//0
//<Encoding>UTF-8</Encoding>
//File updated on 11/18/2025 14:08
//WMO ID: 4901784
//MBARI ID: ODV4901784
//Data source: 4901784_Sprof.nc
//DAC: meds
//Float type: NOVA
//
//PLEASE READ:
//Data for this file has been extracted from the Synthetic profiles (*SProf.nc)
//Only RAW data parameters were used
//Missing Float profile(s) for station(s): 71 156 197 
//
//Missing data value = -1e10
//Argo to ODV QF conversion: Argo 0|99 => ODV 1, Argo 1|2|8 => ODV 0, Argo 3|5 => ODV 4, Argo 4 => ODV 8
//Data quality flags: 0=Good, 4=Questionable, 8=Bad, 1=Missing or not inspected 
Cruise	Station	Type	mon/day/yr	hh:mm	Lon [°E]	Lat [°N]	QF	Pressure[dbar]	QF	Temperature[°C]	QF	Salinity[pss]	QF	Sigma_theta[kg/m^3]	QF	Depth[m]	QF	Oxygen[µmol/kg]	QF	OxygenSat[%]	QF	Nitrate[µmol/kg]	QF	Chl_a[mg/m^3]	QF	b_bp700[1/m]	QF	CDOM[ppb]	QF	pHinsitu[Total]	QF	CP660[1/m]	QF
4901784	0	C	07/05/2015	12:48	-129.007	46.499	0	3.20	0	16.0580	0	32.1510	0	23.545	0	3.174	0	244.6	4	98.8	4	-1E+10	1	-1E+10	1	-1E+10	1	-1E+10	1	-1E+10	1	-1E+10	1
4901784	0	C	07/05/2015	12:48	-129.007	46.499	0	4.60	0	16.0620	0	32.1490	0	23.543	0	4.562	0	244.4	4	98.7	4	-1E+10	1	-1E+10	1	-1E+10	1	-1E+10	1	-1E+10	1	-1E+10	1
4901784	0	C	07/05/2015	12:48	-129.007	46.499	0	6.00	0	16.0620	0	32.1490	0	23.543	0	5.950	0	244.5	4	98.8	4	-1E+10	1	-1E+10	1	-1E+10	1	-1E+10	1	-1E+10	1	-1E+10	1
4901784	0	C	07/05/2015	12:48	-129.007	46.499	0	7.40	0	16.0600	0	32.1500	0	23.544	0	7.339	0	244.2	4	98.7	4	-1E+10	1	-1E+10	1	-1E+10	1	-1E+10	1	-1E+10	1	-1E+10	1
4901784	0	C	07/05/2015	12:48	-129.007	46.499	0	9.20	0	16.0520	0	32.1510	0	23.547	0	9.124	0	244.3	4	98.7	4	-1E+10	1	-1E+10	1	-1E+10	1	-1E+10	1	-1E+10	1	-1E+10	1
4901784	0	C	07/05/2015	12:48	-129.007	46.499	0	10.90	0	16.0550	0	32.1510	0	23.546	0	10.810	0	244.1	4	98.6	4	-1E+10	1	-1E+10	1	-1E+10	1	-1E+10	1	-1E+10	1	-1E+10	1
4901784	0	C	07/05/2015	12:48	-129.007	46.499	0	12.60	0	16.0620	0	32.1490	0	23.543	0	12.496	0	244.0	4	98.6	4	-1E+10	1	-1E+10	1	-1E+10	1	-1E+10	1	-1E+10	1	-1E+10	1
4901784	0	C	07/05/2015	12:48	-129.007	46.499	0	14.40	0	16.0510	0	32.1510	0	23.547	0	14.281	0	244.1	4	98.6	4	-1E+10	1	-1E+10	1	-1E+10	1	-1E+10	1	-1E+10	1	-1E+10	1
4901784	0	C	07/05/2015	12:48	-129.007	46.499	0	16.10	0	16.0630	0	32.1480	0	23.542	0	15.966	0	243.8	4	98.5	4	-1E+10	1	-1E+10	1	-1E+10	1	-1E+10	1	-1E+10	1	-1E+10	1
4901784	0	C	07/05/2015	12:48	-129.007	46.499	0	17.80	0	16.0550	0	32.1490	0	23.545	0	17.652	0	243.9	4	98.5	4	-1E+10	1	-1E+10	1	-1E+10	1	-1E+10	1	-1E+10	1	-1E+10	1
4901784	0	C	07/05/2015	12:48	-129.007	46.499	0	19.50	0	16.0480	0	32.1480	0	23.546	0	19.338	0	243.9	4	98.5	4	-1E+10	1	-1E+10	1	-1E+10	1	-1E+10	1	-1E+10	1	-1E+10	1
4901784	0	C	07/05/2015	12:48	-129.007	46.499	0	21.20	0	16.0360	0	32.1490	0	23.549	0	21.024	0	244.3	4	98.6	4	-1E+10	1	-1E+10	1	-1E+10	1	-1E+10	1	-1E+10	1	-1E+10	1
4901784	0	C	07/05/2015	12:48	-129.007	46.499	0	23.10	0	16.0360	0	32.1420	0	23.544	0	22.908	0	244.8	4	98.9	4	-1E+10	1	-1E+10	1	-1E+10	1	-1E+10	1	-1E+10	1	-1E+10	1
4901784	0	C	07/05/2015	12:48	-129.007	46.499	0	24.50	0	16.0100	0	32.1350	0	23.544	0	24.296	0	245.8	4	99.2	4	-1E+10	1	-1E+10	1	-1E+10	1	-1E+10	1	-1E+10	1	-1E+10	1
4901784	0	C	07/05/2015	12:48	-129.007	46.499	0	25.60	0	15.9030	0	32.1420	0	23.574	0	25.387	0	247.6	4	99.7	4	-1E+10	1	-1E+10	1	-1E+10	1	-1E+10	1	-1E+10	1	-1E+10	1
4901784	0	C	07/05/2015	12:48	-129.007	46.499	0	26.90	0	15.3880	0	32.1660	0	23.706	0	26.676	0	250.7	4	100.0	4	-1E+10	1	-1E+10	1	-1E+10	1	-1E+10	1	-1E+10	1	-1E+10	1
4901784	0	C	07/05/2015	12:48	-129.007	46.499	0	28.50	0	14.3420	0	32.3110	0	24.041	0	28.263	0	256.8	4	100.4	4	-1E+10	1	-1E+10	1	-1E+10	1	-1E+10	1	-1E+10	1	-1E+10	1
4901784	0	C	07/05/2015	12:48	-129.007	46.499	0	30.00	0	14.2310	0	32.3070	0	24.061	0	29.750	0	258.1	4	100.7	4	-1E+10	1	-1E+10	1	-1E+10	1	-1E+10	1	-1E+10	1	-1E+10	1
4901784	0	C	07/05/2015	12:48	-129.007	46.499	0	31.50	0	14.1760	0	32.3070	0	24.072	0	31.238	0	258.9	4	100.9	4	-1E+10	1	-1E+10	1	-1E+10	1	-1E+10	1	-1E+10	1	-1E+10	1
4901784	0	C	07/05/2015	12:48	-129.007	46.499	0	33.10	0	13.8980	0	32.3190	0	24.139	0	32.824	0	260.2	4	100.8	4	-1E+10	1	-1E+10	1	-1E+10	1	-1E+10	1	-1E+10	1	-1E+10	1
4901784	0	C	07/05/2015	12:48	-129.007	46.499	0	34.60	0	13.4480	0	32.2930	0	24.209	0	34.312	0	263.8	4	101.3	4	-1E+10	1	-1E+10	1	-1E+10	1	-1E+10	1	-1E+10	1	-1E+10	1
4901784	0	C	07/05/2015	12:48	-129.007	46.499	0	36.20	0	13.2790	0	32.2970	0	24.246	0	35.898	0	265.2	4	101.5	4	-1E+10	1	-1E+10	1	-1E+10	1	-1E+10	1	-1E+10	1	-1E+10	1
4901784	0	C	07/05/2015	12:48	-129.007	46.499	0	37.90	0	13.0710	0	32.2890	0	24.281	0	37.584	0	267.0	4	101.7	4	-1E+10	1	-1E+10	1	-1E+10	1	-1E+10	1	-1E+10	1	-1E+10	1
4901784	0	C	07/05/2015	12:48	-129.007	46.499	0	39.60	0	12.9490	0	32.3000	0	24.314	0	39.269	0	268.4	4	102.0	4	-1E+10	1	-1E+10	1	-1E+10	1	-1E+10	1	-1E+10	1	-1E+10	1
4901784	0	C	07/05/2015	12:48	-129.007	46.499	0	41.70	0	12.7610	0	32.3300	0	24.373	0	41.352	0	270.1	4	102.3	4	-1E+10	1	-1E+10	1	-1E+10	1	-1E+10	1	-1E+10	1	-1E+10	1
4901784	0	C	07/05/2015	12:48	-129.007	46.499	0	43.40	0	12.6340	0	32.3600	0	24.421	0	43.037	0	270.7	4	102.3	4	-1E+10	1	-1E+10	1	-1E+10	1	-1E+10	1	-1E+10	1	-1E+10	1
4901784	0	C	07/05/2015	12:48	-129.007	46.499	0	44.70	0	12.5850	0	32.3720	0	24.440	0	44.326	0	271.3	4	102.4	4	-1E+10	1	-1E+10	1	-1E+10	1	-1E+10	1	-1E+10	1	-1E+10	1
4901784	0	C	07/05/2015	12:48	-129.007	46.499	0	46.10	0	12.5420	0	32.3740	0	24.450	0	45.714	0	271.6	4	102.4	4	-1E+10	1	-1E+10	1	-1E+10	1	-1E+10	1	-1E+10	1	-1E+10	1
4901784	0	C	07/05/2015	12:48	-129.007	46.499	0	47.60	0	12.3600	0	32.3570	0	24.471	0	47.202	0	272.2	4	102.3	4	-1E+10	1	-1E+10	1	-1E+10	1	-1E+10	1	-1E+10	1	-1E+10	1
4901784	0	C	07/05/2015	12:48	-129.007	46.499	0	49.10	0	12.2820	0	32.3700	0	24.496	0	48.689	0	273.1	4	102.4	4	-1E+10	1	-1E+10	1	-1E+10	1	-1E+10	1	-1E+10	1	-1E+10	1
4901784	0	C	07/05/2015	12:48	-129.007	46.499	0	50.70	0	12.1460	0	32.3920	0	24.539	0	50.275	0	273.8	4	102.4	4	-1E+10	1	-1E+10	1	-1E+10	1	-1E+10	1	-1E+10	1	-1E+10	1
4901784	0	C	07/05/2015	12:48	-129.007	46.499	0	52.20	0	12.1040	0	32.3970	0	24.550	0	51.763	0	273.9	4	102.4	4	-1E+10	1	-1E+10	1	-1E+10	1	-1E+10	1	-1E+10	1	-1E+10	1
4901784	0	C	07/05/2015	12:48	-129.007	46.499	0	53.80	0	11.8980	0	32.4020	0	24.593	0	53.349	0	274.3	4	102.1	4	-1E+10	1	-1E+10	1	-1E+10	1	-1E+10	1	-1E+10	1	-1E+10	1
4901784	0	C	07/05/2015	12:48	-129.007	46.499	0	55.40	0	11.8670	0	32.4100	0	24.605	0	54.935	0	275.2	4	102.3	4	-1E+10	1	-1E+10	1	-1E+10	1	-1E+10	1	-1E+10	1	-1E+10	1
4901784	0	C	07/05/2015	12:48	-129.007	46.499	0	57.00	0	11.8660	0	32.4170	0	24.610	0	56.522	0	274.8	4	102.2	4	-1E+10	1	-1E+10	1	-1E+10	1	-1E+10	1	-1E+10	1	-1E+10	1
4901784	0	C	07/05/2015	12:48	-129.007	46.499	0	58.60	0	11.8640	0	32.4160	0	24.610	0	58.108	0	274.7	4	102.2	4	-1E+10	1	-1E+10	1	-1E+10	1	-1E+10	1	-1E+10	1	-1E+10	1
4901784	0	C	07/05/2015	12:48	-129.007	46.499	0	60.30	0	11.7960	0	32.4370	0	24.639	0	59.794	0	274.6	4	102.0	4	-1E+10	1	-1E+10	1	-1E+10	1	-1E+10	1	-1E+10	1	-1E+10	1
4901784	0	C	07/05/2015	12:48	-129.007	46.499	0	61.90	0	11.7110	0	32.4440	0	24.660	0	61.380	0	274.6	4	101.8	4	-1E+10	1	-1E+10	1	-1E+10	1	-1E+10	1	-1E+10	1	-1E+10	1
4901784	0	C	07/05/2015	12:48	-129.007	46.499	0	63.60	0	11.6560	0	32.4510	0	24.675	0	63.065	0	274.8	4	101.8	4	-1E+10	1	-1E+10	1	-1E+10	1	-1E+10	1	-1E+10	1	-1E+10	1
4901784	0	C	07/05/2015	12:48	-129.007	46.499	0	65.50	0	11.5950	0	32.4620	0	24.695	0	64.949	0	274.7	4	101.6	4	-1E+10	1	-1E+10	1	-1E+10	1	-1E+10	1	-1E+10	1	-1E+10	1
4901784	0	C	07/05/2015	12:48	-129.007	46.499	0	67.30	0	11.5380	0	32.4740	0	24.715	0	66.734	0	274.9	4	101.6	4	-1E+10	1	-1E+10	1	-1E+10	1	-1E+10	1	-1E+10	1	-1E+10	1
4901784	0	C	07/05/2015	12:48	-129.007	46.499	0	69.10	0	11.5340	0	32.4770	0	24.718	0	68.518	0	274.6	4	101.5	4	-1E+10	1	-1E+10	1	-1E+10	1	-1E+10	1	-1E+10	1	-1E+10	1
4901784	0	C	07/05/2015	12:48	-129.007	46.499	0	70.90	0	11.4840	0	32.4970	0	24.743	0	70.303	0	274.0	4	101.2	4	-1E+10	1	-1E+10	1	-1E+10	1	-1E+10	1	-1E+10	1	-1E+10	1
4901784	0	C	07/05/2015	12:48	-129.007	46.499	0	72.70	0	11.4460	0	32.5090	0	24.759	0	72.087	0	273.2	4	100.8	4	-1E+10	1	-1E+10	1	-1E+10	1	-1E+10	1	-1E+10	1	-1E+10	1
4901784	0	C	07/05/2015	12:48	-129.007	46.499	0	74.60	0	11.4510	0	32.5150	0	24.763	0	73.971	0	272.3	4	100.5	4	-1E+10	1	-1E+10	1	-1E+10	1	-1E+10	1	-1E+10	1	-1E+10	1
4901784	0	C	07/05/2015	12:48	-129.007	46.499	0	76.50	0	11.3740	0	32.5450	0	24.800	0	75.854	0	270.7	4	99.7	4	-1E+10	1	-1E+10	1	-1E+10	1	-1E+10	1	-1E+10	1	-1E+10	1
4901784	0	C	07/05/2015	12:48	-129.007	46.499	0	78.40	0	11.3440	0	32.5700	0	24.825	0	77.738	0	269.8	4	99.4	4	-1E+10	1	-1E+10	1	-1E+10	1	-1E+10	1	-1E+10	1	-1E+10	1
4901784	0	C	07/05/2015	12:48	-129.007	46.499	0	80.30	0	11.3870	0	32.6080	0	24.847	0	79.622	0	267.8	4	98.7	4	-1E+10	1	-1E+10	1	-1E+10	1	-1E+10	1	-1E+10	1	-1E+10	1
4901784	0	C	07/05/2015	12:48	-129.007	46.499	0	82.30	0	11.3850	0	32.6240	0	24.859	0	81.604	0	265.8	4	98.0	4	-1E+10	1	-1E+10	1	-1E+10	1	-1E+10	1	-1E+10	1	-1E+10	1
4901784	0	C	07/05/2015	12:48	-129.007	46.499	0	84.20	0	11.3290	0	32.6240	0	24.869	0	83.488	0	264.7	4	97.5	4	-1E+10	1	-1E+10	1	-1E+10	1	-1E+10	1	-1E+10	1	-1E+10	1
4901784	0	C	07/05/2015	12:48	-129.007	46.499	0	86.10	0	11.3600	0	32.6360	0	24.873	0	85.371	0	262.3	4	96.7	4	-1E+10	1	-1E+10	1	-1E+10	1	-1E+10	1	-1E+10	1	-1E+10	1
4901784	0	C	07/05/2015	12:48	-129.007	46.499	0	88.00	0	11.2920	0	32.6480	0	24.895	0	87.255	0	260.0	4	95.7	4	-1E+10	1	-1E+10	1	-1E+10	1	-1E+10	1	-1E+10	1	-1E+10	1
4901784	0	C	07/05/2015	12:48	-129.007	46.499	0	89.80	0	11.2050	0	32.6470	0	24.910	0	89.039	0	255.8	4	94.0	4	-1E+10	1	-1E+10	1	-1E+10	1	-1E+10	1	-1E+10	1	-1E+10	1
4901784	0	C	07/05/2015	12:48	-129.007	46.499	0	91.50	0	10.9990	0	32.6640	0	24.959	0	90.725	0	251.0	4	91.8	4	-1E+10	1	-1E+10	1	-1E+10	1	-1E+10	1	-1E+10	1	-1E+10	1
4901784	0	C	07/05/2015	12:48	-129.007	46.499	0	93.30	0	10.8540	0	32.6420	0	24.968	0	92.509	0	248.8	4	90.7	4	-1E+10	1	-1E+10	1	-1E+10	1	-1E+10	1	-1E+10	1	-1E+10	1
4901784	0	C	07/05/2015	12:48	-129.007	46.499	0	95.10	0	10.7960	0	32.6430	0	24.979	0	94.293	0	246.2	4	89.7	4	-1E+10	1	-1E+10	1	-1E+10	1	-1E+10	1	-1E+10	1	-1E+10	1
4901784	0	C	07/05/2015	12:48	-129.007	46.499	0	96.90	0	10.7380	0	32.6840	0	25.021	0	96.078	0	242.9	4	88.4	4	-1E+10	1	-1E+10	1	-1E+10	1	-1E+10	1	-1E+10	1	-1E+10	1
4901784	0	C	07/05/2015	12:48	-129.007	46.499	0	98.70	0	10.7080	0	32.6960	0	25.035	0	97.862	0	239.1	4	86.9	4	-1E+10	1	-1E+10	1	-1E+10	1	-1E+10	1	-1E+10	1	-1E+10	1
4901784	0	C	07/05/2015	12:48	-129.007	46.499	0	100.50	0	10.5030	0	32.7020	0	25.075	0	99.646	0	235.7	4	85.3	4	-1E+10	1	-1E+10	1	-1E+10	1	-1E+10	1	-1E+10	1	-1E+10	1
4901784	0	C	07/05/2015	12:48	-129.007	46.499	0	102.30	0	10.2810	0	32.7380	0	25.141	0	101.430	0	234.5	4	84.5	4	-1E+10	1	-1E+10	1	-1E+10	1	-1E+10	1	-1E+10	1	-1E+10	1
4901784	0	C	07/05/2015	12:48	-129.007	46.499	0	105.10	0	10.1460	0	32.7280	0	25.156	0	104.206	0	231.8	4	83.3	4	-1E+10	1	-1E+10	1	-1E+10	1	-1E+10	1	-1E+10	1	-1E+10	1
4901784	0	C	07/05/2015	12:48	-129.007	46.499	0	107.60	0	9.9830	0	32.7320	0	25.187	0	106.684	0	227.8	4	81.6	4	-1E+10	1	-1E+10	1	-1E+10	1	-1E+10	1	-1E+10	1	-1E+10	1
4901784	0	C	07/05/2015	12:48	-129.007	46.499	0	109.70	0	9.7000	0	32.7470	0	25.245	0	108.766	0	224.5	4	79.9	4	-1E+10	1	-1E+10	1	-1E+10	1	-1E+10	1	-1E+10	1	-1E+10	1
4901784	0	C	07/05/2015	12:48	-129.007	46.499	0	112.70	0	9.1230	0	32.7950	0	25.375	0	111.739	0	221.9	4	78.0	4	-1E+10	1	-1E+10	1	-1E+10	1	-1E+10	1	-1E+10	1	-1E+10	1
4901784	0	C	07/05/2015	12:48	-129.007	46.499	0	115.10	0	8.9700	0	32.8420	0	25.435	0	114.118	0	220.5	4	77.3	4	-1E+10	1	-1E+10	1	-1E+10	1	-1E+10	1	-1E+10	1	-1E+10	1
4901784	0	C	07/05/2015	12:48	-129.007	46.499	0	117.70	0	8.7240	0	32.9050	0	25.523	0	116.695	0	217.0	4	75.7	4	-1E+10	1	-1E+10	1	-1E+10	1	-1E+10	1	-1E+10	1	-1E+10	1
4901784	0	C	07/05/2015	12:48	-129.007	46.499	0	120.10	0	8.4820	0	32.9280	0	25.578	0	119.074	0	212.9	4	73.9	4	-1E+10	1	-1E+10	1	-1E+10	1	-1E+10	1	-1E+10	1	-1E+10	1
4901784	0	C	07/05/2015	12:48	-129.007	46.499	0	121.80	0	8.3380	0	32.9360	0	25.605	0	120.759	0	211.3	4	73.1	4	-1E+10	1	-1E+10	1	-1E+10	1	-1E+10	1	-1E+10	1	-1E+10	1
4901784	0	C	07/05/2015	12:48	-129.007	46.499	0	124.60	0	8.1820	0	32.9700	0	25.655	0	123.534	0	209.9	4	72.4	4	-1E+10	1	-1E+10	1	-1E+10	1	-1E+10	1	-1E+10	1	-1E+10	1
4901784	0	C	07/05/2015	12:48	-129.007	46.499	0	127.30	0	8.0790	0	33.0080	0	25.700	0	126.210	0	209.0	4	71.9	4	-1E+10	1	-1E+10	1	-1E+10	1	-1E+10	1	-1E+10	1	-1E+10	1
4901784	0	C	07/05/2015	12:48	-129.007	46.499	0	129.70	0	7.9800	0	33.0570	0	25.753	0	128.589	0	209.1	4	71.8	4	-1E+10	1	-1E+10	1	-1E+10	1	-1E+10	1	-1E+10	1	-1E+10	1
4901784	0	C	07/05/2015	12:48	-129.007	46.499	0	132.80	0	7.9340	0	33.0900	0	25.786	0	131.661	0	210.9	4	72.4	4	-1E+10	1	-1E+10	1	-1E+10	1	-1E+10	1	-1E+10	1	-1E+10	1
4901784	0	C	07/05/2015	12:48	-129.007	46.499	0	135.20	0	7.8900	0	33.1250	0	25.820	0	134.040	0	211.1	4	72.4	4	-1E+10	1	-1E+10	1	-1E+10	1	-1E+10	1	-1E+10	1	-1E+10	1
4901784	0	C	07/05/2015	12:48	-129.007	46.499	0	137.70	0	7.8420	0	33.1640	0	25.857	0	136.518	0	212.6	4	72.9	4	-1E+10	1	-1E+10	1	-1E+10	1	-1E+10	1	-1E+10	1	-1E+10	1
4901784	0	C	07/05/2015	12:48	-129.007	46.499	0	140.20	0	7.8150	0	33.1870	0	25.879	0	138.995	0	213.1	4	73.0	4	-1E+10	1	-1E+10	1	-1E+10	1	-1E+10	1	-1E+10	1	-1E+10	1
4901784	0	C	07/05/2015	12:48	-129.007	46.499	0	142.70	0	7.7890	0	33.2320	0	25.918	0	141.473	0	212.4	4	72.7	4	-1E+10	1	-1E+10	1	-1E+10	1	-1E+10	1	-1E+10	1	-1E+10	1
4901784	0	C	07/05/2015	12:48	-129.007	46.499	0	145.20	0	7.7530	0	33.2790	0	25.960	0	143.951	0	211.5	4	72.4	4	-1E+10	1	-1E+10	1	-1E+10	1	-1E+10	1	-1E+10	1	-1E+10	1
4901784	0	C	07/05/2015	12:48	-129.007	46.499	0	147.00	0	7.7630	0	33.3140	0	25.987	0	145.735	0	211.1	4	72.3	4	-1E+10	1	-1E+10	1	-1E+10	1	-1E+10	1	-1E+10	1	-1E+10	1
4901784	0	C	07/05/2015	12:48	-129.007	46.499	0	149.60	0	7.7960	0	33.3460	0	26.007	0	148.311	0	210.0	4	72.0	4	-1E+10	1	-1E+10	1	-1E+10	1	-1E+10	1	-1E+10	1	-1E+10	1
4901784	0	C	07/05/2015	12:48	-129.007	46.499	0	152.30	0	7.8390	0	33.3830	0	26.030	0	150.987	0	208.3	4	71.5	4	-1E+10	1	-1E+10	1	-1E+10	1	-1E+10	1	-1E+10	1	-1E+10	1
4901784	0	C	07/05/2015	12:48	-129.007	46.499	0	154.60	0	7.7930	0	33.4200	0	26.066	0	153.266	0	206.9	4	71.0	4	-1E+10	1	-1E+10	1	-1E+10	1	-1E+10	1	-1E+10	1	-1E+10	1
4901784	0	C	07/05/2015	12:48	-129.007	46.499	0	157.10	0	7.7870	0	33.4430	0	26.085	0	155.744	0	205.1	4	70.3	4	-1E+10	1	-1E+10	1	-1E+10	1	-1E+10	1	-1E+10	1	-1E+10	1
4901784	0	C	07/05/2015	12:48	-129.007	46.499	0	160.10	0	7.7620	0	33.4810	0	26.118	0	158.717	0	202.5	4	69.4	4	-1E+10	1	-1E+10	1	-1E+10	1	-1E+10	1	-1E+10	1	-1E+10	1
4901784	0	C	07/05/2015	12:48	-129.007	46.499	0	162.40	0	7.7170	0	33.4960	0	26.136	0	160.996	0	200.9	4	68.8	4	-1E+10	1	-1E+10	1	-1E+10	1	-1E+10	1	-1E+10	1	-1E+10	1
4901784	0	C	07/05/2015	12:48	-129.007	46.499	0	164.80	0	7.7300	0	33.5120	0	26.147	0	163.374	0	199.6	4	68.4	4	-1E+10	1	-1E+10	1	-1E+10	1	-1E+10	1	-1E+10	1	-1E+10	1
4901784	0	C	07/05/2015	12:48	-129.007	46.499	0	167.90	0	7.7190	0	33.5280	0	26.161	0	166.446	0	196.0	4	67.2	4	-1E+10	1	-1E+10	1	-1E+10	1	-1E+10	1	-1E+10	1	-1E+10	1
4901784	0	C	07/05/2015	12:48	-129.007	46.499	0	170.30	0	7.6800	0	33.5520	0	26.186	0	168.825	0	193.2	4	66.1	4	-1E+10	1	-1E+10	1	-1E+10	1	-1E+10	1	-1E+10	1	-1E+10	1
4901784	0	C	07/05/2015	12:48	-129.007	46.499	0	172.70	0	7.6600	0	33.5960	0	26.223	0	171.203	0	190.2	4	65.1	4	-1E+10	1	-1E+10	1	-1E+10	1	-1E+10	1	-1E+10	1	-1E+10	1
4901784	0	C	07/05/2015	12:48	-129.007	46.499	0	175.00	0	7.6370	0	33.6340	0	26.256	0	173.482	0	188.1	4	64.4	4	-1E+10	1	-1E+10	1	-1E+10	1	-1E+10	1	-1E+10	1	-1E+10	1
4901784	0	C	07/05/2015	12:48	-129.007	46.499	0	177.50	0	7.6240	0	33.6670	0	26.284	0	175.959	0	186.6	4	63.9	4	-1E+10	1	-1E+10	1	-1E+10	1	-1E+10	1	-1E+10	1	-1E+10	1
4901784	0	C	07/05/2015	12:48	-129.007	46.499	0	180.00	0	7.6220	0	33.6910	0	26.303	0	178.436	0	185.3	4	63.4	4	-1E+10	1	-1E+10	1	-1E+10	1	-1E+10	1	-1E+10	1	-1E+10	1
4901784	0	C	07/05/2015	12:48	-129.007	46.499	0	182.40	0	7.6050	0	33.7070	0	26.319	0	180.814	0	183.6	4	62.8	4	-1E+10	1	-1E+10	1	-1E+10	1	-1E+10	1	-1E+10	1	-1E+10	1
4901784	0	C	07/05/2015	12:48	-129.007	46.499	0	184.90	0	7.5810	0	33.7230	0	26.335	0	183.292	0	182.0	4	62.2	4	-1E+10	1	-1E+10	1	-1E+10	1	-1E+10	1	-1E+10	1	-1E+10	1
4901784	0	C	07/05/2015	12:48	-129.007	46.499	0	187.50	0	7.5340	0	33.7280	0	26.345	0	185.868	0	180.9	4	61.8	4	-1E+10	1	-1E+10	1	-1E+10	1	-1E+10	1	-1E+10	1	-1E+10	1
4901784	0	C	07/05/2015	12:48	-129.007	46.499	0	190.00	0	7.5300	0	33.7290	0	26.347	0	188.345	0	180.5	4	61.7	4	-1E+10	1	-1E+10	1	-1E+10	1	-1E+10	1	-1E+10	1	-1E+10	1
4901784	0	C	07/05/2015	12:48	-129.007	46.499	0	192.40	0	7.5240	0	33.7400	0	26.356	0	190.723	0	179.9	4	61.5	4	-1E+10	1	-1E+10	1	-1E+10	1	-1E+10	1	-1E+10	1	-1E+10	1
4901784	0	C	07/05/2015	12:48	-129.007	46.499	0	195.00	0	7.5100	0	33.7590	0	26.373	0	193.299	0	179.7	4	61.4	4	-1E+10	1	-1E+10	1	-1E+10	1	-1E+10	1	-1E+10	1	-1E+10	1
4901784	0	C	07/05/2015	12:48	-129.007	46.499	0	197.50	0	7.5190	0	33.7750	0	26.384	0	195.776	0	178.9	4	61.1	4	-1E+10	1	-1E+10	1	-1E+10	1	-1E+10	1	-1E+10	1	-1E+10	1
4901784	0	C	07/05/2015	12:48	-129.007	46.499	0	200.00	0	7.5080	0	33.7860	0	26.395	0	198.253	0	177.5	4	60.7	4	-1E+10	1	-1E+10	1	-1E+10	1	-1E+10	1	-1E+10	1	-1E+10	1
4901784	0	C	07/05/2015	12:48	-129.007	46.499	0	202.50	0	7.4650	0	33.7990	0	26.411	0	200.730	0	176.1	4	60.1	4	-1E+10	1	-1E+10	1	-1E+10	1	-1E+10	1	-1E+10	1	-1E+10	1
4901784	0	C	07/05/2015	12:48	-129.007	46.499	0	205.10	0	7.4240	0	33.8100	0	26.425	0	203.306	0	175.0	4	59.7	4	-1E+10	1	-1E+10	1	-1E+10	1	-1E+10	1	-1E+10	1	-1E+10	1
4901784	0	C	07/05/2015	12:48	-129.007	46.499	0	207.60	0	7.3890	0	33.8180	0	26.437	0	205.783	0	173.9	4	59.3	4	-1E+10	1	-1E+10	1	-1E+10	1	-1E+10	1	-1E+10	1	-1E+10	1
4901784	0	C	07/05/2015	12:48	-129.007	46.499	0	210.10	0	7.3370	0	33.8280	0	26.452	0	208.260	0	172.8	4	58.8	4	-1E+10	1	-1E+10	1	-1E+10	1	-1E+10	1	-1E+10	1	-1E+10	1
4901784	0	C	07/05/2015	12:48	-129.007	46.499	0	212.70	0	7.2850	0	33.8350	0	26.465	0	210.836	0	171.8	4	58.4	4	-1E+10	1	-1E+10	1	-1E+10	1	-1E+10	1	-1E+10	1	-1E+10	1
4901784	0	C	07/05/2015	12:48	-129.007	46.499	0	215.20	0	7.2550	0	33.8380	0	26.471	0	213.312	0	170.7	4	58.0	4	-1E+10	1	-1E+10	1	-1E+10	1	-1E+10	1	-1E+10	1	-1E+10	1
4901784	0	C	07/05/2015	12:48	-129.007	46.499	0	217.80	0	7.2200	0	33.8410	0	26.479	0	215.888	0	169.5	4	57.6	4	-1E+10	1	-1E+10	1	-1E+10	1	-1E+10	1	-1E+10	1	-1E+10	1
4901784	0	C	07/05/2015	12:48	-129.007	46.499	0	220.40	0	7.1800	0	33.8440	0	26.486	0	218.464	0	168.3	4	57.1	4	-1E+10	1	-1E+10	1	-1E+10	1	-1E+10	1	-1E+10	1	-1E+10	1
4901784	0	C	07/05/2015	12:48	-129.007	46.499	0	222.10	0	7.1580	0	33.8460	0	26.491	0	220.148	0	167.5	4	56.8	4	-1E+10	1	-1E+10	1	-1E+10	1	-1E+10	1	-1E+10	1	-1E+10	1
4901784	0	C	07/05/2015	12:48	-129.007	46.499	0	224.70	0	7.1210	0	33.8480	0	26.498	0	222.724	0	166.2	4	56.3	4	-1E+10	1	-1E+10	1	-1E+10	1	-1E+10	1	-1E+10	1	-1E+10	1
4901784	0	C	07/05/2015	12:48	-129.007	46.499	0	227.40	0	7.0800	0	33.8510	0	26.506	0	225.399	0	164.3	4	55.6	4	-1E+10	1	-1E+10	1	-1E+10	1	-1E+10	1	-1E+10	1	-1E+10	1
4901784	0	C	07/05/2015	12:48	-129.007	46.499	0	229.90	0	7.0470	0	33.8520	0	26.511	0	227.875	0	162.2	4	54.9	4	-1E+10	1	-1E+10	1	-1E+10	1	-1E+10	1	-1E+10	1	-1E+10	1
4901784	0	C	07/05/2015	12:48	-129.007	46.499	0	232.60	0	6.9810	0	33.8550	0	26.523	0	230.550	0	160.1	4	54.1	4	-1E+10	1	-1E+10	1	-1E+10	1	-1E+10	1	-1E+10	1	-1E+10	1
4901784	0	C	07/05/2015	12:48	-129.007	46.499	0	235.30	0	6.9470	0	33.8560	0	26.528	0	233.225	0	159.3	4	53.8	4	-1E+10	1	-1E+10	1	-1E+10	1	-1E+10	1	-1E+10	1	-1E+10	1
4901784	0	C	07/05/2015	12:48	-129.007	46.499	0	238.00	0	6.9340	0	33.8550	0	26.529	0	235.899	0	158.3	4	53.4	4	-1E+10	1	-1E+10	1	-1E+10	1	-1E+10	1	-1E+10	1	-1E+10	1
4901784	0	C	07/05/2015	12:48	-129.007	46.499	0	239.80	0	6.9070	0	33.8570	0	26.534	0	237.683	0	157.4	4	53.1	4	-1E+10	1	-1E+10	1	-1E+10	1	-1E+10	1	-1E+10	1	-1E+10	1
4901784	0	C	07/05/2015	12:48	-129.007	46.499	0	242.50	0	6.8680	0	33.8590	0	26.541	0	240.357	0	156.5	4	52.7	4	-1E+10	1	-1E+10	1	-1E+10	1	-1E+10	1	-1E+10	1	-1E+10	1
4901784	0	C	07/05/2015	12:48	-129.007	46.499	0	245.30	0	6.8480	0	33.8590	0	26.544	0	243.131	0	155.4	4	52.3	4	-1E+10	1	-1E+10	1	-1E+10	1	-1E+10	1	-1E+10	1	-1E+10	1
4901784	0	C	07/05/2015	12:48	-129.007	46.499	0	247.20	0	6.8210	0	33.8600	0	26.548	0	245.013	0	154.5	4	52.0	4	-1E+10	1	-1E+10	1	-1E+10	1	-1E+10	1	-1E+10	1	-1E+10	1
4901784	0	C	07/05/2015	12:48	-129.007	46.499	0	250.00	0	6.7560	0	33.8620	0	26.559	0	247.786	0	153.5	4	51.6	4	-1E+10	1	-1E+10	1	-1E+10	1	-1E+10	1	-1E+10	1	-1E+10	1
4901784	0	C	07/05/2015	12:48	-129.007	46.499	0	252.80	0	6.6760	0	33.8680	0	26.574	0	250.560	0	151.7	4	50.9	4	-1E+10	1	-1E+10	1	-1E+10	1	-1E+10	1	-1E+10	1	-1E+10	1
4901784	0	C	07/05/2015	12:48	-129.007	46.499	0	254.70	0	6.6520	0	33.8680	0	26.577	0	252.442	0	151.2	4	50.7	4	-1E+10	1	-1E+10	1	-1E+10	1	-1E+10	1	-1E+10	1	-1E+10	1
4901784	0	C	07/05/2015	12:48	-129.007	46.499	0	257.50	0	6.6350	0	33.8680	0	26.579	0	255.215	0	150.4	4	50.4	4	-1E+10	1	-1E+10	1	-1E+10	1	-1E+10	1	-1E+10	1	-1E+10	1
4901784	0	C	07/05/2015	12:48	-129.007	46.499	0	260.30	0	6.6120	0	33.8690	0	26.583	0	257.989	0	149.3	4	50.0	4	-1E+10	1	-1E+10	1	-1E+10	1	-1E+10	1	-1E+10	1	-1E+10	1
4901784	0	C	07/05/2015	12:48	-129.007	46.499	0	262.20	0	6.5860	0	33.8680	0	26.586	0	259.871	0	148.2	4	49.6	4	-1E+10	1	-1E+10	1	-1E+10	1	-1E+10	1	-1E+10	1	-1E+10	1
4901784	0	C	07/05/2015	12:48	-129.007	46.499	0	265.10	0	6.5510	0	33.8710	0	26.593	0	262.743	0	146.6	4	49.0	4	-1E+10	1	-1E+10	1	-1E+10	1	-1E+10	1	-1E+10	1	-1E+10	1
4901784	0	C	07/05/2015	12:48	-129.007	46.499	0	267.90	0	6.5040	0	33.8700	0	26.598	0	265.516	0	145.2	4	48.5	4	-1E+10	1	-1E+10	1	-1E+10	1	-1E+10	1	-1E+10	1	-1E+10	1
4901784	0	C	07/05/2015	12:48	-129.007	46.499	0	269.80	0	6.4550	0	33.8730	0	26.607	0	267.398	0	144.1	4	48.1	4	-1E+10	1	-1E+10	1	-1E+10	1	-1E+10	1	-1E+10	1	-1E+10	1
4901784	0	C	07/05/2015	12:48	-129.007	46.499	0	272.70	0	6.4170	0	33.8730	0	26.612	0	270.271	0	143.4	4	47.8	4	-1E+10	1	-1E+10	1	-1E+10	1	-1E+10	1	-1E+10	1	-1E+10	1
4901784	0	C	07/05/2015	12:48	-129.007	46.499	0	275.50	0	6.3670	0	33.8730	0	26.619	0	273.044	0	142.6	4	47.5	4	-1E+10	1	-1E+10	1	-1E+10	1	-1E+10	1	-1E+10	1	-1E+10	1
4901784	0	C	07/05/2015	12:48	-129.007	46.499	0	277.40	0	6.3530	0	33.8720	0	26.620	0	274.926	0	142.0	4	47.3	4	-1E+10	1	-1E+10	1	-1E+10	1	-1E+10	1	-1E+10	1	-1E+10	1
4901784	0	C	07/05/2015	12:48	-129.007	46.499	0	279.40	0	6.3220	0	33.8720	0	26.624	0	276.906	0	141.4	4	47.1	4	-1E+10	1	-1E+10	1	-1E+10	1	-1E+10	1	-1E+10	1	-1E+10	1
4901784	0	C	07/05/2015	12:48	-129.007	46.499	0	282.20	0	6.2710	0	33.8730	0	26.631	0	279.680	0	140.3	4	46.6	4	-1E+10	1	-1E+10	1	-1E+10	1	-1E+10	1	-1E+10	1	-1E+10	1
4901784	0	C	07/05/2015	12:48	-129.007	46.499	0	285.10	0	6.2270	0	33.8720	0	26.636	0	282.552	0	139.0	4	46.1	4	-1E+10	1	-1E+10	1	-1E+10	1	-1E+10	1	-1E+10	1	-1E+10	1
4901784	0	C	07/05/2015	12:48	-129.007	46.499	0	287.00	0	6.2060	0	33.8710	0	26.638	0	284.433	0	138.0	4	45.8	4	-1E+10	1	-1E+10	1	-1E+10	1	-1E+10	1	-1E+10	1	-1E+10	1
4901784	0	C	07/05/2015	12:48	-129.007	46.499	0	289.90	0	6.1530	0	33.8740	0	26.647	0	287.305	0	136.1	4	45.1	4	-1E+10	1	-1E+10	1	-1E+10	1	-1E+10	1	-1E+10	1	-1E+10	1
4901784	0	C	07/05/2015	12:48	-129.007	46.499	0	292.70	0	6.1370	0	33.8740	0	26.649	0	290.078	0	134.4	4	44.5	4	-1E+10	1	-1E+10	1	-1E+10	1	-1E+10	1	-1E+10	1	-1E+10	1
4901784	0	C	07/05/2015	12:48	-129.007	46.499	0	294.60	0	6.0930	0	33.8750	0	26.655	0	291.960	0	133.1	4	44.0	4	-1E+10	1	-1E+10	1	-1E+10	1	-1E+10	1	-1E+10	1	-1E+10	1
4901784	0	C	07/05/2015	12:48	-129.007	46.499	0	297.40	0	6.0520	0	33.8770	0	26.662	0	294.733	0	131.7	4	43.5	4	-1E+10	1	-1E+10	1	-1E+10	1	-1E+10	1	-1E+10	1	-1E+10	1
4901784	0	C	07/05/2015	12:48	-129.007	46.499	0	300.20	0	6.0090	0	33.8770	0	26.668	0	297.506	0	130.9	4	43.2	4	-1E+10	1	-1E+10	1	-1E+10	1	-1E+10	1	-1E+10	1	-1E+10	1
4901784	0	C	07/05/2015	12:48	-129.007	46.499	0	302.00	0	5.9900	0	33.8770	0	26.670	0	299.288	0	130.2	4	43.0	4	-1E+10	1	-1E+10	1	-1E+10	1	-1E+10	1	-1E+10	1	-1E+10	1
4901784	0	C	07/05/2015	12:48	-129.007	46.499	0	304.80	0	5.9630	0	33.8760	0	26.673	0	302.061	0	128.8	4	42.5	4	-1E+10	1	-1E+10	1	-1E+10	1	-1E+10	1	-1E+10	1	-1E+10	1
4901784	0	C	07/05/2015	12:48	-129.007	46.499	0	307.60	0	5.9270	0	33.8760	0	26.677	0	304.834	0	127.2	4	41.9	4	-1E+10	1	-1E+10	1	-1E+10	1	-1E+10	1	-1E+10	1	-1E+10	1
4901784	0	C	07/05/2015	12:48	-129.007	46.499	0	309.50	0	5.9000	0	33.8790	0	26.683	0	306.715	0	126.1	4	41.6	4	-1E+10	1	-1E+10	1	-1E+10	1	-1E+10	1	-1E+10	1	-1E+10	1
4901784	0	C	07/05/2015	12:48	-129.007	46.499	0	312.30	0	5.8650	0	33.8780	0	26.686	0	309.488	0	124.7	4	41.1	4	-1E+10	1	-1E+10	1	-1E+10	1	-1E+10	1	-1E+10	1	-1E+10	1
4901784	0	C	07/05/2015	12:48	-129.007	46.499	0	315.10	0	5.8260	0	33.8790	0	26.692	0	312.261	0	123.5	4	40.6	4	-1E+10	1	-1E+10	1	-1E+10	1	-1E+10	1	-1E+10	1	-1E+10	1
4901784	0	C	07/05/2015	12:48	-129.007	46.499	0	317.00	0	5.8190	0	33.8780	0	26.692	0	314.142	0	122.6	4	40.3	4	-1E+10	1	-1E+10	1	-1E+10	1	-1E+10	1	-1E+10	1	-1E+10	1
4901784	0	C	07/05/2015	12:48	-129.007	46.499	0	319.90	0	5.7950	0	33.8800	0	26.697	0	317.014	0	121.1	4	39.8	4	-1E+10	1	-1E+10	1	-1E+10	1	-1E+10	1	-1E+10	1	-1E+10	1
4901784	0	C	07/05/2015	12:48	-129.007	46.499	0	322.70	0	5.7480	0	33.8800	0	26.702	0	319.787	0	119.5	4	39.2	4	-1E+10	1	-1E+10	1	-1E+10	1	-1E+10	1	-1E+10	1	-1E+10	1
4901784	0	C	07/05/2015	12:48	-129.007	46.499	0	324.70	0	5.7310	0	33.8810	0	26.705	0	321.767	0	118.5	4	38.9	4	-1E+10	1	-1E+10	1	-1E+10	1	-1E+10	1	-1E+10	1	-1E+10	1
4901784	0	C	07/05/2015	12:48	-129.007	46.499	0	327.50	0	5.7160	0	33.8810	0	26.707	0	324.539	0	116.8	4	38.3	4	-1E+10	1	-1E+10	1	-1E+10	1	-1E+10	1	-1E+10	1	-1E+10	1
4901784	0	C	07/05/2015	12:48	-129.007	46.499	0	330.30	0	5.6920	0	33.8820	0	26.711	0	327.312	0	114.4	4	37.5	4	-1E+10	1	-1E+10	1	-1E+10	1	-1E+10	1	-1E+10	1	-1E+10	1
4901784	0	C	07/05/2015	12:48	-129.007	46.499	0	332.30	0	5.6670	0	33.8820	0	26.714	0	329.292	0	112.3	4	36.8	4	-1E+10	1	-1E+10	1	-1E+10	1	-1E+10	1	-1E+10	1	-1E+10	1
4901784	0	C	07/05/2015	12:48	-129.007	46.499	0	334.20	0	5.6490	0	33.8850	0	26.718	0	331.174	0	110.0	4	36.0	4	-1E+10	1	-1E+10	1	-1E+10	1	-1E+10	1	-1E+10	1	-1E+10	1
4901784	0	C	07/05/2015	12:48	-129.007	46.499	0	337.30	0	5.6240	0	33.8920	0	26.727	0	334.243	0	106.8	4	35.0	4	-1E+10	1	-1E+10	1	-1E+10	1	-1E+10	1	-1E+10	1	-1E+10	1
4901784	0	C	07/05/2015	12:48	-129.007	46.499	0	340.20	0	5.5690	0	33.8930	0	26.734	0	337.114	0	105.4	4	34.5	4	-1E+10	1	-1E+10	1	-1E+10	1	-1E+10	1	-1E+10	1	-1E+10	1
4901784	0	C	07/05/2015	12:48	-129.007	46.499	0	342.70	0	5.5660	0	33.8940	0	26.736	0	339.590	0	103.4	4	33.8	4	-1E+10	1	-1E+10	1	-1E+10	1	-1E+10	1	-1E+10	1	-1E+10	1
4901784	0	C	07/05/2015	12:48	-129.007	46.499	0	345.10	0	5.5650	0	33.8960	0	26.737	0	341.966	0	101.0	4	33.0	4	-1E+10	1	-1E+10	1	-1E+10	1	-1E+10	1	-1E+10	1	-1E+10	1
4901784	0	C	07/05/2015	12:48	-129.007	46.499	0	347.50	0	5.5530	0	33.9010	0	26.743	0	344.342	0	100.0	4	32.7	4	-1E+10	1	-1E+10	1	-1E+10	1	-1E+10	1	-1E+10	1	-1E+10	1
4901784	0	C	07/05/2015	12:48	-129.007	46.499	0	350.00	0	5.4960	0	33.8990	0	26.748	0	346.817	0	99.2	4	32.4	4	-1E+10	1	-1E+10	1	-1E+10	1	-1E+10	1	-1E+10	1	-1E+10	1
4901784	0	C	07/05/2015	12:48	-129.007	46.499	0	352.40	0	5.4730	0	33.9000	0	26.752	0	349.193	0	96.5	4	31.5	4	-1E+10	1	-1E+10	1	-1E+10	1	-1E+10	1	-1E+10	1	-1E+10	1
4901784	0	C	07/05/2015	12:48	-129.007	46.499	0	354.80	0	5.4490	0	33.9050	0	26.758	0	351.569	0	91.9	4	30.0	4	-1E+10	1	-1E+10	1	-1E+10	1	-1E+10	1	-1E+10	1	-1E+10	1
4901784	0	C	07/05/2015	12:48	-129.007	46.499	0	357.40	0	5.5470	0	33.9210	0	26.759	0	354.144	0	88.4	4	28.9	4	-1E+10	1	-1E+10	1	-1E+10	1	-1E+10	1	-1E+10	1	-1E+10	1
4901784	0	C	07/05/2015	12:48	-129.007	46.499	0	359.80	0	5.4760	0	33.9160	0	26.764	0	356.520	0	85.8	4	28.0	4	-1E+10	1	-1E+10	1	-1E+10	1	-1E+10	1	-1E+10	1	-1E+10	1
4901784	0	C	07/05/2015	12:48	-129.007	46.499	0	362.40	0	5.5940	0	33.9360	0	26.766	0	359.094	0	81.9	4	26.8	4	-1E+10	1	-1E+10	1	-1E+10	1	-1E+10	1	-1E+10	1	-1E+10	1
4901784	0	C	07/05/2015	12:48	-129.007	46.499	0	364.90	0	5.5050	0	33.9280	0	26.770	0	361.569	0	81.7	4	26.7	4	-1E+10	1	-1E+10	1	-1E+10	1	-1E+10	1	-1E+10	1	-1E+10	1
4901784	0	C	07/05/2015	12:48	-129.007	46.499	0	367.30	0	5.5580	0	33.9400	0	26.773	0	363.945	0	79.1	4	25.9	4	-1E+10	1	-1E+10	1	-1E+10	1	-1E+10	1	-1E+10	1	-1E+10	1
4901784	0	C	07/05/2015	12:48	-129.007	46.499	0	369.80	0	5.5760	0	33.9400	0	26.771	0	366.420	0	80.3	4	26.3	4	-1E+10	1	-1E+10	1	-1E+10	1	-1E+10	1	-1E+10	1	-1E+10	1
4901784	0	C	07/05/2015	12:48	-129.007	46.499	0	372.30	0	5.4340	0	33.9300	0	26.780	0	368.895	0	81.1	4	26.4	4	-1E+10	1	-1E+10	1	-1E+10	1	-1E+10	1	-1E+10	1	-1E+10	1
4901784	0	C	07/05/2015	12:48	-129.007	46.499	0	374.80	0	5.4230	0	33.9380	0	26.788	0	371.369	0	80.2	4	26.1	4	-1E+10	1	-1E+10	1	-1E+10	1	-1E+10	1	-1E+10	1	-1E+10	1
4901784	0	C	07/05/2015	12:48	-129.007	46.499	0	377.30	0	5.3820	0	33.9320	0	26.788	0	373.844	0	80.9	4	26.4	4	-1E+10	1	-1E+10	1	-1E+10	1	-1E+10	1	-1E+10	1	-1E+10	1
4901784	0	C	07/05/2015	12:48	-129.007	46.499	0	379.80	0	5.3050	0	33.9270	0	26.793	0	376.319	0	82.1	4	26.7	4	-1E+10	1	-1E+10	1	-1E+10	1	-1E+10	1	-1E+10	1	-1E+10	1
4901784	0	C	07/05/2015	12:48	-129.007	46.499	0	382.30	0	5.2400	0	33.9220	0	26.797	0	378.794	0	81.8	4	26.6	4	-1E+10	1	-1E+10	1	-1E+10	1	-1E+10	1	-1E+10	1	-1E+10	1
4901784	0	C	07/05/2015	12:48	-129.007	46.499	0	384.90	0	5.1950	0	33.9210	0	26.801	0	381.368	0	80.4	4	26.1	4	-1E+10	1	-1E+10	1	-1E+10	1	-1E+10	1	-1E+10	1	-1E+10	1
4901784	0	C	07/05/2015	12:48	-129.007	46.499	0	387.40	0	5.2200	0	33.9280	0	26.804	0	383.843	0	78.4	4	25.4	4	-1E+10	1	-1E+10	1	-1E+10	1	-1E+10	1	-1E+10	1	-1E+10	1
4901784	0	C	07/05/2015	12:48	-129.007	46.499	0	390.00	0	5.2220	0	33.9280	0	26.804	0	386.416	0	76.5	4	24.8	4	-1E+10	1	-1E+10	1	-1E+10	1	-1E+10	1	-1E+10	1	-1E+10	1
4901784	0	C	07/05/2015	12:48	-129.007	46.499	0	392.50	0	5.2160	0	33.9360	0	26.811	0	388.891	0	73.9	4	24.0	4	-1E+10	1	-1E+10	1	-1E+10	1	-1E+10	1	-1E+10	1	-1E+10	1
4901784	0	C	07/05/2015	12:48	-129.007	46.499	0	395.10	0	5.2580	0	33.9470	0	26.814	0	391.465	0	71.6	4	23.2	4	-1E+10	1	-1E+10	1	-1E+10	1	-1E+10	1	-1E+10	1	-1E+10	1
4901784	0	C	07/05/2015	12:48	-129.007	46.499	0	397.60	0	5.2530	0	33.9480	0	26.816	0	393.939	0	70.3	4	22.8	4	-1E+10	1	-1E+10	1	-1E+10	1	-1E+10	1	-1E+10	1	-1E+10	1
4901784	0	C	07/05/2015	12:48	-129.007	46.499	0	400.20	0	5.2840	0	33.9540	0	26.817	0	396.513	0	68.6	4	22.3	4	-1E+10	1	-1E+10	1	-1E+10	1	-1E+10	1	-1E+10	1	-1E+10	1
4901784	0	C	07/05/2015	12:48	-129.007	46.499	0	402.70	0	5.3190	0	33.9600	0	26.818	0	398.987	0	68.1	4	22.2	4	-1E+10	1	-1E+10	1	-1E+10	1	-1E+10	1	-1E+10	1	-1E+10	1
4901784	0	C	07/05/2015	12:48	-129.007	46.499	0	405.30	0	5.3250	0	33.9580	0	26.815	0	401.561	0	68.6	4	22.3	4	-1E+10	1	-1E+10	1	-1E+10	1	-1E+10	1	-1E+10	1	-1E+10	1
4901784	0	C	07/05/2015	12:48	-129.007	46.499	0	407.00	0	5.2660	0	33.9560	0	26.821	0	403.243	0	69.5	4	22.6	4	-1E+10	1	-1E+10	1	-1E+10	1	-1E+10	1	-1E+10	1	-1E+10	1
4901784	0	C	07/05/2015	12:48	-129.007	46.499	0	409.70	0	5.1850	0	33.9480	0	26.824	0	405.916	0	69.6	4	22.6	4	-1E+10	1	-1E+10	1	-1E+10	1	-1E+10	1	-1E+10	1	-1E+10	1
4901784	0	C	07/05/2015	12:48	-129.007	46.499	0	412.20	0	5.1600	0	33.9500	0	26.828	0	408.390	0	68.5	4	22.2	4	-1E+10	1	-1E+10	1	-1E+10	1	-1E+10	1	-1E+10	1	-1E+10	1
4901784	0	C	07/05/2015	12:48	-129.007	46.499	0	414.90	0	5.1450	0	33.9510	0	26.831	0	411.063	0	67.3	4	21.8	4	-1E+10	1	-1E+10	1	-1E+10	1	-1E+10	1	-1E+10	1	-1E+10	1
4901784	0	C	07/05/2015	12:48	-129.007	46.499	0	417.60	0	5.1380	0	33.9540	0	26.834	0	413.735	0	65.6	4	21.3	4	-1E+10	1	-1E+10	1	-1E+10	1	-1E+10	1	-1E+10	1	-1E+10	1
4901784	0	C	07/05/2015	12:48	-129.007	46.499	0	420.20	0	5.1550	0	33.9610	0	26.838	0	416.308	0	64.8	4	21.0	4	-1E+10	1	-1E+10	1	-1E+10	1	-1E+10	1	-1E+10	1	-1E+10	1
4901784	0	C	07/05/2015	12:48	-129.007	46.499	0	422.80	0	5.1410	0	33.9620	0	26.840	0	418.882	0	65.0	4	21.0	4	-1E+10	1	-1E+10	1	-1E+10	1	-1E+10	1	-1E+10	1	-1E+10	1
4901784	0	C	07/05/2015	12:48	-129.007	46.499	0	424.60	0	5.1140	0	33.9610	0	26.842	0	420.663	0	65.2	4	21.1	4	-1E+10	1	-1E+10	1	-1E+10	1	-1E+10	1	-1E+10	1	-1E+10	1
4901784	0	C	07/05/2015	12:48	-129.007	46.499	0	427.30	0	5.1000	0	33.9600	0	26.843	0	423.335	0	65.3	4	21.1	4	-1E+10	1	-1E+10	1	-1E+10	1	-1E+10	1	-1E+10	1	-1E+10	1
4901784	0	C	07/05/2015	12:48	-129.007	46.499	0	430.00	0	5.0230	0	33.9520	0	26.846	0	426.008	0	65.2	4	21.1	4	-1E+10	1	-1E+10	1	-1E+10	1	-1E+10	1	-1E+10	1	-1E+10	1
4901784	0	C	07/05/2015	12:48	-129.007	46.499	0	432.70	0	5.0200	0	33.9600	0	26.852	0	428.680	0	62.6	4	20.2	4	-1E+10	1	-1E+10	1	-1E+10	1	-1E+10	1	-1E+10	1	-1E+10	1
4901784	0	C	07/05/2015	12:48	-129.007	46.499	0	435.40	0	5.0570	0	33.9660	0	26.853	0	431.352	0	61.2	4	19.8	4	-1E+10	1	-1E+10	1	-1E+10	1	-1E+10	1	-1E+10	1	-1E+10	1
4901784	0	C	07/05/2015	12:48	-129.007	46.499	0	437.20	0	5.0580	0	33.9710	0	26.857	0	433.133	0	60.7	4	19.6	4	-1E+10	1	-1E+10	1	-1E+10	1	-1E+10	1	-1E+10	1	-1E+10	1
4901784	0	C	07/05/2015	12:48	-129.007	46.499	0	439.90	0	5.0020	0	33.9700	0	26.862	0	435.805	0	58.0	4	18.7	4	-1E+10	1	-1E+10	1	-1E+10	1	-1E+10	1	-1E+10	1	-1E+10	1
4901784	0	C	07/05/2015	12:48	-129.007	46.499	0	442.60	0	5.0410	0	33.9800	0	26.866	0	438.477	0	55.6	4	18.0	4	-1E+10	1	-1E+10	1	-1E+10	1	-1E+10	1	-1E+10	1	-1E+10	1
4901784	0	C	07/05/2015	12:48	-129.007	46.499	0	444.50	0	5.0450	0	33.9830	0	26.868	0	440.358	0	53.9	4	17.4	4	-1E+10	1	-1E+10	1	-1E+10	1	-1E+10	1	-1E+10	1	-1E+10	1
4901784	0	C	07/05/2015	12:48	-129.007	46.499	0	447.20	0	5.1580	0	34.0010	0	26.869	0	443.030	0	51.9	4	16.8	4	-1E+10	1	-1E+10	1	-1E+10	1	-1E+10	1	-1E+10	1	-1E+10	1
4901784	0	C	07/05/2015	12:48	-129.007	46.499	0	449.90	0	5.1720	0	34.0030	0	26.869	0	445.701	0	52.9	4	17.2	4	-1E+10	1	-1E+10	1	-1E+10	1	-1E+10	1	-1E+10	1	-1E+10	1
4901784	0	C	07/05/2015	12:48	-129.007	46.499	0	452.70	0	5.1250	0	33.9970	0	26.870	0	448.472	0	54.9	4	17.8	4	-1E+10	1	-1E+10	1	-1E+10	1	-1E+10	1	-1E+10	1	-1E+10	1
4901784	0	C	07/05/2015	12:48	-129.007	46.499	0	455.40	0	4.9640	0	33.9840	0	26.878	0	451.144	0	57.1	4	18.4	4	-1E+10	1	-1E+10	1	-1E+10	1	-1E+10	1	-1E+10	1	-1E+10	1
4901784	0	C	07/05/2015	12:48	-129.007	46.499	0	457.20	0	4.8990	0	33.9760	0	26.879	0	452.925	0	57.4	4	18.5	4	-1E+10	1	-1E+10	1	-1E+10	1	-1E+10	1	-1E+10	1	-1E+10	1
4901784	0	C	07/05/2015	12:48	-129.007	46.499	0	460.00	0	4.8730	0	33.9760	0	26.882	0	455.696	0	57.3	4	18.4	4	-1E+10	1	-1E+10	1	-1E+10	1	-1E+10	1	-1E+10	1	-1E+10	1
4901784	0	C	07/05/2015	12:48	-129.007	46.499	0	462.80	0	4.8100	0	33.9760	0	26.889	0	458.467	0	56.4	4	18.1	4	-1E+10	1	-1E+10	1	-1E+10	1	-1E+10	1	-1E+10	1	-1E+10	1
4901784	0	C	07/05/2015	12:48	-129.007	46.499	0	464.70	0	4.8080	0	33.9800	0	26.892	0	460.347	0	55.4	4	17.8	4	-1E+10	1	-1E+10	1	-1E+10	1	-1E+10	1	-1E+10	1	-1E+10	1
4901784	0	C	07/05/2015	12:48	-129.007	46.499	0	467.50	0	4.8220	0	33.9830	0	26.893	0	463.118	0	54.2	4	17.4	4	-1E+10	1	-1E+10	1	-1E+10	1	-1E+10	1	-1E+10	1	-1E+10	1
4901784	0	C	07/05/2015	12:48	-129.007	46.499	0	470.30	0	4.8170	0	33.9850	0	26.895	0	465.888	0	53.3	4	17.1	4	-1E+10	1	-1E+10	1	-1E+10	1	-1E+10	1	-1E+10	1	-1E+10	1
4901784	0	C	07/05/2015	12:48	-129.007	46.499	0	472.20	0	4.7930	0	33.9880	0	26.900	0	467.768	0	52.5	4	16.9	4	-1E+10	1	-1E+10	1	-1E+10	1	-1E+10	1	-1E+10	1	-1E+10	1
4901784	0	C	07/05/2015	12:48	-129.007	46.499	0	475.00	0	4.7960	0	33.9930	0	26.904	0	470.539	0	51.2	4	16.5	4	-1E+10	1	-1E+10	1	-1E+10	1	-1E+10	1	-1E+10	1	-1E+10	1
4901784	0	C	07/05/2015	12:48	-129.007	46.499	0	477.90	0	4.7820	0	33.9970	0	26.909	0	473.408	0	50.2	4	16.1	4	-1E+10	1	-1E+10	1	-1E+10	1	-1E+10	1	-1E+10	1	-1E+10	1
4901784	0	C	07/05/2015	12:48	-129.007	46.499	0	479.80	0	4.7640	0	33.9990	0	26.912	0	475.288	0	49.6	4	15.9	4	-1E+10	1	-1E+10	1	-1E+10	1	-1E+10	1	-1E+10	1	-1E+10	1
4901784	0	C	07/05/2015	12:48	-129.007	46.499	0	482.70	0	4.7750	0	34.0030	0	26.914	0	478.158	0	48.3	4	15.5	4	-1E+10	1	-1E+10	1	-1E+10	1	-1E+10	1	-1E+10	1	-1E+10	1
4901784	0	C	07/05/2015	12:48	-129.007	46.499	0	485.60	0	4.7800	0	34.0060	0	26.916	0	481.027	0	47.6	4	15.3	4	-1E+10	1	-1E+10	1	-1E+10	1	-1E+10	1	-1E+10	1	-1E+10	1
4901784	0	C	07/05/2015	12:48	-129.007	46.499	0	487.50	0	4.7470	0	34.0070	0	26.921	0	482.907	0	47.1	4	15.1	4	-1E+10	1	-1E+10	1	-1E+10	1	-1E+10	1	-1E+10	1	-1E+10	1
4901784	0	C	07/05/2015	12:48	-129.007	46.499	0	489.50	0	4.7380	0	34.0110	0	26.925	0	484.886	0	46.6	4	15.0	4	-1E+10	1	-1E+10	1	-1E+10	1	-1E+10	1	-1E+10	1	-1E+10	1
4901784	0	C	07/05/2015	12:48	-129.007	46.499	0	492.30	0	4.7390	0	34.0140	0	26.927	0	487.656	0	45.6	4	14.6	4	-1E+10	1	-1E+10	1	-1E+10	1	-1E+10	1	-1E+10	1	-1E+10	1
4901784	0	C	07/05/2015	12:48	-129.007	46.499	0	495.80	0	4.7400	0	34.0190	0	26.931	0	491.119	0	44.8	4	14.4	4	-1E+10	1	-1E+10	1	-1E+10	1	-1E+10	1	-1E+10	1	-1E+10	1
4901784	0	C	07/05/2015	12:48	-129.007	46.499	0	497.70	0	4.7400	0	34.0190	0	26.931	0	492.999	0	44.2	4	14.2	4	-1E+10	1	-1E+10	1	-1E+10	1	-1E+10	1	-1E+10	1	-1E+10	1
4901784	0	C	07/05/2015	12:48	-129.007	46.499	0	500.10	0	4.7500	0	34.0230	0	26.933	0	495.373	0	43.1	4	13.8	4	-1E+10	1	-1E+10	1	-1E+10	1	-1E+10	1	-1E+10	1	-1E+10	1
4901784	0	C	07/05/2015	12:48	-129.007	46.499	0	505.00	0	4.7370	0	34.0290	0	26.939	0	500.221	0	42.0	4	13.5	4	-1E+10	1	-1E+10	1	-1E+10	1	-1E+10	1	-1E+10	1	-1E+10	1
4901784	0	C	07/05/2015	12:48	-129.007	46.499	0	510.70	0	4.6830	0	34.0330	0	26.949	0	505.860	0	41.6	4	13.3	4	-1E+10	1	-1E+10	1	-1E+10	1	-1E+10	1	-1E+10	1	-1E+10	1
4901784	0	C	07/05/2015	12:48	-129.007	46.499	0	515.60	0	4.6660	0	34.0360	0	26.953	0	510.708	0	40.6	4	13.0	4	-1E+10	1	-1E+10	1	-1E+10	1	-1E+10	1	-1E+10	1	-1E+10	1
4901784	0	C	07/05/2015	12:48	-129.007	46.499	0	520.50	0	4.6300	0	34.0390	0	26.959	0	515.555	0	38.1	4	12.2	4	-1E+10	1	-1E+10	1	-1E+10	1	-1E+10	1	-1E+10	1	-1E+10	1
4901784	0	C	07/05/2015	12:48	-129.007	46.499	0	525.50	0	4.7090	0	34.0590	0	26.967	0	520.501	0	35.7	4	11.5	4	-1E+10	1	-1E+10	1	-1E+10	1	-1E+10	1	-1E+10	1	-1E+10	1
4901784	0	C	07/05/2015	12:48	-129.007	46.499	0	530.60	0	4.6950	0	34.0620	0	26.971	0	525.546	0	35.3	4	11.3	4	-1E+10	1	-1E+10	1	-1E+10	1	-1E+10	1	-1E+10	1	-1E+10	1
4901784	0	C	07/05/2015	12:48	-129.007	46.499	0	535.60	0	4.6430	0	34.0600	0	26.975	0	530.492	0	36.0	4	11.5	4	-1E+10	1	-1E+10	1	-1E+10	1	-1E+10	1	-1E+10	1	-1E+10	1
4901784	0	C	07/05/2015	12:48	-129.007	46.499	0	540.60	0	4.5710	0	34.0590	0	26.982	0	535.438	0	36.4	4	11.7	4	-1E+10	1	-1E+10	1	-1E+10	1	-1E+10	1	-1E+10	1	-1E+10	1
4901784	0	C	07/05/2015	12:48	-129.007	46.499	0	545.50	0	4.5260	0	34.0560	0	26.984	0	540.285	0	36.7	4	11.7	4	-1E+10	1	-1E+10	1	-1E+10	1	-1E+10	1	-1E+10	1	-1E+10	1
4901784	0	C	07/05/2015	12:48	-129.007	46.499	0	550.50	0	4.4760	0	34.0550	0	26.989	0	545.231	0	36.5	4	11.6	4	-1E+10	1	-1E+10	1	-1E+10	1	-1E+10	1	-1E+10	1	-1E+10	1
4901784	0	C	07/05/2015	12:48	-129.007	46.499	0	555.40	0	4.4530	0	34.0610	0	26.996	0	550.077	0	35.8	4	11.4	4	-1E+10	1	-1E+10	1	-1E+10	1	-1E+10	1	-1E+10	1	-1E+10	1
4901784	0	C	07/05/2015	12:48	-129.007	46.499	0	560.40	0	4.4350	0	34.0620	0	26.999	0	555.023	0	35.4	4	11.3	4	-1E+10	1	-1E+10	1	-1E+10	1	-1E+10	1	-1E+10	1	-1E+10	1
4901784	0	C	07/05/2015	12:48	-129.007	46.499	0	565.50	0	4.4210	0	34.0650	0	27.003	0	560.067	0	34.5	4	11.0	4	-1E+10	1	-1E+10	1	-1E+10	1	-1E+10	1	-1E+10	1	-1E+10	1
4901784	0	C	07/05/2015	12:48	-129.007	46.499	0	570.50	0	4.3980	0	34.0690	0	27.009	0	565.012	0	33.7	4	10.7	4	-1E+10	1	-1E+10	1	-1E+10	1	-1E+10	1	-1E+10	1	-1E+10	1
4901784	0	C	07/05/2015	12:48	-129.007	46.499	0	575.50	0	4.3830	0	34.0730	0	27.013	0	569.957	0	32.8	4	10.4	4	-1E+10	1	-1E+10	1	-1E+10	1	-1E+10	1	-1E+10	1	-1E+10	1
4901784	0	C	07/05/2015	12:48	-129.007	46.499	0	580.60	0	4.3710	0	34.0780	0	27.019	0	575.001	0	32.0	4	10.2	4	-1E+10	1	-1E+10	1	-1E+10	1	-1E+10	1	-1E+10	1	-1E+10	1
4901784	0	C	07/05/2015	12:48	-129.007	46.499	0	585.70	0	4.3320	0	34.0840	0	27.028	0	580.045	0	31.4	4	10.0	4	-1E+10	1	-1E+10	1	-1E+10	1	-1E+10	1	-1E+10	1	-1E+10	1
4901784	0	C	07/05/2015	12:48	-129.007	46.499	0	590.80	0	4.3110	0	34.0880	0	27.033	0	585.088	0	30.6	4	9.7	4	-1E+10	1	-1E+10	1	-1E+10	1	-1E+10	1	-1E+10	1	-1E+10	1
4901784	0	C	07/05/2015	12:48	-129.007	46.499	0	595.10	0	4.3050	0	34.0930	0	27.038	0	589.341	0	29.5	4	9.4	4	-1E+10	1	-1E+10	1	-1E+10	1	-1E+10	1	-1E+10	1	-1E+10	1
4901784	0	C	07/05/2015	12:48	-129.007	46.499	0	599.40	0	4.3090	0	34.1010	0	27.044	0	593.593	0	27.8	4	8.8	4	-1E+10	1	-1E+10	1	-1E+10	1	-1E+10	1	-1E+10	1	-1E+10	1
4901784	0	C	07/05/2015	12:48	-129.007	46.499	0	604.60	0	4.3610	0	34.1160	0	27.050	0	598.735	0	24.9	4	7.9	4	-1E+10	1	-1E+10	1	-1E+10	1	-1E+10	1	-1E+10	1	-1E+10	1
4901784	0	C	07/05/2015	12:48	-129.007	46.499	0	609.80	0	4.3810	0	34.1270	0	27.057	0	603.877	0	23.8	4	7.6	4	-1E+10	1	-1E+10	1	-1E+10	1	-1E+10	1	-1E+10	1	-1E+10	1
4901784	0	C	07/05/2015	12:48	-129.007	46.499	0	615.00	0	4.3500	0	34.1310	0	27.063	0	609.019	0	23.6	4	7.5	4	-1E+10	1	-1E+10	1	-1E+10	1	-1E+10	1	-1E+10	1	-1E+10	1
4901784	0	C	07/05/2015	12:48	-129.007	46.499	0	620.40	0	4.3040	0	34.1330	0	27.070	0	614.359	0	23.3	4	7.4	4	-1E+10	1	-1E+10	1	-1E+10	1	-1E+10	1	-1E+10	1	-1E+10	1
4901784	0	C	07/05/2015	12:48	-129.007	46.499	0	624.80	0	4.2730	0	34.1370	0	27.076	0	618.709	0	23.0	4	7.3	4	-1E+10	1	-1E+10	1	-1E+10	1	-1E+10	1	-1E+10	1	-1E+10	1
4901784	0	C	07/05/2015	12:48	-129.007	46.499	0	629.30	0	4.2560	0	34.1390	0	27.080	0	623.159	0	22.5	4	7.2	4	-1E+10	1	-1E+10	1	-1E+10	1	-1E+10	1	-1E+10	1	-1E+10	1
4901784	0	C	07/05/2015	12:48	-129.007	46.499	0	634.80	0	4.2100	0	34.1450	0	27.089	0	628.597	0	22.3	4	7.1	4	-1E+10	1	-1E+10	1	-1E+10	1	-1E+10	1	-1E+10	1	-1E+10	1
4901784	0	C	07/05/2015	12:48	-129.007	46.499	0	640.30	0	4.1770	0	34.1460	0	27.093	0	634.034	0	22.5	4	7.1	4	-1E+10	1	-1E+10	1	-1E+10	1	-1E+10	1	-1E+10	1	-1E+10	1
4901784	0	C	07/05/2015	12:48	-129.007	46.499	0	644.90	0	4.1420	0	34.1450	0	27.096	0	638.582	0	22.6	4	7.2	4	-1E+10	1	-1E+10	1	-1E+10	1	-1E+10	1	-1E+10	1	-1E+10	1
4901784	0	C	07/05/2015	12:48	-129.007	46.499	0	649.90	0	4.1210	0	34.1490	0	27.102	0	643.526	0	22.1	4	7.0	4	-1E+10	1	-1E+10	1	-1E+10	1	-1E+10	1	-1E+10	1	-1E+10	1
4901784	0	C	07/05/2015	12:48	-129.007	46.499	0	655.10	0	4.1240	0	34.1540	0	27.105	0	648.667	0	21.1	4	6.7	4	-1E+10	1	-1E+10	1	-1E+10	1	-1E+10	1	-1E+10	1	-1E+10	1
4901784	0	C	07/05/2015	12:48	-129.007	46.499	0	659.90	0	4.1330	0	34.1600	0	27.109	0	653.412	0	20.3	4	6.4	4	-1E+10	1	-1E+10	1	-1E+10	1	-1E+10	1	-1E+10	1	-1E+10	1
4901784	0	C	07/05/2015	12:48	-129.007	46.499	0	664.60	0	4.1310	0	34.1660	0	27.114	0	658.058	0	19.9	4	6.3	4	-1E+10	1	-1E+10	1	-1E+10	1	-1E+10	1	-1E+10	1	-1E+10	1
4901784	0	C	07/05/2015	12:48	-129.007	46.499	0	669.40	0	4.0810	0	34.1670	0	27.120	0	662.803	0	19.7	4	6.2	4	-1E+10	1	-1E+10	1	-1E+10	1	-1E+10	1	-1E+10	1	-1E+10	1
4901784	0	C	07/05/2015	12:48	-129.007	46.499	0	674.30	0	4.0710	0	34.1700	0	27.124	0	667.647	0	19.5	4	6.2	4	-1E+10	1	-1E+10	1	-1E+10	1	-1E+10	1	-1E+10	1	-1E+10	1
4901784	0	C	07/05/2015	12:48	-129.007	46.499	0	680.00	0	4.0590	0	34.1730	0	27.127	0	673.282	0	19.2	4	6.1	4	-1E+10	1	-1E+10	1	-1E+10	1	-1E+10	1	-1E+10	1	-1E+10	1
4901784	0	C	07/05/2015	12:48	-129.007	46.499	0	685.70	0	4.0320	0	34.1770	0	27.133	0	678.916	0	19.1	4	6.0	4	-1E+10	1	-1E+10	1	-1E+10	1	-1E+10	1	-1E+10	1	-1E+10	1
4901784	0	C	07/05/2015	12:48	-129.007	46.499	0	690.70	0	4.0270	0	34.1790	0	27.136	0	683.859	0	18.9	4	6.0	4	-1E+10	1	-1E+10	1	-1E+10	1	-1E+10	1	-1E+10	1	-1E+10	1
4901784	0	C	07/05/2015	12:48	-129.007	46.499	0	695.60	0	4.0150	0	34.1810	0	27.138	0	688.702	0	18.7	4	5.9	4	-1E+10	1	-1E+10	1	-1E+10	1	-1E+10	1	-1E+10	1	-1E+10	1
4901784	0	C	07/05/2015	12:48	-129.007	46.499	0	700.60	0	4.0030	0	34.1840	0	27.142	0	693.644	0	18.5	4	5.8	4	-1E+10	1	-1E+10	1	-1E+10	1	-1E+10	1	-1E+10	1	-1E+10	1
4901784	0	C	07/05/2015	12:48	-129.007	46.499	0	705.60	0	3.9950	0	34.1870	0	27.145	0	698.586	0	18.2	4	5.7	4	-1E+10	1	-1E+10	1	-1E+10	1	-1E+10	1	-1E+10	1	-1E+10	1
4901784	0	C	07/05/2015	12:48	-129.007	46.499	0	710.60	0	3.9750	0	34.1810	0	27.143	0	703.528	0	17.7	4	5.6	4	-1E+10	1	-1E+10	1	-1E+10	1	-1E+10	1	-1E+10	1	-1E+10	1
4901784	0	C	07/05/2015	12:48	-129.007	46.499	0	715.60	0	3.9650	0	34.2010	0	27.160	0	708.470	0	17.0	4	5.4	4	-1E+10	1	-1E+10	1	-1E+10	1	-1E+10	1	-1E+10	1	-1E+10	1
4901784	0	C	07/05/2015	12:48	-129.007	46.499	0	720.70	0	3.9640	0	34.2040	0	27.162	0	713.510	0	16.8	4	5.3	4	-1E+10	1	-1E+10	1	-1E+10	1	-1E+10	1	-1E+10	1	-1E+10	1
4901784	0	C	07/05/2015	12:48	-129.007	46.499	0	725.00	0	3.9630	0	34.2040	0	27.162	0	717.760	0	16.7	4	5.3	4	-1E+10	1	-1E+10	1	-1E+10	1	-1E+10	1	-1E+10	1	-1E+10	1
4901784	0	C	07/05/2015	12:48	-129.007	46.499	0	729.30	0	3.9310	0	34.2080	0	27.169	0	722.009	0	16.8	4	5.3	4	-1E+10	1	-1E+10	1	-1E+10	1	-1E+10	1	-1E+10	1	-1E+10	1
4901784	0	C	07/05/2015	12:48	-129.007	46.499	0	734.50	0	3.8840	0	34.2080	0	27.173	0	727.148	0	16.9	4	5.3	4	-1E+10	1	-1E+10	1	-1E+10	1	-1E+10	1	-1E+10	1	-1E+10	1
4901784	0	C	07/05/2015	12:48	-129.007	46.499	0	739.70	0	3.8710	0	34.2120	0	27.178	0	732.287	0	16.6	4	5.2	4	-1E+10	1	-1E+10	1	-1E+10	1	-1E+10	1	-1E+10	1	-1E+10	1
4901784	0	C	07/05/2015	12:48	-129.007	46.499	0	745.00	0	3.8570	0	34.2180	0	27.184	0	737.525	0	16.3	4	5.1	4	-1E+10	1	-1E+10	1	-1E+10	1	-1E+10	1	-1E+10	1	-1E+10	1
4901784	0	C	07/05/2015	12:48	-129.007	46.499	0	750.30	0	3.8370	0	34.2210	0	27.189	0	742.762	0	16.1	4	5.1	4	-1E+10	1	-1E+10	1	-1E+10	1	-1E+10	1	-1E+10	1	-1E+10	1
4901784	0	C	07/05/2015	12:48	-129.007	46.499	0	755.50	0	3.8230	0	34.2250	0	27.193	0	747.901	0	15.9	4	5.0	4	-1E+10	1	-1E+10	1	-1E+10	1	-1E+10	1	-1E+10	1	-1E+10	1
4901784	0	C	07/05/2015	12:48	-129.007	46.499	0	760.70	0	3.8110	0	34.2280	0	27.197	0	753.039	0	15.6	4	4.9	4	-1E+10	1	-1E+10	1	-1E+10	1	-1E+10	1	-1E+10	1	-1E+10	1
4901784	0	C	07/05/2015	12:48	-129.007	46.499	0	765.10	0	3.7970	0	34.2340	0	27.203	0	757.387	0	15.4	4	4.8	4	-1E+10	1	-1E+10	1	-1E+10	1	-1E+10	1	-1E+10	1	-1E+10	1
4901784	0	C	07/05/2015	12:48	-129.007	46.499	0	769.60	0	3.7840	0	34.2360	0	27.206	0	761.833	0	15.3	4	4.8	4	-1E+10	1	-1E+10	1	-1E+10	1	-1E+10	1	-1E+10	1	-1E+10	1
4901784	0	C	07/05/2015	12:48	-129.007	46.499	0	774.90	0	3.7720	0	34.2390	0	27.210	0	767.070	0	15.1	4	4.7	4	-1E+10	1	-1E+10	1	-1E+10	1	-1E+10	1	-1E+10	1	-1E+10	1
4901784	0	C	07/05/2015	12:48	-129.007	46.499	0	780.30	0	3.7690	0	34.2430	0	27.213	0	772.405	0	14.6	4	4.6	4	-1E+10	1	-1E+10	1	-1E+10	1	-1E+10	1	-1E+10	1	-1E+10	1
4901784	0	C	07/05/2015	12:48	-129.007	46.499	0	784.80	0	3.7900	0	34.2480	0	27.215	0	776.851	0	14.2	4	4.5	4	-1E+10	1	-1E+10	1	-1E+10	1	-1E+10	1	-1E+10	1	-1E+10	1
4901784	0	C	07/05/2015	12:48	-129.007	46.499	0	789.30	0	3.7960	0	34.2530	0	27.218	0	781.297	0	14.2	4	4.4	4	-1E+10	1	-1E+10	1	-1E+10	1	-1E+10	1	-1E+10	1	-1E+10	1
4901784	0	C	07/05/2015	12:48	-129.007	46.499	0	794.80	0	3.7580	0	34.2520	0	27.221	0	786.731	0	14.2	4	4.5	4	-1E+10	1	-1E+10	1	-1E+10	1	-1E+10	1	-1E+10	1	-1E+10	1
4901784	0	C	07/05/2015	12:48	-129.007	46.499	0	800.20	0	3.7540	0	34.2580	0	27.227	0	792.066	0	13.8	4	4.3	4	-1E+10	1	-1E+10	1	-1E+10	1	-1E+10	1	-1E+10	1	-1E+10	1
4901784	0	C	07/05/2015	12:48	-129.007	46.499	0	804.70	0	3.7470	0	34.2620	0	27.231	0	796.512	0	13.7	4	4.3	4	-1E+10	1	-1E+10	1	-1E+10	1	-1E+10	1	-1E+10	1	-1E+10	1
4901784	0	C	07/05/2015	12:48	-129.007	46.499	0	809.40	0	3.7450	0	34.2640	0	27.232	0	801.155	0	13.6	4	4.3	4	-1E+10	1	-1E+10	1	-1E+10	1	-1E+10	1	-1E+10	1	-1E+10	1
4901784	0	C	07/05/2015	12:48	-129.007	46.499	0	814.90	0	3.7350	0	34.2700	0	27.238	0	806.588	0	13.3	4	4.2	4	-1E+10	1	-1E+10	1	-1E+10	1	-1E+10	1	-1E+10	1	-1E+10	1
4901784	0	C	07/05/2015	12:48	-129.007	46.499	0	820.50	0	3.7280	0	34.2740	0	27.242	0	812.120	0	13.0	4	4.1	4	-1E+10	1	-1E+10	1	-1E+10	1	-1E+10	1	-1E+10	1	-1E+10	1
4901784	0	C	07/05/2015	12:48	-129.007	46.499	0	825.10	0	3.7230	0	34.2770	0	27.245	0	816.664	0	12.9	4	4.1	4	-1E+10	1	-1E+10	1	-1E+10	1	-1E+10	1	-1E+10	1	-1E+10	1
4901784	0	C	07/05/2015	12:48	-129.007	46.499	0	829.80	0	3.7150	0	34.2800	0	27.248	0	821.307	0	12.7	4	4.0	4	-1E+10	1	-1E+10	1	-1E+10	1	-1E+10	1	-1E+10	1	-1E+10	1
4901784	0	C	07/05/2015	12:48	-129.007	46.499	0	834.50	0	3.7140	0	34.2860	0	27.253	0	825.950	0	12.5	4	3.9	4	-1E+10	1	-1E+10	1	-1E+10	1	-1E+10	1	-1E+10	1	-1E+10	1
4901784	0	C	07/05/2015	12:48	-129.007	46.499	0	839.20	0	3.7110	0	34.2880	0	27.255	0	830.592	0	12.5	4	3.9	4	-1E+10	1	-1E+10	1	-1E+10	1	-1E+10	1	-1E+10	1	-1E+10	1
4901784	0	C	07/05/2015	12:48	-129.007	46.499	0	844.60	0	3.6810	0	34.2880	0	27.258	0	835.926	0	12.8	4	4.0	4	-1E+10	1	-1E+10	1	-1E+10	1	-1E+10	1	-1E+10	1	-1E+10	1
4901784	0	C	07/05/2015	12:48	-129.007	46.499	0	849.50	0	3.6410	0	34.2880	0	27.262	0	840.766	0	12.9	4	4.0	4	-1E+10	1	-1E+10	1	-1E+10	1	-1E+10	1	-1E+10	1	-1E+10	1
4901784	0	C	07/05/2015	12:48	-129.007	46.499	0	854.40	0	3.6330	0	34.2910	0	27.265	0	845.606	0	12.9	4	4.0	4	-1E+10	1	-1E+10	1	-1E+10	1	-1E+10	1	-1E+10	1	-1E+10	1
4901784	0	C	07/05/2015	12:48	-129.007	46.499	0	859.30	0	3.6150	0	34.2910	0	27.267	0	850.445	0	12.9	4	4.1	4	-1E+10	1	-1E+10	1	-1E+10	1	-1E+10	1	-1E+10	1	-1E+10	1
4901784	0	C	07/05/2015	12:48	-129.007	46.499	0	864.30	0	3.5790	0	34.2940	0	27.273	0	855.384	0	12.9	4	4.0	4	-1E+10	1	-1E+10	1	-1E+10	1	-1E+10	1	-1E+10	1	-1E+10	1
4901784	0	C	07/05/2015	12:48	-129.007	46.499	0	869.30	0	3.5800	0	34.2980	0	27.276	0	860.322	0	12.7	4	4.0	4	-1E+10	1	-1E+10	1	-1E+10	1	-1E+10	1	-1E+10	1	-1E+10	1
4901784	0	C	07/05/2015	12:48	-129.007	46.499	0	874.30	0	3.5730	0	34.3020	0	27.280	0	865.260	0	12.5	4	3.9	4	-1E+10	1	-1E+10	1	-1E+10	1	-1E+10	1	-1E+10	1	-1E+10	1
4901784	0	C	07/05/2015	12:48	-129.007	46.499	0	879.30	0	3.5920	0	34.3090	0	27.284	0	870.198	0	12.2	4	3.8	4	-1E+10	1	-1E+10	1	-1E+10	1	-1E+10	1	-1E+10	1	-1E+10	1
4901784	0	C	07/05/2015	12:48	-129.007	46.499	0	884.30	0	3.5670	0	34.3090	0	27.286	0	875.135	0	12.4	4	3.9	4	-1E+10	1	-1E+10	1	-1E+10	1	-1E+10	1	-1E+10	1	-1E+10	1
4901784	0	C	07/05/2015	12:48	-129.007	46.499	0	889.40	0	3.5410	0	34.3100	0	27.290	0	880.172	0	12.4	4	3.9	4	-1E+10	1	-1E+10	1	-1E+10	1	-1E+10	1	-1E+10	1	-1E+10	1
4901784	0	C	07/05/2015	12:48	-129.007	46.499	0	894.60	0	3.5690	0	34.3160	0	27.292	0	885.307	0	12.2	4	3.8	4	-1E+10	1	-1E+10	1	-1E+10	1	-1E+10	1	-1E+10	1	-1E+10	1
4901784	0	C	07/05/2015	12:48	-129.007	46.499	0	899.80	0	3.5240	0	34.3140	0	27.294	0	890.442	0	12.5	4	3.9	4	-1E+10	1	-1E+10	1	-1E+10	1	-1E+10	1	-1E+10	1	-1E+10	1
4901784	0	C	07/05/2015	12:48	-129.007	46.499	0	904.90	0	3.5000	0	34.3150	0	27.298	0	895.478	0	12.4	4	3.9	4	-1E+10	1	-1E+10	1	-1E+10	1	-1E+10	1	-1E+10	1	-1E+10	1
4901784	0	C	07/05/2015	12:48	-129.007	46.499	0	910.00	0	3.5380	0	34.3220	0	27.300	0	900.514	0	12.2	4	3.8	4	-1E+10	1	-1E+10	1	-1E+10	1	-1E+10	1	-1E+10	1	-1E+10	1
4901784	0	C	07/05/2015	12:48	-129.007	46.499	0	915.30	0	3.4930	0	34.3210	0	27.303	0	905.747	0	12.3	4	3.8	4	-1E+10	1	-1E+10	1	-1E+10	1	-1E+10	1	-1E+10	1	-1E+10	1
4901784	0	C	07/05/2015	12:48	-129.007	46.499	0	920.60	0	3.4840	0	34.3240	0	27.306	0	910.980	0	12.1	4	3.8	4	-1E+10	1	-1E+10	1	-1E+10	1	-1E+10	1	-1E+10	1	-1E+10	1
4901784	0	C	07/05/2015	12:48	-129.007	46.499	0	924.90	0	3.4960	0	34.3300	0	27.310	0	915.226	0	11.9	4	3.7	4	-1E+10	1	-1E+10	1	-1E+10	1	-1E+10	1	-1E+10	1	-1E+10	1
4901784	0	C	07/05/2015	12:48	-129.007	46.499	0	929.30	0	3.5060	0	34.3360	0	27.314	0	919.570	0	11.7	4	3.7	4	-1E+10	1	-1E+10	1	-1E+10	1	-1E+10	1	-1E+10	1	-1E+10	1
4901784	0	C	07/05/2015	12:48	-129.007	46.499	0	934.60	0	3.4850	0	34.3370	0	27.317	0	924.803	0	11.8	4	3.7	4	-1E+10	1	-1E+10	1	-1E+10	1	-1E+10	1	-1E+10	1	-1E+10	1
4901784	0	C	07/05/2015	12:48	-129.007	46.499	0	939.90	0	3.4710	0	34.3390	0	27.320	0	930.036	0	11.8	4	3.7	4	-1E+10	1	-1E+10	1	-1E+10	1	-1E+10	1	-1E+10	1	-1E+10	1
4901784	0	C	07/05/2015	12:48	-129.007	46.499	0	945.30	0	3.4640	0	34.3410	0	27.322	0	935.367	0	11.7	4	3.7	4	-1E+10	1	-1E+10	1	-1E+10	1	-1E+10	1	-1E+10	1	-1E+10	1
4901784	0	C	07/05/2015	12:48	-129.007	46.499	0	949.80	0	3.4610	0	34.3430	0	27.324	0	939.810	0	11.7	4	3.7	4	-1E+10	1	-1E+10	1	-1E+10	1	-1E+10	1	-1E+10	1	-1E+10	1
4901784	0	C	07/05/2015	12:48	-129.007	46.499	0	954.30	0	3.4520	0	34.3460	0	27.327	0	944.252	0	11.7	4	3.6	4	-1E+10	1	-1E+10	1	-1E+10	1	-1E+10	1	-1E+10	1	-1E+10	1
4901784	0	C	07/05/2015	12:48	-129.007	46.499	0	959.70	0	3.4480	0	34.3490	0	27.330	0	949.583	0	11.7	4	3.6	4	-1E+10	1	-1E+10	1	-1E+10	1	-1E+10	1	-1E+10	1	-1E+10	1
4901784	0	C	07/05/2015	12:48	-129.007	46.499	0	965.20	0	3.4280	0	34.3510	0	27.334	0	955.012	0	11.7	4	3.7	4	-1E+10	1	-1E+10	1	-1E+10	1	-1E+10	1	-1E+10	1	-1E+10	1
4901784	0	C	07/05/2015	12:48	-129.007	46.499	0	970.70	0	3.4180	0	34.3540	0	27.337	0	960.442	0	11.7	4	3.7	4	-1E+10	1	-1E+10	1	-1E+10	1	-1E+10	1	-1E+10	1	-1E+10	1
4901784	0	C	07/05/2015	12:48	-129.007	46.499	0	975.20	0	3.4110	0	34.3560	0	27.339	0	964.884	0	11.7	4	3.7	4	-1E+10	1	-1E+10	1	-1E+10	1	-1E+10	1	-1E+10	1	-1E+10	1
4901784	0	C	07/05/2015	12:48	-129.007	46.499	0	979.80	0	3.4030	0	34.3570	0	27.341	0	969.425	0	11.8	4	3.7	4	-1E+10	1	-1E+10	1	-1E+10	1	-1E+10	1	-1E+10	1	-1E+10	1
4901784	0	C	07/05/2015	12:48	-129.007	46.499	0	985.30	0	3.3900	0	34.3590	0	27.344	0	974.854	0	11.8	4	3.7	4	-1E+10	1	-1E+10	1	-1E+10	1	-1E+10	1	-1E+10	1	-1E+10	1
4901784	0	C	07/05/2015	12:48	-129.007	46.499	0	990.60	0	3.3700	0	34.3610	0	27.347	0	980.085	0	11.8	4	3.7	4	-1E+10	1	-1E+10	1	-1E+10	1	-1E+10	1	-1E+10	1	-1E+10	1
4901784	0	C	07/05/2015	12:48	-129.007	46.499	0	995.40	0	3.3610	0	34.3620	0	27.349	0	984.823	0	11.9	4	3.7	4	-1E+10	1	-1E+10	1	-1E+10	1	-1E+10	1	-1E+10	1	-1E+10	1
4901784	0	C	07/05/2015	12:48	-129.007	46.499	0	1000.30	0	3.3540	0	34.3660	0	27.353	0	989.659	0	11.9	4	3.7	4	-1E+10	1	-1E+10	1	-1E+10	1	-1E+10	1	-1E+10	1	-1E+10	1
4901784	0	C	07/05/2015	12:48	-129.007	46.499	0	1005.20	0	3.3430	0	34.3680	0	27.355	0	994.495	0	11.9	4	3.7	4	-1E+10	1	-1E+10	1	-1E+10	1	-1E+10	1	-1E+10	1	-1E+10	1
4901784	0	C	07/05/2015	12:48	-129.007	46.499	0	1010.20	0	3.3320	0	34.3700	0	27.358	0	999.430	0	11.9	4	3.7	4	-1E+10	1	-1E+10	1	-1E+10	1	-1E+10	1	-1E+10	1	-1E+10	1
4901784	0	C	07/05/2015	12:48	-129.007	46.499	0	1015.20	0	3.3240	0	34.3700	0	27.359	0	1004.365	0	12.0	4	3.7	4	-1E+10	1	-1E+10	1	-1E+10	1	-1E+10	1	-1E+10	1	-1E+10	1
4901784	0	C	07/05/2015	12:48	-129.007	46.499	0	1020.40	0	3.3180	0	34.3710	0	27.360	0	1009.497	0	12.0	4	3.7	4	-1E+10	1	-1E+10	1	-1E+10	1	-1E+10	1	-1E+10	1	-1E+10	1
4901784	0	C	07/05/2015	12:48	-129.007	46.499	0	1025.50	0	3.3050	0	34.3730	0	27.363	0	1014.530	0	12.1	4	3.7	4	-1E+10	1	-1E+10	1	-1E+10	1	-1E+10	1	-1E+10	1	-1E+10	1
4901784	0	C	07/05/2015	12:48	-129.007	46.499	0	1030.60	0	3.2830	0	34.3740	0	27.366	0	1019.563	0	12.1	4	3.8	4	-1E+10	1	-1E+10	1	-1E+10	1	-1E+10	1	-1E+10	1	-1E+10	1
4901784	0	C	07/05/2015	12:48	-129.007	46.499	0	1034.90	0	3.2730	0	34.3750	0	27.368	0	1023.807	0	12.1	4	3.8	4	-1E+10	1	-1E+10	1	-1E+10	1	-1E+10	1	-1E+10	1	-1E+10	1
4901784	0	C	07/05/2015	12:48	-129.007	46.499	0	1039.30	0	3.2690	0	34.3760	0	27.369	0	1028.149	0	12.1	4	3.8	4	-1E+10	1	-1E+10	1	-1E+10	1	-1E+10	1	-1E+10	1	-1E+10	1
4901784	0	C	07/05/2015	12:48	-129.007	46.499	0	1044.40	0	3.2570	0	34.3780	0	27.372	0	1033.181	0	12.2	4	3.8	4	-1E+10	1	-1E+10	1	-1E+10	1	-1E+10	1	-1E+10	1	-1E+10	1
4901784	0	C	07/05/2015	12:48	-129.007	46.499	0	1049.60	0	3.2460	0	34.3790	0	27.374	0	1038.313	0	12.2	4	3.8	4	-1E+10	1	-1E+10	1	-1E+10	1	-1E+10	1	-1E+10	1	-1E+10	1
4901784	0	C	07/05/2015	12:48	-129.007	46.499	0	1054.80	0	3.2370	0	34.3810	0	27.376	0	1043.444	0	12.3	4	3.8	4	-1E+10	1	-1E+10	1	-1E+10	1	-1E+10	1	-1E+10	1	-1E+10	1
4901784	0	C	07/05/2015	12:48	-129.007	46.499	0	1060.00	0	3.2270	0	34.3820	0	27.378	0	1048.575	0	12.3	4	3.8	4	-1E+10	1	-1E+10	1	-1E+10	1	-1E+10	1	-1E+10	1	-1E+10	1
4901784	0	C	07/05/2015	12:48	-129.007	46.499	0	1065.30	0	3.2170	0	34.3840	0	27.380	0	1053.804	0	12.3	4	3.8	4	-1E+10	1	-1E+10	1	-1E+10	1	-1E+10	1	-1E+10	1	-1E+10	1
4901784	0	C	07/05/2015	12:48	-129.007	46.499	0	1070.60	0	3.2070	0	34.3850	0	27.382	0	1059.034	0	12.4	4	3.8	4	-1E+10	1	-1E+10	1	-1E+10	1	-1E+10	1	-1E+10	1	-1E+10	1
4901784	0	C	07/05/2015	12:48	-129.007	46.499	0	1074.90	0	3.1970	0	34.3870	0	27.385	0	1063.277	0	12.4	4	3.9	4	-1E+10	1	-1E+10	1	-1E+10	1	-1E+10	1	-1E+10	1	-1E+10	1
4901784	0	C	07/05/2015	12:48	-129.007	46.499	0	1079.40	0	3.1860	0	34.3890	0	27.387	0	1067.716	0	12.5	4	3.9	4	-1E+10	1	-1E+10	1	-1E+10	1	-1E+10	1	-1E+10	1	-1E+10	1
4901784	0	C	07/05/2015	12:48	-129.007	46.499	0	1084.80	0	3.1750	0	34.3910	0	27.390	0	1073.044	0	12.6	4	3.9	4	-1E+10	1	-1E+10	1	-1E+10	1	-1E+10	1	-1E+10	1	-1E+10	1
4901784	0	C	07/05/2015	12:48	-129.007	46.499	0	1090.10	0	3.1660	0	34.3930	0	27.392	0	1078.273	0	12.6	4	3.9	4	-1E+10	1	-1E+10	1	-1E+10	1	-1E+10	1	-1E+10	1	-1E+10	1
4901784	0	C	07/05/2015	12:48	-129.007	46.499	0	1095.60	0	3.1580	0	34.3950	0	27.395	0	1083.699	0	12.7	4	3.9	4	-1E+10	1	-1E+10	1	-1E+10	1	-1E+10	1	-1E+10	1	-1E+10	1
4901784	0	C	07/05/2015	12:48	-129.007	46.499	0	1100.10	0	3.1430	0	34.3970	0	27.398	0	1088.139	0	12.8	4	4.0	4	-1E+10	1	-1E+10	1	-1E+10	1	-1E+10	1	-1E+10	1	-1E+10	1
4901784	0	C	07/05/2015	12:48	-129.007	46.499	0	1104.70	0	3.1360	0	34.4000	0	27.401	0	1092.677	0	12.9	4	4.0	4	-1E+10	1	-1E+10	1	-1E+10	1	-1E+10	1	-1E+10	1	-1E+10	1
4901784	0	C	07/05/2015	12:48	-129.007	46.499	0	1110.20	0	3.1470	0	34.4040	0	27.403	0	1098.102	0	13.0	4	4.0	4	-1E+10	1	-1E+10	1	-1E+10	1	-1E+10	1	-1E+10	1	-1E+10	1
4901784	0	C	07/05/2015	12:48	-129.007	46.499	0	1114.80	0	3.1470	0	34.4050	0	27.404	0	1102.640	0	13.0	4	4.0	4	-1E+10	1	-1E+10	1	-1E+10	1	-1E+10	1	-1E+10	1	-1E+10	1
4901784	0	C	07/05/2015	12:48	-129.007	46.499	0	1119.70	0	3.1320	0	34.4060	0	27.406	0	1107.474	0	13.0	4	4.0	4	-1E+10	1	-1E+10	1	-1E+10	1	-1E+10	1	-1E+10	1	-1E+10	1
4901784	0	C	07/05/2015	12:48	-129.007	46.499	0	1124.90	0	3.0980	0	34.4040	0	27.408	0	1112.603	0	13.0	4	4.0	4	-1E+10	1	-1E+10	1	-1E+10	1	-1E+10	1	-1E+10	1	-1E+10	1
4901784	0	C	07/05/2015	12:48	-129.007	46.499	0	1129.70	0	3.0880	0	34.4050	0	27.409	0	1117.338	0	13.1	4	4.1	4	-1E+10	1	-1E+10	1	-1E+10	1	-1E+10	1	-1E+10	1	-1E+10	1
4901784	0	C	07/05/2015	12:48	-129.007	46.499	0	1134.60	0	3.0790	0	34.4070	0	27.412	0	1122.171	0	13.2	4	4.1	4	-1E+10	1	-1E+10	1	-1E+10	1	-1E+10	1	-1E+10	1	-1E+10	1
4901784	0	C	07/05/2015	12:48	-129.007	46.499	0	1139.50	0	3.0700	0	34.4090	0	27.414	0	1127.005	0	13.2	4	4.1	4	-1E+10	1	-1E+10	1	-1E+10	1	-1E+10	1	-1E+10	1	-1E+10	1
4901784	0	C	07/05/2015	12:48	-129.007	46.499	0	1144.50	0	3.0620	0	34.4100	0	27.416	0	1131.936	0	13.3	4	4.1	4	-1E+10	1	-1E+10	1	-1E+10	1	-1E+10	1	-1E+10	1	-1E+10	1
4901784	0	C	07/05/2015	12:48	-129.007	46.499	0	1149.50	0	3.0560	0	34.4110	0	27.417	0	1136.868	0	13.4	4	4.1	4	-1E+10	1	-1E+10	1	-1E+10	1	-1E+10	1	-1E+10	1	-1E+10	1
4901784	0	C	07/05/2015	12:48	-129.007	46.499	0	1154.50	0	3.0470	0	34.4130	0	27.420	0	1141.799	0	13.4	4	4.2	4	-1E+10	1	-1E+10	1	-1E+10	1	-1E+10	1	-1E+10	1	-1E+10	1
4901784	0	C	07/05/2015	12:48	-129.007	46.499	0	1159.50	0	3.0370	0	34.4140	0	27.421	0	1146.731	0	13.5	4	4.2	4	-1E+10	1	-1E+10	1	-1E+10	1	-1E+10	1	-1E+10	1	-1E+10	1
4901784	0	C	07/05/2015	12:48	-129.007	46.499	0	1164.50	0	3.0270	0	34.4160	0	27.424	0	1151.662	0	13.6	4	4.2	4	-1E+10	1	-1E+10	1	-1E+10	1	-1E+10	1	-1E+10	1	-1E+10	1
4901784	0	C	07/05/2015	12:48	-129.007	46.499	0	1169.50	0	3.0200	0	34.4170	0	27.425	0	1156.593	0	13.7	4	4.2	4	-1E+10	1	-1E+10	1	-1E+10	1	-1E+10	1	-1E+10	1	-1E+10	1
4901784	0	C	07/05/2015	12:48	-129.007	46.499	0	1174.90	0	3.0110	0	34.4190	0	27.428	0	1161.919	0	13.8	4	4.3	4	-1E+10	1	-1E+10	1	-1E+10	1	-1E+10	1	-1E+10	1	-1E+10	1
4901784	0	C	07/05/2015	12:48	-129.007	46.499	0	1180.50	0	3.0020	0	34.4210	0	27.430	0	1167.441	0	13.9	4	4.3	4	-1E+10	1	-1E+10	1	-1E+10	1	-1E+10	1	-1E+10	1	-1E+10	1
4901784	0	C	07/05/2015	12:48	-129.007	46.499	0	1185.00	0	2.9960	0	34.4210	0	27.431	0	1171.879	0	13.9	4	4.3	4	-1E+10	1	-1E+10	1	-1E+10	1	-1E+10	1	-1E+10	1	-1E+10	1
4901784	0	C	07/05/2015	12:48	-129.007	46.499	0	1189.70	0	2.9880	0	34.4230	0	27.433	0	1176.514	0	14.0	4	4.3	4	-1E+10	1	-1E+10	1	-1E+10	1	-1E+10	1	-1E+10	1	-1E+10	1
4901784	0	C	07/05/2015	12:48	-129.007	46.499	0	1195.20	0	2.9770	0	34.4250	0	27.436	0	1181.937	0	14.2	4	4.4	4	-1E+10	1	-1E+10	1	-1E+10	1	-1E+10	1	-1E+10	1	-1E+10	1
4901784	0	C	07/05/2015	12:48	-129.007	46.499	0	1199.90	0	2.9680	0	34.4270	0	27.438	0	1186.572	0	14.2	4	4.4	4	-1E+10	1	-1E+10	1	-1E+10	1	-1E+10	1	-1E+10	1	-1E+10	1
4901784	0	C	07/05/2015	12:48	-129.007	46.499	0	1204.60	0	2.9620	0	34.4280	0	27.439	0	1191.206	0	14.3	4	4.4	4	-1E+10	1	-1E+10	1	-1E+10	1	-1E+10	1	-1E+10	1	-1E+10	1
4901784	0	C	07/05/2015	12:48	-129.007	46.499	0	1210.20	0	2.9580	0	34.4280	0	27.440	0	1196.728	0	14.4	4	4.4	4	-1E+10	1	-1E+10	1	-1E+10	1	-1E+10	1	-1E+10	1	-1E+10	1
4901784	0	C	07/05/2015	12:48	-129.007	46.499	0	1214.90	0	2.9470	0	34.4300	0	27.442	0	1201.362	0	14.4	4	4.4	4	-1E+10	1	-1E+10	1	-1E+10	1	-1E+10	1	-1E+10	1	-1E+10	1
4901784	0	C	07/05/2015	12:48	-129.007	46.499	0	1219.70	0	2.9330	0	34.4310	0	27.445	0	1206.095	0	14.5	4	4.5	4	-1E+10	1	-1E+10	1	-1E+10	1	-1E+10	1	-1E+10	1	-1E+10	1
4901784	0	C	07/05/2015	12:48	-129.007	46.499	0	1225.40	0	2.9230	0	34.4320	0	27.446	0	1211.715	0	14.6	4	4.5	4	-1E+10	1	-1E+10	1	-1E+10	1	-1E+10	1	-1E+10	1	-1E+10	1
4901784	0	C	07/05/2015	12:48	-129.007	46.499	0	1230.20	0	2.9160	0	34.4340	0	27.449	0	1216.448	0	14.8	4	4.5	4	-1E+10	1	-1E+10	1	-1E+10	1	-1E+10	1	-1E+10	1	-1E+10	1
4901784	0	C	07/05/2015	12:48	-129.007	46.499	0	1234.90	0	2.9030	0	34.4350	0	27.451	0	1221.082	0	14.9	4	4.6	4	-1E+10	1	-1E+10	1	-1E+10	1	-1E+10	1	-1E+10	1	-1E+10	1
4901784	0	C	07/05/2015	12:48	-129.007	46.499	0	1239.70	0	2.8910	0	34.4370	0	27.453	0	1225.814	0	15.0	4	4.6	4	-1E+10	1	-1E+10	1	-1E+10	1	-1E+10	1	-1E+10	1	-1E+10	1
4901784	0	C	07/05/2015	12:48	-129.007	46.499	0	1244.50	0	2.8860	0	34.4380	0	27.454	0	1230.546	0	15.1	4	4.6	4	-1E+10	1	-1E+10	1	-1E+10	1	-1E+10	1	-1E+10	1	-1E+10	1
4901784	0	C	07/05/2015	12:48	-129.007	46.499	0	1250.20	0	2.8790	0	34.4390	0	27.456	0	1236.165	0	15.2	4	4.7	4	-1E+10	1	-1E+10	1	-1E+10	1	-1E+10	1	-1E+10	1	-1E+10	1
4901784	0	C	07/05/2015	12:48	-129.007	46.499	0	1254.90	0	2.8680	0	34.4410	0	27.459	0	1240.799	0	15.3	4	4.7	4	-1E+10	1	-1E+10	1	-1E+10	1	-1E+10	1	-1E+10	1	-1E+10	1
4901784	0	C	07/05/2015	12:48	-129.007	46.499	0	1259.70	0	2.8630	0	34.4420	0	27.460	0	1245.531	0	15.4	4	4.7	4	-1E+10	1	-1E+10	1	-1E+10	1	-1E+10	1	-1E+10	1	-1E+10	1
4901784	0	C	07/05/2015	12:48	-129.007	46.499	0	1265.50	0	2.8550	0	34.4430	0	27.461	0	1251.248	0	15.5	4	4.8	4	-1E+10	1	-1E+10	1	-1E+10	1	-1E+10	1	-1E+10	1	-1E+10	1
4901784	0	C	07/05/2015	12:48	-129.007	46.499	0	1270.30	0	2.8460	0	34.4450	0	27.464	0	1255.980	0	15.7	4	4.8	4	-1E+10	1	-1E+10	1	-1E+10	1	-1E+10	1	-1E+10	1	-1E+10	1
4901784	0	C	07/05/2015	12:48	-129.007	46.499	0	1275.10	0	2.8390	0	34.4460	0	27.465	0	1260.711	0	15.8	4	4.9	4	-1E+10	1	-1E+10	1	-1E+10	1	-1E+10	1	-1E+10	1	-1E+10	1
4901784	0	C	07/05/2015	12:48	-129.007	46.499	0	1279.90	0	2.8300	0	34.4480	0	27.468	0	1265.443	0	15.9	4	4.9	4	-1E+10	1	-1E+10	1	-1E+10	1	-1E+10	1	-1E+10	1	-1E+10	1
4901784	0	C	07/05/2015	12:48	-129.007	46.499	0	1284.80	0	2.8220	0	34.4490	0	27.469	0	1270.273	0	16.1	4	4.9	4	-1E+10	1	-1E+10	1	-1E+10	1	-1E+10	1	-1E+10	1	-1E+10	1
4901784	0	C	07/05/2015	12:48	-129.007	46.499	0	1289.70	0	2.8160	0	34.4500	0	27.470	0	1275.102	0	16.1	4	5.0	4	-1E+10	1	-1E+10	1	-1E+10	1	-1E+10	1	-1E+10	1	-1E+10	1
4901784	0	C	07/05/2015	12:48	-129.007	46.499	0	1294.50	0	2.8080	0	34.4510	0	27.472	0	1279.834	0	16.3	4	5.0	4	-1E+10	1	-1E+10	1	-1E+10	1	-1E+10	1	-1E+10	1	-1E+10	1
4901784	0	C	07/05/2015	12:48	-129.007	46.499	0	1300.40	0	2.7980	0	34.4530	0	27.475	0	1285.649	0	16.5	4	5.1	4	-1E+10	1	-1E+10	1	-1E+10	1	-1E+10	1	-1E+10	1	-1E+10	1
4901784	0	C	07/05/2015	12:48	-129.007	46.499	0	1305.30	0	2.7910	0	34.4540	0	27.476	0	1290.478	0	16.6	4	5.1	4	-1E+10	1	-1E+10	1	-1E+10	1	-1E+10	1	-1E+10	1	-1E+10	1
4901784	0	C	07/05/2015	12:48	-129.007	46.499	0	1310.30	0	2.7820	0	34.4550	0	27.478	0	1295.406	0	16.8	4	5.2	4	-1E+10	1	-1E+10	1	-1E+10	1	-1E+10	1	-1E+10	1	-1E+10	1
4901784	0	C	07/05/2015	12:48	-129.007	46.499	0	1315.20	0	2.7740	0	34.4570	0	27.480	0	1300.235	0	17.0	4	5.2	4	-1E+10	1	-1E+10	1	-1E+10	1	-1E+10	1	-1E+10	1	-1E+10	1
4901784	0	C	07/05/2015	12:48	-129.007	46.499	0	1319.60	0	2.7660	0	34.4590	0	27.482	0	1304.571	0	17.2	4	5.3	4	-1E+10	1	-1E+10	1	-1E+10	1	-1E+10	1	-1E+10	1	-1E+10	1
4901784	0	C	07/05/2015	12:48	-129.007	46.499	0	1325.10	0	2.7590	0	34.4600	0	27.484	0	1309.992	0	17.6	4	5.4	4	-1E+10	1	-1E+10	1	-1E+10	1	-1E+10	1	-1E+10	1	-1E+10	1
4901784	0	C	07/05/2015	12:48	-129.007	46.499	0	1330.50	0	2.7510	0	34.4620	0	27.486	0	1315.313	0	17.8	4	5.4	4	-1E+10	1	-1E+10	1	-1E+10	1	-1E+10	1	-1E+10	1	-1E+10	1
4901784	0	C	07/05/2015	12:48	-129.007	46.499	0	1335.00	0	2.7410	0	34.4640	0	27.488	0	1319.748	0	17.9	4	5.5	4	-1E+10	1	-1E+10	1	-1E+10	1	-1E+10	1	-1E+10	1	-1E+10	1
4901784	0	C	07/05/2015	12:48	-129.007	46.499	0	1339.50	0	2.7370	0	34.4640	0	27.489	0	1324.182	0	18.0	4	5.5	4	-1E+10	1	-1E+10	1	-1E+10	1	-1E+10	1	-1E+10	1	-1E+10	1
4901784	0	C	07/05/2015	12:48	-129.007	46.499	0	1345.00	0	2.7260	0	34.4660	0	27.491	0	1329.602	0	18.2	4	5.6	4	-1E+10	1	-1E+10	1	-1E+10	1	-1E+10	1	-1E+10	1	-1E+10	1
4901784	0	C	07/05/2015	12:48	-129.007	46.499	0	1350.50	0	2.7170	0	34.4670	0	27.493	0	1335.022	0	18.4	4	5.7	4	-1E+10	1	-1E+10	1	-1E+10	1	-1E+10	1	-1E+10	1	-1E+10	1
4901784	0	C	07/05/2015	12:48	-129.007	46.499	0	1355.00	0	2.7090	0	34.4690	0	27.495	0	1339.456	0	18.6	4	5.7	4	-1E+10	1	-1E+10	1	-1E+10	1	-1E+10	1	-1E+10	1	-1E+10	1
4901784	0	C	07/05/2015	12:48	-129.007	46.499	0	1360.30	0	2.7000	0	34.4690	0	27.496	0	1344.678	0	18.6	4	5.7	4	-1E+10	1	-1E+10	1	-1E+10	1	-1E+10	1	-1E+10	1	-1E+10	1
4901784	0	C	07/05/2015	12:48	-129.007	46.499	0	1365.30	0	2.6920	0	34.4700	0	27.498	0	1349.605	0	18.8	4	5.7	4	-1E+10	1	-1E+10	1	-1E+10	1	-1E+10	1	-1E+10	1	-1E+10	1
4901784	0	C	07/05/2015	12:48	-129.007	46.499	0	1370.10	0	2.6840	0	34.4710	0	27.499	0	1354.334	0	18.9	4	5.8	4	-1E+10	1	-1E+10	1	-1E+10	1	-1E+10	1	-1E+10	1	-1E+10	1
4901784	0	C	07/05/2015	12:48	-129.007	46.499	0	1375.00	0	2.6760	0	34.4720	0	27.501	0	1359.162	0	19.1	4	5.8	4	-1E+10	1	-1E+10	1	-1E+10	1	-1E+10	1	-1E+10	1	-1E+10	1
4901784	0	C	07/05/2015	12:48	-129.007	46.499	0	1379.90	0	2.6640	0	34.4730	0	27.503	0	1363.990	0	19.2	4	5.9	4	-1E+10	1	-1E+10	1	-1E+10	1	-1E+10	1	-1E+10	1	-1E+10	1
4901784	0	C	07/05/2015	12:48	-129.007	46.499	0	1384.80	0	2.6520	0	34.4740	0	27.504	0	1368.817	0	19.4	4	5.9	4	-1E+10	1	-1E+10	1	-1E+10	1	-1E+10	1	-1E+10	1	-1E+10	1
4901784	0	C	07/05/2015	12:48	-129.007	46.499	0	1389.80	0	2.6440	0	34.4760	0	27.507	0	1373.743	0	19.6	4	6.0	4	-1E+10	1	-1E+10	1	-1E+10	1	-1E+10	1	-1E+10	1	-1E+10	1
4901784	0	C	07/05/2015	12:48	-129.007	46.499	0	1394.90	0	2.6380	0	34.4770	0	27.508	0	1378.768	0	19.9	4	6.1	4	-1E+10	1	-1E+10	1	-1E+10	1	-1E+10	1	-1E+10	1	-1E+10	1
4901784	0	C	07/05/2015	12:48	-129.007	46.499	0	1400.00	0	2.6270	0	34.4790	0	27.511	0	1383.792	0	20.2	4	6.2	4	-1E+10	1	-1E+10	1	-1E+10	1	-1E+10	1	-1E+10	1	-1E+10	1
4901784	0	C	07/05/2015	12:48	-129.007	46.499	0	1405.00	0	2.6220	0	34.4800	0	27.512	0	1388.718	0	20.4	4	6.2	4	-1E+10	1	-1E+10	1	-1E+10	1	-1E+10	1	-1E+10	1	-1E+10	1
4901784	0	C	07/05/2015	12:48	-129.007	46.499	0	1410.00	0	2.6150	0	34.4810	0	27.513	0	1393.643	0	20.5	4	6.3	4	-1E+10	1	-1E+10	1	-1E+10	1	-1E+10	1	-1E+10	1	-1E+10	1
4901784	0	C	07/05/2015	12:48	-129.007	46.499	0	1415.00	0	2.6080	0	34.4820	0	27.515	0	1398.569	0	20.8	4	6.4	4	-1E+10	1	-1E+10	1	-1E+10	1	-1E+10	1	-1E+10	1	-1E+10	1
4901784	0	C	07/05/2015	12:48	-129.007	46.499	0	1420.10	0	2.5990	0	34.4830	0	27.516	0	1403.593	0	21.0	4	6.4	4	-1E+10	1	-1E+10	1	-1E+10	1	-1E+10	1	-1E+10	1	-1E+10	1
4901784	0	C	07/05/2015	12:48	-129.007	46.499	0	1425.10	0	2.5910	0	34.4840	0	27.518	0	1408.518	0	21.2	4	6.5	4	-1E+10	1	-1E+10	1	-1E+10	1	-1E+10	1	-1E+10	1	-1E+10	1
4901784	0	C	07/05/2015	12:48	-129.007	46.499	0	1430.20	0	2.5850	0	34.4850	0	27.519	0	1413.541	0	21.5	4	6.6	4	-1E+10	1	-1E+10	1	-1E+10	1	-1E+10	1	-1E+10	1	-1E+10	1
4901784	0	C	07/05/2015	12:48	-129.007	46.499	0	1435.30	0	2.5770	0	34.4870	0	27.521	0	1418.565	0	21.7	4	6.6	4	-1E+10	1	-1E+10	1	-1E+10	1	-1E+10	1	-1E+10	1	-1E+10	1
4901784	0	C	07/05/2015	12:48	-129.007	46.499	0	1440.50	0	2.5690	0	34.4880	0	27.523	0	1423.687	0	21.9	4	6.7	4	-1E+10	1	-1E+10	1	-1E+10	1	-1E+10	1	-1E+10	1	-1E+10	1
4901784	0	C	07/05/2015	12:48	-129.007	46.499	0	1445.70	0	2.5580	0	34.4890	0	27.525	0	1428.808	0	22.1	4	6.7	4	-1E+10	1	-1E+10	1	-1E+10	1	-1E+10	1	-1E+10	1	-1E+10	1
4901784	0	C	07/05/2015	12:48	-129.007	46.499	0	1450.00	0	2.5510	0	34.4900	0	27.526	0	1433.044	0	22.3	4	6.8	4	-1E+10	1	-1E+10	1	-1E+10	1	-1E+10	1	-1E+10	1	-1E+10	1
4901784	0	C	07/05/2015	12:48	-129.007	46.499	0	1454.40	0	2.5440	0	34.4900	0	27.527	0	1437.377	0	22.5	4	6.9	4	-1E+10	1	-1E+10	1	-1E+10	1	-1E+10	1	-1E+10	1	-1E+10	1
4901784	0	C	07/05/2015	12:48	-129.007	46.499	0	1459.60	0	2.5340	0	34.4920	0	27.529	0	1442.499	0	22.8	4	7.0	4	-1E+10	1	-1E+10	1	-1E+10	1	-1E+10	1	-1E+10	1	-1E+10	1
4901784	0	C	07/05/2015	12:48	-129.007	46.499	0	1464.90	0	2.5270	0	34.4930	0	27.531	0	1447.718	0	23.0	4	7.0	4	-1E+10	1	-1E+10	1	-1E+10	1	-1E+10	1	-1E+10	1	-1E+10	1
4901784	0	C	07/05/2015	12:48	-129.007	46.499	0	1470.20	0	2.5190	0	34.4940	0	27.532	0	1452.938	0	23.4	4	7.1	4	-1E+10	1	-1E+10	1	-1E+10	1	-1E+10	1	-1E+10	1	-1E+10	1
4901784	0	C	07/05/2015	12:48	-129.007	46.499	0	1475.40	0	2.5080	0	34.4960	0	27.535	0	1458.059	0	23.7	4	7.2	4	-1E+10	1	-1E+10	1	-1E+10	1	-1E+10	1	-1E+10	1	-1E+10	1
4901784	0	C	07/05/2015	12:48	-129.007	46.499	0	1479.90	0	2.5030	0	34.4970	0	27.536	0	1462.491	0	24.1	4	7.3	4	-1E+10	1	-1E+10	1	-1E+10	1	-1E+10	1	-1E+10	1	-1E+10	1
4901784	0	C	07/05/2015	12:48	-129.007	46.499	0	1484.40	0	2.4960	0	34.4990	0	27.538	0	1466.922	0	24.5	4	7.5	4	-1E+10	1	-1E+10	1	-1E+10	1	-1E+10	1	-1E+10	1	-1E+10	1
4901784	0	C	07/05/2015	12:48	-129.007	46.499	0	1489.80	0	2.4920	0	34.5000	0	27.539	0	1472.240	0	24.9	4	7.6	4	-1E+10	1	-1E+10	1	-1E+10	1	-1E+10	1	-1E+10	1	-1E+10	1
4901784	0	C	07/05/2015	12:48	-129.007	46.499	0	1495.30	0	2.4750	0	34.5010	0	27.542	0	1477.656	0	25.0	4	7.6	4	-1E+10	1	-1E+10	1	-1E+10	1	-1E+10	1	-1E+10	1	-1E+10	1
4901784	0	C	07/05/2015	12:48	-129.007	46.499	0	1499.80	0	2.4710	0	34.5020	0	27.543	0	1482.087	0	25.2	4	7.7	4	-1E+10	1	-1E+10	1	-1E+10	1	-1E+10	1	-1E+10	1	-1E+10	1
4901784	0	C	07/05/2015	12:48	-129.007	46.499	0	1505.10	0	2.4600	0	34.5030	0	27.544	0	1487.305	0	25.3	4	7.7	4	-1E+10	1	-1E+10	1	-1E+10	1	-1E+10	1	-1E+10	1	-1E+10	1
4901784	0	C	07/05/2015	12:48	-129.007	46.499	0	1510.20	0	2.4530	0	34.5040	0	27.546	0	1492.327	0	25.6	4	7.8	4	-1E+10	1	-1E+10	1	-1E+10	1	-1E+10	1	-1E+10	1	-1E+10	1
4901784	0	C	07/05/2015	12:48	-129.007	46.499	0	1515.20	0	2.4500	0	34.5050	0	27.547	0	1497.250	0	25.9	4	7.9	4	-1E+10	1	-1E+10	1	-1E+10	1	-1E+10	1	-1E+10	1	-1E+10	1
4901784	0	C	07/05/2015	12:48	-129.007	46.499	0	1520.10	0	2.4440	0	34.5060	0	27.548	0	1502.075	0	26.3	4	8.0	4	-1E+10	1	-1E+10	1	-1E+10	1	-1E+10	1	-1E+10	1	-1E+10	1
4901784	0	C	07/05/2015	12:48	-129.007	46.499	0	1525.10	0	2.4440	0	34.5080	0	27.550	0	1506.998	0	26.9	4	8.2	4	-1E+10	1	-1E+10	1	-1E+10	1	-1E+10	1	-1E+10	1	-1E+10	1
4901784	0	C	07/05/2015	12:48	-129.007	46.499	0	1530.00	0	2.4370	0	34.5090	0	27.551	0	1511.822	0	27.1	4	8.3	4	-1E+10	1	-1E+10	1	-1E+10	1	-1E+10	1	-1E+10	1	-1E+10	1
4901784	0	C	07/05/2015	12:48	-129.007	46.499	0	1535.00	0	2.4300	0	34.5100	0	27.553	0	1516.745	0	27.3	4	8.3	4	-1E+10	1	-1E+10	1	-1E+10	1	-1E+10	1	-1E+10	1	-1E+10	1
4901784	0	C	07/05/2015	12:48	-129.007	46.499	0	1540.10	0	2.4190	0	34.5110	0	27.554	0	1521.766	0	27.7	4	8.4	4	-1E+10	1	-1E+10	1	-1E+10	1	-1E+10	1	-1E+10	1	-1E+10	1
4901784	0	C	07/05/2015	12:48	-129.007	46.499	0	1545.20	0	2.4080	0	34.5120	0	27.556	0	1526.787	0	28.0	4	8.5	4	-1E+10	1	-1E+10	1	-1E+10	1	-1E+10	1	-1E+10	1	-1E+10	1
4901784	0	C	07/05/2015	12:48	-129.007	46.499	0	1550.40	0	2.4040	0	34.5130	0	27.557	0	1531.906	0	28.2	4	8.6	4	-1E+10	1	-1E+10	1	-1E+10	1	-1E+10	1	-1E+10	1	-1E+10	1
4901784	0	C	07/05/2015	12:48	-129.007	46.499	0	1555.60	0	2.4000	0	34.5140	0	27.559	0	1537.025	0	28.5	4	8.7	4	-1E+10	1	-1E+10	1	-1E+10	1	-1E+10	1	-1E+10	1	-1E+10	1
4901784	0	C	07/05/2015	12:48	-129.007	46.499	0	1560.00	0	2.3980	0	34.5140	0	27.559	0	1541.356	0	28.8	4	8.8	4	-1E+10	1	-1E+10	1	-1E+10	1	-1E+10	1	-1E+10	1	-1E+10	1
4901784	0	C	07/05/2015	12:48	-129.007	46.499	0	1564.30	0	2.3890	0	34.5150	0	27.560	0	1545.589	0	29.1	4	8.9	4	-1E+10	1	-1E+10	1	-1E+10	1	-1E+10	1	-1E+10	1	-1E+10	1
4901784	0	C	07/05/2015	12:48	-129.007	46.499	0	1569.50	0	2.3790	0	34.5170	0	27.563	0	1550.708	0	29.7	4	9.0	4	-1E+10	1	-1E+10	1	-1E+10	1	-1E+10	1	-1E+10	1	-1E+10	1
4901784	0	C	07/05/2015	12:48	-129.007	46.499	0	1574.80	0	2.3760	0	34.5190	0	27.565	0	1555.925	0	30.2	4	9.2	4	-1E+10	1	-1E+10	1	-1E+10	1	-1E+10	1	-1E+10	1	-1E+10	1
4901784	0	C	07/05/2015	12:48	-129.007	46.499	0	1580.30	0	2.3670	0	34.5200	0	27.566	0	1561.339	0	30.5	4	9.3	4	-1E+10	1	-1E+10	1	-1E+10	1	-1E+10	1	-1E+10	1	-1E+10	1
4901784	0	C	07/05/2015	12:48	-129.007	46.499	0	1584.80	0	2.3620	0	34.5210	0	27.567	0	1565.768	0	30.8	4	9.4	4	-1E+10	1	-1E+10	1	-1E+10	1	-1E+10	1	-1E+10	1	-1E+10	1
4901784	0	C	07/05/2015	12:48	-129.007	46.499	0	1589.40	0	2.3540	0	34.5220	0	27.569	0	1570.296	0	31.2	4	9.5	4	-1E+10	1	-1E+10	1	-1E+10	1	-1E+10	1	-1E+10	1	-1E+10	1
4901784	0	C	07/05/2015	12:48	-129.007	46.499	0	1594.90	0	2.3460	0	34.5230	0	27.570	0	1575.709	0	31.6	4	9.6	4	-1E+10	1	-1E+10	1	-1E+10	1	-1E+10	1	-1E+10	1	-1E+10	1
4901784	0	C	07/05/2015	12:48	-129.007	46.499	0	1600.00	0	2.3370	0	34.5250	0	27.573	0	1580.729	0	32.0	4	9.7	4	-1E+10	1	-1E+10	1	-1E+10	1	-1E+10	1	-1E+10	1	-1E+10	1
4901784	0	C	07/05/2015	12:48	-129.007	46.499	0	1605.00	0	2.3310	0	34.5260	0	27.574	0	1585.650	0	32.3	4	9.8	4	-1E+10	1	-1E+10	1	-1E+10	1	-1E+10	1	-1E+10	1	-1E+10	1
4901784	0	C	07/05/2015	12:48	-129.007	46.499	0	1610.70	0	2.3260	0	34.5260	0	27.575	0	1591.260	0	32.5	4	9.9	4	-1E+10	1	-1E+10	1	-1E+10	1	-1E+10	1	-1E+10	1	-1E+10	1
4901784	0	C	07/05/2015	12:48	-129.007	46.499	0	1615.60	0	2.3200	0	34.5270	0	27.576	0	1596.082	0	32.9	4	10.0	4	-1E+10	1	-1E+10	1	-1E+10	1	-1E+10	1	-1E+10	1	-1E+10	1
4901784	0	C	07/05/2015	12:48	-129.007	46.499	0	1620.50	0	2.3100	0	34.5290	0	27.578	0	1600.905	0	33.3	4	10.1	4	-1E+10	1	-1E+10	1	-1E+10	1	-1E+10	1	-1E+10	1	-1E+10	1
4901784	0	C	07/05/2015	12:48	-129.007	46.499	0	1625.40	0	2.3030	0	34.5300	0	27.580	0	1605.727	0	33.6	4	10.2	4	-1E+10	1	-1E+10	1	-1E+10	1	-1E+10	1	-1E+10	1	-1E+10	1
4901784	0	C	07/05/2015	12:48	-129.007	46.499	0	1630.40	0	2.3000	0	34.5310	0	27.581	0	1610.647	0	33.8	4	10.3	4	-1E+10	1	-1E+10	1	-1E+10	1	-1E+10	1	-1E+10	1	-1E+10	1
4901784	0	C	07/05/2015	12:48	-129.007	46.499	0	1635.40	0	2.2920	0	34.5320	0	27.582	0	1615.568	0	34.2	4	10.4	4	-1E+10	1	-1E+10	1	-1E+10	1	-1E+10	1	-1E+10	1	-1E+10	1
4901784	0	C	07/05/2015	12:48	-129.007	46.499	0	1640.40	0	2.2850	0	34.5330	0	27.584	0	1620.488	0	34.4	4	10.5	4	-1E+10	1	-1E+10	1	-1E+10	1	-1E+10	1	-1E+10	1	-1E+10	1
4901784	0	C	07/05/2015	12:48	-129.007	46.499	0	1645.50	0	2.2810	0	34.5340	0	27.585	0	1625.506	0	34.8	4	10.6	4	-1E+10	1	-1E+10	1	-1E+10	1	-1E+10	1	-1E+10	1	-1E+10	1
4901784	0	C	07/05/2015	12:48	-129.007	46.499	0	1650.60	0	2.2730	0	34.5350	0	27.586	0	1630.525	0	35.1	4	10.7	4	-1E+10	1	-1E+10	1	-1E+10	1	-1E+10	1	-1E+10	1	-1E+10	1
4901784	0	C	07/05/2015	12:48	-129.007	46.499	0	1655.70	0	2.2680	0	34.5360	0	27.587	0	1635.543	0	35.4	4	10.7	4	-1E+10	1	-1E+10	1	-1E+10	1	-1E+10	1	-1E+10	1	-1E+10	1
4901784	0	C	07/05/2015	12:48	-129.007	46.499	0	1660.00	0	2.2640	0	34.5360	0	27.588	0	1639.774	0	35.6	4	10.8	4	-1E+10	1	-1E+10	1	-1E+10	1	-1E+10	1	-1E+10	1	-1E+10	1
4901784	0	C	07/05/2015	12:48	-129.007	46.499	0	1664.20	0	2.2590	0	34.5370	0	27.589	0	1643.907	0	35.8	4	10.9	4	-1E+10	1	-1E+10	1	-1E+10	1	-1E+10	1	-1E+10	1	-1E+10	1
4901784	0	C	07/05/2015	12:48	-129.007	46.499	0	1669.40	0	2.2560	0	34.5370	0	27.589	0	1649.023	0	36.0	4	10.9	4	-1E+10	1	-1E+10	1	-1E+10	1	-1E+10	1	-1E+10	1	-1E+10	1
4901784	0	C	07/05/2015	12:48	-129.007	46.499	0	1674.60	0	2.2500	0	34.5380	0	27.591	0	1654.139	0	36.4	4	11.0	4	-1E+10	1	-1E+10	1	-1E+10	1	-1E+10	1	-1E+10	1	-1E+10	1
4901784	0	C	07/05/2015	12:48	-129.007	46.499	0	1679.90	0	2.2460	0	34.5390	0	27.592	0	1659.354	0	36.8	4	11.1	4	-1E+10	1	-1E+10	1	-1E+10	1	-1E+10	1	-1E+10	1	-1E+10	1
4901784	0	C	07/05/2015	12:48	-129.007	46.499	0	1685.20	0	2.2370	0	34.5400	0	27.593	0	1664.568	0	37.2	4	11.3	4	-1E+10	1	-1E+10	1	-1E+10	1	-1E+10	1	-1E+10	1	-1E+10	1
4901784	0	C	07/05/2015	12:48	-129.007	46.499	0	1690.50	0	2.2280	0	34.5410	0	27.595	0	1669.783	0	37.5	4	11.4	4	-1E+10	1	-1E+10	1	-1E+10	1	-1E+10	1	-1E+10	1	-1E+10	1
4901784	0	C	07/05/2015	12:48	-129.007	46.499	0	1695.00	0	2.2220	0	34.5420	0	27.596	0	1674.210	0	37.8	4	11.5	4	-1E+10	1	-1E+10	1	-1E+10	1	-1E+10	1	-1E+10	1	-1E+10	1
4901784	0	C	07/05/2015	12:48	-129.007	46.499	0	1699.50	0	2.2160	0	34.5430	0	27.597	0	1678.637	0	38.1	4	11.6	4	-1E+10	1	-1E+10	1	-1E+10	1	-1E+10	1	-1E+10	1	-1E+10	1
4901784	0	C	07/05/2015	12:48	-129.007	46.499	0	1704.90	0	2.2100	0	34.5440	0	27.599	0	1683.949	0	38.5	4	11.7	4	-1E+10	1	-1E+10	1	-1E+10	1	-1E+10	1	-1E+10	1	-1E+10	1
4901784	0	C	07/05/2015	12:48	-129.007	46.499	0	1710.40	0	2.2050	0	34.5440	0	27.599	0	1689.359	0	38.8	4	11.7	4	-1E+10	1	-1E+10	1	-1E+10	1	-1E+10	1	-1E+10	1	-1E+10	1
4901784	0	C	07/05/2015	12:48	-129.007	46.499	0	1715.00	0	2.1990	0	34.5460	0	27.601	0	1693.884	0	39.0	4	11.8	4	-1E+10	1	-1E+10	1	-1E+10	1	-1E+10	1	-1E+10	1	-1E+10	1
4901784	0	C	07/05/2015	12:48	-129.007	46.499	0	1719.50	0	2.1940	0	34.5460	0	27.602	0	1698.311	0	39.3	4	11.9	4	-1E+10	1	-1E+10	1	-1E+10	1	-1E+10	1	-1E+10	1	-1E+10	1
4901784	0	C	07/05/2015	12:48	-129.007	46.499	0	1725.00	0	2.1880	0	34.5470	0	27.603	0	1703.721	0	39.6	4	12.0	4	-1E+10	1	-1E+10	1	-1E+10	1	-1E+10	1	-1E+10	1	-1E+10	1
4901784	0	C	07/05/2015	12:48	-129.007	46.499	0	1730.50	0	2.1830	0	34.5480	0	27.604	0	1709.131	0	39.9	4	12.1	4	-1E+10	1	-1E+10	1	-1E+10	1	-1E+10	1	-1E+10	1	-1E+10	1
4901784	0	C	07/05/2015	12:48	-129.007	46.499	0	1735.10	0	2.1790	0	34.5490	0	27.605	0	1713.656	0	40.1	4	12.1	4	-1E+10	1	-1E+10	1	-1E+10	1	-1E+10	1	-1E+10	1	-1E+10	1
4901784	0	C	07/05/2015	12:48	-129.007	46.499	0	1739.80	0	2.1760	0	34.5490	0	27.606	0	1718.279	0	40.4	4	12.2	4	-1E+10	1	-1E+10	1	-1E+10	1	-1E+10	1	-1E+10	1	-1E+10	1
4901784	0	C	07/05/2015	12:48	-129.007	46.499	0	1745.30	0	2.1690	0	34.5500	0	27.607	0	1723.688	0	40.8	4	12.3	4	-1E+10	1	-1E+10	1	-1E+10	1	-1E+10	1	-1E+10	1	-1E+10	1
4901784	0	C	07/05/2015	12:48	-129.007	46.499	0	1750.00	0	2.1620	0	34.5510	0	27.608	0	1728.311	0	41.0	4	12.4	4	-1E+10	1	-1E+10	1	-1E+10	1	-1E+10	1	-1E+10	1	-1E+10	1
4901784	0	C	07/05/2015	12:48	-129.007	46.499	0	1754.60	0	2.1590	0	34.5510	0	27.609	0	1732.835	0	41.2	4	12.5	4	-1E+10	1	-1E+10	1	-1E+10	1	-1E+10	1	-1E+10	1	-1E+10	1
4901784	0	C	07/05/2015	12:48	-129.007	46.499	0	1760.00	0	2.1530	0	34.5520	0	27.610	0	1738.146	0	41.5	4	12.6	4	-1E+10	1	-1E+10	1	-1E+10	1	-1E+10	1	-1E+10	1	-1E+10	1
4901784	0	C	07/05/2015	12:48	-129.007	46.499	0	1765.40	0	2.1480	0	34.5530	0	27.611	0	1743.457	0	41.8	4	12.7	4	-1E+10	1	-1E+10	1	-1E+10	1	-1E+10	1	-1E+10	1	-1E+10	1
4901784	0	C	07/05/2015	12:48	-129.007	46.499	0	1770.30	0	2.1440	0	34.5540	0	27.612	0	1748.276	0	42.2	4	12.8	4	-1E+10	1	-1E+10	1	-1E+10	1	-1E+10	1	-1E+10	1	-1E+10	1
4901784	0	C	07/05/2015	12:48	-129.007	46.499	0	1775.30	0	2.1390	0	34.5540	0	27.613	0	1753.193	0	42.5	4	12.9	4	-1E+10	1	-1E+10	1	-1E+10	1	-1E+10	1	-1E+10	1	-1E+10	1
4901784	0	C	07/05/2015	12:48	-129.007	46.499	0	1780.30	0	2.1340	0	34.5560	0	27.615	0	1758.110	0	42.8	4	12.9	4	-1E+10	1	-1E+10	1	-1E+10	1	-1E+10	1	-1E+10	1	-1E+10	1
4901784	0	C	07/05/2015	12:48	-129.007	46.499	0	1785.30	0	2.1300	0	34.5560	0	27.615	0	1763.027	0	43.0	4	13.0	4	-1E+10	1	-1E+10	1	-1E+10	1	-1E+10	1	-1E+10	1	-1E+10	1
4901784	0	C	07/05/2015	12:48	-129.007	46.499	0	1790.30	0	2.1260	0	34.5570	0	27.616	0	1767.944	0	43.2	4	13.1	4	-1E+10	1	-1E+10	1	-1E+10	1	-1E+10	1	-1E+10	1	-1E+10	1
4901784	0	C	07/05/2015	12:48	-129.007	46.499	0	1795.30	0	2.1210	0	34.5570	0	27.617	0	1772.861	0	43.6	4	13.2	4	-1E+10	1	-1E+10	1	-1E+10	1	-1E+10	1	-1E+10	1	-1E+10	1
4901784	0	C	07/05/2015	12:48	-129.007	46.499	0	1800.40	0	2.1130	0	34.5590	0	27.619	0	1777.876	0	44.0	4	13.3	4	-1E+10	1	-1E+10	1	-1E+10	1	-1E+10	1	-1E+10	1	-1E+10	1
4901784	0	C	07/05/2015	12:48	-129.007	46.499	0	1805.40	0	2.1070	0	34.5590	0	27.620	0	1782.792	0	44.2	4	13.3	4	-1E+10	1	-1E+10	1	-1E+10	1	-1E+10	1	-1E+10	1	-1E+10	1
4901784	0	C	07/05/2015	12:48	-129.007	46.499	0	1810.50	0	2.1040	0	34.5590	0	27.620	0	1787.807	0	44.3	4	13.4	4	-1E+10	1	-1E+10	1	-1E+10	1	-1E+10	1	-1E+10	1	-1E+10	1
4901784	0	C	07/05/2015	12:48	-129.007	46.499	0	1815.60	0	2.0970	0	34.5600	0	27.621	0	1792.821	0	44.5	4	13.5	4	-1E+10	1	-1E+10	1	-1E+10	1	-1E+10	1	-1E+10	1	-1E+10	1
4901784	0	C	07/05/2015	12:48	-129.007	46.499	0	1820.70	0	2.0940	0	34.5610	0	27.622	0	1797.836	0	44.8	4	13.5	4	-1E+10	1	-1E+10	1	-1E+10	1	-1E+10	1	-1E+10	1	-1E+10	1
4901784	0	C	07/05/2015	12:48	-129.007	46.499	0	1825.00	0	2.0920	0	34.5610	0	27.622	0	1802.064	0	45.1	4	13.6	4	-1E+10	1	-1E+10	1	-1E+10	1	-1E+10	1	-1E+10	1	-1E+10	1
4901784	0	C	07/05/2015	12:48	-129.007	46.499	0	1829.40	0	2.0880	0	34.5620	0	27.624	0	1806.390	0	45.5	4	13.7	4	-1E+10	1	-1E+10	1	-1E+10	1	-1E+10	1	-1E+10	1	-1E+10	1
4901784	0	C	07/05/2015	12:48	-129.007	46.499	0	1834.50	0	2.0830	0	34.5630	0	27.625	0	1811.404	0	45.8	4	13.8	4	-1E+10	1	-1E+10	1	-1E+10	1	-1E+10	1	-1E+10	1	-1E+10	1
4901784	0	C	07/05/2015	12:48	-129.007	46.499	0	1839.70	0	2.0770	0	34.5640	0	27.626	0	1816.516	0	46.2	4	13.9	4	-1E+10	1	-1E+10	1	-1E+10	1	-1E+10	1	-1E+10	1	-1E+10	1
4901784	0	C	07/05/2015	12:48	-129.007	46.499	0	1845.00	0	2.0750	0	34.5650	0	27.627	0	1821.726	0	46.4	4	14.0	4	-1E+10	1	-1E+10	1	-1E+10	1	-1E+10	1	-1E+10	1	-1E+10	1
4901784	0	C	07/05/2015	12:48	-129.007	46.499	0	1850.30	0	2.0710	0	34.5650	0	27.627	0	1826.937	0	46.6	4	14.1	4	-1E+10	1	-1E+10	1	-1E+10	1	-1E+10	1	-1E+10	1	-1E+10	1
4901784	0	C	07/05/2015	12:48	-129.007	46.499	0	1855.60	0	2.0670	0	34.5660	0	27.629	0	1832.147	0	46.9	4	14.2	4	-1E+10	1	-1E+10	1	-1E+10	1	-1E+10	1	-1E+10	1	-1E+10	1
4901784	0	C	07/05/2015	12:48	-129.007	46.499	0	1859.90	0	2.0580	0	34.5670	0	27.630	0	1836.374	0	47.2	4	14.2	4	-1E+10	1	-1E+10	1	-1E+10	1	-1E+10	1	-1E+10	1	-1E+10	1
4901784	0	C	07/05/2015	12:48	-129.007	46.499	0	1864.40	0	2.0560	0	34.5670	0	27.630	0	1840.798	0	47.3	4	14.3	4	-1E+10	1	-1E+10	1	-1E+10	1	-1E+10	1	-1E+10	1	-1E+10	1
4901784	0	C	07/05/2015	12:48	-129.007	46.499	0	1869.70	0	2.0540	0	34.5670	0	27.630	0	1846.008	0	47.6	4	14.4	4	-1E+10	1	-1E+10	1	-1E+10	1	-1E+10	1	-1E+10	1	-1E+10	1
4901784	0	C	07/05/2015	12:48	-129.007	46.499	0	1875.10	0	2.0480	0	34.5680	0	27.632	0	1851.316	0	48.1	4	14.5	4	-1E+10	1	-1E+10	1	-1E+10	1	-1E+10	1	-1E+10	1	-1E+10	1
4901784	0	C	07/05/2015	12:48	-129.007	46.499	0	1880.60	0	2.0450	0	34.5690	0	27.633	0	1856.722	0	48.4	4	14.6	4	-1E+10	1	-1E+10	1	-1E+10	1	-1E+10	1	-1E+10	1	-1E+10	1
4901784	0	C	07/05/2015	12:48	-129.007	46.499	0	1885.10	0	2.0410	0	34.5700	0	27.634	0	1861.145	0	48.8	4	14.7	4	-1E+10	1	-1E+10	1	-1E+10	1	-1E+10	1	-1E+10	1	-1E+10	1
4901784	0	C	07/05/2015	12:48	-129.007	46.499	0	1889.70	0	2.0370	0	34.5710	0	27.635	0	1865.667	0	49.1	4	14.8	4	-1E+10	1	-1E+10	1	-1E+10	1	-1E+10	1	-1E+10	1	-1E+10	1
4901784	0	C	07/05/2015	12:48	-129.007	46.499	0	1895.20	0	2.0340	0	34.5720	0	27.636	0	1871.072	0	49.4	4	14.9	4	-1E+10	1	-1E+10	1	-1E+10	1	-1E+10	1	-1E+10	1	-1E+10	1
4901784	0	C	07/05/2015	12:48	-129.007	46.499	0	1900.70	0	2.0290	0	34.5720	0	27.637	0	1876.478	0	49.7	4	15.0	4	-1E+10	1	-1E+10	1	-1E+10	1	-1E+10	1	-1E+10	1	-1E+10	1
4901784	0	C	07/05/2015	12:48	-129.007	46.499	0	1905.40	0	2.0230	0	34.5730	0	27.638	0	1881.098	0	50.1	4	15.1	4	-1E+10	1	-1E+10	1	-1E+10	1	-1E+10	1	-1E+10	1	-1E+10	1
4901784	0	C	07/05/2015	12:48	-129.007	46.499	0	1909.90	0	2.0190	0	34.5740	0	27.639	0	1885.520	0	50.4	4	15.2	4	-1E+10	1	-1E+10	1	-1E+10	1	-1E+10	1	-1E+10	1	-1E+10	1
4901784	0	C	07/05/2015	12:48	-129.007	46.499	0	1914.80	0	2.0160	0	34.5750	0	27.640	0	1890.336	0	50.8	4	15.3	4	-1E+10	1	-1E+10	1	-1E+10	1	-1E+10	1	-1E+10	1	-1E+10	1
4901784	0	C	07/05/2015	12:48	-129.007	46.499	0	1919.70	0	2.0140	0	34.5760	0	27.641	0	1895.152	0	51.1	4	15.4	4	-1E+10	1	-1E+10	1	-1E+10	1	-1E+10	1	-1E+10	1	-1E+10	1
4901784	0	C	07/05/2015	12:48	-129.007	46.499	0	1924.70	0	2.0120	0	34.5770	0	27.642	0	1900.065	0	51.3	4	15.5	4	-1E+10	1	-1E+10	1	-1E+10	1	-1E+10	1	-1E+10	1	-1E+10	1
4901784	0	C	07/05/2015	12:48	-129.007	46.499	0	1929.60	0	2.0080	0	34.5770	0	27.642	0	1904.881	0	51.7	4	15.6	4	-1E+10	1	-1E+10	1	-1E+10	1	-1E+10	1	-1E+10	1	-1E+10	1
4901784	0	C	07/05/2015	12:48	-129.007	46.499	0	1934.60	0	2.0040	0	34.5780	0	27.644	0	1909.794	0	52.0	4	15.7	4	-1E+10	1	-1E+10	1	-1E+10	1	-1E+10	1	-1E+10	1	-1E+10	1
4901784	0	C	07/05/2015	12:48	-129.007	46.499	0	1939.60	0	1.9990	0	34.5790	0	27.645	0	1914.708	0	52.3	4	15.8	4	-1E+10	1	-1E+10	1	-1E+10	1	-1E+10	1	-1E+10	1	-1E+10	1
4901784	0	C	07/05/2015	12:48	-129.007	46.499	0	1944.60	0	1.9950	0	34.5790	0	27.645	0	1919.621	0	52.6	4	15.9	4	-1E+10	1	-1E+10	1	-1E+10	1	-1E+10	1	-1E+10	1	-1E+10	1
4901784	0	C	07/05/2015	12:48	-129.007	46.499	0	1949.60	0	1.9910	0	34.5800	0	27.646	0	1924.534	0	52.9	4	15.9	4	-1E+10	1	-1E+10	1	-1E+10	1	-1E+10	1	-1E+10	1	-1E+10	1
4901784	0	C	07/05/2015	12:48	-129.007	46.499	0	1954.60	0	1.9880	0	34.5810	0	27.647	0	1929.447	0	53.3	4	16.1	4	-1E+10	1	-1E+10	1	-1E+10	1	-1E+10	1	-1E+10	1	-1E+10	1
4901784	0	C	07/05/2015	12:48	-129.007	46.499	0	1959.70	0	1.9830	0	34.5810	0	27.648	0	1934.458	0	53.6	4	16.2	4	-1E+10	1	-1E+10	1	-1E+10	1	-1E+10	1	-1E+10	1	-1E+10	1
4901784	0	C	07/05/2015	12:48	-129.007	46.499	0	1964.70	0	1.9790	0	34.5820	0	27.649	0	1939.371	0	53.9	4	16.3	4	-1E+10	1	-1E+10	1	-1E+10	1	-1E+10	1	-1E+10	1	-1E+10	1
4901784	0	C	07/05/2015	12:48	-129.007	46.499	0	1969.70	0	1.9740	0	34.5830	0	27.650	0	1944.284	0	54.3	4	16.4	4	-1E+10	1	-1E+10	1	-1E+10	1	-1E+10	1	-1E+10	1	-1E+10	1
4901784	0	C	07/05/2015	12:48	-129.007	46.499	0	1974.80	0	1.9690	0	34.5840	0	27.651	0	1949.295	0	54.7	4	16.5	4	-1E+10	1	-1E+10	1	-1E+10	1	-1E+10	1	-1E+10	1	-1E+10	1
4901784	0	C	07/05/2015	12:48	-129.007	46.499	0	1979.80	0	1.9650	0	34.5840	0	27.652	0	1954.208	0	55.0	4	16.6	4	-1E+10	1	-1E+10	1	-1E+10	1	-1E+10	1	-1E+10	1	-1E+10	1
4901784	0	C	07/05/2015	12:48	-129.007	46.499	0	1984.90	0	1.9600	0	34.5850	0	27.653	0	1959.218	0	55.4	4	16.7	4	-1E+10	1	-1E+10	1	-1E+10	1	-1E+10	1	-1E+10	1	-1E+10	1
4901784	0	C	07/05/2015	12:48	-129.007	46.499	0	1989.90	0	1.9570	0	34.5860	0	27.654	0	1964.130	0	55.6	4	16.7	4	-1E+10	1	-1E+10	1	-1E+10	1	-1E+10	1	-1E+10	1	-1E+10	1
4901784	0	C	07/05/2015	12:48	-129.007	46.499	0	1995.20	0	1.9550	0	34.5870	0	27.655	0	1969.337	0	55.9	4	16.8	4	-1E+10	1	-1E+10	1	-1E+10	1	-1E+10	1	-1E+10	1	-1E+10	1
4901784	0	C	07/05/2015	12:48	-129.007	46.499	0	2000.10	0	1.9500	0	34.5870	0	27.655	0	1974.151	0	56.3	4	17.0	4	-1E+10	1	-1E+10	1	-1E+10	1	-1E+10	1	-1E+10	1	-1E+10	1
4901784	0	C	07/05/2015	12:48	-129.007	46.499	0	2005.20	0	1.9450	0	34.5880	0	27.656	0	1979.161	0	56.7	4	17.1	4	-1E+10	1	-1E+10	1	-1E+10	1	-1E+10	1	-1E+10	1	-1E+10	1
4901784	0	C	07/05/2015	12:48	-129.007	46.499	0	2010.70	0	1.9410	0	34.5890	0	27.658	0	1984.564	0	57.0	4	17.2	4	-1E+10	1	-1E+10	1	-1E+10	1	-1E+10	1	-1E+10	1	-1E+10	1
4901784	0	C	07/05/2015	12:48	-129.007	46.499	0	2016.00	0	1.9390	0	34.5900	0	27.659	0	1989.771	0	56.6	4	17.1	4	-1E+10	1	-1E+10	1	-1E+10	1	-1E+10	1	-1E+10	1	-1E+10	1
4901784	0	C	07/05/2015	12:48	-129.007	46.499	0																										
4901784	1	C	07/15/2015	10:50	-128.943	46.504	0	3.00	0	18.0300	0	31.9850	0	22.958	0	2.975	0	235.8	4	98.8	4	-1E+10	1	-1E+10	1	-1E+10	1	-1E+10	1	-1E+10	1	-1E+10	1
4901784	1	C	07/15/2015	10:50	-128.943	46.504	0	4.60	0	17.6320	0	32.0290	0	23.088	0	4.562	0	236.4	4	98.3	4	-1E+10	1	-1E+10	1	-1E+10	1	-1E+10	1	-1E+10	1	-1E+10	1
4901784	1	C	07/15/2015	10:50	-128.943	46.504	0	6.30	0	17.0250	0	32.0830	0	23.272	0	6.248	0	239.9	4	98.7	4	-1E+10	1	-1E+10	1	-1E+10	1	-1E+10	1	-1E+10	1	-1E+10	1
4901784	1	C	07/15/2015	10:50	-128.943	46.504	0	8.00	0	16.8950	0	32.0860	0	23.305	0	7.934	0	240.7	4	98.8	4	-1E+10	1	-1E+10	1	-1E+10	1	-1E+10	1	-1E+10	1	-1E+10	1
4901784	1	C	07/15/2015	10:50	-128.943	46.504	0	9.70	0	16.8470	0	32.0860	0	23.316	0	9.620	0	241.0	4	98.8	4	-1E+10	1	-1E+10	1	-1E+10	1	-1E+10	1	-1E+10	1	-1E+10	1
4901784	1	C	07/15/2015	10:50	-128.943	46.504	0	11.60	0	16.7090	0	32.1030	0	23.361	0	11.504	0	241.7	4	98.8	4	-1E+10	1	-1E+10	1	-1E+10	1	-1E+10	1	-1E+10	1	-1E+10	1
4901784	1	C	07/15/2015	10:50	-128.943	46.504	0	13.50	0	16.6130	0	32.1250	0	23.400	0	13.388	0	241.9	4	98.8	4	-1E+10	1	-1E+10	1	-1E+10	1	-1E+10	1	-1E+10	1	-1E+10	1
4901784	1	C	07/15/2015	10:50	-128.943	46.504	0	15.30	0	16.5520	0	32.1260	0	23.415	0	15.173	0	242.2	4	98.8	4	-1E+10	1	-1E+10	1	-1E+10	1	-1E+10	1	-1E+10	1	-1E+10	1
4901784	1	C	07/15/2015	10:50	-128.943	46.504	0	17.50	0	16.5130	0	32.1250	0	23.423	0	17.355	0	242.0	4	98.6	4	-1E+10	1	-1E+10	1	-1E+10	1	-1E+10	1	-1E+10	1	-1E+10	1
4901784	1	C	07/15/2015	10:50	-128.943	46.504	0	18.00	0	16.5080	0	32.1250	0	23.424	0	17.851	0	242.1	4	98.7	4	-1E+10	1	-1E+10	1	-1E+10	1	-1E+10	1	-1E+10	1	-1E+10	1
4901784	1	C	07/15/2015	10:50	-128.943	46.504	0	19.60	0	16.4830	0	32.1300	0	23.434	0	19.437	0	242.1	4	98.6	4	-1E+10	1	-1E+10	1	-1E+10	1	-1E+10	1	-1E+10	1	-1E+10	1
4901784	1	C	07/15/2015	10:50	-128.943	46.504	0	21.10	0	16.4530	0	32.1370	0	23.446	0	20.925	0	242.3	4	98.6	4	-1E+10	1	-1E+10	1	-1E+10	1	-1E+10	1	-1E+10	1	-1E+10	1
4901784	1	C	07/15/2015	10:50	-128.943	46.504	0	22.60	0	16.4570	0	32.1400	0	23.447	0	22.412	0	242.3	4	98.6	4	-1E+10	1	-1E+10	1	-1E+10	1	-1E+10	1	-1E+10	1	-1E+10	1
4901784	1	C	07/15/2015	10:50	-128.943	46.504	0	24.00	0	16.4460	0	32.1390	0	23.449	0	23.800	0	242.7	4	98.8	4	-1E+10	1	-1E+10	1	-1E+10	1	-1E+10	1	-1E+10	1	-1E+10	1
4901784	1	C	07/15/2015	10:50	-128.943	46.504	0	25.50	0	16.4020	0	32.1270	0	23.450	0	25.288	0	243.2	4	98.9	4	-1E+10	1	-1E+10	1	-1E+10	1	-1E+10	1	-1E+10	1	-1E+10	1
4901784	1	C	07/15/2015	10:50	-128.943	46.504	0	26.90	0	16.2410	0	32.1190	0	23.480	0	26.676	0	244.5	4	99.1	4	-1E+10	1	-1E+10	1	-1E+10	1	-1E+10	1	-1E+10	1	-1E+10	1
4901784	1	C	07/15/2015	10:50	-128.943	46.504	0	28.50	0	15.9760	0	32.1290	0	23.548	0	28.263	0	246.6	4	99.5	4	-1E+10	1	-1E+10	1	-1E+10	1	-1E+10	1	-1E+10	1	-1E+10	1
4901784	1	C	07/15/2015	10:50	-128.943	46.504	0	30.00	0	15.7940	0	32.1330	0	23.591	0	29.750	0	248.1	4	99.7	4	-1E+10	1	-1E+10	1	-1E+10	1	-1E+10	1	-1E+10	1	-1E+10	1
4901784	1	C	07/15/2015	10:50	-128.943	46.504	0	31.60	0	15.2360	0	32.1160	0	23.700	0	31.337	0	250.9	4	99.7	4	-1E+10	1	-1E+10	1	-1E+10	1	-1E+10	1	-1E+10	1	-1E+10	1
4901784	1	C	07/15/2015	10:50	-128.943	46.504	0	33.10	0	14.8760	0	32.0930	0	23.760	0	32.824	0	254.7	4	100.5	4	-1E+10	1	-1E+10	1	-1E+10	1	-1E+10	1	-1E+10	1	-1E+10	1
4901784	1	C	07/15/2015	10:50	-128.943	46.504	0	34.70	0	14.6060	0	32.0790	0	23.807	0	34.411	0	256.1	4	100.5	4	-1E+10	1	-1E+10	1	-1E+10	1	-1E+10	1	-1E+10	1	-1E+10	1
4901784	1	C	07/15/2015	10:50	-128.943	46.504	0	36.50	0	14.1150	0	32.0470	0	23.884	0	36.195	0	259.3	4	100.7	4	-1E+10	1	-1E+10	1	-1E+10	1	-1E+10	1	-1E+10	1	-1E+10	1
4901784	1	C	07/15/2015	10:50	-128.943	46.504	0	36.90	0	13.9950	0	32.0310	0	23.896	0	36.592	0	260.0	4	100.8	4	-1E+10	1	-1E+10	1	-1E+10	1	-1E+10	1	-1E+10	1	-1E+10	1
4901784	1	C	07/15/2015	10:50	-128.943	46.504	0	38.20	0	13.7280	0	32.0400	0	23.958	0	37.881	0	262.2	4	101.1	4	-1E+10	1	-1E+10	1	-1E+10	1	-1E+10	1	-1E+10	1	-1E+10	1
4901784	1	C	07/15/2015	10:50	-128.943	46.504	0	39.60	0	13.4370	0	32.0740	0	24.043	0	39.269	0	263.9	4	101.1	4	-1E+10	1	-1E+10	1	-1E+10	1	-1E+10	1	-1E+10	1	-1E+10	1
4901784	1	C	07/15/2015	10:50	-128.943	46.504	0	41.00	0	13.2100	0	32.1320	0	24.132	0	40.658	0	265.1	4	101.2	4	-1E+10	1	-1E+10	1	-1E+10	1	-1E+10	1	-1E+10	1	-1E+10	1
4901784	1	C	07/15/2015	10:50	-128.943	46.504	0	42.60	0	13.0720	0	32.1570	0	24.179	0	42.244	0	266.4	4	101.4	4	-1E+10	1	-1E+10	1	-1E+10	1	-1E+10	1	-1E+10	1	-1E+10	1
4901784	1	C	07/15/2015	10:50	-128.943	46.504	0	44.20	0	12.9030	0	32.1960	0	24.242	0	43.830	0	267.5	4	101.5	4	-1E+10	1	-1E+10	1	-1E+10	1	-1E+10	1	-1E+10	1	-1E+10	1
4901784	1	C	07/15/2015	10:50	-128.943	46.504	0	45.80	0	12.7880	0	32.2290	0	24.290	0	45.417	0	268.3	4	101.6	4	-1E+10	1	-1E+10	1	-1E+10	1	-1E+10	1	-1E+10	1	-1E+10	1
4901784	1	C	07/15/2015	10:50	-128.943	46.504	0	47.50	0	12.5710	0	32.2360	0	24.337	0	47.102	0	270.2	4	101.9	4	-1E+10	1	-1E+10	1	-1E+10	1	-1E+10	1	-1E+10	1	-1E+10	1
4901784	1	C	07/15/2015	10:50	-128.943	46.504	0	49.20	0	12.5160	0	32.2440	0	24.354	0	48.788	0	270.6	4	101.9	4	-1E+10	1	-1E+10	1	-1E+10	1	-1E+10	1	-1E+10	1	-1E+10	1
4901784	1	C	07/15/2015	10:50	-128.943	46.504	0	50.80	0	12.3910	0	32.2650	0	24.394	0	50.374	0	271.7	4	102.1	4	-1E+10	1	-1E+10	1	-1E+10	1	-1E+10	1	-1E+10	1	-1E+10	1
4901784	1	C	07/15/2015	10:50	-128.943	46.504	0	52.50	0	12.2730	0	32.2860	0	24.433	0	52.060	0	272.4	4	102.1	4	-1E+10	1	-1E+10	1	-1E+10	1	-1E+10	1	-1E+10	1	-1E+10	1
4901784	1	C	07/15/2015	10:50	-128.943	46.504	0	54.10	0	12.2750	0	32.3020	0	24.445	0	53.646	0	272.2	4	102.0	4	-1E+10	1	-1E+10	1	-1E+10	1	-1E+10	1	-1E+10	1	-1E+10	1
4901784	1	C	07/15/2015	10:50	-128.943	46.504	0	55.90	0	12.0690	0	32.3220	0	24.499	0	55.431	0	272.7	4	101.8	4	-1E+10	1	-1E+10	1	-1E+10	1	-1E+10	1	-1E+10	1	-1E+10	1
4901784	1	C	07/15/2015	10:50	-128.943	46.504	0	57.70	0	11.8960	0	32.3130	0	24.524	0	57.216	0	273.6	4	101.8	4	-1E+10	1	-1E+10	1	-1E+10	1	-1E+10	1	-1E+10	1	-1E+10	1
4901784	1	C	07/15/2015	10:50	-128.943	46.504	0	59.50	0	11.8100	0	32.3330	0	24.555	0	59.000	0	273.8	4	101.7	4	-1E+10	1	-1E+10	1	-1E+10	1	-1E+10	1	-1E+10	1	-1E+10	1
4901784	1	C	07/15/2015	10:50	-128.943	46.504	0	61.40	0	11.7020	0	32.3400	0	24.581	0	60.884	0	274.3	4	101.6	4	-1E+10	1	-1E+10	1	-1E+10	1	-1E+10	1	-1E+10	1	-1E+10	1
4901784	1	C	07/15/2015	10:50	-128.943	46.504	0	63.20	0	11.7460	0	32.3800	0	24.604	0	62.669	0	273.9	4	101.6	4	-1E+10	1	-1E+10	1	-1E+10	1	-1E+10	1	-1E+10	1	-1E+10	1
4901784	1	C	07/15/2015	10:50	-128.943	46.504	0	65.10	0	11.8620	0	32.4560	0	24.641	0	64.552	0	271.9	4	101.2	4	-1E+10	1	-1E+10	1	-1E+10	1	-1E+10	1	-1E+10	1	-1E+10	1
4901784	1	C	07/15/2015	10:50	-128.943	46.504	0	67.00	0	11.8380	0	32.4820	0	24.666	0	66.436	0	271.5	4	101.0	4	-1E+10	1	-1E+10	1	-1E+10	1	-1E+10	1	-1E+10	1	-1E+10	1
4901784	1	C	07/15/2015	10:50	-128.943	46.504	0	68.90	0	11.7790	0	32.4950	0	24.687	0	68.320	0	271.2	4	100.8	4	-1E+10	1	-1E+10	1	-1E+10	1	-1E+10	1	-1E+10	1	-1E+10	1
4901784	1	C	07/15/2015	10:50	-128.943	46.504	0	70.80	0	11.8730	0	32.5220	0	24.691	0	70.204	0	268.7	4	100.0	4	-1E+10	1	-1E+10	1	-1E+10	1	-1E+10	1	-1E+10	1	-1E+10	1
4901784	1	C	07/15/2015	10:50	-128.943	46.504	0	72.80	0	11.7910	0	32.5230	0	24.707	0	72.186	0	266.3	4	99.0	4	-1E+10	1	-1E+10	1	-1E+10	1	-1E+10	1	-1E+10	1	-1E+10	1
4901784	1	C	07/15/2015	10:50	-128.943	46.504	0	74.80	0	11.5500	0	32.4910	0	24.726	0	74.169	0	264.0	4	97.6	4	-1E+10	1	-1E+10	1	-1E+10	1	-1E+10	1	-1E+10	1	-1E+10	1
4901784	1	C	07/15/2015	10:50	-128.943	46.504	0	76.80	0	11.4750	0	32.4960	0	24.744	0	76.152	0	259.1	4	95.6	4	-1E+10	1	-1E+10	1	-1E+10	1	-1E+10	1	-1E+10	1	-1E+10	1
4901784	1	C	07/15/2015	10:50	-128.943	46.504	0	78.70	0	11.3430	0	32.4940	0	24.766	0	78.035	0	252.4	4	92.9	4	-1E+10	1	-1E+10	1	-1E+10	1	-1E+10	1	-1E+10	1	-1E+10	1
4901784	1	C	07/15/2015	10:50	-128.943	46.504	0	80.60	0	11.1870	0	32.5210	0	24.815	0	79.919	0	243.2	4	89.2	4	-1E+10	1	-1E+10	1	-1E+10	1	-1E+10	1	-1E+10	1	-1E+10	1
4901784	1	C	07/15/2015	10:50	-128.943	46.504	0	82.50	0	10.7060	0	32.4830	0	24.870	0	81.803	0	239.2	4	86.9	4	-1E+10	1	-1E+10	1	-1E+10	1	-1E+10	1	-1E+10	1	-1E+10	1
4901784	1	C	07/15/2015	10:50	-128.943	46.504	0	84.40	0	10.6370	0	32.5120	0	24.904	0	83.686	0	234.8	4	85.1	4	-1E+10	1	-1E+10	1	-1E+10	1	-1E+10	1	-1E+10	1	-1E+10	1
4901784	1	C	07/15/2015	10:50	-128.943	46.504	0	86.30	0	10.5280	0	32.5200	0	24.929	0	85.570	0	231.4	4	83.7	4	-1E+10	1	-1E+10	1	-1E+10	1	-1E+10	1	-1E+10	1	-1E+10	1
4901784	1	C	07/15/2015	10:50	-128.943	46.504	0	88.10	0	10.2640	0	32.5950	0	25.032	0	87.354	0	229.0	4	82.4	4	-1E+10	1	-1E+10	1	-1E+10	1	-1E+10	1	-1E+10	1	-1E+10	1
4901784	1	C	07/15/2015	10:50	-128.943	46.504	0	90.30	0	10.1590	0	32.6090	0	25.061	0	89.535	0	226.8	4	81.5	4	-1E+10	1	-1E+10	1	-1E+10	1	-1E+10	1	-1E+10	1	-1E+10	1
4901784	1	C	07/15/2015	10:50	-128.943	46.504	0	90.90	0	10.1430	0	32.6120	0	25.066	0	90.130	0	225.8	4	81.1	4	-1E+10	1	-1E+10	1	-1E+10	1	-1E+10	1	-1E+10	1	-1E+10	1
4901784	1	C	07/15/2015	10:50	-128.943	46.504	0	92.60	0	10.0210	0	32.6270	0	25.098	0	91.815	0	223.6	4	80.1	4	-1E+10	1	-1E+10	1	-1E+10	1	-1E+10	1	-1E+10	1	-1E+10	1
4901784	1	C	07/15/2015	10:50	-128.943	46.504	0	94.20	0	9.8570	0	32.6640	0	25.154	0	93.401	0	221.8	4	79.2	4	-1E+10	1	-1E+10	1	-1E+10	1	-1E+10	1	-1E+10	1	-1E+10	1
4901784	1	C	07/15/2015	10:50	-128.943	46.504	0	95.90	0	9.7030	0	32.6800	0	25.192	0	95.086	0	221.0	4	78.7	4	-1E+10	1	-1E+10	1	-1E+10	1	-1E+10	1	-1E+10	1	-1E+10	1
4901784	1	C	07/15/2015	10:50	-128.943	46.504	0	97.60	0	9.6340	0	32.6920	0	25.212	0	96.771	0	220.3	4	78.3	4	-1E+10	1	-1E+10	1	-1E+10	1	-1E+10	1	-1E+10	1	-1E+10	1
4901784	1	C	07/15/2015	10:50	-128.943	46.504	0	99.20	0	9.5920	0	32.6940	0	25.221	0	98.357	0	219.0	4	77.8	4	-1E+10	1	-1E+10	1	-1E+10	1	-1E+10	1	-1E+10	1	-1E+10	1
4901784	1	C	07/15/2015	10:50	-128.943	46.504	0	102.50	0	9.2840	0	32.7590	0	25.321	0	101.629	0	219.0	4	77.3	4	-1E+10	1	-1E+10	1	-1E+10	1	-1E+10	1	-1E+10	1	-1E+10	1
4901784	1	C	07/15/2015	10:50	-128.943	46.504	0	105.00	0	9.1870	0	32.7740	0	25.348	0	104.107	0	218.0	4	76.7	4	-1E+10	1	-1E+10	1	-1E+10	1	-1E+10	1	-1E+10	1	-1E+10	1
4901784	1	C	07/15/2015	10:50	-128.943	46.504	0	107.50	0	8.9780	0	32.8390	0	25.432	0	106.585	0	217.7	4	76.3	4	-1E+10	1	-1E+10	1	-1E+10	1	-1E+10	1	-1E+10	1	-1E+10	1
4901784	1	C	07/15/2015	10:50	-128.943	46.504	0	110.10	0	8.9210	0	32.8890	0	25.480	0	109.162	0	215.1	4	75.4	4	-1E+10	1	-1E+10	1	-1E+10	1	-1E+10	1	-1E+10	1	-1E+10	1
4901784	1	C	07/15/2015	10:50	-128.943	46.504	0	112.30	0	8.7230	0	32.9150	0	25.531	0	111.343	0	213.6	4	74.5	4	-1E+10	1	-1E+10	1	-1E+10	1	-1E+10	1	-1E+10	1	-1E+10	1
4901784	1	C	07/15/2015	10:50	-128.943	46.504	0	115.20	0	8.5030	0	32.9730	0	25.610	0	114.217	0	211.5	4	73.4	4	-1E+10	1	-1E+10	1	-1E+10	1	-1E+10	1	-1E+10	1	-1E+10	1
4901784	1	C	07/15/2015	10:50	-128.943	46.504	0	117.60	0	8.1680	0	33.0060	0	25.685	0	116.596	0	211.1	4	72.8	4	-1E+10	1	-1E+10	1	-1E+10	1	-1E+10	1	-1E+10	1	-1E+10	1
4901784	1	C	07/15/2015	10:50	-128.943	46.504	0	120.00	0	8.1160	0	33.0570	0	25.733	0	118.975	0	209.4	4	72.1	4	-1E+10	1	-1E+10	1	-1E+10	1	-1E+10	1	-1E+10	1	-1E+10	1
4901784	1	C	07/15/2015	10:50	-128.943	46.504	0	122.40	0	8.1580	0	33.1040	0	25.764	0	121.354	0	208.7	4	72.0	4	-1E+10	1	-1E+10	1	-1E+10	1	-1E+10	1	-1E+10	1	-1E+10	1
4901784	1	C	07/15/2015	10:50	-128.943	46.504	0	124.70	0	8.0320	0	33.1200	0	25.795	0	123.633	0	209.5	4	72.1	4	-1E+10	1	-1E+10	1	-1E+10	1	-1E+10	1	-1E+10	1	-1E+10	1
4901784	1	C	07/15/2015	10:50	-128.943	46.504	0	127.90	0	7.8900	0	33.1620	0	25.849	0	126.805	0	208.8	4	71.6	4	-1E+10	1	-1E+10	1	-1E+10	1	-1E+10	1	-1E+10	1	-1E+10	1
4901784	1	C	07/15/2015	10:50	-128.943	46.504	0	130.40	0	7.8360	0	33.2150	0	25.898	0	129.283	0	207.4	4	71.1	4	-1E+10	1	-1E+10	1	-1E+10	1	-1E+10	1	-1E+10	1	-1E+10	1
4901784	1	C	07/15/2015	10:50	-128.943	46.504	0	132.10	0	7.8050	0	33.2460	0	25.927	0	130.968	0	205.7	4	70.5	4	-1E+10	1	-1E+10	1	-1E+10	1	-1E+10	1	-1E+10	1	-1E+10	1
4901784	1	C	07/15/2015	10:50	-128.943	46.504	0	134.80	0	7.7880	0	33.2890	0	25.963	0	133.644	0	204.6	4	70.1	4	-1E+10	1	-1E+10	1	-1E+10	1	-1E+10	1	-1E+10	1	-1E+10	1
4901784	1	C	07/15/2015	10:50	-128.943	46.504	0	137.60	0	7.7950	0	33.3760	0	26.031	0	136.419	0	201.2	4	69.0	4	-1E+10	1	-1E+10	1	-1E+10	1	-1E+10	1	-1E+10	1	-1E+10	1
4901784	1	C	07/15/2015	10:50	-128.943	46.504	0	139.50	0	7.7510	0	33.3750	0	26.036	0	138.302	0	198.0	4	67.8	4	-1E+10	1	-1E+10	1	-1E+10	1	-1E+10	1	-1E+10	1	-1E+10	1
4901784	1	C	07/15/2015	10:50	-128.943	46.504	0	142.50	0	7.7600	0	33.4380	0	26.084	0	141.275	0	193.5	4	66.3	4	-1E+10	1	-1E+10	1	-1E+10	1	-1E+10	1	-1E+10	1	-1E+10	1
4901784	1	C	07/15/2015	10:50	-128.943	46.504	0	145.30	0	7.7650	0	33.4660	0	26.106	0	144.050	0	191.1	4	65.5	4	-1E+10	1	-1E+10	1	-1E+10	1	-1E+10	1	-1E+10	1	-1E+10	1
4901784	1	C	07/15/2015	10:50	-128.943	46.504	0	147.70	0	7.7370	0	33.4760	0	26.118	0	146.428	0	194.2	4	66.5	4	-1E+10	1	-1E+10	1	-1E+10	1	-1E+10	1	-1E+10	1	-1E+10	1
4901784	1	C	07/15/2015	10:50	-128.943	46.504	0	150.10	0	7.6990	0	33.4850	0	26.130	0	148.807	0	195.4	4	66.9	4	-1E+10	1	-1E+10	1	-1E+10	1	-1E+10	1	-1E+10	1	-1E+10	1
4901784	1	C	07/15/2015	10:50	-128.943	46.504	0	152.50	0	7.7090	0	33.5320	0	26.166	0	151.185	0	194.4	4	66.6	4	-1E+10	1	-1E+10	1	-1E+10	1	-1E+10	1	-1E+10	1	-1E+10	1
4901784	1	C	07/15/2015	10:50	-128.943	46.504	0	154.90	0	7.6890	0	33.5630	0	26.193	0	153.564	0	195.2	4	66.8	4	-1E+10	1	-1E+10	1	-1E+10	1	-1E+10	1	-1E+10	1	-1E+10	1
4901784	1	C	07/15/2015	10:50	-128.943	46.504	0	157.40	0	7.6910	0	33.5820	0	26.208	0	156.041	0	194.4	4	66.6	4	-1E+10	1	-1E+10	1	-1E+10	1	-1E+10	1	-1E+10	1	-1E+10	1
4901784	1	C	07/15/2015	10:50	-128.943	46.504	0	159.90	0	7.6900	0	33.5870	0	26.212	0	158.519	0	193.6	4	66.3	4	-1E+10	1	-1E+10	1	-1E+10	1	-1E+10	1	-1E+10	1	-1E+10	1
4901784	1	C	07/15/2015	10:50	-128.943	46.504	0	162.40	0	7.6920	0	33.5960	0	26.219	0	160.996	0	192.7	4	66.0	4	-1E+10	1	-1E+10	1	-1E+10	1	-1E+10	1	-1E+10	1	-1E+10	1
4901784	1	C	07/15/2015	10:50	-128.943	46.504	0	164.90	0	7.6880	0	33.6100	0	26.230	0	163.473	0	191.2	4	65.5	4	-1E+10	1	-1E+10	1	-1E+10	1	-1E+10	1	-1E+10	1	-1E+10	1
4901784	1	C	07/15/2015	10:50	-128.943	46.504	0	167.40	0	7.6880	0	33.6330	0	26.248	0	165.951	0	189.3	4	64.9	4	-1E+10	1	-1E+10	1	-1E+10	1	-1E+10	1	-1E+10	1	-1E+10	1
4901784	1	C	07/15/2015	10:50	-128.943	46.504	0	169.90	0	7.6910	0	33.6660	0	26.274	0	168.428	0	187.0	4	64.1	4	-1E+10	1	-1E+10	1	-1E+10	1	-1E+10	1	-1E+10	1	-1E+10	1
4901784	1	C	07/15/2015	10:50	-128.943	46.504	0	172.40	0	7.6730	0	33.6750	0	26.283	0	170.905	0	184.1	4	63.1	4	-1E+10	1	-1E+10	1	-1E+10	1	-1E+10	1	-1E+10	1	-1E+10	1
4901784	1	C	07/15/2015	10:50	-128.943	46.504	0	174.90	0	7.6280	0	33.6890	0	26.301	0	173.383	0	180.6	4	61.8	4	-1E+10	1	-1E+10	1	-1E+10	1	-1E+10	1	-1E+10	1	-1E+10	1
4901784	1	C	07/15/2015	10:50	-128.943	46.504	0	177.50	0	7.6350	0	33.7110	0	26.317	0	175.959	0	176.1	4	60.3	4	-1E+10	1	-1E+10	1	-1E+10	1	-1E+10	1	-1E+10	1	-1E+10	1
4901784	1	C	07/15/2015	10:50	-128.943	46.504	0	180.10	0	7.5850	0	33.7180	0	26.330	0	178.535	0	170.1	4	58.2	4	-1E+10	1	-1E+10	1	-1E+10	1	-1E+10	1	-1E+10	1	-1E+10	1
4901784	1	C	07/15/2015	10:50	-128.943	46.504	0	182.80	0	7.5970	0	33.7430	0	26.348	0	181.211	0	160.3	4	54.9	4	-1E+10	1	-1E+10	1	-1E+10	1	-1E+10	1	-1E+10	1	-1E+10	1
4901784	1	C	07/15/2015	10:50	-128.943	46.504	0	185.50	0	7.5940	0	33.7600	0	26.362	0	183.886	0	149.6	4	51.2	4	-1E+10	1	-1E+10	1	-1E+10	1	-1E+10	1	-1E+10	1	-1E+10	1
4901784	1	C	07/15/2015	10:50	-128.943	46.504	0	187.40	0	7.5840	0	33.7730	0	26.373	0	185.769	0	145.5	4	49.8	4	-1E+10	1	-1E+10	1	-1E+10	1	-1E+10	1	-1E+10	1	-1E+10	1
4901784	1	C	07/15/2015	10:50	-128.943	46.504	0	190.20	0	7.5500	0	33.7840	0	26.387	0	188.543	0	148.8	4	50.9	4	-1E+10	1	-1E+10	1	-1E+10	1	-1E+10	1	-1E+10	1	-1E+10	1
4901784	1	C	07/15/2015	10:50	-128.943	46.504	0	193.00	0	7.5250	0	33.8010	0	26.404	0	191.317	0	159.5	4	54.5	4	-1E+10	1	-1E+10	1	-1E+10	1	-1E+10	1	-1E+10	1	-1E+10	1
4901784	1	C	07/15/2015	10:50	-128.943	46.504	0	194.80	0	7.4730	0	33.8000	0	26.411	0	193.101	0	166.1	4	56.7	4	-1E+10	1	-1E+10	1	-1E+10	1	-1E+10	1	-1E+10	1	-1E+10	1
4901784	1	C	07/15/2015	10:50	-128.943	46.504	0	197.70	0	7.4350	0	33.8130	0	26.426	0	195.974	0	163.6	4	55.8	4	-1E+10	1	-1E+10	1	-1E+10	1	-1E+10	1	-1E+10	1	-1E+10	1
4901784	1	C	07/15/2015	10:50	-128.943	46.504	0	200.50	0	7.4000	0	33.8210	0	26.437	0	198.748	0	163.0	4	55.6	4	-1E+10	1	-1E+10	1	-1E+10	1	-1E+10	1	-1E+10	1	-1E+10	1
4901784	1	C	07/15/2015	10:50	-128.943	46.504	0	202.50	0	7.3970	0	33.8220	0	26.439	0	200.730	0	162.9	4	55.5	4	-1E+10	1	-1E+10	1	-1E+10	1	-1E+10	1	-1E+10	1	-1E+10	1
4901784	1	C	07/15/2015	10:50	-128.943	46.504	0	204.90	0	7.3790	0	33.8260	0	26.444	0	203.108	0	166.0	4	56.6	4	-1E+10	1	-1E+10	1	-1E+10	1	-1E+10	1	-1E+10	1	-1E+10	1
4901784	1	C	07/15/2015	10:50	-128.943	46.504	0	207.60	0	7.2980	0	33.8310	0	26.460	0	205.783	0	168.9	4	57.4	4	-1E+10	1	-1E+10	1	-1E+10	1	-1E+10	1	-1E+10	1	-1E+10	1
4901784	1	C	07/15/2015	10:50	-128.943	46.504	0	210.00	0	7.2710	0	33.8330	0	26.465	0	208.161	0	168.5	4	57.3	4	-1E+10	1	-1E+10	1	-1E+10	1	-1E+10	1	-1E+10	1	-1E+10	1
4901784	1	C	07/15/2015	10:50	-128.943	46.504	0	212.40	0	7.2420	0	33.8330	0	26.469	0	210.538	0	167.3	4	56.8	4	-1E+10	1	-1E+10	1	-1E+10	1	-1E+10	1	-1E+10	1	-1E+10	1
4901784	1	C	07/15/2015	10:50	-128.943	46.504	0	214.70	0	7.2090	0	33.8360	0	26.476	0	212.817	0	165.9	4	56.3	4	-1E+10	1	-1E+10	1	-1E+10	1	-1E+10	1	-1E+10	1	-1E+10	1
4901784	1	C	07/15/2015	10:50	-128.943	46.504	0	217.10	0	7.1890	0	33.8360	0	26.479	0	215.195	0	164.2	4	55.7	4	-1E+10	1	-1E+10	1	-1E+10	1	-1E+10	1	-1E+10	1	-1E+10	1
4901784	1	C	07/15/2015	10:50	-128.943	46.504	0	220.30	0	7.1170	0	33.8390	0	26.491	0	218.365	0	161.3	4	54.6	4	-1E+10	1	-1E+10	1	-1E+10	1	-1E+10	1	-1E+10	1	-1E+10	1
4901784	1	C	07/15/2015	10:50	-128.943	46.504	0	222.70	0	7.0850	0	33.8390	0	26.496	0	220.743	0	159.3	4	53.9	4	-1E+10	1	-1E+10	1	-1E+10	1	-1E+10	1	-1E+10	1	-1E+10	1
4901784	1	C	07/15/2015	10:50	-128.943	46.504	0	225.10	0	7.0500	0	33.8370	0	26.499	0	223.120	0	157.5	4	53.3	4	-1E+10	1	-1E+10	1	-1E+10	1	-1E+10	1	-1E+10	1	-1E+10	1
4901784	1	C	07/15/2015	10:50	-128.943	46.504	0	227.50	0	7.0130	0	33.8390	0	26.506	0	225.498	0	155.6	4	52.6	4	-1E+10	1	-1E+10	1	-1E+10	1	-1E+10	1	-1E+10	1	-1E+10	1
4901784	1	C	07/15/2015	10:50	-128.943	46.504	0	230.00	0	6.9880	0	33.8400	0	26.510	0	227.974	0	153.8	4	52.0	4	-1E+10	1	-1E+10	1	-1E+10	1	-1E+10	1	-1E+10	1	-1E+10	1
4901784	1	C	07/15/2015	10:50	-128.943	46.504	0	232.50	0	6.9620	0	33.8410	0	26.514	0	230.451	0	151.8	4	51.2	4	-1E+10	1	-1E+10	1	-1E+10	1	-1E+10	1	-1E+10	1	-1E+10	1
4901784	1	C	07/15/2015	10:50	-128.943	46.504	0	234.90	0	6.8930	0	33.8490	0	26.530	0	232.828	0	150.1	4	50.6	4	-1E+10	1	-1E+10	1	-1E+10	1	-1E+10	1	-1E+10	1	-1E+10	1
4901784	1	C	07/15/2015	10:50	-128.943	46.504	0	237.40	0	6.8580	0	33.8500	0	26.535	0	235.305	0	149.5	4	50.3	4	-1E+10	1	-1E+10	1	-1E+10	1	-1E+10	1	-1E+10	1	-1E+10	1
4901784	1	C	07/15/2015	10:50	-128.943	46.504	0	239.80	0	6.8370	0	33.8520	0	26.540	0	237.682	0	148.5	4	50.0	4	-1E+10	1	-1E+10	1	-1E+10	1	-1E+10	1	-1E+10	1	-1E+10	1
4901784	1	C	07/15/2015	10:50	-128.943	46.504	0	242.30	0	6.8090	0	33.8540	0	26.545	0	240.159	0	146.4	4	49.3	4	-1E+10	1	-1E+10	1	-1E+10	1	-1E+10	1	-1E+10	1	-1E+10	1
4901784	1	C	07/15/2015	10:50	-128.943	46.504	0	244.80	0	6.7810	0	33.8560	0	26.550	0	242.635	0	144.7	4	48.6	4	-1E+10	1	-1E+10	1	-1E+10	1	-1E+10	1	-1E+10	1	-1E+10	1
4901784	1	C	07/15/2015	10:50	-128.943	46.504	0	247.30	0	6.7440	0	33.8580	0	26.557	0	245.112	0	142.7	4	47.9	4	-1E+10	1	-1E+10	1	-1E+10	1	-1E+10	1	-1E+10	1	-1E+10	1
4901784	1	C	07/15/2015	10:50	-128.943	46.504	0	249.80	0	6.6970	0	33.8630	0	26.567	0	247.588	0	139.8	4	46.9	4	-1E+10	1	-1E+10	1	-1E+10	1	-1E+10	1	-1E+10	1	-1E+10	1
4901784	1	C	07/15/2015	10:50	-128.943	46.504	0	252.30	0	6.7310	0	33.8760	0	26.573	0	250.065	0	136.0	4	45.7	4	-1E+10	1	-1E+10	1	-1E+10	1	-1E+10	1	-1E+10	1	-1E+10	1
4901784	1	C	07/15/2015	10:50	-128.943	46.504	0	254.80	0	6.6940	0	33.8750	0	26.577	0	252.541	0	135.4	4	45.4	4	-1E+10	1	-1E+10	1	-1E+10	1	-1E+10	1	-1E+10	1	-1E+10	1
4901784	1	C	07/15/2015	10:50	-128.943	46.504	0	257.30	0	6.6790	0	33.8770	0	26.581	0	255.017	0	132.4	4	44.4	4	-1E+10	1	-1E+10	1	-1E+10	1	-1E+10	1	-1E+10	1	-1E+10	1
4901784	1	C	07/15/2015	10:50	-128.943	46.504	0	259.90	0	6.6800	0	33.8810	0	26.584	0	257.592	0	129.7	4	43.5	4	-1E+10	1	-1E+10	1	-1E+10	1	-1E+10	1	-1E+10	1	-1E+10	1
4901784	1	C	07/15/2015	10:50	-128.943	46.504	0	262.40	0	6.6850	0	33.8810	0	26.583	0	260.069	0	126.4	4	42.4	4	-1E+10	1	-1E+10	1	-1E+10	1	-1E+10	1	-1E+10	1	-1E+10	1
4901784	1	C	07/15/2015	10:50	-128.943	46.504	0	264.90	0	6.6890	0	33.8880	0	26.588	0	262.545	0	123.8	4	41.5	4	-1E+10	1	-1E+10	1	-1E+10	1	-1E+10	1	-1E+10	1	-1E+10	1
4901784	1	C	07/15/2015	10:50	-128.943	46.504	0	267.40	0	6.6230	0	33.8840	0	26.594	0	265.021	0	122.0	4	40.9	4	-1E+10	1	-1E+10	1	-1E+10	1	-1E+10	1	-1E+10	1	-1E+10	1
4901784	1	C	07/15/2015	10:50	-128.943	46.504	0	270.00	0	6.6280	0	33.8910	0	26.599	0	267.596	0	118.5	4	39.7	4	-1E+10	1	-1E+10	1	-1E+10	1	-1E+10	1	-1E+10	1	-1E+10	1
4901784	1	C	07/15/2015	10:50	-128.943	46.504	0	272.50	0	6.6260	0	33.8930	0	26.601	0	270.072	0	114.0	4	38.2	4	-1E+10	1	-1E+10	1	-1E+10	1	-1E+10	1	-1E+10	1	-1E+10	1
4901784	1	C	07/15/2015	10:50	-128.943	46.504	0	275.10	0	6.6470	0	33.9010	0	26.604	0	272.647	0	110.6	4	37.1	4	-1E+10	1	-1E+10	1	-1E+10	1	-1E+10	1	-1E+10	1	-1E+10	1
4901784	1	C	07/15/2015	10:50	-128.943	46.504	0	277.50	0	6.6690	0	33.9060	0	26.605	0	275.024	0	108.8	4	36.5	4	-1E+10	1	-1E+10	1	-1E+10	1	-1E+10	1	-1E+10	1	-1E+10	1
4901784	1	C	07/15/2015	10:50	-128.943	46.504	0	280.10	0	6.6330	0	33.9070	0	26.611	0	277.600	0	108.6	4	36.4	4	-1E+10	1	-1E+10	1	-1E+10	1	-1E+10	1	-1E+10	1	-1E+10	1
4901784	1	C	07/15/2015	10:50	-128.943	46.504	0	282.60	0	6.5900	0	33.9000	0	26.611	0	280.076	0	107.6	4	36.0	4	-1E+10	1	-1E+10	1	-1E+10	1	-1E+10	1	-1E+10	1	-1E+10	1
4901784	1	C	07/15/2015	10:50	-128.943	46.504	0	285.20	0	6.5000	0	33.9080	0	26.629	0	282.651	0	105.8	4	35.4	4	-1E+10	1	-1E+10	1	-1E+10	1	-1E+10	1	-1E+10	1	-1E+10	1
4901784	1	C	07/15/2015	10:50	-128.943	46.504	0	287.70	0	6.5400	0	33.9150	0	26.629	0	285.126	0	101.7	4	34.0	4	-1E+10	1	-1E+10	1	-1E+10	1	-1E+10	1	-1E+10	1	-1E+10	1
4901784	1	C	07/15/2015	10:50	-128.943	46.504	0	290.30	0	6.4340	0	33.9160	0	26.644	0	287.701	0	100.5	4	33.5	4	-1E+10	1	-1E+10	1	-1E+10	1	-1E+10	1	-1E+10	1	-1E+10	1
4901784	1	C	07/15/2015	10:50	-128.943	46.504	0	292.90	0	6.4970	0	33.9290	0	26.646	0	290.276	0	99.8	4	33.4	4	-1E+10	1	-1E+10	1	-1E+10	1	-1E+10	1	-1E+10	1	-1E+10	1
4901784	1	C	07/15/2015	10:50	-128.943	46.504	0	294.60	0	6.4810	0	33.9250	0	26.645	0	291.960	0	103.0	4	34.4	4	-1E+10	1	-1E+10	1	-1E+10	1	-1E+10	1	-1E+10	1	-1E+10	1
4901784	1	C	07/15/2015	10:50	-128.943	46.504	0	297.20	0	6.3280	0	33.9130	0	26.655	0	294.535	0	109.1	4	36.3	4	-1E+10	1	-1E+10	1	-1E+10	1	-1E+10	1	-1E+10	1	-1E+10	1
4901784	1	C	07/15/2015	10:50	-128.943	46.504	0	299.70	0	6.1970	0	33.8990	0	26.661	0	297.011	0	111.9	4	37.1	4	-1E+10	1	-1E+10	1	-1E+10	1	-1E+10	1	-1E+10	1	-1E+10	1
4901784	1	C	07/15/2015	10:50	-128.943	46.504	0	302.30	0	6.1510	0	33.8960	0	26.665	0	299.585	0	110.6	4	36.7	4	-1E+10	1	-1E+10	1	-1E+10	1	-1E+10	1	-1E+10	1	-1E+10	1
4901784	1	C	07/15/2015	10:50	-128.943	46.504	0	304.80	0	6.1210	0	33.8930	0	26.666	0	302.061	0	106.8	4	35.4	4	-1E+10	1	-1E+10	1	-1E+10	1	-1E+10	1	-1E+10	1	-1E+10	1
4901784	1	C	07/15/2015	10:50	-128.943	46.504	0	307.40	0	6.2060	0	33.9050	0	26.665	0	304.636	0	101.1	4	33.5	4	-1E+10	1	-1E+10	1	-1E+10	1	-1E+10	1	-1E+10	1	-1E+10	1
4901784	1	C	07/15/2015	10:50	-128.943	46.504	0	310.10	0	6.2550	0	33.9210	0	26.671	0	307.310	0	101.8	4	33.8	4	-1E+10	1	-1E+10	1	-1E+10	1	-1E+10	1	-1E+10	1	-1E+10	1
4901784	1	C	07/15/2015	10:50	-128.943	46.504	0	312.70	0	6.1710	0	33.9150	0	26.677	0	309.884	0	106.2	4	35.2	4	-1E+10	1	-1E+10	1	-1E+10	1	-1E+10	1	-1E+10	1	-1E+10	1
4901784	1	C	07/15/2015	10:50	-128.943	46.504	0	315.40	0	5.9860	0	33.8910	0	26.682	0	312.558	0	109.3	4	36.1	4	-1E+10	1	-1E+10	1	-1E+10	1	-1E+10	1	-1E+10	1	-1E+10	1
4901784	1	C	07/15/2015	10:50	-128.943	46.504	0	317.10	0	5.9180	0	33.8890	0	26.688	0	314.241	0	107.6	4	35.5	4	-1E+10	1	-1E+10	1	-1E+10	1	-1E+10	1	-1E+10	1	-1E+10	1
4901784	1	C	07/15/2015	10:50	-128.943	46.504	0	319.80	0	5.9080	0	33.8940	0	26.694	0	316.915	0	103.8	4	34.2	4	-1E+10	1	-1E+10	1	-1E+10	1	-1E+10	1	-1E+10	1	-1E+10	1
4901784	1	C	07/15/2015	10:50	-128.943	46.504	0	322.50	0	5.9300	0	33.9020	0	26.697	0	319.588	0	100.4	4	33.1	4	-1E+10	1	-1E+10	1	-1E+10	1	-1E+10	1	-1E+10	1	-1E+10	1
4901784	1	C	07/15/2015	10:50	-128.943	46.504	0	325.20	0	5.9270	0	33.9050	0	26.700	0	322.262	0	98.3	4	32.4	4	-1E+10	1	-1E+10	1	-1E+10	1	-1E+10	1	-1E+10	1	-1E+10	1
4901784	1	C	07/15/2015	10:50	-128.943	46.504	0	327.80	0	5.8330	0	33.9010	0	26.709	0	324.836	0	96.4	4	31.7	4	-1E+10	1	-1E+10	1	-1E+10	1	-1E+10	1	-1E+10	1	-1E+10	1
4901784	1	C	07/15/2015	10:50	-128.943	46.504	0	329.60	0	5.8780	0	33.9140	0	26.713	0	326.619	0	93.9	4	30.9	4	-1E+10	1	-1E+10	1	-1E+10	1	-1E+10	1	-1E+10	1	-1E+10	1
4901784	1	C	07/15/2015	10:50	-128.943	46.504	0	332.30	0	5.8200	0	33.9090	0	26.717	0	329.292	0	93.3	4	30.7	4	-1E+10	1	-1E+10	1	-1E+10	1	-1E+10	1	-1E+10	1	-1E+10	1
4901784	1	C	07/15/2015	10:50	-128.943	46.504	0	335.10	0	5.7060	0	33.9010	0	26.724	0	332.065	0	89.8	4	29.5	4	-1E+10	1	-1E+10	1	-1E+10	1	-1E+10	1	-1E+10	1	-1E+10	1
4901784	1	C	07/15/2015	10:50	-128.943	46.504	0	337.70	0	5.7160	0	33.9080	0	26.729	0	334.639	0	80.9	4	26.5	4	-1E+10	1	-1E+10	1	-1E+10	1	-1E+10	1	-1E+10	1	-1E+10	1
4901784	1	C	07/15/2015	10:50	-128.943	46.504	0	340.40	0	5.8210	0	33.9390	0	26.740	0	337.312	0	72.5	4	23.9	4	-1E+10	1	-1E+10	1	-1E+10	1	-1E+10	1	-1E+10	1	-1E+10	1
4901784	1	C	07/15/2015	10:50	-128.943	46.504	0	342.30	0	5.9020	0	33.9590	0	26.746	0	339.193	0	70.2	4	23.2	4	-1E+10	1	-1E+10	1	-1E+10	1	-1E+10	1	-1E+10	1	-1E+10	1
4901784	1	C	07/15/2015	10:50	-128.943	46.504	0	345.10	0	5.8900	0	33.9580	0	26.747	0	341.966	0	69.3	4	22.8	4	-1E+10	1	-1E+10	1	-1E+10	1	-1E+10	1	-1E+10	1	-1E+10	1
4901784	1	C	07/15/2015	10:50	-128.943	46.504	0	347.90	0	5.8580	0	33.9600	0	26.752	0	344.738	0	68.2	4	22.5	4	-1E+10	1	-1E+10	1	-1E+10	1	-1E+10	1	-1E+10	1	-1E+10	1
4901784	1	C	07/15/2015	10:50	-128.943	46.504	0	349.80	0	5.8850	0	33.9660	0	26.754	0	346.619	0	67.3	4	22.2	4	-1E+10	1	-1E+10	1	-1E+10	1	-1E+10	1	-1E+10	1	-1E+10	1
4901784	1	C	07/15/2015	10:50	-128.943	46.504	0	352.60	0	5.8580	0	33.9660	0	26.757	0	349.391	0	67.8	4	22.3	4	-1E+10	1	-1E+10	1	-1E+10	1	-1E+10	1	-1E+10	1	-1E+10	1
4901784	1	C	07/15/2015	10:50	-128.943	46.504	0	355.40	0	5.7980	0	33.9600	0	26.760	0	352.163	0	68.2	4	22.4	4	-1E+10	1	-1E+10	1	-1E+10	1	-1E+10	1	-1E+10	1	-1E+10	1
4901784	1	C	07/15/2015	10:50	-128.943	46.504	0	357.20	0	5.8100	0	33.9640	0	26.762	0	353.945	0	68.1	4	22.4	4	-1E+10	1	-1E+10	1	-1E+10	1	-1E+10	1	-1E+10	1	-1E+10	1
4901784	1	C	07/15/2015	10:50	-128.943	46.504	0	360.10	0	5.7030	0	33.9540	0	26.767	0	356.817	0	69.3	4	22.8	4	-1E+10	1	-1E+10	1	-1E+10	1	-1E+10	1	-1E+10	1	-1E+10	1
4901784	1	C	07/15/2015	10:50	-128.943	46.504	0	362.90	0	5.5820	0	33.9490	0	26.777	0	359.589	0	68.0	4	22.3	4	-1E+10	1	-1E+10	1	-1E+10	1	-1E+10	1	-1E+10	1	-1E+10	1
4901784	1	C	07/15/2015	10:50	-128.943	46.504	0	364.70	0	5.5610	0	33.9450	0	26.777	0	361.371	0	65.1	4	21.3	4	-1E+10	1	-1E+10	1	-1E+10	1	-1E+10	1	-1E+10	1	-1E+10	1
4901784	1	C	07/15/2015	10:50	-128.943	46.504	0	367.60	0	5.6780	0	33.9680	0	26.781	0	364.242	0	62.3	4	20.4	4	-1E+10	1	-1E+10	1	-1E+10	1	-1E+10	1	-1E+10	1	-1E+10	1
4901784	1	C	07/15/2015	10:50	-128.943	46.504	0	370.40	0	5.7050	0	33.9720	0	26.781	0	367.013	0	60.9	4	20.0	4	-1E+10	1	-1E+10	1	-1E+10	1	-1E+10	1	-1E+10	1	-1E+10	1
4901784	1	C	07/15/2015	10:50	-128.943	46.504	0	372.30	0	5.6850	0	33.9770	0	26.787	0	368.894	0	60.7	4	19.9	4	-1E+10	1	-1E+10	1	-1E+10	1	-1E+10	1	-1E+10	1	-1E+10	1
4901784	1	C	07/15/2015	10:50	-128.943	46.504	0	375.10	0	5.6690	0	33.9770	0	26.789	0	371.666	0	60.3	4	19.8	4	-1E+10	1	-1E+10	1	-1E+10	1	-1E+10	1	-1E+10	1	-1E+10	1
4901784	1	C	07/15/2015	10:50	-128.943	46.504	0	377.90	0	5.6720	0	33.9800	0	26.791	0	374.438	0	60.1	4	19.7	4	-1E+10	1	-1E+10	1	-1E+10	1	-1E+10	1	-1E+10	1	-1E+10	1
4901784	1	C	07/15/2015	10:50	-128.943	46.504	0	379.80	0	5.6570	0	33.9780	0	26.792	0	376.319	0	60.2	4	19.8	4	-1E+10	1	-1E+10	1	-1E+10	1	-1E+10	1	-1E+10	1	-1E+10	1
4901784	1	C	07/15/2015	10:50	-128.943	46.504	0	382.60	0	5.5980	0	33.9750	0	26.796	0	379.091	0	60.1	4	19.7	4	-1E+10	1	-1E+10	1	-1E+10	1	-1E+10	1	-1E+10	1	-1E+10	1
4901784	1	C	07/15/2015	10:50	-128.943	46.504	0	385.50	0	5.5880	0	33.9760	0	26.798	0	381.962	0	59.4	4	19.5	4	-1E+10	1	-1E+10	1	-1E+10	1	-1E+10	1	-1E+10	1	-1E+10	1
4901784	1	C	07/15/2015	10:50	-128.943	46.504	0	387.40	0	5.5820	0	33.9770	0	26.800	0	383.842	0	59.1	4	19.3	4	-1E+10	1	-1E+10	1	-1E+10	1	-1E+10	1	-1E+10	1	-1E+10	1
4901784	1	C	07/15/2015	10:50	-128.943	46.504	0	390.20	0	5.5790	0	33.9780	0	26.801	0	386.614	0	58.6	4	19.2	4	-1E+10	1	-1E+10	1	-1E+10	1	-1E+10	1	-1E+10	1	-1E+10	1
4901784	1	C	07/15/2015	10:50	-128.943	46.504	0	393.10	0	5.5410	0	33.9770	0	26.805	0	389.485	0	58.5	4	19.1	4	-1E+10	1	-1E+10	1	-1E+10	1	-1E+10	1	-1E+10	1	-1E+10	1
4901784	1	C	07/15/2015	10:50	-128.943	46.504	0	395.00	0	5.4850	0	33.9740	0	26.809	0	391.365	0	58.1	4	19.0	4	-1E+10	1	-1E+10	1	-1E+10	1	-1E+10	1	-1E+10	1	-1E+10	1
4901784	1	C	07/15/2015	10:50	-128.943	46.504	0	396.90	0	5.5060	0	33.9800	0	26.811	0	393.246	0	57.1	4	18.7	4	-1E+10	1	-1E+10	1	-1E+10	1	-1E+10	1	-1E+10	1	-1E+10	1
4901784	1	C	07/15/2015	10:50	-128.943	46.504	0	399.70	0	5.5020	0	33.9830	0	26.814	0	396.018	0	57.2	4	18.7	4	-1E+10	1	-1E+10	1	-1E+10	1	-1E+10	1	-1E+10	1	-1E+10	1
4901784	1	C	07/15/2015	10:50	-128.943	46.504	0	402.60	0	5.4440	0	33.9860	0	26.824	0	398.888	0	57.5	4	18.8	4	-1E+10	1	-1E+10	1	-1E+10	1	-1E+10	1	-1E+10	1	-1E+10	1
4901784	1	C	07/15/2015	10:50	-128.943	46.504	0	405.00	0	5.4240	0	33.9820	0	26.823	0	401.264	0	58.1	4	18.9	4	-1E+10	1	-1E+10	1	-1E+10	1	-1E+10	1	-1E+10	1	-1E+10	1
4901784	1	C	07/15/2015	10:50	-128.943	46.504	0	407.80	0	5.3960	0	33.9800	0	26.825	0	404.035	0	59.1	4	19.3	4	-1E+10	1	-1E+10	1	-1E+10	1	-1E+10	1	-1E+10	1	-1E+10	1
4901784	1	C	07/15/2015	10:50	-128.943	46.504	0	410.10	0	5.3850	0	33.9760	0	26.823	0	406.312	0	60.2	4	19.6	4	-1E+10	1	-1E+10	1	-1E+10	1	-1E+10	1	-1E+10	1	-1E+10	1
4901784	1	C	07/15/2015	10:50	-128.943	46.504	0	412.50	0	5.3440	0	33.9690	0	26.822	0	408.687	0	61.9	4	20.1	4	-1E+10	1	-1E+10	1	-1E+10	1	-1E+10	1	-1E+10	1	-1E+10	1
4901784	1	C	07/15/2015	10:50	-128.943	46.504	0	414.90	0	5.2140	0	33.9600	0	26.830	0	411.063	0	63.5	4	20.6	4	-1E+10	1	-1E+10	1	-1E+10	1	-1E+10	1	-1E+10	1	-1E+10	1
4901784	1	C	07/15/2015	10:50	-128.943	46.504	0	417.30	0	5.1790	0	33.9570	0	26.832	0	413.438	0	63.9	4	20.7	4	-1E+10	1	-1E+10	1	-1E+10	1	-1E+10	1	-1E+10	1	-1E+10	1
4901784	1	C	07/15/2015	10:50	-128.943	46.504	0	419.70	0	5.1720	0	33.9610	0	26.836	0	415.813	0	64.7	4	21.0	4	-1E+10	1	-1E+10	1	-1E+10	1	-1E+10	1	-1E+10	1	-1E+10	1
4901784	1	C	07/15/2015	10:50	-128.943	46.504	0	422.10	0	5.0350	0	33.9460	0	26.840	0	418.189	0	66.1	4	21.3	4	-1E+10	1	-1E+10	1	-1E+10	1	-1E+10	1	-1E+10	1	-1E+10	1
4901784	1	C	07/15/2015	10:50	-128.943	46.504	0	425.40	0	4.9880	0	33.9440	0	26.843	0	421.455	0	65.2	4	21.0	4	-1E+10	1	-1E+10	1	-1E+10	1	-1E+10	1	-1E+10	1	-1E+10	1
4901784	1	C	07/15/2015	10:50	-128.943	46.504	0	427.80	0	4.9860	0	33.9450	0	26.844	0	423.830	0	64.3	4	20.7	4	-1E+10	1	-1E+10	1	-1E+10	1	-1E+10	1	-1E+10	1	-1E+10	1
4901784	1	C	07/15/2015	10:50	-128.943	46.504	0	430.20	0	4.9690	0	33.9490	0	26.849	0	426.205	0	63.3	4	20.4	4	-1E+10	1	-1E+10	1	-1E+10	1	-1E+10	1	-1E+10	1	-1E+10	1
4901784	1	C	07/15/2015	10:50	-128.943	46.504	0	432.70	0	4.9510	0	33.9520	0	26.854	0	428.680	0	62.7	4	20.2	4	-1E+10	1	-1E+10	1	-1E+10	1	-1E+10	1	-1E+10	1	-1E+10	1
4901784	1	C	07/15/2015	10:50	-128.943	46.504	0	435.10	0	4.9630	0	33.9550	0	26.855	0	431.055	0	61.9	4	20.0	4	-1E+10	1	-1E+10	1	-1E+10	1	-1E+10	1	-1E+10	1	-1E+10	1
4901784	1	C	07/15/2015	10:50	-128.943	46.504	0	437.50	0	4.9770	0	33.9590	0	26.857	0	433.430	0	61.3	4	19.8	4	-1E+10	1	-1E+10	1	-1E+10	1	-1E+10	1	-1E+10	1	-1E+10	1
4901784	1	C	07/15/2015	10:50	-128.943	46.504	0	440.00	0	4.9790	0	33.9610	0	26.858	0	435.904	0	61.4	4	19.8	4	-1E+10	1	-1E+10	1	-1E+10	1	-1E+10	1	-1E+10	1	-1E+10	1
4901784	1	C	07/15/2015	10:50	-128.943	46.504	0	442.50	0	4.9240	0	33.9540	0	26.859	0	438.378	0	61.4	4	19.8	4	-1E+10	1	-1E+10	1	-1E+10	1	-1E+10	1	-1E+10	1	-1E+10	1
4901784	1	C	07/15/2015	10:50	-128.943	46.504	0	445.00	0	4.9180	0	33.9560	0	26.861	0	440.852	0	60.5	4	19.5	4	-1E+10	1	-1E+10	1	-1E+10	1	-1E+10	1	-1E+10	1	-1E+10	1
4901784	1	C	07/15/2015	10:50	-128.943	46.504	0	447.40	0	4.9080	0	33.9590	0	26.864	0	443.227	0	59.7	4	19.2	4	-1E+10	1	-1E+10	1	-1E+10	1	-1E+10	1	-1E+10	1	-1E+10	1
4901784	1	C	07/15/2015	10:50	-128.943	46.504	0	449.80	0	4.8930	0	33.9590	0	26.866	0	445.602	0	58.6	4	18.9	4	-1E+10	1	-1E+10	1	-1E+10	1	-1E+10	1	-1E+10	1	-1E+10	1
4901784	1	C	07/15/2015	10:50	-128.943	46.504	0	452.20	0	4.8800	0	33.9610	0	26.869	0	447.977	0	57.1	4	18.4	4	-1E+10	1	-1E+10	1	-1E+10	1	-1E+10	1	-1E+10	1	-1E+10	1
4901784	1	C	07/15/2015	10:50	-128.943	46.504	0	454.80	0	4.8650	0	33.9660	0	26.875	0	450.550	0	55.3	4	17.8	4	-1E+10	1	-1E+10	1	-1E+10	1	-1E+10	1	-1E+10	1	-1E+10	1
4901784	1	C	07/15/2015	10:50	-128.943	46.504	0	457.20	0	4.8490	0	33.9710	0	26.881	0	452.925	0	53.0	4	17.1	4	-1E+10	1	-1E+10	1	-1E+10	1	-1E+10	1	-1E+10	1	-1E+10	1
4901784	1	C	07/15/2015	10:50	-128.943	46.504	0	459.80	0	4.8640	0	33.9780	0	26.885	0	455.498	0	49.8	4	16.0	4	-1E+10	1	-1E+10	1	-1E+10	1	-1E+10	1	-1E+10	1	-1E+10	1
4901784	1	C	07/15/2015	10:50	-128.943	46.504	0	462.30	0	4.9370	0	33.9920	0	26.887	0	457.972	0	45.4	4	14.6	4	-1E+10	1	-1E+10	1	-1E+10	1	-1E+10	1	-1E+10	1	-1E+10	1
4901784	1	C	07/15/2015	10:50	-128.943	46.504	0	464.80	0	5.0470	0	34.0150	0	26.893	0	460.446	0	41.9	4	13.5	4	-1E+10	1	-1E+10	1	-1E+10	1	-1E+10	1	-1E+10	1	-1E+10	1
4901784	1	C	07/15/2015	10:50	-128.943	46.504	0	467.40	0	5.1090	0	34.0320	0	26.900	0	463.018	0	41.1	4	13.3	4	-1E+10	1	-1E+10	1	-1E+10	1	-1E+10	1	-1E+10	1	-1E+10	1
4901784	1	C	07/15/2015	10:50	-128.943	46.504	0	469.90	0	5.1250	0	34.0330	0	26.899	0	465.492	0	41.7	4	13.5	4	-1E+10	1	-1E+10	1	-1E+10	1	-1E+10	1	-1E+10	1	-1E+10	1
4901784	1	C	07/15/2015	10:50	-128.943	46.504	0	472.40	0	5.1150	0	34.0310	0	26.898	0	467.966	0	43.3	4	14.0	4	-1E+10	1	-1E+10	1	-1E+10	1	-1E+10	1	-1E+10	1	-1E+10	1
4901784	1	C	07/15/2015	10:50	-128.943	46.504	0	475.00	0	4.9820	0	34.0210	0	26.906	0	470.539	0	45.5	4	14.7	4	-1E+10	1	-1E+10	1	-1E+10	1	-1E+10	1	-1E+10	1	-1E+10	1
4901784	1	C	07/15/2015	10:50	-128.943	46.504	0	477.50	0	4.8770	0	34.0070	0	26.906	0	473.012	0	47.3	4	15.2	4	-1E+10	1	-1E+10	1	-1E+10	1	-1E+10	1	-1E+10	1	-1E+10	1
4901784	1	C	07/15/2015	10:50	-128.943	46.504	0	480.00	0	4.8250	0	34.0040	0	26.910	0	475.486	0	48.1	4	15.5	4	-1E+10	1	-1E+10	1	-1E+10	1	-1E+10	1	-1E+10	1	-1E+10	1
4901784	1	C	07/15/2015	10:50	-128.943	46.504	0	482.60	0	4.7310	0	33.9960	0	26.914	0	478.058	0	48.3	4	15.5	4	-1E+10	1	-1E+10	1	-1E+10	1	-1E+10	1	-1E+10	1	-1E+10	1
4901784	1	C	07/15/2015	10:50	-128.943	46.504	0	485.00	0	4.7310	0	33.9990	0	26.916	0	480.433	0	47.6	4	15.3	4	-1E+10	1	-1E+10	1	-1E+10	1	-1E+10	1	-1E+10	1	-1E+10	1
4901784	1	C	07/15/2015	10:50	-128.943	46.504	0	487.60	0	4.7080	0	34.0020	0	26.921	0	483.006	0	47.0	4	15.1	4	-1E+10	1	-1E+10	1	-1E+10	1	-1E+10	1	-1E+10	1	-1E+10	1
4901784	1	C	07/15/2015	10:50	-128.943	46.504	0	490.00	0	4.7030	0	34.0040	0	26.923	0	485.380	0	46.5	4	14.9	4	-1E+10	1	-1E+10	1	-1E+10	1	-1E+10	1	-1E+10	1	-1E+10	1
4901784	1	C	07/15/2015	10:50	-128.943	46.504	0	492.60	0	4.6970	0	34.0040	0	26.924	0	487.953	0	45.9	4	14.7	4	-1E+10	1	-1E+10	1	-1E+10	1	-1E+10	1	-1E+10	1	-1E+10	1
4901784	1	C	07/15/2015	10:50	-128.943	46.504	0	495.10	0	4.6800	0	34.0060	0	26.927	0	490.426	0	44.8	4	14.3	4	-1E+10	1	-1E+10	1	-1E+10	1	-1E+10	1	-1E+10	1	-1E+10	1
4901784	1	C	07/15/2015	10:50	-128.943	46.504	0	497.70	0	4.6720	0	34.0120	0	26.933	0	492.998	0	43.2	4	13.8	4	-1E+10	1	-1E+10	1	-1E+10	1	-1E+10	1	-1E+10	1	-1E+10	1
4901784	1	C	07/15/2015	10:50	-128.943	46.504	0	500.20	0	4.7420	0	34.0230	0	26.934	0	495.472	0	42.0	4	13.5	4	-1E+10	1	-1E+10	1	-1E+10	1	-1E+10	1	-1E+10	1	-1E+10	1
4901784	1	C	07/15/2015	10:50	-128.943	46.504	0	504.40	0	4.6780	0	34.0220	0	26.940	0	499.627	0	42.3	4	13.6	4	-1E+10	1	-1E+10	1	-1E+10	1	-1E+10	1	-1E+10	1	-1E+10	1
4901784	1	C	07/15/2015	10:50	-128.943	46.504	0	509.50	0	4.6400	0	34.0220	0	26.945	0	504.673	0	41.2	4	13.2	4	-1E+10	1	-1E+10	1	-1E+10	1	-1E+10	1	-1E+10	1	-1E+10	1
4901784	1	C	07/15/2015	10:50	-128.943	46.504	0	514.70	0	4.6380	0	34.0300	0	26.951	0	509.817	0	40.0	4	12.8	4	-1E+10	1	-1E+10	1	-1E+10	1	-1E+10	1	-1E+10	1	-1E+10	1
4901784	1	C	07/15/2015	10:50	-128.943	46.504	0	519.90	0	4.6380	0	34.0350	0	26.955	0	514.961	0	38.6	4	12.4	4	-1E+10	1	-1E+10	1	-1E+10	1	-1E+10	1	-1E+10	1	-1E+10	1
4901784	1	C	07/15/2015	10:50	-128.943	46.504	0	525.10	0	4.6550	0	34.0390	0	26.957	0	520.105	0	38.3	4	12.3	4	-1E+10	1	-1E+10	1	-1E+10	1	-1E+10	1	-1E+10	1	-1E+10	1
4901784	1	C	07/15/2015	10:50	-128.943	46.504	0	530.30	0	4.5850	0	34.0380	0	26.963	0	525.249	0	38.6	4	12.3	4	-1E+10	1	-1E+10	1	-1E+10	1	-1E+10	1	-1E+10	1	-1E+10	1
4901784	1	C	07/15/2015	10:50	-128.943	46.504	0	535.40	0	4.5220	0	34.0380	0	26.970	0	530.294	0	38.3	4	12.2	4	-1E+10	1	-1E+10	1	-1E+10	1	-1E+10	1	-1E+10	1	-1E+10	1
4901784	1	C	07/15/2015	10:50	-128.943	46.504	0	540.70	0	4.4920	0	34.0420	0	26.977	0	535.537	0	37.2	4	11.9	4	-1E+10	1	-1E+10	1	-1E+10	1	-1E+10	1	-1E+10	1	-1E+10	1
4901784	1	C	07/15/2015	10:50	-128.943	46.504	0	545.10	0	4.4750	0	34.0450	0	26.981	0	539.889	0	36.4	4	11.6	4	-1E+10	1	-1E+10	1	-1E+10	1	-1E+10	1	-1E+10	1	-1E+10	1
4901784	1	C	07/15/2015	10:50	-128.943	46.504	0	549.40	0	4.4670	0	34.0500	0	26.986	0	544.142	0	35.4	4	11.3	4	-1E+10	1	-1E+10	1	-1E+10	1	-1E+10	1	-1E+10	1	-1E+10	1
4901784	1	C	07/15/2015	10:50	-128.943	46.504	0	554.70	0	4.4290	0	34.0560	0	26.995	0	549.385	0	34.2	4	10.9	4	-1E+10	1	-1E+10	1	-1E+10	1	-1E+10	1	-1E+10	1	-1E+10	1
4901784	1	C	07/15/2015	10:50	-128.943	46.504	0	560.10	0	4.4000	0	34.0610	0	27.002	0	554.726	0	33.3	4	10.6	4	-1E+10	1	-1E+10	1	-1E+10	1	-1E+10	1	-1E+10	1	-1E+10	1
4901784	1	C	07/15/2015	10:50	-128.943	46.504	0	565.40	0	4.3820	0	34.0650	0	27.007	0	559.968	0	32.5	4	10.3	4	-1E+10	1	-1E+10	1	-1E+10	1	-1E+10	1	-1E+10	1	-1E+10	1
4901784	1	C	07/15/2015	10:50	-128.943	46.504	0	569.90	0	4.3620	0	34.0690	0	27.012	0	564.418	0	31.9	4	10.2	4	-1E+10	1	-1E+10	1	-1E+10	1	-1E+10	1	-1E+10	1	-1E+10	1
4901784	1	C	07/15/2015	10:50	-128.943	46.504	0	574.40	0	4.3480	0	34.0710	0	27.015	0	568.869	0	31.4	4	10.0	4	-1E+10	1	-1E+10	1	-1E+10	1	-1E+10	1	-1E+10	1	-1E+10	1
4901784	1	C	07/15/2015	10:50	-128.943	46.504	0	579.80	0	4.3160	0	34.0760	0	27.023	0	574.210	0	30.7	4	9.7	4	-1E+10	1	-1E+10	1	-1E+10	1	-1E+10	1	-1E+10	1	-1E+10	1
4901784	1	C	07/15/2015	10:50	-128.943	46.504	0	585.20	0	4.2960	0	34.0810	0	27.029	0	579.550	0	29.9	4	9.5	4	-1E+10	1	-1E+10	1	-1E+10	1	-1E+10	1	-1E+10	1	-1E+10	1
4901784	1	C	07/15/2015	10:50	-128.943	46.504	0	590.70	0	4.2750	0	34.0850	0	27.034	0	584.989	0	29.3	4	9.3	4	-1E+10	1	-1E+10	1	-1E+10	1	-1E+10	1	-1E+10	1	-1E+10	1
4901784	1	C	07/15/2015	10:50	-128.943	46.504	0	595.20	0	4.2550	0	34.0890	0	27.040	0	589.439	0	28.9	4	9.2	4	-1E+10	1	-1E+10	1	-1E+10	1	-1E+10	1	-1E+10	1	-1E+10	1
4901784	1	C	07/15/2015	10:50	-128.943	46.504	0	599.80	0	4.2330	0	34.0930	0	27.045	0	593.988	0	28.5	4	9.0	4	-1E+10	1	-1E+10	1	-1E+10	1	-1E+10	1	-1E+10	1	-1E+10	1
4901784	1	C	07/15/2015	10:50	-128.943	46.504	0	605.30	0	4.2180	0	34.0970	0	27.050	0	599.427	0	27.9	4	8.9	4	-1E+10	1	-1E+10	1	-1E+10	1	-1E+10	1	-1E+10	1	-1E+10	1
4901784	1	C	07/15/2015	10:50	-128.943	46.504	0	610.60	0	4.2040	0	34.1020	0	27.055	0	604.668	0	27.4	4	8.7	4	-1E+10	1	-1E+10	1	-1E+10	1	-1E+10	1	-1E+10	1	-1E+10	1
4901784	1	C	07/15/2015	10:50	-128.943	46.504	0	614.70	0	4.1920	0	34.1050	0	27.059	0	608.722	0	27.0	4	8.6	4	-1E+10	1	-1E+10	1	-1E+10	1	-1E+10	1	-1E+10	1	-1E+10	1
4901784	1	C	07/15/2015	10:50	-128.943	46.504	0	619.40	0	4.1690	0	34.1080	0	27.064	0	613.369	0	26.5	4	8.4	4	-1E+10	1	-1E+10	1	-1E+10	1	-1E+10	1	-1E+10	1	-1E+10	1
4901784	1	C	07/15/2015	10:50	-128.943	46.504	0	624.90	0	4.1560	0	34.1150	0	27.071	0	618.808	0	25.3	4	8.0	4	-1E+10	1	-1E+10	1	-1E+10	1	-1E+10	1	-1E+10	1	-1E+10	1
4901784	1	C	07/15/2015	10:50	-128.943	46.504	0	630.50	0	4.1490	0	34.1240	0	27.079	0	624.345	0	24.1	4	7.6	4	-1E+10	1	-1E+10	1	-1E+10	1	-1E+10	1	-1E+10	1	-1E+10	1
4901784	1	C	07/15/2015	10:50	-128.943	46.504	0	635.50	0	4.1470	0	34.1290	0	27.083	0	629.288	0	23.5	4	7.4	4	-1E+10	1	-1E+10	1	-1E+10	1	-1E+10	1	-1E+10	1	-1E+10	1
4901784	1	C	07/15/2015	10:50	-128.943	46.504	0	640.40	0	4.1270	0	34.1320	0	27.088	0	634.133	0	22.9	4	7.3	4	-1E+10	1	-1E+10	1	-1E+10	1	-1E+10	1	-1E+10	1	-1E+10	1
4901784	1	C	07/15/2015	10:50	-128.943	46.504	0	645.40	0	4.1220	0	34.1370	0	27.092	0	639.076	0	22.3	4	7.1	4	-1E+10	1	-1E+10	1	-1E+10	1	-1E+10	1	-1E+10	1	-1E+10	1
4901784	1	C	07/15/2015	10:50	-128.943	46.504	0	650.40	0	4.1230	0	34.1410	0	27.095	0	644.020	0	21.7	4	6.9	4	-1E+10	1	-1E+10	1	-1E+10	1	-1E+10	1	-1E+10	1	-1E+10	1
4901784	1	C	07/15/2015	10:50	-128.943	46.504	0	655.40	0	4.1080	0	34.1450	0	27.100	0	648.963	0	21.1	4	6.7	4	-1E+10	1	-1E+10	1	-1E+10	1	-1E+10	1	-1E+10	1	-1E+10	1
4901784	1	C	07/15/2015	10:50	-128.943	46.504	0	660.50	0	4.1080	0	34.1490	0	27.103	0	654.005	0	20.3	4	6.4	4	-1E+10	1	-1E+10	1	-1E+10	1	-1E+10	1	-1E+10	1	-1E+10	1
4901784	1	C	07/15/2015	10:50	-128.943	46.504	0	665.70	0	4.0840	0	34.1580	0	27.113	0	659.145	0	19.7	4	6.2	4	-1E+10	1	-1E+10	1	-1E+10	1	-1E+10	1	-1E+10	1	-1E+10	1
4901784	1	C	07/15/2015	10:50	-128.943	46.504	0	670.00	0	4.0770	0	34.1620	0	27.117	0	663.396	0	19.4	4	6.1	4	-1E+10	1	-1E+10	1	-1E+10	1	-1E+10	1	-1E+10	1	-1E+10	1
4901784	1	C	07/15/2015	10:50	-128.943	46.504	0	674.40	0	4.0670	0	34.1630	0	27.119	0	667.746	0	19.1	4	6.0	4	-1E+10	1	-1E+10	1	-1E+10	1	-1E+10	1	-1E+10	1	-1E+10	1
4901784	1	C	07/15/2015	10:50	-128.943	46.504	0	679.70	0	4.0510	0	34.1680	0	27.124	0	672.985	0	18.5	4	5.9	4	-1E+10	1	-1E+10	1	-1E+10	1	-1E+10	1	-1E+10	1	-1E+10	1
4901784	1	C	07/15/2015	10:50	-128.943	46.504	0	684.90	0	4.0410	0	34.1740	0	27.130	0	678.125	0	18.0	4	5.7	4	-1E+10	1	-1E+10	1	-1E+10	1	-1E+10	1	-1E+10	1	-1E+10	1
4901784	1	C	07/15/2015	10:50	-128.943	46.504	0	690.20	0	4.0310	0	34.1790	0	27.135	0	683.364	0	17.5	4	5.5	4	-1E+10	1	-1E+10	1	-1E+10	1	-1E+10	1	-1E+10	1	-1E+10	1
4901784	1	C	07/15/2015	10:50	-128.943	46.504	0	695.60	0	4.0170	0	34.1850	0	27.141	0	688.702	0	17.1	4	5.4	4	-1E+10	1	-1E+10	1	-1E+10	1	-1E+10	1	-1E+10	1	-1E+10	1
4901784	1	C	07/15/2015	10:50	-128.943	46.504	0	700.10	0	4.0020	0	34.1880	0	27.145	0	693.150	0	16.7	4	5.3	4	-1E+10	1	-1E+10	1	-1E+10	1	-1E+10	1	-1E+10	1	-1E+10	1
4901784	1	C	07/15/2015	10:50	-128.943	46.504	0	704.60	0	4.0050	0	34.1930	0	27.149	0	697.597	0	16.5	4	5.2	4	-1E+10	1	-1E+10	1	-1E+10	1	-1E+10	1	-1E+10	1	-1E+10	1
4901784	1	C	07/15/2015	10:50	-128.943	46.504	0	710.10	0	3.9880	0	34.1950	0	27.152	0	703.033	0	16.5	4	5.2	4	-1E+10	1	-1E+10	1	-1E+10	1	-1E+10	1	-1E+10	1	-1E+10	1
4901784	1	C	07/15/2015	10:50	-128.943	46.504	0	715.60	0	3.9560	0	34.1970	0	27.157	0	708.469	0	16.3	4	5.2	4	-1E+10	1	-1E+10	1	-1E+10	1	-1E+10	1	-1E+10	1	-1E+10	1
4901784	1	C	07/15/2015	10:50	-128.943	46.504	0	720.20	0	3.9540	0	34.2000	0	27.160	0	713.016	0	16.1	4	5.1	4	-1E+10	1	-1E+10	1	-1E+10	1	-1E+10	1	-1E+10	1	-1E+10	1
4901784	1	C	07/15/2015	10:50	-128.943	46.504	0	724.90	0	3.9440	0	34.2040	0	27.164	0	717.661	0	15.8	4	5.0	4	-1E+10	1	-1E+10	1	-1E+10	1	-1E+10	1	-1E+10	1	-1E+10	1
4901784	1	C	07/15/2015	10:50	-128.943	46.504	0	730.50	0	3.9360	0	34.2090	0	27.169	0	723.195	0	15.5	4	4.9	4	-1E+10	1	-1E+10	1	-1E+10	1	-1E+10	1	-1E+10	1	-1E+10	1
4901784	1	C	07/15/2015	10:50	-128.943	46.504	0	735.90	0	3.9100	0	34.2120	0	27.174	0	728.532	0	15.3	4	4.8	4	-1E+10	1	-1E+10	1	-1E+10	1	-1E+10	1	-1E+10	1	-1E+10	1
4901784	1	C	07/15/2015	10:50	-128.943	46.504	0	740.30	0	3.9120	0	34.2160	0	27.177	0	732.880	0	15.1	4	4.8	4	-1E+10	1	-1E+10	1	-1E+10	1	-1E+10	1	-1E+10	1	-1E+10	1
4901784	1	C	07/15/2015	10:50	-128.943	46.504	0	745.10	0	3.8940	0	34.2180	0	27.180	0	737.623	0	15.1	4	4.7	4	-1E+10	1	-1E+10	1	-1E+10	1	-1E+10	1	-1E+10	1	-1E+10	1
4901784	1	C	07/15/2015	10:50	-128.943	46.504	0	750.00	0	3.8880	0	34.2210	0	27.183	0	742.465	0	14.9	4	4.7	4	-1E+10	1	-1E+10	1	-1E+10	1	-1E+10	1	-1E+10	1	-1E+10	1
4901784	1	C	07/15/2015	10:50	-128.943	46.504	0	754.90	0	3.8770	0	34.2230	0	27.186	0	747.307	0	14.9	4	4.7	4	-1E+10	1	-1E+10	1	-1E+10	1	-1E+10	1	-1E+10	1	-1E+10	1
4901784	1	C	07/15/2015	10:50	-128.943	46.504	0	759.90	0	3.8440	0	34.2240	0	27.190	0	752.248	0	15.0	4	4.7	4	-1E+10	1	-1E+10	1	-1E+10	1	-1E+10	1	-1E+10	1	-1E+10	1
4901784	1	C	07/15/2015	10:50	-128.943	46.504	0	764.90	0	3.8270	0	34.2250	0	27.193	0	757.189	0	14.8	4	4.6	4	-1E+10	1	-1E+10	1	-1E+10	1	-1E+10	1	-1E+10	1	-1E+10	1
4901784	1	C	07/15/2015	10:50	-128.943	46.504	0	769.90	0	3.8290	0	34.2310	0	27.198	0	762.129	0	14.5	4	4.5	4	-1E+10	1	-1E+10	1	-1E+10	1	-1E+10	1	-1E+10	1	-1E+10	1
4901784	1	C	07/15/2015	10:50	-128.943	46.504	0	774.90	0	3.8260	0	34.2330	0	27.199	0	767.070	0	14.3	4	4.5	4	-1E+10	1	-1E+10	1	-1E+10	1	-1E+10	1	-1E+10	1	-1E+10	1
4901784	1	C	07/15/2015	10:50	-128.943	46.504	0	780.00	0	3.8200	0	34.2370	0	27.203	0	772.109	0	14.2	4	4.5	4	-1E+10	1	-1E+10	1	-1E+10	1	-1E+10	1	-1E+10	1	-1E+10	1
4901784	1	C	07/15/2015	10:50	-128.943	46.504	0	785.10	0	3.7810	0	34.2400	0	27.210	0	777.147	0	14.1	4	4.4	4	-1E+10	1	-1E+10	1	-1E+10	1	-1E+10	1	-1E+10	1	-1E+10	1
4901784	1	C	07/15/2015	10:50	-128.943	46.504	0	790.10	0	3.7730	0	34.2440	0	27.214	0	782.087	0	14.0	4	4.4	4	-1E+10	1	-1E+10	1	-1E+10	1	-1E+10	1	-1E+10	1	-1E+10	1
4901784	1	C	07/15/2015	10:50	-128.943	46.504	0	795.20	0	3.7650	0	34.2460	0	27.216	0	787.126	0	13.9	4	4.4	4	-1E+10	1	-1E+10	1	-1E+10	1	-1E+10	1	-1E+10	1	-1E+10	1
4901784	1	C	07/15/2015	10:50	-128.943	46.504	0	800.20	0	3.7620	0	34.2480	0	27.218	0	792.066	0	13.8	4	4.3	4	-1E+10	1	-1E+10	1	-1E+10	1	-1E+10	1	-1E+10	1	-1E+10	1
4901784	1	C	07/15/2015	10:50	-128.943	46.504	0	805.40	0	3.7520	0	34.2500	0	27.221	0	797.203	0	13.7	4	4.3	4	-1E+10	1	-1E+10	1	-1E+10	1	-1E+10	1	-1E+10	1	-1E+10	1
4901784	1	C	07/15/2015	10:50	-128.943	46.504	0	810.60	0	3.7490	0	34.2520	0	27.222	0	802.340	0	13.5	4	4.3	4	-1E+10	1	-1E+10	1	-1E+10	1	-1E+10	1	-1E+10	1	-1E+10	1
4901784	1	C	07/15/2015	10:50	-128.943	46.504	0	815.80	0	3.7410	0	34.2550	0	27.226	0	807.477	0	13.4	4	4.2	4	-1E+10	1	-1E+10	1	-1E+10	1	-1E+10	1	-1E+10	1	-1E+10	1
4901784	1	C	07/15/2015	10:50	-128.943	46.504	0	820.10	0	3.7270	0	34.2580	0	27.229	0	811.725	0	13.4	4	4.2	4	-1E+10	1	-1E+10	1	-1E+10	1	-1E+10	1	-1E+10	1	-1E+10	1
4901784	1	C	07/15/2015	10:50	-128.943	46.504	0	824.40	0	3.7260	0	34.2590	0	27.230	0	815.973	0	13.3	4	4.2	4	-1E+10	1	-1E+10	1	-1E+10	1	-1E+10	1	-1E+10	1	-1E+10	1
4901784	1	C	07/15/2015	10:50	-128.943	46.504	0	829.70	0	3.7220	0	34.2610	0	27.232	0	821.208	0	13.2	4	4.1	4	-1E+10	1	-1E+10	1	-1E+10	1	-1E+10	1	-1E+10	1	-1E+10	1
4901784	1	C	07/15/2015	10:50	-128.943	46.504	0	834.90	0	3.7100	0	34.2620	0	27.234	0	826.345	0	13.2	4	4.1	4	-1E+10	1	-1E+10	1	-1E+10	1	-1E+10	1	-1E+10	1	-1E+10	1
4901784	1	C	07/15/2015	10:50	-128.943	46.504	0	840.30	0	3.6970	0	34.2670	0	27.240	0	831.678	0	13.1	4	4.1	4	-1E+10	1	-1E+10	1	-1E+10	1	-1E+10	1	-1E+10	1	-1E+10	1
4901784	1	C	07/15/2015	10:50	-128.943	46.504	0	845.60	0	3.6770	0	34.2690	0	27.243	0	836.913	0	13.1	4	4.1	4	-1E+10	1	-1E+10	1	-1E+10	1	-1E+10	1	-1E+10	1	-1E+10	1
4901784	1	C	07/15/2015	10:50	-128.943	46.504	0	850.10	0	3.6660	0	34.2710	0	27.246	0	841.358	0	13.1	4	4.1	4	-1E+10	1	-1E+10	1	-1E+10	1	-1E+10	1	-1E+10	1	-1E+10	1
4901784	1	C	07/15/2015	10:50	-128.943	46.504	0	854.50	0	3.6550	0	34.2720	0	27.248	0	845.704	0	13.0	4	4.1	4	-1E+10	1	-1E+10	1	-1E+10	1	-1E+10	1	-1E+10	1	-1E+10	1
4901784	1	C	07/15/2015	10:50	-128.943	46.504	0	859.90	0	3.6410	0	34.2740	0	27.251	0	851.038	0	13.0	4	4.1	4	-1E+10	1	-1E+10	1	-1E+10	1	-1E+10	1	-1E+10	1	-1E+10	1
4901784	1	C	07/15/2015	10:50	-128.943	46.504	0	865.30	0	3.6330	0	34.2770	0	27.254	0	856.371	0	12.9	4	4.0	4	-1E+10	1	-1E+10	1	-1E+10	1	-1E+10	1	-1E+10	1	-1E+10	1
4901784	1	C	07/15/2015	10:50	-128.943	46.504	0	870.60	0	3.6300	0	34.2800	0	27.257	0	861.605	0	12.8	4	4.0	4	-1E+10	1	-1E+10	1	-1E+10	1	-1E+10	1	-1E+10	1	-1E+10	1
4901784	1	C	07/15/2015	10:50	-128.943	46.504	0	875.00	0	3.6160	0	34.2840	0	27.261	0	865.951	0	12.7	4	4.0	4	-1E+10	1	-1E+10	1	-1E+10	1	-1E+10	1	-1E+10	1	-1E+10	1
4901784	1	C	07/15/2015	10:50	-128.943	46.504	0	879.50	0	3.6110	0	34.2850	0	27.263	0	870.395	0	12.7	4	4.0	4	-1E+10	1	-1E+10	1	-1E+10	1	-1E+10	1	-1E+10	1	-1E+10	1
4901784	1	C	07/15/2015	10:50	-128.943	46.504	0	884.80	0	3.6010	0	34.2860	0	27.265	0	875.629	0	12.6	4	3.9	4	-1E+10	1	-1E+10	1	-1E+10	1	-1E+10	1	-1E+10	1	-1E+10	1
4901784	1	C	07/15/2015	10:50	-128.943	46.504	0	890.20	0	3.6000	0	34.2900	0	27.268	0	880.961	0	12.5	4	3.9	4	-1E+10	1	-1E+10	1	-1E+10	1	-1E+10	1	-1E+10	1	-1E+10	1
4901784	1	C	07/15/2015	10:50	-128.943	46.504	0	895.70	0	3.5780	0	34.2920	0	27.272	0	886.393	0	12.5	4	3.9	4	-1E+10	1	-1E+10	1	-1E+10	1	-1E+10	1	-1E+10	1	-1E+10	1
4901784	1	C	07/15/2015	10:50	-128.943	46.504	0	900.20	0	3.5680	0	34.2940	0	27.274	0	890.836	0	12.4	4	3.9	4	-1E+10	1	-1E+10	1	-1E+10	1	-1E+10	1	-1E+10	1	-1E+10	1
4901784	1	C	07/15/2015	10:50	-128.943	46.504	0	904.70	0	3.5620	0	34.1370	8	27.150	0	895.280	0	12.4	4	3.9	4	-1E+10	1	-1E+10	1	-1E+10	1	-1E+10	1	-1E+10	1	-1E+10	1
4901784	1	C	07/15/2015	10:50	-128.943	46.504	0	910.20	0	3.5580	0	34.3100	0	27.288	0	900.711	0	12.3	4	3.9	4	-1E+10	1	-1E+10	1	-1E+10	1	-1E+10	1	-1E+10	1	-1E+10	1
4901784	1	C	07/15/2015	10:50	-128.943	46.504	0	915.70	0	3.5330	0	34.3120	0	27.292	0	906.142	0	12.3	4	3.8	4	-1E+10	1	-1E+10	1	-1E+10	1	-1E+10	1	-1E+10	1	-1E+10	1
4901784	1	C	07/15/2015	10:50	-128.943	46.504	0	920.30	0	3.5270	0	34.3150	0	27.295	0	910.684	0	12.2	4	3.8	4	-1E+10	1	-1E+10	1	-1E+10	1	-1E+10	1	-1E+10	1	-1E+10	1
4901784	1	C	07/15/2015	10:50	-128.943	46.504	0	924.90	0	3.5250	0	34.3190	0	27.298	0	915.225	0	12.1	4	3.8	4	-1E+10	1	-1E+10	1	-1E+10	1	-1E+10	1	-1E+10	1	-1E+10	1
4901784	1	C	07/15/2015	10:50	-128.943	46.504	0	930.50	0	3.5060	0	34.3220	0	27.303	0	920.755	0	12.1	4	3.8	4	-1E+10	1	-1E+10	1	-1E+10	1	-1E+10	1	-1E+10	1	-1E+10	1
4901784	1	C	07/15/2015	10:50	-128.943	46.504	0	935.10	0	3.4880	0	34.3250	0	27.307	0	925.296	0	12.0	4	3.8	4	-1E+10	1	-1E+10	1	-1E+10	1	-1E+10	1	-1E+10	1	-1E+10	1
4901784	1	C	07/15/2015	10:50	-128.943	46.504	0	939.70	0	3.4790	0	34.3280	0	27.310	0	929.838	0	12.1	4	3.8	4	-1E+10	1	-1E+10	1	-1E+10	1	-1E+10	1	-1E+10	1	-1E+10	1
4901784	1	C	07/15/2015	10:50	-128.943	46.504	0	945.30	0	3.4610	0	34.3290	0	27.313	0	935.366	0	12.1	4	3.8	4	-1E+10	1	-1E+10	1	-1E+10	1	-1E+10	1	-1E+10	1	-1E+10	1
4901784	1	C	07/15/2015	10:50	-128.943	46.504	0	949.90	0	3.4510	0	34.3310	0	27.315	0	939.908	0	12.1	4	3.8	4	-1E+10	1	-1E+10	1	-1E+10	1	-1E+10	1	-1E+10	1	-1E+10	1
4901784	1	C	07/15/2015	10:50	-128.943	46.504	0	954.60	0	3.4470	0	34.3320	0	27.317	0	944.548	0	12.0	4	3.8	4	-1E+10	1	-1E+10	1	-1E+10	1	-1E+10	1	-1E+10	1	-1E+10	1
4901784	1	C	07/15/2015	10:50	-128.943	46.504	0	960.20	0	3.4440	0	34.3340	0	27.318	0	950.076	0	12.0	4	3.7	4	-1E+10	1	-1E+10	1	-1E+10	1	-1E+10	1	-1E+10	1	-1E+10	1
4901784	1	C	07/15/2015	10:50	-128.943	46.504	0	964.90	0	3.4380	0	34.3380	0	27.322	0	954.716	0	11.9	4	3.7	4	-1E+10	1	-1E+10	1	-1E+10	1	-1E+10	1	-1E+10	1	-1E+10	1
4901784	1	C	07/15/2015	10:50	-128.943	46.504	0	969.50	0	3.4290	0	34.3400	0	27.325	0	959.257	0	11.9	4	3.7	4	-1E+10	1	-1E+10	1	-1E+10	1	-1E+10	1	-1E+10	1	-1E+10	1
4901784	1	C	07/15/2015	10:50	-128.943	46.504	0	975.10	0	3.4190	0	34.3450	0	27.330	0	964.785	0	11.9	4	3.7	4	-1E+10	1	-1E+10	1	-1E+10	1	-1E+10	1	-1E+10	1	-1E+10	1
4901784	1	C	07/15/2015	10:50	-128.943	46.504	0	979.90	0	3.4000	0	34.3470	0	27.333	0	969.523	0	11.9	4	3.7	4	-1E+10	1	-1E+10	1	-1E+10	1	-1E+10	1	-1E+10	1	-1E+10	1
4901784	1	C	07/15/2015	10:50	-128.943	46.504	0	984.60	0	3.3970	0	34.3490	0	27.335	0	974.162	0	11.9	4	3.7	4	-1E+10	1	-1E+10	1	-1E+10	1	-1E+10	1	-1E+10	1	-1E+10	1
4901784	1	C	07/15/2015	10:50	-128.943	46.504	0	990.40	0	3.3810	0	34.3510	0	27.338	0	979.887	0	11.9	4	3.7	4	-1E+10	1	-1E+10	1	-1E+10	1	-1E+10	1	-1E+10	1	-1E+10	1
4901784	1	C	07/15/2015	10:50	-128.943	46.504	0	994.50	0	3.3720	0	34.3530	0	27.341	0	983.934	0	11.9	4	3.7	4	-1E+10	1	-1E+10	1	-1E+10	1	-1E+10	1	-1E+10	1	-1E+10	1
4901784	1	C	07/15/2015	10:50	-128.943	46.504	0	999.50	0	3.3640	0	34.3560	0	27.344	0	988.869	0	11.9	4	3.7	4	-1E+10	1	-1E+10	1	-1E+10	1	-1E+10	1	-1E+10	1	-1E+10	1
4901784	1	C	07/15/2015	10:50	-128.943	46.504	0	1004.50	0	3.3540	0	34.3580	0	27.346	0	993.804	0	11.9	4	3.7	4	-1E+10	1	-1E+10	1	-1E+10	1	-1E+10	1	-1E+10	1	-1E+10	1
4901784	1	C	07/15/2015	10:50	-128.943	46.504	0	1009.50	0	3.3560	0	34.3620	0	27.349	0	998.739	0	11.8	4	3.7	4	-1E+10	1	-1E+10	1	-1E+10	1	-1E+10	1	-1E+10	1	-1E+10	1
4901784	1	C	07/15/2015	10:50	-128.943	46.504	0	1014.60	0	3.3570	0	34.3650	0	27.352	0	1003.772	0	11.8	4	3.7	4	-1E+10	1	-1E+10	1	-1E+10	1	-1E+10	1	-1E+10	1	-1E+10	1
4901784	1	C	07/15/2015	10:50	-128.943	46.504	0	1019.60	0	3.3450	0	34.3670	0	27.355	0	1008.707	0	11.8	4	3.7	4	-1E+10	1	-1E+10	1	-1E+10	1	-1E+10	1	-1E+10	1	-1E+10	1
4901784	1	C	07/15/2015	10:50	-128.943	46.504	0	1024.70	0	3.3410	0	34.3680	0	27.356	0	1013.740	0	11.9	4	3.7	4	-1E+10	1	-1E+10	1	-1E+10	1	-1E+10	1	-1E+10	1	-1E+10	1
4901784	1	C	07/15/2015	10:50	-128.943	46.504	0	1029.90	0	3.3300	0	34.3700	0	27.358	0	1018.872	0	11.9	4	3.7	4	-1E+10	1	-1E+10	1	-1E+10	1	-1E+10	1	-1E+10	1	-1E+10	1
4901784	1	C	07/15/2015	10:50	-128.943	46.504	0	1035.10	0	3.3120	0	34.3710	0	27.361	0	1024.003	0	12.0	4	3.7	4	-1E+10	1	-1E+10	1	-1E+10	1	-1E+10	1	-1E+10	1	-1E+10	1
4901784	1	C	07/15/2015	10:50	-128.943	46.504	0	1040.40	0	3.2980	0	34.3720	0	27.363	0	1029.234	0	12.0	4	3.7	4	-1E+10	1	-1E+10	1	-1E+10	1	-1E+10	1	-1E+10	1	-1E+10	1
4901784	1	C	07/15/2015	10:50	-128.943	46.504	0	1045.60	0	3.2800	0	34.3760	0	27.368	0	1034.365	0	12.1	4	3.7	4	-1E+10	1	-1E+10	1	-1E+10	1	-1E+10	1	-1E+10	1	-1E+10	1
4901784	1	C	07/15/2015	10:50	-128.943	46.504	0	1050.00	0	3.2780	0	34.3780	0	27.370	0	1038.707	0	12.1	4	3.8	4	-1E+10	1	-1E+10	1	-1E+10	1	-1E+10	1	-1E+10	1	-1E+10	1
4901784	1	C	07/15/2015	10:50	-128.943	46.504	0	1054.40	0	3.2710	0	34.3790	0	27.371	0	1043.049	0	12.1	4	3.8	4	-1E+10	1	-1E+10	1	-1E+10	1	-1E+10	1	-1E+10	1	-1E+10	1
4901784	1	C	07/15/2015	10:50	-128.943	46.504	0	1059.80	0	3.2510	0	34.3800	0	27.374	0	1048.377	0	12.2	4	3.8	4	-1E+10	1	-1E+10	1	-1E+10	1	-1E+10	1	-1E+10	1	-1E+10	1
4901784	1	C	07/15/2015	10:50	-128.943	46.504	0	1065.20	0	3.2290	0	34.3820	0	27.378	0	1053.705	0	12.2	4	3.8	4	-1E+10	1	-1E+10	1	-1E+10	1	-1E+10	1	-1E+10	1	-1E+10	1
4901784	1	C	07/15/2015	10:50	-128.943	46.504	0	1070.60	0	3.2160	0	34.3840	0	27.380	0	1059.033	0	12.3	4	3.8	4	-1E+10	1	-1E+10	1	-1E+10	1	-1E+10	1	-1E+10	1	-1E+10	1
4901784	1	C	07/15/2015	10:50	-128.943	46.504	0	1075.10	0	3.2020	0	34.3860	0	27.383	0	1063.473	0	12.3	4	3.8	4	-1E+10	1	-1E+10	1	-1E+10	1	-1E+10	1	-1E+10	1	-1E+10	1
4901784	1	C	07/15/2015	10:50	-128.943	46.504	0	1079.70	0	3.1900	0	34.3870	0	27.385	0	1068.012	0	12.4	4	3.8	4	-1E+10	1	-1E+10	1	-1E+10	1	-1E+10	1	-1E+10	1	-1E+10	1
4901784	1	C	07/15/2015	10:50	-128.943	46.504	0	1085.30	0	3.1790	0	34.3900	0	27.389	0	1073.537	0	12.4	4	3.9	4	-1E+10	1	-1E+10	1	-1E+10	1	-1E+10	1	-1E+10	1	-1E+10	1
4901784	1	C	07/15/2015	10:50	-128.943	46.504	0	1089.90	0	3.1680	0	34.3910	0	27.391	0	1078.075	0	12.5	4	3.9	4	-1E+10	1	-1E+10	1	-1E+10	1	-1E+10	1	-1E+10	1	-1E+10	1
4901784	1	C	07/15/2015	10:50	-128.943	46.504	0	1095.40	0	3.1560	0	34.3940	0	27.394	0	1083.501	0	12.5	4	3.9	4	-1E+10	1	-1E+10	1	-1E+10	1	-1E+10	1	-1E+10	1	-1E+10	1
4901784	1	C	07/15/2015	10:50	-128.943	46.504	0	1100.20	0	3.1460	0	34.3950	0	27.396	0	1088.237	0	12.6	4	3.9	4	-1E+10	1	-1E+10	1	-1E+10	1	-1E+10	1	-1E+10	1	-1E+10	1
4901784	1	C	07/15/2015	10:50	-128.943	46.504	0	1105.10	0	3.1370	0	34.3970	0	27.398	0	1093.071	0	12.6	4	3.9	4	-1E+10	1	-1E+10	1	-1E+10	1	-1E+10	1	-1E+10	1	-1E+10	1
4901784	1	C	07/15/2015	10:50	-128.943	46.504	0	1110.50	0	3.1250	0	34.3980	0	27.400	0	1098.398	0	12.7	4	3.9	4	-1E+10	1	-1E+10	1	-1E+10	1	-1E+10	1	-1E+10	1	-1E+10	1
4901784	1	C	07/15/2015	10:50	-128.943	46.504	0	1115.00	0	3.1150	0	34.3990	0	27.402	0	1102.837	0	12.7	4	3.9	4	-1E+10	1	-1E+10	1	-1E+10	1	-1E+10	1	-1E+10	1	-1E+10	1
4901784	1	C	07/15/2015	10:50	-128.943	46.504	0	1119.50	0	3.1020	0	34.4010	0	27.405	0	1107.276	0	12.8	4	4.0	4	-1E+10	1	-1E+10	1	-1E+10	1	-1E+10	1	-1E+10	1	-1E+10	1
4901784	1	C	07/15/2015	10:50	-128.943	46.504	0	1124.90	0	3.0910	0	34.4040	0	27.408	0	1112.603	0	12.9	4	4.0	4	-1E+10	1	-1E+10	1	-1E+10	1	-1E+10	1	-1E+10	1	-1E+10	1
4901784	1	C	07/15/2015	10:50	-128.943	46.504	0	1130.40	0	3.0810	0	34.4050	0	27.410	0	1118.028	0	13.0	4	4.0	4	-1E+10	1	-1E+10	1	-1E+10	1	-1E+10	1	-1E+10	1	-1E+10	1
4901784	1	C	07/15/2015	10:50	-128.943	46.504	0	1135.00	0	3.0720	0	34.4060	0	27.412	0	1122.565	0	13.0	4	4.0	4	-1E+10	1	-1E+10	1	-1E+10	1	-1E+10	1	-1E+10	1	-1E+10	1
4901784	1	C	07/15/2015	10:50	-128.943	46.504	0	1139.60	0	3.0550	0	34.4070	0	27.414	0	1127.103	0	13.1	4	4.0	4	-1E+10	1	-1E+10	1	-1E+10	1	-1E+10	1	-1E+10	1	-1E+10	1
4901784	1	C	07/15/2015	10:50	-128.943	46.504	0	1145.10	0	3.0440	0	34.4100	0	27.417	0	1132.528	0	13.2	4	4.1	4	-1E+10	1	-1E+10	1	-1E+10	1	-1E+10	1	-1E+10	1	-1E+10	1
4901784	1	C	07/15/2015	10:50	-128.943	46.504	0	1149.80	0	3.0350	0	34.4110	0	27.419	0	1137.163	0	13.2	4	4.1	4	-1E+10	1	-1E+10	1	-1E+10	1	-1E+10	1	-1E+10	1	-1E+10	1
4901784	1	C	07/15/2015	10:50	-128.943	46.504	0	1154.40	0	3.0240	0	34.4120	0	27.421	0	1141.700	0	13.3	4	4.1	4	-1E+10	1	-1E+10	1	-1E+10	1	-1E+10	1	-1E+10	1	-1E+10	1
4901784	1	C	07/15/2015	10:50	-128.943	46.504	0	1160.00	0	3.0170	0	34.4150	0	27.424	0	1147.223	0	13.4	4	4.2	4	-1E+10	1	-1E+10	1	-1E+10	1	-1E+10	1	-1E+10	1	-1E+10	1
4901784	1	C	07/15/2015	10:50	-128.943	46.504	0	1164.70	0	3.0130	0	34.4170	0	27.426	0	1151.859	0	13.6	4	4.2	4	-1E+10	1	-1E+10	1	-1E+10	1	-1E+10	1	-1E+10	1	-1E+10	1
4901784	1	C	07/15/2015	10:50	-128.943	46.504	0	1169.40	0	3.0020	0	34.4190	0	27.428	0	1156.494	0	13.6	4	4.2	4	-1E+10	1	-1E+10	1	-1E+10	1	-1E+10	1	-1E+10	1	-1E+10	1
4901784	1	C	07/15/2015	10:50	-128.943	46.504	0	1175.20	0	2.9920	0	34.4200	0	27.430	0	1162.214	0	13.8	4	4.2	4	-1E+10	1	-1E+10	1	-1E+10	1	-1E+10	1	-1E+10	1	-1E+10	1
4901784	1	C	07/15/2015	10:50	-128.943	46.504	0	1180.00	0	2.9780	0	34.4220	0	27.433	0	1166.948	0	13.9	4	4.3	4	-1E+10	1	-1E+10	1	-1E+10	1	-1E+10	1	-1E+10	1	-1E+10	1
4901784	1	C	07/15/2015	10:50	-128.943	46.504	0	1184.90	0	2.9690	0	34.4240	0	27.436	0	1171.780	0	13.9	4	4.3	4	-1E+10	1	-1E+10	1	-1E+10	1	-1E+10	1	-1E+10	1	-1E+10	1
4901784	1	C	07/15/2015	10:50	-128.943	46.504	0	1189.70	0	2.9620	0	34.4250	0	27.437	0	1176.513	0	14.0	4	4.3	4	-1E+10	1	-1E+10	1	-1E+10	1	-1E+10	1	-1E+10	1	-1E+10	1
4901784	1	C	07/15/2015	10:50	-128.943	46.504	0	1194.50	0	2.9540	0	34.4270	0	27.439	0	1181.246	0	14.2	4	4.4	4	-1E+10	1	-1E+10	1	-1E+10	1	-1E+10	1	-1E+10	1	-1E+10	1
4901784	1	C	07/15/2015	10:50	-128.943	46.504	0	1200.30	0	2.9430	0	34.4290	0	27.442	0	1186.966	0	14.3	4	4.4	4	-1E+10	1	-1E+10	1	-1E+10	1	-1E+10	1	-1E+10	1	-1E+10	1
4901784	1	C	07/15/2015	10:50	-128.943	46.504	0	1205.20	0	2.9330	0	34.4310	0	27.444	0	1191.797	0	14.4	4	4.4	4	-1E+10	1	-1E+10	1	-1E+10	1	-1E+10	1	-1E+10	1	-1E+10	1
4901784	1	C	07/15/2015	10:50	-128.943	46.504	0	1210.10	0	2.9250	0	34.4320	0	27.446	0	1196.629	0	14.5	4	4.5	4	-1E+10	1	-1E+10	1	-1E+10	1	-1E+10	1	-1E+10	1	-1E+10	1
4901784	1	C	07/15/2015	10:50	-128.943	46.504	0	1215.10	0	2.9190	0	34.4330	0	27.447	0	1201.559	0	14.7	4	4.5	4	-1E+10	1	-1E+10	1	-1E+10	1	-1E+10	1	-1E+10	1	-1E+10	1
4901784	1	C	07/15/2015	10:50	-128.943	46.504	0	1220.00	0	2.9090	0	34.4350	0	27.450	0	1206.390	0	14.8	4	4.6	4	-1E+10	1	-1E+10	1	-1E+10	1	-1E+10	1	-1E+10	1	-1E+10	1
4901784	1	C	07/15/2015	10:50	-128.943	46.504	0	1224.90	0	2.9000	0	34.4370	0	27.452	0	1211.222	0	14.9	4	4.6	4	-1E+10	1	-1E+10	1	-1E+10	1	-1E+10	1	-1E+10	1	-1E+10	1
4901784	1	C	07/15/2015	10:50	-128.943	46.504	0	1230.00	0	2.8920	0	34.4380	0	27.454	0	1216.250	0	15.0	4	4.6	4	-1E+10	1	-1E+10	1	-1E+10	1	-1E+10	1	-1E+10	1	-1E+10	1
4901784	1	C	07/15/2015	10:50	-128.943	46.504	0	1234.80	0	2.8810	0	34.4400	0	27.456	0	1220.982	0	15.2	4	4.7	4	-1E+10	1	-1E+10	1	-1E+10	1	-1E+10	1	-1E+10	1	-1E+10	1
4901784	1	C	07/15/2015	10:50	-128.943	46.504	0	1239.40	0	2.8720	0	34.4410	0	27.458	0	1225.518	0	15.2	4	4.7	4	-1E+10	1	-1E+10	1	-1E+10	1	-1E+10	1	-1E+10	1	-1E+10	1
4901784	1	C	07/15/2015	10:50	-128.943	46.504	0	1245.00	0	2.8640	0	34.4420	0	27.460	0	1231.038	0	15.3	4	4.7	4	-1E+10	1	-1E+10	1	-1E+10	1	-1E+10	1	-1E+10	1	-1E+10	1
4901784	1	C	07/15/2015	10:50	-128.943	46.504	0	1250.50	0	2.8550	0	34.4430	0	27.461	0	1236.461	0	15.5	4	4.8	4	-1E+10	1	-1E+10	1	-1E+10	1	-1E+10	1	-1E+10	1	-1E+10	1
4901784	1	C	07/15/2015	10:50	-128.943	46.504	0	1255.20	0	2.8480	0	34.4450	0	27.463	0	1241.094	0	15.7	4	4.8	4	-1E+10	1	-1E+10	1	-1E+10	1	-1E+10	1	-1E+10	1	-1E+10	1
4901784	1	C	07/15/2015	10:50	-128.943	46.504	0	1259.80	0	2.8370	0	34.4470	0	27.466	0	1245.629	0	15.8	4	4.9	4	-1E+10	1	-1E+10	1	-1E+10	1	-1E+10	1	-1E+10	1	-1E+10	1
4901784	1	C	07/15/2015	10:50	-128.943	46.504	0	1265.00	0	2.8260	0	34.4490	0	27.469	0	1250.755	0	16.0	4	4.9	4	-1E+10	1	-1E+10	1	-1E+10	1	-1E+10	1	-1E+10	1	-1E+10	1
4901784	1	C	07/15/2015	10:50	-128.943	46.504	0	1269.30	0	2.8190	0	34.4500	0	27.470	0	1254.994	0	16.1	4	4.9	4	-1E+10	1	-1E+10	1	-1E+10	1	-1E+10	1	-1E+10	1	-1E+10	1
4901784	1	C	07/15/2015	10:50	-128.943	46.504	0	1274.30	0	2.8110	0	34.4510	0	27.472	0	1259.922	0	16.2	4	5.0	4	-1E+10	1	-1E+10	1	-1E+10	1	-1E+10	1	-1E+10	1	-1E+10	1
4901784	1	C	07/15/2015	10:50	-128.943	46.504	0	1280.00	0	2.7980	0	34.4520	0	27.474	0	1265.541	0	16.4	4	5.0	4	-1E+10	1	-1E+10	1	-1E+10	1	-1E+10	1	-1E+10	1	-1E+10	1
4901784	1	C	07/15/2015	10:50	-128.943	46.504	0	1285.80	0	2.7870	0	34.4540	0	27.476	0	1271.258	0	16.6	4	5.1	4	-1E+10	1	-1E+10	1	-1E+10	1	-1E+10	1	-1E+10	1	-1E+10	1
4901784	1	C	07/15/2015	10:50	-128.943	46.504	0	1290.70	0	2.7810	0	34.4560	0	27.478	0	1276.087	0	16.8	4	5.1	4	-1E+10	1	-1E+10	1	-1E+10	1	-1E+10	1	-1E+10	1	-1E+10	1
4901784	1	C	07/15/2015	10:50	-128.943	46.504	0	1295.70	0	2.7710	0	34.4570	0	27.480	0	1281.016	0	16.9	4	5.2	4	-1E+10	1	-1E+10	1	-1E+10	1	-1E+10	1	-1E+10	1	-1E+10	1
4901784	1	C	07/15/2015	10:50	-128.943	46.504	0	1300.00	0	2.7640	0	34.4580	0	27.481	0	1285.254	0	17.0	4	5.2	4	-1E+10	1	-1E+10	1	-1E+10	1	-1E+10	1	-1E+10	1	-1E+10	1
4901784	1	C	07/15/2015	10:50	-128.943	46.504	0	1304.20	0	2.7570	0	34.4600	0	27.484	0	1289.393	0	17.2	4	5.3	4	-1E+10	1	-1E+10	1	-1E+10	1	-1E+10	1	-1E+10	1	-1E+10	1
4901784	1	C	07/15/2015	10:50	-128.943	46.504	0	1309.30	0	2.7470	0	34.4610	0	27.485	0	1294.420	0	17.4	4	5.3	4	-1E+10	1	-1E+10	1	-1E+10	1	-1E+10	1	-1E+10	1	-1E+10	1
4901784	1	C	07/15/2015	10:50	-128.943	46.504	0	1314.40	0	2.7380	0	34.4630	0	27.488	0	1299.446	0	17.7	4	5.4	4	-1E+10	1	-1E+10	1	-1E+10	1	-1E+10	1	-1E+10	1	-1E+10	1
4901784	1	C	07/15/2015	10:50	-128.943	46.504	0	1319.60	0	2.7290	0	34.4640	0	27.489	0	1304.571	0	17.9	4	5.5	4	-1E+10	1	-1E+10	1	-1E+10	1	-1E+10	1	-1E+10	1	-1E+10	1
4901784	1	C	07/15/2015	10:50	-128.943	46.504	0	1324.90	0	2.7130	0	34.4670	0	27.493	0	1309.794	0	18.2	4	5.6	4	-1E+10	1	-1E+10	1	-1E+10	1	-1E+10	1	-1E+10	1	-1E+10	1
4901784	1	C	07/15/2015	10:50	-128.943	46.504	0	1330.10	0	2.7040	0	34.4680	0	27.495	0	1314.919	0	18.5	4	5.7	4	-1E+10	1	-1E+10	1	-1E+10	1	-1E+10	1	-1E+10	1	-1E+10	1
4901784	1	C	07/15/2015	10:50	-128.943	46.504	0	1335.40	0	2.6980	0	34.4700	0	27.497	0	1320.142	0	18.8	4	5.8	4	-1E+10	1	-1E+10	1	-1E+10	1	-1E+10	1	-1E+10	1	-1E+10	1
4901784	1	C	07/15/2015	10:50	-128.943	46.504	0	1339.90	0	2.6910	0	34.4720	0	27.499	0	1324.576	0	19.1	4	5.8	4	-1E+10	1	-1E+10	1	-1E+10	1	-1E+10	1	-1E+10	1	-1E+10	1
4901784	1	C	07/15/2015	10:50	-128.943	46.504	0	1344.30	0	2.6820	0	34.4730	0	27.501	0	1328.912	0	19.2	4	5.9	4	-1E+10	1	-1E+10	1	-1E+10	1	-1E+10	1	-1E+10	1	-1E+10	1
4901784	1	C	07/15/2015	10:50	-128.943	46.504	0	1349.60	0	2.6630	0	34.4750	0	27.504	0	1334.134	0	19.3	4	5.9	4	-1E+10	1	-1E+10	1	-1E+10	1	-1E+10	1	-1E+10	1	-1E+10	1
4901784	1	C	07/15/2015	10:50	-128.943	46.504	0	1354.90	0	2.6540	0	34.4750	0	27.505	0	1339.357	0	19.5	4	6.0	4	-1E+10	1	-1E+10	1	-1E+10	1	-1E+10	1	-1E+10	1	-1E+10	1
4901784	1	C	07/15/2015	10:50	-128.943	46.504	0	1360.30	0	2.6430	0	34.4770	0	27.507	0	1344.678	0	19.9	4	6.1	4	-1E+10	1	-1E+10	1	-1E+10	1	-1E+10	1	-1E+10	1	-1E+10	1
4901784	1	C	07/15/2015	10:50	-128.943	46.504	0	1364.80	0	2.6390	0	34.4790	0	27.509	0	1349.112	0	20.1	4	6.2	4	-1E+10	1	-1E+10	1	-1E+10	1	-1E+10	1	-1E+10	1	-1E+10	1
4901784	1	C	07/15/2015	10:50	-128.943	46.504	0	1369.40	0	2.6310	0	34.4800	0	27.511	0	1353.644	0	20.4	4	6.2	4	-1E+10	1	-1E+10	1	-1E+10	1	-1E+10	1	-1E+10	1	-1E+10	1
4901784	1	C	07/15/2015	10:50	-128.943	46.504	0	1374.80	0	2.6280	0	34.4820	0	27.513	0	1358.964	0	20.7	4	6.3	4	-1E+10	1	-1E+10	1	-1E+10	1	-1E+10	1	-1E+10	1	-1E+10	1
4901784	1	C	07/15/2015	10:50	-128.943	46.504	0	1380.20	0	2.6200	0	34.4830	0	27.514	0	1364.285	0	20.8	4	6.4	4	-1E+10	1	-1E+10	1	-1E+10	1	-1E+10	1	-1E+10	1	-1E+10	1
4901784	1	C	07/15/2015	10:50	-128.943	46.504	0	1384.80	0	2.6050	0	34.4830	0	27.516	0	1368.817	0	20.9	4	6.4	4	-1E+10	1	-1E+10	1	-1E+10	1	-1E+10	1	-1E+10	1	-1E+10	1
4901784	1	C	07/15/2015	10:50	-128.943	46.504	0	1389.40	0	2.5910	0	34.4840	0	27.518	0	1373.349	0	21.0	4	6.4	4	-1E+10	1	-1E+10	1	-1E+10	1	-1E+10	1	-1E+10	1	-1E+10	1
4901784	1	C	07/15/2015	10:50	-128.943	46.504	0	1395.00	0	2.5820	0	34.4860	0	27.520	0	1378.866	0	21.3	4	6.5	4	-1E+10	1	-1E+10	1	-1E+10	1	-1E+10	1	-1E+10	1	-1E+10	1
4901784	1	C	07/15/2015	10:50	-128.943	46.504	0	1399.60	0	2.5770	0	34.4870	0	27.521	0	1383.397	0	21.4	4	6.6	4	-1E+10	1	-1E+10	1	-1E+10	1	-1E+10	1	-1E+10	1	-1E+10	1
4901784	1	C	07/15/2015	10:50	-128.943	46.504	0	1404.10	0	2.5740	0	34.4870	0	27.522	0	1387.831	0	21.6	4	6.6	4	-1E+10	1	-1E+10	1	-1E+10	1	-1E+10	1	-1E+10	1	-1E+10	1
4901784	1	C	07/15/2015	10:50	-128.943	46.504	0	1409.60	0	2.5670	0	34.4880	0	27.523	0	1393.249	0	21.8	4	6.7	4	-1E+10	1	-1E+10	1	-1E+10	1	-1E+10	1	-1E+10	1	-1E+10	1
4901784	1	C	07/15/2015	10:50	-128.943	46.504	0	1414.50	0	2.5620	0	34.4890	0	27.524	0	1398.076	0	22.0	4	6.7	4	-1E+10	1	-1E+10	1	-1E+10	1	-1E+10	1	-1E+10	1	-1E+10	1
4901784	1	C	07/15/2015	10:50	-128.943	46.504	0	1419.30	0	2.5540	0	34.4900	0	27.526	0	1402.804	0	22.3	4	6.8	4	-1E+10	1	-1E+10	1	-1E+10	1	-1E+10	1	-1E+10	1	-1E+10	1
4901784	1	C	07/15/2015	10:50	-128.943	46.504	0	1425.00	0	2.5440	0	34.4920	0	27.528	0	1408.419	0	22.6	4	6.9	4	-1E+10	1	-1E+10	1	-1E+10	1	-1E+10	1	-1E+10	1	-1E+10	1
4901784	1	C	07/15/2015	10:50	-128.943	46.504	0	1430.80	0	2.5370	0	34.4930	0	27.530	0	1414.132	0	22.9	4	7.0	4	-1E+10	1	-1E+10	1	-1E+10	1	-1E+10	1	-1E+10	1	-1E+10	1
4901784	1	C	07/15/2015	10:50	-128.943	46.504	0	1435.70	0	2.5340	0	34.4940	0	27.531	0	1418.958	0	23.2	4	7.1	4	-1E+10	1	-1E+10	1	-1E+10	1	-1E+10	1	-1E+10	1	-1E+10	1
4901784	1	C	07/15/2015	10:50	-128.943	46.504	0	1440.80	0	2.5380	0	34.4960	0	27.532	0	1423.982	0	23.7	4	7.2	4	-1E+10	1	-1E+10	1	-1E+10	1	-1E+10	1	-1E+10	1	-1E+10	1
4901784	1	C	07/15/2015	10:50	-128.943	46.504	0	1445.80	0	2.5260	0	34.4980	0	27.535	0	1428.906	0	24.0	4	7.3	4	-1E+10	1	-1E+10	1	-1E+10	1	-1E+10	1	-1E+10	1	-1E+10	1
4901784	1	C	07/15/2015	10:50	-128.943	46.504	0	1450.80	0	2.5220	0	34.4990	0	27.536	0	1433.831	0	24.4	4	7.4	4	-1E+10	1	-1E+10	1	-1E+10	1	-1E+10	1	-1E+10	1	-1E+10	1
4901784	1	C	07/15/2015	10:50	-128.943	46.504	0	1455.00	0	2.5190	0	34.5000	0	27.537	0	1437.967	0	24.6	4	7.5	4	-1E+10	1	-1E+10	1	-1E+10	1	-1E+10	1	-1E+10	1	-1E+10	1
4901784	1	C	07/15/2015	10:50	-128.943	46.504	0	1459.20	0	2.5170	0	34.5010	0	27.538	0	1442.104	0	24.8	4	7.6	4	-1E+10	1	-1E+10	1	-1E+10	1	-1E+10	1	-1E+10	1	-1E+10	1
4901784	1	C	07/15/2015	10:50	-128.943	46.504	0	1464.40	0	2.5090	0	34.5020	0	27.539	0	1447.225	0	25.0	4	7.6	4	-1E+10	1	-1E+10	1	-1E+10	1	-1E+10	1	-1E+10	1	-1E+10	1
4901784	1	C	07/15/2015	10:50	-128.943	46.504	0	1469.50	0	2.5000	0	34.5030	0	27.541	0	1452.248	0	25.4	4	7.7	4	-1E+10	1	-1E+10	1	-1E+10	1	-1E+10	1	-1E+10	1	-1E+10	1
4901784	1	C	07/15/2015	10:50	-128.943	46.504	0	1474.70	0	2.4900	0	34.5050	0	27.543	0	1457.369	0	25.6	4	7.8	4	-1E+10	1	-1E+10	1	-1E+10	1	-1E+10	1	-1E+10	1	-1E+10	1
4901784	1	C	07/15/2015	10:50	-128.943	46.504	0	1479.80	0	2.4780	0	34.5050	0	27.544	0	1462.391	0	25.8	4	7.9	4	-1E+10	1	-1E+10	1	-1E+10	1	-1E+10	1	-1E+10	1	-1E+10	1
4901784	1	C	07/15/2015	10:50	-128.943	46.504	0	1485.00	0	2.4730	0	34.5060	0	27.546	0	1467.512	0	26.1	4	8.0	4	-1E+10	1	-1E+10	1	-1E+10	1	-1E+10	1	-1E+10	1	-1E+10	1
4901784	1	C	07/15/2015	10:50	-128.943	46.504	0	1490.20	0	2.4620	0	34.5070	0	27.547	0	1472.633	0	26.3	4	8.0	4	-1E+10	1	-1E+10	1	-1E+10	1	-1E+10	1	-1E+10	1	-1E+10	1
4901784	1	C	07/15/2015	10:50	-128.943	46.504	0	1495.40	0	2.4550	0	34.5080	0	27.549	0	1477.753	0	26.6	4	8.1	4	-1E+10	1	-1E+10	1	-1E+10	1	-1E+10	1	-1E+10	1	-1E+10	1
4901784	1	C	07/15/2015	10:50	-128.943	46.504	0	1500.70	0	2.4500	0	34.5090	0	27.550	0	1482.972	0	26.9	4	8.2	4	-1E+10	1	-1E+10	1	-1E+10	1	-1E+10	1	-1E+10	1	-1E+10	1
4901784	1	C	07/15/2015	10:50	-128.943	46.504	0	1505.00	0	2.4490	0	34.5110	0	27.552	0	1487.206	0	27.2	4	8.3	4	-1E+10	1	-1E+10	1	-1E+10	1	-1E+10	1	-1E+10	1	-1E+10	1
4901784	1	C	07/15/2015	10:50	-128.943	46.504	0	1509.50	0	2.4360	0	34.5110	0	27.553	0	1491.637	0	27.4	4	8.3	4	-1E+10	1	-1E+10	1	-1E+10	1	-1E+10	1	-1E+10	1	-1E+10	1
4901784	1	C	07/15/2015	10:50	-128.943	46.504	0	1514.90	0	2.4310	0	34.5120	0	27.554	0	1496.954	0	27.7	4	8.4	4	-1E+10	1	-1E+10	1	-1E+10	1	-1E+10	1	-1E+10	1	-1E+10	1
4901784	1	C	07/15/2015	10:50	-128.943	46.504	0	1520.30	0	2.4230	0	34.5130	0	27.556	0	1502.271	0	28.1	4	8.5	4	-1E+10	1	-1E+10	1	-1E+10	1	-1E+10	1	-1E+10	1	-1E+10	1
4901784	1	C	07/15/2015	10:50	-128.943	46.504	0	1524.80	0	2.4170	0	34.5140	0	27.557	0	1506.702	0	28.4	4	8.6	4	-1E+10	1	-1E+10	1	-1E+10	1	-1E+10	1	-1E+10	1	-1E+10	1
4901784	1	C	07/15/2015	10:50	-128.943	46.504	0	1529.30	0	2.4030	0	34.5150	0	27.559	0	1511.132	0	28.7	4	8.7	4	-1E+10	1	-1E+10	1	-1E+10	1	-1E+10	1	-1E+10	1	-1E+10	1
4901784	1	C	07/15/2015	10:50	-128.943	46.504	0	1534.80	0	2.3950	0	34.5160	0	27.560	0	1516.547	0	29.0	4	8.8	4	-1E+10	1	-1E+10	1	-1E+10	1	-1E+10	1	-1E+10	1	-1E+10	1
4901784	1	C	07/15/2015	10:50	-128.943	46.504	0	1540.30	0	2.3900	0	34.5170	0	27.562	0	1521.962	0	29.3	4	8.9	4	-1E+10	1	-1E+10	1	-1E+10	1	-1E+10	1	-1E+10	1	-1E+10	1
4901784	1	C	07/15/2015	10:50	-128.943	46.504	0	1544.80	0	2.3860	0	34.5180	0	27.563	0	1526.392	0	29.6	4	9.0	4	-1E+10	1	-1E+10	1	-1E+10	1	-1E+10	1	-1E+10	1	-1E+10	1
4901784	1	C	07/15/2015	10:50	-128.943	46.504	0	1549.50	0	2.3800	0	34.5190	0	27.564	0	1531.019	0	29.9	4	9.1	4	-1E+10	1	-1E+10	1	-1E+10	1	-1E+10	1	-1E+10	1	-1E+10	1
4901784	1	C	07/15/2015	10:50	-128.943	46.504	0	1555.00	0	2.3710	0	34.5200	0	27.566	0	1536.434	0	30.3	4	9.2	4	-1E+10	1	-1E+10	1	-1E+10	1	-1E+10	1	-1E+10	1	-1E+10	1
4901784	1	C	07/15/2015	10:50	-128.943	46.504	0	1560.30	0	2.3610	0	34.5220	0	27.568	0	1541.651	0	30.8	4	9.4	4	-1E+10	1	-1E+10	1	-1E+10	1	-1E+10	1	-1E+10	1	-1E+10	1
4901784	1	C	07/15/2015	10:50	-128.943	46.504	0	1565.60	0	2.3530	0	34.5230	0	27.570	0	1546.868	0	31.1	4	9.4	4	-1E+10	1	-1E+10	1	-1E+10	1	-1E+10	1	-1E+10	1	-1E+10	1
4901784	1	C	07/15/2015	10:50	-128.943	46.504	0	1570.40	0	2.3490	0	34.5240	0	27.571	0	1551.593	0	31.3	4	9.5	4	-1E+10	1	-1E+10	1	-1E+10	1	-1E+10	1	-1E+10	1	-1E+10	1
4901784	1	C	07/15/2015	10:50	-128.943	46.504	0	1575.30	0	2.3440	0	34.5240	0	27.571	0	1556.417	0	31.6	4	9.6	4	-1E+10	1	-1E+10	1	-1E+10	1	-1E+10	1	-1E+10	1	-1E+10	1
4901784	1	C	07/15/2015	10:50	-128.943	46.504	0	1580.20	0	2.3370	0	34.5260	0	27.573	0	1561.240	0	31.9	4	9.7	4	-1E+10	1	-1E+10	1	-1E+10	1	-1E+10	1	-1E+10	1	-1E+10	1
4901784	1	C	07/15/2015	10:50	-128.943	46.504	0	1585.10	0	2.3270	0	34.5270	0	27.575	0	1566.063	0	32.3	4	9.8	4	-1E+10	1	-1E+10	1	-1E+10	1	-1E+10	1	-1E+10	1	-1E+10	1
4901784	1	C	07/15/2015	10:50	-128.943	46.504	0	1590.00	0	2.3170	0	34.5280	0	27.577	0	1570.886	0	32.7	4	9.9	4	-1E+10	1	-1E+10	1	-1E+10	1	-1E+10	1	-1E+10	1	-1E+10	1
4901784	1	C	07/15/2015	10:50	-128.943	46.504	0	1595.00	0	2.3120	0	34.5290	0	27.578	0	1575.807	0	32.9	4	10.0	4	-1E+10	1	-1E+10	1	-1E+10	1	-1E+10	1	-1E+10	1	-1E+10	1
4901784	1	C	07/15/2015	10:50	-128.943	46.504	0	1600.00	0	2.3040	0	34.5300	0	27.579	0	1580.728	0	33.2	4	10.1	4	-1E+10	1	-1E+10	1	-1E+10	1	-1E+10	1	-1E+10	1	-1E+10	1
4901784	1	C	07/15/2015	10:50	-128.943	46.504	0	1605.10	0	2.3010	0	34.5300	0	27.580	0	1585.748	0	33.4	4	10.1	4	-1E+10	1	-1E+10	1	-1E+10	1	-1E+10	1	-1E+10	1	-1E+10	1
4901784	1	C	07/15/2015	10:50	-128.943	46.504	0	1610.20	0	2.2920	0	34.5310	0	27.581	0	1590.767	0	33.7	4	10.2	4	-1E+10	1	-1E+10	1	-1E+10	1	-1E+10	1	-1E+10	1	-1E+10	1
4901784	1	C	07/15/2015	10:50	-128.943	46.504	0	1615.30	0	2.2860	0	34.5320	0	27.583	0	1595.786	0	33.9	4	10.3	4	-1E+10	1	-1E+10	1	-1E+10	1	-1E+10	1	-1E+10	1	-1E+10	1
4901784	1	C	07/15/2015	10:50	-128.943	46.504	0	1620.40	0	2.2810	0	34.5330	0	27.584	0	1600.806	0	34.2	4	10.4	4	-1E+10	1	-1E+10	1	-1E+10	1	-1E+10	1	-1E+10	1	-1E+10	1
4901784	1	C	07/15/2015	10:50	-128.943	46.504	0	1625.60	0	2.2740	0	34.5340	0	27.585	0	1605.923	0	34.5	4	10.5	4	-1E+10	1	-1E+10	1	-1E+10	1	-1E+10	1	-1E+10	1	-1E+10	1
4901784	1	C	07/15/2015	10:50	-128.943	46.504	0	1630.70	0	2.2690	0	34.5340	0	27.586	0	1610.942	0	34.8	4	10.6	4	-1E+10	1	-1E+10	1	-1E+10	1	-1E+10	1	-1E+10	1	-1E+10	1
4901784	1	C	07/15/2015	10:50	-128.943	46.504	0	1635.00	0	2.2610	0	34.5350	0	27.587	0	1615.173	0	35.1	4	10.6	4	-1E+10	1	-1E+10	1	-1E+10	1	-1E+10	1	-1E+10	1	-1E+10	1
4901784	1	C	07/15/2015	10:50	-128.943	46.504	0	1639.40	0	2.2550	0	34.5360	0	27.588	0	1619.503	0	35.4	4	10.7	4	-1E+10	1	-1E+10	1	-1E+10	1	-1E+10	1	-1E+10	1	-1E+10	1
4901784	1	C	07/15/2015	10:50	-128.943	46.504	0	1644.70	0	2.2460	0	34.5380	0	27.591	0	1624.718	0	35.7	4	10.8	4	-1E+10	1	-1E+10	1	-1E+10	1	-1E+10	1	-1E+10	1	-1E+10	1
4901784	1	C	07/15/2015	10:50	-128.943	46.504	0	1649.90	0	2.2420	0	34.5380	0	27.591	0	1629.835	0	36.0	4	10.9	4	-1E+10	1	-1E+10	1	-1E+10	1	-1E+10	1	-1E+10	1	-1E+10	1
4901784	1	C	07/15/2015	10:50	-128.943	46.504	0	1655.10	0	2.2350	0	34.5390	0	27.592	0	1634.952	0	36.3	4	11.0	4	-1E+10	1	-1E+10	1	-1E+10	1	-1E+10	1	-1E+10	1	-1E+10	1
4901784	1	C	07/15/2015	10:50	-128.943	46.504	0	1660.40	0	2.2290	0	34.5400	0	27.594	0	1640.167	0	36.7	4	11.1	4	-1E+10	1	-1E+10	1	-1E+10	1	-1E+10	1	-1E+10	1	-1E+10	1
4901784	1	C	07/15/2015	10:50	-128.943	46.504	0	1664.90	0	2.2250	0	34.5410	0	27.595	0	1644.595	0	37.0	4	11.2	4	-1E+10	1	-1E+10	1	-1E+10	1	-1E+10	1	-1E+10	1	-1E+10	1
4901784	1	C	07/15/2015	10:50	-128.943	46.504	0	1669.30	0	2.2200	0	34.5420	0	27.596	0	1648.924	0	37.5	4	11.4	4	-1E+10	1	-1E+10	1	-1E+10	1	-1E+10	1	-1E+10	1	-1E+10	1
4901784	1	C	07/15/2015	10:50	-128.943	46.504	0	1674.70	0	2.2140	0	34.5430	0	27.597	0	1654.237	0	37.8	4	11.5	4	-1E+10	1	-1E+10	1	-1E+10	1	-1E+10	1	-1E+10	1	-1E+10	1
4901784	1	C	07/15/2015	10:50	-128.943	46.504	0	1680.10	0	2.2080	0	34.5440	0	27.599	0	1659.550	0	38.1	4	11.6	4	-1E+10	1	-1E+10	1	-1E+10	1	-1E+10	1	-1E+10	1	-1E+10	1
4901784	1	C	07/15/2015	10:50	-128.943	46.504	0	1685.50	0	2.2030	0	34.5440	0	27.599	0	1664.863	0	38.4	4	11.6	4	-1E+10	1	-1E+10	1	-1E+10	1	-1E+10	1	-1E+10	1	-1E+10	1
4901784	1	C	07/15/2015	10:50	-128.943	46.504	0	1690.00	0	2.1990	0	34.5450	0	27.600	0	1669.290	0	38.8	4	11.8	4	-1E+10	1	-1E+10	1	-1E+10	1	-1E+10	1	-1E+10	1	-1E+10	1
4901784	1	C	07/15/2015	10:50	-128.943	46.504	0	1694.50	0	2.1920	0	34.5460	0	27.602	0	1673.717	0	39.1	4	11.8	4	-1E+10	1	-1E+10	1	-1E+10	1	-1E+10	1	-1E+10	1	-1E+10	1
4901784	1	C	07/15/2015	10:50	-128.943	46.504	0	1700.00	0	2.1860	0	34.5470	0	27.603	0	1679.128	0	39.5	4	12.0	4	-1E+10	1	-1E+10	1	-1E+10	1	-1E+10	1	-1E+10	1	-1E+10	1
4901784	1	C	07/15/2015	10:50	-128.943	46.504	0	1705.50	0	2.1750	0	34.5490	0	27.606	0	1684.538	0	39.9	4	12.1	4	-1E+10	1	-1E+10	1	-1E+10	1	-1E+10	1	-1E+10	1	-1E+10	1
4901784	1	C	07/15/2015	10:50	-128.943	46.504	0	1710.10	0	2.1720	0	34.5490	0	27.606	0	1689.064	0	40.1	4	12.1	4	-1E+10	1	-1E+10	1	-1E+10	1	-1E+10	1	-1E+10	1	-1E+10	1
4901784	1	C	07/15/2015	10:50	-128.943	46.504	0	1714.70	0	2.1680	0	34.5500	0	27.607	0	1693.589	0	40.3	4	12.2	4	-1E+10	1	-1E+10	1	-1E+10	1	-1E+10	1	-1E+10	1	-1E+10	1
4901784	1	C	07/15/2015	10:50	-128.943	46.504	0	1720.30	0	2.1620	0	34.5510	0	27.608	0	1699.097	0	40.7	4	12.3	4	-1E+10	1	-1E+10	1	-1E+10	1	-1E+10	1	-1E+10	1	-1E+10	1
4901784	1	C	07/15/2015	10:50	-128.943	46.504	0	1725.00	0	2.1570	0	34.5510	0	27.609	0	1703.720	0	40.9	4	12.4	4	-1E+10	1	-1E+10	1	-1E+10	1	-1E+10	1	-1E+10	1	-1E+10	1
4901784	1	C	07/15/2015	10:50	-128.943	46.504	0	1729.60	0	2.1510	0	34.5520	0	27.610	0	1708.245	0	41.3	4	12.5	4	-1E+10	1	-1E+10	1	-1E+10	1	-1E+10	1	-1E+10	1	-1E+10	1
4901784	1	C	07/15/2015	10:50	-128.943	46.504	0	1735.30	0	2.1420	0	34.5530	0	27.612	0	1713.852	0	41.8	4	12.6	4	-1E+10	1	-1E+10	1	-1E+10	1	-1E+10	1	-1E+10	1	-1E+10	1
4901784	1	C	07/15/2015	10:50	-128.943	46.504	0	1740.00	0	2.1340	0	34.5550	0	27.614	0	1718.475	0	42.1	4	12.7	4	-1E+10	1	-1E+10	1	-1E+10	1	-1E+10	1	-1E+10	1	-1E+10	1
4901784	1	C	07/15/2015	10:50	-128.943	46.504	0	1744.60	0	2.1300	0	34.5550	0	27.614	0	1722.999	0	42.3	4	12.8	4	-1E+10	1	-1E+10	1	-1E+10	1	-1E+10	1	-1E+10	1	-1E+10	1
4901784	1	C	07/15/2015	10:50	-128.943	46.504	0	1750.10	0	2.1250	0	34.5560	0	27.615	0	1728.409	0	42.5	4	12.8	4	-1E+10	1	-1E+10	1	-1E+10	1	-1E+10	1	-1E+10	1	-1E+10	1
4901784	1	C	07/15/2015	10:50	-128.943	46.504	0	1755.60	0	2.1190	0	34.5570	0	27.617	0	1733.818	0	42.8	4	12.9	4	-1E+10	1	-1E+10	1	-1E+10	1	-1E+10	1	-1E+10	1	-1E+10	1
4901784	1	C	07/15/2015	10:50	-128.943	46.504	0	1760.60	0	2.1130	0	34.5570	0	27.617	0	1738.736	0	43.0	4	13.0	4	-1E+10	1	-1E+10	1	-1E+10	1	-1E+10	1	-1E+10	1	-1E+10	1
4901784	1	C	07/15/2015	10:50	-128.943	46.504	0	1765.50	0	2.1100	0	34.5580	0	27.618	0	1743.555	0	43.3	4	13.1	4	-1E+10	1	-1E+10	1	-1E+10	1	-1E+10	1	-1E+10	1	-1E+10	1
4901784	1	C	07/15/2015	10:50	-128.943	46.504	0	1770.40	0	2.1040	0	34.5590	0	27.620	0	1748.374	0	43.5	4	13.1	4	-1E+10	1	-1E+10	1	-1E+10	1	-1E+10	1	-1E+10	1	-1E+10	1
4901784	1	C	07/15/2015	10:50	-128.943	46.504	0	1775.40	0	2.1020	0	34.5590	0	27.620	0	1753.291	0	43.7	4	13.2	4	-1E+10	1	-1E+10	1	-1E+10	1	-1E+10	1	-1E+10	1	-1E+10	1
4901784	1	C	07/15/2015	10:50	-128.943	46.504	0	1780.40	0	2.0980	0	34.5600	0	27.621	0	1758.208	0	44.0	4	13.3	4	-1E+10	1	-1E+10	1	-1E+10	1	-1E+10	1	-1E+10	1	-1E+10	1
4901784	1	C	07/15/2015	10:50	-128.943	46.504	0	1785.50	0	2.0940	0	34.5610	0	27.622	0	1763.223	0	44.3	4	13.4	4	-1E+10	1	-1E+10	1	-1E+10	1	-1E+10	1	-1E+10	1	-1E+10	1
4901784	1	C	07/15/2015	10:50	-128.943	46.504	0	1790.50	0	2.0910	0	34.5610	0	27.622	0	1768.140	0	44.5	4	13.5	4	-1E+10	1	-1E+10	1	-1E+10	1	-1E+10	1	-1E+10	1	-1E+10	1
4901784	1	C	07/15/2015	10:50	-128.943	46.504	0	1795.60	0	2.0870	0	34.5620	0	27.623	0	1773.155	0	44.8	4	13.5	4	-1E+10	1	-1E+10	1	-1E+10	1	-1E+10	1	-1E+10	1	-1E+10	1
4901784	1	C	07/15/2015	10:50	-128.943	46.504	0	1800.60	0	2.0830	0	34.5620	0	27.624	0	1778.071	0	45.1	4	13.6	4	-1E+10	1	-1E+10	1	-1E+10	1	-1E+10	1	-1E+10	1	-1E+10	1
4901784	1	C	07/15/2015	10:50	-128.943	46.504	0	1804.90	0	2.0800	0	34.5630	0	27.625	0	1782.300	0	45.4	4	13.7	4	-1E+10	1	-1E+10	1	-1E+10	1	-1E+10	1	-1E+10	1	-1E+10	1
4901784	1	C	07/15/2015	10:50	-128.943	46.504	0	1809.20	0	2.0740	0	34.5640	0	27.626	0	1786.528	0	45.7	4	13.8	4	-1E+10	1	-1E+10	1	-1E+10	1	-1E+10	1	-1E+10	1	-1E+10	1
4901784	1	C	07/15/2015	10:50	-128.943	46.504	0	1814.50	0	2.0700	0	34.5650	0	27.627	0	1791.739	0	45.9	4	13.9	4	-1E+10	1	-1E+10	1	-1E+10	1	-1E+10	1	-1E+10	1	-1E+10	1
4901784	1	C	07/15/2015	10:50	-128.943	46.504	0	1819.70	0	2.0680	0	34.5660	0	27.628	0	1796.852	0	46.1	4	13.9	4	-1E+10	1	-1E+10	1	-1E+10	1	-1E+10	1	-1E+10	1	-1E+10	1
4901784	1	C	07/15/2015	10:50	-128.943	46.504	0	1825.00	0	2.0650	0	34.5660	0	27.629	0	1802.063	0	46.4	4	14.0	4	-1E+10	1	-1E+10	1	-1E+10	1	-1E+10	1	-1E+10	1	-1E+10	1
4901784	1	C	07/15/2015	10:50	-128.943	46.504	0	1830.30	0	2.0610	0	34.5660	0	27.629	0	1807.274	0	46.9	4	14.1	4	-1E+10	1	-1E+10	1	-1E+10	1	-1E+10	1	-1E+10	1	-1E+10	1
4901784	1	C	07/15/2015	10:50	-128.943	46.504	0	1835.60	0	2.0520	0	34.5680	0	27.631	0	1812.484	0	47.3	4	14.3	4	-1E+10	1	-1E+10	1	-1E+10	1	-1E+10	1	-1E+10	1	-1E+10	1
4901784	1	C	07/15/2015	10:50	-128.943	46.504	0	1840.10	0	2.0490	0	34.5690	0	27.632	0	1816.908	0	47.6	4	14.4	4	-1E+10	1	-1E+10	1	-1E+10	1	-1E+10	1	-1E+10	1	-1E+10	1
4901784	1	C	07/15/2015	10:50	-128.943	46.504	0	1844.50	0	2.0450	0	34.5690	0	27.633	0	1821.234	0	47.8	4	14.4	4	-1E+10	1	-1E+10	1	-1E+10	1	-1E+10	1	-1E+10	1	-1E+10	1
4901784	1	C	07/15/2015	10:50	-128.943	46.504	0	1849.90	0	2.0400	0	34.5700	0	27.634	0	1826.543	0	48.2	4	14.5	4	-1E+10	1	-1E+10	1	-1E+10	1	-1E+10	1	-1E+10	1	-1E+10	1
4901784	1	C	07/15/2015	10:50	-128.943	46.504	0	1855.30	0	2.0350	0	34.5710	0	27.635	0	1831.851	0	48.5	4	14.6	4	-1E+10	1	-1E+10	1	-1E+10	1	-1E+10	1	-1E+10	1	-1E+10	1
4901784	1	C	07/15/2015	10:50	-128.943	46.504	0	1860.70	0	2.0310	0	34.5710	0	27.635	0	1837.160	0	48.7	4	14.7	4	-1E+10	1	-1E+10	1	-1E+10	1	-1E+10	1	-1E+10	1	-1E+10	1
4901784	1	C	07/15/2015	10:50	-128.943	46.504	0	1865.10	0	2.0290	0	34.5720	0	27.636	0	1841.485	0	48.9	4	14.8	4	-1E+10	1	-1E+10	1	-1E+10	1	-1E+10	1	-1E+10	1	-1E+10	1
4901784	1	C	07/15/2015	10:50	-128.943	46.504	0	1869.70	0	2.0270	0	34.5730	0	27.637	0	1846.007	0	49.2	4	14.9	4	-1E+10	1	-1E+10	1	-1E+10	1	-1E+10	1	-1E+10	1	-1E+10	1
4901784	1	C	07/15/2015	10:50	-128.943	46.504	0	1875.10	0	2.0240	0	34.5730	0	27.638	0	1851.315	0	49.5	4	14.9	4	-1E+10	1	-1E+10	1	-1E+10	1	-1E+10	1	-1E+10	1	-1E+10	1
4901784	1	C	07/15/2015	10:50	-128.943	46.504	0	1880.60	0	2.0200	0	34.5740	0	27.639	0	1856.721	0	49.8	4	15.0	4	-1E+10	1	-1E+10	1	-1E+10	1	-1E+10	1	-1E+10	1	-1E+10	1
4901784	1	C	07/15/2015	10:50	-128.943	46.504	0	1885.20	0	2.0150	0	34.5740	0	27.639	0	1861.243	0	50.0	4	15.1	4	-1E+10	1	-1E+10	1	-1E+10	1	-1E+10	1	-1E+10	1	-1E+10	1
4901784	1	C	07/15/2015	10:50	-128.943	46.504	0	1889.80	0	2.0110	0	34.5750	0	27.640	0	1865.764	0	50.4	4	15.2	4	-1E+10	1	-1E+10	1	-1E+10	1	-1E+10	1	-1E+10	1	-1E+10	1
4901784	1	C	07/15/2015	10:50	-128.943	46.504	0	1895.00	0	2.0050	0	34.5760	0	27.642	0	1870.875	0	50.8	4	15.3	4	-1E+10	1	-1E+10	1	-1E+10	1	-1E+10	1	-1E+10	1	-1E+10	1
4901784	1	C	07/15/2015	10:50	-128.943	46.504	0	1900.00	0	2.0000	0	34.5770	0	27.643	0	1875.789	0	51.2	4	15.4	4	-1E+10	1	-1E+10	1	-1E+10	1	-1E+10	1	-1E+10	1	-1E+10	1
4901784	1	C	07/15/2015	10:50	-128.943	46.504	0	1905.70	0	1.9920	0	34.5780	0	27.644	0	1881.392	0	51.8	4	15.6	4	-1E+10	1	-1E+10	1	-1E+10	1	-1E+10	1	-1E+10	1	-1E+10	1
4901784	1	C	07/15/2015	10:50	-128.943	46.504	0	1910.60	0	1.9890	0	34.5790	0	27.645	0	1886.207	0	52.0	4	15.7	4	-1E+10	1	-1E+10	1	-1E+10	1	-1E+10	1	-1E+10	1	-1E+10	1
4901784	1	C	07/15/2015	10:50	-128.943	46.504	0	1915.60	0	1.9850	0	34.5800	0	27.646	0	1891.121	0	52.4	4	15.8	4	-1E+10	1	-1E+10	1	-1E+10	1	-1E+10	1	-1E+10	1	-1E+10	1
4901784	1	C	07/15/2015	10:50	-128.943	46.504	0	1920.50	0	1.9810	0	34.5800	0	27.647	0	1895.937	0	52.6	4	15.9	4	-1E+10	1	-1E+10	1	-1E+10	1	-1E+10	1	-1E+10	1	-1E+10	1
4901784	1	C	07/15/2015	10:50	-128.943	46.504	0	1925.50	0	1.9780	0	34.5800	0	27.647	0	1900.851	0	52.9	4	15.9	4	-1E+10	1	-1E+10	1	-1E+10	1	-1E+10	1	-1E+10	1	-1E+10	1
4901784	1	C	07/15/2015	10:50	-128.943	46.504	0	1930.50	0	1.9730	0	34.5820	0	27.649	0	1905.764	0	53.3	4	16.1	4	-1E+10	1	-1E+10	1	-1E+10	1	-1E+10	1	-1E+10	1	-1E+10	1
4901784	1	C	07/15/2015	10:50	-128.943	46.504	0	1935.50	0	1.9690	0	34.5820	0	27.649	0	1910.678	0	53.7	4	16.2	4	-1E+10	1	-1E+10	1	-1E+10	1	-1E+10	1	-1E+10	1	-1E+10	1
4901784	1	C	07/15/2015	10:50	-128.943	46.504	0	1940.60	0	1.9650	0	34.5830	0	27.651	0	1915.689	0	54.0	4	16.3	4	-1E+10	1	-1E+10	1	-1E+10	1	-1E+10	1	-1E+10	1	-1E+10	1
4901784	1	C	07/15/2015	10:50	-128.943	46.504	0	1945.60	0	1.9610	0	34.5840	0	27.652	0	1920.603	0	54.3	4	16.4	4	-1E+10	1	-1E+10	1	-1E+10	1	-1E+10	1	-1E+10	1	-1E+10	1
4901784	1	C	07/15/2015	10:50	-128.943	46.504	0	1950.60	0	1.9580	0	34.5840	0	27.652	0	1925.516	0	54.7	4	16.5	4	-1E+10	1	-1E+10	1	-1E+10	1	-1E+10	1	-1E+10	1	-1E+10	1
4901784	1	C	07/15/2015	10:50	-128.943	46.504	0	1955.60	0	1.9520	0	34.5850	0	27.653	0	1930.429	0	55.0	4	16.6	4	-1E+10	1	-1E+10	1	-1E+10	1	-1E+10	1	-1E+10	1	-1E+10	1
4901784	1	C	07/15/2015	10:50	-128.943	46.504	0	1960.60	0	1.9490	0	34.5860	0	27.654	0	1935.342	0	55.3	4	16.6	4	-1E+10	1	-1E+10	1	-1E+10	1	-1E+10	1	-1E+10	1	-1E+10	1
4901784	1	C	07/15/2015	10:50	-128.943	46.504	0	1965.70	0	1.9460	0	34.5870	0	27.655	0	1940.353	0	55.5	4	16.7	4	-1E+10	1	-1E+10	1	-1E+10	1	-1E+10	1	-1E+10	1	-1E+10	1
4901784	1	C	07/15/2015	10:50	-128.943	46.504	0	1970.70	0	1.9430	0	34.5870	0	27.656	0	1945.266	0	55.8	4	16.8	4	-1E+10	1	-1E+10	1	-1E+10	1	-1E+10	1	-1E+10	1	-1E+10	1
4901784	1	C	07/15/2015	10:50	-128.943	46.504	0	1975.00	0	1.9400	0	34.5880	0	27.657	0	1949.491	0	56.0	4	16.9	4	-1E+10	1	-1E+10	1	-1E+10	1	-1E+10	1	-1E+10	1	-1E+10	1
4901784	1	C	07/15/2015	10:50	-128.943	46.504	0	1979.20	0	1.9390	0	34.5880	0	27.657	0	1953.617	0	56.1	4	16.9	4	-1E+10	1	-1E+10	1	-1E+10	1	-1E+10	1	-1E+10	1	-1E+10	1
4901784	1	C	07/15/2015	10:50	-128.943	46.504	0	1984.30	0	1.9370	0	34.5880	0	27.657	0	1958.628	0	56.4	4	17.0	4	-1E+10	1	-1E+10	1	-1E+10	1	-1E+10	1	-1E+10	1	-1E+10	1
4901784	1	C	07/15/2015	10:50	-128.943	46.504	0	1989.50	0	1.9330	0	34.5890	0	27.658	0	1963.737	0	56.7	4	17.1	4	-1E+10	1	-1E+10	1	-1E+10	1	-1E+10	1	-1E+10	1	-1E+10	1
4901784	1	C	07/15/2015	10:50	-128.943	46.504	0	1994.70	0	1.9300	0	34.5890	0	27.658	0	1968.845	0	57.0	4	17.2	4	-1E+10	1	-1E+10	1	-1E+10	1	-1E+10	1	-1E+10	1	-1E+10	1
4901784	1	C	07/15/2015	10:50	-128.943	46.504	0	1999.90	0	1.9260	0	34.5910	0	27.660	0	1973.954	0	57.3	4	17.2	4	-1E+10	1	-1E+10	1	-1E+10	1	-1E+10	1	-1E+10	1	-1E+10	1
4901784	1	C	07/15/2015	10:50	-128.943	46.504	0	2005.60	0	1.9230	0	34.5910	0	27.661	0	1979.553	0	57.6	4	17.3	4	-1E+10	1	-1E+10	1	-1E+10	1	-1E+10	1	-1E+10	1	-1E+10	1
4901784	1	C	07/15/2015	10:50	-128.943	46.504	0	2010.40	0	1.9200	0	34.5920	0	27.662	0	1984.269	0	57.9	4	17.4	4	-1E+10	1	-1E+10	1	-1E+10	1	-1E+10	1	-1E+10	1	-1E+10	1
4901784	1	C	07/15/2015	10:50	-128.943	46.504	0	2015.40	0	1.9170	0	34.5920	0	27.662	0	1989.180	0	58.1	4	17.5	4	-1E+10	1	-1E+10	1	-1E+10	1	-1E+10	1	-1E+10	1	-1E+10	1
4901784	1	C	07/15/2015	10:50	-128.943	46.504	0	2020.00	0	1.9150	0	34.5930	0	27.663	0	1993.699	0	58.3	4	17.5	4	-1E+10	1	-1E+10	1	-1E+10	1	-1E+10	1	-1E+10	1	-1E+10	1
4901784	1	C	07/15/2015	10:50	-128.943	46.504	0																										
4901784	2	C	07/25/2015	10:44	-128.843	46.578	0	2.10	0	17.2400	0	31.9770	0	23.140	0	2.083	0	237.8	4	98.2	4	-1E+10	1	-1E+10	1	-1E+10	1	-1E+10	1	-1E+10	1	-1E+10	1
4901784	2	C	07/25/2015	10:44	-128.843	46.578	0	3.50	0	17.2400	0	31.9770	0	23.140	0	3.471	0	237.8	4	98.2	4	-1E+10	1	-1E+10	1	-1E+10	1	-1E+10	1	-1E+10	1	-1E+10	1
4901784	2	C	07/25/2015	10:44	-128.843	46.578	0	5.10	0	17.2390	0	31.9770	0	23.141	0	5.058	0	237.7	4	98.1	4	-1E+10	1	-1E+10	1	-1E+10	1	-1E+10	1	-1E+10	1	-1E+10	1
4901784	2	C	07/25/2015	10:44	-128.843	46.578	0	6.70	0	17.2380	0	31.9770	0	23.141	0	6.645	0	237.6	4	98.1	4	-1E+10	1	-1E+10	1	-1E+10	1	-1E+10	1	-1E+10	1	-1E+10	1
4901784	2	C	07/25/2015	10:44	-128.843	46.578	0	8.40	0	17.2390	0	31.9770	0	23.141	0	8.330	0	237.5	4	98.0	4	-1E+10	1	-1E+10	1	-1E+10	1	-1E+10	1	-1E+10	1	-1E+10	1
4901784	2	C	07/25/2015	10:44	-128.843	46.578	0	10.10	0	17.2330	0	31.9770	0	23.142	0	10.016	0	237.4	4	98.0	4	-1E+10	1	-1E+10	1	-1E+10	1	-1E+10	1	-1E+10	1	-1E+10	1
4901784	2	C	07/25/2015	10:44	-128.843	46.578	0	11.70	0	17.2300	0	31.9770	0	23.143	0	11.603	0	237.3	4	98.0	4	-1E+10	1	-1E+10	1	-1E+10	1	-1E+10	1	-1E+10	1	-1E+10	1
4901784	2	C	07/25/2015	10:44	-128.843	46.578	0	13.30	0	17.2270	0	31.9750	0	23.142	0	13.190	0	237.0	4	97.8	4	-1E+10	1	-1E+10	1	-1E+10	1	-1E+10	1	-1E+10	1	-1E+10	1
4901784	2	C	07/25/2015	10:44	-128.843	46.578	0	14.80	0	17.2060	0	31.9770	0	23.149	0	14.677	0	237.2	4	97.8	4	-1E+10	1	-1E+10	1	-1E+10	1	-1E+10	1	-1E+10	1	-1E+10	1
4901784	2	C	07/25/2015	10:44	-128.843	46.578	0	16.40	0	17.1910	0	31.9770	0	23.152	0	16.264	0	237.3	4	97.9	4	-1E+10	1	-1E+10	1	-1E+10	1	-1E+10	1	-1E+10	1	-1E+10	1
4901784	2	C	07/25/2015	10:44	-128.843	46.578	0	18.00	0	17.1680	0	31.9790	0	23.159	0	17.851	0	237.2	4	97.8	4	-1E+10	1	-1E+10	1	-1E+10	1	-1E+10	1	-1E+10	1	-1E+10	1
4901784	2	C	07/25/2015	10:44	-128.843	46.578	0	19.80	0	17.1090	0	31.9830	0	23.176	0	19.635	0	237.3	4	97.7	4	-1E+10	1	-1E+10	1	-1E+10	1	-1E+10	1	-1E+10	1	-1E+10	1
4901784	2	C	07/25/2015	10:44	-128.843	46.578	0	21.50	0	17.0730	0	31.9860	0	23.187	0	21.321	0	237.3	4	97.6	4	-1E+10	1	-1E+10	1	-1E+10	1	-1E+10	1	-1E+10	1	-1E+10	1
4901784	2	C	07/25/2015	10:44	-128.843	46.578	0	23.20	0	17.0410	0	31.9880	0	23.196	0	23.007	0	237.5	4	97.7	4	-1E+10	1	-1E+10	1	-1E+10	1	-1E+10	1	-1E+10	1	-1E+10	1
4901784	2	C	07/25/2015	10:44	-128.843	46.578	0	24.90	0	17.0380	0	31.9870	0	23.196	0	24.693	0	237.6	4	97.7	4	-1E+10	1	-1E+10	1	-1E+10	1	-1E+10	1	-1E+10	1	-1E+10	1
4901784	2	C	07/25/2015	10:44	-128.843	46.578	0	27.10	0	17.0290	0	31.9840	0	23.196	0	26.874	0	237.8	4	97.8	4	-1E+10	1	-1E+10	1	-1E+10	1	-1E+10	1	-1E+10	1	-1E+10	1
4901784	2	C	07/25/2015	10:44	-128.843	46.578	0	28.80	0	17.0200	0	31.9800	0	23.195	0	28.560	0	238.4	4	98.0	4	-1E+10	1	-1E+10	1	-1E+10	1	-1E+10	1	-1E+10	1	-1E+10	1
4901784	2	C	07/25/2015	10:44	-128.843	46.578	0	30.10	0	16.9840	0	31.9750	0	23.200	0	29.849	0	239.2	4	98.2	4	-1E+10	1	-1E+10	1	-1E+10	1	-1E+10	1	-1E+10	1	-1E+10	1
4901784	2	C	07/25/2015	10:44	-128.843	46.578	0	31.50	0	16.8610	0	31.9740	0	23.227	0	31.237	0	240.6	4	98.6	4	-1E+10	1	-1E+10	1	-1E+10	1	-1E+10	1	-1E+10	1	-1E+10	1
4901784	2	C	07/25/2015	10:44	-128.843	46.578	0	32.70	0	16.7170	0	31.9660	0	23.255	0	32.427	0	242.2	4	99.0	4	-1E+10	1	-1E+10	1	-1E+10	1	-1E+10	1	-1E+10	1	-1E+10	1
4901784	2	C	07/25/2015	10:44	-128.843	46.578	0	34.00	0	16.4220	0	31.9600	0	23.317	0	33.716	0	244.9	4	99.5	4	-1E+10	1	-1E+10	1	-1E+10	1	-1E+10	1	-1E+10	1	-1E+10	1
4901784	2	C	07/25/2015	10:44	-128.843	46.578	0	35.90	0	15.6240	0	31.9820	0	23.513	0	35.600	0	249.7	4	99.9	4	-1E+10	1	-1E+10	1	-1E+10	1	-1E+10	1	-1E+10	1	-1E+10	1
4901784	2	C	07/25/2015	10:44	-128.843	46.578	0	37.40	0	14.2600	0	31.9880	0	23.809	0	37.088	0	258.7	4	100.8	4	-1E+10	1	-1E+10	1	-1E+10	1	-1E+10	1	-1E+10	1	-1E+10	1
4901784	2	C	07/25/2015	10:44	-128.843	46.578	0	38.70	0	13.9550	0	32.0010	0	23.882	0	38.377	0	261.6	4	101.3	4	-1E+10	1	-1E+10	1	-1E+10	1	-1E+10	1	-1E+10	1	-1E+10	1
4901784	2	C	07/25/2015	10:44	-128.843	46.578	0	40.10	0	13.8070	0	32.0190	0	23.926	0	39.765	0	262.4	4	101.3	4	-1E+10	1	-1E+10	1	-1E+10	1	-1E+10	1	-1E+10	1	-1E+10	1
4901784	2	C	07/25/2015	10:44	-128.843	46.578	0	41.40	0	13.6830	0	32.0470	0	23.972	0	41.054	0	263.2	4	101.4	4	-1E+10	1	-1E+10	1	-1E+10	1	-1E+10	1	-1E+10	1	-1E+10	1
4901784	2	C	07/25/2015	10:44	-128.843	46.578	0	42.80	0	13.6070	0	32.0620	0	23.999	0	42.442	0	263.9	4	101.5	4	-1E+10	1	-1E+10	1	-1E+10	1	-1E+10	1	-1E+10	1	-1E+10	1
4901784	2	C	07/25/2015	10:44	-128.843	46.578	0	44.20	0	13.5280	0	32.0790	0	24.028	0	43.830	0	264.5	4	101.6	4	-1E+10	1	-1E+10	1	-1E+10	1	-1E+10	1	-1E+10	1	-1E+10	1
4901784	2	C	07/25/2015	10:44	-128.843	46.578	0	45.60	0	13.4620	0	32.0860	0	24.047	0	45.218	0	265.2	4	101.7	4	-1E+10	1	-1E+10	1	-1E+10	1	-1E+10	1	-1E+10	1	-1E+10	1
4901784	2	C	07/25/2015	10:44	-128.843	46.578	0	47.00	0	13.2940	0	32.1090	0	24.098	0	46.606	0	267.0	4	102.1	4	-1E+10	1	-1E+10	1	-1E+10	1	-1E+10	1	-1E+10	1	-1E+10	1
4901784	2	C	07/25/2015	10:44	-128.843	46.578	0	48.50	0	12.9040	0	32.1650	0	24.218	0	48.094	0	268.3	4	101.8	4	-1E+10	1	-1E+10	1	-1E+10	1	-1E+10	1	-1E+10	1	-1E+10	1
4901784	2	C	07/25/2015	10:44	-128.843	46.578	0	50.00	0	12.5380	0	32.2150	0	24.327	0	49.581	0	271.3	4	102.2	4	-1E+10	1	-1E+10	1	-1E+10	1	-1E+10	1	-1E+10	1	-1E+10	1
4901784	2	C	07/25/2015	10:44	-128.843	46.578	0	51.50	0	12.3960	0	32.2850	0	24.409	0	51.068	0	271.9	4	102.1	4	-1E+10	1	-1E+10	1	-1E+10	1	-1E+10	1	-1E+10	1	-1E+10	1
4901784	2	C	07/25/2015	10:44	-128.843	46.578	0	53.10	0	12.2710	0	32.2610	0	24.414	0	52.655	0	272.7	4	102.2	4	-1E+10	1	-1E+10	1	-1E+10	1	-1E+10	1	-1E+10	1	-1E+10	1
4901784	2	C	07/25/2015	10:44	-128.843	46.578	0	54.80	0	12.0960	0	32.2850	0	24.465	0	54.340	0	273.7	4	102.2	4	-1E+10	1	-1E+10	1	-1E+10	1	-1E+10	1	-1E+10	1	-1E+10	1
4901784	2	C	07/25/2015	10:44	-128.843	46.578	0	56.40	0	12.0680	0	32.2960	0	24.479	0	55.926	0	273.4	4	102.0	4	-1E+10	1	-1E+10	1	-1E+10	1	-1E+10	1	-1E+10	1	-1E+10	1
4901784	2	C	07/25/2015	10:44	-128.843	46.578	0	58.00	0	12.0250	0	32.3040	0	24.493	0	57.513	0	273.1	4	101.8	4	-1E+10	1	-1E+10	1	-1E+10	1	-1E+10	1	-1E+10	1	-1E+10	1
4901784	2	C	07/25/2015	10:44	-128.843	46.578	0	59.60	0	11.9460	0	32.3150	0	24.516	0	59.099	0	272.7	4	101.5	4	-1E+10	1	-1E+10	1	-1E+10	1	-1E+10	1	-1E+10	1	-1E+10	1
4901784	2	C	07/25/2015	10:44	-128.843	46.578	0	61.30	0	11.8830	0	32.3270	0	24.537	0	60.785	0	272.3	4	101.3	4	-1E+10	1	-1E+10	1	-1E+10	1	-1E+10	1	-1E+10	1	-1E+10	1
4901784	2	C	07/25/2015	10:44	-128.843	46.578	0	62.90	0	11.8050	0	32.3390	0	24.561	0	62.371	0	271.8	4	100.9	4	-1E+10	1	-1E+10	1	-1E+10	1	-1E+10	1	-1E+10	1	-1E+10	1
4901784	2	C	07/25/2015	10:44	-128.843	46.578	0	64.50	0	11.6940	0	32.3620	0	24.599	0	63.957	0	271.6	4	100.6	4	-1E+10	1	-1E+10	1	-1E+10	1	-1E+10	1	-1E+10	1	-1E+10	1
4901784	2	C	07/25/2015	10:44	-128.843	46.578	0	66.30	0	11.6480	0	32.3740	0	24.617	0	65.742	0	271.0	4	100.3	4	-1E+10	1	-1E+10	1	-1E+10	1	-1E+10	1	-1E+10	1	-1E+10	1
4901784	2	C	07/25/2015	10:44	-128.843	46.578	0	68.00	0	11.6110	0	32.3800	0	24.629	0	67.427	0	270.1	4	99.9	4	-1E+10	1	-1E+10	1	-1E+10	1	-1E+10	1	-1E+10	1	-1E+10	1
4901784	2	C	07/25/2015	10:44	-128.843	46.578	0	69.80	0	11.5630	0	32.3930	0	24.647	0	69.212	0	269.3	4	99.5	4	-1E+10	1	-1E+10	1	-1E+10	1	-1E+10	1	-1E+10	1	-1E+10	1
4901784	2	C	07/25/2015	10:44	-128.843	46.578	0	71.50	0	11.6050	0	32.4130	0	24.655	0	70.897	0	268.2	4	99.2	4	-1E+10	1	-1E+10	1	-1E+10	1	-1E+10	1	-1E+10	1	-1E+10	1
4901784	2	C	07/25/2015	10:44	-128.843	46.578	0	73.20	0	11.6950	0	32.4550	0	24.672	0	72.582	0	266.1	4	98.6	4	-1E+10	1	-1E+10	1	-1E+10	1	-1E+10	1	-1E+10	1	-1E+10	1
4901784	2	C	07/25/2015	10:44	-128.843	46.578	0	74.90	0	11.6510	0	32.4960	0	24.712	0	74.268	0	262.1	4	97.1	4	-1E+10	1	-1E+10	1	-1E+10	1	-1E+10	1	-1E+10	1	-1E+10	1
4901784	2	C	07/25/2015	10:44	-128.843	46.578	0	76.60	0	11.4250	0	32.4950	0	24.752	0	75.953	0	259.3	4	95.6	4	-1E+10	1	-1E+10	1	-1E+10	1	-1E+10	1	-1E+10	1	-1E+10	1
4901784	2	C	07/25/2015	10:44	-128.843	46.578	0	78.30	0	11.3100	0	32.4770	0	24.758	0	77.638	0	256.6	4	94.4	4	-1E+10	1	-1E+10	1	-1E+10	1	-1E+10	1	-1E+10	1	-1E+10	1
4901784	2	C	07/25/2015	10:44	-128.843	46.578	0	80.00	0	11.1470	0	32.4710	0	24.783	0	79.324	0	253.2	4	92.8	4	-1E+10	1	-1E+10	1	-1E+10	1	-1E+10	1	-1E+10	1	-1E+10	1
4901784	2	C	07/25/2015	10:44	-128.843	46.578	0	81.70	0	10.9780	0	32.4800	0	24.820	0	81.009	0	251.0	4	91.7	4	-1E+10	1	-1E+10	1	-1E+10	1	-1E+10	1	-1E+10	1	-1E+10	1
4901784	2	C	07/25/2015	10:44	-128.843	46.578	0	84.00	0	10.9560	0	32.5090	0	24.846	0	83.289	0	248.3	4	90.6	4	-1E+10	1	-1E+10	1	-1E+10	1	-1E+10	1	-1E+10	1	-1E+10	1
4901784	2	C	07/25/2015	10:44	-128.843	46.578	0	85.80	0	10.9700	0	32.5730	0	24.894	0	85.073	0	242.9	4	88.8	4	-1E+10	1	-1E+10	1	-1E+10	1	-1E+10	1	-1E+10	1	-1E+10	1
4901784	2	C	07/25/2015	10:44	-128.843	46.578	0	87.20	0	10.8230	0	32.5800	0	24.925	0	86.461	0	237.9	4	86.7	4	-1E+10	1	-1E+10	1	-1E+10	1	-1E+10	1	-1E+10	1	-1E+10	1
4901784	2	C	07/25/2015	10:44	-128.843	46.578	0	88.80	0	10.7410	0	32.5930	0	24.949	0	88.047	0	233.0	4	84.7	4	-1E+10	1	-1E+10	1	-1E+10	1	-1E+10	1	-1E+10	1	-1E+10	1
4901784	2	C	07/25/2015	10:44	-128.843	46.578	0	90.30	0	10.5930	0	32.6010	0	24.981	0	89.534	0	227.3	4	82.4	4	-1E+10	1	-1E+10	1	-1E+10	1	-1E+10	1	-1E+10	1	-1E+10	1
4901784	2	C	07/25/2015	10:44	-128.843	46.578	0	91.80	0	10.2130	0	32.6110	0	25.054	0	91.021	0	221.7	4	79.7	4	-1E+10	1	-1E+10	1	-1E+10	1	-1E+10	1	-1E+10	1	-1E+10	1
4901784	2	C	07/25/2015	10:44	-128.843	46.578	0	93.40	0	9.9830	0	32.6690	0	25.137	0	92.607	0	218.9	4	78.3	4	-1E+10	1	-1E+10	1	-1E+10	1	-1E+10	1	-1E+10	1	-1E+10	1
4901784	2	C	07/25/2015	10:44	-128.843	46.578	0	94.90	0	9.8780	0	32.6820	0	25.165	0	94.094	0	215.4	4	76.9	4	-1E+10	1	-1E+10	1	-1E+10	1	-1E+10	1	-1E+10	1	-1E+10	1
4901784	2	C	07/25/2015	10:44	-128.843	46.578	0	96.50	0	9.7100	0	32.7050	0	25.210	0	95.680	0	212.8	4	75.8	4	-1E+10	1	-1E+10	1	-1E+10	1	-1E+10	1	-1E+10	1	-1E+10	1
4901784	2	C	07/25/2015	10:44	-128.843	46.578	0	98.30	0	9.2070	0	32.7730	0	25.344	0	97.465	0	210.7	4	74.2	4	-1E+10	1	-1E+10	1	-1E+10	1	-1E+10	1	-1E+10	1	-1E+10	1
4901784	2	C	07/25/2015	10:44	-128.843	46.578	0	100.00	0	8.9920	0	32.8040	0	25.402	0	99.150	0	210.3	4	73.7	4	-1E+10	1	-1E+10	1	-1E+10	1	-1E+10	1	-1E+10	1	-1E+10	1
4901784	2	C	07/25/2015	10:44	-128.843	46.578	0	101.80	0	8.7220	0	32.8540	0	25.483	0	100.934	0	209.7	4	73.1	4	-1E+10	1	-1E+10	1	-1E+10	1	-1E+10	1	-1E+10	1	-1E+10	1
4901784	2	C	07/25/2015	10:44	-128.843	46.578	0	104.70	0	8.4820	0	32.9090	0	25.562	0	103.809	0	209.8	4	72.8	4	-1E+10	1	-1E+10	1	-1E+10	1	-1E+10	1	-1E+10	1	-1E+10	1
4901784	2	C	07/25/2015	10:44	-128.843	46.578	0	107.50	0	8.3350	0	32.9430	0	25.611	0	106.584	0	209.2	4	72.4	4	-1E+10	1	-1E+10	1	-1E+10	1	-1E+10	1	-1E+10	1	-1E+10	1
4901784	2	C	07/25/2015	10:44	-128.843	46.578	0	109.80	0	8.2640	0	32.9660	0	25.640	0	108.864	0	208.5	4	72.0	4	-1E+10	1	-1E+10	1	-1E+10	1	-1E+10	1	-1E+10	1	-1E+10	1
4901784	2	C	07/25/2015	10:44	-128.843	46.578	0	112.90	0	8.1960	0	33.0050	0	25.680	0	111.937	0	208.0	4	71.8	4	-1E+10	1	-1E+10	1	-1E+10	1	-1E+10	1	-1E+10	1	-1E+10	1
4901784	2	C	07/25/2015	10:44	-128.843	46.578	0	115.20	0	8.1610	0	33.0210	0	25.698	0	114.216	0	207.4	4	71.5	4	-1E+10	1	-1E+10	1	-1E+10	1	-1E+10	1	-1E+10	1	-1E+10	1
4901784	2	C	07/25/2015	10:44	-128.843	46.578	0	117.30	0	8.1310	0	33.0720	0	25.743	0	116.298	0	205.9	4	71.0	4	-1E+10	1	-1E+10	1	-1E+10	1	-1E+10	1	-1E+10	1	-1E+10	1
4901784	2	C	07/25/2015	10:44	-128.843	46.578	0	120.40	0	8.0600	0	33.1370	0	25.804	0	119.370	0	202.7	4	69.8	4	-1E+10	1	-1E+10	1	-1E+10	1	-1E+10	1	-1E+10	1	-1E+10	1
4901784	2	C	07/25/2015	10:44	-128.843	46.578	0	122.80	0	7.9740	0	33.1640	0	25.838	0	121.749	0	200.5	4	68.9	4	-1E+10	1	-1E+10	1	-1E+10	1	-1E+10	1	-1E+10	1	-1E+10	1
4901784	2	C	07/25/2015	10:44	-128.843	46.578	0	124.50	0	7.9500	0	33.1730	0	25.848	0	123.434	0	199.5	4	68.5	4	-1E+10	1	-1E+10	1	-1E+10	1	-1E+10	1	-1E+10	1	-1E+10	1
4901784	2	C	07/25/2015	10:44	-128.843	46.578	0	127.10	0	7.9380	0	33.1950	0	25.868	0	126.011	0	198.0	4	68.0	4	-1E+10	1	-1E+10	1	-1E+10	1	-1E+10	1	-1E+10	1	-1E+10	1
4901784	2	C	07/25/2015	10:44	-128.843	46.578	0	129.70	0	7.8680	0	33.2420	0	25.915	0	128.588	0	195.0	4	66.9	4	-1E+10	1	-1E+10	1	-1E+10	1	-1E+10	1	-1E+10	1	-1E+10	1
4901784	2	C	07/25/2015	10:44	-128.843	46.578	0	132.30	0	7.8090	0	33.2930	0	25.963	0	131.165	0	194.6	4	66.7	4	-1E+10	1	-1E+10	1	-1E+10	1	-1E+10	1	-1E+10	1	-1E+10	1
4901784	2	C	07/25/2015	10:44	-128.843	46.578	0	134.50	0	7.7970	0	33.3240	0	25.989	0	133.345	0	194.8	4	66.8	4	-1E+10	1	-1E+10	1	-1E+10	1	-1E+10	1	-1E+10	1	-1E+10	1
4901784	2	C	07/25/2015	10:44	-128.843	46.578	0	137.50	0	7.8670	0	33.3690	0	26.015	0	136.319	0	193.8	4	66.5	4	-1E+10	1	-1E+10	1	-1E+10	1	-1E+10	1	-1E+10	1	-1E+10	1
4901784	2	C	07/25/2015	10:44	-128.843	46.578	0	140.50	0	7.8760	0	33.4150	0	26.049	0	139.292	0	191.7	4	65.9	4	-1E+10	1	-1E+10	1	-1E+10	1	-1E+10	1	-1E+10	1	-1E+10	1
4901784	2	C	07/25/2015	10:44	-128.843	46.578	0	142.80	0	7.8890	0	33.4460	0	26.072	0	141.571	0	189.6	4	65.2	4	-1E+10	1	-1E+10	1	-1E+10	1	-1E+10	1	-1E+10	1	-1E+10	1
4901784	2	C	07/25/2015	10:44	-128.843	46.578	0	145.30	0	7.8910	0	33.4720	0	26.092	0	144.049	0	186.0	4	64.0	4	-1E+10	1	-1E+10	1	-1E+10	1	-1E+10	1	-1E+10	1	-1E+10	1
4901784	2	C	07/25/2015	10:44	-128.843	46.578	0	147.80	0	7.7830	0	33.4670	0	26.104	0	146.526	0	183.3	4	62.9	4	-1E+10	1	-1E+10	1	-1E+10	1	-1E+10	1	-1E+10	1	-1E+10	1
4901784	2	C	07/25/2015	10:44	-128.843	46.578	0	150.30	0	7.7370	0	33.4830	0	26.123	0	149.004	0	182.5	4	62.5	4	-1E+10	1	-1E+10	1	-1E+10	1	-1E+10	1	-1E+10	1	-1E+10	1
4901784	2	C	07/25/2015	10:44	-128.843	46.578	0	152.80	0	7.7720	0	33.5140	0	26.142	0	151.482	0	182.1	4	62.5	4	-1E+10	1	-1E+10	1	-1E+10	1	-1E+10	1	-1E+10	1	-1E+10	1
4901784	2	C	07/25/2015	10:44	-128.843	46.578	0	155.40	0	7.7260	0	33.5260	0	26.159	0	154.058	0	180.5	4	61.9	4	-1E+10	1	-1E+10	1	-1E+10	1	-1E+10	1	-1E+10	1	-1E+10	1
4901784	2	C	07/25/2015	10:44	-128.843	46.578	0	158.00	0	7.7150	0	33.5400	0	26.171	0	156.635	0	178.3	4	61.1	4	-1E+10	1	-1E+10	1	-1E+10	1	-1E+10	1	-1E+10	1	-1E+10	1
4901784	2	C	07/25/2015	10:44	-128.843	46.578	0	159.70	0	7.7710	0	33.5700	0	26.187	0	158.319	0	176.1	4	60.4	4	-1E+10	1	-1E+10	1	-1E+10	1	-1E+10	1	-1E+10	1	-1E+10	1
4901784	2	C	07/25/2015	10:44	-128.843	46.578	0	162.40	0	7.8060	0	33.5990	0	26.204	0	160.995	0	174.9	4	60.1	4	-1E+10	1	-1E+10	1	-1E+10	1	-1E+10	1	-1E+10	1	-1E+10	1
4901784	2	C	07/25/2015	10:44	-128.843	46.578	0	165.10	0	7.8190	0	33.6400	0	26.235	0	163.671	0	175.0	4	60.1	4	-1E+10	1	-1E+10	1	-1E+10	1	-1E+10	1	-1E+10	1	-1E+10	1
4901784	2	C	07/25/2015	10:44	-128.843	46.578	0	167.90	0	7.8170	0	33.6480	0	26.241	0	166.445	0	175.9	4	60.5	4	-1E+10	1	-1E+10	1	-1E+10	1	-1E+10	1	-1E+10	1	-1E+10	1
4901784	2	C	07/25/2015	10:44	-128.843	46.578	0	170.70	0	7.8260	0	33.6620	0	26.251	0	169.220	0	177.7	4	61.1	4	-1E+10	1	-1E+10	1	-1E+10	1	-1E+10	1	-1E+10	1	-1E+10	1
4901784	2	C	07/25/2015	10:44	-128.843	46.578	0	172.50	0	7.8290	0	33.6660	0	26.254	0	171.003	0	175.8	4	60.4	4	-1E+10	1	-1E+10	1	-1E+10	1	-1E+10	1	-1E+10	1	-1E+10	1
4901784	2	C	07/25/2015	10:44	-128.843	46.578	0	174.40	0	7.8240	0	33.6810	0	26.266	0	172.886	0	171.6	4	59.0	4	-1E+10	1	-1E+10	1	-1E+10	1	-1E+10	1	-1E+10	1	-1E+10	1
4901784	2	C	07/25/2015	10:44	-128.843	46.578	0	177.20	0	7.7940	0	33.7050	0	26.290	0	175.661	0	162.4	4	55.8	4	-1E+10	1	-1E+10	1	-1E+10	1	-1E+10	1	-1E+10	1	-1E+10	1
4901784	2	C	07/25/2015	10:44	-128.843	46.578	0	180.00	0	7.6640	0	33.7100	0	26.312	0	178.435	0	155.0	4	53.1	4	-1E+10	1	-1E+10	1	-1E+10	1	-1E+10	1	-1E+10	1	-1E+10	1
4901784	2	C	07/25/2015	10:44	-128.843	46.578	0	182.70	0	7.6340	0	33.7290	0	26.332	0	181.110	0	153.7	4	52.6	4	-1E+10	1	-1E+10	1	-1E+10	1	-1E+10	1	-1E+10	1	-1E+10	1
4901784	2	C	07/25/2015	10:44	-128.843	46.578	0	185.50	0	7.5930	0	33.7540	0	26.357	0	183.885	0	152.9	4	52.3	4	-1E+10	1	-1E+10	1	-1E+10	1	-1E+10	1	-1E+10	1	-1E+10	1
4901784	2	C	07/25/2015	10:44	-128.843	46.578	0	187.40	0	7.6070	0	33.7710	0	26.369	0	185.767	0	152.6	4	52.2	4	-1E+10	1	-1E+10	1	-1E+10	1	-1E+10	1	-1E+10	1	-1E+10	1
4901784	2	C	07/25/2015	10:44	-128.843	46.578	0	190.20	0	7.5540	0	33.7880	0	26.390	0	188.542	0	149.1	4	51.0	4	-1E+10	1	-1E+10	1	-1E+10	1	-1E+10	1	-1E+10	1	-1E+10	1
4901784	2	C	07/25/2015	10:44	-128.843	46.578	0	193.10	0	7.4840	0	33.8020	0	26.411	0	191.415	0	147.4	4	50.3	4	-1E+10	1	-1E+10	1	-1E+10	1	-1E+10	1	-1E+10	1	-1E+10	1
4901784	2	C	07/25/2015	10:44	-128.843	46.578	0	195.00	0	7.4670	0	33.8170	0	26.425	0	193.298	0	144.4	4	49.3	4	-1E+10	1	-1E+10	1	-1E+10	1	-1E+10	1	-1E+10	1	-1E+10	1
4901784	2	C	07/25/2015	10:44	-128.843	46.578	0	197.00	0	7.4410	0	33.8360	0	26.443	0	195.279	0	141.4	4	48.2	4	-1E+10	1	-1E+10	1	-1E+10	1	-1E+10	1	-1E+10	1	-1E+10	1
4901784	2	C	07/25/2015	10:44	-128.843	46.578	0	199.80	0	7.3790	0	33.8480	0	26.462	0	198.053	0	137.8	4	47.0	4	-1E+10	1	-1E+10	1	-1E+10	1	-1E+10	1	-1E+10	1	-1E+10	1
4901784	2	C	07/25/2015	10:44	-128.843	46.578	0	202.70	0	7.3330	0	33.8520	0	26.471	0	200.927	0	134.3	4	45.7	4	-1E+10	1	-1E+10	1	-1E+10	1	-1E+10	1	-1E+10	1	-1E+10	1
4901784	2	C	07/25/2015	10:44	-128.843	46.578	0	204.70	0	7.3010	0	33.8560	0	26.479	0	202.908	0	132.0	4	44.9	4	-1E+10	1	-1E+10	1	-1E+10	1	-1E+10	1	-1E+10	1	-1E+10	1
4901784	2	C	07/25/2015	10:44	-128.843	46.578	0	207.50	0	7.2670	0	33.8570	0	26.484	0	205.682	0	129.7	4	44.1	4	-1E+10	1	-1E+10	1	-1E+10	1	-1E+10	1	-1E+10	1	-1E+10	1
4901784	2	C	07/25/2015	10:44	-128.843	46.578	0	210.30	0	7.2280	0	33.8590	0	26.491	0	208.456	0	126.9	4	43.1	4	-1E+10	1	-1E+10	1	-1E+10	1	-1E+10	1	-1E+10	1	-1E+10	1
4901784	2	C	07/25/2015	10:44	-128.843	46.578	0	212.30	0	7.2120	0	33.8630	0	26.497	0	210.438	0	125.2	4	42.5	4	-1E+10	1	-1E+10	1	-1E+10	1	-1E+10	1	-1E+10	1	-1E+10	1
4901784	2	C	07/25/2015	10:44	-128.843	46.578	0	215.10	0	7.1860	0	33.8720	0	26.508	0	213.212	0	122.8	4	41.7	4	-1E+10	1	-1E+10	1	-1E+10	1	-1E+10	1	-1E+10	1	-1E+10	1
4901784	2	C	07/25/2015	10:44	-128.843	46.578	0	217.90	0	7.1240	0	33.8790	0	26.522	0	215.986	0	121.5	4	41.2	4	-1E+10	1	-1E+10	1	-1E+10	1	-1E+10	1	-1E+10	1	-1E+10	1
4901784	2	C	07/25/2015	10:44	-128.843	46.578	0	219.80	0	7.0970	0	33.8810	0	26.527	0	217.868	0	120.9	4	40.9	4	-1E+10	1	-1E+10	1	-1E+10	1	-1E+10	1	-1E+10	1	-1E+10	1
4901784	2	C	07/25/2015	10:44	-128.843	46.578	0	222.60	0	7.0680	0	33.8840	0	26.533	0	220.642	0	119.4	4	40.4	4	-1E+10	1	-1E+10	1	-1E+10	1	-1E+10	1	-1E+10	1	-1E+10	1
4901784	2	C	07/25/2015	10:44	-128.843	46.578	0	225.40	0	7.0270	0	33.8910	0	26.545	0	223.416	0	118.0	4	39.9	4	-1E+10	1	-1E+10	1	-1E+10	1	-1E+10	1	-1E+10	1	-1E+10	1
4901784	2	C	07/25/2015	10:44	-128.843	46.578	0	227.40	0	7.0080	0	33.8930	0	26.549	0	225.397	0	117.6	4	39.7	4	-1E+10	1	-1E+10	1	-1E+10	1	-1E+10	1	-1E+10	1	-1E+10	1
4901784	2	C	07/25/2015	10:44	-128.843	46.578	0	230.30	0	6.9830	0	33.8960	0	26.555	0	228.270	0	117.1	4	39.6	4	-1E+10	1	-1E+10	1	-1E+10	1	-1E+10	1	-1E+10	1	-1E+10	1
4901784	2	C	07/25/2015	10:44	-128.843	46.578	0	233.20	0	6.9610	0	33.8990	0	26.560	0	231.143	0	117.3	4	39.6	4	-1E+10	1	-1E+10	1	-1E+10	1	-1E+10	1	-1E+10	1	-1E+10	1
4901784	2	C	07/25/2015	10:44	-128.843	46.578	0	235.10	0	6.9580	0	33.8990	0	26.560	0	233.025	0	117.9	4	39.8	4	-1E+10	1	-1E+10	1	-1E+10	1	-1E+10	1	-1E+10	1	-1E+10	1
4901784	2	C	07/25/2015	10:44	-128.843	46.578	0	236.90	0	6.9500	0	33.8990	0	26.561	0	234.808	0	119.2	4	40.2	4	-1E+10	1	-1E+10	1	-1E+10	1	-1E+10	1	-1E+10	1	-1E+10	1
4901784	2	C	07/25/2015	10:44	-128.843	46.578	0	239.80	0	6.8910	0	33.8970	0	26.568	0	237.681	0	122.6	4	41.4	4	-1E+10	1	-1E+10	1	-1E+10	1	-1E+10	1	-1E+10	1	-1E+10	1
4901784	2	C	07/25/2015	10:44	-128.843	46.578	0	242.50	0	6.7630	0	33.8880	0	26.578	0	240.355	0	124.5	4	41.9	4	-1E+10	1	-1E+10	1	-1E+10	1	-1E+10	1	-1E+10	1	-1E+10	1
4901784	2	C	07/25/2015	10:44	-128.843	46.578	0	244.50	0	6.7340	0	33.8910	0	26.584	0	242.337	0	123.7	4	41.5	4	-1E+10	1	-1E+10	1	-1E+10	1	-1E+10	1	-1E+10	1	-1E+10	1
4901784	2	C	07/25/2015	10:44	-128.843	46.578	0	247.30	0	6.7120	0	33.8940	0	26.590	0	245.110	0	121.0	4	40.6	4	-1E+10	1	-1E+10	1	-1E+10	1	-1E+10	1	-1E+10	1	-1E+10	1
4901784	2	C	07/25/2015	10:44	-128.843	46.578	0	250.20	0	6.6400	0	33.8910	0	26.597	0	247.983	0	118.1	4	39.6	4	-1E+10	1	-1E+10	1	-1E+10	1	-1E+10	1	-1E+10	1	-1E+10	1
4901784	2	C	07/25/2015	10:44	-128.843	46.578	0	252.10	0	6.6230	0	33.8940	0	26.601	0	249.865	0	113.5	4	38.0	4	-1E+10	1	-1E+10	1	-1E+10	1	-1E+10	1	-1E+10	1	-1E+10	1
4901784	2	C	07/25/2015	10:44	-128.843	46.578	0	254.60	0	6.6320	0	33.9090	0	26.612	0	252.341	0	108.7	4	36.4	4	-1E+10	1	-1E+10	1	-1E+10	1	-1E+10	1	-1E+10	1	-1E+10	1
4901784	2	C	07/25/2015	10:44	-128.843	46.578	0	257.40	0	6.6280	0	33.9150	0	26.617	0	255.114	0	104.4	4	35.0	4	-1E+10	1	-1E+10	1	-1E+10	1	-1E+10	1	-1E+10	1	-1E+10	1
4901784	2	C	07/25/2015	10:44	-128.843	46.578	0	259.90	0	6.6160	0	33.9240	0	26.626	0	257.591	0	101.8	4	34.1	4	-1E+10	1	-1E+10	1	-1E+10	1	-1E+10	1	-1E+10	1	-1E+10	1
4901784	2	C	07/25/2015	10:44	-128.843	46.578	0	262.30	0	6.6040	0	33.9250	0	26.629	0	259.968	0	100.7	4	33.7	4	-1E+10	1	-1E+10	1	-1E+10	1	-1E+10	1	-1E+10	1	-1E+10	1
4901784	2	C	07/25/2015	10:44	-128.843	46.578	0	264.80	0	6.5730	0	33.9260	0	26.633	0	262.444	0	99.8	4	33.4	4	-1E+10	1	-1E+10	1	-1E+10	1	-1E+10	1	-1E+10	1	-1E+10	1
4901784	2	C	07/25/2015	10:44	-128.843	46.578	0	267.10	0	6.5250	0	33.9260	0	26.640	0	264.722	0	98.6	4	33.0	4	-1E+10	1	-1E+10	1	-1E+10	1	-1E+10	1	-1E+10	1	-1E+10	1
4901784	2	C	07/25/2015	10:44	-128.843	46.578	0	269.70	0	6.4890	0	33.9260	0	26.645	0	267.297	0	96.7	4	32.3	4	-1E+10	1	-1E+10	1	-1E+10	1	-1E+10	1	-1E+10	1	-1E+10	1
4901784	2	C	07/25/2015	10:44	-128.843	46.578	0	272.10	0	6.4900	0	33.9330	0	26.650	0	269.674	0	94.5	4	31.6	4	-1E+10	1	-1E+10	1	-1E+10	1	-1E+10	1	-1E+10	1	-1E+10	1
4901784	2	C	07/25/2015	10:44	-128.843	46.578	0	275.40	0	6.4560	0	33.9350	0	26.656	0	272.943	0	93.9	4	31.4	4	-1E+10	1	-1E+10	1	-1E+10	1	-1E+10	1	-1E+10	1	-1E+10	1
4901784	2	C	07/25/2015	10:44	-128.843	46.578	0	277.80	0	6.4220	0	33.9320	0	26.658	0	275.320	0	93.8	4	31.3	4	-1E+10	1	-1E+10	1	-1E+10	1	-1E+10	1	-1E+10	1	-1E+10	1
4901784	2	C	07/25/2015	10:44	-128.843	46.578	0	280.30	0	6.3620	0	33.9320	0	26.666	0	277.796	0	92.8	4	30.9	4	-1E+10	1	-1E+10	1	-1E+10	1	-1E+10	1	-1E+10	1	-1E+10	1
4901784	2	C	07/25/2015	10:44	-128.843	46.578	0	282.80	0	6.3450	0	33.9360	0	26.671	0	280.272	0	90.9	4	30.3	4	-1E+10	1	-1E+10	1	-1E+10	1	-1E+10	1	-1E+10	1	-1E+10	1
4901784	2	C	07/25/2015	10:44	-128.843	46.578	0	285.30	0	6.3220	0	33.9370	0	26.675	0	282.748	0	89.5	4	29.8	4	-1E+10	1	-1E+10	1	-1E+10	1	-1E+10	1	-1E+10	1	-1E+10	1
4901784	2	C	07/25/2015	10:44	-128.843	46.578	0	287.90	0	6.2990	0	33.9380	0	26.679	0	285.323	0	87.8	4	29.2	4	-1E+10	1	-1E+10	1	-1E+10	1	-1E+10	1	-1E+10	1	-1E+10	1
4901784	2	C	07/25/2015	10:44	-128.843	46.578	0	289.60	0	6.3200	0	33.9450	0	26.682	0	287.006	0	86.2	4	28.7	4	-1E+10	1	-1E+10	1	-1E+10	1	-1E+10	1	-1E+10	1	-1E+10	1
4901784	2	C	07/25/2015	10:44	-128.843	46.578	0	292.30	0	6.3260	0	33.9460	0	26.682	0	289.680	0	85.2	4	28.4	4	-1E+10	1	-1E+10	1	-1E+10	1	-1E+10	1	-1E+10	1	-1E+10	1
4901784	2	C	07/25/2015	10:44	-128.843	46.578	0	294.80	0	6.3080	0	33.9460	0	26.684	0	292.156	0	84.6	4	28.2	4	-1E+10	1	-1E+10	1	-1E+10	1	-1E+10	1	-1E+10	1	-1E+10	1
4901784	2	C	07/25/2015	10:44	-128.843	46.578	0	297.50	0	6.2870	0	33.9460	0	26.687	0	294.830	0	83.6	4	27.8	4	-1E+10	1	-1E+10	1	-1E+10	1	-1E+10	1	-1E+10	1	-1E+10	1
4901784	2	C	07/25/2015	10:44	-128.843	46.578	0	300.00	0	6.2240	0	33.9470	0	26.696	0	297.306	0	83.1	4	27.6	4	-1E+10	1	-1E+10	1	-1E+10	1	-1E+10	1	-1E+10	1	-1E+10	1
4901784	2	C	07/25/2015	10:44	-128.843	46.578	0	302.60	0	6.2180	0	33.9490	0	26.698	0	299.880	0	81.9	4	27.2	4	-1E+10	1	-1E+10	1	-1E+10	1	-1E+10	1	-1E+10	1	-1E+10	1
4901784	2	C	07/25/2015	10:44	-128.843	46.578	0	305.20	0	6.1710	0	33.9480	0	26.703	0	302.455	0	81.4	4	27.0	4	-1E+10	1	-1E+10	1	-1E+10	1	-1E+10	1	-1E+10	1	-1E+10	1
4901784	2	C	07/25/2015	10:44	-128.843	46.578	0	307.80	0	6.1350	0	33.9510	0	26.710	0	305.030	0	80.0	4	26.5	4	-1E+10	1	-1E+10	1	-1E+10	1	-1E+10	1	-1E+10	1	-1E+10	1
4901784	2	C	07/25/2015	10:44	-128.843	46.578	0	310.40	0	6.1120	0	33.9520	0	26.714	0	307.604	0	79.8	4	26.4	4	-1E+10	1	-1E+10	1	-1E+10	1	-1E+10	1	-1E+10	1	-1E+10	1
4901784	2	C	07/25/2015	10:44	-128.843	46.578	0	312.10	0	6.0860	0	33.9510	0	26.716	0	309.288	0	79.7	4	26.4	4	-1E+10	1	-1E+10	1	-1E+10	1	-1E+10	1	-1E+10	1	-1E+10	1
4901784	2	C	07/25/2015	10:44	-128.843	46.578	0	314.70	0	6.0460	0	33.9520	0	26.722	0	311.863	0	79.5	4	26.3	4	-1E+10	1	-1E+10	1	-1E+10	1	-1E+10	1	-1E+10	1	-1E+10	1
4901784	2	C	07/25/2015	10:44	-128.843	46.578	0	317.30	0	6.0040	0	33.9490	0	26.725	0	314.437	0	78.8	4	26.0	4	-1E+10	1	-1E+10	1	-1E+10	1	-1E+10	1	-1E+10	1	-1E+10	1
4901784	2	C	07/25/2015	10:44	-128.843	46.578	0	320.00	0	5.9690	0	33.9490	0	26.730	0	317.111	0	77.1	4	25.5	4	-1E+10	1	-1E+10	1	-1E+10	1	-1E+10	1	-1E+10	1	-1E+10	1
4901784	2	C	07/25/2015	10:44	-128.843	46.578	0	322.60	0	5.9770	0	33.9560	0	26.734	0	319.685	0	73.4	4	24.2	4	-1E+10	1	-1E+10	1	-1E+10	1	-1E+10	1	-1E+10	1	-1E+10	1
4901784	2	C	07/25/2015	10:44	-128.843	46.578	0	325.30	0	5.9710	0	33.9650	0	26.742	0	322.359	0	71.5	4	23.6	4	-1E+10	1	-1E+10	1	-1E+10	1	-1E+10	1	-1E+10	1	-1E+10	1
4901784	2	C	07/25/2015	10:44	-128.843	46.578	0	328.00	0	5.9750	0	33.9670	0	26.743	0	325.032	0	70.6	4	23.3	4	-1E+10	1	-1E+10	1	-1E+10	1	-1E+10	1	-1E+10	1	-1E+10	1
4901784	2	C	07/25/2015	10:44	-128.843	46.578	0	329.80	0	5.9730	0	33.9670	0	26.743	0	326.814	0	70.0	4	23.1	4	-1E+10	1	-1E+10	1	-1E+10	1	-1E+10	1	-1E+10	1	-1E+10	1
4901784	2	C	07/25/2015	10:44	-128.843	46.578	0	332.50	0	5.9700	0	33.9670	0	26.744	0	329.488	0	68.8	4	22.7	4	-1E+10	1	-1E+10	1	-1E+10	1	-1E+10	1	-1E+10	1	-1E+10	1
4901784	2	C	07/25/2015	10:44	-128.843	46.578	0	335.10	0	5.9530	0	33.9720	0	26.750	0	332.062	0	67.6	4	22.3	4	-1E+10	1	-1E+10	1	-1E+10	1	-1E+10	1	-1E+10	1	-1E+10	1
4901784	2	C	07/25/2015	10:44	-128.843	46.578	0	337.80	0	5.9190	0	33.9720	0	26.754	0	334.736	0	67.0	4	22.1	4	-1E+10	1	-1E+10	1	-1E+10	1	-1E+10	1	-1E+10	1	-1E+10	1
4901784	2	C	07/25/2015	10:44	-128.843	46.578	0	340.50	0	5.9200	0	33.9750	0	26.756	0	337.409	0	66.5	4	22.0	4	-1E+10	1	-1E+10	1	-1E+10	1	-1E+10	1	-1E+10	1	-1E+10	1
4901784	2	C	07/25/2015	10:44	-128.843	46.578	0	342.30	0	5.9080	0	33.9750	0	26.758	0	339.191	0	66.5	4	21.9	4	-1E+10	1	-1E+10	1	-1E+10	1	-1E+10	1	-1E+10	1	-1E+10	1
4901784	2	C	07/25/2015	10:44	-128.843	46.578	0	345.00	0	5.8720	0	33.9740	0	26.762	0	341.864	0	66.6	4	21.9	4	-1E+10	1	-1E+10	1	-1E+10	1	-1E+10	1	-1E+10	1	-1E+10	1
4901784	2	C	07/25/2015	10:44	-128.843	46.578	0	347.60	0	5.8550	0	33.9730	0	26.763	0	344.439	0	66.5	4	21.9	4	-1E+10	1	-1E+10	1	-1E+10	1	-1E+10	1	-1E+10	1	-1E+10	1
4901784	2	C	07/25/2015	10:44	-128.843	46.578	0	349.40	0	5.8240	0	33.9720	0	26.766	0	346.221	0	66.4	4	21.8	4	-1E+10	1	-1E+10	1	-1E+10	1	-1E+10	1	-1E+10	1	-1E+10	1
4901784	2	C	07/25/2015	10:44	-128.843	46.578	0	352.20	0	5.8060	0	33.9740	0	26.770	0	348.993	0	65.8	4	21.6	4	-1E+10	1	-1E+10	1	-1E+10	1	-1E+10	1	-1E+10	1	-1E+10	1
4901784	2	C	07/25/2015	10:44	-128.843	46.578	0	354.90	0	5.8090	0	33.9760	0	26.771	0	351.666	0	66.0	4	21.7	4	-1E+10	1	-1E+10	1	-1E+10	1	-1E+10	1	-1E+10	1	-1E+10	1
4901784	2	C	07/25/2015	10:44	-128.843	46.578	0	357.60	0	5.7480	0	33.9700	0	26.774	0	354.339	0	66.8	4	21.9	4	-1E+10	1	-1E+10	1	-1E+10	1	-1E+10	1	-1E+10	1	-1E+10	1
4901784	2	C	07/25/2015	10:44	-128.843	46.578	0	360.40	0	5.6950	0	33.9680	0	26.779	0	357.111	0	67.0	4	22.0	4	-1E+10	1	-1E+10	1	-1E+10	1	-1E+10	1	-1E+10	1	-1E+10	1
4901784	2	C	07/25/2015	10:44	-128.843	46.578	0	362.20	0	5.6300	0	33.9660	0	26.785	0	358.893	0	67.1	4	22.0	4	-1E+10	1	-1E+10	1	-1E+10	1	-1E+10	1	-1E+10	1	-1E+10	1
4901784	2	C	07/25/2015	10:44	-128.843	46.578	0	364.90	0	5.5990	0	33.9660	0	26.789	0	361.566	0	65.6	4	21.5	4	-1E+10	1	-1E+10	1	-1E+10	1	-1E+10	1	-1E+10	1	-1E+10	1
4901784	2	C	07/25/2015	10:44	-128.843	46.578	0	367.70	0	5.6430	0	33.9760	0	26.791	0	364.338	0	64.7	4	21.2	4	-1E+10	1	-1E+10	1	-1E+10	1	-1E+10	1	-1E+10	1	-1E+10	1
4901784	2	C	07/25/2015	10:44	-128.843	46.578	0	369.50	0	5.5760	0	33.9700	0	26.795	0	366.120	0	65.4	4	21.4	4	-1E+10	1	-1E+10	1	-1E+10	1	-1E+10	1	-1E+10	1	-1E+10	1
4901784	2	C	07/25/2015	10:44	-128.843	46.578	0	372.20	0	5.4860	0	33.9660	0	26.802	0	368.793	0	65.3	4	21.3	4	-1E+10	1	-1E+10	1	-1E+10	1	-1E+10	1	-1E+10	1	-1E+10	1
4901784	2	C	07/25/2015	10:44	-128.843	46.578	0	375.00	0	5.4540	0	33.9640	0	26.805	0	371.565	0	62.7	4	20.5	4	-1E+10	1	-1E+10	1	-1E+10	1	-1E+10	1	-1E+10	1	-1E+10	1
4901784	2	C	07/25/2015	10:44	-128.843	46.578	0	377.80	0	5.5380	0	33.9800	0	26.807	0	374.337	0	60.3	4	19.7	4	-1E+10	1	-1E+10	1	-1E+10	1	-1E+10	1	-1E+10	1	-1E+10	1
4901784	2	C	07/25/2015	10:44	-128.843	46.578	0	380.90	0	5.4770	0	33.9750	0	26.811	0	377.405	0	59.3	4	19.3	4	-1E+10	1	-1E+10	1	-1E+10	1	-1E+10	1	-1E+10	1	-1E+10	1
4901784	2	C	07/25/2015	10:44	-128.843	46.578	0	382.20	0	5.4900	0	33.9800	0	26.813	0	378.692	0	57.4	4	18.8	4	-1E+10	1	-1E+10	1	-1E+10	1	-1E+10	1	-1E+10	1	-1E+10	1
4901784	2	C	07/25/2015	10:44	-128.843	46.578	0	385.30	0	5.5700	0	33.9960	0	26.816	0	381.761	0	52.9	4	17.3	4	-1E+10	1	-1E+10	1	-1E+10	1	-1E+10	1	-1E+10	1	-1E+10	1
4901784	2	C	07/25/2015	10:44	-128.843	46.578	0	387.70	0	5.6030	0	34.0060	0	26.820	0	384.137	0	51.3	4	16.8	4	-1E+10	1	-1E+10	1	-1E+10	1	-1E+10	1	-1E+10	1	-1E+10	1
4901784	2	C	07/25/2015	10:44	-128.843	46.578	0	390.00	0	5.5900	0	34.0080	0	26.823	0	386.413	0	50.6	4	16.6	4	-1E+10	1	-1E+10	1	-1E+10	1	-1E+10	1	-1E+10	1	-1E+10	1
4901784	2	C	07/25/2015	10:44	-128.843	46.578	0	392.50	0	5.5830	0	34.0090	0	26.825	0	388.888	0	50.0	4	16.4	4	-1E+10	1	-1E+10	1	-1E+10	1	-1E+10	1	-1E+10	1	-1E+10	1
4901784	2	C	07/25/2015	10:44	-128.843	46.578	0	394.90	0	5.5760	0	34.0120	0	26.828	0	391.264	0	49.4	4	16.2	4	-1E+10	1	-1E+10	1	-1E+10	1	-1E+10	1	-1E+10	1	-1E+10	1
4901784	2	C	07/25/2015	10:44	-128.843	46.578	0	397.30	0	5.5640	0	34.0140	0	26.831	0	393.639	0	49.1	4	16.1	4	-1E+10	1	-1E+10	1	-1E+10	1	-1E+10	1	-1E+10	1	-1E+10	1
4901784	2	C	07/25/2015	10:44	-128.843	46.578	0	399.70	0	5.5590	0	34.0140	0	26.832	0	396.015	0	48.9	4	16.0	4	-1E+10	1	-1E+10	1	-1E+10	1	-1E+10	1	-1E+10	1	-1E+10	1
4901784	2	C	07/25/2015	10:44	-128.843	46.578	0	402.90	0	5.5330	0	34.0140	0	26.835	0	399.182	0	48.6	4	15.9	4	-1E+10	1	-1E+10	1	-1E+10	1	-1E+10	1	-1E+10	1	-1E+10	1
4901784	2	C	07/25/2015	10:44	-128.843	46.578	0	405.30	0	5.5070	0	34.0120	0	26.837	0	401.558	0	48.1	4	15.7	4	-1E+10	1	-1E+10	1	-1E+10	1	-1E+10	1	-1E+10	1	-1E+10	1
4901784	2	C	07/25/2015	10:44	-128.843	46.578	0	407.70	0	5.4910	0	34.0160	0	26.842	0	403.933	0	47.2	4	15.4	4	-1E+10	1	-1E+10	1	-1E+10	1	-1E+10	1	-1E+10	1	-1E+10	1
4901784	2	C	07/25/2015	10:44	-128.843	46.578	0	410.20	0	5.4740	0	34.0180	0	26.845	0	406.408	0	46.6	4	15.2	4	-1E+10	1	-1E+10	1	-1E+10	1	-1E+10	1	-1E+10	1	-1E+10	1
4901784	2	C	07/25/2015	10:44	-128.843	46.578	0	412.60	0	5.4220	0	34.0200	0	26.853	0	408.783	0	46.3	4	15.1	4	-1E+10	1	-1E+10	1	-1E+10	1	-1E+10	1	-1E+10	1	-1E+10	1
4901784	2	C	07/25/2015	10:44	-128.843	46.578	0	415.10	0	5.4100	0	34.0210	0	26.855	0	411.258	0	46.0	4	15.0	4	-1E+10	1	-1E+10	1	-1E+10	1	-1E+10	1	-1E+10	1	-1E+10	1
4901784	2	C	07/25/2015	10:44	-128.843	46.578	0	417.60	0	5.4000	0	34.0220	0	26.857	0	413.732	0	45.7	4	14.9	4	-1E+10	1	-1E+10	1	-1E+10	1	-1E+10	1	-1E+10	1	-1E+10	1
4901784	2	C	07/25/2015	10:44	-128.843	46.578	0	420.00	0	5.3780	0	34.0240	0	26.862	0	416.107	0	45.6	4	14.9	4	-1E+10	1	-1E+10	1	-1E+10	1	-1E+10	1	-1E+10	1	-1E+10	1
4901784	2	C	07/25/2015	10:44	-128.843	46.578	0	422.50	0	5.3510	0	34.0230	0	26.864	0	418.582	0	45.8	4	14.9	4	-1E+10	1	-1E+10	1	-1E+10	1	-1E+10	1	-1E+10	1	-1E+10	1
4901784	2	C	07/25/2015	10:44	-128.843	46.578	0	425.00	0	5.3150	0	34.0230	0	26.868	0	421.056	0	46.0	4	15.0	4	-1E+10	1	-1E+10	1	-1E+10	1	-1E+10	1	-1E+10	1	-1E+10	1
4901784	2	C	07/25/2015	10:44	-128.843	46.578	0	427.50	0	5.3020	0	34.0210	0	26.868	0	423.530	0	46.1	4	15.0	4	-1E+10	1	-1E+10	1	-1E+10	1	-1E+10	1	-1E+10	1	-1E+10	1
4901784	2	C	07/25/2015	10:44	-128.843	46.578	0	430.00	0	5.2960	0	34.0200	0	26.868	0	426.005	0	46.3	4	15.1	4	-1E+10	1	-1E+10	1	-1E+10	1	-1E+10	1	-1E+10	1	-1E+10	1
4901784	2	C	07/25/2015	10:44	-128.843	46.578	0	432.50	0	5.2720	0	34.0200	0	26.871	0	428.479	0	46.3	4	15.1	4	-1E+10	1	-1E+10	1	-1E+10	1	-1E+10	1	-1E+10	1	-1E+10	1
4901784	2	C	07/25/2015	10:44	-128.843	46.578	0	435.00	0	5.2490	0	34.0210	0	26.875	0	430.953	0	46.4	4	15.1	4	-1E+10	1	-1E+10	1	-1E+10	1	-1E+10	1	-1E+10	1	-1E+10	1
4901784	2	C	07/25/2015	10:44	-128.843	46.578	0	437.50	0	5.2290	0	34.0180	0	26.874	0	433.427	0	46.2	4	15.0	4	-1E+10	1	-1E+10	1	-1E+10	1	-1E+10	1	-1E+10	1	-1E+10	1
4901784	2	C	07/25/2015	10:44	-128.843	46.578	0	440.00	0	5.2230	0	34.0170	0	26.874	0	435.901	0	45.5	4	14.8	4	-1E+10	1	-1E+10	1	-1E+10	1	-1E+10	1	-1E+10	1	-1E+10	1
4901784	2	C	07/25/2015	10:44	-128.843	46.578	0	442.50	0	5.2250	0	34.0220	0	26.878	0	438.375	0	44.7	4	14.5	4	-1E+10	1	-1E+10	1	-1E+10	1	-1E+10	1	-1E+10	1	-1E+10	1
4901784	2	C	07/25/2015	10:44	-128.843	46.578	0	445.00	0	5.2280	0	34.0250	0	26.880	0	440.849	0	44.3	4	14.4	4	-1E+10	1	-1E+10	1	-1E+10	1	-1E+10	1	-1E+10	1	-1E+10	1
4901784	2	C	07/25/2015	10:44	-128.843	46.578	0	447.60	0	5.2240	0	34.0260	0	26.881	0	443.422	0	44.2	4	14.3	4	-1E+10	1	-1E+10	1	-1E+10	1	-1E+10	1	-1E+10	1	-1E+10	1
4901784	2	C	07/25/2015	10:44	-128.843	46.578	0	450.20	0	5.1950	0	34.0250	0	26.884	0	445.995	0	44.2	4	14.3	4	-1E+10	1	-1E+10	1	-1E+10	1	-1E+10	1	-1E+10	1	-1E+10	1
4901784	2	C	07/25/2015	10:44	-128.843	46.578	0	452.80	0	5.1720	0	34.0240	0	26.886	0	448.568	0	44.0	4	14.3	4	-1E+10	1	-1E+10	1	-1E+10	1	-1E+10	1	-1E+10	1	-1E+10	1
4901784	2	C	07/25/2015	10:44	-128.843	46.578	0	455.30	0	5.1480	0	34.0270	0	26.891	0	451.042	0	43.7	4	14.2	4	-1E+10	1	-1E+10	1	-1E+10	1	-1E+10	1	-1E+10	1	-1E+10	1
4901784	2	C	07/25/2015	10:44	-128.843	46.578	0	457.00	0	5.1350	0	34.0280	0	26.893	0	452.724	0	43.6	4	14.1	4	-1E+10	1	-1E+10	1	-1E+10	1	-1E+10	1	-1E+10	1	-1E+10	1
4901784	2	C	07/25/2015	10:44	-128.843	46.578	0	459.70	0	5.1180	0	34.0280	0	26.895	0	455.396	0	43.7	4	14.2	4	-1E+10	1	-1E+10	1	-1E+10	1	-1E+10	1	-1E+10	1	-1E+10	1
4901784	2	C	07/25/2015	10:44	-128.843	46.578	0	462.30	0	5.0900	0	34.0240	0	26.895	0	457.969	0	43.7	4	14.1	4	-1E+10	1	-1E+10	1	-1E+10	1	-1E+10	1	-1E+10	1	-1E+10	1
4901784	2	C	07/25/2015	10:44	-128.843	46.578	0	465.00	0	5.0440	0	34.0240	0	26.901	0	460.640	0	43.0	4	13.9	4	-1E+10	1	-1E+10	1	-1E+10	1	-1E+10	1	-1E+10	1	-1E+10	1
4901784	2	C	07/25/2015	10:44	-128.843	46.578	0	467.60	0	5.0550	0	34.0280	0	26.903	0	463.213	0	41.9	4	13.6	4	-1E+10	1	-1E+10	1	-1E+10	1	-1E+10	1	-1E+10	1	-1E+10	1
4901784	2	C	07/25/2015	10:44	-128.843	46.578	0	470.30	0	5.0440	0	34.0330	0	26.908	0	465.885	0	41.2	4	13.3	4	-1E+10	1	-1E+10	1	-1E+10	1	-1E+10	1	-1E+10	1	-1E+10	1
4901784	2	C	07/25/2015	10:44	-128.843	46.578	0	473.00	0	5.0440	0	34.0340	0	26.909	0	468.556	0	40.4	4	13.1	4	-1E+10	1	-1E+10	1	-1E+10	1	-1E+10	1	-1E+10	1	-1E+10	1
4901784	2	C	07/25/2015	10:44	-128.843	46.578	0	474.70	0	5.0280	0	34.0380	0	26.914	0	470.239	0	39.9	4	12.9	4	-1E+10	1	-1E+10	1	-1E+10	1	-1E+10	1	-1E+10	1	-1E+10	1
4901784	2	C	07/25/2015	10:44	-128.843	46.578	0	477.40	0	5.0120	0	34.0390	0	26.916	0	472.910	0	39.4	4	12.7	4	-1E+10	1	-1E+10	1	-1E+10	1	-1E+10	1	-1E+10	1	-1E+10	1
4901784	2	C	07/25/2015	10:44	-128.843	46.578	0	480.10	0	5.0030	0	34.0410	0	26.919	0	475.582	0	38.8	4	12.5	4	-1E+10	1	-1E+10	1	-1E+10	1	-1E+10	1	-1E+10	1	-1E+10	1
4901784	2	C	07/25/2015	10:44	-128.843	46.578	0	482.80	0	4.9860	0	34.0450	0	26.924	0	478.253	0	38.1	4	12.3	4	-1E+10	1	-1E+10	1	-1E+10	1	-1E+10	1	-1E+10	1	-1E+10	1
4901784	2	C	07/25/2015	10:44	-128.843	46.578	0	485.50	0	4.9640	0	34.0470	0	26.928	0	480.925	0	37.6	4	12.1	4	-1E+10	1	-1E+10	1	-1E+10	1	-1E+10	1	-1E+10	1	-1E+10	1
4901784	2	C	07/25/2015	10:44	-128.843	46.578	0	487.20	0	4.9630	0	34.0470	0	26.928	0	482.607	0	37.2	4	12.0	4	-1E+10	1	-1E+10	1	-1E+10	1	-1E+10	1	-1E+10	1	-1E+10	1
4901784	2	C	07/25/2015	10:44	-128.843	46.578	0	489.90	0	4.9630	0	34.0510	0	26.932	0	485.278	0	36.5	4	11.8	4	-1E+10	1	-1E+10	1	-1E+10	1	-1E+10	1	-1E+10	1	-1E+10	1
4901784	2	C	07/25/2015	10:44	-128.843	46.578	0	492.60	0	4.9460	0	34.0550	0	26.937	0	487.949	0	36.2	4	11.7	4	-1E+10	1	-1E+10	1	-1E+10	1	-1E+10	1	-1E+10	1	-1E+10	1
4901784	2	C	07/25/2015	10:44	-128.843	46.578	0	495.30	0	4.9130	0	34.0540	0	26.940	0	490.621	0	35.9	4	11.6	4	-1E+10	1	-1E+10	1	-1E+10	1	-1E+10	1	-1E+10	1	-1E+10	1
4901784	2	C	07/25/2015	10:44	-128.843	46.578	0	498.00	0	4.8860	0	34.0560	0	26.944	0	493.292	0	35.6	4	11.5	4	-1E+10	1	-1E+10	1	-1E+10	1	-1E+10	1	-1E+10	1	-1E+10	1
4901784	2	C	07/25/2015	10:44	-128.843	46.578	0	499.80	0	4.8600	0	34.0560	0	26.947	0	495.073	0	35.4	4	11.4	4	-1E+10	1	-1E+10	1	-1E+10	1	-1E+10	1	-1E+10	1	-1E+10	1
4901784	2	C	07/25/2015	10:44	-128.843	46.578	0	505.20	0	4.8450	0	34.0610	0	26.953	0	500.415	0	34.4	4	11.1	4	-1E+10	1	-1E+10	1	-1E+10	1	-1E+10	1	-1E+10	1	-1E+10	1
4901784	2	C	07/25/2015	10:44	-128.843	46.578	0	510.60	0	4.8340	0	34.0640	0	26.957	0	505.757	0	33.7	4	10.9	4	-1E+10	1	-1E+10	1	-1E+10	1	-1E+10	1	-1E+10	1	-1E+10	1
4901784	2	C	07/25/2015	10:44	-128.843	46.578	0	515.20	0	4.8120	0	34.0660	0	26.961	0	510.308	0	33.6	4	10.8	4	-1E+10	1	-1E+10	1	-1E+10	1	-1E+10	1	-1E+10	1	-1E+10	1
4901784	2	C	07/25/2015	10:44	-128.843	46.578	0	519.80	0	4.7830	0	34.0660	0	26.964	0	514.859	0	33.5	4	10.8	4	-1E+10	1	-1E+10	1	-1E+10	1	-1E+10	1	-1E+10	1	-1E+10	1
4901784	2	C	07/25/2015	10:44	-128.843	46.578	0	525.40	0	4.7540	0	34.0680	0	26.969	0	520.399	0	33.1	4	10.6	4	-1E+10	1	-1E+10	1	-1E+10	1	-1E+10	1	-1E+10	1	-1E+10	1
4901784	2	C	07/25/2015	10:44	-128.843	46.578	0	530.00	0	4.7480	0	34.0690	0	26.970	0	524.949	0	32.5	4	10.4	4	-1E+10	1	-1E+10	1	-1E+10	1	-1E+10	1	-1E+10	1	-1E+10	1
4901784	2	C	07/25/2015	10:44	-128.843	46.578	0	534.70	0	4.7350	0	34.0740	0	26.976	0	529.598	0	31.8	4	10.2	4	-1E+10	1	-1E+10	1	-1E+10	1	-1E+10	1	-1E+10	1	-1E+10	1
4901784	2	C	07/25/2015	10:44	-128.843	46.578	0	540.30	0	4.6870	0	34.0760	0	26.983	0	535.138	0	31.8	4	10.2	4	-1E+10	1	-1E+10	1	-1E+10	1	-1E+10	1	-1E+10	1	-1E+10	1
4901784	2	C	07/25/2015	10:44	-128.843	46.578	0	545.00	0	4.6580	0	34.0750	0	26.985	0	539.787	0	32.2	4	10.3	4	-1E+10	1	-1E+10	1	-1E+10	1	-1E+10	1	-1E+10	1	-1E+10	1
4901784	2	C	07/25/2015	10:44	-128.843	46.578	0	549.60	0	4.5400	0	34.0690	0	26.993	0	544.337	0	32.9	4	10.5	4	-1E+10	1	-1E+10	1	-1E+10	1	-1E+10	1	-1E+10	1	-1E+10	1
4901784	2	C	07/25/2015	10:44	-128.843	46.578	0	555.20	0	4.4830	0	34.0690	0	26.999	0	549.876	0	32.7	4	10.4	4	-1E+10	1	-1E+10	1	-1E+10	1	-1E+10	1	-1E+10	1	-1E+10	1
4901784	2	C	07/25/2015	10:44	-128.843	46.578	0	559.90	0	4.4200	0	34.0720	0	27.008	0	554.524	0	32.3	4	10.3	4	-1E+10	1	-1E+10	1	-1E+10	1	-1E+10	1	-1E+10	1	-1E+10	1
4901784	2	C	07/25/2015	10:44	-128.843	46.578	0	564.60	0	4.4190	0	34.0750	0	27.011	0	559.173	0	31.7	4	10.1	4	-1E+10	1	-1E+10	1	-1E+10	1	-1E+10	1	-1E+10	1	-1E+10	1
4901784	2	C	07/25/2015	10:44	-128.843	46.578	0	570.00	0	4.4300	0	34.0810	0	27.015	0	564.514	0	30.8	4	9.8	4	-1E+10	1	-1E+10	1	-1E+10	1	-1E+10	1	-1E+10	1	-1E+10	1
4901784	2	C	07/25/2015	10:44	-128.843	46.578	0	575.10	0	4.3980	0	34.0850	0	27.021	0	569.557	0	30.5	4	9.7	4	-1E+10	1	-1E+10	1	-1E+10	1	-1E+10	1	-1E+10	1	-1E+10	1
4901784	2	C	07/25/2015	10:44	-128.843	46.578	0	580.70	0	4.3620	0	34.0880	0	27.028	0	575.096	0	30.4	4	9.7	4	-1E+10	1	-1E+10	1	-1E+10	1	-1E+10	1	-1E+10	1	-1E+10	1
4901784	2	C	07/25/2015	10:44	-128.843	46.578	0	585.60	0	4.3450	0	34.0890	0	27.030	0	579.942	0	30.2	4	9.6	4	-1E+10	1	-1E+10	1	-1E+10	1	-1E+10	1	-1E+10	1	-1E+10	1
4901784	2	C	07/25/2015	10:44	-128.843	46.578	0	590.50	0	4.3320	0	34.0910	0	27.033	0	584.787	0	29.7	4	9.4	4	-1E+10	1	-1E+10	1	-1E+10	1	-1E+10	1	-1E+10	1	-1E+10	1
4901784	2	C	07/25/2015	10:44	-128.843	46.578	0	595.50	0	4.3230	0	34.0940	0	27.037	0	589.732	0	29.3	4	9.3	4	-1E+10	1	-1E+10	1	-1E+10	1	-1E+10	1	-1E+10	1	-1E+10	1
4901784	2	C	07/25/2015	10:44	-128.843	46.578	0	600.30	0	4.2860	0	34.0970	0	27.043	0	594.479	0	29.0	4	9.2	4	-1E+10	1	-1E+10	1	-1E+10	1	-1E+10	1	-1E+10	1	-1E+10	1
4901784	2	C	07/25/2015	10:44	-128.843	46.578	0	605.20	0	4.2540	0	34.0980	0	27.047	0	599.324	0	28.7	4	9.1	4	-1E+10	1	-1E+10	1	-1E+10	1	-1E+10	1	-1E+10	1	-1E+10	1
4901784	2	C	07/25/2015	10:44	-128.843	46.578	0	610.10	0	4.2370	0	34.1000	0	27.050	0	604.169	0	28.1	4	8.9	4	-1E+10	1	-1E+10	1	-1E+10	1	-1E+10	1	-1E+10	1	-1E+10	1
4901784	2	C	07/25/2015	10:44	-128.843	46.578	0	615.00	0	4.2120	0	34.1060	0	27.058	0	609.015	0	27.3	4	8.7	4	-1E+10	1	-1E+10	1	-1E+10	1	-1E+10	1	-1E+10	1	-1E+10	1
4901784	2	C	07/25/2015	10:44	-128.843	46.578	0	619.90	0	4.2080	0	34.1140	0	27.065	0	613.860	0	26.6	4	8.4	4	-1E+10	1	-1E+10	1	-1E+10	1	-1E+10	1	-1E+10	1	-1E+10	1
4901784	2	C	07/25/2015	10:44	-128.843	46.578	0	624.90	0	4.1780	0	34.1140	0	27.068	0	618.804	0	26.3	4	8.3	4	-1E+10	1	-1E+10	1	-1E+10	1	-1E+10	1	-1E+10	1	-1E+10	1
4901784	2	C	07/25/2015	10:44	-128.843	46.578	0	629.90	0	4.1570	0	34.1190	0	27.074	0	623.747	0	25.6	4	8.1	4	-1E+10	1	-1E+10	1	-1E+10	1	-1E+10	1	-1E+10	1	-1E+10	1
4901784	2	C	07/25/2015	10:44	-128.843	46.578	0	635.00	0	4.1400	0	34.1250	0	27.081	0	628.790	0	25.0	4	7.9	4	-1E+10	1	-1E+10	1	-1E+10	1	-1E+10	1	-1E+10	1	-1E+10	1
4901784	2	C	07/25/2015	10:44	-128.843	46.578	0	640.10	0	4.1340	0	34.1300	0	27.085	0	633.832	0	24.4	4	7.7	4	-1E+10	1	-1E+10	1	-1E+10	1	-1E+10	1	-1E+10	1	-1E+10	1
4901784	2	C	07/25/2015	10:44	-128.843	46.578	0	645.10	0	4.1270	0	34.1350	0	27.090	0	638.775	0	23.7	4	7.5	4	-1E+10	1	-1E+10	1	-1E+10	1	-1E+10	1	-1E+10	1	-1E+10	1
4901784	2	C	07/25/2015	10:44	-128.843	46.578	0	650.20	0	4.1210	0	34.1400	0	27.095	0	643.818	0	22.9	4	7.3	4	-1E+10	1	-1E+10	1	-1E+10	1	-1E+10	1	-1E+10	1	-1E+10	1
4901784	2	C	07/25/2015	10:44	-128.843	46.578	0	655.30	0	4.1160	0	34.1460	0	27.100	0	648.860	0	22.0	4	7.0	4	-1E+10	1	-1E+10	1	-1E+10	1	-1E+10	1	-1E+10	1	-1E+10	1
4901784	2	C	07/25/2015	10:44	-128.843	46.578	0	660.30	0	4.1210	0	34.1530	0	27.105	0	653.803	0	21.0	4	6.6	4	-1E+10	1	-1E+10	1	-1E+10	1	-1E+10	1	-1E+10	1	-1E+10	1
4901784	2	C	07/25/2015	10:44	-128.843	46.578	0	665.50	0	4.1140	0	34.1580	0	27.110	0	658.943	0	20.4	4	6.5	4	-1E+10	1	-1E+10	1	-1E+10	1	-1E+10	1	-1E+10	1	-1E+10	1
4901784	2	C	07/25/2015	10:44	-128.843	46.578	0	670.60	0	4.0890	0	34.1630	0	27.116	0	663.985	0	19.9	4	6.3	4	-1E+10	1	-1E+10	1	-1E+10	1	-1E+10	1	-1E+10	1	-1E+10	1
4901784	2	C	07/25/2015	10:44	-128.843	46.578	0	675.00	0	4.0820	0	34.1670	0	27.120	0	668.334	0	19.4	4	6.1	4	-1E+10	1	-1E+10	1	-1E+10	1	-1E+10	1	-1E+10	1	-1E+10	1
4901784	2	C	07/25/2015	10:44	-128.843	46.578	0	679.30	0	4.0800	0	34.1720	0	27.124	0	672.585	0	18.9	4	6.0	4	-1E+10	1	-1E+10	1	-1E+10	1	-1E+10	1	-1E+10	1	-1E+10	1
4901784	2	C	07/25/2015	10:44	-128.843	46.578	0	684.50	0	4.0670	0	34.1760	0	27.129	0	677.725	0	18.5	4	5.9	4	-1E+10	1	-1E+10	1	-1E+10	1	-1E+10	1	-1E+10	1	-1E+10	1
4901784	2	C	07/25/2015	10:44	-128.843	46.578	0	689.80	0	4.0480	0	34.1800	0	27.134	0	682.964	0	18.4	4	5.8	4	-1E+10	1	-1E+10	1	-1E+10	1	-1E+10	1	-1E+10	1	-1E+10	1
4901784	2	C	07/25/2015	10:44	-128.843	46.578	0	694.90	0	4.0380	0	34.1820	0	27.137	0	688.005	0	18.0	4	5.7	4	-1E+10	1	-1E+10	1	-1E+10	1	-1E+10	1	-1E+10	1	-1E+10	1
4901784	2	C	07/25/2015	10:44	-128.843	46.578	0	700.10	0	4.0290	0	34.1890	0	27.143	0	693.145	0	17.6	4	5.6	4	-1E+10	1	-1E+10	1	-1E+10	1	-1E+10	1	-1E+10	1	-1E+10	1
4901784	2	C	07/25/2015	10:44	-128.843	46.578	0	705.40	0	4.0150	0	34.1930	0	27.148	0	698.383	0	17.4	4	5.5	4	-1E+10	1	-1E+10	1	-1E+10	1	-1E+10	1	-1E+10	1	-1E+10	1
4901784	2	C	07/25/2015	10:44	-128.843	46.578	0	709.80	0	4.0060	0	34.1950	0	27.151	0	702.732	0	17.3	4	5.5	4	-1E+10	1	-1E+10	1	-1E+10	1	-1E+10	1	-1E+10	1	-1E+10	1
4901784	2	C	07/25/2015	10:44	-128.843	46.578	0	714.30	0	4.0010	0	34.1950	0	27.151	0	707.180	0	17.3	4	5.5	4	-1E+10	1	-1E+10	1	-1E+10	1	-1E+10	1	-1E+10	1	-1E+10	1
4901784	2	C	07/25/2015	10:44	-128.843	46.578	0	719.80	0	3.9790	0	34.1980	0	27.156	0	712.615	0	17.1	4	5.4	4	-1E+10	1	-1E+10	1	-1E+10	1	-1E+10	1	-1E+10	1	-1E+10	1
4901784	2	C	07/25/2015	10:44	-128.843	46.578	0	725.30	0	3.9640	0	34.2000	0	27.159	0	718.051	0	16.8	4	5.3	4	-1E+10	1	-1E+10	1	-1E+10	1	-1E+10	1	-1E+10	1	-1E+10	1
4901784	2	C	07/25/2015	10:44	-128.843	46.578	0	729.90	0	3.9450	0	34.2030	0	27.163	0	722.597	0	16.6	4	5.2	4	-1E+10	1	-1E+10	1	-1E+10	1	-1E+10	1	-1E+10	1	-1E+10	1
4901784	2	C	07/25/2015	10:44	-128.843	46.578	0	734.40	0	3.9390	0	34.2060	0	27.166	0	727.044	0	16.3	4	5.1	4	-1E+10	1	-1E+10	1	-1E+10	1	-1E+10	1	-1E+10	1	-1E+10	1
4901784	2	C	07/25/2015	10:44	-128.843	46.578	0	740.10	0	3.9390	0	34.2110	0	27.170	0	732.677	0	15.9	4	5.0	4	-1E+10	1	-1E+10	1	-1E+10	1	-1E+10	1	-1E+10	1	-1E+10	1
4901784	2	C	07/25/2015	10:44	-128.843	46.578	0	744.80	0	3.9370	0	34.2150	0	27.174	0	737.322	0	15.6	4	4.9	4	-1E+10	1	-1E+10	1	-1E+10	1	-1E+10	1	-1E+10	1	-1E+10	1
4901784	2	C	07/25/2015	10:44	-128.843	46.578	0	749.50	0	3.9100	0	34.2190	0	27.180	0	741.966	0	15.4	4	4.8	4	-1E+10	1	-1E+10	1	-1E+10	1	-1E+10	1	-1E+10	1	-1E+10	1
4901784	2	C	07/25/2015	10:44	-128.843	46.578	0	754.40	0	3.9010	0	34.2250	0	27.185	0	746.808	0	15.1	4	4.7	4	-1E+10	1	-1E+10	1	-1E+10	1	-1E+10	1	-1E+10	1	-1E+10	1
4901784	2	C	07/25/2015	10:44	-128.843	46.578	0	759.20	0	3.9010	0	34.2290	0	27.189	0	751.551	0	14.9	4	4.7	4	-1E+10	1	-1E+10	1	-1E+10	1	-1E+10	1	-1E+10	1	-1E+10	1
4901784	2	C	07/25/2015	10:44	-128.843	46.578	0	764.60	0	3.8980	0	34.2300	0	27.190	0	756.887	0	14.8	4	4.7	4	-1E+10	1	-1E+10	1	-1E+10	1	-1E+10	1	-1E+10	1	-1E+10	1
4901784	2	C	07/25/2015	10:44	-128.843	46.578	0	769.40	0	3.8840	0	34.2320	0	27.193	0	761.630	0	14.7	4	4.6	4	-1E+10	1	-1E+10	1	-1E+10	1	-1E+10	1	-1E+10	1	-1E+10	1
4901784	2	C	07/25/2015	10:44	-128.843	46.578	0	774.30	0	3.8650	0	34.2340	0	27.196	0	766.471	0	14.7	4	4.6	4	-1E+10	1	-1E+10	1	-1E+10	1	-1E+10	1	-1E+10	1	-1E+10	1
4901784	2	C	07/25/2015	10:44	-128.843	46.578	0	779.20	0	3.8450	0	34.2380	0	27.202	0	771.313	0	14.5	4	4.6	4	-1E+10	1	-1E+10	1	-1E+10	1	-1E+10	1	-1E+10	1	-1E+10	1
4901784	2	C	07/25/2015	10:44	-128.843	46.578	0	784.20	0	3.8260	0	34.2420	0	27.207	0	776.253	0	14.4	4	4.5	4	-1E+10	1	-1E+10	1	-1E+10	1	-1E+10	1	-1E+10	1	-1E+10	1
4901784	2	C	07/25/2015	10:44	-128.843	46.578	0	789.20	0	3.8040	0	34.2460	0	27.212	0	781.193	0	14.2	4	4.5	4	-1E+10	1	-1E+10	1	-1E+10	1	-1E+10	1	-1E+10	1	-1E+10	1
4901784	2	C	07/25/2015	10:44	-128.843	46.578	0	794.30	0	3.8010	0	34.2500	0	27.216	0	786.232	0	13.8	4	4.3	4	-1E+10	1	-1E+10	1	-1E+10	1	-1E+10	1	-1E+10	1	-1E+10	1
4901784	2	C	07/25/2015	10:44	-128.843	46.578	0	799.50	0	3.7990	0	34.2570	0	27.221	0	791.369	0	13.5	4	4.2	4	-1E+10	1	-1E+10	1	-1E+10	1	-1E+10	1	-1E+10	1	-1E+10	1
4901784	2	C	07/25/2015	10:44	-128.843	46.578	0	804.60	0	3.7910	0	34.2590	0	27.224	0	796.407	0	13.4	4	4.2	4	-1E+10	1	-1E+10	1	-1E+10	1	-1E+10	1	-1E+10	1	-1E+10	1
4901784	2	C	07/25/2015	10:44	-128.843	46.578	0	809.60	0	3.7750	0	34.2620	0	27.228	0	801.347	0	13.4	4	4.2	4	-1E+10	1	-1E+10	1	-1E+10	1	-1E+10	1	-1E+10	1	-1E+10	1
4901784	2	C	07/25/2015	10:44	-128.843	46.578	0	814.70	0	3.7670	0	34.2630	0	27.229	0	806.385	0	13.3	4	4.2	4	-1E+10	1	-1E+10	1	-1E+10	1	-1E+10	1	-1E+10	1	-1E+10	1
4901784	2	C	07/25/2015	10:44	-128.843	46.578	0	819.80	0	3.7660	0	34.2660	0	27.232	0	811.423	0	13.2	4	4.1	4	-1E+10	1	-1E+10	1	-1E+10	1	-1E+10	1	-1E+10	1	-1E+10	1
4901784	2	C	07/25/2015	10:44	-128.843	46.578	0	825.00	0	3.7570	0	34.2670	0	27.234	0	816.560	0	13.2	4	4.1	4	-1E+10	1	-1E+10	1	-1E+10	1	-1E+10	1	-1E+10	1	-1E+10	1
4901784	2	C	07/25/2015	10:44	-128.843	46.578	0	830.10	0	3.7300	0	34.2690	0	27.238	0	821.598	0	13.1	4	4.1	4	-1E+10	1	-1E+10	1	-1E+10	1	-1E+10	1	-1E+10	1	-1E+10	1
4901784	2	C	07/25/2015	10:44	-128.843	46.578	0	835.20	0	3.7230	0	34.2730	0	27.242	0	826.635	0	12.8	4	4.0	4	-1E+10	1	-1E+10	1	-1E+10	1	-1E+10	1	-1E+10	1	-1E+10	1
4901784	2	C	07/25/2015	10:44	-128.843	46.578	0	840.40	0	3.7400	0	34.2790	0	27.245	0	831.772	0	12.6	4	4.0	4	-1E+10	1	-1E+10	1	-1E+10	1	-1E+10	1	-1E+10	1	-1E+10	1
4901784	2	C	07/25/2015	10:44	-128.843	46.578	0	845.60	0	3.7290	0	34.2800	0	27.247	0	836.908	0	12.7	4	4.0	4	-1E+10	1	-1E+10	1	-1E+10	1	-1E+10	1	-1E+10	1	-1E+10	1
4901784	2	C	07/25/2015	10:44	-128.843	46.578	0	850.00	0	3.7070	0	34.2800	0	27.249	0	841.254	0	12.9	4	4.0	4	-1E+10	1	-1E+10	1	-1E+10	1	-1E+10	1	-1E+10	1	-1E+10	1
4901784	2	C	07/25/2015	10:44	-128.843	46.578	0	854.30	0	3.6850	0	34.2820	0	27.253	0	845.501	0	12.9	4	4.0	4	-1E+10	1	-1E+10	1	-1E+10	1	-1E+10	1	-1E+10	1	-1E+10	1
4901784	2	C	07/25/2015	10:44	-128.843	46.578	0	859.60	0	3.6780	0	34.2830	0	27.255	0	850.735	0	12.8	4	4.0	4	-1E+10	1	-1E+10	1	-1E+10	1	-1E+10	1	-1E+10	1	-1E+10	1
4901784	2	C	07/25/2015	10:44	-128.843	46.578	0	864.80	0	3.6750	0	34.2850	0	27.256	0	855.871	0	12.7	4	4.0	4	-1E+10	1	-1E+10	1	-1E+10	1	-1E+10	1	-1E+10	1	-1E+10	1
4901784	2	C	07/25/2015	10:44	-128.843	46.578	0	870.10	0	3.6620	0	34.2860	0	27.259	0	861.106	0	12.7	4	4.0	4	-1E+10	1	-1E+10	1	-1E+10	1	-1E+10	1	-1E+10	1	-1E+10	1
4901784	2	C	07/25/2015	10:44	-128.843	46.578	0	875.40	0	3.6530	0	34.2890	0	27.262	0	866.340	0	12.6	4	4.0	4	-1E+10	1	-1E+10	1	-1E+10	1	-1E+10	1	-1E+10	1	-1E+10	1
4901784	2	C	07/25/2015	10:44	-128.843	46.578	0	880.70	0	3.6420	0	34.2920	0	27.265	0	871.574	0	12.6	4	3.9	4	-1E+10	1	-1E+10	1	-1E+10	1	-1E+10	1	-1E+10	1	-1E+10	1
4901784	2	C	07/25/2015	10:44	-128.843	46.578	0	885.10	0	3.6290	0	34.2960	0	27.270	0	875.919	0	12.6	4	3.9	4	-1E+10	1	-1E+10	1	-1E+10	1	-1E+10	1	-1E+10	1	-1E+10	1
4901784	2	C	07/25/2015	10:44	-128.843	46.578	0	889.70	0	3.6300	0	34.2970	0	27.271	0	880.462	0	12.5	4	3.9	4	-1E+10	1	-1E+10	1	-1E+10	1	-1E+10	1	-1E+10	1	-1E+10	1
4901784	2	C	07/25/2015	10:44	-128.843	46.578	0	895.10	0	3.6190	0	34.2990	0	27.273	0	885.794	0	12.5	4	3.9	4	-1E+10	1	-1E+10	1	-1E+10	1	-1E+10	1	-1E+10	1	-1E+10	1
4901784	2	C	07/25/2015	10:44	-128.843	46.578	0	900.50	0	3.6130	0	34.3020	0	27.276	0	891.127	0	12.4	4	3.9	4	-1E+10	1	-1E+10	1	-1E+10	1	-1E+10	1	-1E+10	1	-1E+10	1
4901784	2	C	07/25/2015	10:44	-128.843	46.578	0	905.00	0	3.6130	0	34.3050	0	27.279	0	895.570	0	12.3	4	3.9	4	-1E+10	1	-1E+10	1	-1E+10	1	-1E+10	1	-1E+10	1	-1E+10	1
4901784	2	C	07/25/2015	10:44	-128.843	46.578	0	909.50	0	3.6020	0	34.3080	0	27.282	0	900.014	0	12.3	4	3.8	4	-1E+10	1	-1E+10	1	-1E+10	1	-1E+10	1	-1E+10	1	-1E+10	1
4901784	2	C	07/25/2015	10:44	-128.843	46.578	0	914.90	0	3.5690	0	34.3090	0	27.286	0	905.346	0	12.3	4	3.8	4	-1E+10	1	-1E+10	1	-1E+10	1	-1E+10	1	-1E+10	1	-1E+10	1
4901784	2	C	07/25/2015	10:44	-128.843	46.578	0	920.40	0	3.5530	0	34.3120	0	27.290	0	910.776	0	12.2	4	3.8	4	-1E+10	1	-1E+10	1	-1E+10	1	-1E+10	1	-1E+10	1	-1E+10	1
4901784	2	C	07/25/2015	10:44	-128.843	46.578	0	925.00	0	3.5360	0	34.3140	0	27.293	0	915.318	0	12.2	4	3.8	4	-1E+10	1	-1E+10	1	-1E+10	1	-1E+10	1	-1E+10	1	-1E+10	1
4901784	2	C	07/25/2015	10:44	-128.843	46.578	0	929.60	0	3.5290	0	34.3180	0	27.297	0	919.860	0	12.2	4	3.8	4	-1E+10	1	-1E+10	1	-1E+10	1	-1E+10	1	-1E+10	1	-1E+10	1
4901784	2	C	07/25/2015	10:44	-128.843	46.578	0	935.20	0	3.5050	0	34.3200	0	27.301	0	925.389	0	12.2	4	3.8	4	-1E+10	1	-1E+10	1	-1E+10	1	-1E+10	1	-1E+10	1	-1E+10	1
4901784	2	C	07/25/2015	10:44	-128.843	46.578	0	939.80	0	3.4810	0	34.3230	0	27.306	0	929.930	0	12.1	4	3.8	4	-1E+10	1	-1E+10	1	-1E+10	1	-1E+10	1	-1E+10	1	-1E+10	1
4901784	2	C	07/25/2015	10:44	-128.843	46.578	0	945.10	0	3.4710	0	34.3270	0	27.310	0	935.163	0	12.1	4	3.8	4	-1E+10	1	-1E+10	1	-1E+10	1	-1E+10	1	-1E+10	1	-1E+10	1
4901784	2	C	07/25/2015	10:44	-128.843	46.578	0	950.30	0	3.4600	0	34.3290	0	27.313	0	940.296	0	12.0	4	3.8	4	-1E+10	1	-1E+10	1	-1E+10	1	-1E+10	1	-1E+10	1	-1E+10	1
4901784	2	C	07/25/2015	10:44	-128.843	46.578	0	955.10	0	3.4580	0	34.3320	0	27.315	0	945.035	0	12.0	4	3.7	4	-1E+10	1	-1E+10	1	-1E+10	1	-1E+10	1	-1E+10	1	-1E+10	1
4901784	2	C	07/25/2015	10:44	-128.843	46.578	0	960.00	0	3.4460	0	34.3340	0	27.318	0	949.872	0	11.9	4	3.7	4	-1E+10	1	-1E+10	1	-1E+10	1	-1E+10	1	-1E+10	1	-1E+10	1
4901784	2	C	07/25/2015	10:44	-128.843	46.578	0	964.90	0	3.4430	0	34.3380	0	27.322	0	954.709	0	11.8	4	3.7	4	-1E+10	1	-1E+10	1	-1E+10	1	-1E+10	1	-1E+10	1	-1E+10	1
4901784	2	C	07/25/2015	10:44	-128.843	46.578	0	969.80	0	3.4430	0	34.3400	0	27.323	0	959.546	0	11.8	4	3.7	4	-1E+10	1	-1E+10	1	-1E+10	1	-1E+10	1	-1E+10	1	-1E+10	1
4901784	2	C	07/25/2015	10:44	-128.843	46.578	0	974.80	0	3.4430	0	34.3420	0	27.325	0	964.482	0	11.8	4	3.7	4	-1E+10	1	-1E+10	1	-1E+10	1	-1E+10	1	-1E+10	1	-1E+10	1
4901784	2	C	07/25/2015	10:44	-128.843	46.578	0	979.70	0	3.4250	0	34.3440	0	27.328	0	969.319	0	11.8	4	3.7	4	-1E+10	1	-1E+10	1	-1E+10	1	-1E+10	1	-1E+10	1	-1E+10	1
4901784	2	C	07/25/2015	10:44	-128.843	46.578	0	984.70	0	3.4090	0	34.3470	0	27.332	0	974.254	0	11.8	4	3.7	4	-1E+10	1	-1E+10	1	-1E+10	1	-1E+10	1	-1E+10	1	-1E+10	1
4901784	2	C	07/25/2015	10:44	-128.843	46.578	0	989.70	0	3.3920	0	34.3490	0	27.336	0	979.190	0	11.9	4	3.7	4	-1E+10	1	-1E+10	1	-1E+10	1	-1E+10	1	-1E+10	1	-1E+10	1
4901784	2	C	07/25/2015	10:44	-128.843	46.578	0	994.80	0	3.3840	0	34.3500	0	27.337	0	984.223	0	11.9	4	3.7	4	-1E+10	1	-1E+10	1	-1E+10	1	-1E+10	1	-1E+10	1	-1E+10	1
4901784	2	C	07/25/2015	10:44	-128.843	46.578	0	999.90	0	3.3750	0	34.3530	0	27.340	0	989.257	0	11.9	4	3.7	4	-1E+10	1	-1E+10	1	-1E+10	1	-1E+10	1	-1E+10	1	-1E+10	1
4901784	2	C	07/25/2015	10:44	-128.843	46.578	0	1005.00	0	3.3620	0	34.3560	0	27.344	0	994.291	0	11.9	4	3.7	4	-1E+10	1	-1E+10	1	-1E+10	1	-1E+10	1	-1E+10	1	-1E+10	1
4901784	2	C	07/25/2015	10:44	-128.843	46.578	0	1010.10	0	3.3440	0	34.3590	0	27.348	0	999.324	0	11.9	4	3.7	4	-1E+10	1	-1E+10	1	-1E+10	1	-1E+10	1	-1E+10	1	-1E+10	1
4901784	2	C	07/25/2015	10:44	-128.843	46.578	0	1015.20	0	3.3310	0	34.3610	0	27.351	0	1004.358	0	11.9	4	3.7	4	-1E+10	1	-1E+10	1	-1E+10	1	-1E+10	1	-1E+10	1	-1E+10	1
4901784	2	C	07/25/2015	10:44	-128.843	46.578	0	1020.30	0	3.3230	0	34.3620	0	27.353	0	1009.391	0	11.9	4	3.7	4	-1E+10	1	-1E+10	1	-1E+10	1	-1E+10	1	-1E+10	1	-1E+10	1
4901784	2	C	07/25/2015	10:44	-128.843	46.578	0	1025.50	0	3.3160	0	34.3630	0	27.354	0	1014.523	0	12.0	4	3.7	4	-1E+10	1	-1E+10	1	-1E+10	1	-1E+10	1	-1E+10	1	-1E+10	1
4901784	2	C	07/25/2015	10:44	-128.843	46.578	0	1030.60	0	3.3080	0	34.3660	0	27.357	0	1019.556	0	11.9	4	3.7	4	-1E+10	1	-1E+10	1	-1E+10	1	-1E+10	1	-1E+10	1	-1E+10	1
4901784	2	C	07/25/2015	10:44	-128.843	46.578	0	1035.70	0	3.3140	0	34.3700	0	27.360	0	1024.589	0	11.9	4	3.7	4	-1E+10	1	-1E+10	1	-1E+10	1	-1E+10	1	-1E+10	1	-1E+10	1
4901784	2	C	07/25/2015	10:44	-128.843	46.578	0	1040.00	0	3.3000	0	34.3730	0	27.364	0	1028.832	0	12.0	4	3.7	4	-1E+10	1	-1E+10	1	-1E+10	1	-1E+10	1	-1E+10	1	-1E+10	1
4901784	2	C	07/25/2015	10:44	-128.843	46.578	0	1044.40	0	3.2810	0	34.3760	0	27.368	0	1033.174	0	12.0	4	3.7	4	-1E+10	1	-1E+10	1	-1E+10	1	-1E+10	1	-1E+10	1	-1E+10	1
4901784	2	C	07/25/2015	10:44	-128.843	46.578	0	1049.60	0	3.2680	0	34.3770	0	27.370	0	1038.305	0	12.1	4	3.8	4	-1E+10	1	-1E+10	1	-1E+10	1	-1E+10	1	-1E+10	1	-1E+10	1
4901784	2	C	07/25/2015	10:44	-128.843	46.578	0	1054.80	0	3.2500	0	34.3790	0	27.373	0	1043.436	0	12.2	4	3.8	4	-1E+10	1	-1E+10	1	-1E+10	1	-1E+10	1	-1E+10	1	-1E+10	1
4901784	2	C	07/25/2015	10:44	-128.843	46.578	0	1060.10	0	3.2300	0	34.3810	0	27.377	0	1048.666	0	12.2	4	3.8	4	-1E+10	1	-1E+10	1	-1E+10	1	-1E+10	1	-1E+10	1	-1E+10	1
4901784	2	C	07/25/2015	10:44	-128.843	46.578	0	1065.30	0	3.2090	0	34.3830	0	27.380	0	1053.797	0	12.3	4	3.8	4	-1E+10	1	-1E+10	1	-1E+10	1	-1E+10	1	-1E+10	1	-1E+10	1
4901784	2	C	07/25/2015	10:44	-128.843	46.578	0	1070.60	0	3.1940	0	34.3860	0	27.384	0	1059.026	0	12.3	4	3.8	4	-1E+10	1	-1E+10	1	-1E+10	1	-1E+10	1	-1E+10	1	-1E+10	1
4901784	2	C	07/25/2015	10:44	-128.843	46.578	0	1075.00	0	3.1810	0	34.3880	0	27.387	0	1063.367	0	12.4	4	3.8	4	-1E+10	1	-1E+10	1	-1E+10	1	-1E+10	1	-1E+10	1	-1E+10	1
4901784	2	C	07/25/2015	10:44	-128.843	46.578	0	1079.60	0	3.1730	0	34.3890	0	27.388	0	1067.906	0	12.4	4	3.8	4	-1E+10	1	-1E+10	1	-1E+10	1	-1E+10	1	-1E+10	1	-1E+10	1
4901784	2	C	07/25/2015	10:44	-128.843	46.578	0	1085.00	0	3.1650	0	34.3910	0	27.391	0	1073.234	0	12.5	4	3.9	4	-1E+10	1	-1E+10	1	-1E+10	1	-1E+10	1	-1E+10	1	-1E+10	1
4901784	2	C	07/25/2015	10:44	-128.843	46.578	0	1090.50	0	3.1540	0	34.3920	0	27.393	0	1078.660	0	12.5	4	3.9	4	-1E+10	1	-1E+10	1	-1E+10	1	-1E+10	1	-1E+10	1	-1E+10	1
4901784	2	C	07/25/2015	10:44	-128.843	46.578	0	1095.10	0	3.1460	0	34.3940	0	27.395	0	1083.198	0	12.5	4	3.9	4	-1E+10	1	-1E+10	1	-1E+10	1	-1E+10	1	-1E+10	1	-1E+10	1
4901784	2	C	07/25/2015	10:44	-128.843	46.578	0	1100.30	0	3.1360	0	34.3960	0	27.398	0	1088.328	0	12.6	4	3.9	4	-1E+10	1	-1E+10	1	-1E+10	1	-1E+10	1	-1E+10	1	-1E+10	1
4901784	2	C	07/25/2015	10:44	-128.843	46.578	0	1105.50	0	3.1280	0	34.3970	0	27.399	0	1093.458	0	12.7	4	3.9	4	-1E+10	1	-1E+10	1	-1E+10	1	-1E+10	1	-1E+10	1	-1E+10	1
4901784	2	C	07/25/2015	10:44	-128.843	46.578	0	1110.30	0	3.1160	0	34.3990	0	27.402	0	1098.193	0	12.7	4	3.9	4	-1E+10	1	-1E+10	1	-1E+10	1	-1E+10	1	-1E+10	1	-1E+10	1
4901784	2	C	07/25/2015	10:44	-128.843	46.578	0	1115.10	0	3.1040	0	34.4010	0	27.405	0	1102.928	0	12.8	4	4.0	4	-1E+10	1	-1E+10	1	-1E+10	1	-1E+10	1	-1E+10	1	-1E+10	1
4901784	2	C	07/25/2015	10:44	-128.843	46.578	0	1120.00	0	3.0930	0	34.4020	0	27.406	0	1107.762	0	12.9	4	4.0	4	-1E+10	1	-1E+10	1	-1E+10	1	-1E+10	1	-1E+10	1	-1E+10	1
4901784	2	C	07/25/2015	10:44	-128.843	46.578	0	1124.80	0	3.0750	0	34.4040	0	27.410	0	1112.497	0	12.9	4	4.0	4	-1E+10	1	-1E+10	1	-1E+10	1	-1E+10	1	-1E+10	1	-1E+10	1
4901784	2	C	07/25/2015	10:44	-128.843	46.578	0	1129.80	0	3.0640	0	34.4050	0	27.411	0	1117.429	0	13.0	4	4.0	4	-1E+10	1	-1E+10	1	-1E+10	1	-1E+10	1	-1E+10	1	-1E+10	1
4901784	2	C	07/25/2015	10:44	-128.843	46.578	0	1134.70	0	3.0500	0	34.4070	0	27.414	0	1122.262	0	13.1	4	4.0	4	-1E+10	1	-1E+10	1	-1E+10	1	-1E+10	1	-1E+10	1	-1E+10	1
4901784	2	C	07/25/2015	10:44	-128.843	46.578	0	1139.70	0	3.0370	0	34.4100	0	27.418	0	1127.194	0	13.2	4	4.1	4	-1E+10	1	-1E+10	1	-1E+10	1	-1E+10	1	-1E+10	1	-1E+10	1
4901784	2	C	07/25/2015	10:44	-128.843	46.578	0	1144.80	0	3.0310	0	34.4120	0	27.420	0	1132.224	0	13.3	4	4.1	4	-1E+10	1	-1E+10	1	-1E+10	1	-1E+10	1	-1E+10	1	-1E+10	1
4901784	2	C	07/25/2015	10:44	-128.843	46.578	0	1149.90	0	3.0230	0	34.4140	0	27.422	0	1137.254	0	13.4	4	4.1	4	-1E+10	1	-1E+10	1	-1E+10	1	-1E+10	1	-1E+10	1	-1E+10	1
4901784	2	C	07/25/2015	10:44	-128.843	46.578	0	1155.10	0	3.0080	0	34.4160	0	27.425	0	1142.383	0	13.5	4	4.2	4	-1E+10	1	-1E+10	1	-1E+10	1	-1E+10	1	-1E+10	1	-1E+10	1
4901784	2	C	07/25/2015	10:44	-128.843	46.578	0	1160.20	0	2.9980	0	34.4170	0	27.427	0	1147.413	0	13.6	4	4.2	4	-1E+10	1	-1E+10	1	-1E+10	1	-1E+10	1	-1E+10	1	-1E+10	1
4901784	2	C	07/25/2015	10:44	-128.843	46.578	0	1165.40	0	2.9940	0	34.4190	0	27.429	0	1152.541	0	13.7	4	4.2	4	-1E+10	1	-1E+10	1	-1E+10	1	-1E+10	1	-1E+10	1	-1E+10	1
4901784	2	C	07/25/2015	10:44	-128.843	46.578	0	1170.60	0	2.9880	0	34.4200	0	27.431	0	1157.670	0	13.8	4	4.2	4	-1E+10	1	-1E+10	1	-1E+10	1	-1E+10	1	-1E+10	1	-1E+10	1
4901784	2	C	07/25/2015	10:44	-128.843	46.578	0	1175.10	0	2.9840	0	34.4220	0	27.433	0	1162.107	0	13.8	4	4.3	4	-1E+10	1	-1E+10	1	-1E+10	1	-1E+10	1	-1E+10	1	-1E+10	1
4901784	2	C	07/25/2015	10:44	-128.843	46.578	0	1179.40	0	2.9740	0	34.4230	0	27.434	0	1166.348	0	14.0	4	4.3	4	-1E+10	1	-1E+10	1	-1E+10	1	-1E+10	1	-1E+10	1	-1E+10	1
4901784	2	C	07/25/2015	10:44	-128.843	46.578	0	1184.80	0	2.9660	0	34.4250	0	27.437	0	1171.673	0	14.1	4	4.3	4	-1E+10	1	-1E+10	1	-1E+10	1	-1E+10	1	-1E+10	1	-1E+10	1
4901784	2	C	07/25/2015	10:44	-128.843	46.578	0	1190.10	0	2.9550	0	34.4270	0	27.439	0	1176.900	0	14.2	4	4.4	4	-1E+10	1	-1E+10	1	-1E+10	1	-1E+10	1	-1E+10	1	-1E+10	1
4901784	2	C	07/25/2015	10:44	-128.843	46.578	0	1195.50	0	2.9470	0	34.4290	0	27.442	0	1182.225	0	14.3	4	4.4	4	-1E+10	1	-1E+10	1	-1E+10	1	-1E+10	1	-1E+10	1	-1E+10	1
4901784	2	C	07/25/2015	10:44	-128.843	46.578	0	1200.00	0	2.9420	0	34.4300	0	27.443	0	1186.662	0	14.4	4	4.4	4	-1E+10	1	-1E+10	1	-1E+10	1	-1E+10	1	-1E+10	1	-1E+10	1
4901784	2	C	07/25/2015	10:44	-128.843	46.578	0	1204.60	0	2.9370	0	34.4310	0	27.444	0	1191.198	0	14.5	4	4.5	4	-1E+10	1	-1E+10	1	-1E+10	1	-1E+10	1	-1E+10	1	-1E+10	1
4901784	2	C	07/25/2015	10:44	-128.843	46.578	0	1210.10	0	2.9260	0	34.4330	0	27.447	0	1196.621	0	14.6	4	4.5	4	-1E+10	1	-1E+10	1	-1E+10	1	-1E+10	1	-1E+10	1	-1E+10	1
4901784	2	C	07/25/2015	10:44	-128.843	46.578	0	1215.60	0	2.9160	0	34.4340	0	27.448	0	1202.044	0	14.7	4	4.5	4	-1E+10	1	-1E+10	1	-1E+10	1	-1E+10	1	-1E+10	1	-1E+10	1
4901784	2	C	07/25/2015	10:44	-128.843	46.578	0	1220.20	0	2.9020	0	34.4360	0	27.451	0	1206.579	0	14.8	4	4.6	4	-1E+10	1	-1E+10	1	-1E+10	1	-1E+10	1	-1E+10	1	-1E+10	1
4901784	2	C	07/25/2015	10:44	-128.843	46.578	0	1224.90	0	2.8960	0	34.4370	0	27.453	0	1211.213	0	15.0	4	4.6	4	-1E+10	1	-1E+10	1	-1E+10	1	-1E+10	1	-1E+10	1	-1E+10	1
4901784	2	C	07/25/2015	10:44	-128.843	46.578	0	1230.50	0	2.8900	0	34.4390	0	27.455	0	1216.735	0	15.1	4	4.6	4	-1E+10	1	-1E+10	1	-1E+10	1	-1E+10	1	-1E+10	1	-1E+10	1
4901784	2	C	07/25/2015	10:44	-128.843	46.578	0	1235.10	0	2.8810	0	34.4400	0	27.456	0	1221.270	0	15.2	4	4.7	4	-1E+10	1	-1E+10	1	-1E+10	1	-1E+10	1	-1E+10	1	-1E+10	1
4901784	2	C	07/25/2015	10:44	-128.843	46.578	0	1239.80	0	2.8720	0	34.4410	0	27.458	0	1225.904	0	15.2	4	4.7	4	-1E+10	1	-1E+10	1	-1E+10	1	-1E+10	1	-1E+10	1	-1E+10	1
4901784	2	C	07/25/2015	10:44	-128.843	46.578	0	1245.50	0	2.8550	0	34.4410	0	27.460	0	1231.523	0	15.3	4	4.7	4	-1E+10	1	-1E+10	1	-1E+10	1	-1E+10	1	-1E+10	1	-1E+10	1
4901784	2	C	07/25/2015	10:44	-128.843	46.578	0	1250.30	0	2.8450	0	34.4430	0	27.462	0	1236.255	0	15.4	4	4.7	4	-1E+10	1	-1E+10	1	-1E+10	1	-1E+10	1	-1E+10	1	-1E+10	1
4901784	2	C	07/25/2015	10:44	-128.843	46.578	0	1254.80	0	2.8400	0	34.4440	0	27.463	0	1240.691	0	15.6	4	4.8	4	-1E+10	1	-1E+10	1	-1E+10	1	-1E+10	1	-1E+10	1	-1E+10	1
4901784	2	C	07/25/2015	10:44	-128.843	46.578	0	1259.70	0	2.8320	0	34.4450	0	27.465	0	1245.522	0	15.7	4	4.8	4	-1E+10	1	-1E+10	1	-1E+10	1	-1E+10	1	-1E+10	1	-1E+10	1
4901784	2	C	07/25/2015	10:44	-128.843	46.578	0	1264.60	0	2.8270	0	34.4470	0	27.467	0	1250.352	0	15.8	4	4.9	4	-1E+10	1	-1E+10	1	-1E+10	1	-1E+10	1	-1E+10	1	-1E+10	1
4901784	2	C	07/25/2015	10:44	-128.843	46.578	0	1269.60	0	2.8210	0	34.4480	0	27.468	0	1255.281	0	16.0	4	4.9	4	-1E+10	1	-1E+10	1	-1E+10	1	-1E+10	1	-1E+10	1	-1E+10	1
4901784	2	C	07/25/2015	10:44	-128.843	46.578	0	1274.50	0	2.8120	0	34.4490	0	27.470	0	1260.111	0	16.1	4	5.0	4	-1E+10	1	-1E+10	1	-1E+10	1	-1E+10	1	-1E+10	1	-1E+10	1
4901784	2	C	07/25/2015	10:44	-128.843	46.578	0	1279.50	0	2.8030	0	34.4510	0	27.472	0	1265.039	0	16.3	4	5.0	4	-1E+10	1	-1E+10	1	-1E+10	1	-1E+10	1	-1E+10	1	-1E+10	1
4901784	2	C	07/25/2015	10:44	-128.843	46.578	0	1284.40	0	2.7980	0	34.4530	0	27.474	0	1269.869	0	16.4	4	5.0	4	-1E+10	1	-1E+10	1	-1E+10	1	-1E+10	1	-1E+10	1	-1E+10	1
4901784	2	C	07/25/2015	10:44	-128.843	46.578	0	1289.40	0	2.7890	0	34.4540	0	27.476	0	1274.798	0	16.6	4	5.1	4	-1E+10	1	-1E+10	1	-1E+10	1	-1E+10	1	-1E+10	1	-1E+10	1
4901784	2	C	07/25/2015	10:44	-128.843	46.578	0	1294.50	0	2.7760	0	34.4550	0	27.478	0	1279.824	0	16.7	4	5.1	4	-1E+10	1	-1E+10	1	-1E+10	1	-1E+10	1	-1E+10	1	-1E+10	1
4901784	2	C	07/25/2015	10:44	-128.843	46.578	0	1299.60	0	2.7660	0	34.4560	0	27.480	0	1284.851	0	16.9	4	5.2	4	-1E+10	1	-1E+10	1	-1E+10	1	-1E+10	1	-1E+10	1	-1E+10	1
4901784	2	C	07/25/2015	10:44	-128.843	46.578	0	1304.80	0	2.7570	0	34.4580	0	27.482	0	1289.976	0	17.0	4	5.2	4	-1E+10	1	-1E+10	1	-1E+10	1	-1E+10	1	-1E+10	1	-1E+10	1
4901784	2	C	07/25/2015	10:44	-128.843	46.578	0	1309.90	0	2.7520	0	34.4590	0	27.483	0	1295.002	0	17.2	4	5.3	4	-1E+10	1	-1E+10	1	-1E+10	1	-1E+10	1	-1E+10	1	-1E+10	1
4901784	2	C	07/25/2015	10:44	-128.843	46.578	0	1315.10	0	2.7460	0	34.4600	0	27.485	0	1300.127	0	17.3	4	5.3	4	-1E+10	1	-1E+10	1	-1E+10	1	-1E+10	1	-1E+10	1	-1E+10	1
4901784	2	C	07/25/2015	10:44	-128.843	46.578	0	1320.30	0	2.7320	0	34.4610	0	27.487	0	1305.252	0	17.5	4	5.4	4	-1E+10	1	-1E+10	1	-1E+10	1	-1E+10	1	-1E+10	1	-1E+10	1
4901784	2	C	07/25/2015	10:44	-128.843	46.578	0	1325.40	0	2.7190	0	34.4630	0	27.490	0	1310.278	0	17.7	4	5.4	4	-1E+10	1	-1E+10	1	-1E+10	1	-1E+10	1	-1E+10	1	-1E+10	1
4901784	2	C	07/25/2015	10:44	-128.843	46.578	0	1330.60	0	2.7110	0	34.4640	0	27.491	0	1315.402	0	17.9	4	5.5	4	-1E+10	1	-1E+10	1	-1E+10	1	-1E+10	1	-1E+10	1	-1E+10	1
4901784	2	C	07/25/2015	10:44	-128.843	46.578	0	1335.10	0	2.7040	0	34.4660	0	27.493	0	1319.837	0	18.1	4	5.6	4	-1E+10	1	-1E+10	1	-1E+10	1	-1E+10	1	-1E+10	1	-1E+10	1
4901784	2	C	07/25/2015	10:44	-128.843	46.578	0	1339.90	0	2.7000	0	34.4670	0	27.494	0	1324.567	0	18.3	4	5.6	4	-1E+10	1	-1E+10	1	-1E+10	1	-1E+10	1	-1E+10	1	-1E+10	1
4901784	2	C	07/25/2015	10:44	-128.843	46.578	0	1344.70	0	2.6960	0	34.4690	0	27.496	0	1329.297	0	18.5	4	5.7	4	-1E+10	1	-1E+10	1	-1E+10	1	-1E+10	1	-1E+10	1	-1E+10	1
4901784	2	C	07/25/2015	10:44	-128.843	46.578	0	1349.50	0	2.6910	0	34.4690	0	27.497	0	1334.027	0	18.6	4	5.7	4	-1E+10	1	-1E+10	1	-1E+10	1	-1E+10	1	-1E+10	1	-1E+10	1
4901784	2	C	07/25/2015	10:44	-128.843	46.578	0	1355.30	0	2.6830	0	34.4700	0	27.498	0	1339.742	0	18.7	4	5.7	4	-1E+10	1	-1E+10	1	-1E+10	1	-1E+10	1	-1E+10	1	-1E+10	1
4901784	2	C	07/25/2015	10:44	-128.843	46.578	0	1360.10	0	2.6770	0	34.4710	0	27.500	0	1344.471	0	18.9	4	5.8	4	-1E+10	1	-1E+10	1	-1E+10	1	-1E+10	1	-1E+10	1	-1E+10	1
4901784	2	C	07/25/2015	10:44	-128.843	46.578	0	1364.80	0	2.6680	0	34.4720	0	27.501	0	1349.102	0	19.1	4	5.9	4	-1E+10	1	-1E+10	1	-1E+10	1	-1E+10	1	-1E+10	1	-1E+10	1
4901784	2	C	07/25/2015	10:44	-128.843	46.578	0	1369.70	0	2.6640	0	34.4730	0	27.502	0	1353.930	0	19.3	4	5.9	4	-1E+10	1	-1E+10	1	-1E+10	1	-1E+10	1	-1E+10	1	-1E+10	1
4901784	2	C	07/25/2015	10:44	-128.843	46.578	0	1374.50	0	2.6550	0	34.4750	0	27.505	0	1358.660	0	19.6	4	6.0	4	-1E+10	1	-1E+10	1	-1E+10	1	-1E+10	1	-1E+10	1	-1E+10	1
4901784	2	C	07/25/2015	10:44	-128.843	46.578	0	1380.30	0	2.6540	0	34.4770	0	27.507	0	1364.374	0	20.0	4	6.1	4	-1E+10	1	-1E+10	1	-1E+10	1	-1E+10	1	-1E+10	1	-1E+10	1
4901784	2	C	07/25/2015	10:44	-128.843	46.578	0	1385.20	0	2.6500	0	34.4790	0	27.509	0	1369.201	0	20.3	4	6.2	4	-1E+10	1	-1E+10	1	-1E+10	1	-1E+10	1	-1E+10	1	-1E+10	1
4901784	2	C	07/25/2015	10:44	-128.843	46.578	0	1390.10	0	2.6410	0	34.4800	0	27.510	0	1374.029	0	20.4	4	6.3	4	-1E+10	1	-1E+10	1	-1E+10	1	-1E+10	1	-1E+10	1	-1E+10	1
4901784	2	C	07/25/2015	10:44	-128.843	46.578	0	1395.00	0	2.6280	0	34.4800	0	27.511	0	1378.856	0	20.4	4	6.2	4	-1E+10	1	-1E+10	1	-1E+10	1	-1E+10	1	-1E+10	1	-1E+10	1
4901784	2	C	07/25/2015	10:44	-128.843	46.578	0	1399.90	0	2.6100	0	34.4810	0	27.514	0	1383.684	0	20.6	4	6.3	4	-1E+10	1	-1E+10	1	-1E+10	1	-1E+10	1	-1E+10	1	-1E+10	1
4901784	2	C	07/25/2015	10:44	-128.843	46.578	0	1404.80	0	2.6020	0	34.4830	0	27.516	0	1388.511	0	20.8	4	6.4	4	-1E+10	1	-1E+10	1	-1E+10	1	-1E+10	1	-1E+10	1	-1E+10	1
4901784	2	C	07/25/2015	10:44	-128.843	46.578	0	1409.70	0	2.5940	0	34.4830	0	27.517	0	1393.338	0	21.0	4	6.4	4	-1E+10	1	-1E+10	1	-1E+10	1	-1E+10	1	-1E+10	1	-1E+10	1
4901784	2	C	07/25/2015	10:44	-128.843	46.578	0	1414.70	0	2.5920	0	34.4850	0	27.518	0	1398.263	0	21.2	4	6.5	4	-1E+10	1	-1E+10	1	-1E+10	1	-1E+10	1	-1E+10	1	-1E+10	1
4901784	2	C	07/25/2015	10:44	-128.843	46.578	0	1419.50	0	2.5830	0	34.4850	0	27.519	0	1402.991	0	21.5	4	6.6	4	-1E+10	1	-1E+10	1	-1E+10	1	-1E+10	1	-1E+10	1	-1E+10	1
4901784	2	C	07/25/2015	10:44	-128.843	46.578	0	1425.40	0	2.5780	0	34.4870	0	27.521	0	1408.803	0	21.9	4	6.7	4	-1E+10	1	-1E+10	1	-1E+10	1	-1E+10	1	-1E+10	1	-1E+10	1
4901784	2	C	07/25/2015	10:44	-128.843	46.578	0	1430.40	0	2.5750	0	34.4890	0	27.523	0	1413.728	0	22.3	4	6.8	4	-1E+10	1	-1E+10	1	-1E+10	1	-1E+10	1	-1E+10	1	-1E+10	1
4901784	2	C	07/25/2015	10:44	-128.843	46.578	0	1435.30	0	2.5720	0	34.4900	0	27.524	0	1418.555	0	22.6	4	6.9	4	-1E+10	1	-1E+10	1	-1E+10	1	-1E+10	1	-1E+10	1	-1E+10	1
4901784	2	C	07/25/2015	10:44	-128.843	46.578	0	1440.30	0	2.5590	0	34.4910	0	27.526	0	1423.479	0	22.8	4	7.0	4	-1E+10	1	-1E+10	1	-1E+10	1	-1E+10	1	-1E+10	1	-1E+10	1
4901784	2	C	07/25/2015	10:44	-128.843	46.578	0	1445.30	0	2.5450	0	34.4920	0	27.528	0	1428.404	0	23.0	4	7.0	4	-1E+10	1	-1E+10	1	-1E+10	1	-1E+10	1	-1E+10	1	-1E+10	1
4901784	2	C	07/25/2015	10:44	-128.843	46.578	0	1450.30	0	2.5390	0	34.4940	0	27.530	0	1433.329	0	23.4	4	7.2	4	-1E+10	1	-1E+10	1	-1E+10	1	-1E+10	1	-1E+10	1	-1E+10	1
4901784	2	C	07/25/2015	10:44	-128.843	46.578	0	1455.30	0	2.5280	0	34.4950	0	27.532	0	1438.253	0	23.8	4	7.3	4	-1E+10	1	-1E+10	1	-1E+10	1	-1E+10	1	-1E+10	1	-1E+10	1
4901784	2	C	07/25/2015	10:44	-128.843	46.578	0	1460.30	0	2.5160	0	34.4970	0	27.535	0	1443.178	0	24.2	4	7.4	4	-1E+10	1	-1E+10	1	-1E+10	1	-1E+10	1	-1E+10	1	-1E+10	1
4901784	2	C	07/25/2015	10:44	-128.843	46.578	0	1464.90	0	2.5070	0	34.4980	0	27.536	0	1447.708	0	24.5	4	7.5	4	-1E+10	1	-1E+10	1	-1E+10	1	-1E+10	1	-1E+10	1	-1E+10	1
4901784	2	C	07/25/2015	10:44	-128.843	46.578	0	1470.30	0	2.4990	0	34.5000	0	27.539	0	1453.026	0	25.0	4	7.6	4	-1E+10	1	-1E+10	1	-1E+10	1	-1E+10	1	-1E+10	1	-1E+10	1
4901784	2	C	07/25/2015	10:44	-128.843	46.578	0	1474.90	0	2.4930	0	34.5020	0	27.541	0	1457.556	0	25.2	4	7.7	4	-1E+10	1	-1E+10	1	-1E+10	1	-1E+10	1	-1E+10	1	-1E+10	1
4901784	2	C	07/25/2015	10:44	-128.843	46.578	0	1480.20	0	2.4780	0	34.5020	0	27.542	0	1462.775	0	25.3	4	7.7	4	-1E+10	1	-1E+10	1	-1E+10	1	-1E+10	1	-1E+10	1	-1E+10	1
4901784	2	C	07/25/2015	10:44	-128.843	46.578	0	1485.20	0	2.4620	0	34.5040	0	27.545	0	1467.699	0	25.5	4	7.8	4	-1E+10	1	-1E+10	1	-1E+10	1	-1E+10	1	-1E+10	1	-1E+10	1
4901784	2	C	07/25/2015	10:44	-128.843	46.578	0	1490.20	0	2.4510	0	34.5050	0	27.547	0	1472.623	0	25.7	4	7.8	4	-1E+10	1	-1E+10	1	-1E+10	1	-1E+10	1	-1E+10	1	-1E+10	1
4901784	2	C	07/25/2015	10:44	-128.843	46.578	0	1495.00	0	2.4470	0	34.5050	0	27.547	0	1477.349	0	26.0	4	7.9	4	-1E+10	1	-1E+10	1	-1E+10	1	-1E+10	1	-1E+10	1	-1E+10	1
4901784	2	C	07/25/2015	10:44	-128.843	46.578	0	1499.80	0	2.4430	0	34.5060	0	27.548	0	1482.076	0	26.3	4	8.0	4	-1E+10	1	-1E+10	1	-1E+10	1	-1E+10	1	-1E+10	1	-1E+10	1
4901784	2	C	07/25/2015	10:44	-128.843	46.578	0	1504.70	0	2.4380	0	34.5070	0	27.549	0	1486.901	0	26.6	4	8.1	4	-1E+10	1	-1E+10	1	-1E+10	1	-1E+10	1	-1E+10	1	-1E+10	1
4901784	2	C	07/25/2015	10:44	-128.843	46.578	0	1509.60	0	2.4270	0	34.5080	0	27.551	0	1491.726	0	27.0	4	8.2	4	-1E+10	1	-1E+10	1	-1E+10	1	-1E+10	1	-1E+10	1	-1E+10	1
4901784	2	C	07/25/2015	10:44	-128.843	46.578	0	1514.50	0	2.4180	0	34.5100	0	27.554	0	1496.550	0	27.2	4	8.3	4	-1E+10	1	-1E+10	1	-1E+10	1	-1E+10	1	-1E+10	1	-1E+10	1
4901784	2	C	07/25/2015	10:44	-128.843	46.578	0	1519.50	0	2.4120	0	34.5100	0	27.554	0	1501.473	0	27.6	4	8.4	4	-1E+10	1	-1E+10	1	-1E+10	1	-1E+10	1	-1E+10	1	-1E+10	1
4901784	2	C	07/25/2015	10:44	-128.843	46.578	0	1524.50	0	2.4070	0	34.5120	0	27.556	0	1506.396	0	27.9	4	8.5	4	-1E+10	1	-1E+10	1	-1E+10	1	-1E+10	1	-1E+10	1	-1E+10	1
4901784	2	C	07/25/2015	10:44	-128.843	46.578	0	1529.60	0	2.4000	0	34.5130	0	27.558	0	1511.417	0	28.2	4	8.6	4	-1E+10	1	-1E+10	1	-1E+10	1	-1E+10	1	-1E+10	1	-1E+10	1
4901784	2	C	07/25/2015	10:44	-128.843	46.578	0	1534.70	0	2.3970	0	34.5140	0	27.559	0	1516.438	0	28.5	4	8.7	4	-1E+10	1	-1E+10	1	-1E+10	1	-1E+10	1	-1E+10	1	-1E+10	1
4901784	2	C	07/25/2015	10:44	-128.843	46.578	0	1539.70	0	2.3900	0	34.5140	0	27.559	0	1521.361	0	28.7	4	8.7	4	-1E+10	1	-1E+10	1	-1E+10	1	-1E+10	1	-1E+10	1	-1E+10	1
4901784	2	C	07/25/2015	10:44	-128.843	46.578	0	1544.90	0	2.3860	0	34.5150	0	27.560	0	1526.480	0	28.9	4	8.8	4	-1E+10	1	-1E+10	1	-1E+10	1	-1E+10	1	-1E+10	1	-1E+10	1
4901784	2	C	07/25/2015	10:44	-128.843	46.578	0	1550.00	0	2.3790	0	34.5160	0	27.562	0	1531.501	0	29.3	4	8.9	4	-1E+10	1	-1E+10	1	-1E+10	1	-1E+10	1	-1E+10	1	-1E+10	1
4901784	2	C	07/25/2015	10:44	-128.843	46.578	0	1555.00	0	2.3710	0	34.5170	0	27.563	0	1536.423	0	29.6	4	9.0	4	-1E+10	1	-1E+10	1	-1E+10	1	-1E+10	1	-1E+10	1	-1E+10	1
4901784	2	C	07/25/2015	10:44	-128.843	46.578	0	1560.20	0	2.3630	0	34.5180	0	27.565	0	1541.542	0	30.0	4	9.1	4	-1E+10	1	-1E+10	1	-1E+10	1	-1E+10	1	-1E+10	1	-1E+10	1
4901784	2	C	07/25/2015	10:44	-128.843	46.578	0	1565.40	0	2.3570	0	34.5200	0	27.567	0	1546.661	0	30.4	4	9.2	4	-1E+10	1	-1E+10	1	-1E+10	1	-1E+10	1	-1E+10	1	-1E+10	1
4901784	2	C	07/25/2015	10:44	-128.843	46.578	0	1570.70	0	2.3480	0	34.5210	0	27.568	0	1551.878	0	30.8	4	9.4	4	-1E+10	1	-1E+10	1	-1E+10	1	-1E+10	1	-1E+10	1	-1E+10	1
4901784	2	C	07/25/2015	10:44	-128.843	46.578	0	1575.10	0	2.3430	0	34.5230	0	27.571	0	1556.209	0	31.1	4	9.5	4	-1E+10	1	-1E+10	1	-1E+10	1	-1E+10	1	-1E+10	1	-1E+10	1
4901784	2	C	07/25/2015	10:44	-128.843	46.578	0	1579.50	0	2.3360	0	34.5230	0	27.571	0	1560.540	0	31.4	4	9.5	4	-1E+10	1	-1E+10	1	-1E+10	1	-1E+10	1	-1E+10	1	-1E+10	1
4901784	2	C	07/25/2015	10:44	-128.843	46.578	0	1584.80	0	2.3290	0	34.5240	0	27.572	0	1565.757	0	31.7	4	9.6	4	-1E+10	1	-1E+10	1	-1E+10	1	-1E+10	1	-1E+10	1	-1E+10	1
4901784	2	C	07/25/2015	10:44	-128.843	46.578	0	1590.10	0	2.3180	0	34.5250	0	27.574	0	1570.974	0	32.1	4	9.7	4	-1E+10	1	-1E+10	1	-1E+10	1	-1E+10	1	-1E+10	1	-1E+10	1
4901784	2	C	07/25/2015	10:44	-128.843	46.578	0	1595.40	0	2.3090	0	34.5260	0	27.576	0	1576.190	0	32.4	4	9.8	4	-1E+10	1	-1E+10	1	-1E+10	1	-1E+10	1	-1E+10	1	-1E+10	1
4901784	2	C	07/25/2015	10:44	-128.843	46.578	0	1600.70	0	2.3020	0	34.5270	0	27.577	0	1581.406	0	32.8	4	9.9	4	-1E+10	1	-1E+10	1	-1E+10	1	-1E+10	1	-1E+10	1	-1E+10	1
4901784	2	C	07/25/2015	10:44	-128.843	46.578	0	1605.00	0	2.2960	0	34.5290	0	27.579	0	1585.639	0	33.0	4	10.0	4	-1E+10	1	-1E+10	1	-1E+10	1	-1E+10	1	-1E+10	1	-1E+10	1
4901784	2	C	07/25/2015	10:44	-128.843	46.578	0	1609.60	0	2.2900	0	34.5290	0	27.580	0	1590.166	0	33.3	4	10.1	4	-1E+10	1	-1E+10	1	-1E+10	1	-1E+10	1	-1E+10	1	-1E+10	1
4901784	2	C	07/25/2015	10:44	-128.843	46.578	0	1615.00	0	2.2840	0	34.5300	0	27.581	0	1595.480	0	33.6	4	10.2	4	-1E+10	1	-1E+10	1	-1E+10	1	-1E+10	1	-1E+10	1	-1E+10	1
4901784	2	C	07/25/2015	10:44	-128.843	46.578	0	1620.40	0	2.2780	0	34.5310	0	27.582	0	1600.795	0	33.9	4	10.3	4	-1E+10	1	-1E+10	1	-1E+10	1	-1E+10	1	-1E+10	1	-1E+10	1
4901784	2	C	07/25/2015	10:44	-128.843	46.578	0	1625.40	0	2.2700	0	34.5320	0	27.584	0	1605.715	0	34.2	4	10.4	4	-1E+10	1	-1E+10	1	-1E+10	1	-1E+10	1	-1E+10	1	-1E+10	1
4901784	2	C	07/25/2015	10:44	-128.843	46.578	0	1629.60	0	2.2640	0	34.5330	0	27.585	0	1609.848	0	34.5	4	10.5	4	-1E+10	1	-1E+10	1	-1E+10	1	-1E+10	1	-1E+10	1	-1E+10	1
4901784	2	C	07/25/2015	10:44	-128.843	46.578	0	1635.10	0	2.2550	0	34.5340	0	27.587	0	1615.261	0	34.7	4	10.5	4	-1E+10	1	-1E+10	1	-1E+10	1	-1E+10	1	-1E+10	1	-1E+10	1
4901784	2	C	07/25/2015	10:44	-128.843	46.578	0	1640.60	0	2.2490	0	34.5350	0	27.588	0	1620.673	0	35.1	4	10.6	4	-1E+10	1	-1E+10	1	-1E+10	1	-1E+10	1	-1E+10	1	-1E+10	1
4901784	2	C	07/25/2015	10:44	-128.843	46.578	0	1645.40	0	2.2440	0	34.5360	0	27.589	0	1625.396	0	35.4	4	10.7	4	-1E+10	1	-1E+10	1	-1E+10	1	-1E+10	1	-1E+10	1	-1E+10	1
4901784	2	C	07/25/2015	10:44	-128.843	46.578	0	1650.20	0	2.2380	0	34.5370	0	27.591	0	1630.119	0	35.7	4	10.8	4	-1E+10	1	-1E+10	1	-1E+10	1	-1E+10	1	-1E+10	1	-1E+10	1
4901784	2	C	07/25/2015	10:44	-128.843	46.578	0	1655.10	0	2.2320	0	34.5380	0	27.592	0	1634.941	0	36.0	4	10.9	4	-1E+10	1	-1E+10	1	-1E+10	1	-1E+10	1	-1E+10	1	-1E+10	1
4901784	2	C	07/25/2015	10:44	-128.843	46.578	0	1660.00	0	2.2280	0	34.5390	0	27.593	0	1639.762	0	36.4	4	11.0	4	-1E+10	1	-1E+10	1	-1E+10	1	-1E+10	1	-1E+10	1	-1E+10	1
4901784	2	C	07/25/2015	10:44	-128.843	46.578	0	1664.90	0	2.2230	0	34.5400	0	27.594	0	1644.584	0	36.8	4	11.2	4	-1E+10	1	-1E+10	1	-1E+10	1	-1E+10	1	-1E+10	1	-1E+10	1
4901784	2	C	07/25/2015	10:44	-128.843	46.578	0	1669.80	0	2.2150	0	34.5410	0	27.596	0	1649.405	0	37.2	4	11.3	4	-1E+10	1	-1E+10	1	-1E+10	1	-1E+10	1	-1E+10	1	-1E+10	1
4901784	2	C	07/25/2015	10:44	-128.843	46.578	0	1674.80	0	2.2070	0	34.5420	0	27.597	0	1654.324	0	37.6	4	11.4	4	-1E+10	1	-1E+10	1	-1E+10	1	-1E+10	1	-1E+10	1	-1E+10	1
4901784	2	C	07/25/2015	10:44	-128.843	46.578	0	1679.90	0	2.2000	0	34.5430	0	27.599	0	1659.342	0	37.9	4	11.5	4	-1E+10	1	-1E+10	1	-1E+10	1	-1E+10	1	-1E+10	1	-1E+10	1
4901784	2	C	07/25/2015	10:44	-128.843	46.578	0	1684.90	0	2.1930	0	34.5440	0	27.600	0	1664.261	0	38.2	4	11.6	4	-1E+10	1	-1E+10	1	-1E+10	1	-1E+10	1	-1E+10	1	-1E+10	1
4901784	2	C	07/25/2015	10:44	-128.843	46.578	0	1690.10	0	2.1900	0	34.5450	0	27.601	0	1669.377	0	38.4	4	11.6	4	-1E+10	1	-1E+10	1	-1E+10	1	-1E+10	1	-1E+10	1	-1E+10	1
4901784	2	C	07/25/2015	10:44	-128.843	46.578	0	1695.20	0	2.1840	0	34.5460	0	27.602	0	1674.394	0	38.7	4	11.7	4	-1E+10	1	-1E+10	1	-1E+10	1	-1E+10	1	-1E+10	1	-1E+10	1
4901784	2	C	07/25/2015	10:44	-128.843	46.578	0	1700.40	0	2.1800	0	34.5460	0	27.603	0	1679.510	0	39.0	4	11.8	4	-1E+10	1	-1E+10	1	-1E+10	1	-1E+10	1	-1E+10	1	-1E+10	1
4901784	2	C	07/25/2015	10:44	-128.843	46.578	0	1705.70	0	2.1740	0	34.5470	0	27.604	0	1684.724	0	39.4	4	11.9	4	-1E+10	1	-1E+10	1	-1E+10	1	-1E+10	1	-1E+10	1	-1E+10	1
4901784	2	C	07/25/2015	10:44	-128.843	46.578	0	1710.00	0	2.1690	0	34.5480	0	27.605	0	1688.954	0	39.7	4	12.0	4	-1E+10	1	-1E+10	1	-1E+10	1	-1E+10	1	-1E+10	1	-1E+10	1
4901784	2	C	07/25/2015	10:44	-128.843	46.578	0	1714.40	0	2.1630	0	34.5490	0	27.607	0	1693.282	0	40.0	4	12.1	4	-1E+10	1	-1E+10	1	-1E+10	1	-1E+10	1	-1E+10	1	-1E+10	1
4901784	2	C	07/25/2015	10:44	-128.843	46.578	0	1719.70	0	2.1580	0	34.5500	0	27.608	0	1698.495	0	40.3	4	12.2	4	-1E+10	1	-1E+10	1	-1E+10	1	-1E+10	1	-1E+10	1	-1E+10	1
4901784	2	C	07/25/2015	10:44	-128.843	46.578	0	1725.70	0	2.1500	0	34.5510	0	27.609	0	1704.397	0	40.7	4	12.3	4	-1E+10	1	-1E+10	1	-1E+10	1	-1E+10	1	-1E+10	1	-1E+10	1
4901784	2	C	07/25/2015	10:44	-128.843	46.578	0	1730.70	0	2.1470	0	34.5510	0	27.610	0	1709.316	0	40.9	4	12.4	4	-1E+10	1	-1E+10	1	-1E+10	1	-1E+10	1	-1E+10	1	-1E+10	1
4901784	2	C	07/25/2015	10:44	-128.843	46.578	0	1735.30	0	2.1440	0	34.5520	0	27.611	0	1713.840	0	41.2	4	12.5	4	-1E+10	1	-1E+10	1	-1E+10	1	-1E+10	1	-1E+10	1	-1E+10	1
4901784	2	C	07/25/2015	10:44	-128.843	46.578	0	1740.00	0	2.1390	0	34.5530	0	27.612	0	1718.463	0	41.6	4	12.6	4	-1E+10	1	-1E+10	1	-1E+10	1	-1E+10	1	-1E+10	1	-1E+10	1
4901784	2	C	07/25/2015	10:44	-128.843	46.578	0	1744.80	0	2.1320	0	34.5540	0	27.613	0	1723.184	0	42.0	4	12.7	4	-1E+10	1	-1E+10	1	-1E+10	1	-1E+10	1	-1E+10	1	-1E+10	1
4901784	2	C	07/25/2015	10:44	-128.843	46.578	0	1749.60	0	2.1250	0	34.5550	0	27.615	0	1727.905	0	42.5	4	12.8	4	-1E+10	1	-1E+10	1	-1E+10	1	-1E+10	1	-1E+10	1	-1E+10	1
4901784	2	C	07/25/2015	10:44	-128.843	46.578	0	1754.50	0	2.1190	0	34.5560	0	27.616	0	1732.724	0	42.9	4	13.0	4	-1E+10	1	-1E+10	1	-1E+10	1	-1E+10	1	-1E+10	1	-1E+10	1
4901784	2	C	07/25/2015	10:44	-128.843	46.578	0	1759.40	0	2.1140	0	34.5570	0	27.617	0	1737.544	0	43.2	4	13.1	4	-1E+10	1	-1E+10	1	-1E+10	1	-1E+10	1	-1E+10	1	-1E+10	1
4901784	2	C	07/25/2015	10:44	-128.843	46.578	0	1764.30	0	2.1090	0	34.5580	0	27.618	0	1742.363	0	43.5	4	13.2	4	-1E+10	1	-1E+10	1	-1E+10	1	-1E+10	1	-1E+10	1	-1E+10	1
4901784	2	C	07/25/2015	10:44	-128.843	46.578	0	1769.30	0	2.1040	0	34.5590	0	27.620	0	1747.280	0	43.8	4	13.2	4	-1E+10	1	-1E+10	1	-1E+10	1	-1E+10	1	-1E+10	1	-1E+10	1
4901784	2	C	07/25/2015	10:44	-128.843	46.578	0	1774.30	0	2.1010	0	34.5590	0	27.620	0	1752.197	0	44.0	4	13.3	4	-1E+10	1	-1E+10	1	-1E+10	1	-1E+10	1	-1E+10	1	-1E+10	1
4901784	2	C	07/25/2015	10:44	-128.843	46.578	0	1779.30	0	2.0960	0	34.5600	0	27.621	0	1757.114	0	44.3	4	13.4	4	-1E+10	1	-1E+10	1	-1E+10	1	-1E+10	1	-1E+10	1	-1E+10	1
4901784	2	C	07/25/2015	10:44	-128.843	46.578	0	1784.40	0	2.0910	0	34.5610	0	27.622	0	1762.129	0	44.7	4	13.5	4	-1E+10	1	-1E+10	1	-1E+10	1	-1E+10	1	-1E+10	1	-1E+10	1
4901784	2	C	07/25/2015	10:44	-128.843	46.578	0	1789.40	0	2.0870	0	34.5610	0	27.623	0	1767.046	0	45.0	4	13.6	4	-1E+10	1	-1E+10	1	-1E+10	1	-1E+10	1	-1E+10	1	-1E+10	1
4901784	2	C	07/25/2015	10:44	-128.843	46.578	0	1794.50	0	2.0810	0	34.5620	0	27.624	0	1772.061	0	45.4	4	13.7	4	-1E+10	1	-1E+10	1	-1E+10	1	-1E+10	1	-1E+10	1	-1E+10	1
4901784	2	C	07/25/2015	10:44	-128.843	46.578	0	1799.70	0	2.0750	0	34.5640	0	27.626	0	1777.174	0	45.9	4	13.9	4	-1E+10	1	-1E+10	1	-1E+10	1	-1E+10	1	-1E+10	1	-1E+10	1
4901784	2	C	07/25/2015	10:44	-128.843	46.578	0	1804.90	0	2.0710	0	34.5650	0	27.627	0	1782.287	0	46.3	4	14.0	4	-1E+10	1	-1E+10	1	-1E+10	1	-1E+10	1	-1E+10	1	-1E+10	1
4901784	2	C	07/25/2015	10:44	-128.843	46.578	0	1810.10	0	2.0660	0	34.5660	0	27.628	0	1787.400	0	46.7	4	14.1	4	-1E+10	1	-1E+10	1	-1E+10	1	-1E+10	1	-1E+10	1	-1E+10	1
4901784	2	C	07/25/2015	10:44	-128.843	46.578	0	1815.30	0	2.0590	0	34.5670	0	27.630	0	1792.513	0	47.0	4	14.2	4	-1E+10	1	-1E+10	1	-1E+10	1	-1E+10	1	-1E+10	1	-1E+10	1
4901784	2	C	07/25/2015	10:44	-128.843	46.578	0	1820.60	0	2.0560	0	34.5670	0	27.630	0	1797.724	0	47.2	4	14.2	4	-1E+10	1	-1E+10	1	-1E+10	1	-1E+10	1	-1E+10	1	-1E+10	1
4901784	2	C	07/25/2015	10:44	-128.843	46.578	0	1825.10	0	2.0540	0	34.5680	0	27.631	0	1802.149	0	47.4	4	14.3	4	-1E+10	1	-1E+10	1	-1E+10	1	-1E+10	1	-1E+10	1	-1E+10	1
4901784	2	C	07/25/2015	10:44	-128.843	46.578	0	1829.50	0	2.0510	0	34.5680	0	27.631	0	1806.475	0	47.6	4	14.4	4	-1E+10	1	-1E+10	1	-1E+10	1	-1E+10	1	-1E+10	1	-1E+10	1
4901784	2	C	07/25/2015	10:44	-128.843	46.578	0	1834.90	0	2.0470	0	34.5690	0	27.632	0	1811.784	0	47.9	4	14.5	4	-1E+10	1	-1E+10	1	-1E+10	1	-1E+10	1	-1E+10	1	-1E+10	1
4901784	2	C	07/25/2015	10:44	-128.843	46.578	0	1840.30	0	2.0450	0	34.5700	0	27.633	0	1817.093	0	48.3	4	14.6	4	-1E+10	1	-1E+10	1	-1E+10	1	-1E+10	1	-1E+10	1	-1E+10	1
4901784	2	C	07/25/2015	10:44	-128.843	46.578	0	1845.70	0	2.0410	0	34.5710	0	27.635	0	1822.401	0	48.6	4	14.7	4	-1E+10	1	-1E+10	1	-1E+10	1	-1E+10	1	-1E+10	1	-1E+10	1
4901784	2	C	07/25/2015	10:44	-128.843	46.578	0	1850.20	0	2.0380	0	34.5710	0	27.635	0	1826.825	0	48.9	4	14.7	4	-1E+10	1	-1E+10	1	-1E+10	1	-1E+10	1	-1E+10	1	-1E+10	1
4901784	2	C	07/25/2015	10:44	-128.843	46.578	0	1854.80	0	2.0330	0	34.5720	0	27.636	0	1831.347	0	49.1	4	14.8	4	-1E+10	1	-1E+10	1	-1E+10	1	-1E+10	1	-1E+10	1	-1E+10	1
4901784	2	C	07/25/2015	10:44	-128.843	46.578	0	1860.20	0	2.0300	0	34.5730	0	27.637	0	1836.656	0	49.3	4	14.9	4	-1E+10	1	-1E+10	1	-1E+10	1	-1E+10	1	-1E+10	1	-1E+10	1
4901784	2	C	07/25/2015	10:44	-128.843	46.578	0	1865.60	0	2.0270	0	34.5730	0	27.637	0	1841.964	0	49.6	4	15.0	4	-1E+10	1	-1E+10	1	-1E+10	1	-1E+10	1	-1E+10	1	-1E+10	1
4901784	2	C	07/25/2015	10:44	-128.843	46.578	0	1870.30	0	2.0240	0	34.5740	0	27.638	0	1846.584	0	49.8	4	15.0	4	-1E+10	1	-1E+10	1	-1E+10	1	-1E+10	1	-1E+10	1	-1E+10	1
4901784	2	C	07/25/2015	10:44	-128.843	46.578	0	1874.90	0	2.0210	0	34.5740	0	27.639	0	1851.106	0	50.1	4	15.1	4	-1E+10	1	-1E+10	1	-1E+10	1	-1E+10	1	-1E+10	1	-1E+10	1
4901784	2	C	07/25/2015	10:44	-128.843	46.578	0	1880.30	0	2.0140	0	34.5750	0	27.640	0	1856.414	0	50.5	4	15.2	4	-1E+10	1	-1E+10	1	-1E+10	1	-1E+10	1	-1E+10	1	-1E+10	1
4901784	2	C	07/25/2015	10:44	-128.843	46.578	0	1884.90	0	2.0090	0	34.5760	0	27.641	0	1860.935	0	50.8	4	15.3	4	-1E+10	1	-1E+10	1	-1E+10	1	-1E+10	1	-1E+10	1	-1E+10	1
4901784	2	C	07/25/2015	10:44	-128.843	46.578	0	1889.50	0	2.0050	0	34.5760	0	27.642	0	1865.457	0	51.1	4	15.4	4	-1E+10	1	-1E+10	1	-1E+10	1	-1E+10	1	-1E+10	1	-1E+10	1
4901784	2	C	07/25/2015	10:44	-128.843	46.578	0	1895.00	0	2.0020	0	34.5780	0	27.643	0	1870.862	0	51.3	4	15.5	4	-1E+10	1	-1E+10	1	-1E+10	1	-1E+10	1	-1E+10	1	-1E+10	1
4901784	2	C	07/25/2015	10:44	-128.843	46.578	0	1900.50	0	1.9990	0	34.5780	0	27.644	0	1876.268	0	51.5	4	15.5	4	-1E+10	1	-1E+10	1	-1E+10	1	-1E+10	1	-1E+10	1	-1E+10	1
4901784	2	C	07/25/2015	10:44	-128.843	46.578	0	1905.40	0	1.9950	0	34.5780	0	27.644	0	1881.084	0	51.8	4	15.6	4	-1E+10	1	-1E+10	1	-1E+10	1	-1E+10	1	-1E+10	1	-1E+10	1
4901784	2	C	07/25/2015	10:44	-128.843	46.578	0	1910.30	0	1.9920	0	34.5780	0	27.644	0	1885.900	0	52.0	4	15.7	4	-1E+10	1	-1E+10	1	-1E+10	1	-1E+10	1	-1E+10	1	-1E+10	1
4901784	2	C	07/25/2015	10:44	-128.843	46.578	0	1915.30	0	1.9880	0	34.5790	0	27.645	0	1890.814	0	52.3	4	15.8	4	-1E+10	1	-1E+10	1	-1E+10	1	-1E+10	1	-1E+10	1	-1E+10	1
4901784	2	C	07/25/2015	10:44	-128.843	46.578	0	1920.20	0	1.9830	0	34.5800	0	27.647	0	1895.629	0	52.7	4	15.9	4	-1E+10	1	-1E+10	1	-1E+10	1	-1E+10	1	-1E+10	1	-1E+10	1
4901784	2	C	07/25/2015	10:44	-128.843	46.578	0	1925.20	0	1.9780	0	34.5800	0	27.647	0	1900.543	0	53.0	4	16.0	4	-1E+10	1	-1E+10	1	-1E+10	1	-1E+10	1	-1E+10	1	-1E+10	1
4901784	2	C	07/25/2015	10:44	-128.843	46.578	0	1930.30	0	1.9760	0	34.5810	0	27.648	0	1905.555	0	53.2	4	16.0	4	-1E+10	1	-1E+10	1	-1E+10	1	-1E+10	1	-1E+10	1	-1E+10	1
4901784	2	C	07/25/2015	10:44	-128.843	46.578	0	1935.30	0	1.9720	0	34.5820	0	27.649	0	1910.468	0	53.5	4	16.1	4	-1E+10	1	-1E+10	1	-1E+10	1	-1E+10	1	-1E+10	1	-1E+10	1
4901784	2	C	07/25/2015	10:44	-128.843	46.578	0	1940.40	0	1.9700	0	34.5820	0	27.649	0	1915.480	0	53.7	4	16.2	4	-1E+10	1	-1E+10	1	-1E+10	1	-1E+10	1	-1E+10	1	-1E+10	1
4901784	2	C	07/25/2015	10:44	-128.843	46.578	0	1945.50	0	1.9680	0	34.5830	0	27.650	0	1920.491	0	54.1	4	16.3	4	-1E+10	1	-1E+10	1	-1E+10	1	-1E+10	1	-1E+10	1	-1E+10	1
4901784	2	C	07/25/2015	10:44	-128.843	46.578	0	1950.50	0	1.9620	0	34.5840	0	27.652	0	1925.405	0	54.4	4	16.4	4	-1E+10	1	-1E+10	1	-1E+10	1	-1E+10	1	-1E+10	1	-1E+10	1
4901784	2	C	07/25/2015	10:44	-128.843	46.578	0	1955.70	0	1.9600	0	34.5840	0	27.652	0	1930.514	0	54.6	4	16.5	4	-1E+10	1	-1E+10	1	-1E+10	1	-1E+10	1	-1E+10	1	-1E+10	1
4901784	2	C	07/25/2015	10:44	-128.843	46.578	0	1959.90	0	1.9590	0	34.5850	0	27.653	0	1934.641	0	54.8	4	16.5	4	-1E+10	1	-1E+10	1	-1E+10	1	-1E+10	1	-1E+10	1	-1E+10	1
4901784	2	C	07/25/2015	10:44	-128.843	46.578	0	1964.30	0	1.9570	0	34.5850	0	27.653	0	1938.964	0	55.1	4	16.6	4	-1E+10	1	-1E+10	1	-1E+10	1	-1E+10	1	-1E+10	1	-1E+10	1
4901784	2	C	07/25/2015	10:44	-128.843	46.578	0	1969.40	0	1.9530	0	34.5860	0	27.654	0	1943.975	0	55.4	4	16.7	4	-1E+10	1	-1E+10	1	-1E+10	1	-1E+10	1	-1E+10	1	-1E+10	1
4901784	2	C	07/25/2015	10:44	-128.843	46.578	0	1974.60	0	1.9490	0	34.5870	0	27.655	0	1949.084	0	55.8	4	16.8	4	-1E+10	1	-1E+10	1	-1E+10	1	-1E+10	1	-1E+10	1	-1E+10	1
4901784	2	C	07/25/2015	10:44	-128.843	46.578	0	1979.90	0	1.9440	0	34.5880	0	27.656	0	1954.292	0	56.1	4	16.9	4	-1E+10	1	-1E+10	1	-1E+10	1	-1E+10	1	-1E+10	1	-1E+10	1
4901784	2	C	07/25/2015	10:44	-128.843	46.578	0	1985.30	0	1.9400	0	34.5880	0	27.657	0	1959.597	0	56.4	4	17.0	4	-1E+10	1	-1E+10	1	-1E+10	1	-1E+10	1	-1E+10	1	-1E+10	1
4901784	2	C	07/25/2015	10:44	-128.843	46.578	0	1990.20	0	1.9370	0	34.5890	0	27.658	0	1964.411	0	56.6	4	17.1	4	-1E+10	1	-1E+10	1	-1E+10	1	-1E+10	1	-1E+10	1	-1E+10	1
4901784	2	C	07/25/2015	10:44	-128.843	46.578	0	1994.80	0	1.9340	0	34.5890	0	27.658	0	1968.930	0	56.8	4	17.1	4	-1E+10	1	-1E+10	1	-1E+10	1	-1E+10	1	-1E+10	1	-1E+10	1
4901784	2	C	07/25/2015	10:44	-128.843	46.578	0	1999.90	0	1.9320	0	34.5900	0	27.659	0	1973.940	0	57.0	4	17.2	4	-1E+10	1	-1E+10	1	-1E+10	1	-1E+10	1	-1E+10	1	-1E+10	1
4901784	2	C	07/25/2015	10:44	-128.843	46.578	0	2006.00	0	1.9300	0	34.5900	0	27.659	0	1979.933	0	56.3	4	17.0	4	-1E+10	1	-1E+10	1	-1E+10	1	-1E+10	1	-1E+10	1	-1E+10	1
4901784	2	C	07/25/2015	10:44	-128.843	46.578	0																										
4901784	3	C	08/04/2015	10:52	-128.857	46.727	0	3.40	0	17.5450	0	32.0500	0	23.124	0	3.372	0	236.4	4	98.2	4	-1E+10	1	-1E+10	1	-1E+10	1	-1E+10	1	-1E+10	1	-1E+10	1
4901784	3	C	08/04/2015	10:52	-128.857	46.727	0	5.00	0	17.5450	0	32.0490	0	23.124	0	4.959	0	236.2	4	98.1	4	-1E+10	1	-1E+10	1	-1E+10	1	-1E+10	1	-1E+10	1	-1E+10	1
4901784	3	C	08/04/2015	10:52	-128.857	46.727	0	6.70	0	17.5460	0	32.0500	0	23.124	0	6.644	0	236.0	4	98.0	4	-1E+10	1	-1E+10	1	-1E+10	1	-1E+10	1	-1E+10	1	-1E+10	1
4901784	3	C	08/04/2015	10:52	-128.857	46.727	0	8.40	0	17.5470	0	32.0490	0	23.123	0	8.330	0	235.8	4	98.0	4	-1E+10	1	-1E+10	1	-1E+10	1	-1E+10	1	-1E+10	1	-1E+10	1
4901784	3	C	08/04/2015	10:52	-128.857	46.727	0	10.10	0	17.5470	0	32.0490	0	23.123	0	10.016	0	235.8	4	98.0	4	-1E+10	1	-1E+10	1	-1E+10	1	-1E+10	1	-1E+10	1	-1E+10	1
4901784	3	C	08/04/2015	10:52	-128.857	46.727	0	11.90	0	17.5450	0	32.0490	0	23.124	0	11.801	0	235.6	4	97.9	4	-1E+10	1	-1E+10	1	-1E+10	1	-1E+10	1	-1E+10	1	-1E+10	1
4901784	3	C	08/04/2015	10:52	-128.857	46.727	0	13.80	0	17.5440	0	32.0480	0	23.123	0	13.685	0	235.7	4	97.9	4	-1E+10	1	-1E+10	1	-1E+10	1	-1E+10	1	-1E+10	1	-1E+10	1
4901784	3	C	08/04/2015	10:52	-128.857	46.727	0	15.70	0	17.5450	0	32.0480	0	23.123	0	15.569	0	235.3	4	97.8	4	-1E+10	1	-1E+10	1	-1E+10	1	-1E+10	1	-1E+10	1	-1E+10	1
4901784	3	C	08/04/2015	10:52	-128.857	46.727	0	17.50	0	17.5450	0	32.0480	0	23.123	0	17.354	0	235.3	4	97.7	4	-1E+10	1	-1E+10	1	-1E+10	1	-1E+10	1	-1E+10	1	-1E+10	1
4901784	3	C	08/04/2015	10:52	-128.857	46.727	0	19.90	0	17.5460	0	32.0470	0	23.122	0	19.734	0	235.2	4	97.7	4	-1E+10	1	-1E+10	1	-1E+10	1	-1E+10	1	-1E+10	1	-1E+10	1
4901784	3	C	08/04/2015	10:52	-128.857	46.727	0	21.60	0	17.5460	0	32.0450	0	23.121	0	21.420	0	235.2	4	97.7	4	-1E+10	1	-1E+10	1	-1E+10	1	-1E+10	1	-1E+10	1	-1E+10	1
4901784	3	C	08/04/2015	10:52	-128.857	46.727	0	23.10	0	17.5300	0	32.0420	0	23.123	0	22.908	0	235.3	4	97.7	4	-1E+10	1	-1E+10	1	-1E+10	1	-1E+10	1	-1E+10	1	-1E+10	1
4901784	3	C	08/04/2015	10:52	-128.857	46.727	0	24.50	0	17.5300	0	32.0380	0	23.120	0	24.296	0	235.7	4	97.9	4	-1E+10	1	-1E+10	1	-1E+10	1	-1E+10	1	-1E+10	1	-1E+10	1
4901784	3	C	08/04/2015	10:52	-128.857	46.727	0	25.70	0	17.5270	0	32.0340	0	23.117	0	25.486	0	236.3	4	98.1	4	-1E+10	1	-1E+10	1	-1E+10	1	-1E+10	1	-1E+10	1	-1E+10	1
4901784	3	C	08/04/2015	10:52	-128.857	46.727	0	26.90	0	17.5080	0	32.0290	0	23.118	0	26.676	0	237.1	4	98.4	4	-1E+10	1	-1E+10	1	-1E+10	1	-1E+10	1	-1E+10	1	-1E+10	1
4901784	3	C	08/04/2015	10:52	-128.857	46.727	0	28.30	0	17.1900	0	31.9980	0	23.169	0	28.064	0	239.4	4	98.8	4	-1E+10	1	-1E+10	1	-1E+10	1	-1E+10	1	-1E+10	1	-1E+10	1
4901784	3	C	08/04/2015	10:52	-128.857	46.727	0	28.60	0	17.0720	0	31.9900	0	23.191	0	28.361	0	240.5	4	99.0	4	-1E+10	1	-1E+10	1	-1E+10	1	-1E+10	1	-1E+10	1	-1E+10	1
4901784	3	C	08/04/2015	10:52	-128.857	46.727	0	29.60	0	16.6760	0	31.9720	0	23.269	0	29.353	0	243.2	4	99.3	4	-1E+10	1	-1E+10	1	-1E+10	1	-1E+10	1	-1E+10	1	-1E+10	1
4901784	3	C	08/04/2015	10:52	-128.857	46.727	0	30.70	0	16.0550	0	32.0040	0	23.434	0	30.444	0	247.1	4	99.7	4	-1E+10	1	-1E+10	1	-1E+10	1	-1E+10	1	-1E+10	1	-1E+10	1
4901784	3	C	08/04/2015	10:52	-128.857	46.727	0	31.80	0	15.5400	0	32.0140	0	23.556	0	31.534	0	250.6	4	100.1	4	-1E+10	1	-1E+10	1	-1E+10	1	-1E+10	1	-1E+10	1	-1E+10	1
4901784	3	C	08/04/2015	10:52	-128.857	46.727	0	33.20	0	14.9010	0	32.0900	0	23.752	0	32.923	0	254.3	4	100.4	4	-1E+10	1	-1E+10	1	-1E+10	1	-1E+10	1	-1E+10	1	-1E+10	1
4901784	3	C	08/04/2015	10:52	-128.857	46.727	0	34.70	0	14.2430	0	32.1290	0	23.921	0	34.410	0	259.0	4	100.9	4	-1E+10	1	-1E+10	1	-1E+10	1	-1E+10	1	-1E+10	1	-1E+10	1
4901784	3	C	08/04/2015	10:52	-128.857	46.727	0	36.30	0	13.8790	0	32.1740	0	24.031	0	35.996	0	260.2	4	100.7	4	-1E+10	1	-1E+10	1	-1E+10	1	-1E+10	1	-1E+10	1	-1E+10	1
4901784	3	C	08/04/2015	10:52	-128.857	46.727	0	38.00	0	13.6080	0	32.2080	0	24.112	0	37.682	0	261.9	4	100.8	4	-1E+10	1	-1E+10	1	-1E+10	1	-1E+10	1	-1E+10	1	-1E+10	1
4901784	3	C	08/04/2015	10:52	-128.857	46.727	0	39.60	0	13.5680	0	32.2110	0	24.122	0	39.269	0	262.4	4	100.9	4	-1E+10	1	-1E+10	1	-1E+10	1	-1E+10	1	-1E+10	1	-1E+10	1
4901784	3	C	08/04/2015	10:52	-128.857	46.727	0	41.30	0	13.5570	0	32.2100	0	24.124	0	40.954	0	262.5	4	100.9	4	-1E+10	1	-1E+10	1	-1E+10	1	-1E+10	1	-1E+10	1	-1E+10	1
4901784	3	C	08/04/2015	10:52	-128.857	46.727	0	43.00	0	13.5270	0	32.2110	0	24.131	0	42.640	0	262.6	4	100.9	4	-1E+10	1	-1E+10	1	-1E+10	1	-1E+10	1	-1E+10	1	-1E+10	1
4901784	3	C	08/04/2015	10:52	-128.857	46.727	0	44.60	0	13.4800	0	32.2110	0	24.140	0	44.226	0	262.8	4	100.9	4	-1E+10	1	-1E+10	1	-1E+10	1	-1E+10	1	-1E+10	1	-1E+10	1
4901784	3	C	08/04/2015	10:52	-128.857	46.727	0	46.30	0	13.4010	0	32.2110	0	24.156	0	45.912	0	263.3	4	100.9	4	-1E+10	1	-1E+10	1	-1E+10	1	-1E+10	1	-1E+10	1	-1E+10	1
4901784	3	C	08/04/2015	10:52	-128.857	46.727	0	48.00	0	13.0640	0	32.2280	0	24.236	0	47.597	0	265.3	4	101.0	4	-1E+10	1	-1E+10	1	-1E+10	1	-1E+10	1	-1E+10	1	-1E+10	1
4901784	3	C	08/04/2015	10:52	-128.857	46.727	0	49.60	0	12.9090	0	32.2330	0	24.270	0	49.184	0	266.4	4	101.1	4	-1E+10	1	-1E+10	1	-1E+10	1	-1E+10	1	-1E+10	1	-1E+10	1
4901784	3	C	08/04/2015	10:52	-128.857	46.727	0	51.40	0	12.7120	0	32.2440	0	24.316	0	50.968	0	267.5	4	101.1	4	-1E+10	1	-1E+10	1	-1E+10	1	-1E+10	1	-1E+10	1	-1E+10	1
4901784	3	C	08/04/2015	10:52	-128.857	46.727	0	53.00	0	12.6090	0	32.2440	0	24.336	0	52.555	0	268.3	4	101.2	4	-1E+10	1	-1E+10	1	-1E+10	1	-1E+10	1	-1E+10	1	-1E+10	1
4901784	3	C	08/04/2015	10:52	-128.857	46.727	0	54.70	0	12.5240	0	32.2410	0	24.350	0	54.240	0	269.2	4	101.4	4	-1E+10	1	-1E+10	1	-1E+10	1	-1E+10	1	-1E+10	1	-1E+10	1
4901784	3	C	08/04/2015	10:52	-128.857	46.727	0	56.40	0	12.2080	0	32.2640	0	24.428	0	55.926	0	270.8	4	101.3	4	-1E+10	1	-1E+10	1	-1E+10	1	-1E+10	1	-1E+10	1	-1E+10	1
4901784	3	C	08/04/2015	10:52	-128.857	46.727	0	58.10	0	12.0660	0	32.2790	0	24.466	0	57.611	0	271.2	4	101.2	4	-1E+10	1	-1E+10	1	-1E+10	1	-1E+10	1	-1E+10	1	-1E+10	1
4901784	3	C	08/04/2015	10:52	-128.857	46.727	0	59.90	0	11.9630	0	32.2930	0	24.496	0	59.396	0	270.7	4	100.8	4	-1E+10	1	-1E+10	1	-1E+10	1	-1E+10	1	-1E+10	1	-1E+10	1
4901784	3	C	08/04/2015	10:52	-128.857	46.727	0	61.60	0	11.8170	0	32.3270	0	24.550	0	61.081	0	270.3	4	100.4	4	-1E+10	1	-1E+10	1	-1E+10	1	-1E+10	1	-1E+10	1	-1E+10	1
4901784	3	C	08/04/2015	10:52	-128.857	46.727	0	63.40	0	11.8090	0	32.3420	0	24.563	0	62.866	0	268.7	4	99.8	4	-1E+10	1	-1E+10	1	-1E+10	1	-1E+10	1	-1E+10	1	-1E+10	1
4901784	3	C	08/04/2015	10:52	-128.857	46.727	0	65.10	0	11.7670	0	32.3730	0	24.595	0	64.551	0	266.1	4	98.7	4	-1E+10	1	-1E+10	1	-1E+10	1	-1E+10	1	-1E+10	1	-1E+10	1
4901784	3	C	08/04/2015	10:52	-128.857	46.727	0	66.90	0	11.7500	0	32.3790	0	24.602	0	66.336	0	263.2	4	97.6	4	-1E+10	1	-1E+10	1	-1E+10	1	-1E+10	1	-1E+10	1	-1E+10	1
4901784	3	C	08/04/2015	10:52	-128.857	46.727	0	68.70	0	11.2260	0	32.3530	0	24.677	0	68.120	0	262.0	4	96.1	4	-1E+10	1	-1E+10	1	-1E+10	1	-1E+10	1	-1E+10	1	-1E+10	1
4901784	3	C	08/04/2015	10:52	-128.857	46.727	0	70.50	0	11.1670	0	32.3620	0	24.694	0	69.905	0	260.4	4	95.4	4	-1E+10	1	-1E+10	1	-1E+10	1	-1E+10	1	-1E+10	1	-1E+10	1
4901784	3	C	08/04/2015	10:52	-128.857	46.727	0	72.30	0	11.2290	0	32.3960	0	24.710	0	71.689	0	257.7	4	94.5	4	-1E+10	1	-1E+10	1	-1E+10	1	-1E+10	1	-1E+10	1	-1E+10	1
4901784	3	C	08/04/2015	10:52	-128.857	46.727	0	74.10	0	11.2880	0	32.4550	0	24.745	0	73.474	0	252.9	4	93.0	4	-1E+10	1	-1E+10	1	-1E+10	1	-1E+10	1	-1E+10	1	-1E+10	1
4901784	3	C	08/04/2015	10:52	-128.857	46.727	0	75.90	0	11.2050	0	32.4510	0	24.757	0	75.258	0	248.2	4	91.0	4	-1E+10	1	-1E+10	1	-1E+10	1	-1E+10	1	-1E+10	1	-1E+10	1
4901784	3	C	08/04/2015	10:52	-128.857	46.727	0	78.20	0	11.0510	0	32.4700	0	24.799	0	77.538	0	242.2	4	88.6	4	-1E+10	1	-1E+10	1	-1E+10	1	-1E+10	1	-1E+10	1	-1E+10	1
4901784	3	C	08/04/2015	10:52	-128.857	46.727	0	80.00	0	10.9040	0	32.4960	0	24.845	0	79.323	0	234.5	4	85.5	4	-1E+10	1	-1E+10	1	-1E+10	1	-1E+10	1	-1E+10	1	-1E+10	1
4901784	3	C	08/04/2015	10:52	-128.857	46.727	0	81.50	0	10.5320	0	32.4880	0	24.903	0	80.810	0	229.7	4	83.1	4	-1E+10	1	-1E+10	1	-1E+10	1	-1E+10	1	-1E+10	1	-1E+10	1
4901784	3	C	08/04/2015	10:52	-128.857	46.727	0	83.10	0	10.4400	0	32.5260	0	24.949	0	82.396	0	226.8	4	81.9	4	-1E+10	1	-1E+10	1	-1E+10	1	-1E+10	1	-1E+10	1	-1E+10	1
4901784	3	C	08/04/2015	10:52	-128.857	46.727	0	84.60	0	10.3680	0	32.5350	0	24.968	0	83.883	0	223.1	4	80.4	4	-1E+10	1	-1E+10	1	-1E+10	1	-1E+10	1	-1E+10	1	-1E+10	1
4901784	3	C	08/04/2015	10:52	-128.857	46.727	0	86.20	0	10.1380	0	32.5580	0	25.025	0	85.469	0	219.4	4	78.8	4	-1E+10	1	-1E+10	1	-1E+10	1	-1E+10	1	-1E+10	1	-1E+10	1
4901784	3	C	08/04/2015	10:52	-128.857	46.727	0	87.80	0	9.8550	0	32.6180	0	25.118	0	87.055	0	217.8	4	77.7	4	-1E+10	1	-1E+10	1	-1E+10	1	-1E+10	1	-1E+10	1	-1E+10	1
4901784	3	C	08/04/2015	10:52	-128.857	46.727	0	89.40	0	9.7060	0	32.6550	0	25.172	0	88.641	0	216.8	4	77.1	4	-1E+10	1	-1E+10	1	-1E+10	1	-1E+10	1	-1E+10	1	-1E+10	1
4901784	3	C	08/04/2015	10:52	-128.857	46.727	0	91.00	0	9.6230	0	32.6730	0	25.199	0	90.227	0	215.9	4	76.7	4	-1E+10	1	-1E+10	1	-1E+10	1	-1E+10	1	-1E+10	1	-1E+10	1
4901784	3	C	08/04/2015	10:52	-128.857	46.727	0	92.70	0	9.5750	0	32.6840	0	25.216	0	91.912	0	214.6	4	76.1	4	-1E+10	1	-1E+10	1	-1E+10	1	-1E+10	1	-1E+10	1	-1E+10	1
4901784	3	C	08/04/2015	10:52	-128.857	46.727	0	94.40	0	9.4910	0	32.7020	0	25.243	0	93.597	0	213.7	4	75.7	4	-1E+10	1	-1E+10	1	-1E+10	1	-1E+10	1	-1E+10	1	-1E+10	1
4901784	3	C	08/04/2015	10:52	-128.857	46.727	0	96.10	0	9.3680	0	32.7280	0	25.283	0	95.283	0	212.9	4	75.2	4	-1E+10	1	-1E+10	1	-1E+10	1	-1E+10	1	-1E+10	1	-1E+10	1
4901784	3	C	08/04/2015	10:52	-128.857	46.727	0	98.10	0	9.2910	0	32.7380	0	25.303	0	97.265	0	212.2	4	74.9	4	-1E+10	1	-1E+10	1	-1E+10	1	-1E+10	1	-1E+10	1	-1E+10	1
4901784	3	C	08/04/2015	10:52	-128.857	46.727	0	98.50	0	9.2800	0	32.7380	0	25.305	0	97.662	0	211.9	4	74.8	4	-1E+10	1	-1E+10	1	-1E+10	1	-1E+10	1	-1E+10	1	-1E+10	1
4901784	3	C	08/04/2015	10:52	-128.857	46.727	0	100.00	0	9.0590	0	32.7840	0	25.376	0	99.148	0	211.8	4	74.4	4	-1E+10	1	-1E+10	1	-1E+10	1	-1E+10	1	-1E+10	1	-1E+10	1
4901784	3	C	08/04/2015	10:52	-128.857	46.727	0	102.00	0	9.0020	0	32.7920	0	25.391	0	101.131	0	211.3	4	74.1	4	-1E+10	1	-1E+10	1	-1E+10	1	-1E+10	1	-1E+10	1	-1E+10	1
4901784	3	C	08/04/2015	10:52	-128.857	46.727	0	104.90	0	8.9240	0	32.8020	0	25.411	0	104.005	0	209.8	4	73.5	4	-1E+10	1	-1E+10	1	-1E+10	1	-1E+10	1	-1E+10	1	-1E+10	1
4901784	3	C	08/04/2015	10:52	-128.857	46.727	0	107.90	0	8.7050	0	32.8490	0	25.482	0	106.979	0	207.5	4	72.3	4	-1E+10	1	-1E+10	1	-1E+10	1	-1E+10	1	-1E+10	1	-1E+10	1
4901784	3	C	08/04/2015	10:52	-128.857	46.727	0	110.20	0	8.4420	0	32.9080	0	25.568	0	109.259	0	206.6	4	71.6	4	-1E+10	1	-1E+10	1	-1E+10	1	-1E+10	1	-1E+10	1	-1E+10	1
4901784	3	C	08/04/2015	10:52	-128.857	46.727	0	112.60	0	8.2510	0	32.9560	0	25.634	0	111.638	0	205.5	4	71.0	4	-1E+10	1	-1E+10	1	-1E+10	1	-1E+10	1	-1E+10	1	-1E+10	1
4901784	3	C	08/04/2015	10:52	-128.857	46.727	0	115.10	0	8.1090	0	33.0270	0	25.711	0	114.116	0	204.0	4	70.3	4	-1E+10	1	-1E+10	1	-1E+10	1	-1E+10	1	-1E+10	1	-1E+10	1
4901784	3	C	08/04/2015	10:52	-128.857	46.727	0	117.30	0	7.9440	0	33.0550	0	25.757	0	116.296	0	204.0	4	70.0	4	-1E+10	1	-1E+10	1	-1E+10	1	-1E+10	1	-1E+10	1	-1E+10	1
4901784	3	C	08/04/2015	10:52	-128.857	46.727	0	119.80	0	7.9910	0	33.0950	0	25.781	0	118.774	0	203.7	4	70.0	4	-1E+10	1	-1E+10	1	-1E+10	1	-1E+10	1	-1E+10	1	-1E+10	1
4901784	3	C	08/04/2015	10:52	-128.857	46.727	0	122.70	0	7.9540	0	33.1260	0	25.811	0	121.648	0	201.9	4	69.4	4	-1E+10	1	-1E+10	1	-1E+10	1	-1E+10	1	-1E+10	1	-1E+10	1
4901784	3	C	08/04/2015	10:52	-128.857	46.727	0	124.90	0	8.0310	0	33.1700	0	25.834	0	123.829	0	200.1	4	68.9	4	-1E+10	1	-1E+10	1	-1E+10	1	-1E+10	1	-1E+10	1	-1E+10	1
4901784	3	C	08/04/2015	10:52	-128.857	46.727	0	127.30	0	7.7930	0	33.1720	0	25.870	0	126.208	0	197.6	4	67.6	4	-1E+10	1	-1E+10	1	-1E+10	1	-1E+10	1	-1E+10	1	-1E+10	1
4901784	3	C	08/04/2015	10:52	-128.857	46.727	0	129.70	0	7.7240	0	33.1810	0	25.887	0	128.586	0	196.3	4	67.1	4	-1E+10	1	-1E+10	1	-1E+10	1	-1E+10	1	-1E+10	1	-1E+10	1
4901784	3	C	08/04/2015	10:52	-128.857	46.727	0	132.20	0	7.6970	0	33.2160	0	25.919	0	131.064	0	194.6	4	66.5	4	-1E+10	1	-1E+10	1	-1E+10	1	-1E+10	1	-1E+10	1	-1E+10	1
4901784	3	C	08/04/2015	10:52	-128.857	46.727	0	134.50	0	7.6810	0	33.2410	0	25.941	0	133.344	0	192.9	4	65.9	4	-1E+10	1	-1E+10	1	-1E+10	1	-1E+10	1	-1E+10	1	-1E+10	1
4901784	3	C	08/04/2015	10:52	-128.857	46.727	0	137.20	0	7.6770	0	33.2580	0	25.955	0	136.019	0	190.6	4	65.1	4	-1E+10	1	-1E+10	1	-1E+10	1	-1E+10	1	-1E+10	1	-1E+10	1
4901784	3	C	08/04/2015	10:52	-128.857	46.727	0	139.80	0	7.6450	0	33.3050	0	25.996	0	138.596	0	187.7	4	64.1	4	-1E+10	1	-1E+10	1	-1E+10	1	-1E+10	1	-1E+10	1	-1E+10	1
4901784	3	C	08/04/2015	10:52	-128.857	46.727	0	142.10	0	7.6360	0	33.3380	0	26.023	0	140.876	0	185.4	4	63.3	4	-1E+10	1	-1E+10	1	-1E+10	1	-1E+10	1	-1E+10	1	-1E+10	1
4901784	3	C	08/04/2015	10:52	-128.857	46.727	0	145.10	0	7.6470	0	33.3670	0	26.045	0	143.849	0	182.9	4	62.5	4	-1E+10	1	-1E+10	1	-1E+10	1	-1E+10	1	-1E+10	1	-1E+10	1
4901784	3	C	08/04/2015	10:52	-128.857	46.727	0	147.30	0	7.6570	0	33.3770	0	26.051	0	146.029	0	181.1	4	61.9	4	-1E+10	1	-1E+10	1	-1E+10	1	-1E+10	1	-1E+10	1	-1E+10	1
4901784	3	C	08/04/2015	10:52	-128.857	46.727	0	149.60	0	7.6380	0	33.4030	0	26.074	0	148.308	0	179.5	4	61.3	4	-1E+10	1	-1E+10	1	-1E+10	1	-1E+10	1	-1E+10	1	-1E+10	1
4901784	3	C	08/04/2015	10:52	-128.857	46.727	0	152.80	0	7.6040	0	33.4480	0	26.115	0	151.479	0	176.2	4	60.2	4	-1E+10	1	-1E+10	1	-1E+10	1	-1E+10	1	-1E+10	1	-1E+10	1
4901784	3	C	08/04/2015	10:52	-128.857	46.727	0	155.20	0	7.6170	0	33.4840	0	26.141	0	153.858	0	173.8	4	59.4	4	-1E+10	1	-1E+10	1	-1E+10	1	-1E+10	1	-1E+10	1	-1E+10	1
4901784	3	C	08/04/2015	10:52	-128.857	46.727	0	157.60	0	7.6120	0	33.5070	0	26.160	0	156.236	0	172.0	4	58.8	4	-1E+10	1	-1E+10	1	-1E+10	1	-1E+10	1	-1E+10	1	-1E+10	1
4901784	3	C	08/04/2015	10:52	-128.857	46.727	0	160.10	0	7.6090	0	33.5200	0	26.171	0	158.714	0	170.3	4	58.2	4	-1E+10	1	-1E+10	1	-1E+10	1	-1E+10	1	-1E+10	1	-1E+10	1
4901784	3	C	08/04/2015	10:52	-128.857	46.727	0	162.50	0	7.6120	0	33.5380	0	26.184	0	161.092	0	168.3	4	57.5	4	-1E+10	1	-1E+10	1	-1E+10	1	-1E+10	1	-1E+10	1	-1E+10	1
4901784	3	C	08/04/2015	10:52	-128.857	46.727	0	164.90	0	7.6060	0	33.5480	0	26.193	0	163.470	0	166.0	4	56.7	4	-1E+10	1	-1E+10	1	-1E+10	1	-1E+10	1	-1E+10	1	-1E+10	1
4901784	3	C	08/04/2015	10:52	-128.857	46.727	0	167.30	0	7.5940	0	33.5810	0	26.221	0	165.848	0	163.4	4	55.8	4	-1E+10	1	-1E+10	1	-1E+10	1	-1E+10	1	-1E+10	1	-1E+10	1
4901784	3	C	08/04/2015	10:52	-128.857	46.727	0	169.80	0	7.5770	0	33.6020	0	26.240	0	168.326	0	160.5	4	54.9	4	-1E+10	1	-1E+10	1	-1E+10	1	-1E+10	1	-1E+10	1	-1E+10	1
4901784	3	C	08/04/2015	10:52	-128.857	46.727	0	172.40	0	7.5780	0	33.6290	0	26.261	0	170.902	0	156.8	4	53.6	4	-1E+10	1	-1E+10	1	-1E+10	1	-1E+10	1	-1E+10	1	-1E+10	1
4901784	3	C	08/04/2015	10:52	-128.857	46.727	0	175.10	0	7.5490	0	33.6710	0	26.298	0	173.577	0	153.6	4	52.5	4	-1E+10	1	-1E+10	1	-1E+10	1	-1E+10	1	-1E+10	1	-1E+10	1
4901784	3	C	08/04/2015	10:52	-128.857	46.727	0	177.80	0	7.5320	0	33.6900	0	26.315	0	176.253	0	150.3	4	51.3	4	-1E+10	1	-1E+10	1	-1E+10	1	-1E+10	1	-1E+10	1	-1E+10	1
4901784	3	C	08/04/2015	10:52	-128.857	46.727	0	180.60	0	7.5570	0	33.7110	0	26.328	0	179.027	0	146.5	4	50.1	4	-1E+10	1	-1E+10	1	-1E+10	1	-1E+10	1	-1E+10	1	-1E+10	1
4901784	3	C	08/04/2015	10:52	-128.857	46.727	0	182.50	0	7.6180	0	33.7440	0	26.346	0	180.910	0	144.3	4	49.4	4	-1E+10	1	-1E+10	1	-1E+10	1	-1E+10	1	-1E+10	1	-1E+10	1
4901784	3	C	08/04/2015	10:52	-128.857	46.727	0	185.30	0	7.5650	0	33.7570	0	26.364	0	183.684	0	142.1	4	48.6	4	-1E+10	1	-1E+10	1	-1E+10	1	-1E+10	1	-1E+10	1	-1E+10	1
4901784	3	C	08/04/2015	10:52	-128.857	46.727	0	188.10	0	7.5300	0	33.7830	0	26.389	0	186.458	0	140.1	4	47.9	4	-1E+10	1	-1E+10	1	-1E+10	1	-1E+10	1	-1E+10	1	-1E+10	1
4901784	3	C	08/04/2015	10:52	-128.857	46.727	0	189.90	0	7.4940	0	33.7950	0	26.404	0	188.242	0	139.9	4	47.8	4	-1E+10	1	-1E+10	1	-1E+10	1	-1E+10	1	-1E+10	1	-1E+10	1
4901784	3	C	08/04/2015	10:52	-128.857	46.727	0	192.60	0	7.4190	0	33.7950	0	26.414	0	190.917	0	139.6	4	47.6	4	-1E+10	1	-1E+10	1	-1E+10	1	-1E+10	1	-1E+10	1	-1E+10	1
4901784	3	C	08/04/2015	10:52	-128.857	46.727	0	195.40	0	7.3890	0	33.8050	0	26.426	0	193.691	0	138.2	4	47.1	4	-1E+10	1	-1E+10	1	-1E+10	1	-1E+10	1	-1E+10	1	-1E+10	1
4901784	3	C	08/04/2015	10:52	-128.857	46.727	0	197.20	0	7.3820	0	33.8090	0	26.430	0	195.475	0	137.4	4	46.8	4	-1E+10	1	-1E+10	1	-1E+10	1	-1E+10	1	-1E+10	1	-1E+10	1
4901784	3	C	08/04/2015	10:52	-128.857	46.727	0	200.10	0	7.3660	0	33.8170	0	26.439	0	198.348	0	136.7	4	46.6	4	-1E+10	1	-1E+10	1	-1E+10	1	-1E+10	1	-1E+10	1	-1E+10	1
4901784	3	C	08/04/2015	10:52	-128.857	46.727	0	202.90	0	7.3450	0	33.8240	0	26.448	0	201.122	0	136.0	4	46.3	4	-1E+10	1	-1E+10	1	-1E+10	1	-1E+10	1	-1E+10	1	-1E+10	1
4901784	3	C	08/04/2015	10:52	-128.857	46.727	0	204.70	0	7.3230	0	33.8300	0	26.455	0	202.905	0	134.8	4	45.9	4	-1E+10	1	-1E+10	1	-1E+10	1	-1E+10	1	-1E+10	1	-1E+10	1
4901784	3	C	08/04/2015	10:52	-128.857	46.727	0	207.50	0	7.3120	0	33.8340	0	26.460	0	205.680	0	133.1	4	45.3	4	-1E+10	1	-1E+10	1	-1E+10	1	-1E+10	1	-1E+10	1	-1E+10	1
4901784	3	C	08/04/2015	10:52	-128.857	46.727	0	210.30	0	7.2810	0	33.8420	0	26.471	0	208.454	0	131.3	4	44.6	4	-1E+10	1	-1E+10	1	-1E+10	1	-1E+10	1	-1E+10	1	-1E+10	1
4901784	3	C	08/04/2015	10:52	-128.857	46.727	0	212.20	0	7.2610	0	33.8470	0	26.477	0	210.336	0	130.1	4	44.2	4	-1E+10	1	-1E+10	1	-1E+10	1	-1E+10	1	-1E+10	1	-1E+10	1
4901784	3	C	08/04/2015	10:52	-128.857	46.727	0	215.00	0	7.2280	0	33.8570	0	26.490	0	213.110	0	128.5	4	43.6	4	-1E+10	1	-1E+10	1	-1E+10	1	-1E+10	1	-1E+10	1	-1E+10	1
4901784	3	C	08/04/2015	10:52	-128.857	46.727	0	217.80	0	7.1960	0	33.8630	0	26.499	0	215.884	0	127.3	4	43.2	4	-1E+10	1	-1E+10	1	-1E+10	1	-1E+10	1	-1E+10	1	-1E+10	1
4901784	3	C	08/04/2015	10:52	-128.857	46.727	0	219.70	0	7.1750	0	33.8680	0	26.506	0	217.766	0	126.8	4	43.0	4	-1E+10	1	-1E+10	1	-1E+10	1	-1E+10	1	-1E+10	1	-1E+10	1
4901784	3	C	08/04/2015	10:52	-128.857	46.727	0	222.40	0	7.1440	0	33.8720	0	26.513	0	220.441	0	126.4	4	42.9	4	-1E+10	1	-1E+10	1	-1E+10	1	-1E+10	1	-1E+10	1	-1E+10	1
4901784	3	C	08/04/2015	10:52	-128.857	46.727	0	225.20	0	7.1100	0	33.8730	0	26.519	0	223.215	0	125.3	4	42.4	4	-1E+10	1	-1E+10	1	-1E+10	1	-1E+10	1	-1E+10	1	-1E+10	1
4901784	3	C	08/04/2015	10:52	-128.857	46.727	0	227.10	0	7.0870	0	33.8800	0	26.528	0	225.097	0	124.3	4	42.1	4	-1E+10	1	-1E+10	1	-1E+10	1	-1E+10	1	-1E+10	1	-1E+10	1
4901784	3	C	08/04/2015	10:52	-128.857	46.727	0	230.00	0	7.0750	0	33.8800	0	26.529	0	227.970	0	123.4	4	41.8	4	-1E+10	1	-1E+10	1	-1E+10	1	-1E+10	1	-1E+10	1	-1E+10	1
4901784	3	C	08/04/2015	10:52	-128.857	46.727	0	232.80	0	7.0480	0	33.8840	0	26.536	0	230.743	0	122.4	4	41.4	4	-1E+10	1	-1E+10	1	-1E+10	1	-1E+10	1	-1E+10	1	-1E+10	1
4901784	3	C	08/04/2015	10:52	-128.857	46.727	0	234.70	0	7.0360	0	33.8850	0	26.539	0	232.626	0	121.7	4	41.2	4	-1E+10	1	-1E+10	1	-1E+10	1	-1E+10	1	-1E+10	1	-1E+10	1
4901784	3	C	08/04/2015	10:52	-128.857	46.727	0	237.40	0	7.0170	0	33.8900	0	26.545	0	235.300	0	121.0	4	40.9	4	-1E+10	1	-1E+10	1	-1E+10	1	-1E+10	1	-1E+10	1	-1E+10	1
4901784	3	C	08/04/2015	10:52	-128.857	46.727	0	240.10	0	6.9870	0	33.8930	0	26.552	0	237.975	0	121.4	4	41.0	4	-1E+10	1	-1E+10	1	-1E+10	1	-1E+10	1	-1E+10	1	-1E+10	1
4901784	3	C	08/04/2015	10:52	-128.857	46.727	0	241.90	0	6.9530	0	33.8910	0	26.555	0	239.758	0	121.8	4	41.1	4	-1E+10	1	-1E+10	1	-1E+10	1	-1E+10	1	-1E+10	1	-1E+10	1
4901784	3	C	08/04/2015	10:52	-128.857	46.727	0	244.70	0	6.8900	0	33.8910	0	26.563	0	242.531	0	122.7	4	41.4	4	-1E+10	1	-1E+10	1	-1E+10	1	-1E+10	1	-1E+10	1	-1E+10	1
4901784	3	C	08/04/2015	10:52	-128.857	46.727	0	247.60	0	6.8450	0	33.8920	0	26.570	0	245.404	0	122.5	4	41.3	4	-1E+10	1	-1E+10	1	-1E+10	1	-1E+10	1	-1E+10	1	-1E+10	1
4901784	3	C	08/04/2015	10:52	-128.857	46.727	0	249.40	0	6.8170	0	33.8920	0	26.574	0	247.187	0	122.1	4	41.1	4	-1E+10	1	-1E+10	1	-1E+10	1	-1E+10	1	-1E+10	1	-1E+10	1
4901784	3	C	08/04/2015	10:52	-128.857	46.727	0	252.20	0	6.8050	0	33.8920	0	26.576	0	249.960	0	120.6	4	40.6	4	-1E+10	1	-1E+10	1	-1E+10	1	-1E+10	1	-1E+10	1	-1E+10	1
4901784	3	C	08/04/2015	10:52	-128.857	46.727	0	255.00	0	6.7940	0	33.8920	0	26.577	0	252.734	0	118.0	4	39.7	4	-1E+10	1	-1E+10	1	-1E+10	1	-1E+10	1	-1E+10	1	-1E+10	1
4901784	3	C	08/04/2015	10:52	-128.857	46.727	0	257.80	0	6.7460	0	33.8990	0	26.589	0	255.507	0	113.7	4	38.2	4	-1E+10	1	-1E+10	1	-1E+10	1	-1E+10	1	-1E+10	1	-1E+10	1
4901784	3	C	08/04/2015	10:52	-128.857	46.727	0	260.60	0	6.7160	0	33.9060	0	26.599	0	258.280	0	110.1	4	37.0	4	-1E+10	1	-1E+10	1	-1E+10	1	-1E+10	1	-1E+10	1	-1E+10	1
4901784	3	C	08/04/2015	10:52	-128.857	46.727	0	262.50	0	6.7160	0	33.9130	0	26.604	0	260.162	0	109.0	4	36.6	4	-1E+10	1	-1E+10	1	-1E+10	1	-1E+10	1	-1E+10	1	-1E+10	1
4901784	3	C	08/04/2015	10:52	-128.857	46.727	0	265.30	0	6.6630	0	33.9130	0	26.611	0	262.936	0	108.3	4	36.3	4	-1E+10	1	-1E+10	1	-1E+10	1	-1E+10	1	-1E+10	1	-1E+10	1
4901784	3	C	08/04/2015	10:52	-128.857	46.727	0	268.10	0	6.6410	0	33.9130	0	26.614	0	265.709	0	106.9	4	35.8	4	-1E+10	1	-1E+10	1	-1E+10	1	-1E+10	1	-1E+10	1	-1E+10	1
4901784	3	C	08/04/2015	10:52	-128.857	46.727	0	270.10	0	6.6310	0	33.9150	0	26.617	0	267.690	0	105.9	4	35.5	4	-1E+10	1	-1E+10	1	-1E+10	1	-1E+10	1	-1E+10	1	-1E+10	1
4901784	3	C	08/04/2015	10:52	-128.857	46.727	0	272.00	0	6.6130	0	33.9180	0	26.622	0	269.572	0	105.7	4	35.4	4	-1E+10	1	-1E+10	1	-1E+10	1	-1E+10	1	-1E+10	1	-1E+10	1
4901784	3	C	08/04/2015	10:52	-128.857	46.727	0	274.80	0	6.5410	0	33.9170	0	26.631	0	272.345	0	105.4	4	35.2	4	-1E+10	1	-1E+10	1	-1E+10	1	-1E+10	1	-1E+10	1	-1E+10	1
4901784	3	C	08/04/2015	10:52	-128.857	46.727	0	277.60	0	6.5050	0	33.9180	0	26.636	0	275.118	0	104.6	4	35.0	4	-1E+10	1	-1E+10	1	-1E+10	1	-1E+10	1	-1E+10	1	-1E+10	1
4901784	3	C	08/04/2015	10:52	-128.857	46.727	0	279.50	0	6.4950	0	33.9180	0	26.638	0	277.000	0	104.4	4	34.9	4	-1E+10	1	-1E+10	1	-1E+10	1	-1E+10	1	-1E+10	1	-1E+10	1
4901784	3	C	08/04/2015	10:52	-128.857	46.727	0	282.30	0	6.4410	0	33.9170	0	26.644	0	279.773	0	104.1	4	34.7	4	-1E+10	1	-1E+10	1	-1E+10	1	-1E+10	1	-1E+10	1	-1E+10	1
4901784	3	C	08/04/2015	10:52	-128.857	46.727	0	285.20	0	6.4290	0	33.9200	0	26.648	0	282.645	0	103.1	4	34.4	4	-1E+10	1	-1E+10	1	-1E+10	1	-1E+10	1	-1E+10	1	-1E+10	1
4901784	3	C	08/04/2015	10:52	-128.857	46.727	0	287.70	0	6.3880	0	33.9190	0	26.652	0	285.121	0	103.2	4	34.4	4	-1E+10	1	-1E+10	1	-1E+10	1	-1E+10	1	-1E+10	1	-1E+10	1
4901784	3	C	08/04/2015	10:52	-128.857	46.727	0	289.70	0	6.3630	0	33.9190	0	26.656	0	287.101	0	103.1	4	34.3	4	-1E+10	1	-1E+10	1	-1E+10	1	-1E+10	1	-1E+10	1	-1E+10	1
4901784	3	C	08/04/2015	10:52	-128.857	46.727	0	292.20	0	6.3160	0	33.9150	0	26.659	0	289.577	0	102.5	4	34.1	4	-1E+10	1	-1E+10	1	-1E+10	1	-1E+10	1	-1E+10	1	-1E+10	1
4901784	3	C	08/04/2015	10:52	-128.857	46.727	0	295.40	0	6.2060	0	33.9140	0	26.672	0	292.746	0	99.2	4	32.9	4	-1E+10	1	-1E+10	1	-1E+10	1	-1E+10	1	-1E+10	1	-1E+10	1
4901784	3	C	08/04/2015	10:52	-128.857	46.727	0	297.80	0	6.2580	0	33.9260	0	26.675	0	295.123	0	94.9	4	31.6	4	-1E+10	1	-1E+10	1	-1E+10	1	-1E+10	1	-1E+10	1	-1E+10	1
4901784	3	C	08/04/2015	10:52	-128.857	46.727	0	300.20	0	6.2450	0	33.9280	0	26.678	0	297.500	0	93.0	4	30.9	4	-1E+10	1	-1E+10	1	-1E+10	1	-1E+10	1	-1E+10	1	-1E+10	1
4901784	3	C	08/04/2015	10:52	-128.857	46.727	0	302.70	0	6.2250	0	33.9310	0	26.683	0	299.975	0	91.1	4	30.3	4	-1E+10	1	-1E+10	1	-1E+10	1	-1E+10	1	-1E+10	1	-1E+10	1
4901784	3	C	08/04/2015	10:52	-128.857	46.727	0	305.20	0	6.2240	0	33.9350	0	26.686	0	302.451	0	88.9	4	29.5	4	-1E+10	1	-1E+10	1	-1E+10	1	-1E+10	1	-1E+10	1	-1E+10	1
4901784	3	C	08/04/2015	10:52	-128.857	46.727	0	307.70	0	6.2000	0	33.9370	0	26.691	0	304.927	0	87.6	4	29.1	4	-1E+10	1	-1E+10	1	-1E+10	1	-1E+10	1	-1E+10	1	-1E+10	1
4901784	3	C	08/04/2015	10:52	-128.857	46.727	0	310.20	0	6.1900	0	33.9410	0	26.695	0	307.402	0	86.5	4	28.7	4	-1E+10	1	-1E+10	1	-1E+10	1	-1E+10	1	-1E+10	1	-1E+10	1
4901784	3	C	08/04/2015	10:52	-128.857	46.727	0	312.70	0	6.1090	0	33.9410	0	26.706	0	309.878	0	86.3	4	28.6	4	-1E+10	1	-1E+10	1	-1E+10	1	-1E+10	1	-1E+10	1	-1E+10	1
4901784	3	C	08/04/2015	10:52	-128.857	46.727	0	315.30	0	6.0910	0	33.9410	0	26.708	0	312.452	0	84.8	4	28.1	4	-1E+10	1	-1E+10	1	-1E+10	1	-1E+10	1	-1E+10	1	-1E+10	1
4901784	3	C	08/04/2015	10:52	-128.857	46.727	0	317.90	0	6.0510	0	33.9410	0	26.713	0	315.027	0	84.4	4	27.9	4	-1E+10	1	-1E+10	1	-1E+10	1	-1E+10	1	-1E+10	1	-1E+10	1
4901784	3	C	08/04/2015	10:52	-128.857	46.727	0	319.70	0	5.9610	0	33.9360	0	26.720	0	316.809	0	83.9	4	27.7	4	-1E+10	1	-1E+10	1	-1E+10	1	-1E+10	1	-1E+10	1	-1E+10	1
4901784	3	C	08/04/2015	10:52	-128.857	46.727	0	322.20	0	5.9510	0	33.9390	0	26.724	0	319.285	0	81.0	4	26.7	4	-1E+10	1	-1E+10	1	-1E+10	1	-1E+10	1	-1E+10	1	-1E+10	1
4901784	3	C	08/04/2015	10:52	-128.857	46.727	0	324.80	0	5.9420	0	33.9460	0	26.731	0	321.859	0	78.9	4	26.0	4	-1E+10	1	-1E+10	1	-1E+10	1	-1E+10	1	-1E+10	1	-1E+10	1
4901784	3	C	08/04/2015	10:52	-128.857	46.727	0	327.40	0	5.9230	0	33.9500	0	26.736	0	324.434	0	77.7	4	25.6	4	-1E+10	1	-1E+10	1	-1E+10	1	-1E+10	1	-1E+10	1	-1E+10	1
4901784	3	C	08/04/2015	10:52	-128.857	46.727	0	330.10	0	5.9030	0	33.9500	0	26.739	0	327.107	0	77.0	4	25.4	4	-1E+10	1	-1E+10	1	-1E+10	1	-1E+10	1	-1E+10	1	-1E+10	1
4901784	3	C	08/04/2015	10:52	-128.857	46.727	0	332.80	0	5.9010	0	33.9530	0	26.741	0	329.780	0	76.3	4	25.2	4	-1E+10	1	-1E+10	1	-1E+10	1	-1E+10	1	-1E+10	1	-1E+10	1
4901784	3	C	08/04/2015	10:52	-128.857	46.727	0	335.50	0	5.8890	0	33.9560	0	26.745	0	332.454	0	76.4	4	25.2	4	-1E+10	1	-1E+10	1	-1E+10	1	-1E+10	1	-1E+10	1	-1E+10	1
4901784	3	C	08/04/2015	10:52	-128.857	46.727	0	337.30	0	5.8590	0	33.9530	0	26.747	0	334.236	0	77.0	4	25.4	4	-1E+10	1	-1E+10	1	-1E+10	1	-1E+10	1	-1E+10	1	-1E+10	1
4901784	3	C	08/04/2015	10:52	-128.857	46.727	0	339.90	0	5.8260	0	33.9500	0	26.748	0	336.810	0	77.4	4	25.5	4	-1E+10	1	-1E+10	1	-1E+10	1	-1E+10	1	-1E+10	1	-1E+10	1
4901784	3	C	08/04/2015	10:52	-128.857	46.727	0	342.60	0	5.7980	0	33.9480	0	26.750	0	339.483	0	77.6	4	25.5	4	-1E+10	1	-1E+10	1	-1E+10	1	-1E+10	1	-1E+10	1	-1E+10	1
4901784	3	C	08/04/2015	10:52	-128.857	46.727	0	345.30	0	5.7550	0	33.9470	0	26.755	0	342.157	0	77.2	4	25.4	4	-1E+10	1	-1E+10	1	-1E+10	1	-1E+10	1	-1E+10	1	-1E+10	1
4901784	3	C	08/04/2015	10:52	-128.857	46.727	0	347.90	0	5.7330	0	33.9440	0	26.755	0	344.731	0	75.7	4	24.9	4	-1E+10	1	-1E+10	1	-1E+10	1	-1E+10	1	-1E+10	1	-1E+10	1
4901784	3	C	08/04/2015	10:52	-128.857	46.727	0	349.70	0	5.7370	0	33.9460	0	26.756	0	346.513	0	74.1	4	24.3	4	-1E+10	1	-1E+10	1	-1E+10	1	-1E+10	1	-1E+10	1	-1E+10	1
4901784	3	C	08/04/2015	10:52	-128.857	46.727	0	352.30	0	5.7810	0	33.9550	0	26.758	0	349.087	0	72.3	4	23.8	4	-1E+10	1	-1E+10	1	-1E+10	1	-1E+10	1	-1E+10	1	-1E+10	1
4901784	3	C	08/04/2015	10:52	-128.857	46.727	0	354.90	0	5.7470	0	33.9590	0	26.765	0	351.661	0	72.4	4	23.8	4	-1E+10	1	-1E+10	1	-1E+10	1	-1E+10	1	-1E+10	1	-1E+10	1
4901784	3	C	08/04/2015	10:52	-128.857	46.727	0	357.60	0	5.7060	0	33.9550	0	26.767	0	354.334	0	71.7	4	23.5	4	-1E+10	1	-1E+10	1	-1E+10	1	-1E+10	1	-1E+10	1	-1E+10	1
4901784	3	C	08/04/2015	10:52	-128.857	46.727	0	360.30	0	5.7040	0	33.9550	0	26.767	0	357.007	0	70.0	4	23.0	4	-1E+10	1	-1E+10	1	-1E+10	1	-1E+10	1	-1E+10	1	-1E+10	1
4901784	3	C	08/04/2015	10:52	-128.857	46.727	0	362.90	0	5.7330	0	33.9650	0	26.772	0	359.581	0	68.6	4	22.5	4	-1E+10	1	-1E+10	1	-1E+10	1	-1E+10	1	-1E+10	1	-1E+10	1
4901784	3	C	08/04/2015	10:52	-128.857	46.727	0	365.50	0	5.7270	0	33.9650	0	26.773	0	362.155	0	68.6	4	22.5	4	-1E+10	1	-1E+10	1	-1E+10	1	-1E+10	1	-1E+10	1	-1E+10	1
4901784	3	C	08/04/2015	10:52	-128.857	46.727	0	367.30	0	5.6800	0	33.9620	0	26.776	0	363.937	0	68.6	4	22.5	4	-1E+10	1	-1E+10	1	-1E+10	1	-1E+10	1	-1E+10	1	-1E+10	1
4901784	3	C	08/04/2015	10:52	-128.857	46.727	0	370.00	0	5.6400	0	33.9610	0	26.780	0	366.610	0	68.1	4	22.3	4	-1E+10	1	-1E+10	1	-1E+10	1	-1E+10	1	-1E+10	1	-1E+10	1
4901784	3	C	08/04/2015	10:52	-128.857	46.727	0	372.60	0	5.5930	0	33.9590	0	26.784	0	369.184	0	66.7	4	21.8	4	-1E+10	1	-1E+10	1	-1E+10	1	-1E+10	1	-1E+10	1	-1E+10	1
4901784	3	C	08/04/2015	10:52	-128.857	46.727	0	374.40	0	5.6530	0	33.9680	0	26.784	0	370.966	0	65.7	4	21.5	4	-1E+10	1	-1E+10	1	-1E+10	1	-1E+10	1	-1E+10	1	-1E+10	1
4901784	3	C	08/04/2015	10:52	-128.857	46.727	0	377.20	0	5.5820	0	33.9680	0	26.793	0	373.738	0	65.5	4	21.4	4	-1E+10	1	-1E+10	1	-1E+10	1	-1E+10	1	-1E+10	1	-1E+10	1
4901784	3	C	08/04/2015	10:52	-128.857	46.727	0	379.90	0	5.5530	0	33.9700	0	26.798	0	376.410	0	64.9	4	21.2	4	-1E+10	1	-1E+10	1	-1E+10	1	-1E+10	1	-1E+10	1	-1E+10	1
4901784	3	C	08/04/2015	10:52	-128.857	46.727	0	382.60	0	5.5440	0	33.9700	0	26.799	0	379.083	0	64.7	4	21.2	4	-1E+10	1	-1E+10	1	-1E+10	1	-1E+10	1	-1E+10	1	-1E+10	1
4901784	3	C	08/04/2015	10:52	-128.857	46.727	0	385.30	0	5.5230	0	33.9680	0	26.800	0	381.756	0	65.0	4	21.2	4	-1E+10	1	-1E+10	1	-1E+10	1	-1E+10	1	-1E+10	1	-1E+10	1
4901784	3	C	08/04/2015	10:52	-128.857	46.727	0	387.20	0	5.4230	0	33.9650	0	26.809	0	383.636	0	65.0	4	21.2	4	-1E+10	1	-1E+10	1	-1E+10	1	-1E+10	1	-1E+10	1	-1E+10	1
4901784	3	C	08/04/2015	10:52	-128.857	46.727	0	389.80	0	5.4510	0	33.9660	0	26.807	0	386.210	0	63.6	4	20.7	4	-1E+10	1	-1E+10	1	-1E+10	1	-1E+10	1	-1E+10	1	-1E+10	1
4901784	3	C	08/04/2015	10:52	-128.857	46.727	0	392.50	0	5.3810	0	33.9650	0	26.814	0	388.883	0	63.1	4	20.6	4	-1E+10	1	-1E+10	1	-1E+10	1	-1E+10	1	-1E+10	1	-1E+10	1
4901784	3	C	08/04/2015	10:52	-128.857	46.727	0	395.20	0	5.3270	0	33.9680	0	26.823	0	391.555	0	61.2	4	19.9	4	-1E+10	1	-1E+10	1	-1E+10	1	-1E+10	1	-1E+10	1	-1E+10	1
4901784	3	C	08/04/2015	10:52	-128.857	46.727	0	397.90	0	5.3650	0	33.9760	0	26.825	0	394.228	0	59.4	4	19.3	4	-1E+10	1	-1E+10	1	-1E+10	1	-1E+10	1	-1E+10	1	-1E+10	1
4901784	3	C	08/04/2015	10:52	-128.857	46.727	0	399.80	0	5.3630	0	33.9770	0	26.826	0	396.108	0	58.6	4	19.1	4	-1E+10	1	-1E+10	1	-1E+10	1	-1E+10	1	-1E+10	1	-1E+10	1
4901784	3	C	08/04/2015	10:52	-128.857	46.727	0	402.60	0	5.3830	0	33.9830	0	26.828	0	398.880	0	56.8	4	18.5	4	-1E+10	1	-1E+10	1	-1E+10	1	-1E+10	1	-1E+10	1	-1E+10	1
4901784	3	C	08/04/2015	10:52	-128.857	46.727	0	405.00	0	5.4180	0	33.9910	0	26.831	0	401.255	0	55.5	4	18.1	4	-1E+10	1	-1E+10	1	-1E+10	1	-1E+10	1	-1E+10	1	-1E+10	1
4901784	3	C	08/04/2015	10:52	-128.857	46.727	0	407.40	0	5.4150	0	33.9930	0	26.833	0	403.631	0	55.2	4	18.0	4	-1E+10	1	-1E+10	1	-1E+10	1	-1E+10	1	-1E+10	1	-1E+10	1
4901784	3	C	08/04/2015	10:52	-128.857	46.727	0	409.80	0	5.3940	0	33.9920	0	26.834	0	406.006	0	54.8	4	17.9	4	-1E+10	1	-1E+10	1	-1E+10	1	-1E+10	1	-1E+10	1	-1E+10	1
4901784	3	C	08/04/2015	10:52	-128.857	46.727	0	412.90	0	5.3950	0	33.9950	0	26.837	0	409.075	0	54.1	4	17.6	4	-1E+10	1	-1E+10	1	-1E+10	1	-1E+10	1	-1E+10	1	-1E+10	1
4901784	3	C	08/04/2015	10:52	-128.857	46.727	0	415.30	0	5.3850	0	33.9950	0	26.838	0	411.450	0	53.9	4	17.6	4	-1E+10	1	-1E+10	1	-1E+10	1	-1E+10	1	-1E+10	1	-1E+10	1
4901784	3	C	08/04/2015	10:52	-128.857	46.727	0	417.60	0	5.3700	0	33.9950	0	26.840	0	413.726	0	53.5	4	17.4	4	-1E+10	1	-1E+10	1	-1E+10	1	-1E+10	1	-1E+10	1	-1E+10	1
4901784	3	C	08/04/2015	10:52	-128.857	46.727	0	420.00	0	5.3560	0	33.9950	0	26.841	0	416.102	0	52.8	4	17.2	4	-1E+10	1	-1E+10	1	-1E+10	1	-1E+10	1	-1E+10	1	-1E+10	1
4901784	3	C	08/04/2015	10:52	-128.857	46.727	0	422.40	0	5.3530	0	34.0000	0	26.846	0	418.477	0	52.1	4	17.0	4	-1E+10	1	-1E+10	1	-1E+10	1	-1E+10	1	-1E+10	1	-1E+10	1
4901784	3	C	08/04/2015	10:52	-128.857	46.727	0	424.90	0	5.3330	0	33.9990	0	26.847	0	420.951	0	51.9	4	16.9	4	-1E+10	1	-1E+10	1	-1E+10	1	-1E+10	1	-1E+10	1	-1E+10	1
4901784	3	C	08/04/2015	10:52	-128.857	46.727	0	427.30	0	5.2730	0	33.9950	0	26.851	0	423.327	0	51.4	4	16.7	4	-1E+10	1	-1E+10	1	-1E+10	1	-1E+10	1	-1E+10	1	-1E+10	1
4901784	3	C	08/04/2015	10:52	-128.857	46.727	0	429.80	0	5.2500	0	34.0000	0	26.858	0	425.801	0	50.7	4	16.5	4	-1E+10	1	-1E+10	1	-1E+10	1	-1E+10	1	-1E+10	1	-1E+10	1
4901784	3	C	08/04/2015	10:52	-128.857	46.727	0	432.20	0	5.2340	0	34.0030	0	26.862	0	428.176	0	50.2	4	16.3	4	-1E+10	1	-1E+10	1	-1E+10	1	-1E+10	1	-1E+10	1	-1E+10	1
4901784	3	C	08/04/2015	10:52	-128.857	46.727	0	434.80	0	5.2030	0	34.0030	0	26.866	0	430.749	0	49.5	4	16.1	4	-1E+10	1	-1E+10	1	-1E+10	1	-1E+10	1	-1E+10	1	-1E+10	1
4901784	3	C	08/04/2015	10:52	-128.857	46.727	0	437.30	0	5.2490	0	34.0130	0	26.868	0	433.223	0	48.7	4	15.8	4	-1E+10	1	-1E+10	1	-1E+10	1	-1E+10	1	-1E+10	1	-1E+10	1
4901784	3	C	08/04/2015	10:52	-128.857	46.727	0	439.80	0	5.2480	0	34.0120	0	26.868	0	435.697	0	49.0	4	15.9	4	-1E+10	1	-1E+10	1	-1E+10	1	-1E+10	1	-1E+10	1	-1E+10	1
4901784	3	C	08/04/2015	10:52	-128.857	46.727	0	442.30	0	5.2110	0	34.0080	0	26.869	0	438.171	0	49.9	4	16.2	4	-1E+10	1	-1E+10	1	-1E+10	1	-1E+10	1	-1E+10	1	-1E+10	1
4901784	3	C	08/04/2015	10:52	-128.857	46.727	0	444.80	0	5.1480	0	34.0030	0	26.872	0	440.645	0	50.7	4	16.4	4	-1E+10	1	-1E+10	1	-1E+10	1	-1E+10	1	-1E+10	1	-1E+10	1
4901784	3	C	08/04/2015	10:52	-128.857	46.727	0	447.40	0	5.0900	0	34.0000	0	26.876	0	443.218	0	51.0	4	16.5	4	-1E+10	1	-1E+10	1	-1E+10	1	-1E+10	1	-1E+10	1	-1E+10	1
4901784	3	C	08/04/2015	10:52	-128.857	46.727	0	449.90	0	5.0620	0	33.9970	0	26.877	0	445.692	0	51.0	4	16.5	4	-1E+10	1	-1E+10	1	-1E+10	1	-1E+10	1	-1E+10	1	-1E+10	1
4901784	3	C	08/04/2015	10:52	-128.857	46.727	0	452.40	0	4.9810	0	33.9980	0	26.887	0	448.166	0	50.7	4	16.4	4	-1E+10	1	-1E+10	1	-1E+10	1	-1E+10	1	-1E+10	1	-1E+10	1
4901784	3	C	08/04/2015	10:52	-128.857	46.727	0	455.00	0	4.9700	0	33.9980	0	26.888	0	450.739	0	49.5	4	16.0	4	-1E+10	1	-1E+10	1	-1E+10	1	-1E+10	1	-1E+10	1	-1E+10	1
4901784	3	C	08/04/2015	10:52	-128.857	46.727	0	457.50	0	4.9960	0	34.0040	0	26.890	0	453.213	0	47.9	4	15.5	4	-1E+10	1	-1E+10	1	-1E+10	1	-1E+10	1	-1E+10	1	-1E+10	1
4901784	3	C	08/04/2015	10:52	-128.857	46.727	0	460.10	0	5.0230	0	34.0090	0	26.891	0	455.786	0	46.3	4	14.9	4	-1E+10	1	-1E+10	1	-1E+10	1	-1E+10	1	-1E+10	1	-1E+10	1
4901784	3	C	08/04/2015	10:52	-128.857	46.727	0	462.60	0	5.0340	0	34.0130	0	26.893	0	458.259	0	45.0	4	14.5	4	-1E+10	1	-1E+10	1	-1E+10	1	-1E+10	1	-1E+10	1	-1E+10	1
4901784	3	C	08/04/2015	10:52	-128.857	46.727	0	465.20	0	5.0060	0	34.0140	0	26.897	0	460.832	0	43.4	4	14.0	4	-1E+10	1	-1E+10	1	-1E+10	1	-1E+10	1	-1E+10	1	-1E+10	1
4901784	3	C	08/04/2015	10:52	-128.857	46.727	0	467.70	0	5.0420	0	34.0280	0	26.904	0	463.306	0	41.6	4	13.5	4	-1E+10	1	-1E+10	1	-1E+10	1	-1E+10	1	-1E+10	1	-1E+10	1
4901784	3	C	08/04/2015	10:52	-128.857	46.727	0	470.20	0	4.9940	0	34.0290	0	26.910	0	465.780	0	40.7	4	13.1	4	-1E+10	1	-1E+10	1	-1E+10	1	-1E+10	1	-1E+10	1	-1E+10	1
4901784	3	C	08/04/2015	10:52	-128.857	46.727	0	472.80	0	5.0110	0	34.0380	0	26.916	0	468.352	0	39.3	4	12.7	4	-1E+10	1	-1E+10	1	-1E+10	1	-1E+10	1	-1E+10	1	-1E+10	1
4901784	3	C	08/04/2015	10:52	-128.857	46.727	0	475.40	0	5.0290	0	34.0430	0	26.918	0	470.925	0	38.4	4	12.4	4	-1E+10	1	-1E+10	1	-1E+10	1	-1E+10	1	-1E+10	1	-1E+10	1
4901784	3	C	08/04/2015	10:52	-128.857	46.727	0	477.10	0	5.0080	0	34.0430	0	26.920	0	472.607	0	38.0	4	12.3	4	-1E+10	1	-1E+10	1	-1E+10	1	-1E+10	1	-1E+10	1	-1E+10	1
4901784	3	C	08/04/2015	10:52	-128.857	46.727	0	479.70	0	5.0210	0	34.0480	0	26.923	0	475.179	0	37.2	4	12.0	4	-1E+10	1	-1E+10	1	-1E+10	1	-1E+10	1	-1E+10	1	-1E+10	1
4901784	3	C	08/04/2015	10:52	-128.857	46.727	0	482.30	0	4.9980	0	34.0500	0	26.927	0	477.752	0	36.7	4	11.9	4	-1E+10	1	-1E+10	1	-1E+10	1	-1E+10	1	-1E+10	1	-1E+10	1
4901784	3	C	08/04/2015	10:52	-128.857	46.727	0	484.80	0	4.9610	0	34.0520	0	26.933	0	480.225	0	36.2	4	11.7	4	-1E+10	1	-1E+10	1	-1E+10	1	-1E+10	1	-1E+10	1	-1E+10	1
4901784	3	C	08/04/2015	10:52	-128.857	46.727	0	487.40	0	4.9480	0	34.0540	0	26.936	0	482.798	0	35.7	4	11.5	4	-1E+10	1	-1E+10	1	-1E+10	1	-1E+10	1	-1E+10	1	-1E+10	1
4901784	3	C	08/04/2015	10:52	-128.857	46.727	0	490.00	0	4.9410	0	34.0570	0	26.939	0	485.370	0	35.2	4	11.4	4	-1E+10	1	-1E+10	1	-1E+10	1	-1E+10	1	-1E+10	1	-1E+10	1
4901784	3	C	08/04/2015	10:52	-128.857	46.727	0	492.60	0	4.9390	0	34.0600	0	26.941	0	487.943	0	34.9	4	11.3	4	-1E+10	1	-1E+10	1	-1E+10	1	-1E+10	1	-1E+10	1	-1E+10	1
4901784	3	C	08/04/2015	10:52	-128.857	46.727	0	495.20	0	4.9390	0	34.0600	0	26.941	0	490.515	0	34.5	4	11.1	4	-1E+10	1	-1E+10	1	-1E+10	1	-1E+10	1	-1E+10	1	-1E+10	1
4901784	3	C	08/04/2015	10:52	-128.857	46.727	0	497.80	0	4.9400	0	34.0610	0	26.942	0	493.087	0	34.1	4	11.0	4	-1E+10	1	-1E+10	1	-1E+10	1	-1E+10	1	-1E+10	1	-1E+10	1
4901784	3	C	08/04/2015	10:52	-128.857	46.727	0	500.30	0	4.9260	0	34.0620	0	26.945	0	495.561	0	33.4	4	10.8	4	-1E+10	1	-1E+10	1	-1E+10	1	-1E+10	1	-1E+10	1	-1E+10	1
4901784	3	C	08/04/2015	10:52	-128.857	46.727	0	504.70	0	4.9170	0	34.0680	0	26.950	0	499.914	0	31.9	4	10.3	4	-1E+10	1	-1E+10	1	-1E+10	1	-1E+10	1	-1E+10	1	-1E+10	1
4901784	3	C	08/04/2015	10:52	-128.857	46.727	0	510.00	0	4.9390	0	34.0770	0	26.955	0	505.157	0	29.9	4	9.6	4	-1E+10	1	-1E+10	1	-1E+10	1	-1E+10	1	-1E+10	1	-1E+10	1
4901784	3	C	08/04/2015	10:52	-128.857	46.727	0	515.20	0	4.9100	0	34.0850	0	26.965	0	510.301	0	28.6	4	9.2	4	-1E+10	1	-1E+10	1	-1E+10	1	-1E+10	1	-1E+10	1	-1E+10	1
4901784	3	C	08/04/2015	10:52	-128.857	46.727	0	520.40	0	4.8960	0	34.0920	0	26.972	0	515.445	0	27.4	4	8.8	4	-1E+10	1	-1E+10	1	-1E+10	1	-1E+10	1	-1E+10	1	-1E+10	1
4901784	3	C	08/04/2015	10:52	-128.857	46.727	0	525.50	0	4.8730	0	34.0990	0	26.980	0	520.490	0	26.9	4	8.7	4	-1E+10	1	-1E+10	1	-1E+10	1	-1E+10	1	-1E+10	1	-1E+10	1
4901784	3	C	08/04/2015	10:52	-128.857	46.727	0	530.70	0	4.8280	0	34.0990	0	26.985	0	525.634	0	26.9	4	8.7	4	-1E+10	1	-1E+10	1	-1E+10	1	-1E+10	1	-1E+10	1	-1E+10	1
4901784	3	C	08/04/2015	10:52	-128.857	46.727	0	535.10	0	4.7750	0	34.0990	0	26.991	0	529.987	0	27.1	4	8.7	4	-1E+10	1	-1E+10	1	-1E+10	1	-1E+10	1	-1E+10	1	-1E+10	1
4901784	3	C	08/04/2015	10:52	-128.857	46.727	0	539.50	0	4.7240	0	34.0990	0	26.997	0	534.339	0	27.2	4	8.7	4	-1E+10	1	-1E+10	1	-1E+10	1	-1E+10	1	-1E+10	1	-1E+10	1
4901784	3	C	08/04/2015	10:52	-128.857	46.727	0	544.80	0	4.6760	0	34.0980	0	27.001	0	539.581	0	26.8	4	8.6	4	-1E+10	1	-1E+10	1	-1E+10	1	-1E+10	1	-1E+10	1	-1E+10	1
4901784	3	C	08/04/2015	10:52	-128.857	46.727	0	550.30	0	4.6600	0	34.1040	0	27.008	0	545.021	0	25.4	4	8.1	4	-1E+10	1	-1E+10	1	-1E+10	1	-1E+10	1	-1E+10	1	-1E+10	1
4901784	3	C	08/04/2015	10:52	-128.857	46.727	0	554.90	0	4.6740	0	34.1090	0	27.010	0	549.571	0	24.4	4	7.8	4	-1E+10	1	-1E+10	1	-1E+10	1	-1E+10	1	-1E+10	1	-1E+10	1
4901784	3	C	08/04/2015	10:52	-128.857	46.727	0	559.50	0	4.6600	0	34.1170	0	27.018	0	554.121	0	23.5	4	7.5	4	-1E+10	1	-1E+10	1	-1E+10	1	-1E+10	1	-1E+10	1	-1E+10	1
4901784	3	C	08/04/2015	10:52	-128.857	46.727	0	565.10	0	4.6600	0	34.1220	0	27.022	0	559.660	0	22.4	4	7.2	4	-1E+10	1	-1E+10	1	-1E+10	1	-1E+10	1	-1E+10	1	-1E+10	1
4901784	3	C	08/04/2015	10:52	-128.857	46.727	0	570.60	0	4.6630	0	34.1320	0	27.030	0	565.099	0	21.7	4	6.9	4	-1E+10	1	-1E+10	1	-1E+10	1	-1E+10	1	-1E+10	1	-1E+10	1
4901784	3	C	08/04/2015	10:52	-128.857	46.727	0	575.20	0	4.6420	0	34.1320	0	27.032	0	569.649	0	21.5	4	6.9	4	-1E+10	1	-1E+10	1	-1E+10	1	-1E+10	1	-1E+10	1	-1E+10	1
4901784	3	C	08/04/2015	10:52	-128.857	46.727	0	579.90	0	4.6220	0	34.1340	0	27.036	0	574.297	0	21.2	4	6.8	4	-1E+10	1	-1E+10	1	-1E+10	1	-1E+10	1	-1E+10	1	-1E+10	1
4901784	3	C	08/04/2015	10:52	-128.857	46.727	0	585.50	0	4.6050	0	34.1360	0	27.040	0	579.835	0	20.7	4	6.6	4	-1E+10	1	-1E+10	1	-1E+10	1	-1E+10	1	-1E+10	1	-1E+10	1
4901784	3	C	08/04/2015	10:52	-128.857	46.727	0	590.10	0	4.5910	0	34.1420	0	27.046	0	584.384	0	20.2	4	6.5	4	-1E+10	1	-1E+10	1	-1E+10	1	-1E+10	1	-1E+10	1	-1E+10	1
4901784	3	C	08/04/2015	10:52	-128.857	46.727	0	594.80	0	4.5780	0	34.1450	0	27.050	0	589.032	0	20.2	4	6.5	4	-1E+10	1	-1E+10	1	-1E+10	1	-1E+10	1	-1E+10	1	-1E+10	1
4901784	3	C	08/04/2015	10:52	-128.857	46.727	0	599.50	0	4.5520	0	34.1470	0	27.054	0	593.679	0	20.6	4	6.6	4	-1E+10	1	-1E+10	1	-1E+10	1	-1E+10	1	-1E+10	1	-1E+10	1
4901784	3	C	08/04/2015	10:52	-128.857	46.727	0	604.20	0	4.5040	0	34.1430	0	27.056	0	598.327	0	21.3	4	6.8	4	-1E+10	1	-1E+10	1	-1E+10	1	-1E+10	1	-1E+10	1	-1E+10	1
4901784	3	C	08/04/2015	10:52	-128.857	46.727	0	609.50	0	4.4290	0	34.1390	0	27.061	0	603.568	0	21.8	4	7.0	4	-1E+10	1	-1E+10	1	-1E+10	1	-1E+10	1	-1E+10	1	-1E+10	1
4901784	3	C	08/04/2015	10:52	-128.857	46.727	0	614.50	0	4.3920	0	34.1390	0	27.065	0	608.512	0	22.1	4	7.0	4	-1E+10	1	-1E+10	1	-1E+10	1	-1E+10	1	-1E+10	1	-1E+10	1
4901784	3	C	08/04/2015	10:52	-128.857	46.727	0	619.40	0	4.3540	0	34.1390	0	27.069	0	613.357	0	22.3	4	7.1	4	-1E+10	1	-1E+10	1	-1E+10	1	-1E+10	1	-1E+10	1	-1E+10	1
4901784	3	C	08/04/2015	10:52	-128.857	46.727	0	624.50	0	4.3110	0	34.1390	0	27.074	0	618.400	0	22.5	4	7.2	4	-1E+10	1	-1E+10	1	-1E+10	1	-1E+10	1	-1E+10	1	-1E+10	1
4901784	3	C	08/04/2015	10:52	-128.857	46.727	0	629.50	0	4.2820	0	34.1390	0	27.077	0	623.343	0	22.2	4	7.1	4	-1E+10	1	-1E+10	1	-1E+10	1	-1E+10	1	-1E+10	1	-1E+10	1
4901784	3	C	08/04/2015	10:52	-128.857	46.727	0	634.60	0	4.2540	0	34.1420	0	27.082	0	628.386	0	21.8	4	6.9	4	-1E+10	1	-1E+10	1	-1E+10	1	-1E+10	1	-1E+10	1	-1E+10	1
4901784	3	C	08/04/2015	10:52	-128.857	46.727	0	639.80	0	4.2470	0	34.1470	0	27.087	0	633.527	0	21.0	4	6.7	4	-1E+10	1	-1E+10	1	-1E+10	1	-1E+10	1	-1E+10	1	-1E+10	1
4901784	3	C	08/04/2015	10:52	-128.857	46.727	0	644.80	0	4.2590	0	34.1540	0	27.091	0	638.470	0	20.3	4	6.5	4	-1E+10	1	-1E+10	1	-1E+10	1	-1E+10	1	-1E+10	1	-1E+10	1
4901784	3	C	08/04/2015	10:52	-128.857	46.727	0	649.90	0	4.2600	0	34.1580	0	27.094	0	643.512	0	20.0	4	6.3	4	-1E+10	1	-1E+10	1	-1E+10	1	-1E+10	1	-1E+10	1	-1E+10	1
4901784	3	C	08/04/2015	10:52	-128.857	46.727	0	655.00	0	4.2620	0	34.1610	0	27.097	0	648.554	0	19.7	4	6.3	4	-1E+10	1	-1E+10	1	-1E+10	1	-1E+10	1	-1E+10	1	-1E+10	1
4901784	3	C	08/04/2015	10:52	-128.857	46.727	0	660.00	0	4.2310	0	34.1620	0	27.101	0	653.497	0	20.0	4	6.3	4	-1E+10	1	-1E+10	1	-1E+10	1	-1E+10	1	-1E+10	1	-1E+10	1
4901784	3	C	08/04/2015	10:52	-128.857	46.727	0	665.20	0	4.1770	0	34.1590	0	27.104	0	658.638	0	20.3	4	6.4	4	-1E+10	1	-1E+10	1	-1E+10	1	-1E+10	1	-1E+10	1	-1E+10	1
4901784	3	C	08/04/2015	10:52	-128.857	46.727	0	670.30	0	4.1520	0	34.1630	0	27.110	0	663.679	0	19.8	4	6.3	4	-1E+10	1	-1E+10	1	-1E+10	1	-1E+10	1	-1E+10	1	-1E+10	1
4901784	3	C	08/04/2015	10:52	-128.857	46.727	0	675.50	0	4.1530	0	34.1670	0	27.113	0	668.819	0	19.7	4	6.2	4	-1E+10	1	-1E+10	1	-1E+10	1	-1E+10	1	-1E+10	1	-1E+10	1
4901784	3	C	08/04/2015	10:52	-128.857	46.727	0	680.70	0	4.1100	0	34.1670	0	27.117	0	673.960	0	19.7	4	6.2	4	-1E+10	1	-1E+10	1	-1E+10	1	-1E+10	1	-1E+10	1	-1E+10	1
4901784	3	C	08/04/2015	10:52	-128.857	46.727	0	685.10	0	4.0830	0	34.1700	0	27.123	0	678.309	0	19.4	4	6.1	4	-1E+10	1	-1E+10	1	-1E+10	1	-1E+10	1	-1E+10	1	-1E+10	1
4901784	3	C	08/04/2015	10:52	-128.857	46.727	0	689.40	0	4.0740	0	34.1730	0	27.126	0	682.559	0	19.0	4	6.0	4	-1E+10	1	-1E+10	1	-1E+10	1	-1E+10	1	-1E+10	1	-1E+10	1
4901784	3	C	08/04/2015	10:52	-128.857	46.727	0	694.70	0	4.0680	0	34.1800	0	27.132	0	687.798	0	18.4	4	5.8	4	-1E+10	1	-1E+10	1	-1E+10	1	-1E+10	1	-1E+10	1	-1E+10	1
4901784	3	C	08/04/2015	10:52	-128.857	46.727	0	699.90	0	4.0590	0	34.1840	0	27.136	0	692.938	0	18.0	4	5.7	4	-1E+10	1	-1E+10	1	-1E+10	1	-1E+10	1	-1E+10	1	-1E+10	1
4901784	3	C	08/04/2015	10:52	-128.857	46.727	0	705.20	0	4.0490	0	34.1880	0	27.141	0	698.176	0	17.6	4	5.6	4	-1E+10	1	-1E+10	1	-1E+10	1	-1E+10	1	-1E+10	1	-1E+10	1
4901784	3	C	08/04/2015	10:52	-128.857	46.727	0	710.50	0	4.0270	0	34.1930	0	27.147	0	703.414	0	17.5	4	5.5	4	-1E+10	1	-1E+10	1	-1E+10	1	-1E+10	1	-1E+10	1	-1E+10	1
4901784	3	C	08/04/2015	10:52	-128.857	46.727	0	715.00	0	4.0110	0	34.1950	0	27.150	0	707.862	0	17.2	4	5.4	4	-1E+10	1	-1E+10	1	-1E+10	1	-1E+10	1	-1E+10	1	-1E+10	1
4901784	3	C	08/04/2015	10:52	-128.857	46.727	0	719.40	0	4.0040	0	34.1970	0	27.152	0	712.210	0	16.8	4	5.3	4	-1E+10	1	-1E+10	1	-1E+10	1	-1E+10	1	-1E+10	1	-1E+10	1
4901784	3	C	08/04/2015	10:52	-128.857	46.727	0	724.60	0	3.9770	0	34.2020	0	27.159	0	717.349	0	16.6	4	5.2	4	-1E+10	1	-1E+10	1	-1E+10	1	-1E+10	1	-1E+10	1	-1E+10	1
4901784	3	C	08/04/2015	10:52	-128.857	46.727	0	730.00	0	3.9590	0	34.2050	0	27.163	0	722.686	0	16.4	4	5.2	4	-1E+10	1	-1E+10	1	-1E+10	1	-1E+10	1	-1E+10	1	-1E+10	1
4901784	3	C	08/04/2015	10:52	-128.857	46.727	0	735.30	0	3.9440	0	34.2090	0	27.168	0	727.924	0	16.3	4	5.1	4	-1E+10	1	-1E+10	1	-1E+10	1	-1E+10	1	-1E+10	1	-1E+10	1
4901784	3	C	08/04/2015	10:52	-128.857	46.727	0	739.80	0	3.9230	0	34.2120	0	27.173	0	732.371	0	16.0	4	5.0	4	-1E+10	1	-1E+10	1	-1E+10	1	-1E+10	1	-1E+10	1	-1E+10	1
4901784	3	C	08/04/2015	10:52	-128.857	46.727	0	744.40	0	3.9230	0	34.2160	0	27.176	0	736.916	0	15.5	4	4.9	4	-1E+10	1	-1E+10	1	-1E+10	1	-1E+10	1	-1E+10	1	-1E+10	1
4901784	3	C	08/04/2015	10:52	-128.857	46.727	0	749.80	0	3.9170	0	34.2210	0	27.181	0	742.252	0	15.2	4	4.8	4	-1E+10	1	-1E+10	1	-1E+10	1	-1E+10	1	-1E+10	1	-1E+10	1
4901784	3	C	08/04/2015	10:52	-128.857	46.727	0	755.40	0	3.9230	0	34.2270	0	27.185	0	747.786	0	14.8	4	4.7	4	-1E+10	1	-1E+10	1	-1E+10	1	-1E+10	1	-1E+10	1	-1E+10	1
4901784	3	C	08/04/2015	10:52	-128.857	46.727	0	760.30	0	3.9260	0	34.2290	0	27.186	0	752.628	0	14.6	4	4.6	4	-1E+10	1	-1E+10	1	-1E+10	1	-1E+10	1	-1E+10	1	-1E+10	1
4901784	3	C	08/04/2015	10:52	-128.857	46.727	0	764.90	0	3.9180	0	34.2320	0	27.189	0	757.173	0	14.6	4	4.6	4	-1E+10	1	-1E+10	1	-1E+10	1	-1E+10	1	-1E+10	1	-1E+10	1
4901784	3	C	08/04/2015	10:52	-128.857	46.727	0	769.80	0	3.8880	0	34.2340	0	27.194	0	762.015	0	14.8	4	4.6	4	-1E+10	1	-1E+10	1	-1E+10	1	-1E+10	1	-1E+10	1	-1E+10	1
4901784	3	C	08/04/2015	10:52	-128.857	46.727	0	774.80	0	3.8470	0	34.2340	0	27.198	0	766.955	0	15.0	4	4.7	4	-1E+10	1	-1E+10	1	-1E+10	1	-1E+10	1	-1E+10	1	-1E+10	1
4901784	3	C	08/04/2015	10:52	-128.857	46.727	0	779.80	0	3.8370	0	34.2370	0	27.202	0	771.895	0	14.8	4	4.6	4	-1E+10	1	-1E+10	1	-1E+10	1	-1E+10	1	-1E+10	1	-1E+10	1
4901784	3	C	08/04/2015	10:52	-128.857	46.727	0	784.80	0	3.8250	0	34.2420	0	27.207	0	776.835	0	14.6	4	4.6	4	-1E+10	1	-1E+10	1	-1E+10	1	-1E+10	1	-1E+10	1	-1E+10	1
4901784	3	C	08/04/2015	10:52	-128.857	46.727	0	789.80	0	3.8140	0	34.2440	0	27.210	0	781.775	0	14.3	4	4.5	4	-1E+10	1	-1E+10	1	-1E+10	1	-1E+10	1	-1E+10	1	-1E+10	1
4901784	3	C	08/04/2015	10:52	-128.857	46.727	0	795.00	0	3.8150	0	34.2520	0	27.216	0	786.912	0	13.8	4	4.3	4	-1E+10	1	-1E+10	1	-1E+10	1	-1E+10	1	-1E+10	1	-1E+10	1
4901784	3	C	08/04/2015	10:52	-128.857	46.727	0	800.20	0	3.8030	0	34.2580	0	27.222	0	792.050	0	13.6	4	4.3	4	-1E+10	1	-1E+10	1	-1E+10	1	-1E+10	1	-1E+10	1	-1E+10	1
4901784	3	C	08/04/2015	10:52	-128.857	46.727	0	805.50	0	3.7920	0	34.2610	0	27.225	0	797.286	0	13.5	4	4.2	4	-1E+10	1	-1E+10	1	-1E+10	1	-1E+10	1	-1E+10	1	-1E+10	1
4901784	3	C	08/04/2015	10:52	-128.857	46.727	0	810.00	0	3.7830	0	34.2640	0	27.229	0	801.731	0	13.4	4	4.2	4	-1E+10	1	-1E+10	1	-1E+10	1	-1E+10	1	-1E+10	1	-1E+10	1
4901784	3	C	08/04/2015	10:52	-128.857	46.727	0	814.40	0	3.7720	0	34.2670	0	27.232	0	806.078	0	13.2	4	4.2	4	-1E+10	1	-1E+10	1	-1E+10	1	-1E+10	1	-1E+10	1	-1E+10	1
4901784	3	C	08/04/2015	10:52	-128.857	46.727	0	819.80	0	3.7550	0	34.2700	0	27.236	0	811.412	0	13.1	4	4.1	4	-1E+10	1	-1E+10	1	-1E+10	1	-1E+10	1	-1E+10	1	-1E+10	1
4901784	3	C	08/04/2015	10:52	-128.857	46.727	0	825.20	0	3.7480	0	34.2720	0	27.239	0	816.746	0	13.0	4	4.1	4	-1E+10	1	-1E+10	1	-1E+10	1	-1E+10	1	-1E+10	1	-1E+10	1
4901784	3	C	08/04/2015	10:52	-128.857	46.727	0	829.80	0	3.7500	0	34.2730	0	27.239	0	821.290	0	12.8	4	4.0	4	-1E+10	1	-1E+10	1	-1E+10	1	-1E+10	1	-1E+10	1	-1E+10	1
4901784	3	C	08/04/2015	10:52	-128.857	46.727	0	834.20	0	3.7400	0	34.2760	0	27.243	0	825.636	0	12.8	4	4.0	4	-1E+10	1	-1E+10	1	-1E+10	1	-1E+10	1	-1E+10	1	-1E+10	1
4901784	3	C	08/04/2015	10:52	-128.857	46.727	0	839.40	0	3.7360	0	34.2780	0	27.245	0	830.772	0	12.6	4	4.0	4	-1E+10	1	-1E+10	1	-1E+10	1	-1E+10	1	-1E+10	1	-1E+10	1
4901784	3	C	08/04/2015	10:52	-128.857	46.727	0	845.00	0	3.7260	0	34.2820	0	27.249	0	836.304	0	12.6	4	4.0	4	-1E+10	1	-1E+10	1	-1E+10	1	-1E+10	1	-1E+10	1	-1E+10	1
4901784	3	C	08/04/2015	10:52	-128.857	46.727	0	850.60	0	3.6990	0	34.2830	0	27.252	0	841.835	0	12.7	4	4.0	4	-1E+10	1	-1E+10	1	-1E+10	1	-1E+10	1	-1E+10	1	-1E+10	1
4901784	3	C	08/04/2015	10:52	-128.857	46.727	0	855.50	0	3.6740	0	34.2840	0	27.256	0	846.674	0	12.6	4	3.9	4	-1E+10	1	-1E+10	1	-1E+10	1	-1E+10	1	-1E+10	1	-1E+10	1
4901784	3	C	08/04/2015	10:52	-128.857	46.727	0	860.40	0	3.6770	0	34.2900	0	27.260	0	851.514	0	12.4	4	3.9	4	-1E+10	1	-1E+10	1	-1E+10	1	-1E+10	1	-1E+10	1	-1E+10	1
4901784	3	C	08/04/2015	10:52	-128.857	46.727	0	865.40	0	3.6700	0	34.2920	0	27.262	0	856.452	0	12.4	4	3.9	4	-1E+10	1	-1E+10	1	-1E+10	1	-1E+10	1	-1E+10	1	-1E+10	1
4901784	3	C	08/04/2015	10:52	-128.857	46.727	0	870.40	0	3.6320	0	34.2940	0	27.268	0	861.390	0	12.5	4	3.9	4	-1E+10	1	-1E+10	1	-1E+10	1	-1E+10	1	-1E+10	1	-1E+10	1
4901784	3	C	08/04/2015	10:52	-128.857	46.727	0	875.50	0	3.6340	0	34.2970	0	27.270	0	866.427	0	12.2	4	3.8	4	-1E+10	1	-1E+10	1	-1E+10	1	-1E+10	1	-1E+10	1	-1E+10	1
4901784	3	C	08/04/2015	10:52	-128.857	46.727	0	880.60	0	3.6330	0	34.3010	0	27.273	0	871.463	0	12.2	4	3.8	4	-1E+10	1	-1E+10	1	-1E+10	1	-1E+10	1	-1E+10	1	-1E+10	1
4901784	3	C	08/04/2015	10:52	-128.857	46.727	0	885.60	0	3.6220	0	34.3020	0	27.275	0	876.401	0	12.2	4	3.8	4	-1E+10	1	-1E+10	1	-1E+10	1	-1E+10	1	-1E+10	1	-1E+10	1
4901784	3	C	08/04/2015	10:52	-128.857	46.727	0	890.70	0	3.6070	0	34.3030	0	27.278	0	881.437	0	12.2	4	3.8	4	-1E+10	1	-1E+10	1	-1E+10	1	-1E+10	1	-1E+10	1	-1E+10	1
4901784	3	C	08/04/2015	10:52	-128.857	46.727	0	895.80	0	3.5940	0	34.3060	0	27.281	0	886.473	0	12.2	4	3.8	4	-1E+10	1	-1E+10	1	-1E+10	1	-1E+10	1	-1E+10	1	-1E+10	1
4901784	3	C	08/04/2015	10:52	-128.857	46.727	0	900.10	0	3.5790	0	34.3070	0	27.284	0	890.719	0	12.2	4	3.8	4	-1E+10	1	-1E+10	1	-1E+10	1	-1E+10	1	-1E+10	1	-1E+10	1
4901784	3	C	08/04/2015	10:52	-128.857	46.727	0	904.30	0	3.5660	0	34.3100	0	27.287	0	894.867	0	12.2	4	3.8	4	-1E+10	1	-1E+10	1	-1E+10	1	-1E+10	1	-1E+10	1	-1E+10	1
4901784	3	C	08/04/2015	10:52	-128.857	46.727	0	909.60	0	3.5530	0	34.3110	0	27.289	0	900.100	0	12.2	4	3.8	4	-1E+10	1	-1E+10	1	-1E+10	1	-1E+10	1	-1E+10	1	-1E+10	1
4901784	3	C	08/04/2015	10:52	-128.857	46.727	0	914.90	0	3.5420	0	34.3140	0	27.293	0	905.333	0	12.2	4	3.8	4	-1E+10	1	-1E+10	1	-1E+10	1	-1E+10	1	-1E+10	1	-1E+10	1
4901784	3	C	08/04/2015	10:52	-128.857	46.727	0	920.20	0	3.5360	0	34.3170	0	27.296	0	910.566	0	12.1	4	3.8	4	-1E+10	1	-1E+10	1	-1E+10	1	-1E+10	1	-1E+10	1	-1E+10	1
4901784	3	C	08/04/2015	10:52	-128.857	46.727	0	925.50	0	3.5270	0	34.3190	0	27.298	0	915.799	0	12.1	4	3.8	4	-1E+10	1	-1E+10	1	-1E+10	1	-1E+10	1	-1E+10	1	-1E+10	1
4901784	3	C	08/04/2015	10:52	-128.857	46.727	0	929.90	0	3.5180	0	34.3230	0	27.302	0	920.143	0	12.0	4	3.8	4	-1E+10	1	-1E+10	1	-1E+10	1	-1E+10	1	-1E+10	1	-1E+10	1
4901784	3	C	08/04/2015	10:52	-128.857	46.727	0	934.40	0	3.5030	0	34.3250	0	27.305	0	924.586	0	12.0	4	3.7	4	-1E+10	1	-1E+10	1	-1E+10	1	-1E+10	1	-1E+10	1	-1E+10	1
4901784	3	C	08/04/2015	10:52	-128.857	46.727	0	939.80	0	3.4890	0	34.3280	0	27.309	0	929.917	0	11.9	4	3.7	4	-1E+10	1	-1E+10	1	-1E+10	1	-1E+10	1	-1E+10	1	-1E+10	1
4901784	3	C	08/04/2015	10:52	-128.857	46.727	0	945.20	0	3.4740	0	34.3310	0	27.313	0	935.249	0	11.9	4	3.7	4	-1E+10	1	-1E+10	1	-1E+10	1	-1E+10	1	-1E+10	1	-1E+10	1
4901784	3	C	08/04/2015	10:52	-128.857	46.727	0	950.70	0	3.4570	0	34.3330	0	27.316	0	940.678	0	11.9	4	3.7	4	-1E+10	1	-1E+10	1	-1E+10	1	-1E+10	1	-1E+10	1	-1E+10	1
4901784	3	C	08/04/2015	10:52	-128.857	46.727	0	955.20	0	3.4500	0	34.3380	0	27.321	0	945.121	0	11.8	4	3.7	4	-1E+10	1	-1E+10	1	-1E+10	1	-1E+10	1	-1E+10	1	-1E+10	1
4901784	3	C	08/04/2015	10:52	-128.857	46.727	0	959.80	0	3.4450	0	34.3400	0	27.323	0	949.662	0	11.8	4	3.7	4	-1E+10	1	-1E+10	1	-1E+10	1	-1E+10	1	-1E+10	1	-1E+10	1
4901784	3	C	08/04/2015	10:52	-128.857	46.727	0	965.40	0	3.4390	0	34.3420	0	27.325	0	955.190	0	11.8	4	3.7	4	-1E+10	1	-1E+10	1	-1E+10	1	-1E+10	1	-1E+10	1	-1E+10	1
4901784	3	C	08/04/2015	10:52	-128.857	46.727	0	970.00	0	3.4350	0	34.3440	0	27.327	0	959.731	0	11.8	4	3.7	4	-1E+10	1	-1E+10	1	-1E+10	1	-1E+10	1	-1E+10	1	-1E+10	1
4901784	3	C	08/04/2015	10:52	-128.857	46.727	0	974.60	0	3.4250	0	34.3450	0	27.329	0	964.271	0	11.8	4	3.7	4	-1E+10	1	-1E+10	1	-1E+10	1	-1E+10	1	-1E+10	1	-1E+10	1
4901784	3	C	08/04/2015	10:52	-128.857	46.727	0	980.10	0	3.4150	0	34.3480	0	27.332	0	969.700	0	11.8	4	3.7	4	-1E+10	1	-1E+10	1	-1E+10	1	-1E+10	1	-1E+10	1	-1E+10	1
4901784	3	C	08/04/2015	10:52	-128.857	46.727	0	985.50	0	3.4040	0	34.3510	0	27.336	0	975.031	0	11.8	4	3.7	4	-1E+10	1	-1E+10	1	-1E+10	1	-1E+10	1	-1E+10	1	-1E+10	1
4901784	3	C	08/04/2015	10:52	-128.857	46.727	0	990.30	0	3.3940	0	34.3530	0	27.339	0	979.768	0	11.8	4	3.7	4	-1E+10	1	-1E+10	1	-1E+10	1	-1E+10	1	-1E+10	1	-1E+10	1
4901784	3	C	08/04/2015	10:52	-128.857	46.727	0	995.10	0	3.3810	0	34.3530	0	27.340	0	984.506	0	11.9	4	3.7	4	-1E+10	1	-1E+10	1	-1E+10	1	-1E+10	1	-1E+10	1	-1E+10	1
4901784	3	C	08/04/2015	10:52	-128.857	46.727	0	1000.00	0	3.3610	0	34.3520	0	27.341	0	989.342	0	11.9	4	3.7	4	-1E+10	1	-1E+10	1	-1E+10	1	-1E+10	1	-1E+10	1	-1E+10	1
4901784	3	C	08/04/2015	10:52	-128.857	46.727	0	1004.90	0	3.3610	0	34.3530	0	27.342	0	994.178	0	12.0	4	3.7	4	-1E+10	1	-1E+10	1	-1E+10	1	-1E+10	1	-1E+10	1	-1E+10	1
4901784	3	C	08/04/2015	10:52	-128.857	46.727	0	1009.80	0	3.3340	0	34.3520	0	27.344	0	999.014	0	12.1	4	3.8	4	-1E+10	1	-1E+10	1	-1E+10	1	-1E+10	1	-1E+10	1	-1E+10	1
4901784	3	C	08/04/2015	10:52	-128.857	46.727	0	1014.80	0	3.3000	0	34.3510	0	27.346	0	1003.949	0	12.1	4	3.8	4	-1E+10	1	-1E+10	1	-1E+10	1	-1E+10	1	-1E+10	1	-1E+10	1
4901784	3	C	08/04/2015	10:52	-128.857	46.727	0	1019.70	0	3.2670	0	34.3520	0	27.350	0	1008.785	0	12.2	4	3.8	4	-1E+10	1	-1E+10	1	-1E+10	1	-1E+10	1	-1E+10	1	-1E+10	1
4901784	3	C	08/04/2015	10:52	-128.857	46.727	0	1024.60	0	3.2640	0	34.3570	0	27.354	0	1013.621	0	12.2	4	3.8	4	-1E+10	1	-1E+10	1	-1E+10	1	-1E+10	1	-1E+10	1	-1E+10	1
4901784	3	C	08/04/2015	10:52	-128.857	46.727	0	1029.60	0	3.2540	0	34.3580	0	27.356	0	1018.555	0	12.2	4	3.8	4	-1E+10	1	-1E+10	1	-1E+10	1	-1E+10	1	-1E+10	1	-1E+10	1
4901784	3	C	08/04/2015	10:52	-128.857	46.727	0	1034.50	0	3.2450	0	34.3590	0	27.358	0	1023.390	0	12.2	4	3.8	4	-1E+10	1	-1E+10	1	-1E+10	1	-1E+10	1	-1E+10	1	-1E+10	1
4901784	3	C	08/04/2015	10:52	-128.857	46.727	0	1039.60	0	3.2410	0	34.3610	0	27.360	0	1028.423	0	12.2	4	3.8	4	-1E+10	1	-1E+10	1	-1E+10	1	-1E+10	1	-1E+10	1	-1E+10	1
4901784	3	C	08/04/2015	10:52	-128.857	46.727	0	1044.60	0	3.2350	0	34.3630	0	27.362	0	1033.357	0	12.2	4	3.8	4	-1E+10	1	-1E+10	1	-1E+10	1	-1E+10	1	-1E+10	1	-1E+10	1
4901784	3	C	08/04/2015	10:52	-128.857	46.727	0	1049.60	0	3.2160	0	34.3630	0	27.364	0	1038.291	0	12.3	4	3.8	4	-1E+10	1	-1E+10	1	-1E+10	1	-1E+10	1	-1E+10	1	-1E+10	1
4901784	3	C	08/04/2015	10:52	-128.857	46.727	0	1054.50	0	3.2060	0	34.3660	0	27.367	0	1043.126	0	12.3	4	3.8	4	-1E+10	1	-1E+10	1	-1E+10	1	-1E+10	1	-1E+10	1	-1E+10	1
4901784	3	C	08/04/2015	10:52	-128.857	46.727	0	1059.50	0	3.2020	0	34.3670	0	27.368	0	1048.059	0	12.3	4	3.8	4	-1E+10	1	-1E+10	1	-1E+10	1	-1E+10	1	-1E+10	1	-1E+10	1
4901784	3	C	08/04/2015	10:52	-128.857	46.727	0	1064.60	0	3.1850	0	34.3700	0	27.372	0	1053.092	0	12.3	4	3.8	4	-1E+10	1	-1E+10	1	-1E+10	1	-1E+10	1	-1E+10	1	-1E+10	1
4901784	3	C	08/04/2015	10:52	-128.857	46.727	0	1069.70	0	3.1690	0	34.3710	0	27.374	0	1058.124	0	12.4	4	3.8	4	-1E+10	1	-1E+10	1	-1E+10	1	-1E+10	1	-1E+10	1	-1E+10	1
4901784	3	C	08/04/2015	10:52	-128.857	46.727	0	1074.70	0	3.1580	0	34.3720	0	27.376	0	1063.057	0	12.4	4	3.8	4	-1E+10	1	-1E+10	1	-1E+10	1	-1E+10	1	-1E+10	1	-1E+10	1
4901784	3	C	08/04/2015	10:52	-128.857	46.727	0	1079.80	0	3.1480	0	34.3740	0	27.379	0	1068.089	0	12.4	4	3.8	4	-1E+10	1	-1E+10	1	-1E+10	1	-1E+10	1	-1E+10	1	-1E+10	1
4901784	3	C	08/04/2015	10:52	-128.857	46.727	0	1084.90	0	3.1460	0	34.3770	0	27.381	0	1073.120	0	12.4	4	3.8	4	-1E+10	1	-1E+10	1	-1E+10	1	-1E+10	1	-1E+10	1	-1E+10	1
4901784	3	C	08/04/2015	10:52	-128.857	46.727	0	1090.00	0	3.1420	0	34.3800	0	27.384	0	1078.152	0	12.4	4	3.9	4	-1E+10	1	-1E+10	1	-1E+10	1	-1E+10	1	-1E+10	1	-1E+10	1
4901784	3	C	08/04/2015	10:52	-128.857	46.727	0	1095.20	0	3.1360	0	34.3820	0	27.386	0	1083.282	0	12.5	4	3.9	4	-1E+10	1	-1E+10	1	-1E+10	1	-1E+10	1	-1E+10	1	-1E+10	1
4901784	3	C	08/04/2015	10:52	-128.857	46.727	0	1100.30	0	3.1280	0	34.3830	0	27.388	0	1088.313	0	12.5	4	3.9	4	-1E+10	1	-1E+10	1	-1E+10	1	-1E+10	1	-1E+10	1	-1E+10	1
4901784	3	C	08/04/2015	10:52	-128.857	46.727	0	1105.60	0	3.1210	0	34.3860	0	27.391	0	1093.542	0	12.5	4	3.9	4	-1E+10	1	-1E+10	1	-1E+10	1	-1E+10	1	-1E+10	1	-1E+10	1
4901784	3	C	08/04/2015	10:52	-128.857	46.727	0	1110.10	0	3.1120	0	34.3880	0	27.393	0	1097.981	0	12.6	4	3.9	4	-1E+10	1	-1E+10	1	-1E+10	1	-1E+10	1	-1E+10	1	-1E+10	1
4901784	3	C	08/04/2015	10:52	-128.857	46.727	0	1114.60	0	3.1050	0	34.3900	0	27.396	0	1102.420	0	12.6	4	3.9	4	-1E+10	1	-1E+10	1	-1E+10	1	-1E+10	1	-1E+10	1	-1E+10	1
4901784	3	C	08/04/2015	10:52	-128.857	46.727	0	1120.20	0	3.0900	0	34.3920	0	27.399	0	1107.944	0	12.7	4	3.9	4	-1E+10	1	-1E+10	1	-1E+10	1	-1E+10	1	-1E+10	1	-1E+10	1
4901784	3	C	08/04/2015	10:52	-128.857	46.727	0	1125.00	0	3.0710	0	34.3950	0	27.403	0	1112.679	0	12.8	4	3.9	4	-1E+10	1	-1E+10	1	-1E+10	1	-1E+10	1	-1E+10	1	-1E+10	1
4901784	3	C	08/04/2015	10:52	-128.857	46.727	0	1129.70	0	3.0600	0	34.3970	0	27.405	0	1117.315	0	12.8	4	4.0	4	-1E+10	1	-1E+10	1	-1E+10	1	-1E+10	1	-1E+10	1	-1E+10	1
4901784	3	C	08/04/2015	10:52	-128.857	46.727	0	1135.50	0	3.0510	0	34.4000	0	27.409	0	1123.036	0	12.9	4	4.0	4	-1E+10	1	-1E+10	1	-1E+10	1	-1E+10	1	-1E+10	1	-1E+10	1
4901784	3	C	08/04/2015	10:52	-128.857	46.727	0	1140.20	0	3.0460	0	34.4020	0	27.411	0	1127.671	0	13.0	4	4.0	4	-1E+10	1	-1E+10	1	-1E+10	1	-1E+10	1	-1E+10	1	-1E+10	1
4901784	3	C	08/04/2015	10:52	-128.857	46.727	0	1145.10	0	3.0350	0	34.4030	0	27.413	0	1132.504	0	13.0	4	4.0	4	-1E+10	1	-1E+10	1	-1E+10	1	-1E+10	1	-1E+10	1	-1E+10	1
4901784	3	C	08/04/2015	10:52	-128.857	46.727	0	1149.90	0	3.0300	0	34.4050	0	27.415	0	1137.239	0	13.1	4	4.1	4	-1E+10	1	-1E+10	1	-1E+10	1	-1E+10	1	-1E+10	1	-1E+10	1
4901784	3	C	08/04/2015	10:52	-128.857	46.727	0	1154.80	0	3.0220	0	34.4090	0	27.419	0	1142.071	0	13.2	4	4.1	4	-1E+10	1	-1E+10	1	-1E+10	1	-1E+10	1	-1E+10	1	-1E+10	1
4901784	3	C	08/04/2015	10:52	-128.857	46.727	0	1160.50	0	3.0180	0	34.4120	0	27.421	0	1147.693	0	13.3	4	4.1	4	-1E+10	1	-1E+10	1	-1E+10	1	-1E+10	1	-1E+10	1	-1E+10	1
4901784	3	C	08/04/2015	10:52	-128.857	46.727	0	1165.30	0	3.0060	0	34.4130	0	27.423	0	1152.427	0	13.4	4	4.1	4	-1E+10	1	-1E+10	1	-1E+10	1	-1E+10	1	-1E+10	1	-1E+10	1
4901784	3	C	08/04/2015	10:52	-128.857	46.727	0	1170.20	0	2.9950	0	34.4140	0	27.425	0	1157.259	0	13.4	4	4.2	4	-1E+10	1	-1E+10	1	-1E+10	1	-1E+10	1	-1E+10	1	-1E+10	1
4901784	3	C	08/04/2015	10:52	-128.857	46.727	0	1175.00	0	2.9880	0	34.4150	0	27.427	0	1161.993	0	13.5	4	4.2	4	-1E+10	1	-1E+10	1	-1E+10	1	-1E+10	1	-1E+10	1	-1E+10	1
4901784	3	C	08/04/2015	10:52	-128.857	46.727	0	1179.90	0	2.9790	0	34.4170	0	27.429	0	1166.825	0	13.6	4	4.2	4	-1E+10	1	-1E+10	1	-1E+10	1	-1E+10	1	-1E+10	1	-1E+10	1
4901784	3	C	08/04/2015	10:52	-128.857	46.727	0	1184.80	0	2.9660	0	34.4190	0	27.432	0	1171.657	0	13.7	4	4.2	4	-1E+10	1	-1E+10	1	-1E+10	1	-1E+10	1	-1E+10	1	-1E+10	1
4901784	3	C	08/04/2015	10:52	-128.857	46.727	0	1189.70	0	2.9580	0	34.4210	0	27.434	0	1176.489	0	13.9	4	4.3	4	-1E+10	1	-1E+10	1	-1E+10	1	-1E+10	1	-1E+10	1	-1E+10	1
4901784	3	C	08/04/2015	10:52	-128.857	46.727	0	1194.60	0	2.9510	0	34.4230	0	27.436	0	1181.321	0	14.0	4	4.3	4	-1E+10	1	-1E+10	1	-1E+10	1	-1E+10	1	-1E+10	1	-1E+10	1
4901784	3	C	08/04/2015	10:52	-128.857	46.727	0	1199.50	0	2.9460	0	34.4240	0	27.438	0	1186.153	0	14.1	4	4.4	4	-1E+10	1	-1E+10	1	-1E+10	1	-1E+10	1	-1E+10	1	-1E+10	1
4901784	3	C	08/04/2015	10:52	-128.857	46.727	0	1205.50	0	2.9440	0	34.4290	0	27.442	0	1192.069	0	14.4	4	4.4	4	-1E+10	1	-1E+10	1	-1E+10	1	-1E+10	1	-1E+10	1	-1E+10	1
4901784	3	C	08/04/2015	10:52	-128.857	46.727	0	1210.40	0	2.9410	0	34.4320	0	27.445	0	1196.900	0	14.6	4	4.5	4	-1E+10	1	-1E+10	1	-1E+10	1	-1E+10	1	-1E+10	1	-1E+10	1
4901784	3	C	08/04/2015	10:52	-128.857	46.727	0	1215.50	0	2.9400	0	34.4340	0	27.446	0	1201.929	0	14.9	4	4.6	4	-1E+10	1	-1E+10	1	-1E+10	1	-1E+10	1	-1E+10	1	-1E+10	1
4901784	3	C	08/04/2015	10:52	-128.857	46.727	0	1220.50	0	2.9260	0	34.4370	0	27.450	0	1206.859	0	15.0	4	4.6	4	-1E+10	1	-1E+10	1	-1E+10	1	-1E+10	1	-1E+10	1	-1E+10	1
4901784	3	C	08/04/2015	10:52	-128.857	46.727	0	1224.50	0	2.9180	0	34.4390	0	27.452	0	1210.802	0	15.2	4	4.7	4	-1E+10	1	-1E+10	1	-1E+10	1	-1E+10	1	-1E+10	1	-1E+10	1
4901784	3	C	08/04/2015	10:52	-128.857	46.727	0	1229.60	0	2.9040	0	34.4400	0	27.454	0	1215.831	0	15.3	4	4.7	4	-1E+10	1	-1E+10	1	-1E+10	1	-1E+10	1	-1E+10	1	-1E+10	1
4901784	3	C	08/04/2015	10:52	-128.857	46.727	0	1234.70	0	2.8890	0	34.4410	0	27.457	0	1220.859	0	15.3	4	4.7	4	-1E+10	1	-1E+10	1	-1E+10	1	-1E+10	1	-1E+10	1	-1E+10	1
4901784	3	C	08/04/2015	10:52	-128.857	46.727	0	1239.80	0	2.8780	0	34.4420	0	27.458	0	1225.887	0	15.3	4	4.7	4	-1E+10	1	-1E+10	1	-1E+10	1	-1E+10	1	-1E+10	1	-1E+10	1
4901784	3	C	08/04/2015	10:52	-128.857	46.727	0	1245.00	0	2.8600	0	34.4410	0	27.459	0	1231.013	0	15.4	4	4.7	4	-1E+10	1	-1E+10	1	-1E+10	1	-1E+10	1	-1E+10	1	-1E+10	1
4901784	3	C	08/04/2015	10:52	-128.857	46.727	0	1250.00	0	2.8590	0	34.4430	0	27.461	0	1235.942	0	15.5	4	4.8	4	-1E+10	1	-1E+10	1	-1E+10	1	-1E+10	1	-1E+10	1	-1E+10	1
4901784	3	C	08/04/2015	10:52	-128.857	46.727	0	1254.80	0	2.8540	0	34.4450	0	27.463	0	1240.674	0	15.7	4	4.8	4	-1E+10	1	-1E+10	1	-1E+10	1	-1E+10	1	-1E+10	1	-1E+10	1
4901784	3	C	08/04/2015	10:52	-128.857	46.727	0	1260.00	0	2.8490	0	34.4460	0	27.464	0	1245.800	0	15.8	4	4.9	4	-1E+10	1	-1E+10	1	-1E+10	1	-1E+10	1	-1E+10	1	-1E+10	1
4901784	3	C	08/04/2015	10:52	-128.857	46.727	0	1265.20	0	2.8380	0	34.4480	0	27.467	0	1250.926	0	16.0	4	4.9	4	-1E+10	1	-1E+10	1	-1E+10	1	-1E+10	1	-1E+10	1	-1E+10	1
4901784	3	C	08/04/2015	10:52	-128.857	46.727	0	1270.10	0	2.8300	0	34.4500	0	27.469	0	1255.756	0	16.2	4	5.0	4	-1E+10	1	-1E+10	1	-1E+10	1	-1E+10	1	-1E+10	1	-1E+10	1
4901784	3	C	08/04/2015	10:52	-128.857	46.727	0	1275.10	0	2.8240	0	34.4500	0	27.470	0	1260.685	0	16.3	4	5.0	4	-1E+10	1	-1E+10	1	-1E+10	1	-1E+10	1	-1E+10	1	-1E+10	1
4901784	3	C	08/04/2015	10:52	-128.857	46.727	0	1280.00	0	2.8130	0	34.4520	0	27.472	0	1265.515	0	16.4	4	5.0	4	-1E+10	1	-1E+10	1	-1E+10	1	-1E+10	1	-1E+10	1	-1E+10	1
4901784	3	C	08/04/2015	10:52	-128.857	46.727	0	1285.00	0	2.7970	0	34.4530	0	27.475	0	1270.443	0	16.5	4	5.1	4	-1E+10	1	-1E+10	1	-1E+10	1	-1E+10	1	-1E+10	1	-1E+10	1
4901784	3	C	08/04/2015	10:52	-128.857	46.727	0	1290.00	0	2.7870	0	34.4540	0	27.476	0	1275.371	0	16.6	4	5.1	4	-1E+10	1	-1E+10	1	-1E+10	1	-1E+10	1	-1E+10	1	-1E+10	1
4901784	3	C	08/04/2015	10:52	-128.857	46.727	0	1295.10	0	2.7800	0	34.4550	0	27.478	0	1280.398	0	16.7	4	5.1	4	-1E+10	1	-1E+10	1	-1E+10	1	-1E+10	1	-1E+10	1	-1E+10	1
4901784	3	C	08/04/2015	10:52	-128.857	46.727	0	1300.10	0	2.7730	0	34.4550	0	27.478	0	1285.326	0	16.8	4	5.2	4	-1E+10	1	-1E+10	1	-1E+10	1	-1E+10	1	-1E+10	1	-1E+10	1
4901784	3	C	08/04/2015	10:52	-128.857	46.727	0	1305.10	0	2.7600	0	34.4570	0	27.481	0	1290.254	0	16.9	4	5.2	4	-1E+10	1	-1E+10	1	-1E+10	1	-1E+10	1	-1E+10	1	-1E+10	1
4901784	3	C	08/04/2015	10:52	-128.857	46.727	0	1310.20	0	2.7540	0	34.4580	0	27.482	0	1295.280	0	17.1	4	5.2	4	-1E+10	1	-1E+10	1	-1E+10	1	-1E+10	1	-1E+10	1	-1E+10	1
4901784	3	C	08/04/2015	10:52	-128.857	46.727	0	1315.30	0	2.7520	0	34.4590	0	27.483	0	1300.306	0	17.2	4	5.3	4	-1E+10	1	-1E+10	1	-1E+10	1	-1E+10	1	-1E+10	1	-1E+10	1
4901784	3	C	08/04/2015	10:52	-128.857	46.727	0	1320.50	0	2.7430	0	34.4600	0	27.485	0	1305.431	0	17.4	4	5.3	4	-1E+10	1	-1E+10	1	-1E+10	1	-1E+10	1	-1E+10	1	-1E+10	1
4901784	3	C	08/04/2015	10:52	-128.857	46.727	0	1325.70	0	2.7350	0	34.4620	0	27.487	0	1310.556	0	17.7	4	5.4	4	-1E+10	1	-1E+10	1	-1E+10	1	-1E+10	1	-1E+10	1	-1E+10	1
4901784	3	C	08/04/2015	10:52	-128.857	46.727	0	1330.00	0	2.7320	0	34.4640	0	27.489	0	1314.793	0	17.9	4	5.5	4	-1E+10	1	-1E+10	1	-1E+10	1	-1E+10	1	-1E+10	1	-1E+10	1
4901784	3	C	08/04/2015	10:52	-128.857	46.727	0	1334.30	0	2.7320	0	34.4650	0	27.490	0	1319.030	0	18.1	4	5.6	4	-1E+10	1	-1E+10	1	-1E+10	1	-1E+10	1	-1E+10	1	-1E+10	1
4901784	3	C	08/04/2015	10:52	-128.857	46.727	0	1339.40	0	2.7250	0	34.4670	0	27.492	0	1324.056	0	18.4	4	5.6	4	-1E+10	1	-1E+10	1	-1E+10	1	-1E+10	1	-1E+10	1	-1E+10	1
4901784	3	C	08/04/2015	10:52	-128.857	46.727	0	1344.70	0	2.7160	0	34.4690	0	27.495	0	1329.279	0	18.6	4	5.7	4	-1E+10	1	-1E+10	1	-1E+10	1	-1E+10	1	-1E+10	1	-1E+10	1
4901784	3	C	08/04/2015	10:52	-128.857	46.727	0	1350.00	0	2.7060	0	34.4700	0	27.496	0	1334.501	0	18.7	4	5.7	4	-1E+10	1	-1E+10	1	-1E+10	1	-1E+10	1	-1E+10	1	-1E+10	1
4901784	3	C	08/04/2015	10:52	-128.857	46.727	0	1355.30	0	2.6950	0	34.4710	0	27.498	0	1339.723	0	18.8	4	5.8	4	-1E+10	1	-1E+10	1	-1E+10	1	-1E+10	1	-1E+10	1	-1E+10	1
4901784	3	C	08/04/2015	10:52	-128.857	46.727	0	1360.70	0	2.6800	0	34.4710	0	27.499	0	1345.044	0	18.9	4	5.8	4	-1E+10	1	-1E+10	1	-1E+10	1	-1E+10	1	-1E+10	1	-1E+10	1
4901784	3	C	08/04/2015	10:52	-128.857	46.727	0	1365.10	0	2.6770	0	34.4720	0	27.501	0	1349.379	0	19.1	4	5.9	4	-1E+10	1	-1E+10	1	-1E+10	1	-1E+10	1	-1E+10	1	-1E+10	1
4901784	3	C	08/04/2015	10:52	-128.857	46.727	0	1369.60	0	2.6640	0	34.4730	0	27.502	0	1353.813	0	19.3	4	5.9	4	-1E+10	1	-1E+10	1	-1E+10	1	-1E+10	1	-1E+10	1	-1E+10	1
4901784	3	C	08/04/2015	10:52	-128.857	46.727	0	1374.90	0	2.6460	0	34.4750	0	27.506	0	1359.035	0	19.5	4	6.0	4	-1E+10	1	-1E+10	1	-1E+10	1	-1E+10	1	-1E+10	1	-1E+10	1
4901784	3	C	08/04/2015	10:52	-128.857	46.727	0	1380.30	0	2.6310	0	34.4760	0	27.508	0	1364.355	0	19.8	4	6.1	4	-1E+10	1	-1E+10	1	-1E+10	1	-1E+10	1	-1E+10	1	-1E+10	1
4901784	3	C	08/04/2015	10:52	-128.857	46.727	0	1384.80	0	2.6220	0	34.4780	0	27.510	0	1368.789	0	20.0	4	6.1	4	-1E+10	1	-1E+10	1	-1E+10	1	-1E+10	1	-1E+10	1	-1E+10	1
4901784	3	C	08/04/2015	10:52	-128.857	46.727	0	1389.30	0	2.6180	0	34.4790	0	27.511	0	1373.222	0	20.2	4	6.2	4	-1E+10	1	-1E+10	1	-1E+10	1	-1E+10	1	-1E+10	1	-1E+10	1
4901784	3	C	08/04/2015	10:52	-128.857	46.727	0	1394.80	0	2.6060	0	34.4810	0	27.514	0	1378.640	0	20.5	4	6.3	4	-1E+10	1	-1E+10	1	-1E+10	1	-1E+10	1	-1E+10	1	-1E+10	1
4901784	3	C	08/04/2015	10:52	-128.857	46.727	0	1400.20	0	2.5990	0	34.4820	0	27.515	0	1383.960	0	20.8	4	6.4	4	-1E+10	1	-1E+10	1	-1E+10	1	-1E+10	1	-1E+10	1	-1E+10	1
4901784	3	C	08/04/2015	10:52	-128.857	46.727	0	1404.80	0	2.5940	0	34.4830	0	27.517	0	1388.492	0	21.0	4	6.4	4	-1E+10	1	-1E+10	1	-1E+10	1	-1E+10	1	-1E+10	1	-1E+10	1
4901784	3	C	08/04/2015	10:52	-128.857	46.727	0	1409.20	0	2.5870	0	34.4850	0	27.519	0	1392.826	0	21.2	4	6.5	4	-1E+10	1	-1E+10	1	-1E+10	1	-1E+10	1	-1E+10	1	-1E+10	1
4901784	3	C	08/04/2015	10:52	-128.857	46.727	0	1414.60	0	2.5800	0	34.4850	0	27.519	0	1398.145	0	21.5	4	6.6	4	-1E+10	1	-1E+10	1	-1E+10	1	-1E+10	1	-1E+10	1	-1E+10	1
4901784	3	C	08/04/2015	10:52	-128.857	46.727	0	1419.50	0	2.5690	0	34.4870	0	27.522	0	1402.972	0	21.8	4	6.7	4	-1E+10	1	-1E+10	1	-1E+10	1	-1E+10	1	-1E+10	1	-1E+10	1
4901784	3	C	08/04/2015	10:52	-128.857	46.727	0	1424.40	0	2.5590	0	34.4890	0	27.525	0	1407.799	0	22.1	4	6.8	4	-1E+10	1	-1E+10	1	-1E+10	1	-1E+10	1	-1E+10	1	-1E+10	1
4901784	3	C	08/04/2015	10:52	-128.857	46.727	0	1429.30	0	2.5480	0	34.4900	0	27.526	0	1412.625	0	22.3	4	6.8	4	-1E+10	1	-1E+10	1	-1E+10	1	-1E+10	1	-1E+10	1	-1E+10	1
4901784	3	C	08/04/2015	10:52	-128.857	46.727	0	1434.20	0	2.5400	0	34.4910	0	27.528	0	1417.452	0	22.6	4	6.9	4	-1E+10	1	-1E+10	1	-1E+10	1	-1E+10	1	-1E+10	1	-1E+10	1
4901784	3	C	08/04/2015	10:52	-128.857	46.727	0	1440.00	0	2.5300	0	34.4930	0	27.530	0	1423.164	0	22.8	4	7.0	4	-1E+10	1	-1E+10	1	-1E+10	1	-1E+10	1	-1E+10	1	-1E+10	1
4901784	3	C	08/04/2015	10:52	-128.857	46.727	0	1445.00	0	2.5240	0	34.4930	0	27.531	0	1428.089	0	23.0	4	7.0	4	-1E+10	1	-1E+10	1	-1E+10	1	-1E+10	1	-1E+10	1	-1E+10	1
4901784	3	C	08/04/2015	10:52	-128.857	46.727	0	1449.20	0	2.5170	0	34.4940	0	27.532	0	1432.226	0	23.3	4	7.1	4	-1E+10	1	-1E+10	1	-1E+10	1	-1E+10	1	-1E+10	1	-1E+10	1
4901784	3	C	08/04/2015	10:52	-128.857	46.727	0	1454.20	0	2.5070	0	34.4960	0	27.535	0	1437.150	0	23.7	4	7.2	4	-1E+10	1	-1E+10	1	-1E+10	1	-1E+10	1	-1E+10	1	-1E+10	1
4901784	3	C	08/04/2015	10:52	-128.857	46.727	0	1459.30	0	2.5000	0	34.4970	0	27.536	0	1442.173	0	24.1	4	7.3	4	-1E+10	1	-1E+10	1	-1E+10	1	-1E+10	1	-1E+10	1	-1E+10	1
4901784	3	C	08/04/2015	10:52	-128.857	46.727	0	1464.40	0	2.4950	0	34.4990	0	27.538	0	1447.196	0	24.4	4	7.5	4	-1E+10	1	-1E+10	1	-1E+10	1	-1E+10	1	-1E+10	1	-1E+10	1
4901784	3	C	08/04/2015	10:52	-128.857	46.727	0	1469.50	0	2.4900	0	34.5000	0	27.539	0	1452.218	0	24.7	4	7.5	4	-1E+10	1	-1E+10	1	-1E+10	1	-1E+10	1	-1E+10	1	-1E+10	1
4901784	3	C	08/04/2015	10:52	-128.857	46.727	0	1474.60	0	2.4850	0	34.5010	0	27.541	0	1457.241	0	25.0	4	7.6	4	-1E+10	1	-1E+10	1	-1E+10	1	-1E+10	1	-1E+10	1	-1E+10	1
4901784	3	C	08/04/2015	10:52	-128.857	46.727	0	1479.80	0	2.4740	0	34.5020	0	27.542	0	1462.361	0	25.4	4	7.7	4	-1E+10	1	-1E+10	1	-1E+10	1	-1E+10	1	-1E+10	1	-1E+10	1
4901784	3	C	08/04/2015	10:52	-128.857	46.727	0	1485.00	0	2.4700	0	34.5030	0	27.544	0	1467.482	0	25.7	4	7.8	4	-1E+10	1	-1E+10	1	-1E+10	1	-1E+10	1	-1E+10	1	-1E+10	1
4901784	3	C	08/04/2015	10:52	-128.857	46.727	0	1490.20	0	2.4610	0	34.5050	0	27.546	0	1472.603	0	26.1	4	8.0	4	-1E+10	1	-1E+10	1	-1E+10	1	-1E+10	1	-1E+10	1	-1E+10	1
4901784	3	C	08/04/2015	10:52	-128.857	46.727	0	1495.40	0	2.4540	0	34.5060	0	27.547	0	1477.723	0	26.5	4	8.1	4	-1E+10	1	-1E+10	1	-1E+10	1	-1E+10	1	-1E+10	1	-1E+10	1
4901784	3	C	08/04/2015	10:52	-128.857	46.727	0	1500.70	0	2.4440	0	34.5080	0	27.550	0	1482.942	0	26.9	4	8.2	4	-1E+10	1	-1E+10	1	-1E+10	1	-1E+10	1	-1E+10	1	-1E+10	1
4901784	3	C	08/04/2015	10:52	-128.857	46.727	0	1505.10	0	2.4360	0	34.5090	0	27.551	0	1487.274	0	27.2	4	8.3	4	-1E+10	1	-1E+10	1	-1E+10	1	-1E+10	1	-1E+10	1	-1E+10	1
4901784	3	C	08/04/2015	10:52	-128.857	46.727	0	1509.60	0	2.4270	0	34.5100	0	27.553	0	1491.705	0	27.5	4	8.4	4	-1E+10	1	-1E+10	1	-1E+10	1	-1E+10	1	-1E+10	1	-1E+10	1
4901784	3	C	08/04/2015	10:52	-128.857	46.727	0	1514.90	0	2.4180	0	34.5110	0	27.554	0	1496.923	0	27.7	4	8.4	4	-1E+10	1	-1E+10	1	-1E+10	1	-1E+10	1	-1E+10	1	-1E+10	1
4901784	3	C	08/04/2015	10:52	-128.857	46.727	0	1520.00	0	2.4120	0	34.5120	0	27.556	0	1501.945	0	28.0	4	8.5	4	-1E+10	1	-1E+10	1	-1E+10	1	-1E+10	1	-1E+10	1	-1E+10	1
4901784	3	C	08/04/2015	10:52	-128.857	46.727	0	1525.00	0	2.4070	0	34.5130	0	27.557	0	1506.868	0	28.3	4	8.6	4	-1E+10	1	-1E+10	1	-1E+10	1	-1E+10	1	-1E+10	1	-1E+10	1
4901784	3	C	08/04/2015	10:52	-128.857	46.727	0	1530.60	0	2.4010	0	34.5140	0	27.558	0	1512.381	0	28.6	4	8.7	4	-1E+10	1	-1E+10	1	-1E+10	1	-1E+10	1	-1E+10	1	-1E+10	1
4901784	3	C	08/04/2015	10:52	-128.857	46.727	0	1535.40	0	2.3940	0	34.5150	0	27.560	0	1517.107	0	28.8	4	8.8	4	-1E+10	1	-1E+10	1	-1E+10	1	-1E+10	1	-1E+10	1	-1E+10	1
4901784	3	C	08/04/2015	10:52	-128.857	46.727	0	1540.20	0	2.3830	0	34.5160	0	27.561	0	1521.832	0	29.1	4	8.9	4	-1E+10	1	-1E+10	1	-1E+10	1	-1E+10	1	-1E+10	1	-1E+10	1
4901784	3	C	08/04/2015	10:52	-128.857	46.727	0	1545.10	0	2.3780	0	34.5170	0	27.563	0	1526.656	0	29.4	4	9.0	4	-1E+10	1	-1E+10	1	-1E+10	1	-1E+10	1	-1E+10	1	-1E+10	1
4901784	3	C	08/04/2015	10:52	-128.857	46.727	0	1549.90	0	2.3660	0	34.5180	0	27.564	0	1531.381	0	29.7	4	9.0	4	-1E+10	1	-1E+10	1	-1E+10	1	-1E+10	1	-1E+10	1	-1E+10	1
4901784	3	C	08/04/2015	10:52	-128.857	46.727	0	1554.90	0	2.3580	0	34.5190	0	27.566	0	1536.304	0	30.0	4	9.1	4	-1E+10	1	-1E+10	1	-1E+10	1	-1E+10	1	-1E+10	1	-1E+10	1
4901784	3	C	08/04/2015	10:52	-128.857	46.727	0	1559.90	0	2.3520	0	34.5200	0	27.567	0	1541.226	0	30.3	4	9.2	4	-1E+10	1	-1E+10	1	-1E+10	1	-1E+10	1	-1E+10	1	-1E+10	1
4901784	3	C	08/04/2015	10:52	-128.857	46.727	0	1564.90	0	2.3430	0	34.5220	0	27.570	0	1546.147	0	30.6	4	9.3	4	-1E+10	1	-1E+10	1	-1E+10	1	-1E+10	1	-1E+10	1	-1E+10	1
4901784	3	C	08/04/2015	10:52	-128.857	46.727	0	1569.90	0	2.3350	0	34.5230	0	27.571	0	1551.069	0	31.1	4	9.4	4	-1E+10	1	-1E+10	1	-1E+10	1	-1E+10	1	-1E+10	1	-1E+10	1
4901784	3	C	08/04/2015	10:52	-128.857	46.727	0	1574.90	0	2.3250	0	34.5250	0	27.574	0	1555.991	0	31.5	4	9.6	4	-1E+10	1	-1E+10	1	-1E+10	1	-1E+10	1	-1E+10	1	-1E+10	1
4901784	3	C	08/04/2015	10:52	-128.857	46.727	0	1580.00	0	2.3180	0	34.5250	0	27.574	0	1561.011	0	31.8	4	9.7	4	-1E+10	1	-1E+10	1	-1E+10	1	-1E+10	1	-1E+10	1	-1E+10	1
4901784	3	C	08/04/2015	10:52	-128.857	46.727	0	1585.10	0	2.3100	0	34.5270	0	27.576	0	1566.031	0	32.2	4	9.8	4	-1E+10	1	-1E+10	1	-1E+10	1	-1E+10	1	-1E+10	1	-1E+10	1
4901784	3	C	08/04/2015	10:52	-128.857	46.727	0	1590.30	0	2.3030	0	34.5270	0	27.577	0	1571.149	0	32.5	4	9.9	4	-1E+10	1	-1E+10	1	-1E+10	1	-1E+10	1	-1E+10	1	-1E+10	1
4901784	3	C	08/04/2015	10:52	-128.857	46.727	0	1595.50	0	2.2970	0	34.5290	0	27.579	0	1576.267	0	32.8	4	10.0	4	-1E+10	1	-1E+10	1	-1E+10	1	-1E+10	1	-1E+10	1	-1E+10	1
4901784	3	C	08/04/2015	10:52	-128.857	46.727	0	1600.70	0	2.2930	0	34.5300	0	27.580	0	1581.385	0	33.2	4	10.1	4	-1E+10	1	-1E+10	1	-1E+10	1	-1E+10	1	-1E+10	1	-1E+10	1
4901784	3	C	08/04/2015	10:52	-128.857	46.727	0	1605.10	0	2.2920	0	34.5310	0	27.581	0	1585.715	0	33.4	4	10.1	4	-1E+10	1	-1E+10	1	-1E+10	1	-1E+10	1	-1E+10	1	-1E+10	1
4901784	3	C	08/04/2015	10:52	-128.857	46.727	0	1609.40	0	2.2870	0	34.5310	0	27.582	0	1589.947	0	33.7	4	10.2	4	-1E+10	1	-1E+10	1	-1E+10	1	-1E+10	1	-1E+10	1	-1E+10	1
4901784	3	C	08/04/2015	10:52	-128.857	46.727	0	1614.70	0	2.2790	0	34.5320	0	27.583	0	1595.163	0	34.0	4	10.3	4	-1E+10	1	-1E+10	1	-1E+10	1	-1E+10	1	-1E+10	1	-1E+10	1
4901784	3	C	08/04/2015	10:52	-128.857	46.727	0	1620.00	0	2.2730	0	34.5330	0	27.584	0	1600.379	0	34.4	4	10.4	4	-1E+10	1	-1E+10	1	-1E+10	1	-1E+10	1	-1E+10	1	-1E+10	1
4901784	3	C	08/04/2015	10:52	-128.857	46.727	0	1625.20	0	2.2630	0	34.5350	0	27.587	0	1605.496	0	34.8	4	10.5	4	-1E+10	1	-1E+10	1	-1E+10	1	-1E+10	1	-1E+10	1	-1E+10	1
4901784	3	C	08/04/2015	10:52	-128.857	46.727	0	1630.50	0	2.2550	0	34.5350	0	27.588	0	1610.712	0	35.1	4	10.7	4	-1E+10	1	-1E+10	1	-1E+10	1	-1E+10	1	-1E+10	1	-1E+10	1
4901784	3	C	08/04/2015	10:52	-128.857	46.727	0	1634.90	0	2.2500	0	34.5360	0	27.589	0	1615.042	0	35.3	4	10.7	4	-1E+10	1	-1E+10	1	-1E+10	1	-1E+10	1	-1E+10	1	-1E+10	1
4901784	3	C	08/04/2015	10:52	-128.857	46.727	0	1639.30	0	2.2450	0	34.5370	0	27.590	0	1619.372	0	35.6	4	10.8	4	-1E+10	1	-1E+10	1	-1E+10	1	-1E+10	1	-1E+10	1	-1E+10	1
4901784	3	C	08/04/2015	10:52	-128.857	46.727	0	1644.70	0	2.2410	0	34.5380	0	27.591	0	1624.685	0	36.0	4	10.9	4	-1E+10	1	-1E+10	1	-1E+10	1	-1E+10	1	-1E+10	1	-1E+10	1
4901784	3	C	08/04/2015	10:52	-128.857	46.727	0	1650.10	0	2.2360	0	34.5390	0	27.592	0	1629.999	0	36.4	4	11.0	4	-1E+10	1	-1E+10	1	-1E+10	1	-1E+10	1	-1E+10	1	-1E+10	1
4901784	3	C	08/04/2015	10:52	-128.857	46.727	0	1654.70	0	2.2320	0	34.5410	0	27.594	0	1634.525	0	36.8	4	11.2	4	-1E+10	1	-1E+10	1	-1E+10	1	-1E+10	1	-1E+10	1	-1E+10	1
4901784	3	C	08/04/2015	10:52	-128.857	46.727	0	1659.90	0	2.2240	0	34.5420	0	27.596	0	1639.641	0	37.3	4	11.3	4	-1E+10	1	-1E+10	1	-1E+10	1	-1E+10	1	-1E+10	1	-1E+10	1
4901784	3	C	08/04/2015	10:52	-128.857	46.727	0	1665.40	0	2.2180	0	34.5430	0	27.597	0	1645.053	0	37.6	4	11.4	4	-1E+10	1	-1E+10	1	-1E+10	1	-1E+10	1	-1E+10	1	-1E+10	1
4901784	3	C	08/04/2015	10:52	-128.857	46.727	0	1670.30	0	2.2110	0	34.5440	0	27.599	0	1649.874	0	37.9	4	11.5	4	-1E+10	1	-1E+10	1	-1E+10	1	-1E+10	1	-1E+10	1	-1E+10	1
4901784	3	C	08/04/2015	10:52	-128.857	46.727	0	1675.10	0	2.2050	0	34.5450	0	27.600	0	1654.597	0	38.2	4	11.6	4	-1E+10	1	-1E+10	1	-1E+10	1	-1E+10	1	-1E+10	1	-1E+10	1
4901784	3	C	08/04/2015	10:52	-128.857	46.727	0	1680.00	0	2.1960	0	34.5460	0	27.601	0	1659.417	0	38.5	4	11.7	4	-1E+10	1	-1E+10	1	-1E+10	1	-1E+10	1	-1E+10	1	-1E+10	1
4901784	3	C	08/04/2015	10:52	-128.857	46.727	0	1684.90	0	2.1940	0	34.5460	0	27.602	0	1664.238	0	38.7	4	11.7	4	-1E+10	1	-1E+10	1	-1E+10	1	-1E+10	1	-1E+10	1	-1E+10	1
4901784	3	C	08/04/2015	10:52	-128.857	46.727	0	1689.80	0	2.1890	0	34.5470	0	27.603	0	1669.059	0	39.0	4	11.8	4	-1E+10	1	-1E+10	1	-1E+10	1	-1E+10	1	-1E+10	1	-1E+10	1
4901784	3	C	08/04/2015	10:52	-128.857	46.727	0	1694.80	0	2.1840	0	34.5480	0	27.604	0	1673.978	0	39.3	4	11.9	4	-1E+10	1	-1E+10	1	-1E+10	1	-1E+10	1	-1E+10	1	-1E+10	1
4901784	3	C	08/04/2015	10:52	-128.857	46.727	0	1699.70	0	2.1800	0	34.5480	0	27.604	0	1678.798	0	39.5	4	12.0	4	-1E+10	1	-1E+10	1	-1E+10	1	-1E+10	1	-1E+10	1	-1E+10	1
4901784	3	C	08/04/2015	10:52	-128.857	46.727	0	1704.60	0	2.1760	0	34.5490	0	27.605	0	1683.618	0	39.9	4	12.1	4	-1E+10	1	-1E+10	1	-1E+10	1	-1E+10	1	-1E+10	1	-1E+10	1
4901784	3	C	08/04/2015	10:52	-128.857	46.727	0	1709.60	0	2.1700	0	34.5500	0	27.607	0	1688.537	0	40.3	4	12.2	4	-1E+10	1	-1E+10	1	-1E+10	1	-1E+10	1	-1E+10	1	-1E+10	1
4901784	3	C	08/04/2015	10:52	-128.857	46.727	0	1714.60	0	2.1650	0	34.5510	0	27.608	0	1693.455	0	40.6	4	12.3	4	-1E+10	1	-1E+10	1	-1E+10	1	-1E+10	1	-1E+10	1	-1E+10	1
4901784	3	C	08/04/2015	10:52	-128.857	46.727	0	1719.60	0	2.1590	0	34.5520	0	27.609	0	1698.374	0	41.0	4	12.4	4	-1E+10	1	-1E+10	1	-1E+10	1	-1E+10	1	-1E+10	1	-1E+10	1
4901784	3	C	08/04/2015	10:52	-128.857	46.727	0	1724.60	0	2.1520	0	34.5530	0	27.611	0	1703.292	0	41.3	4	12.5	4	-1E+10	1	-1E+10	1	-1E+10	1	-1E+10	1	-1E+10	1	-1E+10	1
4901784	3	C	08/04/2015	10:52	-128.857	46.727	0	1729.60	0	2.1460	0	34.5540	0	27.612	0	1708.210	0	41.7	4	12.6	4	-1E+10	1	-1E+10	1	-1E+10	1	-1E+10	1	-1E+10	1	-1E+10	1
4901784	3	C	08/04/2015	10:52	-128.857	46.727	0	1734.70	0	2.1410	0	34.5550	0	27.613	0	1713.226	0	42.0	4	12.7	4	-1E+10	1	-1E+10	1	-1E+10	1	-1E+10	1	-1E+10	1	-1E+10	1
4901784	3	C	08/04/2015	10:52	-128.857	46.727	0	1739.80	0	2.1360	0	34.5550	0	27.614	0	1718.243	0	42.4	4	12.8	4	-1E+10	1	-1E+10	1	-1E+10	1	-1E+10	1	-1E+10	1	-1E+10	1
4901784	3	C	08/04/2015	10:52	-128.857	46.727	0	1744.90	0	2.1260	0	34.5570	0	27.616	0	1723.259	0	42.9	4	13.0	4	-1E+10	1	-1E+10	1	-1E+10	1	-1E+10	1	-1E+10	1	-1E+10	1
4901784	3	C	08/04/2015	10:52	-128.857	46.727	0	1750.10	0	2.1220	0	34.5580	0	27.617	0	1728.373	0	43.1	4	13.0	4	-1E+10	1	-1E+10	1	-1E+10	1	-1E+10	1	-1E+10	1	-1E+10	1
4901784	3	C	08/04/2015	10:52	-128.857	46.727	0	1755.30	0	2.1180	0	34.5580	0	27.618	0	1733.487	0	43.5	4	13.1	4	-1E+10	1	-1E+10	1	-1E+10	1	-1E+10	1	-1E+10	1	-1E+10	1
4901784	3	C	08/04/2015	10:52	-128.857	46.727	0	1760.50	0	2.1120	0	34.5600	0	27.620	0	1738.601	0	43.8	4	13.3	4	-1E+10	1	-1E+10	1	-1E+10	1	-1E+10	1	-1E+10	1	-1E+10	1
4901784	3	C	08/04/2015	10:52	-128.857	46.727	0	1765.70	0	2.1080	0	34.5600	0	27.620	0	1743.715	0	44.2	4	13.4	4	-1E+10	1	-1E+10	1	-1E+10	1	-1E+10	1	-1E+10	1	-1E+10	1
4901784	3	C	08/04/2015	10:52	-128.857	46.727	0	1770.10	0	2.1030	0	34.5610	0	27.621	0	1748.043	0	44.4	4	13.4	4	-1E+10	1	-1E+10	1	-1E+10	1	-1E+10	1	-1E+10	1	-1E+10	1
4901784	3	C	08/04/2015	10:52	-128.857	46.727	0	1774.50	0	2.0980	0	34.5620	0	27.622	0	1752.370	0	44.7	4	13.5	4	-1E+10	1	-1E+10	1	-1E+10	1	-1E+10	1	-1E+10	1	-1E+10	1
4901784	3	C	08/04/2015	10:52	-128.857	46.727	0	1779.80	0	2.0920	0	34.5620	0	27.623	0	1757.582	0	45.1	4	13.6	4	-1E+10	1	-1E+10	1	-1E+10	1	-1E+10	1	-1E+10	1	-1E+10	1
4901784	3	C	08/04/2015	10:52	-128.857	46.727	0	1785.20	0	2.0850	0	34.5630	0	27.624	0	1762.892	0	45.4	4	13.7	4	-1E+10	1	-1E+10	1	-1E+10	1	-1E+10	1	-1E+10	1	-1E+10	1
4901784	3	C	08/04/2015	10:52	-128.857	46.727	0	1790.50	0	2.0810	0	34.5640	0	27.625	0	1768.103	0	45.8	4	13.8	4	-1E+10	1	-1E+10	1	-1E+10	1	-1E+10	1	-1E+10	1	-1E+10	1
4901784	3	C	08/04/2015	10:52	-128.857	46.727	0	1795.10	0	2.0750	0	34.5650	0	27.627	0	1772.627	0	46.1	4	13.9	4	-1E+10	1	-1E+10	1	-1E+10	1	-1E+10	1	-1E+10	1	-1E+10	1
4901784	3	C	08/04/2015	10:52	-128.857	46.727	0	1799.70	0	2.0700	0	34.5660	0	27.628	0	1777.150	0	46.4	4	14.0	4	-1E+10	1	-1E+10	1	-1E+10	1	-1E+10	1	-1E+10	1	-1E+10	1
4901784	3	C	08/04/2015	10:52	-128.857	46.727	0	1805.20	0	2.0660	0	34.5660	0	27.628	0	1782.558	0	46.6	4	14.1	4	-1E+10	1	-1E+10	1	-1E+10	1	-1E+10	1	-1E+10	1	-1E+10	1
4901784	3	C	08/04/2015	10:52	-128.857	46.727	0	1809.90	0	2.0630	0	34.5670	0	27.629	0	1787.179	0	46.9	4	14.2	4	-1E+10	1	-1E+10	1	-1E+10	1	-1E+10	1	-1E+10	1	-1E+10	1
4901784	3	C	08/04/2015	10:52	-128.857	46.727	0	1814.50	0	2.0590	0	34.5670	0	27.630	0	1791.702	0	47.1	4	14.2	4	-1E+10	1	-1E+10	1	-1E+10	1	-1E+10	1	-1E+10	1	-1E+10	1
4901784	3	C	08/04/2015	10:52	-128.857	46.727	0	1820.00	0	2.0530	0	34.5680	0	27.631	0	1797.110	0	47.4	4	14.3	4	-1E+10	1	-1E+10	1	-1E+10	1	-1E+10	1	-1E+10	1	-1E+10	1
4901784	3	C	08/04/2015	10:52	-128.857	46.727	0	1825.50	0	2.0500	0	34.5680	0	27.631	0	1802.517	0	47.7	4	14.4	4	-1E+10	1	-1E+10	1	-1E+10	1	-1E+10	1	-1E+10	1	-1E+10	1
4901784	3	C	08/04/2015	10:52	-128.857	46.727	0	1830.50	0	2.0430	0	34.5690	0	27.633	0	1807.433	0	48.0	4	14.5	4	-1E+10	1	-1E+10	1	-1E+10	1	-1E+10	1	-1E+10	1	-1E+10	1
4901784	3	C	08/04/2015	10:52	-128.857	46.727	0	1835.50	0	2.0390	0	34.5690	0	27.633	0	1812.349	0	48.2	4	14.6	4	-1E+10	1	-1E+10	1	-1E+10	1	-1E+10	1	-1E+10	1	-1E+10	1
4901784	3	C	08/04/2015	10:52	-128.857	46.727	0	1840.50	0	2.0370	0	34.5700	0	27.634	0	1817.264	0	48.5	4	14.6	4	-1E+10	1	-1E+10	1	-1E+10	1	-1E+10	1	-1E+10	1	-1E+10	1
4901784	3	C	08/04/2015	10:52	-128.857	46.727	0	1845.60	0	2.0340	0	34.5710	0	27.635	0	1822.278	0	48.7	4	14.7	4	-1E+10	1	-1E+10	1	-1E+10	1	-1E+10	1	-1E+10	1	-1E+10	1
4901784	3	C	08/04/2015	10:52	-128.857	46.727	0	1850.60	0	2.0310	0	34.5720	0	27.636	0	1827.193	0	49.0	4	14.8	4	-1E+10	1	-1E+10	1	-1E+10	1	-1E+10	1	-1E+10	1	-1E+10	1
4901784	3	C	08/04/2015	10:52	-128.857	46.727	0	1855.70	0	2.0290	0	34.5730	0	27.637	0	1832.207	0	49.3	4	14.9	4	-1E+10	1	-1E+10	1	-1E+10	1	-1E+10	1	-1E+10	1	-1E+10	1
4901784	3	C	08/04/2015	10:52	-128.857	46.727	0	1860.00	0	2.0250	0	34.5730	0	27.637	0	1836.434	0	49.5	4	14.9	4	-1E+10	1	-1E+10	1	-1E+10	1	-1E+10	1	-1E+10	1	-1E+10	1
4901784	3	C	08/04/2015	10:52	-128.857	46.727	0	1864.40	0	2.0220	0	34.5740	0	27.639	0	1840.759	0	49.7	4	15.0	4	-1E+10	1	-1E+10	1	-1E+10	1	-1E+10	1	-1E+10	1	-1E+10	1
4901784	3	C	08/04/2015	10:52	-128.857	46.727	0	1869.60	0	2.0200	0	34.5740	0	27.639	0	1845.871	0	49.9	4	15.1	4	-1E+10	1	-1E+10	1	-1E+10	1	-1E+10	1	-1E+10	1	-1E+10	1
4901784	3	C	08/04/2015	10:52	-128.857	46.727	0	1874.80	0	2.0160	0	34.5750	0	27.640	0	1850.982	0	50.2	4	15.1	4	-1E+10	1	-1E+10	1	-1E+10	1	-1E+10	1	-1E+10	1	-1E+10	1
4901784	3	C	08/04/2015	10:52	-128.857	46.727	0	1879.90	0	2.0120	0	34.5750	0	27.640	0	1855.995	0	50.5	4	15.2	4	-1E+10	1	-1E+10	1	-1E+10	1	-1E+10	1	-1E+10	1	-1E+10	1
4901784	3	C	08/04/2015	10:52	-128.857	46.727	0	1885.10	0	2.0080	0	34.5760	0	27.641	0	1861.106	0	50.8	4	15.3	4	-1E+10	1	-1E+10	1	-1E+10	1	-1E+10	1	-1E+10	1	-1E+10	1
4901784	3	C	08/04/2015	10:52	-128.857	46.727	0	1890.40	0	2.0050	0	34.5760	0	27.642	0	1866.316	0	51.0	4	15.4	4	-1E+10	1	-1E+10	1	-1E+10	1	-1E+10	1	-1E+10	1	-1E+10	1
4901784	3	C	08/04/2015	10:52	-128.857	46.727	0	1894.90	0	2.0020	0	34.5770	0	27.643	0	1870.738	0	51.2	4	15.4	4	-1E+10	1	-1E+10	1	-1E+10	1	-1E+10	1	-1E+10	1	-1E+10	1
4901784	3	C	08/04/2015	10:52	-128.857	46.727	0	1899.30	0	2.0000	0	34.5780	0	27.644	0	1875.063	0	51.5	4	15.5	4	-1E+10	1	-1E+10	1	-1E+10	1	-1E+10	1	-1E+10	1	-1E+10	1
4901784	3	C	08/04/2015	10:52	-128.857	46.727	0	1904.60	0	1.9960	0	34.5780	0	27.644	0	1880.272	0	51.8	4	15.6	4	-1E+10	1	-1E+10	1	-1E+10	1	-1E+10	1	-1E+10	1	-1E+10	1
4901784	3	C	08/04/2015	10:52	-128.857	46.727	0	1910.00	0	1.9920	0	34.5790	0	27.645	0	1885.579	0	52.0	4	15.7	4	-1E+10	1	-1E+10	1	-1E+10	1	-1E+10	1	-1E+10	1	-1E+10	1
4901784	3	C	08/04/2015	10:52	-128.857	46.727	0	1915.40	0	1.9890	0	34.5800	0	27.646	0	1890.886	0	52.3	4	15.8	4	-1E+10	1	-1E+10	1	-1E+10	1	-1E+10	1	-1E+10	1	-1E+10	1
4901784	3	C	08/04/2015	10:52	-128.857	46.727	0	1920.00	0	1.9860	0	34.5800	0	27.646	0	1895.407	0	52.6	4	15.8	4	-1E+10	1	-1E+10	1	-1E+10	1	-1E+10	1	-1E+10	1	-1E+10	1
4901784	3	C	08/04/2015	10:52	-128.857	46.727	0	1924.50	0	1.9820	0	34.5810	0	27.648	0	1899.829	0	52.8	4	15.9	4	-1E+10	1	-1E+10	1	-1E+10	1	-1E+10	1	-1E+10	1	-1E+10	1
4901784	3	C	08/04/2015	10:52	-128.857	46.727	0	1930.00	0	1.9800	0	34.5810	0	27.648	0	1905.234	0	53.0	4	16.0	4	-1E+10	1	-1E+10	1	-1E+10	1	-1E+10	1	-1E+10	1	-1E+10	1
4901784	3	C	08/04/2015	10:52	-128.857	46.727	0	1935.40	0	1.9770	0	34.5810	0	27.648	0	1910.540	0	53.3	4	16.1	4	-1E+10	1	-1E+10	1	-1E+10	1	-1E+10	1	-1E+10	1	-1E+10	1
4901784	3	C	08/04/2015	10:52	-128.857	46.727	0	1940.00	0	1.9730	0	34.5820	0	27.649	0	1915.061	0	53.6	4	16.1	4	-1E+10	1	-1E+10	1	-1E+10	1	-1E+10	1	-1E+10	1	-1E+10	1
4901784	3	C	08/04/2015	10:52	-128.857	46.727	0	1944.50	0	1.9690	0	34.5830	0	27.650	0	1919.482	0	53.9	4	16.3	4	-1E+10	1	-1E+10	1	-1E+10	1	-1E+10	1	-1E+10	1	-1E+10	1
4901784	3	C	08/04/2015	10:52	-128.857	46.727	0	1950.00	0	1.9640	0	34.5840	0	27.651	0	1924.887	0	54.3	4	16.4	4	-1E+10	1	-1E+10	1	-1E+10	1	-1E+10	1	-1E+10	1	-1E+10	1
4901784	3	C	08/04/2015	10:52	-128.857	46.727	0	1955.20	0	1.9610	0	34.5840	0	27.652	0	1929.996	0	54.6	4	16.4	4	-1E+10	1	-1E+10	1	-1E+10	1	-1E+10	1	-1E+10	1	-1E+10	1
4901784	3	C	08/04/2015	10:52	-128.857	46.727	0	1959.40	0	1.9570	0	34.5850	0	27.653	0	1934.123	0	54.8	4	16.5	4	-1E+10	1	-1E+10	1	-1E+10	1	-1E+10	1	-1E+10	1	-1E+10	1
4901784	3	C	08/04/2015	10:52	-128.857	46.727	0	1964.20	0	1.9540	0	34.5860	0	27.654	0	1938.839	0	55.0	4	16.6	4	-1E+10	1	-1E+10	1	-1E+10	1	-1E+10	1	-1E+10	1	-1E+10	1
4901784	3	C	08/04/2015	10:52	-128.857	46.727	0	1969.90	0	1.9530	0	34.5860	0	27.654	0	1944.440	0	55.2	4	16.6	4	-1E+10	1	-1E+10	1	-1E+10	1	-1E+10	1	-1E+10	1	-1E+10	1
4901784	3	C	08/04/2015	10:52	-128.857	46.727	0	1975.60	0	1.9500	0	34.5860	0	27.654	0	1950.040	0	55.5	4	16.7	4	-1E+10	1	-1E+10	1	-1E+10	1	-1E+10	1	-1E+10	1	-1E+10	1
4901784	3	C	08/04/2015	10:52	-128.857	46.727	0	1980.50	0	1.9460	0	34.5870	0	27.655	0	1954.854	0	55.8	4	16.8	4	-1E+10	1	-1E+10	1	-1E+10	1	-1E+10	1	-1E+10	1	-1E+10	1
4901784	3	C	08/04/2015	10:52	-128.857	46.727	0	1985.40	0	1.9440	0	34.5880	0	27.656	0	1959.668	0	56.0	4	16.9	4	-1E+10	1	-1E+10	1	-1E+10	1	-1E+10	1	-1E+10	1	-1E+10	1
4901784	3	C	08/04/2015	10:52	-128.857	46.727	0	1990.30	0	1.9420	0	34.5880	0	27.657	0	1964.482	0	56.3	4	16.9	4	-1E+10	1	-1E+10	1	-1E+10	1	-1E+10	1	-1E+10	1	-1E+10	1
4901784	3	C	08/04/2015	10:52	-128.857	46.727	0	1995.30	0	1.9390	0	34.5880	0	27.657	0	1969.394	0	56.5	4	17.0	4	-1E+10	1	-1E+10	1	-1E+10	1	-1E+10	1	-1E+10	1	-1E+10	1
4901784	3	C	08/04/2015	10:52	-128.857	46.727	0	2000.30	0	1.9350	0	34.5890	0	27.658	0	1974.306	0	56.8	4	17.1	4	-1E+10	1	-1E+10	1	-1E+10	1	-1E+10	1	-1E+10	1	-1E+10	1
4901784	3	C	08/04/2015	10:52	-128.857	46.727	0	2005.40	0	1.9330	0	34.5900	0	27.659	0	1979.316	0	57.0	4	17.2	4	-1E+10	1	-1E+10	1	-1E+10	1	-1E+10	1	-1E+10	1	-1E+10	1
4901784	3	C	08/04/2015	10:52	-128.857	46.727	0	2010.30	0	1.9310	0	34.5900	0	27.659	0	1984.130	0	57.2	4	17.2	4	-1E+10	1	-1E+10	1	-1E+10	1	-1E+10	1	-1E+10	1	-1E+10	1
4901784	3	C	08/04/2015	10:52	-128.857	46.727	0	2015.60	0	1.9290	0	34.5900	0	27.659	0	1989.336	0	57.4	4	17.3	4	-1E+10	1	-1E+10	1	-1E+10	1	-1E+10	1	-1E+10	1	-1E+10	1
4901784	3	C	08/04/2015	10:52	-128.857	46.727	0	2020.20	0	1.9270	0	34.5910	0	27.660	0	1993.854	0	57.5	4	17.3	4	-1E+10	1	-1E+10	1	-1E+10	1	-1E+10	1	-1E+10	1	-1E+10	1
4901784	3	C	08/04/2015	10:52	-128.857	46.727	0																										
4901784	4	C	08/14/2015	10:49	-128.958	46.836	0	2.60	0	18.1360	0	32.0900	0	23.013	0	2.578	0	233.8	4	98.2	4	-1E+10	1	-1E+10	1	-1E+10	1	-1E+10	1	-1E+10	1	-1E+10	1
4901784	4	C	08/14/2015	10:49	-128.958	46.836	0	4.00	0	18.1350	0	32.0900	0	23.013	0	3.967	0	233.5	4	98.1	4	-1E+10	1	-1E+10	1	-1E+10	1	-1E+10	1	-1E+10	1	-1E+10	1
4901784	4	C	08/14/2015	10:49	-128.958	46.836	0	5.40	0	18.1380	0	32.0900	0	23.013	0	5.355	0	233.6	4	98.1	4	-1E+10	1	-1E+10	1	-1E+10	1	-1E+10	1	-1E+10	1	-1E+10	1
4901784	4	C	08/14/2015	10:49	-128.958	46.836	0	6.90	0	18.1380	0	32.0890	0	23.012	0	6.843	0	233.4	4	98.1	4	-1E+10	1	-1E+10	1	-1E+10	1	-1E+10	1	-1E+10	1	-1E+10	1
4901784	4	C	08/14/2015	10:49	-128.958	46.836	0	8.50	0	18.1390	0	32.0890	0	23.012	0	8.429	0	233.0	4	97.9	4	-1E+10	1	-1E+10	1	-1E+10	1	-1E+10	1	-1E+10	1	-1E+10	1
4901784	4	C	08/14/2015	10:49	-128.958	46.836	0	10.10	0	18.1370	0	32.0890	0	23.012	0	10.016	0	233.0	4	97.9	4	-1E+10	1	-1E+10	1	-1E+10	1	-1E+10	1	-1E+10	1	-1E+10	1
4901784	4	C	08/14/2015	10:49	-128.958	46.836	0	11.60	0	18.1370	0	32.0890	0	23.012	0	11.504	0	232.9	4	97.8	4	-1E+10	1	-1E+10	1	-1E+10	1	-1E+10	1	-1E+10	1	-1E+10	1
4901784	4	C	08/14/2015	10:49	-128.958	46.836	0	13.20	0	18.1370	0	32.0880	0	23.012	0	13.090	0	232.8	4	97.8	4	-1E+10	1	-1E+10	1	-1E+10	1	-1E+10	1	-1E+10	1	-1E+10	1
4901784	4	C	08/14/2015	10:49	-128.958	46.836	0	14.80	0	18.1370	0	32.0870	0	23.011	0	14.677	0	232.8	4	97.8	4	-1E+10	1	-1E+10	1	-1E+10	1	-1E+10	1	-1E+10	1	-1E+10	1
4901784	4	C	08/14/2015	10:49	-128.958	46.836	0	16.50	0	18.1350	0	32.0860	0	23.011	0	16.363	0	232.8	4	97.8	4	-1E+10	1	-1E+10	1	-1E+10	1	-1E+10	1	-1E+10	1	-1E+10	1
4901784	4	C	08/14/2015	10:49	-128.958	46.836	0	18.20	0	18.1330	0	32.0830	0	23.009	0	18.048	0	233.1	4	97.9	4	-1E+10	1	-1E+10	1	-1E+10	1	-1E+10	1	-1E+10	1	-1E+10	1
4901784	4	C	08/14/2015	10:49	-128.958	46.836	0	19.80	0	18.1360	0	32.0770	0	23.004	0	19.635	0	233.3	4	98.0	4	-1E+10	1	-1E+10	1	-1E+10	1	-1E+10	1	-1E+10	1	-1E+10	1
4901784	4	C	08/14/2015	10:49	-128.958	46.836	0	21.50	0	18.0430	0	32.0680	0	23.019	0	21.321	0	234.1	4	98.2	4	-1E+10	1	-1E+10	1	-1E+10	1	-1E+10	1	-1E+10	1	-1E+10	1
4901784	4	C	08/14/2015	10:49	-128.958	46.836	0	23.40	0	17.6030	0	32.0900	0	23.142	0	23.205	0	235.9	4	98.1	4	-1E+10	1	-1E+10	1	-1E+10	1	-1E+10	1	-1E+10	1	-1E+10	1
4901784	4	C	08/14/2015	10:49	-128.958	46.836	0	23.90	0	17.3860	0	32.1060	0	23.206	0	23.701	0	236.5	4	98.0	4	-1E+10	1	-1E+10	1	-1E+10	1	-1E+10	1	-1E+10	1	-1E+10	1
4901784	4	C	08/14/2015	10:49	-128.958	46.836	0	25.20	0	17.2500	0	32.1000	0	23.233	0	24.990	0	238.2	4	98.4	4	-1E+10	1	-1E+10	1	-1E+10	1	-1E+10	1	-1E+10	1	-1E+10	1
4901784	4	C	08/14/2015	10:49	-128.958	46.836	0	26.50	0	17.2270	0	32.0960	0	23.236	0	26.279	0	238.4	4	98.5	4	-1E+10	1	-1E+10	1	-1E+10	1	-1E+10	1	-1E+10	1	-1E+10	1
4901784	4	C	08/14/2015	10:49	-128.958	46.836	0	27.80	0	17.2070	0	32.0940	0	23.239	0	27.568	0	238.8	4	98.6	4	-1E+10	1	-1E+10	1	-1E+10	1	-1E+10	1	-1E+10	1	-1E+10	1
4901784	4	C	08/14/2015	10:49	-128.958	46.836	0	29.00	0	17.1860	0	32.0900	0	23.241	0	28.758	0	239.2	4	98.7	4	-1E+10	1	-1E+10	1	-1E+10	1	-1E+10	1	-1E+10	1	-1E+10	1
4901784	4	C	08/14/2015	10:49	-128.958	46.836	0	30.20	0	17.1430	0	32.0820	0	23.245	0	29.948	0	240.4	4	99.1	4	-1E+10	1	-1E+10	1	-1E+10	1	-1E+10	1	-1E+10	1	-1E+10	1
4901784	4	C	08/14/2015	10:49	-128.958	46.836	0	31.30	0	17.0640	0	32.0750	0	23.258	0	31.038	0	242.2	4	99.7	4	-1E+10	1	-1E+10	1	-1E+10	1	-1E+10	1	-1E+10	1	-1E+10	1
4901784	4	C	08/14/2015	10:49	-128.958	46.836	0	32.40	0	16.7620	0	32.0680	0	23.322	0	32.129	0	245.3	4	100.4	4	-1E+10	1	-1E+10	1	-1E+10	1	-1E+10	1	-1E+10	1	-1E+10	1
4901784	4	C	08/14/2015	10:49	-128.958	46.836	0	33.70	0	16.6620	0	32.0520	0	23.333	0	33.418	0	248.0	4	101.3	4	-1E+10	1	-1E+10	1	-1E+10	1	-1E+10	1	-1E+10	1	-1E+10	1
4901784	4	C	08/14/2015	10:49	-128.958	46.836	0	35.30	0	15.2970	0	32.0690	0	23.651	0	35.005	0	256.0	4	101.8	4	-1E+10	1	-1E+10	1	-1E+10	1	-1E+10	1	-1E+10	1	-1E+10	1
4901784	4	C	08/14/2015	10:49	-128.958	46.836	0	37.10	0	14.3810	0	32.1140	0	23.881	0	36.789	0	260.6	4	101.8	4	-1E+10	1	-1E+10	1	-1E+10	1	-1E+10	1	-1E+10	1	-1E+10	1
4901784	4	C	08/14/2015	10:49	-128.958	46.836	0	38.90	0	13.6190	0	32.1570	0	24.070	0	38.574	0	264.5	4	101.8	4	-1E+10	1	-1E+10	1	-1E+10	1	-1E+10	1	-1E+10	1	-1E+10	1
4901784	4	C	08/14/2015	10:49	-128.958	46.836	0	40.80	0	13.0660	0	32.2260	0	24.233	0	40.458	0	266.4	4	101.5	4	-1E+10	1	-1E+10	1	-1E+10	1	-1E+10	1	-1E+10	1	-1E+10	1
4901784	4	C	08/14/2015	10:49	-128.958	46.836	0	42.70	0	12.7860	0	32.2370	0	24.297	0	42.342	0	266.7	4	101.0	4	-1E+10	1	-1E+10	1	-1E+10	1	-1E+10	1	-1E+10	1	-1E+10	1
4901784	4	C	08/14/2015	10:49	-128.958	46.836	0	44.70	0	12.6290	0	32.2600	0	24.345	0	44.325	0	266.7	4	100.7	4	-1E+10	1	-1E+10	1	-1E+10	1	-1E+10	1	-1E+10	1	-1E+10	1
4901784	4	C	08/14/2015	10:49	-128.958	46.836	0	46.70	0	12.5570	0	32.2630	0	24.361	0	46.308	0	265.7	4	100.1	4	-1E+10	1	-1E+10	1	-1E+10	1	-1E+10	1	-1E+10	1	-1E+10	1
4901784	4	C	08/14/2015	10:49	-128.958	46.836	0	48.50	0	12.4140	0	32.2670	0	24.391	0	48.093	0	264.0	4	99.2	4	-1E+10	1	-1E+10	1	-1E+10	1	-1E+10	1	-1E+10	1	-1E+10	1
4901784	4	C	08/14/2015	10:49	-128.958	46.836	0	50.40	0	12.2250	0	32.2690	0	24.428	0	49.976	0	262.0	4	98.1	4	-1E+10	1	-1E+10	1	-1E+10	1	-1E+10	1	-1E+10	1	-1E+10	1
4901784	4	C	08/14/2015	10:49	-128.958	46.836	0	52.80	0	11.8020	0	32.2670	0	24.506	0	52.356	0	260.3	4	96.6	4	-1E+10	1	-1E+10	1	-1E+10	1	-1E+10	1	-1E+10	1	-1E+10	1
4901784	4	C	08/14/2015	10:49	-128.958	46.836	0	54.70	0	11.5420	0	32.2500	0	24.540	0	54.240	0	258.7	4	95.4	4	-1E+10	1	-1E+10	1	-1E+10	1	-1E+10	1	-1E+10	1	-1E+10	1
4901784	4	C	08/14/2015	10:49	-128.958	46.836	0	56.30	0	11.4600	0	32.2480	0	24.553	0	55.826	0	255.7	4	94.2	4	-1E+10	1	-1E+10	1	-1E+10	1	-1E+10	1	-1E+10	1	-1E+10	1
4901784	4	C	08/14/2015	10:49	-128.958	46.836	0	57.80	0	11.3140	0	32.2680	0	24.595	0	57.313	0	252.9	4	92.9	4	-1E+10	1	-1E+10	1	-1E+10	1	-1E+10	1	-1E+10	1	-1E+10	1
4901784	4	C	08/14/2015	10:49	-128.958	46.836	0	59.50	0	11.1460	0	32.2860	0	24.639	0	58.999	0	251.4	4	92.0	4	-1E+10	1	-1E+10	1	-1E+10	1	-1E+10	1	-1E+10	1	-1E+10	1
4901784	4	C	08/14/2015	10:49	-128.958	46.836	0	61.10	0	11.0620	0	32.2830	0	24.651	0	60.585	0	250.4	4	91.5	4	-1E+10	1	-1E+10	1	-1E+10	1	-1E+10	1	-1E+10	1	-1E+10	1
4901784	4	C	08/14/2015	10:49	-128.958	46.836	0	62.70	0	10.9620	0	32.2940	0	24.677	0	62.171	0	249.5	4	91.0	4	-1E+10	1	-1E+10	1	-1E+10	1	-1E+10	1	-1E+10	1	-1E+10	1
4901784	4	C	08/14/2015	10:49	-128.958	46.836	0	64.30	0	10.9380	0	32.2960	0	24.683	0	63.757	0	248.6	4	90.6	4	-1E+10	1	-1E+10	1	-1E+10	1	-1E+10	1	-1E+10	1	-1E+10	1
4901784	4	C	08/14/2015	10:49	-128.958	46.836	0	66.00	0	10.8910	0	32.3020	0	24.696	0	65.443	0	247.4	4	90.1	4	-1E+10	1	-1E+10	1	-1E+10	1	-1E+10	1	-1E+10	1	-1E+10	1
4901784	4	C	08/14/2015	10:49	-128.958	46.836	0	67.60	0	10.8010	0	32.3180	0	24.724	0	67.029	0	246.8	4	89.7	4	-1E+10	1	-1E+10	1	-1E+10	1	-1E+10	1	-1E+10	1	-1E+10	1
4901784	4	C	08/14/2015	10:49	-128.958	46.836	0	69.20	0	10.6810	0	32.3380	0	24.761	0	68.615	0	246.8	4	89.5	4	-1E+10	1	-1E+10	1	-1E+10	1	-1E+10	1	-1E+10	1	-1E+10	1
4901784	4	C	08/14/2015	10:49	-128.958	46.836	0	70.90	0	10.7240	0	32.3610	0	24.771	0	70.300	0	246.2	4	89.4	4	-1E+10	1	-1E+10	1	-1E+10	1	-1E+10	1	-1E+10	1	-1E+10	1
4901784	4	C	08/14/2015	10:49	-128.958	46.836	0	72.60	0	10.6670	0	32.3590	0	24.779	0	71.986	0	244.2	4	88.5	4	-1E+10	1	-1E+10	1	-1E+10	1	-1E+10	1	-1E+10	1	-1E+10	1
4901784	4	C	08/14/2015	10:49	-128.958	46.836	0	74.30	0	10.6010	0	32.3680	0	24.798	0	73.671	0	242.2	4	87.7	4	-1E+10	1	-1E+10	1	-1E+10	1	-1E+10	1	-1E+10	1	-1E+10	1
4901784	4	C	08/14/2015	10:49	-128.958	46.836	0	76.10	0	10.5950	0	32.4020	0	24.825	0	75.456	0	239.2	4	86.6	4	-1E+10	1	-1E+10	1	-1E+10	1	-1E+10	1	-1E+10	1	-1E+10	1
4901784	4	C	08/14/2015	10:49	-128.958	46.836	0	77.70	0	10.5070	0	32.4220	0	24.856	0	77.042	0	236.4	4	85.4	4	-1E+10	1	-1E+10	1	-1E+10	1	-1E+10	1	-1E+10	1	-1E+10	1
4901784	4	C	08/14/2015	10:49	-128.958	46.836	0	79.30	0	10.4380	0	32.4360	0	24.879	0	78.628	0	232.9	4	84.0	4	-1E+10	1	-1E+10	1	-1E+10	1	-1E+10	1	-1E+10	1	-1E+10	1
4901784	4	C	08/14/2015	10:49	-128.958	46.836	0	81.00	0	10.3630	0	32.4400	0	24.895	0	80.313	0	229.1	4	82.5	4	-1E+10	1	-1E+10	1	-1E+10	1	-1E+10	1	-1E+10	1	-1E+10	1
4901784	4	C	08/14/2015	10:49	-128.958	46.836	0	83.10	0	10.0740	0	32.4970	0	24.988	0	82.395	0	225.4	4	80.8	4	-1E+10	1	-1E+10	1	-1E+10	1	-1E+10	1	-1E+10	1	-1E+10	1
4901784	4	C	08/14/2015	10:49	-128.958	46.836	0	84.70	0	9.9380	0	32.5060	0	25.017	0	83.981	0	223.6	4	79.9	4	-1E+10	1	-1E+10	1	-1E+10	1	-1E+10	1	-1E+10	1	-1E+10	1
4901784	4	C	08/14/2015	10:49	-128.958	46.836	0	86.10	0	9.8690	0	32.5340	0	25.050	0	85.369	0	221.8	4	79.1	4	-1E+10	1	-1E+10	1	-1E+10	1	-1E+10	1	-1E+10	1	-1E+10	1
4901784	4	C	08/14/2015	10:49	-128.958	46.836	0	87.50	0	9.8290	0	32.5470	0	25.067	0	86.757	0	220.0	4	78.4	4	-1E+10	1	-1E+10	1	-1E+10	1	-1E+10	1	-1E+10	1	-1E+10	1
4901784	4	C	08/14/2015	10:49	-128.958	46.836	0	88.90	0	9.7760	0	32.5610	0	25.087	0	88.144	0	218.2	4	77.7	4	-1E+10	1	-1E+10	1	-1E+10	1	-1E+10	1	-1E+10	1	-1E+10	1
4901784	4	C	08/14/2015	10:49	-128.958	46.836	0	90.40	0	9.6820	0	32.5960	0	25.130	0	89.631	0	216.5	4	76.9	4	-1E+10	1	-1E+10	1	-1E+10	1	-1E+10	1	-1E+10	1	-1E+10	1
4901784	4	C	08/14/2015	10:49	-128.958	46.836	0	92.00	0	9.5730	0	32.6200	0	25.166	0	91.217	0	215.7	4	76.5	4	-1E+10	1	-1E+10	1	-1E+10	1	-1E+10	1	-1E+10	1	-1E+10	1
4901784	4	C	08/14/2015	10:49	-128.958	46.836	0	93.50	0	9.4710	0	32.6380	0	25.196	0	92.704	0	214.7	4	76.0	4	-1E+10	1	-1E+10	1	-1E+10	1	-1E+10	1	-1E+10	1	-1E+10	1
4901784	4	C	08/14/2015	10:49	-128.958	46.836	0	95.00	0	9.4580	0	32.6440	0	25.203	0	94.191	0	213.5	4	75.5	4	-1E+10	1	-1E+10	1	-1E+10	1	-1E+10	1	-1E+10	1	-1E+10	1
4901784	4	C	08/14/2015	10:49	-128.958	46.836	0	96.50	0	9.4370	0	32.6470	0	25.209	0	95.678	0	211.8	4	74.9	4	-1E+10	1	-1E+10	1	-1E+10	1	-1E+10	1	-1E+10	1	-1E+10	1
4901784	4	C	08/14/2015	10:49	-128.958	46.836	0	98.10	0	9.3870	0	32.6610	0	25.228	0	97.264	0	209.7	4	74.1	4	-1E+10	1	-1E+10	1	-1E+10	1	-1E+10	1	-1E+10	1	-1E+10	1
4901784	4	C	08/14/2015	10:49	-128.958	46.836	0	99.80	0	9.2710	0	32.6960	0	25.274	0	98.949	0	208.4	4	73.5	4	-1E+10	1	-1E+10	1	-1E+10	1	-1E+10	1	-1E+10	1	-1E+10	1
4901784	4	C	08/14/2015	10:49	-128.958	46.836	0	102.40	0	9.1780	0	32.7230	0	25.310	0	101.526	0	206.3	4	72.6	4	-1E+10	1	-1E+10	1	-1E+10	1	-1E+10	1	-1E+10	1	-1E+10	1
4901784	4	C	08/14/2015	10:49	-128.958	46.836	0	104.90	0	9.0380	0	32.7760	0	25.373	0	104.004	0	205.6	4	72.2	4	-1E+10	1	-1E+10	1	-1E+10	1	-1E+10	1	-1E+10	1	-1E+10	1
4901784	4	C	08/14/2015	10:49	-128.958	46.836	0	107.10	0	8.9370	0	32.7840	0	25.395	0	106.185	0	204.3	4	71.6	4	-1E+10	1	-1E+10	1	-1E+10	1	-1E+10	1	-1E+10	1	-1E+10	1
4901784	4	C	08/14/2015	10:49	-128.958	46.836	0	110.10	0	8.7850	0	32.8230	0	25.449	0	109.159	0	202.4	4	70.7	4	-1E+10	1	-1E+10	1	-1E+10	1	-1E+10	1	-1E+10	1	-1E+10	1
4901784	4	C	08/14/2015	10:49	-128.958	46.836	0	112.50	0	8.7550	0	32.8470	0	25.473	0	111.537	0	200.2	4	69.9	4	-1E+10	1	-1E+10	1	-1E+10	1	-1E+10	1	-1E+10	1	-1E+10	1
4901784	4	C	08/14/2015	10:49	-128.958	46.836	0	114.80	0	8.4880	0	32.9080	0	25.561	0	113.817	0	198.8	4	69.0	4	-1E+10	1	-1E+10	1	-1E+10	1	-1E+10	1	-1E+10	1	-1E+10	1
4901784	4	C	08/14/2015	10:49	-128.958	46.836	0	117.20	0	8.4220	0	32.9650	0	25.616	0	116.196	0	196.2	4	68.0	4	-1E+10	1	-1E+10	1	-1E+10	1	-1E+10	1	-1E+10	1	-1E+10	1
4901784	4	C	08/14/2015	10:49	-128.958	46.836	0	119.60	0	8.3630	0	33.0030	0	25.654	0	118.575	0	194.8	4	67.5	4	-1E+10	1	-1E+10	1	-1E+10	1	-1E+10	1	-1E+10	1	-1E+10	1
4901784	4	C	08/14/2015	10:49	-128.958	46.836	0	122.80	0	8.3230	0	33.0170	0	25.671	0	121.746	0	193.1	4	66.8	4	-1E+10	1	-1E+10	1	-1E+10	1	-1E+10	1	-1E+10	1	-1E+10	1
4901784	4	C	08/14/2015	10:49	-128.958	46.836	0	125.30	0	8.2620	0	33.0340	0	25.694	0	124.224	0	191.3	4	66.1	4	-1E+10	1	-1E+10	1	-1E+10	1	-1E+10	1	-1E+10	1	-1E+10	1
4901784	4	C	08/14/2015	10:49	-128.958	46.836	0	127.90	0	8.1890	0	33.0690	0	25.732	0	126.801	0	188.8	4	65.2	4	-1E+10	1	-1E+10	1	-1E+10	1	-1E+10	1	-1E+10	1	-1E+10	1
4901784	4	C	08/14/2015	10:49	-128.958	46.836	0	130.50	0	8.0470	0	33.1300	0	25.801	0	129.378	0	186.4	4	64.2	4	-1E+10	1	-1E+10	1	-1E+10	1	-1E+10	1	-1E+10	1	-1E+10	1
4901784	4	C	08/14/2015	10:49	-128.958	46.836	0	132.20	0	8.0150	0	33.1640	0	25.832	0	131.063	0	184.2	4	63.4	4	-1E+10	1	-1E+10	1	-1E+10	1	-1E+10	1	-1E+10	1	-1E+10	1
4901784	4	C	08/14/2015	10:49	-128.958	46.836	0	135.00	0	8.0040	0	33.2050	0	25.866	0	133.838	0	181.1	4	62.3	4	-1E+10	1	-1E+10	1	-1E+10	1	-1E+10	1	-1E+10	1	-1E+10	1
4901784	4	C	08/14/2015	10:49	-128.958	46.836	0	137.80	0	8.0300	0	33.2320	0	25.883	0	136.613	0	177.8	4	61.2	4	-1E+10	1	-1E+10	1	-1E+10	1	-1E+10	1	-1E+10	1	-1E+10	1
4901784	4	C	08/14/2015	10:49	-128.958	46.836	0	139.60	0	8.0190	0	33.2510	0	25.900	0	138.397	0	176.0	4	60.6	4	-1E+10	1	-1E+10	1	-1E+10	1	-1E+10	1	-1E+10	1	-1E+10	1
4901784	4	C	08/14/2015	10:49	-128.958	46.836	0	142.00	0	8.0320	0	33.3120	0	25.946	0	140.775	0	175.5	4	60.5	4	-1E+10	1	-1E+10	1	-1E+10	1	-1E+10	1	-1E+10	1	-1E+10	1
4901784	4	C	08/14/2015	10:49	-128.958	46.836	0	144.60	0	7.9320	0	33.3290	0	25.974	0	143.352	0	176.6	4	60.7	4	-1E+10	1	-1E+10	1	-1E+10	1	-1E+10	1	-1E+10	1	-1E+10	1
4901784	4	C	08/14/2015	10:49	-128.958	46.836	0	147.70	0	7.8500	0	33.3480	0	26.001	0	146.424	0	176.1	4	60.5	4	-1E+10	1	-1E+10	1	-1E+10	1	-1E+10	1	-1E+10	1	-1E+10	1
4901784	4	C	08/14/2015	10:49	-128.958	46.836	0	150.10	0	7.8120	0	33.3700	0	26.024	0	148.802	0	174.2	4	59.7	4	-1E+10	1	-1E+10	1	-1E+10	1	-1E+10	1	-1E+10	1	-1E+10	1
4901784	4	C	08/14/2015	10:49	-128.958	46.836	0	152.60	0	7.7800	0	33.4100	0	26.060	0	151.280	0	171.2	4	58.7	4	-1E+10	1	-1E+10	1	-1E+10	1	-1E+10	1	-1E+10	1	-1E+10	1
4901784	4	C	08/14/2015	10:49	-128.958	46.836	0	155.10	0	7.7880	0	33.4410	0	26.083	0	153.757	0	168.1	4	57.7	4	-1E+10	1	-1E+10	1	-1E+10	1	-1E+10	1	-1E+10	1	-1E+10	1
4901784	4	C	08/14/2015	10:49	-128.958	46.836	0	157.50	0	7.7660	0	33.4770	0	26.114	0	156.135	0	165.5	4	56.7	4	-1E+10	1	-1E+10	1	-1E+10	1	-1E+10	1	-1E+10	1	-1E+10	1
4901784	4	C	08/14/2015	10:49	-128.958	46.836	0	160.00	0	7.7380	0	33.5260	0	26.157	0	158.613	0	163.2	4	55.9	4	-1E+10	1	-1E+10	1	-1E+10	1	-1E+10	1	-1E+10	1	-1E+10	1
4901784	4	C	08/14/2015	10:49	-128.958	46.836	0	162.50	0	7.7250	0	33.5400	0	26.170	0	161.090	0	161.8	4	55.4	4	-1E+10	1	-1E+10	1	-1E+10	1	-1E+10	1	-1E+10	1	-1E+10	1
4901784	4	C	08/14/2015	10:49	-128.958	46.836	0	165.10	0	7.7020	0	33.5560	0	26.186	0	163.667	0	160.1	4	54.8	4	-1E+10	1	-1E+10	1	-1E+10	1	-1E+10	1	-1E+10	1	-1E+10	1
4901784	4	C	08/14/2015	10:49	-128.958	46.836	0	167.60	0	7.6750	0	33.5890	0	26.216	0	166.144	0	158.2	4	54.2	4	-1E+10	1	-1E+10	1	-1E+10	1	-1E+10	1	-1E+10	1	-1E+10	1
4901784	4	C	08/14/2015	10:49	-128.958	46.836	0	170.20	0	7.6430	0	33.6160	0	26.241	0	168.720	0	156.5	4	53.6	4	-1E+10	1	-1E+10	1	-1E+10	1	-1E+10	1	-1E+10	1	-1E+10	1
4901784	4	C	08/14/2015	10:49	-128.958	46.836	0	172.90	0	7.6330	0	33.6290	0	26.253	0	171.396	0	154.5	4	52.9	4	-1E+10	1	-1E+10	1	-1E+10	1	-1E+10	1	-1E+10	1	-1E+10	1
4901784	4	C	08/14/2015	10:49	-128.958	46.836	0	175.50	0	7.6260	0	33.6490	0	26.270	0	173.972	0	152.4	4	52.1	4	-1E+10	1	-1E+10	1	-1E+10	1	-1E+10	1	-1E+10	1	-1E+10	1
4901784	4	C	08/14/2015	10:49	-128.958	46.836	0	177.30	0	7.6160	0	33.6580	0	26.278	0	175.756	0	150.9	4	51.6	4	-1E+10	1	-1E+10	1	-1E+10	1	-1E+10	1	-1E+10	1	-1E+10	1
4901784	4	C	08/14/2015	10:49	-128.958	46.836	0	180.00	0	7.5720	0	33.6890	0	26.309	0	178.431	0	148.1	4	50.7	4	-1E+10	1	-1E+10	1	-1E+10	1	-1E+10	1	-1E+10	1	-1E+10	1
4901784	4	C	08/14/2015	10:49	-128.958	46.836	0	182.70	0	7.5430	0	33.7150	0	26.334	0	181.106	0	145.2	4	49.6	4	-1E+10	1	-1E+10	1	-1E+10	1	-1E+10	1	-1E+10	1	-1E+10	1
4901784	4	C	08/14/2015	10:49	-128.958	46.836	0	184.40	0	7.5350	0	33.7370	0	26.352	0	182.791	0	143.6	4	49.1	4	-1E+10	1	-1E+10	1	-1E+10	1	-1E+10	1	-1E+10	1	-1E+10	1
4901784	4	C	08/14/2015	10:49	-128.958	46.836	0	187.20	0	7.5270	0	33.7570	0	26.369	0	185.565	0	141.7	4	48.4	4	-1E+10	1	-1E+10	1	-1E+10	1	-1E+10	1	-1E+10	1	-1E+10	1
4901784	4	C	08/14/2015	10:49	-128.958	46.836	0	189.90	0	7.5000	0	33.7750	0	26.387	0	188.240	0	140.3	4	47.9	4	-1E+10	1	-1E+10	1	-1E+10	1	-1E+10	1	-1E+10	1	-1E+10	1
4901784	4	C	08/14/2015	10:49	-128.958	46.836	0	191.70	0	7.4870	0	33.7800	0	26.393	0	190.023	0	139.8	4	47.7	4	-1E+10	1	-1E+10	1	-1E+10	1	-1E+10	1	-1E+10	1	-1E+10	1
4901784	4	C	08/14/2015	10:49	-128.958	46.836	0	194.70	0	7.4230	0	33.8020	0	26.419	0	192.996	0	138.6	4	47.3	4	-1E+10	1	-1E+10	1	-1E+10	1	-1E+10	1	-1E+10	1	-1E+10	1
4901784	4	C	08/14/2015	10:49	-128.958	46.836	0	197.60	0	7.3780	0	33.8140	0	26.435	0	195.869	0	137.7	4	46.9	4	-1E+10	1	-1E+10	1	-1E+10	1	-1E+10	1	-1E+10	1	-1E+10	1
4901784	4	C	08/14/2015	10:49	-128.958	46.836	0	199.90	0	7.3470	0	33.8230	0	26.446	0	198.148	0	136.8	4	46.6	4	-1E+10	1	-1E+10	1	-1E+10	1	-1E+10	1	-1E+10	1	-1E+10	1
4901784	4	C	08/14/2015	10:49	-128.958	46.836	0	202.30	0	7.3160	0	33.8320	0	26.458	0	200.526	0	136.1	4	46.3	4	-1E+10	1	-1E+10	1	-1E+10	1	-1E+10	1	-1E+10	1	-1E+10	1
4901784	4	C	08/14/2015	10:49	-128.958	46.836	0	204.70	0	7.2980	0	33.8380	0	26.465	0	202.903	0	135.6	4	46.1	4	-1E+10	1	-1E+10	1	-1E+10	1	-1E+10	1	-1E+10	1	-1E+10	1
4901784	4	C	08/14/2015	10:49	-128.958	46.836	0	207.80	0	7.2450	0	33.8490	0	26.481	0	205.975	0	136.0	4	46.2	4	-1E+10	1	-1E+10	1	-1E+10	1	-1E+10	1	-1E+10	1	-1E+10	1
4901784	4	C	08/14/2015	10:49	-128.958	46.836	0	210.20	0	7.1970	0	33.8560	0	26.493	0	208.352	0	137.7	4	46.8	4	-1E+10	1	-1E+10	1	-1E+10	1	-1E+10	1	-1E+10	1	-1E+10	1
4901784	4	C	08/14/2015	10:49	-128.958	46.836	0	212.60	0	7.1580	0	33.8580	0	26.500	0	210.730	0	138.7	4	47.0	4	-1E+10	1	-1E+10	1	-1E+10	1	-1E+10	1	-1E+10	1	-1E+10	1
4901784	4	C	08/14/2015	10:49	-128.958	46.836	0	215.00	0	7.1190	0	33.8630	0	26.510	0	213.108	0	139.5	4	47.3	4	-1E+10	1	-1E+10	1	-1E+10	1	-1E+10	1	-1E+10	1	-1E+10	1
4901784	4	C	08/14/2015	10:49	-128.958	46.836	0	217.40	0	7.0500	0	33.8620	0	26.518	0	215.485	0	137.6	4	46.6	4	-1E+10	1	-1E+10	1	-1E+10	1	-1E+10	1	-1E+10	1	-1E+10	1
4901784	4	C	08/14/2015	10:49	-128.958	46.836	0	219.80	0	7.0640	0	33.8670	0	26.521	0	217.863	0	131.7	4	44.6	4	-1E+10	1	-1E+10	1	-1E+10	1	-1E+10	1	-1E+10	1	-1E+10	1
4901784	4	C	08/14/2015	10:49	-128.958	46.836	0	222.10	0	7.0270	0	33.8710	0	26.529	0	220.141	0	129.5	4	43.8	4	-1E+10	1	-1E+10	1	-1E+10	1	-1E+10	1	-1E+10	1	-1E+10	1
4901784	4	C	08/14/2015	10:49	-128.958	46.836	0	225.40	0	6.9560	0	33.8790	0	26.545	0	223.411	0	128.6	4	43.4	4	-1E+10	1	-1E+10	1	-1E+10	1	-1E+10	1	-1E+10	1	-1E+10	1
4901784	4	C	08/14/2015	10:49	-128.958	46.836	0	227.90	0	6.9390	0	33.8850	0	26.552	0	225.887	0	127.8	4	43.1	4	-1E+10	1	-1E+10	1	-1E+10	1	-1E+10	1	-1E+10	1	-1E+10	1
4901784	4	C	08/14/2015	10:49	-128.958	46.836	0	229.60	0	6.9000	0	33.8850	0	26.557	0	227.571	0	128.4	4	43.3	4	-1E+10	1	-1E+10	1	-1E+10	1	-1E+10	1	-1E+10	1	-1E+10	1
4901784	4	C	08/14/2015	10:49	-128.958	46.836	0	232.20	0	6.8400	0	33.8850	0	26.565	0	230.147	0	129.8	4	43.7	4	-1E+10	1	-1E+10	1	-1E+10	1	-1E+10	1	-1E+10	1	-1E+10	1
4901784	4	C	08/14/2015	10:49	-128.958	46.836	0	234.60	0	6.7500	0	33.8840	0	26.577	0	232.524	0	130.9	4	44.0	4	-1E+10	1	-1E+10	1	-1E+10	1	-1E+10	1	-1E+10	1	-1E+10	1
4901784	4	C	08/14/2015	10:49	-128.958	46.836	0	237.20	0	6.7330	0	33.8820	0	26.577	0	235.100	0	130.7	4	43.9	4	-1E+10	1	-1E+10	1	-1E+10	1	-1E+10	1	-1E+10	1	-1E+10	1
4901784	4	C	08/14/2015	10:49	-128.958	46.836	0	239.70	0	6.6780	0	33.8890	0	26.590	0	237.576	0	130.6	4	43.8	4	-1E+10	1	-1E+10	1	-1E+10	1	-1E+10	1	-1E+10	1	-1E+10	1
4901784	4	C	08/14/2015	10:49	-128.958	46.836	0	242.30	0	6.6510	0	33.8870	0	26.592	0	240.152	0	131.2	4	44.0	4	-1E+10	1	-1E+10	1	-1E+10	1	-1E+10	1	-1E+10	1	-1E+10	1
4901784	4	C	08/14/2015	10:49	-128.958	46.836	0	244.90	0	6.6130	0	33.8850	0	26.596	0	242.727	0	131.8	4	44.2	4	-1E+10	1	-1E+10	1	-1E+10	1	-1E+10	1	-1E+10	1	-1E+10	1
4901784	4	C	08/14/2015	10:49	-128.958	46.836	0	247.40	0	6.5540	0	33.8830	0	26.602	0	245.203	0	129.8	4	43.4	4	-1E+10	1	-1E+10	1	-1E+10	1	-1E+10	1	-1E+10	1	-1E+10	1
4901784	4	C	08/14/2015	10:49	-128.958	46.836	0	250.10	0	6.5350	0	33.8830	0	26.604	0	247.878	0	125.6	4	42.0	4	-1E+10	1	-1E+10	1	-1E+10	1	-1E+10	1	-1E+10	1	-1E+10	1
4901784	4	C	08/14/2015	10:49	-128.958	46.836	0	252.60	0	6.5340	0	33.8910	0	26.611	0	250.354	0	119.3	4	39.9	4	-1E+10	1	-1E+10	1	-1E+10	1	-1E+10	1	-1E+10	1	-1E+10	1
4901784	4	C	08/14/2015	10:49	-128.958	46.836	0	255.30	0	6.5310	0	33.9000	0	26.618	0	253.028	0	115.0	4	38.5	4	-1E+10	1	-1E+10	1	-1E+10	1	-1E+10	1	-1E+10	1	-1E+10	1
4901784	4	C	08/14/2015	10:49	-128.958	46.836	0	257.80	0	6.5430	0	33.9060	0	26.622	0	255.505	0	112.9	4	37.8	4	-1E+10	1	-1E+10	1	-1E+10	1	-1E+10	1	-1E+10	1	-1E+10	1
4901784	4	C	08/14/2015	10:49	-128.958	46.836	0	260.40	0	6.5310	0	33.9090	0	26.626	0	258.080	0	112.4	4	37.6	4	-1E+10	1	-1E+10	1	-1E+10	1	-1E+10	1	-1E+10	1	-1E+10	1
4901784	4	C	08/14/2015	10:49	-128.958	46.836	0	262.20	0	6.5100	0	33.9100	0	26.629	0	259.863	0	112.5	4	37.6	4	-1E+10	1	-1E+10	1	-1E+10	1	-1E+10	1	-1E+10	1	-1E+10	1
4901784	4	C	08/14/2015	10:49	-128.958	46.836	0	264.80	0	6.4990	0	33.9080	0	26.629	0	262.438	0	112.7	4	37.7	4	-1E+10	1	-1E+10	1	-1E+10	1	-1E+10	1	-1E+10	1	-1E+10	1
4901784	4	C	08/14/2015	10:49	-128.958	46.836	0	267.50	0	6.4410	0	33.9050	0	26.634	0	265.112	0	112.6	4	37.6	4	-1E+10	1	-1E+10	1	-1E+10	1	-1E+10	1	-1E+10	1	-1E+10	1
4901784	4	C	08/14/2015	10:49	-128.958	46.836	0	270.20	0	6.4330	0	33.9060	0	26.636	0	267.786	0	111.8	4	37.3	4	-1E+10	1	-1E+10	1	-1E+10	1	-1E+10	1	-1E+10	1	-1E+10	1
4901784	4	C	08/14/2015	10:49	-128.958	46.836	0	272.80	0	6.4040	0	33.9070	0	26.641	0	270.361	0	111.3	4	37.1	4	-1E+10	1	-1E+10	1	-1E+10	1	-1E+10	1	-1E+10	1	-1E+10	1
4901784	4	C	08/14/2015	10:49	-128.958	46.836	0	274.60	0	6.3840	0	33.9050	0	26.642	0	272.144	0	110.6	4	36.9	4	-1E+10	1	-1E+10	1	-1E+10	1	-1E+10	1	-1E+10	1	-1E+10	1
4901784	4	C	08/14/2015	10:49	-128.958	46.836	0	277.30	0	6.3440	0	33.9080	0	26.649	0	274.818	0	109.1	4	36.3	4	-1E+10	1	-1E+10	1	-1E+10	1	-1E+10	1	-1E+10	1	-1E+10	1
4901784	4	C	08/14/2015	10:49	-128.958	46.836	0	279.90	0	6.2970	0	33.9080	0	26.655	0	277.393	0	108.1	4	36.0	4	-1E+10	1	-1E+10	1	-1E+10	1	-1E+10	1	-1E+10	1	-1E+10	1
4901784	4	C	08/14/2015	10:49	-128.958	46.836	0	282.60	0	6.2820	0	33.9100	0	26.659	0	280.067	0	107.1	4	35.6	4	-1E+10	1	-1E+10	1	-1E+10	1	-1E+10	1	-1E+10	1	-1E+10	1
4901784	4	C	08/14/2015	10:49	-128.958	46.836	0	285.30	0	6.2610	0	33.9120	0	26.663	0	282.741	0	107.2	4	35.6	4	-1E+10	1	-1E+10	1	-1E+10	1	-1E+10	1	-1E+10	1	-1E+10	1
4901784	4	C	08/14/2015	10:49	-128.958	46.836	0	287.00	0	6.2280	0	33.9120	0	26.667	0	284.425	0	108.2	4	35.9	4	-1E+10	1	-1E+10	1	-1E+10	1	-1E+10	1	-1E+10	1	-1E+10	1
4901784	4	C	08/14/2015	10:49	-128.958	46.836	0	289.80	0	6.1460	0	33.9060	0	26.673	0	287.197	0	109.0	4	36.1	4	-1E+10	1	-1E+10	1	-1E+10	1	-1E+10	1	-1E+10	1	-1E+10	1
4901784	4	C	08/14/2015	10:49	-128.958	46.836	0	292.40	0	6.1290	0	33.9010	0	26.671	0	289.772	0	108.9	4	36.1	4	-1E+10	1	-1E+10	1	-1E+10	1	-1E+10	1	-1E+10	1	-1E+10	1
4901784	4	C	08/14/2015	10:49	-128.958	46.836	0	295.20	0	6.0680	0	33.9000	0	26.678	0	292.545	0	107.7	4	35.6	4	-1E+10	1	-1E+10	1	-1E+10	1	-1E+10	1	-1E+10	1	-1E+10	1
4901784	4	C	08/14/2015	10:49	-128.958	46.836	0	297.90	0	6.0490	0	33.9060	0	26.685	0	295.219	0	106.6	4	35.3	4	-1E+10	1	-1E+10	1	-1E+10	1	-1E+10	1	-1E+10	1	-1E+10	1
4901784	4	C	08/14/2015	10:49	-128.958	46.836	0	299.70	0	6.0190	0	33.9030	0	26.687	0	297.001	0	106.4	4	35.2	4	-1E+10	1	-1E+10	1	-1E+10	1	-1E+10	1	-1E+10	1	-1E+10	1
4901784	4	C	08/14/2015	10:49	-128.958	46.836	0	302.50	0	5.9640	0	33.9030	0	26.694	0	299.774	0	104.8	4	34.6	4	-1E+10	1	-1E+10	1	-1E+10	1	-1E+10	1	-1E+10	1	-1E+10	1
4901784	4	C	08/14/2015	10:49	-128.958	46.836	0	305.30	0	5.9080	0	33.9020	0	26.700	0	302.547	0	103.0	4	34.0	4	-1E+10	1	-1E+10	1	-1E+10	1	-1E+10	1	-1E+10	1	-1E+10	1
4901784	4	C	08/14/2015	10:49	-128.958	46.836	0	307.10	0	5.9050	0	33.9050	0	26.703	0	304.329	0	101.6	4	33.5	4	-1E+10	1	-1E+10	1	-1E+10	1	-1E+10	1	-1E+10	1	-1E+10	1
4901784	4	C	08/14/2015	10:49	-128.958	46.836	0	309.90	0	5.8810	0	33.9060	0	26.706	0	307.102	0	99.8	4	32.9	4	-1E+10	1	-1E+10	1	-1E+10	1	-1E+10	1	-1E+10	1	-1E+10	1
4901784	4	C	08/14/2015	10:49	-128.958	46.836	0	312.70	0	5.8160	0	33.9060	0	26.714	0	309.875	0	97.6	4	32.1	4	-1E+10	1	-1E+10	1	-1E+10	1	-1E+10	1	-1E+10	1	-1E+10	1
4901784	4	C	08/14/2015	10:49	-128.958	46.836	0	314.50	0	5.8050	0	33.9070	0	26.717	0	311.657	0	96.0	4	31.6	4	-1E+10	1	-1E+10	1	-1E+10	1	-1E+10	1	-1E+10	1	-1E+10	1
4901784	4	C	08/14/2015	10:49	-128.958	46.836	0	317.50	0	5.7610	0	33.9120	0	26.726	0	314.628	0	93.2	4	30.6	4	-1E+10	1	-1E+10	1	-1E+10	1	-1E+10	1	-1E+10	1	-1E+10	1
4901784	4	C	08/14/2015	10:49	-128.958	46.836	0	319.90	0	5.7540	0	33.9160	0	26.730	0	317.004	0	90.7	4	29.8	4	-1E+10	1	-1E+10	1	-1E+10	1	-1E+10	1	-1E+10	1	-1E+10	1
4901784	4	C	08/14/2015	10:49	-128.958	46.836	0	322.30	0	5.7590	0	33.9240	0	26.736	0	319.381	0	89.0	4	29.3	4	-1E+10	1	-1E+10	1	-1E+10	1	-1E+10	1	-1E+10	1	-1E+10	1
4901784	4	C	08/14/2015	10:49	-128.958	46.836	0	324.70	0	5.7320	0	33.9260	0	26.741	0	321.757	0	88.5	4	29.0	4	-1E+10	1	-1E+10	1	-1E+10	1	-1E+10	1	-1E+10	1	-1E+10	1
4901784	4	C	08/14/2015	10:49	-128.958	46.836	0	327.10	0	5.6890	0	33.9230	0	26.744	0	324.133	0	88.0	4	28.9	4	-1E+10	1	-1E+10	1	-1E+10	1	-1E+10	1	-1E+10	1	-1E+10	1
4901784	4	C	08/14/2015	10:49	-128.958	46.836	0	329.60	0	5.6830	0	33.9250	0	26.746	0	326.609	0	87.1	4	28.6	4	-1E+10	1	-1E+10	1	-1E+10	1	-1E+10	1	-1E+10	1	-1E+10	1
4901784	4	C	08/14/2015	10:49	-128.958	46.836	0	332.80	0	5.6520	0	33.9260	0	26.750	0	329.777	0	86.2	4	28.3	4	-1E+10	1	-1E+10	1	-1E+10	1	-1E+10	1	-1E+10	1	-1E+10	1
4901784	4	C	08/14/2015	10:49	-128.958	46.836	0	335.30	0	5.6370	0	33.9280	0	26.754	0	332.252	0	86.0	4	28.2	4	-1E+10	1	-1E+10	1	-1E+10	1	-1E+10	1	-1E+10	1	-1E+10	1
4901784	4	C	08/14/2015	10:49	-128.958	46.836	0	337.80	0	5.6140	0	33.9260	0	26.755	0	334.728	0	85.8	4	28.1	4	-1E+10	1	-1E+10	1	-1E+10	1	-1E+10	1	-1E+10	1	-1E+10	1
4901784	4	C	08/14/2015	10:49	-128.958	46.836	0	340.20	0	5.5810	0	33.9230	0	26.757	0	337.104	0	85.7	4	28.1	4	-1E+10	1	-1E+10	1	-1E+10	1	-1E+10	1	-1E+10	1	-1E+10	1
4901784	4	C	08/14/2015	10:49	-128.958	46.836	0	342.80	0	5.5440	0	33.9220	0	26.760	0	339.678	0	85.0	4	27.8	4	-1E+10	1	-1E+10	1	-1E+10	1	-1E+10	1	-1E+10	1	-1E+10	1
4901784	4	C	08/14/2015	10:49	-128.958	46.836	0	345.20	0	5.5230	0	33.9230	0	26.764	0	342.054	0	84.1	4	27.5	4	-1E+10	1	-1E+10	1	-1E+10	1	-1E+10	1	-1E+10	1	-1E+10	1
4901784	4	C	08/14/2015	10:49	-128.958	46.836	0	347.70	0	5.5140	0	33.9240	0	26.766	0	344.529	0	83.1	4	27.1	4	-1E+10	1	-1E+10	1	-1E+10	1	-1E+10	1	-1E+10	1	-1E+10	1
4901784	4	C	08/14/2015	10:49	-128.958	46.836	0	350.10	0	5.5060	0	33.9240	0	26.767	0	346.905	0	81.8	4	26.7	4	-1E+10	1	-1E+10	1	-1E+10	1	-1E+10	1	-1E+10	1	-1E+10	1
4901784	4	C	08/14/2015	10:49	-128.958	46.836	0	352.60	0	5.4600	0	33.9280	0	26.775	0	349.381	0	80.5	4	26.3	4	-1E+10	1	-1E+10	1	-1E+10	1	-1E+10	1	-1E+10	1	-1E+10	1
4901784	4	C	08/14/2015	10:49	-128.958	46.836	0	355.10	0	5.4260	0	33.9280	0	26.779	0	351.856	0	79.5	4	25.9	4	-1E+10	1	-1E+10	1	-1E+10	1	-1E+10	1	-1E+10	1	-1E+10	1
4901784	4	C	08/14/2015	10:49	-128.958	46.836	0	357.70	0	5.4020	0	33.9300	0	26.784	0	354.430	0	78.5	4	25.6	4	-1E+10	1	-1E+10	1	-1E+10	1	-1E+10	1	-1E+10	1	-1E+10	1
4901784	4	C	08/14/2015	10:49	-128.958	46.836	0	360.20	0	5.3800	0	33.9310	0	26.787	0	356.905	0	77.4	4	25.2	4	-1E+10	1	-1E+10	1	-1E+10	1	-1E+10	1	-1E+10	1	-1E+10	1
4901784	4	C	08/14/2015	10:49	-128.958	46.836	0	362.70	0	5.3600	0	33.9330	0	26.791	0	359.380	0	76.2	4	24.8	4	-1E+10	1	-1E+10	1	-1E+10	1	-1E+10	1	-1E+10	1	-1E+10	1
4901784	4	C	08/14/2015	10:49	-128.958	46.836	0	365.20	0	5.3460	0	33.9350	0	26.794	0	361.855	0	74.8	4	24.4	4	-1E+10	1	-1E+10	1	-1E+10	1	-1E+10	1	-1E+10	1	-1E+10	1
4901784	4	C	08/14/2015	10:49	-128.958	46.836	0	367.80	0	5.3240	0	33.9370	0	26.799	0	364.428	0	74.0	4	24.1	4	-1E+10	1	-1E+10	1	-1E+10	1	-1E+10	1	-1E+10	1	-1E+10	1
4901784	4	C	08/14/2015	10:49	-128.958	46.836	0	370.30	0	5.3040	0	33.9390	0	26.803	0	366.903	0	72.8	4	23.7	4	-1E+10	1	-1E+10	1	-1E+10	1	-1E+10	1	-1E+10	1	-1E+10	1
4901784	4	C	08/14/2015	10:49	-128.958	46.836	0	372.00	0	5.2960	0	33.9390	0	26.803	0	368.586	0	72.0	4	23.4	4	-1E+10	1	-1E+10	1	-1E+10	1	-1E+10	1	-1E+10	1	-1E+10	1
4901784	4	C	08/14/2015	10:49	-128.958	46.836	0	374.60	0	5.2800	0	33.9410	0	26.807	0	371.160	0	70.6	4	22.9	4	-1E+10	1	-1E+10	1	-1E+10	1	-1E+10	1	-1E+10	1	-1E+10	1
4901784	4	C	08/14/2015	10:49	-128.958	46.836	0	377.20	0	5.2420	0	33.9460	0	26.815	0	373.734	0	69.0	4	22.4	4	-1E+10	1	-1E+10	1	-1E+10	1	-1E+10	1	-1E+10	1	-1E+10	1
4901784	4	C	08/14/2015	10:49	-128.958	46.836	0	379.80	0	5.2420	0	33.9490	0	26.818	0	376.307	0	67.9	4	22.0	4	-1E+10	1	-1E+10	1	-1E+10	1	-1E+10	1	-1E+10	1	-1E+10	1
4901784	4	C	08/14/2015	10:49	-128.958	46.836	0	382.40	0	5.2330	0	33.9530	0	26.822	0	378.881	0	67.0	4	21.8	4	-1E+10	1	-1E+10	1	-1E+10	1	-1E+10	1	-1E+10	1	-1E+10	1
4901784	4	C	08/14/2015	10:49	-128.958	46.836	0	385.00	0	5.2290	0	33.9520	0	26.822	0	381.455	0	66.2	4	21.5	4	-1E+10	1	-1E+10	1	-1E+10	1	-1E+10	1	-1E+10	1	-1E+10	1
4901784	4	C	08/14/2015	10:49	-128.958	46.836	0	387.50	0	5.1850	0	33.9540	0	26.828	0	383.930	0	65.0	4	21.1	4	-1E+10	1	-1E+10	1	-1E+10	1	-1E+10	1	-1E+10	1	-1E+10	1
4901784	4	C	08/14/2015	10:49	-128.958	46.836	0	390.20	0	5.1660	0	33.9570	0	26.833	0	386.602	0	63.8	4	20.7	4	-1E+10	1	-1E+10	1	-1E+10	1	-1E+10	1	-1E+10	1	-1E+10	1
4901784	4	C	08/14/2015	10:49	-128.958	46.836	0	392.80	0	5.1390	0	33.9620	0	26.840	0	389.176	0	62.8	4	20.3	4	-1E+10	1	-1E+10	1	-1E+10	1	-1E+10	1	-1E+10	1	-1E+10	1
4901784	4	C	08/14/2015	10:49	-128.958	46.836	0	394.60	0	5.1400	0	33.9630	0	26.841	0	390.957	0	62.4	4	20.2	4	-1E+10	1	-1E+10	1	-1E+10	1	-1E+10	1	-1E+10	1	-1E+10	1
4901784	4	C	08/14/2015	10:49	-128.958	46.836	0	397.20	0	5.1340	0	33.9630	0	26.841	0	393.531	0	61.7	4	20.0	4	-1E+10	1	-1E+10	1	-1E+10	1	-1E+10	1	-1E+10	1	-1E+10	1
4901784	4	C	08/14/2015	10:49	-128.958	46.836	0	399.80	0	5.1190	0	33.9650	0	26.845	0	396.104	0	60.8	4	19.7	4	-1E+10	1	-1E+10	1	-1E+10	1	-1E+10	1	-1E+10	1	-1E+10	1
4901784	4	C	08/14/2015	10:49	-128.958	46.836	0	402.40	0	5.1020	0	33.9680	0	26.849	0	398.678	0	60.0	4	19.4	4	-1E+10	1	-1E+10	1	-1E+10	1	-1E+10	1	-1E+10	1	-1E+10	1
4901784	4	C	08/14/2015	10:49	-128.958	46.836	0	405.10	0	5.0930	0	33.9680	0	26.850	0	401.350	0	59.2	4	19.1	4	-1E+10	1	-1E+10	1	-1E+10	1	-1E+10	1	-1E+10	1	-1E+10	1
4901784	4	C	08/14/2015	10:49	-128.958	46.836	0	407.80	0	5.0720	0	33.9730	0	26.857	0	404.023	0	58.4	4	18.9	4	-1E+10	1	-1E+10	1	-1E+10	1	-1E+10	1	-1E+10	1	-1E+10	1
4901784	4	C	08/14/2015	10:49	-128.958	46.836	0	410.40	0	5.0610	0	33.9730	0	26.858	0	406.596	0	58.0	4	18.7	4	-1E+10	1	-1E+10	1	-1E+10	1	-1E+10	1	-1E+10	1	-1E+10	1
4901784	4	C	08/14/2015	10:49	-128.958	46.836	0	412.10	0	5.0440	0	33.9750	0	26.861	0	408.279	0	57.6	4	18.6	4	-1E+10	1	-1E+10	1	-1E+10	1	-1E+10	1	-1E+10	1	-1E+10	1
4901784	4	C	08/14/2015	10:49	-128.958	46.836	0	414.80	0	5.0360	0	33.9760	0	26.863	0	410.951	0	57.0	4	18.4	4	-1E+10	1	-1E+10	1	-1E+10	1	-1E+10	1	-1E+10	1	-1E+10	1
4901784	4	C	08/14/2015	10:49	-128.958	46.836	0	417.40	0	5.0270	0	33.9770	0	26.865	0	413.524	0	56.2	4	18.2	4	-1E+10	1	-1E+10	1	-1E+10	1	-1E+10	1	-1E+10	1	-1E+10	1
4901784	4	C	08/14/2015	10:49	-128.958	46.836	0	420.10	0	5.0210	0	33.9800	0	26.868	0	416.197	0	55.6	4	18.0	4	-1E+10	1	-1E+10	1	-1E+10	1	-1E+10	1	-1E+10	1	-1E+10	1
4901784	4	C	08/14/2015	10:49	-128.958	46.836	0	422.80	0	4.9970	0	33.9840	0	26.874	0	418.869	0	55.0	4	17.8	4	-1E+10	1	-1E+10	1	-1E+10	1	-1E+10	1	-1E+10	1	-1E+10	1
4901784	4	C	08/14/2015	10:49	-128.958	46.836	0	424.50	0	4.9920	0	33.9830	0	26.874	0	420.551	0	54.8	4	17.7	4	-1E+10	1	-1E+10	1	-1E+10	1	-1E+10	1	-1E+10	1	-1E+10	1
4901784	4	C	08/14/2015	10:49	-128.958	46.836	0	427.20	0	4.9810	0	33.9840	0	26.876	0	423.223	0	54.3	4	17.5	4	-1E+10	1	-1E+10	1	-1E+10	1	-1E+10	1	-1E+10	1	-1E+10	1
4901784	4	C	08/14/2015	10:49	-128.958	46.836	0	429.90	0	4.9610	0	33.9850	0	26.879	0	425.895	0	53.8	4	17.4	4	-1E+10	1	-1E+10	1	-1E+10	1	-1E+10	1	-1E+10	1	-1E+10	1
4901784	4	C	08/14/2015	10:49	-128.958	46.836	0	432.60	0	4.9390	0	33.9870	0	26.883	0	428.567	0	53.4	4	17.2	4	-1E+10	1	-1E+10	1	-1E+10	1	-1E+10	1	-1E+10	1	-1E+10	1
4901784	4	C	08/14/2015	10:49	-128.958	46.836	0	435.40	0	4.9210	0	33.9890	0	26.887	0	431.338	0	53.1	4	17.1	4	-1E+10	1	-1E+10	1	-1E+10	1	-1E+10	1	-1E+10	1	-1E+10	1
4901784	4	C	08/14/2015	10:49	-128.958	46.836	0	437.20	0	4.9020	0	33.9890	0	26.889	0	433.120	0	52.9	4	17.0	4	-1E+10	1	-1E+10	1	-1E+10	1	-1E+10	1	-1E+10	1	-1E+10	1
4901784	4	C	08/14/2015	10:49	-128.958	46.836	0	439.90	0	4.8990	0	33.9890	0	26.889	0	435.792	0	52.4	4	16.9	4	-1E+10	1	-1E+10	1	-1E+10	1	-1E+10	1	-1E+10	1	-1E+10	1
4901784	4	C	08/14/2015	10:49	-128.958	46.836	0	442.60	0	4.8960	0	33.9890	0	26.890	0	438.464	0	51.7	4	16.6	4	-1E+10	1	-1E+10	1	-1E+10	1	-1E+10	1	-1E+10	1	-1E+10	1
4901784	4	C	08/14/2015	10:49	-128.958	46.836	0	445.20	0	4.8890	0	33.9910	0	26.892	0	441.037	0	50.9	4	16.4	4	-1E+10	1	-1E+10	1	-1E+10	1	-1E+10	1	-1E+10	1	-1E+10	1
4901784	4	C	08/14/2015	10:49	-128.958	46.836	0	448.00	0	4.8440	0	33.9980	0	26.903	0	443.807	0	50.2	4	16.2	4	-1E+10	1	-1E+10	1	-1E+10	1	-1E+10	1	-1E+10	1	-1E+10	1
4901784	4	C	08/14/2015	10:49	-128.958	46.836	0	449.80	0	4.8470	0	33.9970	0	26.901	0	445.589	0	49.9	4	16.1	4	-1E+10	1	-1E+10	1	-1E+10	1	-1E+10	1	-1E+10	1	-1E+10	1
4901784	4	C	08/14/2015	10:49	-128.958	46.836	0	452.70	0	4.8180	0	33.9990	0	26.906	0	448.458	0	49.5	4	15.9	4	-1E+10	1	-1E+10	1	-1E+10	1	-1E+10	1	-1E+10	1	-1E+10	1
4901784	4	C	08/14/2015	10:49	-128.958	46.836	0	455.10	0	4.8060	0	34.0000	0	26.908	0	450.833	0	48.8	4	15.7	4	-1E+10	1	-1E+10	1	-1E+10	1	-1E+10	1	-1E+10	1	-1E+10	1
4901784	4	C	08/14/2015	10:49	-128.958	46.836	0	457.40	0	4.8100	0	34.0040	0	26.911	0	453.109	0	48.1	4	15.4	4	-1E+10	1	-1E+10	1	-1E+10	1	-1E+10	1	-1E+10	1	-1E+10	1
4901784	4	C	08/14/2015	10:49	-128.958	46.836	0	459.80	0	4.8010	0	34.0050	0	26.913	0	455.484	0	47.3	4	15.2	4	-1E+10	1	-1E+10	1	-1E+10	1	-1E+10	1	-1E+10	1	-1E+10	1
4901784	4	C	08/14/2015	10:49	-128.958	46.836	0	462.30	0	4.8000	0	34.0070	0	26.915	0	457.958	0	46.5	4	15.0	4	-1E+10	1	-1E+10	1	-1E+10	1	-1E+10	1	-1E+10	1	-1E+10	1
4901784	4	C	08/14/2015	10:49	-128.958	46.836	0	464.60	0	4.8050	0	34.0110	0	26.917	0	460.234	0	45.7	4	14.7	4	-1E+10	1	-1E+10	1	-1E+10	1	-1E+10	1	-1E+10	1	-1E+10	1
4901784	4	C	08/14/2015	10:49	-128.958	46.836	0	467.90	0	4.7840	0	34.0130	0	26.921	0	463.499	0	45.5	4	14.6	4	-1E+10	1	-1E+10	1	-1E+10	1	-1E+10	1	-1E+10	1	-1E+10	1
4901784	4	C	08/14/2015	10:49	-128.958	46.836	0	470.30	0	4.7580	0	34.0150	0	26.926	0	465.874	0	45.0	4	14.4	4	-1E+10	1	-1E+10	1	-1E+10	1	-1E+10	1	-1E+10	1	-1E+10	1
4901784	4	C	08/14/2015	10:49	-128.958	46.836	0	472.80	0	4.7580	0	34.0150	0	26.926	0	468.347	0	44.5	4	14.3	4	-1E+10	1	-1E+10	1	-1E+10	1	-1E+10	1	-1E+10	1	-1E+10	1
4901784	4	C	08/14/2015	10:49	-128.958	46.836	0	475.30	0	4.7470	0	34.0180	0	26.929	0	470.821	0	44.0	4	14.1	4	-1E+10	1	-1E+10	1	-1E+10	1	-1E+10	1	-1E+10	1	-1E+10	1
4901784	4	C	08/14/2015	10:49	-128.958	46.836	0	477.80	0	4.7450	0	34.0200	0	26.931	0	473.295	0	43.5	4	14.0	4	-1E+10	1	-1E+10	1	-1E+10	1	-1E+10	1	-1E+10	1	-1E+10	1
4901784	4	C	08/14/2015	10:49	-128.958	46.836	0	480.30	0	4.7460	0	34.0210	0	26.932	0	475.768	0	43.0	4	13.8	4	-1E+10	1	-1E+10	1	-1E+10	1	-1E+10	1	-1E+10	1	-1E+10	1
4901784	4	C	08/14/2015	10:49	-128.958	46.836	0	482.70	0	4.7330	0	34.0240	0	26.936	0	478.143	0	42.7	4	13.7	4	-1E+10	1	-1E+10	1	-1E+10	1	-1E+10	1	-1E+10	1	-1E+10	1
4901784	4	C	08/14/2015	10:49	-128.958	46.836	0	485.10	0	4.7200	0	34.0240	0	26.937	0	480.517	0	42.5	4	13.6	4	-1E+10	1	-1E+10	1	-1E+10	1	-1E+10	1	-1E+10	1	-1E+10	1
4901784	4	C	08/14/2015	10:49	-128.958	46.836	0	487.70	0	4.7140	0	34.0270	0	26.940	0	483.090	0	42.2	4	13.5	4	-1E+10	1	-1E+10	1	-1E+10	1	-1E+10	1	-1E+10	1	-1E+10	1
4901784	4	C	08/14/2015	10:49	-128.958	46.836	0	490.20	0	4.7070	0	34.0280	0	26.942	0	485.563	0	41.9	4	13.5	4	-1E+10	1	-1E+10	1	-1E+10	1	-1E+10	1	-1E+10	1	-1E+10	1
4901784	4	C	08/14/2015	10:49	-128.958	46.836	0	492.70	0	4.6990	0	34.0280	0	26.943	0	488.037	0	41.8	4	13.4	4	-1E+10	1	-1E+10	1	-1E+10	1	-1E+10	1	-1E+10	1	-1E+10	1
4901784	4	C	08/14/2015	10:49	-128.958	46.836	0	495.30	0	4.6890	0	34.0280	0	26.944	0	490.609	0	41.5	4	13.3	4	-1E+10	1	-1E+10	1	-1E+10	1	-1E+10	1	-1E+10	1	-1E+10	1
4901784	4	C	08/14/2015	10:49	-128.958	46.836	0	497.80	0	4.6840	0	34.0300	0	26.946	0	493.082	0	41.0	4	13.1	4	-1E+10	1	-1E+10	1	-1E+10	1	-1E+10	1	-1E+10	1	-1E+10	1
4901784	4	C	08/14/2015	10:49	-128.958	46.836	0	500.40	0	4.6730	0	34.0330	0	26.950	0	495.655	0	40.5	4	13.0	4	-1E+10	1	-1E+10	1	-1E+10	1	-1E+10	1	-1E+10	1	-1E+10	1
4901784	4	C	08/14/2015	10:49	-128.958	46.836	0	505.60	0	4.6600	0	34.0360	0	26.954	0	500.799	0	40.0	4	12.8	4	-1E+10	1	-1E+10	1	-1E+10	1	-1E+10	1	-1E+10	1	-1E+10	1
4901784	4	C	08/14/2015	10:49	-128.958	46.836	0	509.90	0	4.6450	0	34.0370	0	26.956	0	505.053	0	39.6	4	12.7	4	-1E+10	1	-1E+10	1	-1E+10	1	-1E+10	1	-1E+10	1	-1E+10	1
4901784	4	C	08/14/2015	10:49	-128.958	46.836	0	514.30	0	4.6310	0	34.0390	0	26.959	0	509.406	0	39.0	4	12.5	4	-1E+10	1	-1E+10	1	-1E+10	1	-1E+10	1	-1E+10	1	-1E+10	1
4901784	4	C	08/14/2015	10:49	-128.958	46.836	0	519.50	0	4.6120	0	34.0420	0	26.964	0	514.550	0	38.5	4	12.3	4	-1E+10	1	-1E+10	1	-1E+10	1	-1E+10	1	-1E+10	1	-1E+10	1
4901784	4	C	08/14/2015	10:49	-128.958	46.836	0	524.80	0	4.5970	0	34.0440	0	26.967	0	519.793	0	38.1	4	12.2	4	-1E+10	1	-1E+10	1	-1E+10	1	-1E+10	1	-1E+10	1	-1E+10	1
4901784	4	C	08/14/2015	10:49	-128.958	46.836	0	530.10	0	4.5840	0	34.0450	0	26.969	0	525.035	0	37.8	4	12.1	4	-1E+10	1	-1E+10	1	-1E+10	1	-1E+10	1	-1E+10	1	-1E+10	1
4901784	4	C	08/14/2015	10:49	-128.958	46.836	0	535.40	0	4.5530	0	34.0480	0	26.975	0	530.278	0	37.1	4	11.9	4	-1E+10	1	-1E+10	1	-1E+10	1	-1E+10	1	-1E+10	1	-1E+10	1
4901784	4	C	08/14/2015	10:49	-128.958	46.836	0	539.90	0	4.5370	0	34.0520	0	26.980	0	534.729	0	36.6	4	11.7	4	-1E+10	1	-1E+10	1	-1E+10	1	-1E+10	1	-1E+10	1	-1E+10	1
4901784	4	C	08/14/2015	10:49	-128.958	46.836	0	544.40	0	4.5120	0	34.0520	0	26.983	0	539.180	0	36.2	4	11.6	4	-1E+10	1	-1E+10	1	-1E+10	1	-1E+10	1	-1E+10	1	-1E+10	1
4901784	4	C	08/14/2015	10:49	-128.958	46.836	0	549.70	0	4.4870	0	34.0560	0	26.989	0	544.423	0	35.3	4	11.3	4	-1E+10	1	-1E+10	1	-1E+10	1	-1E+10	1	-1E+10	1	-1E+10	1
4901784	4	C	08/14/2015	10:49	-128.958	46.836	0	555.10	0	4.4580	0	34.0610	0	26.996	0	549.764	0	34.5	4	11.0	4	-1E+10	1	-1E+10	1	-1E+10	1	-1E+10	1	-1E+10	1	-1E+10	1
4901784	4	C	08/14/2015	10:49	-128.958	46.836	0	560.50	0	4.4330	0	34.0660	0	27.002	0	555.104	0	33.9	4	10.8	4	-1E+10	1	-1E+10	1	-1E+10	1	-1E+10	1	-1E+10	1	-1E+10	1
4901784	4	C	08/14/2015	10:49	-128.958	46.836	0	565.10	0	4.4180	0	34.0680	0	27.006	0	559.654	0	33.4	4	10.7	4	-1E+10	1	-1E+10	1	-1E+10	1	-1E+10	1	-1E+10	1	-1E+10	1
4901784	4	C	08/14/2015	10:49	-128.958	46.836	0	569.70	0	4.4080	0	34.0690	0	27.007	0	564.203	0	33.0	4	10.5	4	-1E+10	1	-1E+10	1	-1E+10	1	-1E+10	1	-1E+10	1	-1E+10	1
4901784	4	C	08/14/2015	10:49	-128.958	46.836	0	575.30	0	4.3950	0	34.0730	0	27.012	0	569.742	0	32.3	4	10.3	4	-1E+10	1	-1E+10	1	-1E+10	1	-1E+10	1	-1E+10	1	-1E+10	1
4901784	4	C	08/14/2015	10:49	-128.958	46.836	0	579.90	0	4.3820	0	34.0760	0	27.016	0	574.291	0	31.8	4	10.1	4	-1E+10	1	-1E+10	1	-1E+10	1	-1E+10	1	-1E+10	1	-1E+10	1
4901784	4	C	08/14/2015	10:49	-128.958	46.836	0	584.40	0	4.3760	0	34.0780	0	27.018	0	578.741	0	31.0	4	9.9	4	-1E+10	1	-1E+10	1	-1E+10	1	-1E+10	1	-1E+10	1	-1E+10	1
4901784	4	C	08/14/2015	10:49	-128.958	46.836	0	590.00	0	4.3510	0	34.0850	0	27.026	0	584.279	0	30.1	4	9.6	4	-1E+10	1	-1E+10	1	-1E+10	1	-1E+10	1	-1E+10	1	-1E+10	1
4901784	4	C	08/14/2015	10:49	-128.958	46.836	0	595.60	0	4.3280	0	34.0870	0	27.030	0	589.817	0	29.6	4	9.4	4	-1E+10	1	-1E+10	1	-1E+10	1	-1E+10	1	-1E+10	1	-1E+10	1
4901784	4	C	08/14/2015	10:49	-128.958	46.836	0	600.20	0	4.3040	0	34.0910	0	27.036	0	594.366	0	29.1	4	9.2	4	-1E+10	1	-1E+10	1	-1E+10	1	-1E+10	1	-1E+10	1	-1E+10	1
4901784	4	C	08/14/2015	10:49	-128.958	46.836	0	604.80	0	4.2850	0	34.0940	0	27.041	0	598.914	0	28.8	4	9.1	4	-1E+10	1	-1E+10	1	-1E+10	1	-1E+10	1	-1E+10	1	-1E+10	1
4901784	4	C	08/14/2015	10:49	-128.958	46.836	0	610.40	0	4.2640	0	34.0970	0	27.045	0	604.452	0	28.3	4	9.0	4	-1E+10	1	-1E+10	1	-1E+10	1	-1E+10	1	-1E+10	1	-1E+10	1
4901784	4	C	08/14/2015	10:49	-128.958	46.836	0	615.00	0	4.2460	0	34.1000	0	27.050	0	609.000	0	27.8	4	8.8	4	-1E+10	1	-1E+10	1	-1E+10	1	-1E+10	1	-1E+10	1	-1E+10	1
4901784	4	C	08/14/2015	10:49	-128.958	46.836	0	619.60	0	4.2350	0	34.1030	0	27.053	0	613.548	0	26.8	4	8.5	4	-1E+10	1	-1E+10	1	-1E+10	1	-1E+10	1	-1E+10	1	-1E+10	1
4901784	4	C	08/14/2015	10:49	-128.958	46.836	0	625.10	0	4.2710	0	34.1140	0	27.058	0	618.987	0	24.8	4	7.9	4	-1E+10	1	-1E+10	1	-1E+10	1	-1E+10	1	-1E+10	1	-1E+10	1
4901784	4	C	08/14/2015	10:49	-128.958	46.836	0	629.70	0	4.3150	0	34.1270	0	27.064	0	623.535	0	23.2	4	7.4	4	-1E+10	1	-1E+10	1	-1E+10	1	-1E+10	1	-1E+10	1	-1E+10	1
4901784	4	C	08/14/2015	10:49	-128.958	46.836	0	634.40	0	4.3220	0	34.1360	0	27.070	0	628.182	0	22.6	4	7.2	4	-1E+10	1	-1E+10	1	-1E+10	1	-1E+10	1	-1E+10	1	-1E+10	1
4901784	4	C	08/14/2015	10:49	-128.958	46.836	0	639.90	0	4.3100	0	34.1390	0	27.074	0	633.619	0	22.4	4	7.1	4	-1E+10	1	-1E+10	1	-1E+10	1	-1E+10	1	-1E+10	1	-1E+10	1
4901784	4	C	08/14/2015	10:49	-128.958	46.836	0	645.40	0	4.2580	0	34.1410	0	27.081	0	639.057	0	22.2	4	7.0	4	-1E+10	1	-1E+10	1	-1E+10	1	-1E+10	1	-1E+10	1	-1E+10	1
4901784	4	C	08/14/2015	10:49	-128.958	46.836	0	650.00	0	4.2460	0	34.1420	0	27.083	0	643.605	0	21.4	4	6.8	4	-1E+10	1	-1E+10	1	-1E+10	1	-1E+10	1	-1E+10	1	-1E+10	1
4901784	4	C	08/14/2015	10:49	-128.958	46.836	0	655.30	0	4.2620	0	34.1510	0	27.089	0	648.844	0	20.2	4	6.4	4	-1E+10	1	-1E+10	1	-1E+10	1	-1E+10	1	-1E+10	1	-1E+10	1
4901784	4	C	08/14/2015	10:49	-128.958	46.836	0	660.40	0	4.2900	0	34.1620	0	27.095	0	653.886	0	19.1	4	6.1	4	-1E+10	1	-1E+10	1	-1E+10	1	-1E+10	1	-1E+10	1	-1E+10	1
4901784	4	C	08/14/2015	10:49	-128.958	46.836	0	665.30	0	4.2650	0	34.1680	0	27.102	0	658.730	0	18.9	4	6.0	4	-1E+10	1	-1E+10	1	-1E+10	1	-1E+10	1	-1E+10	1	-1E+10	1
4901784	4	C	08/14/2015	10:49	-128.958	46.836	0	670.10	0	4.2510	0	34.1690	0	27.104	0	663.475	0	18.4	4	5.8	4	-1E+10	1	-1E+10	1	-1E+10	1	-1E+10	1	-1E+10	1	-1E+10	1
4901784	4	C	08/14/2015	10:49	-128.958	46.836	0	674.90	0	4.2640	0	34.1750	0	27.108	0	668.220	0	17.9	4	5.7	4	-1E+10	1	-1E+10	1	-1E+10	1	-1E+10	1	-1E+10	1	-1E+10	1
4901784	4	C	08/14/2015	10:49	-128.958	46.836	0	679.80	0	4.2370	0	34.1780	0	27.113	0	673.063	0	18.0	4	5.7	4	-1E+10	1	-1E+10	1	-1E+10	1	-1E+10	1	-1E+10	1	-1E+10	1
4901784	4	C	08/14/2015	10:49	-128.958	46.836	0	684.70	0	4.2020	0	34.1800	0	27.118	0	677.907	0	17.5	4	5.5	4	-1E+10	1	-1E+10	1	-1E+10	1	-1E+10	1	-1E+10	1	-1E+10	1
4901784	4	C	08/14/2015	10:49	-128.958	46.836	0	689.60	0	4.2280	0	34.1870	0	27.121	0	682.750	0	17.1	4	5.4	4	-1E+10	1	-1E+10	1	-1E+10	1	-1E+10	1	-1E+10	1	-1E+10	1
4901784	4	C	08/14/2015	10:49	-128.958	46.836	0	694.60	0	4.2020	0	34.1890	0	27.126	0	687.692	0	17.3	4	5.5	4	-1E+10	1	-1E+10	1	-1E+10	1	-1E+10	1	-1E+10	1	-1E+10	1
4901784	4	C	08/14/2015	10:49	-128.958	46.836	0	699.60	0	4.1430	0	34.1860	0	27.129	0	692.634	0	17.6	4	5.6	4	-1E+10	1	-1E+10	1	-1E+10	1	-1E+10	1	-1E+10	1	-1E+10	1
4901784	4	C	08/14/2015	10:49	-128.958	46.836	0	704.70	0	4.0950	0	34.1870	0	27.135	0	697.675	0	17.8	4	5.6	4	-1E+10	1	-1E+10	1	-1E+10	1	-1E+10	1	-1E+10	1	-1E+10	1
4901784	4	C	08/14/2015	10:49	-128.958	46.836	0	709.90	0	4.0560	0	34.1870	0	27.139	0	702.814	0	17.8	4	5.6	4	-1E+10	1	-1E+10	1	-1E+10	1	-1E+10	1	-1E+10	1	-1E+10	1
4901784	4	C	08/14/2015	10:49	-128.958	46.836	0	715.00	0	4.0370	0	34.1890	0	27.143	0	707.855	0	17.6	4	5.6	4	-1E+10	1	-1E+10	1	-1E+10	1	-1E+10	1	-1E+10	1	-1E+10	1
4901784	4	C	08/14/2015	10:49	-128.958	46.836	0	720.20	0	4.0270	0	34.1920	0	27.146	0	712.994	0	17.3	4	5.5	4	-1E+10	1	-1E+10	1	-1E+10	1	-1E+10	1	-1E+10	1	-1E+10	1
4901784	4	C	08/14/2015	10:49	-128.958	46.836	0	725.40	0	4.0160	0	34.1960	0	27.150	0	718.133	0	17.1	4	5.4	4	-1E+10	1	-1E+10	1	-1E+10	1	-1E+10	1	-1E+10	1	-1E+10	1
4901784	4	C	08/14/2015	10:49	-128.958	46.836	0	729.90	0	3.9920	0	34.1990	0	27.155	0	722.580	0	17.0	4	5.4	4	-1E+10	1	-1E+10	1	-1E+10	1	-1E+10	1	-1E+10	1	-1E+10	1
4901784	4	C	08/14/2015	10:49	-128.958	46.836	0	734.30	0	3.9750	0	34.2000	0	27.158	0	726.928	0	16.9	4	5.3	4	-1E+10	1	-1E+10	1	-1E+10	1	-1E+10	1	-1E+10	1	-1E+10	1
4901784	4	C	08/14/2015	10:49	-128.958	46.836	0	739.60	0	3.9510	0	34.2030	0	27.163	0	732.166	0	16.7	4	5.3	4	-1E+10	1	-1E+10	1	-1E+10	1	-1E+10	1	-1E+10	1	-1E+10	1
4901784	4	C	08/14/2015	10:49	-128.958	46.836	0	745.00	0	3.9370	0	34.2060	0	27.167	0	737.502	0	16.4	4	5.2	4	-1E+10	1	-1E+10	1	-1E+10	1	-1E+10	1	-1E+10	1	-1E+10	1
4901784	4	C	08/14/2015	10:49	-128.958	46.836	0	749.80	0	3.9270	0	34.2130	0	27.173	0	742.245	0	16.0	4	5.0	4	-1E+10	1	-1E+10	1	-1E+10	1	-1E+10	1	-1E+10	1	-1E+10	1
4901784	4	C	08/14/2015	10:49	-128.958	46.836	0	755.00	0	3.9170	0	34.2170	0	27.177	0	747.383	0	15.6	4	4.9	4	-1E+10	1	-1E+10	1	-1E+10	1	-1E+10	1	-1E+10	1	-1E+10	1
4901784	4	C	08/14/2015	10:49	-128.958	46.836	0	760.50	0	3.9130	0	34.2230	0	27.183	0	752.818	0	15.1	4	4.7	4	-1E+10	1	-1E+10	1	-1E+10	1	-1E+10	1	-1E+10	1	-1E+10	1
4901784	4	C	08/14/2015	10:49	-128.958	46.836	0	765.40	0	3.9150	0	34.2280	0	27.186	0	757.660	0	14.8	4	4.7	4	-1E+10	1	-1E+10	1	-1E+10	1	-1E+10	1	-1E+10	1	-1E+10	1
4901784	4	C	08/14/2015	10:49	-128.958	46.836	0	770.20	0	3.8840	0	34.2300	0	27.191	0	762.402	0	14.7	4	4.6	4	-1E+10	1	-1E+10	1	-1E+10	1	-1E+10	1	-1E+10	1	-1E+10	1
4901784	4	C	08/14/2015	10:49	-128.958	46.836	0	775.10	0	3.8860	0	34.2360	0	27.196	0	767.244	0	14.3	4	4.5	4	-1E+10	1	-1E+10	1	-1E+10	1	-1E+10	1	-1E+10	1	-1E+10	1
4901784	4	C	08/14/2015	10:49	-128.958	46.836	0	780.00	0	3.8820	0	34.2410	0	27.200	0	772.085	0	14.1	4	4.4	4	-1E+10	1	-1E+10	1	-1E+10	1	-1E+10	1	-1E+10	1	-1E+10	1
4901784	4	C	08/14/2015	10:49	-128.958	46.836	0	785.10	0	3.8600	0	34.2430	0	27.204	0	777.124	0	14.1	4	4.4	4	-1E+10	1	-1E+10	1	-1E+10	1	-1E+10	1	-1E+10	1	-1E+10	1
4901784	4	C	08/14/2015	10:49	-128.958	46.836	0	790.20	0	3.8530	0	34.2450	0	27.206	0	782.162	0	14.1	4	4.4	4	-1E+10	1	-1E+10	1	-1E+10	1	-1E+10	1	-1E+10	1	-1E+10	1
4901784	4	C	08/14/2015	10:49	-128.958	46.836	0	795.30	0	3.8370	0	34.2460	0	27.209	0	787.201	0	14.0	4	4.4	4	-1E+10	1	-1E+10	1	-1E+10	1	-1E+10	1	-1E+10	1	-1E+10	1
4901784	4	C	08/14/2015	10:49	-128.958	46.836	0	800.20	0	3.8260	0	34.2500	0	27.213	0	792.042	0	13.8	4	4.3	4	-1E+10	1	-1E+10	1	-1E+10	1	-1E+10	1	-1E+10	1	-1E+10	1
4901784	4	C	08/14/2015	10:49	-128.958	46.836	0	805.20	0	3.8170	0	34.2530	0	27.216	0	796.981	0	13.7	4	4.3	4	-1E+10	1	-1E+10	1	-1E+10	1	-1E+10	1	-1E+10	1	-1E+10	1
4901784	4	C	08/14/2015	10:49	-128.958	46.836	0	810.30	0	3.8040	0	34.2570	0	27.221	0	802.019	0	13.6	4	4.3	4	-1E+10	1	-1E+10	1	-1E+10	1	-1E+10	1	-1E+10	1	-1E+10	1
4901784	4	C	08/14/2015	10:49	-128.958	46.836	0	815.40	0	3.7930	0	34.2610	0	27.225	0	807.057	0	13.6	4	4.3	4	-1E+10	1	-1E+10	1	-1E+10	1	-1E+10	1	-1E+10	1	-1E+10	1
4901784	4	C	08/14/2015	10:49	-128.958	46.836	0	820.50	0	3.7850	0	34.2630	0	27.228	0	812.095	0	13.5	4	4.2	4	-1E+10	1	-1E+10	1	-1E+10	1	-1E+10	1	-1E+10	1	-1E+10	1
4901784	4	C	08/14/2015	10:49	-128.958	46.836	0	825.60	0	3.7720	0	34.2660	0	27.231	0	817.133	0	13.4	4	4.2	4	-1E+10	1	-1E+10	1	-1E+10	1	-1E+10	1	-1E+10	1	-1E+10	1
4901784	4	C	08/14/2015	10:49	-128.958	46.836	0	830.70	0	3.7550	0	34.2700	0	27.236	0	822.171	0	13.2	4	4.1	4	-1E+10	1	-1E+10	1	-1E+10	1	-1E+10	1	-1E+10	1	-1E+10	1
4901784	4	C	08/14/2015	10:49	-128.958	46.836	0	835.00	0	3.7500	0	34.2730	0	27.239	0	826.418	0	13.1	4	4.1	4	-1E+10	1	-1E+10	1	-1E+10	1	-1E+10	1	-1E+10	1	-1E+10	1
4901784	4	C	08/14/2015	10:49	-128.958	46.836	0	839.30	0	3.7450	0	34.2750	0	27.241	0	830.665	0	13.0	4	4.1	4	-1E+10	1	-1E+10	1	-1E+10	1	-1E+10	1	-1E+10	1	-1E+10	1
4901784	4	C	08/14/2015	10:49	-128.958	46.836	0	844.50	0	3.7480	0	34.2790	0	27.244	0	835.801	0	12.8	4	4.0	4	-1E+10	1	-1E+10	1	-1E+10	1	-1E+10	1	-1E+10	1	-1E+10	1
4901784	4	C	08/14/2015	10:49	-128.958	46.836	0	849.60	0	3.7470	0	34.2820	0	27.247	0	840.839	0	12.6	4	3.9	4	-1E+10	1	-1E+10	1	-1E+10	1	-1E+10	1	-1E+10	1	-1E+10	1
4901784	4	C	08/14/2015	10:49	-128.958	46.836	0	854.70	0	3.7410	0	34.2860	0	27.251	0	845.876	0	12.5	4	3.9	4	-1E+10	1	-1E+10	1	-1E+10	1	-1E+10	1	-1E+10	1	-1E+10	1
4901784	4	C	08/14/2015	10:49	-128.958	46.836	0	859.80	0	3.7320	0	34.2880	0	27.253	0	850.913	0	12.4	4	3.9	4	-1E+10	1	-1E+10	1	-1E+10	1	-1E+10	1	-1E+10	1	-1E+10	1
4901784	4	C	08/14/2015	10:49	-128.958	46.836	0	864.90	0	3.7210	0	34.2910	0	27.257	0	855.950	0	12.2	4	3.8	4	-1E+10	1	-1E+10	1	-1E+10	1	-1E+10	1	-1E+10	1	-1E+10	1
4901784	4	C	08/14/2015	10:49	-128.958	46.836	0	869.90	0	3.6990	0	34.2930	0	27.260	0	860.888	0	12.2	4	3.8	4	-1E+10	1	-1E+10	1	-1E+10	1	-1E+10	1	-1E+10	1	-1E+10	1
4901784	4	C	08/14/2015	10:49	-128.958	46.836	0	875.00	0	3.6850	0	34.2960	0	27.264	0	865.924	0	12.2	4	3.8	4	-1E+10	1	-1E+10	1	-1E+10	1	-1E+10	1	-1E+10	1	-1E+10	1
4901784	4	C	08/14/2015	10:49	-128.958	46.836	0	880.00	0	3.6630	0	34.2960	0	27.266	0	870.862	0	12.2	4	3.8	4	-1E+10	1	-1E+10	1	-1E+10	1	-1E+10	1	-1E+10	1	-1E+10	1
4901784	4	C	08/14/2015	10:49	-128.958	46.836	0	885.20	0	3.6460	0	34.2980	0	27.270	0	875.997	0	12.2	4	3.8	4	-1E+10	1	-1E+10	1	-1E+10	1	-1E+10	1	-1E+10	1	-1E+10	1
4901784	4	C	08/14/2015	10:49	-128.958	46.836	0	890.20	0	3.6380	0	34.3020	0	27.274	0	880.934	0	12.1	4	3.8	4	-1E+10	1	-1E+10	1	-1E+10	1	-1E+10	1	-1E+10	1	-1E+10	1
4901784	4	C	08/14/2015	10:49	-128.958	46.836	0	895.40	0	3.6330	0	34.3030	0	27.275	0	886.069	0	12.1	4	3.8	4	-1E+10	1	-1E+10	1	-1E+10	1	-1E+10	1	-1E+10	1	-1E+10	1
4901784	4	C	08/14/2015	10:49	-128.958	46.836	0	900.50	0	3.6210	0	34.3050	0	27.278	0	891.105	0	12.1	4	3.8	4	-1E+10	1	-1E+10	1	-1E+10	1	-1E+10	1	-1E+10	1	-1E+10	1
4901784	4	C	08/14/2015	10:49	-128.958	46.836	0	905.60	0	3.5980	0	34.3080	0	27.283	0	896.141	0	12.1	4	3.8	4	-1E+10	1	-1E+10	1	-1E+10	1	-1E+10	1	-1E+10	1	-1E+10	1
4901784	4	C	08/14/2015	10:49	-128.958	46.836	0	910.70	0	3.5820	0	34.3120	0	27.287	0	901.177	0	12.0	4	3.7	4	-1E+10	1	-1E+10	1	-1E+10	1	-1E+10	1	-1E+10	1	-1E+10	1
4901784	4	C	08/14/2015	10:49	-128.958	46.836	0	915.00	0	3.5760	0	34.3140	0	27.290	0	905.423	0	12.0	4	3.7	4	-1E+10	1	-1E+10	1	-1E+10	1	-1E+10	1	-1E+10	1	-1E+10	1
4901784	4	C	08/14/2015	10:49	-128.958	46.836	0	919.30	0	3.5620	0	34.3160	0	27.293	0	909.668	0	11.9	4	3.7	4	-1E+10	1	-1E+10	1	-1E+10	1	-1E+10	1	-1E+10	1	-1E+10	1
4901784	4	C	08/14/2015	10:49	-128.958	46.836	0	924.40	0	3.5430	0	34.3200	0	27.298	0	914.704	0	11.9	4	3.7	4	-1E+10	1	-1E+10	1	-1E+10	1	-1E+10	1	-1E+10	1	-1E+10	1
4901784	4	C	08/14/2015	10:49	-128.958	46.836	0	929.50	0	3.5270	0	34.3230	0	27.302	0	919.739	0	11.9	4	3.7	4	-1E+10	1	-1E+10	1	-1E+10	1	-1E+10	1	-1E+10	1	-1E+10	1
4901784	4	C	08/14/2015	10:49	-128.958	46.836	0	934.70	0	3.5130	0	34.3260	0	27.305	0	924.873	0	11.9	4	3.7	4	-1E+10	1	-1E+10	1	-1E+10	1	-1E+10	1	-1E+10	1	-1E+10	1
4901784	4	C	08/14/2015	10:49	-128.958	46.836	0	940.00	0	3.5030	0	34.3280	0	27.308	0	930.106	0	11.9	4	3.7	4	-1E+10	1	-1E+10	1	-1E+10	1	-1E+10	1	-1E+10	1	-1E+10	1
4901784	4	C	08/14/2015	10:49	-128.958	46.836	0	945.20	0	3.4940	0	34.3310	0	27.311	0	935.239	0	11.8	4	3.7	4	-1E+10	1	-1E+10	1	-1E+10	1	-1E+10	1	-1E+10	1	-1E+10	1
4901784	4	C	08/14/2015	10:49	-128.958	46.836	0	950.50	0	3.4870	0	34.3330	0	27.313	0	940.471	0	11.8	4	3.7	4	-1E+10	1	-1E+10	1	-1E+10	1	-1E+10	1	-1E+10	1	-1E+10	1
4901784	4	C	08/14/2015	10:49	-128.958	46.836	0	954.90	0	3.4730	0	34.3360	0	27.317	0	944.815	0	11.8	4	3.7	4	-1E+10	1	-1E+10	1	-1E+10	1	-1E+10	1	-1E+10	1	-1E+10	1
4901784	4	C	08/14/2015	10:49	-128.958	46.836	0	959.30	0	3.4620	0	34.3380	0	27.320	0	949.159	0	11.8	4	3.7	4	-1E+10	1	-1E+10	1	-1E+10	1	-1E+10	1	-1E+10	1	-1E+10	1
4901784	4	C	08/14/2015	10:49	-128.958	46.836	0	964.70	0	3.4460	0	34.3420	0	27.325	0	954.489	0	11.8	4	3.7	4	-1E+10	1	-1E+10	1	-1E+10	1	-1E+10	1	-1E+10	1	-1E+10	1
4901784	4	C	08/14/2015	10:49	-128.958	46.836	0	970.00	0	3.4340	0	34.3440	0	27.327	0	959.721	0	11.8	4	3.7	4	-1E+10	1	-1E+10	1	-1E+10	1	-1E+10	1	-1E+10	1	-1E+10	1
4901784	4	C	08/14/2015	10:49	-128.958	46.836	0	974.80	0	3.4100	0	34.3480	0	27.333	0	964.459	0	11.8	4	3.7	4	-1E+10	1	-1E+10	1	-1E+10	1	-1E+10	1	-1E+10	1	-1E+10	1
4901784	4	C	08/14/2015	10:49	-128.958	46.836	0	980.00	0	3.4030	0	34.3490	0	27.334	0	969.592	0	11.8	4	3.7	4	-1E+10	1	-1E+10	1	-1E+10	1	-1E+10	1	-1E+10	1	-1E+10	1
4901784	4	C	08/14/2015	10:49	-128.958	46.836	0	985.50	0	3.3980	0	34.3500	0	27.336	0	975.021	0	11.8	4	3.7	4	-1E+10	1	-1E+10	1	-1E+10	1	-1E+10	1	-1E+10	1	-1E+10	1
4901784	4	C	08/14/2015	10:49	-128.958	46.836	0	990.20	0	3.3970	0	34.3520	0	27.337	0	979.660	0	11.8	4	3.7	4	-1E+10	1	-1E+10	1	-1E+10	1	-1E+10	1	-1E+10	1	-1E+10	1
4901784	4	C	08/14/2015	10:49	-128.958	46.836	0	995.00	0	3.3810	0	34.3540	0	27.341	0	984.397	0	11.8	4	3.7	4	-1E+10	1	-1E+10	1	-1E+10	1	-1E+10	1	-1E+10	1	-1E+10	1
4901784	4	C	08/14/2015	10:49	-128.958	46.836	0	999.90	0	3.3630	0	34.3540	0	27.342	0	989.234	0	12.0	4	3.7	4	-1E+10	1	-1E+10	1	-1E+10	1	-1E+10	1	-1E+10	1	-1E+10	1
4901784	4	C	08/14/2015	10:49	-128.958	46.836	0	1004.70	0	3.3070	0	34.3530	0	27.347	0	993.971	0	12.1	4	3.8	4	-1E+10	1	-1E+10	1	-1E+10	1	-1E+10	1	-1E+10	1	-1E+10	1
4901784	4	C	08/14/2015	10:49	-128.958	46.836	0	1009.60	0	3.2700	0	34.3520	0	27.349	0	998.807	0	12.2	4	3.8	4	-1E+10	1	-1E+10	1	-1E+10	1	-1E+10	1	-1E+10	1	-1E+10	1
4901784	4	C	08/14/2015	10:49	-128.958	46.836	0	1014.60	0	3.2550	0	34.3550	0	27.353	0	1003.742	0	12.2	4	3.8	4	-1E+10	1	-1E+10	1	-1E+10	1	-1E+10	1	-1E+10	1	-1E+10	1
4901784	4	C	08/14/2015	10:49	-128.958	46.836	0	1019.60	0	3.2680	0	34.3580	0	27.355	0	1008.676	0	12.2	4	3.8	4	-1E+10	1	-1E+10	1	-1E+10	1	-1E+10	1	-1E+10	1	-1E+10	1
4901784	4	C	08/14/2015	10:49	-128.958	46.836	0	1024.70	0	3.2310	0	34.3580	0	27.358	0	1013.709	0	12.3	4	3.8	4	-1E+10	1	-1E+10	1	-1E+10	1	-1E+10	1	-1E+10	1	-1E+10	1
4901784	4	C	08/14/2015	10:49	-128.958	46.836	0	1029.80	0	3.2250	0	34.3610	0	27.361	0	1018.742	0	12.3	4	3.8	4	-1E+10	1	-1E+10	1	-1E+10	1	-1E+10	1	-1E+10	1	-1E+10	1
4901784	4	C	08/14/2015	10:49	-128.958	46.836	0	1034.90	0	3.2220	0	34.3610	0	27.361	0	1023.775	0	12.2	4	3.8	4	-1E+10	1	-1E+10	1	-1E+10	1	-1E+10	1	-1E+10	1	-1E+10	1
4901784	4	C	08/14/2015	10:49	-128.958	46.836	0	1040.10	0	3.2140	0	34.3640	0	27.364	0	1028.906	0	12.3	4	3.8	4	-1E+10	1	-1E+10	1	-1E+10	1	-1E+10	1	-1E+10	1	-1E+10	1
4901784	4	C	08/14/2015	10:49	-128.958	46.836	0	1045.10	0	3.2000	0	34.3670	0	27.368	0	1033.840	0	12.3	4	3.8	4	-1E+10	1	-1E+10	1	-1E+10	1	-1E+10	1	-1E+10	1	-1E+10	1
4901784	4	C	08/14/2015	10:49	-128.958	46.836	0	1050.30	0	3.1930	0	34.3700	0	27.371	0	1038.971	0	12.3	4	3.8	4	-1E+10	1	-1E+10	1	-1E+10	1	-1E+10	1	-1E+10	1	-1E+10	1
4901784	4	C	08/14/2015	10:49	-128.958	46.836	0	1055.50	0	3.1850	0	34.3720	0	27.374	0	1044.102	0	12.3	4	3.8	4	-1E+10	1	-1E+10	1	-1E+10	1	-1E+10	1	-1E+10	1	-1E+10	1
4901784	4	C	08/14/2015	10:49	-128.958	46.836	0	1059.90	0	3.1790	0	34.3740	0	27.376	0	1048.444	0	12.3	4	3.8	4	-1E+10	1	-1E+10	1	-1E+10	1	-1E+10	1	-1E+10	1	-1E+10	1
4901784	4	C	08/14/2015	10:49	-128.958	46.836	0	1064.40	0	3.1710	0	34.3740	0	27.377	0	1052.884	0	12.3	4	3.8	4	-1E+10	1	-1E+10	1	-1E+10	1	-1E+10	1	-1E+10	1	-1E+10	1
4901784	4	C	08/14/2015	10:49	-128.958	46.836	0	1069.60	0	3.1630	0	34.3760	0	27.379	0	1058.014	0	12.4	4	3.8	4	-1E+10	1	-1E+10	1	-1E+10	1	-1E+10	1	-1E+10	1	-1E+10	1
4901784	4	C	08/14/2015	10:49	-128.958	46.836	0	1074.90	0	3.1540	0	34.3780	0	27.381	0	1063.244	0	12.4	4	3.8	4	-1E+10	1	-1E+10	1	-1E+10	1	-1E+10	1	-1E+10	1	-1E+10	1
4901784	4	C	08/14/2015	10:49	-128.958	46.836	0	1080.20	0	3.1400	0	34.3810	0	27.385	0	1068.472	0	12.4	4	3.8	4	-1E+10	1	-1E+10	1	-1E+10	1	-1E+10	1	-1E+10	1	-1E+10	1
4901784	4	C	08/14/2015	10:49	-128.958	46.836	0	1085.60	0	3.1330	0	34.3820	0	27.387	0	1073.800	0	12.4	4	3.9	4	-1E+10	1	-1E+10	1	-1E+10	1	-1E+10	1	-1E+10	1	-1E+10	1
4901784	4	C	08/14/2015	10:49	-128.958	46.836	0	1090.10	0	3.1240	0	34.3830	0	27.388	0	1078.240	0	12.5	4	3.9	4	-1E+10	1	-1E+10	1	-1E+10	1	-1E+10	1	-1E+10	1	-1E+10	1
4901784	4	C	08/14/2015	10:49	-128.958	46.836	0	1095.30	0	3.1170	0	34.3840	0	27.390	0	1083.370	0	12.5	4	3.9	4	-1E+10	1	-1E+10	1	-1E+10	1	-1E+10	1	-1E+10	1	-1E+10	1
4901784	4	C	08/14/2015	10:49	-128.958	46.836	0	1100.20	0	3.1120	0	34.3880	0	27.393	0	1088.204	0	12.5	4	3.9	4	-1E+10	1	-1E+10	1	-1E+10	1	-1E+10	1	-1E+10	1	-1E+10	1
4901784	4	C	08/14/2015	10:49	-128.958	46.836	0	1105.10	0	3.0940	0	34.3890	0	27.396	0	1093.037	0	12.6	4	3.9	4	-1E+10	1	-1E+10	1	-1E+10	1	-1E+10	1	-1E+10	1	-1E+10	1
4901784	4	C	08/14/2015	10:49	-128.958	46.836	0	1109.90	0	3.0960	0	34.3910	0	27.397	0	1097.772	0	12.6	4	3.9	4	-1E+10	1	-1E+10	1	-1E+10	1	-1E+10	1	-1E+10	1	-1E+10	1
4901784	4	C	08/14/2015	10:49	-128.958	46.836	0	1114.80	0	3.0860	0	34.3930	0	27.400	0	1102.606	0	12.7	4	3.9	4	-1E+10	1	-1E+10	1	-1E+10	1	-1E+10	1	-1E+10	1	-1E+10	1
4901784	4	C	08/14/2015	10:49	-128.958	46.836	0	1119.70	0	3.0740	0	34.3950	0	27.403	0	1107.439	0	12.7	4	3.9	4	-1E+10	1	-1E+10	1	-1E+10	1	-1E+10	1	-1E+10	1	-1E+10	1
4901784	4	C	08/14/2015	10:49	-128.958	46.836	0	1124.70	0	3.0660	0	34.3960	0	27.404	0	1112.372	0	12.8	4	3.9	4	-1E+10	1	-1E+10	1	-1E+10	1	-1E+10	1	-1E+10	1	-1E+10	1
4901784	4	C	08/14/2015	10:49	-128.958	46.836	0	1129.70	0	3.0560	0	34.3980	0	27.407	0	1117.303	0	12.8	4	4.0	4	-1E+10	1	-1E+10	1	-1E+10	1	-1E+10	1	-1E+10	1	-1E+10	1
4901784	4	C	08/14/2015	10:49	-128.958	46.836	0	1134.70	0	3.0480	0	34.3990	0	27.408	0	1122.235	0	12.9	4	4.0	4	-1E+10	1	-1E+10	1	-1E+10	1	-1E+10	1	-1E+10	1	-1E+10	1
4901784	4	C	08/14/2015	10:49	-128.958	46.836	0	1139.70	0	3.0410	0	34.4020	0	27.411	0	1127.167	0	13.0	4	4.0	4	-1E+10	1	-1E+10	1	-1E+10	1	-1E+10	1	-1E+10	1	-1E+10	1
4901784	4	C	08/14/2015	10:49	-128.958	46.836	0	1144.90	0	3.0360	0	34.4040	0	27.413	0	1132.296	0	13.0	4	4.0	4	-1E+10	1	-1E+10	1	-1E+10	1	-1E+10	1	-1E+10	1	-1E+10	1
4901784	4	C	08/14/2015	10:49	-128.958	46.836	0	1150.10	0	3.0260	0	34.4050	0	27.415	0	1137.424	0	13.1	4	4.0	4	-1E+10	1	-1E+10	1	-1E+10	1	-1E+10	1	-1E+10	1	-1E+10	1
4901784	4	C	08/14/2015	10:49	-128.958	46.836	0	1155.30	0	3.0260	0	34.4080	0	27.417	0	1142.553	0	13.1	4	4.1	4	-1E+10	1	-1E+10	1	-1E+10	1	-1E+10	1	-1E+10	1	-1E+10	1
4901784	4	C	08/14/2015	10:49	-128.958	46.836	0	1160.50	0	3.0200	0	34.4100	0	27.420	0	1147.681	0	13.2	4	4.1	4	-1E+10	1	-1E+10	1	-1E+10	1	-1E+10	1	-1E+10	1	-1E+10	1
4901784	4	C	08/14/2015	10:49	-128.958	46.836	0	1165.70	0	3.0150	0	34.4110	0	27.421	0	1152.810	0	13.2	4	4.1	4	-1E+10	1	-1E+10	1	-1E+10	1	-1E+10	1	-1E+10	1	-1E+10	1
4901784	4	C	08/14/2015	10:49	-128.958	46.836	0	1170.00	0	3.0120	0	34.4110	0	27.421	0	1157.050	0	13.3	4	4.1	4	-1E+10	1	-1E+10	1	-1E+10	1	-1E+10	1	-1E+10	1	-1E+10	1
4901784	4	C	08/14/2015	10:49	-128.958	46.836	0	1174.40	0	3.0070	0	34.4130	0	27.423	0	1161.389	0	13.3	4	4.1	4	-1E+10	1	-1E+10	1	-1E+10	1	-1E+10	1	-1E+10	1	-1E+10	1
4901784	4	C	08/14/2015	10:49	-128.958	46.836	0	1179.70	0	3.0010	0	34.4140	0	27.425	0	1166.616	0	13.4	4	4.1	4	-1E+10	1	-1E+10	1	-1E+10	1	-1E+10	1	-1E+10	1	-1E+10	1
4901784	4	C	08/14/2015	10:49	-128.958	46.836	0	1185.10	0	2.9930	0	34.4160	0	27.427	0	1171.941	0	13.5	4	4.2	4	-1E+10	1	-1E+10	1	-1E+10	1	-1E+10	1	-1E+10	1	-1E+10	1
4901784	4	C	08/14/2015	10:49	-128.958	46.836	0	1190.40	0	2.9840	0	34.4170	0	27.429	0	1177.167	0	13.6	4	4.2	4	-1E+10	1	-1E+10	1	-1E+10	1	-1E+10	1	-1E+10	1	-1E+10	1
4901784	4	C	08/14/2015	10:49	-128.958	46.836	0	1194.90	0	2.9760	0	34.4190	0	27.431	0	1181.605	0	13.7	4	4.2	4	-1E+10	1	-1E+10	1	-1E+10	1	-1E+10	1	-1E+10	1	-1E+10	1
4901784	4	C	08/14/2015	10:49	-128.958	46.836	0	1199.40	0	2.9710	0	34.4200	0	27.432	0	1186.042	0	13.7	4	4.2	4	-1E+10	1	-1E+10	1	-1E+10	1	-1E+10	1	-1E+10	1	-1E+10	1
4901784	4	C	08/14/2015	10:49	-128.958	46.836	0	1204.80	0	2.9670	0	34.4210	0	27.433	0	1191.367	0	13.8	4	4.2	4	-1E+10	1	-1E+10	1	-1E+10	1	-1E+10	1	-1E+10	1	-1E+10	1
4901784	4	C	08/14/2015	10:49	-128.958	46.836	0	1210.00	0	2.9660	0	34.4220	0	27.434	0	1196.494	0	13.9	4	4.3	4	-1E+10	1	-1E+10	1	-1E+10	1	-1E+10	1	-1E+10	1	-1E+10	1
4901784	4	C	08/14/2015	10:49	-128.958	46.836	0	1215.00	0	2.9610	0	34.4230	0	27.436	0	1201.424	0	13.9	4	4.3	4	-1E+10	1	-1E+10	1	-1E+10	1	-1E+10	1	-1E+10	1	-1E+10	1
4901784	4	C	08/14/2015	10:49	-128.958	46.836	0	1220.50	0	2.9490	0	34.4250	0	27.438	0	1206.847	0	14.1	4	4.3	4	-1E+10	1	-1E+10	1	-1E+10	1	-1E+10	1	-1E+10	1	-1E+10	1
4901784	4	C	08/14/2015	10:49	-128.958	46.836	0	1225.40	0	2.9470	0	34.4270	0	27.440	0	1211.678	0	14.3	4	4.4	4	-1E+10	1	-1E+10	1	-1E+10	1	-1E+10	1	-1E+10	1	-1E+10	1
4901784	4	C	08/14/2015	10:49	-128.958	46.836	0	1230.30	0	2.9480	0	34.4300	0	27.443	0	1216.509	0	14.4	4	4.4	4	-1E+10	1	-1E+10	1	-1E+10	1	-1E+10	1	-1E+10	1	-1E+10	1
4901784	4	C	08/14/2015	10:49	-128.958	46.836	0	1235.30	0	2.9370	0	34.4310	0	27.444	0	1221.438	0	14.5	4	4.5	4	-1E+10	1	-1E+10	1	-1E+10	1	-1E+10	1	-1E+10	1	-1E+10	1
4901784	4	C	08/14/2015	10:49	-128.958	46.836	0	1240.40	0	2.9220	0	34.4340	0	27.448	0	1226.466	0	14.6	4	4.5	4	-1E+10	1	-1E+10	1	-1E+10	1	-1E+10	1	-1E+10	1	-1E+10	1
4901784	4	C	08/14/2015	10:49	-128.958	46.836	0	1245.40	0	2.9160	0	34.4340	0	27.449	0	1231.395	0	14.8	4	4.5	4	-1E+10	1	-1E+10	1	-1E+10	1	-1E+10	1	-1E+10	1	-1E+10	1
4901784	4	C	08/14/2015	10:49	-128.958	46.836	0	1250.50	0	2.9060	0	34.4360	0	27.451	0	1236.423	0	14.9	4	4.6	4	-1E+10	1	-1E+10	1	-1E+10	1	-1E+10	1	-1E+10	1	-1E+10	1
4901784	4	C	08/14/2015	10:49	-128.958	46.836	0	1255.50	0	2.9050	0	34.4370	0	27.452	0	1241.352	0	15.0	4	4.6	4	-1E+10	1	-1E+10	1	-1E+10	1	-1E+10	1	-1E+10	1	-1E+10	1
4901784	4	C	08/14/2015	10:49	-128.958	46.836	0	1260.50	0	2.8960	0	34.4390	0	27.455	0	1246.281	0	15.2	4	4.7	4	-1E+10	1	-1E+10	1	-1E+10	1	-1E+10	1	-1E+10	1	-1E+10	1
4901784	4	C	08/14/2015	10:49	-128.958	46.836	0	1265.60	0	2.8900	0	34.4410	0	27.457	0	1251.308	0	15.3	4	4.7	4	-1E+10	1	-1E+10	1	-1E+10	1	-1E+10	1	-1E+10	1	-1E+10	1
4901784	4	C	08/14/2015	10:49	-128.958	46.836	0	1270.70	0	2.8780	0	34.4430	0	27.459	0	1256.335	0	15.5	4	4.8	4	-1E+10	1	-1E+10	1	-1E+10	1	-1E+10	1	-1E+10	1	-1E+10	1
4901784	4	C	08/14/2015	10:49	-128.958	46.836	0	1275.00	0	2.8710	0	34.4440	0	27.461	0	1260.574	0	15.5	4	4.8	4	-1E+10	1	-1E+10	1	-1E+10	1	-1E+10	1	-1E+10	1	-1E+10	1
4901784	4	C	08/14/2015	10:49	-128.958	46.836	0	1279.30	0	2.8680	0	34.4440	0	27.461	0	1264.812	0	15.6	4	4.8	4	-1E+10	1	-1E+10	1	-1E+10	1	-1E+10	1	-1E+10	1	-1E+10	1
4901784	4	C	08/14/2015	10:49	-128.958	46.836	0	1284.50	0	2.8630	0	34.4450	0	27.462	0	1269.938	0	15.7	4	4.8	4	-1E+10	1	-1E+10	1	-1E+10	1	-1E+10	1	-1E+10	1	-1E+10	1
4901784	4	C	08/14/2015	10:49	-128.958	46.836	0	1289.60	0	2.8550	0	34.4470	0	27.465	0	1274.964	0	15.8	4	4.9	4	-1E+10	1	-1E+10	1	-1E+10	1	-1E+10	1	-1E+10	1	-1E+10	1
4901784	4	C	08/14/2015	10:49	-128.958	46.836	0	1294.70	0	2.8430	0	34.4470	0	27.466	0	1279.991	0	15.9	4	4.9	4	-1E+10	1	-1E+10	1	-1E+10	1	-1E+10	1	-1E+10	1	-1E+10	1
4901784	4	C	08/14/2015	10:49	-128.958	46.836	0	1299.90	0	2.8350	0	34.4490	0	27.468	0	1285.116	0	16.0	4	4.9	4	-1E+10	1	-1E+10	1	-1E+10	1	-1E+10	1	-1E+10	1	-1E+10	1
4901784	4	C	08/14/2015	10:49	-128.958	46.836	0	1305.10	0	2.8270	0	34.4500	0	27.470	0	1290.241	0	16.1	4	5.0	4	-1E+10	1	-1E+10	1	-1E+10	1	-1E+10	1	-1E+10	1	-1E+10	1
4901784	4	C	08/14/2015	10:49	-128.958	46.836	0	1310.40	0	2.8140	0	34.4510	0	27.472	0	1295.464	0	16.2	4	5.0	4	-1E+10	1	-1E+10	1	-1E+10	1	-1E+10	1	-1E+10	1	-1E+10	1
4901784	4	C	08/14/2015	10:49	-128.958	46.836	0	1315.60	0	2.8060	0	34.4520	0	27.473	0	1300.589	0	16.3	4	5.0	4	-1E+10	1	-1E+10	1	-1E+10	1	-1E+10	1	-1E+10	1	-1E+10	1
4901784	4	C	08/14/2015	10:49	-128.958	46.836	0	1320.00	0	2.7980	0	34.4530	0	27.475	0	1304.925	0	16.4	4	5.0	4	-1E+10	1	-1E+10	1	-1E+10	1	-1E+10	1	-1E+10	1	-1E+10	1
4901784	4	C	08/14/2015	10:49	-128.958	46.836	0	1324.30	0	2.7930	0	34.4530	0	27.475	0	1309.163	0	16.5	4	5.1	4	-1E+10	1	-1E+10	1	-1E+10	1	-1E+10	1	-1E+10	1	-1E+10	1
4901784	4	C	08/14/2015	10:49	-128.958	46.836	0	1329.50	0	2.7820	0	34.4540	0	27.477	0	1314.287	0	16.6	4	5.1	4	-1E+10	1	-1E+10	1	-1E+10	1	-1E+10	1	-1E+10	1	-1E+10	1
4901784	4	C	08/14/2015	10:49	-128.958	46.836	0	1334.80	0	2.7770	0	34.4550	0	27.478	0	1319.510	0	16.7	4	5.1	4	-1E+10	1	-1E+10	1	-1E+10	1	-1E+10	1	-1E+10	1	-1E+10	1
4901784	4	C	08/14/2015	10:49	-128.958	46.836	0	1340.00	0	2.7670	0	34.4560	0	27.480	0	1324.634	0	16.8	4	5.2	4	-1E+10	1	-1E+10	1	-1E+10	1	-1E+10	1	-1E+10	1	-1E+10	1
4901784	4	C	08/14/2015	10:49	-128.958	46.836	0	1345.30	0	2.7620	0	34.4570	0	27.481	0	1329.857	0	17.0	4	5.2	4	-1E+10	1	-1E+10	1	-1E+10	1	-1E+10	1	-1E+10	1	-1E+10	1
4901784	4	C	08/14/2015	10:49	-128.958	46.836	0	1350.40	0	2.7530	0	34.4590	0	27.484	0	1334.882	0	17.2	4	5.3	4	-1E+10	1	-1E+10	1	-1E+10	1	-1E+10	1	-1E+10	1	-1E+10	1
4901784	4	C	08/14/2015	10:49	-128.958	46.836	0	1355.60	0	2.7440	0	34.4600	0	27.485	0	1340.005	0	17.4	4	5.3	4	-1E+10	1	-1E+10	1	-1E+10	1	-1E+10	1	-1E+10	1	-1E+10	1
4901784	4	C	08/14/2015	10:49	-128.958	46.836	0	1359.90	0	2.7280	0	34.4630	0	27.489	0	1344.242	0	17.7	4	5.4	4	-1E+10	1	-1E+10	1	-1E+10	1	-1E+10	1	-1E+10	1	-1E+10	1
4901784	4	C	08/14/2015	10:49	-128.958	46.836	0	1364.30	0	2.7190	0	34.4640	0	27.491	0	1348.578	0	17.8	4	5.5	4	-1E+10	1	-1E+10	1	-1E+10	1	-1E+10	1	-1E+10	1	-1E+10	1
4901784	4	C	08/14/2015	10:49	-128.958	46.836	0	1369.60	0	2.7180	0	34.4650	0	27.491	0	1353.800	0	18.0	4	5.5	4	-1E+10	1	-1E+10	1	-1E+10	1	-1E+10	1	-1E+10	1	-1E+10	1
4901784	4	C	08/14/2015	10:49	-128.958	46.836	0	1375.30	0	2.7070	0	34.4670	0	27.494	0	1359.415	0	18.3	4	5.6	4	-1E+10	1	-1E+10	1	-1E+10	1	-1E+10	1	-1E+10	1	-1E+10	1
4901784	4	C	08/14/2015	10:49	-128.958	46.836	0	1380.00	0	2.7000	0	34.4680	0	27.496	0	1364.046	0	18.5	4	5.7	4	-1E+10	1	-1E+10	1	-1E+10	1	-1E+10	1	-1E+10	1	-1E+10	1
4901784	4	C	08/14/2015	10:49	-128.958	46.836	0	1384.80	0	2.6840	0	34.4700	0	27.499	0	1368.775	0	18.7	4	5.7	4	-1E+10	1	-1E+10	1	-1E+10	1	-1E+10	1	-1E+10	1	-1E+10	1
4901784	4	C	08/14/2015	10:49	-128.958	46.836	0	1390.50	0	2.6750	0	34.4720	0	27.501	0	1374.390	0	18.9	4	5.8	4	-1E+10	1	-1E+10	1	-1E+10	1	-1E+10	1	-1E+10	1	-1E+10	1
4901784	4	C	08/14/2015	10:49	-128.958	46.836	0	1395.20	0	2.6660	0	34.4730	0	27.503	0	1379.021	0	19.1	4	5.9	4	-1E+10	1	-1E+10	1	-1E+10	1	-1E+10	1	-1E+10	1	-1E+10	1
4901784	4	C	08/14/2015	10:49	-128.958	46.836	0	1400.00	0	2.6570	0	34.4740	0	27.504	0	1383.749	0	19.4	4	5.9	4	-1E+10	1	-1E+10	1	-1E+10	1	-1E+10	1	-1E+10	1	-1E+10	1
4901784	4	C	08/14/2015	10:49	-128.958	46.836	0	1404.90	0	2.6460	0	34.4760	0	27.507	0	1388.576	0	19.6	4	6.0	4	-1E+10	1	-1E+10	1	-1E+10	1	-1E+10	1	-1E+10	1	-1E+10	1
4901784	4	C	08/14/2015	10:49	-128.958	46.836	0	1409.70	0	2.6390	0	34.4770	0	27.508	0	1393.305	0	19.8	4	6.1	4	-1E+10	1	-1E+10	1	-1E+10	1	-1E+10	1	-1E+10	1	-1E+10	1
4901784	4	C	08/14/2015	10:49	-128.958	46.836	0	1415.40	0	2.6310	0	34.4790	0	27.510	0	1398.919	0	20.1	4	6.2	4	-1E+10	1	-1E+10	1	-1E+10	1	-1E+10	1	-1E+10	1	-1E+10	1
4901784	4	C	08/14/2015	10:49	-128.958	46.836	0	1420.10	0	2.6260	0	34.4800	0	27.512	0	1403.549	0	20.3	4	6.2	4	-1E+10	1	-1E+10	1	-1E+10	1	-1E+10	1	-1E+10	1	-1E+10	1
4901784	4	C	08/14/2015	10:49	-128.958	46.836	0	1424.80	0	2.6220	0	34.4810	0	27.513	0	1408.179	0	20.5	4	6.3	4	-1E+10	1	-1E+10	1	-1E+10	1	-1E+10	1	-1E+10	1	-1E+10	1
4901784	4	C	08/14/2015	10:49	-128.958	46.836	0	1430.60	0	2.6140	0	34.4820	0	27.514	0	1413.891	0	20.8	4	6.4	4	-1E+10	1	-1E+10	1	-1E+10	1	-1E+10	1	-1E+10	1	-1E+10	1
4901784	4	C	08/14/2015	10:49	-128.958	46.836	0	1435.30	0	2.6080	0	34.4840	0	27.516	0	1418.521	0	21.0	4	6.4	4	-1E+10	1	-1E+10	1	-1E+10	1	-1E+10	1	-1E+10	1	-1E+10	1
4901784	4	C	08/14/2015	10:49	-128.958	46.836	0	1440.20	0	2.6000	0	34.4850	0	27.518	0	1423.347	0	21.2	4	6.5	4	-1E+10	1	-1E+10	1	-1E+10	1	-1E+10	1	-1E+10	1	-1E+10	1
4901784	4	C	08/14/2015	10:49	-128.958	46.836	0	1445.00	0	2.5980	0	34.4860	0	27.519	0	1428.075	0	21.5	4	6.6	4	-1E+10	1	-1E+10	1	-1E+10	1	-1E+10	1	-1E+10	1	-1E+10	1
4901784	4	C	08/14/2015	10:49	-128.958	46.836	0	1449.70	0	2.5890	0	34.4870	0	27.521	0	1432.704	0	21.7	4	6.6	4	-1E+10	1	-1E+10	1	-1E+10	1	-1E+10	1	-1E+10	1	-1E+10	1
4901784	4	C	08/14/2015	10:49	-128.958	46.836	0	1455.40	0	2.5840	0	34.4890	0	27.523	0	1438.317	0	22.1	4	6.7	4	-1E+10	1	-1E+10	1	-1E+10	1	-1E+10	1	-1E+10	1	-1E+10	1
4901784	4	C	08/14/2015	10:49	-128.958	46.836	0	1460.10	0	2.5750	0	34.4900	0	27.524	0	1442.946	0	22.3	4	6.8	4	-1E+10	1	-1E+10	1	-1E+10	1	-1E+10	1	-1E+10	1	-1E+10	1
4901784	4	C	08/14/2015	10:49	-128.958	46.836	0	1464.90	0	2.5670	0	34.4910	0	27.526	0	1447.673	0	22.4	4	6.9	4	-1E+10	1	-1E+10	1	-1E+10	1	-1E+10	1	-1E+10	1	-1E+10	1
4901784	4	C	08/14/2015	10:49	-128.958	46.836	0	1469.80	0	2.5620	0	34.4920	0	27.527	0	1452.499	0	22.6	4	6.9	4	-1E+10	1	-1E+10	1	-1E+10	1	-1E+10	1	-1E+10	1	-1E+10	1
4901784	4	C	08/14/2015	10:49	-128.958	46.836	0	1474.50	0	2.5540	0	34.4920	0	27.528	0	1457.127	0	22.9	4	7.0	4	-1E+10	1	-1E+10	1	-1E+10	1	-1E+10	1	-1E+10	1	-1E+10	1
4901784	4	C	08/14/2015	10:49	-128.958	46.836	0	1480.30	0	2.5480	0	34.4940	0	27.530	0	1462.839	0	23.2	4	7.1	4	-1E+10	1	-1E+10	1	-1E+10	1	-1E+10	1	-1E+10	1	-1E+10	1
4901784	4	C	08/14/2015	10:49	-128.958	46.836	0	1485.10	0	2.5410	0	34.4950	0	27.531	0	1467.566	0	23.4	4	7.2	4	-1E+10	1	-1E+10	1	-1E+10	1	-1E+10	1	-1E+10	1	-1E+10	1
4901784	4	C	08/14/2015	10:49	-128.958	46.836	0	1490.00	0	2.5360	0	34.4960	0	27.532	0	1472.391	0	23.6	4	7.2	4	-1E+10	1	-1E+10	1	-1E+10	1	-1E+10	1	-1E+10	1	-1E+10	1
4901784	4	C	08/14/2015	10:49	-128.958	46.836	0	1495.70	0	2.5250	0	34.4970	0	27.534	0	1478.003	0	23.9	4	7.3	4	-1E+10	1	-1E+10	1	-1E+10	1	-1E+10	1	-1E+10	1	-1E+10	1
4901784	4	C	08/14/2015	10:49	-128.958	46.836	0	1500.10	0	2.5210	0	34.4980	0	27.535	0	1482.336	0	24.1	4	7.3	4	-1E+10	1	-1E+10	1	-1E+10	1	-1E+10	1	-1E+10	1	-1E+10	1
4901784	4	C	08/14/2015	10:49	-128.958	46.836	0	1504.60	0	2.5100	0	34.4990	0	27.537	0	1486.767	0	24.3	4	7.4	4	-1E+10	1	-1E+10	1	-1E+10	1	-1E+10	1	-1E+10	1	-1E+10	1
4901784	4	C	08/14/2015	10:49	-128.958	46.836	0	1509.80	0	2.4990	0	34.5000	0	27.539	0	1491.887	0	24.6	4	7.5	4	-1E+10	1	-1E+10	1	-1E+10	1	-1E+10	1	-1E+10	1	-1E+10	1
4901784	4	C	08/14/2015	10:49	-128.958	46.836	0	1515.10	0	2.4920	0	34.5010	0	27.540	0	1497.105	0	25.0	4	7.6	4	-1E+10	1	-1E+10	1	-1E+10	1	-1E+10	1	-1E+10	1	-1E+10	1
4901784	4	C	08/14/2015	10:49	-128.958	46.836	0	1520.40	0	2.4830	0	34.5020	0	27.542	0	1502.324	0	25.2	4	7.7	4	-1E+10	1	-1E+10	1	-1E+10	1	-1E+10	1	-1E+10	1	-1E+10	1
4901784	4	C	08/14/2015	10:49	-128.958	46.836	0	1524.90	0	2.4740	0	34.5030	0	27.543	0	1506.754	0	25.3	4	7.7	4	-1E+10	1	-1E+10	1	-1E+10	1	-1E+10	1	-1E+10	1	-1E+10	1
4901784	4	C	08/14/2015	10:49	-128.958	46.836	0	1529.30	0	2.4610	0	34.5030	0	27.545	0	1511.086	0	25.3	4	7.7	4	-1E+10	1	-1E+10	1	-1E+10	1	-1E+10	1	-1E+10	1	-1E+10	1
4901784	4	C	08/14/2015	10:49	-128.958	46.836	0	1534.70	0	2.4540	0	34.5040	0	27.546	0	1516.402	0	25.6	4	7.8	4	-1E+10	1	-1E+10	1	-1E+10	1	-1E+10	1	-1E+10	1	-1E+10	1
4901784	4	C	08/14/2015	10:49	-128.958	46.836	0	1540.10	0	2.4400	0	34.5050	0	27.548	0	1521.718	0	25.9	4	7.9	4	-1E+10	1	-1E+10	1	-1E+10	1	-1E+10	1	-1E+10	1	-1E+10	1
4901784	4	C	08/14/2015	10:49	-128.958	46.836	0	1545.50	0	2.4290	0	34.5070	0	27.551	0	1527.035	0	26.1	4	8.0	4	-1E+10	1	-1E+10	1	-1E+10	1	-1E+10	1	-1E+10	1	-1E+10	1
4901784	4	C	08/14/2015	10:49	-128.958	46.836	0	1550.00	0	2.4260	0	34.5070	0	27.551	0	1531.465	0	26.3	4	8.0	4	-1E+10	1	-1E+10	1	-1E+10	1	-1E+10	1	-1E+10	1	-1E+10	1
4901784	4	C	08/14/2015	10:49	-128.958	46.836	0	1554.80	0	2.4200	0	34.5080	0	27.552	0	1536.190	0	26.6	4	8.1	4	-1E+10	1	-1E+10	1	-1E+10	1	-1E+10	1	-1E+10	1	-1E+10	1
4901784	4	C	08/14/2015	10:49	-128.958	46.836	0	1560.10	0	2.4170	0	34.5090	0	27.553	0	1541.407	0	26.8	4	8.2	4	-1E+10	1	-1E+10	1	-1E+10	1	-1E+10	1	-1E+10	1	-1E+10	1
4901784	4	C	08/14/2015	10:49	-128.958	46.836	0	1564.90	0	2.4100	0	34.5100	0	27.555	0	1546.132	0	27.2	4	8.3	4	-1E+10	1	-1E+10	1	-1E+10	1	-1E+10	1	-1E+10	1	-1E+10	1
4901784	4	C	08/14/2015	10:49	-128.958	46.836	0	1569.70	0	2.3980	0	34.5110	0	27.556	0	1550.857	0	27.6	4	8.4	4	-1E+10	1	-1E+10	1	-1E+10	1	-1E+10	1	-1E+10	1	-1E+10	1
4901784	4	C	08/14/2015	10:49	-128.958	46.836	0	1574.60	0	2.3870	0	34.5130	0	27.559	0	1555.680	0	27.9	4	8.5	4	-1E+10	1	-1E+10	1	-1E+10	1	-1E+10	1	-1E+10	1	-1E+10	1
4901784	4	C	08/14/2015	10:49	-128.958	46.836	0	1579.60	0	2.3780	0	34.5140	0	27.560	0	1560.601	0	28.2	4	8.6	4	-1E+10	1	-1E+10	1	-1E+10	1	-1E+10	1	-1E+10	1	-1E+10	1
4901784	4	C	08/14/2015	10:49	-128.958	46.836	0	1584.60	0	2.3690	0	34.5150	0	27.562	0	1565.523	0	28.7	4	8.7	4	-1E+10	1	-1E+10	1	-1E+10	1	-1E+10	1	-1E+10	1	-1E+10	1
4901784	4	C	08/14/2015	10:49	-128.958	46.836	0	1589.50	0	2.3620	0	34.5170	0	27.564	0	1570.346	0	29.3	4	8.9	4	-1E+10	1	-1E+10	1	-1E+10	1	-1E+10	1	-1E+10	1	-1E+10	1
4901784	4	C	08/14/2015	10:49	-128.958	46.836	0	1594.50	0	2.3580	0	34.5190	0	27.566	0	1575.267	0	29.9	4	9.1	4	-1E+10	1	-1E+10	1	-1E+10	1	-1E+10	1	-1E+10	1	-1E+10	1
4901784	4	C	08/14/2015	10:49	-128.958	46.836	0	1599.50	0	2.3480	0	34.5200	0	27.568	0	1580.188	0	30.3	4	9.2	4	-1E+10	1	-1E+10	1	-1E+10	1	-1E+10	1	-1E+10	1	-1E+10	1
4901784	4	C	08/14/2015	10:49	-128.958	46.836	0	1604.50	0	2.3390	0	34.5230	0	27.571	0	1585.109	0	31.0	4	9.4	4	-1E+10	1	-1E+10	1	-1E+10	1	-1E+10	1	-1E+10	1	-1E+10	1
4901784	4	C	08/14/2015	10:49	-128.958	46.836	0	1609.60	0	2.3320	0	34.5240	0	27.572	0	1590.128	0	31.4	4	9.6	4	-1E+10	1	-1E+10	1	-1E+10	1	-1E+10	1	-1E+10	1	-1E+10	1
4901784	4	C	08/14/2015	10:49	-128.958	46.836	0	1614.60	0	2.3340	0	34.5250	0	27.573	0	1595.049	0	32.0	4	9.7	4	-1E+10	1	-1E+10	1	-1E+10	1	-1E+10	1	-1E+10	1	-1E+10	1
4901784	4	C	08/14/2015	10:49	-128.958	46.836	0	1619.70	0	2.3250	0	34.5270	0	27.575	0	1600.068	0	32.2	4	9.8	4	-1E+10	1	-1E+10	1	-1E+10	1	-1E+10	1	-1E+10	1	-1E+10	1
4901784	4	C	08/14/2015	10:49	-128.958	46.836	0	1625.20	0	2.3140	0	34.5280	0	27.577	0	1605.480	0	32.7	4	9.9	4	-1E+10	1	-1E+10	1	-1E+10	1	-1E+10	1	-1E+10	1	-1E+10	1
4901784	4	C	08/14/2015	10:49	-128.958	46.836	0	1630.20	0	2.3080	0	34.5300	0	27.579	0	1610.400	0	33.5	4	10.2	4	-1E+10	1	-1E+10	1	-1E+10	1	-1E+10	1	-1E+10	1	-1E+10	1
4901784	4	C	08/14/2015	10:49	-128.958	46.836	0	1634.90	0	2.3020	0	34.5320	0	27.581	0	1615.026	0	34.0	4	10.3	4	-1E+10	1	-1E+10	1	-1E+10	1	-1E+10	1	-1E+10	1	-1E+10	1
4901784	4	C	08/14/2015	10:49	-128.958	46.836	0	1639.70	0	2.2920	0	34.5330	0	27.583	0	1619.749	0	34.1	4	10.3	4	-1E+10	1	-1E+10	1	-1E+10	1	-1E+10	1	-1E+10	1	-1E+10	1
4901784	4	C	08/14/2015	10:49	-128.958	46.836	0	1644.50	0	2.2840	0	34.5340	0	27.585	0	1624.472	0	34.3	4	10.4	4	-1E+10	1	-1E+10	1	-1E+10	1	-1E+10	1	-1E+10	1	-1E+10	1
4901784	4	C	08/14/2015	10:49	-128.958	46.836	0	1649.30	0	2.2760	0	34.5340	0	27.585	0	1629.195	0	34.4	4	10.4	4	-1E+10	1	-1E+10	1	-1E+10	1	-1E+10	1	-1E+10	1	-1E+10	1
4901784	4	C	08/14/2015	10:49	-128.958	46.836	0	1655.00	0	2.2640	0	34.5350	0	27.587	0	1634.804	0	34.5	4	10.5	4	-1E+10	1	-1E+10	1	-1E+10	1	-1E+10	1	-1E+10	1	-1E+10	1
4901784	4	C	08/14/2015	10:49	-128.958	46.836	0	1660.70	0	2.2540	0	34.5350	0	27.588	0	1640.412	0	34.6	4	10.5	4	-1E+10	1	-1E+10	1	-1E+10	1	-1E+10	1	-1E+10	1	-1E+10	1
4901784	4	C	08/14/2015	10:49	-128.958	46.836	0	1665.70	0	2.2480	0	34.5350	0	27.588	0	1645.332	0	34.8	4	10.5	4	-1E+10	1	-1E+10	1	-1E+10	1	-1E+10	1	-1E+10	1	-1E+10	1
4901784	4	C	08/14/2015	10:49	-128.958	46.836	0	1670.70	0	2.2450	0	34.5360	0	27.589	0	1650.251	0	35.0	4	10.6	4	-1E+10	1	-1E+10	1	-1E+10	1	-1E+10	1	-1E+10	1	-1E+10	1
4901784	4	C	08/14/2015	10:49	-128.958	46.836	0	1675.70	0	2.2400	0	34.5370	0	27.591	0	1655.170	0	35.3	4	10.7	4	-1E+10	1	-1E+10	1	-1E+10	1	-1E+10	1	-1E+10	1	-1E+10	1
4901784	4	C	08/14/2015	10:49	-128.958	46.836	0	1680.70	0	2.2360	0	34.5370	0	27.591	0	1660.089	0	35.6	4	10.8	4	-1E+10	1	-1E+10	1	-1E+10	1	-1E+10	1	-1E+10	1	-1E+10	1
4901784	4	C	08/14/2015	10:49	-128.958	46.836	0	1685.00	0	2.2320	0	34.5380	0	27.592	0	1664.320	0	35.8	4	10.9	4	-1E+10	1	-1E+10	1	-1E+10	1	-1E+10	1	-1E+10	1	-1E+10	1
4901784	4	C	08/14/2015	10:49	-128.958	46.836	0	1689.30	0	2.2300	0	34.5390	0	27.593	0	1668.550	0	36.1	4	10.9	4	-1E+10	1	-1E+10	1	-1E+10	1	-1E+10	1	-1E+10	1	-1E+10	1
4901784	4	C	08/14/2015	10:49	-128.958	46.836	0	1694.50	0	2.2210	0	34.5400	0	27.595	0	1673.666	0	36.4	4	11.0	4	-1E+10	1	-1E+10	1	-1E+10	1	-1E+10	1	-1E+10	1	-1E+10	1
4901784	4	C	08/14/2015	10:49	-128.958	46.836	0	1699.80	0	2.2190	0	34.5410	0	27.596	0	1678.880	0	36.7	4	11.1	4	-1E+10	1	-1E+10	1	-1E+10	1	-1E+10	1	-1E+10	1	-1E+10	1
4901784	4	C	08/14/2015	10:49	-128.958	46.836	0	1705.10	0	2.2140	0	34.5420	0	27.597	0	1684.093	0	37.1	4	11.2	4	-1E+10	1	-1E+10	1	-1E+10	1	-1E+10	1	-1E+10	1	-1E+10	1
4901784	4	C	08/14/2015	10:49	-128.958	46.836	0	1710.40	0	2.2080	0	34.5430	0	27.598	0	1689.307	0	37.7	4	11.4	4	-1E+10	1	-1E+10	1	-1E+10	1	-1E+10	1	-1E+10	1	-1E+10	1
4901784	4	C	08/14/2015	10:49	-128.958	46.836	0	1715.40	0	2.2030	0	34.5440	0	27.599	0	1694.225	0	38.2	4	11.6	4	-1E+10	1	-1E+10	1	-1E+10	1	-1E+10	1	-1E+10	1	-1E+10	1
4901784	4	C	08/14/2015	10:49	-128.958	46.836	0	1719.50	0	2.2000	0	34.5450	0	27.600	0	1698.258	0	38.6	4	11.7	4	-1E+10	1	-1E+10	1	-1E+10	1	-1E+10	1	-1E+10	1	-1E+10	1
4901784	4	C	08/14/2015	10:49	-128.958	46.836	0	1725.10	0	2.1910	0	34.5470	0	27.603	0	1703.767	0	39.1	4	11.8	4	-1E+10	1	-1E+10	1	-1E+10	1	-1E+10	1	-1E+10	1	-1E+10	1
4901784	4	C	08/14/2015	10:49	-128.958	46.836	0	1730.70	0	2.1840	0	34.5480	0	27.604	0	1709.275	0	39.7	4	12.0	4	-1E+10	1	-1E+10	1	-1E+10	1	-1E+10	1	-1E+10	1	-1E+10	1
4901784	4	C	08/14/2015	10:49	-128.958	46.836	0	1735.50	0	2.1780	0	34.5490	0	27.606	0	1713.996	0	40.0	4	12.1	4	-1E+10	1	-1E+10	1	-1E+10	1	-1E+10	1	-1E+10	1	-1E+10	1
4901784	4	C	08/14/2015	10:49	-128.958	46.836	0	1740.40	0	2.1740	0	34.5500	0	27.607	0	1718.816	0	40.2	4	12.2	4	-1E+10	1	-1E+10	1	-1E+10	1	-1E+10	1	-1E+10	1	-1E+10	1
4901784	4	C	08/14/2015	10:49	-128.958	46.836	0	1745.30	0	2.1650	0	34.5510	0	27.608	0	1723.635	0	40.4	4	12.2	4	-1E+10	1	-1E+10	1	-1E+10	1	-1E+10	1	-1E+10	1	-1E+10	1
4901784	4	C	08/14/2015	10:49	-128.958	46.836	0	1750.20	0	2.1610	0	34.5510	0	27.609	0	1728.454	0	40.7	4	12.3	4	-1E+10	1	-1E+10	1	-1E+10	1	-1E+10	1	-1E+10	1	-1E+10	1
4901784	4	C	08/14/2015	10:49	-128.958	46.836	0	1755.20	0	2.1550	0	34.5520	0	27.610	0	1733.372	0	41.0	4	12.4	4	-1E+10	1	-1E+10	1	-1E+10	1	-1E+10	1	-1E+10	1	-1E+10	1
4901784	4	C	08/14/2015	10:49	-128.958	46.836	0	1760.20	0	2.1490	0	34.5520	0	27.610	0	1738.289	0	41.2	4	12.5	4	-1E+10	1	-1E+10	1	-1E+10	1	-1E+10	1	-1E+10	1	-1E+10	1
4901784	4	C	08/14/2015	10:49	-128.958	46.836	0	1765.30	0	2.1440	0	34.5530	0	27.612	0	1743.305	0	41.5	4	12.6	4	-1E+10	1	-1E+10	1	-1E+10	1	-1E+10	1	-1E+10	1	-1E+10	1
4901784	4	C	08/14/2015	10:49	-128.958	46.836	0	1770.40	0	2.1390	0	34.5540	0	27.613	0	1748.320	0	42.0	4	12.7	4	-1E+10	1	-1E+10	1	-1E+10	1	-1E+10	1	-1E+10	1	-1E+10	1
4901784	4	C	08/14/2015	10:49	-128.958	46.836	0	1775.50	0	2.1330	0	34.5550	0	27.614	0	1753.335	0	42.3	4	12.8	4	-1E+10	1	-1E+10	1	-1E+10	1	-1E+10	1	-1E+10	1	-1E+10	1
4901784	4	C	08/14/2015	10:49	-128.958	46.836	0	1780.70	0	2.1290	0	34.5560	0	27.615	0	1758.449	0	42.6	4	12.9	4	-1E+10	1	-1E+10	1	-1E+10	1	-1E+10	1	-1E+10	1	-1E+10	1
4901784	4	C	08/14/2015	10:49	-128.958	46.836	0	1785.10	0	2.1250	0	34.5570	0	27.616	0	1762.776	0	42.9	4	13.0	4	-1E+10	1	-1E+10	1	-1E+10	1	-1E+10	1	-1E+10	1	-1E+10	1
4901784	4	C	08/14/2015	10:49	-128.958	46.836	0	1789.50	0	2.1210	0	34.5580	0	27.618	0	1767.102	0	43.2	4	13.1	4	-1E+10	1	-1E+10	1	-1E+10	1	-1E+10	1	-1E+10	1	-1E+10	1
4901784	4	C	08/14/2015	10:49	-128.958	46.836	0	1794.80	0	2.1170	0	34.5590	0	27.619	0	1772.314	0	43.5	4	13.2	4	-1E+10	1	-1E+10	1	-1E+10	1	-1E+10	1	-1E+10	1	-1E+10	1
4901784	4	C	08/14/2015	10:49	-128.958	46.836	0	1800.20	0	2.1120	0	34.5590	0	27.619	0	1777.624	0	43.8	4	13.2	4	-1E+10	1	-1E+10	1	-1E+10	1	-1E+10	1	-1E+10	1	-1E+10	1
4901784	4	C	08/14/2015	10:49	-128.958	46.836	0	1805.60	0	2.1090	0	34.5600	0	27.620	0	1782.933	0	44.0	4	13.3	4	-1E+10	1	-1E+10	1	-1E+10	1	-1E+10	1	-1E+10	1	-1E+10	1
4901784	4	C	08/14/2015	10:49	-128.958	46.836	0	1810.20	0	2.1080	0	34.5600	0	27.620	0	1787.456	0	44.2	4	13.4	4	-1E+10	1	-1E+10	1	-1E+10	1	-1E+10	1	-1E+10	1	-1E+10	1
4901784	4	C	08/14/2015	10:49	-128.958	46.836	0	1814.80	0	2.1040	0	34.5610	0	27.621	0	1791.979	0	44.5	4	13.4	4	-1E+10	1	-1E+10	1	-1E+10	1	-1E+10	1	-1E+10	1	-1E+10	1
4901784	4	C	08/14/2015	10:49	-128.958	46.836	0	1820.10	0	2.0990	0	34.5620	0	27.623	0	1797.190	0	44.8	4	13.5	4	-1E+10	1	-1E+10	1	-1E+10	1	-1E+10	1	-1E+10	1	-1E+10	1
4901784	4	C	08/14/2015	10:49	-128.958	46.836	0	1825.60	0	2.0950	0	34.5620	0	27.623	0	1802.597	0	45.1	4	13.6	4	-1E+10	1	-1E+10	1	-1E+10	1	-1E+10	1	-1E+10	1	-1E+10	1
4901784	4	C	08/14/2015	10:49	-128.958	46.836	0	1830.50	0	2.0900	0	34.5630	0	27.624	0	1807.415	0	45.4	4	13.7	4	-1E+10	1	-1E+10	1	-1E+10	1	-1E+10	1	-1E+10	1	-1E+10	1
4901784	4	C	08/14/2015	10:49	-128.958	46.836	0	1835.40	0	2.0870	0	34.5630	0	27.624	0	1812.232	0	45.6	4	13.8	4	-1E+10	1	-1E+10	1	-1E+10	1	-1E+10	1	-1E+10	1	-1E+10	1
4901784	4	C	08/14/2015	10:49	-128.958	46.836	0	1840.30	0	2.0830	0	34.5640	0	27.626	0	1817.050	0	45.9	4	13.9	4	-1E+10	1	-1E+10	1	-1E+10	1	-1E+10	1	-1E+10	1	-1E+10	1
4901784	4	C	08/14/2015	10:49	-128.958	46.836	0	1845.20	0	2.0780	0	34.5650	0	27.627	0	1821.867	0	46.2	4	14.0	4	-1E+10	1	-1E+10	1	-1E+10	1	-1E+10	1	-1E+10	1	-1E+10	1
4901784	4	C	08/14/2015	10:49	-128.958	46.836	0	1850.20	0	2.0740	0	34.5660	0	27.628	0	1826.782	0	46.5	4	14.0	4	-1E+10	1	-1E+10	1	-1E+10	1	-1E+10	1	-1E+10	1	-1E+10	1
4901784	4	C	08/14/2015	10:49	-128.958	46.836	0	1855.20	0	2.0720	0	34.5660	0	27.628	0	1831.697	0	46.7	4	14.1	4	-1E+10	1	-1E+10	1	-1E+10	1	-1E+10	1	-1E+10	1	-1E+10	1
4901784	4	C	08/14/2015	10:49	-128.958	46.836	0	1860.20	0	2.0680	0	34.5670	0	27.629	0	1836.612	0	46.9	4	14.2	4	-1E+10	1	-1E+10	1	-1E+10	1	-1E+10	1	-1E+10	1	-1E+10	1
4901784	4	C	08/14/2015	10:49	-128.958	46.836	0	1865.20	0	2.0650	0	34.5680	0	27.630	0	1841.527	0	47.2	4	14.3	4	-1E+10	1	-1E+10	1	-1E+10	1	-1E+10	1	-1E+10	1	-1E+10	1
4901784	4	C	08/14/2015	10:49	-128.958	46.836	0	1870.10	0	2.0600	0	34.5680	0	27.631	0	1846.344	0	47.5	4	14.3	4	-1E+10	1	-1E+10	1	-1E+10	1	-1E+10	1	-1E+10	1	-1E+10	1
4901784	4	C	08/14/2015	10:49	-128.958	46.836	0	1875.20	0	2.0560	0	34.5690	0	27.632	0	1851.357	0	47.8	4	14.4	4	-1E+10	1	-1E+10	1	-1E+10	1	-1E+10	1	-1E+10	1	-1E+10	1
4901784	4	C	08/14/2015	10:49	-128.958	46.836	0	1880.20	0	2.0500	0	34.5700	0	27.633	0	1856.271	0	48.1	4	14.5	4	-1E+10	1	-1E+10	1	-1E+10	1	-1E+10	1	-1E+10	1	-1E+10	1
4901784	4	C	08/14/2015	10:49	-128.958	46.836	0	1885.20	0	2.0450	0	34.5710	0	27.634	0	1861.186	0	48.5	4	14.6	4	-1E+10	1	-1E+10	1	-1E+10	1	-1E+10	1	-1E+10	1	-1E+10	1
4901784	4	C	08/14/2015	10:49	-128.958	46.836	0	1890.30	0	2.0400	0	34.5710	0	27.635	0	1866.199	0	48.8	4	14.7	4	-1E+10	1	-1E+10	1	-1E+10	1	-1E+10	1	-1E+10	1	-1E+10	1
4901784	4	C	08/14/2015	10:49	-128.958	46.836	0	1895.30	0	2.0350	0	34.5720	0	27.636	0	1871.113	0	49.2	4	14.8	4	-1E+10	1	-1E+10	1	-1E+10	1	-1E+10	1	-1E+10	1	-1E+10	1
4901784	4	C	08/14/2015	10:49	-128.958	46.836	0	1900.40	0	2.0300	0	34.5730	0	27.637	0	1876.125	0	49.4	4	14.9	4	-1E+10	1	-1E+10	1	-1E+10	1	-1E+10	1	-1E+10	1	-1E+10	1
4901784	4	C	08/14/2015	10:49	-128.958	46.836	0	1905.50	0	2.0270	0	34.5730	0	27.638	0	1881.138	0	49.8	4	15.0	4	-1E+10	1	-1E+10	1	-1E+10	1	-1E+10	1	-1E+10	1	-1E+10	1
4901784	4	C	08/14/2015	10:49	-128.958	46.836	0	1910.60	0	2.0220	0	34.5750	0	27.640	0	1886.150	0	50.1	4	15.1	4	-1E+10	1	-1E+10	1	-1E+10	1	-1E+10	1	-1E+10	1	-1E+10	1
4901784	4	C	08/14/2015	10:49	-128.958	46.836	0	1915.00	0	2.0200	0	34.5750	0	27.640	0	1890.474	0	50.3	4	15.2	4	-1E+10	1	-1E+10	1	-1E+10	1	-1E+10	1	-1E+10	1	-1E+10	1
4901784	4	C	08/14/2015	10:49	-128.958	46.836	0	1919.30	0	2.0160	0	34.5760	0	27.641	0	1894.700	0	50.6	4	15.3	4	-1E+10	1	-1E+10	1	-1E+10	1	-1E+10	1	-1E+10	1	-1E+10	1
4901784	4	C	08/14/2015	10:49	-128.958	46.836	0	1924.40	0	2.0110	0	34.5760	0	27.641	0	1899.712	0	50.9	4	15.3	4	-1E+10	1	-1E+10	1	-1E+10	1	-1E+10	1	-1E+10	1	-1E+10	1
4901784	4	C	08/14/2015	10:49	-128.958	46.836	0	1929.60	0	2.0080	0	34.5760	0	27.642	0	1904.822	0	51.1	4	15.4	4	-1E+10	1	-1E+10	1	-1E+10	1	-1E+10	1	-1E+10	1	-1E+10	1
4901784	4	C	08/14/2015	10:49	-128.958	46.836	0	1934.80	0	2.0030	0	34.5770	0	27.643	0	1909.932	0	51.5	4	15.5	4	-1E+10	1	-1E+10	1	-1E+10	1	-1E+10	1	-1E+10	1	-1E+10	1
4901784	4	C	08/14/2015	10:49	-128.958	46.836	0	1940.00	0	1.9990	0	34.5780	0	27.644	0	1915.041	0	51.8	4	15.6	4	-1E+10	1	-1E+10	1	-1E+10	1	-1E+10	1	-1E+10	1	-1E+10	1
4901784	4	C	08/14/2015	10:49	-128.958	46.836	0	1945.20	0	1.9950	0	34.5790	0	27.645	0	1920.151	0	52.1	4	15.7	4	-1E+10	1	-1E+10	1	-1E+10	1	-1E+10	1	-1E+10	1	-1E+10	1
4901784	4	C	08/14/2015	10:49	-128.958	46.836	0	1950.50	0	1.9900	0	34.5800	0	27.646	0	1925.359	0	52.5	4	15.8	4	-1E+10	1	-1E+10	1	-1E+10	1	-1E+10	1	-1E+10	1	-1E+10	1
4901784	4	C	08/14/2015	10:49	-128.958	46.836	0	1955.80	0	1.9870	0	34.5800	0	27.647	0	1930.567	0	52.8	4	15.9	4	-1E+10	1	-1E+10	1	-1E+10	1	-1E+10	1	-1E+10	1	-1E+10	1
4901784	4	C	08/14/2015	10:49	-128.958	46.836	0	1960.20	0	1.9850	0	34.5810	0	27.648	0	1934.890	0	53.1	4	16.0	4	-1E+10	1	-1E+10	1	-1E+10	1	-1E+10	1	-1E+10	1	-1E+10	1
4901784	4	C	08/14/2015	10:49	-128.958	46.836	0	1964.60	0	1.9820	0	34.5810	0	27.648	0	1939.213	0	53.3	4	16.1	4	-1E+10	1	-1E+10	1	-1E+10	1	-1E+10	1	-1E+10	1	-1E+10	1
4901784	4	C	08/14/2015	10:49	-128.958	46.836	0	1970.00	0	1.9780	0	34.5820	0	27.649	0	1944.518	0	53.6	4	16.2	4	-1E+10	1	-1E+10	1	-1E+10	1	-1E+10	1	-1E+10	1	-1E+10	1
4901784	4	C	08/14/2015	10:49	-128.958	46.836	0	1975.30	0	1.9740	0	34.5830	0	27.650	0	1949.726	0	54.0	4	16.3	4	-1E+10	1	-1E+10	1	-1E+10	1	-1E+10	1	-1E+10	1	-1E+10	1
4901784	4	C	08/14/2015	10:49	-128.958	46.836	0	1979.70	0	1.9710	0	34.5840	0	27.651	0	1954.049	0	54.3	4	16.4	4	-1E+10	1	-1E+10	1	-1E+10	1	-1E+10	1	-1E+10	1	-1E+10	1
4901784	4	C	08/14/2015	10:49	-128.958	46.836	0	1984.10	0	1.9680	0	34.5840	0	27.651	0	1958.371	0	54.6	4	16.4	4	-1E+10	1	-1E+10	1	-1E+10	1	-1E+10	1	-1E+10	1	-1E+10	1
4901784	4	C	08/14/2015	10:49	-128.958	46.836	0	1989.40	0	1.9640	0	34.5850	0	27.653	0	1963.578	0	54.8	4	16.5	4	-1E+10	1	-1E+10	1	-1E+10	1	-1E+10	1	-1E+10	1	-1E+10	1
4901784	4	C	08/14/2015	10:49	-128.958	46.836	0	1995.00	0	1.9600	0	34.5850	0	27.653	0	1969.080	0	55.0	4	16.6	4	-1E+10	1	-1E+10	1	-1E+10	1	-1E+10	1	-1E+10	1	-1E+10	1
4901784	4	C	08/14/2015	10:49	-128.958	46.836	0	2000.60	0	1.9570	0	34.5860	0	27.654	0	1974.581	0	55.3	4	16.6	4	-1E+10	1	-1E+10	1	-1E+10	1	-1E+10	1	-1E+10	1	-1E+10	1
4901784	4	C	08/14/2015	10:49	-128.958	46.836	0	2005.40	0	1.9550	0	34.5860	0	27.654	0	1979.296	0	55.6	4	16.7	4	-1E+10	1	-1E+10	1	-1E+10	1	-1E+10	1	-1E+10	1	-1E+10	1
4901784	4	C	08/14/2015	10:49	-128.958	46.836	0	2010.80	0	1.9540	0	34.5870	0	27.655	0	1984.601	0	56.1	4	16.9	4	-1E+10	1	-1E+10	1	-1E+10	1	-1E+10	1	-1E+10	1	-1E+10	1
4901784	4	C	08/14/2015	10:49	-128.958	46.836	0	2015.20	0	1.9510	0	34.5880	0	27.656	0	1988.923	0	56.5	4	17.0	4	-1E+10	1	-1E+10	1	-1E+10	1	-1E+10	1	-1E+10	1	-1E+10	1
4901784	4	C	08/14/2015	10:49	-128.958	46.836	0	2020.30	0	1.9450	0	34.5890	0	27.657	0	1993.933	0	56.8	4	17.1	4	-1E+10	1	-1E+10	1	-1E+10	1	-1E+10	1	-1E+10	1	-1E+10	1
4901784	4	C	08/14/2015	10:49	-128.958	46.836	0																										
4901784	5	C	08/24/2015	10:49	-129.045	46.875	0	2.30	0	18.2400	0	32.0610	0	22.965	0	2.281	0	231.7	4	97.5	4	-1E+10	1	-1E+10	1	-1E+10	1	-1E+10	1	-1E+10	1	-1E+10	1
4901784	5	C	08/24/2015	10:49	-129.045	46.875	0	3.80	0	18.2410	0	32.0610	0	22.965	0	3.768	0	231.6	4	97.5	4	-1E+10	1	-1E+10	1	-1E+10	1	-1E+10	1	-1E+10	1	-1E+10	1
4901784	5	C	08/24/2015	10:49	-129.045	46.875	0	5.50	0	18.2380	0	32.0610	0	22.966	0	5.454	0	231.3	4	97.3	4	-1E+10	1	-1E+10	1	-1E+10	1	-1E+10	1	-1E+10	1	-1E+10	1
4901784	5	C	08/24/2015	10:49	-129.045	46.875	0	7.20	0	18.2390	0	32.0610	0	22.966	0	7.140	0	231.2	4	97.3	4	-1E+10	1	-1E+10	1	-1E+10	1	-1E+10	1	-1E+10	1	-1E+10	1
4901784	5	C	08/24/2015	10:49	-129.045	46.875	0	8.90	0	18.2390	0	32.0610	0	22.966	0	8.826	0	230.7	4	97.1	4	-1E+10	1	-1E+10	1	-1E+10	1	-1E+10	1	-1E+10	1	-1E+10	1
4901784	5	C	08/24/2015	10:49	-129.045	46.875	0	10.80	0	18.2420	0	32.0600	0	22.965	0	10.710	0	230.8	4	97.2	4	-1E+10	1	-1E+10	1	-1E+10	1	-1E+10	1	-1E+10	1	-1E+10	1
4901784	5	C	08/24/2015	10:49	-129.045	46.875	0	12.70	0	18.2420	0	32.0600	0	22.965	0	12.594	0	230.9	4	97.2	4	-1E+10	1	-1E+10	1	-1E+10	1	-1E+10	1	-1E+10	1	-1E+10	1
4901784	5	C	08/24/2015	10:49	-129.045	46.875	0	15.10	0	18.2380	0	32.0580	0	22.964	0	14.974	0	230.6	4	97.0	4	-1E+10	1	-1E+10	1	-1E+10	1	-1E+10	1	-1E+10	1	-1E+10	1
4901784	5	C	08/24/2015	10:49	-129.045	46.875	0	16.90	0	18.2380	0	32.0530	0	22.960	0	16.759	0	230.6	4	97.1	4	-1E+10	1	-1E+10	1	-1E+10	1	-1E+10	1	-1E+10	1	-1E+10	1
4901784	5	C	08/24/2015	10:49	-129.045	46.875	0	18.50	0	18.0970	0	32.0460	0	22.989	0	18.346	0	231.5	4	97.2	4	-1E+10	1	-1E+10	1	-1E+10	1	-1E+10	1	-1E+10	1	-1E+10	1
4901784	5	C	08/24/2015	10:49	-129.045	46.875	0	20.10	0	17.9560	0	32.0440	0	23.022	0	19.932	0	232.0	4	97.1	4	-1E+10	1	-1E+10	1	-1E+10	1	-1E+10	1	-1E+10	1	-1E+10	1
4901784	5	C	08/24/2015	10:49	-129.045	46.875	0	21.60	0	17.9010	0	32.0410	0	23.033	0	21.420	0	232.2	4	97.1	4	-1E+10	1	-1E+10	1	-1E+10	1	-1E+10	1	-1E+10	1	-1E+10	1
4901784	5	C	08/24/2015	10:49	-129.045	46.875	0	23.10	0	17.8910	0	32.0400	0	23.035	0	22.907	0	232.2	4	97.1	4	-1E+10	1	-1E+10	1	-1E+10	1	-1E+10	1	-1E+10	1	-1E+10	1
4901784	5	C	08/24/2015	10:49	-129.045	46.875	0	25.00	0	17.8050	0	32.0340	0	23.051	0	24.791	0	232.8	4	97.2	4	-1E+10	1	-1E+10	1	-1E+10	1	-1E+10	1	-1E+10	1	-1E+10	1
4901784	5	C	08/24/2015	10:49	-129.045	46.875	0	26.40	0	17.7790	0	32.0280	0	23.053	0	26.179	0	233.4	4	97.4	4	-1E+10	1	-1E+10	1	-1E+10	1	-1E+10	1	-1E+10	1	-1E+10	1
4901784	5	C	08/24/2015	10:49	-129.045	46.875	0	27.50	0	17.7670	0	32.0230	0	23.052	0	27.270	0	234.0	4	97.6	4	-1E+10	1	-1E+10	1	-1E+10	1	-1E+10	1	-1E+10	1	-1E+10	1
4901784	5	C	08/24/2015	10:49	-129.045	46.875	0	28.50	0	17.7520	0	32.0160	0	23.050	0	28.262	0	235.4	4	98.1	4	-1E+10	1	-1E+10	1	-1E+10	1	-1E+10	1	-1E+10	1	-1E+10	1
4901784	5	C	08/24/2015	10:49	-129.045	46.875	0	29.60	0	17.7220	0	32.0040	0	23.048	0	29.353	0	237.4	4	98.9	4	-1E+10	1	-1E+10	1	-1E+10	1	-1E+10	1	-1E+10	1	-1E+10	1
4901784	5	C	08/24/2015	10:49	-129.045	46.875	0	30.70	0	17.5760	0	31.9870	0	23.070	0	30.443	0	240.7	4	100.0	4	-1E+10	1	-1E+10	1	-1E+10	1	-1E+10	1	-1E+10	1	-1E+10	1
4901784	5	C	08/24/2015	10:49	-129.045	46.875	0	32.20	0	16.3980	0	32.0240	0	23.372	0	31.931	0	247.5	4	100.6	4	-1E+10	1	-1E+10	1	-1E+10	1	-1E+10	1	-1E+10	1	-1E+10	1
4901784	5	C	08/24/2015	10:49	-129.045	46.875	0	32.70	0	15.6100	0	32.0920	0	23.600	0	32.426	0	251.5	4	100.7	4	-1E+10	1	-1E+10	1	-1E+10	1	-1E+10	1	-1E+10	1	-1E+10	1
4901784	5	C	08/24/2015	10:49	-129.045	46.875	0	33.90	0	14.2550	0	32.1570	0	23.940	0	33.616	0	260.1	4	101.4	4	-1E+10	1	-1E+10	1	-1E+10	1	-1E+10	1	-1E+10	1	-1E+10	1
4901784	5	C	08/24/2015	10:49	-129.045	46.875	0	35.40	0	13.7390	0	32.1490	0	24.040	0	35.104	0	266.5	4	102.8	4	-1E+10	1	-1E+10	1	-1E+10	1	-1E+10	1	-1E+10	1	-1E+10	1
4901784	5	C	08/24/2015	10:49	-129.045	46.875	0	36.90	0	13.2310	0	32.1620	0	24.151	0	36.591	0	269.5	4	102.9	4	-1E+10	1	-1E+10	1	-1E+10	1	-1E+10	1	-1E+10	1	-1E+10	1
4901784	5	C	08/24/2015	10:49	-129.045	46.875	0	38.50	0	12.7550	0	32.1930	0	24.268	0	38.177	0	270.6	4	102.4	4	-1E+10	1	-1E+10	1	-1E+10	1	-1E+10	1	-1E+10	1	-1E+10	1
4901784	5	C	08/24/2015	10:49	-129.045	46.875	0	40.10	0	12.3550	0	32.2190	0	24.365	0	39.764	0	271.7	4	101.9	4	-1E+10	1	-1E+10	1	-1E+10	1	-1E+10	1	-1E+10	1	-1E+10	1
4901784	5	C	08/24/2015	10:49	-129.045	46.875	0	41.70	0	12.2330	0	32.2220	0	24.390	0	41.350	0	271.4	4	101.6	4	-1E+10	1	-1E+10	1	-1E+10	1	-1E+10	1	-1E+10	1	-1E+10	1
4901784	5	C	08/24/2015	10:49	-129.045	46.875	0	43.30	0	11.9510	0	32.2380	0	24.455	0	42.937	0	270.7	4	100.7	4	-1E+10	1	-1E+10	1	-1E+10	1	-1E+10	1	-1E+10	1	-1E+10	1
4901784	5	C	08/24/2015	10:49	-129.045	46.875	0	45.00	0	11.6440	0	32.2650	0	24.533	0	44.622	0	270.8	4	100.2	4	-1E+10	1	-1E+10	1	-1E+10	1	-1E+10	1	-1E+10	1	-1E+10	1
4901784	5	C	08/24/2015	10:49	-129.045	46.875	0	46.80	0	11.4370	0	32.2960	0	24.594	0	46.407	0	269.1	4	99.1	4	-1E+10	1	-1E+10	1	-1E+10	1	-1E+10	1	-1E+10	1	-1E+10	1
4901784	5	C	08/24/2015	10:49	-129.045	46.875	0	48.70	0	11.3450	0	32.2970	0	24.612	0	48.291	0	267.7	4	98.4	4	-1E+10	1	-1E+10	1	-1E+10	1	-1E+10	1	-1E+10	1	-1E+10	1
4901784	5	C	08/24/2015	10:49	-129.045	46.875	0	50.50	0	11.2720	0	32.3040	0	24.630	0	50.075	0	264.0	4	96.9	4	-1E+10	1	-1E+10	1	-1E+10	1	-1E+10	1	-1E+10	1	-1E+10	1
4901784	5	C	08/24/2015	10:49	-129.045	46.875	0	52.20	0	11.1540	0	32.3320	0	24.673	0	51.761	0	260.4	4	95.3	4	-1E+10	1	-1E+10	1	-1E+10	1	-1E+10	1	-1E+10	1	-1E+10	1
4901784	5	C	08/24/2015	10:49	-129.045	46.875	0	54.20	0	11.0540	0	32.3430	0	24.699	0	53.744	0	258.1	4	94.3	4	-1E+10	1	-1E+10	1	-1E+10	1	-1E+10	1	-1E+10	1	-1E+10	1
4901784	5	C	08/24/2015	10:49	-129.045	46.875	0	56.10	0	10.9310	0	32.3600	0	24.734	0	55.627	0	255.9	4	93.3	4	-1E+10	1	-1E+10	1	-1E+10	1	-1E+10	1	-1E+10	1	-1E+10	1
4901784	5	C	08/24/2015	10:49	-129.045	46.875	0	58.00	0	10.8010	0	32.3590	0	24.756	0	57.511	0	252.2	4	91.7	4	-1E+10	1	-1E+10	1	-1E+10	1	-1E+10	1	-1E+10	1	-1E+10	1
4901784	5	C	08/24/2015	10:49	-129.045	46.875	0	60.00	0	10.6900	0	32.3780	0	24.790	0	59.494	0	247.5	4	89.8	4	-1E+10	1	-1E+10	1	-1E+10	1	-1E+10	1	-1E+10	1	-1E+10	1
4901784	5	C	08/24/2015	10:49	-129.045	46.875	0	61.80	0	10.6460	0	32.3830	0	24.802	0	61.279	0	242.2	4	87.8	4	-1E+10	1	-1E+10	1	-1E+10	1	-1E+10	1	-1E+10	1	-1E+10	1
4901784	5	C	08/24/2015	10:49	-129.045	46.875	0	63.80	0	10.5860	0	32.3970	0	24.823	0	63.261	0	236.2	4	85.5	4	-1E+10	1	-1E+10	1	-1E+10	1	-1E+10	1	-1E+10	1	-1E+10	1
4901784	5	C	08/24/2015	10:49	-129.045	46.875	0	65.70	0	10.4690	0	32.4120	0	24.855	0	65.145	0	231.1	4	83.5	4	-1E+10	1	-1E+10	1	-1E+10	1	-1E+10	1	-1E+10	1	-1E+10	1
4901784	5	C	08/24/2015	10:49	-129.045	46.875	0	67.60	0	10.3590	0	32.4350	0	24.891	0	67.029	0	226.9	4	81.7	4	-1E+10	1	-1E+10	1	-1E+10	1	-1E+10	1	-1E+10	1	-1E+10	1
4901784	5	C	08/24/2015	10:49	-129.045	46.875	0	69.50	0	10.2140	0	32.4580	0	24.934	0	68.912	0	223.3	4	80.2	4	-1E+10	1	-1E+10	1	-1E+10	1	-1E+10	1	-1E+10	1	-1E+10	1
4901784	5	C	08/24/2015	10:49	-129.045	46.875	0	71.40	0	10.0860	0	32.4740	0	24.968	0	70.796	0	219.8	4	78.8	4	-1E+10	1	-1E+10	1	-1E+10	1	-1E+10	1	-1E+10	1	-1E+10	1
4901784	5	C	08/24/2015	10:49	-129.045	46.875	0	73.30	0	9.9270	0	32.5110	0	25.023	0	72.680	0	217.1	4	77.5	4	-1E+10	1	-1E+10	1	-1E+10	1	-1E+10	1	-1E+10	1	-1E+10	1
4901784	5	C	08/24/2015	10:49	-129.045	46.875	0	75.90	0	9.7630	0	32.5490	0	25.079	0	75.257	0	214.0	4	76.2	4	-1E+10	1	-1E+10	1	-1E+10	1	-1E+10	1	-1E+10	1	-1E+10	1
4901784	5	C	08/24/2015	10:49	-129.045	46.875	0	77.70	0	9.6760	0	32.5610	0	25.103	0	77.041	0	210.8	4	74.9	4	-1E+10	1	-1E+10	1	-1E+10	1	-1E+10	1	-1E+10	1	-1E+10	1
4901784	5	C	08/24/2015	10:49	-129.045	46.875	0	79.30	0	9.4880	0	32.6280	0	25.186	0	78.628	0	207.7	4	73.5	4	-1E+10	1	-1E+10	1	-1E+10	1	-1E+10	1	-1E+10	1	-1E+10	1
4901784	5	C	08/24/2015	10:49	-129.045	46.875	0	80.90	0	9.3430	0	32.6570	0	25.232	0	80.214	0	205.4	4	72.5	4	-1E+10	1	-1E+10	1	-1E+10	1	-1E+10	1	-1E+10	1	-1E+10	1
4901784	5	C	08/24/2015	10:49	-129.045	46.875	0	82.40	0	9.2500	0	32.6740	0	25.260	0	81.701	0	202.3	4	71.3	4	-1E+10	1	-1E+10	1	-1E+10	1	-1E+10	1	-1E+10	1	-1E+10	1
4901784	5	C	08/24/2015	10:49	-129.045	46.875	0	84.10	0	9.0310	0	32.7460	0	25.350	0	83.386	0	200.0	4	70.2	4	-1E+10	1	-1E+10	1	-1E+10	1	-1E+10	1	-1E+10	1	-1E+10	1
4901784	5	C	08/24/2015	10:49	-129.045	46.875	0	85.70	0	8.9740	0	32.7560	0	25.367	0	84.972	0	198.5	4	69.5	4	-1E+10	1	-1E+10	1	-1E+10	1	-1E+10	1	-1E+10	1	-1E+10	1
4901784	5	C	08/24/2015	10:49	-129.045	46.875	0	87.40	0	8.7980	0	32.8000	0	25.429	0	86.657	0	197.2	4	68.9	4	-1E+10	1	-1E+10	1	-1E+10	1	-1E+10	1	-1E+10	1	-1E+10	1
4901784	5	C	08/24/2015	10:49	-129.045	46.875	0	89.10	0	8.6930	0	32.8320	0	25.470	0	88.342	0	196.3	4	68.4	4	-1E+10	1	-1E+10	1	-1E+10	1	-1E+10	1	-1E+10	1	-1E+10	1
4901784	5	C	08/24/2015	10:49	-129.045	46.875	0	90.90	0	8.6660	0	32.8360	0	25.477	0	90.127	0	195.7	4	68.2	4	-1E+10	1	-1E+10	1	-1E+10	1	-1E+10	1	-1E+10	1	-1E+10	1
4901784	5	C	08/24/2015	10:49	-129.045	46.875	0	92.70	0	8.5490	0	32.8730	0	25.524	0	91.911	0	195.2	4	67.8	4	-1E+10	1	-1E+10	1	-1E+10	1	-1E+10	1	-1E+10	1	-1E+10	1
4901784	5	C	08/24/2015	10:49	-129.045	46.875	0	94.50	0	8.4110	0	32.9140	0	25.577	0	93.695	0	195.0	4	67.6	4	-1E+10	1	-1E+10	1	-1E+10	1	-1E+10	1	-1E+10	1	-1E+10	1
4901784	5	C	08/24/2015	10:49	-129.045	46.875	0	96.80	0	8.1830	0	32.9910	0	25.671	0	95.975	0	194.6	4	67.1	4	-1E+10	1	-1E+10	1	-1E+10	1	-1E+10	1	-1E+10	1	-1E+10	1
4901784	5	C	08/24/2015	10:49	-129.045	46.875	0	98.70	0	8.0920	0	33.0220	0	25.709	0	97.858	0	193.6	4	66.7	4	-1E+10	1	-1E+10	1	-1E+10	1	-1E+10	1	-1E+10	1	-1E+10	1
4901784	5	C	08/24/2015	10:49	-129.045	46.875	0	100.20	0	8.0560	0	33.0440	0	25.731	0	99.345	0	192.0	4	66.0	4	-1E+10	1	-1E+10	1	-1E+10	1	-1E+10	1	-1E+10	1	-1E+10	1
4901784	5	C	08/24/2015	10:49	-129.045	46.875	0	102.50	0	7.9880	0	33.0880	0	25.776	0	101.625	0	189.8	4	65.2	4	-1E+10	1	-1E+10	1	-1E+10	1	-1E+10	1	-1E+10	1	-1E+10	1
4901784	5	C	08/24/2015	10:49	-129.045	46.875	0	104.90	0	7.9580	0	33.1160	0	25.802	0	104.004	0	187.3	4	64.3	4	-1E+10	1	-1E+10	1	-1E+10	1	-1E+10	1	-1E+10	1	-1E+10	1
4901784	5	C	08/24/2015	10:49	-129.045	46.875	0	107.40	0	7.9740	0	33.1600	0	25.835	0	106.482	0	184.2	4	63.3	4	-1E+10	1	-1E+10	1	-1E+10	1	-1E+10	1	-1E+10	1	-1E+10	1
4901784	5	C	08/24/2015	10:49	-129.045	46.875	0	110.00	0	7.9850	0	33.1960	0	25.861	0	109.059	0	182.3	4	62.7	4	-1E+10	1	-1E+10	1	-1E+10	1	-1E+10	1	-1E+10	1	-1E+10	1
4901784	5	C	08/24/2015	10:49	-129.045	46.875	0	112.50	0	7.9460	0	33.2440	0	25.905	0	111.537	0	181.8	4	62.5	4	-1E+10	1	-1E+10	1	-1E+10	1	-1E+10	1	-1E+10	1	-1E+10	1
4901784	5	C	08/24/2015	10:49	-129.045	46.875	0	115.00	0	7.9100	0	33.2750	0	25.934	0	114.015	0	181.7	4	62.4	4	-1E+10	1	-1E+10	1	-1E+10	1	-1E+10	1	-1E+10	1	-1E+10	1
4901784	5	C	08/24/2015	10:49	-129.045	46.875	0	117.50	0	7.8680	0	33.2890	0	25.951	0	116.493	0	181.0	4	62.1	4	-1E+10	1	-1E+10	1	-1E+10	1	-1E+10	1	-1E+10	1	-1E+10	1
4901784	5	C	08/24/2015	10:49	-129.045	46.875	0	120.10	0	7.8440	0	33.3020	0	25.965	0	119.070	0	180.2	4	61.8	4	-1E+10	1	-1E+10	1	-1E+10	1	-1E+10	1	-1E+10	1	-1E+10	1
4901784	5	C	08/24/2015	10:49	-129.045	46.875	0	122.00	0	7.8500	0	33.3050	0	25.967	0	120.953	0	179.4	4	61.6	4	-1E+10	1	-1E+10	1	-1E+10	1	-1E+10	1	-1E+10	1	-1E+10	1
4901784	5	C	08/24/2015	10:49	-129.045	46.875	0	124.80	0	7.8610	0	33.3300	0	25.985	0	123.728	0	177.5	4	60.9	4	-1E+10	1	-1E+10	1	-1E+10	1	-1E+10	1	-1E+10	1	-1E+10	1
4901784	5	C	08/24/2015	10:49	-129.045	46.875	0	128.10	0	7.8640	0	33.3600	0	26.008	0	126.999	0	175.6	4	60.3	4	-1E+10	1	-1E+10	1	-1E+10	1	-1E+10	1	-1E+10	1	-1E+10	1
4901784	5	C	08/24/2015	10:49	-129.045	46.875	0	130.00	0	7.8550	0	33.3640	0	26.012	0	128.882	0	174.4	4	59.9	4	-1E+10	1	-1E+10	1	-1E+10	1	-1E+10	1	-1E+10	1	-1E+10	1
4901784	5	C	08/24/2015	10:49	-129.045	46.875	0	132.30	0	7.8610	0	33.4030	0	26.042	0	131.161	0	172.8	4	59.3	4	-1E+10	1	-1E+10	1	-1E+10	1	-1E+10	1	-1E+10	1	-1E+10	1
4901784	5	C	08/24/2015	10:49	-129.045	46.875	0	135.30	0	7.8560	0	33.4240	0	26.059	0	134.135	0	171.0	4	58.7	4	-1E+10	1	-1E+10	1	-1E+10	1	-1E+10	1	-1E+10	1	-1E+10	1
4901784	5	C	08/24/2015	10:49	-129.045	46.875	0	137.70	0	7.8230	0	33.4610	0	26.093	0	136.513	0	169.0	4	58.0	4	-1E+10	1	-1E+10	1	-1E+10	1	-1E+10	1	-1E+10	1	-1E+10	1
4901784	5	C	08/24/2015	10:49	-129.045	46.875	0	140.10	0	7.8040	0	33.5190	0	26.142	0	138.892	0	166.0	4	57.0	4	-1E+10	1	-1E+10	1	-1E+10	1	-1E+10	1	-1E+10	1	-1E+10	1
4901784	5	C	08/24/2015	10:49	-129.045	46.875	0	142.50	0	7.8020	0	33.5510	0	26.167	0	141.270	0	163.9	4	56.3	4	-1E+10	1	-1E+10	1	-1E+10	1	-1E+10	1	-1E+10	1	-1E+10	1
4901784	5	C	08/24/2015	10:49	-129.045	46.875	0	145.00	0	7.7890	0	33.5710	0	26.185	0	143.748	0	161.9	4	55.6	4	-1E+10	1	-1E+10	1	-1E+10	1	-1E+10	1	-1E+10	1	-1E+10	1
4901784	5	C	08/24/2015	10:49	-129.045	46.875	0	147.40	0	7.7720	0	33.5960	0	26.207	0	146.126	0	159.8	4	54.8	4	-1E+10	1	-1E+10	1	-1E+10	1	-1E+10	1	-1E+10	1	-1E+10	1
4901784	5	C	08/24/2015	10:49	-129.045	46.875	0	150.00	0	7.7840	0	33.6130	0	26.218	0	148.703	0	157.8	4	54.2	4	-1E+10	1	-1E+10	1	-1E+10	1	-1E+10	1	-1E+10	1	-1E+10	1
4901784	5	C	08/24/2015	10:49	-129.045	46.875	0	152.60	0	7.7820	0	33.6280	0	26.231	0	151.279	0	155.8	4	53.5	4	-1E+10	1	-1E+10	1	-1E+10	1	-1E+10	1	-1E+10	1	-1E+10	1
4901784	5	C	08/24/2015	10:49	-129.045	46.875	0	155.20	0	7.7570	0	33.6420	0	26.245	0	153.856	0	153.8	4	52.8	4	-1E+10	1	-1E+10	1	-1E+10	1	-1E+10	1	-1E+10	1	-1E+10	1
4901784	5	C	08/24/2015	10:49	-129.045	46.875	0	157.80	0	7.7160	0	33.6490	0	26.257	0	156.432	0	151.1	4	51.8	4	-1E+10	1	-1E+10	1	-1E+10	1	-1E+10	1	-1E+10	1	-1E+10	1
4901784	5	C	08/24/2015	10:49	-129.045	46.875	0	159.60	0	7.7080	0	33.6540	0	26.262	0	158.216	0	148.5	4	50.9	4	-1E+10	1	-1E+10	1	-1E+10	1	-1E+10	1	-1E+10	1	-1E+10	1
4901784	5	C	08/24/2015	10:49	-129.045	46.875	0	162.20	0	7.7000	0	33.6640	0	26.271	0	160.792	0	142.7	4	48.9	4	-1E+10	1	-1E+10	1	-1E+10	1	-1E+10	1	-1E+10	1	-1E+10	1
4901784	5	C	08/24/2015	10:49	-129.045	46.875	0	164.80	0	7.7310	0	33.6950	0	26.291	0	163.369	0	137.9	4	47.3	4	-1E+10	1	-1E+10	1	-1E+10	1	-1E+10	1	-1E+10	1	-1E+10	1
4901784	5	C	08/24/2015	10:49	-129.045	46.875	0	167.40	0	7.7170	0	33.7060	0	26.301	0	165.945	0	137.6	4	47.2	4	-1E+10	1	-1E+10	1	-1E+10	1	-1E+10	1	-1E+10	1	-1E+10	1
4901784	5	C	08/24/2015	10:49	-129.045	46.875	0	170.10	0	7.6860	0	33.7210	0	26.318	0	168.621	0	137.5	4	47.1	4	-1E+10	1	-1E+10	1	-1E+10	1	-1E+10	1	-1E+10	1	-1E+10	1
4901784	5	C	08/24/2015	10:49	-129.045	46.875	0	172.00	0	7.6560	0	33.7270	0	26.327	0	170.503	0	137.6	4	47.2	4	-1E+10	1	-1E+10	1	-1E+10	1	-1E+10	1	-1E+10	1	-1E+10	1
4901784	5	C	08/24/2015	10:49	-129.045	46.875	0	174.70	0	7.6250	0	33.7410	0	26.342	0	173.179	0	137.9	4	47.2	4	-1E+10	1	-1E+10	1	-1E+10	1	-1E+10	1	-1E+10	1	-1E+10	1
4901784	5	C	08/24/2015	10:49	-129.045	46.875	0	177.50	0	7.6040	0	33.7520	0	26.354	0	175.953	0	138.3	4	47.3	4	-1E+10	1	-1E+10	1	-1E+10	1	-1E+10	1	-1E+10	1	-1E+10	1
4901784	5	C	08/24/2015	10:49	-129.045	46.875	0	180.20	0	7.5370	0	33.7670	0	26.375	0	178.628	0	140.5	4	48.0	4	-1E+10	1	-1E+10	1	-1E+10	1	-1E+10	1	-1E+10	1	-1E+10	1
4901784	5	C	08/24/2015	10:49	-129.045	46.875	0	182.90	0	7.4690	0	33.7660	0	26.384	0	181.304	0	142.0	4	48.5	4	-1E+10	1	-1E+10	1	-1E+10	1	-1E+10	1	-1E+10	1	-1E+10	1
4901784	5	C	08/24/2015	10:49	-129.045	46.875	0	184.80	0	7.4770	0	33.7740	0	26.389	0	183.186	0	142.3	4	48.6	4	-1E+10	1	-1E+10	1	-1E+10	1	-1E+10	1	-1E+10	1	-1E+10	1
4901784	5	C	08/24/2015	10:49	-129.045	46.875	0	187.60	0	7.4270	0	33.7870	0	26.407	0	185.961	0	144.7	4	49.4	4	-1E+10	1	-1E+10	1	-1E+10	1	-1E+10	1	-1E+10	1	-1E+10	1
4901784	5	C	08/24/2015	10:49	-129.045	46.875	0	190.50	0	7.3440	0	33.7820	0	26.414	0	188.834	0	146.2	4	49.8	4	-1E+10	1	-1E+10	1	-1E+10	1	-1E+10	1	-1E+10	1	-1E+10	1
4901784	5	C	08/24/2015	10:49	-129.045	46.875	0	192.30	0	7.3210	0	33.7850	0	26.420	0	190.617	0	145.4	4	49.5	4	-1E+10	1	-1E+10	1	-1E+10	1	-1E+10	1	-1E+10	1	-1E+10	1
4901784	5	C	08/24/2015	10:49	-129.045	46.875	0	195.10	0	7.2890	0	33.8020	0	26.438	0	193.391	0	144.1	4	49.0	4	-1E+10	1	-1E+10	1	-1E+10	1	-1E+10	1	-1E+10	1	-1E+10	1
4901784	5	C	08/24/2015	10:49	-129.045	46.875	0	197.80	0	7.2870	0	33.8160	0	26.449	0	196.067	0	143.2	4	48.7	4	-1E+10	1	-1E+10	1	-1E+10	1	-1E+10	1	-1E+10	1	-1E+10	1
4901784	5	C	08/24/2015	10:49	-129.045	46.875	0	199.80	0	7.2840	0	33.8260	0	26.458	0	198.048	0	143.3	4	48.7	4	-1E+10	1	-1E+10	1	-1E+10	1	-1E+10	1	-1E+10	1	-1E+10	1
4901784	5	C	08/24/2015	10:49	-129.045	46.875	0	202.60	0	7.2730	0	33.8290	0	26.462	0	200.822	0	142.2	4	48.3	4	-1E+10	1	-1E+10	1	-1E+10	1	-1E+10	1	-1E+10	1	-1E+10	1
4901784	5	C	08/24/2015	10:49	-129.045	46.875	0	205.50	0	7.2520	0	33.8330	0	26.468	0	203.695	0	139.9	4	47.5	4	-1E+10	1	-1E+10	1	-1E+10	1	-1E+10	1	-1E+10	1	-1E+10	1
4901784	5	C	08/24/2015	10:49	-129.045	46.875	0	207.30	0	7.2270	0	33.8440	0	26.480	0	205.479	0	137.9	4	46.8	4	-1E+10	1	-1E+10	1	-1E+10	1	-1E+10	1	-1E+10	1	-1E+10	1
4901784	5	C	08/24/2015	10:49	-129.045	46.875	0	210.10	0	7.1680	0	33.8480	0	26.491	0	208.253	0	135.1	4	45.8	4	-1E+10	1	-1E+10	1	-1E+10	1	-1E+10	1	-1E+10	1	-1E+10	1
4901784	5	C	08/24/2015	10:49	-129.045	46.875	0	212.90	0	7.1570	0	33.8600	0	26.502	0	211.026	0	130.9	4	44.4	4	-1E+10	1	-1E+10	1	-1E+10	1	-1E+10	1	-1E+10	1	-1E+10	1
4901784	5	C	08/24/2015	10:49	-129.045	46.875	0	214.80	0	7.1400	0	33.8630	0	26.507	0	212.909	0	129.2	4	43.8	4	-1E+10	1	-1E+10	1	-1E+10	1	-1E+10	1	-1E+10	1	-1E+10	1
4901784	5	C	08/24/2015	10:49	-129.045	46.875	0	217.70	0	7.1110	0	33.8720	0	26.518	0	215.782	0	128.3	4	43.5	4	-1E+10	1	-1E+10	1	-1E+10	1	-1E+10	1	-1E+10	1	-1E+10	1
4901784	5	C	08/24/2015	10:49	-129.045	46.875	0	220.50	0	7.0540	0	33.8740	0	26.527	0	218.556	0	128.7	4	43.5	4	-1E+10	1	-1E+10	1	-1E+10	1	-1E+10	1	-1E+10	1	-1E+10	1
4901784	5	C	08/24/2015	10:49	-129.045	46.875	0	222.40	0	7.0050	0	33.8780	0	26.537	0	220.438	0	129.2	4	43.7	4	-1E+10	1	-1E+10	1	-1E+10	1	-1E+10	1	-1E+10	1	-1E+10	1
4901784	5	C	08/24/2015	10:49	-129.045	46.875	0	224.40	0	6.9610	0	33.8740	0	26.540	0	222.419	0	128.9	4	43.5	4	-1E+10	1	-1E+10	1	-1E+10	1	-1E+10	1	-1E+10	1	-1E+10	1
4901784	5	C	08/24/2015	10:49	-129.045	46.875	0	227.20	0	6.9450	0	33.8830	0	26.549	0	225.193	0	126.7	4	42.8	4	-1E+10	1	-1E+10	1	-1E+10	1	-1E+10	1	-1E+10	1	-1E+10	1
4901784	5	C	08/24/2015	10:49	-129.045	46.875	0	230.10	0	6.9230	0	33.8840	0	26.553	0	228.066	0	126.1	4	42.5	4	-1E+10	1	-1E+10	1	-1E+10	1	-1E+10	1	-1E+10	1	-1E+10	1
4901784	5	C	08/24/2015	10:49	-129.045	46.875	0	231.90	0	6.9150	0	33.8860	0	26.556	0	229.849	0	126.5	4	42.7	4	-1E+10	1	-1E+10	1	-1E+10	1	-1E+10	1	-1E+10	1	-1E+10	1
4901784	5	C	08/24/2015	10:49	-129.045	46.875	0	234.80	0	6.8520	0	33.8850	0	26.564	0	232.721	0	126.6	4	42.6	4	-1E+10	1	-1E+10	1	-1E+10	1	-1E+10	1	-1E+10	1	-1E+10	1
4901784	5	C	08/24/2015	10:49	-129.045	46.875	0	237.60	0	6.7970	0	33.8820	0	26.569	0	235.495	0	125.7	4	42.3	4	-1E+10	1	-1E+10	1	-1E+10	1	-1E+10	1	-1E+10	1	-1E+10	1
4901784	5	C	08/24/2015	10:49	-129.045	46.875	0	239.60	0	6.7630	0	33.8830	0	26.574	0	237.476	0	123.2	4	41.4	4	-1E+10	1	-1E+10	1	-1E+10	1	-1E+10	1	-1E+10	1	-1E+10	1
4901784	5	C	08/24/2015	10:49	-129.045	46.875	0	242.30	0	6.7130	0	33.8890	0	26.586	0	240.151	0	118.8	4	39.9	4	-1E+10	1	-1E+10	1	-1E+10	1	-1E+10	1	-1E+10	1	-1E+10	1
4901784	5	C	08/24/2015	10:49	-129.045	46.875	0	245.20	0	6.6700	0	33.8930	0	26.594	0	243.023	0	113.8	4	38.2	4	-1E+10	1	-1E+10	1	-1E+10	1	-1E+10	1	-1E+10	1	-1E+10	1
4901784	5	C	08/24/2015	10:49	-129.045	46.875	0	247.00	0	6.6880	0	33.9010	0	26.598	0	244.806	0	109.1	4	36.6	4	-1E+10	1	-1E+10	1	-1E+10	1	-1E+10	1	-1E+10	1	-1E+10	1
4901784	5	C	08/24/2015	10:49	-129.045	46.875	0	249.90	0	6.6970	0	33.9120	0	26.606	0	247.679	0	105.0	4	35.3	4	-1E+10	1	-1E+10	1	-1E+10	1	-1E+10	1	-1E+10	1	-1E+10	1
4901784	5	C	08/24/2015	10:49	-129.045	46.875	0	252.70	0	6.6820	0	33.9200	0	26.614	0	250.452	0	103.2	4	34.7	4	-1E+10	1	-1E+10	1	-1E+10	1	-1E+10	1	-1E+10	1	-1E+10	1
4901784	5	C	08/24/2015	10:49	-129.045	46.875	0	254.60	0	6.6750	0	33.9200	0	26.615	0	252.334	0	102.9	4	34.5	4	-1E+10	1	-1E+10	1	-1E+10	1	-1E+10	1	-1E+10	1	-1E+10	1
4901784	5	C	08/24/2015	10:49	-129.045	46.875	0	257.40	0	6.6590	0	33.9210	0	26.618	0	255.107	0	102.6	4	34.4	4	-1E+10	1	-1E+10	1	-1E+10	1	-1E+10	1	-1E+10	1	-1E+10	1
4901784	5	C	08/24/2015	10:49	-129.045	46.875	0	260.20	0	6.6330	0	33.9190	0	26.620	0	257.881	0	102.3	4	34.3	4	-1E+10	1	-1E+10	1	-1E+10	1	-1E+10	1	-1E+10	1	-1E+10	1
4901784	5	C	08/24/2015	10:49	-129.045	46.875	0	262.00	0	6.6010	0	33.9200	0	26.625	0	259.664	0	101.6	4	34.1	4	-1E+10	1	-1E+10	1	-1E+10	1	-1E+10	1	-1E+10	1	-1E+10	1
4901784	5	C	08/24/2015	10:49	-129.045	46.875	0	264.70	0	6.5840	0	33.9240	0	26.630	0	262.338	0	101.4	4	34.0	4	-1E+10	1	-1E+10	1	-1E+10	1	-1E+10	1	-1E+10	1	-1E+10	1
4901784	5	C	08/24/2015	10:49	-129.045	46.875	0	267.50	0	6.5250	0	33.9200	0	26.635	0	265.111	0	101.9	4	34.1	4	-1E+10	1	-1E+10	1	-1E+10	1	-1E+10	1	-1E+10	1	-1E+10	1
4901784	5	C	08/24/2015	10:49	-129.045	46.875	0	270.30	0	6.4930	0	33.9200	0	26.639	0	267.884	0	101.2	4	33.8	4	-1E+10	1	-1E+10	1	-1E+10	1	-1E+10	1	-1E+10	1	-1E+10	1
4901784	5	C	08/24/2015	10:49	-129.045	46.875	0	273.10	0	6.4730	0	33.9200	0	26.642	0	270.657	0	100.6	4	33.6	4	-1E+10	1	-1E+10	1	-1E+10	1	-1E+10	1	-1E+10	1	-1E+10	1
4901784	5	C	08/24/2015	10:49	-129.045	46.875	0	274.90	0	6.4160	0	33.9150	0	26.645	0	272.440	0	100.0	4	33.4	4	-1E+10	1	-1E+10	1	-1E+10	1	-1E+10	1	-1E+10	1	-1E+10	1
4901784	5	C	08/24/2015	10:49	-129.045	46.875	0	277.80	0	6.3650	0	33.9230	0	26.658	0	275.312	0	97.7	4	32.6	4	-1E+10	1	-1E+10	1	-1E+10	1	-1E+10	1	-1E+10	1	-1E+10	1
4901784	5	C	08/24/2015	10:49	-129.045	46.875	0	280.50	0	6.3470	0	33.9230	0	26.661	0	277.986	0	95.2	4	31.7	4	-1E+10	1	-1E+10	1	-1E+10	1	-1E+10	1	-1E+10	1	-1E+10	1
4901784	5	C	08/24/2015	10:49	-129.045	46.875	0	282.40	0	6.3580	0	33.9260	0	26.662	0	279.868	0	93.1	4	31.0	4	-1E+10	1	-1E+10	1	-1E+10	1	-1E+10	1	-1E+10	1	-1E+10	1
4901784	5	C	08/24/2015	10:49	-129.045	46.875	0	285.20	0	6.3660	0	33.9320	0	26.665	0	282.641	0	91.8	4	30.6	4	-1E+10	1	-1E+10	1	-1E+10	1	-1E+10	1	-1E+10	1	-1E+10	1
4901784	5	C	08/24/2015	10:49	-129.045	46.875	0	287.90	0	6.3650	0	33.9350	0	26.668	0	285.315	0	90.4	4	30.1	4	-1E+10	1	-1E+10	1	-1E+10	1	-1E+10	1	-1E+10	1	-1E+10	1
4901784	5	C	08/24/2015	10:49	-129.045	46.875	0	289.80	0	6.3220	0	33.9360	0	26.674	0	287.196	0	89.9	4	29.9	4	-1E+10	1	-1E+10	1	-1E+10	1	-1E+10	1	-1E+10	1	-1E+10	1
4901784	5	C	08/24/2015	10:49	-129.045	46.875	0	292.50	0	6.2840	0	33.9380	0	26.681	0	289.870	0	88.8	4	29.5	4	-1E+10	1	-1E+10	1	-1E+10	1	-1E+10	1	-1E+10	1	-1E+10	1
4901784	5	C	08/24/2015	10:49	-129.045	46.875	0	295.30	0	6.2800	0	33.9390	0	26.682	0	292.643	0	88.0	4	29.3	4	-1E+10	1	-1E+10	1	-1E+10	1	-1E+10	1	-1E+10	1	-1E+10	1
4901784	5	C	08/24/2015	10:49	-129.045	46.875	0	297.10	0	6.2680	0	33.9400	0	26.684	0	294.426	0	87.5	4	29.1	4	-1E+10	1	-1E+10	1	-1E+10	1	-1E+10	1	-1E+10	1	-1E+10	1
4901784	5	C	08/24/2015	10:49	-129.045	46.875	0	299.90	0	6.2590	0	33.9420	0	26.687	0	297.198	0	86.8	4	28.9	4	-1E+10	1	-1E+10	1	-1E+10	1	-1E+10	1	-1E+10	1	-1E+10	1
4901784	5	C	08/24/2015	10:49	-129.045	46.875	0	303.20	0	6.2320	0	33.9450	0	26.693	0	300.466	0	86.8	4	28.8	4	-1E+10	1	-1E+10	1	-1E+10	1	-1E+10	1	-1E+10	1	-1E+10	1
4901784	5	C	08/24/2015	10:49	-129.045	46.875	0	305.10	0	6.2240	0	33.9440	0	26.693	0	302.348	0	87.5	4	29.1	4	-1E+10	1	-1E+10	1	-1E+10	1	-1E+10	1	-1E+10	1	-1E+10	1
4901784	5	C	08/24/2015	10:49	-129.045	46.875	0	307.40	0	6.1910	0	33.9380	0	26.693	0	304.625	0	88.9	4	29.5	4	-1E+10	1	-1E+10	1	-1E+10	1	-1E+10	1	-1E+10	1	-1E+10	1
4901784	5	C	08/24/2015	10:49	-129.045	46.875	0	309.80	0	6.0310	0	33.9310	0	26.708	0	307.002	0	90.9	4	30.0	4	-1E+10	1	-1E+10	1	-1E+10	1	-1E+10	1	-1E+10	1	-1E+10	1
4901784	5	C	08/24/2015	10:49	-129.045	46.875	0	312.20	0	6.0000	0	33.9290	0	26.710	0	309.378	0	91.4	4	30.2	4	-1E+10	1	-1E+10	1	-1E+10	1	-1E+10	1	-1E+10	1	-1E+10	1
4901784	5	C	08/24/2015	10:49	-129.045	46.875	0	315.30	0	5.8950	0	33.9240	0	26.719	0	312.448	0	91.3	4	30.1	4	-1E+10	1	-1E+10	1	-1E+10	1	-1E+10	1	-1E+10	1	-1E+10	1
4901784	5	C	08/24/2015	10:49	-129.045	46.875	0	317.70	0	5.8700	0	33.9230	0	26.721	0	314.825	0	90.3	4	29.8	4	-1E+10	1	-1E+10	1	-1E+10	1	-1E+10	1	-1E+10	1	-1E+10	1
4901784	5	C	08/24/2015	10:49	-129.045	46.875	0	320.20	0	5.8630	0	33.9250	0	26.724	0	317.300	0	88.8	4	29.3	4	-1E+10	1	-1E+10	1	-1E+10	1	-1E+10	1	-1E+10	1	-1E+10	1
4901784	5	C	08/24/2015	10:49	-129.045	46.875	0	322.70	0	5.8220	0	33.9250	0	26.729	0	319.775	0	87.2	4	28.7	4	-1E+10	1	-1E+10	1	-1E+10	1	-1E+10	1	-1E+10	1	-1E+10	1
4901784	5	C	08/24/2015	10:49	-129.045	46.875	0	325.20	0	5.8380	0	33.9300	0	26.731	0	322.251	0	84.8	4	27.9	4	-1E+10	1	-1E+10	1	-1E+10	1	-1E+10	1	-1E+10	1	-1E+10	1
4901784	5	C	08/24/2015	10:49	-129.045	46.875	0	327.60	0	5.8530	0	33.9330	0	26.731	0	324.627	0	82.4	4	27.1	4	-1E+10	1	-1E+10	1	-1E+10	1	-1E+10	1	-1E+10	1	-1E+10	1
4901784	5	C	08/24/2015	10:49	-129.045	46.875	0	330.10	0	5.8750	0	33.9410	0	26.735	0	327.103	0	80.6	4	26.6	4	-1E+10	1	-1E+10	1	-1E+10	1	-1E+10	1	-1E+10	1	-1E+10	1
4901784	5	C	08/24/2015	10:49	-129.045	46.875	0	332.60	0	5.8430	0	33.9390	0	26.737	0	329.578	0	79.2	4	26.1	4	-1E+10	1	-1E+10	1	-1E+10	1	-1E+10	1	-1E+10	1	-1E+10	1
4901784	5	C	08/24/2015	10:49	-129.045	46.875	0	335.10	0	5.8130	0	33.9400	0	26.742	0	332.053	0	76.5	4	25.2	4	-1E+10	1	-1E+10	1	-1E+10	1	-1E+10	1	-1E+10	1	-1E+10	1
4901784	5	C	08/24/2015	10:49	-129.045	46.875	0	337.70	0	5.8480	0	33.9540	0	26.749	0	334.627	0	73.7	4	24.3	4	-1E+10	1	-1E+10	1	-1E+10	1	-1E+10	1	-1E+10	1	-1E+10	1
4901784	5	C	08/24/2015	10:49	-129.045	46.875	0	340.10	0	5.7910	0	33.9490	0	26.752	0	337.004	0	71.9	4	23.7	4	-1E+10	1	-1E+10	1	-1E+10	1	-1E+10	1	-1E+10	1	-1E+10	1
4901784	5	C	08/24/2015	10:49	-129.045	46.875	0	342.70	0	5.8670	0	33.9670	0	26.757	0	339.578	0	68.4	4	22.5	4	-1E+10	1	-1E+10	1	-1E+10	1	-1E+10	1	-1E+10	1	-1E+10	1
4901784	5	C	08/24/2015	10:49	-129.045	46.875	0	345.20	0	5.8260	0	33.9680	0	26.763	0	342.053	0	67.8	4	22.3	4	-1E+10	1	-1E+10	1	-1E+10	1	-1E+10	1	-1E+10	1	-1E+10	1
4901784	5	C	08/24/2015	10:49	-129.045	46.875	0	347.80	0	5.7830	0	33.9660	0	26.766	0	344.627	0	67.5	4	22.2	4	-1E+10	1	-1E+10	1	-1E+10	1	-1E+10	1	-1E+10	1	-1E+10	1
4901784	5	C	08/24/2015	10:49	-129.045	46.875	0	350.40	0	5.7850	0	33.9690	0	26.768	0	347.201	0	66.9	4	22.0	4	-1E+10	1	-1E+10	1	-1E+10	1	-1E+10	1	-1E+10	1	-1E+10	1
4901784	5	C	08/24/2015	10:49	-129.045	46.875	0	353.00	0	5.7740	0	33.9710	0	26.771	0	349.775	0	66.7	4	21.9	4	-1E+10	1	-1E+10	1	-1E+10	1	-1E+10	1	-1E+10	1	-1E+10	1
4901784	5	C	08/24/2015	10:49	-129.045	46.875	0	354.80	0	5.7350	0	33.9690	0	26.775	0	351.557	0	66.7	4	21.9	4	-1E+10	1	-1E+10	1	-1E+10	1	-1E+10	1	-1E+10	1	-1E+10	1
4901784	5	C	08/24/2015	10:49	-129.045	46.875	0	357.40	0	5.7220	0	33.9700	0	26.777	0	354.131	0	66.4	4	21.8	4	-1E+10	1	-1E+10	1	-1E+10	1	-1E+10	1	-1E+10	1	-1E+10	1
4901784	5	C	08/24/2015	10:49	-129.045	46.875	0	360.00	0	5.7090	0	33.9720	0	26.780	0	356.705	0	66.5	4	21.8	4	-1E+10	1	-1E+10	1	-1E+10	1	-1E+10	1	-1E+10	1	-1E+10	1
4901784	5	C	08/24/2015	10:49	-129.045	46.875	0	362.60	0	5.6600	0	33.9700	0	26.785	0	359.279	0	67.1	4	22.0	4	-1E+10	1	-1E+10	1	-1E+10	1	-1E+10	1	-1E+10	1	-1E+10	1
4901784	5	C	08/24/2015	10:49	-129.045	46.875	0	365.30	0	5.6230	0	33.9660	0	26.786	0	361.952	0	67.6	4	22.1	4	-1E+10	1	-1E+10	1	-1E+10	1	-1E+10	1	-1E+10	1	-1E+10	1
4901784	5	C	08/24/2015	10:49	-129.045	46.875	0	367.10	0	5.5920	0	33.9640	0	26.788	0	363.734	0	67.7	4	22.2	4	-1E+10	1	-1E+10	1	-1E+10	1	-1E+10	1	-1E+10	1	-1E+10	1
4901784	5	C	08/24/2015	10:49	-129.045	46.875	0	369.80	0	5.5710	0	33.9610	0	26.788	0	366.407	0	67.4	4	22.1	4	-1E+10	1	-1E+10	1	-1E+10	1	-1E+10	1	-1E+10	1	-1E+10	1
4901784	5	C	08/24/2015	10:49	-129.045	46.875	0	372.50	0	5.5020	0	33.9610	0	26.797	0	369.080	0	66.9	4	21.9	4	-1E+10	1	-1E+10	1	-1E+10	1	-1E+10	1	-1E+10	1	-1E+10	1
4901784	5	C	08/24/2015	10:49	-129.045	46.875	0	375.20	0	5.4950	0	33.9590	0	26.796	0	371.753	0	65.3	4	21.3	4	-1E+10	1	-1E+10	1	-1E+10	1	-1E+10	1	-1E+10	1	-1E+10	1
4901784	5	C	08/24/2015	10:49	-129.045	46.875	0	377.90	0	5.4980	0	33.9680	0	26.803	0	374.425	0	64.6	4	21.1	4	-1E+10	1	-1E+10	1	-1E+10	1	-1E+10	1	-1E+10	1	-1E+10	1
4901784	5	C	08/24/2015	10:49	-129.045	46.875	0	379.70	0	5.4730	0	33.9660	0	26.804	0	376.207	0	64.4	4	21.0	4	-1E+10	1	-1E+10	1	-1E+10	1	-1E+10	1	-1E+10	1	-1E+10	1
4901784	5	C	08/24/2015	10:49	-129.045	46.875	0	382.50	0	5.4650	0	33.9680	0	26.807	0	378.979	0	63.5	4	20.7	4	-1E+10	1	-1E+10	1	-1E+10	1	-1E+10	1	-1E+10	1	-1E+10	1
4901784	5	C	08/24/2015	10:49	-129.045	46.875	0	385.20	0	5.4680	0	33.9680	0	26.806	0	381.652	0	62.7	4	20.5	4	-1E+10	1	-1E+10	1	-1E+10	1	-1E+10	1	-1E+10	1	-1E+10	1
4901784	5	C	08/24/2015	10:49	-129.045	46.875	0	387.10	0	5.4550	0	33.9680	0	26.808	0	383.532	0	61.9	4	20.2	4	-1E+10	1	-1E+10	1	-1E+10	1	-1E+10	1	-1E+10	1	-1E+10	1
4901784	5	C	08/24/2015	10:49	-129.045	46.875	0	389.90	0	5.4570	0	33.9750	0	26.813	0	386.304	0	60.6	4	19.8	4	-1E+10	1	-1E+10	1	-1E+10	1	-1E+10	1	-1E+10	1	-1E+10	1
4901784	5	C	08/24/2015	10:49	-129.045	46.875	0	392.60	0	5.4280	0	33.9760	0	26.817	0	388.976	0	59.9	4	19.5	4	-1E+10	1	-1E+10	1	-1E+10	1	-1E+10	1	-1E+10	1	-1E+10	1
4901784	5	C	08/24/2015	10:49	-129.045	46.875	0	394.50	0	5.3980	0	33.9760	0	26.821	0	390.857	0	59.4	4	19.4	4	-1E+10	1	-1E+10	1	-1E+10	1	-1E+10	1	-1E+10	1	-1E+10	1
4901784	5	C	08/24/2015	10:49	-129.045	46.875	0	397.30	0	5.3720	0	33.9760	0	26.824	0	393.629	0	57.7	4	18.8	4	-1E+10	1	-1E+10	1	-1E+10	1	-1E+10	1	-1E+10	1	-1E+10	1
4901784	5	C	08/24/2015	10:49	-129.045	46.875	0	400.10	0	5.3660	0	33.9810	0	26.829	0	396.400	0	55.7	4	18.1	4	-1E+10	1	-1E+10	1	-1E+10	1	-1E+10	1	-1E+10	1	-1E+10	1
4901784	5	C	08/24/2015	10:49	-129.045	46.875	0	402.00	0	5.4050	0	33.9910	0	26.832	0	398.281	0	54.4	4	17.7	4	-1E+10	1	-1E+10	1	-1E+10	1	-1E+10	1	-1E+10	1	-1E+10	1
4901784	5	C	08/24/2015	10:49	-129.045	46.875	0	404.80	0	5.4230	0	33.9970	0	26.835	0	401.052	0	53.6	4	17.5	4	-1E+10	1	-1E+10	1	-1E+10	1	-1E+10	1	-1E+10	1	-1E+10	1
4901784	5	C	08/24/2015	10:49	-129.045	46.875	0	407.70	0	5.3840	0	33.9970	0	26.839	0	403.922	0	53.4	4	17.4	4	-1E+10	1	-1E+10	1	-1E+10	1	-1E+10	1	-1E+10	1	-1E+10	1
4901784	5	C	08/24/2015	10:49	-129.045	46.875	0	409.60	0	5.3740	0	33.9970	0	26.841	0	405.803	0	53.1	4	17.3	4	-1E+10	1	-1E+10	1	-1E+10	1	-1E+10	1	-1E+10	1	-1E+10	1
4901784	5	C	08/24/2015	10:49	-129.045	46.875	0	412.40	0	5.3590	0	33.9980	0	26.843	0	408.574	0	52.7	4	17.1	4	-1E+10	1	-1E+10	1	-1E+10	1	-1E+10	1	-1E+10	1	-1E+10	1
4901784	5	C	08/24/2015	10:49	-129.045	46.875	0	415.30	0	5.3330	0	34.0000	0	26.848	0	411.444	0	52.1	4	16.9	4	-1E+10	1	-1E+10	1	-1E+10	1	-1E+10	1	-1E+10	1	-1E+10	1
4901784	5	C	08/24/2015	10:49	-129.045	46.875	0	417.30	0	5.3320	0	34.0010	0	26.849	0	413.424	0	51.7	4	16.8	4	-1E+10	1	-1E+10	1	-1E+10	1	-1E+10	1	-1E+10	1	-1E+10	1
4901784	5	C	08/24/2015	10:49	-129.045	46.875	0	420.10	0	5.3350	0	34.0020	0	26.849	0	416.195	0	51.0	4	16.6	4	-1E+10	1	-1E+10	1	-1E+10	1	-1E+10	1	-1E+10	1	-1E+10	1
4901784	5	C	08/24/2015	10:49	-129.045	46.875	0	423.00	0	5.3260	0	34.0030	0	26.851	0	419.065	0	50.3	4	16.4	4	-1E+10	1	-1E+10	1	-1E+10	1	-1E+10	1	-1E+10	1	-1E+10	1
4901784	5	C	08/24/2015	10:49	-129.045	46.875	0	424.90	0	5.2950	0	34.0040	0	26.856	0	420.946	0	49.8	4	16.2	4	-1E+10	1	-1E+10	1	-1E+10	1	-1E+10	1	-1E+10	1	-1E+10	1
4901784	5	C	08/24/2015	10:49	-129.045	46.875	0	427.80	0	5.2870	0	34.0070	0	26.859	0	423.816	0	48.8	4	15.9	4	-1E+10	1	-1E+10	1	-1E+10	1	-1E+10	1	-1E+10	1	-1E+10	1
4901784	5	C	08/24/2015	10:49	-129.045	46.875	0	430.70	0	5.3060	0	34.0140	0	26.862	0	426.686	0	47.6	4	15.5	4	-1E+10	1	-1E+10	1	-1E+10	1	-1E+10	1	-1E+10	1	-1E+10	1
4901784	5	C	08/24/2015	10:49	-129.045	46.875	0	432.60	0	5.2960	0	34.0160	0	26.865	0	428.566	0	47.3	4	15.4	4	-1E+10	1	-1E+10	1	-1E+10	1	-1E+10	1	-1E+10	1	-1E+10	1
4901784	5	C	08/24/2015	10:49	-129.045	46.875	0	434.50	0	5.2930	0	34.0160	0	26.865	0	430.446	0	47.0	4	15.3	4	-1E+10	1	-1E+10	1	-1E+10	1	-1E+10	1	-1E+10	1	-1E+10	1
4901784	5	C	08/24/2015	10:49	-129.045	46.875	0	437.50	0	5.2790	0	34.0160	0	26.867	0	433.415	0	46.5	4	15.1	4	-1E+10	1	-1E+10	1	-1E+10	1	-1E+10	1	-1E+10	1	-1E+10	1
4901784	5	C	08/24/2015	10:49	-129.045	46.875	0	440.40	0	5.2570	0	34.0160	0	26.870	0	436.285	0	45.7	4	14.8	4	-1E+10	1	-1E+10	1	-1E+10	1	-1E+10	1	-1E+10	1	-1E+10	1
4901784	5	C	08/24/2015	10:49	-129.045	46.875	0	442.30	0	5.2750	0	34.0190	0	26.870	0	438.165	0	44.9	4	14.6	4	-1E+10	1	-1E+10	1	-1E+10	1	-1E+10	1	-1E+10	1	-1E+10	1
4901784	5	C	08/24/2015	10:49	-129.045	46.875	0	445.20	0	5.2760	0	34.0210	0	26.871	0	441.035	0	43.8	4	14.2	4	-1E+10	1	-1E+10	1	-1E+10	1	-1E+10	1	-1E+10	1	-1E+10	1
4901784	5	C	08/24/2015	10:49	-129.045	46.875	0	448.10	0	5.2470	0	34.0260	0	26.879	0	443.905	0	42.6	4	13.8	4	-1E+10	1	-1E+10	1	-1E+10	1	-1E+10	1	-1E+10	1	-1E+10	1
4901784	5	C	08/24/2015	10:49	-129.045	46.875	0	450.00	0	5.2110	0	34.0280	0	26.885	0	445.785	0	42.0	4	13.6	4	-1E+10	1	-1E+10	1	-1E+10	1	-1E+10	1	-1E+10	1	-1E+10	1
4901784	5	C	08/24/2015	10:49	-129.045	46.875	0	452.00	0	5.2140	0	34.0310	0	26.887	0	447.764	0	41.5	4	13.5	4	-1E+10	1	-1E+10	1	-1E+10	1	-1E+10	1	-1E+10	1	-1E+10	1
4901784	5	C	08/24/2015	10:49	-129.045	46.875	0	454.50	0	5.1960	0	34.0360	0	26.893	0	450.238	0	40.8	4	13.3	4	-1E+10	1	-1E+10	1	-1E+10	1	-1E+10	1	-1E+10	1	-1E+10	1
4901784	5	C	08/24/2015	10:49	-129.045	46.875	0	457.40	0	5.1780	0	34.0360	0	26.895	0	453.108	0	40.4	4	13.1	4	-1E+10	1	-1E+10	1	-1E+10	1	-1E+10	1	-1E+10	1	-1E+10	1
4901784	5	C	08/24/2015	10:49	-129.045	46.875	0	459.80	0	5.1580	0	34.0380	0	26.899	0	455.482	0	40.0	4	13.0	4	-1E+10	1	-1E+10	1	-1E+10	1	-1E+10	1	-1E+10	1	-1E+10	1
4901784	5	C	08/24/2015	10:49	-129.045	46.875	0	462.30	0	5.1500	0	34.0390	0	26.900	0	457.956	0	39.8	4	12.9	4	-1E+10	1	-1E+10	1	-1E+10	1	-1E+10	1	-1E+10	1	-1E+10	1
4901784	5	C	08/24/2015	10:49	-129.045	46.875	0	464.70	0	5.1230	0	34.0370	0	26.902	0	460.331	0	39.4	4	12.8	4	-1E+10	1	-1E+10	1	-1E+10	1	-1E+10	1	-1E+10	1	-1E+10	1
4901784	5	C	08/24/2015	10:49	-129.045	46.875	0	467.20	0	5.0740	0	34.0400	0	26.910	0	462.805	0	38.7	4	12.5	4	-1E+10	1	-1E+10	1	-1E+10	1	-1E+10	1	-1E+10	1	-1E+10	1
4901784	5	C	08/24/2015	10:49	-129.045	46.875	0	469.70	0	5.0800	0	34.0430	0	26.912	0	465.278	0	38.1	4	12.3	4	-1E+10	1	-1E+10	1	-1E+10	1	-1E+10	1	-1E+10	1	-1E+10	1
4901784	5	C	08/24/2015	10:49	-129.045	46.875	0	472.20	0	5.0670	0	34.0470	0	26.916	0	467.752	0	37.5	4	12.1	4	-1E+10	1	-1E+10	1	-1E+10	1	-1E+10	1	-1E+10	1	-1E+10	1
4901784	5	C	08/24/2015	10:49	-129.045	46.875	0	474.70	0	5.0610	0	34.0480	0	26.918	0	470.226	0	37.0	4	12.0	4	-1E+10	1	-1E+10	1	-1E+10	1	-1E+10	1	-1E+10	1	-1E+10	1
4901784	5	C	08/24/2015	10:49	-129.045	46.875	0	477.20	0	5.0500	0	34.0510	0	26.922	0	472.699	0	36.7	4	11.9	4	-1E+10	1	-1E+10	1	-1E+10	1	-1E+10	1	-1E+10	1	-1E+10	1
4901784	5	C	08/24/2015	10:49	-129.045	46.875	0	479.80	0	5.0340	0	34.0510	0	26.923	0	475.272	0	36.6	4	11.8	4	-1E+10	1	-1E+10	1	-1E+10	1	-1E+10	1	-1E+10	1	-1E+10	1
4901784	5	C	08/24/2015	10:49	-129.045	46.875	0	482.30	0	4.9930	0	34.0500	0	26.927	0	477.745	0	36.5	4	11.8	4	-1E+10	1	-1E+10	1	-1E+10	1	-1E+10	1	-1E+10	1	-1E+10	1
4901784	5	C	08/24/2015	10:49	-129.045	46.875	0	484.90	0	4.9390	0	34.0480	0	26.932	0	480.318	0	35.8	4	11.6	4	-1E+10	1	-1E+10	1	-1E+10	1	-1E+10	1	-1E+10	1	-1E+10	1
4901784	5	C	08/24/2015	10:49	-129.045	46.875	0	487.50	0	4.9390	0	34.0530	0	26.936	0	482.890	0	34.9	4	11.3	4	-1E+10	1	-1E+10	1	-1E+10	1	-1E+10	1	-1E+10	1	-1E+10	1
4901784	5	C	08/24/2015	10:49	-129.045	46.875	0	490.10	0	4.9770	0	34.0630	0	26.940	0	485.463	0	34.0	4	11.0	4	-1E+10	1	-1E+10	1	-1E+10	1	-1E+10	1	-1E+10	1	-1E+10	1
4901784	5	C	08/24/2015	10:49	-129.045	46.875	0	492.80	0	4.9630	0	34.0640	0	26.942	0	488.134	0	33.8	4	10.9	4	-1E+10	1	-1E+10	1	-1E+10	1	-1E+10	1	-1E+10	1	-1E+10	1
4901784	5	C	08/24/2015	10:49	-129.045	46.875	0	495.40	0	4.9630	0	34.0650	0	26.943	0	490.706	0	33.5	4	10.8	4	-1E+10	1	-1E+10	1	-1E+10	1	-1E+10	1	-1E+10	1	-1E+10	1
4901784	5	C	08/24/2015	10:49	-129.045	46.875	0	497.10	0	4.9470	0	34.0650	0	26.945	0	492.388	0	33.5	4	10.8	4	-1E+10	1	-1E+10	1	-1E+10	1	-1E+10	1	-1E+10	1	-1E+10	1
4901784	5	C	08/24/2015	10:49	-129.045	46.875	0	499.70	0	4.9080	0	34.0640	0	26.948	0	494.960	0	33.2	4	10.7	4	-1E+10	1	-1E+10	1	-1E+10	1	-1E+10	1	-1E+10	1	-1E+10	1
4901784	5	C	08/24/2015	10:49	-129.045	46.875	0	505.00	0	4.9140	0	34.0710	0	26.953	0	500.204	0	31.8	4	10.3	4	-1E+10	1	-1E+10	1	-1E+10	1	-1E+10	1	-1E+10	1	-1E+10	1
4901784	5	C	08/24/2015	10:49	-129.045	46.875	0	509.40	0	4.9050	0	34.0750	0	26.957	0	504.556	0	31.0	4	10.0	4	-1E+10	1	-1E+10	1	-1E+10	1	-1E+10	1	-1E+10	1	-1E+10	1
4901784	5	C	08/24/2015	10:49	-129.045	46.875	0	514.80	0	4.8920	0	34.0800	0	26.963	0	509.899	0	30.1	4	9.7	4	-1E+10	1	-1E+10	1	-1E+10	1	-1E+10	1	-1E+10	1	-1E+10	1
4901784	5	C	08/24/2015	10:49	-129.045	46.875	0	520.20	0	4.8540	0	34.0840	0	26.970	0	515.240	0	29.5	4	9.5	4	-1E+10	1	-1E+10	1	-1E+10	1	-1E+10	1	-1E+10	1	-1E+10	1
4901784	5	C	08/24/2015	10:49	-129.045	46.875	0	525.60	0	4.8300	0	34.0870	0	26.975	0	520.582	0	28.9	4	9.3	4	-1E+10	1	-1E+10	1	-1E+10	1	-1E+10	1	-1E+10	1	-1E+10	1
4901784	5	C	08/24/2015	10:49	-129.045	46.875	0	530.10	0	4.8100	0	34.0890	0	26.979	0	525.034	0	28.3	4	9.1	4	-1E+10	1	-1E+10	1	-1E+10	1	-1E+10	1	-1E+10	1	-1E+10	1
4901784	5	C	08/24/2015	10:49	-129.045	46.875	0	534.50	0	4.8030	0	34.0930	0	26.983	0	529.386	0	27.6	4	8.9	4	-1E+10	1	-1E+10	1	-1E+10	1	-1E+10	1	-1E+10	1	-1E+10	1
4901784	5	C	08/24/2015	10:49	-129.045	46.875	0	540.00	0	4.7870	0	34.0960	0	26.987	0	534.826	0	27.0	4	8.7	4	-1E+10	1	-1E+10	1	-1E+10	1	-1E+10	1	-1E+10	1	-1E+10	1
4901784	5	C	08/24/2015	10:49	-129.045	46.875	0	545.50	0	4.7580	0	34.0980	0	26.992	0	540.266	0	26.2	4	8.4	4	-1E+10	1	-1E+10	1	-1E+10	1	-1E+10	1	-1E+10	1	-1E+10	1
4901784	5	C	08/24/2015	10:49	-129.045	46.875	0	550.10	0	4.7500	0	34.1030	0	26.997	0	544.816	0	25.2	4	8.1	4	-1E+10	1	-1E+10	1	-1E+10	1	-1E+10	1	-1E+10	1	-1E+10	1
4901784	5	C	08/24/2015	10:49	-129.045	46.875	0	554.50	0	4.7460	0	34.1090	0	27.002	0	549.168	0	24.4	4	7.8	4	-1E+10	1	-1E+10	1	-1E+10	1	-1E+10	1	-1E+10	1	-1E+10	1
4901784	5	C	08/24/2015	10:49	-129.045	46.875	0	559.90	0	4.7400	0	34.1130	0	27.006	0	554.509	0	23.7	4	7.6	4	-1E+10	1	-1E+10	1	-1E+10	1	-1E+10	1	-1E+10	1	-1E+10	1
4901784	5	C	08/24/2015	10:49	-129.045	46.875	0	565.40	0	4.7330	0	34.1180	0	27.011	0	559.949	0	23.1	4	7.4	4	-1E+10	1	-1E+10	1	-1E+10	1	-1E+10	1	-1E+10	1	-1E+10	1
4901784	5	C	08/24/2015	10:49	-129.045	46.875	0	570.00	0	4.7250	0	34.1220	0	27.015	0	564.498	0	22.8	4	7.3	4	-1E+10	1	-1E+10	1	-1E+10	1	-1E+10	1	-1E+10	1	-1E+10	1
4901784	5	C	08/24/2015	10:49	-129.045	46.875	0	574.60	0	4.7170	0	34.1230	0	27.017	0	569.047	0	23.0	4	7.4	4	-1E+10	1	-1E+10	1	-1E+10	1	-1E+10	1	-1E+10	1	-1E+10	1
4901784	5	C	08/24/2015	10:49	-129.045	46.875	0	580.10	0	4.6300	0	34.1180	0	27.023	0	574.487	0	23.9	4	7.7	4	-1E+10	1	-1E+10	1	-1E+10	1	-1E+10	1	-1E+10	1	-1E+10	1
4901784	5	C	08/24/2015	10:49	-129.045	46.875	0	585.60	0	4.5480	0	34.1170	0	27.031	0	579.926	0	24.1	4	7.7	4	-1E+10	1	-1E+10	1	-1E+10	1	-1E+10	1	-1E+10	1	-1E+10	1
4901784	5	C	08/24/2015	10:49	-129.045	46.875	0	590.20	0	4.4810	0	34.1160	0	27.037	0	584.475	0	24.6	4	7.8	4	-1E+10	1	-1E+10	1	-1E+10	1	-1E+10	1	-1E+10	1	-1E+10	1
4901784	5	C	08/24/2015	10:49	-129.045	46.875	0	594.70	0	4.4030	0	34.1110	0	27.042	0	588.925	0	24.5	4	7.8	4	-1E+10	1	-1E+10	1	-1E+10	1	-1E+10	1	-1E+10	1	-1E+10	1
4901784	5	C	08/24/2015	10:49	-129.045	46.875	0	600.30	0	4.3810	0	34.1140	0	27.046	0	594.462	0	23.8	4	7.6	4	-1E+10	1	-1E+10	1	-1E+10	1	-1E+10	1	-1E+10	1	-1E+10	1
4901784	5	C	08/24/2015	10:49	-129.045	46.875	0	605.00	0	4.3810	0	34.1200	0	27.051	0	599.110	0	22.8	4	7.3	4	-1E+10	1	-1E+10	1	-1E+10	1	-1E+10	1	-1E+10	1	-1E+10	1
4901784	5	C	08/24/2015	10:49	-129.045	46.875	0	609.70	0	4.3650	0	34.1270	0	27.058	0	603.757	0	22.1	4	7.0	4	-1E+10	1	-1E+10	1	-1E+10	1	-1E+10	1	-1E+10	1	-1E+10	1
4901784	5	C	08/24/2015	10:49	-129.045	46.875	0	615.00	0	4.3500	0	34.1330	0	27.065	0	608.998	0	21.3	4	6.8	4	-1E+10	1	-1E+10	1	-1E+10	1	-1E+10	1	-1E+10	1	-1E+10	1
4901784	5	C	08/24/2015	10:49	-129.045	46.875	0	619.40	0	4.3490	0	34.1380	0	27.069	0	613.348	0	21.0	4	6.7	4	-1E+10	1	-1E+10	1	-1E+10	1	-1E+10	1	-1E+10	1	-1E+10	1
4901784	5	C	08/24/2015	10:49	-129.045	46.875	0	625.00	0	4.2990	0	34.1390	0	27.075	0	618.885	0	21.6	4	6.9	4	-1E+10	1	-1E+10	1	-1E+10	1	-1E+10	1	-1E+10	1	-1E+10	1
4901784	5	C	08/24/2015	10:49	-129.045	46.875	0	630.70	0	4.2480	0	34.1360	0	27.078	0	624.521	0	22.0	4	7.0	4	-1E+10	1	-1E+10	1	-1E+10	1	-1E+10	1	-1E+10	1	-1E+10	1
4901784	5	C	08/24/2015	10:49	-129.045	46.875	0	635.60	0	4.2320	0	34.1400	0	27.083	0	629.366	0	21.3	4	6.8	4	-1E+10	1	-1E+10	1	-1E+10	1	-1E+10	1	-1E+10	1	-1E+10	1
4901784	5	C	08/24/2015	10:49	-129.045	46.875	0	640.60	0	4.2320	0	34.1450	0	27.087	0	634.309	0	20.8	4	6.6	4	-1E+10	1	-1E+10	1	-1E+10	1	-1E+10	1	-1E+10	1	-1E+10	1
4901784	5	C	08/24/2015	10:49	-129.045	46.875	0	645.60	0	4.1960	0	34.1500	0	27.095	0	639.252	0	20.6	4	6.5	4	-1E+10	1	-1E+10	1	-1E+10	1	-1E+10	1	-1E+10	1	-1E+10	1
4901784	5	C	08/24/2015	10:49	-129.045	46.875	0	650.60	0	4.1870	0	34.1510	0	27.097	0	644.195	0	20.3	4	6.4	4	-1E+10	1	-1E+10	1	-1E+10	1	-1E+10	1	-1E+10	1	-1E+10	1
4901784	5	C	08/24/2015	10:49	-129.045	46.875	0	655.60	0	4.1690	0	34.1560	0	27.102	0	649.138	0	20.0	4	6.3	4	-1E+10	1	-1E+10	1	-1E+10	1	-1E+10	1	-1E+10	1	-1E+10	1
4901784	5	C	08/24/2015	10:49	-129.045	46.875	0	660.70	0	4.1530	0	34.1580	0	27.106	0	654.180	0	19.7	4	6.2	4	-1E+10	1	-1E+10	1	-1E+10	1	-1E+10	1	-1E+10	1	-1E+10	1
4901784	5	C	08/24/2015	10:49	-129.045	46.875	0	665.00	0	4.1590	0	34.1630	0	27.109	0	658.431	0	19.1	4	6.1	4	-1E+10	1	-1E+10	1	-1E+10	1	-1E+10	1	-1E+10	1	-1E+10	1
4901784	5	C	08/24/2015	10:49	-129.045	46.875	0	669.40	0	4.1530	0	34.1640	0	27.111	0	662.780	0	19.1	4	6.1	4	-1E+10	1	-1E+10	1	-1E+10	1	-1E+10	1	-1E+10	1	-1E+10	1
4901784	5	C	08/24/2015	10:49	-129.045	46.875	0	674.60	0	4.1100	0	34.1680	0	27.118	0	667.921	0	19.1	4	6.1	4	-1E+10	1	-1E+10	1	-1E+10	1	-1E+10	1	-1E+10	1	-1E+10	1
4901784	5	C	08/24/2015	10:49	-129.045	46.875	0	679.70	0	4.0790	0	34.1700	0	27.123	0	672.962	0	18.9	4	6.0	4	-1E+10	1	-1E+10	1	-1E+10	1	-1E+10	1	-1E+10	1	-1E+10	1
4901784	5	C	08/24/2015	10:49	-129.045	46.875	0	684.90	0	4.0780	0	34.1750	0	27.127	0	678.102	0	18.3	4	5.8	4	-1E+10	1	-1E+10	1	-1E+10	1	-1E+10	1	-1E+10	1	-1E+10	1
4901784	5	C	08/24/2015	10:49	-129.045	46.875	0	690.20	0	4.0730	0	34.1780	0	27.130	0	683.341	0	18.0	4	5.7	4	-1E+10	1	-1E+10	1	-1E+10	1	-1E+10	1	-1E+10	1	-1E+10	1
4901784	5	C	08/24/2015	10:49	-129.045	46.875	0	695.50	0	4.0630	0	34.1830	0	27.135	0	688.579	0	17.5	4	5.5	4	-1E+10	1	-1E+10	1	-1E+10	1	-1E+10	1	-1E+10	1	-1E+10	1
4901784	5	C	08/24/2015	10:49	-129.045	46.875	0	699.90	0	4.0490	0	34.1880	0	27.141	0	692.928	0	17.3	4	5.5	4	-1E+10	1	-1E+10	1	-1E+10	1	-1E+10	1	-1E+10	1	-1E+10	1
4901784	5	C	08/24/2015	10:49	-129.045	46.875	0	704.20	0	4.0410	0	34.1910	0	27.144	0	697.178	0	17.1	4	5.4	4	-1E+10	1	-1E+10	1	-1E+10	1	-1E+10	1	-1E+10	1	-1E+10	1
4901784	5	C	08/24/2015	10:49	-129.045	46.875	0	709.50	0	4.0140	0	34.1940	0	27.149	0	702.416	0	17.1	4	5.4	4	-1E+10	1	-1E+10	1	-1E+10	1	-1E+10	1	-1E+10	1	-1E+10	1
4901784	5	C	08/24/2015	10:49	-129.045	46.875	0	714.90	0	3.9750	0	34.1960	0	27.155	0	707.753	0	17.0	4	5.4	4	-1E+10	1	-1E+10	1	-1E+10	1	-1E+10	1	-1E+10	1	-1E+10	1
4901784	5	C	08/24/2015	10:49	-129.045	46.875	0	720.20	0	3.9550	0	34.2000	0	27.160	0	712.991	0	16.7	4	5.3	4	-1E+10	1	-1E+10	1	-1E+10	1	-1E+10	1	-1E+10	1	-1E+10	1
4901784	5	C	08/24/2015	10:49	-129.045	46.875	0	725.70	0	3.9380	0	34.2060	0	27.166	0	718.427	0	16.3	4	5.1	4	-1E+10	1	-1E+10	1	-1E+10	1	-1E+10	1	-1E+10	1	-1E+10	1
4901784	5	C	08/24/2015	10:49	-129.045	46.875	0	730.20	0	3.9270	0	34.2110	0	27.171	0	722.874	0	16.1	4	5.1	4	-1E+10	1	-1E+10	1	-1E+10	1	-1E+10	1	-1E+10	1	-1E+10	1
4901784	5	C	08/24/2015	10:49	-129.045	46.875	0	734.70	0	3.9240	0	34.2120	0	27.173	0	727.321	0	16.0	4	5.0	4	-1E+10	1	-1E+10	1	-1E+10	1	-1E+10	1	-1E+10	1	-1E+10	1
4901784	5	C	08/24/2015	10:49	-129.045	46.875	0	740.20	0	3.9110	0	34.2140	0	27.176	0	732.756	0	15.7	4	5.0	4	-1E+10	1	-1E+10	1	-1E+10	1	-1E+10	1	-1E+10	1	-1E+10	1
4901784	5	C	08/24/2015	10:49	-129.045	46.875	0	745.60	0	3.8980	0	34.2210	0	27.182	0	738.092	0	15.3	4	4.8	4	-1E+10	1	-1E+10	1	-1E+10	1	-1E+10	1	-1E+10	1	-1E+10	1
4901784	5	C	08/24/2015	10:49	-129.045	46.875	0	750.20	0	3.8940	0	34.2250	0	27.186	0	742.638	0	15.1	4	4.8	4	-1E+10	1	-1E+10	1	-1E+10	1	-1E+10	1	-1E+10	1	-1E+10	1
4901784	5	C	08/24/2015	10:49	-129.045	46.875	0	754.80	0	3.8880	0	34.2280	0	27.189	0	747.183	0	14.9	4	4.7	4	-1E+10	1	-1E+10	1	-1E+10	1	-1E+10	1	-1E+10	1	-1E+10	1
4901784	5	C	08/24/2015	10:49	-129.045	46.875	0	760.40	0	3.8720	0	34.2320	0	27.194	0	752.716	0	14.7	4	4.6	4	-1E+10	1	-1E+10	1	-1E+10	1	-1E+10	1	-1E+10	1	-1E+10	1
4901784	5	C	08/24/2015	10:49	-129.045	46.875	0	765.00	0	3.8710	0	34.2360	0	27.197	0	757.262	0	14.4	4	4.5	4	-1E+10	1	-1E+10	1	-1E+10	1	-1E+10	1	-1E+10	1	-1E+10	1
4901784	5	C	08/24/2015	10:49	-129.045	46.875	0	769.60	0	3.8640	0	34.2400	0	27.201	0	761.807	0	14.2	4	4.5	4	-1E+10	1	-1E+10	1	-1E+10	1	-1E+10	1	-1E+10	1	-1E+10	1
4901784	5	C	08/24/2015	10:49	-129.045	46.875	0	775.30	0	3.8540	0	34.2430	0	27.205	0	767.438	0	14.2	4	4.5	4	-1E+10	1	-1E+10	1	-1E+10	1	-1E+10	1	-1E+10	1	-1E+10	1
4901784	5	C	08/24/2015	10:49	-129.045	46.875	0	780.70	0	3.8470	0	34.2450	0	27.207	0	772.774	0	14.1	4	4.4	4	-1E+10	1	-1E+10	1	-1E+10	1	-1E+10	1	-1E+10	1	-1E+10	1
4901784	5	C	08/24/2015	10:49	-129.045	46.875	0	785.60	0	3.8360	0	34.2470	0	27.210	0	777.615	0	14.1	4	4.4	4	-1E+10	1	-1E+10	1	-1E+10	1	-1E+10	1	-1E+10	1	-1E+10	1
4901784	5	C	08/24/2015	10:49	-129.045	46.875	0	790.50	0	3.8210	0	34.2480	0	27.212	0	782.456	0	14.0	4	4.4	4	-1E+10	1	-1E+10	1	-1E+10	1	-1E+10	1	-1E+10	1	-1E+10	1
4901784	5	C	08/24/2015	10:49	-129.045	46.875	0	795.40	0	3.8040	0	34.2520	0	27.217	0	787.297	0	13.9	4	4.4	4	-1E+10	1	-1E+10	1	-1E+10	1	-1E+10	1	-1E+10	1	-1E+10	1
4901784	5	C	08/24/2015	10:49	-129.045	46.875	0	800.40	0	3.8010	0	34.2560	0	27.220	0	792.236	0	13.6	4	4.3	4	-1E+10	1	-1E+10	1	-1E+10	1	-1E+10	1	-1E+10	1	-1E+10	1
4901784	5	C	08/24/2015	10:49	-129.045	46.875	0	805.40	0	3.7910	0	34.2600	0	27.225	0	797.176	0	13.4	4	4.2	4	-1E+10	1	-1E+10	1	-1E+10	1	-1E+10	1	-1E+10	1	-1E+10	1
4901784	5	C	08/24/2015	10:49	-129.045	46.875	0	810.40	0	3.7760	0	34.2640	0	27.229	0	802.115	0	13.2	4	4.2	4	-1E+10	1	-1E+10	1	-1E+10	1	-1E+10	1	-1E+10	1	-1E+10	1
4901784	5	C	08/24/2015	10:49	-129.045	46.875	0	815.40	0	3.7710	0	34.2680	0	27.233	0	807.054	0	13.2	4	4.2	4	-1E+10	1	-1E+10	1	-1E+10	1	-1E+10	1	-1E+10	1	-1E+10	1
4901784	5	C	08/24/2015	10:49	-129.045	46.875	0	820.40	0	3.7150	0	34.2660	0	27.237	0	811.994	0	13.4	4	4.2	4	-1E+10	1	-1E+10	1	-1E+10	1	-1E+10	1	-1E+10	1	-1E+10	1
4901784	5	C	08/24/2015	10:49	-129.045	46.875	0	825.40	0	3.7010	0	34.2690	0	27.241	0	816.933	0	13.2	4	4.2	4	-1E+10	1	-1E+10	1	-1E+10	1	-1E+10	1	-1E+10	1	-1E+10	1
4901784	5	C	08/24/2015	10:49	-129.045	46.875	0	830.50	0	3.6880	0	34.2740	0	27.246	0	821.970	0	13.0	4	4.1	4	-1E+10	1	-1E+10	1	-1E+10	1	-1E+10	1	-1E+10	1	-1E+10	1
4901784	5	C	08/24/2015	10:49	-129.045	46.875	0	835.60	0	3.6800	0	34.2780	0	27.250	0	827.008	0	12.9	4	4.0	4	-1E+10	1	-1E+10	1	-1E+10	1	-1E+10	1	-1E+10	1	-1E+10	1
4901784	5	C	08/24/2015	10:49	-129.045	46.875	0	840.70	0	3.6760	0	34.2820	0	27.254	0	832.045	0	12.8	4	4.0	4	-1E+10	1	-1E+10	1	-1E+10	1	-1E+10	1	-1E+10	1	-1E+10	1
4901784	5	C	08/24/2015	10:49	-129.045	46.875	0	845.80	0	3.6530	0	34.2840	0	27.258	0	837.082	0	12.8	4	4.0	4	-1E+10	1	-1E+10	1	-1E+10	1	-1E+10	1	-1E+10	1	-1E+10	1
4901784	5	C	08/24/2015	10:49	-129.045	46.875	0	850.10	0	3.6480	0	34.2850	0	27.259	0	841.329	0	12.8	4	4.0	4	-1E+10	1	-1E+10	1	-1E+10	1	-1E+10	1	-1E+10	1	-1E+10	1
4901784	5	C	08/24/2015	10:49	-129.045	46.875	0	854.30	0	3.6480	0	34.2870	0	27.261	0	845.478	0	12.6	4	4.0	4	-1E+10	1	-1E+10	1	-1E+10	1	-1E+10	1	-1E+10	1	-1E+10	1
4901784	5	C	08/24/2015	10:49	-129.045	46.875	0	859.40	0	3.6370	0	34.2910	0	27.265	0	850.515	0	12.6	4	3.9	4	-1E+10	1	-1E+10	1	-1E+10	1	-1E+10	1	-1E+10	1	-1E+10	1
4901784	5	C	08/24/2015	10:49	-129.045	46.875	0	864.60	0	3.6290	0	34.2940	0	27.268	0	855.650	0	12.5	4	3.9	4	-1E+10	1	-1E+10	1	-1E+10	1	-1E+10	1	-1E+10	1	-1E+10	1
4901784	5	C	08/24/2015	10:49	-129.045	46.875	0	869.80	0	3.6170	0	34.2980	0	27.272	0	860.786	0	12.4	4	3.9	4	-1E+10	1	-1E+10	1	-1E+10	1	-1E+10	1	-1E+10	1	-1E+10	1
4901784	5	C	08/24/2015	10:49	-129.045	46.875	0	874.90	0	3.6130	0	34.3010	0	27.275	0	865.822	0	12.3	4	3.8	4	-1E+10	1	-1E+10	1	-1E+10	1	-1E+10	1	-1E+10	1	-1E+10	1
4901784	5	C	08/24/2015	10:49	-129.045	46.875	0	880.20	0	3.6040	0	34.3030	0	27.278	0	871.056	0	12.3	4	3.8	4	-1E+10	1	-1E+10	1	-1E+10	1	-1E+10	1	-1E+10	1	-1E+10	1
4901784	5	C	08/24/2015	10:49	-129.045	46.875	0	885.40	0	3.5850	0	34.3060	0	27.282	0	876.191	0	12.2	4	3.8	4	-1E+10	1	-1E+10	1	-1E+10	1	-1E+10	1	-1E+10	1	-1E+10	1
4901784	5	C	08/24/2015	10:49	-129.045	46.875	0	890.60	0	3.5680	0	34.3090	0	27.286	0	881.326	0	12.2	4	3.8	4	-1E+10	1	-1E+10	1	-1E+10	1	-1E+10	1	-1E+10	1	-1E+10	1
4901784	5	C	08/24/2015	10:49	-129.045	46.875	0	895.10	0	3.5480	0	34.3110	0	27.290	0	885.770	0	12.3	4	3.8	4	-1E+10	1	-1E+10	1	-1E+10	1	-1E+10	1	-1E+10	1	-1E+10	1
4901784	5	C	08/24/2015	10:49	-129.045	46.875	0	899.60	0	3.5290	0	34.3120	0	27.292	0	890.213	0	12.3	4	3.8	4	-1E+10	1	-1E+10	1	-1E+10	1	-1E+10	1	-1E+10	1	-1E+10	1
4901784	5	C	08/24/2015	10:49	-129.045	46.875	0	905.00	0	3.5140	0	34.3150	0	27.296	0	895.546	0	12.3	4	3.8	4	-1E+10	1	-1E+10	1	-1E+10	1	-1E+10	1	-1E+10	1	-1E+10	1
4901784	5	C	08/24/2015	10:49	-129.045	46.875	0	910.50	0	3.5050	0	34.3160	0	27.298	0	900.976	0	12.2	4	3.8	4	-1E+10	1	-1E+10	1	-1E+10	1	-1E+10	1	-1E+10	1	-1E+10	1
4901784	5	C	08/24/2015	10:49	-129.045	46.875	0	915.00	0	3.5050	0	34.3190	0	27.300	0	905.419	0	12.1	4	3.8	4	-1E+10	1	-1E+10	1	-1E+10	1	-1E+10	1	-1E+10	1	-1E+10	1
4901784	5	C	08/24/2015	10:49	-129.045	46.875	0	919.50	0	3.5090	0	34.3240	0	27.304	0	909.863	0	12.0	4	3.7	4	-1E+10	1	-1E+10	1	-1E+10	1	-1E+10	1	-1E+10	1	-1E+10	1
4901784	5	C	08/24/2015	10:49	-129.045	46.875	0	925.10	0	3.5070	0	34.3260	0	27.306	0	915.392	0	11.9	4	3.7	4	-1E+10	1	-1E+10	1	-1E+10	1	-1E+10	1	-1E+10	1	-1E+10	1
4901784	5	C	08/24/2015	10:49	-129.045	46.875	0	930.50	0	3.4980	0	34.3280	0	27.308	0	920.723	0	12.0	4	3.8	4	-1E+10	1	-1E+10	1	-1E+10	1	-1E+10	1	-1E+10	1	-1E+10	1
4901784	5	C	08/24/2015	10:49	-129.045	46.875	0	935.10	0	3.4640	0	34.3250	0	27.309	0	925.265	0	12.2	4	3.8	4	-1E+10	1	-1E+10	1	-1E+10	1	-1E+10	1	-1E+10	1	-1E+10	1
4901784	5	C	08/24/2015	10:49	-129.045	46.875	0	939.70	0	3.4320	0	34.3230	0	27.311	0	929.806	0	12.2	4	3.8	4	-1E+10	1	-1E+10	1	-1E+10	1	-1E+10	1	-1E+10	1	-1E+10	1
4901784	5	C	08/24/2015	10:49	-129.045	46.875	0	945.10	0	3.4480	0	34.3270	0	27.312	0	935.137	0	12.0	4	3.8	4	-1E+10	1	-1E+10	1	-1E+10	1	-1E+10	1	-1E+10	1	-1E+10	1
4901784	5	C	08/24/2015	10:49	-129.045	46.875	0	949.70	0	3.4500	0	34.3310	0	27.315	0	939.678	0	11.9	4	3.7	4	-1E+10	1	-1E+10	1	-1E+10	1	-1E+10	1	-1E+10	1	-1E+10	1
4901784	5	C	08/24/2015	10:49	-129.045	46.875	0	954.30	0	3.4580	0	34.3360	0	27.319	0	944.219	0	11.8	4	3.7	4	-1E+10	1	-1E+10	1	-1E+10	1	-1E+10	1	-1E+10	1	-1E+10	1
4901784	5	C	08/24/2015	10:49	-129.045	46.875	0	959.90	0	3.4530	0	34.3390	0	27.322	0	949.748	0	11.8	4	3.7	4	-1E+10	1	-1E+10	1	-1E+10	1	-1E+10	1	-1E+10	1	-1E+10	1
4901784	5	C	08/24/2015	10:49	-129.045	46.875	0	965.50	0	3.4490	0	34.3400	0	27.323	0	955.276	0	11.8	4	3.7	4	-1E+10	1	-1E+10	1	-1E+10	1	-1E+10	1	-1E+10	1	-1E+10	1
4901784	5	C	08/24/2015	10:49	-129.045	46.875	0	970.20	0	3.4380	0	34.3420	0	27.325	0	959.915	0	11.8	4	3.7	4	-1E+10	1	-1E+10	1	-1E+10	1	-1E+10	1	-1E+10	1	-1E+10	1
4901784	5	C	08/24/2015	10:49	-129.045	46.875	0	974.90	0	3.4280	0	34.3440	0	27.328	0	964.554	0	11.8	4	3.7	4	-1E+10	1	-1E+10	1	-1E+10	1	-1E+10	1	-1E+10	1	-1E+10	1
4901784	5	C	08/24/2015	10:49	-129.045	46.875	0	980.60	0	3.4180	0	34.3450	0	27.330	0	970.181	0	11.9	4	3.7	4	-1E+10	1	-1E+10	1	-1E+10	1	-1E+10	1	-1E+10	1	-1E+10	1
4901784	5	C	08/24/2015	10:49	-129.045	46.875	0	985.40	0	3.3810	0	34.3420	0	27.331	0	974.919	0	12.1	4	3.8	4	-1E+10	1	-1E+10	1	-1E+10	1	-1E+10	1	-1E+10	1	-1E+10	1
4901784	5	C	08/24/2015	10:49	-129.045	46.875	0	990.00	0	3.3380	0	34.3420	0	27.335	0	979.459	0	12.2	4	3.8	4	-1E+10	1	-1E+10	1	-1E+10	1	-1E+10	1	-1E+10	1	-1E+10	1
4901784	5	C	08/24/2015	10:49	-129.045	46.875	0	994.80	0	3.3180	0	34.3440	0	27.339	0	984.196	0	12.2	4	3.8	4	-1E+10	1	-1E+10	1	-1E+10	1	-1E+10	1	-1E+10	1	-1E+10	1
4901784	5	C	08/24/2015	10:49	-129.045	46.875	0	999.60	0	3.3170	0	34.3460	0	27.340	0	988.934	0	12.1	4	3.8	4	-1E+10	1	-1E+10	1	-1E+10	1	-1E+10	1	-1E+10	1	-1E+10	1
4901784	5	C	08/24/2015	10:49	-129.045	46.875	0	1004.50	0	3.3110	0	34.3480	0	27.342	0	993.770	0	12.1	4	3.8	4	-1E+10	1	-1E+10	1	-1E+10	1	-1E+10	1	-1E+10	1	-1E+10	1
4901784	5	C	08/24/2015	10:49	-129.045	46.875	0	1009.40	0	3.2990	0	34.3500	0	27.345	0	998.606	0	12.1	4	3.8	4	-1E+10	1	-1E+10	1	-1E+10	1	-1E+10	1	-1E+10	1	-1E+10	1
4901784	5	C	08/24/2015	10:49	-129.045	46.875	0	1014.40	0	3.2940	0	34.3540	0	27.349	0	1003.541	0	12.1	4	3.8	4	-1E+10	1	-1E+10	1	-1E+10	1	-1E+10	1	-1E+10	1	-1E+10	1
4901784	5	C	08/24/2015	10:49	-129.045	46.875	0	1019.40	0	3.2800	0	34.3540	0	27.350	0	1008.475	0	12.1	4	3.8	4	-1E+10	1	-1E+10	1	-1E+10	1	-1E+10	1	-1E+10	1	-1E+10	1
4901784	5	C	08/24/2015	10:49	-129.045	46.875	0	1024.40	0	3.2670	0	34.3570	0	27.354	0	1013.409	0	12.1	4	3.8	4	-1E+10	1	-1E+10	1	-1E+10	1	-1E+10	1	-1E+10	1	-1E+10	1
4901784	5	C	08/24/2015	10:49	-129.045	46.875	0	1029.40	0	3.2630	0	34.3590	0	27.356	0	1018.344	0	12.1	4	3.8	4	-1E+10	1	-1E+10	1	-1E+10	1	-1E+10	1	-1E+10	1	-1E+10	1
4901784	5	C	08/24/2015	10:49	-129.045	46.875	0	1034.50	0	3.2600	0	34.3630	0	27.359	0	1023.376	0	12.1	4	3.8	4	-1E+10	1	-1E+10	1	-1E+10	1	-1E+10	1	-1E+10	1	-1E+10	1
4901784	5	C	08/24/2015	10:49	-129.045	46.875	0	1039.40	0	3.2440	0	34.3650	0	27.362	0	1028.212	0	12.1	4	3.8	4	-1E+10	1	-1E+10	1	-1E+10	1	-1E+10	1	-1E+10	1	-1E+10	1
4901784	5	C	08/24/2015	10:49	-129.045	46.875	0	1044.50	0	3.2330	0	34.3680	0	27.366	0	1033.244	0	12.1	4	3.8	4	-1E+10	1	-1E+10	1	-1E+10	1	-1E+10	1	-1E+10	1	-1E+10	1
4901784	5	C	08/24/2015	10:49	-129.045	46.875	0	1049.60	0	3.2450	0	34.3740	0	27.370	0	1038.277	0	12.1	4	3.8	4	-1E+10	1	-1E+10	1	-1E+10	1	-1E+10	1	-1E+10	1	-1E+10	1
4901784	5	C	08/24/2015	10:49	-129.045	46.875	0	1054.60	0	3.2400	0	34.3780	0	27.373	0	1043.210	0	12.1	4	3.8	4	-1E+10	1	-1E+10	1	-1E+10	1	-1E+10	1	-1E+10	1	-1E+10	1
4901784	5	C	08/24/2015	10:49	-129.045	46.875	0	1059.70	0	3.2330	0	34.3810	0	27.376	0	1048.242	0	12.1	4	3.8	4	-1E+10	1	-1E+10	1	-1E+10	1	-1E+10	1	-1E+10	1	-1E+10	1
4901784	5	C	08/24/2015	10:49	-129.045	46.875	0	1064.80	0	3.2230	0	34.3820	0	27.378	0	1053.275	0	12.2	4	3.8	4	-1E+10	1	-1E+10	1	-1E+10	1	-1E+10	1	-1E+10	1	-1E+10	1
4901784	5	C	08/24/2015	10:49	-129.045	46.875	0	1070.00	0	3.2110	0	34.3830	0	27.380	0	1058.405	0	12.3	4	3.8	4	-1E+10	1	-1E+10	1	-1E+10	1	-1E+10	1	-1E+10	1	-1E+10	1
4901784	5	C	08/24/2015	10:49	-129.045	46.875	0	1075.20	0	3.1990	0	34.3850	0	27.383	0	1063.536	0	12.3	4	3.8	4	-1E+10	1	-1E+10	1	-1E+10	1	-1E+10	1	-1E+10	1	-1E+10	1
4901784	5	C	08/24/2015	10:49	-129.045	46.875	0	1080.40	0	3.1820	0	34.3870	0	27.386	0	1068.666	0	12.4	4	3.8	4	-1E+10	1	-1E+10	1	-1E+10	1	-1E+10	1	-1E+10	1	-1E+10	1
4901784	5	C	08/24/2015	10:49	-129.045	46.875	0	1085.70	0	3.1720	0	34.3890	0	27.389	0	1073.895	0	12.4	4	3.9	4	-1E+10	1	-1E+10	1	-1E+10	1	-1E+10	1	-1E+10	1	-1E+10	1
4901784	5	C	08/24/2015	10:49	-129.045	46.875	0	1090.00	0	3.1560	0	34.3910	0	27.392	0	1078.137	0	12.5	4	3.9	4	-1E+10	1	-1E+10	1	-1E+10	1	-1E+10	1	-1E+10	1	-1E+10	1
4901784	5	C	08/24/2015	10:49	-129.045	46.875	0	1095.10	0	3.1360	0	34.3920	0	27.394	0	1083.168	0	12.5	4	3.9	4	-1E+10	1	-1E+10	1	-1E+10	1	-1E+10	1	-1E+10	1	-1E+10	1
4901784	5	C	08/24/2015	10:49	-129.045	46.875	0	1099.90	0	3.1270	0	34.3940	0	27.397	0	1087.904	0	12.6	4	3.9	4	-1E+10	1	-1E+10	1	-1E+10	1	-1E+10	1	-1E+10	1	-1E+10	1
4901784	5	C	08/24/2015	10:49	-129.045	46.875	0	1104.30	0	3.1160	0	34.3970	0	27.400	0	1092.244	0	12.7	4	3.9	4	-1E+10	1	-1E+10	1	-1E+10	1	-1E+10	1	-1E+10	1	-1E+10	1
4901784	5	C	08/24/2015	10:49	-129.045	46.875	0	1109.20	0	3.1040	0	34.3980	0	27.402	0	1097.078	0	12.7	4	3.9	4	-1E+10	1	-1E+10	1	-1E+10	1	-1E+10	1	-1E+10	1	-1E+10	1
4901784	5	C	08/24/2015	10:49	-129.045	46.875	0	1114.20	0	3.0840	0	34.3980	0	27.404	0	1102.010	0	12.8	4	3.9	4	-1E+10	1	-1E+10	1	-1E+10	1	-1E+10	1	-1E+10	1	-1E+10	1
4901784	5	C	08/24/2015	10:49	-129.045	46.875	0	1119.20	0	3.0700	0	34.3980	0	27.405	0	1106.942	0	12.8	4	4.0	4	-1E+10	1	-1E+10	1	-1E+10	1	-1E+10	1	-1E+10	1	-1E+10	1
4901784	5	C	08/24/2015	10:49	-129.045	46.875	0	1124.30	0	3.0560	0	34.3990	0	27.407	0	1111.973	0	12.9	4	4.0	4	-1E+10	1	-1E+10	1	-1E+10	1	-1E+10	1	-1E+10	1	-1E+10	1
4901784	5	C	08/24/2015	10:49	-129.045	46.875	0	1129.30	0	3.0470	0	34.4020	0	27.411	0	1116.905	0	12.9	4	4.0	4	-1E+10	1	-1E+10	1	-1E+10	1	-1E+10	1	-1E+10	1	-1E+10	1
4901784	5	C	08/24/2015	10:49	-129.045	46.875	0	1134.40	0	3.0420	0	34.4030	0	27.412	0	1121.935	0	13.0	4	4.0	4	-1E+10	1	-1E+10	1	-1E+10	1	-1E+10	1	-1E+10	1	-1E+10	1
4901784	5	C	08/24/2015	10:49	-129.045	46.875	0	1139.50	0	3.0360	0	34.4050	0	27.414	0	1126.966	0	13.1	4	4.0	4	-1E+10	1	-1E+10	1	-1E+10	1	-1E+10	1	-1E+10	1	-1E+10	1
4901784	5	C	08/24/2015	10:49	-129.045	46.875	0	1144.70	0	3.0270	0	34.4060	0	27.416	0	1132.094	0	13.1	4	4.1	4	-1E+10	1	-1E+10	1	-1E+10	1	-1E+10	1	-1E+10	1	-1E+10	1
4901784	5	C	08/24/2015	10:49	-129.045	46.875	0	1149.90	0	3.0090	0	34.4080	0	27.419	0	1137.223	0	13.3	4	4.1	4	-1E+10	1	-1E+10	1	-1E+10	1	-1E+10	1	-1E+10	1	-1E+10	1
4901784	5	C	08/24/2015	10:49	-129.045	46.875	0	1155.10	0	3.0010	0	34.4120	0	27.423	0	1142.352	0	13.4	4	4.1	4	-1E+10	1	-1E+10	1	-1E+10	1	-1E+10	1	-1E+10	1	-1E+10	1
4901784	5	C	08/24/2015	10:49	-129.045	46.875	0	1160.30	0	2.9980	0	34.4140	0	27.425	0	1147.480	0	13.5	4	4.2	4	-1E+10	1	-1E+10	1	-1E+10	1	-1E+10	1	-1E+10	1	-1E+10	1
4901784	5	C	08/24/2015	10:49	-129.045	46.875	0	1165.60	0	2.9900	0	34.4160	0	27.427	0	1152.707	0	13.6	4	4.2	4	-1E+10	1	-1E+10	1	-1E+10	1	-1E+10	1	-1E+10	1	-1E+10	1
4901784	5	C	08/24/2015	10:49	-129.045	46.875	0	1170.00	0	2.9870	0	34.4170	0	27.428	0	1157.046	0	13.7	4	4.2	4	-1E+10	1	-1E+10	1	-1E+10	1	-1E+10	1	-1E+10	1	-1E+10	1
4901784	5	C	08/24/2015	10:49	-129.045	46.875	0	1174.50	0	2.9820	0	34.4190	0	27.430	0	1161.484	0	13.8	4	4.3	4	-1E+10	1	-1E+10	1	-1E+10	1	-1E+10	1	-1E+10	1	-1E+10	1
4901784	5	C	08/24/2015	10:49	-129.045	46.875	0	1179.80	0	2.9730	0	34.4220	0	27.434	0	1166.711	0	13.9	4	4.3	4	-1E+10	1	-1E+10	1	-1E+10	1	-1E+10	1	-1E+10	1	-1E+10	1
4901784	5	C	08/24/2015	10:49	-129.045	46.875	0	1185.20	0	2.9660	0	34.4240	0	27.436	0	1172.035	0	14.0	4	4.3	4	-1E+10	1	-1E+10	1	-1E+10	1	-1E+10	1	-1E+10	1	-1E+10	1
4901784	5	C	08/24/2015	10:49	-129.045	46.875	0	1189.80	0	2.9630	0	34.4250	0	27.437	0	1176.572	0	14.1	4	4.3	4	-1E+10	1	-1E+10	1	-1E+10	1	-1E+10	1	-1E+10	1	-1E+10	1
4901784	5	C	08/24/2015	10:49	-129.045	46.875	0	1194.40	0	2.9600	0	34.4260	0	27.438	0	1181.108	0	14.2	4	4.4	4	-1E+10	1	-1E+10	1	-1E+10	1	-1E+10	1	-1E+10	1	-1E+10	1
4901784	5	C	08/24/2015	10:49	-129.045	46.875	0	1199.90	0	2.9510	0	34.4300	0	27.442	0	1186.531	0	14.5	4	4.5	4	-1E+10	1	-1E+10	1	-1E+10	1	-1E+10	1	-1E+10	1	-1E+10	1
4901784	5	C	08/24/2015	10:49	-129.045	46.875	0	1205.50	0	2.9410	0	34.4320	0	27.445	0	1192.053	0	14.7	4	4.5	4	-1E+10	1	-1E+10	1	-1E+10	1	-1E+10	1	-1E+10	1	-1E+10	1
4901784	5	C	08/24/2015	10:49	-129.045	46.875	0	1210.10	0	2.9310	0	34.4340	0	27.447	0	1196.588	0	14.8	4	4.6	4	-1E+10	1	-1E+10	1	-1E+10	1	-1E+10	1	-1E+10	1	-1E+10	1
4901784	5	C	08/24/2015	10:49	-129.045	46.875	0	1214.90	0	2.9170	0	34.4370	0	27.451	0	1201.321	0	15.0	4	4.6	4	-1E+10	1	-1E+10	1	-1E+10	1	-1E+10	1	-1E+10	1	-1E+10	1
4901784	5	C	08/24/2015	10:49	-129.045	46.875	0	1220.50	0	2.9070	0	34.4390	0	27.453	0	1206.842	0	15.2	4	4.7	4	-1E+10	1	-1E+10	1	-1E+10	1	-1E+10	1	-1E+10	1	-1E+10	1
4901784	5	C	08/24/2015	10:49	-129.045	46.875	0	1225.20	0	2.8980	0	34.4410	0	27.456	0	1211.476	0	15.3	4	4.7	4	-1E+10	1	-1E+10	1	-1E+10	1	-1E+10	1	-1E+10	1	-1E+10	1
4901784	5	C	08/24/2015	10:49	-129.045	46.875	0	1229.80	0	2.8850	0	34.4420	0	27.458	0	1216.011	0	15.4	4	4.7	4	-1E+10	1	-1E+10	1	-1E+10	1	-1E+10	1	-1E+10	1	-1E+10	1
4901784	5	C	08/24/2015	10:49	-129.045	46.875	0	1235.50	0	2.8740	0	34.4430	0	27.459	0	1221.631	0	15.4	4	4.7	4	-1E+10	1	-1E+10	1	-1E+10	1	-1E+10	1	-1E+10	1	-1E+10	1
4901784	5	C	08/24/2015	10:49	-129.045	46.875	0	1240.30	0	2.8620	0	34.4430	0	27.461	0	1226.363	0	15.5	4	4.8	4	-1E+10	1	-1E+10	1	-1E+10	1	-1E+10	1	-1E+10	1	-1E+10	1
4901784	5	C	08/24/2015	10:49	-129.045	46.875	0	1244.90	0	2.8540	0	34.4440	0	27.462	0	1230.898	0	15.7	4	4.8	4	-1E+10	1	-1E+10	1	-1E+10	1	-1E+10	1	-1E+10	1	-1E+10	1
4901784	5	C	08/24/2015	10:49	-129.045	46.875	0	1250.10	0	2.8390	0	34.4460	0	27.465	0	1236.024	0	15.8	4	4.9	4	-1E+10	1	-1E+10	1	-1E+10	1	-1E+10	1	-1E+10	1	-1E+10	1
4901784	5	C	08/24/2015	10:49	-129.045	46.875	0	1255.50	0	2.8310	0	34.4480	0	27.467	0	1241.347	0	15.9	4	4.9	4	-1E+10	1	-1E+10	1	-1E+10	1	-1E+10	1	-1E+10	1	-1E+10	1
4901784	5	C	08/24/2015	10:49	-129.045	46.875	0	1259.90	0	2.8230	0	34.4480	0	27.468	0	1245.685	0	15.9	4	4.9	4	-1E+10	1	-1E+10	1	-1E+10	1	-1E+10	1	-1E+10	1	-1E+10	1
4901784	5	C	08/24/2015	10:49	-129.045	46.875	0	1264.40	0	2.8130	0	34.4500	0	27.471	0	1250.121	0	16.1	4	5.0	4	-1E+10	1	-1E+10	1	-1E+10	1	-1E+10	1	-1E+10	1	-1E+10	1
4901784	5	C	08/24/2015	10:49	-129.045	46.875	0	1269.80	0	2.8030	0	34.4510	0	27.472	0	1255.444	0	16.3	4	5.0	4	-1E+10	1	-1E+10	1	-1E+10	1	-1E+10	1	-1E+10	1	-1E+10	1
4901784	5	C	08/24/2015	10:49	-129.045	46.875	0	1275.30	0	2.7920	0	34.4530	0	27.475	0	1260.865	0	16.5	4	5.1	4	-1E+10	1	-1E+10	1	-1E+10	1	-1E+10	1	-1E+10	1	-1E+10	1
4901784	5	C	08/24/2015	10:49	-129.045	46.875	0	1279.90	0	2.7840	0	34.4550	0	27.477	0	1265.399	0	16.6	4	5.1	4	-1E+10	1	-1E+10	1	-1E+10	1	-1E+10	1	-1E+10	1	-1E+10	1
4901784	5	C	08/24/2015	10:49	-129.045	46.875	0	1284.60	0	2.7770	0	34.4560	0	27.479	0	1270.032	0	16.7	4	5.1	4	-1E+10	1	-1E+10	1	-1E+10	1	-1E+10	1	-1E+10	1	-1E+10	1
4901784	5	C	08/24/2015	10:49	-129.045	46.875	0	1290.00	0	2.7680	0	34.4570	0	27.480	0	1275.354	0	16.9	4	5.2	4	-1E+10	1	-1E+10	1	-1E+10	1	-1E+10	1	-1E+10	1	-1E+10	1
4901784	5	C	08/24/2015	10:49	-129.045	46.875	0	1295.50	0	2.7590	0	34.4580	0	27.482	0	1280.775	0	17.0	4	5.2	4	-1E+10	1	-1E+10	1	-1E+10	1	-1E+10	1	-1E+10	1	-1E+10	1
4901784	5	C	08/24/2015	10:49	-129.045	46.875	0	1300.40	0	2.7520	0	34.4600	0	27.484	0	1285.604	0	17.2	4	5.3	4	-1E+10	1	-1E+10	1	-1E+10	1	-1E+10	1	-1E+10	1	-1E+10	1
4901784	5	C	08/24/2015	10:49	-129.045	46.875	0	1305.40	0	2.7450	0	34.4610	0	27.486	0	1290.532	0	17.3	4	5.3	4	-1E+10	1	-1E+10	1	-1E+10	1	-1E+10	1	-1E+10	1	-1E+10	1
4901784	5	C	08/24/2015	10:49	-129.045	46.875	0	1310.50	0	2.7370	0	34.4620	0	27.487	0	1295.558	0	17.5	4	5.4	4	-1E+10	1	-1E+10	1	-1E+10	1	-1E+10	1	-1E+10	1	-1E+10	1
4901784	5	C	08/24/2015	10:49	-129.045	46.875	0	1315.50	0	2.7300	0	34.4630	0	27.488	0	1300.486	0	17.7	4	5.4	4	-1E+10	1	-1E+10	1	-1E+10	1	-1E+10	1	-1E+10	1	-1E+10	1
4901784	5	C	08/24/2015	10:49	-129.045	46.875	0	1320.60	0	2.7220	0	34.4650	0	27.491	0	1305.512	0	18.0	4	5.5	4	-1E+10	1	-1E+10	1	-1E+10	1	-1E+10	1	-1E+10	1	-1E+10	1
4901784	5	C	08/24/2015	10:49	-129.045	46.875	0	1325.70	0	2.7200	0	34.4660	0	27.492	0	1310.538	0	18.2	4	5.6	4	-1E+10	1	-1E+10	1	-1E+10	1	-1E+10	1	-1E+10	1	-1E+10	1
4901784	5	C	08/24/2015	10:49	-129.045	46.875	0	1329.90	0	2.7180	0	34.4670	0	27.493	0	1314.677	0	18.3	4	5.6	4	-1E+10	1	-1E+10	1	-1E+10	1	-1E+10	1	-1E+10	1	-1E+10	1
4901784	5	C	08/24/2015	10:49	-129.045	46.875	0	1334.30	0	2.7120	0	34.4680	0	27.494	0	1319.012	0	18.3	4	5.6	4	-1E+10	1	-1E+10	1	-1E+10	1	-1E+10	1	-1E+10	1	-1E+10	1
4901784	5	C	08/24/2015	10:49	-129.045	46.875	0	1339.50	0	2.7020	0	34.4690	0	27.496	0	1324.136	0	18.4	4	5.7	4	-1E+10	1	-1E+10	1	-1E+10	1	-1E+10	1	-1E+10	1	-1E+10	1
4901784	5	C	08/24/2015	10:49	-129.045	46.875	0	1344.70	0	2.7000	0	34.4690	0	27.496	0	1329.260	0	18.6	4	5.7	4	-1E+10	1	-1E+10	1	-1E+10	1	-1E+10	1	-1E+10	1	-1E+10	1
4901784	5	C	08/24/2015	10:49	-129.045	46.875	0	1350.00	0	2.6950	0	34.4710	0	27.498	0	1334.483	0	18.8	4	5.8	4	-1E+10	1	-1E+10	1	-1E+10	1	-1E+10	1	-1E+10	1	-1E+10	1
4901784	5	C	08/24/2015	10:49	-129.045	46.875	0	1355.30	0	2.6870	0	34.4710	0	27.499	0	1339.705	0	18.9	4	5.8	4	-1E+10	1	-1E+10	1	-1E+10	1	-1E+10	1	-1E+10	1	-1E+10	1
4901784	5	C	08/24/2015	10:49	-129.045	46.875	0	1359.80	0	2.6740	0	34.4720	0	27.501	0	1344.139	0	19.0	4	5.8	4	-1E+10	1	-1E+10	1	-1E+10	1	-1E+10	1	-1E+10	1	-1E+10	1
4901784	5	C	08/24/2015	10:49	-129.045	46.875	0	1364.30	0	2.6680	0	34.4730	0	27.502	0	1348.573	0	19.2	4	5.9	4	-1E+10	1	-1E+10	1	-1E+10	1	-1E+10	1	-1E+10	1	-1E+10	1
4901784	5	C	08/24/2015	10:49	-129.045	46.875	0	1370.50	0	2.6620	0	34.4750	0	27.504	0	1354.681	0	19.4	4	5.9	4	-1E+10	1	-1E+10	1	-1E+10	1	-1E+10	1	-1E+10	1	-1E+10	1
4901784	5	C	08/24/2015	10:49	-129.045	46.875	0	1375.50	0	2.6610	0	34.4750	0	27.504	0	1359.608	0	19.6	4	6.0	4	-1E+10	1	-1E+10	1	-1E+10	1	-1E+10	1	-1E+10	1	-1E+10	1
4901784	5	C	08/24/2015	10:49	-129.045	46.875	0	1380.30	0	2.6590	0	34.4770	0	27.506	0	1364.337	0	19.8	4	6.1	4	-1E+10	1	-1E+10	1	-1E+10	1	-1E+10	1	-1E+10	1	-1E+10	1
4901784	5	C	08/24/2015	10:49	-129.045	46.875	0	1385.10	0	2.6550	0	34.4770	0	27.507	0	1369.065	0	19.9	4	6.1	4	-1E+10	1	-1E+10	1	-1E+10	1	-1E+10	1	-1E+10	1	-1E+10	1
4901784	5	C	08/24/2015	10:49	-129.045	46.875	0	1389.90	0	2.6520	0	34.4780	0	27.508	0	1373.794	0	20.3	4	6.2	4	-1E+10	1	-1E+10	1	-1E+10	1	-1E+10	1	-1E+10	1	-1E+10	1
4901784	5	C	08/24/2015	10:49	-129.045	46.875	0	1394.70	0	2.6480	0	34.4810	0	27.510	0	1378.523	0	20.7	4	6.4	4	-1E+10	1	-1E+10	1	-1E+10	1	-1E+10	1	-1E+10	1	-1E+10	1
4901784	5	C	08/24/2015	10:49	-129.045	46.875	0	1399.50	0	2.6430	0	34.4830	0	27.512	0	1383.252	0	21.0	4	6.4	4	-1E+10	1	-1E+10	1	-1E+10	1	-1E+10	1	-1E+10	1	-1E+10	1
4901784	5	C	08/24/2015	10:49	-129.045	46.875	0	1404.40	0	2.6310	0	34.4830	0	27.514	0	1388.079	0	21.2	4	6.5	4	-1E+10	1	-1E+10	1	-1E+10	1	-1E+10	1	-1E+10	1	-1E+10	1
4901784	5	C	08/24/2015	10:49	-129.045	46.875	0	1409.30	0	2.6170	0	34.4850	0	27.516	0	1392.906	0	21.4	4	6.6	4	-1E+10	1	-1E+10	1	-1E+10	1	-1E+10	1	-1E+10	1	-1E+10	1
4901784	5	C	08/24/2015	10:49	-129.045	46.875	0	1414.30	0	2.6100	0	34.4860	0	27.518	0	1397.831	0	21.7	4	6.6	4	-1E+10	1	-1E+10	1	-1E+10	1	-1E+10	1	-1E+10	1	-1E+10	1
4901784	5	C	08/24/2015	10:49	-129.045	46.875	0	1419.50	0	2.6070	0	34.4880	0	27.520	0	1402.953	0	21.9	4	6.7	4	-1E+10	1	-1E+10	1	-1E+10	1	-1E+10	1	-1E+10	1	-1E+10	1
4901784	5	C	08/24/2015	10:49	-129.045	46.875	0	1424.60	0	2.5990	0	34.4880	0	27.520	0	1407.976	0	22.0	4	6.7	4	-1E+10	1	-1E+10	1	-1E+10	1	-1E+10	1	-1E+10	1	-1E+10	1
4901784	5	C	08/24/2015	10:49	-129.045	46.875	0	1429.70	0	2.5910	0	34.4890	0	27.522	0	1413.000	0	22.1	4	6.8	4	-1E+10	1	-1E+10	1	-1E+10	1	-1E+10	1	-1E+10	1	-1E+10	1
4901784	5	C	08/24/2015	10:49	-129.045	46.875	0	1434.90	0	2.5800	0	34.4890	0	27.523	0	1418.122	0	22.3	4	6.8	4	-1E+10	1	-1E+10	1	-1E+10	1	-1E+10	1	-1E+10	1	-1E+10	1
4901784	5	C	08/24/2015	10:49	-129.045	46.875	0	1440.10	0	2.5660	0	34.4910	0	27.526	0	1423.243	0	22.5	4	6.9	4	-1E+10	1	-1E+10	1	-1E+10	1	-1E+10	1	-1E+10	1	-1E+10	1
4901784	5	C	08/24/2015	10:49	-129.045	46.875	0	1445.30	0	2.5560	0	34.4910	0	27.527	0	1428.365	0	22.6	4	6.9	4	-1E+10	1	-1E+10	1	-1E+10	1	-1E+10	1	-1E+10	1	-1E+10	1
4901784	5	C	08/24/2015	10:49	-129.045	46.875	0	1450.60	0	2.5490	0	34.4920	0	27.528	0	1433.585	0	22.9	4	7.0	4	-1E+10	1	-1E+10	1	-1E+10	1	-1E+10	1	-1E+10	1	-1E+10	1
4901784	5	C	08/24/2015	10:49	-129.045	46.875	0	1455.00	0	2.5430	0	34.4940	0	27.530	0	1437.918	0	23.1	4	7.1	4	-1E+10	1	-1E+10	1	-1E+10	1	-1E+10	1	-1E+10	1	-1E+10	1
4901784	5	C	08/24/2015	10:49	-129.045	46.875	0	1459.40	0	2.5390	0	34.4940	0	27.530	0	1442.252	0	23.3	4	7.1	4	-1E+10	1	-1E+10	1	-1E+10	1	-1E+10	1	-1E+10	1	-1E+10	1
4901784	5	C	08/24/2015	10:49	-129.045	46.875	0	1464.80	0	2.5340	0	34.4950	0	27.532	0	1447.570	0	23.5	4	7.2	4	-1E+10	1	-1E+10	1	-1E+10	1	-1E+10	1	-1E+10	1	-1E+10	1
4901784	5	C	08/24/2015	10:49	-129.045	46.875	0	1470.10	0	2.5300	0	34.4960	0	27.533	0	1452.789	0	23.7	4	7.2	4	-1E+10	1	-1E+10	1	-1E+10	1	-1E+10	1	-1E+10	1	-1E+10	1
4901784	5	C	08/24/2015	10:49	-129.045	46.875	0	1475.50	0	2.5200	0	34.4980	0	27.535	0	1458.107	0	24.0	4	7.3	4	-1E+10	1	-1E+10	1	-1E+10	1	-1E+10	1	-1E+10	1	-1E+10	1
4901784	5	C	08/24/2015	10:49	-129.045	46.875	0	1480.00	0	2.5140	0	34.4980	0	27.536	0	1462.538	0	24.2	4	7.4	4	-1E+10	1	-1E+10	1	-1E+10	1	-1E+10	1	-1E+10	1	-1E+10	1
4901784	5	C	08/24/2015	10:49	-129.045	46.875	0	1484.60	0	2.5060	0	34.4990	0	27.537	0	1467.068	0	24.4	4	7.4	4	-1E+10	1	-1E+10	1	-1E+10	1	-1E+10	1	-1E+10	1	-1E+10	1
4901784	5	C	08/24/2015	10:49	-129.045	46.875	0	1490.00	0	2.4970	0	34.5000	0	27.539	0	1472.386	0	24.7	4	7.5	4	-1E+10	1	-1E+10	1	-1E+10	1	-1E+10	1	-1E+10	1	-1E+10	1
4901784	5	C	08/24/2015	10:49	-129.045	46.875	0	1495.40	0	2.4960	0	34.5010	0	27.540	0	1477.703	0	24.9	4	7.6	4	-1E+10	1	-1E+10	1	-1E+10	1	-1E+10	1	-1E+10	1	-1E+10	1
4901784	5	C	08/24/2015	10:49	-129.045	46.875	0	1499.90	0	2.4950	0	34.5020	0	27.541	0	1482.134	0	25.1	4	7.7	4	-1E+10	1	-1E+10	1	-1E+10	1	-1E+10	1	-1E+10	1	-1E+10	1
4901784	5	C	08/24/2015	10:49	-129.045	46.875	0	1504.50	0	2.4900	0	34.5030	0	27.542	0	1486.663	0	25.2	4	7.7	4	-1E+10	1	-1E+10	1	-1E+10	1	-1E+10	1	-1E+10	1	-1E+10	1
4901784	5	C	08/24/2015	10:49	-129.045	46.875	0	1509.90	0	2.4700	0	34.5030	0	27.544	0	1491.980	0	25.3	4	7.7	4	-1E+10	1	-1E+10	1	-1E+10	1	-1E+10	1	-1E+10	1	-1E+10	1
4901784	5	C	08/24/2015	10:49	-129.045	46.875	0	1515.30	0	2.4640	0	34.5040	0	27.545	0	1497.297	0	25.5	4	7.8	4	-1E+10	1	-1E+10	1	-1E+10	1	-1E+10	1	-1E+10	1	-1E+10	1
4901784	5	C	08/24/2015	10:49	-129.045	46.875	0	1519.90	0	2.4610	0	34.5040	0	27.545	0	1501.826	0	25.6	4	7.8	4	-1E+10	1	-1E+10	1	-1E+10	1	-1E+10	1	-1E+10	1	-1E+10	1
4901784	5	C	08/24/2015	10:49	-129.045	46.875	0	1524.40	0	2.4580	0	34.5050	0	27.546	0	1506.256	0	25.9	4	7.9	4	-1E+10	1	-1E+10	1	-1E+10	1	-1E+10	1	-1E+10	1	-1E+10	1
4901784	5	C	08/24/2015	10:49	-129.045	46.875	0	1530.00	0	2.4470	0	34.5070	0	27.549	0	1511.770	0	26.2	4	8.0	4	-1E+10	1	-1E+10	1	-1E+10	1	-1E+10	1	-1E+10	1	-1E+10	1
4901784	5	C	08/24/2015	10:49	-129.045	46.875	0	1535.40	0	2.4420	0	34.5070	0	27.549	0	1517.086	0	26.5	4	8.1	4	-1E+10	1	-1E+10	1	-1E+10	1	-1E+10	1	-1E+10	1	-1E+10	1
4901784	5	C	08/24/2015	10:49	-129.045	46.875	0	1540.10	0	2.4370	0	34.5080	0	27.551	0	1521.713	0	26.8	4	8.2	4	-1E+10	1	-1E+10	1	-1E+10	1	-1E+10	1	-1E+10	1	-1E+10	1
4901784	5	C	08/24/2015	10:49	-129.045	46.875	0	1544.70	0	2.4290	0	34.5090	0	27.552	0	1526.241	0	27.0	4	8.2	4	-1E+10	1	-1E+10	1	-1E+10	1	-1E+10	1	-1E+10	1	-1E+10	1
4901784	5	C	08/24/2015	10:49	-129.045	46.875	0	1550.30	0	2.4210	0	34.5100	0	27.554	0	1531.754	0	27.4	4	8.3	4	-1E+10	1	-1E+10	1	-1E+10	1	-1E+10	1	-1E+10	1	-1E+10	1
4901784	5	C	08/24/2015	10:49	-129.045	46.875	0	1554.90	0	2.4150	0	34.5120	0	27.556	0	1536.283	0	27.6	4	8.4	4	-1E+10	1	-1E+10	1	-1E+10	1	-1E+10	1	-1E+10	1	-1E+10	1
4901784	5	C	08/24/2015	10:49	-129.045	46.875	0	1559.60	0	2.4120	0	34.5120	0	27.556	0	1540.909	0	27.8	4	8.5	4	-1E+10	1	-1E+10	1	-1E+10	1	-1E+10	1	-1E+10	1	-1E+10	1
4901784	5	C	08/24/2015	10:49	-129.045	46.875	0	1565.20	0	2.4040	0	34.5130	0	27.557	0	1546.422	0	28.0	4	8.5	4	-1E+10	1	-1E+10	1	-1E+10	1	-1E+10	1	-1E+10	1	-1E+10	1
4901784	5	C	08/24/2015	10:49	-129.045	46.875	0	1569.90	0	2.3930	0	34.5140	0	27.559	0	1551.048	0	28.2	4	8.6	4	-1E+10	1	-1E+10	1	-1E+10	1	-1E+10	1	-1E+10	1	-1E+10	1
4901784	5	C	08/24/2015	10:49	-129.045	46.875	0	1574.60	0	2.3860	0	34.5140	0	27.560	0	1555.674	0	28.4	4	8.6	4	-1E+10	1	-1E+10	1	-1E+10	1	-1E+10	1	-1E+10	1	-1E+10	1
4901784	5	C	08/24/2015	10:49	-129.045	46.875	0	1580.20	0	2.3800	0	34.5150	0	27.561	0	1561.186	0	28.9	4	8.8	4	-1E+10	1	-1E+10	1	-1E+10	1	-1E+10	1	-1E+10	1	-1E+10	1
4901784	5	C	08/24/2015	10:49	-129.045	46.875	0	1584.90	0	2.3750	0	34.5170	0	27.563	0	1565.812	0	29.4	4	8.9	4	-1E+10	1	-1E+10	1	-1E+10	1	-1E+10	1	-1E+10	1	-1E+10	1
4901784	5	C	08/24/2015	10:49	-129.045	46.875	0	1589.70	0	2.3640	0	34.5190	0	27.566	0	1570.537	0	29.6	4	9.0	4	-1E+10	1	-1E+10	1	-1E+10	1	-1E+10	1	-1E+10	1	-1E+10	1
4901784	5	C	08/24/2015	10:49	-129.045	46.875	0	1594.90	0	2.3560	0	34.5190	0	27.566	0	1575.655	0	29.9	4	9.1	4	-1E+10	1	-1E+10	1	-1E+10	1	-1E+10	1	-1E+10	1	-1E+10	1
4901784	5	C	08/24/2015	10:49	-129.045	46.875	0	1599.30	0	2.3510	0	34.5200	0	27.568	0	1579.985	0	30.1	4	9.2	4	-1E+10	1	-1E+10	1	-1E+10	1	-1E+10	1	-1E+10	1	-1E+10	1
4901784	5	C	08/24/2015	10:49	-129.045	46.875	0	1605.00	0	2.3460	0	34.5210	0	27.569	0	1585.595	0	30.6	4	9.3	4	-1E+10	1	-1E+10	1	-1E+10	1	-1E+10	1	-1E+10	1	-1E+10	1
4901784	5	C	08/24/2015	10:49	-129.045	46.875	0	1610.70	0	2.3380	0	34.5230	0	27.571	0	1591.205	0	31.1	4	9.4	4	-1E+10	1	-1E+10	1	-1E+10	1	-1E+10	1	-1E+10	1	-1E+10	1
4901784	5	C	08/24/2015	10:49	-129.045	46.875	0	1615.60	0	2.3330	0	34.5240	0	27.572	0	1596.027	0	31.4	4	9.5	4	-1E+10	1	-1E+10	1	-1E+10	1	-1E+10	1	-1E+10	1	-1E+10	1
4901784	5	C	08/24/2015	10:49	-129.045	46.875	0	1620.50	0	2.3300	0	34.5250	0	27.573	0	1600.849	0	31.8	4	9.6	4	-1E+10	1	-1E+10	1	-1E+10	1	-1E+10	1	-1E+10	1	-1E+10	1
4901784	5	C	08/24/2015	10:49	-129.045	46.875	0	1625.50	0	2.3290	0	34.5260	0	27.574	0	1605.770	0	32.2	4	9.8	4	-1E+10	1	-1E+10	1	-1E+10	1	-1E+10	1	-1E+10	1	-1E+10	1
4901784	5	C	08/24/2015	10:49	-129.045	46.875	0	1630.40	0	2.3240	0	34.5280	0	27.576	0	1610.592	0	32.7	4	9.9	4	-1E+10	1	-1E+10	1	-1E+10	1	-1E+10	1	-1E+10	1	-1E+10	1
4901784	5	C	08/24/2015	10:49	-129.045	46.875	0	1635.40	0	2.3190	0	34.5290	0	27.578	0	1615.512	0	32.9	4	10.0	4	-1E+10	1	-1E+10	1	-1E+10	1	-1E+10	1	-1E+10	1	-1E+10	1
4901784	5	C	08/24/2015	10:49	-129.045	46.875	0	1640.30	0	2.3120	0	34.5300	0	27.579	0	1620.333	0	33.2	4	10.1	4	-1E+10	1	-1E+10	1	-1E+10	1	-1E+10	1	-1E+10	1	-1E+10	1
4901784	5	C	08/24/2015	10:49	-129.045	46.875	0	1645.30	0	2.3040	0	34.5300	0	27.580	0	1625.253	0	33.6	4	10.2	4	-1E+10	1	-1E+10	1	-1E+10	1	-1E+10	1	-1E+10	1	-1E+10	1
4901784	5	C	08/24/2015	10:49	-129.045	46.875	0	1650.30	0	2.2980	0	34.5320	0	27.582	0	1630.173	0	33.8	4	10.3	4	-1E+10	1	-1E+10	1	-1E+10	1	-1E+10	1	-1E+10	1	-1E+10	1
4901784	5	C	08/24/2015	10:49	-129.045	46.875	0	1655.30	0	2.2950	0	34.5320	0	27.582	0	1635.093	0	34.1	4	10.3	4	-1E+10	1	-1E+10	1	-1E+10	1	-1E+10	1	-1E+10	1	-1E+10	1
4901784	5	C	08/24/2015	10:49	-129.045	46.875	0	1660.30	0	2.2890	0	34.5330	0	27.583	0	1640.013	0	34.5	4	10.5	4	-1E+10	1	-1E+10	1	-1E+10	1	-1E+10	1	-1E+10	1	-1E+10	1
4901784	5	C	08/24/2015	10:49	-129.045	46.875	0	1665.40	0	2.2800	0	34.5350	0	27.586	0	1645.031	0	34.9	4	10.6	4	-1E+10	1	-1E+10	1	-1E+10	1	-1E+10	1	-1E+10	1	-1E+10	1
4901784	5	C	08/24/2015	10:49	-129.045	46.875	0	1670.50	0	2.2720	0	34.5350	0	27.586	0	1650.048	0	35.1	4	10.7	4	-1E+10	1	-1E+10	1	-1E+10	1	-1E+10	1	-1E+10	1	-1E+10	1
4901784	5	C	08/24/2015	10:49	-129.045	46.875	0	1675.60	0	2.2680	0	34.5360	0	27.588	0	1655.066	0	35.4	4	10.7	4	-1E+10	1	-1E+10	1	-1E+10	1	-1E+10	1	-1E+10	1	-1E+10	1
4901784	5	C	08/24/2015	10:49	-129.045	46.875	0	1680.70	0	2.2610	0	34.5360	0	27.588	0	1660.083	0	35.6	4	10.8	4	-1E+10	1	-1E+10	1	-1E+10	1	-1E+10	1	-1E+10	1	-1E+10	1
4901784	5	C	08/24/2015	10:49	-129.045	46.875	0	1685.00	0	2.2590	0	34.5380	0	27.590	0	1664.314	0	35.9	4	10.9	4	-1E+10	1	-1E+10	1	-1E+10	1	-1E+10	1	-1E+10	1	-1E+10	1
4901784	5	C	08/24/2015	10:49	-129.045	46.875	0	1689.20	0	2.2500	0	34.5380	0	27.591	0	1668.446	0	36.0	4	10.9	4	-1E+10	1	-1E+10	1	-1E+10	1	-1E+10	1	-1E+10	1	-1E+10	1
4901784	5	C	08/24/2015	10:49	-129.045	46.875	0	1694.40	0	2.2410	0	34.5390	0	27.592	0	1673.561	0	36.4	4	11.0	4	-1E+10	1	-1E+10	1	-1E+10	1	-1E+10	1	-1E+10	1	-1E+10	1
4901784	5	C	08/24/2015	10:49	-129.045	46.875	0	1699.50	0	2.2300	0	34.5400	0	27.594	0	1678.578	0	36.6	4	11.1	4	-1E+10	1	-1E+10	1	-1E+10	1	-1E+10	1	-1E+10	1	-1E+10	1
4901784	5	C	08/24/2015	10:49	-129.045	46.875	0	1704.60	0	2.2250	0	34.5410	0	27.595	0	1683.595	0	37.0	4	11.2	4	-1E+10	1	-1E+10	1	-1E+10	1	-1E+10	1	-1E+10	1	-1E+10	1
4901784	5	C	08/24/2015	10:49	-129.045	46.875	0	1709.70	0	2.2230	0	34.5420	0	27.596	0	1688.612	0	37.4	4	11.3	4	-1E+10	1	-1E+10	1	-1E+10	1	-1E+10	1	-1E+10	1	-1E+10	1
4901784	5	C	08/24/2015	10:49	-129.045	46.875	0	1714.90	0	2.2220	0	34.5430	0	27.597	0	1693.727	0	37.8	4	11.5	4	-1E+10	1	-1E+10	1	-1E+10	1	-1E+10	1	-1E+10	1	-1E+10	1
4901784	5	C	08/24/2015	10:49	-129.045	46.875	0	1720.10	0	2.2150	0	34.5440	0	27.599	0	1698.842	0	38.1	4	11.5	4	-1E+10	1	-1E+10	1	-1E+10	1	-1E+10	1	-1E+10	1	-1E+10	1
4901784	5	C	08/24/2015	10:49	-129.045	46.875	0	1725.30	0	2.2100	0	34.5440	0	27.599	0	1703.957	0	38.4	4	11.6	4	-1E+10	1	-1E+10	1	-1E+10	1	-1E+10	1	-1E+10	1	-1E+10	1
4901784	5	C	08/24/2015	10:49	-129.045	46.875	0	1730.50	0	2.2070	0	34.5460	0	27.601	0	1709.072	0	38.8	4	11.8	4	-1E+10	1	-1E+10	1	-1E+10	1	-1E+10	1	-1E+10	1	-1E+10	1
4901784	5	C	08/24/2015	10:49	-129.045	46.875	0	1734.90	0	2.1990	0	34.5470	0	27.602	0	1713.400	0	39.1	4	11.9	4	-1E+10	1	-1E+10	1	-1E+10	1	-1E+10	1	-1E+10	1	-1E+10	1
4901784	5	C	08/24/2015	10:49	-129.045	46.875	0	1739.30	0	2.1950	0	34.5470	0	27.603	0	1717.728	0	39.3	4	11.9	4	-1E+10	1	-1E+10	1	-1E+10	1	-1E+10	1	-1E+10	1	-1E+10	1
4901784	5	C	08/24/2015	10:49	-129.045	46.875	0	1744.50	0	2.1890	0	34.5480	0	27.604	0	1722.842	0	39.7	4	12.0	4	-1E+10	1	-1E+10	1	-1E+10	1	-1E+10	1	-1E+10	1	-1E+10	1
4901784	5	C	08/24/2015	10:49	-129.045	46.875	0	1749.70	0	2.1840	0	34.5490	0	27.605	0	1727.956	0	40.0	4	12.1	4	-1E+10	1	-1E+10	1	-1E+10	1	-1E+10	1	-1E+10	1	-1E+10	1
4901784	5	C	08/24/2015	10:49	-129.045	46.875	0	1755.00	0	2.1800	0	34.5500	0	27.606	0	1733.169	0	40.3	4	12.2	4	-1E+10	1	-1E+10	1	-1E+10	1	-1E+10	1	-1E+10	1	-1E+10	1
4901784	5	C	08/24/2015	10:49	-129.045	46.875	0	1760.20	0	2.1770	0	34.5500	0	27.607	0	1738.283	0	40.6	4	12.3	4	-1E+10	1	-1E+10	1	-1E+10	1	-1E+10	1	-1E+10	1	-1E+10	1
4901784	5	C	08/24/2015	10:49	-129.045	46.875	0	1765.50	0	2.1670	0	34.5510	0	27.608	0	1743.495	0	40.9	4	12.4	4	-1E+10	1	-1E+10	1	-1E+10	1	-1E+10	1	-1E+10	1	-1E+10	1
4901784	5	C	08/24/2015	10:49	-129.045	46.875	0	1769.90	0	2.1620	0	34.5520	0	27.609	0	1747.822	0	41.2	4	12.5	4	-1E+10	1	-1E+10	1	-1E+10	1	-1E+10	1	-1E+10	1	-1E+10	1
4901784	5	C	08/24/2015	10:49	-129.045	46.875	0	1774.30	0	2.1600	0	34.5530	0	27.610	0	1752.149	0	41.4	4	12.5	4	-1E+10	1	-1E+10	1	-1E+10	1	-1E+10	1	-1E+10	1	-1E+10	1
4901784	5	C	08/24/2015	10:49	-129.045	46.875	0	1779.70	0	2.1570	0	34.5530	0	27.611	0	1757.459	0	41.7	4	12.6	4	-1E+10	1	-1E+10	1	-1E+10	1	-1E+10	1	-1E+10	1	-1E+10	1
4901784	5	C	08/24/2015	10:49	-129.045	46.875	0	1785.10	0	2.1530	0	34.5540	0	27.612	0	1762.769	0	41.9	4	12.7	4	-1E+10	1	-1E+10	1	-1E+10	1	-1E+10	1	-1E+10	1	-1E+10	1
4901784	5	C	08/24/2015	10:49	-129.045	46.875	0	1790.60	0	2.1500	0	34.5540	0	27.612	0	1768.178	0	42.1	4	12.8	4	-1E+10	1	-1E+10	1	-1E+10	1	-1E+10	1	-1E+10	1	-1E+10	1
4901784	5	C	08/24/2015	10:49	-129.045	46.875	0	1795.10	0	2.1440	0	34.5550	0	27.613	0	1772.603	0	42.3	4	12.8	4	-1E+10	1	-1E+10	1	-1E+10	1	-1E+10	1	-1E+10	1	-1E+10	1
4901784	5	C	08/24/2015	10:49	-129.045	46.875	0	1800.30	0	2.1400	0	34.5560	0	27.615	0	1777.716	0	42.5	4	12.9	4	-1E+10	1	-1E+10	1	-1E+10	1	-1E+10	1	-1E+10	1	-1E+10	1
4901784	5	C	08/24/2015	10:49	-129.045	46.875	0	1805.40	0	2.1350	0	34.5560	0	27.615	0	1782.730	0	42.6	4	12.9	4	-1E+10	1	-1E+10	1	-1E+10	1	-1E+10	1	-1E+10	1	-1E+10	1
4901784	5	C	08/24/2015	10:49	-129.045	46.875	0	1810.20	0	2.1340	0	34.5560	0	27.615	0	1787.450	0	42.8	4	12.9	4	-1E+10	1	-1E+10	1	-1E+10	1	-1E+10	1	-1E+10	1	-1E+10	1
4901784	5	C	08/24/2015	10:49	-129.045	46.875	0	1815.00	0	2.1300	0	34.5570	0	27.616	0	1792.169	0	43.0	4	13.0	4	-1E+10	1	-1E+10	1	-1E+10	1	-1E+10	1	-1E+10	1	-1E+10	1
4901784	5	C	08/24/2015	10:49	-129.045	46.875	0	1819.90	0	2.1260	0	34.5570	0	27.617	0	1796.987	0	43.3	4	13.1	4	-1E+10	1	-1E+10	1	-1E+10	1	-1E+10	1	-1E+10	1	-1E+10	1
4901784	5	C	08/24/2015	10:49	-129.045	46.875	0	1824.90	0	2.1200	0	34.5580	0	27.618	0	1801.903	0	43.7	4	13.2	4	-1E+10	1	-1E+10	1	-1E+10	1	-1E+10	1	-1E+10	1	-1E+10	1
4901784	5	C	08/24/2015	10:49	-129.045	46.875	0	1829.70	0	2.1140	0	34.5590	0	27.619	0	1806.622	0	44.0	4	13.3	4	-1E+10	1	-1E+10	1	-1E+10	1	-1E+10	1	-1E+10	1	-1E+10	1
4901784	5	C	08/24/2015	10:49	-129.045	46.875	0	1834.70	0	2.1090	0	34.5600	0	27.620	0	1811.537	0	44.4	4	13.4	4	-1E+10	1	-1E+10	1	-1E+10	1	-1E+10	1	-1E+10	1	-1E+10	1
4901784	5	C	08/24/2015	10:49	-129.045	46.875	0	1839.70	0	2.1040	0	34.5610	0	27.622	0	1816.453	0	44.7	4	13.5	4	-1E+10	1	-1E+10	1	-1E+10	1	-1E+10	1	-1E+10	1	-1E+10	1
4901784	5	C	08/24/2015	10:49	-129.045	46.875	0	1844.60	0	2.0960	0	34.5620	0	27.623	0	1821.270	0	45.0	4	13.6	4	-1E+10	1	-1E+10	1	-1E+10	1	-1E+10	1	-1E+10	1	-1E+10	1
4901784	5	C	08/24/2015	10:49	-129.045	46.875	0	1849.60	0	2.0920	0	34.5620	0	27.623	0	1826.185	0	45.3	4	13.7	4	-1E+10	1	-1E+10	1	-1E+10	1	-1E+10	1	-1E+10	1	-1E+10	1
4901784	5	C	08/24/2015	10:49	-129.045	46.875	0	1854.60	0	2.0860	0	34.5630	0	27.625	0	1831.101	0	45.7	4	13.8	4	-1E+10	1	-1E+10	1	-1E+10	1	-1E+10	1	-1E+10	1	-1E+10	1
4901784	5	C	08/24/2015	10:49	-129.045	46.875	0	1859.60	0	2.0790	0	34.5640	0	27.626	0	1836.016	0	46.1	4	13.9	4	-1E+10	1	-1E+10	1	-1E+10	1	-1E+10	1	-1E+10	1	-1E+10	1
4901784	5	C	08/24/2015	10:49	-129.045	46.875	0	1864.70	0	2.0720	0	34.5650	0	27.627	0	1841.029	0	46.4	4	14.0	4	-1E+10	1	-1E+10	1	-1E+10	1	-1E+10	1	-1E+10	1	-1E+10	1
4901784	5	C	08/24/2015	10:49	-129.045	46.875	0	1869.80	0	2.0660	0	34.5660	0	27.629	0	1846.042	0	46.9	4	14.2	4	-1E+10	1	-1E+10	1	-1E+10	1	-1E+10	1	-1E+10	1	-1E+10	1
4901784	5	C	08/24/2015	10:49	-129.045	46.875	0	1875.00	0	2.0580	0	34.5670	0	27.630	0	1851.153	0	47.3	4	14.3	4	-1E+10	1	-1E+10	1	-1E+10	1	-1E+10	1	-1E+10	1	-1E+10	1
4901784	5	C	08/24/2015	10:49	-129.045	46.875	0	1880.20	0	2.0540	0	34.5680	0	27.631	0	1856.265	0	47.6	4	14.4	4	-1E+10	1	-1E+10	1	-1E+10	1	-1E+10	1	-1E+10	1	-1E+10	1
4901784	5	C	08/24/2015	10:49	-129.045	46.875	0	1885.40	0	2.0510	0	34.5690	0	27.632	0	1861.376	0	47.8	4	14.4	4	-1E+10	1	-1E+10	1	-1E+10	1	-1E+10	1	-1E+10	1	-1E+10	1
4901784	5	C	08/24/2015	10:49	-129.045	46.875	0	1890.60	0	2.0490	0	34.5690	0	27.633	0	1866.487	0	48.0	4	14.5	4	-1E+10	1	-1E+10	1	-1E+10	1	-1E+10	1	-1E+10	1	-1E+10	1
4901784	5	C	08/24/2015	10:49	-129.045	46.875	0	1895.00	0	2.0450	0	34.5700	0	27.634	0	1870.811	0	48.4	4	14.6	4	-1E+10	1	-1E+10	1	-1E+10	1	-1E+10	1	-1E+10	1	-1E+10	1
4901784	5	C	08/24/2015	10:49	-129.045	46.875	0	1899.50	0	2.0390	0	34.5700	0	27.634	0	1875.234	0	48.6	4	14.7	4	-1E+10	1	-1E+10	1	-1E+10	1	-1E+10	1	-1E+10	1	-1E+10	1
4901784	5	C	08/24/2015	10:49	-129.045	46.875	0	1904.70	0	2.0340	0	34.5710	0	27.635	0	1880.344	0	49.0	4	14.8	4	-1E+10	1	-1E+10	1	-1E+10	1	-1E+10	1	-1E+10	1	-1E+10	1
4901784	5	C	08/24/2015	10:49	-129.045	46.875	0	1910.10	0	2.0290	0	34.5720	0	27.637	0	1885.652	0	49.3	4	14.9	4	-1E+10	1	-1E+10	1	-1E+10	1	-1E+10	1	-1E+10	1	-1E+10	1
4901784	5	C	08/24/2015	10:49	-129.045	46.875	0	1915.40	0	2.0240	0	34.5730	0	27.638	0	1890.860	0	49.6	4	15.0	4	-1E+10	1	-1E+10	1	-1E+10	1	-1E+10	1	-1E+10	1	-1E+10	1
4901784	5	C	08/24/2015	10:49	-129.045	46.875	0	1919.90	0	2.0220	0	34.5730	0	27.638	0	1895.283	0	49.8	4	15.0	4	-1E+10	1	-1E+10	1	-1E+10	1	-1E+10	1	-1E+10	1	-1E+10	1
4901784	5	C	08/24/2015	10:49	-129.045	46.875	0	1924.40	0	2.0190	0	34.5740	0	27.639	0	1899.705	0	50.0	4	15.1	4	-1E+10	1	-1E+10	1	-1E+10	1	-1E+10	1	-1E+10	1	-1E+10	1
4901784	5	C	08/24/2015	10:49	-129.045	46.875	0	1929.80	0	2.0160	0	34.5740	0	27.639	0	1905.011	0	50.3	4	15.2	4	-1E+10	1	-1E+10	1	-1E+10	1	-1E+10	1	-1E+10	1	-1E+10	1
4901784	5	C	08/24/2015	10:49	-129.045	46.875	0	1934.90	0	2.0100	0	34.5750	0	27.641	0	1910.023	0	50.7	4	15.3	4	-1E+10	1	-1E+10	1	-1E+10	1	-1E+10	1	-1E+10	1	-1E+10	1
4901784	5	C	08/24/2015	10:49	-129.045	46.875	0	1940.00	0	2.0050	0	34.5760	0	27.642	0	1915.034	0	51.0	4	15.4	4	-1E+10	1	-1E+10	1	-1E+10	1	-1E+10	1	-1E+10	1	-1E+10	1
4901784	5	C	08/24/2015	10:49	-129.045	46.875	0	1945.80	0	2.0030	0	34.5770	0	27.643	0	1920.734	0	51.2	4	15.4	4	-1E+10	1	-1E+10	1	-1E+10	1	-1E+10	1	-1E+10	1	-1E+10	1
4901784	5	C	08/24/2015	10:49	-129.045	46.875	0	1950.70	0	2.0010	0	34.5770	0	27.643	0	1925.548	0	51.4	4	15.5	4	-1E+10	1	-1E+10	1	-1E+10	1	-1E+10	1	-1E+10	1	-1E+10	1
4901784	5	C	08/24/2015	10:49	-129.045	46.875	0	1955.70	0	1.9970	0	34.5780	0	27.644	0	1930.461	0	51.7	4	15.6	4	-1E+10	1	-1E+10	1	-1E+10	1	-1E+10	1	-1E+10	1	-1E+10	1
4901784	5	C	08/24/2015	10:49	-129.045	46.875	0	1960.80	0	1.9940	0	34.5780	0	27.644	0	1935.472	0	51.9	4	15.6	4	-1E+10	1	-1E+10	1	-1E+10	1	-1E+10	1	-1E+10	1	-1E+10	1
4901784	5	C	08/24/2015	10:49	-129.045	46.875	0	1965.10	0	1.9910	0	34.5790	0	27.646	0	1939.697	0	52.1	4	15.7	4	-1E+10	1	-1E+10	1	-1E+10	1	-1E+10	1	-1E+10	1	-1E+10	1
4901784	5	C	08/24/2015	10:49	-129.045	46.875	0	1969.30	0	1.9900	0	34.5790	0	27.646	0	1943.824	0	52.2	4	15.7	4	-1E+10	1	-1E+10	1	-1E+10	1	-1E+10	1	-1E+10	1	-1E+10	1
4901784	5	C	08/24/2015	10:49	-129.045	46.875	0	1974.40	0	1.9880	0	34.5790	0	27.646	0	1948.834	0	52.5	4	15.8	4	-1E+10	1	-1E+10	1	-1E+10	1	-1E+10	1	-1E+10	1	-1E+10	1
4901784	5	C	08/24/2015	10:49	-129.045	46.875	0	1979.50	0	1.9840	0	34.5800	0	27.647	0	1953.845	0	52.8	4	15.9	4	-1E+10	1	-1E+10	1	-1E+10	1	-1E+10	1	-1E+10	1	-1E+10	1
4901784	5	C	08/24/2015	10:49	-129.045	46.875	0	1984.70	0	1.9800	0	34.5800	0	27.647	0	1958.954	0	53.1	4	16.0	4	-1E+10	1	-1E+10	1	-1E+10	1	-1E+10	1	-1E+10	1	-1E+10	1
4901784	5	C	08/24/2015	10:49	-129.045	46.875	0	1989.90	0	1.9750	0	34.5810	0	27.649	0	1964.062	0	53.4	4	16.1	4	-1E+10	1	-1E+10	1	-1E+10	1	-1E+10	1	-1E+10	1	-1E+10	1
4901784	5	C	08/24/2015	10:49	-129.045	46.875	0	1995.10	0	1.9720	0	34.5820	0	27.650	0	1969.171	0	53.6	4	16.2	4	-1E+10	1	-1E+10	1	-1E+10	1	-1E+10	1	-1E+10	1	-1E+10	1
4901784	5	C	08/24/2015	10:49	-129.045	46.875	0	2000.30	0	1.9690	0	34.5820	0	27.650	0	1974.279	0	53.9	4	16.2	4	-1E+10	1	-1E+10	1	-1E+10	1	-1E+10	1	-1E+10	1	-1E+10	1
4901784	5	C	08/24/2015	10:49	-129.045	46.875	0	2005.60	0	1.9660	0	34.5830	0	27.651	0	1979.486	0	54.2	4	16.3	4	-1E+10	1	-1E+10	1	-1E+10	1	-1E+10	1	-1E+10	1	-1E+10	1
4901784	5	C	08/24/2015	10:49	-129.045	46.875	0	2009.50	0	1.9630	0	34.5840	0	27.652	0	1983.317	0	54.5	4	16.4	4	-1E+10	1	-1E+10	1	-1E+10	1	-1E+10	1	-1E+10	1	-1E+10	1
4901784	5	C	08/24/2015	10:49	-129.045	46.875	0	2014.80	0	1.9570	0	34.5850	0	27.653	0	1988.523	0	54.8	4	16.5	4	-1E+10	1	-1E+10	1	-1E+10	1	-1E+10	1	-1E+10	1	-1E+10	1
4901784	5	C	08/24/2015	10:49	-129.045	46.875	0	2019.50	0	1.9550	0	34.5850	0	27.653	0	1993.140	0	54.9	4	16.5	4	-1E+10	1	-1E+10	1	-1E+10	1	-1E+10	1	-1E+10	1	-1E+10	1
4901784	5	C	08/24/2015	10:49	-129.045	46.875	0																										
4901784	6	C	09/03/2015	10:47	-129.153	46.879	0	3.20	0	17.7630	0	32.0440	0	23.068	0	3.173	0	230.9	4	96.3	4	-1E+10	1	-1E+10	1	-1E+10	1	-1E+10	1	-1E+10	1	-1E+10	1
4901784	6	C	09/03/2015	10:47	-129.153	46.879	0	4.50	0	17.7640	0	32.0440	0	23.068	0	4.463	0	230.8	4	96.3	4	-1E+10	1	-1E+10	1	-1E+10	1	-1E+10	1	-1E+10	1	-1E+10	1
4901784	6	C	09/03/2015	10:47	-129.153	46.879	0	6.10	0	17.7660	0	32.0440	0	23.067	0	6.049	0	230.7	4	96.2	4	-1E+10	1	-1E+10	1	-1E+10	1	-1E+10	1	-1E+10	1	-1E+10	1
4901784	6	C	09/03/2015	10:47	-129.153	46.879	0	7.80	0	17.7650	0	32.0440	0	23.067	0	7.735	0	230.6	4	96.2	4	-1E+10	1	-1E+10	1	-1E+10	1	-1E+10	1	-1E+10	1	-1E+10	1
4901784	6	C	09/03/2015	10:47	-129.153	46.879	0	9.40	0	17.7660	0	32.0430	0	23.066	0	9.322	0	230.3	4	96.1	4	-1E+10	1	-1E+10	1	-1E+10	1	-1E+10	1	-1E+10	1	-1E+10	1
4901784	6	C	09/03/2015	10:47	-129.153	46.879	0	11.20	0	17.7660	0	32.0430	0	23.067	0	11.107	0	230.3	4	96.0	4	-1E+10	1	-1E+10	1	-1E+10	1	-1E+10	1	-1E+10	1	-1E+10	1
4901784	6	C	09/03/2015	10:47	-129.153	46.879	0	13.00	0	17.7630	0	32.0430	0	23.067	0	12.892	0	230.2	4	96.0	4	-1E+10	1	-1E+10	1	-1E+10	1	-1E+10	1	-1E+10	1	-1E+10	1
4901784	6	C	09/03/2015	10:47	-129.153	46.879	0	14.80	0	17.7610	0	32.0420	0	23.067	0	14.677	0	230.2	4	96.0	4	-1E+10	1	-1E+10	1	-1E+10	1	-1E+10	1	-1E+10	1	-1E+10	1
4901784	6	C	09/03/2015	10:47	-129.153	46.879	0	16.60	0	17.7610	0	32.0410	0	23.066	0	16.462	0	230.3	4	96.1	4	-1E+10	1	-1E+10	1	-1E+10	1	-1E+10	1	-1E+10	1	-1E+10	1
4901784	6	C	09/03/2015	10:47	-129.153	46.879	0	18.30	0	17.7630	0	32.0390	0	23.064	0	18.148	0	230.5	4	96.1	4	-1E+10	1	-1E+10	1	-1E+10	1	-1E+10	1	-1E+10	1	-1E+10	1
4901784	6	C	09/03/2015	10:47	-129.153	46.879	0	20.00	0	17.7630	0	32.0360	0	23.062	0	19.833	0	231.2	4	96.4	4	-1E+10	1	-1E+10	1	-1E+10	1	-1E+10	1	-1E+10	1	-1E+10	1
4901784	6	C	09/03/2015	10:47	-129.153	46.879	0	21.70	0	17.7570	0	32.0330	0	23.061	0	21.519	0	232.0	4	96.8	4	-1E+10	1	-1E+10	1	-1E+10	1	-1E+10	1	-1E+10	1	-1E+10	1
4901784	6	C	09/03/2015	10:47	-129.153	46.879	0	23.30	0	17.7510	0	32.0280	0	23.059	0	23.106	0	233.5	4	97.4	4	-1E+10	1	-1E+10	1	-1E+10	1	-1E+10	1	-1E+10	1	-1E+10	1
4901784	6	C	09/03/2015	10:47	-129.153	46.879	0	25.30	0	17.7510	0	32.0100	4	23.045	0	25.089	0	236.6	4	98.6	4	-1E+10	1	-1E+10	1	-1E+10	1	-1E+10	1	-1E+10	1	-1E+10	1
4901784	6	C	09/03/2015	10:47	-129.153	46.879	0	26.90	0	16.7810	0	32.1070	0	23.348	0	26.675	0	242.5	4	99.3	4	-1E+10	1	-1E+10	1	-1E+10	1	-1E+10	1	-1E+10	1	-1E+10	1
4901784	6	C	09/03/2015	10:47	-129.153	46.879	0	28.40	0	15.8890	0	32.1000	0	23.545	0	28.163	0	251.5	4	101.2	4	-1E+10	1	-1E+10	1	-1E+10	1	-1E+10	1	-1E+10	1	-1E+10	1
4901784	6	C	09/03/2015	10:47	-129.153	46.879	0	29.80	0	15.5240	0	32.1240	0	23.644	0	29.551	0	254.2	4	101.6	4	-1E+10	1	-1E+10	1	-1E+10	1	-1E+10	1	-1E+10	1	-1E+10	1
4901784	6	C	09/03/2015	10:47	-129.153	46.879	0	31.10	0	15.4570	0	32.1000	0	23.640	0	30.840	0	256.6	4	102.4	4	-1E+10	1	-1E+10	1	-1E+10	1	-1E+10	1	-1E+10	1	-1E+10	1
4901784	6	C	09/03/2015	10:47	-129.153	46.879	0	32.40	0	15.1020	0	32.1160	0	23.729	0	32.129	0	258.6	4	102.5	4	-1E+10	1	-1E+10	1	-1E+10	1	-1E+10	1	-1E+10	1	-1E+10	1
4901784	6	C	09/03/2015	10:47	-129.153	46.879	0	34.10	0	14.1440	0	32.1590	0	23.965	0	33.815	0	264.4	4	102.9	4	-1E+10	1	-1E+10	1	-1E+10	1	-1E+10	1	-1E+10	1	-1E+10	1
4901784	6	C	09/03/2015	10:47	-129.153	46.879	0	35.40	0	13.6140	0	32.1810	0	24.090	0	35.104	0	267.5	4	103.0	4	-1E+10	1	-1E+10	1	-1E+10	1	-1E+10	1	-1E+10	1	-1E+10	1
4901784	6	C	09/03/2015	10:47	-129.153	46.879	0	36.50	0	13.5460	0	32.1850	0	24.106	0	36.194	0	268.2	4	103.1	4	-1E+10	1	-1E+10	1	-1E+10	1	-1E+10	1	-1E+10	1	-1E+10	1
4901784	6	C	09/03/2015	10:47	-129.153	46.879	0	37.60	0	13.5250	0	32.1840	0	24.110	0	37.285	0	267.9	4	102.9	4	-1E+10	1	-1E+10	1	-1E+10	1	-1E+10	1	-1E+10	1	-1E+10	1
4901784	6	C	09/03/2015	10:47	-129.153	46.879	0	38.70	0	13.4400	0	32.1850	0	24.128	0	38.376	0	267.8	4	102.7	4	-1E+10	1	-1E+10	1	-1E+10	1	-1E+10	1	-1E+10	1	-1E+10	1
4901784	6	C	09/03/2015	10:47	-129.153	46.879	0	39.80	0	13.2290	0	32.1910	0	24.174	0	39.466	0	268.2	4	102.4	4	-1E+10	1	-1E+10	1	-1E+10	1	-1E+10	1	-1E+10	1	-1E+10	1
4901784	6	C	09/03/2015	10:47	-129.153	46.879	0	41.10	0	13.0050	0	32.2020	0	24.227	0	40.755	0	268.2	4	102.0	4	-1E+10	1	-1E+10	1	-1E+10	1	-1E+10	1	-1E+10	1	-1E+10	1
4901784	6	C	09/03/2015	10:47	-129.153	46.879	0	42.50	0	12.6950	0	32.2210	0	24.302	0	42.143	0	268.0	4	101.3	4	-1E+10	1	-1E+10	1	-1E+10	1	-1E+10	1	-1E+10	1	-1E+10	1
4901784	6	C	09/03/2015	10:47	-129.153	46.879	0	44.00	0	12.5110	0	32.2200	0	24.336	0	43.631	0	267.8	4	100.8	4	-1E+10	1	-1E+10	1	-1E+10	1	-1E+10	1	-1E+10	1	-1E+10	1
4901784	6	C	09/03/2015	10:47	-129.153	46.879	0	45.50	0	12.2290	0	32.2360	0	24.402	0	45.118	0	267.0	4	99.9	4	-1E+10	1	-1E+10	1	-1E+10	1	-1E+10	1	-1E+10	1	-1E+10	1
4901784	6	C	09/03/2015	10:47	-129.153	46.879	0	47.10	0	11.8370	0	32.2580	0	24.492	0	46.704	0	265.3	4	98.5	4	-1E+10	1	-1E+10	1	-1E+10	1	-1E+10	1	-1E+10	1	-1E+10	1
4901784	6	C	09/03/2015	10:47	-129.153	46.879	0	48.70	0	11.5660	0	32.2760	0	24.555	0	48.291	0	264.2	4	97.5	4	-1E+10	1	-1E+10	1	-1E+10	1	-1E+10	1	-1E+10	1	-1E+10	1
4901784	6	C	09/03/2015	10:47	-129.153	46.879	0	50.40	0	11.4720	0	32.2750	0	24.572	0	49.976	0	261.0	4	96.2	4	-1E+10	1	-1E+10	1	-1E+10	1	-1E+10	1	-1E+10	1	-1E+10	1
4901784	6	C	09/03/2015	10:47	-129.153	46.879	0	51.90	0	11.2850	0	32.2840	0	24.612	0	51.463	0	257.1	4	94.4	4	-1E+10	1	-1E+10	1	-1E+10	1	-1E+10	1	-1E+10	1	-1E+10	1
4901784	6	C	09/03/2015	10:47	-129.153	46.879	0	53.60	0	11.1150	0	32.2990	0	24.654	0	53.149	0	253.0	4	92.5	4	-1E+10	1	-1E+10	1	-1E+10	1	-1E+10	1	-1E+10	1	-1E+10	1
4901784	6	C	09/03/2015	10:47	-129.153	46.879	0	55.20	0	10.9450	0	32.3220	0	24.702	0	54.735	0	250.7	4	91.4	4	-1E+10	1	-1E+10	1	-1E+10	1	-1E+10	1	-1E+10	1	-1E+10	1
4901784	6	C	09/03/2015	10:47	-129.153	46.879	0	57.00	0	10.8200	0	32.3480	0	24.744	0	56.520	0	247.3	4	89.9	4	-1E+10	1	-1E+10	1	-1E+10	1	-1E+10	1	-1E+10	1	-1E+10	1
4901784	6	C	09/03/2015	10:47	-129.153	46.879	0	58.80	0	10.7310	0	32.3540	0	24.764	0	58.304	0	244.5	4	88.8	4	-1E+10	1	-1E+10	1	-1E+10	1	-1E+10	1	-1E+10	1	-1E+10	1
4901784	6	C	09/03/2015	10:47	-129.153	46.879	0	61.10	0	10.6200	0	32.3780	0	24.802	0	60.585	0	240.8	4	87.2	4	-1E+10	1	-1E+10	1	-1E+10	1	-1E+10	1	-1E+10	1	-1E+10	1
4901784	6	C	09/03/2015	10:47	-129.153	46.879	0	62.80	0	10.5440	0	32.3870	0	24.822	0	62.270	0	237.4	4	85.9	4	-1E+10	1	-1E+10	1	-1E+10	1	-1E+10	1	-1E+10	1	-1E+10	1
4901784	6	C	09/03/2015	10:47	-129.153	46.879	0	64.30	0	10.4440	0	32.4090	0	24.856	0	63.757	0	235.0	4	84.8	4	-1E+10	1	-1E+10	1	-1E+10	1	-1E+10	1	-1E+10	1	-1E+10	1
4901784	6	C	09/03/2015	10:47	-129.153	46.879	0	65.80	0	10.4000	0	32.4220	0	24.874	0	65.244	0	232.9	4	84.0	4	-1E+10	1	-1E+10	1	-1E+10	1	-1E+10	1	-1E+10	1	-1E+10	1
4901784	6	C	09/03/2015	10:47	-129.153	46.879	0	67.50	0	10.2950	0	32.4490	0	24.913	0	66.930	0	231.1	4	83.2	4	-1E+10	1	-1E+10	1	-1E+10	1	-1E+10	1	-1E+10	1	-1E+10	1
4901784	6	C	09/03/2015	10:47	-129.153	46.879	0	69.10	0	10.2830	0	32.4500	0	24.916	0	68.516	0	229.7	4	82.6	4	-1E+10	1	-1E+10	1	-1E+10	1	-1E+10	1	-1E+10	1	-1E+10	1
4901784	6	C	09/03/2015	10:47	-129.153	46.879	0	70.80	0	10.2490	0	32.4570	0	24.927	0	70.201	0	228.0	4	82.0	4	-1E+10	1	-1E+10	1	-1E+10	1	-1E+10	1	-1E+10	1	-1E+10	1
4901784	6	C	09/03/2015	10:47	-129.153	46.879	0	72.30	0	10.2430	0	32.4600	0	24.930	0	71.688	0	225.7	4	81.1	4	-1E+10	1	-1E+10	1	-1E+10	1	-1E+10	1	-1E+10	1	-1E+10	1
4901784	6	C	09/03/2015	10:47	-129.153	46.879	0	74.00	0	10.1630	0	32.4690	0	24.951	0	73.373	0	222.3	4	79.8	4	-1E+10	1	-1E+10	1	-1E+10	1	-1E+10	1	-1E+10	1	-1E+10	1
4901784	6	C	09/03/2015	10:47	-129.153	46.879	0	75.50	0	10.0100	0	32.4960	0	24.997	0	74.860	0	219.1	4	78.4	4	-1E+10	1	-1E+10	1	-1E+10	1	-1E+10	1	-1E+10	1	-1E+10	1
4901784	6	C	09/03/2015	10:47	-129.153	46.879	0	77.30	0	9.8500	0	32.5310	0	25.051	0	76.645	0	216.7	4	77.3	4	-1E+10	1	-1E+10	1	-1E+10	1	-1E+10	1	-1E+10	1	-1E+10	1
4901784	6	C	09/03/2015	10:47	-129.153	46.879	0	79.00	0	9.6930	0	32.5740	0	25.110	0	78.330	0	213.8	4	76.0	4	-1E+10	1	-1E+10	1	-1E+10	1	-1E+10	1	-1E+10	1	-1E+10	1
4901784	6	C	09/03/2015	10:47	-129.153	46.879	0	80.90	0	9.5130	0	32.6180	0	25.174	0	80.214	0	212.7	4	75.3	4	-1E+10	1	-1E+10	1	-1E+10	1	-1E+10	1	-1E+10	1	-1E+10	1
4901784	6	C	09/03/2015	10:47	-129.153	46.879	0	82.70	0	9.4280	0	32.6460	0	25.209	0	81.998	0	210.6	4	74.5	4	-1E+10	1	-1E+10	1	-1E+10	1	-1E+10	1	-1E+10	1	-1E+10	1
4901784	6	C	09/03/2015	10:47	-129.153	46.879	0	84.50	0	9.3480	0	32.6610	0	25.234	0	83.782	0	209.3	4	73.9	4	-1E+10	1	-1E+10	1	-1E+10	1	-1E+10	1	-1E+10	1	-1E+10	1
4901784	6	C	09/03/2015	10:47	-129.153	46.879	0	86.30	0	9.2520	0	32.6930	0	25.274	0	85.567	0	208.0	4	73.3	4	-1E+10	1	-1E+10	1	-1E+10	1	-1E+10	1	-1E+10	1	-1E+10	1
4901784	6	C	09/03/2015	10:47	-129.153	46.879	0	88.00	0	9.1960	0	32.7040	0	25.292	0	87.252	0	206.8	4	72.8	4	-1E+10	1	-1E+10	1	-1E+10	1	-1E+10	1	-1E+10	1	-1E+10	1
4901784	6	C	09/03/2015	10:47	-129.153	46.879	0	89.90	0	9.1860	0	32.7020	0	25.292	0	89.135	0	205.2	4	72.2	4	-1E+10	1	-1E+10	1	-1E+10	1	-1E+10	1	-1E+10	1	-1E+10	1
4901784	6	C	09/03/2015	10:47	-129.153	46.879	0	91.60	0	9.0670	0	32.7320	0	25.334	0	90.821	0	203.5	4	71.4	4	-1E+10	1	-1E+10	1	-1E+10	1	-1E+10	1	-1E+10	1	-1E+10	1
4901784	6	C	09/03/2015	10:47	-129.153	46.879	0	93.40	0	8.9140	0	32.7740	0	25.391	0	92.605	0	202.1	4	70.7	4	-1E+10	1	-1E+10	1	-1E+10	1	-1E+10	1	-1E+10	1	-1E+10	1
4901784	6	C	09/03/2015	10:47	-129.153	46.879	0	95.20	0	8.8640	0	32.7880	0	25.409	0	94.389	0	200.7	4	70.2	4	-1E+10	1	-1E+10	1	-1E+10	1	-1E+10	1	-1E+10	1	-1E+10	1
4901784	6	C	09/03/2015	10:47	-129.153	46.879	0	96.90	0	8.7740	0	32.8200	0	25.448	0	96.074	0	199.3	4	69.5	4	-1E+10	1	-1E+10	1	-1E+10	1	-1E+10	1	-1E+10	1	-1E+10	1
4901784	6	C	09/03/2015	10:47	-129.153	46.879	0	98.80	0	8.7210	0	32.8570	0	25.485	0	97.958	0	198.3	4	69.2	4	-1E+10	1	-1E+10	1	-1E+10	1	-1E+10	1	-1E+10	1	-1E+10	1
4901784	6	C	09/03/2015	10:47	-129.153	46.879	0	103.10	0	8.5560	0	32.9370	0	25.573	0	102.220	0	196.5	4	68.3	4	-1E+10	1	-1E+10	1	-1E+10	1	-1E+10	1	-1E+10	1	-1E+10	1
4901784	6	C	09/03/2015	10:47	-129.153	46.879	0	104.90	0	8.4690	0	32.9650	0	25.608	0	104.004	0	196.1	4	68.1	4	-1E+10	1	-1E+10	1	-1E+10	1	-1E+10	1	-1E+10	1	-1E+10	1
4901784	6	C	09/03/2015	10:47	-129.153	46.879	0	107.30	0	8.3910	0	32.9880	0	25.638	0	106.383	0	195.2	4	67.6	4	-1E+10	1	-1E+10	1	-1E+10	1	-1E+10	1	-1E+10	1	-1E+10	1
4901784	6	C	09/03/2015	10:47	-129.153	46.879	0	109.70	0	8.2960	0	33.0190	0	25.677	0	108.762	0	194.4	4	67.2	4	-1E+10	1	-1E+10	1	-1E+10	1	-1E+10	1	-1E+10	1	-1E+10	1
4901784	6	C	09/03/2015	10:47	-129.153	46.879	0	112.10	0	8.2360	0	33.0370	0	25.700	0	111.141	0	193.2	4	66.7	4	-1E+10	1	-1E+10	1	-1E+10	1	-1E+10	1	-1E+10	1	-1E+10	1
4901784	6	C	09/03/2015	10:47	-129.153	46.879	0	115.20	0	8.2000	0	33.0600	0	25.723	0	114.213	0	191.2	4	66.0	4	-1E+10	1	-1E+10	1	-1E+10	1	-1E+10	1	-1E+10	1	-1E+10	1
4901784	6	C	09/03/2015	10:47	-129.153	46.879	0	117.50	0	8.1610	0	33.0830	0	25.747	0	116.493	0	189.7	4	65.5	4	-1E+10	1	-1E+10	1	-1E+10	1	-1E+10	1	-1E+10	1	-1E+10	1
4901784	6	C	09/03/2015	10:47	-129.153	46.879	0	119.90	0	8.1070	0	33.1110	0	25.777	0	118.872	0	188.1	4	64.8	4	-1E+10	1	-1E+10	1	-1E+10	1	-1E+10	1	-1E+10	1	-1E+10	1
4901784	6	C	09/03/2015	10:47	-129.153	46.879	0	122.40	0	8.0410	0	33.1550	0	25.821	0	121.349	0	186.3	4	64.1	4	-1E+10	1	-1E+10	1	-1E+10	1	-1E+10	1	-1E+10	1	-1E+10	1
4901784	6	C	09/03/2015	10:47	-129.153	46.879	0	124.80	0	8.0160	0	33.1790	0	25.844	0	123.728	0	185.0	4	63.7	4	-1E+10	1	-1E+10	1	-1E+10	1	-1E+10	1	-1E+10	1	-1E+10	1
4901784	6	C	09/03/2015	10:47	-129.153	46.879	0	127.30	0	7.9770	0	33.2140	0	25.877	0	126.206	0	183.7	4	63.2	4	-1E+10	1	-1E+10	1	-1E+10	1	-1E+10	1	-1E+10	1	-1E+10	1
4901784	6	C	09/03/2015	10:47	-129.153	46.879	0	129.80	0	7.9160	0	33.2520	0	25.916	0	128.684	0	183.3	4	63.0	4	-1E+10	1	-1E+10	1	-1E+10	1	-1E+10	1	-1E+10	1	-1E+10	1
4901784	6	C	09/03/2015	10:47	-129.153	46.879	0	132.20	0	7.8790	0	33.2800	0	25.943	0	131.062	0	182.6	4	62.7	4	-1E+10	1	-1E+10	1	-1E+10	1	-1E+10	1	-1E+10	1	-1E+10	1
4901784	6	C	09/03/2015	10:47	-129.153	46.879	0	134.80	0	7.8470	0	33.2970	0	25.961	0	133.639	0	182.2	4	62.5	4	-1E+10	1	-1E+10	1	-1E+10	1	-1E+10	1	-1E+10	1	-1E+10	1
4901784	6	C	09/03/2015	10:47	-129.153	46.879	0	137.40	0	7.7890	0	33.3220	0	25.989	0	136.216	0	181.6	4	62.2	4	-1E+10	1	-1E+10	1	-1E+10	1	-1E+10	1	-1E+10	1	-1E+10	1
4901784	6	C	09/03/2015	10:47	-129.153	46.879	0	140.10	0	7.7750	0	33.3600	0	26.021	0	138.892	0	180.6	4	61.9	4	-1E+10	1	-1E+10	1	-1E+10	1	-1E+10	1	-1E+10	1	-1E+10	1
4901784	6	C	09/03/2015	10:47	-129.153	46.879	0	142.80	0	7.7400	0	33.3830	0	26.044	0	141.567	0	180.4	4	61.8	4	-1E+10	1	-1E+10	1	-1E+10	1	-1E+10	1	-1E+10	1	-1E+10	1
4901784	6	C	09/03/2015	10:47	-129.153	46.879	0	144.50	0	7.7120	0	33.4130	0	26.072	0	143.252	0	180.3	4	61.7	4	-1E+10	1	-1E+10	1	-1E+10	1	-1E+10	1	-1E+10	1	-1E+10	1
4901784	6	C	09/03/2015	10:47	-129.153	46.879	0	147.30	0	7.7040	0	33.4500	0	26.102	0	146.027	0	180.5	4	61.8	4	-1E+10	1	-1E+10	1	-1E+10	1	-1E+10	1	-1E+10	1	-1E+10	1
4901784	6	C	09/03/2015	10:47	-129.153	46.879	0	149.90	0	7.6630	0	33.4640	0	26.119	0	148.603	0	181.3	4	62.0	4	-1E+10	1	-1E+10	1	-1E+10	1	-1E+10	1	-1E+10	1	-1E+10	1
4901784	6	C	09/03/2015	10:47	-129.153	46.879	0	151.70	0	7.6410	0	33.4900	0	26.142	0	150.387	0	182.8	4	62.5	4	-1E+10	1	-1E+10	1	-1E+10	1	-1E+10	1	-1E+10	1	-1E+10	1
4901784	6	C	09/03/2015	10:47	-129.153	46.879	0	154.80	0	7.6770	0	33.5350	0	26.173	0	153.459	0	183.7	4	62.9	4	-1E+10	1	-1E+10	1	-1E+10	1	-1E+10	1	-1E+10	1	-1E+10	1
4901784	6	C	09/03/2015	10:47	-129.153	46.879	0	157.60	0	7.6720	0	33.5510	0	26.186	0	156.234	0	183.7	4	62.9	4	-1E+10	1	-1E+10	1	-1E+10	1	-1E+10	1	-1E+10	1	-1E+10	1
4901784	6	C	09/03/2015	10:47	-129.153	46.879	0	160.00	0	7.6670	0	33.5720	0	26.203	0	158.612	0	183.2	4	62.7	4	-1E+10	1	-1E+10	1	-1E+10	1	-1E+10	1	-1E+10	1	-1E+10	1
4901784	6	C	09/03/2015	10:47	-129.153	46.879	0	162.30	0	7.6340	0	33.5970	0	26.228	0	160.891	0	182.2	4	62.3	4	-1E+10	1	-1E+10	1	-1E+10	1	-1E+10	1	-1E+10	1	-1E+10	1
4901784	6	C	09/03/2015	10:47	-129.153	46.879	0	164.70	0	7.6120	0	33.6210	0	26.250	0	163.270	0	180.4	4	61.7	4	-1E+10	1	-1E+10	1	-1E+10	1	-1E+10	1	-1E+10	1	-1E+10	1
4901784	6	C	09/03/2015	10:47	-129.153	46.879	0	167.90	0	7.5860	0	33.6580	0	26.282	0	166.441	0	177.5	4	60.7	4	-1E+10	1	-1E+10	1	-1E+10	1	-1E+10	1	-1E+10	1	-1E+10	1
4901784	6	C	09/03/2015	10:47	-129.153	46.879	0	170.30	0	7.5740	0	33.6960	0	26.314	0	168.819	0	175.9	4	60.2	4	-1E+10	1	-1E+10	1	-1E+10	1	-1E+10	1	-1E+10	1	-1E+10	1
4901784	6	C	09/03/2015	10:47	-129.153	46.879	0	172.80	0	7.5670	0	33.7110	0	26.327	0	171.296	0	173.7	4	59.4	4	-1E+10	1	-1E+10	1	-1E+10	1	-1E+10	1	-1E+10	1	-1E+10	1
4901784	6	C	09/03/2015	10:47	-129.153	46.879	0	175.30	0	7.5370	0	33.7220	0	26.340	0	173.773	0	171.7	4	58.7	4	-1E+10	1	-1E+10	1	-1E+10	1	-1E+10	1	-1E+10	1	-1E+10	1
4901784	6	C	09/03/2015	10:47	-129.153	46.879	0	177.90	0	7.5220	0	33.7340	0	26.351	0	176.349	0	170.3	4	58.2	4	-1E+10	1	-1E+10	1	-1E+10	1	-1E+10	1	-1E+10	1	-1E+10	1
4901784	6	C	09/03/2015	10:47	-129.153	46.879	0	180.60	0	7.4910	0	33.7440	0	26.364	0	179.025	0	169.1	4	57.7	4	-1E+10	1	-1E+10	1	-1E+10	1	-1E+10	1	-1E+10	1	-1E+10	1
4901784	6	C	09/03/2015	10:47	-129.153	46.879	0	182.30	0	7.4710	0	33.7470	0	26.369	0	180.709	0	168.7	4	57.6	4	-1E+10	1	-1E+10	1	-1E+10	1	-1E+10	1	-1E+10	1	-1E+10	1
4901784	6	C	09/03/2015	10:47	-129.153	46.879	0	185.10	0	7.4770	0	33.7580	0	26.377	0	183.483	0	167.9	4	57.3	4	-1E+10	1	-1E+10	1	-1E+10	1	-1E+10	1	-1E+10	1	-1E+10	1
4901784	6	C	09/03/2015	10:47	-129.153	46.879	0	187.90	0	7.4610	0	33.7670	0	26.386	0	186.258	0	166.4	4	56.8	4	-1E+10	1	-1E+10	1	-1E+10	1	-1E+10	1	-1E+10	1	-1E+10	1
4901784	6	C	09/03/2015	10:47	-129.153	46.879	0	189.70	0	7.4650	0	33.7760	0	26.393	0	188.041	0	165.4	4	56.5	4	-1E+10	1	-1E+10	1	-1E+10	1	-1E+10	1	-1E+10	1	-1E+10	1
4901784	6	C	09/03/2015	10:47	-129.153	46.879	0	192.60	0	7.4560	0	33.7840	0	26.400	0	190.914	0	162.3	4	55.4	4	-1E+10	1	-1E+10	1	-1E+10	1	-1E+10	1	-1E+10	1	-1E+10	1
4901784	6	C	09/03/2015	10:47	-129.153	46.879	0	195.90	0	7.4270	0	33.7930	0	26.412	0	194.184	0	158.5	4	54.0	4	-1E+10	1	-1E+10	1	-1E+10	1	-1E+10	1	-1E+10	1	-1E+10	1
4901784	6	C	09/03/2015	10:47	-129.153	46.879	0	197.80	0	7.3910	0	33.8020	0	26.424	0	196.066	0	155.0	4	52.8	4	-1E+10	1	-1E+10	1	-1E+10	1	-1E+10	1	-1E+10	1	-1E+10	1
4901784	6	C	09/03/2015	10:47	-129.153	46.879	0	200.10	0	7.3800	0	33.8110	0	26.432	0	198.345	0	151.0	4	51.5	4	-1E+10	1	-1E+10	1	-1E+10	1	-1E+10	1	-1E+10	1	-1E+10	1
4901784	6	C	09/03/2015	10:47	-129.153	46.879	0	202.40	0	7.3650	0	33.8210	0	26.442	0	200.624	0	146.6	4	49.9	4	-1E+10	1	-1E+10	1	-1E+10	1	-1E+10	1	-1E+10	1	-1E+10	1
4901784	6	C	09/03/2015	10:47	-129.153	46.879	0	204.80	0	7.3490	0	33.8250	0	26.448	0	203.002	0	142.8	4	48.6	4	-1E+10	1	-1E+10	1	-1E+10	1	-1E+10	1	-1E+10	1	-1E+10	1
4901784	6	C	09/03/2015	10:47	-129.153	46.879	0	207.20	0	7.3020	0	33.8360	0	26.463	0	205.379	0	140.1	4	47.7	4	-1E+10	1	-1E+10	1	-1E+10	1	-1E+10	1	-1E+10	1	-1E+10	1
4901784	6	C	09/03/2015	10:47	-129.153	46.879	0	209.60	0	7.2610	0	33.8460	0	26.477	0	207.757	0	137.6	4	46.8	4	-1E+10	1	-1E+10	1	-1E+10	1	-1E+10	1	-1E+10	1	-1E+10	1
4901784	6	C	09/03/2015	10:47	-129.153	46.879	0	212.80	0	7.2180	0	33.8530	0	26.488	0	210.927	0	134.7	4	45.8	4	-1E+10	1	-1E+10	1	-1E+10	1	-1E+10	1	-1E+10	1	-1E+10	1
4901784	6	C	09/03/2015	10:47	-129.153	46.879	0	215.20	0	7.2010	0	33.8590	0	26.495	0	213.305	0	135.8	4	46.1	4	-1E+10	1	-1E+10	1	-1E+10	1	-1E+10	1	-1E+10	1	-1E+10	1
4901784	6	C	09/03/2015	10:47	-129.153	46.879	0	217.60	0	7.1320	0	33.8610	0	26.506	0	215.683	0	140.1	4	47.5	4	-1E+10	1	-1E+10	1	-1E+10	1	-1E+10	1	-1E+10	1	-1E+10	1
4901784	6	C	09/03/2015	10:47	-129.153	46.879	0	220.10	0	7.0160	0	33.8600	0	26.522	0	218.159	0	140.0	4	47.3	4	-1E+10	1	-1E+10	1	-1E+10	1	-1E+10	1	-1E+10	1	-1E+10	1
4901784	6	C	09/03/2015	10:47	-129.153	46.879	0	222.70	0	6.9920	0	33.8660	0	26.530	0	220.735	0	131.7	4	44.5	4	-1E+10	1	-1E+10	1	-1E+10	1	-1E+10	1	-1E+10	1	-1E+10	1
4901784	6	C	09/03/2015	10:47	-129.153	46.879	0	225.20	0	6.9830	0	33.8770	0	26.540	0	223.212	0	126.4	4	42.7	4	-1E+10	1	-1E+10	1	-1E+10	1	-1E+10	1	-1E+10	1	-1E+10	1
4901784	6	C	09/03/2015	10:47	-129.153	46.879	0	227.80	0	6.9730	0	33.8800	0	26.543	0	225.787	0	124.6	4	42.1	4	-1E+10	1	-1E+10	1	-1E+10	1	-1E+10	1	-1E+10	1	-1E+10	1
4901784	6	C	09/03/2015	10:47	-129.153	46.879	0	230.40	0	6.9650	0	33.8820	0	26.546	0	228.363	0	121.1	4	40.9	4	-1E+10	1	-1E+10	1	-1E+10	1	-1E+10	1	-1E+10	1	-1E+10	1
4901784	6	C	09/03/2015	10:47	-129.153	46.879	0	232.20	0	6.9650	0	33.8920	0	26.554	0	230.146	0	120.1	4	40.6	4	-1E+10	1	-1E+10	1	-1E+10	1	-1E+10	1	-1E+10	1	-1E+10	1
4901784	6	C	09/03/2015	10:47	-129.153	46.879	0	234.80	0	6.9270	0	33.8930	0	26.560	0	232.721	0	119.5	4	40.3	4	-1E+10	1	-1E+10	1	-1E+10	1	-1E+10	1	-1E+10	1	-1E+10	1
4901784	6	C	09/03/2015	10:47	-129.153	46.879	0	237.50	0	6.9120	0	33.8940	0	26.563	0	235.396	0	118.4	4	40.0	4	-1E+10	1	-1E+10	1	-1E+10	1	-1E+10	1	-1E+10	1	-1E+10	1
4901784	6	C	09/03/2015	10:47	-129.153	46.879	0	240.10	0	6.8660	0	33.8950	0	26.570	0	237.971	0	116.4	4	39.2	4	-1E+10	1	-1E+10	1	-1E+10	1	-1E+10	1	-1E+10	1	-1E+10	1
4901784	6	C	09/03/2015	10:47	-129.153	46.879	0	242.80	0	6.8570	0	33.9030	0	26.577	0	240.646	0	115.2	4	38.8	4	-1E+10	1	-1E+10	1	-1E+10	1	-1E+10	1	-1E+10	1	-1E+10	1
4901784	6	C	09/03/2015	10:47	-129.153	46.879	0	244.50	0	6.8040	0	33.8980	0	26.580	0	242.330	0	115.0	4	38.7	4	-1E+10	1	-1E+10	1	-1E+10	1	-1E+10	1	-1E+10	1	-1E+10	1
4901784	6	C	09/03/2015	10:47	-129.153	46.879	0	247.20	0	6.7920	0	33.9020	0	26.585	0	245.004	0	111.9	4	37.7	4	-1E+10	1	-1E+10	1	-1E+10	1	-1E+10	1	-1E+10	1	-1E+10	1
4901784	6	C	09/03/2015	10:47	-129.153	46.879	0	249.90	0	6.7750	0	33.9080	0	26.592	0	247.679	0	109.2	4	36.7	4	-1E+10	1	-1E+10	1	-1E+10	1	-1E+10	1	-1E+10	1	-1E+10	1
4901784	6	C	09/03/2015	10:47	-129.153	46.879	0	252.60	0	6.7510	0	33.9090	0	26.596	0	250.353	0	106.7	4	35.9	4	-1E+10	1	-1E+10	1	-1E+10	1	-1E+10	1	-1E+10	1	-1E+10	1
4901784	6	C	09/03/2015	10:47	-129.153	46.879	0	255.30	0	6.7580	0	33.9160	0	26.601	0	253.027	0	103.6	4	34.8	4	-1E+10	1	-1E+10	1	-1E+10	1	-1E+10	1	-1E+10	1	-1E+10	1
4901784	6	C	09/03/2015	10:47	-129.153	46.879	0	257.10	0	6.7600	0	33.9170	0	26.602	0	254.810	0	102.3	4	34.4	4	-1E+10	1	-1E+10	1	-1E+10	1	-1E+10	1	-1E+10	1	-1E+10	1
4901784	6	C	09/03/2015	10:47	-129.153	46.879	0	259.90	0	6.7430	0	33.9220	0	26.608	0	257.584	0	101.5	4	34.1	4	-1E+10	1	-1E+10	1	-1E+10	1	-1E+10	1	-1E+10	1	-1E+10	1
4901784	6	C	09/03/2015	10:47	-129.153	46.879	0	262.60	0	6.7100	0	33.9240	0	26.614	0	260.258	0	101.4	4	34.1	4	-1E+10	1	-1E+10	1	-1E+10	1	-1E+10	1	-1E+10	1	-1E+10	1
4901784	6	C	09/03/2015	10:47	-129.153	46.879	0	265.30	0	6.6830	0	33.9230	0	26.617	0	262.932	0	101.7	4	34.2	4	-1E+10	1	-1E+10	1	-1E+10	1	-1E+10	1	-1E+10	1	-1E+10	1
4901784	6	C	09/03/2015	10:47	-129.153	46.879	0	268.10	0	6.6560	0	33.9210	0	26.619	0	265.705	0	101.7	4	34.1	4	-1E+10	1	-1E+10	1	-1E+10	1	-1E+10	1	-1E+10	1	-1E+10	1
4901784	6	C	09/03/2015	10:47	-129.153	46.879	0	269.90	0	6.6480	0	33.9220	0	26.620	0	267.488	0	101.3	4	34.0	4	-1E+10	1	-1E+10	1	-1E+10	1	-1E+10	1	-1E+10	1	-1E+10	1
4901784	6	C	09/03/2015	10:47	-129.153	46.879	0	272.60	0	6.6020	0	33.9220	0	26.627	0	270.162	0	100.9	4	33.8	4	-1E+10	1	-1E+10	1	-1E+10	1	-1E+10	1	-1E+10	1	-1E+10	1
4901784	6	C	09/03/2015	10:47	-129.153	46.879	0	275.30	0	6.5800	0	33.9230	0	26.630	0	272.836	0	99.6	4	33.3	4	-1E+10	1	-1E+10	1	-1E+10	1	-1E+10	1	-1E+10	1	-1E+10	1
4901784	6	C	09/03/2015	10:47	-129.153	46.879	0	277.10	0	6.5760	0	33.9250	0	26.632	0	274.619	0	98.9	4	33.1	4	-1E+10	1	-1E+10	1	-1E+10	1	-1E+10	1	-1E+10	1	-1E+10	1
4901784	6	C	09/03/2015	10:47	-129.153	46.879	0	279.80	0	6.5240	0	33.9250	0	26.639	0	277.293	0	98.7	4	33.0	4	-1E+10	1	-1E+10	1	-1E+10	1	-1E+10	1	-1E+10	1	-1E+10	1
4901784	6	C	09/03/2015	10:47	-129.153	46.879	0	282.50	0	6.4930	0	33.9250	0	26.643	0	279.967	0	98.4	4	32.9	4	-1E+10	1	-1E+10	1	-1E+10	1	-1E+10	1	-1E+10	1	-1E+10	1
4901784	6	C	09/03/2015	10:47	-129.153	46.879	0	285.30	0	6.4000	0	33.9250	0	26.656	0	282.740	0	98.3	4	32.8	4	-1E+10	1	-1E+10	1	-1E+10	1	-1E+10	1	-1E+10	1	-1E+10	1
4901784	6	C	09/03/2015	10:47	-129.153	46.879	0	288.00	0	6.3750	0	33.9230	0	26.657	0	285.414	0	97.0	4	32.3	4	-1E+10	1	-1E+10	1	-1E+10	1	-1E+10	1	-1E+10	1	-1E+10	1
4901784	6	C	09/03/2015	10:47	-129.153	46.879	0	289.80	0	6.3710	0	33.9250	0	26.659	0	287.196	0	95.5	4	31.8	4	-1E+10	1	-1E+10	1	-1E+10	1	-1E+10	1	-1E+10	1	-1E+10	1
4901784	6	C	09/03/2015	10:47	-129.153	46.879	0	292.50	0	6.3600	0	33.9310	0	26.665	0	289.870	0	94.6	4	31.5	4	-1E+10	1	-1E+10	1	-1E+10	1	-1E+10	1	-1E+10	1	-1E+10	1
4901784	6	C	09/03/2015	10:47	-129.153	46.879	0	295.30	0	6.3030	0	33.9300	0	26.672	0	292.643	0	94.8	4	31.5	4	-1E+10	1	-1E+10	1	-1E+10	1	-1E+10	1	-1E+10	1	-1E+10	1
4901784	6	C	09/03/2015	10:47	-129.153	46.879	0	297.10	0	6.2960	0	33.9290	0	26.672	0	294.426	0	94.1	4	31.3	4	-1E+10	1	-1E+10	1	-1E+10	1	-1E+10	1	-1E+10	1	-1E+10	1
4901784	6	C	09/03/2015	10:47	-129.153	46.879	0	299.90	0	6.2910	0	33.9310	0	26.674	0	297.198	0	93.3	4	31.0	4	-1E+10	1	-1E+10	1	-1E+10	1	-1E+10	1	-1E+10	1	-1E+10	1
4901784	6	C	09/03/2015	10:47	-129.153	46.879	0	302.60	0	6.2710	0	33.9300	0	26.676	0	299.872	0	93.0	4	30.9	4	-1E+10	1	-1E+10	1	-1E+10	1	-1E+10	1	-1E+10	1	-1E+10	1
4901784	6	C	09/03/2015	10:47	-129.153	46.879	0	305.30	0	6.2230	0	33.9290	0	26.682	0	302.546	0	91.6	4	30.4	4	-1E+10	1	-1E+10	1	-1E+10	1	-1E+10	1	-1E+10	1	-1E+10	1
4901784	6	C	09/03/2015	10:47	-129.153	46.879	0	308.00	0	6.2220	0	33.9360	0	26.687	0	305.219	0	90.0	4	29.9	4	-1E+10	1	-1E+10	1	-1E+10	1	-1E+10	1	-1E+10	1	-1E+10	1
4901784	6	C	09/03/2015	10:47	-129.153	46.879	0	309.70	0	6.1650	0	33.9350	0	26.694	0	306.903	0	90.2	4	29.9	4	-1E+10	1	-1E+10	1	-1E+10	1	-1E+10	1	-1E+10	1	-1E+10	1
4901784	6	C	09/03/2015	10:47	-129.153	46.879	0	312.40	0	6.1460	0	33.9340	0	26.695	0	309.576	0	89.8	4	29.8	4	-1E+10	1	-1E+10	1	-1E+10	1	-1E+10	1	-1E+10	1	-1E+10	1
4901784	6	C	09/03/2015	10:47	-129.153	46.879	0	315.20	0	6.1200	0	33.9350	0	26.700	0	312.349	0	89.3	4	29.6	4	-1E+10	1	-1E+10	1	-1E+10	1	-1E+10	1	-1E+10	1	-1E+10	1
4901784	6	C	09/03/2015	10:47	-129.153	46.879	0	317.90	0	6.0740	0	33.9340	0	26.705	0	315.022	0	88.8	4	29.4	4	-1E+10	1	-1E+10	1	-1E+10	1	-1E+10	1	-1E+10	1	-1E+10	1
4901784	6	C	09/03/2015	10:47	-129.153	46.879	0	320.50	0	6.0730	0	33.9360	0	26.706	0	317.597	0	88.1	4	29.2	4	-1E+10	1	-1E+10	1	-1E+10	1	-1E+10	1	-1E+10	1	-1E+10	1
4901784	6	C	09/03/2015	10:47	-129.153	46.879	0	322.20	0	6.0320	0	33.9350	0	26.711	0	319.280	0	88.5	4	29.3	4	-1E+10	1	-1E+10	1	-1E+10	1	-1E+10	1	-1E+10	1	-1E+10	1
4901784	6	C	09/03/2015	10:47	-129.153	46.879	0	324.90	0	5.9880	0	33.9330	0	26.715	0	321.954	0	88.5	4	29.2	4	-1E+10	1	-1E+10	1	-1E+10	1	-1E+10	1	-1E+10	1	-1E+10	1
4901784	6	C	09/03/2015	10:47	-129.153	46.879	0	327.50	0	5.9540	0	33.9300	0	26.717	0	324.528	0	87.7	4	28.9	4	-1E+10	1	-1E+10	1	-1E+10	1	-1E+10	1	-1E+10	1	-1E+10	1
4901784	6	C	09/03/2015	10:47	-129.153	46.879	0	330.00	0	5.9450	0	33.9310	0	26.718	0	327.003	0	85.3	4	28.1	4	-1E+10	1	-1E+10	1	-1E+10	1	-1E+10	1	-1E+10	1	-1E+10	1
4901784	6	C	09/03/2015	10:47	-129.153	46.879	0	332.60	0	5.9310	0	33.9350	0	26.723	0	329.578	0	82.9	4	27.3	4	-1E+10	1	-1E+10	1	-1E+10	1	-1E+10	1	-1E+10	1	-1E+10	1
4901784	6	C	09/03/2015	10:47	-129.153	46.879	0	335.20	0	5.9240	0	33.9430	0	26.731	0	332.152	0	80.8	4	26.6	4	-1E+10	1	-1E+10	1	-1E+10	1	-1E+10	1	-1E+10	1	-1E+10	1
4901784	6	C	09/03/2015	10:47	-129.153	46.879	0	337.70	0	5.9280	0	33.9480	0	26.734	0	334.627	0	80.6	4	26.6	4	-1E+10	1	-1E+10	1	-1E+10	1	-1E+10	1	-1E+10	1	-1E+10	1
4901784	6	C	09/03/2015	10:47	-129.153	46.879	0	340.20	0	5.8810	0	33.9440	0	26.737	0	337.103	0	81.2	4	26.8	4	-1E+10	1	-1E+10	1	-1E+10	1	-1E+10	1	-1E+10	1	-1E+10	1
4901784	6	C	09/03/2015	10:47	-129.153	46.879	0	342.80	0	5.8480	0	33.9410	0	26.739	0	339.677	0	81.8	4	26.9	4	-1E+10	1	-1E+10	1	-1E+10	1	-1E+10	1	-1E+10	1	-1E+10	1
4901784	6	C	09/03/2015	10:47	-129.153	46.879	0	345.40	0	5.7790	0	33.9380	0	26.745	0	342.251	0	82.5	4	27.1	4	-1E+10	1	-1E+10	1	-1E+10	1	-1E+10	1	-1E+10	1	-1E+10	1
4901784	6	C	09/03/2015	10:47	-129.153	46.879	0	347.90	0	5.7550	0	33.9350	0	26.745	0	344.726	0	82.3	4	27.0	4	-1E+10	1	-1E+10	1	-1E+10	1	-1E+10	1	-1E+10	1	-1E+10	1
4901784	6	C	09/03/2015	10:47	-129.153	46.879	0	350.30	0	5.7300	0	33.9350	0	26.748	0	347.102	0	81.3	4	26.7	4	-1E+10	1	-1E+10	1	-1E+10	1	-1E+10	1	-1E+10	1	-1E+10	1
4901784	6	C	09/03/2015	10:47	-129.153	46.879	0	352.90	0	5.7490	0	33.9400	0	26.750	0	349.676	0	80.3	4	26.4	4	-1E+10	1	-1E+10	1	-1E+10	1	-1E+10	1	-1E+10	1	-1E+10	1
4901784	6	C	09/03/2015	10:47	-129.153	46.879	0	355.40	0	5.6700	0	33.9360	0	26.756	0	352.151	0	80.8	4	26.5	4	-1E+10	1	-1E+10	1	-1E+10	1	-1E+10	1	-1E+10	1	-1E+10	1
4901784	6	C	09/03/2015	10:47	-129.153	46.879	0	357.90	0	5.5840	0	33.9330	0	26.764	0	354.626	0	80.8	4	26.5	4	-1E+10	1	-1E+10	1	-1E+10	1	-1E+10	1	-1E+10	1	-1E+10	1
4901784	6	C	09/03/2015	10:47	-129.153	46.879	0	359.60	0	5.5770	0	33.9310	0	26.764	0	356.309	0	80.2	4	26.3	4	-1E+10	1	-1E+10	1	-1E+10	1	-1E+10	1	-1E+10	1	-1E+10	1
4901784	6	C	09/03/2015	10:47	-129.153	46.879	0	362.10	0	5.5180	0	33.9310	0	26.771	0	358.784	0	78.7	4	25.7	4	-1E+10	1	-1E+10	1	-1E+10	1	-1E+10	1	-1E+10	1	-1E+10	1
4901784	6	C	09/03/2015	10:47	-129.153	46.879	0	364.60	0	5.5450	0	33.9370	0	26.772	0	361.259	0	75.7	4	24.8	4	-1E+10	1	-1E+10	1	-1E+10	1	-1E+10	1	-1E+10	1	-1E+10	1
4901784	6	C	09/03/2015	10:47	-129.153	46.879	0	367.10	0	5.5590	0	33.9430	0	26.775	0	363.734	0	73.2	4	24.0	4	-1E+10	1	-1E+10	1	-1E+10	1	-1E+10	1	-1E+10	1	-1E+10	1
4901784	6	C	09/03/2015	10:47	-129.153	46.879	0	369.70	0	5.5680	0	33.9520	0	26.782	0	366.308	0	72.5	4	23.7	4	-1E+10	1	-1E+10	1	-1E+10	1	-1E+10	1	-1E+10	1	-1E+10	1
4901784	6	C	09/03/2015	10:47	-129.153	46.879	0	372.20	0	5.4790	0	33.9470	0	26.788	0	368.783	0	72.4	4	23.6	4	-1E+10	1	-1E+10	1	-1E+10	1	-1E+10	1	-1E+10	1	-1E+10	1
4901784	6	C	09/03/2015	10:47	-129.153	46.879	0	374.70	0	5.4520	0	33.9470	0	26.791	0	371.258	0	71.5	4	23.3	4	-1E+10	1	-1E+10	1	-1E+10	1	-1E+10	1	-1E+10	1	-1E+10	1
4901784	6	C	09/03/2015	10:47	-129.153	46.879	0	377.20	0	5.4270	0	33.9480	0	26.795	0	373.732	0	70.1	4	22.8	4	-1E+10	1	-1E+10	1	-1E+10	1	-1E+10	1	-1E+10	1	-1E+10	1
4901784	6	C	09/03/2015	10:47	-129.153	46.879	0	379.70	0	5.4190	0	33.9500	0	26.798	0	376.207	0	68.0	4	22.2	4	-1E+10	1	-1E+10	1	-1E+10	1	-1E+10	1	-1E+10	1	-1E+10	1
4901784	6	C	09/03/2015	10:47	-129.153	46.879	0	382.20	0	5.4360	0	33.9570	0	26.801	0	378.682	0	65.8	4	21.5	4	-1E+10	1	-1E+10	1	-1E+10	1	-1E+10	1	-1E+10	1	-1E+10	1
4901784	6	C	09/03/2015	10:47	-129.153	46.879	0	384.70	0	5.4470	0	33.9650	0	26.806	0	381.156	0	63.9	4	20.8	4	-1E+10	1	-1E+10	1	-1E+10	1	-1E+10	1	-1E+10	1	-1E+10	1
4901784	6	C	09/03/2015	10:47	-129.153	46.879	0	387.30	0	5.4070	0	33.9670	0	26.813	0	383.730	0	63.0	4	20.5	4	-1E+10	1	-1E+10	1	-1E+10	1	-1E+10	1	-1E+10	1	-1E+10	1
4901784	6	C	09/03/2015	10:47	-129.153	46.879	0	389.80	0	5.3740	0	33.9710	0	26.820	0	386.205	0	61.8	4	20.1	4	-1E+10	1	-1E+10	1	-1E+10	1	-1E+10	1	-1E+10	1	-1E+10	1
4901784	6	C	09/03/2015	10:47	-129.153	46.879	0	392.40	0	5.3580	0	33.9730	0	26.823	0	388.778	0	61.0	4	19.9	4	-1E+10	1	-1E+10	1	-1E+10	1	-1E+10	1	-1E+10	1	-1E+10	1
4901784	6	C	09/03/2015	10:47	-129.153	46.879	0	395.00	0	5.3330	0	33.9750	0	26.828	0	391.352	0	60.2	4	19.6	4	-1E+10	1	-1E+10	1	-1E+10	1	-1E+10	1	-1E+10	1	-1E+10	1
4901784	6	C	09/03/2015	10:47	-129.153	46.879	0	397.60	0	5.2960	0	33.9770	0	26.834	0	393.925	0	59.9	4	19.5	4	-1E+10	1	-1E+10	1	-1E+10	1	-1E+10	1	-1E+10	1	-1E+10	1
4901784	6	C	09/03/2015	10:47	-129.153	46.879	0	400.20	0	5.2610	0	33.9760	0	26.837	0	396.499	0	59.5	4	19.3	4	-1E+10	1	-1E+10	1	-1E+10	1	-1E+10	1	-1E+10	1	-1E+10	1
4901784	6	C	09/03/2015	10:47	-129.153	46.879	0	402.80	0	5.2310	0	33.9780	0	26.842	0	399.072	0	58.8	4	19.1	4	-1E+10	1	-1E+10	1	-1E+10	1	-1E+10	1	-1E+10	1	-1E+10	1
4901784	6	C	09/03/2015	10:47	-129.153	46.879	0	405.40	0	5.2200	0	33.9820	0	26.847	0	401.646	0	58.1	4	18.8	4	-1E+10	1	-1E+10	1	-1E+10	1	-1E+10	1	-1E+10	1	-1E+10	1
4901784	6	C	09/03/2015	10:47	-129.153	46.879	0	407.20	0	5.2060	0	33.9830	0	26.849	0	403.427	0	57.9	4	18.8	4	-1E+10	1	-1E+10	1	-1E+10	1	-1E+10	1	-1E+10	1	-1E+10	1
4901784	6	C	09/03/2015	10:47	-129.153	46.879	0	409.90	0	5.1950	0	33.9830	0	26.850	0	406.100	0	57.3	4	18.6	4	-1E+10	1	-1E+10	1	-1E+10	1	-1E+10	1	-1E+10	1	-1E+10	1
4901784	6	C	09/03/2015	10:47	-129.153	46.879	0	412.60	0	5.1820	0	33.9850	0	26.854	0	408.772	0	56.5	4	18.3	4	-1E+10	1	-1E+10	1	-1E+10	1	-1E+10	1	-1E+10	1	-1E+10	1
4901784	6	C	09/03/2015	10:47	-129.153	46.879	0	415.30	0	5.1830	0	33.9860	0	26.854	0	411.444	0	55.8	4	18.1	4	-1E+10	1	-1E+10	1	-1E+10	1	-1E+10	1	-1E+10	1	-1E+10	1
4901784	6	C	09/03/2015	10:47	-129.153	46.879	0	418.00	0	5.1840	0	33.9870	0	26.855	0	414.116	0	54.6	4	17.7	4	-1E+10	1	-1E+10	1	-1E+10	1	-1E+10	1	-1E+10	1	-1E+10	1
4901784	6	C	09/03/2015	10:47	-129.153	46.879	0	419.80	0	5.2120	0	33.9960	0	26.859	0	415.898	0	54.0	4	17.5	4	-1E+10	1	-1E+10	1	-1E+10	1	-1E+10	1	-1E+10	1	-1E+10	1
4901784	6	C	09/03/2015	10:47	-129.153	46.879	0	422.60	0	5.1840	0	33.9940	0	26.861	0	418.669	0	54.5	4	17.7	4	-1E+10	1	-1E+10	1	-1E+10	1	-1E+10	1	-1E+10	1	-1E+10	1
4901784	6	C	09/03/2015	10:47	-129.153	46.879	0	425.80	0	5.1430	0	33.9900	0	26.862	0	421.836	0	54.5	4	17.7	4	-1E+10	1	-1E+10	1	-1E+10	1	-1E+10	1	-1E+10	1	-1E+10	1
4901784	6	C	09/03/2015	10:47	-129.153	46.879	0	427.70	0	5.1410	0	33.9940	0	26.866	0	423.716	0	53.9	4	17.5	4	-1E+10	1	-1E+10	1	-1E+10	1	-1E+10	1	-1E+10	1	-1E+10	1
4901784	6	C	09/03/2015	10:47	-129.153	46.879	0	430.10	0	5.1430	0	33.9950	0	26.866	0	426.092	0	53.5	4	17.3	4	-1E+10	1	-1E+10	1	-1E+10	1	-1E+10	1	-1E+10	1	-1E+10	1
4901784	6	C	09/03/2015	10:47	-129.153	46.879	0	432.50	0	5.1230	0	33.9930	0	26.867	0	428.467	0	53.2	4	17.2	4	-1E+10	1	-1E+10	1	-1E+10	1	-1E+10	1	-1E+10	1	-1E+10	1
4901784	6	C	09/03/2015	10:47	-129.153	46.879	0	434.80	0	5.1170	0	33.9940	0	26.868	0	430.743	0	52.2	4	16.9	4	-1E+10	1	-1E+10	1	-1E+10	1	-1E+10	1	-1E+10	1	-1E+10	1
4901784	6	C	09/03/2015	10:47	-129.153	46.879	0	437.20	0	5.1280	0	34.0000	0	26.872	0	433.118	0	50.9	4	16.5	4	-1E+10	1	-1E+10	1	-1E+10	1	-1E+10	1	-1E+10	1	-1E+10	1
4901784	6	C	09/03/2015	10:47	-129.153	46.879	0	439.60	0	5.0900	0	34.0030	0	26.879	0	435.493	0	50.1	4	16.2	4	-1E+10	1	-1E+10	1	-1E+10	1	-1E+10	1	-1E+10	1	-1E+10	1
4901784	6	C	09/03/2015	10:47	-129.153	46.879	0	442.80	0	5.0740	0	34.0070	0	26.884	0	438.660	0	48.5	4	15.7	4	-1E+10	1	-1E+10	1	-1E+10	1	-1E+10	1	-1E+10	1	-1E+10	1
4901784	6	C	09/03/2015	10:47	-129.153	46.879	0	445.20	0	5.1260	0	34.0140	0	26.883	0	441.035	0	46.9	4	15.2	4	-1E+10	1	-1E+10	1	-1E+10	1	-1E+10	1	-1E+10	1	-1E+10	1
4901784	6	C	09/03/2015	10:47	-129.153	46.879	0	447.70	0	5.1120	0	34.0160	0	26.886	0	443.509	0	46.1	4	14.9	4	-1E+10	1	-1E+10	1	-1E+10	1	-1E+10	1	-1E+10	1	-1E+10	1
4901784	6	C	09/03/2015	10:47	-129.153	46.879	0	450.20	0	5.1110	0	34.0170	0	26.887	0	445.983	0	44.9	4	14.6	4	-1E+10	1	-1E+10	1	-1E+10	1	-1E+10	1	-1E+10	1	-1E+10	1
4901784	6	C	09/03/2015	10:47	-129.153	46.879	0	452.60	0	5.1180	0	34.0240	0	26.892	0	448.358	0	44.2	4	14.3	4	-1E+10	1	-1E+10	1	-1E+10	1	-1E+10	1	-1E+10	1	-1E+10	1
4901784	6	C	09/03/2015	10:47	-129.153	46.879	0	455.10	0	5.1090	0	34.0270	0	26.896	0	450.832	0	43.8	4	14.2	4	-1E+10	1	-1E+10	1	-1E+10	1	-1E+10	1	-1E+10	1	-1E+10	1
4901784	6	C	09/03/2015	10:47	-129.153	46.879	0	457.70	0	5.0840	0	34.0270	0	26.899	0	453.404	0	43.8	4	14.2	4	-1E+10	1	-1E+10	1	-1E+10	1	-1E+10	1	-1E+10	1	-1E+10	1
4901784	6	C	09/03/2015	10:47	-129.153	46.879	0	460.10	0	5.0700	0	34.0260	0	26.899	0	455.779	0	43.5	4	14.1	4	-1E+10	1	-1E+10	1	-1E+10	1	-1E+10	1	-1E+10	1	-1E+10	1
4901784	6	C	09/03/2015	10:47	-129.153	46.879	0	462.60	0	5.0460	0	34.0270	0	26.903	0	458.253	0	42.8	4	13.8	4	-1E+10	1	-1E+10	1	-1E+10	1	-1E+10	1	-1E+10	1	-1E+10	1
4901784	6	C	09/03/2015	10:47	-129.153	46.879	0	465.20	0	5.0460	0	34.0330	0	26.908	0	460.826	0	41.7	4	13.5	4	-1E+10	1	-1E+10	1	-1E+10	1	-1E+10	1	-1E+10	1	-1E+10	1
4901784	6	C	09/03/2015	10:47	-129.153	46.879	0	467.70	0	5.0470	0	34.0360	0	26.910	0	463.299	0	40.9	4	13.2	4	-1E+10	1	-1E+10	1	-1E+10	1	-1E+10	1	-1E+10	1	-1E+10	1
4901784	6	C	09/03/2015	10:47	-129.153	46.879	0	470.30	0	5.0550	0	34.0390	0	26.911	0	465.872	0	40.2	4	13.0	4	-1E+10	1	-1E+10	1	-1E+10	1	-1E+10	1	-1E+10	1	-1E+10	1
4901784	6	C	09/03/2015	10:47	-129.153	46.879	0	472.90	0	5.0460	0	34.0400	0	26.913	0	468.444	0	39.6	4	12.8	4	-1E+10	1	-1E+10	1	-1E+10	1	-1E+10	1	-1E+10	1	-1E+10	1
4901784	6	C	09/03/2015	10:47	-129.153	46.879	0	475.50	0	5.0170	0	34.0420	0	26.918	0	471.017	0	38.7	4	12.5	4	-1E+10	1	-1E+10	1	-1E+10	1	-1E+10	1	-1E+10	1	-1E+10	1
4901784	6	C	09/03/2015	10:47	-129.153	46.879	0	477.20	0	5.0190	0	34.0460	0	26.921	0	472.699	0	37.7	4	12.2	4	-1E+10	1	-1E+10	1	-1E+10	1	-1E+10	1	-1E+10	1	-1E+10	1
4901784	6	C	09/03/2015	10:47	-129.153	46.879	0	479.80	0	5.0420	0	34.0520	0	26.923	0	475.272	0	36.4	4	11.8	4	-1E+10	1	-1E+10	1	-1E+10	1	-1E+10	1	-1E+10	1	-1E+10	1
4901784	6	C	09/03/2015	10:47	-129.153	46.879	0	482.30	0	5.0610	0	34.0550	0	26.924	0	477.745	0	35.5	4	11.5	4	-1E+10	1	-1E+10	1	-1E+10	1	-1E+10	1	-1E+10	1	-1E+10	1
4901784	6	C	09/03/2015	10:47	-129.153	46.879	0	484.90	0	5.0560	0	34.0590	0	26.927	0	480.318	0	34.9	4	11.3	4	-1E+10	1	-1E+10	1	-1E+10	1	-1E+10	1	-1E+10	1	-1E+10	1
4901784	6	C	09/03/2015	10:47	-129.153	46.879	0	487.50	0	5.0480	0	34.0600	0	26.929	0	482.890	0	34.4	4	11.1	4	-1E+10	1	-1E+10	1	-1E+10	1	-1E+10	1	-1E+10	1	-1E+10	1
4901784	6	C	09/03/2015	10:47	-129.153	46.879	0	490.20	0	5.0350	0	34.0650	0	26.935	0	485.561	0	33.7	4	10.9	4	-1E+10	1	-1E+10	1	-1E+10	1	-1E+10	1	-1E+10	1	-1E+10	1
4901784	6	C	09/03/2015	10:47	-129.153	46.879	0	492.80	0	5.0370	0	34.0670	0	26.936	0	488.134	0	33.1	4	10.7	4	-1E+10	1	-1E+10	1	-1E+10	1	-1E+10	1	-1E+10	1	-1E+10	1
4901784	6	C	09/03/2015	10:47	-129.153	46.879	0	494.60	0	5.0350	0	34.0670	0	26.936	0	489.914	0	32.7	4	10.6	4	-1E+10	1	-1E+10	1	-1E+10	1	-1E+10	1	-1E+10	1	-1E+10	1
4901784	6	C	09/03/2015	10:47	-129.153	46.879	0	497.30	0	5.0340	0	34.0720	0	26.940	0	492.586	0	32.2	4	10.4	4	-1E+10	1	-1E+10	1	-1E+10	1	-1E+10	1	-1E+10	1	-1E+10	1
4901784	6	C	09/03/2015	10:47	-129.153	46.879	0	500.00	0	5.0210	0	34.0730	0	26.943	0	495.257	0	32.0	4	10.3	4	-1E+10	1	-1E+10	1	-1E+10	1	-1E+10	1	-1E+10	1	-1E+10	1
4901784	6	C	09/03/2015	10:47	-129.153	46.879	0	505.40	0	4.9940	0	34.0760	0	26.948	0	500.599	0	31.5	4	10.2	4	-1E+10	1	-1E+10	1	-1E+10	1	-1E+10	1	-1E+10	1	-1E+10	1
4901784	6	C	09/03/2015	10:47	-129.153	46.879	0	510.00	0	4.9660	0	34.0780	0	26.953	0	505.150	0	31.1	4	10.0	4	-1E+10	1	-1E+10	1	-1E+10	1	-1E+10	1	-1E+10	1	-1E+10	1
4901784	6	C	09/03/2015	10:47	-129.153	46.879	0	514.60	0	4.9370	0	34.0810	0	26.959	0	509.700	0	30.1	4	9.7	4	-1E+10	1	-1E+10	1	-1E+10	1	-1E+10	1	-1E+10	1	-1E+10	1
4901784	6	C	09/03/2015	10:47	-129.153	46.879	0	520.30	0	4.9290	0	34.0880	0	26.965	0	515.339	0	29.1	4	9.4	4	-1E+10	1	-1E+10	1	-1E+10	1	-1E+10	1	-1E+10	1	-1E+10	1
4901784	6	C	09/03/2015	10:47	-129.153	46.879	0	525.60	0	4.9070	0	34.0910	0	26.970	0	520.582	0	28.3	4	9.1	4	-1E+10	1	-1E+10	1	-1E+10	1	-1E+10	1	-1E+10	1	-1E+10	1
4901784	6	C	09/03/2015	10:47	-129.153	46.879	0	530.50	0	4.8870	0	34.0940	0	26.975	0	525.429	0	27.7	4	8.9	4	-1E+10	1	-1E+10	1	-1E+10	1	-1E+10	1	-1E+10	1	-1E+10	1
4901784	6	C	09/03/2015	10:47	-129.153	46.879	0	535.30	0	4.8630	0	34.0970	0	26.980	0	530.177	0	27.0	4	8.7	4	-1E+10	1	-1E+10	1	-1E+10	1	-1E+10	1	-1E+10	1	-1E+10	1
4901784	6	C	09/03/2015	10:47	-129.153	46.879	0	540.20	0	4.8420	0	34.1020	0	26.986	0	535.024	0	26.2	4	8.4	4	-1E+10	1	-1E+10	1	-1E+10	1	-1E+10	1	-1E+10	1	-1E+10	1
4901784	6	C	09/03/2015	10:47	-129.153	46.879	0	545.10	0	4.8140	0	34.1060	0	26.992	0	539.870	0	25.5	4	8.2	4	-1E+10	1	-1E+10	1	-1E+10	1	-1E+10	1	-1E+10	1	-1E+10	1
4901784	6	C	09/03/2015	10:47	-129.153	46.879	0	550.10	0	4.7900	0	34.1090	0	26.998	0	544.816	0	25.0	4	8.1	4	-1E+10	1	-1E+10	1	-1E+10	1	-1E+10	1	-1E+10	1	-1E+10	1
4901784	6	C	09/03/2015	10:47	-129.153	46.879	0	555.10	0	4.7800	0	34.1110	0	27.000	0	549.761	0	24.7	4	7.9	4	-1E+10	1	-1E+10	1	-1E+10	1	-1E+10	1	-1E+10	1	-1E+10	1
4901784	6	C	09/03/2015	10:47	-129.153	46.879	0	560.10	0	4.7670	0	34.1150	0	27.005	0	554.707	0	24.1	4	7.8	4	-1E+10	1	-1E+10	1	-1E+10	1	-1E+10	1	-1E+10	1	-1E+10	1
4901784	6	C	09/03/2015	10:47	-129.153	46.879	0	565.10	0	4.7540	0	34.1170	0	27.008	0	559.652	0	23.7	4	7.6	4	-1E+10	1	-1E+10	1	-1E+10	1	-1E+10	1	-1E+10	1	-1E+10	1
4901784	6	C	09/03/2015	10:47	-129.153	46.879	0	570.20	0	4.7330	0	34.1200	0	27.013	0	564.696	0	23.0	4	7.4	4	-1E+10	1	-1E+10	1	-1E+10	1	-1E+10	1	-1E+10	1	-1E+10	1
4901784	6	C	09/03/2015	10:47	-129.153	46.879	0	575.40	0	4.7170	0	34.1240	0	27.018	0	569.838	0	22.4	4	7.2	4	-1E+10	1	-1E+10	1	-1E+10	1	-1E+10	1	-1E+10	1	-1E+10	1
4901784	6	C	09/03/2015	10:47	-129.153	46.879	0	580.50	0	4.7000	0	34.1280	0	27.023	0	574.882	0	21.8	4	7.0	4	-1E+10	1	-1E+10	1	-1E+10	1	-1E+10	1	-1E+10	1	-1E+10	1
4901784	6	C	09/03/2015	10:47	-129.153	46.879	0	585.70	0	4.6830	0	34.1330	0	27.029	0	580.024	0	21.2	4	6.8	4	-1E+10	1	-1E+10	1	-1E+10	1	-1E+10	1	-1E+10	1	-1E+10	1
4901784	6	C	09/03/2015	10:47	-129.153	46.879	0	590.10	0	4.6620	0	34.1370	0	27.034	0	584.376	0	20.8	4	6.7	4	-1E+10	1	-1E+10	1	-1E+10	1	-1E+10	1	-1E+10	1	-1E+10	1
4901784	6	C	09/03/2015	10:47	-129.153	46.879	0	594.40	0	4.6480	0	34.1400	0	27.038	0	588.628	0	20.4	4	6.6	4	-1E+10	1	-1E+10	1	-1E+10	1	-1E+10	1	-1E+10	1	-1E+10	1
4901784	6	C	09/03/2015	10:47	-129.153	46.879	0	599.70	0	4.6240	0	34.1430	0	27.043	0	593.869	0	19.9	4	6.4	4	-1E+10	1	-1E+10	1	-1E+10	1	-1E+10	1	-1E+10	1	-1E+10	1
4901784	6	C	09/03/2015	10:47	-129.153	46.879	0	605.00	0	4.6050	0	34.1470	0	27.049	0	599.110	0	19.4	4	6.2	4	-1E+10	1	-1E+10	1	-1E+10	1	-1E+10	1	-1E+10	1	-1E+10	1
4901784	6	C	09/03/2015	10:47	-129.153	46.879	0	610.40	0	4.5910	0	34.1520	0	27.054	0	604.449	0	18.8	4	6.0	4	-1E+10	1	-1E+10	1	-1E+10	1	-1E+10	1	-1E+10	1	-1E+10	1
4901784	6	C	09/03/2015	10:47	-129.153	46.879	0	615.70	0	4.5780	0	34.1560	0	27.059	0	609.690	0	18.2	4	5.8	4	-1E+10	1	-1E+10	1	-1E+10	1	-1E+10	1	-1E+10	1	-1E+10	1
4901784	6	C	09/03/2015	10:47	-129.153	46.879	0	620.10	0	4.5650	0	34.1600	0	27.063	0	614.040	0	17.7	4	5.7	4	-1E+10	1	-1E+10	1	-1E+10	1	-1E+10	1	-1E+10	1	-1E+10	1
4901784	6	C	09/03/2015	10:47	-129.153	46.879	0	624.70	0	4.5480	0	34.1650	0	27.069	0	618.589	0	17.2	4	5.5	4	-1E+10	1	-1E+10	1	-1E+10	1	-1E+10	1	-1E+10	1	-1E+10	1
4901784	6	C	09/03/2015	10:47	-129.153	46.879	0	630.10	0	4.5260	0	34.1710	0	27.076	0	623.928	0	16.7	4	5.3	4	-1E+10	1	-1E+10	1	-1E+10	1	-1E+10	1	-1E+10	1	-1E+10	1
4901784	6	C	09/03/2015	10:47	-129.153	46.879	0	635.40	0	4.5140	0	34.1770	0	27.082	0	629.168	0	16.2	4	5.2	4	-1E+10	1	-1E+10	1	-1E+10	1	-1E+10	1	-1E+10	1	-1E+10	1
4901784	6	C	09/03/2015	10:47	-129.153	46.879	0	639.90	0	4.4980	0	34.1810	0	27.087	0	633.617	0	16.0	4	5.1	4	-1E+10	1	-1E+10	1	-1E+10	1	-1E+10	1	-1E+10	1	-1E+10	1
4901784	6	C	09/03/2015	10:47	-129.153	46.879	0	644.30	0	4.4820	0	34.1830	0	27.091	0	637.967	0	15.8	4	5.0	4	-1E+10	1	-1E+10	1	-1E+10	1	-1E+10	1	-1E+10	1	-1E+10	1
4901784	6	C	09/03/2015	10:47	-129.153	46.879	0	649.80	0	4.4630	0	34.1860	0	27.095	0	643.404	0	15.6	4	5.0	4	-1E+10	1	-1E+10	1	-1E+10	1	-1E+10	1	-1E+10	1	-1E+10	1
4901784	6	C	09/03/2015	10:47	-129.153	46.879	0	655.20	0	4.4280	0	34.1910	0	27.103	0	648.743	0	15.7	4	5.0	4	-1E+10	1	-1E+10	1	-1E+10	1	-1E+10	1	-1E+10	1	-1E+10	1
4901784	6	C	09/03/2015	10:47	-129.153	46.879	0	660.60	0	4.3810	0	34.1890	0	27.106	0	654.081	0	15.4	4	4.9	4	-1E+10	1	-1E+10	1	-1E+10	1	-1E+10	1	-1E+10	1	-1E+10	1
4901784	6	C	09/03/2015	10:47	-129.153	46.879	0	665.00	0	4.3940	0	34.1950	0	27.110	0	658.431	0	15.1	4	4.8	4	-1E+10	1	-1E+10	1	-1E+10	1	-1E+10	1	-1E+10	1	-1E+10	1
4901784	6	C	09/03/2015	10:47	-129.153	46.879	0	669.60	0	4.3850	0	34.2000	0	27.115	0	662.978	0	15.0	4	4.8	4	-1E+10	1	-1E+10	1	-1E+10	1	-1E+10	1	-1E+10	1	-1E+10	1
4901784	6	C	09/03/2015	10:47	-129.153	46.879	0	674.90	0	4.3270	0	34.1960	0	27.118	0	668.217	0	15.4	4	4.9	4	-1E+10	1	-1E+10	1	-1E+10	1	-1E+10	1	-1E+10	1	-1E+10	1
4901784	6	C	09/03/2015	10:47	-129.153	46.879	0	680.20	0	4.3200	0	34.2000	0	27.122	0	673.456	0	15.1	4	4.8	4	-1E+10	1	-1E+10	1	-1E+10	1	-1E+10	1	-1E+10	1	-1E+10	1
4901784	6	C	09/03/2015	10:47	-129.153	46.879	0	685.60	0	4.3110	0	34.2020	0	27.124	0	678.794	0	15.3	4	4.9	4	-1E+10	1	-1E+10	1	-1E+10	1	-1E+10	1	-1E+10	1	-1E+10	1
4901784	6	C	09/03/2015	10:47	-129.153	46.879	0	690.10	0	4.2440	0	34.2010	0	27.131	0	683.242	0	15.7	4	5.0	4	-1E+10	1	-1E+10	1	-1E+10	1	-1E+10	1	-1E+10	1	-1E+10	1
4901784	6	C	09/03/2015	10:47	-129.153	46.879	0	694.50	0	4.1840	0	34.1970	0	27.134	0	687.591	0	16.1	4	5.1	4	-1E+10	1	-1E+10	1	-1E+10	1	-1E+10	1	-1E+10	1	-1E+10	1
4901784	6	C	09/03/2015	10:47	-129.153	46.879	0	699.90	0	4.1530	0	34.1960	0	27.136	0	692.928	0	16.4	4	5.2	4	-1E+10	1	-1E+10	1	-1E+10	1	-1E+10	1	-1E+10	1	-1E+10	1
4901784	6	C	09/03/2015	10:47	-129.153	46.879	0	705.20	0	4.1000	0	34.1940	0	27.140	0	698.166	0	16.7	4	5.3	4	-1E+10	1	-1E+10	1	-1E+10	1	-1E+10	1	-1E+10	1	-1E+10	1
4901784	6	C	09/03/2015	10:47	-129.153	46.879	0	710.60	0	4.0780	0	34.1950	0	27.143	0	703.503	0	16.7	4	5.3	4	-1E+10	1	-1E+10	1	-1E+10	1	-1E+10	1	-1E+10	1	-1E+10	1
4901784	6	C	09/03/2015	10:47	-129.153	46.879	0	715.00	0	4.0680	0	34.1990	0	27.147	0	707.852	0	16.6	4	5.3	4	-1E+10	1	-1E+10	1	-1E+10	1	-1E+10	1	-1E+10	1	-1E+10	1
4901784	6	C	09/03/2015	10:47	-129.153	46.879	0	719.30	0	4.0180	0	34.1970	0	27.151	0	712.102	0	16.8	4	5.3	4	-1E+10	1	-1E+10	1	-1E+10	1	-1E+10	1	-1E+10	1	-1E+10	1
4901784	6	C	09/03/2015	10:47	-129.153	46.879	0	724.70	0	3.9900	0	34.1980	0	27.155	0	717.438	0	16.6	4	5.2	4	-1E+10	1	-1E+10	1	-1E+10	1	-1E+10	1	-1E+10	1	-1E+10	1
4901784	6	C	09/03/2015	10:47	-129.153	46.879	0	730.00	0	3.9880	0	34.2040	0	27.160	0	722.676	0	16.0	4	5.1	4	-1E+10	1	-1E+10	1	-1E+10	1	-1E+10	1	-1E+10	1	-1E+10	1
4901784	6	C	09/03/2015	10:47	-129.153	46.879	0	735.20	0	3.9950	0	34.2100	0	27.164	0	727.815	0	15.4	4	4.9	4	-1E+10	1	-1E+10	1	-1E+10	1	-1E+10	1	-1E+10	1	-1E+10	1
4901784	6	C	09/03/2015	10:47	-129.153	46.879	0	740.50	0	4.0000	0	34.2140	0	27.167	0	733.052	0	15.4	4	4.9	4	-1E+10	1	-1E+10	1	-1E+10	1	-1E+10	1	-1E+10	1	-1E+10	1
4901784	6	C	09/03/2015	10:47	-129.153	46.879	0	745.70	0	3.9590	0	34.2130	0	27.170	0	738.191	0	15.6	4	4.9	4	-1E+10	1	-1E+10	1	-1E+10	1	-1E+10	1	-1E+10	1	-1E+10	1
4901784	6	C	09/03/2015	10:47	-129.153	46.879	0	750.10	0	3.9330	0	34.2150	0	27.174	0	742.539	0	15.4	4	4.9	4	-1E+10	1	-1E+10	1	-1E+10	1	-1E+10	1	-1E+10	1	-1E+10	1
4901784	6	C	09/03/2015	10:47	-129.153	46.879	0	754.60	0	3.9310	0	34.2210	0	27.179	0	746.985	0	15.0	4	4.7	4	-1E+10	1	-1E+10	1	-1E+10	1	-1E+10	1	-1E+10	1	-1E+10	1
4901784	6	C	09/03/2015	10:47	-129.153	46.879	0	759.90	0	3.9290	0	34.2250	0	27.183	0	752.222	0	14.5	4	4.6	4	-1E+10	1	-1E+10	1	-1E+10	1	-1E+10	1	-1E+10	1	-1E+10	1
4901784	6	C	09/03/2015	10:47	-129.153	46.879	0	765.30	0	3.9180	0	34.2310	0	27.189	0	757.558	0	14.2	4	4.5	4	-1E+10	1	-1E+10	1	-1E+10	1	-1E+10	1	-1E+10	1	-1E+10	1
4901784	6	C	09/03/2015	10:47	-129.153	46.879	0	769.80	0	3.9170	0	34.2360	0	27.193	0	762.004	0	13.9	4	4.4	4	-1E+10	1	-1E+10	1	-1E+10	1	-1E+10	1	-1E+10	1	-1E+10	1
4901784	6	C	09/03/2015	10:47	-129.153	46.879	0	774.30	0	3.9120	0	34.2390	0	27.196	0	766.450	0	13.7	4	4.3	4	-1E+10	1	-1E+10	1	-1E+10	1	-1E+10	1	-1E+10	1	-1E+10	1
4901784	6	C	09/03/2015	10:47	-129.153	46.879	0	779.80	0	3.9090	0	34.2420	0	27.198	0	771.884	0	13.8	4	4.3	4	-1E+10	1	-1E+10	1	-1E+10	1	-1E+10	1	-1E+10	1	-1E+10	1
4901784	6	C	09/03/2015	10:47	-129.153	46.879	0	785.20	0	3.8660	0	34.2430	0	27.203	0	777.219	0	13.7	4	4.3	4	-1E+10	1	-1E+10	1	-1E+10	1	-1E+10	1	-1E+10	1	-1E+10	1
4901784	6	C	09/03/2015	10:47	-129.153	46.879	0	790.60	0	3.8670	0	34.2470	0	27.207	0	782.554	0	13.7	4	4.3	4	-1E+10	1	-1E+10	1	-1E+10	1	-1E+10	1	-1E+10	1	-1E+10	1
4901784	6	C	09/03/2015	10:47	-129.153	46.879	0	795.10	0	3.8470	0	34.2480	0	27.209	0	787.000	0	13.8	4	4.4	4	-1E+10	1	-1E+10	1	-1E+10	1	-1E+10	1	-1E+10	1	-1E+10	1
4901784	6	C	09/03/2015	10:47	-129.153	46.879	0	799.60	0	3.8170	0	34.2480	0	27.212	0	791.446	0	13.9	4	4.4	4	-1E+10	1	-1E+10	1	-1E+10	1	-1E+10	1	-1E+10	1	-1E+10	1
4901784	6	C	09/03/2015	10:47	-129.153	46.879	0	805.20	0	3.8100	0	34.2500	0	27.215	0	796.978	0	13.8	4	4.3	4	-1E+10	1	-1E+10	1	-1E+10	1	-1E+10	1	-1E+10	1	-1E+10	1
4901784	6	C	09/03/2015	10:47	-129.153	46.879	0	809.80	0	3.8020	0	34.2530	0	27.218	0	801.522	0	13.7	4	4.3	4	-1E+10	1	-1E+10	1	-1E+10	1	-1E+10	1	-1E+10	1	-1E+10	1
4901784	6	C	09/03/2015	10:47	-129.153	46.879	0	814.50	0	3.7930	0	34.2550	0	27.221	0	806.165	0	13.6	4	4.3	4	-1E+10	1	-1E+10	1	-1E+10	1	-1E+10	1	-1E+10	1	-1E+10	1
4901784	6	C	09/03/2015	10:47	-129.153	46.879	0	819.90	0	3.7670	0	34.2580	0	27.226	0	811.499	0	13.6	4	4.3	4	-1E+10	1	-1E+10	1	-1E+10	1	-1E+10	1	-1E+10	1	-1E+10	1
4901784	6	C	09/03/2015	10:47	-129.153	46.879	0	825.10	0	3.7640	0	34.2620	0	27.229	0	816.636	0	13.5	4	4.2	4	-1E+10	1	-1E+10	1	-1E+10	1	-1E+10	1	-1E+10	1	-1E+10	1
4901784	6	C	09/03/2015	10:47	-129.153	46.879	0	829.30	0	3.7470	0	34.2620	0	27.231	0	820.785	0	13.5	4	4.2	4	-1E+10	1	-1E+10	1	-1E+10	1	-1E+10	1	-1E+10	1	-1E+10	1
4901784	6	C	09/03/2015	10:47	-129.153	46.879	0	834.90	0	3.7340	0	34.2640	0	27.234	0	826.316	0	13.5	4	4.2	4	-1E+10	1	-1E+10	1	-1E+10	1	-1E+10	1	-1E+10	1	-1E+10	1
4901784	6	C	09/03/2015	10:47	-129.153	46.879	0	840.50	0	3.7090	0	34.2670	0	27.239	0	831.847	0	13.4	4	4.2	4	-1E+10	1	-1E+10	1	-1E+10	1	-1E+10	1	-1E+10	1	-1E+10	1
4901784	6	C	09/03/2015	10:47	-129.153	46.879	0	845.40	0	3.6980	0	34.2690	0	27.241	0	836.687	0	13.4	4	4.2	4	-1E+10	1	-1E+10	1	-1E+10	1	-1E+10	1	-1E+10	1	-1E+10	1
4901784	6	C	09/03/2015	10:47	-129.153	46.879	0	850.20	0	3.6780	0	34.2720	0	27.246	0	841.428	0	13.2	4	4.1	4	-1E+10	1	-1E+10	1	-1E+10	1	-1E+10	1	-1E+10	1	-1E+10	1
4901784	6	C	09/03/2015	10:47	-129.153	46.879	0	855.00	0	3.6670	0	34.2770	0	27.251	0	846.169	0	13.0	4	4.1	4	-1E+10	1	-1E+10	1	-1E+10	1	-1E+10	1	-1E+10	1	-1E+10	1
4901784	6	C	09/03/2015	10:47	-129.153	46.879	0	859.90	0	3.6590	0	34.2830	0	27.256	0	851.008	0	12.8	4	4.0	4	-1E+10	1	-1E+10	1	-1E+10	1	-1E+10	1	-1E+10	1	-1E+10	1
4901784	6	C	09/03/2015	10:47	-129.153	46.879	0	864.90	0	3.6520	0	34.2850	0	27.259	0	855.946	0	12.8	4	4.0	4	-1E+10	1	-1E+10	1	-1E+10	1	-1E+10	1	-1E+10	1	-1E+10	1
4901784	6	C	09/03/2015	10:47	-129.153	46.879	0	869.90	0	3.6420	0	34.2870	0	27.261	0	860.884	0	12.7	4	4.0	4	-1E+10	1	-1E+10	1	-1E+10	1	-1E+10	1	-1E+10	1	-1E+10	1
4901784	6	C	09/03/2015	10:47	-129.153	46.879	0	875.00	0	3.6310	0	34.2910	0	27.266	0	865.921	0	12.6	4	3.9	4	-1E+10	1	-1E+10	1	-1E+10	1	-1E+10	1	-1E+10	1	-1E+10	1
4901784	6	C	09/03/2015	10:47	-129.153	46.879	0	880.10	0	3.6260	0	34.2950	0	27.269	0	870.957	0	12.5	4	3.9	4	-1E+10	1	-1E+10	1	-1E+10	1	-1E+10	1	-1E+10	1	-1E+10	1
4901784	6	C	09/03/2015	10:47	-129.153	46.879	0	885.20	0	3.6200	0	34.2980	0	27.272	0	875.994	0	12.4	4	3.9	4	-1E+10	1	-1E+10	1	-1E+10	1	-1E+10	1	-1E+10	1	-1E+10	1
4901784	6	C	09/03/2015	10:47	-129.153	46.879	0	890.30	0	3.6140	0	34.3020	0	27.276	0	881.030	0	12.3	4	3.8	4	-1E+10	1	-1E+10	1	-1E+10	1	-1E+10	1	-1E+10	1	-1E+10	1
4901784	6	C	09/03/2015	10:47	-129.153	46.879	0	895.60	0	3.5990	0	34.3050	0	27.280	0	886.263	0	12.3	4	3.8	4	-1E+10	1	-1E+10	1	-1E+10	1	-1E+10	1	-1E+10	1	-1E+10	1
4901784	6	C	09/03/2015	10:47	-129.153	46.879	0	900.70	0	3.5860	0	34.3060	0	27.282	0	891.299	0	12.3	4	3.8	4	-1E+10	1	-1E+10	1	-1E+10	1	-1E+10	1	-1E+10	1	-1E+10	1
4901784	6	C	09/03/2015	10:47	-129.153	46.879	0	905.10	0	3.5740	0	34.3090	0	27.286	0	895.644	0	12.2	4	3.8	4	-1E+10	1	-1E+10	1	-1E+10	1	-1E+10	1	-1E+10	1	-1E+10	1
4901784	6	C	09/03/2015	10:47	-129.153	46.879	0	909.40	0	3.5650	0	34.3100	0	27.287	0	899.890	0	12.3	4	3.8	4	-1E+10	1	-1E+10	1	-1E+10	1	-1E+10	1	-1E+10	1	-1E+10	1
4901784	6	C	09/03/2015	10:47	-129.153	46.879	0	914.70	0	3.5350	0	34.3100	0	27.290	0	905.123	0	12.3	4	3.9	4	-1E+10	1	-1E+10	1	-1E+10	1	-1E+10	1	-1E+10	1	-1E+10	1
4901784	6	C	09/03/2015	10:47	-129.153	46.879	0	920.00	0	3.5260	0	34.3130	0	27.294	0	910.356	0	12.3	4	3.8	4	-1E+10	1	-1E+10	1	-1E+10	1	-1E+10	1	-1E+10	1	-1E+10	1
4901784	6	C	09/03/2015	10:47	-129.153	46.879	0	925.40	0	3.4880	0	34.3140	0	27.298	0	915.687	0	12.4	4	3.9	4	-1E+10	1	-1E+10	1	-1E+10	1	-1E+10	1	-1E+10	1	-1E+10	1
4901784	6	C	09/03/2015	10:47	-129.153	46.879	0	930.00	0	3.4830	0	34.3170	0	27.301	0	920.229	0	12.3	4	3.8	4	-1E+10	1	-1E+10	1	-1E+10	1	-1E+10	1	-1E+10	1	-1E+10	1
4901784	6	C	09/03/2015	10:47	-129.153	46.879	0	935.40	0	3.4920	0	34.3210	0	27.303	0	925.560	0	12.1	4	3.8	4	-1E+10	1	-1E+10	1	-1E+10	1	-1E+10	1	-1E+10	1	-1E+10	1
4901784	6	C	09/03/2015	10:47	-129.153	46.879	0	940.10	0	3.4910	0	34.3250	0	27.307	0	930.201	0	12.1	4	3.8	4	-1E+10	1	-1E+10	1	-1E+10	1	-1E+10	1	-1E+10	1	-1E+10	1
4901784	6	C	09/03/2015	10:47	-129.153	46.879	0	944.80	0	3.4620	0	34.3240	0	27.309	0	934.841	0	12.2	4	3.8	4	-1E+10	1	-1E+10	1	-1E+10	1	-1E+10	1	-1E+10	1	-1E+10	1
4901784	6	C	09/03/2015	10:47	-129.153	46.879	0	949.60	0	3.4370	0	34.3240	0	27.311	0	939.579	0	12.2	4	3.8	4	-1E+10	1	-1E+10	1	-1E+10	1	-1E+10	1	-1E+10	1	-1E+10	1
4901784	6	C	09/03/2015	10:47	-129.153	46.879	0	954.40	0	3.4280	0	34.3270	0	27.314	0	944.318	0	12.2	4	3.8	4	-1E+10	1	-1E+10	1	-1E+10	1	-1E+10	1	-1E+10	1	-1E+10	1
4901784	6	C	09/03/2015	10:47	-129.153	46.879	0	959.30	0	3.4140	0	34.3290	0	27.317	0	949.155	0	12.1	4	3.8	4	-1E+10	1	-1E+10	1	-1E+10	1	-1E+10	1	-1E+10	1	-1E+10	1
4901784	6	C	09/03/2015	10:47	-129.153	46.879	0	964.20	0	3.4120	0	34.3350	0	27.322	0	953.992	0	12.0	4	3.7	4	-1E+10	1	-1E+10	1	-1E+10	1	-1E+10	1	-1E+10	1	-1E+10	1
4901784	6	C	09/03/2015	10:47	-129.153	46.879	0	969.20	0	3.4140	0	34.3370	0	27.324	0	958.928	0	11.9	4	3.7	4	-1E+10	1	-1E+10	1	-1E+10	1	-1E+10	1	-1E+10	1	-1E+10	1
4901784	6	C	09/03/2015	10:47	-129.153	46.879	0	974.20	0	3.4070	0	34.3390	0	27.326	0	963.863	0	12.0	4	3.7	4	-1E+10	1	-1E+10	1	-1E+10	1	-1E+10	1	-1E+10	1	-1E+10	1
4901784	6	C	09/03/2015	10:47	-129.153	46.879	0	979.30	0	3.3910	0	34.3410	0	27.329	0	968.897	0	12.0	4	3.7	4	-1E+10	1	-1E+10	1	-1E+10	1	-1E+10	1	-1E+10	1	-1E+10	1
4901784	6	C	09/03/2015	10:47	-129.153	46.879	0	984.50	0	3.3760	0	34.3410	0	27.331	0	974.030	0	12.0	4	3.7	4	-1E+10	1	-1E+10	1	-1E+10	1	-1E+10	1	-1E+10	1	-1E+10	1
4901784	6	C	09/03/2015	10:47	-129.153	46.879	0	989.70	0	3.3620	0	34.3440	0	27.334	0	979.162	0	12.0	4	3.7	4	-1E+10	1	-1E+10	1	-1E+10	1	-1E+10	1	-1E+10	1	-1E+10	1
4901784	6	C	09/03/2015	10:47	-129.153	46.879	0	995.00	0	3.3430	0	34.3470	0	27.339	0	984.393	0	12.0	4	3.7	4	-1E+10	1	-1E+10	1	-1E+10	1	-1E+10	1	-1E+10	1	-1E+10	1
4901784	6	C	09/03/2015	10:47	-129.153	46.879	0	1000.30	0	3.3370	0	34.3480	0	27.340	0	989.624	0	12.0	4	3.7	4	-1E+10	1	-1E+10	1	-1E+10	1	-1E+10	1	-1E+10	1	-1E+10	1
4901784	6	C	09/03/2015	10:47	-129.153	46.879	0	1004.90	0	3.3310	0	34.3510	0	27.343	0	994.164	0	12.0	4	3.7	4	-1E+10	1	-1E+10	1	-1E+10	1	-1E+10	1	-1E+10	1	-1E+10	1
4901784	6	C	09/03/2015	10:47	-129.153	46.879	0	1009.40	0	3.3260	0	34.3520	0	27.344	0	998.606	0	12.0	4	3.7	4	-1E+10	1	-1E+10	1	-1E+10	1	-1E+10	1	-1E+10	1	-1E+10	1
4901784	6	C	09/03/2015	10:47	-129.153	46.879	0	1014.90	0	3.3180	0	34.3550	0	27.347	0	1004.034	0	12.0	4	3.7	4	-1E+10	1	-1E+10	1	-1E+10	1	-1E+10	1	-1E+10	1	-1E+10	1
4901784	6	C	09/03/2015	10:47	-129.153	46.879	0	1020.30	0	3.3150	0	34.3590	0	27.351	0	1009.363	0	12.0	4	3.7	4	-1E+10	1	-1E+10	1	-1E+10	1	-1E+10	1	-1E+10	1	-1E+10	1
4901784	6	C	09/03/2015	10:47	-129.153	46.879	0	1025.50	0	3.3100	0	34.3600	0	27.352	0	1014.495	0	12.0	4	3.7	4	-1E+10	1	-1E+10	1	-1E+10	1	-1E+10	1	-1E+10	1	-1E+10	1
4901784	6	C	09/03/2015	10:47	-129.153	46.879	0	1030.30	0	3.2910	0	34.3620	0	27.356	0	1019.231	0	12.0	4	3.7	4	-1E+10	1	-1E+10	1	-1E+10	1	-1E+10	1	-1E+10	1	-1E+10	1
4901784	6	C	09/03/2015	10:47	-129.153	46.879	0	1035.10	0	3.2870	0	34.3640	0	27.358	0	1023.968	0	12.0	4	3.7	4	-1E+10	1	-1E+10	1	-1E+10	1	-1E+10	1	-1E+10	1	-1E+10	1
4901784	6	C	09/03/2015	10:47	-129.153	46.879	0	1040.00	0	3.2860	0	34.3690	0	27.362	0	1028.803	0	12.0	4	3.7	4	-1E+10	1	-1E+10	1	-1E+10	1	-1E+10	1	-1E+10	1	-1E+10	1
4901784	6	C	09/03/2015	10:47	-129.153	46.879	0	1044.90	0	3.2780	0	34.3700	0	27.363	0	1033.639	0	12.0	4	3.7	4	-1E+10	1	-1E+10	1	-1E+10	1	-1E+10	1	-1E+10	1	-1E+10	1
4901784	6	C	09/03/2015	10:47	-129.153	46.879	0	1049.80	0	3.2640	0	34.3710	0	27.365	0	1038.474	0	12.0	4	3.7	4	-1E+10	1	-1E+10	1	-1E+10	1	-1E+10	1	-1E+10	1	-1E+10	1
4901784	6	C	09/03/2015	10:47	-129.153	46.879	0	1054.80	0	3.2530	0	34.3720	0	27.367	0	1043.407	0	12.1	4	3.8	4	-1E+10	1	-1E+10	1	-1E+10	1	-1E+10	1	-1E+10	1	-1E+10	1
4901784	6	C	09/03/2015	10:47	-129.153	46.879	0	1059.80	0	3.2280	0	34.3750	0	27.372	0	1048.341	0	12.1	4	3.8	4	-1E+10	1	-1E+10	1	-1E+10	1	-1E+10	1	-1E+10	1	-1E+10	1
4901784	6	C	09/03/2015	10:47	-129.153	46.879	0	1065.00	0	3.2280	0	34.3770	0	27.374	0	1053.471	0	12.1	4	3.8	4	-1E+10	1	-1E+10	1	-1E+10	1	-1E+10	1	-1E+10	1	-1E+10	1
4901784	6	C	09/03/2015	10:47	-129.153	46.879	0	1070.20	0	3.2200	0	34.3780	0	27.375	0	1058.602	0	12.2	4	3.8	4	-1E+10	1	-1E+10	1	-1E+10	1	-1E+10	1	-1E+10	1	-1E+10	1
4901784	6	C	09/03/2015	10:47	-129.153	46.879	0	1075.40	0	3.2190	0	34.3800	0	27.377	0	1063.733	0	12.2	4	3.8	4	-1E+10	1	-1E+10	1	-1E+10	1	-1E+10	1	-1E+10	1	-1E+10	1
4901784	6	C	09/03/2015	10:47	-129.153	46.879	0	1080.60	0	3.2170	0	34.3820	0	27.379	0	1068.863	0	12.2	4	3.8	4	-1E+10	1	-1E+10	1	-1E+10	1	-1E+10	1	-1E+10	1	-1E+10	1
4901784	6	C	09/03/2015	10:47	-129.153	46.879	0	1085.00	0	3.2130	0	34.3830	0	27.380	0	1073.204	0	12.2	4	3.8	4	-1E+10	1	-1E+10	1	-1E+10	1	-1E+10	1	-1E+10	1	-1E+10	1
4901784	6	C	09/03/2015	10:47	-129.153	46.879	0	1089.40	0	3.2080	0	34.3830	0	27.381	0	1077.545	0	12.3	4	3.8	4	-1E+10	1	-1E+10	1	-1E+10	1	-1E+10	1	-1E+10	1	-1E+10	1
4901784	6	C	09/03/2015	10:47	-129.153	46.879	0	1094.60	0	3.1930	0	34.3860	0	27.384	0	1082.675	0	12.3	4	3.8	4	-1E+10	1	-1E+10	1	-1E+10	1	-1E+10	1	-1E+10	1	-1E+10	1
4901784	6	C	09/03/2015	10:47	-129.153	46.879	0	1099.90	0	3.1810	0	34.3880	0	27.387	0	1087.903	0	12.4	4	3.8	4	-1E+10	1	-1E+10	1	-1E+10	1	-1E+10	1	-1E+10	1	-1E+10	1
4901784	6	C	09/03/2015	10:47	-129.153	46.879	0	1105.60	0	3.1660	0	34.3910	0	27.391	0	1093.526	0	12.5	4	3.9	4	-1E+10	1	-1E+10	1	-1E+10	1	-1E+10	1	-1E+10	1	-1E+10	1
4901784	6	C	09/03/2015	10:47	-129.153	46.879	0	1110.40	0	3.1430	0	34.3920	0	27.394	0	1098.261	0	12.5	4	3.9	4	-1E+10	1	-1E+10	1	-1E+10	1	-1E+10	1	-1E+10	1	-1E+10	1
4901784	6	C	09/03/2015	10:47	-129.153	46.879	0	1115.30	0	3.1200	0	34.3920	0	27.396	0	1103.095	0	12.6	4	3.9	4	-1E+10	1	-1E+10	1	-1E+10	1	-1E+10	1	-1E+10	1	-1E+10	1
4901784	6	C	09/03/2015	10:47	-129.153	46.879	0	1120.00	0	3.1150	0	34.3940	0	27.398	0	1107.731	0	12.6	4	3.9	4	-1E+10	1	-1E+10	1	-1E+10	1	-1E+10	1	-1E+10	1	-1E+10	1
4901784	6	C	09/03/2015	10:47	-129.153	46.879	0	1124.90	0	3.1080	0	34.3970	0	27.401	0	1112.564	0	12.7	4	3.9	4	-1E+10	1	-1E+10	1	-1E+10	1	-1E+10	1	-1E+10	1	-1E+10	1
4901784	6	C	09/03/2015	10:47	-129.153	46.879	0	1129.70	0	3.0920	0	34.3970	0	27.403	0	1117.299	0	12.7	4	3.9	4	-1E+10	1	-1E+10	1	-1E+10	1	-1E+10	1	-1E+10	1	-1E+10	1
4901784	6	C	09/03/2015	10:47	-129.153	46.879	0	1134.50	0	3.0830	0	34.3990	0	27.405	0	1122.034	0	12.8	4	4.0	4	-1E+10	1	-1E+10	1	-1E+10	1	-1E+10	1	-1E+10	1	-1E+10	1
4901784	6	C	09/03/2015	10:47	-129.153	46.879	0	1140.20	0	3.0660	0	34.4000	0	27.407	0	1127.656	0	12.8	4	4.0	4	-1E+10	1	-1E+10	1	-1E+10	1	-1E+10	1	-1E+10	1	-1E+10	1
4901784	6	C	09/03/2015	10:47	-129.153	46.879	0	1145.10	0	3.0540	0	34.4020	0	27.410	0	1132.488	0	12.9	4	4.0	4	-1E+10	1	-1E+10	1	-1E+10	1	-1E+10	1	-1E+10	1	-1E+10	1
4901784	6	C	09/03/2015	10:47	-129.153	46.879	0	1149.80	0	3.0470	0	34.4040	0	27.412	0	1137.124	0	13.0	4	4.0	4	-1E+10	1	-1E+10	1	-1E+10	1	-1E+10	1	-1E+10	1	-1E+10	1
4901784	6	C	09/03/2015	10:47	-129.153	46.879	0	1154.60	0	3.0570	0	34.4070	0	27.414	0	1141.858	0	13.0	4	4.0	4	-1E+10	1	-1E+10	1	-1E+10	1	-1E+10	1	-1E+10	1	-1E+10	1
4901784	6	C	09/03/2015	10:47	-129.153	46.879	0	1159.40	0	3.0570	0	34.4100	0	27.416	0	1146.592	0	13.1	4	4.1	4	-1E+10	1	-1E+10	1	-1E+10	1	-1E+10	1	-1E+10	1	-1E+10	1
4901784	6	C	09/03/2015	10:47	-129.153	46.879	0	1165.20	0	3.0490	0	34.4110	0	27.418	0	1152.312	0	13.2	4	4.1	4	-1E+10	1	-1E+10	1	-1E+10	1	-1E+10	1	-1E+10	1	-1E+10	1
4901784	6	C	09/03/2015	10:47	-129.153	46.879	0	1170.10	0	3.0510	0	34.4130	0	27.419	0	1157.144	0	13.3	4	4.1	4	-1E+10	1	-1E+10	1	-1E+10	1	-1E+10	1	-1E+10	1	-1E+10	1
4901784	6	C	09/03/2015	10:47	-129.153	46.879	0	1174.80	0	3.0500	0	34.4150	0	27.421	0	1161.779	0	13.3	4	4.1	4	-1E+10	1	-1E+10	1	-1E+10	1	-1E+10	1	-1E+10	1	-1E+10	1
4901784	6	C	09/03/2015	10:47	-129.153	46.879	0	1179.60	0	3.0410	0	34.4170	0	27.423	0	1166.513	0	13.4	4	4.2	4	-1E+10	1	-1E+10	1	-1E+10	1	-1E+10	1	-1E+10	1	-1E+10	1
4901784	6	C	09/03/2015	10:47	-129.153	46.879	0	1184.40	0	3.0220	0	34.4180	0	27.426	0	1171.246	0	13.5	4	4.2	4	-1E+10	1	-1E+10	1	-1E+10	1	-1E+10	1	-1E+10	1	-1E+10	1
4901784	6	C	09/03/2015	10:47	-129.153	46.879	0	1190.20	0	3.0090	0	34.4200	0	27.429	0	1176.965	0	13.6	4	4.2	4	-1E+10	1	-1E+10	1	-1E+10	1	-1E+10	1	-1E+10	1	-1E+10	1
4901784	6	C	09/03/2015	10:47	-129.153	46.879	0	1195.00	0	3.0000	0	34.4210	0	27.430	0	1181.699	0	13.7	4	4.2	4	-1E+10	1	-1E+10	1	-1E+10	1	-1E+10	1	-1E+10	1	-1E+10	1
4901784	6	C	09/03/2015	10:47	-129.153	46.879	0	1199.70	0	2.9950	0	34.4220	0	27.432	0	1186.333	0	13.7	4	4.2	4	-1E+10	1	-1E+10	1	-1E+10	1	-1E+10	1	-1E+10	1	-1E+10	1
4901784	6	C	09/03/2015	10:47	-129.153	46.879	0	1205.50	0	2.9860	0	34.4230	0	27.433	0	1192.052	0	13.8	4	4.3	4	-1E+10	1	-1E+10	1	-1E+10	1	-1E+10	1	-1E+10	1	-1E+10	1
4901784	6	C	09/03/2015	10:47	-129.153	46.879	0	1210.30	0	2.9790	0	34.4250	0	27.436	0	1196.785	0	13.9	4	4.3	4	-1E+10	1	-1E+10	1	-1E+10	1	-1E+10	1	-1E+10	1	-1E+10	1
4901784	6	C	09/03/2015	10:47	-129.153	46.879	0	1215.10	0	2.9740	0	34.4260	0	27.437	0	1201.518	0	14.0	4	4.3	4	-1E+10	1	-1E+10	1	-1E+10	1	-1E+10	1	-1E+10	1	-1E+10	1
4901784	6	C	09/03/2015	10:47	-129.153	46.879	0	1219.90	0	2.9620	0	34.4280	0	27.440	0	1206.250	0	14.1	4	4.4	4	-1E+10	1	-1E+10	1	-1E+10	1	-1E+10	1	-1E+10	1	-1E+10	1
4901784	6	C	09/03/2015	10:47	-129.153	46.879	0	1224.60	0	2.9520	0	34.4290	0	27.441	0	1210.884	0	14.2	4	4.4	4	-1E+10	1	-1E+10	1	-1E+10	1	-1E+10	1	-1E+10	1	-1E+10	1
4901784	6	C	09/03/2015	10:47	-129.153	46.879	0	1230.40	0	2.9420	0	34.4310	0	27.444	0	1216.602	0	14.3	4	4.4	4	-1E+10	1	-1E+10	1	-1E+10	1	-1E+10	1	-1E+10	1	-1E+10	1
4901784	6	C	09/03/2015	10:47	-129.153	46.879	0	1235.20	0	2.9340	0	34.4320	0	27.445	0	1221.335	0	14.4	4	4.4	4	-1E+10	1	-1E+10	1	-1E+10	1	-1E+10	1	-1E+10	1	-1E+10	1
4901784	6	C	09/03/2015	10:47	-129.153	46.879	0	1239.80	0	2.9260	0	34.4340	0	27.448	0	1225.870	0	14.5	4	4.5	4	-1E+10	1	-1E+10	1	-1E+10	1	-1E+10	1	-1E+10	1	-1E+10	1
4901784	6	C	09/03/2015	10:47	-129.153	46.879	0	1245.40	0	2.9200	0	34.4340	0	27.448	0	1231.390	0	14.6	4	4.5	4	-1E+10	1	-1E+10	1	-1E+10	1	-1E+10	1	-1E+10	1	-1E+10	1
4901784	6	C	09/03/2015	10:47	-129.153	46.879	0	1250.70	0	2.9090	0	34.4360	0	27.451	0	1236.615	0	14.7	4	4.5	4	-1E+10	1	-1E+10	1	-1E+10	1	-1E+10	1	-1E+10	1	-1E+10	1
4901784	6	C	09/03/2015	10:47	-129.153	46.879	0	1255.10	0	2.9030	0	34.4370	0	27.452	0	1240.953	0	14.8	4	4.6	4	-1E+10	1	-1E+10	1	-1E+10	1	-1E+10	1	-1E+10	1	-1E+10	1
4901784	6	C	09/03/2015	10:47	-129.153	46.879	0	1259.40	0	2.8950	0	34.4380	0	27.454	0	1245.191	0	14.9	4	4.6	4	-1E+10	1	-1E+10	1	-1E+10	1	-1E+10	1	-1E+10	1	-1E+10	1
4901784	6	C	09/03/2015	10:47	-129.153	46.879	0	1264.70	0	2.8860	0	34.4390	0	27.455	0	1250.416	0	15.0	4	4.6	4	-1E+10	1	-1E+10	1	-1E+10	1	-1E+10	1	-1E+10	1	-1E+10	1
4901784	6	C	09/03/2015	10:47	-129.153	46.879	0	1270.00	0	2.8760	0	34.4410	0	27.458	0	1255.640	0	15.2	4	4.7	4	-1E+10	1	-1E+10	1	-1E+10	1	-1E+10	1	-1E+10	1	-1E+10	1
4901784	6	C	09/03/2015	10:47	-129.153	46.879	0	1275.20	0	2.8650	0	34.4420	0	27.460	0	1260.766	0	15.3	4	4.7	4	-1E+10	1	-1E+10	1	-1E+10	1	-1E+10	1	-1E+10	1	-1E+10	1
4901784	6	C	09/03/2015	10:47	-129.153	46.879	0	1280.60	0	2.8490	0	34.4450	0	27.464	0	1266.088	0	15.5	4	4.8	4	-1E+10	1	-1E+10	1	-1E+10	1	-1E+10	1	-1E+10	1	-1E+10	1
4901784	6	C	09/03/2015	10:47	-129.153	46.879	0	1285.00	0	2.8440	0	34.4460	0	27.465	0	1270.425	0	15.7	4	4.8	4	-1E+10	1	-1E+10	1	-1E+10	1	-1E+10	1	-1E+10	1	-1E+10	1
4901784	6	C	09/03/2015	10:47	-129.153	46.879	0	1289.50	0	2.8320	0	34.4470	0	27.467	0	1274.861	0	15.8	4	4.9	4	-1E+10	1	-1E+10	1	-1E+10	1	-1E+10	1	-1E+10	1	-1E+10	1
4901784	6	C	09/03/2015	10:47	-129.153	46.879	0	1295.00	0	2.8240	0	34.4490	0	27.469	0	1280.282	0	15.9	4	4.9	4	-1E+10	1	-1E+10	1	-1E+10	1	-1E+10	1	-1E+10	1	-1E+10	1
4901784	6	C	09/03/2015	10:47	-129.153	46.879	0	1300.40	0	2.8120	0	34.4510	0	27.472	0	1285.604	0	16.1	4	5.0	4	-1E+10	1	-1E+10	1	-1E+10	1	-1E+10	1	-1E+10	1	-1E+10	1
4901784	6	C	09/03/2015	10:47	-129.153	46.879	0	1304.90	0	2.8030	0	34.4520	0	27.473	0	1290.039	0	16.2	4	5.0	4	-1E+10	1	-1E+10	1	-1E+10	1	-1E+10	1	-1E+10	1	-1E+10	1
4901784	6	C	09/03/2015	10:47	-129.153	46.879	0	1309.40	0	2.7970	0	34.4530	0	27.475	0	1294.474	0	16.3	4	5.0	4	-1E+10	1	-1E+10	1	-1E+10	1	-1E+10	1	-1E+10	1	-1E+10	1
4901784	6	C	09/03/2015	10:47	-129.153	46.879	0	1314.80	0	2.7940	0	34.4540	0	27.476	0	1299.795	0	16.4	4	5.0	4	-1E+10	1	-1E+10	1	-1E+10	1	-1E+10	1	-1E+10	1	-1E+10	1
4901784	6	C	09/03/2015	10:47	-129.153	46.879	0	1320.20	0	2.7870	0	34.4550	0	27.477	0	1305.117	0	16.6	4	5.1	4	-1E+10	1	-1E+10	1	-1E+10	1	-1E+10	1	-1E+10	1	-1E+10	1
4901784	6	C	09/03/2015	10:47	-129.153	46.879	0	1325.70	0	2.7780	0	34.4560	0	27.479	0	1310.537	0	16.8	4	5.2	4	-1E+10	1	-1E+10	1	-1E+10	1	-1E+10	1	-1E+10	1	-1E+10	1
4901784	6	C	09/03/2015	10:47	-129.153	46.879	0	1330.20	0	2.7720	0	34.4580	0	27.481	0	1314.972	0	16.9	4	5.2	4	-1E+10	1	-1E+10	1	-1E+10	1	-1E+10	1	-1E+10	1	-1E+10	1
4901784	6	C	09/03/2015	10:47	-129.153	46.879	0	1334.70	0	2.7650	0	34.4580	0	27.482	0	1319.406	0	17.1	4	5.2	4	-1E+10	1	-1E+10	1	-1E+10	1	-1E+10	1	-1E+10	1	-1E+10	1
4901784	6	C	09/03/2015	10:47	-129.153	46.879	0	1340.20	0	2.7530	0	34.4600	0	27.484	0	1324.826	0	17.3	4	5.3	4	-1E+10	1	-1E+10	1	-1E+10	1	-1E+10	1	-1E+10	1	-1E+10	1
4901784	6	C	09/03/2015	10:47	-129.153	46.879	0	1345.30	0	2.7490	0	34.4610	0	27.485	0	1329.851	0	17.4	4	5.3	4	-1E+10	1	-1E+10	1	-1E+10	1	-1E+10	1	-1E+10	1	-1E+10	1
4901784	6	C	09/03/2015	10:47	-129.153	46.879	0	1349.50	0	2.7430	0	34.4620	0	27.487	0	1333.990	0	17.6	4	5.4	4	-1E+10	1	-1E+10	1	-1E+10	1	-1E+10	1	-1E+10	1	-1E+10	1
4901784	6	C	09/03/2015	10:47	-129.153	46.879	0	1355.10	0	2.7310	0	34.4640	0	27.489	0	1339.507	0	17.8	4	5.5	4	-1E+10	1	-1E+10	1	-1E+10	1	-1E+10	1	-1E+10	1	-1E+10	1
4901784	6	C	09/03/2015	10:47	-129.153	46.879	0	1360.70	0	2.7220	0	34.4660	0	27.492	0	1345.025	0	18.0	4	5.5	4	-1E+10	1	-1E+10	1	-1E+10	1	-1E+10	1	-1E+10	1	-1E+10	1
4901784	6	C	09/03/2015	10:47	-129.153	46.879	0	1365.50	0	2.7120	0	34.4670	0	27.494	0	1349.755	0	18.3	4	5.6	4	-1E+10	1	-1E+10	1	-1E+10	1	-1E+10	1	-1E+10	1	-1E+10	1
4901784	6	C	09/03/2015	10:47	-129.153	46.879	0	1370.50	0	2.7020	0	34.4690	0	27.496	0	1354.681	0	18.4	4	5.6	4	-1E+10	1	-1E+10	1	-1E+10	1	-1E+10	1	-1E+10	1	-1E+10	1
4901784	6	C	09/03/2015	10:47	-129.153	46.879	0	1375.30	0	2.6960	0	34.4690	0	27.497	0	1359.410	0	18.5	4	5.7	4	-1E+10	1	-1E+10	1	-1E+10	1	-1E+10	1	-1E+10	1	-1E+10	1
4901784	6	C	09/03/2015	10:47	-129.153	46.879	0	1380.20	0	2.6850	0	34.4710	0	27.499	0	1364.238	0	18.7	4	5.7	4	-1E+10	1	-1E+10	1	-1E+10	1	-1E+10	1	-1E+10	1	-1E+10	1
4901784	6	C	09/03/2015	10:47	-129.153	46.879	0	1385.10	0	2.6770	0	34.4720	0	27.501	0	1369.065	0	18.9	4	5.8	4	-1E+10	1	-1E+10	1	-1E+10	1	-1E+10	1	-1E+10	1	-1E+10	1
4901784	6	C	09/03/2015	10:47	-129.153	46.879	0	1390.10	0	2.6710	0	34.4730	0	27.502	0	1373.991	0	19.1	4	5.9	4	-1E+10	1	-1E+10	1	-1E+10	1	-1E+10	1	-1E+10	1	-1E+10	1
4901784	6	C	09/03/2015	10:47	-129.153	46.879	0	1395.00	0	2.6630	0	34.4740	0	27.504	0	1378.818	0	19.4	4	5.9	4	-1E+10	1	-1E+10	1	-1E+10	1	-1E+10	1	-1E+10	1	-1E+10	1
4901784	6	C	09/03/2015	10:47	-129.153	46.879	0	1400.00	0	2.6490	0	34.4760	0	27.506	0	1383.744	0	19.7	4	6.0	4	-1E+10	1	-1E+10	1	-1E+10	1	-1E+10	1	-1E+10	1	-1E+10	1
4901784	6	C	09/03/2015	10:47	-129.153	46.879	0	1405.00	0	2.6410	0	34.4770	0	27.508	0	1388.669	0	20.0	4	6.1	4	-1E+10	1	-1E+10	1	-1E+10	1	-1E+10	1	-1E+10	1	-1E+10	1
4901784	6	C	09/03/2015	10:47	-129.153	46.879	0	1410.00	0	2.6290	0	34.4790	0	27.511	0	1393.595	0	20.4	4	6.2	4	-1E+10	1	-1E+10	1	-1E+10	1	-1E+10	1	-1E+10	1	-1E+10	1
4901784	6	C	09/03/2015	10:47	-129.153	46.879	0	1415.10	0	2.6140	0	34.4820	0	27.514	0	1398.618	0	20.9	4	6.4	4	-1E+10	1	-1E+10	1	-1E+10	1	-1E+10	1	-1E+10	1	-1E+10	1
4901784	6	C	09/03/2015	10:47	-129.153	46.879	0	1420.10	0	2.5990	0	34.4850	0	27.518	0	1403.543	0	21.3	4	6.5	4	-1E+10	1	-1E+10	1	-1E+10	1	-1E+10	1	-1E+10	1	-1E+10	1
4901784	6	C	09/03/2015	10:47	-129.153	46.879	0	1425.20	0	2.5900	0	34.4860	0	27.520	0	1408.567	0	21.7	4	6.6	4	-1E+10	1	-1E+10	1	-1E+10	1	-1E+10	1	-1E+10	1	-1E+10	1
4901784	6	C	09/03/2015	10:47	-129.153	46.879	0	1430.30	0	2.5790	0	34.4880	0	27.522	0	1413.590	0	22.1	4	6.8	4	-1E+10	1	-1E+10	1	-1E+10	1	-1E+10	1	-1E+10	1	-1E+10	1
4901784	6	C	09/03/2015	10:47	-129.153	46.879	0	1435.40	0	2.5740	0	34.4910	0	27.525	0	1418.614	0	22.5	4	6.9	4	-1E+10	1	-1E+10	1	-1E+10	1	-1E+10	1	-1E+10	1	-1E+10	1
4901784	6	C	09/03/2015	10:47	-129.153	46.879	0	1440.50	0	2.5700	0	34.4910	0	27.525	0	1423.637	0	22.8	4	7.0	4	-1E+10	1	-1E+10	1	-1E+10	1	-1E+10	1	-1E+10	1	-1E+10	1
4901784	6	C	09/03/2015	10:47	-129.153	46.879	0	1445.60	0	2.5590	0	34.4930	0	27.528	0	1428.660	0	23.1	4	7.1	4	-1E+10	1	-1E+10	1	-1E+10	1	-1E+10	1	-1E+10	1	-1E+10	1
4901784	6	C	09/03/2015	10:47	-129.153	46.879	0	1450.70	0	2.5550	0	34.4950	0	27.530	0	1433.683	0	23.4	4	7.1	4	-1E+10	1	-1E+10	1	-1E+10	1	-1E+10	1	-1E+10	1	-1E+10	1
4901784	6	C	09/03/2015	10:47	-129.153	46.879	0	1455.00	0	2.5500	0	34.4950	0	27.530	0	1437.918	0	23.4	4	7.2	4	-1E+10	1	-1E+10	1	-1E+10	1	-1E+10	1	-1E+10	1	-1E+10	1
4901784	6	C	09/03/2015	10:47	-129.153	46.879	0	1459.40	0	2.5300	0	34.4960	0	27.533	0	1442.251	0	23.6	4	7.2	4	-1E+10	1	-1E+10	1	-1E+10	1	-1E+10	1	-1E+10	1	-1E+10	1
4901784	6	C	09/03/2015	10:47	-129.153	46.879	0	1464.50	0	2.5210	0	34.4970	0	27.534	0	1447.274	0	24.0	4	7.3	4	-1E+10	1	-1E+10	1	-1E+10	1	-1E+10	1	-1E+10	1	-1E+10	1
4901784	6	C	09/03/2015	10:47	-129.153	46.879	0	1469.70	0	2.5140	0	34.4980	0	27.536	0	1452.395	0	24.4	4	7.5	4	-1E+10	1	-1E+10	1	-1E+10	1	-1E+10	1	-1E+10	1	-1E+10	1
4901784	6	C	09/03/2015	10:47	-129.153	46.879	0	1475.00	0	2.4980	0	34.5010	0	27.540	0	1457.614	0	24.8	4	7.6	4	-1E+10	1	-1E+10	1	-1E+10	1	-1E+10	1	-1E+10	1	-1E+10	1
4901784	6	C	09/03/2015	10:47	-129.153	46.879	0	1480.20	0	2.4930	0	34.5020	0	27.541	0	1462.735	0	25.1	4	7.7	4	-1E+10	1	-1E+10	1	-1E+10	1	-1E+10	1	-1E+10	1	-1E+10	1
4901784	6	C	09/03/2015	10:47	-129.153	46.879	0	1485.60	0	2.4830	0	34.5030	0	27.542	0	1468.052	0	25.4	4	7.8	4	-1E+10	1	-1E+10	1	-1E+10	1	-1E+10	1	-1E+10	1	-1E+10	1
4901784	6	C	09/03/2015	10:47	-129.153	46.879	0	1490.00	0	2.4740	0	34.5040	0	27.544	0	1472.385	0	25.7	4	7.8	4	-1E+10	1	-1E+10	1	-1E+10	1	-1E+10	1	-1E+10	1	-1E+10	1
4901784	6	C	09/03/2015	10:47	-129.153	46.879	0	1494.40	0	2.4670	0	34.5050	0	27.545	0	1476.718	0	26.0	4	7.9	4	-1E+10	1	-1E+10	1	-1E+10	1	-1E+10	1	-1E+10	1	-1E+10	1
4901784	6	C	09/03/2015	10:47	-129.153	46.879	0	1499.80	0	2.4610	0	34.5070	0	27.548	0	1482.035	0	26.3	4	8.0	4	-1E+10	1	-1E+10	1	-1E+10	1	-1E+10	1	-1E+10	1	-1E+10	1
4901784	6	C	09/03/2015	10:47	-129.153	46.879	0	1505.20	0	2.4540	0	34.5080	0	27.549	0	1487.352	0	26.6	4	8.1	4	-1E+10	1	-1E+10	1	-1E+10	1	-1E+10	1	-1E+10	1	-1E+10	1
4901784	6	C	09/03/2015	10:47	-129.153	46.879	0	1509.70	0	2.4450	0	34.5090	0	27.551	0	1491.783	0	26.8	4	8.2	4	-1E+10	1	-1E+10	1	-1E+10	1	-1E+10	1	-1E+10	1	-1E+10	1
4901784	6	C	09/03/2015	10:47	-129.153	46.879	0	1514.90	0	2.4360	0	34.5100	0	27.552	0	1496.902	0	27.2	4	8.3	4	-1E+10	1	-1E+10	1	-1E+10	1	-1E+10	1	-1E+10	1	-1E+10	1
4901784	6	C	09/03/2015	10:47	-129.153	46.879	0	1520.50	0	2.4260	0	34.5110	0	27.554	0	1502.416	0	27.6	4	8.4	4	-1E+10	1	-1E+10	1	-1E+10	1	-1E+10	1	-1E+10	1	-1E+10	1
4901784	6	C	09/03/2015	10:47	-129.153	46.879	0	1525.30	0	2.4180	0	34.5120	0	27.555	0	1507.142	0	28.0	4	8.5	4	-1E+10	1	-1E+10	1	-1E+10	1	-1E+10	1	-1E+10	1	-1E+10	1
4901784	6	C	09/03/2015	10:47	-129.153	46.879	0	1530.20	0	2.4130	0	34.5140	0	27.557	0	1511.966	0	28.6	4	8.7	4	-1E+10	1	-1E+10	1	-1E+10	1	-1E+10	1	-1E+10	1	-1E+10	1
4901784	6	C	09/03/2015	10:47	-129.153	46.879	0	1535.10	0	2.4130	0	34.5160	0	27.559	0	1516.790	0	29.1	4	8.9	4	-1E+10	1	-1E+10	1	-1E+10	1	-1E+10	1	-1E+10	1	-1E+10	1
4901784	6	C	09/03/2015	10:47	-129.153	46.879	0	1540.00	0	2.4040	0	34.5170	0	27.561	0	1521.614	0	29.4	4	9.0	4	-1E+10	1	-1E+10	1	-1E+10	1	-1E+10	1	-1E+10	1	-1E+10	1
4901784	6	C	09/03/2015	10:47	-129.153	46.879	0	1545.00	0	2.4010	0	34.5190	0	27.562	0	1526.536	0	29.9	4	9.1	4	-1E+10	1	-1E+10	1	-1E+10	1	-1E+10	1	-1E+10	1	-1E+10	1
4901784	6	C	09/03/2015	10:47	-129.153	46.879	0	1550.00	0	2.3940	0	34.5200	0	27.564	0	1531.458	0	30.1	4	9.2	4	-1E+10	1	-1E+10	1	-1E+10	1	-1E+10	1	-1E+10	1	-1E+10	1
4901784	6	C	09/03/2015	10:47	-129.153	46.879	0	1555.00	0	2.3790	0	34.5200	0	27.565	0	1536.380	0	30.1	4	9.2	4	-1E+10	1	-1E+10	1	-1E+10	1	-1E+10	1	-1E+10	1	-1E+10	1
4901784	6	C	09/03/2015	10:47	-129.153	46.879	0	1560.10	0	2.3660	0	34.5210	0	27.567	0	1541.401	0	30.3	4	9.2	4	-1E+10	1	-1E+10	1	-1E+10	1	-1E+10	1	-1E+10	1	-1E+10	1
4901784	6	C	09/03/2015	10:47	-129.153	46.879	0	1565.10	0	2.3580	0	34.5210	0	27.568	0	1546.323	0	30.4	4	9.3	4	-1E+10	1	-1E+10	1	-1E+10	1	-1E+10	1	-1E+10	1	-1E+10	1
4901784	6	C	09/03/2015	10:47	-129.153	46.879	0	1570.20	0	2.3510	0	34.5220	0	27.569	0	1551.343	0	30.8	4	9.4	4	-1E+10	1	-1E+10	1	-1E+10	1	-1E+10	1	-1E+10	1	-1E+10	1
4901784	6	C	09/03/2015	10:47	-129.153	46.879	0	1575.40	0	2.3500	0	34.5230	0	27.570	0	1556.461	0	31.2	4	9.5	4	-1E+10	1	-1E+10	1	-1E+10	1	-1E+10	1	-1E+10	1	-1E+10	1
4901784	6	C	09/03/2015	10:47	-129.153	46.879	0	1580.60	0	2.3350	0	34.5240	0	27.572	0	1561.579	0	31.5	4	9.6	4	-1E+10	1	-1E+10	1	-1E+10	1	-1E+10	1	-1E+10	1	-1E+10	1
4901784	6	C	09/03/2015	10:47	-129.153	46.879	0	1585.00	0	2.3260	0	34.5250	0	27.574	0	1565.910	0	32.0	4	9.7	4	-1E+10	1	-1E+10	1	-1E+10	1	-1E+10	1	-1E+10	1	-1E+10	1
4901784	6	C	09/03/2015	10:47	-129.153	46.879	0	1589.40	0	2.3160	0	34.5270	0	27.576	0	1570.241	0	32.5	4	9.9	4	-1E+10	1	-1E+10	1	-1E+10	1	-1E+10	1	-1E+10	1	-1E+10	1
4901784	6	C	09/03/2015	10:47	-129.153	46.879	0	1594.70	0	2.3130	0	34.5280	0	27.577	0	1575.457	0	33.0	4	10.0	4	-1E+10	1	-1E+10	1	-1E+10	1	-1E+10	1	-1E+10	1	-1E+10	1
4901784	6	C	09/03/2015	10:47	-129.153	46.879	0	1600.00	0	2.3140	0	34.5310	0	27.579	0	1580.674	0	33.6	4	10.2	4	-1E+10	1	-1E+10	1	-1E+10	1	-1E+10	1	-1E+10	1	-1E+10	1
4901784	6	C	09/03/2015	10:47	-129.153	46.879	0	1605.40	0	2.3150	0	34.5320	0	27.580	0	1585.988	0	33.9	4	10.3	4	-1E+10	1	-1E+10	1	-1E+10	1	-1E+10	1	-1E+10	1	-1E+10	1
4901784	6	C	09/03/2015	10:47	-129.153	46.879	0	1610.40	0	2.3110	0	34.5320	0	27.581	0	1590.909	0	34.2	4	10.4	4	-1E+10	1	-1E+10	1	-1E+10	1	-1E+10	1	-1E+10	1	-1E+10	1
4901784	6	C	09/03/2015	10:47	-129.153	46.879	0	1614.60	0	2.2990	0	34.5340	0	27.583	0	1595.042	0	34.4	4	10.5	4	-1E+10	1	-1E+10	1	-1E+10	1	-1E+10	1	-1E+10	1	-1E+10	1
4901784	6	C	09/03/2015	10:47	-129.153	46.879	0	1620.10	0	2.2960	0	34.5350	0	27.584	0	1600.455	0	34.7	4	10.5	4	-1E+10	1	-1E+10	1	-1E+10	1	-1E+10	1	-1E+10	1	-1E+10	1
4901784	6	C	09/03/2015	10:47	-129.153	46.879	0	1625.60	0	2.2890	0	34.5360	0	27.586	0	1605.867	0	35.1	4	10.6	4	-1E+10	1	-1E+10	1	-1E+10	1	-1E+10	1	-1E+10	1	-1E+10	1
4901784	6	C	09/03/2015	10:47	-129.153	46.879	0	1630.50	0	2.2830	0	34.5370	0	27.587	0	1610.689	0	35.3	4	10.7	4	-1E+10	1	-1E+10	1	-1E+10	1	-1E+10	1	-1E+10	1	-1E+10	1
4901784	6	C	09/03/2015	10:47	-129.153	46.879	0	1635.40	0	2.2800	0	34.5370	0	27.587	0	1615.511	0	35.5	4	10.8	4	-1E+10	1	-1E+10	1	-1E+10	1	-1E+10	1	-1E+10	1	-1E+10	1
4901784	6	C	09/03/2015	10:47	-129.153	46.879	0	1640.30	0	2.2750	0	34.5380	0	27.588	0	1620.333	0	35.7	4	10.8	4	-1E+10	1	-1E+10	1	-1E+10	1	-1E+10	1	-1E+10	1	-1E+10	1
4901784	6	C	09/03/2015	10:47	-129.153	46.879	0	1645.30	0	2.2690	0	34.5380	0	27.589	0	1625.253	0	35.8	4	10.9	4	-1E+10	1	-1E+10	1	-1E+10	1	-1E+10	1	-1E+10	1	-1E+10	1
4901784	6	C	09/03/2015	10:47	-129.153	46.879	0	1650.40	0	2.2530	0	34.5380	0	27.590	0	1630.271	0	35.8	4	10.9	4	-1E+10	1	-1E+10	1	-1E+10	1	-1E+10	1	-1E+10	1	-1E+10	1
4901784	6	C	09/03/2015	10:47	-129.153	46.879	0	1655.50	0	2.2500	0	34.5390	0	27.591	0	1635.289	0	36.1	4	11.0	4	-1E+10	1	-1E+10	1	-1E+10	1	-1E+10	1	-1E+10	1	-1E+10	1
4901784	6	C	09/03/2015	10:47	-129.153	46.879	0	1660.70	0	2.2410	0	34.5400	0	27.593	0	1640.405	0	36.4	4	11.0	4	-1E+10	1	-1E+10	1	-1E+10	1	-1E+10	1	-1E+10	1	-1E+10	1
4901784	6	C	09/03/2015	10:47	-129.153	46.879	0	1665.00	0	2.2330	0	34.5400	0	27.594	0	1644.636	0	36.6	4	11.1	4	-1E+10	1	-1E+10	1	-1E+10	1	-1E+10	1	-1E+10	1	-1E+10	1
4901784	6	C	09/03/2015	10:47	-129.153	46.879	0	1669.30	0	2.2230	0	34.5410	0	27.595	0	1648.867	0	37.0	4	11.2	4	-1E+10	1	-1E+10	1	-1E+10	1	-1E+10	1	-1E+10	1	-1E+10	1
4901784	6	C	09/03/2015	10:47	-129.153	46.879	0	1674.50	0	2.2160	0	34.5420	0	27.597	0	1653.983	0	37.2	4	11.3	4	-1E+10	1	-1E+10	1	-1E+10	1	-1E+10	1	-1E+10	1	-1E+10	1
4901784	6	C	09/03/2015	10:47	-129.153	46.879	0	1679.60	0	2.2150	0	34.5420	0	27.597	0	1659.001	0	37.4	4	11.3	4	-1E+10	1	-1E+10	1	-1E+10	1	-1E+10	1	-1E+10	1	-1E+10	1
4901784	6	C	09/03/2015	10:47	-129.153	46.879	0	1684.80	0	2.2110	0	34.5430	0	27.598	0	1664.117	0	37.7	4	11.4	4	-1E+10	1	-1E+10	1	-1E+10	1	-1E+10	1	-1E+10	1	-1E+10	1
4901784	6	C	09/03/2015	10:47	-129.153	46.879	0	1690.10	0	2.2040	0	34.5440	0	27.599	0	1669.331	0	38.0	4	11.5	4	-1E+10	1	-1E+10	1	-1E+10	1	-1E+10	1	-1E+10	1	-1E+10	1
4901784	6	C	09/03/2015	10:47	-129.153	46.879	0	1695.40	0	2.1980	0	34.5450	0	27.600	0	1674.545	0	38.3	4	11.6	4	-1E+10	1	-1E+10	1	-1E+10	1	-1E+10	1	-1E+10	1	-1E+10	1
4901784	6	C	09/03/2015	10:47	-129.153	46.879	0	1700.70	0	2.1940	0	34.5450	0	27.601	0	1679.758	0	38.6	4	11.7	4	-1E+10	1	-1E+10	1	-1E+10	1	-1E+10	1	-1E+10	1	-1E+10	1
4901784	6	C	09/03/2015	10:47	-129.153	46.879	0	1705.20	0	2.1900	0	34.5460	0	27.602	0	1684.185	0	38.9	4	11.8	4	-1E+10	1	-1E+10	1	-1E+10	1	-1E+10	1	-1E+10	1	-1E+10	1
4901784	6	C	09/03/2015	10:47	-129.153	46.879	0	1709.60	0	2.1820	0	34.5460	0	27.603	0	1688.513	0	39.3	4	11.9	4	-1E+10	1	-1E+10	1	-1E+10	1	-1E+10	1	-1E+10	1	-1E+10	1
4901784	6	C	09/03/2015	10:47	-129.153	46.879	0	1714.90	0	2.1740	0	34.5480	0	27.605	0	1693.727	0	39.8	4	12.0	4	-1E+10	1	-1E+10	1	-1E+10	1	-1E+10	1	-1E+10	1	-1E+10	1
4901784	6	C	09/03/2015	10:47	-129.153	46.879	0	1720.30	0	2.1630	0	34.5490	0	27.607	0	1699.039	0	40.3	4	12.2	4	-1E+10	1	-1E+10	1	-1E+10	1	-1E+10	1	-1E+10	1	-1E+10	1
4901784	6	C	09/03/2015	10:47	-129.153	46.879	0	1725.70	0	2.1560	0	34.5510	0	27.609	0	1704.350	0	40.6	4	12.3	4	-1E+10	1	-1E+10	1	-1E+10	1	-1E+10	1	-1E+10	1	-1E+10	1
4901784	6	C	09/03/2015	10:47	-129.153	46.879	0	1730.20	0	2.1530	0	34.5510	0	27.609	0	1708.776	0	40.8	4	12.3	4	-1E+10	1	-1E+10	1	-1E+10	1	-1E+10	1	-1E+10	1	-1E+10	1
4901784	6	C	09/03/2015	10:47	-129.153	46.879	0	1734.70	0	2.1490	0	34.5520	0	27.610	0	1713.202	0	41.0	4	12.4	4	-1E+10	1	-1E+10	1	-1E+10	1	-1E+10	1	-1E+10	1	-1E+10	1
4901784	6	C	09/03/2015	10:47	-129.153	46.879	0	1740.20	0	2.1470	0	34.5520	0	27.610	0	1718.612	0	41.1	4	12.4	4	-1E+10	1	-1E+10	1	-1E+10	1	-1E+10	1	-1E+10	1	-1E+10	1
4901784	6	C	09/03/2015	10:47	-129.153	46.879	0	1745.20	0	2.1450	0	34.5530	0	27.611	0	1723.530	0	41.2	4	12.5	4	-1E+10	1	-1E+10	1	-1E+10	1	-1E+10	1	-1E+10	1	-1E+10	1
4901784	6	C	09/03/2015	10:47	-129.153	46.879	0	1749.50	0	2.1440	0	34.5530	0	27.611	0	1727.759	0	41.4	4	12.5	4	-1E+10	1	-1E+10	1	-1E+10	1	-1E+10	1	-1E+10	1	-1E+10	1
4901784	6	C	09/03/2015	10:47	-129.153	46.879	0	1755.00	0	2.1400	0	34.5540	0	27.613	0	1733.168	0	41.7	4	12.6	4	-1E+10	1	-1E+10	1	-1E+10	1	-1E+10	1	-1E+10	1	-1E+10	1
4901784	6	C	09/03/2015	10:47	-129.153	46.879	0	1760.60	0	2.1360	0	34.5540	0	27.613	0	1738.675	0	41.9	4	12.7	4	-1E+10	1	-1E+10	1	-1E+10	1	-1E+10	1	-1E+10	1	-1E+10	1
4901784	6	C	09/03/2015	10:47	-129.153	46.879	0	1765.50	0	2.1320	0	34.5550	0	27.614	0	1743.494	0	42.2	4	12.8	4	-1E+10	1	-1E+10	1	-1E+10	1	-1E+10	1	-1E+10	1	-1E+10	1
4901784	6	C	09/03/2015	10:47	-129.153	46.879	0	1770.30	0	2.1280	0	34.5550	0	27.614	0	1748.215	0	42.5	4	12.8	4	-1E+10	1	-1E+10	1	-1E+10	1	-1E+10	1	-1E+10	1	-1E+10	1
4901784	6	C	09/03/2015	10:47	-129.153	46.879	0	1775.30	0	2.1230	0	34.5560	0	27.616	0	1753.132	0	42.7	4	12.9	4	-1E+10	1	-1E+10	1	-1E+10	1	-1E+10	1	-1E+10	1	-1E+10	1
4901784	6	C	09/03/2015	10:47	-129.153	46.879	0	1780.20	0	2.1200	0	34.5570	0	27.617	0	1757.950	0	43.1	4	13.0	4	-1E+10	1	-1E+10	1	-1E+10	1	-1E+10	1	-1E+10	1	-1E+10	1
4901784	6	C	09/03/2015	10:47	-129.153	46.879	0	1785.20	0	2.1130	0	34.5580	0	27.618	0	1762.867	0	43.5	4	13.1	4	-1E+10	1	-1E+10	1	-1E+10	1	-1E+10	1	-1E+10	1	-1E+10	1
4901784	6	C	09/03/2015	10:47	-129.153	46.879	0	1790.10	0	2.1050	0	34.5590	0	27.620	0	1767.685	0	43.9	4	13.3	4	-1E+10	1	-1E+10	1	-1E+10	1	-1E+10	1	-1E+10	1	-1E+10	1
4901784	6	C	09/03/2015	10:47	-129.153	46.879	0	1795.10	0	2.1000	0	34.5600	0	27.621	0	1772.602	0	44.2	4	13.4	4	-1E+10	1	-1E+10	1	-1E+10	1	-1E+10	1	-1E+10	1	-1E+10	1
4901784	6	C	09/03/2015	10:47	-129.153	46.879	0	1800.20	0	2.0930	0	34.5610	0	27.622	0	1777.617	0	44.6	4	13.5	4	-1E+10	1	-1E+10	1	-1E+10	1	-1E+10	1	-1E+10	1	-1E+10	1
4901784	6	C	09/03/2015	10:47	-129.153	46.879	0	1805.20	0	2.0900	0	34.5610	0	27.622	0	1782.533	0	44.8	4	13.5	4	-1E+10	1	-1E+10	1	-1E+10	1	-1E+10	1	-1E+10	1	-1E+10	1
4901784	6	C	09/03/2015	10:47	-129.153	46.879	0	1810.40	0	2.0850	0	34.5620	0	27.624	0	1787.646	0	45.1	4	13.6	4	-1E+10	1	-1E+10	1	-1E+10	1	-1E+10	1	-1E+10	1	-1E+10	1
4901784	6	C	09/03/2015	10:47	-129.153	46.879	0	1815.50	0	2.0830	0	34.5620	0	27.624	0	1792.660	0	45.2	4	13.7	4	-1E+10	1	-1E+10	1	-1E+10	1	-1E+10	1	-1E+10	1	-1E+10	1
4901784	6	C	09/03/2015	10:47	-129.153	46.879	0	1820.70	0	2.0800	0	34.5630	0	27.625	0	1797.773	0	45.4	4	13.7	4	-1E+10	1	-1E+10	1	-1E+10	1	-1E+10	1	-1E+10	1	-1E+10	1
4901784	6	C	09/03/2015	10:47	-129.153	46.879	0	1825.00	0	2.0780	0	34.5630	0	27.625	0	1802.000	0	45.6	4	13.8	4	-1E+10	1	-1E+10	1	-1E+10	1	-1E+10	1	-1E+10	1	-1E+10	1
4901784	6	C	09/03/2015	10:47	-129.153	46.879	0	1829.30	0	2.0760	0	34.5630	0	27.625	0	1806.228	0	45.7	4	13.8	4	-1E+10	1	-1E+10	1	-1E+10	1	-1E+10	1	-1E+10	1	-1E+10	1
4901784	6	C	09/03/2015	10:47	-129.153	46.879	0	1834.50	0	2.0740	0	34.5640	0	27.626	0	1811.340	0	46.0	4	13.9	4	-1E+10	1	-1E+10	1	-1E+10	1	-1E+10	1	-1E+10	1	-1E+10	1
4901784	6	C	09/03/2015	10:47	-129.153	46.879	0	1839.80	0	2.0700	0	34.5650	0	27.627	0	1816.551	0	46.2	4	14.0	4	-1E+10	1	-1E+10	1	-1E+10	1	-1E+10	1	-1E+10	1	-1E+10	1
4901784	6	C	09/03/2015	10:47	-129.153	46.879	0	1845.00	0	2.0680	0	34.5650	0	27.628	0	1821.663	0	46.5	4	14.0	4	-1E+10	1	-1E+10	1	-1E+10	1	-1E+10	1	-1E+10	1	-1E+10	1
4901784	6	C	09/03/2015	10:47	-129.153	46.879	0	1850.30	0	2.0640	0	34.5650	0	27.628	0	1826.873	0	46.9	4	14.1	4	-1E+10	1	-1E+10	1	-1E+10	1	-1E+10	1	-1E+10	1	-1E+10	1
4901784	6	C	09/03/2015	10:47	-129.153	46.879	0	1855.60	0	2.0550	0	34.5670	0	27.630	0	1832.083	0	47.4	4	14.3	4	-1E+10	1	-1E+10	1	-1E+10	1	-1E+10	1	-1E+10	1	-1E+10	1
4901784	6	C	09/03/2015	10:47	-129.153	46.879	0	1860.00	0	2.0500	0	34.5680	0	27.632	0	1836.408	0	47.7	4	14.4	4	-1E+10	1	-1E+10	1	-1E+10	1	-1E+10	1	-1E+10	1	-1E+10	1
4901784	6	C	09/03/2015	10:47	-129.153	46.879	0	1864.50	0	2.0460	0	34.5680	0	27.632	0	1840.832	0	48.0	4	14.5	4	-1E+10	1	-1E+10	1	-1E+10	1	-1E+10	1	-1E+10	1	-1E+10	1
4901784	6	C	09/03/2015	10:47	-129.153	46.879	0	1869.80	0	2.0410	0	34.5690	0	27.633	0	1846.041	0	48.2	4	14.6	4	-1E+10	1	-1E+10	1	-1E+10	1	-1E+10	1	-1E+10	1	-1E+10	1
4901784	6	C	09/03/2015	10:47	-129.153	46.879	0	1875.10	0	2.0390	0	34.5700	0	27.634	0	1851.251	0	48.5	4	14.7	4	-1E+10	1	-1E+10	1	-1E+10	1	-1E+10	1	-1E+10	1	-1E+10	1
4901784	6	C	09/03/2015	10:47	-129.153	46.879	0	1880.50	0	2.0330	0	34.5710	0	27.635	0	1856.559	0	48.9	4	14.8	4	-1E+10	1	-1E+10	1	-1E+10	1	-1E+10	1	-1E+10	1	-1E+10	1
4901784	6	C	09/03/2015	10:47	-129.153	46.879	0	1885.10	0	2.0290	0	34.5720	0	27.636	0	1861.080	0	49.2	4	14.9	4	-1E+10	1	-1E+10	1	-1E+10	1	-1E+10	1	-1E+10	1	-1E+10	1
4901784	6	C	09/03/2015	10:47	-129.153	46.879	0	1889.60	0	2.0250	0	34.5720	0	27.637	0	1865.503	0	49.5	4	14.9	4	-1E+10	1	-1E+10	1	-1E+10	1	-1E+10	1	-1E+10	1	-1E+10	1
4901784	6	C	09/03/2015	10:47	-129.153	46.879	0	1895.00	0	2.0190	0	34.5730	0	27.638	0	1870.810	0	50.0	4	15.1	4	-1E+10	1	-1E+10	1	-1E+10	1	-1E+10	1	-1E+10	1	-1E+10	1
4901784	6	C	09/03/2015	10:47	-129.153	46.879	0	1900.50	0	2.0100	0	34.5740	0	27.640	0	1876.216	0	50.4	4	15.2	4	-1E+10	1	-1E+10	1	-1E+10	1	-1E+10	1	-1E+10	1	-1E+10	1
4901784	6	C	09/03/2015	10:47	-129.153	46.879	0	1905.00	0	2.0090	0	34.5750	0	27.641	0	1880.639	0	50.6	4	15.3	4	-1E+10	1	-1E+10	1	-1E+10	1	-1E+10	1	-1E+10	1	-1E+10	1
4901784	6	C	09/03/2015	10:47	-129.153	46.879	0	1910.20	0	2.0050	0	34.5750	0	27.641	0	1885.749	0	50.9	4	15.4	4	-1E+10	1	-1E+10	1	-1E+10	1	-1E+10	1	-1E+10	1	-1E+10	1
4901784	6	C	09/03/2015	10:47	-129.153	46.879	0	1915.30	0	1.9980	0	34.5770	0	27.643	0	1890.761	0	51.4	4	15.5	4	-1E+10	1	-1E+10	1	-1E+10	1	-1E+10	1	-1E+10	1	-1E+10	1
4901784	6	C	09/03/2015	10:47	-129.153	46.879	0	1920.10	0	1.9950	0	34.5780	0	27.644	0	1895.478	0	51.7	4	15.6	4	-1E+10	1	-1E+10	1	-1E+10	1	-1E+10	1	-1E+10	1	-1E+10	1
4901784	6	C	09/03/2015	10:47	-129.153	46.879	0	1924.90	0	1.9900	0	34.5780	0	27.645	0	1900.195	0	52.0	4	15.7	4	-1E+10	1	-1E+10	1	-1E+10	1	-1E+10	1	-1E+10	1	-1E+10	1
4901784	6	C	09/03/2015	10:47	-129.153	46.879	0	1929.70	0	1.9850	0	34.5790	0	27.646	0	1904.912	0	52.3	4	15.8	4	-1E+10	1	-1E+10	1	-1E+10	1	-1E+10	1	-1E+10	1	-1E+10	1
4901784	6	C	09/03/2015	10:47	-129.153	46.879	0	1934.50	0	1.9820	0	34.5800	0	27.647	0	1909.629	0	52.5	4	15.8	4	-1E+10	1	-1E+10	1	-1E+10	1	-1E+10	1	-1E+10	1	-1E+10	1
4901784	6	C	09/03/2015	10:47	-129.153	46.879	0	1939.50	0	1.9800	0	34.5800	0	27.647	0	1914.542	0	52.8	4	15.9	4	-1E+10	1	-1E+10	1	-1E+10	1	-1E+10	1	-1E+10	1	-1E+10	1
4901784	6	C	09/03/2015	10:47	-129.153	46.879	0	1944.30	0	1.9760	0	34.5810	0	27.648	0	1919.259	0	53.0	4	16.0	4	-1E+10	1	-1E+10	1	-1E+10	1	-1E+10	1	-1E+10	1	-1E+10	1
4901784	6	C	09/03/2015	10:47	-129.153	46.879	0	1949.30	0	1.9730	0	34.5820	0	27.649	0	1924.172	0	53.3	4	16.1	4	-1E+10	1	-1E+10	1	-1E+10	1	-1E+10	1	-1E+10	1	-1E+10	1
4901784	6	C	09/03/2015	10:47	-129.153	46.879	0	1954.20	0	1.9700	0	34.5820	0	27.649	0	1928.987	0	53.6	4	16.1	4	-1E+10	1	-1E+10	1	-1E+10	1	-1E+10	1	-1E+10	1	-1E+10	1
4901784	6	C	09/03/2015	10:47	-129.153	46.879	0	1959.20	0	1.9660	0	34.5830	0	27.651	0	1933.899	0	53.9	4	16.3	4	-1E+10	1	-1E+10	1	-1E+10	1	-1E+10	1	-1E+10	1	-1E+10	1
4901784	6	C	09/03/2015	10:47	-129.153	46.879	0	1964.20	0	1.9600	0	34.5840	0	27.652	0	1938.812	0	54.3	4	16.4	4	-1E+10	1	-1E+10	1	-1E+10	1	-1E+10	1	-1E+10	1	-1E+10	1
4901784	6	C	09/03/2015	10:47	-129.153	46.879	0	1969.30	0	1.9570	0	34.5840	0	27.652	0	1943.823	0	54.5	4	16.4	4	-1E+10	1	-1E+10	1	-1E+10	1	-1E+10	1	-1E+10	1	-1E+10	1
4901784	6	C	09/03/2015	10:47	-129.153	46.879	0	1974.30	0	1.9550	0	34.5850	0	27.653	0	1948.736	0	54.7	4	16.5	4	-1E+10	1	-1E+10	1	-1E+10	1	-1E+10	1	-1E+10	1	-1E+10	1
4901784	6	C	09/03/2015	10:47	-129.153	46.879	0	1979.50	0	1.9520	0	34.5850	0	27.653	0	1953.844	0	55.1	4	16.6	4	-1E+10	1	-1E+10	1	-1E+10	1	-1E+10	1	-1E+10	1	-1E+10	1
4901784	6	C	09/03/2015	10:47	-129.153	46.879	0	1984.60	0	1.9470	0	34.5860	0	27.655	0	1958.855	0	55.5	4	16.7	4	-1E+10	1	-1E+10	1	-1E+10	1	-1E+10	1	-1E+10	1	-1E+10	1
4901784	6	C	09/03/2015	10:47	-129.153	46.879	0	1989.70	0	1.9410	0	34.5870	0	27.656	0	1963.865	0	55.9	4	16.8	4	-1E+10	1	-1E+10	1	-1E+10	1	-1E+10	1	-1E+10	1	-1E+10	1
4901784	6	C	09/03/2015	10:47	-129.153	46.879	0	1994.90	0	1.9380	0	34.5880	0	27.657	0	1968.974	0	56.1	4	16.9	4	-1E+10	1	-1E+10	1	-1E+10	1	-1E+10	1	-1E+10	1	-1E+10	1
4901784	6	C	09/03/2015	10:47	-129.153	46.879	0	2000.70	0	1.9350	0	34.5880	0	27.657	0	1974.671	0	56.4	4	17.0	4	-1E+10	1	-1E+10	1	-1E+10	1	-1E+10	1	-1E+10	1	-1E+10	1
4901784	6	C	09/03/2015	10:47	-129.153	46.879	0	2005.40	0	1.9310	0	34.5890	0	27.658	0	1979.288	0	56.8	4	17.1	4	-1E+10	1	-1E+10	1	-1E+10	1	-1E+10	1	-1E+10	1	-1E+10	1
4901784	6	C	09/03/2015	10:47	-129.153	46.879	0	2010.30	0	1.9280	0	34.5900	0	27.659	0	1984.102	0	57.0	4	17.2	4	-1E+10	1	-1E+10	1	-1E+10	1	-1E+10	1	-1E+10	1	-1E+10	1
4901784	6	C	09/03/2015	10:47	-129.153	46.879	0	2014.90	0	1.9240	0	34.5910	0	27.661	0	1988.620	0	57.3	4	17.2	4	-1E+10	1	-1E+10	1	-1E+10	1	-1E+10	1	-1E+10	1	-1E+10	1
4901784	6	C	09/03/2015	10:47	-129.153	46.879	0	2020.20	0	1.9190	0	34.5910	0	27.661	0	1993.826	0	57.4	4	17.3	4	-1E+10	1	-1E+10	1	-1E+10	1	-1E+10	1	-1E+10	1	-1E+10	1
4901784	6	C	09/03/2015	10:47	-129.153	46.879	0																										
4901784	7	C	09/13/2015	10:54	-129.281	46.854	0	2.30	0	17.8560	0	32.0620	0	23.059	0	2.281	0	231.9	4	96.9	4	-1E+10	1	-1E+10	1	-1E+10	1	-1E+10	1	-1E+10	1	-1E+10	1
4901784	7	C	09/13/2015	10:54	-129.281	46.854	0	3.50	0	17.8560	0	32.0630	0	23.060	0	3.471	0	231.7	4	96.8	4	-1E+10	1	-1E+10	1	-1E+10	1	-1E+10	1	-1E+10	1	-1E+10	1
4901784	7	C	09/13/2015	10:54	-129.281	46.854	0	4.80	0	17.8550	0	32.0630	0	23.060	0	4.760	0	231.6	4	96.8	4	-1E+10	1	-1E+10	1	-1E+10	1	-1E+10	1	-1E+10	1	-1E+10	1
4901784	7	C	09/13/2015	10:54	-129.281	46.854	0	6.30	0	17.8510	0	32.0630	0	23.061	0	6.248	0	231.7	4	96.8	4	-1E+10	1	-1E+10	1	-1E+10	1	-1E+10	1	-1E+10	1	-1E+10	1
4901784	7	C	09/13/2015	10:54	-129.281	46.854	0	7.90	0	17.8520	0	32.0620	0	23.060	0	7.834	0	231.3	4	96.7	4	-1E+10	1	-1E+10	1	-1E+10	1	-1E+10	1	-1E+10	1	-1E+10	1
4901784	7	C	09/13/2015	10:54	-129.281	46.854	0	9.40	0	17.8520	0	32.0630	0	23.061	0	9.322	0	231.2	4	96.6	4	-1E+10	1	-1E+10	1	-1E+10	1	-1E+10	1	-1E+10	1	-1E+10	1
4901784	7	C	09/13/2015	10:54	-129.281	46.854	0	11.00	0	17.8500	0	32.0620	0	23.061	0	10.909	0	231.0	4	96.5	4	-1E+10	1	-1E+10	1	-1E+10	1	-1E+10	1	-1E+10	1	-1E+10	1
4901784	7	C	09/13/2015	10:54	-129.281	46.854	0	12.60	0	17.8490	0	32.0630	0	23.062	0	12.495	0	230.8	4	96.5	4	-1E+10	1	-1E+10	1	-1E+10	1	-1E+10	1	-1E+10	1	-1E+10	1
4901784	7	C	09/13/2015	10:54	-129.281	46.854	0	14.30	0	17.8510	0	32.0620	0	23.061	0	14.181	0	230.5	4	96.3	4	-1E+10	1	-1E+10	1	-1E+10	1	-1E+10	1	-1E+10	1	-1E+10	1
4901784	7	C	09/13/2015	10:54	-129.281	46.854	0	16.20	0	17.8560	0	32.0610	0	23.059	0	16.065	0	230.5	4	96.3	4	-1E+10	1	-1E+10	1	-1E+10	1	-1E+10	1	-1E+10	1	-1E+10	1
4901784	7	C	09/13/2015	10:54	-129.281	46.854	0	18.10	0	17.8560	0	32.0610	0	23.059	0	17.949	0	230.4	4	96.3	4	-1E+10	1	-1E+10	1	-1E+10	1	-1E+10	1	-1E+10	1	-1E+10	1
4901784	7	C	09/13/2015	10:54	-129.281	46.854	0	19.90	0	17.8550	0	32.0610	0	23.059	0	19.734	0	230.4	4	96.3	4	-1E+10	1	-1E+10	1	-1E+10	1	-1E+10	1	-1E+10	1	-1E+10	1
4901784	7	C	09/13/2015	10:54	-129.281	46.854	0	21.70	0	17.8560	0	32.0600	0	23.058	0	21.519	0	230.4	4	96.3	4	-1E+10	1	-1E+10	1	-1E+10	1	-1E+10	1	-1E+10	1	-1E+10	1
4901784	7	C	09/13/2015	10:54	-129.281	46.854	0	23.40	0	17.8550	0	32.0580	0	23.057	0	23.205	0	230.7	4	96.4	4	-1E+10	1	-1E+10	1	-1E+10	1	-1E+10	1	-1E+10	1	-1E+10	1
4901784	7	C	09/13/2015	10:54	-129.281	46.854	0	25.20	0	17.8520	0	32.0530	0	23.054	0	24.990	0	231.3	4	96.6	4	-1E+10	1	-1E+10	1	-1E+10	1	-1E+10	1	-1E+10	1	-1E+10	1
4901784	7	C	09/13/2015	10:54	-129.281	46.854	0	25.50	0	17.8470	0	32.0570	0	23.058	0	25.287	0	231.5	4	96.7	4	-1E+10	1	-1E+10	1	-1E+10	1	-1E+10	1	-1E+10	1	-1E+10	1
4901784	7	C	09/13/2015	10:54	-129.281	46.854	0	26.70	0	17.8190	0	32.0550	0	23.064	0	26.477	0	232.1	4	96.9	4	-1E+10	1	-1E+10	1	-1E+10	1	-1E+10	1	-1E+10	1	-1E+10	1
4901784	7	C	09/13/2015	10:54	-129.281	46.854	0	27.80	0	17.7830	0	32.0530	0	23.071	0	27.568	0	233.5	4	97.4	4	-1E+10	1	-1E+10	1	-1E+10	1	-1E+10	1	-1E+10	1	-1E+10	1
4901784	7	C	09/13/2015	10:54	-129.281	46.854	0	28.90	0	17.7670	0	32.0450	0	23.069	0	28.659	0	235.4	4	98.2	4	-1E+10	1	-1E+10	1	-1E+10	1	-1E+10	1	-1E+10	1	-1E+10	1
4901784	7	C	09/13/2015	10:54	-129.281	46.854	0	29.90	0	17.7420	0	32.0330	0	23.065	0	29.650	0	238.2	4	99.3	4	-1E+10	1	-1E+10	1	-1E+10	1	-1E+10	1	-1E+10	1	-1E+10	1
4901784	7	C	09/13/2015	10:54	-129.281	46.854	0	31.10	0	17.3500	0	32.0490	0	23.171	0	30.840	0	242.7	4	100.4	4	-1E+10	1	-1E+10	1	-1E+10	1	-1E+10	1	-1E+10	1	-1E+10	1
4901784	7	C	09/13/2015	10:54	-129.281	46.854	0	32.90	0	16.0300	0	32.1000	0	23.513	0	32.625	0	252.9	4	102.1	4	-1E+10	1	-1E+10	1	-1E+10	1	-1E+10	1	-1E+10	1	-1E+10	1
4901784	7	C	09/13/2015	10:54	-129.281	46.854	0	34.30	0	15.2420	0	32.1240	0	23.705	0	34.013	0	258.5	4	102.8	4	-1E+10	1	-1E+10	1	-1E+10	1	-1E+10	1	-1E+10	1	-1E+10	1
4901784	7	C	09/13/2015	10:54	-129.281	46.854	0	35.50	0	14.8640	0	32.1180	0	23.782	0	35.203	0	261.8	4	103.3	4	-1E+10	1	-1E+10	1	-1E+10	1	-1E+10	1	-1E+10	1	-1E+10	1
4901784	7	C	09/13/2015	10:54	-129.281	46.854	0	37.00	0	13.8930	0	32.1660	0	24.022	0	36.690	0	263.9	4	102.2	4	-1E+10	1	-1E+10	1	-1E+10	1	-1E+10	1	-1E+10	1	-1E+10	1
4901784	7	C	09/13/2015	10:54	-129.281	46.854	0	38.60	0	13.2060	0	32.2040	0	24.189	0	38.277	0	268.2	4	102.4	4	-1E+10	1	-1E+10	1	-1E+10	1	-1E+10	1	-1E+10	1	-1E+10	1
4901784	7	C	09/13/2015	10:54	-129.281	46.854	0	40.20	0	12.7890	0	32.2270	0	24.288	0	39.863	0	270.4	4	102.4	4	-1E+10	1	-1E+10	1	-1E+10	1	-1E+10	1	-1E+10	1	-1E+10	1
4901784	7	C	09/13/2015	10:54	-129.281	46.854	0	41.80	0	12.6890	0	32.2310	0	24.311	0	41.449	0	269.9	4	102.0	4	-1E+10	1	-1E+10	1	-1E+10	1	-1E+10	1	-1E+10	1	-1E+10	1
4901784	7	C	09/13/2015	10:54	-129.281	46.854	0	43.50	0	12.5740	0	32.2330	0	24.334	0	43.135	0	269.7	4	101.7	4	-1E+10	1	-1E+10	1	-1E+10	1	-1E+10	1	-1E+10	1	-1E+10	1
4901784	7	C	09/13/2015	10:54	-129.281	46.854	0	45.10	0	12.4640	0	32.2310	0	24.354	0	44.721	0	268.7	4	101.1	4	-1E+10	1	-1E+10	1	-1E+10	1	-1E+10	1	-1E+10	1	-1E+10	1
4901784	7	C	09/13/2015	10:54	-129.281	46.854	0	46.80	0	12.0870	0	32.2630	0	24.450	0	46.407	0	269.0	4	100.4	4	-1E+10	1	-1E+10	1	-1E+10	1	-1E+10	1	-1E+10	1	-1E+10	1
4901784	7	C	09/13/2015	10:54	-129.281	46.854	0	48.50	0	11.8920	0	32.2600	0	24.483	0	48.092	0	268.5	4	99.8	4	-1E+10	1	-1E+10	1	-1E+10	1	-1E+10	1	-1E+10	1	-1E+10	1
4901784	7	C	09/13/2015	10:54	-129.281	46.854	0	50.30	0	11.7360	0	32.2630	0	24.514	0	49.877	0	266.8	4	98.9	4	-1E+10	1	-1E+10	1	-1E+10	1	-1E+10	1	-1E+10	1	-1E+10	1
4901784	7	C	09/13/2015	10:54	-129.281	46.854	0	52.00	0	11.6590	0	32.2880	0	24.548	0	51.563	0	265.5	4	98.3	4	-1E+10	1	-1E+10	1	-1E+10	1	-1E+10	1	-1E+10	1	-1E+10	1
4901784	7	C	09/13/2015	10:54	-129.281	46.854	0	53.80	0	11.5460	0	32.2860	0	24.567	0	53.347	0	262.8	4	97.0	4	-1E+10	1	-1E+10	1	-1E+10	1	-1E+10	1	-1E+10	1	-1E+10	1
4901784	7	C	09/13/2015	10:54	-129.281	46.854	0	55.50	0	11.3060	0	32.2900	0	24.613	0	55.033	0	260.0	4	95.5	4	-1E+10	1	-1E+10	1	-1E+10	1	-1E+10	1	-1E+10	1	-1E+10	1
4901784	7	C	09/13/2015	10:54	-129.281	46.854	0	57.30	0	11.2270	0	32.3110	0	24.644	0	56.817	0	258.5	4	94.8	4	-1E+10	1	-1E+10	1	-1E+10	1	-1E+10	1	-1E+10	1	-1E+10	1
4901784	7	C	09/13/2015	10:54	-129.281	46.854	0	59.10	0	11.0570	0	32.3260	0	24.686	0	58.602	0	257.2	4	94.0	4	-1E+10	1	-1E+10	1	-1E+10	1	-1E+10	1	-1E+10	1	-1E+10	1
4901784	7	C	09/13/2015	10:54	-129.281	46.854	0	60.90	0	11.0300	0	32.3350	0	24.697	0	60.386	0	256.3	4	93.6	4	-1E+10	1	-1E+10	1	-1E+10	1	-1E+10	1	-1E+10	1	-1E+10	1
4901784	7	C	09/13/2015	10:54	-129.281	46.854	0	62.60	0	10.9700	0	32.3430	0	24.714	0	62.072	0	254.5	4	92.8	4	-1E+10	1	-1E+10	1	-1E+10	1	-1E+10	1	-1E+10	1	-1E+10	1
4901784	7	C	09/13/2015	10:54	-129.281	46.854	0	64.30	0	10.9100	0	32.3500	0	24.730	0	63.757	0	253.5	4	92.4	4	-1E+10	1	-1E+10	1	-1E+10	1	-1E+10	1	-1E+10	1	-1E+10	1
4901784	7	C	09/13/2015	10:54	-129.281	46.854	0	66.00	0	10.8580	0	32.3700	0	24.755	0	65.443	0	251.9	4	91.7	4	-1E+10	1	-1E+10	1	-1E+10	1	-1E+10	1	-1E+10	1	-1E+10	1
4901784	7	C	09/13/2015	10:54	-129.281	46.854	0	67.70	0	10.8370	0	32.3820	0	24.768	0	67.128	0	250.3	4	91.1	4	-1E+10	1	-1E+10	1	-1E+10	1	-1E+10	1	-1E+10	1	-1E+10	1
4901784	7	C	09/13/2015	10:54	-129.281	46.854	0	69.40	0	10.8210	0	32.3860	0	24.774	0	68.813	0	247.8	4	90.1	4	-1E+10	1	-1E+10	1	-1E+10	1	-1E+10	1	-1E+10	1	-1E+10	1
4901784	7	C	09/13/2015	10:54	-129.281	46.854	0	71.10	0	10.7870	0	32.3940	0	24.786	0	70.499	0	244.7	4	89.0	4	-1E+10	1	-1E+10	1	-1E+10	1	-1E+10	1	-1E+10	1	-1E+10	1
4901784	7	C	09/13/2015	10:54	-129.281	46.854	0	73.00	0	10.7190	0	32.4040	0	24.806	0	72.382	0	241.9	4	87.8	4	-1E+10	1	-1E+10	1	-1E+10	1	-1E+10	1	-1E+10	1	-1E+10	1
4901784	7	C	09/13/2015	10:54	-129.281	46.854	0	73.50	0	10.7150	0	32.4050	0	24.807	0	72.878	0	240.7	4	87.4	4	-1E+10	1	-1E+10	1	-1E+10	1	-1E+10	1	-1E+10	1	-1E+10	1
4901784	7	C	09/13/2015	10:54	-129.281	46.854	0	75.00	0	10.6280	0	32.4190	0	24.833	0	74.365	0	237.2	4	85.9	4	-1E+10	1	-1E+10	1	-1E+10	1	-1E+10	1	-1E+10	1	-1E+10	1
4901784	7	C	09/13/2015	10:54	-129.281	46.854	0	76.50	0	10.5430	0	32.4400	0	24.864	0	75.852	0	233.4	4	84.4	4	-1E+10	1	-1E+10	1	-1E+10	1	-1E+10	1	-1E+10	1	-1E+10	1
4901784	7	C	09/13/2015	10:54	-129.281	46.854	0	77.90	0	10.4710	0	32.4490	0	24.883	0	77.240	0	230.1	4	83.1	4	-1E+10	1	-1E+10	1	-1E+10	1	-1E+10	1	-1E+10	1	-1E+10	1
4901784	7	C	09/13/2015	10:54	-129.281	46.854	0	79.30	0	10.4320	0	32.4550	0	24.895	0	78.628	0	226.2	4	81.6	4	-1E+10	1	-1E+10	1	-1E+10	1	-1E+10	1	-1E+10	1	-1E+10	1
4901784	7	C	09/13/2015	10:54	-129.281	46.854	0	80.70	0	10.3600	0	32.4660	0	24.915	0	80.016	0	221.4	4	79.8	4	-1E+10	1	-1E+10	1	-1E+10	1	-1E+10	1	-1E+10	1	-1E+10	1
4901784	7	C	09/13/2015	10:54	-129.281	46.854	0	82.10	0	10.2020	0	32.4970	0	24.966	0	81.403	0	216.3	4	77.7	4	-1E+10	1	-1E+10	1	-1E+10	1	-1E+10	1	-1E+10	1	-1E+10	1
4901784	7	C	09/13/2015	10:54	-129.281	46.854	0	83.60	0	10.0140	0	32.5250	0	25.019	0	82.890	0	212.6	4	76.1	4	-1E+10	1	-1E+10	1	-1E+10	1	-1E+10	1	-1E+10	1	-1E+10	1
4901784	7	C	09/13/2015	10:54	-129.281	46.854	0	85.20	0	9.7560	0	32.5810	0	25.106	0	84.477	0	209.6	4	74.6	4	-1E+10	1	-1E+10	1	-1E+10	1	-1E+10	1	-1E+10	1	-1E+10	1
4901784	7	C	09/13/2015	10:54	-129.281	46.854	0	86.80	0	9.6230	0	32.6210	0	25.159	0	86.063	0	207.0	4	73.5	4	-1E+10	1	-1E+10	1	-1E+10	1	-1E+10	1	-1E+10	1	-1E+10	1
4901784	7	C	09/13/2015	10:54	-129.281	46.854	0	88.40	0	9.4550	0	32.6770	0	25.229	0	87.649	0	204.1	4	72.2	4	-1E+10	1	-1E+10	1	-1E+10	1	-1E+10	1	-1E+10	1	-1E+10	1
4901784	7	C	09/13/2015	10:54	-129.281	46.854	0	90.00	0	9.2060	0	32.7290	0	25.310	0	89.235	0	203.0	4	71.5	4	-1E+10	1	-1E+10	1	-1E+10	1	-1E+10	1	-1E+10	1	-1E+10	1
4901784	7	C	09/13/2015	10:54	-129.281	46.854	0	92.10	0	8.9900	0	32.7730	0	25.378	0	91.316	0	201.1	4	70.5	4	-1E+10	1	-1E+10	1	-1E+10	1	-1E+10	1	-1E+10	1	-1E+10	1
4901784	7	C	09/13/2015	10:54	-129.281	46.854	0	93.70	0	8.8240	0	32.8320	0	25.450	0	92.902	0	199.8	4	69.8	4	-1E+10	1	-1E+10	1	-1E+10	1	-1E+10	1	-1E+10	1	-1E+10	1
4901784	7	C	09/13/2015	10:54	-129.281	46.854	0	95.20	0	8.7890	0	32.8380	0	25.460	0	94.389	0	198.8	4	69.4	4	-1E+10	1	-1E+10	1	-1E+10	1	-1E+10	1	-1E+10	1	-1E+10	1
4901784	7	C	09/13/2015	10:54	-129.281	46.854	0	96.70	0	8.6140	0	32.8960	0	25.532	0	95.876	0	198.4	4	69.1	4	-1E+10	1	-1E+10	1	-1E+10	1	-1E+10	1	-1E+10	1	-1E+10	1
4901784	7	C	09/13/2015	10:54	-129.281	46.854	0	98.20	0	8.4790	0	32.9390	0	25.586	0	97.363	0	199.1	4	69.1	4	-1E+10	1	-1E+10	1	-1E+10	1	-1E+10	1	-1E+10	1	-1E+10	1
4901784	7	C	09/13/2015	10:54	-129.281	46.854	0	99.70	0	8.4040	0	32.9560	0	25.611	0	98.850	0	198.3	4	68.7	4	-1E+10	1	-1E+10	1	-1E+10	1	-1E+10	1	-1E+10	1	-1E+10	1
4901784	7	C	09/13/2015	10:54	-129.281	46.854	0	102.70	0	8.3180	0	32.9850	0	25.647	0	101.824	0	195.7	4	67.7	4	-1E+10	1	-1E+10	1	-1E+10	1	-1E+10	1	-1E+10	1	-1E+10	1
4901784	7	C	09/13/2015	10:54	-129.281	46.854	0	105.10	0	8.2480	0	33.0100	0	25.677	0	104.203	0	192.6	4	66.5	4	-1E+10	1	-1E+10	1	-1E+10	1	-1E+10	1	-1E+10	1	-1E+10	1
4901784	7	C	09/13/2015	10:54	-129.281	46.854	0	107.50	0	8.1570	0	33.0420	0	25.715	0	106.581	0	187.6	4	64.7	4	-1E+10	1	-1E+10	1	-1E+10	1	-1E+10	1	-1E+10	1	-1E+10	1
4901784	7	C	09/13/2015	10:54	-129.281	46.854	0	110.20	0	8.1080	0	33.0980	0	25.766	0	109.258	0	182.8	4	63.0	4	-1E+10	1	-1E+10	1	-1E+10	1	-1E+10	1	-1E+10	1	-1E+10	1
4901784	7	C	09/13/2015	10:54	-129.281	46.854	0	112.80	0	8.0680	0	33.1390	0	25.804	0	111.835	0	179.0	4	61.6	4	-1E+10	1	-1E+10	1	-1E+10	1	-1E+10	1	-1E+10	1	-1E+10	1
4901784	7	C	09/13/2015	10:54	-129.281	46.854	0	114.60	0	7.9750	0	33.2080	0	25.872	0	113.619	0	176.6	4	60.7	4	-1E+10	1	-1E+10	1	-1E+10	1	-1E+10	1	-1E+10	1	-1E+10	1
4901784	7	C	09/13/2015	10:54	-129.281	46.854	0	117.30	0	7.9360	0	33.2530	0	25.913	0	116.295	0	174.0	4	59.8	4	-1E+10	1	-1E+10	1	-1E+10	1	-1E+10	1	-1E+10	1	-1E+10	1
4901784	7	C	09/13/2015	10:54	-129.281	46.854	0	120.00	0	7.8730	0	33.2950	0	25.955	0	118.971	0	171.7	4	58.9	4	-1E+10	1	-1E+10	1	-1E+10	1	-1E+10	1	-1E+10	1	-1E+10	1
4901784	7	C	09/13/2015	10:54	-129.281	46.854	0	122.70	0	7.8460	0	33.3260	0	25.984	0	121.647	0	169.1	4	58.0	4	-1E+10	1	-1E+10	1	-1E+10	1	-1E+10	1	-1E+10	1	-1E+10	1
4901784	7	C	09/13/2015	10:54	-129.281	46.854	0	125.50	0	7.8230	0	33.3540	0	26.009	0	124.422	0	166.4	4	57.1	4	-1E+10	1	-1E+10	1	-1E+10	1	-1E+10	1	-1E+10	1	-1E+10	1
4901784	7	C	09/13/2015	10:54	-129.281	46.854	0	127.30	0	7.8150	0	33.3820	0	26.032	0	126.206	0	164.7	4	56.5	4	-1E+10	1	-1E+10	1	-1E+10	1	-1E+10	1	-1E+10	1	-1E+10	1
4901784	7	C	09/13/2015	10:54	-129.281	46.854	0	130.20	0	7.7740	0	33.4290	0	26.075	0	129.080	0	161.9	4	55.5	4	-1E+10	1	-1E+10	1	-1E+10	1	-1E+10	1	-1E+10	1	-1E+10	1
4901784	7	C	09/13/2015	10:54	-129.281	46.854	0	133.40	0	7.7000	0	33.4850	0	26.130	0	132.252	0	158.7	4	54.3	4	-1E+10	1	-1E+10	1	-1E+10	1	-1E+10	1	-1E+10	1	-1E+10	1
4901784	7	C	09/13/2015	10:54	-129.281	46.854	0	134.70	0	7.6930	0	33.5000	0	26.143	0	133.540	0	156.5	4	53.6	4	-1E+10	1	-1E+10	1	-1E+10	1	-1E+10	1	-1E+10	1	-1E+10	1
4901784	7	C	09/13/2015	10:54	-129.281	46.854	0	137.20	0	7.6910	0	33.5300	0	26.166	0	136.018	0	152.4	4	52.2	4	-1E+10	1	-1E+10	1	-1E+10	1	-1E+10	1	-1E+10	1	-1E+10	1
4901784	7	C	09/13/2015	10:54	-129.281	46.854	0	139.60	0	7.6940	0	33.5490	0	26.181	0	138.396	0	148.8	4	51.0	4	-1E+10	1	-1E+10	1	-1E+10	1	-1E+10	1	-1E+10	1	-1E+10	1
4901784	7	C	09/13/2015	10:54	-129.281	46.854	0	142.90	0	7.6950	0	33.6000	0	26.221	0	141.667	0	144.4	4	49.5	4	-1E+10	1	-1E+10	1	-1E+10	1	-1E+10	1	-1E+10	1	-1E+10	1
4901784	7	C	09/13/2015	10:54	-129.281	46.854	0	145.30	0	7.6870	0	33.6290	0	26.245	0	144.045	0	141.7	4	48.6	4	-1E+10	1	-1E+10	1	-1E+10	1	-1E+10	1	-1E+10	1	-1E+10	1
4901784	7	C	09/13/2015	10:54	-129.281	46.854	0	147.80	0	7.7140	0	33.6670	0	26.271	0	146.523	0	139.9	4	48.0	4	-1E+10	1	-1E+10	1	-1E+10	1	-1E+10	1	-1E+10	1	-1E+10	1
4901784	7	C	09/13/2015	10:54	-129.281	46.854	0	150.20	0	7.6820	0	33.6740	0	26.281	0	148.901	0	139.6	4	47.8	4	-1E+10	1	-1E+10	1	-1E+10	1	-1E+10	1	-1E+10	1	-1E+10	1
4901784	7	C	09/13/2015	10:54	-129.281	46.854	0	152.70	0	7.6310	0	33.7010	0	26.310	0	151.379	0	139.9	4	47.9	4	-1E+10	1	-1E+10	1	-1E+10	1	-1E+10	1	-1E+10	1	-1E+10	1
4901784	7	C	09/13/2015	10:54	-129.281	46.854	0	155.20	0	7.5900	0	33.7060	0	26.319	0	153.856	0	138.9	4	47.5	4	-1E+10	1	-1E+10	1	-1E+10	1	-1E+10	1	-1E+10	1	-1E+10	1
4901784	7	C	09/13/2015	10:54	-129.281	46.854	0	157.70	0	7.5790	0	33.7120	0	26.326	0	156.333	0	136.0	4	46.5	4	-1E+10	1	-1E+10	1	-1E+10	1	-1E+10	1	-1E+10	1	-1E+10	1
4901784	7	C	09/13/2015	10:54	-129.281	46.854	0	160.30	0	7.5770	0	33.7240	0	26.336	0	158.910	0	131.5	4	45.0	4	-1E+10	1	-1E+10	1	-1E+10	1	-1E+10	1	-1E+10	1	-1E+10	1
4901784	7	C	09/13/2015	10:54	-129.281	46.854	0	162.10	0	7.5900	0	33.7420	0	26.348	0	160.694	0	128.2	4	43.9	4	-1E+10	1	-1E+10	1	-1E+10	1	-1E+10	1	-1E+10	1	-1E+10	1
4901784	7	C	09/13/2015	10:54	-129.281	46.854	0	164.70	0	7.5840	0	33.7520	0	26.357	0	163.270	0	123.6	4	42.3	4	-1E+10	1	-1E+10	1	-1E+10	1	-1E+10	1	-1E+10	1	-1E+10	1
4901784	7	C	09/13/2015	10:54	-129.281	46.854	0	167.30	0	7.6300	0	33.7870	0	26.378	0	165.846	0	118.3	4	40.5	4	-1E+10	1	-1E+10	1	-1E+10	1	-1E+10	1	-1E+10	1	-1E+10	1
4901784	7	C	09/13/2015	10:54	-129.281	46.854	0	169.80	0	7.6340	0	33.7960	0	26.384	0	168.324	0	115.8	4	39.7	4	-1E+10	1	-1E+10	1	-1E+10	1	-1E+10	1	-1E+10	1	-1E+10	1
4901784	7	C	09/13/2015	10:54	-129.281	46.854	0	172.50	0	7.6090	0	33.8160	0	26.403	0	170.999	0	113.6	4	38.9	4	-1E+10	1	-1E+10	1	-1E+10	1	-1E+10	1	-1E+10	1	-1E+10	1
4901784	7	C	09/13/2015	10:54	-129.281	46.854	0	175.10	0	7.5850	0	33.8270	0	26.416	0	173.575	0	112.9	4	38.7	4	-1E+10	1	-1E+10	1	-1E+10	1	-1E+10	1	-1E+10	1	-1E+10	1
4901784	7	C	09/13/2015	10:54	-129.281	46.854	0	177.80	0	7.5470	0	33.8340	0	26.427	0	176.251	0	112.5	4	38.5	4	-1E+10	1	-1E+10	1	-1E+10	1	-1E+10	1	-1E+10	1	-1E+10	1
4901784	7	C	09/13/2015	10:54	-129.281	46.854	0	179.60	0	7.5350	0	33.8370	0	26.431	0	178.034	0	112.2	4	38.4	4	-1E+10	1	-1E+10	1	-1E+10	1	-1E+10	1	-1E+10	1	-1E+10	1
4901784	7	C	09/13/2015	10:54	-129.281	46.854	0	182.30	0	7.4930	0	33.8440	0	26.442	0	180.709	0	111.5	4	38.1	4	-1E+10	1	-1E+10	1	-1E+10	1	-1E+10	1	-1E+10	1	-1E+10	1
4901784	7	C	09/13/2015	10:54	-129.281	46.854	0	184.90	0	7.4660	0	33.8490	0	26.450	0	183.286	0	110.2	4	37.6	4	-1E+10	1	-1E+10	1	-1E+10	1	-1E+10	1	-1E+10	1	-1E+10	1
4901784	7	C	09/13/2015	10:54	-129.281	46.854	0	187.70	0	7.4480	0	33.8590	0	26.460	0	186.060	0	108.2	4	36.9	4	-1E+10	1	-1E+10	1	-1E+10	1	-1E+10	1	-1E+10	1	-1E+10	1
4901784	7	C	09/13/2015	10:54	-129.281	46.854	0	190.40	0	7.4430	0	33.8660	0	26.467	0	188.735	0	107.2	4	36.6	4	-1E+10	1	-1E+10	1	-1E+10	1	-1E+10	1	-1E+10	1	-1E+10	1
4901784	7	C	09/13/2015	10:54	-129.281	46.854	0	192.20	0	7.4360	0	33.8680	0	26.469	0	190.519	0	106.8	4	36.4	4	-1E+10	1	-1E+10	1	-1E+10	1	-1E+10	1	-1E+10	1	-1E+10	1
4901784	7	C	09/13/2015	10:54	-129.281	46.854	0	195.00	0	7.4200	0	33.8710	0	26.474	0	193.293	0	106.0	4	36.2	4	-1E+10	1	-1E+10	1	-1E+10	1	-1E+10	1	-1E+10	1	-1E+10	1
4901784	7	C	09/13/2015	10:54	-129.281	46.854	0	197.80	0	7.3870	0	33.8780	0	26.484	0	196.067	0	105.5	4	36.0	4	-1E+10	1	-1E+10	1	-1E+10	1	-1E+10	1	-1E+10	1	-1E+10	1
4901784	7	C	09/13/2015	10:54	-129.281	46.854	0	199.70	0	7.3460	0	33.8840	0	26.495	0	197.949	0	105.4	4	35.9	4	-1E+10	1	-1E+10	1	-1E+10	1	-1E+10	1	-1E+10	1	-1E+10	1
4901784	7	C	09/13/2015	10:54	-129.281	46.854	0	202.60	0	7.3230	0	33.8860	0	26.499	0	200.823	0	104.9	4	35.7	4	-1E+10	1	-1E+10	1	-1E+10	1	-1E+10	1	-1E+10	1	-1E+10	1
4901784	7	C	09/13/2015	10:54	-129.281	46.854	0	205.40	0	7.2880	0	33.8890	0	26.507	0	203.597	0	104.3	4	35.5	4	-1E+10	1	-1E+10	1	-1E+10	1	-1E+10	1	-1E+10	1	-1E+10	1
4901784	7	C	09/13/2015	10:54	-129.281	46.854	0	207.80	0	7.2560	0	33.8950	0	26.516	0	205.974	0	103.5	4	35.2	4	-1E+10	1	-1E+10	1	-1E+10	1	-1E+10	1	-1E+10	1	-1E+10	1
4901784	7	C	09/13/2015	10:54	-129.281	46.854	0	209.70	0	7.2470	0	33.8990	0	26.520	0	207.857	0	102.9	4	35.0	4	-1E+10	1	-1E+10	1	-1E+10	1	-1E+10	1	-1E+10	1	-1E+10	1
4901784	7	C	09/13/2015	10:54	-129.281	46.854	0	212.20	0	7.2380	0	33.9020	0	26.524	0	210.333	0	102.6	4	34.9	4	-1E+10	1	-1E+10	1	-1E+10	1	-1E+10	1	-1E+10	1	-1E+10	1
4901784	7	C	09/13/2015	10:54	-129.281	46.854	0	215.40	0	7.2260	0	33.9020	0	26.526	0	213.504	0	102.2	4	34.7	4	-1E+10	1	-1E+10	1	-1E+10	1	-1E+10	1	-1E+10	1	-1E+10	1
4901784	7	C	09/13/2015	10:54	-129.281	46.854	0	217.80	0	7.2060	0	33.9030	0	26.529	0	215.881	0	101.9	4	34.6	4	-1E+10	1	-1E+10	1	-1E+10	1	-1E+10	1	-1E+10	1	-1E+10	1
4901784	7	C	09/13/2015	10:54	-129.281	46.854	0	220.20	0	7.1950	0	33.9040	0	26.532	0	218.259	0	101.2	4	34.4	4	-1E+10	1	-1E+10	1	-1E+10	1	-1E+10	1	-1E+10	1	-1E+10	1
4901784	7	C	09/13/2015	10:54	-129.281	46.854	0	222.70	0	7.1690	0	33.9080	0	26.538	0	220.735	0	100.4	4	34.1	4	-1E+10	1	-1E+10	1	-1E+10	1	-1E+10	1	-1E+10	1	-1E+10	1
4901784	7	C	09/13/2015	10:54	-129.281	46.854	0	225.20	0	7.1410	0	33.9120	0	26.545	0	223.212	0	100.1	4	33.9	4	-1E+10	1	-1E+10	1	-1E+10	1	-1E+10	1	-1E+10	1	-1E+10	1
4901784	7	C	09/13/2015	10:54	-129.281	46.854	0	227.70	0	7.1100	0	33.9140	0	26.551	0	225.689	0	99.9	4	33.9	4	-1E+10	1	-1E+10	1	-1E+10	1	-1E+10	1	-1E+10	1	-1E+10	1
4901784	7	C	09/13/2015	10:54	-129.281	46.854	0	230.20	0	7.0950	0	33.9150	0	26.554	0	228.165	0	99.7	4	33.8	4	-1E+10	1	-1E+10	1	-1E+10	1	-1E+10	1	-1E+10	1	-1E+10	1
4901784	7	C	09/13/2015	10:54	-129.281	46.854	0	232.70	0	7.0760	0	33.9140	0	26.556	0	230.642	0	99.2	4	33.6	4	-1E+10	1	-1E+10	1	-1E+10	1	-1E+10	1	-1E+10	1	-1E+10	1
4901784	7	C	09/13/2015	10:54	-129.281	46.854	0	235.20	0	7.0670	0	33.9150	0	26.558	0	233.118	0	98.4	4	33.3	4	-1E+10	1	-1E+10	1	-1E+10	1	-1E+10	1	-1E+10	1	-1E+10	1
4901784	7	C	09/13/2015	10:54	-129.281	46.854	0	237.60	0	7.0400	0	33.9210	0	26.567	0	235.496	0	97.4	4	33.0	4	-1E+10	1	-1E+10	1	-1E+10	1	-1E+10	1	-1E+10	1	-1E+10	1
4901784	7	C	09/13/2015	10:54	-129.281	46.854	0	240.10	0	7.0190	0	33.9220	0	26.570	0	237.972	0	96.9	4	32.8	4	-1E+10	1	-1E+10	1	-1E+10	1	-1E+10	1	-1E+10	1	-1E+10	1
4901784	7	C	09/13/2015	10:54	-129.281	46.854	0	242.60	0	7.0000	0	33.9230	0	26.574	0	240.448	0	96.5	4	32.6	4	-1E+10	1	-1E+10	1	-1E+10	1	-1E+10	1	-1E+10	1	-1E+10	1
4901784	7	C	09/13/2015	10:54	-129.281	46.854	0	245.20	0	6.9750	0	33.9250	0	26.579	0	243.024	0	96.0	4	32.4	4	-1E+10	1	-1E+10	1	-1E+10	1	-1E+10	1	-1E+10	1	-1E+10	1
4901784	7	C	09/13/2015	10:54	-129.281	46.854	0	247.70	0	6.9620	0	33.9250	0	26.580	0	245.500	0	95.5	4	32.2	4	-1E+10	1	-1E+10	1	-1E+10	1	-1E+10	1	-1E+10	1	-1E+10	1
4901784	7	C	09/13/2015	10:54	-129.281	46.854	0	250.30	0	6.9410	0	33.9270	0	26.585	0	248.075	0	94.8	4	32.0	4	-1E+10	1	-1E+10	1	-1E+10	1	-1E+10	1	-1E+10	1	-1E+10	1
4901784	7	C	09/13/2015	10:54	-129.281	46.854	0	252.90	0	6.9110	0	33.9290	0	26.591	0	250.651	0	94.2	4	31.8	4	-1E+10	1	-1E+10	1	-1E+10	1	-1E+10	1	-1E+10	1	-1E+10	1
4901784	7	C	09/13/2015	10:54	-129.281	46.854	0	254.60	0	6.8900	0	33.9300	0	26.594	0	252.335	0	93.9	4	31.7	4	-1E+10	1	-1E+10	1	-1E+10	1	-1E+10	1	-1E+10	1	-1E+10	1
4901784	7	C	09/13/2015	10:54	-129.281	46.854	0	257.20	0	6.8770	0	33.9290	0	26.595	0	254.910	0	93.2	4	31.4	4	-1E+10	1	-1E+10	1	-1E+10	1	-1E+10	1	-1E+10	1	-1E+10	1
4901784	7	C	09/13/2015	10:54	-129.281	46.854	0	259.70	0	6.8390	0	33.9280	0	26.600	0	257.386	0	92.1	4	31.0	4	-1E+10	1	-1E+10	1	-1E+10	1	-1E+10	1	-1E+10	1	-1E+10	1
4901784	7	C	09/13/2015	10:54	-129.281	46.854	0	262.20	0	6.7870	0	33.9350	0	26.612	0	259.862	0	91.1	4	30.6	4	-1E+10	1	-1E+10	1	-1E+10	1	-1E+10	1	-1E+10	1	-1E+10	1
4901784	7	C	09/13/2015	10:54	-129.281	46.854	0	264.80	0	6.7760	0	33.9360	0	26.614	0	262.437	0	90.4	4	30.4	4	-1E+10	1	-1E+10	1	-1E+10	1	-1E+10	1	-1E+10	1	-1E+10	1
4901784	7	C	09/13/2015	10:54	-129.281	46.854	0	267.40	0	6.7520	0	33.9370	0	26.618	0	265.013	0	89.4	4	30.1	4	-1E+10	1	-1E+10	1	-1E+10	1	-1E+10	1	-1E+10	1	-1E+10	1
4901784	7	C	09/13/2015	10:54	-129.281	46.854	0	270.00	0	6.7000	0	33.9410	0	26.629	0	267.588	0	88.6	4	29.8	4	-1E+10	1	-1E+10	1	-1E+10	1	-1E+10	1	-1E+10	1	-1E+10	1
4901784	7	C	09/13/2015	10:54	-129.281	46.854	0	272.60	0	6.6610	0	33.9420	0	26.635	0	270.163	0	88.0	4	29.5	4	-1E+10	1	-1E+10	1	-1E+10	1	-1E+10	1	-1E+10	1	-1E+10	1
4901784	7	C	09/13/2015	10:54	-129.281	46.854	0	275.20	0	6.6550	0	33.9430	0	26.636	0	272.738	0	87.2	4	29.3	4	-1E+10	1	-1E+10	1	-1E+10	1	-1E+10	1	-1E+10	1	-1E+10	1
4901784	7	C	09/13/2015	10:54	-129.281	46.854	0	277.80	0	6.6330	0	33.9450	0	26.641	0	275.313	0	86.5	4	29.0	4	-1E+10	1	-1E+10	1	-1E+10	1	-1E+10	1	-1E+10	1	-1E+10	1
4901784	7	C	09/13/2015	10:54	-129.281	46.854	0	280.40	0	6.6050	0	33.9450	0	26.644	0	277.888	0	85.8	4	28.8	4	-1E+10	1	-1E+10	1	-1E+10	1	-1E+10	1	-1E+10	1	-1E+10	1
4901784	7	C	09/13/2015	10:54	-129.281	46.854	0	282.10	0	6.5800	0	33.9480	0	26.650	0	279.571	0	85.4	4	28.6	4	-1E+10	1	-1E+10	1	-1E+10	1	-1E+10	1	-1E+10	1	-1E+10	1
4901784	7	C	09/13/2015	10:54	-129.281	46.854	0	284.70	0	6.5650	0	33.9490	0	26.653	0	282.146	0	85.1	4	28.5	4	-1E+10	1	-1E+10	1	-1E+10	1	-1E+10	1	-1E+10	1	-1E+10	1
4901784	7	C	09/13/2015	10:54	-129.281	46.854	0	287.30	0	6.5500	0	33.9480	0	26.654	0	284.721	0	85.2	4	28.5	4	-1E+10	1	-1E+10	1	-1E+10	1	-1E+10	1	-1E+10	1	-1E+10	1
4901784	7	C	09/13/2015	10:54	-129.281	46.854	0	289.90	0	6.5250	0	33.9490	0	26.658	0	287.296	0	85.4	4	28.6	4	-1E+10	1	-1E+10	1	-1E+10	1	-1E+10	1	-1E+10	1	-1E+10	1
4901784	7	C	09/13/2015	10:54	-129.281	46.854	0	292.50	0	6.4820	0	33.9490	0	26.664	0	289.871	0	86.0	4	28.7	4	-1E+10	1	-1E+10	1	-1E+10	1	-1E+10	1	-1E+10	1	-1E+10	1
4901784	7	C	09/13/2015	10:54	-129.281	46.854	0	295.10	0	6.4570	0	33.9450	0	26.664	0	292.446	0	86.2	4	28.8	4	-1E+10	1	-1E+10	1	-1E+10	1	-1E+10	1	-1E+10	1	-1E+10	1
4901784	7	C	09/13/2015	10:54	-129.281	46.854	0	297.80	0	6.3970	0	33.9420	0	26.669	0	295.119	0	85.2	4	28.4	4	-1E+10	1	-1E+10	1	-1E+10	1	-1E+10	1	-1E+10	1	-1E+10	1
4901784	7	C	09/13/2015	10:54	-129.281	46.854	0	299.50	0	6.3680	0	33.9420	0	26.673	0	296.803	0	82.8	4	27.6	4	-1E+10	1	-1E+10	1	-1E+10	1	-1E+10	1	-1E+10	1	-1E+10	1
4901784	7	C	09/13/2015	10:54	-129.281	46.854	0	302.20	0	6.4260	0	33.9550	0	26.676	0	299.477	0	80.7	4	26.9	4	-1E+10	1	-1E+10	1	-1E+10	1	-1E+10	1	-1E+10	1	-1E+10	1
4901784	7	C	09/13/2015	10:54	-129.281	46.854	0	304.80	0	6.4170	0	33.9560	0	26.678	0	302.051	0	80.7	4	26.9	4	-1E+10	1	-1E+10	1	-1E+10	1	-1E+10	1	-1E+10	1	-1E+10	1
4901784	7	C	09/13/2015	10:54	-129.281	46.854	0	307.50	0	6.3890	0	33.9570	0	26.682	0	304.725	0	82.2	4	27.4	4	-1E+10	1	-1E+10	1	-1E+10	1	-1E+10	1	-1E+10	1	-1E+10	1
4901784	7	C	09/13/2015	10:54	-129.281	46.854	0	310.00	0	6.3080	0	33.9490	0	26.687	0	307.201	0	84.5	4	28.1	4	-1E+10	1	-1E+10	1	-1E+10	1	-1E+10	1	-1E+10	1	-1E+10	1
4901784	7	C	09/13/2015	10:54	-129.281	46.854	0	312.60	0	6.2140	0	33.9420	0	26.693	0	309.775	0	85.1	4	28.3	4	-1E+10	1	-1E+10	1	-1E+10	1	-1E+10	1	-1E+10	1	-1E+10	1
4901784	7	C	09/13/2015	10:54	-129.281	46.854	0	315.20	0	6.1780	0	33.9390	0	26.695	0	312.350	0	82.9	4	27.5	4	-1E+10	1	-1E+10	1	-1E+10	1	-1E+10	1	-1E+10	1	-1E+10	1
4901784	7	C	09/13/2015	10:54	-129.281	46.854	0	317.80	0	6.2160	0	33.9500	0	26.699	0	314.924	0	81.2	4	27.0	4	-1E+10	1	-1E+10	1	-1E+10	1	-1E+10	1	-1E+10	1	-1E+10	1
4901784	7	C	09/13/2015	10:54	-129.281	46.854	0	320.50	0	6.2200	0	33.9520	0	26.700	0	317.598	0	80.1	4	26.6	4	-1E+10	1	-1E+10	1	-1E+10	1	-1E+10	1	-1E+10	1	-1E+10	1
4901784	7	C	09/13/2015	10:54	-129.281	46.854	0	322.20	0	6.2260	0	33.9540	0	26.701	0	319.281	0	79.3	4	26.4	4	-1E+10	1	-1E+10	1	-1E+10	1	-1E+10	1	-1E+10	1	-1E+10	1
4901784	7	C	09/13/2015	10:54	-129.281	46.854	0	324.90	0	6.2330	0	33.9570	0	26.703	0	321.954	0	79.4	4	26.4	4	-1E+10	1	-1E+10	1	-1E+10	1	-1E+10	1	-1E+10	1	-1E+10	1
4901784	7	C	09/13/2015	10:54	-129.281	46.854	0	327.50	0	6.1990	0	33.9540	0	26.705	0	324.529	0	79.7	4	26.5	4	-1E+10	1	-1E+10	1	-1E+10	1	-1E+10	1	-1E+10	1	-1E+10	1
4901784	7	C	09/13/2015	10:54	-129.281	46.854	0	330.20	0	6.1680	0	33.9540	0	26.709	0	327.202	0	79.8	4	26.5	4	-1E+10	1	-1E+10	1	-1E+10	1	-1E+10	1	-1E+10	1	-1E+10	1
4901784	7	C	09/13/2015	10:54	-129.281	46.854	0	332.90	0	6.1460	0	33.9510	0	26.709	0	329.876	0	79.7	4	26.4	4	-1E+10	1	-1E+10	1	-1E+10	1	-1E+10	1	-1E+10	1	-1E+10	1
4901784	7	C	09/13/2015	10:54	-129.281	46.854	0	334.70	0	6.1390	0	33.9510	0	26.710	0	331.658	0	79.7	4	26.4	4	-1E+10	1	-1E+10	1	-1E+10	1	-1E+10	1	-1E+10	1	-1E+10	1
4901784	7	C	09/13/2015	10:54	-129.281	46.854	0	337.40	0	6.0780	0	33.9510	0	26.718	0	334.331	0	79.2	4	26.2	4	-1E+10	1	-1E+10	1	-1E+10	1	-1E+10	1	-1E+10	1	-1E+10	1
4901784	7	C	09/13/2015	10:54	-129.281	46.854	0	340.00	0	6.0370	0	33.9480	0	26.721	0	336.905	0	78.0	4	25.8	4	-1E+10	1	-1E+10	1	-1E+10	1	-1E+10	1	-1E+10	1	-1E+10	1
4901784	7	C	09/13/2015	10:54	-129.281	46.854	0	342.70	0	6.0510	0	33.9540	0	26.724	0	339.579	0	75.9	4	25.1	4	-1E+10	1	-1E+10	1	-1E+10	1	-1E+10	1	-1E+10	1	-1E+10	1
4901784	7	C	09/13/2015	10:54	-129.281	46.854	0	345.40	0	6.0400	0	33.9580	0	26.728	0	342.252	0	75.2	4	24.9	4	-1E+10	1	-1E+10	1	-1E+10	1	-1E+10	1	-1E+10	1	-1E+10	1
4901784	7	C	09/13/2015	10:54	-129.281	46.854	0	347.20	0	6.0120	0	33.9570	0	26.731	0	344.034	0	74.9	4	24.8	4	-1E+10	1	-1E+10	1	-1E+10	1	-1E+10	1	-1E+10	1	-1E+10	1
4901784	7	C	09/13/2015	10:54	-129.281	46.854	0	349.90	0	5.9850	0	33.9590	0	26.736	0	346.707	0	73.8	4	24.4	4	-1E+10	1	-1E+10	1	-1E+10	1	-1E+10	1	-1E+10	1	-1E+10	1
4901784	7	C	09/13/2015	10:54	-129.281	46.854	0	352.50	0	5.9980	0	33.9630	0	26.737	0	349.281	0	74.7	4	24.7	4	-1E+10	1	-1E+10	1	-1E+10	1	-1E+10	1	-1E+10	1	-1E+10	1
4901784	7	C	09/13/2015	10:54	-129.281	46.854	0	355.10	0	5.9110	0	33.9540	0	26.741	0	351.855	0	76.3	4	25.2	4	-1E+10	1	-1E+10	1	-1E+10	1	-1E+10	1	-1E+10	1	-1E+10	1
4901784	7	C	09/13/2015	10:54	-129.281	46.854	0	357.80	0	5.8380	0	33.9480	0	26.745	0	354.528	0	76.6	4	25.2	4	-1E+10	1	-1E+10	1	-1E+10	1	-1E+10	1	-1E+10	1	-1E+10	1
4901784	7	C	09/13/2015	10:54	-129.281	46.854	0	359.60	0	5.7940	0	33.9450	0	26.749	0	356.310	0	76.0	4	25.0	4	-1E+10	1	-1E+10	1	-1E+10	1	-1E+10	1	-1E+10	1	-1E+10	1
4901784	7	C	09/13/2015	10:54	-129.281	46.854	0	362.40	0	5.7810	0	33.9470	0	26.752	0	359.082	0	73.1	4	24.0	4	-1E+10	1	-1E+10	1	-1E+10	1	-1E+10	1	-1E+10	1	-1E+10	1
4901784	7	C	09/13/2015	10:54	-129.281	46.854	0	365.10	0	5.8350	0	33.9640	0	26.759	0	361.755	0	70.4	4	23.2	4	-1E+10	1	-1E+10	1	-1E+10	1	-1E+10	1	-1E+10	1	-1E+10	1
4901784	7	C	09/13/2015	10:54	-129.281	46.854	0	367.00	0	5.8070	0	33.9620	0	26.760	0	363.636	0	69.9	4	23.0	4	-1E+10	1	-1E+10	1	-1E+10	1	-1E+10	1	-1E+10	1	-1E+10	1
4901784	7	C	09/13/2015	10:54	-129.281	46.854	0	369.70	0	5.8300	0	33.9660	0	26.761	0	366.309	0	68.8	4	22.6	4	-1E+10	1	-1E+10	1	-1E+10	1	-1E+10	1	-1E+10	1	-1E+10	1
4901784	7	C	09/13/2015	10:54	-129.281	46.854	0	372.50	0	5.8300	0	33.9660	0	26.761	0	369.081	0	67.7	4	22.3	4	-1E+10	1	-1E+10	1	-1E+10	1	-1E+10	1	-1E+10	1	-1E+10	1
4901784	7	C	09/13/2015	10:54	-129.281	46.854	0	375.30	0	5.8300	0	33.9720	0	26.766	0	371.852	0	67.4	4	22.2	4	-1E+10	1	-1E+10	1	-1E+10	1	-1E+10	1	-1E+10	1	-1E+10	1
4901784	7	C	09/13/2015	10:54	-129.281	46.854	0	378.00	0	5.8110	0	33.9700	0	26.766	0	374.525	0	68.3	4	22.5	4	-1E+10	1	-1E+10	1	-1E+10	1	-1E+10	1	-1E+10	1	-1E+10	1
4901784	7	C	09/13/2015	10:54	-129.281	46.854	0	379.90	0	5.7840	0	33.9670	0	26.767	0	376.406	0	69.1	4	22.7	4	-1E+10	1	-1E+10	1	-1E+10	1	-1E+10	1	-1E+10	1	-1E+10	1
4901784	7	C	09/13/2015	10:54	-129.281	46.854	0	382.60	0	5.6830	0	33.9610	0	26.775	0	379.079	0	70.8	4	23.2	4	-1E+10	1	-1E+10	1	-1E+10	1	-1E+10	1	-1E+10	1	-1E+10	1
4901784	7	C	09/13/2015	10:54	-129.281	46.854	0	385.50	0	5.6260	0	33.9580	0	26.779	0	381.949	0	72.4	4	23.7	4	-1E+10	1	-1E+10	1	-1E+10	1	-1E+10	1	-1E+10	1	-1E+10	1
4901784	7	C	09/13/2015	10:54	-129.281	46.854	0	387.40	0	5.5200	0	33.9520	0	26.787	0	383.830	0	73.4	4	24.0	4	-1E+10	1	-1E+10	1	-1E+10	1	-1E+10	1	-1E+10	1	-1E+10	1
4901784	7	C	09/13/2015	10:54	-129.281	46.854	0	390.10	0	5.4860	0	33.9480	0	26.788	0	386.503	0	73.5	4	24.0	4	-1E+10	1	-1E+10	1	-1E+10	1	-1E+10	1	-1E+10	1	-1E+10	1
4901784	7	C	09/13/2015	10:54	-129.281	46.854	0	392.90	0	5.4380	0	33.9430	0	26.790	0	389.274	0	73.6	4	24.0	4	-1E+10	1	-1E+10	1	-1E+10	1	-1E+10	1	-1E+10	1	-1E+10	1
4901784	7	C	09/13/2015	10:54	-129.281	46.854	0	394.70	0	5.4220	0	33.9430	0	26.792	0	391.056	0	73.3	4	23.9	4	-1E+10	1	-1E+10	1	-1E+10	1	-1E+10	1	-1E+10	1	-1E+10	1
4901784	7	C	09/13/2015	10:54	-129.281	46.854	0	397.40	0	5.3690	0	33.9420	0	26.798	0	393.728	0	73.0	4	23.8	4	-1E+10	1	-1E+10	1	-1E+10	1	-1E+10	1	-1E+10	1	-1E+10	1
4901784	7	C	09/13/2015	10:54	-129.281	46.854	0	400.20	0	5.3350	0	33.9410	0	26.801	0	396.500	0	72.5	4	23.6	4	-1E+10	1	-1E+10	1	-1E+10	1	-1E+10	1	-1E+10	1	-1E+10	1
4901784	7	C	09/13/2015	10:54	-129.281	46.854	0	402.00	0	5.3000	0	33.9420	0	26.806	0	398.281	0	71.8	4	23.3	4	-1E+10	1	-1E+10	1	-1E+10	1	-1E+10	1	-1E+10	1	-1E+10	1
4901784	7	C	09/13/2015	10:54	-129.281	46.854	0	404.80	0	5.2860	0	33.9440	0	26.809	0	401.053	0	71.2	4	23.1	4	-1E+10	1	-1E+10	1	-1E+10	1	-1E+10	1	-1E+10	1	-1E+10	1
4901784	7	C	09/13/2015	10:54	-129.281	46.854	0	407.50	0	5.2440	0	33.9450	0	26.815	0	403.725	0	70.8	4	23.0	4	-1E+10	1	-1E+10	1	-1E+10	1	-1E+10	1	-1E+10	1	-1E+10	1
4901784	7	C	09/13/2015	10:54	-129.281	46.854	0	410.20	0	5.2040	0	33.9450	0	26.819	0	406.398	0	70.6	4	22.9	4	-1E+10	1	-1E+10	1	-1E+10	1	-1E+10	1	-1E+10	1	-1E+10	1
4901784	7	C	09/13/2015	10:54	-129.281	46.854	0	412.90	0	5.1480	0	33.9440	0	26.825	0	409.070	0	70.2	4	22.7	4	-1E+10	1	-1E+10	1	-1E+10	1	-1E+10	1	-1E+10	1	-1E+10	1
4901784	7	C	09/13/2015	10:54	-129.281	46.854	0	414.70	0	5.1360	0	33.9440	0	26.826	0	410.851	0	69.6	4	22.6	4	-1E+10	1	-1E+10	1	-1E+10	1	-1E+10	1	-1E+10	1	-1E+10	1
4901784	7	C	09/13/2015	10:54	-129.281	46.854	0	417.50	0	5.1280	0	33.9460	0	26.829	0	413.623	0	68.5	4	22.2	4	-1E+10	1	-1E+10	1	-1E+10	1	-1E+10	1	-1E+10	1	-1E+10	1
4901784	7	C	09/13/2015	10:54	-129.281	46.854	0	420.20	0	5.1110	0	33.9490	0	26.833	0	416.295	0	67.2	4	21.7	4	-1E+10	1	-1E+10	1	-1E+10	1	-1E+10	1	-1E+10	1	-1E+10	1
4901784	7	C	09/13/2015	10:54	-129.281	46.854	0	422.00	0	5.0980	0	33.9500	0	26.836	0	418.076	0	66.3	4	21.4	4	-1E+10	1	-1E+10	1	-1E+10	1	-1E+10	1	-1E+10	1	-1E+10	1
4901784	7	C	09/13/2015	10:54	-129.281	46.854	0	424.70	0	5.0910	0	33.9540	0	26.840	0	420.748	0	64.6	4	20.9	4	-1E+10	1	-1E+10	1	-1E+10	1	-1E+10	1	-1E+10	1	-1E+10	1
4901784	7	C	09/13/2015	10:54	-129.281	46.854	0	427.40	0	5.1180	0	33.9620	0	26.843	0	423.421	0	62.9	4	20.4	4	-1E+10	1	-1E+10	1	-1E+10	1	-1E+10	1	-1E+10	1	-1E+10	1
4901784	7	C	09/13/2015	10:54	-129.281	46.854	0	430.20	0	5.0960	0	33.9640	0	26.847	0	426.192	0	61.6	4	19.9	4	-1E+10	1	-1E+10	1	-1E+10	1	-1E+10	1	-1E+10	1	-1E+10	1
4901784	7	C	09/13/2015	10:54	-129.281	46.854	0	432.90	0	5.0900	0	33.9670	0	26.850	0	428.864	0	60.0	4	19.4	4	-1E+10	1	-1E+10	1	-1E+10	1	-1E+10	1	-1E+10	1	-1E+10	1
4901784	7	C	09/13/2015	10:54	-129.281	46.854	0	434.70	0	5.0820	0	33.9730	0	26.856	0	430.645	0	59.1	4	19.1	4	-1E+10	1	-1E+10	1	-1E+10	1	-1E+10	1	-1E+10	1	-1E+10	1
4901784	7	C	09/13/2015	10:54	-129.281	46.854	0	437.40	0	5.0720	0	33.9760	0	26.859	0	433.317	0	58.0	4	18.7	4	-1E+10	1	-1E+10	1	-1E+10	1	-1E+10	1	-1E+10	1	-1E+10	1
4901784	7	C	09/13/2015	10:54	-129.281	46.854	0	440.20	0	5.0450	0	33.9770	0	26.863	0	436.088	0	56.7	4	18.3	4	-1E+10	1	-1E+10	1	-1E+10	1	-1E+10	1	-1E+10	1	-1E+10	1
4901784	7	C	09/13/2015	10:54	-129.281	46.854	0	442.10	0	5.0400	0	33.9820	0	26.868	0	437.968	0	55.4	4	17.9	4	-1E+10	1	-1E+10	1	-1E+10	1	-1E+10	1	-1E+10	1	-1E+10	1
4901784	7	C	09/13/2015	10:54	-129.281	46.854	0	444.80	0	5.0470	0	33.9860	0	26.870	0	440.640	0	53.6	4	17.3	4	-1E+10	1	-1E+10	1	-1E+10	1	-1E+10	1	-1E+10	1	-1E+10	1
4901784	7	C	09/13/2015	10:54	-129.281	46.854	0	447.60	0	5.0590	0	33.9930	0	26.874	0	443.411	0	51.6	4	16.7	4	-1E+10	1	-1E+10	1	-1E+10	1	-1E+10	1	-1E+10	1	-1E+10	1
4901784	7	C	09/13/2015	10:54	-129.281	46.854	0	449.40	0	5.0650	0	33.9970	0	26.877	0	445.192	0	50.3	4	16.3	4	-1E+10	1	-1E+10	1	-1E+10	1	-1E+10	1	-1E+10	1	-1E+10	1
4901784	7	C	09/13/2015	10:54	-129.281	46.854	0	452.20	0	5.0740	0	34.0040	0	26.881	0	447.963	0	48.6	4	15.7	4	-1E+10	1	-1E+10	1	-1E+10	1	-1E+10	1	-1E+10	1	-1E+10	1
4901784	7	C	09/13/2015	10:54	-129.281	46.854	0	454.90	0	5.0710	0	34.0110	0	26.887	0	450.635	0	47.2	4	15.3	4	-1E+10	1	-1E+10	1	-1E+10	1	-1E+10	1	-1E+10	1	-1E+10	1
4901784	7	C	09/13/2015	10:54	-129.281	46.854	0	457.70	0	5.0800	0	34.0180	0	26.892	0	453.405	0	46.2	4	14.9	4	-1E+10	1	-1E+10	1	-1E+10	1	-1E+10	1	-1E+10	1	-1E+10	1
4901784	7	C	09/13/2015	10:54	-129.281	46.854	0	460.40	0	5.0810	0	34.0180	0	26.892	0	456.077	0	45.7	4	14.8	4	-1E+10	1	-1E+10	1	-1E+10	1	-1E+10	1	-1E+10	1	-1E+10	1
4901784	7	C	09/13/2015	10:54	-129.281	46.854	0	462.20	0	5.0680	0	34.0210	0	26.896	0	457.858	0	45.3	4	14.7	4	-1E+10	1	-1E+10	1	-1E+10	1	-1E+10	1	-1E+10	1	-1E+10	1
4901784	7	C	09/13/2015	10:54	-129.281	46.854	0	465.00	0	5.0600	0	34.0210	0	26.897	0	460.629	0	44.4	4	14.4	4	-1E+10	1	-1E+10	1	-1E+10	1	-1E+10	1	-1E+10	1	-1E+10	1
4901784	7	C	09/13/2015	10:54	-129.281	46.854	0	467.70	0	5.0580	0	34.0250	0	26.900	0	463.300	0	43.3	4	14.0	4	-1E+10	1	-1E+10	1	-1E+10	1	-1E+10	1	-1E+10	1	-1E+10	1
4901784	7	C	09/13/2015	10:54	-129.281	46.854	0	469.50	0	5.0480	0	34.0280	0	26.904	0	465.081	0	42.8	4	13.8	4	-1E+10	1	-1E+10	1	-1E+10	1	-1E+10	1	-1E+10	1	-1E+10	1
4901784	7	C	09/13/2015	10:54	-129.281	46.854	0	472.50	0	5.0300	0	34.0320	0	26.909	0	468.050	0	42.3	4	13.7	4	-1E+10	1	-1E+10	1	-1E+10	1	-1E+10	1	-1E+10	1	-1E+10	1
4901784	7	C	09/13/2015	10:54	-129.281	46.854	0	474.90	0	5.0030	0	34.0320	0	26.912	0	470.425	0	42.0	4	13.6	4	-1E+10	1	-1E+10	1	-1E+10	1	-1E+10	1	-1E+10	1	-1E+10	1
4901784	7	C	09/13/2015	10:54	-129.281	46.854	0	477.30	0	5.0070	0	34.0340	0	26.913	0	472.799	0	41.3	4	13.3	4	-1E+10	1	-1E+10	1	-1E+10	1	-1E+10	1	-1E+10	1	-1E+10	1
4901784	7	C	09/13/2015	10:54	-129.281	46.854	0	479.70	0	4.9850	0	34.0350	0	26.916	0	475.174	0	40.5	4	13.1	4	-1E+10	1	-1E+10	1	-1E+10	1	-1E+10	1	-1E+10	1	-1E+10	1
4901784	7	C	09/13/2015	10:54	-129.281	46.854	0	482.20	0	4.9880	0	34.0390	0	26.919	0	477.647	0	39.4	4	12.7	4	-1E+10	1	-1E+10	1	-1E+10	1	-1E+10	1	-1E+10	1	-1E+10	1
4901784	7	C	09/13/2015	10:54	-129.281	46.854	0	484.60	0	4.9850	0	34.0440	0	26.924	0	480.022	0	38.9	4	12.6	4	-1E+10	1	-1E+10	1	-1E+10	1	-1E+10	1	-1E+10	1	-1E+10	1
4901784	7	C	09/13/2015	10:54	-129.281	46.854	0	487.80	0	4.9590	0	34.0440	0	26.926	0	483.188	0	38.6	4	12.5	4	-1E+10	1	-1E+10	1	-1E+10	1	-1E+10	1	-1E+10	1	-1E+10	1
4901784	7	C	09/13/2015	10:54	-129.281	46.854	0	490.30	0	4.9550	0	34.0460	0	26.929	0	485.661	0	38.2	4	12.3	4	-1E+10	1	-1E+10	1	-1E+10	1	-1E+10	1	-1E+10	1	-1E+10	1
4901784	7	C	09/13/2015	10:54	-129.281	46.854	0	492.80	0	4.9430	0	34.0480	0	26.931	0	488.135	0	37.8	4	12.2	4	-1E+10	1	-1E+10	1	-1E+10	1	-1E+10	1	-1E+10	1	-1E+10	1
4901784	7	C	09/13/2015	10:54	-129.281	46.854	0	495.30	0	4.9200	0	34.0480	0	26.934	0	490.608	0	37.7	4	12.2	4	-1E+10	1	-1E+10	1	-1E+10	1	-1E+10	1	-1E+10	1	-1E+10	1
4901784	7	C	09/13/2015	10:54	-129.281	46.854	0	497.80	0	4.8940	0	34.0450	0	26.935	0	493.082	0	37.7	4	12.1	4	-1E+10	1	-1E+10	1	-1E+10	1	-1E+10	1	-1E+10	1	-1E+10	1
4901784	7	C	09/13/2015	10:54	-129.281	46.854	0	500.30	0	4.8510	0	34.0430	0	26.938	0	495.555	0	37.5	4	12.1	4	-1E+10	1	-1E+10	1	-1E+10	1	-1E+10	1	-1E+10	1	-1E+10	1
4901784	7	C	09/13/2015	10:54	-129.281	46.854	0	505.40	0	4.7760	0	34.0480	0	26.950	0	500.600	0	36.9	4	11.8	4	-1E+10	1	-1E+10	1	-1E+10	1	-1E+10	1	-1E+10	1	-1E+10	1
4901784	7	C	09/13/2015	10:54	-129.281	46.854	0	510.50	0	4.7670	0	34.0530	0	26.955	0	505.646	0	35.3	4	11.3	4	-1E+10	1	-1E+10	1	-1E+10	1	-1E+10	1	-1E+10	1	-1E+10	1
4901784	7	C	09/13/2015	10:54	-129.281	46.854	0	515.70	0	4.7910	0	34.0610	0	26.959	0	510.790	0	33.7	4	10.8	4	-1E+10	1	-1E+10	1	-1E+10	1	-1E+10	1	-1E+10	1	-1E+10	1
4901784	7	C	09/13/2015	10:54	-129.281	46.854	0	520.10	0	4.7890	0	34.0660	0	26.963	0	515.143	0	32.5	4	10.5	4	-1E+10	1	-1E+10	1	-1E+10	1	-1E+10	1	-1E+10	1	-1E+10	1
4901784	7	C	09/13/2015	10:54	-129.281	46.854	0	524.40	0	4.7660	0	34.0710	0	26.970	0	519.396	0	31.0	4	10.0	4	-1E+10	1	-1E+10	1	-1E+10	1	-1E+10	1	-1E+10	1	-1E+10	1
4901784	7	C	09/13/2015	10:54	-129.281	46.854	0	529.80	0	4.7940	0	34.0850	0	26.978	0	524.738	0	29.2	4	9.4	4	-1E+10	1	-1E+10	1	-1E+10	1	-1E+10	1	-1E+10	1	-1E+10	1
4901784	7	C	09/13/2015	10:54	-129.281	46.854	0	535.30	0	4.8040	0	34.0880	0	26.979	0	530.178	0	28.7	4	9.2	4	-1E+10	1	-1E+10	1	-1E+10	1	-1E+10	1	-1E+10	1	-1E+10	1
4901784	7	C	09/13/2015	10:54	-129.281	46.854	0	539.90	0	4.7470	0	34.0890	0	26.986	0	534.728	0	28.3	4	9.1	4	-1E+10	1	-1E+10	1	-1E+10	1	-1E+10	1	-1E+10	1	-1E+10	1
4901784	7	C	09/13/2015	10:54	-129.281	46.854	0	545.30	0	4.7620	0	34.0920	0	26.987	0	540.070	0	28.5	4	9.2	4	-1E+10	1	-1E+10	1	-1E+10	1	-1E+10	1	-1E+10	1	-1E+10	1
4901784	7	C	09/13/2015	10:54	-129.281	46.854	0	550.50	0	4.6570	0	34.0850	0	26.993	0	545.213	0	29.1	4	9.3	4	-1E+10	1	-1E+10	1	-1E+10	1	-1E+10	1	-1E+10	1	-1E+10	1
4901784	7	C	09/13/2015	10:54	-129.281	46.854	0	555.30	0	4.6280	0	34.0850	0	26.996	0	549.960	0	29.1	4	9.3	4	-1E+10	1	-1E+10	1	-1E+10	1	-1E+10	1	-1E+10	1	-1E+10	1
4901784	7	C	09/13/2015	10:54	-129.281	46.854	0	560.10	0	4.5970	0	34.0850	0	27.000	0	554.708	0	29.1	4	9.3	4	-1E+10	1	-1E+10	1	-1E+10	1	-1E+10	1	-1E+10	1	-1E+10	1
4901784	7	C	09/13/2015	10:54	-129.281	46.854	0	565.00	0	4.5380	0	34.0850	0	27.006	0	559.554	0	29.3	4	9.4	4	-1E+10	1	-1E+10	1	-1E+10	1	-1E+10	1	-1E+10	1	-1E+10	1
4901784	7	C	09/13/2015	10:54	-129.281	46.854	0	570.00	0	4.5240	0	34.0840	0	27.007	0	564.499	0	29.0	4	9.3	4	-1E+10	1	-1E+10	1	-1E+10	1	-1E+10	1	-1E+10	1	-1E+10	1
4901784	7	C	09/13/2015	10:54	-129.281	46.854	0	575.00	0	4.5060	0	34.0890	0	27.013	0	569.444	0	27.5	4	8.8	4	-1E+10	1	-1E+10	1	-1E+10	1	-1E+10	1	-1E+10	1	-1E+10	1
4901784	7	C	09/13/2015	10:54	-129.281	46.854	0	580.00	0	4.5300	0	34.1040	0	27.022	0	574.389	0	25.2	4	8.0	4	-1E+10	1	-1E+10	1	-1E+10	1	-1E+10	1	-1E+10	1	-1E+10	1
4901784	7	C	09/13/2015	10:54	-129.281	46.854	0	585.10	0	4.5460	0	34.1130	0	27.028	0	579.432	0	23.5	4	7.5	4	-1E+10	1	-1E+10	1	-1E+10	1	-1E+10	1	-1E+10	1	-1E+10	1
4901784	7	C	09/13/2015	10:54	-129.281	46.854	0	590.10	0	4.6000	0	34.1280	0	27.034	0	584.377	0	21.4	4	6.8	4	-1E+10	1	-1E+10	1	-1E+10	1	-1E+10	1	-1E+10	1	-1E+10	1
4901784	7	C	09/13/2015	10:54	-129.281	46.854	0	595.10	0	4.6290	0	34.1380	0	27.039	0	589.321	0	20.6	4	6.6	4	-1E+10	1	-1E+10	1	-1E+10	1	-1E+10	1	-1E+10	1	-1E+10	1
4901784	7	C	09/13/2015	10:54	-129.281	46.854	0	600.20	0	4.6020	0	34.1390	0	27.042	0	594.365	0	20.5	4	6.6	4	-1E+10	1	-1E+10	1	-1E+10	1	-1E+10	1	-1E+10	1	-1E+10	1
4901784	7	C	09/13/2015	10:54	-129.281	46.854	0	605.30	0	4.5670	0	34.1400	0	27.047	0	599.408	0	20.4	4	6.5	4	-1E+10	1	-1E+10	1	-1E+10	1	-1E+10	1	-1E+10	1	-1E+10	1
4901784	7	C	09/13/2015	10:54	-129.281	46.854	0	610.40	0	4.5490	0	34.1430	0	27.051	0	604.451	0	19.6	4	6.3	4	-1E+10	1	-1E+10	1	-1E+10	1	-1E+10	1	-1E+10	1	-1E+10	1
4901784	7	C	09/13/2015	10:54	-129.281	46.854	0	615.50	0	4.5770	0	34.1530	0	27.056	0	609.493	0	18.6	4	5.9	4	-1E+10	1	-1E+10	1	-1E+10	1	-1E+10	1	-1E+10	1	-1E+10	1
4901784	7	C	09/13/2015	10:54	-129.281	46.854	0	620.60	0	4.5680	0	34.1570	0	27.061	0	614.536	0	18.2	4	5.8	4	-1E+10	1	-1E+10	1	-1E+10	1	-1E+10	1	-1E+10	1	-1E+10	1
4901784	7	C	09/13/2015	10:54	-129.281	46.854	0	625.70	0	4.5350	0	34.1600	0	27.067	0	619.579	0	17.8	4	5.7	4	-1E+10	1	-1E+10	1	-1E+10	1	-1E+10	1	-1E+10	1	-1E+10	1
4901784	7	C	09/13/2015	10:54	-129.281	46.854	0	630.00	0	4.5310	0	34.1680	0	27.073	0	623.830	0	17.3	4	5.5	4	-1E+10	1	-1E+10	1	-1E+10	1	-1E+10	1	-1E+10	1	-1E+10	1
4901784	7	C	09/13/2015	10:54	-129.281	46.854	0	634.20	0	4.5040	0	34.1690	0	27.077	0	627.983	0	17.2	4	5.5	4	-1E+10	1	-1E+10	1	-1E+10	1	-1E+10	1	-1E+10	1	-1E+10	1
4901784	7	C	09/13/2015	10:54	-129.281	46.854	0	639.40	0	4.4780	0	34.1710	0	27.082	0	633.124	0	16.9	4	5.4	4	-1E+10	1	-1E+10	1	-1E+10	1	-1E+10	1	-1E+10	1	-1E+10	1
4901784	7	C	09/13/2015	10:54	-129.281	46.854	0	644.50	0	4.4760	0	34.1760	0	27.086	0	638.166	0	16.5	4	5.3	4	-1E+10	1	-1E+10	1	-1E+10	1	-1E+10	1	-1E+10	1	-1E+10	1
4901784	7	C	09/13/2015	10:54	-129.281	46.854	0	649.60	0	4.4830	0	34.1830	0	27.091	0	643.208	0	15.8	4	5.1	4	-1E+10	1	-1E+10	1	-1E+10	1	-1E+10	1	-1E+10	1	-1E+10	1
4901784	7	C	09/13/2015	10:54	-129.281	46.854	0	654.60	0	4.4890	0	34.1870	0	27.093	0	648.151	0	15.5	4	4.9	4	-1E+10	1	-1E+10	1	-1E+10	1	-1E+10	1	-1E+10	1	-1E+10	1
4901784	7	C	09/13/2015	10:54	-129.281	46.854	0	659.60	0	4.4750	0	34.1910	0	27.098	0	653.094	0	15.3	4	4.9	4	-1E+10	1	-1E+10	1	-1E+10	1	-1E+10	1	-1E+10	1	-1E+10	1
4901784	7	C	09/13/2015	10:54	-129.281	46.854	0	664.60	0	4.4660	0	34.1930	0	27.101	0	658.037	0	15.1	4	4.8	4	-1E+10	1	-1E+10	1	-1E+10	1	-1E+10	1	-1E+10	1	-1E+10	1
4901784	7	C	09/13/2015	10:54	-129.281	46.854	0	669.70	0	4.4540	0	34.1950	0	27.104	0	663.078	0	15.0	4	4.8	4	-1E+10	1	-1E+10	1	-1E+10	1	-1E+10	1	-1E+10	1	-1E+10	1
4901784	7	C	09/13/2015	10:54	-129.281	46.854	0	674.80	0	4.4290	0	34.1980	0	27.109	0	668.120	0	15.0	4	4.8	4	-1E+10	1	-1E+10	1	-1E+10	1	-1E+10	1	-1E+10	1	-1E+10	1
4901784	7	C	09/13/2015	10:54	-129.281	46.854	0	680.00	0	4.3880	0	34.1980	0	27.113	0	673.260	0	15.3	4	4.9	4	-1E+10	1	-1E+10	1	-1E+10	1	-1E+10	1	-1E+10	1	-1E+10	1
4901784	7	C	09/13/2015	10:54	-129.281	46.854	0	685.10	0	4.3250	0	34.1950	0	27.117	0	678.301	0	15.6	4	5.0	4	-1E+10	1	-1E+10	1	-1E+10	1	-1E+10	1	-1E+10	1	-1E+10	1
4901784	7	C	09/13/2015	10:54	-129.281	46.854	0	690.20	0	4.2970	0	34.1970	0	27.122	0	683.342	0	15.7	4	5.0	4	-1E+10	1	-1E+10	1	-1E+10	1	-1E+10	1	-1E+10	1	-1E+10	1
4901784	7	C	09/13/2015	10:54	-129.281	46.854	0	695.30	0	4.2350	0	34.1940	0	27.126	0	688.383	0	15.9	4	5.1	4	-1E+10	1	-1E+10	1	-1E+10	1	-1E+10	1	-1E+10	1	-1E+10	1
4901784	7	C	09/13/2015	10:54	-129.281	46.854	0	700.50	0	4.2510	0	34.1980	0	27.128	0	693.523	0	15.7	4	5.0	4	-1E+10	1	-1E+10	1	-1E+10	1	-1E+10	1	-1E+10	1	-1E+10	1
4901784	7	C	09/13/2015	10:54	-129.281	46.854	0	705.70	0	4.1500	0	34.1920	0	27.133	0	698.662	0	16.4	4	5.2	4	-1E+10	1	-1E+10	1	-1E+10	1	-1E+10	1	-1E+10	1	-1E+10	1
4901784	7	C	09/13/2015	10:54	-129.281	46.854	0	710.00	0	4.1190	0	34.1920	0	27.137	0	702.912	0	16.2	4	5.1	4	-1E+10	1	-1E+10	1	-1E+10	1	-1E+10	1	-1E+10	1	-1E+10	1
4901784	7	C	09/13/2015	10:54	-129.281	46.854	0	714.30	0	4.1080	0	34.1960	0	27.141	0	707.162	0	15.9	4	5.0	4	-1E+10	1	-1E+10	1	-1E+10	1	-1E+10	1	-1E+10	1	-1E+10	1
4901784	7	C	09/13/2015	10:54	-129.281	46.854	0	719.50	0	4.0770	0	34.1970	0	27.145	0	712.301	0	15.7	4	5.0	4	-1E+10	1	-1E+10	1	-1E+10	1	-1E+10	1	-1E+10	1	-1E+10	1
4901784	7	C	09/13/2015	10:54	-129.281	46.854	0	724.60	0	4.0690	0	34.2060	0	27.153	0	717.341	0	15.2	4	4.8	4	-1E+10	1	-1E+10	1	-1E+10	1	-1E+10	1	-1E+10	1	-1E+10	1
4901784	7	C	09/13/2015	10:54	-129.281	46.854	0	729.80	0	4.0610	0	34.2120	0	27.159	0	722.480	0	14.9	4	4.7	4	-1E+10	1	-1E+10	1	-1E+10	1	-1E+10	1	-1E+10	1	-1E+10	1
4901784	7	C	09/13/2015	10:54	-129.281	46.854	0	734.90	0	4.0330	0	34.2160	0	27.165	0	727.520	0	14.5	4	4.6	4	-1E+10	1	-1E+10	1	-1E+10	1	-1E+10	1	-1E+10	1	-1E+10	1
4901784	7	C	09/13/2015	10:54	-129.281	46.854	0	740.20	0	4.0200	0	34.2200	0	27.169	0	732.757	0	14.3	4	4.5	4	-1E+10	1	-1E+10	1	-1E+10	1	-1E+10	1	-1E+10	1	-1E+10	1
4901784	7	C	09/13/2015	10:54	-129.281	46.854	0	745.50	0	3.9960	0	34.2230	0	27.174	0	737.995	0	14.1	4	4.4	4	-1E+10	1	-1E+10	1	-1E+10	1	-1E+10	1	-1E+10	1	-1E+10	1
4901784	7	C	09/13/2015	10:54	-129.281	46.854	0	750.70	0	3.9830	0	34.2300	0	27.181	0	743.133	0	13.8	4	4.3	4	-1E+10	1	-1E+10	1	-1E+10	1	-1E+10	1	-1E+10	1	-1E+10	1
4901784	7	C	09/13/2015	10:54	-129.281	46.854	0	755.10	0	3.9670	0	34.2360	0	27.188	0	747.481	0	13.6	4	4.3	4	-1E+10	1	-1E+10	1	-1E+10	1	-1E+10	1	-1E+10	1	-1E+10	1
4901784	7	C	09/13/2015	10:54	-129.281	46.854	0	759.60	0	3.9530	0	34.2370	0	27.190	0	751.927	0	13.6	4	4.3	4	-1E+10	1	-1E+10	1	-1E+10	1	-1E+10	1	-1E+10	1	-1E+10	1
4901784	7	C	09/13/2015	10:54	-129.281	46.854	0	765.00	0	3.9380	0	34.2390	0	27.193	0	757.263	0	13.5	4	4.2	4	-1E+10	1	-1E+10	1	-1E+10	1	-1E+10	1	-1E+10	1	-1E+10	1
4901784	7	C	09/13/2015	10:54	-129.281	46.854	0	770.40	0	3.9260	0	34.2430	0	27.197	0	762.599	0	13.3	4	4.2	4	-1E+10	1	-1E+10	1	-1E+10	1	-1E+10	1	-1E+10	1	-1E+10	1
4901784	7	C	09/13/2015	10:54	-129.281	46.854	0	775.00	0	3.9210	0	34.2450	0	27.199	0	767.144	0	13.2	4	4.2	4	-1E+10	1	-1E+10	1	-1E+10	1	-1E+10	1	-1E+10	1	-1E+10	1
4901784	7	C	09/13/2015	10:54	-129.281	46.854	0	779.50	0	3.9070	0	34.2470	0	27.203	0	771.590	0	13.2	4	4.2	4	-1E+10	1	-1E+10	1	-1E+10	1	-1E+10	1	-1E+10	1	-1E+10	1
4901784	7	C	09/13/2015	10:54	-129.281	46.854	0	785.10	0	3.8950	0	34.2500	0	27.206	0	777.122	0	13.1	4	4.1	4	-1E+10	1	-1E+10	1	-1E+10	1	-1E+10	1	-1E+10	1	-1E+10	1
4901784	7	C	09/13/2015	10:54	-129.281	46.854	0	789.70	0	3.8860	0	34.2520	0	27.209	0	781.667	0	13.0	4	4.1	4	-1E+10	1	-1E+10	1	-1E+10	1	-1E+10	1	-1E+10	1	-1E+10	1
4901784	7	C	09/13/2015	10:54	-129.281	46.854	0	794.80	0	3.8760	0	34.2530	0	27.211	0	786.706	0	13.0	4	4.1	4	-1E+10	1	-1E+10	1	-1E+10	1	-1E+10	1	-1E+10	1	-1E+10	1
4901784	7	C	09/13/2015	10:54	-129.281	46.854	0	800.00	0	3.8580	0	34.2550	0	27.214	0	791.843	0	13.0	4	4.1	4	-1E+10	1	-1E+10	1	-1E+10	1	-1E+10	1	-1E+10	1	-1E+10	1
4901784	7	C	09/13/2015	10:54	-129.281	46.854	0	804.70	0	3.8480	0	34.2560	0	27.216	0	796.486	0	13.0	4	4.1	4	-1E+10	1	-1E+10	1	-1E+10	1	-1E+10	1	-1E+10	1	-1E+10	1
4901784	7	C	09/13/2015	10:54	-129.281	46.854	0	809.60	0	3.8270	0	34.2580	0	27.220	0	801.326	0	13.1	4	4.1	4	-1E+10	1	-1E+10	1	-1E+10	1	-1E+10	1	-1E+10	1	-1E+10	1
4901784	7	C	09/13/2015	10:54	-129.281	46.854	0	814.40	0	3.8060	0	34.2610	0	27.224	0	806.068	0	12.9	4	4.0	4	-1E+10	1	-1E+10	1	-1E+10	1	-1E+10	1	-1E+10	1	-1E+10	1
4901784	7	C	09/13/2015	10:54	-129.281	46.854	0	819.30	0	3.8060	0	34.2650	0	27.227	0	810.909	0	12.7	4	4.0	4	-1E+10	1	-1E+10	1	-1E+10	1	-1E+10	1	-1E+10	1	-1E+10	1
4901784	7	C	09/13/2015	10:54	-129.281	46.854	0	824.90	0	3.7930	0	34.2670	0	27.230	0	816.440	0	12.7	4	4.0	4	-1E+10	1	-1E+10	1	-1E+10	1	-1E+10	1	-1E+10	1	-1E+10	1
4901784	7	C	09/13/2015	10:54	-129.281	46.854	0	830.70	0	3.7800	0	34.2690	0	27.233	0	822.169	0	12.9	4	4.0	4	-1E+10	1	-1E+10	1	-1E+10	1	-1E+10	1	-1E+10	1	-1E+10	1
4901784	7	C	09/13/2015	10:54	-129.281	46.854	0	835.70	0	3.7470	0	34.2690	0	27.236	0	827.108	0	13.1	4	4.1	4	-1E+10	1	-1E+10	1	-1E+10	1	-1E+10	1	-1E+10	1	-1E+10	1
4901784	7	C	09/13/2015	10:54	-129.281	46.854	0	840.70	0	3.7270	0	34.2670	0	27.237	0	832.047	0	13.3	4	4.2	4	-1E+10	1	-1E+10	1	-1E+10	1	-1E+10	1	-1E+10	1	-1E+10	1
4901784	7	C	09/13/2015	10:54	-129.281	46.854	0	845.00	0	3.7090	0	34.2680	0	27.239	0	836.294	0	13.3	4	4.2	4	-1E+10	1	-1E+10	1	-1E+10	1	-1E+10	1	-1E+10	1	-1E+10	1
4901784	7	C	09/13/2015	10:54	-129.281	46.854	0	849.30	0	3.6990	0	34.2680	0	27.240	0	840.541	0	13.4	4	4.2	4	-1E+10	1	-1E+10	1	-1E+10	1	-1E+10	1	-1E+10	1	-1E+10	1
4901784	7	C	09/13/2015	10:54	-129.281	46.854	0	854.50	0	3.6740	0	34.2710	0	27.245	0	845.677	0	13.4	4	4.2	4	-1E+10	1	-1E+10	1	-1E+10	1	-1E+10	1	-1E+10	1	-1E+10	1
4901784	7	C	09/13/2015	10:54	-129.281	46.854	0	859.70	0	3.6560	0	34.2730	0	27.249	0	850.813	0	13.4	4	4.2	4	-1E+10	1	-1E+10	1	-1E+10	1	-1E+10	1	-1E+10	1	-1E+10	1
4901784	7	C	09/13/2015	10:54	-129.281	46.854	0	864.90	0	3.6330	0	34.2740	0	27.252	0	855.948	0	13.6	4	4.2	4	-1E+10	1	-1E+10	1	-1E+10	1	-1E+10	1	-1E+10	1	-1E+10	1
4901784	7	C	09/13/2015	10:54	-129.281	46.854	0	870.10	0	3.6120	0	34.2750	0	27.255	0	861.084	0	13.6	4	4.3	4	-1E+10	1	-1E+10	1	-1E+10	1	-1E+10	1	-1E+10	1	-1E+10	1
4901784	7	C	09/13/2015	10:54	-129.281	46.854	0	875.30	0	3.6010	0	34.2770	0	27.257	0	866.219	0	13.6	4	4.2	4	-1E+10	1	-1E+10	1	-1E+10	1	-1E+10	1	-1E+10	1	-1E+10	1
4901784	7	C	09/13/2015	10:54	-129.281	46.854	0	880.60	0	3.5840	0	34.2790	0	27.261	0	871.453	0	13.5	4	4.2	4	-1E+10	1	-1E+10	1	-1E+10	1	-1E+10	1	-1E+10	1	-1E+10	1
4901784	7	C	09/13/2015	10:54	-129.281	46.854	0	885.10	0	3.5750	0	34.2820	0	27.264	0	875.897	0	13.3	4	4.2	4	-1E+10	1	-1E+10	1	-1E+10	1	-1E+10	1	-1E+10	1	-1E+10	1
4901784	7	C	09/13/2015	10:54	-129.281	46.854	0	889.50	0	3.5730	0	34.2860	0	27.267	0	880.242	0	13.2	4	4.1	4	-1E+10	1	-1E+10	1	-1E+10	1	-1E+10	1	-1E+10	1	-1E+10	1
4901784	7	C	09/13/2015	10:54	-129.281	46.854	0	895.00	0	3.5650	0	34.2890	0	27.271	0	885.673	0	13.0	4	4.1	4	-1E+10	1	-1E+10	1	-1E+10	1	-1E+10	1	-1E+10	1	-1E+10	1
4901784	7	C	09/13/2015	10:54	-129.281	46.854	0	900.40	0	3.5660	0	34.2940	0	27.274	0	891.005	0	12.9	4	4.0	4	-1E+10	1	-1E+10	1	-1E+10	1	-1E+10	1	-1E+10	1	-1E+10	1
4901784	7	C	09/13/2015	10:54	-129.281	46.854	0	904.90	0	3.5470	0	34.2960	0	27.278	0	895.449	0	12.9	4	4.0	4	-1E+10	1	-1E+10	1	-1E+10	1	-1E+10	1	-1E+10	1	-1E+10	1
4901784	7	C	09/13/2015	10:54	-129.281	46.854	0	909.30	0	3.5280	0	34.2970	0	27.281	0	899.793	0	12.9	4	4.0	4	-1E+10	1	-1E+10	1	-1E+10	1	-1E+10	1	-1E+10	1	-1E+10	1
4901784	7	C	09/13/2015	10:54	-129.281	46.854	0	914.50	0	3.5160	0	34.3010	0	27.285	0	904.928	0	12.7	4	4.0	4	-1E+10	1	-1E+10	1	-1E+10	1	-1E+10	1	-1E+10	1	-1E+10	1
4901784	7	C	09/13/2015	10:54	-129.281	46.854	0	919.30	0	3.5140	0	34.3050	0	27.288	0	909.667	0	12.6	4	3.9	4	-1E+10	1	-1E+10	1	-1E+10	1	-1E+10	1	-1E+10	1	-1E+10	1
4901784	7	C	09/13/2015	10:54	-129.281	46.854	0	924.90	0	3.5120	0	34.3080	0	27.291	0	915.196	0	12.5	4	3.9	4	-1E+10	1	-1E+10	1	-1E+10	1	-1E+10	1	-1E+10	1	-1E+10	1
4901784	7	C	09/13/2015	10:54	-129.281	46.854	0	930.50	0	3.5010	0	34.3100	0	27.294	0	920.725	0	12.5	4	3.9	4	-1E+10	1	-1E+10	1	-1E+10	1	-1E+10	1	-1E+10	1	-1E+10	1
4901784	7	C	09/13/2015	10:54	-129.281	46.854	0	935.40	0	3.4880	0	34.3120	0	27.297	0	925.563	0	12.5	4	3.9	4	-1E+10	1	-1E+10	1	-1E+10	1	-1E+10	1	-1E+10	1	-1E+10	1
4901784	7	C	09/13/2015	10:54	-129.281	46.854	0	940.30	0	3.4810	0	34.3140	0	27.299	0	930.400	0	12.5	4	3.9	4	-1E+10	1	-1E+10	1	-1E+10	1	-1E+10	1	-1E+10	1	-1E+10	1
4901784	7	C	09/13/2015	10:54	-129.281	46.854	0	945.30	0	3.4730	0	34.3140	0	27.300	0	935.336	0	12.4	4	3.9	4	-1E+10	1	-1E+10	1	-1E+10	1	-1E+10	1	-1E+10	1	-1E+10	1
4901784	7	C	09/13/2015	10:54	-129.281	46.854	0	950.20	0	3.4560	0	34.3170	0	27.304	0	940.174	0	12.4	4	3.9	4	-1E+10	1	-1E+10	1	-1E+10	1	-1E+10	1	-1E+10	1	-1E+10	1
4901784	7	C	09/13/2015	10:54	-129.281	46.854	0	955.20	0	3.4450	0	34.3190	0	27.306	0	945.110	0	12.4	4	3.9	4	-1E+10	1	-1E+10	1	-1E+10	1	-1E+10	1	-1E+10	1	-1E+10	1
4901784	7	C	09/13/2015	10:54	-129.281	46.854	0	960.20	0	3.4270	0	34.3220	0	27.310	0	950.046	0	12.4	4	3.9	4	-1E+10	1	-1E+10	1	-1E+10	1	-1E+10	1	-1E+10	1	-1E+10	1
4901784	7	C	09/13/2015	10:54	-129.281	46.854	0	965.30	0	3.4150	0	34.3230	0	27.312	0	955.080	0	12.4	4	3.9	4	-1E+10	1	-1E+10	1	-1E+10	1	-1E+10	1	-1E+10	1	-1E+10	1
4901784	7	C	09/13/2015	10:54	-129.281	46.854	0	970.40	0	3.4010	0	34.3260	0	27.316	0	960.114	0	12.3	4	3.8	4	-1E+10	1	-1E+10	1	-1E+10	1	-1E+10	1	-1E+10	1	-1E+10	1
4901784	7	C	09/13/2015	10:54	-129.281	46.854	0	975.50	0	3.3910	0	34.3280	0	27.319	0	965.149	0	12.3	4	3.8	4	-1E+10	1	-1E+10	1	-1E+10	1	-1E+10	1	-1E+10	1	-1E+10	1
4901784	7	C	09/13/2015	10:54	-129.281	46.854	0	980.60	0	3.3830	0	34.3310	0	27.322	0	970.183	0	12.3	4	3.8	4	-1E+10	1	-1E+10	1	-1E+10	1	-1E+10	1	-1E+10	1	-1E+10	1
4901784	7	C	09/13/2015	10:54	-129.281	46.854	0	985.00	0	3.3730	0	34.3320	0	27.324	0	974.526	0	12.3	4	3.8	4	-1E+10	1	-1E+10	1	-1E+10	1	-1E+10	1	-1E+10	1	-1E+10	1
4901784	7	C	09/13/2015	10:54	-129.281	46.854	0	989.30	0	3.3610	0	34.3340	0	27.326	0	978.770	0	12.3	4	3.8	4	-1E+10	1	-1E+10	1	-1E+10	1	-1E+10	1	-1E+10	1	-1E+10	1
4901784	7	C	09/13/2015	10:54	-129.281	46.854	0	994.40	0	3.3490	0	34.3350	0	27.328	0	983.804	0	12.3	4	3.8	4	-1E+10	1	-1E+10	1	-1E+10	1	-1E+10	1	-1E+10	1	-1E+10	1
4901784	7	C	09/13/2015	10:54	-129.281	46.854	0	999.70	0	3.3330	0	34.3380	0	27.332	0	989.035	0	12.3	4	3.8	4	-1E+10	1	-1E+10	1	-1E+10	1	-1E+10	1	-1E+10	1	-1E+10	1
4901784	7	C	09/13/2015	10:54	-129.281	46.854	0	1004.90	0	3.3210	0	34.3400	0	27.335	0	994.167	0	12.3	4	3.8	4	-1E+10	1	-1E+10	1	-1E+10	1	-1E+10	1	-1E+10	1	-1E+10	1
4901784	7	C	09/13/2015	10:54	-129.281	46.854	0	1010.20	0	3.3140	0	34.3420	0	27.337	0	999.398	0	12.3	4	3.8	4	-1E+10	1	-1E+10	1	-1E+10	1	-1E+10	1	-1E+10	1	-1E+10	1
4901784	7	C	09/13/2015	10:54	-129.281	46.854	0	1015.40	0	3.3010	0	34.3440	0	27.340	0	1004.530	0	12.3	4	3.8	4	-1E+10	1	-1E+10	1	-1E+10	1	-1E+10	1	-1E+10	1	-1E+10	1
4901784	7	C	09/13/2015	10:54	-129.281	46.854	0	1020.70	0	3.2880	0	34.3460	0	27.343	0	1009.760	0	12.3	4	3.8	4	-1E+10	1	-1E+10	1	-1E+10	1	-1E+10	1	-1E+10	1	-1E+10	1
4901784	7	C	09/13/2015	10:54	-129.281	46.854	0	1025.20	0	3.2830	0	34.3480	0	27.345	0	1014.201	0	12.3	4	3.8	4	-1E+10	1	-1E+10	1	-1E+10	1	-1E+10	1	-1E+10	1	-1E+10	1
4901784	7	C	09/13/2015	10:54	-129.281	46.854	0	1029.60	0	3.2760	0	34.3490	0	27.347	0	1018.543	0	12.2	4	3.8	4	-1E+10	1	-1E+10	1	-1E+10	1	-1E+10	1	-1E+10	1	-1E+10	1
4901784	7	C	09/13/2015	10:54	-129.281	46.854	0	1034.80	0	3.2590	0	34.3530	0	27.351	0	1023.675	0	12.2	4	3.8	4	-1E+10	1	-1E+10	1	-1E+10	1	-1E+10	1	-1E+10	1	-1E+10	1
4901784	7	C	09/13/2015	10:54	-129.281	46.854	0	1040.20	0	3.2480	0	34.3560	0	27.355	0	1029.003	0	12.2	4	3.8	4	-1E+10	1	-1E+10	1	-1E+10	1	-1E+10	1	-1E+10	1	-1E+10	1
4901784	7	C	09/13/2015	10:54	-129.281	46.854	0	1045.50	0	3.2350	0	34.3590	0	27.359	0	1034.233	0	12.2	4	3.8	4	-1E+10	1	-1E+10	1	-1E+10	1	-1E+10	1	-1E+10	1	-1E+10	1
4901784	7	C	09/13/2015	10:54	-129.281	46.854	0	1050.00	0	3.2300	0	34.3620	0	27.361	0	1038.673	0	12.2	4	3.8	4	-1E+10	1	-1E+10	1	-1E+10	1	-1E+10	1	-1E+10	1	-1E+10	1
4901784	7	C	09/13/2015	10:54	-129.281	46.854	0	1054.50	0	3.2250	0	34.3630	0	27.363	0	1043.114	0	12.2	4	3.8	4	-1E+10	1	-1E+10	1	-1E+10	1	-1E+10	1	-1E+10	1	-1E+10	1
4901784	7	C	09/13/2015	10:54	-129.281	46.854	0	1060.10	0	3.2120	0	34.3650	0	27.366	0	1048.639	0	12.2	4	3.8	4	-1E+10	1	-1E+10	1	-1E+10	1	-1E+10	1	-1E+10	1	-1E+10	1
4901784	7	C	09/13/2015	10:54	-129.281	46.854	0	1065.50	0	3.2030	0	34.3670	0	27.368	0	1053.967	0	12.2	4	3.8	4	-1E+10	1	-1E+10	1	-1E+10	1	-1E+10	1	-1E+10	1	-1E+10	1
4901784	7	C	09/13/2015	10:54	-129.281	46.854	0	1070.10	0	3.1970	0	34.3680	0	27.369	0	1058.506	0	12.3	4	3.8	4	-1E+10	1	-1E+10	1	-1E+10	1	-1E+10	1	-1E+10	1	-1E+10	1
4901784	7	C	09/13/2015	10:54	-129.281	46.854	0	1074.70	0	3.1890	0	34.3690	0	27.371	0	1063.044	0	12.3	4	3.8	4	-1E+10	1	-1E+10	1	-1E+10	1	-1E+10	1	-1E+10	1	-1E+10	1
4901784	7	C	09/13/2015	10:54	-129.281	46.854	0	1080.30	0	3.1750	0	34.3710	0	27.374	0	1068.570	0	12.3	4	3.8	4	-1E+10	1	-1E+10	1	-1E+10	1	-1E+10	1	-1E+10	1	-1E+10	1
4901784	7	C	09/13/2015	10:54	-129.281	46.854	0	1084.90	0	3.1690	0	34.3740	0	27.377	0	1073.108	0	12.3	4	3.8	4	-1E+10	1	-1E+10	1	-1E+10	1	-1E+10	1	-1E+10	1	-1E+10	1
4901784	7	C	09/13/2015	10:54	-129.281	46.854	0	1089.60	0	3.1680	0	34.3760	0	27.379	0	1077.745	0	12.3	4	3.8	4	-1E+10	1	-1E+10	1	-1E+10	1	-1E+10	1	-1E+10	1	-1E+10	1
4901784	7	C	09/13/2015	10:54	-129.281	46.854	0	1094.90	0	3.1680	0	34.3800	0	27.382	0	1082.973	0	12.3	4	3.8	4	-1E+10	1	-1E+10	1	-1E+10	1	-1E+10	1	-1E+10	1	-1E+10	1
4901784	7	C	09/13/2015	10:54	-129.281	46.854	0	1100.00	0	3.1780	0	34.3840	0	27.384	0	1088.005	0	12.3	4	3.8	4	-1E+10	1	-1E+10	1	-1E+10	1	-1E+10	1	-1E+10	1	-1E+10	1
4901784	7	C	09/13/2015	10:54	-129.281	46.854	0	1105.60	0	3.1760	0	34.3870	0	27.387	0	1093.529	0	12.4	4	3.8	4	-1E+10	1	-1E+10	1	-1E+10	1	-1E+10	1	-1E+10	1	-1E+10	1
4901784	7	C	09/13/2015	10:54	-129.281	46.854	0	1110.50	0	3.1670	0	34.3900	0	27.390	0	1098.363	0	12.4	4	3.8	4	-1E+10	1	-1E+10	1	-1E+10	1	-1E+10	1	-1E+10	1	-1E+10	1
4901784	7	C	09/13/2015	10:54	-129.281	46.854	0	1115.30	0	3.1650	0	34.3920	0	27.392	0	1103.098	0	12.4	4	3.9	4	-1E+10	1	-1E+10	1	-1E+10	1	-1E+10	1	-1E+10	1	-1E+10	1
4901784	7	C	09/13/2015	10:54	-129.281	46.854	0	1120.20	0	3.1670	0	34.3920	0	27.392	0	1107.931	0	12.5	4	3.9	4	-1E+10	1	-1E+10	1	-1E+10	1	-1E+10	1	-1E+10	1	-1E+10	1
4901784	7	C	09/13/2015	10:54	-129.281	46.854	0	1125.30	0	3.1570	0	34.3950	0	27.395	0	1112.962	0	12.5	4	3.9	4	-1E+10	1	-1E+10	1	-1E+10	1	-1E+10	1	-1E+10	1	-1E+10	1
4901784	7	C	09/13/2015	10:54	-129.281	46.854	0	1130.70	0	3.1420	0	34.3960	0	27.397	0	1118.288	0	12.6	4	3.9	4	-1E+10	1	-1E+10	1	-1E+10	1	-1E+10	1	-1E+10	1	-1E+10	1
4901784	7	C	09/13/2015	10:54	-129.281	46.854	0	1135.20	0	3.1320	0	34.3980	0	27.400	0	1122.727	0	12.6	4	3.9	4	-1E+10	1	-1E+10	1	-1E+10	1	-1E+10	1	-1E+10	1	-1E+10	1
4901784	7	C	09/13/2015	10:54	-129.281	46.854	0	1139.90	0	3.1100	0	34.3980	0	27.402	0	1127.362	0	12.7	4	3.9	4	-1E+10	1	-1E+10	1	-1E+10	1	-1E+10	1	-1E+10	1	-1E+10	1
4901784	7	C	09/13/2015	10:54	-129.281	46.854	0	1145.50	0	3.0970	0	34.4020	0	27.406	0	1132.886	0	12.8	4	4.0	4	-1E+10	1	-1E+10	1	-1E+10	1	-1E+10	1	-1E+10	1	-1E+10	1
4901784	7	C	09/13/2015	10:54	-129.281	46.854	0	1150.00	0	3.0920	0	34.4040	0	27.408	0	1137.324	0	12.9	4	4.0	4	-1E+10	1	-1E+10	1	-1E+10	1	-1E+10	1	-1E+10	1	-1E+10	1
4901784	7	C	09/13/2015	10:54	-129.281	46.854	0	1155.40	0	3.0740	0	34.4050	0	27.411	0	1142.650	0	12.9	4	4.0	4	-1E+10	1	-1E+10	1	-1E+10	1	-1E+10	1	-1E+10	1	-1E+10	1
4901784	7	C	09/13/2015	10:54	-129.281	46.854	0	1160.10	0	3.0600	0	34.4070	0	27.414	0	1147.285	0	13.0	4	4.0	4	-1E+10	1	-1E+10	1	-1E+10	1	-1E+10	1	-1E+10	1	-1E+10	1
4901784	7	C	09/13/2015	10:54	-129.281	46.854	0	1165.00	0	3.0570	0	34.4090	0	27.416	0	1152.118	0	13.1	4	4.0	4	-1E+10	1	-1E+10	1	-1E+10	1	-1E+10	1	-1E+10	1	-1E+10	1
4901784	7	C	09/13/2015	10:54	-129.281	46.854	0	1169.90	0	3.0380	0	34.4100	0	27.418	0	1156.950	0	13.1	4	4.1	4	-1E+10	1	-1E+10	1	-1E+10	1	-1E+10	1	-1E+10	1	-1E+10	1
4901784	7	C	09/13/2015	10:54	-129.281	46.854	0	1174.80	0	3.0260	0	34.4110	0	27.420	0	1161.782	0	13.2	4	4.1	4	-1E+10	1	-1E+10	1	-1E+10	1	-1E+10	1	-1E+10	1	-1E+10	1
4901784	7	C	09/13/2015	10:54	-129.281	46.854	0	1179.80	0	3.0130	0	34.4120	0	27.422	0	1166.713	0	13.3	4	4.1	4	-1E+10	1	-1E+10	1	-1E+10	1	-1E+10	1	-1E+10	1	-1E+10	1
4901784	7	C	09/13/2015	10:54	-129.281	46.854	0	1184.80	0	3.0030	0	34.4140	0	27.425	0	1171.643	0	13.4	4	4.1	4	-1E+10	1	-1E+10	1	-1E+10	1	-1E+10	1	-1E+10	1	-1E+10	1
4901784	7	C	09/13/2015	10:54	-129.281	46.854	0	1189.90	0	2.9940	0	34.4160	0	27.427	0	1176.673	0	13.5	4	4.2	4	-1E+10	1	-1E+10	1	-1E+10	1	-1E+10	1	-1E+10	1	-1E+10	1
4901784	7	C	09/13/2015	10:54	-129.281	46.854	0	1195.00	0	2.9890	0	34.4180	0	27.429	0	1181.701	0	13.6	4	4.2	4	-1E+10	1	-1E+10	1	-1E+10	1	-1E+10	1	-1E+10	1	-1E+10	1
4901784	7	C	09/13/2015	10:54	-129.281	46.854	0	1200.20	0	2.9870	0	34.4200	0	27.431	0	1186.829	0	13.7	4	4.2	4	-1E+10	1	-1E+10	1	-1E+10	1	-1E+10	1	-1E+10	1	-1E+10	1
4901784	7	C	09/13/2015	10:54	-129.281	46.854	0	1205.40	0	2.9810	0	34.4230	0	27.434	0	1191.956	0	13.8	4	4.3	4	-1E+10	1	-1E+10	1	-1E+10	1	-1E+10	1	-1E+10	1	-1E+10	1
4901784	7	C	09/13/2015	10:54	-129.281	46.854	0	1210.60	0	2.9760	0	34.4240	0	27.435	0	1197.083	0	13.8	4	4.3	4	-1E+10	1	-1E+10	1	-1E+10	1	-1E+10	1	-1E+10	1	-1E+10	1
4901784	7	C	09/13/2015	10:54	-129.281	46.854	0	1215.80	0	2.9700	0	34.4240	0	27.436	0	1202.211	0	13.9	4	4.3	4	-1E+10	1	-1E+10	1	-1E+10	1	-1E+10	1	-1E+10	1	-1E+10	1
4901784	7	C	09/13/2015	10:54	-129.281	46.854	0	1220.10	0	2.9610	0	34.4260	0	27.438	0	1206.450	0	14.0	4	4.3	4	-1E+10	1	-1E+10	1	-1E+10	1	-1E+10	1	-1E+10	1	-1E+10	1
4901784	7	C	09/13/2015	10:54	-129.281	46.854	0	1224.70	0	2.9570	0	34.4270	0	27.439	0	1210.985	0	14.1	4	4.4	4	-1E+10	1	-1E+10	1	-1E+10	1	-1E+10	1	-1E+10	1	-1E+10	1
4901784	7	C	09/13/2015	10:54	-129.281	46.854	0	1230.10	0	2.9510	0	34.4290	0	27.441	0	1216.309	0	14.2	4	4.4	4	-1E+10	1	-1E+10	1	-1E+10	1	-1E+10	1	-1E+10	1	-1E+10	1
4901784	7	C	09/13/2015	10:54	-129.281	46.854	0	1235.60	0	2.9420	0	34.4310	0	27.444	0	1221.732	0	14.3	4	4.4	4	-1E+10	1	-1E+10	1	-1E+10	1	-1E+10	1	-1E+10	1	-1E+10	1
4901784	7	C	09/13/2015	10:54	-129.281	46.854	0	1240.10	0	2.9350	0	34.4330	0	27.446	0	1226.168	0	14.4	4	4.4	4	-1E+10	1	-1E+10	1	-1E+10	1	-1E+10	1	-1E+10	1	-1E+10	1
4901784	7	C	09/13/2015	10:54	-129.281	46.854	0	1244.70	0	2.9290	0	34.4330	0	27.447	0	1230.703	0	14.5	4	4.5	4	-1E+10	1	-1E+10	1	-1E+10	1	-1E+10	1	-1E+10	1	-1E+10	1
4901784	7	C	09/13/2015	10:54	-129.281	46.854	0	1249.90	0	2.9170	0	34.4350	0	27.449	0	1235.829	0	14.6	4	4.5	4	-1E+10	1	-1E+10	1	-1E+10	1	-1E+10	1	-1E+10	1	-1E+10	1
4901784	7	C	09/13/2015	10:54	-129.281	46.854	0	1255.20	0	2.9060	0	34.4370	0	27.452	0	1241.054	0	14.7	4	4.5	4	-1E+10	1	-1E+10	1	-1E+10	1	-1E+10	1	-1E+10	1	-1E+10	1
4901784	7	C	09/13/2015	10:54	-129.281	46.854	0	1260.40	0	2.8990	0	34.4380	0	27.453	0	1246.180	0	14.8	4	4.6	4	-1E+10	1	-1E+10	1	-1E+10	1	-1E+10	1	-1E+10	1	-1E+10	1
4901784	7	C	09/13/2015	10:54	-129.281	46.854	0	1265.40	0	2.8870	0	34.4400	0	27.456	0	1251.109	0	15.0	4	4.6	4	-1E+10	1	-1E+10	1	-1E+10	1	-1E+10	1	-1E+10	1	-1E+10	1
4901784	7	C	09/13/2015	10:54	-129.281	46.854	0	1270.50	0	2.8760	0	34.4410	0	27.458	0	1256.136	0	15.1	4	4.6	4	-1E+10	1	-1E+10	1	-1E+10	1	-1E+10	1	-1E+10	1	-1E+10	1
4901784	7	C	09/13/2015	10:54	-129.281	46.854	0	1275.60	0	2.8700	0	34.4420	0	27.459	0	1261.163	0	15.2	4	4.7	4	-1E+10	1	-1E+10	1	-1E+10	1	-1E+10	1	-1E+10	1	-1E+10	1
4901784	7	C	09/13/2015	10:54	-129.281	46.854	0	1280.70	0	2.8660	0	34.4430	0	27.460	0	1266.190	0	15.2	4	4.7	4	-1E+10	1	-1E+10	1	-1E+10	1	-1E+10	1	-1E+10	1	-1E+10	1
4901784	7	C	09/13/2015	10:54	-129.281	46.854	0	1285.70	0	2.8590	0	34.4440	0	27.462	0	1271.118	0	15.4	4	4.7	4	-1E+10	1	-1E+10	1	-1E+10	1	-1E+10	1	-1E+10	1	-1E+10	1
4901784	7	C	09/13/2015	10:54	-129.281	46.854	0	1290.80	0	2.8510	0	34.4450	0	27.463	0	1276.145	0	15.5	4	4.8	4	-1E+10	1	-1E+10	1	-1E+10	1	-1E+10	1	-1E+10	1	-1E+10	1
4901784	7	C	09/13/2015	10:54	-129.281	46.854	0	1295.00	0	2.8440	0	34.4460	0	27.465	0	1280.285	0	15.6	4	4.8	4	-1E+10	1	-1E+10	1	-1E+10	1	-1E+10	1	-1E+10	1	-1E+10	1
4901784	7	C	09/13/2015	10:54	-129.281	46.854	0	1299.30	0	2.8360	0	34.4470	0	27.466	0	1284.523	0	15.8	4	4.8	4	-1E+10	1	-1E+10	1	-1E+10	1	-1E+10	1	-1E+10	1	-1E+10	1
4901784	7	C	09/13/2015	10:54	-129.281	46.854	0	1304.30	0	2.8260	0	34.4490	0	27.469	0	1289.450	0	15.9	4	4.9	4	-1E+10	1	-1E+10	1	-1E+10	1	-1E+10	1	-1E+10	1	-1E+10	1
4901784	7	C	09/13/2015	10:54	-129.281	46.854	0	1309.40	0	2.8150	0	34.4500	0	27.471	0	1294.477	0	16.0	4	4.9	4	-1E+10	1	-1E+10	1	-1E+10	1	-1E+10	1	-1E+10	1	-1E+10	1
4901784	7	C	09/13/2015	10:54	-129.281	46.854	0	1314.50	0	2.8050	0	34.4520	0	27.473	0	1299.503	0	16.2	4	5.0	4	-1E+10	1	-1E+10	1	-1E+10	1	-1E+10	1	-1E+10	1	-1E+10	1
4901784	7	C	09/13/2015	10:54	-129.281	46.854	0	1319.60	0	2.7940	0	34.4540	0	27.476	0	1304.529	0	16.4	4	5.0	4	-1E+10	1	-1E+10	1	-1E+10	1	-1E+10	1	-1E+10	1	-1E+10	1
4901784	7	C	09/13/2015	10:54	-129.281	46.854	0	1324.60	0	2.7860	0	34.4550	0	27.477	0	1309.456	0	16.6	4	5.1	4	-1E+10	1	-1E+10	1	-1E+10	1	-1E+10	1	-1E+10	1	-1E+10	1
4901784	7	C	09/13/2015	10:54	-129.281	46.854	0	1329.80	0	2.7760	0	34.4570	0	27.480	0	1314.581	0	16.8	4	5.2	4	-1E+10	1	-1E+10	1	-1E+10	1	-1E+10	1	-1E+10	1	-1E+10	1
4901784	7	C	09/13/2015	10:54	-129.281	46.854	0	1335.00	0	2.7660	0	34.4590	0	27.482	0	1319.705	0	17.0	4	5.2	4	-1E+10	1	-1E+10	1	-1E+10	1	-1E+10	1	-1E+10	1	-1E+10	1
4901784	7	C	09/13/2015	10:54	-129.281	46.854	0	1340.10	0	2.7610	0	34.4600	0	27.484	0	1324.730	0	17.1	4	5.3	4	-1E+10	1	-1E+10	1	-1E+10	1	-1E+10	1	-1E+10	1	-1E+10	1
4901784	7	C	09/13/2015	10:54	-129.281	46.854	0	1345.30	0	2.7530	0	34.4610	0	27.485	0	1329.854	0	17.2	4	5.3	4	-1E+10	1	-1E+10	1	-1E+10	1	-1E+10	1	-1E+10	1	-1E+10	1
4901784	7	C	09/13/2015	10:54	-129.281	46.854	0	1350.50	0	2.7460	0	34.4620	0	27.487	0	1334.978	0	17.3	4	5.3	4	-1E+10	1	-1E+10	1	-1E+10	1	-1E+10	1	-1E+10	1	-1E+10	1
4901784	7	C	09/13/2015	10:54	-129.281	46.854	0	1355.70	0	2.7430	0	34.4620	0	27.487	0	1340.102	0	17.4	4	5.3	4	-1E+10	1	-1E+10	1	-1E+10	1	-1E+10	1	-1E+10	1	-1E+10	1
4901784	7	C	09/13/2015	10:54	-129.281	46.854	0	1360.10	0	2.7400	0	34.4630	0	27.488	0	1344.437	0	17.6	4	5.4	4	-1E+10	1	-1E+10	1	-1E+10	1	-1E+10	1	-1E+10	1	-1E+10	1
4901784	7	C	09/13/2015	10:54	-129.281	46.854	0	1364.50	0	2.7330	0	34.4640	0	27.489	0	1348.773	0	17.7	4	5.4	4	-1E+10	1	-1E+10	1	-1E+10	1	-1E+10	1	-1E+10	1	-1E+10	1
4901784	7	C	09/13/2015	10:54	-129.281	46.854	0	1369.80	0	2.7230	0	34.4650	0	27.491	0	1353.994	0	17.9	4	5.5	4	-1E+10	1	-1E+10	1	-1E+10	1	-1E+10	1	-1E+10	1	-1E+10	1
4901784	7	C	09/13/2015	10:54	-129.281	46.854	0	1375.20	0	2.7190	0	34.4660	0	27.492	0	1359.315	0	18.0	4	5.5	4	-1E+10	1	-1E+10	1	-1E+10	1	-1E+10	1	-1E+10	1	-1E+10	1
4901784	7	C	09/13/2015	10:54	-129.281	46.854	0	1380.50	0	2.7100	0	34.4680	0	27.495	0	1364.536	0	18.2	4	5.6	4	-1E+10	1	-1E+10	1	-1E+10	1	-1E+10	1	-1E+10	1	-1E+10	1
4901784	7	C	09/13/2015	10:54	-129.281	46.854	0	1385.70	0	2.7060	0	34.4680	0	27.495	0	1369.659	0	18.4	4	5.6	4	-1E+10	1	-1E+10	1	-1E+10	1	-1E+10	1	-1E+10	1	-1E+10	1
4901784	7	C	09/13/2015	10:54	-129.281	46.854	0	1390.20	0	2.7010	0	34.4690	0	27.496	0	1374.093	0	18.6	4	5.7	4	-1E+10	1	-1E+10	1	-1E+10	1	-1E+10	1	-1E+10	1	-1E+10	1
4901784	7	C	09/13/2015	10:54	-129.281	46.854	0	1394.60	0	2.6950	0	34.4710	0	27.498	0	1378.427	0	18.9	4	5.8	4	-1E+10	1	-1E+10	1	-1E+10	1	-1E+10	1	-1E+10	1	-1E+10	1
4901784	7	C	09/13/2015	10:54	-129.281	46.854	0	1400.00	0	2.6930	0	34.4730	0	27.500	0	1383.747	0	19.1	4	5.9	4	-1E+10	1	-1E+10	1	-1E+10	1	-1E+10	1	-1E+10	1	-1E+10	1
4901784	7	C	09/13/2015	10:54	-129.281	46.854	0	1405.40	0	2.6850	0	34.4740	0	27.502	0	1389.067	0	19.4	4	5.9	4	-1E+10	1	-1E+10	1	-1E+10	1	-1E+10	1	-1E+10	1	-1E+10	1
4901784	7	C	09/13/2015	10:54	-129.281	46.854	0	1410.00	0	2.6800	0	34.4760	0	27.504	0	1393.598	0	19.5	4	6.0	4	-1E+10	1	-1E+10	1	-1E+10	1	-1E+10	1	-1E+10	1	-1E+10	1
4901784	7	C	09/13/2015	10:54	-129.281	46.854	0	1414.50	0	2.6750	0	34.4760	0	27.504	0	1398.031	0	19.6	4	6.0	4	-1E+10	1	-1E+10	1	-1E+10	1	-1E+10	1	-1E+10	1	-1E+10	1
4901784	7	C	09/13/2015	10:54	-129.281	46.854	0	1420.00	0	2.6590	0	34.4770	0	27.506	0	1403.448	0	19.7	4	6.0	4	-1E+10	1	-1E+10	1	-1E+10	1	-1E+10	1	-1E+10	1	-1E+10	1
4901784	7	C	09/13/2015	10:54	-129.281	46.854	0	1425.50	0	2.6460	0	34.4780	0	27.508	0	1408.866	0	20.0	4	6.1	4	-1E+10	1	-1E+10	1	-1E+10	1	-1E+10	1	-1E+10	1	-1E+10	1
4901784	7	C	09/13/2015	10:54	-129.281	46.854	0	1430.10	0	2.6410	0	34.4800	0	27.510	0	1413.397	0	20.3	4	6.2	4	-1E+10	1	-1E+10	1	-1E+10	1	-1E+10	1	-1E+10	1	-1E+10	1
4901784	7	C	09/13/2015	10:54	-129.281	46.854	0	1434.80	0	2.6350	0	34.4810	0	27.512	0	1418.026	0	20.5	4	6.3	4	-1E+10	1	-1E+10	1	-1E+10	1	-1E+10	1	-1E+10	1	-1E+10	1
4901784	7	C	09/13/2015	10:54	-129.281	46.854	0	1440.20	0	2.6300	0	34.4830	0	27.514	0	1423.345	0	20.8	4	6.4	4	-1E+10	1	-1E+10	1	-1E+10	1	-1E+10	1	-1E+10	1	-1E+10	1
4901784	7	C	09/13/2015	10:54	-129.281	46.854	0	1445.60	0	2.6190	0	34.4840	0	27.516	0	1428.663	0	21.0	4	6.4	4	-1E+10	1	-1E+10	1	-1E+10	1	-1E+10	1	-1E+10	1	-1E+10	1
4901784	7	C	09/13/2015	10:54	-129.281	46.854	0	1450.50	0	2.6110	0	34.4850	0	27.517	0	1433.489	0	21.2	4	6.5	4	-1E+10	1	-1E+10	1	-1E+10	1	-1E+10	1	-1E+10	1	-1E+10	1
4901784	7	C	09/13/2015	10:54	-129.281	46.854	0	1455.40	0	2.6070	0	34.4860	0	27.518	0	1438.315	0	21.5	4	6.6	4	-1E+10	1	-1E+10	1	-1E+10	1	-1E+10	1	-1E+10	1	-1E+10	1
4901784	7	C	09/13/2015	10:54	-129.281	46.854	0	1460.30	0	2.5990	0	34.4870	0	27.520	0	1443.141	0	21.8	4	6.7	4	-1E+10	1	-1E+10	1	-1E+10	1	-1E+10	1	-1E+10	1	-1E+10	1
4901784	7	C	09/13/2015	10:54	-129.281	46.854	0	1465.20	0	2.5890	0	34.4880	0	27.521	0	1447.966	0	22.1	4	6.8	4	-1E+10	1	-1E+10	1	-1E+10	1	-1E+10	1	-1E+10	1	-1E+10	1
4901784	7	C	09/13/2015	10:54	-129.281	46.854	0	1470.10	0	2.5820	0	34.4900	0	27.524	0	1452.792	0	22.6	4	6.9	4	-1E+10	1	-1E+10	1	-1E+10	1	-1E+10	1	-1E+10	1	-1E+10	1
4901784	7	C	09/13/2015	10:54	-129.281	46.854	0	1475.00	0	2.5730	0	34.4920	0	27.526	0	1457.617	0	23.0	4	7.0	4	-1E+10	1	-1E+10	1	-1E+10	1	-1E+10	1	-1E+10	1	-1E+10	1
4901784	7	C	09/13/2015	10:54	-129.281	46.854	0	1479.90	0	2.5650	0	34.4940	0	27.528	0	1462.443	0	23.3	4	7.1	4	-1E+10	1	-1E+10	1	-1E+10	1	-1E+10	1	-1E+10	1	-1E+10	1
4901784	7	C	09/13/2015	10:54	-129.281	46.854	0	1484.90	0	2.5630	0	34.4940	0	27.529	0	1467.366	0	23.4	4	7.2	4	-1E+10	1	-1E+10	1	-1E+10	1	-1E+10	1	-1E+10	1	-1E+10	1
4901784	7	C	09/13/2015	10:54	-129.281	46.854	0	1489.80	0	2.5560	0	34.4950	0	27.530	0	1472.192	0	23.7	4	7.2	4	-1E+10	1	-1E+10	1	-1E+10	1	-1E+10	1	-1E+10	1	-1E+10	1
4901784	7	C	09/13/2015	10:54	-129.281	46.854	0	1494.70	0	2.5460	0	34.4960	0	27.532	0	1477.016	0	23.9	4	7.3	4	-1E+10	1	-1E+10	1	-1E+10	1	-1E+10	1	-1E+10	1	-1E+10	1
4901784	7	C	09/13/2015	10:54	-129.281	46.854	0	1499.60	0	2.5370	0	34.4970	0	27.533	0	1481.841	0	24.1	4	7.4	4	-1E+10	1	-1E+10	1	-1E+10	1	-1E+10	1	-1E+10	1	-1E+10	1
4901784	7	C	09/13/2015	10:54	-129.281	46.854	0	1504.70	0	2.5280	0	34.4980	0	27.535	0	1486.863	0	24.3	4	7.4	4	-1E+10	1	-1E+10	1	-1E+10	1	-1E+10	1	-1E+10	1	-1E+10	1
4901784	7	C	09/13/2015	10:54	-129.281	46.854	0	1509.70	0	2.5230	0	34.4980	0	27.535	0	1491.786	0	24.6	4	7.5	4	-1E+10	1	-1E+10	1	-1E+10	1	-1E+10	1	-1E+10	1	-1E+10	1
4901784	7	C	09/13/2015	10:54	-129.281	46.854	0	1514.80	0	2.5130	0	34.5000	0	27.538	0	1496.808	0	24.9	4	7.6	4	-1E+10	1	-1E+10	1	-1E+10	1	-1E+10	1	-1E+10	1	-1E+10	1
4901784	7	C	09/13/2015	10:54	-129.281	46.854	0	1519.90	0	2.5040	0	34.5010	0	27.539	0	1501.829	0	25.1	4	7.7	4	-1E+10	1	-1E+10	1	-1E+10	1	-1E+10	1	-1E+10	1	-1E+10	1
4901784	7	C	09/13/2015	10:54	-129.281	46.854	0	1524.90	0	2.4910	0	34.5020	0	27.541	0	1506.752	0	25.5	4	7.8	4	-1E+10	1	-1E+10	1	-1E+10	1	-1E+10	1	-1E+10	1	-1E+10	1
4901784	7	C	09/13/2015	10:54	-129.281	46.854	0	1530.00	0	2.4830	0	34.5040	0	27.544	0	1511.773	0	25.9	4	7.9	4	-1E+10	1	-1E+10	1	-1E+10	1	-1E+10	1	-1E+10	1	-1E+10	1
4901784	7	C	09/13/2015	10:54	-129.281	46.854	0	1535.00	0	2.4750	0	34.5050	0	27.545	0	1516.695	0	26.3	4	8.0	4	-1E+10	1	-1E+10	1	-1E+10	1	-1E+10	1	-1E+10	1	-1E+10	1
4901784	7	C	09/13/2015	10:54	-129.281	46.854	0	1540.00	0	2.4680	0	34.5060	0	27.546	0	1521.618	0	26.6	4	8.1	4	-1E+10	1	-1E+10	1	-1E+10	1	-1E+10	1	-1E+10	1	-1E+10	1
4901784	7	C	09/13/2015	10:54	-129.281	46.854	0	1545.00	0	2.4600	0	34.5070	0	27.548	0	1526.540	0	27.0	4	8.2	4	-1E+10	1	-1E+10	1	-1E+10	1	-1E+10	1	-1E+10	1	-1E+10	1
4901784	7	C	09/13/2015	10:54	-129.281	46.854	0	1549.90	0	2.4500	0	34.5090	0	27.550	0	1531.364	0	27.5	4	8.4	4	-1E+10	1	-1E+10	1	-1E+10	1	-1E+10	1	-1E+10	1	-1E+10	1
4901784	7	C	09/13/2015	10:54	-129.281	46.854	0	1554.70	0	2.4390	0	34.5110	0	27.553	0	1536.089	0	27.9	4	8.5	4	-1E+10	1	-1E+10	1	-1E+10	1	-1E+10	1	-1E+10	1	-1E+10	1
4901784	7	C	09/13/2015	10:54	-129.281	46.854	0	1559.70	0	2.4360	0	34.5120	0	27.554	0	1541.011	0	28.2	4	8.6	4	-1E+10	1	-1E+10	1	-1E+10	1	-1E+10	1	-1E+10	1	-1E+10	1
4901784	7	C	09/13/2015	10:54	-129.281	46.854	0	1564.80	0	2.4300	0	34.5130	0	27.555	0	1546.031	0	28.5	4	8.7	4	-1E+10	1	-1E+10	1	-1E+10	1	-1E+10	1	-1E+10	1	-1E+10	1
4901784	7	C	09/13/2015	10:54	-129.281	46.854	0	1569.90	0	2.4230	0	34.5140	0	27.557	0	1551.051	0	28.9	4	8.8	4	-1E+10	1	-1E+10	1	-1E+10	1	-1E+10	1	-1E+10	1	-1E+10	1
4901784	7	C	09/13/2015	10:54	-129.281	46.854	0	1574.90	0	2.4170	0	34.5160	0	27.559	0	1555.973	0	29.2	4	8.9	4	-1E+10	1	-1E+10	1	-1E+10	1	-1E+10	1	-1E+10	1	-1E+10	1
4901784	7	C	09/13/2015	10:54	-129.281	46.854	0	1579.90	0	2.4090	0	34.5160	0	27.560	0	1560.894	0	29.4	4	8.9	4	-1E+10	1	-1E+10	1	-1E+10	1	-1E+10	1	-1E+10	1	-1E+10	1
4901784	7	C	09/13/2015	10:54	-129.281	46.854	0	1585.00	0	2.4050	0	34.5170	0	27.561	0	1565.914	0	29.6	4	9.0	4	-1E+10	1	-1E+10	1	-1E+10	1	-1E+10	1	-1E+10	1	-1E+10	1
4901784	7	C	09/13/2015	10:54	-129.281	46.854	0	1590.10	0	2.3990	0	34.5190	0	27.563	0	1570.934	0	30.1	4	9.2	4	-1E+10	1	-1E+10	1	-1E+10	1	-1E+10	1	-1E+10	1	-1E+10	1
4901784	7	C	09/13/2015	10:54	-129.281	46.854	0	1595.10	0	2.3930	0	34.5200	0	27.564	0	1575.855	0	30.3	4	9.2	4	-1E+10	1	-1E+10	1	-1E+10	1	-1E+10	1	-1E+10	1	-1E+10	1
4901784	7	C	09/13/2015	10:54	-129.281	46.854	0	1600.10	0	2.3880	0	34.5200	0	27.565	0	1580.776	0	30.4	4	9.2	4	-1E+10	1	-1E+10	1	-1E+10	1	-1E+10	1	-1E+10	1	-1E+10	1
4901784	7	C	09/13/2015	10:54	-129.281	46.854	0	1605.30	0	2.3820	0	34.5210	0	27.566	0	1585.894	0	30.6	4	9.3	4	-1E+10	1	-1E+10	1	-1E+10	1	-1E+10	1	-1E+10	1	-1E+10	1
4901784	7	C	09/13/2015	10:54	-129.281	46.854	0	1610.60	0	2.3750	0	34.5220	0	27.567	0	1591.110	0	30.8	4	9.4	4	-1E+10	1	-1E+10	1	-1E+10	1	-1E+10	1	-1E+10	1	-1E+10	1
4901784	7	C	09/13/2015	10:54	-129.281	46.854	0	1615.00	0	2.3720	0	34.5220	0	27.568	0	1595.440	0	31.1	4	9.5	4	-1E+10	1	-1E+10	1	-1E+10	1	-1E+10	1	-1E+10	1	-1E+10	1
4901784	7	C	09/13/2015	10:54	-129.281	46.854	0	1619.30	0	2.3660	0	34.5240	0	27.570	0	1599.672	0	31.3	4	9.5	4	-1E+10	1	-1E+10	1	-1E+10	1	-1E+10	1	-1E+10	1	-1E+10	1
4901784	7	C	09/13/2015	10:54	-129.281	46.854	0	1624.60	0	2.3640	0	34.5240	0	27.570	0	1604.887	0	31.7	4	9.6	4	-1E+10	1	-1E+10	1	-1E+10	1	-1E+10	1	-1E+10	1	-1E+10	1
4901784	7	C	09/13/2015	10:54	-129.281	46.854	0	1629.80	0	2.3540	0	34.5260	0	27.572	0	1610.004	0	32.2	4	9.8	4	-1E+10	1	-1E+10	1	-1E+10	1	-1E+10	1	-1E+10	1	-1E+10	1
4901784	7	C	09/13/2015	10:54	-129.281	46.854	0	1635.00	0	2.3490	0	34.5270	0	27.574	0	1615.121	0	32.5	4	9.9	4	-1E+10	1	-1E+10	1	-1E+10	1	-1E+10	1	-1E+10	1	-1E+10	1
4901784	7	C	09/13/2015	10:54	-129.281	46.854	0	1640.30	0	2.3430	0	34.5280	0	27.575	0	1620.337	0	32.8	4	10.0	4	-1E+10	1	-1E+10	1	-1E+10	1	-1E+10	1	-1E+10	1	-1E+10	1
4901784	7	C	09/13/2015	10:54	-129.281	46.854	0	1645.60	0	2.3330	0	34.5290	0	27.577	0	1625.552	0	33.1	4	10.1	4	-1E+10	1	-1E+10	1	-1E+10	1	-1E+10	1	-1E+10	1	-1E+10	1
4901784	7	C	09/13/2015	10:54	-129.281	46.854	0	1650.00	0	2.3280	0	34.5300	0	27.578	0	1629.881	0	33.4	4	10.1	4	-1E+10	1	-1E+10	1	-1E+10	1	-1E+10	1	-1E+10	1	-1E+10	1
4901784	7	C	09/13/2015	10:54	-129.281	46.854	0	1654.50	0	2.3210	0	34.5310	0	27.579	0	1634.309	0	33.7	4	10.2	4	-1E+10	1	-1E+10	1	-1E+10	1	-1E+10	1	-1E+10	1	-1E+10	1
4901784	7	C	09/13/2015	10:54	-129.281	46.854	0	1659.80	0	2.3140	0	34.5320	0	27.581	0	1639.524	0	34.1	4	10.3	4	-1E+10	1	-1E+10	1	-1E+10	1	-1E+10	1	-1E+10	1	-1E+10	1
4901784	7	C	09/13/2015	10:54	-129.281	46.854	0	1665.10	0	2.3050	0	34.5330	0	27.582	0	1644.739	0	34.4	4	10.4	4	-1E+10	1	-1E+10	1	-1E+10	1	-1E+10	1	-1E+10	1	-1E+10	1
4901784	7	C	09/13/2015	10:54	-129.281	46.854	0	1670.50	0	2.2950	0	34.5340	0	27.584	0	1650.052	0	34.8	4	10.6	4	-1E+10	1	-1E+10	1	-1E+10	1	-1E+10	1	-1E+10	1	-1E+10	1
4901784	7	C	09/13/2015	10:54	-129.281	46.854	0	1675.00	0	2.2820	0	34.5350	0	27.586	0	1654.479	0	35.2	4	10.7	4	-1E+10	1	-1E+10	1	-1E+10	1	-1E+10	1	-1E+10	1	-1E+10	1
4901784	7	C	09/13/2015	10:54	-129.281	46.854	0	1679.50	0	2.2720	0	34.5370	0	27.588	0	1658.906	0	35.8	4	10.9	4	-1E+10	1	-1E+10	1	-1E+10	1	-1E+10	1	-1E+10	1	-1E+10	1
4901784	7	C	09/13/2015	10:54	-129.281	46.854	0	1684.80	0	2.2680	0	34.5390	0	27.590	0	1664.120	0	36.4	4	11.0	4	-1E+10	1	-1E+10	1	-1E+10	1	-1E+10	1	-1E+10	1	-1E+10	1
4901784	7	C	09/13/2015	10:54	-129.281	46.854	0	1690.20	0	2.2530	0	34.5400	0	27.592	0	1669.433	0	36.9	4	11.2	4	-1E+10	1	-1E+10	1	-1E+10	1	-1E+10	1	-1E+10	1	-1E+10	1
4901784	7	C	09/13/2015	10:54	-129.281	46.854	0	1695.60	0	2.2460	0	34.5410	0	27.593	0	1674.745	0	37.2	4	11.3	4	-1E+10	1	-1E+10	1	-1E+10	1	-1E+10	1	-1E+10	1	-1E+10	1
4901784	7	C	09/13/2015	10:54	-129.281	46.854	0	1700.00	0	2.2310	0	34.5420	0	27.596	0	1679.074	0	37.4	4	11.3	4	-1E+10	1	-1E+10	1	-1E+10	1	-1E+10	1	-1E+10	1	-1E+10	1
4901784	7	C	09/13/2015	10:54	-129.281	46.854	0	1704.50	0	2.2230	0	34.5430	0	27.597	0	1683.500	0	37.5	4	11.4	4	-1E+10	1	-1E+10	1	-1E+10	1	-1E+10	1	-1E+10	1	-1E+10	1
4901784	7	C	09/13/2015	10:54	-129.281	46.854	0	1710.00	0	2.2210	0	34.5430	0	27.597	0	1688.911	0	37.7	4	11.4	4	-1E+10	1	-1E+10	1	-1E+10	1	-1E+10	1	-1E+10	1	-1E+10	1
4901784	7	C	09/13/2015	10:54	-129.281	46.854	0	1715.10	0	2.2210	0	34.5430	0	27.597	0	1693.928	0	37.8	4	11.5	4	-1E+10	1	-1E+10	1	-1E+10	1	-1E+10	1	-1E+10	1	-1E+10	1
4901784	7	C	09/13/2015	10:54	-129.281	46.854	0	1719.30	0	2.2180	0	34.5440	0	27.598	0	1698.059	0	38.1	4	11.6	4	-1E+10	1	-1E+10	1	-1E+10	1	-1E+10	1	-1E+10	1	-1E+10	1
4901784	7	C	09/13/2015	10:54	-129.281	46.854	0	1725.00	0	2.2080	0	34.5450	0	27.600	0	1703.666	0	38.5	4	11.7	4	-1E+10	1	-1E+10	1	-1E+10	1	-1E+10	1	-1E+10	1	-1E+10	1
4901784	7	C	09/13/2015	10:54	-129.281	46.854	0	1730.80	0	2.2060	0	34.5460	0	27.601	0	1709.371	0	38.7	4	11.7	4	-1E+10	1	-1E+10	1	-1E+10	1	-1E+10	1	-1E+10	1	-1E+10	1
4901784	7	C	09/13/2015	10:54	-129.281	46.854	0	1735.70	0	2.2010	0	34.5460	0	27.601	0	1714.190	0	38.9	4	11.8	4	-1E+10	1	-1E+10	1	-1E+10	1	-1E+10	1	-1E+10	1	-1E+10	1
4901784	7	C	09/13/2015	10:54	-129.281	46.854	0	1740.70	0	2.1980	0	34.5460	0	27.602	0	1719.108	0	39.2	4	11.9	4	-1E+10	1	-1E+10	1	-1E+10	1	-1E+10	1	-1E+10	1	-1E+10	1
4901784	7	C	09/13/2015	10:54	-129.281	46.854	0	1745.70	0	2.1900	0	34.5480	0	27.604	0	1724.026	0	39.5	4	12.0	4	-1E+10	1	-1E+10	1	-1E+10	1	-1E+10	1	-1E+10	1	-1E+10	1
4901784	7	C	09/13/2015	10:54	-129.281	46.854	0	1750.70	0	2.1870	0	34.5480	0	27.604	0	1728.943	0	39.7	4	12.0	4	-1E+10	1	-1E+10	1	-1E+10	1	-1E+10	1	-1E+10	1	-1E+10	1
4901784	7	C	09/13/2015	10:54	-129.281	46.854	0	1755.70	0	2.1820	0	34.5490	0	27.605	0	1733.861	0	40.0	4	12.1	4	-1E+10	1	-1E+10	1	-1E+10	1	-1E+10	1	-1E+10	1	-1E+10	1
4901784	7	C	09/13/2015	10:54	-129.281	46.854	0	1760.70	0	2.1750	0	34.5500	0	27.607	0	1738.778	0	40.4	4	12.2	4	-1E+10	1	-1E+10	1	-1E+10	1	-1E+10	1	-1E+10	1	-1E+10	1
4901784	7	C	09/13/2015	10:54	-129.281	46.854	0	1765.70	0	2.1670	0	34.5510	0	27.608	0	1743.695	0	40.9	4	12.4	4	-1E+10	1	-1E+10	1	-1E+10	1	-1E+10	1	-1E+10	1	-1E+10	1
4901784	7	C	09/13/2015	10:54	-129.281	46.854	0	1770.80	0	2.1620	0	34.5520	0	27.609	0	1748.711	0	41.1	4	12.4	4	-1E+10	1	-1E+10	1	-1E+10	1	-1E+10	1	-1E+10	1	-1E+10	1
4901784	7	C	09/13/2015	10:54	-129.281	46.854	0	1775.80	0	2.1600	0	34.5520	0	27.610	0	1753.628	0	41.4	4	12.5	4	-1E+10	1	-1E+10	1	-1E+10	1	-1E+10	1	-1E+10	1	-1E+10	1
4901784	7	C	09/13/2015	10:54	-129.281	46.854	0	1780.00	0	2.1540	0	34.5530	0	27.611	0	1757.758	0	41.8	4	12.7	4	-1E+10	1	-1E+10	1	-1E+10	1	-1E+10	1	-1E+10	1	-1E+10	1
4901784	7	C	09/13/2015	10:54	-129.281	46.854	0	1784.30	0	2.1470	0	34.5540	0	27.612	0	1761.986	0	42.1	4	12.7	4	-1E+10	1	-1E+10	1	-1E+10	1	-1E+10	1	-1E+10	1	-1E+10	1
4901784	7	C	09/13/2015	10:54	-129.281	46.854	0	1789.50	0	2.1410	0	34.5560	0	27.614	0	1767.100	0	42.3	4	12.8	4	-1E+10	1	-1E+10	1	-1E+10	1	-1E+10	1	-1E+10	1	-1E+10	1
4901784	7	C	09/13/2015	10:54	-129.281	46.854	0	1794.60	0	2.1370	0	34.5560	0	27.615	0	1772.114	0	42.4	4	12.8	4	-1E+10	1	-1E+10	1	-1E+10	1	-1E+10	1	-1E+10	1	-1E+10	1
4901784	7	C	09/13/2015	10:54	-129.281	46.854	0	1799.80	0	2.1290	0	34.5560	0	27.615	0	1777.228	0	42.6	4	12.9	4	-1E+10	1	-1E+10	1	-1E+10	1	-1E+10	1	-1E+10	1	-1E+10	1
4901784	7	C	09/13/2015	10:54	-129.281	46.854	0	1804.90	0	2.1260	0	34.5570	0	27.616	0	1782.242	0	42.9	4	13.0	4	-1E+10	1	-1E+10	1	-1E+10	1	-1E+10	1	-1E+10	1	-1E+10	1
4901784	7	C	09/13/2015	10:54	-129.281	46.854	0	1810.10	0	2.1230	0	34.5570	0	27.617	0	1787.355	0	43.2	4	13.1	4	-1E+10	1	-1E+10	1	-1E+10	1	-1E+10	1	-1E+10	1	-1E+10	1
4901784	7	C	09/13/2015	10:54	-129.281	46.854	0	1815.30	0	2.1170	0	34.5580	0	27.618	0	1792.468	0	43.7	4	13.2	4	-1E+10	1	-1E+10	1	-1E+10	1	-1E+10	1	-1E+10	1	-1E+10	1
4901784	7	C	09/13/2015	10:54	-129.281	46.854	0	1820.50	0	2.1040	0	34.5600	0	27.621	0	1797.580	0	44.3	4	13.4	4	-1E+10	1	-1E+10	1	-1E+10	1	-1E+10	1	-1E+10	1	-1E+10	1
4901784	7	C	09/13/2015	10:54	-129.281	46.854	0	1824.90	0	2.1000	0	34.5610	0	27.622	0	1801.906	0	44.7	4	13.5	4	-1E+10	1	-1E+10	1	-1E+10	1	-1E+10	1	-1E+10	1	-1E+10	1
4901784	7	C	09/13/2015	10:54	-129.281	46.854	0	1829.30	0	2.0980	0	34.5620	0	27.623	0	1806.232	0	45.1	4	13.6	4	-1E+10	1	-1E+10	1	-1E+10	1	-1E+10	1	-1E+10	1	-1E+10	1
4901784	7	C	09/13/2015	10:54	-129.281	46.854	0	1834.70	0	2.0880	0	34.5630	0	27.624	0	1811.541	0	45.6	4	13.8	4	-1E+10	1	-1E+10	1	-1E+10	1	-1E+10	1	-1E+10	1	-1E+10	1
4901784	7	C	09/13/2015	10:54	-129.281	46.854	0	1840.00	0	2.0800	0	34.5640	0	27.626	0	1816.752	0	46.0	4	13.9	4	-1E+10	1	-1E+10	1	-1E+10	1	-1E+10	1	-1E+10	1	-1E+10	1
4901784	7	C	09/13/2015	10:54	-129.281	46.854	0	1845.40	0	2.0720	0	34.5650	0	27.627	0	1822.060	0	46.3	4	14.0	4	-1E+10	1	-1E+10	1	-1E+10	1	-1E+10	1	-1E+10	1	-1E+10	1
4901784	7	C	09/13/2015	10:54	-129.281	46.854	0	1850.20	0	2.0690	0	34.5650	0	27.628	0	1826.779	0	46.5	4	14.1	4	-1E+10	1	-1E+10	1	-1E+10	1	-1E+10	1	-1E+10	1	-1E+10	1
4901784	7	C	09/13/2015	10:54	-129.281	46.854	0	1855.10	0	2.0640	0	34.5670	0	27.630	0	1831.596	0	47.0	4	14.2	4	-1E+10	1	-1E+10	1	-1E+10	1	-1E+10	1	-1E+10	1	-1E+10	1
4901784	7	C	09/13/2015	10:54	-129.281	46.854	0	1860.00	0	2.0580	0	34.5680	0	27.631	0	1836.413	0	47.5	4	14.3	4	-1E+10	1	-1E+10	1	-1E+10	1	-1E+10	1	-1E+10	1	-1E+10	1
4901784	7	C	09/13/2015	10:54	-129.281	46.854	0	1864.90	0	2.0510	0	34.5690	0	27.632	0	1841.229	0	47.9	4	14.5	4	-1E+10	1	-1E+10	1	-1E+10	1	-1E+10	1	-1E+10	1	-1E+10	1
4901784	7	C	09/13/2015	10:54	-129.281	46.854	0	1869.90	0	2.0460	0	34.5690	0	27.633	0	1846.144	0	48.3	4	14.6	4	-1E+10	1	-1E+10	1	-1E+10	1	-1E+10	1	-1E+10	1	-1E+10	1
4901784	7	C	09/13/2015	10:54	-129.281	46.854	0	1874.80	0	2.0390	0	34.5700	0	27.634	0	1850.961	0	48.7	4	14.7	4	-1E+10	1	-1E+10	1	-1E+10	1	-1E+10	1	-1E+10	1	-1E+10	1
4901784	7	C	09/13/2015	10:54	-129.281	46.854	0	1879.90	0	2.0310	0	34.5720	0	27.636	0	1855.973	0	49.1	4	14.8	4	-1E+10	1	-1E+10	1	-1E+10	1	-1E+10	1	-1E+10	1	-1E+10	1
4901784	7	C	09/13/2015	10:54	-129.281	46.854	0	1885.00	0	2.0270	0	34.5730	0	27.637	0	1860.986	0	49.3	4	14.9	4	-1E+10	1	-1E+10	1	-1E+10	1	-1E+10	1	-1E+10	1	-1E+10	1
4901784	7	C	09/13/2015	10:54	-129.281	46.854	0	1890.30	0	2.0270	0	34.5730	0	27.637	0	1866.196	0	49.5	4	14.9	4	-1E+10	1	-1E+10	1	-1E+10	1	-1E+10	1	-1E+10	1	-1E+10	1
4901784	7	C	09/13/2015	10:54	-129.281	46.854	0	1895.50	0	2.0220	0	34.5740	0	27.639	0	1871.306	0	49.9	4	15.0	4	-1E+10	1	-1E+10	1	-1E+10	1	-1E+10	1	-1E+10	1	-1E+10	1
4901784	7	C	09/13/2015	10:54	-129.281	46.854	0	1900.70	0	2.0160	0	34.5750	0	27.640	0	1876.417	0	50.2	4	15.2	4	-1E+10	1	-1E+10	1	-1E+10	1	-1E+10	1	-1E+10	1	-1E+10	1
4901784	7	C	09/13/2015	10:54	-129.281	46.854	0	1905.10	0	2.0130	0	34.5750	0	27.640	0	1880.741	0	50.6	4	15.3	4	-1E+10	1	-1E+10	1	-1E+10	1	-1E+10	1	-1E+10	1	-1E+10	1
4901784	7	C	09/13/2015	10:54	-129.281	46.854	0	1909.50	0	2.0050	0	34.5760	0	27.642	0	1885.066	0	51.0	4	15.4	4	-1E+10	1	-1E+10	1	-1E+10	1	-1E+10	1	-1E+10	1	-1E+10	1
4901784	7	C	09/13/2015	10:54	-129.281	46.854	0	1915.00	0	2.0000	0	34.5770	0	27.643	0	1890.471	0	51.4	4	15.5	4	-1E+10	1	-1E+10	1	-1E+10	1	-1E+10	1	-1E+10	1	-1E+10	1
4901784	7	C	09/13/2015	10:54	-129.281	46.854	0	1920.40	0	1.9910	0	34.5780	0	27.644	0	1895.778	0	52.0	4	15.7	4	-1E+10	1	-1E+10	1	-1E+10	1	-1E+10	1	-1E+10	1	-1E+10	1
4901784	7	C	09/13/2015	10:54	-129.281	46.854	0	1925.00	0	1.9860	0	34.5790	0	27.646	0	1900.298	0	52.2	4	15.7	4	-1E+10	1	-1E+10	1	-1E+10	1	-1E+10	1	-1E+10	1	-1E+10	1
4901784	7	C	09/13/2015	10:54	-129.281	46.854	0	1929.50	0	1.9830	0	34.5800	0	27.647	0	1904.720	0	52.4	4	15.8	4	-1E+10	1	-1E+10	1	-1E+10	1	-1E+10	1	-1E+10	1	-1E+10	1
4901784	7	C	09/13/2015	10:54	-129.281	46.854	0	1935.00	0	1.9800	0	34.5800	0	27.647	0	1910.125	0	52.6	4	15.9	4	-1E+10	1	-1E+10	1	-1E+10	1	-1E+10	1	-1E+10	1	-1E+10	1
4901784	7	C	09/13/2015	10:54	-129.281	46.854	0	1940.50	0	1.9780	0	34.5810	0	27.648	0	1915.530	0	52.9	4	15.9	4	-1E+10	1	-1E+10	1	-1E+10	1	-1E+10	1	-1E+10	1	-1E+10	1
4901784	7	C	09/13/2015	10:54	-129.281	46.854	0	1945.10	0	1.9770	0	34.5810	0	27.648	0	1920.050	0	53.1	4	16.0	4	-1E+10	1	-1E+10	1	-1E+10	1	-1E+10	1	-1E+10	1	-1E+10	1
4901784	7	C	09/13/2015	10:54	-129.281	46.854	0	1949.70	0	1.9730	0	34.5820	0	27.649	0	1924.570	0	53.2	4	16.0	4	-1E+10	1	-1E+10	1	-1E+10	1	-1E+10	1	-1E+10	1	-1E+10	1
4901784	7	C	09/13/2015	10:54	-129.281	46.854	0	1955.10	0	1.9710	0	34.5820	0	27.649	0	1929.876	0	53.5	4	16.1	4	-1E+10	1	-1E+10	1	-1E+10	1	-1E+10	1	-1E+10	1	-1E+10	1
4901784	7	C	09/13/2015	10:54	-129.281	46.854	0	1960.60	0	1.9680	0	34.5820	0	27.650	0	1935.280	0	53.9	4	16.2	4	-1E+10	1	-1E+10	1	-1E+10	1	-1E+10	1	-1E+10	1	-1E+10	1
4901784	7	C	09/13/2015	10:54	-129.281	46.854	0	1965.30	0	1.9630	0	34.5830	0	27.651	0	1939.898	0	54.3	4	16.4	4	-1E+10	1	-1E+10	1	-1E+10	1	-1E+10	1	-1E+10	1	-1E+10	1
4901784	7	C	09/13/2015	10:54	-129.281	46.854	0	1969.90	0	1.9590	0	34.5840	0	27.652	0	1944.417	0	54.6	4	16.4	4	-1E+10	1	-1E+10	1	-1E+10	1	-1E+10	1	-1E+10	1	-1E+10	1
4901784	7	C	09/13/2015	10:54	-129.281	46.854	0	1974.80	0	1.9560	0	34.5850	0	27.653	0	1949.231	0	54.8	4	16.5	4	-1E+10	1	-1E+10	1	-1E+10	1	-1E+10	1	-1E+10	1	-1E+10	1
4901784	7	C	09/13/2015	10:54	-129.281	46.854	0	1979.80	0	1.9510	0	34.5850	0	27.653	0	1954.144	0	55.0	4	16.6	4	-1E+10	1	-1E+10	1	-1E+10	1	-1E+10	1	-1E+10	1	-1E+10	1
4901784	7	C	09/13/2015	10:54	-129.281	46.854	0	1984.80	0	1.9500	0	34.5860	0	27.654	0	1959.056	0	55.2	4	16.6	4	-1E+10	1	-1E+10	1	-1E+10	1	-1E+10	1	-1E+10	1	-1E+10	1
4901784	7	C	09/13/2015	10:54	-129.281	46.854	0	1989.70	0	1.9480	0	34.5860	0	27.655	0	1963.870	0	55.5	4	16.7	4	-1E+10	1	-1E+10	1	-1E+10	1	-1E+10	1	-1E+10	1	-1E+10	1
4901784	7	C	09/13/2015	10:54	-129.281	46.854	0	1994.70	0	1.9460	0	34.5870	0	27.656	0	1968.782	0	55.8	4	16.8	4	-1E+10	1	-1E+10	1	-1E+10	1	-1E+10	1	-1E+10	1	-1E+10	1
4901784	7	C	09/13/2015	10:54	-129.281	46.854	0	1999.70	0	1.9420	0	34.5880	0	27.657	0	1973.694	0	56.1	4	16.9	4	-1E+10	1	-1E+10	1	-1E+10	1	-1E+10	1	-1E+10	1	-1E+10	1
4901784	7	C	09/13/2015	10:54	-129.281	46.854	0	2004.70	0	1.9390	0	34.5880	0	27.657	0	1978.605	0	56.3	4	17.0	4	-1E+10	1	-1E+10	1	-1E+10	1	-1E+10	1	-1E+10	1	-1E+10	1
4901784	7	C	09/13/2015	10:54	-129.281	46.854	0	2009.60	0	1.9380	0	34.5880	0	27.657	0	1983.419	0	56.5	4	17.0	4	-1E+10	1	-1E+10	1	-1E+10	1	-1E+10	1	-1E+10	1	-1E+10	1
4901784	7	C	09/13/2015	10:54	-129.281	46.854	0	2014.70	0	1.9360	0	34.5890	0	27.658	0	1988.429	0	56.8	4	17.1	4	-1E+10	1	-1E+10	1	-1E+10	1	-1E+10	1	-1E+10	1	-1E+10	1
4901784	7	C	09/13/2015	10:54	-129.281	46.854	0	2020.10	0	1.9310	0	34.5900	0	27.659	0	1993.733	0	57.2	4	17.2	4	-1E+10	1	-1E+10	1	-1E+10	1	-1E+10	1	-1E+10	1	-1E+10	1
4901784	7	C	09/13/2015	10:54	-129.281	46.854	0																										
4901784	8	C	09/23/2015	10:42	-129.414	46.822	0	2.60	0	17.4550	0	32.1110	0	23.192	0	2.578	0	232.6	4	96.5	4	-1E+10	1	-1E+10	1	-1E+10	1	-1E+10	1	-1E+10	1	-1E+10	1
4901784	8	C	09/23/2015	10:42	-129.414	46.822	0	3.80	0	17.4690	0	32.1110	0	23.189	0	3.768	0	232.6	4	96.5	4	-1E+10	1	-1E+10	1	-1E+10	1	-1E+10	1	-1E+10	1	-1E+10	1
4901784	8	C	09/23/2015	10:42	-129.414	46.822	0	4.90	0	17.4730	0	32.1100	0	23.187	0	4.859	0	232.4	4	96.4	4	-1E+10	1	-1E+10	1	-1E+10	1	-1E+10	1	-1E+10	1	-1E+10	1
4901784	8	C	09/23/2015	10:42	-129.414	46.822	0	6.20	0	17.4720	0	32.1110	0	23.188	0	6.149	0	232.1	4	96.3	4	-1E+10	1	-1E+10	1	-1E+10	1	-1E+10	1	-1E+10	1	-1E+10	1
4901784	8	C	09/23/2015	10:42	-129.414	46.822	0	7.50	0	17.4700	0	32.1110	0	23.189	0	7.438	0	232.3	4	96.4	4	-1E+10	1	-1E+10	1	-1E+10	1	-1E+10	1	-1E+10	1	-1E+10	1
4901784	8	C	09/23/2015	10:42	-129.414	46.822	0	9.00	0	17.4730	0	32.1110	0	23.188	0	8.925	0	231.9	4	96.2	4	-1E+10	1	-1E+10	1	-1E+10	1	-1E+10	1	-1E+10	1	-1E+10	1
4901784	8	C	09/23/2015	10:42	-129.414	46.822	0	10.80	0	17.4710	0	32.1100	0	23.188	0	10.710	0	231.7	4	96.1	4	-1E+10	1	-1E+10	1	-1E+10	1	-1E+10	1	-1E+10	1	-1E+10	1
4901784	8	C	09/23/2015	10:42	-129.414	46.822	0	12.70	0	17.4750	0	32.1110	0	23.188	0	12.594	0	231.5	4	96.1	4	-1E+10	1	-1E+10	1	-1E+10	1	-1E+10	1	-1E+10	1	-1E+10	1
4901784	8	C	09/23/2015	10:42	-129.414	46.822	0	14.60	0	17.4700	0	32.1110	0	23.189	0	14.479	0	231.4	4	96.0	4	-1E+10	1	-1E+10	1	-1E+10	1	-1E+10	1	-1E+10	1	-1E+10	1
4901784	8	C	09/23/2015	10:42	-129.414	46.822	0	16.40	0	17.4750	0	32.1100	0	23.187	0	16.263	0	231.3	4	96.0	4	-1E+10	1	-1E+10	1	-1E+10	1	-1E+10	1	-1E+10	1	-1E+10	1
4901784	8	C	09/23/2015	10:42	-129.414	46.822	0	18.00	0	17.4740	0	32.1100	0	23.188	0	17.850	0	231.0	4	95.9	4	-1E+10	1	-1E+10	1	-1E+10	1	-1E+10	1	-1E+10	1	-1E+10	1
4901784	8	C	09/23/2015	10:42	-129.414	46.822	0	19.60	0	17.4730	0	32.1100	0	23.188	0	19.437	0	230.8	4	95.8	4	-1E+10	1	-1E+10	1	-1E+10	1	-1E+10	1	-1E+10	1	-1E+10	1
4901784	8	C	09/23/2015	10:42	-129.414	46.822	0	21.40	0	17.4740	0	32.1100	0	23.188	0	21.222	0	230.7	4	95.8	4	-1E+10	1	-1E+10	1	-1E+10	1	-1E+10	1	-1E+10	1	-1E+10	1
4901784	8	C	09/23/2015	10:42	-129.414	46.822	0	23.30	0	17.4730	0	32.1100	0	23.188	0	23.106	0	230.5	4	95.6	4	-1E+10	1	-1E+10	1	-1E+10	1	-1E+10	1	-1E+10	1	-1E+10	1
4901784	8	C	09/23/2015	10:42	-129.414	46.822	0	25.30	0	17.4750	0	32.1090	0	23.187	0	25.089	0	230.5	4	95.6	4	-1E+10	1	-1E+10	1	-1E+10	1	-1E+10	1	-1E+10	1	-1E+10	1
4901784	8	C	09/23/2015	10:42	-129.414	46.822	0	27.80	0	17.4770	0	32.1080	0	23.186	0	27.568	0	230.3	4	95.6	4	-1E+10	1	-1E+10	1	-1E+10	1	-1E+10	1	-1E+10	1	-1E+10	1
4901784	8	C	09/23/2015	10:42	-129.414	46.822	0	29.60	0	17.4770	0	32.1070	0	23.185	0	29.353	0	230.4	4	95.6	4	-1E+10	1	-1E+10	1	-1E+10	1	-1E+10	1	-1E+10	1	-1E+10	1
4901784	8	C	09/23/2015	10:42	-129.414	46.822	0	31.10	0	17.4780	0	32.1050	0	23.183	0	30.840	0	230.5	4	95.7	4	-1E+10	1	-1E+10	1	-1E+10	1	-1E+10	1	-1E+10	1	-1E+10	1
4901784	8	C	09/23/2015	10:42	-129.414	46.822	0	32.50	0	17.4780	0	32.1020	0	23.181	0	32.228	0	231.0	4	95.9	4	-1E+10	1	-1E+10	1	-1E+10	1	-1E+10	1	-1E+10	1	-1E+10	1
4901784	8	C	09/23/2015	10:42	-129.414	46.822	0	33.90	0	17.4780	0	32.0980	0	23.178	0	33.616	0	231.7	4	96.2	4	-1E+10	1	-1E+10	1	-1E+10	1	-1E+10	1	-1E+10	1	-1E+10	1
4901784	8	C	09/23/2015	10:42	-129.414	46.822	0	35.20	0	17.4760	0	32.0920	0	23.174	0	34.905	0	233.4	4	96.8	4	-1E+10	1	-1E+10	1	-1E+10	1	-1E+10	1	-1E+10	1	-1E+10	1
4901784	8	C	09/23/2015	10:42	-129.414	46.822	0	36.80	0	17.4750	0	32.0760	4	23.162	0	36.492	0	236.4	4	98.1	4	-1E+10	1	-1E+10	1	-1E+10	1	-1E+10	1	-1E+10	1	-1E+10	1
4901784	8	C	09/23/2015	10:42	-129.414	46.822	0	38.00	0	17.4430	0	32.0450	4	23.146	0	37.682	0	241.7	4	100.2	4	-1E+10	1	-1E+10	1	-1E+10	1	-1E+10	1	-1E+10	1	-1E+10	1
4901784	8	C	09/23/2015	10:42	-129.414	46.822	0	39.30	0	16.2210	0	32.0800	0	23.455	0	38.971	0	249.6	4	101.1	4	-1E+10	1	-1E+10	1	-1E+10	1	-1E+10	1	-1E+10	1	-1E+10	1
4901784	8	C	09/23/2015	10:42	-129.414	46.822	0	40.70	0	14.6190	0	32.1350	0	23.847	0	40.359	0	260.3	4	102.2	4	-1E+10	1	-1E+10	1	-1E+10	1	-1E+10	1	-1E+10	1	-1E+10	1
4901784	8	C	09/23/2015	10:42	-129.414	46.822	0	42.20	0	13.8330	0	32.1720	0	24.039	0	41.846	0	266.7	4	103.1	4	-1E+10	1	-1E+10	1	-1E+10	1	-1E+10	1	-1E+10	1	-1E+10	1
4901784	8	C	09/23/2015	10:42	-129.414	46.822	0	43.80	0	13.1030	0	32.2140	0	24.217	0	43.433	0	269.0	4	102.5	4	-1E+10	1	-1E+10	1	-1E+10	1	-1E+10	1	-1E+10	1	-1E+10	1
4901784	8	C	09/23/2015	10:42	-129.414	46.822	0	45.90	0	12.2060	0	32.2490	0	24.416	0	45.515	0	272.2	4	101.9	4	-1E+10	1	-1E+10	1	-1E+10	1	-1E+10	1	-1E+10	1	-1E+10	1
4901784	8	C	09/23/2015	10:42	-129.414	46.822	0	47.60	0	12.1360	0	32.2460	0	24.427	0	47.200	0	270.3	4	101.0	4	-1E+10	1	-1E+10	1	-1E+10	1	-1E+10	1	-1E+10	1	-1E+10	1
4901784	8	C	09/23/2015	10:42	-129.414	46.822	0	49.00	0	11.5940	0	32.2870	0	24.559	0	48.588	0	270.5	4	100.0	4	-1E+10	1	-1E+10	1	-1E+10	1	-1E+10	1	-1E+10	1	-1E+10	1
4901784	8	C	09/23/2015	10:42	-129.414	46.822	0	50.50	0	11.4030	0	32.3020	0	24.605	0	50.076	0	269.2	4	99.1	4	-1E+10	1	-1E+10	1	-1E+10	1	-1E+10	1	-1E+10	1	-1E+10	1
4901784	8	C	09/23/2015	10:42	-129.414	46.822	0	51.90	0	11.3830	0	32.3020	0	24.609	0	51.464	0	266.5	4	98.1	4	-1E+10	1	-1E+10	1	-1E+10	1	-1E+10	1	-1E+10	1	-1E+10	1
4901784	8	C	09/23/2015	10:42	-129.414	46.822	0	53.40	0	11.3300	0	32.3020	0	24.618	0	52.951	0	263.0	4	96.6	4	-1E+10	1	-1E+10	1	-1E+10	1	-1E+10	1	-1E+10	1	-1E+10	1
4901784	8	C	09/23/2015	10:42	-129.414	46.822	0	55.00	0	11.1230	0	32.3270	0	24.675	0	54.537	0	259.4	4	94.9	4	-1E+10	1	-1E+10	1	-1E+10	1	-1E+10	1	-1E+10	1	-1E+10	1
4901784	8	C	09/23/2015	10:42	-129.414	46.822	0	56.50	0	11.0340	0	32.3370	0	24.698	0	56.024	0	256.1	4	93.6	4	-1E+10	1	-1E+10	1	-1E+10	1	-1E+10	1	-1E+10	1	-1E+10	1
4901784	8	C	09/23/2015	10:42	-129.414	46.822	0	58.10	0	10.9840	0	32.3400	0	24.709	0	57.611	0	252.6	4	92.2	4	-1E+10	1	-1E+10	1	-1E+10	1	-1E+10	1	-1E+10	1	-1E+10	1
4901784	8	C	09/23/2015	10:42	-129.414	46.822	0	59.60	0	10.9120	0	32.3440	0	24.725	0	59.098	0	247.8	4	90.3	4	-1E+10	1	-1E+10	1	-1E+10	1	-1E+10	1	-1E+10	1	-1E+10	1
4901784	8	C	09/23/2015	10:42	-129.414	46.822	0	61.20	0	10.8170	0	32.3520	0	24.748	0	60.684	0	243.4	4	88.5	4	-1E+10	1	-1E+10	1	-1E+10	1	-1E+10	1	-1E+10	1	-1E+10	1
4901784	8	C	09/23/2015	10:42	-129.414	46.822	0	62.70	0	10.6840	0	32.3770	0	24.790	0	62.171	0	238.9	4	86.7	4	-1E+10	1	-1E+10	1	-1E+10	1	-1E+10	1	-1E+10	1	-1E+10	1
4901784	8	C	09/23/2015	10:42	-129.414	46.822	0	64.40	0	10.5750	0	32.3940	0	24.822	0	63.857	0	235.5	4	85.2	4	-1E+10	1	-1E+10	1	-1E+10	1	-1E+10	1	-1E+10	1	-1E+10	1
4901784	8	C	09/23/2015	10:42	-129.414	46.822	0	66.00	0	10.4680	0	32.4130	0	24.856	0	65.443	0	232.3	4	83.9	4	-1E+10	1	-1E+10	1	-1E+10	1	-1E+10	1	-1E+10	1	-1E+10	1
4901784	8	C	09/23/2015	10:42	-129.414	46.822	0	67.60	0	10.4520	0	32.4150	0	24.860	0	67.029	0	228.8	4	82.6	4	-1E+10	1	-1E+10	1	-1E+10	1	-1E+10	1	-1E+10	1	-1E+10	1
4901784	8	C	09/23/2015	10:42	-129.414	46.822	0	69.20	0	10.3360	0	32.4360	0	24.896	0	68.615	0	225.1	4	81.1	4	-1E+10	1	-1E+10	1	-1E+10	1	-1E+10	1	-1E+10	1	-1E+10	1
4901784	8	C	09/23/2015	10:42	-129.414	46.822	0	70.80	0	10.2170	0	32.4610	0	24.935	0	70.201	0	222.4	4	79.9	4	-1E+10	1	-1E+10	1	-1E+10	1	-1E+10	1	-1E+10	1	-1E+10	1
4901784	8	C	09/23/2015	10:42	-129.414	46.822	0	72.40	0	10.1310	0	32.4820	0	24.966	0	71.788	0	220.2	4	79.0	4	-1E+10	1	-1E+10	1	-1E+10	1	-1E+10	1	-1E+10	1	-1E+10	1
4901784	8	C	09/23/2015	10:42	-129.414	46.822	0	74.30	0	10.0520	0	32.4950	0	24.990	0	73.671	0	217.5	4	77.9	4	-1E+10	1	-1E+10	1	-1E+10	1	-1E+10	1	-1E+10	1	-1E+10	1
4901784	8	C	09/23/2015	10:42	-129.414	46.822	0	74.70	0	10.0380	0	32.4990	0	24.995	0	74.068	0	216.4	4	77.5	4	-1E+10	1	-1E+10	1	-1E+10	1	-1E+10	1	-1E+10	1	-1E+10	1
4901784	8	C	09/23/2015	10:42	-129.414	46.822	0	76.20	0	9.8530	0	32.5470	0	25.063	0	75.555	0	214.8	4	76.6	4	-1E+10	1	-1E+10	1	-1E+10	1	-1E+10	1	-1E+10	1	-1E+10	1
4901784	8	C	09/23/2015	10:42	-129.414	46.822	0	77.60	0	9.8050	0	32.5580	0	25.080	0	76.943	0	213.0	4	75.9	4	-1E+10	1	-1E+10	1	-1E+10	1	-1E+10	1	-1E+10	1	-1E+10	1
4901784	8	C	09/23/2015	10:42	-129.414	46.822	0	79.00	0	9.7040	0	32.5840	0	25.116	0	78.331	0	211.8	4	75.3	4	-1E+10	1	-1E+10	1	-1E+10	1	-1E+10	1	-1E+10	1	-1E+10	1
4901784	8	C	09/23/2015	10:42	-129.414	46.822	0	80.40	0	9.6560	0	32.5940	0	25.132	0	79.718	0	210.0	4	74.6	4	-1E+10	1	-1E+10	1	-1E+10	1	-1E+10	1	-1E+10	1	-1E+10	1
4901784	8	C	09/23/2015	10:42	-129.414	46.822	0	81.80	0	9.4840	0	32.6600	0	25.211	0	81.106	0	208.8	4	73.9	4	-1E+10	1	-1E+10	1	-1E+10	1	-1E+10	1	-1E+10	1	-1E+10	1
4901784	8	C	09/23/2015	10:42	-129.414	46.822	0	83.30	0	9.4130	0	32.6910	0	25.247	0	82.593	0	208.1	4	73.6	4	-1E+10	1	-1E+10	1	-1E+10	1	-1E+10	1	-1E+10	1	-1E+10	1
4901784	8	C	09/23/2015	10:42	-129.414	46.822	0	84.90	0	9.3450	0	32.7060	0	25.270	0	84.179	0	206.7	4	73.0	4	-1E+10	1	-1E+10	1	-1E+10	1	-1E+10	1	-1E+10	1	-1E+10	1
4901784	8	C	09/23/2015	10:42	-129.414	46.822	0	86.50	0	9.2410	0	32.7340	0	25.308	0	85.765	0	205.7	4	72.5	4	-1E+10	1	-1E+10	1	-1E+10	1	-1E+10	1	-1E+10	1	-1E+10	1
4901784	8	C	09/23/2015	10:42	-129.414	46.822	0	88.10	0	9.1640	0	32.7480	0	25.331	0	87.352	0	204.2	4	71.8	4	-1E+10	1	-1E+10	1	-1E+10	1	-1E+10	1	-1E+10	1	-1E+10	1
4901784	8	C	09/23/2015	10:42	-129.414	46.822	0	89.70	0	9.0450	0	32.7610	0	25.360	0	88.938	0	203.4	4	71.4	4	-1E+10	1	-1E+10	1	-1E+10	1	-1E+10	1	-1E+10	1	-1E+10	1
4901784	8	C	09/23/2015	10:42	-129.414	46.822	0	91.30	0	9.0130	0	32.7710	0	25.373	0	90.524	0	202.4	4	71.0	4	-1E+10	1	-1E+10	1	-1E+10	1	-1E+10	1	-1E+10	1	-1E+10	1
4901784	8	C	09/23/2015	10:42	-129.414	46.822	0	92.90	0	8.9980	0	32.7770	0	25.380	0	92.110	0	200.7	4	70.4	4	-1E+10	1	-1E+10	1	-1E+10	1	-1E+10	1	-1E+10	1	-1E+10	1
4901784	8	C	09/23/2015	10:42	-129.414	46.822	0	94.50	0	8.9220	0	32.7930	0	25.404	0	93.696	0	199.1	4	69.7	4	-1E+10	1	-1E+10	1	-1E+10	1	-1E+10	1	-1E+10	1	-1E+10	1
4901784	8	C	09/23/2015	10:42	-129.414	46.822	0	96.30	0	8.7730	0	32.8380	0	25.462	0	95.480	0	197.4	4	68.9	4	-1E+10	1	-1E+10	1	-1E+10	1	-1E+10	1	-1E+10	1	-1E+10	1
4901784	8	C	09/23/2015	10:42	-129.414	46.822	0	97.90	0	8.6320	0	32.8820	0	25.519	0	97.066	0	196.2	4	68.3	4	-1E+10	1	-1E+10	1	-1E+10	1	-1E+10	1	-1E+10	1	-1E+10	1
4901784	8	C	09/23/2015	10:42	-129.414	46.822	0	99.60	0	8.5940	0	32.8910	0	25.531	0	98.751	0	194.7	4	67.7	4	-1E+10	1	-1E+10	1	-1E+10	1	-1E+10	1	-1E+10	1	-1E+10	1
4901784	8	C	09/23/2015	10:42	-129.414	46.822	0	102.90	0	8.3880	0	32.9590	0	25.616	0	102.022	0	191.4	4	66.3	4	-1E+10	1	-1E+10	1	-1E+10	1	-1E+10	1	-1E+10	1	-1E+10	1
4901784	8	C	09/23/2015	10:42	-129.414	46.822	0	105.40	0	8.2470	0	33.0040	0	25.672	0	104.500	0	188.9	4	65.3	4	-1E+10	1	-1E+10	1	-1E+10	1	-1E+10	1	-1E+10	1	-1E+10	1
4901784	8	C	09/23/2015	10:42	-129.414	46.822	0	107.90	0	8.1440	0	33.0470	0	25.721	0	106.978	0	186.6	4	64.3	4	-1E+10	1	-1E+10	1	-1E+10	1	-1E+10	1	-1E+10	1	-1E+10	1
4901784	8	C	09/23/2015	10:42	-129.414	46.822	0	109.60	0	8.1170	0	33.0600	0	25.735	0	108.663	0	184.9	4	63.7	4	-1E+10	1	-1E+10	1	-1E+10	1	-1E+10	1	-1E+10	1	-1E+10	1
4901784	8	C	09/23/2015	10:42	-129.414	46.822	0	112.20	0	8.0800	0	33.0760	0	25.753	0	111.240	0	181.7	4	62.6	4	-1E+10	1	-1E+10	1	-1E+10	1	-1E+10	1	-1E+10	1	-1E+10	1
4901784	8	C	09/23/2015	10:42	-129.414	46.822	0	114.80	0	7.9930	0	33.1510	0	25.825	0	113.817	0	177.8	4	61.1	4	-1E+10	1	-1E+10	1	-1E+10	1	-1E+10	1	-1E+10	1	-1E+10	1
4901784	8	C	09/23/2015	10:42	-129.414	46.822	0	117.50	0	7.9190	0	33.1940	0	25.869	0	116.493	0	174.7	4	60.0	4	-1E+10	1	-1E+10	1	-1E+10	1	-1E+10	1	-1E+10	1	-1E+10	1
4901784	8	C	09/23/2015	10:42	-129.414	46.822	0	120.10	0	7.8370	0	33.2420	0	25.919	0	119.070	0	172.3	4	59.1	4	-1E+10	1	-1E+10	1	-1E+10	1	-1E+10	1	-1E+10	1	-1E+10	1
4901784	8	C	09/23/2015	10:42	-129.414	46.822	0	122.80	0	7.8010	0	33.2700	0	25.946	0	121.746	0	170.0	4	58.3	4	-1E+10	1	-1E+10	1	-1E+10	1	-1E+10	1	-1E+10	1	-1E+10	1
4901784	8	C	09/23/2015	10:42	-129.414	46.822	0	125.50	0	7.7750	0	33.2990	0	25.973	0	124.423	0	167.5	4	57.4	4	-1E+10	1	-1E+10	1	-1E+10	1	-1E+10	1	-1E+10	1	-1E+10	1
4901784	8	C	09/23/2015	10:42	-129.414	46.822	0	127.30	0	7.7510	0	33.3360	0	26.005	0	126.207	0	165.9	4	56.8	4	-1E+10	1	-1E+10	1	-1E+10	1	-1E+10	1	-1E+10	1	-1E+10	1
4901784	8	C	09/23/2015	10:42	-129.414	46.822	0	130.00	0	7.7380	0	33.3570	0	26.024	0	128.882	0	164.0	4	56.2	4	-1E+10	1	-1E+10	1	-1E+10	1	-1E+10	1	-1E+10	1	-1E+10	1
4901784	8	C	09/23/2015	10:42	-129.414	46.822	0	132.60	0	7.7160	0	33.3900	0	26.053	0	131.459	0	161.9	4	55.4	4	-1E+10	1	-1E+10	1	-1E+10	1	-1E+10	1	-1E+10	1	-1E+10	1
4901784	8	C	09/23/2015	10:42	-129.414	46.822	0	134.90	0	7.7060	0	33.4170	0	26.075	0	133.739	0	160.2	4	54.8	4	-1E+10	1	-1E+10	1	-1E+10	1	-1E+10	1	-1E+10	1	-1E+10	1
4901784	8	C	09/23/2015	10:42	-129.414	46.822	0	137.50	0	7.6860	0	33.4360	0	26.093	0	136.316	0	158.6	4	54.3	4	-1E+10	1	-1E+10	1	-1E+10	1	-1E+10	1	-1E+10	1	-1E+10	1
4901784	8	C	09/23/2015	10:42	-129.414	46.822	0	139.80	0	7.6780	0	33.4480	0	26.104	0	138.595	0	157.2	4	53.8	4	-1E+10	1	-1E+10	1	-1E+10	1	-1E+10	1	-1E+10	1	-1E+10	1
4901784	8	C	09/23/2015	10:42	-129.414	46.822	0	142.10	0	7.6710	0	33.4670	0	26.120	0	140.874	0	155.4	4	53.2	4	-1E+10	1	-1E+10	1	-1E+10	1	-1E+10	1	-1E+10	1	-1E+10	1
4901784	8	C	09/23/2015	10:42	-129.414	46.822	0	145.30	0	7.6540	0	33.5150	0	26.160	0	144.046	0	152.6	4	52.2	4	-1E+10	1	-1E+10	1	-1E+10	1	-1E+10	1	-1E+10	1	-1E+10	1
4901784	8	C	09/23/2015	10:42	-129.414	46.822	0	147.70	0	7.6320	0	33.5400	0	26.183	0	146.424	0	150.6	4	51.5	4	-1E+10	1	-1E+10	1	-1E+10	1	-1E+10	1	-1E+10	1	-1E+10	1
4901784	8	C	09/23/2015	10:42	-129.414	46.822	0	150.30	0	7.6200	0	33.5820	0	26.218	0	149.001	0	150.3	4	51.4	4	-1E+10	1	-1E+10	1	-1E+10	1	-1E+10	1	-1E+10	1	-1E+10	1
4901784	8	C	09/23/2015	10:42	-129.414	46.822	0	152.80	0	7.6150	0	33.6060	0	26.237	0	151.478	0	151.3	4	51.8	4	-1E+10	1	-1E+10	1	-1E+10	1	-1E+10	1	-1E+10	1	-1E+10	1
4901784	8	C	09/23/2015	10:42	-129.414	46.822	0	155.00	0	7.6100	0	33.6230	0	26.251	0	153.658	0	153.7	4	52.6	4	-1E+10	1	-1E+10	1	-1E+10	1	-1E+10	1	-1E+10	1	-1E+10	1
4901784	8	C	09/23/2015	10:42	-129.414	46.822	0	157.50	0	7.5940	0	33.6550	0	26.279	0	156.136	0	157.6	4	53.9	4	-1E+10	1	-1E+10	1	-1E+10	1	-1E+10	1	-1E+10	1	-1E+10	1
4901784	8	C	09/23/2015	10:42	-129.414	46.822	0	160.40	0	7.5760	0	33.6770	0	26.299	0	159.009	0	157.5	4	53.8	4	-1E+10	1	-1E+10	1	-1E+10	1	-1E+10	1	-1E+10	1	-1E+10	1
4901784	8	C	09/23/2015	10:42	-129.414	46.822	0	162.60	0	7.5690	0	33.6810	0	26.303	0	161.190	0	155.4	4	53.1	4	-1E+10	1	-1E+10	1	-1E+10	1	-1E+10	1	-1E+10	1	-1E+10	1
4901784	8	C	09/23/2015	10:42	-129.414	46.822	0	164.80	0	7.5470	0	33.6990	0	26.320	0	163.370	0	151.3	4	51.7	4	-1E+10	1	-1E+10	1	-1E+10	1	-1E+10	1	-1E+10	1	-1E+10	1
4901784	8	C	09/23/2015	10:42	-129.414	46.822	0	167.90	0	7.5370	0	33.7250	0	26.342	0	166.441	0	142.8	4	48.8	4	-1E+10	1	-1E+10	1	-1E+10	1	-1E+10	1	-1E+10	1	-1E+10	1
4901784	8	C	09/23/2015	10:42	-129.414	46.822	0	170.30	0	7.5310	0	33.7350	0	26.351	0	168.820	0	139.2	4	47.6	4	-1E+10	1	-1E+10	1	-1E+10	1	-1E+10	1	-1E+10	1	-1E+10	1
4901784	8	C	09/23/2015	10:42	-129.414	46.822	0	172.60	0	7.5140	0	33.7470	0	26.363	0	171.099	0	136.5	4	46.6	4	-1E+10	1	-1E+10	1	-1E+10	1	-1E+10	1	-1E+10	1	-1E+10	1
4901784	8	C	09/23/2015	10:42	-129.414	46.822	0	174.90	0	7.4840	0	33.7680	0	26.384	0	173.378	0	133.7	4	45.6	4	-1E+10	1	-1E+10	1	-1E+10	1	-1E+10	1	-1E+10	1	-1E+10	1
4901784	8	C	09/23/2015	10:42	-129.414	46.822	0	177.30	0	7.4620	0	33.7810	0	26.397	0	175.756	0	131.5	4	44.9	4	-1E+10	1	-1E+10	1	-1E+10	1	-1E+10	1	-1E+10	1	-1E+10	1
4901784	8	C	09/23/2015	10:42	-129.414	46.822	0	179.80	0	7.4440	0	33.7900	0	26.407	0	178.233	0	129.7	4	44.3	4	-1E+10	1	-1E+10	1	-1E+10	1	-1E+10	1	-1E+10	1	-1E+10	1
4901784	8	C	09/23/2015	10:42	-129.414	46.822	0	182.30	0	7.4110	0	33.8050	0	26.423	0	180.710	0	128.0	4	43.7	4	-1E+10	1	-1E+10	1	-1E+10	1	-1E+10	1	-1E+10	1	-1E+10	1
4901784	8	C	09/23/2015	10:42	-129.414	46.822	0	184.70	0	7.3800	0	33.8170	0	26.437	0	183.088	0	127.0	4	43.3	4	-1E+10	1	-1E+10	1	-1E+10	1	-1E+10	1	-1E+10	1	-1E+10	1
4901784	8	C	09/23/2015	10:42	-129.414	46.822	0	187.20	0	7.3470	0	33.8240	0	26.447	0	185.565	0	125.2	4	42.6	4	-1E+10	1	-1E+10	1	-1E+10	1	-1E+10	1	-1E+10	1	-1E+10	1
4901784	8	C	09/23/2015	10:42	-129.414	46.822	0	189.70	0	7.3020	0	33.8380	0	26.464	0	188.042	0	122.9	4	41.8	4	-1E+10	1	-1E+10	1	-1E+10	1	-1E+10	1	-1E+10	1	-1E+10	1
4901784	8	C	09/23/2015	10:42	-129.414	46.822	0	192.20	0	7.2560	0	33.8530	0	26.483	0	190.519	0	121.3	4	41.2	4	-1E+10	1	-1E+10	1	-1E+10	1	-1E+10	1	-1E+10	1	-1E+10	1
4901784	8	C	09/23/2015	10:42	-129.414	46.822	0	194.80	0	7.2190	0	33.8590	0	26.493	0	193.095	0	120.0	4	40.8	4	-1E+10	1	-1E+10	1	-1E+10	1	-1E+10	1	-1E+10	1	-1E+10	1
4901784	8	C	09/23/2015	10:42	-129.414	46.822	0	197.30	0	7.1780	0	33.8690	0	26.506	0	195.572	0	119.3	4	40.5	4	-1E+10	1	-1E+10	1	-1E+10	1	-1E+10	1	-1E+10	1	-1E+10	1
4901784	8	C	09/23/2015	10:42	-129.414	46.822	0	199.80	0	7.1510	0	33.8710	0	26.511	0	198.049	0	119.0	4	40.3	4	-1E+10	1	-1E+10	1	-1E+10	1	-1E+10	1	-1E+10	1	-1E+10	1
4901784	8	C	09/23/2015	10:42	-129.414	46.822	0	202.30	0	7.1210	0	33.8720	0	26.516	0	200.526	0	118.4	4	40.1	4	-1E+10	1	-1E+10	1	-1E+10	1	-1E+10	1	-1E+10	1	-1E+10	1
4901784	8	C	09/23/2015	10:42	-129.414	46.822	0	204.90	0	7.0800	0	33.8760	0	26.525	0	203.102	0	117.5	4	39.8	4	-1E+10	1	-1E+10	1	-1E+10	1	-1E+10	1	-1E+10	1	-1E+10	1
4901784	8	C	09/23/2015	10:42	-129.414	46.822	0	207.50	0	7.0460	0	33.8810	0	26.534	0	205.678	0	116.2	4	39.3	4	-1E+10	1	-1E+10	1	-1E+10	1	-1E+10	1	-1E+10	1	-1E+10	1
4901784	8	C	09/23/2015	10:42	-129.414	46.822	0	210.10	0	7.0240	0	33.8850	0	26.540	0	208.254	0	115.0	4	38.9	4	-1E+10	1	-1E+10	1	-1E+10	1	-1E+10	1	-1E+10	1	-1E+10	1
4901784	8	C	09/23/2015	10:42	-129.414	46.822	0	212.80	0	7.0220	0	33.8860	0	26.541	0	210.928	0	113.8	4	38.5	4	-1E+10	1	-1E+10	1	-1E+10	1	-1E+10	1	-1E+10	1	-1E+10	1
4901784	8	C	09/23/2015	10:42	-129.414	46.822	0	215.40	0	6.9890	0	33.8920	0	26.550	0	213.504	0	112.5	4	38.0	4	-1E+10	1	-1E+10	1	-1E+10	1	-1E+10	1	-1E+10	1	-1E+10	1
4901784	8	C	09/23/2015	10:42	-129.414	46.822	0	217.10	0	6.9690	0	33.8940	0	26.555	0	215.188	0	111.8	4	37.8	4	-1E+10	1	-1E+10	1	-1E+10	1	-1E+10	1	-1E+10	1	-1E+10	1
4901784	8	C	09/23/2015	10:42	-129.414	46.822	0	219.70	0	6.9450	0	33.8970	0	26.560	0	217.764	0	110.3	4	37.3	4	-1E+10	1	-1E+10	1	-1E+10	1	-1E+10	1	-1E+10	1	-1E+10	1
4901784	8	C	09/23/2015	10:42	-129.414	46.822	0	222.20	0	6.9300	0	33.8990	0	26.564	0	220.241	0	108.8	4	36.7	4	-1E+10	1	-1E+10	1	-1E+10	1	-1E+10	1	-1E+10	1	-1E+10	1
4901784	8	C	09/23/2015	10:42	-129.414	46.822	0	224.80	0	6.9030	0	33.9030	0	26.571	0	222.816	0	106.7	4	36.0	4	-1E+10	1	-1E+10	1	-1E+10	1	-1E+10	1	-1E+10	1	-1E+10	1
4901784	8	C	09/23/2015	10:42	-129.414	46.822	0	227.40	0	6.8780	0	33.9080	0	26.578	0	225.392	0	105.0	4	35.4	4	-1E+10	1	-1E+10	1	-1E+10	1	-1E+10	1	-1E+10	1	-1E+10	1
4901784	8	C	09/23/2015	10:42	-129.414	46.822	0	230.00	0	6.8850	0	33.9130	0	26.581	0	227.968	0	104.1	4	35.1	4	-1E+10	1	-1E+10	1	-1E+10	1	-1E+10	1	-1E+10	1	-1E+10	1
4901784	8	C	09/23/2015	10:42	-129.414	46.822	0	232.70	0	6.8440	0	33.9100	0	26.584	0	230.642	0	104.5	4	35.2	4	-1E+10	1	-1E+10	1	-1E+10	1	-1E+10	1	-1E+10	1	-1E+10	1
4901784	8	C	09/23/2015	10:42	-129.414	46.822	0	235.30	0	6.8080	0	33.9130	0	26.592	0	233.218	0	103.0	4	34.7	4	-1E+10	1	-1E+10	1	-1E+10	1	-1E+10	1	-1E+10	1	-1E+10	1
4901784	8	C	09/23/2015	10:42	-129.414	46.822	0	237.90	0	6.7780	0	33.9160	0	26.598	0	235.793	0	101.3	4	34.1	4	-1E+10	1	-1E+10	1	-1E+10	1	-1E+10	1	-1E+10	1	-1E+10	1
4901784	8	C	09/23/2015	10:42	-129.414	46.822	0	239.70	0	6.7690	0	33.9190	0	26.602	0	237.576	0	99.9	4	33.6	4	-1E+10	1	-1E+10	1	-1E+10	1	-1E+10	1	-1E+10	1	-1E+10	1
4901784	8	C	09/23/2015	10:42	-129.414	46.822	0	242.30	0	6.7620	0	33.9200	0	26.603	0	240.152	0	96.9	4	32.6	4	-1E+10	1	-1E+10	1	-1E+10	1	-1E+10	1	-1E+10	1	-1E+10	1
4901784	8	C	09/23/2015	10:42	-129.414	46.822	0	245.00	0	6.7790	0	33.9280	0	26.607	0	242.826	0	94.1	4	31.6	4	-1E+10	1	-1E+10	1	-1E+10	1	-1E+10	1	-1E+10	1	-1E+10	1
4901784	8	C	09/23/2015	10:42	-129.414	46.822	0	247.70	0	6.7780	0	33.9320	0	26.611	0	245.501	0	93.0	4	31.3	4	-1E+10	1	-1E+10	1	-1E+10	1	-1E+10	1	-1E+10	1	-1E+10	1
4901784	8	C	09/23/2015	10:42	-129.414	46.822	0	250.30	0	6.7740	0	33.9330	0	26.612	0	248.076	0	92.1	4	31.0	4	-1E+10	1	-1E+10	1	-1E+10	1	-1E+10	1	-1E+10	1	-1E+10	1
4901784	8	C	09/23/2015	10:42	-129.414	46.822	0	252.10	0	6.7670	0	33.9330	0	26.613	0	249.859	0	91.7	4	30.8	4	-1E+10	1	-1E+10	1	-1E+10	1	-1E+10	1	-1E+10	1	-1E+10	1
4901784	8	C	09/23/2015	10:42	-129.414	46.822	0	254.80	0	6.7340	0	33.9320	0	26.617	0	252.533	0	91.0	4	30.6	4	-1E+10	1	-1E+10	1	-1E+10	1	-1E+10	1	-1E+10	1	-1E+10	1
4901784	8	C	09/23/2015	10:42	-129.414	46.822	0	257.40	0	6.6670	0	33.9360	0	26.629	0	255.109	0	89.6	4	30.1	4	-1E+10	1	-1E+10	1	-1E+10	1	-1E+10	1	-1E+10	1	-1E+10	1
4901784	8	C	09/23/2015	10:42	-129.414	46.822	0	260.20	0	6.6600	0	33.9400	0	26.633	0	257.882	0	88.2	4	29.6	4	-1E+10	1	-1E+10	1	-1E+10	1	-1E+10	1	-1E+10	1	-1E+10	1
4901784	8	C	09/23/2015	10:42	-129.414	46.822	0	262.90	0	6.6510	0	33.9430	0	26.637	0	260.556	0	87.1	4	29.2	4	-1E+10	1	-1E+10	1	-1E+10	1	-1E+10	1	-1E+10	1	-1E+10	1
4901784	8	C	09/23/2015	10:42	-129.414	46.822	0	264.60	0	6.6340	0	33.9440	0	26.640	0	262.240	0	86.6	4	29.0	4	-1E+10	1	-1E+10	1	-1E+10	1	-1E+10	1	-1E+10	1	-1E+10	1
4901784	8	C	09/23/2015	10:42	-129.414	46.822	0	267.40	0	6.6100	0	33.9450	0	26.644	0	265.013	0	85.9	4	28.8	4	-1E+10	1	-1E+10	1	-1E+10	1	-1E+10	1	-1E+10	1	-1E+10	1
4901784	8	C	09/23/2015	10:42	-129.414	46.822	0	270.10	0	6.5880	0	33.9440	0	26.646	0	267.687	0	85.2	4	28.5	4	-1E+10	1	-1E+10	1	-1E+10	1	-1E+10	1	-1E+10	1	-1E+10	1
4901784	8	C	09/23/2015	10:42	-129.414	46.822	0	271.90	0	6.5580	0	33.9470	0	26.652	0	269.470	0	84.6	4	28.3	4	-1E+10	1	-1E+10	1	-1E+10	1	-1E+10	1	-1E+10	1	-1E+10	1
4901784	8	C	09/23/2015	10:42	-129.414	46.822	0	274.70	0	6.5260	0	33.9480	0	26.657	0	272.243	0	83.3	4	27.9	4	-1E+10	1	-1E+10	1	-1E+10	1	-1E+10	1	-1E+10	1	-1E+10	1
4901784	8	C	09/23/2015	10:42	-129.414	46.822	0	277.50	0	6.5050	0	33.9500	0	26.661	0	275.016	0	82.2	4	27.5	4	-1E+10	1	-1E+10	1	-1E+10	1	-1E+10	1	-1E+10	1	-1E+10	1
4901784	8	C	09/23/2015	10:42	-129.414	46.822	0	280.30	0	6.4730	0	33.9520	0	26.667	0	277.789	0	81.4	4	27.2	4	-1E+10	1	-1E+10	1	-1E+10	1	-1E+10	1	-1E+10	1	-1E+10	1
4901784	8	C	09/23/2015	10:42	-129.414	46.822	0	283.10	0	6.4450	0	33.9520	0	26.671	0	280.563	0	80.7	4	26.9	4	-1E+10	1	-1E+10	1	-1E+10	1	-1E+10	1	-1E+10	1	-1E+10	1
4901784	8	C	09/23/2015	10:42	-129.414	46.822	0	285.00	0	6.3860	0	33.9490	0	26.676	0	282.444	0	80.1	4	26.7	4	-1E+10	1	-1E+10	1	-1E+10	1	-1E+10	1	-1E+10	1	-1E+10	1
4901784	8	C	09/23/2015	10:42	-129.414	46.822	0	286.80	0	6.3860	0	33.9520	0	26.679	0	284.227	0	78.6	4	26.2	4	-1E+10	1	-1E+10	1	-1E+10	1	-1E+10	1	-1E+10	1	-1E+10	1
4901784	8	C	09/23/2015	10:42	-129.414	46.822	0	289.70	0	6.3820	0	33.9590	0	26.685	0	287.099	0	77.3	4	25.8	4	-1E+10	1	-1E+10	1	-1E+10	1	-1E+10	1	-1E+10	1	-1E+10	1
4901784	8	C	09/23/2015	10:42	-129.414	46.822	0	292.60	0	6.3650	0	33.9590	0	26.687	0	289.971	0	76.7	4	25.6	4	-1E+10	1	-1E+10	1	-1E+10	1	-1E+10	1	-1E+10	1	-1E+10	1
4901784	8	C	09/23/2015	10:42	-129.414	46.822	0	294.40	0	6.3610	0	33.9580	0	26.687	0	291.753	0	76.1	4	25.4	4	-1E+10	1	-1E+10	1	-1E+10	1	-1E+10	1	-1E+10	1	-1E+10	1
4901784	8	C	09/23/2015	10:42	-129.414	46.822	0	297.30	0	6.2930	0	33.9610	0	26.698	0	294.625	0	75.5	4	25.1	4	-1E+10	1	-1E+10	1	-1E+10	1	-1E+10	1	-1E+10	1	-1E+10	1
4901784	8	C	09/23/2015	10:42	-129.414	46.822	0	300.20	0	6.2370	0	33.9590	0	26.703	0	297.497	0	74.8	4	24.9	4	-1E+10	1	-1E+10	1	-1E+10	1	-1E+10	1	-1E+10	1	-1E+10	1
4901784	8	C	09/23/2015	10:42	-129.414	46.822	0	302.10	0	6.2350	0	33.9600	0	26.705	0	299.379	0	73.7	4	24.5	4	-1E+10	1	-1E+10	1	-1E+10	1	-1E+10	1	-1E+10	1	-1E+10	1
4901784	8	C	09/23/2015	10:42	-129.414	46.822	0	305.10	0	6.2280	0	33.9660	0	26.710	0	302.349	0	72.4	4	24.1	4	-1E+10	1	-1E+10	1	-1E+10	1	-1E+10	1	-1E+10	1	-1E+10	1
4901784	8	C	09/23/2015	10:42	-129.414	46.822	0	308.00	0	6.2140	0	33.9660	0	26.712	0	305.221	0	71.2	4	23.7	4	-1E+10	1	-1E+10	1	-1E+10	1	-1E+10	1	-1E+10	1	-1E+10	1
4901784	8	C	09/23/2015	10:42	-129.414	46.822	0	310.00	0	6.1950	0	33.9690	0	26.717	0	307.201	0	70.6	4	23.4	4	-1E+10	1	-1E+10	1	-1E+10	1	-1E+10	1	-1E+10	1	-1E+10	1
4901784	8	C	09/23/2015	10:42	-129.414	46.822	0	312.00	0	6.1740	0	33.9710	0	26.721	0	309.182	0	70.3	4	23.3	4	-1E+10	1	-1E+10	1	-1E+10	1	-1E+10	1	-1E+10	1	-1E+10	1
4901784	8	C	09/23/2015	10:42	-129.414	46.822	0	314.90	0	6.1660	0	33.9710	0	26.722	0	312.054	0	69.8	4	23.2	4	-1E+10	1	-1E+10	1	-1E+10	1	-1E+10	1	-1E+10	1	-1E+10	1
4901784	8	C	09/23/2015	10:42	-129.414	46.822	0	317.70	0	6.1520	0	33.9720	0	26.725	0	314.826	0	69.3	4	23.0	4	-1E+10	1	-1E+10	1	-1E+10	1	-1E+10	1	-1E+10	1	-1E+10	1
4901784	8	C	09/23/2015	10:42	-129.414	46.822	0	319.70	0	6.1430	0	33.9720	0	26.726	0	316.807	0	68.9	4	22.8	4	-1E+10	1	-1E+10	1	-1E+10	1	-1E+10	1	-1E+10	1	-1E+10	1
4901784	8	C	09/23/2015	10:42	-129.414	46.822	0	322.60	0	6.1310	0	33.9720	0	26.727	0	319.678	0	68.1	4	22.6	4	-1E+10	1	-1E+10	1	-1E+10	1	-1E+10	1	-1E+10	1	-1E+10	1
4901784	8	C	09/23/2015	10:42	-129.414	46.822	0	325.50	0	6.1130	0	33.9740	0	26.731	0	322.549	0	67.2	4	22.3	4	-1E+10	1	-1E+10	1	-1E+10	1	-1E+10	1	-1E+10	1	-1E+10	1
4901784	8	C	09/23/2015	10:42	-129.414	46.822	0	327.40	0	6.1050	0	33.9740	0	26.732	0	324.431	0	66.6	4	22.1	4	-1E+10	1	-1E+10	1	-1E+10	1	-1E+10	1	-1E+10	1	-1E+10	1
4901784	8	C	09/23/2015	10:42	-129.414	46.822	0	329.30	0	6.0950	0	33.9760	0	26.735	0	326.312	0	65.9	4	21.8	4	-1E+10	1	-1E+10	1	-1E+10	1	-1E+10	1	-1E+10	1	-1E+10	1
4901784	8	C	09/23/2015	10:42	-129.414	46.822	0	332.20	0	6.0580	0	33.9790	0	26.742	0	329.183	0	65.2	4	21.6	4	-1E+10	1	-1E+10	1	-1E+10	1	-1E+10	1	-1E+10	1	-1E+10	1
4901784	8	C	09/23/2015	10:42	-129.414	46.822	0	335.60	0	6.0290	0	33.9800	0	26.747	0	332.550	0	64.6	4	21.4	4	-1E+10	1	-1E+10	1	-1E+10	1	-1E+10	1	-1E+10	1	-1E+10	1
4901784	8	C	09/23/2015	10:42	-129.414	46.822	0	337.60	0	6.0220	0	33.9790	0	26.747	0	334.530	0	64.2	4	21.2	4	-1E+10	1	-1E+10	1	-1E+10	1	-1E+10	1	-1E+10	1	-1E+10	1
4901784	8	C	09/23/2015	10:42	-129.414	46.822	0	340.00	0	6.0030	0	33.9800	0	26.750	0	336.906	0	63.5	4	21.0	4	-1E+10	1	-1E+10	1	-1E+10	1	-1E+10	1	-1E+10	1	-1E+10	1
4901784	8	C	09/23/2015	10:42	-129.414	46.822	0	342.40	0	5.9760	0	33.9810	0	26.754	0	339.282	0	62.9	4	20.8	4	-1E+10	1	-1E+10	1	-1E+10	1	-1E+10	1	-1E+10	1	-1E+10	1
4901784	8	C	09/23/2015	10:42	-129.414	46.822	0	344.90	0	5.9410	0	33.9820	0	26.759	0	341.758	0	62.3	4	20.6	4	-1E+10	1	-1E+10	1	-1E+10	1	-1E+10	1	-1E+10	1	-1E+10	1
4901784	8	C	09/23/2015	10:42	-129.414	46.822	0	347.40	0	5.9110	0	33.9840	0	26.765	0	344.233	0	61.9	4	20.4	4	-1E+10	1	-1E+10	1	-1E+10	1	-1E+10	1	-1E+10	1	-1E+10	1
4901784	8	C	09/23/2015	10:42	-129.414	46.822	0	349.90	0	5.8920	0	33.9840	0	26.767	0	346.708	0	61.7	4	20.4	4	-1E+10	1	-1E+10	1	-1E+10	1	-1E+10	1	-1E+10	1	-1E+10	1
4901784	8	C	09/23/2015	10:42	-129.414	46.822	0	352.30	0	5.8780	0	33.9850	0	26.770	0	349.084	0	61.6	4	20.3	4	-1E+10	1	-1E+10	1	-1E+10	1	-1E+10	1	-1E+10	1	-1E+10	1
4901784	8	C	09/23/2015	10:42	-129.414	46.822	0	354.80	0	5.8630	0	33.9850	0	26.772	0	351.559	0	61.5	4	20.3	4	-1E+10	1	-1E+10	1	-1E+10	1	-1E+10	1	-1E+10	1	-1E+10	1
4901784	8	C	09/23/2015	10:42	-129.414	46.822	0	357.30	0	5.8450	0	33.9830	0	26.772	0	354.034	0	61.5	4	20.3	4	-1E+10	1	-1E+10	1	-1E+10	1	-1E+10	1	-1E+10	1	-1E+10	1
4901784	8	C	09/23/2015	10:42	-129.414	46.822	0	359.90	0	5.8130	0	33.9820	0	26.775	0	356.608	0	61.0	4	20.1	4	-1E+10	1	-1E+10	1	-1E+10	1	-1E+10	1	-1E+10	1	-1E+10	1
4901784	8	C	09/23/2015	10:42	-129.414	46.822	0	362.30	0	5.7950	0	33.9780	0	26.775	0	358.984	0	59.7	4	19.7	4	-1E+10	1	-1E+10	1	-1E+10	1	-1E+10	1	-1E+10	1	-1E+10	1
4901784	8	C	09/23/2015	10:42	-129.414	46.822	0	364.80	0	5.8060	0	33.9880	0	26.781	0	361.459	0	58.5	4	19.3	4	-1E+10	1	-1E+10	1	-1E+10	1	-1E+10	1	-1E+10	1	-1E+10	1
4901784	8	C	09/23/2015	10:42	-129.414	46.822	0	367.40	0	5.7830	0	33.9890	0	26.785	0	364.033	0	57.8	4	19.0	4	-1E+10	1	-1E+10	1	-1E+10	1	-1E+10	1	-1E+10	1	-1E+10	1
4901784	8	C	09/23/2015	10:42	-129.414	46.822	0	370.00	0	5.7530	0	33.9920	0	26.791	0	366.607	0	57.4	4	18.9	4	-1E+10	1	-1E+10	1	-1E+10	1	-1E+10	1	-1E+10	1	-1E+10	1
4901784	8	C	09/23/2015	10:42	-129.414	46.822	0	372.60	0	5.7380	0	33.9910	0	26.792	0	369.181	0	57.0	4	18.7	4	-1E+10	1	-1E+10	1	-1E+10	1	-1E+10	1	-1E+10	1	-1E+10	1
4901784	8	C	09/23/2015	10:42	-129.414	46.822	0	375.10	0	5.7200	0	33.9930	0	26.796	0	371.655	0	56.6	4	18.6	4	-1E+10	1	-1E+10	1	-1E+10	1	-1E+10	1	-1E+10	1	-1E+10	1
4901784	8	C	09/23/2015	10:42	-129.414	46.822	0	377.60	0	5.7060	0	33.9920	0	26.797	0	374.130	0	56.2	4	18.5	4	-1E+10	1	-1E+10	1	-1E+10	1	-1E+10	1	-1E+10	1	-1E+10	1
4901784	8	C	09/23/2015	10:42	-129.414	46.822	0	380.10	0	5.6840	0	33.9940	0	26.801	0	376.605	0	55.6	4	18.3	4	-1E+10	1	-1E+10	1	-1E+10	1	-1E+10	1	-1E+10	1	-1E+10	1
4901784	8	C	09/23/2015	10:42	-129.414	46.822	0	382.70	0	5.6500	0	33.9950	0	26.806	0	379.179	0	55.3	4	18.1	4	-1E+10	1	-1E+10	1	-1E+10	1	-1E+10	1	-1E+10	1	-1E+10	1
4901784	8	C	09/23/2015	10:42	-129.414	46.822	0	385.20	0	5.6350	0	33.9960	0	26.808	0	381.653	0	54.9	4	18.0	4	-1E+10	1	-1E+10	1	-1E+10	1	-1E+10	1	-1E+10	1	-1E+10	1
4901784	8	C	09/23/2015	10:42	-129.414	46.822	0	387.70	0	5.6290	0	33.9960	0	26.809	0	384.128	0	54.6	4	17.9	4	-1E+10	1	-1E+10	1	-1E+10	1	-1E+10	1	-1E+10	1	-1E+10	1
4901784	8	C	09/23/2015	10:42	-129.414	46.822	0	390.20	0	5.6250	0	33.9960	0	26.810	0	386.603	0	54.0	4	17.7	4	-1E+10	1	-1E+10	1	-1E+10	1	-1E+10	1	-1E+10	1	-1E+10	1
4901784	8	C	09/23/2015	10:42	-129.414	46.822	0	392.80	0	5.6180	0	33.9960	0	26.811	0	389.176	0	53.2	4	17.4	4	-1E+10	1	-1E+10	1	-1E+10	1	-1E+10	1	-1E+10	1	-1E+10	1
4901784	8	C	09/23/2015	10:42	-129.414	46.822	0	395.40	0	5.6020	0	34.0010	0	26.816	0	391.750	0	52.0	4	17.0	4	-1E+10	1	-1E+10	1	-1E+10	1	-1E+10	1	-1E+10	1	-1E+10	1
4901784	8	C	09/23/2015	10:42	-129.414	46.822	0	398.00	0	5.5930	0	34.0020	0	26.818	0	394.323	0	51.1	4	16.7	4	-1E+10	1	-1E+10	1	-1E+10	1	-1E+10	1	-1E+10	1	-1E+10	1
4901784	8	C	09/23/2015	10:42	-129.414	46.822	0	399.70	0	5.5900	0	34.0050	0	26.821	0	396.006	0	50.5	4	16.5	4	-1E+10	1	-1E+10	1	-1E+10	1	-1E+10	1	-1E+10	1	-1E+10	1
4901784	8	C	09/23/2015	10:42	-129.414	46.822	0	402.30	0	5.5740	0	34.0080	0	26.825	0	398.580	0	49.8	4	16.3	4	-1E+10	1	-1E+10	1	-1E+10	1	-1E+10	1	-1E+10	1	-1E+10	1
4901784	8	C	09/23/2015	10:42	-129.414	46.822	0	405.00	0	5.5600	0	34.0100	0	26.829	0	401.252	0	49.3	4	16.1	4	-1E+10	1	-1E+10	1	-1E+10	1	-1E+10	1	-1E+10	1	-1E+10	1
4901784	8	C	09/23/2015	10:42	-129.414	46.822	0	407.50	0	5.5480	0	34.0120	0	26.832	0	403.726	0	48.9	4	16.0	4	-1E+10	1	-1E+10	1	-1E+10	1	-1E+10	1	-1E+10	1	-1E+10	1
4901784	8	C	09/23/2015	10:42	-129.414	46.822	0	410.10	0	5.5420	0	34.0120	0	26.833	0	406.300	0	48.6	4	15.9	4	-1E+10	1	-1E+10	1	-1E+10	1	-1E+10	1	-1E+10	1	-1E+10	1
4901784	8	C	09/23/2015	10:42	-129.414	46.822	0	412.70	0	5.5280	0	34.0140	0	26.836	0	408.873	0	48.2	4	15.8	4	-1E+10	1	-1E+10	1	-1E+10	1	-1E+10	1	-1E+10	1	-1E+10	1
4901784	8	C	09/23/2015	10:42	-129.414	46.822	0	415.30	0	5.5190	0	34.0140	0	26.837	0	411.446	0	47.9	4	15.7	4	-1E+10	1	-1E+10	1	-1E+10	1	-1E+10	1	-1E+10	1	-1E+10	1
4901784	8	C	09/23/2015	10:42	-129.414	46.822	0	417.00	0	5.5160	0	34.0140	0	26.837	0	413.129	0	47.7	4	15.6	4	-1E+10	1	-1E+10	1	-1E+10	1	-1E+10	1	-1E+10	1	-1E+10	1
4901784	8	C	09/23/2015	10:42	-129.414	46.822	0	419.70	0	5.5060	0	34.0150	0	26.839	0	415.801	0	47.2	4	15.4	4	-1E+10	1	-1E+10	1	-1E+10	1	-1E+10	1	-1E+10	1	-1E+10	1
4901784	8	C	09/23/2015	10:42	-129.414	46.822	0	422.40	0	5.4930	0	34.0170	0	26.842	0	418.473	0	46.9	4	15.3	4	-1E+10	1	-1E+10	1	-1E+10	1	-1E+10	1	-1E+10	1	-1E+10	1
4901784	8	C	09/23/2015	10:42	-129.414	46.822	0	425.00	0	5.4890	0	34.0170	0	26.843	0	421.047	0	46.4	4	15.2	4	-1E+10	1	-1E+10	1	-1E+10	1	-1E+10	1	-1E+10	1	-1E+10	1
4901784	8	C	09/23/2015	10:42	-129.414	46.822	0	427.50	0	5.4730	0	34.0190	0	26.847	0	423.521	0	46.0	4	15.0	4	-1E+10	1	-1E+10	1	-1E+10	1	-1E+10	1	-1E+10	1	-1E+10	1
4901784	8	C	09/23/2015	10:42	-129.414	46.822	0	430.20	0	5.4680	0	34.0200	0	26.848	0	426.193	0	45.5	4	14.9	4	-1E+10	1	-1E+10	1	-1E+10	1	-1E+10	1	-1E+10	1	-1E+10	1
4901784	8	C	09/23/2015	10:42	-129.414	46.822	0	432.90	0	5.4460	0	34.0220	0	26.852	0	428.865	0	45.0	4	14.7	4	-1E+10	1	-1E+10	1	-1E+10	1	-1E+10	1	-1E+10	1	-1E+10	1
4901784	8	C	09/23/2015	10:42	-129.414	46.822	0	434.60	0	5.4400	0	34.0230	0	26.854	0	430.547	0	44.7	4	14.6	4	-1E+10	1	-1E+10	1	-1E+10	1	-1E+10	1	-1E+10	1	-1E+10	1
4901784	8	C	09/23/2015	10:42	-129.414	46.822	0	437.30	0	5.4300	0	34.0230	0	26.855	0	433.219	0	44.3	4	14.5	4	-1E+10	1	-1E+10	1	-1E+10	1	-1E+10	1	-1E+10	1	-1E+10	1
4901784	8	C	09/23/2015	10:42	-129.414	46.822	0	440.00	0	5.4170	0	34.0240	0	26.857	0	435.891	0	43.8	4	14.3	4	-1E+10	1	-1E+10	1	-1E+10	1	-1E+10	1	-1E+10	1	-1E+10	1
4901784	8	C	09/23/2015	10:42	-129.414	46.822	0	442.80	0	5.3830	0	34.0270	0	26.864	0	438.662	0	43.4	4	14.1	4	-1E+10	1	-1E+10	1	-1E+10	1	-1E+10	1	-1E+10	1	-1E+10	1
4901784	8	C	09/23/2015	10:42	-129.414	46.822	0	445.50	0	5.3650	0	34.0290	0	26.867	0	441.334	0	43.1	4	14.0	4	-1E+10	1	-1E+10	1	-1E+10	1	-1E+10	1	-1E+10	1	-1E+10	1
4901784	8	C	09/23/2015	10:42	-129.414	46.822	0	447.30	0	5.3640	0	34.0280	0	26.867	0	443.115	0	42.8	4	14.0	4	-1E+10	1	-1E+10	1	-1E+10	1	-1E+10	1	-1E+10	1	-1E+10	1
4901784	8	C	09/23/2015	10:42	-129.414	46.822	0	450.00	0	5.3340	0	34.0310	0	26.873	0	445.787	0	42.5	4	13.8	4	-1E+10	1	-1E+10	1	-1E+10	1	-1E+10	1	-1E+10	1	-1E+10	1
4901784	8	C	09/23/2015	10:42	-129.414	46.822	0	452.70	0	5.3220	0	34.0310	0	26.874	0	448.459	0	42.2	4	13.7	4	-1E+10	1	-1E+10	1	-1E+10	1	-1E+10	1	-1E+10	1	-1E+10	1
4901784	8	C	09/23/2015	10:42	-129.414	46.822	0	454.50	0	5.3180	0	34.0310	0	26.875	0	450.240	0	41.9	4	13.6	4	-1E+10	1	-1E+10	1	-1E+10	1	-1E+10	1	-1E+10	1	-1E+10	1
4901784	8	C	09/23/2015	10:42	-129.414	46.822	0	457.20	0	5.3050	0	34.0320	0	26.877	0	452.912	0	41.4	4	13.5	4	-1E+10	1	-1E+10	1	-1E+10	1	-1E+10	1	-1E+10	1	-1E+10	1
4901784	8	C	09/23/2015	10:42	-129.414	46.822	0	459.80	0	5.2990	0	34.0320	0	26.878	0	455.485	0	40.7	4	13.3	4	-1E+10	1	-1E+10	1	-1E+10	1	-1E+10	1	-1E+10	1	-1E+10	1
4901784	8	C	09/23/2015	10:42	-129.414	46.822	0	462.50	0	5.2640	0	34.0360	0	26.885	0	458.156	0	40.0	4	13.0	4	-1E+10	1	-1E+10	1	-1E+10	1	-1E+10	1	-1E+10	1	-1E+10	1
4901784	8	C	09/23/2015	10:42	-129.414	46.822	0	465.10	0	5.2430	0	34.0390	0	26.890	0	460.729	0	39.4	4	12.8	4	-1E+10	1	-1E+10	1	-1E+10	1	-1E+10	1	-1E+10	1	-1E+10	1
4901784	8	C	09/23/2015	10:42	-129.414	46.822	0	467.80	0	5.2120	0	34.0430	0	26.897	0	463.401	0	38.6	4	12.5	4	-1E+10	1	-1E+10	1	-1E+10	1	-1E+10	1	-1E+10	1	-1E+10	1
4901784	8	C	09/23/2015	10:42	-129.414	46.822	0	470.50	0	5.1890	0	34.0470	0	26.902	0	466.072	0	38.3	4	12.4	4	-1E+10	1	-1E+10	1	-1E+10	1	-1E+10	1	-1E+10	1	-1E+10	1
4901784	8	C	09/23/2015	10:42	-129.414	46.822	0	472.30	0	5.1800	0	34.0480	0	26.904	0	467.853	0	38.2	4	12.4	4	-1E+10	1	-1E+10	1	-1E+10	1	-1E+10	1	-1E+10	1	-1E+10	1
4901784	8	C	09/23/2015	10:42	-129.414	46.822	0	475.10	0	5.1780	0	34.0490	0	26.905	0	470.624	0	38.0	4	12.3	4	-1E+10	1	-1E+10	1	-1E+10	1	-1E+10	1	-1E+10	1	-1E+10	1
4901784	8	C	09/23/2015	10:42	-129.414	46.822	0	477.80	0	5.1710	0	34.0490	0	26.906	0	473.295	0	37.6	4	12.2	4	-1E+10	1	-1E+10	1	-1E+10	1	-1E+10	1	-1E+10	1	-1E+10	1
4901784	8	C	09/23/2015	10:42	-129.414	46.822	0	479.70	0	5.1690	0	34.0500	0	26.907	0	475.175	0	37.4	4	12.1	4	-1E+10	1	-1E+10	1	-1E+10	1	-1E+10	1	-1E+10	1	-1E+10	1
4901784	8	C	09/23/2015	10:42	-129.414	46.822	0	482.40	0	5.1610	0	34.0510	0	26.909	0	477.847	0	37.1	4	12.0	4	-1E+10	1	-1E+10	1	-1E+10	1	-1E+10	1	-1E+10	1	-1E+10	1
4901784	8	C	09/23/2015	10:42	-129.414	46.822	0	485.10	0	5.1530	0	34.0520	0	26.911	0	480.518	0	36.7	4	11.9	4	-1E+10	1	-1E+10	1	-1E+10	1	-1E+10	1	-1E+10	1	-1E+10	1
4901784	8	C	09/23/2015	10:42	-129.414	46.822	0	487.80	0	5.1490	0	34.0530	0	26.912	0	483.189	0	36.2	4	11.7	4	-1E+10	1	-1E+10	1	-1E+10	1	-1E+10	1	-1E+10	1	-1E+10	1
4901784	8	C	09/23/2015	10:42	-129.414	46.822	0	490.60	0	5.1270	0	34.0550	0	26.916	0	485.960	0	35.6	4	11.5	4	-1E+10	1	-1E+10	1	-1E+10	1	-1E+10	1	-1E+10	1	-1E+10	1
4901784	8	C	09/23/2015	10:42	-129.414	46.822	0	492.30	0	5.1090	0	34.0580	0	26.921	0	487.642	0	35.2	4	11.4	4	-1E+10	1	-1E+10	1	-1E+10	1	-1E+10	1	-1E+10	1	-1E+10	1
4901784	8	C	09/23/2015	10:42	-129.414	46.822	0	495.10	0	5.1020	0	34.0590	0	26.922	0	490.412	0	34.8	4	11.3	4	-1E+10	1	-1E+10	1	-1E+10	1	-1E+10	1	-1E+10	1	-1E+10	1
4901784	8	C	09/23/2015	10:42	-129.414	46.822	0	497.90	0	5.0930	0	34.0590	0	26.923	0	493.182	0	34.3	4	11.1	4	-1E+10	1	-1E+10	1	-1E+10	1	-1E+10	1	-1E+10	1	-1E+10	1
4901784	8	C	09/23/2015	10:42	-129.414	46.822	0	499.80	0	5.0720	0	34.0620	0	26.928	0	495.062	0	33.8	4	11.0	4	-1E+10	1	-1E+10	1	-1E+10	1	-1E+10	1	-1E+10	1	-1E+10	1
4901784	8	C	09/23/2015	10:42	-129.414	46.822	0	505.50	0	5.0340	0	34.0670	0	26.936	0	500.701	0	32.9	4	10.6	4	-1E+10	1	-1E+10	1	-1E+10	1	-1E+10	1	-1E+10	1	-1E+10	1
4901784	8	C	09/23/2015	10:42	-129.414	46.822	0	510.20	0	4.9980	0	34.0700	0	26.943	0	505.350	0	32.2	4	10.4	4	-1E+10	1	-1E+10	1	-1E+10	1	-1E+10	1	-1E+10	1	-1E+10	1
4901784	8	C	09/23/2015	10:42	-129.414	46.822	0	514.80	0	4.9350	0	34.0740	0	26.953	0	509.901	0	31.8	4	10.3	4	-1E+10	1	-1E+10	1	-1E+10	1	-1E+10	1	-1E+10	1	-1E+10	1
4901784	8	C	09/23/2015	10:42	-129.414	46.822	0	520.40	0	4.9240	0	34.0760	0	26.956	0	515.441	0	30.9	4	10.0	4	-1E+10	1	-1E+10	1	-1E+10	1	-1E+10	1	-1E+10	1	-1E+10	1
4901784	8	C	09/23/2015	10:42	-129.414	46.822	0	524.90	0	4.9220	0	34.0800	0	26.960	0	519.892	0	30.4	4	9.8	4	-1E+10	1	-1E+10	1	-1E+10	1	-1E+10	1	-1E+10	1	-1E+10	1
4901784	8	C	09/23/2015	10:42	-129.414	46.822	0	529.40	0	4.8360	0	34.0780	0	26.968	0	524.344	0	30.8	4	9.9	4	-1E+10	1	-1E+10	1	-1E+10	1	-1E+10	1	-1E+10	1	-1E+10	1
4901784	8	C	09/23/2015	10:42	-129.414	46.822	0	535.00	0	4.7930	0	34.0820	0	26.976	0	529.883	0	29.8	4	9.6	4	-1E+10	1	-1E+10	1	-1E+10	1	-1E+10	1	-1E+10	1	-1E+10	1
4901784	8	C	09/23/2015	10:42	-129.414	46.822	0	540.50	0	4.7700	0	34.0870	0	26.982	0	535.323	0	29.2	4	9.4	4	-1E+10	1	-1E+10	1	-1E+10	1	-1E+10	1	-1E+10	1	-1E+10	1
4901784	8	C	09/23/2015	10:42	-129.414	46.822	0	545.10	0	4.6750	0	34.0850	0	26.991	0	539.873	0	28.9	4	9.3	4	-1E+10	1	-1E+10	1	-1E+10	1	-1E+10	1	-1E+10	1	-1E+10	1
4901784	8	C	09/23/2015	10:42	-129.414	46.822	0	549.60	0	4.6630	0	34.0930	0	26.999	0	544.324	0	27.5	4	8.8	4	-1E+10	1	-1E+10	1	-1E+10	1	-1E+10	1	-1E+10	1	-1E+10	1
4901784	8	C	09/23/2015	10:42	-129.414	46.822	0	555.00	0	4.6510	0	34.0990	0	27.005	0	549.665	0	26.1	4	8.4	4	-1E+10	1	-1E+10	1	-1E+10	1	-1E+10	1	-1E+10	1	-1E+10	1
4901784	8	C	09/23/2015	10:42	-129.414	46.822	0	560.40	0	4.6620	0	34.1100	0	27.013	0	555.006	0	24.1	4	7.7	4	-1E+10	1	-1E+10	1	-1E+10	1	-1E+10	1	-1E+10	1	-1E+10	1
4901784	8	C	09/23/2015	10:42	-129.414	46.822	0	565.70	0	4.6740	0	34.1210	0	27.020	0	560.248	0	22.8	4	7.3	4	-1E+10	1	-1E+10	1	-1E+10	1	-1E+10	1	-1E+10	1	-1E+10	1
4901784	8	C	09/23/2015	10:42	-129.414	46.822	0	570.20	0	4.6680	0	34.1270	0	27.025	0	564.699	0	22.3	4	7.2	4	-1E+10	1	-1E+10	1	-1E+10	1	-1E+10	1	-1E+10	1	-1E+10	1
4901784	8	C	09/23/2015	10:42	-129.414	46.822	0	574.80	0	4.6420	0	34.1270	0	27.028	0	569.248	0	22.2	4	7.1	4	-1E+10	1	-1E+10	1	-1E+10	1	-1E+10	1	-1E+10	1	-1E+10	1
4901784	8	C	09/23/2015	10:42	-129.414	46.822	0	580.40	0	4.6010	0	34.1270	0	27.033	0	574.786	0	21.9	4	7.0	4	-1E+10	1	-1E+10	1	-1E+10	1	-1E+10	1	-1E+10	1	-1E+10	1
4901784	8	C	09/23/2015	10:42	-129.414	46.822	0	585.00	0	4.5620	0	34.1310	0	27.040	0	579.335	0	21.1	4	6.8	4	-1E+10	1	-1E+10	1	-1E+10	1	-1E+10	1	-1E+10	1	-1E+10	1
4901784	8	C	09/23/2015	10:42	-129.414	46.822	0	590.40	0	4.5610	0	34.1410	0	27.048	0	584.675	0	20.1	4	6.4	4	-1E+10	1	-1E+10	1	-1E+10	1	-1E+10	1	-1E+10	1	-1E+10	1
4901784	8	C	09/23/2015	10:42	-129.414	46.822	0	595.50	0	4.5600	0	34.1470	0	27.053	0	589.719	0	19.2	4	6.1	4	-1E+10	1	-1E+10	1	-1E+10	1	-1E+10	1	-1E+10	1	-1E+10	1
4901784	8	C	09/23/2015	10:42	-129.414	46.822	0	600.20	0	4.5630	0	34.1560	0	27.060	0	594.366	0	18.2	4	5.8	4	-1E+10	1	-1E+10	1	-1E+10	1	-1E+10	1	-1E+10	1	-1E+10	1
4901784	8	C	09/23/2015	10:42	-129.414	46.822	0	605.00	0	4.5610	0	34.1610	0	27.064	0	599.113	0	17.6	4	5.6	4	-1E+10	1	-1E+10	1	-1E+10	1	-1E+10	1	-1E+10	1	-1E+10	1
4901784	8	C	09/23/2015	10:42	-129.414	46.822	0	609.70	0	4.5510	0	34.1660	0	27.070	0	603.760	0	17.1	4	5.5	4	-1E+10	1	-1E+10	1	-1E+10	1	-1E+10	1	-1E+10	1	-1E+10	1
4901784	8	C	09/23/2015	10:42	-129.414	46.822	0	614.60	0	4.5270	0	34.1730	0	27.078	0	608.605	0	16.6	4	5.3	4	-1E+10	1	-1E+10	1	-1E+10	1	-1E+10	1	-1E+10	1	-1E+10	1
4901784	8	C	09/23/2015	10:42	-129.414	46.822	0	619.50	0	4.5170	0	34.1750	0	27.080	0	613.450	0	16.4	4	5.2	4	-1E+10	1	-1E+10	1	-1E+10	1	-1E+10	1	-1E+10	1	-1E+10	1
4901784	8	C	09/23/2015	10:42	-129.414	46.822	0	624.40	0	4.4990	0	34.1800	0	27.086	0	618.295	0	16.0	4	5.1	4	-1E+10	1	-1E+10	1	-1E+10	1	-1E+10	1	-1E+10	1	-1E+10	1
4901784	8	C	09/23/2015	10:42	-129.414	46.822	0	629.40	0	4.4840	0	34.1840	0	27.091	0	623.239	0	15.7	4	5.0	4	-1E+10	1	-1E+10	1	-1E+10	1	-1E+10	1	-1E+10	1	-1E+10	1
4901784	8	C	09/23/2015	10:42	-129.414	46.822	0	634.50	0	4.4640	0	34.1880	0	27.097	0	628.281	0	15.4	4	4.9	4	-1E+10	1	-1E+10	1	-1E+10	1	-1E+10	1	-1E+10	1	-1E+10	1
4901784	8	C	09/23/2015	10:42	-129.414	46.822	0	639.60	0	4.4460	0	34.1900	0	27.100	0	633.324	0	15.0	4	4.8	4	-1E+10	1	-1E+10	1	-1E+10	1	-1E+10	1	-1E+10	1	-1E+10	1
4901784	8	C	09/23/2015	10:42	-129.414	46.822	0	644.80	0	4.4220	0	34.1990	0	27.110	0	638.465	0	14.5	4	4.6	4	-1E+10	1	-1E+10	1	-1E+10	1	-1E+10	1	-1E+10	1	-1E+10	1
4901784	8	C	09/23/2015	10:42	-129.414	46.822	0	650.10	0	4.4090	0	34.2050	0	27.116	0	643.704	0	14.2	4	4.5	4	-1E+10	1	-1E+10	1	-1E+10	1	-1E+10	1	-1E+10	1	-1E+10	1
4901784	8	C	09/23/2015	10:42	-129.414	46.822	0	655.40	0	4.4060	0	34.2070	0	27.118	0	648.944	0	14.0	4	4.5	4	-1E+10	1	-1E+10	1	-1E+10	1	-1E+10	1	-1E+10	1	-1E+10	1
4901784	8	C	09/23/2015	10:42	-129.414	46.822	0	660.70	0	4.3930	0	34.2100	0	27.122	0	654.183	0	13.8	4	4.4	4	-1E+10	1	-1E+10	1	-1E+10	1	-1E+10	1	-1E+10	1	-1E+10	1
4901784	8	C	09/23/2015	10:42	-129.414	46.822	0	665.10	0	4.3830	0	34.2120	0	27.125	0	658.533	0	13.8	4	4.4	4	-1E+10	1	-1E+10	1	-1E+10	1	-1E+10	1	-1E+10	1	-1E+10	1
4901784	8	C	09/23/2015	10:42	-129.414	46.822	0	669.60	0	4.3790	0	34.2120	0	27.125	0	662.981	0	13.7	4	4.4	4	-1E+10	1	-1E+10	1	-1E+10	1	-1E+10	1	-1E+10	1	-1E+10	1
4901784	8	C	09/23/2015	10:42	-129.414	46.822	0	675.10	0	4.3650	0	34.2140	0	27.128	0	668.418	0	13.6	4	4.3	4	-1E+10	1	-1E+10	1	-1E+10	1	-1E+10	1	-1E+10	1	-1E+10	1
4901784	8	C	09/23/2015	10:42	-129.414	46.822	0	680.60	0	4.3430	0	34.2170	0	27.133	0	673.855	0	13.4	4	4.3	4	-1E+10	1	-1E+10	1	-1E+10	1	-1E+10	1	-1E+10	1	-1E+10	1
4901784	8	C	09/23/2015	10:42	-129.414	46.822	0	685.50	0	4.3250	0	34.2210	0	27.138	0	678.698	0	13.3	4	4.2	4	-1E+10	1	-1E+10	1	-1E+10	1	-1E+10	1	-1E+10	1	-1E+10	1
4901784	8	C	09/23/2015	10:42	-129.414	46.822	0	690.00	0	4.3020	0	34.2240	0	27.143	0	683.146	0	13.3	4	4.2	4	-1E+10	1	-1E+10	1	-1E+10	1	-1E+10	1	-1E+10	1	-1E+10	1
4901784	8	C	09/23/2015	10:42	-129.414	46.822	0	694.80	0	4.2950	0	34.2260	0	27.145	0	687.891	0	13.2	4	4.2	4	-1E+10	1	-1E+10	1	-1E+10	1	-1E+10	1	-1E+10	1	-1E+10	1
4901784	8	C	09/23/2015	10:42	-129.414	46.822	0	699.70	0	4.2650	0	34.2270	0	27.149	0	692.734	0	13.5	4	4.3	4	-1E+10	1	-1E+10	1	-1E+10	1	-1E+10	1	-1E+10	1	-1E+10	1
4901784	8	C	09/23/2015	10:42	-129.414	46.822	0	704.50	0	4.2330	0	34.2280	0	27.153	0	697.478	0	13.7	4	4.3	4	-1E+10	1	-1E+10	1	-1E+10	1	-1E+10	1	-1E+10	1	-1E+10	1
4901784	8	C	09/23/2015	10:42	-129.414	46.822	0	709.40	0	4.2120	0	34.2270	0	27.155	0	702.321	0	13.8	4	4.4	4	-1E+10	1	-1E+10	1	-1E+10	1	-1E+10	1	-1E+10	1	-1E+10	1
4901784	8	C	09/23/2015	10:42	-129.414	46.822	0	714.30	0	4.1800	0	34.2260	0	27.157	0	707.164	0	14.0	4	4.4	4	-1E+10	1	-1E+10	1	-1E+10	1	-1E+10	1	-1E+10	1	-1E+10	1
4901784	8	C	09/23/2015	10:42	-129.414	46.822	0	719.20	0	4.1620	0	34.2280	0	27.161	0	712.007	0	13.9	4	4.4	4	-1E+10	1	-1E+10	1	-1E+10	1	-1E+10	1	-1E+10	1	-1E+10	1
4901784	8	C	09/23/2015	10:42	-129.414	46.822	0	724.20	0	4.1390	0	34.2270	0	27.163	0	716.948	0	14.2	4	4.5	4	-1E+10	1	-1E+10	1	-1E+10	1	-1E+10	1	-1E+10	1	-1E+10	1
4901784	8	C	09/23/2015	10:42	-129.414	46.822	0	730.00	0	4.0930	0	34.2250	0	27.166	0	722.680	0	14.3	4	4.5	4	-1E+10	1	-1E+10	1	-1E+10	1	-1E+10	1	-1E+10	1	-1E+10	1
4901784	8	C	09/23/2015	10:42	-129.414	46.822	0	735.80	0	4.0820	0	34.2270	0	27.168	0	728.411	0	14.3	4	4.5	4	-1E+10	1	-1E+10	1	-1E+10	1	-1E+10	1	-1E+10	1	-1E+10	1
4901784	8	C	09/23/2015	10:42	-129.414	46.822	0	740.80	0	4.0610	0	34.2260	0	27.170	0	733.352	0	14.3	4	4.5	4	-1E+10	1	-1E+10	1	-1E+10	1	-1E+10	1	-1E+10	1	-1E+10	1
4901784	8	C	09/23/2015	10:42	-129.414	46.822	0	745.70	0	4.0310	0	34.2300	0	27.176	0	738.195	0	14.1	4	4.5	4	-1E+10	1	-1E+10	1	-1E+10	1	-1E+10	1	-1E+10	1	-1E+10	1
4901784	8	C	09/23/2015	10:42	-129.414	46.822	0	750.70	0	4.0190	0	34.2330	0	27.180	0	743.135	0	14.0	4	4.4	4	-1E+10	1	-1E+10	1	-1E+10	1	-1E+10	1	-1E+10	1	-1E+10	1
4901784	8	C	09/23/2015	10:42	-129.414	46.822	0	754.90	0	4.0030	0	34.2350	0	27.183	0	747.286	0	13.9	4	4.4	4	-1E+10	1	-1E+10	1	-1E+10	1	-1E+10	1	-1E+10	1	-1E+10	1
4901784	8	C	09/23/2015	10:42	-129.414	46.822	0	760.00	0	4.0020	0	34.2410	0	27.188	0	752.325	0	13.7	4	4.3	4	-1E+10	1	-1E+10	1	-1E+10	1	-1E+10	1	-1E+10	1	-1E+10	1
4901784	8	C	09/23/2015	10:42	-129.414	46.822	0	765.80	0	3.9930	0	34.2420	0	27.190	0	758.056	0	13.6	4	4.3	4	-1E+10	1	-1E+10	1	-1E+10	1	-1E+10	1	-1E+10	1	-1E+10	1
4901784	8	C	09/23/2015	10:42	-129.414	46.822	0	770.00	0	3.9510	0	34.2440	0	27.196	0	762.206	0	13.7	4	4.3	4	-1E+10	1	-1E+10	1	-1E+10	1	-1E+10	1	-1E+10	1	-1E+10	1
4901784	8	C	09/23/2015	10:42	-129.414	46.822	0	774.30	0	3.9270	0	34.2440	0	27.198	0	766.454	0	13.6	4	4.3	4	-1E+10	1	-1E+10	1	-1E+10	1	-1E+10	1	-1E+10	1	-1E+10	1
4901784	8	C	09/23/2015	10:42	-129.414	46.822	0	779.40	0	3.8990	0	34.2440	0	27.201	0	771.493	0	13.5	4	4.2	4	-1E+10	1	-1E+10	1	-1E+10	1	-1E+10	1	-1E+10	1	-1E+10	1
4901784	8	C	09/23/2015	10:42	-129.414	46.822	0	784.60	0	3.8730	0	34.2470	0	27.206	0	776.631	0	13.4	4	4.2	4	-1E+10	1	-1E+10	1	-1E+10	1	-1E+10	1	-1E+10	1	-1E+10	1
4901784	8	C	09/23/2015	10:42	-129.414	46.822	0	789.70	0	3.8560	0	34.2520	0	27.212	0	781.669	0	13.2	4	4.2	4	-1E+10	1	-1E+10	1	-1E+10	1	-1E+10	1	-1E+10	1	-1E+10	1
4901784	8	C	09/23/2015	10:42	-129.414	46.822	0	794.80	0	3.8310	0	34.2540	0	27.216	0	786.708	0	13.2	4	4.2	4	-1E+10	1	-1E+10	1	-1E+10	1	-1E+10	1	-1E+10	1	-1E+10	1
4901784	8	C	09/23/2015	10:42	-129.414	46.822	0	799.90	0	3.8080	0	34.2580	0	27.221	0	791.746	0	13.2	4	4.1	4	-1E+10	1	-1E+10	1	-1E+10	1	-1E+10	1	-1E+10	1	-1E+10	1
4901784	8	C	09/23/2015	10:42	-129.414	46.822	0	805.00	0	3.7940	0	34.2600	0	27.224	0	796.785	0	13.1	4	4.1	4	-1E+10	1	-1E+10	1	-1E+10	1	-1E+10	1	-1E+10	1	-1E+10	1
4901784	8	C	09/23/2015	10:42	-129.414	46.822	0	810.20	0	3.7830	0	34.2630	0	27.228	0	801.922	0	12.9	4	4.0	4	-1E+10	1	-1E+10	1	-1E+10	1	-1E+10	1	-1E+10	1	-1E+10	1
4901784	8	C	09/23/2015	10:42	-129.414	46.822	0	815.40	0	3.7770	0	34.2670	0	27.232	0	807.058	0	12.9	4	4.0	4	-1E+10	1	-1E+10	1	-1E+10	1	-1E+10	1	-1E+10	1	-1E+10	1
4901784	8	C	09/23/2015	10:42	-129.414	46.822	0	820.60	0	3.7510	0	34.2670	0	27.234	0	812.195	0	13.0	4	4.1	4	-1E+10	1	-1E+10	1	-1E+10	1	-1E+10	1	-1E+10	1	-1E+10	1
4901784	8	C	09/23/2015	10:42	-129.414	46.822	0	824.90	0	3.7280	0	34.2690	0	27.238	0	816.443	0	13.1	4	4.1	4	-1E+10	1	-1E+10	1	-1E+10	1	-1E+10	1	-1E+10	1	-1E+10	1
4901784	8	C	09/23/2015	10:42	-129.414	46.822	0	829.30	0	3.6930	0	34.2710	0	27.243	0	820.789	0	13.2	4	4.1	4	-1E+10	1	-1E+10	1	-1E+10	1	-1E+10	1	-1E+10	1	-1E+10	1
4901784	8	C	09/23/2015	10:42	-129.414	46.822	0	834.60	0	3.6600	0	34.2730	0	27.248	0	826.024	0	13.3	4	4.2	4	-1E+10	1	-1E+10	1	-1E+10	1	-1E+10	1	-1E+10	1	-1E+10	1
4901784	8	C	09/23/2015	10:42	-129.414	46.822	0	840.00	0	3.6320	0	34.2770	0	27.254	0	831.358	0	13.3	4	4.2	4	-1E+10	1	-1E+10	1	-1E+10	1	-1E+10	1	-1E+10	1	-1E+10	1
4901784	8	C	09/23/2015	10:42	-129.414	46.822	0	845.40	0	3.6200	0	34.2790	0	27.257	0	836.691	0	13.3	4	4.1	4	-1E+10	1	-1E+10	1	-1E+10	1	-1E+10	1	-1E+10	1	-1E+10	1
4901784	8	C	09/23/2015	10:42	-129.414	46.822	0	849.90	0	3.6120	0	34.2800	0	27.258	0	841.136	0	13.2	4	4.1	4	-1E+10	1	-1E+10	1	-1E+10	1	-1E+10	1	-1E+10	1	-1E+10	1
4901784	8	C	09/23/2015	10:42	-129.414	46.822	0	854.40	0	3.6010	0	34.2810	0	27.260	0	845.581	0	13.2	4	4.1	4	-1E+10	1	-1E+10	1	-1E+10	1	-1E+10	1	-1E+10	1	-1E+10	1
4901784	8	C	09/23/2015	10:42	-129.414	46.822	0	859.80	0	3.5760	0	34.2860	0	27.267	0	850.914	0	13.1	4	4.1	4	-1E+10	1	-1E+10	1	-1E+10	1	-1E+10	1	-1E+10	1	-1E+10	1
4901784	8	C	09/23/2015	10:42	-129.414	46.822	0	865.20	0	3.5660	0	34.2890	0	27.270	0	856.247	0	13.0	4	4.1	4	-1E+10	1	-1E+10	1	-1E+10	1	-1E+10	1	-1E+10	1	-1E+10	1
4901784	8	C	09/23/2015	10:42	-129.414	46.822	0	870.60	0	3.5590	0	34.2920	0	27.273	0	861.580	0	12.9	4	4.0	4	-1E+10	1	-1E+10	1	-1E+10	1	-1E+10	1	-1E+10	1	-1E+10	1
4901784	8	C	09/23/2015	10:42	-129.414	46.822	0	875.10	0	3.5500	0	34.2950	0	27.277	0	866.024	0	12.9	4	4.0	4	-1E+10	1	-1E+10	1	-1E+10	1	-1E+10	1	-1E+10	1	-1E+10	1
4901784	8	C	09/23/2015	10:42	-129.414	46.822	0	879.70	0	3.5360	0	34.2960	0	27.279	0	870.567	0	12.9	4	4.0	4	-1E+10	1	-1E+10	1	-1E+10	1	-1E+10	1	-1E+10	1	-1E+10	1
4901784	8	C	09/23/2015	10:42	-129.414	46.822	0	885.20	0	3.5230	0	34.2990	0	27.282	0	875.998	0	12.8	4	4.0	4	-1E+10	1	-1E+10	1	-1E+10	1	-1E+10	1	-1E+10	1	-1E+10	1
4901784	8	C	09/23/2015	10:42	-129.414	46.822	0	889.80	0	3.5170	0	34.3010	0	27.285	0	880.541	0	12.8	4	4.0	4	-1E+10	1	-1E+10	1	-1E+10	1	-1E+10	1	-1E+10	1	-1E+10	1
4901784	8	C	09/23/2015	10:42	-129.414	46.822	0	894.40	0	3.5100	0	34.3030	0	27.287	0	885.083	0	12.7	4	4.0	4	-1E+10	1	-1E+10	1	-1E+10	1	-1E+10	1	-1E+10	1	-1E+10	1
4901784	8	C	09/23/2015	10:42	-129.414	46.822	0	899.90	0	3.4940	0	34.3040	0	27.289	0	890.514	0	12.7	4	4.0	4	-1E+10	1	-1E+10	1	-1E+10	1	-1E+10	1	-1E+10	1	-1E+10	1
4901784	8	C	09/23/2015	10:42	-129.414	46.822	0	905.50	0	3.4920	0	34.3070	0	27.292	0	896.044	0	12.6	4	3.9	4	-1E+10	1	-1E+10	1	-1E+10	1	-1E+10	1	-1E+10	1	-1E+10	1
4901784	8	C	09/23/2015	10:42	-129.414	46.822	0	910.10	0	3.4870	0	34.3100	0	27.295	0	900.586	0	12.5	4	3.9	4	-1E+10	1	-1E+10	1	-1E+10	1	-1E+10	1	-1E+10	1	-1E+10	1
4901784	8	C	09/23/2015	10:42	-129.414	46.822	0	914.90	0	3.4740	0	34.3130	0	27.299	0	905.325	0	12.5	4	3.9	4	-1E+10	1	-1E+10	1	-1E+10	1	-1E+10	1	-1E+10	1	-1E+10	1
4901784	8	C	09/23/2015	10:42	-129.414	46.822	0	920.40	0	3.4510	0	34.3160	0	27.303	0	910.756	0	12.4	4	3.9	4	-1E+10	1	-1E+10	1	-1E+10	1	-1E+10	1	-1E+10	1	-1E+10	1
4901784	8	C	09/23/2015	10:42	-129.414	46.822	0	925.30	0	3.4390	0	34.3200	0	27.307	0	915.594	0	12.3	4	3.8	4	-1E+10	1	-1E+10	1	-1E+10	1	-1E+10	1	-1E+10	1	-1E+10	1
4901784	8	C	09/23/2015	10:42	-129.414	46.822	0	929.80	0	3.4540	0	34.3240	0	27.309	0	920.036	0	12.1	4	3.8	4	-1E+10	1	-1E+10	1	-1E+10	1	-1E+10	1	-1E+10	1	-1E+10	1
4901784	8	C	09/23/2015	10:42	-129.414	46.822	0	934.70	0	3.4480	0	34.3270	0	27.312	0	924.874	0	12.1	4	3.8	4	-1E+10	1	-1E+10	1	-1E+10	1	-1E+10	1	-1E+10	1	-1E+10	1
4901784	8	C	09/23/2015	10:42	-129.414	46.822	0	939.60	0	3.4360	0	34.3280	0	27.314	0	929.712	0	12.1	4	3.8	4	-1E+10	1	-1E+10	1	-1E+10	1	-1E+10	1	-1E+10	1	-1E+10	1
4901784	8	C	09/23/2015	10:42	-129.414	46.822	0	944.60	0	3.4280	0	34.3320	0	27.318	0	934.648	0	12.0	4	3.7	4	-1E+10	1	-1E+10	1	-1E+10	1	-1E+10	1	-1E+10	1	-1E+10	1
4901784	8	C	09/23/2015	10:42	-129.414	46.822	0	949.50	0	3.4240	0	34.3340	0	27.320	0	939.485	0	12.0	4	3.7	4	-1E+10	1	-1E+10	1	-1E+10	1	-1E+10	1	-1E+10	1	-1E+10	1
4901784	8	C	09/23/2015	10:42	-129.414	46.822	0	954.50	0	3.4070	0	34.3370	0	27.324	0	944.421	0	11.9	4	3.7	4	-1E+10	1	-1E+10	1	-1E+10	1	-1E+10	1	-1E+10	1	-1E+10	1
4901784	8	C	09/23/2015	10:42	-129.414	46.822	0	959.70	0	3.4170	0	34.3400	0	27.326	0	949.555	0	11.8	4	3.7	4	-1E+10	1	-1E+10	1	-1E+10	1	-1E+10	1	-1E+10	1	-1E+10	1
4901784	8	C	09/23/2015	10:42	-129.414	46.822	0	964.80	0	3.4110	0	34.3430	0	27.329	0	954.589	0	11.8	4	3.7	4	-1E+10	1	-1E+10	1	-1E+10	1	-1E+10	1	-1E+10	1	-1E+10	1
4901784	8	C	09/23/2015	10:42	-129.414	46.822	0	969.90	0	3.3910	0	34.3440	0	27.331	0	959.624	0	11.9	4	3.7	4	-1E+10	1	-1E+10	1	-1E+10	1	-1E+10	1	-1E+10	1	-1E+10	1
4901784	8	C	09/23/2015	10:42	-129.414	46.822	0	975.20	0	3.3720	0	34.3480	0	27.337	0	964.855	0	11.9	4	3.7	4	-1E+10	1	-1E+10	1	-1E+10	1	-1E+10	1	-1E+10	1	-1E+10	1
4901784	8	C	09/23/2015	10:42	-129.414	46.822	0	980.30	0	3.3610	0	34.3490	0	27.338	0	969.889	0	11.9	4	3.7	4	-1E+10	1	-1E+10	1	-1E+10	1	-1E+10	1	-1E+10	1	-1E+10	1
4901784	8	C	09/23/2015	10:42	-129.414	46.822	0	985.50	0	3.3550	0	34.3510	0	27.341	0	975.022	0	11.9	4	3.7	4	-1E+10	1	-1E+10	1	-1E+10	1	-1E+10	1	-1E+10	1	-1E+10	1
4901784	8	C	09/23/2015	10:42	-129.414	46.822	0	989.90	0	3.3500	0	34.3510	0	27.341	0	979.365	0	11.9	4	3.7	4	-1E+10	1	-1E+10	1	-1E+10	1	-1E+10	1	-1E+10	1	-1E+10	1
4901784	8	C	09/23/2015	10:42	-129.414	46.822	0	994.30	0	3.3390	0	34.3510	0	27.342	0	983.708	0	11.9	4	3.7	4	-1E+10	1	-1E+10	1	-1E+10	1	-1E+10	1	-1E+10	1	-1E+10	1
4901784	8	C	09/23/2015	10:42	-129.414	46.822	0	999.60	0	3.3300	0	34.3520	0	27.344	0	988.939	0	11.9	4	3.7	4	-1E+10	1	-1E+10	1	-1E+10	1	-1E+10	1	-1E+10	1	-1E+10	1
4901784	8	C	09/23/2015	10:42	-129.414	46.822	0	1004.90	0	3.3180	0	34.3540	0	27.347	0	994.170	0	12.0	4	3.7	4	-1E+10	1	-1E+10	1	-1E+10	1	-1E+10	1	-1E+10	1	-1E+10	1
4901784	8	C	09/23/2015	10:42	-129.414	46.822	0	1010.20	0	3.3140	0	34.3560	0	27.349	0	999.401	0	11.9	4	3.7	4	-1E+10	1	-1E+10	1	-1E+10	1	-1E+10	1	-1E+10	1	-1E+10	1
4901784	8	C	09/23/2015	10:42	-129.414	46.822	0	1015.60	0	3.3120	0	34.3580	0	27.350	0	1004.730	0	11.9	4	3.7	4	-1E+10	1	-1E+10	1	-1E+10	1	-1E+10	1	-1E+10	1	-1E+10	1
4901784	8	C	09/23/2015	10:42	-129.414	46.822	0	1020.00	0	3.3100	0	34.3610	0	27.353	0	1009.072	0	11.9	4	3.7	4	-1E+10	1	-1E+10	1	-1E+10	1	-1E+10	1	-1E+10	1	-1E+10	1
4901784	8	C	09/23/2015	10:42	-129.414	46.822	0	1024.50	0	3.2970	0	34.3640	0	27.357	0	1013.513	0	11.9	4	3.7	4	-1E+10	1	-1E+10	1	-1E+10	1	-1E+10	1	-1E+10	1	-1E+10	1
4901784	8	C	09/23/2015	10:42	-129.414	46.822	0	1030.00	0	3.2830	0	34.3670	0	27.360	0	1018.941	0	12.0	4	3.7	4	-1E+10	1	-1E+10	1	-1E+10	1	-1E+10	1	-1E+10	1	-1E+10	1
4901784	8	C	09/23/2015	10:42	-129.414	46.822	0	1035.40	0	3.2740	0	34.3690	0	27.363	0	1024.270	0	12.0	4	3.7	4	-1E+10	1	-1E+10	1	-1E+10	1	-1E+10	1	-1E+10	1	-1E+10	1
4901784	8	C	09/23/2015	10:42	-129.414	46.822	0	1039.90	0	3.2720	0	34.3710	0	27.365	0	1028.710	0	12.0	4	3.7	4	-1E+10	1	-1E+10	1	-1E+10	1	-1E+10	1	-1E+10	1	-1E+10	1
4901784	8	C	09/23/2015	10:42	-129.414	46.822	0	1044.40	0	3.2550	0	34.3740	0	27.369	0	1033.151	0	12.1	4	3.7	4	-1E+10	1	-1E+10	1	-1E+10	1	-1E+10	1	-1E+10	1	-1E+10	1
4901784	8	C	09/23/2015	10:42	-129.414	46.822	0	1049.90	0	3.2320	0	34.3780	0	27.374	0	1038.578	0	12.1	4	3.8	4	-1E+10	1	-1E+10	1	-1E+10	1	-1E+10	1	-1E+10	1	-1E+10	1
4901784	8	C	09/23/2015	10:42	-129.414	46.822	0	1055.30	0	3.2320	0	34.3810	0	27.376	0	1043.906	0	12.2	4	3.8	4	-1E+10	1	-1E+10	1	-1E+10	1	-1E+10	1	-1E+10	1	-1E+10	1
4901784	8	C	09/23/2015	10:42	-129.414	46.822	0	1059.80	0	3.2250	0	34.3830	0	27.379	0	1048.346	0	12.2	4	3.8	4	-1E+10	1	-1E+10	1	-1E+10	1	-1E+10	1	-1E+10	1	-1E+10	1
4901784	8	C	09/23/2015	10:42	-129.414	46.822	0	1064.40	0	3.2150	0	34.3850	0	27.381	0	1052.885	0	12.3	4	3.8	4	-1E+10	1	-1E+10	1	-1E+10	1	-1E+10	1	-1E+10	1	-1E+10	1
4901784	8	C	09/23/2015	10:42	-129.414	46.822	0	1070.00	0	3.1900	0	34.3860	0	27.384	0	1058.410	0	12.3	4	3.8	4	-1E+10	1	-1E+10	1	-1E+10	1	-1E+10	1	-1E+10	1	-1E+10	1
4901784	8	C	09/23/2015	10:42	-129.414	46.822	0	1075.60	0	3.1700	0	34.3850	0	27.385	0	1063.935	0	12.4	4	3.8	4	-1E+10	1	-1E+10	1	-1E+10	1	-1E+10	1	-1E+10	1	-1E+10	1
4901784	8	C	09/23/2015	10:42	-129.414	46.822	0	1080.20	0	3.1540	0	34.3880	0	27.389	0	1068.474	0	12.4	4	3.8	4	-1E+10	1	-1E+10	1	-1E+10	1	-1E+10	1	-1E+10	1	-1E+10	1
4901784	8	C	09/23/2015	10:42	-129.414	46.822	0	1084.90	0	3.1740	0	34.3930	0	27.392	0	1073.111	0	12.5	4	3.9	4	-1E+10	1	-1E+10	1	-1E+10	1	-1E+10	1	-1E+10	1	-1E+10	1
4901784	8	C	09/23/2015	10:42	-129.414	46.822	0	1090.50	0	3.1620	0	34.3940	0	27.394	0	1078.636	0	12.5	4	3.9	4	-1E+10	1	-1E+10	1	-1E+10	1	-1E+10	1	-1E+10	1	-1E+10	1
4901784	8	C	09/23/2015	10:42	-129.414	46.822	0	1095.30	0	3.1370	0	34.3940	0	27.396	0	1083.371	0	12.5	4	3.9	4	-1E+10	1	-1E+10	1	-1E+10	1	-1E+10	1	-1E+10	1	-1E+10	1
4901784	8	C	09/23/2015	10:42	-129.414	46.822	0	1099.80	0	3.1140	0	34.3970	0	27.400	0	1087.810	0	12.7	4	3.9	4	-1E+10	1	-1E+10	1	-1E+10	1	-1E+10	1	-1E+10	1	-1E+10	1
4901784	8	C	09/23/2015	10:42	-129.414	46.822	0	1104.70	0	3.1100	0	34.4000	0	27.403	0	1092.644	0	12.7	4	3.9	4	-1E+10	1	-1E+10	1	-1E+10	1	-1E+10	1	-1E+10	1	-1E+10	1
4901784	8	C	09/23/2015	10:42	-129.414	46.822	0	1109.70	0	3.1100	0	34.4010	0	27.404	0	1097.577	0	12.7	4	3.9	4	-1E+10	1	-1E+10	1	-1E+10	1	-1E+10	1	-1E+10	1	-1E+10	1
4901784	8	C	09/23/2015	10:42	-129.414	46.822	0	1114.60	0	3.1100	0	34.4020	0	27.405	0	1102.410	0	12.7	4	3.9	4	-1E+10	1	-1E+10	1	-1E+10	1	-1E+10	1	-1E+10	1	-1E+10	1
4901784	8	C	09/23/2015	10:42	-129.414	46.822	0	1119.60	0	3.1080	0	34.4020	0	27.405	0	1107.342	0	12.8	4	4.0	4	-1E+10	1	-1E+10	1	-1E+10	1	-1E+10	1	-1E+10	1	-1E+10	1
4901784	8	C	09/23/2015	10:42	-129.414	46.822	0	1124.70	0	3.0880	0	34.4060	0	27.410	0	1112.373	0	12.9	4	4.0	4	-1E+10	1	-1E+10	1	-1E+10	1	-1E+10	1	-1E+10	1	-1E+10	1
4901784	8	C	09/23/2015	10:42	-129.414	46.822	0	1129.80	0	3.0770	0	34.4070	0	27.412	0	1117.404	0	13.0	4	4.0	4	-1E+10	1	-1E+10	1	-1E+10	1	-1E+10	1	-1E+10	1	-1E+10	1
4901784	8	C	09/23/2015	10:42	-129.414	46.822	0	1134.90	0	3.0670	0	34.4100	0	27.415	0	1122.434	0	13.1	4	4.1	4	-1E+10	1	-1E+10	1	-1E+10	1	-1E+10	1	-1E+10	1	-1E+10	1
4901784	8	C	09/23/2015	10:42	-129.414	46.822	0	1140.00	0	3.0640	0	34.4110	0	27.416	0	1127.464	0	13.2	4	4.1	4	-1E+10	1	-1E+10	1	-1E+10	1	-1E+10	1	-1E+10	1	-1E+10	1
4901784	8	C	09/23/2015	10:42	-129.414	46.822	0	1145.20	0	3.0580	0	34.4130	0	27.419	0	1132.593	0	13.3	4	4.1	4	-1E+10	1	-1E+10	1	-1E+10	1	-1E+10	1	-1E+10	1	-1E+10	1
4901784	8	C	09/23/2015	10:42	-129.414	46.822	0	1150.40	0	3.0610	0	34.4150	0	27.420	0	1137.722	0	13.5	4	4.2	4	-1E+10	1	-1E+10	1	-1E+10	1	-1E+10	1	-1E+10	1	-1E+10	1
4901784	8	C	09/23/2015	10:42	-129.414	46.822	0	1155.70	0	3.0640	0	34.4170	0	27.421	0	1142.949	0	13.8	4	4.3	4	-1E+10	1	-1E+10	1	-1E+10	1	-1E+10	1	-1E+10	1	-1E+10	1
4901784	8	C	09/23/2015	10:42	-129.414	46.822	0	1160.10	0	3.0590	0	34.4230	0	27.427	0	1147.288	0	14.0	4	4.3	4	-1E+10	1	-1E+10	1	-1E+10	1	-1E+10	1	-1E+10	1	-1E+10	1
4901784	8	C	09/23/2015	10:42	-129.414	46.822	0	1164.60	0	3.0270	0	34.4240	0	27.430	0	1151.726	0	14.0	4	4.3	4	-1E+10	1	-1E+10	1	-1E+10	1	-1E+10	1	-1E+10	1	-1E+10	1
4901784	8	C	09/23/2015	10:42	-129.414	46.822	0	1170.00	0	3.0320	0	34.4270	0	27.432	0	1157.052	0	14.3	4	4.4	4	-1E+10	1	-1E+10	1	-1E+10	1	-1E+10	1	-1E+10	1	-1E+10	1
4901784	8	C	09/23/2015	10:42	-129.414	46.822	0	1175.50	0	3.0370	0	34.4290	0	27.433	0	1162.476	0	14.5	4	4.5	4	-1E+10	1	-1E+10	1	-1E+10	1	-1E+10	1	-1E+10	1	-1E+10	1
4901784	8	C	09/23/2015	10:42	-129.414	46.822	0	1180.00	0	3.0260	0	34.4320	0	27.437	0	1166.913	0	14.6	4	4.5	4	-1E+10	1	-1E+10	1	-1E+10	1	-1E+10	1	-1E+10	1	-1E+10	1
4901784	8	C	09/23/2015	10:42	-129.414	46.822	0	1184.50	0	3.0190	0	34.4320	0	27.437	0	1171.351	0	14.8	4	4.6	4	-1E+10	1	-1E+10	1	-1E+10	1	-1E+10	1	-1E+10	1	-1E+10	1
4901784	8	C	09/23/2015	10:42	-129.414	46.822	0	1190.00	0	3.0230	0	34.4360	0	27.440	0	1176.775	0	15.2	4	4.7	4	-1E+10	1	-1E+10	1	-1E+10	1	-1E+10	1	-1E+10	1	-1E+10	1
4901784	8	C	09/23/2015	10:42	-129.414	46.822	0	1195.40	0	3.0320	0	34.4390	0	27.442	0	1182.099	0	15.4	4	4.8	4	-1E+10	1	-1E+10	1	-1E+10	1	-1E+10	1	-1E+10	1	-1E+10	1
4901784	8	C	09/23/2015	10:42	-129.414	46.822	0	1200.00	0	3.0280	0	34.4410	0	27.444	0	1186.635	0	15.6	4	4.8	4	-1E+10	1	-1E+10	1	-1E+10	1	-1E+10	1	-1E+10	1	-1E+10	1
4901784	8	C	09/23/2015	10:42	-129.414	46.822	0	1204.60	0	3.0150	0	34.4430	0	27.447	0	1191.171	0	15.7	4	4.8	4	-1E+10	1	-1E+10	1	-1E+10	1	-1E+10	1	-1E+10	1	-1E+10	1
4901784	8	C	09/23/2015	10:42	-129.414	46.822	0	1210.10	0	3.0050	0	34.4420	0	27.447	0	1196.594	0	15.6	4	4.8	4	-1E+10	1	-1E+10	1	-1E+10	1	-1E+10	1	-1E+10	1	-1E+10	1
4901784	8	C	09/23/2015	10:42	-129.414	46.822	0	1214.80	0	2.9810	0	34.4430	0	27.450	0	1201.228	0	15.5	4	4.8	4	-1E+10	1	-1E+10	1	-1E+10	1	-1E+10	1	-1E+10	1	-1E+10	1
4901784	8	C	09/23/2015	10:42	-129.414	46.822	0	1220.10	0	2.9550	0	34.4420	0	27.451	0	1206.454	0	15.5	4	4.8	4	-1E+10	1	-1E+10	1	-1E+10	1	-1E+10	1	-1E+10	1	-1E+10	1
4901784	8	C	09/23/2015	10:42	-129.414	46.822	0	1225.20	0	2.9500	0	34.4450	0	27.454	0	1211.482	0	16.0	4	4.9	4	-1E+10	1	-1E+10	1	-1E+10	1	-1E+10	1	-1E+10	1	-1E+10	1
4901784	8	C	09/23/2015	10:42	-129.414	46.822	0	1230.10	0	2.9580	0	34.4480	0	27.456	0	1216.313	0	16.1	4	5.0	4	-1E+10	1	-1E+10	1	-1E+10	1	-1E+10	1	-1E+10	1	-1E+10	1
4901784	8	C	09/23/2015	10:42	-129.414	46.822	0	1235.00	0	2.9550	0	34.4490	0	27.457	0	1221.144	0	16.3	4	5.0	4	-1E+10	1	-1E+10	1	-1E+10	1	-1E+10	1	-1E+10	1	-1E+10	1
4901784	8	C	09/23/2015	10:42	-129.414	46.822	0	1239.80	0	2.9590	0	34.4500	0	27.458	0	1225.876	0	16.4	4	5.1	4	-1E+10	1	-1E+10	1	-1E+10	1	-1E+10	1	-1E+10	1	-1E+10	1
4901784	8	C	09/23/2015	10:42	-129.414	46.822	0	1244.70	0	2.9620	0	34.4510	0	27.458	0	1230.707	0	16.7	4	5.1	4	-1E+10	1	-1E+10	1	-1E+10	1	-1E+10	1	-1E+10	1	-1E+10	1
4901784	8	C	09/23/2015	10:42	-129.414	46.822	0	1249.70	0	2.9540	0	34.4530	0	27.460	0	1235.636	0	16.9	4	5.2	4	-1E+10	1	-1E+10	1	-1E+10	1	-1E+10	1	-1E+10	1	-1E+10	1
4901784	8	C	09/23/2015	10:42	-129.414	46.822	0	1254.70	0	2.9540	0	34.4550	0	27.462	0	1240.565	0	17.0	4	5.2	4	-1E+10	1	-1E+10	1	-1E+10	1	-1E+10	1	-1E+10	1	-1E+10	1
4901784	8	C	09/23/2015	10:42	-129.414	46.822	0	1259.70	0	2.9390	0	34.4550	0	27.463	0	1245.494	0	16.9	4	5.2	4	-1E+10	1	-1E+10	1	-1E+10	1	-1E+10	1	-1E+10	1	-1E+10	1
4901784	8	C	09/23/2015	10:42	-129.414	46.822	0	1264.80	0	2.9280	0	34.4550	0	27.464	0	1250.521	0	17.0	4	5.2	4	-1E+10	1	-1E+10	1	-1E+10	1	-1E+10	1	-1E+10	1	-1E+10	1
4901784	8	C	09/23/2015	10:42	-129.414	46.822	0	1269.90	0	2.9190	0	34.4560	0	27.466	0	1255.548	0	17.2	4	5.3	4	-1E+10	1	-1E+10	1	-1E+10	1	-1E+10	1	-1E+10	1	-1E+10	1
4901784	8	C	09/23/2015	10:42	-129.414	46.822	0	1275.00	0	2.9190	0	34.4580	0	27.468	0	1260.575	0	17.5	4	5.4	4	-1E+10	1	-1E+10	1	-1E+10	1	-1E+10	1	-1E+10	1	-1E+10	1
4901784	8	C	09/23/2015	10:42	-129.414	46.822	0	1280.10	0	2.9090	0	34.4600	0	27.470	0	1265.602	0	17.7	4	5.4	4	-1E+10	1	-1E+10	1	-1E+10	1	-1E+10	1	-1E+10	1	-1E+10	1
4901784	8	C	09/23/2015	10:42	-129.414	46.822	0	1285.40	0	2.9020	0	34.4610	0	27.472	0	1270.826	0	17.7	4	5.5	4	-1E+10	1	-1E+10	1	-1E+10	1	-1E+10	1	-1E+10	1	-1E+10	1
4901784	8	C	09/23/2015	10:42	-129.414	46.822	0	1290.60	0	2.8900	0	34.4610	0	27.473	0	1275.952	0	17.8	4	5.5	4	-1E+10	1	-1E+10	1	-1E+10	1	-1E+10	1	-1E+10	1	-1E+10	1
4901784	8	C	09/23/2015	10:42	-129.414	46.822	0	1295.00	0	2.8590	0	34.4620	0	27.476	0	1280.288	0	17.8	4	5.5	4	-1E+10	1	-1E+10	1	-1E+10	1	-1E+10	1	-1E+10	1	-1E+10	1
4901784	8	C	09/23/2015	10:42	-129.414	46.822	0	1299.40	0	2.8490	0	34.4630	0	27.478	0	1284.625	0	17.8	4	5.5	4	-1E+10	1	-1E+10	1	-1E+10	1	-1E+10	1	-1E+10	1	-1E+10	1
4901784	8	C	09/23/2015	10:42	-129.414	46.822	0	1304.80	0	2.8340	0	34.4630	0	27.479	0	1289.947	0	17.8	4	5.5	4	-1E+10	1	-1E+10	1	-1E+10	1	-1E+10	1	-1E+10	1	-1E+10	1
4901784	8	C	09/23/2015	10:42	-129.414	46.822	0	1310.10	0	2.8250	0	34.4630	0	27.480	0	1295.170	0	18.0	4	5.5	4	-1E+10	1	-1E+10	1	-1E+10	1	-1E+10	1	-1E+10	1	-1E+10	1
4901784	8	C	09/23/2015	10:42	-129.414	46.822	0	1315.50	0	2.8140	0	34.4650	0	27.483	0	1300.492	0	18.2	4	5.6	4	-1E+10	1	-1E+10	1	-1E+10	1	-1E+10	1	-1E+10	1	-1E+10	1
4901784	8	C	09/23/2015	10:42	-129.414	46.822	0	1320.00	0	2.8040	0	34.4660	0	27.485	0	1304.927	0	18.3	4	5.6	4	-1E+10	1	-1E+10	1	-1E+10	1	-1E+10	1	-1E+10	1	-1E+10	1
4901784	8	C	09/23/2015	10:42	-129.414	46.822	0	1324.50	0	2.7910	0	34.4660	0	27.486	0	1309.362	0	18.4	4	5.7	4	-1E+10	1	-1E+10	1	-1E+10	1	-1E+10	1	-1E+10	1	-1E+10	1
4901784	8	C	09/23/2015	10:42	-129.414	46.822	0	1330.00	0	2.7820	0	34.4680	0	27.488	0	1314.782	0	18.6	4	5.7	4	-1E+10	1	-1E+10	1	-1E+10	1	-1E+10	1	-1E+10	1	-1E+10	1
4901784	8	C	09/23/2015	10:42	-129.414	46.822	0	1334.90	0	2.7760	0	34.4680	0	27.489	0	1319.610	0	18.7	4	5.7	4	-1E+10	1	-1E+10	1	-1E+10	1	-1E+10	1	-1E+10	1	-1E+10	1
4901784	8	C	09/23/2015	10:42	-129.414	46.822	0	1339.70	0	2.7620	0	34.4690	0	27.491	0	1324.340	0	18.9	4	5.8	4	-1E+10	1	-1E+10	1	-1E+10	1	-1E+10	1	-1E+10	1	-1E+10	1
4901784	8	C	09/23/2015	10:42	-129.414	46.822	0	1344.60	0	2.7440	0	34.4710	0	27.494	0	1329.168	0	19.1	4	5.9	4	-1E+10	1	-1E+10	1	-1E+10	1	-1E+10	1	-1E+10	1	-1E+10	1
4901784	8	C	09/23/2015	10:42	-129.414	46.822	0	1349.50	0	2.7340	0	34.4720	0	27.496	0	1333.997	0	19.3	4	5.9	4	-1E+10	1	-1E+10	1	-1E+10	1	-1E+10	1	-1E+10	1	-1E+10	1
4901784	8	C	09/23/2015	10:42	-129.414	46.822	0	1355.40	0	2.7170	0	34.4740	0	27.499	0	1339.810	0	19.5	4	6.0	4	-1E+10	1	-1E+10	1	-1E+10	1	-1E+10	1	-1E+10	1	-1E+10	1
4901784	8	C	09/23/2015	10:42	-129.414	46.822	0	1360.30	0	2.7080	0	34.4750	0	27.500	0	1344.638	0	19.6	4	6.0	4	-1E+10	1	-1E+10	1	-1E+10	1	-1E+10	1	-1E+10	1	-1E+10	1
4901784	8	C	09/23/2015	10:42	-129.414	46.822	0	1365.30	0	2.7000	0	34.4750	0	27.501	0	1349.565	0	19.8	4	6.1	4	-1E+10	1	-1E+10	1	-1E+10	1	-1E+10	1	-1E+10	1	-1E+10	1
4901784	8	C	09/23/2015	10:42	-129.414	46.822	0	1370.30	0	2.6840	0	34.4770	0	27.504	0	1354.491	0	20.0	4	6.1	4	-1E+10	1	-1E+10	1	-1E+10	1	-1E+10	1	-1E+10	1	-1E+10	1
4901784	8	C	09/23/2015	10:42	-129.414	46.822	0	1375.30	0	2.6720	0	34.4780	0	27.506	0	1359.417	0	20.1	4	6.2	4	-1E+10	1	-1E+10	1	-1E+10	1	-1E+10	1	-1E+10	1	-1E+10	1
4901784	8	C	09/23/2015	10:42	-129.414	46.822	0	1380.30	0	2.6620	0	34.4790	0	27.508	0	1364.343	0	20.3	4	6.2	4	-1E+10	1	-1E+10	1	-1E+10	1	-1E+10	1	-1E+10	1	-1E+10	1
4901784	8	C	09/23/2015	10:42	-129.414	46.822	0	1385.30	0	2.6560	0	34.4800	0	27.509	0	1369.269	0	20.5	4	6.3	4	-1E+10	1	-1E+10	1	-1E+10	1	-1E+10	1	-1E+10	1	-1E+10	1
4901784	8	C	09/23/2015	10:42	-129.414	46.822	0	1390.30	0	2.6460	0	34.4810	0	27.511	0	1374.195	0	20.7	4	6.3	4	-1E+10	1	-1E+10	1	-1E+10	1	-1E+10	1	-1E+10	1	-1E+10	1
4901784	8	C	09/23/2015	10:42	-129.414	46.822	0	1395.40	0	2.6400	0	34.4820	0	27.512	0	1379.219	0	20.9	4	6.4	4	-1E+10	1	-1E+10	1	-1E+10	1	-1E+10	1	-1E+10	1	-1E+10	1
4901784	8	C	09/23/2015	10:42	-129.414	46.822	0	1400.40	0	2.6290	0	34.4830	0	27.514	0	1384.145	0	21.1	4	6.4	4	-1E+10	1	-1E+10	1	-1E+10	1	-1E+10	1	-1E+10	1	-1E+10	1
4901784	8	C	09/23/2015	10:42	-129.414	46.822	0	1404.50	0	2.6220	0	34.4840	0	27.515	0	1388.184	0	21.3	4	6.5	4	-1E+10	1	-1E+10	1	-1E+10	1	-1E+10	1	-1E+10	1	-1E+10	1
4901784	8	C	09/23/2015	10:42	-129.414	46.822	0	1409.60	0	2.6120	0	34.4850	0	27.517	0	1393.208	0	21.6	4	6.6	4	-1E+10	1	-1E+10	1	-1E+10	1	-1E+10	1	-1E+10	1	-1E+10	1
4901784	8	C	09/23/2015	10:42	-129.414	46.822	0	1414.70	0	2.6020	0	34.4870	0	27.519	0	1398.232	0	21.8	4	6.7	4	-1E+10	1	-1E+10	1	-1E+10	1	-1E+10	1	-1E+10	1	-1E+10	1
4901784	8	C	09/23/2015	10:42	-129.414	46.822	0	1419.80	0	2.5940	0	34.4880	0	27.521	0	1403.255	0	22.0	4	6.7	4	-1E+10	1	-1E+10	1	-1E+10	1	-1E+10	1	-1E+10	1	-1E+10	1
4901784	8	C	09/23/2015	10:42	-129.414	46.822	0	1424.80	0	2.5890	0	34.4890	0	27.522	0	1408.180	0	22.2	4	6.8	4	-1E+10	1	-1E+10	1	-1E+10	1	-1E+10	1	-1E+10	1	-1E+10	1
4901784	8	C	09/23/2015	10:42	-129.414	46.822	0	1430.00	0	2.5790	0	34.4900	0	27.524	0	1413.302	0	22.7	4	6.9	4	-1E+10	1	-1E+10	1	-1E+10	1	-1E+10	1	-1E+10	1	-1E+10	1
4901784	8	C	09/23/2015	10:42	-129.414	46.822	0	1435.10	0	2.5690	0	34.4920	0	27.526	0	1418.326	0	23.1	4	7.0	4	-1E+10	1	-1E+10	1	-1E+10	1	-1E+10	1	-1E+10	1	-1E+10	1
4901784	8	C	09/23/2015	10:42	-129.414	46.822	0	1440.20	0	2.5560	0	34.4940	0	27.529	0	1423.349	0	23.5	4	7.2	4	-1E+10	1	-1E+10	1	-1E+10	1	-1E+10	1	-1E+10	1	-1E+10	1
4901784	8	C	09/23/2015	10:42	-129.414	46.822	0	1445.40	0	2.5440	0	34.4960	0	27.532	0	1428.471	0	23.9	4	7.3	4	-1E+10	1	-1E+10	1	-1E+10	1	-1E+10	1	-1E+10	1	-1E+10	1
4901784	8	C	09/23/2015	10:42	-129.414	46.822	0	1449.50	0	2.5390	0	34.4970	0	27.533	0	1432.509	0	24.0	4	7.3	4	-1E+10	1	-1E+10	1	-1E+10	1	-1E+10	1	-1E+10	1	-1E+10	1
4901784	8	C	09/23/2015	10:42	-129.414	46.822	0	1454.60	0	2.5340	0	34.4970	0	27.533	0	1437.531	0	24.3	4	7.4	4	-1E+10	1	-1E+10	1	-1E+10	1	-1E+10	1	-1E+10	1	-1E+10	1
4901784	8	C	09/23/2015	10:42	-129.414	46.822	0	1459.70	0	2.5280	0	34.4980	0	27.535	0	1442.554	0	24.5	4	7.5	4	-1E+10	1	-1E+10	1	-1E+10	1	-1E+10	1	-1E+10	1	-1E+10	1
4901784	8	C	09/23/2015	10:42	-129.414	46.822	0	1464.70	0	2.5230	0	34.4980	0	27.535	0	1447.478	0	24.7	4	7.6	4	-1E+10	1	-1E+10	1	-1E+10	1	-1E+10	1	-1E+10	1	-1E+10	1
4901784	8	C	09/23/2015	10:42	-129.414	46.822	0	1470.10	0	2.5110	0	34.5000	0	27.538	0	1452.796	0	25.1	4	7.7	4	-1E+10	1	-1E+10	1	-1E+10	1	-1E+10	1	-1E+10	1	-1E+10	1
4901784	8	C	09/23/2015	10:42	-129.414	46.822	0	1475.60	0	2.5010	0	34.5010	0	27.539	0	1458.213	0	25.5	4	7.8	4	-1E+10	1	-1E+10	1	-1E+10	1	-1E+10	1	-1E+10	1	-1E+10	1
4901784	8	C	09/23/2015	10:42	-129.414	46.822	0	1480.50	0	2.4880	0	34.5030	0	27.542	0	1463.038	0	25.8	4	7.9	4	-1E+10	1	-1E+10	1	-1E+10	1	-1E+10	1	-1E+10	1	-1E+10	1
4901784	8	C	09/23/2015	10:42	-129.414	46.822	0	1485.50	0	2.4840	0	34.5040	0	27.543	0	1467.962	0	26.0	4	7.9	4	-1E+10	1	-1E+10	1	-1E+10	1	-1E+10	1	-1E+10	1	-1E+10	1
4901784	8	C	09/23/2015	10:42	-129.414	46.822	0	1490.40	0	2.4820	0	34.5050	0	27.544	0	1472.787	0	26.1	4	8.0	4	-1E+10	1	-1E+10	1	-1E+10	1	-1E+10	1	-1E+10	1	-1E+10	1
4901784	8	C	09/23/2015	10:42	-129.414	46.822	0	1495.30	0	2.4770	0	34.5050	0	27.545	0	1477.612	0	26.2	4	8.0	4	-1E+10	1	-1E+10	1	-1E+10	1	-1E+10	1	-1E+10	1	-1E+10	1
4901784	8	C	09/23/2015	10:42	-129.414	46.822	0	1500.30	0	2.4750	0	34.5060	0	27.546	0	1482.535	0	26.4	4	8.0	4	-1E+10	1	-1E+10	1	-1E+10	1	-1E+10	1	-1E+10	1	-1E+10	1
4901784	8	C	09/23/2015	10:42	-129.414	46.822	0	1505.30	0	2.4690	0	34.5060	0	27.546	0	1487.458	0	26.7	4	8.1	4	-1E+10	1	-1E+10	1	-1E+10	1	-1E+10	1	-1E+10	1	-1E+10	1
4901784	8	C	09/23/2015	10:42	-129.414	46.822	0	1510.20	0	2.4590	0	34.5080	0	27.549	0	1492.283	0	26.9	4	8.2	4	-1E+10	1	-1E+10	1	-1E+10	1	-1E+10	1	-1E+10	1	-1E+10	1
4901784	8	C	09/23/2015	10:42	-129.414	46.822	0	1515.30	0	2.4550	0	34.5080	0	27.549	0	1497.304	0	27.0	4	8.2	4	-1E+10	1	-1E+10	1	-1E+10	1	-1E+10	1	-1E+10	1	-1E+10	1
4901784	8	C	09/23/2015	10:42	-129.414	46.822	0	1520.40	0	2.4530	0	34.5080	0	27.549	0	1502.326	0	27.1	4	8.3	4	-1E+10	1	-1E+10	1	-1E+10	1	-1E+10	1	-1E+10	1	-1E+10	1
4901784	8	C	09/23/2015	10:42	-129.414	46.822	0	1525.50	0	2.4470	0	34.5100	0	27.551	0	1507.347	0	27.4	4	8.3	4	-1E+10	1	-1E+10	1	-1E+10	1	-1E+10	1	-1E+10	1	-1E+10	1
4901784	8	C	09/23/2015	10:42	-129.414	46.822	0	1530.70	0	2.4410	0	34.5100	0	27.552	0	1512.466	0	27.7	4	8.4	4	-1E+10	1	-1E+10	1	-1E+10	1	-1E+10	1	-1E+10	1	-1E+10	1
4901784	8	C	09/23/2015	10:42	-129.414	46.822	0	1535.00	0	2.4330	0	34.5110	0	27.553	0	1516.700	0	28.1	4	8.6	4	-1E+10	1	-1E+10	1	-1E+10	1	-1E+10	1	-1E+10	1	-1E+10	1
4901784	8	C	09/23/2015	10:42	-129.414	46.822	0	1539.40	0	2.4250	0	34.5120	0	27.555	0	1521.031	0	28.4	4	8.7	4	-1E+10	1	-1E+10	1	-1E+10	1	-1E+10	1	-1E+10	1	-1E+10	1
4901784	8	C	09/23/2015	10:42	-129.414	46.822	0	1544.50	0	2.4160	0	34.5140	0	27.557	0	1526.052	0	28.9	4	8.8	4	-1E+10	1	-1E+10	1	-1E+10	1	-1E+10	1	-1E+10	1	-1E+10	1
4901784	8	C	09/23/2015	10:42	-129.414	46.822	0	1549.70	0	2.4060	0	34.5160	0	27.560	0	1531.171	0	29.2	4	8.9	4	-1E+10	1	-1E+10	1	-1E+10	1	-1E+10	1	-1E+10	1	-1E+10	1
4901784	8	C	09/23/2015	10:42	-129.414	46.822	0	1555.00	0	2.3990	0	34.5160	0	27.560	0	1536.389	0	29.5	4	9.0	4	-1E+10	1	-1E+10	1	-1E+10	1	-1E+10	1	-1E+10	1	-1E+10	1
4901784	8	C	09/23/2015	10:42	-129.414	46.822	0	1560.30	0	2.3920	0	34.5180	0	27.562	0	1541.606	0	29.8	4	9.1	4	-1E+10	1	-1E+10	1	-1E+10	1	-1E+10	1	-1E+10	1	-1E+10	1
4901784	8	C	09/23/2015	10:42	-129.414	46.822	0	1565.70	0	2.3870	0	34.5180	0	27.563	0	1546.921	0	30.0	4	9.1	4	-1E+10	1	-1E+10	1	-1E+10	1	-1E+10	1	-1E+10	1	-1E+10	1
4901784	8	C	09/23/2015	10:42	-129.414	46.822	0	1570.10	0	2.3850	0	34.5190	0	27.564	0	1551.252	0	30.2	4	9.2	4	-1E+10	1	-1E+10	1	-1E+10	1	-1E+10	1	-1E+10	1	-1E+10	1
4901784	8	C	09/23/2015	10:42	-129.414	46.822	0	1574.60	0	2.3790	0	34.5200	0	27.565	0	1555.682	0	30.6	4	9.3	4	-1E+10	1	-1E+10	1	-1E+10	1	-1E+10	1	-1E+10	1	-1E+10	1
4901784	8	C	09/23/2015	10:42	-129.414	46.822	0	1580.00	0	2.3740	0	34.5220	0	27.567	0	1560.997	0	31.0	4	9.4	4	-1E+10	1	-1E+10	1	-1E+10	1	-1E+10	1	-1E+10	1	-1E+10	1
4901784	8	C	09/23/2015	10:42	-129.414	46.822	0	1585.40	0	2.3680	0	34.5230	0	27.569	0	1566.312	0	31.3	4	9.5	4	-1E+10	1	-1E+10	1	-1E+10	1	-1E+10	1	-1E+10	1	-1E+10	1
4901784	8	C	09/23/2015	10:42	-129.414	46.822	0	1589.90	0	2.3630	0	34.5240	0	27.570	0	1570.741	0	31.7	4	9.6	4	-1E+10	1	-1E+10	1	-1E+10	1	-1E+10	1	-1E+10	1	-1E+10	1
4901784	8	C	09/23/2015	10:42	-129.414	46.822	0	1594.30	0	2.3570	0	34.5250	0	27.571	0	1575.072	0	32.1	4	9.7	4	-1E+10	1	-1E+10	1	-1E+10	1	-1E+10	1	-1E+10	1	-1E+10	1
4901784	8	C	09/23/2015	10:42	-129.414	46.822	0	1599.50	0	2.3420	0	34.5270	0	27.574	0	1580.190	0	32.4	4	9.9	4	-1E+10	1	-1E+10	1	-1E+10	1	-1E+10	1	-1E+10	1	-1E+10	1
4901784	8	C	09/23/2015	10:42	-129.414	46.822	0	1605.10	0	2.3360	0	34.5270	0	27.574	0	1585.701	0	32.7	4	9.9	4	-1E+10	1	-1E+10	1	-1E+10	1	-1E+10	1	-1E+10	1	-1E+10	1
4901784	8	C	09/23/2015	10:42	-129.414	46.822	0	1610.70	0	2.3300	0	34.5280	0	27.576	0	1591.213	0	33.1	4	10.1	4	-1E+10	1	-1E+10	1	-1E+10	1	-1E+10	1	-1E+10	1	-1E+10	1
4901784	8	C	09/23/2015	10:42	-129.414	46.822	0	1615.60	0	2.3140	0	34.5300	0	27.579	0	1596.035	0	33.9	4	10.3	4	-1E+10	1	-1E+10	1	-1E+10	1	-1E+10	1	-1E+10	1	-1E+10	1
4901784	8	C	09/23/2015	10:42	-129.414	46.822	0	1620.50	0	2.3080	0	34.5330	0	27.582	0	1600.857	0	34.4	4	10.4	4	-1E+10	1	-1E+10	1	-1E+10	1	-1E+10	1	-1E+10	1	-1E+10	1
4901784	8	C	09/23/2015	10:42	-129.414	46.822	0	1625.40	0	2.3030	0	34.5330	0	27.582	0	1605.679	0	34.6	4	10.5	4	-1E+10	1	-1E+10	1	-1E+10	1	-1E+10	1	-1E+10	1	-1E+10	1
4901784	8	C	09/23/2015	10:42	-129.414	46.822	0	1630.40	0	2.2930	0	34.5340	0	27.584	0	1610.599	0	35.0	4	10.6	4	-1E+10	1	-1E+10	1	-1E+10	1	-1E+10	1	-1E+10	1	-1E+10	1
4901784	8	C	09/23/2015	10:42	-129.414	46.822	0	1635.40	0	2.2840	0	34.5350	0	27.585	0	1615.520	0	35.4	4	10.7	4	-1E+10	1	-1E+10	1	-1E+10	1	-1E+10	1	-1E+10	1	-1E+10	1
4901784	8	C	09/23/2015	10:42	-129.414	46.822	0	1640.40	0	2.2730	0	34.5370	0	27.588	0	1620.440	0	36.0	4	10.9	4	-1E+10	1	-1E+10	1	-1E+10	1	-1E+10	1	-1E+10	1	-1E+10	1
4901784	8	C	09/23/2015	10:42	-129.414	46.822	0	1645.40	0	2.2670	0	34.5390	0	27.590	0	1625.360	0	36.5	4	11.1	4	-1E+10	1	-1E+10	1	-1E+10	1	-1E+10	1	-1E+10	1	-1E+10	1
4901784	8	C	09/23/2015	10:42	-129.414	46.822	0	1650.40	0	2.2580	0	34.5410	0	27.592	0	1630.280	0	36.9	4	11.2	4	-1E+10	1	-1E+10	1	-1E+10	1	-1E+10	1	-1E+10	1	-1E+10	1
4901784	8	C	09/23/2015	10:42	-129.414	46.822	0	1655.50	0	2.2570	0	34.5420	0	27.593	0	1635.298	0	37.0	4	11.2	4	-1E+10	1	-1E+10	1	-1E+10	1	-1E+10	1	-1E+10	1	-1E+10	1
4901784	8	C	09/23/2015	10:42	-129.414	46.822	0	1659.90	0	2.2560	0	34.5420	0	27.593	0	1639.627	0	37.1	4	11.3	4	-1E+10	1	-1E+10	1	-1E+10	1	-1E+10	1	-1E+10	1	-1E+10	1
4901784	8	C	09/23/2015	10:42	-129.414	46.822	0	1664.30	0	2.2520	0	34.5420	0	27.594	0	1643.956	0	37.3	4	11.3	4	-1E+10	1	-1E+10	1	-1E+10	1	-1E+10	1	-1E+10	1	-1E+10	1
4901784	8	C	09/23/2015	10:42	-129.414	46.822	0	1669.60	0	2.2470	0	34.5430	0	27.595	0	1649.171	0	37.6	4	11.4	4	-1E+10	1	-1E+10	1	-1E+10	1	-1E+10	1	-1E+10	1	-1E+10	1
4901784	8	C	09/23/2015	10:42	-129.414	46.822	0	1674.90	0	2.2420	0	34.5440	0	27.596	0	1654.385	0	37.9	4	11.5	4	-1E+10	1	-1E+10	1	-1E+10	1	-1E+10	1	-1E+10	1	-1E+10	1
4901784	8	C	09/23/2015	10:42	-129.414	46.822	0	1680.30	0	2.2360	0	34.5440	0	27.597	0	1659.698	0	38.1	4	11.6	4	-1E+10	1	-1E+10	1	-1E+10	1	-1E+10	1	-1E+10	1	-1E+10	1
4901784	8	C	09/23/2015	10:42	-129.414	46.822	0	1684.90	0	2.2300	0	34.5450	0	27.598	0	1664.224	0	38.3	4	11.6	4	-1E+10	1	-1E+10	1	-1E+10	1	-1E+10	1	-1E+10	1	-1E+10	1
4901784	8	C	09/23/2015	10:42	-129.414	46.822	0	1689.50	0	2.2270	0	34.5460	0	27.599	0	1668.749	0	38.5	4	11.7	4	-1E+10	1	-1E+10	1	-1E+10	1	-1E+10	1	-1E+10	1	-1E+10	1
4901784	8	C	09/23/2015	10:42	-129.414	46.822	0	1695.10	0	2.2210	0	34.5460	0	27.599	0	1674.258	0	38.8	4	11.8	4	-1E+10	1	-1E+10	1	-1E+10	1	-1E+10	1	-1E+10	1	-1E+10	1
4901784	8	C	09/23/2015	10:42	-129.414	46.822	0	1699.80	0	2.2160	0	34.5470	0	27.601	0	1678.882	0	39.0	4	11.8	4	-1E+10	1	-1E+10	1	-1E+10	1	-1E+10	1	-1E+10	1	-1E+10	1
4901784	8	C	09/23/2015	10:42	-129.414	46.822	0	1705.10	0	2.2140	0	34.5470	0	27.601	0	1684.096	0	39.1	4	11.8	4	-1E+10	1	-1E+10	1	-1E+10	1	-1E+10	1	-1E+10	1	-1E+10	1
4901784	8	C	09/23/2015	10:42	-129.414	46.822	0	1710.20	0	2.2070	0	34.5480	0	27.602	0	1689.112	0	39.4	4	11.9	4	-1E+10	1	-1E+10	1	-1E+10	1	-1E+10	1	-1E+10	1	-1E+10	1
4901784	8	C	09/23/2015	10:42	-129.414	46.822	0	1715.10	0	2.2030	0	34.5480	0	27.603	0	1693.932	0	39.5	4	12.0	4	-1E+10	1	-1E+10	1	-1E+10	1	-1E+10	1	-1E+10	1	-1E+10	1
4901784	8	C	09/23/2015	10:42	-129.414	46.822	0	1720.00	0	2.1980	0	34.5490	0	27.604	0	1698.752	0	39.8	4	12.1	4	-1E+10	1	-1E+10	1	-1E+10	1	-1E+10	1	-1E+10	1	-1E+10	1
4901784	8	C	09/23/2015	10:42	-129.414	46.822	0	1725.10	0	2.1890	0	34.5500	0	27.605	0	1703.769	0	40.1	4	12.1	4	-1E+10	1	-1E+10	1	-1E+10	1	-1E+10	1	-1E+10	1	-1E+10	1
4901784	8	C	09/23/2015	10:42	-129.414	46.822	0	1730.10	0	2.1860	0	34.5500	0	27.606	0	1708.687	0	40.2	4	12.2	4	-1E+10	1	-1E+10	1	-1E+10	1	-1E+10	1	-1E+10	1	-1E+10	1
4901784	8	C	09/23/2015	10:42	-129.414	46.822	0	1735.20	0	2.1830	0	34.5500	0	27.606	0	1713.703	0	40.5	4	12.3	4	-1E+10	1	-1E+10	1	-1E+10	1	-1E+10	1	-1E+10	1	-1E+10	1
4901784	8	C	09/23/2015	10:42	-129.414	46.822	0	1740.30	0	2.1760	0	34.5510	0	27.607	0	1718.719	0	40.8	4	12.3	4	-1E+10	1	-1E+10	1	-1E+10	1	-1E+10	1	-1E+10	1	-1E+10	1
4901784	8	C	09/23/2015	10:42	-129.414	46.822	0	1745.40	0	2.1700	0	34.5520	0	27.609	0	1723.736	0	41.0	4	12.4	4	-1E+10	1	-1E+10	1	-1E+10	1	-1E+10	1	-1E+10	1	-1E+10	1
4901784	8	C	09/23/2015	10:42	-129.414	46.822	0	1750.50	0	2.1610	0	34.5530	0	27.610	0	1728.751	0	41.4	4	12.5	4	-1E+10	1	-1E+10	1	-1E+10	1	-1E+10	1	-1E+10	1	-1E+10	1
4901784	8	C	09/23/2015	10:42	-129.414	46.822	0	1755.60	0	2.1520	0	34.5530	0	27.611	0	1733.767	0	41.7	4	12.6	4	-1E+10	1	-1E+10	1	-1E+10	1	-1E+10	1	-1E+10	1	-1E+10	1
4901784	8	C	09/23/2015	10:42	-129.414	46.822	0	1760.00	0	2.1480	0	34.5540	0	27.612	0	1738.095	0	41.9	4	12.7	4	-1E+10	1	-1E+10	1	-1E+10	1	-1E+10	1	-1E+10	1	-1E+10	1
4901784	8	C	09/23/2015	10:42	-129.414	46.822	0	1764.30	0	2.1440	0	34.5550	0	27.613	0	1742.323	0	42.2	4	12.8	4	-1E+10	1	-1E+10	1	-1E+10	1	-1E+10	1	-1E+10	1	-1E+10	1
4901784	8	C	09/23/2015	10:42	-129.414	46.822	0	1769.60	0	2.1400	0	34.5550	0	27.614	0	1747.536	0	42.5	4	12.9	4	-1E+10	1	-1E+10	1	-1E+10	1	-1E+10	1	-1E+10	1	-1E+10	1
4901784	8	C	09/23/2015	10:42	-129.414	46.822	0	1774.90	0	2.1320	0	34.5570	0	27.616	0	1752.748	0	43.1	4	13.0	4	-1E+10	1	-1E+10	1	-1E+10	1	-1E+10	1	-1E+10	1	-1E+10	1
4901784	8	C	09/23/2015	10:42	-129.414	46.822	0	1780.20	0	2.1210	0	34.5580	0	27.617	0	1757.959	0	43.5	4	13.2	4	-1E+10	1	-1E+10	1	-1E+10	1	-1E+10	1	-1E+10	1	-1E+10	1
4901784	8	C	09/23/2015	10:42	-129.414	46.822	0	1785.60	0	2.1130	0	34.5590	0	27.619	0	1763.270	0	44.0	4	13.3	4	-1E+10	1	-1E+10	1	-1E+10	1	-1E+10	1	-1E+10	1	-1E+10	1
4901784	8	C	09/23/2015	10:42	-129.414	46.822	0	1790.10	0	2.1060	0	34.5610	0	27.621	0	1767.695	0	44.3	4	13.4	4	-1E+10	1	-1E+10	1	-1E+10	1	-1E+10	1	-1E+10	1	-1E+10	1
4901784	8	C	09/23/2015	10:42	-129.414	46.822	0	1794.60	0	2.1020	0	34.5610	0	27.621	0	1772.120	0	44.5	4	13.4	4	-1E+10	1	-1E+10	1	-1E+10	1	-1E+10	1	-1E+10	1	-1E+10	1
4901784	8	C	09/23/2015	10:42	-129.414	46.822	0	1800.10	0	2.1000	0	34.5610	0	27.622	0	1777.528	0	44.7	4	13.5	4	-1E+10	1	-1E+10	1	-1E+10	1	-1E+10	1	-1E+10	1	-1E+10	1
4901784	8	C	09/23/2015	10:42	-129.414	46.822	0	1805.60	0	2.0950	0	34.5620	0	27.623	0	1782.936	0	44.9	4	13.6	4	-1E+10	1	-1E+10	1	-1E+10	1	-1E+10	1	-1E+10	1	-1E+10	1
4901784	8	C	09/23/2015	10:42	-129.414	46.822	0	1810.20	0	2.0920	0	34.5620	0	27.623	0	1787.459	0	45.1	4	13.6	4	-1E+10	1	-1E+10	1	-1E+10	1	-1E+10	1	-1E+10	1	-1E+10	1
4901784	8	C	09/23/2015	10:42	-129.414	46.822	0	1814.70	0	2.0880	0	34.5630	0	27.624	0	1791.883	0	45.4	4	13.7	4	-1E+10	1	-1E+10	1	-1E+10	1	-1E+10	1	-1E+10	1	-1E+10	1
4901784	8	C	09/23/2015	10:42	-129.414	46.822	0	1820.30	0	2.0830	0	34.5640	0	27.626	0	1797.389	0	45.7	4	13.8	4	-1E+10	1	-1E+10	1	-1E+10	1	-1E+10	1	-1E+10	1	-1E+10	1
4901784	8	C	09/23/2015	10:42	-129.414	46.822	0	1824.90	0	2.0770	0	34.5640	0	27.626	0	1801.912	0	45.9	4	13.9	4	-1E+10	1	-1E+10	1	-1E+10	1	-1E+10	1	-1E+10	1	-1E+10	1
4901784	8	C	09/23/2015	10:42	-129.414	46.822	0	1829.50	0	2.0760	0	34.5640	0	27.626	0	1806.434	0	46.0	4	13.9	4	-1E+10	1	-1E+10	1	-1E+10	1	-1E+10	1	-1E+10	1	-1E+10	1
4901784	8	C	09/23/2015	10:42	-129.414	46.822	0	1835.10	0	2.0720	0	34.5650	0	27.627	0	1811.940	0	46.2	4	14.0	4	-1E+10	1	-1E+10	1	-1E+10	1	-1E+10	1	-1E+10	1	-1E+10	1
4901784	8	C	09/23/2015	10:42	-129.414	46.822	0	1840.60	0	2.0700	0	34.5650	0	27.627	0	1817.347	0	46.5	4	14.0	4	-1E+10	1	-1E+10	1	-1E+10	1	-1E+10	1	-1E+10	1	-1E+10	1
4901784	8	C	09/23/2015	10:42	-129.414	46.822	0	1845.30	0	2.0650	0	34.5660	0	27.629	0	1821.967	0	46.7	4	14.1	4	-1E+10	1	-1E+10	1	-1E+10	1	-1E+10	1	-1E+10	1	-1E+10	1
4901784	8	C	09/23/2015	10:42	-129.414	46.822	0	1849.90	0	2.0610	0	34.5670	0	27.630	0	1826.489	0	46.9	4	14.2	4	-1E+10	1	-1E+10	1	-1E+10	1	-1E+10	1	-1E+10	1	-1E+10	1
4901784	8	C	09/23/2015	10:42	-129.414	46.822	0	1854.80	0	2.0590	0	34.5670	0	27.630	0	1831.306	0	47.1	4	14.2	4	-1E+10	1	-1E+10	1	-1E+10	1	-1E+10	1	-1E+10	1	-1E+10	1
4901784	8	C	09/23/2015	10:42	-129.414	46.822	0	1859.70	0	2.0570	0	34.5680	0	27.631	0	1836.123	0	47.2	4	14.3	4	-1E+10	1	-1E+10	1	-1E+10	1	-1E+10	1	-1E+10	1	-1E+10	1
4901784	8	C	09/23/2015	10:42	-129.414	46.822	0	1864.60	0	2.0540	0	34.5680	0	27.631	0	1840.940	0	47.6	4	14.4	4	-1E+10	1	-1E+10	1	-1E+10	1	-1E+10	1	-1E+10	1	-1E+10	1
4901784	8	C	09/23/2015	10:42	-129.414	46.822	0	1869.50	0	2.0480	0	34.5690	0	27.633	0	1845.756	0	47.9	4	14.5	4	-1E+10	1	-1E+10	1	-1E+10	1	-1E+10	1	-1E+10	1	-1E+10	1
4901784	8	C	09/23/2015	10:42	-129.414	46.822	0	1874.50	0	2.0440	0	34.5700	0	27.634	0	1850.671	0	48.2	4	14.6	4	-1E+10	1	-1E+10	1	-1E+10	1	-1E+10	1	-1E+10	1	-1E+10	1
4901784	8	C	09/23/2015	10:42	-129.414	46.822	0	1879.40	0	2.0390	0	34.5710	0	27.635	0	1855.487	0	48.6	4	14.7	4	-1E+10	1	-1E+10	1	-1E+10	1	-1E+10	1	-1E+10	1	-1E+10	1
4901784	8	C	09/23/2015	10:42	-129.414	46.822	0	1884.40	0	2.0330	0	34.5720	0	27.636	0	1860.402	0	49.1	4	14.8	4	-1E+10	1	-1E+10	1	-1E+10	1	-1E+10	1	-1E+10	1	-1E+10	1
4901784	8	C	09/23/2015	10:42	-129.414	46.822	0	1889.40	0	2.0260	0	34.5730	0	27.638	0	1865.316	0	49.4	4	14.9	4	-1E+10	1	-1E+10	1	-1E+10	1	-1E+10	1	-1E+10	1	-1E+10	1
4901784	8	C	09/23/2015	10:42	-129.414	46.822	0	1894.50	0	2.0240	0	34.5730	0	27.638	0	1870.329	0	49.6	4	15.0	4	-1E+10	1	-1E+10	1	-1E+10	1	-1E+10	1	-1E+10	1	-1E+10	1
4901784	8	C	09/23/2015	10:42	-129.414	46.822	0	1899.60	0	2.0180	0	34.5740	0	27.639	0	1875.341	0	49.9	4	15.0	4	-1E+10	1	-1E+10	1	-1E+10	1	-1E+10	1	-1E+10	1	-1E+10	1
4901784	8	C	09/23/2015	10:42	-129.414	46.822	0	1904.70	0	2.0150	0	34.5750	0	27.640	0	1880.354	0	50.2	4	15.1	4	-1E+10	1	-1E+10	1	-1E+10	1	-1E+10	1	-1E+10	1	-1E+10	1
4901784	8	C	09/23/2015	10:42	-129.414	46.822	0	1909.70	0	2.0100	0	34.5750	0	27.641	0	1885.268	0	50.5	4	15.2	4	-1E+10	1	-1E+10	1	-1E+10	1	-1E+10	1	-1E+10	1	-1E+10	1
4901784	8	C	09/23/2015	10:42	-129.414	46.822	0	1914.70	0	2.0060	0	34.5760	0	27.642	0	1890.181	0	50.7	4	15.3	4	-1E+10	1	-1E+10	1	-1E+10	1	-1E+10	1	-1E+10	1	-1E+10	1
4901784	8	C	09/23/2015	10:42	-129.414	46.822	0	1919.80	0	2.0030	0	34.5760	0	27.642	0	1895.194	0	51.0	4	15.4	4	-1E+10	1	-1E+10	1	-1E+10	1	-1E+10	1	-1E+10	1	-1E+10	1
4901784	8	C	09/23/2015	10:42	-129.414	46.822	0	1924.90	0	1.9990	0	34.5770	0	27.643	0	1900.205	0	51.3	4	15.5	4	-1E+10	1	-1E+10	1	-1E+10	1	-1E+10	1	-1E+10	1	-1E+10	1
4901784	8	C	09/23/2015	10:42	-129.414	46.822	0	1930.10	0	1.9960	0	34.5780	0	27.644	0	1905.315	0	51.5	4	15.5	4	-1E+10	1	-1E+10	1	-1E+10	1	-1E+10	1	-1E+10	1	-1E+10	1
4901784	8	C	09/23/2015	10:42	-129.414	46.822	0	1935.30	0	1.9930	0	34.5780	0	27.644	0	1910.425	0	51.8	4	15.6	4	-1E+10	1	-1E+10	1	-1E+10	1	-1E+10	1	-1E+10	1	-1E+10	1
4901784	8	C	09/23/2015	10:42	-129.414	46.822	0	1940.50	0	1.9880	0	34.5790	0	27.646	0	1915.535	0	52.1	4	15.7	4	-1E+10	1	-1E+10	1	-1E+10	1	-1E+10	1	-1E+10	1	-1E+10	1
4901784	8	C	09/23/2015	10:42	-129.414	46.822	0	1945.70	0	1.9850	0	34.5790	0	27.646	0	1920.645	0	52.4	4	15.8	4	-1E+10	1	-1E+10	1	-1E+10	1	-1E+10	1	-1E+10	1	-1E+10	1
4901784	8	C	09/23/2015	10:42	-129.414	46.822	0	1950.00	0	1.9810	0	34.5800	0	27.647	0	1924.870	0	52.8	4	15.9	4	-1E+10	1	-1E+10	1	-1E+10	1	-1E+10	1	-1E+10	1	-1E+10	1
4901784	8	C	09/23/2015	10:42	-129.414	46.822	0	1954.30	0	1.9760	0	34.5810	0	27.648	0	1929.095	0	53.0	4	16.0	4	-1E+10	1	-1E+10	1	-1E+10	1	-1E+10	1	-1E+10	1	-1E+10	1
4901784	8	C	09/23/2015	10:42	-129.414	46.822	0	1959.40	0	1.9730	0	34.5820	0	27.649	0	1934.106	0	53.4	4	16.1	4	-1E+10	1	-1E+10	1	-1E+10	1	-1E+10	1	-1E+10	1	-1E+10	1
4901784	8	C	09/23/2015	10:42	-129.414	46.822	0	1964.70	0	1.9670	0	34.5820	0	27.650	0	1939.314	0	53.8	4	16.2	4	-1E+10	1	-1E+10	1	-1E+10	1	-1E+10	1	-1E+10	1	-1E+10	1
4901784	8	C	09/23/2015	10:42	-129.414	46.822	0	1969.90	0	1.9640	0	34.5830	0	27.651	0	1944.423	0	54.0	4	16.3	4	-1E+10	1	-1E+10	1	-1E+10	1	-1E+10	1	-1E+10	1	-1E+10	1
4901784	8	C	09/23/2015	10:42	-129.414	46.822	0	1975.10	0	1.9600	0	34.5840	0	27.652	0	1949.532	0	54.4	4	16.4	4	-1E+10	1	-1E+10	1	-1E+10	1	-1E+10	1	-1E+10	1	-1E+10	1
4901784	8	C	09/23/2015	10:42	-129.414	46.822	0	1980.30	0	1.9570	0	34.5850	0	27.653	0	1954.641	0	54.7	4	16.5	4	-1E+10	1	-1E+10	1	-1E+10	1	-1E+10	1	-1E+10	1	-1E+10	1
4901784	8	C	09/23/2015	10:42	-129.414	46.822	0	1985.60	0	1.9520	0	34.5850	0	27.653	0	1959.848	0	55.0	4	16.6	4	-1E+10	1	-1E+10	1	-1E+10	1	-1E+10	1	-1E+10	1	-1E+10	1
4901784	8	C	09/23/2015	10:42	-129.414	46.822	0	1989.40	0	1.9490	0	34.5860	0	27.654	0	1963.581	0	55.2	4	16.6	4	-1E+10	1	-1E+10	1	-1E+10	1	-1E+10	1	-1E+10	1	-1E+10	1
4901784	8	C	09/23/2015	10:42	-129.414	46.822	0	1995.30	0	1.9470	0	34.5860	0	27.655	0	1969.377	0	55.4	4	16.7	4	-1E+10	1	-1E+10	1	-1E+10	1	-1E+10	1	-1E+10	1	-1E+10	1
4901784	8	C	09/23/2015	10:42	-129.414	46.822	0	2000.60	0	1.9470	0	34.5870	0	27.656	0	1974.584	0	55.5	4	16.7	4	-1E+10	1	-1E+10	1	-1E+10	1	-1E+10	1	-1E+10	1	-1E+10	1
4901784	8	C	09/23/2015	10:42	-129.414	46.822	0	2005.20	0	1.9420	0	34.5880	0	27.657	0	1979.102	0	55.8	4	16.8	4	-1E+10	1	-1E+10	1	-1E+10	1	-1E+10	1	-1E+10	1	-1E+10	1
4901784	8	C	09/23/2015	10:42	-129.414	46.822	0	2009.10	0	1.9410	0	34.5880	0	27.657	0	1982.933	0	54.3	8	16.4	8	-1E+10	1	-1E+10	1	-1E+10	1	-1E+10	1	-1E+10	1	-1E+10	1
4901784	8	C	09/23/2015	10:42	-129.414	46.822	0																										
4901784	9	C	10/03/2015	10:45	-129.527	46.704	0	2.60	0	17.0460	0	32.1320	0	23.305	0	2.578	0	236.5	4	97.4	4	-1E+10	1	-1E+10	1	-1E+10	1	-1E+10	1	-1E+10	1	-1E+10	1
4901784	9	C	10/03/2015	10:45	-129.527	46.704	0	4.10	0	17.0380	0	32.1310	0	23.306	0	4.066	0	236.5	4	97.3	4	-1E+10	1	-1E+10	1	-1E+10	1	-1E+10	1	-1E+10	1	-1E+10	1
4901784	9	C	10/03/2015	10:45	-129.527	46.704	0	5.60	0	17.0380	0	32.1310	0	23.306	0	5.554	0	236.3	4	97.3	4	-1E+10	1	-1E+10	1	-1E+10	1	-1E+10	1	-1E+10	1	-1E+10	1
4901784	9	C	10/03/2015	10:45	-129.527	46.704	0	6.80	0	17.0490	0	32.1310	0	23.303	0	6.744	0	236.2	4	97.3	4	-1E+10	1	-1E+10	1	-1E+10	1	-1E+10	1	-1E+10	1	-1E+10	1
4901784	9	C	10/03/2015	10:45	-129.527	46.704	0	8.10	0	17.0550	0	32.1310	0	23.302	0	8.033	0	236.1	4	97.2	4	-1E+10	1	-1E+10	1	-1E+10	1	-1E+10	1	-1E+10	1	-1E+10	1
4901784	9	C	10/03/2015	10:45	-129.527	46.704	0	9.40	0	17.0480	0	32.1310	0	23.304	0	9.322	0	236.1	4	97.2	4	-1E+10	1	-1E+10	1	-1E+10	1	-1E+10	1	-1E+10	1	-1E+10	1
4901784	9	C	10/03/2015	10:45	-129.527	46.704	0	10.70	0	17.0470	0	32.1310	0	23.304	0	10.611	0	235.8	4	97.1	4	-1E+10	1	-1E+10	1	-1E+10	1	-1E+10	1	-1E+10	1	-1E+10	1
4901784	9	C	10/03/2015	10:45	-129.527	46.704	0	11.90	0	17.0450	0	32.1310	0	23.304	0	11.801	0	236.0	4	97.2	4	-1E+10	1	-1E+10	1	-1E+10	1	-1E+10	1	-1E+10	1	-1E+10	1
4901784	9	C	10/03/2015	10:45	-129.527	46.704	0	13.30	0	17.0450	0	32.1310	0	23.304	0	13.190	0	235.7	4	97.0	4	-1E+10	1	-1E+10	1	-1E+10	1	-1E+10	1	-1E+10	1	-1E+10	1
4901784	9	C	10/03/2015	10:45	-129.527	46.704	0	14.90	0	17.0450	0	32.1310	0	23.305	0	14.776	0	235.5	4	96.9	4	-1E+10	1	-1E+10	1	-1E+10	1	-1E+10	1	-1E+10	1	-1E+10	1
4901784	9	C	10/03/2015	10:45	-129.527	46.704	0	16.70	0	17.0510	0	32.1310	0	23.303	0	16.561	0	235.6	4	97.0	4	-1E+10	1	-1E+10	1	-1E+10	1	-1E+10	1	-1E+10	1	-1E+10	1
4901784	9	C	10/03/2015	10:45	-129.527	46.704	0	18.30	0	17.0510	0	32.1300	0	23.302	0	18.148	0	235.3	4	96.9	4	-1E+10	1	-1E+10	1	-1E+10	1	-1E+10	1	-1E+10	1	-1E+10	1
4901784	9	C	10/03/2015	10:45	-129.527	46.704	0	20.20	0	17.0520	0	32.1310	0	23.303	0	20.032	0	235.2	4	96.8	4	-1E+10	1	-1E+10	1	-1E+10	1	-1E+10	1	-1E+10	1	-1E+10	1
4901784	9	C	10/03/2015	10:45	-129.527	46.704	0	22.00	0	17.0500	0	32.1300	0	23.303	0	21.817	0	235.0	4	96.8	4	-1E+10	1	-1E+10	1	-1E+10	1	-1E+10	1	-1E+10	1	-1E+10	1
4901784	9	C	10/03/2015	10:45	-129.527	46.704	0	23.80	0	17.0470	0	32.1300	0	23.304	0	23.602	0	234.9	4	96.7	4	-1E+10	1	-1E+10	1	-1E+10	1	-1E+10	1	-1E+10	1	-1E+10	1
4901784	9	C	10/03/2015	10:45	-129.527	46.704	0	25.70	0	17.0500	0	32.1310	0	23.304	0	25.486	0	234.6	4	96.6	4	-1E+10	1	-1E+10	1	-1E+10	1	-1E+10	1	-1E+10	1	-1E+10	1
4901784	9	C	10/03/2015	10:45	-129.527	46.704	0	28.10	0	17.0470	0	32.1300	0	23.304	0	27.866	0	234.5	4	96.5	4	-1E+10	1	-1E+10	1	-1E+10	1	-1E+10	1	-1E+10	1	-1E+10	1
4901784	9	C	10/03/2015	10:45	-129.527	46.704	0	29.80	0	17.0480	0	32.1290	0	23.303	0	29.551	0	234.3	4	96.5	4	-1E+10	1	-1E+10	1	-1E+10	1	-1E+10	1	-1E+10	1	-1E+10	1
4901784	9	C	10/03/2015	10:45	-129.527	46.704	0	31.30	0	17.0520	0	32.1300	0	23.303	0	31.039	0	234.0	4	96.4	4	-1E+10	1	-1E+10	1	-1E+10	1	-1E+10	1	-1E+10	1	-1E+10	1
4901784	9	C	10/03/2015	10:45	-129.527	46.704	0	32.90	0	17.0510	0	32.1300	0	23.303	0	32.625	0	234.0	4	96.4	4	-1E+10	1	-1E+10	1	-1E+10	1	-1E+10	1	-1E+10	1	-1E+10	1
4901784	9	C	10/03/2015	10:45	-129.527	46.704	0	34.60	0	17.0530	0	32.1290	0	23.302	0	34.311	0	233.9	4	96.3	4	-1E+10	1	-1E+10	1	-1E+10	1	-1E+10	1	-1E+10	1	-1E+10	1
4901784	9	C	10/03/2015	10:45	-129.527	46.704	0	36.20	0	17.0520	0	32.1290	0	23.302	0	35.897	0	233.9	4	96.3	4	-1E+10	1	-1E+10	1	-1E+10	1	-1E+10	1	-1E+10	1	-1E+10	1
4901784	9	C	10/03/2015	10:45	-129.527	46.704	0	38.10	0	17.0560	0	32.1270	0	23.300	0	37.781	0	233.8	4	96.3	4	-1E+10	1	-1E+10	1	-1E+10	1	-1E+10	1	-1E+10	1	-1E+10	1
4901784	9	C	10/03/2015	10:45	-129.527	46.704	0	39.50	0	17.0570	0	32.1250	0	23.298	0	39.169	0	234.0	4	96.4	4	-1E+10	1	-1E+10	1	-1E+10	1	-1E+10	1	-1E+10	1	-1E+10	1
4901784	9	C	10/03/2015	10:45	-129.527	46.704	0	40.70	0	17.0560	0	32.1230	0	23.297	0	40.359	0	234.4	4	96.5	4	-1E+10	1	-1E+10	1	-1E+10	1	-1E+10	1	-1E+10	1	-1E+10	1
4901784	9	C	10/03/2015	10:45	-129.527	46.704	0	41.90	0	17.0540	0	32.1190	0	23.294	0	41.549	0	235.4	4	96.9	4	-1E+10	1	-1E+10	1	-1E+10	1	-1E+10	1	-1E+10	1	-1E+10	1
4901784	9	C	10/03/2015	10:45	-129.527	46.704	0	43.30	0	17.0530	0	32.1140	0	23.291	0	42.937	0	236.6	4	97.4	4	-1E+10	1	-1E+10	1	-1E+10	1	-1E+10	1	-1E+10	1	-1E+10	1
4901784	9	C	10/03/2015	10:45	-129.527	46.704	0	44.60	0	17.0540	0	32.1040	4	23.283	0	44.226	0	238.8	4	98.3	4	-1E+10	1	-1E+10	1	-1E+10	1	-1E+10	1	-1E+10	1	-1E+10	1
4901784	9	C	10/03/2015	10:45	-129.527	46.704	0	46.10	0	17.0530	0	32.0810	4	23.265	0	45.713	0	242.3	4	99.8	4	-1E+10	1	-1E+10	1	-1E+10	1	-1E+10	1	-1E+10	1	-1E+10	1
4901784	9	C	10/03/2015	10:45	-129.527	46.704	0	46.50	0	16.9490	0	32.0980	0	23.303	0	46.110	0	244.0	4	100.2	4	-1E+10	1	-1E+10	1	-1E+10	1	-1E+10	1	-1E+10	1	-1E+10	1
4901784	9	C	10/03/2015	10:45	-129.527	46.704	0	47.90	0	15.8800	0	32.1500	0	23.586	0	47.498	0	251.9	4	101.4	4	-1E+10	1	-1E+10	1	-1E+10	1	-1E+10	1	-1E+10	1	-1E+10	1
4901784	9	C	10/03/2015	10:45	-129.527	46.704	0	49.30	0	14.8160	0	32.1350	0	23.806	0	48.886	0	261.2	4	103.0	4	-1E+10	1	-1E+10	1	-1E+10	1	-1E+10	1	-1E+10	1	-1E+10	1
4901784	9	C	10/03/2015	10:45	-129.527	46.704	0	50.80	0	13.7470	0	32.1770	0	24.060	0	50.374	0	266.9	4	103.0	4	-1E+10	1	-1E+10	1	-1E+10	1	-1E+10	1	-1E+10	1	-1E+10	1
4901784	9	C	10/03/2015	10:45	-129.527	46.704	0	52.30	0	13.0880	0	32.2040	0	24.212	0	51.861	0	270.6	4	103.1	4	-1E+10	1	-1E+10	1	-1E+10	1	-1E+10	1	-1E+10	1	-1E+10	1
4901784	9	C	10/03/2015	10:45	-129.527	46.704	0	53.90	0	12.6630	0	32.2510	0	24.331	0	53.447	0	270.6	4	102.2	4	-1E+10	1	-1E+10	1	-1E+10	1	-1E+10	1	-1E+10	1	-1E+10	1
4901784	9	C	10/03/2015	10:45	-129.527	46.704	0	55.50	0	12.2910	0	32.2550	0	24.405	0	55.033	0	272.3	4	102.0	4	-1E+10	1	-1E+10	1	-1E+10	1	-1E+10	1	-1E+10	1	-1E+10	1
4901784	9	C	10/03/2015	10:45	-129.527	46.704	0	57.30	0	12.2130	0	32.2570	0	24.422	0	56.818	0	271.0	4	101.4	4	-1E+10	1	-1E+10	1	-1E+10	1	-1E+10	1	-1E+10	1	-1E+10	1
4901784	9	C	10/03/2015	10:45	-129.527	46.704	0	59.10	0	12.0870	0	32.2680	0	24.454	0	58.603	0	269.8	4	100.7	4	-1E+10	1	-1E+10	1	-1E+10	1	-1E+10	1	-1E+10	1	-1E+10	1
4901784	9	C	10/03/2015	10:45	-129.527	46.704	0	60.90	0	12.0340	0	32.2760	0	24.470	0	60.387	0	267.6	4	99.8	4	-1E+10	1	-1E+10	1	-1E+10	1	-1E+10	1	-1E+10	1	-1E+10	1
4901784	9	C	10/03/2015	10:45	-129.527	46.704	0	62.70	0	11.8810	0	32.2930	0	24.511	0	62.172	0	265.3	4	98.6	4	-1E+10	1	-1E+10	1	-1E+10	1	-1E+10	1	-1E+10	1	-1E+10	1
4901784	9	C	10/03/2015	10:45	-129.527	46.704	0	64.60	0	11.7210	0	32.3220	0	24.563	0	64.056	0	263.0	4	97.5	4	-1E+10	1	-1E+10	1	-1E+10	1	-1E+10	1	-1E+10	1	-1E+10	1
4901784	9	C	10/03/2015	10:45	-129.527	46.704	0	67.00	0	11.5980	0	32.3340	0	24.595	0	66.435	0	259.6	4	95.9	4	-1E+10	1	-1E+10	1	-1E+10	1	-1E+10	1	-1E+10	1	-1E+10	1
4901784	9	C	10/03/2015	10:45	-129.527	46.704	0	68.70	0	11.4410	0	32.3870	0	24.665	0	68.120	0	255.6	4	94.2	4	-1E+10	1	-1E+10	1	-1E+10	1	-1E+10	1	-1E+10	1	-1E+10	1
4901784	9	C	10/03/2015	10:45	-129.527	46.704	0	70.30	0	11.3030	0	32.4080	0	24.706	0	69.707	0	253.2	4	93.1	4	-1E+10	1	-1E+10	1	-1E+10	1	-1E+10	1	-1E+10	1	-1E+10	1
4901784	9	C	10/03/2015	10:45	-129.527	46.704	0	71.80	0	11.1750	0	32.4060	0	24.727	0	71.194	0	251.2	4	92.1	4	-1E+10	1	-1E+10	1	-1E+10	1	-1E+10	1	-1E+10	1	-1E+10	1
4901784	9	C	10/03/2015	10:45	-129.527	46.704	0	73.30	0	11.1300	0	32.4210	0	24.747	0	72.681	0	248.3	4	90.9	4	-1E+10	1	-1E+10	1	-1E+10	1	-1E+10	1	-1E+10	1	-1E+10	1
4901784	9	C	10/03/2015	10:45	-129.527	46.704	0	74.80	0	10.9820	0	32.4230	0	24.775	0	74.168	0	246.0	4	89.8	4	-1E+10	1	-1E+10	1	-1E+10	1	-1E+10	1	-1E+10	1	-1E+10	1
4901784	9	C	10/03/2015	10:45	-129.527	46.704	0	76.30	0	10.8810	0	32.4410	0	24.806	0	75.655	0	243.6	4	88.8	4	-1E+10	1	-1E+10	1	-1E+10	1	-1E+10	1	-1E+10	1	-1E+10	1
4901784	9	C	10/03/2015	10:45	-129.527	46.704	0	77.90	0	10.8220	0	32.4430	0	24.818	0	77.241	0	241.5	4	87.9	4	-1E+10	1	-1E+10	1	-1E+10	1	-1E+10	1	-1E+10	1	-1E+10	1
4901784	9	C	10/03/2015	10:45	-129.527	46.704	0	79.60	0	10.7630	0	32.4600	0	24.842	0	78.926	0	239.2	4	86.9	4	-1E+10	1	-1E+10	1	-1E+10	1	-1E+10	1	-1E+10	1	-1E+10	1
4901784	9	C	10/03/2015	10:45	-129.527	46.704	0	81.10	0	10.6950	0	32.4850	0	24.873	0	80.413	0	236.5	4	85.9	4	-1E+10	1	-1E+10	1	-1E+10	1	-1E+10	1	-1E+10	1	-1E+10	1
4901784	9	C	10/03/2015	10:45	-129.527	46.704	0	82.80	0	10.5980	0	32.4950	0	24.897	0	82.099	0	234.7	4	85.0	4	-1E+10	1	-1E+10	1	-1E+10	1	-1E+10	1	-1E+10	1	-1E+10	1
4901784	9	C	10/03/2015	10:45	-129.527	46.704	0	84.40	0	10.5330	0	32.5030	0	24.915	0	83.685	0	232.6	4	84.1	4	-1E+10	1	-1E+10	1	-1E+10	1	-1E+10	1	-1E+10	1	-1E+10	1
4901784	9	C	10/03/2015	10:45	-129.527	46.704	0	86.00	0	10.4800	0	32.5080	0	24.928	0	85.271	0	230.4	4	83.3	4	-1E+10	1	-1E+10	1	-1E+10	1	-1E+10	1	-1E+10	1	-1E+10	1
4901784	9	C	10/03/2015	10:45	-129.527	46.704	0	87.70	0	10.4440	0	32.5140	0	24.939	0	86.956	0	227.9	4	82.3	4	-1E+10	1	-1E+10	1	-1E+10	1	-1E+10	1	-1E+10	1	-1E+10	1
4901784	9	C	10/03/2015	10:45	-129.527	46.704	0	89.30	0	10.3940	0	32.5220	0	24.953	0	88.542	0	224.4	4	81.0	4	-1E+10	1	-1E+10	1	-1E+10	1	-1E+10	1	-1E+10	1	-1E+10	1
4901784	9	C	10/03/2015	10:45	-129.527	46.704	0	91.00	0	10.2310	0	32.5440	0	24.998	0	90.227	0	220.5	4	79.3	4	-1E+10	1	-1E+10	1	-1E+10	1	-1E+10	1	-1E+10	1	-1E+10	1
4901784	9	C	10/03/2015	10:45	-129.527	46.704	0	92.70	0	10.0510	0	32.5570	0	25.038	0	91.912	0	218.2	4	78.2	4	-1E+10	1	-1E+10	1	-1E+10	1	-1E+10	1	-1E+10	1	-1E+10	1
4901784	9	C	10/03/2015	10:45	-129.527	46.704	0	94.40	0	9.8910	0	32.5680	0	25.074	0	93.598	0	216.9	4	77.4	4	-1E+10	1	-1E+10	1	-1E+10	1	-1E+10	1	-1E+10	1	-1E+10	1
4901784	9	C	10/03/2015	10:45	-129.527	46.704	0	96.10	0	9.8460	0	32.5860	0	25.095	0	95.283	0	215.1	4	76.7	4	-1E+10	1	-1E+10	1	-1E+10	1	-1E+10	1	-1E+10	1	-1E+10	1
4901784	9	C	10/03/2015	10:45	-129.527	46.704	0	97.80	0	9.7510	0	32.6020	0	25.123	0	96.968	0	214.0	4	76.2	4	-1E+10	1	-1E+10	1	-1E+10	1	-1E+10	1	-1E+10	1	-1E+10	1
4901784	9	C	10/03/2015	10:45	-129.527	46.704	0	99.60	0	9.5890	0	32.6680	0	25.201	0	98.752	0	212.9	4	75.6	4	-1E+10	1	-1E+10	1	-1E+10	1	-1E+10	1	-1E+10	1	-1E+10	1
4901784	9	C	10/03/2015	10:45	-129.527	46.704	0	102.20	0	9.5820	0	32.7190	0	25.242	0	101.329	0	212.2	4	75.3	4	-1E+10	1	-1E+10	1	-1E+10	1	-1E+10	1	-1E+10	1	-1E+10	1
4901784	9	C	10/03/2015	10:45	-129.527	46.704	0	105.00	0	9.5520	0	32.7800	0	25.295	0	104.105	0	209.4	4	74.3	4	-1E+10	1	-1E+10	1	-1E+10	1	-1E+10	1	-1E+10	1	-1E+10	1
4901784	9	C	10/03/2015	10:45	-129.527	46.704	0	107.20	0	9.3610	0	32.8080	0	25.347	0	106.285	0	207.0	4	73.2	4	-1E+10	1	-1E+10	1	-1E+10	1	-1E+10	1	-1E+10	1	-1E+10	1
4901784	9	C	10/03/2015	10:45	-129.527	46.704	0	109.70	0	9.2960	0	32.8270	0	25.372	0	108.764	0	205.0	4	72.4	4	-1E+10	1	-1E+10	1	-1E+10	1	-1E+10	1	-1E+10	1	-1E+10	1
4901784	9	C	10/03/2015	10:45	-129.527	46.704	0	112.70	0	9.1190	0	32.8890	0	25.449	0	111.737	0	200.7	4	70.6	4	-1E+10	1	-1E+10	1	-1E+10	1	-1E+10	1	-1E+10	1	-1E+10	1
4901784	9	C	10/03/2015	10:45	-129.527	46.704	0	115.10	0	8.8220	0	32.9450	0	25.539	0	114.116	0	197.3	4	69.0	4	-1E+10	1	-1E+10	1	-1E+10	1	-1E+10	1	-1E+10	1	-1E+10	1
4901784	9	C	10/03/2015	10:45	-129.527	46.704	0	117.50	0	8.6490	0	32.9660	0	25.582	0	116.495	0	194.6	4	67.8	4	-1E+10	1	-1E+10	1	-1E+10	1	-1E+10	1	-1E+10	1	-1E+10	1
4901784	9	C	10/03/2015	10:45	-129.527	46.704	0	120.00	0	8.4800	0	32.9740	0	25.614	0	118.973	0	192.9	4	67.0	4	-1E+10	1	-1E+10	1	-1E+10	1	-1E+10	1	-1E+10	1	-1E+10	1
4901784	9	C	10/03/2015	10:45	-129.527	46.704	0	122.60	0	8.3650	0	32.9960	0	25.648	0	121.550	0	191.2	4	66.2	4	-1E+10	1	-1E+10	1	-1E+10	1	-1E+10	1	-1E+10	1	-1E+10	1
4901784	9	C	10/03/2015	10:45	-129.527	46.704	0	125.40	0	8.2360	0	33.0250	0	25.690	0	124.325	0	190.2	4	65.7	4	-1E+10	1	-1E+10	1	-1E+10	1	-1E+10	1	-1E+10	1	-1E+10	1
4901784	9	C	10/03/2015	10:45	-129.527	46.704	0	127.20	0	8.2260	0	33.0280	0	25.694	0	126.109	0	189.1	4	65.3	4	-1E+10	1	-1E+10	1	-1E+10	1	-1E+10	1	-1E+10	1	-1E+10	1
4901784	9	C	10/03/2015	10:45	-129.527	46.704	0	130.00	0	8.1790	0	33.0530	0	25.721	0	128.884	0	187.2	4	64.6	4	-1E+10	1	-1E+10	1	-1E+10	1	-1E+10	1	-1E+10	1	-1E+10	1
4901784	9	C	10/03/2015	10:45	-129.527	46.704	0	132.60	0	8.1260	0	33.0770	0	25.748	0	131.461	0	184.8	4	63.7	4	-1E+10	1	-1E+10	1	-1E+10	1	-1E+10	1	-1E+10	1	-1E+10	1
4901784	9	C	10/03/2015	10:45	-129.527	46.704	0	134.50	0	8.0820	0	33.0980	0	25.771	0	133.344	0	183.4	4	63.1	4	-1E+10	1	-1E+10	1	-1E+10	1	-1E+10	1	-1E+10	1	-1E+10	1
4901784	9	C	10/03/2015	10:45	-129.527	46.704	0	137.30	0	8.0240	0	33.1270	0	25.802	0	136.119	0	181.1	4	62.3	4	-1E+10	1	-1E+10	1	-1E+10	1	-1E+10	1	-1E+10	1	-1E+10	1
4901784	9	C	10/03/2015	10:45	-129.527	46.704	0	140.30	0	7.9850	0	33.1620	0	25.835	0	139.092	0	178.8	4	61.5	4	-1E+10	1	-1E+10	1	-1E+10	1	-1E+10	1	-1E+10	1	-1E+10	1
4901784	9	C	10/03/2015	10:45	-129.527	46.704	0	142.20	0	7.9410	0	33.1880	0	25.862	0	140.975	0	177.3	4	60.9	4	-1E+10	1	-1E+10	1	-1E+10	1	-1E+10	1	-1E+10	1	-1E+10	1
4901784	9	C	10/03/2015	10:45	-129.527	46.704	0	145.10	0	7.9060	0	33.2220	0	25.894	0	143.849	0	174.6	4	60.0	4	-1E+10	1	-1E+10	1	-1E+10	1	-1E+10	1	-1E+10	1	-1E+10	1
4901784	9	C	10/03/2015	10:45	-129.527	46.704	0	148.00	0	7.8790	0	33.2700	0	25.935	0	146.723	0	171.8	4	59.0	4	-1E+10	1	-1E+10	1	-1E+10	1	-1E+10	1	-1E+10	1	-1E+10	1
4901784	9	C	10/03/2015	10:45	-129.527	46.704	0	150.60	0	7.8530	0	33.3060	0	25.967	0	149.300	0	170.2	4	58.4	4	-1E+10	1	-1E+10	1	-1E+10	1	-1E+10	1	-1E+10	1	-1E+10	1
4901784	9	C	10/03/2015	10:45	-129.527	46.704	0	152.60	0	7.8230	0	33.3360	0	25.995	0	151.282	0	168.8	4	57.9	4	-1E+10	1	-1E+10	1	-1E+10	1	-1E+10	1	-1E+10	1	-1E+10	1
4901784	9	C	10/03/2015	10:45	-129.527	46.704	0	155.10	0	7.8110	0	33.3570	0	26.014	0	153.759	0	167.3	4	57.4	4	-1E+10	1	-1E+10	1	-1E+10	1	-1E+10	1	-1E+10	1	-1E+10	1
4901784	9	C	10/03/2015	10:45	-129.527	46.704	0	157.40	0	7.8010	0	33.3680	0	26.024	0	156.038	0	165.0	4	56.6	4	-1E+10	1	-1E+10	1	-1E+10	1	-1E+10	1	-1E+10	1	-1E+10	1
4901784	9	C	10/03/2015	10:45	-129.527	46.704	0	159.90	0	7.7760	0	33.4070	0	26.058	0	158.516	0	162.1	4	55.6	4	-1E+10	1	-1E+10	1	-1E+10	1	-1E+10	1	-1E+10	1	-1E+10	1
4901784	9	C	10/03/2015	10:45	-129.527	46.704	0	162.40	0	7.7440	0	33.4440	0	26.092	0	160.993	0	158.8	4	54.4	4	-1E+10	1	-1E+10	1	-1E+10	1	-1E+10	1	-1E+10	1	-1E+10	1
4901784	9	C	10/03/2015	10:45	-129.527	46.704	0	164.90	0	7.7320	0	33.4740	0	26.117	0	163.470	0	156.2	4	53.5	4	-1E+10	1	-1E+10	1	-1E+10	1	-1E+10	1	-1E+10	1	-1E+10	1
4901784	9	C	10/03/2015	10:45	-129.527	46.704	0	167.50	0	7.7030	0	33.5120	0	26.151	0	166.047	0	154.4	4	52.9	4	-1E+10	1	-1E+10	1	-1E+10	1	-1E+10	1	-1E+10	1	-1E+10	1
4901784	9	C	10/03/2015	10:45	-129.527	46.704	0	170.00	0	7.6900	0	33.5290	0	26.166	0	168.524	0	150.4	4	51.5	4	-1E+10	1	-1E+10	1	-1E+10	1	-1E+10	1	-1E+10	1	-1E+10	1
4901784	9	C	10/03/2015	10:45	-129.527	46.704	0	172.70	0	7.6510	0	33.5700	0	26.204	0	171.200	0	146.7	4	50.2	4	-1E+10	1	-1E+10	1	-1E+10	1	-1E+10	1	-1E+10	1	-1E+10	1
4901784	9	C	10/03/2015	10:45	-129.527	46.704	0	175.20	0	7.6350	0	33.5850	0	26.218	0	173.677	0	144.8	4	49.6	4	-1E+10	1	-1E+10	1	-1E+10	1	-1E+10	1	-1E+10	1	-1E+10	1
4901784	9	C	10/03/2015	10:45	-129.527	46.704	0	177.80	0	7.6160	0	33.5980	0	26.231	0	176.253	0	142.5	4	48.7	4	-1E+10	1	-1E+10	1	-1E+10	1	-1E+10	1	-1E+10	1	-1E+10	1
4901784	9	C	10/03/2015	10:45	-129.527	46.704	0	179.50	0	7.6130	0	33.6150	0	26.245	0	177.938	0	140.6	4	48.1	4	-1E+10	1	-1E+10	1	-1E+10	1	-1E+10	1	-1E+10	1	-1E+10	1
4901784	9	C	10/03/2015	10:45	-129.527	46.704	0	182.10	0	7.5700	0	33.6710	0	26.295	0	180.514	0	138.6	4	47.4	4	-1E+10	1	-1E+10	1	-1E+10	1	-1E+10	1	-1E+10	1	-1E+10	1
4901784	9	C	10/03/2015	10:45	-129.527	46.704	0	184.80	0	7.5460	0	33.6970	0	26.319	0	183.189	0	137.9	4	47.1	4	-1E+10	1	-1E+10	1	-1E+10	1	-1E+10	1	-1E+10	1	-1E+10	1
4901784	9	C	10/03/2015	10:45	-129.527	46.704	0	187.40	0	7.5420	0	33.7020	0	26.324	0	185.765	0	138.2	4	47.2	4	-1E+10	1	-1E+10	1	-1E+10	1	-1E+10	1	-1E+10	1	-1E+10	1
4901784	9	C	10/03/2015	10:45	-129.527	46.704	0	190.00	0	7.5240	0	33.7200	0	26.340	0	188.341	0	138.3	4	47.3	4	-1E+10	1	-1E+10	1	-1E+10	1	-1E+10	1	-1E+10	1	-1E+10	1
4901784	9	C	10/03/2015	10:45	-129.527	46.704	0	192.60	0	7.5170	0	33.7340	0	26.352	0	190.918	0	139.3	4	47.6	4	-1E+10	1	-1E+10	1	-1E+10	1	-1E+10	1	-1E+10	1	-1E+10	1
4901784	9	C	10/03/2015	10:45	-129.527	46.704	0	195.20	0	7.5060	0	33.7460	0	26.363	0	193.494	0	140.7	4	48.1	4	-1E+10	1	-1E+10	1	-1E+10	1	-1E+10	1	-1E+10	1	-1E+10	1
4901784	9	C	10/03/2015	10:45	-129.527	46.704	0	197.00	0	7.5010	0	33.7530	0	26.370	0	195.277	0	142.0	4	48.5	4	-1E+10	1	-1E+10	1	-1E+10	1	-1E+10	1	-1E+10	1	-1E+10	1
4901784	9	C	10/03/2015	10:45	-129.527	46.704	0	199.60	0	7.4340	0	33.7850	0	26.404	0	197.853	0	144.1	4	49.1	4	-1E+10	1	-1E+10	1	-1E+10	1	-1E+10	1	-1E+10	1	-1E+10	1
4901784	9	C	10/03/2015	10:45	-129.527	46.704	0	202.30	0	7.4080	0	33.7980	0	26.418	0	200.528	0	145.7	4	49.7	4	-1E+10	1	-1E+10	1	-1E+10	1	-1E+10	1	-1E+10	1	-1E+10	1
4901784	9	C	10/03/2015	10:45	-129.527	46.704	0	204.90	0	7.3430	0	33.8170	0	26.442	0	203.104	0	146.3	4	49.8	4	-1E+10	1	-1E+10	1	-1E+10	1	-1E+10	1	-1E+10	1	-1E+10	1
4901784	9	C	10/03/2015	10:45	-129.527	46.704	0	207.60	0	7.2930	0	33.8270	0	26.457	0	205.779	0	147.6	4	50.2	4	-1E+10	1	-1E+10	1	-1E+10	1	-1E+10	1	-1E+10	1	-1E+10	1
4901784	9	C	10/03/2015	10:45	-129.527	46.704	0	210.40	0	7.2590	0	33.8310	0	26.465	0	208.553	0	147.6	4	50.2	4	-1E+10	1	-1E+10	1	-1E+10	1	-1E+10	1	-1E+10	1	-1E+10	1
4901784	9	C	10/03/2015	10:45	-129.527	46.704	0	213.20	0	7.1840	0	33.8390	0	26.482	0	211.327	0	147.3	4	50.0	4	-1E+10	1	-1E+10	1	-1E+10	1	-1E+10	1	-1E+10	1	-1E+10	1
4901784	9	C	10/03/2015	10:45	-129.527	46.704	0	215.00	0	7.1670	0	33.8390	0	26.484	0	213.110	0	146.0	4	49.5	4	-1E+10	1	-1E+10	1	-1E+10	1	-1E+10	1	-1E+10	1	-1E+10	1
4901784	9	C	10/03/2015	10:45	-129.527	46.704	0	216.90	0	7.1430	0	33.8400	0	26.488	0	214.993	0	144.0	4	48.8	4	-1E+10	1	-1E+10	1	-1E+10	1	-1E+10	1	-1E+10	1	-1E+10	1
4901784	9	C	10/03/2015	10:45	-129.527	46.704	0	219.80	0	7.0700	0	33.8440	0	26.502	0	217.866	0	139.9	4	47.4	4	-1E+10	1	-1E+10	1	-1E+10	1	-1E+10	1	-1E+10	1	-1E+10	1
4901784	9	C	10/03/2015	10:45	-129.527	46.704	0	222.60	0	6.9900	0	33.8480	0	26.516	0	220.639	0	135.2	4	45.7	4	-1E+10	1	-1E+10	1	-1E+10	1	-1E+10	1	-1E+10	1	-1E+10	1
4901784	9	C	10/03/2015	10:45	-129.527	46.704	0	225.10	0	6.9640	0	33.8560	0	26.526	0	223.116	0	129.4	4	43.7	4	-1E+10	1	-1E+10	1	-1E+10	1	-1E+10	1	-1E+10	1	-1E+10	1
4901784	9	C	10/03/2015	10:45	-129.527	46.704	0	227.80	0	7.0050	0	33.8700	0	26.531	0	225.791	0	122.2	4	41.3	4	-1E+10	1	-1E+10	1	-1E+10	1	-1E+10	1	-1E+10	1	-1E+10	1
4901784	9	C	10/03/2015	10:45	-129.527	46.704	0	230.10	0	6.9820	0	33.8760	0	26.539	0	228.069	0	118.8	4	40.1	4	-1E+10	1	-1E+10	1	-1E+10	1	-1E+10	1	-1E+10	1	-1E+10	1
4901784	9	C	10/03/2015	10:45	-129.527	46.704	0	232.50	0	6.9700	0	33.8820	0	26.545	0	230.447	0	115.4	4	39.0	4	-1E+10	1	-1E+10	1	-1E+10	1	-1E+10	1	-1E+10	1	-1E+10	1
4901784	9	C	10/03/2015	10:45	-129.527	46.704	0	235.00	0	6.9340	0	33.8950	0	26.560	0	232.923	0	112.8	4	38.1	4	-1E+10	1	-1E+10	1	-1E+10	1	-1E+10	1	-1E+10	1	-1E+10	1
4901784	9	C	10/03/2015	10:45	-129.527	46.704	0	237.40	0	6.9160	0	33.8960	0	26.564	0	235.301	0	112.0	4	37.8	4	-1E+10	1	-1E+10	1	-1E+10	1	-1E+10	1	-1E+10	1	-1E+10	1
4901784	9	C	10/03/2015	10:45	-129.527	46.704	0	239.80	0	6.8920	0	33.8980	0	26.569	0	237.678	0	111.3	4	37.5	4	-1E+10	1	-1E+10	1	-1E+10	1	-1E+10	1	-1E+10	1	-1E+10	1
4901784	9	C	10/03/2015	10:45	-129.527	46.704	0	242.30	0	6.8480	0	33.9010	0	26.577	0	240.154	0	110.4	4	37.2	4	-1E+10	1	-1E+10	1	-1E+10	1	-1E+10	1	-1E+10	1	-1E+10	1
4901784	9	C	10/03/2015	10:45	-129.527	46.704	0	244.80	0	6.8260	0	33.9020	0	26.581	0	242.631	0	109.3	4	36.8	4	-1E+10	1	-1E+10	1	-1E+10	1	-1E+10	1	-1E+10	1	-1E+10	1
4901784	9	C	10/03/2015	10:45	-129.527	46.704	0	247.30	0	6.7860	0	33.9060	0	26.589	0	245.107	0	108.0	4	36.3	4	-1E+10	1	-1E+10	1	-1E+10	1	-1E+10	1	-1E+10	1	-1E+10	1
4901784	9	C	10/03/2015	10:45	-129.527	46.704	0	249.90	0	6.7590	0	33.9080	0	26.594	0	247.683	0	106.4	4	35.8	4	-1E+10	1	-1E+10	1	-1E+10	1	-1E+10	1	-1E+10	1	-1E+10	1
4901784	9	C	10/03/2015	10:45	-129.527	46.704	0	252.50	0	6.7280	0	33.9120	0	26.602	0	250.258	0	104.8	4	35.2	4	-1E+10	1	-1E+10	1	-1E+10	1	-1E+10	1	-1E+10	1	-1E+10	1
4901784	9	C	10/03/2015	10:45	-129.527	46.704	0	255.10	0	6.7000	0	33.9140	0	26.607	0	252.833	0	103.3	4	34.7	4	-1E+10	1	-1E+10	1	-1E+10	1	-1E+10	1	-1E+10	1	-1E+10	1
4901784	9	C	10/03/2015	10:45	-129.527	46.704	0	257.80	0	6.6860	0	33.9190	0	26.613	0	255.508	0	101.7	4	34.1	4	-1E+10	1	-1E+10	1	-1E+10	1	-1E+10	1	-1E+10	1	-1E+10	1
4901784	9	C	10/03/2015	10:45	-129.527	46.704	0	260.50	0	6.6660	0	33.9210	0	26.617	0	258.182	0	100.7	4	33.8	4	-1E+10	1	-1E+10	1	-1E+10	1	-1E+10	1	-1E+10	1	-1E+10	1
4901784	9	C	10/03/2015	10:45	-129.527	46.704	0	262.20	0	6.6480	0	33.9220	0	26.620	0	259.866	0	100.1	4	33.6	4	-1E+10	1	-1E+10	1	-1E+10	1	-1E+10	1	-1E+10	1	-1E+10	1
4901784	9	C	10/03/2015	10:45	-129.527	46.704	0	264.90	0	6.6100	0	33.9230	0	26.626	0	262.540	0	98.8	4	33.1	4	-1E+10	1	-1E+10	1	-1E+10	1	-1E+10	1	-1E+10	1	-1E+10	1
4901784	9	C	10/03/2015	10:45	-129.527	46.704	0	267.60	0	6.5740	0	33.9260	0	26.633	0	265.214	0	97.2	4	32.5	4	-1E+10	1	-1E+10	1	-1E+10	1	-1E+10	1	-1E+10	1	-1E+10	1
4901784	9	C	10/03/2015	10:45	-129.527	46.704	0	269.40	0	6.5670	0	33.9290	0	26.637	0	266.997	0	96.4	4	32.3	4	-1E+10	1	-1E+10	1	-1E+10	1	-1E+10	1	-1E+10	1	-1E+10	1
4901784	9	C	10/03/2015	10:45	-129.527	46.704	0	272.20	0	6.5620	0	33.9300	0	26.638	0	269.770	0	95.4	4	31.9	4	-1E+10	1	-1E+10	1	-1E+10	1	-1E+10	1	-1E+10	1	-1E+10	1
4901784	9	C	10/03/2015	10:45	-129.527	46.704	0	274.90	0	6.5330	0	33.9350	0	26.646	0	272.444	0	94.7	4	31.7	4	-1E+10	1	-1E+10	1	-1E+10	1	-1E+10	1	-1E+10	1	-1E+10	1
4901784	9	C	10/03/2015	10:45	-129.527	46.704	0	277.60	0	6.4990	0	33.9310	0	26.647	0	275.118	0	93.7	4	31.3	4	-1E+10	1	-1E+10	1	-1E+10	1	-1E+10	1	-1E+10	1	-1E+10	1
4901784	9	C	10/03/2015	10:45	-129.527	46.704	0	280.30	0	6.4780	0	33.9330	0	26.652	0	277.793	0	91.9	4	30.7	4	-1E+10	1	-1E+10	1	-1E+10	1	-1E+10	1	-1E+10	1	-1E+10	1
4901784	9	C	10/03/2015	10:45	-129.527	46.704	0	282.10	0	6.4710	0	33.9350	0	26.654	0	279.575	0	90.8	4	30.3	4	-1E+10	1	-1E+10	1	-1E+10	1	-1E+10	1	-1E+10	1	-1E+10	1
4901784	9	C	10/03/2015	10:45	-129.527	46.704	0	284.90	0	6.4360	0	33.9380	0	26.661	0	282.348	0	89.4	4	29.8	4	-1E+10	1	-1E+10	1	-1E+10	1	-1E+10	1	-1E+10	1	-1E+10	1
4901784	9	C	10/03/2015	10:45	-129.527	46.704	0	287.60	0	6.4080	0	33.9410	0	26.667	0	285.022	0	88.1	4	29.4	4	-1E+10	1	-1E+10	1	-1E+10	1	-1E+10	1	-1E+10	1	-1E+10	1
4901784	9	C	10/03/2015	10:45	-129.527	46.704	0	289.40	0	6.3960	0	33.9410	0	26.669	0	286.805	0	87.5	4	29.2	4	-1E+10	1	-1E+10	1	-1E+10	1	-1E+10	1	-1E+10	1	-1E+10	1
4901784	9	C	10/03/2015	10:45	-129.527	46.704	0	292.10	0	6.3680	0	33.9430	0	26.674	0	289.479	0	86.4	4	28.8	4	-1E+10	1	-1E+10	1	-1E+10	1	-1E+10	1	-1E+10	1	-1E+10	1
4901784	9	C	10/03/2015	10:45	-129.527	46.704	0	294.80	0	6.3330	0	33.9450	0	26.680	0	292.153	0	85.3	4	28.4	4	-1E+10	1	-1E+10	1	-1E+10	1	-1E+10	1	-1E+10	1	-1E+10	1
4901784	9	C	10/03/2015	10:45	-129.527	46.704	0	297.60	0	6.3000	0	33.9450	0	26.684	0	294.925	0	84.1	4	28.0	4	-1E+10	1	-1E+10	1	-1E+10	1	-1E+10	1	-1E+10	1	-1E+10	1
4901784	9	C	10/03/2015	10:45	-129.527	46.704	0	300.30	0	6.2790	0	33.9470	0	26.689	0	297.599	0	82.9	4	27.6	4	-1E+10	1	-1E+10	1	-1E+10	1	-1E+10	1	-1E+10	1	-1E+10	1
4901784	9	C	10/03/2015	10:45	-129.527	46.704	0	302.20	0	6.2650	0	33.9470	0	26.690	0	299.481	0	82.2	4	27.3	4	-1E+10	1	-1E+10	1	-1E+10	1	-1E+10	1	-1E+10	1	-1E+10	1
4901784	9	C	10/03/2015	10:45	-129.527	46.704	0	304.90	0	6.2040	0	33.9490	0	26.700	0	302.155	0	80.8	4	26.8	4	-1E+10	1	-1E+10	1	-1E+10	1	-1E+10	1	-1E+10	1	-1E+10	1
4901784	9	C	10/03/2015	10:45	-129.527	46.704	0	307.60	0	6.1840	0	33.9500	0	26.703	0	304.828	0	79.6	4	26.4	4	-1E+10	1	-1E+10	1	-1E+10	1	-1E+10	1	-1E+10	1	-1E+10	1
4901784	9	C	10/03/2015	10:45	-129.527	46.704	0	309.40	0	6.1770	0	33.9500	0	26.704	0	306.611	0	78.7	4	26.1	4	-1E+10	1	-1E+10	1	-1E+10	1	-1E+10	1	-1E+10	1	-1E+10	1
4901784	9	C	10/03/2015	10:45	-129.527	46.704	0	312.20	0	6.1510	0	33.9520	0	26.709	0	309.383	0	77.2	4	25.6	4	-1E+10	1	-1E+10	1	-1E+10	1	-1E+10	1	-1E+10	1	-1E+10	1
4901784	9	C	10/03/2015	10:45	-129.527	46.704	0	314.90	0	6.1240	0	33.9560	0	26.716	0	312.057	0	75.8	4	25.1	4	-1E+10	1	-1E+10	1	-1E+10	1	-1E+10	1	-1E+10	1	-1E+10	1
4901784	9	C	10/03/2015	10:45	-129.527	46.704	0	317.60	0	6.1130	0	33.9580	0	26.719	0	314.731	0	74.8	4	24.8	4	-1E+10	1	-1E+10	1	-1E+10	1	-1E+10	1	-1E+10	1	-1E+10	1
4901784	9	C	10/03/2015	10:45	-129.527	46.704	0	320.20	0	6.0830	0	33.9590	0	26.723	0	317.305	0	73.8	4	24.4	4	-1E+10	1	-1E+10	1	-1E+10	1	-1E+10	1	-1E+10	1	-1E+10	1
4901784	9	C	10/03/2015	10:45	-129.527	46.704	0	322.00	0	6.0800	0	33.9590	0	26.724	0	319.087	0	73.1	4	24.2	4	-1E+10	1	-1E+10	1	-1E+10	1	-1E+10	1	-1E+10	1	-1E+10	1
4901784	9	C	10/03/2015	10:45	-129.527	46.704	0	324.70	0	6.0520	0	33.9630	0	26.730	0	321.761	0	71.7	4	23.7	4	-1E+10	1	-1E+10	1	-1E+10	1	-1E+10	1	-1E+10	1	-1E+10	1
4901784	9	C	10/03/2015	10:45	-129.527	46.704	0	327.30	0	6.0400	0	33.9660	0	26.734	0	324.335	0	70.6	4	23.4	4	-1E+10	1	-1E+10	1	-1E+10	1	-1E+10	1	-1E+10	1	-1E+10	1
4901784	9	C	10/03/2015	10:45	-129.527	46.704	0	330.00	0	6.0360	0	33.9660	0	26.735	0	327.009	0	70.0	4	23.2	4	-1E+10	1	-1E+10	1	-1E+10	1	-1E+10	1	-1E+10	1	-1E+10	1
4901784	9	C	10/03/2015	10:45	-129.527	46.704	0	332.70	0	5.9990	0	33.9670	0	26.740	0	329.682	0	69.2	4	22.9	4	-1E+10	1	-1E+10	1	-1E+10	1	-1E+10	1	-1E+10	1	-1E+10	1
4901784	9	C	10/03/2015	10:45	-129.527	46.704	0	334.50	0	5.9760	0	33.9680	0	26.744	0	331.464	0	68.8	4	22.7	4	-1E+10	1	-1E+10	1	-1E+10	1	-1E+10	1	-1E+10	1	-1E+10	1
4901784	9	C	10/03/2015	10:45	-129.527	46.704	0	337.10	0	5.9510	0	33.9680	0	26.747	0	334.039	0	68.0	4	22.5	4	-1E+10	1	-1E+10	1	-1E+10	1	-1E+10	1	-1E+10	1	-1E+10	1
4901784	9	C	10/03/2015	10:45	-129.527	46.704	0	339.80	0	5.9470	0	33.9690	0	26.748	0	336.712	0	66.8	4	22.1	4	-1E+10	1	-1E+10	1	-1E+10	1	-1E+10	1	-1E+10	1	-1E+10	1
4901784	9	C	10/03/2015	10:45	-129.527	46.704	0	342.50	0	5.9150	0	33.9710	0	26.754	0	339.385	0	65.6	4	21.6	4	-1E+10	1	-1E+10	1	-1E+10	1	-1E+10	1	-1E+10	1	-1E+10	1
4901784	9	C	10/03/2015	10:45	-129.527	46.704	0	345.30	0	5.9050	0	33.9730	0	26.757	0	342.157	0	63.9	4	21.1	4	-1E+10	1	-1E+10	1	-1E+10	1	-1E+10	1	-1E+10	1	-1E+10	1
4901784	9	C	10/03/2015	10:45	-129.527	46.704	0	347.00	0	5.9120	0	33.9770	0	26.759	0	343.840	0	62.9	4	20.7	4	-1E+10	1	-1E+10	1	-1E+10	1	-1E+10	1	-1E+10	1	-1E+10	1
4901784	9	C	10/03/2015	10:45	-129.527	46.704	0	349.70	0	5.8820	0	33.9810	0	26.766	0	346.514	0	61.8	4	20.4	4	-1E+10	1	-1E+10	1	-1E+10	1	-1E+10	1	-1E+10	1	-1E+10	1
4901784	9	C	10/03/2015	10:45	-129.527	46.704	0	352.40	0	5.8540	0	33.9820	0	26.770	0	349.187	0	60.9	4	20.0	4	-1E+10	1	-1E+10	1	-1E+10	1	-1E+10	1	-1E+10	1	-1E+10	1
4901784	9	C	10/03/2015	10:45	-129.527	46.704	0	355.10	0	5.8580	0	33.9850	0	26.772	0	351.860	0	59.9	4	19.7	4	-1E+10	1	-1E+10	1	-1E+10	1	-1E+10	1	-1E+10	1	-1E+10	1
4901784	9	C	10/03/2015	10:45	-129.527	46.704	0	357.80	0	5.8490	0	33.9860	0	26.774	0	354.533	0	59.0	4	19.4	4	-1E+10	1	-1E+10	1	-1E+10	1	-1E+10	1	-1E+10	1	-1E+10	1
4901784	9	C	10/03/2015	10:45	-129.527	46.704	0	359.60	0	5.8290	0	33.9880	0	26.778	0	356.315	0	58.6	4	19.3	4	-1E+10	1	-1E+10	1	-1E+10	1	-1E+10	1	-1E+10	1	-1E+10	1
4901784	9	C	10/03/2015	10:45	-129.527	46.704	0	362.30	0	5.8000	0	33.9890	0	26.783	0	358.988	0	58.0	4	19.1	4	-1E+10	1	-1E+10	1	-1E+10	1	-1E+10	1	-1E+10	1	-1E+10	1
4901784	9	C	10/03/2015	10:45	-129.527	46.704	0	364.90	0	5.7830	0	33.9890	0	26.785	0	361.562	0	57.3	4	18.9	4	-1E+10	1	-1E+10	1	-1E+10	1	-1E+10	1	-1E+10	1	-1E+10	1
4901784	9	C	10/03/2015	10:45	-129.527	46.704	0	367.70	0	5.7530	0	33.9930	0	26.792	0	364.334	0	56.7	4	18.6	4	-1E+10	1	-1E+10	1	-1E+10	1	-1E+10	1	-1E+10	1	-1E+10	1
4901784	9	C	10/03/2015	10:45	-129.527	46.704	0	370.40	0	5.7440	0	33.9930	0	26.793	0	367.007	0	56.2	4	18.5	4	-1E+10	1	-1E+10	1	-1E+10	1	-1E+10	1	-1E+10	1	-1E+10	1
4901784	9	C	10/03/2015	10:45	-129.527	46.704	0	372.20	0	5.7360	0	33.9930	0	26.794	0	368.789	0	55.8	4	18.3	4	-1E+10	1	-1E+10	1	-1E+10	1	-1E+10	1	-1E+10	1	-1E+10	1
4901784	9	C	10/03/2015	10:45	-129.527	46.704	0	375.00	0	5.7150	0	33.9950	0	26.798	0	371.560	0	55.2	4	18.1	4	-1E+10	1	-1E+10	1	-1E+10	1	-1E+10	1	-1E+10	1	-1E+10	1
4901784	9	C	10/03/2015	10:45	-129.527	46.704	0	377.80	0	5.7050	0	33.9950	0	26.799	0	374.332	0	54.6	4	17.9	4	-1E+10	1	-1E+10	1	-1E+10	1	-1E+10	1	-1E+10	1	-1E+10	1
4901784	9	C	10/03/2015	10:45	-129.527	46.704	0	379.50	0	5.6860	0	33.9970	0	26.803	0	376.015	0	54.1	4	17.8	4	-1E+10	1	-1E+10	1	-1E+10	1	-1E+10	1	-1E+10	1	-1E+10	1
4901784	9	C	10/03/2015	10:45	-129.527	46.704	0	382.40	0	5.6570	0	33.9980	0	26.807	0	378.886	0	53.6	4	17.6	4	-1E+10	1	-1E+10	1	-1E+10	1	-1E+10	1	-1E+10	1	-1E+10	1
4901784	9	C	10/03/2015	10:45	-129.527	46.704	0	385.10	0	5.6480	0	33.9980	0	26.808	0	381.559	0	53.0	4	17.4	4	-1E+10	1	-1E+10	1	-1E+10	1	-1E+10	1	-1E+10	1	-1E+10	1
4901784	9	C	10/03/2015	10:45	-129.527	46.704	0	387.00	0	5.6340	0	33.9980	0	26.810	0	383.439	0	52.4	4	17.2	4	-1E+10	1	-1E+10	1	-1E+10	1	-1E+10	1	-1E+10	1	-1E+10	1
4901784	9	C	10/03/2015	10:45	-129.527	46.704	0	389.70	0	5.6180	0	34.0010	0	26.815	0	386.112	0	51.3	4	16.8	4	-1E+10	1	-1E+10	1	-1E+10	1	-1E+10	1	-1E+10	1	-1E+10	1
4901784	9	C	10/03/2015	10:45	-129.527	46.704	0	392.50	0	5.5890	0	34.0050	0	26.821	0	388.884	0	50.3	4	16.5	4	-1E+10	1	-1E+10	1	-1E+10	1	-1E+10	1	-1E+10	1	-1E+10	1
4901784	9	C	10/03/2015	10:45	-129.527	46.704	0	394.40	0	5.5730	0	34.0060	0	26.824	0	390.764	0	49.9	4	16.3	4	-1E+10	1	-1E+10	1	-1E+10	1	-1E+10	1	-1E+10	1	-1E+10	1
4901784	9	C	10/03/2015	10:45	-129.527	46.704	0	397.50	0	5.5490	0	34.0080	0	26.828	0	393.833	0	49.4	4	16.2	4	-1E+10	1	-1E+10	1	-1E+10	1	-1E+10	1	-1E+10	1	-1E+10	1
4901784	9	C	10/03/2015	10:45	-129.527	46.704	0	400.40	0	5.5090	0	34.0120	0	26.836	0	396.703	0	49.1	4	16.0	4	-1E+10	1	-1E+10	1	-1E+10	1	-1E+10	1	-1E+10	1	-1E+10	1
4901784	9	C	10/03/2015	10:45	-129.527	46.704	0	402.80	0	5.5020	0	34.0110	0	26.836	0	399.079	0	49.0	4	16.0	4	-1E+10	1	-1E+10	1	-1E+10	1	-1E+10	1	-1E+10	1	-1E+10	1
4901784	9	C	10/03/2015	10:45	-129.527	46.704	0	405.30	0	5.4920	0	34.0110	0	26.838	0	401.553	0	48.8	4	15.9	4	-1E+10	1	-1E+10	1	-1E+10	1	-1E+10	1	-1E+10	1	-1E+10	1
4901784	9	C	10/03/2015	10:45	-129.527	46.704	0	407.70	0	5.4740	0	34.0120	0	26.841	0	403.929	0	48.8	4	15.9	4	-1E+10	1	-1E+10	1	-1E+10	1	-1E+10	1	-1E+10	1	-1E+10	1
4901784	9	C	10/03/2015	10:45	-129.527	46.704	0	410.20	0	5.4500	0	34.0120	0	26.844	0	406.403	0	48.6	4	15.9	4	-1E+10	1	-1E+10	1	-1E+10	1	-1E+10	1	-1E+10	1	-1E+10	1
4901784	9	C	10/03/2015	10:45	-129.527	46.704	0	412.60	0	5.4430	0	34.0120	0	26.844	0	408.779	0	48.5	4	15.8	4	-1E+10	1	-1E+10	1	-1E+10	1	-1E+10	1	-1E+10	1	-1E+10	1
4901784	9	C	10/03/2015	10:45	-129.527	46.704	0	415.10	0	5.4240	0	34.0110	0	26.846	0	411.253	0	48.3	4	15.8	4	-1E+10	1	-1E+10	1	-1E+10	1	-1E+10	1	-1E+10	1	-1E+10	1
4901784	9	C	10/03/2015	10:45	-129.527	46.704	0	417.70	0	5.4080	0	34.0110	0	26.848	0	413.826	0	48.1	4	15.7	4	-1E+10	1	-1E+10	1	-1E+10	1	-1E+10	1	-1E+10	1	-1E+10	1
4901784	9	C	10/03/2015	10:45	-129.527	46.704	0	420.20	0	5.3540	0	34.0140	0	26.857	0	416.301	0	47.9	4	15.6	4	-1E+10	1	-1E+10	1	-1E+10	1	-1E+10	1	-1E+10	1	-1E+10	1
4901784	9	C	10/03/2015	10:45	-129.527	46.704	0	422.70	0	5.3370	0	34.0140	0	26.859	0	418.775	0	47.3	4	15.4	4	-1E+10	1	-1E+10	1	-1E+10	1	-1E+10	1	-1E+10	1	-1E+10	1
4901784	9	C	10/03/2015	10:45	-129.527	46.704	0	425.20	0	5.3380	0	34.0160	0	26.860	0	421.249	0	46.8	4	15.2	4	-1E+10	1	-1E+10	1	-1E+10	1	-1E+10	1	-1E+10	1	-1E+10	1
4901784	9	C	10/03/2015	10:45	-129.527	46.704	0	427.70	0	5.3320	0	34.0180	0	26.862	0	423.723	0	46.8	4	15.2	4	-1E+10	1	-1E+10	1	-1E+10	1	-1E+10	1	-1E+10	1	-1E+10	1
4901784	9	C	10/03/2015	10:45	-129.527	46.704	0	430.20	0	5.3140	0	34.0170	0	26.864	0	426.198	0	46.8	4	15.2	4	-1E+10	1	-1E+10	1	-1E+10	1	-1E+10	1	-1E+10	1	-1E+10	1
4901784	9	C	10/03/2015	10:45	-129.527	46.704	0	432.80	0	5.2640	0	34.0160	0	26.869	0	428.771	0	46.7	4	15.2	4	-1E+10	1	-1E+10	1	-1E+10	1	-1E+10	1	-1E+10	1	-1E+10	1
4901784	9	C	10/03/2015	10:45	-129.527	46.704	0	435.30	0	5.2430	0	34.0170	0	26.872	0	431.245	0	46.3	4	15.0	4	-1E+10	1	-1E+10	1	-1E+10	1	-1E+10	1	-1E+10	1	-1E+10	1
4901784	9	C	10/03/2015	10:45	-129.527	46.704	0	437.80	0	5.2340	0	34.0170	0	26.873	0	433.719	0	45.8	4	14.9	4	-1E+10	1	-1E+10	1	-1E+10	1	-1E+10	1	-1E+10	1	-1E+10	1
4901784	9	C	10/03/2015	10:45	-129.527	46.704	0	440.40	0	5.2170	0	34.0200	0	26.877	0	436.292	0	45.2	4	14.7	4	-1E+10	1	-1E+10	1	-1E+10	1	-1E+10	1	-1E+10	1	-1E+10	1
4901784	9	C	10/03/2015	10:45	-129.527	46.704	0	442.10	0	5.2010	0	34.0220	0	26.881	0	437.974	0	45.0	4	14.6	4	-1E+10	1	-1E+10	1	-1E+10	1	-1E+10	1	-1E+10	1	-1E+10	1
4901784	9	C	10/03/2015	10:45	-129.527	46.704	0	444.70	0	5.1850	0	34.0230	0	26.884	0	440.547	0	44.7	4	14.5	4	-1E+10	1	-1E+10	1	-1E+10	1	-1E+10	1	-1E+10	1	-1E+10	1
4901784	9	C	10/03/2015	10:45	-129.527	46.704	0	447.40	0	5.1650	0	34.0240	0	26.887	0	443.219	0	44.4	4	14.4	4	-1E+10	1	-1E+10	1	-1E+10	1	-1E+10	1	-1E+10	1	-1E+10	1
4901784	9	C	10/03/2015	10:45	-129.527	46.704	0	450.00	0	5.1570	0	34.0250	0	26.888	0	445.792	0	43.9	4	14.2	4	-1E+10	1	-1E+10	1	-1E+10	1	-1E+10	1	-1E+10	1	-1E+10	1
4901784	9	C	10/03/2015	10:45	-129.527	46.704	0	452.60	0	5.1510	0	34.0260	0	26.890	0	448.365	0	43.3	4	14.0	4	-1E+10	1	-1E+10	1	-1E+10	1	-1E+10	1	-1E+10	1	-1E+10	1
4901784	9	C	10/03/2015	10:45	-129.527	46.704	0	455.20	0	5.1580	0	34.0280	0	26.891	0	450.938	0	42.4	4	13.7	4	-1E+10	1	-1E+10	1	-1E+10	1	-1E+10	1	-1E+10	1	-1E+10	1
4901784	9	C	10/03/2015	10:45	-129.527	46.704	0	457.90	0	5.1680	0	34.0320	0	26.893	0	453.610	0	41.6	4	13.5	4	-1E+10	1	-1E+10	1	-1E+10	1	-1E+10	1	-1E+10	1	-1E+10	1
4901784	9	C	10/03/2015	10:45	-129.527	46.704	0	459.60	0	5.1460	0	34.0320	0	26.895	0	455.292	0	41.1	4	13.3	4	-1E+10	1	-1E+10	1	-1E+10	1	-1E+10	1	-1E+10	1	-1E+10	1
4901784	9	C	10/03/2015	10:45	-129.527	46.704	0	462.30	0	5.1200	0	34.0360	0	26.902	0	457.963	0	40.5	4	13.1	4	-1E+10	1	-1E+10	1	-1E+10	1	-1E+10	1	-1E+10	1	-1E+10	1
4901784	9	C	10/03/2015	10:45	-129.527	46.704	0	465.00	0	5.0860	0	34.0380	0	26.907	0	460.635	0	40.1	4	13.0	4	-1E+10	1	-1E+10	1	-1E+10	1	-1E+10	1	-1E+10	1	-1E+10	1
4901784	9	C	10/03/2015	10:45	-129.527	46.704	0	467.70	0	5.0640	0	34.0410	0	26.912	0	463.307	0	39.5	4	12.8	4	-1E+10	1	-1E+10	1	-1E+10	1	-1E+10	1	-1E+10	1	-1E+10	1
4901784	9	C	10/03/2015	10:45	-129.527	46.704	0	470.50	0	5.0700	0	34.0440	0	26.914	0	466.077	0	38.9	4	12.6	4	-1E+10	1	-1E+10	1	-1E+10	1	-1E+10	1	-1E+10	1	-1E+10	1
4901784	9	C	10/03/2015	10:45	-129.527	46.704	0	472.30	0	5.0670	0	34.0460	0	26.916	0	467.858	0	38.8	4	12.5	4	-1E+10	1	-1E+10	1	-1E+10	1	-1E+10	1	-1E+10	1	-1E+10	1
4901784	9	C	10/03/2015	10:45	-129.527	46.704	0	475.10	0	5.0510	0	34.0460	0	26.918	0	470.629	0	38.6	4	12.5	4	-1E+10	1	-1E+10	1	-1E+10	1	-1E+10	1	-1E+10	1	-1E+10	1
4901784	9	C	10/03/2015	10:45	-129.527	46.704	0	477.90	0	5.0290	0	34.0460	0	26.920	0	473.399	0	38.3	4	12.4	4	-1E+10	1	-1E+10	1	-1E+10	1	-1E+10	1	-1E+10	1	-1E+10	1
4901784	9	C	10/03/2015	10:45	-129.527	46.704	0	479.70	0	5.0120	0	34.0470	0	26.923	0	475.180	0	38.0	4	12.3	4	-1E+10	1	-1E+10	1	-1E+10	1	-1E+10	1	-1E+10	1	-1E+10	1
4901784	9	C	10/03/2015	10:45	-129.527	46.704	0	482.40	0	5.0080	0	34.0480	0	26.924	0	477.852	0	37.3	4	12.1	4	-1E+10	1	-1E+10	1	-1E+10	1	-1E+10	1	-1E+10	1	-1E+10	1
4901784	9	C	10/03/2015	10:45	-129.527	46.704	0	485.30	0	5.0110	0	34.0490	0	26.925	0	480.721	0	36.6	4	11.8	4	-1E+10	1	-1E+10	1	-1E+10	1	-1E+10	1	-1E+10	1	-1E+10	1
4901784	9	C	10/03/2015	10:45	-129.527	46.704	0	487.10	0	4.9790	0	34.0530	0	26.931	0	482.502	0	36.2	4	11.7	4	-1E+10	1	-1E+10	1	-1E+10	1	-1E+10	1	-1E+10	1	-1E+10	1
4901784	9	C	10/03/2015	10:45	-129.527	46.704	0	489.90	0	4.9560	0	34.0560	0	26.936	0	485.272	0	35.5	4	11.5	4	-1E+10	1	-1E+10	1	-1E+10	1	-1E+10	1	-1E+10	1	-1E+10	1
4901784	9	C	10/03/2015	10:45	-129.527	46.704	0	492.70	0	4.9480	0	34.0580	0	26.939	0	488.043	0	34.8	4	11.2	4	-1E+10	1	-1E+10	1	-1E+10	1	-1E+10	1	-1E+10	1	-1E+10	1
4901784	9	C	10/03/2015	10:45	-129.527	46.704	0	494.50	0	4.9340	0	34.0600	0	26.942	0	489.823	0	34.4	4	11.1	4	-1E+10	1	-1E+10	1	-1E+10	1	-1E+10	1	-1E+10	1	-1E+10	1
4901784	9	C	10/03/2015	10:45	-129.527	46.704	0	497.40	0	4.9160	0	34.0630	0	26.946	0	492.693	0	33.5	4	10.8	4	-1E+10	1	-1E+10	1	-1E+10	1	-1E+10	1	-1E+10	1	-1E+10	1
4901784	9	C	10/03/2015	10:45	-129.527	46.704	0	500.20	0	4.9380	0	34.0690	0	26.949	0	495.463	0	32.5	4	10.5	4	-1E+10	1	-1E+10	1	-1E+10	1	-1E+10	1	-1E+10	1	-1E+10	1
4901784	9	C	10/03/2015	10:45	-129.527	46.704	0	504.90	0	4.9290	0	34.0720	0	26.952	0	500.113	0	31.7	4	10.2	4	-1E+10	1	-1E+10	1	-1E+10	1	-1E+10	1	-1E+10	1	-1E+10	1
4901784	9	C	10/03/2015	10:45	-129.527	46.704	0	509.60	0	4.9080	0	34.0760	0	26.958	0	504.762	0	30.6	4	9.9	4	-1E+10	1	-1E+10	1	-1E+10	1	-1E+10	1	-1E+10	1	-1E+10	1
4901784	9	C	10/03/2015	10:45	-129.527	46.704	0	515.30	0	4.8940	0	34.0830	0	26.965	0	510.401	0	29.3	4	9.4	4	-1E+10	1	-1E+10	1	-1E+10	1	-1E+10	1	-1E+10	1	-1E+10	1
4901784	9	C	10/03/2015	10:45	-129.527	46.704	0	520.60	0	4.8610	0	34.0890	0	26.973	0	515.644	0	28.3	4	9.1	4	-1E+10	1	-1E+10	1	-1E+10	1	-1E+10	1	-1E+10	1	-1E+10	1
4901784	9	C	10/03/2015	10:45	-129.527	46.704	0	525.50	0	4.8280	0	34.0920	0	26.980	0	520.491	0	27.9	4	9.0	4	-1E+10	1	-1E+10	1	-1E+10	1	-1E+10	1	-1E+10	1	-1E+10	1
4901784	9	C	10/03/2015	10:45	-129.527	46.704	0	530.40	0	4.8000	0	34.0950	0	26.985	0	525.339	0	27.5	4	8.9	4	-1E+10	1	-1E+10	1	-1E+10	1	-1E+10	1	-1E+10	1	-1E+10	1
4901784	9	C	10/03/2015	10:45	-129.527	46.704	0	535.40	0	4.7840	0	34.0970	0	26.989	0	530.285	0	26.9	4	8.7	4	-1E+10	1	-1E+10	1	-1E+10	1	-1E+10	1	-1E+10	1	-1E+10	1
4901784	9	C	10/03/2015	10:45	-129.527	46.704	0	540.30	0	4.7830	0	34.1010	0	26.992	0	535.131	0	26.3	4	8.5	4	-1E+10	1	-1E+10	1	-1E+10	1	-1E+10	1	-1E+10	1	-1E+10	1
4901784	9	C	10/03/2015	10:45	-129.527	46.704	0	545.20	0	4.7640	0	34.1030	0	26.996	0	539.978	0	26.3	4	8.5	4	-1E+10	1	-1E+10	1	-1E+10	1	-1E+10	1	-1E+10	1	-1E+10	1
4901784	9	C	10/03/2015	10:45	-129.527	46.704	0	550.20	0	4.7260	0	34.1020	0	26.999	0	544.924	0	26.4	4	8.5	4	-1E+10	1	-1E+10	1	-1E+10	1	-1E+10	1	-1E+10	1	-1E+10	1
4901784	9	C	10/03/2015	10:45	-129.527	46.704	0	555.20	0	4.7020	0	34.1030	0	27.003	0	549.869	0	26.1	4	8.4	4	-1E+10	1	-1E+10	1	-1E+10	1	-1E+10	1	-1E+10	1	-1E+10	1
4901784	9	C	10/03/2015	10:45	-129.527	46.704	0	560.20	0	4.6910	0	34.1050	0	27.005	0	554.814	0	25.5	4	8.2	4	-1E+10	1	-1E+10	1	-1E+10	1	-1E+10	1	-1E+10	1	-1E+10	1
4901784	9	C	10/03/2015	10:45	-129.527	46.704	0	565.20	0	4.6640	0	34.1090	0	27.012	0	559.760	0	24.6	4	7.9	4	-1E+10	1	-1E+10	1	-1E+10	1	-1E+10	1	-1E+10	1	-1E+10	1
4901784	9	C	10/03/2015	10:45	-129.527	46.704	0	570.20	0	4.6580	0	34.1150	0	27.017	0	564.705	0	23.6	4	7.6	4	-1E+10	1	-1E+10	1	-1E+10	1	-1E+10	1	-1E+10	1	-1E+10	1
4901784	9	C	10/03/2015	10:45	-129.527	46.704	0	575.30	0	4.6630	0	34.1220	0	27.022	0	569.749	0	22.7	4	7.3	4	-1E+10	1	-1E+10	1	-1E+10	1	-1E+10	1	-1E+10	1	-1E+10	1
4901784	9	C	10/03/2015	10:45	-129.527	46.704	0	580.40	0	4.6450	0	34.1250	0	27.026	0	574.792	0	22.1	4	7.1	4	-1E+10	1	-1E+10	1	-1E+10	1	-1E+10	1	-1E+10	1	-1E+10	1
4901784	9	C	10/03/2015	10:45	-129.527	46.704	0	585.40	0	4.6400	0	34.1310	0	27.032	0	579.737	0	21.3	4	6.8	4	-1E+10	1	-1E+10	1	-1E+10	1	-1E+10	1	-1E+10	1	-1E+10	1
4901784	9	C	10/03/2015	10:45	-129.527	46.704	0	590.40	0	4.6350	0	34.1370	0	27.037	0	584.682	0	20.6	4	6.6	4	-1E+10	1	-1E+10	1	-1E+10	1	-1E+10	1	-1E+10	1	-1E+10	1
4901784	9	C	10/03/2015	10:45	-129.527	46.704	0	595.40	0	4.6350	0	34.1410	0	27.040	0	589.626	0	20.2	4	6.5	4	-1E+10	1	-1E+10	1	-1E+10	1	-1E+10	1	-1E+10	1	-1E+10	1
4901784	9	C	10/03/2015	10:45	-129.527	46.704	0	600.50	0	4.6240	0	34.1420	0	27.042	0	594.669	0	19.8	4	6.3	4	-1E+10	1	-1E+10	1	-1E+10	1	-1E+10	1	-1E+10	1	-1E+10	1
4901784	9	C	10/03/2015	10:45	-129.527	46.704	0	605.60	0	4.6180	0	34.1470	0	27.047	0	599.713	0	19.1	4	6.1	4	-1E+10	1	-1E+10	1	-1E+10	1	-1E+10	1	-1E+10	1	-1E+10	1
4901784	9	C	10/03/2015	10:45	-129.527	46.704	0	610.70	0	4.5930	0	34.1520	0	27.054	0	604.756	0	18.5	4	5.9	4	-1E+10	1	-1E+10	1	-1E+10	1	-1E+10	1	-1E+10	1	-1E+10	1
4901784	9	C	10/03/2015	10:45	-129.527	46.704	0	614.90	0	4.5700	0	34.1580	0	27.061	0	608.909	0	18.1	4	5.8	4	-1E+10	1	-1E+10	1	-1E+10	1	-1E+10	1	-1E+10	1	-1E+10	1
4901784	9	C	10/03/2015	10:45	-129.527	46.704	0	619.20	0	4.5620	0	34.1610	0	27.064	0	613.160	0	17.8	4	5.7	4	-1E+10	1	-1E+10	1	-1E+10	1	-1E+10	1	-1E+10	1	-1E+10	1
4901784	9	C	10/03/2015	10:45	-129.527	46.704	0	624.30	0	4.5540	0	34.1640	0	27.068	0	618.203	0	17.4	4	5.6	4	-1E+10	1	-1E+10	1	-1E+10	1	-1E+10	1	-1E+10	1	-1E+10	1
4901784	9	C	10/03/2015	10:45	-129.527	46.704	0	629.50	0	4.5410	0	34.1680	0	27.072	0	623.345	0	17.0	4	5.4	4	-1E+10	1	-1E+10	1	-1E+10	1	-1E+10	1	-1E+10	1	-1E+10	1
4901784	9	C	10/03/2015	10:45	-129.527	46.704	0	634.50	0	4.5250	0	34.1720	0	27.077	0	628.288	0	16.6	4	5.3	4	-1E+10	1	-1E+10	1	-1E+10	1	-1E+10	1	-1E+10	1	-1E+10	1
4901784	9	C	10/03/2015	10:45	-129.527	46.704	0	639.50	0	4.5080	0	34.1760	0	27.082	0	633.232	0	16.2	4	5.2	4	-1E+10	1	-1E+10	1	-1E+10	1	-1E+10	1	-1E+10	1	-1E+10	1
4901784	9	C	10/03/2015	10:45	-129.527	46.704	0	644.60	0	4.4940	0	34.1810	0	27.088	0	638.274	0	15.8	4	5.1	4	-1E+10	1	-1E+10	1	-1E+10	1	-1E+10	1	-1E+10	1	-1E+10	1
4901784	9	C	10/03/2015	10:45	-129.527	46.704	0	649.70	0	4.4730	0	34.1870	0	27.095	0	643.316	0	15.5	4	4.9	4	-1E+10	1	-1E+10	1	-1E+10	1	-1E+10	1	-1E+10	1	-1E+10	1
4901784	9	C	10/03/2015	10:45	-129.527	46.704	0	654.70	0	4.4620	0	34.1890	0	27.098	0	648.259	0	15.3	4	4.9	4	-1E+10	1	-1E+10	1	-1E+10	1	-1E+10	1	-1E+10	1	-1E+10	1
4901784	9	C	10/03/2015	10:45	-129.527	46.704	0	659.90	0	4.4470	0	34.1920	0	27.102	0	653.400	0	15.0	4	4.8	4	-1E+10	1	-1E+10	1	-1E+10	1	-1E+10	1	-1E+10	1	-1E+10	1
4901784	9	C	10/03/2015	10:45	-129.527	46.704	0	665.10	0	4.4230	0	34.1970	0	27.108	0	658.540	0	14.9	4	4.7	4	-1E+10	1	-1E+10	1	-1E+10	1	-1E+10	1	-1E+10	1	-1E+10	1
4901784	9	C	10/03/2015	10:45	-129.527	46.704	0	670.30	0	4.4050	0	34.1980	0	27.111	0	663.681	0	14.8	4	4.7	4	-1E+10	1	-1E+10	1	-1E+10	1	-1E+10	1	-1E+10	1	-1E+10	1
4901784	9	C	10/03/2015	10:45	-129.527	46.704	0	675.50	0	4.3690	0	34.2000	0	27.117	0	668.821	0	14.7	4	4.7	4	-1E+10	1	-1E+10	1	-1E+10	1	-1E+10	1	-1E+10	1	-1E+10	1
4901784	9	C	10/03/2015	10:45	-129.527	46.704	0	680.60	0	4.3490	0	34.2050	0	27.123	0	673.862	0	14.4	4	4.6	4	-1E+10	1	-1E+10	1	-1E+10	1	-1E+10	1	-1E+10	1	-1E+10	1
4901784	9	C	10/03/2015	10:45	-129.527	46.704	0	685.80	0	4.3150	0	34.2060	0	27.127	0	679.002	0	14.2	4	4.5	4	-1E+10	1	-1E+10	1	-1E+10	1	-1E+10	1	-1E+10	1	-1E+10	1
4901784	9	C	10/03/2015	10:45	-129.527	46.704	0	690.10	0	4.3020	0	34.2140	0	27.135	0	683.253	0	13.8	4	4.4	4	-1E+10	1	-1E+10	1	-1E+10	1	-1E+10	1	-1E+10	1	-1E+10	1
4901784	9	C	10/03/2015	10:45	-129.527	46.704	0	694.40	0	4.3050	0	34.2180	0	27.138	0	687.503	0	13.7	4	4.3	4	-1E+10	1	-1E+10	1	-1E+10	1	-1E+10	1	-1E+10	1	-1E+10	1
4901784	9	C	10/03/2015	10:45	-129.527	46.704	0	699.60	0	4.2950	0	34.2190	0	27.140	0	692.643	0	13.7	4	4.4	4	-1E+10	1	-1E+10	1	-1E+10	1	-1E+10	1	-1E+10	1	-1E+10	1
4901784	9	C	10/03/2015	10:45	-129.527	46.704	0	704.90	0	4.2410	0	34.2210	0	27.147	0	697.881	0	13.8	4	4.4	4	-1E+10	1	-1E+10	1	-1E+10	1	-1E+10	1	-1E+10	1	-1E+10	1
4901784	9	C	10/03/2015	10:45	-129.527	46.704	0	710.20	0	4.2040	0	34.2220	0	27.152	0	703.119	0	13.9	4	4.4	4	-1E+10	1	-1E+10	1	-1E+10	1	-1E+10	1	-1E+10	1	-1E+10	1
4901784	9	C	10/03/2015	10:45	-129.527	46.704	0	715.50	0	4.1700	0	34.2230	0	27.156	0	708.357	0	13.8	4	4.4	4	-1E+10	1	-1E+10	1	-1E+10	1	-1E+10	1	-1E+10	1	-1E+10	1
4901784	9	C	10/03/2015	10:45	-129.527	46.704	0	720.00	0	4.1710	0	34.2300	0	27.162	0	712.805	0	13.7	4	4.3	4	-1E+10	1	-1E+10	1	-1E+10	1	-1E+10	1	-1E+10	1	-1E+10	1
4901784	9	C	10/03/2015	10:45	-129.527	46.704	0	724.40	0	4.1220	0	34.2290	0	27.166	0	717.153	0	13.7	4	4.3	4	-1E+10	1	-1E+10	1	-1E+10	1	-1E+10	1	-1E+10	1	-1E+10	1
4901784	9	C	10/03/2015	10:45	-129.527	46.704	0	729.80	0	4.1080	0	34.2340	0	27.171	0	722.490	0	13.4	4	4.2	4	-1E+10	1	-1E+10	1	-1E+10	1	-1E+10	1	-1E+10	1	-1E+10	1
4901784	9	C	10/03/2015	10:45	-129.527	46.704	0	735.20	0	4.1070	0	34.2400	0	27.176	0	727.826	0	13.1	4	4.1	4	-1E+10	1	-1E+10	1	-1E+10	1	-1E+10	1	-1E+10	1	-1E+10	1
4901784	9	C	10/03/2015	10:45	-129.527	46.704	0	739.80	0	4.0940	0	34.2440	0	27.181	0	732.372	0	13.0	4	4.1	4	-1E+10	1	-1E+10	1	-1E+10	1	-1E+10	1	-1E+10	1	-1E+10	1
4901784	9	C	10/03/2015	10:45	-129.527	46.704	0	744.50	0	4.1020	0	34.2490	0	27.184	0	737.017	0	12.8	4	4.0	4	-1E+10	1	-1E+10	1	-1E+10	1	-1E+10	1	-1E+10	1	-1E+10	1
4901784	9	C	10/03/2015	10:45	-129.527	46.704	0	749.80	0	4.0490	0	34.2490	0	27.189	0	742.254	0	12.9	4	4.1	4	-1E+10	1	-1E+10	1	-1E+10	1	-1E+10	1	-1E+10	1	-1E+10	1
4901784	9	C	10/03/2015	10:45	-129.527	46.704	0	755.00	0	4.0420	0	34.2520	0	27.193	0	747.392	0	12.8	4	4.1	4	-1E+10	1	-1E+10	1	-1E+10	1	-1E+10	1	-1E+10	1	-1E+10	1
4901784	9	C	10/03/2015	10:45	-129.527	46.704	0	760.70	0	4.0100	0	34.2540	0	27.198	0	753.025	0	12.9	4	4.1	4	-1E+10	1	-1E+10	1	-1E+10	1	-1E+10	1	-1E+10	1	-1E+10	1
4901784	9	C	10/03/2015	10:45	-129.527	46.704	0	765.70	0	3.9500	0	34.2510	0	27.201	0	757.965	0	13.1	4	4.1	4	-1E+10	1	-1E+10	1	-1E+10	1	-1E+10	1	-1E+10	1	-1E+10	1
4901784	9	C	10/03/2015	10:45	-129.527	46.704	0	770.70	0	3.9280	0	34.2500	0	27.203	0	762.906	0	13.1	4	4.1	4	-1E+10	1	-1E+10	1	-1E+10	1	-1E+10	1	-1E+10	1	-1E+10	1
4901784	9	C	10/03/2015	10:45	-129.527	46.704	0	775.00	0	3.8980	0	34.2500	0	27.206	0	767.154	0	13.1	4	4.1	4	-1E+10	1	-1E+10	1	-1E+10	1	-1E+10	1	-1E+10	1	-1E+10	1
4901784	9	C	10/03/2015	10:45	-129.527	46.704	0	779.30	0	3.8850	0	34.2510	0	27.208	0	771.403	0	13.0	4	4.1	4	-1E+10	1	-1E+10	1	-1E+10	1	-1E+10	1	-1E+10	1	-1E+10	1
4901784	9	C	10/03/2015	10:45	-129.527	46.704	0	784.40	0	3.8610	0	34.2550	0	27.214	0	776.442	0	13.0	4	4.1	4	-1E+10	1	-1E+10	1	-1E+10	1	-1E+10	1	-1E+10	1	-1E+10	1
4901784	9	C	10/03/2015	10:45	-129.527	46.704	0	789.60	0	3.8490	0	34.2570	0	27.216	0	781.579	0	12.9	4	4.1	4	-1E+10	1	-1E+10	1	-1E+10	1	-1E+10	1	-1E+10	1	-1E+10	1
4901784	9	C	10/03/2015	10:45	-129.527	46.704	0	794.80	0	3.8340	0	34.2600	0	27.220	0	786.716	0	12.9	4	4.0	4	-1E+10	1	-1E+10	1	-1E+10	1	-1E+10	1	-1E+10	1	-1E+10	1
4901784	9	C	10/03/2015	10:45	-129.527	46.704	0	799.90	0	3.8280	0	34.2600	0	27.221	0	791.755	0	12.9	4	4.0	4	-1E+10	1	-1E+10	1	-1E+10	1	-1E+10	1	-1E+10	1	-1E+10	1
4901784	9	C	10/03/2015	10:45	-129.527	46.704	0	805.30	0	3.8120	0	34.2620	0	27.224	0	797.090	0	12.9	4	4.1	4	-1E+10	1	-1E+10	1	-1E+10	1	-1E+10	1	-1E+10	1	-1E+10	1
4901784	9	C	10/03/2015	10:45	-129.527	46.704	0	810.60	0	3.8040	0	34.2630	0	27.226	0	802.325	0	12.9	4	4.1	4	-1E+10	1	-1E+10	1	-1E+10	1	-1E+10	1	-1E+10	1	-1E+10	1
4901784	9	C	10/03/2015	10:45	-129.527	46.704	0	815.10	0	3.7890	0	34.2640	0	27.228	0	806.771	0	12.9	4	4.1	4	-1E+10	1	-1E+10	1	-1E+10	1	-1E+10	1	-1E+10	1	-1E+10	1
4901784	9	C	10/03/2015	10:45	-129.527	46.704	0	819.70	0	3.7740	0	34.2650	0	27.230	0	811.315	0	13.0	4	4.1	4	-1E+10	1	-1E+10	1	-1E+10	1	-1E+10	1	-1E+10	1	-1E+10	1
4901784	9	C	10/03/2015	10:45	-129.527	46.704	0	825.10	0	3.7460	0	34.2670	0	27.235	0	816.649	0	13.0	4	4.1	4	-1E+10	1	-1E+10	1	-1E+10	1	-1E+10	1	-1E+10	1	-1E+10	1
4901784	9	C	10/03/2015	10:45	-129.527	46.704	0	829.80	0	3.7250	0	34.2690	0	27.239	0	821.292	0	13.1	4	4.1	4	-1E+10	1	-1E+10	1	-1E+10	1	-1E+10	1	-1E+10	1	-1E+10	1
4901784	9	C	10/03/2015	10:45	-129.527	46.704	0	834.40	0	3.7030	0	34.2710	0	27.242	0	825.835	0	13.1	4	4.1	4	-1E+10	1	-1E+10	1	-1E+10	1	-1E+10	1	-1E+10	1	-1E+10	1
4901784	9	C	10/03/2015	10:45	-129.527	46.704	0	839.90	0	3.6850	0	34.2740	0	27.246	0	831.268	0	13.1	4	4.1	4	-1E+10	1	-1E+10	1	-1E+10	1	-1E+10	1	-1E+10	1	-1E+10	1
4901784	9	C	10/03/2015	10:45	-129.527	46.704	0	845.50	0	3.6550	0	34.2760	0	27.251	0	836.799	0	13.1	4	4.1	4	-1E+10	1	-1E+10	1	-1E+10	1	-1E+10	1	-1E+10	1	-1E+10	1
4901784	9	C	10/03/2015	10:45	-129.527	46.704	0	850.10	0	3.6470	0	34.2780	0	27.253	0	841.343	0	13.1	4	4.1	4	-1E+10	1	-1E+10	1	-1E+10	1	-1E+10	1	-1E+10	1	-1E+10	1
4901784	9	C	10/03/2015	10:45	-129.527	46.704	0	855.50	0	3.6400	0	34.2800	0	27.256	0	846.676	0	13.1	4	4.1	4	-1E+10	1	-1E+10	1	-1E+10	1	-1E+10	1	-1E+10	1	-1E+10	1
4901784	9	C	10/03/2015	10:45	-129.527	46.704	0	860.60	0	3.6330	0	34.2800	0	27.257	0	851.713	0	13.1	4	4.1	4	-1E+10	1	-1E+10	1	-1E+10	1	-1E+10	1	-1E+10	1	-1E+10	1
4901784	9	C	10/03/2015	10:45	-129.527	46.704	0	865.30	0	3.6240	0	34.2820	0	27.259	0	856.355	0	13.1	4	4.1	4	-1E+10	1	-1E+10	1	-1E+10	1	-1E+10	1	-1E+10	1	-1E+10	1
4901784	9	C	10/03/2015	10:45	-129.527	46.704	0	870.10	0	3.6090	0	34.2840	0	27.262	0	861.095	0	13.1	4	4.1	4	-1E+10	1	-1E+10	1	-1E+10	1	-1E+10	1	-1E+10	1	-1E+10	1
4901784	9	C	10/03/2015	10:45	-129.527	46.704	0	874.90	0	3.5920	0	34.2850	0	27.265	0	865.836	0	13.2	4	4.1	4	-1E+10	1	-1E+10	1	-1E+10	1	-1E+10	1	-1E+10	1	-1E+10	1
4901784	9	C	10/03/2015	10:45	-129.527	46.704	0	879.80	0	3.5840	0	34.2860	0	27.266	0	870.675	0	13.2	4	4.1	4	-1E+10	1	-1E+10	1	-1E+10	1	-1E+10	1	-1E+10	1	-1E+10	1
4901784	9	C	10/03/2015	10:45	-129.527	46.704	0	884.60	0	3.5760	0	34.2860	0	27.267	0	875.415	0	13.2	4	4.1	4	-1E+10	1	-1E+10	1	-1E+10	1	-1E+10	1	-1E+10	1	-1E+10	1
4901784	9	C	10/03/2015	10:45	-129.527	46.704	0	889.60	0	3.5570	0	34.2880	0	27.270	0	880.353	0	13.2	4	4.1	4	-1E+10	1	-1E+10	1	-1E+10	1	-1E+10	1	-1E+10	1	-1E+10	1
4901784	9	C	10/03/2015	10:45	-129.527	46.704	0	894.60	0	3.5430	0	34.2900	0	27.273	0	885.290	0	13.3	4	4.1	4	-1E+10	1	-1E+10	1	-1E+10	1	-1E+10	1	-1E+10	1	-1E+10	1
4901784	9	C	10/03/2015	10:45	-129.527	46.704	0	899.60	0	3.5200	0	34.2910	0	27.276	0	890.227	0	13.4	4	4.2	4	-1E+10	1	-1E+10	1	-1E+10	1	-1E+10	1	-1E+10	1	-1E+10	1
4901784	9	C	10/03/2015	10:45	-129.527	46.704	0	904.70	0	3.5040	0	34.2920	0	27.279	0	895.263	0	13.4	4	4.2	4	-1E+10	1	-1E+10	1	-1E+10	1	-1E+10	1	-1E+10	1	-1E+10	1
4901784	9	C	10/03/2015	10:45	-129.527	46.704	0	909.70	0	3.4980	0	34.2930	0	27.280	0	900.201	0	13.4	4	4.2	4	-1E+10	1	-1E+10	1	-1E+10	1	-1E+10	1	-1E+10	1	-1E+10	1
4901784	9	C	10/03/2015	10:45	-129.527	46.704	0	914.90	0	3.4920	0	34.2920	0	27.280	0	905.335	0	13.5	4	4.2	4	-1E+10	1	-1E+10	1	-1E+10	1	-1E+10	1	-1E+10	1	-1E+10	1
4901784	9	C	10/03/2015	10:45	-129.527	46.704	0	920.00	0	3.4690	0	34.2950	0	27.285	0	910.371	0	13.4	4	4.2	4	-1E+10	1	-1E+10	1	-1E+10	1	-1E+10	1	-1E+10	1	-1E+10	1
4901784	9	C	10/03/2015	10:45	-129.527	46.704	0	925.20	0	3.4570	0	34.2980	0	27.288	0	915.505	0	13.3	4	4.1	4	-1E+10	1	-1E+10	1	-1E+10	1	-1E+10	1	-1E+10	1	-1E+10	1
4901784	9	C	10/03/2015	10:45	-129.527	46.704	0	930.30	0	3.4520	0	34.3000	0	27.290	0	920.540	0	13.2	4	4.1	4	-1E+10	1	-1E+10	1	-1E+10	1	-1E+10	1	-1E+10	1	-1E+10	1
4901784	9	C	10/03/2015	10:45	-129.527	46.704	0	935.30	0	3.4450	0	34.3050	0	27.295	0	925.477	0	13.0	4	4.0	4	-1E+10	1	-1E+10	1	-1E+10	1	-1E+10	1	-1E+10	1	-1E+10	1
4901784	9	C	10/03/2015	10:45	-129.527	46.704	0	940.40	0	3.4430	0	34.3090	0	27.298	0	930.512	0	12.9	4	4.0	4	-1E+10	1	-1E+10	1	-1E+10	1	-1E+10	1	-1E+10	1	-1E+10	1
4901784	9	C	10/03/2015	10:45	-129.527	46.704	0	945.40	0	3.4400	0	34.3110	0	27.300	0	935.448	0	12.8	4	4.0	4	-1E+10	1	-1E+10	1	-1E+10	1	-1E+10	1	-1E+10	1	-1E+10	1
4901784	9	C	10/03/2015	10:45	-129.527	46.704	0	950.40	0	3.4300	0	34.3140	0	27.304	0	940.384	0	12.7	4	4.0	4	-1E+10	1	-1E+10	1	-1E+10	1	-1E+10	1	-1E+10	1	-1E+10	1
4901784	9	C	10/03/2015	10:45	-129.527	46.704	0	955.40	0	3.4190	0	34.3160	0	27.306	0	945.320	0	12.7	4	3.9	4	-1E+10	1	-1E+10	1	-1E+10	1	-1E+10	1	-1E+10	1	-1E+10	1
4901784	9	C	10/03/2015	10:45	-129.527	46.704	0	960.40	0	3.4110	0	34.3180	0	27.309	0	950.256	0	12.6	4	3.9	4	-1E+10	1	-1E+10	1	-1E+10	1	-1E+10	1	-1E+10	1	-1E+10	1
4901784	9	C	10/03/2015	10:45	-129.527	46.704	0	965.50	0	3.3990	0	34.3200	0	27.312	0	955.291	0	12.6	4	3.9	4	-1E+10	1	-1E+10	1	-1E+10	1	-1E+10	1	-1E+10	1	-1E+10	1
4901784	9	C	10/03/2015	10:45	-129.527	46.704	0	970.50	0	3.3980	0	34.3210	0	27.312	0	960.226	0	12.5	4	3.9	4	-1E+10	1	-1E+10	1	-1E+10	1	-1E+10	1	-1E+10	1	-1E+10	1
4901784	9	C	10/03/2015	10:45	-129.527	46.704	0	975.40	0	3.3880	0	34.3250	0	27.317	0	965.063	0	12.4	4	3.9	4	-1E+10	1	-1E+10	1	-1E+10	1	-1E+10	1	-1E+10	1	-1E+10	1
4901784	9	C	10/03/2015	10:45	-129.527	46.704	0	980.40	0	3.3800	0	34.3270	0	27.319	0	969.999	0	12.4	4	3.9	4	-1E+10	1	-1E+10	1	-1E+10	1	-1E+10	1	-1E+10	1	-1E+10	1
4901784	9	C	10/03/2015	10:45	-129.527	46.704	0	985.40	0	3.3730	0	34.3290	0	27.321	0	974.934	0	12.3	4	3.8	4	-1E+10	1	-1E+10	1	-1E+10	1	-1E+10	1	-1E+10	1	-1E+10	1
4901784	9	C	10/03/2015	10:45	-129.527	46.704	0	990.50	0	3.3640	0	34.3320	0	27.325	0	979.968	0	12.2	4	3.8	4	-1E+10	1	-1E+10	1	-1E+10	1	-1E+10	1	-1E+10	1	-1E+10	1
4901784	9	C	10/03/2015	10:45	-129.527	46.704	0	995.50	0	3.3550	0	34.3360	0	27.329	0	984.903	0	12.2	4	3.8	4	-1E+10	1	-1E+10	1	-1E+10	1	-1E+10	1	-1E+10	1	-1E+10	1
4901784	9	C	10/03/2015	10:45	-129.527	46.704	0	1000.50	0	3.3440	0	34.3390	0	27.332	0	989.838	0	12.2	4	3.8	4	-1E+10	1	-1E+10	1	-1E+10	1	-1E+10	1	-1E+10	1	-1E+10	1
4901784	9	C	10/03/2015	10:45	-129.527	46.704	0	1005.50	0	3.3350	0	34.3410	0	27.335	0	994.773	0	12.1	4	3.8	4	-1E+10	1	-1E+10	1	-1E+10	1	-1E+10	1	-1E+10	1	-1E+10	1
4901784	9	C	10/03/2015	10:45	-129.527	46.704	0	1010.60	0	3.3260	0	34.3430	0	27.337	0	999.806	0	12.1	4	3.8	4	-1E+10	1	-1E+10	1	-1E+10	1	-1E+10	1	-1E+10	1	-1E+10	1
4901784	9	C	10/03/2015	10:45	-129.527	46.704	0	1015.60	0	3.3200	0	34.3440	0	27.338	0	1004.741	0	12.1	4	3.8	4	-1E+10	1	-1E+10	1	-1E+10	1	-1E+10	1	-1E+10	1	-1E+10	1
4901784	9	C	10/03/2015	10:45	-129.527	46.704	0	1020.60	0	3.3080	0	34.3470	0	27.342	0	1009.675	0	12.1	4	3.8	4	-1E+10	1	-1E+10	1	-1E+10	1	-1E+10	1	-1E+10	1	-1E+10	1
4901784	9	C	10/03/2015	10:45	-129.527	46.704	0	1025.70	0	3.2880	0	34.3510	0	27.347	0	1014.708	0	12.1	4	3.8	4	-1E+10	1	-1E+10	1	-1E+10	1	-1E+10	1	-1E+10	1	-1E+10	1
4901784	9	C	10/03/2015	10:45	-129.527	46.704	0	1030.80	0	3.2750	0	34.3540	0	27.351	0	1019.741	0	12.1	4	3.8	4	-1E+10	1	-1E+10	1	-1E+10	1	-1E+10	1	-1E+10	1	-1E+10	1
4901784	9	C	10/03/2015	10:45	-129.527	46.704	0	1035.00	0	3.2680	0	34.3570	0	27.354	0	1023.886	0	12.1	4	3.8	4	-1E+10	1	-1E+10	1	-1E+10	1	-1E+10	1	-1E+10	1	-1E+10	1
4901784	9	C	10/03/2015	10:45	-129.527	46.704	0	1039.20	0	3.2570	0	34.3590	0	27.356	0	1028.031	0	12.1	4	3.8	4	-1E+10	1	-1E+10	1	-1E+10	1	-1E+10	1	-1E+10	1	-1E+10	1
4901784	9	C	10/03/2015	10:45	-129.527	46.704	0	1044.30	0	3.2500	0	34.3610	0	27.359	0	1033.063	0	12.1	4	3.8	4	-1E+10	1	-1E+10	1	-1E+10	1	-1E+10	1	-1E+10	1	-1E+10	1
4901784	9	C	10/03/2015	10:45	-129.527	46.704	0	1049.40	0	3.2280	0	34.3620	0	27.362	0	1038.096	0	12.2	4	3.8	4	-1E+10	1	-1E+10	1	-1E+10	1	-1E+10	1	-1E+10	1	-1E+10	1
4901784	9	C	10/03/2015	10:45	-129.527	46.704	0	1054.50	0	3.2190	0	34.3630	0	27.363	0	1043.128	0	12.2	4	3.8	4	-1E+10	1	-1E+10	1	-1E+10	1	-1E+10	1	-1E+10	1	-1E+10	1
4901784	9	C	10/03/2015	10:45	-129.527	46.704	0	1059.60	0	3.2030	0	34.3650	0	27.366	0	1048.160	0	12.2	4	3.8	4	-1E+10	1	-1E+10	1	-1E+10	1	-1E+10	1	-1E+10	1	-1E+10	1
4901784	9	C	10/03/2015	10:45	-129.527	46.704	0	1064.80	0	3.1830	0	34.3710	0	27.373	0	1053.291	0	12.3	4	3.8	4	-1E+10	1	-1E+10	1	-1E+10	1	-1E+10	1	-1E+10	1	-1E+10	1
4901784	9	C	10/03/2015	10:45	-129.527	46.704	0	1070.00	0	3.1760	0	34.3730	0	27.375	0	1058.422	0	12.3	4	3.8	4	-1E+10	1	-1E+10	1	-1E+10	1	-1E+10	1	-1E+10	1	-1E+10	1
4901784	9	C	10/03/2015	10:45	-129.527	46.704	0	1075.10	0	3.1740	0	34.3740	0	27.376	0	1063.454	0	12.3	4	3.8	4	-1E+10	1	-1E+10	1	-1E+10	1	-1E+10	1	-1E+10	1	-1E+10	1
4901784	9	C	10/03/2015	10:45	-129.527	46.704	0	1080.30	0	3.1670	0	34.3760	0	27.379	0	1068.584	0	12.3	4	3.8	4	-1E+10	1	-1E+10	1	-1E+10	1	-1E+10	1	-1E+10	1	-1E+10	1
4901784	9	C	10/03/2015	10:45	-129.527	46.704	0	1085.50	0	3.1570	0	34.3810	0	27.384	0	1073.715	0	12.3	4	3.8	4	-1E+10	1	-1E+10	1	-1E+10	1	-1E+10	1	-1E+10	1	-1E+10	1
4901784	9	C	10/03/2015	10:45	-129.527	46.704	0	1089.90	0	3.1530	0	34.3850	0	27.387	0	1078.055	0	12.4	4	3.8	4	-1E+10	1	-1E+10	1	-1E+10	1	-1E+10	1	-1E+10	1	-1E+10	1
4901784	9	C	10/03/2015	10:45	-129.527	46.704	0	1094.40	0	3.1520	0	34.3870	0	27.389	0	1082.495	0	12.4	4	3.8	4	-1E+10	1	-1E+10	1	-1E+10	1	-1E+10	1	-1E+10	1	-1E+10	1
4901784	9	C	10/03/2015	10:45	-129.527	46.704	0	1099.70	0	3.1470	0	34.3880	0	27.390	0	1087.724	0	12.4	4	3.9	4	-1E+10	1	-1E+10	1	-1E+10	1	-1E+10	1	-1E+10	1	-1E+10	1
4901784	9	C	10/03/2015	10:45	-129.527	46.704	0	1105.10	0	3.1350	0	34.3920	0	27.394	0	1093.051	0	12.5	4	3.9	4	-1E+10	1	-1E+10	1	-1E+10	1	-1E+10	1	-1E+10	1	-1E+10	1
4901784	9	C	10/03/2015	10:45	-129.527	46.704	0	1110.50	0	3.1220	0	34.3930	0	27.397	0	1098.378	0	12.5	4	3.9	4	-1E+10	1	-1E+10	1	-1E+10	1	-1E+10	1	-1E+10	1	-1E+10	1
4901784	9	C	10/03/2015	10:45	-129.527	46.704	0	1115.00	0	3.1120	0	34.3940	0	27.398	0	1102.817	0	12.6	4	3.9	4	-1E+10	1	-1E+10	1	-1E+10	1	-1E+10	1	-1E+10	1	-1E+10	1
4901784	9	C	10/03/2015	10:45	-129.527	46.704	0	1120.30	0	3.1070	0	34.3940	0	27.399	0	1108.045	0	12.6	4	3.9	4	-1E+10	1	-1E+10	1	-1E+10	1	-1E+10	1	-1E+10	1	-1E+10	1
4901784	9	C	10/03/2015	10:45	-129.527	46.704	0	1125.30	0	3.1000	0	34.3940	0	27.399	0	1112.977	0	12.6	4	3.9	4	-1E+10	1	-1E+10	1	-1E+10	1	-1E+10	1	-1E+10	1	-1E+10	1
4901784	9	C	10/03/2015	10:45	-129.527	46.704	0	1130.20	0	3.0960	0	34.3950	0	27.401	0	1117.810	0	12.7	4	3.9	4	-1E+10	1	-1E+10	1	-1E+10	1	-1E+10	1	-1E+10	1	-1E+10	1
4901784	9	C	10/03/2015	10:45	-129.527	46.704	0	1134.90	0	3.0830	0	34.3970	0	27.403	0	1122.446	0	12.7	4	3.9	4	-1E+10	1	-1E+10	1	-1E+10	1	-1E+10	1	-1E+10	1	-1E+10	1
4901784	9	C	10/03/2015	10:45	-129.527	46.704	0	1139.80	0	3.0800	0	34.3990	0	27.405	0	1127.279	0	12.8	4	3.9	4	-1E+10	1	-1E+10	1	-1E+10	1	-1E+10	1	-1E+10	1	-1E+10	1
4901784	9	C	10/03/2015	10:45	-129.527	46.704	0	1144.80	0	3.0740	0	34.4020	0	27.408	0	1132.211	0	12.8	4	4.0	4	-1E+10	1	-1E+10	1	-1E+10	1	-1E+10	1	-1E+10	1	-1E+10	1
4901784	9	C	10/03/2015	10:45	-129.527	46.704	0	1149.80	0	3.0630	0	34.4030	0	27.410	0	1137.142	0	12.9	4	4.0	4	-1E+10	1	-1E+10	1	-1E+10	1	-1E+10	1	-1E+10	1	-1E+10	1
4901784	9	C	10/03/2015	10:45	-129.527	46.704	0	1154.90	0	3.0550	0	34.4050	0	27.412	0	1142.172	0	13.0	4	4.0	4	-1E+10	1	-1E+10	1	-1E+10	1	-1E+10	1	-1E+10	1	-1E+10	1
4901784	9	C	10/03/2015	10:45	-129.527	46.704	0	1160.10	0	3.0550	0	34.4100	0	27.416	0	1147.301	0	13.1	4	4.1	4	-1E+10	1	-1E+10	1	-1E+10	1	-1E+10	1	-1E+10	1	-1E+10	1
4901784	9	C	10/03/2015	10:45	-129.527	46.704	0	1165.20	0	3.0480	0	34.4120	0	27.419	0	1152.331	0	13.2	4	4.1	4	-1E+10	1	-1E+10	1	-1E+10	1	-1E+10	1	-1E+10	1	-1E+10	1
4901784	9	C	10/03/2015	10:45	-129.527	46.704	0	1170.40	0	3.0430	0	34.4140	0	27.421	0	1157.459	0	13.4	4	4.1	4	-1E+10	1	-1E+10	1	-1E+10	1	-1E+10	1	-1E+10	1	-1E+10	1
4901784	9	C	10/03/2015	10:45	-129.527	46.704	0	1174.90	0	3.0360	0	34.4180	0	27.425	0	1161.897	0	13.5	4	4.2	4	-1E+10	1	-1E+10	1	-1E+10	1	-1E+10	1	-1E+10	1	-1E+10	1
4901784	9	C	10/03/2015	10:45	-129.527	46.704	0	1179.30	0	3.0280	0	34.4190	0	27.426	0	1166.236	0	13.6	4	4.2	4	-1E+10	1	-1E+10	1	-1E+10	1	-1E+10	1	-1E+10	1	-1E+10	1
4901784	9	C	10/03/2015	10:45	-129.527	46.704	0	1184.70	0	3.0210	0	34.4220	0	27.429	0	1171.561	0	13.8	4	4.3	4	-1E+10	1	-1E+10	1	-1E+10	1	-1E+10	1	-1E+10	1	-1E+10	1
4901784	9	C	10/03/2015	10:45	-129.527	46.704	0	1190.10	0	3.0010	0	34.4240	0	27.433	0	1176.886	0	13.9	4	4.3	4	-1E+10	1	-1E+10	1	-1E+10	1	-1E+10	1	-1E+10	1	-1E+10	1
4901784	9	C	10/03/2015	10:45	-129.527	46.704	0	1194.80	0	2.9950	0	34.4270	0	27.436	0	1181.521	0	14.0	4	4.3	4	-1E+10	1	-1E+10	1	-1E+10	1	-1E+10	1	-1E+10	1	-1E+10	1
4901784	9	C	10/03/2015	10:45	-129.527	46.704	0	1199.90	0	2.9800	0	34.4270	0	27.437	0	1186.550	0	14.0	4	4.3	4	-1E+10	1	-1E+10	1	-1E+10	1	-1E+10	1	-1E+10	1	-1E+10	1
4901784	9	C	10/03/2015	10:45	-129.527	46.704	0	1205.40	0	2.9720	0	34.4280	0	27.439	0	1191.973	0	14.1	4	4.3	4	-1E+10	1	-1E+10	1	-1E+10	1	-1E+10	1	-1E+10	1	-1E+10	1
4901784	9	C	10/03/2015	10:45	-129.527	46.704	0	1210.20	0	2.9680	0	34.4290	0	27.440	0	1196.706	0	14.2	4	4.4	4	-1E+10	1	-1E+10	1	-1E+10	1	-1E+10	1	-1E+10	1	-1E+10	1
4901784	9	C	10/03/2015	10:45	-129.527	46.704	0	1215.00	0	2.9620	0	34.4300	0	27.441	0	1201.438	0	14.3	4	4.4	4	-1E+10	1	-1E+10	1	-1E+10	1	-1E+10	1	-1E+10	1	-1E+10	1
4901784	9	C	10/03/2015	10:45	-129.527	46.704	0	1220.00	0	2.9510	0	34.4320	0	27.444	0	1206.368	0	14.4	4	4.5	4	-1E+10	1	-1E+10	1	-1E+10	1	-1E+10	1	-1E+10	1	-1E+10	1
4901784	9	C	10/03/2015	10:45	-129.527	46.704	0	1225.00	0	2.9400	0	34.4340	0	27.446	0	1211.298	0	14.6	4	4.5	4	-1E+10	1	-1E+10	1	-1E+10	1	-1E+10	1	-1E+10	1	-1E+10	1
4901784	9	C	10/03/2015	10:45	-129.527	46.704	0	1230.00	0	2.9280	0	34.4350	0	27.448	0	1216.228	0	14.6	4	4.5	4	-1E+10	1	-1E+10	1	-1E+10	1	-1E+10	1	-1E+10	1	-1E+10	1
4901784	9	C	10/03/2015	10:45	-129.527	46.704	0	1235.10	0	2.9180	0	34.4370	0	27.451	0	1221.256	0	14.8	4	4.6	4	-1E+10	1	-1E+10	1	-1E+10	1	-1E+10	1	-1E+10	1	-1E+10	1
4901784	9	C	10/03/2015	10:45	-129.527	46.704	0	1240.20	0	2.9070	0	34.4390	0	27.453	0	1226.284	0	14.9	4	4.6	4	-1E+10	1	-1E+10	1	-1E+10	1	-1E+10	1	-1E+10	1	-1E+10	1
4901784	9	C	10/03/2015	10:45	-129.527	46.704	0	1245.30	0	2.9010	0	34.4390	0	27.454	0	1231.312	0	15.0	4	4.6	4	-1E+10	1	-1E+10	1	-1E+10	1	-1E+10	1	-1E+10	1	-1E+10	1
4901784	9	C	10/03/2015	10:45	-129.527	46.704	0	1250.50	0	2.8920	0	34.4410	0	27.456	0	1236.438	0	15.1	4	4.7	4	-1E+10	1	-1E+10	1	-1E+10	1	-1E+10	1	-1E+10	1	-1E+10	1
4901784	9	C	10/03/2015	10:45	-129.527	46.704	0	1255.70	0	2.8830	0	34.4420	0	27.458	0	1241.564	0	15.2	4	4.7	4	-1E+10	1	-1E+10	1	-1E+10	1	-1E+10	1	-1E+10	1	-1E+10	1
4901784	9	C	10/03/2015	10:45	-129.527	46.704	0	1260.10	0	2.8710	0	34.4440	0	27.461	0	1245.901	0	15.3	4	4.7	4	-1E+10	1	-1E+10	1	-1E+10	1	-1E+10	1	-1E+10	1	-1E+10	1
4901784	9	C	10/03/2015	10:45	-129.527	46.704	0	1264.40	0	2.8710	0	34.4440	0	27.461	0	1250.140	0	15.4	4	4.7	4	-1E+10	1	-1E+10	1	-1E+10	1	-1E+10	1	-1E+10	1	-1E+10	1
4901784	9	C	10/03/2015	10:45	-129.527	46.704	0	1269.70	0	2.8670	0	34.4440	0	27.461	0	1255.365	0	15.6	4	4.8	4	-1E+10	1	-1E+10	1	-1E+10	1	-1E+10	1	-1E+10	1	-1E+10	1
4901784	9	C	10/03/2015	10:45	-129.527	46.704	0	1274.90	0	2.8490	0	34.4480	0	27.466	0	1260.490	0	15.7	4	4.8	4	-1E+10	1	-1E+10	1	-1E+10	1	-1E+10	1	-1E+10	1	-1E+10	1
4901784	9	C	10/03/2015	10:45	-129.527	46.704	0	1280.30	0	2.8420	0	34.4480	0	27.467	0	1265.813	0	15.8	4	4.9	4	-1E+10	1	-1E+10	1	-1E+10	1	-1E+10	1	-1E+10	1	-1E+10	1
4901784	9	C	10/03/2015	10:45	-129.527	46.704	0	1285.70	0	2.8340	0	34.4490	0	27.468	0	1271.136	0	16.0	4	4.9	4	-1E+10	1	-1E+10	1	-1E+10	1	-1E+10	1	-1E+10	1	-1E+10	1
4901784	9	C	10/03/2015	10:45	-129.527	46.704	0	1290.20	0	2.8290	0	34.4510	0	27.470	0	1275.571	0	16.2	4	5.0	4	-1E+10	1	-1E+10	1	-1E+10	1	-1E+10	1	-1E+10	1	-1E+10	1
4901784	9	C	10/03/2015	10:45	-129.527	46.704	0	1294.80	0	2.8290	0	34.4520	0	27.471	0	1280.105	0	16.4	4	5.0	4	-1E+10	1	-1E+10	1	-1E+10	1	-1E+10	1	-1E+10	1	-1E+10	1
4901784	9	C	10/03/2015	10:45	-129.527	46.704	0	1300.10	0	2.8270	0	34.4550	0	27.474	0	1285.329	0	16.7	4	5.1	4	-1E+10	1	-1E+10	1	-1E+10	1	-1E+10	1	-1E+10	1	-1E+10	1
4901784	9	C	10/03/2015	10:45	-129.527	46.704	0	1305.60	0	2.8190	0	34.4560	0	27.475	0	1290.749	0	16.9	4	5.2	4	-1E+10	1	-1E+10	1	-1E+10	1	-1E+10	1	-1E+10	1	-1E+10	1
4901784	9	C	10/03/2015	10:45	-129.527	46.704	0	1310.20	0	2.8180	0	34.4580	0	27.477	0	1295.283	0	17.1	4	5.3	4	-1E+10	1	-1E+10	1	-1E+10	1	-1E+10	1	-1E+10	1	-1E+10	1
4901784	9	C	10/03/2015	10:45	-129.527	46.704	0	1314.80	0	2.8130	0	34.4580	0	27.477	0	1299.816	0	17.3	4	5.3	4	-1E+10	1	-1E+10	1	-1E+10	1	-1E+10	1	-1E+10	1	-1E+10	1
4901784	9	C	10/03/2015	10:45	-129.527	46.704	0	1320.20	0	2.7930	0	34.4610	0	27.481	0	1305.138	0	17.8	4	5.5	4	-1E+10	1	-1E+10	1	-1E+10	1	-1E+10	1	-1E+10	1	-1E+10	1
4901784	9	C	10/03/2015	10:45	-129.527	46.704	0	1325.70	0	2.8000	0	34.4650	0	27.484	0	1310.558	0	18.2	4	5.6	4	-1E+10	1	-1E+10	1	-1E+10	1	-1E+10	1	-1E+10	1	-1E+10	1
4901784	9	C	10/03/2015	10:45	-129.527	46.704	0	1330.20	0	2.7800	0	34.4670	0	27.487	0	1314.993	0	18.4	4	5.6	4	-1E+10	1	-1E+10	1	-1E+10	1	-1E+10	1	-1E+10	1	-1E+10	1
4901784	9	C	10/03/2015	10:45	-129.527	46.704	0	1334.90	0	2.7700	0	34.4680	0	27.489	0	1319.624	0	18.5	4	5.7	4	-1E+10	1	-1E+10	1	-1E+10	1	-1E+10	1	-1E+10	1	-1E+10	1
4901784	9	C	10/03/2015	10:45	-129.527	46.704	0	1340.10	0	2.7630	0	34.4680	0	27.490	0	1324.749	0	18.6	4	5.7	4	-1E+10	1	-1E+10	1	-1E+10	1	-1E+10	1	-1E+10	1	-1E+10	1
4901784	9	C	10/03/2015	10:45	-129.527	46.704	0	1345.00	0	2.7580	0	34.4690	0	27.491	0	1329.577	0	18.8	4	5.8	4	-1E+10	1	-1E+10	1	-1E+10	1	-1E+10	1	-1E+10	1	-1E+10	1
4901784	9	C	10/03/2015	10:45	-129.527	46.704	0	1350.60	0	2.7400	0	34.4710	0	27.494	0	1335.095	0	19.0	4	5.8	4	-1E+10	1	-1E+10	1	-1E+10	1	-1E+10	1	-1E+10	1	-1E+10	1
4901784	9	C	10/03/2015	10:45	-129.527	46.704	0	1355.40	0	2.7330	0	34.4720	0	27.496	0	1339.825	0	19.1	4	5.9	4	-1E+10	1	-1E+10	1	-1E+10	1	-1E+10	1	-1E+10	1	-1E+10	1
4901784	9	C	10/03/2015	10:45	-129.527	46.704	0	1360.60	0	2.7250	0	34.4730	0	27.497	0	1344.948	0	19.2	4	5.9	4	-1E+10	1	-1E+10	1	-1E+10	1	-1E+10	1	-1E+10	1	-1E+10	1
4901784	9	C	10/03/2015	10:45	-129.527	46.704	0	1365.10	0	2.7200	0	34.4740	0	27.498	0	1349.382	0	19.3	4	5.9	4	-1E+10	1	-1E+10	1	-1E+10	1	-1E+10	1	-1E+10	1	-1E+10	1
4901784	9	C	10/03/2015	10:45	-129.527	46.704	0	1369.70	0	2.7150	0	34.4740	0	27.499	0	1353.914	0	19.4	4	6.0	4	-1E+10	1	-1E+10	1	-1E+10	1	-1E+10	1	-1E+10	1	-1E+10	1
4901784	9	C	10/03/2015	10:45	-129.527	46.704	0	1375.10	0	2.7070	0	34.4750	0	27.500	0	1359.235	0	19.6	4	6.0	4	-1E+10	1	-1E+10	1	-1E+10	1	-1E+10	1	-1E+10	1	-1E+10	1
4901784	9	C	10/03/2015	10:45	-129.527	46.704	0	1380.60	0	2.6970	0	34.4760	0	27.502	0	1364.654	0	19.8	4	6.1	4	-1E+10	1	-1E+10	1	-1E+10	1	-1E+10	1	-1E+10	1	-1E+10	1
4901784	9	C	10/03/2015	10:45	-129.527	46.704	0	1385.20	0	2.6920	0	34.4770	0	27.503	0	1369.186	0	19.9	4	6.1	4	-1E+10	1	-1E+10	1	-1E+10	1	-1E+10	1	-1E+10	1	-1E+10	1
4901784	9	C	10/03/2015	10:45	-129.527	46.704	0	1389.80	0	2.6860	0	34.4780	0	27.505	0	1373.718	0	20.0	4	6.1	4	-1E+10	1	-1E+10	1	-1E+10	1	-1E+10	1	-1E+10	1	-1E+10	1
4901784	9	C	10/03/2015	10:45	-129.527	46.704	0	1395.30	0	2.6720	0	34.4790	0	27.507	0	1379.136	0	20.2	4	6.2	4	-1E+10	1	-1E+10	1	-1E+10	1	-1E+10	1	-1E+10	1	-1E+10	1
4901784	9	C	10/03/2015	10:45	-129.527	46.704	0	1400.00	0	2.6660	0	34.4800	0	27.508	0	1383.766	0	20.3	4	6.2	4	-1E+10	1	-1E+10	1	-1E+10	1	-1E+10	1	-1E+10	1	-1E+10	1
4901784	9	C	10/03/2015	10:45	-129.527	46.704	0	1404.50	0	2.6590	0	34.4800	0	27.509	0	1388.199	0	20.4	4	6.3	4	-1E+10	1	-1E+10	1	-1E+10	1	-1E+10	1	-1E+10	1	-1E+10	1
4901784	9	C	10/03/2015	10:45	-129.527	46.704	0	1410.10	0	2.6520	0	34.4810	0	27.510	0	1393.716	0	20.6	4	6.3	4	-1E+10	1	-1E+10	1	-1E+10	1	-1E+10	1	-1E+10	1	-1E+10	1
4901784	9	C	10/03/2015	10:45	-129.527	46.704	0	1415.70	0	2.6440	0	34.4820	0	27.512	0	1399.232	0	20.8	4	6.4	4	-1E+10	1	-1E+10	1	-1E+10	1	-1E+10	1	-1E+10	1	-1E+10	1
4901784	9	C	10/03/2015	10:45	-129.527	46.704	0	1420.30	0	2.6330	0	34.4830	0	27.513	0	1403.763	0	21.0	4	6.4	4	-1E+10	1	-1E+10	1	-1E+10	1	-1E+10	1	-1E+10	1	-1E+10	1
4901784	9	C	10/03/2015	10:45	-129.527	46.704	0	1424.90	0	2.6280	0	34.4830	0	27.514	0	1408.294	0	21.2	4	6.5	4	-1E+10	1	-1E+10	1	-1E+10	1	-1E+10	1	-1E+10	1	-1E+10	1
4901784	9	C	10/03/2015	10:45	-129.527	46.704	0	1430.40	0	2.6180	0	34.4850	0	27.516	0	1413.712	0	21.5	4	6.6	4	-1E+10	1	-1E+10	1	-1E+10	1	-1E+10	1	-1E+10	1	-1E+10	1
4901784	9	C	10/03/2015	10:45	-129.527	46.704	0	1435.00	0	2.6060	0	34.4860	0	27.518	0	1418.243	0	21.7	4	6.6	4	-1E+10	1	-1E+10	1	-1E+10	1	-1E+10	1	-1E+10	1	-1E+10	1
4901784	9	C	10/03/2015	10:45	-129.527	46.704	0	1439.60	0	2.6020	0	34.4860	0	27.519	0	1422.773	0	21.9	4	6.7	4	-1E+10	1	-1E+10	1	-1E+10	1	-1E+10	1	-1E+10	1	-1E+10	1
4901784	9	C	10/03/2015	10:45	-129.527	46.704	0	1444.90	0	2.5940	0	34.4870	0	27.520	0	1427.994	0	22.1	4	6.8	4	-1E+10	1	-1E+10	1	-1E+10	1	-1E+10	1	-1E+10	1	-1E+10	1
4901784	9	C	10/03/2015	10:45	-129.527	46.704	0	1450.30	0	2.5870	0	34.4880	0	27.522	0	1433.312	0	22.4	4	6.8	4	-1E+10	1	-1E+10	1	-1E+10	1	-1E+10	1	-1E+10	1	-1E+10	1
4901784	9	C	10/03/2015	10:45	-129.527	46.704	0	1454.80	0	2.5780	0	34.4890	0	27.523	0	1437.744	0	22.7	4	6.9	4	-1E+10	1	-1E+10	1	-1E+10	1	-1E+10	1	-1E+10	1	-1E+10	1
4901784	9	C	10/03/2015	10:45	-129.527	46.704	0	1459.40	0	2.5680	0	34.4910	0	27.526	0	1442.274	0	22.9	4	7.0	4	-1E+10	1	-1E+10	1	-1E+10	1	-1E+10	1	-1E+10	1	-1E+10	1
4901784	9	C	10/03/2015	10:45	-129.527	46.704	0	1464.90	0	2.5610	0	34.4920	0	27.527	0	1447.691	0	23.3	4	7.1	4	-1E+10	1	-1E+10	1	-1E+10	1	-1E+10	1	-1E+10	1	-1E+10	1
4901784	9	C	10/03/2015	10:45	-129.527	46.704	0	1470.40	0	2.5490	0	34.4950	0	27.530	0	1453.108	0	23.7	4	7.2	4	-1E+10	1	-1E+10	1	-1E+10	1	-1E+10	1	-1E+10	1	-1E+10	1
4901784	9	C	10/03/2015	10:45	-129.527	46.704	0	1475.60	0	2.5400	0	34.4960	0	27.532	0	1458.228	0	24.0	4	7.3	4	-1E+10	1	-1E+10	1	-1E+10	1	-1E+10	1	-1E+10	1	-1E+10	1
4901784	9	C	10/03/2015	10:45	-129.527	46.704	0	1480.10	0	2.5330	0	34.4970	0	27.533	0	1462.660	0	24.3	4	7.4	4	-1E+10	1	-1E+10	1	-1E+10	1	-1E+10	1	-1E+10	1	-1E+10	1
4901784	9	C	10/03/2015	10:45	-129.527	46.704	0	1484.20	0	2.5260	0	34.4990	0	27.536	0	1466.697	0	24.5	4	7.5	4	-1E+10	1	-1E+10	1	-1E+10	1	-1E+10	1	-1E+10	1	-1E+10	1
4901784	9	C	10/03/2015	10:45	-129.527	46.704	0	1489.20	0	2.5230	0	34.4990	0	27.536	0	1471.621	0	24.7	4	7.5	4	-1E+10	1	-1E+10	1	-1E+10	1	-1E+10	1	-1E+10	1	-1E+10	1
4901784	9	C	10/03/2015	10:45	-129.527	46.704	0	1494.20	0	2.5150	0	34.5000	0	27.537	0	1476.544	0	24.9	4	7.6	4	-1E+10	1	-1E+10	1	-1E+10	1	-1E+10	1	-1E+10	1	-1E+10	1
4901784	9	C	10/03/2015	10:45	-129.527	46.704	0	1499.20	0	2.5070	0	34.5010	0	27.539	0	1481.468	0	25.4	4	7.7	4	-1E+10	1	-1E+10	1	-1E+10	1	-1E+10	1	-1E+10	1	-1E+10	1
4901784	9	C	10/03/2015	10:45	-129.527	46.704	0	1504.20	0	2.4920	0	34.5030	0	27.542	0	1486.391	0	25.8	4	7.9	4	-1E+10	1	-1E+10	1	-1E+10	1	-1E+10	1	-1E+10	1	-1E+10	1
4901784	9	C	10/03/2015	10:45	-129.527	46.704	0	1509.20	0	2.4850	0	34.5050	0	27.544	0	1491.314	0	26.1	4	7.9	4	-1E+10	1	-1E+10	1	-1E+10	1	-1E+10	1	-1E+10	1	-1E+10	1
4901784	9	C	10/03/2015	10:45	-129.527	46.704	0	1514.30	0	2.4790	0	34.5060	0	27.545	0	1496.336	0	26.3	4	8.0	4	-1E+10	1	-1E+10	1	-1E+10	1	-1E+10	1	-1E+10	1	-1E+10	1
4901784	9	C	10/03/2015	10:45	-129.527	46.704	0	1519.40	0	2.4710	0	34.5070	0	27.547	0	1501.357	0	26.7	4	8.1	4	-1E+10	1	-1E+10	1	-1E+10	1	-1E+10	1	-1E+10	1	-1E+10	1
4901784	9	C	10/03/2015	10:45	-129.527	46.704	0	1524.40	0	2.4630	0	34.5080	0	27.548	0	1506.280	0	27.1	4	8.3	4	-1E+10	1	-1E+10	1	-1E+10	1	-1E+10	1	-1E+10	1	-1E+10	1
4901784	9	C	10/03/2015	10:45	-129.527	46.704	0	1529.50	0	2.4580	0	34.5090	0	27.550	0	1511.301	0	27.3	4	8.3	4	-1E+10	1	-1E+10	1	-1E+10	1	-1E+10	1	-1E+10	1	-1E+10	1
4901784	9	C	10/03/2015	10:45	-129.527	46.704	0	1534.70	0	2.4530	0	34.5100	0	27.551	0	1516.421	0	27.6	4	8.4	4	-1E+10	1	-1E+10	1	-1E+10	1	-1E+10	1	-1E+10	1	-1E+10	1
4901784	9	C	10/03/2015	10:45	-129.527	46.704	0	1539.90	0	2.4440	0	34.5110	0	27.552	0	1521.540	0	27.9	4	8.5	4	-1E+10	1	-1E+10	1	-1E+10	1	-1E+10	1	-1E+10	1	-1E+10	1
4901784	9	C	10/03/2015	10:45	-129.527	46.704	0	1545.00	0	2.4350	0	34.5120	0	27.554	0	1526.561	0	28.2	4	8.6	4	-1E+10	1	-1E+10	1	-1E+10	1	-1E+10	1	-1E+10	1	-1E+10	1
4901784	9	C	10/03/2015	10:45	-129.527	46.704	0	1550.20	0	2.4270	0	34.5140	0	27.556	0	1531.680	0	28.5	4	8.7	4	-1E+10	1	-1E+10	1	-1E+10	1	-1E+10	1	-1E+10	1	-1E+10	1
4901784	9	C	10/03/2015	10:45	-129.527	46.704	0	1555.40	0	2.4180	0	34.5150	0	27.558	0	1536.799	0	28.9	4	8.8	4	-1E+10	1	-1E+10	1	-1E+10	1	-1E+10	1	-1E+10	1	-1E+10	1
4901784	9	C	10/03/2015	10:45	-129.527	46.704	0	1560.40	0	2.4100	0	34.5160	0	27.559	0	1541.721	0	29.2	4	8.9	4	-1E+10	1	-1E+10	1	-1E+10	1	-1E+10	1	-1E+10	1	-1E+10	1
4901784	9	C	10/03/2015	10:45	-129.527	46.704	0	1565.60	0	2.4010	0	34.5170	0	27.561	0	1546.840	0	29.5	4	9.0	4	-1E+10	1	-1E+10	1	-1E+10	1	-1E+10	1	-1E+10	1	-1E+10	1
4901784	9	C	10/03/2015	10:45	-129.527	46.704	0	1570.70	0	2.3950	0	34.5180	0	27.562	0	1551.860	0	30.0	4	9.1	4	-1E+10	1	-1E+10	1	-1E+10	1	-1E+10	1	-1E+10	1	-1E+10	1
4901784	9	C	10/03/2015	10:45	-129.527	46.704	0	1575.00	0	2.3860	0	34.5200	0	27.565	0	1556.093	0	30.5	4	9.3	4	-1E+10	1	-1E+10	1	-1E+10	1	-1E+10	1	-1E+10	1	-1E+10	1
4901784	9	C	10/03/2015	10:45	-129.527	46.704	0	1579.30	0	2.3730	0	34.5210	0	27.567	0	1560.325	0	30.7	4	9.4	4	-1E+10	1	-1E+10	1	-1E+10	1	-1E+10	1	-1E+10	1	-1E+10	1
4901784	9	C	10/03/2015	10:45	-129.527	46.704	0	1584.50	0	2.3650	0	34.5220	0	27.568	0	1565.443	0	31.0	4	9.4	4	-1E+10	1	-1E+10	1	-1E+10	1	-1E+10	1	-1E+10	1	-1E+10	1
4901784	9	C	10/03/2015	10:45	-129.527	46.704	0	1589.70	0	2.3610	0	34.5240	0	27.570	0	1570.562	0	31.3	4	9.5	4	-1E+10	1	-1E+10	1	-1E+10	1	-1E+10	1	-1E+10	1	-1E+10	1
4901784	9	C	10/03/2015	10:45	-129.527	46.704	0	1594.90	0	2.3530	0	34.5240	0	27.571	0	1575.680	0	31.5	4	9.6	4	-1E+10	1	-1E+10	1	-1E+10	1	-1E+10	1	-1E+10	1	-1E+10	1
4901784	9	C	10/03/2015	10:45	-129.527	46.704	0	1600.20	0	2.3440	0	34.5250	0	27.572	0	1580.896	0	31.9	4	9.7	4	-1E+10	1	-1E+10	1	-1E+10	1	-1E+10	1	-1E+10	1	-1E+10	1
4901784	9	C	10/03/2015	10:45	-129.527	46.704	0	1605.60	0	2.3350	0	34.5270	0	27.575	0	1586.211	0	32.2	4	9.8	4	-1E+10	1	-1E+10	1	-1E+10	1	-1E+10	1	-1E+10	1	-1E+10	1
4901784	9	C	10/03/2015	10:45	-129.527	46.704	0	1610.20	0	2.3330	0	34.5270	0	27.575	0	1590.738	0	32.4	4	9.8	4	-1E+10	1	-1E+10	1	-1E+10	1	-1E+10	1	-1E+10	1	-1E+10	1
4901784	9	C	10/03/2015	10:45	-129.527	46.704	0	1615.00	0	2.3300	0	34.5270	0	27.575	0	1595.462	0	32.6	4	9.9	4	-1E+10	1	-1E+10	1	-1E+10	1	-1E+10	1	-1E+10	1	-1E+10	1
4901784	9	C	10/03/2015	10:45	-129.527	46.704	0	1620.10	0	2.3210	0	34.5280	0	27.577	0	1600.481	0	33.4	4	10.1	4	-1E+10	1	-1E+10	1	-1E+10	1	-1E+10	1	-1E+10	1	-1E+10	1
4901784	9	C	10/03/2015	10:45	-129.527	46.704	0	1624.80	0	2.3030	0	34.5310	0	27.580	0	1605.106	0	34.0	4	10.3	4	-1E+10	1	-1E+10	1	-1E+10	1	-1E+10	1	-1E+10	1	-1E+10	1
4901784	9	C	10/03/2015	10:45	-129.527	46.704	0	1629.60	0	2.2970	0	34.5330	0	27.583	0	1609.830	0	34.5	4	10.5	4	-1E+10	1	-1E+10	1	-1E+10	1	-1E+10	1	-1E+10	1	-1E+10	1
4901784	9	C	10/03/2015	10:45	-129.527	46.704	0	1634.50	0	2.2870	0	34.5350	0	27.585	0	1614.652	0	35.0	4	10.6	4	-1E+10	1	-1E+10	1	-1E+10	1	-1E+10	1	-1E+10	1	-1E+10	1
4901784	9	C	10/03/2015	10:45	-129.527	46.704	0	1639.40	0	2.2800	0	34.5360	0	27.586	0	1619.473	0	35.4	4	10.7	4	-1E+10	1	-1E+10	1	-1E+10	1	-1E+10	1	-1E+10	1	-1E+10	1
4901784	9	C	10/03/2015	10:45	-129.527	46.704	0	1644.50	0	2.2750	0	34.5370	0	27.588	0	1624.492	0	35.8	4	10.9	4	-1E+10	1	-1E+10	1	-1E+10	1	-1E+10	1	-1E+10	1	-1E+10	1
4901784	9	C	10/03/2015	10:45	-129.527	46.704	0	1649.50	0	2.2670	0	34.5380	0	27.589	0	1629.412	0	36.1	4	11.0	4	-1E+10	1	-1E+10	1	-1E+10	1	-1E+10	1	-1E+10	1	-1E+10	1
4901784	9	C	10/03/2015	10:45	-129.527	46.704	0	1654.60	0	2.2630	0	34.5390	0	27.590	0	1634.430	0	36.3	4	11.0	4	-1E+10	1	-1E+10	1	-1E+10	1	-1E+10	1	-1E+10	1	-1E+10	1
4901784	9	C	10/03/2015	10:45	-129.527	46.704	0	1659.70	0	2.2600	0	34.5390	0	27.591	0	1639.448	0	36.5	4	11.1	4	-1E+10	1	-1E+10	1	-1E+10	1	-1E+10	1	-1E+10	1	-1E+10	1
4901784	9	C	10/03/2015	10:45	-129.527	46.704	0	1664.80	0	2.2520	0	34.5400	0	27.592	0	1644.466	0	36.9	4	11.2	4	-1E+10	1	-1E+10	1	-1E+10	1	-1E+10	1	-1E+10	1	-1E+10	1
4901784	9	C	10/03/2015	10:45	-129.527	46.704	0	1670.10	0	2.2430	0	34.5410	0	27.594	0	1649.681	0	37.1	4	11.3	4	-1E+10	1	-1E+10	1	-1E+10	1	-1E+10	1	-1E+10	1	-1E+10	1
4901784	9	C	10/03/2015	10:45	-129.527	46.704	0	1675.40	0	2.2400	0	34.5420	0	27.595	0	1654.895	0	37.3	4	11.3	4	-1E+10	1	-1E+10	1	-1E+10	1	-1E+10	1	-1E+10	1	-1E+10	1
4901784	9	C	10/03/2015	10:45	-129.527	46.704	0	1680.60	0	2.2360	0	34.5430	0	27.596	0	1660.011	0	37.5	4	11.4	4	-1E+10	1	-1E+10	1	-1E+10	1	-1E+10	1	-1E+10	1	-1E+10	1
4901784	9	C	10/03/2015	10:45	-129.527	46.704	0	1684.90	0	2.2360	0	34.5430	0	27.596	0	1664.242	0	37.7	4	11.4	4	-1E+10	1	-1E+10	1	-1E+10	1	-1E+10	1	-1E+10	1	-1E+10	1
4901784	9	C	10/03/2015	10:45	-129.527	46.704	0	1689.30	0	2.2330	0	34.5430	0	27.596	0	1668.571	0	37.9	4	11.5	4	-1E+10	1	-1E+10	1	-1E+10	1	-1E+10	1	-1E+10	1	-1E+10	1
4901784	9	C	10/03/2015	10:45	-129.527	46.704	0	1694.70	0	2.2290	0	34.5450	0	27.598	0	1673.883	0	38.3	4	11.6	4	-1E+10	1	-1E+10	1	-1E+10	1	-1E+10	1	-1E+10	1	-1E+10	1
4901784	9	C	10/03/2015	10:45	-129.527	46.704	0	1700.10	0	2.2230	0	34.5460	0	27.599	0	1679.195	0	38.8	4	11.7	4	-1E+10	1	-1E+10	1	-1E+10	1	-1E+10	1	-1E+10	1	-1E+10	1
4901784	9	C	10/03/2015	10:45	-129.527	46.704	0	1705.50	0	2.2130	0	34.5470	0	27.601	0	1684.507	0	39.2	4	11.9	4	-1E+10	1	-1E+10	1	-1E+10	1	-1E+10	1	-1E+10	1	-1E+10	1
4901784	9	C	10/03/2015	10:45	-129.527	46.704	0	1710.10	0	2.2040	0	34.5480	0	27.603	0	1689.032	0	39.4	4	11.9	4	-1E+10	1	-1E+10	1	-1E+10	1	-1E+10	1	-1E+10	1	-1E+10	1
4901784	9	C	10/03/2015	10:45	-129.527	46.704	0	1714.60	0	2.2000	0	34.5480	0	27.603	0	1693.459	0	39.6	4	12.0	4	-1E+10	1	-1E+10	1	-1E+10	1	-1E+10	1	-1E+10	1	-1E+10	1
4901784	9	C	10/03/2015	10:45	-129.527	46.704	0	1720.10	0	2.1920	0	34.5490	0	27.604	0	1698.869	0	40.0	4	12.1	4	-1E+10	1	-1E+10	1	-1E+10	1	-1E+10	1	-1E+10	1	-1E+10	1
4901784	9	C	10/03/2015	10:45	-129.527	46.704	0	1725.60	0	2.1800	0	34.5500	0	27.606	0	1704.279	0	40.3	4	12.2	4	-1E+10	1	-1E+10	1	-1E+10	1	-1E+10	1	-1E+10	1	-1E+10	1
4901784	9	C	10/03/2015	10:45	-129.527	46.704	0	1730.20	0	2.1720	0	34.5510	0	27.608	0	1708.804	0	40.7	4	12.3	4	-1E+10	1	-1E+10	1	-1E+10	1	-1E+10	1	-1E+10	1	-1E+10	1
4901784	9	C	10/03/2015	10:45	-129.527	46.704	0	1734.80	0	2.1660	0	34.5520	0	27.609	0	1713.329	0	40.8	4	12.4	4	-1E+10	1	-1E+10	1	-1E+10	1	-1E+10	1	-1E+10	1	-1E+10	1
4901784	9	C	10/03/2015	10:45	-129.527	46.704	0	1740.00	0	2.1630	0	34.5520	0	27.609	0	1718.443	0	41.0	4	12.4	4	-1E+10	1	-1E+10	1	-1E+10	1	-1E+10	1	-1E+10	1	-1E+10	1
4901784	9	C	10/03/2015	10:45	-129.527	46.704	0	1745.10	0	2.1630	0	34.5520	0	27.609	0	1723.459	0	41.2	4	12.5	4	-1E+10	1	-1E+10	1	-1E+10	1	-1E+10	1	-1E+10	1	-1E+10	1
4901784	9	C	10/03/2015	10:45	-129.527	46.704	0	1750.70	0	2.1550	0	34.5530	0	27.611	0	1728.967	0	41.7	4	12.6	4	-1E+10	1	-1E+10	1	-1E+10	1	-1E+10	1	-1E+10	1	-1E+10	1
4901784	9	C	10/03/2015	10:45	-129.527	46.704	0	1755.60	0	2.1450	0	34.5550	0	27.613	0	1733.786	0	42.0	4	12.7	4	-1E+10	1	-1E+10	1	-1E+10	1	-1E+10	1	-1E+10	1	-1E+10	1
4901784	9	C	10/03/2015	10:45	-129.527	46.704	0	1760.50	0	2.1420	0	34.5560	0	27.614	0	1738.605	0	42.1	4	12.7	4	-1E+10	1	-1E+10	1	-1E+10	1	-1E+10	1	-1E+10	1	-1E+10	1
4901784	9	C	10/03/2015	10:45	-129.527	46.704	0	1765.50	0	2.1400	0	34.5560	0	27.614	0	1743.522	0	42.2	4	12.8	4	-1E+10	1	-1E+10	1	-1E+10	1	-1E+10	1	-1E+10	1	-1E+10	1
4901784	9	C	10/03/2015	10:45	-129.527	46.704	0	1770.60	0	2.1390	0	34.5560	0	27.614	0	1748.538	0	42.3	4	12.8	4	-1E+10	1	-1E+10	1	-1E+10	1	-1E+10	1	-1E+10	1	-1E+10	1
4901784	9	C	10/03/2015	10:45	-129.527	46.704	0	1775.80	0	2.1380	0	34.5560	0	27.615	0	1753.652	0	42.4	4	12.8	4	-1E+10	1	-1E+10	1	-1E+10	1	-1E+10	1	-1E+10	1	-1E+10	1
4901784	9	C	10/03/2015	10:45	-129.527	46.704	0	1780.00	0	2.1370	0	34.5560	0	27.615	0	1757.782	0	42.5	4	12.9	4	-1E+10	1	-1E+10	1	-1E+10	1	-1E+10	1	-1E+10	1	-1E+10	1
4901784	9	C	10/03/2015	10:45	-129.527	46.704	0	1784.20	0	2.1340	0	34.5560	0	27.615	0	1761.912	0	42.7	4	12.9	4	-1E+10	1	-1E+10	1	-1E+10	1	-1E+10	1	-1E+10	1	-1E+10	1
4901784	9	C	10/03/2015	10:45	-129.527	46.704	0	1789.40	0	2.1310	0	34.5570	0	27.616	0	1767.026	0	42.8	4	12.9	4	-1E+10	1	-1E+10	1	-1E+10	1	-1E+10	1	-1E+10	1	-1E+10	1
4901784	9	C	10/03/2015	10:45	-129.527	46.704	0	1794.60	0	2.1290	0	34.5570	0	27.616	0	1772.139	0	43.1	4	13.0	4	-1E+10	1	-1E+10	1	-1E+10	1	-1E+10	1	-1E+10	1	-1E+10	1
4901784	9	C	10/03/2015	10:45	-129.527	46.704	0	1799.90	0	2.1210	0	34.5580	0	27.618	0	1777.350	0	43.4	4	13.1	4	-1E+10	1	-1E+10	1	-1E+10	1	-1E+10	1	-1E+10	1	-1E+10	1
4901784	9	C	10/03/2015	10:45	-129.527	46.704	0	1805.10	0	2.1180	0	34.5590	0	27.619	0	1782.463	0	43.6	4	13.2	4	-1E+10	1	-1E+10	1	-1E+10	1	-1E+10	1	-1E+10	1	-1E+10	1
4901784	9	C	10/03/2015	10:45	-129.527	46.704	0	1810.30	0	2.1160	0	34.5590	0	27.619	0	1787.576	0	43.9	4	13.3	4	-1E+10	1	-1E+10	1	-1E+10	1	-1E+10	1	-1E+10	1	-1E+10	1
4901784	9	C	10/03/2015	10:45	-129.527	46.704	0	1815.60	0	2.1090	0	34.5600	0	27.620	0	1792.787	0	44.4	4	13.4	4	-1E+10	1	-1E+10	1	-1E+10	1	-1E+10	1	-1E+10	1	-1E+10	1
4901784	9	C	10/03/2015	10:45	-129.527	46.704	0	1820.00	0	2.1010	0	34.5610	0	27.622	0	1797.114	0	44.9	4	13.6	4	-1E+10	1	-1E+10	1	-1E+10	1	-1E+10	1	-1E+10	1	-1E+10	1
4901784	9	C	10/03/2015	10:45	-129.527	46.704	0	1824.40	0	2.0900	0	34.5630	0	27.624	0	1801.440	0	45.3	4	13.7	4	-1E+10	1	-1E+10	1	-1E+10	1	-1E+10	1	-1E+10	1	-1E+10	1
4901784	9	C	10/03/2015	10:45	-129.527	46.704	0	1829.70	0	2.0850	0	34.5640	0	27.625	0	1806.650	0	45.5	4	13.7	4	-1E+10	1	-1E+10	1	-1E+10	1	-1E+10	1	-1E+10	1	-1E+10	1
4901784	9	C	10/03/2015	10:45	-129.527	46.704	0	1835.00	0	2.0830	0	34.5640	0	27.626	0	1811.861	0	45.6	4	13.8	4	-1E+10	1	-1E+10	1	-1E+10	1	-1E+10	1	-1E+10	1	-1E+10	1
4901784	9	C	10/03/2015	10:45	-129.527	46.704	0	1840.30	0	2.0800	0	34.5640	0	27.626	0	1817.072	0	45.8	4	13.8	4	-1E+10	1	-1E+10	1	-1E+10	1	-1E+10	1	-1E+10	1	-1E+10	1
4901784	9	C	10/03/2015	10:45	-129.527	46.704	0	1844.90	0	2.0750	0	34.5650	0	27.627	0	1821.594	0	46.0	4	13.9	4	-1E+10	1	-1E+10	1	-1E+10	1	-1E+10	1	-1E+10	1	-1E+10	1
4901784	9	C	10/03/2015	10:45	-129.527	46.704	0	1850.00	0	2.0730	0	34.5650	0	27.627	0	1826.607	0	46.1	4	13.9	4	-1E+10	1	-1E+10	1	-1E+10	1	-1E+10	1	-1E+10	1	-1E+10	1
4901784	9	C	10/03/2015	10:45	-129.527	46.704	0	1855.50	0	2.0720	0	34.5660	0	27.628	0	1832.014	0	46.2	4	14.0	4	-1E+10	1	-1E+10	1	-1E+10	1	-1E+10	1	-1E+10	1	-1E+10	1
4901784	9	C	10/03/2015	10:45	-129.527	46.704	0	1860.30	0	2.0700	0	34.5660	0	27.628	0	1836.733	0	46.4	4	14.0	4	-1E+10	1	-1E+10	1	-1E+10	1	-1E+10	1	-1E+10	1	-1E+10	1
4901784	9	C	10/03/2015	10:45	-129.527	46.704	0	1865.20	0	2.0680	0	34.5660	0	27.629	0	1841.549	0	46.5	4	14.1	4	-1E+10	1	-1E+10	1	-1E+10	1	-1E+10	1	-1E+10	1	-1E+10	1
4901784	9	C	10/03/2015	10:45	-129.527	46.704	0	1870.00	0	2.0660	0	34.5670	0	27.630	0	1846.268	0	46.6	4	14.1	4	-1E+10	1	-1E+10	1	-1E+10	1	-1E+10	1	-1E+10	1	-1E+10	1
4901784	9	C	10/03/2015	10:45	-129.527	46.704	0	1875.00	0	2.0660	0	34.5670	0	27.630	0	1851.183	0	46.8	4	14.1	4	-1E+10	1	-1E+10	1	-1E+10	1	-1E+10	1	-1E+10	1	-1E+10	1
4901784	9	C	10/03/2015	10:45	-129.527	46.704	0	1879.90	0	2.0640	0	34.5670	0	27.630	0	1855.999	0	47.0	4	14.2	4	-1E+10	1	-1E+10	1	-1E+10	1	-1E+10	1	-1E+10	1	-1E+10	1
4901784	9	C	10/03/2015	10:45	-129.527	46.704	0	1884.80	0	2.0540	0	34.5680	0	27.631	0	1860.815	0	47.4	4	14.3	4	-1E+10	1	-1E+10	1	-1E+10	1	-1E+10	1	-1E+10	1	-1E+10	1
4901784	9	C	10/03/2015	10:45	-129.527	46.704	0	1889.70	0	2.0470	0	34.5690	0	27.633	0	1865.631	0	47.8	4	14.4	4	-1E+10	1	-1E+10	1	-1E+10	1	-1E+10	1	-1E+10	1	-1E+10	1
4901784	9	C	10/03/2015	10:45	-129.527	46.704	0	1894.70	0	2.0410	0	34.5700	0	27.634	0	1870.546	0	48.2	4	14.5	4	-1E+10	1	-1E+10	1	-1E+10	1	-1E+10	1	-1E+10	1	-1E+10	1
4901784	9	C	10/03/2015	10:45	-129.527	46.704	0	1899.70	0	2.0330	0	34.5710	0	27.635	0	1875.460	0	48.6	4	14.7	4	-1E+10	1	-1E+10	1	-1E+10	1	-1E+10	1	-1E+10	1	-1E+10	1
4901784	9	C	10/03/2015	10:45	-129.527	46.704	0	1904.70	0	2.0310	0	34.5720	0	27.636	0	1880.374	0	48.9	4	14.7	4	-1E+10	1	-1E+10	1	-1E+10	1	-1E+10	1	-1E+10	1	-1E+10	1
4901784	9	C	10/03/2015	10:45	-129.527	46.704	0	1909.60	0	2.0260	0	34.5720	0	27.637	0	1885.190	0	49.3	4	14.9	4	-1E+10	1	-1E+10	1	-1E+10	1	-1E+10	1	-1E+10	1	-1E+10	1
4901784	9	C	10/03/2015	10:45	-129.527	46.704	0	1914.60	0	2.0190	0	34.5730	0	27.638	0	1890.104	0	49.7	4	15.0	4	-1E+10	1	-1E+10	1	-1E+10	1	-1E+10	1	-1E+10	1	-1E+10	1
4901784	9	C	10/03/2015	10:45	-129.527	46.704	0	1919.50	0	2.0130	0	34.5740	0	27.640	0	1894.919	0	50.2	4	15.1	4	-1E+10	1	-1E+10	1	-1E+10	1	-1E+10	1	-1E+10	1	-1E+10	1
4901784	9	C	10/03/2015	10:45	-129.527	46.704	0	1924.60	0	2.0060	0	34.5750	0	27.641	0	1899.931	0	50.6	4	15.3	4	-1E+10	1	-1E+10	1	-1E+10	1	-1E+10	1	-1E+10	1	-1E+10	1
4901784	9	C	10/03/2015	10:45	-129.527	46.704	0	1929.60	0	2.0020	0	34.5760	0	27.642	0	1904.845	0	50.9	4	15.4	4	-1E+10	1	-1E+10	1	-1E+10	1	-1E+10	1	-1E+10	1	-1E+10	1
4901784	9	C	10/03/2015	10:45	-129.527	46.704	0	1934.60	0	1.9970	0	34.5770	0	27.643	0	1909.758	0	51.4	4	15.5	4	-1E+10	1	-1E+10	1	-1E+10	1	-1E+10	1	-1E+10	1	-1E+10	1
4901784	9	C	10/03/2015	10:45	-129.527	46.704	0	1939.60	0	1.9910	0	34.5780	0	27.645	0	1914.672	0	51.7	4	15.6	4	-1E+10	1	-1E+10	1	-1E+10	1	-1E+10	1	-1E+10	1	-1E+10	1
4901784	9	C	10/03/2015	10:45	-129.527	46.704	0	1944.60	0	1.9900	0	34.5780	0	27.645	0	1919.585	0	52.1	4	15.7	4	-1E+10	1	-1E+10	1	-1E+10	1	-1E+10	1	-1E+10	1	-1E+10	1
4901784	9	C	10/03/2015	10:45	-129.527	46.704	0	1949.70	0	1.9800	0	34.5800	0	27.647	0	1924.596	0	52.5	4	15.8	4	-1E+10	1	-1E+10	1	-1E+10	1	-1E+10	1	-1E+10	1	-1E+10	1
4901784	9	C	10/03/2015	10:45	-129.527	46.704	0	1954.80	0	1.9780	0	34.5810	0	27.648	0	1929.607	0	52.7	4	15.9	4	-1E+10	1	-1E+10	1	-1E+10	1	-1E+10	1	-1E+10	1	-1E+10	1
4901784	9	C	10/03/2015	10:45	-129.527	46.704	0	1959.80	0	1.9760	0	34.5810	0	27.648	0	1934.520	0	52.9	4	15.9	4	-1E+10	1	-1E+10	1	-1E+10	1	-1E+10	1	-1E+10	1	-1E+10	1
4901784	9	C	10/03/2015	10:45	-129.527	46.704	0	1964.80	0	1.9740	0	34.5810	0	27.648	0	1939.433	0	53.2	4	16.0	4	-1E+10	1	-1E+10	1	-1E+10	1	-1E+10	1	-1E+10	1	-1E+10	1
4901784	9	C	10/03/2015	10:45	-129.527	46.704	0	1969.90	0	1.9710	0	34.5810	0	27.649	0	1944.444	0	53.5	4	16.1	4	-1E+10	1	-1E+10	1	-1E+10	1	-1E+10	1	-1E+10	1	-1E+10	1
4901784	9	C	10/03/2015	10:45	-129.527	46.704	0	1974.90	0	1.9660	0	34.5830	0	27.651	0	1949.356	0	53.9	4	16.2	4	-1E+10	1	-1E+10	1	-1E+10	1	-1E+10	1	-1E+10	1	-1E+10	1
4901784	9	C	10/03/2015	10:45	-129.527	46.704	0	1980.00	0	1.9600	0	34.5830	0	27.651	0	1954.367	0	54.3	4	16.4	4	-1E+10	1	-1E+10	1	-1E+10	1	-1E+10	1	-1E+10	1	-1E+10	1
4901784	9	C	10/03/2015	10:45	-129.527	46.704	0	1985.20	0	1.9570	0	34.5840	0	27.652	0	1959.476	0	54.7	4	16.5	4	-1E+10	1	-1E+10	1	-1E+10	1	-1E+10	1	-1E+10	1	-1E+10	1
4901784	9	C	10/03/2015	10:45	-129.527	46.704	0	1990.40	0	1.9510	0	34.5850	0	27.654	0	1964.585	0	55.0	4	16.6	4	-1E+10	1	-1E+10	1	-1E+10	1	-1E+10	1	-1E+10	1	-1E+10	1
4901784	9	C	10/03/2015	10:45	-129.527	46.704	0	1994.80	0	1.9480	0	34.5860	0	27.655	0	1968.907	0	55.3	4	16.7	4	-1E+10	1	-1E+10	1	-1E+10	1	-1E+10	1	-1E+10	1	-1E+10	1
4901784	9	C	10/03/2015	10:45	-129.527	46.704	0	1999.80	0	1.9450	0	34.5860	0	27.655	0	1973.819	0	55.6	4	16.7	4	-1E+10	1	-1E+10	1	-1E+10	1	-1E+10	1	-1E+10	1	-1E+10	1
4901784	9	C	10/03/2015	10:45	-129.527	46.704	0	2004.80	0	1.9430	0	34.5870	0	27.656	0	1978.731	0	55.8	4	16.8	4	-1E+10	1	-1E+10	1	-1E+10	1	-1E+10	1	-1E+10	1	-1E+10	1
4901784	9	C	10/03/2015	10:45	-129.527	46.704	0	2009.90	0	1.9370	0	34.5880	0	27.657	0	1983.741	0	56.2	4	16.9	4	-1E+10	1	-1E+10	1	-1E+10	1	-1E+10	1	-1E+10	1	-1E+10	1
4901784	9	C	10/03/2015	10:45	-129.527	46.704	0	2015.10	0	1.9350	0	34.5880	0	27.657	0	1988.849	0	56.1	4	16.9	4	-1E+10	1	-1E+10	1	-1E+10	1	-1E+10	1	-1E+10	1	-1E+10	1
4901784	9	C	10/03/2015	10:45	-129.527	46.704	0																										
4901784	10	C	10/13/2015	10:47	-129.690	46.519	0	2.00	0	16.8400	0	32.3100	0	23.489	0	1.983	0	236.0	4	96.9	4	-1E+10	1	-1E+10	1	-1E+10	1	-1E+10	1	-1E+10	1	-1E+10	1
4901784	10	C	10/13/2015	10:47	-129.690	46.519	0	3.60	0	16.8420	0	32.3100	0	23.489	0	3.570	0	235.9	4	96.9	4	-1E+10	1	-1E+10	1	-1E+10	1	-1E+10	1	-1E+10	1	-1E+10	1
4901784	10	C	10/13/2015	10:47	-129.690	46.519	0	5.40	0	16.8450	0	32.3090	0	23.487	0	5.355	0	235.7	4	96.8	4	-1E+10	1	-1E+10	1	-1E+10	1	-1E+10	1	-1E+10	1	-1E+10	1
4901784	10	C	10/13/2015	10:47	-129.690	46.519	0	7.30	0	16.8470	0	32.3090	0	23.487	0	7.240	0	235.6	4	96.7	4	-1E+10	1	-1E+10	1	-1E+10	1	-1E+10	1	-1E+10	1	-1E+10	1
4901784	10	C	10/13/2015	10:47	-129.690	46.519	0	9.10	0	16.8470	0	32.3090	0	23.487	0	9.025	0	235.6	4	96.7	4	-1E+10	1	-1E+10	1	-1E+10	1	-1E+10	1	-1E+10	1	-1E+10	1
4901784	10	C	10/13/2015	10:47	-129.690	46.519	0	11.10	0	16.8480	0	32.3090	0	23.487	0	11.008	0	235.5	4	96.7	4	-1E+10	1	-1E+10	1	-1E+10	1	-1E+10	1	-1E+10	1	-1E+10	1
4901784	10	C	10/13/2015	10:47	-129.690	46.519	0	13.00	0	16.8430	0	32.3090	0	23.488	0	12.892	0	235.3	4	96.6	4	-1E+10	1	-1E+10	1	-1E+10	1	-1E+10	1	-1E+10	1	-1E+10	1
4901784	10	C	10/13/2015	10:47	-129.690	46.519	0	15.10	0	16.8320	0	32.3090	0	23.490	0	14.975	0	235.3	4	96.6	4	-1E+10	1	-1E+10	1	-1E+10	1	-1E+10	1	-1E+10	1	-1E+10	1
4901784	10	C	10/13/2015	10:47	-129.690	46.519	0	17.00	0	16.8300	0	32.3090	0	23.491	0	16.859	0	235.3	4	96.6	4	-1E+10	1	-1E+10	1	-1E+10	1	-1E+10	1	-1E+10	1	-1E+10	1
4901784	10	C	10/13/2015	10:47	-129.690	46.519	0	19.10	0	16.8300	0	32.3080	0	23.490	0	18.941	0	235.1	4	96.5	4	-1E+10	1	-1E+10	1	-1E+10	1	-1E+10	1	-1E+10	1	-1E+10	1
4901784	10	C	10/13/2015	10:47	-129.690	46.519	0	21.00	0	16.8280	0	32.3090	0	23.492	0	20.826	0	235.0	4	96.4	4	-1E+10	1	-1E+10	1	-1E+10	1	-1E+10	1	-1E+10	1	-1E+10	1
4901784	10	C	10/13/2015	10:47	-129.690	46.519	0	23.10	0	16.8280	0	32.3080	0	23.491	0	22.908	0	234.8	4	96.4	4	-1E+10	1	-1E+10	1	-1E+10	1	-1E+10	1	-1E+10	1	-1E+10	1
4901784	10	C	10/13/2015	10:47	-129.690	46.519	0	25.00	0	16.8270	0	32.3080	0	23.491	0	24.792	0	234.7	4	96.3	4	-1E+10	1	-1E+10	1	-1E+10	1	-1E+10	1	-1E+10	1	-1E+10	1
4901784	10	C	10/13/2015	10:47	-129.690	46.519	0	27.10	0	16.8250	0	32.3080	0	23.492	0	26.874	0	234.7	4	96.3	4	-1E+10	1	-1E+10	1	-1E+10	1	-1E+10	1	-1E+10	1	-1E+10	1
4901784	10	C	10/13/2015	10:47	-129.690	46.519	0	29.10	0	16.8250	0	32.3080	0	23.492	0	28.858	0	234.3	4	96.2	4	-1E+10	1	-1E+10	1	-1E+10	1	-1E+10	1	-1E+10	1	-1E+10	1
4901784	10	C	10/13/2015	10:47	-129.690	46.519	0	31.10	0	16.8250	0	32.3080	0	23.492	0	30.841	0	234.1	4	96.1	4	-1E+10	1	-1E+10	1	-1E+10	1	-1E+10	1	-1E+10	1	-1E+10	1
4901784	10	C	10/13/2015	10:47	-129.690	46.519	0	33.80	0	16.8240	0	32.3080	0	23.492	0	33.518	0	234.0	4	96.1	4	-1E+10	1	-1E+10	1	-1E+10	1	-1E+10	1	-1E+10	1	-1E+10	1
4901784	10	C	10/13/2015	10:47	-129.690	46.519	0	35.80	0	16.8230	0	32.3070	0	23.492	0	35.501	0	234.0	4	96.1	4	-1E+10	1	-1E+10	1	-1E+10	1	-1E+10	1	-1E+10	1	-1E+10	1
4901784	10	C	10/13/2015	10:47	-129.690	46.519	0	37.50	0	16.8200	0	32.3070	0	23.493	0	37.187	0	233.9	4	96.0	4	-1E+10	1	-1E+10	1	-1E+10	1	-1E+10	1	-1E+10	1	-1E+10	1
4901784	10	C	10/13/2015	10:47	-129.690	46.519	0	39.10	0	16.8200	0	32.3060	0	23.492	0	38.774	0	234.0	4	96.1	4	-1E+10	1	-1E+10	1	-1E+10	1	-1E+10	1	-1E+10	1	-1E+10	1
4901784	10	C	10/13/2015	10:47	-129.690	46.519	0	40.70	0	16.8190	0	32.3050	0	23.491	0	40.360	0	234.3	4	96.2	4	-1E+10	1	-1E+10	1	-1E+10	1	-1E+10	1	-1E+10	1	-1E+10	1
4901784	10	C	10/13/2015	10:47	-129.690	46.519	0	42.30	0	16.8170	0	32.3030	0	23.490	0	41.946	0	234.4	4	96.2	4	-1E+10	1	-1E+10	1	-1E+10	1	-1E+10	1	-1E+10	1	-1E+10	1
4901784	10	C	10/13/2015	10:47	-129.690	46.519	0	44.10	0	16.8150	0	32.3000	0	23.489	0	43.731	0	235.5	4	96.6	4	-1E+10	1	-1E+10	1	-1E+10	1	-1E+10	1	-1E+10	1	-1E+10	1
4901784	10	C	10/13/2015	10:47	-129.690	46.519	0	45.40	0	16.8020	0	32.2960	0	23.489	0	45.020	0	236.8	4	97.2	4	-1E+10	1	-1E+10	1	-1E+10	1	-1E+10	1	-1E+10	1	-1E+10	1
4901784	10	C	10/13/2015	10:47	-129.690	46.519	0	46.40	0	16.7750	0	32.2890	0	23.489	0	46.012	0	239.0	4	98.0	4	-1E+10	1	-1E+10	1	-1E+10	1	-1E+10	1	-1E+10	1	-1E+10	1
4901784	10	C	10/13/2015	10:47	-129.690	46.519	0	47.40	0	16.7070	0	32.2790	0	23.498	0	47.003	0	241.9	4	99.1	4	-1E+10	1	-1E+10	1	-1E+10	1	-1E+10	1	-1E+10	1	-1E+10	1
4901784	10	C	10/13/2015	10:47	-129.690	46.519	0	48.40	0	16.0050	0	32.2930	0	23.668	0	47.995	0	246.8	4	99.7	4	-1E+10	1	-1E+10	1	-1E+10	1	-1E+10	1	-1E+10	1	-1E+10	1
4901784	10	C	10/13/2015	10:47	-129.690	46.519	0	49.50	0	15.6090	0	32.3200	0	23.777	0	49.085	0	252.1	4	101.1	4	-1E+10	1	-1E+10	1	-1E+10	1	-1E+10	1	-1E+10	1	-1E+10	1
4901784	10	C	10/13/2015	10:47	-129.690	46.519	0	50.70	0	15.2080	0	32.3070	0	23.854	0	50.275	0	255.6	4	101.7	4	-1E+10	1	-1E+10	1	-1E+10	1	-1E+10	1	-1E+10	1	-1E+10	1
4901784	10	C	10/13/2015	10:47	-129.690	46.519	0	52.00	0	14.3890	0	32.3010	0	24.024	0	51.564	0	261.2	4	102.2	4	-1E+10	1	-1E+10	1	-1E+10	1	-1E+10	1	-1E+10	1	-1E+10	1
4901784	10	C	10/13/2015	10:47	-129.690	46.519	0	53.40	0	13.4450	0	32.2800	0	24.201	0	52.952	0	266.7	4	102.4	4	-1E+10	1	-1E+10	1	-1E+10	1	-1E+10	1	-1E+10	1	-1E+10	1
4901784	10	C	10/13/2015	10:47	-129.690	46.519	0	54.90	0	12.9890	0	32.2980	0	24.305	0	54.439	0	267.7	4	101.8	4	-1E+10	1	-1E+10	1	-1E+10	1	-1E+10	1	-1E+10	1	-1E+10	1
4901784	10	C	10/13/2015	10:47	-129.690	46.519	0	56.60	0	12.9280	0	32.3720	0	24.374	0	56.125	0	267.2	4	101.6	4	-1E+10	1	-1E+10	1	-1E+10	1	-1E+10	1	-1E+10	1	-1E+10	1
4901784	10	C	10/13/2015	10:47	-129.690	46.519	0	58.20	0	12.6330	0	32.4030	0	24.455	0	57.711	0	265.2	4	100.2	4	-1E+10	1	-1E+10	1	-1E+10	1	-1E+10	1	-1E+10	1	-1E+10	1
4901784	10	C	10/13/2015	10:47	-129.690	46.519	0	59.90	0	12.1700	0	32.3630	0	24.512	0	59.397	0	265.0	4	99.2	4	-1E+10	1	-1E+10	1	-1E+10	1	-1E+10	1	-1E+10	1	-1E+10	1
4901784	10	C	10/13/2015	10:47	-129.690	46.519	0	61.70	0	11.9400	0	32.3640	0	24.556	0	61.181	0	263.8	4	98.2	4	-1E+10	1	-1E+10	1	-1E+10	1	-1E+10	1	-1E+10	1	-1E+10	1
4901784	10	C	10/13/2015	10:47	-129.690	46.519	0	63.40	0	11.7800	0	32.3690	0	24.589	0	62.867	0	262.5	4	97.4	4	-1E+10	1	-1E+10	1	-1E+10	1	-1E+10	1	-1E+10	1	-1E+10	1
4901784	10	C	10/13/2015	10:47	-129.690	46.519	0	65.10	0	11.6210	0	32.3750	0	24.623	0	64.552	0	260.6	4	96.4	4	-1E+10	1	-1E+10	1	-1E+10	1	-1E+10	1	-1E+10	1	-1E+10	1
4901784	10	C	10/13/2015	10:47	-129.690	46.519	0	66.80	0	11.5260	0	32.3820	0	24.645	0	66.238	0	259.1	4	95.7	4	-1E+10	1	-1E+10	1	-1E+10	1	-1E+10	1	-1E+10	1	-1E+10	1
4901784	10	C	10/13/2015	10:47	-129.690	46.519	0	68.60	0	11.4350	0	32.4060	0	24.681	0	68.022	0	256.7	4	94.6	4	-1E+10	1	-1E+10	1	-1E+10	1	-1E+10	1	-1E+10	1	-1E+10	1
4901784	10	C	10/13/2015	10:47	-129.690	46.519	0	70.90	0	11.3870	0	32.4170	0	24.698	0	70.303	0	254.8	4	93.8	4	-1E+10	1	-1E+10	1	-1E+10	1	-1E+10	1	-1E+10	1	-1E+10	1
4901784	10	C	10/13/2015	10:47	-129.690	46.519	0	72.70	0	11.3890	0	32.4240	0	24.703	0	72.087	0	251.8	4	92.7	4	-1E+10	1	-1E+10	1	-1E+10	1	-1E+10	1	-1E+10	1	-1E+10	1
4901784	10	C	10/13/2015	10:47	-129.690	46.519	0	74.20	0	11.2350	0	32.4600	0	24.759	0	73.574	0	249.7	4	91.7	4	-1E+10	1	-1E+10	1	-1E+10	1	-1E+10	1	-1E+10	1	-1E+10	1
4901784	10	C	10/13/2015	10:47	-129.690	46.519	0	75.70	0	11.1750	0	32.4630	0	24.772	0	75.061	0	247.4	4	90.7	4	-1E+10	1	-1E+10	1	-1E+10	1	-1E+10	1	-1E+10	1	-1E+10	1
4901784	10	C	10/13/2015	10:47	-129.690	46.519	0	77.20	0	11.1240	0	32.4590	0	24.778	0	76.548	0	244.8	4	89.7	4	-1E+10	1	-1E+10	1	-1E+10	1	-1E+10	1	-1E+10	1	-1E+10	1
4901784	10	C	10/13/2015	10:47	-129.690	46.519	0	78.60	0	10.9790	0	32.4500	0	24.796	0	77.936	0	242.2	4	88.4	4	-1E+10	1	-1E+10	1	-1E+10	1	-1E+10	1	-1E+10	1	-1E+10	1
4901784	10	C	10/13/2015	10:47	-129.690	46.519	0	80.20	0	10.8850	0	32.4460	0	24.810	0	79.522	0	239.3	4	87.2	4	-1E+10	1	-1E+10	1	-1E+10	1	-1E+10	1	-1E+10	1	-1E+10	1
4901784	10	C	10/13/2015	10:47	-129.690	46.519	0	81.70	0	10.6770	0	32.4560	0	24.853	0	81.009	0	237.1	4	86.0	4	-1E+10	1	-1E+10	1	-1E+10	1	-1E+10	1	-1E+10	1	-1E+10	1
4901784	10	C	10/13/2015	10:47	-129.690	46.519	0	83.30	0	10.5870	0	32.4630	0	24.874	0	82.596	0	235.5	4	85.3	4	-1E+10	1	-1E+10	1	-1E+10	1	-1E+10	1	-1E+10	1	-1E+10	1
4901784	10	C	10/13/2015	10:47	-129.690	46.519	0	84.90	0	10.5610	0	32.4680	0	24.883	0	84.182	0	233.8	4	84.6	4	-1E+10	1	-1E+10	1	-1E+10	1	-1E+10	1	-1E+10	1	-1E+10	1
4901784	10	C	10/13/2015	10:47	-129.690	46.519	0	86.60	0	10.4900	0	32.5050	0	24.924	0	85.867	0	232.0	4	83.9	4	-1E+10	1	-1E+10	1	-1E+10	1	-1E+10	1	-1E+10	1	-1E+10	1
4901784	10	C	10/13/2015	10:47	-129.690	46.519	0	88.20	0	10.4380	0	32.5190	0	24.944	0	87.453	0	229.8	4	83.0	4	-1E+10	1	-1E+10	1	-1E+10	1	-1E+10	1	-1E+10	1	-1E+10	1
4901784	10	C	10/13/2015	10:47	-129.690	46.519	0	89.80	0	10.3720	0	32.5300	0	24.963	0	89.039	0	227.9	4	82.2	4	-1E+10	1	-1E+10	1	-1E+10	1	-1E+10	1	-1E+10	1	-1E+10	1
4901784	10	C	10/13/2015	10:47	-129.690	46.519	0	91.50	0	10.2320	0	32.5650	0	25.014	0	90.724	0	226.7	4	81.5	4	-1E+10	1	-1E+10	1	-1E+10	1	-1E+10	1	-1E+10	1	-1E+10	1
4901784	10	C	10/13/2015	10:47	-129.690	46.519	0	93.20	0	10.2140	0	32.5790	0	25.028	0	92.410	0	225.5	4	81.1	4	-1E+10	1	-1E+10	1	-1E+10	1	-1E+10	1	-1E+10	1	-1E+10	1
4901784	10	C	10/13/2015	10:47	-129.690	46.519	0	94.90	0	10.1850	0	32.5970	0	25.047	0	94.095	0	224.0	4	80.5	4	-1E+10	1	-1E+10	1	-1E+10	1	-1E+10	1	-1E+10	1	-1E+10	1
4901784	10	C	10/13/2015	10:47	-129.690	46.519	0	96.60	0	10.1050	0	32.5990	0	25.062	0	95.780	0	222.8	4	79.9	4	-1E+10	1	-1E+10	1	-1E+10	1	-1E+10	1	-1E+10	1	-1E+10	1
4901784	10	C	10/13/2015	10:47	-129.690	46.519	0	98.30	0	10.0290	0	32.6080	0	25.082	0	97.465	0	221.8	4	79.5	4	-1E+10	1	-1E+10	1	-1E+10	1	-1E+10	1	-1E+10	1	-1E+10	1
4901784	10	C	10/13/2015	10:47	-129.690	46.519	0	100.30	0	9.9650	0	32.6750	0	25.145	0	99.448	0	221.0	4	79.1	4	-1E+10	1	-1E+10	1	-1E+10	1	-1E+10	1	-1E+10	1	-1E+10	1
4901784	10	C	10/13/2015	10:47	-129.690	46.519	0	102.40	0	9.9680	0	32.7100	0	25.172	0	101.529	0	219.2	4	78.5	4	-1E+10	1	-1E+10	1	-1E+10	1	-1E+10	1	-1E+10	1	-1E+10	1
4901784	10	C	10/13/2015	10:47	-129.690	46.519	0	104.50	0	9.8650	0	32.7210	0	25.197	0	103.611	0	216.6	4	77.4	4	-1E+10	1	-1E+10	1	-1E+10	1	-1E+10	1	-1E+10	1	-1E+10	1
4901784	10	C	10/13/2015	10:47	-129.690	46.519	0	107.50	0	9.7790	0	32.7470	0	25.232	0	106.585	0	212.6	4	75.8	4	-1E+10	1	-1E+10	1	-1E+10	1	-1E+10	1	-1E+10	1	-1E+10	1
4901784	10	C	10/13/2015	10:47	-129.690	46.519	0	110.50	0	9.4920	0	32.7760	0	25.301	0	109.558	0	207.1	4	73.4	4	-1E+10	1	-1E+10	1	-1E+10	1	-1E+10	1	-1E+10	1	-1E+10	1
4901784	10	C	10/13/2015	10:47	-129.690	46.519	0	112.80	0	9.2590	0	32.8000	0	25.357	0	111.838	0	203.6	4	71.8	4	-1E+10	1	-1E+10	1	-1E+10	1	-1E+10	1	-1E+10	1	-1E+10	1
4901784	10	C	10/13/2015	10:47	-129.690	46.519	0	115.10	0	9.0110	0	32.8300	0	25.420	0	114.118	0	201.2	4	70.6	4	-1E+10	1	-1E+10	1	-1E+10	1	-1E+10	1	-1E+10	1	-1E+10	1
4901784	10	C	10/13/2015	10:47	-129.690	46.519	0	117.50	0	8.8070	0	32.8900	0	25.498	0	116.497	0	200.5	4	70.1	4	-1E+10	1	-1E+10	1	-1E+10	1	-1E+10	1	-1E+10	1	-1E+10	1
4901784	10	C	10/13/2015	10:47	-129.690	46.519	0	119.70	0	8.7200	0	32.9100	0	25.527	0	118.677	0	199.6	4	69.6	4	-1E+10	1	-1E+10	1	-1E+10	1	-1E+10	1	-1E+10	1	-1E+10	1
4901784	10	C	10/13/2015	10:47	-129.690	46.519	0	122.10	0	8.6650	0	32.9840	0	25.594	0	121.056	0	199.1	4	69.4	4	-1E+10	1	-1E+10	1	-1E+10	1	-1E+10	1	-1E+10	1	-1E+10	1
4901784	10	C	10/13/2015	10:47	-129.690	46.519	0	125.00	0	8.5590	0	33.0180	0	25.637	0	123.930	0	196.1	4	68.2	4	-1E+10	1	-1E+10	1	-1E+10	1	-1E+10	1	-1E+10	1	-1E+10	1
4901784	10	C	10/13/2015	10:47	-129.690	46.519	0	127.80	0	8.4220	0	33.0410	0	25.675	0	126.706	0	192.8	4	66.9	4	-1E+10	1	-1E+10	1	-1E+10	1	-1E+10	1	-1E+10	1	-1E+10	1
4901784	10	C	10/13/2015	10:47	-129.690	46.519	0	130.00	0	8.2740	0	33.0900	0	25.736	0	128.886	0	189.8	4	65.6	4	-1E+10	1	-1E+10	1	-1E+10	1	-1E+10	1	-1E+10	1	-1E+10	1
4901784	10	C	10/13/2015	10:47	-129.690	46.519	0	132.30	0	8.1950	0	33.0980	0	25.754	0	131.166	0	188.4	4	65.1	4	-1E+10	1	-1E+10	1	-1E+10	1	-1E+10	1	-1E+10	1	-1E+10	1
4901784	10	C	10/13/2015	10:47	-129.690	46.519	0	135.40	0	8.1000	0	33.1280	0	25.791	0	134.238	0	186.6	4	64.3	4	-1E+10	1	-1E+10	1	-1E+10	1	-1E+10	1	-1E+10	1	-1E+10	1
4901784	10	C	10/13/2015	10:47	-129.690	46.519	0	137.90	0	8.0450	0	33.1660	0	25.829	0	136.716	0	185.5	4	63.9	4	-1E+10	1	-1E+10	1	-1E+10	1	-1E+10	1	-1E+10	1	-1E+10	1
4901784	10	C	10/13/2015	10:47	-129.690	46.519	0	140.40	0	7.9580	0	33.2230	0	25.887	0	139.193	0	184.6	4	63.4	4	-1E+10	1	-1E+10	1	-1E+10	1	-1E+10	1	-1E+10	1	-1E+10	1
4901784	10	C	10/13/2015	10:47	-129.690	46.519	0	142.80	0	7.9480	0	33.2360	0	25.899	0	141.572	0	183.1	4	62.9	4	-1E+10	1	-1E+10	1	-1E+10	1	-1E+10	1	-1E+10	1	-1E+10	1
4901784	10	C	10/13/2015	10:47	-129.690	46.519	0	145.30	0	7.9370	0	33.2470	0	25.909	0	144.050	0	180.3	4	62.0	4	-1E+10	1	-1E+10	1	-1E+10	1	-1E+10	1	-1E+10	1	-1E+10	1
4901784	10	C	10/13/2015	10:47	-129.690	46.519	0	147.80	0	7.9320	0	33.2780	0	25.934	0	146.527	0	177.0	4	60.8	4	-1E+10	1	-1E+10	1	-1E+10	1	-1E+10	1	-1E+10	1	-1E+10	1
4901784	10	C	10/13/2015	10:47	-129.690	46.519	0	149.60	0	7.8960	0	33.2920	0	25.950	0	148.311	0	176.1	4	60.5	4	-1E+10	1	-1E+10	1	-1E+10	1	-1E+10	1	-1E+10	1	-1E+10	1
4901784	10	C	10/13/2015	10:47	-129.690	46.519	0	152.20	0	7.8590	0	33.3410	0	25.994	0	150.888	0	174.3	4	59.8	4	-1E+10	1	-1E+10	1	-1E+10	1	-1E+10	1	-1E+10	1	-1E+10	1
4901784	10	C	10/13/2015	10:47	-129.690	46.519	0	154.90	0	7.8490	0	33.3650	0	26.014	0	153.563	0	172.8	4	59.3	4	-1E+10	1	-1E+10	1	-1E+10	1	-1E+10	1	-1E+10	1	-1E+10	1
4901784	10	C	10/13/2015	10:47	-129.690	46.519	0	157.50	0	7.8070	0	33.3950	0	26.044	0	156.140	0	173.1	4	59.4	4	-1E+10	1	-1E+10	1	-1E+10	1	-1E+10	1	-1E+10	1	-1E+10	1
4901784	10	C	10/13/2015	10:47	-129.690	46.519	0	160.20	0	7.7850	0	33.4140	0	26.062	0	158.816	0	171.7	4	58.9	4	-1E+10	1	-1E+10	1	-1E+10	1	-1E+10	1	-1E+10	1	-1E+10	1
4901784	10	C	10/13/2015	10:47	-129.690	46.519	0	162.80	0	7.7580	0	33.4550	0	26.098	0	161.392	0	166.9	4	57.2	4	-1E+10	1	-1E+10	1	-1E+10	1	-1E+10	1	-1E+10	1	-1E+10	1
4901784	10	C	10/13/2015	10:47	-129.690	46.519	0	165.40	0	7.7700	0	33.4970	0	26.130	0	163.969	0	161.8	4	55.5	4	-1E+10	1	-1E+10	1	-1E+10	1	-1E+10	1	-1E+10	1	-1E+10	1
4901784	10	C	10/13/2015	10:47	-129.690	46.519	0	167.20	0	7.7570	0	33.5180	0	26.148	0	165.752	0	161.8	4	55.5	4	-1E+10	1	-1E+10	1	-1E+10	1	-1E+10	1	-1E+10	1	-1E+10	1
4901784	10	C	10/13/2015	10:47	-129.690	46.519	0	170.00	0	7.7120	0	33.5410	0	26.173	0	168.527	0	158.2	4	54.2	4	-1E+10	1	-1E+10	1	-1E+10	1	-1E+10	1	-1E+10	1	-1E+10	1
4901784	10	C	10/13/2015	10:47	-129.690	46.519	0	172.80	0	7.7130	0	33.5580	0	26.186	0	171.302	0	153.6	4	52.6	4	-1E+10	1	-1E+10	1	-1E+10	1	-1E+10	1	-1E+10	1	-1E+10	1
4901784	10	C	10/13/2015	10:47	-129.690	46.519	0	175.00	0	7.7120	0	33.5690	0	26.195	0	173.482	0	152.4	4	52.2	4	-1E+10	1	-1E+10	1	-1E+10	1	-1E+10	1	-1E+10	1	-1E+10	1
4901784	10	C	10/13/2015	10:47	-129.690	46.519	0	177.40	0	7.7010	0	33.5820	0	26.206	0	175.860	0	152.2	4	52.1	4	-1E+10	1	-1E+10	1	-1E+10	1	-1E+10	1	-1E+10	1	-1E+10	1
4901784	10	C	10/13/2015	10:47	-129.690	46.519	0	179.70	0	7.6400	0	33.6080	0	26.236	0	178.139	0	152.4	4	52.1	4	-1E+10	1	-1E+10	1	-1E+10	1	-1E+10	1	-1E+10	1	-1E+10	1
4901784	10	C	10/13/2015	10:47	-129.690	46.519	0	182.70	0	7.6220	0	33.6300	0	26.256	0	181.111	0	152.1	4	52.0	4	-1E+10	1	-1E+10	1	-1E+10	1	-1E+10	1	-1E+10	1	-1E+10	1
4901784	10	C	10/13/2015	10:47	-129.690	46.519	0	185.10	0	7.6060	0	33.6470	0	26.271	0	183.489	0	153.1	4	52.4	4	-1E+10	1	-1E+10	1	-1E+10	1	-1E+10	1	-1E+10	1	-1E+10	1
4901784	10	C	10/13/2015	10:47	-129.690	46.519	0	187.60	0	7.5940	0	33.6720	0	26.293	0	185.967	0	154.1	4	52.7	4	-1E+10	1	-1E+10	1	-1E+10	1	-1E+10	1	-1E+10	1	-1E+10	1
4901784	10	C	10/13/2015	10:47	-129.690	46.519	0	190.00	0	7.5870	0	33.6930	0	26.310	0	188.345	0	155.1	4	53.1	4	-1E+10	1	-1E+10	1	-1E+10	1	-1E+10	1	-1E+10	1	-1E+10	1
4901784	10	C	10/13/2015	10:47	-129.690	46.519	0	192.50	0	7.5900	0	33.7120	0	26.325	0	190.822	0	155.6	4	53.2	4	-1E+10	1	-1E+10	1	-1E+10	1	-1E+10	1	-1E+10	1	-1E+10	1
4901784	10	C	10/13/2015	10:47	-129.690	46.519	0	194.90	0	7.5780	0	33.7190	0	26.332	0	193.200	0	154.4	4	52.8	4	-1E+10	1	-1E+10	1	-1E+10	1	-1E+10	1	-1E+10	1	-1E+10	1
4901784	10	C	10/13/2015	10:47	-129.690	46.519	0	197.30	0	7.5340	0	33.7440	0	26.358	0	195.578	0	153.6	4	52.5	4	-1E+10	1	-1E+10	1	-1E+10	1	-1E+10	1	-1E+10	1	-1E+10	1
4901784	10	C	10/13/2015	10:47	-129.690	46.519	0	199.80	0	7.5230	0	33.7500	0	26.364	0	198.055	0	153.4	4	52.4	4	-1E+10	1	-1E+10	1	-1E+10	1	-1E+10	1	-1E+10	1	-1E+10	1
4901784	10	C	10/13/2015	10:47	-129.690	46.519	0	202.30	0	7.5220	0	33.7510	0	26.365	0	200.531	0	151.9	4	51.9	4	-1E+10	1	-1E+10	1	-1E+10	1	-1E+10	1	-1E+10	1	-1E+10	1
4901784	10	C	10/13/2015	10:47	-129.690	46.519	0	204.80	0	7.5020	0	33.7580	0	26.374	0	203.008	0	149.6	4	51.1	4	-1E+10	1	-1E+10	1	-1E+10	1	-1E+10	1	-1E+10	1	-1E+10	1
4901784	10	C	10/13/2015	10:47	-129.690	46.519	0	207.30	0	7.4720	0	33.7690	0	26.386	0	205.485	0	146.7	4	50.1	4	-1E+10	1	-1E+10	1	-1E+10	1	-1E+10	1	-1E+10	1	-1E+10	1
4901784	10	C	10/13/2015	10:47	-129.690	46.519	0	209.90	0	7.4410	0	33.7790	0	26.399	0	208.061	0	143.6	4	49.0	4	-1E+10	1	-1E+10	1	-1E+10	1	-1E+10	1	-1E+10	1	-1E+10	1
4901784	10	C	10/13/2015	10:47	-129.690	46.519	0	212.50	0	7.4190	0	33.7840	0	26.406	0	210.637	0	139.4	4	47.5	4	-1E+10	1	-1E+10	1	-1E+10	1	-1E+10	1	-1E+10	1	-1E+10	1
4901784	10	C	10/13/2015	10:47	-129.690	46.519	0	215.00	0	7.4000	0	33.7880	0	26.412	0	213.114	0	136.2	4	46.4	4	-1E+10	1	-1E+10	1	-1E+10	1	-1E+10	1	-1E+10	1	-1E+10	1
4901784	10	C	10/13/2015	10:47	-129.690	46.519	0	217.60	0	7.3740	0	33.8000	0	26.425	0	215.690	0	133.3	4	45.4	4	-1E+10	1	-1E+10	1	-1E+10	1	-1E+10	1	-1E+10	1	-1E+10	1
4901784	10	C	10/13/2015	10:47	-129.690	46.519	0	220.20	0	7.3510	0	33.8090	0	26.435	0	218.266	0	131.9	4	44.9	4	-1E+10	1	-1E+10	1	-1E+10	1	-1E+10	1	-1E+10	1	-1E+10	1
4901784	10	C	10/13/2015	10:47	-129.690	46.519	0	222.60	0	7.3240	0	33.8210	0	26.448	0	220.643	0	130.0	4	44.3	4	-1E+10	1	-1E+10	1	-1E+10	1	-1E+10	1	-1E+10	1	-1E+10	1
4901784	10	C	10/13/2015	10:47	-129.690	46.519	0	225.20	0	7.2950	0	33.8310	0	26.460	0	223.219	0	128.5	4	43.7	4	-1E+10	1	-1E+10	1	-1E+10	1	-1E+10	1	-1E+10	1	-1E+10	1
4901784	10	C	10/13/2015	10:47	-129.690	46.519	0	227.70	0	7.2670	0	33.8420	0	26.473	0	225.696	0	127.4	4	43.3	4	-1E+10	1	-1E+10	1	-1E+10	1	-1E+10	1	-1E+10	1	-1E+10	1
4901784	10	C	10/13/2015	10:47	-129.690	46.519	0	230.30	0	7.2570	0	33.8450	0	26.477	0	228.271	0	126.9	4	43.1	4	-1E+10	1	-1E+10	1	-1E+10	1	-1E+10	1	-1E+10	1	-1E+10	1
4901784	10	C	10/13/2015	10:47	-129.690	46.519	0	232.80	0	7.2450	0	33.8460	0	26.479	0	230.748	0	126.5	4	43.0	4	-1E+10	1	-1E+10	1	-1E+10	1	-1E+10	1	-1E+10	1	-1E+10	1
4901784	10	C	10/13/2015	10:47	-129.690	46.519	0	235.30	0	7.2170	0	33.8510	0	26.487	0	233.224	0	125.9	4	42.8	4	-1E+10	1	-1E+10	1	-1E+10	1	-1E+10	1	-1E+10	1	-1E+10	1
4901784	10	C	10/13/2015	10:47	-129.690	46.519	0	237.80	0	7.1660	0	33.8590	0	26.500	0	235.701	0	124.3	4	42.2	4	-1E+10	1	-1E+10	1	-1E+10	1	-1E+10	1	-1E+10	1	-1E+10	1
4901784	10	C	10/13/2015	10:47	-129.690	46.519	0	240.50	0	7.1260	0	33.8690	0	26.514	0	238.376	0	123.3	4	41.8	4	-1E+10	1	-1E+10	1	-1E+10	1	-1E+10	1	-1E+10	1	-1E+10	1
4901784	10	C	10/13/2015	10:47	-129.690	46.519	0	242.20	0	7.1150	0	33.8700	0	26.516	0	240.060	0	123.3	4	41.8	4	-1E+10	1	-1E+10	1	-1E+10	1	-1E+10	1	-1E+10	1	-1E+10	1
4901784	10	C	10/13/2015	10:47	-129.690	46.519	0	244.80	0	7.1030	0	33.8700	0	26.518	0	242.635	0	123.7	4	41.9	4	-1E+10	1	-1E+10	1	-1E+10	1	-1E+10	1	-1E+10	1	-1E+10	1
4901784	10	C	10/13/2015	10:47	-129.690	46.519	0	247.40	0	7.0590	0	33.8760	0	26.529	0	245.210	0	124.9	4	42.3	4	-1E+10	1	-1E+10	1	-1E+10	1	-1E+10	1	-1E+10	1	-1E+10	1
4901784	10	C	10/13/2015	10:47	-129.690	46.519	0	250.30	0	7.0110	0	33.8750	0	26.534	0	248.083	0	126.4	4	42.7	4	-1E+10	1	-1E+10	1	-1E+10	1	-1E+10	1	-1E+10	1	-1E+10	1
4901784	10	C	10/13/2015	10:47	-129.690	46.519	0	253.10	0	6.9520	0	33.8770	0	26.544	0	250.857	0	127.7	4	43.1	4	-1E+10	1	-1E+10	1	-1E+10	1	-1E+10	1	-1E+10	1	-1E+10	1
4901784	10	C	10/13/2015	10:47	-129.690	46.519	0	254.90	0	6.9220	0	33.8770	0	26.548	0	252.640	0	128.4	4	43.3	4	-1E+10	1	-1E+10	1	-1E+10	1	-1E+10	1	-1E+10	1	-1E+10	1
4901784	10	C	10/13/2015	10:47	-129.690	46.519	0	257.70	0	6.8930	0	33.8750	0	26.551	0	255.413	0	129.6	4	43.7	4	-1E+10	1	-1E+10	1	-1E+10	1	-1E+10	1	-1E+10	1	-1E+10	1
4901784	10	C	10/13/2015	10:47	-129.690	46.519	0	260.80	0	6.8330	0	33.8720	0	26.556	0	258.484	0	130.4	4	43.9	4	-1E+10	1	-1E+10	1	-1E+10	1	-1E+10	1	-1E+10	1	-1E+10	1
4901784	10	C	10/13/2015	10:47	-129.690	46.519	0	262.20	0	6.7960	0	33.8720	0	26.561	0	259.870	0	130.1	4	43.8	4	-1E+10	1	-1E+10	1	-1E+10	1	-1E+10	1	-1E+10	1	-1E+10	1
4901784	10	C	10/13/2015	10:47	-129.690	46.519	0	265.30	0	6.7400	0	33.8730	0	26.570	0	262.941	0	127.6	4	42.9	4	-1E+10	1	-1E+10	1	-1E+10	1	-1E+10	1	-1E+10	1	-1E+10	1
4901784	10	C	10/13/2015	10:47	-129.690	46.519	0	267.60	0	6.6850	0	33.8770	0	26.580	0	265.219	0	125.2	4	42.0	4	-1E+10	1	-1E+10	1	-1E+10	1	-1E+10	1	-1E+10	1	-1E+10	1
4901784	10	C	10/13/2015	10:47	-129.690	46.519	0	269.90	0	6.6690	0	33.8840	0	26.588	0	267.497	0	121.3	4	40.7	4	-1E+10	1	-1E+10	1	-1E+10	1	-1E+10	1	-1E+10	1	-1E+10	1
4901784	10	C	10/13/2015	10:47	-129.690	46.519	0	272.40	0	6.6660	0	33.8930	0	26.595	0	269.973	0	119.1	4	40.0	4	-1E+10	1	-1E+10	1	-1E+10	1	-1E+10	1	-1E+10	1	-1E+10	1
4901784	10	C	10/13/2015	10:47	-129.690	46.519	0	274.70	0	6.6670	0	33.8930	0	26.595	0	272.251	0	118.3	4	39.7	4	-1E+10	1	-1E+10	1	-1E+10	1	-1E+10	1	-1E+10	1	-1E+10	1
4901784	10	C	10/13/2015	10:47	-129.690	46.519	0	277.10	0	6.6680	0	33.8930	0	26.595	0	274.628	0	117.4	4	39.4	4	-1E+10	1	-1E+10	1	-1E+10	1	-1E+10	1	-1E+10	1	-1E+10	1
4901784	10	C	10/13/2015	10:47	-129.690	46.519	0	279.60	0	6.6730	0	33.8960	0	26.597	0	277.104	0	116.7	4	39.1	4	-1E+10	1	-1E+10	1	-1E+10	1	-1E+10	1	-1E+10	1	-1E+10	1
4901784	10	C	10/13/2015	10:47	-129.690	46.519	0	282.90	0	6.6180	0	33.8960	0	26.604	0	280.372	0	117.8	4	39.5	4	-1E+10	1	-1E+10	1	-1E+10	1	-1E+10	1	-1E+10	1	-1E+10	1
4901784	10	C	10/13/2015	10:47	-129.690	46.519	0	285.30	0	6.5250	0	33.8880	0	26.610	0	282.749	0	118.1	4	39.5	4	-1E+10	1	-1E+10	1	-1E+10	1	-1E+10	1	-1E+10	1	-1E+10	1
4901784	10	C	10/13/2015	10:47	-129.690	46.519	0	287.90	0	6.5100	0	33.8900	0	26.614	0	285.324	0	115.5	4	38.6	4	-1E+10	1	-1E+10	1	-1E+10	1	-1E+10	1	-1E+10	1	-1E+10	1
4901784	10	C	10/13/2015	10:47	-129.690	46.519	0	290.30	0	6.4900	0	33.8950	0	26.620	0	287.701	0	112.3	4	37.5	4	-1E+10	1	-1E+10	1	-1E+10	1	-1E+10	1	-1E+10	1	-1E+10	1
4901784	10	C	10/13/2015	10:47	-129.690	46.519	0	292.80	0	6.4670	0	33.8980	0	26.626	0	290.177	0	109.1	4	36.4	4	-1E+10	1	-1E+10	1	-1E+10	1	-1E+10	1	-1E+10	1	-1E+10	1
4901784	10	C	10/13/2015	10:47	-129.690	46.519	0	295.30	0	6.4860	0	33.9070	0	26.630	0	292.653	0	104.8	4	35.0	4	-1E+10	1	-1E+10	1	-1E+10	1	-1E+10	1	-1E+10	1	-1E+10	1
4901784	10	C	10/13/2015	10:47	-129.690	46.519	0	297.80	0	6.4720	0	33.9140	0	26.638	0	295.129	0	101.7	4	34.0	4	-1E+10	1	-1E+10	1	-1E+10	1	-1E+10	1	-1E+10	1	-1E+10	1
4901784	10	C	10/13/2015	10:47	-129.690	46.519	0	300.30	0	6.4760	0	33.9190	0	26.641	0	297.604	0	98.6	4	32.9	4	-1E+10	1	-1E+10	1	-1E+10	1	-1E+10	1	-1E+10	1	-1E+10	1
4901784	10	C	10/13/2015	10:47	-129.690	46.519	0	302.80	0	6.4500	0	33.9240	0	26.648	0	300.080	0	96.1	4	32.1	4	-1E+10	1	-1E+10	1	-1E+10	1	-1E+10	1	-1E+10	1	-1E+10	1
4901784	10	C	10/13/2015	10:47	-129.690	46.519	0	305.30	0	6.4450	0	33.9290	0	26.653	0	302.556	0	93.4	4	31.2	4	-1E+10	1	-1E+10	1	-1E+10	1	-1E+10	1	-1E+10	1	-1E+10	1
4901784	10	C	10/13/2015	10:47	-129.690	46.519	0	307.80	0	6.4050	0	33.9330	0	26.661	0	305.031	0	92.5	4	30.8	4	-1E+10	1	-1E+10	1	-1E+10	1	-1E+10	1	-1E+10	1	-1E+10	1
4901784	10	C	10/13/2015	10:47	-129.690	46.519	0	310.30	0	6.3610	0	33.9330	0	26.667	0	307.507	0	91.5	4	30.5	4	-1E+10	1	-1E+10	1	-1E+10	1	-1E+10	1	-1E+10	1	-1E+10	1
4901784	10	C	10/13/2015	10:47	-129.690	46.519	0	312.80	0	6.3470	0	33.9350	0	26.671	0	309.983	0	90.3	4	30.1	4	-1E+10	1	-1E+10	1	-1E+10	1	-1E+10	1	-1E+10	1	-1E+10	1
4901784	10	C	10/13/2015	10:47	-129.690	46.519	0	315.30	0	6.3290	0	33.9370	0	26.674	0	312.458	0	88.7	4	29.5	4	-1E+10	1	-1E+10	1	-1E+10	1	-1E+10	1	-1E+10	1	-1E+10	1
4901784	10	C	10/13/2015	10:47	-129.690	46.519	0	317.80	0	6.3120	0	33.9380	0	26.677	0	314.934	0	86.4	4	28.8	4	-1E+10	1	-1E+10	1	-1E+10	1	-1E+10	1	-1E+10	1	-1E+10	1
4901784	10	C	10/13/2015	10:47	-129.690	46.519	0	320.30	0	6.2890	0	33.9410	0	26.683	0	317.409	0	83.3	4	27.7	4	-1E+10	1	-1E+10	1	-1E+10	1	-1E+10	1	-1E+10	1	-1E+10	1
4901784	10	C	10/13/2015	10:47	-129.690	46.519	0	322.80	0	6.2900	0	33.9480	0	26.688	0	319.885	0	80.3	4	26.7	4	-1E+10	1	-1E+10	1	-1E+10	1	-1E+10	1	-1E+10	1	-1E+10	1
4901784	10	C	10/13/2015	10:47	-129.690	46.519	0	325.30	0	6.2640	0	33.9520	0	26.695	0	322.360	0	78.8	4	26.2	4	-1E+10	1	-1E+10	1	-1E+10	1	-1E+10	1	-1E+10	1	-1E+10	1
4901784	10	C	10/13/2015	10:47	-129.690	46.519	0	327.70	0	6.2400	0	33.9530	0	26.699	0	324.737	0	77.6	4	25.8	4	-1E+10	1	-1E+10	1	-1E+10	1	-1E+10	1	-1E+10	1	-1E+10	1
4901784	10	C	10/13/2015	10:47	-129.690	46.519	0	330.20	0	6.2160	0	33.9540	0	26.703	0	327.212	0	76.4	4	25.4	4	-1E+10	1	-1E+10	1	-1E+10	1	-1E+10	1	-1E+10	1	-1E+10	1
4901784	10	C	10/13/2015	10:47	-129.690	46.519	0	332.70	0	6.1820	0	33.9560	0	26.708	0	329.688	0	75.1	4	24.9	4	-1E+10	1	-1E+10	1	-1E+10	1	-1E+10	1	-1E+10	1	-1E+10	1
4901784	10	C	10/13/2015	10:47	-129.690	46.519	0	335.10	0	6.1490	0	33.9580	0	26.714	0	332.064	0	74.0	4	24.5	4	-1E+10	1	-1E+10	1	-1E+10	1	-1E+10	1	-1E+10	1	-1E+10	1
4901784	10	C	10/13/2015	10:47	-129.690	46.519	0	337.70	0	6.1190	0	33.9610	0	26.720	0	334.638	0	72.8	4	24.1	4	-1E+10	1	-1E+10	1	-1E+10	1	-1E+10	1	-1E+10	1	-1E+10	1
4901784	10	C	10/13/2015	10:47	-129.690	46.519	0	340.20	0	6.1070	0	33.9610	0	26.722	0	337.114	0	71.5	4	23.7	4	-1E+10	1	-1E+10	1	-1E+10	1	-1E+10	1	-1E+10	1	-1E+10	1
4901784	10	C	10/13/2015	10:47	-129.690	46.519	0	342.70	0	6.0800	0	33.9660	0	26.729	0	339.589	0	70.4	4	23.3	4	-1E+10	1	-1E+10	1	-1E+10	1	-1E+10	1	-1E+10	1	-1E+10	1
4901784	10	C	10/13/2015	10:47	-129.690	46.519	0	345.20	0	6.0740	0	33.9650	0	26.729	0	342.064	0	69.2	4	22.9	4	-1E+10	1	-1E+10	1	-1E+10	1	-1E+10	1	-1E+10	1	-1E+10	1
4901784	10	C	10/13/2015	10:47	-129.690	46.519	0	347.70	0	6.0490	0	33.9700	0	26.737	0	344.539	0	68.0	4	22.5	4	-1E+10	1	-1E+10	1	-1E+10	1	-1E+10	1	-1E+10	1	-1E+10	1
4901784	10	C	10/13/2015	10:47	-129.690	46.519	0	350.10	0	6.0210	0	33.9730	0	26.742	0	346.916	0	67.5	4	22.3	4	-1E+10	1	-1E+10	1	-1E+10	1	-1E+10	1	-1E+10	1	-1E+10	1
4901784	10	C	10/13/2015	10:47	-129.690	46.519	0	352.70	0	6.0100	0	33.9720	0	26.743	0	349.490	0	67.2	4	22.2	4	-1E+10	1	-1E+10	1	-1E+10	1	-1E+10	1	-1E+10	1	-1E+10	1
4901784	10	C	10/13/2015	10:47	-129.690	46.519	0	355.20	0	5.9640	0	33.9720	0	26.749	0	351.965	0	66.6	4	22.0	4	-1E+10	1	-1E+10	1	-1E+10	1	-1E+10	1	-1E+10	1	-1E+10	1
4901784	10	C	10/13/2015	10:47	-129.690	46.519	0	357.70	0	5.9330	0	33.9720	0	26.753	0	354.440	0	65.6	4	21.6	4	-1E+10	1	-1E+10	1	-1E+10	1	-1E+10	1	-1E+10	1	-1E+10	1
4901784	10	C	10/13/2015	10:47	-129.690	46.519	0	360.20	0	5.9160	0	33.9730	0	26.756	0	356.915	0	64.3	4	21.2	4	-1E+10	1	-1E+10	1	-1E+10	1	-1E+10	1	-1E+10	1	-1E+10	1
4901784	10	C	10/13/2015	10:47	-129.690	46.519	0	362.70	0	5.8800	0	33.9770	0	26.763	0	359.390	0	63.5	4	20.9	4	-1E+10	1	-1E+10	1	-1E+10	1	-1E+10	1	-1E+10	1	-1E+10	1
4901784	10	C	10/13/2015	10:47	-129.690	46.519	0	365.30	0	5.8580	0	33.9770	0	26.766	0	361.964	0	62.9	4	20.7	4	-1E+10	1	-1E+10	1	-1E+10	1	-1E+10	1	-1E+10	1	-1E+10	1
4901784	10	C	10/13/2015	10:47	-129.690	46.519	0	367.10	0	5.8530	0	33.9770	0	26.767	0	363.746	0	62.3	4	20.5	4	-1E+10	1	-1E+10	1	-1E+10	1	-1E+10	1	-1E+10	1	-1E+10	1
4901784	10	C	10/13/2015	10:47	-129.690	46.519	0	369.70	0	5.8110	0	33.9800	0	26.774	0	366.320	0	61.5	4	20.3	4	-1E+10	1	-1E+10	1	-1E+10	1	-1E+10	1	-1E+10	1	-1E+10	1
4901784	10	C	10/13/2015	10:47	-129.690	46.519	0	372.30	0	5.8000	0	33.9810	0	26.776	0	368.894	0	60.7	4	20.0	4	-1E+10	1	-1E+10	1	-1E+10	1	-1E+10	1	-1E+10	1	-1E+10	1
4901784	10	C	10/13/2015	10:47	-129.690	46.519	0	374.80	0	5.7970	0	33.9820	0	26.778	0	371.369	0	59.7	4	19.6	4	-1E+10	1	-1E+10	1	-1E+10	1	-1E+10	1	-1E+10	1	-1E+10	1
4901784	10	C	10/13/2015	10:47	-129.690	46.519	0	377.30	0	5.7650	0	33.9830	0	26.782	0	373.844	0	59.4	4	19.5	4	-1E+10	1	-1E+10	1	-1E+10	1	-1E+10	1	-1E+10	1	-1E+10	1
4901784	10	C	10/13/2015	10:47	-129.690	46.519	0	379.90	0	5.7360	0	33.9840	0	26.787	0	376.418	0	58.7	4	19.3	4	-1E+10	1	-1E+10	1	-1E+10	1	-1E+10	1	-1E+10	1	-1E+10	1
4901784	10	C	10/13/2015	10:47	-129.690	46.519	0	382.60	0	5.6950	0	33.9870	0	26.794	0	379.090	0	57.8	4	19.0	4	-1E+10	1	-1E+10	1	-1E+10	1	-1E+10	1	-1E+10	1	-1E+10	1
4901784	10	C	10/13/2015	10:47	-129.690	46.519	0	385.30	0	5.6790	0	33.9880	0	26.797	0	381.763	0	57.2	4	18.8	4	-1E+10	1	-1E+10	1	-1E+10	1	-1E+10	1	-1E+10	1	-1E+10	1
4901784	10	C	10/13/2015	10:47	-129.690	46.519	0	387.90	0	5.6270	0	33.9860	0	26.802	0	384.337	0	56.7	4	18.6	4	-1E+10	1	-1E+10	1	-1E+10	1	-1E+10	1	-1E+10	1	-1E+10	1
4901784	10	C	10/13/2015	10:47	-129.690	46.519	0	389.70	0	5.5790	0	33.9900	0	26.811	0	386.119	0	55.9	4	18.3	4	-1E+10	1	-1E+10	1	-1E+10	1	-1E+10	1	-1E+10	1	-1E+10	1
4901784	10	C	10/13/2015	10:47	-129.690	46.519	0	392.40	0	5.5740	0	33.9920	0	26.813	0	388.791	0	55.1	4	18.0	4	-1E+10	1	-1E+10	1	-1E+10	1	-1E+10	1	-1E+10	1	-1E+10	1
4901784	10	C	10/13/2015	10:47	-129.690	46.519	0	395.10	0	5.5670	0	33.9930	0	26.814	0	391.464	0	54.1	4	17.7	4	-1E+10	1	-1E+10	1	-1E+10	1	-1E+10	1	-1E+10	1	-1E+10	1
4901784	10	C	10/13/2015	10:47	-129.690	46.519	0	397.00	0	5.5740	0	33.9960	0	26.816	0	393.345	0	53.2	4	17.4	4	-1E+10	1	-1E+10	1	-1E+10	1	-1E+10	1	-1E+10	1	-1E+10	1
4901784	10	C	10/13/2015	10:47	-129.690	46.519	0	399.70	0	5.5570	0	33.9990	0	26.820	0	396.017	0	52.4	4	17.2	4	-1E+10	1	-1E+10	1	-1E+10	1	-1E+10	1	-1E+10	1	-1E+10	1
4901784	10	C	10/13/2015	10:47	-129.690	46.519	0	402.40	0	5.5390	0	33.9980	0	26.822	0	398.690	0	51.6	4	16.9	4	-1E+10	1	-1E+10	1	-1E+10	1	-1E+10	1	-1E+10	1	-1E+10	1
4901784	10	C	10/13/2015	10:47	-129.690	46.519	0	405.20	0	5.5070	0	34.0020	0	26.829	0	401.461	0	50.5	4	16.5	4	-1E+10	1	-1E+10	1	-1E+10	1	-1E+10	1	-1E+10	1	-1E+10	1
4901784	10	C	10/13/2015	10:47	-129.690	46.519	0	407.90	0	5.4850	0	34.0060	0	26.835	0	404.134	0	49.5	4	16.2	4	-1E+10	1	-1E+10	1	-1E+10	1	-1E+10	1	-1E+10	1	-1E+10	1
4901784	10	C	10/13/2015	10:47	-129.690	46.519	0	409.80	0	5.4750	0	34.0080	0	26.837	0	406.014	0	49.1	4	16.0	4	-1E+10	1	-1E+10	1	-1E+10	1	-1E+10	1	-1E+10	1	-1E+10	1
4901784	10	C	10/13/2015	10:47	-129.690	46.519	0	412.50	0	5.4730	0	34.0100	0	26.839	0	408.687	0	48.4	4	15.8	4	-1E+10	1	-1E+10	1	-1E+10	1	-1E+10	1	-1E+10	1	-1E+10	1
4901784	10	C	10/13/2015	10:47	-129.690	46.519	0	415.30	0	5.4630	0	34.0120	0	26.842	0	411.458	0	47.9	4	15.6	4	-1E+10	1	-1E+10	1	-1E+10	1	-1E+10	1	-1E+10	1	-1E+10	1
4901784	10	C	10/13/2015	10:47	-129.690	46.519	0	417.10	0	5.4520	0	34.0130	0	26.844	0	413.239	0	47.7	4	15.6	4	-1E+10	1	-1E+10	1	-1E+10	1	-1E+10	1	-1E+10	1	-1E+10	1
4901784	10	C	10/13/2015	10:47	-129.690	46.519	0	419.90	0	5.4360	0	34.0140	0	26.847	0	416.011	0	47.4	4	15.5	4	-1E+10	1	-1E+10	1	-1E+10	1	-1E+10	1	-1E+10	1	-1E+10	1
4901784	10	C	10/13/2015	10:47	-129.690	46.519	0	422.60	0	5.4290	0	34.0140	0	26.848	0	418.683	0	46.9	4	15.3	4	-1E+10	1	-1E+10	1	-1E+10	1	-1E+10	1	-1E+10	1	-1E+10	1
4901784	10	C	10/13/2015	10:47	-129.690	46.519	0	425.00	0	5.4170	0	34.0160	0	26.851	0	421.058	0	46.6	4	15.2	4	-1E+10	1	-1E+10	1	-1E+10	1	-1E+10	1	-1E+10	1	-1E+10	1
4901784	10	C	10/13/2015	10:47	-129.690	46.519	0	427.60	0	5.3970	0	34.0160	0	26.853	0	423.632	0	45.9	4	15.0	4	-1E+10	1	-1E+10	1	-1E+10	1	-1E+10	1	-1E+10	1	-1E+10	1
4901784	10	C	10/13/2015	10:47	-129.690	46.519	0	429.90	0	5.3800	0	34.0200	0	26.858	0	425.908	0	45.2	4	14.7	4	-1E+10	1	-1E+10	1	-1E+10	1	-1E+10	1	-1E+10	1	-1E+10	1
4901784	10	C	10/13/2015	10:47	-129.690	46.519	0	432.30	0	5.3680	0	34.0210	0	26.861	0	428.283	0	44.9	4	14.6	4	-1E+10	1	-1E+10	1	-1E+10	1	-1E+10	1	-1E+10	1	-1E+10	1
4901784	10	C	10/13/2015	10:47	-129.690	46.519	0	435.40	0	5.3530	0	34.0230	0	26.864	0	431.351	0	44.3	4	14.4	4	-1E+10	1	-1E+10	1	-1E+10	1	-1E+10	1	-1E+10	1	-1E+10	1
4901784	10	C	10/13/2015	10:47	-129.690	46.519	0	437.80	0	5.3400	0	34.0240	0	26.866	0	433.726	0	44.1	4	14.4	4	-1E+10	1	-1E+10	1	-1E+10	1	-1E+10	1	-1E+10	1	-1E+10	1
4901784	10	C	10/13/2015	10:47	-129.690	46.519	0	440.20	0	5.3320	0	34.0250	0	26.868	0	436.101	0	43.8	4	14.2	4	-1E+10	1	-1E+10	1	-1E+10	1	-1E+10	1	-1E+10	1	-1E+10	1
4901784	10	C	10/13/2015	10:47	-129.690	46.519	0	442.70	0	5.3170	0	34.0260	0	26.871	0	438.575	0	43.4	4	14.1	4	-1E+10	1	-1E+10	1	-1E+10	1	-1E+10	1	-1E+10	1	-1E+10	1
4901784	10	C	10/13/2015	10:47	-129.690	46.519	0	445.10	0	5.3060	0	34.0280	0	26.874	0	440.951	0	43.1	4	14.0	4	-1E+10	1	-1E+10	1	-1E+10	1	-1E+10	1	-1E+10	1	-1E+10	1
4901784	10	C	10/13/2015	10:47	-129.690	46.519	0	447.60	0	5.3020	0	34.0280	0	26.874	0	443.425	0	42.7	4	13.9	4	-1E+10	1	-1E+10	1	-1E+10	1	-1E+10	1	-1E+10	1	-1E+10	1
4901784	10	C	10/13/2015	10:47	-129.690	46.519	0	450.00	0	5.2930	0	34.0280	0	26.875	0	445.800	0	42.2	4	13.7	4	-1E+10	1	-1E+10	1	-1E+10	1	-1E+10	1	-1E+10	1	-1E+10	1
4901784	10	C	10/13/2015	10:47	-129.690	46.519	0	452.50	0	5.2690	0	34.0300	0	26.879	0	448.274	0	41.7	4	13.6	4	-1E+10	1	-1E+10	1	-1E+10	1	-1E+10	1	-1E+10	1	-1E+10	1
4901784	10	C	10/13/2015	10:47	-129.690	46.519	0	454.90	0	5.2560	0	34.0320	0	26.883	0	450.649	0	41.3	4	13.4	4	-1E+10	1	-1E+10	1	-1E+10	1	-1E+10	1	-1E+10	1	-1E+10	1
4901784	10	C	10/13/2015	10:47	-129.690	46.519	0	457.40	0	5.2390	0	34.0330	0	26.885	0	453.122	0	40.8	4	13.3	4	-1E+10	1	-1E+10	1	-1E+10	1	-1E+10	1	-1E+10	1	-1E+10	1
4901784	10	C	10/13/2015	10:47	-129.690	46.519	0	459.90	0	5.2180	0	34.0360	0	26.890	0	455.596	0	40.3	4	13.1	4	-1E+10	1	-1E+10	1	-1E+10	1	-1E+10	1	-1E+10	1	-1E+10	1
4901784	10	C	10/13/2015	10:47	-129.690	46.519	0	462.40	0	5.2090	0	34.0370	0	26.892	0	458.070	0	39.9	4	13.0	4	-1E+10	1	-1E+10	1	-1E+10	1	-1E+10	1	-1E+10	1	-1E+10	1
4901784	10	C	10/13/2015	10:47	-129.690	46.519	0	464.90	0	5.1920	0	34.0390	0	26.896	0	460.544	0	39.5	4	12.8	4	-1E+10	1	-1E+10	1	-1E+10	1	-1E+10	1	-1E+10	1	-1E+10	1
4901784	10	C	10/13/2015	10:47	-129.690	46.519	0	467.40	0	5.1730	0	34.0410	0	26.899	0	463.018	0	39.1	4	12.7	4	-1E+10	1	-1E+10	1	-1E+10	1	-1E+10	1	-1E+10	1	-1E+10	1
4901784	10	C	10/13/2015	10:47	-129.690	46.519	0	470.00	0	5.1580	0	34.0420	0	26.902	0	465.591	0	38.6	4	12.5	4	-1E+10	1	-1E+10	1	-1E+10	1	-1E+10	1	-1E+10	1	-1E+10	1
4901784	10	C	10/13/2015	10:47	-129.690	46.519	0	472.50	0	5.1460	0	34.0410	0	26.903	0	468.064	0	37.9	4	12.3	4	-1E+10	1	-1E+10	1	-1E+10	1	-1E+10	1	-1E+10	1	-1E+10	1
4901784	10	C	10/13/2015	10:47	-129.690	46.519	0	475.10	0	5.1520	0	34.0470	0	26.907	0	470.637	0	37.4	4	12.1	4	-1E+10	1	-1E+10	1	-1E+10	1	-1E+10	1	-1E+10	1	-1E+10	1
4901784	10	C	10/13/2015	10:47	-129.690	46.519	0	477.60	0	5.1400	0	34.0490	0	26.910	0	473.111	0	37.0	4	12.0	4	-1E+10	1	-1E+10	1	-1E+10	1	-1E+10	1	-1E+10	1	-1E+10	1
4901784	10	C	10/13/2015	10:47	-129.690	46.519	0	480.20	0	5.1310	0	34.0500	0	26.912	0	475.683	0	36.6	4	11.9	4	-1E+10	1	-1E+10	1	-1E+10	1	-1E+10	1	-1E+10	1	-1E+10	1
4901784	10	C	10/13/2015	10:47	-129.690	46.519	0	482.80	0	5.1210	0	34.0520	0	26.914	0	478.256	0	36.3	4	11.8	4	-1E+10	1	-1E+10	1	-1E+10	1	-1E+10	1	-1E+10	1	-1E+10	1
4901784	10	C	10/13/2015	10:47	-129.690	46.519	0	484.50	0	5.1100	0	34.0520	0	26.916	0	479.938	0	36.1	4	11.7	4	-1E+10	1	-1E+10	1	-1E+10	1	-1E+10	1	-1E+10	1	-1E+10	1
4901784	10	C	10/13/2015	10:47	-129.690	46.519	0	487.20	0	5.0760	0	34.0540	0	26.921	0	482.609	0	35.9	4	11.6	4	-1E+10	1	-1E+10	1	-1E+10	1	-1E+10	1	-1E+10	1	-1E+10	1
4901784	10	C	10/13/2015	10:47	-129.690	46.519	0	489.90	0	5.0600	0	34.0550	0	26.924	0	485.281	0	35.7	4	11.5	4	-1E+10	1	-1E+10	1	-1E+10	1	-1E+10	1	-1E+10	1	-1E+10	1
4901784	10	C	10/13/2015	10:47	-129.690	46.519	0	492.50	0	5.0540	0	34.0560	0	26.925	0	487.853	0	35.3	4	11.4	4	-1E+10	1	-1E+10	1	-1E+10	1	-1E+10	1	-1E+10	1	-1E+10	1
4901784	10	C	10/13/2015	10:47	-129.690	46.519	0	495.20	0	5.0310	0	34.0590	0	26.930	0	490.524	0	34.8	4	11.3	4	-1E+10	1	-1E+10	1	-1E+10	1	-1E+10	1	-1E+10	1	-1E+10	1
4901784	10	C	10/13/2015	10:47	-129.690	46.519	0	497.00	0	5.0210	0	34.0600	0	26.932	0	492.305	0	34.7	4	11.2	4	-1E+10	1	-1E+10	1	-1E+10	1	-1E+10	1	-1E+10	1	-1E+10	1
4901784	10	C	10/13/2015	10:47	-129.690	46.519	0	499.60	0	5.0240	0	34.0600	0	26.932	0	494.878	0	34.3	4	11.1	4	-1E+10	1	-1E+10	1	-1E+10	1	-1E+10	1	-1E+10	1	-1E+10	1
4901784	10	C	10/13/2015	10:47	-129.690	46.519	0	505.00	0	4.9800	0	34.0640	0	26.940	0	500.220	0	33.7	4	10.9	4	-1E+10	1	-1E+10	1	-1E+10	1	-1E+10	1	-1E+10	1	-1E+10	1
4901784	10	C	10/13/2015	10:47	-129.690	46.519	0	509.50	0	4.9450	0	34.0650	0	26.945	0	504.672	0	33.1	4	10.7	4	-1E+10	1	-1E+10	1	-1E+10	1	-1E+10	1	-1E+10	1	-1E+10	1
4901784	10	C	10/13/2015	10:47	-129.690	46.519	0	514.90	0	4.9300	0	34.0710	0	26.951	0	510.014	0	31.9	4	10.3	4	-1E+10	1	-1E+10	1	-1E+10	1	-1E+10	1	-1E+10	1	-1E+10	1
4901784	10	C	10/13/2015	10:47	-129.690	46.519	0	520.20	0	4.9080	0	34.0750	0	26.957	0	515.257	0	31.0	4	10.0	4	-1E+10	1	-1E+10	1	-1E+10	1	-1E+10	1	-1E+10	1	-1E+10	1
4901784	10	C	10/13/2015	10:47	-129.690	46.519	0	525.50	0	4.8720	0	34.0800	0	26.965	0	520.500	0	30.0	4	9.7	4	-1E+10	1	-1E+10	1	-1E+10	1	-1E+10	1	-1E+10	1	-1E+10	1
4901784	10	C	10/13/2015	10:47	-129.690	46.519	0	529.90	0	4.8230	0	34.0840	0	26.974	0	524.853	0	29.7	4	9.6	4	-1E+10	1	-1E+10	1	-1E+10	1	-1E+10	1	-1E+10	1	-1E+10	1
4901784	10	C	10/13/2015	10:47	-129.690	46.519	0	534.40	0	4.8010	0	34.0840	0	26.976	0	529.304	0	29.4	4	9.5	4	-1E+10	1	-1E+10	1	-1E+10	1	-1E+10	1	-1E+10	1	-1E+10	1
4901784	10	C	10/13/2015	10:47	-129.690	46.519	0	539.80	0	4.7670	0	34.0880	0	26.983	0	534.646	0	28.5	4	9.2	4	-1E+10	1	-1E+10	1	-1E+10	1	-1E+10	1	-1E+10	1	-1E+10	1
4901784	10	C	10/13/2015	10:47	-129.690	46.519	0	545.20	0	4.7480	0	34.0920	0	26.989	0	539.987	0	27.6	4	8.9	4	-1E+10	1	-1E+10	1	-1E+10	1	-1E+10	1	-1E+10	1	-1E+10	1
4901784	10	C	10/13/2015	10:47	-129.690	46.519	0	549.80	0	4.7290	0	34.0960	0	26.994	0	544.537	0	26.9	4	8.6	4	-1E+10	1	-1E+10	1	-1E+10	1	-1E+10	1	-1E+10	1	-1E+10	1
4901784	10	C	10/13/2015	10:47	-129.690	46.519	0	554.40	0	4.7280	0	34.1000	0	26.997	0	549.087	0	25.8	4	8.3	4	-1E+10	1	-1E+10	1	-1E+10	1	-1E+10	1	-1E+10	1	-1E+10	1
4901784	10	C	10/13/2015	10:47	-129.690	46.519	0	559.90	0	4.7210	0	34.1070	0	27.004	0	554.527	0	24.7	4	7.9	4	-1E+10	1	-1E+10	1	-1E+10	1	-1E+10	1	-1E+10	1	-1E+10	1
4901784	10	C	10/13/2015	10:47	-129.690	46.519	0	565.40	0	4.7120	0	34.1140	0	27.010	0	559.967	0	23.9	4	7.7	4	-1E+10	1	-1E+10	1	-1E+10	1	-1E+10	1	-1E+10	1	-1E+10	1
4901784	10	C	10/13/2015	10:47	-129.690	46.519	0	570.10	0	4.6630	0	34.1160	0	27.017	0	564.615	0	23.9	4	7.7	4	-1E+10	1	-1E+10	1	-1E+10	1	-1E+10	1	-1E+10	1	-1E+10	1
4901784	10	C	10/13/2015	10:47	-129.690	46.519	0	574.70	0	4.6490	0	34.1170	0	27.020	0	569.165	0	23.3	4	7.5	4	-1E+10	1	-1E+10	1	-1E+10	1	-1E+10	1	-1E+10	1	-1E+10	1
4901784	10	C	10/13/2015	10:47	-129.690	46.519	0	580.40	0	4.6210	0	34.1220	0	27.027	0	574.802	0	22.6	4	7.2	4	-1E+10	1	-1E+10	1	-1E+10	1	-1E+10	1	-1E+10	1	-1E+10	1
4901784	10	C	10/13/2015	10:47	-129.690	46.519	0	584.60	0	4.6160	0	34.1270	0	27.031	0	578.956	0	21.8	4	7.0	4	-1E+10	1	-1E+10	1	-1E+10	1	-1E+10	1	-1E+10	1	-1E+10	1
4901784	10	C	10/13/2015	10:47	-129.690	46.519	0	589.60	0	4.6190	0	34.1340	0	27.037	0	583.901	0	20.8	4	6.7	4	-1E+10	1	-1E+10	1	-1E+10	1	-1E+10	1	-1E+10	1	-1E+10	1
4901784	10	C	10/13/2015	10:47	-129.690	46.519	0	594.50	0	4.6290	0	34.1400	0	27.040	0	588.746	0	20.1	4	6.4	4	-1E+10	1	-1E+10	1	-1E+10	1	-1E+10	1	-1E+10	1	-1E+10	1
4901784	10	C	10/13/2015	10:47	-129.690	46.519	0	599.40	0	4.6120	0	34.1440	0	27.045	0	593.592	0	19.7	4	6.3	4	-1E+10	1	-1E+10	1	-1E+10	1	-1E+10	1	-1E+10	1	-1E+10	1
4901784	10	C	10/13/2015	10:47	-129.690	46.519	0	604.40	0	4.6020	0	34.1470	0	27.049	0	598.536	0	19.4	4	6.2	4	-1E+10	1	-1E+10	1	-1E+10	1	-1E+10	1	-1E+10	1	-1E+10	1
4901784	10	C	10/13/2015	10:47	-129.690	46.519	0	609.40	0	4.5940	0	34.1500	0	27.052	0	603.481	0	19.0	4	6.1	4	-1E+10	1	-1E+10	1	-1E+10	1	-1E+10	1	-1E+10	1	-1E+10	1
4901784	10	C	10/13/2015	10:47	-129.690	46.519	0	614.30	0	4.5810	0	34.1540	0	27.057	0	608.326	0	18.6	4	6.0	4	-1E+10	1	-1E+10	1	-1E+10	1	-1E+10	1	-1E+10	1	-1E+10	1
4901784	10	C	10/13/2015	10:47	-129.690	46.519	0	619.20	0	4.5730	0	34.1560	0	27.059	0	613.171	0	18.3	4	5.8	4	-1E+10	1	-1E+10	1	-1E+10	1	-1E+10	1	-1E+10	1	-1E+10	1
4901784	10	C	10/13/2015	10:47	-129.690	46.519	0	624.20	0	4.5630	0	34.1600	0	27.064	0	618.115	0	17.9	4	5.7	4	-1E+10	1	-1E+10	1	-1E+10	1	-1E+10	1	-1E+10	1	-1E+10	1
4901784	10	C	10/13/2015	10:47	-129.690	46.519	0	630.00	0	4.5530	0	34.1640	0	27.068	0	623.850	0	17.4	4	5.6	4	-1E+10	1	-1E+10	1	-1E+10	1	-1E+10	1	-1E+10	1	-1E+10	1
4901784	10	C	10/13/2015	10:47	-129.690	46.519	0	635.00	0	4.5380	0	34.1680	0	27.073	0	628.793	0	17.0	4	5.4	4	-1E+10	1	-1E+10	1	-1E+10	1	-1E+10	1	-1E+10	1	-1E+10	1
4901784	10	C	10/13/2015	10:47	-129.690	46.519	0	639.20	0	4.5250	0	34.1710	0	27.077	0	632.946	0	16.8	4	5.4	4	-1E+10	1	-1E+10	1	-1E+10	1	-1E+10	1	-1E+10	1	-1E+10	1
4901784	10	C	10/13/2015	10:47	-129.690	46.519	0	644.30	0	4.5150	0	34.1730	0	27.079	0	637.988	0	16.5	4	5.3	4	-1E+10	1	-1E+10	1	-1E+10	1	-1E+10	1	-1E+10	1	-1E+10	1
4901784	10	C	10/13/2015	10:47	-129.690	46.519	0	649.30	0	4.5050	0	34.1760	0	27.083	0	642.931	0	16.3	4	5.2	4	-1E+10	1	-1E+10	1	-1E+10	1	-1E+10	1	-1E+10	1	-1E+10	1
4901784	10	C	10/13/2015	10:47	-129.690	46.519	0	654.40	0	4.4920	0	34.1780	0	27.086	0	647.973	0	16.1	4	5.1	4	-1E+10	1	-1E+10	1	-1E+10	1	-1E+10	1	-1E+10	1	-1E+10	1
4901784	10	C	10/13/2015	10:47	-129.690	46.519	0	659.50	0	4.4790	0	34.1810	0	27.090	0	653.015	0	15.8	4	5.0	4	-1E+10	1	-1E+10	1	-1E+10	1	-1E+10	1	-1E+10	1	-1E+10	1
4901784	10	C	10/13/2015	10:47	-129.690	46.519	0	664.60	0	4.4620	0	34.1840	0	27.094	0	658.057	0	15.5	4	4.9	4	-1E+10	1	-1E+10	1	-1E+10	1	-1E+10	1	-1E+10	1	-1E+10	1
4901784	10	C	10/13/2015	10:47	-129.690	46.519	0	669.80	0	4.4400	0	34.1900	0	27.101	0	663.198	0	15.0	4	4.8	4	-1E+10	1	-1E+10	1	-1E+10	1	-1E+10	1	-1E+10	1	-1E+10	1
4901784	10	C	10/13/2015	10:47	-129.690	46.519	0	674.90	0	4.4220	0	34.1950	0	27.107	0	668.239	0	14.7	4	4.7	4	-1E+10	1	-1E+10	1	-1E+10	1	-1E+10	1	-1E+10	1	-1E+10	1
4901784	10	C	10/13/2015	10:47	-129.690	46.519	0	680.20	0	4.4060	0	34.2010	0	27.113	0	673.478	0	14.3	4	4.6	4	-1E+10	1	-1E+10	1	-1E+10	1	-1E+10	1	-1E+10	1	-1E+10	1
4901784	10	C	10/13/2015	10:47	-129.690	46.519	0	685.60	0	4.3920	0	34.2060	0	27.119	0	678.816	0	13.9	4	4.4	4	-1E+10	1	-1E+10	1	-1E+10	1	-1E+10	1	-1E+10	1	-1E+10	1
4901784	10	C	10/13/2015	10:47	-129.690	46.519	0	689.90	0	4.3810	0	34.2100	0	27.123	0	683.067	0	13.7	4	4.4	4	-1E+10	1	-1E+10	1	-1E+10	1	-1E+10	1	-1E+10	1	-1E+10	1
4901784	10	C	10/13/2015	10:47	-129.690	46.519	0	694.40	0	4.3580	0	34.2160	0	27.131	0	687.515	0	13.3	4	4.3	4	-1E+10	1	-1E+10	1	-1E+10	1	-1E+10	1	-1E+10	1	-1E+10	1
4901784	10	C	10/13/2015	10:47	-129.690	46.519	0	699.80	0	4.3340	0	34.2230	0	27.139	0	692.852	0	13.1	4	4.2	4	-1E+10	1	-1E+10	1	-1E+10	1	-1E+10	1	-1E+10	1	-1E+10	1
4901784	10	C	10/13/2015	10:47	-129.690	46.519	0	705.20	0	4.3230	0	34.2250	0	27.142	0	698.189	0	13.0	4	4.1	4	-1E+10	1	-1E+10	1	-1E+10	1	-1E+10	1	-1E+10	1	-1E+10	1
4901784	10	C	10/13/2015	10:47	-129.690	46.519	0	709.80	0	4.3140	0	34.2270	0	27.144	0	702.736	0	12.9	4	4.1	4	-1E+10	1	-1E+10	1	-1E+10	1	-1E+10	1	-1E+10	1	-1E+10	1
4901784	10	C	10/13/2015	10:47	-129.690	46.519	0	715.10	0	4.3020	0	34.2290	0	27.147	0	707.974	0	12.8	4	4.1	4	-1E+10	1	-1E+10	1	-1E+10	1	-1E+10	1	-1E+10	1	-1E+10	1
4901784	10	C	10/13/2015	10:47	-129.690	46.519	0	720.30	0	4.2770	0	34.2340	0	27.154	0	713.114	0	12.6	4	4.0	4	-1E+10	1	-1E+10	1	-1E+10	1	-1E+10	1	-1E+10	1	-1E+10	1
4901784	10	C	10/13/2015	10:47	-129.690	46.519	0	725.10	0	4.2560	0	34.2370	0	27.158	0	717.857	0	12.6	4	4.0	4	-1E+10	1	-1E+10	1	-1E+10	1	-1E+10	1	-1E+10	1	-1E+10	1
4901784	10	C	10/13/2015	10:47	-129.690	46.519	0	729.90	0	4.2480	0	34.2370	0	27.159	0	722.601	0	12.5	4	4.0	4	-1E+10	1	-1E+10	1	-1E+10	1	-1E+10	1	-1E+10	1	-1E+10	1
4901784	10	C	10/13/2015	10:47	-129.690	46.519	0	734.80	0	4.2290	0	34.2430	0	27.166	0	727.444	0	12.3	4	3.9	4	-1E+10	1	-1E+10	1	-1E+10	1	-1E+10	1	-1E+10	1	-1E+10	1
4901784	10	C	10/13/2015	10:47	-129.690	46.519	0	739.80	0	4.2080	0	34.2450	0	27.170	0	732.385	0	12.4	4	3.9	4	-1E+10	1	-1E+10	1	-1E+10	1	-1E+10	1	-1E+10	1	-1E+10	1
4901784	10	C	10/13/2015	10:47	-129.690	46.519	0	744.70	0	4.1780	0	34.2450	0	27.173	0	737.227	0	12.7	4	4.0	4	-1E+10	1	-1E+10	1	-1E+10	1	-1E+10	1	-1E+10	1	-1E+10	1
4901784	10	C	10/13/2015	10:47	-129.690	46.519	0	749.80	0	4.1170	0	34.2410	0	27.176	0	742.267	0	13.1	4	4.1	4	-1E+10	1	-1E+10	1	-1E+10	1	-1E+10	1	-1E+10	1	-1E+10	1
4901784	10	C	10/13/2015	10:47	-129.690	46.519	0	754.90	0	4.0410	0	34.2400	0	27.183	0	747.306	0	13.3	4	4.2	4	-1E+10	1	-1E+10	1	-1E+10	1	-1E+10	1	-1E+10	1	-1E+10	1
4901784	10	C	10/13/2015	10:47	-129.690	46.519	0	760.10	0	4.0560	0	34.2480	0	27.188	0	752.445	0	13.0	4	4.1	4	-1E+10	1	-1E+10	1	-1E+10	1	-1E+10	1	-1E+10	1	-1E+10	1
4901784	10	C	10/13/2015	10:47	-129.690	46.519	0	765.20	0	3.9970	0	34.2470	0	27.193	0	757.484	0	13.3	4	4.2	4	-1E+10	1	-1E+10	1	-1E+10	1	-1E+10	1	-1E+10	1	-1E+10	1
4901784	10	C	10/13/2015	10:47	-129.690	46.519	0	770.50	0	3.9630	0	34.2470	0	27.197	0	762.721	0	13.4	4	4.2	4	-1E+10	1	-1E+10	1	-1E+10	1	-1E+10	1	-1E+10	1	-1E+10	1
4901784	10	C	10/13/2015	10:47	-129.690	46.519	0	774.80	0	3.9410	0	34.2480	0	27.200	0	766.970	0	13.4	4	4.2	4	-1E+10	1	-1E+10	1	-1E+10	1	-1E+10	1	-1E+10	1	-1E+10	1
4901784	10	C	10/13/2015	10:47	-129.690	46.519	0	779.30	0	3.9260	0	34.2500	0	27.203	0	771.416	0	13.3	4	4.2	4	-1E+10	1	-1E+10	1	-1E+10	1	-1E+10	1	-1E+10	1	-1E+10	1
4901784	10	C	10/13/2015	10:47	-129.690	46.519	0	784.60	0	3.9090	0	34.2570	0	27.210	0	776.652	0	13.0	4	4.1	4	-1E+10	1	-1E+10	1	-1E+10	1	-1E+10	1	-1E+10	1	-1E+10	1
4901784	10	C	10/13/2015	10:47	-129.690	46.519	0	790.00	0	3.9020	0	34.2610	0	27.214	0	781.988	0	12.9	4	4.1	4	-1E+10	1	-1E+10	1	-1E+10	1	-1E+10	1	-1E+10	1	-1E+10	1
4901784	10	C	10/13/2015	10:47	-129.690	46.519	0	795.30	0	3.8970	0	34.2670	0	27.220	0	787.224	0	12.7	4	4.0	4	-1E+10	1	-1E+10	1	-1E+10	1	-1E+10	1	-1E+10	1	-1E+10	1
4901784	10	C	10/13/2015	10:47	-129.690	46.519	0	799.90	0	3.8840	0	34.2690	0	27.223	0	791.768	0	12.7	4	4.0	4	-1E+10	1	-1E+10	1	-1E+10	1	-1E+10	1	-1E+10	1	-1E+10	1
4901784	10	C	10/13/2015	10:47	-129.690	46.519	0	804.30	0	3.8430	0	34.2660	0	27.224	0	796.115	0	12.8	4	4.0	4	-1E+10	1	-1E+10	1	-1E+10	1	-1E+10	1	-1E+10	1	-1E+10	1
4901784	10	C	10/13/2015	10:47	-129.690	46.519	0	809.80	0	3.8190	0	34.2680	0	27.228	0	801.549	0	12.7	4	4.0	4	-1E+10	1	-1E+10	1	-1E+10	1	-1E+10	1	-1E+10	1	-1E+10	1
4901784	10	C	10/13/2015	10:47	-129.690	46.519	0	815.20	0	3.8090	0	34.2720	0	27.232	0	806.883	0	12.7	4	4.0	4	-1E+10	1	-1E+10	1	-1E+10	1	-1E+10	1	-1E+10	1	-1E+10	1
4901784	10	C	10/13/2015	10:47	-129.690	46.519	0	819.80	0	3.8040	0	34.2720	0	27.233	0	811.427	0	12.7	4	4.0	4	-1E+10	1	-1E+10	1	-1E+10	1	-1E+10	1	-1E+10	1	-1E+10	1
4901784	10	C	10/13/2015	10:47	-129.690	46.519	0	824.40	0	3.7580	0	34.2750	0	27.240	0	815.972	0	12.7	4	4.0	4	-1E+10	1	-1E+10	1	-1E+10	1	-1E+10	1	-1E+10	1	-1E+10	1
4901784	10	C	10/13/2015	10:47	-129.690	46.519	0	830.00	0	3.7510	0	34.2770	0	27.242	0	821.503	0	12.7	4	4.0	4	-1E+10	1	-1E+10	1	-1E+10	1	-1E+10	1	-1E+10	1	-1E+10	1
4901784	10	C	10/13/2015	10:47	-129.690	46.519	0	834.70	0	3.7490	0	34.2770	0	27.243	0	826.146	0	12.6	4	4.0	4	-1E+10	1	-1E+10	1	-1E+10	1	-1E+10	1	-1E+10	1	-1E+10	1
4901784	10	C	10/13/2015	10:47	-129.690	46.519	0	839.50	0	3.7440	0	34.2780	0	27.244	0	830.887	0	12.6	4	4.0	4	-1E+10	1	-1E+10	1	-1E+10	1	-1E+10	1	-1E+10	1	-1E+10	1
4901784	10	C	10/13/2015	10:47	-129.690	46.519	0	845.20	0	3.7280	0	34.2800	0	27.247	0	836.517	0	12.7	4	4.0	4	-1E+10	1	-1E+10	1	-1E+10	1	-1E+10	1	-1E+10	1	-1E+10	1
4901784	10	C	10/13/2015	10:47	-129.690	46.519	0	849.90	0	3.6950	0	34.2800	0	27.250	0	841.160	0	12.8	4	4.0	4	-1E+10	1	-1E+10	1	-1E+10	1	-1E+10	1	-1E+10	1	-1E+10	1
4901784	10	C	10/13/2015	10:47	-129.690	46.519	0	854.60	0	3.6760	0	34.2810	0	27.253	0	845.802	0	12.8	4	4.0	4	-1E+10	1	-1E+10	1	-1E+10	1	-1E+10	1	-1E+10	1	-1E+10	1
4901784	10	C	10/13/2015	10:47	-129.690	46.519	0	860.40	0	3.6590	0	34.2830	0	27.256	0	851.530	0	12.8	4	4.0	4	-1E+10	1	-1E+10	1	-1E+10	1	-1E+10	1	-1E+10	1	-1E+10	1
4901784	10	C	10/13/2015	10:47	-129.690	46.519	0	865.80	0	3.6550	0	34.2850	0	27.258	0	856.863	0	12.8	4	4.0	4	-1E+10	1	-1E+10	1	-1E+10	1	-1E+10	1	-1E+10	1	-1E+10	1
4901784	10	C	10/13/2015	10:47	-129.690	46.519	0	870.20	0	3.6480	0	34.2870	0	27.261	0	861.209	0	12.8	4	4.0	4	-1E+10	1	-1E+10	1	-1E+10	1	-1E+10	1	-1E+10	1	-1E+10	1
4901784	10	C	10/13/2015	10:47	-129.690	46.519	0	875.10	0	3.6270	0	34.2860	0	27.262	0	866.048	0	13.0	4	4.1	4	-1E+10	1	-1E+10	1	-1E+10	1	-1E+10	1	-1E+10	1	-1E+10	1
4901784	10	C	10/13/2015	10:47	-129.690	46.519	0	880.10	0	3.5800	0	34.2840	0	27.265	0	870.986	0	13.2	4	4.1	4	-1E+10	1	-1E+10	1	-1E+10	1	-1E+10	1	-1E+10	1	-1E+10	1
4901784	10	C	10/13/2015	10:47	-129.690	46.519	0	885.10	0	3.5720	0	34.2860	0	27.267	0	875.924	0	13.3	4	4.1	4	-1E+10	1	-1E+10	1	-1E+10	1	-1E+10	1	-1E+10	1	-1E+10	1
4901784	10	C	10/13/2015	10:47	-129.690	46.519	0	890.10	0	3.5470	0	34.2870	0	27.271	0	880.861	0	13.3	4	4.2	4	-1E+10	1	-1E+10	1	-1E+10	1	-1E+10	1	-1E+10	1	-1E+10	1
4901784	10	C	10/13/2015	10:47	-129.690	46.519	0	895.20	0	3.5320	0	34.2880	0	27.273	0	885.898	0	13.3	4	4.2	4	-1E+10	1	-1E+10	1	-1E+10	1	-1E+10	1	-1E+10	1	-1E+10	1
4901784	10	C	10/13/2015	10:47	-129.690	46.519	0	900.20	0	3.5240	0	34.2900	0	27.275	0	890.835	0	13.2	4	4.1	4	-1E+10	1	-1E+10	1	-1E+10	1	-1E+10	1	-1E+10	1	-1E+10	1
4901784	10	C	10/13/2015	10:47	-129.690	46.519	0	905.20	0	3.5160	0	34.2920	0	27.278	0	895.772	0	13.2	4	4.1	4	-1E+10	1	-1E+10	1	-1E+10	1	-1E+10	1	-1E+10	1	-1E+10	1
4901784	10	C	10/13/2015	10:47	-129.690	46.519	0	910.20	0	3.5080	0	34.2950	0	27.281	0	900.710	0	13.1	4	4.1	4	-1E+10	1	-1E+10	1	-1E+10	1	-1E+10	1	-1E+10	1	-1E+10	1
4901784	10	C	10/13/2015	10:47	-129.690	46.519	0	915.20	0	3.4870	0	34.2990	0	27.286	0	905.647	0	13.0	4	4.1	4	-1E+10	1	-1E+10	1	-1E+10	1	-1E+10	1	-1E+10	1	-1E+10	1
4901784	10	C	10/13/2015	10:47	-129.690	46.519	0	920.30	0	3.4680	0	34.3020	0	27.290	0	910.682	0	13.0	4	4.1	4	-1E+10	1	-1E+10	1	-1E+10	1	-1E+10	1	-1E+10	1	-1E+10	1
4901784	10	C	10/13/2015	10:47	-129.690	46.519	0	925.30	0	3.4540	0	34.3050	0	27.294	0	915.619	0	12.9	4	4.0	4	-1E+10	1	-1E+10	1	-1E+10	1	-1E+10	1	-1E+10	1	-1E+10	1
4901784	10	C	10/13/2015	10:47	-129.690	46.519	0	930.40	0	3.4510	0	34.3080	0	27.297	0	920.655	0	12.8	4	4.0	4	-1E+10	1	-1E+10	1	-1E+10	1	-1E+10	1	-1E+10	1	-1E+10	1
4901784	10	C	10/13/2015	10:47	-129.690	46.519	0	935.50	0	3.4430	0	34.3100	0	27.299	0	925.690	0	12.8	4	4.0	4	-1E+10	1	-1E+10	1	-1E+10	1	-1E+10	1	-1E+10	1	-1E+10	1
4901784	10	C	10/13/2015	10:47	-129.690	46.519	0	940.70	0	3.4330	0	34.3110	0	27.301	0	930.824	0	12.7	4	4.0	4	-1E+10	1	-1E+10	1	-1E+10	1	-1E+10	1	-1E+10	1	-1E+10	1
4901784	10	C	10/13/2015	10:47	-129.690	46.519	0	945.70	0	3.4280	0	34.3160	0	27.305	0	935.760	0	12.5	4	3.9	4	-1E+10	1	-1E+10	1	-1E+10	1	-1E+10	1	-1E+10	1	-1E+10	1
4901784	10	C	10/13/2015	10:47	-129.690	46.519	0	950.00	0	3.4220	0	34.3180	0	27.308	0	940.005	0	12.5	4	3.9	4	-1E+10	1	-1E+10	1	-1E+10	1	-1E+10	1	-1E+10	1	-1E+10	1
4901784	10	C	10/13/2015	10:47	-129.690	46.519	0	954.20	0	3.4170	0	34.3180	0	27.308	0	944.152	0	12.4	4	3.9	4	-1E+10	1	-1E+10	1	-1E+10	1	-1E+10	1	-1E+10	1	-1E+10	1
4901784	10	C	10/13/2015	10:47	-129.690	46.519	0	959.30	0	3.4170	0	34.3210	0	27.311	0	949.186	0	12.3	4	3.8	4	-1E+10	1	-1E+10	1	-1E+10	1	-1E+10	1	-1E+10	1	-1E+10	1
4901784	10	C	10/13/2015	10:47	-129.690	46.519	0	964.40	0	3.4180	0	34.3260	0	27.315	0	954.221	0	12.1	4	3.8	4	-1E+10	1	-1E+10	1	-1E+10	1	-1E+10	1	-1E+10	1	-1E+10	1
4901784	10	C	10/13/2015	10:47	-129.690	46.519	0	969.60	0	3.4140	0	34.3310	0	27.319	0	959.354	0	12.1	4	3.8	4	-1E+10	1	-1E+10	1	-1E+10	1	-1E+10	1	-1E+10	1	-1E+10	1
4901784	10	C	10/13/2015	10:47	-129.690	46.519	0	974.80	0	3.3990	0	34.3320	0	27.321	0	964.487	0	12.0	4	3.7	4	-1E+10	1	-1E+10	1	-1E+10	1	-1E+10	1	-1E+10	1	-1E+10	1
4901784	10	C	10/13/2015	10:47	-129.690	46.519	0	980.00	0	3.3980	0	34.3360	0	27.325	0	969.620	0	12.0	4	3.7	4	-1E+10	1	-1E+10	1	-1E+10	1	-1E+10	1	-1E+10	1	-1E+10	1
4901784	10	C	10/13/2015	10:47	-129.690	46.519	0	985.30	0	3.3990	0	34.3400	0	27.328	0	974.852	0	11.9	4	3.7	4	-1E+10	1	-1E+10	1	-1E+10	1	-1E+10	1	-1E+10	1	-1E+10	1
4901784	10	C	10/13/2015	10:47	-129.690	46.519	0	990.60	0	3.3820	0	34.3390	0	27.329	0	980.083	0	12.1	4	3.8	4	-1E+10	1	-1E+10	1	-1E+10	1	-1E+10	1	-1E+10	1	-1E+10	1
4901784	10	C	10/13/2015	10:47	-129.690	46.519	0	995.00	0	3.3500	0	34.3380	0	27.331	0	984.426	0	12.1	4	3.8	4	-1E+10	1	-1E+10	1	-1E+10	1	-1E+10	1	-1E+10	1	-1E+10	1
4901784	10	C	10/13/2015	10:47	-129.690	46.519	0	999.30	0	3.3410	0	34.3410	0	27.334	0	988.670	0	12.0	4	3.7	4	-1E+10	1	-1E+10	1	-1E+10	1	-1E+10	1	-1E+10	1	-1E+10	1
4901784	10	C	10/13/2015	10:47	-129.690	46.519	0	1004.50	0	3.3320	0	34.3450	0	27.338	0	993.803	0	12.0	4	3.7	4	-1E+10	1	-1E+10	1	-1E+10	1	-1E+10	1	-1E+10	1	-1E+10	1
4901784	10	C	10/13/2015	10:47	-129.690	46.519	0	1009.80	0	3.3250	0	34.3470	0	27.340	0	999.034	0	12.0	4	3.7	4	-1E+10	1	-1E+10	1	-1E+10	1	-1E+10	1	-1E+10	1	-1E+10	1
4901784	10	C	10/13/2015	10:47	-129.690	46.519	0	1015.00	0	3.3160	0	34.3480	0	27.342	0	1004.166	0	12.0	4	3.7	4	-1E+10	1	-1E+10	1	-1E+10	1	-1E+10	1	-1E+10	1	-1E+10	1
4901784	10	C	10/13/2015	10:47	-129.690	46.519	0	1020.40	0	3.3010	0	34.3540	0	27.348	0	1009.495	0	12.0	4	3.7	4	-1E+10	1	-1E+10	1	-1E+10	1	-1E+10	1	-1E+10	1	-1E+10	1
4901784	10	C	10/13/2015	10:47	-129.690	46.519	0	1024.80	0	3.3000	0	34.3590	0	27.352	0	1013.838	0	12.0	4	3.7	4	-1E+10	1	-1E+10	1	-1E+10	1	-1E+10	1	-1E+10	1	-1E+10	1
4901784	10	C	10/13/2015	10:47	-129.690	46.519	0	1029.30	0	3.3020	0	34.3620	0	27.355	0	1018.278	0	12.0	4	3.7	4	-1E+10	1	-1E+10	1	-1E+10	1	-1E+10	1	-1E+10	1	-1E+10	1
4901784	10	C	10/13/2015	10:47	-129.690	46.519	0	1034.60	0	3.3110	0	34.3660	0	27.357	0	1023.509	0	12.0	4	3.7	4	-1E+10	1	-1E+10	1	-1E+10	1	-1E+10	1	-1E+10	1	-1E+10	1
4901784	10	C	10/13/2015	10:47	-129.690	46.519	0	1039.90	0	3.3170	0	34.3700	0	27.360	0	1028.739	0	12.0	4	3.7	4	-1E+10	1	-1E+10	1	-1E+10	1	-1E+10	1	-1E+10	1	-1E+10	1
4901784	10	C	10/13/2015	10:47	-129.690	46.519	0	1045.20	0	3.3260	0	34.3770	0	27.364	0	1033.969	0	12.1	4	3.8	4	-1E+10	1	-1E+10	1	-1E+10	1	-1E+10	1	-1E+10	1	-1E+10	1
4901784	10	C	10/13/2015	10:47	-129.690	46.519	0	1050.70	0	3.3040	0	34.3780	0	27.367	0	1039.396	0	12.1	4	3.8	4	-1E+10	1	-1E+10	1	-1E+10	1	-1E+10	1	-1E+10	1	-1E+10	1
4901784	10	C	10/13/2015	10:47	-129.690	46.519	0	1055.20	0	3.2880	0	34.3780	0	27.369	0	1043.837	0	12.1	4	3.8	4	-1E+10	1	-1E+10	1	-1E+10	1	-1E+10	1	-1E+10	1	-1E+10	1
4901784	10	C	10/13/2015	10:47	-129.690	46.519	0	1059.80	0	3.2690	0	34.3800	0	27.372	0	1048.376	0	12.2	4	3.8	4	-1E+10	1	-1E+10	1	-1E+10	1	-1E+10	1	-1E+10	1	-1E+10	1
4901784	10	C	10/13/2015	10:47	-129.690	46.519	0	1065.30	0	3.2680	0	34.3850	0	27.376	0	1053.803	0	12.3	4	3.8	4	-1E+10	1	-1E+10	1	-1E+10	1	-1E+10	1	-1E+10	1	-1E+10	1
4901784	10	C	10/13/2015	10:47	-129.690	46.519	0	1070.60	0	3.2800	0	34.3920	0	27.381	0	1059.032	0	12.4	4	3.8	4	-1E+10	1	-1E+10	1	-1E+10	1	-1E+10	1	-1E+10	1	-1E+10	1
4901784	10	C	10/13/2015	10:47	-129.690	46.519	0	1075.40	0	3.2710	0	34.3940	0	27.383	0	1063.768	0	12.4	4	3.9	4	-1E+10	1	-1E+10	1	-1E+10	1	-1E+10	1	-1E+10	1	-1E+10	1
4901784	10	C	10/13/2015	10:47	-129.690	46.519	0	1080.30	0	3.2580	0	34.3930	0	27.384	0	1068.602	0	12.4	4	3.9	4	-1E+10	1	-1E+10	1	-1E+10	1	-1E+10	1	-1E+10	1	-1E+10	1
4901784	10	C	10/13/2015	10:47	-129.690	46.519	0	1085.20	0	3.2270	0	34.3940	0	27.388	0	1073.437	0	12.5	4	3.9	4	-1E+10	1	-1E+10	1	-1E+10	1	-1E+10	1	-1E+10	1	-1E+10	1
4901784	10	C	10/13/2015	10:47	-129.690	46.519	0	1090.10	0	3.2090	0	34.3940	0	27.389	0	1078.271	0	12.5	4	3.9	4	-1E+10	1	-1E+10	1	-1E+10	1	-1E+10	1	-1E+10	1	-1E+10	1
4901784	10	C	10/13/2015	10:47	-129.690	46.519	0	1095.00	0	3.2190	0	34.3960	0	27.390	0	1083.105	0	12.6	4	3.9	4	-1E+10	1	-1E+10	1	-1E+10	1	-1E+10	1	-1E+10	1	-1E+10	1
4901784	10	C	10/13/2015	10:47	-129.690	46.519	0	1100.00	0	3.2060	0	34.3980	0	27.393	0	1088.038	0	12.6	4	3.9	4	-1E+10	1	-1E+10	1	-1E+10	1	-1E+10	1	-1E+10	1	-1E+10	1
4901784	10	C	10/13/2015	10:47	-129.690	46.519	0	1105.00	0	3.1820	0	34.3960	0	27.393	0	1092.971	0	12.6	4	3.9	4	-1E+10	1	-1E+10	1	-1E+10	1	-1E+10	1	-1E+10	1	-1E+10	1
4901784	10	C	10/13/2015	10:47	-129.690	46.519	0	1110.10	0	3.1700	0	34.3980	0	27.396	0	1098.002	0	12.7	4	3.9	4	-1E+10	1	-1E+10	1	-1E+10	1	-1E+10	1	-1E+10	1	-1E+10	1
4901784	10	C	10/13/2015	10:47	-129.690	46.519	0	1115.30	0	3.1990	0	34.4030	0	27.397	0	1103.132	0	12.9	4	4.0	4	-1E+10	1	-1E+10	1	-1E+10	1	-1E+10	1	-1E+10	1	-1E+10	1
4901784	10	C	10/13/2015	10:47	-129.690	46.519	0	1120.40	0	3.1880	0	34.4060	0	27.401	0	1108.162	0	12.9	4	4.0	4	-1E+10	1	-1E+10	1	-1E+10	1	-1E+10	1	-1E+10	1	-1E+10	1
4901784	10	C	10/13/2015	10:47	-129.690	46.519	0	1125.50	0	3.1840	0	34.4070	0	27.402	0	1113.193	0	13.0	4	4.0	4	-1E+10	1	-1E+10	1	-1E+10	1	-1E+10	1	-1E+10	1	-1E+10	1
4901784	10	C	10/13/2015	10:47	-129.690	46.519	0	1130.60	0	3.1830	0	34.4080	0	27.403	0	1118.224	0	13.0	4	4.0	4	-1E+10	1	-1E+10	1	-1E+10	1	-1E+10	1	-1E+10	1	-1E+10	1
4901784	10	C	10/13/2015	10:47	-129.690	46.519	0	1134.90	0	3.1820	0	34.4080	0	27.403	0	1122.465	0	13.0	4	4.0	4	-1E+10	1	-1E+10	1	-1E+10	1	-1E+10	1	-1E+10	1	-1E+10	1
4901784	10	C	10/13/2015	10:47	-129.690	46.519	0	1139.20	0	3.1750	0	34.4090	0	27.405	0	1126.707	0	13.1	4	4.0	4	-1E+10	1	-1E+10	1	-1E+10	1	-1E+10	1	-1E+10	1	-1E+10	1
4901784	10	C	10/13/2015	10:47	-129.690	46.519	0	1144.40	0	3.1620	0	34.4090	0	27.406	0	1131.836	0	13.1	4	4.1	4	-1E+10	1	-1E+10	1	-1E+10	1	-1E+10	1	-1E+10	1	-1E+10	1
4901784	10	C	10/13/2015	10:47	-129.690	46.519	0	1149.60	0	3.1510	0	34.4110	0	27.409	0	1136.964	0	13.2	4	4.1	4	-1E+10	1	-1E+10	1	-1E+10	1	-1E+10	1	-1E+10	1	-1E+10	1
4901784	10	C	10/13/2015	10:47	-129.690	46.519	0	1154.80	0	3.1490	0	34.4130	0	27.410	0	1142.093	0	13.3	4	4.1	4	-1E+10	1	-1E+10	1	-1E+10	1	-1E+10	1	-1E+10	1	-1E+10	1
4901784	10	C	10/13/2015	10:47	-129.690	46.519	0	1160.00	0	3.1330	0	34.4140	0	27.413	0	1147.222	0	13.4	4	4.1	4	-1E+10	1	-1E+10	1	-1E+10	1	-1E+10	1	-1E+10	1	-1E+10	1
4901784	10	C	10/13/2015	10:47	-129.690	46.519	0	1165.20	0	3.1290	0	34.4170	0	27.415	0	1152.350	0	13.5	4	4.2	4	-1E+10	1	-1E+10	1	-1E+10	1	-1E+10	1	-1E+10	1	-1E+10	1
4901784	10	C	10/13/2015	10:47	-129.690	46.519	0	1170.50	0	3.1070	0	34.4190	0	27.419	0	1157.577	0	13.7	4	4.2	4	-1E+10	1	-1E+10	1	-1E+10	1	-1E+10	1	-1E+10	1	-1E+10	1
4901784	10	C	10/13/2015	10:47	-129.690	46.519	0	1175.60	0	3.0890	0	34.4210	0	27.422	0	1162.607	0	13.9	4	4.3	4	-1E+10	1	-1E+10	1	-1E+10	1	-1E+10	1	-1E+10	1	-1E+10	1
4901784	10	C	10/13/2015	10:47	-129.690	46.519	0	1179.70	0	3.0740	0	34.4240	0	27.426	0	1166.650	0	14.0	4	4.3	4	-1E+10	1	-1E+10	1	-1E+10	1	-1E+10	1	-1E+10	1	-1E+10	1
4901784	10	C	10/13/2015	10:47	-129.690	46.519	0	1184.40	0	3.0630	0	34.4250	0	27.428	0	1171.285	0	14.1	4	4.4	4	-1E+10	1	-1E+10	1	-1E+10	1	-1E+10	1	-1E+10	1	-1E+10	1
4901784	10	C	10/13/2015	10:47	-129.690	46.519	0	1190.00	0	3.0500	0	34.4270	0	27.431	0	1176.807	0	14.2	4	4.4	4	-1E+10	1	-1E+10	1	-1E+10	1	-1E+10	1	-1E+10	1	-1E+10	1
4901784	10	C	10/13/2015	10:47	-129.690	46.519	0	1195.60	0	3.0370	0	34.4280	0	27.433	0	1182.330	0	14.2	4	4.4	4	-1E+10	1	-1E+10	1	-1E+10	1	-1E+10	1	-1E+10	1	-1E+10	1
4901784	10	C	10/13/2015	10:47	-129.690	46.519	0	1200.50	0	3.0250	0	34.4280	0	27.434	0	1187.161	0	14.2	4	4.4	4	-1E+10	1	-1E+10	1	-1E+10	1	-1E+10	1	-1E+10	1	-1E+10	1
4901784	10	C	10/13/2015	10:47	-129.690	46.519	0	1205.40	0	3.0120	0	34.4280	0	27.435	0	1191.993	0	14.3	4	4.4	4	-1E+10	1	-1E+10	1	-1E+10	1	-1E+10	1	-1E+10	1	-1E+10	1
4901784	10	C	10/13/2015	10:47	-129.690	46.519	0	1210.50	0	3.0040	0	34.4290	0	27.437	0	1197.022	0	14.4	4	4.4	4	-1E+10	1	-1E+10	1	-1E+10	1	-1E+10	1	-1E+10	1	-1E+10	1
4901784	10	C	10/13/2015	10:47	-129.690	46.519	0	1215.50	0	2.9920	0	34.4310	0	27.439	0	1201.952	0	14.4	4	4.5	4	-1E+10	1	-1E+10	1	-1E+10	1	-1E+10	1	-1E+10	1	-1E+10	1
4901784	10	C	10/13/2015	10:47	-129.690	46.519	0	1220.50	0	2.9830	0	34.4310	0	27.440	0	1206.882	0	14.5	4	4.5	4	-1E+10	1	-1E+10	1	-1E+10	1	-1E+10	1	-1E+10	1	-1E+10	1
4901784	10	C	10/13/2015	10:47	-129.690	46.519	0	1225.50	0	2.9680	0	34.4330	0	27.443	0	1211.812	0	14.7	4	4.5	4	-1E+10	1	-1E+10	1	-1E+10	1	-1E+10	1	-1E+10	1	-1E+10	1
4901784	10	C	10/13/2015	10:47	-129.690	46.519	0	1230.70	0	2.9550	0	34.4350	0	27.446	0	1216.938	0	14.9	4	4.6	4	-1E+10	1	-1E+10	1	-1E+10	1	-1E+10	1	-1E+10	1	-1E+10	1
4901784	10	C	10/13/2015	10:47	-129.690	46.519	0	1235.00	0	2.9430	0	34.4370	0	27.449	0	1221.178	0	15.1	4	4.6	4	-1E+10	1	-1E+10	1	-1E+10	1	-1E+10	1	-1E+10	1	-1E+10	1
4901784	10	C	10/13/2015	10:47	-129.690	46.519	0	1239.30	0	2.9320	0	34.4380	0	27.450	0	1225.417	0	15.2	4	4.7	4	-1E+10	1	-1E+10	1	-1E+10	1	-1E+10	1	-1E+10	1	-1E+10	1
4901784	10	C	10/13/2015	10:47	-129.690	46.519	0	1244.40	0	2.9150	0	34.4420	0	27.455	0	1230.445	0	15.4	4	4.8	4	-1E+10	1	-1E+10	1	-1E+10	1	-1E+10	1	-1E+10	1	-1E+10	1
4901784	10	C	10/13/2015	10:47	-129.690	46.519	0	1249.50	0	2.9080	0	34.4440	0	27.457	0	1235.473	0	15.6	4	4.8	4	-1E+10	1	-1E+10	1	-1E+10	1	-1E+10	1	-1E+10	1	-1E+10	1
4901784	10	C	10/13/2015	10:47	-129.690	46.519	0	1254.70	0	2.8980	0	34.4460	0	27.460	0	1240.599	0	15.8	4	4.9	4	-1E+10	1	-1E+10	1	-1E+10	1	-1E+10	1	-1E+10	1	-1E+10	1
4901784	10	C	10/13/2015	10:47	-129.690	46.519	0	1259.90	0	2.8950	0	34.4470	0	27.461	0	1245.726	0	16.0	4	4.9	4	-1E+10	1	-1E+10	1	-1E+10	1	-1E+10	1	-1E+10	1	-1E+10	1
4901784	10	C	10/13/2015	10:47	-129.690	46.519	0	1265.20	0	2.8830	0	34.4490	0	27.464	0	1250.950	0	16.2	4	5.0	4	-1E+10	1	-1E+10	1	-1E+10	1	-1E+10	1	-1E+10	1	-1E+10	1
4901784	10	C	10/13/2015	10:47	-129.690	46.519	0	1270.40	0	2.8670	0	34.4520	0	27.468	0	1256.076	0	16.4	4	5.0	4	-1E+10	1	-1E+10	1	-1E+10	1	-1E+10	1	-1E+10	1	-1E+10	1
4901784	10	C	10/13/2015	10:47	-129.690	46.519	0	1275.70	0	2.8630	0	34.4520	0	27.468	0	1261.301	0	16.5	4	5.1	4	-1E+10	1	-1E+10	1	-1E+10	1	-1E+10	1	-1E+10	1	-1E+10	1
4901784	10	C	10/13/2015	10:47	-129.690	46.519	0	1280.10	0	2.8520	0	34.4540	0	27.470	0	1265.638	0	16.7	4	5.1	4	-1E+10	1	-1E+10	1	-1E+10	1	-1E+10	1	-1E+10	1	-1E+10	1
4901784	10	C	10/13/2015	10:47	-129.690	46.519	0	1284.60	0	2.8410	0	34.4540	0	27.471	0	1270.073	0	16.8	4	5.2	4	-1E+10	1	-1E+10	1	-1E+10	1	-1E+10	1	-1E+10	1	-1E+10	1
4901784	10	C	10/13/2015	10:47	-129.690	46.519	0	1289.90	0	2.8250	0	34.4560	0	27.475	0	1275.297	0	17.0	4	5.2	4	-1E+10	1	-1E+10	1	-1E+10	1	-1E+10	1	-1E+10	1	-1E+10	1
4901784	10	C	10/13/2015	10:47	-129.690	46.519	0	1295.30	0	2.8170	0	34.4570	0	27.476	0	1280.620	0	17.1	4	5.3	4	-1E+10	1	-1E+10	1	-1E+10	1	-1E+10	1	-1E+10	1	-1E+10	1
4901784	10	C	10/13/2015	10:47	-129.690	46.519	0	1299.80	0	2.8110	0	34.4580	0	27.477	0	1285.055	0	17.3	4	5.3	4	-1E+10	1	-1E+10	1	-1E+10	1	-1E+10	1	-1E+10	1	-1E+10	1
4901784	10	C	10/13/2015	10:47	-129.690	46.519	0	1304.30	0	2.8020	0	34.4590	0	27.479	0	1289.490	0	17.4	4	5.4	4	-1E+10	1	-1E+10	1	-1E+10	1	-1E+10	1	-1E+10	1	-1E+10	1
4901784	10	C	10/13/2015	10:47	-129.690	46.519	0	1310.00	0	2.7880	0	34.4610	0	27.482	0	1295.108	0	17.7	4	5.4	4	-1E+10	1	-1E+10	1	-1E+10	1	-1E+10	1	-1E+10	1	-1E+10	1
4901784	10	C	10/13/2015	10:47	-129.690	46.519	0	1315.10	0	2.7730	0	34.4630	0	27.485	0	1300.134	0	18.0	4	5.5	4	-1E+10	1	-1E+10	1	-1E+10	1	-1E+10	1	-1E+10	1	-1E+10	1
4901784	10	C	10/13/2015	10:47	-129.690	46.519	0	1319.90	0	2.7550	0	34.4660	0	27.489	0	1304.865	0	18.3	4	5.6	4	-1E+10	1	-1E+10	1	-1E+10	1	-1E+10	1	-1E+10	1	-1E+10	1
4901784	10	C	10/13/2015	10:47	-129.690	46.519	0	1324.70	0	2.7500	0	34.4660	0	27.489	0	1309.595	0	18.4	4	5.7	4	-1E+10	1	-1E+10	1	-1E+10	1	-1E+10	1	-1E+10	1	-1E+10	1
4901784	10	C	10/13/2015	10:47	-129.690	46.519	0	1329.50	0	2.7360	0	34.4680	0	27.492	0	1314.326	0	18.6	4	5.7	4	-1E+10	1	-1E+10	1	-1E+10	1	-1E+10	1	-1E+10	1	-1E+10	1
4901784	10	C	10/13/2015	10:47	-129.690	46.519	0	1335.10	0	2.7220	0	34.4690	0	27.494	0	1319.844	0	18.8	4	5.8	4	-1E+10	1	-1E+10	1	-1E+10	1	-1E+10	1	-1E+10	1	-1E+10	1
4901784	10	C	10/13/2015	10:47	-129.690	46.519	0	1340.80	0	2.7130	0	34.4700	0	27.496	0	1325.461	0	18.9	4	5.8	4	-1E+10	1	-1E+10	1	-1E+10	1	-1E+10	1	-1E+10	1	-1E+10	1
4901784	10	C	10/13/2015	10:47	-129.690	46.519	0	1345.70	0	2.7110	0	34.4700	0	27.496	0	1330.289	0	19.0	4	5.8	4	-1E+10	1	-1E+10	1	-1E+10	1	-1E+10	1	-1E+10	1	-1E+10	1
4901784	10	C	10/13/2015	10:47	-129.690	46.519	0	1350.60	0	2.7050	0	34.4710	0	27.497	0	1335.118	0	19.1	4	5.8	4	-1E+10	1	-1E+10	1	-1E+10	1	-1E+10	1	-1E+10	1	-1E+10	1
4901784	10	C	10/13/2015	10:47	-129.690	46.519	0	1355.50	0	2.6990	0	34.4710	0	27.498	0	1339.946	0	19.2	4	5.9	4	-1E+10	1	-1E+10	1	-1E+10	1	-1E+10	1	-1E+10	1	-1E+10	1
4901784	10	C	10/13/2015	10:47	-129.690	46.519	0	1360.50	0	2.6890	0	34.4720	0	27.500	0	1344.873	0	19.4	4	6.0	4	-1E+10	1	-1E+10	1	-1E+10	1	-1E+10	1	-1E+10	1	-1E+10	1
4901784	10	C	10/13/2015	10:47	-129.690	46.519	0	1365.60	0	2.6780	0	34.4730	0	27.501	0	1349.898	0	19.7	4	6.0	4	-1E+10	1	-1E+10	1	-1E+10	1	-1E+10	1	-1E+10	1	-1E+10	1
4901784	10	C	10/13/2015	10:47	-129.690	46.519	0	1370.10	0	2.6660	0	34.4750	0	27.504	0	1354.332	0	19.9	4	6.1	4	-1E+10	1	-1E+10	1	-1E+10	1	-1E+10	1	-1E+10	1	-1E+10	1
4901784	10	C	10/13/2015	10:47	-129.690	46.519	0	1374.70	0	2.6590	0	34.4760	0	27.505	0	1358.864	0	20.1	4	6.1	4	-1E+10	1	-1E+10	1	-1E+10	1	-1E+10	1	-1E+10	1	-1E+10	1
4901784	10	C	10/13/2015	10:47	-129.690	46.519	0	1380.10	0	2.6550	0	34.4770	0	27.507	0	1364.184	0	20.2	4	6.2	4	-1E+10	1	-1E+10	1	-1E+10	1	-1E+10	1	-1E+10	1	-1E+10	1
4901784	10	C	10/13/2015	10:47	-129.690	46.519	0	1385.60	0	2.6520	0	34.4780	0	27.508	0	1369.603	0	20.5	4	6.3	4	-1E+10	1	-1E+10	1	-1E+10	1	-1E+10	1	-1E+10	1	-1E+10	1
4901784	10	C	10/13/2015	10:47	-129.690	46.519	0	1390.10	0	2.6370	0	34.4810	0	27.511	0	1374.036	0	20.8	4	6.4	4	-1E+10	1	-1E+10	1	-1E+10	1	-1E+10	1	-1E+10	1	-1E+10	1
4901784	10	C	10/13/2015	10:47	-129.690	46.519	0	1394.70	0	2.6330	0	34.4820	0	27.512	0	1378.568	0	21.0	4	6.4	4	-1E+10	1	-1E+10	1	-1E+10	1	-1E+10	1	-1E+10	1	-1E+10	1
4901784	10	C	10/13/2015	10:47	-129.690	46.519	0	1400.20	0	2.6300	0	34.4830	0	27.514	0	1383.987	0	21.2	4	6.5	4	-1E+10	1	-1E+10	1	-1E+10	1	-1E+10	1	-1E+10	1	-1E+10	1
4901784	10	C	10/13/2015	10:47	-129.690	46.519	0	1404.80	0	2.6280	0	34.4840	0	27.515	0	1388.518	0	21.3	4	6.5	4	-1E+10	1	-1E+10	1	-1E+10	1	-1E+10	1	-1E+10	1	-1E+10	1
4901784	10	C	10/13/2015	10:47	-129.690	46.519	0	1409.40	0	2.6230	0	34.4850	0	27.516	0	1393.050	0	21.5	4	6.6	4	-1E+10	1	-1E+10	1	-1E+10	1	-1E+10	1	-1E+10	1	-1E+10	1
4901784	10	C	10/13/2015	10:47	-129.690	46.519	0	1415.00	0	2.6140	0	34.4860	0	27.517	0	1398.566	0	21.8	4	6.7	4	-1E+10	1	-1E+10	1	-1E+10	1	-1E+10	1	-1E+10	1	-1E+10	1
4901784	10	C	10/13/2015	10:47	-129.690	46.519	0	1419.70	0	2.6120	0	34.4870	0	27.518	0	1403.196	0	22.0	4	6.7	4	-1E+10	1	-1E+10	1	-1E+10	1	-1E+10	1	-1E+10	1	-1E+10	1
4901784	10	C	10/13/2015	10:47	-129.690	46.519	0	1424.40	0	2.6040	0	34.4880	0	27.520	0	1407.826	0	22.3	4	6.8	4	-1E+10	1	-1E+10	1	-1E+10	1	-1E+10	1	-1E+10	1	-1E+10	1
4901784	10	C	10/13/2015	10:47	-129.690	46.519	0	1430.10	0	2.5910	0	34.4900	0	27.523	0	1413.440	0	22.8	4	7.0	4	-1E+10	1	-1E+10	1	-1E+10	1	-1E+10	1	-1E+10	1	-1E+10	1
4901784	10	C	10/13/2015	10:47	-129.690	46.519	0	1434.80	0	2.5770	0	34.4920	0	27.525	0	1418.070	0	23.2	4	7.1	4	-1E+10	1	-1E+10	1	-1E+10	1	-1E+10	1	-1E+10	1	-1E+10	1
4901784	10	C	10/13/2015	10:47	-129.690	46.519	0	1439.60	0	2.5650	0	34.4930	0	27.527	0	1422.798	0	23.6	4	7.2	4	-1E+10	1	-1E+10	1	-1E+10	1	-1E+10	1	-1E+10	1	-1E+10	1
4901784	10	C	10/13/2015	10:47	-129.690	46.519	0	1445.40	0	2.5460	0	34.4960	0	27.531	0	1428.510	0	24.1	4	7.3	4	-1E+10	1	-1E+10	1	-1E+10	1	-1E+10	1	-1E+10	1	-1E+10	1
4901784	10	C	10/13/2015	10:47	-129.690	46.519	0	1450.30	0	2.5290	0	34.4980	0	27.534	0	1433.337	0	24.4	4	7.5	4	-1E+10	1	-1E+10	1	-1E+10	1	-1E+10	1	-1E+10	1	-1E+10	1
4901784	10	C	10/13/2015	10:47	-129.690	46.519	0	1455.10	0	2.5220	0	34.4990	0	27.536	0	1438.064	0	24.6	4	7.5	4	-1E+10	1	-1E+10	1	-1E+10	1	-1E+10	1	-1E+10	1	-1E+10	1
4901784	10	C	10/13/2015	10:47	-129.690	46.519	0	1460.10	0	2.5150	0	34.5000	0	27.537	0	1442.988	0	24.9	4	7.6	4	-1E+10	1	-1E+10	1	-1E+10	1	-1E+10	1	-1E+10	1	-1E+10	1
4901784	10	C	10/13/2015	10:47	-129.690	46.519	0	1464.90	0	2.5070	0	34.5000	0	27.538	0	1447.716	0	25.1	4	7.7	4	-1E+10	1	-1E+10	1	-1E+10	1	-1E+10	1	-1E+10	1	-1E+10	1
4901784	10	C	10/13/2015	10:47	-129.690	46.519	0	1469.80	0	2.5010	0	34.5010	0	27.539	0	1452.541	0	25.2	4	7.7	4	-1E+10	1	-1E+10	1	-1E+10	1	-1E+10	1	-1E+10	1	-1E+10	1
4901784	10	C	10/13/2015	10:47	-129.690	46.519	0	1474.80	0	2.4970	0	34.5010	0	27.540	0	1457.466	0	25.4	4	7.8	4	-1E+10	1	-1E+10	1	-1E+10	1	-1E+10	1	-1E+10	1	-1E+10	1
4901784	10	C	10/13/2015	10:47	-129.690	46.519	0	1479.70	0	2.4910	0	34.5020	0	27.541	0	1462.291	0	25.6	4	7.8	4	-1E+10	1	-1E+10	1	-1E+10	1	-1E+10	1	-1E+10	1	-1E+10	1
4901784	10	C	10/13/2015	10:47	-129.690	46.519	0	1484.10	0	2.4860	0	34.5030	0	27.542	0	1466.624	0	25.8	4	7.9	4	-1E+10	1	-1E+10	1	-1E+10	1	-1E+10	1	-1E+10	1	-1E+10	1
4901784	10	C	10/13/2015	10:47	-129.690	46.519	0	1489.60	0	2.4840	0	34.5040	0	27.543	0	1472.040	0	26.0	4	7.9	4	-1E+10	1	-1E+10	1	-1E+10	1	-1E+10	1	-1E+10	1	-1E+10	1
4901784	10	C	10/13/2015	10:47	-129.690	46.519	0	1494.40	0	2.4820	0	34.5050	0	27.544	0	1476.767	0	26.2	4	8.0	4	-1E+10	1	-1E+10	1	-1E+10	1	-1E+10	1	-1E+10	1	-1E+10	1
4901784	10	C	10/13/2015	10:47	-129.690	46.519	0	1500.00	0	2.4750	0	34.5060	0	27.546	0	1482.281	0	26.5	4	8.1	4	-1E+10	1	-1E+10	1	-1E+10	1	-1E+10	1	-1E+10	1	-1E+10	1
4901784	10	C	10/13/2015	10:47	-129.690	46.519	0	1505.60	0	2.4690	0	34.5070	0	27.547	0	1487.795	0	26.7	4	8.1	4	-1E+10	1	-1E+10	1	-1E+10	1	-1E+10	1	-1E+10	1	-1E+10	1
4901784	10	C	10/13/2015	10:47	-129.690	46.519	0	1510.50	0	2.4670	0	34.5070	0	27.547	0	1492.620	0	26.8	4	8.2	4	-1E+10	1	-1E+10	1	-1E+10	1	-1E+10	1	-1E+10	1	-1E+10	1
4901784	10	C	10/13/2015	10:47	-129.690	46.519	0	1515.30	0	2.4620	0	34.5080	0	27.548	0	1497.346	0	27.0	4	8.2	4	-1E+10	1	-1E+10	1	-1E+10	1	-1E+10	1	-1E+10	1	-1E+10	1
4901784	10	C	10/13/2015	10:47	-129.690	46.519	0	1520.30	0	2.4570	0	34.5080	0	27.549	0	1502.269	0	27.3	4	8.3	4	-1E+10	1	-1E+10	1	-1E+10	1	-1E+10	1	-1E+10	1	-1E+10	1
4901784	10	C	10/13/2015	10:47	-129.690	46.519	0	1525.30	0	2.4490	0	34.5090	0	27.550	0	1507.192	0	27.6	4	8.4	4	-1E+10	1	-1E+10	1	-1E+10	1	-1E+10	1	-1E+10	1	-1E+10	1
4901784	10	C	10/13/2015	10:47	-129.690	46.519	0	1530.40	0	2.4390	0	34.5110	0	27.553	0	1512.213	0	27.9	4	8.5	4	-1E+10	1	-1E+10	1	-1E+10	1	-1E+10	1	-1E+10	1	-1E+10	1
4901784	10	C	10/13/2015	10:47	-129.690	46.519	0	1535.50	0	2.4350	0	34.5120	0	27.554	0	1517.234	0	28.3	4	8.6	4	-1E+10	1	-1E+10	1	-1E+10	1	-1E+10	1	-1E+10	1	-1E+10	1
4901784	10	C	10/13/2015	10:47	-129.690	46.519	0	1540.70	0	2.4290	0	34.5130	0	27.555	0	1522.354	0	28.7	4	8.8	4	-1E+10	1	-1E+10	1	-1E+10	1	-1E+10	1	-1E+10	1	-1E+10	1
4901784	10	C	10/13/2015	10:47	-129.690	46.519	0	1545.00	0	2.4210	0	34.5150	0	27.558	0	1526.587	0	29.3	4	8.9	4	-1E+10	1	-1E+10	1	-1E+10	1	-1E+10	1	-1E+10	1	-1E+10	1
4901784	10	C	10/13/2015	10:47	-129.690	46.519	0	1549.20	0	2.4090	0	34.5170	0	27.560	0	1530.722	0	29.7	4	9.0	4	-1E+10	1	-1E+10	1	-1E+10	1	-1E+10	1	-1E+10	1	-1E+10	1
4901784	10	C	10/13/2015	10:47	-129.690	46.519	0	1554.50	0	2.4020	0	34.5190	0	27.562	0	1535.939	0	30.1	4	9.2	4	-1E+10	1	-1E+10	1	-1E+10	1	-1E+10	1	-1E+10	1	-1E+10	1
4901784	10	C	10/13/2015	10:47	-129.690	46.519	0	1559.60	0	2.3960	0	34.5200	0	27.564	0	1540.960	0	30.4	4	9.2	4	-1E+10	1	-1E+10	1	-1E+10	1	-1E+10	1	-1E+10	1	-1E+10	1
4901784	10	C	10/13/2015	10:47	-129.690	46.519	0	1564.90	0	2.3900	0	34.5210	0	27.565	0	1546.177	0	30.7	4	9.3	4	-1E+10	1	-1E+10	1	-1E+10	1	-1E+10	1	-1E+10	1	-1E+10	1
4901784	10	C	10/13/2015	10:47	-129.690	46.519	0	1570.10	0	2.3840	0	34.5220	0	27.566	0	1551.296	0	30.9	4	9.4	4	-1E+10	1	-1E+10	1	-1E+10	1	-1E+10	1	-1E+10	1	-1E+10	1
4901784	10	C	10/13/2015	10:47	-129.690	46.519	0	1575.40	0	2.3810	0	34.5220	0	27.567	0	1556.513	0	31.2	4	9.5	4	-1E+10	1	-1E+10	1	-1E+10	1	-1E+10	1	-1E+10	1	-1E+10	1
4901784	10	C	10/13/2015	10:47	-129.690	46.519	0	1580.60	0	2.3740	0	34.5240	0	27.569	0	1561.631	0	31.6	4	9.6	4	-1E+10	1	-1E+10	1	-1E+10	1	-1E+10	1	-1E+10	1	-1E+10	1
4901784	10	C	10/13/2015	10:47	-129.690	46.519	0	1585.00	0	2.3630	0	34.5250	0	27.571	0	1565.962	0	32.0	4	9.7	4	-1E+10	1	-1E+10	1	-1E+10	1	-1E+10	1	-1E+10	1	-1E+10	1
4901784	10	C	10/13/2015	10:47	-129.690	46.519	0	1589.40	0	2.3510	0	34.5260	0	27.572	0	1570.293	0	32.1	4	9.8	4	-1E+10	1	-1E+10	1	-1E+10	1	-1E+10	1	-1E+10	1	-1E+10	1
4901784	10	C	10/13/2015	10:47	-129.690	46.519	0	1594.80	0	2.3470	0	34.5260	0	27.573	0	1575.608	0	32.2	4	9.8	4	-1E+10	1	-1E+10	1	-1E+10	1	-1E+10	1	-1E+10	1	-1E+10	1
4901784	10	C	10/13/2015	10:47	-129.690	46.519	0	1600.20	0	2.3400	0	34.5270	0	27.574	0	1580.923	0	32.3	4	9.8	4	-1E+10	1	-1E+10	1	-1E+10	1	-1E+10	1	-1E+10	1	-1E+10	1
4901784	10	C	10/13/2015	10:47	-129.690	46.519	0	1605.30	0	2.3290	0	34.5270	0	27.575	0	1585.943	0	32.4	4	9.8	4	-1E+10	1	-1E+10	1	-1E+10	1	-1E+10	1	-1E+10	1	-1E+10	1
4901784	10	C	10/13/2015	10:47	-129.690	46.519	0	1609.50	0	2.3250	0	34.5270	0	27.575	0	1590.076	0	32.5	4	9.9	4	-1E+10	1	-1E+10	1	-1E+10	1	-1E+10	1	-1E+10	1	-1E+10	1
4901784	10	C	10/13/2015	10:47	-129.690	46.519	0	1615.00	0	2.3160	0	34.5280	0	27.577	0	1595.489	0	32.5	4	9.9	4	-1E+10	1	-1E+10	1	-1E+10	1	-1E+10	1	-1E+10	1	-1E+10	1
4901784	10	C	10/13/2015	10:47	-129.690	46.519	0	1620.50	0	2.3070	0	34.5280	0	27.578	0	1600.902	0	32.9	4	10.0	4	-1E+10	1	-1E+10	1	-1E+10	1	-1E+10	1	-1E+10	1	-1E+10	1
4901784	10	C	10/13/2015	10:47	-129.690	46.519	0	1625.40	0	2.3010	0	34.5300	0	27.580	0	1605.724	0	33.3	4	10.1	4	-1E+10	1	-1E+10	1	-1E+10	1	-1E+10	1	-1E+10	1	-1E+10	1
4901784	10	C	10/13/2015	10:47	-129.690	46.519	0	1630.30	0	2.2980	0	34.5300	0	27.580	0	1610.546	0	33.6	4	10.2	4	-1E+10	1	-1E+10	1	-1E+10	1	-1E+10	1	-1E+10	1	-1E+10	1
4901784	10	C	10/13/2015	10:47	-129.690	46.519	0	1635.30	0	2.2910	0	34.5310	0	27.581	0	1615.466	0	34.1	4	10.3	4	-1E+10	1	-1E+10	1	-1E+10	1	-1E+10	1	-1E+10	1	-1E+10	1
4901784	10	C	10/13/2015	10:47	-129.690	46.519	0	1640.30	0	2.2860	0	34.5330	0	27.584	0	1620.387	0	34.3	4	10.4	4	-1E+10	1	-1E+10	1	-1E+10	1	-1E+10	1	-1E+10	1	-1E+10	1
4901784	10	C	10/13/2015	10:47	-129.690	46.519	0	1645.30	0	2.2770	0	34.5340	0	27.585	0	1625.307	0	34.5	4	10.5	4	-1E+10	1	-1E+10	1	-1E+10	1	-1E+10	1	-1E+10	1	-1E+10	1
4901784	10	C	10/13/2015	10:47	-129.690	46.519	0	1650.30	0	2.2730	0	34.5340	0	27.585	0	1630.227	0	34.7	4	10.5	4	-1E+10	1	-1E+10	1	-1E+10	1	-1E+10	1	-1E+10	1	-1E+10	1
4901784	10	C	10/13/2015	10:47	-129.690	46.519	0	1655.20	0	2.2690	0	34.5350	0	27.587	0	1635.048	0	34.9	4	10.6	4	-1E+10	1	-1E+10	1	-1E+10	1	-1E+10	1	-1E+10	1	-1E+10	1
4901784	10	C	10/13/2015	10:47	-129.690	46.519	0	1660.10	0	2.2680	0	34.5350	0	27.587	0	1639.870	0	35.1	4	10.6	4	-1E+10	1	-1E+10	1	-1E+10	1	-1E+10	1	-1E+10	1	-1E+10	1
4901784	10	C	10/13/2015	10:47	-129.690	46.519	0	1665.20	0	2.2650	0	34.5350	0	27.587	0	1644.888	0	35.3	4	10.7	4	-1E+10	1	-1E+10	1	-1E+10	1	-1E+10	1	-1E+10	1	-1E+10	1
4901784	10	C	10/13/2015	10:47	-129.690	46.519	0	1670.10	0	2.2570	0	34.5360	0	27.588	0	1649.709	0	35.6	4	10.8	4	-1E+10	1	-1E+10	1	-1E+10	1	-1E+10	1	-1E+10	1	-1E+10	1
4901784	10	C	10/13/2015	10:47	-129.690	46.519	0	1675.20	0	2.2500	0	34.5370	0	27.590	0	1654.727	0	36.0	4	10.9	4	-1E+10	1	-1E+10	1	-1E+10	1	-1E+10	1	-1E+10	1	-1E+10	1
4901784	10	C	10/13/2015	10:47	-129.690	46.519	0	1680.40	0	2.2430	0	34.5380	0	27.591	0	1659.843	0	36.4	4	11.0	4	-1E+10	1	-1E+10	1	-1E+10	1	-1E+10	1	-1E+10	1	-1E+10	1
4901784	10	C	10/13/2015	10:47	-129.690	46.519	0	1685.60	0	2.2370	0	34.5390	0	27.593	0	1664.959	0	36.8	4	11.2	4	-1E+10	1	-1E+10	1	-1E+10	1	-1E+10	1	-1E+10	1	-1E+10	1
4901784	10	C	10/13/2015	10:47	-129.690	46.519	0	1690.70	0	2.2260	0	34.5410	0	27.595	0	1669.976	0	37.2	4	11.3	4	-1E+10	1	-1E+10	1	-1E+10	1	-1E+10	1	-1E+10	1	-1E+10	1
4901784	10	C	10/13/2015	10:47	-129.690	46.519	0	1695.80	0	2.2210	0	34.5420	0	27.596	0	1674.994	0	37.4	4	11.3	4	-1E+10	1	-1E+10	1	-1E+10	1	-1E+10	1	-1E+10	1	-1E+10	1
4901784	10	C	10/13/2015	10:47	-129.690	46.519	0	1700.00	0	2.2170	0	34.5430	0	27.597	0	1679.126	0	37.6	4	11.4	4	-1E+10	1	-1E+10	1	-1E+10	1	-1E+10	1	-1E+10	1	-1E+10	1
4901784	10	C	10/13/2015	10:47	-129.690	46.519	0	1704.30	0	2.2120	0	34.5430	0	27.598	0	1683.356	0	37.8	4	11.5	4	-1E+10	1	-1E+10	1	-1E+10	1	-1E+10	1	-1E+10	1	-1E+10	1
4901784	10	C	10/13/2015	10:47	-129.690	46.519	0	1709.40	0	2.2070	0	34.5440	0	27.599	0	1688.373	0	38.2	4	11.6	4	-1E+10	1	-1E+10	1	-1E+10	1	-1E+10	1	-1E+10	1	-1E+10	1
4901784	10	C	10/13/2015	10:47	-129.690	46.519	0	1714.50	0	2.2020	0	34.5440	0	27.599	0	1693.390	0	38.3	4	11.6	4	-1E+10	1	-1E+10	1	-1E+10	1	-1E+10	1	-1E+10	1	-1E+10	1
4901784	10	C	10/13/2015	10:47	-129.690	46.519	0	1719.70	0	2.1910	0	34.5450	0	27.601	0	1698.505	0	38.6	4	11.7	4	-1E+10	1	-1E+10	1	-1E+10	1	-1E+10	1	-1E+10	1	-1E+10	1
4901784	10	C	10/13/2015	10:47	-129.690	46.519	0	1724.90	0	2.1800	0	34.5460	0	27.603	0	1703.620	0	38.7	4	11.7	4	-1E+10	1	-1E+10	1	-1E+10	1	-1E+10	1	-1E+10	1	-1E+10	1
4901784	10	C	10/13/2015	10:47	-129.690	46.519	0	1730.10	0	2.1760	0	34.5460	0	27.603	0	1708.735	0	38.9	4	11.8	4	-1E+10	1	-1E+10	1	-1E+10	1	-1E+10	1	-1E+10	1	-1E+10	1
4901784	10	C	10/13/2015	10:47	-129.690	46.519	0	1735.30	0	2.1730	0	34.5470	0	27.604	0	1713.850	0	39.3	4	11.9	4	-1E+10	1	-1E+10	1	-1E+10	1	-1E+10	1	-1E+10	1	-1E+10	1
4901784	10	C	10/13/2015	10:47	-129.690	46.519	0	1740.60	0	2.1610	0	34.5480	0	27.606	0	1719.063	0	39.6	4	12.0	4	-1E+10	1	-1E+10	1	-1E+10	1	-1E+10	1	-1E+10	1	-1E+10	1
4901784	10	C	10/13/2015	10:47	-129.690	46.519	0	1745.00	0	2.1590	0	34.5490	0	27.607	0	1723.390	0	39.8	4	12.0	4	-1E+10	1	-1E+10	1	-1E+10	1	-1E+10	1	-1E+10	1	-1E+10	1
4901784	10	C	10/13/2015	10:47	-129.690	46.519	0	1749.40	0	2.1560	0	34.5490	0	27.607	0	1727.718	0	40.1	4	12.1	4	-1E+10	1	-1E+10	1	-1E+10	1	-1E+10	1	-1E+10	1	-1E+10	1
4901784	10	C	10/13/2015	10:47	-129.690	46.519	0	1754.60	0	2.1510	0	34.5500	0	27.609	0	1732.832	0	40.5	4	12.3	4	-1E+10	1	-1E+10	1	-1E+10	1	-1E+10	1	-1E+10	1	-1E+10	1
4901784	10	C	10/13/2015	10:47	-129.690	46.519	0	1759.80	0	2.1430	0	34.5510	0	27.610	0	1737.946	0	40.8	4	12.4	4	-1E+10	1	-1E+10	1	-1E+10	1	-1E+10	1	-1E+10	1	-1E+10	1
4901784	10	C	10/13/2015	10:47	-129.690	46.519	0	1764.90	0	2.1400	0	34.5520	0	27.611	0	1742.962	0	41.1	4	12.4	4	-1E+10	1	-1E+10	1	-1E+10	1	-1E+10	1	-1E+10	1	-1E+10	1
4901784	10	C	10/13/2015	10:47	-129.690	46.519	0	1770.10	0	2.1330	0	34.5530	0	27.612	0	1748.076	0	41.6	4	12.6	4	-1E+10	1	-1E+10	1	-1E+10	1	-1E+10	1	-1E+10	1	-1E+10	1
4901784	10	C	10/13/2015	10:47	-129.690	46.519	0	1775.30	0	2.1250	0	34.5540	0	27.614	0	1753.190	0	42.0	4	12.7	4	-1E+10	1	-1E+10	1	-1E+10	1	-1E+10	1	-1E+10	1	-1E+10	1
4901784	10	C	10/13/2015	10:47	-129.690	46.519	0	1780.70	0	2.1180	0	34.5550	0	27.615	0	1758.500	0	42.3	4	12.8	4	-1E+10	1	-1E+10	1	-1E+10	1	-1E+10	1	-1E+10	1	-1E+10	1
4901784	10	C	10/13/2015	10:47	-129.690	46.519	0	1785.10	0	2.1120	0	34.5560	0	27.617	0	1762.827	0	42.6	4	12.9	4	-1E+10	1	-1E+10	1	-1E+10	1	-1E+10	1	-1E+10	1	-1E+10	1
4901784	10	C	10/13/2015	10:47	-129.690	46.519	0	1789.60	0	2.1100	0	34.5570	0	27.618	0	1767.252	0	42.7	4	12.9	4	-1E+10	1	-1E+10	1	-1E+10	1	-1E+10	1	-1E+10	1	-1E+10	1
4901784	10	C	10/13/2015	10:47	-129.690	46.519	0	1795.00	0	2.1090	0	34.5560	0	27.617	0	1772.562	0	42.8	4	12.9	4	-1E+10	1	-1E+10	1	-1E+10	1	-1E+10	1	-1E+10	1	-1E+10	1
4901784	10	C	10/13/2015	10:47	-129.690	46.519	0	1800.00	0	2.1070	0	34.5570	0	27.618	0	1777.479	0	43.0	4	13.0	4	-1E+10	1	-1E+10	1	-1E+10	1	-1E+10	1	-1E+10	1	-1E+10	1
4901784	10	C	10/13/2015	10:47	-129.690	46.519	0	1805.00	0	2.1030	0	34.5580	0	27.619	0	1782.396	0	43.6	4	13.2	4	-1E+10	1	-1E+10	1	-1E+10	1	-1E+10	1	-1E+10	1	-1E+10	1
4901784	10	C	10/13/2015	10:47	-129.690	46.519	0	1810.60	0	2.0900	0	34.5600	0	27.622	0	1787.902	0	44.2	4	13.4	4	-1E+10	1	-1E+10	1	-1E+10	1	-1E+10	1	-1E+10	1	-1E+10	1
4901784	10	C	10/13/2015	10:47	-129.690	46.519	0	1815.50	0	2.0850	0	34.5610	0	27.623	0	1792.720	0	44.6	4	13.5	4	-1E+10	1	-1E+10	1	-1E+10	1	-1E+10	1	-1E+10	1	-1E+10	1
4901784	10	C	10/13/2015	10:47	-129.690	46.519	0	1820.40	0	2.0810	0	34.5610	0	27.623	0	1797.538	0	44.7	4	13.5	4	-1E+10	1	-1E+10	1	-1E+10	1	-1E+10	1	-1E+10	1	-1E+10	1
4901784	10	C	10/13/2015	10:47	-129.690	46.519	0	1825.20	0	2.0780	0	34.5620	0	27.624	0	1802.257	0	44.9	4	13.6	4	-1E+10	1	-1E+10	1	-1E+10	1	-1E+10	1	-1E+10	1	-1E+10	1
4901784	10	C	10/13/2015	10:47	-129.690	46.519	0	1830.10	0	2.0720	0	34.5630	0	27.626	0	1807.074	0	45.3	4	13.7	4	-1E+10	1	-1E+10	1	-1E+10	1	-1E+10	1	-1E+10	1	-1E+10	1
4901784	10	C	10/13/2015	10:47	-129.690	46.519	0	1835.00	0	2.0690	0	34.5630	0	27.626	0	1811.892	0	45.6	4	13.8	4	-1E+10	1	-1E+10	1	-1E+10	1	-1E+10	1	-1E+10	1	-1E+10	1
4901784	10	C	10/13/2015	10:47	-129.690	46.519	0	1839.90	0	2.0650	0	34.5640	0	27.627	0	1816.709	0	45.9	4	13.9	4	-1E+10	1	-1E+10	1	-1E+10	1	-1E+10	1	-1E+10	1	-1E+10	1
4901784	10	C	10/13/2015	10:47	-129.690	46.519	0	1844.90	0	2.0590	0	34.5650	0	27.628	0	1821.625	0	46.2	4	13.9	4	-1E+10	1	-1E+10	1	-1E+10	1	-1E+10	1	-1E+10	1	-1E+10	1
4901784	10	C	10/13/2015	10:47	-129.690	46.519	0	1849.90	0	2.0570	0	34.5660	0	27.629	0	1826.540	0	46.4	4	14.0	4	-1E+10	1	-1E+10	1	-1E+10	1	-1E+10	1	-1E+10	1	-1E+10	1
4901784	10	C	10/13/2015	10:47	-129.690	46.519	0	1855.00	0	2.0550	0	34.5660	0	27.629	0	1831.554	0	46.5	4	14.0	4	-1E+10	1	-1E+10	1	-1E+10	1	-1E+10	1	-1E+10	1	-1E+10	1
4901784	10	C	10/13/2015	10:47	-129.690	46.519	0	1860.10	0	2.0540	0	34.5660	0	27.630	0	1836.568	0	46.7	4	14.1	4	-1E+10	1	-1E+10	1	-1E+10	1	-1E+10	1	-1E+10	1	-1E+10	1
4901784	10	C	10/13/2015	10:47	-129.690	46.519	0	1865.30	0	2.0520	0	34.5660	0	27.630	0	1841.679	0	46.9	4	14.2	4	-1E+10	1	-1E+10	1	-1E+10	1	-1E+10	1	-1E+10	1	-1E+10	1
4901784	10	C	10/13/2015	10:47	-129.690	46.519	0	1870.50	0	2.0490	0	34.5670	0	27.631	0	1846.791	0	47.3	4	14.3	4	-1E+10	1	-1E+10	1	-1E+10	1	-1E+10	1	-1E+10	1	-1E+10	1
4901784	10	C	10/13/2015	10:47	-129.690	46.519	0	1875.70	0	2.0470	0	34.5680	0	27.632	0	1851.902	0	47.6	4	14.4	4	-1E+10	1	-1E+10	1	-1E+10	1	-1E+10	1	-1E+10	1	-1E+10	1
4901784	10	C	10/13/2015	10:47	-129.690	46.519	0	1880.00	0	2.0440	0	34.5690	0	27.633	0	1856.129	0	48.0	4	14.5	4	-1E+10	1	-1E+10	1	-1E+10	1	-1E+10	1	-1E+10	1	-1E+10	1
4901784	10	C	10/13/2015	10:47	-129.690	46.519	0	1884.30	0	2.0410	0	34.5700	0	27.634	0	1860.356	0	48.2	4	14.6	4	-1E+10	1	-1E+10	1	-1E+10	1	-1E+10	1	-1E+10	1	-1E+10	1
4901784	10	C	10/13/2015	10:47	-129.690	46.519	0	1889.60	0	2.0380	0	34.5710	0	27.635	0	1865.565	0	48.5	4	14.6	4	-1E+10	1	-1E+10	1	-1E+10	1	-1E+10	1	-1E+10	1	-1E+10	1
4901784	10	C	10/13/2015	10:47	-129.690	46.519	0	1894.80	0	2.0350	0	34.5710	0	27.635	0	1870.676	0	48.6	4	14.7	4	-1E+10	1	-1E+10	1	-1E+10	1	-1E+10	1	-1E+10	1	-1E+10	1
4901784	10	C	10/13/2015	10:47	-129.690	46.519	0	1900.20	0	2.0340	0	34.5710	0	27.635	0	1875.983	0	48.8	4	14.7	4	-1E+10	1	-1E+10	1	-1E+10	1	-1E+10	1	-1E+10	1	-1E+10	1
4901784	10	C	10/13/2015	10:47	-129.690	46.519	0	1905.60	0	2.0340	0	34.5710	0	27.635	0	1881.291	0	49.1	4	14.8	4	-1E+10	1	-1E+10	1	-1E+10	1	-1E+10	1	-1E+10	1	-1E+10	1
4901784	10	C	10/13/2015	10:47	-129.690	46.519	0	1910.00	0	2.0250	0	34.5730	0	27.638	0	1885.615	0	49.6	4	15.0	4	-1E+10	1	-1E+10	1	-1E+10	1	-1E+10	1	-1E+10	1	-1E+10	1
4901784	10	C	10/13/2015	10:47	-129.690	46.519	0	1914.50	0	2.0160	0	34.5740	0	27.639	0	1890.038	0	49.9	4	15.1	4	-1E+10	1	-1E+10	1	-1E+10	1	-1E+10	1	-1E+10	1	-1E+10	1
4901784	10	C	10/13/2015	10:47	-129.690	46.519	0	1919.80	0	2.0140	0	34.5740	0	27.639	0	1895.247	0	50.1	4	15.1	4	-1E+10	1	-1E+10	1	-1E+10	1	-1E+10	1	-1E+10	1	-1E+10	1
4901784	10	C	10/13/2015	10:47	-129.690	46.519	0	1925.10	0	2.0110	0	34.5750	0	27.641	0	1900.455	0	50.3	4	15.2	4	-1E+10	1	-1E+10	1	-1E+10	1	-1E+10	1	-1E+10	1	-1E+10	1
4901784	10	C	10/13/2015	10:47	-129.690	46.519	0	1930.30	0	2.0100	0	34.5750	0	27.641	0	1905.565	0	50.6	4	15.3	4	-1E+10	1	-1E+10	1	-1E+10	1	-1E+10	1	-1E+10	1	-1E+10	1
4901784	10	C	10/13/2015	10:47	-129.690	46.519	0	1935.60	0	2.0060	0	34.5760	0	27.642	0	1910.774	0	50.8	4	15.3	4	-1E+10	1	-1E+10	1	-1E+10	1	-1E+10	1	-1E+10	1	-1E+10	1
4901784	10	C	10/13/2015	10:47	-129.690	46.519	0	1940.10	0	2.0020	0	34.5770	0	27.643	0	1915.196	0	51.0	4	15.4	4	-1E+10	1	-1E+10	1	-1E+10	1	-1E+10	1	-1E+10	1	-1E+10	1
4901784	10	C	10/13/2015	10:47	-129.690	46.519	0	1944.50	0	2.0010	0	34.5770	0	27.643	0	1919.519	0	51.2	4	15.4	4	-1E+10	1	-1E+10	1	-1E+10	1	-1E+10	1	-1E+10	1	-1E+10	1
4901784	10	C	10/13/2015	10:47	-129.690	46.519	0	1949.90	0	2.0000	0	34.5770	0	27.643	0	1924.826	0	51.5	4	15.5	4	-1E+10	1	-1E+10	1	-1E+10	1	-1E+10	1	-1E+10	1	-1E+10	1
4901784	10	C	10/13/2015	10:47	-129.690	46.519	0	1955.00	0	1.9960	0	34.5780	0	27.644	0	1929.837	0	51.7	4	15.6	4	-1E+10	1	-1E+10	1	-1E+10	1	-1E+10	1	-1E+10	1	-1E+10	1
4901784	10	C	10/13/2015	10:47	-129.690	46.519	0	1960.10	0	1.9930	0	34.5780	0	27.645	0	1934.848	0	51.8	4	15.6	4	-1E+10	1	-1E+10	1	-1E+10	1	-1E+10	1	-1E+10	1	-1E+10	1
4901784	10	C	10/13/2015	10:47	-129.690	46.519	0	1965.70	0	1.9930	0	34.5790	0	27.645	0	1940.350	0	51.9	4	15.6	4	-1E+10	1	-1E+10	1	-1E+10	1	-1E+10	1	-1E+10	1	-1E+10	1
4901784	10	C	10/13/2015	10:47	-129.690	46.519	0	1970.60	0	1.9930	0	34.5790	0	27.645	0	1945.165	0	52.0	4	15.7	4	-1E+10	1	-1E+10	1	-1E+10	1	-1E+10	1	-1E+10	1	-1E+10	1
4901784	10	C	10/13/2015	10:47	-129.690	46.519	0	1975.40	0	1.9910	0	34.5790	0	27.646	0	1949.881	0	52.4	4	15.8	4	-1E+10	1	-1E+10	1	-1E+10	1	-1E+10	1	-1E+10	1	-1E+10	1
4901784	10	C	10/13/2015	10:47	-129.690	46.519	0	1980.40	0	1.9810	0	34.5800	0	27.647	0	1954.793	0	52.9	4	15.9	4	-1E+10	1	-1E+10	1	-1E+10	1	-1E+10	1	-1E+10	1	-1E+10	1
4901784	10	C	10/13/2015	10:47	-129.690	46.519	0	1985.30	0	1.9790	0	34.5810	0	27.648	0	1959.608	0	53.0	4	16.0	4	-1E+10	1	-1E+10	1	-1E+10	1	-1E+10	1	-1E+10	1	-1E+10	1
4901784	10	C	10/13/2015	10:47	-129.690	46.519	0	1990.30	0	1.9790	0	34.5810	0	27.648	0	1964.520	0	53.1	4	16.0	4	-1E+10	1	-1E+10	1	-1E+10	1	-1E+10	1	-1E+10	1	-1E+10	1
4901784	10	C	10/13/2015	10:47	-129.690	46.519	0	1995.20	0	1.9760	0	34.5810	0	27.648	0	1969.334	0	53.4	4	16.1	4	-1E+10	1	-1E+10	1	-1E+10	1	-1E+10	1	-1E+10	1	-1E+10	1
4901784	10	C	10/13/2015	10:47	-129.690	46.519	0	2000.20	0	1.9700	0	34.5820	0	27.650	0	1974.246	0	53.8	4	16.2	4	-1E+10	1	-1E+10	1	-1E+10	1	-1E+10	1	-1E+10	1	-1E+10	1
4901784	10	C	10/13/2015	10:47	-129.690	46.519	0	2005.50	0	1.9660	0	34.5830	0	27.651	0	1979.452	0	54.0	4	16.3	4	-1E+10	1	-1E+10	1	-1E+10	1	-1E+10	1	-1E+10	1	-1E+10	1
4901784	10	C	10/13/2015	10:47	-129.690	46.519	0	2010.20	0	1.9630	0	34.5830	0	27.651	0	1984.069	0	54.1	4	16.3	4	-1E+10	1	-1E+10	1	-1E+10	1	-1E+10	1	-1E+10	1	-1E+10	1
4901784	10	C	10/13/2015	10:47	-129.690	46.519	0	2014.90	0	1.9620	0	34.5840	0	27.652	0	1988.687	0	54.2	4	16.3	4	-1E+10	1	-1E+10	1	-1E+10	1	-1E+10	1	-1E+10	1	-1E+10	1
4901784	10	C	10/13/2015	10:47	-129.690	46.519	0	2020.30	0	1.9610	0	34.5840	0	27.652	0	1993.991	0	54.3	4	16.4	4	-1E+10	1	-1E+10	1	-1E+10	1	-1E+10	1	-1E+10	1	-1E+10	1
4901784	10	C	10/13/2015	10:47	-129.690	46.519	0																										
4901784	11	C	10/23/2015	10:47	-129.822	46.352	0	2.60	0	16.8210	0	32.2730	0	23.465	0	2.579	0	235.5	4	96.7	4	-1E+10	1	-1E+10	1	-1E+10	1	-1E+10	1	-1E+10	1	-1E+10	1
4901784	11	C	10/23/2015	10:47	-129.822	46.352	0	4.30	0	16.8250	0	32.2740	0	23.465	0	4.265	0	235.6	4	96.7	4	-1E+10	1	-1E+10	1	-1E+10	1	-1E+10	1	-1E+10	1	-1E+10	1
4901784	11	C	10/23/2015	10:47	-129.822	46.352	0	6.00	0	16.8240	0	32.2750	0	23.466	0	5.950	0	235.4	4	96.6	4	-1E+10	1	-1E+10	1	-1E+10	1	-1E+10	1	-1E+10	1	-1E+10	1
4901784	11	C	10/23/2015	10:47	-129.822	46.352	0	7.80	0	16.8210	0	32.2780	0	23.469	0	7.736	0	235.3	4	96.6	4	-1E+10	1	-1E+10	1	-1E+10	1	-1E+10	1	-1E+10	1	-1E+10	1
4901784	11	C	10/23/2015	10:47	-129.822	46.352	0	9.70	0	16.8200	0	32.2840	0	23.474	0	9.620	0	235.2	4	96.5	4	-1E+10	1	-1E+10	1	-1E+10	1	-1E+10	1	-1E+10	1	-1E+10	1
4901784	11	C	10/23/2015	10:47	-129.822	46.352	0	11.50	0	16.8170	0	32.2930	0	23.482	0	11.405	0	235.2	4	96.5	4	-1E+10	1	-1E+10	1	-1E+10	1	-1E+10	1	-1E+10	1	-1E+10	1
4901784	11	C	10/23/2015	10:47	-129.822	46.352	0	13.30	0	16.8090	0	32.3060	0	23.493	0	13.190	0	235.1	4	96.5	4	-1E+10	1	-1E+10	1	-1E+10	1	-1E+10	1	-1E+10	1	-1E+10	1
4901784	11	C	10/23/2015	10:47	-129.822	46.352	0	15.20	0	16.8020	0	32.3190	0	23.505	0	15.074	0	235.0	4	96.4	4	-1E+10	1	-1E+10	1	-1E+10	1	-1E+10	1	-1E+10	1	-1E+10	1
4901784	11	C	10/23/2015	10:47	-129.822	46.352	0	17.20	0	16.7980	0	32.3250	0	23.511	0	17.058	0	235.0	4	96.4	4	-1E+10	1	-1E+10	1	-1E+10	1	-1E+10	1	-1E+10	1	-1E+10	1
4901784	11	C	10/23/2015	10:47	-129.822	46.352	0	19.30	0	16.7770	0	32.3410	0	23.528	0	19.140	0	234.8	4	96.3	4	-1E+10	1	-1E+10	1	-1E+10	1	-1E+10	1	-1E+10	1	-1E+10	1
4901784	11	C	10/23/2015	10:47	-129.822	46.352	0	21.20	0	16.7600	0	32.3590	0	23.546	0	21.024	0	235.0	4	96.4	4	-1E+10	1	-1E+10	1	-1E+10	1	-1E+10	1	-1E+10	1	-1E+10	1
4901784	11	C	10/23/2015	10:47	-129.822	46.352	0	23.20	0	16.7560	0	32.3620	0	23.549	0	23.008	0	234.8	4	96.3	4	-1E+10	1	-1E+10	1	-1E+10	1	-1E+10	1	-1E+10	1	-1E+10	1
4901784	11	C	10/23/2015	10:47	-129.822	46.352	0	25.20	0	16.7590	0	32.3650	0	23.551	0	24.991	0	234.5	4	96.2	4	-1E+10	1	-1E+10	1	-1E+10	1	-1E+10	1	-1E+10	1	-1E+10	1
4901784	11	C	10/23/2015	10:47	-129.822	46.352	0	27.10	0	16.7630	0	32.3680	0	23.552	0	26.875	0	234.5	4	96.2	4	-1E+10	1	-1E+10	1	-1E+10	1	-1E+10	1	-1E+10	1	-1E+10	1
4901784	11	C	10/23/2015	10:47	-129.822	46.352	0	29.10	0	16.7780	0	32.3770	0	23.556	0	28.858	0	234.3	4	96.1	4	-1E+10	1	-1E+10	1	-1E+10	1	-1E+10	1	-1E+10	1	-1E+10	1
4901784	11	C	10/23/2015	10:47	-129.822	46.352	0	31.10	0	16.7920	0	32.4040	0	23.573	0	30.841	0	234.0	4	96.0	4	-1E+10	1	-1E+10	1	-1E+10	1	-1E+10	1	-1E+10	1	-1E+10	1
4901784	11	C	10/23/2015	10:47	-129.822	46.352	0	33.10	0	16.8000	0	32.4250	0	23.588	0	32.825	0	233.8	4	96.0	4	-1E+10	1	-1E+10	1	-1E+10	1	-1E+10	1	-1E+10	1	-1E+10	1
4901784	11	C	10/23/2015	10:47	-129.822	46.352	0	35.10	0	16.7990	0	32.4250	0	23.588	0	34.808	0	233.7	4	96.0	4	-1E+10	1	-1E+10	1	-1E+10	1	-1E+10	1	-1E+10	1	-1E+10	1
4901784	11	C	10/23/2015	10:47	-129.822	46.352	0	37.00	0	16.7860	0	32.4280	0	23.593	0	36.692	0	233.7	4	95.9	4	-1E+10	1	-1E+10	1	-1E+10	1	-1E+10	1	-1E+10	1	-1E+10	1
4901784	11	C	10/23/2015	10:47	-129.822	46.352	0	38.90	0	16.7800	0	32.4400	0	23.604	0	38.576	0	234.0	4	96.0	4	-1E+10	1	-1E+10	1	-1E+10	1	-1E+10	1	-1E+10	1	-1E+10	1
4901784	11	C	10/23/2015	10:47	-129.822	46.352	0	40.80	0	16.7840	0	32.4430	0	23.605	0	40.460	0	234.3	4	96.2	4	-1E+10	1	-1E+10	1	-1E+10	1	-1E+10	1	-1E+10	1	-1E+10	1
4901784	11	C	10/23/2015	10:47	-129.822	46.352	0	43.20	0	16.7870	0	32.4410	0	23.603	0	42.839	0	235.3	4	96.6	4	-1E+10	1	-1E+10	1	-1E+10	1	-1E+10	1	-1E+10	1	-1E+10	1
4901784	11	C	10/23/2015	10:47	-129.822	46.352	0	45.00	0	16.7900	0	32.4380	0	23.600	0	44.624	0	236.7	4	97.2	4	-1E+10	1	-1E+10	1	-1E+10	1	-1E+10	1	-1E+10	1	-1E+10	1
4901784	11	C	10/23/2015	10:47	-129.822	46.352	0	46.60	0	16.7820	0	32.4370	0	23.601	0	46.211	0	238.7	4	98.0	4	-1E+10	1	-1E+10	1	-1E+10	1	-1E+10	1	-1E+10	1	-1E+10	1
4901784	11	C	10/23/2015	10:47	-129.822	46.352	0	48.00	0	16.7310	0	32.4290	0	23.607	0	47.599	0	242.0	4	99.2	4	-1E+10	1	-1E+10	1	-1E+10	1	-1E+10	1	-1E+10	1	-1E+10	1
4901784	11	C	10/23/2015	10:47	-129.822	46.352	0	49.60	0	15.8740	0	32.3970	0	23.777	0	49.185	0	247.4	4	99.8	4	-1E+10	1	-1E+10	1	-1E+10	1	-1E+10	1	-1E+10	1	-1E+10	1
4901784	11	C	10/23/2015	10:47	-129.822	46.352	0	51.30	0	15.1160	0	32.4040	0	23.949	0	50.871	0	254.2	4	101.0	4	-1E+10	1	-1E+10	1	-1E+10	1	-1E+10	1	-1E+10	1	-1E+10	1
4901784	11	C	10/23/2015	10:47	-129.822	46.352	0	53.20	0	14.4600	0	32.3880	0	24.076	0	52.755	0	260.0	4	101.9	4	-1E+10	1	-1E+10	1	-1E+10	1	-1E+10	1	-1E+10	1	-1E+10	1
4901784	11	C	10/23/2015	10:47	-129.822	46.352	0	53.60	0	14.4600	0	32.3890	0	24.077	0	53.151	0	259.8	4	101.9	4	-1E+10	1	-1E+10	1	-1E+10	1	-1E+10	1	-1E+10	1	-1E+10	1
4901784	11	C	10/23/2015	10:47	-129.822	46.352	0	54.90	0	14.4310	0	32.3810	0	24.077	0	54.440	0	260.2	4	102.0	4	-1E+10	1	-1E+10	1	-1E+10	1	-1E+10	1	-1E+10	1	-1E+10	1
4901784	11	C	10/23/2015	10:47	-129.822	46.352	0	56.10	0	14.3980	0	32.3700	0	24.075	0	55.630	0	260.3	4	101.9	4	-1E+10	1	-1E+10	1	-1E+10	1	-1E+10	1	-1E+10	1	-1E+10	1
4901784	11	C	10/23/2015	10:47	-129.822	46.352	0	57.40	0	14.0880	0	32.3660	0	24.137	0	56.919	0	262.2	4	102.0	4	-1E+10	1	-1E+10	1	-1E+10	1	-1E+10	1	-1E+10	1	-1E+10	1
4901784	11	C	10/23/2015	10:47	-129.822	46.352	0	58.60	0	13.6880	0	32.3540	0	24.209	0	58.109	0	263.7	4	101.8	4	-1E+10	1	-1E+10	1	-1E+10	1	-1E+10	1	-1E+10	1	-1E+10	1
4901784	11	C	10/23/2015	10:47	-129.822	46.352	0	60.00	0	13.2940	0	32.3580	0	24.291	0	59.497	0	264.6	4	101.3	4	-1E+10	1	-1E+10	1	-1E+10	1	-1E+10	1	-1E+10	1	-1E+10	1
4901784	11	C	10/23/2015	10:47	-129.822	46.352	0	61.30	0	12.9820	0	32.3450	0	24.343	0	60.786	0	266.3	4	101.3	4	-1E+10	1	-1E+10	1	-1E+10	1	-1E+10	1	-1E+10	1	-1E+10	1
4901784	11	C	10/23/2015	10:47	-129.822	46.352	0	62.70	0	13.1040	0	32.4280	0	24.383	0	62.174	0	263.7	4	100.6	4	-1E+10	1	-1E+10	1	-1E+10	1	-1E+10	1	-1E+10	1	-1E+10	1
4901784	11	C	10/23/2015	10:47	-129.822	46.352	0	64.20	0	12.7960	0	32.4910	0	24.492	0	63.661	0	262.3	4	99.5	4	-1E+10	1	-1E+10	1	-1E+10	1	-1E+10	1	-1E+10	1	-1E+10	1
4901784	11	C	10/23/2015	10:47	-129.822	46.352	0	65.70	0	12.5730	0	32.4690	0	24.518	0	65.148	0	260.3	4	98.3	4	-1E+10	1	-1E+10	1	-1E+10	1	-1E+10	1	-1E+10	1	-1E+10	1
4901784	11	C	10/23/2015	10:47	-129.822	46.352	0	67.30	0	12.2460	0	32.4580	0	24.571	0	66.734	0	258.5	4	96.9	4	-1E+10	1	-1E+10	1	-1E+10	1	-1E+10	1	-1E+10	1	-1E+10	1
4901784	11	C	10/23/2015	10:47	-129.822	46.352	0	69.00	0	11.7860	0	32.4460	0	24.648	0	68.420	0	259.1	4	96.2	4	-1E+10	1	-1E+10	1	-1E+10	1	-1E+10	1	-1E+10	1	-1E+10	1
4901784	11	C	10/23/2015	10:47	-129.822	46.352	0	71.10	0	11.7840	0	32.4880	0	24.681	0	70.502	0	256.7	4	95.4	4	-1E+10	1	-1E+10	1	-1E+10	1	-1E+10	1	-1E+10	1	-1E+10	1
4901784	11	C	10/23/2015	10:47	-129.822	46.352	0	71.50	0	11.7460	0	32.4790	0	24.681	0	70.898	0	256.5	4	95.2	4	-1E+10	1	-1E+10	1	-1E+10	1	-1E+10	1	-1E+10	1	-1E+10	1
4901784	11	C	10/23/2015	10:47	-129.822	46.352	0	73.00	0	12.0150	0	32.5840	0	24.713	0	72.386	0	252.2	4	94.2	4	-1E+10	1	-1E+10	1	-1E+10	1	-1E+10	1	-1E+10	1	-1E+10	1
4901784	11	C	10/23/2015	10:47	-129.822	46.352	0	74.40	0	11.9620	0	32.5880	0	24.726	0	73.774	0	249.1	4	92.9	4	-1E+10	1	-1E+10	1	-1E+10	1	-1E+10	1	-1E+10	1	-1E+10	1
4901784	11	C	10/23/2015	10:47	-129.822	46.352	0	75.70	0	11.6320	0	32.5730	0	24.775	0	75.062	0	245.8	4	91.1	4	-1E+10	1	-1E+10	1	-1E+10	1	-1E+10	1	-1E+10	1	-1E+10	1
4901784	11	C	10/23/2015	10:47	-129.822	46.352	0	77.20	0	11.3620	0	32.5570	0	24.811	0	76.549	0	243.3	4	89.6	4	-1E+10	1	-1E+10	1	-1E+10	1	-1E+10	1	-1E+10	1	-1E+10	1
4901784	11	C	10/23/2015	10:47	-129.822	46.352	0	78.60	0	11.0790	0	32.5200	0	24.833	0	77.937	0	242.2	4	88.7	4	-1E+10	1	-1E+10	1	-1E+10	1	-1E+10	1	-1E+10	1	-1E+10	1
4901784	11	C	10/23/2015	10:47	-129.822	46.352	0	80.00	0	11.1340	0	32.5290	0	24.830	0	79.325	0	238.9	4	87.6	4	-1E+10	1	-1E+10	1	-1E+10	1	-1E+10	1	-1E+10	1	-1E+10	1
4901784	11	C	10/23/2015	10:47	-129.822	46.352	0	81.50	0	10.7920	0	32.5580	0	24.913	0	80.812	0	237.4	4	86.4	4	-1E+10	1	-1E+10	1	-1E+10	1	-1E+10	1	-1E+10	1	-1E+10	1
4901784	11	C	10/23/2015	10:47	-129.822	46.352	0	83.00	0	10.8670	0	32.6040	0	24.936	0	82.299	0	234.2	4	85.4	4	-1E+10	1	-1E+10	1	-1E+10	1	-1E+10	1	-1E+10	1	-1E+10	1
4901784	11	C	10/23/2015	10:47	-129.822	46.352	0	84.70	0	10.7870	0	32.6380	0	24.976	0	83.985	0	230.1	4	83.8	4	-1E+10	1	-1E+10	1	-1E+10	1	-1E+10	1	-1E+10	1	-1E+10	1
4901784	11	C	10/23/2015	10:47	-129.822	46.352	0	86.20	0	10.6230	0	32.6580	0	25.020	0	85.472	0	225.9	4	82.0	4	-1E+10	1	-1E+10	1	-1E+10	1	-1E+10	1	-1E+10	1	-1E+10	1
4901784	11	C	10/23/2015	10:47	-129.822	46.352	0	87.90	0	10.3420	0	32.6580	0	25.068	0	87.157	0	222.7	4	80.3	4	-1E+10	1	-1E+10	1	-1E+10	1	-1E+10	1	-1E+10	1	-1E+10	1
4901784	11	C	10/23/2015	10:47	-129.822	46.352	0	89.50	0	10.3340	0	32.6700	0	25.079	0	88.743	0	218.3	4	78.8	4	-1E+10	1	-1E+10	1	-1E+10	1	-1E+10	1	-1E+10	1	-1E+10	1
4901784	11	C	10/23/2015	10:47	-129.822	46.352	0	91.20	0	10.1420	0	32.7100	0	25.143	0	90.428	0	214.0	4	76.9	4	-1E+10	1	-1E+10	1	-1E+10	1	-1E+10	1	-1E+10	1	-1E+10	1
4901784	11	C	10/23/2015	10:47	-129.822	46.352	0	92.90	0	9.6140	0	32.7350	0	25.249	0	92.114	0	212.0	4	75.3	4	-1E+10	1	-1E+10	1	-1E+10	1	-1E+10	1	-1E+10	1	-1E+10	1
4901784	11	C	10/23/2015	10:47	-129.822	46.352	0	94.70	0	9.4580	0	32.7550	0	25.290	0	93.898	0	211.2	4	74.8	4	-1E+10	1	-1E+10	1	-1E+10	1	-1E+10	1	-1E+10	1	-1E+10	1
4901784	11	C	10/23/2015	10:47	-129.822	46.352	0	96.70	0	9.3640	0	32.7680	0	25.315	0	95.881	0	210.8	4	74.5	4	-1E+10	1	-1E+10	1	-1E+10	1	-1E+10	1	-1E+10	1	-1E+10	1
4901784	11	C	10/23/2015	10:47	-129.822	46.352	0	98.50	0	9.3410	0	32.7750	0	25.324	0	97.665	0	210.2	4	74.3	4	-1E+10	1	-1E+10	1	-1E+10	1	-1E+10	1	-1E+10	1	-1E+10	1
4901784	11	C	10/23/2015	10:47	-129.822	46.352	0	102.70	0	9.2100	0	32.8240	0	25.384	0	101.828	0	208.3	4	73.4	4	-1E+10	1	-1E+10	1	-1E+10	1	-1E+10	1	-1E+10	1	-1E+10	1
4901784	11	C	10/23/2015	10:47	-129.822	46.352	0	105.00	0	9.2000	0	32.8590	0	25.413	0	104.108	0	206.1	4	72.6	4	-1E+10	1	-1E+10	1	-1E+10	1	-1E+10	1	-1E+10	1	-1E+10	1
4901784	11	C	10/23/2015	10:47	-129.822	46.352	0	107.30	0	9.0070	0	32.8750	0	25.455	0	106.388	0	203.7	4	71.5	4	-1E+10	1	-1E+10	1	-1E+10	1	-1E+10	1	-1E+10	1	-1E+10	1
4901784	11	C	10/23/2015	10:47	-129.822	46.352	0	109.60	0	8.8860	0	32.8810	0	25.479	0	108.668	0	202.3	4	70.8	4	-1E+10	1	-1E+10	1	-1E+10	1	-1E+10	1	-1E+10	1	-1E+10	1
4901784	11	C	10/23/2015	10:47	-129.822	46.352	0	112.90	0	8.7360	0	32.9150	0	25.529	0	111.939	0	200.6	4	70.0	4	-1E+10	1	-1E+10	1	-1E+10	1	-1E+10	1	-1E+10	1	-1E+10	1
4901784	11	C	10/23/2015	10:47	-129.822	46.352	0	115.40	0	8.6430	0	32.9390	0	25.562	0	114.417	0	199.6	4	69.5	4	-1E+10	1	-1E+10	1	-1E+10	1	-1E+10	1	-1E+10	1	-1E+10	1
4901784	11	C	10/23/2015	10:47	-129.822	46.352	0	117.80	0	8.6000	0	32.9530	0	25.579	0	116.796	0	198.4	4	69.0	4	-1E+10	1	-1E+10	1	-1E+10	1	-1E+10	1	-1E+10	1	-1E+10	1
4901784	11	C	10/23/2015	10:47	-129.822	46.352	0	120.30	0	8.4380	0	33.0200	0	25.656	0	119.274	0	196.8	4	68.3	4	-1E+10	1	-1E+10	1	-1E+10	1	-1E+10	1	-1E+10	1	-1E+10	1
4901784	11	C	10/23/2015	10:47	-129.822	46.352	0	122.80	0	8.3140	0	33.0450	0	25.694	0	121.752	0	194.5	4	67.3	4	-1E+10	1	-1E+10	1	-1E+10	1	-1E+10	1	-1E+10	1	-1E+10	1
4901784	11	C	10/23/2015	10:47	-129.822	46.352	0	125.20	0	8.2290	0	33.0720	0	25.728	0	124.131	0	192.4	4	66.5	4	-1E+10	1	-1E+10	1	-1E+10	1	-1E+10	1	-1E+10	1	-1E+10	1
4901784	11	C	10/23/2015	10:47	-129.822	46.352	0	127.60	0	8.1120	0	33.1550	0	25.811	0	126.509	0	190.4	4	65.6	4	-1E+10	1	-1E+10	1	-1E+10	1	-1E+10	1	-1E+10	1	-1E+10	1
4901784	11	C	10/23/2015	10:47	-129.822	46.352	0	130.60	0	8.0090	0	33.2160	0	25.874	0	129.483	0	187.0	4	64.4	4	-1E+10	1	-1E+10	1	-1E+10	1	-1E+10	1	-1E+10	1	-1E+10	1
4901784	11	C	10/23/2015	10:47	-129.822	46.352	0	133.00	0	7.9760	0	33.2350	0	25.894	0	131.861	0	184.7	4	63.5	4	-1E+10	1	-1E+10	1	-1E+10	1	-1E+10	1	-1E+10	1	-1E+10	1
4901784	11	C	10/23/2015	10:47	-129.822	46.352	0	135.20	0	7.9390	0	33.2650	0	25.922	0	134.042	0	181.8	4	62.5	4	-1E+10	1	-1E+10	1	-1E+10	1	-1E+10	1	-1E+10	1	-1E+10	1
4901784	11	C	10/23/2015	10:47	-129.822	46.352	0	137.40	0	7.8880	0	33.2990	0	25.957	0	136.222	0	179.0	4	61.5	4	-1E+10	1	-1E+10	1	-1E+10	1	-1E+10	1	-1E+10	1	-1E+10	1
4901784	11	C	10/23/2015	10:47	-129.822	46.352	0	140.30	0	7.8580	0	33.3210	0	25.978	0	139.096	0	178.8	4	61.4	4	-1E+10	1	-1E+10	1	-1E+10	1	-1E+10	1	-1E+10	1	-1E+10	1
4901784	11	C	10/23/2015	10:47	-129.822	46.352	0	142.70	0	7.8460	0	33.3720	0	26.020	0	141.475	0	179.5	4	61.6	4	-1E+10	1	-1E+10	1	-1E+10	1	-1E+10	1	-1E+10	1	-1E+10	1
4901784	11	C	10/23/2015	10:47	-129.822	46.352	0	145.00	0	7.8420	0	33.4100	0	26.051	0	143.755	0	179.6	4	61.6	4	-1E+10	1	-1E+10	1	-1E+10	1	-1E+10	1	-1E+10	1	-1E+10	1
4901784	11	C	10/23/2015	10:47	-129.822	46.352	0	147.50	0	7.8590	0	33.4370	0	26.069	0	146.232	0	178.3	4	61.3	4	-1E+10	1	-1E+10	1	-1E+10	1	-1E+10	1	-1E+10	1	-1E+10	1
4901784	11	C	10/23/2015	10:47	-129.822	46.352	0	149.90	0	7.8450	0	33.4520	0	26.083	0	148.611	0	174.4	4	59.9	4	-1E+10	1	-1E+10	1	-1E+10	1	-1E+10	1	-1E+10	1	-1E+10	1
4901784	11	C	10/23/2015	10:47	-129.822	46.352	0	152.50	0	7.8110	0	33.4680	0	26.101	0	151.187	0	169.4	4	58.1	4	-1E+10	1	-1E+10	1	-1E+10	1	-1E+10	1	-1E+10	1	-1E+10	1
4901784	11	C	10/23/2015	10:47	-129.822	46.352	0	154.90	0	7.7900	0	33.4990	0	26.128	0	153.566	0	164.9	4	56.6	4	-1E+10	1	-1E+10	1	-1E+10	1	-1E+10	1	-1E+10	1	-1E+10	1
4901784	11	C	10/23/2015	10:47	-129.822	46.352	0	157.40	0	7.7600	0	33.5230	0	26.151	0	156.043	0	160.9	4	55.2	4	-1E+10	1	-1E+10	1	-1E+10	1	-1E+10	1	-1E+10	1	-1E+10	1
4901784	11	C	10/23/2015	10:47	-129.822	46.352	0	159.90	0	7.7240	0	33.5530	0	26.180	0	158.521	0	158.4	4	54.3	4	-1E+10	1	-1E+10	1	-1E+10	1	-1E+10	1	-1E+10	1	-1E+10	1
4901784	11	C	10/23/2015	10:47	-129.822	46.352	0	162.40	0	7.7170	0	33.5680	0	26.193	0	160.998	0	158.3	4	54.2	4	-1E+10	1	-1E+10	1	-1E+10	1	-1E+10	1	-1E+10	1	-1E+10	1
4901784	11	C	10/23/2015	10:47	-129.822	46.352	0	164.90	0	7.7090	0	33.5790	0	26.203	0	163.476	0	158.2	4	54.2	4	-1E+10	1	-1E+10	1	-1E+10	1	-1E+10	1	-1E+10	1	-1E+10	1
4901784	11	C	10/23/2015	10:47	-129.822	46.352	0	167.50	0	7.7040	0	33.6070	0	26.226	0	166.052	0	158.7	4	54.4	4	-1E+10	1	-1E+10	1	-1E+10	1	-1E+10	1	-1E+10	1	-1E+10	1
4901784	11	C	10/23/2015	10:47	-129.822	46.352	0	170.10	0	7.6900	0	33.6300	0	26.246	0	168.629	0	158.7	4	54.4	4	-1E+10	1	-1E+10	1	-1E+10	1	-1E+10	1	-1E+10	1	-1E+10	1
4901784	11	C	10/23/2015	10:47	-129.822	46.352	0	172.70	0	7.7090	0	33.6540	0	26.262	0	171.205	0	158.0	4	54.2	4	-1E+10	1	-1E+10	1	-1E+10	1	-1E+10	1	-1E+10	1	-1E+10	1
4901784	11	C	10/23/2015	10:47	-129.822	46.352	0	175.30	0	7.6640	0	33.6810	0	26.290	0	173.782	0	155.0	4	53.1	4	-1E+10	1	-1E+10	1	-1E+10	1	-1E+10	1	-1E+10	1	-1E+10	1
4901784	11	C	10/23/2015	10:47	-129.822	46.352	0	177.90	0	7.6540	0	33.6890	0	26.297	0	176.358	0	152.8	4	52.4	4	-1E+10	1	-1E+10	1	-1E+10	1	-1E+10	1	-1E+10	1	-1E+10	1
4901784	11	C	10/23/2015	10:47	-129.822	46.352	0	180.20	0	7.6190	0	33.7160	0	26.324	0	178.637	0	150.4	4	51.5	4	-1E+10	1	-1E+10	1	-1E+10	1	-1E+10	1	-1E+10	1	-1E+10	1
4901784	11	C	10/23/2015	10:47	-129.822	46.352	0	182.90	0	7.6050	0	33.7340	0	26.340	0	181.312	0	148.0	4	50.6	4	-1E+10	1	-1E+10	1	-1E+10	1	-1E+10	1	-1E+10	1	-1E+10	1
4901784	11	C	10/23/2015	10:47	-129.822	46.352	0	185.20	0	7.5740	0	33.7510	0	26.358	0	183.591	0	145.7	4	49.9	4	-1E+10	1	-1E+10	1	-1E+10	1	-1E+10	1	-1E+10	1	-1E+10	1
4901784	11	C	10/23/2015	10:47	-129.822	46.352	0	187.60	0	7.5230	0	33.7740	0	26.383	0	185.969	0	144.3	4	49.3	4	-1E+10	1	-1E+10	1	-1E+10	1	-1E+10	1	-1E+10	1	-1E+10	1
4901784	11	C	10/23/2015	10:47	-129.822	46.352	0	189.80	0	7.5080	0	33.7820	0	26.391	0	188.149	0	143.3	4	49.0	4	-1E+10	1	-1E+10	1	-1E+10	1	-1E+10	1	-1E+10	1	-1E+10	1
4901784	11	C	10/23/2015	10:47	-129.822	46.352	0	192.20	0	7.4850	0	33.7890	0	26.400	0	190.527	0	142.5	4	48.7	4	-1E+10	1	-1E+10	1	-1E+10	1	-1E+10	1	-1E+10	1	-1E+10	1
4901784	11	C	10/23/2015	10:47	-129.822	46.352	0	195.40	0	7.4440	0	33.7980	0	26.413	0	193.698	0	142.0	4	48.4	4	-1E+10	1	-1E+10	1	-1E+10	1	-1E+10	1	-1E+10	1	-1E+10	1
4901784	11	C	10/23/2015	10:47	-129.822	46.352	0	197.80	0	7.4110	0	33.8030	0	26.422	0	196.076	0	141.8	4	48.3	4	-1E+10	1	-1E+10	1	-1E+10	1	-1E+10	1	-1E+10	1	-1E+10	1
4901784	11	C	10/23/2015	10:47	-129.822	46.352	0	200.10	0	7.3900	0	33.8120	0	26.432	0	198.355	0	141.3	4	48.1	4	-1E+10	1	-1E+10	1	-1E+10	1	-1E+10	1	-1E+10	1	-1E+10	1
4901784	11	C	10/23/2015	10:47	-129.822	46.352	0	202.50	0	7.3750	0	33.8210	0	26.441	0	200.733	0	140.7	4	47.9	4	-1E+10	1	-1E+10	1	-1E+10	1	-1E+10	1	-1E+10	1	-1E+10	1
4901784	11	C	10/23/2015	10:47	-129.822	46.352	0	205.00	0	7.3610	0	33.8290	0	26.449	0	203.210	0	140.2	4	47.7	4	-1E+10	1	-1E+10	1	-1E+10	1	-1E+10	1	-1E+10	1	-1E+10	1
4901784	11	C	10/23/2015	10:47	-129.822	46.352	0	207.40	0	7.3500	0	33.8300	0	26.452	0	205.588	0	139.5	4	47.5	4	-1E+10	1	-1E+10	1	-1E+10	1	-1E+10	1	-1E+10	1	-1E+10	1
4901784	11	C	10/23/2015	10:47	-129.822	46.352	0	210.00	0	7.3180	0	33.8380	0	26.462	0	208.163	0	138.5	4	47.1	4	-1E+10	1	-1E+10	1	-1E+10	1	-1E+10	1	-1E+10	1	-1E+10	1
4901784	11	C	10/23/2015	10:47	-129.822	46.352	0	212.50	0	7.2980	0	33.8420	0	26.468	0	210.640	0	138.0	4	47.0	4	-1E+10	1	-1E+10	1	-1E+10	1	-1E+10	1	-1E+10	1	-1E+10	1
4901784	11	C	10/23/2015	10:47	-129.822	46.352	0	215.10	0	7.2530	0	33.8480	0	26.479	0	213.216	0	136.3	4	46.3	4	-1E+10	1	-1E+10	1	-1E+10	1	-1E+10	1	-1E+10	1	-1E+10	1
4901784	11	C	10/23/2015	10:47	-129.822	46.352	0	217.60	0	7.1760	0	33.8560	0	26.496	0	215.693	0	134.9	4	45.8	4	-1E+10	1	-1E+10	1	-1E+10	1	-1E+10	1	-1E+10	1	-1E+10	1
4901784	11	C	10/23/2015	10:47	-129.822	46.352	0	220.20	0	7.1600	0	33.8570	0	26.499	0	218.269	0	135.7	4	46.0	4	-1E+10	1	-1E+10	1	-1E+10	1	-1E+10	1	-1E+10	1	-1E+10	1
4901784	11	C	10/23/2015	10:47	-129.822	46.352	0	222.70	0	7.1230	0	33.8650	0	26.511	0	220.746	0	136.9	4	46.4	4	-1E+10	1	-1E+10	1	-1E+10	1	-1E+10	1	-1E+10	1	-1E+10	1
4901784	11	C	10/23/2015	10:47	-129.822	46.352	0	225.30	0	7.0990	0	33.8670	0	26.516	0	223.321	0	135.5	4	45.9	4	-1E+10	1	-1E+10	1	-1E+10	1	-1E+10	1	-1E+10	1	-1E+10	1
4901784	11	C	10/23/2015	10:47	-129.822	46.352	0	228.00	0	7.0520	0	33.8720	0	26.526	0	225.996	0	133.1	4	45.0	4	-1E+10	1	-1E+10	1	-1E+10	1	-1E+10	1	-1E+10	1	-1E+10	1
4901784	11	C	10/23/2015	10:47	-129.822	46.352	0	229.70	0	7.0300	0	33.8720	0	26.529	0	227.680	0	131.6	4	44.5	4	-1E+10	1	-1E+10	1	-1E+10	1	-1E+10	1	-1E+10	1	-1E+10	1
4901784	11	C	10/23/2015	10:47	-129.822	46.352	0	232.30	0	7.0070	0	33.8740	0	26.534	0	230.256	0	129.6	4	43.8	4	-1E+10	1	-1E+10	1	-1E+10	1	-1E+10	1	-1E+10	1	-1E+10	1
4901784	11	C	10/23/2015	10:47	-129.822	46.352	0	234.90	0	6.9710	0	33.8770	0	26.541	0	232.832	0	128.0	4	43.2	4	-1E+10	1	-1E+10	1	-1E+10	1	-1E+10	1	-1E+10	1	-1E+10	1
4901784	11	C	10/23/2015	10:47	-129.822	46.352	0	237.60	0	6.9350	0	33.8800	0	26.549	0	235.506	0	128.0	4	43.2	4	-1E+10	1	-1E+10	1	-1E+10	1	-1E+10	1	-1E+10	1	-1E+10	1
4901784	11	C	10/23/2015	10:47	-129.822	46.352	0	240.30	0	6.9020	0	33.8810	0	26.554	0	238.181	0	128.6	4	43.4	4	-1E+10	1	-1E+10	1	-1E+10	1	-1E+10	1	-1E+10	1	-1E+10	1
4901784	11	C	10/23/2015	10:47	-129.822	46.352	0	242.10	0	6.8830	0	33.8790	0	26.555	0	239.964	0	128.9	4	43.5	4	-1E+10	1	-1E+10	1	-1E+10	1	-1E+10	1	-1E+10	1	-1E+10	1
4901784	11	C	10/23/2015	10:47	-129.822	46.352	0	244.90	0	6.7970	0	33.8830	0	26.570	0	242.738	0	126.7	4	42.6	4	-1E+10	1	-1E+10	1	-1E+10	1	-1E+10	1	-1E+10	1	-1E+10	1
4901784	11	C	10/23/2015	10:47	-129.822	46.352	0	247.60	0	6.7560	0	33.8860	0	26.577	0	245.412	0	125.3	4	42.1	4	-1E+10	1	-1E+10	1	-1E+10	1	-1E+10	1	-1E+10	1	-1E+10	1
4901784	11	C	10/23/2015	10:47	-129.822	46.352	0	250.30	0	6.7270	0	33.8870	0	26.582	0	248.087	0	124.1	4	41.7	4	-1E+10	1	-1E+10	1	-1E+10	1	-1E+10	1	-1E+10	1	-1E+10	1
4901784	11	C	10/23/2015	10:47	-129.822	46.352	0	253.00	0	6.7040	0	33.8890	0	26.587	0	250.761	0	122.3	4	41.1	4	-1E+10	1	-1E+10	1	-1E+10	1	-1E+10	1	-1E+10	1	-1E+10	1
4901784	11	C	10/23/2015	10:47	-129.822	46.352	0	254.80	0	6.6770	0	33.8900	0	26.591	0	252.544	0	120.6	4	40.5	4	-1E+10	1	-1E+10	1	-1E+10	1	-1E+10	1	-1E+10	1	-1E+10	1
4901784	11	C	10/23/2015	10:47	-129.822	46.352	0	257.50	0	6.6640	0	33.8930	0	26.595	0	255.219	0	117.9	4	39.6	4	-1E+10	1	-1E+10	1	-1E+10	1	-1E+10	1	-1E+10	1	-1E+10	1
4901784	11	C	10/23/2015	10:47	-129.822	46.352	0	260.20	0	6.6560	0	33.8930	0	26.596	0	257.893	0	114.9	4	38.5	4	-1E+10	1	-1E+10	1	-1E+10	1	-1E+10	1	-1E+10	1	-1E+10	1
4901784	11	C	10/23/2015	10:47	-129.822	46.352	0	262.00	0	6.6480	0	33.8950	0	26.599	0	259.676	0	112.4	4	37.7	4	-1E+10	1	-1E+10	1	-1E+10	1	-1E+10	1	-1E+10	1	-1E+10	1
4901784	11	C	10/23/2015	10:47	-129.822	46.352	0	264.70	0	6.6100	0	33.8990	0	26.607	0	262.350	0	110.4	4	37.0	4	-1E+10	1	-1E+10	1	-1E+10	1	-1E+10	1	-1E+10	1	-1E+10	1
4901784	11	C	10/23/2015	10:47	-129.822	46.352	0	267.40	0	6.5940	0	33.9030	0	26.613	0	265.025	0	108.3	4	36.3	4	-1E+10	1	-1E+10	1	-1E+10	1	-1E+10	1	-1E+10	1	-1E+10	1
4901784	11	C	10/23/2015	10:47	-129.822	46.352	0	270.00	0	6.5860	0	33.9070	0	26.617	0	267.600	0	106.5	4	35.7	4	-1E+10	1	-1E+10	1	-1E+10	1	-1E+10	1	-1E+10	1	-1E+10	1
4901784	11	C	10/23/2015	10:47	-129.822	46.352	0	272.70	0	6.5400	0	33.9100	0	26.625	0	270.274	0	105.4	4	35.3	4	-1E+10	1	-1E+10	1	-1E+10	1	-1E+10	1	-1E+10	1	-1E+10	1
4901784	11	C	10/23/2015	10:47	-129.822	46.352	0	274.50	0	6.5350	0	33.9090	0	26.625	0	272.057	0	104.7	4	35.0	4	-1E+10	1	-1E+10	1	-1E+10	1	-1E+10	1	-1E+10	1	-1E+10	1
4901784	11	C	10/23/2015	10:47	-129.822	46.352	0	277.20	0	6.5110	0	33.9130	0	26.631	0	274.731	0	104.1	4	34.8	4	-1E+10	1	-1E+10	1	-1E+10	1	-1E+10	1	-1E+10	1	-1E+10	1
4901784	11	C	10/23/2015	10:47	-129.822	46.352	0	279.80	0	6.4570	0	33.9120	0	26.638	0	277.306	0	103.6	4	34.6	4	-1E+10	1	-1E+10	1	-1E+10	1	-1E+10	1	-1E+10	1	-1E+10	1
4901784	11	C	10/23/2015	10:47	-129.822	46.352	0	282.50	0	6.4350	0	33.9130	0	26.641	0	279.980	0	102.2	4	34.1	4	-1E+10	1	-1E+10	1	-1E+10	1	-1E+10	1	-1E+10	1	-1E+10	1
4901784	11	C	10/23/2015	10:47	-129.822	46.352	0	285.10	0	6.4290	0	33.9130	0	26.642	0	282.555	0	100.7	4	33.6	4	-1E+10	1	-1E+10	1	-1E+10	1	-1E+10	1	-1E+10	1	-1E+10	1
4901784	11	C	10/23/2015	10:47	-129.822	46.352	0	287.70	0	6.3870	0	33.9200	0	26.653	0	285.130	0	100.0	4	33.3	4	-1E+10	1	-1E+10	1	-1E+10	1	-1E+10	1	-1E+10	1	-1E+10	1
4901784	11	C	10/23/2015	10:47	-129.822	46.352	0	290.40	0	6.3780	0	33.9190	0	26.654	0	287.804	0	100.2	4	33.4	4	-1E+10	1	-1E+10	1	-1E+10	1	-1E+10	1	-1E+10	1	-1E+10	1
4901784	11	C	10/23/2015	10:47	-129.822	46.352	0	292.20	0	6.3650	0	33.9190	0	26.655	0	289.587	0	100.4	4	33.5	4	-1E+10	1	-1E+10	1	-1E+10	1	-1E+10	1	-1E+10	1	-1E+10	1
4901784	11	C	10/23/2015	10:47	-129.822	46.352	0	294.90	0	6.3080	0	33.9170	0	26.661	0	292.261	0	101.4	4	33.7	4	-1E+10	1	-1E+10	1	-1E+10	1	-1E+10	1	-1E+10	1	-1E+10	1
4901784	11	C	10/23/2015	10:47	-129.822	46.352	0	297.70	0	6.2490	0	33.9110	0	26.664	0	295.034	0	101.9	4	33.9	4	-1E+10	1	-1E+10	1	-1E+10	1	-1E+10	1	-1E+10	1	-1E+10	1
4901784	11	C	10/23/2015	10:47	-129.822	46.352	0	299.50	0	6.1980	0	33.9120	0	26.671	0	296.817	0	101.3	4	33.6	4	-1E+10	1	-1E+10	1	-1E+10	1	-1E+10	1	-1E+10	1	-1E+10	1
4901784	11	C	10/23/2015	10:47	-129.822	46.352	0	302.10	0	6.1820	0	33.9140	0	26.675	0	299.391	0	100.3	4	33.3	4	-1E+10	1	-1E+10	1	-1E+10	1	-1E+10	1	-1E+10	1	-1E+10	1
4901784	11	C	10/23/2015	10:47	-129.822	46.352	0	304.90	0	6.1710	0	33.9140	0	26.676	0	302.164	0	99.4	4	33.0	4	-1E+10	1	-1E+10	1	-1E+10	1	-1E+10	1	-1E+10	1	-1E+10	1
4901784	11	C	10/23/2015	10:47	-129.822	46.352	0	307.60	0	6.1430	0	33.9160	0	26.682	0	304.838	0	98.4	4	32.6	4	-1E+10	1	-1E+10	1	-1E+10	1	-1E+10	1	-1E+10	1	-1E+10	1
4901784	11	C	10/23/2015	10:47	-129.822	46.352	0	310.30	0	6.1130	0	33.9170	0	26.686	0	307.512	0	97.1	4	32.2	4	-1E+10	1	-1E+10	1	-1E+10	1	-1E+10	1	-1E+10	1	-1E+10	1
4901784	11	C	10/23/2015	10:47	-129.822	46.352	0	312.10	0	6.1120	0	33.9190	0	26.688	0	309.294	0	96.4	4	31.9	4	-1E+10	1	-1E+10	1	-1E+10	1	-1E+10	1	-1E+10	1	-1E+10	1
4901784	11	C	10/23/2015	10:47	-129.822	46.352	0	314.90	0	6.0980	0	33.9180	0	26.689	0	312.067	0	95.6	4	31.7	4	-1E+10	1	-1E+10	1	-1E+10	1	-1E+10	1	-1E+10	1	-1E+10	1
4901784	11	C	10/23/2015	10:47	-129.822	46.352	0	317.60	0	6.0720	0	33.9190	0	26.693	0	314.741	0	94.5	4	31.3	4	-1E+10	1	-1E+10	1	-1E+10	1	-1E+10	1	-1E+10	1	-1E+10	1
4901784	11	C	10/23/2015	10:47	-129.822	46.352	0	320.20	0	6.0740	0	33.9220	0	26.695	0	317.315	0	93.4	4	30.9	4	-1E+10	1	-1E+10	1	-1E+10	1	-1E+10	1	-1E+10	1	-1E+10	1
4901784	11	C	10/23/2015	10:47	-129.822	46.352	0	322.90	0	6.0480	0	33.9220	0	26.698	0	319.989	0	92.6	4	30.6	4	-1E+10	1	-1E+10	1	-1E+10	1	-1E+10	1	-1E+10	1	-1E+10	1
4901784	11	C	10/23/2015	10:47	-129.822	46.352	0	324.70	0	6.0330	0	33.9230	0	26.701	0	321.771	0	91.9	4	30.4	4	-1E+10	1	-1E+10	1	-1E+10	1	-1E+10	1	-1E+10	1	-1E+10	1
4901784	11	C	10/23/2015	10:47	-129.822	46.352	0	327.40	0	6.0170	0	33.9230	0	26.703	0	324.445	0	91.5	4	30.2	4	-1E+10	1	-1E+10	1	-1E+10	1	-1E+10	1	-1E+10	1	-1E+10	1
4901784	11	C	10/23/2015	10:47	-129.822	46.352	0	330.10	0	5.9740	0	33.9210	0	26.707	0	327.118	0	90.6	4	29.9	4	-1E+10	1	-1E+10	1	-1E+10	1	-1E+10	1	-1E+10	1	-1E+10	1
4901784	11	C	10/23/2015	10:47	-129.822	46.352	0	332.00	0	5.9630	0	33.9230	0	26.710	0	329.000	0	89.7	4	29.6	4	-1E+10	1	-1E+10	1	-1E+10	1	-1E+10	1	-1E+10	1	-1E+10	1
4901784	11	C	10/23/2015	10:47	-129.822	46.352	0	334.70	0	5.9360	0	33.9240	0	26.714	0	331.673	0	87.5	4	28.9	4	-1E+10	1	-1E+10	1	-1E+10	1	-1E+10	1	-1E+10	1	-1E+10	1
4901784	11	C	10/23/2015	10:47	-129.822	46.352	0	337.90	0	5.8970	0	33.9280	0	26.722	0	334.842	0	85.3	4	28.1	4	-1E+10	1	-1E+10	1	-1E+10	1	-1E+10	1	-1E+10	1	-1E+10	1
4901784	11	C	10/23/2015	10:47	-129.822	46.352	0	339.70	0	5.8450	0	33.9250	0	26.726	0	336.624	0	83.5	4	27.5	4	-1E+10	1	-1E+10	1	-1E+10	1	-1E+10	1	-1E+10	1	-1E+10	1
4901784	11	C	10/23/2015	10:47	-129.822	46.352	0	342.10	0	5.8630	0	33.9370	0	26.734	0	339.000	0	80.8	4	26.6	4	-1E+10	1	-1E+10	1	-1E+10	1	-1E+10	1	-1E+10	1	-1E+10	1
4901784	11	C	10/23/2015	10:47	-129.822	46.352	0	345.30	0	5.8610	0	33.9410	0	26.737	0	342.168	0	79.3	4	26.1	4	-1E+10	1	-1E+10	1	-1E+10	1	-1E+10	1	-1E+10	1	-1E+10	1
4901784	11	C	10/23/2015	10:47	-129.822	46.352	0	347.70	0	5.8130	0	33.9410	0	26.743	0	344.545	0	78.8	4	25.9	4	-1E+10	1	-1E+10	1	-1E+10	1	-1E+10	1	-1E+10	1	-1E+10	1
4901784	11	C	10/23/2015	10:47	-129.822	46.352	0	350.10	0	5.8260	0	33.9430	0	26.743	0	346.921	0	78.2	4	25.7	4	-1E+10	1	-1E+10	1	-1E+10	1	-1E+10	1	-1E+10	1	-1E+10	1
4901784	11	C	10/23/2015	10:47	-129.822	46.352	0	352.50	0	5.8130	0	33.9430	0	26.745	0	349.297	0	78.0	4	25.7	4	-1E+10	1	-1E+10	1	-1E+10	1	-1E+10	1	-1E+10	1	-1E+10	1
4901784	11	C	10/23/2015	10:47	-129.822	46.352	0	354.90	0	5.7880	0	33.9420	0	26.747	0	351.673	0	77.7	4	25.5	4	-1E+10	1	-1E+10	1	-1E+10	1	-1E+10	1	-1E+10	1	-1E+10	1
4901784	11	C	10/23/2015	10:47	-129.822	46.352	0	357.40	0	5.7570	0	33.9410	0	26.750	0	354.148	0	76.8	4	25.2	4	-1E+10	1	-1E+10	1	-1E+10	1	-1E+10	1	-1E+10	1	-1E+10	1
4901784	11	C	10/23/2015	10:47	-129.822	46.352	0	359.80	0	5.7510	0	33.9430	0	26.752	0	356.524	0	75.4	4	24.8	4	-1E+10	1	-1E+10	1	-1E+10	1	-1E+10	1	-1E+10	1	-1E+10	1
4901784	11	C	10/23/2015	10:47	-129.822	46.352	0	362.30	0	5.7390	0	33.9450	0	26.755	0	359.000	0	74.0	4	24.3	4	-1E+10	1	-1E+10	1	-1E+10	1	-1E+10	1	-1E+10	1	-1E+10	1
4901784	11	C	10/23/2015	10:47	-129.822	46.352	0	364.80	0	5.7330	0	33.9470	0	26.758	0	361.475	0	72.5	4	23.8	4	-1E+10	1	-1E+10	1	-1E+10	1	-1E+10	1	-1E+10	1	-1E+10	1
4901784	11	C	10/23/2015	10:47	-129.822	46.352	0	367.20	0	5.7260	0	33.9510	0	26.762	0	363.851	0	70.6	4	23.2	4	-1E+10	1	-1E+10	1	-1E+10	1	-1E+10	1	-1E+10	1	-1E+10	1
4901784	11	C	10/23/2015	10:47	-129.822	46.352	0	369.60	0	5.7060	0	33.9530	0	26.766	0	366.227	0	68.7	4	22.5	4	-1E+10	1	-1E+10	1	-1E+10	1	-1E+10	1	-1E+10	1	-1E+10	1
4901784	11	C	10/23/2015	10:47	-129.822	46.352	0	372.90	0	5.7200	0	33.9630	0	26.772	0	369.494	0	66.7	4	21.9	4	-1E+10	1	-1E+10	1	-1E+10	1	-1E+10	1	-1E+10	1	-1E+10	1
4901784	11	C	10/23/2015	10:47	-129.822	46.352	0	375.40	0	5.7080	0	33.9620	0	26.773	0	371.968	0	66.3	4	21.8	4	-1E+10	1	-1E+10	1	-1E+10	1	-1E+10	1	-1E+10	1	-1E+10	1
4901784	11	C	10/23/2015	10:47	-129.822	46.352	0	377.90	0	5.6780	0	33.9640	0	26.778	0	374.443	0	65.9	4	21.6	4	-1E+10	1	-1E+10	1	-1E+10	1	-1E+10	1	-1E+10	1	-1E+10	1
4901784	11	C	10/23/2015	10:47	-129.822	46.352	0	380.40	0	5.6330	0	33.9630	0	26.783	0	376.918	0	65.4	4	21.4	4	-1E+10	1	-1E+10	1	-1E+10	1	-1E+10	1	-1E+10	1	-1E+10	1
4901784	11	C	10/23/2015	10:47	-129.822	46.352	0	382.10	0	5.6220	0	33.9640	0	26.785	0	378.601	0	65.3	4	21.4	4	-1E+10	1	-1E+10	1	-1E+10	1	-1E+10	1	-1E+10	1	-1E+10	1
4901784	11	C	10/23/2015	10:47	-129.822	46.352	0	384.70	0	5.5780	0	33.9640	0	26.790	0	381.175	0	65.3	4	21.4	4	-1E+10	1	-1E+10	1	-1E+10	1	-1E+10	1	-1E+10	1	-1E+10	1
4901784	11	C	10/23/2015	10:47	-129.822	46.352	0	387.20	0	5.5500	0	33.9630	0	26.793	0	383.650	0	65.1	4	21.3	4	-1E+10	1	-1E+10	1	-1E+10	1	-1E+10	1	-1E+10	1	-1E+10	1
4901784	11	C	10/23/2015	10:47	-129.822	46.352	0	389.80	0	5.4910	0	33.9610	0	26.798	0	386.223	0	64.7	4	21.1	4	-1E+10	1	-1E+10	1	-1E+10	1	-1E+10	1	-1E+10	1	-1E+10	1
4901784	11	C	10/23/2015	10:47	-129.822	46.352	0	392.30	0	5.4960	0	33.9610	0	26.797	0	388.698	0	63.9	4	20.9	4	-1E+10	1	-1E+10	1	-1E+10	1	-1E+10	1	-1E+10	1	-1E+10	1
4901784	11	C	10/23/2015	10:47	-129.822	46.352	0	394.90	0	5.4550	0	33.9640	0	26.805	0	391.272	0	63.5	4	20.7	4	-1E+10	1	-1E+10	1	-1E+10	1	-1E+10	1	-1E+10	1	-1E+10	1
4901784	11	C	10/23/2015	10:47	-129.822	46.352	0	397.50	0	5.4370	0	33.9630	0	26.806	0	393.846	0	62.9	4	20.5	4	-1E+10	1	-1E+10	1	-1E+10	1	-1E+10	1	-1E+10	1	-1E+10	1
4901784	11	C	10/23/2015	10:47	-129.822	46.352	0	400.10	0	5.4150	0	33.9670	0	26.812	0	396.419	0	62.4	4	20.3	4	-1E+10	1	-1E+10	1	-1E+10	1	-1E+10	1	-1E+10	1	-1E+10	1
4901784	11	C	10/23/2015	10:47	-129.822	46.352	0	402.60	0	5.3900	0	33.9680	0	26.816	0	398.894	0	62.4	4	20.3	4	-1E+10	1	-1E+10	1	-1E+10	1	-1E+10	1	-1E+10	1	-1E+10	1
4901784	11	C	10/23/2015	10:47	-129.822	46.352	0	405.20	0	5.3770	0	33.9660	0	26.816	0	401.467	0	62.3	4	20.3	4	-1E+10	1	-1E+10	1	-1E+10	1	-1E+10	1	-1E+10	1	-1E+10	1
4901784	11	C	10/23/2015	10:47	-129.822	46.352	0	407.80	0	5.3450	0	33.9680	0	26.821	0	404.041	0	62.1	4	20.2	4	-1E+10	1	-1E+10	1	-1E+10	1	-1E+10	1	-1E+10	1	-1E+10	1
4901784	11	C	10/23/2015	10:47	-129.822	46.352	0	410.40	0	5.3250	0	33.9670	0	26.823	0	406.614	0	61.6	4	20.1	4	-1E+10	1	-1E+10	1	-1E+10	1	-1E+10	1	-1E+10	1	-1E+10	1
4901784	11	C	10/23/2015	10:47	-129.822	46.352	0	413.00	0	5.3170	0	33.9660	0	26.823	0	409.188	0	61.2	4	19.9	4	-1E+10	1	-1E+10	1	-1E+10	1	-1E+10	1	-1E+10	1	-1E+10	1
4901784	11	C	10/23/2015	10:47	-129.822	46.352	0	414.70	0	5.3020	0	33.9670	0	26.825	0	410.870	0	60.7	4	19.7	4	-1E+10	1	-1E+10	1	-1E+10	1	-1E+10	1	-1E+10	1	-1E+10	1
4901784	11	C	10/23/2015	10:47	-129.822	46.352	0	417.40	0	5.2930	0	33.9680	0	26.827	0	413.543	0	59.7	4	19.4	4	-1E+10	1	-1E+10	1	-1E+10	1	-1E+10	1	-1E+10	1	-1E+10	1
4901784	11	C	10/23/2015	10:47	-129.822	46.352	0	420.10	0	5.2760	0	33.9730	0	26.833	0	416.215	0	58.5	4	19.0	4	-1E+10	1	-1E+10	1	-1E+10	1	-1E+10	1	-1E+10	1	-1E+10	1
4901784	11	C	10/23/2015	10:47	-129.822	46.352	0	422.80	0	5.2590	0	33.9740	0	26.836	0	418.887	0	57.8	4	18.8	4	-1E+10	1	-1E+10	1	-1E+10	1	-1E+10	1	-1E+10	1	-1E+10	1
4901784	11	C	10/23/2015	10:47	-129.822	46.352	0	425.50	0	5.2470	0	33.9750	0	26.838	0	421.560	0	56.8	4	18.4	4	-1E+10	1	-1E+10	1	-1E+10	1	-1E+10	1	-1E+10	1	-1E+10	1
4901784	11	C	10/23/2015	10:47	-129.822	46.352	0	427.30	0	5.2320	0	33.9780	0	26.842	0	423.341	0	56.2	4	18.2	4	-1E+10	1	-1E+10	1	-1E+10	1	-1E+10	1	-1E+10	1	-1E+10	1
4901784	11	C	10/23/2015	10:47	-129.822	46.352	0	430.10	0	5.2210	0	33.9810	0	26.846	0	426.112	0	55.4	4	18.0	4	-1E+10	1	-1E+10	1	-1E+10	1	-1E+10	1	-1E+10	1	-1E+10	1
4901784	11	C	10/23/2015	10:47	-129.822	46.352	0	432.80	0	5.2430	0	33.9850	0	26.847	0	428.785	0	54.6	4	17.7	4	-1E+10	1	-1E+10	1	-1E+10	1	-1E+10	1	-1E+10	1	-1E+10	1
4901784	11	C	10/23/2015	10:47	-129.822	46.352	0	434.60	0	5.1870	0	33.9850	0	26.853	0	430.566	0	54.6	4	17.7	4	-1E+10	1	-1E+10	1	-1E+10	1	-1E+10	1	-1E+10	1	-1E+10	1
4901784	11	C	10/23/2015	10:47	-129.822	46.352	0	437.30	0	5.1660	0	33.9860	0	26.856	0	433.238	0	54.2	4	17.6	4	-1E+10	1	-1E+10	1	-1E+10	1	-1E+10	1	-1E+10	1	-1E+10	1
4901784	11	C	10/23/2015	10:47	-129.822	46.352	0	440.60	0	5.1760	0	33.9900	0	26.858	0	436.504	0	54.4	4	17.6	4	-1E+10	1	-1E+10	1	-1E+10	1	-1E+10	1	-1E+10	1	-1E+10	1
4901784	11	C	10/23/2015	10:47	-129.822	46.352	0	442.60	0	5.1390	0	33.9860	0	26.860	0	438.483	0	55.3	4	17.9	4	-1E+10	1	-1E+10	1	-1E+10	1	-1E+10	1	-1E+10	1	-1E+10	1
4901784	11	C	10/23/2015	10:47	-129.822	46.352	0	444.90	0	5.0450	0	33.9790	0	26.865	0	440.759	0	56.7	4	18.3	4	-1E+10	1	-1E+10	1	-1E+10	1	-1E+10	1	-1E+10	1	-1E+10	1
4901784	11	C	10/23/2015	10:47	-129.822	46.352	0	447.30	0	4.9930	0	33.9740	0	26.867	0	443.135	0	57.3	4	18.5	4	-1E+10	1	-1E+10	1	-1E+10	1	-1E+10	1	-1E+10	1	-1E+10	1
4901784	11	C	10/23/2015	10:47	-129.822	46.352	0	449.70	0	4.9300	0	33.9690	0	26.870	0	445.510	0	57.0	4	18.4	4	-1E+10	1	-1E+10	1	-1E+10	1	-1E+10	1	-1E+10	1	-1E+10	1
4901784	11	C	10/23/2015	10:47	-129.822	46.352	0	452.20	0	4.9130	0	33.9710	0	26.873	0	447.984	0	55.7	4	17.9	4	-1E+10	1	-1E+10	1	-1E+10	1	-1E+10	1	-1E+10	1	-1E+10	1
4901784	11	C	10/23/2015	10:47	-129.822	46.352	0	454.60	0	4.9010	0	33.9750	0	26.878	0	450.359	0	53.9	4	17.4	4	-1E+10	1	-1E+10	1	-1E+10	1	-1E+10	1	-1E+10	1	-1E+10	1
4901784	11	C	10/23/2015	10:47	-129.822	46.352	0	457.80	0	4.9420	0	33.9880	0	26.884	0	453.525	0	51.1	4	16.5	4	-1E+10	1	-1E+10	1	-1E+10	1	-1E+10	1	-1E+10	1	-1E+10	1
4901784	11	C	10/23/2015	10:47	-129.822	46.352	0	460.20	0	4.9490	0	33.9920	0	26.886	0	455.900	0	49.6	4	16.0	4	-1E+10	1	-1E+10	1	-1E+10	1	-1E+10	1	-1E+10	1	-1E+10	1
4901784	11	C	10/23/2015	10:47	-129.822	46.352	0	462.70	0	4.9950	0	34.0050	0	26.891	0	458.374	0	47.4	4	15.3	4	-1E+10	1	-1E+10	1	-1E+10	1	-1E+10	1	-1E+10	1	-1E+10	1
4901784	11	C	10/23/2015	10:47	-129.822	46.352	0	465.10	0	5.0530	0	34.0120	0	26.890	0	460.749	0	47.0	4	15.2	4	-1E+10	1	-1E+10	1	-1E+10	1	-1E+10	1	-1E+10	1	-1E+10	1
4901784	11	C	10/23/2015	10:47	-129.822	46.352	0	467.60	0	4.9990	0	34.0070	0	26.892	0	463.223	0	47.3	4	15.3	4	-1E+10	1	-1E+10	1	-1E+10	1	-1E+10	1	-1E+10	1	-1E+10	1
4901784	11	C	10/23/2015	10:47	-129.822	46.352	0	470.00	0	5.0450	0	34.0060	0	26.886	0	465.598	0	46.7	4	15.1	4	-1E+10	1	-1E+10	1	-1E+10	1	-1E+10	1	-1E+10	1	-1E+10	1
4901784	11	C	10/23/2015	10:47	-129.822	46.352	0	472.50	0	4.9670	0	34.0080	0	26.897	0	468.071	0	47.2	4	15.2	4	-1E+10	1	-1E+10	1	-1E+10	1	-1E+10	1	-1E+10	1	-1E+10	1
4901784	11	C	10/23/2015	10:47	-129.822	46.352	0	474.80	0	4.9750	0	34.0130	0	26.900	0	470.347	0	46.9	4	15.2	4	-1E+10	1	-1E+10	1	-1E+10	1	-1E+10	1	-1E+10	1	-1E+10	1
4901784	11	C	10/23/2015	10:47	-129.822	46.352	0	477.30	0	4.9090	0	34.0080	0	26.903	0	472.821	0	47.2	4	15.2	4	-1E+10	1	-1E+10	1	-1E+10	1	-1E+10	1	-1E+10	1	-1E+10	1
4901784	11	C	10/23/2015	10:47	-129.822	46.352	0	479.90	0	4.8630	0	34.0050	0	26.906	0	475.394	0	47.3	4	15.2	4	-1E+10	1	-1E+10	1	-1E+10	1	-1E+10	1	-1E+10	1	-1E+10	1
4901784	11	C	10/23/2015	10:47	-129.822	46.352	0	482.40	0	4.8170	0	34.0050	0	26.911	0	477.867	0	47.0	4	15.1	4	-1E+10	1	-1E+10	1	-1E+10	1	-1E+10	1	-1E+10	1	-1E+10	1
4901784	11	C	10/23/2015	10:47	-129.822	46.352	0	484.90	0	4.7970	0	34.0070	0	26.915	0	480.341	0	46.4	4	14.9	4	-1E+10	1	-1E+10	1	-1E+10	1	-1E+10	1	-1E+10	1	-1E+10	1
4901784	11	C	10/23/2015	10:47	-129.822	46.352	0	487.50	0	4.7820	0	34.0090	0	26.918	0	482.913	0	45.8	4	14.7	4	-1E+10	1	-1E+10	1	-1E+10	1	-1E+10	1	-1E+10	1	-1E+10	1
4901784	11	C	10/23/2015	10:47	-129.822	46.352	0	490.00	0	4.7670	0	34.0140	0	26.924	0	485.387	0	45.1	4	14.5	4	-1E+10	1	-1E+10	1	-1E+10	1	-1E+10	1	-1E+10	1	-1E+10	1
4901784	11	C	10/23/2015	10:47	-129.822	46.352	0	492.60	0	4.7680	0	34.0150	0	26.925	0	487.959	0	44.7	4	14.4	4	-1E+10	1	-1E+10	1	-1E+10	1	-1E+10	1	-1E+10	1	-1E+10	1
4901784	11	C	10/23/2015	10:47	-129.822	46.352	0	495.10	0	4.7610	0	34.0150	0	26.926	0	490.433	0	44.5	4	14.3	4	-1E+10	1	-1E+10	1	-1E+10	1	-1E+10	1	-1E+10	1	-1E+10	1
4901784	11	C	10/23/2015	10:47	-129.822	46.352	0	497.70	0	4.7520	0	34.0170	0	26.928	0	493.005	0	44.2	4	14.2	4	-1E+10	1	-1E+10	1	-1E+10	1	-1E+10	1	-1E+10	1	-1E+10	1
4901784	11	C	10/23/2015	10:47	-129.822	46.352	0	500.20	0	4.7470	0	34.0180	0	26.930	0	495.479	0	43.9	4	14.1	4	-1E+10	1	-1E+10	1	-1E+10	1	-1E+10	1	-1E+10	1	-1E+10	1
4901784	11	C	10/23/2015	10:47	-129.822	46.352	0	505.30	0	4.7420	0	34.0200	0	26.932	0	500.525	0	42.7	4	13.7	4	-1E+10	1	-1E+10	1	-1E+10	1	-1E+10	1	-1E+10	1	-1E+10	1
4901784	11	C	10/23/2015	10:47	-129.822	46.352	0	510.30	0	4.7360	0	34.0260	0	26.937	0	505.471	0	41.0	4	13.1	4	-1E+10	1	-1E+10	1	-1E+10	1	-1E+10	1	-1E+10	1	-1E+10	1
4901784	11	C	10/23/2015	10:47	-129.822	46.352	0	515.50	0	4.7130	0	34.0320	0	26.945	0	510.616	0	39.6	4	12.7	4	-1E+10	1	-1E+10	1	-1E+10	1	-1E+10	1	-1E+10	1	-1E+10	1
4901784	11	C	10/23/2015	10:47	-129.822	46.352	0	520.70	0	4.7140	0	34.0370	0	26.949	0	515.760	0	37.9	4	12.2	4	-1E+10	1	-1E+10	1	-1E+10	1	-1E+10	1	-1E+10	1	-1E+10	1
4901784	11	C	10/23/2015	10:47	-129.822	46.352	0	524.90	0	4.6840	0	34.0450	0	26.958	0	519.915	0	36.9	4	11.8	4	-1E+10	1	-1E+10	1	-1E+10	1	-1E+10	1	-1E+10	1	-1E+10	1
4901784	11	C	10/23/2015	10:47	-129.822	46.352	0	529.30	0	4.6600	0	34.0470	0	26.962	0	524.267	0	36.3	4	11.6	4	-1E+10	1	-1E+10	1	-1E+10	1	-1E+10	1	-1E+10	1	-1E+10	1
4901784	11	C	10/23/2015	10:47	-129.822	46.352	0	534.50	0	4.6490	0	34.0490	0	26.965	0	529.411	0	35.4	4	11.3	4	-1E+10	1	-1E+10	1	-1E+10	1	-1E+10	1	-1E+10	1	-1E+10	1
4901784	11	C	10/23/2015	10:47	-129.822	46.352	0	539.80	0	4.6430	0	34.0550	0	26.971	0	534.654	0	34.3	4	11.0	4	-1E+10	1	-1E+10	1	-1E+10	1	-1E+10	1	-1E+10	1	-1E+10	1
4901784	11	C	10/23/2015	10:47	-129.822	46.352	0	544.90	0	4.6270	0	34.0590	0	26.976	0	539.699	0	33.5	4	10.7	4	-1E+10	1	-1E+10	1	-1E+10	1	-1E+10	1	-1E+10	1	-1E+10	1
4901784	11	C	10/23/2015	10:47	-129.822	46.352	0	550.10	0	4.6100	0	34.0610	0	26.979	0	544.842	0	32.7	4	10.5	4	-1E+10	1	-1E+10	1	-1E+10	1	-1E+10	1	-1E+10	1	-1E+10	1
4901784	11	C	10/23/2015	10:47	-129.822	46.352	0	555.20	0	4.6120	0	34.0680	0	26.985	0	549.887	0	31.0	4	9.9	4	-1E+10	1	-1E+10	1	-1E+10	1	-1E+10	1	-1E+10	1	-1E+10	1
4901784	11	C	10/23/2015	10:47	-129.822	46.352	0	560.30	0	4.6230	0	34.0770	0	26.991	0	554.931	0	29.8	4	9.5	4	-1E+10	1	-1E+10	1	-1E+10	1	-1E+10	1	-1E+10	1	-1E+10	1
4901784	11	C	10/23/2015	10:47	-129.822	46.352	0	565.40	0	4.6160	0	34.0820	0	26.995	0	559.976	0	28.9	4	9.3	4	-1E+10	1	-1E+10	1	-1E+10	1	-1E+10	1	-1E+10	1	-1E+10	1
4901784	11	C	10/23/2015	10:47	-129.822	46.352	0	570.50	0	4.5920	0	34.0850	0	27.000	0	565.020	0	28.5	4	9.1	4	-1E+10	1	-1E+10	1	-1E+10	1	-1E+10	1	-1E+10	1	-1E+10	1
4901784	11	C	10/23/2015	10:47	-129.822	46.352	0	575.60	0	4.5440	0	34.0830	0	27.004	0	570.064	0	28.7	4	9.2	4	-1E+10	1	-1E+10	1	-1E+10	1	-1E+10	1	-1E+10	1	-1E+10	1
4901784	11	C	10/23/2015	10:47	-129.822	46.352	0	580.60	0	4.4930	0	34.0830	0	27.010	0	575.009	0	28.0	4	8.9	4	-1E+10	1	-1E+10	1	-1E+10	1	-1E+10	1	-1E+10	1	-1E+10	1
4901784	11	C	10/23/2015	10:47	-129.822	46.352	0	585.60	0	4.4920	0	34.0900	0	27.015	0	579.954	0	26.3	4	8.4	4	-1E+10	1	-1E+10	1	-1E+10	1	-1E+10	1	-1E+10	1	-1E+10	1
4901784	11	C	10/23/2015	10:47	-129.822	46.352	0	590.50	0	4.5340	0	34.1070	0	27.024	0	584.800	0	23.0	4	7.4	4	-1E+10	1	-1E+10	1	-1E+10	1	-1E+10	1	-1E+10	1	-1E+10	1
4901784	11	C	10/23/2015	10:47	-129.822	46.352	0	595.40	0	4.6090	0	34.1290	0	27.034	0	589.645	0	21.4	4	6.9	4	-1E+10	1	-1E+10	1	-1E+10	1	-1E+10	1	-1E+10	1	-1E+10	1
4901784	11	C	10/23/2015	10:47	-129.822	46.352	0	600.60	0	4.5800	0	34.1300	0	27.038	0	594.788	0	21.3	4	6.8	4	-1E+10	1	-1E+10	1	-1E+10	1	-1E+10	1	-1E+10	1	-1E+10	1
4901784	11	C	10/23/2015	10:47	-129.822	46.352	0	605.70	0	4.5370	0	34.1310	0	27.043	0	599.831	0	21.1	4	6.7	4	-1E+10	1	-1E+10	1	-1E+10	1	-1E+10	1	-1E+10	1	-1E+10	1
4901784	11	C	10/23/2015	10:47	-129.822	46.352	0	610.80	0	4.5550	0	34.1340	0	27.044	0	604.874	0	20.2	4	6.5	4	-1E+10	1	-1E+10	1	-1E+10	1	-1E+10	1	-1E+10	1	-1E+10	1
4901784	11	C	10/23/2015	10:47	-129.822	46.352	0	615.10	0	4.5220	0	34.1410	0	27.053	0	609.126	0	19.5	4	6.2	4	-1E+10	1	-1E+10	1	-1E+10	1	-1E+10	1	-1E+10	1	-1E+10	1
4901784	11	C	10/23/2015	10:47	-129.822	46.352	0	619.40	0	4.5240	0	34.1480	0	27.058	0	613.378	0	18.8	4	6.0	4	-1E+10	1	-1E+10	1	-1E+10	1	-1E+10	1	-1E+10	1	-1E+10	1
4901784	11	C	10/23/2015	10:47	-129.822	46.352	0	624.50	0	4.5300	0	34.1540	0	27.062	0	618.421	0	18.2	4	5.8	4	-1E+10	1	-1E+10	1	-1E+10	1	-1E+10	1	-1E+10	1	-1E+10	1
4901784	11	C	10/23/2015	10:47	-129.822	46.352	0	629.60	0	4.5170	0	34.1590	0	27.068	0	623.464	0	17.6	4	5.6	4	-1E+10	1	-1E+10	1	-1E+10	1	-1E+10	1	-1E+10	1	-1E+10	1
4901784	11	C	10/23/2015	10:47	-129.822	46.352	0	634.70	0	4.5060	0	34.1650	0	27.074	0	628.506	0	16.9	4	5.4	4	-1E+10	1	-1E+10	1	-1E+10	1	-1E+10	1	-1E+10	1	-1E+10	1
4901784	11	C	10/23/2015	10:47	-129.822	46.352	0	639.80	0	4.4930	0	34.1710	0	27.080	0	633.549	0	16.5	4	5.3	4	-1E+10	1	-1E+10	1	-1E+10	1	-1E+10	1	-1E+10	1	-1E+10	1
4901784	11	C	10/23/2015	10:47	-129.822	46.352	0	645.10	0	4.4790	0	34.1740	0	27.084	0	638.789	0	16.3	4	5.2	4	-1E+10	1	-1E+10	1	-1E+10	1	-1E+10	1	-1E+10	1	-1E+10	1
4901784	11	C	10/23/2015	10:47	-129.822	46.352	0	650.30	0	4.4610	0	34.1770	0	27.088	0	643.930	0	16.1	4	5.1	4	-1E+10	1	-1E+10	1	-1E+10	1	-1E+10	1	-1E+10	1	-1E+10	1
4901784	11	C	10/23/2015	10:47	-129.822	46.352	0	655.60	0	4.4320	0	34.1800	0	27.094	0	649.170	0	15.9	4	5.1	4	-1E+10	1	-1E+10	1	-1E+10	1	-1E+10	1	-1E+10	1	-1E+10	1
4901784	11	C	10/23/2015	10:47	-129.822	46.352	0	660.00	0	4.3950	0	34.1820	0	27.099	0	653.520	0	15.9	4	5.1	4	-1E+10	1	-1E+10	1	-1E+10	1	-1E+10	1	-1E+10	1	-1E+10	1
4901784	11	C	10/23/2015	10:47	-129.822	46.352	0	664.40	0	4.3820	0	34.1840	0	27.102	0	657.870	0	15.6	4	5.0	4	-1E+10	1	-1E+10	1	-1E+10	1	-1E+10	1	-1E+10	1	-1E+10	1
4901784	11	C	10/23/2015	10:47	-129.822	46.352	0	669.60	0	4.3590	0	34.1900	0	27.110	0	663.010	0	15.2	4	4.8	4	-1E+10	1	-1E+10	1	-1E+10	1	-1E+10	1	-1E+10	1	-1E+10	1
4901784	11	C	10/23/2015	10:47	-129.822	46.352	0	675.00	0	4.3480	0	34.1960	0	27.116	0	668.348	0	14.7	4	4.7	4	-1E+10	1	-1E+10	1	-1E+10	1	-1E+10	1	-1E+10	1	-1E+10	1
4901784	11	C	10/23/2015	10:47	-129.822	46.352	0	680.40	0	4.3480	0	34.2000	0	27.119	0	673.686	0	14.4	4	4.6	4	-1E+10	1	-1E+10	1	-1E+10	1	-1E+10	1	-1E+10	1	-1E+10	1
4901784	11	C	10/23/2015	10:47	-129.822	46.352	0	684.90	0	4.3460	0	34.2050	0	27.123	0	678.135	0	14.0	4	4.5	4	-1E+10	1	-1E+10	1	-1E+10	1	-1E+10	1	-1E+10	1	-1E+10	1
4901784	11	C	10/23/2015	10:47	-129.822	46.352	0	689.40	0	4.3380	0	34.2090	0	27.127	0	682.583	0	13.8	4	4.4	4	-1E+10	1	-1E+10	1	-1E+10	1	-1E+10	1	-1E+10	1	-1E+10	1
4901784	11	C	10/23/2015	10:47	-129.822	46.352	0	694.80	0	4.3270	0	34.2120	0	27.131	0	687.921	0	13.6	4	4.3	4	-1E+10	1	-1E+10	1	-1E+10	1	-1E+10	1	-1E+10	1	-1E+10	1
4901784	11	C	10/23/2015	10:47	-129.822	46.352	0	700.10	0	4.3080	0	34.2180	0	27.138	0	693.159	0	13.6	4	4.3	4	-1E+10	1	-1E+10	1	-1E+10	1	-1E+10	1	-1E+10	1	-1E+10	1
4901784	11	C	10/23/2015	10:47	-129.822	46.352	0	704.60	0	4.2600	0	34.2190	0	27.143	0	697.607	0	13.9	4	4.4	4	-1E+10	1	-1E+10	1	-1E+10	1	-1E+10	1	-1E+10	1	-1E+10	1
4901784	11	C	10/23/2015	10:47	-129.822	46.352	0	709.20	0	4.1450	0	34.2120	0	27.150	0	702.154	0	14.5	4	4.6	4	-1E+10	1	-1E+10	1	-1E+10	1	-1E+10	1	-1E+10	1	-1E+10	1
4901784	11	C	10/23/2015	10:47	-129.822	46.352	0	714.40	0	4.0520	0	34.2160	0	27.163	0	707.293	0	13.8	4	4.4	4	-1E+10	1	-1E+10	1	-1E+10	1	-1E+10	1	-1E+10	1	-1E+10	1
4901784	11	C	10/23/2015	10:47	-129.822	46.352	0	720.00	0	4.1710	0	34.2350	0	27.166	0	712.828	0	12.9	4	4.1	4	-1E+10	1	-1E+10	1	-1E+10	1	-1E+10	1	-1E+10	1	-1E+10	1
4901784	11	C	10/23/2015	10:47	-129.822	46.352	0	725.80	0	4.1320	0	34.2330	0	27.168	0	718.560	0	13.4	4	4.2	4	-1E+10	1	-1E+10	1	-1E+10	1	-1E+10	1	-1E+10	1	-1E+10	1
4901784	11	C	10/23/2015	10:47	-129.822	46.352	0	730.70	0	4.0900	0	34.2310	0	27.171	0	723.403	0	13.6	4	4.3	4	-1E+10	1	-1E+10	1	-1E+10	1	-1E+10	1	-1E+10	1	-1E+10	1
4901784	11	C	10/23/2015	10:47	-129.822	46.352	0	735.70	0	3.9850	0	34.2250	0	27.177	0	728.344	0	14.0	4	4.4	4	-1E+10	1	-1E+10	1	-1E+10	1	-1E+10	1	-1E+10	1	-1E+10	1
4901784	11	C	10/23/2015	10:47	-129.822	46.352	0	740.70	0	3.9550	0	34.2320	0	27.185	0	733.285	0	13.6	4	4.3	4	-1E+10	1	-1E+10	1	-1E+10	1	-1E+10	1	-1E+10	1	-1E+10	1
4901784	11	C	10/23/2015	10:47	-129.822	46.352	0	745.00	0	3.9230	0	34.2360	0	27.192	0	737.535	0	12.9	4	4.1	4	-1E+10	1	-1E+10	1	-1E+10	1	-1E+10	1	-1E+10	1	-1E+10	1
4901784	11	C	10/23/2015	10:47	-129.822	46.352	0	749.40	0	4.0610	0	34.2600	0	27.197	0	741.883	0	11.9	4	3.8	4	-1E+10	1	-1E+10	1	-1E+10	1	-1E+10	1	-1E+10	1	-1E+10	1
4901784	11	C	10/23/2015	10:47	-129.822	46.352	0	754.70	0	4.0560	0	34.2650	0	27.202	0	747.120	0	12.0	4	3.8	4	-1E+10	1	-1E+10	1	-1E+10	1	-1E+10	1	-1E+10	1	-1E+10	1
4901784	11	C	10/23/2015	10:47	-129.822	46.352	0	760.20	0	4.0120	0	34.2640	0	27.205	0	752.555	0	12.2	4	3.9	4	-1E+10	1	-1E+10	1	-1E+10	1	-1E+10	1	-1E+10	1	-1E+10	1
4901784	11	C	10/23/2015	10:47	-129.822	46.352	0	765.60	0	3.9870	0	34.2630	0	27.207	0	757.891	0	12.4	4	3.9	4	-1E+10	1	-1E+10	1	-1E+10	1	-1E+10	1	-1E+10	1	-1E+10	1
4901784	11	C	10/23/2015	10:47	-129.822	46.352	0	770.50	0	3.9600	0	34.2630	0	27.210	0	762.733	0	12.4	4	3.9	4	-1E+10	1	-1E+10	1	-1E+10	1	-1E+10	1	-1E+10	1	-1E+10	1
4901784	11	C	10/23/2015	10:47	-129.822	46.352	0	775.40	0	3.9410	0	34.2630	0	27.212	0	767.574	0	12.5	4	3.9	4	-1E+10	1	-1E+10	1	-1E+10	1	-1E+10	1	-1E+10	1	-1E+10	1
4901784	11	C	10/23/2015	10:47	-129.822	46.352	0	780.40	0	3.9230	0	34.2660	0	27.216	0	772.515	0	12.4	4	3.9	4	-1E+10	1	-1E+10	1	-1E+10	1	-1E+10	1	-1E+10	1	-1E+10	1
4901784	11	C	10/23/2015	10:47	-129.822	46.352	0	785.40	0	3.9250	0	34.2680	0	27.217	0	777.455	0	12.4	4	3.9	4	-1E+10	1	-1E+10	1	-1E+10	1	-1E+10	1	-1E+10	1	-1E+10	1
4901784	11	C	10/23/2015	10:47	-129.822	46.352	0	790.50	0	3.9170	0	34.2680	0	27.218	0	782.494	0	12.5	4	4.0	4	-1E+10	1	-1E+10	1	-1E+10	1	-1E+10	1	-1E+10	1	-1E+10	1
4901784	11	C	10/23/2015	10:47	-129.822	46.352	0	795.70	0	3.8360	0	34.2640	0	27.223	0	787.631	0	12.9	4	4.1	4	-1E+10	1	-1E+10	1	-1E+10	1	-1E+10	1	-1E+10	1	-1E+10	1
4901784	11	C	10/23/2015	10:47	-129.822	46.352	0	800.00	0	3.8070	0	34.2640	0	27.226	0	791.879	0	12.8	4	4.0	4	-1E+10	1	-1E+10	1	-1E+10	1	-1E+10	1	-1E+10	1	-1E+10	1
4901784	11	C	10/23/2015	10:47	-129.822	46.352	0	804.50	0	3.8150	0	34.2690	0	27.229	0	796.325	0	12.6	4	4.0	4	-1E+10	1	-1E+10	1	-1E+10	1	-1E+10	1	-1E+10	1	-1E+10	1
4901784	11	C	10/23/2015	10:47	-129.822	46.352	0	809.80	0	3.8100	0	34.2720	0	27.232	0	801.561	0	12.6	4	4.0	4	-1E+10	1	-1E+10	1	-1E+10	1	-1E+10	1	-1E+10	1	-1E+10	1
4901784	11	C	10/23/2015	10:47	-129.822	46.352	0	815.20	0	3.7960	0	34.2720	0	27.234	0	806.896	0	12.7	4	4.0	4	-1E+10	1	-1E+10	1	-1E+10	1	-1E+10	1	-1E+10	1	-1E+10	1
4901784	11	C	10/23/2015	10:47	-129.822	46.352	0	820.30	0	3.7920	0	34.2710	0	27.233	0	811.934	0	12.7	4	4.0	4	-1E+10	1	-1E+10	1	-1E+10	1	-1E+10	1	-1E+10	1	-1E+10	1
4901784	11	C	10/23/2015	10:47	-129.822	46.352	0	824.40	0	3.7710	0	34.2700	0	27.235	0	815.984	0	12.9	4	4.0	4	-1E+10	1	-1E+10	1	-1E+10	1	-1E+10	1	-1E+10	1	-1E+10	1
4901784	11	C	10/23/2015	10:47	-129.822	46.352	0	830.00	0	3.7390	0	34.2700	0	27.238	0	821.516	0	13.0	4	4.1	4	-1E+10	1	-1E+10	1	-1E+10	1	-1E+10	1	-1E+10	1	-1E+10	1
4901784	11	C	10/23/2015	10:47	-129.822	46.352	0	835.60	0	3.7130	0	34.2710	0	27.241	0	827.048	0	13.0	4	4.1	4	-1E+10	1	-1E+10	1	-1E+10	1	-1E+10	1	-1E+10	1	-1E+10	1
4901784	11	C	10/23/2015	10:47	-129.822	46.352	0	840.50	0	3.7150	0	34.2730	0	27.243	0	831.888	0	12.9	4	4.0	4	-1E+10	1	-1E+10	1	-1E+10	1	-1E+10	1	-1E+10	1	-1E+10	1
4901784	11	C	10/23/2015	10:47	-129.822	46.352	0	845.30	0	3.7140	0	34.2750	0	27.244	0	836.629	0	12.8	4	4.0	4	-1E+10	1	-1E+10	1	-1E+10	1	-1E+10	1	-1E+10	1	-1E+10	1
4901784	11	C	10/23/2015	10:47	-129.822	46.352	0	850.10	0	3.7100	0	34.2780	0	27.247	0	841.370	0	12.7	4	4.0	4	-1E+10	1	-1E+10	1	-1E+10	1	-1E+10	1	-1E+10	1	-1E+10	1
4901784	11	C	10/23/2015	10:47	-129.822	46.352	0	855.10	0	3.6790	0	34.2790	0	27.251	0	846.309	0	12.8	4	4.0	4	-1E+10	1	-1E+10	1	-1E+10	1	-1E+10	1	-1E+10	1	-1E+10	1
4901784	11	C	10/23/2015	10:47	-129.822	46.352	0	860.00	0	3.6560	0	34.2800	0	27.254	0	851.148	0	12.9	4	4.0	4	-1E+10	1	-1E+10	1	-1E+10	1	-1E+10	1	-1E+10	1	-1E+10	1
4901784	11	C	10/23/2015	10:47	-129.822	46.352	0	865.10	0	3.6340	0	34.2810	0	27.257	0	856.185	0	13.0	4	4.1	4	-1E+10	1	-1E+10	1	-1E+10	1	-1E+10	1	-1E+10	1	-1E+10	1
4901784	11	C	10/23/2015	10:47	-129.822	46.352	0	870.10	0	3.6210	0	34.2820	0	27.259	0	861.123	0	12.9	4	4.0	4	-1E+10	1	-1E+10	1	-1E+10	1	-1E+10	1	-1E+10	1	-1E+10	1
4901784	11	C	10/23/2015	10:47	-129.822	46.352	0	875.20	0	3.6100	0	34.2830	0	27.261	0	866.160	0	12.9	4	4.0	4	-1E+10	1	-1E+10	1	-1E+10	1	-1E+10	1	-1E+10	1	-1E+10	1
4901784	11	C	10/23/2015	10:47	-129.822	46.352	0	880.30	0	3.5990	0	34.2840	0	27.263	0	871.197	0	13.0	4	4.1	4	-1E+10	1	-1E+10	1	-1E+10	1	-1E+10	1	-1E+10	1	-1E+10	1
4901784	11	C	10/23/2015	10:47	-129.822	46.352	0	885.40	0	3.5810	0	34.2860	0	27.267	0	876.234	0	13.0	4	4.1	4	-1E+10	1	-1E+10	1	-1E+10	1	-1E+10	1	-1E+10	1	-1E+10	1
4901784	11	C	10/23/2015	10:47	-129.822	46.352	0	890.60	0	3.5490	0	34.2890	0	27.272	0	881.369	0	13.0	4	4.1	4	-1E+10	1	-1E+10	1	-1E+10	1	-1E+10	1	-1E+10	1	-1E+10	1
4901784	11	C	10/23/2015	10:47	-129.822	46.352	0	895.80	0	3.5360	0	34.2900	0	27.274	0	886.504	0	13.0	4	4.1	4	-1E+10	1	-1E+10	1	-1E+10	1	-1E+10	1	-1E+10	1	-1E+10	1
4901784	11	C	10/23/2015	10:47	-129.822	46.352	0	900.10	0	3.5190	0	34.2940	0	27.279	0	890.750	0	13.0	4	4.1	4	-1E+10	1	-1E+10	1	-1E+10	1	-1E+10	1	-1E+10	1	-1E+10	1
4901784	11	C	10/23/2015	10:47	-129.822	46.352	0	904.40	0	3.5000	0	34.2960	0	27.282	0	894.996	0	13.0	4	4.1	4	-1E+10	1	-1E+10	1	-1E+10	1	-1E+10	1	-1E+10	1	-1E+10	1
4901784	11	C	10/23/2015	10:47	-129.822	46.352	0	909.50	0	3.4800	0	34.2980	0	27.286	0	900.032	0	13.0	4	4.1	4	-1E+10	1	-1E+10	1	-1E+10	1	-1E+10	1	-1E+10	1	-1E+10	1
4901784	11	C	10/23/2015	10:47	-129.822	46.352	0	914.70	0	3.4720	0	34.2990	0	27.288	0	905.167	0	13.0	4	4.0	4	-1E+10	1	-1E+10	1	-1E+10	1	-1E+10	1	-1E+10	1	-1E+10	1
4901784	11	C	10/23/2015	10:47	-129.822	46.352	0	920.00	0	3.4590	0	34.3020	0	27.291	0	910.400	0	12.9	4	4.0	4	-1E+10	1	-1E+10	1	-1E+10	1	-1E+10	1	-1E+10	1	-1E+10	1
4901784	11	C	10/23/2015	10:47	-129.822	46.352	0	925.20	0	3.4470	0	34.3040	0	27.294	0	915.534	0	12.8	4	4.0	4	-1E+10	1	-1E+10	1	-1E+10	1	-1E+10	1	-1E+10	1	-1E+10	1
4901784	11	C	10/23/2015	10:47	-129.822	46.352	0	930.40	0	3.4440	0	34.3080	0	27.297	0	920.669	0	12.7	4	4.0	4	-1E+10	1	-1E+10	1	-1E+10	1	-1E+10	1	-1E+10	1	-1E+10	1
4901784	11	C	10/23/2015	10:47	-129.822	46.352	0	934.90	0	3.4420	0	34.3100	0	27.299	0	925.112	0	12.6	4	3.9	4	-1E+10	1	-1E+10	1	-1E+10	1	-1E+10	1	-1E+10	1	-1E+10	1
4901784	11	C	10/23/2015	10:47	-129.822	46.352	0	939.30	0	3.4380	0	34.3120	0	27.301	0	929.456	0	12.6	4	3.9	4	-1E+10	1	-1E+10	1	-1E+10	1	-1E+10	1	-1E+10	1	-1E+10	1
4901784	11	C	10/23/2015	10:47	-129.822	46.352	0	944.70	0	3.4360	0	34.3140	0	27.303	0	934.787	0	12.4	4	3.9	4	-1E+10	1	-1E+10	1	-1E+10	1	-1E+10	1	-1E+10	1	-1E+10	1
4901784	11	C	10/23/2015	10:47	-129.822	46.352	0	950.10	0	3.4330	0	34.3180	0	27.307	0	940.118	0	12.3	4	3.8	4	-1E+10	1	-1E+10	1	-1E+10	1	-1E+10	1	-1E+10	1	-1E+10	1
4901784	11	C	10/23/2015	10:47	-129.822	46.352	0	955.40	0	3.4270	0	34.3210	0	27.310	0	945.351	0	12.3	4	3.8	4	-1E+10	1	-1E+10	1	-1E+10	1	-1E+10	1	-1E+10	1	-1E+10	1
4901784	11	C	10/23/2015	10:47	-129.822	46.352	0	959.90	0	3.4240	0	34.3230	0	27.312	0	949.793	0	12.2	4	3.8	4	-1E+10	1	-1E+10	1	-1E+10	1	-1E+10	1	-1E+10	1	-1E+10	1
4901784	11	C	10/23/2015	10:47	-129.822	46.352	0	964.40	0	3.4180	0	34.3230	0	27.312	0	954.236	0	12.2	4	3.8	4	-1E+10	1	-1E+10	1	-1E+10	1	-1E+10	1	-1E+10	1	-1E+10	1
4901784	11	C	10/23/2015	10:47	-129.822	46.352	0	969.70	0	3.4090	0	34.3250	0	27.315	0	959.468	0	12.2	4	3.8	4	-1E+10	1	-1E+10	1	-1E+10	1	-1E+10	1	-1E+10	1	-1E+10	1
4901784	11	C	10/23/2015	10:47	-129.822	46.352	0	975.10	0	3.3980	0	34.3270	0	27.317	0	964.798	0	12.2	4	3.8	4	-1E+10	1	-1E+10	1	-1E+10	1	-1E+10	1	-1E+10	1	-1E+10	1
4901784	11	C	10/23/2015	10:47	-129.822	46.352	0	980.50	0	3.3820	0	34.3300	0	27.321	0	970.129	0	12.2	4	3.8	4	-1E+10	1	-1E+10	1	-1E+10	1	-1E+10	1	-1E+10	1	-1E+10	1
4901784	11	C	10/23/2015	10:47	-129.822	46.352	0	985.00	0	3.3790	0	34.3310	0	27.322	0	974.571	0	12.1	4	3.8	4	-1E+10	1	-1E+10	1	-1E+10	1	-1E+10	1	-1E+10	1	-1E+10	1
4901784	11	C	10/23/2015	10:47	-129.822	46.352	0	989.60	0	3.3730	0	34.3330	0	27.325	0	979.111	0	12.1	4	3.8	4	-1E+10	1	-1E+10	1	-1E+10	1	-1E+10	1	-1E+10	1	-1E+10	1
4901784	11	C	10/23/2015	10:47	-129.822	46.352	0	995.00	0	3.3620	0	34.3360	0	27.328	0	984.441	0	12.1	4	3.8	4	-1E+10	1	-1E+10	1	-1E+10	1	-1E+10	1	-1E+10	1	-1E+10	1
4901784	11	C	10/23/2015	10:47	-129.822	46.352	0	1000.30	0	3.3560	0	34.3370	0	27.329	0	989.673	0	12.1	4	3.8	4	-1E+10	1	-1E+10	1	-1E+10	1	-1E+10	1	-1E+10	1	-1E+10	1
4901784	11	C	10/23/2015	10:47	-129.822	46.352	0	1005.60	0	3.3430	0	34.3390	0	27.332	0	994.904	0	12.0	4	3.7	4	-1E+10	1	-1E+10	1	-1E+10	1	-1E+10	1	-1E+10	1	-1E+10	1
4901784	11	C	10/23/2015	10:47	-129.822	46.352	0	1010.10	0	3.3380	0	34.3440	0	27.337	0	999.345	0	12.0	4	3.7	4	-1E+10	1	-1E+10	1	-1E+10	1	-1E+10	1	-1E+10	1	-1E+10	1
4901784	11	C	10/23/2015	10:47	-129.822	46.352	0	1014.60	0	3.3320	0	34.3470	0	27.340	0	1003.786	0	12.0	4	3.7	4	-1E+10	1	-1E+10	1	-1E+10	1	-1E+10	1	-1E+10	1	-1E+10	1
4901784	11	C	10/23/2015	10:47	-129.822	46.352	0	1020.00	0	3.3270	0	34.3500	0	27.343	0	1009.116	0	12.0	4	3.7	4	-1E+10	1	-1E+10	1	-1E+10	1	-1E+10	1	-1E+10	1	-1E+10	1
4901784	11	C	10/23/2015	10:47	-129.822	46.352	0	1025.30	0	3.3160	0	34.3550	0	27.348	0	1014.347	0	11.9	4	3.7	4	-1E+10	1	-1E+10	1	-1E+10	1	-1E+10	1	-1E+10	1	-1E+10	1
4901784	11	C	10/23/2015	10:47	-129.822	46.352	0	1030.60	0	3.3180	0	34.3590	0	27.351	0	1019.577	0	11.9	4	3.7	4	-1E+10	1	-1E+10	1	-1E+10	1	-1E+10	1	-1E+10	1	-1E+10	1
4901784	11	C	10/23/2015	10:47	-129.822	46.352	0	1035.00	0	3.3200	0	34.3610	0	27.352	0	1023.919	0	11.9	4	3.7	4	-1E+10	1	-1E+10	1	-1E+10	1	-1E+10	1	-1E+10	1	-1E+10	1
4901784	11	C	10/23/2015	10:47	-129.822	46.352	0	1039.40	0	3.3240	0	34.3620	0	27.353	0	1028.261	0	11.9	4	3.7	4	-1E+10	1	-1E+10	1	-1E+10	1	-1E+10	1	-1E+10	1	-1E+10	1
4901784	11	C	10/23/2015	10:47	-129.822	46.352	0	1044.70	0	3.3200	0	34.3660	0	27.356	0	1033.491	0	12.0	4	3.7	4	-1E+10	1	-1E+10	1	-1E+10	1	-1E+10	1	-1E+10	1	-1E+10	1
4901784	11	C	10/23/2015	10:47	-129.822	46.352	0	1050.10	0	3.3130	0	34.3700	0	27.360	0	1038.820	0	12.0	4	3.7	4	-1E+10	1	-1E+10	1	-1E+10	1	-1E+10	1	-1E+10	1	-1E+10	1
4901784	11	C	10/23/2015	10:47	-129.822	46.352	0	1055.50	0	3.3070	0	34.3720	0	27.362	0	1044.149	0	12.0	4	3.7	4	-1E+10	1	-1E+10	1	-1E+10	1	-1E+10	1	-1E+10	1	-1E+10	1
4901784	11	C	10/23/2015	10:47	-129.822	46.352	0	1060.00	0	3.3000	0	34.3730	0	27.364	0	1048.589	0	12.0	4	3.7	4	-1E+10	1	-1E+10	1	-1E+10	1	-1E+10	1	-1E+10	1	-1E+10	1
4901784	11	C	10/23/2015	10:47	-129.822	46.352	0	1064.50	0	3.2950	0	34.3730	0	27.364	0	1053.029	0	12.1	4	3.8	4	-1E+10	1	-1E+10	1	-1E+10	1	-1E+10	1	-1E+10	1	-1E+10	1
4901784	11	C	10/23/2015	10:47	-129.822	46.352	0	1070.00	0	3.2890	0	34.3770	0	27.368	0	1058.456	0	12.2	4	3.8	4	-1E+10	1	-1E+10	1	-1E+10	1	-1E+10	1	-1E+10	1	-1E+10	1
4901784	11	C	10/23/2015	10:47	-129.822	46.352	0	1075.30	0	3.2890	0	34.3830	0	27.373	0	1063.686	0	12.3	4	3.8	4	-1E+10	1	-1E+10	1	-1E+10	1	-1E+10	1	-1E+10	1	-1E+10	1
4901784	11	C	10/23/2015	10:47	-129.822	46.352	0	1079.80	0	3.2930	0	34.3880	0	27.377	0	1068.126	0	12.3	4	3.8	4	-1E+10	1	-1E+10	1	-1E+10	1	-1E+10	1	-1E+10	1	-1E+10	1
4901784	11	C	10/23/2015	10:47	-129.822	46.352	0	1084.30	0	3.2870	0	34.3890	0	27.378	0	1072.565	0	12.3	4	3.8	4	-1E+10	1	-1E+10	1	-1E+10	1	-1E+10	1	-1E+10	1	-1E+10	1
4901784	11	C	10/23/2015	10:47	-129.822	46.352	0	1089.60	0	3.2830	0	34.3920	0	27.381	0	1077.794	0	12.4	4	3.9	4	-1E+10	1	-1E+10	1	-1E+10	1	-1E+10	1	-1E+10	1	-1E+10	1
4901784	11	C	10/23/2015	10:47	-129.822	46.352	0	1094.40	0	3.2690	0	34.3950	0	27.384	0	1082.530	0	12.5	4	3.9	4	-1E+10	1	-1E+10	1	-1E+10	1	-1E+10	1	-1E+10	1	-1E+10	1
4901784	11	C	10/23/2015	10:47	-129.822	46.352	0	1099.30	0	3.2680	0	34.3970	0	27.386	0	1087.364	0	12.6	4	3.9	4	-1E+10	1	-1E+10	1	-1E+10	1	-1E+10	1	-1E+10	1	-1E+10	1
4901784	11	C	10/23/2015	10:47	-129.822	46.352	0	1104.20	0	3.2570	0	34.3980	0	27.388	0	1092.198	0	12.6	4	3.9	4	-1E+10	1	-1E+10	1	-1E+10	1	-1E+10	1	-1E+10	1	-1E+10	1
4901784	11	C	10/23/2015	10:47	-129.822	46.352	0	1110.00	0	3.2440	0	34.4000	0	27.391	0	1097.920	0	12.7	4	4.0	4	-1E+10	1	-1E+10	1	-1E+10	1	-1E+10	1	-1E+10	1	-1E+10	1
4901784	11	C	10/23/2015	10:47	-129.822	46.352	0	1115.80	0	3.2320	0	34.4020	0	27.394	0	1103.642	0	12.8	4	4.0	4	-1E+10	1	-1E+10	1	-1E+10	1	-1E+10	1	-1E+10	1	-1E+10	1
4901784	11	C	10/23/2015	10:47	-129.822	46.352	0	1120.00	0	3.2260	0	34.4020	0	27.394	0	1107.785	0	12.8	4	4.0	4	-1E+10	1	-1E+10	1	-1E+10	1	-1E+10	1	-1E+10	1	-1E+10	1
4901784	11	C	10/23/2015	10:47	-129.822	46.352	0	1124.60	0	3.2040	0	34.4030	0	27.397	0	1112.322	0	12.9	4	4.0	4	-1E+10	1	-1E+10	1	-1E+10	1	-1E+10	1	-1E+10	1	-1E+10	1
4901784	11	C	10/23/2015	10:47	-129.822	46.352	0	1130.10	0	3.1880	0	34.4050	0	27.400	0	1117.748	0	13.0	4	4.0	4	-1E+10	1	-1E+10	1	-1E+10	1	-1E+10	1	-1E+10	1	-1E+10	1
4901784	11	C	10/23/2015	10:47	-129.822	46.352	0	1134.80	0	3.1810	0	34.4060	0	27.402	0	1122.384	0	13.1	4	4.0	4	-1E+10	1	-1E+10	1	-1E+10	1	-1E+10	1	-1E+10	1	-1E+10	1
4901784	11	C	10/23/2015	10:47	-129.822	46.352	0	1139.50	0	3.1710	0	34.4070	0	27.403	0	1127.020	0	13.2	4	4.1	4	-1E+10	1	-1E+10	1	-1E+10	1	-1E+10	1	-1E+10	1	-1E+10	1
4901784	11	C	10/23/2015	10:47	-129.822	46.352	0	1145.10	0	3.1590	0	34.4110	0	27.408	0	1132.543	0	13.3	4	4.1	4	-1E+10	1	-1E+10	1	-1E+10	1	-1E+10	1	-1E+10	1	-1E+10	1
4901784	11	C	10/23/2015	10:47	-129.822	46.352	0	1149.90	0	3.1500	0	34.4110	0	27.409	0	1137.278	0	13.3	4	4.1	4	-1E+10	1	-1E+10	1	-1E+10	1	-1E+10	1	-1E+10	1	-1E+10	1
4901784	11	C	10/23/2015	10:47	-129.822	46.352	0	1154.70	0	3.1460	0	34.4120	0	27.410	0	1142.012	0	13.4	4	4.1	4	-1E+10	1	-1E+10	1	-1E+10	1	-1E+10	1	-1E+10	1	-1E+10	1
4901784	11	C	10/23/2015	10:47	-129.822	46.352	0	1159.60	0	3.1380	0	34.4130	0	27.411	0	1146.845	0	13.5	4	4.2	4	-1E+10	1	-1E+10	1	-1E+10	1	-1E+10	1	-1E+10	1	-1E+10	1
4901784	11	C	10/23/2015	10:47	-129.822	46.352	0	1164.50	0	3.1230	0	34.4150	0	27.414	0	1151.678	0	13.6	4	4.2	4	-1E+10	1	-1E+10	1	-1E+10	1	-1E+10	1	-1E+10	1	-1E+10	1
4901784	11	C	10/23/2015	10:47	-129.822	46.352	0	1169.50	0	3.1080	0	34.4170	0	27.417	0	1156.609	0	13.7	4	4.2	4	-1E+10	1	-1E+10	1	-1E+10	1	-1E+10	1	-1E+10	1	-1E+10	1
4901784	11	C	10/23/2015	10:47	-129.822	46.352	0	1174.50	0	3.0930	0	34.4170	0	27.419	0	1161.540	0	13.8	4	4.3	4	-1E+10	1	-1E+10	1	-1E+10	1	-1E+10	1	-1E+10	1	-1E+10	1
4901784	11	C	10/23/2015	10:47	-129.822	46.352	0	1179.50	0	3.0640	0	34.4200	0	27.424	0	1166.471	0	13.9	4	4.3	4	-1E+10	1	-1E+10	1	-1E+10	1	-1E+10	1	-1E+10	1	-1E+10	1
4901784	11	C	10/23/2015	10:47	-129.822	46.352	0	1184.50	0	3.0410	0	34.4220	0	27.428	0	1171.402	0	14.0	4	4.3	4	-1E+10	1	-1E+10	1	-1E+10	1	-1E+10	1	-1E+10	1	-1E+10	1
4901784	11	C	10/23/2015	10:47	-129.822	46.352	0	1189.50	0	3.0280	0	34.4230	0	27.430	0	1176.332	0	14.2	4	4.4	4	-1E+10	1	-1E+10	1	-1E+10	1	-1E+10	1	-1E+10	1	-1E+10	1
4901784	11	C	10/23/2015	10:47	-129.822	46.352	0	1194.70	0	3.0040	0	34.4250	0	27.433	0	1181.460	0	14.3	4	4.4	4	-1E+10	1	-1E+10	1	-1E+10	1	-1E+10	1	-1E+10	1	-1E+10	1
4901784	11	C	10/23/2015	10:47	-129.822	46.352	0	1199.90	0	2.9920	0	34.4270	0	27.436	0	1186.588	0	14.4	4	4.4	4	-1E+10	1	-1E+10	1	-1E+10	1	-1E+10	1	-1E+10	1	-1E+10	1
4901784	11	C	10/23/2015	10:47	-129.822	46.352	0	1205.00	0	2.9870	0	34.4280	0	27.437	0	1191.617	0	14.4	4	4.5	4	-1E+10	1	-1E+10	1	-1E+10	1	-1E+10	1	-1E+10	1	-1E+10	1
4901784	11	C	10/23/2015	10:47	-129.822	46.352	0	1210.10	0	2.9760	0	34.4290	0	27.439	0	1196.646	0	14.5	4	4.5	4	-1E+10	1	-1E+10	1	-1E+10	1	-1E+10	1	-1E+10	1	-1E+10	1
4901784	11	C	10/23/2015	10:47	-129.822	46.352	0	1215.30	0	2.9710	0	34.4300	0	27.440	0	1201.773	0	14.6	4	4.5	4	-1E+10	1	-1E+10	1	-1E+10	1	-1E+10	1	-1E+10	1	-1E+10	1
4901784	11	C	10/23/2015	10:47	-129.822	46.352	0	1220.50	0	2.9680	0	34.4300	0	27.441	0	1206.900	0	14.6	4	4.5	4	-1E+10	1	-1E+10	1	-1E+10	1	-1E+10	1	-1E+10	1	-1E+10	1
4901784	11	C	10/23/2015	10:47	-129.822	46.352	0	1224.90	0	2.9580	0	34.4320	0	27.443	0	1211.239	0	14.7	4	4.5	4	-1E+10	1	-1E+10	1	-1E+10	1	-1E+10	1	-1E+10	1	-1E+10	1
4901784	11	C	10/23/2015	10:47	-129.822	46.352	0	1229.30	0	2.9490	0	34.4330	0	27.445	0	1215.577	0	14.8	4	4.6	4	-1E+10	1	-1E+10	1	-1E+10	1	-1E+10	1	-1E+10	1	-1E+10	1
4901784	11	C	10/23/2015	10:47	-129.822	46.352	0	1234.70	0	2.9460	0	34.4330	0	27.445	0	1220.901	0	14.9	4	4.6	4	-1E+10	1	-1E+10	1	-1E+10	1	-1E+10	1	-1E+10	1	-1E+10	1
4901784	11	C	10/23/2015	10:47	-129.822	46.352	0	1240.10	0	2.9320	0	34.4360	0	27.449	0	1226.225	0	15.1	4	4.6	4	-1E+10	1	-1E+10	1	-1E+10	1	-1E+10	1	-1E+10	1	-1E+10	1
4901784	11	C	10/23/2015	10:47	-129.822	46.352	0	1245.30	0	2.9230	0	34.4370	0	27.450	0	1231.352	0	15.2	4	4.7	4	-1E+10	1	-1E+10	1	-1E+10	1	-1E+10	1	-1E+10	1	-1E+10	1
4901784	11	C	10/23/2015	10:47	-129.822	46.352	0	1250.30	0	2.9140	0	34.4380	0	27.452	0	1236.281	0	15.4	4	4.7	4	-1E+10	1	-1E+10	1	-1E+10	1	-1E+10	1	-1E+10	1	-1E+10	1
4901784	11	C	10/23/2015	10:47	-129.822	46.352	0	1255.40	0	2.9060	0	34.4400	0	27.454	0	1241.309	0	15.5	4	4.8	4	-1E+10	1	-1E+10	1	-1E+10	1	-1E+10	1	-1E+10	1	-1E+10	1
4901784	11	C	10/23/2015	10:47	-129.822	46.352	0	1260.50	0	2.9000	0	34.4400	0	27.455	0	1246.336	0	15.6	4	4.8	4	-1E+10	1	-1E+10	1	-1E+10	1	-1E+10	1	-1E+10	1	-1E+10	1
4901784	11	C	10/23/2015	10:47	-129.822	46.352	0	1265.70	0	2.8840	0	34.4430	0	27.459	0	1251.462	0	15.8	4	4.9	4	-1E+10	1	-1E+10	1	-1E+10	1	-1E+10	1	-1E+10	1	-1E+10	1
4901784	11	C	10/23/2015	10:47	-129.822	46.352	0	1270.00	0	2.8770	0	34.4440	0	27.460	0	1255.701	0	15.9	4	4.9	4	-1E+10	1	-1E+10	1	-1E+10	1	-1E+10	1	-1E+10	1	-1E+10	1
4901784	11	C	10/23/2015	10:47	-129.822	46.352	0	1274.40	0	2.8670	0	34.4450	0	27.462	0	1260.038	0	16.1	4	5.0	4	-1E+10	1	-1E+10	1	-1E+10	1	-1E+10	1	-1E+10	1	-1E+10	1
4901784	11	C	10/23/2015	10:47	-129.822	46.352	0	1279.70	0	2.8540	0	34.4470	0	27.465	0	1265.263	0	16.4	4	5.1	4	-1E+10	1	-1E+10	1	-1E+10	1	-1E+10	1	-1E+10	1	-1E+10	1
4901784	11	C	10/23/2015	10:47	-129.822	46.352	0	1285.00	0	2.8350	0	34.4510	0	27.470	0	1270.487	0	16.7	4	5.1	4	-1E+10	1	-1E+10	1	-1E+10	1	-1E+10	1	-1E+10	1	-1E+10	1
4901784	11	C	10/23/2015	10:47	-129.822	46.352	0	1290.20	0	2.8260	0	34.4520	0	27.471	0	1275.613	0	16.8	4	5.2	4	-1E+10	1	-1E+10	1	-1E+10	1	-1E+10	1	-1E+10	1	-1E+10	1
4901784	11	C	10/23/2015	10:47	-129.822	46.352	0	1295.30	0	2.8220	0	34.4530	0	27.472	0	1280.639	0	17.1	4	5.2	4	-1E+10	1	-1E+10	1	-1E+10	1	-1E+10	1	-1E+10	1	-1E+10	1
4901784	11	C	10/23/2015	10:47	-129.822	46.352	0	1300.10	0	2.8210	0	34.4570	0	27.476	0	1285.370	0	17.4	4	5.4	4	-1E+10	1	-1E+10	1	-1E+10	1	-1E+10	1	-1E+10	1	-1E+10	1
4901784	11	C	10/23/2015	10:47	-129.822	46.352	0	1304.90	0	2.8120	0	34.4590	0	27.478	0	1290.101	0	17.7	4	5.4	4	-1E+10	1	-1E+10	1	-1E+10	1	-1E+10	1	-1E+10	1	-1E+10	1
4901784	11	C	10/23/2015	10:47	-129.822	46.352	0	1309.80	0	2.8140	0	34.4600	0	27.479	0	1294.931	0	17.8	4	5.5	4	-1E+10	1	-1E+10	1	-1E+10	1	-1E+10	1	-1E+10	1	-1E+10	1
4901784	11	C	10/23/2015	10:47	-129.822	46.352	0	1314.70	0	2.8130	0	34.4610	0	27.480	0	1299.760	0	18.0	4	5.5	4	-1E+10	1	-1E+10	1	-1E+10	1	-1E+10	1	-1E+10	1	-1E+10	1
4901784	11	C	10/23/2015	10:47	-129.822	46.352	0	1319.60	0	2.8060	0	34.4630	0	27.482	0	1304.589	0	18.2	4	5.6	4	-1E+10	1	-1E+10	1	-1E+10	1	-1E+10	1	-1E+10	1	-1E+10	1
4901784	11	C	10/23/2015	10:47	-129.822	46.352	0	1324.60	0	2.8010	0	34.4640	0	27.483	0	1309.517	0	18.5	4	5.7	4	-1E+10	1	-1E+10	1	-1E+10	1	-1E+10	1	-1E+10	1	-1E+10	1
4901784	11	C	10/23/2015	10:47	-129.822	46.352	0	1329.60	0	2.7920	0	34.4650	0	27.485	0	1314.444	0	18.6	4	5.7	4	-1E+10	1	-1E+10	1	-1E+10	1	-1E+10	1	-1E+10	1	-1E+10	1
4901784	11	C	10/23/2015	10:47	-129.822	46.352	0	1334.60	0	2.7740	0	34.4670	0	27.488	0	1319.372	0	18.8	4	5.8	4	-1E+10	1	-1E+10	1	-1E+10	1	-1E+10	1	-1E+10	1	-1E+10	1
4901784	11	C	10/23/2015	10:47	-129.822	46.352	0	1339.70	0	2.7670	0	34.4680	0	27.489	0	1324.397	0	18.9	4	5.8	4	-1E+10	1	-1E+10	1	-1E+10	1	-1E+10	1	-1E+10	1	-1E+10	1
4901784	11	C	10/23/2015	10:47	-129.822	46.352	0	1344.80	0	2.7630	0	34.4680	0	27.490	0	1329.423	0	19.0	4	5.8	4	-1E+10	1	-1E+10	1	-1E+10	1	-1E+10	1	-1E+10	1	-1E+10	1
4901784	11	C	10/23/2015	10:47	-129.822	46.352	0	1349.90	0	2.7580	0	34.4700	0	27.492	0	1334.449	0	19.1	4	5.9	4	-1E+10	1	-1E+10	1	-1E+10	1	-1E+10	1	-1E+10	1	-1E+10	1
4901784	11	C	10/23/2015	10:47	-129.822	46.352	0	1355.10	0	2.7570	0	34.4700	0	27.492	0	1339.573	0	19.2	4	5.9	4	-1E+10	1	-1E+10	1	-1E+10	1	-1E+10	1	-1E+10	1	-1E+10	1
4901784	11	C	10/23/2015	10:47	-129.822	46.352	0	1360.30	0	2.7550	0	34.4700	0	27.492	0	1344.696	0	19.3	4	5.9	4	-1E+10	1	-1E+10	1	-1E+10	1	-1E+10	1	-1E+10	1	-1E+10	1
4901784	11	C	10/23/2015	10:47	-129.822	46.352	0	1365.50	0	2.7460	0	34.4710	0	27.494	0	1349.820	0	19.5	4	6.0	4	-1E+10	1	-1E+10	1	-1E+10	1	-1E+10	1	-1E+10	1	-1E+10	1
4901784	11	C	10/23/2015	10:47	-129.822	46.352	0	1369.90	0	2.7460	0	34.4720	0	27.495	0	1354.156	0	19.7	4	6.0	4	-1E+10	1	-1E+10	1	-1E+10	1	-1E+10	1	-1E+10	1	-1E+10	1
4901784	11	C	10/23/2015	10:47	-129.822	46.352	0	1374.20	0	2.7290	0	34.4720	0	27.496	0	1358.392	0	19.7	4	6.0	4	-1E+10	1	-1E+10	1	-1E+10	1	-1E+10	1	-1E+10	1	-1E+10	1
4901784	11	C	10/23/2015	10:47	-129.822	46.352	0	1379.60	0	2.7030	0	34.4720	0	27.498	0	1363.713	0	19.7	4	6.0	4	-1E+10	1	-1E+10	1	-1E+10	1	-1E+10	1	-1E+10	1	-1E+10	1
4901784	11	C	10/23/2015	10:47	-129.822	46.352	0	1385.00	0	2.6840	0	34.4730	0	27.501	0	1369.033	0	20.0	4	6.1	4	-1E+10	1	-1E+10	1	-1E+10	1	-1E+10	1	-1E+10	1	-1E+10	1
4901784	11	C	10/23/2015	10:47	-129.822	46.352	0	1390.40	0	2.6730	0	34.4750	0	27.503	0	1374.353	0	20.2	4	6.2	4	-1E+10	1	-1E+10	1	-1E+10	1	-1E+10	1	-1E+10	1	-1E+10	1
4901784	11	C	10/23/2015	10:47	-129.822	46.352	0	1394.90	0	2.6690	0	34.4760	0	27.505	0	1378.787	0	20.5	4	6.3	4	-1E+10	1	-1E+10	1	-1E+10	1	-1E+10	1	-1E+10	1	-1E+10	1
4901784	11	C	10/23/2015	10:47	-129.822	46.352	0	1399.50	0	2.6640	0	34.4780	0	27.507	0	1383.318	0	20.7	4	6.3	4	-1E+10	1	-1E+10	1	-1E+10	1	-1E+10	1	-1E+10	1	-1E+10	1
4901784	11	C	10/23/2015	10:47	-129.822	46.352	0	1404.90	0	2.6580	0	34.4790	0	27.508	0	1388.638	0	20.9	4	6.4	4	-1E+10	1	-1E+10	1	-1E+10	1	-1E+10	1	-1E+10	1	-1E+10	1
4901784	11	C	10/23/2015	10:47	-129.822	46.352	0	1410.40	0	2.6520	0	34.4800	0	27.509	0	1394.056	0	21.1	4	6.5	4	-1E+10	1	-1E+10	1	-1E+10	1	-1E+10	1	-1E+10	1	-1E+10	1
4901784	11	C	10/23/2015	10:47	-129.822	46.352	0	1415.00	0	2.6490	0	34.4810	0	27.510	0	1398.588	0	21.4	4	6.6	4	-1E+10	1	-1E+10	1	-1E+10	1	-1E+10	1	-1E+10	1	-1E+10	1
4901784	11	C	10/23/2015	10:47	-129.822	46.352	0	1419.50	0	2.6320	0	34.4830	0	27.514	0	1403.021	0	21.6	4	6.6	4	-1E+10	1	-1E+10	1	-1E+10	1	-1E+10	1	-1E+10	1	-1E+10	1
4901784	11	C	10/23/2015	10:47	-129.822	46.352	0	1425.10	0	2.6200	0	34.4840	0	27.515	0	1408.537	0	21.8	4	6.7	4	-1E+10	1	-1E+10	1	-1E+10	1	-1E+10	1	-1E+10	1	-1E+10	1
4901784	11	C	10/23/2015	10:47	-129.822	46.352	0	1430.60	0	2.6110	0	34.4850	0	27.517	0	1413.955	0	22.1	4	6.8	4	-1E+10	1	-1E+10	1	-1E+10	1	-1E+10	1	-1E+10	1	-1E+10	1
4901784	11	C	10/23/2015	10:47	-129.822	46.352	0	1435.30	0	2.5980	0	34.4870	0	27.520	0	1418.584	0	22.3	4	6.8	4	-1E+10	1	-1E+10	1	-1E+10	1	-1E+10	1	-1E+10	1	-1E+10	1
4901784	11	C	10/23/2015	10:47	-129.822	46.352	0	1440.00	0	2.5910	0	34.4870	0	27.520	0	1423.214	0	22.4	4	6.8	4	-1E+10	1	-1E+10	1	-1E+10	1	-1E+10	1	-1E+10	1	-1E+10	1
4901784	11	C	10/23/2015	10:47	-129.822	46.352	0	1445.60	0	2.5800	0	34.4870	0	27.521	0	1428.729	0	22.5	4	6.9	4	-1E+10	1	-1E+10	1	-1E+10	1	-1E+10	1	-1E+10	1	-1E+10	1
4901784	11	C	10/23/2015	10:47	-129.822	46.352	0	1450.30	0	2.5710	0	34.4870	0	27.522	0	1433.359	0	22.8	4	7.0	4	-1E+10	1	-1E+10	1	-1E+10	1	-1E+10	1	-1E+10	1	-1E+10	1
4901784	11	C	10/23/2015	10:47	-129.822	46.352	0	1455.00	0	2.5600	0	34.4900	0	27.525	0	1437.988	0	23.3	4	7.1	4	-1E+10	1	-1E+10	1	-1E+10	1	-1E+10	1	-1E+10	1	-1E+10	1
4901784	11	C	10/23/2015	10:47	-129.822	46.352	0	1459.80	0	2.5560	0	34.4910	0	27.527	0	1442.715	0	23.4	4	7.2	4	-1E+10	1	-1E+10	1	-1E+10	1	-1E+10	1	-1E+10	1	-1E+10	1
4901784	11	C	10/23/2015	10:47	-129.822	46.352	0	1464.40	0	2.5520	0	34.4920	0	27.528	0	1447.246	0	23.7	4	7.2	4	-1E+10	1	-1E+10	1	-1E+10	1	-1E+10	1	-1E+10	1	-1E+10	1
4901784	11	C	10/23/2015	10:47	-129.822	46.352	0	1470.10	0	2.5450	0	34.4930	0	27.529	0	1452.859	0	23.7	4	7.2	4	-1E+10	1	-1E+10	1	-1E+10	1	-1E+10	1	-1E+10	1	-1E+10	1
4901784	11	C	10/23/2015	10:47	-129.822	46.352	0	1474.70	0	2.5270	0	34.4930	0	27.531	0	1457.389	0	23.6	4	7.2	4	-1E+10	1	-1E+10	1	-1E+10	1	-1E+10	1	-1E+10	1	-1E+10	1
4901784	11	C	10/23/2015	10:47	-129.822	46.352	0	1479.50	0	2.5130	0	34.4930	0	27.532	0	1462.116	0	23.7	4	7.2	4	-1E+10	1	-1E+10	1	-1E+10	1	-1E+10	1	-1E+10	1	-1E+10	1
4901784	11	C	10/23/2015	10:47	-129.822	46.352	0	1485.10	0	2.5040	0	34.4930	0	27.533	0	1467.631	0	23.8	4	7.3	4	-1E+10	1	-1E+10	1	-1E+10	1	-1E+10	1	-1E+10	1	-1E+10	1
4901784	11	C	10/23/2015	10:47	-129.822	46.352	0	1489.80	0	2.4940	0	34.4950	0	27.535	0	1472.260	0	24.1	4	7.3	4	-1E+10	1	-1E+10	1	-1E+10	1	-1E+10	1	-1E+10	1	-1E+10	1
4901784	11	C	10/23/2015	10:47	-129.822	46.352	0	1494.40	0	2.4870	0	34.4950	0	27.536	0	1476.789	0	24.2	4	7.4	4	-1E+10	1	-1E+10	1	-1E+10	1	-1E+10	1	-1E+10	1	-1E+10	1
4901784	11	C	10/23/2015	10:47	-129.822	46.352	0	1499.90	0	2.4770	0	34.4960	0	27.537	0	1482.205	0	24.5	4	7.5	4	-1E+10	1	-1E+10	1	-1E+10	1	-1E+10	1	-1E+10	1	-1E+10	1
4901784	11	C	10/23/2015	10:47	-129.822	46.352	0	1505.40	0	2.4640	0	34.4970	0	27.539	0	1487.621	0	24.8	4	7.6	4	-1E+10	1	-1E+10	1	-1E+10	1	-1E+10	1	-1E+10	1	-1E+10	1
4901784	11	C	10/23/2015	10:47	-129.822	46.352	0	1509.90	0	2.4660	0	34.4990	0	27.541	0	1492.052	0	25.3	4	7.7	4	-1E+10	1	-1E+10	1	-1E+10	1	-1E+10	1	-1E+10	1	-1E+10	1
4901784	11	C	10/23/2015	10:47	-129.822	46.352	0	1514.40	0	2.4660	0	34.5000	0	27.542	0	1496.483	0	25.5	4	7.8	4	-1E+10	1	-1E+10	1	-1E+10	1	-1E+10	1	-1E+10	1	-1E+10	1
4901784	11	C	10/23/2015	10:47	-129.822	46.352	0	1519.80	0	2.4470	0	34.5010	0	27.544	0	1501.800	0	25.8	4	7.9	4	-1E+10	1	-1E+10	1	-1E+10	1	-1E+10	1	-1E+10	1	-1E+10	1
4901784	11	C	10/23/2015	10:47	-129.822	46.352	0	1525.20	0	2.4460	0	34.5020	0	27.545	0	1507.117	0	26.7	4	8.1	4	-1E+10	1	-1E+10	1	-1E+10	1	-1E+10	1	-1E+10	1	-1E+10	1
4901784	11	C	10/23/2015	10:47	-129.822	46.352	0	1530.60	0	2.4540	0	34.5070	0	27.548	0	1512.433	0	27.7	4	8.5	4	-1E+10	1	-1E+10	1	-1E+10	1	-1E+10	1	-1E+10	1	-1E+10	1
4901784	11	C	10/23/2015	10:47	-129.822	46.352	0	1535.00	0	2.4480	0	34.5090	0	27.550	0	1516.765	0	28.0	4	8.5	4	-1E+10	1	-1E+10	1	-1E+10	1	-1E+10	1	-1E+10	1	-1E+10	1
4901784	11	C	10/23/2015	10:47	-129.822	46.352	0	1539.50	0	2.4460	0	34.5090	0	27.551	0	1521.196	0	28.3	4	8.6	4	-1E+10	1	-1E+10	1	-1E+10	1	-1E+10	1	-1E+10	1	-1E+10	1
4901784	11	C	10/23/2015	10:47	-129.822	46.352	0	1544.90	0	2.4400	0	34.5100	0	27.552	0	1526.512	0	28.7	4	8.7	4	-1E+10	1	-1E+10	1	-1E+10	1	-1E+10	1	-1E+10	1	-1E+10	1
4901784	11	C	10/23/2015	10:47	-129.822	46.352	0	1550.30	0	2.4270	0	34.5120	0	27.555	0	1531.828	0	29.1	4	8.9	4	-1E+10	1	-1E+10	1	-1E+10	1	-1E+10	1	-1E+10	1	-1E+10	1
4901784	11	C	10/23/2015	10:47	-129.822	46.352	0	1555.60	0	2.4150	0	34.5140	0	27.557	0	1537.046	0	29.6	4	9.0	4	-1E+10	1	-1E+10	1	-1E+10	1	-1E+10	1	-1E+10	1	-1E+10	1
4901784	11	C	10/23/2015	10:47	-129.822	46.352	0	1560.10	0	2.4060	0	34.5150	0	27.559	0	1541.476	0	29.9	4	9.1	4	-1E+10	1	-1E+10	1	-1E+10	1	-1E+10	1	-1E+10	1	-1E+10	1
4901784	11	C	10/23/2015	10:47	-129.822	46.352	0	1565.20	0	2.3880	0	34.5170	0	27.562	0	1546.496	0	30.3	4	9.2	4	-1E+10	1	-1E+10	1	-1E+10	1	-1E+10	1	-1E+10	1	-1E+10	1
4901784	11	C	10/23/2015	10:47	-129.822	46.352	0	1570.20	0	2.3790	0	34.5180	0	27.564	0	1551.418	0	30.5	4	9.3	4	-1E+10	1	-1E+10	1	-1E+10	1	-1E+10	1	-1E+10	1	-1E+10	1
4901784	11	C	10/23/2015	10:47	-129.822	46.352	0	1575.10	0	2.3720	0	34.5180	0	27.564	0	1556.241	0	30.7	4	9.3	4	-1E+10	1	-1E+10	1	-1E+10	1	-1E+10	1	-1E+10	1	-1E+10	1
4901784	11	C	10/23/2015	10:47	-129.822	46.352	0	1579.90	0	2.3640	0	34.5190	0	27.566	0	1560.966	0	30.8	4	9.4	4	-1E+10	1	-1E+10	1	-1E+10	1	-1E+10	1	-1E+10	1	-1E+10	1
4901784	11	C	10/23/2015	10:47	-129.822	46.352	0	1584.80	0	2.3510	0	34.5190	0	27.567	0	1565.790	0	30.9	4	9.4	4	-1E+10	1	-1E+10	1	-1E+10	1	-1E+10	1	-1E+10	1	-1E+10	1
4901784	11	C	10/23/2015	10:47	-129.822	46.352	0	1589.70	0	2.3320	0	34.5200	0	27.569	0	1570.612	0	31.1	4	9.4	4	-1E+10	1	-1E+10	1	-1E+10	1	-1E+10	1	-1E+10	1	-1E+10	1
4901784	11	C	10/23/2015	10:47	-129.822	46.352	0	1594.70	0	2.3240	0	34.5210	0	27.571	0	1575.534	0	31.5	4	9.6	4	-1E+10	1	-1E+10	1	-1E+10	1	-1E+10	1	-1E+10	1	-1E+10	1
4901784	11	C	10/23/2015	10:47	-129.822	46.352	0	1599.60	0	2.3260	0	34.5230	0	27.572	0	1580.357	0	31.9	4	9.7	4	-1E+10	1	-1E+10	1	-1E+10	1	-1E+10	1	-1E+10	1	-1E+10	1
4901784	11	C	10/23/2015	10:47	-129.822	46.352	0	1604.70	0	2.3210	0	34.5230	0	27.572	0	1585.376	0	32.0	4	9.7	4	-1E+10	1	-1E+10	1	-1E+10	1	-1E+10	1	-1E+10	1	-1E+10	1
4901784	11	C	10/23/2015	10:47	-129.822	46.352	0	1609.70	0	2.3170	0	34.5240	0	27.574	0	1590.297	0	32.2	4	9.8	4	-1E+10	1	-1E+10	1	-1E+10	1	-1E+10	1	-1E+10	1	-1E+10	1
4901784	11	C	10/23/2015	10:47	-129.822	46.352	0	1614.70	0	2.3110	0	34.5240	0	27.574	0	1595.218	0	32.3	4	9.8	4	-1E+10	1	-1E+10	1	-1E+10	1	-1E+10	1	-1E+10	1	-1E+10	1
4901784	11	C	10/23/2015	10:47	-129.822	46.352	0	1619.70	0	2.3020	0	34.5240	0	27.575	0	1600.139	0	32.4	4	9.8	4	-1E+10	1	-1E+10	1	-1E+10	1	-1E+10	1	-1E+10	1	-1E+10	1
4901784	11	C	10/23/2015	10:47	-129.822	46.352	0	1624.80	0	2.2860	0	34.5250	0	27.577	0	1605.158	0	32.6	4	9.9	4	-1E+10	1	-1E+10	1	-1E+10	1	-1E+10	1	-1E+10	1	-1E+10	1
4901784	11	C	10/23/2015	10:47	-129.822	46.352	0	1629.90	0	2.2760	0	34.5260	0	27.579	0	1610.177	0	32.7	4	9.9	4	-1E+10	1	-1E+10	1	-1E+10	1	-1E+10	1	-1E+10	1	-1E+10	1
4901784	11	C	10/23/2015	10:47	-129.822	46.352	0	1634.90	0	2.2700	0	34.5260	0	27.579	0	1615.098	0	32.9	4	10.0	4	-1E+10	1	-1E+10	1	-1E+10	1	-1E+10	1	-1E+10	1	-1E+10	1
4901784	11	C	10/23/2015	10:47	-129.822	46.352	0	1639.90	0	2.2660	0	34.5270	0	27.580	0	1620.018	0	33.3	4	10.1	4	-1E+10	1	-1E+10	1	-1E+10	1	-1E+10	1	-1E+10	1	-1E+10	1
4901784	11	C	10/23/2015	10:47	-129.822	46.352	0	1644.90	0	2.2570	0	34.5280	0	27.582	0	1624.938	0	33.9	4	10.3	4	-1E+10	1	-1E+10	1	-1E+10	1	-1E+10	1	-1E+10	1	-1E+10	1
4901784	11	C	10/23/2015	10:47	-129.822	46.352	0	1650.00	0	2.2500	0	34.5300	0	27.584	0	1629.957	0	34.5	4	10.4	4	-1E+10	1	-1E+10	1	-1E+10	1	-1E+10	1	-1E+10	1	-1E+10	1
4901784	11	C	10/23/2015	10:47	-129.822	46.352	0	1655.00	0	2.2430	0	34.5320	0	27.586	0	1634.877	0	35.1	4	10.6	4	-1E+10	1	-1E+10	1	-1E+10	1	-1E+10	1	-1E+10	1	-1E+10	1
4901784	11	C	10/23/2015	10:47	-129.822	46.352	0	1660.10	0	2.2310	0	34.5340	0	27.589	0	1639.895	0	35.6	4	10.8	4	-1E+10	1	-1E+10	1	-1E+10	1	-1E+10	1	-1E+10	1	-1E+10	1
4901784	11	C	10/23/2015	10:47	-129.822	46.352	0	1665.30	0	2.2260	0	34.5350	0	27.590	0	1645.011	0	35.9	4	10.9	4	-1E+10	1	-1E+10	1	-1E+10	1	-1E+10	1	-1E+10	1	-1E+10	1
4901784	11	C	10/23/2015	10:47	-129.822	46.352	0	1670.40	0	2.2240	0	34.5360	0	27.591	0	1650.029	0	36.1	4	10.9	4	-1E+10	1	-1E+10	1	-1E+10	1	-1E+10	1	-1E+10	1	-1E+10	1
4901784	11	C	10/23/2015	10:47	-129.822	46.352	0	1675.70	0	2.2200	0	34.5360	0	27.591	0	1655.244	0	36.3	4	11.0	4	-1E+10	1	-1E+10	1	-1E+10	1	-1E+10	1	-1E+10	1	-1E+10	1
4901784	11	C	10/23/2015	10:47	-129.822	46.352	0	1680.10	0	2.2150	0	34.5370	0	27.593	0	1659.573	0	36.5	4	11.1	4	-1E+10	1	-1E+10	1	-1E+10	1	-1E+10	1	-1E+10	1	-1E+10	1
4901784	11	C	10/23/2015	10:47	-129.822	46.352	0	1684.50	0	2.2140	0	34.5370	0	27.593	0	1663.902	0	36.7	4	11.1	4	-1E+10	1	-1E+10	1	-1E+10	1	-1E+10	1	-1E+10	1	-1E+10	1
4901784	11	C	10/23/2015	10:47	-129.822	46.352	0	1689.90	0	2.2120	0	34.5370	0	27.593	0	1669.215	0	36.9	4	11.2	4	-1E+10	1	-1E+10	1	-1E+10	1	-1E+10	1	-1E+10	1	-1E+10	1
4901784	11	C	10/23/2015	10:47	-129.822	46.352	0	1695.20	0	2.2050	0	34.5390	0	27.595	0	1674.429	0	37.4	4	11.3	4	-1E+10	1	-1E+10	1	-1E+10	1	-1E+10	1	-1E+10	1	-1E+10	1
4901784	11	C	10/23/2015	10:47	-129.822	46.352	0	1700.60	0	2.2010	0	34.5400	0	27.596	0	1679.742	0	37.7	4	11.4	4	-1E+10	1	-1E+10	1	-1E+10	1	-1E+10	1	-1E+10	1	-1E+10	1
4901784	11	C	10/23/2015	10:47	-129.822	46.352	0	1705.00	0	2.1970	0	34.5410	0	27.597	0	1684.070	0	38.1	4	11.6	4	-1E+10	1	-1E+10	1	-1E+10	1	-1E+10	1	-1E+10	1	-1E+10	1
4901784	11	C	10/23/2015	10:47	-129.822	46.352	0	1709.50	0	2.1920	0	34.5420	0	27.599	0	1688.497	0	38.5	4	11.7	4	-1E+10	1	-1E+10	1	-1E+10	1	-1E+10	1	-1E+10	1	-1E+10	1
4901784	11	C	10/23/2015	10:47	-129.822	46.352	0	1715.00	0	2.1870	0	34.5440	0	27.601	0	1693.907	0	38.9	4	11.8	4	-1E+10	1	-1E+10	1	-1E+10	1	-1E+10	1	-1E+10	1	-1E+10	1
4901784	11	C	10/23/2015	10:47	-129.822	46.352	0	1720.40	0	2.1840	0	34.5440	0	27.601	0	1699.219	0	39.2	4	11.9	4	-1E+10	1	-1E+10	1	-1E+10	1	-1E+10	1	-1E+10	1	-1E+10	1
4901784	11	C	10/23/2015	10:47	-129.822	46.352	0	1725.00	0	2.1810	0	34.5450	0	27.602	0	1703.744	0	39.4	4	11.9	4	-1E+10	1	-1E+10	1	-1E+10	1	-1E+10	1	-1E+10	1	-1E+10	1
4901784	11	C	10/23/2015	10:47	-129.822	46.352	0	1729.50	0	2.1780	0	34.5460	0	27.603	0	1708.171	0	39.7	4	12.0	4	-1E+10	1	-1E+10	1	-1E+10	1	-1E+10	1	-1E+10	1	-1E+10	1
4901784	11	C	10/23/2015	10:47	-129.822	46.352	0	1734.90	0	2.1750	0	34.5460	0	27.603	0	1713.482	0	39.9	4	12.1	4	-1E+10	1	-1E+10	1	-1E+10	1	-1E+10	1	-1E+10	1	-1E+10	1
4901784	11	C	10/23/2015	10:47	-129.822	46.352	0	1740.40	0	2.1750	0	34.5460	0	27.603	0	1718.892	0	40.2	4	12.2	4	-1E+10	1	-1E+10	1	-1E+10	1	-1E+10	1	-1E+10	1	-1E+10	1
4901784	11	C	10/23/2015	10:47	-129.822	46.352	0	1745.10	0	2.1680	0	34.5480	0	27.606	0	1723.515	0	40.5	4	12.3	4	-1E+10	1	-1E+10	1	-1E+10	1	-1E+10	1	-1E+10	1	-1E+10	1
4901784	11	C	10/23/2015	10:47	-129.822	46.352	0	1749.70	0	2.1660	0	34.5480	0	27.606	0	1728.039	0	40.6	4	12.3	4	-1E+10	1	-1E+10	1	-1E+10	1	-1E+10	1	-1E+10	1	-1E+10	1
4901784	11	C	10/23/2015	10:47	-129.822	46.352	0	1755.10	0	2.1610	0	34.5480	0	27.606	0	1733.351	0	40.9	4	12.4	4	-1E+10	1	-1E+10	1	-1E+10	1	-1E+10	1	-1E+10	1	-1E+10	1
4901784	11	C	10/23/2015	10:47	-129.822	46.352	0	1760.60	0	2.1550	0	34.5490	0	27.608	0	1738.760	0	41.2	4	12.5	4	-1E+10	1	-1E+10	1	-1E+10	1	-1E+10	1	-1E+10	1	-1E+10	1
4901784	11	C	10/23/2015	10:47	-129.822	46.352	0	1765.50	0	2.1490	0	34.5500	0	27.609	0	1743.579	0	41.5	4	12.6	4	-1E+10	1	-1E+10	1	-1E+10	1	-1E+10	1	-1E+10	1	-1E+10	1
4901784	11	C	10/23/2015	10:47	-129.822	46.352	0	1770.30	0	2.1380	0	34.5520	0	27.611	0	1748.300	0	41.9	4	12.7	4	-1E+10	1	-1E+10	1	-1E+10	1	-1E+10	1	-1E+10	1	-1E+10	1
4901784	11	C	10/23/2015	10:47	-129.822	46.352	0	1775.30	0	2.1320	0	34.5520	0	27.612	0	1753.217	0	42.1	4	12.7	4	-1E+10	1	-1E+10	1	-1E+10	1	-1E+10	1	-1E+10	1	-1E+10	1
4901784	11	C	10/23/2015	10:47	-129.822	46.352	0	1780.30	0	2.1260	0	34.5520	0	27.612	0	1758.134	0	42.3	4	12.8	4	-1E+10	1	-1E+10	1	-1E+10	1	-1E+10	1	-1E+10	1	-1E+10	1
4901784	11	C	10/23/2015	10:47	-129.822	46.352	0	1785.30	0	2.1220	0	34.5530	0	27.613	0	1763.051	0	42.6	4	12.9	4	-1E+10	1	-1E+10	1	-1E+10	1	-1E+10	1	-1E+10	1	-1E+10	1
4901784	11	C	10/23/2015	10:47	-129.822	46.352	0	1790.30	0	2.1160	0	34.5540	0	27.615	0	1767.968	0	43.0	4	13.0	4	-1E+10	1	-1E+10	1	-1E+10	1	-1E+10	1	-1E+10	1	-1E+10	1
4901784	11	C	10/23/2015	10:47	-129.822	46.352	0	1795.40	0	2.1080	0	34.5550	0	27.616	0	1772.983	0	43.5	4	13.1	4	-1E+10	1	-1E+10	1	-1E+10	1	-1E+10	1	-1E+10	1	-1E+10	1
4901784	11	C	10/23/2015	10:47	-129.822	46.352	0	1800.50	0	2.1000	0	34.5560	0	27.618	0	1777.998	0	43.8	4	13.2	4	-1E+10	1	-1E+10	1	-1E+10	1	-1E+10	1	-1E+10	1	-1E+10	1
4901784	11	C	10/23/2015	10:47	-129.822	46.352	0	1805.70	0	2.0940	0	34.5570	0	27.619	0	1783.111	0	44.2	4	13.3	4	-1E+10	1	-1E+10	1	-1E+10	1	-1E+10	1	-1E+10	1	-1E+10	1
4901784	11	C	10/23/2015	10:47	-129.822	46.352	0	1810.00	0	2.0900	0	34.5580	0	27.620	0	1787.339	0	44.4	4	13.4	4	-1E+10	1	-1E+10	1	-1E+10	1	-1E+10	1	-1E+10	1	-1E+10	1
4901784	11	C	10/23/2015	10:47	-129.822	46.352	0	1814.30	0	2.0890	0	34.5580	0	27.620	0	1791.567	0	44.6	4	13.5	4	-1E+10	1	-1E+10	1	-1E+10	1	-1E+10	1	-1E+10	1	-1E+10	1
4901784	11	C	10/23/2015	10:47	-129.822	46.352	0	1819.60	0	2.0840	0	34.5590	0	27.621	0	1796.779	0	45.0	4	13.6	4	-1E+10	1	-1E+10	1	-1E+10	1	-1E+10	1	-1E+10	1	-1E+10	1
4901784	11	C	10/23/2015	10:47	-129.822	46.352	0	1824.90	0	2.0800	0	34.5600	0	27.623	0	1801.990	0	45.3	4	13.7	4	-1E+10	1	-1E+10	1	-1E+10	1	-1E+10	1	-1E+10	1	-1E+10	1
4901784	11	C	10/23/2015	10:47	-129.822	46.352	0	1830.30	0	2.0770	0	34.5600	0	27.623	0	1807.299	0	45.5	4	13.8	4	-1E+10	1	-1E+10	1	-1E+10	1	-1E+10	1	-1E+10	1	-1E+10	1
4901784	11	C	10/23/2015	10:47	-129.822	46.352	0	1835.60	0	2.0750	0	34.5610	0	27.624	0	1812.510	0	45.8	4	13.8	4	-1E+10	1	-1E+10	1	-1E+10	1	-1E+10	1	-1E+10	1	-1E+10	1
4901784	11	C	10/23/2015	10:47	-129.822	46.352	0	1840.10	0	2.0730	0	34.5620	0	27.625	0	1816.934	0	46.1	4	13.9	4	-1E+10	1	-1E+10	1	-1E+10	1	-1E+10	1	-1E+10	1	-1E+10	1
4901784	11	C	10/23/2015	10:47	-129.822	46.352	0	1845.20	0	2.0720	0	34.5620	0	27.625	0	1821.948	0	46.4	4	14.0	4	-1E+10	1	-1E+10	1	-1E+10	1	-1E+10	1	-1E+10	1	-1E+10	1
4901784	11	C	10/23/2015	10:47	-129.822	46.352	0	1850.20	0	2.0730	0	34.5630	0	27.626	0	1826.863	0	46.8	4	14.1	4	-1E+10	1	-1E+10	1	-1E+10	1	-1E+10	1	-1E+10	1	-1E+10	1
4901784	11	C	10/23/2015	10:47	-129.822	46.352	0	1855.00	0	2.0690	0	34.5640	0	27.627	0	1831.582	0	47.2	4	14.3	4	-1E+10	1	-1E+10	1	-1E+10	1	-1E+10	1	-1E+10	1	-1E+10	1
4901784	11	C	10/23/2015	10:47	-129.822	46.352	0	1859.80	0	2.0660	0	34.5650	0	27.628	0	1836.301	0	47.7	4	14.4	4	-1E+10	1	-1E+10	1	-1E+10	1	-1E+10	1	-1E+10	1	-1E+10	1
4901784	11	C	10/23/2015	10:47	-129.822	46.352	0	1864.60	0	2.0630	0	34.5660	0	27.629	0	1841.019	0	48.0	4	14.5	4	-1E+10	1	-1E+10	1	-1E+10	1	-1E+10	1	-1E+10	1	-1E+10	1
4901784	11	C	10/23/2015	10:47	-129.822	46.352	0	1869.40	0	2.0620	0	34.5670	0	27.630	0	1845.738	0	48.3	4	14.6	4	-1E+10	1	-1E+10	1	-1E+10	1	-1E+10	1	-1E+10	1	-1E+10	1
4901784	11	C	10/23/2015	10:47	-129.822	46.352	0	1874.30	0	2.0610	0	34.5670	0	27.630	0	1850.555	0	48.6	4	14.7	4	-1E+10	1	-1E+10	1	-1E+10	1	-1E+10	1	-1E+10	1	-1E+10	1
4901784	11	C	10/23/2015	10:47	-129.822	46.352	0	1879.30	0	2.0600	0	34.5680	0	27.631	0	1855.469	0	48.8	4	14.7	4	-1E+10	1	-1E+10	1	-1E+10	1	-1E+10	1	-1E+10	1	-1E+10	1
4901784	11	C	10/23/2015	10:47	-129.822	46.352	0	1884.30	0	2.0590	0	34.5680	0	27.631	0	1860.384	0	49.1	4	14.8	4	-1E+10	1	-1E+10	1	-1E+10	1	-1E+10	1	-1E+10	1	-1E+10	1
4901784	11	C	10/23/2015	10:47	-129.822	46.352	0	1889.40	0	2.0560	0	34.5690	0	27.632	0	1865.397	0	49.4	4	14.9	4	-1E+10	1	-1E+10	1	-1E+10	1	-1E+10	1	-1E+10	1	-1E+10	1
4901784	11	C	10/23/2015	10:47	-129.822	46.352	0	1894.60	0	2.0510	0	34.5700	0	27.633	0	1870.508	0	49.8	4	15.0	4	-1E+10	1	-1E+10	1	-1E+10	1	-1E+10	1	-1E+10	1	-1E+10	1
4901784	11	C	10/23/2015	10:47	-129.822	46.352	0	1899.80	0	2.0490	0	34.5700	0	27.633	0	1875.619	0	50.1	4	15.1	4	-1E+10	1	-1E+10	1	-1E+10	1	-1E+10	1	-1E+10	1	-1E+10	1
4901784	11	C	10/23/2015	10:47	-129.822	46.352	0	1905.00	0	2.0430	0	34.5710	0	27.635	0	1880.730	0	50.4	4	15.2	4	-1E+10	1	-1E+10	1	-1E+10	1	-1E+10	1	-1E+10	1	-1E+10	1
4901784	11	C	10/23/2015	10:47	-129.822	46.352	0	1910.30	0	2.0390	0	34.5720	0	27.636	0	1885.939	0	50.7	4	15.3	4	-1E+10	1	-1E+10	1	-1E+10	1	-1E+10	1	-1E+10	1	-1E+10	1
4901784	11	C	10/23/2015	10:47	-129.822	46.352	0	1915.50	0	2.0370	0	34.5720	0	27.636	0	1891.050	0	50.9	4	15.4	4	-1E+10	1	-1E+10	1	-1E+10	1	-1E+10	1	-1E+10	1	-1E+10	1
4901784	11	C	10/23/2015	10:47	-129.822	46.352	0	1920.70	0	2.0340	0	34.5730	0	27.637	0	1896.160	0	51.1	4	15.4	4	-1E+10	1	-1E+10	1	-1E+10	1	-1E+10	1	-1E+10	1	-1E+10	1
4901784	11	C	10/23/2015	10:47	-129.822	46.352	0	1925.00	0	2.0320	0	34.5730	0	27.637	0	1900.386	0	51.3	4	15.5	4	-1E+10	1	-1E+10	1	-1E+10	1	-1E+10	1	-1E+10	1	-1E+10	1
4901784	11	C	10/23/2015	10:47	-129.822	46.352	0	1929.30	0	2.0290	0	34.5740	0	27.638	0	1904.612	0	51.5	4	15.5	4	-1E+10	1	-1E+10	1	-1E+10	1	-1E+10	1	-1E+10	1	-1E+10	1
4901784	11	C	10/23/2015	10:47	-129.822	46.352	0	1934.60	0	2.0270	0	34.5740	0	27.639	0	1909.820	0	51.9	4	15.6	4	-1E+10	1	-1E+10	1	-1E+10	1	-1E+10	1	-1E+10	1	-1E+10	1
4901784	11	C	10/23/2015	10:47	-129.822	46.352	0	1939.90	0	2.0180	0	34.5750	0	27.640	0	1915.028	0	52.4	4	15.8	4	-1E+10	1	-1E+10	1	-1E+10	1	-1E+10	1	-1E+10	1	-1E+10	1
4901784	11	C	10/23/2015	10:47	-129.822	46.352	0	1945.20	0	2.0120	0	34.5770	0	27.642	0	1920.237	0	52.8	4	15.9	4	-1E+10	1	-1E+10	1	-1E+10	1	-1E+10	1	-1E+10	1	-1E+10	1
4901784	11	C	10/23/2015	10:47	-129.822	46.352	0	1949.70	0	2.0110	0	34.5770	0	27.642	0	1924.658	0	52.9	4	16.0	4	-1E+10	1	-1E+10	1	-1E+10	1	-1E+10	1	-1E+10	1	-1E+10	1
4901784	11	C	10/23/2015	10:47	-129.822	46.352	0	1955.00	0	2.0080	0	34.5770	0	27.643	0	1929.866	0	53.2	4	16.1	4	-1E+10	1	-1E+10	1	-1E+10	1	-1E+10	1	-1E+10	1	-1E+10	1
4901784	11	C	10/23/2015	10:47	-129.822	46.352	0	1960.50	0	2.0030	0	34.5780	0	27.644	0	1935.271	0	53.7	4	16.2	4	-1E+10	1	-1E+10	1	-1E+10	1	-1E+10	1	-1E+10	1	-1E+10	1
4901784	11	C	10/23/2015	10:47	-129.822	46.352	0	1965.30	0	1.9970	0	34.5790	0	27.645	0	1939.987	0	54.1	4	16.3	4	-1E+10	1	-1E+10	1	-1E+10	1	-1E+10	1	-1E+10	1	-1E+10	1
4901784	11	C	10/23/2015	10:47	-129.822	46.352	0	1970.20	0	1.9920	0	34.5800	0	27.646	0	1944.802	0	54.3	4	16.4	4	-1E+10	1	-1E+10	1	-1E+10	1	-1E+10	1	-1E+10	1	-1E+10	1
4901784	11	C	10/23/2015	10:47	-129.822	46.352	0	1975.20	0	1.9910	0	34.5810	0	27.647	0	1949.714	0	54.4	4	16.4	4	-1E+10	1	-1E+10	1	-1E+10	1	-1E+10	1	-1E+10	1	-1E+10	1
4901784	11	C	10/23/2015	10:47	-129.822	46.352	0	1980.20	0	1.9900	0	34.5810	0	27.647	0	1954.627	0	54.6	4	16.5	4	-1E+10	1	-1E+10	1	-1E+10	1	-1E+10	1	-1E+10	1	-1E+10	1
4901784	11	C	10/23/2015	10:47	-129.822	46.352	0	1985.10	0	1.9870	0	34.5810	0	27.648	0	1959.441	0	54.8	4	16.5	4	-1E+10	1	-1E+10	1	-1E+10	1	-1E+10	1	-1E+10	1	-1E+10	1
4901784	11	C	10/23/2015	10:47	-129.822	46.352	0	1990.20	0	1.9850	0	34.5820	0	27.649	0	1964.452	0	54.9	4	16.6	4	-1E+10	1	-1E+10	1	-1E+10	1	-1E+10	1	-1E+10	1	-1E+10	1
4901784	11	C	10/23/2015	10:47	-129.822	46.352	0	1995.30	0	1.9840	0	34.5820	0	27.649	0	1969.462	0	55.1	4	16.6	4	-1E+10	1	-1E+10	1	-1E+10	1	-1E+10	1	-1E+10	1	-1E+10	1
4901784	11	C	10/23/2015	10:47	-129.822	46.352	0	2000.40	0	1.9830	0	34.5820	0	27.649	0	1974.473	0	55.3	4	16.7	4	-1E+10	1	-1E+10	1	-1E+10	1	-1E+10	1	-1E+10	1	-1E+10	1
4901784	11	C	10/23/2015	10:47	-129.822	46.352	0	2005.50	0	1.9800	0	34.5820	0	27.649	0	1979.483	0	55.6	4	16.8	4	-1E+10	1	-1E+10	1	-1E+10	1	-1E+10	1	-1E+10	1	-1E+10	1
4901784	11	C	10/23/2015	10:47	-129.822	46.352	0	2010.50	0	1.9750	0	34.5840	0	27.651	0	1984.395	0	55.8	4	16.8	4	-1E+10	1	-1E+10	1	-1E+10	1	-1E+10	1	-1E+10	1	-1E+10	1
4901784	11	C	10/23/2015	10:47	-129.822	46.352	0	2015.40	0	1.9730	0	34.5840	0	27.651	0	1989.208	0	56.0	4	16.9	4	-1E+10	1	-1E+10	1	-1E+10	1	-1E+10	1	-1E+10	1	-1E+10	1
4901784	11	C	10/23/2015	10:47	-129.822	46.352	0	2020.20	0	1.9710	0	34.5840	0	27.651	0	1993.923	0	56.1	4	16.9	4	-1E+10	1	-1E+10	1	-1E+10	1	-1E+10	1	-1E+10	1	-1E+10	1
4901784	11	C	10/23/2015	10:47	-129.822	46.352	0																										
4901784	12	C	11/02/2015	10:47	-129.990	46.179	0	2.20	0	15.8000	0	32.3550	0	23.760	0	2.182	0	239.7	4	96.5	4	-1E+10	1	-1E+10	1	-1E+10	1	-1E+10	1	-1E+10	1	-1E+10	1
4901784	12	C	11/02/2015	10:47	-129.990	46.179	0	3.10	0	15.7990	0	32.3550	0	23.760	0	3.074	0	239.4	4	96.4	4	-1E+10	1	-1E+10	1	-1E+10	1	-1E+10	1	-1E+10	1	-1E+10	1
4901784	12	C	11/02/2015	10:47	-129.990	46.179	0	4.60	0	15.8010	0	32.3570	0	23.761	0	4.562	0	239.4	4	96.4	4	-1E+10	1	-1E+10	1	-1E+10	1	-1E+10	1	-1E+10	1	-1E+10	1
4901784	12	C	11/02/2015	10:47	-129.990	46.179	0	5.90	0	15.8140	0	32.3530	0	23.755	0	5.851	0	239.2	4	96.3	4	-1E+10	1	-1E+10	1	-1E+10	1	-1E+10	1	-1E+10	1	-1E+10	1
4901784	12	C	11/02/2015	10:47	-129.990	46.179	0	7.00	0	15.8160	0	32.3530	0	23.755	0	6.942	0	239.3	4	96.4	4	-1E+10	1	-1E+10	1	-1E+10	1	-1E+10	1	-1E+10	1	-1E+10	1
4901784	12	C	11/02/2015	10:47	-129.990	46.179	0	8.40	0	15.8160	0	32.3540	0	23.755	0	8.331	0	239.2	4	96.3	4	-1E+10	1	-1E+10	1	-1E+10	1	-1E+10	1	-1E+10	1	-1E+10	1
4901784	12	C	11/02/2015	10:47	-129.990	46.179	0	9.80	0	15.8170	0	32.3540	0	23.755	0	9.719	0	239.2	4	96.3	4	-1E+10	1	-1E+10	1	-1E+10	1	-1E+10	1	-1E+10	1	-1E+10	1
4901784	12	C	11/02/2015	10:47	-129.990	46.179	0	11.30	0	15.8170	0	32.3540	0	23.755	0	11.207	0	238.9	4	96.2	4	-1E+10	1	-1E+10	1	-1E+10	1	-1E+10	1	-1E+10	1	-1E+10	1
4901784	12	C	11/02/2015	10:47	-129.990	46.179	0	12.90	0	15.8140	0	32.3530	0	23.755	0	12.793	0	238.9	4	96.2	4	-1E+10	1	-1E+10	1	-1E+10	1	-1E+10	1	-1E+10	1	-1E+10	1
4901784	12	C	11/02/2015	10:47	-129.990	46.179	0	14.60	0	15.8210	0	32.3560	0	23.756	0	14.479	0	238.9	4	96.2	4	-1E+10	1	-1E+10	1	-1E+10	1	-1E+10	1	-1E+10	1	-1E+10	1
4901784	12	C	11/02/2015	10:47	-129.990	46.179	0	16.40	0	15.8150	0	32.3560	0	23.757	0	16.264	0	238.8	4	96.2	4	-1E+10	1	-1E+10	1	-1E+10	1	-1E+10	1	-1E+10	1	-1E+10	1
4901784	12	C	11/02/2015	10:47	-129.990	46.179	0	18.10	0	15.8310	0	32.3670	0	23.762	0	17.950	0	238.6	4	96.1	4	-1E+10	1	-1E+10	1	-1E+10	1	-1E+10	1	-1E+10	1	-1E+10	1
4901784	12	C	11/02/2015	10:47	-129.990	46.179	0	19.90	0	15.8760	0	32.4220	0	23.795	0	19.735	0	238.7	4	96.3	4	-1E+10	1	-1E+10	1	-1E+10	1	-1E+10	1	-1E+10	1	-1E+10	1
4901784	12	C	11/02/2015	10:47	-129.990	46.179	0	21.60	0	15.9220	0	32.4830	0	23.831	0	21.421	0	238.1	4	96.2	4	-1E+10	1	-1E+10	1	-1E+10	1	-1E+10	1	-1E+10	1	-1E+10	1
4901784	12	C	11/02/2015	10:47	-129.990	46.179	0	23.40	0	15.9750	0	32.5440	0	23.866	0	23.206	0	237.7	4	96.2	4	-1E+10	1	-1E+10	1	-1E+10	1	-1E+10	1	-1E+10	1	-1E+10	1
4901784	12	C	11/02/2015	10:47	-129.990	46.179	0	25.10	0	15.9940	0	32.5540	0	23.870	0	24.892	0	237.5	4	96.1	4	-1E+10	1	-1E+10	1	-1E+10	1	-1E+10	1	-1E+10	1	-1E+10	1
4901784	12	C	11/02/2015	10:47	-129.990	46.179	0	26.90	0	16.0180	0	32.5670	0	23.875	0	26.677	0	237.3	4	96.1	4	-1E+10	1	-1E+10	1	-1E+10	1	-1E+10	1	-1E+10	1	-1E+10	1
4901784	12	C	11/02/2015	10:47	-129.990	46.179	0	28.70	0	16.0270	0	32.5740	0	23.878	0	28.462	0	237.1	4	96.0	4	-1E+10	1	-1E+10	1	-1E+10	1	-1E+10	1	-1E+10	1	-1E+10	1
4901784	12	C	11/02/2015	10:47	-129.990	46.179	0	30.40	0	16.0220	0	32.5750	0	23.880	0	30.148	0	237.0	4	96.0	4	-1E+10	1	-1E+10	1	-1E+10	1	-1E+10	1	-1E+10	1	-1E+10	1
4901784	12	C	11/02/2015	10:47	-129.990	46.179	0	32.30	0	16.0190	0	32.5750	0	23.881	0	32.032	0	236.9	4	95.9	4	-1E+10	1	-1E+10	1	-1E+10	1	-1E+10	1	-1E+10	1	-1E+10	1
4901784	12	C	11/02/2015	10:47	-129.990	46.179	0	34.10	0	16.0040	0	32.5710	0	23.881	0	33.817	0	237.0	4	95.9	4	-1E+10	1	-1E+10	1	-1E+10	1	-1E+10	1	-1E+10	1	-1E+10	1
4901784	12	C	11/02/2015	10:47	-129.990	46.179	0	35.90	0	16.0050	0	32.5710	0	23.881	0	35.602	0	236.8	4	95.8	4	-1E+10	1	-1E+10	1	-1E+10	1	-1E+10	1	-1E+10	1	-1E+10	1
4901784	12	C	11/02/2015	10:47	-129.990	46.179	0	37.80	0	15.9940	0	32.5680	0	23.881	0	37.486	0	236.8	4	95.8	4	-1E+10	1	-1E+10	1	-1E+10	1	-1E+10	1	-1E+10	1	-1E+10	1
4901784	12	C	11/02/2015	10:47	-129.990	46.179	0	39.60	0	15.9980	0	32.5680	0	23.880	0	39.271	0	236.7	4	95.8	4	-1E+10	1	-1E+10	1	-1E+10	1	-1E+10	1	-1E+10	1	-1E+10	1
4901784	12	C	11/02/2015	10:47	-129.990	46.179	0	41.50	0	15.9990	0	32.5690	0	23.881	0	41.155	0	236.7	4	95.8	4	-1E+10	1	-1E+10	1	-1E+10	1	-1E+10	1	-1E+10	1	-1E+10	1
4901784	12	C	11/02/2015	10:47	-129.990	46.179	0	43.30	0	15.9370	0	32.5520	0	23.882	0	42.939	0	237.1	4	95.8	4	-1E+10	1	-1E+10	1	-1E+10	1	-1E+10	1	-1E+10	1	-1E+10	1
4901784	12	C	11/02/2015	10:47	-129.990	46.179	0	45.10	0	15.9210	0	32.5490	0	23.883	0	44.724	0	237.4	4	95.9	4	-1E+10	1	-1E+10	1	-1E+10	1	-1E+10	1	-1E+10	1	-1E+10	1
4901784	12	C	11/02/2015	10:47	-129.990	46.179	0	46.90	0	15.9250	0	32.5560	0	23.888	0	46.509	0	237.2	4	95.8	4	-1E+10	1	-1E+10	1	-1E+10	1	-1E+10	1	-1E+10	1	-1E+10	1
4901784	12	C	11/02/2015	10:47	-129.990	46.179	0	48.60	0	15.8530	0	32.5380	0	23.890	0	48.195	0	238.0	4	96.0	4	-1E+10	1	-1E+10	1	-1E+10	1	-1E+10	1	-1E+10	1	-1E+10	1
4901784	12	C	11/02/2015	10:47	-129.990	46.179	0	50.40	0	15.8220	0	32.5290	0	23.890	0	49.979	0	238.3	4	96.1	4	-1E+10	1	-1E+10	1	-1E+10	1	-1E+10	1	-1E+10	1	-1E+10	1
4901784	12	C	11/02/2015	10:47	-129.990	46.179	0	52.00	0	15.8100	0	32.5250	0	23.890	0	51.566	0	238.8	4	96.3	4	-1E+10	1	-1E+10	1	-1E+10	1	-1E+10	1	-1E+10	1	-1E+10	1
4901784	12	C	11/02/2015	10:47	-129.990	46.179	0	54.00	0	15.8180	0	32.5220	0	23.886	0	53.549	0	239.5	4	96.6	4	-1E+10	1	-1E+10	1	-1E+10	1	-1E+10	1	-1E+10	1	-1E+10	1
4901784	12	C	11/02/2015	10:47	-129.990	46.179	0	55.40	0	15.7090	0	32.5220	0	23.910	0	54.937	0	241.6	4	97.2	4	-1E+10	1	-1E+10	1	-1E+10	1	-1E+10	1	-1E+10	1	-1E+10	1
4901784	12	C	11/02/2015	10:47	-129.990	46.179	0	56.50	0	15.6490	0	32.5480	0	23.943	0	56.028	0	243.6	4	97.9	4	-1E+10	1	-1E+10	1	-1E+10	1	-1E+10	1	-1E+10	1	-1E+10	1
4901784	12	C	11/02/2015	10:47	-129.990	46.179	0	57.70	0	15.3080	0	32.5280	0	24.003	0	57.217	0	247.1	4	98.6	4	-1E+10	1	-1E+10	1	-1E+10	1	-1E+10	1	-1E+10	1	-1E+10	1
4901784	12	C	11/02/2015	10:47	-129.990	46.179	0	59.00	0	14.5340	0	32.4780	0	24.130	0	58.506	0	251.9	4	99.0	4	-1E+10	1	-1E+10	1	-1E+10	1	-1E+10	1	-1E+10	1	-1E+10	1
4901784	12	C	11/02/2015	10:47	-129.990	46.179	0	60.50	0	12.7120	0	32.4500	0	24.476	0	59.994	0	261.1	4	98.9	4	-1E+10	1	-1E+10	1	-1E+10	1	-1E+10	1	-1E+10	1	-1E+10	1
4901784	12	C	11/02/2015	10:47	-129.990	46.179	0	62.30	0	12.4770	0	32.4370	0	24.511	0	61.778	0	262.1	4	98.7	4	-1E+10	1	-1E+10	1	-1E+10	1	-1E+10	1	-1E+10	1	-1E+10	1
4901784	12	C	11/02/2015	10:47	-129.990	46.179	0	62.70	0	12.4440	0	32.4380	0	24.518	0	62.175	0	261.3	4	98.4	4	-1E+10	1	-1E+10	1	-1E+10	1	-1E+10	1	-1E+10	1	-1E+10	1
4901784	12	C	11/02/2015	10:47	-129.990	46.179	0	64.00	0	12.2240	0	32.4230	0	24.548	0	63.464	0	259.6	4	97.3	4	-1E+10	1	-1E+10	1	-1E+10	1	-1E+10	1	-1E+10	1	-1E+10	1
4901784	12	C	11/02/2015	10:47	-129.990	46.179	0	65.50	0	11.8060	0	32.4650	0	24.659	0	64.951	0	257.2	4	95.6	4	-1E+10	1	-1E+10	1	-1E+10	1	-1E+10	1	-1E+10	1	-1E+10	1
4901784	12	C	11/02/2015	10:47	-129.990	46.179	0	66.80	0	11.7190	0	32.4560	0	24.668	0	66.240	0	256.4	4	95.1	4	-1E+10	1	-1E+10	1	-1E+10	1	-1E+10	1	-1E+10	1	-1E+10	1
4901784	12	C	11/02/2015	10:47	-129.990	46.179	0	68.20	0	11.6340	0	32.5100	0	24.725	0	67.628	0	252.5	4	93.5	4	-1E+10	1	-1E+10	1	-1E+10	1	-1E+10	1	-1E+10	1	-1E+10	1
4901784	12	C	11/02/2015	10:47	-129.990	46.179	0	69.60	0	11.4900	0	32.5340	0	24.770	0	69.016	0	250.5	4	92.5	4	-1E+10	1	-1E+10	1	-1E+10	1	-1E+10	1	-1E+10	1	-1E+10	1
4901784	12	C	11/02/2015	10:47	-129.990	46.179	0	71.10	0	11.2720	0	32.5370	0	24.812	0	70.503	0	247.4	4	91.0	4	-1E+10	1	-1E+10	1	-1E+10	1	-1E+10	1	-1E+10	1	-1E+10	1
4901784	12	C	11/02/2015	10:47	-129.990	46.179	0	72.50	0	11.1550	0	32.5350	0	24.831	0	71.891	0	245.8	4	90.1	4	-1E+10	1	-1E+10	1	-1E+10	1	-1E+10	1	-1E+10	1	-1E+10	1
4901784	12	C	11/02/2015	10:47	-129.990	46.179	0	74.10	0	11.0910	0	32.5400	0	24.846	0	73.477	0	243.7	4	89.3	4	-1E+10	1	-1E+10	1	-1E+10	1	-1E+10	1	-1E+10	1	-1E+10	1
4901784	12	C	11/02/2015	10:47	-129.990	46.179	0	75.50	0	11.0280	0	32.5380	0	24.856	0	74.865	0	241.6	4	88.4	4	-1E+10	1	-1E+10	1	-1E+10	1	-1E+10	1	-1E+10	1	-1E+10	1
4901784	12	C	11/02/2015	10:47	-129.990	46.179	0	77.10	0	10.9250	0	32.5520	0	24.885	0	76.452	0	238.8	4	87.2	4	-1E+10	1	-1E+10	1	-1E+10	1	-1E+10	1	-1E+10	1	-1E+10	1
4901784	12	C	11/02/2015	10:47	-129.990	46.179	0	78.70	0	10.8030	0	32.5670	0	24.918	0	78.038	0	237.1	4	86.3	4	-1E+10	1	-1E+10	1	-1E+10	1	-1E+10	1	-1E+10	1	-1E+10	1
4901784	12	C	11/02/2015	10:47	-129.990	46.179	0	80.30	0	10.7330	0	32.5750	0	24.936	0	79.624	0	234.6	4	85.3	4	-1E+10	1	-1E+10	1	-1E+10	1	-1E+10	1	-1E+10	1	-1E+10	1
4901784	12	C	11/02/2015	10:47	-129.990	46.179	0	81.80	0	10.5720	0	32.5890	0	24.975	0	81.111	0	233.3	4	84.5	4	-1E+10	1	-1E+10	1	-1E+10	1	-1E+10	1	-1E+10	1	-1E+10	1
4901784	12	C	11/02/2015	10:47	-129.990	46.179	0	83.40	0	10.5100	0	32.5980	0	24.993	0	82.697	0	231.9	4	83.9	4	-1E+10	1	-1E+10	1	-1E+10	1	-1E+10	1	-1E+10	1	-1E+10	1
4901784	12	C	11/02/2015	10:47	-129.990	46.179	0	85.00	0	10.4590	0	32.6110	0	25.012	0	84.283	0	230.2	4	83.2	4	-1E+10	1	-1E+10	1	-1E+10	1	-1E+10	1	-1E+10	1	-1E+10	1
4901784	12	C	11/02/2015	10:47	-129.990	46.179	0	86.60	0	10.3760	0	32.6360	0	25.045	0	85.870	0	228.6	4	82.5	4	-1E+10	1	-1E+10	1	-1E+10	1	-1E+10	1	-1E+10	1	-1E+10	1
4901784	12	C	11/02/2015	10:47	-129.990	46.179	0	88.30	0	10.2990	0	32.6500	0	25.069	0	87.555	0	227.3	4	81.9	4	-1E+10	1	-1E+10	1	-1E+10	1	-1E+10	1	-1E+10	1	-1E+10	1
4901784	12	C	11/02/2015	10:47	-129.990	46.179	0	90.00	0	10.2120	0	32.6850	0	25.111	0	89.240	0	226.6	4	81.5	4	-1E+10	1	-1E+10	1	-1E+10	1	-1E+10	1	-1E+10	1	-1E+10	1
4901784	12	C	11/02/2015	10:47	-129.990	46.179	0	91.60	0	10.1330	0	32.7170	0	25.150	0	90.826	0	226.2	4	81.3	4	-1E+10	1	-1E+10	1	-1E+10	1	-1E+10	1	-1E+10	1	-1E+10	1
4901784	12	C	11/02/2015	10:47	-129.990	46.179	0	93.40	0	10.1300	0	32.7270	0	25.158	0	92.611	0	225.4	4	81.0	4	-1E+10	1	-1E+10	1	-1E+10	1	-1E+10	1	-1E+10	1	-1E+10	1
4901784	12	C	11/02/2015	10:47	-129.990	46.179	0	95.20	0	10.1210	0	32.7380	0	25.168	0	94.395	0	224.6	4	80.7	4	-1E+10	1	-1E+10	1	-1E+10	1	-1E+10	1	-1E+10	1	-1E+10	1
4901784	12	C	11/02/2015	10:47	-129.990	46.179	0	96.90	0	10.0970	0	32.7530	0	25.184	0	96.080	0	223.7	4	80.3	4	-1E+10	1	-1E+10	1	-1E+10	1	-1E+10	1	-1E+10	1	-1E+10	1
4901784	12	C	11/02/2015	10:47	-129.990	46.179	0	98.70	0	10.0520	0	32.7710	0	25.205	0	97.865	0	222.7	4	79.9	4	-1E+10	1	-1E+10	1	-1E+10	1	-1E+10	1	-1E+10	1	-1E+10	1
4901784	12	C	11/02/2015	10:47	-129.990	46.179	0	100.50	0	9.9830	0	32.7890	0	25.231	0	99.649	0	221.8	4	79.5	4	-1E+10	1	-1E+10	1	-1E+10	1	-1E+10	1	-1E+10	1	-1E+10	1
4901784	12	C	11/02/2015	10:47	-129.990	46.179	0	102.20	0	9.9630	0	32.7910	0	25.236	0	101.334	0	220.5	4	79.0	4	-1E+10	1	-1E+10	1	-1E+10	1	-1E+10	1	-1E+10	1	-1E+10	1
4901784	12	C	11/02/2015	10:47	-129.990	46.179	0	104.90	0	9.8700	0	32.8090	0	25.265	0	104.011	0	218.7	4	78.2	4	-1E+10	1	-1E+10	1	-1E+10	1	-1E+10	1	-1E+10	1	-1E+10	1
4901784	12	C	11/02/2015	10:47	-129.990	46.179	0	107.60	0	9.6300	0	32.8660	0	25.349	0	106.687	0	217.0	4	77.2	4	-1E+10	1	-1E+10	1	-1E+10	1	-1E+10	1	-1E+10	1	-1E+10	1
4901784	12	C	11/02/2015	10:47	-129.990	46.179	0	109.40	0	9.5470	0	32.8830	0	25.376	0	108.471	0	216.5	4	76.9	4	-1E+10	1	-1E+10	1	-1E+10	1	-1E+10	1	-1E+10	1	-1E+10	1
4901784	12	C	11/02/2015	10:47	-129.990	46.179	0	112.40	0	9.5080	0	32.8870	0	25.385	0	111.445	0	214.6	4	76.2	4	-1E+10	1	-1E+10	1	-1E+10	1	-1E+10	1	-1E+10	1	-1E+10	1
4901784	12	C	11/02/2015	10:47	-129.990	46.179	0	115.20	0	9.4580	0	32.8870	0	25.394	0	114.221	0	211.6	4	75.0	4	-1E+10	1	-1E+10	1	-1E+10	1	-1E+10	1	-1E+10	1	-1E+10	1
4901784	12	C	11/02/2015	10:47	-129.990	46.179	0	117.60	0	9.0680	0	32.9680	0	25.519	0	116.599	0	210.0	4	73.9	4	-1E+10	1	-1E+10	1	-1E+10	1	-1E+10	1	-1E+10	1	-1E+10	1
4901784	12	C	11/02/2015	10:47	-129.990	46.179	0	119.90	0	8.9410	0	33.0010	0	25.565	0	118.879	0	208.9	4	73.3	4	-1E+10	1	-1E+10	1	-1E+10	1	-1E+10	1	-1E+10	1	-1E+10	1
4901784	12	C	11/02/2015	10:47	-129.990	46.179	0	122.20	0	8.8560	0	33.0180	0	25.591	0	121.159	0	206.7	4	72.4	4	-1E+10	1	-1E+10	1	-1E+10	1	-1E+10	1	-1E+10	1	-1E+10	1
4901784	12	C	11/02/2015	10:47	-129.990	46.179	0	124.70	0	8.6230	0	33.0690	0	25.667	0	123.637	0	204.2	4	71.2	4	-1E+10	1	-1E+10	1	-1E+10	1	-1E+10	1	-1E+10	1	-1E+10	1
4901784	12	C	11/02/2015	10:47	-129.990	46.179	0	127.40	0	8.4610	0	33.1020	0	25.717	0	126.313	0	203.4	4	70.7	4	-1E+10	1	-1E+10	1	-1E+10	1	-1E+10	1	-1E+10	1	-1E+10	1
4901784	12	C	11/02/2015	10:47	-129.990	46.179	0	130.00	0	8.4260	0	33.1110	0	25.730	0	128.890	0	202.2	4	70.2	4	-1E+10	1	-1E+10	1	-1E+10	1	-1E+10	1	-1E+10	1	-1E+10	1
4901784	12	C	11/02/2015	10:47	-129.990	46.179	0	132.20	0	8.3170	0	33.1570	0	25.782	0	131.071	0	200.4	4	69.4	4	-1E+10	1	-1E+10	1	-1E+10	1	-1E+10	1	-1E+10	1	-1E+10	1
4901784	12	C	11/02/2015	10:47	-129.990	46.179	0	134.60	0	8.2030	0	33.2010	0	25.834	0	133.449	0	199.3	4	68.9	4	-1E+10	1	-1E+10	1	-1E+10	1	-1E+10	1	-1E+10	1	-1E+10	1
4901784	12	C	11/02/2015	10:47	-129.990	46.179	0	137.60	0	8.1710	0	33.2260	0	25.858	0	136.423	0	197.6	4	68.3	4	-1E+10	1	-1E+10	1	-1E+10	1	-1E+10	1	-1E+10	1	-1E+10	1
4901784	12	C	11/02/2015	10:47	-129.990	46.179	0	140.00	0	8.0790	0	33.2940	0	25.925	0	138.801	0	195.9	4	67.5	4	-1E+10	1	-1E+10	1	-1E+10	1	-1E+10	1	-1E+10	1	-1E+10	1
4901784	12	C	11/02/2015	10:47	-129.990	46.179	0	142.50	0	8.0780	0	33.3260	0	25.950	0	141.279	0	193.2	4	66.7	4	-1E+10	1	-1E+10	1	-1E+10	1	-1E+10	1	-1E+10	1	-1E+10	1
4901784	12	C	11/02/2015	10:47	-129.990	46.179	0	145.00	0	7.9920	0	33.3630	0	25.992	0	143.757	0	190.4	4	65.6	4	-1E+10	1	-1E+10	1	-1E+10	1	-1E+10	1	-1E+10	1	-1E+10	1
4901784	12	C	11/02/2015	10:47	-129.990	46.179	0	147.50	0	7.9930	0	33.3730	0	26.000	0	146.235	0	186.9	4	64.4	4	-1E+10	1	-1E+10	1	-1E+10	1	-1E+10	1	-1E+10	1	-1E+10	1
4901784	12	C	11/02/2015	10:47	-129.990	46.179	0	150.00	0	7.9600	0	33.3890	0	26.017	0	148.712	0	183.1	4	63.0	4	-1E+10	1	-1E+10	1	-1E+10	1	-1E+10	1	-1E+10	1	-1E+10	1
4901784	12	C	11/02/2015	10:47	-129.990	46.179	0	152.40	0	7.8340	0	33.4340	0	26.071	0	151.091	0	180.0	4	61.8	4	-1E+10	1	-1E+10	1	-1E+10	1	-1E+10	1	-1E+10	1	-1E+10	1
4901784	12	C	11/02/2015	10:47	-129.990	46.179	0	154.90	0	7.8150	0	33.4600	0	26.094	0	153.568	0	179.0	4	61.4	4	-1E+10	1	-1E+10	1	-1E+10	1	-1E+10	1	-1E+10	1	-1E+10	1
4901784	12	C	11/02/2015	10:47	-129.990	46.179	0	157.60	0	7.8180	0	33.5160	0	26.137	0	156.244	0	176.8	4	60.7	4	-1E+10	1	-1E+10	1	-1E+10	1	-1E+10	1	-1E+10	1	-1E+10	1
4901784	12	C	11/02/2015	10:47	-129.990	46.179	0	160.20	0	7.8010	0	33.5410	0	26.160	0	158.821	0	174.8	4	60.0	4	-1E+10	1	-1E+10	1	-1E+10	1	-1E+10	1	-1E+10	1	-1E+10	1
4901784	12	C	11/02/2015	10:47	-129.990	46.179	0	162.70	0	7.7790	0	33.5800	0	26.193	0	161.298	0	174.5	4	59.9	4	-1E+10	1	-1E+10	1	-1E+10	1	-1E+10	1	-1E+10	1	-1E+10	1
4901784	12	C	11/02/2015	10:47	-129.990	46.179	0	165.20	0	7.7890	0	33.6120	0	26.217	0	163.776	0	173.3	4	59.5	4	-1E+10	1	-1E+10	1	-1E+10	1	-1E+10	1	-1E+10	1	-1E+10	1
4901784	12	C	11/02/2015	10:47	-129.990	46.179	0	167.70	0	7.7680	0	33.6410	0	26.243	0	166.253	0	171.6	4	58.9	4	-1E+10	1	-1E+10	1	-1E+10	1	-1E+10	1	-1E+10	1	-1E+10	1
4901784	12	C	11/02/2015	10:47	-129.990	46.179	0	170.20	0	7.7590	0	33.6740	0	26.270	0	168.730	0	171.1	4	58.7	4	-1E+10	1	-1E+10	1	-1E+10	1	-1E+10	1	-1E+10	1	-1E+10	1
4901784	12	C	11/02/2015	10:47	-129.990	46.179	0	172.00	0	7.7430	0	33.6910	0	26.286	0	170.514	0	170.3	4	58.5	4	-1E+10	1	-1E+10	1	-1E+10	1	-1E+10	1	-1E+10	1	-1E+10	1
4901784	12	C	11/02/2015	10:47	-129.990	46.179	0	174.70	0	7.7370	0	33.6970	0	26.292	0	173.190	0	169.0	4	58.0	4	-1E+10	1	-1E+10	1	-1E+10	1	-1E+10	1	-1E+10	1	-1E+10	1
4901784	12	C	11/02/2015	10:47	-129.990	46.179	0	177.30	0	7.7210	0	33.7030	0	26.299	0	175.766	0	167.7	4	57.5	4	-1E+10	1	-1E+10	1	-1E+10	1	-1E+10	1	-1E+10	1	-1E+10	1
4901784	12	C	11/02/2015	10:47	-129.990	46.179	0	179.90	0	7.7140	0	33.7240	0	26.316	0	178.343	0	166.7	4	57.2	4	-1E+10	1	-1E+10	1	-1E+10	1	-1E+10	1	-1E+10	1	-1E+10	1
4901784	12	C	11/02/2015	10:47	-129.990	46.179	0	182.50	0	7.7050	0	33.7410	0	26.331	0	180.919	0	165.1	4	56.6	4	-1E+10	1	-1E+10	1	-1E+10	1	-1E+10	1	-1E+10	1	-1E+10	1
4901784	12	C	11/02/2015	10:47	-129.990	46.179	0	185.20	0	7.6980	0	33.7510	0	26.340	0	183.594	0	162.9	4	55.9	4	-1E+10	1	-1E+10	1	-1E+10	1	-1E+10	1	-1E+10	1	-1E+10	1
4901784	12	C	11/02/2015	10:47	-129.990	46.179	0	187.70	0	7.6940	0	33.7580	0	26.346	0	186.072	0	159.3	4	54.6	4	-1E+10	1	-1E+10	1	-1E+10	1	-1E+10	1	-1E+10	1	-1E+10	1
4901784	12	C	11/02/2015	10:47	-129.990	46.179	0	190.30	0	7.6260	0	33.7710	0	26.366	0	188.648	0	156.0	4	53.4	4	-1E+10	1	-1E+10	1	-1E+10	1	-1E+10	1	-1E+10	1	-1E+10	1
4901784	12	C	11/02/2015	10:47	-129.990	46.179	0	192.80	0	7.6020	0	33.7820	0	26.378	0	191.125	0	153.7	4	52.6	4	-1E+10	1	-1E+10	1	-1E+10	1	-1E+10	1	-1E+10	1	-1E+10	1
4901784	12	C	11/02/2015	10:47	-129.990	46.179	0	195.40	0	7.5570	0	33.7950	0	26.395	0	193.701	0	151.5	4	51.8	4	-1E+10	1	-1E+10	1	-1E+10	1	-1E+10	1	-1E+10	1	-1E+10	1
4901784	12	C	11/02/2015	10:47	-129.990	46.179	0	198.00	0	7.5120	0	33.8070	0	26.411	0	196.277	0	150.0	4	51.3	4	-1E+10	1	-1E+10	1	-1E+10	1	-1E+10	1	-1E+10	1	-1E+10	1
4901784	12	C	11/02/2015	10:47	-129.990	46.179	0	199.80	0	7.5020	0	33.8080	0	26.413	0	198.061	0	149.2	4	51.0	4	-1E+10	1	-1E+10	1	-1E+10	1	-1E+10	1	-1E+10	1	-1E+10	1
4901784	12	C	11/02/2015	10:47	-129.990	46.179	0	202.50	0	7.4610	0	33.8150	0	26.424	0	200.736	0	148.8	4	50.8	4	-1E+10	1	-1E+10	1	-1E+10	1	-1E+10	1	-1E+10	1	-1E+10	1
4901784	12	C	11/02/2015	10:47	-129.990	46.179	0	205.20	0	7.4260	0	33.8270	0	26.439	0	203.411	0	149.0	4	50.8	4	-1E+10	1	-1E+10	1	-1E+10	1	-1E+10	1	-1E+10	1	-1E+10	1
4901784	12	C	11/02/2015	10:47	-129.990	46.179	0	206.90	0	7.3670	0	33.8400	0	26.457	0	205.095	0	147.7	4	50.3	4	-1E+10	1	-1E+10	1	-1E+10	1	-1E+10	1	-1E+10	1	-1E+10	1
4901784	12	C	11/02/2015	10:47	-129.990	46.179	0	209.70	0	7.3010	0	33.8460	0	26.471	0	207.870	0	145.8	4	49.6	4	-1E+10	1	-1E+10	1	-1E+10	1	-1E+10	1	-1E+10	1	-1E+10	1
4901784	12	C	11/02/2015	10:47	-129.990	46.179	0	212.50	0	7.2380	0	33.8520	0	26.485	0	210.644	0	145.3	4	49.4	4	-1E+10	1	-1E+10	1	-1E+10	1	-1E+10	1	-1E+10	1	-1E+10	1
4901784	12	C	11/02/2015	10:47	-129.990	46.179	0	214.90	0	7.1580	0	33.8630	0	26.504	0	213.022	0	144.5	4	49.0	4	-1E+10	1	-1E+10	1	-1E+10	1	-1E+10	1	-1E+10	1	-1E+10	1
4901784	12	C	11/02/2015	10:47	-129.990	46.179	0	217.60	0	7.1400	0	33.8600	0	26.505	0	215.697	0	143.8	4	48.8	4	-1E+10	1	-1E+10	1	-1E+10	1	-1E+10	1	-1E+10	1	-1E+10	1
4901784	12	C	11/02/2015	10:47	-129.990	46.179	0	219.90	0	7.0780	0	33.8620	0	26.515	0	217.975	0	142.4	4	48.2	4	-1E+10	1	-1E+10	1	-1E+10	1	-1E+10	1	-1E+10	1	-1E+10	1
4901784	12	C	11/02/2015	10:47	-129.990	46.179	0	222.30	0	7.0040	0	33.8660	0	26.528	0	220.353	0	140.3	4	47.4	4	-1E+10	1	-1E+10	1	-1E+10	1	-1E+10	1	-1E+10	1	-1E+10	1
4901784	12	C	11/02/2015	10:47	-129.990	46.179	0	225.40	0	6.9220	0	33.8730	0	26.545	0	223.424	0	138.9	4	46.8	4	-1E+10	1	-1E+10	1	-1E+10	1	-1E+10	1	-1E+10	1	-1E+10	1
4901784	12	C	11/02/2015	10:47	-129.990	46.179	0	227.80	0	6.8950	0	33.8730	0	26.548	0	225.802	0	138.1	4	46.6	4	-1E+10	1	-1E+10	1	-1E+10	1	-1E+10	1	-1E+10	1	-1E+10	1
4901784	12	C	11/02/2015	10:47	-129.990	46.179	0	230.30	0	6.8390	0	33.8760	0	26.558	0	228.278	0	136.9	4	46.1	4	-1E+10	1	-1E+10	1	-1E+10	1	-1E+10	1	-1E+10	1	-1E+10	1
4901784	12	C	11/02/2015	10:47	-129.990	46.179	0	232.70	0	6.8110	0	33.8770	0	26.563	0	230.656	0	137.1	4	46.2	4	-1E+10	1	-1E+10	1	-1E+10	1	-1E+10	1	-1E+10	1	-1E+10	1
4901784	12	C	11/02/2015	10:47	-129.990	46.179	0	235.20	0	6.7680	0	33.8760	0	26.568	0	233.133	0	137.9	4	46.3	4	-1E+10	1	-1E+10	1	-1E+10	1	-1E+10	1	-1E+10	1	-1E+10	1
4901784	12	C	11/02/2015	10:47	-129.990	46.179	0	237.70	0	6.7370	0	33.8730	0	26.570	0	235.609	0	138.1	4	46.4	4	-1E+10	1	-1E+10	1	-1E+10	1	-1E+10	1	-1E+10	1	-1E+10	1
4901784	12	C	11/02/2015	10:47	-129.990	46.179	0	240.20	0	6.6530	0	33.8740	0	26.582	0	238.086	0	138.2	4	46.3	4	-1E+10	1	-1E+10	1	-1E+10	1	-1E+10	1	-1E+10	1	-1E+10	1
4901784	12	C	11/02/2015	10:47	-129.990	46.179	0	242.70	0	6.6160	0	33.8730	0	26.586	0	240.562	0	137.7	4	46.1	4	-1E+10	1	-1E+10	1	-1E+10	1	-1E+10	1	-1E+10	1	-1E+10	1
4901784	12	C	11/02/2015	10:47	-129.990	46.179	0	245.30	0	6.5810	0	33.8740	0	26.591	0	243.138	0	136.4	4	45.6	4	-1E+10	1	-1E+10	1	-1E+10	1	-1E+10	1	-1E+10	1	-1E+10	1
4901784	12	C	11/02/2015	10:47	-129.990	46.179	0	247.90	0	6.5340	0	33.8740	0	26.597	0	245.713	0	134.7	4	45.0	4	-1E+10	1	-1E+10	1	-1E+10	1	-1E+10	1	-1E+10	1	-1E+10	1
4901784	12	C	11/02/2015	10:47	-129.990	46.179	0	249.70	0	6.5110	0	33.8770	0	26.603	0	247.497	0	133.6	4	44.6	4	-1E+10	1	-1E+10	1	-1E+10	1	-1E+10	1	-1E+10	1	-1E+10	1
4901784	12	C	11/02/2015	10:47	-129.990	46.179	0	252.30	0	6.4790	0	33.8780	0	26.608	0	250.072	0	131.9	4	44.1	4	-1E+10	1	-1E+10	1	-1E+10	1	-1E+10	1	-1E+10	1	-1E+10	1
4901784	12	C	11/02/2015	10:47	-129.990	46.179	0	254.90	0	6.4340	0	33.8800	0	26.615	0	252.647	0	130.0	4	43.4	4	-1E+10	1	-1E+10	1	-1E+10	1	-1E+10	1	-1E+10	1	-1E+10	1
4901784	12	C	11/02/2015	10:47	-129.990	46.179	0	257.50	0	6.4120	0	33.8820	0	26.620	0	255.223	0	128.7	4	42.9	4	-1E+10	1	-1E+10	1	-1E+10	1	-1E+10	1	-1E+10	1	-1E+10	1
4901784	12	C	11/02/2015	10:47	-129.990	46.179	0	260.10	0	6.3840	0	33.8830	0	26.624	0	257.798	0	127.7	4	42.5	4	-1E+10	1	-1E+10	1	-1E+10	1	-1E+10	1	-1E+10	1	-1E+10	1
4901784	12	C	11/02/2015	10:47	-129.990	46.179	0	262.70	0	6.3690	0	33.8840	0	26.627	0	260.374	0	126.4	4	42.1	4	-1E+10	1	-1E+10	1	-1E+10	1	-1E+10	1	-1E+10	1	-1E+10	1
4901784	12	C	11/02/2015	10:47	-129.990	46.179	0	265.30	0	6.3550	0	33.8840	0	26.629	0	262.949	0	124.9	4	41.6	4	-1E+10	1	-1E+10	1	-1E+10	1	-1E+10	1	-1E+10	1	-1E+10	1
4901784	12	C	11/02/2015	10:47	-129.990	46.179	0	267.10	0	6.3440	0	33.8840	0	26.630	0	264.732	0	123.8	4	41.2	4	-1E+10	1	-1E+10	1	-1E+10	1	-1E+10	1	-1E+10	1	-1E+10	1
4901784	12	C	11/02/2015	10:47	-129.990	46.179	0	269.70	0	6.3130	0	33.8840	0	26.634	0	267.307	0	121.3	4	40.4	4	-1E+10	1	-1E+10	1	-1E+10	1	-1E+10	1	-1E+10	1	-1E+10	1
4901784	12	C	11/02/2015	10:47	-129.990	46.179	0	272.40	0	6.2470	0	33.8890	0	26.647	0	269.981	0	118.3	4	39.3	4	-1E+10	1	-1E+10	1	-1E+10	1	-1E+10	1	-1E+10	1	-1E+10	1
4901784	12	C	11/02/2015	10:47	-129.990	46.179	0	275.10	0	6.2310	0	33.8940	0	26.653	0	272.656	0	117.0	4	38.9	4	-1E+10	1	-1E+10	1	-1E+10	1	-1E+10	1	-1E+10	1	-1E+10	1
4901784	12	C	11/02/2015	10:47	-129.990	46.179	0	277.80	0	6.1930	0	33.8920	0	26.656	0	275.330	0	116.7	4	38.7	4	-1E+10	1	-1E+10	1	-1E+10	1	-1E+10	1	-1E+10	1	-1E+10	1
4901784	12	C	11/02/2015	10:47	-129.990	46.179	0	279.60	0	6.1640	0	33.8910	0	26.659	0	277.113	0	116.0	4	38.5	4	-1E+10	1	-1E+10	1	-1E+10	1	-1E+10	1	-1E+10	1	-1E+10	1
4901784	12	C	11/02/2015	10:47	-129.990	46.179	0	282.30	0	6.1220	0	33.8910	0	26.664	0	279.787	0	114.3	4	37.9	4	-1E+10	1	-1E+10	1	-1E+10	1	-1E+10	1	-1E+10	1	-1E+10	1
4901784	12	C	11/02/2015	10:47	-129.990	46.179	0	285.00	0	6.0590	0	33.8940	0	26.675	0	282.461	0	112.4	4	37.2	4	-1E+10	1	-1E+10	1	-1E+10	1	-1E+10	1	-1E+10	1	-1E+10	1
4901784	12	C	11/02/2015	10:47	-129.990	46.179	0	287.60	0	6.0300	0	33.8940	0	26.678	0	285.036	0	110.9	4	36.7	4	-1E+10	1	-1E+10	1	-1E+10	1	-1E+10	1	-1E+10	1	-1E+10	1
4901784	12	C	11/02/2015	10:47	-129.990	46.179	0	290.40	0	6.0030	0	33.8940	0	26.682	0	287.809	0	109.3	4	36.1	4	-1E+10	1	-1E+10	1	-1E+10	1	-1E+10	1	-1E+10	1	-1E+10	1
4901784	12	C	11/02/2015	10:47	-129.990	46.179	0	292.30	0	5.9750	0	33.8960	0	26.687	0	289.691	0	108.1	4	35.7	4	-1E+10	1	-1E+10	1	-1E+10	1	-1E+10	1	-1E+10	1	-1E+10	1
4901784	12	C	11/02/2015	10:47	-129.990	46.179	0	295.00	0	5.9340	0	33.8980	0	26.693	0	292.365	0	106.5	4	35.1	4	-1E+10	1	-1E+10	1	-1E+10	1	-1E+10	1	-1E+10	1	-1E+10	1
4901784	12	C	11/02/2015	10:47	-129.990	46.179	0	297.80	0	5.9170	0	33.8970	0	26.695	0	295.138	0	105.0	4	34.6	4	-1E+10	1	-1E+10	1	-1E+10	1	-1E+10	1	-1E+10	1	-1E+10	1
4901784	12	C	11/02/2015	10:47	-129.990	46.179	0	299.60	0	5.8980	0	33.8980	0	26.698	0	296.920	0	103.9	4	34.2	4	-1E+10	1	-1E+10	1	-1E+10	1	-1E+10	1	-1E+10	1	-1E+10	1
4901784	12	C	11/02/2015	10:47	-129.990	46.179	0	302.40	0	5.8780	0	33.8990	0	26.701	0	299.693	0	101.2	4	33.3	4	-1E+10	1	-1E+10	1	-1E+10	1	-1E+10	1	-1E+10	1	-1E+10	1
4901784	12	C	11/02/2015	10:47	-129.990	46.179	0	305.20	0	5.8400	0	33.9020	0	26.708	0	302.466	0	97.5	4	32.1	4	-1E+10	1	-1E+10	1	-1E+10	1	-1E+10	1	-1E+10	1	-1E+10	1
4901784	12	C	11/02/2015	10:47	-129.990	46.179	0	307.00	0	5.8350	0	33.9040	0	26.710	0	304.249	0	94.6	4	31.1	4	-1E+10	1	-1E+10	1	-1E+10	1	-1E+10	1	-1E+10	1	-1E+10	1
4901784	12	C	11/02/2015	10:47	-129.990	46.179	0	309.70	0	5.8870	0	33.9190	0	26.716	0	306.923	0	90.7	4	29.9	4	-1E+10	1	-1E+10	1	-1E+10	1	-1E+10	1	-1E+10	1	-1E+10	1
4901784	12	C	11/02/2015	10:47	-129.990	46.179	0	312.40	0	5.8660	0	33.9210	0	26.720	0	309.596	0	89.4	4	29.4	4	-1E+10	1	-1E+10	1	-1E+10	1	-1E+10	1	-1E+10	1	-1E+10	1
4901784	12	C	11/02/2015	10:47	-129.990	46.179	0	315.20	0	5.8590	0	33.9230	0	26.723	0	312.369	0	88.5	4	29.1	4	-1E+10	1	-1E+10	1	-1E+10	1	-1E+10	1	-1E+10	1	-1E+10	1
4901784	12	C	11/02/2015	10:47	-129.990	46.179	0	318.00	0	5.8450	0	33.9230	0	26.724	0	315.142	0	87.6	4	28.8	4	-1E+10	1	-1E+10	1	-1E+10	1	-1E+10	1	-1E+10	1	-1E+10	1
4901784	12	C	11/02/2015	10:47	-129.990	46.179	0	319.80	0	5.8300	0	33.9230	0	26.726	0	316.924	0	86.6	4	28.5	4	-1E+10	1	-1E+10	1	-1E+10	1	-1E+10	1	-1E+10	1	-1E+10	1
4901784	12	C	11/02/2015	10:47	-129.990	46.179	0	322.60	0	5.8410	0	33.9270	0	26.728	0	319.697	0	85.0	4	28.0	4	-1E+10	1	-1E+10	1	-1E+10	1	-1E+10	1	-1E+10	1	-1E+10	1
4901784	12	C	11/02/2015	10:47	-129.990	46.179	0	325.30	0	5.8480	0	33.9300	0	26.730	0	322.371	0	84.0	4	27.7	4	-1E+10	1	-1E+10	1	-1E+10	1	-1E+10	1	-1E+10	1	-1E+10	1
4901784	12	C	11/02/2015	10:47	-129.990	46.179	0	327.20	0	5.8470	0	33.9290	0	26.729	0	324.252	0	83.5	4	27.5	4	-1E+10	1	-1E+10	1	-1E+10	1	-1E+10	1	-1E+10	1	-1E+10	1
4901784	12	C	11/02/2015	10:47	-129.990	46.179	0	329.90	0	5.8010	0	33.9290	0	26.735	0	326.925	0	82.9	4	27.3	4	-1E+10	1	-1E+10	1	-1E+10	1	-1E+10	1	-1E+10	1	-1E+10	1
4901784	12	C	11/02/2015	10:47	-129.990	46.179	0	332.60	0	5.7540	0	33.9310	0	26.742	0	329.599	0	82.4	4	27.1	4	-1E+10	1	-1E+10	1	-1E+10	1	-1E+10	1	-1E+10	1	-1E+10	1
4901784	12	C	11/02/2015	10:47	-129.990	46.179	0	335.30	0	5.7280	0	33.9310	0	26.745	0	332.272	0	82.3	4	27.0	4	-1E+10	1	-1E+10	1	-1E+10	1	-1E+10	1	-1E+10	1	-1E+10	1
4901784	12	C	11/02/2015	10:47	-129.990	46.179	0	338.00	0	5.7020	0	33.9290	0	26.747	0	334.946	0	82.2	4	27.0	4	-1E+10	1	-1E+10	1	-1E+10	1	-1E+10	1	-1E+10	1	-1E+10	1
4901784	12	C	11/02/2015	10:47	-129.990	46.179	0	339.80	0	5.6980	0	33.9280	0	26.747	0	336.728	0	82.1	4	26.9	4	-1E+10	1	-1E+10	1	-1E+10	1	-1E+10	1	-1E+10	1	-1E+10	1
4901784	12	C	11/02/2015	10:47	-129.990	46.179	0	342.50	0	5.6210	0	33.9270	0	26.755	0	339.402	0	82.0	4	26.8	4	-1E+10	1	-1E+10	1	-1E+10	1	-1E+10	1	-1E+10	1	-1E+10	1
4901784	12	C	11/02/2015	10:47	-129.990	46.179	0	345.20	0	5.5760	0	33.9270	0	26.761	0	342.075	0	81.6	4	26.7	4	-1E+10	1	-1E+10	1	-1E+10	1	-1E+10	1	-1E+10	1	-1E+10	1
4901784	12	C	11/02/2015	10:47	-129.990	46.179	0	347.00	0	5.5720	0	33.9260	0	26.760	0	343.857	0	81.3	4	26.6	4	-1E+10	1	-1E+10	1	-1E+10	1	-1E+10	1	-1E+10	1	-1E+10	1
4901784	12	C	11/02/2015	10:47	-129.990	46.179	0	349.70	0	5.5530	0	33.9280	0	26.764	0	346.530	0	80.7	4	26.4	4	-1E+10	1	-1E+10	1	-1E+10	1	-1E+10	1	-1E+10	1	-1E+10	1
4901784	12	C	11/02/2015	10:47	-129.990	46.179	0	353.00	0	5.5390	0	33.9280	0	26.766	0	349.798	0	79.7	4	26.1	4	-1E+10	1	-1E+10	1	-1E+10	1	-1E+10	1	-1E+10	1	-1E+10	1
4901784	12	C	11/02/2015	10:47	-129.990	46.179	0	354.90	0	5.5290	0	33.9280	0	26.767	0	351.679	0	79.0	4	25.8	4	-1E+10	1	-1E+10	1	-1E+10	1	-1E+10	1	-1E+10	1	-1E+10	1
4901784	12	C	11/02/2015	10:47	-129.990	46.179	0	357.20	0	5.5210	0	33.9280	0	26.768	0	353.956	0	77.8	4	25.4	4	-1E+10	1	-1E+10	1	-1E+10	1	-1E+10	1	-1E+10	1	-1E+10	1
4901784	12	C	11/02/2015	10:47	-129.990	46.179	0	360.40	0	5.4710	0	33.9310	0	26.776	0	357.124	0	76.1	4	24.8	4	-1E+10	1	-1E+10	1	-1E+10	1	-1E+10	1	-1E+10	1	-1E+10	1
4901784	12	C	11/02/2015	10:47	-129.990	46.179	0	362.90	0	5.4230	0	33.9320	0	26.783	0	359.599	0	74.9	4	24.4	4	-1E+10	1	-1E+10	1	-1E+10	1	-1E+10	1	-1E+10	1	-1E+10	1
4901784	12	C	11/02/2015	10:47	-129.990	46.179	0	365.40	0	5.4300	0	33.9350	0	26.784	0	362.074	0	72.9	4	23.8	4	-1E+10	1	-1E+10	1	-1E+10	1	-1E+10	1	-1E+10	1	-1E+10	1
4901784	12	C	11/02/2015	10:47	-129.990	46.179	0	367.80	0	5.4580	0	33.9420	0	26.787	0	364.450	0	72.2	4	23.6	4	-1E+10	1	-1E+10	1	-1E+10	1	-1E+10	1	-1E+10	1	-1E+10	1
4901784	12	C	11/02/2015	10:47	-129.990	46.179	0	370.20	0	5.4110	0	33.9410	0	26.792	0	366.827	0	72.2	4	23.5	4	-1E+10	1	-1E+10	1	-1E+10	1	-1E+10	1	-1E+10	1	-1E+10	1
4901784	12	C	11/02/2015	10:47	-129.990	46.179	0	372.70	0	5.3900	0	33.9410	0	26.794	0	369.302	0	71.8	4	23.4	4	-1E+10	1	-1E+10	1	-1E+10	1	-1E+10	1	-1E+10	1	-1E+10	1
4901784	12	C	11/02/2015	10:47	-129.990	46.179	0	375.20	0	5.3530	0	33.9380	0	26.796	0	371.776	0	70.9	4	23.1	4	-1E+10	1	-1E+10	1	-1E+10	1	-1E+10	1	-1E+10	1	-1E+10	1
4901784	12	C	11/02/2015	10:47	-129.990	46.179	0	377.60	0	5.3160	0	33.9400	0	26.802	0	374.152	0	69.6	4	22.6	4	-1E+10	1	-1E+10	1	-1E+10	1	-1E+10	1	-1E+10	1	-1E+10	1
4901784	12	C	11/02/2015	10:47	-129.990	46.179	0	380.20	0	5.3170	0	33.9420	0	26.803	0	376.726	0	67.9	4	22.1	4	-1E+10	1	-1E+10	1	-1E+10	1	-1E+10	1	-1E+10	1	-1E+10	1
4901784	12	C	11/02/2015	10:47	-129.990	46.179	0	382.80	0	5.3430	0	33.9520	0	26.808	0	379.300	0	65.5	4	21.3	4	-1E+10	1	-1E+10	1	-1E+10	1	-1E+10	1	-1E+10	1	-1E+10	1
4901784	12	C	11/02/2015	10:47	-129.990	46.179	0	384.60	0	5.3430	0	33.9560	0	26.812	0	381.082	0	64.9	4	21.1	4	-1E+10	1	-1E+10	1	-1E+10	1	-1E+10	1	-1E+10	1	-1E+10	1
4901784	12	C	11/02/2015	10:47	-129.990	46.179	0	387.10	0	5.3370	0	33.9570	0	26.813	0	383.557	0	64.7	4	21.0	4	-1E+10	1	-1E+10	1	-1E+10	1	-1E+10	1	-1E+10	1	-1E+10	1
4901784	12	C	11/02/2015	10:47	-129.990	46.179	0	389.60	0	5.3260	0	33.9560	0	26.814	0	386.032	0	64.4	4	21.0	4	-1E+10	1	-1E+10	1	-1E+10	1	-1E+10	1	-1E+10	1	-1E+10	1
4901784	12	C	11/02/2015	10:47	-129.990	46.179	0	392.20	0	5.3000	0	33.9570	0	26.817	0	388.605	0	64.2	4	20.9	4	-1E+10	1	-1E+10	1	-1E+10	1	-1E+10	1	-1E+10	1	-1E+10	1
4901784	12	C	11/02/2015	10:47	-129.990	46.179	0	394.70	0	5.2720	0	33.9560	0	26.820	0	391.080	0	64.3	4	20.9	4	-1E+10	1	-1E+10	1	-1E+10	1	-1E+10	1	-1E+10	1	-1E+10	1
4901784	12	C	11/02/2015	10:47	-129.990	46.179	0	397.30	0	5.2300	0	33.9550	0	26.824	0	393.654	0	64.4	4	20.9	4	-1E+10	1	-1E+10	1	-1E+10	1	-1E+10	1	-1E+10	1	-1E+10	1
4901784	12	C	11/02/2015	10:47	-129.990	46.179	0	399.90	0	5.2050	0	33.9530	0	26.825	0	396.227	0	64.5	4	20.9	4	-1E+10	1	-1E+10	1	-1E+10	1	-1E+10	1	-1E+10	1	-1E+10	1
4901784	12	C	11/02/2015	10:47	-129.990	46.179	0	402.50	0	5.1590	0	33.9520	0	26.830	0	398.801	0	64.2	4	20.8	4	-1E+10	1	-1E+10	1	-1E+10	1	-1E+10	1	-1E+10	1	-1E+10	1
4901784	12	C	11/02/2015	10:47	-129.990	46.179	0	405.10	0	5.1290	0	33.9550	0	26.836	0	401.375	0	63.6	4	20.6	4	-1E+10	1	-1E+10	1	-1E+10	1	-1E+10	1	-1E+10	1	-1E+10	1
4901784	12	C	11/02/2015	10:47	-129.990	46.179	0	407.80	0	5.1110	0	33.9550	0	26.838	0	404.047	0	63.4	4	20.5	4	-1E+10	1	-1E+10	1	-1E+10	1	-1E+10	1	-1E+10	1	-1E+10	1
4901784	12	C	11/02/2015	10:47	-129.990	46.179	0	410.50	0	5.1090	0	33.9560	0	26.839	0	406.720	0	63.1	4	20.4	4	-1E+10	1	-1E+10	1	-1E+10	1	-1E+10	1	-1E+10	1	-1E+10	1
4901784	12	C	11/02/2015	10:47	-129.990	46.179	0	412.20	0	5.0960	0	33.9560	0	26.840	0	408.402	0	63.0	4	20.4	4	-1E+10	1	-1E+10	1	-1E+10	1	-1E+10	1	-1E+10	1	-1E+10	1
4901784	12	C	11/02/2015	10:47	-129.990	46.179	0	414.90	0	5.0800	0	33.9550	0	26.841	0	411.075	0	62.5	4	20.2	4	-1E+10	1	-1E+10	1	-1E+10	1	-1E+10	1	-1E+10	1	-1E+10	1
4901784	12	C	11/02/2015	10:47	-129.990	46.179	0	417.60	0	5.0870	0	33.9570	0	26.842	0	413.747	0	62.0	4	20.0	4	-1E+10	1	-1E+10	1	-1E+10	1	-1E+10	1	-1E+10	1	-1E+10	1
4901784	12	C	11/02/2015	10:47	-129.990	46.179	0	420.30	0	5.0620	0	33.9580	0	26.846	0	416.420	0	61.6	4	19.9	4	-1E+10	1	-1E+10	1	-1E+10	1	-1E+10	1	-1E+10	1	-1E+10	1
4901784	12	C	11/02/2015	10:47	-129.990	46.179	0	422.90	0	5.0580	0	33.9580	0	26.846	0	418.993	0	61.2	4	19.8	4	-1E+10	1	-1E+10	1	-1E+10	1	-1E+10	1	-1E+10	1	-1E+10	1
4901784	12	C	11/02/2015	10:47	-129.990	46.179	0	425.20	0	5.0520	0	33.9590	0	26.848	0	421.269	0	60.8	4	19.7	4	-1E+10	1	-1E+10	1	-1E+10	1	-1E+10	1	-1E+10	1	-1E+10	1
4901784	12	C	11/02/2015	10:47	-129.990	46.179	0	427.80	0	5.0290	0	33.9600	0	26.851	0	423.843	0	60.1	4	19.4	4	-1E+10	1	-1E+10	1	-1E+10	1	-1E+10	1	-1E+10	1	-1E+10	1
4901784	12	C	11/02/2015	10:47	-129.990	46.179	0	430.20	0	5.0100	0	33.9600	0	26.854	0	426.218	0	59.3	4	19.2	4	-1E+10	1	-1E+10	1	-1E+10	1	-1E+10	1	-1E+10	1	-1E+10	1
4901784	12	C	11/02/2015	10:47	-129.990	46.179	0	432.50	0	4.9940	0	33.9640	0	26.859	0	428.494	0	58.4	4	18.8	4	-1E+10	1	-1E+10	1	-1E+10	1	-1E+10	1	-1E+10	1	-1E+10	1
4901784	12	C	11/02/2015	10:47	-129.990	46.179	0	434.80	0	4.9880	0	33.9670	0	26.862	0	430.771	0	57.5	4	18.5	4	-1E+10	1	-1E+10	1	-1E+10	1	-1E+10	1	-1E+10	1	-1E+10	1
4901784	12	C	11/02/2015	10:47	-129.990	46.179	0	437.20	0	4.9790	0	33.9690	0	26.864	0	433.146	0	56.7	4	18.3	4	-1E+10	1	-1E+10	1	-1E+10	1	-1E+10	1	-1E+10	1	-1E+10	1
4901784	12	C	11/02/2015	10:47	-129.990	46.179	0	440.30	0	4.9480	0	33.9720	0	26.870	0	436.214	0	55.7	4	18.0	4	-1E+10	1	-1E+10	1	-1E+10	1	-1E+10	1	-1E+10	1	-1E+10	1
4901784	12	C	11/02/2015	10:47	-129.990	46.179	0	442.70	0	4.9380	0	33.9740	0	26.873	0	438.589	0	55.1	4	17.8	4	-1E+10	1	-1E+10	1	-1E+10	1	-1E+10	1	-1E+10	1	-1E+10	1
4901784	12	C	11/02/2015	10:47	-129.990	46.179	0	445.10	0	4.9300	0	33.9750	0	26.875	0	440.964	0	54.3	4	17.5	4	-1E+10	1	-1E+10	1	-1E+10	1	-1E+10	1	-1E+10	1	-1E+10	1
4901784	12	C	11/02/2015	10:47	-129.990	46.179	0	447.50	0	4.9110	0	33.9770	0	26.878	0	443.340	0	53.4	4	17.2	4	-1E+10	1	-1E+10	1	-1E+10	1	-1E+10	1	-1E+10	1	-1E+10	1
4901784	12	C	11/02/2015	10:47	-129.990	46.179	0	450.00	0	4.8880	0	33.9820	0	26.885	0	445.814	0	52.6	4	17.0	4	-1E+10	1	-1E+10	1	-1E+10	1	-1E+10	1	-1E+10	1	-1E+10	1
4901784	12	C	11/02/2015	10:47	-129.990	46.179	0	452.40	0	4.8630	0	33.9850	0	26.890	0	448.189	0	52.1	4	16.8	4	-1E+10	1	-1E+10	1	-1E+10	1	-1E+10	1	-1E+10	1	-1E+10	1
4901784	12	C	11/02/2015	10:47	-129.990	46.179	0	454.90	0	4.8620	0	33.9860	0	26.891	0	450.663	0	51.7	4	16.6	4	-1E+10	1	-1E+10	1	-1E+10	1	-1E+10	1	-1E+10	1	-1E+10	1
4901784	12	C	11/02/2015	10:47	-129.990	46.179	0	457.40	0	4.8670	0	33.9870	0	26.891	0	453.137	0	51.1	4	16.5	4	-1E+10	1	-1E+10	1	-1E+10	1	-1E+10	1	-1E+10	1	-1E+10	1
4901784	12	C	11/02/2015	10:47	-129.990	46.179	0	459.90	0	4.8500	0	33.9880	0	26.894	0	455.611	0	50.4	4	16.2	4	-1E+10	1	-1E+10	1	-1E+10	1	-1E+10	1	-1E+10	1	-1E+10	1
4901784	12	C	11/02/2015	10:47	-129.990	46.179	0	462.40	0	4.8420	0	33.9900	0	26.897	0	458.085	0	49.5	4	15.9	4	-1E+10	1	-1E+10	1	-1E+10	1	-1E+10	1	-1E+10	1	-1E+10	1
4901784	12	C	11/02/2015	10:47	-129.990	46.179	0	464.90	0	4.8260	0	33.9950	0	26.902	0	460.558	0	48.6	4	15.6	4	-1E+10	1	-1E+10	1	-1E+10	1	-1E+10	1	-1E+10	1	-1E+10	1
4901784	12	C	11/02/2015	10:47	-129.990	46.179	0	467.40	0	4.8230	0	33.9970	0	26.904	0	463.032	0	47.7	4	15.3	4	-1E+10	1	-1E+10	1	-1E+10	1	-1E+10	1	-1E+10	1	-1E+10	1
4901784	12	C	11/02/2015	10:47	-129.990	46.179	0	470.00	0	4.8130	0	34.0010	0	26.909	0	465.605	0	46.8	4	15.0	4	-1E+10	1	-1E+10	1	-1E+10	1	-1E+10	1	-1E+10	1	-1E+10	1
4901784	12	C	11/02/2015	10:47	-129.990	46.179	0	472.60	0	4.8040	0	34.0060	0	26.914	0	468.178	0	46.2	4	14.8	4	-1E+10	1	-1E+10	1	-1E+10	1	-1E+10	1	-1E+10	1	-1E+10	1
4901784	12	C	11/02/2015	10:47	-129.990	46.179	0	475.20	0	4.8020	0	34.0070	0	26.915	0	470.751	0	45.8	4	14.7	4	-1E+10	1	-1E+10	1	-1E+10	1	-1E+10	1	-1E+10	1	-1E+10	1
4901784	12	C	11/02/2015	10:47	-129.990	46.179	0	477.70	0	4.7990	0	34.0070	0	26.915	0	473.224	0	45.3	4	14.5	4	-1E+10	1	-1E+10	1	-1E+10	1	-1E+10	1	-1E+10	1	-1E+10	1
4901784	12	C	11/02/2015	10:47	-129.990	46.179	0	480.30	0	4.7880	0	34.0110	0	26.919	0	475.797	0	44.8	4	14.4	4	-1E+10	1	-1E+10	1	-1E+10	1	-1E+10	1	-1E+10	1	-1E+10	1
4901784	12	C	11/02/2015	10:47	-129.990	46.179	0	482.80	0	4.7770	0	34.0130	0	26.922	0	478.271	0	44.3	4	14.2	4	-1E+10	1	-1E+10	1	-1E+10	1	-1E+10	1	-1E+10	1	-1E+10	1
4901784	12	C	11/02/2015	10:47	-129.990	46.179	0	485.40	0	4.7710	0	34.0160	0	26.925	0	480.843	0	43.9	4	14.1	4	-1E+10	1	-1E+10	1	-1E+10	1	-1E+10	1	-1E+10	1	-1E+10	1
4901784	12	C	11/02/2015	10:47	-129.990	46.179	0	487.90	0	4.7680	0	34.0190	0	26.928	0	483.317	0	43.5	4	14.0	4	-1E+10	1	-1E+10	1	-1E+10	1	-1E+10	1	-1E+10	1	-1E+10	1
4901784	12	C	11/02/2015	10:47	-129.990	46.179	0	489.60	0	4.7670	0	34.0190	0	26.928	0	484.999	0	43.3	4	13.9	4	-1E+10	1	-1E+10	1	-1E+10	1	-1E+10	1	-1E+10	1	-1E+10	1
4901784	12	C	11/02/2015	10:47	-129.990	46.179	0	492.20	0	4.7650	0	34.0200	0	26.929	0	487.572	0	42.9	4	13.8	4	-1E+10	1	-1E+10	1	-1E+10	1	-1E+10	1	-1E+10	1	-1E+10	1
4901784	12	C	11/02/2015	10:47	-129.990	46.179	0	494.70	0	4.7540	0	34.0220	0	26.932	0	490.045	0	42.4	4	13.6	4	-1E+10	1	-1E+10	1	-1E+10	1	-1E+10	1	-1E+10	1	-1E+10	1
4901784	12	C	11/02/2015	10:47	-129.990	46.179	0	497.20	0	4.7480	0	34.0240	0	26.934	0	492.519	0	41.9	4	13.4	4	-1E+10	1	-1E+10	1	-1E+10	1	-1E+10	1	-1E+10	1	-1E+10	1
4901784	12	C	11/02/2015	10:47	-129.990	46.179	0	499.60	0	4.7430	0	34.0250	0	26.936	0	494.893	0	41.2	4	13.2	4	-1E+10	1	-1E+10	1	-1E+10	1	-1E+10	1	-1E+10	1	-1E+10	1
4901784	12	C	11/02/2015	10:47	-129.990	46.179	0	504.50	0	4.7210	0	34.0310	0	26.943	0	499.741	0	39.1	4	12.6	4	-1E+10	1	-1E+10	1	-1E+10	1	-1E+10	1	-1E+10	1	-1E+10	1
4901784	12	C	11/02/2015	10:47	-129.990	46.179	0	509.40	0	4.6860	0	34.0410	0	26.955	0	504.589	0	37.1	4	11.9	4	-1E+10	1	-1E+10	1	-1E+10	1	-1E+10	1	-1E+10	1	-1E+10	1
4901784	12	C	11/02/2015	10:47	-129.990	46.179	0	514.30	0	4.6480	0	34.0500	0	26.966	0	509.437	0	36.5	4	11.7	4	-1E+10	1	-1E+10	1	-1E+10	1	-1E+10	1	-1E+10	1	-1E+10	1
4901784	12	C	11/02/2015	10:47	-129.990	46.179	0	519.30	0	4.6080	0	34.0480	0	26.969	0	514.383	0	36.1	4	11.5	4	-1E+10	1	-1E+10	1	-1E+10	1	-1E+10	1	-1E+10	1	-1E+10	1
4901784	12	C	11/02/2015	10:47	-129.990	46.179	0	524.30	0	4.5890	0	34.0500	0	26.973	0	519.330	0	35.6	4	11.4	4	-1E+10	1	-1E+10	1	-1E+10	1	-1E+10	1	-1E+10	1	-1E+10	1
4901784	12	C	11/02/2015	10:47	-129.990	46.179	0	529.40	0	4.5670	0	34.0510	0	26.976	0	524.375	0	34.9	4	11.1	4	-1E+10	1	-1E+10	1	-1E+10	1	-1E+10	1	-1E+10	1	-1E+10	1
4901784	12	C	11/02/2015	10:47	-129.990	46.179	0	534.50	0	4.5250	0	34.0560	0	26.984	0	529.420	0	33.9	4	10.8	4	-1E+10	1	-1E+10	1	-1E+10	1	-1E+10	1	-1E+10	1	-1E+10	1
4901784	12	C	11/02/2015	10:47	-129.990	46.179	0	539.70	0	4.4920	0	34.0610	0	26.992	0	534.564	0	33.2	4	10.6	4	-1E+10	1	-1E+10	1	-1E+10	1	-1E+10	1	-1E+10	1	-1E+10	1
4901784	12	C	11/02/2015	10:47	-129.990	46.179	0	544.90	0	4.4760	0	34.0640	0	26.996	0	539.708	0	32.5	4	10.4	4	-1E+10	1	-1E+10	1	-1E+10	1	-1E+10	1	-1E+10	1	-1E+10	1
4901784	12	C	11/02/2015	10:47	-129.990	46.179	0	549.90	0	4.4640	0	34.0680	0	27.001	0	544.653	0	31.9	4	10.2	4	-1E+10	1	-1E+10	1	-1E+10	1	-1E+10	1	-1E+10	1	-1E+10	1
4901784	12	C	11/02/2015	10:47	-129.990	46.179	0	555.10	0	4.4540	0	34.0700	0	27.003	0	549.797	0	31.3	4	10.0	4	-1E+10	1	-1E+10	1	-1E+10	1	-1E+10	1	-1E+10	1	-1E+10	1
4901784	12	C	11/02/2015	10:47	-129.990	46.179	0	560.40	0	4.4470	0	34.0720	0	27.006	0	555.039	0	30.7	4	9.8	4	-1E+10	1	-1E+10	1	-1E+10	1	-1E+10	1	-1E+10	1	-1E+10	1
4901784	12	C	11/02/2015	10:47	-129.990	46.179	0	564.80	0	4.4400	0	34.0750	0	27.009	0	559.391	0	30.3	4	9.7	4	-1E+10	1	-1E+10	1	-1E+10	1	-1E+10	1	-1E+10	1	-1E+10	1
4901784	12	C	11/02/2015	10:47	-129.990	46.179	0	569.30	0	4.4360	0	34.0770	0	27.011	0	563.842	0	30.0	4	9.5	4	-1E+10	1	-1E+10	1	-1E+10	1	-1E+10	1	-1E+10	1	-1E+10	1
4901784	12	C	11/02/2015	10:47	-129.990	46.179	0	574.50	0	4.4230	0	34.0790	0	27.014	0	568.985	0	29.5	4	9.4	4	-1E+10	1	-1E+10	1	-1E+10	1	-1E+10	1	-1E+10	1	-1E+10	1
4901784	12	C	11/02/2015	10:47	-129.990	46.179	0	579.70	0	4.4110	0	34.0810	0	27.017	0	574.128	0	28.8	4	9.2	4	-1E+10	1	-1E+10	1	-1E+10	1	-1E+10	1	-1E+10	1	-1E+10	1
4901784	12	C	11/02/2015	10:47	-129.990	46.179	0	584.90	0	4.4010	0	34.0870	0	27.023	0	579.271	0	28.0	4	8.9	4	-1E+10	1	-1E+10	1	-1E+10	1	-1E+10	1	-1E+10	1	-1E+10	1
4901784	12	C	11/02/2015	10:47	-129.990	46.179	0	590.10	0	4.3870	0	34.0890	0	27.026	0	584.413	0	27.4	4	8.7	4	-1E+10	1	-1E+10	1	-1E+10	1	-1E+10	1	-1E+10	1	-1E+10	1
4901784	12	C	11/02/2015	10:47	-129.990	46.179	0	595.50	0	4.3630	0	34.0950	0	27.033	0	589.754	0	26.7	4	8.5	4	-1E+10	1	-1E+10	1	-1E+10	1	-1E+10	1	-1E+10	1	-1E+10	1
4901784	12	C	11/02/2015	10:47	-129.990	46.179	0	600.00	0	4.3520	0	34.0980	0	27.037	0	594.204	0	26.1	4	8.3	4	-1E+10	1	-1E+10	1	-1E+10	1	-1E+10	1	-1E+10	1	-1E+10	1
4901784	12	C	11/02/2015	10:47	-129.990	46.179	0	604.40	0	4.3320	0	34.1040	0	27.044	0	598.555	0	25.4	4	8.1	4	-1E+10	1	-1E+10	1	-1E+10	1	-1E+10	1	-1E+10	1	-1E+10	1
4901784	12	C	11/02/2015	10:47	-129.990	46.179	0	609.70	0	4.3220	0	34.1080	0	27.048	0	603.796	0	24.6	4	7.8	4	-1E+10	1	-1E+10	1	-1E+10	1	-1E+10	1	-1E+10	1	-1E+10	1
4901784	12	C	11/02/2015	10:47	-129.990	46.179	0	614.90	0	4.3090	0	34.1160	0	27.056	0	608.938	0	23.7	4	7.5	4	-1E+10	1	-1E+10	1	-1E+10	1	-1E+10	1	-1E+10	1	-1E+10	1
4901784	12	C	11/02/2015	10:47	-129.990	46.179	0	620.40	0	4.3040	0	34.1220	0	27.061	0	614.377	0	23.0	4	7.3	4	-1E+10	1	-1E+10	1	-1E+10	1	-1E+10	1	-1E+10	1	-1E+10	1
4901784	12	C	11/02/2015	10:47	-129.990	46.179	0	624.90	0	4.2940	0	34.1260	0	27.065	0	618.826	0	22.4	4	7.1	4	-1E+10	1	-1E+10	1	-1E+10	1	-1E+10	1	-1E+10	1	-1E+10	1
4901784	12	C	11/02/2015	10:47	-129.990	46.179	0	629.50	0	4.2830	0	34.1290	0	27.069	0	623.375	0	21.9	4	7.0	4	-1E+10	1	-1E+10	1	-1E+10	1	-1E+10	1	-1E+10	1	-1E+10	1
4901784	12	C	11/02/2015	10:47	-129.990	46.179	0	634.80	0	4.2790	0	34.1350	0	27.074	0	628.615	0	20.7	4	6.6	4	-1E+10	1	-1E+10	1	-1E+10	1	-1E+10	1	-1E+10	1	-1E+10	1
4901784	12	C	11/02/2015	10:47	-129.990	46.179	0	640.30	0	4.2940	0	34.1460	0	27.081	0	634.053	0	19.6	4	6.2	4	-1E+10	1	-1E+10	1	-1E+10	1	-1E+10	1	-1E+10	1	-1E+10	1
4901784	12	C	11/02/2015	10:47	-129.990	46.179	0	644.90	0	4.2460	0	34.1490	0	27.089	0	638.601	0	18.6	4	5.9	4	-1E+10	1	-1E+10	1	-1E+10	1	-1E+10	1	-1E+10	1	-1E+10	1
4901784	12	C	11/02/2015	10:47	-129.990	46.179	0	650.30	0	4.3360	0	34.1690	0	27.095	0	643.940	0	16.3	4	5.2	4	-1E+10	1	-1E+10	1	-1E+10	1	-1E+10	1	-1E+10	1	-1E+10	1
4901784	12	C	11/02/2015	10:47	-129.990	46.179	0	655.40	0	4.3590	0	34.1850	0	27.106	0	648.982	0	15.4	4	4.9	4	-1E+10	1	-1E+10	1	-1E+10	1	-1E+10	1	-1E+10	1	-1E+10	1
4901784	12	C	11/02/2015	10:47	-129.990	46.179	0	660.10	0	4.3570	0	34.1890	0	27.109	0	653.629	0	15.1	4	4.8	4	-1E+10	1	-1E+10	1	-1E+10	1	-1E+10	1	-1E+10	1	-1E+10	1
4901784	12	C	11/02/2015	10:47	-129.990	46.179	0	664.90	0	4.3360	0	34.1930	0	27.114	0	658.374	0	14.8	4	4.7	4	-1E+10	1	-1E+10	1	-1E+10	1	-1E+10	1	-1E+10	1	-1E+10	1
4901784	12	C	11/02/2015	10:47	-129.990	46.179	0	669.70	0	4.3210	0	34.1980	0	27.120	0	663.120	0	14.5	4	4.6	4	-1E+10	1	-1E+10	1	-1E+10	1	-1E+10	1	-1E+10	1	-1E+10	1
4901784	12	C	11/02/2015	10:47	-129.990	46.179	0	674.50	0	4.3050	0	34.2030	0	27.126	0	667.865	0	14.3	4	4.6	4	-1E+10	1	-1E+10	1	-1E+10	1	-1E+10	1	-1E+10	1	-1E+10	1
4901784	12	C	11/02/2015	10:47	-129.990	46.179	0	679.40	0	4.2980	0	34.2040	0	27.127	0	672.709	0	14.3	4	4.5	4	-1E+10	1	-1E+10	1	-1E+10	1	-1E+10	1	-1E+10	1	-1E+10	1
4901784	12	C	11/02/2015	10:47	-129.990	46.179	0	684.30	0	4.2750	0	34.2070	0	27.132	0	677.552	0	14.2	4	4.5	4	-1E+10	1	-1E+10	1	-1E+10	1	-1E+10	1	-1E+10	1	-1E+10	1
4901784	12	C	11/02/2015	10:47	-129.990	46.179	0	689.30	0	4.2630	0	34.2080	0	27.134	0	682.495	0	14.0	4	4.5	4	-1E+10	1	-1E+10	1	-1E+10	1	-1E+10	1	-1E+10	1	-1E+10	1
4901784	12	C	11/02/2015	10:47	-129.990	46.179	0	694.30	0	4.2500	0	34.2110	0	27.138	0	687.437	0	13.9	4	4.4	4	-1E+10	1	-1E+10	1	-1E+10	1	-1E+10	1	-1E+10	1	-1E+10	1
4901784	12	C	11/02/2015	10:47	-129.990	46.179	0	699.30	0	4.2350	0	34.2150	0	27.143	0	692.380	0	13.7	4	4.4	4	-1E+10	1	-1E+10	1	-1E+10	1	-1E+10	1	-1E+10	1	-1E+10	1
4901784	12	C	11/02/2015	10:47	-129.990	46.179	0	704.50	0	4.2160	0	34.2180	0	27.147	0	697.519	0	13.6	4	4.3	4	-1E+10	1	-1E+10	1	-1E+10	1	-1E+10	1	-1E+10	1	-1E+10	1
4901784	12	C	11/02/2015	10:47	-129.990	46.179	0	709.50	0	4.1990	0	34.2210	0	27.151	0	702.461	0	13.5	4	4.3	4	-1E+10	1	-1E+10	1	-1E+10	1	-1E+10	1	-1E+10	1	-1E+10	1
4901784	12	C	11/02/2015	10:47	-129.990	46.179	0	714.70	0	4.1860	0	34.2230	0	27.154	0	707.601	0	13.5	4	4.3	4	-1E+10	1	-1E+10	1	-1E+10	1	-1E+10	1	-1E+10	1	-1E+10	1
4901784	12	C	11/02/2015	10:47	-129.990	46.179	0	719.80	0	4.1490	0	34.2220	0	27.157	0	712.642	0	13.8	4	4.4	4	-1E+10	1	-1E+10	1	-1E+10	1	-1E+10	1	-1E+10	1	-1E+10	1
4901784	12	C	11/02/2015	10:47	-129.990	46.179	0	725.00	0	4.0940	0	34.2210	0	27.162	0	717.781	0	14.0	4	4.4	4	-1E+10	1	-1E+10	1	-1E+10	1	-1E+10	1	-1E+10	1	-1E+10	1
4901784	12	C	11/02/2015	10:47	-129.990	46.179	0	730.20	0	4.0660	0	34.2210	0	27.165	0	722.920	0	14.3	4	4.5	4	-1E+10	1	-1E+10	1	-1E+10	1	-1E+10	1	-1E+10	1	-1E+10	1
4901784	12	C	11/02/2015	10:47	-129.990	46.179	0	735.50	0	4.0090	0	34.2180	0	27.169	0	728.158	0	14.5	4	4.6	4	-1E+10	1	-1E+10	1	-1E+10	1	-1E+10	1	-1E+10	1	-1E+10	1
4901784	12	C	11/02/2015	10:47	-129.990	46.179	0	740.60	0	3.9770	0	34.2200	0	27.174	0	733.198	0	14.4	4	4.5	4	-1E+10	1	-1E+10	1	-1E+10	1	-1E+10	1	-1E+10	1	-1E+10	1
4901784	12	C	11/02/2015	10:47	-129.990	46.179	0	745.00	0	3.9730	0	34.2210	0	27.175	0	737.547	0	14.2	4	4.5	4	-1E+10	1	-1E+10	1	-1E+10	1	-1E+10	1	-1E+10	1	-1E+10	1
4901784	12	C	11/02/2015	10:47	-129.990	46.179	0	749.40	0	3.9650	0	34.2270	0	27.181	0	741.895	0	13.9	4	4.4	4	-1E+10	1	-1E+10	1	-1E+10	1	-1E+10	1	-1E+10	1	-1E+10	1
4901784	12	C	11/02/2015	10:47	-129.990	46.179	0	754.80	0	3.9600	0	34.2310	0	27.184	0	747.231	0	13.8	4	4.3	4	-1E+10	1	-1E+10	1	-1E+10	1	-1E+10	1	-1E+10	1	-1E+10	1
4901784	12	C	11/02/2015	10:47	-129.990	46.179	0	760.30	0	3.9280	0	34.2330	0	27.189	0	752.666	0	13.7	4	4.3	4	-1E+10	1	-1E+10	1	-1E+10	1	-1E+10	1	-1E+10	1	-1E+10	1
4901784	12	C	11/02/2015	10:47	-129.990	46.179	0	764.90	0	3.9360	0	34.2390	0	27.193	0	757.211	0	13.4	4	4.2	4	-1E+10	1	-1E+10	1	-1E+10	1	-1E+10	1	-1E+10	1	-1E+10	1
4901784	12	C	11/02/2015	10:47	-129.990	46.179	0	769.50	0	3.9380	0	34.2400	0	27.194	0	761.757	0	13.3	4	4.2	4	-1E+10	1	-1E+10	1	-1E+10	1	-1E+10	1	-1E+10	1	-1E+10	1
4901784	12	C	11/02/2015	10:47	-129.990	46.179	0	775.20	0	3.9410	0	34.2460	0	27.198	0	767.389	0	13.1	4	4.1	4	-1E+10	1	-1E+10	1	-1E+10	1	-1E+10	1	-1E+10	1	-1E+10	1
4901784	12	C	11/02/2015	10:47	-129.990	46.179	0	779.90	0	3.9250	0	34.2490	0	27.202	0	772.033	0	13.2	4	4.2	4	-1E+10	1	-1E+10	1	-1E+10	1	-1E+10	1	-1E+10	1	-1E+10	1
4901784	12	C	11/02/2015	10:47	-129.990	46.179	0	784.50	0	3.8620	0	34.2470	0	27.207	0	776.578	0	13.4	4	4.2	4	-1E+10	1	-1E+10	1	-1E+10	1	-1E+10	1	-1E+10	1	-1E+10	1
4901784	12	C	11/02/2015	10:47	-129.990	46.179	0	790.20	0	3.8040	0	34.2510	0	27.216	0	782.210	0	13.3	4	4.2	4	-1E+10	1	-1E+10	1	-1E+10	1	-1E+10	1	-1E+10	1	-1E+10	1
4901784	12	C	11/02/2015	10:47	-129.990	46.179	0	794.90	0	3.8150	0	34.2590	0	27.221	0	786.853	0	13.0	4	4.1	4	-1E+10	1	-1E+10	1	-1E+10	1	-1E+10	1	-1E+10	1	-1E+10	1
4901784	12	C	11/02/2015	10:47	-129.990	46.179	0	799.80	0	3.8080	0	34.2600	0	27.223	0	791.694	0	13.0	4	4.1	4	-1E+10	1	-1E+10	1	-1E+10	1	-1E+10	1	-1E+10	1	-1E+10	1
4901784	12	C	11/02/2015	10:47	-129.990	46.179	0	804.60	0	3.8080	0	34.2610	0	27.224	0	796.437	0	12.9	4	4.1	4	-1E+10	1	-1E+10	1	-1E+10	1	-1E+10	1	-1E+10	1	-1E+10	1
4901784	12	C	11/02/2015	10:47	-129.990	46.179	0	809.50	0	3.8110	0	34.2630	0	27.225	0	801.278	0	12.8	4	4.0	4	-1E+10	1	-1E+10	1	-1E+10	1	-1E+10	1	-1E+10	1	-1E+10	1
4901784	12	C	11/02/2015	10:47	-129.990	46.179	0	815.20	0	3.7720	0	34.2670	0	27.232	0	806.909	0	12.7	4	4.0	4	-1E+10	1	-1E+10	1	-1E+10	1	-1E+10	1	-1E+10	1	-1E+10	1
4901784	12	C	11/02/2015	10:47	-129.990	46.179	0	820.10	0	3.7660	0	34.2710	0	27.236	0	811.749	0	12.7	4	4.0	4	-1E+10	1	-1E+10	1	-1E+10	1	-1E+10	1	-1E+10	1	-1E+10	1
4901784	12	C	11/02/2015	10:47	-129.990	46.179	0	825.00	0	3.7610	0	34.2720	0	27.237	0	816.590	0	12.7	4	4.0	4	-1E+10	1	-1E+10	1	-1E+10	1	-1E+10	1	-1E+10	1	-1E+10	1
4901784	12	C	11/02/2015	10:47	-129.990	46.179	0	829.80	0	3.7580	0	34.2720	0	27.238	0	821.331	0	12.7	4	4.0	4	-1E+10	1	-1E+10	1	-1E+10	1	-1E+10	1	-1E+10	1	-1E+10	1
4901784	12	C	11/02/2015	10:47	-129.990	46.179	0	834.60	0	3.7500	0	34.2720	0	27.238	0	826.073	0	12.7	4	4.0	4	-1E+10	1	-1E+10	1	-1E+10	1	-1E+10	1	-1E+10	1	-1E+10	1
4901784	12	C	11/02/2015	10:47	-129.990	46.179	0	840.30	0	3.7150	0	34.2740	0	27.244	0	831.703	0	12.7	4	4.0	4	-1E+10	1	-1E+10	1	-1E+10	1	-1E+10	1	-1E+10	1	-1E+10	1
4901784	12	C	11/02/2015	10:47	-129.990	46.179	0	845.00	0	3.7090	0	34.2750	0	27.245	0	836.346	0	12.7	4	4.0	4	-1E+10	1	-1E+10	1	-1E+10	1	-1E+10	1	-1E+10	1	-1E+10	1
4901784	12	C	11/02/2015	10:47	-129.990	46.179	0	849.90	0	3.6950	0	34.2750	0	27.246	0	841.186	0	12.8	4	4.0	4	-1E+10	1	-1E+10	1	-1E+10	1	-1E+10	1	-1E+10	1	-1E+10	1
4901784	12	C	11/02/2015	10:47	-129.990	46.179	0	854.80	0	3.6660	0	34.2760	0	27.250	0	846.026	0	12.8	4	4.0	4	-1E+10	1	-1E+10	1	-1E+10	1	-1E+10	1	-1E+10	1	-1E+10	1
4901784	12	C	11/02/2015	10:47	-129.990	46.179	0	859.50	0	3.6270	0	34.2780	0	27.255	0	850.668	0	12.9	4	4.0	4	-1E+10	1	-1E+10	1	-1E+10	1	-1E+10	1	-1E+10	1	-1E+10	1
4901784	12	C	11/02/2015	10:47	-129.990	46.179	0	865.10	0	3.5950	0	34.2850	0	27.264	0	856.199	0	12.8	4	4.0	4	-1E+10	1	-1E+10	1	-1E+10	1	-1E+10	1	-1E+10	1	-1E+10	1
4901784	12	C	11/02/2015	10:47	-129.990	46.179	0	869.90	0	3.5970	0	34.2880	0	27.266	0	860.940	0	12.6	4	4.0	4	-1E+10	1	-1E+10	1	-1E+10	1	-1E+10	1	-1E+10	1	-1E+10	1
4901784	12	C	11/02/2015	10:47	-129.990	46.179	0	874.50	0	3.5950	0	34.2900	0	27.268	0	865.483	0	12.6	4	3.9	4	-1E+10	1	-1E+10	1	-1E+10	1	-1E+10	1	-1E+10	1	-1E+10	1
4901784	12	C	11/02/2015	10:47	-129.990	46.179	0	880.20	0	3.5920	0	34.2910	0	27.269	0	871.112	0	12.7	4	4.0	4	-1E+10	1	-1E+10	1	-1E+10	1	-1E+10	1	-1E+10	1	-1E+10	1
4901784	12	C	11/02/2015	10:47	-129.990	46.179	0	884.80	0	3.5600	0	34.2910	0	27.273	0	875.655	0	12.8	4	4.0	4	-1E+10	1	-1E+10	1	-1E+10	1	-1E+10	1	-1E+10	1	-1E+10	1
4901784	12	C	11/02/2015	10:47	-129.990	46.179	0	889.50	0	3.5400	0	34.2920	0	27.275	0	880.297	0	12.9	4	4.0	4	-1E+10	1	-1E+10	1	-1E+10	1	-1E+10	1	-1E+10	1	-1E+10	1
4901784	12	C	11/02/2015	10:47	-129.990	46.179	0	895.10	0	3.5250	0	34.2920	0	27.277	0	885.827	0	12.9	4	4.0	4	-1E+10	1	-1E+10	1	-1E+10	1	-1E+10	1	-1E+10	1	-1E+10	1
4901784	12	C	11/02/2015	10:47	-129.990	46.179	0	899.70	0	3.5050	0	34.2930	0	27.279	0	890.369	0	12.9	4	4.0	4	-1E+10	1	-1E+10	1	-1E+10	1	-1E+10	1	-1E+10	1	-1E+10	1
4901784	12	C	11/02/2015	10:47	-129.990	46.179	0	904.50	0	3.4800	0	34.2960	0	27.284	0	895.109	0	12.9	4	4.0	4	-1E+10	1	-1E+10	1	-1E+10	1	-1E+10	1	-1E+10	1	-1E+10	1
4901784	12	C	11/02/2015	10:47	-129.990	46.179	0	910.20	0	3.4690	0	34.2990	0	27.288	0	900.738	0	12.8	4	4.0	4	-1E+10	1	-1E+10	1	-1E+10	1	-1E+10	1	-1E+10	1	-1E+10	1
4901784	12	C	11/02/2015	10:47	-129.990	46.179	0	914.50	0	3.4660	0	34.3020	0	27.290	0	904.984	0	12.7	4	4.0	4	-1E+10	1	-1E+10	1	-1E+10	1	-1E+10	1	-1E+10	1	-1E+10	1
4901784	12	C	11/02/2015	10:47	-129.990	46.179	0	919.50	0	3.4560	0	34.3050	0	27.294	0	909.921	0	12.7	4	4.0	4	-1E+10	1	-1E+10	1	-1E+10	1	-1E+10	1	-1E+10	1	-1E+10	1
4901784	12	C	11/02/2015	10:47	-129.990	46.179	0	924.50	0	3.4580	0	34.3050	0	27.294	0	914.858	0	12.6	4	3.9	4	-1E+10	1	-1E+10	1	-1E+10	1	-1E+10	1	-1E+10	1	-1E+10	1
4901784	12	C	11/02/2015	10:47	-129.990	46.179	0	929.50	0	3.4500	0	34.3070	0	27.296	0	919.795	0	12.5	4	3.9	4	-1E+10	1	-1E+10	1	-1E+10	1	-1E+10	1	-1E+10	1	-1E+10	1
4901784	12	C	11/02/2015	10:47	-129.990	46.179	0	934.50	0	3.4490	0	34.3120	0	27.300	0	924.732	0	12.3	4	3.8	4	-1E+10	1	-1E+10	1	-1E+10	1	-1E+10	1	-1E+10	1	-1E+10	1
4901784	12	C	11/02/2015	10:47	-129.990	46.179	0	939.50	0	3.4520	0	34.3150	0	27.302	0	929.668	0	12.2	4	3.8	4	-1E+10	1	-1E+10	1	-1E+10	1	-1E+10	1	-1E+10	1	-1E+10	1
4901784	12	C	11/02/2015	10:47	-129.990	46.179	0	944.60	0	3.4540	0	34.3190	0	27.305	0	934.703	0	12.1	4	3.8	4	-1E+10	1	-1E+10	1	-1E+10	1	-1E+10	1	-1E+10	1	-1E+10	1
4901784	12	C	11/02/2015	10:47	-129.990	46.179	0	949.60	0	3.4490	0	34.3220	0	27.308	0	939.640	0	12.1	4	3.8	4	-1E+10	1	-1E+10	1	-1E+10	1	-1E+10	1	-1E+10	1	-1E+10	1
4901784	12	C	11/02/2015	10:47	-129.990	46.179	0	954.90	0	3.4460	0	34.3240	0	27.310	0	944.872	0	12.0	4	3.8	4	-1E+10	1	-1E+10	1	-1E+10	1	-1E+10	1	-1E+10	1	-1E+10	1
4901784	12	C	11/02/2015	10:47	-129.990	46.179	0	960.10	0	3.4240	0	34.3240	0	27.312	0	950.006	0	12.0	4	3.8	4	-1E+10	1	-1E+10	1	-1E+10	1	-1E+10	1	-1E+10	1	-1E+10	1
4901784	12	C	11/02/2015	10:47	-129.990	46.179	0	965.30	0	3.4140	0	34.3300	0	27.318	0	955.139	0	12.0	4	3.7	4	-1E+10	1	-1E+10	1	-1E+10	1	-1E+10	1	-1E+10	1	-1E+10	1
4901784	12	C	11/02/2015	10:47	-129.990	46.179	0	970.50	0	3.4080	0	34.3310	0	27.320	0	960.273	0	11.9	4	3.7	4	-1E+10	1	-1E+10	1	-1E+10	1	-1E+10	1	-1E+10	1	-1E+10	1
4901784	12	C	11/02/2015	10:47	-129.990	46.179	0	975.70	0	3.4060	0	34.3330	0	27.321	0	965.406	0	11.9	4	3.7	4	-1E+10	1	-1E+10	1	-1E+10	1	-1E+10	1	-1E+10	1	-1E+10	1
4901784	12	C	11/02/2015	10:47	-129.990	46.179	0	980.00	0	3.3940	0	34.3370	0	27.326	0	969.651	0	11.9	4	3.7	4	-1E+10	1	-1E+10	1	-1E+10	1	-1E+10	1	-1E+10	1	-1E+10	1
4901784	12	C	11/02/2015	10:47	-129.990	46.179	0	984.40	0	3.3890	0	34.3390	0	27.328	0	973.994	0	11.9	4	3.7	4	-1E+10	1	-1E+10	1	-1E+10	1	-1E+10	1	-1E+10	1	-1E+10	1
4901784	12	C	11/02/2015	10:47	-129.990	46.179	0	989.70	0	3.3720	0	34.3420	0	27.332	0	979.226	0	11.9	4	3.7	4	-1E+10	1	-1E+10	1	-1E+10	1	-1E+10	1	-1E+10	1	-1E+10	1
4901784	12	C	11/02/2015	10:47	-129.990	46.179	0	995.00	0	3.3600	0	34.3460	0	27.336	0	984.457	0	11.9	4	3.7	4	-1E+10	1	-1E+10	1	-1E+10	1	-1E+10	1	-1E+10	1	-1E+10	1
4901784	12	C	11/02/2015	10:47	-129.990	46.179	0	1000.20	0	3.3410	0	34.3510	0	27.342	0	989.590	0	11.9	4	3.7	4	-1E+10	1	-1E+10	1	-1E+10	1	-1E+10	1	-1E+10	1	-1E+10	1
4901784	12	C	11/02/2015	10:47	-129.990	46.179	0	1005.20	0	3.3170	0	34.3540	0	27.347	0	994.525	0	11.9	4	3.7	4	-1E+10	1	-1E+10	1	-1E+10	1	-1E+10	1	-1E+10	1	-1E+10	1
4901784	12	C	11/02/2015	10:47	-129.990	46.179	0	1009.50	0	3.3080	0	34.3570	0	27.350	0	998.769	0	12.0	4	3.7	4	-1E+10	1	-1E+10	1	-1E+10	1	-1E+10	1	-1E+10	1	-1E+10	1
4901784	12	C	11/02/2015	10:47	-129.990	46.179	0	1014.30	0	3.3100	0	34.3590	0	27.351	0	1003.506	0	12.0	4	3.7	4	-1E+10	1	-1E+10	1	-1E+10	1	-1E+10	1	-1E+10	1	-1E+10	1
4901784	12	C	11/02/2015	10:47	-129.990	46.179	0	1019.90	0	3.3030	0	34.3610	0	27.354	0	1009.033	0	12.0	4	3.7	4	-1E+10	1	-1E+10	1	-1E+10	1	-1E+10	1	-1E+10	1	-1E+10	1
4901784	12	C	11/02/2015	10:47	-129.990	46.179	0	1025.50	0	3.2970	0	34.3620	0	27.355	0	1014.560	0	12.0	4	3.7	4	-1E+10	1	-1E+10	1	-1E+10	1	-1E+10	1	-1E+10	1	-1E+10	1
4901784	12	C	11/02/2015	10:47	-129.990	46.179	0	1030.40	0	3.2700	0	34.3650	0	27.360	0	1019.396	0	12.1	4	3.8	4	-1E+10	1	-1E+10	1	-1E+10	1	-1E+10	1	-1E+10	1	-1E+10	1
4901784	12	C	11/02/2015	10:47	-129.990	46.179	0	1035.30	0	3.2810	0	34.3760	0	27.368	0	1024.232	0	12.2	4	3.8	4	-1E+10	1	-1E+10	1	-1E+10	1	-1E+10	1	-1E+10	1	-1E+10	1
4901784	12	C	11/02/2015	10:47	-129.990	46.179	0	1040.30	0	3.2750	0	34.3780	0	27.370	0	1029.166	0	12.2	4	3.8	4	-1E+10	1	-1E+10	1	-1E+10	1	-1E+10	1	-1E+10	1	-1E+10	1
4901784	12	C	11/02/2015	10:47	-129.990	46.179	0	1045.50	0	3.2590	0	34.3780	0	27.371	0	1034.297	0	12.2	4	3.8	4	-1E+10	1	-1E+10	1	-1E+10	1	-1E+10	1	-1E+10	1	-1E+10	1
4901784	12	C	11/02/2015	10:47	-129.990	46.179	0	1050.60	0	3.2410	0	34.3780	0	27.373	0	1039.330	0	12.2	4	3.8	4	-1E+10	1	-1E+10	1	-1E+10	1	-1E+10	1	-1E+10	1	-1E+10	1
4901784	12	C	11/02/2015	10:47	-129.990	46.179	0	1055.60	0	3.2390	0	34.3800	0	27.375	0	1044.264	0	12.2	4	3.8	4	-1E+10	1	-1E+10	1	-1E+10	1	-1E+10	1	-1E+10	1	-1E+10	1
4901784	12	C	11/02/2015	10:47	-129.990	46.179	0	1059.60	0	3.2260	0	34.3810	0	27.377	0	1048.211	0	12.3	4	3.8	4	-1E+10	1	-1E+10	1	-1E+10	1	-1E+10	1	-1E+10	1	-1E+10	1
4901784	12	C	11/02/2015	10:47	-129.990	46.179	0	1065.00	0	3.2100	0	34.3840	0	27.381	0	1053.540	0	12.4	4	3.8	4	-1E+10	1	-1E+10	1	-1E+10	1	-1E+10	1	-1E+10	1	-1E+10	1
4901784	12	C	11/02/2015	10:47	-129.990	46.179	0	1070.50	0	3.2030	0	34.3860	0	27.383	0	1058.966	0	12.4	4	3.9	4	-1E+10	1	-1E+10	1	-1E+10	1	-1E+10	1	-1E+10	1	-1E+10	1
4901784	12	C	11/02/2015	10:47	-129.990	46.179	0	1075.30	0	3.1850	0	34.3890	0	27.387	0	1063.703	0	12.5	4	3.9	4	-1E+10	1	-1E+10	1	-1E+10	1	-1E+10	1	-1E+10	1	-1E+10	1
4901784	12	C	11/02/2015	10:47	-129.990	46.179	0	1080.20	0	3.1790	0	34.3910	0	27.389	0	1068.537	0	12.5	4	3.9	4	-1E+10	1	-1E+10	1	-1E+10	1	-1E+10	1	-1E+10	1	-1E+10	1
4901784	12	C	11/02/2015	10:47	-129.990	46.179	0	1085.10	0	3.1750	0	34.3910	0	27.390	0	1073.372	0	12.6	4	3.9	4	-1E+10	1	-1E+10	1	-1E+10	1	-1E+10	1	-1E+10	1	-1E+10	1
4901784	12	C	11/02/2015	10:47	-129.990	46.179	0	1090.10	0	3.1720	0	34.3920	0	27.391	0	1078.305	0	12.6	4	3.9	4	-1E+10	1	-1E+10	1	-1E+10	1	-1E+10	1	-1E+10	1	-1E+10	1
4901784	12	C	11/02/2015	10:47	-129.990	46.179	0	1095.20	0	3.1670	0	34.3940	0	27.393	0	1083.337	0	12.7	4	4.0	4	-1E+10	1	-1E+10	1	-1E+10	1	-1E+10	1	-1E+10	1	-1E+10	1
4901784	12	C	11/02/2015	10:47	-129.990	46.179	0	1100.10	0	3.1640	0	34.3990	0	27.397	0	1088.171	0	12.9	4	4.0	4	-1E+10	1	-1E+10	1	-1E+10	1	-1E+10	1	-1E+10	1	-1E+10	1
4901784	12	C	11/02/2015	10:47	-129.990	46.179	0	1105.20	0	3.1520	0	34.4010	0	27.400	0	1093.202	0	12.9	4	4.0	4	-1E+10	1	-1E+10	1	-1E+10	1	-1E+10	1	-1E+10	1	-1E+10	1
4901784	12	C	11/02/2015	10:47	-129.990	46.179	0	1110.30	0	3.1380	0	34.4010	0	27.401	0	1098.234	0	12.9	4	4.0	4	-1E+10	1	-1E+10	1	-1E+10	1	-1E+10	1	-1E+10	1	-1E+10	1
4901784	12	C	11/02/2015	10:47	-129.990	46.179	0	1115.40	0	3.1310	0	34.4010	0	27.402	0	1103.265	0	13.0	4	4.0	4	-1E+10	1	-1E+10	1	-1E+10	1	-1E+10	1	-1E+10	1	-1E+10	1
4901784	12	C	11/02/2015	10:47	-129.990	46.179	0	1120.50	0	3.1150	0	34.4050	0	27.407	0	1108.296	0	13.2	4	4.1	4	-1E+10	1	-1E+10	1	-1E+10	1	-1E+10	1	-1E+10	1	-1E+10	1
4901784	12	C	11/02/2015	10:47	-129.990	46.179	0	1125.70	0	3.1040	0	34.4070	0	27.409	0	1113.425	0	13.3	4	4.1	4	-1E+10	1	-1E+10	1	-1E+10	1	-1E+10	1	-1E+10	1	-1E+10	1
4901784	12	C	11/02/2015	10:47	-129.990	46.179	0	1130.00	0	3.0970	0	34.4080	0	27.411	0	1117.667	0	13.3	4	4.1	4	-1E+10	1	-1E+10	1	-1E+10	1	-1E+10	1	-1E+10	1	-1E+10	1
4901784	12	C	11/02/2015	10:47	-129.990	46.179	0	1134.30	0	3.0860	0	34.4100	0	27.414	0	1121.909	0	13.4	4	4.2	4	-1E+10	1	-1E+10	1	-1E+10	1	-1E+10	1	-1E+10	1	-1E+10	1
4901784	12	C	11/02/2015	10:47	-129.990	46.179	0	1139.50	0	3.0800	0	34.4130	0	27.416	0	1127.038	0	13.6	4	4.2	4	-1E+10	1	-1E+10	1	-1E+10	1	-1E+10	1	-1E+10	1	-1E+10	1
4901784	12	C	11/02/2015	10:47	-129.990	46.179	0	1144.80	0	3.0780	0	34.4130	0	27.417	0	1132.266	0	13.6	4	4.2	4	-1E+10	1	-1E+10	1	-1E+10	1	-1E+10	1	-1E+10	1	-1E+10	1
4901784	12	C	11/02/2015	10:47	-129.990	46.179	0	1150.10	0	3.0700	0	34.4150	0	27.419	0	1137.493	0	13.7	4	4.2	4	-1E+10	1	-1E+10	1	-1E+10	1	-1E+10	1	-1E+10	1	-1E+10	1
4901784	12	C	11/02/2015	10:47	-129.990	46.179	0	1155.50	0	3.0590	0	34.4170	0	27.422	0	1142.819	0	13.8	4	4.3	4	-1E+10	1	-1E+10	1	-1E+10	1	-1E+10	1	-1E+10	1	-1E+10	1
4901784	12	C	11/02/2015	10:47	-129.990	46.179	0	1159.90	0	3.0490	0	34.4180	0	27.423	0	1147.159	0	13.9	4	4.3	4	-1E+10	1	-1E+10	1	-1E+10	1	-1E+10	1	-1E+10	1	-1E+10	1
4901784	12	C	11/02/2015	10:47	-129.990	46.179	0	1164.50	0	3.0450	0	34.4180	0	27.424	0	1151.696	0	13.9	4	4.3	4	-1E+10	1	-1E+10	1	-1E+10	1	-1E+10	1	-1E+10	1	-1E+10	1
4901784	12	C	11/02/2015	10:47	-129.990	46.179	0	1170.00	0	3.0360	0	34.4190	0	27.425	0	1157.120	0	14.0	4	4.3	4	-1E+10	1	-1E+10	1	-1E+10	1	-1E+10	1	-1E+10	1	-1E+10	1
4901784	12	C	11/02/2015	10:47	-129.990	46.179	0	1175.40	0	3.0180	0	34.4210	0	27.429	0	1162.446	0	14.2	4	4.4	4	-1E+10	1	-1E+10	1	-1E+10	1	-1E+10	1	-1E+10	1	-1E+10	1
4901784	12	C	11/02/2015	10:47	-129.990	46.179	0	1180.10	0	3.0070	0	34.4230	0	27.431	0	1167.081	0	14.2	4	4.4	4	-1E+10	1	-1E+10	1	-1E+10	1	-1E+10	1	-1E+10	1	-1E+10	1
4901784	12	C	11/02/2015	10:47	-129.990	46.179	0	1184.80	0	3.0020	0	34.4240	0	27.433	0	1171.716	0	14.3	4	4.4	4	-1E+10	1	-1E+10	1	-1E+10	1	-1E+10	1	-1E+10	1	-1E+10	1
4901784	12	C	11/02/2015	10:47	-129.990	46.179	0	1190.40	0	2.9890	0	34.4250	0	27.435	0	1177.239	0	14.4	4	4.4	4	-1E+10	1	-1E+10	1	-1E+10	1	-1E+10	1	-1E+10	1	-1E+10	1
4901784	12	C	11/02/2015	10:47	-129.990	46.179	0	1195.10	0	2.9830	0	34.4270	0	27.437	0	1181.874	0	14.5	4	4.5	4	-1E+10	1	-1E+10	1	-1E+10	1	-1E+10	1	-1E+10	1	-1E+10	1
4901784	12	C	11/02/2015	10:47	-129.990	46.179	0	1199.80	0	2.9800	0	34.4270	0	27.437	0	1186.508	0	14.5	4	4.5	4	-1E+10	1	-1E+10	1	-1E+10	1	-1E+10	1	-1E+10	1	-1E+10	1
4901784	12	C	11/02/2015	10:47	-129.990	46.179	0	1205.40	0	2.9760	0	34.4280	0	27.438	0	1192.030	0	14.6	4	4.5	4	-1E+10	1	-1E+10	1	-1E+10	1	-1E+10	1	-1E+10	1	-1E+10	1
4901784	12	C	11/02/2015	10:47	-129.990	46.179	0	1210.10	0	2.9730	0	34.4280	0	27.439	0	1196.665	0	14.7	4	4.5	4	-1E+10	1	-1E+10	1	-1E+10	1	-1E+10	1	-1E+10	1	-1E+10	1
4901784	12	C	11/02/2015	10:47	-129.990	46.179	0	1214.80	0	2.9620	0	34.4300	0	27.441	0	1201.299	0	14.9	4	4.6	4	-1E+10	1	-1E+10	1	-1E+10	1	-1E+10	1	-1E+10	1	-1E+10	1
4901784	12	C	11/02/2015	10:47	-129.990	46.179	0	1220.40	0	2.9520	0	34.4320	0	27.444	0	1206.821	0	15.1	4	4.6	4	-1E+10	1	-1E+10	1	-1E+10	1	-1E+10	1	-1E+10	1	-1E+10	1
4901784	12	C	11/02/2015	10:47	-129.990	46.179	0	1225.10	0	2.9400	0	34.4340	0	27.446	0	1211.455	0	15.2	4	4.7	4	-1E+10	1	-1E+10	1	-1E+10	1	-1E+10	1	-1E+10	1	-1E+10	1
4901784	12	C	11/02/2015	10:47	-129.990	46.179	0	1229.70	0	2.9320	0	34.4360	0	27.449	0	1215.991	0	15.4	4	4.7	4	-1E+10	1	-1E+10	1	-1E+10	1	-1E+10	1	-1E+10	1	-1E+10	1
4901784	12	C	11/02/2015	10:47	-129.990	46.179	0	1235.30	0	2.9190	0	34.4380	0	27.452	0	1221.512	0	15.5	4	4.8	4	-1E+10	1	-1E+10	1	-1E+10	1	-1E+10	1	-1E+10	1	-1E+10	1
4901784	12	C	11/02/2015	10:47	-129.990	46.179	0	1240.00	0	2.9100	0	34.4400	0	27.454	0	1226.146	0	15.6	4	4.8	4	-1E+10	1	-1E+10	1	-1E+10	1	-1E+10	1	-1E+10	1	-1E+10	1
4901784	12	C	11/02/2015	10:47	-129.990	46.179	0	1244.60	0	2.9090	0	34.4390	0	27.453	0	1230.681	0	15.6	4	4.8	4	-1E+10	1	-1E+10	1	-1E+10	1	-1E+10	1	-1E+10	1	-1E+10	1
4901784	12	C	11/02/2015	10:47	-129.990	46.179	0	1250.20	0	2.9040	0	34.4400	0	27.455	0	1236.202	0	15.8	4	4.9	4	-1E+10	1	-1E+10	1	-1E+10	1	-1E+10	1	-1E+10	1	-1E+10	1
4901784	12	C	11/02/2015	10:47	-129.990	46.179	0	1254.90	0	2.8980	0	34.4420	0	27.457	0	1240.835	0	15.9	4	4.9	4	-1E+10	1	-1E+10	1	-1E+10	1	-1E+10	1	-1E+10	1	-1E+10	1
4901784	12	C	11/02/2015	10:47	-129.990	46.179	0	1259.60	0	2.8940	0	34.4420	0	27.457	0	1245.469	0	16.0	4	4.9	4	-1E+10	1	-1E+10	1	-1E+10	1	-1E+10	1	-1E+10	1	-1E+10	1
4901784	12	C	11/02/2015	10:47	-129.990	46.179	0	1265.30	0	2.8860	0	34.4420	0	27.458	0	1251.088	0	16.1	4	5.0	4	-1E+10	1	-1E+10	1	-1E+10	1	-1E+10	1	-1E+10	1	-1E+10	1
4901784	12	C	11/02/2015	10:47	-129.990	46.179	0	1269.90	0	2.8710	0	34.4440	0	27.461	0	1255.623	0	16.3	4	5.0	4	-1E+10	1	-1E+10	1	-1E+10	1	-1E+10	1	-1E+10	1	-1E+10	1
4901784	12	C	11/02/2015	10:47	-129.990	46.179	0	1274.60	0	2.8570	0	34.4460	0	27.464	0	1260.256	0	16.5	4	5.1	4	-1E+10	1	-1E+10	1	-1E+10	1	-1E+10	1	-1E+10	1	-1E+10	1
4901784	12	C	11/02/2015	10:47	-129.990	46.179	0	1280.30	0	2.8420	0	34.4480	0	27.467	0	1265.875	0	16.7	4	5.1	4	-1E+10	1	-1E+10	1	-1E+10	1	-1E+10	1	-1E+10	1	-1E+10	1
4901784	12	C	11/02/2015	10:47	-129.990	46.179	0	1284.90	0	2.8310	0	34.4500	0	27.469	0	1270.409	0	16.9	4	5.2	4	-1E+10	1	-1E+10	1	-1E+10	1	-1E+10	1	-1E+10	1	-1E+10	1
4901784	12	C	11/02/2015	10:47	-129.990	46.179	0	1289.50	0	2.8220	0	34.4510	0	27.471	0	1274.943	0	17.0	4	5.2	4	-1E+10	1	-1E+10	1	-1E+10	1	-1E+10	1	-1E+10	1	-1E+10	1
4901784	12	C	11/02/2015	10:47	-129.990	46.179	0	1295.00	0	2.8120	0	34.4530	0	27.473	0	1280.364	0	17.2	4	5.3	4	-1E+10	1	-1E+10	1	-1E+10	1	-1E+10	1	-1E+10	1	-1E+10	1
4901784	12	C	11/02/2015	10:47	-129.990	46.179	0	1300.60	0	2.8100	0	34.4530	0	27.473	0	1285.884	0	17.3	4	5.3	4	-1E+10	1	-1E+10	1	-1E+10	1	-1E+10	1	-1E+10	1	-1E+10	1
4901784	12	C	11/02/2015	10:47	-129.990	46.179	0	1305.10	0	2.8020	0	34.4540	0	27.475	0	1290.319	0	17.4	4	5.4	4	-1E+10	1	-1E+10	1	-1E+10	1	-1E+10	1	-1E+10	1	-1E+10	1
4901784	12	C	11/02/2015	10:47	-129.990	46.179	0	1309.70	0	2.7920	0	34.4560	0	27.478	0	1294.853	0	17.6	4	5.4	4	-1E+10	1	-1E+10	1	-1E+10	1	-1E+10	1	-1E+10	1	-1E+10	1
4901784	12	C	11/02/2015	10:47	-129.990	46.179	0	1315.10	0	2.7850	0	34.4570	0	27.479	0	1300.175	0	17.7	4	5.4	4	-1E+10	1	-1E+10	1	-1E+10	1	-1E+10	1	-1E+10	1	-1E+10	1
4901784	12	C	11/02/2015	10:47	-129.990	46.179	0	1320.60	0	2.7790	0	34.4570	0	27.480	0	1305.596	0	17.8	4	5.5	4	-1E+10	1	-1E+10	1	-1E+10	1	-1E+10	1	-1E+10	1	-1E+10	1
4901784	12	C	11/02/2015	10:47	-129.990	46.179	0	1325.30	0	2.7740	0	34.4580	0	27.481	0	1310.228	0	17.9	4	5.5	4	-1E+10	1	-1E+10	1	-1E+10	1	-1E+10	1	-1E+10	1	-1E+10	1
4901784	12	C	11/02/2015	10:47	-129.990	46.179	0	1329.80	0	2.7680	0	34.4590	0	27.482	0	1314.662	0	18.2	4	5.6	4	-1E+10	1	-1E+10	1	-1E+10	1	-1E+10	1	-1E+10	1	-1E+10	1
4901784	12	C	11/02/2015	10:47	-129.990	46.179	0	1334.80	0	2.7520	0	34.4610	0	27.485	0	1319.590	0	18.6	4	5.7	4	-1E+10	1	-1E+10	1	-1E+10	1	-1E+10	1	-1E+10	1	-1E+10	1
4901784	12	C	11/02/2015	10:47	-129.990	46.179	0	1339.70	0	2.7300	0	34.4650	0	27.490	0	1324.419	0	18.9	4	5.8	4	-1E+10	1	-1E+10	1	-1E+10	1	-1E+10	1	-1E+10	1	-1E+10	1
4901784	12	C	11/02/2015	10:47	-129.990	46.179	0	1344.60	0	2.7250	0	34.4660	0	27.492	0	1329.247	0	19.1	4	5.9	4	-1E+10	1	-1E+10	1	-1E+10	1	-1E+10	1	-1E+10	1	-1E+10	1
4901784	12	C	11/02/2015	10:47	-129.990	46.179	0	1349.50	0	2.7190	0	34.4680	0	27.494	0	1334.076	0	19.4	4	5.9	4	-1E+10	1	-1E+10	1	-1E+10	1	-1E+10	1	-1E+10	1	-1E+10	1
4901784	12	C	11/02/2015	10:47	-129.990	46.179	0	1354.40	0	2.7130	0	34.4690	0	27.495	0	1338.904	0	19.7	4	6.0	4	-1E+10	1	-1E+10	1	-1E+10	1	-1E+10	1	-1E+10	1	-1E+10	1
4901784	12	C	11/02/2015	10:47	-129.990	46.179	0	1359.40	0	2.6930	0	34.4710	0	27.498	0	1343.831	0	20.2	4	6.2	4	-1E+10	1	-1E+10	1	-1E+10	1	-1E+10	1	-1E+10	1	-1E+10	1
4901784	12	C	11/02/2015	10:47	-129.990	46.179	0	1364.40	0	2.6670	0	34.4750	0	27.504	0	1348.758	0	20.6	4	6.3	4	-1E+10	1	-1E+10	1	-1E+10	1	-1E+10	1	-1E+10	1	-1E+10	1
4901784	12	C	11/02/2015	10:47	-129.990	46.179	0	1369.50	0	2.6570	0	34.4770	0	27.506	0	1353.783	0	20.8	4	6.4	4	-1E+10	1	-1E+10	1	-1E+10	1	-1E+10	1	-1E+10	1	-1E+10	1
4901784	12	C	11/02/2015	10:47	-129.990	46.179	0	1375.00	0	2.6510	0	34.4770	0	27.507	0	1359.202	0	20.9	4	6.4	4	-1E+10	1	-1E+10	1	-1E+10	1	-1E+10	1	-1E+10	1	-1E+10	1
4901784	12	C	11/02/2015	10:47	-129.990	46.179	0	1379.80	0	2.6460	0	34.4770	0	27.507	0	1363.932	0	21.0	4	6.4	4	-1E+10	1	-1E+10	1	-1E+10	1	-1E+10	1	-1E+10	1	-1E+10	1
4901784	12	C	11/02/2015	10:47	-129.990	46.179	0	1384.70	0	2.6410	0	34.4770	0	27.508	0	1368.759	0	21.1	4	6.4	4	-1E+10	1	-1E+10	1	-1E+10	1	-1E+10	1	-1E+10	1	-1E+10	1
4901784	12	C	11/02/2015	10:47	-129.990	46.179	0	1389.60	0	2.6350	0	34.4780	0	27.509	0	1373.587	0	21.2	4	6.5	4	-1E+10	1	-1E+10	1	-1E+10	1	-1E+10	1	-1E+10	1	-1E+10	1
4901784	12	C	11/02/2015	10:47	-129.990	46.179	0	1394.60	0	2.6300	0	34.4780	0	27.510	0	1378.513	0	21.5	4	6.6	4	-1E+10	1	-1E+10	1	-1E+10	1	-1E+10	1	-1E+10	1	-1E+10	1
4901784	12	C	11/02/2015	10:47	-129.990	46.179	0	1399.70	0	2.6180	0	34.4810	0	27.513	0	1383.537	0	21.8	4	6.7	4	-1E+10	1	-1E+10	1	-1E+10	1	-1E+10	1	-1E+10	1	-1E+10	1
4901784	12	C	11/02/2015	10:47	-129.990	46.179	0	1404.80	0	2.6160	0	34.4820	0	27.514	0	1388.562	0	21.9	4	6.7	4	-1E+10	1	-1E+10	1	-1E+10	1	-1E+10	1	-1E+10	1	-1E+10	1
4901784	12	C	11/02/2015	10:47	-129.990	46.179	0	1410.10	0	2.6150	0	34.4820	0	27.514	0	1393.783	0	22.2	4	6.8	4	-1E+10	1	-1E+10	1	-1E+10	1	-1E+10	1	-1E+10	1	-1E+10	1
4901784	12	C	11/02/2015	10:47	-129.990	46.179	0	1415.40	0	2.6010	0	34.4840	0	27.517	0	1399.004	0	22.6	4	6.9	4	-1E+10	1	-1E+10	1	-1E+10	1	-1E+10	1	-1E+10	1	-1E+10	1
4901784	12	C	11/02/2015	10:47	-129.990	46.179	0	1419.90	0	2.5930	0	34.4850	0	27.518	0	1403.437	0	22.8	4	7.0	4	-1E+10	1	-1E+10	1	-1E+10	1	-1E+10	1	-1E+10	1	-1E+10	1
4901784	12	C	11/02/2015	10:47	-129.990	46.179	0	1424.90	0	2.5850	0	34.4870	0	27.521	0	1408.362	0	23.1	4	7.1	4	-1E+10	1	-1E+10	1	-1E+10	1	-1E+10	1	-1E+10	1	-1E+10	1
4901784	12	C	11/02/2015	10:47	-129.990	46.179	0	1429.50	0	2.5790	0	34.4880	0	27.522	0	1412.894	0	23.3	4	7.1	4	-1E+10	1	-1E+10	1	-1E+10	1	-1E+10	1	-1E+10	1	-1E+10	1
4901784	12	C	11/02/2015	10:47	-129.990	46.179	0	1435.00	0	2.5740	0	34.4890	0	27.523	0	1418.311	0	23.5	4	7.2	4	-1E+10	1	-1E+10	1	-1E+10	1	-1E+10	1	-1E+10	1	-1E+10	1
4901784	12	C	11/02/2015	10:47	-129.990	46.179	0	1440.60	0	2.5670	0	34.4900	0	27.525	0	1423.827	0	23.8	4	7.3	4	-1E+10	1	-1E+10	1	-1E+10	1	-1E+10	1	-1E+10	1	-1E+10	1
4901784	12	C	11/02/2015	10:47	-129.990	46.179	0	1445.40	0	2.5600	0	34.4910	0	27.526	0	1428.555	0	24.0	4	7.3	4	-1E+10	1	-1E+10	1	-1E+10	1	-1E+10	1	-1E+10	1	-1E+10	1
4901784	12	C	11/02/2015	10:47	-129.990	46.179	0	1450.20	0	2.5550	0	34.4920	0	27.527	0	1433.283	0	24.3	4	7.4	4	-1E+10	1	-1E+10	1	-1E+10	1	-1E+10	1	-1E+10	1	-1E+10	1
4901784	12	C	11/02/2015	10:47	-129.990	46.179	0	1455.10	0	2.5460	0	34.4930	0	27.529	0	1438.109	0	24.6	4	7.5	4	-1E+10	1	-1E+10	1	-1E+10	1	-1E+10	1	-1E+10	1	-1E+10	1
4901784	12	C	11/02/2015	10:47	-129.990	46.179	0	1460.10	0	2.5380	0	34.4950	0	27.531	0	1443.034	0	24.8	4	7.6	4	-1E+10	1	-1E+10	1	-1E+10	1	-1E+10	1	-1E+10	1	-1E+10	1
4901784	12	C	11/02/2015	10:47	-129.990	46.179	0	1465.10	0	2.5370	0	34.4950	0	27.531	0	1447.958	0	24.9	4	7.6	4	-1E+10	1	-1E+10	1	-1E+10	1	-1E+10	1	-1E+10	1	-1E+10	1
4901784	12	C	11/02/2015	10:47	-129.990	46.179	0	1470.30	0	2.5280	0	34.4960	0	27.533	0	1453.079	0	25.1	4	7.7	4	-1E+10	1	-1E+10	1	-1E+10	1	-1E+10	1	-1E+10	1	-1E+10	1
4901784	12	C	11/02/2015	10:47	-129.990	46.179	0	1475.50	0	2.5190	0	34.4970	0	27.535	0	1458.200	0	25.2	4	7.7	4	-1E+10	1	-1E+10	1	-1E+10	1	-1E+10	1	-1E+10	1	-1E+10	1
4901784	12	C	11/02/2015	10:47	-129.990	46.179	0	1479.90	0	2.5170	0	34.4970	0	27.535	0	1462.534	0	25.3	4	7.7	4	-1E+10	1	-1E+10	1	-1E+10	1	-1E+10	1	-1E+10	1	-1E+10	1
4901784	12	C	11/02/2015	10:47	-129.990	46.179	0	1484.40	0	2.5130	0	34.4970	0	27.535	0	1466.965	0	25.4	4	7.8	4	-1E+10	1	-1E+10	1	-1E+10	1	-1E+10	1	-1E+10	1	-1E+10	1
4901784	12	C	11/02/2015	10:47	-129.990	46.179	0	1489.70	0	2.5060	0	34.4980	0	27.537	0	1472.185	0	25.6	4	7.8	4	-1E+10	1	-1E+10	1	-1E+10	1	-1E+10	1	-1E+10	1	-1E+10	1
4901784	12	C	11/02/2015	10:47	-129.990	46.179	0	1495.00	0	2.4930	0	34.4990	0	27.538	0	1477.404	0	25.9	4	7.9	4	-1E+10	1	-1E+10	1	-1E+10	1	-1E+10	1	-1E+10	1	-1E+10	1
4901784	12	C	11/02/2015	10:47	-129.990	46.179	0	1500.00	0	2.4820	0	34.4990	0	27.539	0	1482.327	0	26.4	4	8.0	4	-1E+10	1	-1E+10	1	-1E+10	1	-1E+10	1	-1E+10	1	-1E+10	1
4901784	12	C	11/02/2015	10:47	-129.990	46.179	0	1505.10	0	2.4430	0	34.5030	0	27.546	0	1487.349	0	26.9	4	8.2	4	-1E+10	1	-1E+10	1	-1E+10	1	-1E+10	1	-1E+10	1	-1E+10	1
4901784	12	C	11/02/2015	10:47	-129.990	46.179	0	1510.30	0	2.4290	0	34.5040	0	27.548	0	1492.470	0	27.1	4	8.3	4	-1E+10	1	-1E+10	1	-1E+10	1	-1E+10	1	-1E+10	1	-1E+10	1
4901784	12	C	11/02/2015	10:47	-129.990	46.179	0	1515.60	0	2.4230	0	34.5050	0	27.549	0	1497.688	0	27.3	4	8.3	4	-1E+10	1	-1E+10	1	-1E+10	1	-1E+10	1	-1E+10	1	-1E+10	1
4901784	12	C	11/02/2015	10:47	-129.990	46.179	0	1520.00	0	2.4230	0	34.5050	0	27.549	0	1502.021	0	27.4	4	8.3	4	-1E+10	1	-1E+10	1	-1E+10	1	-1E+10	1	-1E+10	1	-1E+10	1
4901784	12	C	11/02/2015	10:47	-129.990	46.179	0	1524.50	0	2.4210	0	34.5060	0	27.550	0	1506.451	0	27.6	4	8.4	4	-1E+10	1	-1E+10	1	-1E+10	1	-1E+10	1	-1E+10	1	-1E+10	1
4901784	12	C	11/02/2015	10:47	-129.990	46.179	0	1529.70	0	2.4140	0	34.5070	0	27.552	0	1511.571	0	28.1	4	8.5	4	-1E+10	1	-1E+10	1	-1E+10	1	-1E+10	1	-1E+10	1	-1E+10	1
4901784	12	C	11/02/2015	10:47	-129.990	46.179	0	1535.10	0	2.4060	0	34.5090	0	27.554	0	1516.888	0	28.3	4	8.6	4	-1E+10	1	-1E+10	1	-1E+10	1	-1E+10	1	-1E+10	1	-1E+10	1
4901784	12	C	11/02/2015	10:47	-129.990	46.179	0	1540.50	0	2.4050	0	34.5080	0	27.553	0	1522.204	0	28.4	4	8.6	4	-1E+10	1	-1E+10	1	-1E+10	1	-1E+10	1	-1E+10	1	-1E+10	1
4901784	12	C	11/02/2015	10:47	-129.990	46.179	0	1545.00	0	2.3930	0	34.5090	0	27.555	0	1526.635	0	28.5	4	8.7	4	-1E+10	1	-1E+10	1	-1E+10	1	-1E+10	1	-1E+10	1	-1E+10	1
4901784	12	C	11/02/2015	10:47	-129.990	46.179	0	1549.50	0	2.3830	0	34.5100	0	27.557	0	1531.065	0	28.7	4	8.7	4	-1E+10	1	-1E+10	1	-1E+10	1	-1E+10	1	-1E+10	1	-1E+10	1
4901784	12	C	11/02/2015	10:47	-129.990	46.179	0	1555.00	0	2.3750	0	34.5100	0	27.557	0	1536.480	0	28.9	4	8.8	4	-1E+10	1	-1E+10	1	-1E+10	1	-1E+10	1	-1E+10	1	-1E+10	1
4901784	12	C	11/02/2015	10:47	-129.990	46.179	0	1560.20	0	2.3690	0	34.5120	0	27.559	0	1541.599	0	29.3	4	8.9	4	-1E+10	1	-1E+10	1	-1E+10	1	-1E+10	1	-1E+10	1	-1E+10	1
4901784	12	C	11/02/2015	10:47	-129.990	46.179	0	1564.40	0	2.3640	0	34.5120	0	27.560	0	1545.733	0	29.5	4	9.0	4	-1E+10	1	-1E+10	1	-1E+10	1	-1E+10	1	-1E+10	1	-1E+10	1
4901784	12	C	11/02/2015	10:47	-129.990	46.179	0	1570.00	0	2.3590	0	34.5140	0	27.562	0	1551.246	0	30.1	4	9.2	4	-1E+10	1	-1E+10	1	-1E+10	1	-1E+10	1	-1E+10	1	-1E+10	1
4901784	12	C	11/02/2015	10:47	-129.990	46.179	0	1575.70	0	2.3560	0	34.5160	0	27.564	0	1556.857	0	30.5	4	9.3	4	-1E+10	1	-1E+10	1	-1E+10	1	-1E+10	1	-1E+10	1	-1E+10	1
4901784	12	C	11/02/2015	10:47	-129.990	46.179	0	1580.60	0	2.3550	0	34.5160	0	27.564	0	1561.680	0	30.7	4	9.3	4	-1E+10	1	-1E+10	1	-1E+10	1	-1E+10	1	-1E+10	1	-1E+10	1
4901784	12	C	11/02/2015	10:47	-129.990	46.179	0	1585.60	0	2.3530	0	34.5170	0	27.565	0	1566.602	0	30.9	4	9.4	4	-1E+10	1	-1E+10	1	-1E+10	1	-1E+10	1	-1E+10	1	-1E+10	1
4901784	12	C	11/02/2015	10:47	-129.990	46.179	0	1590.60	0	2.3480	0	34.5180	0	27.566	0	1571.523	0	31.2	4	9.5	4	-1E+10	1	-1E+10	1	-1E+10	1	-1E+10	1	-1E+10	1	-1E+10	1
4901784	12	C	11/02/2015	10:47	-129.990	46.179	0	1595.60	0	2.3370	0	34.5190	0	27.568	0	1576.445	0	31.6	4	9.6	4	-1E+10	1	-1E+10	1	-1E+10	1	-1E+10	1	-1E+10	1	-1E+10	1
4901784	12	C	11/02/2015	10:47	-129.990	46.179	0	1600.70	0	2.3290	0	34.5200	0	27.569	0	1581.465	0	31.9	4	9.7	4	-1E+10	1	-1E+10	1	-1E+10	1	-1E+10	1	-1E+10	1	-1E+10	1
4901784	12	C	11/02/2015	10:47	-129.990	46.179	0	1605.00	0	2.3240	0	34.5210	0	27.571	0	1585.697	0	32.1	4	9.8	4	-1E+10	1	-1E+10	1	-1E+10	1	-1E+10	1	-1E+10	1	-1E+10	1
4901784	12	C	11/02/2015	10:47	-129.990	46.179	0	1609.20	0	2.3210	0	34.5220	0	27.572	0	1589.831	0	32.3	4	9.8	4	-1E+10	1	-1E+10	1	-1E+10	1	-1E+10	1	-1E+10	1	-1E+10	1
4901784	12	C	11/02/2015	10:47	-129.990	46.179	0	1614.30	0	2.3210	0	34.5210	0	27.571	0	1594.850	0	32.4	4	9.9	4	-1E+10	1	-1E+10	1	-1E+10	1	-1E+10	1	-1E+10	1	-1E+10	1
4901784	12	C	11/02/2015	10:47	-129.990	46.179	0	1619.30	0	2.3140	0	34.5230	0	27.573	0	1599.771	0	32.8	4	10.0	4	-1E+10	1	-1E+10	1	-1E+10	1	-1E+10	1	-1E+10	1	-1E+10	1
4901784	12	C	11/02/2015	10:47	-129.990	46.179	0	1624.40	0	2.3110	0	34.5240	0	27.574	0	1604.790	0	33.0	4	10.0	4	-1E+10	1	-1E+10	1	-1E+10	1	-1E+10	1	-1E+10	1	-1E+10	1
4901784	12	C	11/02/2015	10:47	-129.990	46.179	0	1629.40	0	2.3110	0	34.5240	0	27.574	0	1609.711	0	33.1	4	10.1	4	-1E+10	1	-1E+10	1	-1E+10	1	-1E+10	1	-1E+10	1	-1E+10	1
4901784	12	C	11/02/2015	10:47	-129.990	46.179	0	1634.50	0	2.3070	0	34.5250	0	27.575	0	1614.730	0	33.6	4	10.2	4	-1E+10	1	-1E+10	1	-1E+10	1	-1E+10	1	-1E+10	1	-1E+10	1
4901784	12	C	11/02/2015	10:47	-129.990	46.179	0	1639.50	0	2.2990	0	34.5260	0	27.577	0	1619.650	0	34.1	4	10.3	4	-1E+10	1	-1E+10	1	-1E+10	1	-1E+10	1	-1E+10	1	-1E+10	1
4901784	12	C	11/02/2015	10:47	-129.990	46.179	0	1644.50	0	2.2910	0	34.5270	0	27.578	0	1624.570	0	34.6	4	10.5	4	-1E+10	1	-1E+10	1	-1E+10	1	-1E+10	1	-1E+10	1	-1E+10	1
4901784	12	C	11/02/2015	10:47	-129.990	46.179	0	1649.50	0	2.2630	0	34.5300	0	27.583	0	1629.491	0	35.4	4	10.7	4	-1E+10	1	-1E+10	1	-1E+10	1	-1E+10	1	-1E+10	1	-1E+10	1
4901784	12	C	11/02/2015	10:47	-129.990	46.179	0	1654.50	0	2.2520	0	34.5320	0	27.586	0	1634.411	0	35.6	4	10.8	4	-1E+10	1	-1E+10	1	-1E+10	1	-1E+10	1	-1E+10	1	-1E+10	1
4901784	12	C	11/02/2015	10:47	-129.990	46.179	0	1659.50	0	2.2500	0	34.5320	0	27.586	0	1639.331	0	35.8	4	10.8	4	-1E+10	1	-1E+10	1	-1E+10	1	-1E+10	1	-1E+10	1	-1E+10	1
4901784	12	C	11/02/2015	10:47	-129.990	46.179	0	1664.50	0	2.2490	0	34.5320	0	27.586	0	1644.250	0	35.9	4	10.9	4	-1E+10	1	-1E+10	1	-1E+10	1	-1E+10	1	-1E+10	1	-1E+10	1
4901784	12	C	11/02/2015	10:47	-129.990	46.179	0	1669.50	0	2.2430	0	34.5330	0	27.587	0	1649.170	0	36.2	4	11.0	4	-1E+10	1	-1E+10	1	-1E+10	1	-1E+10	1	-1E+10	1	-1E+10	1
4901784	12	C	11/02/2015	10:47	-129.990	46.179	0	1674.60	0	2.2390	0	34.5340	0	27.588	0	1654.188	0	36.5	4	11.1	4	-1E+10	1	-1E+10	1	-1E+10	1	-1E+10	1	-1E+10	1	-1E+10	1
4901784	12	C	11/02/2015	10:47	-129.990	46.179	0	1679.70	0	2.2350	0	34.5340	0	27.589	0	1659.206	0	36.8	4	11.1	4	-1E+10	1	-1E+10	1	-1E+10	1	-1E+10	1	-1E+10	1	-1E+10	1
4901784	12	C	11/02/2015	10:47	-129.990	46.179	0	1684.80	0	2.2310	0	34.5350	0	27.590	0	1664.224	0	37.2	4	11.3	4	-1E+10	1	-1E+10	1	-1E+10	1	-1E+10	1	-1E+10	1	-1E+10	1
4901784	12	C	11/02/2015	10:47	-129.990	46.179	0	1690.00	0	2.2190	0	34.5370	0	27.592	0	1669.340	0	37.6	4	11.4	4	-1E+10	1	-1E+10	1	-1E+10	1	-1E+10	1	-1E+10	1	-1E+10	1
4901784	12	C	11/02/2015	10:47	-129.990	46.179	0	1695.20	0	2.2150	0	34.5380	0	27.594	0	1674.456	0	37.8	4	11.5	4	-1E+10	1	-1E+10	1	-1E+10	1	-1E+10	1	-1E+10	1	-1E+10	1
4901784	12	C	11/02/2015	10:47	-129.990	46.179	0	1700.50	0	2.2120	0	34.5380	0	27.594	0	1679.670	0	38.0	4	11.5	4	-1E+10	1	-1E+10	1	-1E+10	1	-1E+10	1	-1E+10	1	-1E+10	1
4901784	12	C	11/02/2015	10:47	-129.990	46.179	0	1704.90	0	2.2070	0	34.5390	0	27.595	0	1683.999	0	38.3	4	11.6	4	-1E+10	1	-1E+10	1	-1E+10	1	-1E+10	1	-1E+10	1	-1E+10	1
4901784	12	C	11/02/2015	10:47	-129.990	46.179	0	1709.30	0	2.2020	0	34.5400	0	27.596	0	1688.327	0	38.6	4	11.7	4	-1E+10	1	-1E+10	1	-1E+10	1	-1E+10	1	-1E+10	1	-1E+10	1
4901784	12	C	11/02/2015	10:47	-129.990	46.179	0	1714.70	0	2.1940	0	34.5410	0	27.598	0	1693.639	0	38.9	4	11.8	4	-1E+10	1	-1E+10	1	-1E+10	1	-1E+10	1	-1E+10	1	-1E+10	1
4901784	12	C	11/02/2015	10:47	-129.990	46.179	0	1720.10	0	2.1940	0	34.5410	0	27.598	0	1698.951	0	39.0	4	11.8	4	-1E+10	1	-1E+10	1	-1E+10	1	-1E+10	1	-1E+10	1	-1E+10	1
4901784	12	C	11/02/2015	10:47	-129.990	46.179	0	1725.50	0	2.1930	0	34.5410	0	27.598	0	1704.263	0	39.2	4	11.9	4	-1E+10	1	-1E+10	1	-1E+10	1	-1E+10	1	-1E+10	1	-1E+10	1
4901784	12	C	11/02/2015	10:47	-129.990	46.179	0	1730.00	0	2.1900	0	34.5420	0	27.599	0	1708.690	0	39.4	4	11.9	4	-1E+10	1	-1E+10	1	-1E+10	1	-1E+10	1	-1E+10	1	-1E+10	1
4901784	12	C	11/02/2015	10:47	-129.990	46.179	0	1734.50	0	2.1850	0	34.5430	0	27.600	0	1713.116	0	39.7	4	12.0	4	-1E+10	1	-1E+10	1	-1E+10	1	-1E+10	1	-1E+10	1	-1E+10	1
4901784	12	C	11/02/2015	10:47	-129.990	46.179	0	1740.00	0	2.1800	0	34.5440	0	27.601	0	1718.526	0	39.9	4	12.1	4	-1E+10	1	-1E+10	1	-1E+10	1	-1E+10	1	-1E+10	1	-1E+10	1
4901784	12	C	11/02/2015	10:47	-129.990	46.179	0	1745.10	0	2.1770	0	34.5440	0	27.602	0	1723.543	0	40.2	4	12.2	4	-1E+10	1	-1E+10	1	-1E+10	1	-1E+10	1	-1E+10	1	-1E+10	1
4901784	12	C	11/02/2015	10:47	-129.990	46.179	0	1749.40	0	2.1730	0	34.5450	0	27.603	0	1727.772	0	40.4	4	12.2	4	-1E+10	1	-1E+10	1	-1E+10	1	-1E+10	1	-1E+10	1	-1E+10	1
4901784	12	C	11/02/2015	10:47	-129.990	46.179	0	1755.10	0	2.1670	0	34.5450	0	27.603	0	1733.378	0	40.7	4	12.3	4	-1E+10	1	-1E+10	1	-1E+10	1	-1E+10	1	-1E+10	1	-1E+10	1
4901784	12	C	11/02/2015	10:47	-129.990	46.179	0	1760.70	0	2.1630	0	34.5460	0	27.604	0	1738.886	0	41.2	4	12.5	4	-1E+10	1	-1E+10	1	-1E+10	1	-1E+10	1	-1E+10	1	-1E+10	1
4901784	12	C	11/02/2015	10:47	-129.990	46.179	0	1765.60	0	2.1520	0	34.5480	0	27.607	0	1743.705	0	41.6	4	12.6	4	-1E+10	1	-1E+10	1	-1E+10	1	-1E+10	1	-1E+10	1	-1E+10	1
4901784	12	C	11/02/2015	10:47	-129.990	46.179	0	1770.50	0	2.1480	0	34.5480	0	27.607	0	1748.524	0	41.9	4	12.7	4	-1E+10	1	-1E+10	1	-1E+10	1	-1E+10	1	-1E+10	1	-1E+10	1
4901784	12	C	11/02/2015	10:47	-129.990	46.179	0	1775.50	0	2.1410	0	34.5490	0	27.609	0	1753.442	0	42.3	4	12.8	4	-1E+10	1	-1E+10	1	-1E+10	1	-1E+10	1	-1E+10	1	-1E+10	1
4901784	12	C	11/02/2015	10:47	-129.990	46.179	0	1780.60	0	2.1360	0	34.5500	0	27.610	0	1758.457	0	42.7	4	12.9	4	-1E+10	1	-1E+10	1	-1E+10	1	-1E+10	1	-1E+10	1	-1E+10	1
4901784	12	C	11/02/2015	10:47	-129.990	46.179	0	1785.60	0	2.1270	0	34.5520	0	27.612	0	1763.374	0	43.2	4	13.1	4	-1E+10	1	-1E+10	1	-1E+10	1	-1E+10	1	-1E+10	1	-1E+10	1
4901784	12	C	11/02/2015	10:47	-129.990	46.179	0	1790.70	0	2.1230	0	34.5520	0	27.613	0	1768.389	0	43.5	4	13.2	4	-1E+10	1	-1E+10	1	-1E+10	1	-1E+10	1	-1E+10	1	-1E+10	1
4901784	12	C	11/02/2015	10:47	-129.990	46.179	0	1795.00	0	2.1170	0	34.5540	0	27.615	0	1772.618	0	43.9	4	13.3	4	-1E+10	1	-1E+10	1	-1E+10	1	-1E+10	1	-1E+10	1	-1E+10	1
4901784	12	C	11/02/2015	10:47	-129.990	46.179	0	1799.40	0	2.1150	0	34.5540	0	27.615	0	1776.945	0	44.1	4	13.3	4	-1E+10	1	-1E+10	1	-1E+10	1	-1E+10	1	-1E+10	1	-1E+10	1
4901784	12	C	11/02/2015	10:47	-129.990	46.179	0	1804.60	0	2.1100	0	34.5550	0	27.616	0	1782.058	0	44.3	4	13.4	4	-1E+10	1	-1E+10	1	-1E+10	1	-1E+10	1	-1E+10	1	-1E+10	1
4901784	12	C	11/02/2015	10:47	-129.990	46.179	0	1809.80	0	2.1080	0	34.5550	0	27.616	0	1787.171	0	44.5	4	13.4	4	-1E+10	1	-1E+10	1	-1E+10	1	-1E+10	1	-1E+10	1	-1E+10	1
4901784	12	C	11/02/2015	10:47	-129.990	46.179	0	1815.00	0	2.1070	0	34.5560	0	27.617	0	1792.284	0	44.7	4	13.5	4	-1E+10	1	-1E+10	1	-1E+10	1	-1E+10	1	-1E+10	1	-1E+10	1
4901784	12	C	11/02/2015	10:47	-129.990	46.179	0	1820.20	0	2.1040	0	34.5560	0	27.617	0	1797.397	0	44.9	4	13.6	4	-1E+10	1	-1E+10	1	-1E+10	1	-1E+10	1	-1E+10	1	-1E+10	1
4901784	12	C	11/02/2015	10:47	-129.990	46.179	0	1825.60	0	2.1030	0	34.5570	0	27.618	0	1802.707	0	45.1	4	13.6	4	-1E+10	1	-1E+10	1	-1E+10	1	-1E+10	1	-1E+10	1	-1E+10	1
4901784	12	C	11/02/2015	10:47	-129.990	46.179	0	1830.00	0	2.1020	0	34.5570	0	27.618	0	1807.033	0	45.3	4	13.7	4	-1E+10	1	-1E+10	1	-1E+10	1	-1E+10	1	-1E+10	1	-1E+10	1
4901784	12	C	11/02/2015	10:47	-129.990	46.179	0	1834.60	0	2.0970	0	34.5580	0	27.620	0	1811.555	0	45.8	4	13.8	4	-1E+10	1	-1E+10	1	-1E+10	1	-1E+10	1	-1E+10	1	-1E+10	1
4901784	12	C	11/02/2015	10:47	-129.990	46.179	0	1839.90	0	2.0890	0	34.5590	0	27.621	0	1816.766	0	46.2	4	13.9	4	-1E+10	1	-1E+10	1	-1E+10	1	-1E+10	1	-1E+10	1	-1E+10	1
4901784	12	C	11/02/2015	10:47	-129.990	46.179	0	1845.30	0	2.0880	0	34.5600	0	27.622	0	1822.075	0	46.4	4	14.0	4	-1E+10	1	-1E+10	1	-1E+10	1	-1E+10	1	-1E+10	1	-1E+10	1
4901784	12	C	11/02/2015	10:47	-129.990	46.179	0	1850.50	0	2.0850	0	34.5600	0	27.622	0	1827.187	0	46.7	4	14.1	4	-1E+10	1	-1E+10	1	-1E+10	1	-1E+10	1	-1E+10	1	-1E+10	1
4901784	12	C	11/02/2015	10:47	-129.990	46.179	0	1854.90	0	2.0810	0	34.5610	0	27.623	0	1831.513	0	46.9	4	14.2	4	-1E+10	1	-1E+10	1	-1E+10	1	-1E+10	1	-1E+10	1	-1E+10	1
4901784	12	C	11/02/2015	10:47	-129.990	46.179	0	1859.30	0	2.0800	0	34.5610	0	27.624	0	1835.839	0	47.0	4	14.2	4	-1E+10	1	-1E+10	1	-1E+10	1	-1E+10	1	-1E+10	1	-1E+10	1
4901784	12	C	11/02/2015	10:47	-129.990	46.179	0	1864.60	0	2.0780	0	34.5610	0	27.624	0	1841.049	0	47.3	4	14.3	4	-1E+10	1	-1E+10	1	-1E+10	1	-1E+10	1	-1E+10	1	-1E+10	1
4901784	12	C	11/02/2015	10:47	-129.990	46.179	0	1869.90	0	2.0740	0	34.5620	0	27.625	0	1846.259	0	47.8	4	14.4	4	-1E+10	1	-1E+10	1	-1E+10	1	-1E+10	1	-1E+10	1	-1E+10	1
4901784	12	C	11/02/2015	10:47	-129.990	46.179	0	1875.20	0	2.0690	0	34.5630	0	27.626	0	1851.469	0	48.2	4	14.6	4	-1E+10	1	-1E+10	1	-1E+10	1	-1E+10	1	-1E+10	1	-1E+10	1
4901784	12	C	11/02/2015	10:47	-129.990	46.179	0	1880.50	0	2.0670	0	34.5640	0	27.627	0	1856.679	0	48.6	4	14.7	4	-1E+10	1	-1E+10	1	-1E+10	1	-1E+10	1	-1E+10	1	-1E+10	1
4901784	12	C	11/02/2015	10:47	-129.990	46.179	0	1885.00	0	2.0610	0	34.5650	0	27.628	0	1861.102	0	49.2	4	14.9	4	-1E+10	1	-1E+10	1	-1E+10	1	-1E+10	1	-1E+10	1	-1E+10	1
4901784	12	C	11/02/2015	10:47	-129.990	46.179	0	1889.40	0	2.0530	0	34.5670	0	27.631	0	1865.427	0	49.7	4	15.0	4	-1E+10	1	-1E+10	1	-1E+10	1	-1E+10	1	-1E+10	1	-1E+10	1
4901784	12	C	11/02/2015	10:47	-129.990	46.179	0	1894.70	0	2.0440	0	34.5690	0	27.633	0	1870.636	0	50.2	4	15.1	4	-1E+10	1	-1E+10	1	-1E+10	1	-1E+10	1	-1E+10	1	-1E+10	1
4901784	12	C	11/02/2015	10:47	-129.990	46.179	0	1899.90	0	2.0410	0	34.5690	0	27.633	0	1875.747	0	50.4	4	15.2	4	-1E+10	1	-1E+10	1	-1E+10	1	-1E+10	1	-1E+10	1	-1E+10	1
4901784	12	C	11/02/2015	10:47	-129.990	46.179	0	1905.20	0	2.0400	0	34.5690	0	27.633	0	1880.957	0	50.5	4	15.3	4	-1E+10	1	-1E+10	1	-1E+10	1	-1E+10	1	-1E+10	1	-1E+10	1
4901784	12	C	11/02/2015	10:47	-129.990	46.179	0	1910.40	0	2.0390	0	34.5690	0	27.633	0	1886.067	0	50.7	4	15.3	4	-1E+10	1	-1E+10	1	-1E+10	1	-1E+10	1	-1E+10	1	-1E+10	1
4901784	12	C	11/02/2015	10:47	-129.990	46.179	0	1915.50	0	2.0360	0	34.5700	0	27.635	0	1891.080	0	51.1	4	15.4	4	-1E+10	1	-1E+10	1	-1E+10	1	-1E+10	1	-1E+10	1	-1E+10	1
4901784	12	C	11/02/2015	10:47	-129.990	46.179	0	1920.60	0	2.0310	0	34.5710	0	27.636	0	1896.092	0	51.5	4	15.6	4	-1E+10	1	-1E+10	1	-1E+10	1	-1E+10	1	-1E+10	1	-1E+10	1
4901784	12	C	11/02/2015	10:47	-129.990	46.179	0	1924.90	0	2.0260	0	34.5720	0	27.637	0	1900.318	0	52.0	4	15.7	4	-1E+10	1	-1E+10	1	-1E+10	1	-1E+10	1	-1E+10	1	-1E+10	1
4901784	12	C	11/02/2015	10:47	-129.990	46.179	0	1929.20	0	2.0180	0	34.5730	0	27.638	0	1904.544	0	52.4	4	15.8	4	-1E+10	1	-1E+10	1	-1E+10	1	-1E+10	1	-1E+10	1	-1E+10	1
4901784	12	C	11/02/2015	10:47	-129.990	46.179	0	1934.20	0	2.0160	0	34.5730	0	27.639	0	1909.458	0	52.6	4	15.9	4	-1E+10	1	-1E+10	1	-1E+10	1	-1E+10	1	-1E+10	1	-1E+10	1
4901784	12	C	11/02/2015	10:47	-129.990	46.179	0	1940.00	0	2.0120	0	34.5740	0	27.640	0	1915.157	0	53.1	4	16.0	4	-1E+10	1	-1E+10	1	-1E+10	1	-1E+10	1	-1E+10	1	-1E+10	1
4901784	12	C	11/02/2015	10:47	-129.990	46.179	0	1945.70	0	2.0040	0	34.5750	0	27.641	0	1920.759	0	53.7	4	16.2	4	-1E+10	1	-1E+10	1	-1E+10	1	-1E+10	1	-1E+10	1	-1E+10	1
4901784	12	C	11/02/2015	10:47	-129.990	46.179	0	1950.70	0	1.9990	0	34.5760	0	27.642	0	1925.672	0	54.1	4	16.3	4	-1E+10	1	-1E+10	1	-1E+10	1	-1E+10	1	-1E+10	1	-1E+10	1
4901784	12	C	11/02/2015	10:47	-129.990	46.179	0	1955.70	0	1.9940	0	34.5770	0	27.644	0	1930.585	0	54.6	4	16.5	4	-1E+10	1	-1E+10	1	-1E+10	1	-1E+10	1	-1E+10	1	-1E+10	1
4901784	12	C	11/02/2015	10:47	-129.990	46.179	0	1960.00	0	1.9850	0	34.5790	0	27.646	0	1934.810	0	55.2	4	16.6	4	-1E+10	1	-1E+10	1	-1E+10	1	-1E+10	1	-1E+10	1	-1E+10	1
4901784	12	C	11/02/2015	10:47	-129.990	46.179	0	1964.30	0	1.9780	0	34.5800	0	27.647	0	1939.036	0	55.6	4	16.8	4	-1E+10	1	-1E+10	1	-1E+10	1	-1E+10	1	-1E+10	1	-1E+10	1
4901784	12	C	11/02/2015	10:47	-129.990	46.179	0	1969.50	0	1.9740	0	34.5810	0	27.648	0	1944.145	0	56.0	4	16.9	4	-1E+10	1	-1E+10	1	-1E+10	1	-1E+10	1	-1E+10	1	-1E+10	1
4901784	12	C	11/02/2015	10:47	-129.990	46.179	0	1974.70	0	1.9680	0	34.5820	0	27.650	0	1949.254	0	56.4	4	17.0	4	-1E+10	1	-1E+10	1	-1E+10	1	-1E+10	1	-1E+10	1	-1E+10	1
4901784	12	C	11/02/2015	10:47	-129.990	46.179	0	1979.90	0	1.9650	0	34.5830	0	27.651	0	1954.363	0	56.6	4	17.1	4	-1E+10	1	-1E+10	1	-1E+10	1	-1E+10	1	-1E+10	1	-1E+10	1
4901784	12	C	11/02/2015	10:47	-129.990	46.179	0	1984.50	0	1.9640	0	34.5830	0	27.651	0	1958.883	0	56.8	4	17.1	4	-1E+10	1	-1E+10	1	-1E+10	1	-1E+10	1	-1E+10	1	-1E+10	1
4901784	12	C	11/02/2015	10:47	-129.990	46.179	0	1989.30	0	1.9610	0	34.5830	0	27.651	0	1963.599	0	57.0	4	17.2	4	-1E+10	1	-1E+10	1	-1E+10	1	-1E+10	1	-1E+10	1	-1E+10	1
4901784	12	C	11/02/2015	10:47	-129.990	46.179	0	1994.20	0	1.9590	0	34.5830	0	27.651	0	1968.413	0	57.1	4	17.2	4	-1E+10	1	-1E+10	1	-1E+10	1	-1E+10	1	-1E+10	1	-1E+10	1
4901784	12	C	11/02/2015	10:47	-129.990	46.179	0	1999.90	0	1.9580	0	34.5840	0	27.652	0	1974.013	0	57.2	4	17.2	4	-1E+10	1	-1E+10	1	-1E+10	1	-1E+10	1	-1E+10	1	-1E+10	1
4901784	12	C	11/02/2015	10:47	-129.990	46.179	0	2005.80	0	1.9590	0	34.5840	0	27.652	0	1979.809	0	57.2	4	17.2	4	-1E+10	1	-1E+10	1	-1E+10	1	-1E+10	1	-1E+10	1	-1E+10	1
4901784	12	C	11/02/2015	10:47	-129.990	46.179	0	2010.00	0	1.9590	0	34.5840	0	27.652	0	1983.935	0	57.2	4	17.2	4	-1E+10	1	-1E+10	1	-1E+10	1	-1E+10	1	-1E+10	1	-1E+10	1
4901784	12	C	11/02/2015	10:47	-129.990	46.179	0	2014.20	0	1.9600	0	34.5840	0	27.652	0	1988.061	0	57.2	4	17.2	4	-1E+10	1	-1E+10	1	-1E+10	1	-1E+10	1	-1E+10	1	-1E+10	1
4901784	12	C	11/02/2015	10:47	-129.990	46.179	0	2019.90	0	1.9590	0	34.5840	0	27.652	0	1993.661	0	57.3	4	17.2	4	-1E+10	1	-1E+10	1	-1E+10	1	-1E+10	1	-1E+10	1	-1E+10	1
4901784	12	C	11/02/2015	10:47	-129.990	46.179	0																										
4901784	13	C	11/12/2015	10:46	-130.131	46.073	0	2.20	0	15.1200	0	32.2830	0	23.853	0	2.182	0	242.5	4	96.3	4	-1E+10	1	-1E+10	1	-1E+10	1	-1E+10	1	-1E+10	1	-1E+10	1
4901784	13	C	11/12/2015	10:46	-130.131	46.073	0	2.90	0	15.1200	0	32.2830	0	23.853	0	2.876	0	242.5	4	96.3	4	-1E+10	1	-1E+10	1	-1E+10	1	-1E+10	1	-1E+10	1	-1E+10	1
4901784	13	C	11/12/2015	10:46	-130.131	46.073	0	3.70	0	15.1210	0	32.2840	0	23.854	0	3.670	0	242.4	4	96.2	4	-1E+10	1	-1E+10	1	-1E+10	1	-1E+10	1	-1E+10	1	-1E+10	1
4901784	13	C	11/12/2015	10:46	-130.131	46.073	0	4.60	0	15.1200	0	32.2830	0	23.853	0	4.562	0	242.3	4	96.2	4	-1E+10	1	-1E+10	1	-1E+10	1	-1E+10	1	-1E+10	1	-1E+10	1
4901784	13	C	11/12/2015	10:46	-130.131	46.073	0	5.70	0	15.1200	0	32.2830	0	23.853	0	5.653	0	242.3	4	96.2	4	-1E+10	1	-1E+10	1	-1E+10	1	-1E+10	1	-1E+10	1	-1E+10	1
4901784	13	C	11/12/2015	10:46	-130.131	46.073	0	6.50	0	15.1190	0	32.2830	0	23.854	0	6.446	0	242.3	4	96.2	4	-1E+10	1	-1E+10	1	-1E+10	1	-1E+10	1	-1E+10	1	-1E+10	1
4901784	13	C	11/12/2015	10:46	-130.131	46.073	0	7.60	0	15.1210	0	32.2830	0	23.853	0	7.537	0	242.1	4	96.1	4	-1E+10	1	-1E+10	1	-1E+10	1	-1E+10	1	-1E+10	1	-1E+10	1
4901784	13	C	11/12/2015	10:46	-130.131	46.073	0	8.60	0	15.1210	0	32.2830	0	23.853	0	8.529	0	242.2	4	96.1	4	-1E+10	1	-1E+10	1	-1E+10	1	-1E+10	1	-1E+10	1	-1E+10	1
4901784	13	C	11/12/2015	10:46	-130.131	46.073	0	9.80	0	15.1220	0	32.2830	0	23.853	0	9.719	0	242.1	4	96.1	4	-1E+10	1	-1E+10	1	-1E+10	1	-1E+10	1	-1E+10	1	-1E+10	1
4901784	13	C	11/12/2015	10:46	-130.131	46.073	0	11.00	0	15.1250	0	32.2830	0	23.852	0	10.909	0	242.1	4	96.1	4	-1E+10	1	-1E+10	1	-1E+10	1	-1E+10	1	-1E+10	1	-1E+10	1
4901784	13	C	11/12/2015	10:46	-130.131	46.073	0	12.40	0	15.1230	0	32.2830	0	23.853	0	12.298	0	241.8	4	96.0	4	-1E+10	1	-1E+10	1	-1E+10	1	-1E+10	1	-1E+10	1	-1E+10	1
4901784	13	C	11/12/2015	10:46	-130.131	46.073	0	13.90	0	15.1230	0	32.2830	0	23.853	0	13.785	0	241.8	4	96.0	4	-1E+10	1	-1E+10	1	-1E+10	1	-1E+10	1	-1E+10	1	-1E+10	1
4901784	13	C	11/12/2015	10:46	-130.131	46.073	0	15.60	0	15.1240	0	32.2830	0	23.853	0	15.471	0	241.9	4	96.0	4	-1E+10	1	-1E+10	1	-1E+10	1	-1E+10	1	-1E+10	1	-1E+10	1
4901784	13	C	11/12/2015	10:46	-130.131	46.073	0	17.40	0	15.1280	0	32.2840	0	23.853	0	17.256	0	241.5	4	95.9	4	-1E+10	1	-1E+10	1	-1E+10	1	-1E+10	1	-1E+10	1	-1E+10	1
4901784	13	C	11/12/2015	10:46	-130.131	46.073	0	19.40	0	15.1290	0	32.2840	0	23.853	0	19.240	0	241.5	4	95.9	4	-1E+10	1	-1E+10	1	-1E+10	1	-1E+10	1	-1E+10	1	-1E+10	1
4901784	13	C	11/12/2015	10:46	-130.131	46.073	0	21.20	0	15.1290	0	32.2840	0	23.853	0	21.025	0	241.4	4	95.9	4	-1E+10	1	-1E+10	1	-1E+10	1	-1E+10	1	-1E+10	1	-1E+10	1
4901784	13	C	11/12/2015	10:46	-130.131	46.073	0	23.00	0	15.1290	0	32.2840	0	23.853	0	22.810	0	241.2	4	95.8	4	-1E+10	1	-1E+10	1	-1E+10	1	-1E+10	1	-1E+10	1	-1E+10	1
4901784	13	C	11/12/2015	10:46	-130.131	46.073	0	24.90	0	15.1300	0	32.2840	0	23.852	0	24.694	0	241.1	4	95.7	4	-1E+10	1	-1E+10	1	-1E+10	1	-1E+10	1	-1E+10	1	-1E+10	1
4901784	13	C	11/12/2015	10:46	-130.131	46.073	0	26.70	0	15.1300	0	32.2840	0	23.853	0	26.479	0	241.1	4	95.7	4	-1E+10	1	-1E+10	1	-1E+10	1	-1E+10	1	-1E+10	1	-1E+10	1
4901784	13	C	11/12/2015	10:46	-130.131	46.073	0	28.40	0	15.1300	0	32.2840	0	23.853	0	28.165	0	241.0	4	95.7	4	-1E+10	1	-1E+10	1	-1E+10	1	-1E+10	1	-1E+10	1	-1E+10	1
4901784	13	C	11/12/2015	10:46	-130.131	46.073	0	30.00	0	15.1310	0	32.2840	0	23.852	0	29.751	0	240.8	4	95.6	4	-1E+10	1	-1E+10	1	-1E+10	1	-1E+10	1	-1E+10	1	-1E+10	1
4901784	13	C	11/12/2015	10:46	-130.131	46.073	0	31.70	0	15.1310	0	32.2840	0	23.852	0	31.437	0	240.5	4	95.5	4	-1E+10	1	-1E+10	1	-1E+10	1	-1E+10	1	-1E+10	1	-1E+10	1
4901784	13	C	11/12/2015	10:46	-130.131	46.073	0	33.40	0	15.1230	0	32.2860	0	23.856	0	33.123	0	240.6	4	95.5	4	-1E+10	1	-1E+10	1	-1E+10	1	-1E+10	1	-1E+10	1	-1E+10	1
4901784	13	C	11/12/2015	10:46	-130.131	46.073	0	35.10	0	15.1280	0	32.2830	0	23.852	0	34.809	0	240.6	4	95.5	4	-1E+10	1	-1E+10	1	-1E+10	1	-1E+10	1	-1E+10	1	-1E+10	1
4901784	13	C	11/12/2015	10:46	-130.131	46.073	0	36.80	0	15.1310	0	32.2840	0	23.853	0	36.494	0	240.4	4	95.4	4	-1E+10	1	-1E+10	1	-1E+10	1	-1E+10	1	-1E+10	1	-1E+10	1
4901784	13	C	11/12/2015	10:46	-130.131	46.073	0	38.60	0	15.1310	0	32.2830	0	23.852	0	38.279	0	240.3	4	95.4	4	-1E+10	1	-1E+10	1	-1E+10	1	-1E+10	1	-1E+10	1	-1E+10	1
4901784	13	C	11/12/2015	10:46	-130.131	46.073	0	40.40	0	15.1280	0	32.2830	0	23.853	0	40.064	0	240.2	4	95.4	4	-1E+10	1	-1E+10	1	-1E+10	1	-1E+10	1	-1E+10	1	-1E+10	1
4901784	13	C	11/12/2015	10:46	-130.131	46.073	0	42.20	0	15.1290	0	32.2820	0	23.852	0	41.849	0	240.1	4	95.3	4	-1E+10	1	-1E+10	1	-1E+10	1	-1E+10	1	-1E+10	1	-1E+10	1
4901784	13	C	11/12/2015	10:46	-130.131	46.073	0	43.90	0	15.1260	0	32.2830	0	23.853	0	43.535	0	240.2	4	95.4	4	-1E+10	1	-1E+10	1	-1E+10	1	-1E+10	1	-1E+10	1	-1E+10	1
4901784	13	C	11/12/2015	10:46	-130.131	46.073	0	45.60	0	15.1300	0	32.2790	0	23.849	0	45.220	0	240.5	4	95.5	4	-1E+10	1	-1E+10	1	-1E+10	1	-1E+10	1	-1E+10	1	-1E+10	1
4901784	13	C	11/12/2015	10:46	-130.131	46.073	0	47.30	0	15.1170	0	32.2790	0	23.852	0	46.906	0	240.6	4	95.5	4	-1E+10	1	-1E+10	1	-1E+10	1	-1E+10	1	-1E+10	1	-1E+10	1
4901784	13	C	11/12/2015	10:46	-130.131	46.073	0	49.10	0	15.0980	0	32.2740	0	23.852	0	48.691	0	241.3	4	95.8	4	-1E+10	1	-1E+10	1	-1E+10	1	-1E+10	1	-1E+10	1	-1E+10	1
4901784	13	C	11/12/2015	10:46	-130.131	46.073	0	49.50	0	15.0960	0	32.2740	0	23.853	0	49.087	0	241.6	4	95.9	4	-1E+10	1	-1E+10	1	-1E+10	1	-1E+10	1	-1E+10	1	-1E+10	1
4901784	13	C	11/12/2015	10:46	-130.131	46.073	0	50.80	0	15.0790	0	32.2730	0	23.856	0	50.376	0	242.6	4	96.2	4	-1E+10	1	-1E+10	1	-1E+10	1	-1E+10	1	-1E+10	1	-1E+10	1
4901784	13	C	11/12/2015	10:46	-130.131	46.073	0	52.00	0	15.0340	0	32.2570	0	23.853	0	51.566	0	244.2	4	96.8	4	-1E+10	1	-1E+10	1	-1E+10	1	-1E+10	1	-1E+10	1	-1E+10	1
4901784	13	C	11/12/2015	10:46	-130.131	46.073	0	53.30	0	14.0720	0	32.3040	0	24.092	0	52.855	0	247.8	4	96.4	4	-1E+10	1	-1E+10	1	-1E+10	1	-1E+10	1	-1E+10	1	-1E+10	1
4901784	13	C	11/12/2015	10:46	-130.131	46.073	0	54.70	0	13.6730	0	32.2650	0	24.143	0	54.243	0	252.6	4	97.4	4	-1E+10	1	-1E+10	1	-1E+10	1	-1E+10	1	-1E+10	1	-1E+10	1
4901784	13	C	11/12/2015	10:46	-130.131	46.073	0	56.10	0	13.2150	0	32.2800	0	24.246	0	55.632	0	254.2	4	97.1	4	-1E+10	1	-1E+10	1	-1E+10	1	-1E+10	1	-1E+10	1	-1E+10	1
4901784	13	C	11/12/2015	10:46	-130.131	46.073	0	57.50	0	13.0050	0	32.2790	0	24.287	0	57.020	0	255.8	4	97.3	4	-1E+10	1	-1E+10	1	-1E+10	1	-1E+10	1	-1E+10	1	-1E+10	1
4901784	13	C	11/12/2015	10:46	-130.131	46.073	0	59.10	0	12.4130	0	32.3140	0	24.428	0	58.606	0	258.2	4	97.1	4	-1E+10	1	-1E+10	1	-1E+10	1	-1E+10	1	-1E+10	1	-1E+10	1
4901784	13	C	11/12/2015	10:46	-130.131	46.073	0	60.70	0	12.3800	0	32.3010	0	24.424	0	60.192	0	257.4	4	96.7	4	-1E+10	1	-1E+10	1	-1E+10	1	-1E+10	1	-1E+10	1	-1E+10	1
4901784	13	C	11/12/2015	10:46	-130.131	46.073	0	62.30	0	11.7140	0	32.3910	0	24.618	0	61.779	0	259.0	4	96.0	4	-1E+10	1	-1E+10	1	-1E+10	1	-1E+10	1	-1E+10	1	-1E+10	1
4901784	13	C	11/12/2015	10:46	-130.131	46.073	0	64.00	0	11.6390	0	32.4090	0	24.646	0	63.464	0	258.9	4	95.8	4	-1E+10	1	-1E+10	1	-1E+10	1	-1E+10	1	-1E+10	1	-1E+10	1
4901784	13	C	11/12/2015	10:46	-130.131	46.073	0	65.70	0	11.6370	0	32.4130	0	24.649	0	65.150	0	258.0	4	95.5	4	-1E+10	1	-1E+10	1	-1E+10	1	-1E+10	1	-1E+10	1	-1E+10	1
4901784	13	C	11/12/2015	10:46	-130.131	46.073	0	67.40	0	11.5720	0	32.4310	0	24.675	0	66.835	0	256.4	4	94.8	4	-1E+10	1	-1E+10	1	-1E+10	1	-1E+10	1	-1E+10	1	-1E+10	1
4901784	13	C	11/12/2015	10:46	-130.131	46.073	0	69.30	0	11.4900	0	32.4420	0	24.699	0	68.719	0	255.4	4	94.2	4	-1E+10	1	-1E+10	1	-1E+10	1	-1E+10	1	-1E+10	1	-1E+10	1
4901784	13	C	11/12/2015	10:46	-130.131	46.073	0	70.90	0	11.4610	0	32.4630	0	24.720	0	70.305	0	253.7	4	93.6	4	-1E+10	1	-1E+10	1	-1E+10	1	-1E+10	1	-1E+10	1	-1E+10	1
4901784	13	C	11/12/2015	10:46	-130.131	46.073	0	72.80	0	11.3540	0	32.4820	0	24.754	0	72.189	0	251.8	4	92.7	4	-1E+10	1	-1E+10	1	-1E+10	1	-1E+10	1	-1E+10	1	-1E+10	1
4901784	13	C	11/12/2015	10:46	-130.131	46.073	0	74.70	0	11.2370	0	32.5100	0	24.797	0	74.073	0	250.4	4	92.0	4	-1E+10	1	-1E+10	1	-1E+10	1	-1E+10	1	-1E+10	1	-1E+10	1
4901784	13	C	11/12/2015	10:46	-130.131	46.073	0	76.60	0	11.1730	0	32.5030	0	24.803	0	75.957	0	249.0	4	91.3	4	-1E+10	1	-1E+10	1	-1E+10	1	-1E+10	1	-1E+10	1	-1E+10	1
4901784	13	C	11/12/2015	10:46	-130.131	46.073	0	78.40	0	11.0810	0	32.5090	0	24.824	0	77.741	0	247.5	4	90.6	4	-1E+10	1	-1E+10	1	-1E+10	1	-1E+10	1	-1E+10	1	-1E+10	1
4901784	13	C	11/12/2015	10:46	-130.131	46.073	0	80.40	0	10.9860	0	32.5230	0	24.852	0	79.724	0	246.8	4	90.2	4	-1E+10	1	-1E+10	1	-1E+10	1	-1E+10	1	-1E+10	1	-1E+10	1
4901784	13	C	11/12/2015	10:46	-130.131	46.073	0	82.20	0	10.8710	0	32.5480	0	24.891	0	81.508	0	245.5	4	89.5	4	-1E+10	1	-1E+10	1	-1E+10	1	-1E+10	1	-1E+10	1	-1E+10	1
4901784	13	C	11/12/2015	10:46	-130.131	46.073	0	84.00	0	10.7800	0	32.5560	0	24.914	0	83.293	0	244.5	4	89.0	4	-1E+10	1	-1E+10	1	-1E+10	1	-1E+10	1	-1E+10	1	-1E+10	1
4901784	13	C	11/12/2015	10:46	-130.131	46.073	0	85.90	0	10.7100	0	32.5650	0	24.933	0	85.177	0	242.8	4	88.2	4	-1E+10	1	-1E+10	1	-1E+10	1	-1E+10	1	-1E+10	1	-1E+10	1
4901784	13	C	11/12/2015	10:46	-130.131	46.073	0	87.70	0	10.6510	0	32.5710	0	24.948	0	86.961	0	242.0	4	87.8	4	-1E+10	1	-1E+10	1	-1E+10	1	-1E+10	1	-1E+10	1	-1E+10	1
4901784	13	C	11/12/2015	10:46	-130.131	46.073	0	90.10	0	10.5980	0	32.5770	0	24.962	0	89.340	0	240.5	4	87.2	4	-1E+10	1	-1E+10	1	-1E+10	1	-1E+10	1	-1E+10	1	-1E+10	1
4901784	13	C	11/12/2015	10:46	-130.131	46.073	0	92.00	0	10.5790	0	32.5820	0	24.969	0	91.224	0	238.9	4	86.6	4	-1E+10	1	-1E+10	1	-1E+10	1	-1E+10	1	-1E+10	1	-1E+10	1
4901784	13	C	11/12/2015	10:46	-130.131	46.073	0	93.60	0	10.5540	0	32.5850	0	24.975	0	92.810	0	237.0	4	85.9	4	-1E+10	1	-1E+10	1	-1E+10	1	-1E+10	1	-1E+10	1	-1E+10	1
4901784	13	C	11/12/2015	10:46	-130.131	46.073	0	95.10	0	10.5240	0	32.5900	0	24.984	0	94.297	0	235.1	4	85.1	4	-1E+10	1	-1E+10	1	-1E+10	1	-1E+10	1	-1E+10	1	-1E+10	1
4901784	13	C	11/12/2015	10:46	-130.131	46.073	0	96.70	0	10.4480	0	32.6030	0	25.008	0	95.883	0	232.9	4	84.2	4	-1E+10	1	-1E+10	1	-1E+10	1	-1E+10	1	-1E+10	1	-1E+10	1
4901784	13	C	11/12/2015	10:46	-130.131	46.073	0	98.20	0	10.3710	0	32.6190	0	25.033	0	97.370	0	230.6	4	83.2	4	-1E+10	1	-1E+10	1	-1E+10	1	-1E+10	1	-1E+10	1	-1E+10	1
4901784	13	C	11/12/2015	10:46	-130.131	46.073	0	99.80	0	10.3600	0	32.6190	0	25.035	0	98.956	0	227.9	4	82.2	4	-1E+10	1	-1E+10	1	-1E+10	1	-1E+10	1	-1E+10	1	-1E+10	1
4901784	13	C	11/12/2015	10:46	-130.131	46.073	0	102.20	0	10.2440	0	32.6310	0	25.064	0	101.335	0	222.9	4	80.2	4	-1E+10	1	-1E+10	1	-1E+10	1	-1E+10	1	-1E+10	1	-1E+10	1
4901784	13	C	11/12/2015	10:46	-130.131	46.073	0	104.70	0	9.9850	0	32.6570	0	25.128	0	103.813	0	217.7	4	77.9	4	-1E+10	1	-1E+10	1	-1E+10	1	-1E+10	1	-1E+10	1	-1E+10	1
4901784	13	C	11/12/2015	10:46	-130.131	46.073	0	107.30	0	9.7740	0	32.6550	0	25.161	0	106.391	0	214.8	4	76.5	4	-1E+10	1	-1E+10	1	-1E+10	1	-1E+10	1	-1E+10	1	-1E+10	1
4901784	13	C	11/12/2015	10:46	-130.131	46.073	0	109.80	0	9.6810	0	32.6660	0	25.185	0	108.869	0	211.2	4	75.1	4	-1E+10	1	-1E+10	1	-1E+10	1	-1E+10	1	-1E+10	1	-1E+10	1
4901784	13	C	11/12/2015	10:46	-130.131	46.073	0	112.10	0	9.4070	0	32.7310	0	25.280	0	111.149	0	208.4	4	73.7	4	-1E+10	1	-1E+10	1	-1E+10	1	-1E+10	1	-1E+10	1	-1E+10	1
4901784	13	C	11/12/2015	10:46	-130.131	46.073	0	115.30	0	9.2360	0	32.7730	0	25.340	0	114.321	0	205.4	4	72.4	4	-1E+10	1	-1E+10	1	-1E+10	1	-1E+10	1	-1E+10	1	-1E+10	1
4901784	13	C	11/12/2015	10:46	-130.131	46.073	0	117.70	0	9.1440	0	32.8160	0	25.388	0	116.700	0	202.8	4	71.4	4	-1E+10	1	-1E+10	1	-1E+10	1	-1E+10	1	-1E+10	1	-1E+10	1
4901784	13	C	11/12/2015	10:46	-130.131	46.073	0	119.70	0	9.0140	0	32.8420	0	25.429	0	118.682	0	200.6	4	70.4	4	-1E+10	1	-1E+10	1	-1E+10	1	-1E+10	1	-1E+10	1	-1E+10	1
4901784	13	C	11/12/2015	10:46	-130.131	46.073	0	122.20	0	8.7970	0	32.9100	0	25.516	0	121.160	0	198.1	4	69.2	4	-1E+10	1	-1E+10	1	-1E+10	1	-1E+10	1	-1E+10	1	-1E+10	1
4901784	13	C	11/12/2015	10:46	-130.131	46.073	0	125.10	0	8.5180	0	32.9890	0	25.620	0	124.035	0	195.7	4	68.0	4	-1E+10	1	-1E+10	1	-1E+10	1	-1E+10	1	-1E+10	1	-1E+10	1
4901784	13	C	11/12/2015	10:46	-130.131	46.073	0	127.40	0	8.4030	0	33.0180	0	25.660	0	126.314	0	194.1	4	67.3	4	-1E+10	1	-1E+10	1	-1E+10	1	-1E+10	1	-1E+10	1	-1E+10	1
4901784	13	C	11/12/2015	10:46	-130.131	46.073	0	129.60	0	8.3180	0	33.0470	0	25.696	0	128.495	0	193.4	4	66.9	4	-1E+10	1	-1E+10	1	-1E+10	1	-1E+10	1	-1E+10	1	-1E+10	1
4901784	13	C	11/12/2015	10:46	-130.131	46.073	0	132.70	0	8.2480	0	33.0830	0	25.734	0	131.567	0	192.2	4	66.4	4	-1E+10	1	-1E+10	1	-1E+10	1	-1E+10	1	-1E+10	1	-1E+10	1
4901784	13	C	11/12/2015	10:46	-130.131	46.073	0	135.20	0	8.1650	0	33.1540	0	25.802	0	134.045	0	190.9	4	65.9	4	-1E+10	1	-1E+10	1	-1E+10	1	-1E+10	1	-1E+10	1	-1E+10	1
4901784	13	C	11/12/2015	10:46	-130.131	46.073	0	136.90	0	8.1130	0	33.1810	0	25.831	0	135.730	0	189.5	4	65.3	4	-1E+10	1	-1E+10	1	-1E+10	1	-1E+10	1	-1E+10	1	-1E+10	1
4901784	13	C	11/12/2015	10:46	-130.131	46.073	0	139.70	0	8.0460	0	33.2220	0	25.873	0	138.505	0	186.7	4	64.3	4	-1E+10	1	-1E+10	1	-1E+10	1	-1E+10	1	-1E+10	1	-1E+10	1
4901784	13	C	11/12/2015	10:46	-130.131	46.073	0	142.40	0	8.0080	0	33.2360	0	25.890	0	141.181	0	185.7	4	63.9	4	-1E+10	1	-1E+10	1	-1E+10	1	-1E+10	1	-1E+10	1	-1E+10	1
4901784	13	C	11/12/2015	10:46	-130.131	46.073	0	144.70	0	7.9960	0	33.2430	0	25.897	0	143.461	0	185.7	4	63.9	4	-1E+10	1	-1E+10	1	-1E+10	1	-1E+10	1	-1E+10	1	-1E+10	1
4901784	13	C	11/12/2015	10:46	-130.131	46.073	0	147.80	0	7.9490	0	33.2840	0	25.936	0	146.533	0	187.0	4	64.3	4	-1E+10	1	-1E+10	1	-1E+10	1	-1E+10	1	-1E+10	1	-1E+10	1
4901784	13	C	11/12/2015	10:46	-130.131	46.073	0	150.10	0	7.9620	0	33.2950	0	25.943	0	148.813	0	189.3	4	65.1	4	-1E+10	1	-1E+10	1	-1E+10	1	-1E+10	1	-1E+10	1	-1E+10	1
4901784	13	C	11/12/2015	10:46	-130.131	46.073	0	152.60	0	7.9710	0	33.3230	0	25.964	0	151.290	0	188.7	4	64.9	4	-1E+10	1	-1E+10	1	-1E+10	1	-1E+10	1	-1E+10	1	-1E+10	1
4901784	13	C	11/12/2015	10:46	-130.131	46.073	0	155.20	0	7.9370	0	33.3460	0	25.987	0	153.867	0	187.2	4	64.4	4	-1E+10	1	-1E+10	1	-1E+10	1	-1E+10	1	-1E+10	1	-1E+10	1
4901784	13	C	11/12/2015	10:46	-130.131	46.073	0	156.90	0	7.9360	0	33.3800	0	26.014	0	155.552	0	186.8	4	64.3	4	-1E+10	1	-1E+10	1	-1E+10	1	-1E+10	1	-1E+10	1	-1E+10	1
4901784	13	C	11/12/2015	10:46	-130.131	46.073	0	159.80	0	7.9030	0	33.4540	0	26.076	0	158.426	0	184.9	4	63.6	4	-1E+10	1	-1E+10	1	-1E+10	1	-1E+10	1	-1E+10	1	-1E+10	1
4901784	13	C	11/12/2015	10:46	-130.131	46.073	0	162.50	0	7.8810	0	33.4750	0	26.096	0	161.102	0	183.5	4	63.1	4	-1E+10	1	-1E+10	1	-1E+10	1	-1E+10	1	-1E+10	1	-1E+10	1
4901784	13	C	11/12/2015	10:46	-130.131	46.073	0	164.90	0	7.8760	0	33.4810	0	26.102	0	163.480	0	182.5	4	62.7	4	-1E+10	1	-1E+10	1	-1E+10	1	-1E+10	1	-1E+10	1	-1E+10	1
4901784	13	C	11/12/2015	10:46	-130.131	46.073	0	167.30	0	7.8740	0	33.4820	0	26.103	0	165.858	0	181.0	4	62.2	4	-1E+10	1	-1E+10	1	-1E+10	1	-1E+10	1	-1E+10	1	-1E+10	1
4901784	13	C	11/12/2015	10:46	-130.131	46.073	0	169.70	0	7.8680	0	33.5030	0	26.120	0	168.237	0	178.6	4	61.4	4	-1E+10	1	-1E+10	1	-1E+10	1	-1E+10	1	-1E+10	1	-1E+10	1
4901784	13	C	11/12/2015	10:46	-130.131	46.073	0	172.10	0	7.8520	0	33.5300	0	26.144	0	170.615	0	176.1	4	60.5	4	-1E+10	1	-1E+10	1	-1E+10	1	-1E+10	1	-1E+10	1	-1E+10	1
4901784	13	C	11/12/2015	10:46	-130.131	46.073	0	174.60	0	7.8360	0	33.5790	0	26.185	0	173.092	0	173.0	4	59.4	4	-1E+10	1	-1E+10	1	-1E+10	1	-1E+10	1	-1E+10	1	-1E+10	1
4901784	13	C	11/12/2015	10:46	-130.131	46.073	0	177.90	0	7.7950	0	33.6140	0	26.218	0	176.362	0	169.2	4	58.1	4	-1E+10	1	-1E+10	1	-1E+10	1	-1E+10	1	-1E+10	1	-1E+10	1
4901784	13	C	11/12/2015	10:46	-130.131	46.073	0	180.40	0	7.7810	0	33.6210	0	26.226	0	178.840	0	167.1	4	57.4	4	-1E+10	1	-1E+10	1	-1E+10	1	-1E+10	1	-1E+10	1	-1E+10	1
4901784	13	C	11/12/2015	10:46	-130.131	46.073	0	182.90	0	7.7660	0	33.6380	0	26.241	0	181.317	0	165.0	4	56.6	4	-1E+10	1	-1E+10	1	-1E+10	1	-1E+10	1	-1E+10	1	-1E+10	1
4901784	13	C	11/12/2015	10:46	-130.131	46.073	0	185.40	0	7.7400	0	33.6610	0	26.263	0	183.794	0	163.3	4	56.0	4	-1E+10	1	-1E+10	1	-1E+10	1	-1E+10	1	-1E+10	1	-1E+10	1
4901784	13	C	11/12/2015	10:46	-130.131	46.073	0	187.90	0	7.7330	0	33.6670	0	26.269	0	186.272	0	161.9	4	55.6	4	-1E+10	1	-1E+10	1	-1E+10	1	-1E+10	1	-1E+10	1	-1E+10	1
4901784	13	C	11/12/2015	10:46	-130.131	46.073	0	190.30	0	7.7280	0	33.6740	0	26.275	0	188.650	0	159.9	4	54.9	4	-1E+10	1	-1E+10	1	-1E+10	1	-1E+10	1	-1E+10	1	-1E+10	1
4901784	13	C	11/12/2015	10:46	-130.131	46.073	0	192.10	0	7.7160	0	33.6800	0	26.282	0	190.433	0	158.0	4	54.2	4	-1E+10	1	-1E+10	1	-1E+10	1	-1E+10	1	-1E+10	1	-1E+10	1
4901784	13	C	11/12/2015	10:46	-130.131	46.073	0	194.60	0	7.6750	0	33.7040	0	26.306	0	192.910	0	155.9	4	53.4	4	-1E+10	1	-1E+10	1	-1E+10	1	-1E+10	1	-1E+10	1	-1E+10	1
4901784	13	C	11/12/2015	10:46	-130.131	46.073	0	197.20	0	7.6450	0	33.7300	0	26.331	0	195.487	0	154.1	4	52.8	4	-1E+10	1	-1E+10	1	-1E+10	1	-1E+10	1	-1E+10	1	-1E+10	1
4901784	13	C	11/12/2015	10:46	-130.131	46.073	0	199.80	0	7.6240	0	33.7380	0	26.340	0	198.063	0	152.1	4	52.1	4	-1E+10	1	-1E+10	1	-1E+10	1	-1E+10	1	-1E+10	1	-1E+10	1
4901784	13	C	11/12/2015	10:46	-130.131	46.073	0	202.30	0	7.5780	0	33.7560	0	26.361	0	200.540	0	150.0	4	51.3	4	-1E+10	1	-1E+10	1	-1E+10	1	-1E+10	1	-1E+10	1	-1E+10	1
4901784	13	C	11/12/2015	10:46	-130.131	46.073	0	204.90	0	7.5590	0	33.7630	0	26.369	0	203.116	0	148.7	4	50.9	4	-1E+10	1	-1E+10	1	-1E+10	1	-1E+10	1	-1E+10	1	-1E+10	1
4901784	13	C	11/12/2015	10:46	-130.131	46.073	0	207.50	0	7.5370	0	33.7740	0	26.381	0	205.692	0	147.0	4	50.3	4	-1E+10	1	-1E+10	1	-1E+10	1	-1E+10	1	-1E+10	1	-1E+10	1
4901784	13	C	11/12/2015	10:46	-130.131	46.073	0	210.00	0	7.5040	0	33.7840	0	26.394	0	208.169	0	144.7	4	49.4	4	-1E+10	1	-1E+10	1	-1E+10	1	-1E+10	1	-1E+10	1	-1E+10	1
4901784	13	C	11/12/2015	10:46	-130.131	46.073	0	212.50	0	7.4650	0	33.7900	0	26.404	0	210.646	0	142.7	4	48.7	4	-1E+10	1	-1E+10	1	-1E+10	1	-1E+10	1	-1E+10	1	-1E+10	1
4901784	13	C	11/12/2015	10:46	-130.131	46.073	0	215.00	0	7.4300	0	33.8010	0	26.418	0	213.123	0	141.1	4	48.1	4	-1E+10	1	-1E+10	1	-1E+10	1	-1E+10	1	-1E+10	1	-1E+10	1
4901784	13	C	11/12/2015	10:46	-130.131	46.073	0	217.50	0	7.4040	0	33.8080	0	26.427	0	215.600	0	139.8	4	47.7	4	-1E+10	1	-1E+10	1	-1E+10	1	-1E+10	1	-1E+10	1	-1E+10	1
4901784	13	C	11/12/2015	10:46	-130.131	46.073	0	220.10	0	7.3710	0	33.8150	0	26.437	0	218.175	0	138.5	4	47.2	4	-1E+10	1	-1E+10	1	-1E+10	1	-1E+10	1	-1E+10	1	-1E+10	1
4901784	13	C	11/12/2015	10:46	-130.131	46.073	0	222.60	0	7.3380	0	33.8220	0	26.447	0	220.652	0	137.3	4	46.7	4	-1E+10	1	-1E+10	1	-1E+10	1	-1E+10	1	-1E+10	1	-1E+10	1
4901784	13	C	11/12/2015	10:46	-130.131	46.073	0	225.20	0	7.3160	0	33.8270	0	26.454	0	223.228	0	136.5	4	46.4	4	-1E+10	1	-1E+10	1	-1E+10	1	-1E+10	1	-1E+10	1	-1E+10	1
4901784	13	C	11/12/2015	10:46	-130.131	46.073	0	227.70	0	7.3020	0	33.8290	0	26.458	0	225.705	0	135.4	4	46.1	4	-1E+10	1	-1E+10	1	-1E+10	1	-1E+10	1	-1E+10	1	-1E+10	1
4901784	13	C	11/12/2015	10:46	-130.131	46.073	0	230.20	0	7.2870	0	33.8310	0	26.462	0	228.182	0	134.0	4	45.6	4	-1E+10	1	-1E+10	1	-1E+10	1	-1E+10	1	-1E+10	1	-1E+10	1
4901784	13	C	11/12/2015	10:46	-130.131	46.073	0	232.70	0	7.2570	0	33.8340	0	26.468	0	230.658	0	132.3	4	45.0	4	-1E+10	1	-1E+10	1	-1E+10	1	-1E+10	1	-1E+10	1	-1E+10	1
4901784	13	C	11/12/2015	10:46	-130.131	46.073	0	235.20	0	7.1820	0	33.8480	0	26.490	0	233.135	0	130.3	4	44.2	4	-1E+10	1	-1E+10	1	-1E+10	1	-1E+10	1	-1E+10	1	-1E+10	1
4901784	13	C	11/12/2015	10:46	-130.131	46.073	0	237.80	0	7.1270	0	33.8550	0	26.503	0	235.711	0	129.1	4	43.8	4	-1E+10	1	-1E+10	1	-1E+10	1	-1E+10	1	-1E+10	1	-1E+10	1
4901784	13	C	11/12/2015	10:46	-130.131	46.073	0	240.30	0	7.0790	0	33.8600	0	26.513	0	238.187	0	128.2	4	43.4	4	-1E+10	1	-1E+10	1	-1E+10	1	-1E+10	1	-1E+10	1	-1E+10	1
4901784	13	C	11/12/2015	10:46	-130.131	46.073	0	242.80	0	7.0480	0	33.8630	0	26.520	0	240.664	0	127.0	4	43.0	4	-1E+10	1	-1E+10	1	-1E+10	1	-1E+10	1	-1E+10	1	-1E+10	1
4901784	13	C	11/12/2015	10:46	-130.131	46.073	0	245.30	0	7.0080	0	33.8680	0	26.529	0	243.140	0	125.7	4	42.5	4	-1E+10	1	-1E+10	1	-1E+10	1	-1E+10	1	-1E+10	1	-1E+10	1
4901784	13	C	11/12/2015	10:46	-130.131	46.073	0	247.80	0	6.9760	0	33.8750	0	26.539	0	245.617	0	124.6	4	42.1	4	-1E+10	1	-1E+10	1	-1E+10	1	-1E+10	1	-1E+10	1	-1E+10	1
4901784	13	C	11/12/2015	10:46	-130.131	46.073	0	250.30	0	6.9340	0	33.8760	0	26.546	0	248.093	0	123.8	4	41.8	4	-1E+10	1	-1E+10	1	-1E+10	1	-1E+10	1	-1E+10	1	-1E+10	1
4901784	13	C	11/12/2015	10:46	-130.131	46.073	0	252.90	0	6.9310	0	33.8740	0	26.545	0	250.669	0	122.4	4	41.3	4	-1E+10	1	-1E+10	1	-1E+10	1	-1E+10	1	-1E+10	1	-1E+10	1
4901784	13	C	11/12/2015	10:46	-130.131	46.073	0	255.40	0	6.8970	0	33.8760	0	26.551	0	253.145	0	120.8	4	40.7	4	-1E+10	1	-1E+10	1	-1E+10	1	-1E+10	1	-1E+10	1	-1E+10	1
4901784	13	C	11/12/2015	10:46	-130.131	46.073	0	257.90	0	6.8030	0	33.8830	0	26.569	0	255.622	0	119.2	4	40.1	4	-1E+10	1	-1E+10	1	-1E+10	1	-1E+10	1	-1E+10	1	-1E+10	1
4901784	13	C	11/12/2015	10:46	-130.131	46.073	0	259.60	0	6.7910	0	33.8860	0	26.573	0	257.306	0	118.0	4	39.7	4	-1E+10	1	-1E+10	1	-1E+10	1	-1E+10	1	-1E+10	1	-1E+10	1
4901784	13	C	11/12/2015	10:46	-130.131	46.073	0	262.10	0	6.7620	0	33.8880	0	26.578	0	259.782	0	116.3	4	39.1	4	-1E+10	1	-1E+10	1	-1E+10	1	-1E+10	1	-1E+10	1	-1E+10	1
4901784	13	C	11/12/2015	10:46	-130.131	46.073	0	265.40	0	6.7280	0	33.8920	0	26.586	0	263.051	0	114.0	4	38.3	4	-1E+10	1	-1E+10	1	-1E+10	1	-1E+10	1	-1E+10	1	-1E+10	1
4901784	13	C	11/12/2015	10:46	-130.131	46.073	0	268.00	0	6.7120	0	33.8950	0	26.591	0	265.626	0	112.6	4	37.8	4	-1E+10	1	-1E+10	1	-1E+10	1	-1E+10	1	-1E+10	1	-1E+10	1
4901784	13	C	11/12/2015	10:46	-130.131	46.073	0	270.40	0	6.6900	0	33.8970	0	26.595	0	268.003	0	111.2	4	37.3	4	-1E+10	1	-1E+10	1	-1E+10	1	-1E+10	1	-1E+10	1	-1E+10	1
4901784	13	C	11/12/2015	10:46	-130.131	46.073	0	272.80	0	6.6730	0	33.8980	0	26.598	0	270.380	0	109.7	4	36.8	4	-1E+10	1	-1E+10	1	-1E+10	1	-1E+10	1	-1E+10	1	-1E+10	1
4901784	13	C	11/12/2015	10:46	-130.131	46.073	0	275.20	0	6.6500	0	33.9010	0	26.604	0	272.757	0	107.9	4	36.2	4	-1E+10	1	-1E+10	1	-1E+10	1	-1E+10	1	-1E+10	1	-1E+10	1
4901784	13	C	11/12/2015	10:46	-130.131	46.073	0	277.70	0	6.6240	0	33.9030	0	26.609	0	275.234	0	105.8	4	35.4	4	-1E+10	1	-1E+10	1	-1E+10	1	-1E+10	1	-1E+10	1	-1E+10	1
4901784	13	C	11/12/2015	10:46	-130.131	46.073	0	280.20	0	6.5930	0	33.9060	0	26.615	0	277.710	0	103.8	4	34.8	4	-1E+10	1	-1E+10	1	-1E+10	1	-1E+10	1	-1E+10	1	-1E+10	1
4901784	13	C	11/12/2015	10:46	-130.131	46.073	0	282.70	0	6.5580	0	33.9070	0	26.621	0	280.186	0	101.4	4	33.9	4	-1E+10	1	-1E+10	1	-1E+10	1	-1E+10	1	-1E+10	1	-1E+10	1
4901784	13	C	11/12/2015	10:46	-130.131	46.073	0	285.30	0	6.5160	0	33.9110	0	26.629	0	282.761	0	99.1	4	33.1	4	-1E+10	1	-1E+10	1	-1E+10	1	-1E+10	1	-1E+10	1	-1E+10	1
4901784	13	C	11/12/2015	10:46	-130.131	46.073	0	287.80	0	6.4580	0	33.9170	0	26.642	0	285.237	0	97.0	4	32.4	4	-1E+10	1	-1E+10	1	-1E+10	1	-1E+10	1	-1E+10	1	-1E+10	1
4901784	13	C	11/12/2015	10:46	-130.131	46.073	0	290.40	0	6.4350	0	33.9180	0	26.646	0	287.812	0	95.5	4	31.9	4	-1E+10	1	-1E+10	1	-1E+10	1	-1E+10	1	-1E+10	1	-1E+10	1
4901784	13	C	11/12/2015	10:46	-130.131	46.073	0	293.00	0	6.4200	0	33.9160	0	26.646	0	290.387	0	93.6	4	31.2	4	-1E+10	1	-1E+10	1	-1E+10	1	-1E+10	1	-1E+10	1	-1E+10	1
4901784	13	C	11/12/2015	10:46	-130.131	46.073	0	294.70	0	6.3900	0	33.9190	0	26.652	0	292.071	0	92.0	4	30.7	4	-1E+10	1	-1E+10	1	-1E+10	1	-1E+10	1	-1E+10	1	-1E+10	1
4901784	13	C	11/12/2015	10:46	-130.131	46.073	0	297.30	0	6.3480	0	33.9230	0	26.661	0	294.645	0	89.7	4	29.9	4	-1E+10	1	-1E+10	1	-1E+10	1	-1E+10	1	-1E+10	1	-1E+10	1
4901784	13	C	11/12/2015	10:46	-130.131	46.073	0	299.90	0	6.3020	0	33.9250	0	26.668	0	297.220	0	87.5	4	29.1	4	-1E+10	1	-1E+10	1	-1E+10	1	-1E+10	1	-1E+10	1	-1E+10	1
4901784	13	C	11/12/2015	10:46	-130.131	46.073	0	302.60	0	6.2490	0	33.9290	0	26.678	0	299.894	0	85.3	4	28.4	4	-1E+10	1	-1E+10	1	-1E+10	1	-1E+10	1	-1E+10	1	-1E+10	1
4901784	13	C	11/12/2015	10:46	-130.131	46.073	0	305.30	0	6.2070	0	33.9320	0	26.686	0	302.568	0	83.2	4	27.6	4	-1E+10	1	-1E+10	1	-1E+10	1	-1E+10	1	-1E+10	1	-1E+10	1
4901784	13	C	11/12/2015	10:46	-130.131	46.073	0	307.10	0	6.1780	0	33.9340	0	26.691	0	304.351	0	81.8	4	27.1	4	-1E+10	1	-1E+10	1	-1E+10	1	-1E+10	1	-1E+10	1	-1E+10	1
4901784	13	C	11/12/2015	10:46	-130.131	46.073	0	309.80	0	6.1580	0	33.9350	0	26.695	0	307.025	0	79.4	4	26.3	4	-1E+10	1	-1E+10	1	-1E+10	1	-1E+10	1	-1E+10	1	-1E+10	1
4901784	13	C	11/12/2015	10:46	-130.131	46.073	0	312.30	0	6.0850	0	33.9430	0	26.710	0	309.500	0	76.9	4	25.5	4	-1E+10	1	-1E+10	1	-1E+10	1	-1E+10	1	-1E+10	1	-1E+10	1
4901784	13	C	11/12/2015	10:46	-130.131	46.073	0	315.10	0	6.0380	0	33.9480	0	26.720	0	312.273	0	75.6	4	25.0	4	-1E+10	1	-1E+10	1	-1E+10	1	-1E+10	1	-1E+10	1	-1E+10	1
4901784	13	C	11/12/2015	10:46	-130.131	46.073	0	317.80	0	6.0230	0	33.9480	0	26.722	0	314.947	0	74.5	4	24.6	4	-1E+10	1	-1E+10	1	-1E+10	1	-1E+10	1	-1E+10	1	-1E+10	1
4901784	13	C	11/12/2015	10:46	-130.131	46.073	0	319.60	0	6.0130	0	33.9470	0	26.723	0	316.729	0	73.7	4	24.4	4	-1E+10	1	-1E+10	1	-1E+10	1	-1E+10	1	-1E+10	1	-1E+10	1
4901784	13	C	11/12/2015	10:46	-130.131	46.073	0	322.00	0	5.9660	0	33.9520	0	26.732	0	319.106	0	72.6	4	24.0	4	-1E+10	1	-1E+10	1	-1E+10	1	-1E+10	1	-1E+10	1	-1E+10	1
4901784	13	C	11/12/2015	10:46	-130.131	46.073	0	324.70	0	5.9360	0	33.9550	0	26.739	0	321.780	0	71.6	4	23.6	4	-1E+10	1	-1E+10	1	-1E+10	1	-1E+10	1	-1E+10	1	-1E+10	1
4901784	13	C	11/12/2015	10:46	-130.131	46.073	0	327.80	0	5.9160	0	33.9550	0	26.741	0	324.849	0	70.6	4	23.3	4	-1E+10	1	-1E+10	1	-1E+10	1	-1E+10	1	-1E+10	1	-1E+10	1
4901784	13	C	11/12/2015	10:46	-130.131	46.073	0	330.20	0	5.9100	0	33.9560	0	26.743	0	327.226	0	69.8	4	23.0	4	-1E+10	1	-1E+10	1	-1E+10	1	-1E+10	1	-1E+10	1	-1E+10	1
4901784	13	C	11/12/2015	10:46	-130.131	46.073	0	332.60	0	5.8820	0	33.9580	0	26.748	0	329.602	0	68.7	4	22.6	4	-1E+10	1	-1E+10	1	-1E+10	1	-1E+10	1	-1E+10	1	-1E+10	1
4901784	13	C	11/12/2015	10:46	-130.131	46.073	0	335.00	0	5.8570	0	33.9590	0	26.752	0	331.979	0	67.7	4	22.3	4	-1E+10	1	-1E+10	1	-1E+10	1	-1E+10	1	-1E+10	1	-1E+10	1
4901784	13	C	11/12/2015	10:46	-130.131	46.073	0	337.50	0	5.8290	0	33.9600	0	26.756	0	334.454	0	66.8	4	22.0	4	-1E+10	1	-1E+10	1	-1E+10	1	-1E+10	1	-1E+10	1	-1E+10	1
4901784	13	C	11/12/2015	10:46	-130.131	46.073	0	340.00	0	5.8110	0	33.9620	0	26.760	0	336.930	0	66.0	4	21.7	4	-1E+10	1	-1E+10	1	-1E+10	1	-1E+10	1	-1E+10	1	-1E+10	1
4901784	13	C	11/12/2015	10:46	-130.131	46.073	0	342.40	0	5.7780	0	33.9640	0	26.765	0	339.306	0	65.3	4	21.5	4	-1E+10	1	-1E+10	1	-1E+10	1	-1E+10	1	-1E+10	1	-1E+10	1
4901784	13	C	11/12/2015	10:46	-130.131	46.073	0	344.90	0	5.7670	0	33.9640	0	26.767	0	341.781	0	64.6	4	21.2	4	-1E+10	1	-1E+10	1	-1E+10	1	-1E+10	1	-1E+10	1	-1E+10	1
4901784	13	C	11/12/2015	10:46	-130.131	46.073	0	347.40	0	5.7500	0	33.9660	0	26.770	0	344.257	0	63.6	4	20.9	4	-1E+10	1	-1E+10	1	-1E+10	1	-1E+10	1	-1E+10	1	-1E+10	1
4901784	13	C	11/12/2015	10:46	-130.131	46.073	0	350.00	0	5.7290	0	33.9690	0	26.775	0	346.831	0	62.9	4	20.6	4	-1E+10	1	-1E+10	1	-1E+10	1	-1E+10	1	-1E+10	1	-1E+10	1
4901784	13	C	11/12/2015	10:46	-130.131	46.073	0	352.50	0	5.7200	0	33.9690	0	26.776	0	349.306	0	62.3	4	20.4	4	-1E+10	1	-1E+10	1	-1E+10	1	-1E+10	1	-1E+10	1	-1E+10	1
4901784	13	C	11/12/2015	10:46	-130.131	46.073	0	355.10	0	5.7160	0	33.9690	0	26.777	0	351.880	0	61.5	4	20.2	4	-1E+10	1	-1E+10	1	-1E+10	1	-1E+10	1	-1E+10	1	-1E+10	1
4901784	13	C	11/12/2015	10:46	-130.131	46.073	0	357.60	0	5.6920	0	33.9720	0	26.782	0	354.356	0	60.5	4	19.9	4	-1E+10	1	-1E+10	1	-1E+10	1	-1E+10	1	-1E+10	1	-1E+10	1
4901784	13	C	11/12/2015	10:46	-130.131	46.073	0	360.20	0	5.6720	0	33.9740	0	26.786	0	356.930	0	59.8	4	19.6	4	-1E+10	1	-1E+10	1	-1E+10	1	-1E+10	1	-1E+10	1	-1E+10	1
4901784	13	C	11/12/2015	10:46	-130.131	46.073	0	362.70	0	5.6570	0	33.9760	0	26.790	0	359.405	0	59.1	4	19.4	4	-1E+10	1	-1E+10	1	-1E+10	1	-1E+10	1	-1E+10	1	-1E+10	1
4901784	13	C	11/12/2015	10:46	-130.131	46.073	0	365.30	0	5.6460	0	33.9760	0	26.791	0	361.979	0	58.5	4	19.2	4	-1E+10	1	-1E+10	1	-1E+10	1	-1E+10	1	-1E+10	1	-1E+10	1
4901784	13	C	11/12/2015	10:46	-130.131	46.073	0	367.90	0	5.6300	0	33.9780	0	26.795	0	364.553	0	58.0	4	19.0	4	-1E+10	1	-1E+10	1	-1E+10	1	-1E+10	1	-1E+10	1	-1E+10	1
4901784	13	C	11/12/2015	10:46	-130.131	46.073	0	370.50	0	5.6050	0	33.9790	0	26.798	0	367.127	0	57.5	4	18.8	4	-1E+10	1	-1E+10	1	-1E+10	1	-1E+10	1	-1E+10	1	-1E+10	1
4901784	13	C	11/12/2015	10:46	-130.131	46.073	0	372.20	0	5.5930	0	33.9790	0	26.800	0	368.810	0	57.1	4	18.7	4	-1E+10	1	-1E+10	1	-1E+10	1	-1E+10	1	-1E+10	1	-1E+10	1
4901784	13	C	11/12/2015	10:46	-130.131	46.073	0	374.80	0	5.5710	0	33.9820	0	26.805	0	371.384	0	56.9	4	18.6	4	-1E+10	1	-1E+10	1	-1E+10	1	-1E+10	1	-1E+10	1	-1E+10	1
4901784	13	C	11/12/2015	10:46	-130.131	46.073	0	377.50	0	5.5430	0	33.9820	0	26.808	0	374.057	0	56.9	4	18.6	4	-1E+10	1	-1E+10	1	-1E+10	1	-1E+10	1	-1E+10	1	-1E+10	1
4901784	13	C	11/12/2015	10:46	-130.131	46.073	0	380.10	0	5.5240	0	33.9810	0	26.810	0	376.631	0	56.9	4	18.6	4	-1E+10	1	-1E+10	1	-1E+10	1	-1E+10	1	-1E+10	1	-1E+10	1
4901784	13	C	11/12/2015	10:46	-130.131	46.073	0	382.70	0	5.5040	0	33.9810	0	26.812	0	379.205	0	56.6	4	18.5	4	-1E+10	1	-1E+10	1	-1E+10	1	-1E+10	1	-1E+10	1	-1E+10	1
4901784	13	C	11/12/2015	10:46	-130.131	46.073	0	384.50	0	5.4910	0	33.9810	0	26.814	0	380.987	0	56.3	4	18.4	4	-1E+10	1	-1E+10	1	-1E+10	1	-1E+10	1	-1E+10	1	-1E+10	1
4901784	13	C	11/12/2015	10:46	-130.131	46.073	0	387.20	0	5.4660	0	33.9820	0	26.818	0	383.660	0	56.3	4	18.4	4	-1E+10	1	-1E+10	1	-1E+10	1	-1E+10	1	-1E+10	1	-1E+10	1
4901784	13	C	11/12/2015	10:46	-130.131	46.073	0	389.90	0	5.4490	0	33.9820	0	26.820	0	386.332	0	56.2	4	18.3	4	-1E+10	1	-1E+10	1	-1E+10	1	-1E+10	1	-1E+10	1	-1E+10	1
4901784	13	C	11/12/2015	10:46	-130.131	46.073	0	392.60	0	5.4500	0	33.9840	0	26.821	0	389.005	0	56.3	4	18.4	4	-1E+10	1	-1E+10	1	-1E+10	1	-1E+10	1	-1E+10	1	-1E+10	1
4901784	13	C	11/12/2015	10:46	-130.131	46.073	0	395.40	0	5.3790	0	33.9810	0	26.827	0	391.777	0	57.4	4	18.7	4	-1E+10	1	-1E+10	1	-1E+10	1	-1E+10	1	-1E+10	1	-1E+10	1
4901784	13	C	11/12/2015	10:46	-130.131	46.073	0	397.10	0	5.3510	0	33.9830	0	26.832	0	393.460	0	58.3	4	19.0	4	-1E+10	1	-1E+10	1	-1E+10	1	-1E+10	1	-1E+10	1	-1E+10	1
4901784	13	C	11/12/2015	10:46	-130.131	46.073	0	399.90	0	5.2130	0	33.9700	0	26.838	0	396.231	0	59.0	4	19.1	4	-1E+10	1	-1E+10	1	-1E+10	1	-1E+10	1	-1E+10	1	-1E+10	1
4901784	13	C	11/12/2015	10:46	-130.131	46.073	0	402.60	0	5.1950	0	33.9680	0	26.838	0	398.904	0	58.5	4	19.0	4	-1E+10	1	-1E+10	1	-1E+10	1	-1E+10	1	-1E+10	1	-1E+10	1
4901784	13	C	11/12/2015	10:46	-130.131	46.073	0	405.30	0	5.2000	0	33.9710	0	26.840	0	401.577	0	57.9	4	18.8	4	-1E+10	1	-1E+10	1	-1E+10	1	-1E+10	1	-1E+10	1	-1E+10	1
4901784	13	C	11/12/2015	10:46	-130.131	46.073	0	408.10	0	5.2150	0	33.9760	0	26.843	0	404.348	0	57.4	4	18.6	4	-1E+10	1	-1E+10	1	-1E+10	1	-1E+10	1	-1E+10	1	-1E+10	1
4901784	13	C	11/12/2015	10:46	-130.131	46.073	0	410.00	0	5.2110	0	33.9700	0	26.838	0	406.229	0	57.2	4	18.6	4	-1E+10	1	-1E+10	1	-1E+10	1	-1E+10	1	-1E+10	1	-1E+10	1
4901784	13	C	11/12/2015	10:46	-130.131	46.073	0	412.80	0	5.1710	0	33.9710	0	26.844	0	409.000	0	56.7	4	18.4	4	-1E+10	1	-1E+10	1	-1E+10	1	-1E+10	1	-1E+10	1	-1E+10	1
4901784	13	C	11/12/2015	10:46	-130.131	46.073	0	415.60	0	5.1860	0	33.9780	0	26.848	0	411.772	0	56.0	4	18.2	4	-1E+10	1	-1E+10	1	-1E+10	1	-1E+10	1	-1E+10	1	-1E+10	1
4901784	13	C	11/12/2015	10:46	-130.131	46.073	0	417.50	0	5.1120	0	33.9770	0	26.855	0	413.652	0	56.2	4	18.2	4	-1E+10	1	-1E+10	1	-1E+10	1	-1E+10	1	-1E+10	1	-1E+10	1
4901784	13	C	11/12/2015	10:46	-130.131	46.073	0	419.40	0	5.0880	0	33.9720	0	26.854	0	415.533	0	55.9	4	18.1	4	-1E+10	1	-1E+10	1	-1E+10	1	-1E+10	1	-1E+10	1	-1E+10	1
4901784	13	C	11/12/2015	10:46	-130.131	46.073	0	422.20	0	5.0410	0	33.9710	0	26.859	0	418.304	0	54.6	4	17.6	4	-1E+10	1	-1E+10	1	-1E+10	1	-1E+10	1	-1E+10	1	-1E+10	1
4901784	13	C	11/12/2015	10:46	-130.131	46.073	0	425.10	0	5.0940	0	33.9800	0	26.860	0	421.175	0	52.6	4	17.0	4	-1E+10	1	-1E+10	1	-1E+10	1	-1E+10	1	-1E+10	1	-1E+10	1
4901784	13	C	11/12/2015	10:46	-130.131	46.073	0	427.60	0	5.1130	0	33.9920	0	26.867	0	423.649	0	52.2	4	16.9	4	-1E+10	1	-1E+10	1	-1E+10	1	-1E+10	1	-1E+10	1	-1E+10	1
4901784	13	C	11/12/2015	10:46	-130.131	46.073	0	430.40	0	5.0920	0	33.9910	0	26.869	0	426.420	0	52.4	4	16.9	4	-1E+10	1	-1E+10	1	-1E+10	1	-1E+10	1	-1E+10	1	-1E+10	1
4901784	13	C	11/12/2015	10:46	-130.131	46.073	0	432.80	0	5.0780	0	33.9900	0	26.870	0	428.796	0	52.4	4	17.0	4	-1E+10	1	-1E+10	1	-1E+10	1	-1E+10	1	-1E+10	1	-1E+10	1
4901784	13	C	11/12/2015	10:46	-130.131	46.073	0	435.30	0	5.0620	0	33.9890	0	26.871	0	431.270	0	52.5	4	17.0	4	-1E+10	1	-1E+10	1	-1E+10	1	-1E+10	1	-1E+10	1	-1E+10	1
4901784	13	C	11/12/2015	10:46	-130.131	46.073	0	437.80	0	5.0260	0	33.9860	0	26.872	0	433.744	0	52.4	4	16.9	4	-1E+10	1	-1E+10	1	-1E+10	1	-1E+10	1	-1E+10	1	-1E+10	1
4901784	13	C	11/12/2015	10:46	-130.131	46.073	0	440.30	0	5.0260	0	33.9860	0	26.872	0	436.218	0	51.7	4	16.7	4	-1E+10	1	-1E+10	1	-1E+10	1	-1E+10	1	-1E+10	1	-1E+10	1
4901784	13	C	11/12/2015	10:46	-130.131	46.073	0	442.70	0	4.9890	0	33.9850	0	26.876	0	438.594	0	50.8	4	16.4	4	-1E+10	1	-1E+10	1	-1E+10	1	-1E+10	1	-1E+10	1	-1E+10	1
4901784	13	C	11/12/2015	10:46	-130.131	46.073	0	445.20	0	4.9910	0	33.9870	0	26.877	0	441.068	0	49.5	4	16.0	4	-1E+10	1	-1E+10	1	-1E+10	1	-1E+10	1	-1E+10	1	-1E+10	1
4901784	13	C	11/12/2015	10:46	-130.131	46.073	0	447.70	0	4.9730	0	33.9970	0	26.887	0	443.542	0	48.4	4	15.6	4	-1E+10	1	-1E+10	1	-1E+10	1	-1E+10	1	-1E+10	1	-1E+10	1
4901784	13	C	11/12/2015	10:46	-130.131	46.073	0	450.30	0	4.9550	0	33.9990	0	26.891	0	446.115	0	47.8	4	15.4	4	-1E+10	1	-1E+10	1	-1E+10	1	-1E+10	1	-1E+10	1	-1E+10	1
4901784	13	C	11/12/2015	10:46	-130.131	46.073	0	452.90	0	4.9110	0	34.0000	0	26.897	0	448.688	0	46.9	4	15.1	4	-1E+10	1	-1E+10	1	-1E+10	1	-1E+10	1	-1E+10	1	-1E+10	1
4901784	13	C	11/12/2015	10:46	-130.131	46.073	0	454.70	0	4.9030	0	34.0010	0	26.898	0	450.469	0	46.0	4	14.8	4	-1E+10	1	-1E+10	1	-1E+10	1	-1E+10	1	-1E+10	1	-1E+10	1
4901784	13	C	11/12/2015	10:46	-130.131	46.073	0	457.30	0	4.9230	0	34.0080	0	26.902	0	453.042	0	44.4	4	14.3	4	-1E+10	1	-1E+10	1	-1E+10	1	-1E+10	1	-1E+10	1	-1E+10	1
4901784	13	C	11/12/2015	10:46	-130.131	46.073	0	459.90	0	4.9480	0	34.0130	0	26.903	0	455.615	0	42.9	4	13.8	4	-1E+10	1	-1E+10	1	-1E+10	1	-1E+10	1	-1E+10	1	-1E+10	1
4901784	13	C	11/12/2015	10:46	-130.131	46.073	0	462.50	0	4.9640	0	34.0270	0	26.912	0	458.188	0	42.9	4	13.8	4	-1E+10	1	-1E+10	1	-1E+10	1	-1E+10	1	-1E+10	1	-1E+10	1
4901784	13	C	11/12/2015	10:46	-130.131	46.073	0	465.00	0	4.8430	0	34.0150	0	26.916	0	460.662	0	43.4	4	14.0	4	-1E+10	1	-1E+10	1	-1E+10	1	-1E+10	1	-1E+10	1	-1E+10	1
4901784	13	C	11/12/2015	10:46	-130.131	46.073	0	467.60	0	4.8450	0	34.0170	0	26.918	0	463.235	0	42.8	4	13.8	4	-1E+10	1	-1E+10	1	-1E+10	1	-1E+10	1	-1E+10	1	-1E+10	1
4901784	13	C	11/12/2015	10:46	-130.131	46.073	0	470.20	0	4.8460	0	34.0200	0	26.920	0	465.808	0	42.0	4	13.5	4	-1E+10	1	-1E+10	1	-1E+10	1	-1E+10	1	-1E+10	1	-1E+10	1
4901784	13	C	11/12/2015	10:46	-130.131	46.073	0	472.80	0	4.8260	0	34.0220	0	26.924	0	468.380	0	41.4	4	13.3	4	-1E+10	1	-1E+10	1	-1E+10	1	-1E+10	1	-1E+10	1	-1E+10	1
4901784	13	C	11/12/2015	10:46	-130.131	46.073	0	475.40	0	4.7950	0	34.0240	0	26.929	0	470.953	0	40.8	4	13.1	4	-1E+10	1	-1E+10	1	-1E+10	1	-1E+10	1	-1E+10	1	-1E+10	1
4901784	13	C	11/12/2015	10:46	-130.131	46.073	0	477.10	0	4.7800	0	34.0270	0	26.933	0	472.635	0	40.4	4	13.0	4	-1E+10	1	-1E+10	1	-1E+10	1	-1E+10	1	-1E+10	1	-1E+10	1
4901784	13	C	11/12/2015	10:46	-130.131	46.073	0	479.70	0	4.7760	0	34.0280	0	26.934	0	475.208	0	40.0	4	12.8	4	-1E+10	1	-1E+10	1	-1E+10	1	-1E+10	1	-1E+10	1	-1E+10	1
4901784	13	C	11/12/2015	10:46	-130.131	46.073	0	482.30	0	4.7740	0	34.0280	0	26.934	0	477.781	0	39.4	4	12.6	4	-1E+10	1	-1E+10	1	-1E+10	1	-1E+10	1	-1E+10	1	-1E+10	1
4901784	13	C	11/12/2015	10:46	-130.131	46.073	0	484.90	0	4.7590	0	34.0300	0	26.938	0	480.353	0	38.3	4	12.3	4	-1E+10	1	-1E+10	1	-1E+10	1	-1E+10	1	-1E+10	1	-1E+10	1
4901784	13	C	11/12/2015	10:46	-130.131	46.073	0	487.50	0	4.7710	0	34.0360	0	26.941	0	482.926	0	36.8	4	11.8	4	-1E+10	1	-1E+10	1	-1E+10	1	-1E+10	1	-1E+10	1	-1E+10	1
4901784	13	C	11/12/2015	10:46	-130.131	46.073	0	490.20	0	4.8210	0	34.0440	0	26.942	0	485.597	0	35.4	4	11.4	4	-1E+10	1	-1E+10	1	-1E+10	1	-1E+10	1	-1E+10	1	-1E+10	1
4901784	13	C	11/12/2015	10:46	-130.131	46.073	0	492.80	0	4.8570	0	34.0520	0	26.944	0	488.170	0	34.4	4	11.1	4	-1E+10	1	-1E+10	1	-1E+10	1	-1E+10	1	-1E+10	1	-1E+10	1
4901784	13	C	11/12/2015	10:46	-130.131	46.073	0	495.30	0	4.8720	0	34.0570	0	26.947	0	490.643	0	34.0	4	11.0	4	-1E+10	1	-1E+10	1	-1E+10	1	-1E+10	1	-1E+10	1	-1E+10	1
4901784	13	C	11/12/2015	10:46	-130.131	46.073	0	497.90	0	4.8340	0	34.0540	0	26.949	0	493.216	0	33.8	4	10.9	4	-1E+10	1	-1E+10	1	-1E+10	1	-1E+10	1	-1E+10	1	-1E+10	1
4901784	13	C	11/12/2015	10:46	-130.131	46.073	0	500.40	0	4.8320	0	34.0590	0	26.953	0	495.689	0	33.5	4	10.8	4	-1E+10	1	-1E+10	1	-1E+10	1	-1E+10	1	-1E+10	1	-1E+10	1
4901784	13	C	11/12/2015	10:46	-130.131	46.073	0	504.70	0	4.7950	0	34.0610	0	26.958	0	499.944	0	33.8	4	10.9	4	-1E+10	1	-1E+10	1	-1E+10	1	-1E+10	1	-1E+10	1	-1E+10	1
4901784	13	C	11/12/2015	10:46	-130.131	46.073	0	509.80	0	4.7090	0	34.0570	0	26.965	0	504.990	0	34.8	4	11.2	4	-1E+10	1	-1E+10	1	-1E+10	1	-1E+10	1	-1E+10	1	-1E+10	1
4901784	13	C	11/12/2015	10:46	-130.131	46.073	0	515.00	0	4.6630	0	34.0530	0	26.967	0	510.134	0	35.0	4	11.2	4	-1E+10	1	-1E+10	1	-1E+10	1	-1E+10	1	-1E+10	1	-1E+10	1
4901784	13	C	11/12/2015	10:46	-130.131	46.073	0	520.10	0	4.6100	0	34.0520	0	26.972	0	515.180	0	34.4	4	11.0	4	-1E+10	1	-1E+10	1	-1E+10	1	-1E+10	1	-1E+10	1	-1E+10	1
4901784	13	C	11/12/2015	10:46	-130.131	46.073	0	525.30	0	4.5820	0	34.0570	0	26.979	0	520.324	0	33.6	4	10.7	4	-1E+10	1	-1E+10	1	-1E+10	1	-1E+10	1	-1E+10	1	-1E+10	1
4901784	13	C	11/12/2015	10:46	-130.131	46.073	0	530.60	0	4.5780	0	34.0610	0	26.982	0	525.567	0	32.8	4	10.5	4	-1E+10	1	-1E+10	1	-1E+10	1	-1E+10	1	-1E+10	1	-1E+10	1
4901784	13	C	11/12/2015	10:46	-130.131	46.073	0	535.70	0	4.5490	0	34.0620	0	26.986	0	530.612	0	31.9	4	10.2	4	-1E+10	1	-1E+10	1	-1E+10	1	-1E+10	1	-1E+10	1	-1E+10	1
4901784	13	C	11/12/2015	10:46	-130.131	46.073	0	540.10	0	4.5190	0	34.0720	0	26.998	0	534.965	0	30.9	4	9.9	4	-1E+10	1	-1E+10	1	-1E+10	1	-1E+10	1	-1E+10	1	-1E+10	1
4901784	13	C	11/12/2015	10:46	-130.131	46.073	0	544.50	0	4.5100	0	34.0720	0	26.999	0	539.317	0	30.2	4	9.7	4	-1E+10	1	-1E+10	1	-1E+10	1	-1E+10	1	-1E+10	1	-1E+10	1
4901784	13	C	11/12/2015	10:46	-130.131	46.073	0	549.60	0	4.4850	0	34.0770	0	27.005	0	544.362	0	29.3	4	9.4	4	-1E+10	1	-1E+10	1	-1E+10	1	-1E+10	1	-1E+10	1	-1E+10	1
4901784	13	C	11/12/2015	10:46	-130.131	46.073	0	554.90	0	4.4740	0	34.0810	0	27.010	0	549.604	0	28.4	4	9.1	4	-1E+10	1	-1E+10	1	-1E+10	1	-1E+10	1	-1E+10	1	-1E+10	1
4901784	13	C	11/12/2015	10:46	-130.131	46.073	0	560.20	0	4.4460	0	34.0880	0	27.018	0	554.847	0	27.3	4	8.7	4	-1E+10	1	-1E+10	1	-1E+10	1	-1E+10	1	-1E+10	1	-1E+10	1
4901784	13	C	11/12/2015	10:46	-130.131	46.073	0	565.40	0	4.4380	0	34.0910	0	27.022	0	559.990	0	25.9	4	8.3	4	-1E+10	1	-1E+10	1	-1E+10	1	-1E+10	1	-1E+10	1	-1E+10	1
4901784	13	C	11/12/2015	10:46	-130.131	46.073	0	569.80	0	4.4540	0	34.1030	0	27.030	0	564.342	0	24.6	4	7.9	4	-1E+10	1	-1E+10	1	-1E+10	1	-1E+10	1	-1E+10	1	-1E+10	1
4901784	13	C	11/12/2015	10:46	-130.131	46.073	0	574.30	0	4.4800	0	34.1120	0	27.034	0	568.793	0	23.9	4	7.6	4	-1E+10	1	-1E+10	1	-1E+10	1	-1E+10	1	-1E+10	1	-1E+10	1
4901784	13	C	11/12/2015	10:46	-130.131	46.073	0	579.70	0	4.4060	0	34.1100	0	27.040	0	574.134	0	24.0	4	7.7	4	-1E+10	1	-1E+10	1	-1E+10	1	-1E+10	1	-1E+10	1	-1E+10	1
4901784	13	C	11/12/2015	10:46	-130.131	46.073	0	585.10	0	4.3660	0	34.1160	0	27.049	0	579.474	0	23.6	4	7.5	4	-1E+10	1	-1E+10	1	-1E+10	1	-1E+10	1	-1E+10	1	-1E+10	1
4901784	13	C	11/12/2015	10:46	-130.131	46.073	0	590.60	0	4.3550	0	34.1200	0	27.054	0	584.914	0	23.4	4	7.4	4	-1E+10	1	-1E+10	1	-1E+10	1	-1E+10	1	-1E+10	1	-1E+10	1
4901784	13	C	11/12/2015	10:46	-130.131	46.073	0	595.50	0	4.3440	0	34.1200	0	27.055	0	589.759	0	23.4	4	7.4	4	-1E+10	1	-1E+10	1	-1E+10	1	-1E+10	1	-1E+10	1	-1E+10	1
4901784	13	C	11/12/2015	10:46	-130.131	46.073	0	600.00	0	4.3120	0	34.1210	0	27.059	0	594.210	0	23.2	4	7.4	4	-1E+10	1	-1E+10	1	-1E+10	1	-1E+10	1	-1E+10	1	-1E+10	1
4901784	13	C	11/12/2015	10:46	-130.131	46.073	0	604.90	0	4.3100	0	34.1240	0	27.062	0	599.055	0	22.8	4	7.3	4	-1E+10	1	-1E+10	1	-1E+10	1	-1E+10	1	-1E+10	1	-1E+10	1
4901784	13	C	11/12/2015	10:46	-130.131	46.073	0	609.80	0	4.3040	0	34.1260	0	27.064	0	603.901	0	22.5	4	7.2	4	-1E+10	1	-1E+10	1	-1E+10	1	-1E+10	1	-1E+10	1	-1E+10	1
4901784	13	C	11/12/2015	10:46	-130.131	46.073	0	614.70	0	4.3030	0	34.1280	0	27.066	0	608.746	0	22.2	4	7.1	4	-1E+10	1	-1E+10	1	-1E+10	1	-1E+10	1	-1E+10	1	-1E+10	1
4901784	13	C	11/12/2015	10:46	-130.131	46.073	0	619.80	0	4.2950	0	34.1300	0	27.068	0	613.789	0	21.7	4	6.9	4	-1E+10	1	-1E+10	1	-1E+10	1	-1E+10	1	-1E+10	1	-1E+10	1
4901784	13	C	11/12/2015	10:46	-130.131	46.073	0	624.90	0	4.2780	0	34.1340	0	27.073	0	618.832	0	21.3	4	6.8	4	-1E+10	1	-1E+10	1	-1E+10	1	-1E+10	1	-1E+10	1	-1E+10	1
4901784	13	C	11/12/2015	10:46	-130.131	46.073	0	630.00	0	4.2570	0	34.1360	0	27.077	0	623.875	0	20.8	4	6.6	4	-1E+10	1	-1E+10	1	-1E+10	1	-1E+10	1	-1E+10	1	-1E+10	1
4901784	13	C	11/12/2015	10:46	-130.131	46.073	0	634.90	0	4.2500	0	34.1380	0	27.079	0	628.720	0	20.0	4	6.4	4	-1E+10	1	-1E+10	1	-1E+10	1	-1E+10	1	-1E+10	1	-1E+10	1
4901784	13	C	11/12/2015	10:46	-130.131	46.073	0	639.90	0	4.2360	0	34.1490	0	27.090	0	633.664	0	19.2	4	6.1	4	-1E+10	1	-1E+10	1	-1E+10	1	-1E+10	1	-1E+10	1	-1E+10	1
4901784	13	C	11/12/2015	10:46	-130.131	46.073	0	645.10	0	4.2260	0	34.1540	0	27.095	0	638.805	0	18.8	4	6.0	4	-1E+10	1	-1E+10	1	-1E+10	1	-1E+10	1	-1E+10	1	-1E+10	1
4901784	13	C	11/12/2015	10:46	-130.131	46.073	0	650.20	0	4.2130	0	34.1560	0	27.098	0	643.848	0	18.5	4	5.9	4	-1E+10	1	-1E+10	1	-1E+10	1	-1E+10	1	-1E+10	1	-1E+10	1
4901784	13	C	11/12/2015	10:46	-130.131	46.073	0	655.30	0	4.2160	0	34.1610	0	27.101	0	648.890	0	17.8	4	5.7	4	-1E+10	1	-1E+10	1	-1E+10	1	-1E+10	1	-1E+10	1	-1E+10	1
4901784	13	C	11/12/2015	10:46	-130.131	46.073	0	660.50	0	4.2280	0	34.1670	0	27.105	0	654.031	0	17.4	4	5.5	4	-1E+10	1	-1E+10	1	-1E+10	1	-1E+10	1	-1E+10	1	-1E+10	1
4901784	13	C	11/12/2015	10:46	-130.131	46.073	0	665.60	0	4.2090	0	34.1680	0	27.108	0	659.073	0	17.0	4	5.4	4	-1E+10	1	-1E+10	1	-1E+10	1	-1E+10	1	-1E+10	1	-1E+10	1
4901784	13	C	11/12/2015	10:46	-130.131	46.073	0	670.00	0	4.1640	0	34.1700	0	27.114	0	663.423	0	16.2	4	5.1	4	-1E+10	1	-1E+10	1	-1E+10	1	-1E+10	1	-1E+10	1	-1E+10	1
4901784	13	C	11/12/2015	10:46	-130.131	46.073	0	674.20	0	4.2330	0	34.1890	0	27.122	0	667.575	0	15.2	4	4.8	4	-1E+10	1	-1E+10	1	-1E+10	1	-1E+10	1	-1E+10	1	-1E+10	1
4901784	13	C	11/12/2015	10:46	-130.131	46.073	0	679.40	0	4.2430	0	34.1960	0	27.127	0	672.715	0	14.7	4	4.7	4	-1E+10	1	-1E+10	1	-1E+10	1	-1E+10	1	-1E+10	1	-1E+10	1
4901784	13	C	11/12/2015	10:46	-130.131	46.073	0	684.70	0	4.2460	0	34.2020	0	27.131	0	677.954	0	14.2	4	4.5	4	-1E+10	1	-1E+10	1	-1E+10	1	-1E+10	1	-1E+10	1	-1E+10	1
4901784	13	C	11/12/2015	10:46	-130.131	46.073	0	690.00	0	4.2540	0	34.2110	0	27.138	0	683.194	0	13.6	4	4.3	4	-1E+10	1	-1E+10	1	-1E+10	1	-1E+10	1	-1E+10	1	-1E+10	1
4901784	13	C	11/12/2015	10:46	-130.131	46.073	0	695.40	0	4.2510	0	34.2150	0	27.141	0	688.531	0	13.2	4	4.2	4	-1E+10	1	-1E+10	1	-1E+10	1	-1E+10	1	-1E+10	1	-1E+10	1
4901784	13	C	11/12/2015	10:46	-130.131	46.073	0	700.70	0	4.2320	0	34.2260	0	27.152	0	693.770	0	12.8	4	4.1	4	-1E+10	1	-1E+10	1	-1E+10	1	-1E+10	1	-1E+10	1	-1E+10	1
4901784	13	C	11/12/2015	10:46	-130.131	46.073	0	705.10	0	4.2140	0	34.2310	0	27.158	0	698.119	0	12.8	4	4.1	4	-1E+10	1	-1E+10	1	-1E+10	1	-1E+10	1	-1E+10	1	-1E+10	1
4901784	13	C	11/12/2015	10:46	-130.131	46.073	0	709.60	0	4.1970	0	34.2310	0	27.160	0	702.567	0	12.9	4	4.1	4	-1E+10	1	-1E+10	1	-1E+10	1	-1E+10	1	-1E+10	1	-1E+10	1
4901784	13	C	11/12/2015	10:46	-130.131	46.073	0	715.00	0	4.1540	0	34.2300	0	27.163	0	707.905	0	13.1	4	4.1	4	-1E+10	1	-1E+10	1	-1E+10	1	-1E+10	1	-1E+10	1	-1E+10	1
4901784	13	C	11/12/2015	10:46	-130.131	46.073	0	720.50	0	4.1360	0	34.2300	0	27.165	0	713.341	0	13.1	4	4.1	4	-1E+10	1	-1E+10	1	-1E+10	1	-1E+10	1	-1E+10	1	-1E+10	1
4901784	13	C	11/12/2015	10:46	-130.131	46.073	0	725.00	0	4.1380	0	34.2320	0	27.167	0	717.788	0	13.1	4	4.2	4	-1E+10	1	-1E+10	1	-1E+10	1	-1E+10	1	-1E+10	1	-1E+10	1
4901784	13	C	11/12/2015	10:46	-130.131	46.073	0	729.60	0	4.0950	0	34.2300	0	27.169	0	722.334	0	13.2	4	4.2	4	-1E+10	1	-1E+10	1	-1E+10	1	-1E+10	1	-1E+10	1	-1E+10	1
4901784	13	C	11/12/2015	10:46	-130.131	46.073	0	735.10	0	4.0760	0	34.2330	0	27.174	0	727.770	0	13.0	4	4.1	4	-1E+10	1	-1E+10	1	-1E+10	1	-1E+10	1	-1E+10	1	-1E+10	1
4901784	13	C	11/12/2015	10:46	-130.131	46.073	0	739.80	0	4.0800	0	34.2350	0	27.175	0	732.415	0	12.9	4	4.1	4	-1E+10	1	-1E+10	1	-1E+10	1	-1E+10	1	-1E+10	1	-1E+10	1
4901784	13	C	11/12/2015	10:46	-130.131	46.073	0	744.50	0	4.0350	0	34.2400	0	27.184	0	737.060	0	12.8	4	4.0	4	-1E+10	1	-1E+10	1	-1E+10	1	-1E+10	1	-1E+10	1	-1E+10	1
4901784	13	C	11/12/2015	10:46	-130.131	46.073	0	750.00	0	4.0190	0	34.2440	0	27.189	0	742.495	0	12.4	4	3.9	4	-1E+10	1	-1E+10	1	-1E+10	1	-1E+10	1	-1E+10	1	-1E+10	1
4901784	13	C	11/12/2015	10:46	-130.131	46.073	0	755.50	0	4.0420	0	34.2540	0	27.194	0	747.930	0	12.1	4	3.8	4	-1E+10	1	-1E+10	1	-1E+10	1	-1E+10	1	-1E+10	1	-1E+10	1
4901784	13	C	11/12/2015	10:46	-130.131	46.073	0	760.20	0	4.0300	0	34.2600	0	27.200	0	752.574	0	12.1	4	3.8	4	-1E+10	1	-1E+10	1	-1E+10	1	-1E+10	1	-1E+10	1	-1E+10	1
4901784	13	C	11/12/2015	10:46	-130.131	46.073	0	765.00	0	4.0220	0	34.2600	0	27.201	0	757.318	0	12.1	4	3.8	4	-1E+10	1	-1E+10	1	-1E+10	1	-1E+10	1	-1E+10	1	-1E+10	1
4901784	13	C	11/12/2015	10:46	-130.131	46.073	0	770.40	0	4.0170	0	34.2590	0	27.201	0	762.654	0	12.1	4	3.8	4	-1E+10	1	-1E+10	1	-1E+10	1	-1E+10	1	-1E+10	1	-1E+10	1
4901784	13	C	11/12/2015	10:46	-130.131	46.073	0	775.40	0	4.0140	0	34.2600	0	27.202	0	767.594	0	12.1	4	3.8	4	-1E+10	1	-1E+10	1	-1E+10	1	-1E+10	1	-1E+10	1	-1E+10	1
4901784	13	C	11/12/2015	10:46	-130.131	46.073	0	780.40	0	4.0090	0	34.2610	0	27.203	0	772.534	0	12.1	4	3.8	4	-1E+10	1	-1E+10	1	-1E+10	1	-1E+10	1	-1E+10	1	-1E+10	1
4901784	13	C	11/12/2015	10:46	-130.131	46.073	0	785.40	0	3.9870	0	34.2610	0	27.206	0	777.475	0	12.2	4	3.9	4	-1E+10	1	-1E+10	1	-1E+10	1	-1E+10	1	-1E+10	1	-1E+10	1
4901784	13	C	11/12/2015	10:46	-130.131	46.073	0	790.40	0	3.9720	0	34.2610	0	27.207	0	782.415	0	12.4	4	3.9	4	-1E+10	1	-1E+10	1	-1E+10	1	-1E+10	1	-1E+10	1	-1E+10	1
4901784	13	C	11/12/2015	10:46	-130.131	46.073	0	795.50	0	3.9190	0	34.2620	0	27.213	0	787.454	0	12.5	4	3.9	4	-1E+10	1	-1E+10	1	-1E+10	1	-1E+10	1	-1E+10	1	-1E+10	1
4901784	13	C	11/12/2015	10:46	-130.131	46.073	0	800.50	0	3.8800	0	34.2630	0	27.218	0	792.394	0	12.5	4	3.9	4	-1E+10	1	-1E+10	1	-1E+10	1	-1E+10	1	-1E+10	1	-1E+10	1
4901784	13	C	11/12/2015	10:46	-130.131	46.073	0	805.60	0	3.8750	0	34.2650	0	27.220	0	797.432	0	12.6	4	4.0	4	-1E+10	1	-1E+10	1	-1E+10	1	-1E+10	1	-1E+10	1	-1E+10	1
4901784	13	C	11/12/2015	10:46	-130.131	46.073	0	810.70	0	3.8420	0	34.2640	0	27.223	0	802.471	0	12.8	4	4.0	4	-1E+10	1	-1E+10	1	-1E+10	1	-1E+10	1	-1E+10	1	-1E+10	1
4901784	13	C	11/12/2015	10:46	-130.131	46.073	0	815.10	0	3.8010	0	34.2620	0	27.225	0	806.818	0	12.9	4	4.0	4	-1E+10	1	-1E+10	1	-1E+10	1	-1E+10	1	-1E+10	1	-1E+10	1
4901784	13	C	11/12/2015	10:46	-130.131	46.073	0	819.40	0	3.7820	0	34.2630	0	27.228	0	811.066	0	12.9	4	4.0	4	-1E+10	1	-1E+10	1	-1E+10	1	-1E+10	1	-1E+10	1	-1E+10	1
4901784	13	C	11/12/2015	10:46	-130.131	46.073	0	824.60	0	3.7700	0	34.2660	0	27.232	0	816.203	0	12.8	4	4.0	4	-1E+10	1	-1E+10	1	-1E+10	1	-1E+10	1	-1E+10	1	-1E+10	1
4901784	13	C	11/12/2015	10:46	-130.131	46.073	0	829.80	0	3.7630	0	34.2690	0	27.235	0	821.339	0	12.6	4	4.0	4	-1E+10	1	-1E+10	1	-1E+10	1	-1E+10	1	-1E+10	1	-1E+10	1
4901784	13	C	11/12/2015	10:46	-130.131	46.073	0	835.00	0	3.7640	0	34.2740	0	27.239	0	826.476	0	12.6	4	4.0	4	-1E+10	1	-1E+10	1	-1E+10	1	-1E+10	1	-1E+10	1	-1E+10	1
4901784	13	C	11/12/2015	10:46	-130.131	46.073	0	840.30	0	3.7380	0	34.2740	0	27.241	0	831.712	0	12.6	4	4.0	4	-1E+10	1	-1E+10	1	-1E+10	1	-1E+10	1	-1E+10	1	-1E+10	1
4901784	13	C	11/12/2015	10:46	-130.131	46.073	0	845.50	0	3.7130	0	34.2750	0	27.245	0	836.848	0	12.6	4	4.0	4	-1E+10	1	-1E+10	1	-1E+10	1	-1E+10	1	-1E+10	1	-1E+10	1
4901784	13	C	11/12/2015	10:46	-130.131	46.073	0	850.60	0	3.6890	0	34.2780	0	27.249	0	841.886	0	12.6	4	4.0	4	-1E+10	1	-1E+10	1	-1E+10	1	-1E+10	1	-1E+10	1	-1E+10	1
4901784	13	C	11/12/2015	10:46	-130.131	46.073	0	855.70	0	3.6610	0	34.2810	0	27.255	0	846.923	0	12.6	4	3.9	4	-1E+10	1	-1E+10	1	-1E+10	1	-1E+10	1	-1E+10	1	-1E+10	1
4901784	13	C	11/12/2015	10:46	-130.131	46.073	0	860.80	0	3.6420	0	34.2840	0	27.259	0	851.960	0	12.5	4	3.9	4	-1E+10	1	-1E+10	1	-1E+10	1	-1E+10	1	-1E+10	1	-1E+10	1
4901784	13	C	11/12/2015	10:46	-130.131	46.073	0	865.10	0	3.6360	0	34.2860	0	27.261	0	856.207	0	12.4	4	3.9	4	-1E+10	1	-1E+10	1	-1E+10	1	-1E+10	1	-1E+10	1	-1E+10	1
4901784	13	C	11/12/2015	10:46	-130.131	46.073	0	869.40	0	3.6190	0	34.2910	0	27.267	0	860.454	0	12.4	4	3.9	4	-1E+10	1	-1E+10	1	-1E+10	1	-1E+10	1	-1E+10	1	-1E+10	1
4901784	13	C	11/12/2015	10:46	-130.131	46.073	0	874.50	0	3.6080	0	34.2930	0	27.269	0	865.491	0	12.4	4	3.9	4	-1E+10	1	-1E+10	1	-1E+10	1	-1E+10	1	-1E+10	1	-1E+10	1
4901784	13	C	11/12/2015	10:46	-130.131	46.073	0	879.60	0	3.5890	0	34.2920	0	27.270	0	870.528	0	12.6	4	3.9	4	-1E+10	1	-1E+10	1	-1E+10	1	-1E+10	1	-1E+10	1	-1E+10	1
4901784	13	C	11/12/2015	10:46	-130.131	46.073	0	884.70	0	3.5560	0	34.2930	0	27.274	0	875.565	0	12.7	4	4.0	4	-1E+10	1	-1E+10	1	-1E+10	1	-1E+10	1	-1E+10	1	-1E+10	1
4901784	13	C	11/12/2015	10:46	-130.131	46.073	0	889.90	0	3.5180	0	34.2960	0	27.281	0	880.700	0	12.7	4	4.0	4	-1E+10	1	-1E+10	1	-1E+10	1	-1E+10	1	-1E+10	1	-1E+10	1
4901784	13	C	11/12/2015	10:46	-130.131	46.073	0	895.00	0	3.4980	0	34.2980	0	27.284	0	885.737	0	12.7	4	4.0	4	-1E+10	1	-1E+10	1	-1E+10	1	-1E+10	1	-1E+10	1	-1E+10	1
4901784	13	C	11/12/2015	10:46	-130.131	46.073	0	900.30	0	3.4930	0	34.3000	0	27.286	0	890.971	0	12.6	4	3.9	4	-1E+10	1	-1E+10	1	-1E+10	1	-1E+10	1	-1E+10	1	-1E+10	1
4901784	13	C	11/12/2015	10:46	-130.131	46.073	0	905.60	0	3.4940	0	34.3010	0	27.287	0	896.204	0	12.6	4	3.9	4	-1E+10	1	-1E+10	1	-1E+10	1	-1E+10	1	-1E+10	1	-1E+10	1
4901784	13	C	11/12/2015	10:46	-130.131	46.073	0	910.00	0	3.4980	0	34.3020	0	27.287	0	900.549	0	12.5	4	3.9	4	-1E+10	1	-1E+10	1	-1E+10	1	-1E+10	1	-1E+10	1	-1E+10	1
4901784	13	C	11/12/2015	10:46	-130.131	46.073	0	914.40	0	3.4680	0	34.3040	0	27.292	0	904.894	0	12.5	4	3.9	4	-1E+10	1	-1E+10	1	-1E+10	1	-1E+10	1	-1E+10	1	-1E+10	1
4901784	13	C	11/12/2015	10:46	-130.131	46.073	0	919.70	0	3.4470	0	34.3090	0	27.298	0	910.127	0	12.4	4	3.9	4	-1E+10	1	-1E+10	1	-1E+10	1	-1E+10	1	-1E+10	1	-1E+10	1
4901784	13	C	11/12/2015	10:46	-130.131	46.073	0	924.90	0	3.4420	0	34.3110	0	27.300	0	915.262	0	12.3	4	3.8	4	-1E+10	1	-1E+10	1	-1E+10	1	-1E+10	1	-1E+10	1	-1E+10	1
4901784	13	C	11/12/2015	10:46	-130.131	46.073	0	930.10	0	3.4290	0	34.3160	0	27.305	0	920.396	0	12.2	4	3.8	4	-1E+10	1	-1E+10	1	-1E+10	1	-1E+10	1	-1E+10	1	-1E+10	1
4901784	13	C	11/12/2015	10:46	-130.131	46.073	0	935.20	0	3.4250	0	34.3220	0	27.310	0	925.432	0	12.1	4	3.8	4	-1E+10	1	-1E+10	1	-1E+10	1	-1E+10	1	-1E+10	1	-1E+10	1
4901784	13	C	11/12/2015	10:46	-130.131	46.073	0	940.50	0	3.4190	0	34.3260	0	27.314	0	930.665	0	12.0	4	3.7	4	-1E+10	1	-1E+10	1	-1E+10	1	-1E+10	1	-1E+10	1	-1E+10	1
4901784	13	C	11/12/2015	10:46	-130.131	46.073	0	945.60	0	3.4100	0	34.3270	0	27.316	0	935.700	0	12.0	4	3.7	4	-1E+10	1	-1E+10	1	-1E+10	1	-1E+10	1	-1E+10	1	-1E+10	1
4901784	13	C	11/12/2015	10:46	-130.131	46.073	0	950.80	0	3.4000	0	34.3290	0	27.319	0	940.834	0	12.0	4	3.7	4	-1E+10	1	-1E+10	1	-1E+10	1	-1E+10	1	-1E+10	1	-1E+10	1
4901784	13	C	11/12/2015	10:46	-130.131	46.073	0	955.10	0	3.3990	0	34.3320	0	27.321	0	945.079	0	11.9	4	3.7	4	-1E+10	1	-1E+10	1	-1E+10	1	-1E+10	1	-1E+10	1	-1E+10	1
4901784	13	C	11/12/2015	10:46	-130.131	46.073	0	959.40	0	3.3980	0	34.3350	0	27.324	0	949.324	0	11.9	4	3.7	4	-1E+10	1	-1E+10	1	-1E+10	1	-1E+10	1	-1E+10	1	-1E+10	1
4901784	13	C	11/12/2015	10:46	-130.131	46.073	0	964.70	0	3.3940	0	34.3360	0	27.325	0	954.556	0	11.9	4	3.7	4	-1E+10	1	-1E+10	1	-1E+10	1	-1E+10	1	-1E+10	1	-1E+10	1
4901784	13	C	11/12/2015	10:46	-130.131	46.073	0	970.00	0	3.3800	0	34.3400	0	27.329	0	959.789	0	11.9	4	3.7	4	-1E+10	1	-1E+10	1	-1E+10	1	-1E+10	1	-1E+10	1	-1E+10	1
4901784	13	C	11/12/2015	10:46	-130.131	46.073	0	975.30	0	3.3630	0	34.3440	0	27.334	0	965.021	0	11.9	4	3.7	4	-1E+10	1	-1E+10	1	-1E+10	1	-1E+10	1	-1E+10	1	-1E+10	1
4901784	13	C	11/12/2015	10:46	-130.131	46.073	0	980.60	0	3.3530	0	34.3480	0	27.338	0	970.252	0	11.9	4	3.7	4	-1E+10	1	-1E+10	1	-1E+10	1	-1E+10	1	-1E+10	1	-1E+10	1
4901784	13	C	11/12/2015	10:46	-130.131	46.073	0	985.00	0	3.3490	0	34.3500	0	27.340	0	974.596	0	11.9	4	3.7	4	-1E+10	1	-1E+10	1	-1E+10	1	-1E+10	1	-1E+10	1	-1E+10	1
4901784	13	C	11/12/2015	10:46	-130.131	46.073	0	989.50	0	3.3390	0	34.3520	0	27.343	0	979.038	0	11.9	4	3.7	4	-1E+10	1	-1E+10	1	-1E+10	1	-1E+10	1	-1E+10	1	-1E+10	1
4901784	13	C	11/12/2015	10:46	-130.131	46.073	0	994.80	0	3.3300	0	34.3540	0	27.345	0	984.269	0	11.9	4	3.7	4	-1E+10	1	-1E+10	1	-1E+10	1	-1E+10	1	-1E+10	1	-1E+10	1
4901784	13	C	11/12/2015	10:46	-130.131	46.073	0	1000.20	0	3.3210	0	34.3560	0	27.348	0	989.599	0	11.9	4	3.7	4	-1E+10	1	-1E+10	1	-1E+10	1	-1E+10	1	-1E+10	1	-1E+10	1
4901784	13	C	11/12/2015	10:46	-130.131	46.073	0	1005.50	0	3.3170	0	34.3580	0	27.350	0	994.831	0	11.9	4	3.7	4	-1E+10	1	-1E+10	1	-1E+10	1	-1E+10	1	-1E+10	1	-1E+10	1
4901784	13	C	11/12/2015	10:46	-130.131	46.073	0	1010.00	0	3.3120	0	34.3590	0	27.351	0	999.272	0	11.9	4	3.7	4	-1E+10	1	-1E+10	1	-1E+10	1	-1E+10	1	-1E+10	1	-1E+10	1
4901784	13	C	11/12/2015	10:46	-130.131	46.073	0	1014.50	0	3.3080	0	34.3600	0	27.352	0	1003.714	0	11.9	4	3.7	4	-1E+10	1	-1E+10	1	-1E+10	1	-1E+10	1	-1E+10	1	-1E+10	1
4901784	13	C	11/12/2015	10:46	-130.131	46.073	0	1020.00	0	3.3020	0	34.3620	0	27.355	0	1009.142	0	12.0	4	3.7	4	-1E+10	1	-1E+10	1	-1E+10	1	-1E+10	1	-1E+10	1	-1E+10	1
4901784	13	C	11/12/2015	10:46	-130.131	46.073	0	1025.30	0	3.2960	0	34.3630	0	27.356	0	1014.373	0	12.0	4	3.7	4	-1E+10	1	-1E+10	1	-1E+10	1	-1E+10	1	-1E+10	1	-1E+10	1
4901784	13	C	11/12/2015	10:46	-130.131	46.073	0	1030.60	0	3.2910	0	34.3640	0	27.357	0	1019.603	0	12.0	4	3.7	4	-1E+10	1	-1E+10	1	-1E+10	1	-1E+10	1	-1E+10	1	-1E+10	1
4901784	13	C	11/12/2015	10:46	-130.131	46.073	0	1035.40	0	3.2870	0	34.3650	0	27.358	0	1024.340	0	12.0	4	3.7	4	-1E+10	1	-1E+10	1	-1E+10	1	-1E+10	1	-1E+10	1	-1E+10	1
4901784	13	C	11/12/2015	10:46	-130.131	46.073	0	1040.20	0	3.2700	0	34.3690	0	27.363	0	1029.077	0	12.1	4	3.8	4	-1E+10	1	-1E+10	1	-1E+10	1	-1E+10	1	-1E+10	1	-1E+10	1
4901784	13	C	11/12/2015	10:46	-130.131	46.073	0	1045.10	0	3.2600	0	34.3750	0	27.369	0	1033.913	0	12.2	4	3.8	4	-1E+10	1	-1E+10	1	-1E+10	1	-1E+10	1	-1E+10	1	-1E+10	1
4901784	13	C	11/12/2015	10:46	-130.131	46.073	0	1050.00	0	3.2380	0	34.3810	0	27.376	0	1038.748	0	12.3	4	3.8	4	-1E+10	1	-1E+10	1	-1E+10	1	-1E+10	1	-1E+10	1	-1E+10	1
4901784	13	C	11/12/2015	10:46	-130.131	46.073	0	1055.00	0	3.2280	0	34.3830	0	27.378	0	1043.682	0	12.4	4	3.8	4	-1E+10	1	-1E+10	1	-1E+10	1	-1E+10	1	-1E+10	1	-1E+10	1
4901784	13	C	11/12/2015	10:46	-130.131	46.073	0	1060.00	0	3.2150	0	34.3870	0	27.383	0	1048.616	0	12.4	4	3.9	4	-1E+10	1	-1E+10	1	-1E+10	1	-1E+10	1	-1E+10	1	-1E+10	1
4901784	13	C	11/12/2015	10:46	-130.131	46.073	0	1065.00	0	3.2020	0	34.3900	0	27.386	0	1053.550	0	12.5	4	3.9	4	-1E+10	1	-1E+10	1	-1E+10	1	-1E+10	1	-1E+10	1	-1E+10	1
4901784	13	C	11/12/2015	10:46	-130.131	46.073	0	1070.10	0	3.1910	0	34.3920	0	27.389	0	1058.582	0	12.6	4	3.9	4	-1E+10	1	-1E+10	1	-1E+10	1	-1E+10	1	-1E+10	1	-1E+10	1
4901784	13	C	11/12/2015	10:46	-130.131	46.073	0	1075.10	0	3.1870	0	34.3930	0	27.390	0	1063.516	0	12.6	4	3.9	4	-1E+10	1	-1E+10	1	-1E+10	1	-1E+10	1	-1E+10	1	-1E+10	1
4901784	13	C	11/12/2015	10:46	-130.131	46.073	0	1080.30	0	3.1850	0	34.3940	0	27.391	0	1068.646	0	12.7	4	3.9	4	-1E+10	1	-1E+10	1	-1E+10	1	-1E+10	1	-1E+10	1	-1E+10	1
4901784	13	C	11/12/2015	10:46	-130.131	46.073	0	1085.40	0	3.1740	0	34.3960	0	27.394	0	1073.678	0	12.7	4	3.9	4	-1E+10	1	-1E+10	1	-1E+10	1	-1E+10	1	-1E+10	1	-1E+10	1
4901784	13	C	11/12/2015	10:46	-130.131	46.073	0	1090.60	0	3.1660	0	34.3980	0	27.396	0	1078.809	0	12.8	4	4.0	4	-1E+10	1	-1E+10	1	-1E+10	1	-1E+10	1	-1E+10	1	-1E+10	1
4901784	13	C	11/12/2015	10:46	-130.131	46.073	0	1095.00	0	3.1550	0	34.3990	0	27.398	0	1083.150	0	12.8	4	4.0	4	-1E+10	1	-1E+10	1	-1E+10	1	-1E+10	1	-1E+10	1	-1E+10	1
4901784	13	C	11/12/2015	10:46	-130.131	46.073	0	1100.00	0	3.1450	0	34.4000	0	27.400	0	1088.083	0	12.9	4	4.0	4	-1E+10	1	-1E+10	1	-1E+10	1	-1E+10	1	-1E+10	1	-1E+10	1
4901784	13	C	11/12/2015	10:46	-130.131	46.073	0	1105.40	0	3.1350	0	34.4020	0	27.402	0	1093.410	0	13.0	4	4.0	4	-1E+10	1	-1E+10	1	-1E+10	1	-1E+10	1	-1E+10	1	-1E+10	1
4901784	13	C	11/12/2015	10:46	-130.131	46.073	0	1110.40	0	3.1270	0	34.4040	0	27.405	0	1098.343	0	13.0	4	4.0	4	-1E+10	1	-1E+10	1	-1E+10	1	-1E+10	1	-1E+10	1	-1E+10	1
4901784	13	C	11/12/2015	10:46	-130.131	46.073	0	1115.60	0	3.1280	0	34.4040	0	27.405	0	1103.473	0	13.0	4	4.0	4	-1E+10	1	-1E+10	1	-1E+10	1	-1E+10	1	-1E+10	1	-1E+10	1
4901784	13	C	11/12/2015	10:46	-130.131	46.073	0	1120.80	0	3.1280	0	34.4040	0	27.405	0	1108.603	0	13.1	4	4.1	4	-1E+10	1	-1E+10	1	-1E+10	1	-1E+10	1	-1E+10	1	-1E+10	1
4901784	13	C	11/12/2015	10:46	-130.131	46.073	0	1125.10	0	3.1200	0	34.4050	0	27.406	0	1112.844	0	13.2	4	4.1	4	-1E+10	1	-1E+10	1	-1E+10	1	-1E+10	1	-1E+10	1	-1E+10	1
4901784	13	C	11/12/2015	10:46	-130.131	46.073	0	1129.50	0	3.1090	0	34.4060	0	27.408	0	1117.185	0	13.3	4	4.1	4	-1E+10	1	-1E+10	1	-1E+10	1	-1E+10	1	-1E+10	1	-1E+10	1
4901784	13	C	11/12/2015	10:46	-130.131	46.073	0	1134.80	0	3.0880	0	34.4100	0	27.413	0	1122.413	0	13.5	4	4.2	4	-1E+10	1	-1E+10	1	-1E+10	1	-1E+10	1	-1E+10	1	-1E+10	1
4901784	13	C	11/12/2015	10:46	-130.131	46.073	0	1140.10	0	3.0810	0	34.4110	0	27.415	0	1127.641	0	13.5	4	4.2	4	-1E+10	1	-1E+10	1	-1E+10	1	-1E+10	1	-1E+10	1	-1E+10	1
4901784	13	C	11/12/2015	10:46	-130.131	46.073	0	1145.50	0	3.0640	0	34.4130	0	27.418	0	1132.967	0	13.7	4	4.2	4	-1E+10	1	-1E+10	1	-1E+10	1	-1E+10	1	-1E+10	1	-1E+10	1
4901784	13	C	11/12/2015	10:46	-130.131	46.073	0	1150.20	0	3.0540	0	34.4150	0	27.420	0	1137.603	0	13.8	4	4.3	4	-1E+10	1	-1E+10	1	-1E+10	1	-1E+10	1	-1E+10	1	-1E+10	1
4901784	13	C	11/12/2015	10:46	-130.131	46.073	0	1155.00	0	3.0460	0	34.4160	0	27.422	0	1142.337	0	13.9	4	4.3	4	-1E+10	1	-1E+10	1	-1E+10	1	-1E+10	1	-1E+10	1	-1E+10	1
4901784	13	C	11/12/2015	10:46	-130.131	46.073	0	1160.00	0	3.0410	0	34.4180	0	27.424	0	1147.269	0	14.0	4	4.3	4	-1E+10	1	-1E+10	1	-1E+10	1	-1E+10	1	-1E+10	1	-1E+10	1
4901784	13	C	11/12/2015	10:46	-130.131	46.073	0	1164.90	0	3.0340	0	34.4190	0	27.426	0	1152.102	0	14.1	4	4.4	4	-1E+10	1	-1E+10	1	-1E+10	1	-1E+10	1	-1E+10	1	-1E+10	1
4901784	13	C	11/12/2015	10:46	-130.131	46.073	0	1170.00	0	3.0250	0	34.4220	0	27.429	0	1157.132	0	14.2	4	4.4	4	-1E+10	1	-1E+10	1	-1E+10	1	-1E+10	1	-1E+10	1	-1E+10	1
4901784	13	C	11/12/2015	10:46	-130.131	46.073	0	1175.00	0	3.0200	0	34.4220	0	27.429	0	1162.063	0	14.3	4	4.4	4	-1E+10	1	-1E+10	1	-1E+10	1	-1E+10	1	-1E+10	1	-1E+10	1
4901784	13	C	11/12/2015	10:46	-130.131	46.073	0	1180.20	0	3.0190	0	34.4230	0	27.430	0	1167.191	0	14.4	4	4.4	4	-1E+10	1	-1E+10	1	-1E+10	1	-1E+10	1	-1E+10	1	-1E+10	1
4901784	13	C	11/12/2015	10:46	-130.131	46.073	0	1185.40	0	3.0180	0	34.4240	0	27.431	0	1172.319	0	14.5	4	4.5	4	-1E+10	1	-1E+10	1	-1E+10	1	-1E+10	1	-1E+10	1	-1E+10	1
4901784	13	C	11/12/2015	10:46	-130.131	46.073	0	1190.60	0	3.0120	0	34.4250	0	27.433	0	1177.447	0	14.6	4	4.5	4	-1E+10	1	-1E+10	1	-1E+10	1	-1E+10	1	-1E+10	1	-1E+10	1
4901784	13	C	11/12/2015	10:46	-130.131	46.073	0	1195.10	0	3.0010	0	34.4270	0	27.435	0	1181.885	0	14.7	4	4.5	4	-1E+10	1	-1E+10	1	-1E+10	1	-1E+10	1	-1E+10	1	-1E+10	1
4901784	13	C	11/12/2015	10:46	-130.131	46.073	0	1199.50	0	2.9950	0	34.4280	0	27.437	0	1186.224	0	14.8	4	4.6	4	-1E+10	1	-1E+10	1	-1E+10	1	-1E+10	1	-1E+10	1	-1E+10	1
4901784	13	C	11/12/2015	10:46	-130.131	46.073	0	1204.90	0	2.9840	0	34.4290	0	27.438	0	1191.549	0	15.0	4	4.6	4	-1E+10	1	-1E+10	1	-1E+10	1	-1E+10	1	-1E+10	1	-1E+10	1
4901784	13	C	11/12/2015	10:46	-130.131	46.073	0	1210.30	0	2.9620	0	34.4320	0	27.443	0	1196.874	0	15.1	4	4.7	4	-1E+10	1	-1E+10	1	-1E+10	1	-1E+10	1	-1E+10	1	-1E+10	1
4901784	13	C	11/12/2015	10:46	-130.131	46.073	0	1215.60	0	2.9500	0	34.4340	0	27.445	0	1202.100	0	15.3	4	4.7	4	-1E+10	1	-1E+10	1	-1E+10	1	-1E+10	1	-1E+10	1	-1E+10	1
4901784	13	C	11/12/2015	10:46	-130.131	46.073	0	1220.10	0	2.9430	0	34.4350	0	27.447	0	1206.537	0	15.4	4	4.7	4	-1E+10	1	-1E+10	1	-1E+10	1	-1E+10	1	-1E+10	1	-1E+10	1
4901784	13	C	11/12/2015	10:46	-130.131	46.073	0	1224.40	0	2.9420	0	34.4360	0	27.448	0	1210.777	0	15.4	4	4.8	4	-1E+10	1	-1E+10	1	-1E+10	1	-1E+10	1	-1E+10	1	-1E+10	1
4901784	13	C	11/12/2015	10:46	-130.131	46.073	0	1229.40	0	2.9400	0	34.4360	0	27.448	0	1215.707	0	15.5	4	4.8	4	-1E+10	1	-1E+10	1	-1E+10	1	-1E+10	1	-1E+10	1	-1E+10	1
4901784	13	C	11/12/2015	10:46	-130.131	46.073	0	1234.40	0	2.9320	0	34.4380	0	27.450	0	1220.637	0	15.7	4	4.9	4	-1E+10	1	-1E+10	1	-1E+10	1	-1E+10	1	-1E+10	1	-1E+10	1
4901784	13	C	11/12/2015	10:46	-130.131	46.073	0	1239.50	0	2.9260	0	34.4390	0	27.452	0	1225.665	0	15.9	4	4.9	4	-1E+10	1	-1E+10	1	-1E+10	1	-1E+10	1	-1E+10	1	-1E+10	1
4901784	13	C	11/12/2015	10:46	-130.131	46.073	0	1244.50	0	2.9160	0	34.4410	0	27.454	0	1230.594	0	16.1	4	5.0	4	-1E+10	1	-1E+10	1	-1E+10	1	-1E+10	1	-1E+10	1	-1E+10	1
4901784	13	C	11/12/2015	10:46	-130.131	46.073	0	1249.70	0	2.9070	0	34.4430	0	27.457	0	1235.721	0	16.4	4	5.1	4	-1E+10	1	-1E+10	1	-1E+10	1	-1E+10	1	-1E+10	1	-1E+10	1
4901784	13	C	11/12/2015	10:46	-130.131	46.073	0	1254.80	0	2.8960	0	34.4470	0	27.461	0	1240.749	0	16.8	4	5.2	4	-1E+10	1	-1E+10	1	-1E+10	1	-1E+10	1	-1E+10	1	-1E+10	1
4901784	13	C	11/12/2015	10:46	-130.131	46.073	0	1260.10	0	2.8850	0	34.4490	0	27.463	0	1245.974	0	16.9	4	5.2	4	-1E+10	1	-1E+10	1	-1E+10	1	-1E+10	1	-1E+10	1	-1E+10	1
4901784	13	C	11/12/2015	10:46	-130.131	46.073	0	1265.40	0	2.8730	0	34.4510	0	27.466	0	1251.199	0	17.0	4	5.2	4	-1E+10	1	-1E+10	1	-1E+10	1	-1E+10	1	-1E+10	1	-1E+10	1
4901784	13	C	11/12/2015	10:46	-130.131	46.073	0	1269.90	0	2.8650	0	34.4510	0	27.467	0	1255.635	0	17.1	4	5.3	4	-1E+10	1	-1E+10	1	-1E+10	1	-1E+10	1	-1E+10	1	-1E+10	1
4901784	13	C	11/12/2015	10:46	-130.131	46.073	0	1274.40	0	2.8630	0	34.4520	0	27.468	0	1260.071	0	17.2	4	5.3	4	-1E+10	1	-1E+10	1	-1E+10	1	-1E+10	1	-1E+10	1	-1E+10	1
4901784	13	C	11/12/2015	10:46	-130.131	46.073	0	1279.80	0	2.8630	0	34.4540	0	27.470	0	1265.394	0	17.3	4	5.3	4	-1E+10	1	-1E+10	1	-1E+10	1	-1E+10	1	-1E+10	1	-1E+10	1
4901784	13	C	11/12/2015	10:46	-130.131	46.073	0	1285.20	0	2.8650	0	34.4540	0	27.469	0	1270.717	0	17.4	4	5.4	4	-1E+10	1	-1E+10	1	-1E+10	1	-1E+10	1	-1E+10	1	-1E+10	1
4901784	13	C	11/12/2015	10:46	-130.131	46.073	0	1290.60	0	2.8650	0	34.4540	0	27.469	0	1276.040	0	17.5	4	5.4	4	-1E+10	1	-1E+10	1	-1E+10	1	-1E+10	1	-1E+10	1	-1E+10	1
4901784	13	C	11/12/2015	10:46	-130.131	46.073	0	1295.20	0	2.8620	0	34.4550	0	27.471	0	1280.574	0	17.6	4	5.4	4	-1E+10	1	-1E+10	1	-1E+10	1	-1E+10	1	-1E+10	1	-1E+10	1
4901784	13	C	11/12/2015	10:46	-130.131	46.073	0	1299.80	0	2.8550	0	34.4550	0	27.471	0	1285.108	0	17.7	4	5.5	4	-1E+10	1	-1E+10	1	-1E+10	1	-1E+10	1	-1E+10	1	-1E+10	1
4901784	13	C	11/12/2015	10:46	-130.131	46.073	0	1305.40	0	2.8360	0	34.4580	0	27.475	0	1290.627	0	17.9	4	5.5	4	-1E+10	1	-1E+10	1	-1E+10	1	-1E+10	1	-1E+10	1	-1E+10	1
4901784	13	C	11/12/2015	10:46	-130.131	46.073	0	1310.00	0	2.8380	0	34.4580	0	27.475	0	1295.161	0	17.9	4	5.5	4	-1E+10	1	-1E+10	1	-1E+10	1	-1E+10	1	-1E+10	1	-1E+10	1
4901784	13	C	11/12/2015	10:46	-130.131	46.073	0	1314.60	0	2.8320	0	34.4580	0	27.476	0	1299.695	0	18.0	4	5.5	4	-1E+10	1	-1E+10	1	-1E+10	1	-1E+10	1	-1E+10	1	-1E+10	1
4901784	13	C	11/12/2015	10:46	-130.131	46.073	0	1320.20	0	2.8200	0	34.4590	0	27.478	0	1305.214	0	18.2	4	5.6	4	-1E+10	1	-1E+10	1	-1E+10	1	-1E+10	1	-1E+10	1	-1E+10	1
4901784	13	C	11/12/2015	10:46	-130.131	46.073	0	1324.80	0	2.8040	0	34.4600	0	27.480	0	1309.748	0	18.4	4	5.7	4	-1E+10	1	-1E+10	1	-1E+10	1	-1E+10	1	-1E+10	1	-1E+10	1
4901784	13	C	11/12/2015	10:46	-130.131	46.073	0	1329.50	0	2.7960	0	34.4610	0	27.481	0	1314.380	0	18.6	4	5.7	4	-1E+10	1	-1E+10	1	-1E+10	1	-1E+10	1	-1E+10	1	-1E+10	1
4901784	13	C	11/12/2015	10:46	-130.131	46.073	0	1335.10	0	2.7800	0	34.4630	0	27.484	0	1319.898	0	18.7	4	5.8	4	-1E+10	1	-1E+10	1	-1E+10	1	-1E+10	1	-1E+10	1	-1E+10	1
4901784	13	C	11/12/2015	10:46	-130.131	46.073	0	1339.80	0	2.7750	0	34.4640	0	27.486	0	1324.530	0	18.8	4	5.8	4	-1E+10	1	-1E+10	1	-1E+10	1	-1E+10	1	-1E+10	1	-1E+10	1
4901784	13	C	11/12/2015	10:46	-130.131	46.073	0	1344.40	0	2.7740	0	34.4640	0	27.486	0	1329.063	0	18.9	4	5.8	4	-1E+10	1	-1E+10	1	-1E+10	1	-1E+10	1	-1E+10	1	-1E+10	1
4901784	13	C	11/12/2015	10:46	-130.131	46.073	0	1350.00	0	2.7720	0	34.4640	0	27.486	0	1334.582	0	19.1	4	5.9	4	-1E+10	1	-1E+10	1	-1E+10	1	-1E+10	1	-1E+10	1	-1E+10	1
4901784	13	C	11/12/2015	10:46	-130.131	46.073	0	1355.10	0	2.7590	0	34.4660	0	27.489	0	1339.607	0	19.4	4	6.0	4	-1E+10	1	-1E+10	1	-1E+10	1	-1E+10	1	-1E+10	1	-1E+10	1
4901784	13	C	11/12/2015	10:46	-130.131	46.073	0	1359.40	0	2.7480	0	34.4680	0	27.491	0	1343.844	0	19.6	4	6.0	4	-1E+10	1	-1E+10	1	-1E+10	1	-1E+10	1	-1E+10	1	-1E+10	1
4901784	13	C	11/12/2015	10:46	-130.131	46.073	0	1365.00	0	2.7370	0	34.4690	0	27.493	0	1349.362	0	19.9	4	6.1	4	-1E+10	1	-1E+10	1	-1E+10	1	-1E+10	1	-1E+10	1	-1E+10	1
4901784	13	C	11/12/2015	10:46	-130.131	46.073	0	1370.60	0	2.7220	0	34.4710	0	27.496	0	1354.880	0	20.1	4	6.2	4	-1E+10	1	-1E+10	1	-1E+10	1	-1E+10	1	-1E+10	1	-1E+10	1
4901784	13	C	11/12/2015	10:46	-130.131	46.073	0	1375.40	0	2.7150	0	34.4710	0	27.497	0	1359.610	0	20.3	4	6.2	4	-1E+10	1	-1E+10	1	-1E+10	1	-1E+10	1	-1E+10	1	-1E+10	1
4901784	13	C	11/12/2015	10:46	-130.131	46.073	0	1380.30	0	2.7060	0	34.4720	0	27.498	0	1364.438	0	20.5	4	6.3	4	-1E+10	1	-1E+10	1	-1E+10	1	-1E+10	1	-1E+10	1	-1E+10	1
4901784	13	C	11/12/2015	10:46	-130.131	46.073	0	1385.20	0	2.6930	0	34.4740	0	27.501	0	1369.265	0	20.7	4	6.3	4	-1E+10	1	-1E+10	1	-1E+10	1	-1E+10	1	-1E+10	1	-1E+10	1
4901784	13	C	11/12/2015	10:46	-130.131	46.073	0	1390.10	0	2.6830	0	34.4750	0	27.503	0	1374.093	0	21.0	4	6.4	4	-1E+10	1	-1E+10	1	-1E+10	1	-1E+10	1	-1E+10	1	-1E+10	1
4901784	13	C	11/12/2015	10:46	-130.131	46.073	0	1395.00	0	2.6680	0	34.4770	0	27.506	0	1378.921	0	21.2	4	6.5	4	-1E+10	1	-1E+10	1	-1E+10	1	-1E+10	1	-1E+10	1	-1E+10	1
4901784	13	C	11/12/2015	10:46	-130.131	46.073	0	1400.00	0	2.6520	0	34.4780	0	27.508	0	1383.847	0	21.4	4	6.5	4	-1E+10	1	-1E+10	1	-1E+10	1	-1E+10	1	-1E+10	1	-1E+10	1
4901784	13	C	11/12/2015	10:46	-130.131	46.073	0	1404.90	0	2.6500	0	34.4780	0	27.508	0	1388.674	0	21.5	4	6.6	4	-1E+10	1	-1E+10	1	-1E+10	1	-1E+10	1	-1E+10	1	-1E+10	1
4901784	13	C	11/12/2015	10:46	-130.131	46.073	0	1410.00	0	2.6400	0	34.4790	0	27.510	0	1393.698	0	21.7	4	6.6	4	-1E+10	1	-1E+10	1	-1E+10	1	-1E+10	1	-1E+10	1	-1E+10	1
4901784	13	C	11/12/2015	10:46	-130.131	46.073	0	1415.20	0	2.6240	0	34.4800	0	27.512	0	1398.821	0	22.0	4	6.7	4	-1E+10	1	-1E+10	1	-1E+10	1	-1E+10	1	-1E+10	1	-1E+10	1
4901784	13	C	11/12/2015	10:46	-130.131	46.073	0	1420.40	0	2.6090	0	34.4820	0	27.515	0	1403.943	0	22.1	4	6.8	4	-1E+10	1	-1E+10	1	-1E+10	1	-1E+10	1	-1E+10	1	-1E+10	1
4901784	13	C	11/12/2015	10:46	-130.131	46.073	0	1425.50	0	2.6080	0	34.4820	0	27.515	0	1408.967	0	22.3	4	6.8	4	-1E+10	1	-1E+10	1	-1E+10	1	-1E+10	1	-1E+10	1	-1E+10	1
4901784	13	C	11/12/2015	10:46	-130.131	46.073	0	1430.70	0	2.5950	0	34.4840	0	27.518	0	1414.089	0	22.6	4	6.9	4	-1E+10	1	-1E+10	1	-1E+10	1	-1E+10	1	-1E+10	1	-1E+10	1
4901784	13	C	11/12/2015	10:46	-130.131	46.073	0	1435.00	0	2.5870	0	34.4850	0	27.519	0	1418.325	0	22.8	4	7.0	4	-1E+10	1	-1E+10	1	-1E+10	1	-1E+10	1	-1E+10	1	-1E+10	1
4901784	13	C	11/12/2015	10:46	-130.131	46.073	0	1439.40	0	2.5710	0	34.4850	0	27.520	0	1422.659	0	23.0	4	7.0	4	-1E+10	1	-1E+10	1	-1E+10	1	-1E+10	1	-1E+10	1	-1E+10	1
4901784	13	C	11/12/2015	10:46	-130.131	46.073	0	1444.60	0	2.5560	0	34.4860	0	27.523	0	1427.781	0	23.4	4	7.1	4	-1E+10	1	-1E+10	1	-1E+10	1	-1E+10	1	-1E+10	1	-1E+10	1
4901784	13	C	11/12/2015	10:46	-130.131	46.073	0	1450.10	0	2.5470	0	34.4890	0	27.526	0	1433.198	0	23.6	4	7.2	4	-1E+10	1	-1E+10	1	-1E+10	1	-1E+10	1	-1E+10	1	-1E+10	1
4901784	13	C	11/12/2015	10:46	-130.131	46.073	0	1455.40	0	2.5420	0	34.4900	0	27.527	0	1438.419	0	23.8	4	7.3	4	-1E+10	1	-1E+10	1	-1E+10	1	-1E+10	1	-1E+10	1	-1E+10	1
4901784	13	C	11/12/2015	10:46	-130.131	46.073	0	1459.90	0	2.5320	0	34.4900	0	27.528	0	1442.851	0	23.8	4	7.3	4	-1E+10	1	-1E+10	1	-1E+10	1	-1E+10	1	-1E+10	1	-1E+10	1
4901784	13	C	11/12/2015	10:46	-130.131	46.073	0	1464.50	0	2.5290	0	34.4900	0	27.528	0	1447.381	0	23.9	4	7.3	4	-1E+10	1	-1E+10	1	-1E+10	1	-1E+10	1	-1E+10	1	-1E+10	1
4901784	13	C	11/12/2015	10:46	-130.131	46.073	0	1470.00	0	2.5200	0	34.4910	0	27.530	0	1452.798	0	24.1	4	7.4	4	-1E+10	1	-1E+10	1	-1E+10	1	-1E+10	1	-1E+10	1	-1E+10	1
4901784	13	C	11/12/2015	10:46	-130.131	46.073	0	1475.50	0	2.5000	0	34.4920	0	27.532	0	1458.215	0	24.3	4	7.4	4	-1E+10	1	-1E+10	1	-1E+10	1	-1E+10	1	-1E+10	1	-1E+10	1
4901784	13	C	11/12/2015	10:46	-130.131	46.073	0	1480.10	0	2.4990	0	34.4930	0	27.533	0	1462.745	0	24.3	4	7.4	4	-1E+10	1	-1E+10	1	-1E+10	1	-1E+10	1	-1E+10	1	-1E+10	1
4901784	13	C	11/12/2015	10:46	-130.131	46.073	0	1484.80	0	2.4970	0	34.4920	0	27.532	0	1467.374	0	24.4	4	7.4	4	-1E+10	1	-1E+10	1	-1E+10	1	-1E+10	1	-1E+10	1	-1E+10	1
4901784	13	C	11/12/2015	10:46	-130.131	46.073	0	1490.30	0	2.4920	0	34.4930	0	27.534	0	1472.790	0	24.5	4	7.5	4	-1E+10	1	-1E+10	1	-1E+10	1	-1E+10	1	-1E+10	1	-1E+10	1
4901784	13	C	11/12/2015	10:46	-130.131	46.073	0	1494.90	0	2.4890	0	34.4930	0	27.534	0	1477.320	0	24.6	4	7.5	4	-1E+10	1	-1E+10	1	-1E+10	1	-1E+10	1	-1E+10	1	-1E+10	1
4901784	13	C	11/12/2015	10:46	-130.131	46.073	0	1499.40	0	2.4880	0	34.4940	0	27.535	0	1481.751	0	24.7	4	7.5	4	-1E+10	1	-1E+10	1	-1E+10	1	-1E+10	1	-1E+10	1	-1E+10	1
4901784	13	C	11/12/2015	10:46	-130.131	46.073	0	1504.80	0	2.4830	0	34.4940	0	27.535	0	1487.069	0	24.9	4	7.6	4	-1E+10	1	-1E+10	1	-1E+10	1	-1E+10	1	-1E+10	1	-1E+10	1
4901784	13	C	11/12/2015	10:46	-130.131	46.073	0	1510.30	0	2.4750	0	34.4950	0	27.537	0	1492.484	0	25.2	4	7.7	4	-1E+10	1	-1E+10	1	-1E+10	1	-1E+10	1	-1E+10	1	-1E+10	1
4901784	13	C	11/12/2015	10:46	-130.131	46.073	0	1514.80	0	2.4680	0	34.4960	0	27.538	0	1496.915	0	25.5	4	7.8	4	-1E+10	1	-1E+10	1	-1E+10	1	-1E+10	1	-1E+10	1	-1E+10	1
4901784	13	C	11/12/2015	10:46	-130.131	46.073	0	1519.40	0	2.4610	0	34.4970	0	27.540	0	1501.445	0	25.8	4	7.9	4	-1E+10	1	-1E+10	1	-1E+10	1	-1E+10	1	-1E+10	1	-1E+10	1
4901784	13	C	11/12/2015	10:46	-130.131	46.073	0	1524.90	0	2.4500	0	34.4990	0	27.542	0	1506.860	0	26.1	4	7.9	4	-1E+10	1	-1E+10	1	-1E+10	1	-1E+10	1	-1E+10	1	-1E+10	1
4901784	13	C	11/12/2015	10:46	-130.131	46.073	0	1530.40	0	2.4450	0	34.4990	0	27.543	0	1512.275	0	26.4	4	8.0	4	-1E+10	1	-1E+10	1	-1E+10	1	-1E+10	1	-1E+10	1	-1E+10	1
4901784	13	C	11/12/2015	10:46	-130.131	46.073	0	1535.10	0	2.4340	0	34.5010	0	27.545	0	1516.903	0	26.8	4	8.2	4	-1E+10	1	-1E+10	1	-1E+10	1	-1E+10	1	-1E+10	1	-1E+10	1
4901784	13	C	11/12/2015	10:46	-130.131	46.073	0	1539.70	0	2.4240	0	34.5020	0	27.547	0	1521.432	0	27.2	4	8.3	4	-1E+10	1	-1E+10	1	-1E+10	1	-1E+10	1	-1E+10	1	-1E+10	1
4901784	13	C	11/12/2015	10:46	-130.131	46.073	0	1545.20	0	2.4070	0	34.5050	0	27.551	0	1526.847	0	27.6	4	8.4	4	-1E+10	1	-1E+10	1	-1E+10	1	-1E+10	1	-1E+10	1	-1E+10	1
4901784	13	C	11/12/2015	10:46	-130.131	46.073	0	1549.80	0	2.4020	0	34.5060	0	27.552	0	1531.375	0	27.8	4	8.5	4	-1E+10	1	-1E+10	1	-1E+10	1	-1E+10	1	-1E+10	1	-1E+10	1
4901784	13	C	11/12/2015	10:46	-130.131	46.073	0	1554.40	0	2.4000	0	34.5060	0	27.552	0	1535.904	0	27.9	4	8.5	4	-1E+10	1	-1E+10	1	-1E+10	1	-1E+10	1	-1E+10	1	-1E+10	1
4901784	13	C	11/12/2015	10:46	-130.131	46.073	0	1559.80	0	2.3980	0	34.5060	0	27.552	0	1541.220	0	28.1	4	8.6	4	-1E+10	1	-1E+10	1	-1E+10	1	-1E+10	1	-1E+10	1	-1E+10	1
4901784	13	C	11/12/2015	10:46	-130.131	46.073	0	1565.30	0	2.3930	0	34.5070	0	27.554	0	1546.635	0	28.4	4	8.6	4	-1E+10	1	-1E+10	1	-1E+10	1	-1E+10	1	-1E+10	1	-1E+10	1
4901784	13	C	11/12/2015	10:46	-130.131	46.073	0	1569.90	0	2.3830	0	34.5090	0	27.556	0	1551.163	0	28.6	4	8.7	4	-1E+10	1	-1E+10	1	-1E+10	1	-1E+10	1	-1E+10	1	-1E+10	1
4901784	13	C	11/12/2015	10:46	-130.131	46.073	0	1574.50	0	2.3790	0	34.5090	0	27.556	0	1555.691	0	28.8	4	8.8	4	-1E+10	1	-1E+10	1	-1E+10	1	-1E+10	1	-1E+10	1	-1E+10	1
4901784	13	C	11/12/2015	10:46	-130.131	46.073	0	1580.10	0	2.3690	0	34.5110	0	27.559	0	1561.203	0	29.1	4	8.9	4	-1E+10	1	-1E+10	1	-1E+10	1	-1E+10	1	-1E+10	1	-1E+10	1
4901784	13	C	11/12/2015	10:46	-130.131	46.073	0	1585.60	0	2.3650	0	34.5100	0	27.558	0	1566.617	0	29.3	4	8.9	4	-1E+10	1	-1E+10	1	-1E+10	1	-1E+10	1	-1E+10	1	-1E+10	1
4901784	13	C	11/12/2015	10:46	-130.131	46.073	0	1590.20	0	2.3610	0	34.5110	0	27.560	0	1571.145	0	29.6	4	9.0	4	-1E+10	1	-1E+10	1	-1E+10	1	-1E+10	1	-1E+10	1	-1E+10	1
4901784	13	C	11/12/2015	10:46	-130.131	46.073	0	1594.80	0	2.3510	0	34.5120	0	27.561	0	1575.673	0	29.9	4	9.1	4	-1E+10	1	-1E+10	1	-1E+10	1	-1E+10	1	-1E+10	1	-1E+10	1
4901784	13	C	11/12/2015	10:46	-130.131	46.073	0	1600.00	0	2.3400	0	34.5140	0	27.564	0	1580.791	0	30.3	4	9.2	4	-1E+10	1	-1E+10	1	-1E+10	1	-1E+10	1	-1E+10	1	-1E+10	1
4901784	13	C	11/12/2015	10:46	-130.131	46.073	0	1604.40	0	2.3340	0	34.5150	0	27.565	0	1585.122	0	30.6	4	9.3	4	-1E+10	1	-1E+10	1	-1E+10	1	-1E+10	1	-1E+10	1	-1E+10	1
4901784	13	C	11/12/2015	10:46	-130.131	46.073	0	1609.30	0	2.3300	0	34.5150	0	27.565	0	1589.945	0	30.9	4	9.4	4	-1E+10	1	-1E+10	1	-1E+10	1	-1E+10	1	-1E+10	1	-1E+10	1
4901784	13	C	11/12/2015	10:46	-130.131	46.073	0	1615.00	0	2.3180	0	34.5180	0	27.569	0	1595.555	0	31.5	4	9.6	4	-1E+10	1	-1E+10	1	-1E+10	1	-1E+10	1	-1E+10	1	-1E+10	1
4901784	13	C	11/12/2015	10:46	-130.131	46.073	0	1620.70	0	2.3090	0	34.5190	0	27.570	0	1601.164	0	32.0	4	9.7	4	-1E+10	1	-1E+10	1	-1E+10	1	-1E+10	1	-1E+10	1	-1E+10	1
4901784	13	C	11/12/2015	10:46	-130.131	46.073	0	1625.60	0	2.3040	0	34.5210	0	27.572	0	1605.987	0	32.4	4	9.9	4	-1E+10	1	-1E+10	1	-1E+10	1	-1E+10	1	-1E+10	1	-1E+10	1
4901784	13	C	11/12/2015	10:46	-130.131	46.073	0	1630.50	0	2.3030	0	34.5220	0	27.573	0	1610.809	0	33.1	4	10.0	4	-1E+10	1	-1E+10	1	-1E+10	1	-1E+10	1	-1E+10	1	-1E+10	1
4901784	13	C	11/12/2015	10:46	-130.131	46.073	0	1635.50	0	2.2990	0	34.5240	0	27.575	0	1615.730	0	33.5	4	10.2	4	-1E+10	1	-1E+10	1	-1E+10	1	-1E+10	1	-1E+10	1	-1E+10	1
4901784	13	C	11/12/2015	10:46	-130.131	46.073	0	1640.50	0	2.2960	0	34.5250	0	27.576	0	1620.650	0	33.8	4	10.3	4	-1E+10	1	-1E+10	1	-1E+10	1	-1E+10	1	-1E+10	1	-1E+10	1
4901784	13	C	11/12/2015	10:46	-130.131	46.073	0	1645.70	0	2.2890	0	34.5260	0	27.578	0	1625.767	0	34.2	4	10.4	4	-1E+10	1	-1E+10	1	-1E+10	1	-1E+10	1	-1E+10	1	-1E+10	1
4901784	13	C	11/12/2015	10:46	-130.131	46.073	0	1650.70	0	2.2820	0	34.5270	0	27.579	0	1630.687	0	34.4	4	10.4	4	-1E+10	1	-1E+10	1	-1E+10	1	-1E+10	1	-1E+10	1	-1E+10	1
4901784	13	C	11/12/2015	10:46	-130.131	46.073	0	1654.90	0	2.2760	0	34.5280	0	27.580	0	1634.820	0	34.6	4	10.5	4	-1E+10	1	-1E+10	1	-1E+10	1	-1E+10	1	-1E+10	1	-1E+10	1
4901784	13	C	11/12/2015	10:46	-130.131	46.073	0	1659.20	0	2.2750	0	34.5280	0	27.581	0	1639.051	0	34.6	4	10.5	4	-1E+10	1	-1E+10	1	-1E+10	1	-1E+10	1	-1E+10	1	-1E+10	1
4901784	13	C	11/12/2015	10:46	-130.131	46.073	0	1664.30	0	2.2730	0	34.5280	0	27.581	0	1644.070	0	34.8	4	10.6	4	-1E+10	1	-1E+10	1	-1E+10	1	-1E+10	1	-1E+10	1	-1E+10	1
4901784	13	C	11/12/2015	10:46	-130.131	46.073	0	1669.40	0	2.2650	0	34.5280	0	27.581	0	1649.088	0	35.2	4	10.7	4	-1E+10	1	-1E+10	1	-1E+10	1	-1E+10	1	-1E+10	1	-1E+10	1
4901784	13	C	11/12/2015	10:46	-130.131	46.073	0	1674.50	0	2.2510	0	34.5300	0	27.584	0	1654.106	0	35.6	4	10.8	4	-1E+10	1	-1E+10	1	-1E+10	1	-1E+10	1	-1E+10	1	-1E+10	1
4901784	13	C	11/12/2015	10:46	-130.131	46.073	0	1679.70	0	2.2490	0	34.5310	0	27.585	0	1659.222	0	35.7	4	10.8	4	-1E+10	1	-1E+10	1	-1E+10	1	-1E+10	1	-1E+10	1	-1E+10	1
4901784	13	C	11/12/2015	10:46	-130.131	46.073	0	1684.80	0	2.2480	0	34.5310	0	27.585	0	1664.240	0	35.8	4	10.9	4	-1E+10	1	-1E+10	1	-1E+10	1	-1E+10	1	-1E+10	1	-1E+10	1
4901784	13	C	11/12/2015	10:46	-130.131	46.073	0	1690.00	0	2.2470	0	34.5320	0	27.586	0	1669.356	0	35.9	4	10.9	4	-1E+10	1	-1E+10	1	-1E+10	1	-1E+10	1	-1E+10	1	-1E+10	1
4901784	13	C	11/12/2015	10:46	-130.131	46.073	0	1695.20	0	2.2470	0	34.5310	0	27.585	0	1674.472	0	36.0	4	10.9	4	-1E+10	1	-1E+10	1	-1E+10	1	-1E+10	1	-1E+10	1	-1E+10	1
4901784	13	C	11/12/2015	10:46	-130.131	46.073	0	1700.30	0	2.2430	0	34.5320	0	27.587	0	1679.490	0	36.2	4	11.0	4	-1E+10	1	-1E+10	1	-1E+10	1	-1E+10	1	-1E+10	1	-1E+10	1
4901784	13	C	11/12/2015	10:46	-130.131	46.073	0	1705.50	0	2.2380	0	34.5330	0	27.588	0	1684.605	0	36.5	4	11.1	4	-1E+10	1	-1E+10	1	-1E+10	1	-1E+10	1	-1E+10	1	-1E+10	1
4901784	13	C	11/12/2015	10:46	-130.131	46.073	0	1710.60	0	2.2320	0	34.5330	0	27.588	0	1689.623	0	36.8	4	11.2	4	-1E+10	1	-1E+10	1	-1E+10	1	-1E+10	1	-1E+10	1	-1E+10	1
4901784	13	C	11/12/2015	10:46	-130.131	46.073	0	1714.90	0	2.2230	0	34.5350	0	27.591	0	1693.853	0	37.2	4	11.3	4	-1E+10	1	-1E+10	1	-1E+10	1	-1E+10	1	-1E+10	1	-1E+10	1
4901784	13	C	11/12/2015	10:46	-130.131	46.073	0	1719.30	0	2.2180	0	34.5360	0	27.592	0	1698.181	0	37.5	4	11.4	4	-1E+10	1	-1E+10	1	-1E+10	1	-1E+10	1	-1E+10	1	-1E+10	1
4901784	13	C	11/12/2015	10:46	-130.131	46.073	0	1724.50	0	2.2120	0	34.5360	0	27.592	0	1703.296	0	37.9	4	11.5	4	-1E+10	1	-1E+10	1	-1E+10	1	-1E+10	1	-1E+10	1	-1E+10	1
4901784	13	C	11/12/2015	10:46	-130.131	46.073	0	1729.70	0	2.2060	0	34.5380	0	27.594	0	1708.411	0	38.4	4	11.6	4	-1E+10	1	-1E+10	1	-1E+10	1	-1E+10	1	-1E+10	1	-1E+10	1
4901784	13	C	11/12/2015	10:46	-130.131	46.073	0	1734.50	0	2.2020	0	34.5380	0	27.595	0	1713.133	0	38.9	4	11.8	4	-1E+10	1	-1E+10	1	-1E+10	1	-1E+10	1	-1E+10	1	-1E+10	1
4901784	13	C	11/12/2015	10:46	-130.131	46.073	0	1739.30	0	2.1910	0	34.5400	0	27.597	0	1717.855	0	39.5	4	11.9	4	-1E+10	1	-1E+10	1	-1E+10	1	-1E+10	1	-1E+10	1	-1E+10	1
4901784	13	C	11/12/2015	10:46	-130.131	46.073	0	1744.30	0	2.1900	0	34.5410	0	27.598	0	1722.773	0	39.9	4	12.1	4	-1E+10	1	-1E+10	1	-1E+10	1	-1E+10	1	-1E+10	1	-1E+10	1
4901784	13	C	11/12/2015	10:46	-130.131	46.073	0	1749.20	0	2.1860	0	34.5430	0	27.600	0	1727.592	0	40.3	4	12.2	4	-1E+10	1	-1E+10	1	-1E+10	1	-1E+10	1	-1E+10	1	-1E+10	1
4901784	13	C	11/12/2015	10:46	-130.131	46.073	0	1755.00	0	2.1830	0	34.5430	0	27.600	0	1733.297	0	40.7	4	12.3	4	-1E+10	1	-1E+10	1	-1E+10	1	-1E+10	1	-1E+10	1	-1E+10	1
4901784	13	C	11/12/2015	10:46	-130.131	46.073	0	1760.00	0	2.1810	0	34.5440	0	27.601	0	1738.215	0	41.2	4	12.5	4	-1E+10	1	-1E+10	1	-1E+10	1	-1E+10	1	-1E+10	1	-1E+10	1
4901784	13	C	11/12/2015	10:46	-130.131	46.073	0	1764.20	0	2.1700	0	34.5460	0	27.604	0	1742.345	0	42.0	4	12.7	4	-1E+10	1	-1E+10	1	-1E+10	1	-1E+10	1	-1E+10	1	-1E+10	1
4901784	13	C	11/12/2015	10:46	-130.131	46.073	0	1769.40	0	2.1590	0	34.5480	0	27.606	0	1747.460	0	42.6	4	12.9	4	-1E+10	1	-1E+10	1	-1E+10	1	-1E+10	1	-1E+10	1	-1E+10	1
4901784	13	C	11/12/2015	10:46	-130.131	46.073	0	1774.50	0	2.1570	0	34.5490	0	27.607	0	1752.475	0	42.8	4	13.0	4	-1E+10	1	-1E+10	1	-1E+10	1	-1E+10	1	-1E+10	1	-1E+10	1
4901784	13	C	11/12/2015	10:46	-130.131	46.073	0	1779.70	0	2.1520	0	34.5490	0	27.608	0	1757.589	0	43.2	4	13.1	4	-1E+10	1	-1E+10	1	-1E+10	1	-1E+10	1	-1E+10	1	-1E+10	1
4901784	13	C	11/12/2015	10:46	-130.131	46.073	0	1785.00	0	2.1430	0	34.5510	0	27.610	0	1762.801	0	43.6	4	13.2	4	-1E+10	1	-1E+10	1	-1E+10	1	-1E+10	1	-1E+10	1	-1E+10	1
4901784	13	C	11/12/2015	10:46	-130.131	46.073	0	1790.40	0	2.1360	0	34.5520	0	27.612	0	1768.112	0	43.8	4	13.3	4	-1E+10	1	-1E+10	1	-1E+10	1	-1E+10	1	-1E+10	1	-1E+10	1
4901784	13	C	11/12/2015	10:46	-130.131	46.073	0	1794.80	0	2.1330	0	34.5520	0	27.612	0	1772.439	0	43.9	4	13.3	4	-1E+10	1	-1E+10	1	-1E+10	1	-1E+10	1	-1E+10	1	-1E+10	1
4901784	13	C	11/12/2015	10:46	-130.131	46.073	0	1799.30	0	2.1290	0	34.5520	0	27.612	0	1776.864	0	44.0	4	13.3	4	-1E+10	1	-1E+10	1	-1E+10	1	-1E+10	1	-1E+10	1	-1E+10	1
4901784	13	C	11/12/2015	10:46	-130.131	46.073	0	1805.00	0	2.1220	0	34.5530	0	27.614	0	1782.469	0	44.2	4	13.4	4	-1E+10	1	-1E+10	1	-1E+10	1	-1E+10	1	-1E+10	1	-1E+10	1
4901784	13	C	11/12/2015	10:46	-130.131	46.073	0	1810.10	0	2.1200	0	34.5530	0	27.614	0	1787.484	0	44.5	4	13.5	4	-1E+10	1	-1E+10	1	-1E+10	1	-1E+10	1	-1E+10	1	-1E+10	1
4901784	13	C	11/12/2015	10:46	-130.131	46.073	0	1814.90	0	2.1100	0	34.5550	0	27.616	0	1792.203	0	45.0	4	13.6	4	-1E+10	1	-1E+10	1	-1E+10	1	-1E+10	1	-1E+10	1	-1E+10	1
4901784	13	C	11/12/2015	10:46	-130.131	46.073	0	1819.80	0	2.1070	0	34.5560	0	27.617	0	1797.022	0	45.2	4	13.7	4	-1E+10	1	-1E+10	1	-1E+10	1	-1E+10	1	-1E+10	1	-1E+10	1
4901784	13	C	11/12/2015	10:46	-130.131	46.073	0	1824.60	0	2.1040	0	34.5560	0	27.617	0	1801.741	0	45.6	4	13.8	4	-1E+10	1	-1E+10	1	-1E+10	1	-1E+10	1	-1E+10	1	-1E+10	1
4901784	13	C	11/12/2015	10:46	-130.131	46.073	0	1829.40	0	2.0990	0	34.5570	0	27.619	0	1806.461	0	46.1	4	13.9	4	-1E+10	1	-1E+10	1	-1E+10	1	-1E+10	1	-1E+10	1	-1E+10	1
4901784	13	C	11/12/2015	10:46	-130.131	46.073	0	1834.30	0	2.0900	0	34.5580	0	27.620	0	1811.278	0	46.8	4	14.2	4	-1E+10	1	-1E+10	1	-1E+10	1	-1E+10	1	-1E+10	1	-1E+10	1
4901784	13	C	11/12/2015	10:46	-130.131	46.073	0	1839.30	0	2.0820	0	34.5600	0	27.623	0	1816.194	0	47.6	4	14.4	4	-1E+10	1	-1E+10	1	-1E+10	1	-1E+10	1	-1E+10	1	-1E+10	1
4901784	13	C	11/12/2015	10:46	-130.131	46.073	0	1844.20	0	2.0760	0	34.5610	0	27.624	0	1821.012	0	48.1	4	14.5	4	-1E+10	1	-1E+10	1	-1E+10	1	-1E+10	1	-1E+10	1	-1E+10	1
4901784	13	C	11/12/2015	10:46	-130.131	46.073	0	1849.20	0	2.0720	0	34.5630	0	27.626	0	1825.927	0	48.8	4	14.7	4	-1E+10	1	-1E+10	1	-1E+10	1	-1E+10	1	-1E+10	1	-1E+10	1
4901784	13	C	11/12/2015	10:46	-130.131	46.073	0	1854.30	0	2.0680	0	34.5640	0	27.627	0	1830.941	0	49.0	4	14.8	4	-1E+10	1	-1E+10	1	-1E+10	1	-1E+10	1	-1E+10	1	-1E+10	1
4901784	13	C	11/12/2015	10:46	-130.131	46.073	0	1859.30	0	2.0670	0	34.5640	0	27.627	0	1835.857	0	49.2	4	14.8	4	-1E+10	1	-1E+10	1	-1E+10	1	-1E+10	1	-1E+10	1	-1E+10	1
4901784	13	C	11/12/2015	10:46	-130.131	46.073	0	1864.40	0	2.0660	0	34.5650	0	27.628	0	1840.870	0	49.3	4	14.9	4	-1E+10	1	-1E+10	1	-1E+10	1	-1E+10	1	-1E+10	1	-1E+10	1
4901784	13	C	11/12/2015	10:46	-130.131	46.073	0	1869.60	0	2.0640	0	34.5650	0	27.628	0	1845.982	0	49.5	4	14.9	4	-1E+10	1	-1E+10	1	-1E+10	1	-1E+10	1	-1E+10	1	-1E+10	1
4901784	13	C	11/12/2015	10:46	-130.131	46.073	0	1874.80	0	2.0620	0	34.5650	0	27.628	0	1851.094	0	49.7	4	15.0	4	-1E+10	1	-1E+10	1	-1E+10	1	-1E+10	1	-1E+10	1	-1E+10	1
4901784	13	C	11/12/2015	10:46	-130.131	46.073	0	1880.00	0	2.0570	0	34.5660	0	27.630	0	1856.205	0	49.9	4	15.1	4	-1E+10	1	-1E+10	1	-1E+10	1	-1E+10	1	-1E+10	1	-1E+10	1
4901784	13	C	11/12/2015	10:46	-130.131	46.073	0	1885.20	0	2.0500	0	34.5670	0	27.631	0	1861.317	0	50.2	4	15.2	4	-1E+10	1	-1E+10	1	-1E+10	1	-1E+10	1	-1E+10	1	-1E+10	1
4901784	13	C	11/12/2015	10:46	-130.131	46.073	0	1890.30	0	2.0470	0	34.5670	0	27.631	0	1866.330	0	50.5	4	15.2	4	-1E+10	1	-1E+10	1	-1E+10	1	-1E+10	1	-1E+10	1	-1E+10	1
4901784	13	C	11/12/2015	10:46	-130.131	46.073	0	1895.50	0	2.0430	0	34.5680	0	27.632	0	1871.441	0	51.0	4	15.4	4	-1E+10	1	-1E+10	1	-1E+10	1	-1E+10	1	-1E+10	1	-1E+10	1
4901784	13	C	11/12/2015	10:46	-130.131	46.073	0	1900.60	0	2.0350	0	34.5700	0	27.635	0	1876.454	0	51.3	4	15.5	4	-1E+10	1	-1E+10	1	-1E+10	1	-1E+10	1	-1E+10	1	-1E+10	1
4901784	13	C	11/12/2015	10:46	-130.131	46.073	0	1905.00	0	2.0340	0	34.5700	0	27.635	0	1880.778	0	51.4	4	15.5	4	-1E+10	1	-1E+10	1	-1E+10	1	-1E+10	1	-1E+10	1	-1E+10	1
4901784	13	C	11/12/2015	10:46	-130.131	46.073	0	1909.40	0	2.0340	0	34.5700	0	27.635	0	1885.103	0	51.5	4	15.5	4	-1E+10	1	-1E+10	1	-1E+10	1	-1E+10	1	-1E+10	1	-1E+10	1
4901784	13	C	11/12/2015	10:46	-130.131	46.073	0	1914.70	0	2.0320	0	34.5700	0	27.635	0	1890.312	0	51.7	4	15.6	4	-1E+10	1	-1E+10	1	-1E+10	1	-1E+10	1	-1E+10	1	-1E+10	1
4901784	13	C	11/12/2015	10:46	-130.131	46.073	0	1920.10	0	2.0300	0	34.5700	0	27.635	0	1895.619	0	52.0	4	15.7	4	-1E+10	1	-1E+10	1	-1E+10	1	-1E+10	1	-1E+10	1	-1E+10	1
4901784	13	C	11/12/2015	10:46	-130.131	46.073	0	1925.40	0	2.0270	0	34.5710	0	27.636	0	1900.828	0	52.3	4	15.8	4	-1E+10	1	-1E+10	1	-1E+10	1	-1E+10	1	-1E+10	1	-1E+10	1
4901784	13	C	11/12/2015	10:46	-130.131	46.073	0	1930.70	0	2.0220	0	34.5720	0	27.637	0	1906.037	0	52.6	4	15.9	4	-1E+10	1	-1E+10	1	-1E+10	1	-1E+10	1	-1E+10	1	-1E+10	1
4901784	13	C	11/12/2015	10:46	-130.131	46.073	0	1935.10	0	2.0190	0	34.5730	0	27.638	0	1910.361	0	52.8	4	15.9	4	-1E+10	1	-1E+10	1	-1E+10	1	-1E+10	1	-1E+10	1	-1E+10	1
4901784	13	C	11/12/2015	10:46	-130.131	46.073	0	1939.60	0	2.0170	0	34.5730	0	27.639	0	1914.783	0	53.0	4	16.0	4	-1E+10	1	-1E+10	1	-1E+10	1	-1E+10	1	-1E+10	1	-1E+10	1
4901784	13	C	11/12/2015	10:46	-130.131	46.073	0	1945.00	0	2.0160	0	34.5730	0	27.639	0	1920.090	0	53.2	4	16.0	4	-1E+10	1	-1E+10	1	-1E+10	1	-1E+10	1	-1E+10	1	-1E+10	1
4901784	13	C	11/12/2015	10:46	-130.131	46.073	0	1950.40	0	2.0100	0	34.5740	0	27.640	0	1925.396	0	53.6	4	16.2	4	-1E+10	1	-1E+10	1	-1E+10	1	-1E+10	1	-1E+10	1	-1E+10	1
4901784	13	C	11/12/2015	10:46	-130.131	46.073	0	1954.80	0	2.0040	0	34.5750	0	27.641	0	1929.720	0	53.8	4	16.2	4	-1E+10	1	-1E+10	1	-1E+10	1	-1E+10	1	-1E+10	1	-1E+10	1
4901784	13	C	11/12/2015	10:46	-130.131	46.073	0	1959.70	0	2.0040	0	34.5750	0	27.641	0	1934.534	0	53.9	4	16.3	4	-1E+10	1	-1E+10	1	-1E+10	1	-1E+10	1	-1E+10	1	-1E+10	1
4901784	13	C	11/12/2015	10:46	-130.131	46.073	0	1964.90	0	2.0030	0	34.5750	0	27.641	0	1939.644	0	54.2	4	16.4	4	-1E+10	1	-1E+10	1	-1E+10	1	-1E+10	1	-1E+10	1	-1E+10	1
4901784	13	C	11/12/2015	10:46	-130.131	46.073	0	1969.90	0	1.9970	0	34.5760	0	27.643	0	1944.557	0	54.6	4	16.5	4	-1E+10	1	-1E+10	1	-1E+10	1	-1E+10	1	-1E+10	1	-1E+10	1
4901784	13	C	11/12/2015	10:46	-130.131	46.073	0	1974.80	0	1.9920	0	34.5770	0	27.644	0	1949.372	0	54.9	4	16.6	4	-1E+10	1	-1E+10	1	-1E+10	1	-1E+10	1	-1E+10	1	-1E+10	1
4901784	13	C	11/12/2015	10:46	-130.131	46.073	0	1979.70	0	1.9890	0	34.5780	0	27.645	0	1954.186	0	55.2	4	16.6	4	-1E+10	1	-1E+10	1	-1E+10	1	-1E+10	1	-1E+10	1	-1E+10	1
4901784	13	C	11/12/2015	10:46	-130.131	46.073	0	1984.60	0	1.9830	0	34.5790	0	27.646	0	1959.000	0	55.5	4	16.7	4	-1E+10	1	-1E+10	1	-1E+10	1	-1E+10	1	-1E+10	1	-1E+10	1
4901784	13	C	11/12/2015	10:46	-130.131	46.073	0	1989.80	0	1.9810	0	34.5790	0	27.646	0	1964.109	0	55.7	4	16.8	4	-1E+10	1	-1E+10	1	-1E+10	1	-1E+10	1	-1E+10	1	-1E+10	1
4901784	13	C	11/12/2015	10:46	-130.131	46.073	0	1995.20	0	1.9800	0	34.5790	0	27.647	0	1969.415	0	55.9	4	16.8	4	-1E+10	1	-1E+10	1	-1E+10	1	-1E+10	1	-1E+10	1	-1E+10	1
4901784	13	C	11/12/2015	10:46	-130.131	46.073	0	2000.10	0	1.9750	0	34.5800	0	27.648	0	1974.229	0	56.1	4	16.9	4	-1E+10	1	-1E+10	1	-1E+10	1	-1E+10	1	-1E+10	1	-1E+10	1
4901784	13	C	11/12/2015	10:46	-130.131	46.073	0	2005.10	0	1.9730	0	34.5800	0	27.648	0	1979.141	0	56.3	4	17.0	4	-1E+10	1	-1E+10	1	-1E+10	1	-1E+10	1	-1E+10	1	-1E+10	1
4901784	13	C	11/12/2015	10:46	-130.131	46.073	0	2010.30	0	1.9700	0	34.5810	0	27.649	0	1984.249	0	55.0	8	16.6	8	-1E+10	1	-1E+10	1	-1E+10	1	-1E+10	1	-1E+10	1	-1E+10	1
4901784	13	C	11/12/2015	10:46	-130.131	46.073	0																										
4901784	14	C	11/22/2015	09:58	-130.317	45.960	0	2.10	0	14.1010	0	32.3130	0	24.091	0	2.083	0	247.2	4	96.2	4	-1E+10	1	-1E+10	1	-1E+10	1	-1E+10	1	-1E+10	1	-1E+10	1
4901784	14	C	11/22/2015	09:58	-130.317	45.960	0	3.20	0	14.0960	0	32.3140	0	24.093	0	3.174	0	247.0	4	96.1	4	-1E+10	1	-1E+10	1	-1E+10	1	-1E+10	1	-1E+10	1	-1E+10	1
4901784	14	C	11/22/2015	09:58	-130.317	45.960	0	4.50	0	14.0960	0	32.3140	0	24.093	0	4.463	0	247.2	4	96.2	4	-1E+10	1	-1E+10	1	-1E+10	1	-1E+10	1	-1E+10	1	-1E+10	1
4901784	14	C	11/22/2015	09:58	-130.317	45.960	0	6.00	0	14.1010	0	32.3130	0	24.091	0	5.951	0	247.1	4	96.2	4	-1E+10	1	-1E+10	1	-1E+10	1	-1E+10	1	-1E+10	1	-1E+10	1
4901784	14	C	11/22/2015	09:58	-130.317	45.960	0	7.50	0	14.1020	0	32.3130	0	24.091	0	7.438	0	247.0	4	96.1	4	-1E+10	1	-1E+10	1	-1E+10	1	-1E+10	1	-1E+10	1	-1E+10	1
4901784	14	C	11/22/2015	09:58	-130.317	45.960	0	9.10	0	14.1000	0	32.3120	0	24.091	0	9.025	0	247.0	4	96.1	4	-1E+10	1	-1E+10	1	-1E+10	1	-1E+10	1	-1E+10	1	-1E+10	1
4901784	14	C	11/22/2015	09:58	-130.317	45.960	0	10.70	0	14.1050	0	32.3110	0	24.089	0	10.612	0	246.8	4	96.1	4	-1E+10	1	-1E+10	1	-1E+10	1	-1E+10	1	-1E+10	1	-1E+10	1
4901784	14	C	11/22/2015	09:58	-130.317	45.960	0	12.40	0	14.1050	0	32.3120	0	24.090	0	12.298	0	246.9	4	96.1	4	-1E+10	1	-1E+10	1	-1E+10	1	-1E+10	1	-1E+10	1	-1E+10	1
4901784	14	C	11/22/2015	09:58	-130.317	45.960	0	14.10	0	14.1060	0	32.3120	0	24.090	0	13.984	0	246.8	4	96.0	4	-1E+10	1	-1E+10	1	-1E+10	1	-1E+10	1	-1E+10	1	-1E+10	1
4901784	14	C	11/22/2015	09:58	-130.317	45.960	0	15.90	0	14.1070	0	32.3110	0	24.089	0	15.769	0	246.4	4	95.9	4	-1E+10	1	-1E+10	1	-1E+10	1	-1E+10	1	-1E+10	1	-1E+10	1
4901784	14	C	11/22/2015	09:58	-130.317	45.960	0	17.60	0	14.1070	0	32.3110	0	24.089	0	17.455	0	246.5	4	95.9	4	-1E+10	1	-1E+10	1	-1E+10	1	-1E+10	1	-1E+10	1	-1E+10	1
4901784	14	C	11/22/2015	09:58	-130.317	45.960	0	19.40	0	14.1120	0	32.3130	0	24.090	0	19.240	0	246.4	4	95.9	4	-1E+10	1	-1E+10	1	-1E+10	1	-1E+10	1	-1E+10	1	-1E+10	1
4901784	14	C	11/22/2015	09:58	-130.317	45.960	0	21.10	0	14.1080	0	32.3120	0	24.090	0	20.926	0	246.6	4	95.9	4	-1E+10	1	-1E+10	1	-1E+10	1	-1E+10	1	-1E+10	1	-1E+10	1
4901784	14	C	11/22/2015	09:58	-130.317	45.960	0	22.80	0	14.1070	0	32.3110	0	24.089	0	22.612	0	246.2	4	95.8	4	-1E+10	1	-1E+10	1	-1E+10	1	-1E+10	1	-1E+10	1	-1E+10	1
4901784	14	C	11/22/2015	09:58	-130.317	45.960	0	24.50	0	14.1060	0	32.3120	0	24.090	0	24.298	0	246.2	4	95.8	4	-1E+10	1	-1E+10	1	-1E+10	1	-1E+10	1	-1E+10	1	-1E+10	1
4901784	14	C	11/22/2015	09:58	-130.317	45.960	0	26.20	0	14.1040	0	32.3120	0	24.091	0	25.983	0	246.0	4	95.7	4	-1E+10	1	-1E+10	1	-1E+10	1	-1E+10	1	-1E+10	1	-1E+10	1
4901784	14	C	11/22/2015	09:58	-130.317	45.960	0	27.90	0	14.1020	0	32.3100	0	24.090	0	27.669	0	245.9	4	95.7	4	-1E+10	1	-1E+10	1	-1E+10	1	-1E+10	1	-1E+10	1	-1E+10	1
4901784	14	C	11/22/2015	09:58	-130.317	45.960	0	29.50	0	14.1040	0	32.3120	0	24.091	0	29.256	0	245.9	4	95.7	4	-1E+10	1	-1E+10	1	-1E+10	1	-1E+10	1	-1E+10	1	-1E+10	1
4901784	14	C	11/22/2015	09:58	-130.317	45.960	0	31.30	0	14.1030	0	32.3110	0	24.090	0	31.041	0	245.8	4	95.7	4	-1E+10	1	-1E+10	1	-1E+10	1	-1E+10	1	-1E+10	1	-1E+10	1
4901784	14	C	11/22/2015	09:58	-130.317	45.960	0	33.10	0	14.1230	0	32.3200	0	24.093	0	32.826	0	245.6	4	95.6	4	-1E+10	1	-1E+10	1	-1E+10	1	-1E+10	1	-1E+10	1	-1E+10	1
4901784	14	C	11/22/2015	09:58	-130.317	45.960	0	34.90	0	14.1110	0	32.3200	0	24.096	0	34.611	0	245.4	4	95.5	4	-1E+10	1	-1E+10	1	-1E+10	1	-1E+10	1	-1E+10	1	-1E+10	1
4901784	14	C	11/22/2015	09:58	-130.317	45.960	0	36.70	0	14.1080	0	32.3210	0	24.097	0	36.396	0	245.3	4	95.5	4	-1E+10	1	-1E+10	1	-1E+10	1	-1E+10	1	-1E+10	1	-1E+10	1
4901784	14	C	11/22/2015	09:58	-130.317	45.960	0	38.50	0	14.1050	0	32.3190	0	24.096	0	38.181	0	245.3	4	95.5	4	-1E+10	1	-1E+10	1	-1E+10	1	-1E+10	1	-1E+10	1	-1E+10	1
4901784	14	C	11/22/2015	09:58	-130.317	45.960	0	40.20	0	14.0920	0	32.3170	0	24.097	0	39.866	0	245.0	4	95.3	4	-1E+10	1	-1E+10	1	-1E+10	1	-1E+10	1	-1E+10	1	-1E+10	1
4901784	14	C	11/22/2015	09:58	-130.317	45.960	0	42.00	0	14.0960	0	32.3160	0	24.096	0	41.651	0	244.9	4	95.3	4	-1E+10	1	-1E+10	1	-1E+10	1	-1E+10	1	-1E+10	1	-1E+10	1
4901784	14	C	11/22/2015	09:58	-130.317	45.960	0	43.90	0	14.0990	0	32.3180	0	24.097	0	43.535	0	244.5	4	95.1	4	-1E+10	1	-1E+10	1	-1E+10	1	-1E+10	1	-1E+10	1	-1E+10	1
4901784	14	C	11/22/2015	09:58	-130.317	45.960	0	45.70	0	14.0840	0	32.3210	0	24.102	0	45.320	0	244.5	4	95.1	4	-1E+10	1	-1E+10	1	-1E+10	1	-1E+10	1	-1E+10	1	-1E+10	1
4901784	14	C	11/22/2015	09:58	-130.317	45.960	0	47.50	0	14.0880	0	32.3200	0	24.101	0	47.105	0	244.3	4	95.0	4	-1E+10	1	-1E+10	1	-1E+10	1	-1E+10	1	-1E+10	1	-1E+10	1
4901784	14	C	11/22/2015	09:58	-130.317	45.960	0	49.30	0	14.0920	0	32.3200	0	24.100	0	48.890	0	244.0	4	94.9	4	-1E+10	1	-1E+10	1	-1E+10	1	-1E+10	1	-1E+10	1	-1E+10	1
4901784	14	C	11/22/2015	09:58	-130.317	45.960	0	51.20	0	14.0960	0	32.3210	0	24.100	0	50.774	0	243.8	4	94.8	4	-1E+10	1	-1E+10	1	-1E+10	1	-1E+10	1	-1E+10	1	-1E+10	1
4901784	14	C	11/22/2015	09:58	-130.317	45.960	0	53.10	0	14.0300	0	32.3370	0	24.126	0	52.658	0	243.1	4	94.5	4	-1E+10	1	-1E+10	1	-1E+10	1	-1E+10	1	-1E+10	1	-1E+10	1
4901784	14	C	11/22/2015	09:58	-130.317	45.960	0	54.80	0	14.0040	0	32.3550	0	24.145	0	54.343	0	243.0	4	94.4	4	-1E+10	1	-1E+10	1	-1E+10	1	-1E+10	1	-1E+10	1	-1E+10	1
4901784	14	C	11/22/2015	09:58	-130.317	45.960	0	56.60	0	13.9570	0	32.3610	0	24.160	0	56.128	0	242.8	4	94.2	4	-1E+10	1	-1E+10	1	-1E+10	1	-1E+10	1	-1E+10	1	-1E+10	1
4901784	14	C	11/22/2015	09:58	-130.317	45.960	0	58.30	0	13.5690	0	32.3450	0	24.226	0	57.813	0	243.5	4	93.7	4	-1E+10	1	-1E+10	1	-1E+10	1	-1E+10	1	-1E+10	1	-1E+10	1
4901784	14	C	11/22/2015	09:58	-130.317	45.960	0	60.10	0	12.8970	0	32.3590	0	24.370	0	59.598	0	243.3	4	92.4	4	-1E+10	1	-1E+10	1	-1E+10	1	-1E+10	1	-1E+10	1	-1E+10	1
4901784	14	C	11/22/2015	09:58	-130.317	45.960	0	60.60	0	12.7200	0	32.3150	0	24.370	0	60.094	0	245.7	4	93.0	4	-1E+10	1	-1E+10	1	-1E+10	1	-1E+10	1	-1E+10	1	-1E+10	1
4901784	14	C	11/22/2015	09:58	-130.317	45.960	0	62.10	0	12.1190	0	32.3210	0	24.489	0	61.581	0	247.1	4	92.3	4	-1E+10	1	-1E+10	1	-1E+10	1	-1E+10	1	-1E+10	1	-1E+10	1
4901784	14	C	11/22/2015	09:58	-130.317	45.960	0	63.70	0	11.7400	0	32.3350	0	24.570	0	63.168	0	248.8	4	92.2	4	-1E+10	1	-1E+10	1	-1E+10	1	-1E+10	1	-1E+10	1	-1E+10	1
4901784	14	C	11/22/2015	09:58	-130.317	45.960	0	65.20	0	11.5420	0	32.3390	0	24.609	0	64.655	0	249.6	4	92.2	4	-1E+10	1	-1E+10	1	-1E+10	1	-1E+10	1	-1E+10	1	-1E+10	1
4901784	14	C	11/22/2015	09:58	-130.317	45.960	0	66.90	0	11.5130	0	32.3350	0	24.611	0	66.340	0	248.9	4	91.8	4	-1E+10	1	-1E+10	1	-1E+10	1	-1E+10	1	-1E+10	1	-1E+10	1
4901784	14	C	11/22/2015	09:58	-130.317	45.960	0	68.40	0	11.4790	0	32.3320	0	24.615	0	67.828	0	247.8	4	91.4	4	-1E+10	1	-1E+10	1	-1E+10	1	-1E+10	1	-1E+10	1	-1E+10	1
4901784	14	C	11/22/2015	09:58	-130.317	45.960	0	70.00	0	11.2550	0	32.3530	0	24.672	0	69.414	0	246.7	4	90.5	4	-1E+10	1	-1E+10	1	-1E+10	1	-1E+10	1	-1E+10	1	-1E+10	1
4901784	14	C	11/22/2015	09:58	-130.317	45.960	0	71.50	0	11.1280	0	32.3760	0	24.712	0	70.901	0	245.8	4	90.0	4	-1E+10	1	-1E+10	1	-1E+10	1	-1E+10	1	-1E+10	1	-1E+10	1
4901784	14	C	11/22/2015	09:58	-130.317	45.960	0	73.10	0	11.0840	0	32.3820	0	24.725	0	72.487	0	244.6	4	89.5	4	-1E+10	1	-1E+10	1	-1E+10	1	-1E+10	1	-1E+10	1	-1E+10	1
4901784	14	C	11/22/2015	09:58	-130.317	45.960	0	74.70	0	10.9680	0	32.3990	0	24.758	0	74.074	0	243.5	4	88.9	4	-1E+10	1	-1E+10	1	-1E+10	1	-1E+10	1	-1E+10	1	-1E+10	1
4901784	14	C	11/22/2015	09:58	-130.317	45.960	0	76.40	0	10.9160	0	32.4140	0	24.779	0	75.759	0	242.4	4	88.4	4	-1E+10	1	-1E+10	1	-1E+10	1	-1E+10	1	-1E+10	1	-1E+10	1
4901784	14	C	11/22/2015	09:58	-130.317	45.960	0	78.00	0	10.8930	0	32.4260	0	24.793	0	77.345	0	240.9	4	87.8	4	-1E+10	1	-1E+10	1	-1E+10	1	-1E+10	1	-1E+10	1	-1E+10	1
4901784	14	C	11/22/2015	09:58	-130.317	45.960	0	79.80	0	10.8900	0	32.4320	0	24.798	0	79.130	0	238.8	4	87.0	4	-1E+10	1	-1E+10	1	-1E+10	1	-1E+10	1	-1E+10	1	-1E+10	1
4901784	14	C	11/22/2015	09:58	-130.317	45.960	0	81.40	0	10.8520	0	32.4360	0	24.808	0	80.716	0	236.0	4	85.9	4	-1E+10	1	-1E+10	1	-1E+10	1	-1E+10	1	-1E+10	1	-1E+10	1
4901784	14	C	11/22/2015	09:58	-130.317	45.960	0	83.10	0	10.7440	0	32.4750	0	24.857	0	82.402	0	232.6	4	84.5	4	-1E+10	1	-1E+10	1	-1E+10	1	-1E+10	1	-1E+10	1	-1E+10	1
4901784	14	C	11/22/2015	09:58	-130.317	45.960	0	84.80	0	10.5090	0	32.5350	0	24.944	0	84.087	0	231.0	4	83.6	4	-1E+10	1	-1E+10	1	-1E+10	1	-1E+10	1	-1E+10	1	-1E+10	1
4901784	14	C	11/22/2015	09:58	-130.317	45.960	0	86.50	0	10.4000	0	32.5620	0	24.984	0	85.772	0	228.9	4	82.6	4	-1E+10	1	-1E+10	1	-1E+10	1	-1E+10	1	-1E+10	1	-1E+10	1
4901784	14	C	11/22/2015	09:58	-130.317	45.960	0	88.30	0	10.3030	0	32.5820	0	25.016	0	87.557	0	227.0	4	81.8	4	-1E+10	1	-1E+10	1	-1E+10	1	-1E+10	1	-1E+10	1	-1E+10	1
4901784	14	C	11/22/2015	09:58	-130.317	45.960	0	90.20	0	10.2150	0	32.5930	0	25.039	0	89.440	0	225.2	4	81.0	4	-1E+10	1	-1E+10	1	-1E+10	1	-1E+10	1	-1E+10	1	-1E+10	1
4901784	14	C	11/22/2015	09:58	-130.317	45.960	0	90.70	0	10.2070	0	32.5940	0	25.041	0	89.936	0	224.2	4	80.6	4	-1E+10	1	-1E+10	1	-1E+10	1	-1E+10	1	-1E+10	1	-1E+10	1
4901784	14	C	11/22/2015	09:58	-130.317	45.960	0	92.20	0	10.1090	0	32.6060	0	25.067	0	91.423	0	222.1	4	79.7	4	-1E+10	1	-1E+10	1	-1E+10	1	-1E+10	1	-1E+10	1	-1E+10	1
4901784	14	C	11/22/2015	09:58	-130.317	45.960	0	93.60	0	9.9360	0	32.6480	0	25.129	0	92.811	0	220.5	4	78.8	4	-1E+10	1	-1E+10	1	-1E+10	1	-1E+10	1	-1E+10	1	-1E+10	1
4901784	14	C	11/22/2015	09:58	-130.317	45.960	0	95.00	0	9.8790	0	32.6600	0	25.147	0	94.199	0	218.9	4	78.2	4	-1E+10	1	-1E+10	1	-1E+10	1	-1E+10	1	-1E+10	1	-1E+10	1
4901784	14	C	11/22/2015	09:58	-130.317	45.960	0	96.50	0	9.8340	0	32.6650	0	25.159	0	95.686	0	217.2	4	77.5	4	-1E+10	1	-1E+10	1	-1E+10	1	-1E+10	1	-1E+10	1	-1E+10	1
4901784	14	C	11/22/2015	09:58	-130.317	45.960	0	98.00	0	9.7250	0	32.6880	0	25.195	0	97.173	0	215.5	4	76.7	4	-1E+10	1	-1E+10	1	-1E+10	1	-1E+10	1	-1E+10	1	-1E+10	1
4901784	14	C	11/22/2015	09:58	-130.317	45.960	0	99.40	0	9.6180	0	32.7130	0	25.231	0	98.561	0	214.0	4	76.0	4	-1E+10	1	-1E+10	1	-1E+10	1	-1E+10	1	-1E+10	1	-1E+10	1
4901784	14	C	11/22/2015	09:58	-130.317	45.960	0	102.50	0	9.5100	0	32.7360	0	25.267	0	101.634	0	211.5	4	75.0	4	-1E+10	1	-1E+10	1	-1E+10	1	-1E+10	1	-1E+10	1	-1E+10	1
4901784	14	C	11/22/2015	09:58	-130.317	45.960	0	104.80	0	9.4580	0	32.7460	0	25.283	0	103.914	0	208.4	4	73.8	4	-1E+10	1	-1E+10	1	-1E+10	1	-1E+10	1	-1E+10	1	-1E+10	1
4901784	14	C	11/22/2015	09:58	-130.317	45.960	0	107.40	0	9.2190	0	32.8140	0	25.374	0	106.491	0	206.2	4	72.7	4	-1E+10	1	-1E+10	1	-1E+10	1	-1E+10	1	-1E+10	1	-1E+10	1
4901784	14	C	11/22/2015	09:58	-130.317	45.960	0	109.90	0	9.1980	0	32.8130	0	25.377	0	108.969	0	203.9	4	71.8	4	-1E+10	1	-1E+10	1	-1E+10	1	-1E+10	1	-1E+10	1	-1E+10	1
4901784	14	C	11/22/2015	09:58	-130.317	45.960	0	112.40	0	9.1190	0	32.8260	0	25.400	0	111.447	0	200.3	4	70.5	4	-1E+10	1	-1E+10	1	-1E+10	1	-1E+10	1	-1E+10	1	-1E+10	1
4901784	14	C	11/22/2015	09:58	-130.317	45.960	0	115.10	0	8.8590	0	32.9000	0	25.498	0	114.124	0	197.5	4	69.1	4	-1E+10	1	-1E+10	1	-1E+10	1	-1E+10	1	-1E+10	1	-1E+10	1
4901784	14	C	11/22/2015	09:58	-130.317	45.960	0	117.90	0	8.6350	0	32.9650	0	25.583	0	116.899	0	195.8	4	68.2	4	-1E+10	1	-1E+10	1	-1E+10	1	-1E+10	1	-1E+10	1	-1E+10	1
4901784	14	C	11/22/2015	09:58	-130.317	45.960	0	120.30	0	8.5560	0	32.9890	0	25.614	0	119.278	0	194.7	4	67.7	4	-1E+10	1	-1E+10	1	-1E+10	1	-1E+10	1	-1E+10	1	-1E+10	1
4901784	14	C	11/22/2015	09:58	-130.317	45.960	0	122.90	0	8.4790	0	33.0150	0	25.646	0	121.855	0	192.9	4	67.0	4	-1E+10	1	-1E+10	1	-1E+10	1	-1E+10	1	-1E+10	1	-1E+10	1
4901784	14	C	11/22/2015	09:58	-130.317	45.960	0	125.30	0	8.4300	0	33.0290	0	25.665	0	124.234	0	190.7	4	66.1	4	-1E+10	1	-1E+10	1	-1E+10	1	-1E+10	1	-1E+10	1	-1E+10	1
4901784	14	C	11/22/2015	09:58	-130.317	45.960	0	127.60	0	8.3090	0	33.0740	0	25.718	0	126.514	0	188.1	4	65.1	4	-1E+10	1	-1E+10	1	-1E+10	1	-1E+10	1	-1E+10	1	-1E+10	1
4901784	14	C	11/22/2015	09:58	-130.317	45.960	0	129.90	0	8.1880	0	33.1200	0	25.772	0	128.794	0	186.0	4	64.2	4	-1E+10	1	-1E+10	1	-1E+10	1	-1E+10	1	-1E+10	1	-1E+10	1
4901784	14	C	11/22/2015	09:58	-130.317	45.960	0	132.20	0	8.0760	0	33.1780	0	25.834	0	131.073	0	184.0	4	63.4	4	-1E+10	1	-1E+10	1	-1E+10	1	-1E+10	1	-1E+10	1	-1E+10	1
4901784	14	C	11/22/2015	09:58	-130.317	45.960	0	135.20	0	7.9780	0	33.2440	0	25.900	0	134.047	0	181.1	4	62.3	4	-1E+10	1	-1E+10	1	-1E+10	1	-1E+10	1	-1E+10	1	-1E+10	1
4901784	14	C	11/22/2015	09:58	-130.317	45.960	0	137.60	0	7.9420	0	33.2700	0	25.926	0	136.425	0	179.3	4	61.6	4	-1E+10	1	-1E+10	1	-1E+10	1	-1E+10	1	-1E+10	1	-1E+10	1
4901784	14	C	11/22/2015	09:58	-130.317	45.960	0	139.90	0	7.9030	0	33.3080	0	25.962	0	138.705	0	177.4	4	61.0	4	-1E+10	1	-1E+10	1	-1E+10	1	-1E+10	1	-1E+10	1	-1E+10	1
4901784	14	C	11/22/2015	09:58	-130.317	45.960	0	142.30	0	7.8900	0	33.3230	0	25.975	0	141.084	0	175.5	4	60.3	4	-1E+10	1	-1E+10	1	-1E+10	1	-1E+10	1	-1E+10	1	-1E+10	1
4901784	14	C	11/22/2015	09:58	-130.317	45.960	0	144.80	0	7.8490	0	33.3650	0	26.014	0	143.562	0	172.7	4	59.3	4	-1E+10	1	-1E+10	1	-1E+10	1	-1E+10	1	-1E+10	1	-1E+10	1
4901784	14	C	11/22/2015	09:58	-130.317	45.960	0	147.30	0	7.7990	0	33.4210	0	26.065	0	146.039	0	170.5	4	58.5	4	-1E+10	1	-1E+10	1	-1E+10	1	-1E+10	1	-1E+10	1	-1E+10	1
4901784	14	C	11/22/2015	09:58	-130.317	45.960	0	150.00	0	7.7810	0	33.4550	0	26.095	0	148.715	0	170.1	4	58.3	4	-1E+10	1	-1E+10	1	-1E+10	1	-1E+10	1	-1E+10	1	-1E+10	1
4901784	14	C	11/22/2015	09:58	-130.317	45.960	0	152.70	0	7.7890	0	33.4820	0	26.115	0	151.391	0	168.4	4	57.8	4	-1E+10	1	-1E+10	1	-1E+10	1	-1E+10	1	-1E+10	1	-1E+10	1
4901784	14	C	11/22/2015	09:58	-130.317	45.960	0	154.50	0	7.7690	0	33.4910	0	26.125	0	153.175	0	166.3	4	57.0	4	-1E+10	1	-1E+10	1	-1E+10	1	-1E+10	1	-1E+10	1	-1E+10	1
4901784	14	C	11/22/2015	09:58	-130.317	45.960	0	157.20	0	7.7490	0	33.5050	0	26.139	0	155.851	0	164.1	4	56.2	4	-1E+10	1	-1E+10	1	-1E+10	1	-1E+10	1	-1E+10	1	-1E+10	1
4901784	14	C	11/22/2015	09:58	-130.317	45.960	0	159.70	0	7.7450	0	33.5080	0	26.142	0	158.328	0	161.9	4	55.5	4	-1E+10	1	-1E+10	1	-1E+10	1	-1E+10	1	-1E+10	1	-1E+10	1
4901784	14	C	11/22/2015	09:58	-130.317	45.960	0	162.30	0	7.7250	0	33.5280	0	26.160	0	160.905	0	159.5	4	54.7	4	-1E+10	1	-1E+10	1	-1E+10	1	-1E+10	1	-1E+10	1	-1E+10	1
4901784	14	C	11/22/2015	09:58	-130.317	45.960	0	164.90	0	7.7170	0	33.5360	0	26.168	0	163.482	0	157.5	4	54.0	4	-1E+10	1	-1E+10	1	-1E+10	1	-1E+10	1	-1E+10	1	-1E+10	1
4901784	14	C	11/22/2015	09:58	-130.317	45.960	0	167.50	0	7.6980	0	33.5550	0	26.186	0	166.058	0	155.1	4	53.1	4	-1E+10	1	-1E+10	1	-1E+10	1	-1E+10	1	-1E+10	1	-1E+10	1
4901784	14	C	11/22/2015	09:58	-130.317	45.960	0	170.20	0	7.6770	0	33.5810	0	26.209	0	168.734	0	153.2	4	52.5	4	-1E+10	1	-1E+10	1	-1E+10	1	-1E+10	1	-1E+10	1	-1E+10	1
4901784	14	C	11/22/2015	09:58	-130.317	45.960	0	172.00	0	7.6530	0	33.6070	0	26.233	0	170.518	0	151.9	4	52.0	4	-1E+10	1	-1E+10	1	-1E+10	1	-1E+10	1	-1E+10	1	-1E+10	1
4901784	14	C	11/22/2015	09:58	-130.317	45.960	0	174.80	0	7.6170	0	33.6510	0	26.273	0	173.292	0	151.2	4	51.7	4	-1E+10	1	-1E+10	1	-1E+10	1	-1E+10	1	-1E+10	1	-1E+10	1
4901784	14	C	11/22/2015	09:58	-130.317	45.960	0	177.50	0	7.5890	0	33.6830	0	26.302	0	175.968	0	150.5	4	51.5	4	-1E+10	1	-1E+10	1	-1E+10	1	-1E+10	1	-1E+10	1	-1E+10	1
4901784	14	C	11/22/2015	09:58	-130.317	45.960	0	179.30	0	7.5790	0	33.6960	0	26.314	0	177.752	0	149.8	4	51.2	4	-1E+10	1	-1E+10	1	-1E+10	1	-1E+10	1	-1E+10	1	-1E+10	1
4901784	14	C	11/22/2015	09:58	-130.317	45.960	0	182.30	0	7.5650	0	33.7080	0	26.325	0	180.724	0	148.0	4	50.6	4	-1E+10	1	-1E+10	1	-1E+10	1	-1E+10	1	-1E+10	1	-1E+10	1
4901784	14	C	11/22/2015	09:58	-130.317	45.960	0	185.10	0	7.5370	0	33.7290	0	26.346	0	183.499	0	145.0	4	49.6	4	-1E+10	1	-1E+10	1	-1E+10	1	-1E+10	1	-1E+10	1	-1E+10	1
4901784	14	C	11/22/2015	09:58	-130.317	45.960	0	187.60	0	7.4960	0	33.7460	0	26.365	0	185.976	0	142.8	4	48.8	4	-1E+10	1	-1E+10	1	-1E+10	1	-1E+10	1	-1E+10	1	-1E+10	1
4901784	14	C	11/22/2015	09:58	-130.317	45.960	0	190.00	0	7.4290	0	33.7610	0	26.386	0	188.354	0	140.8	4	48.0	4	-1E+10	1	-1E+10	1	-1E+10	1	-1E+10	1	-1E+10	1	-1E+10	1
4901784	14	C	11/22/2015	09:58	-130.317	45.960	0	192.50	0	7.4040	0	33.7640	0	26.392	0	190.832	0	138.8	4	47.3	4	-1E+10	1	-1E+10	1	-1E+10	1	-1E+10	1	-1E+10	1	-1E+10	1
4901784	14	C	11/22/2015	09:58	-130.317	45.960	0	195.00	0	7.3940	0	33.7710	0	26.399	0	193.309	0	136.1	4	46.4	4	-1E+10	1	-1E+10	1	-1E+10	1	-1E+10	1	-1E+10	1	-1E+10	1
4901784	14	C	11/22/2015	09:58	-130.317	45.960	0	197.50	0	7.3790	0	33.7840	0	26.411	0	195.786	0	133.5	4	45.5	4	-1E+10	1	-1E+10	1	-1E+10	1	-1E+10	1	-1E+10	1	-1E+10	1
4901784	14	C	11/22/2015	09:58	-130.317	45.960	0	199.90	0	7.3650	0	33.7940	0	26.421	0	198.164	0	132.0	4	45.0	4	-1E+10	1	-1E+10	1	-1E+10	1	-1E+10	1	-1E+10	1	-1E+10	1
4901784	14	C	11/22/2015	09:58	-130.317	45.960	0	202.40	0	7.3410	0	33.8000	0	26.429	0	200.641	0	130.8	4	44.5	4	-1E+10	1	-1E+10	1	-1E+10	1	-1E+10	1	-1E+10	1	-1E+10	1
4901784	14	C	11/22/2015	09:58	-130.317	45.960	0	204.90	0	7.3370	0	33.8020	0	26.431	0	203.118	0	129.6	4	44.1	4	-1E+10	1	-1E+10	1	-1E+10	1	-1E+10	1	-1E+10	1	-1E+10	1
4901784	14	C	11/22/2015	09:58	-130.317	45.960	0	207.40	0	7.3320	0	33.8100	0	26.438	0	205.595	0	128.4	4	43.7	4	-1E+10	1	-1E+10	1	-1E+10	1	-1E+10	1	-1E+10	1	-1E+10	1
4901784	14	C	11/22/2015	09:58	-130.317	45.960	0	209.90	0	7.3210	0	33.8170	0	26.445	0	208.072	0	127.5	4	43.4	4	-1E+10	1	-1E+10	1	-1E+10	1	-1E+10	1	-1E+10	1	-1E+10	1
4901784	14	C	11/22/2015	09:58	-130.317	45.960	0	212.40	0	7.3150	0	33.8180	0	26.447	0	210.549	0	126.7	4	43.1	4	-1E+10	1	-1E+10	1	-1E+10	1	-1E+10	1	-1E+10	1	-1E+10	1
4901784	14	C	11/22/2015	09:58	-130.317	45.960	0	214.90	0	7.2680	0	33.8270	0	26.461	0	213.026	0	125.5	4	42.7	4	-1E+10	1	-1E+10	1	-1E+10	1	-1E+10	1	-1E+10	1	-1E+10	1
4901784	14	C	11/22/2015	09:58	-130.317	45.960	0	217.40	0	7.2520	0	33.8290	0	26.465	0	215.503	0	124.7	4	42.4	4	-1E+10	1	-1E+10	1	-1E+10	1	-1E+10	1	-1E+10	1	-1E+10	1
4901784	14	C	11/22/2015	09:58	-130.317	45.960	0	220.00	0	7.2510	0	33.8280	0	26.464	0	218.079	0	123.6	4	42.0	4	-1E+10	1	-1E+10	1	-1E+10	1	-1E+10	1	-1E+10	1	-1E+10	1
4901784	14	C	11/22/2015	09:58	-130.317	45.960	0	222.50	0	7.1960	0	33.8350	0	26.477	0	220.555	0	121.9	4	41.4	4	-1E+10	1	-1E+10	1	-1E+10	1	-1E+10	1	-1E+10	1	-1E+10	1
4901784	14	C	11/22/2015	09:58	-130.317	45.960	0	225.00	0	7.1140	0	33.8550	0	26.504	0	223.032	0	120.9	4	41.0	4	-1E+10	1	-1E+10	1	-1E+10	1	-1E+10	1	-1E+10	1	-1E+10	1
4901784	14	C	11/22/2015	09:58	-130.317	45.960	0	227.50	0	7.0740	0	33.8630	0	26.516	0	225.509	0	120.5	4	40.8	4	-1E+10	1	-1E+10	1	-1E+10	1	-1E+10	1	-1E+10	1	-1E+10	1
4901784	14	C	11/22/2015	09:58	-130.317	45.960	0	230.10	0	7.0080	0	33.8670	0	26.528	0	228.085	0	120.0	4	40.5	4	-1E+10	1	-1E+10	1	-1E+10	1	-1E+10	1	-1E+10	1	-1E+10	1
4901784	14	C	11/22/2015	09:58	-130.317	45.960	0	232.70	0	6.9850	0	33.8710	0	26.535	0	230.661	0	119.0	4	40.2	4	-1E+10	1	-1E+10	1	-1E+10	1	-1E+10	1	-1E+10	1	-1E+10	1
4901784	14	C	11/22/2015	09:58	-130.317	45.960	0	235.30	0	6.9560	0	33.8740	0	26.541	0	233.236	0	117.3	4	39.6	4	-1E+10	1	-1E+10	1	-1E+10	1	-1E+10	1	-1E+10	1	-1E+10	1
4901784	14	C	11/22/2015	09:58	-130.317	45.960	0	237.10	0	6.9430	0	33.8790	0	26.547	0	235.020	0	115.6	4	39.0	4	-1E+10	1	-1E+10	1	-1E+10	1	-1E+10	1	-1E+10	1	-1E+10	1
4901784	14	C	11/22/2015	09:58	-130.317	45.960	0	239.80	0	6.9290	0	33.8800	0	26.549	0	237.694	0	112.4	4	37.9	4	-1E+10	1	-1E+10	1	-1E+10	1	-1E+10	1	-1E+10	1	-1E+10	1
4901784	14	C	11/22/2015	09:58	-130.317	45.960	0	242.40	0	6.9560	0	33.8920	0	26.555	0	240.270	0	110.5	4	37.3	4	-1E+10	1	-1E+10	1	-1E+10	1	-1E+10	1	-1E+10	1	-1E+10	1
4901784	14	C	11/22/2015	09:58	-130.317	45.960	0	245.20	0	6.9190	0	33.8920	0	26.560	0	243.044	0	112.1	4	37.8	4	-1E+10	1	-1E+10	1	-1E+10	1	-1E+10	1	-1E+10	1	-1E+10	1
4901784	14	C	11/22/2015	09:58	-130.317	45.960	0	247.90	0	6.8900	0	33.8910	0	26.563	0	245.718	0	114.6	4	38.6	4	-1E+10	1	-1E+10	1	-1E+10	1	-1E+10	1	-1E+10	1	-1E+10	1
4901784	14	C	11/22/2015	09:58	-130.317	45.960	0	249.80	0	6.8240	0	33.8940	0	26.575	0	247.601	0	116.5	4	39.2	4	-1E+10	1	-1E+10	1	-1E+10	1	-1E+10	1	-1E+10	1	-1E+10	1
4901784	14	C	11/22/2015	09:58	-130.317	45.960	0	252.60	0	6.7860	0	33.8890	0	26.576	0	250.374	0	117.0	4	39.3	4	-1E+10	1	-1E+10	1	-1E+10	1	-1E+10	1	-1E+10	1	-1E+10	1
4901784	14	C	11/22/2015	09:58	-130.317	45.960	0	255.30	0	6.7520	0	33.8900	0	26.581	0	253.049	0	116.4	4	39.1	4	-1E+10	1	-1E+10	1	-1E+10	1	-1E+10	1	-1E+10	1	-1E+10	1
4901784	14	C	11/22/2015	09:58	-130.317	45.960	0	257.20	0	6.7270	0	33.8910	0	26.585	0	254.931	0	115.9	4	38.9	4	-1E+10	1	-1E+10	1	-1E+10	1	-1E+10	1	-1E+10	1	-1E+10	1
4901784	14	C	11/22/2015	09:58	-130.317	45.960	0	260.00	0	6.7130	0	33.8910	0	26.587	0	257.704	0	115.0	4	38.6	4	-1E+10	1	-1E+10	1	-1E+10	1	-1E+10	1	-1E+10	1	-1E+10	1
4901784	14	C	11/22/2015	09:58	-130.317	45.960	0	262.90	0	6.6900	0	33.8930	0	26.592	0	260.577	0	114.0	4	38.3	4	-1E+10	1	-1E+10	1	-1E+10	1	-1E+10	1	-1E+10	1	-1E+10	1
4901784	14	C	11/22/2015	09:58	-130.317	45.960	0	264.80	0	6.6800	0	33.8930	0	26.593	0	262.459	0	113.1	4	38.0	4	-1E+10	1	-1E+10	1	-1E+10	1	-1E+10	1	-1E+10	1	-1E+10	1
4901784	14	C	11/22/2015	09:58	-130.317	45.960	0	267.60	0	6.6680	0	33.8960	0	26.597	0	265.232	0	111.4	4	37.4	4	-1E+10	1	-1E+10	1	-1E+10	1	-1E+10	1	-1E+10	1	-1E+10	1
4901784	14	C	11/22/2015	09:58	-130.317	45.960	0	270.50	0	6.6310	0	33.8970	0	26.603	0	268.105	0	110.2	4	37.0	4	-1E+10	1	-1E+10	1	-1E+10	1	-1E+10	1	-1E+10	1	-1E+10	1
4901784	14	C	11/22/2015	09:58	-130.317	45.960	0	272.40	0	6.6040	0	33.8980	0	26.607	0	269.987	0	109.4	4	36.6	4	-1E+10	1	-1E+10	1	-1E+10	1	-1E+10	1	-1E+10	1	-1E+10	1
4901784	14	C	11/22/2015	09:58	-130.317	45.960	0	274.20	0	6.5810	0	33.8980	0	26.610	0	271.770	0	108.1	4	36.2	4	-1E+10	1	-1E+10	1	-1E+10	1	-1E+10	1	-1E+10	1	-1E+10	1
4901784	14	C	11/22/2015	09:58	-130.317	45.960	0	277.30	0	6.5430	0	33.9050	0	26.621	0	274.840	0	105.8	4	35.4	4	-1E+10	1	-1E+10	1	-1E+10	1	-1E+10	1	-1E+10	1	-1E+10	1
4901784	14	C	11/22/2015	09:58	-130.317	45.960	0	280.20	0	6.5540	0	33.9080	0	26.622	0	277.713	0	104.6	4	35.0	4	-1E+10	1	-1E+10	1	-1E+10	1	-1E+10	1	-1E+10	1	-1E+10	1
4901784	14	C	11/22/2015	09:58	-130.317	45.960	0	282.60	0	6.5240	0	33.9080	0	26.626	0	280.090	0	104.5	4	34.9	4	-1E+10	1	-1E+10	1	-1E+10	1	-1E+10	1	-1E+10	1	-1E+10	1
4901784	14	C	11/22/2015	09:58	-130.317	45.960	0	285.00	0	6.4800	0	33.9080	0	26.632	0	282.467	0	104.6	4	34.9	4	-1E+10	1	-1E+10	1	-1E+10	1	-1E+10	1	-1E+10	1	-1E+10	1
4901784	14	C	11/22/2015	09:58	-130.317	45.960	0	287.50	0	6.4600	0	33.9060	0	26.633	0	284.943	0	104.0	4	34.7	4	-1E+10	1	-1E+10	1	-1E+10	1	-1E+10	1	-1E+10	1	-1E+10	1
4901784	14	C	11/22/2015	09:58	-130.317	45.960	0	289.90	0	6.4210	0	33.9050	0	26.637	0	287.320	0	103.1	4	34.4	4	-1E+10	1	-1E+10	1	-1E+10	1	-1E+10	1	-1E+10	1	-1E+10	1
4901784	14	C	11/22/2015	09:58	-130.317	45.960	0	292.30	0	6.3740	0	33.9070	0	26.645	0	289.697	0	101.9	4	34.0	4	-1E+10	1	-1E+10	1	-1E+10	1	-1E+10	1	-1E+10	1	-1E+10	1
4901784	14	C	11/22/2015	09:58	-130.317	45.960	0	294.70	0	6.3370	0	33.9090	0	26.651	0	292.074	0	100.4	4	33.4	4	-1E+10	1	-1E+10	1	-1E+10	1	-1E+10	1	-1E+10	1	-1E+10	1
4901784	14	C	11/22/2015	09:58	-130.317	45.960	0	297.20	0	6.3170	0	33.9100	0	26.655	0	294.550	0	99.1	4	33.0	4	-1E+10	1	-1E+10	1	-1E+10	1	-1E+10	1	-1E+10	1	-1E+10	1
4901784	14	C	11/22/2015	09:58	-130.317	45.960	0	299.70	0	6.2870	0	33.9120	0	26.660	0	297.025	0	97.9	4	32.6	4	-1E+10	1	-1E+10	1	-1E+10	1	-1E+10	1	-1E+10	1	-1E+10	1
4901784	14	C	11/22/2015	09:58	-130.317	45.960	0	302.30	0	6.2540	0	33.9140	0	26.666	0	299.600	0	97.2	4	32.3	4	-1E+10	1	-1E+10	1	-1E+10	1	-1E+10	1	-1E+10	1	-1E+10	1
4901784	14	C	11/22/2015	09:58	-130.317	45.960	0	304.80	0	6.2120	0	33.9160	0	26.673	0	302.076	0	96.4	4	32.0	4	-1E+10	1	-1E+10	1	-1E+10	1	-1E+10	1	-1E+10	1	-1E+10	1
4901784	14	C	11/22/2015	09:58	-130.317	45.960	0	307.40	0	6.1850	0	33.9160	0	26.676	0	304.651	0	95.8	4	31.8	4	-1E+10	1	-1E+10	1	-1E+10	1	-1E+10	1	-1E+10	1	-1E+10	1
4901784	14	C	11/22/2015	09:58	-130.317	45.960	0	309.80	0	6.1680	0	33.9170	0	26.679	0	307.028	0	95.2	4	31.6	4	-1E+10	1	-1E+10	1	-1E+10	1	-1E+10	1	-1E+10	1	-1E+10	1
4901784	14	C	11/22/2015	09:58	-130.317	45.960	0	312.30	0	6.1170	0	33.9150	0	26.684	0	309.504	0	94.7	4	31.4	4	-1E+10	1	-1E+10	1	-1E+10	1	-1E+10	1	-1E+10	1	-1E+10	1
4901784	14	C	11/22/2015	09:58	-130.317	45.960	0	314.80	0	6.0370	0	33.9130	0	26.693	0	311.979	0	93.3	4	30.9	4	-1E+10	1	-1E+10	1	-1E+10	1	-1E+10	1	-1E+10	1	-1E+10	1
4901784	14	C	11/22/2015	09:58	-130.317	45.960	0	317.30	0	6.0090	0	33.9150	0	26.698	0	314.455	0	90.0	4	29.7	4	-1E+10	1	-1E+10	1	-1E+10	1	-1E+10	1	-1E+10	1	-1E+10	1
4901784	14	C	11/22/2015	09:58	-130.317	45.960	0	319.80	0	6.0150	0	33.9210	0	26.702	0	316.931	0	85.3	4	28.2	4	-1E+10	1	-1E+10	1	-1E+10	1	-1E+10	1	-1E+10	1	-1E+10	1
4901784	14	C	11/22/2015	09:58	-130.317	45.960	0	322.30	0	6.0710	0	33.9350	0	26.706	0	319.406	0	81.9	4	27.1	4	-1E+10	1	-1E+10	1	-1E+10	1	-1E+10	1	-1E+10	1	-1E+10	1
4901784	14	C	11/22/2015	09:58	-130.317	45.960	0	324.90	0	6.0740	0	33.9380	0	26.708	0	321.981	0	80.7	4	26.7	4	-1E+10	1	-1E+10	1	-1E+10	1	-1E+10	1	-1E+10	1	-1E+10	1
4901784	14	C	11/22/2015	09:58	-130.317	45.960	0	327.50	0	6.0600	0	33.9400	0	26.711	0	324.556	0	79.7	4	26.4	4	-1E+10	1	-1E+10	1	-1E+10	1	-1E+10	1	-1E+10	1	-1E+10	1
4901784	14	C	11/22/2015	09:58	-130.317	45.960	0	330.10	0	6.0480	0	33.9420	0	26.714	0	327.130	0	79.0	4	26.1	4	-1E+10	1	-1E+10	1	-1E+10	1	-1E+10	1	-1E+10	1	-1E+10	1
4901784	14	C	11/22/2015	09:58	-130.317	45.960	0	332.70	0	6.0390	0	33.9420	0	26.715	0	329.705	0	78.2	4	25.9	4	-1E+10	1	-1E+10	1	-1E+10	1	-1E+10	1	-1E+10	1	-1E+10	1
4901784	14	C	11/22/2015	09:58	-130.317	45.960	0	335.20	0	6.0240	0	33.9430	0	26.718	0	332.180	0	77.4	4	25.6	4	-1E+10	1	-1E+10	1	-1E+10	1	-1E+10	1	-1E+10	1	-1E+10	1
4901784	14	C	11/22/2015	09:58	-130.317	45.960	0	337.80	0	6.0100	0	33.9440	0	26.721	0	334.755	0	76.4	4	25.3	4	-1E+10	1	-1E+10	1	-1E+10	1	-1E+10	1	-1E+10	1	-1E+10	1
4901784	14	C	11/22/2015	09:58	-130.317	45.960	0	340.40	0	5.9920	0	33.9440	0	26.723	0	337.329	0	75.2	4	24.9	4	-1E+10	1	-1E+10	1	-1E+10	1	-1E+10	1	-1E+10	1	-1E+10	1
4901784	14	C	11/22/2015	09:58	-130.317	45.960	0	342.20	0	5.9720	0	33.9460	0	26.727	0	339.111	0	74.2	4	24.5	4	-1E+10	1	-1E+10	1	-1E+10	1	-1E+10	1	-1E+10	1	-1E+10	1
4901784	14	C	11/22/2015	09:58	-130.317	45.960	0	344.70	0	5.9450	0	33.9500	0	26.734	0	341.587	0	73.7	4	24.3	4	-1E+10	1	-1E+10	1	-1E+10	1	-1E+10	1	-1E+10	1	-1E+10	1
4901784	14	C	11/22/2015	09:58	-130.317	45.960	0	347.30	0	5.9410	0	33.9500	0	26.734	0	344.161	0	73.3	4	24.2	4	-1E+10	1	-1E+10	1	-1E+10	1	-1E+10	1	-1E+10	1	-1E+10	1
4901784	14	C	11/22/2015	09:58	-130.317	45.960	0	349.90	0	5.9280	0	33.9510	0	26.737	0	346.735	0	72.5	4	23.9	4	-1E+10	1	-1E+10	1	-1E+10	1	-1E+10	1	-1E+10	1	-1E+10	1
4901784	14	C	11/22/2015	09:58	-130.317	45.960	0	352.50	0	5.8870	0	33.9510	0	26.742	0	349.310	0	71.8	4	23.7	4	-1E+10	1	-1E+10	1	-1E+10	1	-1E+10	1	-1E+10	1	-1E+10	1
4901784	14	C	11/22/2015	09:58	-130.317	45.960	0	355.10	0	5.8500	0	33.9520	0	26.747	0	351.884	0	71.0	4	23.4	4	-1E+10	1	-1E+10	1	-1E+10	1	-1E+10	1	-1E+10	1	-1E+10	1
4901784	14	C	11/22/2015	09:58	-130.317	45.960	0	357.60	0	5.8380	0	33.9520	0	26.749	0	354.359	0	69.9	4	23.0	4	-1E+10	1	-1E+10	1	-1E+10	1	-1E+10	1	-1E+10	1	-1E+10	1
4901784	14	C	11/22/2015	09:58	-130.317	45.960	0	360.20	0	5.8430	0	33.9560	0	26.751	0	356.933	0	68.4	4	22.5	4	-1E+10	1	-1E+10	1	-1E+10	1	-1E+10	1	-1E+10	1	-1E+10	1
4901784	14	C	11/22/2015	09:58	-130.317	45.960	0	362.70	0	5.8470	0	33.9590	0	26.753	0	359.409	0	67.1	4	22.1	4	-1E+10	1	-1E+10	1	-1E+10	1	-1E+10	1	-1E+10	1	-1E+10	1
4901784	14	C	11/22/2015	09:58	-130.317	45.960	0	365.30	0	5.8230	0	33.9620	0	26.758	0	361.983	0	66.0	4	21.7	4	-1E+10	1	-1E+10	1	-1E+10	1	-1E+10	1	-1E+10	1	-1E+10	1
4901784	14	C	11/22/2015	09:58	-130.317	45.960	0	367.90	0	5.7950	0	33.9630	0	26.763	0	364.557	0	65.3	4	21.5	4	-1E+10	1	-1E+10	1	-1E+10	1	-1E+10	1	-1E+10	1	-1E+10	1
4901784	14	C	11/22/2015	09:58	-130.317	45.960	0	369.60	0	5.7940	0	33.9630	0	26.763	0	366.240	0	64.7	4	21.3	4	-1E+10	1	-1E+10	1	-1E+10	1	-1E+10	1	-1E+10	1	-1E+10	1
4901784	14	C	11/22/2015	09:58	-130.317	45.960	0	372.20	0	5.7660	0	33.9650	0	26.768	0	368.814	0	63.9	4	21.0	4	-1E+10	1	-1E+10	1	-1E+10	1	-1E+10	1	-1E+10	1	-1E+10	1
4901784	14	C	11/22/2015	09:58	-130.317	45.960	0	374.80	0	5.7500	0	33.9660	0	26.771	0	371.388	0	63.0	4	20.7	4	-1E+10	1	-1E+10	1	-1E+10	1	-1E+10	1	-1E+10	1	-1E+10	1
4901784	14	C	11/22/2015	09:58	-130.317	45.960	0	377.40	0	5.7230	0	33.9690	0	26.776	0	373.962	0	62.3	4	20.5	4	-1E+10	1	-1E+10	1	-1E+10	1	-1E+10	1	-1E+10	1	-1E+10	1
4901784	14	C	11/22/2015	09:58	-130.317	45.960	0	380.00	0	5.6990	0	33.9700	0	26.780	0	376.536	0	61.6	4	20.2	4	-1E+10	1	-1E+10	1	-1E+10	1	-1E+10	1	-1E+10	1	-1E+10	1
4901784	14	C	11/22/2015	09:58	-130.317	45.960	0	382.60	0	5.6890	0	33.9710	0	26.782	0	379.110	0	60.8	4	19.9	4	-1E+10	1	-1E+10	1	-1E+10	1	-1E+10	1	-1E+10	1	-1E+10	1
4901784	14	C	11/22/2015	09:58	-130.317	45.960	0	385.10	0	5.6760	0	33.9720	0	26.785	0	381.585	0	59.8	4	19.6	4	-1E+10	1	-1E+10	1	-1E+10	1	-1E+10	1	-1E+10	1	-1E+10	1
4901784	14	C	11/22/2015	09:58	-130.317	45.960	0	387.70	0	5.6660	0	33.9730	0	26.787	0	384.159	0	58.7	4	19.3	4	-1E+10	1	-1E+10	1	-1E+10	1	-1E+10	1	-1E+10	1	-1E+10	1
4901784	14	C	11/22/2015	09:58	-130.317	45.960	0	390.10	0	5.6340	0	33.9770	0	26.794	0	386.534	0	57.6	4	18.9	4	-1E+10	1	-1E+10	1	-1E+10	1	-1E+10	1	-1E+10	1	-1E+10	1
4901784	14	C	11/22/2015	09:58	-130.317	45.960	0	392.70	0	5.6070	0	33.9790	0	26.798	0	389.108	0	56.8	4	18.6	4	-1E+10	1	-1E+10	1	-1E+10	1	-1E+10	1	-1E+10	1	-1E+10	1
4901784	14	C	11/22/2015	09:58	-130.317	45.960	0	395.20	0	5.5820	0	33.9810	0	26.803	0	391.583	0	56.1	4	18.4	4	-1E+10	1	-1E+10	1	-1E+10	1	-1E+10	1	-1E+10	1	-1E+10	1
4901784	14	C	11/22/2015	09:58	-130.317	45.960	0	397.70	0	5.5680	0	33.9830	0	26.806	0	394.058	0	55.6	4	18.2	4	-1E+10	1	-1E+10	1	-1E+10	1	-1E+10	1	-1E+10	1	-1E+10	1
4901784	14	C	11/22/2015	09:58	-130.317	45.960	0	400.30	0	5.5530	0	33.9840	0	26.809	0	396.631	0	55.0	4	18.0	4	-1E+10	1	-1E+10	1	-1E+10	1	-1E+10	1	-1E+10	1	-1E+10	1
4901784	14	C	11/22/2015	09:58	-130.317	45.960	0	402.80	0	5.5250	0	33.9850	0	26.813	0	399.106	0	54.4	4	17.8	4	-1E+10	1	-1E+10	1	-1E+10	1	-1E+10	1	-1E+10	1	-1E+10	1
4901784	14	C	11/22/2015	09:58	-130.317	45.960	0	405.30	0	5.5090	0	33.9890	0	26.818	0	401.581	0	54.0	4	17.6	4	-1E+10	1	-1E+10	1	-1E+10	1	-1E+10	1	-1E+10	1	-1E+10	1
4901784	14	C	11/22/2015	09:58	-130.317	45.960	0	407.90	0	5.5050	0	33.9890	0	26.819	0	404.154	0	53.6	4	17.5	4	-1E+10	1	-1E+10	1	-1E+10	1	-1E+10	1	-1E+10	1	-1E+10	1
4901784	14	C	11/22/2015	09:58	-130.317	45.960	0	410.40	0	5.5010	0	33.9890	0	26.819	0	406.629	0	53.2	4	17.4	4	-1E+10	1	-1E+10	1	-1E+10	1	-1E+10	1	-1E+10	1	-1E+10	1
4901784	14	C	11/22/2015	09:58	-130.317	45.960	0	412.20	0	5.4950	0	33.9900	0	26.821	0	408.411	0	53.0	4	17.3	4	-1E+10	1	-1E+10	1	-1E+10	1	-1E+10	1	-1E+10	1	-1E+10	1
4901784	14	C	11/22/2015	09:58	-130.317	45.960	0	414.80	0	5.4900	0	33.9900	0	26.821	0	410.984	0	52.5	4	17.1	4	-1E+10	1	-1E+10	1	-1E+10	1	-1E+10	1	-1E+10	1	-1E+10	1
4901784	14	C	11/22/2015	09:58	-130.317	45.960	0	417.40	0	5.4860	0	33.9900	0	26.822	0	413.558	0	51.8	4	16.9	4	-1E+10	1	-1E+10	1	-1E+10	1	-1E+10	1	-1E+10	1	-1E+10	1
4901784	14	C	11/22/2015	09:58	-130.317	45.960	0	420.10	0	5.4670	0	33.9940	0	26.827	0	416.230	0	51.0	4	16.6	4	-1E+10	1	-1E+10	1	-1E+10	1	-1E+10	1	-1E+10	1	-1E+10	1
4901784	14	C	11/22/2015	09:58	-130.317	45.960	0	422.70	0	5.4570	0	33.9950	0	26.829	0	418.804	0	50.4	4	16.5	4	-1E+10	1	-1E+10	1	-1E+10	1	-1E+10	1	-1E+10	1	-1E+10	1
4901784	14	C	11/22/2015	09:58	-130.317	45.960	0	424.50	0	5.4500	0	33.9960	0	26.831	0	420.585	0	50.1	4	16.3	4	-1E+10	1	-1E+10	1	-1E+10	1	-1E+10	1	-1E+10	1	-1E+10	1
4901784	14	C	11/22/2015	09:58	-130.317	45.960	0	427.20	0	5.4420	0	33.9970	0	26.833	0	423.257	0	49.3	4	16.1	4	-1E+10	1	-1E+10	1	-1E+10	1	-1E+10	1	-1E+10	1	-1E+10	1
4901784	14	C	11/22/2015	09:58	-130.317	45.960	0	429.90	0	5.4060	0	34.0000	0	26.839	0	425.930	0	48.8	4	15.9	4	-1E+10	1	-1E+10	1	-1E+10	1	-1E+10	1	-1E+10	1	-1E+10	1
4901784	14	C	11/22/2015	09:58	-130.317	45.960	0	432.60	0	5.3840	0	34.0010	0	26.843	0	428.602	0	48.1	4	15.7	4	-1E+10	1	-1E+10	1	-1E+10	1	-1E+10	1	-1E+10	1	-1E+10	1
4901784	14	C	11/22/2015	09:58	-130.317	45.960	0	435.30	0	5.3720	0	34.0020	0	26.845	0	431.274	0	47.3	4	15.4	4	-1E+10	1	-1E+10	1	-1E+10	1	-1E+10	1	-1E+10	1	-1E+10	1
4901784	14	C	11/22/2015	09:58	-130.317	45.960	0	437.10	0	5.3670	0	34.0040	0	26.847	0	433.056	0	46.7	4	15.2	4	-1E+10	1	-1E+10	1	-1E+10	1	-1E+10	1	-1E+10	1	-1E+10	1
4901784	14	C	11/22/2015	09:58	-130.317	45.960	0	439.80	0	5.3530	0	34.0070	0	26.851	0	435.728	0	45.8	4	14.9	4	-1E+10	1	-1E+10	1	-1E+10	1	-1E+10	1	-1E+10	1	-1E+10	1
4901784	14	C	11/22/2015	09:58	-130.317	45.960	0	442.60	0	5.3320	0	34.0100	0	26.856	0	438.499	0	45.0	4	14.6	4	-1E+10	1	-1E+10	1	-1E+10	1	-1E+10	1	-1E+10	1	-1E+10	1
4901784	14	C	11/22/2015	09:58	-130.317	45.960	0	445.20	0	5.3180	0	34.0120	0	26.859	0	441.072	0	44.1	4	14.4	4	-1E+10	1	-1E+10	1	-1E+10	1	-1E+10	1	-1E+10	1	-1E+10	1
4901784	14	C	11/22/2015	09:58	-130.317	45.960	0	448.00	0	5.2960	0	34.0150	0	26.864	0	443.843	0	43.3	4	14.1	4	-1E+10	1	-1E+10	1	-1E+10	1	-1E+10	1	-1E+10	1	-1E+10	1
4901784	14	C	11/22/2015	09:58	-130.317	45.960	0	449.80	0	5.2900	0	34.0160	0	26.866	0	445.625	0	42.8	4	13.9	4	-1E+10	1	-1E+10	1	-1E+10	1	-1E+10	1	-1E+10	1	-1E+10	1
4901784	14	C	11/22/2015	09:58	-130.317	45.960	0	452.60	0	5.2680	0	34.0180	0	26.870	0	448.396	0	41.9	4	13.6	4	-1E+10	1	-1E+10	1	-1E+10	1	-1E+10	1	-1E+10	1	-1E+10	1
4901784	14	C	11/22/2015	09:58	-130.317	45.960	0	455.40	0	5.2300	0	34.0220	0	26.878	0	451.167	0	40.9	4	13.3	4	-1E+10	1	-1E+10	1	-1E+10	1	-1E+10	1	-1E+10	1	-1E+10	1
4901784	14	C	11/22/2015	09:58	-130.317	45.960	0	457.30	0	5.2060	0	34.0260	0	26.884	0	453.047	0	40.4	4	13.1	4	-1E+10	1	-1E+10	1	-1E+10	1	-1E+10	1	-1E+10	1	-1E+10	1
4901784	14	C	11/22/2015	09:58	-130.317	45.960	0	460.00	0	5.1910	0	34.0290	0	26.888	0	455.719	0	39.9	4	13.0	4	-1E+10	1	-1E+10	1	-1E+10	1	-1E+10	1	-1E+10	1	-1E+10	1
4901784	14	C	11/22/2015	09:58	-130.317	45.960	0	462.80	0	5.1800	0	34.0310	0	26.891	0	458.490	0	39.5	4	12.8	4	-1E+10	1	-1E+10	1	-1E+10	1	-1E+10	1	-1E+10	1	-1E+10	1
4901784	14	C	11/22/2015	09:58	-130.317	45.960	0	464.60	0	5.1750	0	34.0320	0	26.892	0	460.271	0	39.2	4	12.7	4	-1E+10	1	-1E+10	1	-1E+10	1	-1E+10	1	-1E+10	1	-1E+10	1
4901784	14	C	11/22/2015	09:58	-130.317	45.960	0	467.30	0	5.1650	0	34.0340	0	26.895	0	462.943	0	38.7	4	12.6	4	-1E+10	1	-1E+10	1	-1E+10	1	-1E+10	1	-1E+10	1	-1E+10	1
4901784	14	C	11/22/2015	09:58	-130.317	45.960	0	470.10	0	5.1580	0	34.0350	0	26.896	0	465.713	0	38.2	4	12.4	4	-1E+10	1	-1E+10	1	-1E+10	1	-1E+10	1	-1E+10	1	-1E+10	1
4901784	14	C	11/22/2015	09:58	-130.317	45.960	0	472.00	0	5.1550	0	34.0350	0	26.897	0	467.594	0	37.8	4	12.3	4	-1E+10	1	-1E+10	1	-1E+10	1	-1E+10	1	-1E+10	1	-1E+10	1
4901784	14	C	11/22/2015	09:58	-130.317	45.960	0	474.90	0	5.1430	0	34.0380	0	26.901	0	470.463	0	37.2	4	12.0	4	-1E+10	1	-1E+10	1	-1E+10	1	-1E+10	1	-1E+10	1	-1E+10	1
4901784	14	C	11/22/2015	09:58	-130.317	45.960	0	477.70	0	5.1220	0	34.0420	0	26.906	0	473.234	0	36.6	4	11.8	4	-1E+10	1	-1E+10	1	-1E+10	1	-1E+10	1	-1E+10	1	-1E+10	1
4901784	14	C	11/22/2015	09:58	-130.317	45.960	0	479.60	0	5.1150	0	34.0430	0	26.908	0	475.114	0	36.2	4	11.7	4	-1E+10	1	-1E+10	1	-1E+10	1	-1E+10	1	-1E+10	1	-1E+10	1
4901784	14	C	11/22/2015	09:58	-130.317	45.960	0	482.40	0	5.1000	0	34.0450	0	26.911	0	477.885	0	35.7	4	11.5	4	-1E+10	1	-1E+10	1	-1E+10	1	-1E+10	1	-1E+10	1	-1E+10	1
4901784	14	C	11/22/2015	09:58	-130.317	45.960	0	485.70	0	5.0870	0	34.0470	0	26.914	0	481.150	0	35.1	4	11.3	4	-1E+10	1	-1E+10	1	-1E+10	1	-1E+10	1	-1E+10	1	-1E+10	1
4901784	14	C	11/22/2015	09:58	-130.317	45.960	0	487.50	0	5.0810	0	34.0490	0	26.917	0	482.931	0	34.6	4	11.2	4	-1E+10	1	-1E+10	1	-1E+10	1	-1E+10	1	-1E+10	1	-1E+10	1
4901784	14	C	11/22/2015	09:58	-130.317	45.960	0	490.00	0	5.0520	0	34.0540	0	26.924	0	485.405	0	34.1	4	11.0	4	-1E+10	1	-1E+10	1	-1E+10	1	-1E+10	1	-1E+10	1	-1E+10	1
4901784	14	C	11/22/2015	09:58	-130.317	45.960	0	492.40	0	5.0460	0	34.0540	0	26.925	0	487.779	0	33.8	4	10.9	4	-1E+10	1	-1E+10	1	-1E+10	1	-1E+10	1	-1E+10	1	-1E+10	1
4901784	14	C	11/22/2015	09:58	-130.317	45.960	0	494.80	0	5.0330	0	34.0560	0	26.928	0	490.154	0	33.5	4	10.8	4	-1E+10	1	-1E+10	1	-1E+10	1	-1E+10	1	-1E+10	1	-1E+10	1
4901784	14	C	11/22/2015	09:58	-130.317	45.960	0	497.20	0	5.0270	0	34.0580	0	26.930	0	492.528	0	33.2	4	10.7	4	-1E+10	1	-1E+10	1	-1E+10	1	-1E+10	1	-1E+10	1	-1E+10	1
4901784	14	C	11/22/2015	09:58	-130.317	45.960	0	499.80	0	5.0230	0	34.0580	0	26.930	0	495.101	0	33.0	4	10.7	4	-1E+10	1	-1E+10	1	-1E+10	1	-1E+10	1	-1E+10	1	-1E+10	1
4901784	14	C	11/22/2015	09:58	-130.317	45.960	0	505.50	0	5.0080	0	34.0610	0	26.935	0	500.741	0	32.2	4	10.4	4	-1E+10	1	-1E+10	1	-1E+10	1	-1E+10	1	-1E+10	1	-1E+10	1
4901784	14	C	11/22/2015	09:58	-130.317	45.960	0	510.50	0	4.9870	0	34.0630	0	26.939	0	505.687	0	31.4	4	10.1	4	-1E+10	1	-1E+10	1	-1E+10	1	-1E+10	1	-1E+10	1	-1E+10	1
4901784	14	C	11/22/2015	09:58	-130.317	45.960	0	515.40	0	4.9550	0	34.0680	0	26.946	0	510.535	0	30.6	4	9.9	4	-1E+10	1	-1E+10	1	-1E+10	1	-1E+10	1	-1E+10	1	-1E+10	1
4901784	14	C	11/22/2015	09:58	-130.317	45.960	0	520.40	0	4.9340	0	34.0710	0	26.951	0	515.482	0	30.0	4	9.7	4	-1E+10	1	-1E+10	1	-1E+10	1	-1E+10	1	-1E+10	1	-1E+10	1
4901784	14	C	11/22/2015	09:58	-130.317	45.960	0	525.40	0	4.9130	0	34.0730	0	26.955	0	520.428	0	29.2	4	9.4	4	-1E+10	1	-1E+10	1	-1E+10	1	-1E+10	1	-1E+10	1	-1E+10	1
4901784	14	C	11/22/2015	09:58	-130.317	45.960	0	530.60	0	4.8700	0	34.0790	0	26.965	0	525.572	0	28.5	4	9.2	4	-1E+10	1	-1E+10	1	-1E+10	1	-1E+10	1	-1E+10	1	-1E+10	1
4901784	14	C	11/22/2015	09:58	-130.317	45.960	0	535.00	0	4.8570	0	34.0810	0	26.968	0	529.925	0	28.0	4	9.0	4	-1E+10	1	-1E+10	1	-1E+10	1	-1E+10	1	-1E+10	1	-1E+10	1
4901784	14	C	11/22/2015	09:58	-130.317	45.960	0	539.30	0	4.8510	0	34.0810	0	26.968	0	534.179	0	27.3	4	8.8	4	-1E+10	1	-1E+10	1	-1E+10	1	-1E+10	1	-1E+10	1	-1E+10	1
4901784	14	C	11/22/2015	09:58	-130.317	45.960	0	544.60	0	4.8080	0	34.0880	0	26.979	0	539.422	0	26.3	4	8.5	4	-1E+10	1	-1E+10	1	-1E+10	1	-1E+10	1	-1E+10	1	-1E+10	1
4901784	14	C	11/22/2015	09:58	-130.317	45.960	0	549.90	0	4.7270	0	34.0920	0	26.991	0	544.664	0	26.1	4	8.4	4	-1E+10	1	-1E+10	1	-1E+10	1	-1E+10	1	-1E+10	1	-1E+10	1
4901784	14	C	11/22/2015	09:58	-130.317	45.960	0	555.40	0	4.6520	0	34.0960	0	27.002	0	550.105	0	25.9	4	8.3	4	-1E+10	1	-1E+10	1	-1E+10	1	-1E+10	1	-1E+10	1	-1E+10	1
4901784	14	C	11/22/2015	09:58	-130.317	45.960	0	560.00	0	4.6070	0	34.0960	0	27.007	0	554.655	0	25.7	4	8.2	4	-1E+10	1	-1E+10	1	-1E+10	1	-1E+10	1	-1E+10	1	-1E+10	1
4901784	14	C	11/22/2015	09:58	-130.317	45.960	0	564.80	0	4.5940	0	34.1000	0	27.012	0	559.402	0	25.4	4	8.1	4	-1E+10	1	-1E+10	1	-1E+10	1	-1E+10	1	-1E+10	1	-1E+10	1
4901784	14	C	11/22/2015	09:58	-130.317	45.960	0	570.40	0	4.5630	0	34.1020	0	27.017	0	564.941	0	24.9	4	8.0	4	-1E+10	1	-1E+10	1	-1E+10	1	-1E+10	1	-1E+10	1	-1E+10	1
4901784	14	C	11/22/2015	09:58	-130.317	45.960	0	575.00	0	4.5580	0	34.1050	0	27.020	0	569.491	0	24.3	4	7.8	4	-1E+10	1	-1E+10	1	-1E+10	1	-1E+10	1	-1E+10	1	-1E+10	1
4901784	14	C	11/22/2015	09:58	-130.317	45.960	0	579.60	0	4.5600	0	34.1080	0	27.022	0	574.041	0	23.5	4	7.5	4	-1E+10	1	-1E+10	1	-1E+10	1	-1E+10	1	-1E+10	1	-1E+10	1
4901784	14	C	11/22/2015	09:58	-130.317	45.960	0	585.30	0	4.5790	0	34.1140	0	27.025	0	579.678	0	22.3	4	7.1	4	-1E+10	1	-1E+10	1	-1E+10	1	-1E+10	1	-1E+10	1	-1E+10	1
4901784	14	C	11/22/2015	09:58	-130.317	45.960	0	590.00	0	4.5500	0	34.1210	0	27.034	0	584.326	0	21.5	4	6.9	4	-1E+10	1	-1E+10	1	-1E+10	1	-1E+10	1	-1E+10	1	-1E+10	1
4901784	14	C	11/22/2015	09:58	-130.317	45.960	0	594.70	0	4.5240	0	34.1270	0	27.041	0	588.974	0	20.5	4	6.5	4	-1E+10	1	-1E+10	1	-1E+10	1	-1E+10	1	-1E+10	1	-1E+10	1
4901784	14	C	11/22/2015	09:58	-130.317	45.960	0	600.30	0	4.5020	0	34.1390	0	27.053	0	594.512	0	19.7	4	6.3	4	-1E+10	1	-1E+10	1	-1E+10	1	-1E+10	1	-1E+10	1	-1E+10	1
4901784	14	C	11/22/2015	09:58	-130.317	45.960	0	605.00	0	4.4870	0	34.1410	0	27.056	0	599.160	0	19.4	4	6.2	4	-1E+10	1	-1E+10	1	-1E+10	1	-1E+10	1	-1E+10	1	-1E+10	1
4901784	14	C	11/22/2015	09:58	-130.317	45.960	0	609.70	0	4.4750	0	34.1450	0	27.061	0	603.808	0	19.1	4	6.1	4	-1E+10	1	-1E+10	1	-1E+10	1	-1E+10	1	-1E+10	1	-1E+10	1
4901784	14	C	11/22/2015	09:58	-130.317	45.960	0	615.40	0	4.4410	0	34.1480	0	27.067	0	609.445	0	18.7	4	6.0	4	-1E+10	1	-1E+10	1	-1E+10	1	-1E+10	1	-1E+10	1	-1E+10	1
4901784	14	C	11/22/2015	09:58	-130.317	45.960	0	620.10	0	4.4370	0	34.1520	0	27.071	0	614.092	0	18.3	4	5.8	4	-1E+10	1	-1E+10	1	-1E+10	1	-1E+10	1	-1E+10	1	-1E+10	1
4901784	14	C	11/22/2015	09:58	-130.317	45.960	0	625.10	0	4.4250	0	34.1570	0	27.076	0	619.036	0	18.0	4	5.7	4	-1E+10	1	-1E+10	1	-1E+10	1	-1E+10	1	-1E+10	1	-1E+10	1
4901784	14	C	11/22/2015	09:58	-130.317	45.960	0	630.30	0	4.4110	0	34.1600	0	27.080	0	624.178	0	18.0	4	5.7	4	-1E+10	1	-1E+10	1	-1E+10	1	-1E+10	1	-1E+10	1	-1E+10	1
4901784	14	C	11/22/2015	09:58	-130.317	45.960	0	634.90	0	4.3580	0	34.1570	0	27.083	0	628.727	0	18.2	4	5.8	4	-1E+10	1	-1E+10	1	-1E+10	1	-1E+10	1	-1E+10	1	-1E+10	1
4901784	14	C	11/22/2015	09:58	-130.317	45.960	0	639.70	0	4.3530	0	34.1600	0	27.086	0	633.473	0	17.9	4	5.7	4	-1E+10	1	-1E+10	1	-1E+10	1	-1E+10	1	-1E+10	1	-1E+10	1
4901784	14	C	11/22/2015	09:58	-130.317	45.960	0	644.40	0	4.3360	0	34.1600	0	27.088	0	638.120	0	17.7	4	5.6	4	-1E+10	1	-1E+10	1	-1E+10	1	-1E+10	1	-1E+10	1	-1E+10	1
4901784	14	C	11/22/2015	09:58	-130.317	45.960	0	650.00	0	4.3190	0	34.1650	0	27.094	0	643.657	0	17.1	4	5.5	4	-1E+10	1	-1E+10	1	-1E+10	1	-1E+10	1	-1E+10	1	-1E+10	1
4901784	14	C	11/22/2015	09:58	-130.317	45.960	0	655.10	0	4.3050	0	34.1750	0	27.103	0	648.699	0	16.7	4	5.3	4	-1E+10	1	-1E+10	1	-1E+10	1	-1E+10	1	-1E+10	1	-1E+10	1
4901784	14	C	11/22/2015	09:58	-130.317	45.960	0	659.40	0	4.2590	0	34.1720	0	27.106	0	652.950	0	16.7	4	5.3	4	-1E+10	1	-1E+10	1	-1E+10	1	-1E+10	1	-1E+10	1	-1E+10	1
4901784	14	C	11/22/2015	09:58	-130.317	45.960	0	664.80	0	4.2580	0	34.1780	0	27.111	0	658.289	0	16.3	4	5.2	4	-1E+10	1	-1E+10	1	-1E+10	1	-1E+10	1	-1E+10	1	-1E+10	1
4901784	14	C	11/22/2015	09:58	-130.317	45.960	0	670.10	0	4.2460	0	34.1790	0	27.113	0	663.528	0	16.2	4	5.1	4	-1E+10	1	-1E+10	1	-1E+10	1	-1E+10	1	-1E+10	1	-1E+10	1
4901784	14	C	11/22/2015	09:58	-130.317	45.960	0	675.30	0	4.2200	0	34.1830	0	27.119	0	668.669	0	16.1	4	5.1	4	-1E+10	1	-1E+10	1	-1E+10	1	-1E+10	1	-1E+10	1	-1E+10	1
4901784	14	C	11/22/2015	09:58	-130.317	45.960	0	680.50	0	4.1610	0	34.1840	0	27.126	0	673.810	0	15.9	4	5.0	4	-1E+10	1	-1E+10	1	-1E+10	1	-1E+10	1	-1E+10	1	-1E+10	1
4901784	14	C	11/22/2015	09:58	-130.317	45.960	0	684.90	0	4.1530	0	34.1920	0	27.133	0	678.159	0	15.4	4	4.9	4	-1E+10	1	-1E+10	1	-1E+10	1	-1E+10	1	-1E+10	1	-1E+10	1
4901784	14	C	11/22/2015	09:58	-130.317	45.960	0	689.30	0	4.1360	0	34.1970	0	27.139	0	682.509	0	15.3	4	4.8	4	-1E+10	1	-1E+10	1	-1E+10	1	-1E+10	1	-1E+10	1	-1E+10	1
4901784	14	C	11/22/2015	09:58	-130.317	45.960	0	694.60	0	4.1120	0	34.1990	0	27.143	0	687.748	0	15.3	4	4.8	4	-1E+10	1	-1E+10	1	-1E+10	1	-1E+10	1	-1E+10	1	-1E+10	1
4901784	14	C	11/22/2015	09:58	-130.317	45.960	0	699.90	0	4.1010	0	34.2000	0	27.145	0	692.987	0	15.2	4	4.8	4	-1E+10	1	-1E+10	1	-1E+10	1	-1E+10	1	-1E+10	1	-1E+10	1
4901784	14	C	11/22/2015	09:58	-130.317	45.960	0	705.30	0	4.0850	0	34.2010	0	27.147	0	698.324	0	15.2	4	4.8	4	-1E+10	1	-1E+10	1	-1E+10	1	-1E+10	1	-1E+10	1	-1E+10	1
4901784	14	C	11/22/2015	09:58	-130.317	45.960	0	710.70	0	4.0630	0	34.2020	0	27.150	0	703.662	0	15.0	4	4.7	4	-1E+10	1	-1E+10	1	-1E+10	1	-1E+10	1	-1E+10	1	-1E+10	1
4901784	14	C	11/22/2015	09:58	-130.317	45.960	0	715.10	0	4.0760	0	34.2100	0	27.155	0	708.011	0	14.5	4	4.6	4	-1E+10	1	-1E+10	1	-1E+10	1	-1E+10	1	-1E+10	1	-1E+10	1
4901784	14	C	11/22/2015	09:58	-130.317	45.960	0	719.50	0	4.0770	0	34.2130	0	27.158	0	712.360	0	14.3	4	4.5	4	-1E+10	1	-1E+10	1	-1E+10	1	-1E+10	1	-1E+10	1	-1E+10	1
4901784	14	C	11/22/2015	09:58	-130.317	45.960	0	724.90	0	4.0380	0	34.2180	0	27.166	0	717.697	0	14.1	4	4.4	4	-1E+10	1	-1E+10	1	-1E+10	1	-1E+10	1	-1E+10	1	-1E+10	1
4901784	14	C	11/22/2015	09:58	-130.317	45.960	0	730.30	0	4.0560	0	34.2260	0	27.170	0	723.034	0	13.7	4	4.3	4	-1E+10	1	-1E+10	1	-1E+10	1	-1E+10	1	-1E+10	1	-1E+10	1
4901784	14	C	11/22/2015	09:58	-130.317	45.960	0	735.60	0	4.0290	0	34.2260	0	27.173	0	728.272	0	13.8	4	4.3	4	-1E+10	1	-1E+10	1	-1E+10	1	-1E+10	1	-1E+10	1	-1E+10	1
4901784	14	C	11/22/2015	09:58	-130.317	45.960	0	740.00	0	4.0050	0	34.2280	0	27.177	0	732.620	0	13.7	4	4.3	4	-1E+10	1	-1E+10	1	-1E+10	1	-1E+10	1	-1E+10	1	-1E+10	1
4901784	14	C	11/22/2015	09:58	-130.317	45.960	0	744.40	0	3.9940	0	34.2310	0	27.181	0	736.969	0	13.4	4	4.2	4	-1E+10	1	-1E+10	1	-1E+10	1	-1E+10	1	-1E+10	1	-1E+10	1
4901784	14	C	11/22/2015	09:58	-130.317	45.960	0	749.80	0	3.9830	0	34.2390	0	27.188	0	742.305	0	13.1	4	4.1	4	-1E+10	1	-1E+10	1	-1E+10	1	-1E+10	1	-1E+10	1	-1E+10	1
4901784	14	C	11/22/2015	09:58	-130.317	45.960	0	755.20	0	3.9950	0	34.2440	0	27.191	0	747.641	0	12.8	4	4.0	4	-1E+10	1	-1E+10	1	-1E+10	1	-1E+10	1	-1E+10	1	-1E+10	1
4901784	14	C	11/22/2015	09:58	-130.317	45.960	0	759.70	0	3.9760	0	34.2490	0	27.197	0	752.088	0	12.7	4	4.0	4	-1E+10	1	-1E+10	1	-1E+10	1	-1E+10	1	-1E+10	1	-1E+10	1
4901784	14	C	11/22/2015	09:58	-130.317	45.960	0	764.40	0	3.9630	0	34.2510	0	27.200	0	756.733	0	12.6	4	4.0	4	-1E+10	1	-1E+10	1	-1E+10	1	-1E+10	1	-1E+10	1	-1E+10	1
4901784	14	C	11/22/2015	09:58	-130.317	45.960	0	769.90	0	3.9590	0	34.2520	0	27.201	0	762.167	0	12.7	4	4.0	4	-1E+10	1	-1E+10	1	-1E+10	1	-1E+10	1	-1E+10	1	-1E+10	1
4901784	14	C	11/22/2015	09:58	-130.317	45.960	0	775.30	0	3.9390	0	34.2520	0	27.203	0	767.503	0	12.8	4	4.0	4	-1E+10	1	-1E+10	1	-1E+10	1	-1E+10	1	-1E+10	1	-1E+10	1
4901784	14	C	11/22/2015	09:58	-130.317	45.960	0	780.70	0	3.9160	0	34.2520	0	27.206	0	772.839	0	12.9	4	4.1	4	-1E+10	1	-1E+10	1	-1E+10	1	-1E+10	1	-1E+10	1	-1E+10	1
4901784	14	C	11/22/2015	09:58	-130.317	45.960	0	785.10	0	3.9000	0	34.2520	0	27.207	0	777.186	0	12.9	4	4.1	4	-1E+10	1	-1E+10	1	-1E+10	1	-1E+10	1	-1E+10	1	-1E+10	1
4901784	14	C	11/22/2015	09:58	-130.317	45.960	0	789.50	0	3.8890	0	34.2510	0	27.208	0	781.534	0	13.0	4	4.1	4	-1E+10	1	-1E+10	1	-1E+10	1	-1E+10	1	-1E+10	1	-1E+10	1
4901784	14	C	11/22/2015	09:58	-130.317	45.960	0	794.80	0	3.8720	0	34.2520	0	27.210	0	786.770	0	13.0	4	4.1	4	-1E+10	1	-1E+10	1	-1E+10	1	-1E+10	1	-1E+10	1	-1E+10	1
4901784	14	C	11/22/2015	09:58	-130.317	45.960	0	800.20	0	3.8340	0	34.2540	0	27.216	0	792.106	0	13.0	4	4.1	4	-1E+10	1	-1E+10	1	-1E+10	1	-1E+10	1	-1E+10	1	-1E+10	1
4901784	14	C	11/22/2015	09:58	-130.317	45.960	0	805.50	0	3.8050	0	34.2580	0	27.222	0	797.342	0	12.9	4	4.0	4	-1E+10	1	-1E+10	1	-1E+10	1	-1E+10	1	-1E+10	1	-1E+10	1
4901784	14	C	11/22/2015	09:58	-130.317	45.960	0	809.90	0	3.7990	0	34.2660	0	27.229	0	801.689	0	12.7	4	4.0	4	-1E+10	1	-1E+10	1	-1E+10	1	-1E+10	1	-1E+10	1	-1E+10	1
4901784	14	C	11/22/2015	09:58	-130.317	45.960	0	814.40	0	3.8030	0	34.2660	0	27.228	0	806.135	0	12.6	4	4.0	4	-1E+10	1	-1E+10	1	-1E+10	1	-1E+10	1	-1E+10	1	-1E+10	1
4901784	14	C	11/22/2015	09:58	-130.317	45.960	0	819.90	0	3.8070	0	34.2670	0	27.229	0	811.568	0	12.5	4	3.9	4	-1E+10	1	-1E+10	1	-1E+10	1	-1E+10	1	-1E+10	1	-1E+10	1
4901784	14	C	11/22/2015	09:58	-130.317	45.960	0	825.00	0	3.8070	0	34.2710	0	27.232	0	816.606	0	12.4	4	3.9	4	-1E+10	1	-1E+10	1	-1E+10	1	-1E+10	1	-1E+10	1	-1E+10	1
4901784	14	C	11/22/2015	09:58	-130.317	45.960	0	830.00	0	3.8060	0	34.2730	0	27.234	0	821.546	0	12.4	4	3.9	4	-1E+10	1	-1E+10	1	-1E+10	1	-1E+10	1	-1E+10	1	-1E+10	1
4901784	14	C	11/22/2015	09:58	-130.317	45.960	0	835.60	0	3.7920	0	34.2740	0	27.236	0	827.077	0	12.4	4	3.9	4	-1E+10	1	-1E+10	1	-1E+10	1	-1E+10	1	-1E+10	1	-1E+10	1
4901784	14	C	11/22/2015	09:58	-130.317	45.960	0	840.40	0	3.7720	0	34.2760	0	27.240	0	831.819	0	12.4	4	3.9	4	-1E+10	1	-1E+10	1	-1E+10	1	-1E+10	1	-1E+10	1	-1E+10	1
4901784	14	C	11/22/2015	09:58	-130.317	45.960	0	845.30	0	3.7360	0	34.2760	0	27.243	0	836.659	0	12.5	4	3.9	4	-1E+10	1	-1E+10	1	-1E+10	1	-1E+10	1	-1E+10	1	-1E+10	1
4901784	14	C	11/22/2015	09:58	-130.317	45.960	0	850.30	0	3.6780	0	34.2800	0	27.252	0	841.598	0	12.6	4	3.9	4	-1E+10	1	-1E+10	1	-1E+10	1	-1E+10	1	-1E+10	1	-1E+10	1
4901784	14	C	11/22/2015	09:58	-130.317	45.960	0	855.30	0	3.6500	0	34.2820	0	27.256	0	846.537	0	12.6	4	4.0	4	-1E+10	1	-1E+10	1	-1E+10	1	-1E+10	1	-1E+10	1	-1E+10	1
4901784	14	C	11/22/2015	09:58	-130.317	45.960	0	860.30	0	3.6410	0	34.2830	0	27.258	0	851.475	0	12.6	4	4.0	4	-1E+10	1	-1E+10	1	-1E+10	1	-1E+10	1	-1E+10	1	-1E+10	1
4901784	14	C	11/22/2015	09:58	-130.317	45.960	0	865.30	0	3.6220	0	34.2850	0	27.262	0	856.414	0	12.7	4	4.0	4	-1E+10	1	-1E+10	1	-1E+10	1	-1E+10	1	-1E+10	1	-1E+10	1
4901784	14	C	11/22/2015	09:58	-130.317	45.960	0	870.40	0	3.6150	0	34.2850	0	27.262	0	861.451	0	12.7	4	4.0	4	-1E+10	1	-1E+10	1	-1E+10	1	-1E+10	1	-1E+10	1	-1E+10	1
4901784	14	C	11/22/2015	09:58	-130.317	45.960	0	875.30	0	3.6040	0	34.2860	0	27.264	0	866.290	0	12.6	4	4.0	4	-1E+10	1	-1E+10	1	-1E+10	1	-1E+10	1	-1E+10	1	-1E+10	1
4901784	14	C	11/22/2015	09:58	-130.317	45.960	0	880.20	0	3.6000	0	34.2870	0	27.265	0	871.130	0	12.6	4	3.9	4	-1E+10	1	-1E+10	1	-1E+10	1	-1E+10	1	-1E+10	1	-1E+10	1
4901784	14	C	11/22/2015	09:58	-130.317	45.960	0	885.10	0	3.5880	0	34.2900	0	27.269	0	875.969	0	12.6	4	3.9	4	-1E+10	1	-1E+10	1	-1E+10	1	-1E+10	1	-1E+10	1	-1E+10	1
4901784	14	C	11/22/2015	09:58	-130.317	45.960	0	890.10	0	3.5580	0	34.2920	0	27.274	0	880.907	0	12.6	4	3.9	4	-1E+10	1	-1E+10	1	-1E+10	1	-1E+10	1	-1E+10	1	-1E+10	1
4901784	14	C	11/22/2015	09:58	-130.317	45.960	0	895.00	0	3.5580	0	34.2950	0	27.276	0	885.746	0	12.4	4	3.9	4	-1E+10	1	-1E+10	1	-1E+10	1	-1E+10	1	-1E+10	1	-1E+10	1
4901784	14	C	11/22/2015	09:58	-130.317	45.960	0	900.10	0	3.5650	0	34.2990	0	27.279	0	890.782	0	12.3	4	3.8	4	-1E+10	1	-1E+10	1	-1E+10	1	-1E+10	1	-1E+10	1	-1E+10	1
4901784	14	C	11/22/2015	09:58	-130.317	45.960	0	905.10	0	3.5590	0	34.3010	0	27.281	0	895.720	0	12.2	4	3.8	4	-1E+10	1	-1E+10	1	-1E+10	1	-1E+10	1	-1E+10	1	-1E+10	1
4901784	14	C	11/22/2015	09:58	-130.317	45.960	0	910.10	0	3.5560	0	34.3030	0	27.283	0	900.657	0	12.2	4	3.8	4	-1E+10	1	-1E+10	1	-1E+10	1	-1E+10	1	-1E+10	1	-1E+10	1
4901784	14	C	11/22/2015	09:58	-130.317	45.960	0	915.10	0	3.5380	0	34.3060	0	27.287	0	905.595	0	12.2	4	3.8	4	-1E+10	1	-1E+10	1	-1E+10	1	-1E+10	1	-1E+10	1	-1E+10	1
4901784	14	C	11/22/2015	09:58	-130.317	45.960	0	920.20	0	3.5090	0	34.3060	0	27.290	0	910.630	0	12.3	4	3.8	4	-1E+10	1	-1E+10	1	-1E+10	1	-1E+10	1	-1E+10	1	-1E+10	1
4901784	14	C	11/22/2015	09:58	-130.317	45.960	0	925.30	0	3.4990	0	34.3080	0	27.292	0	915.666	0	12.3	4	3.8	4	-1E+10	1	-1E+10	1	-1E+10	1	-1E+10	1	-1E+10	1	-1E+10	1
4901784	14	C	11/22/2015	09:58	-130.317	45.960	0	930.40	0	3.4810	0	34.3090	0	27.295	0	920.702	0	12.4	4	3.9	4	-1E+10	1	-1E+10	1	-1E+10	1	-1E+10	1	-1E+10	1	-1E+10	1
4901784	14	C	11/22/2015	09:58	-130.317	45.960	0	935.50	0	3.4530	0	34.3100	0	27.298	0	925.738	0	12.4	4	3.9	4	-1E+10	1	-1E+10	1	-1E+10	1	-1E+10	1	-1E+10	1	-1E+10	1
4901784	14	C	11/22/2015	09:58	-130.317	45.960	0	940.60	0	3.4370	0	34.3110	0	27.301	0	930.773	0	12.4	4	3.9	4	-1E+10	1	-1E+10	1	-1E+10	1	-1E+10	1	-1E+10	1	-1E+10	1
4901784	14	C	11/22/2015	09:58	-130.317	45.960	0	945.80	0	3.4310	0	34.3130	0	27.303	0	935.907	0	12.3	4	3.8	4	-1E+10	1	-1E+10	1	-1E+10	1	-1E+10	1	-1E+10	1	-1E+10	1
4901784	14	C	11/22/2015	09:58	-130.317	45.960	0	950.10	0	3.4200	0	34.3170	0	27.307	0	940.152	0	12.3	4	3.8	4	-1E+10	1	-1E+10	1	-1E+10	1	-1E+10	1	-1E+10	1	-1E+10	1
4901784	14	C	11/22/2015	09:58	-130.317	45.960	0	954.40	0	3.4140	0	34.3170	0	27.308	0	944.398	0	12.3	4	3.8	4	-1E+10	1	-1E+10	1	-1E+10	1	-1E+10	1	-1E+10	1	-1E+10	1
4901784	14	C	11/22/2015	09:58	-130.317	45.960	0	959.60	0	3.4110	0	34.3200	0	27.310	0	949.531	0	12.2	4	3.8	4	-1E+10	1	-1E+10	1	-1E+10	1	-1E+10	1	-1E+10	1	-1E+10	1
4901784	14	C	11/22/2015	09:58	-130.317	45.960	0	964.70	0	3.4190	0	34.3250	0	27.314	0	954.566	0	12.0	4	3.7	4	-1E+10	1	-1E+10	1	-1E+10	1	-1E+10	1	-1E+10	1	-1E+10	1
4901784	14	C	11/22/2015	09:58	-130.317	45.960	0	969.80	0	3.4150	0	34.3290	0	27.317	0	959.601	0	11.9	4	3.7	4	-1E+10	1	-1E+10	1	-1E+10	1	-1E+10	1	-1E+10	1	-1E+10	1
4901784	14	C	11/22/2015	09:58	-130.317	45.960	0	975.00	0	3.3850	0	34.3350	0	27.325	0	964.734	0	11.9	4	3.7	4	-1E+10	1	-1E+10	1	-1E+10	1	-1E+10	1	-1E+10	1	-1E+10	1
4901784	14	C	11/22/2015	09:58	-130.317	45.960	0	980.30	0	3.3720	0	34.3390	0	27.329	0	969.966	0	11.9	4	3.7	4	-1E+10	1	-1E+10	1	-1E+10	1	-1E+10	1	-1E+10	1	-1E+10	1
4901784	14	C	11/22/2015	09:58	-130.317	45.960	0	985.60	0	3.3750	0	34.3430	0	27.332	0	975.198	0	11.8	4	3.7	4	-1E+10	1	-1E+10	1	-1E+10	1	-1E+10	1	-1E+10	1	-1E+10	1
4901784	14	C	11/22/2015	09:58	-130.317	45.960	0	990.20	0	3.3760	0	34.3440	0	27.333	0	979.739	0	11.8	4	3.7	4	-1E+10	1	-1E+10	1	-1E+10	1	-1E+10	1	-1E+10	1	-1E+10	1
4901784	14	C	11/22/2015	09:58	-130.317	45.960	0	994.60	0	3.3670	0	34.3460	0	27.336	0	984.082	0	11.8	4	3.7	4	-1E+10	1	-1E+10	1	-1E+10	1	-1E+10	1	-1E+10	1	-1E+10	1
4901784	14	C	11/22/2015	09:58	-130.317	45.960	0	999.90	0	3.3580	0	34.3500	0	27.340	0	989.313	0	11.8	4	3.7	4	-1E+10	1	-1E+10	1	-1E+10	1	-1E+10	1	-1E+10	1	-1E+10	1
4901784	14	C	11/22/2015	09:58	-130.317	45.960	0	1005.20	0	3.3520	0	34.3510	0	27.341	0	994.545	0	11.9	4	3.7	4	-1E+10	1	-1E+10	1	-1E+10	1	-1E+10	1	-1E+10	1	-1E+10	1
4901784	14	C	11/22/2015	09:58	-130.317	45.960	0	1010.60	0	3.3370	0	34.3520	0	27.343	0	999.875	0	11.9	4	3.7	4	-1E+10	1	-1E+10	1	-1E+10	1	-1E+10	1	-1E+10	1	-1E+10	1
4901784	14	C	11/22/2015	09:58	-130.317	45.960	0	1015.10	0	3.3290	0	34.3530	0	27.345	0	1004.316	0	11.9	4	3.7	4	-1E+10	1	-1E+10	1	-1E+10	1	-1E+10	1	-1E+10	1	-1E+10	1
4901784	14	C	11/22/2015	09:58	-130.317	45.960	0	1019.60	0	3.3230	0	34.3530	0	27.345	0	1008.757	0	11.9	4	3.7	4	-1E+10	1	-1E+10	1	-1E+10	1	-1E+10	1	-1E+10	1	-1E+10	1
4901784	14	C	11/22/2015	09:58	-130.317	45.960	0	1025.00	0	3.3000	0	34.3610	0	27.354	0	1014.087	0	12.0	4	3.7	4	-1E+10	1	-1E+10	1	-1E+10	1	-1E+10	1	-1E+10	1	-1E+10	1
4901784	14	C	11/22/2015	09:58	-130.317	45.960	0	1030.40	0	3.2920	0	34.3660	0	27.359	0	1019.416	0	12.0	4	3.7	4	-1E+10	1	-1E+10	1	-1E+10	1	-1E+10	1	-1E+10	1	-1E+10	1
4901784	14	C	11/22/2015	09:58	-130.317	45.960	0	1035.00	0	3.2860	0	34.3690	0	27.362	0	1023.956	0	12.0	4	3.7	4	-1E+10	1	-1E+10	1	-1E+10	1	-1E+10	1	-1E+10	1	-1E+10	1
4901784	14	C	11/22/2015	09:58	-130.317	45.960	0	1039.50	0	3.2780	0	34.3700	0	27.363	0	1028.397	0	12.0	4	3.7	4	-1E+10	1	-1E+10	1	-1E+10	1	-1E+10	1	-1E+10	1	-1E+10	1
4901784	14	C	11/22/2015	09:58	-130.317	45.960	0	1045.00	0	3.2630	0	34.3740	0	27.368	0	1033.825	0	12.1	4	3.8	4	-1E+10	1	-1E+10	1	-1E+10	1	-1E+10	1	-1E+10	1	-1E+10	1
4901784	14	C	11/22/2015	09:58	-130.317	45.960	0	1050.50	0	3.2560	0	34.3760	0	27.370	0	1039.252	0	12.1	4	3.8	4	-1E+10	1	-1E+10	1	-1E+10	1	-1E+10	1	-1E+10	1	-1E+10	1
4901784	14	C	11/22/2015	09:58	-130.317	45.960	0	1054.60	0	3.2520	0	34.3760	0	27.371	0	1043.298	0	12.2	4	3.8	4	-1E+10	1	-1E+10	1	-1E+10	1	-1E+10	1	-1E+10	1	-1E+10	1
4901784	14	C	11/22/2015	09:58	-130.317	45.960	0	1059.50	0	3.2400	0	34.3790	0	27.374	0	1048.134	0	12.2	4	3.8	4	-1E+10	1	-1E+10	1	-1E+10	1	-1E+10	1	-1E+10	1	-1E+10	1
4901784	14	C	11/22/2015	09:58	-130.317	45.960	0	1064.50	0	3.2330	0	34.3820	0	27.377	0	1053.067	0	12.3	4	3.8	4	-1E+10	1	-1E+10	1	-1E+10	1	-1E+10	1	-1E+10	1	-1E+10	1
4901784	14	C	11/22/2015	09:58	-130.317	45.960	0	1069.50	0	3.2260	0	34.3830	0	27.379	0	1058.001	0	12.3	4	3.8	4	-1E+10	1	-1E+10	1	-1E+10	1	-1E+10	1	-1E+10	1	-1E+10	1
4901784	14	C	11/22/2015	09:58	-130.317	45.960	0	1074.50	0	3.2230	0	34.3830	0	27.379	0	1062.935	0	12.3	4	3.8	4	-1E+10	1	-1E+10	1	-1E+10	1	-1E+10	1	-1E+10	1	-1E+10	1
4901784	14	C	11/22/2015	09:58	-130.317	45.960	0	1079.70	0	3.2130	0	34.3850	0	27.382	0	1068.065	0	12.4	4	3.8	4	-1E+10	1	-1E+10	1	-1E+10	1	-1E+10	1	-1E+10	1	-1E+10	1
4901784	14	C	11/22/2015	09:58	-130.317	45.960	0	1084.90	0	3.2100	0	34.3870	0	27.383	0	1073.196	0	12.5	4	3.9	4	-1E+10	1	-1E+10	1	-1E+10	1	-1E+10	1	-1E+10	1	-1E+10	1
4901784	14	C	11/22/2015	09:58	-130.317	45.960	0	1090.00	0	3.2010	0	34.3880	0	27.385	0	1078.228	0	12.5	4	3.9	4	-1E+10	1	-1E+10	1	-1E+10	1	-1E+10	1	-1E+10	1	-1E+10	1
4901784	14	C	11/22/2015	09:58	-130.317	45.960	0	1095.20	0	3.1880	0	34.3920	0	27.390	0	1083.358	0	12.6	4	3.9	4	-1E+10	1	-1E+10	1	-1E+10	1	-1E+10	1	-1E+10	1	-1E+10	1
4901784	14	C	11/22/2015	09:58	-130.317	45.960	0	1100.40	0	3.1810	0	34.3940	0	27.392	0	1088.489	0	12.7	4	3.9	4	-1E+10	1	-1E+10	1	-1E+10	1	-1E+10	1	-1E+10	1	-1E+10	1
4901784	14	C	11/22/2015	09:58	-130.317	45.960	0	1105.70	0	3.1780	0	34.3960	0	27.394	0	1093.718	0	12.8	4	4.0	4	-1E+10	1	-1E+10	1	-1E+10	1	-1E+10	1	-1E+10	1	-1E+10	1
4901784	14	C	11/22/2015	09:58	-130.317	45.960	0	1110.00	0	3.1720	0	34.3990	0	27.397	0	1097.960	0	12.9	4	4.0	4	-1E+10	1	-1E+10	1	-1E+10	1	-1E+10	1	-1E+10	1	-1E+10	1
4901784	14	C	11/22/2015	09:58	-130.317	45.960	0	1114.40	0	3.1690	0	34.4000	0	27.398	0	1102.300	0	12.9	4	4.0	4	-1E+10	1	-1E+10	1	-1E+10	1	-1E+10	1	-1E+10	1	-1E+10	1
4901784	14	C	11/22/2015	09:58	-130.317	45.960	0	1119.50	0	3.1620	0	34.4010	0	27.399	0	1107.332	0	13.0	4	4.0	4	-1E+10	1	-1E+10	1	-1E+10	1	-1E+10	1	-1E+10	1	-1E+10	1
4901784	14	C	11/22/2015	09:58	-130.317	45.960	0	1124.90	0	3.1480	0	34.4040	0	27.403	0	1112.659	0	13.1	4	4.1	4	-1E+10	1	-1E+10	1	-1E+10	1	-1E+10	1	-1E+10	1	-1E+10	1
4901784	14	C	11/22/2015	09:58	-130.317	45.960	0	1130.20	0	3.1430	0	34.4040	0	27.404	0	1117.887	0	13.2	4	4.1	4	-1E+10	1	-1E+10	1	-1E+10	1	-1E+10	1	-1E+10	1	-1E+10	1
4901784	14	C	11/22/2015	09:58	-130.317	45.960	0	1135.60	0	3.1280	0	34.4060	0	27.407	0	1123.214	0	13.3	4	4.1	4	-1E+10	1	-1E+10	1	-1E+10	1	-1E+10	1	-1E+10	1	-1E+10	1
4901784	14	C	11/22/2015	09:58	-130.317	45.960	0	1140.20	0	3.1160	0	34.4090	0	27.410	0	1127.751	0	13.5	4	4.2	4	-1E+10	1	-1E+10	1	-1E+10	1	-1E+10	1	-1E+10	1	-1E+10	1
4901784	14	C	11/22/2015	09:58	-130.317	45.960	0	1144.70	0	3.0990	0	34.4110	0	27.413	0	1132.190	0	13.6	4	4.2	4	-1E+10	1	-1E+10	1	-1E+10	1	-1E+10	1	-1E+10	1	-1E+10	1
4901784	14	C	11/22/2015	09:58	-130.317	45.960	0	1150.10	0	3.0940	0	34.4120	0	27.414	0	1137.516	0	13.6	4	4.2	4	-1E+10	1	-1E+10	1	-1E+10	1	-1E+10	1	-1E+10	1	-1E+10	1
4901784	14	C	11/22/2015	09:58	-130.317	45.960	0	1155.60	0	3.0890	0	34.4130	0	27.416	0	1142.941	0	13.6	4	4.2	4	-1E+10	1	-1E+10	1	-1E+10	1	-1E+10	1	-1E+10	1	-1E+10	1
4901784	14	C	11/22/2015	09:58	-130.317	45.960	0	1160.20	0	3.0870	0	34.4130	0	27.416	0	1147.478	0	13.7	4	4.2	4	-1E+10	1	-1E+10	1	-1E+10	1	-1E+10	1	-1E+10	1	-1E+10	1
4901784	14	C	11/22/2015	09:58	-130.317	45.960	0	1164.80	0	3.0800	0	34.4140	0	27.417	0	1152.015	0	13.8	4	4.3	4	-1E+10	1	-1E+10	1	-1E+10	1	-1E+10	1	-1E+10	1	-1E+10	1
4901784	14	C	11/22/2015	09:58	-130.317	45.960	0	1170.30	0	3.0640	0	34.4150	0	27.420	0	1157.440	0	13.9	4	4.3	4	-1E+10	1	-1E+10	1	-1E+10	1	-1E+10	1	-1E+10	1	-1E+10	1
4901784	14	C	11/22/2015	09:58	-130.317	45.960	0	1174.90	0	3.0600	0	34.4160	0	27.421	0	1161.976	0	14.0	4	4.3	4	-1E+10	1	-1E+10	1	-1E+10	1	-1E+10	1	-1E+10	1	-1E+10	1
4901784	14	C	11/22/2015	09:58	-130.317	45.960	0	1179.40	0	3.0530	0	34.4180	0	27.423	0	1166.414	0	14.1	4	4.4	4	-1E+10	1	-1E+10	1	-1E+10	1	-1E+10	1	-1E+10	1	-1E+10	1
4901784	14	C	11/22/2015	09:58	-130.317	45.960	0	1185.00	0	3.0400	0	34.4200	0	27.426	0	1171.937	0	14.3	4	4.4	4	-1E+10	1	-1E+10	1	-1E+10	1	-1E+10	1	-1E+10	1	-1E+10	1
4901784	14	C	11/22/2015	09:58	-130.317	45.960	0	1190.20	0	3.0290	0	34.4220	0	27.429	0	1177.065	0	14.4	4	4.4	4	-1E+10	1	-1E+10	1	-1E+10	1	-1E+10	1	-1E+10	1	-1E+10	1
4901784	14	C	11/22/2015	09:58	-130.317	45.960	0	1194.50	0	3.0230	0	34.4230	0	27.430	0	1181.306	0	14.5	4	4.5	4	-1E+10	1	-1E+10	1	-1E+10	1	-1E+10	1	-1E+10	1	-1E+10	1
4901784	14	C	11/22/2015	09:58	-130.317	45.960	0	1200.00	0	3.0080	0	34.4250	0	27.433	0	1186.729	0	14.6	4	4.5	4	-1E+10	1	-1E+10	1	-1E+10	1	-1E+10	1	-1E+10	1	-1E+10	1
4901784	14	C	11/22/2015	09:58	-130.317	45.960	0	1205.70	0	2.9920	0	34.4270	0	27.436	0	1192.350	0	14.8	4	4.6	4	-1E+10	1	-1E+10	1	-1E+10	1	-1E+10	1	-1E+10	1	-1E+10	1
4901784	14	C	11/22/2015	09:58	-130.317	45.960	0	1210.50	0	2.9840	0	34.4280	0	27.438	0	1197.083	0	14.9	4	4.6	4	-1E+10	1	-1E+10	1	-1E+10	1	-1E+10	1	-1E+10	1	-1E+10	1
4901784	14	C	11/22/2015	09:58	-130.317	45.960	0	1215.50	0	2.9720	0	34.4300	0	27.440	0	1202.014	0	15.0	4	4.6	4	-1E+10	1	-1E+10	1	-1E+10	1	-1E+10	1	-1E+10	1	-1E+10	1
4901784	14	C	11/22/2015	09:58	-130.317	45.960	0	1220.50	0	2.9680	0	34.4310	0	27.441	0	1206.944	0	15.0	4	4.6	4	-1E+10	1	-1E+10	1	-1E+10	1	-1E+10	1	-1E+10	1	-1E+10	1
4901784	14	C	11/22/2015	09:58	-130.317	45.960	0	1225.50	0	2.9660	0	34.4310	0	27.442	0	1211.874	0	15.0	4	4.6	4	-1E+10	1	-1E+10	1	-1E+10	1	-1E+10	1	-1E+10	1	-1E+10	1
4901784	14	C	11/22/2015	09:58	-130.317	45.960	0	1230.50	0	2.9630	0	34.4310	0	27.442	0	1216.804	0	15.1	4	4.7	4	-1E+10	1	-1E+10	1	-1E+10	1	-1E+10	1	-1E+10	1	-1E+10	1
4901784	14	C	11/22/2015	09:58	-130.317	45.960	0	1235.60	0	2.9520	0	34.4320	0	27.444	0	1221.832	0	15.2	4	4.7	4	-1E+10	1	-1E+10	1	-1E+10	1	-1E+10	1	-1E+10	1	-1E+10	1
4901784	14	C	11/22/2015	09:58	-130.317	45.960	0	1240.70	0	2.9480	0	34.4330	0	27.445	0	1226.861	0	15.2	4	4.7	4	-1E+10	1	-1E+10	1	-1E+10	1	-1E+10	1	-1E+10	1	-1E+10	1
4901784	14	C	11/22/2015	09:58	-130.317	45.960	0	1244.90	0	2.9460	0	34.4340	0	27.446	0	1231.002	0	15.3	4	4.7	4	-1E+10	1	-1E+10	1	-1E+10	1	-1E+10	1	-1E+10	1	-1E+10	1
4901784	14	C	11/22/2015	09:58	-130.317	45.960	0	1249.20	0	2.9430	0	34.4340	0	27.446	0	1235.241	0	15.3	4	4.7	4	-1E+10	1	-1E+10	1	-1E+10	1	-1E+10	1	-1E+10	1	-1E+10	1
4901784	14	C	11/22/2015	09:58	-130.317	45.960	0	1254.30	0	2.9390	0	34.4340	0	27.447	0	1240.269	0	15.4	4	4.8	4	-1E+10	1	-1E+10	1	-1E+10	1	-1E+10	1	-1E+10	1	-1E+10	1
4901784	14	C	11/22/2015	09:58	-130.317	45.960	0	1259.40	0	2.9310	0	34.4360	0	27.449	0	1245.297	0	15.6	4	4.8	4	-1E+10	1	-1E+10	1	-1E+10	1	-1E+10	1	-1E+10	1	-1E+10	1
4901784	14	C	11/22/2015	09:58	-130.317	45.960	0	1264.40	0	2.9230	0	34.4370	0	27.451	0	1250.226	0	15.8	4	4.9	4	-1E+10	1	-1E+10	1	-1E+10	1	-1E+10	1	-1E+10	1	-1E+10	1
4901784	14	C	11/22/2015	09:58	-130.317	45.960	0	1269.50	0	2.9100	0	34.4390	0	27.453	0	1255.254	0	16.0	4	4.9	4	-1E+10	1	-1E+10	1	-1E+10	1	-1E+10	1	-1E+10	1	-1E+10	1
4901784	14	C	11/22/2015	09:58	-130.317	45.960	0	1274.50	0	2.8990	0	34.4410	0	27.456	0	1260.183	0	16.1	4	5.0	4	-1E+10	1	-1E+10	1	-1E+10	1	-1E+10	1	-1E+10	1	-1E+10	1
4901784	14	C	11/22/2015	09:58	-130.317	45.960	0	1279.50	0	2.8990	0	34.4410	0	27.456	0	1265.111	0	16.3	4	5.0	4	-1E+10	1	-1E+10	1	-1E+10	1	-1E+10	1	-1E+10	1	-1E+10	1
4901784	14	C	11/22/2015	09:58	-130.317	45.960	0	1284.50	0	2.8790	0	34.4440	0	27.460	0	1270.040	0	16.6	4	5.1	4	-1E+10	1	-1E+10	1	-1E+10	1	-1E+10	1	-1E+10	1	-1E+10	1
4901784	14	C	11/22/2015	09:58	-130.317	45.960	0	1289.70	0	2.8630	0	34.4470	0	27.464	0	1275.166	0	16.9	4	5.2	4	-1E+10	1	-1E+10	1	-1E+10	1	-1E+10	1	-1E+10	1	-1E+10	1
4901784	14	C	11/22/2015	09:58	-130.317	45.960	0	1294.80	0	2.8450	0	34.4490	0	27.467	0	1280.193	0	17.1	4	5.3	4	-1E+10	1	-1E+10	1	-1E+10	1	-1E+10	1	-1E+10	1	-1E+10	1
4901784	14	C	11/22/2015	09:58	-130.317	45.960	0	1300.00	0	2.8330	0	34.4510	0	27.470	0	1285.318	0	17.3	4	5.3	4	-1E+10	1	-1E+10	1	-1E+10	1	-1E+10	1	-1E+10	1	-1E+10	1
4901784	14	C	11/22/2015	09:58	-130.317	45.960	0	1305.10	0	2.8180	0	34.4530	0	27.473	0	1290.345	0	17.5	4	5.4	4	-1E+10	1	-1E+10	1	-1E+10	1	-1E+10	1	-1E+10	1	-1E+10	1
4901784	14	C	11/22/2015	09:58	-130.317	45.960	0	1310.20	0	2.8040	0	34.4540	0	27.475	0	1295.372	0	17.7	4	5.4	4	-1E+10	1	-1E+10	1	-1E+10	1	-1E+10	1	-1E+10	1	-1E+10	1
4901784	14	C	11/22/2015	09:58	-130.317	45.960	0	1315.30	0	2.7950	0	34.4560	0	27.477	0	1300.398	0	17.9	4	5.5	4	-1E+10	1	-1E+10	1	-1E+10	1	-1E+10	1	-1E+10	1	-1E+10	1
4901784	14	C	11/22/2015	09:58	-130.317	45.960	0	1320.50	0	2.7870	0	34.4570	0	27.479	0	1305.523	0	18.2	4	5.6	4	-1E+10	1	-1E+10	1	-1E+10	1	-1E+10	1	-1E+10	1	-1E+10	1
4901784	14	C	11/22/2015	09:58	-130.317	45.960	0	1325.40	0	2.7710	0	34.4590	0	27.482	0	1310.353	0	18.5	4	5.7	4	-1E+10	1	-1E+10	1	-1E+10	1	-1E+10	1	-1E+10	1	-1E+10	1
4901784	14	C	11/22/2015	09:58	-130.317	45.960	0	1330.50	0	2.7530	0	34.4610	0	27.485	0	1315.379	0	18.7	4	5.8	4	-1E+10	1	-1E+10	1	-1E+10	1	-1E+10	1	-1E+10	1	-1E+10	1
4901784	14	C	11/22/2015	09:58	-130.317	45.960	0	1335.50	0	2.7420	0	34.4620	0	27.487	0	1320.306	0	19.0	4	5.8	4	-1E+10	1	-1E+10	1	-1E+10	1	-1E+10	1	-1E+10	1	-1E+10	1
4901784	14	C	11/22/2015	09:58	-130.317	45.960	0	1340.70	0	2.7320	0	34.4630	0	27.488	0	1325.431	0	19.3	4	5.9	4	-1E+10	1	-1E+10	1	-1E+10	1	-1E+10	1	-1E+10	1	-1E+10	1
4901784	14	C	11/22/2015	09:58	-130.317	45.960	0	1345.00	0	2.7140	0	34.4670	0	27.493	0	1329.668	0	19.7	4	6.0	4	-1E+10	1	-1E+10	1	-1E+10	1	-1E+10	1	-1E+10	1	-1E+10	1
4901784	14	C	11/22/2015	09:58	-130.317	45.960	0	1349.30	0	2.7000	0	34.4680	0	27.495	0	1333.906	0	20.0	4	6.1	4	-1E+10	1	-1E+10	1	-1E+10	1	-1E+10	1	-1E+10	1	-1E+10	1
4901784	14	C	11/22/2015	09:58	-130.317	45.960	0	1354.60	0	2.6850	0	34.4710	0	27.499	0	1339.128	0	20.2	4	6.2	4	-1E+10	1	-1E+10	1	-1E+10	1	-1E+10	1	-1E+10	1	-1E+10	1
4901784	14	C	11/22/2015	09:58	-130.317	45.960	0	1360.00	0	2.6810	0	34.4710	0	27.499	0	1344.449	0	20.4	4	6.3	4	-1E+10	1	-1E+10	1	-1E+10	1	-1E+10	1	-1E+10	1	-1E+10	1
4901784	14	C	11/22/2015	09:58	-130.317	45.960	0	1365.30	0	2.6700	0	34.4730	0	27.502	0	1349.672	0	20.7	4	6.3	4	-1E+10	1	-1E+10	1	-1E+10	1	-1E+10	1	-1E+10	1	-1E+10	1
4901784	14	C	11/22/2015	09:58	-130.317	45.960	0	1370.60	0	2.6660	0	34.4740	0	27.503	0	1354.894	0	20.8	4	6.4	4	-1E+10	1	-1E+10	1	-1E+10	1	-1E+10	1	-1E+10	1	-1E+10	1
4901784	14	C	11/22/2015	09:58	-130.317	45.960	0	1375.00	0	2.6660	0	34.4740	0	27.503	0	1359.230	0	20.9	4	6.4	4	-1E+10	1	-1E+10	1	-1E+10	1	-1E+10	1	-1E+10	1	-1E+10	1
4901784	14	C	11/22/2015	09:58	-130.317	45.960	0	1379.40	0	2.6630	0	34.4740	0	27.503	0	1363.565	0	21.0	4	6.4	4	-1E+10	1	-1E+10	1	-1E+10	1	-1E+10	1	-1E+10	1	-1E+10	1
4901784	14	C	11/22/2015	09:58	-130.317	45.960	0	1384.80	0	2.6570	0	34.4750	0	27.505	0	1368.885	0	21.4	4	6.5	4	-1E+10	1	-1E+10	1	-1E+10	1	-1E+10	1	-1E+10	1	-1E+10	1
4901784	14	C	11/22/2015	09:58	-130.317	45.960	0	1390.10	0	2.6410	0	34.4770	0	27.508	0	1374.107	0	21.9	4	6.7	4	-1E+10	1	-1E+10	1	-1E+10	1	-1E+10	1	-1E+10	1	-1E+10	1
4901784	14	C	11/22/2015	09:58	-130.317	45.960	0	1395.50	0	2.6190	0	34.4810	0	27.513	0	1379.427	0	22.4	4	6.9	4	-1E+10	1	-1E+10	1	-1E+10	1	-1E+10	1	-1E+10	1	-1E+10	1
4901784	14	C	11/22/2015	09:58	-130.317	45.960	0	1400.10	0	2.6020	0	34.4820	0	27.515	0	1383.959	0	22.7	4	6.9	4	-1E+10	1	-1E+10	1	-1E+10	1	-1E+10	1	-1E+10	1	-1E+10	1
4901784	14	C	11/22/2015	09:58	-130.317	45.960	0	1405.20	0	2.5920	0	34.4840	0	27.518	0	1388.984	0	23.1	4	7.1	4	-1E+10	1	-1E+10	1	-1E+10	1	-1E+10	1	-1E+10	1	-1E+10	1
4901784	14	C	11/22/2015	09:58	-130.317	45.960	0	1410.30	0	2.5700	0	34.4870	0	27.522	0	1394.008	0	23.5	4	7.2	4	-1E+10	1	-1E+10	1	-1E+10	1	-1E+10	1	-1E+10	1	-1E+10	1
4901784	14	C	11/22/2015	09:58	-130.317	45.960	0	1415.10	0	2.5650	0	34.4880	0	27.523	0	1398.737	0	23.6	4	7.2	4	-1E+10	1	-1E+10	1	-1E+10	1	-1E+10	1	-1E+10	1	-1E+10	1
4901784	14	C	11/22/2015	09:58	-130.317	45.960	0	1420.00	0	2.5620	0	34.4880	0	27.523	0	1403.564	0	23.7	4	7.2	4	-1E+10	1	-1E+10	1	-1E+10	1	-1E+10	1	-1E+10	1	-1E+10	1
4901784	14	C	11/22/2015	09:58	-130.317	45.960	0	1424.80	0	2.5560	0	34.4880	0	27.524	0	1408.292	0	23.9	4	7.3	4	-1E+10	1	-1E+10	1	-1E+10	1	-1E+10	1	-1E+10	1	-1E+10	1
4901784	14	C	11/22/2015	09:58	-130.317	45.960	0	1429.70	0	2.5440	0	34.4900	0	27.527	0	1413.119	0	24.2	4	7.4	4	-1E+10	1	-1E+10	1	-1E+10	1	-1E+10	1	-1E+10	1	-1E+10	1
4901784	14	C	11/22/2015	09:58	-130.317	45.960	0	1434.70	0	2.5340	0	34.4910	0	27.528	0	1418.044	0	24.4	4	7.4	4	-1E+10	1	-1E+10	1	-1E+10	1	-1E+10	1	-1E+10	1	-1E+10	1
4901784	14	C	11/22/2015	09:58	-130.317	45.960	0	1439.70	0	2.5210	0	34.4910	0	27.529	0	1422.969	0	24.6	4	7.5	4	-1E+10	1	-1E+10	1	-1E+10	1	-1E+10	1	-1E+10	1	-1E+10	1
4901784	14	C	11/22/2015	09:58	-130.317	45.960	0	1444.70	0	2.5120	0	34.4920	0	27.531	0	1427.894	0	24.9	4	7.6	4	-1E+10	1	-1E+10	1	-1E+10	1	-1E+10	1	-1E+10	1	-1E+10	1
4901784	14	C	11/22/2015	09:58	-130.317	45.960	0	1449.80	0	2.4940	0	34.4940	0	27.534	0	1432.918	0	25.0	4	7.6	4	-1E+10	1	-1E+10	1	-1E+10	1	-1E+10	1	-1E+10	1	-1E+10	1
4901784	14	C	11/22/2015	09:58	-130.317	45.960	0	1455.10	0	2.4840	0	34.4950	0	27.536	0	1438.138	0	25.1	4	7.6	4	-1E+10	1	-1E+10	1	-1E+10	1	-1E+10	1	-1E+10	1	-1E+10	1
4901784	14	C	11/22/2015	09:58	-130.317	45.960	0	1460.30	0	2.4800	0	34.4950	0	27.536	0	1443.260	0	25.2	4	7.7	4	-1E+10	1	-1E+10	1	-1E+10	1	-1E+10	1	-1E+10	1	-1E+10	1
4901784	14	C	11/22/2015	09:58	-130.317	45.960	0	1465.50	0	2.4760	0	34.4950	0	27.536	0	1448.381	0	25.3	4	7.7	4	-1E+10	1	-1E+10	1	-1E+10	1	-1E+10	1	-1E+10	1	-1E+10	1
4901784	14	C	11/22/2015	09:58	-130.317	45.960	0	1470.00	0	2.4750	0	34.4960	0	27.537	0	1452.813	0	25.4	4	7.8	4	-1E+10	1	-1E+10	1	-1E+10	1	-1E+10	1	-1E+10	1	-1E+10	1
4901784	14	C	11/22/2015	09:58	-130.317	45.960	0	1474.40	0	2.4730	0	34.4960	0	27.538	0	1457.147	0	25.6	4	7.8	4	-1E+10	1	-1E+10	1	-1E+10	1	-1E+10	1	-1E+10	1	-1E+10	1
4901784	14	C	11/22/2015	09:58	-130.317	45.960	0	1479.70	0	2.4650	0	34.4970	0	27.539	0	1462.366	0	25.8	4	7.9	4	-1E+10	1	-1E+10	1	-1E+10	1	-1E+10	1	-1E+10	1	-1E+10	1
4901784	14	C	11/22/2015	09:58	-130.317	45.960	0	1485.00	0	2.4540	0	34.4980	0	27.541	0	1467.586	0	25.9	4	7.9	4	-1E+10	1	-1E+10	1	-1E+10	1	-1E+10	1	-1E+10	1	-1E+10	1
4901784	14	C	11/22/2015	09:58	-130.317	45.960	0	1490.20	0	2.4520	0	34.4980	0	27.541	0	1472.707	0	26.0	4	7.9	4	-1E+10	1	-1E+10	1	-1E+10	1	-1E+10	1	-1E+10	1	-1E+10	1
4901784	14	C	11/22/2015	09:58	-130.317	45.960	0	1495.40	0	2.4490	0	34.4980	0	27.541	0	1477.827	0	26.3	4	8.0	4	-1E+10	1	-1E+10	1	-1E+10	1	-1E+10	1	-1E+10	1	-1E+10	1
4901784	14	C	11/22/2015	09:58	-130.317	45.960	0	1500.10	0	2.4410	0	34.5000	0	27.544	0	1482.456	0	26.7	4	8.1	4	-1E+10	1	-1E+10	1	-1E+10	1	-1E+10	1	-1E+10	1	-1E+10	1
4901784	14	C	11/22/2015	09:58	-130.317	45.960	0	1505.00	0	2.4290	0	34.5010	0	27.545	0	1487.281	0	27.0	4	8.2	4	-1E+10	1	-1E+10	1	-1E+10	1	-1E+10	1	-1E+10	1	-1E+10	1
4901784	14	C	11/22/2015	09:58	-130.317	45.960	0	1509.90	0	2.4160	0	34.5030	0	27.548	0	1492.106	0	27.3	4	8.3	4	-1E+10	1	-1E+10	1	-1E+10	1	-1E+10	1	-1E+10	1	-1E+10	1
4901784	14	C	11/22/2015	09:58	-130.317	45.960	0	1514.90	0	2.4120	0	34.5030	0	27.548	0	1497.029	0	27.4	4	8.3	4	-1E+10	1	-1E+10	1	-1E+10	1	-1E+10	1	-1E+10	1	-1E+10	1
4901784	14	C	11/22/2015	09:58	-130.317	45.960	0	1519.90	0	2.4050	0	34.5040	0	27.550	0	1501.953	0	27.7	4	8.4	4	-1E+10	1	-1E+10	1	-1E+10	1	-1E+10	1	-1E+10	1	-1E+10	1
4901784	14	C	11/22/2015	09:58	-130.317	45.960	0	1524.80	0	2.3950	0	34.5060	0	27.552	0	1506.777	0	28.1	4	8.6	4	-1E+10	1	-1E+10	1	-1E+10	1	-1E+10	1	-1E+10	1	-1E+10	1
4901784	14	C	11/22/2015	09:58	-130.317	45.960	0	1529.50	0	2.3890	0	34.5070	0	27.554	0	1511.405	0	28.4	4	8.7	4	-1E+10	1	-1E+10	1	-1E+10	1	-1E+10	1	-1E+10	1	-1E+10	1
4901784	14	C	11/22/2015	09:58	-130.317	45.960	0	1535.20	0	2.3820	0	34.5080	0	27.555	0	1517.017	0	28.9	4	8.8	4	-1E+10	1	-1E+10	1	-1E+10	1	-1E+10	1	-1E+10	1	-1E+10	1
4901784	14	C	11/22/2015	09:58	-130.317	45.960	0	1540.00	0	2.3770	0	34.5090	0	27.556	0	1521.743	0	29.0	4	8.8	4	-1E+10	1	-1E+10	1	-1E+10	1	-1E+10	1	-1E+10	1	-1E+10	1
4901784	14	C	11/22/2015	09:58	-130.317	45.960	0	1544.70	0	2.3770	0	34.5090	0	27.556	0	1526.370	0	29.1	4	8.9	4	-1E+10	1	-1E+10	1	-1E+10	1	-1E+10	1	-1E+10	1	-1E+10	1
4901784	14	C	11/22/2015	09:58	-130.317	45.960	0	1547.70	0	2.3740	0	34.5100	0	27.557	0	1529.324	0	29.9	4	9.1	4	-1E+10	1	-1E+10	1	-1E+10	1	-1E+10	1	-1E+10	1	-1E+10	1
4901784	14	C	11/22/2015	09:58	-130.317	45.960	0																										
4901784	15	C	12/02/2015	10:44	-130.605	45.826	0	2.20	0	13.1910	0	32.5160	0	24.432	0	2.182	0	251.9	4	96.4	4	-1E+10	1	-1E+10	1	-1E+10	1	-1E+10	1	-1E+10	1	-1E+10	1
4901784	15	C	12/02/2015	10:44	-130.605	45.826	0	3.20	0	13.1910	0	32.5160	0	24.432	0	3.174	0	251.7	4	96.3	4	-1E+10	1	-1E+10	1	-1E+10	1	-1E+10	1	-1E+10	1	-1E+10	1
4901784	15	C	12/02/2015	10:44	-130.605	45.826	0	4.30	0	13.1900	0	32.5160	0	24.432	0	4.265	0	251.8	4	96.3	4	-1E+10	1	-1E+10	1	-1E+10	1	-1E+10	1	-1E+10	1	-1E+10	1
4901784	15	C	12/02/2015	10:44	-130.605	45.826	0	5.40	0	13.1900	0	32.5160	0	24.432	0	5.356	0	251.7	4	96.3	4	-1E+10	1	-1E+10	1	-1E+10	1	-1E+10	1	-1E+10	1	-1E+10	1
4901784	15	C	12/02/2015	10:44	-130.605	45.826	0	6.80	0	13.1900	0	32.5160	0	24.433	0	6.744	0	251.5	4	96.2	4	-1E+10	1	-1E+10	1	-1E+10	1	-1E+10	1	-1E+10	1	-1E+10	1
4901784	15	C	12/02/2015	10:44	-130.605	45.826	0	8.10	0	13.1900	0	32.5160	0	24.433	0	8.033	0	251.7	4	96.3	4	-1E+10	1	-1E+10	1	-1E+10	1	-1E+10	1	-1E+10	1	-1E+10	1
4901784	15	C	12/02/2015	10:44	-130.605	45.826	0	9.70	0	13.1850	0	32.5160	0	24.434	0	9.620	0	251.5	4	96.2	4	-1E+10	1	-1E+10	1	-1E+10	1	-1E+10	1	-1E+10	1	-1E+10	1
4901784	15	C	12/02/2015	10:44	-130.605	45.826	0	11.40	0	13.1830	0	32.5170	0	24.435	0	11.306	0	251.5	4	96.2	4	-1E+10	1	-1E+10	1	-1E+10	1	-1E+10	1	-1E+10	1	-1E+10	1
4901784	15	C	12/02/2015	10:44	-130.605	45.826	0	13.30	0	13.1840	0	32.5170	0	24.435	0	13.191	0	251.5	4	96.2	4	-1E+10	1	-1E+10	1	-1E+10	1	-1E+10	1	-1E+10	1	-1E+10	1
4901784	15	C	12/02/2015	10:44	-130.605	45.826	0	15.30	0	13.1830	0	32.5170	0	24.435	0	15.174	0	251.4	4	96.2	4	-1E+10	1	-1E+10	1	-1E+10	1	-1E+10	1	-1E+10	1	-1E+10	1
4901784	15	C	12/02/2015	10:44	-130.605	45.826	0	17.20	0	13.1840	0	32.5170	0	24.435	0	17.058	0	251.3	4	96.1	4	-1E+10	1	-1E+10	1	-1E+10	1	-1E+10	1	-1E+10	1	-1E+10	1
4901784	15	C	12/02/2015	10:44	-130.605	45.826	0	19.00	0	13.1850	0	32.5160	0	24.434	0	18.843	0	251.4	4	96.2	4	-1E+10	1	-1E+10	1	-1E+10	1	-1E+10	1	-1E+10	1	-1E+10	1
4901784	15	C	12/02/2015	10:44	-130.605	45.826	0	20.70	0	13.1830	0	32.5180	0	24.436	0	20.529	0	251.4	4	96.2	4	-1E+10	1	-1E+10	1	-1E+10	1	-1E+10	1	-1E+10	1	-1E+10	1
4901784	15	C	12/02/2015	10:44	-130.605	45.826	0	22.20	0	13.1840	0	32.5170	0	24.435	0	22.017	0	251.4	4	96.2	4	-1E+10	1	-1E+10	1	-1E+10	1	-1E+10	1	-1E+10	1	-1E+10	1
4901784	15	C	12/02/2015	10:44	-130.605	45.826	0	24.00	0	13.1910	0	32.5170	0	24.434	0	23.802	0	251.3	4	96.1	4	-1E+10	1	-1E+10	1	-1E+10	1	-1E+10	1	-1E+10	1	-1E+10	1
4901784	15	C	12/02/2015	10:44	-130.605	45.826	0	25.80	0	13.1930	0	32.5170	0	24.433	0	25.587	0	251.3	4	96.1	4	-1E+10	1	-1E+10	1	-1E+10	1	-1E+10	1	-1E+10	1	-1E+10	1
4901784	15	C	12/02/2015	10:44	-130.605	45.826	0	27.80	0	13.1920	0	32.5170	0	24.433	0	27.570	0	251.2	4	96.1	4	-1E+10	1	-1E+10	1	-1E+10	1	-1E+10	1	-1E+10	1	-1E+10	1
4901784	15	C	12/02/2015	10:44	-130.605	45.826	0	29.70	0	13.1940	0	32.5170	0	24.433	0	29.455	0	251.3	4	96.1	4	-1E+10	1	-1E+10	1	-1E+10	1	-1E+10	1	-1E+10	1	-1E+10	1
4901784	15	C	12/02/2015	10:44	-130.605	45.826	0	31.60	0	13.1910	0	32.5170	0	24.434	0	31.339	0	251.1	4	96.1	4	-1E+10	1	-1E+10	1	-1E+10	1	-1E+10	1	-1E+10	1	-1E+10	1
4901784	15	C	12/02/2015	10:44	-130.605	45.826	0	33.30	0	13.1900	0	32.5180	0	24.435	0	33.025	0	251.0	4	96.0	4	-1E+10	1	-1E+10	1	-1E+10	1	-1E+10	1	-1E+10	1	-1E+10	1
4901784	15	C	12/02/2015	10:44	-130.605	45.826	0	35.00	0	13.1860	0	32.5200	0	24.437	0	34.710	0	250.9	4	96.0	4	-1E+10	1	-1E+10	1	-1E+10	1	-1E+10	1	-1E+10	1	-1E+10	1
4901784	15	C	12/02/2015	10:44	-130.605	45.826	0	36.50	0	13.1890	0	32.5180	0	24.435	0	36.198	0	250.9	4	96.0	4	-1E+10	1	-1E+10	1	-1E+10	1	-1E+10	1	-1E+10	1	-1E+10	1
4901784	15	C	12/02/2015	10:44	-130.605	45.826	0	38.00	0	13.1900	0	32.5180	0	24.435	0	37.685	0	250.9	4	96.0	4	-1E+10	1	-1E+10	1	-1E+10	1	-1E+10	1	-1E+10	1	-1E+10	1
4901784	15	C	12/02/2015	10:44	-130.605	45.826	0	39.50	0	13.1920	0	32.5160	0	24.433	0	39.173	0	250.6	4	95.9	4	-1E+10	1	-1E+10	1	-1E+10	1	-1E+10	1	-1E+10	1	-1E+10	1
4901784	15	C	12/02/2015	10:44	-130.605	45.826	0	41.40	0	13.1670	0	32.5250	0	24.445	0	41.057	0	250.9	4	95.9	4	-1E+10	1	-1E+10	1	-1E+10	1	-1E+10	1	-1E+10	1	-1E+10	1
4901784	15	C	12/02/2015	10:44	-130.605	45.826	0	43.40	0	13.1530	0	32.5280	0	24.450	0	43.040	0	250.7	4	95.8	4	-1E+10	1	-1E+10	1	-1E+10	1	-1E+10	1	-1E+10	1	-1E+10	1
4901784	15	C	12/02/2015	10:44	-130.605	45.826	0	45.30	0	13.1030	0	32.5470	0	24.475	0	44.924	0	250.9	4	95.8	4	-1E+10	1	-1E+10	1	-1E+10	1	-1E+10	1	-1E+10	1	-1E+10	1
4901784	15	C	12/02/2015	10:44	-130.605	45.826	0	47.30	0	13.0790	0	32.5610	0	24.490	0	46.907	0	250.7	4	95.7	4	-1E+10	1	-1E+10	1	-1E+10	1	-1E+10	1	-1E+10	1	-1E+10	1
4901784	15	C	12/02/2015	10:44	-130.605	45.826	0	49.30	0	13.0660	0	32.5640	0	24.495	0	48.890	0	250.6	4	95.6	4	-1E+10	1	-1E+10	1	-1E+10	1	-1E+10	1	-1E+10	1	-1E+10	1
4901784	15	C	12/02/2015	10:44	-130.605	45.826	0	51.20	0	13.0470	0	32.5680	0	24.502	0	50.774	0	250.8	4	95.7	4	-1E+10	1	-1E+10	1	-1E+10	1	-1E+10	1	-1E+10	1	-1E+10	1
4901784	15	C	12/02/2015	10:44	-130.605	45.826	0	53.80	0	13.0400	0	32.5750	0	24.509	0	53.352	0	250.6	4	95.6	4	-1E+10	1	-1E+10	1	-1E+10	1	-1E+10	1	-1E+10	1	-1E+10	1
4901784	15	C	12/02/2015	10:44	-130.605	45.826	0	55.80	0	13.0440	0	32.5780	0	24.511	0	55.335	0	250.5	4	95.6	4	-1E+10	1	-1E+10	1	-1E+10	1	-1E+10	1	-1E+10	1	-1E+10	1
4901784	15	C	12/02/2015	10:44	-130.605	45.826	0	57.40	0	13.0510	0	32.5830	0	24.513	0	56.922	0	249.9	4	95.4	4	-1E+10	1	-1E+10	1	-1E+10	1	-1E+10	1	-1E+10	1	-1E+10	1
4901784	15	C	12/02/2015	10:44	-130.605	45.826	0	59.00	0	13.0650	0	32.5890	0	24.515	0	58.508	0	249.7	4	95.3	4	-1E+10	1	-1E+10	1	-1E+10	1	-1E+10	1	-1E+10	1	-1E+10	1
4901784	15	C	12/02/2015	10:44	-130.605	45.826	0	60.60	0	13.0740	0	32.5960	0	24.519	0	60.095	0	249.6	4	95.3	4	-1E+10	1	-1E+10	1	-1E+10	1	-1E+10	1	-1E+10	1	-1E+10	1
4901784	15	C	12/02/2015	10:44	-130.605	45.826	0	62.30	0	13.0500	0	32.5990	0	24.526	0	61.780	0	249.0	4	95.0	4	-1E+10	1	-1E+10	1	-1E+10	1	-1E+10	1	-1E+10	1	-1E+10	1
4901784	15	C	12/02/2015	10:44	-130.605	45.826	0	63.90	0	13.0130	0	32.6060	0	24.539	0	63.367	0	249.1	4	95.0	4	-1E+10	1	-1E+10	1	-1E+10	1	-1E+10	1	-1E+10	1	-1E+10	1
4901784	15	C	12/02/2015	10:44	-130.605	45.826	0	65.50	0	13.0060	0	32.6070	0	24.541	0	64.953	0	248.7	4	94.8	4	-1E+10	1	-1E+10	1	-1E+10	1	-1E+10	1	-1E+10	1	-1E+10	1
4901784	15	C	12/02/2015	10:44	-130.605	45.826	0	67.10	0	13.0010	0	32.6050	0	24.540	0	66.539	0	248.0	4	94.6	4	-1E+10	1	-1E+10	1	-1E+10	1	-1E+10	1	-1E+10	1	-1E+10	1
4901784	15	C	12/02/2015	10:44	-130.605	45.826	0	68.60	0	12.9960	0	32.6010	0	24.538	0	68.027	0	247.3	4	94.3	4	-1E+10	1	-1E+10	1	-1E+10	1	-1E+10	1	-1E+10	1	-1E+10	1
4901784	15	C	12/02/2015	10:44	-130.605	45.826	0	70.10	0	12.8880	0	32.5870	0	24.548	0	69.514	0	246.9	4	93.9	4	-1E+10	1	-1E+10	1	-1E+10	1	-1E+10	1	-1E+10	1	-1E+10	1
4901784	15	C	12/02/2015	10:44	-130.605	45.826	0	71.70	0	12.5050	0	32.6070	0	24.638	0	71.100	0	247.7	4	93.5	4	-1E+10	1	-1E+10	1	-1E+10	1	-1E+10	1	-1E+10	1	-1E+10	1
4901784	15	C	12/02/2015	10:44	-130.605	45.826	0	73.30	0	12.4390	0	32.6110	0	24.654	0	72.687	0	247.5	4	93.3	4	-1E+10	1	-1E+10	1	-1E+10	1	-1E+10	1	-1E+10	1	-1E+10	1
4901784	15	C	12/02/2015	10:44	-130.605	45.826	0	74.80	0	12.4210	0	32.6020	0	24.650	0	74.174	0	246.8	4	93.0	4	-1E+10	1	-1E+10	1	-1E+10	1	-1E+10	1	-1E+10	1	-1E+10	1
4901784	15	C	12/02/2015	10:44	-130.605	45.826	0	76.40	0	12.3500	0	32.6320	0	24.687	0	75.760	0	245.8	4	92.5	4	-1E+10	1	-1E+10	1	-1E+10	1	-1E+10	1	-1E+10	1	-1E+10	1
4901784	15	C	12/02/2015	10:44	-130.605	45.826	0	78.10	0	11.9930	0	32.6970	0	24.805	0	77.445	0	245.8	4	91.9	4	-1E+10	1	-1E+10	1	-1E+10	1	-1E+10	1	-1E+10	1	-1E+10	1
4901784	15	C	12/02/2015	10:44	-130.605	45.826	0	79.90	0	11.8680	0	32.6980	0	24.829	0	79.230	0	245.1	4	91.3	4	-1E+10	1	-1E+10	1	-1E+10	1	-1E+10	1	-1E+10	1	-1E+10	1
4901784	15	C	12/02/2015	10:44	-130.605	45.826	0	81.70	0	11.7460	0	32.7110	0	24.861	0	81.015	0	243.7	4	90.6	4	-1E+10	1	-1E+10	1	-1E+10	1	-1E+10	1	-1E+10	1	-1E+10	1
4901784	15	C	12/02/2015	10:44	-130.605	45.826	0	83.40	0	11.5370	0	32.7370	0	24.920	0	82.700	0	242.7	4	89.9	4	-1E+10	1	-1E+10	1	-1E+10	1	-1E+10	1	-1E+10	1	-1E+10	1
4901784	15	C	12/02/2015	10:44	-130.605	45.826	0	85.30	0	11.4090	0	32.7470	0	24.951	0	84.584	0	241.6	4	89.2	4	-1E+10	1	-1E+10	1	-1E+10	1	-1E+10	1	-1E+10	1	-1E+10	1
4901784	15	C	12/02/2015	10:44	-130.605	45.826	0	87.10	0	11.3560	0	32.7500	0	24.963	0	86.368	0	239.3	4	88.3	4	-1E+10	1	-1E+10	1	-1E+10	1	-1E+10	1	-1E+10	1	-1E+10	1
4901784	15	C	12/02/2015	10:44	-130.605	45.826	0	88.80	0	11.2810	0	32.7520	0	24.978	0	88.054	0	236.5	4	87.1	4	-1E+10	1	-1E+10	1	-1E+10	1	-1E+10	1	-1E+10	1	-1E+10	1
4901784	15	C	12/02/2015	10:44	-130.605	45.826	0	90.50	0	11.2180	0	32.7570	0	24.993	0	89.739	0	232.8	4	85.6	4	-1E+10	1	-1E+10	1	-1E+10	1	-1E+10	1	-1E+10	1	-1E+10	1
4901784	15	C	12/02/2015	10:44	-130.605	45.826	0	92.20	0	10.9460	0	32.7650	0	25.047	0	91.424	0	229.5	4	83.9	4	-1E+10	1	-1E+10	1	-1E+10	1	-1E+10	1	-1E+10	1	-1E+10	1
4901784	15	C	12/02/2015	10:44	-130.605	45.826	0	94.10	0	10.6380	0	32.7070	0	25.056	0	93.308	0	225.5	4	81.9	4	-1E+10	1	-1E+10	1	-1E+10	1	-1E+10	1	-1E+10	1	-1E+10	1
4901784	15	C	12/02/2015	10:44	-130.605	45.826	0	94.60	0	10.5380	0	32.6950	0	25.064	0	93.803	0	224.3	4	81.3	4	-1E+10	1	-1E+10	1	-1E+10	1	-1E+10	1	-1E+10	1	-1E+10	1
4901784	15	C	12/02/2015	10:44	-130.605	45.826	0	96.00	0	10.0940	0	32.6950	0	25.139	0	95.191	0	223.8	4	80.3	4	-1E+10	1	-1E+10	1	-1E+10	1	-1E+10	1	-1E+10	1	-1E+10	1
4901784	15	C	12/02/2015	10:44	-130.605	45.826	0	97.40	0	10.0510	0	32.6990	0	25.149	0	96.579	0	222.7	4	79.8	4	-1E+10	1	-1E+10	1	-1E+10	1	-1E+10	1	-1E+10	1	-1E+10	1
4901784	15	C	12/02/2015	10:44	-130.605	45.826	0	98.70	0	10.0130	0	32.7040	0	25.160	0	97.868	0	221.2	4	79.3	4	-1E+10	1	-1E+10	1	-1E+10	1	-1E+10	1	-1E+10	1	-1E+10	1
4901784	15	C	12/02/2015	10:44	-130.605	45.826	0	100.10	0	9.9480	0	32.7130	0	25.177	0	99.256	0	219.7	4	78.6	4	-1E+10	1	-1E+10	1	-1E+10	1	-1E+10	1	-1E+10	1	-1E+10	1
4901784	15	C	12/02/2015	10:44	-130.605	45.826	0	102.30	0	9.8690	0	32.7470	0	25.217	0	101.437	0	217.0	4	77.5	4	-1E+10	1	-1E+10	1	-1E+10	1	-1E+10	1	-1E+10	1	-1E+10	1
4901784	15	C	12/02/2015	10:44	-130.605	45.826	0	105.20	0	9.6870	0	32.8420	0	25.321	0	104.311	0	213.2	4	75.9	4	-1E+10	1	-1E+10	1	-1E+10	1	-1E+10	1	-1E+10	1	-1E+10	1
4901784	15	C	12/02/2015	10:44	-130.605	45.826	0	107.50	0	9.5720	0	32.8680	0	25.360	0	106.591	0	209.7	4	74.5	4	-1E+10	1	-1E+10	1	-1E+10	1	-1E+10	1	-1E+10	1	-1E+10	1
4901784	15	C	12/02/2015	10:44	-130.605	45.826	0	109.80	0	9.2260	0	32.8610	0	25.410	0	108.871	0	207.4	4	73.1	4	-1E+10	1	-1E+10	1	-1E+10	1	-1E+10	1	-1E+10	1	-1E+10	1
4901784	15	C	12/02/2015	10:44	-130.605	45.826	0	112.80	0	8.9270	0	32.9310	0	25.512	0	111.845	0	209.0	4	73.2	4	-1E+10	1	-1E+10	1	-1E+10	1	-1E+10	1	-1E+10	1	-1E+10	1
4901784	15	C	12/02/2015	10:44	-130.605	45.826	0	115.30	0	8.9860	0	32.9440	0	25.513	0	114.323	0	210.4	4	73.8	4	-1E+10	1	-1E+10	1	-1E+10	1	-1E+10	1	-1E+10	1	-1E+10	1
4901784	15	C	12/02/2015	10:44	-130.605	45.826	0	117.80	0	9.0730	0	32.9610	0	25.513	0	116.802	0	212.7	4	74.8	4	-1E+10	1	-1E+10	1	-1E+10	1	-1E+10	1	-1E+10	1	-1E+10	1
4901784	15	C	12/02/2015	10:44	-130.605	45.826	0	120.30	0	9.2400	0	33.0140	0	25.528	0	119.280	0	213.2	4	75.3	4	-1E+10	1	-1E+10	1	-1E+10	1	-1E+10	1	-1E+10	1	-1E+10	1
4901784	15	C	12/02/2015	10:44	-130.605	45.826	0	122.40	0	9.3620	0	33.0350	0	25.525	0	121.361	0	212.2	4	75.2	4	-1E+10	1	-1E+10	1	-1E+10	1	-1E+10	1	-1E+10	1	-1E+10	1
4901784	15	C	12/02/2015	10:44	-130.605	45.826	0	124.60	0	9.3350	0	33.0860	0	25.569	0	123.542	0	208.9	4	74.0	4	-1E+10	1	-1E+10	1	-1E+10	1	-1E+10	1	-1E+10	1	-1E+10	1
4901784	15	C	12/02/2015	10:44	-130.605	45.826	0	127.30	0	9.1610	0	33.0810	0	25.593	0	126.218	0	204.6	4	72.2	4	-1E+10	1	-1E+10	1	-1E+10	1	-1E+10	1	-1E+10	1	-1E+10	1
4901784	15	C	12/02/2015	10:44	-130.605	45.826	0	130.10	0	8.9490	0	33.0870	0	25.631	0	128.993	0	200.6	4	70.4	4	-1E+10	1	-1E+10	1	-1E+10	1	-1E+10	1	-1E+10	1	-1E+10	1
4901784	15	C	12/02/2015	10:44	-130.605	45.826	0	132.30	0	8.7070	0	33.1510	0	25.718	0	131.174	0	195.7	4	68.4	4	-1E+10	1	-1E+10	1	-1E+10	1	-1E+10	1	-1E+10	1	-1E+10	1
4901784	15	C	12/02/2015	10:44	-130.605	45.826	0	134.60	0	8.3710	0	33.1820	0	25.794	0	133.454	0	195.3	4	67.7	4	-1E+10	1	-1E+10	1	-1E+10	1	-1E+10	1	-1E+10	1	-1E+10	1
4901784	15	C	12/02/2015	10:44	-130.605	45.826	0	137.80	0	8.3150	0	33.2150	0	25.828	0	136.625	0	196.0	4	67.9	4	-1E+10	1	-1E+10	1	-1E+10	1	-1E+10	1	-1E+10	1	-1E+10	1
4901784	15	C	12/02/2015	10:44	-130.605	45.826	0	140.20	0	8.3620	0	33.2870	0	25.877	0	139.004	0	196.5	4	68.2	4	-1E+10	1	-1E+10	1	-1E+10	1	-1E+10	1	-1E+10	1	-1E+10	1
4901784	15	C	12/02/2015	10:44	-130.605	45.826	0	142.60	0	8.3670	0	33.3580	0	25.932	0	141.383	0	195.8	4	68.0	4	-1E+10	1	-1E+10	1	-1E+10	1	-1E+10	1	-1E+10	1	-1E+10	1
4901784	15	C	12/02/2015	10:44	-130.605	45.826	0	145.00	0	8.3590	0	33.3810	0	25.952	0	143.762	0	194.3	4	67.5	4	-1E+10	1	-1E+10	1	-1E+10	1	-1E+10	1	-1E+10	1	-1E+10	1
4901784	15	C	12/02/2015	10:44	-130.605	45.826	0	147.50	0	8.3060	0	33.4120	0	25.984	0	146.239	0	191.9	4	66.6	4	-1E+10	1	-1E+10	1	-1E+10	1	-1E+10	1	-1E+10	1	-1E+10	1
4901784	15	C	12/02/2015	10:44	-130.605	45.826	0	150.10	0	8.2550	0	33.4370	0	26.011	0	148.816	0	188.0	4	65.2	4	-1E+10	1	-1E+10	1	-1E+10	1	-1E+10	1	-1E+10	1	-1E+10	1
4901784	15	C	12/02/2015	10:44	-130.605	45.826	0	152.80	0	8.1620	0	33.4740	0	26.054	0	151.492	0	182.0	4	63.0	4	-1E+10	1	-1E+10	1	-1E+10	1	-1E+10	1	-1E+10	1	-1E+10	1
4901784	15	C	12/02/2015	10:44	-130.605	45.826	0	155.50	0	7.9780	0	33.5300	0	26.125	0	154.168	0	178.3	4	61.5	4	-1E+10	1	-1E+10	1	-1E+10	1	-1E+10	1	-1E+10	1	-1E+10	1
4901784	15	C	12/02/2015	10:44	-130.605	45.826	0	157.30	0	7.9650	0	33.5370	0	26.133	0	155.952	0	177.3	4	61.1	4	-1E+10	1	-1E+10	1	-1E+10	1	-1E+10	1	-1E+10	1	-1E+10	1
4901784	15	C	12/02/2015	10:44	-130.605	45.826	0	160.10	0	7.9600	0	33.5710	0	26.160	0	158.727	0	175.6	4	60.5	4	-1E+10	1	-1E+10	1	-1E+10	1	-1E+10	1	-1E+10	1	-1E+10	1
4901784	15	C	12/02/2015	10:44	-130.605	45.826	0	162.80	0	7.9810	0	33.6070	0	26.185	0	161.403	0	173.0	4	59.7	4	-1E+10	1	-1E+10	1	-1E+10	1	-1E+10	1	-1E+10	1	-1E+10	1
4901784	15	C	12/02/2015	10:44	-130.605	45.826	0	164.60	0	7.9080	0	33.6030	0	26.193	0	163.186	0	171.3	4	59.0	4	-1E+10	1	-1E+10	1	-1E+10	1	-1E+10	1	-1E+10	1	-1E+10	1
4901784	15	C	12/02/2015	10:44	-130.605	45.826	0	167.10	0	7.8880	0	33.6060	0	26.198	0	165.664	0	169.3	4	58.3	4	-1E+10	1	-1E+10	1	-1E+10	1	-1E+10	1	-1E+10	1	-1E+10	1
4901784	15	C	12/02/2015	10:44	-130.605	45.826	0	169.70	0	7.8850	0	33.6380	0	26.224	0	168.240	0	167.0	4	57.5	4	-1E+10	1	-1E+10	1	-1E+10	1	-1E+10	1	-1E+10	1	-1E+10	1
4901784	15	C	12/02/2015	10:44	-130.605	45.826	0	172.40	0	7.8580	0	33.6610	0	26.246	0	170.916	0	164.4	4	56.6	4	-1E+10	1	-1E+10	1	-1E+10	1	-1E+10	1	-1E+10	1	-1E+10	1
4901784	15	C	12/02/2015	10:44	-130.605	45.826	0	175.00	0	7.8320	0	33.6650	0	26.253	0	173.493	0	161.9	4	55.7	4	-1E+10	1	-1E+10	1	-1E+10	1	-1E+10	1	-1E+10	1	-1E+10	1
4901784	15	C	12/02/2015	10:44	-130.605	45.826	0	177.60	0	7.7750	0	33.6760	0	26.270	0	176.069	0	159.6	4	54.8	4	-1E+10	1	-1E+10	1	-1E+10	1	-1E+10	1	-1E+10	1	-1E+10	1
4901784	15	C	12/02/2015	10:44	-130.605	45.826	0	180.20	0	7.7460	0	33.6840	0	26.280	0	178.646	0	158.0	4	54.3	4	-1E+10	1	-1E+10	1	-1E+10	1	-1E+10	1	-1E+10	1	-1E+10	1
4901784	15	C	12/02/2015	10:44	-130.605	45.826	0	182.00	0	7.7270	0	33.6950	0	26.292	0	180.429	0	157.3	4	54.0	4	-1E+10	1	-1E+10	1	-1E+10	1	-1E+10	1	-1E+10	1	-1E+10	1
4901784	15	C	12/02/2015	10:44	-130.605	45.826	0	184.80	0	7.7210	0	33.7200	0	26.312	0	183.204	0	156.6	4	53.7	4	-1E+10	1	-1E+10	1	-1E+10	1	-1E+10	1	-1E+10	1	-1E+10	1
4901784	15	C	12/02/2015	10:44	-130.605	45.826	0	187.60	0	7.7360	0	33.7400	0	26.326	0	185.978	0	156.0	4	53.6	4	-1E+10	1	-1E+10	1	-1E+10	1	-1E+10	1	-1E+10	1	-1E+10	1
4901784	15	C	12/02/2015	10:44	-130.605	45.826	0	189.50	0	7.7420	0	33.7490	0	26.332	0	187.861	0	155.8	4	53.5	4	-1E+10	1	-1E+10	1	-1E+10	1	-1E+10	1	-1E+10	1	-1E+10	1
4901784	15	C	12/02/2015	10:44	-130.605	45.826	0	192.30	0	7.7070	0	33.7760	0	26.358	0	190.636	0	154.9	4	53.2	4	-1E+10	1	-1E+10	1	-1E+10	1	-1E+10	1	-1E+10	1	-1E+10	1
4901784	15	C	12/02/2015	10:44	-130.605	45.826	0	195.10	0	7.6730	0	33.7870	0	26.372	0	193.410	0	154.5	4	53.0	4	-1E+10	1	-1E+10	1	-1E+10	1	-1E+10	1	-1E+10	1	-1E+10	1
4901784	15	C	12/02/2015	10:44	-130.605	45.826	0	197.70	0	7.6620	0	33.7900	0	26.376	0	195.986	0	154.2	4	52.9	4	-1E+10	1	-1E+10	1	-1E+10	1	-1E+10	1	-1E+10	1	-1E+10	1
4901784	15	C	12/02/2015	10:44	-130.605	45.826	0	200.40	0	7.6030	0	33.8040	0	26.395	0	198.662	0	152.9	4	52.4	4	-1E+10	1	-1E+10	1	-1E+10	1	-1E+10	1	-1E+10	1	-1E+10	1
4901784	15	C	12/02/2015	10:44	-130.605	45.826	0	202.20	0	7.5320	0	33.8190	0	26.417	0	200.445	0	151.9	4	51.9	4	-1E+10	1	-1E+10	1	-1E+10	1	-1E+10	1	-1E+10	1	-1E+10	1
4901784	15	C	12/02/2015	10:44	-130.605	45.826	0	204.70	0	7.4850	0	33.8270	0	26.430	0	202.922	0	149.8	4	51.2	4	-1E+10	1	-1E+10	1	-1E+10	1	-1E+10	1	-1E+10	1	-1E+10	1
4901784	15	C	12/02/2015	10:44	-130.605	45.826	0	207.50	0	7.4410	0	33.8310	0	26.440	0	205.697	0	146.7	4	50.1	4	-1E+10	1	-1E+10	1	-1E+10	1	-1E+10	1	-1E+10	1	-1E+10	1
4901784	15	C	12/02/2015	10:44	-130.605	45.826	0	210.00	0	7.3730	0	33.8410	0	26.457	0	208.174	0	145.2	4	49.5	4	-1E+10	1	-1E+10	1	-1E+10	1	-1E+10	1	-1E+10	1	-1E+10	1
4901784	15	C	12/02/2015	10:44	-130.605	45.826	0	212.40	0	7.3610	0	33.8430	0	26.460	0	210.551	0	143.9	4	49.0	4	-1E+10	1	-1E+10	1	-1E+10	1	-1E+10	1	-1E+10	1	-1E+10	1
4901784	15	C	12/02/2015	10:44	-130.605	45.826	0	214.90	0	7.3000	0	33.8530	0	26.477	0	213.028	0	142.0	4	48.3	4	-1E+10	1	-1E+10	1	-1E+10	1	-1E+10	1	-1E+10	1	-1E+10	1
4901784	15	C	12/02/2015	10:44	-130.605	45.826	0	217.40	0	7.2610	0	33.8520	0	26.481	0	215.505	0	140.7	4	47.8	4	-1E+10	1	-1E+10	1	-1E+10	1	-1E+10	1	-1E+10	1	-1E+10	1
4901784	15	C	12/02/2015	10:44	-130.605	45.826	0	219.80	0	7.2470	0	33.8540	0	26.485	0	217.883	0	141.0	4	47.9	4	-1E+10	1	-1E+10	1	-1E+10	1	-1E+10	1	-1E+10	1	-1E+10	1
4901784	15	C	12/02/2015	10:44	-130.605	45.826	0	222.30	0	7.2290	0	33.8570	0	26.490	0	220.360	0	141.4	4	48.0	4	-1E+10	1	-1E+10	1	-1E+10	1	-1E+10	1	-1E+10	1	-1E+10	1
4901784	15	C	12/02/2015	10:44	-130.605	45.826	0	224.80	0	7.2020	0	33.8610	0	26.497	0	222.837	0	140.5	4	47.7	4	-1E+10	1	-1E+10	1	-1E+10	1	-1E+10	1	-1E+10	1	-1E+10	1
4901784	15	C	12/02/2015	10:44	-130.605	45.826	0	227.30	0	7.1730	0	33.8630	0	26.502	0	225.314	0	139.3	4	47.3	4	-1E+10	1	-1E+10	1	-1E+10	1	-1E+10	1	-1E+10	1	-1E+10	1
4901784	15	C	12/02/2015	10:44	-130.605	45.826	0	229.70	0	7.1560	0	33.8630	0	26.505	0	227.691	0	137.7	4	46.7	4	-1E+10	1	-1E+10	1	-1E+10	1	-1E+10	1	-1E+10	1	-1E+10	1
4901784	15	C	12/02/2015	10:44	-130.605	45.826	0	232.20	0	7.1190	0	33.8670	0	26.513	0	230.168	0	135.3	4	45.9	4	-1E+10	1	-1E+10	1	-1E+10	1	-1E+10	1	-1E+10	1	-1E+10	1
4901784	15	C	12/02/2015	10:44	-130.605	45.826	0	234.60	0	7.0680	0	33.8710	0	26.523	0	232.546	0	133.1	4	45.0	4	-1E+10	1	-1E+10	1	-1E+10	1	-1E+10	1	-1E+10	1	-1E+10	1
4901784	15	C	12/02/2015	10:44	-130.605	45.826	0	237.10	0	7.0380	0	33.8730	0	26.529	0	235.023	0	130.8	4	44.3	4	-1E+10	1	-1E+10	1	-1E+10	1	-1E+10	1	-1E+10	1	-1E+10	1
4901784	15	C	12/02/2015	10:44	-130.605	45.826	0	239.60	0	6.9890	0	33.8780	0	26.540	0	237.499	0	127.8	4	43.2	4	-1E+10	1	-1E+10	1	-1E+10	1	-1E+10	1	-1E+10	1	-1E+10	1
4901784	15	C	12/02/2015	10:44	-130.605	45.826	0	242.20	0	6.9700	0	33.8810	0	26.545	0	240.075	0	125.7	4	42.4	4	-1E+10	1	-1E+10	1	-1E+10	1	-1E+10	1	-1E+10	1	-1E+10	1
4901784	15	C	12/02/2015	10:44	-130.605	45.826	0	244.70	0	6.9580	0	33.8830	0	26.548	0	242.551	0	124.1	4	41.9	4	-1E+10	1	-1E+10	1	-1E+10	1	-1E+10	1	-1E+10	1	-1E+10	1
4901784	15	C	12/02/2015	10:44	-130.605	45.826	0	247.20	0	6.9470	0	33.8840	0	26.550	0	245.028	0	122.6	4	41.4	4	-1E+10	1	-1E+10	1	-1E+10	1	-1E+10	1	-1E+10	1	-1E+10	1
4901784	15	C	12/02/2015	10:44	-130.605	45.826	0	249.80	0	6.9380	0	33.8840	0	26.551	0	247.604	0	121.2	4	40.9	4	-1E+10	1	-1E+10	1	-1E+10	1	-1E+10	1	-1E+10	1	-1E+10	1
4901784	15	C	12/02/2015	10:44	-130.605	45.826	0	252.30	0	6.9010	0	33.8870	0	26.559	0	250.080	0	119.9	4	40.4	4	-1E+10	1	-1E+10	1	-1E+10	1	-1E+10	1	-1E+10	1	-1E+10	1
4901784	15	C	12/02/2015	10:44	-130.605	45.826	0	254.90	0	6.8210	0	33.8910	0	26.573	0	252.656	0	119.5	4	40.2	4	-1E+10	1	-1E+10	1	-1E+10	1	-1E+10	1	-1E+10	1	-1E+10	1
4901784	15	C	12/02/2015	10:44	-130.605	45.826	0	257.50	0	6.8040	0	33.8910	0	26.575	0	255.231	0	119.0	4	40.1	4	-1E+10	1	-1E+10	1	-1E+10	1	-1E+10	1	-1E+10	1	-1E+10	1
4901784	15	C	12/02/2015	10:44	-130.605	45.826	0	260.00	0	6.7860	0	33.8920	0	26.578	0	257.708	0	118.2	4	39.7	4	-1E+10	1	-1E+10	1	-1E+10	1	-1E+10	1	-1E+10	1	-1E+10	1
4901784	15	C	12/02/2015	10:44	-130.605	45.826	0	262.70	0	6.7830	0	33.8920	0	26.579	0	260.382	0	117.1	4	39.4	4	-1E+10	1	-1E+10	1	-1E+10	1	-1E+10	1	-1E+10	1	-1E+10	1
4901784	15	C	12/02/2015	10:44	-130.605	45.826	0	265.20	0	6.7700	0	33.8920	0	26.581	0	262.858	0	116.2	4	39.1	4	-1E+10	1	-1E+10	1	-1E+10	1	-1E+10	1	-1E+10	1	-1E+10	1
4901784	15	C	12/02/2015	10:44	-130.605	45.826	0	267.70	0	6.7410	0	33.8930	0	26.585	0	265.335	0	115.1	4	38.7	4	-1E+10	1	-1E+10	1	-1E+10	1	-1E+10	1	-1E+10	1	-1E+10	1
4901784	15	C	12/02/2015	10:44	-130.605	45.826	0	270.10	0	6.6940	0	33.8950	0	26.593	0	267.712	0	113.9	4	38.2	4	-1E+10	1	-1E+10	1	-1E+10	1	-1E+10	1	-1E+10	1	-1E+10	1
4901784	15	C	12/02/2015	10:44	-130.605	45.826	0	272.70	0	6.6670	0	33.8970	0	26.598	0	270.287	0	112.8	4	37.8	4	-1E+10	1	-1E+10	1	-1E+10	1	-1E+10	1	-1E+10	1	-1E+10	1
4901784	15	C	12/02/2015	10:44	-130.605	45.826	0	275.20	0	6.6420	0	33.8970	0	26.602	0	272.764	0	111.5	4	37.4	4	-1E+10	1	-1E+10	1	-1E+10	1	-1E+10	1	-1E+10	1	-1E+10	1
4901784	15	C	12/02/2015	10:44	-130.605	45.826	0	277.60	0	6.5920	0	33.9010	0	26.611	0	275.141	0	110.2	4	36.9	4	-1E+10	1	-1E+10	1	-1E+10	1	-1E+10	1	-1E+10	1	-1E+10	1
4901784	15	C	12/02/2015	10:44	-130.605	45.826	0	280.20	0	6.5700	0	33.9010	0	26.614	0	277.716	0	109.3	4	36.6	4	-1E+10	1	-1E+10	1	-1E+10	1	-1E+10	1	-1E+10	1	-1E+10	1
4901784	15	C	12/02/2015	10:44	-130.605	45.826	0	282.70	0	6.5380	0	33.9030	0	26.620	0	280.192	0	108.2	4	36.2	4	-1E+10	1	-1E+10	1	-1E+10	1	-1E+10	1	-1E+10	1	-1E+10	1
4901784	15	C	12/02/2015	10:44	-130.605	45.826	0	285.30	0	6.5170	0	33.9030	0	26.623	0	282.767	0	107.5	4	35.9	4	-1E+10	1	-1E+10	1	-1E+10	1	-1E+10	1	-1E+10	1	-1E+10	1
4901784	15	C	12/02/2015	10:44	-130.605	45.826	0	287.90	0	6.5040	0	33.9030	0	26.625	0	285.342	0	106.7	4	35.7	4	-1E+10	1	-1E+10	1	-1E+10	1	-1E+10	1	-1E+10	1	-1E+10	1
4901784	15	C	12/02/2015	10:44	-130.605	45.826	0	290.40	0	6.4760	0	33.9040	0	26.629	0	287.818	0	106.0	4	35.4	4	-1E+10	1	-1E+10	1	-1E+10	1	-1E+10	1	-1E+10	1	-1E+10	1
4901784	15	C	12/02/2015	10:44	-130.605	45.826	0	292.20	0	6.4610	0	33.9040	0	26.631	0	289.601	0	105.5	4	35.2	4	-1E+10	1	-1E+10	1	-1E+10	1	-1E+10	1	-1E+10	1	-1E+10	1
4901784	15	C	12/02/2015	10:44	-130.605	45.826	0	294.90	0	6.4280	0	33.9040	0	26.635	0	292.275	0	104.7	4	34.9	4	-1E+10	1	-1E+10	1	-1E+10	1	-1E+10	1	-1E+10	1	-1E+10	1
4901784	15	C	12/02/2015	10:44	-130.605	45.826	0	297.50	0	6.4160	0	33.9030	0	26.636	0	294.850	0	103.5	4	34.5	4	-1E+10	1	-1E+10	1	-1E+10	1	-1E+10	1	-1E+10	1	-1E+10	1
4901784	15	C	12/02/2015	10:44	-130.605	45.826	0	300.10	0	6.3890	0	33.9030	0	26.640	0	297.425	0	101.9	4	34.0	4	-1E+10	1	-1E+10	1	-1E+10	1	-1E+10	1	-1E+10	1	-1E+10	1
4901784	15	C	12/02/2015	10:44	-130.605	45.826	0	302.60	0	6.3200	0	33.9060	0	26.651	0	299.901	0	100.2	4	33.3	4	-1E+10	1	-1E+10	1	-1E+10	1	-1E+10	1	-1E+10	1	-1E+10	1
4901784	15	C	12/02/2015	10:44	-130.605	45.826	0	305.20	0	6.2480	0	33.9100	0	26.663	0	302.476	0	98.7	4	32.8	4	-1E+10	1	-1E+10	1	-1E+10	1	-1E+10	1	-1E+10	1	-1E+10	1
4901784	15	C	12/02/2015	10:44	-130.605	45.826	0	307.90	0	6.1970	0	33.9130	0	26.672	0	305.150	0	97.7	4	32.4	4	-1E+10	1	-1E+10	1	-1E+10	1	-1E+10	1	-1E+10	1	-1E+10	1
4901784	15	C	12/02/2015	10:44	-130.605	45.826	0	309.60	0	6.1770	0	33.9130	0	26.675	0	306.834	0	97.3	4	32.3	4	-1E+10	1	-1E+10	1	-1E+10	1	-1E+10	1	-1E+10	1	-1E+10	1
4901784	15	C	12/02/2015	10:44	-130.605	45.826	0	312.30	0	6.1750	0	33.9130	0	26.675	0	309.507	0	96.3	4	32.0	4	-1E+10	1	-1E+10	1	-1E+10	1	-1E+10	1	-1E+10	1	-1E+10	1
4901784	15	C	12/02/2015	10:44	-130.605	45.826	0	314.90	0	6.1620	0	33.9130	0	26.677	0	312.082	0	95.0	4	31.5	4	-1E+10	1	-1E+10	1	-1E+10	1	-1E+10	1	-1E+10	1	-1E+10	1
4901784	15	C	12/02/2015	10:44	-130.605	45.826	0	317.60	0	6.1260	0	33.9160	0	26.684	0	314.756	0	93.7	4	31.0	4	-1E+10	1	-1E+10	1	-1E+10	1	-1E+10	1	-1E+10	1	-1E+10	1
4901784	15	C	12/02/2015	10:44	-130.605	45.826	0	320.30	0	6.1200	0	33.9160	0	26.685	0	317.430	0	92.8	4	30.7	4	-1E+10	1	-1E+10	1	-1E+10	1	-1E+10	1	-1E+10	1	-1E+10	1
4901784	15	C	12/02/2015	10:44	-130.605	45.826	0	322.20	0	6.0820	0	33.9160	0	26.689	0	319.311	0	92.2	4	30.5	4	-1E+10	1	-1E+10	1	-1E+10	1	-1E+10	1	-1E+10	1	-1E+10	1
4901784	15	C	12/02/2015	10:44	-130.605	45.826	0	324.90	0	6.0040	0	33.9170	0	26.700	0	321.985	0	91.3	4	30.2	4	-1E+10	1	-1E+10	1	-1E+10	1	-1E+10	1	-1E+10	1	-1E+10	1
4901784	15	C	12/02/2015	10:44	-130.605	45.826	0	327.70	0	5.9780	0	33.9180	0	26.704	0	324.758	0	90.0	4	29.7	4	-1E+10	1	-1E+10	1	-1E+10	1	-1E+10	1	-1E+10	1	-1E+10	1
4901784	15	C	12/02/2015	10:44	-130.605	45.826	0	329.50	0	5.9400	0	33.9200	0	26.710	0	326.540	0	89.1	4	29.4	4	-1E+10	1	-1E+10	1	-1E+10	1	-1E+10	1	-1E+10	1	-1E+10	1
4901784	15	C	12/02/2015	10:44	-130.605	45.826	0	332.30	0	5.9160	0	33.9210	0	26.714	0	329.313	0	87.8	4	28.9	4	-1E+10	1	-1E+10	1	-1E+10	1	-1E+10	1	-1E+10	1	-1E+10	1
4901784	15	C	12/02/2015	10:44	-130.605	45.826	0	335.00	0	5.9050	0	33.9230	0	26.717	0	331.986	0	86.2	4	28.4	4	-1E+10	1	-1E+10	1	-1E+10	1	-1E+10	1	-1E+10	1	-1E+10	1
4901784	15	C	12/02/2015	10:44	-130.605	45.826	0	336.80	0	5.9040	0	33.9250	0	26.719	0	333.769	0	85.0	4	28.0	4	-1E+10	1	-1E+10	1	-1E+10	1	-1E+10	1	-1E+10	1	-1E+10	1
4901784	15	C	12/02/2015	10:44	-130.605	45.826	0	339.70	0	5.9060	0	33.9280	0	26.721	0	336.640	0	83.1	4	27.4	4	-1E+10	1	-1E+10	1	-1E+10	1	-1E+10	1	-1E+10	1	-1E+10	1
4901784	15	C	12/02/2015	10:44	-130.605	45.826	0	342.50	0	5.9080	0	33.9320	0	26.724	0	339.413	0	81.2	4	26.8	4	-1E+10	1	-1E+10	1	-1E+10	1	-1E+10	1	-1E+10	1	-1E+10	1
4901784	15	C	12/02/2015	10:44	-130.605	45.826	0	344.90	0	5.9110	0	33.9350	0	26.726	0	341.789	0	79.7	4	26.3	4	-1E+10	1	-1E+10	1	-1E+10	1	-1E+10	1	-1E+10	1	-1E+10	1
4901784	15	C	12/02/2015	10:44	-130.605	45.826	0	347.30	0	5.9100	0	33.9350	0	26.726	0	344.165	0	78.2	4	25.8	4	-1E+10	1	-1E+10	1	-1E+10	1	-1E+10	1	-1E+10	1	-1E+10	1
4901784	15	C	12/02/2015	10:44	-130.605	45.826	0	349.70	0	5.8670	0	33.9370	0	26.733	0	346.542	0	76.0	4	25.0	4	-1E+10	1	-1E+10	1	-1E+10	1	-1E+10	1	-1E+10	1	-1E+10	1
4901784	15	C	12/02/2015	10:44	-130.605	45.826	0	352.90	0	5.8750	0	33.9460	0	26.739	0	349.710	0	73.6	4	24.2	4	-1E+10	1	-1E+10	1	-1E+10	1	-1E+10	1	-1E+10	1	-1E+10	1
4901784	15	C	12/02/2015	10:44	-130.605	45.826	0	355.30	0	5.8490	0	33.9450	0	26.742	0	352.086	0	72.7	4	23.9	4	-1E+10	1	-1E+10	1	-1E+10	1	-1E+10	1	-1E+10	1	-1E+10	1
4901784	15	C	12/02/2015	10:44	-130.605	45.826	0	357.80	0	5.8130	0	33.9480	0	26.749	0	354.562	0	71.4	4	23.5	4	-1E+10	1	-1E+10	1	-1E+10	1	-1E+10	1	-1E+10	1	-1E+10	1
4901784	15	C	12/02/2015	10:44	-130.605	45.826	0	360.30	0	5.7630	0	33.9520	0	26.758	0	357.037	0	70.7	4	23.2	4	-1E+10	1	-1E+10	1	-1E+10	1	-1E+10	1	-1E+10	1	-1E+10	1
4901784	15	C	12/02/2015	10:44	-130.605	45.826	0	362.80	0	5.7160	0	33.9520	0	26.764	0	359.512	0	70.8	4	23.2	4	-1E+10	1	-1E+10	1	-1E+10	1	-1E+10	1	-1E+10	1	-1E+10	1
4901784	15	C	12/02/2015	10:44	-130.605	45.826	0	365.30	0	5.7050	0	33.9500	0	26.763	0	361.987	0	70.6	4	23.2	4	-1E+10	1	-1E+10	1	-1E+10	1	-1E+10	1	-1E+10	1	-1E+10	1
4901784	15	C	12/02/2015	10:44	-130.605	45.826	0	367.90	0	5.6870	0	33.9490	0	26.765	0	364.561	0	70.1	4	23.0	4	-1E+10	1	-1E+10	1	-1E+10	1	-1E+10	1	-1E+10	1	-1E+10	1
4901784	15	C	12/02/2015	10:44	-130.605	45.826	0	370.40	0	5.6710	0	33.9480	0	26.766	0	367.036	0	69.4	4	22.8	4	-1E+10	1	-1E+10	1	-1E+10	1	-1E+10	1	-1E+10	1	-1E+10	1
4901784	15	C	12/02/2015	10:44	-130.605	45.826	0	372.10	0	5.6630	0	33.9510	0	26.769	0	368.719	0	68.8	4	22.6	4	-1E+10	1	-1E+10	1	-1E+10	1	-1E+10	1	-1E+10	1	-1E+10	1
4901784	15	C	12/02/2015	10:44	-130.605	45.826	0	374.70	0	5.6390	0	33.9520	0	26.773	0	371.294	0	68.2	4	22.4	4	-1E+10	1	-1E+10	1	-1E+10	1	-1E+10	1	-1E+10	1	-1E+10	1
4901784	15	C	12/02/2015	10:44	-130.605	45.826	0	377.20	0	5.6060	0	33.9520	0	26.777	0	373.769	0	68.0	4	22.3	4	-1E+10	1	-1E+10	1	-1E+10	1	-1E+10	1	-1E+10	1	-1E+10	1
4901784	15	C	12/02/2015	10:44	-130.605	45.826	0	379.80	0	5.5770	0	33.9520	0	26.781	0	376.343	0	67.7	4	22.1	4	-1E+10	1	-1E+10	1	-1E+10	1	-1E+10	1	-1E+10	1	-1E+10	1
4901784	15	C	12/02/2015	10:44	-130.605	45.826	0	382.30	0	5.5370	0	33.9530	0	26.786	0	378.817	0	67.2	4	22.0	4	-1E+10	1	-1E+10	1	-1E+10	1	-1E+10	1	-1E+10	1	-1E+10	1
4901784	15	C	12/02/2015	10:44	-130.605	45.826	0	384.90	0	5.5200	0	33.9540	0	26.789	0	381.391	0	67.0	4	21.9	4	-1E+10	1	-1E+10	1	-1E+10	1	-1E+10	1	-1E+10	1	-1E+10	1
4901784	15	C	12/02/2015	10:44	-130.605	45.826	0	387.40	0	5.4830	0	33.9530	0	26.793	0	383.866	0	66.8	4	21.8	4	-1E+10	1	-1E+10	1	-1E+10	1	-1E+10	1	-1E+10	1	-1E+10	1
4901784	15	C	12/02/2015	10:44	-130.605	45.826	0	390.00	0	5.4610	0	33.9530	0	26.795	0	386.440	0	66.7	4	21.8	4	-1E+10	1	-1E+10	1	-1E+10	1	-1E+10	1	-1E+10	1	-1E+10	1
4901784	15	C	12/02/2015	10:44	-130.605	45.826	0	392.60	0	5.4410	0	33.9520	0	26.797	0	389.014	0	66.3	4	21.6	4	-1E+10	1	-1E+10	1	-1E+10	1	-1E+10	1	-1E+10	1	-1E+10	1
4901784	15	C	12/02/2015	10:44	-130.605	45.826	0	395.20	0	5.4250	0	33.9520	0	26.799	0	391.588	0	65.6	4	21.4	4	-1E+10	1	-1E+10	1	-1E+10	1	-1E+10	1	-1E+10	1	-1E+10	1
4901784	15	C	12/02/2015	10:44	-130.605	45.826	0	397.70	0	5.3920	0	33.9530	0	26.804	0	394.063	0	64.7	4	21.1	4	-1E+10	1	-1E+10	1	-1E+10	1	-1E+10	1	-1E+10	1	-1E+10	1
4901784	15	C	12/02/2015	10:44	-130.605	45.826	0	400.30	0	5.3780	0	33.9550	0	26.807	0	396.636	0	63.8	4	20.8	4	-1E+10	1	-1E+10	1	-1E+10	1	-1E+10	1	-1E+10	1	-1E+10	1
4901784	15	C	12/02/2015	10:44	-130.605	45.826	0	402.80	0	5.3540	0	33.9550	0	26.810	0	399.111	0	63.0	4	20.5	4	-1E+10	1	-1E+10	1	-1E+10	1	-1E+10	1	-1E+10	1	-1E+10	1
4901784	15	C	12/02/2015	10:44	-130.605	45.826	0	404.50	0	5.3350	0	33.9560	0	26.813	0	400.794	0	62.4	4	20.3	4	-1E+10	1	-1E+10	1	-1E+10	1	-1E+10	1	-1E+10	1	-1E+10	1
4901784	15	C	12/02/2015	10:44	-130.605	45.826	0	407.20	0	5.3090	0	33.9590	0	26.818	0	403.466	0	61.6	4	20.0	4	-1E+10	1	-1E+10	1	-1E+10	1	-1E+10	1	-1E+10	1	-1E+10	1
4901784	15	C	12/02/2015	10:44	-130.605	45.826	0	409.90	0	5.2850	0	33.9610	0	26.823	0	406.139	0	60.9	4	19.8	4	-1E+10	1	-1E+10	1	-1E+10	1	-1E+10	1	-1E+10	1	-1E+10	1
4901784	15	C	12/02/2015	10:44	-130.605	45.826	0	412.50	0	5.2650	0	33.9630	0	26.826	0	408.713	0	60.1	4	19.5	4	-1E+10	1	-1E+10	1	-1E+10	1	-1E+10	1	-1E+10	1	-1E+10	1
4901784	15	C	12/02/2015	10:44	-130.605	45.826	0	415.20	0	5.2580	0	33.9660	0	26.830	0	411.385	0	59.2	4	19.2	4	-1E+10	1	-1E+10	1	-1E+10	1	-1E+10	1	-1E+10	1	-1E+10	1
4901784	15	C	12/02/2015	10:44	-130.605	45.826	0	417.00	0	5.2560	0	33.9660	0	26.830	0	413.167	0	58.6	4	19.0	4	-1E+10	1	-1E+10	1	-1E+10	1	-1E+10	1	-1E+10	1	-1E+10	1
4901784	15	C	12/02/2015	10:44	-130.605	45.826	0	419.70	0	5.2520	0	33.9680	0	26.832	0	415.839	0	57.4	4	18.6	4	-1E+10	1	-1E+10	1	-1E+10	1	-1E+10	1	-1E+10	1	-1E+10	1
4901784	15	C	12/02/2015	10:44	-130.605	45.826	0	422.40	0	5.2460	0	33.9720	0	26.836	0	418.512	0	55.9	4	18.2	4	-1E+10	1	-1E+10	1	-1E+10	1	-1E+10	1	-1E+10	1	-1E+10	1
4901784	15	C	12/02/2015	10:44	-130.605	45.826	0	425.20	0	5.2490	0	33.9780	0	26.840	0	421.283	0	54.5	4	17.7	4	-1E+10	1	-1E+10	1	-1E+10	1	-1E+10	1	-1E+10	1	-1E+10	1
4901784	15	C	12/02/2015	10:44	-130.605	45.826	0	427.90	0	5.2510	0	33.9820	0	26.843	0	423.956	0	53.6	4	17.4	4	-1E+10	1	-1E+10	1	-1E+10	1	-1E+10	1	-1E+10	1	-1E+10	1
4901784	15	C	12/02/2015	10:44	-130.605	45.826	0	429.80	0	5.2540	0	33.9880	0	26.848	0	425.836	0	53.2	4	17.3	4	-1E+10	1	-1E+10	1	-1E+10	1	-1E+10	1	-1E+10	1	-1E+10	1
4901784	15	C	12/02/2015	10:44	-130.605	45.826	0	432.50	0	5.2040	0	33.9880	0	26.854	0	428.508	0	53.6	4	17.4	4	-1E+10	1	-1E+10	1	-1E+10	1	-1E+10	1	-1E+10	1	-1E+10	1
4901784	15	C	12/02/2015	10:44	-130.605	45.826	0	435.20	0	5.1930	0	33.9840	0	26.852	0	431.181	0	53.2	4	17.3	4	-1E+10	1	-1E+10	1	-1E+10	1	-1E+10	1	-1E+10	1	-1E+10	1
4901784	15	C	12/02/2015	10:44	-130.605	45.826	0	437.00	0	5.1860	0	33.9820	0	26.851	0	432.962	0	52.7	4	17.1	4	-1E+10	1	-1E+10	1	-1E+10	1	-1E+10	1	-1E+10	1	-1E+10	1
4901784	15	C	12/02/2015	10:44	-130.605	45.826	0	439.70	0	5.1640	0	33.9910	0	26.861	0	435.634	0	52.1	4	16.9	4	-1E+10	1	-1E+10	1	-1E+10	1	-1E+10	1	-1E+10	1	-1E+10	1
4901784	15	C	12/02/2015	10:44	-130.605	45.826	0	442.50	0	5.1640	0	33.9910	0	26.861	0	438.406	0	51.8	4	16.8	4	-1E+10	1	-1E+10	1	-1E+10	1	-1E+10	1	-1E+10	1	-1E+10	1
4901784	15	C	12/02/2015	10:44	-130.605	45.826	0	445.20	0	5.1690	0	33.9920	0	26.861	0	441.078	0	51.6	4	16.7	4	-1E+10	1	-1E+10	1	-1E+10	1	-1E+10	1	-1E+10	1	-1E+10	1
4901784	15	C	12/02/2015	10:44	-130.605	45.826	0	447.90	0	5.1560	0	33.9920	0	26.862	0	443.750	0	51.6	4	16.7	4	-1E+10	1	-1E+10	1	-1E+10	1	-1E+10	1	-1E+10	1	-1E+10	1
4901784	15	C	12/02/2015	10:44	-130.605	45.826	0	449.80	0	5.1410	0	33.9910	0	26.863	0	445.630	0	51.6	4	16.7	4	-1E+10	1	-1E+10	1	-1E+10	1	-1E+10	1	-1E+10	1	-1E+10	1
4901784	15	C	12/02/2015	10:44	-130.605	45.826	0	452.50	0	5.1050	0	33.9920	0	26.868	0	448.302	0	51.3	4	16.6	4	-1E+10	1	-1E+10	1	-1E+10	1	-1E+10	1	-1E+10	1	-1E+10	1
4901784	15	C	12/02/2015	10:44	-130.605	45.826	0	455.30	0	5.0960	0	33.9930	0	26.870	0	451.073	0	50.8	4	16.5	4	-1E+10	1	-1E+10	1	-1E+10	1	-1E+10	1	-1E+10	1	-1E+10	1
4901784	15	C	12/02/2015	10:44	-130.605	45.826	0	457.10	0	5.0930	0	33.9930	0	26.871	0	452.855	0	50.5	4	16.3	4	-1E+10	1	-1E+10	1	-1E+10	1	-1E+10	1	-1E+10	1	-1E+10	1
4901784	15	C	12/02/2015	10:44	-130.605	45.826	0	459.90	0	5.0930	0	33.9960	0	26.873	0	455.625	0	49.7	4	16.1	4	-1E+10	1	-1E+10	1	-1E+10	1	-1E+10	1	-1E+10	1	-1E+10	1
4901784	15	C	12/02/2015	10:44	-130.605	45.826	0	462.70	0	5.0960	0	33.9970	0	26.873	0	458.396	0	48.9	4	15.8	4	-1E+10	1	-1E+10	1	-1E+10	1	-1E+10	1	-1E+10	1	-1E+10	1
4901784	15	C	12/02/2015	10:44	-130.605	45.826	0	464.50	0	5.0800	0	34.0000	0	26.878	0	460.178	0	48.6	4	15.7	4	-1E+10	1	-1E+10	1	-1E+10	1	-1E+10	1	-1E+10	1	-1E+10	1
4901784	15	C	12/02/2015	10:44	-130.605	45.826	0	467.30	0	5.0510	0	34.0030	0	26.883	0	462.948	0	48.3	4	15.6	4	-1E+10	1	-1E+10	1	-1E+10	1	-1E+10	1	-1E+10	1	-1E+10	1
4901784	15	C	12/02/2015	10:44	-130.605	45.826	0	470.00	0	5.0150	0	34.0020	0	26.887	0	465.620	0	47.9	4	15.5	4	-1E+10	1	-1E+10	1	-1E+10	1	-1E+10	1	-1E+10	1	-1E+10	1
4901784	15	C	12/02/2015	10:44	-130.605	45.826	0	472.80	0	5.0040	0	34.0030	0	26.889	0	468.391	0	47.0	4	15.2	4	-1E+10	1	-1E+10	1	-1E+10	1	-1E+10	1	-1E+10	1	-1E+10	1
4901784	15	C	12/02/2015	10:44	-130.605	45.826	0	475.50	0	4.9980	0	34.0050	0	26.891	0	471.063	0	45.5	4	14.7	4	-1E+10	1	-1E+10	1	-1E+10	1	-1E+10	1	-1E+10	1	-1E+10	1
4901784	15	C	12/02/2015	10:44	-130.605	45.826	0	477.30	0	5.0110	0	34.0110	0	26.894	0	472.844	0	44.1	4	14.2	4	-1E+10	1	-1E+10	1	-1E+10	1	-1E+10	1	-1E+10	1	-1E+10	1
4901784	15	C	12/02/2015	10:44	-130.605	45.826	0	480.10	0	5.0180	0	34.0170	0	26.898	0	475.615	0	42.7	4	13.8	4	-1E+10	1	-1E+10	1	-1E+10	1	-1E+10	1	-1E+10	1	-1E+10	1
4901784	15	C	12/02/2015	10:44	-130.605	45.826	0	482.90	0	5.0240	0	34.0210	0	26.901	0	478.385	0	41.4	4	13.4	4	-1E+10	1	-1E+10	1	-1E+10	1	-1E+10	1	-1E+10	1	-1E+10	1
4901784	15	C	12/02/2015	10:44	-130.605	45.826	0	484.80	0	5.0170	0	34.0230	0	26.903	0	480.265	0	40.3	4	13.0	4	-1E+10	1	-1E+10	1	-1E+10	1	-1E+10	1	-1E+10	1	-1E+10	1
4901784	15	C	12/02/2015	10:44	-130.605	45.826	0	487.60	0	5.0440	0	34.0310	0	26.907	0	483.036	0	38.7	4	12.5	4	-1E+10	1	-1E+10	1	-1E+10	1	-1E+10	1	-1E+10	1	-1E+10	1
4901784	15	C	12/02/2015	10:44	-130.605	45.826	0	490.40	0	5.0570	0	34.0360	0	26.909	0	485.806	0	38.1	4	12.3	4	-1E+10	1	-1E+10	1	-1E+10	1	-1E+10	1	-1E+10	1	-1E+10	1
4901784	15	C	12/02/2015	10:44	-130.605	45.826	0	492.20	0	5.0440	0	34.0360	0	26.911	0	487.587	0	38.1	4	12.3	4	-1E+10	1	-1E+10	1	-1E+10	1	-1E+10	1	-1E+10	1	-1E+10	1
4901784	15	C	12/02/2015	10:44	-130.605	45.826	0	495.10	0	5.0050	0	34.0370	0	26.916	0	490.457	0	38.1	4	12.3	4	-1E+10	1	-1E+10	1	-1E+10	1	-1E+10	1	-1E+10	1	-1E+10	1
4901784	15	C	12/02/2015	10:44	-130.605	45.826	0	497.90	0	4.9750	0	34.0370	0	26.919	0	493.227	0	38.1	4	12.3	4	-1E+10	1	-1E+10	1	-1E+10	1	-1E+10	1	-1E+10	1	-1E+10	1
4901784	15	C	12/02/2015	10:44	-130.605	45.826	0	499.70	0	4.9450	0	34.0380	0	26.923	0	495.008	0	38.1	4	12.3	4	-1E+10	1	-1E+10	1	-1E+10	1	-1E+10	1	-1E+10	1	-1E+10	1
4901784	15	C	12/02/2015	10:44	-130.605	45.826	0	505.50	0	4.9030	0	34.0390	0	26.929	0	500.747	0	37.3	4	12.0	4	-1E+10	1	-1E+10	1	-1E+10	1	-1E+10	1	-1E+10	1	-1E+10	1
4901784	15	C	12/02/2015	10:44	-130.605	45.826	0	510.20	0	4.9010	0	34.0460	0	26.935	0	505.397	0	35.8	4	11.5	4	-1E+10	1	-1E+10	1	-1E+10	1	-1E+10	1	-1E+10	1	-1E+10	1
4901784	15	C	12/02/2015	10:44	-130.605	45.826	0	515.10	0	4.9210	0	34.0500	0	26.936	0	510.245	0	34.3	4	11.1	4	-1E+10	1	-1E+10	1	-1E+10	1	-1E+10	1	-1E+10	1	-1E+10	1
4901784	15	C	12/02/2015	10:44	-130.605	45.826	0	520.00	0	4.9400	0	34.0560	0	26.938	0	515.092	0	33.4	4	10.8	4	-1E+10	1	-1E+10	1	-1E+10	1	-1E+10	1	-1E+10	1	-1E+10	1
4901784	15	C	12/02/2015	10:44	-130.605	45.826	0	524.80	0	4.8900	0	34.0580	0	26.946	0	519.841	0	33.5	4	10.8	4	-1E+10	1	-1E+10	1	-1E+10	1	-1E+10	1	-1E+10	1	-1E+10	1
4901784	15	C	12/02/2015	10:44	-130.605	45.826	0	529.60	0	4.8290	0	34.0570	0	26.952	0	524.590	0	33.6	4	10.8	4	-1E+10	1	-1E+10	1	-1E+10	1	-1E+10	1	-1E+10	1	-1E+10	1
4901784	15	C	12/02/2015	10:44	-130.605	45.826	0	534.50	0	4.8050	0	34.0580	0	26.955	0	529.437	0	33.7	4	10.8	4	-1E+10	1	-1E+10	1	-1E+10	1	-1E+10	1	-1E+10	1	-1E+10	1
4901784	15	C	12/02/2015	10:44	-130.605	45.826	0	540.30	0	4.7400	0	34.0560	0	26.961	0	535.175	0	33.7	4	10.8	4	-1E+10	1	-1E+10	1	-1E+10	1	-1E+10	1	-1E+10	1	-1E+10	1
4901784	15	C	12/02/2015	10:44	-130.605	45.826	0	545.20	0	4.6910	0	34.0590	0	26.969	0	540.022	0	32.3	4	10.4	4	-1E+10	1	-1E+10	1	-1E+10	1	-1E+10	1	-1E+10	1	-1E+10	1
4901784	15	C	12/02/2015	10:44	-130.605	45.826	0	550.10	0	4.6850	0	34.0670	0	26.976	0	544.869	0	30.1	4	9.7	4	-1E+10	1	-1E+10	1	-1E+10	1	-1E+10	1	-1E+10	1	-1E+10	1
4901784	15	C	12/02/2015	10:44	-130.605	45.826	0	555.70	0	4.7190	0	34.0820	0	26.984	0	550.408	0	27.0	4	8.7	4	-1E+10	1	-1E+10	1	-1E+10	1	-1E+10	1	-1E+10	1	-1E+10	1
4901784	15	C	12/02/2015	10:44	-130.605	45.826	0	560.20	0	4.7300	0	34.0920	0	26.991	0	554.859	0	25.7	4	8.3	4	-1E+10	1	-1E+10	1	-1E+10	1	-1E+10	1	-1E+10	1	-1E+10	1
4901784	15	C	12/02/2015	10:44	-130.605	45.826	0	565.10	0	4.7050	0	34.0970	0	26.998	0	559.706	0	24.7	4	7.9	4	-1E+10	1	-1E+10	1	-1E+10	1	-1E+10	1	-1E+10	1	-1E+10	1
4901784	15	C	12/02/2015	10:44	-130.605	45.826	0	570.10	0	4.6800	0	34.1070	0	27.008	0	564.652	0	23.7	4	7.6	4	-1E+10	1	-1E+10	1	-1E+10	1	-1E+10	1	-1E+10	1	-1E+10	1
4901784	15	C	12/02/2015	10:44	-130.605	45.826	0	575.20	0	4.6470	0	34.1100	0	27.014	0	569.696	0	23.8	4	7.6	4	-1E+10	1	-1E+10	1	-1E+10	1	-1E+10	1	-1E+10	1	-1E+10	1
4901784	15	C	12/02/2015	10:44	-130.605	45.826	0	580.20	0	4.6200	0	34.1080	0	27.016	0	574.641	0	24.1	4	7.7	4	-1E+10	1	-1E+10	1	-1E+10	1	-1E+10	1	-1E+10	1	-1E+10	1
4901784	15	C	12/02/2015	10:44	-130.605	45.826	0	585.30	0	4.5880	0	34.1100	0	27.021	0	579.685	0	24.1	4	7.7	4	-1E+10	1	-1E+10	1	-1E+10	1	-1E+10	1	-1E+10	1	-1E+10	1
4901784	15	C	12/02/2015	10:44	-130.605	45.826	0	590.40	0	4.5630	0	34.1090	0	27.023	0	584.729	0	24.9	4	7.9	4	-1E+10	1	-1E+10	1	-1E+10	1	-1E+10	1	-1E+10	1	-1E+10	1
4901784	15	C	12/02/2015	10:44	-130.605	45.826	0	595.50	0	4.4810	0	34.1040	0	27.028	0	589.773	0	25.3	4	8.1	4	-1E+10	1	-1E+10	1	-1E+10	1	-1E+10	1	-1E+10	1	-1E+10	1
4901784	15	C	12/02/2015	10:44	-130.605	45.826	0	600.60	0	4.4560	0	34.1050	0	27.031	0	594.816	0	25.2	4	8.1	4	-1E+10	1	-1E+10	1	-1E+10	1	-1E+10	1	-1E+10	1	-1E+10	1
4901784	15	C	12/02/2015	10:44	-130.605	45.826	0	605.70	0	4.4300	0	34.1090	0	27.037	0	599.860	0	24.7	4	7.9	4	-1E+10	1	-1E+10	1	-1E+10	1	-1E+10	1	-1E+10	1	-1E+10	1
4901784	15	C	12/02/2015	10:44	-130.605	45.826	0	609.90	0	4.4410	0	34.1140	0	27.040	0	604.013	0	24.2	4	7.7	4	-1E+10	1	-1E+10	1	-1E+10	1	-1E+10	1	-1E+10	1	-1E+10	1
4901784	15	C	12/02/2015	10:44	-130.605	45.826	0	614.20	0	4.4250	0	34.1230	0	27.049	0	608.266	0	23.2	4	7.4	4	-1E+10	1	-1E+10	1	-1E+10	1	-1E+10	1	-1E+10	1	-1E+10	1
4901784	15	C	12/02/2015	10:44	-130.605	45.826	0	619.40	0	4.4180	0	34.1290	0	27.054	0	613.408	0	22.6	4	7.2	4	-1E+10	1	-1E+10	1	-1E+10	1	-1E+10	1	-1E+10	1	-1E+10	1
4901784	15	C	12/02/2015	10:44	-130.605	45.826	0	624.70	0	4.3990	0	34.1310	0	27.058	0	618.649	0	22.0	4	7.0	4	-1E+10	1	-1E+10	1	-1E+10	1	-1E+10	1	-1E+10	1	-1E+10	1
4901784	15	C	12/02/2015	10:44	-130.605	45.826	0	630.00	0	4.3670	0	34.1320	0	27.062	0	623.889	0	21.4	4	6.8	4	-1E+10	1	-1E+10	1	-1E+10	1	-1E+10	1	-1E+10	1	-1E+10	1
4901784	15	C	12/02/2015	10:44	-130.605	45.826	0	635.30	0	4.3630	0	34.1340	0	27.064	0	629.130	0	20.9	4	6.6	4	-1E+10	1	-1E+10	1	-1E+10	1	-1E+10	1	-1E+10	1	-1E+10	1
4901784	15	C	12/02/2015	10:44	-130.605	45.826	0	640.60	0	4.3560	0	34.1380	0	27.068	0	634.370	0	20.0	4	6.4	4	-1E+10	1	-1E+10	1	-1E+10	1	-1E+10	1	-1E+10	1	-1E+10	1
4901784	15	C	12/02/2015	10:44	-130.605	45.826	0	644.90	0	4.3570	0	34.1470	0	27.075	0	638.622	0	19.4	4	6.2	4	-1E+10	1	-1E+10	1	-1E+10	1	-1E+10	1	-1E+10	1	-1E+10	1
4901784	15	C	12/02/2015	10:44	-130.605	45.826	0	649.40	0	4.3590	0	34.1480	0	27.076	0	643.071	0	19.0	4	6.1	4	-1E+10	1	-1E+10	1	-1E+10	1	-1E+10	1	-1E+10	1	-1E+10	1
4901784	15	C	12/02/2015	10:44	-130.605	45.826	0	654.80	0	4.3540	0	34.1520	0	27.080	0	648.410	0	18.5	4	5.9	4	-1E+10	1	-1E+10	1	-1E+10	1	-1E+10	1	-1E+10	1	-1E+10	1
4901784	15	C	12/02/2015	10:44	-130.605	45.826	0	660.40	0	4.3450	0	34.1570	0	27.085	0	653.947	0	17.7	4	5.6	4	-1E+10	1	-1E+10	1	-1E+10	1	-1E+10	1	-1E+10	1	-1E+10	1
4901784	15	C	12/02/2015	10:44	-130.605	45.826	0	664.90	0	4.3570	0	34.1630	0	27.088	0	658.396	0	17.0	4	5.4	4	-1E+10	1	-1E+10	1	-1E+10	1	-1E+10	1	-1E+10	1	-1E+10	1
4901784	15	C	12/02/2015	10:44	-130.605	45.826	0	669.50	0	4.3500	0	34.1690	0	27.094	0	662.943	0	16.7	4	5.3	4	-1E+10	1	-1E+10	1	-1E+10	1	-1E+10	1	-1E+10	1	-1E+10	1
4901784	15	C	12/02/2015	10:44	-130.605	45.826	0	675.00	0	4.3180	0	34.1740	0	27.101	0	668.381	0	16.4	4	5.2	4	-1E+10	1	-1E+10	1	-1E+10	1	-1E+10	1	-1E+10	1	-1E+10	1
4901784	15	C	12/02/2015	10:44	-130.605	45.826	0	679.60	0	4.3080	0	34.1780	0	27.106	0	672.928	0	16.2	4	5.1	4	-1E+10	1	-1E+10	1	-1E+10	1	-1E+10	1	-1E+10	1	-1E+10	1
4901784	15	C	12/02/2015	10:44	-130.605	45.826	0	684.20	0	4.2870	0	34.1800	0	27.109	0	677.476	0	16.0	4	5.1	4	-1E+10	1	-1E+10	1	-1E+10	1	-1E+10	1	-1E+10	1	-1E+10	1
4901784	15	C	12/02/2015	10:44	-130.605	45.826	0	689.60	0	4.2580	0	34.1840	0	27.116	0	682.814	0	15.9	4	5.0	4	-1E+10	1	-1E+10	1	-1E+10	1	-1E+10	1	-1E+10	1	-1E+10	1
4901784	15	C	12/02/2015	10:44	-130.605	45.826	0	694.40	0	4.2340	0	34.1850	0	27.119	0	687.559	0	15.8	4	5.0	4	-1E+10	1	-1E+10	1	-1E+10	1	-1E+10	1	-1E+10	1	-1E+10	1
4901784	15	C	12/02/2015	10:44	-130.605	45.826	0	700.10	0	4.2010	0	34.1890	0	27.126	0	693.193	0	15.6	4	4.9	4	-1E+10	1	-1E+10	1	-1E+10	1	-1E+10	1	-1E+10	1	-1E+10	1
4901784	15	C	12/02/2015	10:44	-130.605	45.826	0	705.80	0	4.1850	0	34.1930	0	27.131	0	698.827	0	15.4	4	4.9	4	-1E+10	1	-1E+10	1	-1E+10	1	-1E+10	1	-1E+10	1	-1E+10	1
4901784	15	C	12/02/2015	10:44	-130.605	45.826	0	710.70	0	4.1770	0	34.1960	0	27.134	0	703.670	0	15.2	4	4.8	4	-1E+10	1	-1E+10	1	-1E+10	1	-1E+10	1	-1E+10	1	-1E+10	1
4901784	15	C	12/02/2015	10:44	-130.605	45.826	0	715.60	0	4.1620	0	34.1980	0	27.137	0	708.514	0	15.1	4	4.8	4	-1E+10	1	-1E+10	1	-1E+10	1	-1E+10	1	-1E+10	1	-1E+10	1
4901784	15	C	12/02/2015	10:44	-130.605	45.826	0	720.60	0	4.1570	0	34.2000	0	27.139	0	713.456	0	15.0	4	4.7	4	-1E+10	1	-1E+10	1	-1E+10	1	-1E+10	1	-1E+10	1	-1E+10	1
4901784	15	C	12/02/2015	10:44	-130.605	45.826	0	725.60	0	4.1490	0	34.2020	0	27.142	0	718.397	0	14.8	4	4.7	4	-1E+10	1	-1E+10	1	-1E+10	1	-1E+10	1	-1E+10	1	-1E+10	1
4901784	15	C	12/02/2015	10:44	-130.605	45.826	0	730.60	0	4.1410	0	34.2040	0	27.144	0	723.339	0	14.6	4	4.6	4	-1E+10	1	-1E+10	1	-1E+10	1	-1E+10	1	-1E+10	1	-1E+10	1
4901784	15	C	12/02/2015	10:44	-130.605	45.826	0	735.60	0	4.1490	0	34.2090	0	27.147	0	728.281	0	14.1	4	4.5	4	-1E+10	1	-1E+10	1	-1E+10	1	-1E+10	1	-1E+10	1	-1E+10	1
4901784	15	C	12/02/2015	10:44	-130.605	45.826	0	740.60	0	4.1430	0	34.2150	0	27.153	0	733.222	0	13.8	4	4.4	4	-1E+10	1	-1E+10	1	-1E+10	1	-1E+10	1	-1E+10	1	-1E+10	1
4901784	15	C	12/02/2015	10:44	-130.605	45.826	0	745.60	0	4.1400	0	34.2200	0	27.157	0	738.163	0	13.6	4	4.3	4	-1E+10	1	-1E+10	1	-1E+10	1	-1E+10	1	-1E+10	1	-1E+10	1
4901784	15	C	12/02/2015	10:44	-130.605	45.826	0	750.50	0	4.1220	0	34.2220	0	27.161	0	743.006	0	13.6	4	4.3	4	-1E+10	1	-1E+10	1	-1E+10	1	-1E+10	1	-1E+10	1	-1E+10	1
4901784	15	C	12/02/2015	10:44	-130.605	45.826	0	755.50	0	4.0880	0	34.2260	0	27.167	0	747.947	0	13.5	4	4.3	4	-1E+10	1	-1E+10	1	-1E+10	1	-1E+10	1	-1E+10	1	-1E+10	1
4901784	15	C	12/02/2015	10:44	-130.605	45.826	0	760.60	0	4.0700	0	34.2290	0	27.172	0	752.987	0	13.5	4	4.3	4	-1E+10	1	-1E+10	1	-1E+10	1	-1E+10	1	-1E+10	1	-1E+10	1
4901784	15	C	12/02/2015	10:44	-130.605	45.826	0	765.70	0	4.0620	0	34.2300	0	27.173	0	758.027	0	13.4	4	4.2	4	-1E+10	1	-1E+10	1	-1E+10	1	-1E+10	1	-1E+10	1	-1E+10	1
4901784	15	C	12/02/2015	10:44	-130.605	45.826	0	770.70	0	4.0560	0	34.2310	0	27.175	0	762.967	0	13.4	4	4.2	4	-1E+10	1	-1E+10	1	-1E+10	1	-1E+10	1	-1E+10	1	-1E+10	1
4901784	15	C	12/02/2015	10:44	-130.605	45.826	0	775.70	0	4.0190	0	34.2300	0	27.178	0	767.908	0	13.3	4	4.2	4	-1E+10	1	-1E+10	1	-1E+10	1	-1E+10	1	-1E+10	1	-1E+10	1
4901784	15	C	12/02/2015	10:44	-130.605	45.826	0	780.70	0	4.0120	0	34.2340	0	27.182	0	772.848	0	13.1	4	4.1	4	-1E+10	1	-1E+10	1	-1E+10	1	-1E+10	1	-1E+10	1	-1E+10	1
4901784	15	C	12/02/2015	10:44	-130.605	45.826	0	785.60	0	4.0110	0	34.2420	0	27.188	0	777.690	0	12.7	4	4.0	4	-1E+10	1	-1E+10	1	-1E+10	1	-1E+10	1	-1E+10	1	-1E+10	1
4901784	15	C	12/02/2015	10:44	-130.605	45.826	0	790.60	0	3.9970	0	34.2500	0	27.196	0	782.630	0	12.5	4	4.0	4	-1E+10	1	-1E+10	1	-1E+10	1	-1E+10	1	-1E+10	1	-1E+10	1
4901784	15	C	12/02/2015	10:44	-130.605	45.826	0	795.70	0	3.9830	0	34.2500	0	27.197	0	787.669	0	12.5	4	3.9	4	-1E+10	1	-1E+10	1	-1E+10	1	-1E+10	1	-1E+10	1	-1E+10	1
4901784	15	C	12/02/2015	10:44	-130.605	45.826	0	800.70	0	3.9540	0	34.2540	0	27.204	0	792.609	0	12.5	4	3.9	4	-1E+10	1	-1E+10	1	-1E+10	1	-1E+10	1	-1E+10	1	-1E+10	1
4901784	15	C	12/02/2015	10:44	-130.605	45.826	0	804.90	0	3.9360	0	34.2570	0	27.208	0	796.759	0	12.4	4	3.9	4	-1E+10	1	-1E+10	1	-1E+10	1	-1E+10	1	-1E+10	1	-1E+10	1
4901784	15	C	12/02/2015	10:44	-130.605	45.826	0	809.30	0	3.9140	0	34.2600	0	27.212	0	801.106	0	12.4	4	3.9	4	-1E+10	1	-1E+10	1	-1E+10	1	-1E+10	1	-1E+10	1	-1E+10	1
4901784	15	C	12/02/2015	10:44	-130.605	45.826	0	814.50	0	3.8960	0	34.2620	0	27.216	0	806.243	0	12.4	4	3.9	4	-1E+10	1	-1E+10	1	-1E+10	1	-1E+10	1	-1E+10	1	-1E+10	1
4901784	15	C	12/02/2015	10:44	-130.605	45.826	0	819.70	0	3.8690	0	34.2640	0	27.220	0	811.381	0	12.4	4	3.9	4	-1E+10	1	-1E+10	1	-1E+10	1	-1E+10	1	-1E+10	1	-1E+10	1
4901784	15	C	12/02/2015	10:44	-130.605	45.826	0	825.10	0	3.8590	0	34.2670	0	27.224	0	816.715	0	12.3	4	3.9	4	-1E+10	1	-1E+10	1	-1E+10	1	-1E+10	1	-1E+10	1	-1E+10	1
4901784	15	C	12/02/2015	10:44	-130.605	45.826	0	830.50	0	3.8570	0	34.2700	0	27.226	0	822.050	0	12.2	4	3.9	4	-1E+10	1	-1E+10	1	-1E+10	1	-1E+10	1	-1E+10	1	-1E+10	1
4901784	15	C	12/02/2015	10:44	-130.605	45.826	0	835.10	0	3.8430	0	34.2720	0	27.229	0	826.594	0	12.3	4	3.9	4	-1E+10	1	-1E+10	1	-1E+10	1	-1E+10	1	-1E+10	1	-1E+10	1
4901784	15	C	12/02/2015	10:44	-130.605	45.826	0	839.70	0	3.8300	0	34.2710	0	27.230	0	831.138	0	12.4	4	3.9	4	-1E+10	1	-1E+10	1	-1E+10	1	-1E+10	1	-1E+10	1	-1E+10	1
4901784	15	C	12/02/2015	10:44	-130.605	45.826	0	845.20	0	3.7860	0	34.2680	0	27.232	0	836.571	0	12.6	4	4.0	4	-1E+10	1	-1E+10	1	-1E+10	1	-1E+10	1	-1E+10	1	-1E+10	1
4901784	15	C	12/02/2015	10:44	-130.605	45.826	0	850.00	0	3.7540	0	34.2680	0	27.235	0	841.312	0	12.6	4	4.0	4	-1E+10	1	-1E+10	1	-1E+10	1	-1E+10	1	-1E+10	1	-1E+10	1
4901784	15	C	12/02/2015	10:44	-130.605	45.826	0	855.40	0	3.7170	0	34.2740	0	27.243	0	846.646	0	12.5	4	3.9	4	-1E+10	1	-1E+10	1	-1E+10	1	-1E+10	1	-1E+10	1	-1E+10	1
4901784	15	C	12/02/2015	10:44	-130.605	45.826	0	860.50	0	3.6790	0	34.2800	0	27.252	0	851.683	0	12.5	4	3.9	4	-1E+10	1	-1E+10	1	-1E+10	1	-1E+10	1	-1E+10	1	-1E+10	1
4901784	15	C	12/02/2015	10:44	-130.605	45.826	0	865.30	0	3.6750	0	34.2810	0	27.253	0	856.424	0	12.5	4	3.9	4	-1E+10	1	-1E+10	1	-1E+10	1	-1E+10	1	-1E+10	1	-1E+10	1
4901784	15	C	12/02/2015	10:44	-130.605	45.826	0	870.20	0	3.6640	0	34.2820	0	27.255	0	861.264	0	12.5	4	3.9	4	-1E+10	1	-1E+10	1	-1E+10	1	-1E+10	1	-1E+10	1	-1E+10	1
4901784	15	C	12/02/2015	10:44	-130.605	45.826	0	875.00	0	3.6510	0	34.2820	0	27.256	0	866.005	0	12.5	4	3.9	4	-1E+10	1	-1E+10	1	-1E+10	1	-1E+10	1	-1E+10	1	-1E+10	1
4901784	15	C	12/02/2015	10:44	-130.605	45.826	0	880.00	0	3.6270	0	34.2860	0	27.262	0	870.943	0	12.5	4	3.9	4	-1E+10	1	-1E+10	1	-1E+10	1	-1E+10	1	-1E+10	1	-1E+10	1
4901784	15	C	12/02/2015	10:44	-130.605	45.826	0	885.00	0	3.6210	0	34.2860	0	27.263	0	875.881	0	12.5	4	3.9	4	-1E+10	1	-1E+10	1	-1E+10	1	-1E+10	1	-1E+10	1	-1E+10	1
4901784	15	C	12/02/2015	10:44	-130.605	45.826	0	890.00	0	3.6080	0	34.2870	0	27.265	0	880.819	0	12.5	4	3.9	4	-1E+10	1	-1E+10	1	-1E+10	1	-1E+10	1	-1E+10	1	-1E+10	1
4901784	15	C	12/02/2015	10:44	-130.605	45.826	0	895.10	0	3.5920	0	34.2890	0	27.268	0	885.856	0	12.5	4	3.9	4	-1E+10	1	-1E+10	1	-1E+10	1	-1E+10	1	-1E+10	1	-1E+10	1
4901784	15	C	12/02/2015	10:44	-130.605	45.826	0	900.10	0	3.5740	0	34.2910	0	27.271	0	890.793	0	12.5	4	3.9	4	-1E+10	1	-1E+10	1	-1E+10	1	-1E+10	1	-1E+10	1	-1E+10	1
4901784	15	C	12/02/2015	10:44	-130.605	45.826	0	905.20	0	3.5580	0	34.2940	0	27.275	0	895.830	0	12.5	4	3.9	4	-1E+10	1	-1E+10	1	-1E+10	1	-1E+10	1	-1E+10	1	-1E+10	1
4901784	15	C	12/02/2015	10:44	-130.605	45.826	0	910.30	0	3.5520	0	34.2960	0	27.277	0	900.866	0	12.4	4	3.9	4	-1E+10	1	-1E+10	1	-1E+10	1	-1E+10	1	-1E+10	1	-1E+10	1
4901784	15	C	12/02/2015	10:44	-130.605	45.826	0	915.50	0	3.5480	0	34.2970	0	27.279	0	906.001	0	12.4	4	3.9	4	-1E+10	1	-1E+10	1	-1E+10	1	-1E+10	1	-1E+10	1	-1E+10	1
4901784	15	C	12/02/2015	10:44	-130.605	45.826	0	919.90	0	3.5470	0	34.2970	0	27.279	0	910.346	0	12.4	4	3.9	4	-1E+10	1	-1E+10	1	-1E+10	1	-1E+10	1	-1E+10	1	-1E+10	1
4901784	15	C	12/02/2015	10:44	-130.605	45.826	0	924.30	0	3.5340	0	34.2980	0	27.281	0	914.690	0	12.4	4	3.9	4	-1E+10	1	-1E+10	1	-1E+10	1	-1E+10	1	-1E+10	1	-1E+10	1
4901784	15	C	12/02/2015	10:44	-130.605	45.826	0	929.50	0	3.5290	0	34.3000	0	27.283	0	919.825	0	12.4	4	3.9	4	-1E+10	1	-1E+10	1	-1E+10	1	-1E+10	1	-1E+10	1	-1E+10	1
4901784	15	C	12/02/2015	10:44	-130.605	45.826	0	934.80	0	3.5200	0	34.3040	0	27.287	0	925.058	0	12.2	4	3.8	4	-1E+10	1	-1E+10	1	-1E+10	1	-1E+10	1	-1E+10	1	-1E+10	1
4901784	15	C	12/02/2015	10:44	-130.605	45.826	0	940.30	0	3.5150	0	34.3070	0	27.290	0	930.488	0	12.2	4	3.8	4	-1E+10	1	-1E+10	1	-1E+10	1	-1E+10	1	-1E+10	1	-1E+10	1
4901784	15	C	12/02/2015	10:44	-130.605	45.826	0	945.70	0	3.5000	0	34.3090	0	27.293	0	935.820	0	12.2	4	3.8	4	-1E+10	1	-1E+10	1	-1E+10	1	-1E+10	1	-1E+10	1	-1E+10	1
4901784	15	C	12/02/2015	10:44	-130.605	45.826	0	950.20	0	3.4730	0	34.3120	0	27.298	0	940.263	0	12.1	4	3.8	4	-1E+10	1	-1E+10	1	-1E+10	1	-1E+10	1	-1E+10	1	-1E+10	1
4901784	15	C	12/02/2015	10:44	-130.605	45.826	0	954.80	0	3.4860	0	34.3150	0	27.299	0	944.804	0	12.1	4	3.8	4	-1E+10	1	-1E+10	1	-1E+10	1	-1E+10	1	-1E+10	1	-1E+10	1
4901784	15	C	12/02/2015	10:44	-130.605	45.826	0	960.30	0	3.4750	0	34.3160	0	27.301	0	950.234	0	12.1	4	3.8	4	-1E+10	1	-1E+10	1	-1E+10	1	-1E+10	1	-1E+10	1	-1E+10	1
4901784	15	C	12/02/2015	10:44	-130.605	45.826	0	965.70	0	3.4580	0	34.3160	0	27.303	0	955.565	0	12.1	4	3.8	4	-1E+10	1	-1E+10	1	-1E+10	1	-1E+10	1	-1E+10	1	-1E+10	1
4901784	15	C	12/02/2015	10:44	-130.605	45.826	0	970.10	0	3.4460	0	34.3190	0	27.306	0	959.909	0	12.1	4	3.8	4	-1E+10	1	-1E+10	1	-1E+10	1	-1E+10	1	-1E+10	1	-1E+10	1
4901784	15	C	12/02/2015	10:44	-130.605	45.826	0	974.70	0	3.4260	0	34.3230	0	27.311	0	964.450	0	12.0	4	3.7	4	-1E+10	1	-1E+10	1	-1E+10	1	-1E+10	1	-1E+10	1	-1E+10	1
4901784	15	C	12/02/2015	10:44	-130.605	45.826	0	980.10	0	3.4170	0	34.3250	0	27.314	0	969.781	0	12.0	4	3.7	4	-1E+10	1	-1E+10	1	-1E+10	1	-1E+10	1	-1E+10	1	-1E+10	1
4901784	15	C	12/02/2015	10:44	-130.605	45.826	0	985.60	0	3.4090	0	34.3270	0	27.316	0	975.210	0	12.0	4	3.7	4	-1E+10	1	-1E+10	1	-1E+10	1	-1E+10	1	-1E+10	1	-1E+10	1
4901784	15	C	12/02/2015	10:44	-130.605	45.826	0	990.20	0	3.4030	0	34.3310	0	27.320	0	979.751	0	11.9	4	3.7	4	-1E+10	1	-1E+10	1	-1E+10	1	-1E+10	1	-1E+10	1	-1E+10	1
4901784	15	C	12/02/2015	10:44	-130.605	45.826	0	994.80	0	3.3920	0	34.3350	0	27.324	0	984.292	0	11.8	4	3.7	4	-1E+10	1	-1E+10	1	-1E+10	1	-1E+10	1	-1E+10	1	-1E+10	1
4901784	15	C	12/02/2015	10:44	-130.605	45.826	0	1000.40	0	3.3870	0	34.3400	0	27.329	0	989.819	0	11.8	4	3.7	4	-1E+10	1	-1E+10	1	-1E+10	1	-1E+10	1	-1E+10	1	-1E+10	1
4901784	15	C	12/02/2015	10:44	-130.605	45.826	0	1005.00	0	3.3830	0	34.3430	0	27.332	0	994.360	0	11.8	4	3.7	4	-1E+10	1	-1E+10	1	-1E+10	1	-1E+10	1	-1E+10	1	-1E+10	1
4901784	15	C	12/02/2015	10:44	-130.605	45.826	0	1009.70	0	3.3830	0	34.3480	0	27.336	0	998.999	0	11.7	4	3.7	4	-1E+10	1	-1E+10	1	-1E+10	1	-1E+10	1	-1E+10	1	-1E+10	1
4901784	15	C	12/02/2015	10:44	-130.605	45.826	0	1015.00	0	3.3800	0	34.3530	0	27.340	0	1004.230	0	11.7	4	3.7	4	-1E+10	1	-1E+10	1	-1E+10	1	-1E+10	1	-1E+10	1	-1E+10	1
4901784	15	C	12/02/2015	10:44	-130.605	45.826	0	1019.30	0	3.3640	0	34.3560	0	27.344	0	1008.474	0	11.8	4	3.7	4	-1E+10	1	-1E+10	1	-1E+10	1	-1E+10	1	-1E+10	1	-1E+10	1
4901784	15	C	12/02/2015	10:44	-130.605	45.826	0	1024.90	0	3.3600	0	34.3570	0	27.345	0	1014.001	0	11.8	4	3.7	4	-1E+10	1	-1E+10	1	-1E+10	1	-1E+10	1	-1E+10	1	-1E+10	1
4901784	15	C	12/02/2015	10:44	-130.605	45.826	0	1030.50	0	3.3520	0	34.3620	0	27.350	0	1019.528	0	11.8	4	3.7	4	-1E+10	1	-1E+10	1	-1E+10	1	-1E+10	1	-1E+10	1	-1E+10	1
4901784	15	C	12/02/2015	10:44	-130.605	45.826	0	1035.40	0	3.3420	0	34.3650	0	27.353	0	1024.364	0	11.8	4	3.7	4	-1E+10	1	-1E+10	1	-1E+10	1	-1E+10	1	-1E+10	1	-1E+10	1
4901784	15	C	12/02/2015	10:44	-130.605	45.826	0	1040.20	0	3.3250	0	34.3660	0	27.356	0	1029.101	0	11.9	4	3.7	4	-1E+10	1	-1E+10	1	-1E+10	1	-1E+10	1	-1E+10	1	-1E+10	1
4901784	15	C	12/02/2015	10:44	-130.605	45.826	0	1045.10	0	3.3200	0	34.3670	0	27.357	0	1033.936	0	11.9	4	3.7	4	-1E+10	1	-1E+10	1	-1E+10	1	-1E+10	1	-1E+10	1	-1E+10	1
4901784	15	C	12/02/2015	10:44	-130.605	45.826	0	1050.10	0	3.3210	0	34.3690	0	27.359	0	1038.870	0	11.9	4	3.7	4	-1E+10	1	-1E+10	1	-1E+10	1	-1E+10	1	-1E+10	1	-1E+10	1
4901784	15	C	12/02/2015	10:44	-130.605	45.826	0	1055.10	0	3.3160	0	34.3730	0	27.362	0	1043.805	0	12.0	4	3.7	4	-1E+10	1	-1E+10	1	-1E+10	1	-1E+10	1	-1E+10	1	-1E+10	1
4901784	15	C	12/02/2015	10:44	-130.605	45.826	0	1060.20	0	3.3100	0	34.3760	0	27.365	0	1048.837	0	12.0	4	3.7	4	-1E+10	1	-1E+10	1	-1E+10	1	-1E+10	1	-1E+10	1	-1E+10	1
4901784	15	C	12/02/2015	10:44	-130.605	45.826	0	1065.30	0	3.2940	0	34.3770	0	27.368	0	1053.870	0	12.1	4	3.8	4	-1E+10	1	-1E+10	1	-1E+10	1	-1E+10	1	-1E+10	1	-1E+10	1
4901784	15	C	12/02/2015	10:44	-130.605	45.826	0	1070.30	0	3.2680	0	34.3800	0	27.372	0	1058.804	0	12.1	4	3.8	4	-1E+10	1	-1E+10	1	-1E+10	1	-1E+10	1	-1E+10	1	-1E+10	1
4901784	15	C	12/02/2015	10:44	-130.605	45.826	0	1075.40	0	3.2630	0	34.3810	0	27.374	0	1063.836	0	12.2	4	3.8	4	-1E+10	1	-1E+10	1	-1E+10	1	-1E+10	1	-1E+10	1	-1E+10	1
4901784	15	C	12/02/2015	10:44	-130.605	45.826	0	1080.50	0	3.2430	0	34.3820	0	27.376	0	1068.868	0	12.2	4	3.8	4	-1E+10	1	-1E+10	1	-1E+10	1	-1E+10	1	-1E+10	1	-1E+10	1
4901784	15	C	12/02/2015	10:44	-130.605	45.826	0	1085.60	0	3.2240	0	34.3830	0	27.379	0	1073.900	0	12.3	4	3.8	4	-1E+10	1	-1E+10	1	-1E+10	1	-1E+10	1	-1E+10	1	-1E+10	1
4901784	15	C	12/02/2015	10:44	-130.605	45.826	0	1090.70	0	3.2130	0	34.3850	0	27.382	0	1078.932	0	12.4	4	3.8	4	-1E+10	1	-1E+10	1	-1E+10	1	-1E+10	1	-1E+10	1	-1E+10	1
4901784	15	C	12/02/2015	10:44	-130.605	45.826	0	1095.40	0	3.2100	0	34.3860	0	27.383	0	1083.569	0	12.4	4	3.8	4	-1E+10	1	-1E+10	1	-1E+10	1	-1E+10	1	-1E+10	1	-1E+10	1
4901784	15	C	12/02/2015	10:44	-130.605	45.826	0	1099.90	0	3.2060	0	34.3870	0	27.384	0	1088.009	0	12.4	4	3.9	4	-1E+10	1	-1E+10	1	-1E+10	1	-1E+10	1	-1E+10	1	-1E+10	1
4901784	15	C	12/02/2015	10:44	-130.605	45.826	0	1105.20	0	3.1980	0	34.3870	0	27.385	0	1093.238	0	12.5	4	3.9	4	-1E+10	1	-1E+10	1	-1E+10	1	-1E+10	1	-1E+10	1	-1E+10	1
4901784	15	C	12/02/2015	10:44	-130.605	45.826	0	1110.10	0	3.1860	0	34.3880	0	27.387	0	1098.072	0	12.5	4	3.9	4	-1E+10	1	-1E+10	1	-1E+10	1	-1E+10	1	-1E+10	1	-1E+10	1
4901784	15	C	12/02/2015	10:44	-130.605	45.826	0	1115.00	0	3.1710	0	34.3900	0	27.390	0	1102.906	0	12.6	4	3.9	4	-1E+10	1	-1E+10	1	-1E+10	1	-1E+10	1	-1E+10	1	-1E+10	1
4901784	15	C	12/02/2015	10:44	-130.605	45.826	0	1120.00	0	3.1560	0	34.3930	0	27.393	0	1107.839	0	12.7	4	3.9	4	-1E+10	1	-1E+10	1	-1E+10	1	-1E+10	1	-1E+10	1	-1E+10	1
4901784	15	C	12/02/2015	10:44	-130.605	45.826	0	1125.00	0	3.1440	0	34.3940	0	27.395	0	1112.771	0	12.8	4	4.0	4	-1E+10	1	-1E+10	1	-1E+10	1	-1E+10	1	-1E+10	1	-1E+10	1
4901784	15	C	12/02/2015	10:44	-130.605	45.826	0	1130.00	0	3.1320	0	34.3960	0	27.398	0	1117.703	0	12.9	4	4.0	4	-1E+10	1	-1E+10	1	-1E+10	1	-1E+10	1	-1E+10	1	-1E+10	1
4901784	15	C	12/02/2015	10:44	-130.605	45.826	0	1135.10	0	3.1200	0	34.3970	0	27.400	0	1122.734	0	12.9	4	4.0	4	-1E+10	1	-1E+10	1	-1E+10	1	-1E+10	1	-1E+10	1	-1E+10	1
4901784	15	C	12/02/2015	10:44	-130.605	45.826	0	1140.20	0	3.1060	0	34.3980	0	27.402	0	1127.765	0	13.0	4	4.0	4	-1E+10	1	-1E+10	1	-1E+10	1	-1E+10	1	-1E+10	1	-1E+10	1
4901784	15	C	12/02/2015	10:44	-130.605	45.826	0	1145.40	0	3.0900	0	34.4010	0	27.406	0	1132.894	0	13.2	4	4.1	4	-1E+10	1	-1E+10	1	-1E+10	1	-1E+10	1	-1E+10	1	-1E+10	1
4901784	15	C	12/02/2015	10:44	-130.605	45.826	0	1150.70	0	3.0780	0	34.4050	0	27.410	0	1138.122	0	13.3	4	4.1	4	-1E+10	1	-1E+10	1	-1E+10	1	-1E+10	1	-1E+10	1	-1E+10	1
4901784	15	C	12/02/2015	10:44	-130.605	45.826	0	1155.00	0	3.0750	0	34.4060	0	27.411	0	1142.363	0	13.3	4	4.1	4	-1E+10	1	-1E+10	1	-1E+10	1	-1E+10	1	-1E+10	1	-1E+10	1
4901784	15	C	12/02/2015	10:44	-130.605	45.826	0	1159.40	0	3.0650	0	34.4060	0	27.412	0	1146.703	0	13.4	4	4.1	4	-1E+10	1	-1E+10	1	-1E+10	1	-1E+10	1	-1E+10	1	-1E+10	1
4901784	15	C	12/02/2015	10:44	-130.605	45.826	0	1164.70	0	3.0500	0	34.4080	0	27.415	0	1151.931	0	13.6	4	4.2	4	-1E+10	1	-1E+10	1	-1E+10	1	-1E+10	1	-1E+10	1	-1E+10	1
4901784	15	C	12/02/2015	10:44	-130.605	45.826	0	1170.10	0	3.0370	0	34.4130	0	27.421	0	1157.257	0	13.8	4	4.3	4	-1E+10	1	-1E+10	1	-1E+10	1	-1E+10	1	-1E+10	1	-1E+10	1
4901784	15	C	12/02/2015	10:44	-130.605	45.826	0	1175.60	0	3.0350	0	34.4140	0	27.422	0	1162.681	0	13.8	4	4.3	4	-1E+10	1	-1E+10	1	-1E+10	1	-1E+10	1	-1E+10	1	-1E+10	1
4901784	15	C	12/02/2015	10:44	-130.605	45.826	0	1180.10	0	3.0310	0	34.4140	0	27.422	0	1167.119	0	13.8	4	4.3	4	-1E+10	1	-1E+10	1	-1E+10	1	-1E+10	1	-1E+10	1	-1E+10	1
4901784	15	C	12/02/2015	10:44	-130.605	45.826	0	1184.60	0	3.0290	0	34.4140	0	27.422	0	1171.557	0	13.9	4	4.3	4	-1E+10	1	-1E+10	1	-1E+10	1	-1E+10	1	-1E+10	1	-1E+10	1
4901784	15	C	12/02/2015	10:44	-130.605	45.826	0	1190.10	0	3.0260	0	34.4170	0	27.425	0	1176.981	0	14.1	4	4.4	4	-1E+10	1	-1E+10	1	-1E+10	1	-1E+10	1	-1E+10	1	-1E+10	1
4901784	15	C	12/02/2015	10:44	-130.605	45.826	0	1195.50	0	3.0200	0	34.4200	0	27.428	0	1182.306	0	14.3	4	4.4	4	-1E+10	1	-1E+10	1	-1E+10	1	-1E+10	1	-1E+10	1	-1E+10	1
4901784	15	C	12/02/2015	10:44	-130.605	45.826	0	1200.10	0	3.0130	0	34.4220	0	27.430	0	1186.843	0	14.5	4	4.5	4	-1E+10	1	-1E+10	1	-1E+10	1	-1E+10	1	-1E+10	1	-1E+10	1
4901784	15	C	12/02/2015	10:44	-130.605	45.826	0	1204.70	0	2.9980	0	34.4250	0	27.434	0	1191.379	0	14.6	4	4.5	4	-1E+10	1	-1E+10	1	-1E+10	1	-1E+10	1	-1E+10	1	-1E+10	1
4901784	15	C	12/02/2015	10:44	-130.605	45.826	0	1210.20	0	2.9890	0	34.4260	0	27.436	0	1196.802	0	14.8	4	4.6	4	-1E+10	1	-1E+10	1	-1E+10	1	-1E+10	1	-1E+10	1	-1E+10	1
4901784	15	C	12/02/2015	10:44	-130.605	45.826	0	1214.80	0	2.9770	0	34.4270	0	27.437	0	1201.338	0	15.0	4	4.6	4	-1E+10	1	-1E+10	1	-1E+10	1	-1E+10	1	-1E+10	1	-1E+10	1
4901784	15	C	12/02/2015	10:44	-130.605	45.826	0	1219.40	0	2.9620	0	34.4300	0	27.441	0	1205.874	0	15.1	4	4.7	4	-1E+10	1	-1E+10	1	-1E+10	1	-1E+10	1	-1E+10	1	-1E+10	1
4901784	15	C	12/02/2015	10:44	-130.605	45.826	0	1224.50	0	2.9520	0	34.4320	0	27.444	0	1210.903	0	15.3	4	4.7	4	-1E+10	1	-1E+10	1	-1E+10	1	-1E+10	1	-1E+10	1	-1E+10	1
4901784	15	C	12/02/2015	10:44	-130.605	45.826	0	1229.80	0	2.9450	0	34.4340	0	27.446	0	1216.129	0	15.4	4	4.7	4	-1E+10	1	-1E+10	1	-1E+10	1	-1E+10	1	-1E+10	1	-1E+10	1
4901784	15	C	12/02/2015	10:44	-130.605	45.826	0	1235.00	0	2.9400	0	34.4350	0	27.447	0	1221.256	0	15.4	4	4.8	4	-1E+10	1	-1E+10	1	-1E+10	1	-1E+10	1	-1E+10	1	-1E+10	1
4901784	15	C	12/02/2015	10:44	-130.605	45.826	0	1240.10	0	2.9370	0	34.4350	0	27.448	0	1226.284	0	15.5	4	4.8	4	-1E+10	1	-1E+10	1	-1E+10	1	-1E+10	1	-1E+10	1	-1E+10	1
4901784	15	C	12/02/2015	10:44	-130.605	45.826	0	1245.20	0	2.9330	0	34.4360	0	27.449	0	1231.313	0	15.6	4	4.8	4	-1E+10	1	-1E+10	1	-1E+10	1	-1E+10	1	-1E+10	1	-1E+10	1
4901784	15	C	12/02/2015	10:44	-130.605	45.826	0	1250.30	0	2.9290	0	34.4370	0	27.450	0	1236.341	0	15.7	4	4.8	4	-1E+10	1	-1E+10	1	-1E+10	1	-1E+10	1	-1E+10	1	-1E+10	1
4901784	15	C	12/02/2015	10:44	-130.605	45.826	0	1255.40	0	2.9260	0	34.4370	0	27.450	0	1241.369	0	15.8	4	4.9	4	-1E+10	1	-1E+10	1	-1E+10	1	-1E+10	1	-1E+10	1	-1E+10	1
4901784	15	C	12/02/2015	10:44	-130.605	45.826	0	1260.50	0	2.9200	0	34.4380	0	27.452	0	1246.397	0	15.9	4	4.9	4	-1E+10	1	-1E+10	1	-1E+10	1	-1E+10	1	-1E+10	1	-1E+10	1
4901784	15	C	12/02/2015	10:44	-130.605	45.826	0	1265.70	0	2.9060	0	34.4400	0	27.454	0	1251.523	0	16.1	4	5.0	4	-1E+10	1	-1E+10	1	-1E+10	1	-1E+10	1	-1E+10	1	-1E+10	1
4901784	15	C	12/02/2015	10:44	-130.605	45.826	0	1270.00	0	2.8880	0	34.4420	0	27.458	0	1255.762	0	16.3	4	5.0	4	-1E+10	1	-1E+10	1	-1E+10	1	-1E+10	1	-1E+10	1	-1E+10	1
4901784	15	C	12/02/2015	10:44	-130.605	45.826	0	1274.20	0	2.8820	0	34.4430	0	27.459	0	1259.902	0	16.3	4	5.0	4	-1E+10	1	-1E+10	1	-1E+10	1	-1E+10	1	-1E+10	1	-1E+10	1
4901784	15	C	12/02/2015	10:44	-130.605	45.826	0	1279.40	0	2.8760	0	34.4440	0	27.460	0	1265.028	0	16.4	4	5.1	4	-1E+10	1	-1E+10	1	-1E+10	1	-1E+10	1	-1E+10	1	-1E+10	1
4901784	15	C	12/02/2015	10:44	-130.605	45.826	0	1284.60	0	2.8590	0	34.4450	0	27.463	0	1270.154	0	16.6	4	5.1	4	-1E+10	1	-1E+10	1	-1E+10	1	-1E+10	1	-1E+10	1	-1E+10	1
4901784	15	C	12/02/2015	10:44	-130.605	45.826	0	1289.80	0	2.8480	0	34.4470	0	27.465	0	1275.280	0	16.8	4	5.2	4	-1E+10	1	-1E+10	1	-1E+10	1	-1E+10	1	-1E+10	1	-1E+10	1
4901784	15	C	12/02/2015	10:44	-130.605	45.826	0	1295.10	0	2.8390	0	34.4490	0	27.468	0	1280.504	0	17.0	4	5.2	4	-1E+10	1	-1E+10	1	-1E+10	1	-1E+10	1	-1E+10	1	-1E+10	1
4901784	15	C	12/02/2015	10:44	-130.605	45.826	0	1300.40	0	2.8360	0	34.4500	0	27.469	0	1285.728	0	17.2	4	5.3	4	-1E+10	1	-1E+10	1	-1E+10	1	-1E+10	1	-1E+10	1	-1E+10	1
4901784	15	C	12/02/2015	10:44	-130.605	45.826	0	1305.70	0	2.8290	0	34.4510	0	27.470	0	1290.952	0	17.4	4	5.3	4	-1E+10	1	-1E+10	1	-1E+10	1	-1E+10	1	-1E+10	1	-1E+10	1
4901784	15	C	12/02/2015	10:44	-130.605	45.826	0	1310.10	0	2.8270	0	34.4520	0	27.471	0	1295.289	0	17.6	4	5.4	4	-1E+10	1	-1E+10	1	-1E+10	1	-1E+10	1	-1E+10	1	-1E+10	1
4901784	15	C	12/02/2015	10:44	-130.605	45.826	0	1314.50	0	2.8170	0	34.4540	0	27.474	0	1299.626	0	17.8	4	5.5	4	-1E+10	1	-1E+10	1	-1E+10	1	-1E+10	1	-1E+10	1	-1E+10	1
4901784	15	C	12/02/2015	10:44	-130.605	45.826	0	1319.80	0	2.8140	0	34.4540	0	27.474	0	1304.850	0	17.9	4	5.5	4	-1E+10	1	-1E+10	1	-1E+10	1	-1E+10	1	-1E+10	1	-1E+10	1
4901784	15	C	12/02/2015	10:44	-130.605	45.826	0	1325.20	0	2.8070	0	34.4550	0	27.476	0	1310.172	0	18.2	4	5.6	4	-1E+10	1	-1E+10	1	-1E+10	1	-1E+10	1	-1E+10	1	-1E+10	1
4901784	15	C	12/02/2015	10:44	-130.605	45.826	0	1330.50	0	2.7930	0	34.4570	0	27.478	0	1315.395	0	18.5	4	5.7	4	-1E+10	1	-1E+10	1	-1E+10	1	-1E+10	1	-1E+10	1	-1E+10	1
4901784	15	C	12/02/2015	10:44	-130.605	45.826	0	1334.90	0	2.7740	0	34.4600	0	27.482	0	1319.731	0	18.8	4	5.8	4	-1E+10	1	-1E+10	1	-1E+10	1	-1E+10	1	-1E+10	1	-1E+10	1
4901784	15	C	12/02/2015	10:44	-130.605	45.826	0	1339.40	0	2.7620	0	34.4620	0	27.485	0	1324.166	0	19.0	4	5.8	4	-1E+10	1	-1E+10	1	-1E+10	1	-1E+10	1	-1E+10	1	-1E+10	1
4901784	15	C	12/02/2015	10:44	-130.605	45.826	0	1344.80	0	2.7570	0	34.4630	0	27.486	0	1329.488	0	19.1	4	5.9	4	-1E+10	1	-1E+10	1	-1E+10	1	-1E+10	1	-1E+10	1	-1E+10	1
4901784	15	C	12/02/2015	10:44	-130.605	45.826	0	1350.30	0	2.7540	0	34.4620	0	27.486	0	1334.908	0	19.3	4	5.9	4	-1E+10	1	-1E+10	1	-1E+10	1	-1E+10	1	-1E+10	1	-1E+10	1
4901784	15	C	12/02/2015	10:44	-130.605	45.826	0	1354.90	0	2.7400	0	34.4650	0	27.490	0	1339.440	0	19.6	4	6.0	4	-1E+10	1	-1E+10	1	-1E+10	1	-1E+10	1	-1E+10	1	-1E+10	1
4901784	15	C	12/02/2015	10:44	-130.605	45.826	0	1359.60	0	2.7330	0	34.4660	0	27.491	0	1344.072	0	19.7	4	6.1	4	-1E+10	1	-1E+10	1	-1E+10	1	-1E+10	1	-1E+10	1	-1E+10	1
4901784	15	C	12/02/2015	10:44	-130.605	45.826	0	1365.10	0	2.7280	0	34.4670	0	27.492	0	1349.491	0	19.9	4	6.1	4	-1E+10	1	-1E+10	1	-1E+10	1	-1E+10	1	-1E+10	1	-1E+10	1
4901784	15	C	12/02/2015	10:44	-130.605	45.826	0	1370.60	0	2.7180	0	34.4680	0	27.494	0	1354.911	0	20.2	4	6.2	4	-1E+10	1	-1E+10	1	-1E+10	1	-1E+10	1	-1E+10	1	-1E+10	1
4901784	15	C	12/02/2015	10:44	-130.605	45.826	0	1375.30	0	2.7060	0	34.4700	0	27.497	0	1359.542	0	20.5	4	6.3	4	-1E+10	1	-1E+10	1	-1E+10	1	-1E+10	1	-1E+10	1	-1E+10	1
4901784	15	C	12/02/2015	10:44	-130.605	45.826	0	1379.90	0	2.6950	0	34.4720	0	27.499	0	1364.074	0	20.6	4	6.3	4	-1E+10	1	-1E+10	1	-1E+10	1	-1E+10	1	-1E+10	1	-1E+10	1
4901784	15	C	12/02/2015	10:44	-130.605	45.826	0	1385.60	0	2.6950	0	34.4710	0	27.498	0	1369.690	0	20.7	4	6.3	4	-1E+10	1	-1E+10	1	-1E+10	1	-1E+10	1	-1E+10	1	-1E+10	1
4901784	15	C	12/02/2015	10:44	-130.605	45.826	0	1390.30	0	2.6940	0	34.4720	0	27.499	0	1374.321	0	20.8	4	6.4	4	-1E+10	1	-1E+10	1	-1E+10	1	-1E+10	1	-1E+10	1	-1E+10	1
4901784	15	C	12/02/2015	10:44	-130.605	45.826	0	1394.90	0	2.6870	0	34.4720	0	27.500	0	1378.853	0	21.0	4	6.4	4	-1E+10	1	-1E+10	1	-1E+10	1	-1E+10	1	-1E+10	1	-1E+10	1
4901784	15	C	12/02/2015	10:44	-130.605	45.826	0	1399.70	0	2.6670	0	34.4740	0	27.503	0	1383.582	0	21.3	4	6.5	4	-1E+10	1	-1E+10	1	-1E+10	1	-1E+10	1	-1E+10	1	-1E+10	1
4901784	15	C	12/02/2015	10:44	-130.605	45.826	0	1404.20	0	2.6540	0	34.4760	0	27.506	0	1388.016	0	21.6	4	6.6	4	-1E+10	1	-1E+10	1	-1E+10	1	-1E+10	1	-1E+10	1	-1E+10	1
4901784	15	C	12/02/2015	10:44	-130.605	45.826	0	1409.60	0	2.6330	0	34.4780	0	27.509	0	1393.336	0	22.0	4	6.7	4	-1E+10	1	-1E+10	1	-1E+10	1	-1E+10	1	-1E+10	1	-1E+10	1
4901784	15	C	12/02/2015	10:44	-130.605	45.826	0	1414.40	0	2.6220	0	34.4800	0	27.512	0	1398.064	0	22.4	4	6.9	4	-1E+10	1	-1E+10	1	-1E+10	1	-1E+10	1	-1E+10	1	-1E+10	1
4901784	15	C	12/02/2015	10:44	-130.605	45.826	0	1419.30	0	2.6160	0	34.4820	0	27.514	0	1402.892	0	22.8	4	7.0	4	-1E+10	1	-1E+10	1	-1E+10	1	-1E+10	1	-1E+10	1	-1E+10	1
4901784	15	C	12/02/2015	10:44	-130.605	45.826	0	1424.90	0	2.6070	0	34.4840	0	27.516	0	1408.408	0	23.2	4	7.1	4	-1E+10	1	-1E+10	1	-1E+10	1	-1E+10	1	-1E+10	1	-1E+10	1
4901784	15	C	12/02/2015	10:44	-130.605	45.826	0	1430.60	0	2.5950	0	34.4860	0	27.519	0	1414.023	0	23.6	4	7.2	4	-1E+10	1	-1E+10	1	-1E+10	1	-1E+10	1	-1E+10	1	-1E+10	1
4901784	15	C	12/02/2015	10:44	-130.605	45.826	0	1435.60	0	2.5890	0	34.4870	0	27.520	0	1418.948	0	24.0	4	7.3	4	-1E+10	1	-1E+10	1	-1E+10	1	-1E+10	1	-1E+10	1	-1E+10	1
4901784	15	C	12/02/2015	10:44	-130.605	45.826	0	1440.50	0	2.5800	0	34.4880	0	27.522	0	1423.775	0	24.3	4	7.4	4	-1E+10	1	-1E+10	1	-1E+10	1	-1E+10	1	-1E+10	1	-1E+10	1
4901784	15	C	12/02/2015	10:44	-130.605	45.826	0	1445.50	0	2.5700	0	34.4900	0	27.525	0	1428.700	0	24.6	4	7.5	4	-1E+10	1	-1E+10	1	-1E+10	1	-1E+10	1	-1E+10	1	-1E+10	1
4901784	15	C	12/02/2015	10:44	-130.605	45.826	0	1450.60	0	2.5640	0	34.4920	0	27.527	0	1433.723	0	24.8	4	7.6	4	-1E+10	1	-1E+10	1	-1E+10	1	-1E+10	1	-1E+10	1	-1E+10	1
4901784	15	C	12/02/2015	10:44	-130.605	45.826	0	1455.70	0	2.5600	0	34.4920	0	27.527	0	1438.747	0	25.1	4	7.7	4	-1E+10	1	-1E+10	1	-1E+10	1	-1E+10	1	-1E+10	1	-1E+10	1
4901784	15	C	12/02/2015	10:44	-130.605	45.826	0	1460.00	0	2.5570	0	34.4930	0	27.528	0	1442.982	0	25.5	4	7.8	4	-1E+10	1	-1E+10	1	-1E+10	1	-1E+10	1	-1E+10	1	-1E+10	1
4901784	15	C	12/02/2015	10:44	-130.605	45.826	0	1464.30	0	2.5490	0	34.4940	0	27.530	0	1447.217	0	25.9	4	7.9	4	-1E+10	1	-1E+10	1	-1E+10	1	-1E+10	1	-1E+10	1	-1E+10	1
4901784	15	C	12/02/2015	10:44	-130.605	45.826	0	1469.50	0	2.5380	0	34.4960	0	27.532	0	1452.339	0	26.3	4	8.0	4	-1E+10	1	-1E+10	1	-1E+10	1	-1E+10	1	-1E+10	1	-1E+10	1
4901784	15	C	12/02/2015	10:44	-130.605	45.826	0	1474.80	0	2.5280	0	34.4970	0	27.534	0	1457.559	0	26.6	4	8.1	4	-1E+10	1	-1E+10	1	-1E+10	1	-1E+10	1	-1E+10	1	-1E+10	1
4901784	15	C	12/02/2015	10:44	-130.605	45.826	0	1480.10	0	2.5140	0	34.4990	0	27.537	0	1462.778	0	26.9	4	8.2	4	-1E+10	1	-1E+10	1	-1E+10	1	-1E+10	1	-1E+10	1	-1E+10	1
4901784	15	C	12/02/2015	10:44	-130.605	45.826	0	1485.40	0	2.5060	0	34.5000	0	27.538	0	1467.998	0	27.1	4	8.3	4	-1E+10	1	-1E+10	1	-1E+10	1	-1E+10	1	-1E+10	1	-1E+10	1
4901784	15	C	12/02/2015	10:44	-130.605	45.826	0	1490.70	0	2.5000	0	34.5010	0	27.539	0	1473.217	0	27.2	4	8.3	4	-1E+10	1	-1E+10	1	-1E+10	1	-1E+10	1	-1E+10	1	-1E+10	1
4901784	15	C	12/02/2015	10:44	-130.605	45.826	0	1495.20	0	2.4970	0	34.5010	0	27.540	0	1477.649	0	27.3	4	8.3	4	-1E+10	1	-1E+10	1	-1E+10	1	-1E+10	1	-1E+10	1	-1E+10	1
4901784	15	C	12/02/2015	10:44	-130.605	45.826	0	1499.60	0	2.4940	0	34.5010	0	27.540	0	1481.982	0	27.4	4	8.3	4	-1E+10	1	-1E+10	1	-1E+10	1	-1E+10	1	-1E+10	1	-1E+10	1
4901784	15	C	12/02/2015	10:44	-130.605	45.826	0	1504.90	0	2.4870	0	34.5020	0	27.541	0	1487.201	0	27.5	4	8.4	4	-1E+10	1	-1E+10	1	-1E+10	1	-1E+10	1	-1E+10	1	-1E+10	1
4901784	15	C	12/02/2015	10:44	-130.605	45.826	0	1510.20	0	2.4780	0	34.5030	0	27.543	0	1492.420	0	27.6	4	8.4	4	-1E+10	1	-1E+10	1	-1E+10	1	-1E+10	1	-1E+10	1	-1E+10	1
4901784	15	C	12/02/2015	10:44	-130.605	45.826	0	1515.60	0	2.4730	0	34.5030	0	27.543	0	1497.737	0	27.8	4	8.5	4	-1E+10	1	-1E+10	1	-1E+10	1	-1E+10	1	-1E+10	1	-1E+10	1
4901784	15	C	12/02/2015	10:44	-130.605	45.826	0	1520.10	0	2.4670	0	34.5040	0	27.545	0	1502.168	0	28.1	4	8.6	4	-1E+10	1	-1E+10	1	-1E+10	1	-1E+10	1	-1E+10	1	-1E+10	1
4901784	15	C	12/02/2015	10:44	-130.605	45.826	0	1524.60	0	2.4600	0	34.5050	0	27.546	0	1506.599	0	28.4	4	8.6	4	-1E+10	1	-1E+10	1	-1E+10	1	-1E+10	1	-1E+10	1	-1E+10	1
4901784	15	C	12/02/2015	10:44	-130.605	45.826	0	1530.00	0	2.4520	0	34.5060	0	27.548	0	1511.916	0	28.6	4	8.7	4	-1E+10	1	-1E+10	1	-1E+10	1	-1E+10	1	-1E+10	1	-1E+10	1
4901784	15	C	12/02/2015	10:44	-130.605	45.826	0	1535.50	0	2.4500	0	34.5070	0	27.549	0	1517.331	0	28.8	4	8.8	4	-1E+10	1	-1E+10	1	-1E+10	1	-1E+10	1	-1E+10	1	-1E+10	1
4901784	15	C	12/02/2015	10:44	-130.605	45.826	0	1540.10	0	2.4450	0	34.5080	0	27.550	0	1521.860	0	29.1	4	8.9	4	-1E+10	1	-1E+10	1	-1E+10	1	-1E+10	1	-1E+10	1	-1E+10	1
4901784	15	C	12/02/2015	10:44	-130.605	45.826	0	1544.70	0	2.4470	0	34.5080	0	27.550	0	1526.389	0	29.3	4	8.9	4	-1E+10	1	-1E+10	1	-1E+10	1	-1E+10	1	-1E+10	1	-1E+10	1
4901784	15	C	12/02/2015	10:44	-130.605	45.826	0	1550.10	0	2.4450	0	34.5090	0	27.551	0	1531.705	0	29.5	4	9.0	4	-1E+10	1	-1E+10	1	-1E+10	1	-1E+10	1	-1E+10	1	-1E+10	1
4901784	15	C	12/02/2015	10:44	-130.605	45.826	0	1555.60	0	2.4380	0	34.5090	0	27.551	0	1537.120	0	29.8	4	9.1	4	-1E+10	1	-1E+10	1	-1E+10	1	-1E+10	1	-1E+10	1	-1E+10	1
4901784	15	C	12/02/2015	10:44	-130.605	45.826	0	1560.50	0	2.4300	0	34.5110	0	27.554	0	1541.944	0	30.0	4	9.1	4	-1E+10	1	-1E+10	1	-1E+10	1	-1E+10	1	-1E+10	1	-1E+10	1
4901784	15	C	12/02/2015	10:44	-130.605	45.826	0	1565.40	0	2.4250	0	34.5120	0	27.555	0	1546.768	0	30.2	4	9.2	4	-1E+10	1	-1E+10	1	-1E+10	1	-1E+10	1	-1E+10	1	-1E+10	1
4901784	15	C	12/02/2015	10:44	-130.605	45.826	0	1570.30	0	2.4230	0	34.5120	0	27.555	0	1551.592	0	30.4	4	9.3	4	-1E+10	1	-1E+10	1	-1E+10	1	-1E+10	1	-1E+10	1	-1E+10	1
4901784	15	C	12/02/2015	10:44	-130.605	45.826	0	1575.30	0	2.4180	0	34.5120	0	27.556	0	1556.514	0	30.7	4	9.4	4	-1E+10	1	-1E+10	1	-1E+10	1	-1E+10	1	-1E+10	1	-1E+10	1
4901784	15	C	12/02/2015	10:44	-130.605	45.826	0	1580.30	0	2.4100	0	34.5130	0	27.557	0	1561.436	0	31.1	4	9.5	4	-1E+10	1	-1E+10	1	-1E+10	1	-1E+10	1	-1E+10	1	-1E+10	1
4901784	15	C	12/02/2015	10:44	-130.605	45.826	0	1585.30	0	2.3950	0	34.5150	0	27.560	0	1566.358	0	31.6	4	9.6	4	-1E+10	1	-1E+10	1	-1E+10	1	-1E+10	1	-1E+10	1	-1E+10	1
4901784	15	C	12/02/2015	10:44	-130.605	45.826	0	1590.30	0	2.3840	0	34.5170	0	27.562	0	1571.279	0	31.8	4	9.7	4	-1E+10	1	-1E+10	1	-1E+10	1	-1E+10	1	-1E+10	1	-1E+10	1
4901784	15	C	12/02/2015	10:44	-130.605	45.826	0	1595.30	0	2.3800	0	34.5170	0	27.563	0	1576.201	0	32.0	4	9.7	4	-1E+10	1	-1E+10	1	-1E+10	1	-1E+10	1	-1E+10	1	-1E+10	1
4901784	15	C	12/02/2015	10:44	-130.605	45.826	0	1600.40	0	2.3730	0	34.5170	0	27.563	0	1581.221	0	32.5	4	9.9	4	-1E+10	1	-1E+10	1	-1E+10	1	-1E+10	1	-1E+10	1	-1E+10	1
4901784	15	C	12/02/2015	10:44	-130.605	45.826	0	1605.50	0	2.3580	0	34.5200	0	27.567	0	1586.241	0	33.1	4	10.1	4	-1E+10	1	-1E+10	1	-1E+10	1	-1E+10	1	-1E+10	1	-1E+10	1
4901784	15	C	12/02/2015	10:44	-130.605	45.826	0	1610.60	0	2.3510	0	34.5210	0	27.568	0	1591.260	0	33.4	4	10.2	4	-1E+10	1	-1E+10	1	-1E+10	1	-1E+10	1	-1E+10	1	-1E+10	1
4901784	15	C	12/02/2015	10:44	-130.605	45.826	0	1614.90	0	2.3450	0	34.5220	0	27.570	0	1595.492	0	33.8	4	10.3	4	-1E+10	1	-1E+10	1	-1E+10	1	-1E+10	1	-1E+10	1	-1E+10	1
4901784	15	C	12/02/2015	10:44	-130.605	45.826	0	1619.20	0	2.3340	0	34.5230	0	27.572	0	1599.724	0	34.3	4	10.4	4	-1E+10	1	-1E+10	1	-1E+10	1	-1E+10	1	-1E+10	1	-1E+10	1
4901784	15	C	12/02/2015	10:44	-130.605	45.826	0	1624.50	0	2.3220	0	34.5250	0	27.574	0	1604.941	0	34.8	4	10.6	4	-1E+10	1	-1E+10	1	-1E+10	1	-1E+10	1	-1E+10	1	-1E+10	1
4901784	15	C	12/02/2015	10:44	-130.605	45.826	0	1629.80	0	2.3150	0	34.5270	0	27.576	0	1610.157	0	35.1	4	10.7	4	-1E+10	1	-1E+10	1	-1E+10	1	-1E+10	1	-1E+10	1	-1E+10	1
4901784	15	C	12/02/2015	10:44	-130.605	45.826	0	1635.20	0	2.3100	0	34.5270	0	27.577	0	1615.471	0	35.4	4	10.7	4	-1E+10	1	-1E+10	1	-1E+10	1	-1E+10	1	-1E+10	1	-1E+10	1
4901784	15	C	12/02/2015	10:44	-130.605	45.826	0	1640.60	0	2.3050	0	34.5280	0	27.578	0	1620.785	0	35.8	4	10.9	4	-1E+10	1	-1E+10	1	-1E+10	1	-1E+10	1	-1E+10	1	-1E+10	1
4901784	15	C	12/02/2015	10:44	-130.605	45.826	0	1645.10	0	2.2970	0	34.5290	0	27.579	0	1625.214	0	36.1	4	11.0	4	-1E+10	1	-1E+10	1	-1E+10	1	-1E+10	1	-1E+10	1	-1E+10	1
4901784	15	C	12/02/2015	10:44	-130.605	45.826	0	1650.30	0	2.2930	0	34.5300	0	27.581	0	1630.331	0	36.2	4	11.0	4	-1E+10	1	-1E+10	1	-1E+10	1	-1E+10	1	-1E+10	1	-1E+10	1
4901784	15	C	12/02/2015	10:44	-130.605	45.826	0	1655.40	0	2.2910	0	34.5300	0	27.581	0	1635.349	0	36.4	4	11.1	4	-1E+10	1	-1E+10	1	-1E+10	1	-1E+10	1	-1E+10	1	-1E+10	1
4901784	15	C	12/02/2015	10:44	-130.605	45.826	0	1660.20	0	2.2870	0	34.5310	0	27.582	0	1640.073	0	36.6	4	11.1	4	-1E+10	1	-1E+10	1	-1E+10	1	-1E+10	1	-1E+10	1	-1E+10	1
4901784	15	C	12/02/2015	10:44	-130.605	45.826	0	1665.00	0	2.2810	0	34.5320	0	27.583	0	1644.796	0	37.0	4	11.2	4	-1E+10	1	-1E+10	1	-1E+10	1	-1E+10	1	-1E+10	1	-1E+10	1
4901784	15	C	12/02/2015	10:44	-130.605	45.826	0	1669.90	0	2.2730	0	34.5330	0	27.585	0	1649.617	0	37.3	4	11.3	4	-1E+10	1	-1E+10	1	-1E+10	1	-1E+10	1	-1E+10	1	-1E+10	1
4901784	15	C	12/02/2015	10:44	-130.605	45.826	0	1674.70	0	2.2680	0	34.5340	0	27.586	0	1654.340	0	37.6	4	11.4	4	-1E+10	1	-1E+10	1	-1E+10	1	-1E+10	1	-1E+10	1	-1E+10	1
4901784	15	C	12/02/2015	10:44	-130.605	45.826	0	1679.70	0	2.2640	0	34.5340	0	27.586	0	1659.260	0	38.0	4	11.5	4	-1E+10	1	-1E+10	1	-1E+10	1	-1E+10	1	-1E+10	1	-1E+10	1
4901784	15	C	12/02/2015	10:44	-130.605	45.826	0	1684.60	0	2.2550	0	34.5360	0	27.589	0	1664.081	0	38.4	4	11.7	4	-1E+10	1	-1E+10	1	-1E+10	1	-1E+10	1	-1E+10	1	-1E+10	1
4901784	15	C	12/02/2015	10:44	-130.605	45.826	0	1689.60	0	2.2480	0	34.5370	0	27.590	0	1669.001	0	38.8	4	11.8	4	-1E+10	1	-1E+10	1	-1E+10	1	-1E+10	1	-1E+10	1	-1E+10	1
4901784	15	C	12/02/2015	10:44	-130.605	45.826	0	1694.50	0	2.2420	0	34.5380	0	27.591	0	1673.822	0	39.1	4	11.9	4	-1E+10	1	-1E+10	1	-1E+10	1	-1E+10	1	-1E+10	1	-1E+10	1
4901784	15	C	12/02/2015	10:44	-130.605	45.826	0	1699.50	0	2.2370	0	34.5390	0	27.593	0	1678.741	0	39.3	4	11.9	4	-1E+10	1	-1E+10	1	-1E+10	1	-1E+10	1	-1E+10	1	-1E+10	1
4901784	15	C	12/02/2015	10:44	-130.605	45.826	0	1704.50	0	2.2350	0	34.5390	0	27.593	0	1683.660	0	39.4	4	11.9	4	-1E+10	1	-1E+10	1	-1E+10	1	-1E+10	1	-1E+10	1	-1E+10	1
4901784	15	C	12/02/2015	10:44	-130.605	45.826	0	1709.50	0	2.2320	0	34.5390	0	27.593	0	1688.579	0	39.7	4	12.0	4	-1E+10	1	-1E+10	1	-1E+10	1	-1E+10	1	-1E+10	1	-1E+10	1
4901784	15	C	12/02/2015	10:44	-130.605	45.826	0	1714.50	0	2.2230	0	34.5410	0	27.595	0	1693.498	0	40.0	4	12.1	4	-1E+10	1	-1E+10	1	-1E+10	1	-1E+10	1	-1E+10	1	-1E+10	1
4901784	15	C	12/02/2015	10:44	-130.605	45.826	0	1719.60	0	2.2190	0	34.5410	0	27.596	0	1698.515	0	40.2	4	12.2	4	-1E+10	1	-1E+10	1	-1E+10	1	-1E+10	1	-1E+10	1	-1E+10	1
4901784	15	C	12/02/2015	10:44	-130.605	45.826	0	1724.70	0	2.2170	0	34.5410	0	27.596	0	1703.532	0	40.4	4	12.2	4	-1E+10	1	-1E+10	1	-1E+10	1	-1E+10	1	-1E+10	1	-1E+10	1
4901784	15	C	12/02/2015	10:44	-130.605	45.826	0	1729.80	0	2.2130	0	34.5420	0	27.597	0	1708.549	0	40.7	4	12.3	4	-1E+10	1	-1E+10	1	-1E+10	1	-1E+10	1	-1E+10	1	-1E+10	1
4901784	15	C	12/02/2015	10:44	-130.605	45.826	0	1734.80	0	2.2060	0	34.5430	0	27.599	0	1713.467	0	41.0	4	12.4	4	-1E+10	1	-1E+10	1	-1E+10	1	-1E+10	1	-1E+10	1	-1E+10	1
4901784	15	C	12/02/2015	10:44	-130.605	45.826	0	1740.00	0	2.2000	0	34.5440	0	27.600	0	1718.582	0	41.3	4	12.5	4	-1E+10	1	-1E+10	1	-1E+10	1	-1E+10	1	-1E+10	1	-1E+10	1
4901784	15	C	12/02/2015	10:44	-130.605	45.826	0	1745.20	0	2.1970	0	34.5450	0	27.601	0	1723.697	0	41.6	4	12.6	4	-1E+10	1	-1E+10	1	-1E+10	1	-1E+10	1	-1E+10	1	-1E+10	1
4901784	15	C	12/02/2015	10:44	-130.605	45.826	0	1750.40	0	2.1920	0	34.5450	0	27.601	0	1728.812	0	41.8	4	12.7	4	-1E+10	1	-1E+10	1	-1E+10	1	-1E+10	1	-1E+10	1	-1E+10	1
4901784	15	C	12/02/2015	10:44	-130.605	45.826	0	1755.50	0	2.1900	0	34.5460	0	27.602	0	1733.828	0	42.0	4	12.7	4	-1E+10	1	-1E+10	1	-1E+10	1	-1E+10	1	-1E+10	1	-1E+10	1
4901784	15	C	12/02/2015	10:44	-130.605	45.826	0	1760.60	0	2.1840	0	34.5470	0	27.604	0	1738.844	0	42.3	4	12.8	4	-1E+10	1	-1E+10	1	-1E+10	1	-1E+10	1	-1E+10	1	-1E+10	1
4901784	15	C	12/02/2015	10:44	-130.605	45.826	0	1764.90	0	2.1810	0	34.5470	0	27.604	0	1743.073	0	42.4	4	12.8	4	-1E+10	1	-1E+10	1	-1E+10	1	-1E+10	1	-1E+10	1	-1E+10	1
4901784	15	C	12/02/2015	10:44	-130.605	45.826	0	1769.30	0	2.1780	0	34.5480	0	27.605	0	1747.401	0	42.5	4	12.9	4	-1E+10	1	-1E+10	1	-1E+10	1	-1E+10	1	-1E+10	1	-1E+10	1
4901784	15	C	12/02/2015	10:44	-130.605	45.826	0	1774.50	0	2.1770	0	34.5480	0	27.605	0	1752.515	0	42.6	4	12.9	4	-1E+10	1	-1E+10	1	-1E+10	1	-1E+10	1	-1E+10	1	-1E+10	1
4901784	15	C	12/02/2015	10:44	-130.605	45.826	0	1779.80	0	2.1720	0	34.5480	0	27.605	0	1757.728	0	42.9	4	13.0	4	-1E+10	1	-1E+10	1	-1E+10	1	-1E+10	1	-1E+10	1	-1E+10	1
4901784	15	C	12/02/2015	10:44	-130.605	45.826	0	1785.00	0	2.1680	0	34.5490	0	27.607	0	1762.841	0	43.1	4	13.0	4	-1E+10	1	-1E+10	1	-1E+10	1	-1E+10	1	-1E+10	1	-1E+10	1
4901784	15	C	12/02/2015	10:44	-130.605	45.826	0	1790.30	0	2.1660	0	34.5490	0	27.607	0	1768.054	0	43.3	4	13.1	4	-1E+10	1	-1E+10	1	-1E+10	1	-1E+10	1	-1E+10	1	-1E+10	1
4901784	15	C	12/02/2015	10:44	-130.605	45.826	0	1795.70	0	2.1620	0	34.5500	0	27.608	0	1773.364	0	43.7	4	13.2	4	-1E+10	1	-1E+10	1	-1E+10	1	-1E+10	1	-1E+10	1	-1E+10	1
4901784	15	C	12/02/2015	10:44	-130.605	45.826	0	1800.10	0	2.1550	0	34.5510	0	27.609	0	1777.691	0	44.0	4	13.3	4	-1E+10	1	-1E+10	1	-1E+10	1	-1E+10	1	-1E+10	1	-1E+10	1
4901784	15	C	12/02/2015	10:44	-130.605	45.826	0	1804.60	0	2.1520	0	34.5510	0	27.610	0	1782.116	0	44.2	4	13.4	4	-1E+10	1	-1E+10	1	-1E+10	1	-1E+10	1	-1E+10	1	-1E+10	1
4901784	15	C	12/02/2015	10:44	-130.605	45.826	0	1810.00	0	2.1480	0	34.5520	0	27.611	0	1787.426	0	44.5	4	13.5	4	-1E+10	1	-1E+10	1	-1E+10	1	-1E+10	1	-1E+10	1	-1E+10	1
4901784	15	C	12/02/2015	10:44	-130.605	45.826	0	1815.50	0	2.1430	0	34.5530	0	27.612	0	1792.834	0	44.7	4	13.5	4	-1E+10	1	-1E+10	1	-1E+10	1	-1E+10	1	-1E+10	1	-1E+10	1
4901784	15	C	12/02/2015	10:44	-130.605	45.826	0	1820.00	0	2.1420	0	34.5530	0	27.612	0	1797.259	0	44.8	4	13.5	4	-1E+10	1	-1E+10	1	-1E+10	1	-1E+10	1	-1E+10	1	-1E+10	1
4901784	15	C	12/02/2015	10:44	-130.605	45.826	0	1824.50	0	2.1410	0	34.5530	0	27.612	0	1801.684	0	44.9	4	13.6	4	-1E+10	1	-1E+10	1	-1E+10	1	-1E+10	1	-1E+10	1	-1E+10	1
4901784	15	C	12/02/2015	10:44	-130.605	45.826	0	1829.90	0	2.1390	0	34.5540	0	27.613	0	1806.993	0	45.2	4	13.7	4	-1E+10	1	-1E+10	1	-1E+10	1	-1E+10	1	-1E+10	1	-1E+10	1
4901784	15	C	12/02/2015	10:44	-130.605	45.826	0	1835.30	0	2.1320	0	34.5550	0	27.615	0	1812.303	0	45.4	4	13.7	4	-1E+10	1	-1E+10	1	-1E+10	1	-1E+10	1	-1E+10	1	-1E+10	1
4901784	15	C	12/02/2015	10:44	-130.605	45.826	0	1839.80	0	2.1320	0	34.5550	0	27.615	0	1816.727	0	45.6	4	13.8	4	-1E+10	1	-1E+10	1	-1E+10	1	-1E+10	1	-1E+10	1	-1E+10	1
4901784	15	C	12/02/2015	10:44	-130.605	45.826	0	1844.30	0	2.1280	0	34.5550	0	27.615	0	1821.151	0	45.8	4	13.9	4	-1E+10	1	-1E+10	1	-1E+10	1	-1E+10	1	-1E+10	1	-1E+10	1
4901784	15	C	12/02/2015	10:44	-130.605	45.826	0	1849.80	0	2.1210	0	34.5560	0	27.616	0	1826.559	0	46.1	4	13.9	4	-1E+10	1	-1E+10	1	-1E+10	1	-1E+10	1	-1E+10	1	-1E+10	1
4901784	15	C	12/02/2015	10:44	-130.605	45.826	0	1855.20	0	2.1170	0	34.5570	0	27.617	0	1831.867	0	46.4	4	14.0	4	-1E+10	1	-1E+10	1	-1E+10	1	-1E+10	1	-1E+10	1	-1E+10	1
4901784	15	C	12/02/2015	10:44	-130.605	45.826	0	1860.60	0	2.1110	0	34.5580	0	27.619	0	1837.176	0	46.7	4	14.1	4	-1E+10	1	-1E+10	1	-1E+10	1	-1E+10	1	-1E+10	1	-1E+10	1
4901784	15	C	12/02/2015	10:44	-130.605	45.826	0	1865.10	0	2.1090	0	34.5580	0	27.619	0	1841.600	0	46.9	4	14.2	4	-1E+10	1	-1E+10	1	-1E+10	1	-1E+10	1	-1E+10	1	-1E+10	1
4901784	15	C	12/02/2015	10:44	-130.605	45.826	0	1869.50	0	2.1070	0	34.5590	0	27.620	0	1845.926	0	47.1	4	14.2	4	-1E+10	1	-1E+10	1	-1E+10	1	-1E+10	1	-1E+10	1	-1E+10	1
4901784	15	C	12/02/2015	10:44	-130.605	45.826	0	1874.90	0	2.1040	0	34.5590	0	27.620	0	1851.234	0	47.2	4	14.3	4	-1E+10	1	-1E+10	1	-1E+10	1	-1E+10	1	-1E+10	1	-1E+10	1
4901784	15	C	12/02/2015	10:44	-130.605	45.826	0	1880.30	0	2.1020	0	34.5590	0	27.620	0	1856.542	0	47.4	4	14.3	4	-1E+10	1	-1E+10	1	-1E+10	1	-1E+10	1	-1E+10	1	-1E+10	1
4901784	15	C	12/02/2015	10:44	-130.605	45.826	0	1884.80	0	2.1000	0	34.5600	0	27.621	0	1860.966	0	47.6	4	14.4	4	-1E+10	1	-1E+10	1	-1E+10	1	-1E+10	1	-1E+10	1	-1E+10	1
4901784	15	C	12/02/2015	10:44	-130.605	45.826	0	1889.30	0	2.0960	0	34.5600	0	27.622	0	1865.389	0	47.9	4	14.5	4	-1E+10	1	-1E+10	1	-1E+10	1	-1E+10	1	-1E+10	1	-1E+10	1
4901784	15	C	12/02/2015	10:44	-130.605	45.826	0	1894.80	0	2.0920	0	34.5610	0	27.623	0	1870.795	0	48.1	4	14.5	4	-1E+10	1	-1E+10	1	-1E+10	1	-1E+10	1	-1E+10	1	-1E+10	1
4901784	15	C	12/02/2015	10:44	-130.605	45.826	0	1900.20	0	2.0900	0	34.5610	0	27.623	0	1876.103	0	48.3	4	14.6	4	-1E+10	1	-1E+10	1	-1E+10	1	-1E+10	1	-1E+10	1	-1E+10	1
4901784	15	C	12/02/2015	10:44	-130.605	45.826	0	1905.60	0	2.0860	0	34.5620	0	27.624	0	1881.411	0	48.6	4	14.7	4	-1E+10	1	-1E+10	1	-1E+10	1	-1E+10	1	-1E+10	1	-1E+10	1
4901784	15	C	12/02/2015	10:44	-130.605	45.826	0	1910.10	0	2.0810	0	34.5630	0	27.625	0	1885.834	0	48.9	4	14.8	4	-1E+10	1	-1E+10	1	-1E+10	1	-1E+10	1	-1E+10	1	-1E+10	1
4901784	15	C	12/02/2015	10:44	-130.605	45.826	0	1914.50	0	2.0780	0	34.5630	0	27.626	0	1890.158	0	49.1	4	14.8	4	-1E+10	1	-1E+10	1	-1E+10	1	-1E+10	1	-1E+10	1	-1E+10	1
4901784	15	C	12/02/2015	10:44	-130.605	45.826	0	1919.90	0	2.0750	0	34.5630	0	27.626	0	1895.466	0	49.4	4	14.9	4	-1E+10	1	-1E+10	1	-1E+10	1	-1E+10	1	-1E+10	1	-1E+10	1
4901784	15	C	12/02/2015	10:44	-130.605	45.826	0	1925.30	0	2.0670	0	34.5650	0	27.628	0	1900.773	0	49.8	4	15.0	4	-1E+10	1	-1E+10	1	-1E+10	1	-1E+10	1	-1E+10	1	-1E+10	1
4901784	15	C	12/02/2015	10:44	-130.605	45.826	0	1930.70	0	2.0620	0	34.5660	0	27.629	0	1906.080	0	50.1	4	15.1	4	-1E+10	1	-1E+10	1	-1E+10	1	-1E+10	1	-1E+10	1	-1E+10	1
4901784	15	C	12/02/2015	10:44	-130.605	45.826	0	1935.20	0	2.0570	0	34.5660	0	27.630	0	1910.502	0	50.3	4	15.2	4	-1E+10	1	-1E+10	1	-1E+10	1	-1E+10	1	-1E+10	1	-1E+10	1
4901784	15	C	12/02/2015	10:44	-130.605	45.826	0	1939.70	0	2.0540	0	34.5670	0	27.631	0	1914.925	0	50.5	4	15.2	4	-1E+10	1	-1E+10	1	-1E+10	1	-1E+10	1	-1E+10	1	-1E+10	1
4901784	15	C	12/02/2015	10:44	-130.605	45.826	0	1945.10	0	2.0540	0	34.5670	0	27.631	0	1920.231	0	50.7	4	15.3	4	-1E+10	1	-1E+10	1	-1E+10	1	-1E+10	1	-1E+10	1	-1E+10	1
4901784	15	C	12/02/2015	10:44	-130.605	45.826	0	1950.50	0	2.0500	0	34.5670	0	27.631	0	1925.538	0	51.1	4	15.4	4	-1E+10	1	-1E+10	1	-1E+10	1	-1E+10	1	-1E+10	1	-1E+10	1
4901784	15	C	12/02/2015	10:44	-130.605	45.826	0	1954.90	0	2.0430	0	34.5690	0	27.633	0	1929.862	0	51.5	4	15.6	4	-1E+10	1	-1E+10	1	-1E+10	1	-1E+10	1	-1E+10	1	-1E+10	1
4901784	15	C	12/02/2015	10:44	-130.605	45.826	0	1959.40	0	2.0360	0	34.5700	0	27.635	0	1934.284	0	51.8	4	15.6	4	-1E+10	1	-1E+10	1	-1E+10	1	-1E+10	1	-1E+10	1	-1E+10	1
4901784	15	C	12/02/2015	10:44	-130.605	45.826	0	1964.80	0	2.0310	0	34.5710	0	27.636	0	1939.590	0	52.1	4	15.7	4	-1E+10	1	-1E+10	1	-1E+10	1	-1E+10	1	-1E+10	1	-1E+10	1
4901784	15	C	12/02/2015	10:44	-130.605	45.826	0	1970.10	0	2.0280	0	34.5710	0	27.636	0	1944.798	0	52.3	4	15.8	4	-1E+10	1	-1E+10	1	-1E+10	1	-1E+10	1	-1E+10	1	-1E+10	1
4901784	15	C	12/02/2015	10:44	-130.605	45.826	0	1975.50	0	2.0260	0	34.5710	0	27.637	0	1950.104	0	52.5	4	15.8	4	-1E+10	1	-1E+10	1	-1E+10	1	-1E+10	1	-1E+10	1	-1E+10	1
4901784	15	C	12/02/2015	10:44	-130.605	45.826	0	1979.60	0	2.0230	0	34.5720	0	27.638	0	1954.132	0	52.7	4	15.9	4	-1E+10	1	-1E+10	1	-1E+10	1	-1E+10	1	-1E+10	1	-1E+10	1
4901784	15	C	12/02/2015	10:44	-130.605	45.826	0	1984.40	0	2.0180	0	34.5730	0	27.639	0	1958.848	0	52.9	4	16.0	4	-1E+10	1	-1E+10	1	-1E+10	1	-1E+10	1	-1E+10	1	-1E+10	1
4901784	15	C	12/02/2015	10:44	-130.605	45.826	0	1990.10	0	2.0160	0	34.5730	0	27.639	0	1964.449	0	53.1	4	16.0	4	-1E+10	1	-1E+10	1	-1E+10	1	-1E+10	1	-1E+10	1	-1E+10	1
4901784	15	C	12/02/2015	10:44	-130.605	45.826	0	1995.70	0	2.0120	0	34.5730	0	27.639	0	1969.951	0	53.2	4	16.1	4	-1E+10	1	-1E+10	1	-1E+10	1	-1E+10	1	-1E+10	1	-1E+10	1
4901784	15	C	12/02/2015	10:44	-130.605	45.826	0	1999.90	0	2.0100	0	34.5740	0	27.640	0	1974.077	0	53.5	4	16.1	4	-1E+10	1	-1E+10	1	-1E+10	1	-1E+10	1	-1E+10	1	-1E+10	1
4901784	15	C	12/02/2015	10:44	-130.605	45.826	0	2005.10	0	2.0040	0	34.5750	0	27.642	0	1979.186	0	53.8	4	16.2	4	-1E+10	1	-1E+10	1	-1E+10	1	-1E+10	1	-1E+10	1	-1E+10	1
4901784	15	C	12/02/2015	10:44	-130.605	45.826	0	2009.70	0	2.0020	0	34.5750	0	27.642	0	1983.705	0	54.0	4	16.3	4	-1E+10	1	-1E+10	1	-1E+10	1	-1E+10	1	-1E+10	1	-1E+10	1
4901784	15	C	12/02/2015	10:44	-130.605	45.826	0	2015.90	0	1.9990	0	34.5760	0	27.643	0	1989.796	0	53.5	4	16.1	4	-1E+10	1	-1E+10	1	-1E+10	1	-1E+10	1	-1E+10	1	-1E+10	1
4901784	15	C	12/02/2015	10:44	-130.605	45.826	0																										
4901784	16	C	12/12/2015	10:42	-130.732	45.694	0	1.80	0	12.4930	0	32.5470	0	24.592	0	1.785	0	250.9	4	94.6	4	-1E+10	1	-1E+10	1	-1E+10	1	-1E+10	1	-1E+10	1	-1E+10	1
4901784	16	C	12/12/2015	10:42	-130.732	45.694	0	3.50	0	12.4920	0	32.5470	0	24.592	0	3.471	0	250.8	4	94.6	4	-1E+10	1	-1E+10	1	-1E+10	1	-1E+10	1	-1E+10	1	-1E+10	1
4901784	16	C	12/12/2015	10:42	-130.732	45.694	0	5.20	0	12.4920	0	32.5470	0	24.592	0	5.157	0	250.7	4	94.6	4	-1E+10	1	-1E+10	1	-1E+10	1	-1E+10	1	-1E+10	1	-1E+10	1
4901784	16	C	12/12/2015	10:42	-130.732	45.694	0	6.90	0	12.4920	0	32.5470	0	24.592	0	6.843	0	250.7	4	94.5	4	-1E+10	1	-1E+10	1	-1E+10	1	-1E+10	1	-1E+10	1	-1E+10	1
4901784	16	C	12/12/2015	10:42	-130.732	45.694	0	8.80	0	12.4910	0	32.5470	0	24.593	0	8.728	0	250.6	4	94.5	4	-1E+10	1	-1E+10	1	-1E+10	1	-1E+10	1	-1E+10	1	-1E+10	1
4901784	16	C	12/12/2015	10:42	-130.732	45.694	0	10.90	0	12.4910	0	32.5480	0	24.593	0	10.811	0	250.6	4	94.5	4	-1E+10	1	-1E+10	1	-1E+10	1	-1E+10	1	-1E+10	1	-1E+10	1
4901784	16	C	12/12/2015	10:42	-130.732	45.694	0	13.10	0	12.4910	0	32.5480	0	24.593	0	12.992	0	250.4	4	94.4	4	-1E+10	1	-1E+10	1	-1E+10	1	-1E+10	1	-1E+10	1	-1E+10	1
4901784	16	C	12/12/2015	10:42	-130.732	45.694	0	15.40	0	12.4910	0	32.5480	0	24.593	0	15.273	0	250.5	4	94.5	4	-1E+10	1	-1E+10	1	-1E+10	1	-1E+10	1	-1E+10	1	-1E+10	1
4901784	16	C	12/12/2015	10:42	-130.732	45.694	0	17.40	0	12.4910	0	32.5480	0	24.594	0	17.257	0	250.4	4	94.4	4	-1E+10	1	-1E+10	1	-1E+10	1	-1E+10	1	-1E+10	1	-1E+10	1
4901784	16	C	12/12/2015	10:42	-130.732	45.694	0	19.50	0	12.4920	0	32.5500	0	24.595	0	19.340	0	250.4	4	94.4	4	-1E+10	1	-1E+10	1	-1E+10	1	-1E+10	1	-1E+10	1	-1E+10	1
4901784	16	C	12/12/2015	10:42	-130.732	45.694	0	21.60	0	12.4920	0	32.5500	0	24.595	0	21.422	0	250.3	4	94.4	4	-1E+10	1	-1E+10	1	-1E+10	1	-1E+10	1	-1E+10	1	-1E+10	1
4901784	16	C	12/12/2015	10:42	-130.732	45.694	0	23.50	0	12.4890	0	32.5540	0	24.599	0	23.306	0	250.2	4	94.4	4	-1E+10	1	-1E+10	1	-1E+10	1	-1E+10	1	-1E+10	1	-1E+10	1
4901784	16	C	12/12/2015	10:42	-130.732	45.694	0	25.40	0	12.4890	0	32.5550	0	24.600	0	25.191	0	250.3	4	94.4	4	-1E+10	1	-1E+10	1	-1E+10	1	-1E+10	1	-1E+10	1	-1E+10	1
4901784	16	C	12/12/2015	10:42	-130.732	45.694	0	27.40	0	12.4900	0	32.5560	0	24.600	0	27.174	0	250.2	4	94.4	4	-1E+10	1	-1E+10	1	-1E+10	1	-1E+10	1	-1E+10	1	-1E+10	1
4901784	16	C	12/12/2015	10:42	-130.732	45.694	0	29.50	0	12.4910	0	32.5530	0	24.598	0	29.257	0	250.0	4	94.3	4	-1E+10	1	-1E+10	1	-1E+10	1	-1E+10	1	-1E+10	1	-1E+10	1
4901784	16	C	12/12/2015	10:42	-130.732	45.694	0	31.40	0	12.4920	0	32.5520	0	24.597	0	31.141	0	250.0	4	94.3	4	-1E+10	1	-1E+10	1	-1E+10	1	-1E+10	1	-1E+10	1	-1E+10	1
4901784	16	C	12/12/2015	10:42	-130.732	45.694	0	33.60	0	12.4920	0	32.5510	0	24.596	0	33.322	0	249.8	4	94.2	4	-1E+10	1	-1E+10	1	-1E+10	1	-1E+10	1	-1E+10	1	-1E+10	1
4901784	16	C	12/12/2015	10:42	-130.732	45.694	0	35.90	0	12.4900	0	32.5500	0	24.596	0	35.603	0	249.7	4	94.2	4	-1E+10	1	-1E+10	1	-1E+10	1	-1E+10	1	-1E+10	1	-1E+10	1
4901784	16	C	12/12/2015	10:42	-130.732	45.694	0	38.00	0	12.4900	0	32.5500	0	24.596	0	37.686	0	249.6	4	94.1	4	-1E+10	1	-1E+10	1	-1E+10	1	-1E+10	1	-1E+10	1	-1E+10	1
4901784	16	C	12/12/2015	10:42	-130.732	45.694	0	40.10	0	12.4820	0	32.5700	0	24.613	0	39.768	0	249.4	4	94.1	4	-1E+10	1	-1E+10	1	-1E+10	1	-1E+10	1	-1E+10	1	-1E+10	1
4901784	16	C	12/12/2015	10:42	-130.732	45.694	0	42.10	0	12.4820	0	32.5700	0	24.613	0	41.751	0	249.4	4	94.1	4	-1E+10	1	-1E+10	1	-1E+10	1	-1E+10	1	-1E+10	1	-1E+10	1
4901784	16	C	12/12/2015	10:42	-130.732	45.694	0	44.10	0	12.4820	0	32.5710	0	24.614	0	43.735	0	249.1	4	93.9	4	-1E+10	1	-1E+10	1	-1E+10	1	-1E+10	1	-1E+10	1	-1E+10	1
4901784	16	C	12/12/2015	10:42	-130.732	45.694	0	46.10	0	12.4810	0	32.5760	0	24.618	0	45.718	0	249.1	4	94.0	4	-1E+10	1	-1E+10	1	-1E+10	1	-1E+10	1	-1E+10	1	-1E+10	1
4901784	16	C	12/12/2015	10:42	-130.732	45.694	0	48.20	0	12.4810	0	32.5730	0	24.616	0	47.800	0	249.2	4	94.0	4	-1E+10	1	-1E+10	1	-1E+10	1	-1E+10	1	-1E+10	1	-1E+10	1
4901784	16	C	12/12/2015	10:42	-130.732	45.694	0	50.20	0	12.4850	0	32.5850	0	24.624	0	49.783	0	249.1	4	94.0	4	-1E+10	1	-1E+10	1	-1E+10	1	-1E+10	1	-1E+10	1	-1E+10	1
4901784	16	C	12/12/2015	10:42	-130.732	45.694	0	52.30	0	12.4880	0	32.5940	0	24.631	0	51.866	0	248.9	4	93.9	4	-1E+10	1	-1E+10	1	-1E+10	1	-1E+10	1	-1E+10	1	-1E+10	1
4901784	16	C	12/12/2015	10:42	-130.732	45.694	0	54.30	0	12.4880	0	32.5950	0	24.631	0	53.849	0	248.8	4	93.9	4	-1E+10	1	-1E+10	1	-1E+10	1	-1E+10	1	-1E+10	1	-1E+10	1
4901784	16	C	12/12/2015	10:42	-130.732	45.694	0	56.40	0	12.4870	0	32.5990	0	24.635	0	55.931	0	248.8	4	93.9	4	-1E+10	1	-1E+10	1	-1E+10	1	-1E+10	1	-1E+10	1	-1E+10	1
4901784	16	C	12/12/2015	10:42	-130.732	45.694	0	58.40	0	12.4940	0	32.6100	0	24.642	0	57.914	0	248.7	4	93.8	4	-1E+10	1	-1E+10	1	-1E+10	1	-1E+10	1	-1E+10	1	-1E+10	1
4901784	16	C	12/12/2015	10:42	-130.732	45.694	0	60.50	0	12.5030	0	32.6160	0	24.645	0	59.996	0	248.5	4	93.8	4	-1E+10	1	-1E+10	1	-1E+10	1	-1E+10	1	-1E+10	1	-1E+10	1
4901784	16	C	12/12/2015	10:42	-130.732	45.694	0	62.60	0	12.5120	0	32.6240	0	24.650	0	62.078	0	248.3	4	93.7	4	-1E+10	1	-1E+10	1	-1E+10	1	-1E+10	1	-1E+10	1	-1E+10	1
4901784	16	C	12/12/2015	10:42	-130.732	45.694	0	64.60	0	12.5300	0	32.6370	0	24.656	0	64.061	0	248.0	4	93.7	4	-1E+10	1	-1E+10	1	-1E+10	1	-1E+10	1	-1E+10	1	-1E+10	1
4901784	16	C	12/12/2015	10:42	-130.732	45.694	0	66.70	0	12.5350	0	32.6410	0	24.658	0	66.144	0	248.0	4	93.7	4	-1E+10	1	-1E+10	1	-1E+10	1	-1E+10	1	-1E+10	1	-1E+10	1
4901784	16	C	12/12/2015	10:42	-130.732	45.694	0	68.70	0	12.5370	0	32.6430	0	24.660	0	68.127	0	247.7	4	93.6	4	-1E+10	1	-1E+10	1	-1E+10	1	-1E+10	1	-1E+10	1	-1E+10	1
4901784	16	C	12/12/2015	10:42	-130.732	45.694	0	70.80	0	12.5360	0	32.6430	0	24.660	0	70.209	0	247.4	4	93.5	4	-1E+10	1	-1E+10	1	-1E+10	1	-1E+10	1	-1E+10	1	-1E+10	1
4901784	16	C	12/12/2015	10:42	-130.732	45.694	0	72.80	0	12.5340	0	32.6430	0	24.660	0	72.192	0	247.4	4	93.5	4	-1E+10	1	-1E+10	1	-1E+10	1	-1E+10	1	-1E+10	1	-1E+10	1
4901784	16	C	12/12/2015	10:42	-130.732	45.694	0	74.90	0	12.5380	0	32.6510	0	24.666	0	74.274	0	247.4	4	93.5	4	-1E+10	1	-1E+10	1	-1E+10	1	-1E+10	1	-1E+10	1	-1E+10	1
4901784	16	C	12/12/2015	10:42	-130.732	45.694	0	76.90	0	12.5390	0	32.6540	0	24.668	0	76.257	0	247.2	4	93.4	4	-1E+10	1	-1E+10	1	-1E+10	1	-1E+10	1	-1E+10	1	-1E+10	1
4901784	16	C	12/12/2015	10:42	-130.732	45.694	0	79.00	0	12.5370	0	32.6560	0	24.670	0	78.339	0	246.9	4	93.3	4	-1E+10	1	-1E+10	1	-1E+10	1	-1E+10	1	-1E+10	1	-1E+10	1
4901784	16	C	12/12/2015	10:42	-130.732	45.694	0	80.90	0	12.5310	0	32.6550	0	24.670	0	80.222	0	246.4	4	93.1	4	-1E+10	1	-1E+10	1	-1E+10	1	-1E+10	1	-1E+10	1	-1E+10	1
4901784	16	C	12/12/2015	10:42	-130.732	45.694	0	83.20	0	12.5170	0	32.6520	0	24.671	0	82.503	0	245.8	4	92.8	4	-1E+10	1	-1E+10	1	-1E+10	1	-1E+10	1	-1E+10	1	-1E+10	1
4901784	16	C	12/12/2015	10:42	-130.732	45.694	0	83.80	0	12.5150	0	32.6530	0	24.672	0	83.098	0	245.6	4	92.8	4	-1E+10	1	-1E+10	1	-1E+10	1	-1E+10	1	-1E+10	1	-1E+10	1
4901784	16	C	12/12/2015	10:42	-130.732	45.694	0	85.60	0	12.5220	0	32.6520	0	24.670	0	84.882	0	245.1	4	92.6	4	-1E+10	1	-1E+10	1	-1E+10	1	-1E+10	1	-1E+10	1	-1E+10	1
4901784	16	C	12/12/2015	10:42	-130.732	45.694	0	87.30	0	12.5190	0	32.6510	0	24.670	0	86.567	0	243.9	4	92.1	4	-1E+10	1	-1E+10	1	-1E+10	1	-1E+10	1	-1E+10	1	-1E+10	1
4901784	16	C	12/12/2015	10:42	-130.732	45.694	0	88.90	0	12.5200	0	32.6490	0	24.668	0	88.154	0	243.0	4	91.8	4	-1E+10	1	-1E+10	1	-1E+10	1	-1E+10	1	-1E+10	1	-1E+10	1
4901784	16	C	12/12/2015	10:42	-130.732	45.694	0	90.50	0	12.4990	0	32.6410	0	24.666	0	89.740	0	241.4	4	91.1	4	-1E+10	1	-1E+10	1	-1E+10	1	-1E+10	1	-1E+10	1	-1E+10	1
4901784	16	C	12/12/2015	10:42	-130.732	45.694	0	92.10	0	12.4050	0	32.6320	0	24.677	0	91.326	0	239.4	4	90.2	4	-1E+10	1	-1E+10	1	-1E+10	1	-1E+10	1	-1E+10	1	-1E+10	1
4901784	16	C	12/12/2015	10:42	-130.732	45.694	0	93.70	0	12.1910	0	32.6120	0	24.702	0	92.912	0	238.5	4	89.4	4	-1E+10	1	-1E+10	1	-1E+10	1	-1E+10	1	-1E+10	1	-1E+10	1
4901784	16	C	12/12/2015	10:42	-130.732	45.694	0	95.30	0	12.1410	0	32.6080	0	24.708	0	94.499	0	236.6	4	88.6	4	-1E+10	1	-1E+10	1	-1E+10	1	-1E+10	1	-1E+10	1	-1E+10	1
4901784	16	C	12/12/2015	10:42	-130.732	45.694	0	96.80	0	12.0470	0	32.6080	0	24.726	0	95.986	0	234.3	4	87.6	4	-1E+10	1	-1E+10	1	-1E+10	1	-1E+10	1	-1E+10	1	-1E+10	1
4901784	16	C	12/12/2015	10:42	-130.732	45.694	0	98.40	0	11.8550	0	32.6250	0	24.775	0	97.572	0	231.3	4	86.1	4	-1E+10	1	-1E+10	1	-1E+10	1	-1E+10	1	-1E+10	1	-1E+10	1
4901784	16	C	12/12/2015	10:42	-130.732	45.694	0	100.00	0	11.3950	0	32.6860	0	24.906	0	99.158	0	229.2	4	84.6	4	-1E+10	1	-1E+10	1	-1E+10	1	-1E+10	1	-1E+10	1	-1E+10	1
4901784	16	C	12/12/2015	10:42	-130.732	45.694	0	101.80	0	10.9360	0	32.7630	0	25.048	0	100.942	0	227.8	4	83.3	4	-1E+10	1	-1E+10	1	-1E+10	1	-1E+10	1	-1E+10	1	-1E+10	1
4901784	16	C	12/12/2015	10:42	-130.732	45.694	0	104.50	0	10.5520	0	32.8130	0	25.154	0	103.619	0	227.2	4	82.4	4	-1E+10	1	-1E+10	1	-1E+10	1	-1E+10	1	-1E+10	1	-1E+10	1
4901784	16	C	12/12/2015	10:42	-130.732	45.694	0	107.70	0	10.3290	0	32.8580	0	25.227	0	106.791	0	224.6	4	81.1	4	-1E+10	1	-1E+10	1	-1E+10	1	-1E+10	1	-1E+10	1	-1E+10	1
4901784	16	C	12/12/2015	10:42	-130.732	45.694	0	110.40	0	10.2460	0	32.8640	0	25.246	0	109.468	0	220.6	4	79.5	4	-1E+10	1	-1E+10	1	-1E+10	1	-1E+10	1	-1E+10	1	-1E+10	1
4901784	16	C	12/12/2015	10:42	-130.732	45.694	0	112.40	0	10.0590	0	32.8900	0	25.297	0	111.450	0	216.5	4	77.7	4	-1E+10	1	-1E+10	1	-1E+10	1	-1E+10	1	-1E+10	1	-1E+10	1
4901784	16	C	12/12/2015	10:42	-130.732	45.694	0	114.60	0	9.8490	0	32.8910	0	25.333	0	113.631	0	212.4	4	75.9	4	-1E+10	1	-1E+10	1	-1E+10	1	-1E+10	1	-1E+10	1	-1E+10	1
4901784	16	C	12/12/2015	10:42	-130.732	45.694	0	117.80	0	9.3590	0	32.9260	0	25.440	0	116.803	0	208.0	4	73.6	4	-1E+10	1	-1E+10	1	-1E+10	1	-1E+10	1	-1E+10	1	-1E+10	1
4901784	16	C	12/12/2015	10:42	-130.732	45.694	0	120.40	0	9.0080	0	32.9890	0	25.545	0	119.380	0	207.2	4	72.8	4	-1E+10	1	-1E+10	1	-1E+10	1	-1E+10	1	-1E+10	1	-1E+10	1
4901784	16	C	12/12/2015	10:42	-130.732	45.694	0	122.90	0	8.9070	0	33.0380	0	25.599	0	121.858	0	205.8	4	72.2	4	-1E+10	1	-1E+10	1	-1E+10	1	-1E+10	1	-1E+10	1	-1E+10	1
4901784	16	C	12/12/2015	10:42	-130.732	45.694	0	125.40	0	8.8780	0	33.0860	0	25.641	0	124.336	0	204.7	4	71.7	4	-1E+10	1	-1E+10	1	-1E+10	1	-1E+10	1	-1E+10	1	-1E+10	1
4901784	16	C	12/12/2015	10:42	-130.732	45.694	0	127.00	0	8.7620	0	33.1350	0	25.697	0	125.922	0	203.3	4	71.1	4	-1E+10	1	-1E+10	1	-1E+10	1	-1E+10	1	-1E+10	1	-1E+10	1
4901784	16	C	12/12/2015	10:42	-130.732	45.694	0	129.60	0	8.6050	0	33.1510	0	25.734	0	128.499	0	203.3	4	70.9	4	-1E+10	1	-1E+10	1	-1E+10	1	-1E+10	1	-1E+10	1	-1E+10	1
4901784	16	C	12/12/2015	10:42	-130.732	45.694	0	132.60	0	8.6360	0	33.1630	0	25.739	0	131.473	0	202.4	4	70.6	4	-1E+10	1	-1E+10	1	-1E+10	1	-1E+10	1	-1E+10	1	-1E+10	1
4901784	16	C	12/12/2015	10:42	-130.732	45.694	0	134.90	0	8.5140	0	33.1960	0	25.783	0	133.753	0	201.2	4	70.0	4	-1E+10	1	-1E+10	1	-1E+10	1	-1E+10	1	-1E+10	1	-1E+10	1
4901784	16	C	12/12/2015	10:42	-130.732	45.694	0	137.80	0	8.3720	0	33.2420	0	25.841	0	136.627	0	201.2	4	69.8	4	-1E+10	1	-1E+10	1	-1E+10	1	-1E+10	1	-1E+10	1	-1E+10	1
4901784	16	C	12/12/2015	10:42	-130.732	45.694	0	139.90	0	8.3690	0	33.2760	0	25.868	0	138.708	0	201.0	4	69.8	4	-1E+10	1	-1E+10	1	-1E+10	1	-1E+10	1	-1E+10	1	-1E+10	1
4901784	16	C	12/12/2015	10:42	-130.732	45.694	0	142.10	0	8.3730	0	33.2920	0	25.880	0	140.889	0	200.2	4	69.5	4	-1E+10	1	-1E+10	1	-1E+10	1	-1E+10	1	-1E+10	1	-1E+10	1
4901784	16	C	12/12/2015	10:42	-130.732	45.694	0	145.20	0	8.3340	0	33.3330	0	25.918	0	143.961	0	198.2	4	68.8	4	-1E+10	1	-1E+10	1	-1E+10	1	-1E+10	1	-1E+10	1	-1E+10	1
4901784	16	C	12/12/2015	10:42	-130.732	45.694	0	147.70	0	8.2450	0	33.4160	0	25.996	0	146.439	0	195.6	4	67.8	4	-1E+10	1	-1E+10	1	-1E+10	1	-1E+10	1	-1E+10	1	-1E+10	1
4901784	16	C	12/12/2015	10:42	-130.732	45.694	0	150.20	0	8.1810	0	33.4430	0	26.027	0	148.917	0	193.9	4	67.1	4	-1E+10	1	-1E+10	1	-1E+10	1	-1E+10	1	-1E+10	1	-1E+10	1
4901784	16	C	12/12/2015	10:42	-130.732	45.694	0	152.60	0	8.1350	0	33.4770	0	26.060	0	151.296	0	192.5	4	66.6	4	-1E+10	1	-1E+10	1	-1E+10	1	-1E+10	1	-1E+10	1	-1E+10	1
4901784	16	C	12/12/2015	10:42	-130.732	45.694	0	155.20	0	8.1330	0	33.4900	0	26.071	0	153.872	0	190.8	4	66.0	4	-1E+10	1	-1E+10	1	-1E+10	1	-1E+10	1	-1E+10	1	-1E+10	1
4901784	16	C	12/12/2015	10:42	-130.732	45.694	0	157.90	0	8.1020	0	33.5320	0	26.109	0	156.548	0	188.5	4	65.1	4	-1E+10	1	-1E+10	1	-1E+10	1	-1E+10	1	-1E+10	1	-1E+10	1
4901784	16	C	12/12/2015	10:42	-130.732	45.694	0	160.40	0	8.0800	0	33.5660	0	26.139	0	159.026	0	186.0	4	64.3	4	-1E+10	1	-1E+10	1	-1E+10	1	-1E+10	1	-1E+10	1	-1E+10	1
4901784	16	C	12/12/2015	10:42	-130.732	45.694	0	163.00	0	8.0500	0	33.6100	0	26.178	0	161.603	0	182.9	4	63.2	4	-1E+10	1	-1E+10	1	-1E+10	1	-1E+10	1	-1E+10	1	-1E+10	1
4901784	16	C	12/12/2015	10:42	-130.732	45.694	0	164.80	0	8.0310	0	33.6130	0	26.183	0	163.387	0	180.5	4	62.3	4	-1E+10	1	-1E+10	1	-1E+10	1	-1E+10	1	-1E+10	1	-1E+10	1
4901784	16	C	12/12/2015	10:42	-130.732	45.694	0	167.50	0	7.9460	0	33.6180	0	26.199	0	166.062	0	177.1	4	61.0	4	-1E+10	1	-1E+10	1	-1E+10	1	-1E+10	1	-1E+10	1	-1E+10	1
4901784	16	C	12/12/2015	10:42	-130.732	45.694	0	170.20	0	7.8900	0	33.6340	0	26.220	0	168.738	0	174.8	4	60.2	4	-1E+10	1	-1E+10	1	-1E+10	1	-1E+10	1	-1E+10	1	-1E+10	1
4901784	16	C	12/12/2015	10:42	-130.732	45.694	0	172.50	0	7.8430	0	33.6450	0	26.235	0	171.017	0	173.2	4	59.6	4	-1E+10	1	-1E+10	1	-1E+10	1	-1E+10	1	-1E+10	1	-1E+10	1
4901784	16	C	12/12/2015	10:42	-130.732	45.694	0	175.20	0	7.8350	0	33.6640	0	26.252	0	173.693	0	170.9	4	58.8	4	-1E+10	1	-1E+10	1	-1E+10	1	-1E+10	1	-1E+10	1	-1E+10	1
4901784	16	C	12/12/2015	10:42	-130.732	45.694	0	177.50	0	7.8270	0	33.6900	0	26.273	0	175.972	0	168.2	4	57.8	4	-1E+10	1	-1E+10	1	-1E+10	1	-1E+10	1	-1E+10	1	-1E+10	1
4901784	16	C	12/12/2015	10:42	-130.732	45.694	0	179.80	0	7.7620	0	33.7090	0	26.298	0	178.251	0	166.0	4	57.0	4	-1E+10	1	-1E+10	1	-1E+10	1	-1E+10	1	-1E+10	1	-1E+10	1
4901784	16	C	12/12/2015	10:42	-130.732	45.694	0	182.90	0	7.7300	0	33.7260	0	26.316	0	181.323	0	164.2	4	56.4	4	-1E+10	1	-1E+10	1	-1E+10	1	-1E+10	1	-1E+10	1	-1E+10	1
4901784	16	C	12/12/2015	10:42	-130.732	45.694	0	185.20	0	7.7060	0	33.7400	0	26.330	0	183.603	0	162.8	4	55.9	4	-1E+10	1	-1E+10	1	-1E+10	1	-1E+10	1	-1E+10	1	-1E+10	1
4901784	16	C	12/12/2015	10:42	-130.732	45.694	0	187.60	0	7.6800	0	33.7530	0	26.344	0	185.981	0	162.1	4	55.6	4	-1E+10	1	-1E+10	1	-1E+10	1	-1E+10	1	-1E+10	1	-1E+10	1
4901784	16	C	12/12/2015	10:42	-130.732	45.694	0	190.00	0	7.6680	0	33.7600	0	26.351	0	188.359	0	161.8	4	55.5	4	-1E+10	1	-1E+10	1	-1E+10	1	-1E+10	1	-1E+10	1	-1E+10	1
4901784	16	C	12/12/2015	10:42	-130.732	45.694	0	192.30	0	7.6560	0	33.7700	0	26.361	0	190.638	0	161.9	4	55.5	4	-1E+10	1	-1E+10	1	-1E+10	1	-1E+10	1	-1E+10	1	-1E+10	1
4901784	16	C	12/12/2015	10:42	-130.732	45.694	0	194.70	0	7.6420	0	33.7880	0	26.377	0	193.016	0	162.3	4	55.6	4	-1E+10	1	-1E+10	1	-1E+10	1	-1E+10	1	-1E+10	1	-1E+10	1
4901784	16	C	12/12/2015	10:42	-130.732	45.694	0	197.10	0	7.6450	0	33.8070	0	26.392	0	195.394	0	162.0	4	55.5	4	-1E+10	1	-1E+10	1	-1E+10	1	-1E+10	1	-1E+10	1	-1E+10	1
4901784	16	C	12/12/2015	10:42	-130.732	45.694	0	200.30	0	7.6120	0	33.8170	0	26.404	0	198.565	0	159.9	4	54.8	4	-1E+10	1	-1E+10	1	-1E+10	1	-1E+10	1	-1E+10	1	-1E+10	1
4901784	16	C	12/12/2015	10:42	-130.732	45.694	0	202.70	0	7.5810	0	33.8160	0	26.408	0	200.943	0	158.5	4	54.2	4	-1E+10	1	-1E+10	1	-1E+10	1	-1E+10	1	-1E+10	1	-1E+10	1
4901784	16	C	12/12/2015	10:42	-130.732	45.694	0	205.10	0	7.5470	0	33.8180	0	26.414	0	203.321	0	156.7	4	53.6	4	-1E+10	1	-1E+10	1	-1E+10	1	-1E+10	1	-1E+10	1	-1E+10	1
4901784	16	C	12/12/2015	10:42	-130.732	45.694	0	207.50	0	7.4940	0	33.8210	0	26.424	0	205.699	0	156.2	4	53.4	4	-1E+10	1	-1E+10	1	-1E+10	1	-1E+10	1	-1E+10	1	-1E+10	1
4901784	16	C	12/12/2015	10:42	-130.732	45.694	0	210.10	0	7.4410	0	33.8330	0	26.441	0	208.275	0	157.4	4	53.7	4	-1E+10	1	-1E+10	1	-1E+10	1	-1E+10	1	-1E+10	1	-1E+10	1
4901784	16	C	12/12/2015	10:42	-130.732	45.694	0	212.50	0	7.3940	0	33.8450	0	26.457	0	210.653	0	157.5	4	53.7	4	-1E+10	1	-1E+10	1	-1E+10	1	-1E+10	1	-1E+10	1	-1E+10	1
4901784	16	C	12/12/2015	10:42	-130.732	45.694	0	215.10	0	7.3640	0	33.8450	0	26.462	0	213.229	0	156.6	4	53.4	4	-1E+10	1	-1E+10	1	-1E+10	1	-1E+10	1	-1E+10	1	-1E+10	1
4901784	16	C	12/12/2015	10:42	-130.732	45.694	0	217.60	0	7.3260	0	33.8490	0	26.470	0	215.706	0	156.7	4	53.3	4	-1E+10	1	-1E+10	1	-1E+10	1	-1E+10	1	-1E+10	1	-1E+10	1
4901784	16	C	12/12/2015	10:42	-130.732	45.694	0	220.10	0	7.3000	0	33.8500	0	26.475	0	218.183	0	156.3	4	53.2	4	-1E+10	1	-1E+10	1	-1E+10	1	-1E+10	1	-1E+10	1	-1E+10	1
4901784	16	C	12/12/2015	10:42	-130.732	45.694	0	222.60	0	7.2430	0	33.8560	0	26.487	0	220.660	0	155.8	4	52.9	4	-1E+10	1	-1E+10	1	-1E+10	1	-1E+10	1	-1E+10	1	-1E+10	1
4901784	16	C	12/12/2015	10:42	-130.732	45.694	0	225.20	0	7.1890	0	33.8610	0	26.499	0	223.236	0	155.2	4	52.7	4	-1E+10	1	-1E+10	1	-1E+10	1	-1E+10	1	-1E+10	1	-1E+10	1
4901784	16	C	12/12/2015	10:42	-130.732	45.694	0	227.70	0	7.1700	0	33.8610	0	26.501	0	225.713	0	154.7	4	52.5	4	-1E+10	1	-1E+10	1	-1E+10	1	-1E+10	1	-1E+10	1	-1E+10	1
4901784	16	C	12/12/2015	10:42	-130.732	45.694	0	230.20	0	7.1600	0	33.8620	0	26.504	0	228.190	0	154.0	4	52.2	4	-1E+10	1	-1E+10	1	-1E+10	1	-1E+10	1	-1E+10	1	-1E+10	1
4901784	16	C	12/12/2015	10:42	-130.732	45.694	0	232.80	0	7.1440	0	33.8620	0	26.506	0	230.765	0	153.2	4	52.0	4	-1E+10	1	-1E+10	1	-1E+10	1	-1E+10	1	-1E+10	1	-1E+10	1
4901784	16	C	12/12/2015	10:42	-130.732	45.694	0	235.40	0	7.1280	0	33.8630	0	26.509	0	233.341	0	152.1	4	51.6	4	-1E+10	1	-1E+10	1	-1E+10	1	-1E+10	1	-1E+10	1	-1E+10	1
4901784	16	C	12/12/2015	10:42	-130.732	45.694	0	238.00	0	7.1190	0	33.8620	0	26.509	0	235.917	0	150.7	4	51.1	4	-1E+10	1	-1E+10	1	-1E+10	1	-1E+10	1	-1E+10	1	-1E+10	1
4901784	16	C	12/12/2015	10:42	-130.732	45.694	0	239.70	0	7.0970	0	33.8620	0	26.512	0	237.601	0	149.3	4	50.6	4	-1E+10	1	-1E+10	1	-1E+10	1	-1E+10	1	-1E+10	1	-1E+10	1
4901784	16	C	12/12/2015	10:42	-130.732	45.694	0	242.40	0	7.0140	0	33.8680	0	26.528	0	240.276	0	146.4	4	49.5	4	-1E+10	1	-1E+10	1	-1E+10	1	-1E+10	1	-1E+10	1	-1E+10	1
4901784	16	C	12/12/2015	10:42	-130.732	45.694	0	245.10	0	6.9550	0	33.8710	0	26.539	0	242.951	0	142.1	4	48.0	4	-1E+10	1	-1E+10	1	-1E+10	1	-1E+10	1	-1E+10	1	-1E+10	1
4901784	16	C	12/12/2015	10:42	-130.732	45.694	0	247.70	0	6.9090	0	33.8740	0	26.547	0	245.526	0	137.9	4	46.5	4	-1E+10	1	-1E+10	1	-1E+10	1	-1E+10	1	-1E+10	1	-1E+10	1
4901784	16	C	12/12/2015	10:42	-130.732	45.694	0	250.40	0	6.8830	0	33.8750	0	26.552	0	248.201	0	132.2	4	44.6	4	-1E+10	1	-1E+10	1	-1E+10	1	-1E+10	1	-1E+10	1	-1E+10	1
4901784	16	C	12/12/2015	10:42	-130.732	45.694	0	252.30	0	6.8410	0	33.8770	0	26.559	0	250.083	0	128.3	4	43.2	4	-1E+10	1	-1E+10	1	-1E+10	1	-1E+10	1	-1E+10	1	-1E+10	1
4901784	16	C	12/12/2015	10:42	-130.732	45.694	0	255.00	0	6.8020	0	33.8800	0	26.567	0	252.758	0	124.8	4	42.0	4	-1E+10	1	-1E+10	1	-1E+10	1	-1E+10	1	-1E+10	1	-1E+10	1
4901784	16	C	12/12/2015	10:42	-130.732	45.694	0	257.70	0	6.7630	0	33.8820	0	26.574	0	255.432	0	122.0	4	41.0	4	-1E+10	1	-1E+10	1	-1E+10	1	-1E+10	1	-1E+10	1	-1E+10	1
4901784	16	C	12/12/2015	10:42	-130.732	45.694	0	259.50	0	6.7550	0	33.8820	0	26.575	0	257.215	0	119.8	4	40.3	4	-1E+10	1	-1E+10	1	-1E+10	1	-1E+10	1	-1E+10	1	-1E+10	1
4901784	16	C	12/12/2015	10:42	-130.732	45.694	0	262.20	0	6.7030	0	33.8880	0	26.586	0	259.890	0	116.5	4	39.1	4	-1E+10	1	-1E+10	1	-1E+10	1	-1E+10	1	-1E+10	1	-1E+10	1
4901784	16	C	12/12/2015	10:42	-130.732	45.694	0	264.90	0	6.6490	0	33.8950	0	26.599	0	262.565	0	114.6	4	38.4	4	-1E+10	1	-1E+10	1	-1E+10	1	-1E+10	1	-1E+10	1	-1E+10	1
4901784	16	C	12/12/2015	10:42	-130.732	45.694	0	267.70	0	6.6380	0	33.8960	0	26.601	0	265.338	0	113.3	4	38.0	4	-1E+10	1	-1E+10	1	-1E+10	1	-1E+10	1	-1E+10	1	-1E+10	1
4901784	16	C	12/12/2015	10:42	-130.732	45.694	0	270.50	0	6.6270	0	33.8950	0	26.602	0	268.112	0	111.7	4	37.4	4	-1E+10	1	-1E+10	1	-1E+10	1	-1E+10	1	-1E+10	1	-1E+10	1
4901784	16	C	12/12/2015	10:42	-130.732	45.694	0	272.30	0	6.6220	0	33.8960	0	26.603	0	269.894	0	110.4	4	37.0	4	-1E+10	1	-1E+10	1	-1E+10	1	-1E+10	1	-1E+10	1	-1E+10	1
4901784	16	C	12/12/2015	10:42	-130.732	45.694	0	275.20	0	6.6030	0	33.8970	0	26.607	0	272.767	0	107.6	4	36.1	4	-1E+10	1	-1E+10	1	-1E+10	1	-1E+10	1	-1E+10	1	-1E+10	1
4901784	16	C	12/12/2015	10:42	-130.732	45.694	0	278.00	0	6.5820	0	33.8970	0	26.610	0	275.540	0	104.1	4	34.9	4	-1E+10	1	-1E+10	1	-1E+10	1	-1E+10	1	-1E+10	1	-1E+10	1
4901784	16	C	12/12/2015	10:42	-130.732	45.694	0	279.90	0	6.5560	0	33.9030	0	26.618	0	277.422	0	101.5	4	34.0	4	-1E+10	1	-1E+10	1	-1E+10	1	-1E+10	1	-1E+10	1	-1E+10	1
4901784	16	C	12/12/2015	10:42	-130.732	45.694	0	282.70	0	6.4900	0	33.9120	0	26.634	0	280.196	0	98.9	4	33.1	4	-1E+10	1	-1E+10	1	-1E+10	1	-1E+10	1	-1E+10	1	-1E+10	1
4901784	16	C	12/12/2015	10:42	-130.732	45.694	0	285.40	0	6.4360	0	33.9170	0	26.645	0	282.870	0	97.7	4	32.6	4	-1E+10	1	-1E+10	1	-1E+10	1	-1E+10	1	-1E+10	1	-1E+10	1
4901784	16	C	12/12/2015	10:42	-130.732	45.694	0	287.30	0	6.4260	0	33.9160	0	26.645	0	284.752	0	97.3	4	32.5	4	-1E+10	1	-1E+10	1	-1E+10	1	-1E+10	1	-1E+10	1	-1E+10	1
4901784	16	C	12/12/2015	10:42	-130.732	45.694	0	290.10	0	6.4030	0	33.9170	0	26.649	0	287.525	0	96.6	4	32.2	4	-1E+10	1	-1E+10	1	-1E+10	1	-1E+10	1	-1E+10	1	-1E+10	1
4901784	16	C	12/12/2015	10:42	-130.732	45.694	0	292.80	0	6.3750	0	33.9170	0	26.653	0	290.199	0	96.1	4	32.0	4	-1E+10	1	-1E+10	1	-1E+10	1	-1E+10	1	-1E+10	1	-1E+10	1
4901784	16	C	12/12/2015	10:42	-130.732	45.694	0	294.70	0	6.3520	0	33.9170	0	26.656	0	292.081	0	95.7	4	31.9	4	-1E+10	1	-1E+10	1	-1E+10	1	-1E+10	1	-1E+10	1	-1E+10	1
4901784	16	C	12/12/2015	10:42	-130.732	45.694	0	297.50	0	6.3090	0	33.9170	0	26.661	0	294.854	0	95.2	4	31.7	4	-1E+10	1	-1E+10	1	-1E+10	1	-1E+10	1	-1E+10	1	-1E+10	1
4901784	16	C	12/12/2015	10:42	-130.732	45.694	0	300.30	0	6.2770	0	33.9170	0	26.665	0	297.627	0	94.7	4	31.5	4	-1E+10	1	-1E+10	1	-1E+10	1	-1E+10	1	-1E+10	1	-1E+10	1
4901784	16	C	12/12/2015	10:42	-130.732	45.694	0	302.30	0	6.2400	0	33.9170	0	26.670	0	299.608	0	94.3	4	31.3	4	-1E+10	1	-1E+10	1	-1E+10	1	-1E+10	1	-1E+10	1	-1E+10	1
4901784	16	C	12/12/2015	10:42	-130.732	45.694	0	305.10	0	6.2050	0	33.9160	0	26.674	0	302.381	0	93.4	4	31.0	4	-1E+10	1	-1E+10	1	-1E+10	1	-1E+10	1	-1E+10	1	-1E+10	1
4901784	16	C	12/12/2015	10:42	-130.732	45.694	0	307.90	0	6.1690	0	33.9150	0	26.677	0	305.154	0	92.1	4	30.5	4	-1E+10	1	-1E+10	1	-1E+10	1	-1E+10	1	-1E+10	1	-1E+10	1
4901784	16	C	12/12/2015	10:42	-130.732	45.694	0	309.70	0	6.1460	0	33.9150	0	26.680	0	306.936	0	90.8	4	30.1	4	-1E+10	1	-1E+10	1	-1E+10	1	-1E+10	1	-1E+10	1	-1E+10	1
4901784	16	C	12/12/2015	10:42	-130.732	45.694	0	312.60	0	6.0910	0	33.9190	0	26.691	0	309.808	0	88.9	4	29.4	4	-1E+10	1	-1E+10	1	-1E+10	1	-1E+10	1	-1E+10	1	-1E+10	1
4901784	16	C	12/12/2015	10:42	-130.732	45.694	0	315.30	0	6.0510	0	33.9210	0	26.697	0	312.482	0	87.2	4	28.8	4	-1E+10	1	-1E+10	1	-1E+10	1	-1E+10	1	-1E+10	1	-1E+10	1
4901784	16	C	12/12/2015	10:42	-130.732	45.694	0	317.20	0	6.0350	0	33.9210	0	26.699	0	314.364	0	86.1	4	28.5	4	-1E+10	1	-1E+10	1	-1E+10	1	-1E+10	1	-1E+10	1	-1E+10	1
4901784	16	C	12/12/2015	10:42	-130.732	45.694	0	320.20	0	5.9860	0	33.9250	0	26.709	0	317.335	0	84.4	4	27.9	4	-1E+10	1	-1E+10	1	-1E+10	1	-1E+10	1	-1E+10	1	-1E+10	1
4901784	16	C	12/12/2015	10:42	-130.732	45.694	0	323.10	0	5.9670	0	33.9260	0	26.712	0	320.206	0	83.1	4	27.4	4	-1E+10	1	-1E+10	1	-1E+10	1	-1E+10	1	-1E+10	1	-1E+10	1
4901784	16	C	12/12/2015	10:42	-130.732	45.694	0	325.00	0	5.9380	0	33.9290	0	26.718	0	322.088	0	82.1	4	27.1	4	-1E+10	1	-1E+10	1	-1E+10	1	-1E+10	1	-1E+10	1	-1E+10	1
4901784	16	C	12/12/2015	10:42	-130.732	45.694	0	326.90	0	5.9230	0	33.9290	0	26.720	0	323.969	0	81.5	4	26.9	4	-1E+10	1	-1E+10	1	-1E+10	1	-1E+10	1	-1E+10	1	-1E+10	1
4901784	16	C	12/12/2015	10:42	-130.732	45.694	0	329.70	0	5.8770	0	33.9310	0	26.727	0	326.742	0	80.7	4	26.6	4	-1E+10	1	-1E+10	1	-1E+10	1	-1E+10	1	-1E+10	1	-1E+10	1
4901784	16	C	12/12/2015	10:42	-130.732	45.694	0	332.60	0	5.8570	0	33.9330	0	26.731	0	329.614	0	79.9	4	26.3	4	-1E+10	1	-1E+10	1	-1E+10	1	-1E+10	1	-1E+10	1	-1E+10	1
4901784	16	C	12/12/2015	10:42	-130.732	45.694	0	334.60	0	5.8440	0	33.9300	0	26.730	0	331.594	0	79.3	4	26.1	4	-1E+10	1	-1E+10	1	-1E+10	1	-1E+10	1	-1E+10	1	-1E+10	1
4901784	16	C	12/12/2015	10:42	-130.732	45.694	0	337.50	0	5.7920	0	33.9340	0	26.740	0	334.466	0	78.2	4	25.7	4	-1E+10	1	-1E+10	1	-1E+10	1	-1E+10	1	-1E+10	1	-1E+10	1
4901784	16	C	12/12/2015	10:42	-130.732	45.694	0	340.40	0	5.7670	0	33.9370	0	26.745	0	337.337	0	77.3	4	25.4	4	-1E+10	1	-1E+10	1	-1E+10	1	-1E+10	1	-1E+10	1	-1E+10	1
4901784	16	C	12/12/2015	10:42	-130.732	45.694	0	342.90	0	5.7540	0	33.9370	0	26.747	0	339.813	0	76.8	4	25.2	4	-1E+10	1	-1E+10	1	-1E+10	1	-1E+10	1	-1E+10	1	-1E+10	1
4901784	16	C	12/12/2015	10:42	-130.732	45.694	0	344.80	0	5.7530	0	33.9370	0	26.747	0	341.694	0	76.2	4	25.0	4	-1E+10	1	-1E+10	1	-1E+10	1	-1E+10	1	-1E+10	1	-1E+10	1
4901784	16	C	12/12/2015	10:42	-130.732	45.694	0	347.20	0	5.7450	0	33.9380	0	26.749	0	344.071	0	75.2	4	24.7	4	-1E+10	1	-1E+10	1	-1E+10	1	-1E+10	1	-1E+10	1	-1E+10	1
4901784	16	C	12/12/2015	10:42	-130.732	45.694	0	349.60	0	5.7300	0	33.9410	0	26.753	0	346.447	0	74.2	4	24.4	4	-1E+10	1	-1E+10	1	-1E+10	1	-1E+10	1	-1E+10	1	-1E+10	1
4901784	16	C	12/12/2015	10:42	-130.732	45.694	0	352.10	0	5.7210	0	33.9430	0	26.756	0	348.922	0	73.6	4	24.2	4	-1E+10	1	-1E+10	1	-1E+10	1	-1E+10	1	-1E+10	1	-1E+10	1
4901784	16	C	12/12/2015	10:42	-130.732	45.694	0	355.30	0	5.7110	0	33.9430	0	26.757	0	352.091	0	73.1	4	24.0	4	-1E+10	1	-1E+10	1	-1E+10	1	-1E+10	1	-1E+10	1	-1E+10	1
4901784	16	C	12/12/2015	10:42	-130.732	45.694	0	357.60	0	5.6940	0	33.9410	0	26.758	0	354.368	0	72.5	4	23.8	4	-1E+10	1	-1E+10	1	-1E+10	1	-1E+10	1	-1E+10	1	-1E+10	1
4901784	16	C	12/12/2015	10:42	-130.732	45.694	0	360.00	0	5.6570	0	33.9430	0	26.764	0	356.744	0	72.0	4	23.6	4	-1E+10	1	-1E+10	1	-1E+10	1	-1E+10	1	-1E+10	1	-1E+10	1
4901784	16	C	12/12/2015	10:42	-130.732	45.694	0	362.50	0	5.6160	0	33.9410	0	26.767	0	359.219	0	71.4	4	23.4	4	-1E+10	1	-1E+10	1	-1E+10	1	-1E+10	1	-1E+10	1	-1E+10	1
4901784	16	C	12/12/2015	10:42	-130.732	45.694	0	365.00	0	5.5840	0	33.9420	0	26.772	0	361.695	0	69.8	4	22.9	4	-1E+10	1	-1E+10	1	-1E+10	1	-1E+10	1	-1E+10	1	-1E+10	1
4901784	16	C	12/12/2015	10:42	-130.732	45.694	0	367.40	0	5.5740	0	33.9460	0	26.776	0	364.071	0	68.2	4	22.3	4	-1E+10	1	-1E+10	1	-1E+10	1	-1E+10	1	-1E+10	1	-1E+10	1
4901784	16	C	12/12/2015	10:42	-130.732	45.694	0	370.00	0	5.5530	0	33.9490	0	26.781	0	366.645	0	66.7	4	21.8	4	-1E+10	1	-1E+10	1	-1E+10	1	-1E+10	1	-1E+10	1	-1E+10	1
4901784	16	C	12/12/2015	10:42	-130.732	45.694	0	372.50	0	5.5410	0	33.9510	0	26.784	0	369.120	0	65.2	4	21.3	4	-1E+10	1	-1E+10	1	-1E+10	1	-1E+10	1	-1E+10	1	-1E+10	1
4901784	16	C	12/12/2015	10:42	-130.732	45.694	0	374.90	0	5.4870	0	33.9580	0	26.796	0	371.496	0	64.1	4	20.9	4	-1E+10	1	-1E+10	1	-1E+10	1	-1E+10	1	-1E+10	1	-1E+10	1
4901784	16	C	12/12/2015	10:42	-130.732	45.694	0	377.40	0	5.4630	0	33.9610	0	26.801	0	373.971	0	63.5	4	20.7	4	-1E+10	1	-1E+10	1	-1E+10	1	-1E+10	1	-1E+10	1	-1E+10	1
4901784	16	C	12/12/2015	10:42	-130.732	45.694	0	379.90	0	5.4550	0	33.9620	0	26.803	0	376.446	0	63.5	4	20.7	4	-1E+10	1	-1E+10	1	-1E+10	1	-1E+10	1	-1E+10	1	-1E+10	1
4901784	16	C	12/12/2015	10:42	-130.732	45.694	0	382.50	0	5.4520	0	33.9600	0	26.802	0	379.020	0	63.6	4	20.8	4	-1E+10	1	-1E+10	1	-1E+10	1	-1E+10	1	-1E+10	1	-1E+10	1
4901784	16	C	12/12/2015	10:42	-130.732	45.694	0	385.00	0	5.4300	0	33.9610	0	26.805	0	381.495	0	63.8	4	20.8	4	-1E+10	1	-1E+10	1	-1E+10	1	-1E+10	1	-1E+10	1	-1E+10	1
4901784	16	C	12/12/2015	10:42	-130.732	45.694	0	387.60	0	5.4190	0	33.9590	0	26.805	0	384.069	0	64.3	4	21.0	4	-1E+10	1	-1E+10	1	-1E+10	1	-1E+10	1	-1E+10	1	-1E+10	1
4901784	16	C	12/12/2015	10:42	-130.732	45.694	0	390.00	0	5.3700	0	33.9560	0	26.808	0	386.445	0	65.0	4	21.2	4	-1E+10	1	-1E+10	1	-1E+10	1	-1E+10	1	-1E+10	1	-1E+10	1
4901784	16	C	12/12/2015	10:42	-130.732	45.694	0	392.50	0	5.3200	0	33.9550	0	26.814	0	388.920	0	65.3	4	21.2	4	-1E+10	1	-1E+10	1	-1E+10	1	-1E+10	1	-1E+10	1	-1E+10	1
4901784	16	C	12/12/2015	10:42	-130.732	45.694	0	395.10	0	5.2830	0	33.9550	0	26.818	0	391.494	0	65.6	4	21.3	4	-1E+10	1	-1E+10	1	-1E+10	1	-1E+10	1	-1E+10	1	-1E+10	1
4901784	16	C	12/12/2015	10:42	-130.732	45.694	0	397.60	0	5.2540	0	33.9530	0	26.820	0	393.968	0	66.3	4	21.5	4	-1E+10	1	-1E+10	1	-1E+10	1	-1E+10	1	-1E+10	1	-1E+10	1
4901784	16	C	12/12/2015	10:42	-130.732	45.694	0	400.20	0	5.2170	0	33.9530	0	26.824	0	396.542	0	66.3	4	21.5	4	-1E+10	1	-1E+10	1	-1E+10	1	-1E+10	1	-1E+10	1	-1E+10	1
4901784	16	C	12/12/2015	10:42	-130.732	45.694	0	402.80	0	5.1880	0	33.9510	0	26.826	0	399.116	0	65.5	4	21.2	4	-1E+10	1	-1E+10	1	-1E+10	1	-1E+10	1	-1E+10	1	-1E+10	1
4901784	16	C	12/12/2015	10:42	-130.732	45.694	0	405.30	0	5.1770	0	33.9530	0	26.829	0	401.591	0	64.4	4	20.9	4	-1E+10	1	-1E+10	1	-1E+10	1	-1E+10	1	-1E+10	1	-1E+10	1
4901784	16	C	12/12/2015	10:42	-130.732	45.694	0	407.80	0	5.1680	0	33.9540	0	26.831	0	404.065	0	63.4	4	20.5	4	-1E+10	1	-1E+10	1	-1E+10	1	-1E+10	1	-1E+10	1	-1E+10	1
4901784	16	C	12/12/2015	10:42	-130.732	45.694	0	410.40	0	5.1430	0	33.9590	0	26.837	0	406.639	0	62.3	4	20.2	4	-1E+10	1	-1E+10	1	-1E+10	1	-1E+10	1	-1E+10	1	-1E+10	1
4901784	16	C	12/12/2015	10:42	-130.732	45.694	0	412.90	0	5.1410	0	33.9610	0	26.839	0	409.114	0	61.4	4	19.9	4	-1E+10	1	-1E+10	1	-1E+10	1	-1E+10	1	-1E+10	1	-1E+10	1
4901784	16	C	12/12/2015	10:42	-130.732	45.694	0	414.60	0	5.1060	0	33.9630	0	26.845	0	410.796	0	61.1	4	19.8	4	-1E+10	1	-1E+10	1	-1E+10	1	-1E+10	1	-1E+10	1	-1E+10	1
4901784	16	C	12/12/2015	10:42	-130.732	45.694	0	417.20	0	5.0750	0	33.9660	0	26.851	0	413.370	0	61.1	4	19.8	4	-1E+10	1	-1E+10	1	-1E+10	1	-1E+10	1	-1E+10	1	-1E+10	1
4901784	16	C	12/12/2015	10:42	-130.732	45.694	0	419.70	0	5.0070	0	33.9650	0	26.858	0	415.844	0	61.7	4	19.9	4	-1E+10	1	-1E+10	1	-1E+10	1	-1E+10	1	-1E+10	1	-1E+10	1
4901784	16	C	12/12/2015	10:42	-130.732	45.694	0	422.20	0	4.9560	0	33.9590	0	26.859	0	418.319	0	60.8	4	19.6	4	-1E+10	1	-1E+10	1	-1E+10	1	-1E+10	1	-1E+10	1	-1E+10	1
4901784	16	C	12/12/2015	10:42	-130.732	45.694	0	424.80	0	4.9820	0	33.9660	0	26.861	0	420.892	0	58.7	4	19.0	4	-1E+10	1	-1E+10	1	-1E+10	1	-1E+10	1	-1E+10	1	-1E+10	1
4901784	16	C	12/12/2015	10:42	-130.732	45.694	0	427.40	0	4.9620	0	33.9710	0	26.868	0	423.466	0	57.6	4	18.6	4	-1E+10	1	-1E+10	1	-1E+10	1	-1E+10	1	-1E+10	1	-1E+10	1
4901784	16	C	12/12/2015	10:42	-130.732	45.694	0	430.00	0	4.9630	0	33.9750	0	26.871	0	426.039	0	57.0	4	18.4	4	-1E+10	1	-1E+10	1	-1E+10	1	-1E+10	1	-1E+10	1	-1E+10	1
4901784	16	C	12/12/2015	10:42	-130.732	45.694	0	432.60	0	4.9670	0	33.9780	0	26.873	0	428.613	0	56.5	4	18.2	4	-1E+10	1	-1E+10	1	-1E+10	1	-1E+10	1	-1E+10	1	-1E+10	1
4901784	16	C	12/12/2015	10:42	-130.732	45.694	0	435.20	0	4.9040	0	33.9750	0	26.877	0	431.186	0	56.5	4	18.2	4	-1E+10	1	-1E+10	1	-1E+10	1	-1E+10	1	-1E+10	1	-1E+10	1
4901784	16	C	12/12/2015	10:42	-130.732	45.694	0	437.00	0	4.8990	0	33.9750	0	26.878	0	432.967	0	55.9	4	18.0	4	-1E+10	1	-1E+10	1	-1E+10	1	-1E+10	1	-1E+10	1	-1E+10	1
4901784	16	C	12/12/2015	10:42	-130.732	45.694	0	439.70	0	4.8920	0	33.9770	0	26.880	0	435.640	0	54.9	4	17.7	4	-1E+10	1	-1E+10	1	-1E+10	1	-1E+10	1	-1E+10	1	-1E+10	1
4901784	16	C	12/12/2015	10:42	-130.732	45.694	0	442.30	0	4.8790	0	33.9800	0	26.884	0	438.213	0	53.7	4	17.3	4	-1E+10	1	-1E+10	1	-1E+10	1	-1E+10	1	-1E+10	1	-1E+10	1
4901784	16	C	12/12/2015	10:42	-130.732	45.694	0	445.00	0	4.8680	0	33.9850	0	26.890	0	440.885	0	52.7	4	17.0	4	-1E+10	1	-1E+10	1	-1E+10	1	-1E+10	1	-1E+10	1	-1E+10	1
4901784	16	C	12/12/2015	10:42	-130.732	45.694	0	447.60	0	4.8530	0	33.9900	0	26.895	0	443.458	0	51.7	4	16.6	4	-1E+10	1	-1E+10	1	-1E+10	1	-1E+10	1	-1E+10	1	-1E+10	1
4901784	16	C	12/12/2015	10:42	-130.732	45.694	0	449.40	0	4.8550	0	33.9910	0	26.896	0	445.240	0	51.3	4	16.5	4	-1E+10	1	-1E+10	1	-1E+10	1	-1E+10	1	-1E+10	1	-1E+10	1
4901784	16	C	12/12/2015	10:42	-130.732	45.694	0	452.20	0	4.8410	0	33.9930	0	26.899	0	448.011	0	50.8	4	16.4	4	-1E+10	1	-1E+10	1	-1E+10	1	-1E+10	1	-1E+10	1	-1E+10	1
4901784	16	C	12/12/2015	10:42	-130.732	45.694	0	454.90	0	4.8340	0	33.9950	0	26.901	0	450.683	0	50.5	4	16.2	4	-1E+10	1	-1E+10	1	-1E+10	1	-1E+10	1	-1E+10	1	-1E+10	1
4901784	16	C	12/12/2015	10:42	-130.732	45.694	0	457.60	0	4.8190	0	33.9950	0	26.903	0	453.355	0	50.2	4	16.2	4	-1E+10	1	-1E+10	1	-1E+10	1	-1E+10	1	-1E+10	1	-1E+10	1
4901784	16	C	12/12/2015	10:42	-130.732	45.694	0	460.30	0	4.7930	0	33.9950	0	26.906	0	456.027	0	49.7	4	16.0	4	-1E+10	1	-1E+10	1	-1E+10	1	-1E+10	1	-1E+10	1	-1E+10	1
4901784	16	C	12/12/2015	10:42	-130.732	45.694	0	462.10	0	4.7800	0	33.9950	0	26.907	0	457.808	0	49.0	4	15.8	4	-1E+10	1	-1E+10	1	-1E+10	1	-1E+10	1	-1E+10	1	-1E+10	1
4901784	16	C	12/12/2015	10:42	-130.732	45.694	0	464.90	0	4.7720	0	34.0000	0	26.912	0	460.579	0	47.9	4	15.4	4	-1E+10	1	-1E+10	1	-1E+10	1	-1E+10	1	-1E+10	1	-1E+10	1
4901784	16	C	12/12/2015	10:42	-130.732	45.694	0	467.70	0	4.7600	0	34.0050	0	26.918	0	463.350	0	47.0	4	15.1	4	-1E+10	1	-1E+10	1	-1E+10	1	-1E+10	1	-1E+10	1	-1E+10	1
4901784	16	C	12/12/2015	10:42	-130.732	45.694	0	469.50	0	4.7790	0	34.0090	0	26.919	0	465.131	0	46.5	4	14.9	4	-1E+10	1	-1E+10	1	-1E+10	1	-1E+10	1	-1E+10	1	-1E+10	1
4901784	16	C	12/12/2015	10:42	-130.732	45.694	0	472.20	0	4.7630	0	34.0110	0	26.922	0	467.803	0	46.7	4	15.0	4	-1E+10	1	-1E+10	1	-1E+10	1	-1E+10	1	-1E+10	1	-1E+10	1
4901784	16	C	12/12/2015	10:42	-130.732	45.694	0	475.00	0	4.7300	0	34.0090	0	26.924	0	470.574	0	46.7	4	15.0	4	-1E+10	1	-1E+10	1	-1E+10	1	-1E+10	1	-1E+10	1	-1E+10	1
4901784	16	C	12/12/2015	10:42	-130.732	45.694	0	476.90	0	4.7280	0	34.0090	0	26.924	0	472.454	0	46.5	4	14.9	4	-1E+10	1	-1E+10	1	-1E+10	1	-1E+10	1	-1E+10	1	-1E+10	1
4901784	16	C	12/12/2015	10:42	-130.732	45.694	0	479.70	0	4.7170	0	34.0110	0	26.927	0	475.225	0	46.2	4	14.8	4	-1E+10	1	-1E+10	1	-1E+10	1	-1E+10	1	-1E+10	1	-1E+10	1
4901784	16	C	12/12/2015	10:42	-130.732	45.694	0	482.40	0	4.7120	0	34.0120	0	26.929	0	477.896	0	45.8	4	14.7	4	-1E+10	1	-1E+10	1	-1E+10	1	-1E+10	1	-1E+10	1	-1E+10	1
4901784	16	C	12/12/2015	10:42	-130.732	45.694	0	485.20	0	4.7040	0	34.0120	0	26.929	0	480.667	0	45.4	4	14.6	4	-1E+10	1	-1E+10	1	-1E+10	1	-1E+10	1	-1E+10	1	-1E+10	1
4901784	16	C	12/12/2015	10:42	-130.732	45.694	0	488.00	0	4.6990	0	34.0130	0	26.931	0	483.438	0	44.8	4	14.4	4	-1E+10	1	-1E+10	1	-1E+10	1	-1E+10	1	-1E+10	1	-1E+10	1
4901784	16	C	12/12/2015	10:42	-130.732	45.694	0	489.90	0	4.6930	0	34.0150	0	26.933	0	485.318	0	44.3	4	14.2	4	-1E+10	1	-1E+10	1	-1E+10	1	-1E+10	1	-1E+10	1	-1E+10	1
4901784	16	C	12/12/2015	10:42	-130.732	45.694	0	492.70	0	4.6850	0	34.0170	0	26.936	0	488.088	0	43.4	4	13.9	4	-1E+10	1	-1E+10	1	-1E+10	1	-1E+10	1	-1E+10	1	-1E+10	1
4901784	16	C	12/12/2015	10:42	-130.732	45.694	0	495.40	0	4.6840	0	34.0210	0	26.939	0	490.760	0	42.5	4	13.6	4	-1E+10	1	-1E+10	1	-1E+10	1	-1E+10	1	-1E+10	1	-1E+10	1
4901784	16	C	12/12/2015	10:42	-130.732	45.694	0	497.30	0	4.6810	0	34.0260	0	26.943	0	492.640	0	42.0	4	13.5	4	-1E+10	1	-1E+10	1	-1E+10	1	-1E+10	1	-1E+10	1	-1E+10	1
4901784	16	C	12/12/2015	10:42	-130.732	45.694	0	500.20	0	4.6760	0	34.0270	0	26.945	0	495.509	0	41.5	4	13.3	4	-1E+10	1	-1E+10	1	-1E+10	1	-1E+10	1	-1E+10	1	-1E+10	1
4901784	16	C	12/12/2015	10:42	-130.732	45.694	0	504.80	0	4.6700	0	34.0290	0	26.947	0	500.060	0	40.6	4	13.0	4	-1E+10	1	-1E+10	1	-1E+10	1	-1E+10	1	-1E+10	1	-1E+10	1
4901784	16	C	12/12/2015	10:42	-130.732	45.694	0	510.10	0	4.6570	0	34.0320	0	26.951	0	505.304	0	39.3	4	12.6	4	-1E+10	1	-1E+10	1	-1E+10	1	-1E+10	1	-1E+10	1	-1E+10	1
4901784	16	C	12/12/2015	10:42	-130.732	45.694	0	514.50	0	4.6380	0	34.0370	0	26.957	0	509.657	0	37.6	4	12.0	4	-1E+10	1	-1E+10	1	-1E+10	1	-1E+10	1	-1E+10	1	-1E+10	1
4901784	16	C	12/12/2015	10:42	-130.732	45.694	0	520.00	0	4.6150	0	34.0490	0	26.969	0	515.099	0	35.2	4	11.3	4	-1E+10	1	-1E+10	1	-1E+10	1	-1E+10	1	-1E+10	1	-1E+10	1
4901784	16	C	12/12/2015	10:42	-130.732	45.694	0	525.60	0	4.6200	0	34.0570	0	26.975	0	520.639	0	33.7	4	10.8	4	-1E+10	1	-1E+10	1	-1E+10	1	-1E+10	1	-1E+10	1	-1E+10	1
4901784	16	C	12/12/2015	10:42	-130.732	45.694	0	530.50	0	4.6230	0	34.0600	0	26.977	0	525.486	0	32.4	4	10.4	4	-1E+10	1	-1E+10	1	-1E+10	1	-1E+10	1	-1E+10	1	-1E+10	1
4901784	16	C	12/12/2015	10:42	-130.732	45.694	0	535.50	0	4.6140	0	34.0680	0	26.984	0	530.433	0	30.5	4	9.8	4	-1E+10	1	-1E+10	1	-1E+10	1	-1E+10	1	-1E+10	1	-1E+10	1
4901784	16	C	12/12/2015	10:42	-130.732	45.694	0	540.40	0	4.6280	0	34.0770	0	26.990	0	535.280	0	28.9	4	9.3	4	-1E+10	1	-1E+10	1	-1E+10	1	-1E+10	1	-1E+10	1	-1E+10	1
4901784	16	C	12/12/2015	10:42	-130.732	45.694	0	545.30	0	4.6080	0	34.0840	0	26.998	0	540.127	0	28.0	4	9.0	4	-1E+10	1	-1E+10	1	-1E+10	1	-1E+10	1	-1E+10	1	-1E+10	1
4901784	16	C	12/12/2015	10:42	-130.732	45.694	0	550.20	0	4.5830	0	34.0890	0	27.004	0	544.974	0	27.3	4	8.7	4	-1E+10	1	-1E+10	1	-1E+10	1	-1E+10	1	-1E+10	1	-1E+10	1
4901784	16	C	12/12/2015	10:42	-130.732	45.694	0	555.40	0	4.5650	0	34.0920	0	27.009	0	550.118	0	27.0	4	8.6	4	-1E+10	1	-1E+10	1	-1E+10	1	-1E+10	1	-1E+10	1	-1E+10	1
4901784	16	C	12/12/2015	10:42	-130.732	45.694	0	560.40	0	4.5490	0	34.0940	0	27.012	0	555.064	0	26.7	4	8.5	4	-1E+10	1	-1E+10	1	-1E+10	1	-1E+10	1	-1E+10	1	-1E+10	1
4901784	16	C	12/12/2015	10:42	-130.732	45.694	0	565.50	0	4.5300	0	34.0960	0	27.016	0	560.109	0	26.3	4	8.4	4	-1E+10	1	-1E+10	1	-1E+10	1	-1E+10	1	-1E+10	1	-1E+10	1
4901784	16	C	12/12/2015	10:42	-130.732	45.694	0	569.90	0	4.5110	0	34.0980	0	27.019	0	564.461	0	25.8	4	8.2	4	-1E+10	1	-1E+10	1	-1E+10	1	-1E+10	1	-1E+10	1	-1E+10	1
4901784	16	C	12/12/2015	10:42	-130.732	45.694	0	574.30	0	4.5120	0	34.1040	0	27.024	0	568.813	0	25.1	4	8.0	4	-1E+10	1	-1E+10	1	-1E+10	1	-1E+10	1	-1E+10	1	-1E+10	1
4901784	16	C	12/12/2015	10:42	-130.732	45.694	0	579.50	0	4.5020	0	34.1090	0	27.029	0	573.956	0	24.6	4	7.8	4	-1E+10	1	-1E+10	1	-1E+10	1	-1E+10	1	-1E+10	1	-1E+10	1
4901784	16	C	12/12/2015	10:42	-130.732	45.694	0	584.80	0	4.4880	0	34.1120	0	27.033	0	579.198	0	24.1	4	7.7	4	-1E+10	1	-1E+10	1	-1E+10	1	-1E+10	1	-1E+10	1	-1E+10	1
4901784	16	C	12/12/2015	10:42	-130.732	45.694	0	590.20	0	4.4620	0	34.1160	0	27.039	0	584.538	0	23.9	4	7.6	4	-1E+10	1	-1E+10	1	-1E+10	1	-1E+10	1	-1E+10	1	-1E+10	1
4901784	16	C	12/12/2015	10:42	-130.732	45.694	0	595.50	0	4.4460	0	34.1180	0	27.043	0	589.780	0	23.6	4	7.5	4	-1E+10	1	-1E+10	1	-1E+10	1	-1E+10	1	-1E+10	1	-1E+10	1
4901784	16	C	12/12/2015	10:42	-130.732	45.694	0	600.00	0	4.4390	0	34.1210	0	27.046	0	594.230	0	23.4	4	7.5	4	-1E+10	1	-1E+10	1	-1E+10	1	-1E+10	1	-1E+10	1	-1E+10	1
4901784	16	C	12/12/2015	10:42	-130.732	45.694	0	604.50	0	4.4380	0	34.1220	0	27.047	0	598.681	0	23.0	4	7.3	4	-1E+10	1	-1E+10	1	-1E+10	1	-1E+10	1	-1E+10	1	-1E+10	1
4901784	16	C	12/12/2015	10:42	-130.732	45.694	0	609.90	0	4.4230	0	34.1280	0	27.053	0	604.021	0	22.5	4	7.2	4	-1E+10	1	-1E+10	1	-1E+10	1	-1E+10	1	-1E+10	1	-1E+10	1
4901784	16	C	12/12/2015	10:42	-130.732	45.694	0	615.40	0	4.4060	0	34.1310	0	27.057	0	609.460	0	22.0	4	7.0	4	-1E+10	1	-1E+10	1	-1E+10	1	-1E+10	1	-1E+10	1	-1E+10	1
4901784	16	C	12/12/2015	10:42	-130.732	45.694	0	620.00	0	4.3960	0	34.1320	0	27.059	0	614.009	0	21.4	4	6.8	4	-1E+10	1	-1E+10	1	-1E+10	1	-1E+10	1	-1E+10	1	-1E+10	1
4901784	16	C	12/12/2015	10:42	-130.732	45.694	0	624.60	0	4.3700	0	34.1360	0	27.065	0	618.557	0	20.8	4	6.6	4	-1E+10	1	-1E+10	1	-1E+10	1	-1E+10	1	-1E+10	1	-1E+10	1
4901784	16	C	12/12/2015	10:42	-130.732	45.694	0	630.20	0	4.3570	0	34.1400	0	27.070	0	624.095	0	20.4	4	6.5	4	-1E+10	1	-1E+10	1	-1E+10	1	-1E+10	1	-1E+10	1	-1E+10	1
4901784	16	C	12/12/2015	10:42	-130.732	45.694	0	634.80	0	4.3540	0	34.1430	0	27.073	0	628.643	0	20.1	4	6.4	4	-1E+10	1	-1E+10	1	-1E+10	1	-1E+10	1	-1E+10	1	-1E+10	1
4901784	16	C	12/12/2015	10:42	-130.732	45.694	0	639.60	0	4.3450	0	34.1450	0	27.075	0	633.389	0	19.8	4	6.3	4	-1E+10	1	-1E+10	1	-1E+10	1	-1E+10	1	-1E+10	1	-1E+10	1
4901784	16	C	12/12/2015	10:42	-130.732	45.694	0	645.20	0	4.3390	0	34.1480	0	27.078	0	638.926	0	19.2	4	6.1	4	-1E+10	1	-1E+10	1	-1E+10	1	-1E+10	1	-1E+10	1	-1E+10	1
4901784	16	C	12/12/2015	10:42	-130.732	45.694	0	649.80	0	4.3310	0	34.1540	0	27.084	0	643.475	0	18.6	4	5.9	4	-1E+10	1	-1E+10	1	-1E+10	1	-1E+10	1	-1E+10	1	-1E+10	1
4901784	16	C	12/12/2015	10:42	-130.732	45.694	0	654.40	0	4.3090	0	34.1570	0	27.089	0	648.023	0	18.2	4	5.8	4	-1E+10	1	-1E+10	1	-1E+10	1	-1E+10	1	-1E+10	1	-1E+10	1
4901784	16	C	12/12/2015	10:42	-130.732	45.694	0	660.00	0	4.2930	0	34.1600	0	27.093	0	653.559	0	17.8	4	5.7	4	-1E+10	1	-1E+10	1	-1E+10	1	-1E+10	1	-1E+10	1	-1E+10	1
4901784	16	C	12/12/2015	10:42	-130.732	45.694	0	664.80	0	4.2830	0	34.1650	0	27.098	0	658.305	0	17.5	4	5.6	4	-1E+10	1	-1E+10	1	-1E+10	1	-1E+10	1	-1E+10	1	-1E+10	1
4901784	16	C	12/12/2015	10:42	-130.732	45.694	0	669.90	0	4.2710	0	34.1670	0	27.101	0	663.347	0	17.4	4	5.5	4	-1E+10	1	-1E+10	1	-1E+10	1	-1E+10	1	-1E+10	1	-1E+10	1
4901784	16	C	12/12/2015	10:42	-130.732	45.694	0	675.10	0	4.2520	0	34.1720	0	27.107	0	668.488	0	17.4	4	5.5	4	-1E+10	1	-1E+10	1	-1E+10	1	-1E+10	1	-1E+10	1	-1E+10	1
4901784	16	C	12/12/2015	10:42	-130.732	45.694	0	679.90	0	4.2330	0	34.1760	0	27.112	0	673.233	0	17.0	4	5.4	4	-1E+10	1	-1E+10	1	-1E+10	1	-1E+10	1	-1E+10	1	-1E+10	1
4901784	16	C	12/12/2015	10:42	-130.732	45.694	0	684.70	0	4.2100	0	34.1830	0	27.120	0	677.978	0	16.6	4	5.3	4	-1E+10	1	-1E+10	1	-1E+10	1	-1E+10	1	-1E+10	1	-1E+10	1
4901784	16	C	12/12/2015	10:42	-130.732	45.694	0	689.60	0	4.2020	0	34.1860	0	27.123	0	682.822	0	16.4	4	5.2	4	-1E+10	1	-1E+10	1	-1E+10	1	-1E+10	1	-1E+10	1	-1E+10	1
4901784	16	C	12/12/2015	10:42	-130.732	45.694	0	694.50	0	4.1940	0	34.1890	0	27.126	0	687.666	0	16.1	4	5.1	4	-1E+10	1	-1E+10	1	-1E+10	1	-1E+10	1	-1E+10	1	-1E+10	1
4901784	16	C	12/12/2015	10:42	-130.732	45.694	0	699.30	0	4.1900	0	34.1940	0	27.131	0	692.411	0	15.5	4	4.9	4	-1E+10	1	-1E+10	1	-1E+10	1	-1E+10	1	-1E+10	1	-1E+10	1
4901784	16	C	12/12/2015	10:42	-130.732	45.694	0	704.20	0	4.1880	0	34.2010	0	27.137	0	697.254	0	14.8	4	4.7	4	-1E+10	1	-1E+10	1	-1E+10	1	-1E+10	1	-1E+10	1	-1E+10	1
4901784	16	C	12/12/2015	10:42	-130.732	45.694	0	709.20	0	4.2120	0	34.2100	0	27.141	0	702.196	0	14.1	4	4.5	4	-1E+10	1	-1E+10	1	-1E+10	1	-1E+10	1	-1E+10	1	-1E+10	1
4901784	16	C	12/12/2015	10:42	-130.732	45.694	0	714.30	0	4.2250	0	34.2160	0	27.145	0	707.237	0	13.8	4	4.4	4	-1E+10	1	-1E+10	1	-1E+10	1	-1E+10	1	-1E+10	1	-1E+10	1
4901784	16	C	12/12/2015	10:42	-130.732	45.694	0	719.40	0	4.1880	0	34.2200	0	27.152	0	712.278	0	13.8	4	4.4	4	-1E+10	1	-1E+10	1	-1E+10	1	-1E+10	1	-1E+10	1	-1E+10	1
4901784	16	C	12/12/2015	10:42	-130.732	45.694	0	724.40	0	4.1640	0	34.2210	0	27.155	0	717.220	0	13.7	4	4.3	4	-1E+10	1	-1E+10	1	-1E+10	1	-1E+10	1	-1E+10	1	-1E+10	1
4901784	16	C	12/12/2015	10:42	-130.732	45.694	0	729.60	0	4.1550	0	34.2250	0	27.159	0	722.360	0	13.2	4	4.2	4	-1E+10	1	-1E+10	1	-1E+10	1	-1E+10	1	-1E+10	1	-1E+10	1
4901784	16	C	12/12/2015	10:42	-130.732	45.694	0	734.90	0	4.1690	0	34.2350	0	27.166	0	727.598	0	12.8	4	4.1	4	-1E+10	1	-1E+10	1	-1E+10	1	-1E+10	1	-1E+10	1	-1E+10	1
4901784	16	C	12/12/2015	10:42	-130.732	45.694	0	740.10	0	4.1510	0	34.2380	0	27.170	0	732.737	0	12.7	4	4.0	4	-1E+10	1	-1E+10	1	-1E+10	1	-1E+10	1	-1E+10	1	-1E+10	1
4901784	16	C	12/12/2015	10:42	-130.732	45.694	0	745.40	0	4.1160	0	34.2410	0	27.176	0	737.975	0	12.7	4	4.0	4	-1E+10	1	-1E+10	1	-1E+10	1	-1E+10	1	-1E+10	1	-1E+10	1
4901784	16	C	12/12/2015	10:42	-130.732	45.694	0	750.60	0	4.0880	0	34.2430	0	27.181	0	743.114	0	12.7	4	4.0	4	-1E+10	1	-1E+10	1	-1E+10	1	-1E+10	1	-1E+10	1	-1E+10	1
4901784	16	C	12/12/2015	10:42	-130.732	45.694	0	755.00	0	4.0790	0	34.2460	0	27.184	0	747.462	0	12.6	4	4.0	4	-1E+10	1	-1E+10	1	-1E+10	1	-1E+10	1	-1E+10	1	-1E+10	1
4901784	16	C	12/12/2015	10:42	-130.732	45.694	0	759.40	0	4.0680	0	34.2480	0	27.187	0	751.810	0	12.6	4	4.0	4	-1E+10	1	-1E+10	1	-1E+10	1	-1E+10	1	-1E+10	1	-1E+10	1
4901784	16	C	12/12/2015	10:42	-130.732	45.694	0	764.70	0	4.0520	0	34.2490	0	27.189	0	757.048	0	12.6	4	4.0	4	-1E+10	1	-1E+10	1	-1E+10	1	-1E+10	1	-1E+10	1	-1E+10	1
4901784	16	C	12/12/2015	10:42	-130.732	45.694	0	770.10	0	4.0400	0	34.2490	0	27.191	0	762.384	0	12.6	4	4.0	4	-1E+10	1	-1E+10	1	-1E+10	1	-1E+10	1	-1E+10	1	-1E+10	1
4901784	16	C	12/12/2015	10:42	-130.732	45.694	0	775.50	0	4.0210	0	34.2510	0	27.194	0	767.720	0	12.6	4	4.0	4	-1E+10	1	-1E+10	1	-1E+10	1	-1E+10	1	-1E+10	1	-1E+10	1
4901784	16	C	12/12/2015	10:42	-130.732	45.694	0	779.90	0	4.0130	0	34.2530	0	27.197	0	772.067	0	12.6	4	4.0	4	-1E+10	1	-1E+10	1	-1E+10	1	-1E+10	1	-1E+10	1	-1E+10	1
4901784	16	C	12/12/2015	10:42	-130.732	45.694	0	784.30	0	3.9850	0	34.2520	0	27.199	0	776.415	0	12.7	4	4.0	4	-1E+10	1	-1E+10	1	-1E+10	1	-1E+10	1	-1E+10	1	-1E+10	1
4901784	16	C	12/12/2015	10:42	-130.732	45.694	0	789.60	0	3.9410	0	34.2520	0	27.203	0	781.652	0	12.7	4	4.0	4	-1E+10	1	-1E+10	1	-1E+10	1	-1E+10	1	-1E+10	1	-1E+10	1
4901784	16	C	12/12/2015	10:42	-130.732	45.694	0	794.80	0	3.9230	0	34.2550	0	27.207	0	786.790	0	12.7	4	4.0	4	-1E+10	1	-1E+10	1	-1E+10	1	-1E+10	1	-1E+10	1	-1E+10	1
4901784	16	C	12/12/2015	10:42	-130.732	45.694	0	800.00	0	3.9070	0	34.2570	0	27.211	0	791.927	0	12.6	4	4.0	4	-1E+10	1	-1E+10	1	-1E+10	1	-1E+10	1	-1E+10	1	-1E+10	1
4901784	16	C	12/12/2015	10:42	-130.732	45.694	0	805.30	0	3.8870	0	34.2590	0	27.214	0	797.164	0	12.6	4	4.0	4	-1E+10	1	-1E+10	1	-1E+10	1	-1E+10	1	-1E+10	1	-1E+10	1
4901784	16	C	12/12/2015	10:42	-130.732	45.694	0	810.50	0	3.8850	0	34.2620	0	27.217	0	802.301	0	12.5	4	3.9	4	-1E+10	1	-1E+10	1	-1E+10	1	-1E+10	1	-1E+10	1	-1E+10	1
4901784	16	C	12/12/2015	10:42	-130.732	45.694	0	814.90	0	3.8760	0	34.2630	0	27.219	0	806.648	0	12.5	4	3.9	4	-1E+10	1	-1E+10	1	-1E+10	1	-1E+10	1	-1E+10	1	-1E+10	1
4901784	16	C	12/12/2015	10:42	-130.732	45.694	0	819.30	0	3.8520	0	34.2650	0	27.223	0	810.995	0	12.5	4	3.9	4	-1E+10	1	-1E+10	1	-1E+10	1	-1E+10	1	-1E+10	1	-1E+10	1
4901784	16	C	12/12/2015	10:42	-130.732	45.694	0	824.40	0	3.8280	0	34.2680	0	27.227	0	816.034	0	12.5	4	3.9	4	-1E+10	1	-1E+10	1	-1E+10	1	-1E+10	1	-1E+10	1	-1E+10	1
4901784	16	C	12/12/2015	10:42	-130.732	45.694	0	829.60	0	3.8170	0	34.2690	0	27.229	0	821.171	0	12.4	4	3.9	4	-1E+10	1	-1E+10	1	-1E+10	1	-1E+10	1	-1E+10	1	-1E+10	1
4901784	16	C	12/12/2015	10:42	-130.732	45.694	0	834.80	0	3.8020	0	34.2700	0	27.232	0	826.308	0	12.4	4	3.9	4	-1E+10	1	-1E+10	1	-1E+10	1	-1E+10	1	-1E+10	1	-1E+10	1
4901784	16	C	12/12/2015	10:42	-130.732	45.694	0	840.00	0	3.7780	0	34.2720	0	27.236	0	831.444	0	12.4	4	3.9	4	-1E+10	1	-1E+10	1	-1E+10	1	-1E+10	1	-1E+10	1	-1E+10	1
4901784	16	C	12/12/2015	10:42	-130.732	45.694	0	845.20	0	3.7400	0	34.2760	0	27.243	0	836.581	0	12.4	4	3.9	4	-1E+10	1	-1E+10	1	-1E+10	1	-1E+10	1	-1E+10	1	-1E+10	1
4901784	16	C	12/12/2015	10:42	-130.732	45.694	0	850.40	0	3.7240	0	34.2790	0	27.247	0	841.717	0	12.4	4	3.9	4	-1E+10	1	-1E+10	1	-1E+10	1	-1E+10	1	-1E+10	1	-1E+10	1
4901784	16	C	12/12/2015	10:42	-130.732	45.694	0	855.60	0	3.7090	0	34.2810	0	27.250	0	846.854	0	12.3	4	3.9	4	-1E+10	1	-1E+10	1	-1E+10	1	-1E+10	1	-1E+10	1	-1E+10	1
4901784	16	C	12/12/2015	10:42	-130.732	45.694	0	859.90	0	3.7010	0	34.2840	0	27.253	0	851.101	0	12.3	4	3.9	4	-1E+10	1	-1E+10	1	-1E+10	1	-1E+10	1	-1E+10	1	-1E+10	1
4901784	16	C	12/12/2015	10:42	-130.732	45.694	0	864.40	0	3.6890	0	34.2850	0	27.255	0	855.546	0	12.3	4	3.9	4	-1E+10	1	-1E+10	1	-1E+10	1	-1E+10	1	-1E+10	1	-1E+10	1
4901784	16	C	12/12/2015	10:42	-130.732	45.694	0	869.70	0	3.6590	0	34.2860	0	27.259	0	860.781	0	12.4	4	3.9	4	-1E+10	1	-1E+10	1	-1E+10	1	-1E+10	1	-1E+10	1	-1E+10	1
4901784	16	C	12/12/2015	10:42	-130.732	45.694	0	874.90	0	3.6150	0	34.2890	0	27.266	0	865.917	0	12.5	4	3.9	4	-1E+10	1	-1E+10	1	-1E+10	1	-1E+10	1	-1E+10	1	-1E+10	1
4901784	16	C	12/12/2015	10:42	-130.732	45.694	0	880.20	0	3.6000	0	34.2890	0	27.267	0	871.151	0	12.5	4	3.9	4	-1E+10	1	-1E+10	1	-1E+10	1	-1E+10	1	-1E+10	1	-1E+10	1
4901784	16	C	12/12/2015	10:42	-130.732	45.694	0	885.50	0	3.5880	0	34.2920	0	27.271	0	876.386	0	12.4	4	3.9	4	-1E+10	1	-1E+10	1	-1E+10	1	-1E+10	1	-1E+10	1	-1E+10	1
4901784	16	C	12/12/2015	10:42	-130.732	45.694	0	890.00	0	3.5580	0	34.2930	0	27.274	0	880.830	0	12.4	4	3.9	4	-1E+10	1	-1E+10	1	-1E+10	1	-1E+10	1	-1E+10	1	-1E+10	1
4901784	16	C	12/12/2015	10:42	-130.732	45.694	0	894.60	0	3.5300	0	34.2980	0	27.281	0	885.373	0	12.3	4	3.9	4	-1E+10	1	-1E+10	1	-1E+10	1	-1E+10	1	-1E+10	1	-1E+10	1
4901784	16	C	12/12/2015	10:42	-130.732	45.694	0	900.10	0	3.5150	0	34.3030	0	27.287	0	890.804	0	12.2	4	3.8	4	-1E+10	1	-1E+10	1	-1E+10	1	-1E+10	1	-1E+10	1	-1E+10	1
4901784	16	C	12/12/2015	10:42	-130.732	45.694	0	905.60	0	3.5120	0	34.3080	0	27.291	0	896.236	0	12.2	4	3.8	4	-1E+10	1	-1E+10	1	-1E+10	1	-1E+10	1	-1E+10	1	-1E+10	1
4901784	16	C	12/12/2015	10:42	-130.732	45.694	0	910.20	0	3.5100	0	34.3100	0	27.293	0	900.778	0	12.1	4	3.8	4	-1E+10	1	-1E+10	1	-1E+10	1	-1E+10	1	-1E+10	1	-1E+10	1
4901784	16	C	12/12/2015	10:42	-130.732	45.694	0	914.90	0	3.4890	0	34.3160	0	27.299	0	905.419	0	12.1	4	3.8	4	-1E+10	1	-1E+10	1	-1E+10	1	-1E+10	1	-1E+10	1	-1E+10	1
4901784	16	C	12/12/2015	10:42	-130.732	45.694	0	920.10	0	3.4520	0	34.3170	0	27.304	0	910.554	0	12.1	4	3.8	4	-1E+10	1	-1E+10	1	-1E+10	1	-1E+10	1	-1E+10	1	-1E+10	1
4901784	16	C	12/12/2015	10:42	-130.732	45.694	0	925.00	0	3.4380	0	34.3210	0	27.308	0	915.393	0	12.0	4	3.8	4	-1E+10	1	-1E+10	1	-1E+10	1	-1E+10	1	-1E+10	1	-1E+10	1
4901784	16	C	12/12/2015	10:42	-130.732	45.694	0	930.50	0	3.4360	0	34.3220	0	27.309	0	920.823	0	12.0	4	3.7	4	-1E+10	1	-1E+10	1	-1E+10	1	-1E+10	1	-1E+10	1	-1E+10	1
4901784	16	C	12/12/2015	10:42	-130.732	45.694	0	935.40	0	3.4280	0	34.3230	0	27.311	0	925.662	0	12.0	4	3.7	4	-1E+10	1	-1E+10	1	-1E+10	1	-1E+10	1	-1E+10	1	-1E+10	1
4901784	16	C	12/12/2015	10:42	-130.732	45.694	0	940.30	0	3.4150	0	34.3270	0	27.315	0	930.500	0	11.9	4	3.7	4	-1E+10	1	-1E+10	1	-1E+10	1	-1E+10	1	-1E+10	1	-1E+10	1
4901784	16	C	12/12/2015	10:42	-130.732	45.694	0	945.30	0	3.4040	0	34.3320	0	27.321	0	935.436	0	11.9	4	3.7	4	-1E+10	1	-1E+10	1	-1E+10	1	-1E+10	1	-1E+10	1	-1E+10	1
4901784	16	C	12/12/2015	10:42	-130.732	45.694	0	950.30	0	3.3930	0	34.3360	0	27.325	0	940.373	0	11.8	4	3.7	4	-1E+10	1	-1E+10	1	-1E+10	1	-1E+10	1	-1E+10	1	-1E+10	1
4901784	16	C	12/12/2015	10:42	-130.732	45.694	0	955.30	0	3.3860	0	34.3400	0	27.329	0	945.310	0	11.8	4	3.7	4	-1E+10	1	-1E+10	1	-1E+10	1	-1E+10	1	-1E+10	1	-1E+10	1
4901784	16	C	12/12/2015	10:42	-130.732	45.694	0	960.50	0	3.3860	0	34.3420	0	27.330	0	950.443	0	11.8	4	3.7	4	-1E+10	1	-1E+10	1	-1E+10	1	-1E+10	1	-1E+10	1	-1E+10	1
4901784	16	C	12/12/2015	10:42	-130.732	45.694	0	965.70	0	3.3820	0	34.3430	0	27.332	0	955.577	0	11.8	4	3.7	4	-1E+10	1	-1E+10	1	-1E+10	1	-1E+10	1	-1E+10	1	-1E+10	1
4901784	16	C	12/12/2015	10:42	-130.732	45.694	0	970.00	0	3.3760	0	34.3450	0	27.334	0	959.822	0	11.8	4	3.7	4	-1E+10	1	-1E+10	1	-1E+10	1	-1E+10	1	-1E+10	1	-1E+10	1
4901784	16	C	12/12/2015	10:42	-130.732	45.694	0	974.30	0	3.3730	0	34.3460	0	27.335	0	964.067	0	11.8	4	3.7	4	-1E+10	1	-1E+10	1	-1E+10	1	-1E+10	1	-1E+10	1	-1E+10	1
4901784	16	C	12/12/2015	10:42	-130.732	45.694	0	979.70	0	3.3620	0	34.3510	0	27.340	0	969.398	0	11.8	4	3.7	4	-1E+10	1	-1E+10	1	-1E+10	1	-1E+10	1	-1E+10	1	-1E+10	1
4901784	16	C	12/12/2015	10:42	-130.732	45.694	0	985.20	0	3.3560	0	34.3530	0	27.342	0	974.827	0	11.8	4	3.7	4	-1E+10	1	-1E+10	1	-1E+10	1	-1E+10	1	-1E+10	1	-1E+10	1
4901784	16	C	12/12/2015	10:42	-130.732	45.694	0	990.60	0	3.3420	0	34.3560	0	27.346	0	980.158	0	11.9	4	3.7	4	-1E+10	1	-1E+10	1	-1E+10	1	-1E+10	1	-1E+10	1	-1E+10	1
4901784	16	C	12/12/2015	10:42	-130.732	45.694	0	995.20	0	3.3390	0	34.3560	0	27.346	0	984.699	0	11.9	4	3.7	4	-1E+10	1	-1E+10	1	-1E+10	1	-1E+10	1	-1E+10	1	-1E+10	1
4901784	16	C	12/12/2015	10:42	-130.732	45.694	0	999.80	0	3.3290	0	34.3600	0	27.350	0	989.239	0	11.9	4	3.7	4	-1E+10	1	-1E+10	1	-1E+10	1	-1E+10	1	-1E+10	1	-1E+10	1
4901784	16	C	12/12/2015	10:42	-130.732	45.694	0	1005.30	0	3.3260	0	34.3600	0	27.351	0	994.668	0	11.9	4	3.7	4	-1E+10	1	-1E+10	1	-1E+10	1	-1E+10	1	-1E+10	1	-1E+10	1
4901784	16	C	12/12/2015	10:42	-130.732	45.694	0	1009.90	0	3.3210	0	34.3630	0	27.354	0	999.208	0	11.9	4	3.7	4	-1E+10	1	-1E+10	1	-1E+10	1	-1E+10	1	-1E+10	1	-1E+10	1
4901784	16	C	12/12/2015	10:42	-130.732	45.694	0	1014.50	0	3.3200	0	34.3630	0	27.354	0	1003.749	0	11.9	4	3.7	4	-1E+10	1	-1E+10	1	-1E+10	1	-1E+10	1	-1E+10	1	-1E+10	1
4901784	16	C	12/12/2015	10:42	-130.732	45.694	0	1020.10	0	3.3220	0	34.3660	0	27.356	0	1009.276	0	11.9	4	3.7	4	-1E+10	1	-1E+10	1	-1E+10	1	-1E+10	1	-1E+10	1	-1E+10	1
4901784	16	C	12/12/2015	10:42	-130.732	45.694	0	1024.90	0	3.3230	0	34.3670	0	27.357	0	1014.013	0	11.9	4	3.7	4	-1E+10	1	-1E+10	1	-1E+10	1	-1E+10	1	-1E+10	1	-1E+10	1
4901784	16	C	12/12/2015	10:42	-130.732	45.694	0	1029.60	0	3.3060	0	34.3680	0	27.359	0	1018.652	0	12.0	4	3.7	4	-1E+10	1	-1E+10	1	-1E+10	1	-1E+10	1	-1E+10	1	-1E+10	1
4901784	16	C	12/12/2015	10:42	-130.732	45.694	0	1035.30	0	3.2900	0	34.3700	0	27.362	0	1024.277	0	12.0	4	3.7	4	-1E+10	1	-1E+10	1	-1E+10	1	-1E+10	1	-1E+10	1	-1E+10	1
4901784	16	C	12/12/2015	10:42	-130.732	45.694	0	1040.10	0	3.2840	0	34.3720	0	27.364	0	1029.015	0	12.1	4	3.8	4	-1E+10	1	-1E+10	1	-1E+10	1	-1E+10	1	-1E+10	1	-1E+10	1
4901784	16	C	12/12/2015	10:42	-130.732	45.694	0	1044.90	0	3.2820	0	34.3750	0	27.367	0	1033.752	0	12.1	4	3.8	4	-1E+10	1	-1E+10	1	-1E+10	1	-1E+10	1	-1E+10	1	-1E+10	1
4901784	16	C	12/12/2015	10:42	-130.732	45.694	0	1049.60	0	3.2740	0	34.3780	0	27.370	0	1038.390	0	12.2	4	3.8	4	-1E+10	1	-1E+10	1	-1E+10	1	-1E+10	1	-1E+10	1	-1E+10	1
4901784	16	C	12/12/2015	10:42	-130.732	45.694	0	1054.40	0	3.2520	0	34.3800	0	27.374	0	1043.127	0	12.3	4	3.8	4	-1E+10	1	-1E+10	1	-1E+10	1	-1E+10	1	-1E+10	1	-1E+10	1
4901784	16	C	12/12/2015	10:42	-130.732	45.694	0	1059.90	0	3.2350	0	34.3810	0	27.376	0	1048.554	0	12.3	4	3.8	4	-1E+10	1	-1E+10	1	-1E+10	1	-1E+10	1	-1E+10	1	-1E+10	1
4901784	16	C	12/12/2015	10:42	-130.732	45.694	0	1065.00	0	3.2140	0	34.3840	0	27.381	0	1053.587	0	12.4	4	3.9	4	-1E+10	1	-1E+10	1	-1E+10	1	-1E+10	1	-1E+10	1	-1E+10	1
4901784	16	C	12/12/2015	10:42	-130.732	45.694	0	1070.80	0	3.1910	0	34.3880	0	27.386	0	1059.310	0	12.5	4	3.9	4	-1E+10	1	-1E+10	1	-1E+10	1	-1E+10	1	-1E+10	1	-1E+10	1
4901784	16	C	12/12/2015	10:42	-130.732	45.694	0	1075.80	0	3.1870	0	34.3890	0	27.387	0	1064.244	0	12.6	4	3.9	4	-1E+10	1	-1E+10	1	-1E+10	1	-1E+10	1	-1E+10	1	-1E+10	1
4901784	16	C	12/12/2015	10:42	-130.732	45.694	0	1080.70	0	3.1860	0	34.3890	0	27.387	0	1069.078	0	12.7	4	3.9	4	-1E+10	1	-1E+10	1	-1E+10	1	-1E+10	1	-1E+10	1	-1E+10	1
4901784	16	C	12/12/2015	10:42	-130.732	45.694	0	1085.70	0	3.1690	0	34.3920	0	27.391	0	1074.012	0	12.8	4	4.0	4	-1E+10	1	-1E+10	1	-1E+10	1	-1E+10	1	-1E+10	1	-1E+10	1
4901784	16	C	12/12/2015	10:42	-130.732	45.694	0	1090.70	0	3.1680	0	34.3970	0	27.395	0	1078.945	0	12.9	4	4.0	4	-1E+10	1	-1E+10	1	-1E+10	1	-1E+10	1	-1E+10	1	-1E+10	1
4901784	16	C	12/12/2015	10:42	-130.732	45.694	0	1094.90	0	3.1670	0	34.3990	0	27.397	0	1083.089	0	13.0	4	4.0	4	-1E+10	1	-1E+10	1	-1E+10	1	-1E+10	1	-1E+10	1	-1E+10	1
4901784	16	C	12/12/2015	10:42	-130.732	45.694	0	1099.20	0	3.1610	0	34.4010	0	27.399	0	1087.332	0	13.2	4	4.1	4	-1E+10	1	-1E+10	1	-1E+10	1	-1E+10	1	-1E+10	1	-1E+10	1
4901784	16	C	12/12/2015	10:42	-130.732	45.694	0	1104.70	0	3.1580	0	34.4050	0	27.403	0	1092.758	0	13.4	4	4.1	4	-1E+10	1	-1E+10	1	-1E+10	1	-1E+10	1	-1E+10	1	-1E+10	1
4901784	16	C	12/12/2015	10:42	-130.732	45.694	0	1110.20	0	3.1530	0	34.4070	0	27.405	0	1098.184	0	13.5	4	4.2	4	-1E+10	1	-1E+10	1	-1E+10	1	-1E+10	1	-1E+10	1	-1E+10	1
4901784	16	C	12/12/2015	10:42	-130.732	45.694	0	1114.90	0	3.1490	0	34.4080	0	27.406	0	1102.821	0	13.6	4	4.2	4	-1E+10	1	-1E+10	1	-1E+10	1	-1E+10	1	-1E+10	1	-1E+10	1
4901784	16	C	12/12/2015	10:42	-130.732	45.694	0	1119.60	0	3.1400	0	34.4100	0	27.408	0	1107.458	0	13.7	4	4.2	4	-1E+10	1	-1E+10	1	-1E+10	1	-1E+10	1	-1E+10	1	-1E+10	1
4901784	16	C	12/12/2015	10:42	-130.732	45.694	0	1125.30	0	3.1340	0	34.4100	0	27.409	0	1113.081	0	13.8	4	4.3	4	-1E+10	1	-1E+10	1	-1E+10	1	-1E+10	1	-1E+10	1	-1E+10	1
4901784	16	C	12/12/2015	10:42	-130.732	45.694	0	1130.00	0	3.1180	0	34.4130	0	27.413	0	1117.717	0	14.0	4	4.3	4	-1E+10	1	-1E+10	1	-1E+10	1	-1E+10	1	-1E+10	1	-1E+10	1
4901784	16	C	12/12/2015	10:42	-130.732	45.694	0	1134.80	0	3.1060	0	34.4150	0	27.416	0	1122.452	0	14.1	4	4.3	4	-1E+10	1	-1E+10	1	-1E+10	1	-1E+10	1	-1E+10	1	-1E+10	1
4901784	16	C	12/12/2015	10:42	-130.732	45.694	0	1140.40	0	3.0920	0	34.4160	0	27.418	0	1127.976	0	14.2	4	4.4	4	-1E+10	1	-1E+10	1	-1E+10	1	-1E+10	1	-1E+10	1	-1E+10	1
4901784	16	C	12/12/2015	10:42	-130.732	45.694	0	1145.10	0	3.0750	0	34.4180	0	27.421	0	1132.612	0	14.3	4	4.4	4	-1E+10	1	-1E+10	1	-1E+10	1	-1E+10	1	-1E+10	1	-1E+10	1
4901784	16	C	12/12/2015	10:42	-130.732	45.694	0	1149.90	0	3.0680	0	34.4190	0	27.422	0	1137.347	0	14.4	4	4.4	4	-1E+10	1	-1E+10	1	-1E+10	1	-1E+10	1	-1E+10	1	-1E+10	1
4901784	16	C	12/12/2015	10:42	-130.732	45.694	0	1154.80	0	3.0630	0	34.4200	0	27.424	0	1142.180	0	14.4	4	4.5	4	-1E+10	1	-1E+10	1	-1E+10	1	-1E+10	1	-1E+10	1	-1E+10	1
4901784	16	C	12/12/2015	10:42	-130.732	45.694	0	1159.60	0	3.0590	0	34.4200	0	27.424	0	1146.915	0	14.5	4	4.5	4	-1E+10	1	-1E+10	1	-1E+10	1	-1E+10	1	-1E+10	1	-1E+10	1
4901784	16	C	12/12/2015	10:42	-130.732	45.694	0	1165.40	0	3.0570	0	34.4210	0	27.425	0	1152.635	0	14.6	4	4.5	4	-1E+10	1	-1E+10	1	-1E+10	1	-1E+10	1	-1E+10	1	-1E+10	1
4901784	16	C	12/12/2015	10:42	-130.732	45.694	0	1170.20	0	3.0410	0	34.4240	0	27.429	0	1157.369	0	14.7	4	4.6	4	-1E+10	1	-1E+10	1	-1E+10	1	-1E+10	1	-1E+10	1	-1E+10	1
4901784	16	C	12/12/2015	10:42	-130.732	45.694	0	1175.20	0	3.0320	0	34.4240	0	27.430	0	1162.301	0	14.8	4	4.6	4	-1E+10	1	-1E+10	1	-1E+10	1	-1E+10	1	-1E+10	1	-1E+10	1
4901784	16	C	12/12/2015	10:42	-130.732	45.694	0	1180.10	0	3.0210	0	34.4270	0	27.433	0	1167.133	0	14.9	4	4.6	4	-1E+10	1	-1E+10	1	-1E+10	1	-1E+10	1	-1E+10	1	-1E+10	1
4901784	16	C	12/12/2015	10:42	-130.732	45.694	0	1185.00	0	3.0160	0	34.4270	0	27.434	0	1171.966	0	15.0	4	4.6	4	-1E+10	1	-1E+10	1	-1E+10	1	-1E+10	1	-1E+10	1	-1E+10	1
4901784	16	C	12/12/2015	10:42	-130.732	45.694	0	1190.00	0	3.0130	0	34.4280	0	27.435	0	1176.897	0	15.2	4	4.7	4	-1E+10	1	-1E+10	1	-1E+10	1	-1E+10	1	-1E+10	1	-1E+10	1
4901784	16	C	12/12/2015	10:42	-130.732	45.694	0	1194.80	0	3.0010	0	34.4300	0	27.438	0	1181.631	0	15.3	4	4.7	4	-1E+10	1	-1E+10	1	-1E+10	1	-1E+10	1	-1E+10	1	-1E+10	1
4901784	16	C	12/12/2015	10:42	-130.732	45.694	0	1199.70	0	2.9930	0	34.4320	0	27.440	0	1186.463	0	15.5	4	4.8	4	-1E+10	1	-1E+10	1	-1E+10	1	-1E+10	1	-1E+10	1	-1E+10	1
4901784	16	C	12/12/2015	10:42	-130.732	45.694	0	1204.60	0	2.9870	0	34.4320	0	27.440	0	1191.295	0	15.6	4	4.8	4	-1E+10	1	-1E+10	1	-1E+10	1	-1E+10	1	-1E+10	1	-1E+10	1
4901784	16	C	12/12/2015	10:42	-130.732	45.694	0	1209.50	0	2.9790	0	34.4340	0	27.443	0	1196.127	0	15.8	4	4.9	4	-1E+10	1	-1E+10	1	-1E+10	1	-1E+10	1	-1E+10	1	-1E+10	1
4901784	16	C	12/12/2015	10:42	-130.732	45.694	0	1214.50	0	2.9670	0	34.4360	0	27.446	0	1201.057	0	16.0	4	4.9	4	-1E+10	1	-1E+10	1	-1E+10	1	-1E+10	1	-1E+10	1	-1E+10	1
4901784	16	C	12/12/2015	10:42	-130.732	45.694	0	1220.50	0	2.9540	0	34.4380	0	27.448	0	1206.974	0	16.2	4	5.0	4	-1E+10	1	-1E+10	1	-1E+10	1	-1E+10	1	-1E+10	1	-1E+10	1
4901784	16	C	12/12/2015	10:42	-130.732	45.694	0	1225.40	0	2.9420	0	34.4400	0	27.451	0	1211.805	0	16.4	4	5.1	4	-1E+10	1	-1E+10	1	-1E+10	1	-1E+10	1	-1E+10	1	-1E+10	1
4901784	16	C	12/12/2015	10:42	-130.732	45.694	0	1230.40	0	2.9200	0	34.4420	0	27.455	0	1216.735	0	16.7	4	5.1	4	-1E+10	1	-1E+10	1	-1E+10	1	-1E+10	1	-1E+10	1	-1E+10	1
4901784	16	C	12/12/2015	10:42	-130.732	45.694	0	1235.30	0	2.9020	0	34.4450	0	27.459	0	1221.567	0	16.9	4	5.2	4	-1E+10	1	-1E+10	1	-1E+10	1	-1E+10	1	-1E+10	1	-1E+10	1
4901784	16	C	12/12/2015	10:42	-130.732	45.694	0	1239.90	0	2.8920	0	34.4460	0	27.460	0	1226.102	0	17.0	4	5.2	4	-1E+10	1	-1E+10	1	-1E+10	1	-1E+10	1	-1E+10	1	-1E+10	1
4901784	16	C	12/12/2015	10:42	-130.732	45.694	0	1245.40	0	2.8690	0	34.4480	0	27.464	0	1231.525	0	17.3	4	5.3	4	-1E+10	1	-1E+10	1	-1E+10	1	-1E+10	1	-1E+10	1	-1E+10	1
4901784	16	C	12/12/2015	10:42	-130.732	45.694	0	1250.10	0	2.8590	0	34.4500	0	27.466	0	1236.159	0	17.4	4	5.3	4	-1E+10	1	-1E+10	1	-1E+10	1	-1E+10	1	-1E+10	1	-1E+10	1
4901784	16	C	12/12/2015	10:42	-130.732	45.694	0	1254.80	0	2.8520	0	34.4500	0	27.467	0	1240.792	0	17.4	4	5.4	4	-1E+10	1	-1E+10	1	-1E+10	1	-1E+10	1	-1E+10	1	-1E+10	1
4901784	16	C	12/12/2015	10:42	-130.732	45.694	0	1260.50	0	2.8330	0	34.4510	0	27.470	0	1246.412	0	17.4	4	5.4	4	-1E+10	1	-1E+10	1	-1E+10	1	-1E+10	1	-1E+10	1	-1E+10	1
4901784	16	C	12/12/2015	10:42	-130.732	45.694	0	1264.60	0	2.8230	0	34.4510	0	27.471	0	1250.454	0	17.5	4	5.4	4	-1E+10	1	-1E+10	1	-1E+10	1	-1E+10	1	-1E+10	1	-1E+10	1
4901784	16	C	12/12/2015	10:42	-130.732	45.694	0	1269.50	0	2.8120	0	34.4520	0	27.472	0	1255.285	0	17.7	4	5.4	4	-1E+10	1	-1E+10	1	-1E+10	1	-1E+10	1	-1E+10	1	-1E+10	1
4901784	16	C	12/12/2015	10:42	-130.732	45.694	0	1274.30	0	2.8030	0	34.4540	0	27.475	0	1260.016	0	17.9	4	5.5	4	-1E+10	1	-1E+10	1	-1E+10	1	-1E+10	1	-1E+10	1	-1E+10	1
4901784	16	C	12/12/2015	10:42	-130.732	45.694	0	1280.00	0	2.7950	0	34.4560	0	27.477	0	1265.635	0	18.1	4	5.6	4	-1E+10	1	-1E+10	1	-1E+10	1	-1E+10	1	-1E+10	1	-1E+10	1
4901784	16	C	12/12/2015	10:42	-130.732	45.694	0	1285.80	0	2.7860	0	34.4570	0	27.479	0	1271.353	0	18.3	4	5.6	4	-1E+10	1	-1E+10	1	-1E+10	1	-1E+10	1	-1E+10	1	-1E+10	1
4901784	16	C	12/12/2015	10:42	-130.732	45.694	0	1290.00	0	2.7820	0	34.4570	0	27.479	0	1275.493	0	18.5	4	5.7	4	-1E+10	1	-1E+10	1	-1E+10	1	-1E+10	1	-1E+10	1	-1E+10	1
4901784	16	C	12/12/2015	10:42	-130.732	45.694	0	1294.30	0	2.7660	0	34.4590	0	27.482	0	1279.732	0	18.7	4	5.7	4	-1E+10	1	-1E+10	1	-1E+10	1	-1E+10	1	-1E+10	1	-1E+10	1
4901784	16	C	12/12/2015	10:42	-130.732	45.694	0	1299.40	0	2.7470	0	34.4610	0	27.485	0	1284.759	0	18.9	4	5.8	4	-1E+10	1	-1E+10	1	-1E+10	1	-1E+10	1	-1E+10	1	-1E+10	1
4901784	16	C	12/12/2015	10:42	-130.732	45.694	0	1304.60	0	2.7380	0	34.4620	0	27.487	0	1289.884	0	19.0	4	5.8	4	-1E+10	1	-1E+10	1	-1E+10	1	-1E+10	1	-1E+10	1	-1E+10	1
4901784	16	C	12/12/2015	10:42	-130.732	45.694	0	1309.80	0	2.7320	0	34.4630	0	27.488	0	1295.009	0	19.2	4	5.9	4	-1E+10	1	-1E+10	1	-1E+10	1	-1E+10	1	-1E+10	1	-1E+10	1
4901784	16	C	12/12/2015	10:42	-130.732	45.694	0	1315.00	0	2.7260	0	34.4640	0	27.490	0	1300.135	0	19.3	4	5.9	4	-1E+10	1	-1E+10	1	-1E+10	1	-1E+10	1	-1E+10	1	-1E+10	1
4901784	16	C	12/12/2015	10:42	-130.732	45.694	0	1320.20	0	2.7220	0	34.4650	0	27.491	0	1305.260	0	19.5	4	6.0	4	-1E+10	1	-1E+10	1	-1E+10	1	-1E+10	1	-1E+10	1	-1E+10	1
4901784	16	C	12/12/2015	10:42	-130.732	45.694	0	1325.40	0	2.7180	0	34.4650	0	27.491	0	1310.385	0	19.6	4	6.0	4	-1E+10	1	-1E+10	1	-1E+10	1	-1E+10	1	-1E+10	1	-1E+10	1
4901784	16	C	12/12/2015	10:42	-130.732	45.694	0	1330.70	0	2.7130	0	34.4660	0	27.492	0	1315.608	0	19.7	4	6.0	4	-1E+10	1	-1E+10	1	-1E+10	1	-1E+10	1	-1E+10	1	-1E+10	1
4901784	16	C	12/12/2015	10:42	-130.732	45.694	0	1335.20	0	2.7120	0	34.4670	0	27.493	0	1320.043	0	19.8	4	6.1	4	-1E+10	1	-1E+10	1	-1E+10	1	-1E+10	1	-1E+10	1	-1E+10	1
4901784	16	C	12/12/2015	10:42	-130.732	45.694	0	1339.80	0	2.7050	0	34.4670	0	27.494	0	1324.576	0	20.1	4	6.2	4	-1E+10	1	-1E+10	1	-1E+10	1	-1E+10	1	-1E+10	1	-1E+10	1
4901784	16	C	12/12/2015	10:42	-130.732	45.694	0	1345.00	0	2.6930	0	34.4690	0	27.497	0	1329.701	0	20.3	4	6.2	4	-1E+10	1	-1E+10	1	-1E+10	1	-1E+10	1	-1E+10	1	-1E+10	1
4901784	16	C	12/12/2015	10:42	-130.732	45.694	0	1350.10	0	2.6860	0	34.4710	0	27.499	0	1334.727	0	20.5	4	6.3	4	-1E+10	1	-1E+10	1	-1E+10	1	-1E+10	1	-1E+10	1	-1E+10	1
4901784	16	C	12/12/2015	10:42	-130.732	45.694	0	1355.60	0	2.6830	0	34.4710	0	27.499	0	1340.147	0	20.7	4	6.3	4	-1E+10	1	-1E+10	1	-1E+10	1	-1E+10	1	-1E+10	1	-1E+10	1
4901784	16	C	12/12/2015	10:42	-130.732	45.694	0	1360.40	0	2.6720	0	34.4720	0	27.501	0	1344.877	0	21.0	4	6.4	4	-1E+10	1	-1E+10	1	-1E+10	1	-1E+10	1	-1E+10	1	-1E+10	1
4901784	16	C	12/12/2015	10:42	-130.732	45.694	0	1365.30	0	2.6570	0	34.4750	0	27.505	0	1349.705	0	21.3	4	6.5	4	-1E+10	1	-1E+10	1	-1E+10	1	-1E+10	1	-1E+10	1	-1E+10	1
4901784	16	C	12/12/2015	10:42	-130.732	45.694	0	1370.20	0	2.6450	0	34.4760	0	27.507	0	1354.533	0	21.5	4	6.6	4	-1E+10	1	-1E+10	1	-1E+10	1	-1E+10	1	-1E+10	1	-1E+10	1
4901784	16	C	12/12/2015	10:42	-130.732	45.694	0	1375.10	0	2.6420	0	34.4760	0	27.507	0	1359.362	0	21.6	4	6.6	4	-1E+10	1	-1E+10	1	-1E+10	1	-1E+10	1	-1E+10	1	-1E+10	1
4901784	16	C	12/12/2015	10:42	-130.732	45.694	0	1380.10	0	2.6310	0	34.4770	0	27.509	0	1364.288	0	21.8	4	6.7	4	-1E+10	1	-1E+10	1	-1E+10	1	-1E+10	1	-1E+10	1	-1E+10	1
4901784	16	C	12/12/2015	10:42	-130.732	45.694	0	1385.10	0	2.6220	0	34.4780	0	27.510	0	1369.215	0	22.0	4	6.7	4	-1E+10	1	-1E+10	1	-1E+10	1	-1E+10	1	-1E+10	1	-1E+10	1
4901784	16	C	12/12/2015	10:42	-130.732	45.694	0	1390.20	0	2.6100	0	34.4800	0	27.513	0	1374.240	0	22.3	4	6.8	4	-1E+10	1	-1E+10	1	-1E+10	1	-1E+10	1	-1E+10	1	-1E+10	1
4901784	16	C	12/12/2015	10:42	-130.732	45.694	0	1395.20	0	2.6000	0	34.4810	0	27.514	0	1379.166	0	22.5	4	6.9	4	-1E+10	1	-1E+10	1	-1E+10	1	-1E+10	1	-1E+10	1	-1E+10	1
4901784	16	C	12/12/2015	10:42	-130.732	45.694	0	1400.30	0	2.5960	0	34.4820	0	27.516	0	1384.191	0	22.6	4	6.9	4	-1E+10	1	-1E+10	1	-1E+10	1	-1E+10	1	-1E+10	1	-1E+10	1
4901784	16	C	12/12/2015	10:42	-130.732	45.694	0	1405.40	0	2.5930	0	34.4820	0	27.516	0	1389.215	0	22.7	4	6.9	4	-1E+10	1	-1E+10	1	-1E+10	1	-1E+10	1	-1E+10	1	-1E+10	1
4901784	16	C	12/12/2015	10:42	-130.732	45.694	0	1410.50	0	2.5910	0	34.4830	0	27.517	0	1394.239	0	22.8	4	7.0	4	-1E+10	1	-1E+10	1	-1E+10	1	-1E+10	1	-1E+10	1	-1E+10	1
4901784	16	C	12/12/2015	10:42	-130.732	45.694	0	1415.50	0	2.5870	0	34.4830	0	27.517	0	1399.165	0	22.9	4	7.0	4	-1E+10	1	-1E+10	1	-1E+10	1	-1E+10	1	-1E+10	1	-1E+10	1
4901784	16	C	12/12/2015	10:42	-130.732	45.694	0	1420.60	0	2.5860	0	34.4830	0	27.517	0	1404.189	0	23.0	4	7.0	4	-1E+10	1	-1E+10	1	-1E+10	1	-1E+10	1	-1E+10	1	-1E+10	1
4901784	16	C	12/12/2015	10:42	-130.732	45.694	0	1425.60	0	2.5770	0	34.4840	0	27.519	0	1409.115	0	23.2	4	7.1	4	-1E+10	1	-1E+10	1	-1E+10	1	-1E+10	1	-1E+10	1	-1E+10	1
4901784	16	C	12/12/2015	10:42	-130.732	45.694	0	1430.70	0	2.5710	0	34.4850	0	27.520	0	1414.139	0	23.5	4	7.2	4	-1E+10	1	-1E+10	1	-1E+10	1	-1E+10	1	-1E+10	1	-1E+10	1
4901784	16	C	12/12/2015	10:42	-130.732	45.694	0	1435.70	0	2.5620	0	34.4860	0	27.522	0	1419.064	0	23.9	4	7.3	4	-1E+10	1	-1E+10	1	-1E+10	1	-1E+10	1	-1E+10	1	-1E+10	1
4901784	16	C	12/12/2015	10:42	-130.732	45.694	0	1440.10	0	2.5480	0	34.4890	0	27.526	0	1423.398	0	24.2	4	7.4	4	-1E+10	1	-1E+10	1	-1E+10	1	-1E+10	1	-1E+10	1	-1E+10	1
4901784	16	C	12/12/2015	10:42	-130.732	45.694	0	1444.40	0	2.5410	0	34.4890	0	27.526	0	1427.634	0	24.4	4	7.5	4	-1E+10	1	-1E+10	1	-1E+10	1	-1E+10	1	-1E+10	1	-1E+10	1
4901784	16	C	12/12/2015	10:42	-130.732	45.694	0	1449.60	0	2.5360	0	34.4900	0	27.527	0	1432.756	0	24.6	4	7.5	4	-1E+10	1	-1E+10	1	-1E+10	1	-1E+10	1	-1E+10	1	-1E+10	1
4901784	16	C	12/12/2015	10:42	-130.732	45.694	0	1454.80	0	2.5330	0	34.4910	0	27.528	0	1437.878	0	24.8	4	7.6	4	-1E+10	1	-1E+10	1	-1E+10	1	-1E+10	1	-1E+10	1	-1E+10	1
4901784	16	C	12/12/2015	10:42	-130.732	45.694	0	1459.90	0	2.5280	0	34.4920	0	27.530	0	1442.901	0	25.2	4	7.7	4	-1E+10	1	-1E+10	1	-1E+10	1	-1E+10	1	-1E+10	1	-1E+10	1
4901784	16	C	12/12/2015	10:42	-130.732	45.694	0	1465.10	0	2.5150	0	34.4940	0	27.532	0	1448.023	0	25.7	4	7.8	4	-1E+10	1	-1E+10	1	-1E+10	1	-1E+10	1	-1E+10	1	-1E+10	1
4901784	16	C	12/12/2015	10:42	-130.732	45.694	0	1470.20	0	2.5080	0	34.4950	0	27.534	0	1453.046	0	26.1	4	8.0	4	-1E+10	1	-1E+10	1	-1E+10	1	-1E+10	1	-1E+10	1	-1E+10	1
4901784	16	C	12/12/2015	10:42	-130.732	45.694	0	1475.50	0	2.4900	0	34.4980	0	27.538	0	1458.266	0	26.7	4	8.1	4	-1E+10	1	-1E+10	1	-1E+10	1	-1E+10	1	-1E+10	1	-1E+10	1
4901784	16	C	12/12/2015	10:42	-130.732	45.694	0	1479.90	0	2.4780	0	34.4990	0	27.540	0	1462.599	0	27.2	4	8.3	4	-1E+10	1	-1E+10	1	-1E+10	1	-1E+10	1	-1E+10	1	-1E+10	1
4901784	16	C	12/12/2015	10:42	-130.732	45.694	0	1484.30	0	2.4660	0	34.5010	0	27.542	0	1466.933	0	27.6	4	8.4	4	-1E+10	1	-1E+10	1	-1E+10	1	-1E+10	1	-1E+10	1	-1E+10	1
4901784	16	C	12/12/2015	10:42	-130.732	45.694	0	1489.60	0	2.4550	0	34.5030	0	27.545	0	1472.152	0	28.2	4	8.6	4	-1E+10	1	-1E+10	1	-1E+10	1	-1E+10	1	-1E+10	1	-1E+10	1
4901784	16	C	12/12/2015	10:42	-130.732	45.694	0	1494.80	0	2.4400	0	34.5050	0	27.548	0	1477.273	0	28.8	4	8.8	4	-1E+10	1	-1E+10	1	-1E+10	1	-1E+10	1	-1E+10	1	-1E+10	1
4901784	16	C	12/12/2015	10:42	-130.732	45.694	0	1500.10	0	2.4230	0	34.5070	0	27.551	0	1482.492	0	29.3	4	8.9	4	-1E+10	1	-1E+10	1	-1E+10	1	-1E+10	1	-1E+10	1	-1E+10	1
4901784	16	C	12/12/2015	10:42	-130.732	45.694	0	1505.40	0	2.4130	0	34.5080	0	27.552	0	1487.711	0	29.6	4	9.0	4	-1E+10	1	-1E+10	1	-1E+10	1	-1E+10	1	-1E+10	1	-1E+10	1
4901784	16	C	12/12/2015	10:42	-130.732	45.694	0	1509.90	0	2.4080	0	34.5090	0	27.554	0	1492.143	0	29.8	4	9.1	4	-1E+10	1	-1E+10	1	-1E+10	1	-1E+10	1	-1E+10	1	-1E+10	1
4901784	16	C	12/12/2015	10:42	-130.732	45.694	0	1514.40	0	2.4010	0	34.5100	0	27.555	0	1496.574	0	30.1	4	9.2	4	-1E+10	1	-1E+10	1	-1E+10	1	-1E+10	1	-1E+10	1	-1E+10	1
4901784	16	C	12/12/2015	10:42	-130.732	45.694	0	1519.80	0	2.3920	0	34.5110	0	27.557	0	1501.891	0	30.4	4	9.2	4	-1E+10	1	-1E+10	1	-1E+10	1	-1E+10	1	-1E+10	1	-1E+10	1
4901784	16	C	12/12/2015	10:42	-130.732	45.694	0	1525.20	0	2.3830	0	34.5120	0	27.558	0	1507.208	0	30.8	4	9.4	4	-1E+10	1	-1E+10	1	-1E+10	1	-1E+10	1	-1E+10	1	-1E+10	1
4901784	16	C	12/12/2015	10:42	-130.732	45.694	0	1530.60	0	2.3700	0	34.5140	0	27.561	0	1512.525	0	31.3	4	9.5	4	-1E+10	1	-1E+10	1	-1E+10	1	-1E+10	1	-1E+10	1	-1E+10	1
4901784	16	C	12/12/2015	10:42	-130.732	45.694	0	1535.20	0	2.3640	0	34.5150	0	27.562	0	1517.054	0	31.7	4	9.6	4	-1E+10	1	-1E+10	1	-1E+10	1	-1E+10	1	-1E+10	1	-1E+10	1
4901784	16	C	12/12/2015	10:42	-130.732	45.694	0	1539.90	0	2.3540	0	34.5160	0	27.564	0	1521.682	0	32.1	4	9.7	4	-1E+10	1	-1E+10	1	-1E+10	1	-1E+10	1	-1E+10	1	-1E+10	1
4901784	16	C	12/12/2015	10:42	-130.732	45.694	0	1545.50	0	2.3450	0	34.5170	0	27.565	0	1527.195	0	32.4	4	9.9	4	-1E+10	1	-1E+10	1	-1E+10	1	-1E+10	1	-1E+10	1	-1E+10	1
4901784	16	C	12/12/2015	10:42	-130.732	45.694	0	1550.20	0	2.3380	0	34.5180	0	27.567	0	1531.823	0	32.7	4	9.9	4	-1E+10	1	-1E+10	1	-1E+10	1	-1E+10	1	-1E+10	1	-1E+10	1
4901784	16	C	12/12/2015	10:42	-130.732	45.694	0	1554.90	0	2.3290	0	34.5200	0	27.569	0	1536.450	0	33.0	4	10.0	4	-1E+10	1	-1E+10	1	-1E+10	1	-1E+10	1	-1E+10	1	-1E+10	1
4901784	16	C	12/12/2015	10:42	-130.732	45.694	0	1560.50	0	2.3260	0	34.5200	0	27.569	0	1541.963	0	33.2	4	10.1	4	-1E+10	1	-1E+10	1	-1E+10	1	-1E+10	1	-1E+10	1	-1E+10	1
4901784	16	C	12/12/2015	10:42	-130.732	45.694	0	1565.10	0	2.3240	0	34.5210	0	27.570	0	1546.492	0	33.3	4	10.1	4	-1E+10	1	-1E+10	1	-1E+10	1	-1E+10	1	-1E+10	1	-1E+10	1
4901784	16	C	12/12/2015	10:42	-130.732	45.694	0	1569.80	0	2.3240	0	34.5210	0	27.570	0	1551.119	0	33.5	4	10.2	4	-1E+10	1	-1E+10	1	-1E+10	1	-1E+10	1	-1E+10	1	-1E+10	1
4901784	16	C	12/12/2015	10:42	-130.732	45.694	0	1575.10	0	2.3220	0	34.5210	0	27.571	0	1556.336	0	33.8	4	10.3	4	-1E+10	1	-1E+10	1	-1E+10	1	-1E+10	1	-1E+10	1	-1E+10	1
4901784	16	C	12/12/2015	10:42	-130.732	45.694	0	1579.40	0	2.3120	0	34.5220	0	27.572	0	1560.569	0	34.2	4	10.4	4	-1E+10	1	-1E+10	1	-1E+10	1	-1E+10	1	-1E+10	1	-1E+10	1
4901784	16	C	12/12/2015	10:42	-130.732	45.694	0	1584.30	0	2.3100	0	34.5240	0	27.574	0	1565.392	0	35.0	4	10.6	4	-1E+10	1	-1E+10	1	-1E+10	1	-1E+10	1	-1E+10	1	-1E+10	1
4901784	16	C	12/12/2015	10:42	-130.732	45.694	0	1590.00	0	2.2990	0	34.5270	0	27.577	0	1571.003	0	35.7	4	10.8	4	-1E+10	1	-1E+10	1	-1E+10	1	-1E+10	1	-1E+10	1	-1E+10	1
4901784	16	C	12/12/2015	10:42	-130.732	45.694	0	1595.80	0	2.2880	0	34.5280	0	27.579	0	1576.712	0	36.0	4	10.9	4	-1E+10	1	-1E+10	1	-1E+10	1	-1E+10	1	-1E+10	1	-1E+10	1
4901784	16	C	12/12/2015	10:42	-130.732	45.694	0	1600.70	0	2.2810	0	34.5290	0	27.580	0	1581.535	0	36.4	4	11.0	4	-1E+10	1	-1E+10	1	-1E+10	1	-1E+10	1	-1E+10	1	-1E+10	1
4901784	16	C	12/12/2015	10:42	-130.732	45.694	0	1605.80	0	2.2750	0	34.5300	0	27.582	0	1586.555	0	37.0	4	11.2	4	-1E+10	1	-1E+10	1	-1E+10	1	-1E+10	1	-1E+10	1	-1E+10	1
4901784	16	C	12/12/2015	10:42	-130.732	45.694	0	1610.00	0	2.2700	0	34.5320	0	27.584	0	1590.689	0	37.4	4	11.4	4	-1E+10	1	-1E+10	1	-1E+10	1	-1E+10	1	-1E+10	1	-1E+10	1
4901784	16	C	12/12/2015	10:42	-130.732	45.694	0	1614.20	0	2.2610	0	34.5330	0	27.585	0	1594.823	0	37.8	4	11.5	4	-1E+10	1	-1E+10	1	-1E+10	1	-1E+10	1	-1E+10	1	-1E+10	1
4901784	16	C	12/12/2015	10:42	-130.732	45.694	0	1619.30	0	2.2560	0	34.5340	0	27.587	0	1599.843	0	38.1	4	11.6	4	-1E+10	1	-1E+10	1	-1E+10	1	-1E+10	1	-1E+10	1	-1E+10	1
4901784	16	C	12/12/2015	10:42	-130.732	45.694	0	1624.30	0	2.2490	0	34.5350	0	27.588	0	1604.764	0	38.6	4	11.7	4	-1E+10	1	-1E+10	1	-1E+10	1	-1E+10	1	-1E+10	1	-1E+10	1
4901784	16	C	12/12/2015	10:42	-130.732	45.694	0	1629.50	0	2.2410	0	34.5360	0	27.589	0	1609.881	0	38.9	4	11.8	4	-1E+10	1	-1E+10	1	-1E+10	1	-1E+10	1	-1E+10	1	-1E+10	1
4901784	16	C	12/12/2015	10:42	-130.732	45.694	0	1634.60	0	2.2360	0	34.5370	0	27.591	0	1614.900	0	39.2	4	11.9	4	-1E+10	1	-1E+10	1	-1E+10	1	-1E+10	1	-1E+10	1	-1E+10	1
4901784	16	C	12/12/2015	10:42	-130.732	45.694	0	1639.80	0	2.2280	0	34.5380	0	27.592	0	1620.018	0	39.5	4	12.0	4	-1E+10	1	-1E+10	1	-1E+10	1	-1E+10	1	-1E+10	1	-1E+10	1
4901784	16	C	12/12/2015	10:42	-130.732	45.694	0	1645.00	0	2.2250	0	34.5390	0	27.593	0	1625.135	0	39.6	4	12.0	4	-1E+10	1	-1E+10	1	-1E+10	1	-1E+10	1	-1E+10	1	-1E+10	1
4901784	16	C	12/12/2015	10:42	-130.732	45.694	0	1650.30	0	2.2250	0	34.5390	0	27.593	0	1630.351	0	39.7	4	12.0	4	-1E+10	1	-1E+10	1	-1E+10	1	-1E+10	1	-1E+10	1	-1E+10	1
4901784	16	C	12/12/2015	10:42	-130.732	45.694	0	1655.50	0	2.2230	0	34.5390	0	27.593	0	1635.468	0	39.8	4	12.1	4	-1E+10	1	-1E+10	1	-1E+10	1	-1E+10	1	-1E+10	1	-1E+10	1
4901784	16	C	12/12/2015	10:42	-130.732	45.694	0	1660.00	0	2.2220	0	34.5390	0	27.594	0	1639.896	0	39.9	4	12.1	4	-1E+10	1	-1E+10	1	-1E+10	1	-1E+10	1	-1E+10	1	-1E+10	1
4901784	16	C	12/12/2015	10:42	-130.732	45.694	0	1664.40	0	2.2190	0	34.5400	0	27.595	0	1644.226	0	40.0	4	12.1	4	-1E+10	1	-1E+10	1	-1E+10	1	-1E+10	1	-1E+10	1	-1E+10	1
4901784	16	C	12/12/2015	10:42	-130.732	45.694	0	1669.80	0	2.2170	0	34.5400	0	27.595	0	1649.539	0	40.1	4	12.2	4	-1E+10	1	-1E+10	1	-1E+10	1	-1E+10	1	-1E+10	1	-1E+10	1
4901784	16	C	12/12/2015	10:42	-130.732	45.694	0	1675.20	0	2.2170	0	34.5400	0	27.595	0	1654.853	0	40.3	4	12.2	4	-1E+10	1	-1E+10	1	-1E+10	1	-1E+10	1	-1E+10	1	-1E+10	1
4901784	16	C	12/12/2015	10:42	-130.732	45.694	0	1679.80	0	2.2140	0	34.5410	0	27.596	0	1659.379	0	40.5	4	12.3	4	-1E+10	1	-1E+10	1	-1E+10	1	-1E+10	1	-1E+10	1	-1E+10	1
4901784	16	C	12/12/2015	10:42	-130.732	45.694	0	1684.30	0	2.2100	0	34.5410	0	27.596	0	1663.806	0	40.6	4	12.3	4	-1E+10	1	-1E+10	1	-1E+10	1	-1E+10	1	-1E+10	1	-1E+10	1
4901784	16	C	12/12/2015	10:42	-130.732	45.694	0	1689.70	0	2.2070	0	34.5410	0	27.597	0	1669.119	0	40.8	4	12.4	4	-1E+10	1	-1E+10	1	-1E+10	1	-1E+10	1	-1E+10	1	-1E+10	1
4901784	16	C	12/12/2015	10:42	-130.732	45.694	0	1695.10	0	2.2020	0	34.5420	0	27.598	0	1674.432	0	41.1	4	12.5	4	-1E+10	1	-1E+10	1	-1E+10	1	-1E+10	1	-1E+10	1	-1E+10	1
4901784	16	C	12/12/2015	10:42	-130.732	45.694	0	1700.60	0	2.1970	0	34.5430	0	27.599	0	1679.844	0	41.4	4	12.5	4	-1E+10	1	-1E+10	1	-1E+10	1	-1E+10	1	-1E+10	1	-1E+10	1
4901784	16	C	12/12/2015	10:42	-130.732	45.694	0	1705.20	0	2.1950	0	34.5430	0	27.599	0	1684.369	0	41.6	4	12.6	4	-1E+10	1	-1E+10	1	-1E+10	1	-1E+10	1	-1E+10	1	-1E+10	1
4901784	16	C	12/12/2015	10:42	-130.732	45.694	0	1709.80	0	2.1890	0	34.5440	0	27.600	0	1688.895	0	41.9	4	12.7	4	-1E+10	1	-1E+10	1	-1E+10	1	-1E+10	1	-1E+10	1	-1E+10	1
4901784	16	C	12/12/2015	10:42	-130.732	45.694	0	1715.30	0	2.1840	0	34.5450	0	27.602	0	1694.306	0	42.2	4	12.8	4	-1E+10	1	-1E+10	1	-1E+10	1	-1E+10	1	-1E+10	1	-1E+10	1
4901784	16	C	12/12/2015	10:42	-130.732	45.694	0	1719.90	0	2.1810	0	34.5450	0	27.602	0	1698.831	0	42.4	4	12.8	4	-1E+10	1	-1E+10	1	-1E+10	1	-1E+10	1	-1E+10	1	-1E+10	1
4901784	16	C	12/12/2015	10:42	-130.732	45.694	0	1724.40	0	2.1780	0	34.5460	0	27.603	0	1703.258	0	42.6	4	12.9	4	-1E+10	1	-1E+10	1	-1E+10	1	-1E+10	1	-1E+10	1	-1E+10	1
4901784	16	C	12/12/2015	10:42	-130.732	45.694	0	1729.90	0	2.1750	0	34.5460	0	27.603	0	1708.668	0	42.8	4	12.9	4	-1E+10	1	-1E+10	1	-1E+10	1	-1E+10	1	-1E+10	1	-1E+10	1
4901784	16	C	12/12/2015	10:42	-130.732	45.694	0	1735.30	0	2.1710	0	34.5470	0	27.604	0	1713.980	0	43.0	4	13.0	4	-1E+10	1	-1E+10	1	-1E+10	1	-1E+10	1	-1E+10	1	-1E+10	1
4901784	16	C	12/12/2015	10:42	-130.732	45.694	0	1739.90	0	2.1690	0	34.5470	0	27.605	0	1718.505	0	43.1	4	13.1	4	-1E+10	1	-1E+10	1	-1E+10	1	-1E+10	1	-1E+10	1	-1E+10	1
4901784	16	C	12/12/2015	10:42	-130.732	45.694	0	1744.70	0	2.1660	0	34.5480	0	27.606	0	1723.226	0	43.3	4	13.1	4	-1E+10	1	-1E+10	1	-1E+10	1	-1E+10	1	-1E+10	1	-1E+10	1
4901784	16	C	12/12/2015	10:42	-130.732	45.694	0	1750.00	0	2.1630	0	34.5480	0	27.606	0	1728.439	0	43.5	4	13.2	4	-1E+10	1	-1E+10	1	-1E+10	1	-1E+10	1	-1E+10	1	-1E+10	1
4901784	16	C	12/12/2015	10:42	-130.732	45.694	0	1754.80	0	2.1580	0	34.5490	0	27.607	0	1733.161	0	43.8	4	13.3	4	-1E+10	1	-1E+10	1	-1E+10	1	-1E+10	1	-1E+10	1	-1E+10	1
4901784	16	C	12/12/2015	10:42	-130.732	45.694	0	1759.60	0	2.1540	0	34.5500	0	27.608	0	1737.882	0	44.1	4	13.3	4	-1E+10	1	-1E+10	1	-1E+10	1	-1E+10	1	-1E+10	1	-1E+10	1
4901784	16	C	12/12/2015	10:42	-130.732	45.694	0	1764.40	0	2.1480	0	34.5510	0	27.610	0	1742.603	0	44.3	4	13.4	4	-1E+10	1	-1E+10	1	-1E+10	1	-1E+10	1	-1E+10	1	-1E+10	1
4901784	16	C	12/12/2015	10:42	-130.732	45.694	0	1770.10	0	2.1450	0	34.5510	0	27.610	0	1748.209	0	44.5	4	13.5	4	-1E+10	1	-1E+10	1	-1E+10	1	-1E+10	1	-1E+10	1	-1E+10	1
4901784	16	C	12/12/2015	10:42	-130.732	45.694	0	1775.80	0	2.1410	0	34.5520	0	27.611	0	1753.815	0	44.7	4	13.5	4	-1E+10	1	-1E+10	1	-1E+10	1	-1E+10	1	-1E+10	1	-1E+10	1
4901784	16	C	12/12/2015	10:42	-130.732	45.694	0	1780.80	0	2.1410	0	34.5520	0	27.611	0	1758.733	0	44.8	4	13.6	4	-1E+10	1	-1E+10	1	-1E+10	1	-1E+10	1	-1E+10	1	-1E+10	1
4901784	16	C	12/12/2015	10:42	-130.732	45.694	0	1785.00	0	2.1390	0	34.5520	0	27.611	0	1762.863	0	44.9	4	13.6	4	-1E+10	1	-1E+10	1	-1E+10	1	-1E+10	1	-1E+10	1	-1E+10	1
4901784	16	C	12/12/2015	10:42	-130.732	45.694	0	1789.20	0	2.1370	0	34.5530	0	27.612	0	1766.993	0	45.1	4	13.6	4	-1E+10	1	-1E+10	1	-1E+10	1	-1E+10	1	-1E+10	1	-1E+10	1
4901784	16	C	12/12/2015	10:42	-130.732	45.694	0	1794.30	0	2.1340	0	34.5530	0	27.613	0	1772.009	0	45.2	4	13.7	4	-1E+10	1	-1E+10	1	-1E+10	1	-1E+10	1	-1E+10	1	-1E+10	1
4901784	16	C	12/12/2015	10:42	-130.732	45.694	0	1799.50	0	2.1310	0	34.5540	0	27.614	0	1777.123	0	45.3	4	13.7	4	-1E+10	1	-1E+10	1	-1E+10	1	-1E+10	1	-1E+10	1	-1E+10	1
4901784	16	C	12/12/2015	10:42	-130.732	45.694	0	1804.60	0	2.1300	0	34.5540	0	27.614	0	1782.138	0	45.5	4	13.8	4	-1E+10	1	-1E+10	1	-1E+10	1	-1E+10	1	-1E+10	1	-1E+10	1
4901784	16	C	12/12/2015	10:42	-130.732	45.694	0	1809.80	0	2.1280	0	34.5540	0	27.614	0	1787.251	0	45.7	4	13.8	4	-1E+10	1	-1E+10	1	-1E+10	1	-1E+10	1	-1E+10	1	-1E+10	1
4901784	16	C	12/12/2015	10:42	-130.732	45.694	0	1815.00	0	2.1250	0	34.5540	0	27.614	0	1792.365	0	45.9	4	13.9	4	-1E+10	1	-1E+10	1	-1E+10	1	-1E+10	1	-1E+10	1	-1E+10	1
4901784	16	C	12/12/2015	10:42	-130.732	45.694	0	1820.10	0	2.1240	0	34.5550	0	27.615	0	1797.379	0	46.1	4	13.9	4	-1E+10	1	-1E+10	1	-1E+10	1	-1E+10	1	-1E+10	1	-1E+10	1
4901784	16	C	12/12/2015	10:42	-130.732	45.694	0	1825.30	0	2.1190	0	34.5550	0	27.616	0	1802.492	0	46.5	4	14.1	4	-1E+10	1	-1E+10	1	-1E+10	1	-1E+10	1	-1E+10	1	-1E+10	1
4901784	16	C	12/12/2015	10:42	-130.732	45.694	0	1830.40	0	2.1090	0	34.5570	0	27.618	0	1807.507	0	47.0	4	14.2	4	-1E+10	1	-1E+10	1	-1E+10	1	-1E+10	1	-1E+10	1	-1E+10	1
4901784	16	C	12/12/2015	10:42	-130.732	45.694	0	1835.60	0	2.1030	0	34.5580	0	27.619	0	1812.620	0	47.2	4	14.3	4	-1E+10	1	-1E+10	1	-1E+10	1	-1E+10	1	-1E+10	1	-1E+10	1
4901784	16	C	12/12/2015	10:42	-130.732	45.694	0	1840.80	0	2.1010	0	34.5580	0	27.619	0	1817.733	0	47.5	4	14.4	4	-1E+10	1	-1E+10	1	-1E+10	1	-1E+10	1	-1E+10	1	-1E+10	1
4901784	16	C	12/12/2015	10:42	-130.732	45.694	0	1845.00	0	2.0960	0	34.5590	0	27.621	0	1821.862	0	48.0	4	14.5	4	-1E+10	1	-1E+10	1	-1E+10	1	-1E+10	1	-1E+10	1	-1E+10	1
4901784	16	C	12/12/2015	10:42	-130.732	45.694	0	1849.40	0	2.0880	0	34.5600	0	27.622	0	1826.188	0	48.3	4	14.6	4	-1E+10	1	-1E+10	1	-1E+10	1	-1E+10	1	-1E+10	1	-1E+10	1
4901784	16	C	12/12/2015	10:42	-130.732	45.694	0	1854.60	0	2.0810	0	34.5610	0	27.623	0	1831.300	0	48.8	4	14.7	4	-1E+10	1	-1E+10	1	-1E+10	1	-1E+10	1	-1E+10	1	-1E+10	1
4901784	16	C	12/12/2015	10:42	-130.732	45.694	0	1859.90	0	2.0760	0	34.5620	0	27.625	0	1836.511	0	49.0	4	14.8	4	-1E+10	1	-1E+10	1	-1E+10	1	-1E+10	1	-1E+10	1	-1E+10	1
4901784	16	C	12/12/2015	10:42	-130.732	45.694	0	1865.30	0	2.0740	0	34.5620	0	27.625	0	1841.819	0	49.3	4	14.9	4	-1E+10	1	-1E+10	1	-1E+10	1	-1E+10	1	-1E+10	1	-1E+10	1
4901784	16	C	12/12/2015	10:42	-130.732	45.694	0	1870.60	0	2.0670	0	34.5630	0	27.626	0	1847.030	0	49.7	4	15.0	4	-1E+10	1	-1E+10	1	-1E+10	1	-1E+10	1	-1E+10	1	-1E+10	1
4901784	16	C	12/12/2015	10:42	-130.732	45.694	0	1875.00	0	2.0630	0	34.5640	0	27.627	0	1851.355	0	49.9	4	15.1	4	-1E+10	1	-1E+10	1	-1E+10	1	-1E+10	1	-1E+10	1	-1E+10	1
4901784	16	C	12/12/2015	10:42	-130.732	45.694	0	1879.40	0	2.0620	0	34.5640	0	27.628	0	1855.680	0	50.2	4	15.2	4	-1E+10	1	-1E+10	1	-1E+10	1	-1E+10	1	-1E+10	1	-1E+10	1
4901784	16	C	12/12/2015	10:42	-130.732	45.694	0	1884.70	0	2.0520	0	34.5660	0	27.630	0	1860.890	0	50.7	4	15.3	4	-1E+10	1	-1E+10	1	-1E+10	1	-1E+10	1	-1E+10	1	-1E+10	1
4901784	16	C	12/12/2015	10:42	-130.732	45.694	0	1890.00	0	2.0450	0	34.5670	0	27.631	0	1866.100	0	51.0	4	15.4	4	-1E+10	1	-1E+10	1	-1E+10	1	-1E+10	1	-1E+10	1	-1E+10	1
4901784	16	C	12/12/2015	10:42	-130.732	45.694	0	1895.40	0	2.0400	0	34.5680	0	27.633	0	1871.408	0	51.2	4	15.5	4	-1E+10	1	-1E+10	1	-1E+10	1	-1E+10	1	-1E+10	1	-1E+10	1
4901784	16	C	12/12/2015	10:42	-130.732	45.694	0	1899.80	0	2.0390	0	34.5680	0	27.633	0	1875.733	0	51.3	4	15.5	4	-1E+10	1	-1E+10	1	-1E+10	1	-1E+10	1	-1E+10	1	-1E+10	1
4901784	16	C	12/12/2015	10:42	-130.732	45.694	0	1904.40	0	2.0390	0	34.5680	0	27.633	0	1880.255	0	51.3	4	15.5	4	-1E+10	1	-1E+10	1	-1E+10	1	-1E+10	1	-1E+10	1	-1E+10	1
4901784	16	C	12/12/2015	10:42	-130.732	45.694	0	1909.90	0	2.0390	0	34.5680	0	27.633	0	1885.660	0	51.4	4	15.5	4	-1E+10	1	-1E+10	1	-1E+10	1	-1E+10	1	-1E+10	1	-1E+10	1
4901784	16	C	12/12/2015	10:42	-130.732	45.694	0	1915.30	0	2.0390	0	34.5680	0	27.633	0	1890.968	0	51.5	4	15.5	4	-1E+10	1	-1E+10	1	-1E+10	1	-1E+10	1	-1E+10	1	-1E+10	1
4901784	16	C	12/12/2015	10:42	-130.732	45.694	0	1920.40	0	2.0370	0	34.5680	0	27.633	0	1895.980	0	51.7	4	15.6	4	-1E+10	1	-1E+10	1	-1E+10	1	-1E+10	1	-1E+10	1	-1E+10	1
4901784	16	C	12/12/2015	10:42	-130.732	45.694	0	1924.50	0	2.0350	0	34.5690	0	27.634	0	1900.010	0	51.8	4	15.6	4	-1E+10	1	-1E+10	1	-1E+10	1	-1E+10	1	-1E+10	1	-1E+10	1
4901784	16	C	12/12/2015	10:42	-130.732	45.694	0	1930.00	0	2.0310	0	34.5690	0	27.634	0	1905.415	0	52.1	4	15.7	4	-1E+10	1	-1E+10	1	-1E+10	1	-1E+10	1	-1E+10	1	-1E+10	1
4901784	16	C	12/12/2015	10:42	-130.732	45.694	0	1935.60	0	2.0300	0	34.5690	0	27.634	0	1910.919	0	52.4	4	15.8	4	-1E+10	1	-1E+10	1	-1E+10	1	-1E+10	1	-1E+10	1	-1E+10	1
4901784	16	C	12/12/2015	10:42	-130.732	45.694	0	1940.40	0	2.0200	0	34.5710	0	27.637	0	1915.636	0	52.9	4	16.0	4	-1E+10	1	-1E+10	1	-1E+10	1	-1E+10	1	-1E+10	1	-1E+10	1
4901784	16	C	12/12/2015	10:42	-130.732	45.694	0	1945.30	0	2.0150	0	34.5720	0	27.638	0	1920.452	0	53.1	4	16.0	4	-1E+10	1	-1E+10	1	-1E+10	1	-1E+10	1	-1E+10	1	-1E+10	1
4901784	16	C	12/12/2015	10:42	-130.732	45.694	0	1950.20	0	2.0140	0	34.5720	0	27.638	0	1925.267	0	53.2	4	16.0	4	-1E+10	1	-1E+10	1	-1E+10	1	-1E+10	1	-1E+10	1	-1E+10	1
4901784	16	C	12/12/2015	10:42	-130.732	45.694	0	1955.20	0	2.0140	0	34.5720	0	27.638	0	1930.180	0	53.2	4	16.0	4	-1E+10	1	-1E+10	1	-1E+10	1	-1E+10	1	-1E+10	1	-1E+10	1
4901784	16	C	12/12/2015	10:42	-130.732	45.694	0	1960.30	0	2.0130	0	34.5720	0	27.638	0	1935.192	0	53.3	4	16.1	4	-1E+10	1	-1E+10	1	-1E+10	1	-1E+10	1	-1E+10	1	-1E+10	1
4901784	16	C	12/12/2015	10:42	-130.732	45.694	0	1965.20	0	2.0130	0	34.5720	0	27.638	0	1940.007	0	53.5	4	16.1	4	-1E+10	1	-1E+10	1	-1E+10	1	-1E+10	1	-1E+10	1	-1E+10	1
4901784	16	C	12/12/2015	10:42	-130.732	45.694	0	1970.30	0	2.0090	0	34.5730	0	27.639	0	1945.018	0	53.9	4	16.2	4	-1E+10	1	-1E+10	1	-1E+10	1	-1E+10	1	-1E+10	1	-1E+10	1
4901784	16	C	12/12/2015	10:42	-130.732	45.694	0	1975.30	0	2.0040	0	34.5740	0	27.641	0	1949.931	0	54.4	4	16.4	4	-1E+10	1	-1E+10	1	-1E+10	1	-1E+10	1	-1E+10	1	-1E+10	1
4901784	16	C	12/12/2015	10:42	-130.732	45.694	0	1980.40	0	1.9970	0	34.5750	0	27.642	0	1954.942	0	55.0	4	16.6	4	-1E+10	1	-1E+10	1	-1E+10	1	-1E+10	1	-1E+10	1	-1E+10	1
4901784	16	C	12/12/2015	10:42	-130.732	45.694	0	1985.50	0	1.9860	0	34.5760	0	27.644	0	1959.953	0	55.7	4	16.8	4	-1E+10	1	-1E+10	1	-1E+10	1	-1E+10	1	-1E+10	1	-1E+10	1
4901784	16	C	12/12/2015	10:42	-130.732	45.694	0	1990.20	0	1.9780	0	34.5780	0	27.646	0	1964.571	0	56.0	4	16.9	4	-1E+10	1	-1E+10	1	-1E+10	1	-1E+10	1	-1E+10	1	-1E+10	1
4901784	16	C	12/12/2015	10:42	-130.732	45.694	0	1994.90	0	1.9740	0	34.5790	0	27.647	0	1969.189	0	56.3	4	17.0	4	-1E+10	1	-1E+10	1	-1E+10	1	-1E+10	1	-1E+10	1	-1E+10	1
4901784	16	C	12/12/2015	10:42	-130.732	45.694	0	2000.10	0	1.9700	0	34.5790	0	27.647	0	1974.298	0	56.6	4	17.1	4	-1E+10	1	-1E+10	1	-1E+10	1	-1E+10	1	-1E+10	1	-1E+10	1
4901784	16	C	12/12/2015	10:42	-130.732	45.694	0	2004.60	0	1.9670	0	34.5800	0	27.648	0	1978.719	0	56.8	4	17.1	4	-1E+10	1	-1E+10	1	-1E+10	1	-1E+10	1	-1E+10	1	-1E+10	1
4901784	16	C	12/12/2015	10:42	-130.732	45.694	0	2009.90	0	1.9630	0	34.5810	0	27.650	0	1983.926	0	57.0	4	17.2	4	-1E+10	1	-1E+10	1	-1E+10	1	-1E+10	1	-1E+10	1	-1E+10	1
4901784	16	C	12/12/2015	10:42	-130.732	45.694	0	2015.70	0	1.9630	0	34.5810	0	27.650	0	1989.624	0	57.0	4	17.2	4	-1E+10	1	-1E+10	1	-1E+10	1	-1E+10	1	-1E+10	1	-1E+10	1
4901784	16	C	12/12/2015	10:42	-130.732	45.694	0	2021.00	0	1.9600	0	34.5810	0	27.650	0	1994.830	0	53.5	8	16.1	8	-1E+10	1	-1E+10	1	-1E+10	1	-1E+10	1	-1E+10	1	-1E+10	1
4901784	16	C	12/12/2015	10:42	-130.732	45.694	0																										
4901784	17	C	12/22/2015	10:50	-130.891	45.638	0	2.80	0	12.1490	0	32.6610	0	24.746	0	2.777	0	251.7	4	94.3	4	-1E+10	1	-1E+10	1	-1E+10	1	-1E+10	1	-1E+10	1	-1E+10	1
4901784	17	C	12/22/2015	10:50	-130.891	45.638	0	4.30	0	12.1480	0	32.6610	0	24.746	0	4.265	0	251.7	4	94.3	4	-1E+10	1	-1E+10	1	-1E+10	1	-1E+10	1	-1E+10	1	-1E+10	1
4901784	17	C	12/22/2015	10:50	-130.891	45.638	0	5.90	0	12.1490	0	32.6600	0	24.745	0	5.852	0	251.7	4	94.3	4	-1E+10	1	-1E+10	1	-1E+10	1	-1E+10	1	-1E+10	1	-1E+10	1
4901784	17	C	12/22/2015	10:50	-130.891	45.638	0	7.60	0	12.1570	0	32.6610	0	24.744	0	7.538	0	251.6	4	94.3	4	-1E+10	1	-1E+10	1	-1E+10	1	-1E+10	1	-1E+10	1	-1E+10	1
4901784	17	C	12/22/2015	10:50	-130.891	45.638	0	9.20	0	12.1560	0	32.6610	0	24.744	0	9.125	0	251.6	4	94.3	4	-1E+10	1	-1E+10	1	-1E+10	1	-1E+10	1	-1E+10	1	-1E+10	1
4901784	17	C	12/22/2015	10:50	-130.891	45.638	0	11.00	0	12.1560	0	32.6610	0	24.745	0	10.910	0	251.7	4	94.3	4	-1E+10	1	-1E+10	1	-1E+10	1	-1E+10	1	-1E+10	1	-1E+10	1
4901784	17	C	12/22/2015	10:50	-130.891	45.638	0	12.80	0	12.1560	0	32.6610	0	24.745	0	12.695	0	251.8	4	94.4	4	-1E+10	1	-1E+10	1	-1E+10	1	-1E+10	1	-1E+10	1	-1E+10	1
4901784	17	C	12/22/2015	10:50	-130.891	45.638	0	14.50	0	12.1580	0	32.6600	0	24.743	0	14.381	0	251.6	4	94.3	4	-1E+10	1	-1E+10	1	-1E+10	1	-1E+10	1	-1E+10	1	-1E+10	1
4901784	17	C	12/22/2015	10:50	-130.891	45.638	0	16.20	0	12.1580	0	32.6610	0	24.744	0	16.067	0	251.7	4	94.4	4	-1E+10	1	-1E+10	1	-1E+10	1	-1E+10	1	-1E+10	1	-1E+10	1
4901784	17	C	12/22/2015	10:50	-130.891	45.638	0	17.90	0	12.1580	0	32.6610	0	24.744	0	17.753	0	251.5	4	94.3	4	-1E+10	1	-1E+10	1	-1E+10	1	-1E+10	1	-1E+10	1	-1E+10	1
4901784	17	C	12/22/2015	10:50	-130.891	45.638	0	19.60	0	12.1590	0	32.6600	0	24.743	0	19.439	0	251.4	4	94.3	4	-1E+10	1	-1E+10	1	-1E+10	1	-1E+10	1	-1E+10	1	-1E+10	1
4901784	17	C	12/22/2015	10:50	-130.891	45.638	0	21.50	0	12.1590	0	32.6610	0	24.744	0	21.323	0	251.6	4	94.3	4	-1E+10	1	-1E+10	1	-1E+10	1	-1E+10	1	-1E+10	1	-1E+10	1
4901784	17	C	12/22/2015	10:50	-130.891	45.638	0	23.30	0	12.1590	0	32.6600	0	24.743	0	23.108	0	251.5	4	94.3	4	-1E+10	1	-1E+10	1	-1E+10	1	-1E+10	1	-1E+10	1	-1E+10	1
4901784	17	C	12/22/2015	10:50	-130.891	45.638	0	25.10	0	12.1600	0	32.6610	0	24.744	0	24.893	0	251.5	4	94.3	4	-1E+10	1	-1E+10	1	-1E+10	1	-1E+10	1	-1E+10	1	-1E+10	1
4901784	17	C	12/22/2015	10:50	-130.891	45.638	0	26.80	0	12.1590	0	32.6600	0	24.744	0	26.579	0	251.5	4	94.3	4	-1E+10	1	-1E+10	1	-1E+10	1	-1E+10	1	-1E+10	1	-1E+10	1
4901784	17	C	12/22/2015	10:50	-130.891	45.638	0	28.60	0	12.1570	0	32.6610	0	24.745	0	28.364	0	251.3	4	94.2	4	-1E+10	1	-1E+10	1	-1E+10	1	-1E+10	1	-1E+10	1	-1E+10	1
4901784	17	C	12/22/2015	10:50	-130.891	45.638	0	30.40	0	12.1600	0	32.6610	0	24.744	0	30.149	0	251.4	4	94.2	4	-1E+10	1	-1E+10	1	-1E+10	1	-1E+10	1	-1E+10	1	-1E+10	1
4901784	17	C	12/22/2015	10:50	-130.891	45.638	0	32.10	0	12.1610	0	32.6610	0	24.744	0	31.835	0	251.3	4	94.2	4	-1E+10	1	-1E+10	1	-1E+10	1	-1E+10	1	-1E+10	1	-1E+10	1
4901784	17	C	12/22/2015	10:50	-130.891	45.638	0	33.90	0	12.1620	0	32.6600	0	24.743	0	33.620	0	251.4	4	94.2	4	-1E+10	1	-1E+10	1	-1E+10	1	-1E+10	1	-1E+10	1	-1E+10	1
4901784	17	C	12/22/2015	10:50	-130.891	45.638	0	35.70	0	12.1610	0	32.6610	0	24.744	0	35.405	0	251.3	4	94.2	4	-1E+10	1	-1E+10	1	-1E+10	1	-1E+10	1	-1E+10	1	-1E+10	1
4901784	17	C	12/22/2015	10:50	-130.891	45.638	0	37.50	0	12.1620	0	32.6600	0	24.743	0	37.190	0	251.2	4	94.2	4	-1E+10	1	-1E+10	1	-1E+10	1	-1E+10	1	-1E+10	1	-1E+10	1
4901784	17	C	12/22/2015	10:50	-130.891	45.638	0	39.30	0	12.1630	0	32.6600	0	24.743	0	38.975	0	251.2	4	94.2	4	-1E+10	1	-1E+10	1	-1E+10	1	-1E+10	1	-1E+10	1	-1E+10	1
4901784	17	C	12/22/2015	10:50	-130.891	45.638	0	41.20	0	12.1630	0	32.6600	0	24.743	0	40.859	0	251.3	4	94.2	4	-1E+10	1	-1E+10	1	-1E+10	1	-1E+10	1	-1E+10	1	-1E+10	1
4901784	17	C	12/22/2015	10:50	-130.891	45.638	0	43.10	0	12.1630	0	32.6600	0	24.743	0	42.743	0	251.1	4	94.1	4	-1E+10	1	-1E+10	1	-1E+10	1	-1E+10	1	-1E+10	1	-1E+10	1
4901784	17	C	12/22/2015	10:50	-130.891	45.638	0	44.80	0	12.1620	0	32.6610	0	24.744	0	44.429	0	251.1	4	94.1	4	-1E+10	1	-1E+10	1	-1E+10	1	-1E+10	1	-1E+10	1	-1E+10	1
4901784	17	C	12/22/2015	10:50	-130.891	45.638	0	46.60	0	12.1630	0	32.6600	0	24.743	0	46.214	0	251.0	4	94.1	4	-1E+10	1	-1E+10	1	-1E+10	1	-1E+10	1	-1E+10	1	-1E+10	1
4901784	17	C	12/22/2015	10:50	-130.891	45.638	0	48.90	0	12.1630	0	32.6600	0	24.743	0	48.494	0	251.1	4	94.1	4	-1E+10	1	-1E+10	1	-1E+10	1	-1E+10	1	-1E+10	1	-1E+10	1
4901784	17	C	12/22/2015	10:50	-130.891	45.638	0	50.60	0	12.1630	0	32.6610	0	24.744	0	50.180	0	250.9	4	94.1	4	-1E+10	1	-1E+10	1	-1E+10	1	-1E+10	1	-1E+10	1	-1E+10	1
4901784	17	C	12/22/2015	10:50	-130.891	45.638	0	52.20	0	12.1640	0	32.6600	0	24.743	0	51.767	0	250.7	4	94.0	4	-1E+10	1	-1E+10	1	-1E+10	1	-1E+10	1	-1E+10	1	-1E+10	1
4901784	17	C	12/22/2015	10:50	-130.891	45.638	0	53.70	0	12.1640	0	32.6610	0	24.744	0	53.254	0	250.7	4	94.0	4	-1E+10	1	-1E+10	1	-1E+10	1	-1E+10	1	-1E+10	1	-1E+10	1
4901784	17	C	12/22/2015	10:50	-130.891	45.638	0	55.40	0	12.1640	0	32.6610	0	24.744	0	54.940	0	250.9	4	94.1	4	-1E+10	1	-1E+10	1	-1E+10	1	-1E+10	1	-1E+10	1	-1E+10	1
4901784	17	C	12/22/2015	10:50	-130.891	45.638	0	57.00	0	12.1640	0	32.6610	0	24.744	0	56.526	0	250.8	4	94.0	4	-1E+10	1	-1E+10	1	-1E+10	1	-1E+10	1	-1E+10	1	-1E+10	1
4901784	17	C	12/22/2015	10:50	-130.891	45.638	0	58.50	0	12.1630	0	32.6610	0	24.744	0	58.013	0	250.7	4	94.0	4	-1E+10	1	-1E+10	1	-1E+10	1	-1E+10	1	-1E+10	1	-1E+10	1
4901784	17	C	12/22/2015	10:50	-130.891	45.638	0	60.20	0	12.1650	0	32.6610	0	24.744	0	59.699	0	250.6	4	93.9	4	-1E+10	1	-1E+10	1	-1E+10	1	-1E+10	1	-1E+10	1	-1E+10	1
4901784	17	C	12/22/2015	10:50	-130.891	45.638	0	61.80	0	12.1650	0	32.6620	0	24.745	0	61.286	0	250.4	4	93.9	4	-1E+10	1	-1E+10	1	-1E+10	1	-1E+10	1	-1E+10	1	-1E+10	1
4901784	17	C	12/22/2015	10:50	-130.891	45.638	0	63.50	0	12.1640	0	32.6610	0	24.744	0	62.971	0	250.3	4	93.8	4	-1E+10	1	-1E+10	1	-1E+10	1	-1E+10	1	-1E+10	1	-1E+10	1
4901784	17	C	12/22/2015	10:50	-130.891	45.638	0	65.10	0	12.1650	0	32.6620	0	24.745	0	64.558	0	250.2	4	93.8	4	-1E+10	1	-1E+10	1	-1E+10	1	-1E+10	1	-1E+10	1	-1E+10	1
4901784	17	C	12/22/2015	10:50	-130.891	45.638	0	66.80	0	12.1650	0	32.6610	0	24.744	0	66.243	0	249.9	4	93.7	4	-1E+10	1	-1E+10	1	-1E+10	1	-1E+10	1	-1E+10	1	-1E+10	1
4901784	17	C	12/22/2015	10:50	-130.891	45.638	0	68.40	0	12.1650	0	32.6610	0	24.744	0	67.830	0	249.7	4	93.6	4	-1E+10	1	-1E+10	1	-1E+10	1	-1E+10	1	-1E+10	1	-1E+10	1
4901784	17	C	12/22/2015	10:50	-130.891	45.638	0	70.10	0	12.1650	0	32.6610	0	24.744	0	69.515	0	249.2	4	93.4	4	-1E+10	1	-1E+10	1	-1E+10	1	-1E+10	1	-1E+10	1	-1E+10	1
4901784	17	C	12/22/2015	10:50	-130.891	45.638	0	71.90	0	12.1650	0	32.6610	0	24.744	0	71.300	0	249.0	4	93.4	4	-1E+10	1	-1E+10	1	-1E+10	1	-1E+10	1	-1E+10	1	-1E+10	1
4901784	17	C	12/22/2015	10:50	-130.891	45.638	0	73.60	0	12.1630	0	32.6620	0	24.745	0	72.985	0	248.5	4	93.2	4	-1E+10	1	-1E+10	1	-1E+10	1	-1E+10	1	-1E+10	1	-1E+10	1
4901784	17	C	12/22/2015	10:50	-130.891	45.638	0	75.30	0	12.1600	0	32.6630	0	24.747	0	74.671	0	248.1	4	93.0	4	-1E+10	1	-1E+10	1	-1E+10	1	-1E+10	1	-1E+10	1	-1E+10	1
4901784	17	C	12/22/2015	10:50	-130.891	45.638	0	76.90	0	12.1440	0	32.6660	0	24.752	0	76.257	0	247.6	4	92.8	4	-1E+10	1	-1E+10	1	-1E+10	1	-1E+10	1	-1E+10	1	-1E+10	1
4901784	17	C	12/22/2015	10:50	-130.891	45.638	0	78.60	0	12.1190	0	32.6710	0	24.761	0	77.943	0	247.2	4	92.6	4	-1E+10	1	-1E+10	1	-1E+10	1	-1E+10	1	-1E+10	1	-1E+10	1
4901784	17	C	12/22/2015	10:50	-130.891	45.638	0	80.20	0	12.1010	0	32.6730	0	24.766	0	79.529	0	246.8	4	92.4	4	-1E+10	1	-1E+10	1	-1E+10	1	-1E+10	1	-1E+10	1	-1E+10	1
4901784	17	C	12/22/2015	10:50	-130.891	45.638	0	81.80	0	12.0870	0	32.6760	0	24.771	0	81.115	0	245.8	4	92.0	4	-1E+10	1	-1E+10	1	-1E+10	1	-1E+10	1	-1E+10	1	-1E+10	1
4901784	17	C	12/22/2015	10:50	-130.891	45.638	0	83.50	0	12.0560	0	32.6830	0	24.782	0	82.801	0	245.1	4	91.7	4	-1E+10	1	-1E+10	1	-1E+10	1	-1E+10	1	-1E+10	1	-1E+10	1
4901784	17	C	12/22/2015	10:50	-130.891	45.638	0	85.20	0	12.0400	0	32.6820	0	24.784	0	84.486	0	244.4	4	91.4	4	-1E+10	1	-1E+10	1	-1E+10	1	-1E+10	1	-1E+10	1	-1E+10	1
4901784	17	C	12/22/2015	10:50	-130.891	45.638	0	86.80	0	12.0000	0	32.6900	0	24.798	0	86.072	0	243.5	4	91.0	4	-1E+10	1	-1E+10	1	-1E+10	1	-1E+10	1	-1E+10	1	-1E+10	1
4901784	17	C	12/22/2015	10:50	-130.891	45.638	0	88.50	0	11.9700	0	32.6920	0	24.805	0	87.758	0	242.8	4	90.7	4	-1E+10	1	-1E+10	1	-1E+10	1	-1E+10	1	-1E+10	1	-1E+10	1
4901784	17	C	12/22/2015	10:50	-130.891	45.638	0	90.20	0	11.9400	0	32.6960	0	24.814	0	89.443	0	241.5	4	90.1	4	-1E+10	1	-1E+10	1	-1E+10	1	-1E+10	1	-1E+10	1	-1E+10	1
4901784	17	C	12/22/2015	10:50	-130.891	45.638	0	91.80	0	11.9360	0	32.6950	0	24.814	0	91.029	0	239.9	4	89.5	4	-1E+10	1	-1E+10	1	-1E+10	1	-1E+10	1	-1E+10	1	-1E+10	1
4901784	17	C	12/22/2015	10:50	-130.891	45.638	0	93.40	0	11.9140	0	32.6970	0	24.820	0	92.615	0	237.8	4	88.7	4	-1E+10	1	-1E+10	1	-1E+10	1	-1E+10	1	-1E+10	1	-1E+10	1
4901784	17	C	12/22/2015	10:50	-130.891	45.638	0	95.00	0	11.8820	0	32.6960	0	24.825	0	94.202	0	235.2	4	87.7	4	-1E+10	1	-1E+10	1	-1E+10	1	-1E+10	1	-1E+10	1	-1E+10	1
4901784	17	C	12/22/2015	10:50	-130.891	45.638	0	96.60	0	11.7060	0	32.7250	0	24.880	0	95.788	0	232.2	4	86.3	4	-1E+10	1	-1E+10	1	-1E+10	1	-1E+10	1	-1E+10	1	-1E+10	1
4901784	17	C	12/22/2015	10:50	-130.891	45.638	0	98.90	0	11.3320	0	32.7730	0	24.985	0	98.068	0	228.4	4	84.2	4	-1E+10	1	-1E+10	1	-1E+10	1	-1E+10	1	-1E+10	1	-1E+10	1
4901784	17	C	12/22/2015	10:50	-130.891	45.638	0	102.90	0	10.7550	0	32.8580	0	25.153	0	102.033	0	224.8	4	81.9	4	-1E+10	1	-1E+10	1	-1E+10	1	-1E+10	1	-1E+10	1	-1E+10	1
4901784	17	C	12/22/2015	10:50	-130.891	45.638	0	105.10	0	10.4990	0	32.9070	0	25.236	0	104.214	0	222.6	4	80.7	4	-1E+10	1	-1E+10	1	-1E+10	1	-1E+10	1	-1E+10	1	-1E+10	1
4901784	17	C	12/22/2015	10:50	-130.891	45.638	0	107.30	0	10.2730	0	32.9320	0	25.294	0	106.395	0	220.8	4	79.7	4	-1E+10	1	-1E+10	1	-1E+10	1	-1E+10	1	-1E+10	1	-1E+10	1
4901784	17	C	12/22/2015	10:50	-130.891	45.638	0	110.30	0	10.0460	0	32.9600	0	25.354	0	109.369	0	217.4	4	78.1	4	-1E+10	1	-1E+10	1	-1E+10	1	-1E+10	1	-1E+10	1	-1E+10	1
4901784	17	C	12/22/2015	10:50	-130.891	45.638	0	112.70	0	9.9110	0	32.9770	0	25.390	0	111.748	0	214.8	4	77.0	4	-1E+10	1	-1E+10	1	-1E+10	1	-1E+10	1	-1E+10	1	-1E+10	1
4901784	17	C	12/22/2015	10:50	-130.891	45.638	0	115.30	0	9.5730	0	33.0360	0	25.491	0	114.325	0	212.4	4	75.6	4	-1E+10	1	-1E+10	1	-1E+10	1	-1E+10	1	-1E+10	1	-1E+10	1
4901784	17	C	12/22/2015	10:50	-130.891	45.638	0	118.00	0	9.3160	0	33.1140	0	25.594	0	117.002	0	211.7	4	74.9	4	-1E+10	1	-1E+10	1	-1E+10	1	-1E+10	1	-1E+10	1	-1E+10	1
4901784	17	C	12/22/2015	10:50	-130.891	45.638	0	119.70	0	9.2600	0	33.1320	0	25.617	0	118.687	0	210.9	4	74.6	4	-1E+10	1	-1E+10	1	-1E+10	1	-1E+10	1	-1E+10	1	-1E+10	1
4901784	17	C	12/22/2015	10:50	-130.891	45.638	0	122.30	0	9.1980	0	33.1450	0	25.637	0	121.264	0	209.7	4	74.0	4	-1E+10	1	-1E+10	1	-1E+10	1	-1E+10	1	-1E+10	1	-1E+10	1
4901784	17	C	12/22/2015	10:50	-130.891	45.638	0	124.80	0	9.1410	0	33.1570	0	25.655	0	123.742	0	208.2	4	73.4	4	-1E+10	1	-1E+10	1	-1E+10	1	-1E+10	1	-1E+10	1	-1E+10	1
4901784	17	C	12/22/2015	10:50	-130.891	45.638	0	127.30	0	9.0400	0	33.1690	0	25.681	0	126.220	0	206.4	4	72.6	4	-1E+10	1	-1E+10	1	-1E+10	1	-1E+10	1	-1E+10	1	-1E+10	1
4901784	17	C	12/22/2015	10:50	-130.891	45.638	0	130.00	0	8.8230	0	33.2420	0	25.772	0	128.897	0	205.4	4	72.0	4	-1E+10	1	-1E+10	1	-1E+10	1	-1E+10	1	-1E+10	1	-1E+10	1
4901784	17	C	12/22/2015	10:50	-130.891	45.638	0	132.70	0	8.6890	0	33.2860	0	25.827	0	131.573	0	205.2	4	71.7	4	-1E+10	1	-1E+10	1	-1E+10	1	-1E+10	1	-1E+10	1	-1E+10	1
4901784	17	C	12/22/2015	10:50	-130.891	45.638	0	135.40	0	8.6890	0	33.3290	0	25.861	0	134.249	0	204.8	4	71.6	4	-1E+10	1	-1E+10	1	-1E+10	1	-1E+10	1	-1E+10	1	-1E+10	1
4901784	17	C	12/22/2015	10:50	-130.891	45.638	0	137.30	0	8.5770	0	33.3750	0	25.914	0	136.132	0	204.6	4	71.4	4	-1E+10	1	-1E+10	1	-1E+10	1	-1E+10	1	-1E+10	1	-1E+10	1
4901784	17	C	12/22/2015	10:50	-130.891	45.638	0	139.80	0	8.5530	0	33.4020	0	25.939	0	138.610	0	204.6	4	71.3	4	-1E+10	1	-1E+10	1	-1E+10	1	-1E+10	1	-1E+10	1	-1E+10	1
4901784	17	C	12/22/2015	10:50	-130.891	45.638	0	142.50	0	8.5090	0	33.4290	0	25.967	0	141.286	0	203.9	4	71.1	4	-1E+10	1	-1E+10	1	-1E+10	1	-1E+10	1	-1E+10	1	-1E+10	1
4901784	17	C	12/22/2015	10:50	-130.891	45.638	0	144.90	0	8.4680	0	33.4520	0	25.991	0	143.665	0	203.1	4	70.7	4	-1E+10	1	-1E+10	1	-1E+10	1	-1E+10	1	-1E+10	1	-1E+10	1
4901784	17	C	12/22/2015	10:50	-130.891	45.638	0	147.40	0	8.4320	0	33.4700	0	26.010	0	146.143	0	202.1	4	70.3	4	-1E+10	1	-1E+10	1	-1E+10	1	-1E+10	1	-1E+10	1	-1E+10	1
4901784	17	C	12/22/2015	10:50	-130.891	45.638	0	149.80	0	8.4260	0	33.4790	0	26.018	0	148.521	0	200.8	4	69.9	4	-1E+10	1	-1E+10	1	-1E+10	1	-1E+10	1	-1E+10	1	-1E+10	1
4901784	17	C	12/22/2015	10:50	-130.891	45.638	0	152.20	0	8.3990	0	33.5000	0	26.039	0	150.900	0	199.4	4	69.3	4	-1E+10	1	-1E+10	1	-1E+10	1	-1E+10	1	-1E+10	1	-1E+10	1
4901784	17	C	12/22/2015	10:50	-130.891	45.638	0	154.70	0	8.3420	0	33.5350	0	26.075	0	153.378	0	198.6	4	69.0	4	-1E+10	1	-1E+10	1	-1E+10	1	-1E+10	1	-1E+10	1	-1E+10	1
4901784	17	C	12/22/2015	10:50	-130.891	45.638	0	157.20	0	8.3400	0	33.5360	0	26.076	0	155.855	0	197.7	4	68.7	4	-1E+10	1	-1E+10	1	-1E+10	1	-1E+10	1	-1E+10	1	-1E+10	1
4901784	17	C	12/22/2015	10:50	-130.891	45.638	0	159.60	0	8.3370	0	33.5350	0	26.076	0	158.234	0	196.5	4	68.3	4	-1E+10	1	-1E+10	1	-1E+10	1	-1E+10	1	-1E+10	1	-1E+10	1
4901784	17	C	12/22/2015	10:50	-130.891	45.638	0	162.20	0	8.2590	0	33.5600	0	26.107	0	160.811	0	195.3	4	67.7	4	-1E+10	1	-1E+10	1	-1E+10	1	-1E+10	1	-1E+10	1	-1E+10	1
4901784	17	C	12/22/2015	10:50	-130.891	45.638	0	164.70	0	8.2250	0	33.5820	0	26.130	0	163.288	0	194.6	4	67.5	4	-1E+10	1	-1E+10	1	-1E+10	1	-1E+10	1	-1E+10	1	-1E+10	1
4901784	17	C	12/22/2015	10:50	-130.891	45.638	0	167.20	0	8.1540	0	33.6010	0	26.155	0	165.766	0	193.9	4	67.1	4	-1E+10	1	-1E+10	1	-1E+10	1	-1E+10	1	-1E+10	1	-1E+10	1
4901784	17	C	12/22/2015	10:50	-130.891	45.638	0	169.70	0	8.1240	0	33.6130	0	26.169	0	168.243	0	192.4	4	66.6	4	-1E+10	1	-1E+10	1	-1E+10	1	-1E+10	1	-1E+10	1	-1E+10	1
4901784	17	C	12/22/2015	10:50	-130.891	45.638	0	172.30	0	8.0990	0	33.6240	0	26.181	0	170.820	0	189.9	4	65.7	4	-1E+10	1	-1E+10	1	-1E+10	1	-1E+10	1	-1E+10	1	-1E+10	1
4901784	17	C	12/22/2015	10:50	-130.891	45.638	0	174.90	0	7.9980	0	33.6450	0	26.213	0	173.397	0	187.1	4	64.6	4	-1E+10	1	-1E+10	1	-1E+10	1	-1E+10	1	-1E+10	1	-1E+10	1
4901784	17	C	12/22/2015	10:50	-130.891	45.638	0	177.50	0	7.9930	0	33.6620	0	26.227	0	175.973	0	184.7	4	63.8	4	-1E+10	1	-1E+10	1	-1E+10	1	-1E+10	1	-1E+10	1	-1E+10	1
4901784	17	C	12/22/2015	10:50	-130.891	45.638	0	180.20	0	7.9300	0	33.6860	0	26.255	0	178.649	0	181.0	4	62.4	4	-1E+10	1	-1E+10	1	-1E+10	1	-1E+10	1	-1E+10	1	-1E+10	1
4901784	17	C	12/22/2015	10:50	-130.891	45.638	0	182.90	0	7.8600	0	33.6980	0	26.275	0	181.324	0	179.6	4	61.8	4	-1E+10	1	-1E+10	1	-1E+10	1	-1E+10	1	-1E+10	1	-1E+10	1
4901784	17	C	12/22/2015	10:50	-130.891	45.638	0	185.50	0	7.8230	0	33.7210	0	26.298	0	183.901	0	178.5	4	61.4	4	-1E+10	1	-1E+10	1	-1E+10	1	-1E+10	1	-1E+10	1	-1E+10	1
4901784	17	C	12/22/2015	10:50	-130.891	45.638	0	187.20	0	7.8040	0	33.7320	0	26.310	0	185.585	0	178.0	4	61.2	4	-1E+10	1	-1E+10	1	-1E+10	1	-1E+10	1	-1E+10	1	-1E+10	1
4901784	17	C	12/22/2015	10:50	-130.891	45.638	0	189.90	0	7.7890	0	33.7420	0	26.320	0	188.261	0	177.5	4	61.0	4	-1E+10	1	-1E+10	1	-1E+10	1	-1E+10	1	-1E+10	1	-1E+10	1
4901784	17	C	12/22/2015	10:50	-130.891	45.638	0	192.60	0	7.7840	0	33.7480	0	26.325	0	190.936	0	176.7	4	60.8	4	-1E+10	1	-1E+10	1	-1E+10	1	-1E+10	1	-1E+10	1	-1E+10	1
4901784	17	C	12/22/2015	10:50	-130.891	45.638	0	195.20	0	7.8040	0	33.7630	0	26.334	0	193.513	0	175.9	4	60.5	4	-1E+10	1	-1E+10	1	-1E+10	1	-1E+10	1	-1E+10	1	-1E+10	1
4901784	17	C	12/22/2015	10:50	-130.891	45.638	0	197.90	0	7.8410	0	33.7860	0	26.347	0	196.188	0	173.9	4	59.9	4	-1E+10	1	-1E+10	1	-1E+10	1	-1E+10	1	-1E+10	1	-1E+10	1
4901784	17	C	12/22/2015	10:50	-130.891	45.638	0	199.70	0	7.8480	0	33.7900	0	26.349	0	197.972	0	171.7	4	59.1	4	-1E+10	1	-1E+10	1	-1E+10	1	-1E+10	1	-1E+10	1	-1E+10	1
4901784	17	C	12/22/2015	10:50	-130.891	45.638	0	202.40	0	7.8350	0	33.7920	0	26.352	0	200.647	0	167.4	4	57.6	4	-1E+10	1	-1E+10	1	-1E+10	1	-1E+10	1	-1E+10	1	-1E+10	1
4901784	17	C	12/22/2015	10:50	-130.891	45.638	0	205.10	0	7.7450	0	33.7980	0	26.370	0	203.322	0	162.9	4	56.0	4	-1E+10	1	-1E+10	1	-1E+10	1	-1E+10	1	-1E+10	1	-1E+10	1
4901784	17	C	12/22/2015	10:50	-130.891	45.638	0	207.00	0	7.7390	0	33.7990	0	26.372	0	205.205	0	161.8	4	55.6	4	-1E+10	1	-1E+10	1	-1E+10	1	-1E+10	1	-1E+10	1	-1E+10	1
4901784	17	C	12/22/2015	10:50	-130.891	45.638	0	209.70	0	7.7150	0	33.8050	0	26.380	0	207.880	0	158.6	4	54.5	4	-1E+10	1	-1E+10	1	-1E+10	1	-1E+10	1	-1E+10	1	-1E+10	1
4901784	17	C	12/22/2015	10:50	-130.891	45.638	0	212.40	0	7.6570	0	33.8140	0	26.396	0	210.555	0	154.9	4	53.1	4	-1E+10	1	-1E+10	1	-1E+10	1	-1E+10	1	-1E+10	1	-1E+10	1
4901784	17	C	12/22/2015	10:50	-130.891	45.638	0	215.20	0	7.6150	0	33.8110	0	26.399	0	213.329	0	152.7	4	52.3	4	-1E+10	1	-1E+10	1	-1E+10	1	-1E+10	1	-1E+10	1	-1E+10	1
4901784	17	C	12/22/2015	10:50	-130.891	45.638	0	217.90	0	7.5990	0	33.8110	0	26.402	0	216.005	0	150.8	4	51.6	4	-1E+10	1	-1E+10	1	-1E+10	1	-1E+10	1	-1E+10	1	-1E+10	1
4901784	17	C	12/22/2015	10:50	-130.891	45.638	0	219.80	0	7.5810	0	33.8120	0	26.405	0	217.887	0	149.2	4	51.1	4	-1E+10	1	-1E+10	1	-1E+10	1	-1E+10	1	-1E+10	1	-1E+10	1
4901784	17	C	12/22/2015	10:50	-130.891	45.638	0	221.60	0	7.4670	0	33.8300	0	26.435	0	219.670	0	148.3	4	50.7	4	-1E+10	1	-1E+10	1	-1E+10	1	-1E+10	1	-1E+10	1	-1E+10	1
4901784	17	C	12/22/2015	10:50	-130.891	45.638	0	224.70	0	7.4340	0	33.8350	0	26.444	0	222.742	0	146.9	4	50.1	4	-1E+10	1	-1E+10	1	-1E+10	1	-1E+10	1	-1E+10	1	-1E+10	1
4901784	17	C	12/22/2015	10:50	-130.891	45.638	0	227.50	0	7.4050	0	33.8340	0	26.447	0	225.516	0	144.4	4	49.2	4	-1E+10	1	-1E+10	1	-1E+10	1	-1E+10	1	-1E+10	1	-1E+10	1
4901784	17	C	12/22/2015	10:50	-130.891	45.638	0	229.80	0	7.3030	0	33.8440	0	26.470	0	227.794	0	142.5	4	48.5	4	-1E+10	1	-1E+10	1	-1E+10	1	-1E+10	1	-1E+10	1	-1E+10	1
4901784	17	C	12/22/2015	10:50	-130.891	45.638	0	232.20	0	7.2410	0	33.8510	0	26.484	0	230.172	0	141.5	4	48.1	4	-1E+10	1	-1E+10	1	-1E+10	1	-1E+10	1	-1E+10	1	-1E+10	1
4901784	17	C	12/22/2015	10:50	-130.891	45.638	0	234.70	0	7.2270	0	33.8530	0	26.487	0	232.649	0	140.8	4	47.8	4	-1E+10	1	-1E+10	1	-1E+10	1	-1E+10	1	-1E+10	1	-1E+10	1
4901784	17	C	12/22/2015	10:50	-130.891	45.638	0	237.90	0	7.1950	0	33.8560	0	26.494	0	235.819	0	139.7	4	47.4	4	-1E+10	1	-1E+10	1	-1E+10	1	-1E+10	1	-1E+10	1	-1E+10	1
4901784	17	C	12/22/2015	10:50	-130.891	45.638	0	240.40	0	7.1710	0	33.8570	0	26.498	0	238.296	0	139.8	4	47.4	4	-1E+10	1	-1E+10	1	-1E+10	1	-1E+10	1	-1E+10	1	-1E+10	1
4901784	17	C	12/22/2015	10:50	-130.891	45.638	0	242.80	0	7.1480	0	33.8590	0	26.503	0	240.673	0	140.3	4	47.6	4	-1E+10	1	-1E+10	1	-1E+10	1	-1E+10	1	-1E+10	1	-1E+10	1
4901784	17	C	12/22/2015	10:50	-130.891	45.638	0	245.30	0	7.1120	0	33.8610	0	26.510	0	243.150	0	141.2	4	47.8	4	-1E+10	1	-1E+10	1	-1E+10	1	-1E+10	1	-1E+10	1	-1E+10	1
4901784	17	C	12/22/2015	10:50	-130.891	45.638	0	247.80	0	7.0800	0	33.8630	0	26.516	0	245.627	0	142.0	4	48.1	4	-1E+10	1	-1E+10	1	-1E+10	1	-1E+10	1	-1E+10	1	-1E+10	1
4901784	17	C	12/22/2015	10:50	-130.891	45.638	0	250.30	0	7.0660	0	33.8640	0	26.518	0	248.103	0	142.6	4	48.3	4	-1E+10	1	-1E+10	1	-1E+10	1	-1E+10	1	-1E+10	1	-1E+10	1
4901784	17	C	12/22/2015	10:50	-130.891	45.638	0	252.80	0	7.0580	0	33.8650	0	26.520	0	250.580	0	142.2	4	48.1	4	-1E+10	1	-1E+10	1	-1E+10	1	-1E+10	1	-1E+10	1	-1E+10	1
4901784	17	C	12/22/2015	10:50	-130.891	45.638	0	255.30	0	7.0340	0	33.8650	0	26.524	0	253.056	0	140.8	4	47.6	4	-1E+10	1	-1E+10	1	-1E+10	1	-1E+10	1	-1E+10	1	-1E+10	1
4901784	17	C	12/22/2015	10:50	-130.891	45.638	0	257.00	0	6.9860	0	33.8650	0	26.530	0	254.740	0	139.8	4	47.2	4	-1E+10	1	-1E+10	1	-1E+10	1	-1E+10	1	-1E+10	1	-1E+10	1
4901784	17	C	12/22/2015	10:50	-130.891	45.638	0	259.70	0	6.9500	0	33.8690	0	26.538	0	257.415	0	138.5	4	46.8	4	-1E+10	1	-1E+10	1	-1E+10	1	-1E+10	1	-1E+10	1	-1E+10	1
4901784	17	C	12/22/2015	10:50	-130.891	45.638	0	262.30	0	6.9300	0	33.8680	0	26.540	0	259.990	0	137.3	4	46.3	4	-1E+10	1	-1E+10	1	-1E+10	1	-1E+10	1	-1E+10	1	-1E+10	1
4901784	17	C	12/22/2015	10:50	-130.891	45.638	0	264.80	0	6.9000	0	33.8700	0	26.546	0	262.467	0	135.6	4	45.7	4	-1E+10	1	-1E+10	1	-1E+10	1	-1E+10	1	-1E+10	1	-1E+10	1
4901784	17	C	12/22/2015	10:50	-130.891	45.638	0	267.40	0	6.8440	0	33.8730	0	26.556	0	265.042	0	133.8	4	45.1	4	-1E+10	1	-1E+10	1	-1E+10	1	-1E+10	1	-1E+10	1	-1E+10	1
4901784	17	C	12/22/2015	10:50	-130.891	45.638	0	269.90	0	6.8190	0	33.8740	0	26.560	0	267.519	0	131.9	4	44.4	4	-1E+10	1	-1E+10	1	-1E+10	1	-1E+10	1	-1E+10	1	-1E+10	1
4901784	17	C	12/22/2015	10:50	-130.891	45.638	0	272.50	0	6.7800	0	33.8780	0	26.568	0	270.094	0	129.8	4	43.6	4	-1E+10	1	-1E+10	1	-1E+10	1	-1E+10	1	-1E+10	1	-1E+10	1
4901784	17	C	12/22/2015	10:50	-130.891	45.638	0	275.20	0	6.7560	0	33.8790	0	26.572	0	272.768	0	128.3	4	43.1	4	-1E+10	1	-1E+10	1	-1E+10	1	-1E+10	1	-1E+10	1	-1E+10	1
4901784	17	C	12/22/2015	10:50	-130.891	45.638	0	277.80	0	6.7410	0	33.8800	0	26.575	0	275.344	0	126.5	4	42.5	4	-1E+10	1	-1E+10	1	-1E+10	1	-1E+10	1	-1E+10	1	-1E+10	1
4901784	17	C	12/22/2015	10:50	-130.891	45.638	0	279.60	0	6.6940	0	33.8830	0	26.584	0	277.126	0	125.2	4	42.0	4	-1E+10	1	-1E+10	1	-1E+10	1	-1E+10	1	-1E+10	1	-1E+10	1
4901784	17	C	12/22/2015	10:50	-130.891	45.638	0	282.30	0	6.6620	0	33.8860	0	26.590	0	279.801	0	124.0	4	41.6	4	-1E+10	1	-1E+10	1	-1E+10	1	-1E+10	1	-1E+10	1	-1E+10	1
4901784	17	C	12/22/2015	10:50	-130.891	45.638	0	284.90	0	6.6470	0	33.8880	0	26.594	0	282.376	0	123.6	4	41.4	4	-1E+10	1	-1E+10	1	-1E+10	1	-1E+10	1	-1E+10	1	-1E+10	1
4901784	17	C	12/22/2015	10:50	-130.891	45.638	0	287.70	0	6.6340	0	33.8850	0	26.593	0	285.149	0	123.5	4	41.4	4	-1E+10	1	-1E+10	1	-1E+10	1	-1E+10	1	-1E+10	1	-1E+10	1
4901784	17	C	12/22/2015	10:50	-130.891	45.638	0	290.30	0	6.5640	0	33.8850	0	26.603	0	287.724	0	122.8	4	41.1	4	-1E+10	1	-1E+10	1	-1E+10	1	-1E+10	1	-1E+10	1	-1E+10	1
4901784	17	C	12/22/2015	10:50	-130.891	45.638	0	292.10	0	6.5360	0	33.8870	0	26.608	0	289.507	0	121.7	4	40.7	4	-1E+10	1	-1E+10	1	-1E+10	1	-1E+10	1	-1E+10	1	-1E+10	1
4901784	17	C	12/22/2015	10:50	-130.891	45.638	0	294.90	0	6.4790	0	33.8880	0	26.616	0	292.280	0	119.7	4	40.0	4	-1E+10	1	-1E+10	1	-1E+10	1	-1E+10	1	-1E+10	1	-1E+10	1
4901784	17	C	12/22/2015	10:50	-130.891	45.638	0	297.50	0	6.4460	0	33.8900	0	26.622	0	294.855	0	117.1	4	39.1	4	-1E+10	1	-1E+10	1	-1E+10	1	-1E+10	1	-1E+10	1	-1E+10	1
4901784	17	C	12/22/2015	10:50	-130.891	45.638	0	300.30	0	6.4010	0	33.8920	0	26.630	0	297.628	0	114.9	4	38.3	4	-1E+10	1	-1E+10	1	-1E+10	1	-1E+10	1	-1E+10	1	-1E+10	1
4901784	17	C	12/22/2015	10:50	-130.891	45.638	0	302.90	0	6.3620	0	33.8950	0	26.637	0	300.203	0	112.9	4	37.6	4	-1E+10	1	-1E+10	1	-1E+10	1	-1E+10	1	-1E+10	1	-1E+10	1
4901784	17	C	12/22/2015	10:50	-130.891	45.638	0	304.70	0	6.3290	0	33.8970	0	26.643	0	301.986	0	111.8	4	37.2	4	-1E+10	1	-1E+10	1	-1E+10	1	-1E+10	1	-1E+10	1	-1E+10	1
4901784	17	C	12/22/2015	10:50	-130.891	45.638	0	307.50	0	6.2910	0	33.9000	0	26.650	0	304.759	0	110.5	4	36.8	4	-1E+10	1	-1E+10	1	-1E+10	1	-1E+10	1	-1E+10	1	-1E+10	1
4901784	17	C	12/22/2015	10:50	-130.891	45.638	0	310.20	0	6.2660	0	33.9000	0	26.653	0	307.433	0	109.5	4	36.4	4	-1E+10	1	-1E+10	1	-1E+10	1	-1E+10	1	-1E+10	1	-1E+10	1
4901784	17	C	12/22/2015	10:50	-130.891	45.638	0	312.10	0	6.2380	0	33.9030	0	26.659	0	309.315	0	108.6	4	36.1	4	-1E+10	1	-1E+10	1	-1E+10	1	-1E+10	1	-1E+10	1	-1E+10	1
4901784	17	C	12/22/2015	10:50	-130.891	45.638	0	314.90	0	6.2190	0	33.9030	0	26.662	0	312.088	0	107.9	4	35.8	4	-1E+10	1	-1E+10	1	-1E+10	1	-1E+10	1	-1E+10	1	-1E+10	1
4901784	17	C	12/22/2015	10:50	-130.891	45.638	0	317.60	0	6.2070	0	33.9030	0	26.663	0	314.761	0	107.1	4	35.5	4	-1E+10	1	-1E+10	1	-1E+10	1	-1E+10	1	-1E+10	1	-1E+10	1
4901784	17	C	12/22/2015	10:50	-130.891	45.638	0	319.40	0	6.2020	0	33.9030	0	26.664	0	316.544	0	106.3	4	35.3	4	-1E+10	1	-1E+10	1	-1E+10	1	-1E+10	1	-1E+10	1	-1E+10	1
4901784	17	C	12/22/2015	10:50	-130.891	45.638	0	322.20	0	6.1920	0	33.9050	0	26.667	0	319.317	0	105.2	4	34.9	4	-1E+10	1	-1E+10	1	-1E+10	1	-1E+10	1	-1E+10	1	-1E+10	1
4901784	17	C	12/22/2015	10:50	-130.891	45.638	0	324.80	0	6.1870	0	33.9030	0	26.666	0	321.891	0	104.2	4	34.6	4	-1E+10	1	-1E+10	1	-1E+10	1	-1E+10	1	-1E+10	1	-1E+10	1
4901784	17	C	12/22/2015	10:50	-130.891	45.638	0	327.40	0	6.1660	0	33.9050	0	26.670	0	324.466	0	103.0	4	34.2	4	-1E+10	1	-1E+10	1	-1E+10	1	-1E+10	1	-1E+10	1	-1E+10	1
4901784	17	C	12/22/2015	10:50	-130.891	45.638	0	330.10	0	6.1340	0	33.9050	0	26.674	0	327.140	0	101.7	4	33.7	4	-1E+10	1	-1E+10	1	-1E+10	1	-1E+10	1	-1E+10	1	-1E+10	1
4901784	17	C	12/22/2015	10:50	-130.891	45.638	0	332.80	0	6.0980	0	33.9050	0	26.679	0	329.813	0	100.8	4	33.4	4	-1E+10	1	-1E+10	1	-1E+10	1	-1E+10	1	-1E+10	1	-1E+10	1
4901784	17	C	12/22/2015	10:50	-130.891	45.638	0	335.50	0	6.0540	0	33.9050	0	26.684	0	332.487	0	100.6	4	33.3	4	-1E+10	1	-1E+10	1	-1E+10	1	-1E+10	1	-1E+10	1	-1E+10	1
4901784	17	C	12/22/2015	10:50	-130.891	45.638	0	337.20	0	5.9150	0	33.9020	0	26.699	0	334.170	0	100.9	4	33.3	4	-1E+10	1	-1E+10	1	-1E+10	1	-1E+10	1	-1E+10	1	-1E+10	1
4901784	17	C	12/22/2015	10:50	-130.891	45.638	0	339.90	0	5.8430	0	33.9030	0	26.709	0	336.844	0	100.6	4	33.1	4	-1E+10	1	-1E+10	1	-1E+10	1	-1E+10	1	-1E+10	1	-1E+10	1
4901784	17	C	12/22/2015	10:50	-130.891	45.638	0	342.60	0	5.7950	0	33.9010	0	26.713	0	339.518	0	99.9	4	32.8	4	-1E+10	1	-1E+10	1	-1E+10	1	-1E+10	1	-1E+10	1	-1E+10	1
4901784	17	C	12/22/2015	10:50	-130.891	45.638	0	344.40	0	5.7620	0	33.9010	0	26.717	0	341.300	0	99.1	4	32.6	4	-1E+10	1	-1E+10	1	-1E+10	1	-1E+10	1	-1E+10	1	-1E+10	1
4901784	17	C	12/22/2015	10:50	-130.891	45.638	0	347.20	0	5.7590	0	33.9050	0	26.721	0	344.072	0	97.8	4	32.1	4	-1E+10	1	-1E+10	1	-1E+10	1	-1E+10	1	-1E+10	1	-1E+10	1
4901784	17	C	12/22/2015	10:50	-130.891	45.638	0	350.00	0	5.7420	0	33.9050	0	26.723	0	346.845	0	97.7	4	32.1	4	-1E+10	1	-1E+10	1	-1E+10	1	-1E+10	1	-1E+10	1	-1E+10	1
4901784	17	C	12/22/2015	10:50	-130.891	45.638	0	352.80	0	5.7230	0	33.9040	0	26.725	0	349.617	0	97.0	4	31.8	4	-1E+10	1	-1E+10	1	-1E+10	1	-1E+10	1	-1E+10	1	-1E+10	1
4901784	17	C	12/22/2015	10:50	-130.891	45.638	0	355.60	0	5.7020	0	33.9040	0	26.727	0	352.390	0	95.8	4	31.4	4	-1E+10	1	-1E+10	1	-1E+10	1	-1E+10	1	-1E+10	1	-1E+10	1
4901784	17	C	12/22/2015	10:50	-130.891	45.638	0	357.50	0	5.6950	0	33.9060	0	26.730	0	354.271	0	94.8	4	31.1	4	-1E+10	1	-1E+10	1	-1E+10	1	-1E+10	1	-1E+10	1	-1E+10	1
4901784	17	C	12/22/2015	10:50	-130.891	45.638	0	360.30	0	5.6650	0	33.9040	0	26.732	0	357.043	0	93.0	4	30.5	4	-1E+10	1	-1E+10	1	-1E+10	1	-1E+10	1	-1E+10	1	-1E+10	1
4901784	17	C	12/22/2015	10:50	-130.891	45.638	0	363.20	0	5.6620	0	33.9090	0	26.736	0	359.914	0	90.0	4	29.5	4	-1E+10	1	-1E+10	1	-1E+10	1	-1E+10	1	-1E+10	1	-1E+10	1
4901784	17	C	12/22/2015	10:50	-130.891	45.638	0	365.10	0	5.6730	0	33.9140	0	26.739	0	361.795	0	88.4	4	29.0	4	-1E+10	1	-1E+10	1	-1E+10	1	-1E+10	1	-1E+10	1	-1E+10	1
4901784	17	C	12/22/2015	10:50	-130.891	45.638	0	366.90	0	5.6750	0	33.9160	0	26.740	0	363.578	0	87.2	4	28.6	4	-1E+10	1	-1E+10	1	-1E+10	1	-1E+10	1	-1E+10	1	-1E+10	1
4901784	17	C	12/22/2015	10:50	-130.891	45.638	0	369.70	0	5.6670	0	33.9200	0	26.744	0	366.350	0	86.0	4	28.2	4	-1E+10	1	-1E+10	1	-1E+10	1	-1E+10	1	-1E+10	1	-1E+10	1
4901784	17	C	12/22/2015	10:50	-130.891	45.638	0	373.00	0	5.6540	0	33.9220	0	26.747	0	369.617	0	85.0	4	27.9	4	-1E+10	1	-1E+10	1	-1E+10	1	-1E+10	1	-1E+10	1	-1E+10	1
4901784	17	C	12/22/2015	10:50	-130.891	45.638	0	374.90	0	5.6420	0	33.9220	0	26.749	0	371.498	0	84.4	4	27.7	4	-1E+10	1	-1E+10	1	-1E+10	1	-1E+10	1	-1E+10	1	-1E+10	1
4901784	17	C	12/22/2015	10:50	-130.891	45.638	0	377.30	0	5.6230	0	33.9220	0	26.751	0	373.874	0	83.5	4	27.4	4	-1E+10	1	-1E+10	1	-1E+10	1	-1E+10	1	-1E+10	1	-1E+10	1
4901784	17	C	12/22/2015	10:50	-130.891	45.638	0	379.70	0	5.5740	0	33.9200	0	26.756	0	376.250	0	82.3	4	26.9	4	-1E+10	1	-1E+10	1	-1E+10	1	-1E+10	1	-1E+10	1	-1E+10	1
4901784	17	C	12/22/2015	10:50	-130.891	45.638	0	382.10	0	5.5790	0	33.9260	0	26.760	0	378.626	0	80.2	4	26.2	4	-1E+10	1	-1E+10	1	-1E+10	1	-1E+10	1	-1E+10	1	-1E+10	1
4901784	17	C	12/22/2015	10:50	-130.891	45.638	0	385.30	0	5.5560	0	33.9290	0	26.765	0	381.794	0	79.9	4	26.1	4	-1E+10	1	-1E+10	1	-1E+10	1	-1E+10	1	-1E+10	1	-1E+10	1
4901784	17	C	12/22/2015	10:50	-130.891	45.638	0	387.60	0	5.5250	0	33.9270	0	26.767	0	384.071	0	79.3	4	25.9	4	-1E+10	1	-1E+10	1	-1E+10	1	-1E+10	1	-1E+10	1	-1E+10	1
4901784	17	C	12/22/2015	10:50	-130.891	45.638	0	390.00	0	5.5150	0	33.9290	0	26.770	0	386.447	0	77.8	4	25.4	4	-1E+10	1	-1E+10	1	-1E+10	1	-1E+10	1	-1E+10	1	-1E+10	1
4901784	17	C	12/22/2015	10:50	-130.891	45.638	0	392.40	0	5.5060	0	33.9310	0	26.773	0	388.823	0	76.1	4	24.9	4	-1E+10	1	-1E+10	1	-1E+10	1	-1E+10	1	-1E+10	1	-1E+10	1
4901784	17	C	12/22/2015	10:50	-130.891	45.638	0	394.70	0	5.4980	0	33.9320	0	26.774	0	391.100	0	74.1	4	24.2	4	-1E+10	1	-1E+10	1	-1E+10	1	-1E+10	1	-1E+10	1	-1E+10	1
4901784	17	C	12/22/2015	10:50	-130.891	45.638	0	397.10	0	5.4960	0	33.9370	0	26.779	0	393.475	0	71.6	4	23.4	4	-1E+10	1	-1E+10	1	-1E+10	1	-1E+10	1	-1E+10	1	-1E+10	1
4901784	17	C	12/22/2015	10:50	-130.891	45.638	0	399.60	0	5.4970	0	33.9440	0	26.784	0	395.950	0	69.7	4	22.8	4	-1E+10	1	-1E+10	1	-1E+10	1	-1E+10	1	-1E+10	1	-1E+10	1
4901784	17	C	12/22/2015	10:50	-130.891	45.638	0	402.90	0	5.4920	0	33.9470	0	26.787	0	399.217	0	67.9	4	22.2	4	-1E+10	1	-1E+10	1	-1E+10	1	-1E+10	1	-1E+10	1	-1E+10	1
4901784	17	C	12/22/2015	10:50	-130.891	45.638	0	405.40	0	5.4520	0	33.9500	0	26.794	0	401.692	0	66.7	4	21.8	4	-1E+10	1	-1E+10	1	-1E+10	1	-1E+10	1	-1E+10	1	-1E+10	1
4901784	17	C	12/22/2015	10:50	-130.891	45.638	0	407.80	0	5.4440	0	33.9520	0	26.797	0	404.067	0	65.2	4	21.3	4	-1E+10	1	-1E+10	1	-1E+10	1	-1E+10	1	-1E+10	1	-1E+10	1
4901784	17	C	12/22/2015	10:50	-130.891	45.638	0	410.30	0	5.4430	0	33.9550	0	26.799	0	406.542	0	64.0	4	20.9	4	-1E+10	1	-1E+10	1	-1E+10	1	-1E+10	1	-1E+10	1	-1E+10	1
4901784	17	C	12/22/2015	10:50	-130.891	45.638	0	412.90	0	5.4210	0	33.9570	0	26.803	0	409.116	0	63.0	4	20.5	4	-1E+10	1	-1E+10	1	-1E+10	1	-1E+10	1	-1E+10	1	-1E+10	1
4901784	17	C	12/22/2015	10:50	-130.891	45.638	0	415.40	0	5.4040	0	33.9620	0	26.809	0	411.590	0	61.5	4	20.0	4	-1E+10	1	-1E+10	1	-1E+10	1	-1E+10	1	-1E+10	1	-1E+10	1
4901784	17	C	12/22/2015	10:50	-130.891	45.638	0	417.20	0	5.4020	0	33.9640	0	26.811	0	413.372	0	60.9	4	19.9	4	-1E+10	1	-1E+10	1	-1E+10	1	-1E+10	1	-1E+10	1	-1E+10	1
4901784	17	C	12/22/2015	10:50	-130.891	45.638	0	419.70	0	5.3860	0	33.9660	0	26.815	0	415.847	0	60.6	4	19.7	4	-1E+10	1	-1E+10	1	-1E+10	1	-1E+10	1	-1E+10	1	-1E+10	1
4901784	17	C	12/22/2015	10:50	-130.891	45.638	0	422.30	0	5.3530	0	33.9660	0	26.819	0	418.420	0	60.4	4	19.7	4	-1E+10	1	-1E+10	1	-1E+10	1	-1E+10	1	-1E+10	1	-1E+10	1
4901784	17	C	12/22/2015	10:50	-130.891	45.638	0	424.90	0	5.3500	0	33.9660	0	26.819	0	420.994	0	60.3	4	19.6	4	-1E+10	1	-1E+10	1	-1E+10	1	-1E+10	1	-1E+10	1	-1E+10	1
4901784	17	C	12/22/2015	10:50	-130.891	45.638	0	427.50	0	5.3230	0	33.9650	0	26.821	0	423.567	0	60.2	4	19.6	4	-1E+10	1	-1E+10	1	-1E+10	1	-1E+10	1	-1E+10	1	-1E+10	1
4901784	17	C	12/22/2015	10:50	-130.891	45.638	0	430.00	0	5.3030	0	33.9670	0	26.825	0	426.041	0	60.3	4	19.6	4	-1E+10	1	-1E+10	1	-1E+10	1	-1E+10	1	-1E+10	1	-1E+10	1
4901784	17	C	12/22/2015	10:50	-130.891	45.638	0	432.60	0	5.2790	0	33.9670	0	26.828	0	428.615	0	60.6	4	19.7	4	-1E+10	1	-1E+10	1	-1E+10	1	-1E+10	1	-1E+10	1	-1E+10	1
4901784	17	C	12/22/2015	10:50	-130.891	45.638	0	435.20	0	5.2300	0	33.9630	0	26.831	0	431.188	0	60.7	4	19.7	4	-1E+10	1	-1E+10	1	-1E+10	1	-1E+10	1	-1E+10	1	-1E+10	1
4901784	17	C	12/22/2015	10:50	-130.891	45.638	0	437.70	0	5.2200	0	33.9620	0	26.831	0	433.663	0	59.9	4	19.4	4	-1E+10	1	-1E+10	1	-1E+10	1	-1E+10	1	-1E+10	1	-1E+10	1
4901784	17	C	12/22/2015	10:50	-130.891	45.638	0	440.40	0	5.1810	0	33.9650	0	26.838	0	436.335	0	58.6	4	19.0	4	-1E+10	1	-1E+10	1	-1E+10	1	-1E+10	1	-1E+10	1	-1E+10	1
4901784	17	C	12/22/2015	10:50	-130.891	45.638	0	442.90	0	5.1800	0	33.9710	0	26.843	0	438.809	0	57.3	4	18.6	4	-1E+10	1	-1E+10	1	-1E+10	1	-1E+10	1	-1E+10	1	-1E+10	1
4901784	17	C	12/22/2015	10:50	-130.891	45.638	0	444.70	0	5.1620	0	33.9710	0	26.845	0	440.591	0	56.8	4	18.4	4	-1E+10	1	-1E+10	1	-1E+10	1	-1E+10	1	-1E+10	1	-1E+10	1
4901784	17	C	12/22/2015	10:50	-130.891	45.638	0	447.30	0	5.1220	0	33.9710	0	26.850	0	443.164	0	55.8	4	18.1	4	-1E+10	1	-1E+10	1	-1E+10	1	-1E+10	1	-1E+10	1	-1E+10	1
4901784	17	C	12/22/2015	10:50	-130.891	45.638	0	449.80	0	5.1230	0	33.9770	0	26.854	0	445.638	0	54.1	4	17.5	4	-1E+10	1	-1E+10	1	-1E+10	1	-1E+10	1	-1E+10	1	-1E+10	1
4901784	17	C	12/22/2015	10:50	-130.891	45.638	0	452.50	0	5.1160	0	33.9830	0	26.860	0	448.310	0	52.9	4	17.1	4	-1E+10	1	-1E+10	1	-1E+10	1	-1E+10	1	-1E+10	1	-1E+10	1
4901784	17	C	12/22/2015	10:50	-130.891	45.638	0	455.00	0	5.1120	0	33.9850	0	26.862	0	450.784	0	52.0	4	16.8	4	-1E+10	1	-1E+10	1	-1E+10	1	-1E+10	1	-1E+10	1	-1E+10	1
4901784	17	C	12/22/2015	10:50	-130.891	45.638	0	457.60	0	5.0940	0	33.9880	0	26.866	0	453.357	0	51.1	4	16.6	4	-1E+10	1	-1E+10	1	-1E+10	1	-1E+10	1	-1E+10	1	-1E+10	1
4901784	17	C	12/22/2015	10:50	-130.891	45.638	0	460.20	0	5.0710	0	33.9900	0	26.871	0	455.930	0	50.4	4	16.3	4	-1E+10	1	-1E+10	1	-1E+10	1	-1E+10	1	-1E+10	1	-1E+10	1
4901784	17	C	12/22/2015	10:50	-130.891	45.638	0	462.80	0	5.0490	0	33.9930	0	26.876	0	458.503	0	49.5	4	16.0	4	-1E+10	1	-1E+10	1	-1E+10	1	-1E+10	1	-1E+10	1	-1E+10	1
4901784	17	C	12/22/2015	10:50	-130.891	45.638	0	465.40	0	5.0200	0	33.9960	0	26.881	0	461.076	0	48.6	4	15.7	4	-1E+10	1	-1E+10	1	-1E+10	1	-1E+10	1	-1E+10	1	-1E+10	1
4901784	17	C	12/22/2015	10:50	-130.891	45.638	0	467.10	0	4.9800	0	33.9990	0	26.888	0	462.759	0	48.1	4	15.5	4	-1E+10	1	-1E+10	1	-1E+10	1	-1E+10	1	-1E+10	1	-1E+10	1
4901784	17	C	12/22/2015	10:50	-130.891	45.638	0	469.70	0	4.9610	0	34.0010	0	26.892	0	465.331	0	47.2	4	15.2	4	-1E+10	1	-1E+10	1	-1E+10	1	-1E+10	1	-1E+10	1	-1E+10	1
4901784	17	C	12/22/2015	10:50	-130.891	45.638	0	472.40	0	4.9390	0	34.0050	0	26.898	0	468.003	0	46.3	4	14.9	4	-1E+10	1	-1E+10	1	-1E+10	1	-1E+10	1	-1E+10	1	-1E+10	1
4901784	17	C	12/22/2015	10:50	-130.891	45.638	0	475.00	0	4.9260	0	34.0070	0	26.901	0	470.576	0	45.2	4	14.6	4	-1E+10	1	-1E+10	1	-1E+10	1	-1E+10	1	-1E+10	1	-1E+10	1
4901784	17	C	12/22/2015	10:50	-130.891	45.638	0	477.60	0	4.9220	0	34.0140	0	26.907	0	473.149	0	44.1	4	14.2	4	-1E+10	1	-1E+10	1	-1E+10	1	-1E+10	1	-1E+10	1	-1E+10	1
4901784	17	C	12/22/2015	10:50	-130.891	45.638	0	480.30	0	4.9140	0	34.0160	0	26.909	0	475.821	0	43.3	4	14.0	4	-1E+10	1	-1E+10	1	-1E+10	1	-1E+10	1	-1E+10	1	-1E+10	1
4901784	17	C	12/22/2015	10:50	-130.891	45.638	0	483.00	0	4.8830	0	34.0200	0	26.916	0	478.492	0	42.6	4	13.7	4	-1E+10	1	-1E+10	1	-1E+10	1	-1E+10	1	-1E+10	1	-1E+10	1
4901784	17	C	12/22/2015	10:50	-130.891	45.638	0	484.80	0	4.8810	0	34.0200	0	26.916	0	480.274	0	42.1	4	13.5	4	-1E+10	1	-1E+10	1	-1E+10	1	-1E+10	1	-1E+10	1	-1E+10	1
4901784	17	C	12/22/2015	10:50	-130.891	45.638	0	487.40	0	4.8660	0	34.0230	0	26.920	0	482.846	0	41.2	4	13.3	4	-1E+10	1	-1E+10	1	-1E+10	1	-1E+10	1	-1E+10	1	-1E+10	1
4901784	17	C	12/22/2015	10:50	-130.891	45.638	0	490.00	0	4.8450	0	34.0280	0	26.927	0	485.419	0	40.3	4	13.0	4	-1E+10	1	-1E+10	1	-1E+10	1	-1E+10	1	-1E+10	1	-1E+10	1
4901784	17	C	12/22/2015	10:50	-130.891	45.638	0	492.60	0	4.8190	0	34.0320	0	26.933	0	487.992	0	39.7	4	12.8	4	-1E+10	1	-1E+10	1	-1E+10	1	-1E+10	1	-1E+10	1	-1E+10	1
4901784	17	C	12/22/2015	10:50	-130.891	45.638	0	495.20	0	4.8020	0	34.0340	0	26.936	0	490.564	0	39.2	4	12.6	4	-1E+10	1	-1E+10	1	-1E+10	1	-1E+10	1	-1E+10	1	-1E+10	1
4901784	17	C	12/22/2015	10:50	-130.891	45.638	0	497.00	0	4.7950	0	34.0360	0	26.939	0	492.345	0	38.8	4	12.5	4	-1E+10	1	-1E+10	1	-1E+10	1	-1E+10	1	-1E+10	1	-1E+10	1
4901784	17	C	12/22/2015	10:50	-130.891	45.638	0	499.70	0	4.7900	0	34.0380	0	26.941	0	495.017	0	38.4	4	12.3	4	-1E+10	1	-1E+10	1	-1E+10	1	-1E+10	1	-1E+10	1	-1E+10	1
4901784	17	C	12/22/2015	10:50	-130.891	45.638	0	505.10	0	4.7670	0	34.0410	0	26.946	0	500.360	0	36.8	4	11.8	4	-1E+10	1	-1E+10	1	-1E+10	1	-1E+10	1	-1E+10	1	-1E+10	1
4901784	17	C	12/22/2015	10:50	-130.891	45.638	0	509.60	0	4.7370	0	34.0460	0	26.953	0	504.812	0	35.2	4	11.3	4	-1E+10	1	-1E+10	1	-1E+10	1	-1E+10	1	-1E+10	1	-1E+10	1
4901784	17	C	12/22/2015	10:50	-130.891	45.638	0	515.10	0	4.6910	0	34.0590	0	26.968	0	510.253	0	33.8	4	10.8	4	-1E+10	1	-1E+10	1	-1E+10	1	-1E+10	1	-1E+10	1	-1E+10	1
4901784	17	C	12/22/2015	10:50	-130.891	45.638	0	519.80	0	4.6730	0	34.0620	0	26.973	0	514.903	0	33.2	4	10.6	4	-1E+10	1	-1E+10	1	-1E+10	1	-1E+10	1	-1E+10	1	-1E+10	1
4901784	17	C	12/22/2015	10:50	-130.891	45.638	0	524.40	0	4.6460	0	34.0650	0	26.978	0	519.454	0	32.2	4	10.3	4	-1E+10	1	-1E+10	1	-1E+10	1	-1E+10	1	-1E+10	1	-1E+10	1
4901784	17	C	12/22/2015	10:50	-130.891	45.638	0	529.90	0	4.6250	0	34.0740	0	26.988	0	524.896	0	30.6	4	9.8	4	-1E+10	1	-1E+10	1	-1E+10	1	-1E+10	1	-1E+10	1	-1E+10	1
4901784	17	C	12/22/2015	10:50	-130.891	45.638	0	535.60	0	4.6170	0	34.0790	0	26.993	0	530.534	0	29.7	4	9.5	4	-1E+10	1	-1E+10	1	-1E+10	1	-1E+10	1	-1E+10	1	-1E+10	1
4901784	17	C	12/22/2015	10:50	-130.891	45.638	0	540.60	0	4.6090	0	34.0830	0	26.997	0	535.481	0	28.8	4	9.2	4	-1E+10	1	-1E+10	1	-1E+10	1	-1E+10	1	-1E+10	1	-1E+10	1
4901784	17	C	12/22/2015	10:50	-130.891	45.638	0	545.00	0	4.5790	0	34.0870	0	27.003	0	539.833	0	28.1	4	9.0	4	-1E+10	1	-1E+10	1	-1E+10	1	-1E+10	1	-1E+10	1	-1E+10	1
4901784	17	C	12/22/2015	10:50	-130.891	45.638	0	549.80	0	4.5550	0	34.0900	0	27.008	0	544.582	0	27.5	4	8.8	4	-1E+10	1	-1E+10	1	-1E+10	1	-1E+10	1	-1E+10	1	-1E+10	1
4901784	17	C	12/22/2015	10:50	-130.891	45.638	0	554.60	0	4.5190	0	34.0940	0	27.015	0	549.330	0	27.2	4	8.7	4	-1E+10	1	-1E+10	1	-1E+10	1	-1E+10	1	-1E+10	1	-1E+10	1
4901784	17	C	12/22/2015	10:50	-130.891	45.638	0	559.50	0	4.5070	0	34.0950	0	27.017	0	554.177	0	27.2	4	8.7	4	-1E+10	1	-1E+10	1	-1E+10	1	-1E+10	1	-1E+10	1	-1E+10	1
4901784	17	C	12/22/2015	10:50	-130.891	45.638	0	564.40	0	4.4990	0	34.0950	0	27.018	0	559.023	0	27.4	4	8.8	4	-1E+10	1	-1E+10	1	-1E+10	1	-1E+10	1	-1E+10	1	-1E+10	1
4901784	17	C	12/22/2015	10:50	-130.891	45.638	0	569.40	0	4.4800	0	34.0940	0	27.020	0	563.969	0	27.8	4	8.9	4	-1E+10	1	-1E+10	1	-1E+10	1	-1E+10	1	-1E+10	1	-1E+10	1
4901784	17	C	12/22/2015	10:50	-130.891	45.638	0	574.40	0	4.4390	0	34.0930	0	27.023	0	568.914	0	28.3	4	9.0	4	-1E+10	1	-1E+10	1	-1E+10	1	-1E+10	1	-1E+10	1	-1E+10	1
4901784	17	C	12/22/2015	10:50	-130.891	45.638	0	579.30	0	4.4080	0	34.0940	0	27.027	0	573.761	0	28.1	4	8.9	4	-1E+10	1	-1E+10	1	-1E+10	1	-1E+10	1	-1E+10	1	-1E+10	1
4901784	17	C	12/22/2015	10:50	-130.891	45.638	0	584.30	0	4.3430	0	34.0950	0	27.035	0	578.706	0	27.2	4	8.6	4	-1E+10	1	-1E+10	1	-1E+10	1	-1E+10	1	-1E+10	1	-1E+10	1
4901784	17	C	12/22/2015	10:50	-130.891	45.638	0	589.40	0	4.3670	0	34.1060	0	27.041	0	583.750	0	24.7	4	7.9	4	-1E+10	1	-1E+10	1	-1E+10	1	-1E+10	1	-1E+10	1	-1E+10	1
4901784	17	C	12/22/2015	10:50	-130.891	45.638	0	594.50	0	4.4130	0	34.1180	0	27.046	0	588.794	0	23.3	4	7.4	4	-1E+10	1	-1E+10	1	-1E+10	1	-1E+10	1	-1E+10	1	-1E+10	1
4901784	17	C	12/22/2015	10:50	-130.891	45.638	0	599.70	0	4.3910	0	34.1230	0	27.052	0	593.937	0	22.6	4	7.2	4	-1E+10	1	-1E+10	1	-1E+10	1	-1E+10	1	-1E+10	1	-1E+10	1
4901784	17	C	12/22/2015	10:50	-130.891	45.638	0	604.90	0	4.3740	0	34.1300	0	27.060	0	599.079	0	21.5	4	6.8	4	-1E+10	1	-1E+10	1	-1E+10	1	-1E+10	1	-1E+10	1	-1E+10	1
4901784	17	C	12/22/2015	10:50	-130.891	45.638	0	610.00	0	4.3700	0	34.1370	0	27.066	0	604.123	0	20.9	4	6.7	4	-1E+10	1	-1E+10	1	-1E+10	1	-1E+10	1	-1E+10	1	-1E+10	1
4901784	17	C	12/22/2015	10:50	-130.891	45.638	0	615.20	0	4.3570	0	34.1380	0	27.068	0	609.265	0	21.0	4	6.7	4	-1E+10	1	-1E+10	1	-1E+10	1	-1E+10	1	-1E+10	1	-1E+10	1
4901784	17	C	12/22/2015	10:50	-130.891	45.638	0	620.40	0	4.3380	0	34.1390	0	27.071	0	614.407	0	21.0	4	6.7	4	-1E+10	1	-1E+10	1	-1E+10	1	-1E+10	1	-1E+10	1	-1E+10	1
4901784	17	C	12/22/2015	10:50	-130.891	45.638	0	625.70	0	4.3260	0	34.1410	0	27.074	0	619.648	0	20.8	4	6.6	4	-1E+10	1	-1E+10	1	-1E+10	1	-1E+10	1	-1E+10	1	-1E+10	1
4901784	17	C	12/22/2015	10:50	-130.891	45.638	0	630.10	0	4.3150	0	34.1420	0	27.076	0	623.999	0	20.5	4	6.5	4	-1E+10	1	-1E+10	1	-1E+10	1	-1E+10	1	-1E+10	1	-1E+10	1
4901784	17	C	12/22/2015	10:50	-130.891	45.638	0	634.40	0	4.3140	0	34.1440	0	27.078	0	628.251	0	20.1	4	6.4	4	-1E+10	1	-1E+10	1	-1E+10	1	-1E+10	1	-1E+10	1	-1E+10	1
4901784	17	C	12/22/2015	10:50	-130.891	45.638	0	639.70	0	4.2870	0	34.1490	0	27.084	0	633.492	0	19.4	4	6.2	4	-1E+10	1	-1E+10	1	-1E+10	1	-1E+10	1	-1E+10	1	-1E+10	1
4901784	17	C	12/22/2015	10:50	-130.891	45.638	0	644.90	0	4.2920	0	34.1560	0	27.089	0	638.633	0	18.5	4	5.9	4	-1E+10	1	-1E+10	1	-1E+10	1	-1E+10	1	-1E+10	1	-1E+10	1
4901784	17	C	12/22/2015	10:50	-130.891	45.638	0	650.20	0	4.3050	0	34.1610	0	27.092	0	643.873	0	18.4	4	5.9	4	-1E+10	1	-1E+10	1	-1E+10	1	-1E+10	1	-1E+10	1	-1E+10	1
4901784	17	C	12/22/2015	10:50	-130.891	45.638	0	655.60	0	4.2590	0	34.1600	0	27.096	0	649.212	0	18.9	4	6.0	4	-1E+10	1	-1E+10	1	-1E+10	1	-1E+10	1	-1E+10	1	-1E+10	1
4901784	17	C	12/22/2015	10:50	-130.891	45.638	0	660.10	0	4.2440	0	34.1580	0	27.096	0	653.662	0	18.7	4	5.9	4	-1E+10	1	-1E+10	1	-1E+10	1	-1E+10	1	-1E+10	1	-1E+10	1
4901784	17	C	12/22/2015	10:50	-130.891	45.638	0	664.60	0	4.2210	0	34.1620	0	27.102	0	658.111	0	18.0	4	5.7	4	-1E+10	1	-1E+10	1	-1E+10	1	-1E+10	1	-1E+10	1	-1E+10	1
4901784	17	C	12/22/2015	10:50	-130.891	45.638	0	670.00	0	4.2390	0	34.1710	0	27.107	0	663.449	0	17.5	4	5.5	4	-1E+10	1	-1E+10	1	-1E+10	1	-1E+10	1	-1E+10	1	-1E+10	1
4901784	17	C	12/22/2015	10:50	-130.891	45.638	0	675.40	0	4.1850	0	34.1700	0	27.112	0	668.788	0	17.7	4	5.6	4	-1E+10	1	-1E+10	1	-1E+10	1	-1E+10	1	-1E+10	1	-1E+10	1
4901784	17	C	12/22/2015	10:50	-130.891	45.638	0	680.10	0	4.1680	0	34.1740	0	27.117	0	673.434	0	17.0	4	5.4	4	-1E+10	1	-1E+10	1	-1E+10	1	-1E+10	1	-1E+10	1	-1E+10	1
4901784	17	C	12/22/2015	10:50	-130.891	45.638	0	684.70	0	4.1670	0	34.1810	0	27.123	0	677.982	0	16.7	4	5.3	4	-1E+10	1	-1E+10	1	-1E+10	1	-1E+10	1	-1E+10	1	-1E+10	1
4901784	17	C	12/22/2015	10:50	-130.891	45.638	0	690.20	0	4.1480	0	34.1830	0	27.126	0	683.419	0	16.5	4	5.2	4	-1E+10	1	-1E+10	1	-1E+10	1	-1E+10	1	-1E+10	1	-1E+10	1
4901784	17	C	12/22/2015	10:50	-130.891	45.638	0	694.80	0	4.1510	0	34.1860	0	27.128	0	687.966	0	16.1	4	5.1	4	-1E+10	1	-1E+10	1	-1E+10	1	-1E+10	1	-1E+10	1	-1E+10	1
4901784	17	C	12/22/2015	10:50	-130.891	45.638	0	699.50	0	4.1450	0	34.1920	0	27.134	0	692.612	0	15.3	4	4.9	4	-1E+10	1	-1E+10	1	-1E+10	1	-1E+10	1	-1E+10	1	-1E+10	1
4901784	17	C	12/22/2015	10:50	-130.891	45.638	0	705.10	0	4.1520	0	34.1990	0	27.139	0	698.147	0	14.9	4	4.7	4	-1E+10	1	-1E+10	1	-1E+10	1	-1E+10	1	-1E+10	1	-1E+10	1
4901784	17	C	12/22/2015	10:50	-130.891	45.638	0	709.80	0	4.1400	0	34.2050	0	27.145	0	702.793	0	14.7	4	4.6	4	-1E+10	1	-1E+10	1	-1E+10	1	-1E+10	1	-1E+10	1	-1E+10	1
4901784	17	C	12/22/2015	10:50	-130.891	45.638	0	714.50	0	4.1210	0	34.2090	0	27.150	0	707.439	0	14.4	4	4.6	4	-1E+10	1	-1E+10	1	-1E+10	1	-1E+10	1	-1E+10	1	-1E+10	1
4901784	17	C	12/22/2015	10:50	-130.891	45.638	0	720.10	0	4.1020	0	34.2160	0	27.158	0	712.974	0	14.1	4	4.5	4	-1E+10	1	-1E+10	1	-1E+10	1	-1E+10	1	-1E+10	1	-1E+10	1
4901784	17	C	12/22/2015	10:50	-130.891	45.638	0	724.80	0	4.0940	0	34.2200	0	27.162	0	717.619	0	13.9	4	4.4	4	-1E+10	1	-1E+10	1	-1E+10	1	-1E+10	1	-1E+10	1	-1E+10	1
4901784	17	C	12/22/2015	10:50	-130.891	45.638	0	729.60	0	4.0930	0	34.2220	0	27.163	0	722.363	0	13.4	4	4.2	4	-1E+10	1	-1E+10	1	-1E+10	1	-1E+10	1	-1E+10	1	-1E+10	1
4901784	17	C	12/22/2015	10:50	-130.891	45.638	0	735.30	0	4.1140	0	34.2370	0	27.173	0	727.997	0	12.6	4	4.0	4	-1E+10	1	-1E+10	1	-1E+10	1	-1E+10	1	-1E+10	1	-1E+10	1
4901784	17	C	12/22/2015	10:50	-130.891	45.638	0	740.70	0	4.1190	0	34.2440	0	27.178	0	733.334	0	12.4	4	3.9	4	-1E+10	1	-1E+10	1	-1E+10	1	-1E+10	1	-1E+10	1	-1E+10	1
4901784	17	C	12/22/2015	10:50	-130.891	45.638	0	745.20	0	4.1150	0	34.2450	0	27.179	0	737.781	0	12.4	4	3.9	4	-1E+10	1	-1E+10	1	-1E+10	1	-1E+10	1	-1E+10	1	-1E+10	1
4901784	17	C	12/22/2015	10:50	-130.891	45.638	0	750.00	0	4.1080	0	34.2460	0	27.181	0	742.525	0	12.2	4	3.9	4	-1E+10	1	-1E+10	1	-1E+10	1	-1E+10	1	-1E+10	1	-1E+10	1
4901784	17	C	12/22/2015	10:50	-130.891	45.638	0	755.00	0	4.1120	0	34.2500	0	27.184	0	747.466	0	12.0	4	3.8	4	-1E+10	1	-1E+10	1	-1E+10	1	-1E+10	1	-1E+10	1	-1E+10	1
4901784	17	C	12/22/2015	10:50	-130.891	45.638	0	759.80	0	4.0910	0	34.2530	0	27.188	0	752.209	0	12.0	4	3.8	4	-1E+10	1	-1E+10	1	-1E+10	1	-1E+10	1	-1E+10	1	-1E+10	1
4901784	17	C	12/22/2015	10:50	-130.891	45.638	0	764.70	0	4.0630	0	34.2580	0	27.195	0	757.052	0	11.9	4	3.8	4	-1E+10	1	-1E+10	1	-1E+10	1	-1E+10	1	-1E+10	1	-1E+10	1
4901784	17	C	12/22/2015	10:50	-130.891	45.638	0	769.50	0	4.0400	0	34.2600	0	27.199	0	761.795	0	11.9	4	3.8	4	-1E+10	1	-1E+10	1	-1E+10	1	-1E+10	1	-1E+10	1	-1E+10	1
4901784	17	C	12/22/2015	10:50	-130.891	45.638	0	774.40	0	4.0220	0	34.2620	0	27.203	0	766.637	0	11.9	4	3.8	4	-1E+10	1	-1E+10	1	-1E+10	1	-1E+10	1	-1E+10	1	-1E+10	1
4901784	17	C	12/22/2015	10:50	-130.891	45.638	0	779.30	0	4.0030	0	34.2630	0	27.206	0	771.479	0	12.1	4	3.8	4	-1E+10	1	-1E+10	1	-1E+10	1	-1E+10	1	-1E+10	1	-1E+10	1
4901784	17	C	12/22/2015	10:50	-130.891	45.638	0	784.30	0	3.9560	0	34.2620	0	27.210	0	776.419	0	12.3	4	3.9	4	-1E+10	1	-1E+10	1	-1E+10	1	-1E+10	1	-1E+10	1	-1E+10	1
4901784	17	C	12/22/2015	10:50	-130.891	45.638	0	789.30	0	3.9100	0	34.2640	0	27.216	0	781.359	0	12.3	4	3.9	4	-1E+10	1	-1E+10	1	-1E+10	1	-1E+10	1	-1E+10	1	-1E+10	1
4901784	17	C	12/22/2015	10:50	-130.891	45.638	0	794.30	0	3.8970	0	34.2650	0	27.218	0	786.300	0	12.3	4	3.9	4	-1E+10	1	-1E+10	1	-1E+10	1	-1E+10	1	-1E+10	1	-1E+10	1
4901784	17	C	12/22/2015	10:50	-130.891	45.638	0	799.20	0	3.8700	0	34.2660	0	27.222	0	791.141	0	12.2	4	3.9	4	-1E+10	1	-1E+10	1	-1E+10	1	-1E+10	1	-1E+10	1	-1E+10	1
4901784	17	C	12/22/2015	10:50	-130.891	45.638	0	804.30	0	3.8650	0	34.2700	0	27.225	0	796.180	0	12.1	4	3.8	4	-1E+10	1	-1E+10	1	-1E+10	1	-1E+10	1	-1E+10	1	-1E+10	1
4901784	17	C	12/22/2015	10:50	-130.891	45.638	0	809.40	0	3.8660	0	34.2720	0	27.227	0	801.219	0	11.9	4	3.8	4	-1E+10	1	-1E+10	1	-1E+10	1	-1E+10	1	-1E+10	1	-1E+10	1
4901784	17	C	12/22/2015	10:50	-130.891	45.638	0	814.50	0	3.8600	0	34.2760	0	27.231	0	806.257	0	11.8	4	3.7	4	-1E+10	1	-1E+10	1	-1E+10	1	-1E+10	1	-1E+10	1	-1E+10	1
4901784	17	C	12/22/2015	10:50	-130.891	45.638	0	819.70	0	3.8460	0	34.2780	0	27.234	0	811.395	0	11.8	4	3.7	4	-1E+10	1	-1E+10	1	-1E+10	1	-1E+10	1	-1E+10	1	-1E+10	1
4901784	17	C	12/22/2015	10:50	-130.891	45.638	0	825.00	0	3.8380	0	34.2790	0	27.235	0	816.631	0	11.8	4	3.7	4	-1E+10	1	-1E+10	1	-1E+10	1	-1E+10	1	-1E+10	1	-1E+10	1
4901784	17	C	12/22/2015	10:50	-130.891	45.638	0	830.40	0	3.8160	0	34.2820	0	27.240	0	821.965	0	11.9	4	3.7	4	-1E+10	1	-1E+10	1	-1E+10	1	-1E+10	1	-1E+10	1	-1E+10	1
4901784	17	C	12/22/2015	10:50	-130.891	45.638	0	834.80	0	3.8030	0	34.2830	0	27.242	0	826.312	0	11.9	4	3.7	4	-1E+10	1	-1E+10	1	-1E+10	1	-1E+10	1	-1E+10	1	-1E+10	1
4901784	17	C	12/22/2015	10:50	-130.891	45.638	0	839.20	0	3.8000	0	34.2840	0	27.243	0	830.658	0	11.8	4	3.7	4	-1E+10	1	-1E+10	1	-1E+10	1	-1E+10	1	-1E+10	1	-1E+10	1
4901784	17	C	12/22/2015	10:50	-130.891	45.638	0	844.50	0	3.7900	0	34.2850	0	27.245	0	835.894	0	11.8	4	3.7	4	-1E+10	1	-1E+10	1	-1E+10	1	-1E+10	1	-1E+10	1	-1E+10	1
4901784	17	C	12/22/2015	10:50	-130.891	45.638	0	849.60	0	3.7660	0	34.2870	0	27.249	0	840.931	0	11.9	4	3.7	4	-1E+10	1	-1E+10	1	-1E+10	1	-1E+10	1	-1E+10	1	-1E+10	1
4901784	17	C	12/22/2015	10:50	-130.891	45.638	0	855.10	0	3.7270	0	34.2880	0	27.254	0	846.364	0	12.0	4	3.8	4	-1E+10	1	-1E+10	1	-1E+10	1	-1E+10	1	-1E+10	1	-1E+10	1
4901784	17	C	12/22/2015	10:50	-130.891	45.638	0	860.60	0	3.7120	0	34.2900	0	27.257	0	851.797	0	11.9	4	3.7	4	-1E+10	1	-1E+10	1	-1E+10	1	-1E+10	1	-1E+10	1	-1E+10	1
4901784	17	C	12/22/2015	10:50	-130.891	45.638	0	865.50	0	3.7110	0	34.2920	0	27.258	0	856.637	0	11.8	4	3.7	4	-1E+10	1	-1E+10	1	-1E+10	1	-1E+10	1	-1E+10	1	-1E+10	1
4901784	17	C	12/22/2015	10:50	-130.891	45.638	0	870.40	0	3.7080	0	34.2960	0	27.262	0	861.476	0	11.8	4	3.7	4	-1E+10	1	-1E+10	1	-1E+10	1	-1E+10	1	-1E+10	1	-1E+10	1
4901784	17	C	12/22/2015	10:50	-130.891	45.638	0	875.30	0	3.7060	0	34.2970	0	27.263	0	866.316	0	11.8	4	3.7	4	-1E+10	1	-1E+10	1	-1E+10	1	-1E+10	1	-1E+10	1	-1E+10	1
4901784	17	C	12/22/2015	10:50	-130.891	45.638	0	880.30	0	3.7000	0	34.2970	0	27.264	0	871.254	0	11.8	4	3.7	4	-1E+10	1	-1E+10	1	-1E+10	1	-1E+10	1	-1E+10	1	-1E+10	1
4901784	17	C	12/22/2015	10:50	-130.891	45.638	0	885.50	0	3.6800	0	34.3010	0	27.269	0	876.390	0	11.8	4	3.7	4	-1E+10	1	-1E+10	1	-1E+10	1	-1E+10	1	-1E+10	1	-1E+10	1
4901784	17	C	12/22/2015	10:50	-130.891	45.638	0	890.60	0	3.6390	0	34.3010	0	27.273	0	881.427	0	11.9	4	3.7	4	-1E+10	1	-1E+10	1	-1E+10	1	-1E+10	1	-1E+10	1	-1E+10	1
4901784	17	C	12/22/2015	10:50	-130.891	45.638	0	895.80	0	3.6060	0	34.3020	0	27.277	0	886.562	0	12.0	4	3.7	4	-1E+10	1	-1E+10	1	-1E+10	1	-1E+10	1	-1E+10	1	-1E+10	1
4901784	17	C	12/22/2015	10:50	-130.891	45.638	0	900.00	0	3.5780	0	34.3070	0	27.284	0	890.710	0	11.9	4	3.7	4	-1E+10	1	-1E+10	1	-1E+10	1	-1E+10	1	-1E+10	1	-1E+10	1
4901784	17	C	12/22/2015	10:50	-130.891	45.638	0	904.30	0	3.5820	0	34.3090	0	27.285	0	894.956	0	11.9	4	3.7	4	-1E+10	1	-1E+10	1	-1E+10	1	-1E+10	1	-1E+10	1	-1E+10	1
4901784	17	C	12/22/2015	10:50	-130.891	45.638	0	909.50	0	3.5820	0	34.3090	0	27.285	0	900.092	0	11.9	4	3.7	4	-1E+10	1	-1E+10	1	-1E+10	1	-1E+10	1	-1E+10	1	-1E+10	1
4901784	17	C	12/22/2015	10:50	-130.891	45.638	0	914.70	0	3.5770	0	34.3100	0	27.286	0	905.226	0	11.8	4	3.7	4	-1E+10	1	-1E+10	1	-1E+10	1	-1E+10	1	-1E+10	1	-1E+10	1
4901784	17	C	12/22/2015	10:50	-130.891	45.638	0	920.00	0	3.5750	0	34.3160	0	27.291	0	910.460	0	11.7	4	3.6	4	-1E+10	1	-1E+10	1	-1E+10	1	-1E+10	1	-1E+10	1	-1E+10	1
4901784	17	C	12/22/2015	10:50	-130.891	45.638	0	925.40	0	3.5670	0	34.3200	0	27.295	0	915.792	0	11.6	4	3.6	4	-1E+10	1	-1E+10	1	-1E+10	1	-1E+10	1	-1E+10	1	-1E+10	1
4901784	17	C	12/22/2015	10:50	-130.891	45.638	0	930.00	0	3.5570	0	34.3230	0	27.299	0	920.334	0	11.6	4	3.6	4	-1E+10	1	-1E+10	1	-1E+10	1	-1E+10	1	-1E+10	1	-1E+10	1
4901784	17	C	12/22/2015	10:50	-130.891	45.638	0	934.50	0	3.5370	0	34.3260	0	27.303	0	924.778	0	11.6	4	3.6	4	-1E+10	1	-1E+10	1	-1E+10	1	-1E+10	1	-1E+10	1	-1E+10	1
4901784	17	C	12/22/2015	10:50	-130.891	45.638	0	939.90	0	3.5180	0	34.3280	0	27.306	0	930.110	0	11.7	4	3.6	4	-1E+10	1	-1E+10	1	-1E+10	1	-1E+10	1	-1E+10	1	-1E+10	1
4901784	17	C	12/22/2015	10:50	-130.891	45.638	0	945.30	0	3.5050	0	34.3280	0	27.308	0	935.441	0	11.7	4	3.6	4	-1E+10	1	-1E+10	1	-1E+10	1	-1E+10	1	-1E+10	1	-1E+10	1
4901784	17	C	12/22/2015	10:50	-130.891	45.638	0	950.70	0	3.5070	0	34.3310	0	27.310	0	940.773	0	11.7	4	3.6	4	-1E+10	1	-1E+10	1	-1E+10	1	-1E+10	1	-1E+10	1	-1E+10	1
4901784	17	C	12/22/2015	10:50	-130.891	45.638	0	955.20	0	3.4970	0	34.3300	0	27.310	0	945.216	0	11.7	4	3.7	4	-1E+10	1	-1E+10	1	-1E+10	1	-1E+10	1	-1E+10	1	-1E+10	1
4901784	17	C	12/22/2015	10:50	-130.891	45.638	0	959.60	0	3.4920	0	34.3290	0	27.310	0	949.560	0	11.8	4	3.7	4	-1E+10	1	-1E+10	1	-1E+10	1	-1E+10	1	-1E+10	1	-1E+10	1
4901784	17	C	12/22/2015	10:50	-130.891	45.638	0	965.10	0	3.4460	0	34.3270	0	27.313	0	954.990	0	11.9	4	3.7	4	-1E+10	1	-1E+10	1	-1E+10	1	-1E+10	1	-1E+10	1	-1E+10	1
4901784	17	C	12/22/2015	10:50	-130.891	45.638	0	970.60	0	3.4480	0	34.3330	0	27.317	0	960.419	0	11.7	4	3.7	4	-1E+10	1	-1E+10	1	-1E+10	1	-1E+10	1	-1E+10	1	-1E+10	1
4901784	17	C	12/22/2015	10:50	-130.891	45.638	0	975.20	0	3.4360	0	34.3360	0	27.321	0	964.961	0	11.7	4	3.7	4	-1E+10	1	-1E+10	1	-1E+10	1	-1E+10	1	-1E+10	1	-1E+10	1
4901784	17	C	12/22/2015	10:50	-130.891	45.638	0	979.80	0	3.4500	0	34.3430	0	27.325	0	969.502	0	11.6	4	3.6	4	-1E+10	1	-1E+10	1	-1E+10	1	-1E+10	1	-1E+10	1	-1E+10	1
4901784	17	C	12/22/2015	10:50	-130.891	45.638	0	985.20	0	3.4510	0	34.3450	0	27.327	0	974.832	0	11.6	4	3.6	4	-1E+10	1	-1E+10	1	-1E+10	1	-1E+10	1	-1E+10	1	-1E+10	1
4901784	17	C	12/22/2015	10:50	-130.891	45.638	0	990.60	0	3.4080	0	34.3430	0	27.329	0	980.163	0	11.8	4	3.7	4	-1E+10	1	-1E+10	1	-1E+10	1	-1E+10	1	-1E+10	1	-1E+10	1
4901784	17	C	12/22/2015	10:50	-130.891	45.638	0	995.00	0	3.3800	0	34.3450	0	27.334	0	984.506	0	11.8	4	3.7	4	-1E+10	1	-1E+10	1	-1E+10	1	-1E+10	1	-1E+10	1	-1E+10	1
4901784	17	C	12/22/2015	10:50	-130.891	45.638	0	999.40	0	3.3820	0	34.3490	0	27.337	0	988.849	0	11.8	4	3.7	4	-1E+10	1	-1E+10	1	-1E+10	1	-1E+10	1	-1E+10	1	-1E+10	1
4901784	17	C	12/22/2015	10:50	-130.891	45.638	0	1004.70	0	3.3690	0	34.3520	0	27.340	0	994.081	0	11.8	4	3.7	4	-1E+10	1	-1E+10	1	-1E+10	1	-1E+10	1	-1E+10	1	-1E+10	1
4901784	17	C	12/22/2015	10:50	-130.891	45.638	0	1009.90	0	3.3890	0	34.3600	0	27.345	0	999.213	0	11.8	4	3.7	4	-1E+10	1	-1E+10	1	-1E+10	1	-1E+10	1	-1E+10	1	-1E+10	1
4901784	17	C	12/22/2015	10:50	-130.891	45.638	0	1015.30	0	3.3730	0	34.3620	0	27.348	0	1004.543	0	11.8	4	3.7	4	-1E+10	1	-1E+10	1	-1E+10	1	-1E+10	1	-1E+10	1	-1E+10	1
4901784	17	C	12/22/2015	10:50	-130.891	45.638	0	1020.70	0	3.3550	0	34.3620	0	27.350	0	1009.873	0	11.8	4	3.7	4	-1E+10	1	-1E+10	1	-1E+10	1	-1E+10	1	-1E+10	1	-1E+10	1
4901784	17	C	12/22/2015	10:50	-130.891	45.638	0	1025.10	0	3.3420	0	34.3620	0	27.351	0	1014.216	0	11.9	4	3.7	4	-1E+10	1	-1E+10	1	-1E+10	1	-1E+10	1	-1E+10	1	-1E+10	1
4901784	17	C	12/22/2015	10:50	-130.891	45.638	0	1029.60	0	3.3320	0	34.3640	0	27.353	0	1018.657	0	11.9	4	3.7	4	-1E+10	1	-1E+10	1	-1E+10	1	-1E+10	1	-1E+10	1	-1E+10	1
4901784	17	C	12/22/2015	10:50	-130.891	45.638	0	1034.90	0	3.3240	0	34.3660	0	27.356	0	1023.888	0	12.0	4	3.7	4	-1E+10	1	-1E+10	1	-1E+10	1	-1E+10	1	-1E+10	1	-1E+10	1
4901784	17	C	12/22/2015	10:50	-130.891	45.638	0	1040.30	0	3.3150	0	34.3690	0	27.359	0	1029.217	0	12.1	4	3.7	4	-1E+10	1	-1E+10	1	-1E+10	1	-1E+10	1	-1E+10	1	-1E+10	1
4901784	17	C	12/22/2015	10:50	-130.891	45.638	0	1044.80	0	3.3060	0	34.3740	0	27.364	0	1033.658	0	12.1	4	3.8	4	-1E+10	1	-1E+10	1	-1E+10	1	-1E+10	1	-1E+10	1	-1E+10	1
4901784	17	C	12/22/2015	10:50	-130.891	45.638	0	1049.40	0	3.2920	0	34.3780	0	27.368	0	1038.198	0	12.3	4	3.8	4	-1E+10	1	-1E+10	1	-1E+10	1	-1E+10	1	-1E+10	1	-1E+10	1
4901784	17	C	12/22/2015	10:50	-130.891	45.638	0	1054.80	0	3.2820	0	34.3830	0	27.373	0	1043.527	0	12.4	4	3.9	4	-1E+10	1	-1E+10	1	-1E+10	1	-1E+10	1	-1E+10	1	-1E+10	1
4901784	17	C	12/22/2015	10:50	-130.891	45.638	0	1060.40	0	3.2770	0	34.3870	0	27.377	0	1049.053	0	12.5	4	3.9	4	-1E+10	1	-1E+10	1	-1E+10	1	-1E+10	1	-1E+10	1	-1E+10	1
4901784	17	C	12/22/2015	10:50	-130.891	45.638	0	1065.00	0	3.2530	0	34.3900	0	27.382	0	1053.592	0	12.6	4	3.9	4	-1E+10	1	-1E+10	1	-1E+10	1	-1E+10	1	-1E+10	1	-1E+10	1
4901784	17	C	12/22/2015	10:50	-130.891	45.638	0	1069.80	0	3.2380	0	34.3910	0	27.384	0	1058.329	0	12.6	4	3.9	4	-1E+10	1	-1E+10	1	-1E+10	1	-1E+10	1	-1E+10	1	-1E+10	1
4901784	17	C	12/22/2015	10:50	-130.891	45.638	0	1075.10	0	3.2360	0	34.3920	0	27.385	0	1063.558	0	12.7	4	3.9	4	-1E+10	1	-1E+10	1	-1E+10	1	-1E+10	1	-1E+10	1	-1E+10	1
4901784	17	C	12/22/2015	10:50	-130.891	45.638	0	1079.30	0	3.2340	0	34.3920	0	27.385	0	1067.703	0	12.7	4	4.0	4	-1E+10	1	-1E+10	1	-1E+10	1	-1E+10	1	-1E+10	1	-1E+10	1
4901784	17	C	12/22/2015	10:50	-130.891	45.638	0	1084.30	0	3.2240	0	34.3950	0	27.389	0	1072.636	0	12.8	4	4.0	4	-1E+10	1	-1E+10	1	-1E+10	1	-1E+10	1	-1E+10	1	-1E+10	1
4901784	17	C	12/22/2015	10:50	-130.891	45.638	0	1090.00	0	3.2150	0	34.3960	0	27.390	0	1078.260	0	12.9	4	4.0	4	-1E+10	1	-1E+10	1	-1E+10	1	-1E+10	1	-1E+10	1	-1E+10	1
4901784	17	C	12/22/2015	10:50	-130.891	45.638	0	1095.60	0	3.2140	0	34.3970	0	27.391	0	1083.785	0	12.9	4	4.0	4	-1E+10	1	-1E+10	1	-1E+10	1	-1E+10	1	-1E+10	1	-1E+10	1
4901784	17	C	12/22/2015	10:50	-130.891	45.638	0	1100.40	0	3.2090	0	34.3970	0	27.392	0	1088.521	0	12.9	4	4.0	4	-1E+10	1	-1E+10	1	-1E+10	1	-1E+10	1	-1E+10	1	-1E+10	1
4901784	17	C	12/22/2015	10:50	-130.891	45.638	0	1105.30	0	3.2040	0	34.3980	0	27.393	0	1093.355	0	13.0	4	4.0	4	-1E+10	1	-1E+10	1	-1E+10	1	-1E+10	1	-1E+10	1	-1E+10	1
4901784	17	C	12/22/2015	10:50	-130.891	45.638	0	1110.20	0	3.2020	0	34.3990	0	27.394	0	1098.190	0	13.0	4	4.0	4	-1E+10	1	-1E+10	1	-1E+10	1	-1E+10	1	-1E+10	1	-1E+10	1
4901784	17	C	12/22/2015	10:50	-130.891	45.638	0	1115.60	0	3.1940	0	34.3990	0	27.395	0	1103.517	0	13.1	4	4.1	4	-1E+10	1	-1E+10	1	-1E+10	1	-1E+10	1	-1E+10	1	-1E+10	1
4901784	17	C	12/22/2015	10:50	-130.891	45.638	0	1120.30	0	3.1710	0	34.4020	0	27.399	0	1108.154	0	13.2	4	4.1	4	-1E+10	1	-1E+10	1	-1E+10	1	-1E+10	1	-1E+10	1	-1E+10	1
4901784	17	C	12/22/2015	10:50	-130.891	45.638	0	1125.00	0	3.1640	0	34.4020	0	27.400	0	1112.790	0	13.2	4	4.1	4	-1E+10	1	-1E+10	1	-1E+10	1	-1E+10	1	-1E+10	1	-1E+10	1
4901784	17	C	12/22/2015	10:50	-130.891	45.638	0	1130.40	0	3.1540	0	34.4040	0	27.403	0	1118.117	0	13.3	4	4.1	4	-1E+10	1	-1E+10	1	-1E+10	1	-1E+10	1	-1E+10	1	-1E+10	1
4901784	17	C	12/22/2015	10:50	-130.891	45.638	0	1135.00	0	3.1510	0	34.4050	0	27.404	0	1122.655	0	13.4	4	4.2	4	-1E+10	1	-1E+10	1	-1E+10	1	-1E+10	1	-1E+10	1	-1E+10	1
4901784	17	C	12/22/2015	10:50	-130.891	45.638	0	1139.60	0	3.1350	0	34.4070	0	27.407	0	1127.193	0	13.5	4	4.2	4	-1E+10	1	-1E+10	1	-1E+10	1	-1E+10	1	-1E+10	1	-1E+10	1
4901784	17	C	12/22/2015	10:50	-130.891	45.638	0	1145.20	0	3.1200	0	34.4070	0	27.408	0	1132.717	0	13.6	4	4.2	4	-1E+10	1	-1E+10	1	-1E+10	1	-1E+10	1	-1E+10	1	-1E+10	1
4901784	17	C	12/22/2015	10:50	-130.891	45.638	0	1149.90	0	3.1010	0	34.4080	0	27.411	0	1137.353	0	13.6	4	4.2	4	-1E+10	1	-1E+10	1	-1E+10	1	-1E+10	1	-1E+10	1	-1E+10	1
4901784	17	C	12/22/2015	10:50	-130.891	45.638	0	1154.60	0	3.0810	0	34.4100	0	27.414	0	1141.989	0	13.6	4	4.2	4	-1E+10	1	-1E+10	1	-1E+10	1	-1E+10	1	-1E+10	1	-1E+10	1
4901784	17	C	12/22/2015	10:50	-130.891	45.638	0	1160.20	0	3.0760	0	34.4100	0	27.415	0	1147.512	0	13.7	4	4.2	4	-1E+10	1	-1E+10	1	-1E+10	1	-1E+10	1	-1E+10	1	-1E+10	1
4901784	17	C	12/22/2015	10:50	-130.891	45.638	0	1165.00	0	3.0710	0	34.4110	0	27.416	0	1152.247	0	13.7	4	4.2	4	-1E+10	1	-1E+10	1	-1E+10	1	-1E+10	1	-1E+10	1	-1E+10	1
4901784	17	C	12/22/2015	10:50	-130.891	45.638	0	1169.80	0	3.0580	0	34.4130	0	27.419	0	1156.981	0	13.8	4	4.3	4	-1E+10	1	-1E+10	1	-1E+10	1	-1E+10	1	-1E+10	1	-1E+10	1
4901784	17	C	12/22/2015	10:50	-130.891	45.638	0	1174.60	0	3.0560	0	34.4130	0	27.419	0	1161.715	0	13.8	4	4.3	4	-1E+10	1	-1E+10	1	-1E+10	1	-1E+10	1	-1E+10	1	-1E+10	1
4901784	17	C	12/22/2015	10:50	-130.891	45.638	0	1179.30	0	3.0510	0	34.4140	0	27.420	0	1166.350	0	13.9	4	4.3	4	-1E+10	1	-1E+10	1	-1E+10	1	-1E+10	1	-1E+10	1	-1E+10	1
4901784	17	C	12/22/2015	10:50	-130.891	45.638	0	1184.90	0	3.0430	0	34.4150	0	27.422	0	1171.873	0	14.1	4	4.3	4	-1E+10	1	-1E+10	1	-1E+10	1	-1E+10	1	-1E+10	1	-1E+10	1
4901784	17	C	12/22/2015	10:50	-130.891	45.638	0	1189.70	0	3.0350	0	34.4170	0	27.424	0	1176.607	0	14.2	4	4.4	4	-1E+10	1	-1E+10	1	-1E+10	1	-1E+10	1	-1E+10	1	-1E+10	1
4901784	17	C	12/22/2015	10:50	-130.891	45.638	0	1194.40	0	3.0300	0	34.4180	0	27.425	0	1181.242	0	14.2	4	4.4	4	-1E+10	1	-1E+10	1	-1E+10	1	-1E+10	1	-1E+10	1	-1E+10	1
4901784	17	C	12/22/2015	10:50	-130.891	45.638	0	1200.00	0	3.0250	0	34.4190	0	27.427	0	1186.765	0	14.4	4	4.5	4	-1E+10	1	-1E+10	1	-1E+10	1	-1E+10	1	-1E+10	1	-1E+10	1
4901784	17	C	12/22/2015	10:50	-130.891	45.638	0	1205.60	0	3.0150	0	34.4220	0	27.430	0	1192.287	0	14.6	4	4.5	4	-1E+10	1	-1E+10	1	-1E+10	1	-1E+10	1	-1E+10	1	-1E+10	1
4901784	17	C	12/22/2015	10:50	-130.891	45.638	0	1210.30	0	2.9990	0	34.4250	0	27.434	0	1196.922	0	14.8	4	4.6	4	-1E+10	1	-1E+10	1	-1E+10	1	-1E+10	1	-1E+10	1	-1E+10	1
4901784	17	C	12/22/2015	10:50	-130.891	45.638	0	1215.10	0	2.9920	0	34.4260	0	27.435	0	1201.655	0	14.9	4	4.6	4	-1E+10	1	-1E+10	1	-1E+10	1	-1E+10	1	-1E+10	1	-1E+10	1
4901784	17	C	12/22/2015	10:50	-130.891	45.638	0	1219.90	0	2.9900	0	34.4260	0	27.436	0	1206.388	0	15.0	4	4.6	4	-1E+10	1	-1E+10	1	-1E+10	1	-1E+10	1	-1E+10	1	-1E+10	1
4901784	17	C	12/22/2015	10:50	-130.891	45.638	0	1224.70	0	2.9780	0	34.4280	0	27.438	0	1211.121	0	15.3	4	4.7	4	-1E+10	1	-1E+10	1	-1E+10	1	-1E+10	1	-1E+10	1	-1E+10	1
4901784	17	C	12/22/2015	10:50	-130.891	45.638	0	1230.40	0	2.9550	0	34.4320	0	27.443	0	1216.742	0	15.5	4	4.8	4	-1E+10	1	-1E+10	1	-1E+10	1	-1E+10	1	-1E+10	1	-1E+10	1
4901784	17	C	12/22/2015	10:50	-130.891	45.638	0	1235.10	0	2.9380	0	34.4350	0	27.447	0	1221.376	0	15.7	4	4.9	4	-1E+10	1	-1E+10	1	-1E+10	1	-1E+10	1	-1E+10	1	-1E+10	1
4901784	17	C	12/22/2015	10:50	-130.891	45.638	0	1239.90	0	2.9270	0	34.4350	0	27.448	0	1226.108	0	15.9	4	4.9	4	-1E+10	1	-1E+10	1	-1E+10	1	-1E+10	1	-1E+10	1	-1E+10	1
4901784	17	C	12/22/2015	10:50	-130.891	45.638	0	1245.50	0	2.9140	0	34.4370	0	27.451	0	1231.630	0	16.2	4	5.0	4	-1E+10	1	-1E+10	1	-1E+10	1	-1E+10	1	-1E+10	1	-1E+10	1
4901784	17	C	12/22/2015	10:50	-130.891	45.638	0	1250.00	0	2.8930	0	34.4410	0	27.456	0	1236.066	0	16.5	4	5.1	4	-1E+10	1	-1E+10	1	-1E+10	1	-1E+10	1	-1E+10	1	-1E+10	1
4901784	17	C	12/22/2015	10:50	-130.891	45.638	0	1254.60	0	2.8790	0	34.4430	0	27.459	0	1240.602	0	16.8	4	5.2	4	-1E+10	1	-1E+10	1	-1E+10	1	-1E+10	1	-1E+10	1	-1E+10	1
4901784	17	C	12/22/2015	10:50	-130.891	45.638	0	1260.70	0	2.8580	0	34.4460	0	27.463	0	1246.615	0	17.1	4	5.3	4	-1E+10	1	-1E+10	1	-1E+10	1	-1E+10	1	-1E+10	1	-1E+10	1
4901784	17	C	12/22/2015	10:50	-130.891	45.638	0	1265.60	0	2.8470	0	34.4480	0	27.466	0	1251.446	0	17.2	4	5.3	4	-1E+10	1	-1E+10	1	-1E+10	1	-1E+10	1	-1E+10	1	-1E+10	1
4901784	17	C	12/22/2015	10:50	-130.891	45.638	0	1270.30	0	2.8430	0	34.4490	0	27.467	0	1256.080	0	17.3	4	5.3	4	-1E+10	1	-1E+10	1	-1E+10	1	-1E+10	1	-1E+10	1	-1E+10	1
4901784	17	C	12/22/2015	10:50	-130.891	45.638	0	1275.10	0	2.8420	0	34.4490	0	27.467	0	1260.811	0	17.3	4	5.3	4	-1E+10	1	-1E+10	1	-1E+10	1	-1E+10	1	-1E+10	1	-1E+10	1
4901784	17	C	12/22/2015	10:50	-130.891	45.638	0	1279.90	0	2.8410	0	34.4490	0	27.467	0	1265.543	0	17.4	4	5.4	4	-1E+10	1	-1E+10	1	-1E+10	1	-1E+10	1	-1E+10	1	-1E+10	1
4901784	17	C	12/22/2015	10:50	-130.891	45.638	0	1284.60	0	2.8390	0	34.4490	0	27.468	0	1270.176	0	17.5	4	5.4	4	-1E+10	1	-1E+10	1	-1E+10	1	-1E+10	1	-1E+10	1	-1E+10	1
4901784	17	C	12/22/2015	10:50	-130.891	45.638	0	1289.50	0	2.8280	0	34.4510	0	27.470	0	1275.007	0	17.8	4	5.5	4	-1E+10	1	-1E+10	1	-1E+10	1	-1E+10	1	-1E+10	1	-1E+10	1
4901784	17	C	12/22/2015	10:50	-130.891	45.638	0	1294.50	0	2.8130	0	34.4530	0	27.473	0	1279.935	0	18.0	4	5.5	4	-1E+10	1	-1E+10	1	-1E+10	1	-1E+10	1	-1E+10	1	-1E+10	1
4901784	17	C	12/22/2015	10:50	-130.891	45.638	0	1299.50	0	2.8080	0	34.4540	0	27.474	0	1284.864	0	18.1	4	5.6	4	-1E+10	1	-1E+10	1	-1E+10	1	-1E+10	1	-1E+10	1	-1E+10	1
4901784	17	C	12/22/2015	10:50	-130.891	45.638	0	1304.50	0	2.8040	0	34.4540	0	27.475	0	1289.792	0	18.2	4	5.6	4	-1E+10	1	-1E+10	1	-1E+10	1	-1E+10	1	-1E+10	1	-1E+10	1
4901784	17	C	12/22/2015	10:50	-130.891	45.638	0	1309.60	0	2.7920	0	34.4570	0	27.478	0	1294.819	0	18.5	4	5.7	4	-1E+10	1	-1E+10	1	-1E+10	1	-1E+10	1	-1E+10	1	-1E+10	1
4901784	17	C	12/22/2015	10:50	-130.891	45.638	0	1314.60	0	2.7760	0	34.4580	0	27.481	0	1299.747	0	18.7	4	5.7	4	-1E+10	1	-1E+10	1	-1E+10	1	-1E+10	1	-1E+10	1	-1E+10	1
4901784	17	C	12/22/2015	10:50	-130.891	45.638	0	1319.60	0	2.7680	0	34.4600	0	27.483	0	1304.675	0	18.9	4	5.8	4	-1E+10	1	-1E+10	1	-1E+10	1	-1E+10	1	-1E+10	1	-1E+10	1
4901784	17	C	12/22/2015	10:50	-130.891	45.638	0	1324.60	0	2.7570	0	34.4610	0	27.485	0	1309.603	0	19.1	4	5.9	4	-1E+10	1	-1E+10	1	-1E+10	1	-1E+10	1	-1E+10	1	-1E+10	1
4901784	17	C	12/22/2015	10:50	-130.891	45.638	0	1329.50	0	2.7460	0	34.4630	0	27.487	0	1314.432	0	19.3	4	5.9	4	-1E+10	1	-1E+10	1	-1E+10	1	-1E+10	1	-1E+10	1	-1E+10	1
4901784	17	C	12/22/2015	10:50	-130.891	45.638	0	1334.60	0	2.7430	0	34.4630	0	27.488	0	1319.458	0	19.6	4	6.0	4	-1E+10	1	-1E+10	1	-1E+10	1	-1E+10	1	-1E+10	1	-1E+10	1
4901784	17	C	12/22/2015	10:50	-130.891	45.638	0	1339.60	0	2.7240	0	34.4660	0	27.492	0	1324.386	0	19.9	4	6.1	4	-1E+10	1	-1E+10	1	-1E+10	1	-1E+10	1	-1E+10	1	-1E+10	1
4901784	17	C	12/22/2015	10:50	-130.891	45.638	0	1344.60	0	2.7160	0	34.4680	0	27.494	0	1329.313	0	20.0	4	6.1	4	-1E+10	1	-1E+10	1	-1E+10	1	-1E+10	1	-1E+10	1	-1E+10	1
4901784	17	C	12/22/2015	10:50	-130.891	45.638	0	1349.80	0	2.7120	0	34.4680	0	27.494	0	1334.438	0	20.2	4	6.2	4	-1E+10	1	-1E+10	1	-1E+10	1	-1E+10	1	-1E+10	1	-1E+10	1
4901784	17	C	12/22/2015	10:50	-130.891	45.638	0	1355.00	0	2.7020	0	34.4680	0	27.495	0	1339.562	0	20.4	4	6.2	4	-1E+10	1	-1E+10	1	-1E+10	1	-1E+10	1	-1E+10	1	-1E+10	1
4901784	17	C	12/22/2015	10:50	-130.891	45.638	0	1360.10	0	2.6680	0	34.4710	0	27.500	0	1344.588	0	20.7	4	6.3	4	-1E+10	1	-1E+10	1	-1E+10	1	-1E+10	1	-1E+10	1	-1E+10	1
4901784	17	C	12/22/2015	10:50	-130.891	45.638	0	1365.50	0	2.6460	0	34.4730	0	27.504	0	1349.909	0	20.9	4	6.4	4	-1E+10	1	-1E+10	1	-1E+10	1	-1E+10	1	-1E+10	1	-1E+10	1
4901784	17	C	12/22/2015	10:50	-130.891	45.638	0	1369.90	0	2.6380	0	34.4740	0	27.506	0	1354.245	0	20.9	4	6.4	4	-1E+10	1	-1E+10	1	-1E+10	1	-1E+10	1	-1E+10	1	-1E+10	1
4901784	17	C	12/22/2015	10:50	-130.891	45.638	0	1374.40	0	2.6340	0	34.4740	0	27.506	0	1358.679	0	21.0	4	6.4	4	-1E+10	1	-1E+10	1	-1E+10	1	-1E+10	1	-1E+10	1	-1E+10	1
4901784	17	C	12/22/2015	10:50	-130.891	45.638	0	1379.80	0	2.6330	0	34.4740	0	27.506	0	1364.000	0	21.0	4	6.4	4	-1E+10	1	-1E+10	1	-1E+10	1	-1E+10	1	-1E+10	1	-1E+10	1
4901784	17	C	12/22/2015	10:50	-130.891	45.638	0	1385.10	0	2.6300	0	34.4740	0	27.506	0	1369.222	0	21.1	4	6.5	4	-1E+10	1	-1E+10	1	-1E+10	1	-1E+10	1	-1E+10	1	-1E+10	1
4901784	17	C	12/22/2015	10:50	-130.891	45.638	0	1390.30	0	2.6270	0	34.4740	0	27.507	0	1374.345	0	21.4	4	6.5	4	-1E+10	1	-1E+10	1	-1E+10	1	-1E+10	1	-1E+10	1	-1E+10	1
4901784	17	C	12/22/2015	10:50	-130.891	45.638	0	1395.10	0	2.6160	0	34.4750	0	27.508	0	1379.074	0	21.7	4	6.6	4	-1E+10	1	-1E+10	1	-1E+10	1	-1E+10	1	-1E+10	1	-1E+10	1
4901784	17	C	12/22/2015	10:50	-130.891	45.638	0	1399.80	0	2.5940	0	34.4780	0	27.513	0	1383.705	0	22.2	4	6.8	4	-1E+10	1	-1E+10	1	-1E+10	1	-1E+10	1	-1E+10	1	-1E+10	1
4901784	17	C	12/22/2015	10:50	-130.891	45.638	0	1404.80	0	2.5770	0	34.4810	0	27.516	0	1388.631	0	22.4	4	6.9	4	-1E+10	1	-1E+10	1	-1E+10	1	-1E+10	1	-1E+10	1	-1E+10	1
4901784	17	C	12/22/2015	10:50	-130.891	45.638	0	1409.70	0	2.5750	0	34.4810	0	27.517	0	1393.458	0	22.6	4	6.9	4	-1E+10	1	-1E+10	1	-1E+10	1	-1E+10	1	-1E+10	1	-1E+10	1
4901784	17	C	12/22/2015	10:50	-130.891	45.638	0	1414.70	0	2.5720	0	34.4820	0	27.518	0	1398.384	0	22.9	4	7.0	4	-1E+10	1	-1E+10	1	-1E+10	1	-1E+10	1	-1E+10	1	-1E+10	1
4901784	17	C	12/22/2015	10:50	-130.891	45.638	0	1419.60	0	2.5600	0	34.4840	0	27.520	0	1403.211	0	23.3	4	7.1	4	-1E+10	1	-1E+10	1	-1E+10	1	-1E+10	1	-1E+10	1	-1E+10	1
4901784	17	C	12/22/2015	10:50	-130.891	45.638	0	1424.70	0	2.5570	0	34.4850	0	27.521	0	1408.236	0	23.4	4	7.1	4	-1E+10	1	-1E+10	1	-1E+10	1	-1E+10	1	-1E+10	1	-1E+10	1
4901784	17	C	12/22/2015	10:50	-130.891	45.638	0	1429.70	0	2.5570	0	34.4850	0	27.522	0	1413.161	0	23.5	4	7.2	4	-1E+10	1	-1E+10	1	-1E+10	1	-1E+10	1	-1E+10	1	-1E+10	1
4901784	17	C	12/22/2015	10:50	-130.891	45.638	0	1434.80	0	2.5550	0	34.4860	0	27.523	0	1418.185	0	23.7	4	7.2	4	-1E+10	1	-1E+10	1	-1E+10	1	-1E+10	1	-1E+10	1	-1E+10	1
4901784	17	C	12/22/2015	10:50	-130.891	45.638	0	1439.90	0	2.5490	0	34.4870	0	27.524	0	1423.209	0	23.9	4	7.3	4	-1E+10	1	-1E+10	1	-1E+10	1	-1E+10	1	-1E+10	1	-1E+10	1
4901784	17	C	12/22/2015	10:50	-130.891	45.638	0	1445.00	0	2.5470	0	34.4880	0	27.525	0	1428.232	0	24.2	4	7.4	4	-1E+10	1	-1E+10	1	-1E+10	1	-1E+10	1	-1E+10	1	-1E+10	1
4901784	17	C	12/22/2015	10:50	-130.891	45.638	0	1450.00	0	2.5450	0	34.4880	0	27.525	0	1433.157	0	24.5	4	7.5	4	-1E+10	1	-1E+10	1	-1E+10	1	-1E+10	1	-1E+10	1	-1E+10	1
4901784	17	C	12/22/2015	10:50	-130.891	45.638	0	1455.10	0	2.5400	0	34.4900	0	27.527	0	1438.181	0	25.0	4	7.6	4	-1E+10	1	-1E+10	1	-1E+10	1	-1E+10	1	-1E+10	1	-1E+10	1
4901784	17	C	12/22/2015	10:50	-130.891	45.638	0	1460.20	0	2.5350	0	34.4920	0	27.529	0	1443.204	0	25.6	4	7.8	4	-1E+10	1	-1E+10	1	-1E+10	1	-1E+10	1	-1E+10	1	-1E+10	1
4901784	17	C	12/22/2015	10:50	-130.891	45.638	0	1465.30	0	2.5340	0	34.4930	0	27.530	0	1448.227	0	26.0	4	7.9	4	-1E+10	1	-1E+10	1	-1E+10	1	-1E+10	1	-1E+10	1	-1E+10	1
4901784	17	C	12/22/2015	10:50	-130.891	45.638	0	1470.50	0	2.5260	0	34.4950	0	27.532	0	1453.349	0	26.4	4	8.1	4	-1E+10	1	-1E+10	1	-1E+10	1	-1E+10	1	-1E+10	1	-1E+10	1
4901784	17	C	12/22/2015	10:50	-130.891	45.638	0	1475.60	0	2.5190	0	34.4950	0	27.533	0	1458.372	0	26.5	4	8.1	4	-1E+10	1	-1E+10	1	-1E+10	1	-1E+10	1	-1E+10	1	-1E+10	1
4901784	17	C	12/22/2015	10:50	-130.891	45.638	0	1480.70	0	2.5070	0	34.4960	0	27.535	0	1463.394	0	26.7	4	8.2	4	-1E+10	1	-1E+10	1	-1E+10	1	-1E+10	1	-1E+10	1	-1E+10	1
4901784	17	C	12/22/2015	10:50	-130.891	45.638	0	1485.80	0	2.4890	0	34.4980	0	27.538	0	1468.417	0	27.1	4	8.3	4	-1E+10	1	-1E+10	1	-1E+10	1	-1E+10	1	-1E+10	1	-1E+10	1
4901784	17	C	12/22/2015	10:50	-130.891	45.638	0	1490.10	0	2.4780	0	34.5000	0	27.540	0	1472.652	0	27.3	4	8.3	4	-1E+10	1	-1E+10	1	-1E+10	1	-1E+10	1	-1E+10	1	-1E+10	1
4901784	17	C	12/22/2015	10:50	-130.891	45.638	0	1494.40	0	2.4760	0	34.5000	0	27.541	0	1476.887	0	27.6	4	8.4	4	-1E+10	1	-1E+10	1	-1E+10	1	-1E+10	1	-1E+10	1	-1E+10	1
4901784	17	C	12/22/2015	10:50	-130.891	45.638	0	1499.60	0	2.4720	0	34.5000	0	27.541	0	1482.007	0	28.0	4	8.5	4	-1E+10	1	-1E+10	1	-1E+10	1	-1E+10	1	-1E+10	1	-1E+10	1
4901784	17	C	12/22/2015	10:50	-130.891	45.638	0	1504.80	0	2.4590	0	34.5030	0	27.545	0	1487.128	0	28.8	4	8.8	4	-1E+10	1	-1E+10	1	-1E+10	1	-1E+10	1	-1E+10	1	-1E+10	1
4901784	17	C	12/22/2015	10:50	-130.891	45.638	0	1510.00	0	2.4460	0	34.5060	0	27.548	0	1492.249	0	29.3	4	8.9	4	-1E+10	1	-1E+10	1	-1E+10	1	-1E+10	1	-1E+10	1	-1E+10	1
4901784	17	C	12/22/2015	10:50	-130.891	45.638	0	1515.10	0	2.4390	0	34.5070	0	27.549	0	1497.271	0	29.7	4	9.1	4	-1E+10	1	-1E+10	1	-1E+10	1	-1E+10	1	-1E+10	1	-1E+10	1
4901784	17	C	12/22/2015	10:50	-130.891	45.638	0	1520.30	0	2.4280	0	34.5080	0	27.551	0	1502.391	0	30.3	4	9.2	4	-1E+10	1	-1E+10	1	-1E+10	1	-1E+10	1	-1E+10	1	-1E+10	1
4901784	17	C	12/22/2015	10:50	-130.891	45.638	0	1525.60	0	2.4190	0	34.5100	0	27.554	0	1507.610	0	30.7	4	9.3	4	-1E+10	1	-1E+10	1	-1E+10	1	-1E+10	1	-1E+10	1	-1E+10	1
4901784	17	C	12/22/2015	10:50	-130.891	45.638	0	1530.00	0	2.4140	0	34.5100	0	27.554	0	1511.942	0	31.1	4	9.5	4	-1E+10	1	-1E+10	1	-1E+10	1	-1E+10	1	-1E+10	1	-1E+10	1
4901784	17	C	12/22/2015	10:50	-130.891	45.638	0	1534.50	0	2.3970	0	34.5120	0	27.557	0	1516.373	0	31.9	4	9.7	4	-1E+10	1	-1E+10	1	-1E+10	1	-1E+10	1	-1E+10	1	-1E+10	1
4901784	17	C	12/22/2015	10:50	-130.891	45.638	0	1539.90	0	2.3680	0	34.5170	0	27.563	0	1521.690	0	32.9	4	10.0	4	-1E+10	1	-1E+10	1	-1E+10	1	-1E+10	1	-1E+10	1	-1E+10	1
4901784	17	C	12/22/2015	10:50	-130.891	45.638	0	1545.40	0	2.3540	0	34.5190	0	27.566	0	1527.105	0	33.6	4	10.2	4	-1E+10	1	-1E+10	1	-1E+10	1	-1E+10	1	-1E+10	1	-1E+10	1
4901784	17	C	12/22/2015	10:50	-130.891	45.638	0	1550.00	0	2.3410	0	34.5210	0	27.569	0	1531.634	0	34.1	4	10.4	4	-1E+10	1	-1E+10	1	-1E+10	1	-1E+10	1	-1E+10	1	-1E+10	1
4901784	17	C	12/22/2015	10:50	-130.891	45.638	0	1554.50	0	2.3310	0	34.5220	0	27.571	0	1536.064	0	34.6	4	10.5	4	-1E+10	1	-1E+10	1	-1E+10	1	-1E+10	1	-1E+10	1	-1E+10	1
4901784	17	C	12/22/2015	10:50	-130.891	45.638	0	1560.00	0	2.3170	0	34.5240	0	27.573	0	1541.479	0	35.0	4	10.6	4	-1E+10	1	-1E+10	1	-1E+10	1	-1E+10	1	-1E+10	1	-1E+10	1
4901784	17	C	12/22/2015	10:50	-130.891	45.638	0	1565.60	0	2.3120	0	34.5240	0	27.574	0	1546.992	0	35.3	4	10.7	4	-1E+10	1	-1E+10	1	-1E+10	1	-1E+10	1	-1E+10	1	-1E+10	1
4901784	17	C	12/22/2015	10:50	-130.891	45.638	0	1570.30	0	2.2990	0	34.5260	0	27.576	0	1551.619	0	35.6	4	10.8	4	-1E+10	1	-1E+10	1	-1E+10	1	-1E+10	1	-1E+10	1	-1E+10	1
4901784	17	C	12/22/2015	10:50	-130.891	45.638	0	1574.80	0	2.2960	0	34.5270	0	27.577	0	1556.049	0	35.8	4	10.9	4	-1E+10	1	-1E+10	1	-1E+10	1	-1E+10	1	-1E+10	1	-1E+10	1
4901784	17	C	12/22/2015	10:50	-130.891	45.638	0	1579.70	0	2.2890	0	34.5280	0	27.579	0	1560.872	0	36.0	4	10.9	4	-1E+10	1	-1E+10	1	-1E+10	1	-1E+10	1	-1E+10	1	-1E+10	1
4901784	17	C	12/22/2015	10:50	-130.891	45.638	0	1584.60	0	2.2880	0	34.5280	0	27.579	0	1565.696	0	36.1	4	11.0	4	-1E+10	1	-1E+10	1	-1E+10	1	-1E+10	1	-1E+10	1	-1E+10	1
4901784	17	C	12/22/2015	10:50	-130.891	45.638	0	1589.50	0	2.2870	0	34.5280	0	27.579	0	1570.519	0	36.3	4	11.0	4	-1E+10	1	-1E+10	1	-1E+10	1	-1E+10	1	-1E+10	1	-1E+10	1
4901784	17	C	12/22/2015	10:50	-130.891	45.638	0	1594.60	0	2.2830	0	34.5280	0	27.579	0	1575.539	0	36.7	4	11.1	4	-1E+10	1	-1E+10	1	-1E+10	1	-1E+10	1	-1E+10	1	-1E+10	1
4901784	17	C	12/22/2015	10:50	-130.891	45.638	0	1599.60	0	2.2750	0	34.5300	0	27.582	0	1580.461	0	37.0	4	11.2	4	-1E+10	1	-1E+10	1	-1E+10	1	-1E+10	1	-1E+10	1	-1E+10	1
4901784	17	C	12/22/2015	10:50	-130.891	45.638	0	1604.60	0	2.2700	0	34.5310	0	27.583	0	1585.382	0	37.3	4	11.3	4	-1E+10	1	-1E+10	1	-1E+10	1	-1E+10	1	-1E+10	1	-1E+10	1
4901784	17	C	12/22/2015	10:50	-130.891	45.638	0	1609.70	0	2.2650	0	34.5310	0	27.583	0	1590.402	0	37.7	4	11.5	4	-1E+10	1	-1E+10	1	-1E+10	1	-1E+10	1	-1E+10	1	-1E+10	1
4901784	17	C	12/22/2015	10:50	-130.891	45.638	0	1614.80	0	2.2570	0	34.5330	0	27.586	0	1595.422	0	38.1	4	11.6	4	-1E+10	1	-1E+10	1	-1E+10	1	-1E+10	1	-1E+10	1	-1E+10	1
4901784	17	C	12/22/2015	10:50	-130.891	45.638	0	1620.00	0	2.2540	0	34.5330	0	27.586	0	1600.540	0	38.3	4	11.6	4	-1E+10	1	-1E+10	1	-1E+10	1	-1E+10	1	-1E+10	1	-1E+10	1
4901784	17	C	12/22/2015	10:50	-130.891	45.638	0	1625.20	0	2.2490	0	34.5340	0	27.587	0	1605.657	0	38.6	4	11.7	4	-1E+10	1	-1E+10	1	-1E+10	1	-1E+10	1	-1E+10	1	-1E+10	1
4901784	17	C	12/22/2015	10:50	-130.891	45.638	0	1630.40	0	2.2420	0	34.5350	0	27.589	0	1610.775	0	38.7	4	11.7	4	-1E+10	1	-1E+10	1	-1E+10	1	-1E+10	1	-1E+10	1	-1E+10	1
4901784	17	C	12/22/2015	10:50	-130.891	45.638	0	1635.50	0	2.2410	0	34.5350	0	27.589	0	1615.794	0	38.8	4	11.8	4	-1E+10	1	-1E+10	1	-1E+10	1	-1E+10	1	-1E+10	1	-1E+10	1
4901784	17	C	12/22/2015	10:50	-130.891	45.638	0	1640.70	0	2.2400	0	34.5350	0	27.589	0	1620.912	0	38.9	4	11.8	4	-1E+10	1	-1E+10	1	-1E+10	1	-1E+10	1	-1E+10	1	-1E+10	1
4901784	17	C	12/22/2015	10:50	-130.891	45.638	0	1645.70	0	2.2350	0	34.5360	0	27.590	0	1625.832	0	39.3	4	11.9	4	-1E+10	1	-1E+10	1	-1E+10	1	-1E+10	1	-1E+10	1	-1E+10	1
4901784	17	C	12/22/2015	10:50	-130.891	45.638	0	1650.70	0	2.2260	0	34.5370	0	27.592	0	1630.753	0	39.8	4	12.1	4	-1E+10	1	-1E+10	1	-1E+10	1	-1E+10	1	-1E+10	1	-1E+10	1
4901784	17	C	12/22/2015	10:50	-130.891	45.638	0	1655.60	0	2.2160	0	34.5390	0	27.594	0	1635.575	0	40.3	4	12.2	4	-1E+10	1	-1E+10	1	-1E+10	1	-1E+10	1	-1E+10	1	-1E+10	1
4901784	17	C	12/22/2015	10:50	-130.891	45.638	0	1660.70	0	2.2080	0	34.5400	0	27.595	0	1640.593	0	40.7	4	12.3	4	-1E+10	1	-1E+10	1	-1E+10	1	-1E+10	1	-1E+10	1	-1E+10	1
4901784	17	C	12/22/2015	10:50	-130.891	45.638	0	1665.00	0	2.2020	0	34.5410	0	27.597	0	1644.824	0	40.9	4	12.4	4	-1E+10	1	-1E+10	1	-1E+10	1	-1E+10	1	-1E+10	1	-1E+10	1
4901784	17	C	12/22/2015	10:50	-130.891	45.638	0	1669.30	0	2.2000	0	34.5410	0	27.597	0	1649.056	0	41.0	4	12.4	4	-1E+10	1	-1E+10	1	-1E+10	1	-1E+10	1	-1E+10	1	-1E+10	1
4901784	17	C	12/22/2015	10:50	-130.891	45.638	0	1674.40	0	2.1990	0	34.5420	0	27.598	0	1654.074	0	41.3	4	12.5	4	-1E+10	1	-1E+10	1	-1E+10	1	-1E+10	1	-1E+10	1	-1E+10	1
4901784	17	C	12/22/2015	10:50	-130.891	45.638	0	1679.60	0	2.1920	0	34.5430	0	27.599	0	1659.190	0	41.6	4	12.6	4	-1E+10	1	-1E+10	1	-1E+10	1	-1E+10	1	-1E+10	1	-1E+10	1
4901784	17	C	12/22/2015	10:50	-130.891	45.638	0	1685.00	0	2.1870	0	34.5430	0	27.600	0	1664.504	0	41.7	4	12.6	4	-1E+10	1	-1E+10	1	-1E+10	1	-1E+10	1	-1E+10	1	-1E+10	1
4901784	17	C	12/22/2015	10:50	-130.891	45.638	0	1690.40	0	2.1850	0	34.5440	0	27.601	0	1669.817	0	41.9	4	12.7	4	-1E+10	1	-1E+10	1	-1E+10	1	-1E+10	1	-1E+10	1	-1E+10	1
4901784	17	C	12/22/2015	10:50	-130.891	45.638	0	1694.90	0	2.1840	0	34.5440	0	27.601	0	1674.244	0	42.0	4	12.7	4	-1E+10	1	-1E+10	1	-1E+10	1	-1E+10	1	-1E+10	1	-1E+10	1
4901784	17	C	12/22/2015	10:50	-130.891	45.638	0	1699.50	0	2.1790	0	34.5450	0	27.602	0	1678.770	0	42.3	4	12.8	4	-1E+10	1	-1E+10	1	-1E+10	1	-1E+10	1	-1E+10	1	-1E+10	1
4901784	17	C	12/22/2015	10:50	-130.891	45.638	0	1705.00	0	2.1750	0	34.5450	0	27.602	0	1684.181	0	42.5	4	12.9	4	-1E+10	1	-1E+10	1	-1E+10	1	-1E+10	1	-1E+10	1	-1E+10	1
4901784	17	C	12/22/2015	10:50	-130.891	45.638	0	1710.60	0	2.1700	0	34.5460	0	27.604	0	1689.690	0	42.7	4	12.9	4	-1E+10	1	-1E+10	1	-1E+10	1	-1E+10	1	-1E+10	1	-1E+10	1
4901784	17	C	12/22/2015	10:50	-130.891	45.638	0	1715.50	0	2.1690	0	34.5460	0	27.604	0	1694.511	0	42.9	4	13.0	4	-1E+10	1	-1E+10	1	-1E+10	1	-1E+10	1	-1E+10	1	-1E+10	1
4901784	17	C	12/22/2015	10:50	-130.891	45.638	0	1720.40	0	2.1640	0	34.5470	0	27.605	0	1699.331	0	43.2	4	13.1	4	-1E+10	1	-1E+10	1	-1E+10	1	-1E+10	1	-1E+10	1	-1E+10	1
4901784	17	C	12/22/2015	10:50	-130.891	45.638	0	1725.30	0	2.1590	0	34.5480	0	27.606	0	1704.152	0	43.4	4	13.1	4	-1E+10	1	-1E+10	1	-1E+10	1	-1E+10	1	-1E+10	1	-1E+10	1
4901784	17	C	12/22/2015	10:50	-130.891	45.638	0	1730.20	0	2.1560	0	34.5480	0	27.606	0	1708.972	0	43.5	4	13.2	4	-1E+10	1	-1E+10	1	-1E+10	1	-1E+10	1	-1E+10	1	-1E+10	1
4901784	17	C	12/22/2015	10:50	-130.891	45.638	0	1735.30	0	2.1550	0	34.5480	0	27.607	0	1713.989	0	43.6	4	13.2	4	-1E+10	1	-1E+10	1	-1E+10	1	-1E+10	1	-1E+10	1	-1E+10	1
4901784	17	C	12/22/2015	10:50	-130.891	45.638	0	1740.30	0	2.1530	0	34.5490	0	27.608	0	1718.907	0	43.7	4	13.2	4	-1E+10	1	-1E+10	1	-1E+10	1	-1E+10	1	-1E+10	1	-1E+10	1
4901784	17	C	12/22/2015	10:50	-130.891	45.638	0	1745.40	0	2.1510	0	34.5490	0	27.608	0	1723.924	0	43.8	4	13.3	4	-1E+10	1	-1E+10	1	-1E+10	1	-1E+10	1	-1E+10	1	-1E+10	1
4901784	17	C	12/22/2015	10:50	-130.891	45.638	0	1750.40	0	2.1510	0	34.5490	0	27.608	0	1728.842	0	43.9	4	13.3	4	-1E+10	1	-1E+10	1	-1E+10	1	-1E+10	1	-1E+10	1	-1E+10	1
4901784	17	C	12/22/2015	10:50	-130.891	45.638	0	1755.50	0	2.1500	0	34.5490	0	27.608	0	1733.858	0	44.0	4	13.3	4	-1E+10	1	-1E+10	1	-1E+10	1	-1E+10	1	-1E+10	1	-1E+10	1
4901784	17	C	12/22/2015	10:50	-130.891	45.638	0	1760.60	0	2.1480	0	34.5490	0	27.608	0	1738.874	0	44.1	4	13.4	4	-1E+10	1	-1E+10	1	-1E+10	1	-1E+10	1	-1E+10	1	-1E+10	1
4901784	17	C	12/22/2015	10:50	-130.891	45.638	0	1765.70	0	2.1450	0	34.5500	0	27.609	0	1743.890	0	44.2	4	13.4	4	-1E+10	1	-1E+10	1	-1E+10	1	-1E+10	1	-1E+10	1	-1E+10	1
4901784	17	C	12/22/2015	10:50	-130.891	45.638	0	1770.00	0	2.1450	0	34.5500	0	27.609	0	1748.120	0	44.3	4	13.4	4	-1E+10	1	-1E+10	1	-1E+10	1	-1E+10	1	-1E+10	1	-1E+10	1
4901784	17	C	12/22/2015	10:50	-130.891	45.638	0	1774.30	0	2.1430	0	34.5500	0	27.609	0	1752.349	0	44.4	4	13.4	4	-1E+10	1	-1E+10	1	-1E+10	1	-1E+10	1	-1E+10	1	-1E+10	1
4901784	17	C	12/22/2015	10:50	-130.891	45.638	0	1779.30	0	2.1410	0	34.5500	0	27.610	0	1757.266	0	44.6	4	13.5	4	-1E+10	1	-1E+10	1	-1E+10	1	-1E+10	1	-1E+10	1	-1E+10	1
4901784	17	C	12/22/2015	10:50	-130.891	45.638	0	1784.30	0	2.1390	0	34.5510	0	27.611	0	1762.184	0	44.8	4	13.6	4	-1E+10	1	-1E+10	1	-1E+10	1	-1E+10	1	-1E+10	1	-1E+10	1
4901784	17	C	12/22/2015	10:50	-130.891	45.638	0	1789.40	0	2.1350	0	34.5520	0	27.612	0	1767.199	0	45.1	4	13.6	4	-1E+10	1	-1E+10	1	-1E+10	1	-1E+10	1	-1E+10	1	-1E+10	1
4901784	17	C	12/22/2015	10:50	-130.891	45.638	0	1794.40	0	2.1290	0	34.5530	0	27.613	0	1772.116	0	45.3	4	13.7	4	-1E+10	1	-1E+10	1	-1E+10	1	-1E+10	1	-1E+10	1	-1E+10	1
4901784	17	C	12/22/2015	10:50	-130.891	45.638	0	1799.50	0	2.1270	0	34.5530	0	27.613	0	1777.132	0	45.5	4	13.7	4	-1E+10	1	-1E+10	1	-1E+10	1	-1E+10	1	-1E+10	1	-1E+10	1
4901784	17	C	12/22/2015	10:50	-130.891	45.638	0	1804.50	0	2.1250	0	34.5530	0	27.613	0	1782.049	0	45.6	4	13.8	4	-1E+10	1	-1E+10	1	-1E+10	1	-1E+10	1	-1E+10	1	-1E+10	1
4901784	17	C	12/22/2015	10:50	-130.891	45.638	0	1809.60	0	2.1240	0	34.5530	0	27.613	0	1787.064	0	45.6	4	13.8	4	-1E+10	1	-1E+10	1	-1E+10	1	-1E+10	1	-1E+10	1	-1E+10	1
4901784	17	C	12/22/2015	10:50	-130.891	45.638	0	1814.70	0	2.1240	0	34.5540	0	27.614	0	1792.079	0	45.8	4	13.8	4	-1E+10	1	-1E+10	1	-1E+10	1	-1E+10	1	-1E+10	1	-1E+10	1
4901784	17	C	12/22/2015	10:50	-130.891	45.638	0	1819.70	0	2.1200	0	34.5540	0	27.615	0	1796.995	0	46.1	4	13.9	4	-1E+10	1	-1E+10	1	-1E+10	1	-1E+10	1	-1E+10	1	-1E+10	1
4901784	17	C	12/22/2015	10:50	-130.891	45.638	0	1824.70	0	2.1160	0	34.5550	0	27.616	0	1801.912	0	46.3	4	14.0	4	-1E+10	1	-1E+10	1	-1E+10	1	-1E+10	1	-1E+10	1	-1E+10	1
4901784	17	C	12/22/2015	10:50	-130.891	45.638	0	1829.70	0	2.1120	0	34.5560	0	27.617	0	1806.828	0	46.5	4	14.1	4	-1E+10	1	-1E+10	1	-1E+10	1	-1E+10	1	-1E+10	1	-1E+10	1
4901784	17	C	12/22/2015	10:50	-130.891	45.638	0	1834.70	0	2.1100	0	34.5560	0	27.617	0	1811.744	0	46.7	4	14.1	4	-1E+10	1	-1E+10	1	-1E+10	1	-1E+10	1	-1E+10	1	-1E+10	1
4901784	17	C	12/22/2015	10:50	-130.891	45.638	0	1839.70	0	2.1070	0	34.5560	0	27.617	0	1816.660	0	46.8	4	14.1	4	-1E+10	1	-1E+10	1	-1E+10	1	-1E+10	1	-1E+10	1	-1E+10	1
4901784	17	C	12/22/2015	10:50	-130.891	45.638	0	1844.70	0	2.1060	0	34.5560	0	27.617	0	1821.576	0	47.0	4	14.2	4	-1E+10	1	-1E+10	1	-1E+10	1	-1E+10	1	-1E+10	1	-1E+10	1
4901784	17	C	12/22/2015	10:50	-130.891	45.638	0	1849.70	0	2.1020	0	34.5570	0	27.619	0	1826.492	0	47.2	4	14.3	4	-1E+10	1	-1E+10	1	-1E+10	1	-1E+10	1	-1E+10	1	-1E+10	1
4901784	17	C	12/22/2015	10:50	-130.891	45.638	0	1854.80	0	2.0980	0	34.5580	0	27.620	0	1831.506	0	47.5	4	14.3	4	-1E+10	1	-1E+10	1	-1E+10	1	-1E+10	1	-1E+10	1	-1E+10	1
4901784	17	C	12/22/2015	10:50	-130.891	45.638	0	1859.80	0	2.0950	0	34.5580	0	27.620	0	1836.422	0	47.7	4	14.4	4	-1E+10	1	-1E+10	1	-1E+10	1	-1E+10	1	-1E+10	1	-1E+10	1
4901784	17	C	12/22/2015	10:50	-130.891	45.638	0	1864.90	0	2.0930	0	34.5580	0	27.620	0	1841.436	0	48.0	4	14.5	4	-1E+10	1	-1E+10	1	-1E+10	1	-1E+10	1	-1E+10	1	-1E+10	1
4901784	17	C	12/22/2015	10:50	-130.891	45.638	0	1869.90	0	2.0860	0	34.5590	0	27.622	0	1846.351	0	48.4	4	14.6	4	-1E+10	1	-1E+10	1	-1E+10	1	-1E+10	1	-1E+10	1	-1E+10	1
4901784	17	C	12/22/2015	10:50	-130.891	45.638	0	1874.90	0	2.0800	0	34.5610	0	27.624	0	1851.266	0	48.7	4	14.7	4	-1E+10	1	-1E+10	1	-1E+10	1	-1E+10	1	-1E+10	1	-1E+10	1
4901784	17	C	12/22/2015	10:50	-130.891	45.638	0	1879.90	0	2.0780	0	34.5610	0	27.624	0	1856.181	0	49.1	4	14.8	4	-1E+10	1	-1E+10	1	-1E+10	1	-1E+10	1	-1E+10	1	-1E+10	1
4901784	17	C	12/22/2015	10:50	-130.891	45.638	0	1884.90	0	2.0650	0	34.5630	0	27.627	0	1861.096	0	49.8	4	15.0	4	-1E+10	1	-1E+10	1	-1E+10	1	-1E+10	1	-1E+10	1	-1E+10	1
4901784	17	C	12/22/2015	10:50	-130.891	45.638	0	1889.90	0	2.0590	0	34.5640	0	27.628	0	1866.011	0	50.1	4	15.1	4	-1E+10	1	-1E+10	1	-1E+10	1	-1E+10	1	-1E+10	1	-1E+10	1
4901784	17	C	12/22/2015	10:50	-130.891	45.638	0	1894.90	0	2.0540	0	34.5650	0	27.629	0	1870.926	0	50.6	4	15.3	4	-1E+10	1	-1E+10	1	-1E+10	1	-1E+10	1	-1E+10	1	-1E+10	1
4901784	17	C	12/22/2015	10:50	-130.891	45.638	0	1900.00	0	2.0440	0	34.5660	0	27.631	0	1875.939	0	51.1	4	15.4	4	-1E+10	1	-1E+10	1	-1E+10	1	-1E+10	1	-1E+10	1	-1E+10	1
4901784	17	C	12/22/2015	10:50	-130.891	45.638	0	1905.20	0	2.0400	0	34.5660	0	27.631	0	1881.050	0	51.4	4	15.5	4	-1E+10	1	-1E+10	1	-1E+10	1	-1E+10	1	-1E+10	1	-1E+10	1
4901784	17	C	12/22/2015	10:50	-130.891	45.638	0	1910.30	0	2.0330	0	34.5680	0	27.633	0	1886.063	0	51.7	4	15.6	4	-1E+10	1	-1E+10	1	-1E+10	1	-1E+10	1	-1E+10	1	-1E+10	1
4901784	17	C	12/22/2015	10:50	-130.891	45.638	0	1915.40	0	2.0310	0	34.5680	0	27.633	0	1891.076	0	51.8	4	15.6	4	-1E+10	1	-1E+10	1	-1E+10	1	-1E+10	1	-1E+10	1	-1E+10	1
4901784	17	C	12/22/2015	10:50	-130.891	45.638	0	1920.50	0	2.0300	0	34.5680	0	27.633	0	1896.088	0	52.0	4	15.7	4	-1E+10	1	-1E+10	1	-1E+10	1	-1E+10	1	-1E+10	1	-1E+10	1
4901784	17	C	12/22/2015	10:50	-130.891	45.638	0	1925.70	0	2.0280	0	34.5690	0	27.634	0	1901.199	0	52.1	4	15.7	4	-1E+10	1	-1E+10	1	-1E+10	1	-1E+10	1	-1E+10	1	-1E+10	1
4901784	17	C	12/22/2015	10:50	-130.891	45.638	0	1930.10	0	2.0270	0	34.5690	0	27.635	0	1905.523	0	52.3	4	15.8	4	-1E+10	1	-1E+10	1	-1E+10	1	-1E+10	1	-1E+10	1	-1E+10	1
4901784	17	C	12/22/2015	10:50	-130.891	45.638	0	1934.50	0	2.0240	0	34.5690	0	27.635	0	1909.848	0	52.4	4	15.8	4	-1E+10	1	-1E+10	1	-1E+10	1	-1E+10	1	-1E+10	1	-1E+10	1
4901784	17	C	12/22/2015	10:50	-130.891	45.638	0	1939.80	0	2.0220	0	34.5700	0	27.636	0	1915.056	0	52.6	4	15.9	4	-1E+10	1	-1E+10	1	-1E+10	1	-1E+10	1	-1E+10	1	-1E+10	1
4901784	17	C	12/22/2015	10:50	-130.891	45.638	0	1945.10	0	2.0190	0	34.5700	0	27.636	0	1920.265	0	53.0	4	16.0	4	-1E+10	1	-1E+10	1	-1E+10	1	-1E+10	1	-1E+10	1	-1E+10	1
4901784	17	C	12/22/2015	10:50	-130.891	45.638	0	1950.40	0	2.0120	0	34.5710	0	27.637	0	1925.473	0	53.4	4	16.1	4	-1E+10	1	-1E+10	1	-1E+10	1	-1E+10	1	-1E+10	1	-1E+10	1
4901784	17	C	12/22/2015	10:50	-130.891	45.638	0	1955.70	0	2.0070	0	34.5720	0	27.639	0	1930.681	0	53.8	4	16.2	4	-1E+10	1	-1E+10	1	-1E+10	1	-1E+10	1	-1E+10	1	-1E+10	1
4901784	17	C	12/22/2015	10:50	-130.891	45.638	0	1960.10	0	2.0020	0	34.5730	0	27.640	0	1935.005	0	54.1	4	16.3	4	-1E+10	1	-1E+10	1	-1E+10	1	-1E+10	1	-1E+10	1	-1E+10	1
4901784	17	C	12/22/2015	10:50	-130.891	45.638	0	1964.60	0	1.9950	0	34.5740	0	27.641	0	1939.427	0	54.5	4	16.4	4	-1E+10	1	-1E+10	1	-1E+10	1	-1E+10	1	-1E+10	1	-1E+10	1
4901784	17	C	12/22/2015	10:50	-130.891	45.638	0	1970.00	0	1.9890	0	34.5740	0	27.642	0	1944.733	0	54.8	4	16.5	4	-1E+10	1	-1E+10	1	-1E+10	1	-1E+10	1	-1E+10	1	-1E+10	1
4901784	17	C	12/22/2015	10:50	-130.891	45.638	0	1975.40	0	1.9870	0	34.5750	0	27.643	0	1950.039	0	55.0	4	16.6	4	-1E+10	1	-1E+10	1	-1E+10	1	-1E+10	1	-1E+10	1	-1E+10	1
4901784	17	C	12/22/2015	10:50	-130.891	45.638	0	1980.10	0	1.9840	0	34.5760	0	27.644	0	1954.657	0	55.2	4	16.6	4	-1E+10	1	-1E+10	1	-1E+10	1	-1E+10	1	-1E+10	1	-1E+10	1
4901784	17	C	12/22/2015	10:50	-130.891	45.638	0	1984.80	0	1.9820	0	34.5760	0	27.644	0	1959.275	0	55.3	4	16.7	4	-1E+10	1	-1E+10	1	-1E+10	1	-1E+10	1	-1E+10	1	-1E+10	1
4901784	17	C	12/22/2015	10:50	-130.891	45.638	0	1989.80	0	1.9800	0	34.5760	0	27.644	0	1964.188	0	55.4	4	16.7	4	-1E+10	1	-1E+10	1	-1E+10	1	-1E+10	1	-1E+10	1	-1E+10	1
4901784	17	C	12/22/2015	10:50	-130.891	45.638	0	1994.80	0	1.9790	0	34.5760	0	27.644	0	1969.101	0	55.6	4	16.7	4	-1E+10	1	-1E+10	1	-1E+10	1	-1E+10	1	-1E+10	1	-1E+10	1
4901784	17	C	12/22/2015	10:50	-130.891	45.638	0	2000.10	0	1.9780	0	34.5770	0	27.645	0	1974.308	0	55.6	4	16.8	4	-1E+10	1	-1E+10	1	-1E+10	1	-1E+10	1	-1E+10	1	-1E+10	1
4901784	17	C	12/22/2015	10:50	-130.891	45.638	0	2004.90	0	1.9790	0	34.5770	0	27.645	0	1979.024	0	55.8	4	16.8	4	-1E+10	1	-1E+10	1	-1E+10	1	-1E+10	1	-1E+10	1	-1E+10	1
4901784	17	C	12/22/2015	10:50	-130.891	45.638	0	2010.20	0	1.9750	0	34.5780	0	27.646	0	1984.231	0	56.0	4	16.9	4	-1E+10	1	-1E+10	1	-1E+10	1	-1E+10	1	-1E+10	1	-1E+10	1
4901784	17	C	12/22/2015	10:50	-130.891	45.638	0	2015.40	0	1.9720	0	34.5780	0	27.646	0	1989.339	0	56.3	4	17.0	4	-1E+10	1	-1E+10	1	-1E+10	1	-1E+10	1	-1E+10	1	-1E+10	1
4901784	17	C	12/22/2015	10:50	-130.891	45.638	0	2021.00	0	1.9690	0	34.5790	0	27.648	0	1994.841	0	56.1	4	16.9	4	-1E+10	1	-1E+10	1	-1E+10	1	-1E+10	1	-1E+10	1	-1E+10	1
4901784	17	C	12/22/2015	10:50	-130.891	45.638	0																										
4901784	18	C	01/01/2016	10:47	-131.087	45.601	0	2.00	0	11.1110	0	32.6770	0	24.948	0	1.984	0	258.8	4	94.9	4	-1E+10	1	-1E+10	1	-1E+10	1	-1E+10	1	-1E+10	1	-1E+10	1
4901784	18	C	01/01/2016	10:47	-131.087	45.601	0	3.50	0	11.1090	0	32.6770	0	24.948	0	3.471	0	258.8	4	94.9	4	-1E+10	1	-1E+10	1	-1E+10	1	-1E+10	1	-1E+10	1	-1E+10	1
4901784	18	C	01/01/2016	10:47	-131.087	45.601	0	5.10	0	11.1080	0	32.6770	0	24.948	0	5.058	0	258.7	4	94.9	4	-1E+10	1	-1E+10	1	-1E+10	1	-1E+10	1	-1E+10	1	-1E+10	1
4901784	18	C	01/01/2016	10:47	-131.087	45.601	0	6.60	0	11.1090	0	32.6770	0	24.948	0	6.546	0	258.4	4	94.8	4	-1E+10	1	-1E+10	1	-1E+10	1	-1E+10	1	-1E+10	1	-1E+10	1
4901784	18	C	01/01/2016	10:47	-131.087	45.601	0	7.90	0	11.1100	0	32.6770	0	24.948	0	7.835	0	258.6	4	94.8	4	-1E+10	1	-1E+10	1	-1E+10	1	-1E+10	1	-1E+10	1	-1E+10	1
4901784	18	C	01/01/2016	10:47	-131.087	45.601	0	9.20	0	11.1080	0	32.6770	0	24.949	0	9.125	0	258.5	4	94.8	4	-1E+10	1	-1E+10	1	-1E+10	1	-1E+10	1	-1E+10	1	-1E+10	1
4901784	18	C	01/01/2016	10:47	-131.087	45.601	0	10.40	0	11.1100	0	32.6770	0	24.948	0	10.315	0	258.5	4	94.8	4	-1E+10	1	-1E+10	1	-1E+10	1	-1E+10	1	-1E+10	1	-1E+10	1
4901784	18	C	01/01/2016	10:47	-131.087	45.601	0	11.80	0	11.1110	0	32.6770	0	24.948	0	11.703	0	258.5	4	94.8	4	-1E+10	1	-1E+10	1	-1E+10	1	-1E+10	1	-1E+10	1	-1E+10	1
4901784	18	C	01/01/2016	10:47	-131.087	45.601	0	13.30	0	11.1100	0	32.6770	0	24.948	0	13.191	0	258.5	4	94.8	4	-1E+10	1	-1E+10	1	-1E+10	1	-1E+10	1	-1E+10	1	-1E+10	1
4901784	18	C	01/01/2016	10:47	-131.087	45.601	0	14.80	0	11.1130	0	32.6770	0	24.948	0	14.679	0	258.3	4	94.7	4	-1E+10	1	-1E+10	1	-1E+10	1	-1E+10	1	-1E+10	1	-1E+10	1
4901784	18	C	01/01/2016	10:47	-131.087	45.601	0	16.50	0	11.1140	0	32.6770	0	24.948	0	16.365	0	258.4	4	94.8	4	-1E+10	1	-1E+10	1	-1E+10	1	-1E+10	1	-1E+10	1	-1E+10	1
4901784	18	C	01/01/2016	10:47	-131.087	45.601	0	18.30	0	11.1120	0	32.6770	0	24.948	0	18.150	0	258.4	4	94.8	4	-1E+10	1	-1E+10	1	-1E+10	1	-1E+10	1	-1E+10	1	-1E+10	1
4901784	18	C	01/01/2016	10:47	-131.087	45.601	0	20.00	0	11.1120	0	32.6770	0	24.948	0	19.836	0	258.3	4	94.7	4	-1E+10	1	-1E+10	1	-1E+10	1	-1E+10	1	-1E+10	1	-1E+10	1
4901784	18	C	01/01/2016	10:47	-131.087	45.601	0	21.90	0	11.1150	0	32.6770	0	24.948	0	21.720	0	258.3	4	94.8	4	-1E+10	1	-1E+10	1	-1E+10	1	-1E+10	1	-1E+10	1	-1E+10	1
4901784	18	C	01/01/2016	10:47	-131.087	45.601	0	23.80	0	11.1120	0	32.6770	0	24.948	0	23.604	0	258.3	4	94.7	4	-1E+10	1	-1E+10	1	-1E+10	1	-1E+10	1	-1E+10	1	-1E+10	1
4901784	18	C	01/01/2016	10:47	-131.087	45.601	0	25.80	0	11.1220	0	32.6770	0	24.946	0	25.588	0	258.2	4	94.7	4	-1E+10	1	-1E+10	1	-1E+10	1	-1E+10	1	-1E+10	1	-1E+10	1
4901784	18	C	01/01/2016	10:47	-131.087	45.601	0	27.90	0	11.1230	0	32.6770	0	24.946	0	27.670	0	258.2	4	94.7	4	-1E+10	1	-1E+10	1	-1E+10	1	-1E+10	1	-1E+10	1	-1E+10	1
4901784	18	C	01/01/2016	10:47	-131.087	45.601	0	30.00	0	11.1230	0	32.6770	0	24.946	0	29.753	0	258.1	4	94.7	4	-1E+10	1	-1E+10	1	-1E+10	1	-1E+10	1	-1E+10	1	-1E+10	1
4901784	18	C	01/01/2016	10:47	-131.087	45.601	0	32.00	0	11.1240	0	32.6770	0	24.946	0	31.736	0	258.0	4	94.6	4	-1E+10	1	-1E+10	1	-1E+10	1	-1E+10	1	-1E+10	1	-1E+10	1
4901784	18	C	01/01/2016	10:47	-131.087	45.601	0	34.10	0	11.1250	0	32.6780	0	24.947	0	33.819	0	257.8	4	94.6	4	-1E+10	1	-1E+10	1	-1E+10	1	-1E+10	1	-1E+10	1	-1E+10	1
4901784	18	C	01/01/2016	10:47	-131.087	45.601	0	36.20	0	11.1250	0	32.6770	0	24.946	0	35.901	0	258.0	4	94.6	4	-1E+10	1	-1E+10	1	-1E+10	1	-1E+10	1	-1E+10	1	-1E+10	1
4901784	18	C	01/01/2016	10:47	-131.087	45.601	0	38.40	0	11.1260	0	32.6770	0	24.946	0	38.083	0	258.0	4	94.6	4	-1E+10	1	-1E+10	1	-1E+10	1	-1E+10	1	-1E+10	1	-1E+10	1
4901784	18	C	01/01/2016	10:47	-131.087	45.601	0	40.50	0	11.1260	0	32.6770	0	24.946	0	40.165	0	257.9	4	94.6	4	-1E+10	1	-1E+10	1	-1E+10	1	-1E+10	1	-1E+10	1	-1E+10	1
4901784	18	C	01/01/2016	10:47	-131.087	45.601	0	42.50	0	11.1240	0	32.6770	0	24.946	0	42.148	0	258.1	4	94.7	4	-1E+10	1	-1E+10	1	-1E+10	1	-1E+10	1	-1E+10	1	-1E+10	1
4901784	18	C	01/01/2016	10:47	-131.087	45.601	0	44.60	0	11.1240	0	32.6770	0	24.946	0	44.231	0	258.0	4	94.6	4	-1E+10	1	-1E+10	1	-1E+10	1	-1E+10	1	-1E+10	1	-1E+10	1
4901784	18	C	01/01/2016	10:47	-131.087	45.601	0	46.70	0	11.1240	0	32.6770	0	24.946	0	46.313	0	257.7	4	94.5	4	-1E+10	1	-1E+10	1	-1E+10	1	-1E+10	1	-1E+10	1	-1E+10	1
4901784	18	C	01/01/2016	10:47	-131.087	45.601	0	48.70	0	11.1250	0	32.6770	0	24.946	0	48.296	0	257.7	4	94.5	4	-1E+10	1	-1E+10	1	-1E+10	1	-1E+10	1	-1E+10	1	-1E+10	1
4901784	18	C	01/01/2016	10:47	-131.087	45.601	0	50.70	0	11.1250	0	32.6770	0	24.946	0	50.279	0	257.8	4	94.6	4	-1E+10	1	-1E+10	1	-1E+10	1	-1E+10	1	-1E+10	1	-1E+10	1
4901784	18	C	01/01/2016	10:47	-131.087	45.601	0	52.90	0	11.1280	0	32.6770	0	24.946	0	52.461	0	257.8	4	94.6	4	-1E+10	1	-1E+10	1	-1E+10	1	-1E+10	1	-1E+10	1	-1E+10	1
4901784	18	C	01/01/2016	10:47	-131.087	45.601	0	54.90	0	11.1290	0	32.6770	0	24.946	0	54.444	0	257.6	4	94.5	4	-1E+10	1	-1E+10	1	-1E+10	1	-1E+10	1	-1E+10	1	-1E+10	1
4901784	18	C	01/01/2016	10:47	-131.087	45.601	0	57.10	0	11.1300	0	32.6770	0	24.946	0	56.626	0	257.6	4	94.5	4	-1E+10	1	-1E+10	1	-1E+10	1	-1E+10	1	-1E+10	1	-1E+10	1
4901784	18	C	01/01/2016	10:47	-131.087	45.601	0	59.30	0	11.1300	0	32.6770	0	24.946	0	58.807	0	257.5	4	94.5	4	-1E+10	1	-1E+10	1	-1E+10	1	-1E+10	1	-1E+10	1	-1E+10	1
4901784	18	C	01/01/2016	10:47	-131.087	45.601	0	61.40	0	11.1280	0	32.6770	0	24.946	0	60.889	0	257.6	4	94.5	4	-1E+10	1	-1E+10	1	-1E+10	1	-1E+10	1	-1E+10	1	-1E+10	1
4901784	18	C	01/01/2016	10:47	-131.087	45.601	0	63.60	0	11.1200	0	32.6760	0	24.947	0	63.071	0	257.5	4	94.5	4	-1E+10	1	-1E+10	1	-1E+10	1	-1E+10	1	-1E+10	1	-1E+10	1
4901784	18	C	01/01/2016	10:47	-131.087	45.601	0	65.90	0	11.1270	0	32.6770	0	24.946	0	65.351	0	257.3	4	94.4	4	-1E+10	1	-1E+10	1	-1E+10	1	-1E+10	1	-1E+10	1	-1E+10	1
4901784	18	C	01/01/2016	10:47	-131.087	45.601	0	68.00	0	11.1260	0	32.6770	0	24.947	0	67.433	0	257.2	4	94.4	4	-1E+10	1	-1E+10	1	-1E+10	1	-1E+10	1	-1E+10	1	-1E+10	1
4901784	18	C	01/01/2016	10:47	-131.087	45.601	0	70.10	0	11.1210	0	32.6760	0	24.947	0	69.515	0	257.1	4	94.3	4	-1E+10	1	-1E+10	1	-1E+10	1	-1E+10	1	-1E+10	1	-1E+10	1
4901784	18	C	01/01/2016	10:47	-131.087	45.601	0	72.10	0	11.1190	0	32.6750	0	24.946	0	71.498	0	257.2	4	94.3	4	-1E+10	1	-1E+10	1	-1E+10	1	-1E+10	1	-1E+10	1	-1E+10	1
4901784	18	C	01/01/2016	10:47	-131.087	45.601	0	74.20	0	11.1190	0	32.6750	0	24.946	0	73.580	0	256.8	4	94.2	4	-1E+10	1	-1E+10	1	-1E+10	1	-1E+10	1	-1E+10	1	-1E+10	1
4901784	18	C	01/01/2016	10:47	-131.087	45.601	0	76.10	0	11.1190	0	32.6750	0	24.946	0	75.464	0	256.8	4	94.2	4	-1E+10	1	-1E+10	1	-1E+10	1	-1E+10	1	-1E+10	1	-1E+10	1
4901784	18	C	01/01/2016	10:47	-131.087	45.601	0	78.10	0	11.1200	0	32.6750	0	24.946	0	77.447	0	256.7	4	94.1	4	-1E+10	1	-1E+10	1	-1E+10	1	-1E+10	1	-1E+10	1	-1E+10	1
4901784	18	C	01/01/2016	10:47	-131.087	45.601	0	80.00	0	11.1200	0	32.6750	0	24.946	0	79.331	0	256.3	4	94.0	4	-1E+10	1	-1E+10	1	-1E+10	1	-1E+10	1	-1E+10	1	-1E+10	1
4901784	18	C	01/01/2016	10:47	-131.087	45.601	0	82.00	0	11.1190	0	32.6750	0	24.947	0	81.314	0	256.0	4	93.9	4	-1E+10	1	-1E+10	1	-1E+10	1	-1E+10	1	-1E+10	1	-1E+10	1
4901784	18	C	01/01/2016	10:47	-131.087	45.601	0	84.30	0	11.1170	0	32.6750	0	24.947	0	83.594	0	255.5	4	93.7	4	-1E+10	1	-1E+10	1	-1E+10	1	-1E+10	1	-1E+10	1	-1E+10	1
4901784	18	C	01/01/2016	10:47	-131.087	45.601	0	84.80	0	11.1170	0	32.6750	0	24.947	0	84.090	0	255.2	4	93.6	4	-1E+10	1	-1E+10	1	-1E+10	1	-1E+10	1	-1E+10	1	-1E+10	1
4901784	18	C	01/01/2016	10:47	-131.087	45.601	0	86.60	0	11.1170	0	32.6740	0	24.946	0	85.874	0	254.4	4	93.3	4	-1E+10	1	-1E+10	1	-1E+10	1	-1E+10	1	-1E+10	1	-1E+10	1
4901784	18	C	01/01/2016	10:47	-131.087	45.601	0	88.20	0	11.1170	0	32.6740	0	24.946	0	87.460	0	253.4	4	93.0	4	-1E+10	1	-1E+10	1	-1E+10	1	-1E+10	1	-1E+10	1	-1E+10	1
4901784	18	C	01/01/2016	10:47	-131.087	45.601	0	89.80	0	11.1150	0	32.6730	0	24.946	0	89.047	0	252.3	4	92.5	4	-1E+10	1	-1E+10	1	-1E+10	1	-1E+10	1	-1E+10	1	-1E+10	1
4901784	18	C	01/01/2016	10:47	-131.087	45.601	0	91.40	0	11.1110	0	32.6730	0	24.947	0	90.633	0	250.4	4	91.8	4	-1E+10	1	-1E+10	1	-1E+10	1	-1E+10	1	-1E+10	1	-1E+10	1
4901784	18	C	01/01/2016	10:47	-131.087	45.601	0	93.00	0	11.1100	0	32.6710	0	24.945	0	92.219	0	248.0	4	91.0	4	-1E+10	1	-1E+10	1	-1E+10	1	-1E+10	1	-1E+10	1	-1E+10	1
4901784	18	C	01/01/2016	10:47	-131.087	45.601	0	95.00	0	11.0930	0	32.6700	0	24.948	0	94.202	0	243.7	4	89.3	4	-1E+10	1	-1E+10	1	-1E+10	1	-1E+10	1	-1E+10	1	-1E+10	1
4901784	18	C	01/01/2016	10:47	-131.087	45.601	0	96.40	0	11.0320	0	32.6770	0	24.964	0	95.590	0	238.6	4	87.4	4	-1E+10	1	-1E+10	1	-1E+10	1	-1E+10	1	-1E+10	1	-1E+10	1
4901784	18	C	01/01/2016	10:47	-131.087	45.601	0	97.60	0	10.8710	0	32.7150	0	25.022	0	96.779	0	233.5	4	85.2	4	-1E+10	1	-1E+10	1	-1E+10	1	-1E+10	1	-1E+10	1	-1E+10	1
4901784	18	C	01/01/2016	10:47	-131.087	45.601	0	98.80	0	10.7530	0	32.7410	0	25.063	0	97.969	0	229.4	4	83.5	4	-1E+10	1	-1E+10	1	-1E+10	1	-1E+10	1	-1E+10	1	-1E+10	1
4901784	18	C	01/01/2016	10:47	-131.087	45.601	0	100.00	0	10.6920	0	32.7590	0	25.087	0	99.159	0	224.0	4	81.5	4	-1E+10	1	-1E+10	1	-1E+10	1	-1E+10	1	-1E+10	1	-1E+10	1
4901784	18	C	01/01/2016	10:47	-131.087	45.601	0	102.60	0	9.9460	0	32.9540	0	25.366	0	101.736	0	216.5	4	77.6	4	-1E+10	1	-1E+10	1	-1E+10	1	-1E+10	1	-1E+10	1	-1E+10	1
4901784	18	C	01/01/2016	10:47	-131.087	45.601	0	104.80	0	9.7040	0	33.0240	0	25.461	0	103.917	0	214.0	4	76.4	4	-1E+10	1	-1E+10	1	-1E+10	1	-1E+10	1	-1E+10	1	-1E+10	1
4901784	18	C	01/01/2016	10:47	-131.087	45.601	0	107.90	0	9.3230	0	33.1230	0	25.600	0	106.990	0	212.0	4	75.1	4	-1E+10	1	-1E+10	1	-1E+10	1	-1E+10	1	-1E+10	1	-1E+10	1
4901784	18	C	01/01/2016	10:47	-131.087	45.601	0	110.40	0	9.1910	0	33.2000	0	25.681	0	109.468	0	212.1	4	74.9	4	-1E+10	1	-1E+10	1	-1E+10	1	-1E+10	1	-1E+10	1	-1E+10	1
4901784	18	C	01/01/2016	10:47	-131.087	45.601	0	112.80	0	9.1970	0	33.2080	0	25.686	0	111.848	0	210.8	4	74.5	4	-1E+10	1	-1E+10	1	-1E+10	1	-1E+10	1	-1E+10	1	-1E+10	1
4901784	18	C	01/01/2016	10:47	-131.087	45.601	0	115.30	0	9.1960	0	33.2200	0	25.696	0	114.326	0	208.7	4	73.7	4	-1E+10	1	-1E+10	1	-1E+10	1	-1E+10	1	-1E+10	1	-1E+10	1
4901784	18	C	01/01/2016	10:47	-131.087	45.601	0	117.10	0	9.1130	0	33.2970	0	25.769	0	116.110	0	206.5	4	72.9	4	-1E+10	1	-1E+10	1	-1E+10	1	-1E+10	1	-1E+10	1	-1E+10	1
4901784	18	C	01/01/2016	10:47	-131.087	45.601	0	119.80	0	8.8240	0	33.4140	0	25.906	0	118.786	0	203.9	4	71.6	4	-1E+10	1	-1E+10	1	-1E+10	1	-1E+10	1	-1E+10	1	-1E+10	1
4901784	18	C	01/01/2016	10:47	-131.087	45.601	0	123.10	0	8.6790	0	33.4800	0	25.980	0	122.058	0	202.8	4	71.0	4	-1E+10	1	-1E+10	1	-1E+10	1	-1E+10	1	-1E+10	1	-1E+10	1
4901784	18	C	01/01/2016	10:47	-131.087	45.601	0	125.00	0	8.6650	0	33.4870	0	25.988	0	123.941	0	202.0	4	70.7	4	-1E+10	1	-1E+10	1	-1E+10	1	-1E+10	1	-1E+10	1	-1E+10	1
4901784	18	C	01/01/2016	10:47	-131.087	45.601	0	127.30	0	8.6050	0	33.5000	0	26.007	0	126.221	0	201.3	4	70.3	4	-1E+10	1	-1E+10	1	-1E+10	1	-1E+10	1	-1E+10	1	-1E+10	1
4901784	18	C	01/01/2016	10:47	-131.087	45.601	0	129.80	0	8.6170	0	33.5030	0	26.008	0	128.699	0	200.4	4	70.0	4	-1E+10	1	-1E+10	1	-1E+10	1	-1E+10	1	-1E+10	1	-1E+10	1
4901784	18	C	01/01/2016	10:47	-131.087	45.601	0	132.20	0	8.6040	0	33.5180	0	26.022	0	131.078	0	198.3	4	69.3	4	-1E+10	1	-1E+10	1	-1E+10	1	-1E+10	1	-1E+10	1	-1E+10	1
4901784	18	C	01/01/2016	10:47	-131.087	45.601	0	135.20	0	8.5120	0	33.5360	0	26.050	0	134.051	0	194.5	4	67.8	4	-1E+10	1	-1E+10	1	-1E+10	1	-1E+10	1	-1E+10	1	-1E+10	1
4901784	18	C	01/01/2016	10:47	-131.087	45.601	0	137.60	0	8.3800	0	33.5410	0	26.074	0	136.430	0	192.2	4	66.8	4	-1E+10	1	-1E+10	1	-1E+10	1	-1E+10	1	-1E+10	1	-1E+10	1
4901784	18	C	01/01/2016	10:47	-131.087	45.601	0	140.10	0	8.3130	0	33.5490	0	26.090	0	138.908	0	190.7	4	66.2	4	-1E+10	1	-1E+10	1	-1E+10	1	-1E+10	1	-1E+10	1	-1E+10	1
4901784	18	C	01/01/2016	10:47	-131.087	45.601	0	142.60	0	8.2580	0	33.5590	0	26.106	0	141.386	0	188.5	4	65.4	4	-1E+10	1	-1E+10	1	-1E+10	1	-1E+10	1	-1E+10	1	-1E+10	1
4901784	18	C	01/01/2016	10:47	-131.087	45.601	0	145.10	0	8.1610	0	33.5820	0	26.139	0	143.864	0	188.9	4	65.4	4	-1E+10	1	-1E+10	1	-1E+10	1	-1E+10	1	-1E+10	1	-1E+10	1
4901784	18	C	01/01/2016	10:47	-131.087	45.601	0	147.60	0	8.2090	0	33.6100	0	26.154	0	146.341	0	190.0	4	65.9	4	-1E+10	1	-1E+10	1	-1E+10	1	-1E+10	1	-1E+10	1	-1E+10	1
4901784	18	C	01/01/2016	10:47	-131.087	45.601	0	150.20	0	8.2080	0	33.6180	0	26.160	0	148.918	0	187.0	4	64.8	4	-1E+10	1	-1E+10	1	-1E+10	1	-1E+10	1	-1E+10	1	-1E+10	1
4901784	18	C	01/01/2016	10:47	-131.087	45.601	0	152.80	0	8.1540	0	33.6360	0	26.182	0	151.495	0	182.5	4	63.2	4	-1E+10	1	-1E+10	1	-1E+10	1	-1E+10	1	-1E+10	1	-1E+10	1
4901784	18	C	01/01/2016	10:47	-131.087	45.601	0	155.30	0	8.0660	0	33.6380	0	26.197	0	153.973	0	179.6	4	62.1	4	-1E+10	1	-1E+10	1	-1E+10	1	-1E+10	1	-1E+10	1	-1E+10	1
4901784	18	C	01/01/2016	10:47	-131.087	45.601	0	157.80	0	8.0180	0	33.6430	0	26.208	0	156.451	0	179.6	4	62.0	4	-1E+10	1	-1E+10	1	-1E+10	1	-1E+10	1	-1E+10	1	-1E+10	1
4901784	18	C	01/01/2016	10:47	-131.087	45.601	0	159.60	0	7.9820	0	33.6900	0	26.250	0	158.235	0	179.2	4	61.8	4	-1E+10	1	-1E+10	1	-1E+10	1	-1E+10	1	-1E+10	1	-1E+10	1
4901784	18	C	01/01/2016	10:47	-131.087	45.601	0	162.30	0	7.9390	0	33.7090	0	26.272	0	160.910	0	177.6	4	61.2	4	-1E+10	1	-1E+10	1	-1E+10	1	-1E+10	1	-1E+10	1	-1E+10	1
4901784	18	C	01/01/2016	10:47	-131.087	45.601	0	164.90	0	7.9170	0	33.7160	0	26.280	0	163.487	0	175.1	4	60.4	4	-1E+10	1	-1E+10	1	-1E+10	1	-1E+10	1	-1E+10	1	-1E+10	1
4901784	18	C	01/01/2016	10:47	-131.087	45.601	0	167.50	0	7.9040	0	33.7230	0	26.288	0	166.064	0	173.1	4	59.6	4	-1E+10	1	-1E+10	1	-1E+10	1	-1E+10	1	-1E+10	1	-1E+10	1
4901784	18	C	01/01/2016	10:47	-131.087	45.601	0	170.10	0	7.9000	0	33.7260	0	26.291	0	168.640	0	170.5	4	58.8	4	-1E+10	1	-1E+10	1	-1E+10	1	-1E+10	1	-1E+10	1	-1E+10	1
4901784	18	C	01/01/2016	10:47	-131.087	45.601	0	172.70	0	7.8890	0	33.7330	0	26.298	0	171.217	0	168.0	4	57.9	4	-1E+10	1	-1E+10	1	-1E+10	1	-1E+10	1	-1E+10	1	-1E+10	1
4901784	18	C	01/01/2016	10:47	-131.087	45.601	0	175.20	0	7.8810	0	33.7380	0	26.303	0	173.694	0	166.6	4	57.4	4	-1E+10	1	-1E+10	1	-1E+10	1	-1E+10	1	-1E+10	1	-1E+10	1
4901784	18	C	01/01/2016	10:47	-131.087	45.601	0	177.00	0	7.8770	0	33.7400	0	26.305	0	175.478	0	165.6	4	57.0	4	-1E+10	1	-1E+10	1	-1E+10	1	-1E+10	1	-1E+10	1	-1E+10	1
4901784	18	C	01/01/2016	10:47	-131.087	45.601	0	179.70	0	7.8220	0	33.7690	0	26.336	0	178.154	0	164.6	4	56.6	4	-1E+10	1	-1E+10	1	-1E+10	1	-1E+10	1	-1E+10	1	-1E+10	1
4901784	18	C	01/01/2016	10:47	-131.087	45.601	0	182.30	0	7.8150	0	33.7730	0	26.340	0	180.730	0	163.7	4	56.3	4	-1E+10	1	-1E+10	1	-1E+10	1	-1E+10	1	-1E+10	1	-1E+10	1
4901784	18	C	01/01/2016	10:47	-131.087	45.601	0	185.10	0	7.8080	0	33.7750	0	26.343	0	183.505	0	162.2	4	55.8	4	-1E+10	1	-1E+10	1	-1E+10	1	-1E+10	1	-1E+10	1	-1E+10	1
4901784	18	C	01/01/2016	10:47	-131.087	45.601	0	187.90	0	7.7630	0	33.7860	0	26.358	0	186.280	0	160.4	4	55.1	4	-1E+10	1	-1E+10	1	-1E+10	1	-1E+10	1	-1E+10	1	-1E+10	1
4901784	18	C	01/01/2016	10:47	-131.087	45.601	0	189.80	0	7.7040	0	33.8030	0	26.380	0	188.162	0	159.5	4	54.7	4	-1E+10	1	-1E+10	1	-1E+10	1	-1E+10	1	-1E+10	1	-1E+10	1
4901784	18	C	01/01/2016	10:47	-131.087	45.601	0	192.50	0	7.6480	0	33.8110	0	26.394	0	190.838	0	158.4	4	54.3	4	-1E+10	1	-1E+10	1	-1E+10	1	-1E+10	1	-1E+10	1	-1E+10	1
4901784	18	C	01/01/2016	10:47	-131.087	45.601	0	195.30	0	7.6050	0	33.8180	0	26.406	0	193.612	0	157.7	4	54.0	4	-1E+10	1	-1E+10	1	-1E+10	1	-1E+10	1	-1E+10	1	-1E+10	1
4901784	18	C	01/01/2016	10:47	-131.087	45.601	0	197.20	0	7.5920	0	33.8190	0	26.409	0	195.495	0	157.7	4	54.0	4	-1E+10	1	-1E+10	1	-1E+10	1	-1E+10	1	-1E+10	1	-1E+10	1
4901784	18	C	01/01/2016	10:47	-131.087	45.601	0	199.90	0	7.5630	0	33.8250	0	26.418	0	198.170	0	157.8	4	54.0	4	-1E+10	1	-1E+10	1	-1E+10	1	-1E+10	1	-1E+10	1	-1E+10	1
4901784	18	C	01/01/2016	10:47	-131.087	45.601	0	202.70	0	7.5470	0	33.8260	0	26.421	0	200.945	0	157.9	4	54.0	4	-1E+10	1	-1E+10	1	-1E+10	1	-1E+10	1	-1E+10	1	-1E+10	1
4901784	18	C	01/01/2016	10:47	-131.087	45.601	0	204.50	0	7.5290	0	33.8270	0	26.424	0	202.728	0	158.2	4	54.1	4	-1E+10	1	-1E+10	1	-1E+10	1	-1E+10	1	-1E+10	1	-1E+10	1
4901784	18	C	01/01/2016	10:47	-131.087	45.601	0	207.00	0	7.5090	0	33.8300	0	26.429	0	205.205	0	159.1	4	54.4	4	-1E+10	1	-1E+10	1	-1E+10	1	-1E+10	1	-1E+10	1	-1E+10	1
4901784	18	C	01/01/2016	10:47	-131.087	45.601	0	209.60	0	7.5050	0	33.8310	0	26.431	0	207.782	0	159.7	4	54.6	4	-1E+10	1	-1E+10	1	-1E+10	1	-1E+10	1	-1E+10	1	-1E+10	1
4901784	18	C	01/01/2016	10:47	-131.087	45.601	0	212.70	0	7.4630	0	33.8360	0	26.441	0	210.853	0	156.8	4	53.5	4	-1E+10	1	-1E+10	1	-1E+10	1	-1E+10	1	-1E+10	1	-1E+10	1
4901784	18	C	01/01/2016	10:47	-131.087	45.601	0	215.10	0	7.4270	0	33.8390	0	26.448	0	213.231	0	154.7	4	52.8	4	-1E+10	1	-1E+10	1	-1E+10	1	-1E+10	1	-1E+10	1	-1E+10	1
4901784	18	C	01/01/2016	10:47	-131.087	45.601	0	217.50	0	7.3900	0	33.8430	0	26.456	0	215.609	0	152.8	4	52.1	4	-1E+10	1	-1E+10	1	-1E+10	1	-1E+10	1	-1E+10	1	-1E+10	1
4901784	18	C	01/01/2016	10:47	-131.087	45.601	0	220.00	0	7.3500	0	33.8440	0	26.463	0	218.086	0	150.4	4	51.2	4	-1E+10	1	-1E+10	1	-1E+10	1	-1E+10	1	-1E+10	1	-1E+10	1
4901784	18	C	01/01/2016	10:47	-131.087	45.601	0	222.40	0	7.3000	0	33.8470	0	26.472	0	220.464	0	148.1	4	50.4	4	-1E+10	1	-1E+10	1	-1E+10	1	-1E+10	1	-1E+10	1	-1E+10	1
4901784	18	C	01/01/2016	10:47	-131.087	45.601	0	224.80	0	7.2650	0	33.8510	0	26.480	0	222.842	0	146.5	4	49.8	4	-1E+10	1	-1E+10	1	-1E+10	1	-1E+10	1	-1E+10	1	-1E+10	1
4901784	18	C	01/01/2016	10:47	-131.087	45.601	0	227.20	0	7.2410	0	33.8530	0	26.485	0	225.219	0	144.8	4	49.2	4	-1E+10	1	-1E+10	1	-1E+10	1	-1E+10	1	-1E+10	1	-1E+10	1
4901784	18	C	01/01/2016	10:47	-131.087	45.601	0	229.60	0	7.2100	0	33.8570	0	26.493	0	227.597	0	142.7	4	48.5	4	-1E+10	1	-1E+10	1	-1E+10	1	-1E+10	1	-1E+10	1	-1E+10	1
4901784	18	C	01/01/2016	10:47	-131.087	45.601	0	232.10	0	7.1600	0	33.8630	0	26.504	0	230.074	0	140.5	4	47.6	4	-1E+10	1	-1E+10	1	-1E+10	1	-1E+10	1	-1E+10	1	-1E+10	1
4901784	18	C	01/01/2016	10:47	-131.087	45.601	0	234.70	0	7.1190	0	33.8670	0	26.513	0	232.650	0	138.7	4	47.0	4	-1E+10	1	-1E+10	1	-1E+10	1	-1E+10	1	-1E+10	1	-1E+10	1
4901784	18	C	01/01/2016	10:47	-131.087	45.601	0	237.10	0	7.0850	0	33.8690	0	26.519	0	235.027	0	136.8	4	46.3	4	-1E+10	1	-1E+10	1	-1E+10	1	-1E+10	1	-1E+10	1	-1E+10	1
4901784	18	C	01/01/2016	10:47	-131.087	45.601	0	239.70	0	7.0410	0	33.8730	0	26.529	0	237.603	0	135.0	4	45.7	4	-1E+10	1	-1E+10	1	-1E+10	1	-1E+10	1	-1E+10	1	-1E+10	1
4901784	18	C	01/01/2016	10:47	-131.087	45.601	0	242.10	0	7.0040	0	33.8770	0	26.537	0	239.981	0	133.7	4	45.2	4	-1E+10	1	-1E+10	1	-1E+10	1	-1E+10	1	-1E+10	1	-1E+10	1
4901784	18	C	01/01/2016	10:47	-131.087	45.601	0	245.40	0	6.9730	0	33.8790	0	26.543	0	243.250	0	132.4	4	44.7	4	-1E+10	1	-1E+10	1	-1E+10	1	-1E+10	1	-1E+10	1	-1E+10	1
4901784	18	C	01/01/2016	10:47	-131.087	45.601	0	248.00	0	6.9410	0	33.8810	0	26.549	0	245.826	0	131.4	4	44.4	4	-1E+10	1	-1E+10	1	-1E+10	1	-1E+10	1	-1E+10	1	-1E+10	1
4901784	18	C	01/01/2016	10:47	-131.087	45.601	0	249.70	0	6.9350	0	33.8810	0	26.549	0	247.510	0	130.7	4	44.1	4	-1E+10	1	-1E+10	1	-1E+10	1	-1E+10	1	-1E+10	1	-1E+10	1
4901784	18	C	01/01/2016	10:47	-131.087	45.601	0	252.30	0	6.9290	0	33.8810	0	26.550	0	250.085	0	129.6	4	43.7	4	-1E+10	1	-1E+10	1	-1E+10	1	-1E+10	1	-1E+10	1	-1E+10	1
4901784	18	C	01/01/2016	10:47	-131.087	45.601	0	254.90	0	6.9010	0	33.8820	0	26.555	0	252.661	0	128.0	4	43.2	4	-1E+10	1	-1E+10	1	-1E+10	1	-1E+10	1	-1E+10	1	-1E+10	1
4901784	18	C	01/01/2016	10:47	-131.087	45.601	0	257.50	0	6.8750	0	33.8850	0	26.561	0	255.236	0	126.5	4	42.7	4	-1E+10	1	-1E+10	1	-1E+10	1	-1E+10	1	-1E+10	1	-1E+10	1
4901784	18	C	01/01/2016	10:47	-131.087	45.601	0	260.20	0	6.8560	0	33.8840	0	26.563	0	257.911	0	125.0	4	42.1	4	-1E+10	1	-1E+10	1	-1E+10	1	-1E+10	1	-1E+10	1	-1E+10	1
4901784	18	C	01/01/2016	10:47	-131.087	45.601	0	262.80	0	6.8060	0	33.8860	0	26.571	0	260.487	0	122.9	4	41.4	4	-1E+10	1	-1E+10	1	-1E+10	1	-1E+10	1	-1E+10	1	-1E+10	1
4901784	18	C	01/01/2016	10:47	-131.087	45.601	0	265.40	0	6.7470	0	33.8890	0	26.581	0	263.062	0	121.2	4	40.7	4	-1E+10	1	-1E+10	1	-1E+10	1	-1E+10	1	-1E+10	1	-1E+10	1
4901784	18	C	01/01/2016	10:47	-131.087	45.601	0	267.20	0	6.6890	0	33.8950	0	26.594	0	264.845	0	120.5	4	40.5	4	-1E+10	1	-1E+10	1	-1E+10	1	-1E+10	1	-1E+10	1	-1E+10	1
4901784	18	C	01/01/2016	10:47	-131.087	45.601	0	269.90	0	6.6730	0	33.8960	0	26.597	0	267.519	0	119.9	4	40.2	4	-1E+10	1	-1E+10	1	-1E+10	1	-1E+10	1	-1E+10	1	-1E+10	1
4901784	18	C	01/01/2016	10:47	-131.087	45.601	0	272.60	0	6.6460	0	33.8970	0	26.601	0	270.194	0	119.1	4	39.9	4	-1E+10	1	-1E+10	1	-1E+10	1	-1E+10	1	-1E+10	1	-1E+10	1
4901784	18	C	01/01/2016	10:47	-131.087	45.601	0	275.30	0	6.6370	0	33.8960	0	26.602	0	272.868	0	118.3	4	39.6	4	-1E+10	1	-1E+10	1	-1E+10	1	-1E+10	1	-1E+10	1	-1E+10	1
4901784	18	C	01/01/2016	10:47	-131.087	45.601	0	278.10	0	6.6070	0	33.8990	0	26.608	0	275.642	0	117.4	4	39.3	4	-1E+10	1	-1E+10	1	-1E+10	1	-1E+10	1	-1E+10	1	-1E+10	1
4901784	18	C	01/01/2016	10:47	-131.087	45.601	0	279.90	0	6.5910	0	33.8980	0	26.609	0	277.425	0	117.1	4	39.2	4	-1E+10	1	-1E+10	1	-1E+10	1	-1E+10	1	-1E+10	1	-1E+10	1
4901784	18	C	01/01/2016	10:47	-131.087	45.601	0	282.60	0	6.5740	0	33.8990	0	26.612	0	280.099	0	116.2	4	38.9	4	-1E+10	1	-1E+10	1	-1E+10	1	-1E+10	1	-1E+10	1	-1E+10	1
4901784	18	C	01/01/2016	10:47	-131.087	45.601	0	285.30	0	6.5360	0	33.9000	0	26.618	0	282.773	0	115.5	4	38.6	4	-1E+10	1	-1E+10	1	-1E+10	1	-1E+10	1	-1E+10	1	-1E+10	1
4901784	18	C	01/01/2016	10:47	-131.087	45.601	0	287.10	0	6.5300	0	33.9000	0	26.619	0	284.556	0	114.8	4	38.4	4	-1E+10	1	-1E+10	1	-1E+10	1	-1E+10	1	-1E+10	1	-1E+10	1
4901784	18	C	01/01/2016	10:47	-131.087	45.601	0	289.90	0	6.5080	0	33.9000	0	26.622	0	287.329	0	113.4	4	37.9	4	-1E+10	1	-1E+10	1	-1E+10	1	-1E+10	1	-1E+10	1	-1E+10	1
4901784	18	C	01/01/2016	10:47	-131.087	45.601	0	292.60	0	6.4850	0	33.9020	0	26.626	0	290.003	0	111.9	4	37.4	4	-1E+10	1	-1E+10	1	-1E+10	1	-1E+10	1	-1E+10	1	-1E+10	1
4901784	18	C	01/01/2016	10:47	-131.087	45.601	0	294.50	0	6.4730	0	33.9020	0	26.628	0	291.885	0	110.9	4	37.0	4	-1E+10	1	-1E+10	1	-1E+10	1	-1E+10	1	-1E+10	1	-1E+10	1
4901784	18	C	01/01/2016	10:47	-131.087	45.601	0	297.20	0	6.4410	0	33.9040	0	26.634	0	294.559	0	109.5	4	36.6	4	-1E+10	1	-1E+10	1	-1E+10	1	-1E+10	1	-1E+10	1	-1E+10	1
4901784	18	C	01/01/2016	10:47	-131.087	45.601	0	300.00	0	6.4190	0	33.9050	0	26.637	0	297.332	0	108.4	4	36.2	4	-1E+10	1	-1E+10	1	-1E+10	1	-1E+10	1	-1E+10	1	-1E+10	1
4901784	18	C	01/01/2016	10:47	-131.087	45.601	0	301.90	0	6.4140	0	33.9040	0	26.637	0	299.214	0	107.5	4	35.9	4	-1E+10	1	-1E+10	1	-1E+10	1	-1E+10	1	-1E+10	1	-1E+10	1
4901784	18	C	01/01/2016	10:47	-131.087	45.601	0	304.80	0	6.3920	0	33.9040	0	26.640	0	302.086	0	105.6	4	35.2	4	-1E+10	1	-1E+10	1	-1E+10	1	-1E+10	1	-1E+10	1	-1E+10	1
4901784	18	C	01/01/2016	10:47	-131.087	45.601	0	307.60	0	6.3170	0	33.9090	0	26.654	0	304.859	0	103.9	4	34.6	4	-1E+10	1	-1E+10	1	-1E+10	1	-1E+10	1	-1E+10	1	-1E+10	1
4901784	18	C	01/01/2016	10:47	-131.087	45.601	0	309.50	0	6.3030	0	33.9110	0	26.657	0	306.741	0	103.1	4	34.3	4	-1E+10	1	-1E+10	1	-1E+10	1	-1E+10	1	-1E+10	1	-1E+10	1
4901784	18	C	01/01/2016	10:47	-131.087	45.601	0	312.40	0	6.2890	0	33.9110	0	26.659	0	309.613	0	102.1	4	34.0	4	-1E+10	1	-1E+10	1	-1E+10	1	-1E+10	1	-1E+10	1	-1E+10	1
4901784	18	C	01/01/2016	10:47	-131.087	45.601	0	315.30	0	6.2720	0	33.9120	0	26.662	0	312.485	0	101.2	4	33.6	4	-1E+10	1	-1E+10	1	-1E+10	1	-1E+10	1	-1E+10	1	-1E+10	1
4901784	18	C	01/01/2016	10:47	-131.087	45.601	0	317.20	0	6.2600	0	33.9120	0	26.664	0	314.366	0	100.6	4	33.4	4	-1E+10	1	-1E+10	1	-1E+10	1	-1E+10	1	-1E+10	1	-1E+10	1
4901784	18	C	01/01/2016	10:47	-131.087	45.601	0	320.10	0	6.2440	0	33.9120	0	26.666	0	317.238	0	100.0	4	33.2	4	-1E+10	1	-1E+10	1	-1E+10	1	-1E+10	1	-1E+10	1	-1E+10	1
4901784	18	C	01/01/2016	10:47	-131.087	45.601	0	323.00	0	6.2100	0	33.9130	0	26.671	0	320.110	0	99.4	4	33.0	4	-1E+10	1	-1E+10	1	-1E+10	1	-1E+10	1	-1E+10	1	-1E+10	1
4901784	18	C	01/01/2016	10:47	-131.087	45.601	0	324.80	0	6.1550	0	33.9140	0	26.679	0	321.893	0	99.1	4	32.9	4	-1E+10	1	-1E+10	1	-1E+10	1	-1E+10	1	-1E+10	1	-1E+10	1
4901784	18	C	01/01/2016	10:47	-131.087	45.601	0	327.60	0	6.1280	0	33.9130	0	26.681	0	324.665	0	98.9	4	32.8	4	-1E+10	1	-1E+10	1	-1E+10	1	-1E+10	1	-1E+10	1	-1E+10	1
4901784	18	C	01/01/2016	10:47	-131.087	45.601	0	330.40	0	6.1020	0	33.9130	0	26.685	0	327.438	0	98.9	4	32.7	4	-1E+10	1	-1E+10	1	-1E+10	1	-1E+10	1	-1E+10	1	-1E+10	1
4901784	18	C	01/01/2016	10:47	-131.087	45.601	0	332.30	0	6.0920	0	33.9130	0	26.686	0	329.320	0	98.8	4	32.7	4	-1E+10	1	-1E+10	1	-1E+10	1	-1E+10	1	-1E+10	1	-1E+10	1
4901784	18	C	01/01/2016	10:47	-131.087	45.601	0	335.10	0	6.0690	0	33.9100	0	26.686	0	332.092	0	99.1	4	32.8	4	-1E+10	1	-1E+10	1	-1E+10	1	-1E+10	1	-1E+10	1	-1E+10	1
4901784	18	C	01/01/2016	10:47	-131.087	45.601	0	337.80	0	6.0020	0	33.9080	0	26.693	0	334.766	0	99.2	4	32.8	4	-1E+10	1	-1E+10	1	-1E+10	1	-1E+10	1	-1E+10	1	-1E+10	1
4901784	18	C	01/01/2016	10:47	-131.087	45.601	0	339.70	0	5.9460	0	33.9070	0	26.699	0	336.647	0	99.0	4	32.7	4	-1E+10	1	-1E+10	1	-1E+10	1	-1E+10	1	-1E+10	1	-1E+10	1
4901784	18	C	01/01/2016	10:47	-131.087	45.601	0	342.50	0	5.9200	0	33.9050	0	26.701	0	339.420	0	97.7	4	32.2	4	-1E+10	1	-1E+10	1	-1E+10	1	-1E+10	1	-1E+10	1	-1E+10	1
4901784	18	C	01/01/2016	10:47	-131.087	45.601	0	345.40	0	5.8790	0	33.9050	0	26.706	0	342.291	0	95.7	4	31.5	4	-1E+10	1	-1E+10	1	-1E+10	1	-1E+10	1	-1E+10	1	-1E+10	1
4901784	18	C	01/01/2016	10:47	-131.087	45.601	0	347.20	0	5.8590	0	33.9080	0	26.711	0	344.074	0	94.3	4	31.1	4	-1E+10	1	-1E+10	1	-1E+10	1	-1E+10	1	-1E+10	1	-1E+10	1
4901784	18	C	01/01/2016	10:47	-131.087	45.601	0	350.10	0	5.7780	0	33.9110	0	26.723	0	346.945	0	93.2	4	30.6	4	-1E+10	1	-1E+10	1	-1E+10	1	-1E+10	1	-1E+10	1	-1E+10	1
4901784	18	C	01/01/2016	10:47	-131.087	45.601	0	352.90	0	5.7310	0	33.9110	0	26.729	0	349.717	0	92.4	4	30.3	4	-1E+10	1	-1E+10	1	-1E+10	1	-1E+10	1	-1E+10	1	-1E+10	1
4901784	18	C	01/01/2016	10:47	-131.087	45.601	0	354.70	0	5.7240	0	33.9120	0	26.731	0	351.500	0	91.8	4	30.1	4	-1E+10	1	-1E+10	1	-1E+10	1	-1E+10	1	-1E+10	1	-1E+10	1
4901784	18	C	01/01/2016	10:47	-131.087	45.601	0	357.50	0	5.7170	0	33.9120	0	26.732	0	354.272	0	90.3	4	29.6	4	-1E+10	1	-1E+10	1	-1E+10	1	-1E+10	1	-1E+10	1	-1E+10	1
4901784	18	C	01/01/2016	10:47	-131.087	45.601	0	360.30	0	5.7050	0	33.9140	0	26.735	0	357.044	0	88.5	4	29.0	4	-1E+10	1	-1E+10	1	-1E+10	1	-1E+10	1	-1E+10	1	-1E+10	1
4901784	18	C	01/01/2016	10:47	-131.087	45.601	0	362.20	0	5.6950	0	33.9140	0	26.736	0	358.925	0	87.5	4	28.7	4	-1E+10	1	-1E+10	1	-1E+10	1	-1E+10	1	-1E+10	1	-1E+10	1
4901784	18	C	01/01/2016	10:47	-131.087	45.601	0	365.00	0	5.6630	0	33.9150	0	26.741	0	361.698	0	86.3	4	28.3	4	-1E+10	1	-1E+10	1	-1E+10	1	-1E+10	1	-1E+10	1	-1E+10	1
4901784	18	C	01/01/2016	10:47	-131.087	45.601	0	367.80	0	5.5620	0	33.9190	0	26.756	0	364.470	0	85.3	4	27.9	4	-1E+10	1	-1E+10	1	-1E+10	1	-1E+10	1	-1E+10	1	-1E+10	1
4901784	18	C	01/01/2016	10:47	-131.087	45.601	0	369.60	0	5.5540	0	33.9190	0	26.757	0	366.252	0	84.9	4	27.7	4	-1E+10	1	-1E+10	1	-1E+10	1	-1E+10	1	-1E+10	1	-1E+10	1
4901784	18	C	01/01/2016	10:47	-131.087	45.601	0	372.30	0	5.5320	0	33.9180	0	26.759	0	368.925	0	83.8	4	27.4	4	-1E+10	1	-1E+10	1	-1E+10	1	-1E+10	1	-1E+10	1	-1E+10	1
4901784	18	C	01/01/2016	10:47	-131.087	45.601	0	375.10	0	5.5090	0	33.9210	0	26.764	0	371.697	0	82.1	4	26.8	4	-1E+10	1	-1E+10	1	-1E+10	1	-1E+10	1	-1E+10	1	-1E+10	1
4901784	18	C	01/01/2016	10:47	-131.087	45.601	0	377.00	0	5.5140	0	33.9210	0	26.764	0	373.578	0	80.7	4	26.4	4	-1E+10	1	-1E+10	1	-1E+10	1	-1E+10	1	-1E+10	1	-1E+10	1
4901784	18	C	01/01/2016	10:47	-131.087	45.601	0	379.80	0	5.5070	0	33.9250	0	26.768	0	376.350	0	78.7	4	25.7	4	-1E+10	1	-1E+10	1	-1E+10	1	-1E+10	1	-1E+10	1	-1E+10	1
4901784	18	C	01/01/2016	10:47	-131.087	45.601	0	382.50	0	5.4790	0	33.9280	0	26.773	0	379.023	0	76.9	4	25.1	4	-1E+10	1	-1E+10	1	-1E+10	1	-1E+10	1	-1E+10	1	-1E+10	1
4901784	18	C	01/01/2016	10:47	-131.087	45.601	0	385.30	0	5.4280	0	33.9300	0	26.781	0	381.795	0	74.9	4	24.4	4	-1E+10	1	-1E+10	1	-1E+10	1	-1E+10	1	-1E+10	1	-1E+10	1
4901784	18	C	01/01/2016	10:47	-131.087	45.601	0	388.00	0	5.3960	0	33.9380	0	26.791	0	384.468	0	73.0	4	23.8	4	-1E+10	1	-1E+10	1	-1E+10	1	-1E+10	1	-1E+10	1	-1E+10	1
4901784	18	C	01/01/2016	10:47	-131.087	45.601	0	389.90	0	5.3900	0	33.9380	0	26.792	0	386.349	0	72.3	4	23.5	4	-1E+10	1	-1E+10	1	-1E+10	1	-1E+10	1	-1E+10	1	-1E+10	1
4901784	18	C	01/01/2016	10:47	-131.087	45.601	0	392.70	0	5.3590	0	33.9410	0	26.798	0	389.121	0	71.3	4	23.2	4	-1E+10	1	-1E+10	1	-1E+10	1	-1E+10	1	-1E+10	1	-1E+10	1
4901784	18	C	01/01/2016	10:47	-131.087	45.601	0	395.50	0	5.3360	0	33.9430	0	26.802	0	391.893	0	70.7	4	23.0	4	-1E+10	1	-1E+10	1	-1E+10	1	-1E+10	1	-1E+10	1	-1E+10	1
4901784	18	C	01/01/2016	10:47	-131.087	45.601	0	397.40	0	5.3250	0	33.9440	0	26.804	0	393.774	0	70.3	4	22.9	4	-1E+10	1	-1E+10	1	-1E+10	1	-1E+10	1	-1E+10	1	-1E+10	1
4901784	18	C	01/01/2016	10:47	-131.087	45.601	0	399.30	0	5.3210	0	33.9440	0	26.805	0	395.655	0	70.1	4	22.8	4	-1E+10	1	-1E+10	1	-1E+10	1	-1E+10	1	-1E+10	1	-1E+10	1
4901784	18	C	01/01/2016	10:47	-131.087	45.601	0	402.30	0	5.3180	0	33.9430	0	26.804	0	398.624	0	69.3	4	22.5	4	-1E+10	1	-1E+10	1	-1E+10	1	-1E+10	1	-1E+10	1	-1E+10	1
4901784	18	C	01/01/2016	10:47	-131.087	45.601	0	405.10	0	5.2810	0	33.9490	0	26.813	0	401.396	0	68.1	4	22.1	4	-1E+10	1	-1E+10	1	-1E+10	1	-1E+10	1	-1E+10	1	-1E+10	1
4901784	18	C	01/01/2016	10:47	-131.087	45.601	0	407.50	0	5.2540	0	33.9490	0	26.817	0	403.772	0	67.4	4	21.9	4	-1E+10	1	-1E+10	1	-1E+10	1	-1E+10	1	-1E+10	1	-1E+10	1
4901784	18	C	01/01/2016	10:47	-131.087	45.601	0	409.80	0	5.2410	0	33.9490	0	26.818	0	406.049	0	66.5	4	21.6	4	-1E+10	1	-1E+10	1	-1E+10	1	-1E+10	1	-1E+10	1	-1E+10	1
4901784	18	C	01/01/2016	10:47	-131.087	45.601	0	412.20	0	5.2310	0	33.9510	0	26.821	0	408.424	0	65.3	4	21.2	4	-1E+10	1	-1E+10	1	-1E+10	1	-1E+10	1	-1E+10	1	-1E+10	1
4901784	18	C	01/01/2016	10:47	-131.087	45.601	0	414.70	0	5.2210	0	33.9510	0	26.822	0	410.899	0	63.9	4	20.7	4	-1E+10	1	-1E+10	1	-1E+10	1	-1E+10	1	-1E+10	1	-1E+10	1
4901784	18	C	01/01/2016	10:47	-131.087	45.601	0	417.10	0	5.1790	0	33.9580	0	26.833	0	413.274	0	62.3	4	20.2	4	-1E+10	1	-1E+10	1	-1E+10	1	-1E+10	1	-1E+10	1	-1E+10	1
4901784	18	C	01/01/2016	10:47	-131.087	45.601	0	420.30	0	5.1570	0	33.9620	0	26.838	0	416.442	0	60.6	4	19.6	4	-1E+10	1	-1E+10	1	-1E+10	1	-1E+10	1	-1E+10	1	-1E+10	1
4901784	18	C	01/01/2016	10:47	-131.087	45.601	0	422.80	0	5.1460	0	33.9630	0	26.840	0	418.916	0	59.5	4	19.3	4	-1E+10	1	-1E+10	1	-1E+10	1	-1E+10	1	-1E+10	1	-1E+10	1
4901784	18	C	01/01/2016	10:47	-131.087	45.601	0	425.30	0	5.1200	0	33.9690	0	26.848	0	421.391	0	58.2	4	18.9	4	-1E+10	1	-1E+10	1	-1E+10	1	-1E+10	1	-1E+10	1	-1E+10	1
4901784	18	C	01/01/2016	10:47	-131.087	45.601	0	427.70	0	5.1040	0	33.9720	0	26.852	0	423.766	0	57.7	4	18.7	4	-1E+10	1	-1E+10	1	-1E+10	1	-1E+10	1	-1E+10	1	-1E+10	1
4901784	18	C	01/01/2016	10:47	-131.087	45.601	0	430.20	0	5.0980	0	33.9730	0	26.854	0	426.241	0	57.0	4	18.4	4	-1E+10	1	-1E+10	1	-1E+10	1	-1E+10	1	-1E+10	1	-1E+10	1
4901784	18	C	01/01/2016	10:47	-131.087	45.601	0	432.70	0	5.0850	0	33.9740	0	26.856	0	428.715	0	56.1	4	18.2	4	-1E+10	1	-1E+10	1	-1E+10	1	-1E+10	1	-1E+10	1	-1E+10	1
4901784	18	C	01/01/2016	10:47	-131.087	45.601	0	435.20	0	5.0690	0	33.9780	0	26.861	0	431.190	0	55.4	4	17.9	4	-1E+10	1	-1E+10	1	-1E+10	1	-1E+10	1	-1E+10	1	-1E+10	1
4901784	18	C	01/01/2016	10:47	-131.087	45.601	0	437.60	0	5.0640	0	33.9780	0	26.862	0	433.565	0	54.6	4	17.7	4	-1E+10	1	-1E+10	1	-1E+10	1	-1E+10	1	-1E+10	1	-1E+10	1
4901784	18	C	01/01/2016	10:47	-131.087	45.601	0	440.20	0	5.0470	0	33.9820	0	26.867	0	436.138	0	53.8	4	17.4	4	-1E+10	1	-1E+10	1	-1E+10	1	-1E+10	1	-1E+10	1	-1E+10	1
4901784	18	C	01/01/2016	10:47	-131.087	45.601	0	442.70	0	5.0330	0	33.9830	0	26.869	0	438.613	0	53.2	4	17.2	4	-1E+10	1	-1E+10	1	-1E+10	1	-1E+10	1	-1E+10	1	-1E+10	1
4901784	18	C	01/01/2016	10:47	-131.087	45.601	0	445.20	0	5.0120	0	33.9850	0	26.873	0	441.087	0	52.6	4	17.0	4	-1E+10	1	-1E+10	1	-1E+10	1	-1E+10	1	-1E+10	1	-1E+10	1
4901784	18	C	01/01/2016	10:47	-131.087	45.601	0	447.80	0	5.0020	0	33.9880	0	26.877	0	443.660	0	51.9	4	16.8	4	-1E+10	1	-1E+10	1	-1E+10	1	-1E+10	1	-1E+10	1	-1E+10	1
4901784	18	C	01/01/2016	10:47	-131.087	45.601	0	450.30	0	5.0000	0	33.9870	0	26.876	0	446.134	0	51.0	4	16.5	4	-1E+10	1	-1E+10	1	-1E+10	1	-1E+10	1	-1E+10	1	-1E+10	1
4901784	18	C	01/01/2016	10:47	-131.087	45.601	0	452.90	0	4.9940	0	33.9890	0	26.879	0	448.707	0	49.6	4	16.0	4	-1E+10	1	-1E+10	1	-1E+10	1	-1E+10	1	-1E+10	1	-1E+10	1
4901784	18	C	01/01/2016	10:47	-131.087	45.601	0	454.70	0	4.9940	0	33.9940	0	26.883	0	450.489	0	48.6	4	15.7	4	-1E+10	1	-1E+10	1	-1E+10	1	-1E+10	1	-1E+10	1	-1E+10	1
4901784	18	C	01/01/2016	10:47	-131.087	45.601	0	457.40	0	4.9560	0	33.9990	0	26.891	0	453.161	0	47.9	4	15.5	4	-1E+10	1	-1E+10	1	-1E+10	1	-1E+10	1	-1E+10	1	-1E+10	1
4901784	18	C	01/01/2016	10:47	-131.087	45.601	0	460.00	0	4.9460	0	34.0000	0	26.893	0	455.734	0	47.2	4	15.2	4	-1E+10	1	-1E+10	1	-1E+10	1	-1E+10	1	-1E+10	1	-1E+10	1
4901784	18	C	01/01/2016	10:47	-131.087	45.601	0	462.60	0	4.9220	0	34.0030	0	26.898	0	458.307	0	46.4	4	14.9	4	-1E+10	1	-1E+10	1	-1E+10	1	-1E+10	1	-1E+10	1	-1E+10	1
4901784	18	C	01/01/2016	10:47	-131.087	45.601	0	465.10	0	4.8940	0	34.0070	0	26.904	0	460.781	0	45.4	4	14.6	4	-1E+10	1	-1E+10	1	-1E+10	1	-1E+10	1	-1E+10	1	-1E+10	1
4901784	18	C	01/01/2016	10:47	-131.087	45.601	0	467.70	0	4.8850	0	34.0090	0	26.907	0	463.354	0	44.4	4	14.3	4	-1E+10	1	-1E+10	1	-1E+10	1	-1E+10	1	-1E+10	1	-1E+10	1
4901784	18	C	01/01/2016	10:47	-131.087	45.601	0	470.30	0	4.8620	0	34.0130	0	26.913	0	465.927	0	43.2	4	13.9	4	-1E+10	1	-1E+10	1	-1E+10	1	-1E+10	1	-1E+10	1	-1E+10	1
4901784	18	C	01/01/2016	10:47	-131.087	45.601	0	472.80	0	4.8250	0	34.0210	0	26.923	0	468.401	0	42.5	4	13.7	4	-1E+10	1	-1E+10	1	-1E+10	1	-1E+10	1	-1E+10	1	-1E+10	1
4901784	18	C	01/01/2016	10:47	-131.087	45.601	0	475.50	0	4.8140	0	34.0230	0	26.926	0	471.073	0	42.2	4	13.6	4	-1E+10	1	-1E+10	1	-1E+10	1	-1E+10	1	-1E+10	1	-1E+10	1
4901784	18	C	01/01/2016	10:47	-131.087	45.601	0	477.20	0	4.8110	0	34.0230	0	26.926	0	472.755	0	41.8	4	13.4	4	-1E+10	1	-1E+10	1	-1E+10	1	-1E+10	1	-1E+10	1	-1E+10	1
4901784	18	C	01/01/2016	10:47	-131.087	45.601	0	479.90	0	4.8050	0	34.0250	0	26.929	0	475.427	0	41.1	4	13.2	4	-1E+10	1	-1E+10	1	-1E+10	1	-1E+10	1	-1E+10	1	-1E+10	1
4901784	18	C	01/01/2016	10:47	-131.087	45.601	0	482.50	0	4.8010	0	34.0270	0	26.931	0	477.999	0	40.3	4	13.0	4	-1E+10	1	-1E+10	1	-1E+10	1	-1E+10	1	-1E+10	1	-1E+10	1
4901784	18	C	01/01/2016	10:47	-131.087	45.601	0	485.10	0	4.7990	0	34.0300	0	26.933	0	480.572	0	39.5	4	12.7	4	-1E+10	1	-1E+10	1	-1E+10	1	-1E+10	1	-1E+10	1	-1E+10	1
4901784	18	C	01/01/2016	10:47	-131.087	45.601	0	487.60	0	4.7940	0	34.0310	0	26.935	0	483.046	0	38.6	4	12.4	4	-1E+10	1	-1E+10	1	-1E+10	1	-1E+10	1	-1E+10	1	-1E+10	1
4901784	18	C	01/01/2016	10:47	-131.087	45.601	0	490.30	0	4.8000	0	34.0350	0	26.937	0	485.717	0	37.6	4	12.1	4	-1E+10	1	-1E+10	1	-1E+10	1	-1E+10	1	-1E+10	1	-1E+10	1
4901784	18	C	01/01/2016	10:47	-131.087	45.601	0	493.00	0	4.8010	0	34.0400	0	26.941	0	488.389	0	36.8	4	11.8	4	-1E+10	1	-1E+10	1	-1E+10	1	-1E+10	1	-1E+10	1	-1E+10	1
4901784	18	C	01/01/2016	10:47	-131.087	45.601	0	494.70	0	4.7910	0	34.0420	0	26.944	0	490.071	0	36.5	4	11.7	4	-1E+10	1	-1E+10	1	-1E+10	1	-1E+10	1	-1E+10	1	-1E+10	1
4901784	18	C	01/01/2016	10:47	-131.087	45.601	0	497.40	0	4.7830	0	34.0440	0	26.946	0	492.743	0	36.2	4	11.6	4	-1E+10	1	-1E+10	1	-1E+10	1	-1E+10	1	-1E+10	1	-1E+10	1
4901784	18	C	01/01/2016	10:47	-131.087	45.601	0	500.00	0	4.7750	0	34.0450	0	26.948	0	495.315	0	35.9	4	11.5	4	-1E+10	1	-1E+10	1	-1E+10	1	-1E+10	1	-1E+10	1	-1E+10	1
4901784	18	C	01/01/2016	10:47	-131.087	45.601	0	505.30	0	4.7330	0	34.0490	0	26.956	0	500.559	0	35.7	4	11.4	4	-1E+10	1	-1E+10	1	-1E+10	1	-1E+10	1	-1E+10	1	-1E+10	1
4901784	18	C	01/01/2016	10:47	-131.087	45.601	0	510.70	0	4.7020	0	34.0520	0	26.962	0	505.902	0	35.0	4	11.2	4	-1E+10	1	-1E+10	1	-1E+10	1	-1E+10	1	-1E+10	1	-1E+10	1
4901784	18	C	01/01/2016	10:47	-131.087	45.601	0	515.00	0	4.6700	0	34.0590	0	26.971	0	510.156	0	34.3	4	11.0	4	-1E+10	1	-1E+10	1	-1E+10	1	-1E+10	1	-1E+10	1	-1E+10	1
4901784	18	C	01/01/2016	10:47	-131.087	45.601	0	519.50	0	4.6590	0	34.0620	0	26.974	0	514.608	0	33.4	4	10.7	4	-1E+10	1	-1E+10	1	-1E+10	1	-1E+10	1	-1E+10	1	-1E+10	1
4901784	18	C	01/01/2016	10:47	-131.087	45.601	0	525.40	0	4.6290	0	34.0710	0	26.985	0	520.446	0	32.2	4	10.3	4	-1E+10	1	-1E+10	1	-1E+10	1	-1E+10	1	-1E+10	1	-1E+10	1
4901784	18	C	01/01/2016	10:47	-131.087	45.601	0	530.30	0	4.6090	0	34.0770	0	26.992	0	525.293	0	31.6	4	10.1	4	-1E+10	1	-1E+10	1	-1E+10	1	-1E+10	1	-1E+10	1	-1E+10	1
4901784	18	C	01/01/2016	10:47	-131.087	45.601	0	535.00	0	4.6050	0	34.0790	0	26.994	0	529.943	0	31.3	4	10.0	4	-1E+10	1	-1E+10	1	-1E+10	1	-1E+10	1	-1E+10	1	-1E+10	1
4901784	18	C	01/01/2016	10:47	-131.087	45.601	0	539.60	0	4.5980	0	34.0800	0	26.995	0	534.493	0	31.0	4	9.9	4	-1E+10	1	-1E+10	1	-1E+10	1	-1E+10	1	-1E+10	1	-1E+10	1
4901784	18	C	01/01/2016	10:47	-131.087	45.601	0	544.40	0	4.5870	0	34.0820	0	26.998	0	539.242	0	30.6	4	9.8	4	-1E+10	1	-1E+10	1	-1E+10	1	-1E+10	1	-1E+10	1	-1E+10	1
4901784	18	C	01/01/2016	10:47	-131.087	45.601	0	550.00	0	4.5740	0	34.0870	0	27.004	0	544.781	0	29.9	4	9.6	4	-1E+10	1	-1E+10	1	-1E+10	1	-1E+10	1	-1E+10	1	-1E+10	1
4901784	18	C	01/01/2016	10:47	-131.087	45.601	0	555.80	0	4.5660	0	34.0890	0	27.006	0	550.519	0	29.4	4	9.4	4	-1E+10	1	-1E+10	1	-1E+10	1	-1E+10	1	-1E+10	1	-1E+10	1
4901784	18	C	01/01/2016	10:47	-131.087	45.601	0	560.70	0	4.5520	0	34.0920	0	27.010	0	555.366	0	28.9	4	9.2	4	-1E+10	1	-1E+10	1	-1E+10	1	-1E+10	1	-1E+10	1	-1E+10	1
4901784	18	C	01/01/2016	10:47	-131.087	45.601	0	565.70	0	4.5440	0	34.0940	0	27.013	0	560.311	0	28.6	4	9.1	4	-1E+10	1	-1E+10	1	-1E+10	1	-1E+10	1	-1E+10	1	-1E+10	1
4901784	18	C	01/01/2016	10:47	-131.087	45.601	0	570.80	0	4.5370	0	34.0960	0	27.015	0	565.356	0	28.3	4	9.0	4	-1E+10	1	-1E+10	1	-1E+10	1	-1E+10	1	-1E+10	1	-1E+10	1
4901784	18	C	01/01/2016	10:47	-131.087	45.601	0	574.90	0	4.5310	0	34.0980	0	27.017	0	569.411	0	28.0	4	9.0	4	-1E+10	1	-1E+10	1	-1E+10	1	-1E+10	1	-1E+10	1	-1E+10	1
4901784	18	C	01/01/2016	10:47	-131.087	45.601	0	579.20	0	4.5230	0	34.0990	0	27.019	0	573.664	0	27.7	4	8.9	4	-1E+10	1	-1E+10	1	-1E+10	1	-1E+10	1	-1E+10	1	-1E+10	1
4901784	18	C	01/01/2016	10:47	-131.087	45.601	0	584.40	0	4.5160	0	34.1010	0	27.021	0	578.807	0	27.4	4	8.7	4	-1E+10	1	-1E+10	1	-1E+10	1	-1E+10	1	-1E+10	1	-1E+10	1
4901784	18	C	01/01/2016	10:47	-131.087	45.601	0	589.50	0	4.5060	0	34.1040	0	27.025	0	583.851	0	27.0	4	8.6	4	-1E+10	1	-1E+10	1	-1E+10	1	-1E+10	1	-1E+10	1	-1E+10	1
4901784	18	C	01/01/2016	10:47	-131.087	45.601	0	594.80	0	4.5000	0	34.1060	0	27.027	0	589.093	0	26.7	4	8.5	4	-1E+10	1	-1E+10	1	-1E+10	1	-1E+10	1	-1E+10	1	-1E+10	1
4901784	18	C	01/01/2016	10:47	-131.087	45.601	0	600.20	0	4.4940	0	34.1070	0	27.029	0	594.433	0	26.4	4	8.4	4	-1E+10	1	-1E+10	1	-1E+10	1	-1E+10	1	-1E+10	1	-1E+10	1
4901784	18	C	01/01/2016	10:47	-131.087	45.601	0	604.80	0	4.4870	0	34.1090	0	27.031	0	598.982	0	26.2	4	8.4	4	-1E+10	1	-1E+10	1	-1E+10	1	-1E+10	1	-1E+10	1	-1E+10	1
4901784	18	C	01/01/2016	10:47	-131.087	45.601	0	609.30	0	4.4800	0	34.1110	0	27.033	0	603.433	0	25.9	4	8.3	4	-1E+10	1	-1E+10	1	-1E+10	1	-1E+10	1	-1E+10	1	-1E+10	1
4901784	18	C	01/01/2016	10:47	-131.087	45.601	0	614.70	0	4.4750	0	34.1120	0	27.035	0	608.773	0	25.5	4	8.2	4	-1E+10	1	-1E+10	1	-1E+10	1	-1E+10	1	-1E+10	1	-1E+10	1
4901784	18	C	01/01/2016	10:47	-131.087	45.601	0	620.10	0	4.4660	0	34.1140	0	27.037	0	614.113	0	25.1	4	8.0	4	-1E+10	1	-1E+10	1	-1E+10	1	-1E+10	1	-1E+10	1	-1E+10	1
4901784	18	C	01/01/2016	10:47	-131.087	45.601	0	625.60	0	4.4560	0	34.1180	0	27.042	0	619.551	0	24.6	4	7.8	4	-1E+10	1	-1E+10	1	-1E+10	1	-1E+10	1	-1E+10	1	-1E+10	1
4901784	18	C	01/01/2016	10:47	-131.087	45.601	0	630.20	0	4.4450	0	34.1210	0	27.045	0	624.100	0	24.1	4	7.7	4	-1E+10	1	-1E+10	1	-1E+10	1	-1E+10	1	-1E+10	1	-1E+10	1
4901784	18	C	01/01/2016	10:47	-131.087	45.601	0	634.80	0	4.4300	0	34.1240	0	27.049	0	628.649	0	23.7	4	7.5	4	-1E+10	1	-1E+10	1	-1E+10	1	-1E+10	1	-1E+10	1	-1E+10	1
4901784	18	C	01/01/2016	10:47	-131.087	45.601	0	640.40	0	4.4240	0	34.1260	0	27.052	0	634.186	0	22.9	4	7.3	4	-1E+10	1	-1E+10	1	-1E+10	1	-1E+10	1	-1E+10	1	-1E+10	1
4901784	18	C	01/01/2016	10:47	-131.087	45.601	0	645.00	0	4.4230	0	34.1290	0	27.054	0	638.734	0	21.7	4	6.9	4	-1E+10	1	-1E+10	1	-1E+10	1	-1E+10	1	-1E+10	1	-1E+10	1
4901784	18	C	01/01/2016	10:47	-131.087	45.601	0	649.70	0	4.4600	0	34.1430	0	27.061	0	643.381	0	20.4	4	6.5	4	-1E+10	1	-1E+10	1	-1E+10	1	-1E+10	1	-1E+10	1	-1E+10	1
4901784	18	C	01/01/2016	10:47	-131.087	45.601	0	655.10	0	4.4030	0	34.1480	0	27.071	0	648.720	0	20.9	4	6.7	4	-1E+10	1	-1E+10	1	-1E+10	1	-1E+10	1	-1E+10	1	-1E+10	1
4901784	18	C	01/01/2016	10:47	-131.087	45.601	0	659.80	0	4.3870	0	34.1470	0	27.072	0	653.367	0	21.5	4	6.8	4	-1E+10	1	-1E+10	1	-1E+10	1	-1E+10	1	-1E+10	1	-1E+10	1
4901784	18	C	01/01/2016	10:47	-131.087	45.601	0	664.50	0	4.3080	0	34.1440	0	27.078	0	658.014	0	21.8	4	6.9	4	-1E+10	1	-1E+10	1	-1E+10	1	-1E+10	1	-1E+10	1	-1E+10	1
4901784	18	C	01/01/2016	10:47	-131.087	45.601	0	670.20	0	4.3000	0	34.1430	0	27.079	0	663.649	0	21.2	4	6.7	4	-1E+10	1	-1E+10	1	-1E+10	1	-1E+10	1	-1E+10	1	-1E+10	1
4901784	18	C	01/01/2016	10:47	-131.087	45.601	0	674.90	0	4.2960	0	34.1470	0	27.082	0	668.296	0	20.1	4	6.4	4	-1E+10	1	-1E+10	1	-1E+10	1	-1E+10	1	-1E+10	1	-1E+10	1
4901784	18	C	01/01/2016	10:47	-131.087	45.601	0	679.50	0	4.3160	0	34.1560	0	27.087	0	672.843	0	18.7	4	5.9	4	-1E+10	1	-1E+10	1	-1E+10	1	-1E+10	1	-1E+10	1	-1E+10	1
4901784	18	C	01/01/2016	10:47	-131.087	45.601	0	685.20	0	4.2930	0	34.1670	0	27.098	0	678.478	0	18.0	4	5.7	4	-1E+10	1	-1E+10	1	-1E+10	1	-1E+10	1	-1E+10	1	-1E+10	1
4901784	18	C	01/01/2016	10:47	-131.087	45.601	0	689.90	0	4.2870	0	34.1680	0	27.100	0	683.124	0	17.8	4	5.7	4	-1E+10	1	-1E+10	1	-1E+10	1	-1E+10	1	-1E+10	1	-1E+10	1
4901784	18	C	01/01/2016	10:47	-131.087	45.601	0	694.50	0	4.2820	0	34.1680	0	27.100	0	687.672	0	17.6	4	5.6	4	-1E+10	1	-1E+10	1	-1E+10	1	-1E+10	1	-1E+10	1	-1E+10	1
4901784	18	C	01/01/2016	10:47	-131.087	45.601	0	700.00	0	4.2470	0	34.1730	0	27.108	0	693.108	0	17.2	4	5.5	4	-1E+10	1	-1E+10	1	-1E+10	1	-1E+10	1	-1E+10	1	-1E+10	1
4901784	18	C	01/01/2016	10:47	-131.087	45.601	0	705.60	0	4.2340	0	34.1770	0	27.113	0	698.644	0	16.5	4	5.2	4	-1E+10	1	-1E+10	1	-1E+10	1	-1E+10	1	-1E+10	1	-1E+10	1
4901784	18	C	01/01/2016	10:47	-131.087	45.601	0	710.20	0	4.2140	0	34.1860	0	27.122	0	703.191	0	16.3	4	5.2	4	-1E+10	1	-1E+10	1	-1E+10	1	-1E+10	1	-1E+10	1	-1E+10	1
4901784	18	C	01/01/2016	10:47	-131.087	45.601	0	714.90	0	4.1480	0	34.1860	0	27.129	0	707.837	0	16.5	4	5.2	4	-1E+10	1	-1E+10	1	-1E+10	1	-1E+10	1	-1E+10	1	-1E+10	1
4901784	18	C	01/01/2016	10:47	-131.087	45.601	0	720.40	0	4.0940	0	34.1890	0	27.137	0	713.273	0	16.4	4	5.2	4	-1E+10	1	-1E+10	1	-1E+10	1	-1E+10	1	-1E+10	1	-1E+10	1
4901784	18	C	01/01/2016	10:47	-131.087	45.601	0	724.90	0	4.0900	0	34.1900	0	27.138	0	717.721	0	16.1	4	5.1	4	-1E+10	1	-1E+10	1	-1E+10	1	-1E+10	1	-1E+10	1	-1E+10	1
4901784	18	C	01/01/2016	10:47	-131.087	45.601	0	729.40	0	4.0870	0	34.1950	0	27.142	0	722.168	0	15.8	4	5.0	4	-1E+10	1	-1E+10	1	-1E+10	1	-1E+10	1	-1E+10	1	-1E+10	1
4901784	18	C	01/01/2016	10:47	-131.087	45.601	0	734.80	0	4.0640	0	34.2000	0	27.149	0	727.505	0	15.5	4	4.9	4	-1E+10	1	-1E+10	1	-1E+10	1	-1E+10	1	-1E+10	1	-1E+10	1
4901784	18	C	01/01/2016	10:47	-131.087	45.601	0	740.00	0	4.0620	0	34.2010	0	27.150	0	732.644	0	15.1	4	4.8	4	-1E+10	1	-1E+10	1	-1E+10	1	-1E+10	1	-1E+10	1	-1E+10	1
4901784	18	C	01/01/2016	10:47	-131.087	45.601	0	745.30	0	4.0470	0	34.2080	0	27.157	0	737.882	0	14.7	4	4.7	4	-1E+10	1	-1E+10	1	-1E+10	1	-1E+10	1	-1E+10	1	-1E+10	1
4901784	18	C	01/01/2016	10:47	-131.087	45.601	0	750.70	0	4.0080	0	34.2150	0	27.167	0	743.219	0	14.6	4	4.6	4	-1E+10	1	-1E+10	1	-1E+10	1	-1E+10	1	-1E+10	1	-1E+10	1
4901784	18	C	01/01/2016	10:47	-131.087	45.601	0	755.10	0	3.9960	0	34.2150	0	27.168	0	747.567	0	14.6	4	4.6	4	-1E+10	1	-1E+10	1	-1E+10	1	-1E+10	1	-1E+10	1	-1E+10	1
4901784	18	C	01/01/2016	10:47	-131.087	45.601	0	759.50	0	3.9830	0	34.2170	0	27.171	0	751.915	0	14.3	4	4.5	4	-1E+10	1	-1E+10	1	-1E+10	1	-1E+10	1	-1E+10	1	-1E+10	1
4901784	18	C	01/01/2016	10:47	-131.087	45.601	0	764.80	0	3.9780	0	34.2240	0	27.177	0	757.153	0	14.0	4	4.4	4	-1E+10	1	-1E+10	1	-1E+10	1	-1E+10	1	-1E+10	1	-1E+10	1
4901784	18	C	01/01/2016	10:47	-131.087	45.601	0	770.10	0	3.9600	0	34.2280	0	27.182	0	762.390	0	13.9	4	4.4	4	-1E+10	1	-1E+10	1	-1E+10	1	-1E+10	1	-1E+10	1	-1E+10	1
4901784	18	C	01/01/2016	10:47	-131.087	45.601	0	775.40	0	3.9320	0	34.2300	0	27.186	0	767.628	0	13.9	4	4.4	4	-1E+10	1	-1E+10	1	-1E+10	1	-1E+10	1	-1E+10	1	-1E+10	1
4901784	18	C	01/01/2016	10:47	-131.087	45.601	0	780.60	0	3.9160	0	34.2330	0	27.190	0	772.766	0	13.7	4	4.3	4	-1E+10	1	-1E+10	1	-1E+10	1	-1E+10	1	-1E+10	1	-1E+10	1
4901784	18	C	01/01/2016	10:47	-131.087	45.601	0	785.80	0	3.9060	0	34.2370	0	27.195	0	777.904	0	13.5	4	4.3	4	-1E+10	1	-1E+10	1	-1E+10	1	-1E+10	1	-1E+10	1	-1E+10	1
4901784	18	C	01/01/2016	10:47	-131.087	45.601	0	790.10	0	3.8830	0	34.2400	0	27.199	0	782.153	0	13.5	4	4.2	4	-1E+10	1	-1E+10	1	-1E+10	1	-1E+10	1	-1E+10	1	-1E+10	1
4901784	18	C	01/01/2016	10:47	-131.087	45.601	0	794.40	0	3.8510	0	34.2440	0	27.206	0	786.401	0	13.4	4	4.2	4	-1E+10	1	-1E+10	1	-1E+10	1	-1E+10	1	-1E+10	1	-1E+10	1
4901784	18	C	01/01/2016	10:47	-131.087	45.601	0	799.50	0	3.8410	0	34.2460	0	27.208	0	791.440	0	13.2	4	4.2	4	-1E+10	1	-1E+10	1	-1E+10	1	-1E+10	1	-1E+10	1	-1E+10	1
4901784	18	C	01/01/2016	10:47	-131.087	45.601	0	804.70	0	3.8320	0	34.2510	0	27.213	0	796.578	0	12.9	4	4.1	4	-1E+10	1	-1E+10	1	-1E+10	1	-1E+10	1	-1E+10	1	-1E+10	1
4901784	18	C	01/01/2016	10:47	-131.087	45.601	0	809.90	0	3.8400	0	34.2590	0	27.219	0	801.715	0	12.6	4	4.0	4	-1E+10	1	-1E+10	1	-1E+10	1	-1E+10	1	-1E+10	1	-1E+10	1
4901784	18	C	01/01/2016	10:47	-131.087	45.601	0	815.10	0	3.8420	0	34.2610	0	27.220	0	806.853	0	12.4	4	3.9	4	-1E+10	1	-1E+10	1	-1E+10	1	-1E+10	1	-1E+10	1	-1E+10	1
4901784	18	C	01/01/2016	10:47	-131.087	45.601	0	820.40	0	3.8440	0	34.2680	0	27.226	0	812.089	0	12.2	4	3.8	4	-1E+10	1	-1E+10	1	-1E+10	1	-1E+10	1	-1E+10	1	-1E+10	1
4901784	18	C	01/01/2016	10:47	-131.087	45.601	0	824.80	0	3.8280	0	34.2710	0	27.230	0	816.436	0	12.0	4	3.8	4	-1E+10	1	-1E+10	1	-1E+10	1	-1E+10	1	-1E+10	1	-1E+10	1
4901784	18	C	01/01/2016	10:47	-131.087	45.601	0	829.30	0	3.8050	0	34.2780	0	27.238	0	820.881	0	11.9	4	3.8	4	-1E+10	1	-1E+10	1	-1E+10	1	-1E+10	1	-1E+10	1	-1E+10	1
4901784	18	C	01/01/2016	10:47	-131.087	45.601	0	834.70	0	3.7840	0	34.2810	0	27.242	0	826.216	0	12.0	4	3.8	4	-1E+10	1	-1E+10	1	-1E+10	1	-1E+10	1	-1E+10	1	-1E+10	1
4901784	18	C	01/01/2016	10:47	-131.087	45.601	0	840.10	0	3.7500	0	34.2850	0	27.249	0	831.550	0	12.0	4	3.8	4	-1E+10	1	-1E+10	1	-1E+10	1	-1E+10	1	-1E+10	1	-1E+10	1
4901784	18	C	01/01/2016	10:47	-131.087	45.601	0	844.90	0	3.7360	0	34.2870	0	27.252	0	836.292	0	12.0	4	3.8	4	-1E+10	1	-1E+10	1	-1E+10	1	-1E+10	1	-1E+10	1	-1E+10	1
4901784	18	C	01/01/2016	10:47	-131.087	45.601	0	850.10	0	3.6960	0	34.2880	0	27.257	0	841.428	0	12.1	4	3.8	4	-1E+10	1	-1E+10	1	-1E+10	1	-1E+10	1	-1E+10	1	-1E+10	1
4901784	18	C	01/01/2016	10:47	-131.087	45.601	0	855.50	0	3.6720	0	34.2890	0	27.260	0	846.762	0	12.2	4	3.8	4	-1E+10	1	-1E+10	1	-1E+10	1	-1E+10	1	-1E+10	1	-1E+10	1
4901784	18	C	01/01/2016	10:47	-131.087	45.601	0	860.30	0	3.6550	0	34.2890	0	27.262	0	851.503	0	12.2	4	3.8	4	-1E+10	1	-1E+10	1	-1E+10	1	-1E+10	1	-1E+10	1	-1E+10	1
4901784	18	C	01/01/2016	10:47	-131.087	45.601	0	865.20	0	3.6420	0	34.2900	0	27.264	0	856.343	0	12.2	4	3.8	4	-1E+10	1	-1E+10	1	-1E+10	1	-1E+10	1	-1E+10	1	-1E+10	1
4901784	18	C	01/01/2016	10:47	-131.087	45.601	0	870.20	0	3.6330	0	34.2920	0	27.266	0	861.282	0	12.1	4	3.8	4	-1E+10	1	-1E+10	1	-1E+10	1	-1E+10	1	-1E+10	1	-1E+10	1
4901784	18	C	01/01/2016	10:47	-131.087	45.601	0	875.30	0	3.6300	0	34.2960	0	27.270	0	866.319	0	12.0	4	3.8	4	-1E+10	1	-1E+10	1	-1E+10	1	-1E+10	1	-1E+10	1	-1E+10	1
4901784	18	C	01/01/2016	10:47	-131.087	45.601	0	880.30	0	3.6320	0	34.2980	0	27.271	0	871.257	0	12.0	4	3.8	4	-1E+10	1	-1E+10	1	-1E+10	1	-1E+10	1	-1E+10	1	-1E+10	1
4901784	18	C	01/01/2016	10:47	-131.087	45.601	0	885.50	0	3.6240	0	34.3000	0	27.274	0	876.393	0	11.9	4	3.7	4	-1E+10	1	-1E+10	1	-1E+10	1	-1E+10	1	-1E+10	1	-1E+10	1
4901784	18	C	01/01/2016	10:47	-131.087	45.601	0	890.70	0	3.6140	0	34.3020	0	27.276	0	881.529	0	11.9	4	3.7	4	-1E+10	1	-1E+10	1	-1E+10	1	-1E+10	1	-1E+10	1	-1E+10	1
4901784	18	C	01/01/2016	10:47	-131.087	45.601	0	895.20	0	3.6050	0	34.3040	0	27.279	0	885.973	0	11.9	4	3.7	4	-1E+10	1	-1E+10	1	-1E+10	1	-1E+10	1	-1E+10	1	-1E+10	1
4901784	18	C	01/01/2016	10:47	-131.087	45.601	0	899.60	0	3.5940	0	34.3060	0	27.281	0	890.318	0	11.9	4	3.7	4	-1E+10	1	-1E+10	1	-1E+10	1	-1E+10	1	-1E+10	1	-1E+10	1
4901784	18	C	01/01/2016	10:47	-131.087	45.601	0	904.90	0	3.5830	0	34.3090	0	27.285	0	895.552	0	11.8	4	3.7	4	-1E+10	1	-1E+10	1	-1E+10	1	-1E+10	1	-1E+10	1	-1E+10	1
4901784	18	C	01/01/2016	10:47	-131.087	45.601	0	910.20	0	3.5660	0	34.3140	0	27.290	0	900.786	0	11.8	4	3.7	4	-1E+10	1	-1E+10	1	-1E+10	1	-1E+10	1	-1E+10	1	-1E+10	1
4901784	18	C	01/01/2016	10:47	-131.087	45.601	0	915.50	0	3.5540	0	34.3170	0	27.294	0	906.020	0	11.8	4	3.7	4	-1E+10	1	-1E+10	1	-1E+10	1	-1E+10	1	-1E+10	1	-1E+10	1
4901784	18	C	01/01/2016	10:47	-131.087	45.601	0	920.10	0	3.5410	0	34.3190	0	27.297	0	910.562	0	11.8	4	3.7	4	-1E+10	1	-1E+10	1	-1E+10	1	-1E+10	1	-1E+10	1	-1E+10	1
4901784	18	C	01/01/2016	10:47	-131.087	45.601	0	924.60	0	3.5360	0	34.3190	0	27.297	0	915.005	0	11.7	4	3.7	4	-1E+10	1	-1E+10	1	-1E+10	1	-1E+10	1	-1E+10	1	-1E+10	1
4901784	18	C	01/01/2016	10:47	-131.087	45.601	0	930.00	0	3.5260	0	34.3230	0	27.302	0	920.338	0	11.7	4	3.6	4	-1E+10	1	-1E+10	1	-1E+10	1	-1E+10	1	-1E+10	1	-1E+10	1
4901784	18	C	01/01/2016	10:47	-131.087	45.601	0	935.50	0	3.5230	0	34.3270	0	27.305	0	925.768	0	11.6	4	3.6	4	-1E+10	1	-1E+10	1	-1E+10	1	-1E+10	1	-1E+10	1	-1E+10	1
4901784	18	C	01/01/2016	10:47	-131.087	45.601	0	940.10	0	3.5240	0	34.3290	0	27.307	0	930.310	0	11.6	4	3.6	4	-1E+10	1	-1E+10	1	-1E+10	1	-1E+10	1	-1E+10	1	-1E+10	1
4901784	18	C	01/01/2016	10:47	-131.087	45.601	0	944.60	0	3.5200	0	34.3310	0	27.309	0	934.753	0	11.6	4	3.6	4	-1E+10	1	-1E+10	1	-1E+10	1	-1E+10	1	-1E+10	1	-1E+10	1
4901784	18	C	01/01/2016	10:47	-131.087	45.601	0	950.20	0	3.5080	0	34.3360	0	27.314	0	940.282	0	11.5	4	3.6	4	-1E+10	1	-1E+10	1	-1E+10	1	-1E+10	1	-1E+10	1	-1E+10	1
4901784	18	C	01/01/2016	10:47	-131.087	45.601	0	955.50	0	3.5000	0	34.3380	0	27.316	0	945.515	0	11.5	4	3.6	4	-1E+10	1	-1E+10	1	-1E+10	1	-1E+10	1	-1E+10	1	-1E+10	1
4901784	18	C	01/01/2016	10:47	-131.087	45.601	0	960.30	0	3.4940	0	34.3390	0	27.318	0	950.254	0	11.5	4	3.6	4	-1E+10	1	-1E+10	1	-1E+10	1	-1E+10	1	-1E+10	1	-1E+10	1
4901784	18	C	01/01/2016	10:47	-131.087	45.601	0	965.10	0	3.4870	0	34.3390	0	27.318	0	954.993	0	11.6	4	3.6	4	-1E+10	1	-1E+10	1	-1E+10	1	-1E+10	1	-1E+10	1	-1E+10	1
4901784	18	C	01/01/2016	10:47	-131.087	45.601	0	970.00	0	3.4630	0	34.3410	0	27.322	0	959.830	0	11.6	4	3.6	4	-1E+10	1	-1E+10	1	-1E+10	1	-1E+10	1	-1E+10	1	-1E+10	1
4901784	18	C	01/01/2016	10:47	-131.087	45.601	0	975.00	0	3.4510	0	34.3430	0	27.325	0	964.766	0	11.6	4	3.6	4	-1E+10	1	-1E+10	1	-1E+10	1	-1E+10	1	-1E+10	1	-1E+10	1
4901784	18	C	01/01/2016	10:47	-131.087	45.601	0	980.00	0	3.4480	0	34.3450	0	27.327	0	969.702	0	11.6	4	3.6	4	-1E+10	1	-1E+10	1	-1E+10	1	-1E+10	1	-1E+10	1	-1E+10	1
4901784	18	C	01/01/2016	10:47	-131.087	45.601	0	985.10	0	3.4370	0	34.3480	0	27.330	0	974.737	0	11.6	4	3.6	4	-1E+10	1	-1E+10	1	-1E+10	1	-1E+10	1	-1E+10	1	-1E+10	1
4901784	18	C	01/01/2016	10:47	-131.087	45.601	0	990.30	0	3.4290	0	34.3480	0	27.331	0	979.870	0	11.7	4	3.6	4	-1E+10	1	-1E+10	1	-1E+10	1	-1E+10	1	-1E+10	1	-1E+10	1
4901784	18	C	01/01/2016	10:47	-131.087	45.601	0	995.50	0	3.4100	0	34.3520	0	27.336	0	985.003	0	11.7	4	3.6	4	-1E+10	1	-1E+10	1	-1E+10	1	-1E+10	1	-1E+10	1	-1E+10	1
4901784	18	C	01/01/2016	10:47	-131.087	45.601	0	1000.70	0	3.4050	0	34.3520	0	27.337	0	990.136	0	11.7	4	3.6	4	-1E+10	1	-1E+10	1	-1E+10	1	-1E+10	1	-1E+10	1	-1E+10	1
4901784	18	C	01/01/2016	10:47	-131.087	45.601	0	1005.00	0	3.3980	0	34.3530	0	27.338	0	994.380	0	11.7	4	3.6	4	-1E+10	1	-1E+10	1	-1E+10	1	-1E+10	1	-1E+10	1	-1E+10	1
4901784	18	C	01/01/2016	10:47	-131.087	45.601	0	1009.20	0	3.3920	0	34.3540	0	27.340	0	998.526	0	11.7	4	3.7	4	-1E+10	1	-1E+10	1	-1E+10	1	-1E+10	1	-1E+10	1	-1E+10	1
4901784	18	C	01/01/2016	10:47	-131.087	45.601	0	1014.40	0	3.3770	0	34.3560	0	27.343	0	1003.659	0	11.8	4	3.7	4	-1E+10	1	-1E+10	1	-1E+10	1	-1E+10	1	-1E+10	1	-1E+10	1
4901784	18	C	01/01/2016	10:47	-131.087	45.601	0	1019.60	0	3.3710	0	34.3570	0	27.344	0	1008.791	0	11.8	4	3.7	4	-1E+10	1	-1E+10	1	-1E+10	1	-1E+10	1	-1E+10	1	-1E+10	1
4901784	18	C	01/01/2016	10:47	-131.087	45.601	0	1024.90	0	3.3660	0	34.3610	0	27.348	0	1014.022	0	11.8	4	3.7	4	-1E+10	1	-1E+10	1	-1E+10	1	-1E+10	1	-1E+10	1	-1E+10	1
4901784	18	C	01/01/2016	10:47	-131.087	45.601	0	1030.30	0	3.3580	0	34.3630	0	27.350	0	1019.352	0	11.9	4	3.7	4	-1E+10	1	-1E+10	1	-1E+10	1	-1E+10	1	-1E+10	1	-1E+10	1
4901784	18	C	01/01/2016	10:47	-131.087	45.601	0	1034.80	0	3.3500	0	34.3650	0	27.353	0	1023.793	0	11.9	4	3.7	4	-1E+10	1	-1E+10	1	-1E+10	1	-1E+10	1	-1E+10	1	-1E+10	1
4901784	18	C	01/01/2016	10:47	-131.087	45.601	0	1039.40	0	3.3380	0	34.3690	0	27.357	0	1028.333	0	12.0	4	3.7	4	-1E+10	1	-1E+10	1	-1E+10	1	-1E+10	1	-1E+10	1	-1E+10	1
4901784	18	C	01/01/2016	10:47	-131.087	45.601	0	1044.80	0	3.3220	0	34.3720	0	27.361	0	1033.662	0	12.1	4	3.8	4	-1E+10	1	-1E+10	1	-1E+10	1	-1E+10	1	-1E+10	1	-1E+10	1
4901784	18	C	01/01/2016	10:47	-131.087	45.601	0	1050.30	0	3.3080	0	34.3760	0	27.365	0	1039.090	0	12.2	4	3.8	4	-1E+10	1	-1E+10	1	-1E+10	1	-1E+10	1	-1E+10	1	-1E+10	1
4901784	18	C	01/01/2016	10:47	-131.087	45.601	0	1054.90	0	3.2970	0	34.3780	0	27.368	0	1043.629	0	12.2	4	3.8	4	-1E+10	1	-1E+10	1	-1E+10	1	-1E+10	1	-1E+10	1	-1E+10	1
4901784	18	C	01/01/2016	10:47	-131.087	45.601	0	1059.50	0	3.2890	0	34.3800	0	27.370	0	1048.168	0	12.3	4	3.8	4	-1E+10	1	-1E+10	1	-1E+10	1	-1E+10	1	-1E+10	1	-1E+10	1
4901784	18	C	01/01/2016	10:47	-131.087	45.601	0	1065.10	0	3.2720	0	34.3810	0	27.373	0	1053.694	0	12.3	4	3.8	4	-1E+10	1	-1E+10	1	-1E+10	1	-1E+10	1	-1E+10	1	-1E+10	1
4901784	18	C	01/01/2016	10:47	-131.087	45.601	0	1069.70	0	3.2550	0	34.3840	0	27.377	0	1058.233	0	12.4	4	3.8	4	-1E+10	1	-1E+10	1	-1E+10	1	-1E+10	1	-1E+10	1	-1E+10	1
4901784	18	C	01/01/2016	10:47	-131.087	45.601	0	1074.80	0	3.2250	0	34.3850	0	27.380	0	1063.266	0	12.4	4	3.9	4	-1E+10	1	-1E+10	1	-1E+10	1	-1E+10	1	-1E+10	1	-1E+10	1
4901784	18	C	01/01/2016	10:47	-131.087	45.601	0	1080.00	0	3.2170	0	34.3850	0	27.381	0	1068.397	0	12.4	4	3.9	4	-1E+10	1	-1E+10	1	-1E+10	1	-1E+10	1	-1E+10	1	-1E+10	1
4901784	18	C	01/01/2016	10:47	-131.087	45.601	0	1084.90	0	3.2110	0	34.3850	0	27.382	0	1073.232	0	12.5	4	3.9	4	-1E+10	1	-1E+10	1	-1E+10	1	-1E+10	1	-1E+10	1	-1E+10	1
4901784	18	C	01/01/2016	10:47	-131.087	45.601	0	1089.80	0	3.2020	0	34.3860	0	27.383	0	1078.067	0	12.5	4	3.9	4	-1E+10	1	-1E+10	1	-1E+10	1	-1E+10	1	-1E+10	1	-1E+10	1
4901784	18	C	01/01/2016	10:47	-131.087	45.601	0	1094.70	0	3.1840	0	34.3880	0	27.387	0	1082.901	0	12.6	4	3.9	4	-1E+10	1	-1E+10	1	-1E+10	1	-1E+10	1	-1E+10	1	-1E+10	1
4901784	18	C	01/01/2016	10:47	-131.087	45.601	0	1099.60	0	3.1730	0	34.3890	0	27.389	0	1087.736	0	12.7	4	3.9	4	-1E+10	1	-1E+10	1	-1E+10	1	-1E+10	1	-1E+10	1	-1E+10	1
4901784	18	C	01/01/2016	10:47	-131.087	45.601	0	1104.70	0	3.1600	0	34.3930	0	27.393	0	1092.767	0	12.8	4	4.0	4	-1E+10	1	-1E+10	1	-1E+10	1	-1E+10	1	-1E+10	1	-1E+10	1
4901784	18	C	01/01/2016	10:47	-131.087	45.601	0	1109.60	0	3.1460	0	34.3950	0	27.396	0	1097.602	0	13.0	4	4.0	4	-1E+10	1	-1E+10	1	-1E+10	1	-1E+10	1	-1E+10	1	-1E+10	1
4901784	18	C	01/01/2016	10:47	-131.087	45.601	0	1114.70	0	3.1350	0	34.3980	0	27.399	0	1102.633	0	13.1	4	4.1	4	-1E+10	1	-1E+10	1	-1E+10	1	-1E+10	1	-1E+10	1	-1E+10	1
4901784	18	C	01/01/2016	10:47	-131.087	45.601	0	1119.70	0	3.1270	0	34.4000	0	27.402	0	1107.566	0	13.2	4	4.1	4	-1E+10	1	-1E+10	1	-1E+10	1	-1E+10	1	-1E+10	1	-1E+10	1
4901784	18	C	01/01/2016	10:47	-131.087	45.601	0	1124.80	0	3.1170	0	34.4030	0	27.405	0	1112.597	0	13.3	4	4.1	4	-1E+10	1	-1E+10	1	-1E+10	1	-1E+10	1	-1E+10	1	-1E+10	1
4901784	18	C	01/01/2016	10:47	-131.087	45.601	0	1130.10	0	3.1090	0	34.4050	0	27.407	0	1117.825	0	13.4	4	4.2	4	-1E+10	1	-1E+10	1	-1E+10	1	-1E+10	1	-1E+10	1	-1E+10	1
4901784	18	C	01/01/2016	10:47	-131.087	45.601	0	1135.30	0	3.1020	0	34.4060	0	27.409	0	1122.955	0	13.6	4	4.2	4	-1E+10	1	-1E+10	1	-1E+10	1	-1E+10	1	-1E+10	1	-1E+10	1
4901784	18	C	01/01/2016	10:47	-131.087	45.601	0	1140.50	0	3.0920	0	34.4080	0	27.411	0	1128.084	0	13.7	4	4.2	4	-1E+10	1	-1E+10	1	-1E+10	1	-1E+10	1	-1E+10	1	-1E+10	1
4901784	18	C	01/01/2016	10:47	-131.087	45.601	0	1144.90	0	3.0830	0	34.4100	0	27.414	0	1132.425	0	13.8	4	4.3	4	-1E+10	1	-1E+10	1	-1E+10	1	-1E+10	1	-1E+10	1	-1E+10	1
4901784	18	C	01/01/2016	10:47	-131.087	45.601	0	1149.40	0	3.0730	0	34.4120	0	27.416	0	1136.864	0	13.9	4	4.3	4	-1E+10	1	-1E+10	1	-1E+10	1	-1E+10	1	-1E+10	1	-1E+10	1
4901784	18	C	01/01/2016	10:47	-131.087	45.601	0	1154.80	0	3.0640	0	34.4140	0	27.419	0	1142.190	0	14.1	4	4.4	4	-1E+10	1	-1E+10	1	-1E+10	1	-1E+10	1	-1E+10	1	-1E+10	1
4901784	18	C	01/01/2016	10:47	-131.087	45.601	0	1160.20	0	3.0550	0	34.4160	0	27.421	0	1147.516	0	14.3	4	4.4	4	-1E+10	1	-1E+10	1	-1E+10	1	-1E+10	1	-1E+10	1	-1E+10	1
4901784	18	C	01/01/2016	10:47	-131.087	45.601	0	1165.60	0	3.0430	0	34.4190	0	27.425	0	1152.842	0	14.4	4	4.4	4	-1E+10	1	-1E+10	1	-1E+10	1	-1E+10	1	-1E+10	1	-1E+10	1
4901784	18	C	01/01/2016	10:47	-131.087	45.601	0	1170.10	0	3.0370	0	34.4190	0	27.425	0	1157.281	0	14.4	4	4.5	4	-1E+10	1	-1E+10	1	-1E+10	1	-1E+10	1	-1E+10	1	-1E+10	1
4901784	18	C	01/01/2016	10:47	-131.087	45.601	0	1174.60	0	3.0280	0	34.4200	0	27.427	0	1161.719	0	14.5	4	4.5	4	-1E+10	1	-1E+10	1	-1E+10	1	-1E+10	1	-1E+10	1	-1E+10	1
4901784	18	C	01/01/2016	10:47	-131.087	45.601	0	1180.10	0	3.0190	0	34.4220	0	27.429	0	1167.143	0	14.6	4	4.5	4	-1E+10	1	-1E+10	1	-1E+10	1	-1E+10	1	-1E+10	1	-1E+10	1
4901784	18	C	01/01/2016	10:47	-131.087	45.601	0	1185.50	0	3.0160	0	34.4230	0	27.431	0	1172.469	0	14.8	4	4.6	4	-1E+10	1	-1E+10	1	-1E+10	1	-1E+10	1	-1E+10	1	-1E+10	1
4901784	18	C	01/01/2016	10:47	-131.087	45.601	0	1190.10	0	3.0130	0	34.4240	0	27.432	0	1177.006	0	15.0	4	4.6	4	-1E+10	1	-1E+10	1	-1E+10	1	-1E+10	1	-1E+10	1	-1E+10	1
4901784	18	C	01/01/2016	10:47	-131.087	45.601	0	1194.70	0	3.0010	0	34.4270	0	27.435	0	1181.542	0	15.2	4	4.7	4	-1E+10	1	-1E+10	1	-1E+10	1	-1E+10	1	-1E+10	1	-1E+10	1
4901784	18	C	01/01/2016	10:47	-131.087	45.601	0	1200.20	0	2.9970	0	34.4290	0	27.437	0	1186.966	0	15.3	4	4.7	4	-1E+10	1	-1E+10	1	-1E+10	1	-1E+10	1	-1E+10	1	-1E+10	1
4901784	18	C	01/01/2016	10:47	-131.087	45.601	0	1204.80	0	2.9890	0	34.4300	0	27.439	0	1191.502	0	15.4	4	4.8	4	-1E+10	1	-1E+10	1	-1E+10	1	-1E+10	1	-1E+10	1	-1E+10	1
4901784	18	C	01/01/2016	10:47	-131.087	45.601	0	1209.40	0	2.9820	0	34.4310	0	27.440	0	1196.038	0	15.6	4	4.8	4	-1E+10	1	-1E+10	1	-1E+10	1	-1E+10	1	-1E+10	1	-1E+10	1
4901784	18	C	01/01/2016	10:47	-131.087	45.601	0	1214.90	0	2.9680	0	34.4340	0	27.444	0	1201.462	0	15.7	4	4.9	4	-1E+10	1	-1E+10	1	-1E+10	1	-1E+10	1	-1E+10	1	-1E+10	1
4901784	18	C	01/01/2016	10:47	-131.087	45.601	0	1220.40	0	2.9600	0	34.4340	0	27.445	0	1206.885	0	15.8	4	4.9	4	-1E+10	1	-1E+10	1	-1E+10	1	-1E+10	1	-1E+10	1	-1E+10	1
4901784	18	C	01/01/2016	10:47	-131.087	45.601	0	1225.10	0	2.9520	0	34.4350	0	27.446	0	1211.520	0	15.8	4	4.9	4	-1E+10	1	-1E+10	1	-1E+10	1	-1E+10	1	-1E+10	1	-1E+10	1
4901784	18	C	01/01/2016	10:47	-131.087	45.601	0	1229.80	0	2.9440	0	34.4360	0	27.448	0	1216.154	0	15.9	4	4.9	4	-1E+10	1	-1E+10	1	-1E+10	1	-1E+10	1	-1E+10	1	-1E+10	1
4901784	18	C	01/01/2016	10:47	-131.087	45.601	0	1235.30	0	2.9330	0	34.4370	0	27.449	0	1221.577	0	16.0	4	4.9	4	-1E+10	1	-1E+10	1	-1E+10	1	-1E+10	1	-1E+10	1	-1E+10	1
4901784	18	C	01/01/2016	10:47	-131.087	45.601	0	1240.00	0	2.9260	0	34.4370	0	27.450	0	1226.211	0	16.1	4	5.0	4	-1E+10	1	-1E+10	1	-1E+10	1	-1E+10	1	-1E+10	1	-1E+10	1
4901784	18	C	01/01/2016	10:47	-131.087	45.601	0	1244.70	0	2.9170	0	34.4380	0	27.452	0	1230.845	0	16.2	4	5.0	4	-1E+10	1	-1E+10	1	-1E+10	1	-1E+10	1	-1E+10	1	-1E+10	1
4901784	18	C	01/01/2016	10:47	-131.087	45.601	0	1250.40	0	2.9030	0	34.4400	0	27.455	0	1236.465	0	16.4	4	5.0	4	-1E+10	1	-1E+10	1	-1E+10	1	-1E+10	1	-1E+10	1	-1E+10	1
4901784	18	C	01/01/2016	10:47	-131.087	45.601	0	1255.10	0	2.8920	0	34.4410	0	27.456	0	1241.099	0	16.5	4	5.1	4	-1E+10	1	-1E+10	1	-1E+10	1	-1E+10	1	-1E+10	1	-1E+10	1
4901784	18	C	01/01/2016	10:47	-131.087	45.601	0	1259.80	0	2.8830	0	34.4420	0	27.458	0	1245.733	0	16.6	4	5.1	4	-1E+10	1	-1E+10	1	-1E+10	1	-1E+10	1	-1E+10	1	-1E+10	1
4901784	18	C	01/01/2016	10:47	-131.087	45.601	0	1264.50	0	2.8740	0	34.4440	0	27.460	0	1250.366	0	16.7	4	5.1	4	-1E+10	1	-1E+10	1	-1E+10	1	-1E+10	1	-1E+10	1	-1E+10	1
4901784	18	C	01/01/2016	10:47	-131.087	45.601	0	1269.20	0	2.8700	0	34.4440	0	27.461	0	1254.999	0	16.8	4	5.2	4	-1E+10	1	-1E+10	1	-1E+10	1	-1E+10	1	-1E+10	1	-1E+10	1
4901784	18	C	01/01/2016	10:47	-131.087	45.601	0	1274.50	0	2.8530	0	34.4450	0	27.463	0	1260.224	0	17.0	4	5.2	4	-1E+10	1	-1E+10	1	-1E+10	1	-1E+10	1	-1E+10	1	-1E+10	1
4901784	18	C	01/01/2016	10:47	-131.087	45.601	0	1279.30	0	2.8360	0	34.4470	0	27.466	0	1264.956	0	17.2	4	5.3	4	-1E+10	1	-1E+10	1	-1E+10	1	-1E+10	1	-1E+10	1	-1E+10	1
4901784	18	C	01/01/2016	10:47	-131.087	45.601	0	1285.00	0	2.8230	0	34.4490	0	27.469	0	1270.575	0	17.3	4	5.3	4	-1E+10	1	-1E+10	1	-1E+10	1	-1E+10	1	-1E+10	1	-1E+10	1
4901784	18	C	01/01/2016	10:47	-131.087	45.601	0	1290.80	0	2.8050	0	34.4500	0	27.471	0	1276.292	0	17.5	4	5.4	4	-1E+10	1	-1E+10	1	-1E+10	1	-1E+10	1	-1E+10	1	-1E+10	1
4901784	18	C	01/01/2016	10:47	-131.087	45.601	0	1295.60	0	2.7900	0	34.4510	0	27.474	0	1281.024	0	17.6	4	5.4	4	-1E+10	1	-1E+10	1	-1E+10	1	-1E+10	1	-1E+10	1	-1E+10	1
4901784	18	C	01/01/2016	10:47	-131.087	45.601	0	1300.60	0	2.7730	0	34.4530	0	27.477	0	1285.952	0	17.8	4	5.5	4	-1E+10	1	-1E+10	1	-1E+10	1	-1E+10	1	-1E+10	1	-1E+10	1
4901784	18	C	01/01/2016	10:47	-131.087	45.601	0	1305.60	0	2.7630	0	34.4530	0	27.478	0	1290.881	0	17.9	4	5.5	4	-1E+10	1	-1E+10	1	-1E+10	1	-1E+10	1	-1E+10	1	-1E+10	1
4901784	18	C	01/01/2016	10:47	-131.087	45.601	0	1310.50	0	2.7600	0	34.4540	0	27.479	0	1295.710	0	17.9	4	5.5	4	-1E+10	1	-1E+10	1	-1E+10	1	-1E+10	1	-1E+10	1	-1E+10	1
4901784	18	C	01/01/2016	10:47	-131.087	45.601	0	1315.60	0	2.7520	0	34.4550	0	27.480	0	1300.737	0	18.1	4	5.6	4	-1E+10	1	-1E+10	1	-1E+10	1	-1E+10	1	-1E+10	1	-1E+10	1
4901784	18	C	01/01/2016	10:47	-131.087	45.601	0	1320.60	0	2.7380	0	34.4560	0	27.482	0	1305.665	0	18.2	4	5.6	4	-1E+10	1	-1E+10	1	-1E+10	1	-1E+10	1	-1E+10	1	-1E+10	1
4901784	18	C	01/01/2016	10:47	-131.087	45.601	0	1325.70	0	2.7270	0	34.4570	0	27.484	0	1310.692	0	18.2	4	5.6	4	-1E+10	1	-1E+10	1	-1E+10	1	-1E+10	1	-1E+10	1	-1E+10	1
4901784	18	C	01/01/2016	10:47	-131.087	45.601	0	1330.80	0	2.7270	0	34.4560	0	27.483	0	1315.718	0	18.2	4	5.6	4	-1E+10	1	-1E+10	1	-1E+10	1	-1E+10	1	-1E+10	1	-1E+10	1
4901784	18	C	01/01/2016	10:47	-131.087	45.601	0	1335.80	0	2.7220	0	34.4570	0	27.485	0	1320.646	0	18.3	4	5.6	4	-1E+10	1	-1E+10	1	-1E+10	1	-1E+10	1	-1E+10	1	-1E+10	1
4901784	18	C	01/01/2016	10:47	-131.087	45.601	0	1340.00	0	2.7140	0	34.4580	0	27.486	0	1324.785	0	18.4	4	5.6	4	-1E+10	1	-1E+10	1	-1E+10	1	-1E+10	1	-1E+10	1	-1E+10	1
4901784	18	C	01/01/2016	10:47	-131.087	45.601	0	1344.20	0	2.7100	0	34.4580	0	27.486	0	1328.924	0	18.5	4	5.7	4	-1E+10	1	-1E+10	1	-1E+10	1	-1E+10	1	-1E+10	1	-1E+10	1
4901784	18	C	01/01/2016	10:47	-131.087	45.601	0	1349.40	0	2.7100	0	34.4590	0	27.487	0	1334.048	0	18.8	4	5.7	4	-1E+10	1	-1E+10	1	-1E+10	1	-1E+10	1	-1E+10	1	-1E+10	1
4901784	18	C	01/01/2016	10:47	-131.087	45.601	0	1354.60	0	2.7040	0	34.4610	0	27.489	0	1339.173	0	19.1	4	5.8	4	-1E+10	1	-1E+10	1	-1E+10	1	-1E+10	1	-1E+10	1	-1E+10	1
4901784	18	C	01/01/2016	10:47	-131.087	45.601	0	1360.10	0	2.6950	0	34.4630	0	27.492	0	1344.593	0	19.3	4	5.9	4	-1E+10	1	-1E+10	1	-1E+10	1	-1E+10	1	-1E+10	1	-1E+10	1
4901784	18	C	01/01/2016	10:47	-131.087	45.601	0	1364.80	0	2.6960	0	34.4630	0	27.492	0	1349.224	0	19.5	4	6.0	4	-1E+10	1	-1E+10	1	-1E+10	1	-1E+10	1	-1E+10	1	-1E+10	1
4901784	18	C	01/01/2016	10:47	-131.087	45.601	0	1369.50	0	2.6900	0	34.4650	0	27.494	0	1353.855	0	19.9	4	6.1	4	-1E+10	1	-1E+10	1	-1E+10	1	-1E+10	1	-1E+10	1	-1E+10	1
4901784	18	C	01/01/2016	10:47	-131.087	45.601	0	1375.30	0	2.6770	0	34.4690	0	27.498	0	1359.570	0	20.5	4	6.3	4	-1E+10	1	-1E+10	1	-1E+10	1	-1E+10	1	-1E+10	1	-1E+10	1
4901784	18	C	01/01/2016	10:47	-131.087	45.601	0	1380.00	0	2.6680	0	34.4710	0	27.501	0	1364.201	0	20.7	4	6.3	4	-1E+10	1	-1E+10	1	-1E+10	1	-1E+10	1	-1E+10	1	-1E+10	1
4901784	18	C	01/01/2016	10:47	-131.087	45.601	0	1384.70	0	2.6540	0	34.4710	0	27.502	0	1368.832	0	20.8	4	6.4	4	-1E+10	1	-1E+10	1	-1E+10	1	-1E+10	1	-1E+10	1	-1E+10	1
4901784	18	C	01/01/2016	10:47	-131.087	45.601	0	1390.40	0	2.6410	0	34.4720	0	27.504	0	1374.448	0	20.9	4	6.4	4	-1E+10	1	-1E+10	1	-1E+10	1	-1E+10	1	-1E+10	1	-1E+10	1
4901784	18	C	01/01/2016	10:47	-131.087	45.601	0	1395.30	0	2.6350	0	34.4730	0	27.505	0	1379.276	0	21.1	4	6.5	4	-1E+10	1	-1E+10	1	-1E+10	1	-1E+10	1	-1E+10	1	-1E+10	1
4901784	18	C	01/01/2016	10:47	-131.087	45.601	0	1400.20	0	2.6260	0	34.4730	0	27.506	0	1384.104	0	21.4	4	6.6	4	-1E+10	1	-1E+10	1	-1E+10	1	-1E+10	1	-1E+10	1	-1E+10	1
4901784	18	C	01/01/2016	10:47	-131.087	45.601	0	1405.00	0	2.6050	0	34.4760	0	27.510	0	1388.833	0	21.9	4	6.7	4	-1E+10	1	-1E+10	1	-1E+10	1	-1E+10	1	-1E+10	1	-1E+10	1
4901784	18	C	01/01/2016	10:47	-131.087	45.601	0	1409.90	0	2.5900	0	34.4790	0	27.514	0	1393.660	0	22.2	4	6.8	4	-1E+10	1	-1E+10	1	-1E+10	1	-1E+10	1	-1E+10	1	-1E+10	1
4901784	18	C	01/01/2016	10:47	-131.087	45.601	0	1415.20	0	2.5840	0	34.4790	0	27.514	0	1398.882	0	22.3	4	6.8	4	-1E+10	1	-1E+10	1	-1E+10	1	-1E+10	1	-1E+10	1	-1E+10	1
4901784	18	C	01/01/2016	10:47	-131.087	45.601	0	1420.10	0	2.5790	0	34.4800	0	27.516	0	1403.709	0	22.4	4	6.9	4	-1E+10	1	-1E+10	1	-1E+10	1	-1E+10	1	-1E+10	1	-1E+10	1
4901784	18	C	01/01/2016	10:47	-131.087	45.601	0	1425.80	0	2.5700	0	34.4810	0	27.517	0	1409.324	0	22.7	4	6.9	4	-1E+10	1	-1E+10	1	-1E+10	1	-1E+10	1	-1E+10	1	-1E+10	1
4901784	18	C	01/01/2016	10:47	-131.087	45.601	0	1430.00	0	2.5650	0	34.4820	0	27.518	0	1413.462	0	22.9	4	7.0	4	-1E+10	1	-1E+10	1	-1E+10	1	-1E+10	1	-1E+10	1	-1E+10	1
4901784	18	C	01/01/2016	10:47	-131.087	45.601	0	1434.20	0	2.5630	0	34.4830	0	27.519	0	1417.599	0	23.2	4	7.1	4	-1E+10	1	-1E+10	1	-1E+10	1	-1E+10	1	-1E+10	1	-1E+10	1
4901784	18	C	01/01/2016	10:47	-131.087	45.601	0	1439.40	0	2.5510	0	34.4840	0	27.521	0	1422.721	0	23.4	4	7.2	4	-1E+10	1	-1E+10	1	-1E+10	1	-1E+10	1	-1E+10	1	-1E+10	1
4901784	18	C	01/01/2016	10:47	-131.087	45.601	0	1444.60	0	2.5430	0	34.4860	0	27.524	0	1427.843	0	23.7	4	7.2	4	-1E+10	1	-1E+10	1	-1E+10	1	-1E+10	1	-1E+10	1	-1E+10	1
4901784	18	C	01/01/2016	10:47	-131.087	45.601	0	1449.90	0	2.5380	0	34.4860	0	27.524	0	1433.064	0	24.0	4	7.3	4	-1E+10	1	-1E+10	1	-1E+10	1	-1E+10	1	-1E+10	1	-1E+10	1
4901784	18	C	01/01/2016	10:47	-131.087	45.601	0	1455.20	0	2.5300	0	34.4880	0	27.526	0	1438.284	0	24.4	4	7.4	4	-1E+10	1	-1E+10	1	-1E+10	1	-1E+10	1	-1E+10	1	-1E+10	1
4901784	18	C	01/01/2016	10:47	-131.087	45.601	0	1460.50	0	2.5200	0	34.4890	0	27.528	0	1443.505	0	24.6	4	7.5	4	-1E+10	1	-1E+10	1	-1E+10	1	-1E+10	1	-1E+10	1	-1E+10	1
4901784	18	C	01/01/2016	10:47	-131.087	45.601	0	1465.00	0	2.5170	0	34.4900	0	27.529	0	1447.937	0	24.8	4	7.6	4	-1E+10	1	-1E+10	1	-1E+10	1	-1E+10	1	-1E+10	1	-1E+10	1
4901784	18	C	01/01/2016	10:47	-131.087	45.601	0	1469.50	0	2.5100	0	34.4910	0	27.531	0	1452.369	0	25.2	4	7.7	4	-1E+10	1	-1E+10	1	-1E+10	1	-1E+10	1	-1E+10	1	-1E+10	1
4901784	18	C	01/01/2016	10:47	-131.087	45.601	0	1475.00	0	2.5030	0	34.4930	0	27.533	0	1457.786	0	25.7	4	7.8	4	-1E+10	1	-1E+10	1	-1E+10	1	-1E+10	1	-1E+10	1	-1E+10	1
4901784	18	C	01/01/2016	10:47	-131.087	45.601	0	1480.40	0	2.4950	0	34.4950	0	27.535	0	1463.104	0	26.1	4	8.0	4	-1E+10	1	-1E+10	1	-1E+10	1	-1E+10	1	-1E+10	1	-1E+10	1
4901784	18	C	01/01/2016	10:47	-131.087	45.601	0	1485.50	0	2.4860	0	34.4960	0	27.537	0	1468.127	0	26.5	4	8.1	4	-1E+10	1	-1E+10	1	-1E+10	1	-1E+10	1	-1E+10	1	-1E+10	1
4901784	18	C	01/01/2016	10:47	-131.087	45.601	0	1490.60	0	2.4730	0	34.4970	0	27.539	0	1473.149	0	26.9	4	8.2	4	-1E+10	1	-1E+10	1	-1E+10	1	-1E+10	1	-1E+10	1	-1E+10	1
4901784	18	C	01/01/2016	10:47	-131.087	45.601	0	1495.60	0	2.4670	0	34.4990	0	27.541	0	1478.073	0	27.2	4	8.3	4	-1E+10	1	-1E+10	1	-1E+10	1	-1E+10	1	-1E+10	1	-1E+10	1
4901784	18	C	01/01/2016	10:47	-131.087	45.601	0	1500.70	0	2.4620	0	34.4990	0	27.541	0	1483.096	0	27.7	4	8.4	4	-1E+10	1	-1E+10	1	-1E+10	1	-1E+10	1	-1E+10	1	-1E+10	1
4901784	18	C	01/01/2016	10:47	-131.087	45.601	0	1505.80	0	2.4520	0	34.5010	0	27.544	0	1488.118	0	28.3	4	8.6	4	-1E+10	1	-1E+10	1	-1E+10	1	-1E+10	1	-1E+10	1	-1E+10	1
4901784	18	C	01/01/2016	10:47	-131.087	45.601	0	1510.00	0	2.4480	0	34.5040	0	27.546	0	1492.254	0	28.7	4	8.7	4	-1E+10	1	-1E+10	1	-1E+10	1	-1E+10	1	-1E+10	1	-1E+10	1
4901784	18	C	01/01/2016	10:47	-131.087	45.601	0	1514.20	0	2.4440	0	34.5040	0	27.547	0	1496.390	0	29.1	4	8.9	4	-1E+10	1	-1E+10	1	-1E+10	1	-1E+10	1	-1E+10	1	-1E+10	1
4901784	18	C	01/01/2016	10:47	-131.087	45.601	0	1519.30	0	2.4320	0	34.5060	0	27.549	0	1501.412	0	29.4	4	9.0	4	-1E+10	1	-1E+10	1	-1E+10	1	-1E+10	1	-1E+10	1	-1E+10	1
4901784	18	C	01/01/2016	10:47	-131.087	45.601	0	1524.40	0	2.4270	0	34.5060	0	27.550	0	1506.433	0	29.7	4	9.0	4	-1E+10	1	-1E+10	1	-1E+10	1	-1E+10	1	-1E+10	1	-1E+10	1
4901784	18	C	01/01/2016	10:47	-131.087	45.601	0	1529.50	0	2.4190	0	34.5080	0	27.552	0	1511.455	0	30.1	4	9.2	4	-1E+10	1	-1E+10	1	-1E+10	1	-1E+10	1	-1E+10	1	-1E+10	1
4901784	18	C	01/01/2016	10:47	-131.087	45.601	0	1534.70	0	2.4090	0	34.5090	0	27.554	0	1516.575	0	30.5	4	9.3	4	-1E+10	1	-1E+10	1	-1E+10	1	-1E+10	1	-1E+10	1	-1E+10	1
4901784	18	C	01/01/2016	10:47	-131.087	45.601	0	1539.90	0	2.4010	0	34.5100	0	27.555	0	1521.695	0	30.9	4	9.4	4	-1E+10	1	-1E+10	1	-1E+10	1	-1E+10	1	-1E+10	1	-1E+10	1
4901784	18	C	01/01/2016	10:47	-131.087	45.601	0	1545.10	0	2.3900	0	34.5120	0	27.558	0	1526.815	0	31.4	4	9.6	4	-1E+10	1	-1E+10	1	-1E+10	1	-1E+10	1	-1E+10	1	-1E+10	1
4901784	18	C	01/01/2016	10:47	-131.087	45.601	0	1550.30	0	2.3790	0	34.5140	0	27.560	0	1531.934	0	31.7	4	9.6	4	-1E+10	1	-1E+10	1	-1E+10	1	-1E+10	1	-1E+10	1	-1E+10	1
4901784	18	C	01/01/2016	10:47	-131.087	45.601	0	1555.60	0	2.3770	0	34.5140	0	27.560	0	1537.152	0	31.8	4	9.7	4	-1E+10	1	-1E+10	1	-1E+10	1	-1E+10	1	-1E+10	1	-1E+10	1
4901784	18	C	01/01/2016	10:47	-131.087	45.601	0	1560.00	0	2.3770	0	34.5140	0	27.560	0	1541.484	0	31.9	4	9.7	4	-1E+10	1	-1E+10	1	-1E+10	1	-1E+10	1	-1E+10	1	-1E+10	1
4901784	18	C	01/01/2016	10:47	-131.087	45.601	0	1564.50	0	2.3760	0	34.5140	0	27.561	0	1545.914	0	32.0	4	9.7	4	-1E+10	1	-1E+10	1	-1E+10	1	-1E+10	1	-1E+10	1	-1E+10	1
4901784	18	C	01/01/2016	10:47	-131.087	45.601	0	1570.00	0	2.3720	0	34.5150	0	27.562	0	1551.329	0	32.3	4	9.8	4	-1E+10	1	-1E+10	1	-1E+10	1	-1E+10	1	-1E+10	1	-1E+10	1
4901784	18	C	01/01/2016	10:47	-131.087	45.601	0	1575.50	0	2.3680	0	34.5160	0	27.563	0	1556.743	0	32.8	4	10.0	4	-1E+10	1	-1E+10	1	-1E+10	1	-1E+10	1	-1E+10	1	-1E+10	1
4901784	18	C	01/01/2016	10:47	-131.087	45.601	0	1580.00	0	2.3560	0	34.5180	0	27.565	0	1561.173	0	33.3	4	10.1	4	-1E+10	1	-1E+10	1	-1E+10	1	-1E+10	1	-1E+10	1	-1E+10	1
4901784	18	C	01/01/2016	10:47	-131.087	45.601	0	1584.60	0	2.3470	0	34.5190	0	27.567	0	1565.701	0	33.6	4	10.2	4	-1E+10	1	-1E+10	1	-1E+10	1	-1E+10	1	-1E+10	1	-1E+10	1
4901784	18	C	01/01/2016	10:47	-131.087	45.601	0	1590.10	0	2.3380	0	34.5200	0	27.569	0	1571.115	0	34.0	4	10.3	4	-1E+10	1	-1E+10	1	-1E+10	1	-1E+10	1	-1E+10	1	-1E+10	1
4901784	18	C	01/01/2016	10:47	-131.087	45.601	0	1594.80	0	2.3250	0	34.5210	0	27.570	0	1575.742	0	34.3	4	10.4	4	-1E+10	1	-1E+10	1	-1E+10	1	-1E+10	1	-1E+10	1	-1E+10	1
4901784	18	C	01/01/2016	10:47	-131.087	45.601	0	1599.40	0	2.3220	0	34.5220	0	27.572	0	1580.269	0	34.6	4	10.5	4	-1E+10	1	-1E+10	1	-1E+10	1	-1E+10	1	-1E+10	1	-1E+10	1
4901784	18	C	01/01/2016	10:47	-131.087	45.601	0	1605.00	0	2.3130	0	34.5230	0	27.573	0	1585.781	0	35.1	4	10.7	4	-1E+10	1	-1E+10	1	-1E+10	1	-1E+10	1	-1E+10	1	-1E+10	1
4901784	18	C	01/01/2016	10:47	-131.087	45.601	0	1610.50	0	2.3040	0	34.5250	0	27.575	0	1591.195	0	35.5	4	10.8	4	-1E+10	1	-1E+10	1	-1E+10	1	-1E+10	1	-1E+10	1	-1E+10	1
4901784	18	C	01/01/2016	10:47	-131.087	45.601	0	1615.20	0	2.2980	0	34.5260	0	27.577	0	1595.821	0	35.6	4	10.8	4	-1E+10	1	-1E+10	1	-1E+10	1	-1E+10	1	-1E+10	1	-1E+10	1
4901784	18	C	01/01/2016	10:47	-131.087	45.601	0	1619.80	0	2.2960	0	34.5260	0	27.577	0	1600.348	0	35.8	4	10.9	4	-1E+10	1	-1E+10	1	-1E+10	1	-1E+10	1	-1E+10	1	-1E+10	1
4901784	18	C	01/01/2016	10:47	-131.087	45.601	0	1625.40	0	2.2930	0	34.5270	0	27.578	0	1605.860	0	36.0	4	10.9	4	-1E+10	1	-1E+10	1	-1E+10	1	-1E+10	1	-1E+10	1	-1E+10	1
4901784	18	C	01/01/2016	10:47	-131.087	45.601	0	1629.50	0	2.2910	0	34.5270	0	27.578	0	1609.895	0	36.2	4	11.0	4	-1E+10	1	-1E+10	1	-1E+10	1	-1E+10	1	-1E+10	1	-1E+10	1
4901784	18	C	01/01/2016	10:47	-131.087	45.601	0	1634.50	0	2.2830	0	34.5280	0	27.580	0	1614.816	0	36.5	4	11.1	4	-1E+10	1	-1E+10	1	-1E+10	1	-1E+10	1	-1E+10	1	-1E+10	1
4901784	18	C	01/01/2016	10:47	-131.087	45.601	0	1639.30	0	2.2780	0	34.5290	0	27.581	0	1619.540	0	36.7	4	11.1	4	-1E+10	1	-1E+10	1	-1E+10	1	-1E+10	1	-1E+10	1	-1E+10	1
4901784	18	C	01/01/2016	10:47	-131.087	45.601	0	1644.30	0	2.2760	0	34.5290	0	27.581	0	1624.460	0	36.8	4	11.2	4	-1E+10	1	-1E+10	1	-1E+10	1	-1E+10	1	-1E+10	1	-1E+10	1
4901784	18	C	01/01/2016	10:47	-131.087	45.601	0	1650.00	0	2.2750	0	34.5290	0	27.581	0	1630.070	0	37.0	4	11.2	4	-1E+10	1	-1E+10	1	-1E+10	1	-1E+10	1	-1E+10	1	-1E+10	1
4901784	18	C	01/01/2016	10:47	-131.087	45.601	0	1655.80	0	2.2660	0	34.5310	0	27.584	0	1635.777	0	37.5	4	11.4	4	-1E+10	1	-1E+10	1	-1E+10	1	-1E+10	1	-1E+10	1	-1E+10	1
4901784	18	C	01/01/2016	10:47	-131.087	45.601	0	1660.80	0	2.2570	0	34.5320	0	27.585	0	1640.697	0	37.8	4	11.5	4	-1E+10	1	-1E+10	1	-1E+10	1	-1E+10	1	-1E+10	1	-1E+10	1
4901784	18	C	01/01/2016	10:47	-131.087	45.601	0	1665.00	0	2.2550	0	34.5320	0	27.585	0	1644.830	0	37.9	4	11.5	4	-1E+10	1	-1E+10	1	-1E+10	1	-1E+10	1	-1E+10	1	-1E+10	1
4901784	18	C	01/01/2016	10:47	-131.087	45.601	0	1669.20	0	2.2520	0	34.5320	0	27.586	0	1648.963	0	38.2	4	11.6	4	-1E+10	1	-1E+10	1	-1E+10	1	-1E+10	1	-1E+10	1	-1E+10	1
4901784	18	C	01/01/2016	10:47	-131.087	45.601	0	1674.40	0	2.2430	0	34.5340	0	27.588	0	1654.080	0	38.6	4	11.7	4	-1E+10	1	-1E+10	1	-1E+10	1	-1E+10	1	-1E+10	1	-1E+10	1
4901784	18	C	01/01/2016	10:47	-131.087	45.601	0	1679.50	0	2.2380	0	34.5340	0	27.588	0	1659.098	0	38.8	4	11.8	4	-1E+10	1	-1E+10	1	-1E+10	1	-1E+10	1	-1E+10	1	-1E+10	1
4901784	18	C	01/01/2016	10:47	-131.087	45.601	0	1684.70	0	2.2300	0	34.5350	0	27.590	0	1664.214	0	39.2	4	11.9	4	-1E+10	1	-1E+10	1	-1E+10	1	-1E+10	1	-1E+10	1	-1E+10	1
4901784	18	C	01/01/2016	10:47	-131.087	45.601	0	1690.00	0	2.2230	0	34.5370	0	27.592	0	1669.429	0	39.6	4	12.0	4	-1E+10	1	-1E+10	1	-1E+10	1	-1E+10	1	-1E+10	1	-1E+10	1
4901784	18	C	01/01/2016	10:47	-131.087	45.601	0	1695.30	0	2.2190	0	34.5370	0	27.592	0	1674.644	0	40.0	4	12.1	4	-1E+10	1	-1E+10	1	-1E+10	1	-1E+10	1	-1E+10	1	-1E+10	1
4901784	18	C	01/01/2016	10:47	-131.087	45.601	0	1700.70	0	2.2130	0	34.5390	0	27.595	0	1679.956	0	40.2	4	12.2	4	-1E+10	1	-1E+10	1	-1E+10	1	-1E+10	1	-1E+10	1	-1E+10	1
4901784	18	C	01/01/2016	10:47	-131.087	45.601	0	1705.10	0	2.2100	0	34.5390	0	27.595	0	1684.285	0	40.3	4	12.2	4	-1E+10	1	-1E+10	1	-1E+10	1	-1E+10	1	-1E+10	1	-1E+10	1
4901784	18	C	01/01/2016	10:47	-131.087	45.601	0	1709.60	0	2.2080	0	34.5390	0	27.595	0	1688.712	0	40.6	4	12.3	4	-1E+10	1	-1E+10	1	-1E+10	1	-1E+10	1	-1E+10	1	-1E+10	1
4901784	18	C	01/01/2016	10:47	-131.087	45.601	0	1715.00	0	2.2040	0	34.5400	0	27.596	0	1694.025	0	40.9	4	12.4	4	-1E+10	1	-1E+10	1	-1E+10	1	-1E+10	1	-1E+10	1	-1E+10	1
4901784	18	C	01/01/2016	10:47	-131.087	45.601	0	1720.40	0	2.1980	0	34.5410	0	27.597	0	1699.337	0	41.2	4	12.5	4	-1E+10	1	-1E+10	1	-1E+10	1	-1E+10	1	-1E+10	1	-1E+10	1
4901784	18	C	01/01/2016	10:47	-131.087	45.601	0	1724.90	0	2.1960	0	34.5410	0	27.598	0	1703.764	0	41.5	4	12.6	4	-1E+10	1	-1E+10	1	-1E+10	1	-1E+10	1	-1E+10	1	-1E+10	1
4901784	18	C	01/01/2016	10:47	-131.087	45.601	0	1729.50	0	2.1900	0	34.5420	0	27.599	0	1708.289	0	41.8	4	12.7	4	-1E+10	1	-1E+10	1	-1E+10	1	-1E+10	1	-1E+10	1	-1E+10	1
4901784	18	C	01/01/2016	10:47	-131.087	45.601	0	1735.00	0	2.1830	0	34.5440	0	27.601	0	1713.699	0	42.2	4	12.8	4	-1E+10	1	-1E+10	1	-1E+10	1	-1E+10	1	-1E+10	1	-1E+10	1
4901784	18	C	01/01/2016	10:47	-131.087	45.601	0	1740.50	0	2.1790	0	34.5440	0	27.601	0	1719.110	0	42.5	4	12.9	4	-1E+10	1	-1E+10	1	-1E+10	1	-1E+10	1	-1E+10	1	-1E+10	1
4901784	18	C	01/01/2016	10:47	-131.087	45.601	0	1745.10	0	2.1730	0	34.5450	0	27.603	0	1723.634	0	42.8	4	13.0	4	-1E+10	1	-1E+10	1	-1E+10	1	-1E+10	1	-1E+10	1	-1E+10	1
4901784	18	C	01/01/2016	10:47	-131.087	45.601	0	1749.70	0	2.1680	0	34.5460	0	27.604	0	1728.159	0	43.1	4	13.0	4	-1E+10	1	-1E+10	1	-1E+10	1	-1E+10	1	-1E+10	1	-1E+10	1
4901784	18	C	01/01/2016	10:47	-131.087	45.601	0	1755.10	0	2.1620	0	34.5470	0	27.605	0	1733.471	0	43.4	4	13.1	4	-1E+10	1	-1E+10	1	-1E+10	1	-1E+10	1	-1E+10	1	-1E+10	1
4901784	18	C	01/01/2016	10:47	-131.087	45.601	0	1760.60	0	2.1570	0	34.5480	0	27.607	0	1738.880	0	43.7	4	13.2	4	-1E+10	1	-1E+10	1	-1E+10	1	-1E+10	1	-1E+10	1	-1E+10	1
4901784	18	C	01/01/2016	10:47	-131.087	45.601	0	1765.50	0	2.1530	0	34.5480	0	27.607	0	1743.700	0	43.9	4	13.3	4	-1E+10	1	-1E+10	1	-1E+10	1	-1E+10	1	-1E+10	1	-1E+10	1
4901784	18	C	01/01/2016	10:47	-131.087	45.601	0	1770.40	0	2.1500	0	34.5490	0	27.608	0	1748.519	0	44.0	4	13.3	4	-1E+10	1	-1E+10	1	-1E+10	1	-1E+10	1	-1E+10	1	-1E+10	1
4901784	18	C	01/01/2016	10:47	-131.087	45.601	0	1775.40	0	2.1470	0	34.5490	0	27.608	0	1753.437	0	44.2	4	13.4	4	-1E+10	1	-1E+10	1	-1E+10	1	-1E+10	1	-1E+10	1	-1E+10	1
4901784	18	C	01/01/2016	10:47	-131.087	45.601	0	1780.40	0	2.1460	0	34.5490	0	27.608	0	1758.354	0	44.3	4	13.4	4	-1E+10	1	-1E+10	1	-1E+10	1	-1E+10	1	-1E+10	1	-1E+10	1
4901784	18	C	01/01/2016	10:47	-131.087	45.601	0	1785.40	0	2.1420	0	34.5500	0	27.609	0	1763.272	0	44.7	4	13.5	4	-1E+10	1	-1E+10	1	-1E+10	1	-1E+10	1	-1E+10	1	-1E+10	1
4901784	18	C	01/01/2016	10:47	-131.087	45.601	0	1790.40	0	2.1320	0	34.5510	0	27.611	0	1768.189	0	45.1	4	13.6	4	-1E+10	1	-1E+10	1	-1E+10	1	-1E+10	1	-1E+10	1	-1E+10	1
4901784	18	C	01/01/2016	10:47	-131.087	45.601	0	1795.40	0	2.1290	0	34.5520	0	27.612	0	1773.106	0	45.3	4	13.7	4	-1E+10	1	-1E+10	1	-1E+10	1	-1E+10	1	-1E+10	1	-1E+10	1
4901784	18	C	01/01/2016	10:47	-131.087	45.601	0	1800.50	0	2.1270	0	34.5520	0	27.612	0	1778.121	0	45.5	4	13.8	4	-1E+10	1	-1E+10	1	-1E+10	1	-1E+10	1	-1E+10	1	-1E+10	1
4901784	18	C	01/01/2016	10:47	-131.087	45.601	0	1805.60	0	2.1230	0	34.5530	0	27.613	0	1783.136	0	45.7	4	13.8	4	-1E+10	1	-1E+10	1	-1E+10	1	-1E+10	1	-1E+10	1	-1E+10	1
4901784	18	C	01/01/2016	10:47	-131.087	45.601	0	1810.70	0	2.1210	0	34.5530	0	27.614	0	1788.151	0	45.9	4	13.9	4	-1E+10	1	-1E+10	1	-1E+10	1	-1E+10	1	-1E+10	1	-1E+10	1
4901784	18	C	01/01/2016	10:47	-131.087	45.601	0	1815.00	0	2.1200	0	34.5530	0	27.614	0	1792.380	0	46.1	4	13.9	4	-1E+10	1	-1E+10	1	-1E+10	1	-1E+10	1	-1E+10	1	-1E+10	1
4901784	18	C	01/01/2016	10:47	-131.087	45.601	0	1819.40	0	2.1130	0	34.5540	0	27.615	0	1796.706	0	46.5	4	14.1	4	-1E+10	1	-1E+10	1	-1E+10	1	-1E+10	1	-1E+10	1	-1E+10	1
4901784	18	C	01/01/2016	10:47	-131.087	45.601	0	1824.70	0	2.1070	0	34.5550	0	27.616	0	1801.918	0	46.7	4	14.1	4	-1E+10	1	-1E+10	1	-1E+10	1	-1E+10	1	-1E+10	1	-1E+10	1
4901784	18	C	01/01/2016	10:47	-131.087	45.601	0	1830.10	0	2.1050	0	34.5560	0	27.617	0	1807.227	0	46.9	4	14.2	4	-1E+10	1	-1E+10	1	-1E+10	1	-1E+10	1	-1E+10	1	-1E+10	1
4901784	18	C	01/01/2016	10:47	-131.087	45.601	0	1835.40	0	2.1020	0	34.5560	0	27.618	0	1812.439	0	47.1	4	14.2	4	-1E+10	1	-1E+10	1	-1E+10	1	-1E+10	1	-1E+10	1	-1E+10	1
4901784	18	C	01/01/2016	10:47	-131.087	45.601	0	1840.70	0	2.1000	0	34.5560	0	27.618	0	1817.650	0	47.3	4	14.3	4	-1E+10	1	-1E+10	1	-1E+10	1	-1E+10	1	-1E+10	1	-1E+10	1
4901784	18	C	01/01/2016	10:47	-131.087	45.601	0	1845.20	0	2.0960	0	34.5570	0	27.619	0	1822.074	0	47.5	4	14.4	4	-1E+10	1	-1E+10	1	-1E+10	1	-1E+10	1	-1E+10	1	-1E+10	1
4901784	18	C	01/01/2016	10:47	-131.087	45.601	0	1849.80	0	2.0900	0	34.5580	0	27.620	0	1826.597	0	47.7	4	14.4	4	-1E+10	1	-1E+10	1	-1E+10	1	-1E+10	1	-1E+10	1	-1E+10	1
4901784	18	C	01/01/2016	10:47	-131.087	45.601	0	1855.20	0	2.0860	0	34.5580	0	27.621	0	1831.906	0	47.9	4	14.5	4	-1E+10	1	-1E+10	1	-1E+10	1	-1E+10	1	-1E+10	1	-1E+10	1
4901784	18	C	01/01/2016	10:47	-131.087	45.601	0	1860.60	0	2.0810	0	34.5580	0	27.621	0	1837.215	0	48.1	4	14.5	4	-1E+10	1	-1E+10	1	-1E+10	1	-1E+10	1	-1E+10	1	-1E+10	1
4901784	18	C	01/01/2016	10:47	-131.087	45.601	0	1865.10	0	2.0720	0	34.5590	0	27.623	0	1841.639	0	48.5	4	14.6	4	-1E+10	1	-1E+10	1	-1E+10	1	-1E+10	1	-1E+10	1	-1E+10	1
4901784	18	C	01/01/2016	10:47	-131.087	45.601	0	1869.60	0	2.0710	0	34.5600	0	27.624	0	1846.062	0	48.8	4	14.7	4	-1E+10	1	-1E+10	1	-1E+10	1	-1E+10	1	-1E+10	1	-1E+10	1
4901784	18	C	01/01/2016	10:47	-131.087	45.601	0	1875.00	0	2.0670	0	34.5610	0	27.625	0	1851.371	0	49.1	4	14.8	4	-1E+10	1	-1E+10	1	-1E+10	1	-1E+10	1	-1E+10	1	-1E+10	1
4901784	18	C	01/01/2016	10:47	-131.087	45.601	0	1880.30	0	2.0600	0	34.5610	0	27.625	0	1856.581	0	49.5	4	14.9	4	-1E+10	1	-1E+10	1	-1E+10	1	-1E+10	1	-1E+10	1	-1E+10	1
4901784	18	C	01/01/2016	10:47	-131.087	45.601	0	1885.70	0	2.0540	0	34.5620	0	27.627	0	1861.889	0	49.8	4	15.0	4	-1E+10	1	-1E+10	1	-1E+10	1	-1E+10	1	-1E+10	1	-1E+10	1
4901784	18	C	01/01/2016	10:47	-131.087	45.601	0	1890.40	0	2.0520	0	34.5630	0	27.628	0	1866.509	0	50.1	4	15.1	4	-1E+10	1	-1E+10	1	-1E+10	1	-1E+10	1	-1E+10	1	-1E+10	1
4901784	18	C	01/01/2016	10:47	-131.087	45.601	0	1895.30	0	2.0500	0	34.5640	0	27.629	0	1871.326	0	50.2	4	15.2	4	-1E+10	1	-1E+10	1	-1E+10	1	-1E+10	1	-1E+10	1	-1E+10	1
4901784	18	C	01/01/2016	10:47	-131.087	45.601	0	1900.20	0	2.0490	0	34.5640	0	27.629	0	1876.142	0	50.3	4	15.2	4	-1E+10	1	-1E+10	1	-1E+10	1	-1E+10	1	-1E+10	1	-1E+10	1
4901784	18	C	01/01/2016	10:47	-131.087	45.601	0	1905.20	0	2.0420	0	34.5640	0	27.629	0	1881.057	0	50.5	4	15.2	4	-1E+10	1	-1E+10	1	-1E+10	1	-1E+10	1	-1E+10	1	-1E+10	1
4901784	18	C	01/01/2016	10:47	-131.087	45.601	0	1910.20	0	2.0400	0	34.5650	0	27.630	0	1885.971	0	50.6	4	15.3	4	-1E+10	1	-1E+10	1	-1E+10	1	-1E+10	1	-1E+10	1	-1E+10	1
4901784	18	C	01/01/2016	10:47	-131.087	45.601	0	1915.30	0	2.0380	0	34.5650	0	27.630	0	1890.984	0	50.8	4	15.3	4	-1E+10	1	-1E+10	1	-1E+10	1	-1E+10	1	-1E+10	1	-1E+10	1
4901784	18	C	01/01/2016	10:47	-131.087	45.601	0	1920.40	0	2.0320	0	34.5650	0	27.631	0	1895.997	0	51.2	4	15.4	4	-1E+10	1	-1E+10	1	-1E+10	1	-1E+10	1	-1E+10	1	-1E+10	1
4901784	18	C	01/01/2016	10:47	-131.087	45.601	0	1925.50	0	2.0280	0	34.5660	0	27.632	0	1901.009	0	51.5	4	15.5	4	-1E+10	1	-1E+10	1	-1E+10	1	-1E+10	1	-1E+10	1	-1E+10	1
4901784	18	C	01/01/2016	10:47	-131.087	45.601	0	1930.60	0	2.0250	0	34.5670	0	27.633	0	1906.021	0	51.8	4	15.6	4	-1E+10	1	-1E+10	1	-1E+10	1	-1E+10	1	-1E+10	1	-1E+10	1
4901784	18	C	01/01/2016	10:47	-131.087	45.601	0	1934.90	0	2.0230	0	34.5680	0	27.634	0	1910.247	0	52.0	4	15.7	4	-1E+10	1	-1E+10	1	-1E+10	1	-1E+10	1	-1E+10	1	-1E+10	1
4901784	18	C	01/01/2016	10:47	-131.087	45.601	0	1939.20	0	2.0210	0	34.5680	0	27.634	0	1914.473	0	52.2	4	15.7	4	-1E+10	1	-1E+10	1	-1E+10	1	-1E+10	1	-1E+10	1	-1E+10	1
4901784	18	C	01/01/2016	10:47	-131.087	45.601	0	1944.40	0	2.0160	0	34.5690	0	27.635	0	1919.584	0	52.3	4	15.8	4	-1E+10	1	-1E+10	1	-1E+10	1	-1E+10	1	-1E+10	1	-1E+10	1
4901784	18	C	01/01/2016	10:47	-131.087	45.601	0	1949.60	0	2.0110	0	34.5690	0	27.636	0	1924.694	0	52.4	4	15.8	4	-1E+10	1	-1E+10	1	-1E+10	1	-1E+10	1	-1E+10	1	-1E+10	1
4901784	18	C	01/01/2016	10:47	-131.087	45.601	0	1954.70	0	2.0080	0	34.5690	0	27.636	0	1929.705	0	52.8	4	15.9	4	-1E+10	1	-1E+10	1	-1E+10	1	-1E+10	1	-1E+10	1	-1E+10	1
4901784	18	C	01/01/2016	10:47	-131.087	45.601	0	1960.00	0	2.0030	0	34.5700	0	27.637	0	1934.914	0	53.1	4	16.0	4	-1E+10	1	-1E+10	1	-1E+10	1	-1E+10	1	-1E+10	1	-1E+10	1
4901784	18	C	01/01/2016	10:47	-131.087	45.601	0	1965.20	0	2.0030	0	34.5710	0	27.638	0	1940.023	0	53.3	4	16.1	4	-1E+10	1	-1E+10	1	-1E+10	1	-1E+10	1	-1E+10	1	-1E+10	1
4901784	18	C	01/01/2016	10:47	-131.087	45.601	0	1970.40	0	2.0020	0	34.5710	0	27.638	0	1945.133	0	53.6	4	16.2	4	-1E+10	1	-1E+10	1	-1E+10	1	-1E+10	1	-1E+10	1	-1E+10	1
4901784	18	C	01/01/2016	10:47	-131.087	45.601	0	1975.70	0	1.9980	0	34.5720	0	27.639	0	1950.341	0	53.9	4	16.2	4	-1E+10	1	-1E+10	1	-1E+10	1	-1E+10	1	-1E+10	1	-1E+10	1
4901784	18	C	01/01/2016	10:47	-131.087	45.601	0	1980.00	0	1.9970	0	34.5720	0	27.640	0	1954.566	0	53.9	4	16.3	4	-1E+10	1	-1E+10	1	-1E+10	1	-1E+10	1	-1E+10	1	-1E+10	1
4901784	18	C	01/01/2016	10:47	-131.087	45.601	0	1984.40	0	1.9950	0	34.5730	0	27.641	0	1958.889	0	54.0	4	16.3	4	-1E+10	1	-1E+10	1	-1E+10	1	-1E+10	1	-1E+10	1	-1E+10	1
4901784	18	C	01/01/2016	10:47	-131.087	45.601	0	1989.60	0	1.9940	0	34.5730	0	27.641	0	1963.998	0	54.1	4	16.3	4	-1E+10	1	-1E+10	1	-1E+10	1	-1E+10	1	-1E+10	1	-1E+10	1
4901784	18	C	01/01/2016	10:47	-131.087	45.601	0	1994.90	0	1.9910	0	34.5730	0	27.641	0	1969.206	0	54.2	4	16.3	4	-1E+10	1	-1E+10	1	-1E+10	1	-1E+10	1	-1E+10	1	-1E+10	1
4901784	18	C	01/01/2016	10:47	-131.087	45.601	0	2000.20	0	1.9910	0	34.5730	0	27.641	0	1974.413	0	54.2	4	16.3	4	-1E+10	1	-1E+10	1	-1E+10	1	-1E+10	1	-1E+10	1	-1E+10	1
4901784	18	C	01/01/2016	10:47	-131.087	45.601	0	2004.90	0	1.9910	0	34.5730	0	27.641	0	1979.031	0	54.3	4	16.4	4	-1E+10	1	-1E+10	1	-1E+10	1	-1E+10	1	-1E+10	1	-1E+10	1
4901784	18	C	01/01/2016	10:47	-131.087	45.601	0	2010.80	0	1.9900	0	34.5740	0	27.642	0	1984.827	0	54.4	4	16.4	4	-1E+10	1	-1E+10	1	-1E+10	1	-1E+10	1	-1E+10	1	-1E+10	1
4901784	18	C	01/01/2016	10:47	-131.087	45.601	0	2015.50	0	1.9890	0	34.5740	0	27.642	0	1989.444	0	54.5	4	16.4	4	-1E+10	1	-1E+10	1	-1E+10	1	-1E+10	1	-1E+10	1	-1E+10	1
4901784	18	C	01/01/2016	10:47	-131.087	45.601	0	2020.20	0	1.9870	0	34.5740	0	27.642	0	1994.062	0	54.5	4	16.4	4	-1E+10	1	-1E+10	1	-1E+10	1	-1E+10	1	-1E+10	1	-1E+10	1
4901784	18	C	01/01/2016	10:47	-131.087	45.601	0																										
4901784	19	C	01/11/2016	10:41	-131.289	45.447	0	2.00	0	10.9550	0	32.6780	0	24.976	0	1.984	0	259.4	4	94.8	4	-1E+10	1	-1E+10	1	-1E+10	1	-1E+10	1	-1E+10	1	-1E+10	1
4901784	19	C	01/11/2016	10:41	-131.289	45.447	0	3.20	0	10.9560	0	32.6780	0	24.976	0	3.174	0	259.3	4	94.8	4	-1E+10	1	-1E+10	1	-1E+10	1	-1E+10	1	-1E+10	1	-1E+10	1
4901784	19	C	01/11/2016	10:41	-131.289	45.447	0	4.50	0	10.9560	0	32.6780	0	24.976	0	4.463	0	259.4	4	94.8	4	-1E+10	1	-1E+10	1	-1E+10	1	-1E+10	1	-1E+10	1	-1E+10	1
4901784	19	C	01/11/2016	10:41	-131.289	45.447	0	6.20	0	10.9550	0	32.6780	0	24.976	0	6.149	0	259.3	4	94.8	4	-1E+10	1	-1E+10	1	-1E+10	1	-1E+10	1	-1E+10	1	-1E+10	1
4901784	19	C	01/11/2016	10:41	-131.289	45.447	0	7.50	0	10.9550	0	32.6780	0	24.976	0	7.439	0	259.4	4	94.8	4	-1E+10	1	-1E+10	1	-1E+10	1	-1E+10	1	-1E+10	1	-1E+10	1
4901784	19	C	01/11/2016	10:41	-131.289	45.447	0	8.80	0	10.9520	0	32.6770	0	24.976	0	8.728	0	259.4	4	94.8	4	-1E+10	1	-1E+10	1	-1E+10	1	-1E+10	1	-1E+10	1	-1E+10	1
4901784	19	C	01/11/2016	10:41	-131.289	45.447	0	10.10	0	10.9520	0	32.6780	0	24.977	0	10.017	0	259.3	4	94.8	4	-1E+10	1	-1E+10	1	-1E+10	1	-1E+10	1	-1E+10	1	-1E+10	1
4901784	19	C	01/11/2016	10:41	-131.289	45.447	0	11.60	0	10.9520	0	32.6770	0	24.976	0	11.505	0	259.3	4	94.8	4	-1E+10	1	-1E+10	1	-1E+10	1	-1E+10	1	-1E+10	1	-1E+10	1
4901784	19	C	01/11/2016	10:41	-131.289	45.447	0	13.10	0	10.9520	0	32.6770	0	24.976	0	12.993	0	259.3	4	94.8	4	-1E+10	1	-1E+10	1	-1E+10	1	-1E+10	1	-1E+10	1	-1E+10	1
4901784	19	C	01/11/2016	10:41	-131.289	45.447	0	14.50	0	10.9520	0	32.6770	0	24.976	0	14.381	0	259.4	4	94.8	4	-1E+10	1	-1E+10	1	-1E+10	1	-1E+10	1	-1E+10	1	-1E+10	1
4901784	19	C	01/11/2016	10:41	-131.289	45.447	0	16.00	0	10.9530	0	32.6770	0	24.976	0	15.869	0	259.2	4	94.8	4	-1E+10	1	-1E+10	1	-1E+10	1	-1E+10	1	-1E+10	1	-1E+10	1
4901784	19	C	01/11/2016	10:41	-131.289	45.447	0	17.50	0	10.9520	0	32.6770	0	24.976	0	17.356	0	259.3	4	94.8	4	-1E+10	1	-1E+10	1	-1E+10	1	-1E+10	1	-1E+10	1	-1E+10	1
4901784	19	C	01/11/2016	10:41	-131.289	45.447	0	18.90	0	10.9520	0	32.6770	0	24.976	0	18.745	0	259.1	4	94.7	4	-1E+10	1	-1E+10	1	-1E+10	1	-1E+10	1	-1E+10	1	-1E+10	1
4901784	19	C	01/11/2016	10:41	-131.289	45.447	0	20.60	0	10.9530	0	32.6770	0	24.976	0	20.431	0	259.1	4	94.7	4	-1E+10	1	-1E+10	1	-1E+10	1	-1E+10	1	-1E+10	1	-1E+10	1
4901784	19	C	01/11/2016	10:41	-131.289	45.447	0	22.40	0	10.9550	0	32.6770	0	24.976	0	22.216	0	259.2	4	94.8	4	-1E+10	1	-1E+10	1	-1E+10	1	-1E+10	1	-1E+10	1	-1E+10	1
4901784	19	C	01/11/2016	10:41	-131.289	45.447	0	24.20	0	10.9560	0	32.6770	0	24.976	0	24.001	0	259.1	4	94.7	4	-1E+10	1	-1E+10	1	-1E+10	1	-1E+10	1	-1E+10	1	-1E+10	1
4901784	19	C	01/11/2016	10:41	-131.289	45.447	0	25.90	0	10.9560	0	32.6770	0	24.976	0	25.687	0	259.1	4	94.7	4	-1E+10	1	-1E+10	1	-1E+10	1	-1E+10	1	-1E+10	1	-1E+10	1
4901784	19	C	01/11/2016	10:41	-131.289	45.447	0	27.60	0	10.9590	0	32.6770	0	24.975	0	27.373	0	259.0	4	94.7	4	-1E+10	1	-1E+10	1	-1E+10	1	-1E+10	1	-1E+10	1	-1E+10	1
4901784	19	C	01/11/2016	10:41	-131.289	45.447	0	29.30	0	10.9580	0	32.6770	0	24.975	0	29.059	0	258.9	4	94.6	4	-1E+10	1	-1E+10	1	-1E+10	1	-1E+10	1	-1E+10	1	-1E+10	1
4901784	19	C	01/11/2016	10:41	-131.289	45.447	0	31.10	0	10.9610	0	32.6780	0	24.976	0	30.844	0	259.1	4	94.7	4	-1E+10	1	-1E+10	1	-1E+10	1	-1E+10	1	-1E+10	1	-1E+10	1
4901784	19	C	01/11/2016	10:41	-131.289	45.447	0	33.00	0	10.9610	0	32.6780	0	24.976	0	32.728	0	259.2	4	94.8	4	-1E+10	1	-1E+10	1	-1E+10	1	-1E+10	1	-1E+10	1	-1E+10	1
4901784	19	C	01/11/2016	10:41	-131.289	45.447	0	35.00	0	10.9640	0	32.6780	0	24.975	0	34.712	0	259.1	4	94.7	4	-1E+10	1	-1E+10	1	-1E+10	1	-1E+10	1	-1E+10	1	-1E+10	1
4901784	19	C	01/11/2016	10:41	-131.289	45.447	0	36.90	0	10.9590	0	32.6780	0	24.976	0	36.596	0	259.0	4	94.7	4	-1E+10	1	-1E+10	1	-1E+10	1	-1E+10	1	-1E+10	1	-1E+10	1
4901784	19	C	01/11/2016	10:41	-131.289	45.447	0	38.70	0	10.9660	0	32.6780	0	24.975	0	38.381	0	258.9	4	94.6	4	-1E+10	1	-1E+10	1	-1E+10	1	-1E+10	1	-1E+10	1	-1E+10	1
4901784	19	C	01/11/2016	10:41	-131.289	45.447	0	40.60	0	10.9630	0	32.6780	0	24.976	0	40.265	0	259.0	4	94.7	4	-1E+10	1	-1E+10	1	-1E+10	1	-1E+10	1	-1E+10	1	-1E+10	1
4901784	19	C	01/11/2016	10:41	-131.289	45.447	0	42.20	0	10.9640	0	32.6780	0	24.975	0	41.851	0	258.9	4	94.7	4	-1E+10	1	-1E+10	1	-1E+10	1	-1E+10	1	-1E+10	1	-1E+10	1
4901784	19	C	01/11/2016	10:41	-131.289	45.447	0	44.00	0	10.9630	0	32.6780	0	24.976	0	43.636	0	258.8	4	94.6	4	-1E+10	1	-1E+10	1	-1E+10	1	-1E+10	1	-1E+10	1	-1E+10	1
4901784	19	C	01/11/2016	10:41	-131.289	45.447	0	45.80	0	10.9650	0	32.6780	0	24.975	0	45.421	0	258.8	4	94.6	4	-1E+10	1	-1E+10	1	-1E+10	1	-1E+10	1	-1E+10	1	-1E+10	1
4901784	19	C	01/11/2016	10:41	-131.289	45.447	0	47.60	0	10.9650	0	32.6780	0	24.975	0	47.206	0	258.6	4	94.5	4	-1E+10	1	-1E+10	1	-1E+10	1	-1E+10	1	-1E+10	1	-1E+10	1
4901784	19	C	01/11/2016	10:41	-131.289	45.447	0	49.60	0	10.9690	0	32.6790	0	24.976	0	49.189	0	258.7	4	94.6	4	-1E+10	1	-1E+10	1	-1E+10	1	-1E+10	1	-1E+10	1	-1E+10	1
4901784	19	C	01/11/2016	10:41	-131.289	45.447	0	51.50	0	10.9690	0	32.6790	0	24.976	0	51.073	0	258.6	4	94.6	4	-1E+10	1	-1E+10	1	-1E+10	1	-1E+10	1	-1E+10	1	-1E+10	1
4901784	19	C	01/11/2016	10:41	-131.289	45.447	0	53.50	0	10.9710	0	32.6790	0	24.975	0	53.057	0	258.8	4	94.6	4	-1E+10	1	-1E+10	1	-1E+10	1	-1E+10	1	-1E+10	1	-1E+10	1
4901784	19	C	01/11/2016	10:41	-131.289	45.447	0	55.50	0	10.9710	0	32.6790	0	24.975	0	55.040	0	258.5	4	94.5	4	-1E+10	1	-1E+10	1	-1E+10	1	-1E+10	1	-1E+10	1	-1E+10	1
4901784	19	C	01/11/2016	10:41	-131.289	45.447	0	57.30	0	10.9710	0	32.6790	0	24.975	0	56.825	0	258.5	4	94.5	4	-1E+10	1	-1E+10	1	-1E+10	1	-1E+10	1	-1E+10	1	-1E+10	1
4901784	19	C	01/11/2016	10:41	-131.289	45.447	0	59.20	0	10.9710	0	32.6790	0	24.975	0	58.709	0	258.4	4	94.5	4	-1E+10	1	-1E+10	1	-1E+10	1	-1E+10	1	-1E+10	1	-1E+10	1
4901784	19	C	01/11/2016	10:41	-131.289	45.447	0	61.10	0	10.9710	0	32.6790	0	24.975	0	60.593	0	258.3	4	94.5	4	-1E+10	1	-1E+10	1	-1E+10	1	-1E+10	1	-1E+10	1	-1E+10	1
4901784	19	C	01/11/2016	10:41	-131.289	45.447	0	63.00	0	10.9720	0	32.6790	0	24.975	0	62.476	0	258.4	4	94.5	4	-1E+10	1	-1E+10	1	-1E+10	1	-1E+10	1	-1E+10	1	-1E+10	1
4901784	19	C	01/11/2016	10:41	-131.289	45.447	0	64.80	0	10.9720	0	32.6790	0	24.975	0	64.261	0	258.3	4	94.5	4	-1E+10	1	-1E+10	1	-1E+10	1	-1E+10	1	-1E+10	1	-1E+10	1
4901784	19	C	01/11/2016	10:41	-131.289	45.447	0	66.60	0	10.9720	0	32.6790	0	24.975	0	66.046	0	258.3	4	94.5	4	-1E+10	1	-1E+10	1	-1E+10	1	-1E+10	1	-1E+10	1	-1E+10	1
4901784	19	C	01/11/2016	10:41	-131.289	45.447	0	68.20	0	10.9720	0	32.6790	0	24.975	0	67.632	0	258.1	4	94.4	4	-1E+10	1	-1E+10	1	-1E+10	1	-1E+10	1	-1E+10	1	-1E+10	1
4901784	19	C	01/11/2016	10:41	-131.289	45.447	0	69.90	0	10.9720	0	32.6790	0	24.975	0	69.318	0	257.9	4	94.3	4	-1E+10	1	-1E+10	1	-1E+10	1	-1E+10	1	-1E+10	1	-1E+10	1
4901784	19	C	01/11/2016	10:41	-131.289	45.447	0	71.60	0	10.9720	0	32.6790	0	24.975	0	71.004	0	258.0	4	94.3	4	-1E+10	1	-1E+10	1	-1E+10	1	-1E+10	1	-1E+10	1	-1E+10	1
4901784	19	C	01/11/2016	10:41	-131.289	45.447	0	73.60	0	10.9720	0	32.6800	0	24.976	0	72.987	0	257.8	4	94.3	4	-1E+10	1	-1E+10	1	-1E+10	1	-1E+10	1	-1E+10	1	-1E+10	1
4901784	19	C	01/11/2016	10:41	-131.289	45.447	0	75.50	0	10.9730	0	32.6800	0	24.976	0	74.870	0	257.8	4	94.3	4	-1E+10	1	-1E+10	1	-1E+10	1	-1E+10	1	-1E+10	1	-1E+10	1
4901784	19	C	01/11/2016	10:41	-131.289	45.447	0	77.60	0	10.9730	0	32.6800	0	24.976	0	76.952	0	257.5	4	94.2	4	-1E+10	1	-1E+10	1	-1E+10	1	-1E+10	1	-1E+10	1	-1E+10	1
4901784	19	C	01/11/2016	10:41	-131.289	45.447	0	79.60	0	10.9730	0	32.6800	0	24.976	0	78.935	0	257.6	4	94.2	4	-1E+10	1	-1E+10	1	-1E+10	1	-1E+10	1	-1E+10	1	-1E+10	1
4901784	19	C	01/11/2016	10:41	-131.289	45.447	0	81.60	0	10.9740	0	32.6790	0	24.975	0	80.918	0	257.3	4	94.1	4	-1E+10	1	-1E+10	1	-1E+10	1	-1E+10	1	-1E+10	1	-1E+10	1
4901784	19	C	01/11/2016	10:41	-131.289	45.447	0	83.50	0	10.9720	0	32.6810	0	24.977	0	82.802	0	257.1	4	94.0	4	-1E+10	1	-1E+10	1	-1E+10	1	-1E+10	1	-1E+10	1	-1E+10	1
4901784	19	C	01/11/2016	10:41	-131.289	45.447	0	85.40	0	10.9730	0	32.6800	0	24.976	0	84.686	0	256.9	4	94.0	4	-1E+10	1	-1E+10	1	-1E+10	1	-1E+10	1	-1E+10	1	-1E+10	1
4901784	19	C	01/11/2016	10:41	-131.289	45.447	0	87.30	0	10.9740	0	32.6790	0	24.975	0	86.569	0	256.3	4	93.7	4	-1E+10	1	-1E+10	1	-1E+10	1	-1E+10	1	-1E+10	1	-1E+10	1
4901784	19	C	01/11/2016	10:41	-131.289	45.447	0	89.10	0	10.9740	0	32.6790	0	24.975	0	88.354	0	255.8	4	93.6	4	-1E+10	1	-1E+10	1	-1E+10	1	-1E+10	1	-1E+10	1	-1E+10	1
4901784	19	C	01/11/2016	10:41	-131.289	45.447	0	91.00	0	10.9730	0	32.6790	0	24.976	0	90.238	0	255.3	4	93.4	4	-1E+10	1	-1E+10	1	-1E+10	1	-1E+10	1	-1E+10	1	-1E+10	1
4901784	19	C	01/11/2016	10:41	-131.289	45.447	0	92.80	0	10.9740	0	32.6780	0	24.975	0	92.022	0	254.4	4	93.0	4	-1E+10	1	-1E+10	1	-1E+10	1	-1E+10	1	-1E+10	1	-1E+10	1
4901784	19	C	01/11/2016	10:41	-131.289	45.447	0	94.80	0	10.9740	0	32.6780	0	24.975	0	94.005	0	253.3	4	92.6	4	-1E+10	1	-1E+10	1	-1E+10	1	-1E+10	1	-1E+10	1	-1E+10	1
4901784	19	C	01/11/2016	10:41	-131.289	45.447	0	96.70	0	10.9720	0	32.6770	0	24.974	0	95.889	0	251.8	4	92.1	4	-1E+10	1	-1E+10	1	-1E+10	1	-1E+10	1	-1E+10	1	-1E+10	1
4901784	19	C	01/11/2016	10:41	-131.289	45.447	0	98.50	0	10.9580	0	32.6820	0	24.981	0	97.673	0	249.5	4	91.2	4	-1E+10	1	-1E+10	1	-1E+10	1	-1E+10	1	-1E+10	1	-1E+10	1
4901784	19	C	01/11/2016	10:41	-131.289	45.447	0	100.30	0	10.9570	0	32.6800	0	24.979	0	99.458	0	247.0	4	90.3	4	-1E+10	1	-1E+10	1	-1E+10	1	-1E+10	1	-1E+10	1	-1E+10	1
4901784	19	C	01/11/2016	10:41	-131.289	45.447	0	102.50	0	10.9440	0	32.6810	0	24.983	0	101.639	0	242.2	4	88.5	4	-1E+10	1	-1E+10	1	-1E+10	1	-1E+10	1	-1E+10	1	-1E+10	1
4901784	19	C	01/11/2016	10:41	-131.289	45.447	0	104.80	0	10.9000	0	32.6870	0	24.995	0	103.919	0	232.7	4	85.0	4	-1E+10	1	-1E+10	1	-1E+10	1	-1E+10	1	-1E+10	1	-1E+10	1
4901784	19	C	01/11/2016	10:41	-131.289	45.447	0	107.70	0	10.3990	0	32.8100	0	25.177	0	106.793	0	217.9	4	78.8	4	-1E+10	1	-1E+10	1	-1E+10	1	-1E+10	1	-1E+10	1	-1E+10	1
4901784	19	C	01/11/2016	10:41	-131.289	45.447	0	110.10	0	9.5150	0	33.0070	0	25.478	0	109.173	0	212.3	4	75.4	4	-1E+10	1	-1E+10	1	-1E+10	1	-1E+10	1	-1E+10	1	-1E+10	1
4901784	19	C	01/11/2016	10:41	-131.289	45.447	0	112.60	0	9.2210	0	33.0720	0	25.576	0	111.651	0	211.5	4	74.7	4	-1E+10	1	-1E+10	1	-1E+10	1	-1E+10	1	-1E+10	1	-1E+10	1
4901784	19	C	01/11/2016	10:41	-131.289	45.447	0	115.00	0	8.9990	0	33.1390	0	25.663	0	114.030	0	209.2	4	73.5	4	-1E+10	1	-1E+10	1	-1E+10	1	-1E+10	1	-1E+10	1	-1E+10	1
4901784	19	C	01/11/2016	10:41	-131.289	45.447	0	117.20	0	8.9040	0	33.1670	0	25.700	0	116.211	0	207.5	4	72.8	4	-1E+10	1	-1E+10	1	-1E+10	1	-1E+10	1	-1E+10	1	-1E+10	1
4901784	19	C	01/11/2016	10:41	-131.289	45.447	0	120.20	0	8.7900	0	33.2110	0	25.752	0	119.185	0	205.3	4	71.9	4	-1E+10	1	-1E+10	1	-1E+10	1	-1E+10	1	-1E+10	1	-1E+10	1
4901784	19	C	01/11/2016	10:41	-131.289	45.447	0	122.50	0	8.7400	0	33.2320	0	25.777	0	121.465	0	203.2	4	71.1	4	-1E+10	1	-1E+10	1	-1E+10	1	-1E+10	1	-1E+10	1	-1E+10	1
4901784	19	C	01/11/2016	10:41	-131.289	45.447	0	124.80	0	8.6730	0	33.2780	0	25.823	0	123.744	0	201.2	4	70.3	4	-1E+10	1	-1E+10	1	-1E+10	1	-1E+10	1	-1E+10	1	-1E+10	1
4901784	19	C	01/11/2016	10:41	-131.289	45.447	0	127.80	0	8.6180	0	33.3120	0	25.858	0	126.718	0	200.4	4	70.0	4	-1E+10	1	-1E+10	1	-1E+10	1	-1E+10	1	-1E+10	1	-1E+10	1
4901784	19	C	01/11/2016	10:41	-131.289	45.447	0	130.00	0	8.5840	0	33.3470	0	25.891	0	128.899	0	199.9	4	69.7	4	-1E+10	1	-1E+10	1	-1E+10	1	-1E+10	1	-1E+10	1	-1E+10	1
4901784	19	C	01/11/2016	10:41	-131.289	45.447	0	132.40	0	8.5860	0	33.3970	0	25.930	0	131.278	0	199.3	4	69.6	4	-1E+10	1	-1E+10	1	-1E+10	1	-1E+10	1	-1E+10	1	-1E+10	1
4901784	19	C	01/11/2016	10:41	-131.289	45.447	0	134.90	0	8.5820	0	33.4230	0	25.951	0	133.756	0	197.7	4	69.0	4	-1E+10	1	-1E+10	1	-1E+10	1	-1E+10	1	-1E+10	1	-1E+10	1
4901784	19	C	01/11/2016	10:41	-131.289	45.447	0	137.40	0	8.5580	0	33.4440	0	25.971	0	136.234	0	195.1	4	68.1	4	-1E+10	1	-1E+10	1	-1E+10	1	-1E+10	1	-1E+10	1	-1E+10	1
4901784	19	C	01/11/2016	10:41	-131.289	45.447	0	140.00	0	8.4190	0	33.4620	0	26.006	0	138.811	0	191.4	4	66.6	4	-1E+10	1	-1E+10	1	-1E+10	1	-1E+10	1	-1E+10	1	-1E+10	1
4901784	19	C	01/11/2016	10:41	-131.289	45.447	0	142.50	0	8.3080	0	33.4810	0	26.038	0	141.289	0	189.4	4	65.7	4	-1E+10	1	-1E+10	1	-1E+10	1	-1E+10	1	-1E+10	1	-1E+10	1
4901784	19	C	01/11/2016	10:41	-131.289	45.447	0	145.10	0	8.2850	0	33.4940	0	26.051	0	143.866	0	187.7	4	65.1	4	-1E+10	1	-1E+10	1	-1E+10	1	-1E+10	1	-1E+10	1	-1E+10	1
4901784	19	C	01/11/2016	10:41	-131.289	45.447	0	146.90	0	8.2250	0	33.5390	0	26.096	0	145.650	0	186.6	4	64.7	4	-1E+10	1	-1E+10	1	-1E+10	1	-1E+10	1	-1E+10	1	-1E+10	1
4901784	19	C	01/11/2016	10:41	-131.289	45.447	0	149.70	0	8.1980	0	33.5560	0	26.113	0	148.425	0	184.9	4	64.1	4	-1E+10	1	-1E+10	1	-1E+10	1	-1E+10	1	-1E+10	1	-1E+10	1
4901784	19	C	01/11/2016	10:41	-131.289	45.447	0	152.40	0	8.1320	0	33.5760	0	26.139	0	151.101	0	184.1	4	63.7	4	-1E+10	1	-1E+10	1	-1E+10	1	-1E+10	1	-1E+10	1	-1E+10	1
4901784	19	C	01/11/2016	10:41	-131.289	45.447	0	155.10	0	8.1270	0	33.5910	0	26.151	0	153.777	0	184.4	4	63.8	4	-1E+10	1	-1E+10	1	-1E+10	1	-1E+10	1	-1E+10	1	-1E+10	1
4901784	19	C	01/11/2016	10:41	-131.289	45.447	0	157.90	0	8.0940	0	33.6410	0	26.195	0	156.552	0	183.6	4	63.5	4	-1E+10	1	-1E+10	1	-1E+10	1	-1E+10	1	-1E+10	1	-1E+10	1
4901784	19	C	01/11/2016	10:41	-131.289	45.447	0	159.80	0	8.0770	0	33.6490	0	26.204	0	158.435	0	182.7	4	63.2	4	-1E+10	1	-1E+10	1	-1E+10	1	-1E+10	1	-1E+10	1	-1E+10	1
4901784	19	C	01/11/2016	10:41	-131.289	45.447	0	162.70	0	8.0660	0	33.6520	0	26.208	0	161.309	0	180.8	4	62.5	4	-1E+10	1	-1E+10	1	-1E+10	1	-1E+10	1	-1E+10	1	-1E+10	1
4901784	19	C	01/11/2016	10:41	-131.289	45.447	0	165.50	0	8.0480	0	33.6560	0	26.214	0	164.084	0	178.5	4	61.7	4	-1E+10	1	-1E+10	1	-1E+10	1	-1E+10	1	-1E+10	1	-1E+10	1
4901784	19	C	01/11/2016	10:41	-131.289	45.447	0	167.40	0	8.0340	0	33.6580	0	26.218	0	165.967	0	176.8	4	61.1	4	-1E+10	1	-1E+10	1	-1E+10	1	-1E+10	1	-1E+10	1	-1E+10	1
4901784	19	C	01/11/2016	10:41	-131.289	45.447	0	169.40	0	8.0070	0	33.6640	0	26.226	0	167.949	0	174.8	4	60.3	4	-1E+10	1	-1E+10	1	-1E+10	1	-1E+10	1	-1E+10	1	-1E+10	1
4901784	19	C	01/11/2016	10:41	-131.289	45.447	0	172.20	0	7.9690	0	33.6740	0	26.240	0	170.724	0	173.2	4	59.8	4	-1E+10	1	-1E+10	1	-1E+10	1	-1E+10	1	-1E+10	1	-1E+10	1
4901784	19	C	01/11/2016	10:41	-131.289	45.447	0	175.10	0	7.9420	0	33.6820	0	26.250	0	173.598	0	172.7	4	59.5	4	-1E+10	1	-1E+10	1	-1E+10	1	-1E+10	1	-1E+10	1	-1E+10	1
4901784	19	C	01/11/2016	10:41	-131.289	45.447	0	177.00	0	7.9280	0	33.6960	0	26.263	0	175.481	0	173.2	4	59.7	4	-1E+10	1	-1E+10	1	-1E+10	1	-1E+10	1	-1E+10	1	-1E+10	1
4901784	19	C	01/11/2016	10:41	-131.289	45.447	0	179.80	0	7.9140	0	33.7080	0	26.275	0	178.256	0	172.8	4	59.5	4	-1E+10	1	-1E+10	1	-1E+10	1	-1E+10	1	-1E+10	1	-1E+10	1
4901784	19	C	01/11/2016	10:41	-131.289	45.447	0	182.70	0	7.8950	0	33.7170	0	26.285	0	181.129	0	171.7	4	59.1	4	-1E+10	1	-1E+10	1	-1E+10	1	-1E+10	1	-1E+10	1	-1E+10	1
4901784	19	C	01/11/2016	10:41	-131.289	45.447	0	184.60	0	7.8750	0	33.7260	0	26.295	0	183.012	0	171.0	4	58.9	4	-1E+10	1	-1E+10	1	-1E+10	1	-1E+10	1	-1E+10	1	-1E+10	1
4901784	19	C	01/11/2016	10:41	-131.289	45.447	0	187.50	0	7.8470	0	33.7370	0	26.307	0	185.886	0	171.6	4	59.1	4	-1E+10	1	-1E+10	1	-1E+10	1	-1E+10	1	-1E+10	1	-1E+10	1
4901784	19	C	01/11/2016	10:41	-131.289	45.447	0	190.50	0	7.7900	0	33.7590	0	26.333	0	188.859	0	173.1	4	59.5	4	-1E+10	1	-1E+10	1	-1E+10	1	-1E+10	1	-1E+10	1	-1E+10	1
4901784	19	C	01/11/2016	10:41	-131.289	45.447	0	192.50	0	7.7800	0	33.7610	0	26.336	0	190.841	0	172.3	4	59.2	4	-1E+10	1	-1E+10	1	-1E+10	1	-1E+10	1	-1E+10	1	-1E+10	1
4901784	19	C	01/11/2016	10:41	-131.289	45.447	0	194.40	0	7.7660	0	33.7660	0	26.342	0	192.723	0	171.5	4	58.9	4	-1E+10	1	-1E+10	1	-1E+10	1	-1E+10	1	-1E+10	1	-1E+10	1
4901784	19	C	01/11/2016	10:41	-131.289	45.447	0	197.30	0	7.7440	0	33.7720	0	26.350	0	195.597	0	170.5	4	58.6	4	-1E+10	1	-1E+10	1	-1E+10	1	-1E+10	1	-1E+10	1	-1E+10	1
4901784	19	C	01/11/2016	10:41	-131.289	45.447	0	200.10	0	7.7400	0	33.7720	0	26.350	0	198.371	0	168.7	4	57.9	4	-1E+10	1	-1E+10	1	-1E+10	1	-1E+10	1	-1E+10	1	-1E+10	1
4901784	19	C	01/11/2016	10:41	-131.289	45.447	0	201.90	0	7.7240	0	33.7780	0	26.358	0	200.155	0	167.3	4	57.4	4	-1E+10	1	-1E+10	1	-1E+10	1	-1E+10	1	-1E+10	1	-1E+10	1
4901784	19	C	01/11/2016	10:41	-131.289	45.447	0	204.80	0	7.6820	0	33.7880	0	26.371	0	203.028	0	164.7	4	56.5	4	-1E+10	1	-1E+10	1	-1E+10	1	-1E+10	1	-1E+10	1	-1E+10	1
4901784	19	C	01/11/2016	10:41	-131.289	45.447	0	207.70	0	7.5950	0	33.8120	0	26.403	0	205.902	0	163.9	4	56.1	4	-1E+10	1	-1E+10	1	-1E+10	1	-1E+10	1	-1E+10	1	-1E+10	1
4901784	19	C	01/11/2016	10:41	-131.289	45.447	0	209.70	0	7.5890	0	33.8100	0	26.402	0	207.884	0	164.3	4	56.3	4	-1E+10	1	-1E+10	1	-1E+10	1	-1E+10	1	-1E+10	1	-1E+10	1
4901784	19	C	01/11/2016	10:41	-131.289	45.447	0	212.50	0	7.5280	0	33.8210	0	26.420	0	210.658	0	163.1	4	55.8	4	-1E+10	1	-1E+10	1	-1E+10	1	-1E+10	1	-1E+10	1	-1E+10	1
4901784	19	C	01/11/2016	10:41	-131.289	45.447	0	215.40	0	7.4960	0	33.8280	0	26.430	0	213.531	0	160.3	4	54.8	4	-1E+10	1	-1E+10	1	-1E+10	1	-1E+10	1	-1E+10	1	-1E+10	1
4901784	19	C	01/11/2016	10:41	-131.289	45.447	0	217.30	0	7.4960	0	33.8310	0	26.432	0	215.414	0	159.8	4	54.6	4	-1E+10	1	-1E+10	1	-1E+10	1	-1E+10	1	-1E+10	1	-1E+10	1
4901784	19	C	01/11/2016	10:41	-131.289	45.447	0	220.10	0	7.4650	0	33.8330	0	26.438	0	218.188	0	161.2	4	55.0	4	-1E+10	1	-1E+10	1	-1E+10	1	-1E+10	1	-1E+10	1	-1E+10	1
4901784	19	C	01/11/2016	10:41	-131.289	45.447	0	223.00	0	7.4520	0	33.8340	0	26.441	0	221.061	0	160.3	4	54.7	4	-1E+10	1	-1E+10	1	-1E+10	1	-1E+10	1	-1E+10	1	-1E+10	1
4901784	19	C	01/11/2016	10:41	-131.289	45.447	0	224.90	0	7.4380	0	33.8370	0	26.445	0	222.944	0	160.2	4	54.7	4	-1E+10	1	-1E+10	1	-1E+10	1	-1E+10	1	-1E+10	1	-1E+10	1
4901784	19	C	01/11/2016	10:41	-131.289	45.447	0	227.80	0	7.3700	0	33.8450	0	26.461	0	225.817	0	159.6	4	54.4	4	-1E+10	1	-1E+10	1	-1E+10	1	-1E+10	1	-1E+10	1	-1E+10	1
4901784	19	C	01/11/2016	10:41	-131.289	45.447	0	230.70	0	7.3630	0	33.8460	0	26.463	0	228.690	0	159.8	4	54.4	4	-1E+10	1	-1E+10	1	-1E+10	1	-1E+10	1	-1E+10	1	-1E+10	1
4901784	19	C	01/11/2016	10:41	-131.289	45.447	0	232.60	0	7.3580	0	33.8460	0	26.463	0	230.573	0	160.5	4	54.7	4	-1E+10	1	-1E+10	1	-1E+10	1	-1E+10	1	-1E+10	1	-1E+10	1
4901784	19	C	01/11/2016	10:41	-131.289	45.447	0	234.60	0	7.3090	0	33.8480	0	26.472	0	232.554	0	161.6	4	55.0	4	-1E+10	1	-1E+10	1	-1E+10	1	-1E+10	1	-1E+10	1	-1E+10	1
4901784	19	C	01/11/2016	10:41	-131.289	45.447	0	237.50	0	7.2710	0	33.8500	0	26.479	0	235.427	0	160.0	4	54.4	4	-1E+10	1	-1E+10	1	-1E+10	1	-1E+10	1	-1E+10	1	-1E+10	1
4901784	19	C	01/11/2016	10:41	-131.289	45.447	0	240.40	0	7.2530	0	33.8510	0	26.482	0	238.300	0	157.6	4	53.6	4	-1E+10	1	-1E+10	1	-1E+10	1	-1E+10	1	-1E+10	1	-1E+10	1
4901784	19	C	01/11/2016	10:41	-131.289	45.447	0	242.90	0	7.2430	0	33.8530	0	26.485	0	240.777	0	155.7	4	52.9	4	-1E+10	1	-1E+10	1	-1E+10	1	-1E+10	1	-1E+10	1	-1E+10	1
4901784	19	C	01/11/2016	10:41	-131.289	45.447	0	244.80	0	7.1970	0	33.8570	0	26.495	0	242.659	0	154.0	4	52.3	4	-1E+10	1	-1E+10	1	-1E+10	1	-1E+10	1	-1E+10	1	-1E+10	1
4901784	19	C	01/11/2016	10:41	-131.289	45.447	0	247.20	0	7.1910	0	33.8580	0	26.496	0	245.037	0	152.5	4	51.8	4	-1E+10	1	-1E+10	1	-1E+10	1	-1E+10	1	-1E+10	1	-1E+10	1
4901784	19	C	01/11/2016	10:41	-131.289	45.447	0	250.40	0	7.1460	0	33.8580	0	26.503	0	248.207	0	149.6	4	50.7	4	-1E+10	1	-1E+10	1	-1E+10	1	-1E+10	1	-1E+10	1	-1E+10	1
4901784	19	C	01/11/2016	10:41	-131.289	45.447	0	252.80	0	7.0810	0	33.8640	0	26.516	0	250.584	0	146.5	4	49.6	4	-1E+10	1	-1E+10	1	-1E+10	1	-1E+10	1	-1E+10	1	-1E+10	1
4901784	19	C	01/11/2016	10:41	-131.289	45.447	0	255.40	0	7.0230	0	33.8680	0	26.527	0	253.160	0	144.4	4	48.8	4	-1E+10	1	-1E+10	1	-1E+10	1	-1E+10	1	-1E+10	1	-1E+10	1
4901784	19	C	01/11/2016	10:41	-131.289	45.447	0	257.80	0	6.9890	0	33.8690	0	26.533	0	255.537	0	142.9	4	48.3	4	-1E+10	1	-1E+10	1	-1E+10	1	-1E+10	1	-1E+10	1	-1E+10	1
4901784	19	C	01/11/2016	10:41	-131.289	45.447	0	260.30	0	6.9530	0	33.8720	0	26.540	0	258.014	0	142.0	4	47.9	4	-1E+10	1	-1E+10	1	-1E+10	1	-1E+10	1	-1E+10	1	-1E+10	1
4901784	19	C	01/11/2016	10:41	-131.289	45.447	0	262.80	0	6.9540	0	33.8720	0	26.540	0	260.490	0	141.1	4	47.6	4	-1E+10	1	-1E+10	1	-1E+10	1	-1E+10	1	-1E+10	1	-1E+10	1
4901784	19	C	01/11/2016	10:41	-131.289	45.447	0	265.30	0	6.8500	0	33.8720	0	26.554	0	262.967	0	139.7	4	47.0	4	-1E+10	1	-1E+10	1	-1E+10	1	-1E+10	1	-1E+10	1	-1E+10	1
4901784	19	C	01/11/2016	10:41	-131.289	45.447	0	267.80	0	6.8060	0	33.8730	0	26.561	0	265.443	0	137.0	4	46.1	4	-1E+10	1	-1E+10	1	-1E+10	1	-1E+10	1	-1E+10	1	-1E+10	1
4901784	19	C	01/11/2016	10:41	-131.289	45.447	0	270.40	0	6.7540	0	33.8740	0	26.569	0	268.019	0	135.0	4	45.4	4	-1E+10	1	-1E+10	1	-1E+10	1	-1E+10	1	-1E+10	1	-1E+10	1
4901784	19	C	01/11/2016	10:41	-131.289	45.447	0	272.90	0	6.7040	0	33.8750	0	26.576	0	270.495	0	132.3	4	44.4	4	-1E+10	1	-1E+10	1	-1E+10	1	-1E+10	1	-1E+10	1	-1E+10	1
4901784	19	C	01/11/2016	10:41	-131.289	45.447	0	274.70	0	6.6920	0	33.8780	0	26.580	0	272.278	0	129.5	4	43.5	4	-1E+10	1	-1E+10	1	-1E+10	1	-1E+10	1	-1E+10	1	-1E+10	1
4901784	19	C	01/11/2016	10:41	-131.289	45.447	0	277.30	0	6.6490	0	33.8820	0	26.589	0	274.853	0	127.5	4	42.8	4	-1E+10	1	-1E+10	1	-1E+10	1	-1E+10	1	-1E+10	1	-1E+10	1
4901784	19	C	01/11/2016	10:41	-131.289	45.447	0	279.80	0	6.5950	0	33.8840	0	26.598	0	277.329	0	125.2	4	41.9	4	-1E+10	1	-1E+10	1	-1E+10	1	-1E+10	1	-1E+10	1	-1E+10	1
4901784	19	C	01/11/2016	10:41	-131.289	45.447	0	282.40	0	6.5650	0	33.8900	0	26.606	0	279.905	0	122.9	4	41.1	4	-1E+10	1	-1E+10	1	-1E+10	1	-1E+10	1	-1E+10	1	-1E+10	1
4901784	19	C	01/11/2016	10:41	-131.289	45.447	0	284.90	0	6.5500	0	33.8910	0	26.609	0	282.381	0	121.8	4	40.7	4	-1E+10	1	-1E+10	1	-1E+10	1	-1E+10	1	-1E+10	1	-1E+10	1
4901784	19	C	01/11/2016	10:41	-131.289	45.447	0	287.40	0	6.5410	0	33.8930	0	26.612	0	284.857	0	120.5	4	40.3	4	-1E+10	1	-1E+10	1	-1E+10	1	-1E+10	1	-1E+10	1	-1E+10	1
4901784	19	C	01/11/2016	10:41	-131.289	45.447	0	290.00	0	6.5030	0	33.8950	0	26.618	0	287.432	0	119.6	4	40.0	4	-1E+10	1	-1E+10	1	-1E+10	1	-1E+10	1	-1E+10	1	-1E+10	1
4901784	19	C	01/11/2016	10:41	-131.289	45.447	0	292.60	0	6.4630	0	33.8940	0	26.623	0	290.008	0	118.9	4	39.7	4	-1E+10	1	-1E+10	1	-1E+10	1	-1E+10	1	-1E+10	1	-1E+10	1
4901784	19	C	01/11/2016	10:41	-131.289	45.447	0	295.20	0	6.4190	0	33.8940	0	26.629	0	292.583	0	118.0	4	39.4	4	-1E+10	1	-1E+10	1	-1E+10	1	-1E+10	1	-1E+10	1	-1E+10	1
4901784	19	C	01/11/2016	10:41	-131.289	45.447	0	297.80	0	6.3920	0	33.8940	0	26.632	0	295.158	0	116.7	4	38.9	4	-1E+10	1	-1E+10	1	-1E+10	1	-1E+10	1	-1E+10	1	-1E+10	1
4901784	19	C	01/11/2016	10:41	-131.289	45.447	0	300.40	0	6.3140	0	33.8960	0	26.644	0	297.733	0	115.4	4	38.4	4	-1E+10	1	-1E+10	1	-1E+10	1	-1E+10	1	-1E+10	1	-1E+10	1
4901784	19	C	01/11/2016	10:41	-131.289	45.447	0	302.20	0	6.3070	0	33.8960	0	26.645	0	299.516	0	114.5	4	38.1	4	-1E+10	1	-1E+10	1	-1E+10	1	-1E+10	1	-1E+10	1	-1E+10	1
4901784	19	C	01/11/2016	10:41	-131.289	45.447	0	304.80	0	6.2940	0	33.8960	0	26.646	0	302.090	0	112.4	4	37.4	4	-1E+10	1	-1E+10	1	-1E+10	1	-1E+10	1	-1E+10	1	-1E+10	1
4901784	19	C	01/11/2016	10:41	-131.289	45.447	0	307.40	0	6.2780	0	33.8980	0	26.650	0	304.665	0	110.1	4	36.6	4	-1E+10	1	-1E+10	1	-1E+10	1	-1E+10	1	-1E+10	1	-1E+10	1
4901784	19	C	01/11/2016	10:41	-131.289	45.447	0	310.10	0	6.2270	0	33.9010	0	26.659	0	307.339	0	108.2	4	35.9	4	-1E+10	1	-1E+10	1	-1E+10	1	-1E+10	1	-1E+10	1	-1E+10	1
4901784	19	C	01/11/2016	10:41	-131.289	45.447	0	312.80	0	6.1900	0	33.9020	0	26.665	0	310.013	0	106.8	4	35.4	4	-1E+10	1	-1E+10	1	-1E+10	1	-1E+10	1	-1E+10	1	-1E+10	1
4901784	19	C	01/11/2016	10:41	-131.289	45.447	0	314.60	0	6.1750	0	33.9050	0	26.669	0	311.796	0	105.5	4	35.0	4	-1E+10	1	-1E+10	1	-1E+10	1	-1E+10	1	-1E+10	1	-1E+10	1
4901784	19	C	01/11/2016	10:41	-131.289	45.447	0	317.30	0	6.1600	0	33.9050	0	26.671	0	314.470	0	104.1	4	34.5	4	-1E+10	1	-1E+10	1	-1E+10	1	-1E+10	1	-1E+10	1	-1E+10	1
4901784	19	C	01/11/2016	10:41	-131.289	45.447	0	319.90	0	6.1470	0	33.9050	0	26.672	0	317.045	0	102.2	4	33.9	4	-1E+10	1	-1E+10	1	-1E+10	1	-1E+10	1	-1E+10	1	-1E+10	1
4901784	19	C	01/11/2016	10:41	-131.289	45.447	0	322.70	0	6.1060	0	33.9070	0	26.679	0	319.818	0	99.9	4	33.1	4	-1E+10	1	-1E+10	1	-1E+10	1	-1E+10	1	-1E+10	1	-1E+10	1
4901784	19	C	01/11/2016	10:41	-131.289	45.447	0	325.40	0	6.1000	0	33.9120	0	26.684	0	322.491	0	98.1	4	32.5	4	-1E+10	1	-1E+10	1	-1E+10	1	-1E+10	1	-1E+10	1	-1E+10	1
4901784	19	C	01/11/2016	10:41	-131.289	45.447	0	327.20	0	6.1000	0	33.9120	0	26.684	0	324.274	0	97.7	4	32.4	4	-1E+10	1	-1E+10	1	-1E+10	1	-1E+10	1	-1E+10	1	-1E+10	1
4901784	19	C	01/11/2016	10:41	-131.289	45.447	0	330.10	0	6.0680	0	33.9120	0	26.688	0	327.146	0	97.5	4	32.3	4	-1E+10	1	-1E+10	1	-1E+10	1	-1E+10	1	-1E+10	1	-1E+10	1
4901784	19	C	01/11/2016	10:41	-131.289	45.447	0	332.90	0	6.0080	0	33.9110	0	26.695	0	329.918	0	98.0	4	32.4	4	-1E+10	1	-1E+10	1	-1E+10	1	-1E+10	1	-1E+10	1	-1E+10	1
4901784	19	C	01/11/2016	10:41	-131.289	45.447	0	334.70	0	5.9450	0	33.9080	0	26.700	0	331.701	0	98.5	4	32.5	4	-1E+10	1	-1E+10	1	-1E+10	1	-1E+10	1	-1E+10	1	-1E+10	1
4901784	19	C	01/11/2016	10:41	-131.289	45.447	0	337.50	0	5.8980	0	33.9070	0	26.705	0	334.473	0	97.8	4	32.2	4	-1E+10	1	-1E+10	1	-1E+10	1	-1E+10	1	-1E+10	1	-1E+10	1
4901784	19	C	01/11/2016	10:41	-131.289	45.447	0	340.30	0	5.8410	0	33.9070	0	26.712	0	337.246	0	96.9	4	31.9	4	-1E+10	1	-1E+10	1	-1E+10	1	-1E+10	1	-1E+10	1	-1E+10	1
4901784	19	C	01/11/2016	10:41	-131.289	45.447	0	342.20	0	5.8350	0	33.9060	0	26.712	0	339.127	0	96.0	4	31.6	4	-1E+10	1	-1E+10	1	-1E+10	1	-1E+10	1	-1E+10	1	-1E+10	1
4901784	19	C	01/11/2016	10:41	-131.289	45.447	0	345.00	0	5.8140	0	33.9090	0	26.717	0	341.900	0	94.4	4	31.0	4	-1E+10	1	-1E+10	1	-1E+10	1	-1E+10	1	-1E+10	1	-1E+10	1
4901784	19	C	01/11/2016	10:41	-131.289	45.447	0	347.80	0	5.7940	0	33.9120	0	26.722	0	344.672	0	93.8	4	30.8	4	-1E+10	1	-1E+10	1	-1E+10	1	-1E+10	1	-1E+10	1	-1E+10	1
4901784	19	C	01/11/2016	10:41	-131.289	45.447	0	349.70	0	5.7670	0	33.9090	0	26.723	0	346.554	0	93.9	4	30.9	4	-1E+10	1	-1E+10	1	-1E+10	1	-1E+10	1	-1E+10	1	-1E+10	1
4901784	19	C	01/11/2016	10:41	-131.289	45.447	0	352.60	0	5.6690	0	33.9080	0	26.734	0	349.425	0	94.4	4	30.9	4	-1E+10	1	-1E+10	1	-1E+10	1	-1E+10	1	-1E+10	1	-1E+10	1
4901784	19	C	01/11/2016	10:41	-131.289	45.447	0	355.40	0	5.6490	0	33.9070	0	26.736	0	352.198	0	94.3	4	30.9	4	-1E+10	1	-1E+10	1	-1E+10	1	-1E+10	1	-1E+10	1	-1E+10	1
4901784	19	C	01/11/2016	10:41	-131.289	45.447	0	357.40	0	5.6460	0	33.9070	0	26.736	0	354.178	0	94.0	4	30.8	4	-1E+10	1	-1E+10	1	-1E+10	1	-1E+10	1	-1E+10	1	-1E+10	1
4901784	19	C	01/11/2016	10:41	-131.289	45.447	0	359.90	0	5.6350	0	33.9080	0	26.739	0	356.653	0	93.5	4	30.6	4	-1E+10	1	-1E+10	1	-1E+10	1	-1E+10	1	-1E+10	1	-1E+10	1
4901784	19	C	01/11/2016	10:41	-131.289	45.447	0	362.50	0	5.6300	0	33.9080	0	26.739	0	359.228	0	92.9	4	30.4	4	-1E+10	1	-1E+10	1	-1E+10	1	-1E+10	1	-1E+10	1	-1E+10	1
4901784	19	C	01/11/2016	10:41	-131.289	45.447	0	364.90	0	5.6300	0	33.9070	0	26.738	0	361.604	0	92.1	4	30.2	4	-1E+10	1	-1E+10	1	-1E+10	1	-1E+10	1	-1E+10	1	-1E+10	1
4901784	19	C	01/11/2016	10:41	-131.289	45.447	0	367.30	0	5.6010	0	33.9070	0	26.742	0	363.980	0	90.8	4	29.7	4	-1E+10	1	-1E+10	1	-1E+10	1	-1E+10	1	-1E+10	1	-1E+10	1
4901784	19	C	01/11/2016	10:41	-131.289	45.447	0	369.70	0	5.5640	0	33.9120	0	26.750	0	366.356	0	89.4	4	29.2	4	-1E+10	1	-1E+10	1	-1E+10	1	-1E+10	1	-1E+10	1	-1E+10	1
4901784	19	C	01/11/2016	10:41	-131.289	45.447	0	372.10	0	5.5440	0	33.9120	0	26.753	0	368.732	0	88.4	4	28.9	4	-1E+10	1	-1E+10	1	-1E+10	1	-1E+10	1	-1E+10	1	-1E+10	1
4901784	19	C	01/11/2016	10:41	-131.289	45.447	0	375.30	0	5.5190	0	33.9120	0	26.756	0	371.901	0	86.7	4	28.3	4	-1E+10	1	-1E+10	1	-1E+10	1	-1E+10	1	-1E+10	1	-1E+10	1
4901784	19	C	01/11/2016	10:41	-131.289	45.447	0	377.70	0	5.5040	0	33.9130	0	26.758	0	374.277	0	84.9	4	27.7	4	-1E+10	1	-1E+10	1	-1E+10	1	-1E+10	1	-1E+10	1	-1E+10	1
4901784	19	C	01/11/2016	10:41	-131.289	45.447	0	380.20	0	5.4690	0	33.9170	0	26.766	0	376.752	0	82.8	4	27.0	4	-1E+10	1	-1E+10	1	-1E+10	1	-1E+10	1	-1E+10	1	-1E+10	1
4901784	19	C	01/11/2016	10:41	-131.289	45.447	0	382.70	0	5.4610	0	33.9180	0	26.768	0	379.227	0	80.6	4	26.3	4	-1E+10	1	-1E+10	1	-1E+10	1	-1E+10	1	-1E+10	1	-1E+10	1
4901784	19	C	01/11/2016	10:41	-131.289	45.447	0	385.10	0	5.4540	0	33.9290	0	26.777	0	381.603	0	78.8	4	25.7	4	-1E+10	1	-1E+10	1	-1E+10	1	-1E+10	1	-1E+10	1	-1E+10	1
4901784	19	C	01/11/2016	10:41	-131.289	45.447	0	387.60	0	5.4360	0	33.9290	0	26.779	0	384.078	0	78.7	4	25.7	4	-1E+10	1	-1E+10	1	-1E+10	1	-1E+10	1	-1E+10	1	-1E+10	1
4901784	19	C	01/11/2016	10:41	-131.289	45.447	0	390.10	0	5.3870	0	33.9260	0	26.783	0	386.553	0	78.3	4	25.5	4	-1E+10	1	-1E+10	1	-1E+10	1	-1E+10	1	-1E+10	1	-1E+10	1
4901784	19	C	01/11/2016	10:41	-131.289	45.447	0	392.60	0	5.3790	0	33.9280	0	26.785	0	389.028	0	77.0	4	25.1	4	-1E+10	1	-1E+10	1	-1E+10	1	-1E+10	1	-1E+10	1	-1E+10	1
4901784	19	C	01/11/2016	10:41	-131.289	45.447	0	395.10	0	5.3670	0	33.9310	0	26.789	0	391.503	0	75.5	4	24.6	4	-1E+10	1	-1E+10	1	-1E+10	1	-1E+10	1	-1E+10	1	-1E+10	1
4901784	19	C	01/11/2016	10:41	-131.289	45.447	0	397.60	0	5.3760	0	33.9330	0	26.790	0	393.977	0	74.1	4	24.1	4	-1E+10	1	-1E+10	1	-1E+10	1	-1E+10	1	-1E+10	1	-1E+10	1
4901784	19	C	01/11/2016	10:41	-131.289	45.447	0	400.10	0	5.3830	0	33.9350	0	26.790	0	396.452	0	72.6	4	23.6	4	-1E+10	1	-1E+10	1	-1E+10	1	-1E+10	1	-1E+10	1	-1E+10	1
4901784	19	C	01/11/2016	10:41	-131.289	45.447	0	402.70	0	5.3550	0	33.9380	0	26.796	0	399.026	0	71.3	4	23.2	4	-1E+10	1	-1E+10	1	-1E+10	1	-1E+10	1	-1E+10	1	-1E+10	1
4901784	19	C	01/11/2016	10:41	-131.289	45.447	0	405.20	0	5.3180	0	33.9420	0	26.804	0	401.501	0	69.9	4	22.7	4	-1E+10	1	-1E+10	1	-1E+10	1	-1E+10	1	-1E+10	1	-1E+10	1
4901784	19	C	01/11/2016	10:41	-131.289	45.447	0	407.80	0	5.3000	0	33.9450	0	26.808	0	404.075	0	69.1	4	22.5	4	-1E+10	1	-1E+10	1	-1E+10	1	-1E+10	1	-1E+10	1	-1E+10	1
4901784	19	C	01/11/2016	10:41	-131.289	45.447	0	410.30	0	5.2990	0	33.9470	0	26.810	0	406.549	0	68.6	4	22.3	4	-1E+10	1	-1E+10	1	-1E+10	1	-1E+10	1	-1E+10	1	-1E+10	1
4901784	19	C	01/11/2016	10:41	-131.289	45.447	0	412.90	0	5.2920	0	33.9470	0	26.811	0	409.123	0	68.2	4	22.2	4	-1E+10	1	-1E+10	1	-1E+10	1	-1E+10	1	-1E+10	1	-1E+10	1
4901784	19	C	01/11/2016	10:41	-131.289	45.447	0	415.40	0	5.2850	0	33.9470	0	26.812	0	411.598	0	67.6	4	22.0	4	-1E+10	1	-1E+10	1	-1E+10	1	-1E+10	1	-1E+10	1	-1E+10	1
4901784	19	C	01/11/2016	10:41	-131.289	45.447	0	417.90	0	5.2620	0	33.9480	0	26.815	0	414.072	0	66.4	4	21.6	4	-1E+10	1	-1E+10	1	-1E+10	1	-1E+10	1	-1E+10	1	-1E+10	1
4901784	19	C	01/11/2016	10:41	-131.289	45.447	0	419.60	0	5.2540	0	33.9510	0	26.818	0	415.755	0	65.6	4	21.3	4	-1E+10	1	-1E+10	1	-1E+10	1	-1E+10	1	-1E+10	1	-1E+10	1
4901784	19	C	01/11/2016	10:41	-131.289	45.447	0	422.10	0	5.2580	0	33.9540	0	26.820	0	418.229	0	64.8	4	21.0	4	-1E+10	1	-1E+10	1	-1E+10	1	-1E+10	1	-1E+10	1	-1E+10	1
4901784	19	C	01/11/2016	10:41	-131.289	45.447	0	424.70	0	5.2310	0	33.9550	0	26.824	0	420.803	0	64.1	4	20.8	4	-1E+10	1	-1E+10	1	-1E+10	1	-1E+10	1	-1E+10	1	-1E+10	1
4901784	19	C	01/11/2016	10:41	-131.289	45.447	0	427.30	0	5.2180	0	33.9560	0	26.827	0	423.376	0	63.5	4	20.6	4	-1E+10	1	-1E+10	1	-1E+10	1	-1E+10	1	-1E+10	1	-1E+10	1
4901784	19	C	01/11/2016	10:41	-131.289	45.447	0	429.70	0	5.2060	0	33.9580	0	26.830	0	425.752	0	62.7	4	20.4	4	-1E+10	1	-1E+10	1	-1E+10	1	-1E+10	1	-1E+10	1	-1E+10	1
4901784	19	C	01/11/2016	10:41	-131.289	45.447	0	432.20	0	5.1970	0	33.9570	0	26.830	0	428.226	0	61.7	4	20.0	4	-1E+10	1	-1E+10	1	-1E+10	1	-1E+10	1	-1E+10	1	-1E+10	1
4901784	19	C	01/11/2016	10:41	-131.289	45.447	0	434.80	0	5.1930	0	33.9610	0	26.833	0	430.800	0	60.1	4	19.5	4	-1E+10	1	-1E+10	1	-1E+10	1	-1E+10	1	-1E+10	1	-1E+10	1
4901784	19	C	01/11/2016	10:41	-131.289	45.447	0	437.40	0	5.1770	0	33.9650	0	26.838	0	433.373	0	58.8	4	19.1	4	-1E+10	1	-1E+10	1	-1E+10	1	-1E+10	1	-1E+10	1	-1E+10	1
4901784	19	C	01/11/2016	10:41	-131.289	45.447	0	439.90	0	5.1570	0	33.9680	0	26.843	0	435.848	0	57.8	4	18.7	4	-1E+10	1	-1E+10	1	-1E+10	1	-1E+10	1	-1E+10	1	-1E+10	1
4901784	19	C	01/11/2016	10:41	-131.289	45.447	0	442.50	0	5.1390	0	33.9710	0	26.848	0	438.421	0	56.6	4	18.3	4	-1E+10	1	-1E+10	1	-1E+10	1	-1E+10	1	-1E+10	1	-1E+10	1
4901784	19	C	01/11/2016	10:41	-131.289	45.447	0	445.10	0	5.1240	0	33.9720	0	26.850	0	440.994	0	55.4	4	17.9	4	-1E+10	1	-1E+10	1	-1E+10	1	-1E+10	1	-1E+10	1	-1E+10	1
4901784	19	C	01/11/2016	10:41	-131.289	45.447	0	447.60	0	5.0670	0	33.9790	0	26.862	0	443.468	0	54.3	4	17.6	4	-1E+10	1	-1E+10	1	-1E+10	1	-1E+10	1	-1E+10	1	-1E+10	1
4901784	19	C	01/11/2016	10:41	-131.289	45.447	0	450.10	0	5.0270	0	33.9840	0	26.871	0	445.943	0	53.8	4	17.4	4	-1E+10	1	-1E+10	1	-1E+10	1	-1E+10	1	-1E+10	1	-1E+10	1
4901784	19	C	01/11/2016	10:41	-131.289	45.447	0	452.50	0	5.0190	0	33.9830	0	26.871	0	448.318	0	53.3	4	17.2	4	-1E+10	1	-1E+10	1	-1E+10	1	-1E+10	1	-1E+10	1	-1E+10	1
4901784	19	C	01/11/2016	10:41	-131.289	45.447	0	455.10	0	5.0070	0	33.9840	0	26.873	0	450.891	0	52.6	4	17.0	4	-1E+10	1	-1E+10	1	-1E+10	1	-1E+10	1	-1E+10	1	-1E+10	1
4901784	19	C	01/11/2016	10:41	-131.289	45.447	0	457.60	0	4.9840	0	33.9880	0	26.879	0	453.365	0	51.9	4	16.7	4	-1E+10	1	-1E+10	1	-1E+10	1	-1E+10	1	-1E+10	1	-1E+10	1
4901784	19	C	01/11/2016	10:41	-131.289	45.447	0	460.20	0	4.9650	0	33.9880	0	26.881	0	455.938	0	51.3	4	16.6	4	-1E+10	1	-1E+10	1	-1E+10	1	-1E+10	1	-1E+10	1	-1E+10	1
4901784	19	C	01/11/2016	10:41	-131.289	45.447	0	462.70	0	4.9430	0	33.9910	0	26.886	0	458.412	0	50.4	4	16.2	4	-1E+10	1	-1E+10	1	-1E+10	1	-1E+10	1	-1E+10	1	-1E+10	1
4901784	19	C	01/11/2016	10:41	-131.289	45.447	0	465.30	0	4.9300	0	33.9960	0	26.891	0	460.985	0	49.4	4	15.9	4	-1E+10	1	-1E+10	1	-1E+10	1	-1E+10	1	-1E+10	1	-1E+10	1
4901784	19	C	01/11/2016	10:41	-131.289	45.447	0	467.80	0	4.9260	0	33.9980	0	26.894	0	463.459	0	48.7	4	15.7	4	-1E+10	1	-1E+10	1	-1E+10	1	-1E+10	1	-1E+10	1	-1E+10	1
4901784	19	C	01/11/2016	10:41	-131.289	45.447	0	470.40	0	4.9160	0	34.0000	0	26.896	0	466.032	0	47.9	4	15.5	4	-1E+10	1	-1E+10	1	-1E+10	1	-1E+10	1	-1E+10	1	-1E+10	1
4901784	19	C	01/11/2016	10:41	-131.289	45.447	0	472.10	0	4.9150	0	34.0020	0	26.898	0	467.715	0	47.4	4	15.3	4	-1E+10	1	-1E+10	1	-1E+10	1	-1E+10	1	-1E+10	1	-1E+10	1
4901784	19	C	01/11/2016	10:41	-131.289	45.447	0	474.70	0	4.9120	0	34.0030	0	26.899	0	470.288	0	46.7	4	15.0	4	-1E+10	1	-1E+10	1	-1E+10	1	-1E+10	1	-1E+10	1	-1E+10	1
4901784	19	C	01/11/2016	10:41	-131.289	45.447	0	477.10	0	4.9090	0	34.0050	0	26.901	0	472.663	0	45.8	4	14.8	4	-1E+10	1	-1E+10	1	-1E+10	1	-1E+10	1	-1E+10	1	-1E+10	1
4901784	19	C	01/11/2016	10:41	-131.289	45.447	0	479.80	0	4.8790	0	34.0110	0	26.909	0	475.334	0	44.8	4	14.4	4	-1E+10	1	-1E+10	1	-1E+10	1	-1E+10	1	-1E+10	1	-1E+10	1
4901784	19	C	01/11/2016	10:41	-131.289	45.447	0	482.40	0	4.8740	0	34.0140	0	26.912	0	477.907	0	43.9	4	14.1	4	-1E+10	1	-1E+10	1	-1E+10	1	-1E+10	1	-1E+10	1	-1E+10	1
4901784	19	C	01/11/2016	10:41	-131.289	45.447	0	485.00	0	4.8660	0	34.0160	0	26.915	0	480.480	0	43.2	4	13.9	4	-1E+10	1	-1E+10	1	-1E+10	1	-1E+10	1	-1E+10	1	-1E+10	1
4901784	19	C	01/11/2016	10:41	-131.289	45.447	0	487.60	0	4.8490	0	34.0200	0	26.920	0	483.053	0	42.6	4	13.7	4	-1E+10	1	-1E+10	1	-1E+10	1	-1E+10	1	-1E+10	1	-1E+10	1
4901784	19	C	01/11/2016	10:41	-131.289	45.447	0	490.20	0	4.8440	0	34.0200	0	26.920	0	485.625	0	42.1	4	13.5	4	-1E+10	1	-1E+10	1	-1E+10	1	-1E+10	1	-1E+10	1	-1E+10	1
4901784	19	C	01/11/2016	10:41	-131.289	45.447	0	492.80	0	4.8260	0	34.0230	0	26.925	0	488.198	0	41.5	4	13.4	4	-1E+10	1	-1E+10	1	-1E+10	1	-1E+10	1	-1E+10	1	-1E+10	1
4901784	19	C	01/11/2016	10:41	-131.289	45.447	0	494.60	0	4.8190	0	34.0240	0	26.926	0	489.979	0	41.2	4	13.3	4	-1E+10	1	-1E+10	1	-1E+10	1	-1E+10	1	-1E+10	1	-1E+10	1
4901784	19	C	01/11/2016	10:41	-131.289	45.447	0	497.20	0	4.8060	0	34.0260	0	26.929	0	492.552	0	40.7	4	13.1	4	-1E+10	1	-1E+10	1	-1E+10	1	-1E+10	1	-1E+10	1	-1E+10	1
4901784	19	C	01/11/2016	10:41	-131.289	45.447	0	499.80	0	4.8000	0	34.0270	0	26.931	0	495.124	0	40.1	4	12.9	4	-1E+10	1	-1E+10	1	-1E+10	1	-1E+10	1	-1E+10	1	-1E+10	1
4901784	19	C	01/11/2016	10:41	-131.289	45.447	0	505.10	0	4.7840	0	34.0310	0	26.936	0	500.368	0	39.0	4	12.5	4	-1E+10	1	-1E+10	1	-1E+10	1	-1E+10	1	-1E+10	1	-1E+10	1
4901784	19	C	01/11/2016	10:41	-131.289	45.447	0	510.40	0	4.7600	0	34.0360	0	26.943	0	505.612	0	37.6	4	12.1	4	-1E+10	1	-1E+10	1	-1E+10	1	-1E+10	1	-1E+10	1	-1E+10	1
4901784	19	C	01/11/2016	10:41	-131.289	45.447	0	514.90	0	4.7430	0	34.0410	0	26.948	0	510.065	0	36.5	4	11.7	4	-1E+10	1	-1E+10	1	-1E+10	1	-1E+10	1	-1E+10	1	-1E+10	1
4901784	19	C	01/11/2016	10:41	-131.289	45.447	0	519.30	0	4.7150	0	34.0460	0	26.956	0	514.418	0	35.4	4	11.4	4	-1E+10	1	-1E+10	1	-1E+10	1	-1E+10	1	-1E+10	1	-1E+10	1
4901784	19	C	01/11/2016	10:41	-131.289	45.447	0	524.70	0	4.6830	0	34.0510	0	26.963	0	519.760	0	34.0	4	10.9	4	-1E+10	1	-1E+10	1	-1E+10	1	-1E+10	1	-1E+10	1	-1E+10	1
4901784	19	C	01/11/2016	10:41	-131.289	45.447	0	530.00	0	4.6670	0	34.0610	0	26.973	0	525.004	0	32.2	4	10.3	4	-1E+10	1	-1E+10	1	-1E+10	1	-1E+10	1	-1E+10	1	-1E+10	1
4901784	19	C	01/11/2016	10:41	-131.289	45.447	0	535.40	0	4.6430	0	34.0690	0	26.982	0	530.346	0	31.4	4	10.1	4	-1E+10	1	-1E+10	1	-1E+10	1	-1E+10	1	-1E+10	1	-1E+10	1
4901784	19	C	01/11/2016	10:41	-131.289	45.447	0	540.00	0	4.6240	0	34.0680	0	26.983	0	534.897	0	30.9	4	9.9	4	-1E+10	1	-1E+10	1	-1E+10	1	-1E+10	1	-1E+10	1	-1E+10	1
4901784	19	C	01/11/2016	10:41	-131.289	45.447	0	544.50	0	4.5890	0	34.0730	0	26.991	0	539.348	0	30.3	4	9.7	4	-1E+10	1	-1E+10	1	-1E+10	1	-1E+10	1	-1E+10	1	-1E+10	1
4901784	19	C	01/11/2016	10:41	-131.289	45.447	0	549.90	0	4.5800	0	34.0750	0	26.994	0	544.690	0	29.6	4	9.5	4	-1E+10	1	-1E+10	1	-1E+10	1	-1E+10	1	-1E+10	1	-1E+10	1
4901784	19	C	01/11/2016	10:41	-131.289	45.447	0	555.20	0	4.5520	0	34.0810	0	27.001	0	549.933	0	28.6	4	9.1	4	-1E+10	1	-1E+10	1	-1E+10	1	-1E+10	1	-1E+10	1	-1E+10	1
4901784	19	C	01/11/2016	10:41	-131.289	45.447	0	559.50	0	4.5300	0	34.0870	0	27.009	0	554.186	0	27.8	4	8.9	4	-1E+10	1	-1E+10	1	-1E+10	1	-1E+10	1	-1E+10	1	-1E+10	1
4901784	19	C	01/11/2016	10:41	-131.289	45.447	0	565.00	0	4.5150	0	34.0910	0	27.013	0	559.627	0	26.7	4	8.5	4	-1E+10	1	-1E+10	1	-1E+10	1	-1E+10	1	-1E+10	1	-1E+10	1
4901784	19	C	01/11/2016	10:41	-131.289	45.447	0	570.60	0	4.4770	0	34.0970	0	27.022	0	565.166	0	25.7	4	8.2	4	-1E+10	1	-1E+10	1	-1E+10	1	-1E+10	1	-1E+10	1	-1E+10	1
4901784	19	C	01/11/2016	10:41	-131.289	45.447	0	575.50	0	4.4690	0	34.1030	0	27.028	0	570.013	0	24.9	4	7.9	4	-1E+10	1	-1E+10	1	-1E+10	1	-1E+10	1	-1E+10	1	-1E+10	1
4901784	19	C	01/11/2016	10:41	-131.289	45.447	0	580.50	0	4.4650	0	34.1100	0	27.034	0	574.958	0	24.1	4	7.7	4	-1E+10	1	-1E+10	1	-1E+10	1	-1E+10	1	-1E+10	1	-1E+10	1
4901784	19	C	01/11/2016	10:41	-131.289	45.447	0	585.60	0	4.4560	0	34.1140	0	27.038	0	580.002	0	23.5	4	7.5	4	-1E+10	1	-1E+10	1	-1E+10	1	-1E+10	1	-1E+10	1	-1E+10	1
4901784	19	C	01/11/2016	10:41	-131.289	45.447	0	590.60	0	4.4550	0	34.1180	0	27.042	0	584.947	0	22.9	4	7.3	4	-1E+10	1	-1E+10	1	-1E+10	1	-1E+10	1	-1E+10	1	-1E+10	1
4901784	19	C	01/11/2016	10:41	-131.289	45.447	0	595.60	0	4.4460	0	34.1240	0	27.047	0	589.892	0	22.1	4	7.0	4	-1E+10	1	-1E+10	1	-1E+10	1	-1E+10	1	-1E+10	1	-1E+10	1
4901784	19	C	01/11/2016	10:41	-131.289	45.447	0	600.70	0	4.4060	0	34.1290	0	27.056	0	594.936	0	21.5	4	6.8	4	-1E+10	1	-1E+10	1	-1E+10	1	-1E+10	1	-1E+10	1	-1E+10	1
4901784	19	C	01/11/2016	10:41	-131.289	45.447	0	605.10	0	4.3940	0	34.1350	0	27.062	0	599.288	0	21.0	4	6.7	4	-1E+10	1	-1E+10	1	-1E+10	1	-1E+10	1	-1E+10	1	-1E+10	1
4901784	19	C	01/11/2016	10:41	-131.289	45.447	0	609.50	0	4.3850	0	34.1390	0	27.066	0	603.639	0	20.8	4	6.6	4	-1E+10	1	-1E+10	1	-1E+10	1	-1E+10	1	-1E+10	1	-1E+10	1
4901784	19	C	01/11/2016	10:41	-131.289	45.447	0	614.80	0	4.3720	0	34.1410	0	27.069	0	608.880	0	20.7	4	6.6	4	-1E+10	1	-1E+10	1	-1E+10	1	-1E+10	1	-1E+10	1	-1E+10	1
4901784	19	C	01/11/2016	10:41	-131.289	45.447	0	620.30	0	4.3410	0	34.1400	0	27.071	0	614.319	0	20.8	4	6.6	4	-1E+10	1	-1E+10	1	-1E+10	1	-1E+10	1	-1E+10	1	-1E+10	1
4901784	19	C	01/11/2016	10:41	-131.289	45.447	0	625.70	0	4.3230	0	34.1440	0	27.077	0	619.659	0	20.2	4	6.4	4	-1E+10	1	-1E+10	1	-1E+10	1	-1E+10	1	-1E+10	1	-1E+10	1
4901784	19	C	01/11/2016	10:41	-131.289	45.447	0	630.20	0	4.3410	0	34.1490	0	27.079	0	624.109	0	20.0	4	6.4	4	-1E+10	1	-1E+10	1	-1E+10	1	-1E+10	1	-1E+10	1	-1E+10	1
4901784	19	C	01/11/2016	10:41	-131.289	45.447	0	634.70	0	4.3120	0	34.1480	0	27.081	0	628.559	0	19.7	4	6.3	4	-1E+10	1	-1E+10	1	-1E+10	1	-1E+10	1	-1E+10	1	-1E+10	1
4901784	19	C	01/11/2016	10:41	-131.289	45.447	0	640.20	0	4.3160	0	34.1530	0	27.085	0	633.997	0	19.4	4	6.2	4	-1E+10	1	-1E+10	1	-1E+10	1	-1E+10	1	-1E+10	1	-1E+10	1
4901784	19	C	01/11/2016	10:41	-131.289	45.447	0	645.60	0	4.3180	0	34.1540	0	27.085	0	639.336	0	19.2	4	6.1	4	-1E+10	1	-1E+10	1	-1E+10	1	-1E+10	1	-1E+10	1	-1E+10	1
4901784	19	C	01/11/2016	10:41	-131.289	45.447	0	650.20	0	4.2840	0	34.1570	0	27.091	0	643.885	0	19.3	4	6.1	4	-1E+10	1	-1E+10	1	-1E+10	1	-1E+10	1	-1E+10	1	-1E+10	1
4901784	19	C	01/11/2016	10:41	-131.289	45.447	0	654.90	0	4.2500	0	34.1560	0	27.094	0	648.532	0	18.9	4	6.0	4	-1E+10	1	-1E+10	1	-1E+10	1	-1E+10	1	-1E+10	1	-1E+10	1
4901784	19	C	01/11/2016	10:41	-131.289	45.447	0	660.40	0	4.2720	0	34.1640	0	27.098	0	653.970	0	18.0	4	5.7	4	-1E+10	1	-1E+10	1	-1E+10	1	-1E+10	1	-1E+10	1	-1E+10	1
4901784	19	C	01/11/2016	10:41	-131.289	45.447	0	665.10	0	4.2750	0	34.1660	0	27.099	0	658.616	0	17.6	4	5.6	4	-1E+10	1	-1E+10	1	-1E+10	1	-1E+10	1	-1E+10	1	-1E+10	1
4901784	19	C	01/11/2016	10:41	-131.289	45.447	0	670.50	0	4.2720	0	34.1720	0	27.105	0	663.955	0	17.2	4	5.5	4	-1E+10	1	-1E+10	1	-1E+10	1	-1E+10	1	-1E+10	1	-1E+10	1
4901784	19	C	01/11/2016	10:41	-131.289	45.447	0	675.50	0	4.2570	0	34.1750	0	27.109	0	668.898	0	16.9	4	5.4	4	-1E+10	1	-1E+10	1	-1E+10	1	-1E+10	1	-1E+10	1	-1E+10	1
4901784	19	C	01/11/2016	10:41	-131.289	45.447	0	680.20	0	4.2540	0	34.1810	0	27.114	0	673.545	0	16.5	4	5.2	4	-1E+10	1	-1E+10	1	-1E+10	1	-1E+10	1	-1E+10	1	-1E+10	1
4901784	19	C	01/11/2016	10:41	-131.289	45.447	0	685.10	0	4.2290	0	34.1820	0	27.117	0	678.389	0	16.8	4	5.3	4	-1E+10	1	-1E+10	1	-1E+10	1	-1E+10	1	-1E+10	1	-1E+10	1
4901784	19	C	01/11/2016	10:41	-131.289	45.447	0	690.00	0	4.2170	0	34.1830	0	27.119	0	683.233	0	16.9	4	5.4	4	-1E+10	1	-1E+10	1	-1E+10	1	-1E+10	1	-1E+10	1	-1E+10	1
4901784	19	C	01/11/2016	10:41	-131.289	45.447	0	694.90	0	4.1700	0	34.1800	0	27.122	0	688.077	0	17.2	4	5.5	4	-1E+10	1	-1E+10	1	-1E+10	1	-1E+10	1	-1E+10	1	-1E+10	1
4901784	19	C	01/11/2016	10:41	-131.289	45.447	0	699.70	0	4.1460	0	34.1820	0	27.126	0	692.822	0	17.4	4	5.5	4	-1E+10	1	-1E+10	1	-1E+10	1	-1E+10	1	-1E+10	1	-1E+10	1
4901784	19	C	01/11/2016	10:41	-131.289	45.447	0	704.60	0	4.1310	0	34.1810	0	27.127	0	697.665	0	17.6	4	5.6	4	-1E+10	1	-1E+10	1	-1E+10	1	-1E+10	1	-1E+10	1	-1E+10	1
4901784	19	C	01/11/2016	10:41	-131.289	45.447	0	709.50	0	4.1070	0	34.1800	0	27.128	0	702.509	0	17.7	4	5.6	4	-1E+10	1	-1E+10	1	-1E+10	1	-1E+10	1	-1E+10	1	-1E+10	1
4901784	19	C	01/11/2016	10:41	-131.289	45.447	0	714.50	0	4.0640	0	34.1820	0	27.134	0	707.451	0	17.6	4	5.6	4	-1E+10	1	-1E+10	1	-1E+10	1	-1E+10	1	-1E+10	1	-1E+10	1
4901784	19	C	01/11/2016	10:41	-131.289	45.447	0	719.60	0	4.0820	0	34.1880	0	27.137	0	712.492	0	17.1	4	5.4	4	-1E+10	1	-1E+10	1	-1E+10	1	-1E+10	1	-1E+10	1	-1E+10	1
4901784	19	C	01/11/2016	10:41	-131.289	45.447	0	724.80	0	4.0390	0	34.1880	0	27.142	0	717.632	0	16.7	4	5.3	4	-1E+10	1	-1E+10	1	-1E+10	1	-1E+10	1	-1E+10	1	-1E+10	1
4901784	19	C	01/11/2016	10:41	-131.289	45.447	0	729.90	0	4.0700	0	34.1990	0	27.147	0	722.673	0	15.7	4	5.0	4	-1E+10	1	-1E+10	1	-1E+10	1	-1E+10	1	-1E+10	1	-1E+10	1
4901784	19	C	01/11/2016	10:41	-131.289	45.447	0	735.10	0	4.0730	0	34.2010	0	27.149	0	727.812	0	15.4	4	4.9	4	-1E+10	1	-1E+10	1	-1E+10	1	-1E+10	1	-1E+10	1	-1E+10	1
4901784	19	C	01/11/2016	10:41	-131.289	45.447	0	740.20	0	4.0490	0	34.2030	0	27.153	0	732.853	0	15.2	4	4.8	4	-1E+10	1	-1E+10	1	-1E+10	1	-1E+10	1	-1E+10	1	-1E+10	1
4901784	19	C	01/11/2016	10:41	-131.289	45.447	0	745.40	0	4.0280	0	34.2100	0	27.161	0	737.992	0	14.9	4	4.7	4	-1E+10	1	-1E+10	1	-1E+10	1	-1E+10	1	-1E+10	1	-1E+10	1
4901784	19	C	01/11/2016	10:41	-131.289	45.447	0	750.60	0	4.0130	0	34.2140	0	27.165	0	743.131	0	14.7	4	4.7	4	-1E+10	1	-1E+10	1	-1E+10	1	-1E+10	1	-1E+10	1	-1E+10	1
4901784	19	C	01/11/2016	10:41	-131.289	45.447	0	754.90	0	4.0100	0	34.2150	0	27.166	0	747.380	0	14.6	4	4.6	4	-1E+10	1	-1E+10	1	-1E+10	1	-1E+10	1	-1E+10	1	-1E+10	1
4901784	19	C	01/11/2016	10:41	-131.289	45.447	0	759.30	0	3.9920	0	34.2190	0	27.171	0	751.729	0	14.4	4	4.6	4	-1E+10	1	-1E+10	1	-1E+10	1	-1E+10	1	-1E+10	1	-1E+10	1
4901784	19	C	01/11/2016	10:41	-131.289	45.447	0	764.60	0	3.9670	0	34.2240	0	27.178	0	756.966	0	14.3	4	4.5	4	-1E+10	1	-1E+10	1	-1E+10	1	-1E+10	1	-1E+10	1	-1E+10	1
4901784	19	C	01/11/2016	10:41	-131.289	45.447	0	769.90	0	3.9490	0	34.2250	0	27.181	0	762.203	0	14.2	4	4.5	4	-1E+10	1	-1E+10	1	-1E+10	1	-1E+10	1	-1E+10	1	-1E+10	1
4901784	19	C	01/11/2016	10:41	-131.289	45.447	0	775.20	0	3.9220	0	34.2290	0	27.187	0	767.441	0	14.0	4	4.4	4	-1E+10	1	-1E+10	1	-1E+10	1	-1E+10	1	-1E+10	1	-1E+10	1
4901784	19	C	01/11/2016	10:41	-131.289	45.447	0	780.50	0	3.9070	0	34.2330	0	27.191	0	772.678	0	13.8	4	4.4	4	-1E+10	1	-1E+10	1	-1E+10	1	-1E+10	1	-1E+10	1	-1E+10	1
4901784	19	C	01/11/2016	10:41	-131.289	45.447	0	784.90	0	3.8920	0	34.2360	0	27.195	0	777.026	0	13.6	4	4.3	4	-1E+10	1	-1E+10	1	-1E+10	1	-1E+10	1	-1E+10	1	-1E+10	1
4901784	19	C	01/11/2016	10:41	-131.289	45.447	0	789.30	0	3.8800	0	34.2410	0	27.201	0	781.373	0	13.4	4	4.2	4	-1E+10	1	-1E+10	1	-1E+10	1	-1E+10	1	-1E+10	1	-1E+10	1
4901784	19	C	01/11/2016	10:41	-131.289	45.447	0	794.50	0	3.8630	0	34.2460	0	27.206	0	786.511	0	13.3	4	4.2	4	-1E+10	1	-1E+10	1	-1E+10	1	-1E+10	1	-1E+10	1	-1E+10	1
4901784	19	C	01/11/2016	10:41	-131.289	45.447	0	799.80	0	3.8560	0	34.2470	0	27.208	0	791.748	0	13.2	4	4.2	4	-1E+10	1	-1E+10	1	-1E+10	1	-1E+10	1	-1E+10	1	-1E+10	1
4901784	19	C	01/11/2016	10:41	-131.289	45.447	0	805.20	0	3.8440	0	34.2490	0	27.211	0	797.083	0	13.2	4	4.1	4	-1E+10	1	-1E+10	1	-1E+10	1	-1E+10	1	-1E+10	1	-1E+10	1
4901784	19	C	01/11/2016	10:41	-131.289	45.447	0	810.60	0	3.8360	0	34.2490	0	27.211	0	802.418	0	13.1	4	4.1	4	-1E+10	1	-1E+10	1	-1E+10	1	-1E+10	1	-1E+10	1	-1E+10	1
4901784	19	C	01/11/2016	10:41	-131.289	45.447	0	815.10	0	3.8120	0	34.2540	0	27.218	0	806.864	0	12.9	4	4.1	4	-1E+10	1	-1E+10	1	-1E+10	1	-1E+10	1	-1E+10	1	-1E+10	1
4901784	19	C	01/11/2016	10:41	-131.289	45.447	0	819.60	0	3.7890	0	34.2590	0	27.224	0	811.310	0	12.7	4	4.0	4	-1E+10	1	-1E+10	1	-1E+10	1	-1E+10	1	-1E+10	1	-1E+10	1
4901784	19	C	01/11/2016	10:41	-131.289	45.447	0	825.10	0	3.7650	0	34.2660	0	27.232	0	816.744	0	12.6	4	4.0	4	-1E+10	1	-1E+10	1	-1E+10	1	-1E+10	1	-1E+10	1	-1E+10	1
4901784	19	C	01/11/2016	10:41	-131.289	45.447	0	830.50	0	3.7490	0	34.2700	0	27.237	0	822.078	0	12.5	4	3.9	4	-1E+10	1	-1E+10	1	-1E+10	1	-1E+10	1	-1E+10	1	-1E+10	1
4901784	19	C	01/11/2016	10:41	-131.289	45.447	0	835.10	0	3.7390	0	34.2720	0	27.240	0	826.623	0	12.4	4	3.9	4	-1E+10	1	-1E+10	1	-1E+10	1	-1E+10	1	-1E+10	1	-1E+10	1
4901784	19	C	01/11/2016	10:41	-131.289	45.447	0	839.70	0	3.7320	0	34.2740	0	27.242	0	831.167	0	12.4	4	3.9	4	-1E+10	1	-1E+10	1	-1E+10	1	-1E+10	1	-1E+10	1	-1E+10	1
4901784	19	C	01/11/2016	10:41	-131.289	45.447	0	845.40	0	3.7240	0	34.2760	0	27.244	0	836.798	0	12.3	4	3.9	4	-1E+10	1	-1E+10	1	-1E+10	1	-1E+10	1	-1E+10	1	-1E+10	1
4901784	19	C	01/11/2016	10:41	-131.289	45.447	0	850.10	0	3.7180	0	34.2770	0	27.246	0	841.440	0	12.3	4	3.9	4	-1E+10	1	-1E+10	1	-1E+10	1	-1E+10	1	-1E+10	1	-1E+10	1
4901784	19	C	01/11/2016	10:41	-131.289	45.447	0	854.80	0	3.7060	0	34.2800	0	27.249	0	846.083	0	12.2	4	3.8	4	-1E+10	1	-1E+10	1	-1E+10	1	-1E+10	1	-1E+10	1	-1E+10	1
4901784	19	C	01/11/2016	10:41	-131.289	45.447	0	860.10	0	3.6930	0	34.2830	0	27.253	0	851.318	0	12.2	4	3.8	4	-1E+10	1	-1E+10	1	-1E+10	1	-1E+10	1	-1E+10	1	-1E+10	1
4901784	19	C	01/11/2016	10:41	-131.289	45.447	0	864.30	0	3.6890	0	34.2840	0	27.254	0	855.467	0	12.2	4	3.8	4	-1E+10	1	-1E+10	1	-1E+10	1	-1E+10	1	-1E+10	1	-1E+10	1
4901784	19	C	01/11/2016	10:41	-131.289	45.447	0	870.00	0	3.6880	0	34.2840	0	27.254	0	861.097	0	12.2	4	3.8	4	-1E+10	1	-1E+10	1	-1E+10	1	-1E+10	1	-1E+10	1	-1E+10	1
4901784	19	C	01/11/2016	10:41	-131.289	45.447	0	875.60	0	3.6800	0	34.2850	0	27.256	0	866.628	0	12.2	4	3.8	4	-1E+10	1	-1E+10	1	-1E+10	1	-1E+10	1	-1E+10	1	-1E+10	1
4901784	19	C	01/11/2016	10:41	-131.289	45.447	0	880.50	0	3.6560	0	34.2880	0	27.261	0	871.467	0	12.2	4	3.8	4	-1E+10	1	-1E+10	1	-1E+10	1	-1E+10	1	-1E+10	1	-1E+10	1
4901784	19	C	01/11/2016	10:41	-131.289	45.447	0	885.40	0	3.6370	0	34.2910	0	27.265	0	876.307	0	12.2	4	3.8	4	-1E+10	1	-1E+10	1	-1E+10	1	-1E+10	1	-1E+10	1	-1E+10	1
4901784	19	C	01/11/2016	10:41	-131.289	45.447	0	890.30	0	3.6160	0	34.2940	0	27.270	0	881.146	0	12.1	4	3.8	4	-1E+10	1	-1E+10	1	-1E+10	1	-1E+10	1	-1E+10	1	-1E+10	1
4901784	19	C	01/11/2016	10:41	-131.289	45.447	0	895.30	0	3.5910	0	34.2990	0	27.276	0	886.084	0	12.1	4	3.8	4	-1E+10	1	-1E+10	1	-1E+10	1	-1E+10	1	-1E+10	1	-1E+10	1
4901784	19	C	01/11/2016	10:41	-131.289	45.447	0	900.40	0	3.5790	0	34.3020	0	27.280	0	891.121	0	12.1	4	3.8	4	-1E+10	1	-1E+10	1	-1E+10	1	-1E+10	1	-1E+10	1	-1E+10	1
4901784	19	C	01/11/2016	10:41	-131.289	45.447	0	905.40	0	3.5690	0	34.3030	0	27.281	0	896.059	0	12.1	4	3.8	4	-1E+10	1	-1E+10	1	-1E+10	1	-1E+10	1	-1E+10	1	-1E+10	1
4901784	19	C	01/11/2016	10:41	-131.289	45.447	0	910.40	0	3.5630	0	34.3040	0	27.283	0	900.996	0	12.1	4	3.8	4	-1E+10	1	-1E+10	1	-1E+10	1	-1E+10	1	-1E+10	1	-1E+10	1
4901784	19	C	01/11/2016	10:41	-131.289	45.447	0	915.40	0	3.5550	0	34.3060	0	27.285	0	905.934	0	12.1	4	3.8	4	-1E+10	1	-1E+10	1	-1E+10	1	-1E+10	1	-1E+10	1	-1E+10	1
4901784	19	C	01/11/2016	10:41	-131.289	45.447	0	920.40	0	3.5490	0	34.3070	0	27.287	0	910.871	0	12.1	4	3.8	4	-1E+10	1	-1E+10	1	-1E+10	1	-1E+10	1	-1E+10	1	-1E+10	1
4901784	19	C	01/11/2016	10:41	-131.289	45.447	0	925.40	0	3.5440	0	34.3090	0	27.289	0	915.808	0	12.0	4	3.7	4	-1E+10	1	-1E+10	1	-1E+10	1	-1E+10	1	-1E+10	1	-1E+10	1
4901784	19	C	01/11/2016	10:41	-131.289	45.447	0	930.40	0	3.5320	0	34.3130	0	27.293	0	920.746	0	11.9	4	3.7	4	-1E+10	1	-1E+10	1	-1E+10	1	-1E+10	1	-1E+10	1	-1E+10	1
4901784	19	C	01/11/2016	10:41	-131.289	45.447	0	935.40	0	3.5240	0	34.3130	0	27.294	0	925.683	0	12.0	4	3.7	4	-1E+10	1	-1E+10	1	-1E+10	1	-1E+10	1	-1E+10	1	-1E+10	1
4901784	19	C	01/11/2016	10:41	-131.289	45.447	0	940.50	0	3.5120	0	34.3140	0	27.296	0	930.718	0	12.0	4	3.7	4	-1E+10	1	-1E+10	1	-1E+10	1	-1E+10	1	-1E+10	1	-1E+10	1
4901784	19	C	01/11/2016	10:41	-131.289	45.447	0	945.70	0	3.4840	0	34.3150	0	27.299	0	935.853	0	12.0	4	3.8	4	-1E+10	1	-1E+10	1	-1E+10	1	-1E+10	1	-1E+10	1	-1E+10	1
4901784	19	C	01/11/2016	10:41	-131.289	45.447	0	950.00	0	3.4710	0	34.3160	0	27.301	0	940.098	0	12.0	4	3.7	4	-1E+10	1	-1E+10	1	-1E+10	1	-1E+10	1	-1E+10	1	-1E+10	1
4901784	19	C	01/11/2016	10:41	-131.289	45.447	0	954.20	0	3.4550	0	34.3180	0	27.305	0	944.245	0	12.0	4	3.7	4	-1E+10	1	-1E+10	1	-1E+10	1	-1E+10	1	-1E+10	1	-1E+10	1
4901784	19	C	01/11/2016	10:41	-131.289	45.447	0	959.40	0	3.4480	0	34.3220	0	27.308	0	949.379	0	11.9	4	3.7	4	-1E+10	1	-1E+10	1	-1E+10	1	-1E+10	1	-1E+10	1	-1E+10	1
4901784	19	C	01/11/2016	10:41	-131.289	45.447	0	964.60	0	3.4610	0	34.3300	0	27.314	0	954.513	0	11.7	4	3.7	4	-1E+10	1	-1E+10	1	-1E+10	1	-1E+10	1	-1E+10	1	-1E+10	1
4901784	19	C	01/11/2016	10:41	-131.289	45.447	0	969.80	0	3.4650	0	34.3370	0	27.319	0	959.647	0	11.6	4	3.6	4	-1E+10	1	-1E+10	1	-1E+10	1	-1E+10	1	-1E+10	1	-1E+10	1
4901784	19	C	01/11/2016	10:41	-131.289	45.447	0	975.10	0	3.4640	0	34.3400	0	27.321	0	964.879	0	11.6	4	3.6	4	-1E+10	1	-1E+10	1	-1E+10	1	-1E+10	1	-1E+10	1	-1E+10	1
4901784	19	C	01/11/2016	10:41	-131.289	45.447	0	980.40	0	3.4520	0	34.3390	0	27.322	0	970.111	0	11.7	4	3.7	4	-1E+10	1	-1E+10	1	-1E+10	1	-1E+10	1	-1E+10	1	-1E+10	1
4901784	19	C	01/11/2016	10:41	-131.289	45.447	0	985.70	0	3.4160	0	34.3380	0	27.324	0	975.343	0	11.8	4	3.7	4	-1E+10	1	-1E+10	1	-1E+10	1	-1E+10	1	-1E+10	1	-1E+10	1
4901784	19	C	01/11/2016	10:41	-131.289	45.447	0	990.10	0	3.4110	0	34.3370	0	27.324	0	979.687	0	11.8	4	3.7	4	-1E+10	1	-1E+10	1	-1E+10	1	-1E+10	1	-1E+10	1	-1E+10	1
4901784	19	C	01/11/2016	10:41	-131.289	45.447	0	994.70	0	3.3940	0	34.3370	0	27.326	0	984.227	0	11.8	4	3.7	4	-1E+10	1	-1E+10	1	-1E+10	1	-1E+10	1	-1E+10	1	-1E+10	1
4901784	19	C	01/11/2016	10:41	-131.289	45.447	0	1000.10	0	3.3620	0	34.3430	0	27.334	0	989.558	0	11.9	4	3.7	4	-1E+10	1	-1E+10	1	-1E+10	1	-1E+10	1	-1E+10	1	-1E+10	1
4901784	19	C	01/11/2016	10:41	-131.289	45.447	0	1005.50	0	3.3590	0	34.3460	0	27.336	0	994.888	0	11.8	4	3.7	4	-1E+10	1	-1E+10	1	-1E+10	1	-1E+10	1	-1E+10	1	-1E+10	1
4901784	19	C	01/11/2016	10:41	-131.289	45.447	0	1010.00	0	3.3580	0	34.3470	0	27.337	0	999.330	0	11.8	4	3.7	4	-1E+10	1	-1E+10	1	-1E+10	1	-1E+10	1	-1E+10	1	-1E+10	1
4901784	19	C	01/11/2016	10:41	-131.289	45.447	0	1014.60	0	3.3530	0	34.3490	0	27.339	0	1003.870	0	11.8	4	3.7	4	-1E+10	1	-1E+10	1	-1E+10	1	-1E+10	1	-1E+10	1	-1E+10	1
4901784	19	C	01/11/2016	10:41	-131.289	45.447	0	1020.10	0	3.3470	0	34.3530	0	27.343	0	1009.299	0	11.8	4	3.7	4	-1E+10	1	-1E+10	1	-1E+10	1	-1E+10	1	-1E+10	1	-1E+10	1
4901784	19	C	01/11/2016	10:41	-131.289	45.447	0	1025.50	0	3.3400	0	34.3570	0	27.347	0	1014.629	0	11.9	4	3.7	4	-1E+10	1	-1E+10	1	-1E+10	1	-1E+10	1	-1E+10	1	-1E+10	1
4901784	19	C	01/11/2016	10:41	-131.289	45.447	0	1030.10	0	3.3190	0	34.3610	0	27.352	0	1019.169	0	11.9	4	3.7	4	-1E+10	1	-1E+10	1	-1E+10	1	-1E+10	1	-1E+10	1	-1E+10	1
4901784	19	C	01/11/2016	10:41	-131.289	45.447	0	1034.70	0	3.3090	0	34.3620	0	27.354	0	1023.709	0	12.0	4	3.7	4	-1E+10	1	-1E+10	1	-1E+10	1	-1E+10	1	-1E+10	1	-1E+10	1
4901784	19	C	01/11/2016	10:41	-131.289	45.447	0	1040.20	0	3.3060	0	34.3640	0	27.356	0	1029.137	0	12.0	4	3.7	4	-1E+10	1	-1E+10	1	-1E+10	1	-1E+10	1	-1E+10	1	-1E+10	1
4901784	19	C	01/11/2016	10:41	-131.289	45.447	0	1044.80	0	3.3050	0	34.3650	0	27.357	0	1033.676	0	12.0	4	3.7	4	-1E+10	1	-1E+10	1	-1E+10	1	-1E+10	1	-1E+10	1	-1E+10	1
4901784	19	C	01/11/2016	10:41	-131.289	45.447	0	1049.40	0	3.3020	0	34.3680	0	27.360	0	1038.216	0	12.0	4	3.7	4	-1E+10	1	-1E+10	1	-1E+10	1	-1E+10	1	-1E+10	1	-1E+10	1
4901784	19	C	01/11/2016	10:41	-131.289	45.447	0	1054.90	0	3.3180	0	34.3730	0	27.362	0	1043.644	0	12.1	4	3.8	4	-1E+10	1	-1E+10	1	-1E+10	1	-1E+10	1	-1E+10	1	-1E+10	1
4901784	19	C	01/11/2016	10:41	-131.289	45.447	0	1060.40	0	3.3240	0	34.3780	0	27.366	0	1049.071	0	12.1	4	3.8	4	-1E+10	1	-1E+10	1	-1E+10	1	-1E+10	1	-1E+10	1	-1E+10	1
4901784	19	C	01/11/2016	10:41	-131.289	45.447	0	1064.90	0	3.3140	0	34.3780	0	27.367	0	1053.512	0	12.2	4	3.8	4	-1E+10	1	-1E+10	1	-1E+10	1	-1E+10	1	-1E+10	1	-1E+10	1
4901784	19	C	01/11/2016	10:41	-131.289	45.447	0	1069.80	0	3.3070	0	34.3780	0	27.367	0	1058.347	0	12.2	4	3.8	4	-1E+10	1	-1E+10	1	-1E+10	1	-1E+10	1	-1E+10	1	-1E+10	1
4901784	19	C	01/11/2016	10:41	-131.289	45.447	0	1074.90	0	3.2690	0	34.3780	0	27.371	0	1063.380	0	12.3	4	3.8	4	-1E+10	1	-1E+10	1	-1E+10	1	-1E+10	1	-1E+10	1	-1E+10	1
4901784	19	C	01/11/2016	10:41	-131.289	45.447	0	1079.70	0	3.2520	0	34.3800	0	27.374	0	1068.116	0	12.3	4	3.8	4	-1E+10	1	-1E+10	1	-1E+10	1	-1E+10	1	-1E+10	1	-1E+10	1
4901784	19	C	01/11/2016	10:41	-131.289	45.447	0	1084.50	0	3.2290	0	34.3830	0	27.379	0	1072.852	0	12.4	4	3.9	4	-1E+10	1	-1E+10	1	-1E+10	1	-1E+10	1	-1E+10	1	-1E+10	1
4901784	19	C	01/11/2016	10:41	-131.289	45.447	0	1089.80	0	3.2110	0	34.3850	0	27.382	0	1078.082	0	12.5	4	3.9	4	-1E+10	1	-1E+10	1	-1E+10	1	-1E+10	1	-1E+10	1	-1E+10	1
4901784	19	C	01/11/2016	10:41	-131.289	45.447	0	1095.10	0	3.1980	0	34.3860	0	27.384	0	1083.311	0	12.6	4	3.9	4	-1E+10	1	-1E+10	1	-1E+10	1	-1E+10	1	-1E+10	1	-1E+10	1
4901784	19	C	01/11/2016	10:41	-131.289	45.447	0	1100.40	0	3.1800	0	34.3890	0	27.388	0	1088.540	0	12.7	4	3.9	4	-1E+10	1	-1E+10	1	-1E+10	1	-1E+10	1	-1E+10	1	-1E+10	1
4901784	19	C	01/11/2016	10:41	-131.289	45.447	0	1104.90	0	3.1700	0	34.3910	0	27.390	0	1092.980	0	12.8	4	4.0	4	-1E+10	1	-1E+10	1	-1E+10	1	-1E+10	1	-1E+10	1	-1E+10	1
4901784	19	C	01/11/2016	10:41	-131.289	45.447	0	1109.40	0	3.1590	0	34.3930	0	27.393	0	1097.420	0	12.9	4	4.0	4	-1E+10	1	-1E+10	1	-1E+10	1	-1E+10	1	-1E+10	1	-1E+10	1
4901784	19	C	01/11/2016	10:41	-131.289	45.447	0	1115.00	0	3.1440	0	34.3950	0	27.396	0	1102.945	0	13.0	4	4.0	4	-1E+10	1	-1E+10	1	-1E+10	1	-1E+10	1	-1E+10	1	-1E+10	1
4901784	19	C	01/11/2016	10:41	-131.289	45.447	0	1120.40	0	3.1250	0	34.3990	0	27.401	0	1108.272	0	13.2	4	4.1	4	-1E+10	1	-1E+10	1	-1E+10	1	-1E+10	1	-1E+10	1	-1E+10	1
4901784	19	C	01/11/2016	10:41	-131.289	45.447	0	1124.90	0	3.1100	0	34.4010	0	27.404	0	1112.711	0	13.3	4	4.1	4	-1E+10	1	-1E+10	1	-1E+10	1	-1E+10	1	-1E+10	1	-1E+10	1
4901784	19	C	01/11/2016	10:41	-131.289	45.447	0	1129.50	0	3.1030	0	34.4040	0	27.407	0	1117.249	0	13.4	4	4.1	4	-1E+10	1	-1E+10	1	-1E+10	1	-1E+10	1	-1E+10	1	-1E+10	1
4901784	19	C	01/11/2016	10:41	-131.289	45.447	0	1135.10	0	3.0970	0	34.4050	0	27.409	0	1122.774	0	13.5	4	4.2	4	-1E+10	1	-1E+10	1	-1E+10	1	-1E+10	1	-1E+10	1	-1E+10	1
4901784	19	C	01/11/2016	10:41	-131.289	45.447	0	1140.60	0	3.0880	0	34.4060	0	27.410	0	1128.199	0	13.6	4	4.2	4	-1E+10	1	-1E+10	1	-1E+10	1	-1E+10	1	-1E+10	1	-1E+10	1
4901784	19	C	01/11/2016	10:41	-131.289	45.447	0	1145.20	0	3.0750	0	34.4090	0	27.414	0	1132.737	0	13.7	4	4.3	4	-1E+10	1	-1E+10	1	-1E+10	1	-1E+10	1	-1E+10	1	-1E+10	1
4901784	19	C	01/11/2016	10:41	-131.289	45.447	0	1149.90	0	3.0690	0	34.4110	0	27.416	0	1137.373	0	13.9	4	4.3	4	-1E+10	1	-1E+10	1	-1E+10	1	-1E+10	1	-1E+10	1	-1E+10	1
4901784	19	C	01/11/2016	10:41	-131.289	45.447	0	1154.60	0	3.0620	0	34.4120	0	27.417	0	1142.009	0	14.0	4	4.3	4	-1E+10	1	-1E+10	1	-1E+10	1	-1E+10	1	-1E+10	1	-1E+10	1
4901784	19	C	01/11/2016	10:41	-131.289	45.447	0	1159.50	0	3.0490	0	34.4140	0	27.420	0	1146.842	0	14.1	4	4.4	4	-1E+10	1	-1E+10	1	-1E+10	1	-1E+10	1	-1E+10	1	-1E+10	1
4901784	19	C	01/11/2016	10:41	-131.289	45.447	0	1165.40	0	3.0350	0	34.4160	0	27.423	0	1152.662	0	14.3	4	4.4	4	-1E+10	1	-1E+10	1	-1E+10	1	-1E+10	1	-1E+10	1	-1E+10	1
4901784	19	C	01/11/2016	10:41	-131.289	45.447	0	1170.20	0	3.0250	0	34.4180	0	27.426	0	1157.396	0	14.4	4	4.4	4	-1E+10	1	-1E+10	1	-1E+10	1	-1E+10	1	-1E+10	1	-1E+10	1
4901784	19	C	01/11/2016	10:41	-131.289	45.447	0	1175.10	0	3.0210	0	34.4190	0	27.427	0	1162.229	0	14.5	4	4.5	4	-1E+10	1	-1E+10	1	-1E+10	1	-1E+10	1	-1E+10	1	-1E+10	1
4901784	19	C	01/11/2016	10:41	-131.289	45.447	0	1180.00	0	3.0130	0	34.4210	0	27.429	0	1167.061	0	14.6	4	4.5	4	-1E+10	1	-1E+10	1	-1E+10	1	-1E+10	1	-1E+10	1	-1E+10	1
4901784	19	C	01/11/2016	10:41	-131.289	45.447	0	1184.90	0	3.0050	0	34.4220	0	27.431	0	1171.894	0	14.7	4	4.5	4	-1E+10	1	-1E+10	1	-1E+10	1	-1E+10	1	-1E+10	1	-1E+10	1
4901784	19	C	01/11/2016	10:41	-131.289	45.447	0	1189.90	0	2.9990	0	34.4240	0	27.433	0	1176.825	0	14.8	4	4.6	4	-1E+10	1	-1E+10	1	-1E+10	1	-1E+10	1	-1E+10	1	-1E+10	1
4901784	19	C	01/11/2016	10:41	-131.289	45.447	0	1194.80	0	2.9880	0	34.4250	0	27.435	0	1181.658	0	14.9	4	4.6	4	-1E+10	1	-1E+10	1	-1E+10	1	-1E+10	1	-1E+10	1	-1E+10	1
4901784	19	C	01/11/2016	10:41	-131.289	45.447	0	1199.70	0	2.9840	0	34.4260	0	27.436	0	1186.490	0	15.1	4	4.7	4	-1E+10	1	-1E+10	1	-1E+10	1	-1E+10	1	-1E+10	1	-1E+10	1
4901784	19	C	01/11/2016	10:41	-131.289	45.447	0	1204.70	0	2.9710	0	34.4280	0	27.439	0	1191.421	0	15.3	4	4.7	4	-1E+10	1	-1E+10	1	-1E+10	1	-1E+10	1	-1E+10	1	-1E+10	1
4901784	19	C	01/11/2016	10:41	-131.289	45.447	0	1209.70	0	2.9580	0	34.4300	0	27.441	0	1196.351	0	15.4	4	4.8	4	-1E+10	1	-1E+10	1	-1E+10	1	-1E+10	1	-1E+10	1	-1E+10	1
4901784	19	C	01/11/2016	10:41	-131.289	45.447	0	1214.90	0	2.9450	0	34.4320	0	27.444	0	1201.479	0	15.5	4	4.8	4	-1E+10	1	-1E+10	1	-1E+10	1	-1E+10	1	-1E+10	1	-1E+10	1
4901784	19	C	01/11/2016	10:41	-131.289	45.447	0	1220.10	0	2.9390	0	34.4330	0	27.446	0	1206.607	0	15.6	4	4.8	4	-1E+10	1	-1E+10	1	-1E+10	1	-1E+10	1	-1E+10	1	-1E+10	1
4901784	19	C	01/11/2016	10:41	-131.289	45.447	0	1224.80	0	2.9310	0	34.4340	0	27.447	0	1211.241	0	15.7	4	4.8	4	-1E+10	1	-1E+10	1	-1E+10	1	-1E+10	1	-1E+10	1	-1E+10	1
4901784	19	C	01/11/2016	10:41	-131.289	45.447	0	1229.60	0	2.9240	0	34.4350	0	27.449	0	1215.974	0	15.8	4	4.9	4	-1E+10	1	-1E+10	1	-1E+10	1	-1E+10	1	-1E+10	1	-1E+10	1
4901784	19	C	01/11/2016	10:41	-131.289	45.447	0	1234.50	0	2.9170	0	34.4350	0	27.449	0	1220.806	0	15.8	4	4.9	4	-1E+10	1	-1E+10	1	-1E+10	1	-1E+10	1	-1E+10	1	-1E+10	1
4901784	19	C	01/11/2016	10:41	-131.289	45.447	0	1239.40	0	2.9120	0	34.4350	0	27.450	0	1225.637	0	15.8	4	4.9	4	-1E+10	1	-1E+10	1	-1E+10	1	-1E+10	1	-1E+10	1	-1E+10	1
4901784	19	C	01/11/2016	10:41	-131.289	45.447	0	1244.30	0	2.9000	0	34.4350	0	27.451	0	1230.468	0	15.9	4	4.9	4	-1E+10	1	-1E+10	1	-1E+10	1	-1E+10	1	-1E+10	1	-1E+10	1
4901784	19	C	01/11/2016	10:41	-131.289	45.447	0	1249.30	0	2.8980	0	34.4370	0	27.453	0	1235.398	0	16.1	4	5.0	4	-1E+10	1	-1E+10	1	-1E+10	1	-1E+10	1	-1E+10	1	-1E+10	1
4901784	19	C	01/11/2016	10:41	-131.289	45.447	0	1254.30	0	2.8840	0	34.4390	0	27.456	0	1240.328	0	16.3	4	5.0	4	-1E+10	1	-1E+10	1	-1E+10	1	-1E+10	1	-1E+10	1	-1E+10	1
4901784	19	C	01/11/2016	10:41	-131.289	45.447	0	1259.40	0	2.8660	0	34.4410	0	27.459	0	1245.356	0	16.4	4	5.1	4	-1E+10	1	-1E+10	1	-1E+10	1	-1E+10	1	-1E+10	1	-1E+10	1
4901784	19	C	01/11/2016	10:41	-131.289	45.447	0	1264.50	0	2.8500	0	34.4420	0	27.461	0	1250.384	0	16.5	4	5.1	4	-1E+10	1	-1E+10	1	-1E+10	1	-1E+10	1	-1E+10	1	-1E+10	1
4901784	19	C	01/11/2016	10:41	-131.289	45.447	0	1269.70	0	2.8460	0	34.4430	0	27.462	0	1255.510	0	16.6	4	5.1	4	-1E+10	1	-1E+10	1	-1E+10	1	-1E+10	1	-1E+10	1	-1E+10	1
4901784	19	C	01/11/2016	10:41	-131.289	45.447	0	1274.80	0	2.8420	0	34.4430	0	27.463	0	1260.538	0	16.7	4	5.1	4	-1E+10	1	-1E+10	1	-1E+10	1	-1E+10	1	-1E+10	1	-1E+10	1
4901784	19	C	01/11/2016	10:41	-131.289	45.447	0	1279.90	0	2.8340	0	34.4440	0	27.464	0	1265.566	0	16.8	4	5.2	4	-1E+10	1	-1E+10	1	-1E+10	1	-1E+10	1	-1E+10	1	-1E+10	1
4901784	19	C	01/11/2016	10:41	-131.289	45.447	0	1285.10	0	2.8160	0	34.4450	0	27.466	0	1270.692	0	17.0	4	5.2	4	-1E+10	1	-1E+10	1	-1E+10	1	-1E+10	1	-1E+10	1	-1E+10	1
4901784	19	C	01/11/2016	10:41	-131.289	45.447	0	1290.30	0	2.8050	0	34.4470	0	27.469	0	1275.818	0	17.2	4	5.3	4	-1E+10	1	-1E+10	1	-1E+10	1	-1E+10	1	-1E+10	1	-1E+10	1
4901784	19	C	01/11/2016	10:41	-131.289	45.447	0	1295.40	0	2.7920	0	34.4490	0	27.472	0	1280.845	0	17.4	4	5.4	4	-1E+10	1	-1E+10	1	-1E+10	1	-1E+10	1	-1E+10	1	-1E+10	1
4901784	19	C	01/11/2016	10:41	-131.289	45.447	0	1300.70	0	2.7870	0	34.4500	0	27.473	0	1286.069	0	17.6	4	5.4	4	-1E+10	1	-1E+10	1	-1E+10	1	-1E+10	1	-1E+10	1	-1E+10	1
4901784	19	C	01/11/2016	10:41	-131.289	45.447	0	1305.10	0	2.7800	0	34.4510	0	27.475	0	1290.406	0	17.9	4	5.5	4	-1E+10	1	-1E+10	1	-1E+10	1	-1E+10	1	-1E+10	1	-1E+10	1
4901784	19	C	01/11/2016	10:41	-131.289	45.447	0	1309.50	0	2.7690	0	34.4540	0	27.478	0	1294.743	0	18.1	4	5.5	4	-1E+10	1	-1E+10	1	-1E+10	1	-1E+10	1	-1E+10	1	-1E+10	1
4901784	19	C	01/11/2016	10:41	-131.289	45.447	0	1314.80	0	2.7660	0	34.4550	0	27.479	0	1299.967	0	18.2	4	5.6	4	-1E+10	1	-1E+10	1	-1E+10	1	-1E+10	1	-1E+10	1	-1E+10	1
4901784	19	C	01/11/2016	10:41	-131.289	45.447	0	1320.10	0	2.7630	0	34.4550	0	27.479	0	1305.191	0	18.5	4	5.7	4	-1E+10	1	-1E+10	1	-1E+10	1	-1E+10	1	-1E+10	1	-1E+10	1
4901784	19	C	01/11/2016	10:41	-131.289	45.447	0	1325.50	0	2.7500	0	34.4580	0	27.483	0	1310.513	0	18.9	4	5.8	4	-1E+10	1	-1E+10	1	-1E+10	1	-1E+10	1	-1E+10	1	-1E+10	1
4901784	19	C	01/11/2016	10:41	-131.289	45.447	0	1330.00	0	2.7410	0	34.4600	0	27.485	0	1314.948	0	19.3	4	5.9	4	-1E+10	1	-1E+10	1	-1E+10	1	-1E+10	1	-1E+10	1	-1E+10	1
4901784	19	C	01/11/2016	10:41	-131.289	45.447	0	1334.60	0	2.7260	0	34.4620	0	27.488	0	1319.482	0	19.6	4	6.0	4	-1E+10	1	-1E+10	1	-1E+10	1	-1E+10	1	-1E+10	1	-1E+10	1
4901784	19	C	01/11/2016	10:41	-131.289	45.447	0	1340.00	0	2.7170	0	34.4630	0	27.490	0	1324.804	0	19.9	4	6.1	4	-1E+10	1	-1E+10	1	-1E+10	1	-1E+10	1	-1E+10	1	-1E+10	1
4901784	19	C	01/11/2016	10:41	-131.289	45.447	0	1345.40	0	2.7080	0	34.4660	0	27.493	0	1330.125	0	20.3	4	6.2	4	-1E+10	1	-1E+10	1	-1E+10	1	-1E+10	1	-1E+10	1	-1E+10	1
4901784	19	C	01/11/2016	10:41	-131.289	45.447	0	1349.80	0	2.6980	0	34.4680	0	27.495	0	1334.462	0	20.5	4	6.3	4	-1E+10	1	-1E+10	1	-1E+10	1	-1E+10	1	-1E+10	1	-1E+10	1
4901784	19	C	01/11/2016	10:41	-131.289	45.447	0	1354.40	0	2.6900	0	34.4680	0	27.496	0	1338.995	0	20.6	4	6.3	4	-1E+10	1	-1E+10	1	-1E+10	1	-1E+10	1	-1E+10	1	-1E+10	1
4901784	19	C	01/11/2016	10:41	-131.289	45.447	0	1359.80	0	2.6790	0	34.4700	0	27.499	0	1344.316	0	20.9	4	6.4	4	-1E+10	1	-1E+10	1	-1E+10	1	-1E+10	1	-1E+10	1	-1E+10	1
4901784	19	C	01/11/2016	10:41	-131.289	45.447	0	1365.30	0	2.6720	0	34.4710	0	27.500	0	1349.736	0	21.0	4	6.4	4	-1E+10	1	-1E+10	1	-1E+10	1	-1E+10	1	-1E+10	1	-1E+10	1
4901784	19	C	01/11/2016	10:41	-131.289	45.447	0	1369.90	0	2.6660	0	34.4720	0	27.502	0	1354.269	0	21.2	4	6.5	4	-1E+10	1	-1E+10	1	-1E+10	1	-1E+10	1	-1E+10	1	-1E+10	1
4901784	19	C	01/11/2016	10:41	-131.289	45.447	0	1374.60	0	2.6610	0	34.4720	0	27.502	0	1358.900	0	21.4	4	6.6	4	-1E+10	1	-1E+10	1	-1E+10	1	-1E+10	1	-1E+10	1	-1E+10	1
4901784	19	C	01/11/2016	10:41	-131.289	45.447	0	1380.10	0	2.6520	0	34.4740	0	27.504	0	1364.319	0	21.8	4	6.7	4	-1E+10	1	-1E+10	1	-1E+10	1	-1E+10	1	-1E+10	1	-1E+10	1
4901784	19	C	01/11/2016	10:41	-131.289	45.447	0	1384.70	0	2.6440	0	34.4760	0	27.507	0	1368.852	0	22.0	4	6.7	4	-1E+10	1	-1E+10	1	-1E+10	1	-1E+10	1	-1E+10	1	-1E+10	1
4901784	19	C	01/11/2016	10:41	-131.289	45.447	0	1389.30	0	2.6400	0	34.4760	0	27.507	0	1373.384	0	22.1	4	6.8	4	-1E+10	1	-1E+10	1	-1E+10	1	-1E+10	1	-1E+10	1	-1E+10	1
4901784	19	C	01/11/2016	10:41	-131.289	45.447	0	1394.80	0	2.6380	0	34.4770	0	27.508	0	1378.803	0	22.2	4	6.8	4	-1E+10	1	-1E+10	1	-1E+10	1	-1E+10	1	-1E+10	1	-1E+10	1
4901784	19	C	01/11/2016	10:41	-131.289	45.447	0	1400.40	0	2.6290	0	34.4780	0	27.510	0	1384.321	0	22.5	4	6.9	4	-1E+10	1	-1E+10	1	-1E+10	1	-1E+10	1	-1E+10	1	-1E+10	1
4901784	19	C	01/11/2016	10:41	-131.289	45.447	0	1405.00	0	2.6260	0	34.4790	0	27.511	0	1388.853	0	22.7	4	6.9	4	-1E+10	1	-1E+10	1	-1E+10	1	-1E+10	1	-1E+10	1	-1E+10	1
4901784	19	C	01/11/2016	10:41	-131.289	45.447	0	1409.70	0	2.6200	0	34.4790	0	27.511	0	1393.483	0	22.9	4	7.0	4	-1E+10	1	-1E+10	1	-1E+10	1	-1E+10	1	-1E+10	1	-1E+10	1
4901784	19	C	01/11/2016	10:41	-131.289	45.447	0	1415.20	0	2.6030	0	34.4810	0	27.514	0	1398.902	0	23.3	4	7.1	4	-1E+10	1	-1E+10	1	-1E+10	1	-1E+10	1	-1E+10	1	-1E+10	1
4901784	19	C	01/11/2016	10:41	-131.289	45.447	0	1419.90	0	2.5900	0	34.4830	0	27.517	0	1403.532	0	23.5	4	7.2	4	-1E+10	1	-1E+10	1	-1E+10	1	-1E+10	1	-1E+10	1	-1E+10	1
4901784	19	C	01/11/2016	10:41	-131.289	45.447	0	1424.60	0	2.5870	0	34.4830	0	27.517	0	1408.162	0	23.6	4	7.2	4	-1E+10	1	-1E+10	1	-1E+10	1	-1E+10	1	-1E+10	1	-1E+10	1
4901784	19	C	01/11/2016	10:41	-131.289	45.447	0	1430.30	0	2.5840	0	34.4840	0	27.518	0	1413.777	0	23.8	4	7.3	4	-1E+10	1	-1E+10	1	-1E+10	1	-1E+10	1	-1E+10	1	-1E+10	1
4901784	19	C	01/11/2016	10:41	-131.289	45.447	0	1435.10	0	2.5710	0	34.4860	0	27.521	0	1418.506	0	24.0	4	7.3	4	-1E+10	1	-1E+10	1	-1E+10	1	-1E+10	1	-1E+10	1	-1E+10	1
4901784	19	C	01/11/2016	10:41	-131.289	45.447	0	1439.80	0	2.5670	0	34.4860	0	27.522	0	1423.135	0	24.1	4	7.4	4	-1E+10	1	-1E+10	1	-1E+10	1	-1E+10	1	-1E+10	1	-1E+10	1
4901784	19	C	01/11/2016	10:41	-131.289	45.447	0	1445.50	0	2.5650	0	34.4860	0	27.522	0	1428.750	0	24.3	4	7.4	4	-1E+10	1	-1E+10	1	-1E+10	1	-1E+10	1	-1E+10	1	-1E+10	1
4901784	19	C	01/11/2016	10:41	-131.289	45.447	0	1450.20	0	2.5610	0	34.4870	0	27.523	0	1433.380	0	24.6	4	7.5	4	-1E+10	1	-1E+10	1	-1E+10	1	-1E+10	1	-1E+10	1	-1E+10	1
4901784	19	C	01/11/2016	10:41	-131.289	45.447	0	1454.90	0	2.5530	0	34.4880	0	27.524	0	1438.009	0	24.9	4	7.6	4	-1E+10	1	-1E+10	1	-1E+10	1	-1E+10	1	-1E+10	1	-1E+10	1
4901784	19	C	01/11/2016	10:41	-131.289	45.447	0	1460.50	0	2.5390	0	34.4900	0	27.527	0	1443.525	0	25.2	4	7.7	4	-1E+10	1	-1E+10	1	-1E+10	1	-1E+10	1	-1E+10	1	-1E+10	1
4901784	19	C	01/11/2016	10:41	-131.289	45.447	0	1465.20	0	2.5290	0	34.4910	0	27.529	0	1448.154	0	25.4	4	7.8	4	-1E+10	1	-1E+10	1	-1E+10	1	-1E+10	1	-1E+10	1	-1E+10	1
4901784	19	C	01/11/2016	10:41	-131.289	45.447	0	1469.90	0	2.5280	0	34.4920	0	27.530	0	1452.784	0	25.5	4	7.8	4	-1E+10	1	-1E+10	1	-1E+10	1	-1E+10	1	-1E+10	1	-1E+10	1
4901784	19	C	01/11/2016	10:41	-131.289	45.447	0	1474.70	0	2.5270	0	34.4920	0	27.530	0	1457.511	0	25.6	4	7.8	4	-1E+10	1	-1E+10	1	-1E+10	1	-1E+10	1	-1E+10	1	-1E+10	1
4901784	19	C	01/11/2016	10:41	-131.289	45.447	0	1479.40	0	2.5220	0	34.4920	0	27.530	0	1462.140	0	25.8	4	7.9	4	-1E+10	1	-1E+10	1	-1E+10	1	-1E+10	1	-1E+10	1	-1E+10	1
4901784	19	C	01/11/2016	10:41	-131.289	45.447	0	1485.00	0	2.5140	0	34.4930	0	27.532	0	1467.655	0	26.0	4	7.9	4	-1E+10	1	-1E+10	1	-1E+10	1	-1E+10	1	-1E+10	1	-1E+10	1
4901784	19	C	01/11/2016	10:41	-131.289	45.447	0	1490.50	0	2.5070	0	34.4950	0	27.534	0	1473.072	0	26.2	4	8.0	4	-1E+10	1	-1E+10	1	-1E+10	1	-1E+10	1	-1E+10	1	-1E+10	1
4901784	19	C	01/11/2016	10:41	-131.289	45.447	0	1495.40	0	2.5050	0	34.4950	0	27.534	0	1477.897	0	26.4	4	8.0	4	-1E+10	1	-1E+10	1	-1E+10	1	-1E+10	1	-1E+10	1	-1E+10	1
4901784	19	C	01/11/2016	10:41	-131.289	45.447	0	1500.40	0	2.4980	0	34.4950	0	27.535	0	1482.821	0	26.7	4	8.1	4	-1E+10	1	-1E+10	1	-1E+10	1	-1E+10	1	-1E+10	1	-1E+10	1
4901784	19	C	01/11/2016	10:41	-131.289	45.447	0	1505.50	0	2.4910	0	34.4970	0	27.537	0	1487.844	0	27.0	4	8.2	4	-1E+10	1	-1E+10	1	-1E+10	1	-1E+10	1	-1E+10	1	-1E+10	1
4901784	19	C	01/11/2016	10:41	-131.289	45.447	0	1510.50	0	2.4790	0	34.4980	0	27.539	0	1492.767	0	27.4	4	8.4	4	-1E+10	1	-1E+10	1	-1E+10	1	-1E+10	1	-1E+10	1	-1E+10	1
4901784	19	C	01/11/2016	10:41	-131.289	45.447	0	1515.60	0	2.4700	0	34.5000	0	27.541	0	1497.789	0	27.8	4	8.5	4	-1E+10	1	-1E+10	1	-1E+10	1	-1E+10	1	-1E+10	1	-1E+10	1
4901784	19	C	01/11/2016	10:41	-131.289	45.447	0	1520.60	0	2.4610	0	34.5010	0	27.543	0	1502.713	0	28.1	4	8.6	4	-1E+10	1	-1E+10	1	-1E+10	1	-1E+10	1	-1E+10	1	-1E+10	1
4901784	19	C	01/11/2016	10:41	-131.289	45.447	0	1525.60	0	2.4530	0	34.5020	0	27.544	0	1507.636	0	28.4	4	8.6	4	-1E+10	1	-1E+10	1	-1E+10	1	-1E+10	1	-1E+10	1	-1E+10	1
4901784	19	C	01/11/2016	10:41	-131.289	45.447	0	1530.70	0	2.4480	0	34.5030	0	27.546	0	1512.658	0	28.7	4	8.7	4	-1E+10	1	-1E+10	1	-1E+10	1	-1E+10	1	-1E+10	1	-1E+10	1
4901784	19	C	01/11/2016	10:41	-131.289	45.447	0	1535.70	0	2.4360	0	34.5050	0	27.548	0	1517.581	0	28.9	4	8.8	4	-1E+10	1	-1E+10	1	-1E+10	1	-1E+10	1	-1E+10	1	-1E+10	1
4901784	19	C	01/11/2016	10:41	-131.289	45.447	0	1540.80	0	2.4350	0	34.5040	0	27.548	0	1522.603	0	29.1	4	8.9	4	-1E+10	1	-1E+10	1	-1E+10	1	-1E+10	1	-1E+10	1	-1E+10	1
4901784	19	C	01/11/2016	10:41	-131.289	45.447	0	1545.80	0	2.4270	0	34.5050	0	27.549	0	1527.526	0	29.5	4	9.0	4	-1E+10	1	-1E+10	1	-1E+10	1	-1E+10	1	-1E+10	1	-1E+10	1
4901784	19	C	01/11/2016	10:41	-131.289	45.447	0	1550.00	0	2.4170	0	34.5070	0	27.552	0	1531.661	0	29.9	4	9.1	4	-1E+10	1	-1E+10	1	-1E+10	1	-1E+10	1	-1E+10	1	-1E+10	1
4901784	19	C	01/11/2016	10:41	-131.289	45.447	0	1554.20	0	2.4120	0	34.5080	0	27.553	0	1535.796	0	30.3	4	9.2	4	-1E+10	1	-1E+10	1	-1E+10	1	-1E+10	1	-1E+10	1	-1E+10	1
4901784	19	C	01/11/2016	10:41	-131.289	45.447	0	1559.30	0	2.4070	0	34.5090	0	27.554	0	1540.817	0	30.8	4	9.4	4	-1E+10	1	-1E+10	1	-1E+10	1	-1E+10	1	-1E+10	1	-1E+10	1
4901784	19	C	01/11/2016	10:41	-131.289	45.447	0	1564.30	0	2.3940	0	34.5110	0	27.557	0	1545.739	0	31.5	4	9.6	4	-1E+10	1	-1E+10	1	-1E+10	1	-1E+10	1	-1E+10	1	-1E+10	1
4901784	19	C	01/11/2016	10:41	-131.289	45.447	0	1569.50	0	2.3810	0	34.5120	0	27.559	0	1550.859	0	32.0	4	9.7	4	-1E+10	1	-1E+10	1	-1E+10	1	-1E+10	1	-1E+10	1	-1E+10	1
4901784	19	C	01/11/2016	10:41	-131.289	45.447	0	1574.70	0	2.3640	0	34.5150	0	27.562	0	1555.978	0	32.4	4	9.8	4	-1E+10	1	-1E+10	1	-1E+10	1	-1E+10	1	-1E+10	1	-1E+10	1
4901784	19	C	01/11/2016	10:41	-131.289	45.447	0	1580.00	0	2.3570	0	34.5160	0	27.564	0	1561.195	0	32.6	4	9.9	4	-1E+10	1	-1E+10	1	-1E+10	1	-1E+10	1	-1E+10	1	-1E+10	1
4901784	19	C	01/11/2016	10:41	-131.289	45.447	0	1585.20	0	2.3480	0	34.5160	0	27.565	0	1566.314	0	32.6	4	9.9	4	-1E+10	1	-1E+10	1	-1E+10	1	-1E+10	1	-1E+10	1	-1E+10	1
4901784	19	C	01/11/2016	10:41	-131.289	45.447	0	1590.50	0	2.3350	0	34.5170	0	27.566	0	1571.531	0	32.7	4	9.9	4	-1E+10	1	-1E+10	1	-1E+10	1	-1E+10	1	-1E+10	1	-1E+10	1
4901784	19	C	01/11/2016	10:41	-131.289	45.447	0	1595.00	0	2.3270	0	34.5180	0	27.568	0	1575.961	0	32.9	4	10.0	4	-1E+10	1	-1E+10	1	-1E+10	1	-1E+10	1	-1E+10	1	-1E+10	1
4901784	19	C	01/11/2016	10:41	-131.289	45.447	0	1599.50	0	2.3270	0	34.5180	0	27.568	0	1580.390	0	33.1	4	10.1	4	-1E+10	1	-1E+10	1	-1E+10	1	-1E+10	1	-1E+10	1	-1E+10	1
4901784	19	C	01/11/2016	10:41	-131.289	45.447	0	1605.40	0	2.3170	0	34.5190	0	27.570	0	1586.198	0	33.5	4	10.2	4	-1E+10	1	-1E+10	1	-1E+10	1	-1E+10	1	-1E+10	1	-1E+10	1
4901784	19	C	01/11/2016	10:41	-131.289	45.447	0	1610.40	0	2.3110	0	34.5200	0	27.571	0	1591.119	0	33.8	4	10.3	4	-1E+10	1	-1E+10	1	-1E+10	1	-1E+10	1	-1E+10	1	-1E+10	1
4901784	19	C	01/11/2016	10:41	-131.289	45.447	0	1615.20	0	2.3040	0	34.5220	0	27.573	0	1595.844	0	34.3	4	10.4	4	-1E+10	1	-1E+10	1	-1E+10	1	-1E+10	1	-1E+10	1	-1E+10	1
4901784	19	C	01/11/2016	10:41	-131.289	45.447	0	1620.00	0	2.2940	0	34.5230	0	27.575	0	1600.568	0	34.6	4	10.5	4	-1E+10	1	-1E+10	1	-1E+10	1	-1E+10	1	-1E+10	1	-1E+10	1
4901784	19	C	01/11/2016	10:41	-131.289	45.447	0	1624.80	0	2.2850	0	34.5240	0	27.576	0	1605.292	0	34.8	4	10.6	4	-1E+10	1	-1E+10	1	-1E+10	1	-1E+10	1	-1E+10	1	-1E+10	1
4901784	19	C	01/11/2016	10:41	-131.289	45.447	0	1629.60	0	2.2830	0	34.5240	0	27.576	0	1610.016	0	35.1	4	10.7	4	-1E+10	1	-1E+10	1	-1E+10	1	-1E+10	1	-1E+10	1	-1E+10	1
4901784	19	C	01/11/2016	10:41	-131.289	45.447	0	1634.50	0	2.2760	0	34.5250	0	27.578	0	1614.839	0	35.7	4	10.8	4	-1E+10	1	-1E+10	1	-1E+10	1	-1E+10	1	-1E+10	1	-1E+10	1
4901784	19	C	01/11/2016	10:41	-131.289	45.447	0	1639.50	0	2.2660	0	34.5280	0	27.581	0	1619.759	0	36.1	4	10.9	4	-1E+10	1	-1E+10	1	-1E+10	1	-1E+10	1	-1E+10	1	-1E+10	1
4901784	19	C	01/11/2016	10:41	-131.289	45.447	0	1644.50	0	2.2610	0	34.5280	0	27.582	0	1624.680	0	36.3	4	11.0	4	-1E+10	1	-1E+10	1	-1E+10	1	-1E+10	1	-1E+10	1	-1E+10	1
4901784	19	C	01/11/2016	10:41	-131.289	45.447	0	1649.60	0	2.2550	0	34.5290	0	27.583	0	1629.699	0	36.6	4	11.1	4	-1E+10	1	-1E+10	1	-1E+10	1	-1E+10	1	-1E+10	1	-1E+10	1
4901784	19	C	01/11/2016	10:41	-131.289	45.447	0	1654.70	0	2.2490	0	34.5300	0	27.584	0	1634.718	0	36.8	4	11.2	4	-1E+10	1	-1E+10	1	-1E+10	1	-1E+10	1	-1E+10	1	-1E+10	1
4901784	19	C	01/11/2016	10:41	-131.289	45.447	0	1659.80	0	2.2470	0	34.5300	0	27.584	0	1639.737	0	37.0	4	11.2	4	-1E+10	1	-1E+10	1	-1E+10	1	-1E+10	1	-1E+10	1	-1E+10	1
4901784	19	C	01/11/2016	10:41	-131.289	45.447	0	1664.90	0	2.2400	0	34.5310	0	27.586	0	1644.755	0	37.3	4	11.3	4	-1E+10	1	-1E+10	1	-1E+10	1	-1E+10	1	-1E+10	1	-1E+10	1
4901784	19	C	01/11/2016	10:41	-131.289	45.447	0	1670.20	0	2.2350	0	34.5310	0	27.586	0	1649.970	0	37.7	4	11.4	4	-1E+10	1	-1E+10	1	-1E+10	1	-1E+10	1	-1E+10	1	-1E+10	1
4901784	19	C	01/11/2016	10:41	-131.289	45.447	0	1675.50	0	2.2260	0	34.5330	0	27.589	0	1655.185	0	38.0	4	11.5	4	-1E+10	1	-1E+10	1	-1E+10	1	-1E+10	1	-1E+10	1	-1E+10	1
4901784	19	C	01/11/2016	10:41	-131.289	45.447	0	1679.90	0	2.2200	0	34.5340	0	27.590	0	1659.515	0	38.3	4	11.6	4	-1E+10	1	-1E+10	1	-1E+10	1	-1E+10	1	-1E+10	1	-1E+10	1
4901784	19	C	01/11/2016	10:41	-131.289	45.447	0	1684.30	0	2.2140	0	34.5340	0	27.590	0	1663.844	0	38.6	4	11.7	4	-1E+10	1	-1E+10	1	-1E+10	1	-1E+10	1	-1E+10	1	-1E+10	1
4901784	19	C	01/11/2016	10:41	-131.289	45.447	0	1689.70	0	2.2100	0	34.5350	0	27.591	0	1669.157	0	38.9	4	11.8	4	-1E+10	1	-1E+10	1	-1E+10	1	-1E+10	1	-1E+10	1	-1E+10	1
4901784	19	C	01/11/2016	10:41	-131.289	45.447	0	1695.10	0	2.2040	0	34.5360	0	27.593	0	1674.470	0	39.2	4	11.9	4	-1E+10	1	-1E+10	1	-1E+10	1	-1E+10	1	-1E+10	1	-1E+10	1
4901784	19	C	01/11/2016	10:41	-131.289	45.447	0	1699.70	0	2.2000	0	34.5360	0	27.593	0	1678.996	0	39.5	4	12.0	4	-1E+10	1	-1E+10	1	-1E+10	1	-1E+10	1	-1E+10	1	-1E+10	1
4901784	19	C	01/11/2016	10:41	-131.289	45.447	0	1705.00	0	2.1920	0	34.5380	0	27.595	0	1684.211	0	40.0	4	12.1	4	-1E+10	1	-1E+10	1	-1E+10	1	-1E+10	1	-1E+10	1	-1E+10	1
4901784	19	C	01/11/2016	10:41	-131.289	45.447	0	1710.50	0	2.1850	0	34.5390	0	27.597	0	1689.622	0	40.4	4	12.2	4	-1E+10	1	-1E+10	1	-1E+10	1	-1E+10	1	-1E+10	1	-1E+10	1
4901784	19	C	01/11/2016	10:41	-131.289	45.447	0	1715.40	0	2.1800	0	34.5400	0	27.598	0	1694.442	0	40.7	4	12.3	4	-1E+10	1	-1E+10	1	-1E+10	1	-1E+10	1	-1E+10	1	-1E+10	1
4901784	19	C	01/11/2016	10:41	-131.289	45.447	0	1720.20	0	2.1760	0	34.5410	0	27.599	0	1699.164	0	40.9	4	12.4	4	-1E+10	1	-1E+10	1	-1E+10	1	-1E+10	1	-1E+10	1	-1E+10	1
4901784	19	C	01/11/2016	10:41	-131.289	45.447	0	1725.20	0	2.1720	0	34.5410	0	27.600	0	1704.083	0	41.1	4	12.5	4	-1E+10	1	-1E+10	1	-1E+10	1	-1E+10	1	-1E+10	1	-1E+10	1
4901784	19	C	01/11/2016	10:41	-131.289	45.447	0	1730.20	0	2.1690	0	34.5420	0	27.601	0	1709.002	0	41.3	4	12.5	4	-1E+10	1	-1E+10	1	-1E+10	1	-1E+10	1	-1E+10	1	-1E+10	1
4901784	19	C	01/11/2016	10:41	-131.289	45.447	0	1735.20	0	2.1660	0	34.5420	0	27.601	0	1713.921	0	41.6	4	12.6	4	-1E+10	1	-1E+10	1	-1E+10	1	-1E+10	1	-1E+10	1	-1E+10	1
4901784	19	C	01/11/2016	10:41	-131.289	45.447	0	1740.20	0	2.1590	0	34.5430	0	27.602	0	1718.839	0	41.9	4	12.7	4	-1E+10	1	-1E+10	1	-1E+10	1	-1E+10	1	-1E+10	1	-1E+10	1
4901784	19	C	01/11/2016	10:41	-131.289	45.447	0	1745.30	0	2.1560	0	34.5440	0	27.603	0	1723.856	0	42.1	4	12.7	4	-1E+10	1	-1E+10	1	-1E+10	1	-1E+10	1	-1E+10	1	-1E+10	1
4901784	19	C	01/11/2016	10:41	-131.289	45.447	0	1750.30	0	2.1530	0	34.5440	0	27.604	0	1728.774	0	42.4	4	12.8	4	-1E+10	1	-1E+10	1	-1E+10	1	-1E+10	1	-1E+10	1	-1E+10	1
4901784	19	C	01/11/2016	10:41	-131.289	45.447	0	1755.50	0	2.1460	0	34.5450	0	27.605	0	1733.889	0	42.7	4	12.9	4	-1E+10	1	-1E+10	1	-1E+10	1	-1E+10	1	-1E+10	1	-1E+10	1
4901784	19	C	01/11/2016	10:41	-131.289	45.447	0	1760.70	0	2.1410	0	34.5460	0	27.606	0	1739.003	0	43.0	4	13.0	4	-1E+10	1	-1E+10	1	-1E+10	1	-1E+10	1	-1E+10	1	-1E+10	1
4901784	19	C	01/11/2016	10:41	-131.289	45.447	0	1765.10	0	2.1360	0	34.5470	0	27.607	0	1743.331	0	43.2	4	13.1	4	-1E+10	1	-1E+10	1	-1E+10	1	-1E+10	1	-1E+10	1	-1E+10	1
4901784	19	C	01/11/2016	10:41	-131.289	45.447	0	1769.50	0	2.1350	0	34.5470	0	27.608	0	1747.659	0	43.3	4	13.1	4	-1E+10	1	-1E+10	1	-1E+10	1	-1E+10	1	-1E+10	1	-1E+10	1
4901784	19	C	01/11/2016	10:41	-131.289	45.447	0	1774.70	0	2.1310	0	34.5470	0	27.608	0	1752.773	0	43.6	4	13.2	4	-1E+10	1	-1E+10	1	-1E+10	1	-1E+10	1	-1E+10	1	-1E+10	1
4901784	19	C	01/11/2016	10:41	-131.289	45.447	0	1780.00	0	2.1260	0	34.5480	0	27.609	0	1757.986	0	43.8	4	13.3	4	-1E+10	1	-1E+10	1	-1E+10	1	-1E+10	1	-1E+10	1	-1E+10	1
4901784	19	C	01/11/2016	10:41	-131.289	45.447	0	1785.30	0	2.1210	0	34.5490	0	27.610	0	1763.198	0	44.1	4	13.3	4	-1E+10	1	-1E+10	1	-1E+10	1	-1E+10	1	-1E+10	1	-1E+10	1
4901784	19	C	01/11/2016	10:41	-131.289	45.447	0	1790.70	0	2.1190	0	34.5490	0	27.611	0	1768.509	0	44.4	4	13.4	4	-1E+10	1	-1E+10	1	-1E+10	1	-1E+10	1	-1E+10	1	-1E+10	1
4901784	19	C	01/11/2016	10:41	-131.289	45.447	0	1795.20	0	2.1130	0	34.5500	0	27.612	0	1772.934	0	44.7	4	13.5	4	-1E+10	1	-1E+10	1	-1E+10	1	-1E+10	1	-1E+10	1	-1E+10	1
4901784	19	C	01/11/2016	10:41	-131.289	45.447	0	1799.70	0	2.1080	0	34.5510	0	27.613	0	1777.360	0	45.0	4	13.6	4	-1E+10	1	-1E+10	1	-1E+10	1	-1E+10	1	-1E+10	1	-1E+10	1
4901784	19	C	01/11/2016	10:41	-131.289	45.447	0	1805.20	0	2.1060	0	34.5510	0	27.613	0	1782.768	0	45.3	4	13.7	4	-1E+10	1	-1E+10	1	-1E+10	1	-1E+10	1	-1E+10	1	-1E+10	1
4901784	19	C	01/11/2016	10:41	-131.289	45.447	0	1810.60	0	2.1020	0	34.5520	0	27.614	0	1788.079	0	45.7	4	13.8	4	-1E+10	1	-1E+10	1	-1E+10	1	-1E+10	1	-1E+10	1	-1E+10	1
4901784	19	C	01/11/2016	10:41	-131.289	45.447	0	1815.20	0	2.0940	0	34.5540	0	27.617	0	1792.602	0	46.2	4	14.0	4	-1E+10	1	-1E+10	1	-1E+10	1	-1E+10	1	-1E+10	1	-1E+10	1
4901784	19	C	01/11/2016	10:41	-131.289	45.447	0	1819.80	0	2.0860	0	34.5540	0	27.617	0	1797.125	0	46.6	4	14.1	4	-1E+10	1	-1E+10	1	-1E+10	1	-1E+10	1	-1E+10	1	-1E+10	1
4901784	19	C	01/11/2016	10:41	-131.289	45.447	0	1825.10	0	2.0790	0	34.5560	0	27.619	0	1802.337	0	46.9	4	14.2	4	-1E+10	1	-1E+10	1	-1E+10	1	-1E+10	1	-1E+10	1	-1E+10	1
4901784	19	C	01/11/2016	10:41	-131.289	45.447	0	1830.40	0	2.0750	0	34.5560	0	27.620	0	1807.548	0	47.3	4	14.3	4	-1E+10	1	-1E+10	1	-1E+10	1	-1E+10	1	-1E+10	1	-1E+10	1
4901784	19	C	01/11/2016	10:41	-131.289	45.447	0	1835.20	0	2.0720	0	34.5570	0	27.621	0	1812.268	0	47.5	4	14.4	4	-1E+10	1	-1E+10	1	-1E+10	1	-1E+10	1	-1E+10	1	-1E+10	1
4901784	19	C	01/11/2016	10:41	-131.289	45.447	0	1840.00	0	2.0710	0	34.5580	0	27.622	0	1816.987	0	47.8	4	14.4	4	-1E+10	1	-1E+10	1	-1E+10	1	-1E+10	1	-1E+10	1	-1E+10	1
4901784	19	C	01/11/2016	10:41	-131.289	45.447	0	1844.80	0	2.0640	0	34.5590	0	27.623	0	1821.707	0	48.3	4	14.6	4	-1E+10	1	-1E+10	1	-1E+10	1	-1E+10	1	-1E+10	1	-1E+10	1
4901784	19	C	01/11/2016	10:41	-131.289	45.447	0	1849.70	0	2.0610	0	34.5590	0	27.623	0	1826.524	0	48.5	4	14.6	4	-1E+10	1	-1E+10	1	-1E+10	1	-1E+10	1	-1E+10	1	-1E+10	1
4901784	19	C	01/11/2016	10:41	-131.289	45.447	0	1854.60	0	2.0570	0	34.5600	0	27.625	0	1831.342	0	48.8	4	14.7	4	-1E+10	1	-1E+10	1	-1E+10	1	-1E+10	1	-1E+10	1	-1E+10	1
4901784	19	C	01/11/2016	10:41	-131.289	45.447	0	1859.50	0	2.0520	0	34.5600	0	27.625	0	1836.159	0	49.1	4	14.8	4	-1E+10	1	-1E+10	1	-1E+10	1	-1E+10	1	-1E+10	1	-1E+10	1
4901784	19	C	01/11/2016	10:41	-131.289	45.447	0	1864.50	0	2.0450	0	34.5620	0	27.627	0	1841.075	0	49.5	4	14.9	4	-1E+10	1	-1E+10	1	-1E+10	1	-1E+10	1	-1E+10	1	-1E+10	1
4901784	19	C	01/11/2016	10:41	-131.289	45.447	0	1869.50	0	2.0420	0	34.5620	0	27.627	0	1845.990	0	49.7	4	15.0	4	-1E+10	1	-1E+10	1	-1E+10	1	-1E+10	1	-1E+10	1	-1E+10	1
4901784	19	C	01/11/2016	10:41	-131.289	45.447	0	1874.60	0	2.0370	0	34.5630	0	27.629	0	1851.004	0	50.1	4	15.1	4	-1E+10	1	-1E+10	1	-1E+10	1	-1E+10	1	-1E+10	1	-1E+10	1
4901784	19	C	01/11/2016	10:41	-131.289	45.447	0	1879.60	0	2.0340	0	34.5630	0	27.629	0	1855.919	0	50.3	4	15.2	4	-1E+10	1	-1E+10	1	-1E+10	1	-1E+10	1	-1E+10	1	-1E+10	1
4901784	19	C	01/11/2016	10:41	-131.289	45.447	0	1884.80	0	2.0290	0	34.5640	0	27.630	0	1861.031	0	50.6	4	15.3	4	-1E+10	1	-1E+10	1	-1E+10	1	-1E+10	1	-1E+10	1	-1E+10	1
4901784	19	C	01/11/2016	10:41	-131.289	45.447	0	1889.90	0	2.0270	0	34.5640	0	27.630	0	1866.044	0	50.7	4	15.3	4	-1E+10	1	-1E+10	1	-1E+10	1	-1E+10	1	-1E+10	1	-1E+10	1
4901784	19	C	01/11/2016	10:41	-131.289	45.447	0	1895.00	0	2.0250	0	34.5650	0	27.631	0	1871.058	0	51.0	4	15.4	4	-1E+10	1	-1E+10	1	-1E+10	1	-1E+10	1	-1E+10	1	-1E+10	1
4901784	19	C	01/11/2016	10:41	-131.289	45.447	0	1900.20	0	2.0240	0	34.5650	0	27.631	0	1876.169	0	51.3	4	15.5	4	-1E+10	1	-1E+10	1	-1E+10	1	-1E+10	1	-1E+10	1	-1E+10	1
4901784	19	C	01/11/2016	10:41	-131.289	45.447	0	1905.30	0	2.0150	0	34.5660	0	27.633	0	1881.182	0	51.8	4	15.6	4	-1E+10	1	-1E+10	1	-1E+10	1	-1E+10	1	-1E+10	1	-1E+10	1
4901784	19	C	01/11/2016	10:41	-131.289	45.447	0	1910.40	0	2.0090	0	34.5670	0	27.634	0	1886.195	0	52.1	4	15.7	4	-1E+10	1	-1E+10	1	-1E+10	1	-1E+10	1	-1E+10	1	-1E+10	1
4901784	19	C	01/11/2016	10:41	-131.289	45.447	0	1915.60	0	2.0060	0	34.5680	0	27.635	0	1891.306	0	52.4	4	15.8	4	-1E+10	1	-1E+10	1	-1E+10	1	-1E+10	1	-1E+10	1	-1E+10	1
4901784	19	C	01/11/2016	10:41	-131.289	45.447	0	1920.00	0	2.0010	0	34.5690	0	27.636	0	1895.630	0	52.8	4	15.9	4	-1E+10	1	-1E+10	1	-1E+10	1	-1E+10	1	-1E+10	1	-1E+10	1
4901784	19	C	01/11/2016	10:41	-131.289	45.447	0	1924.40	0	1.9980	0	34.5690	0	27.637	0	1899.955	0	53.1	4	16.0	4	-1E+10	1	-1E+10	1	-1E+10	1	-1E+10	1	-1E+10	1	-1E+10	1
4901784	19	C	01/11/2016	10:41	-131.289	45.447	0	1929.70	0	1.9970	0	34.5700	0	27.638	0	1905.164	0	53.6	4	16.1	4	-1E+10	1	-1E+10	1	-1E+10	1	-1E+10	1	-1E+10	1	-1E+10	1
4901784	19	C	01/11/2016	10:41	-131.289	45.447	0	1935.00	0	1.9960	0	34.5720	0	27.639	0	1910.373	0	54.0	4	16.3	4	-1E+10	1	-1E+10	1	-1E+10	1	-1E+10	1	-1E+10	1	-1E+10	1
4901784	19	C	01/11/2016	10:41	-131.289	45.447	0	1940.50	0	1.9920	0	34.5720	0	27.640	0	1915.778	0	54.0	4	16.3	4	-1E+10	1	-1E+10	1	-1E+10	1	-1E+10	1	-1E+10	1	-1E+10	1
4901784	19	C	01/11/2016	10:41	-131.289	45.447	0	1944.90	0	1.9880	0	34.5720	0	27.640	0	1920.102	0	54.1	4	16.3	4	-1E+10	1	-1E+10	1	-1E+10	1	-1E+10	1	-1E+10	1	-1E+10	1
4901784	19	C	01/11/2016	10:41	-131.289	45.447	0	1949.40	0	1.9840	0	34.5720	0	27.640	0	1924.524	0	54.3	4	16.4	4	-1E+10	1	-1E+10	1	-1E+10	1	-1E+10	1	-1E+10	1	-1E+10	1
4901784	19	C	01/11/2016	10:41	-131.289	45.447	0	1954.70	0	1.9780	0	34.5730	0	27.642	0	1929.733	0	54.7	4	16.5	4	-1E+10	1	-1E+10	1	-1E+10	1	-1E+10	1	-1E+10	1	-1E+10	1
4901784	19	C	01/11/2016	10:41	-131.289	45.447	0	1960.00	0	1.9740	0	34.5740	0	27.643	0	1934.941	0	54.9	4	16.6	4	-1E+10	1	-1E+10	1	-1E+10	1	-1E+10	1	-1E+10	1	-1E+10	1
4901784	19	C	01/11/2016	10:41	-131.289	45.447	0	1965.40	0	1.9720	0	34.5740	0	27.643	0	1940.247	0	55.2	4	16.6	4	-1E+10	1	-1E+10	1	-1E+10	1	-1E+10	1	-1E+10	1	-1E+10	1
4901784	19	C	01/11/2016	10:41	-131.289	45.447	0	1969.80	0	1.9710	0	34.5750	0	27.644	0	1944.571	0	55.3	4	16.7	4	-1E+10	1	-1E+10	1	-1E+10	1	-1E+10	1	-1E+10	1	-1E+10	1
4901784	19	C	01/11/2016	10:41	-131.289	45.447	0	1974.30	0	1.9700	0	34.5750	0	27.644	0	1948.993	0	55.5	4	16.7	4	-1E+10	1	-1E+10	1	-1E+10	1	-1E+10	1	-1E+10	1	-1E+10	1
4901784	19	C	01/11/2016	10:41	-131.289	45.447	0	1979.50	0	1.9680	0	34.5760	0	27.645	0	1954.102	0	55.8	4	16.8	4	-1E+10	1	-1E+10	1	-1E+10	1	-1E+10	1	-1E+10	1	-1E+10	1
4901784	19	C	01/11/2016	10:41	-131.289	45.447	0	1984.70	0	1.9650	0	34.5760	0	27.645	0	1959.212	0	56.0	4	16.9	4	-1E+10	1	-1E+10	1	-1E+10	1	-1E+10	1	-1E+10	1	-1E+10	1
4901784	19	C	01/11/2016	10:41	-131.289	45.447	0	1990.20	0	1.9640	0	34.5770	0	27.646	0	1964.616	0	56.3	4	16.9	4	-1E+10	1	-1E+10	1	-1E+10	1	-1E+10	1	-1E+10	1	-1E+10	1
4901784	19	C	01/11/2016	10:41	-131.289	45.447	0	1995.60	0	1.9640	0	34.5770	0	27.646	0	1969.921	0	56.5	4	17.0	4	-1E+10	1	-1E+10	1	-1E+10	1	-1E+10	1	-1E+10	1	-1E+10	1
4901784	19	C	01/11/2016	10:41	-131.289	45.447	0	1999.50	0	1.9620	0	34.5780	0	27.647	0	1973.753	0	56.7	4	17.1	4	-1E+10	1	-1E+10	1	-1E+10	1	-1E+10	1	-1E+10	1	-1E+10	1
4901784	19	C	01/11/2016	10:41	-131.289	45.447	0	2005.00	0	1.9590	0	34.5780	0	27.647	0	1979.157	0	56.8	4	17.1	4	-1E+10	1	-1E+10	1	-1E+10	1	-1E+10	1	-1E+10	1	-1E+10	1
4901784	19	C	01/11/2016	10:41	-131.289	45.447	0	2009.30	0	1.9580	0	34.5790	0	27.648	0	1983.381	0	55.1	8	16.6	8	-1E+10	1	-1E+10	1	-1E+10	1	-1E+10	1	-1E+10	1	-1E+10	1
4901784	19	C	01/11/2016	10:41	-131.289	45.447	0																										
4901784	20	C	01/21/2016	10:50	-131.466	45.245	0	2.20	0	11.2900	0	32.7140	0	24.945	0	2.182	0	257.2	4	94.7	4	-1E+10	1	-1E+10	1	-1E+10	1	-1E+10	1	-1E+10	1	-1E+10	1
4901784	20	C	01/21/2016	10:50	-131.466	45.245	0	3.40	0	11.2910	0	32.7150	0	24.945	0	3.372	0	257.5	4	94.8	4	-1E+10	1	-1E+10	1	-1E+10	1	-1E+10	1	-1E+10	1	-1E+10	1
4901784	20	C	01/21/2016	10:50	-131.466	45.245	0	4.90	0	11.2870	0	32.7150	0	24.946	0	4.860	0	257.3	4	94.7	4	-1E+10	1	-1E+10	1	-1E+10	1	-1E+10	1	-1E+10	1	-1E+10	1
4901784	20	C	01/21/2016	10:50	-131.466	45.245	0	6.20	0	11.2880	0	32.7150	0	24.946	0	6.149	0	257.3	4	94.7	4	-1E+10	1	-1E+10	1	-1E+10	1	-1E+10	1	-1E+10	1	-1E+10	1
4901784	20	C	01/21/2016	10:50	-131.466	45.245	0	7.50	0	11.2880	0	32.7140	0	24.945	0	7.439	0	257.2	4	94.7	4	-1E+10	1	-1E+10	1	-1E+10	1	-1E+10	1	-1E+10	1	-1E+10	1
4901784	20	C	01/21/2016	10:50	-131.466	45.245	0	9.00	0	11.2880	0	32.7140	0	24.945	0	8.927	0	257.4	4	94.8	4	-1E+10	1	-1E+10	1	-1E+10	1	-1E+10	1	-1E+10	1	-1E+10	1
4901784	20	C	01/21/2016	10:50	-131.466	45.245	0	10.50	0	11.2880	0	32.7150	0	24.946	0	10.414	0	257.3	4	94.7	4	-1E+10	1	-1E+10	1	-1E+10	1	-1E+10	1	-1E+10	1	-1E+10	1
4901784	20	C	01/21/2016	10:50	-131.466	45.245	0	12.10	0	11.2890	0	32.7140	0	24.945	0	12.001	0	257.3	4	94.7	4	-1E+10	1	-1E+10	1	-1E+10	1	-1E+10	1	-1E+10	1	-1E+10	1
4901784	20	C	01/21/2016	10:50	-131.466	45.245	0	13.60	0	11.2950	0	32.7140	0	24.944	0	13.489	0	257.2	4	94.7	4	-1E+10	1	-1E+10	1	-1E+10	1	-1E+10	1	-1E+10	1	-1E+10	1
4901784	20	C	01/21/2016	10:50	-131.466	45.245	0	15.30	0	11.2910	0	32.7150	0	24.946	0	15.175	0	257.2	4	94.7	4	-1E+10	1	-1E+10	1	-1E+10	1	-1E+10	1	-1E+10	1	-1E+10	1
4901784	20	C	01/21/2016	10:50	-131.466	45.245	0	17.10	0	11.2900	0	32.7150	0	24.946	0	16.960	0	257.0	4	94.7	4	-1E+10	1	-1E+10	1	-1E+10	1	-1E+10	1	-1E+10	1	-1E+10	1
4901784	20	C	01/21/2016	10:50	-131.466	45.245	0	18.90	0	11.2910	0	32.7150	0	24.946	0	18.745	0	257.1	4	94.7	4	-1E+10	1	-1E+10	1	-1E+10	1	-1E+10	1	-1E+10	1	-1E+10	1
4901784	20	C	01/21/2016	10:50	-131.466	45.245	0	20.70	0	11.2910	0	32.7150	0	24.946	0	20.530	0	257.1	4	94.7	4	-1E+10	1	-1E+10	1	-1E+10	1	-1E+10	1	-1E+10	1	-1E+10	1
4901784	20	C	01/21/2016	10:50	-131.466	45.245	0	22.50	0	11.2910	0	32.7150	0	24.946	0	22.316	0	257.1	4	94.7	4	-1E+10	1	-1E+10	1	-1E+10	1	-1E+10	1	-1E+10	1	-1E+10	1
4901784	20	C	01/21/2016	10:50	-131.466	45.245	0	24.40	0	11.2990	0	32.7160	0	24.945	0	24.200	0	257.1	4	94.7	4	-1E+10	1	-1E+10	1	-1E+10	1	-1E+10	1	-1E+10	1	-1E+10	1
4901784	20	C	01/21/2016	10:50	-131.466	45.245	0	26.10	0	11.2990	0	32.7160	0	24.945	0	25.886	0	257.1	4	94.7	4	-1E+10	1	-1E+10	1	-1E+10	1	-1E+10	1	-1E+10	1	-1E+10	1
4901784	20	C	01/21/2016	10:50	-131.466	45.245	0	28.00	0	11.2990	0	32.7160	0	24.945	0	27.770	0	257.0	4	94.7	4	-1E+10	1	-1E+10	1	-1E+10	1	-1E+10	1	-1E+10	1	-1E+10	1
4901784	20	C	01/21/2016	10:50	-131.466	45.245	0	29.80	0	11.2980	0	32.7150	0	24.945	0	29.555	0	256.9	4	94.6	4	-1E+10	1	-1E+10	1	-1E+10	1	-1E+10	1	-1E+10	1	-1E+10	1
4901784	20	C	01/21/2016	10:50	-131.466	45.245	0	31.70	0	11.2990	0	32.7160	0	24.945	0	31.440	0	256.9	4	94.6	4	-1E+10	1	-1E+10	1	-1E+10	1	-1E+10	1	-1E+10	1	-1E+10	1
4901784	20	C	01/21/2016	10:50	-131.466	45.245	0	33.50	0	11.2990	0	32.7160	0	24.945	0	33.225	0	257.0	4	94.6	4	-1E+10	1	-1E+10	1	-1E+10	1	-1E+10	1	-1E+10	1	-1E+10	1
4901784	20	C	01/21/2016	10:50	-131.466	45.245	0	35.40	0	11.3000	0	32.7160	0	24.945	0	35.109	0	256.9	4	94.6	4	-1E+10	1	-1E+10	1	-1E+10	1	-1E+10	1	-1E+10	1	-1E+10	1
4901784	20	C	01/21/2016	10:50	-131.466	45.245	0	37.10	0	11.2990	0	32.7160	0	24.945	0	36.795	0	256.8	4	94.6	4	-1E+10	1	-1E+10	1	-1E+10	1	-1E+10	1	-1E+10	1	-1E+10	1
4901784	20	C	01/21/2016	10:50	-131.466	45.245	0	38.90	0	11.2990	0	32.7150	0	24.945	0	38.580	0	256.6	4	94.5	4	-1E+10	1	-1E+10	1	-1E+10	1	-1E+10	1	-1E+10	1	-1E+10	1
4901784	20	C	01/21/2016	10:50	-131.466	45.245	0	40.80	0	11.2890	0	32.7140	0	24.946	0	40.464	0	256.9	4	94.6	4	-1E+10	1	-1E+10	1	-1E+10	1	-1E+10	1	-1E+10	1	-1E+10	1
4901784	20	C	01/21/2016	10:50	-131.466	45.245	0	42.50	0	11.2940	0	32.7150	0	24.946	0	42.150	0	256.6	4	94.5	4	-1E+10	1	-1E+10	1	-1E+10	1	-1E+10	1	-1E+10	1	-1E+10	1
4901784	20	C	01/21/2016	10:50	-131.466	45.245	0	44.40	0	11.2930	0	32.7150	0	24.946	0	44.034	0	256.8	4	94.6	4	-1E+10	1	-1E+10	1	-1E+10	1	-1E+10	1	-1E+10	1	-1E+10	1
4901784	20	C	01/21/2016	10:50	-131.466	45.245	0	46.30	0	11.2980	0	32.7150	0	24.945	0	45.918	0	256.7	4	94.5	4	-1E+10	1	-1E+10	1	-1E+10	1	-1E+10	1	-1E+10	1	-1E+10	1
4901784	20	C	01/21/2016	10:50	-131.466	45.245	0	48.30	0	11.2930	0	32.7140	0	24.945	0	47.901	0	256.7	4	94.5	4	-1E+10	1	-1E+10	1	-1E+10	1	-1E+10	1	-1E+10	1	-1E+10	1
4901784	20	C	01/21/2016	10:50	-131.466	45.245	0	50.20	0	11.2960	0	32.7140	0	24.945	0	49.785	0	256.7	4	94.5	4	-1E+10	1	-1E+10	1	-1E+10	1	-1E+10	1	-1E+10	1	-1E+10	1
4901784	20	C	01/21/2016	10:50	-131.466	45.245	0	52.10	0	11.2940	0	32.7140	0	24.945	0	51.669	0	256.5	4	94.5	4	-1E+10	1	-1E+10	1	-1E+10	1	-1E+10	1	-1E+10	1	-1E+10	1
4901784	20	C	01/21/2016	10:50	-131.466	45.245	0	54.00	0	11.2970	0	32.7150	0	24.945	0	53.553	0	256.6	4	94.5	4	-1E+10	1	-1E+10	1	-1E+10	1	-1E+10	1	-1E+10	1	-1E+10	1
4901784	20	C	01/21/2016	10:50	-131.466	45.245	0	55.90	0	11.2970	0	32.7140	0	24.945	0	55.437	0	256.4	4	94.4	4	-1E+10	1	-1E+10	1	-1E+10	1	-1E+10	1	-1E+10	1	-1E+10	1
4901784	20	C	01/21/2016	10:50	-131.466	45.245	0	57.90	0	11.2960	0	32.7150	0	24.946	0	57.421	0	256.5	4	94.5	4	-1E+10	1	-1E+10	1	-1E+10	1	-1E+10	1	-1E+10	1	-1E+10	1
4901784	20	C	01/21/2016	10:50	-131.466	45.245	0	59.80	0	11.2980	0	32.7150	0	24.945	0	59.305	0	256.4	4	94.4	4	-1E+10	1	-1E+10	1	-1E+10	1	-1E+10	1	-1E+10	1	-1E+10	1
4901784	20	C	01/21/2016	10:50	-131.466	45.245	0	61.70	0	11.2970	0	32.7150	0	24.945	0	61.189	0	256.3	4	94.4	4	-1E+10	1	-1E+10	1	-1E+10	1	-1E+10	1	-1E+10	1	-1E+10	1
4901784	20	C	01/21/2016	10:50	-131.466	45.245	0	63.60	0	11.2970	0	32.7140	0	24.945	0	63.073	0	256.2	4	94.4	4	-1E+10	1	-1E+10	1	-1E+10	1	-1E+10	1	-1E+10	1	-1E+10	1
4901784	20	C	01/21/2016	10:50	-131.466	45.245	0	65.50	0	11.2990	0	32.7140	0	24.944	0	64.957	0	256.2	4	94.4	4	-1E+10	1	-1E+10	1	-1E+10	1	-1E+10	1	-1E+10	1	-1E+10	1
4901784	20	C	01/21/2016	10:50	-131.466	45.245	0	67.40	0	11.3030	0	32.7160	0	24.945	0	66.840	0	256.2	4	94.4	4	-1E+10	1	-1E+10	1	-1E+10	1	-1E+10	1	-1E+10	1	-1E+10	1
4901784	20	C	01/21/2016	10:50	-131.466	45.245	0	69.30	0	11.3030	0	32.7150	0	24.945	0	68.724	0	256.1	4	94.3	4	-1E+10	1	-1E+10	1	-1E+10	1	-1E+10	1	-1E+10	1	-1E+10	1
4901784	20	C	01/21/2016	10:50	-131.466	45.245	0	71.10	0	11.3030	0	32.7160	0	24.945	0	70.509	0	255.9	4	94.3	4	-1E+10	1	-1E+10	1	-1E+10	1	-1E+10	1	-1E+10	1	-1E+10	1
4901784	20	C	01/21/2016	10:50	-131.466	45.245	0	72.90	0	11.3030	0	32.7150	0	24.945	0	72.294	0	255.8	4	94.2	4	-1E+10	1	-1E+10	1	-1E+10	1	-1E+10	1	-1E+10	1	-1E+10	1
4901784	20	C	01/21/2016	10:50	-131.466	45.245	0	74.70	0	11.3030	0	32.7150	0	24.945	0	74.079	0	255.8	4	94.2	4	-1E+10	1	-1E+10	1	-1E+10	1	-1E+10	1	-1E+10	1	-1E+10	1
4901784	20	C	01/21/2016	10:50	-131.466	45.245	0	76.50	0	11.3030	0	32.7150	0	24.945	0	75.863	0	255.7	4	94.2	4	-1E+10	1	-1E+10	1	-1E+10	1	-1E+10	1	-1E+10	1	-1E+10	1
4901784	20	C	01/21/2016	10:50	-131.466	45.245	0	78.30	0	11.3030	0	32.7150	0	24.945	0	77.648	0	255.5	4	94.1	4	-1E+10	1	-1E+10	1	-1E+10	1	-1E+10	1	-1E+10	1	-1E+10	1
4901784	20	C	01/21/2016	10:50	-131.466	45.245	0	80.10	0	11.3020	0	32.7150	0	24.945	0	79.433	0	255.0	4	93.9	4	-1E+10	1	-1E+10	1	-1E+10	1	-1E+10	1	-1E+10	1	-1E+10	1
4901784	20	C	01/21/2016	10:50	-131.466	45.245	0	81.90	0	11.3020	0	32.7140	0	24.944	0	81.217	0	254.9	4	93.9	4	-1E+10	1	-1E+10	1	-1E+10	1	-1E+10	1	-1E+10	1	-1E+10	1
4901784	20	C	01/21/2016	10:50	-131.466	45.245	0	83.70	0	11.3000	0	32.7130	0	24.944	0	83.002	0	254.4	4	93.7	4	-1E+10	1	-1E+10	1	-1E+10	1	-1E+10	1	-1E+10	1	-1E+10	1
4901784	20	C	01/21/2016	10:50	-131.466	45.245	0	85.50	0	11.2860	0	32.7110	0	24.945	0	84.786	0	254.1	4	93.6	4	-1E+10	1	-1E+10	1	-1E+10	1	-1E+10	1	-1E+10	1	-1E+10	1
4901784	20	C	01/21/2016	10:50	-131.466	45.245	0	87.30	0	11.2830	0	32.7100	0	24.945	0	86.571	0	253.5	4	93.3	4	-1E+10	1	-1E+10	1	-1E+10	1	-1E+10	1	-1E+10	1	-1E+10	1
4901784	20	C	01/21/2016	10:50	-131.466	45.245	0	89.00	0	11.2700	0	32.7070	0	24.945	0	88.257	0	252.8	4	93.0	4	-1E+10	1	-1E+10	1	-1E+10	1	-1E+10	1	-1E+10	1	-1E+10	1
4901784	20	C	01/21/2016	10:50	-131.466	45.245	0	90.80	0	11.2440	0	32.7040	0	24.947	0	90.041	0	251.8	4	92.6	4	-1E+10	1	-1E+10	1	-1E+10	1	-1E+10	1	-1E+10	1	-1E+10	1
4901784	20	C	01/21/2016	10:50	-131.466	45.245	0	92.50	0	11.2190	0	32.7010	0	24.949	0	91.727	0	250.7	4	92.2	4	-1E+10	1	-1E+10	1	-1E+10	1	-1E+10	1	-1E+10	1	-1E+10	1
4901784	20	C	01/21/2016	10:50	-131.466	45.245	0	94.20	0	11.2060	0	32.6980	0	24.949	0	93.412	0	249.0	4	91.5	4	-1E+10	1	-1E+10	1	-1E+10	1	-1E+10	1	-1E+10	1	-1E+10	1
4901784	20	C	01/21/2016	10:50	-131.466	45.245	0	96.10	0	11.1450	0	32.6970	0	24.959	0	95.296	0	247.1	4	90.7	4	-1E+10	1	-1E+10	1	-1E+10	1	-1E+10	1	-1E+10	1	-1E+10	1
4901784	20	C	01/21/2016	10:50	-131.466	45.245	0	96.50	0	11.1400	0	32.6960	0	24.960	0	95.692	0	246.0	4	90.3	4	-1E+10	1	-1E+10	1	-1E+10	1	-1E+10	1	-1E+10	1	-1E+10	1
4901784	20	C	01/21/2016	10:50	-131.466	45.245	0	98.00	0	11.0350	0	32.7070	0	24.987	0	97.179	0	243.4	4	89.2	4	-1E+10	1	-1E+10	1	-1E+10	1	-1E+10	1	-1E+10	1	-1E+10	1
4901784	20	C	01/21/2016	10:50	-131.466	45.245	0	99.40	0	10.9220	0	32.7240	0	25.020	0	98.567	0	240.9	4	88.0	4	-1E+10	1	-1E+10	1	-1E+10	1	-1E+10	1	-1E+10	1	-1E+10	1
4901784	20	C	01/21/2016	10:50	-131.466	45.245	0	102.90	0	10.6230	0	32.7790	0	25.115	0	102.037	0	231.5	4	84.1	4	-1E+10	1	-1E+10	1	-1E+10	1	-1E+10	1	-1E+10	1	-1E+10	1
4901784	20	C	01/21/2016	10:50	-131.466	45.245	0	105.10	0	10.3780	0	32.8450	0	25.208	0	104.218	0	226.4	4	81.9	4	-1E+10	1	-1E+10	1	-1E+10	1	-1E+10	1	-1E+10	1	-1E+10	1
4901784	20	C	01/21/2016	10:50	-131.466	45.245	0	107.20	0	10.2600	0	32.8730	0	25.250	0	106.300	0	221.2	4	79.8	4	-1E+10	1	-1E+10	1	-1E+10	1	-1E+10	1	-1E+10	1	-1E+10	1
4901784	20	C	01/21/2016	10:50	-131.466	45.245	0	110.20	0	9.8610	0	32.9840	0	25.404	0	109.274	0	215.1	4	77.0	4	-1E+10	1	-1E+10	1	-1E+10	1	-1E+10	1	-1E+10	1	-1E+10	1
4901784	20	C	01/21/2016	10:50	-131.466	45.245	0	112.50	0	9.5750	0	33.0550	0	25.506	0	111.554	0	211.6	4	75.3	4	-1E+10	1	-1E+10	1	-1E+10	1	-1E+10	1	-1E+10	1	-1E+10	1
4901784	20	C	01/21/2016	10:50	-131.466	45.245	0	115.10	0	9.3600	0	33.0990	0	25.575	0	114.131	0	210.4	4	74.5	4	-1E+10	1	-1E+10	1	-1E+10	1	-1E+10	1	-1E+10	1	-1E+10	1
4901784	20	C	01/21/2016	10:50	-131.466	45.245	0	117.70	0	9.3140	0	33.1050	0	25.587	0	116.709	0	208.5	4	73.8	4	-1E+10	1	-1E+10	1	-1E+10	1	-1E+10	1	-1E+10	1	-1E+10	1
4901784	20	C	01/21/2016	10:50	-131.466	45.245	0	120.30	0	9.1350	0	33.1510	0	25.652	0	119.286	0	207.1	4	73.0	4	-1E+10	1	-1E+10	1	-1E+10	1	-1E+10	1	-1E+10	1	-1E+10	1
4901784	20	C	01/21/2016	10:50	-131.466	45.245	0	122.80	0	9.0480	0	33.1750	0	25.684	0	121.764	0	205.8	4	72.4	4	-1E+10	1	-1E+10	1	-1E+10	1	-1E+10	1	-1E+10	1	-1E+10	1
4901784	20	C	01/21/2016	10:50	-131.466	45.245	0	125.00	0	8.9790	0	33.1850	0	25.703	0	123.945	0	204.6	4	71.9	4	-1E+10	1	-1E+10	1	-1E+10	1	-1E+10	1	-1E+10	1	-1E+10	1
4901784	20	C	01/21/2016	10:50	-131.466	45.245	0	127.40	0	8.8610	0	33.2380	0	25.763	0	126.324	0	203.4	4	71.4	4	-1E+10	1	-1E+10	1	-1E+10	1	-1E+10	1	-1E+10	1	-1E+10	1
4901784	20	C	01/21/2016	10:50	-131.466	45.245	0	130.30	0	8.7870	0	33.2720	0	25.801	0	129.199	0	202.7	4	71.0	4	-1E+10	1	-1E+10	1	-1E+10	1	-1E+10	1	-1E+10	1	-1E+10	1
4901784	20	C	01/21/2016	10:50	-131.466	45.245	0	132.40	0	8.7390	0	33.2960	0	25.827	0	131.280	0	201.7	4	70.6	4	-1E+10	1	-1E+10	1	-1E+10	1	-1E+10	1	-1E+10	1	-1E+10	1
4901784	20	C	01/21/2016	10:50	-131.466	45.245	0	134.60	0	8.7170	0	33.3150	0	25.845	0	133.461	0	201.1	4	70.4	4	-1E+10	1	-1E+10	1	-1E+10	1	-1E+10	1	-1E+10	1	-1E+10	1
4901784	20	C	01/21/2016	10:50	-131.466	45.245	0	137.40	0	8.6930	0	33.3720	0	25.894	0	136.236	0	199.6	4	69.8	4	-1E+10	1	-1E+10	1	-1E+10	1	-1E+10	1	-1E+10	1	-1E+10	1
4901784	20	C	01/21/2016	10:50	-131.466	45.245	0	139.70	0	8.6740	0	33.4180	0	25.933	0	138.516	0	198.2	4	69.3	4	-1E+10	1	-1E+10	1	-1E+10	1	-1E+10	1	-1E+10	1	-1E+10	1
4901784	20	C	01/21/2016	10:50	-131.466	45.245	0	142.10	0	8.5850	0	33.4550	0	25.975	0	140.895	0	196.4	4	68.6	4	-1E+10	1	-1E+10	1	-1E+10	1	-1E+10	1	-1E+10	1	-1E+10	1
4901784	20	C	01/21/2016	10:50	-131.466	45.245	0	144.70	0	8.4910	0	33.4580	0	25.992	0	143.472	0	195.7	4	68.2	4	-1E+10	1	-1E+10	1	-1E+10	1	-1E+10	1	-1E+10	1	-1E+10	1
4901784	20	C	01/21/2016	10:50	-131.466	45.245	0	147.30	0	8.4630	0	33.4680	0	26.004	0	146.049	0	195.5	4	68.1	4	-1E+10	1	-1E+10	1	-1E+10	1	-1E+10	1	-1E+10	1	-1E+10	1
4901784	20	C	01/21/2016	10:50	-131.466	45.245	0	149.90	0	8.4550	0	33.4900	0	26.023	0	148.626	0	195.6	4	68.1	4	-1E+10	1	-1E+10	1	-1E+10	1	-1E+10	1	-1E+10	1	-1E+10	1
4901784	20	C	01/21/2016	10:50	-131.466	45.245	0	152.40	0	8.4650	0	33.5390	0	26.060	0	151.104	0	195.5	4	68.1	4	-1E+10	1	-1E+10	1	-1E+10	1	-1E+10	1	-1E+10	1	-1E+10	1
4901784	20	C	01/21/2016	10:50	-131.466	45.245	0	155.00	0	8.4440	0	33.5540	0	26.075	0	153.681	0	194.4	4	67.7	4	-1E+10	1	-1E+10	1	-1E+10	1	-1E+10	1	-1E+10	1	-1E+10	1
4901784	20	C	01/21/2016	10:50	-131.466	45.245	0	157.60	0	8.3320	0	33.5630	0	26.099	0	156.258	0	194.5	4	67.6	4	-1E+10	1	-1E+10	1	-1E+10	1	-1E+10	1	-1E+10	1	-1E+10	1
4901784	20	C	01/21/2016	10:50	-131.466	45.245	0	160.30	0	8.3920	0	33.6020	0	26.120	0	158.933	0	195.3	4	68.0	4	-1E+10	1	-1E+10	1	-1E+10	1	-1E+10	1	-1E+10	1	-1E+10	1
4901784	20	C	01/21/2016	10:50	-131.466	45.245	0	162.20	0	8.3810	0	33.6110	0	26.129	0	160.817	0	194.9	4	67.8	4	-1E+10	1	-1E+10	1	-1E+10	1	-1E+10	1	-1E+10	1	-1E+10	1
4901784	20	C	01/21/2016	10:50	-131.466	45.245	0	165.00	0	8.3820	0	33.6250	0	26.140	0	163.592	0	194.8	4	67.8	4	-1E+10	1	-1E+10	1	-1E+10	1	-1E+10	1	-1E+10	1	-1E+10	1
4901784	20	C	01/21/2016	10:50	-131.466	45.245	0	167.70	0	8.3670	0	33.6360	0	26.151	0	166.267	0	194.7	4	67.8	4	-1E+10	1	-1E+10	1	-1E+10	1	-1E+10	1	-1E+10	1	-1E+10	1
4901784	20	C	01/21/2016	10:50	-131.466	45.245	0	169.50	0	8.4160	0	33.6570	0	26.160	0	168.051	0	193.6	4	67.5	4	-1E+10	1	-1E+10	1	-1E+10	1	-1E+10	1	-1E+10	1	-1E+10	1
4901784	20	C	01/21/2016	10:50	-131.466	45.245	0	172.20	0	8.3310	0	33.6710	0	26.184	0	170.727	0	191.9	4	66.7	4	-1E+10	1	-1E+10	1	-1E+10	1	-1E+10	1	-1E+10	1	-1E+10	1
4901784	20	C	01/21/2016	10:50	-131.466	45.245	0	174.80	0	8.3250	0	33.6950	0	26.203	0	173.304	0	189.9	4	66.1	4	-1E+10	1	-1E+10	1	-1E+10	1	-1E+10	1	-1E+10	1	-1E+10	1
4901784	20	C	01/21/2016	10:50	-131.466	45.245	0	177.70	0	8.2530	0	33.7190	0	26.233	0	176.178	0	187.3	4	65.0	4	-1E+10	1	-1E+10	1	-1E+10	1	-1E+10	1	-1E+10	1	-1E+10	1
4901784	20	C	01/21/2016	10:50	-131.466	45.245	0	180.50	0	8.1910	0	33.7320	0	26.253	0	178.953	0	184.9	4	64.1	4	-1E+10	1	-1E+10	1	-1E+10	1	-1E+10	1	-1E+10	1	-1E+10	1
4901784	20	C	01/21/2016	10:50	-131.466	45.245	0	182.40	0	8.1810	0	33.7340	0	26.256	0	180.835	0	183.0	4	63.4	4	-1E+10	1	-1E+10	1	-1E+10	1	-1E+10	1	-1E+10	1	-1E+10	1
4901784	20	C	01/21/2016	10:50	-131.466	45.245	0	184.40	0	8.1650	0	33.7360	0	26.260	0	182.817	0	180.4	4	62.5	4	-1E+10	1	-1E+10	1	-1E+10	1	-1E+10	1	-1E+10	1	-1E+10	1
4901784	20	C	01/21/2016	10:50	-131.466	45.245	0	187.30	0	8.0690	0	33.7470	0	26.283	0	185.691	0	175.7	4	60.8	4	-1E+10	1	-1E+10	1	-1E+10	1	-1E+10	1	-1E+10	1	-1E+10	1
4901784	20	C	01/21/2016	10:50	-131.466	45.245	0	190.10	0	7.9300	0	33.7710	0	26.322	0	188.466	0	172.0	4	59.3	4	-1E+10	1	-1E+10	1	-1E+10	1	-1E+10	1	-1E+10	1	-1E+10	1
4901784	20	C	01/21/2016	10:50	-131.466	45.245	0	192.00	0	7.8850	0	33.7780	0	26.334	0	190.349	0	170.5	4	58.7	4	-1E+10	1	-1E+10	1	-1E+10	1	-1E+10	1	-1E+10	1	-1E+10	1
4901784	20	C	01/21/2016	10:50	-131.466	45.245	0	194.80	0	7.8160	0	33.7870	0	26.351	0	193.123	0	168.7	4	58.0	4	-1E+10	1	-1E+10	1	-1E+10	1	-1E+10	1	-1E+10	1	-1E+10	1
4901784	20	C	01/21/2016	10:50	-131.466	45.245	0	198.20	0	7.7720	0	33.7970	0	26.365	0	196.492	0	167.5	4	57.6	4	-1E+10	1	-1E+10	1	-1E+10	1	-1E+10	1	-1E+10	1	-1E+10	1
4901784	20	C	01/21/2016	10:50	-131.466	45.245	0	200.10	0	7.6990	0	33.8100	0	26.386	0	198.375	0	166.7	4	57.2	4	-1E+10	1	-1E+10	1	-1E+10	1	-1E+10	1	-1E+10	1	-1E+10	1
4901784	20	C	01/21/2016	10:50	-131.466	45.245	0	202.40	0	7.6640	0	33.8120	0	26.393	0	200.654	0	166.8	4	57.2	4	-1E+10	1	-1E+10	1	-1E+10	1	-1E+10	1	-1E+10	1	-1E+10	1
4901784	20	C	01/21/2016	10:50	-131.466	45.245	0	204.60	0	7.6390	0	33.8170	0	26.400	0	202.834	0	167.5	4	57.4	4	-1E+10	1	-1E+10	1	-1E+10	1	-1E+10	1	-1E+10	1	-1E+10	1
4901784	20	C	01/21/2016	10:50	-131.466	45.245	0	207.10	0	7.6360	0	33.8350	0	26.415	0	205.311	0	167.8	4	57.5	4	-1E+10	1	-1E+10	1	-1E+10	1	-1E+10	1	-1E+10	1	-1E+10	1
4901784	20	C	01/21/2016	10:50	-131.466	45.245	0	210.30	0	7.5790	0	33.8460	0	26.432	0	208.482	0	166.1	4	56.9	4	-1E+10	1	-1E+10	1	-1E+10	1	-1E+10	1	-1E+10	1	-1E+10	1
4901784	20	C	01/21/2016	10:50	-131.466	45.245	0	212.70	0	7.5300	0	33.8500	0	26.442	0	210.860	0	164.8	4	56.4	4	-1E+10	1	-1E+10	1	-1E+10	1	-1E+10	1	-1E+10	1	-1E+10	1
4901784	20	C	01/21/2016	10:50	-131.466	45.245	0	215.20	0	7.5180	0	33.8500	0	26.444	0	213.337	0	163.2	4	55.8	4	-1E+10	1	-1E+10	1	-1E+10	1	-1E+10	1	-1E+10	1	-1E+10	1
4901784	20	C	01/21/2016	10:50	-131.466	45.245	0	217.60	0	7.4780	0	33.8500	0	26.449	0	215.715	0	160.8	4	54.9	4	-1E+10	1	-1E+10	1	-1E+10	1	-1E+10	1	-1E+10	1	-1E+10	1
4901784	20	C	01/21/2016	10:50	-131.466	45.245	0	220.00	0	7.3450	0	33.8470	0	26.466	0	218.093	0	159.3	4	54.3	4	-1E+10	1	-1E+10	1	-1E+10	1	-1E+10	1	-1E+10	1	-1E+10	1
4901784	20	C	01/21/2016	10:50	-131.466	45.245	0	222.50	0	7.2950	0	33.8440	0	26.471	0	220.570	0	158.4	4	53.9	4	-1E+10	1	-1E+10	1	-1E+10	1	-1E+10	1	-1E+10	1	-1E+10	1
4901784	20	C	01/21/2016	10:50	-131.466	45.245	0	225.00	0	7.2620	0	33.8480	0	26.478	0	223.047	0	157.0	4	53.4	4	-1E+10	1	-1E+10	1	-1E+10	1	-1E+10	1	-1E+10	1	-1E+10	1
4901784	20	C	01/21/2016	10:50	-131.466	45.245	0	227.40	0	7.2440	0	33.8530	0	26.485	0	225.425	0	155.7	4	52.9	4	-1E+10	1	-1E+10	1	-1E+10	1	-1E+10	1	-1E+10	1	-1E+10	1
4901784	20	C	01/21/2016	10:50	-131.466	45.245	0	230.00	0	7.2370	0	33.8540	0	26.487	0	228.001	0	154.4	4	52.5	4	-1E+10	1	-1E+10	1	-1E+10	1	-1E+10	1	-1E+10	1	-1E+10	1
4901784	20	C	01/21/2016	10:50	-131.466	45.245	0	232.50	0	7.2060	0	33.8540	0	26.491	0	230.478	0	153.1	4	52.0	4	-1E+10	1	-1E+10	1	-1E+10	1	-1E+10	1	-1E+10	1	-1E+10	1
4901784	20	C	01/21/2016	10:50	-131.466	45.245	0	235.00	0	7.1700	0	33.8550	0	26.497	0	232.955	0	151.9	4	51.5	4	-1E+10	1	-1E+10	1	-1E+10	1	-1E+10	1	-1E+10	1	-1E+10	1
4901784	20	C	01/21/2016	10:50	-131.466	45.245	0	237.50	0	7.1020	0	33.8560	0	26.507	0	235.431	0	151.0	4	51.1	4	-1E+10	1	-1E+10	1	-1E+10	1	-1E+10	1	-1E+10	1	-1E+10	1
4901784	20	C	01/21/2016	10:50	-131.466	45.245	0	240.00	0	7.0770	0	33.8570	0	26.511	0	237.908	0	149.3	4	50.5	4	-1E+10	1	-1E+10	1	-1E+10	1	-1E+10	1	-1E+10	1	-1E+10	1
4901784	20	C	01/21/2016	10:50	-131.466	45.245	0	242.60	0	7.0580	0	33.8570	0	26.514	0	240.484	0	147.4	4	49.9	4	-1E+10	1	-1E+10	1	-1E+10	1	-1E+10	1	-1E+10	1	-1E+10	1
4901784	20	C	01/21/2016	10:50	-131.466	45.245	0	245.10	0	7.0080	0	33.8580	0	26.521	0	242.961	0	144.6	4	48.9	4	-1E+10	1	-1E+10	1	-1E+10	1	-1E+10	1	-1E+10	1	-1E+10	1
4901784	20	C	01/21/2016	10:50	-131.466	45.245	0	247.70	0	6.9430	0	33.8630	0	26.534	0	245.537	0	142.6	4	48.1	4	-1E+10	1	-1E+10	1	-1E+10	1	-1E+10	1	-1E+10	1	-1E+10	1
4901784	20	C	01/21/2016	10:50	-131.466	45.245	0	250.20	0	6.9300	0	33.8630	0	26.536	0	248.013	0	140.1	4	47.3	4	-1E+10	1	-1E+10	1	-1E+10	1	-1E+10	1	-1E+10	1	-1E+10	1
4901784	20	C	01/21/2016	10:50	-131.466	45.245	0	252.80	0	6.8850	0	33.8650	0	26.544	0	250.589	0	137.1	4	46.2	4	-1E+10	1	-1E+10	1	-1E+10	1	-1E+10	1	-1E+10	1	-1E+10	1
4901784	20	C	01/21/2016	10:50	-131.466	45.245	0	255.40	0	6.8140	0	33.8700	0	26.557	0	253.165	0	134.6	4	45.3	4	-1E+10	1	-1E+10	1	-1E+10	1	-1E+10	1	-1E+10	1	-1E+10	1
4901784	20	C	01/21/2016	10:50	-131.466	45.245	0	257.90	0	6.7760	0	33.8730	0	26.565	0	255.641	0	132.3	4	44.5	4	-1E+10	1	-1E+10	1	-1E+10	1	-1E+10	1	-1E+10	1	-1E+10	1
4901784	20	C	01/21/2016	10:50	-131.466	45.245	0	259.70	0	6.7400	0	33.8750	0	26.571	0	257.424	0	131.1	4	44.0	4	-1E+10	1	-1E+10	1	-1E+10	1	-1E+10	1	-1E+10	1	-1E+10	1
4901784	20	C	01/21/2016	10:50	-131.466	45.245	0	262.30	0	6.7080	0	33.8770	0	26.577	0	260.000	0	129.2	4	43.4	4	-1E+10	1	-1E+10	1	-1E+10	1	-1E+10	1	-1E+10	1	-1E+10	1
4901784	20	C	01/21/2016	10:50	-131.466	45.245	0	264.90	0	6.6870	0	33.8780	0	26.581	0	262.575	0	127.3	4	42.7	4	-1E+10	1	-1E+10	1	-1E+10	1	-1E+10	1	-1E+10	1	-1E+10	1
4901784	20	C	01/21/2016	10:50	-131.466	45.245	0	267.50	0	6.6570	0	33.8800	0	26.586	0	265.151	0	125.6	4	42.1	4	-1E+10	1	-1E+10	1	-1E+10	1	-1E+10	1	-1E+10	1	-1E+10	1
4901784	20	C	01/21/2016	10:50	-131.466	45.245	0	270.20	0	6.6350	0	33.8810	0	26.590	0	267.825	0	123.8	4	41.5	4	-1E+10	1	-1E+10	1	-1E+10	1	-1E+10	1	-1E+10	1	-1E+10	1
4901784	20	C	01/21/2016	10:50	-131.466	45.245	0	272.00	0	6.6080	0	33.8830	0	26.595	0	269.608	0	122.6	4	41.1	4	-1E+10	1	-1E+10	1	-1E+10	1	-1E+10	1	-1E+10	1	-1E+10	1
4901784	20	C	01/21/2016	10:50	-131.466	45.245	0	274.70	0	6.5920	0	33.8830	0	26.597	0	272.283	0	120.4	4	40.3	4	-1E+10	1	-1E+10	1	-1E+10	1	-1E+10	1	-1E+10	1	-1E+10	1
4901784	20	C	01/21/2016	10:50	-131.466	45.245	0	277.30	0	6.5500	0	33.8840	0	26.604	0	274.858	0	117.5	4	39.3	4	-1E+10	1	-1E+10	1	-1E+10	1	-1E+10	1	-1E+10	1	-1E+10	1
4901784	20	C	01/21/2016	10:50	-131.466	45.245	0	280.00	0	6.4850	0	33.8920	0	26.618	0	277.533	0	114.8	4	38.4	4	-1E+10	1	-1E+10	1	-1E+10	1	-1E+10	1	-1E+10	1	-1E+10	1
4901784	20	C	01/21/2016	10:50	-131.466	45.245	0	282.70	0	6.4460	0	33.8940	0	26.625	0	280.207	0	113.5	4	37.9	4	-1E+10	1	-1E+10	1	-1E+10	1	-1E+10	1	-1E+10	1	-1E+10	1
4901784	20	C	01/21/2016	10:50	-131.466	45.245	0	285.40	0	6.4040	0	33.8960	0	26.632	0	282.881	0	112.5	4	37.5	4	-1E+10	1	-1E+10	1	-1E+10	1	-1E+10	1	-1E+10	1	-1E+10	1
4901784	20	C	01/21/2016	10:50	-131.466	45.245	0	288.10	0	6.3810	0	33.8970	0	26.636	0	285.556	0	111.7	4	37.2	4	-1E+10	1	-1E+10	1	-1E+10	1	-1E+10	1	-1E+10	1	-1E+10	1
4901784	20	C	01/21/2016	10:50	-131.466	45.245	0	289.90	0	6.3760	0	33.8960	0	26.636	0	287.339	0	110.9	4	37.0	4	-1E+10	1	-1E+10	1	-1E+10	1	-1E+10	1	-1E+10	1	-1E+10	1
4901784	20	C	01/21/2016	10:50	-131.466	45.245	0	292.60	0	6.3390	0	33.8960	0	26.641	0	290.013	0	109.6	4	36.5	4	-1E+10	1	-1E+10	1	-1E+10	1	-1E+10	1	-1E+10	1	-1E+10	1
4901784	20	C	01/21/2016	10:50	-131.466	45.245	0	295.30	0	6.2830	0	33.8980	0	26.649	0	292.687	0	108.2	4	36.0	4	-1E+10	1	-1E+10	1	-1E+10	1	-1E+10	1	-1E+10	1	-1E+10	1
4901784	20	C	01/21/2016	10:50	-131.466	45.245	0	297.20	0	6.2680	0	33.8980	0	26.651	0	294.569	0	107.2	4	35.6	4	-1E+10	1	-1E+10	1	-1E+10	1	-1E+10	1	-1E+10	1	-1E+10	1
4901784	20	C	01/21/2016	10:50	-131.466	45.245	0	299.90	0	6.2460	0	33.8980	0	26.654	0	297.243	0	105.3	4	35.0	4	-1E+10	1	-1E+10	1	-1E+10	1	-1E+10	1	-1E+10	1	-1E+10	1
4901784	20	C	01/21/2016	10:50	-131.466	45.245	0	302.70	0	6.2310	0	33.8970	0	26.655	0	300.016	0	102.8	4	34.1	4	-1E+10	1	-1E+10	1	-1E+10	1	-1E+10	1	-1E+10	1	-1E+10	1
4901784	20	C	01/21/2016	10:50	-131.466	45.245	0	304.50	0	6.1910	0	33.8990	0	26.662	0	301.799	0	100.7	4	33.4	4	-1E+10	1	-1E+10	1	-1E+10	1	-1E+10	1	-1E+10	1	-1E+10	1
4901784	20	C	01/21/2016	10:50	-131.466	45.245	0	307.30	0	6.1140	0	33.9040	0	26.676	0	304.572	0	98.4	4	32.6	4	-1E+10	1	-1E+10	1	-1E+10	1	-1E+10	1	-1E+10	1	-1E+10	1
4901784	20	C	01/21/2016	10:50	-131.466	45.245	0	310.20	0	6.0600	0	33.9030	0	26.682	0	307.444	0	96.4	4	31.9	4	-1E+10	1	-1E+10	1	-1E+10	1	-1E+10	1	-1E+10	1	-1E+10	1
4901784	20	C	01/21/2016	10:50	-131.466	45.245	0	312.10	0	6.0110	0	33.9090	0	26.693	0	309.326	0	94.4	4	31.2	4	-1E+10	1	-1E+10	1	-1E+10	1	-1E+10	1	-1E+10	1	-1E+10	1
4901784	20	C	01/21/2016	10:50	-131.466	45.245	0	315.00	0	5.9690	0	33.9140	0	26.702	0	312.198	0	93.0	4	30.7	4	-1E+10	1	-1E+10	1	-1E+10	1	-1E+10	1	-1E+10	1	-1E+10	1
4901784	20	C	01/21/2016	10:50	-131.466	45.245	0	317.80	0	5.9300	0	33.9140	0	26.707	0	314.971	0	92.2	4	30.4	4	-1E+10	1	-1E+10	1	-1E+10	1	-1E+10	1	-1E+10	1	-1E+10	1
4901784	20	C	01/21/2016	10:50	-131.466	45.245	0	319.60	0	5.9130	0	33.9140	0	26.709	0	316.754	0	92.0	4	30.3	4	-1E+10	1	-1E+10	1	-1E+10	1	-1E+10	1	-1E+10	1	-1E+10	1
4901784	20	C	01/21/2016	10:50	-131.466	45.245	0	322.50	0	5.8970	0	33.9130	0	26.710	0	319.625	0	91.0	4	30.0	4	-1E+10	1	-1E+10	1	-1E+10	1	-1E+10	1	-1E+10	1	-1E+10	1
4901784	20	C	01/21/2016	10:50	-131.466	45.245	0	325.00	0	5.8720	0	33.9140	0	26.714	0	322.101	0	89.7	4	29.5	4	-1E+10	1	-1E+10	1	-1E+10	1	-1E+10	1	-1E+10	1	-1E+10	1
4901784	20	C	01/21/2016	10:50	-131.466	45.245	0	327.40	0	5.8270	0	33.9160	0	26.721	0	324.478	0	88.2	4	29.0	4	-1E+10	1	-1E+10	1	-1E+10	1	-1E+10	1	-1E+10	1	-1E+10	1
4901784	20	C	01/21/2016	10:50	-131.466	45.245	0	329.80	0	5.8100	0	33.9180	0	26.725	0	326.855	0	86.9	4	28.6	4	-1E+10	1	-1E+10	1	-1E+10	1	-1E+10	1	-1E+10	1	-1E+10	1
4901784	20	C	01/21/2016	10:50	-131.466	45.245	0	332.30	0	5.7800	0	33.9200	0	26.730	0	329.330	0	85.7	4	28.2	4	-1E+10	1	-1E+10	1	-1E+10	1	-1E+10	1	-1E+10	1	-1E+10	1
4901784	20	C	01/21/2016	10:50	-131.466	45.245	0	334.70	0	5.7660	0	33.9220	0	26.733	0	331.707	0	84.8	4	27.9	4	-1E+10	1	-1E+10	1	-1E+10	1	-1E+10	1	-1E+10	1	-1E+10	1
4901784	20	C	01/21/2016	10:50	-131.466	45.245	0	337.90	0	5.7520	0	33.9240	0	26.737	0	334.876	0	84.4	4	27.7	4	-1E+10	1	-1E+10	1	-1E+10	1	-1E+10	1	-1E+10	1	-1E+10	1
4901784	20	C	01/21/2016	10:50	-131.466	45.245	0	340.30	0	5.7400	0	33.9230	0	26.737	0	337.252	0	84.2	4	27.6	4	-1E+10	1	-1E+10	1	-1E+10	1	-1E+10	1	-1E+10	1	-1E+10	1
4901784	20	C	01/21/2016	10:50	-131.466	45.245	0	342.80	0	5.7290	0	33.9220	0	26.738	0	339.728	0	83.6	4	27.5	4	-1E+10	1	-1E+10	1	-1E+10	1	-1E+10	1	-1E+10	1	-1E+10	1
4901784	20	C	01/21/2016	10:50	-131.466	45.245	0	345.30	0	5.6770	0	33.9210	0	26.744	0	342.203	0	83.0	4	27.2	4	-1E+10	1	-1E+10	1	-1E+10	1	-1E+10	1	-1E+10	1	-1E+10	1
4901784	20	C	01/21/2016	10:50	-131.466	45.245	0	347.80	0	5.6650	0	33.9230	0	26.747	0	344.679	0	81.8	4	26.8	4	-1E+10	1	-1E+10	1	-1E+10	1	-1E+10	1	-1E+10	1	-1E+10	1
4901784	20	C	01/21/2016	10:50	-131.466	45.245	0	350.20	0	5.6620	0	33.9260	0	26.749	0	347.055	0	80.6	4	26.4	4	-1E+10	1	-1E+10	1	-1E+10	1	-1E+10	1	-1E+10	1	-1E+10	1
4901784	20	C	01/21/2016	10:50	-131.466	45.245	0	352.60	0	5.6520	0	33.9280	0	26.752	0	349.432	0	79.9	4	26.2	4	-1E+10	1	-1E+10	1	-1E+10	1	-1E+10	1	-1E+10	1	-1E+10	1
4901784	20	C	01/21/2016	10:50	-131.466	45.245	0	355.10	0	5.6160	0	33.9280	0	26.757	0	351.907	0	79.7	4	26.1	4	-1E+10	1	-1E+10	1	-1E+10	1	-1E+10	1	-1E+10	1	-1E+10	1
4901784	20	C	01/21/2016	10:50	-131.466	45.245	0	357.60	0	5.6030	0	33.9280	0	26.758	0	354.383	0	79.5	4	26.0	4	-1E+10	1	-1E+10	1	-1E+10	1	-1E+10	1	-1E+10	1	-1E+10	1
4901784	20	C	01/21/2016	10:50	-131.466	45.245	0	360.10	0	5.5630	0	33.9270	0	26.762	0	356.858	0	79.4	4	26.0	4	-1E+10	1	-1E+10	1	-1E+10	1	-1E+10	1	-1E+10	1	-1E+10	1
4901784	20	C	01/21/2016	10:50	-131.466	45.245	0	362.60	0	5.5470	0	33.9270	0	26.764	0	359.333	0	78.9	4	25.8	4	-1E+10	1	-1E+10	1	-1E+10	1	-1E+10	1	-1E+10	1	-1E+10	1
4901784	20	C	01/21/2016	10:50	-131.466	45.245	0	365.20	0	5.5470	0	33.9270	0	26.764	0	361.908	0	78.0	4	25.5	4	-1E+10	1	-1E+10	1	-1E+10	1	-1E+10	1	-1E+10	1	-1E+10	1
4901784	20	C	01/21/2016	10:50	-131.466	45.245	0	367.80	0	5.5240	0	33.9290	0	26.769	0	364.482	0	77.0	4	25.2	4	-1E+10	1	-1E+10	1	-1E+10	1	-1E+10	1	-1E+10	1	-1E+10	1
4901784	20	C	01/21/2016	10:50	-131.466	45.245	0	370.30	0	5.4900	0	33.9320	0	26.775	0	366.957	0	76.1	4	24.8	4	-1E+10	1	-1E+10	1	-1E+10	1	-1E+10	1	-1E+10	1	-1E+10	1
4901784	20	C	01/21/2016	10:50	-131.466	45.245	0	372.90	0	5.4660	0	33.9320	0	26.778	0	369.531	0	75.4	4	24.6	4	-1E+10	1	-1E+10	1	-1E+10	1	-1E+10	1	-1E+10	1	-1E+10	1
4901784	20	C	01/21/2016	10:50	-131.466	45.245	0	375.50	0	5.4490	0	33.9320	0	26.780	0	372.106	0	74.6	4	24.3	4	-1E+10	1	-1E+10	1	-1E+10	1	-1E+10	1	-1E+10	1	-1E+10	1
4901784	20	C	01/21/2016	10:50	-131.466	45.245	0	377.20	0	5.4320	0	33.9340	0	26.784	0	373.789	0	74.0	4	24.1	4	-1E+10	1	-1E+10	1	-1E+10	1	-1E+10	1	-1E+10	1	-1E+10	1
4901784	20	C	01/21/2016	10:50	-131.466	45.245	0	379.80	0	5.4200	0	33.9350	0	26.786	0	376.363	0	73.2	4	23.9	4	-1E+10	1	-1E+10	1	-1E+10	1	-1E+10	1	-1E+10	1	-1E+10	1
4901784	20	C	01/21/2016	10:50	-131.466	45.245	0	382.30	0	5.3970	0	33.9370	0	26.790	0	378.838	0	72.4	4	23.6	4	-1E+10	1	-1E+10	1	-1E+10	1	-1E+10	1	-1E+10	1	-1E+10	1
4901784	20	C	01/21/2016	10:50	-131.466	45.245	0	384.90	0	5.3450	0	33.9360	0	26.795	0	381.412	0	71.9	4	23.4	4	-1E+10	1	-1E+10	1	-1E+10	1	-1E+10	1	-1E+10	1	-1E+10	1
4901784	20	C	01/21/2016	10:50	-131.466	45.245	0	387.50	0	5.3230	0	33.9370	0	26.799	0	383.986	0	70.7	4	23.0	4	-1E+10	1	-1E+10	1	-1E+10	1	-1E+10	1	-1E+10	1	-1E+10	1
4901784	20	C	01/21/2016	10:50	-131.466	45.245	0	390.10	0	5.3180	0	33.9400	0	26.802	0	386.560	0	69.2	4	22.5	4	-1E+10	1	-1E+10	1	-1E+10	1	-1E+10	1	-1E+10	1	-1E+10	1
4901784	20	C	01/21/2016	10:50	-131.466	45.245	0	392.70	0	5.3120	0	33.9420	0	26.804	0	389.134	0	67.5	4	21.9	4	-1E+10	1	-1E+10	1	-1E+10	1	-1E+10	1	-1E+10	1	-1E+10	1
4901784	20	C	01/21/2016	10:50	-131.466	45.245	0	395.30	0	5.3140	0	33.9460	0	26.807	0	391.708	0	65.6	4	21.3	4	-1E+10	1	-1E+10	1	-1E+10	1	-1E+10	1	-1E+10	1	-1E+10	1
4901784	20	C	01/21/2016	10:50	-131.466	45.245	0	397.90	0	5.3100	0	33.9510	0	26.812	0	394.282	0	64.4	4	20.9	4	-1E+10	1	-1E+10	1	-1E+10	1	-1E+10	1	-1E+10	1	-1E+10	1
4901784	20	C	01/21/2016	10:50	-131.466	45.245	0	399.60	0	5.3020	0	33.9530	0	26.814	0	395.965	0	64.0	4	20.8	4	-1E+10	1	-1E+10	1	-1E+10	1	-1E+10	1	-1E+10	1	-1E+10	1
4901784	20	C	01/21/2016	10:50	-131.466	45.245	0	402.20	0	5.2700	0	33.9530	0	26.818	0	398.539	0	63.5	4	20.6	4	-1E+10	1	-1E+10	1	-1E+10	1	-1E+10	1	-1E+10	1	-1E+10	1
4901784	20	C	01/21/2016	10:50	-131.466	45.245	0	404.80	0	5.2530	0	33.9540	0	26.821	0	401.112	0	62.1	4	20.2	4	-1E+10	1	-1E+10	1	-1E+10	1	-1E+10	1	-1E+10	1	-1E+10	1
4901784	20	C	01/21/2016	10:50	-131.466	45.245	0	407.40	0	5.2250	0	33.9550	0	26.825	0	403.686	0	60.8	4	19.7	4	-1E+10	1	-1E+10	1	-1E+10	1	-1E+10	1	-1E+10	1	-1E+10	1
4901784	20	C	01/21/2016	10:50	-131.466	45.245	0	410.00	0	5.2020	0	33.9580	0	26.830	0	406.260	0	59.3	4	19.3	4	-1E+10	1	-1E+10	1	-1E+10	1	-1E+10	1	-1E+10	1	-1E+10	1
4901784	20	C	01/21/2016	10:50	-131.466	45.245	0	412.70	0	5.1740	0	33.9600	0	26.835	0	408.933	0	58.6	4	19.0	4	-1E+10	1	-1E+10	1	-1E+10	1	-1E+10	1	-1E+10	1	-1E+10	1
4901784	20	C	01/21/2016	10:50	-131.466	45.245	0	415.30	0	5.1370	0	33.9650	0	26.843	0	411.506	0	57.8	4	18.7	4	-1E+10	1	-1E+10	1	-1E+10	1	-1E+10	1	-1E+10	1	-1E+10	1
4901784	20	C	01/21/2016	10:50	-131.466	45.245	0	417.10	0	5.1300	0	33.9660	0	26.845	0	413.288	0	57.2	4	18.5	4	-1E+10	1	-1E+10	1	-1E+10	1	-1E+10	1	-1E+10	1	-1E+10	1
4901784	20	C	01/21/2016	10:50	-131.466	45.245	0	419.70	0	5.1130	0	33.9690	0	26.849	0	415.862	0	56.2	4	18.2	4	-1E+10	1	-1E+10	1	-1E+10	1	-1E+10	1	-1E+10	1	-1E+10	1
4901784	20	C	01/21/2016	10:50	-131.466	45.245	0	422.30	0	5.0990	0	33.9750	0	26.855	0	418.435	0	55.2	4	17.9	4	-1E+10	1	-1E+10	1	-1E+10	1	-1E+10	1	-1E+10	1	-1E+10	1
4901784	20	C	01/21/2016	10:50	-131.466	45.245	0	425.00	0	5.0700	0	33.9760	0	26.859	0	421.108	0	54.4	4	17.6	4	-1E+10	1	-1E+10	1	-1E+10	1	-1E+10	1	-1E+10	1	-1E+10	1
4901784	20	C	01/21/2016	10:50	-131.466	45.245	0	427.70	0	5.0390	0	33.9810	0	26.867	0	423.780	0	53.6	4	17.3	4	-1E+10	1	-1E+10	1	-1E+10	1	-1E+10	1	-1E+10	1	-1E+10	1
4901784	20	C	01/21/2016	10:50	-131.466	45.245	0	430.30	0	5.0290	0	33.9810	0	26.868	0	426.354	0	53.0	4	17.1	4	-1E+10	1	-1E+10	1	-1E+10	1	-1E+10	1	-1E+10	1	-1E+10	1
4901784	20	C	01/21/2016	10:50	-131.466	45.245	0	433.10	0	5.0010	0	33.9840	0	26.874	0	429.125	0	52.3	4	16.9	4	-1E+10	1	-1E+10	1	-1E+10	1	-1E+10	1	-1E+10	1	-1E+10	1
4901784	20	C	01/21/2016	10:50	-131.466	45.245	0	434.80	0	4.9910	0	33.9850	0	26.876	0	430.808	0	51.9	4	16.8	4	-1E+10	1	-1E+10	1	-1E+10	1	-1E+10	1	-1E+10	1	-1E+10	1
4901784	20	C	01/21/2016	10:50	-131.466	45.245	0	437.50	0	4.9830	0	33.9870	0	26.878	0	433.480	0	51.2	4	16.5	4	-1E+10	1	-1E+10	1	-1E+10	1	-1E+10	1	-1E+10	1	-1E+10	1
4901784	20	C	01/21/2016	10:50	-131.466	45.245	0	440.20	0	4.9700	0	33.9890	0	26.881	0	436.153	0	50.4	4	16.3	4	-1E+10	1	-1E+10	1	-1E+10	1	-1E+10	1	-1E+10	1	-1E+10	1
4901784	20	C	01/21/2016	10:50	-131.466	45.245	0	442.10	0	4.9580	0	33.9900	0	26.883	0	438.033	0	49.9	4	16.1	4	-1E+10	1	-1E+10	1	-1E+10	1	-1E+10	1	-1E+10	1	-1E+10	1
4901784	20	C	01/21/2016	10:50	-131.466	45.245	0	444.90	0	4.9400	0	33.9930	0	26.888	0	440.804	0	49.4	4	15.9	4	-1E+10	1	-1E+10	1	-1E+10	1	-1E+10	1	-1E+10	1	-1E+10	1
4901784	20	C	01/21/2016	10:50	-131.466	45.245	0	448.30	0	4.9180	0	33.9950	0	26.892	0	444.169	0	48.8	4	15.7	4	-1E+10	1	-1E+10	1	-1E+10	1	-1E+10	1	-1E+10	1	-1E+10	1
4901784	20	C	01/21/2016	10:50	-131.466	45.245	0	450.20	0	4.9080	0	33.9940	0	26.892	0	446.050	0	48.2	4	15.5	4	-1E+10	1	-1E+10	1	-1E+10	1	-1E+10	1	-1E+10	1	-1E+10	1
4901784	20	C	01/21/2016	10:50	-131.466	45.245	0	452.50	0	4.9110	0	34.0000	0	26.897	0	448.326	0	46.9	4	15.1	4	-1E+10	1	-1E+10	1	-1E+10	1	-1E+10	1	-1E+10	1	-1E+10	1
4901784	20	C	01/21/2016	10:50	-131.466	45.245	0	454.90	0	4.9030	0	34.0020	0	26.899	0	450.702	0	46.1	4	14.9	4	-1E+10	1	-1E+10	1	-1E+10	1	-1E+10	1	-1E+10	1	-1E+10	1
4901784	20	C	01/21/2016	10:50	-131.466	45.245	0	457.20	0	4.8870	0	34.0060	0	26.904	0	452.978	0	45.5	4	14.7	4	-1E+10	1	-1E+10	1	-1E+10	1	-1E+10	1	-1E+10	1	-1E+10	1
4901784	20	C	01/21/2016	10:50	-131.466	45.245	0	460.30	0	4.8740	0	34.0080	0	26.907	0	456.046	0	44.8	4	14.4	4	-1E+10	1	-1E+10	1	-1E+10	1	-1E+10	1	-1E+10	1	-1E+10	1
4901784	20	C	01/21/2016	10:50	-131.466	45.245	0	462.70	0	4.8640	0	34.0120	0	26.912	0	458.421	0	44.2	4	14.2	4	-1E+10	1	-1E+10	1	-1E+10	1	-1E+10	1	-1E+10	1	-1E+10	1
4901784	20	C	01/21/2016	10:50	-131.466	45.245	0	465.10	0	4.8640	0	34.0130	0	26.912	0	460.796	0	43.9	4	14.1	4	-1E+10	1	-1E+10	1	-1E+10	1	-1E+10	1	-1E+10	1	-1E+10	1
4901784	20	C	01/21/2016	10:50	-131.466	45.245	0	467.60	0	4.8640	0	34.0140	0	26.913	0	463.270	0	43.5	4	14.0	4	-1E+10	1	-1E+10	1	-1E+10	1	-1E+10	1	-1E+10	1	-1E+10	1
4901784	20	C	01/21/2016	10:50	-131.466	45.245	0	470.00	0	4.8620	0	34.0150	0	26.914	0	465.645	0	43.0	4	13.8	4	-1E+10	1	-1E+10	1	-1E+10	1	-1E+10	1	-1E+10	1	-1E+10	1
4901784	20	C	01/21/2016	10:50	-131.466	45.245	0	472.50	0	4.8570	0	34.0170	0	26.916	0	468.119	0	42.5	4	13.7	4	-1E+10	1	-1E+10	1	-1E+10	1	-1E+10	1	-1E+10	1	-1E+10	1
4901784	20	C	01/21/2016	10:50	-131.466	45.245	0	474.90	0	4.8440	0	34.0190	0	26.919	0	470.494	0	42.3	4	13.6	4	-1E+10	1	-1E+10	1	-1E+10	1	-1E+10	1	-1E+10	1	-1E+10	1
4901784	20	C	01/21/2016	10:50	-131.466	45.245	0	477.50	0	4.8380	0	34.0210	0	26.922	0	473.067	0	41.9	4	13.5	4	-1E+10	1	-1E+10	1	-1E+10	1	-1E+10	1	-1E+10	1	-1E+10	1
4901784	20	C	01/21/2016	10:50	-131.466	45.245	0	480.10	0	4.8330	0	34.0220	0	26.923	0	475.640	0	41.6	4	13.4	4	-1E+10	1	-1E+10	1	-1E+10	1	-1E+10	1	-1E+10	1	-1E+10	1
4901784	20	C	01/21/2016	10:50	-131.466	45.245	0	482.60	0	4.8290	0	34.0230	0	26.924	0	478.114	0	41.1	4	13.2	4	-1E+10	1	-1E+10	1	-1E+10	1	-1E+10	1	-1E+10	1	-1E+10	1
4901784	20	C	01/21/2016	10:50	-131.466	45.245	0	485.20	0	4.8210	0	34.0250	0	26.927	0	480.687	0	40.6	4	13.1	4	-1E+10	1	-1E+10	1	-1E+10	1	-1E+10	1	-1E+10	1	-1E+10	1
4901784	20	C	01/21/2016	10:50	-131.466	45.245	0	487.70	0	4.8120	0	34.0280	0	26.930	0	483.161	0	40.3	4	13.0	4	-1E+10	1	-1E+10	1	-1E+10	1	-1E+10	1	-1E+10	1	-1E+10	1
4901784	20	C	01/21/2016	10:50	-131.466	45.245	0	490.40	0	4.8110	0	34.0280	0	26.930	0	485.832	0	40.1	4	12.9	4	-1E+10	1	-1E+10	1	-1E+10	1	-1E+10	1	-1E+10	1	-1E+10	1
4901784	20	C	01/21/2016	10:50	-131.466	45.245	0	492.90	0	4.8050	0	34.0280	0	26.931	0	488.306	0	39.9	4	12.8	4	-1E+10	1	-1E+10	1	-1E+10	1	-1E+10	1	-1E+10	1	-1E+10	1
4901784	20	C	01/21/2016	10:50	-131.466	45.245	0	494.60	0	4.7930	0	34.0290	0	26.933	0	489.988	0	39.8	4	12.8	4	-1E+10	1	-1E+10	1	-1E+10	1	-1E+10	1	-1E+10	1	-1E+10	1
4901784	20	C	01/21/2016	10:50	-131.466	45.245	0	497.20	0	4.7860	0	34.0290	0	26.934	0	492.561	0	39.4	4	12.7	4	-1E+10	1	-1E+10	1	-1E+10	1	-1E+10	1	-1E+10	1	-1E+10	1
4901784	20	C	01/21/2016	10:50	-131.466	45.245	0	499.70	0	4.7780	0	34.0320	0	26.937	0	495.035	0	39.0	4	12.5	4	-1E+10	1	-1E+10	1	-1E+10	1	-1E+10	1	-1E+10	1	-1E+10	1
4901784	20	C	01/21/2016	10:50	-131.466	45.245	0	504.80	0	4.7720	0	34.0330	0	26.939	0	500.081	0	38.3	4	12.3	4	-1E+10	1	-1E+10	1	-1E+10	1	-1E+10	1	-1E+10	1	-1E+10	1
4901784	20	C	01/21/2016	10:50	-131.466	45.245	0	509.90	0	4.7640	0	34.0360	0	26.942	0	505.127	0	37.4	4	12.0	4	-1E+10	1	-1E+10	1	-1E+10	1	-1E+10	1	-1E+10	1	-1E+10	1
4901784	20	C	01/21/2016	10:50	-131.466	45.245	0	515.00	0	4.7480	0	34.0390	0	26.946	0	510.173	0	36.5	4	11.7	4	-1E+10	1	-1E+10	1	-1E+10	1	-1E+10	1	-1E+10	1	-1E+10	1
4901784	20	C	01/21/2016	10:50	-131.466	45.245	0	520.10	0	4.7090	0	34.0450	0	26.955	0	515.219	0	35.7	4	11.4	4	-1E+10	1	-1E+10	1	-1E+10	1	-1E+10	1	-1E+10	1	-1E+10	1
4901784	20	C	01/21/2016	10:50	-131.466	45.245	0	525.20	0	4.6770	0	34.0490	0	26.962	0	520.265	0	35.3	4	11.3	4	-1E+10	1	-1E+10	1	-1E+10	1	-1E+10	1	-1E+10	1	-1E+10	1
4901784	20	C	01/21/2016	10:50	-131.466	45.245	0	530.40	0	4.6730	0	34.0500	0	26.963	0	525.409	0	34.8	4	11.2	4	-1E+10	1	-1E+10	1	-1E+10	1	-1E+10	1	-1E+10	1	-1E+10	1
4901784	20	C	01/21/2016	10:50	-131.466	45.245	0	535.70	0	4.6640	0	34.0520	0	26.966	0	530.653	0	34.1	4	10.9	4	-1E+10	1	-1E+10	1	-1E+10	1	-1E+10	1	-1E+10	1	-1E+10	1
4901784	20	C	01/21/2016	10:50	-131.466	45.245	0	540.00	0	4.6500	0	34.0540	0	26.969	0	534.907	0	33.7	4	10.8	4	-1E+10	1	-1E+10	1	-1E+10	1	-1E+10	1	-1E+10	1	-1E+10	1
4901784	20	C	01/21/2016	10:50	-131.466	45.245	0	544.30	0	4.6040	0	34.0610	0	26.980	0	539.160	0	33.0	4	10.6	4	-1E+10	1	-1E+10	1	-1E+10	1	-1E+10	1	-1E+10	1	-1E+10	1
4901784	20	C	01/21/2016	10:50	-131.466	45.245	0	549.50	0	4.5860	0	34.0660	0	26.986	0	544.305	0	32.2	4	10.3	4	-1E+10	1	-1E+10	1	-1E+10	1	-1E+10	1	-1E+10	1	-1E+10	1
4901784	20	C	01/21/2016	10:50	-131.466	45.245	0	554.60	0	4.5810	0	34.0680	0	26.988	0	549.350	0	31.5	4	10.1	4	-1E+10	1	-1E+10	1	-1E+10	1	-1E+10	1	-1E+10	1	-1E+10	1
4901784	20	C	01/21/2016	10:50	-131.466	45.245	0	559.90	0	4.5720	0	34.0730	0	26.993	0	554.592	0	30.4	4	9.7	4	-1E+10	1	-1E+10	1	-1E+10	1	-1E+10	1	-1E+10	1	-1E+10	1
4901784	20	C	01/21/2016	10:50	-131.466	45.245	0	565.10	0	4.5600	0	34.0770	0	26.997	0	559.736	0	29.5	4	9.4	4	-1E+10	1	-1E+10	1	-1E+10	1	-1E+10	1	-1E+10	1	-1E+10	1
4901784	20	C	01/21/2016	10:50	-131.466	45.245	0	570.40	0	4.5450	0	34.0820	0	27.003	0	564.979	0	28.3	4	9.1	4	-1E+10	1	-1E+10	1	-1E+10	1	-1E+10	1	-1E+10	1	-1E+10	1
4901784	20	C	01/21/2016	10:50	-131.466	45.245	0	575.70	0	4.5230	0	34.0890	0	27.011	0	570.221	0	26.9	4	8.6	4	-1E+10	1	-1E+10	1	-1E+10	1	-1E+10	1	-1E+10	1	-1E+10	1
4901784	20	C	01/21/2016	10:50	-131.466	45.245	0	580.20	0	4.4950	0	34.0990	0	27.022	0	574.672	0	26.0	4	8.3	4	-1E+10	1	-1E+10	1	-1E+10	1	-1E+10	1	-1E+10	1	-1E+10	1
4901784	20	C	01/21/2016	10:50	-131.466	45.245	0	584.70	0	4.4820	0	34.1020	0	27.026	0	579.123	0	25.6	4	8.2	4	-1E+10	1	-1E+10	1	-1E+10	1	-1E+10	1	-1E+10	1	-1E+10	1
4901784	20	C	01/21/2016	10:50	-131.466	45.245	0	590.00	0	4.4680	0	34.1060	0	27.031	0	584.365	0	25.0	4	8.0	4	-1E+10	1	-1E+10	1	-1E+10	1	-1E+10	1	-1E+10	1	-1E+10	1
4901784	20	C	01/21/2016	10:50	-131.466	45.245	0	595.30	0	4.4610	0	34.1090	0	27.034	0	589.607	0	24.4	4	7.8	4	-1E+10	1	-1E+10	1	-1E+10	1	-1E+10	1	-1E+10	1	-1E+10	1
4901784	20	C	01/21/2016	10:50	-131.466	45.245	0	600.60	0	4.4440	0	34.1160	0	27.041	0	594.848	0	23.7	4	7.6	4	-1E+10	1	-1E+10	1	-1E+10	1	-1E+10	1	-1E+10	1	-1E+10	1
4901784	20	C	01/21/2016	10:50	-131.466	45.245	0	605.00	0	4.4400	0	34.1170	0	27.042	0	599.200	0	23.5	4	7.5	4	-1E+10	1	-1E+10	1	-1E+10	1	-1E+10	1	-1E+10	1	-1E+10	1
4901784	20	C	01/21/2016	10:50	-131.466	45.245	0	609.40	0	4.4370	0	34.1180	0	27.044	0	603.551	0	23.1	4	7.4	4	-1E+10	1	-1E+10	1	-1E+10	1	-1E+10	1	-1E+10	1	-1E+10	1
4901784	20	C	01/21/2016	10:50	-131.466	45.245	0	614.60	0	4.4320	0	34.1210	0	27.047	0	608.694	0	22.4	4	7.2	4	-1E+10	1	-1E+10	1	-1E+10	1	-1E+10	1	-1E+10	1	-1E+10	1
4901784	20	C	01/21/2016	10:50	-131.466	45.245	0	619.90	0	4.4150	0	34.1250	0	27.052	0	613.935	0	21.8	4	7.0	4	-1E+10	1	-1E+10	1	-1E+10	1	-1E+10	1	-1E+10	1	-1E+10	1
4901784	20	C	01/21/2016	10:50	-131.466	45.245	0	625.20	0	4.3940	0	34.1280	0	27.056	0	619.176	0	21.6	4	6.9	4	-1E+10	1	-1E+10	1	-1E+10	1	-1E+10	1	-1E+10	1	-1E+10	1
4901784	20	C	01/21/2016	10:50	-131.466	45.245	0	630.40	0	4.3900	0	34.1290	0	27.058	0	624.318	0	21.3	4	6.8	4	-1E+10	1	-1E+10	1	-1E+10	1	-1E+10	1	-1E+10	1	-1E+10	1
4901784	20	C	01/21/2016	10:50	-131.466	45.245	0	635.60	0	4.3720	0	34.1310	0	27.061	0	629.460	0	20.9	4	6.7	4	-1E+10	1	-1E+10	1	-1E+10	1	-1E+10	1	-1E+10	1	-1E+10	1
4901784	20	C	01/21/2016	10:50	-131.466	45.245	0	639.90	0	4.3600	0	34.1330	0	27.064	0	633.712	0	20.5	4	6.5	4	-1E+10	1	-1E+10	1	-1E+10	1	-1E+10	1	-1E+10	1	-1E+10	1
4901784	20	C	01/21/2016	10:50	-131.466	45.245	0	644.20	0	4.3400	0	34.1360	0	27.069	0	637.964	0	20.0	4	6.3	4	-1E+10	1	-1E+10	1	-1E+10	1	-1E+10	1	-1E+10	1	-1E+10	1
4901784	20	C	01/21/2016	10:50	-131.466	45.245	0	649.50	0	4.3150	0	34.1440	0	27.078	0	643.205	0	19.3	4	6.1	4	-1E+10	1	-1E+10	1	-1E+10	1	-1E+10	1	-1E+10	1	-1E+10	1
4901784	20	C	01/21/2016	10:50	-131.466	45.245	0	654.80	0	4.3020	0	34.1500	0	27.084	0	648.445	0	18.7	4	6.0	4	-1E+10	1	-1E+10	1	-1E+10	1	-1E+10	1	-1E+10	1	-1E+10	1
4901784	20	C	01/21/2016	10:50	-131.466	45.245	0	660.10	0	4.2910	0	34.1540	0	27.088	0	653.685	0	18.2	4	5.8	4	-1E+10	1	-1E+10	1	-1E+10	1	-1E+10	1	-1E+10	1	-1E+10	1
4901784	20	C	01/21/2016	10:50	-131.466	45.245	0	665.30	0	4.2810	0	34.1600	0	27.094	0	658.827	0	17.8	4	5.7	4	-1E+10	1	-1E+10	1	-1E+10	1	-1E+10	1	-1E+10	1	-1E+10	1
4901784	20	C	01/21/2016	10:50	-131.466	45.245	0	670.60	0	4.2650	0	34.1650	0	27.100	0	664.066	0	17.6	4	5.6	4	-1E+10	1	-1E+10	1	-1E+10	1	-1E+10	1	-1E+10	1	-1E+10	1
4901784	20	C	01/21/2016	10:50	-131.466	45.245	0	675.80	0	4.2550	0	34.1680	0	27.103	0	669.207	0	17.4	4	5.5	4	-1E+10	1	-1E+10	1	-1E+10	1	-1E+10	1	-1E+10	1	-1E+10	1
4901784	20	C	01/21/2016	10:50	-131.466	45.245	0	680.10	0	4.2440	0	34.1690	0	27.105	0	673.459	0	17.4	4	5.5	4	-1E+10	1	-1E+10	1	-1E+10	1	-1E+10	1	-1E+10	1	-1E+10	1
4901784	20	C	01/21/2016	10:50	-131.466	45.245	0	684.50	0	4.2230	0	34.1700	0	27.108	0	677.808	0	17.4	4	5.5	4	-1E+10	1	-1E+10	1	-1E+10	1	-1E+10	1	-1E+10	1	-1E+10	1
4901784	20	C	01/21/2016	10:50	-131.466	45.245	0	689.70	0	4.2070	0	34.1740	0	27.113	0	682.949	0	16.8	4	5.3	4	-1E+10	1	-1E+10	1	-1E+10	1	-1E+10	1	-1E+10	1	-1E+10	1
4901784	20	C	01/21/2016	10:50	-131.466	45.245	0	695.00	0	4.1960	0	34.1790	0	27.118	0	688.189	0	16.3	4	5.2	4	-1E+10	1	-1E+10	1	-1E+10	1	-1E+10	1	-1E+10	1	-1E+10	1
4901784	20	C	01/21/2016	10:50	-131.466	45.245	0	700.30	0	4.1830	0	34.1830	0	27.123	0	693.428	0	16.0	4	5.1	4	-1E+10	1	-1E+10	1	-1E+10	1	-1E+10	1	-1E+10	1	-1E+10	1
4901784	20	C	01/21/2016	10:50	-131.466	45.245	0	705.60	0	4.1770	0	34.1850	0	27.125	0	698.667	0	15.8	4	5.0	4	-1E+10	1	-1E+10	1	-1E+10	1	-1E+10	1	-1E+10	1	-1E+10	1
4901784	20	C	01/21/2016	10:50	-131.466	45.245	0	710.00	0	4.1620	0	34.1890	0	27.130	0	703.016	0	15.6	4	5.0	4	-1E+10	1	-1E+10	1	-1E+10	1	-1E+10	1	-1E+10	1	-1E+10	1
4901784	20	C	01/21/2016	10:50	-131.466	45.245	0	714.40	0	4.1310	0	34.1940	0	27.137	0	707.366	0	15.4	4	4.9	4	-1E+10	1	-1E+10	1	-1E+10	1	-1E+10	1	-1E+10	1	-1E+10	1
4901784	20	C	01/21/2016	10:50	-131.466	45.245	0	719.70	0	4.1210	0	34.1990	0	27.142	0	712.604	0	15.1	4	4.8	4	-1E+10	1	-1E+10	1	-1E+10	1	-1E+10	1	-1E+10	1	-1E+10	1
4901784	20	C	01/21/2016	10:50	-131.466	45.245	0	725.10	0	4.0860	0	34.2010	0	27.147	0	717.942	0	15.0	4	4.7	4	-1E+10	1	-1E+10	1	-1E+10	1	-1E+10	1	-1E+10	1	-1E+10	1
4901784	20	C	01/21/2016	10:50	-131.466	45.245	0	730.40	0	4.0810	0	34.2070	0	27.153	0	723.180	0	14.5	4	4.6	4	-1E+10	1	-1E+10	1	-1E+10	1	-1E+10	1	-1E+10	1	-1E+10	1
4901784	20	C	01/21/2016	10:50	-131.466	45.245	0	735.00	0	4.0740	0	34.2110	0	27.157	0	727.727	0	14.3	4	4.5	4	-1E+10	1	-1E+10	1	-1E+10	1	-1E+10	1	-1E+10	1	-1E+10	1
4901784	20	C	01/21/2016	10:50	-131.466	45.245	0	739.50	0	4.0550	0	34.2150	0	27.162	0	732.174	0	14.1	4	4.5	4	-1E+10	1	-1E+10	1	-1E+10	1	-1E+10	1	-1E+10	1	-1E+10	1
4901784	20	C	01/21/2016	10:50	-131.466	45.245	0	745.00	0	4.0440	0	34.2190	0	27.166	0	737.610	0	14.0	4	4.4	4	-1E+10	1	-1E+10	1	-1E+10	1	-1E+10	1	-1E+10	1	-1E+10	1
4901784	20	C	01/21/2016	10:50	-131.466	45.245	0	750.50	0	4.0350	0	34.2230	0	27.170	0	743.046	0	13.8	4	4.4	4	-1E+10	1	-1E+10	1	-1E+10	1	-1E+10	1	-1E+10	1	-1E+10	1
4901784	20	C	01/21/2016	10:50	-131.466	45.245	0	755.20	0	4.0290	0	34.2250	0	27.172	0	747.691	0	13.6	4	4.3	4	-1E+10	1	-1E+10	1	-1E+10	1	-1E+10	1	-1E+10	1	-1E+10	1
4901784	20	C	01/21/2016	10:50	-131.466	45.245	0	759.90	0	4.0170	0	34.2280	0	27.176	0	752.335	0	13.4	4	4.2	4	-1E+10	1	-1E+10	1	-1E+10	1	-1E+10	1	-1E+10	1	-1E+10	1
4901784	20	C	01/21/2016	10:50	-131.466	45.245	0	765.50	0	3.9910	0	34.2360	0	27.185	0	757.870	0	13.2	4	4.2	4	-1E+10	1	-1E+10	1	-1E+10	1	-1E+10	1	-1E+10	1	-1E+10	1
4901784	20	C	01/21/2016	10:50	-131.466	45.245	0	770.20	0	3.9670	0	34.2410	0	27.192	0	762.514	0	13.0	4	4.1	4	-1E+10	1	-1E+10	1	-1E+10	1	-1E+10	1	-1E+10	1	-1E+10	1
4901784	20	C	01/21/2016	10:50	-131.466	45.245	0	775.00	0	3.9570	0	34.2440	0	27.195	0	767.257	0	12.9	4	4.1	4	-1E+10	1	-1E+10	1	-1E+10	1	-1E+10	1	-1E+10	1	-1E+10	1
4901784	20	C	01/21/2016	10:50	-131.466	45.245	0	780.40	0	3.9410	0	34.2480	0	27.200	0	772.594	0	12.8	4	4.0	4	-1E+10	1	-1E+10	1	-1E+10	1	-1E+10	1	-1E+10	1	-1E+10	1
4901784	20	C	01/21/2016	10:50	-131.466	45.245	0	785.20	0	3.9190	0	34.2520	0	27.205	0	777.337	0	12.7	4	4.0	4	-1E+10	1	-1E+10	1	-1E+10	1	-1E+10	1	-1E+10	1	-1E+10	1
4901784	20	C	01/21/2016	10:50	-131.466	45.245	0	790.30	0	3.9220	0	34.2520	0	27.205	0	782.376	0	12.6	4	4.0	4	-1E+10	1	-1E+10	1	-1E+10	1	-1E+10	1	-1E+10	1	-1E+10	1
4901784	20	C	01/21/2016	10:50	-131.466	45.245	0	795.40	0	3.9180	0	34.2530	0	27.206	0	787.415	0	12.6	4	4.0	4	-1E+10	1	-1E+10	1	-1E+10	1	-1E+10	1	-1E+10	1	-1E+10	1
4901784	20	C	01/21/2016	10:50	-131.466	45.245	0	800.40	0	3.8960	0	34.2560	0	27.211	0	792.356	0	12.6	4	4.0	4	-1E+10	1	-1E+10	1	-1E+10	1	-1E+10	1	-1E+10	1	-1E+10	1
4901784	20	C	01/21/2016	10:50	-131.466	45.245	0	805.40	0	3.8700	0	34.2590	0	27.216	0	797.296	0	12.5	4	4.0	4	-1E+10	1	-1E+10	1	-1E+10	1	-1E+10	1	-1E+10	1	-1E+10	1
4901784	20	C	01/21/2016	10:50	-131.466	45.245	0	810.50	0	3.8520	0	34.2610	0	27.219	0	802.335	0	12.6	4	4.0	4	-1E+10	1	-1E+10	1	-1E+10	1	-1E+10	1	-1E+10	1	-1E+10	1
4901784	20	C	01/21/2016	10:50	-131.466	45.245	0	815.50	0	3.8200	0	34.2600	0	27.222	0	807.275	0	12.6	4	4.0	4	-1E+10	1	-1E+10	1	-1E+10	1	-1E+10	1	-1E+10	1	-1E+10	1
4901784	20	C	01/21/2016	10:50	-131.466	45.245	0	820.70	0	3.7910	0	34.2610	0	27.226	0	812.412	0	12.6	4	4.0	4	-1E+10	1	-1E+10	1	-1E+10	1	-1E+10	1	-1E+10	1	-1E+10	1
4901784	20	C	01/21/2016	10:50	-131.466	45.245	0	825.00	0	3.7650	0	34.2660	0	27.232	0	816.660	0	12.5	4	3.9	4	-1E+10	1	-1E+10	1	-1E+10	1	-1E+10	1	-1E+10	1	-1E+10	1
4901784	20	C	01/21/2016	10:50	-131.466	45.245	0	829.40	0	3.7530	0	34.2680	0	27.235	0	821.007	0	12.4	4	3.9	4	-1E+10	1	-1E+10	1	-1E+10	1	-1E+10	1	-1E+10	1	-1E+10	1
4901784	20	C	01/21/2016	10:50	-131.466	45.245	0	834.60	0	3.7360	0	34.2720	0	27.240	0	826.144	0	12.3	4	3.9	4	-1E+10	1	-1E+10	1	-1E+10	1	-1E+10	1	-1E+10	1	-1E+10	1
4901784	20	C	01/21/2016	10:50	-131.466	45.245	0	839.80	0	3.7190	0	34.2750	0	27.244	0	831.281	0	12.3	4	3.8	4	-1E+10	1	-1E+10	1	-1E+10	1	-1E+10	1	-1E+10	1	-1E+10	1
4901784	20	C	01/21/2016	10:50	-131.466	45.245	0	845.10	0	3.7100	0	34.2770	0	27.246	0	836.517	0	12.2	4	3.8	4	-1E+10	1	-1E+10	1	-1E+10	1	-1E+10	1	-1E+10	1	-1E+10	1
4901784	20	C	01/21/2016	10:50	-131.466	45.245	0	850.50	0	3.6900	0	34.2810	0	27.252	0	841.851	0	12.2	4	3.8	4	-1E+10	1	-1E+10	1	-1E+10	1	-1E+10	1	-1E+10	1	-1E+10	1
4901784	20	C	01/21/2016	10:50	-131.466	45.245	0	855.10	0	3.6740	0	34.2830	0	27.255	0	846.395	0	12.1	4	3.8	4	-1E+10	1	-1E+10	1	-1E+10	1	-1E+10	1	-1E+10	1	-1E+10	1
4901784	20	C	01/21/2016	10:50	-131.466	45.245	0	859.70	0	3.6620	0	34.2850	0	27.258	0	850.939	0	12.1	4	3.8	4	-1E+10	1	-1E+10	1	-1E+10	1	-1E+10	1	-1E+10	1	-1E+10	1
4901784	20	C	01/21/2016	10:50	-131.466	45.245	0	865.10	0	3.6500	0	34.2880	0	27.261	0	856.273	0	12.1	4	3.8	4	-1E+10	1	-1E+10	1	-1E+10	1	-1E+10	1	-1E+10	1	-1E+10	1
4901784	20	C	01/21/2016	10:50	-131.466	45.245	0	870.50	0	3.6390	0	34.2900	0	27.264	0	861.606	0	12.1	4	3.8	4	-1E+10	1	-1E+10	1	-1E+10	1	-1E+10	1	-1E+10	1	-1E+10	1
4901784	20	C	01/21/2016	10:50	-131.466	45.245	0	875.20	0	3.6240	0	34.2920	0	27.267	0	866.249	0	12.1	4	3.8	4	-1E+10	1	-1E+10	1	-1E+10	1	-1E+10	1	-1E+10	1	-1E+10	1
4901784	20	C	01/21/2016	10:50	-131.466	45.245	0	879.80	0	3.6110	0	34.2930	0	27.269	0	870.792	0	12.1	4	3.8	4	-1E+10	1	-1E+10	1	-1E+10	1	-1E+10	1	-1E+10	1	-1E+10	1
4901784	20	C	01/21/2016	10:50	-131.466	45.245	0	885.40	0	3.5930	0	34.2950	0	27.273	0	876.323	0	12.1	4	3.8	4	-1E+10	1	-1E+10	1	-1E+10	1	-1E+10	1	-1E+10	1	-1E+10	1
4901784	20	C	01/21/2016	10:50	-131.466	45.245	0	890.30	0	3.5830	0	34.2970	0	27.275	0	881.163	0	12.1	4	3.8	4	-1E+10	1	-1E+10	1	-1E+10	1	-1E+10	1	-1E+10	1	-1E+10	1
4901784	20	C	01/21/2016	10:50	-131.466	45.245	0	894.70	0	3.5710	0	34.2990	0	27.278	0	885.508	0	12.0	4	3.8	4	-1E+10	1	-1E+10	1	-1E+10	1	-1E+10	1	-1E+10	1	-1E+10	1
4901784	20	C	01/21/2016	10:50	-131.466	45.245	0	899.60	0	3.5640	0	34.3010	0	27.280	0	890.347	0	12.0	4	3.7	4	-1E+10	1	-1E+10	1	-1E+10	1	-1E+10	1	-1E+10	1	-1E+10	1
4901784	20	C	01/21/2016	10:50	-131.466	45.245	0	904.40	0	3.5580	0	34.3020	0	27.282	0	895.088	0	12.0	4	3.7	4	-1E+10	1	-1E+10	1	-1E+10	1	-1E+10	1	-1E+10	1	-1E+10	1
4901784	20	C	01/21/2016	10:50	-131.466	45.245	0	910.00	0	3.5480	0	34.3040	0	27.284	0	900.618	0	12.0	4	3.7	4	-1E+10	1	-1E+10	1	-1E+10	1	-1E+10	1	-1E+10	1	-1E+10	1
4901784	20	C	01/21/2016	10:50	-131.466	45.245	0	915.00	0	3.5320	0	34.3080	0	27.289	0	905.556	0	12.0	4	3.7	4	-1E+10	1	-1E+10	1	-1E+10	1	-1E+10	1	-1E+10	1	-1E+10	1
4901784	20	C	01/21/2016	10:50	-131.466	45.245	0	920.00	0	3.5260	0	34.3090	0	27.290	0	910.493	0	11.9	4	3.7	4	-1E+10	1	-1E+10	1	-1E+10	1	-1E+10	1	-1E+10	1	-1E+10	1
4901784	20	C	01/21/2016	10:50	-131.466	45.245	0	925.00	0	3.5160	0	34.3100	0	27.292	0	915.430	0	12.0	4	3.7	4	-1E+10	1	-1E+10	1	-1E+10	1	-1E+10	1	-1E+10	1	-1E+10	1
4901784	20	C	01/21/2016	10:50	-131.466	45.245	0	930.00	0	3.5070	0	34.3110	0	27.294	0	920.368	0	12.0	4	3.7	4	-1E+10	1	-1E+10	1	-1E+10	1	-1E+10	1	-1E+10	1	-1E+10	1
4901784	20	C	01/21/2016	10:50	-131.466	45.245	0	935.80	0	3.4870	0	34.3130	0	27.297	0	926.095	0	12.0	4	3.7	4	-1E+10	1	-1E+10	1	-1E+10	1	-1E+10	1	-1E+10	1	-1E+10	1
4901784	20	C	01/21/2016	10:50	-131.466	45.245	0	940.70	0	3.4800	0	34.3150	0	27.300	0	930.933	0	11.9	4	3.7	4	-1E+10	1	-1E+10	1	-1E+10	1	-1E+10	1	-1E+10	1	-1E+10	1
4901784	20	C	01/21/2016	10:50	-131.466	45.245	0	945.80	0	3.4710	0	34.3180	0	27.303	0	935.969	0	11.9	4	3.7	4	-1E+10	1	-1E+10	1	-1E+10	1	-1E+10	1	-1E+10	1	-1E+10	1
4901784	20	C	01/21/2016	10:50	-131.466	45.245	0	950.10	0	3.4630	0	34.3190	0	27.305	0	940.214	0	11.9	4	3.7	4	-1E+10	1	-1E+10	1	-1E+10	1	-1E+10	1	-1E+10	1	-1E+10	1
4901784	20	C	01/21/2016	10:50	-131.466	45.245	0	954.40	0	3.4570	0	34.3200	0	27.306	0	944.460	0	11.9	4	3.7	4	-1E+10	1	-1E+10	1	-1E+10	1	-1E+10	1	-1E+10	1	-1E+10	1
4901784	20	C	01/21/2016	10:50	-131.466	45.245	0	959.60	0	3.4210	0	34.3230	0	27.312	0	949.594	0	11.9	4	3.7	4	-1E+10	1	-1E+10	1	-1E+10	1	-1E+10	1	-1E+10	1	-1E+10	1
4901784	20	C	01/21/2016	10:50	-131.466	45.245	0	964.80	0	3.4100	0	34.3250	0	27.315	0	954.728	0	11.9	4	3.7	4	-1E+10	1	-1E+10	1	-1E+10	1	-1E+10	1	-1E+10	1	-1E+10	1
4901784	20	C	01/21/2016	10:50	-131.466	45.245	0	970.00	0	3.4260	0	34.3310	0	27.318	0	959.862	0	11.8	4	3.7	4	-1E+10	1	-1E+10	1	-1E+10	1	-1E+10	1	-1E+10	1	-1E+10	1
4901784	20	C	01/21/2016	10:50	-131.466	45.245	0	975.20	0	3.4150	0	34.3340	0	27.321	0	964.996	0	11.8	4	3.7	4	-1E+10	1	-1E+10	1	-1E+10	1	-1E+10	1	-1E+10	1	-1E+10	1
4901784	20	C	01/21/2016	10:50	-131.466	45.245	0	980.60	0	3.4190	0	34.3400	0	27.326	0	970.327	0	11.7	4	3.7	4	-1E+10	1	-1E+10	1	-1E+10	1	-1E+10	1	-1E+10	1	-1E+10	1
4901784	20	C	01/21/2016	10:50	-131.466	45.245	0	985.00	0	3.4240	0	34.3410	0	27.326	0	974.670	0	11.7	4	3.7	4	-1E+10	1	-1E+10	1	-1E+10	1	-1E+10	1	-1E+10	1	-1E+10	1
4901784	20	C	01/21/2016	10:50	-131.466	45.245	0	989.50	0	3.4210	0	34.3450	0	27.330	0	979.112	0	11.7	4	3.7	4	-1E+10	1	-1E+10	1	-1E+10	1	-1E+10	1	-1E+10	1	-1E+10	1
4901784	20	C	01/21/2016	10:50	-131.466	45.245	0	994.80	0	3.4100	0	34.3480	0	27.333	0	984.344	0	11.8	4	3.7	4	-1E+10	1	-1E+10	1	-1E+10	1	-1E+10	1	-1E+10	1	-1E+10	1
4901784	20	C	01/21/2016	10:50	-131.466	45.245	0	1000.20	0	3.3810	0	34.3480	0	27.336	0	989.675	0	11.8	4	3.7	4	-1E+10	1	-1E+10	1	-1E+10	1	-1E+10	1	-1E+10	1	-1E+10	1
4901784	20	C	01/21/2016	10:50	-131.466	45.245	0	1005.50	0	3.3630	0	34.3490	0	27.338	0	994.907	0	11.8	4	3.7	4	-1E+10	1	-1E+10	1	-1E+10	1	-1E+10	1	-1E+10	1	-1E+10	1
4901784	20	C	01/21/2016	10:50	-131.466	45.245	0	1010.10	0	3.3650	0	34.3520	0	27.341	0	999.447	0	11.8	4	3.7	4	-1E+10	1	-1E+10	1	-1E+10	1	-1E+10	1	-1E+10	1	-1E+10	1
4901784	20	C	01/21/2016	10:50	-131.466	45.245	0	1014.60	0	3.3700	0	34.3540	0	27.342	0	1003.889	0	11.9	4	3.7	4	-1E+10	1	-1E+10	1	-1E+10	1	-1E+10	1	-1E+10	1	-1E+10	1
4901784	20	C	01/21/2016	10:50	-131.466	45.245	0	1020.00	0	3.3680	0	34.3630	0	27.349	0	1009.219	0	11.9	4	3.7	4	-1E+10	1	-1E+10	1	-1E+10	1	-1E+10	1	-1E+10	1	-1E+10	1
4901784	20	C	01/21/2016	10:50	-131.466	45.245	0	1025.60	0	3.3630	0	34.3640	0	27.350	0	1014.746	0	11.9	4	3.7	4	-1E+10	1	-1E+10	1	-1E+10	1	-1E+10	1	-1E+10	1	-1E+10	1
4901784	20	C	01/21/2016	10:50	-131.466	45.245	0	1030.20	0	3.3530	0	34.3660	0	27.353	0	1019.286	0	11.9	4	3.7	4	-1E+10	1	-1E+10	1	-1E+10	1	-1E+10	1	-1E+10	1	-1E+10	1
4901784	20	C	01/21/2016	10:50	-131.466	45.245	0	1034.80	0	3.3470	0	34.3680	0	27.355	0	1023.826	0	12.0	4	3.7	4	-1E+10	1	-1E+10	1	-1E+10	1	-1E+10	1	-1E+10	1	-1E+10	1
4901784	20	C	01/21/2016	10:50	-131.466	45.245	0	1040.40	0	3.3390	0	34.3700	0	27.358	0	1029.353	0	12.0	4	3.7	4	-1E+10	1	-1E+10	1	-1E+10	1	-1E+10	1	-1E+10	1	-1E+10	1
4901784	20	C	01/21/2016	10:50	-131.466	45.245	0	1045.00	0	3.3310	0	34.3720	0	27.360	0	1033.893	0	12.1	4	3.8	4	-1E+10	1	-1E+10	1	-1E+10	1	-1E+10	1	-1E+10	1	-1E+10	1
4901784	20	C	01/21/2016	10:50	-131.466	45.245	0	1049.70	0	3.3230	0	34.3720	0	27.361	0	1038.531	0	12.1	4	3.8	4	-1E+10	1	-1E+10	1	-1E+10	1	-1E+10	1	-1E+10	1	-1E+10	1
4901784	20	C	01/21/2016	10:50	-131.466	45.245	0	1055.30	0	3.2960	0	34.3740	0	27.365	0	1044.058	0	12.2	4	3.8	4	-1E+10	1	-1E+10	1	-1E+10	1	-1E+10	1	-1E+10	1	-1E+10	1
4901784	20	C	01/21/2016	10:50	-131.466	45.245	0	1059.90	0	3.2840	0	34.3770	0	27.368	0	1048.597	0	12.3	4	3.8	4	-1E+10	1	-1E+10	1	-1E+10	1	-1E+10	1	-1E+10	1	-1E+10	1
4901784	20	C	01/21/2016	10:50	-131.466	45.245	0	1064.60	0	3.2710	0	34.3790	0	27.371	0	1053.236	0	12.4	4	3.8	4	-1E+10	1	-1E+10	1	-1E+10	1	-1E+10	1	-1E+10	1	-1E+10	1
4901784	20	C	01/21/2016	10:50	-131.466	45.245	0	1070.10	0	3.2580	0	34.3800	0	27.373	0	1058.663	0	12.4	4	3.9	4	-1E+10	1	-1E+10	1	-1E+10	1	-1E+10	1	-1E+10	1	-1E+10	1
4901784	20	C	01/21/2016	10:50	-131.466	45.245	0	1075.50	0	3.2520	0	34.3830	0	27.376	0	1063.992	0	12.6	4	3.9	4	-1E+10	1	-1E+10	1	-1E+10	1	-1E+10	1	-1E+10	1	-1E+10	1
4901784	20	C	01/21/2016	10:50	-131.466	45.245	0	1080.40	0	3.2530	0	34.3860	0	27.379	0	1068.827	0	12.7	4	3.9	4	-1E+10	1	-1E+10	1	-1E+10	1	-1E+10	1	-1E+10	1	-1E+10	1
4901784	20	C	01/21/2016	10:50	-131.466	45.245	0	1085.20	0	3.2410	0	34.3870	0	27.381	0	1073.563	0	12.8	4	4.0	4	-1E+10	1	-1E+10	1	-1E+10	1	-1E+10	1	-1E+10	1	-1E+10	1
4901784	20	C	01/21/2016	10:50	-131.466	45.245	0	1090.10	0	3.2250	0	34.3890	0	27.384	0	1078.398	0	12.9	4	4.0	4	-1E+10	1	-1E+10	1	-1E+10	1	-1E+10	1	-1E+10	1	-1E+10	1
4901784	20	C	01/21/2016	10:50	-131.466	45.245	0	1095.00	0	3.2140	0	34.3910	0	27.386	0	1083.233	0	13.0	4	4.0	4	-1E+10	1	-1E+10	1	-1E+10	1	-1E+10	1	-1E+10	1	-1E+10	1
4901784	20	C	01/21/2016	10:50	-131.466	45.245	0	1099.90	0	3.2030	0	34.3940	0	27.390	0	1088.067	0	13.1	4	4.1	4	-1E+10	1	-1E+10	1	-1E+10	1	-1E+10	1	-1E+10	1	-1E+10	1
4901784	20	C	01/21/2016	10:50	-131.466	45.245	0	1104.90	0	3.1950	0	34.3950	0	27.391	0	1093.000	0	13.1	4	4.1	4	-1E+10	1	-1E+10	1	-1E+10	1	-1E+10	1	-1E+10	1	-1E+10	1
4901784	20	C	01/21/2016	10:50	-131.466	45.245	0	1110.00	0	3.1890	0	34.3960	0	27.393	0	1098.032	0	13.1	4	4.1	4	-1E+10	1	-1E+10	1	-1E+10	1	-1E+10	1	-1E+10	1	-1E+10	1
4901784	20	C	01/21/2016	10:50	-131.466	45.245	0	1115.00	0	3.1780	0	34.3960	0	27.394	0	1102.965	0	13.2	4	4.1	4	-1E+10	1	-1E+10	1	-1E+10	1	-1E+10	1	-1E+10	1	-1E+10	1
4901784	20	C	01/21/2016	10:50	-131.466	45.245	0	1120.10	0	3.1540	0	34.3980	0	27.398	0	1107.997	0	13.3	4	4.1	4	-1E+10	1	-1E+10	1	-1E+10	1	-1E+10	1	-1E+10	1	-1E+10	1
4901784	20	C	01/21/2016	10:50	-131.466	45.245	0	1125.20	0	3.1390	0	34.4010	0	27.401	0	1113.028	0	13.4	4	4.1	4	-1E+10	1	-1E+10	1	-1E+10	1	-1E+10	1	-1E+10	1	-1E+10	1
4901784	20	C	01/21/2016	10:50	-131.466	45.245	0	1130.30	0	3.1330	0	34.4020	0	27.403	0	1118.059	0	13.4	4	4.2	4	-1E+10	1	-1E+10	1	-1E+10	1	-1E+10	1	-1E+10	1	-1E+10	1
4901784	20	C	01/21/2016	10:50	-131.466	45.245	0	1135.50	0	3.1250	0	34.4030	0	27.404	0	1123.189	0	13.5	4	4.2	4	-1E+10	1	-1E+10	1	-1E+10	1	-1E+10	1	-1E+10	1	-1E+10	1
4901784	20	C	01/21/2016	10:50	-131.466	45.245	0	1140.70	0	3.1140	0	34.4050	0	27.407	0	1128.319	0	13.7	4	4.2	4	-1E+10	1	-1E+10	1	-1E+10	1	-1E+10	1	-1E+10	1	-1E+10	1
4901784	20	C	01/21/2016	10:50	-131.466	45.245	0	1145.00	0	3.1070	0	34.4060	0	27.408	0	1132.561	0	13.8	4	4.3	4	-1E+10	1	-1E+10	1	-1E+10	1	-1E+10	1	-1E+10	1	-1E+10	1
4901784	20	C	01/21/2016	10:50	-131.466	45.245	0	1149.30	0	3.0960	0	34.4080	0	27.411	0	1136.802	0	13.9	4	4.3	4	-1E+10	1	-1E+10	1	-1E+10	1	-1E+10	1	-1E+10	1	-1E+10	1
4901784	20	C	01/21/2016	10:50	-131.466	45.245	0	1154.50	0	3.0780	0	34.4110	0	27.415	0	1141.932	0	14.1	4	4.3	4	-1E+10	1	-1E+10	1	-1E+10	1	-1E+10	1	-1E+10	1	-1E+10	1
4901784	20	C	01/21/2016	10:50	-131.466	45.245	0	1159.70	0	3.0640	0	34.4130	0	27.418	0	1147.061	0	14.1	4	4.4	4	-1E+10	1	-1E+10	1	-1E+10	1	-1E+10	1	-1E+10	1	-1E+10	1
4901784	20	C	01/21/2016	10:50	-131.466	45.245	0	1164.80	0	3.0560	0	34.4140	0	27.420	0	1152.091	0	14.2	4	4.4	4	-1E+10	1	-1E+10	1	-1E+10	1	-1E+10	1	-1E+10	1	-1E+10	1
4901784	20	C	01/21/2016	10:50	-131.466	45.245	0	1170.10	0	3.0510	0	34.4150	0	27.421	0	1157.319	0	14.2	4	4.4	4	-1E+10	1	-1E+10	1	-1E+10	1	-1E+10	1	-1E+10	1	-1E+10	1
4901784	20	C	01/21/2016	10:50	-131.466	45.245	0	1175.40	0	3.0490	0	34.4150	0	27.421	0	1162.546	0	14.2	4	4.4	4	-1E+10	1	-1E+10	1	-1E+10	1	-1E+10	1	-1E+10	1	-1E+10	1
4901784	20	C	01/21/2016	10:50	-131.466	45.245	0	1180.70	0	3.0470	0	34.4150	0	27.421	0	1167.773	0	14.2	4	4.4	4	-1E+10	1	-1E+10	1	-1E+10	1	-1E+10	1	-1E+10	1	-1E+10	1
4901784	20	C	01/21/2016	10:50	-131.466	45.245	0	1185.10	0	3.0460	0	34.4150	0	27.421	0	1172.113	0	14.3	4	4.4	4	-1E+10	1	-1E+10	1	-1E+10	1	-1E+10	1	-1E+10	1	-1E+10	1
4901784	20	C	01/21/2016	10:50	-131.466	45.245	0	1189.50	0	3.0390	0	34.4150	0	27.422	0	1176.453	0	14.4	4	4.5	4	-1E+10	1	-1E+10	1	-1E+10	1	-1E+10	1	-1E+10	1	-1E+10	1
4901784	20	C	01/21/2016	10:50	-131.466	45.245	0	1194.90	0	3.0270	0	34.4180	0	27.426	0	1181.778	0	14.6	4	4.5	4	-1E+10	1	-1E+10	1	-1E+10	1	-1E+10	1	-1E+10	1	-1E+10	1
4901784	20	C	01/21/2016	10:50	-131.466	45.245	0	1200.30	0	3.0140	0	34.4190	0	27.428	0	1187.104	0	14.6	4	4.5	4	-1E+10	1	-1E+10	1	-1E+10	1	-1E+10	1	-1E+10	1	-1E+10	1
4901784	20	C	01/21/2016	10:50	-131.466	45.245	0	1204.90	0	2.9970	0	34.4200	0	27.430	0	1191.640	0	14.7	4	4.5	4	-1E+10	1	-1E+10	1	-1E+10	1	-1E+10	1	-1E+10	1	-1E+10	1
4901784	20	C	01/21/2016	10:50	-131.466	45.245	0	1209.50	0	2.9830	0	34.4210	0	27.432	0	1196.176	0	14.8	4	4.6	4	-1E+10	1	-1E+10	1	-1E+10	1	-1E+10	1	-1E+10	1	-1E+10	1
4901784	20	C	01/21/2016	10:50	-131.466	45.245	0	1214.90	0	2.9630	0	34.4230	0	27.435	0	1201.501	0	14.9	4	4.6	4	-1E+10	1	-1E+10	1	-1E+10	1	-1E+10	1	-1E+10	1	-1E+10	1
4901784	20	C	01/21/2016	10:50	-131.466	45.245	0	1220.40	0	2.9580	0	34.4240	0	27.437	0	1206.925	0	15.0	4	4.6	4	-1E+10	1	-1E+10	1	-1E+10	1	-1E+10	1	-1E+10	1	-1E+10	1
4901784	20	C	01/21/2016	10:50	-131.466	45.245	0	1224.90	0	2.9500	0	34.4250	0	27.438	0	1211.362	0	15.1	4	4.7	4	-1E+10	1	-1E+10	1	-1E+10	1	-1E+10	1	-1E+10	1	-1E+10	1
4901784	20	C	01/21/2016	10:50	-131.466	45.245	0	1229.50	0	2.9340	0	34.4270	0	27.441	0	1215.898	0	15.2	4	4.7	4	-1E+10	1	-1E+10	1	-1E+10	1	-1E+10	1	-1E+10	1	-1E+10	1
4901784	20	C	01/21/2016	10:50	-131.466	45.245	0	1235.00	0	2.9260	0	34.4280	0	27.443	0	1221.321	0	15.4	4	4.7	4	-1E+10	1	-1E+10	1	-1E+10	1	-1E+10	1	-1E+10	1	-1E+10	1
4901784	20	C	01/21/2016	10:50	-131.466	45.245	0	1240.60	0	2.9190	0	34.4290	0	27.444	0	1226.843	0	15.5	4	4.8	4	-1E+10	1	-1E+10	1	-1E+10	1	-1E+10	1	-1E+10	1	-1E+10	1
4901784	20	C	01/21/2016	10:50	-131.466	45.245	0	1245.20	0	2.9120	0	34.4300	0	27.446	0	1231.379	0	15.6	4	4.8	4	-1E+10	1	-1E+10	1	-1E+10	1	-1E+10	1	-1E+10	1	-1E+10	1
4901784	20	C	01/21/2016	10:50	-131.466	45.245	0	1249.90	0	2.9010	0	34.4310	0	27.448	0	1236.013	0	15.7	4	4.8	4	-1E+10	1	-1E+10	1	-1E+10	1	-1E+10	1	-1E+10	1	-1E+10	1
4901784	20	C	01/21/2016	10:50	-131.466	45.245	0	1254.50	0	2.8920	0	34.4320	0	27.449	0	1240.548	0	15.8	4	4.9	4	-1E+10	1	-1E+10	1	-1E+10	1	-1E+10	1	-1E+10	1	-1E+10	1
4901784	20	C	01/21/2016	10:50	-131.466	45.245	0	1259.10	0	2.8820	0	34.4340	0	27.452	0	1245.083	0	16.0	4	4.9	4	-1E+10	1	-1E+10	1	-1E+10	1	-1E+10	1	-1E+10	1	-1E+10	1
4901784	20	C	01/21/2016	10:50	-131.466	45.245	0	1264.60	0	2.8640	0	34.4360	0	27.455	0	1250.506	0	16.2	4	5.0	4	-1E+10	1	-1E+10	1	-1E+10	1	-1E+10	1	-1E+10	1	-1E+10	1
4901784	20	C	01/21/2016	10:50	-131.466	45.245	0	1269.50	0	2.8520	0	34.4380	0	27.458	0	1255.336	0	16.4	4	5.0	4	-1E+10	1	-1E+10	1	-1E+10	1	-1E+10	1	-1E+10	1	-1E+10	1
4901784	20	C	01/21/2016	10:50	-131.466	45.245	0	1274.40	0	2.8410	0	34.4390	0	27.459	0	1260.167	0	16.5	4	5.1	4	-1E+10	1	-1E+10	1	-1E+10	1	-1E+10	1	-1E+10	1	-1E+10	1
4901784	20	C	01/21/2016	10:50	-131.466	45.245	0	1279.40	0	2.8330	0	34.4400	0	27.461	0	1265.096	0	16.6	4	5.1	4	-1E+10	1	-1E+10	1	-1E+10	1	-1E+10	1	-1E+10	1	-1E+10	1
4901784	20	C	01/21/2016	10:50	-131.466	45.245	0	1284.50	0	2.8230	0	34.4410	0	27.463	0	1270.124	0	16.8	4	5.2	4	-1E+10	1	-1E+10	1	-1E+10	1	-1E+10	1	-1E+10	1	-1E+10	1
4901784	20	C	01/21/2016	10:50	-131.466	45.245	0	1289.50	0	2.8170	0	34.4420	0	27.464	0	1275.053	0	17.0	4	5.2	4	-1E+10	1	-1E+10	1	-1E+10	1	-1E+10	1	-1E+10	1	-1E+10	1
4901784	20	C	01/21/2016	10:50	-131.466	45.245	0	1294.50	0	2.7980	0	34.4450	0	27.468	0	1279.982	0	17.4	4	5.3	4	-1E+10	1	-1E+10	1	-1E+10	1	-1E+10	1	-1E+10	1	-1E+10	1
4901784	20	C	01/21/2016	10:50	-131.466	45.245	0	1299.60	0	2.7840	0	34.4470	0	27.471	0	1285.009	0	17.8	4	5.5	4	-1E+10	1	-1E+10	1	-1E+10	1	-1E+10	1	-1E+10	1	-1E+10	1
4901784	20	C	01/21/2016	10:50	-131.466	45.245	0	1304.80	0	2.7740	0	34.4520	0	27.476	0	1290.135	0	18.2	4	5.6	4	-1E+10	1	-1E+10	1	-1E+10	1	-1E+10	1	-1E+10	1	-1E+10	1
4901784	20	C	01/21/2016	10:50	-131.466	45.245	0	1309.90	0	2.7640	0	34.4540	0	27.478	0	1295.162	0	18.4	4	5.6	4	-1E+10	1	-1E+10	1	-1E+10	1	-1E+10	1	-1E+10	1	-1E+10	1
4901784	20	C	01/21/2016	10:50	-131.466	45.245	0	1315.00	0	2.7580	0	34.4550	0	27.480	0	1300.188	0	18.5	4	5.7	4	-1E+10	1	-1E+10	1	-1E+10	1	-1E+10	1	-1E+10	1	-1E+10	1
4901784	20	C	01/21/2016	10:50	-131.466	45.245	0	1320.10	0	2.7490	0	34.4550	0	27.480	0	1305.215	0	18.7	4	5.7	4	-1E+10	1	-1E+10	1	-1E+10	1	-1E+10	1	-1E+10	1	-1E+10	1
4901784	20	C	01/21/2016	10:50	-131.466	45.245	0	1325.20	0	2.7400	0	34.4560	0	27.482	0	1310.242	0	19.0	4	5.8	4	-1E+10	1	-1E+10	1	-1E+10	1	-1E+10	1	-1E+10	1	-1E+10	1
4901784	20	C	01/21/2016	10:50	-131.466	45.245	0	1330.30	0	2.7290	0	34.4580	0	27.485	0	1315.268	0	19.4	4	6.0	4	-1E+10	1	-1E+10	1	-1E+10	1	-1E+10	1	-1E+10	1	-1E+10	1
4901784	20	C	01/21/2016	10:50	-131.466	45.245	0	1335.50	0	2.7180	0	34.4610	0	27.488	0	1320.393	0	19.8	4	6.1	4	-1E+10	1	-1E+10	1	-1E+10	1	-1E+10	1	-1E+10	1	-1E+10	1
4901784	20	C	01/21/2016	10:50	-131.466	45.245	0	1339.90	0	2.7100	0	34.4630	0	27.490	0	1324.730	0	20.0	4	6.1	4	-1E+10	1	-1E+10	1	-1E+10	1	-1E+10	1	-1E+10	1	-1E+10	1
4901784	20	C	01/21/2016	10:50	-131.466	45.245	0	1344.30	0	2.6950	0	34.4640	0	27.492	0	1329.066	0	20.3	4	6.2	4	-1E+10	1	-1E+10	1	-1E+10	1	-1E+10	1	-1E+10	1	-1E+10	1
4901784	20	C	01/21/2016	10:50	-131.466	45.245	0	1349.90	0	2.6910	0	34.4670	0	27.495	0	1334.585	0	20.5	4	6.3	4	-1E+10	1	-1E+10	1	-1E+10	1	-1E+10	1	-1E+10	1	-1E+10	1
4901784	20	C	01/21/2016	10:50	-131.466	45.245	0	1354.80	0	2.6870	0	34.4670	0	27.496	0	1339.414	0	20.6	4	6.3	4	-1E+10	1	-1E+10	1	-1E+10	1	-1E+10	1	-1E+10	1	-1E+10	1
4901784	20	C	01/21/2016	10:50	-131.466	45.245	0	1359.50	0	2.6850	0	34.4680	0	27.497	0	1344.045	0	20.7	4	6.4	4	-1E+10	1	-1E+10	1	-1E+10	1	-1E+10	1	-1E+10	1	-1E+10	1
4901784	20	C	01/21/2016	10:50	-131.466	45.245	0	1364.60	0	2.6810	0	34.4680	0	27.497	0	1349.071	0	20.8	4	6.4	4	-1E+10	1	-1E+10	1	-1E+10	1	-1E+10	1	-1E+10	1	-1E+10	1
4901784	20	C	01/21/2016	10:50	-131.466	45.245	0	1369.60	0	2.6740	0	34.4690	0	27.498	0	1353.998	0	20.9	4	6.4	4	-1E+10	1	-1E+10	1	-1E+10	1	-1E+10	1	-1E+10	1	-1E+10	1
4901784	20	C	01/21/2016	10:50	-131.466	45.245	0	1374.70	0	2.6710	0	34.4690	0	27.499	0	1359.024	0	21.1	4	6.5	4	-1E+10	1	-1E+10	1	-1E+10	1	-1E+10	1	-1E+10	1	-1E+10	1
4901784	20	C	01/21/2016	10:50	-131.466	45.245	0	1379.80	0	2.6670	0	34.4700	0	27.500	0	1364.049	0	21.3	4	6.5	4	-1E+10	1	-1E+10	1	-1E+10	1	-1E+10	1	-1E+10	1	-1E+10	1
4901784	20	C	01/21/2016	10:50	-131.466	45.245	0	1384.80	0	2.6590	0	34.4720	0	27.502	0	1368.976	0	21.8	4	6.7	4	-1E+10	1	-1E+10	1	-1E+10	1	-1E+10	1	-1E+10	1	-1E+10	1
4901784	20	C	01/21/2016	10:50	-131.466	45.245	0	1389.90	0	2.6480	0	34.4740	0	27.505	0	1374.001	0	22.1	4	6.8	4	-1E+10	1	-1E+10	1	-1E+10	1	-1E+10	1	-1E+10	1	-1E+10	1
4901784	20	C	01/21/2016	10:50	-131.466	45.245	0	1395.10	0	2.6400	0	34.4760	0	27.507	0	1379.124	0	22.3	4	6.8	4	-1E+10	1	-1E+10	1	-1E+10	1	-1E+10	1	-1E+10	1	-1E+10	1
4901784	20	C	01/21/2016	10:50	-131.466	45.245	0	1400.30	0	2.6360	0	34.4760	0	27.507	0	1384.248	0	22.3	4	6.8	4	-1E+10	1	-1E+10	1	-1E+10	1	-1E+10	1	-1E+10	1	-1E+10	1
4901784	20	C	01/21/2016	10:50	-131.466	45.245	0	1405.50	0	2.6340	0	34.4770	0	27.508	0	1389.371	0	22.5	4	6.9	4	-1E+10	1	-1E+10	1	-1E+10	1	-1E+10	1	-1E+10	1	-1E+10	1
4901784	20	C	01/21/2016	10:50	-131.466	45.245	0	1410.70	0	2.6340	0	34.4770	0	27.509	0	1394.494	0	22.7	4	7.0	4	-1E+10	1	-1E+10	1	-1E+10	1	-1E+10	1	-1E+10	1	-1E+10	1
4901784	20	C	01/21/2016	10:50	-131.466	45.245	0	1415.10	0	2.6250	0	34.4790	0	27.511	0	1398.829	0	23.1	4	7.1	4	-1E+10	1	-1E+10	1	-1E+10	1	-1E+10	1	-1E+10	1	-1E+10	1
4901784	20	C	01/21/2016	10:50	-131.466	45.245	0	1419.40	0	2.6080	0	34.4800	0	27.513	0	1403.065	0	23.3	4	7.1	4	-1E+10	1	-1E+10	1	-1E+10	1	-1E+10	1	-1E+10	1	-1E+10	1
4901784	20	C	01/21/2016	10:50	-131.466	45.245	0	1424.80	0	2.5970	0	34.4830	0	27.517	0	1408.385	0	23.7	4	7.3	4	-1E+10	1	-1E+10	1	-1E+10	1	-1E+10	1	-1E+10	1	-1E+10	1
4901784	20	C	01/21/2016	10:50	-131.466	45.245	0	1430.10	0	2.5880	0	34.4830	0	27.517	0	1413.606	0	23.8	4	7.3	4	-1E+10	1	-1E+10	1	-1E+10	1	-1E+10	1	-1E+10	1	-1E+10	1
4901784	20	C	01/21/2016	10:50	-131.466	45.245	0	1435.50	0	2.5720	0	34.4830	0	27.519	0	1418.926	0	23.9	4	7.3	4	-1E+10	1	-1E+10	1	-1E+10	1	-1E+10	1	-1E+10	1	-1E+10	1
4901784	20	C	01/21/2016	10:50	-131.466	45.245	0	1440.00	0	2.5580	0	34.4830	0	27.520	0	1423.359	0	24.2	4	7.4	4	-1E+10	1	-1E+10	1	-1E+10	1	-1E+10	1	-1E+10	1	-1E+10	1
4901784	20	C	01/21/2016	10:50	-131.466	45.245	0	1444.50	0	2.5530	0	34.4850	0	27.522	0	1427.792	0	24.6	4	7.5	4	-1E+10	1	-1E+10	1	-1E+10	1	-1E+10	1	-1E+10	1	-1E+10	1
4901784	20	C	01/21/2016	10:50	-131.466	45.245	0	1450.10	0	2.5440	0	34.4870	0	27.524	0	1433.308	0	25.0	4	7.6	4	-1E+10	1	-1E+10	1	-1E+10	1	-1E+10	1	-1E+10	1	-1E+10	1
4901784	20	C	01/21/2016	10:50	-131.466	45.245	0	1454.70	0	2.5280	0	34.4880	0	27.527	0	1437.839	0	25.3	4	7.7	4	-1E+10	1	-1E+10	1	-1E+10	1	-1E+10	1	-1E+10	1	-1E+10	1
4901784	20	C	01/21/2016	10:50	-131.466	45.245	0	1459.40	0	2.5170	0	34.4890	0	27.528	0	1442.469	0	25.5	4	7.8	4	-1E+10	1	-1E+10	1	-1E+10	1	-1E+10	1	-1E+10	1	-1E+10	1
4901784	20	C	01/21/2016	10:50	-131.466	45.245	0	1465.10	0	2.5150	0	34.4900	0	27.529	0	1448.083	0	25.6	4	7.8	4	-1E+10	1	-1E+10	1	-1E+10	1	-1E+10	1	-1E+10	1	-1E+10	1
4901784	20	C	01/21/2016	10:50	-131.466	45.245	0	1469.90	0	2.5140	0	34.4910	0	27.530	0	1452.811	0	25.8	4	7.9	4	-1E+10	1	-1E+10	1	-1E+10	1	-1E+10	1	-1E+10	1	-1E+10	1
4901784	20	C	01/21/2016	10:50	-131.466	45.245	0	1474.80	0	2.5130	0	34.4900	0	27.529	0	1457.637	0	26.0	4	7.9	4	-1E+10	1	-1E+10	1	-1E+10	1	-1E+10	1	-1E+10	1	-1E+10	1
4901784	20	C	01/21/2016	10:50	-131.466	45.245	0	1480.60	0	2.5010	0	34.4920	0	27.532	0	1463.349	0	26.5	4	8.1	4	-1E+10	1	-1E+10	1	-1E+10	1	-1E+10	1	-1E+10	1	-1E+10	1
4901784	20	C	01/21/2016	10:50	-131.466	45.245	0	1485.30	0	2.4880	0	34.4940	0	27.535	0	1467.978	0	26.9	4	8.2	4	-1E+10	1	-1E+10	1	-1E+10	1	-1E+10	1	-1E+10	1	-1E+10	1
4901784	20	C	01/21/2016	10:50	-131.466	45.245	0	1489.80	0	2.4810	0	34.4950	0	27.536	0	1472.410	0	27.2	4	8.3	4	-1E+10	1	-1E+10	1	-1E+10	1	-1E+10	1	-1E+10	1	-1E+10	1
4901784	20	C	01/21/2016	10:50	-131.466	45.245	0	1495.20	0	2.4750	0	34.4960	0	27.538	0	1477.728	0	27.5	4	8.4	4	-1E+10	1	-1E+10	1	-1E+10	1	-1E+10	1	-1E+10	1	-1E+10	1
4901784	20	C	01/21/2016	10:50	-131.466	45.245	0	1499.80	0	2.4710	0	34.4970	0	27.539	0	1482.258	0	27.6	4	8.4	4	-1E+10	1	-1E+10	1	-1E+10	1	-1E+10	1	-1E+10	1	-1E+10	1
4901784	20	C	01/21/2016	10:50	-131.466	45.245	0	1504.40	0	2.4660	0	34.4970	0	27.539	0	1486.788	0	27.9	4	8.5	4	-1E+10	1	-1E+10	1	-1E+10	1	-1E+10	1	-1E+10	1	-1E+10	1
4901784	20	C	01/21/2016	10:50	-131.466	45.245	0	1510.00	0	2.4590	0	34.4980	0	27.541	0	1492.303	0	28.1	4	8.6	4	-1E+10	1	-1E+10	1	-1E+10	1	-1E+10	1	-1E+10	1	-1E+10	1
4901784	20	C	01/21/2016	10:50	-131.466	45.245	0	1514.70	0	2.4530	0	34.4990	0	27.542	0	1496.931	0	28.4	4	8.7	4	-1E+10	1	-1E+10	1	-1E+10	1	-1E+10	1	-1E+10	1	-1E+10	1
4901784	20	C	01/21/2016	10:50	-131.466	45.245	0	1520.10	0	2.4460	0	34.5010	0	27.544	0	1502.249	0	28.7	4	8.7	4	-1E+10	1	-1E+10	1	-1E+10	1	-1E+10	1	-1E+10	1	-1E+10	1
4901784	20	C	01/21/2016	10:50	-131.466	45.245	0	1525.20	0	2.4430	0	34.5010	0	27.544	0	1507.270	0	28.9	4	8.8	4	-1E+10	1	-1E+10	1	-1E+10	1	-1E+10	1	-1E+10	1	-1E+10	1
4901784	20	C	01/21/2016	10:50	-131.466	45.245	0	1530.10	0	2.4350	0	34.5020	0	27.546	0	1512.095	0	29.2	4	8.9	4	-1E+10	1	-1E+10	1	-1E+10	1	-1E+10	1	-1E+10	1	-1E+10	1
4901784	20	C	01/21/2016	10:50	-131.466	45.245	0	1535.10	0	2.4310	0	34.5030	0	27.547	0	1517.019	0	29.3	4	8.9	4	-1E+10	1	-1E+10	1	-1E+10	1	-1E+10	1	-1E+10	1	-1E+10	1
4901784	20	C	01/21/2016	10:50	-131.466	45.245	0	1540.10	0	2.4270	0	34.5040	0	27.548	0	1521.942	0	29.6	4	9.0	4	-1E+10	1	-1E+10	1	-1E+10	1	-1E+10	1	-1E+10	1	-1E+10	1
4901784	20	C	01/21/2016	10:50	-131.466	45.245	0	1545.10	0	2.4200	0	34.5040	0	27.549	0	1526.865	0	29.8	4	9.1	4	-1E+10	1	-1E+10	1	-1E+10	1	-1E+10	1	-1E+10	1	-1E+10	1
4901784	20	C	01/21/2016	10:50	-131.466	45.245	0	1550.10	0	2.4110	0	34.5050	0	27.550	0	1531.788	0	30.0	4	9.1	4	-1E+10	1	-1E+10	1	-1E+10	1	-1E+10	1	-1E+10	1	-1E+10	1
4901784	20	C	01/21/2016	10:50	-131.466	45.245	0	1555.10	0	2.4020	0	34.5060	0	27.552	0	1536.710	0	30.3	4	9.2	4	-1E+10	1	-1E+10	1	-1E+10	1	-1E+10	1	-1E+10	1	-1E+10	1
4901784	20	C	01/21/2016	10:50	-131.466	45.245	0	1560.30	0	2.3910	0	34.5080	0	27.555	0	1541.830	0	30.6	4	9.3	4	-1E+10	1	-1E+10	1	-1E+10	1	-1E+10	1	-1E+10	1	-1E+10	1
4901784	20	C	01/21/2016	10:50	-131.466	45.245	0	1565.50	0	2.3870	0	34.5080	0	27.555	0	1546.949	0	30.9	4	9.4	4	-1E+10	1	-1E+10	1	-1E+10	1	-1E+10	1	-1E+10	1	-1E+10	1
4901784	20	C	01/21/2016	10:50	-131.466	45.245	0	1570.60	0	2.3790	0	34.5100	0	27.557	0	1551.970	0	31.3	4	9.5	4	-1E+10	1	-1E+10	1	-1E+10	1	-1E+10	1	-1E+10	1	-1E+10	1
4901784	20	C	01/21/2016	10:50	-131.466	45.245	0	1575.00	0	2.3730	0	34.5110	0	27.558	0	1556.302	0	31.7	4	9.6	4	-1E+10	1	-1E+10	1	-1E+10	1	-1E+10	1	-1E+10	1	-1E+10	1
4901784	20	C	01/21/2016	10:50	-131.466	45.245	0	1579.40	0	2.3670	0	34.5120	0	27.560	0	1560.634	0	31.9	4	9.7	4	-1E+10	1	-1E+10	1	-1E+10	1	-1E+10	1	-1E+10	1	-1E+10	1
4901784	20	C	01/21/2016	10:50	-131.466	45.245	0	1584.70	0	2.3570	0	34.5130	0	27.561	0	1565.851	0	32.1	4	9.8	4	-1E+10	1	-1E+10	1	-1E+10	1	-1E+10	1	-1E+10	1	-1E+10	1
4901784	20	C	01/21/2016	10:50	-131.466	45.245	0	1590.00	0	2.3530	0	34.5130	0	27.562	0	1571.068	0	32.3	4	9.8	4	-1E+10	1	-1E+10	1	-1E+10	1	-1E+10	1	-1E+10	1	-1E+10	1
4901784	20	C	01/21/2016	10:50	-131.466	45.245	0	1595.40	0	2.3460	0	34.5140	0	27.563	0	1576.384	0	32.7	4	9.9	4	-1E+10	1	-1E+10	1	-1E+10	1	-1E+10	1	-1E+10	1	-1E+10	1
4901784	20	C	01/21/2016	10:50	-131.466	45.245	0	1599.90	0	2.3400	0	34.5150	0	27.565	0	1580.813	0	33.1	4	10.0	4	-1E+10	1	-1E+10	1	-1E+10	1	-1E+10	1	-1E+10	1	-1E+10	1
4901784	20	C	01/21/2016	10:50	-131.466	45.245	0	1604.50	0	2.3270	0	34.5160	0	27.566	0	1585.341	0	33.5	4	10.2	4	-1E+10	1	-1E+10	1	-1E+10	1	-1E+10	1	-1E+10	1	-1E+10	1
4901784	20	C	01/21/2016	10:50	-131.466	45.245	0	1610.00	0	2.3160	0	34.5180	0	27.569	0	1590.755	0	33.9	4	10.3	4	-1E+10	1	-1E+10	1	-1E+10	1	-1E+10	1	-1E+10	1	-1E+10	1
4901784	20	C	01/21/2016	10:50	-131.466	45.245	0	1615.50	0	2.3070	0	34.5190	0	27.570	0	1596.169	0	34.4	4	10.4	4	-1E+10	1	-1E+10	1	-1E+10	1	-1E+10	1	-1E+10	1	-1E+10	1
4901784	20	C	01/21/2016	10:50	-131.466	45.245	0	1620.20	0	2.2970	0	34.5210	0	27.573	0	1600.795	0	34.8	4	10.6	4	-1E+10	1	-1E+10	1	-1E+10	1	-1E+10	1	-1E+10	1	-1E+10	1
4901784	20	C	01/21/2016	10:50	-131.466	45.245	0	1624.90	0	2.2900	0	34.5220	0	27.574	0	1605.421	0	35.1	4	10.7	4	-1E+10	1	-1E+10	1	-1E+10	1	-1E+10	1	-1E+10	1	-1E+10	1
4901784	20	C	01/21/2016	10:50	-131.466	45.245	0	1630.50	0	2.2850	0	34.5230	0	27.576	0	1610.932	0	35.4	4	10.8	4	-1E+10	1	-1E+10	1	-1E+10	1	-1E+10	1	-1E+10	1	-1E+10	1
4901784	20	C	01/21/2016	10:50	-131.466	45.245	0	1635.10	0	2.2810	0	34.5240	0	27.577	0	1615.459	0	35.6	4	10.8	4	-1E+10	1	-1E+10	1	-1E+10	1	-1E+10	1	-1E+10	1	-1E+10	1
4901784	20	C	01/21/2016	10:50	-131.466	45.245	0	1639.90	0	2.2770	0	34.5240	0	27.577	0	1620.183	0	35.9	4	10.9	4	-1E+10	1	-1E+10	1	-1E+10	1	-1E+10	1	-1E+10	1	-1E+10	1
4901784	20	C	01/21/2016	10:50	-131.466	45.245	0	1645.50	0	2.2690	0	34.5260	0	27.579	0	1625.695	0	36.2	4	11.0	4	-1E+10	1	-1E+10	1	-1E+10	1	-1E+10	1	-1E+10	1	-1E+10	1
4901784	20	C	01/21/2016	10:50	-131.466	45.245	0	1650.40	0	2.2670	0	34.5260	0	27.580	0	1630.517	0	36.3	4	11.0	4	-1E+10	1	-1E+10	1	-1E+10	1	-1E+10	1	-1E+10	1	-1E+10	1
4901784	20	C	01/21/2016	10:50	-131.466	45.245	0	1654.90	0	2.2660	0	34.5260	0	27.580	0	1634.945	0	36.4	4	11.1	4	-1E+10	1	-1E+10	1	-1E+10	1	-1E+10	1	-1E+10	1	-1E+10	1
4901784	20	C	01/21/2016	10:50	-131.466	45.245	0	1659.90	0	2.2630	0	34.5270	0	27.581	0	1639.866	0	36.6	4	11.1	4	-1E+10	1	-1E+10	1	-1E+10	1	-1E+10	1	-1E+10	1	-1E+10	1
4901784	20	C	01/21/2016	10:50	-131.466	45.245	0	1664.80	0	2.2540	0	34.5270	0	27.581	0	1644.687	0	36.9	4	11.2	4	-1E+10	1	-1E+10	1	-1E+10	1	-1E+10	1	-1E+10	1	-1E+10	1
4901784	20	C	01/21/2016	10:50	-131.466	45.245	0	1669.70	0	2.2470	0	34.5280	0	27.583	0	1649.509	0	37.2	4	11.3	4	-1E+10	1	-1E+10	1	-1E+10	1	-1E+10	1	-1E+10	1	-1E+10	1
4901784	20	C	01/21/2016	10:50	-131.466	45.245	0	1674.70	0	2.2400	0	34.5290	0	27.584	0	1654.429	0	37.5	4	11.4	4	-1E+10	1	-1E+10	1	-1E+10	1	-1E+10	1	-1E+10	1	-1E+10	1
4901784	20	C	01/21/2016	10:50	-131.466	45.245	0	1679.60	0	2.2340	0	34.5300	0	27.586	0	1659.251	0	37.8	4	11.4	4	-1E+10	1	-1E+10	1	-1E+10	1	-1E+10	1	-1E+10	1	-1E+10	1
4901784	20	C	01/21/2016	10:50	-131.466	45.245	0	1684.60	0	2.2300	0	34.5300	0	27.586	0	1664.170	0	38.0	4	11.5	4	-1E+10	1	-1E+10	1	-1E+10	1	-1E+10	1	-1E+10	1	-1E+10	1
4901784	20	C	01/21/2016	10:50	-131.466	45.245	0	1689.50	0	2.2260	0	34.5310	0	27.587	0	1668.992	0	38.2	4	11.6	4	-1E+10	1	-1E+10	1	-1E+10	1	-1E+10	1	-1E+10	1	-1E+10	1
4901784	20	C	01/21/2016	10:50	-131.466	45.245	0	1694.40	0	2.2210	0	34.5320	0	27.588	0	1673.813	0	38.4	4	11.6	4	-1E+10	1	-1E+10	1	-1E+10	1	-1E+10	1	-1E+10	1	-1E+10	1
4901784	20	C	01/21/2016	10:50	-131.466	45.245	0	1699.40	0	2.2180	0	34.5320	0	27.589	0	1678.732	0	38.6	4	11.7	4	-1E+10	1	-1E+10	1	-1E+10	1	-1E+10	1	-1E+10	1	-1E+10	1
4901784	20	C	01/21/2016	10:50	-131.466	45.245	0	1704.30	0	2.2120	0	34.5330	0	27.590	0	1683.553	0	38.9	4	11.8	4	-1E+10	1	-1E+10	1	-1E+10	1	-1E+10	1	-1E+10	1	-1E+10	1
4901784	20	C	01/21/2016	10:50	-131.466	45.245	0	1709.30	0	2.2070	0	34.5330	0	27.590	0	1688.473	0	39.1	4	11.8	4	-1E+10	1	-1E+10	1	-1E+10	1	-1E+10	1	-1E+10	1	-1E+10	1
4901784	20	C	01/21/2016	10:50	-131.466	45.245	0	1714.20	0	2.2040	0	34.5340	0	27.591	0	1693.293	0	39.3	4	11.9	4	-1E+10	1	-1E+10	1	-1E+10	1	-1E+10	1	-1E+10	1	-1E+10	1
4901784	20	C	01/21/2016	10:50	-131.466	45.245	0	1720.00	0	2.1980	0	34.5350	0	27.593	0	1698.999	0	39.7	4	12.0	4	-1E+10	1	-1E+10	1	-1E+10	1	-1E+10	1	-1E+10	1	-1E+10	1
4901784	20	C	01/21/2016	10:50	-131.466	45.245	0	1725.80	0	2.1880	0	34.5360	0	27.594	0	1704.705	0	40.1	4	12.1	4	-1E+10	1	-1E+10	1	-1E+10	1	-1E+10	1	-1E+10	1	-1E+10	1
4901784	20	C	01/21/2016	10:50	-131.466	45.245	0	1730.80	0	2.1820	0	34.5360	0	27.595	0	1709.624	0	40.4	4	12.2	4	-1E+10	1	-1E+10	1	-1E+10	1	-1E+10	1	-1E+10	1	-1E+10	1
4901784	20	C	01/21/2016	10:50	-131.466	45.245	0	1735.70	0	2.1760	0	34.5370	0	27.596	0	1714.444	0	40.8	4	12.3	4	-1E+10	1	-1E+10	1	-1E+10	1	-1E+10	1	-1E+10	1	-1E+10	1
4901784	20	C	01/21/2016	10:50	-131.466	45.245	0	1740.60	0	2.1730	0	34.5380	0	27.597	0	1719.264	0	41.1	4	12.4	4	-1E+10	1	-1E+10	1	-1E+10	1	-1E+10	1	-1E+10	1	-1E+10	1
4901784	20	C	01/21/2016	10:50	-131.466	45.245	0	1745.70	0	2.1700	0	34.5390	0	27.598	0	1724.281	0	41.4	4	12.5	4	-1E+10	1	-1E+10	1	-1E+10	1	-1E+10	1	-1E+10	1	-1E+10	1
4901784	20	C	01/21/2016	10:50	-131.466	45.245	0	1750.60	0	2.1620	0	34.5400	0	27.600	0	1729.101	0	41.9	4	12.7	4	-1E+10	1	-1E+10	1	-1E+10	1	-1E+10	1	-1E+10	1	-1E+10	1
4901784	20	C	01/21/2016	10:50	-131.466	45.245	0	1755.70	0	2.1520	0	34.5410	0	27.601	0	1734.118	0	42.4	4	12.8	4	-1E+10	1	-1E+10	1	-1E+10	1	-1E+10	1	-1E+10	1	-1E+10	1
4901784	20	C	01/21/2016	10:50	-131.466	45.245	0	1760.60	0	2.1470	0	34.5420	0	27.603	0	1738.937	0	42.7	4	12.9	4	-1E+10	1	-1E+10	1	-1E+10	1	-1E+10	1	-1E+10	1	-1E+10	1
4901784	20	C	01/21/2016	10:50	-131.466	45.245	0	1765.60	0	2.1420	0	34.5440	0	27.605	0	1743.855	0	43.2	4	13.1	4	-1E+10	1	-1E+10	1	-1E+10	1	-1E+10	1	-1E+10	1	-1E+10	1
4901784	20	C	01/21/2016	10:50	-131.466	45.245	0	1770.60	0	2.1370	0	34.5440	0	27.605	0	1748.773	0	43.4	4	13.1	4	-1E+10	1	-1E+10	1	-1E+10	1	-1E+10	1	-1E+10	1	-1E+10	1
4901784	20	C	01/21/2016	10:50	-131.466	45.245	0	1775.50	0	2.1330	0	34.5450	0	27.606	0	1753.593	0	43.8	4	13.2	4	-1E+10	1	-1E+10	1	-1E+10	1	-1E+10	1	-1E+10	1	-1E+10	1
4901784	20	C	01/21/2016	10:50	-131.466	45.245	0	1780.50	0	2.1260	0	34.5460	0	27.607	0	1758.510	0	44.0	4	13.3	4	-1E+10	1	-1E+10	1	-1E+10	1	-1E+10	1	-1E+10	1	-1E+10	1
4901784	20	C	01/21/2016	10:50	-131.466	45.245	0	1785.50	0	2.1240	0	34.5470	0	27.608	0	1763.428	0	44.1	4	13.3	4	-1E+10	1	-1E+10	1	-1E+10	1	-1E+10	1	-1E+10	1	-1E+10	1
4901784	20	C	01/21/2016	10:50	-131.466	45.245	0	1790.60	0	2.1230	0	34.5470	0	27.609	0	1768.443	0	44.3	4	13.4	4	-1E+10	1	-1E+10	1	-1E+10	1	-1E+10	1	-1E+10	1	-1E+10	1
4901784	20	C	01/21/2016	10:50	-131.466	45.245	0	1795.60	0	2.1200	0	34.5470	0	27.609	0	1773.361	0	44.5	4	13.5	4	-1E+10	1	-1E+10	1	-1E+10	1	-1E+10	1	-1E+10	1	-1E+10	1
4901784	20	C	01/21/2016	10:50	-131.466	45.245	0	1800.60	0	2.1180	0	34.5480	0	27.610	0	1778.278	0	44.8	4	13.5	4	-1E+10	1	-1E+10	1	-1E+10	1	-1E+10	1	-1E+10	1	-1E+10	1
4901784	20	C	01/21/2016	10:50	-131.466	45.245	0	1805.60	0	2.1140	0	34.5480	0	27.610	0	1783.195	0	45.1	4	13.6	4	-1E+10	1	-1E+10	1	-1E+10	1	-1E+10	1	-1E+10	1	-1E+10	1
4901784	20	C	01/21/2016	10:50	-131.466	45.245	0	1810.70	0	2.1100	0	34.5490	0	27.611	0	1788.210	0	45.4	4	13.7	4	-1E+10	1	-1E+10	1	-1E+10	1	-1E+10	1	-1E+10	1	-1E+10	1
4901784	20	C	01/21/2016	10:50	-131.466	45.245	0	1815.70	0	2.1060	0	34.5500	0	27.612	0	1793.127	0	45.8	4	13.9	4	-1E+10	1	-1E+10	1	-1E+10	1	-1E+10	1	-1E+10	1	-1E+10	1
4901784	20	C	01/21/2016	10:50	-131.466	45.245	0	1820.70	0	2.1000	0	34.5510	0	27.614	0	1798.044	0	46.2	4	14.0	4	-1E+10	1	-1E+10	1	-1E+10	1	-1E+10	1	-1E+10	1	-1E+10	1
4901784	20	C	01/21/2016	10:50	-131.466	45.245	0	1825.70	0	2.0940	0	34.5520	0	27.615	0	1802.960	0	46.7	4	14.1	4	-1E+10	1	-1E+10	1	-1E+10	1	-1E+10	1	-1E+10	1	-1E+10	1
4901784	20	C	01/21/2016	10:50	-131.466	45.245	0	1830.70	0	2.0860	0	34.5530	0	27.617	0	1807.877	0	47.2	4	14.2	4	-1E+10	1	-1E+10	1	-1E+10	1	-1E+10	1	-1E+10	1	-1E+10	1
4901784	20	C	01/21/2016	10:50	-131.466	45.245	0	1835.80	0	2.0800	0	34.5540	0	27.618	0	1812.892	0	47.5	4	14.4	4	-1E+10	1	-1E+10	1	-1E+10	1	-1E+10	1	-1E+10	1	-1E+10	1
4901784	20	C	01/21/2016	10:50	-131.466	45.245	0	1840.80	0	2.0760	0	34.5550	0	27.619	0	1817.808	0	47.8	4	14.4	4	-1E+10	1	-1E+10	1	-1E+10	1	-1E+10	1	-1E+10	1	-1E+10	1
4901784	20	C	01/21/2016	10:50	-131.466	45.245	0	1845.00	0	2.0750	0	34.5550	0	27.619	0	1821.937	0	48.0	4	14.5	4	-1E+10	1	-1E+10	1	-1E+10	1	-1E+10	1	-1E+10	1	-1E+10	1
4901784	20	C	01/21/2016	10:50	-131.466	45.245	0	1849.20	0	2.0690	0	34.5560	0	27.620	0	1826.067	0	48.4	4	14.6	4	-1E+10	1	-1E+10	1	-1E+10	1	-1E+10	1	-1E+10	1	-1E+10	1
4901784	20	C	01/21/2016	10:50	-131.466	45.245	0	1854.20	0	2.0640	0	34.5570	0	27.622	0	1830.983	0	48.8	4	14.7	4	-1E+10	1	-1E+10	1	-1E+10	1	-1E+10	1	-1E+10	1	-1E+10	1
4901784	20	C	01/21/2016	10:50	-131.466	45.245	0	1859.20	0	2.0580	0	34.5580	0	27.623	0	1835.898	0	49.2	4	14.9	4	-1E+10	1	-1E+10	1	-1E+10	1	-1E+10	1	-1E+10	1	-1E+10	1
4901784	20	C	01/21/2016	10:50	-131.466	45.245	0	1864.20	0	2.0480	0	34.5590	0	27.624	0	1840.814	0	49.7	4	15.0	4	-1E+10	1	-1E+10	1	-1E+10	1	-1E+10	1	-1E+10	1	-1E+10	1
4901784	20	C	01/21/2016	10:50	-131.466	45.245	0	1869.20	0	2.0430	0	34.5600	0	27.626	0	1845.730	0	50.1	4	15.1	4	-1E+10	1	-1E+10	1	-1E+10	1	-1E+10	1	-1E+10	1	-1E+10	1
4901784	20	C	01/21/2016	10:50	-131.466	45.245	0	1875.00	0	2.0380	0	34.5610	0	27.627	0	1851.432	0	50.5	4	15.2	4	-1E+10	1	-1E+10	1	-1E+10	1	-1E+10	1	-1E+10	1	-1E+10	1
4901784	20	C	01/21/2016	10:50	-131.466	45.245	0	1880.70	0	2.0320	0	34.5620	0	27.628	0	1857.035	0	51.0	4	15.4	4	-1E+10	1	-1E+10	1	-1E+10	1	-1E+10	1	-1E+10	1	-1E+10	1
4901784	20	C	01/21/2016	10:50	-131.466	45.245	0	1885.70	0	2.0280	0	34.5630	0	27.629	0	1861.950	0	51.4	4	15.5	4	-1E+10	1	-1E+10	1	-1E+10	1	-1E+10	1	-1E+10	1	-1E+10	1
4901784	20	C	01/21/2016	10:50	-131.466	45.245	0	1890.70	0	2.0210	0	34.5640	0	27.631	0	1866.865	0	51.9	4	15.7	4	-1E+10	1	-1E+10	1	-1E+10	1	-1E+10	1	-1E+10	1	-1E+10	1
4901784	20	C	01/21/2016	10:50	-131.466	45.245	0	1895.70	0	2.0140	0	34.5650	0	27.632	0	1871.780	0	52.3	4	15.8	4	-1E+10	1	-1E+10	1	-1E+10	1	-1E+10	1	-1E+10	1	-1E+10	1
4901784	20	C	01/21/2016	10:50	-131.466	45.245	0	1900.70	0	2.0080	0	34.5660	0	27.633	0	1876.695	0	52.6	4	15.9	4	-1E+10	1	-1E+10	1	-1E+10	1	-1E+10	1	-1E+10	1	-1E+10	1
4901784	20	C	01/21/2016	10:50	-131.466	45.245	0	1905.70	0	2.0050	0	34.5660	0	27.634	0	1881.610	0	52.8	4	15.9	4	-1E+10	1	-1E+10	1	-1E+10	1	-1E+10	1	-1E+10	1	-1E+10	1
4901784	20	C	01/21/2016	10:50	-131.466	45.245	0	1910.80	0	2.0020	0	34.5670	0	27.635	0	1886.623	0	53.1	4	16.0	4	-1E+10	1	-1E+10	1	-1E+10	1	-1E+10	1	-1E+10	1	-1E+10	1
4901784	20	C	01/21/2016	10:50	-131.466	45.245	0	1915.00	0	2.0010	0	34.5670	0	27.635	0	1890.751	0	53.3	4	16.1	4	-1E+10	1	-1E+10	1	-1E+10	1	-1E+10	1	-1E+10	1	-1E+10	1
4901784	20	C	01/21/2016	10:50	-131.466	45.245	0	1919.30	0	1.9960	0	34.5680	0	27.636	0	1894.978	0	53.6	4	16.2	4	-1E+10	1	-1E+10	1	-1E+10	1	-1E+10	1	-1E+10	1	-1E+10	1
4901784	20	C	01/21/2016	10:50	-131.466	45.245	0	1924.40	0	1.9930	0	34.5690	0	27.637	0	1899.990	0	53.9	4	16.2	4	-1E+10	1	-1E+10	1	-1E+10	1	-1E+10	1	-1E+10	1	-1E+10	1
4901784	20	C	01/21/2016	10:50	-131.466	45.245	0	1929.60	0	1.9880	0	34.5700	0	27.638	0	1905.101	0	54.2	4	16.3	4	-1E+10	1	-1E+10	1	-1E+10	1	-1E+10	1	-1E+10	1	-1E+10	1
4901784	20	C	01/21/2016	10:50	-131.466	45.245	0	1934.90	0	1.9850	0	34.5700	0	27.639	0	1910.310	0	54.4	4	16.4	4	-1E+10	1	-1E+10	1	-1E+10	1	-1E+10	1	-1E+10	1	-1E+10	1
4901784	20	C	01/21/2016	10:50	-131.466	45.245	0	1940.10	0	1.9840	0	34.5700	0	27.639	0	1915.421	0	54.6	4	16.4	4	-1E+10	1	-1E+10	1	-1E+10	1	-1E+10	1	-1E+10	1	-1E+10	1
4901784	20	C	01/21/2016	10:50	-131.466	45.245	0	1945.50	0	1.9810	0	34.5710	0	27.640	0	1920.728	0	54.8	4	16.5	4	-1E+10	1	-1E+10	1	-1E+10	1	-1E+10	1	-1E+10	1	-1E+10	1
4901784	20	C	01/21/2016	10:50	-131.466	45.245	0	1949.90	0	1.9790	0	34.5710	0	27.640	0	1925.052	0	54.9	4	16.6	4	-1E+10	1	-1E+10	1	-1E+10	1	-1E+10	1	-1E+10	1	-1E+10	1
4901784	20	C	01/21/2016	10:50	-131.466	45.245	0	1954.40	0	1.9770	0	34.5710	0	27.640	0	1929.474	0	55.2	4	16.6	4	-1E+10	1	-1E+10	1	-1E+10	1	-1E+10	1	-1E+10	1	-1E+10	1
4901784	20	C	01/21/2016	10:50	-131.466	45.245	0	1960.40	0	1.9730	0	34.5720	0	27.641	0	1935.370	0	55.5	4	16.7	4	-1E+10	1	-1E+10	1	-1E+10	1	-1E+10	1	-1E+10	1	-1E+10	1
4901784	20	C	01/21/2016	10:50	-131.466	45.245	0	1965.40	0	1.9700	0	34.5730	0	27.642	0	1940.284	0	55.8	4	16.8	4	-1E+10	1	-1E+10	1	-1E+10	1	-1E+10	1	-1E+10	1	-1E+10	1
4901784	20	C	01/21/2016	10:50	-131.466	45.245	0	1970.10	0	1.9650	0	34.5740	0	27.644	0	1944.902	0	56.1	4	16.9	4	-1E+10	1	-1E+10	1	-1E+10	1	-1E+10	1	-1E+10	1	-1E+10	1
4901784	20	C	01/21/2016	10:50	-131.466	45.245	0	1975.00	0	1.9640	0	34.5740	0	27.644	0	1949.717	0	56.3	4	16.9	4	-1E+10	1	-1E+10	1	-1E+10	1	-1E+10	1	-1E+10	1	-1E+10	1
4901784	20	C	01/21/2016	10:50	-131.466	45.245	0	1979.80	0	1.9620	0	34.5740	0	27.644	0	1954.434	0	56.5	4	17.0	4	-1E+10	1	-1E+10	1	-1E+10	1	-1E+10	1	-1E+10	1	-1E+10	1
4901784	20	C	01/21/2016	10:50	-131.466	45.245	0	1984.80	0	1.9580	0	34.5750	0	27.645	0	1959.347	0	56.8	4	17.1	4	-1E+10	1	-1E+10	1	-1E+10	1	-1E+10	1	-1E+10	1	-1E+10	1
4901784	20	C	01/21/2016	10:50	-131.466	45.245	0	1990.30	0	1.9540	0	34.5760	0	27.646	0	1964.751	0	57.1	4	17.2	4	-1E+10	1	-1E+10	1	-1E+10	1	-1E+10	1	-1E+10	1	-1E+10	1
4901784	20	C	01/21/2016	10:50	-131.466	45.245	0	1994.80	0	1.9520	0	34.5760	0	27.646	0	1969.172	0	57.3	4	17.2	4	-1E+10	1	-1E+10	1	-1E+10	1	-1E+10	1	-1E+10	1	-1E+10	1
4901784	20	C	01/21/2016	10:50	-131.466	45.245	0	2000.00	0	1.9500	0	34.5770	0	27.647	0	1974.281	0	57.4	4	17.3	4	-1E+10	1	-1E+10	1	-1E+10	1	-1E+10	1	-1E+10	1	-1E+10	1
4901784	20	C	01/21/2016	10:50	-131.466	45.245	0	2004.90	0	1.9480	0	34.5770	0	27.647	0	1979.095	0	57.6	4	17.3	4	-1E+10	1	-1E+10	1	-1E+10	1	-1E+10	1	-1E+10	1	-1E+10	1
4901784	20	C	01/21/2016	10:50	-131.466	45.245	0	2010.90	0	1.9460	0	34.5780	0	27.648	0	1984.990	0	56.7	8	17.1	8	-1E+10	1	-1E+10	1	-1E+10	1	-1E+10	1	-1E+10	1	-1E+10	1
4901784	20	C	01/21/2016	10:50	-131.466	45.245	0																										
4901784	21	C	01/31/2016	10:51	-131.607	45.081	0	2.60	0	10.6970	0	32.6700	0	25.015	0	2.579	0	261.3	4	95.0	4	-1E+10	1	-1E+10	1	-1E+10	1	-1E+10	1	-1E+10	1	-1E+10	1
4901784	21	C	01/31/2016	10:51	-131.607	45.081	0	4.40	0	10.7050	0	32.6700	0	25.014	0	4.364	0	261.3	4	95.0	4	-1E+10	1	-1E+10	1	-1E+10	1	-1E+10	1	-1E+10	1	-1E+10	1
4901784	21	C	01/31/2016	10:51	-131.607	45.081	0	6.10	0	10.7070	0	32.6700	0	25.013	0	6.050	0	261.4	4	95.0	4	-1E+10	1	-1E+10	1	-1E+10	1	-1E+10	1	-1E+10	1	-1E+10	1
4901784	21	C	01/31/2016	10:51	-131.607	45.081	0	7.90	0	10.7060	0	32.6700	0	25.014	0	7.836	0	261.4	4	95.0	4	-1E+10	1	-1E+10	1	-1E+10	1	-1E+10	1	-1E+10	1	-1E+10	1
4901784	21	C	01/31/2016	10:51	-131.607	45.081	0	9.60	0	10.7070	0	32.6700	0	25.013	0	9.522	0	261.4	4	95.0	4	-1E+10	1	-1E+10	1	-1E+10	1	-1E+10	1	-1E+10	1	-1E+10	1
4901784	21	C	01/31/2016	10:51	-131.607	45.081	0	11.40	0	10.7070	0	32.6700	0	25.014	0	11.307	0	261.3	4	95.0	4	-1E+10	1	-1E+10	1	-1E+10	1	-1E+10	1	-1E+10	1	-1E+10	1
4901784	21	C	01/31/2016	10:51	-131.607	45.081	0	13.10	0	10.7070	0	32.6700	0	25.014	0	12.993	0	261.3	4	95.0	4	-1E+10	1	-1E+10	1	-1E+10	1	-1E+10	1	-1E+10	1	-1E+10	1
4901784	21	C	01/31/2016	10:51	-131.607	45.081	0	14.90	0	10.7070	0	32.6700	0	25.014	0	14.778	0	261.2	4	95.0	4	-1E+10	1	-1E+10	1	-1E+10	1	-1E+10	1	-1E+10	1	-1E+10	1
4901784	21	C	01/31/2016	10:51	-131.607	45.081	0	16.70	0	10.7060	0	32.6710	0	25.015	0	16.564	0	261.3	4	95.0	4	-1E+10	1	-1E+10	1	-1E+10	1	-1E+10	1	-1E+10	1	-1E+10	1
4901784	21	C	01/31/2016	10:51	-131.607	45.081	0	18.50	0	10.7070	0	32.6700	0	25.014	0	18.349	0	261.1	4	94.9	4	-1E+10	1	-1E+10	1	-1E+10	1	-1E+10	1	-1E+10	1	-1E+10	1
4901784	21	C	01/31/2016	10:51	-131.607	45.081	0	20.30	0	10.7070	0	32.6700	0	25.014	0	20.134	0	261.2	4	95.0	4	-1E+10	1	-1E+10	1	-1E+10	1	-1E+10	1	-1E+10	1	-1E+10	1
4901784	21	C	01/31/2016	10:51	-131.607	45.081	0	22.20	0	10.7070	0	32.6700	0	25.014	0	22.018	0	261.3	4	95.0	4	-1E+10	1	-1E+10	1	-1E+10	1	-1E+10	1	-1E+10	1	-1E+10	1
4901784	21	C	01/31/2016	10:51	-131.607	45.081	0	24.10	0	10.7060	0	32.6700	0	25.014	0	23.903	0	261.3	4	95.0	4	-1E+10	1	-1E+10	1	-1E+10	1	-1E+10	1	-1E+10	1	-1E+10	1
4901784	21	C	01/31/2016	10:51	-131.607	45.081	0	26.00	0	10.7060	0	32.6700	0	25.014	0	25.787	0	261.3	4	95.0	4	-1E+10	1	-1E+10	1	-1E+10	1	-1E+10	1	-1E+10	1	-1E+10	1
4901784	21	C	01/31/2016	10:51	-131.607	45.081	0	27.80	0	10.7060	0	32.6700	0	25.014	0	27.572	0	261.2	4	95.0	4	-1E+10	1	-1E+10	1	-1E+10	1	-1E+10	1	-1E+10	1	-1E+10	1
4901784	21	C	01/31/2016	10:51	-131.607	45.081	0	29.60	0	10.7060	0	32.6700	0	25.014	0	29.357	0	261.2	4	95.0	4	-1E+10	1	-1E+10	1	-1E+10	1	-1E+10	1	-1E+10	1	-1E+10	1
4901784	21	C	01/31/2016	10:51	-131.607	45.081	0	31.40	0	10.7060	0	32.6690	0	25.013	0	31.143	0	261.2	4	95.0	4	-1E+10	1	-1E+10	1	-1E+10	1	-1E+10	1	-1E+10	1	-1E+10	1
4901784	21	C	01/31/2016	10:51	-131.607	45.081	0	33.30	0	10.7070	0	32.6700	0	25.014	0	33.027	0	261.0	4	94.9	4	-1E+10	1	-1E+10	1	-1E+10	1	-1E+10	1	-1E+10	1	-1E+10	1
4901784	21	C	01/31/2016	10:51	-131.607	45.081	0	35.10	0	10.7080	0	32.6700	0	25.014	0	34.812	0	261.0	4	94.9	4	-1E+10	1	-1E+10	1	-1E+10	1	-1E+10	1	-1E+10	1	-1E+10	1
4901784	21	C	01/31/2016	10:51	-131.607	45.081	0	36.90	0	10.7090	0	32.6700	0	25.014	0	36.597	0	260.8	4	94.8	4	-1E+10	1	-1E+10	1	-1E+10	1	-1E+10	1	-1E+10	1	-1E+10	1
4901784	21	C	01/31/2016	10:51	-131.607	45.081	0	38.80	0	10.7090	0	32.6710	0	25.015	0	38.481	0	260.9	4	94.9	4	-1E+10	1	-1E+10	1	-1E+10	1	-1E+10	1	-1E+10	1	-1E+10	1
4901784	21	C	01/31/2016	10:51	-131.607	45.081	0	40.60	0	10.7080	0	32.6700	0	25.014	0	40.266	0	261.0	4	94.9	4	-1E+10	1	-1E+10	1	-1E+10	1	-1E+10	1	-1E+10	1	-1E+10	1
4901784	21	C	01/31/2016	10:51	-131.607	45.081	0	42.60	0	10.7080	0	32.6690	0	25.013	0	42.250	0	261.0	4	94.9	4	-1E+10	1	-1E+10	1	-1E+10	1	-1E+10	1	-1E+10	1	-1E+10	1
4901784	21	C	01/31/2016	10:51	-131.607	45.081	0	44.40	0	10.7090	0	32.6700	0	25.014	0	44.035	0	260.9	4	94.9	4	-1E+10	1	-1E+10	1	-1E+10	1	-1E+10	1	-1E+10	1	-1E+10	1
4901784	21	C	01/31/2016	10:51	-131.607	45.081	0	46.30	0	10.7110	0	32.6710	0	25.014	0	45.919	0	260.8	4	94.8	4	-1E+10	1	-1E+10	1	-1E+10	1	-1E+10	1	-1E+10	1	-1E+10	1
4901784	21	C	01/31/2016	10:51	-131.607	45.081	0	48.20	0	10.7110	0	32.6700	0	25.014	0	47.803	0	260.7	4	94.8	4	-1E+10	1	-1E+10	1	-1E+10	1	-1E+10	1	-1E+10	1	-1E+10	1
4901784	21	C	01/31/2016	10:51	-131.607	45.081	0	50.10	0	10.7110	0	32.6710	0	25.014	0	49.687	0	260.8	4	94.8	4	-1E+10	1	-1E+10	1	-1E+10	1	-1E+10	1	-1E+10	1	-1E+10	1
4901784	21	C	01/31/2016	10:51	-131.607	45.081	0	52.10	0	10.7120	0	32.6710	0	25.014	0	51.670	0	260.6	4	94.8	4	-1E+10	1	-1E+10	1	-1E+10	1	-1E+10	1	-1E+10	1	-1E+10	1
4901784	21	C	01/31/2016	10:51	-131.607	45.081	0	54.00	0	10.7110	0	32.6700	0	25.014	0	53.554	0	260.7	4	94.8	4	-1E+10	1	-1E+10	1	-1E+10	1	-1E+10	1	-1E+10	1	-1E+10	1
4901784	21	C	01/31/2016	10:51	-131.607	45.081	0	55.90	0	10.7100	0	32.6710	0	25.015	0	55.438	0	260.6	4	94.8	4	-1E+10	1	-1E+10	1	-1E+10	1	-1E+10	1	-1E+10	1	-1E+10	1
4901784	21	C	01/31/2016	10:51	-131.607	45.081	0	57.80	0	10.7120	0	32.6710	0	25.014	0	57.322	0	260.6	4	94.8	4	-1E+10	1	-1E+10	1	-1E+10	1	-1E+10	1	-1E+10	1	-1E+10	1
4901784	21	C	01/31/2016	10:51	-131.607	45.081	0	59.60	0	10.7110	0	32.6710	0	25.015	0	59.107	0	260.7	4	94.8	4	-1E+10	1	-1E+10	1	-1E+10	1	-1E+10	1	-1E+10	1	-1E+10	1
4901784	21	C	01/31/2016	10:51	-131.607	45.081	0	61.40	0	10.7100	0	32.6700	0	25.014	0	60.892	0	260.5	4	94.7	4	-1E+10	1	-1E+10	1	-1E+10	1	-1E+10	1	-1E+10	1	-1E+10	1
4901784	21	C	01/31/2016	10:51	-131.607	45.081	0	63.20	0	10.7120	0	32.6700	0	25.014	0	62.677	0	260.5	4	94.7	4	-1E+10	1	-1E+10	1	-1E+10	1	-1E+10	1	-1E+10	1	-1E+10	1
4901784	21	C	01/31/2016	10:51	-131.607	45.081	0	65.10	0	10.7100	0	32.6700	0	25.014	0	64.561	0	260.4	4	94.7	4	-1E+10	1	-1E+10	1	-1E+10	1	-1E+10	1	-1E+10	1	-1E+10	1
4901784	21	C	01/31/2016	10:51	-131.607	45.081	0	66.90	0	10.7130	0	32.6710	0	25.014	0	66.346	0	260.2	4	94.6	4	-1E+10	1	-1E+10	1	-1E+10	1	-1E+10	1	-1E+10	1	-1E+10	1
4901784	21	C	01/31/2016	10:51	-131.607	45.081	0	68.90	0	10.7120	0	32.6700	0	25.014	0	68.329	0	260.4	4	94.7	4	-1E+10	1	-1E+10	1	-1E+10	1	-1E+10	1	-1E+10	1	-1E+10	1
4901784	21	C	01/31/2016	10:51	-131.607	45.081	0	70.80	0	10.7100	0	32.6700	0	25.014	0	70.213	0	260.2	4	94.6	4	-1E+10	1	-1E+10	1	-1E+10	1	-1E+10	1	-1E+10	1	-1E+10	1
4901784	21	C	01/31/2016	10:51	-131.607	45.081	0	72.60	0	10.7090	0	32.6690	0	25.014	0	71.997	0	260.0	4	94.5	4	-1E+10	1	-1E+10	1	-1E+10	1	-1E+10	1	-1E+10	1	-1E+10	1
4901784	21	C	01/31/2016	10:51	-131.607	45.081	0	74.50	0	10.7080	0	32.6700	0	25.015	0	73.881	0	259.9	4	94.5	4	-1E+10	1	-1E+10	1	-1E+10	1	-1E+10	1	-1E+10	1	-1E+10	1
4901784	21	C	01/31/2016	10:51	-131.607	45.081	0	76.50	0	10.7080	0	32.6700	0	25.015	0	75.864	0	259.8	4	94.5	4	-1E+10	1	-1E+10	1	-1E+10	1	-1E+10	1	-1E+10	1	-1E+10	1
4901784	21	C	01/31/2016	10:51	-131.607	45.081	0	78.30	0	10.7110	0	32.6700	0	25.014	0	77.649	0	259.5	4	94.4	4	-1E+10	1	-1E+10	1	-1E+10	1	-1E+10	1	-1E+10	1	-1E+10	1
4901784	21	C	01/31/2016	10:51	-131.607	45.081	0	80.10	0	10.7110	0	32.6700	0	25.014	0	79.434	0	259.5	4	94.3	4	-1E+10	1	-1E+10	1	-1E+10	1	-1E+10	1	-1E+10	1	-1E+10	1
4901784	21	C	01/31/2016	10:51	-131.607	45.081	0	81.80	0	10.7120	0	32.6700	0	25.014	0	81.119	0	259.0	4	94.2	4	-1E+10	1	-1E+10	1	-1E+10	1	-1E+10	1	-1E+10	1	-1E+10	1
4901784	21	C	01/31/2016	10:51	-131.607	45.081	0	83.60	0	10.7120	0	32.6700	0	25.014	0	82.904	0	258.2	4	93.9	4	-1E+10	1	-1E+10	1	-1E+10	1	-1E+10	1	-1E+10	1	-1E+10	1
4901784	21	C	01/31/2016	10:51	-131.607	45.081	0	85.40	0	10.7110	0	32.6700	0	25.014	0	84.689	0	257.7	4	93.7	4	-1E+10	1	-1E+10	1	-1E+10	1	-1E+10	1	-1E+10	1	-1E+10	1
4901784	21	C	01/31/2016	10:51	-131.607	45.081	0	87.20	0	10.7110	0	32.6700	0	25.014	0	86.473	0	256.6	4	93.3	4	-1E+10	1	-1E+10	1	-1E+10	1	-1E+10	1	-1E+10	1	-1E+10	1
4901784	21	C	01/31/2016	10:51	-131.607	45.081	0	88.90	0	10.7120	0	32.6690	0	25.013	0	88.159	0	255.6	4	92.9	4	-1E+10	1	-1E+10	1	-1E+10	1	-1E+10	1	-1E+10	1	-1E+10	1
4901784	21	C	01/31/2016	10:51	-131.607	45.081	0	90.70	0	10.7120	0	32.6680	0	25.013	0	89.943	0	253.6	4	92.2	4	-1E+10	1	-1E+10	1	-1E+10	1	-1E+10	1	-1E+10	1	-1E+10	1
4901784	21	C	01/31/2016	10:51	-131.607	45.081	0	92.30	0	10.7120	0	32.6670	0	25.012	0	91.530	0	251.4	4	91.4	4	-1E+10	1	-1E+10	1	-1E+10	1	-1E+10	1	-1E+10	1	-1E+10	1
4901784	21	C	01/31/2016	10:51	-131.607	45.081	0	94.00	0	10.7110	0	32.6650	0	25.011	0	93.215	0	247.7	4	90.1	4	-1E+10	1	-1E+10	1	-1E+10	1	-1E+10	1	-1E+10	1	-1E+10	1
4901784	21	C	01/31/2016	10:51	-131.607	45.081	0	95.60	0	10.7060	0	32.6670	0	25.013	0	94.801	0	243.3	4	88.5	4	-1E+10	1	-1E+10	1	-1E+10	1	-1E+10	1	-1E+10	1	-1E+10	1
4901784	21	C	01/31/2016	10:51	-131.607	45.081	0	97.20	0	10.7040	0	32.6610	0	25.009	0	96.388	0	236.9	4	86.1	4	-1E+10	1	-1E+10	1	-1E+10	1	-1E+10	1	-1E+10	1	-1E+10	1
4901784	21	C	01/31/2016	10:51	-131.607	45.081	0	98.80	0	10.5550	0	32.7230	0	25.083	0	97.974	0	228.3	4	82.8	4	-1E+10	1	-1E+10	1	-1E+10	1	-1E+10	1	-1E+10	1	-1E+10	1
4901784	21	C	01/31/2016	10:51	-131.607	45.081	0	100.30	0	10.3730	0	32.7920	0	25.168	0	99.461	0	221.6	4	80.1	4	-1E+10	1	-1E+10	1	-1E+10	1	-1E+10	1	-1E+10	1	-1E+10	1
4901784	21	C	01/31/2016	10:51	-131.607	45.081	0	102.80	0	9.8240	0	32.9370	0	25.373	0	101.939	0	215.2	4	76.9	4	-1E+10	1	-1E+10	1	-1E+10	1	-1E+10	1	-1E+10	1	-1E+10	1
4901784	21	C	01/31/2016	10:51	-131.607	45.081	0	105.90	0	9.3660	0	33.0540	0	25.539	0	105.013	0	211.7	4	75.0	4	-1E+10	1	-1E+10	1	-1E+10	1	-1E+10	1	-1E+10	1	-1E+10	1
4901784	21	C	01/31/2016	10:51	-131.607	45.081	0	107.60	0	9.2920	0	33.0680	0	25.561	0	106.698	0	209.6	4	74.1	4	-1E+10	1	-1E+10	1	-1E+10	1	-1E+10	1	-1E+10	1	-1E+10	1
4901784	21	C	01/31/2016	10:51	-131.607	45.081	0	109.90	0	9.1130	0	33.1310	0	25.639	0	108.978	0	208.0	4	73.3	4	-1E+10	1	-1E+10	1	-1E+10	1	-1E+10	1	-1E+10	1	-1E+10	1
4901784	21	C	01/31/2016	10:51	-131.607	45.081	0	112.20	0	9.0050	0	33.1850	0	25.698	0	111.258	0	206.6	4	72.7	4	-1E+10	1	-1E+10	1	-1E+10	1	-1E+10	1	-1E+10	1	-1E+10	1
4901784	21	C	01/31/2016	10:51	-131.607	45.081	0	114.60	0	8.9590	0	33.2030	0	25.720	0	113.637	0	205.4	4	72.2	4	-1E+10	1	-1E+10	1	-1E+10	1	-1E+10	1	-1E+10	1	-1E+10	1
4901784	21	C	01/31/2016	10:51	-131.607	45.081	0	117.70	0	8.8400	0	33.2520	0	25.777	0	116.710	0	203.8	4	71.5	4	-1E+10	1	-1E+10	1	-1E+10	1	-1E+10	1	-1E+10	1	-1E+10	1
4901784	21	C	01/31/2016	10:51	-131.607	45.081	0	120.10	0	8.8040	0	33.2660	0	25.793	0	119.090	0	203.1	4	71.2	4	-1E+10	1	-1E+10	1	-1E+10	1	-1E+10	1	-1E+10	1	-1E+10	1
4901784	21	C	01/31/2016	10:51	-131.607	45.081	0	122.50	0	8.7780	0	33.2740	0	25.804	0	121.469	0	202.2	4	70.8	4	-1E+10	1	-1E+10	1	-1E+10	1	-1E+10	1	-1E+10	1	-1E+10	1
4901784	21	C	01/31/2016	10:51	-131.607	45.081	0	125.40	0	8.7170	0	33.2990	0	25.833	0	124.343	0	201.0	4	70.3	4	-1E+10	1	-1E+10	1	-1E+10	1	-1E+10	1	-1E+10	1	-1E+10	1
4901784	21	C	01/31/2016	10:51	-131.607	45.081	0	127.80	0	8.6260	0	33.3430	0	25.881	0	126.722	0	200.2	4	69.9	4	-1E+10	1	-1E+10	1	-1E+10	1	-1E+10	1	-1E+10	1	-1E+10	1
4901784	21	C	01/31/2016	10:51	-131.607	45.081	0	130.00	0	8.5620	0	33.3720	0	25.914	0	128.903	0	200.3	4	69.9	4	-1E+10	1	-1E+10	1	-1E+10	1	-1E+10	1	-1E+10	1	-1E+10	1
4901784	21	C	01/31/2016	10:51	-131.607	45.081	0	132.20	0	8.5230	0	33.3870	0	25.931	0	131.084	0	200.1	4	69.7	4	-1E+10	1	-1E+10	1	-1E+10	1	-1E+10	1	-1E+10	1	-1E+10	1
4901784	21	C	01/31/2016	10:51	-131.607	45.081	0	135.30	0	8.4490	0	33.4110	0	25.961	0	134.157	0	200.1	4	69.6	4	-1E+10	1	-1E+10	1	-1E+10	1	-1E+10	1	-1E+10	1	-1E+10	1
4901784	21	C	01/31/2016	10:51	-131.607	45.081	0	137.60	0	8.3920	0	33.4310	0	25.986	0	136.437	0	199.6	4	69.4	4	-1E+10	1	-1E+10	1	-1E+10	1	-1E+10	1	-1E+10	1	-1E+10	1
4901784	21	C	01/31/2016	10:51	-131.607	45.081	0	140.10	0	8.3630	0	33.4530	0	26.007	0	138.915	0	198.6	4	69.0	4	-1E+10	1	-1E+10	1	-1E+10	1	-1E+10	1	-1E+10	1	-1E+10	1
4901784	21	C	01/31/2016	10:51	-131.607	45.081	0	142.60	0	8.3190	0	33.4820	0	26.037	0	141.393	0	198.0	4	68.8	4	-1E+10	1	-1E+10	1	-1E+10	1	-1E+10	1	-1E+10	1	-1E+10	1
4901784	21	C	01/31/2016	10:51	-131.607	45.081	0	145.00	0	8.2830	0	33.5040	0	26.059	0	143.771	0	197.6	4	68.6	4	-1E+10	1	-1E+10	1	-1E+10	1	-1E+10	1	-1E+10	1	-1E+10	1
4901784	21	C	01/31/2016	10:51	-131.607	45.081	0	147.50	0	8.2590	0	33.5270	0	26.081	0	146.249	0	196.9	4	68.3	4	-1E+10	1	-1E+10	1	-1E+10	1	-1E+10	1	-1E+10	1	-1E+10	1
4901784	21	C	01/31/2016	10:51	-131.607	45.081	0	149.90	0	8.2460	0	33.5440	0	26.096	0	148.628	0	196.0	4	68.0	4	-1E+10	1	-1E+10	1	-1E+10	1	-1E+10	1	-1E+10	1	-1E+10	1
4901784	21	C	01/31/2016	10:51	-131.607	45.081	0	152.30	0	8.2400	0	33.5490	0	26.101	0	151.007	0	195.3	4	67.7	4	-1E+10	1	-1E+10	1	-1E+10	1	-1E+10	1	-1E+10	1	-1E+10	1
4901784	21	C	01/31/2016	10:51	-131.607	45.081	0	154.90	0	8.2320	0	33.5550	0	26.107	0	153.584	0	194.1	4	67.3	4	-1E+10	1	-1E+10	1	-1E+10	1	-1E+10	1	-1E+10	1	-1E+10	1
4901784	21	C	01/31/2016	10:51	-131.607	45.081	0	157.60	0	8.2200	0	33.5750	0	26.125	0	156.260	0	192.6	4	66.8	4	-1E+10	1	-1E+10	1	-1E+10	1	-1E+10	1	-1E+10	1	-1E+10	1
4901784	21	C	01/31/2016	10:51	-131.607	45.081	0	160.20	0	8.1820	0	33.6060	0	26.155	0	158.837	0	192.1	4	66.6	4	-1E+10	1	-1E+10	1	-1E+10	1	-1E+10	1	-1E+10	1	-1E+10	1
4901784	21	C	01/31/2016	10:51	-131.607	45.081	0	162.70	0	8.1590	0	33.6220	0	26.171	0	161.315	0	191.9	4	66.5	4	-1E+10	1	-1E+10	1	-1E+10	1	-1E+10	1	-1E+10	1	-1E+10	1
4901784	21	C	01/31/2016	10:51	-131.607	45.081	0	165.30	0	8.1500	0	33.6290	0	26.178	0	163.891	0	190.9	4	66.1	4	-1E+10	1	-1E+10	1	-1E+10	1	-1E+10	1	-1E+10	1	-1E+10	1
4901784	21	C	01/31/2016	10:51	-131.607	45.081	0	168.00	0	8.1210	0	33.6540	0	26.202	0	166.567	0	189.8	4	65.7	4	-1E+10	1	-1E+10	1	-1E+10	1	-1E+10	1	-1E+10	1	-1E+10	1
4901784	21	C	01/31/2016	10:51	-131.607	45.081	0	169.80	0	8.1210	0	33.6540	0	26.202	0	168.351	0	189.0	4	65.4	4	-1E+10	1	-1E+10	1	-1E+10	1	-1E+10	1	-1E+10	1	-1E+10	1
4901784	21	C	01/31/2016	10:51	-131.607	45.081	0	172.50	0	8.0950	0	33.6730	0	26.220	0	171.027	0	187.3	4	64.8	4	-1E+10	1	-1E+10	1	-1E+10	1	-1E+10	1	-1E+10	1	-1E+10	1
4901784	21	C	01/31/2016	10:51	-131.607	45.081	0	175.20	0	8.0700	0	33.6900	0	26.238	0	173.703	0	186.1	4	64.3	4	-1E+10	1	-1E+10	1	-1E+10	1	-1E+10	1	-1E+10	1	-1E+10	1
4901784	21	C	01/31/2016	10:51	-131.607	45.081	0	177.10	0	8.0270	0	33.7180	0	26.266	0	175.586	0	185.2	4	64.0	4	-1E+10	1	-1E+10	1	-1E+10	1	-1E+10	1	-1E+10	1	-1E+10	1
4901784	21	C	01/31/2016	10:51	-131.607	45.081	0	179.80	0	7.9680	0	33.7390	0	26.291	0	178.262	0	184.3	4	63.6	4	-1E+10	1	-1E+10	1	-1E+10	1	-1E+10	1	-1E+10	1	-1E+10	1
4901784	21	C	01/31/2016	10:51	-131.607	45.081	0	182.60	0	7.9140	0	33.7560	0	26.312	0	181.036	0	183.5	4	63.3	4	-1E+10	1	-1E+10	1	-1E+10	1	-1E+10	1	-1E+10	1	-1E+10	1
4901784	21	C	01/31/2016	10:51	-131.607	45.081	0	184.50	0	7.8930	0	33.7610	0	26.319	0	182.919	0	182.9	4	63.0	4	-1E+10	1	-1E+10	1	-1E+10	1	-1E+10	1	-1E+10	1	-1E+10	1
4901784	21	C	01/31/2016	10:51	-131.607	45.081	0	187.30	0	7.8920	0	33.7610	0	26.320	0	185.694	0	182.1	4	62.7	4	-1E+10	1	-1E+10	1	-1E+10	1	-1E+10	1	-1E+10	1	-1E+10	1
4901784	21	C	01/31/2016	10:51	-131.607	45.081	0	190.10	0	7.8940	0	33.7590	0	26.318	0	188.469	0	180.6	4	62.2	4	-1E+10	1	-1E+10	1	-1E+10	1	-1E+10	1	-1E+10	1	-1E+10	1
4901784	21	C	01/31/2016	10:51	-131.607	45.081	0	192.00	0	7.8790	0	33.7610	0	26.322	0	190.352	0	179.2	4	61.7	4	-1E+10	1	-1E+10	1	-1E+10	1	-1E+10	1	-1E+10	1	-1E+10	1
4901784	21	C	01/31/2016	10:51	-131.607	45.081	0	194.80	0	7.8290	0	33.7710	0	26.337	0	193.126	0	177.2	4	61.0	4	-1E+10	1	-1E+10	1	-1E+10	1	-1E+10	1	-1E+10	1	-1E+10	1
4901784	21	C	01/31/2016	10:51	-131.607	45.081	0	198.20	0	7.7660	0	33.7820	0	26.355	0	196.495	0	174.0	4	59.8	4	-1E+10	1	-1E+10	1	-1E+10	1	-1E+10	1	-1E+10	1	-1E+10	1
4901784	21	C	01/31/2016	10:51	-131.607	45.081	0	200.10	0	7.7300	0	33.7890	0	26.365	0	198.378	0	172.1	4	59.1	4	-1E+10	1	-1E+10	1	-1E+10	1	-1E+10	1	-1E+10	1	-1E+10	1
4901784	21	C	01/31/2016	10:51	-131.607	45.081	0	202.40	0	7.6790	0	33.7990	0	26.381	0	200.657	0	169.4	4	58.1	4	-1E+10	1	-1E+10	1	-1E+10	1	-1E+10	1	-1E+10	1	-1E+10	1
4901784	21	C	01/31/2016	10:51	-131.607	45.081	0	204.80	0	7.6260	0	33.8080	0	26.395	0	203.035	0	167.6	4	57.4	4	-1E+10	1	-1E+10	1	-1E+10	1	-1E+10	1	-1E+10	1	-1E+10	1
4901784	21	C	01/31/2016	10:51	-131.607	45.081	0	207.20	0	7.6080	0	33.8110	0	26.400	0	205.413	0	166.7	4	57.1	4	-1E+10	1	-1E+10	1	-1E+10	1	-1E+10	1	-1E+10	1	-1E+10	1
4901784	21	C	01/31/2016	10:51	-131.607	45.081	0	210.30	0	7.5700	0	33.8170	0	26.410	0	208.485	0	165.3	4	56.6	4	-1E+10	1	-1E+10	1	-1E+10	1	-1E+10	1	-1E+10	1	-1E+10	1
4901784	21	C	01/31/2016	10:51	-131.607	45.081	0	212.60	0	7.5390	0	33.8240	0	26.420	0	210.764	0	164.8	4	56.4	4	-1E+10	1	-1E+10	1	-1E+10	1	-1E+10	1	-1E+10	1	-1E+10	1
4901784	21	C	01/31/2016	10:51	-131.607	45.081	0	215.00	0	7.4980	0	33.8340	0	26.434	0	213.142	0	164.2	4	56.1	4	-1E+10	1	-1E+10	1	-1E+10	1	-1E+10	1	-1E+10	1	-1E+10	1
4901784	21	C	01/31/2016	10:51	-131.607	45.081	0	217.40	0	7.4620	0	33.8360	0	26.441	0	215.520	0	163.8	4	55.9	4	-1E+10	1	-1E+10	1	-1E+10	1	-1E+10	1	-1E+10	1	-1E+10	1
4901784	21	C	01/31/2016	10:51	-131.607	45.081	0	219.90	0	7.4420	0	33.8350	0	26.443	0	217.997	0	163.3	4	55.7	4	-1E+10	1	-1E+10	1	-1E+10	1	-1E+10	1	-1E+10	1	-1E+10	1
4901784	21	C	01/31/2016	10:51	-131.607	45.081	0	222.30	0	7.4290	0	33.8350	0	26.445	0	220.375	0	162.5	4	55.5	4	-1E+10	1	-1E+10	1	-1E+10	1	-1E+10	1	-1E+10	1	-1E+10	1
4901784	21	C	01/31/2016	10:51	-131.607	45.081	0	224.90	0	7.4160	0	33.8360	0	26.447	0	222.951	0	161.4	4	55.1	4	-1E+10	1	-1E+10	1	-1E+10	1	-1E+10	1	-1E+10	1	-1E+10	1
4901784	21	C	01/31/2016	10:51	-131.607	45.081	0	227.40	0	7.3990	0	33.8370	0	26.451	0	225.428	0	159.9	4	54.5	4	-1E+10	1	-1E+10	1	-1E+10	1	-1E+10	1	-1E+10	1	-1E+10	1
4901784	21	C	01/31/2016	10:51	-131.607	45.081	0	229.90	0	7.3590	0	33.8420	0	26.460	0	227.905	0	158.0	4	53.8	4	-1E+10	1	-1E+10	1	-1E+10	1	-1E+10	1	-1E+10	1	-1E+10	1
4901784	21	C	01/31/2016	10:51	-131.607	45.081	0	232.50	0	7.3400	0	33.8430	0	26.464	0	230.481	0	156.2	4	53.2	4	-1E+10	1	-1E+10	1	-1E+10	1	-1E+10	1	-1E+10	1	-1E+10	1
4901784	21	C	01/31/2016	10:51	-131.607	45.081	0	235.00	0	7.2910	0	33.8460	0	26.473	0	232.958	0	153.7	4	52.3	4	-1E+10	1	-1E+10	1	-1E+10	1	-1E+10	1	-1E+10	1	-1E+10	1
4901784	21	C	01/31/2016	10:51	-131.607	45.081	0	237.50	0	7.2560	0	33.8480	0	26.479	0	235.435	0	151.2	4	51.4	4	-1E+10	1	-1E+10	1	-1E+10	1	-1E+10	1	-1E+10	1	-1E+10	1
4901784	21	C	01/31/2016	10:51	-131.607	45.081	0	240.00	0	7.1930	0	33.8530	0	26.492	0	237.912	0	148.8	4	50.5	4	-1E+10	1	-1E+10	1	-1E+10	1	-1E+10	1	-1E+10	1	-1E+10	1
4901784	21	C	01/31/2016	10:51	-131.607	45.081	0	242.50	0	7.1340	0	33.8580	0	26.504	0	240.389	0	147.5	4	50.0	4	-1E+10	1	-1E+10	1	-1E+10	1	-1E+10	1	-1E+10	1	-1E+10	1
4901784	21	C	01/31/2016	10:51	-131.607	45.081	0	245.00	0	7.0920	0	33.8600	0	26.511	0	242.865	0	145.6	4	49.3	4	-1E+10	1	-1E+10	1	-1E+10	1	-1E+10	1	-1E+10	1	-1E+10	1
4901784	21	C	01/31/2016	10:51	-131.607	45.081	0	247.60	0	7.0780	0	33.8600	0	26.513	0	245.441	0	143.2	4	48.5	4	-1E+10	1	-1E+10	1	-1E+10	1	-1E+10	1	-1E+10	1	-1E+10	1
4901784	21	C	01/31/2016	10:51	-131.607	45.081	0	250.20	0	7.0410	0	33.8630	0	26.521	0	248.017	0	139.7	4	47.3	4	-1E+10	1	-1E+10	1	-1E+10	1	-1E+10	1	-1E+10	1	-1E+10	1
4901784	21	C	01/31/2016	10:51	-131.607	45.081	0	252.80	0	6.9990	0	33.8650	0	26.528	0	250.593	0	136.7	4	46.2	4	-1E+10	1	-1E+10	1	-1E+10	1	-1E+10	1	-1E+10	1	-1E+10	1
4901784	21	C	01/31/2016	10:51	-131.607	45.081	0	255.30	0	6.9610	0	33.8680	0	26.536	0	253.069	0	134.5	4	45.4	4	-1E+10	1	-1E+10	1	-1E+10	1	-1E+10	1	-1E+10	1	-1E+10	1
4901784	21	C	01/31/2016	10:51	-131.607	45.081	0	257.90	0	6.9440	0	33.8680	0	26.538	0	255.645	0	132.5	4	44.7	4	-1E+10	1	-1E+10	1	-1E+10	1	-1E+10	1	-1E+10	1	-1E+10	1
4901784	21	C	01/31/2016	10:51	-131.607	45.081	0	259.60	0	6.9380	0	33.8680	0	26.539	0	257.329	0	131.1	4	44.3	4	-1E+10	1	-1E+10	1	-1E+10	1	-1E+10	1	-1E+10	1	-1E+10	1
4901784	21	C	01/31/2016	10:51	-131.607	45.081	0	262.20	0	6.8800	0	33.8720	0	26.550	0	259.905	0	129.6	4	43.7	4	-1E+10	1	-1E+10	1	-1E+10	1	-1E+10	1	-1E+10	1	-1E+10	1
4901784	21	C	01/31/2016	10:51	-131.607	45.081	0	264.80	0	6.8380	0	33.8750	0	26.558	0	262.480	0	128.7	4	43.3	4	-1E+10	1	-1E+10	1	-1E+10	1	-1E+10	1	-1E+10	1	-1E+10	1
4901784	21	C	01/31/2016	10:51	-131.607	45.081	0	267.50	0	6.8270	0	33.8750	0	26.560	0	265.155	0	128.0	4	43.1	4	-1E+10	1	-1E+10	1	-1E+10	1	-1E+10	1	-1E+10	1	-1E+10	1
4901784	21	C	01/31/2016	10:51	-131.607	45.081	0	270.10	0	6.7920	0	33.8790	0	26.567	0	267.730	0	127.5	4	42.9	4	-1E+10	1	-1E+10	1	-1E+10	1	-1E+10	1	-1E+10	1	-1E+10	1
4901784	21	C	01/31/2016	10:51	-131.607	45.081	0	272.80	0	6.7630	0	33.8800	0	26.572	0	270.405	0	127.4	4	42.8	4	-1E+10	1	-1E+10	1	-1E+10	1	-1E+10	1	-1E+10	1	-1E+10	1
4901784	21	C	01/31/2016	10:51	-131.607	45.081	0	275.40	0	6.7300	0	33.8820	0	26.578	0	272.980	0	126.6	4	42.5	4	-1E+10	1	-1E+10	1	-1E+10	1	-1E+10	1	-1E+10	1	-1E+10	1
4901784	21	C	01/31/2016	10:51	-131.607	45.081	0	277.10	0	6.7030	0	33.8820	0	26.582	0	274.664	0	125.4	4	42.1	4	-1E+10	1	-1E+10	1	-1E+10	1	-1E+10	1	-1E+10	1	-1E+10	1
4901784	21	C	01/31/2016	10:51	-131.607	45.081	0	279.70	0	6.6820	0	33.8830	0	26.585	0	277.240	0	124.3	4	41.7	4	-1E+10	1	-1E+10	1	-1E+10	1	-1E+10	1	-1E+10	1	-1E+10	1
4901784	21	C	01/31/2016	10:51	-131.607	45.081	0	282.30	0	6.6670	0	33.8830	0	26.587	0	279.815	0	124.2	4	41.7	4	-1E+10	1	-1E+10	1	-1E+10	1	-1E+10	1	-1E+10	1	-1E+10	1
4901784	21	C	01/31/2016	10:51	-131.607	45.081	0	285.00	0	6.6270	0	33.8820	0	26.592	0	282.490	0	123.8	4	41.5	4	-1E+10	1	-1E+10	1	-1E+10	1	-1E+10	1	-1E+10	1	-1E+10	1
4901784	21	C	01/31/2016	10:51	-131.607	45.081	0	287.60	0	6.5690	0	33.8850	0	26.602	0	285.065	0	122.1	4	40.9	4	-1E+10	1	-1E+10	1	-1E+10	1	-1E+10	1	-1E+10	1	-1E+10	1
4901784	21	C	01/31/2016	10:51	-131.607	45.081	0	290.20	0	6.5320	0	33.8870	0	26.608	0	287.640	0	120.2	4	40.2	4	-1E+10	1	-1E+10	1	-1E+10	1	-1E+10	1	-1E+10	1	-1E+10	1
4901784	21	C	01/31/2016	10:51	-131.607	45.081	0	292.90	0	6.4920	0	33.8890	0	26.615	0	290.314	0	119.2	4	39.8	4	-1E+10	1	-1E+10	1	-1E+10	1	-1E+10	1	-1E+10	1	-1E+10	1
4901784	21	C	01/31/2016	10:51	-131.607	45.081	0	294.60	0	6.4590	0	33.8890	0	26.620	0	291.998	0	118.5	4	39.5	4	-1E+10	1	-1E+10	1	-1E+10	1	-1E+10	1	-1E+10	1	-1E+10	1
4901784	21	C	01/31/2016	10:51	-131.607	45.081	0	297.20	0	6.4210	0	33.8900	0	26.625	0	294.573	0	117.4	4	39.2	4	-1E+10	1	-1E+10	1	-1E+10	1	-1E+10	1	-1E+10	1	-1E+10	1
4901784	21	C	01/31/2016	10:51	-131.607	45.081	0	300.00	0	6.3790	0	33.8910	0	26.632	0	297.347	0	116.5	4	38.8	4	-1E+10	1	-1E+10	1	-1E+10	1	-1E+10	1	-1E+10	1	-1E+10	1
4901784	21	C	01/31/2016	10:51	-131.607	45.081	0	302.70	0	6.3620	0	33.8900	0	26.633	0	300.021	0	115.5	4	38.5	4	-1E+10	1	-1E+10	1	-1E+10	1	-1E+10	1	-1E+10	1	-1E+10	1
4901784	21	C	01/31/2016	10:51	-131.607	45.081	0	305.50	0	6.3300	0	33.8910	0	26.638	0	302.794	0	114.4	4	38.1	4	-1E+10	1	-1E+10	1	-1E+10	1	-1E+10	1	-1E+10	1	-1E+10	1
4901784	21	C	01/31/2016	10:51	-131.607	45.081	0	307.30	0	6.3090	0	33.8910	0	26.641	0	304.577	0	113.7	4	37.8	4	-1E+10	1	-1E+10	1	-1E+10	1	-1E+10	1	-1E+10	1	-1E+10	1
4901784	21	C	01/31/2016	10:51	-131.607	45.081	0	310.00	0	6.2670	0	33.8920	0	26.647	0	307.251	0	112.7	4	37.5	4	-1E+10	1	-1E+10	1	-1E+10	1	-1E+10	1	-1E+10	1	-1E+10	1
4901784	21	C	01/31/2016	10:51	-131.607	45.081	0	312.80	0	6.2510	0	33.8930	0	26.650	0	310.024	0	111.5	4	37.0	4	-1E+10	1	-1E+10	1	-1E+10	1	-1E+10	1	-1E+10	1	-1E+10	1
4901784	21	C	01/31/2016	10:51	-131.607	45.081	0	314.60	0	6.2330	0	33.8930	0	26.652	0	311.807	0	110.7	4	36.8	4	-1E+10	1	-1E+10	1	-1E+10	1	-1E+10	1	-1E+10	1	-1E+10	1
4901784	21	C	01/31/2016	10:51	-131.607	45.081	0	317.30	0	6.1990	0	33.8930	0	26.656	0	314.481	0	109.5	4	36.3	4	-1E+10	1	-1E+10	1	-1E+10	1	-1E+10	1	-1E+10	1	-1E+10	1
4901784	21	C	01/31/2016	10:51	-131.607	45.081	0	320.10	0	6.1640	0	33.8930	0	26.661	0	317.254	0	108.3	4	35.9	4	-1E+10	1	-1E+10	1	-1E+10	1	-1E+10	1	-1E+10	1	-1E+10	1
4901784	21	C	01/31/2016	10:51	-131.607	45.081	0	322.00	0	6.1480	0	33.8940	0	26.664	0	319.135	0	107.3	4	35.6	4	-1E+10	1	-1E+10	1	-1E+10	1	-1E+10	1	-1E+10	1	-1E+10	1
4901784	21	C	01/31/2016	10:51	-131.607	45.081	0	324.70	0	6.1080	0	33.8930	0	26.668	0	321.809	0	105.4	4	34.9	4	-1E+10	1	-1E+10	1	-1E+10	1	-1E+10	1	-1E+10	1	-1E+10	1
4901784	21	C	01/31/2016	10:51	-131.607	45.081	0	327.60	0	6.0580	0	33.8960	0	26.677	0	324.681	0	103.3	4	34.2	4	-1E+10	1	-1E+10	1	-1E+10	1	-1E+10	1	-1E+10	1	-1E+10	1
4901784	21	C	01/31/2016	10:51	-131.607	45.081	0	329.50	0	6.0410	0	33.8990	0	26.681	0	326.563	0	102.2	4	33.8	4	-1E+10	1	-1E+10	1	-1E+10	1	-1E+10	1	-1E+10	1	-1E+10	1
4901784	21	C	01/31/2016	10:51	-131.607	45.081	0	332.30	0	6.0030	0	33.8980	0	26.685	0	329.335	0	101.3	4	33.5	4	-1E+10	1	-1E+10	1	-1E+10	1	-1E+10	1	-1E+10	1	-1E+10	1
4901784	21	C	01/31/2016	10:51	-131.607	45.081	0	335.10	0	5.9450	0	33.9000	0	26.694	0	332.108	0	99.9	4	33.0	4	-1E+10	1	-1E+10	1	-1E+10	1	-1E+10	1	-1E+10	1	-1E+10	1
4901784	21	C	01/31/2016	10:51	-131.607	45.081	0	337.00	0	5.9300	0	33.9010	0	26.697	0	333.990	0	99.3	4	32.7	4	-1E+10	1	-1E+10	1	-1E+10	1	-1E+10	1	-1E+10	1	-1E+10	1
4901784	21	C	01/31/2016	10:51	-131.607	45.081	0	339.80	0	5.9150	0	33.9010	0	26.699	0	336.762	0	98.0	4	32.3	4	-1E+10	1	-1E+10	1	-1E+10	1	-1E+10	1	-1E+10	1	-1E+10	1
4901784	21	C	01/31/2016	10:51	-131.607	45.081	0	342.70	0	5.8850	0	33.9010	0	26.702	0	339.634	0	96.7	4	31.9	4	-1E+10	1	-1E+10	1	-1E+10	1	-1E+10	1	-1E+10	1	-1E+10	1
4901784	21	C	01/31/2016	10:51	-131.607	45.081	0	345.10	0	5.8540	0	33.9020	0	26.707	0	342.011	0	95.5	4	31.4	4	-1E+10	1	-1E+10	1	-1E+10	1	-1E+10	1	-1E+10	1	-1E+10	1
4901784	21	C	01/31/2016	10:51	-131.607	45.081	0	347.80	0	5.8180	0	33.9030	0	26.712	0	344.684	0	93.4	4	30.7	4	-1E+10	1	-1E+10	1	-1E+10	1	-1E+10	1	-1E+10	1	-1E+10	1
4901784	21	C	01/31/2016	10:51	-131.607	45.081	0	350.20	0	5.7890	0	33.9060	0	26.718	0	347.061	0	91.2	4	30.0	4	-1E+10	1	-1E+10	1	-1E+10	1	-1E+10	1	-1E+10	1	-1E+10	1
4901784	21	C	01/31/2016	10:51	-131.607	45.081	0	352.60	0	5.7630	0	33.9100	0	26.725	0	349.437	0	89.7	4	29.5	4	-1E+10	1	-1E+10	1	-1E+10	1	-1E+10	1	-1E+10	1	-1E+10	1
4901784	21	C	01/31/2016	10:51	-131.607	45.081	0	355.00	0	5.7470	0	33.9110	0	26.727	0	351.814	0	88.5	4	29.1	4	-1E+10	1	-1E+10	1	-1E+10	1	-1E+10	1	-1E+10	1	-1E+10	1
4901784	21	C	01/31/2016	10:51	-131.607	45.081	0	357.30	0	5.7310	0	33.9130	0	26.731	0	354.091	0	87.4	4	28.7	4	-1E+10	1	-1E+10	1	-1E+10	1	-1E+10	1	-1E+10	1	-1E+10	1
4901784	21	C	01/31/2016	10:51	-131.607	45.081	0	359.70	0	5.7050	0	33.9140	0	26.735	0	356.467	0	86.4	4	28.3	4	-1E+10	1	-1E+10	1	-1E+10	1	-1E+10	1	-1E+10	1	-1E+10	1
4901784	21	C	01/31/2016	10:51	-131.607	45.081	0	362.20	0	5.6700	0	33.9150	0	26.740	0	358.943	0	85.7	4	28.1	4	-1E+10	1	-1E+10	1	-1E+10	1	-1E+10	1	-1E+10	1	-1E+10	1
4901784	21	C	01/31/2016	10:51	-131.607	45.081	0	365.30	0	5.6400	0	33.9160	0	26.744	0	362.012	0	84.8	4	27.8	4	-1E+10	1	-1E+10	1	-1E+10	1	-1E+10	1	-1E+10	1	-1E+10	1
4901784	21	C	01/31/2016	10:51	-131.607	45.081	0	367.70	0	5.6340	0	33.9160	0	26.745	0	364.388	0	83.9	4	27.5	4	-1E+10	1	-1E+10	1	-1E+10	1	-1E+10	1	-1E+10	1	-1E+10	1
4901784	21	C	01/31/2016	10:51	-131.607	45.081	0	370.10	0	5.6210	0	33.9160	0	26.747	0	366.765	0	82.5	4	27.0	4	-1E+10	1	-1E+10	1	-1E+10	1	-1E+10	1	-1E+10	1	-1E+10	1
4901784	21	C	01/31/2016	10:51	-131.607	45.081	0	372.50	0	5.5900	0	33.9220	0	26.755	0	369.141	0	81.1	4	26.5	4	-1E+10	1	-1E+10	1	-1E+10	1	-1E+10	1	-1E+10	1	-1E+10	1
4901784	21	C	01/31/2016	10:51	-131.607	45.081	0	374.90	0	5.5740	0	33.9210	0	26.756	0	371.517	0	80.4	4	26.3	4	-1E+10	1	-1E+10	1	-1E+10	1	-1E+10	1	-1E+10	1	-1E+10	1
4901784	21	C	01/31/2016	10:51	-131.607	45.081	0	377.40	0	5.5350	0	33.9210	0	26.761	0	373.992	0	79.6	4	26.0	4	-1E+10	1	-1E+10	1	-1E+10	1	-1E+10	1	-1E+10	1	-1E+10	1
4901784	21	C	01/31/2016	10:51	-131.607	45.081	0	379.80	0	5.5060	0	33.9210	0	26.765	0	376.368	0	78.0	4	25.5	4	-1E+10	1	-1E+10	1	-1E+10	1	-1E+10	1	-1E+10	1	-1E+10	1
4901784	21	C	01/31/2016	10:51	-131.607	45.081	0	382.20	0	5.4870	0	33.9250	0	26.770	0	378.745	0	75.8	4	24.7	4	-1E+10	1	-1E+10	1	-1E+10	1	-1E+10	1	-1E+10	1	-1E+10	1
4901784	21	C	01/31/2016	10:51	-131.607	45.081	0	384.70	0	5.4750	0	33.9300	0	26.775	0	381.220	0	74.3	4	24.2	4	-1E+10	1	-1E+10	1	-1E+10	1	-1E+10	1	-1E+10	1	-1E+10	1
4901784	21	C	01/31/2016	10:51	-131.607	45.081	0	387.20	0	5.4620	0	33.9320	0	26.779	0	383.695	0	73.1	4	23.8	4	-1E+10	1	-1E+10	1	-1E+10	1	-1E+10	1	-1E+10	1	-1E+10	1
4901784	21	C	01/31/2016	10:51	-131.607	45.081	0	389.70	0	5.4510	0	33.9340	0	26.781	0	386.170	0	71.9	4	23.4	4	-1E+10	1	-1E+10	1	-1E+10	1	-1E+10	1	-1E+10	1	-1E+10	1
4901784	21	C	01/31/2016	10:51	-131.607	45.081	0	392.30	0	5.4510	0	33.9360	0	26.783	0	388.744	0	70.6	4	23.0	4	-1E+10	1	-1E+10	1	-1E+10	1	-1E+10	1	-1E+10	1	-1E+10	1
4901784	21	C	01/31/2016	10:51	-131.607	45.081	0	394.80	0	5.4210	0	33.9390	0	26.789	0	391.219	0	69.6	4	22.7	4	-1E+10	1	-1E+10	1	-1E+10	1	-1E+10	1	-1E+10	1	-1E+10	1
4901784	21	C	01/31/2016	10:51	-131.607	45.081	0	397.40	0	5.3790	0	33.9400	0	26.795	0	393.793	0	68.7	4	22.4	4	-1E+10	1	-1E+10	1	-1E+10	1	-1E+10	1	-1E+10	1	-1E+10	1
4901784	21	C	01/31/2016	10:51	-131.607	45.081	0	399.80	0	5.3680	0	33.9410	0	26.797	0	396.169	0	67.6	4	22.0	4	-1E+10	1	-1E+10	1	-1E+10	1	-1E+10	1	-1E+10	1	-1E+10	1
4901784	21	C	01/31/2016	10:51	-131.607	45.081	0	402.40	0	5.3410	0	33.9420	0	26.801	0	398.743	0	66.3	4	21.6	4	-1E+10	1	-1E+10	1	-1E+10	1	-1E+10	1	-1E+10	1	-1E+10	1
4901784	21	C	01/31/2016	10:51	-131.607	45.081	0	404.90	0	5.3250	0	33.9490	0	26.808	0	401.217	0	64.4	4	20.9	4	-1E+10	1	-1E+10	1	-1E+10	1	-1E+10	1	-1E+10	1	-1E+10	1
4901784	21	C	01/31/2016	10:51	-131.607	45.081	0	407.50	0	5.3110	0	33.9530	0	26.813	0	403.791	0	63.6	4	20.7	4	-1E+10	1	-1E+10	1	-1E+10	1	-1E+10	1	-1E+10	1	-1E+10	1
4901784	21	C	01/31/2016	10:51	-131.607	45.081	0	410.00	0	5.3030	0	33.9550	0	26.816	0	406.266	0	63.2	4	20.5	4	-1E+10	1	-1E+10	1	-1E+10	1	-1E+10	1	-1E+10	1	-1E+10	1
4901784	21	C	01/31/2016	10:51	-131.607	45.081	0	412.60	0	5.2790	0	33.9550	0	26.819	0	408.840	0	62.9	4	20.5	4	-1E+10	1	-1E+10	1	-1E+10	1	-1E+10	1	-1E+10	1	-1E+10	1
4901784	21	C	01/31/2016	10:51	-131.607	45.081	0	415.10	0	5.2730	0	33.9560	0	26.820	0	411.315	0	62.8	4	20.4	4	-1E+10	1	-1E+10	1	-1E+10	1	-1E+10	1	-1E+10	1	-1E+10	1
4901784	21	C	01/31/2016	10:51	-131.607	45.081	0	417.60	0	5.2440	0	33.9560	0	26.823	0	413.789	0	62.9	4	20.4	4	-1E+10	1	-1E+10	1	-1E+10	1	-1E+10	1	-1E+10	1	-1E+10	1
4901784	21	C	01/31/2016	10:51	-131.607	45.081	0	420.10	0	5.1980	0	33.9560	0	26.829	0	416.264	0	62.9	4	20.4	4	-1E+10	1	-1E+10	1	-1E+10	1	-1E+10	1	-1E+10	1	-1E+10	1
4901784	21	C	01/31/2016	10:51	-131.607	45.081	0	422.60	0	5.1820	0	33.9550	0	26.830	0	418.739	0	62.7	4	20.3	4	-1E+10	1	-1E+10	1	-1E+10	1	-1E+10	1	-1E+10	1	-1E+10	1
4901784	21	C	01/31/2016	10:51	-131.607	45.081	0	425.20	0	5.1640	0	33.9550	0	26.832	0	421.312	0	61.9	4	20.1	4	-1E+10	1	-1E+10	1	-1E+10	1	-1E+10	1	-1E+10	1	-1E+10	1
4901784	21	C	01/31/2016	10:51	-131.607	45.081	0	427.70	0	5.1720	0	33.9580	0	26.833	0	423.787	0	61.0	4	19.8	4	-1E+10	1	-1E+10	1	-1E+10	1	-1E+10	1	-1E+10	1	-1E+10	1
4901784	21	C	01/31/2016	10:51	-131.607	45.081	0	430.10	0	5.1550	0	33.9600	0	26.837	0	426.162	0	60.7	4	19.7	4	-1E+10	1	-1E+10	1	-1E+10	1	-1E+10	1	-1E+10	1	-1E+10	1
4901784	21	C	01/31/2016	10:51	-131.607	45.081	0	432.60	0	5.1520	0	33.9590	0	26.837	0	428.637	0	60.0	4	19.4	4	-1E+10	1	-1E+10	1	-1E+10	1	-1E+10	1	-1E+10	1	-1E+10	1
4901784	21	C	01/31/2016	10:51	-131.607	45.081	0	435.10	0	5.1420	0	33.9590	0	26.838	0	431.111	0	58.8	4	19.1	4	-1E+10	1	-1E+10	1	-1E+10	1	-1E+10	1	-1E+10	1	-1E+10	1
4901784	21	C	01/31/2016	10:51	-131.607	45.081	0	437.60	0	5.1300	0	33.9590	0	26.839	0	433.586	0	57.0	4	18.5	4	-1E+10	1	-1E+10	1	-1E+10	1	-1E+10	1	-1E+10	1	-1E+10	1
4901784	21	C	01/31/2016	10:51	-131.607	45.081	0	440.30	0	5.0950	0	33.9670	0	26.850	0	436.258	0	54.1	4	17.5	4	-1E+10	1	-1E+10	1	-1E+10	1	-1E+10	1	-1E+10	1	-1E+10	1
4901784	21	C	01/31/2016	10:51	-131.607	45.081	0	442.80	0	5.1630	0	33.9820	0	26.854	0	438.733	0	51.2	4	16.6	4	-1E+10	1	-1E+10	1	-1E+10	1	-1E+10	1	-1E+10	1	-1E+10	1
4901784	21	C	01/31/2016	10:51	-131.607	45.081	0	445.40	0	5.1650	0	33.9860	0	26.857	0	441.306	0	50.5	4	16.4	4	-1E+10	1	-1E+10	1	-1E+10	1	-1E+10	1	-1E+10	1	-1E+10	1
4901784	21	C	01/31/2016	10:51	-131.607	45.081	0	448.00	0	5.1620	0	33.9880	0	26.859	0	443.879	0	50.0	4	16.2	4	-1E+10	1	-1E+10	1	-1E+10	1	-1E+10	1	-1E+10	1	-1E+10	1
4901784	21	C	01/31/2016	10:51	-131.607	45.081	0	449.70	0	5.1590	0	33.9880	0	26.859	0	445.562	0	49.7	4	16.1	4	-1E+10	1	-1E+10	1	-1E+10	1	-1E+10	1	-1E+10	1	-1E+10	1
4901784	21	C	01/31/2016	10:51	-131.607	45.081	0	452.30	0	5.1420	0	33.9900	0	26.862	0	448.135	0	49.1	4	15.9	4	-1E+10	1	-1E+10	1	-1E+10	1	-1E+10	1	-1E+10	1	-1E+10	1
4901784	21	C	01/31/2016	10:51	-131.607	45.081	0	455.00	0	5.1140	0	33.9920	0	26.867	0	450.807	0	48.4	4	15.7	4	-1E+10	1	-1E+10	1	-1E+10	1	-1E+10	1	-1E+10	1	-1E+10	1
4901784	21	C	01/31/2016	10:51	-131.607	45.081	0	457.60	0	5.1050	0	33.9950	0	26.871	0	453.381	0	47.5	4	15.4	4	-1E+10	1	-1E+10	1	-1E+10	1	-1E+10	1	-1E+10	1	-1E+10	1
4901784	21	C	01/31/2016	10:51	-131.607	45.081	0	460.20	0	5.0990	0	33.9980	0	26.874	0	455.954	0	46.8	4	15.1	4	-1E+10	1	-1E+10	1	-1E+10	1	-1E+10	1	-1E+10	1	-1E+10	1
4901784	21	C	01/31/2016	10:51	-131.607	45.081	0	462.80	0	5.0930	0	34.0000	0	26.876	0	458.527	0	46.4	4	15.0	4	-1E+10	1	-1E+10	1	-1E+10	1	-1E+10	1	-1E+10	1	-1E+10	1
4901784	21	C	01/31/2016	10:51	-131.607	45.081	0	465.40	0	5.0700	0	34.0000	0	26.879	0	461.100	0	45.8	4	14.8	4	-1E+10	1	-1E+10	1	-1E+10	1	-1E+10	1	-1E+10	1	-1E+10	1
4901784	21	C	01/31/2016	10:51	-131.607	45.081	0	467.20	0	5.0630	0	34.0020	0	26.881	0	462.881	0	45.4	4	14.7	4	-1E+10	1	-1E+10	1	-1E+10	1	-1E+10	1	-1E+10	1	-1E+10	1
4901784	21	C	01/31/2016	10:51	-131.607	45.081	0	469.70	0	5.0540	0	34.0040	0	26.884	0	465.355	0	44.5	4	14.4	4	-1E+10	1	-1E+10	1	-1E+10	1	-1E+10	1	-1E+10	1	-1E+10	1
4901784	21	C	01/31/2016	10:51	-131.607	45.081	0	472.40	0	5.0550	0	34.0060	0	26.885	0	468.027	0	43.6	4	14.1	4	-1E+10	1	-1E+10	1	-1E+10	1	-1E+10	1	-1E+10	1	-1E+10	1
4901784	21	C	01/31/2016	10:51	-131.607	45.081	0	475.00	0	5.0490	0	34.0110	0	26.890	0	470.600	0	42.6	4	13.8	4	-1E+10	1	-1E+10	1	-1E+10	1	-1E+10	1	-1E+10	1	-1E+10	1
4901784	21	C	01/31/2016	10:51	-131.607	45.081	0	477.60	0	5.0290	0	34.0140	0	26.895	0	473.173	0	42.0	4	13.6	4	-1E+10	1	-1E+10	1	-1E+10	1	-1E+10	1	-1E+10	1	-1E+10	1
4901784	21	C	01/31/2016	10:51	-131.607	45.081	0	480.20	0	5.0000	0	34.0160	0	26.900	0	475.746	0	41.4	4	13.4	4	-1E+10	1	-1E+10	1	-1E+10	1	-1E+10	1	-1E+10	1	-1E+10	1
4901784	21	C	01/31/2016	10:51	-131.607	45.081	0	482.80	0	4.9900	0	34.0190	0	26.903	0	478.319	0	40.6	4	13.1	4	-1E+10	1	-1E+10	1	-1E+10	1	-1E+10	1	-1E+10	1	-1E+10	1
4901784	21	C	01/31/2016	10:51	-131.607	45.081	0	484.50	0	4.9880	0	34.0200	0	26.904	0	480.001	0	40.2	4	13.0	4	-1E+10	1	-1E+10	1	-1E+10	1	-1E+10	1	-1E+10	1	-1E+10	1
4901784	21	C	01/31/2016	10:51	-131.607	45.081	0	487.20	0	4.9840	0	34.0250	0	26.909	0	482.673	0	39.5	4	12.8	4	-1E+10	1	-1E+10	1	-1E+10	1	-1E+10	1	-1E+10	1	-1E+10	1
4901784	21	C	01/31/2016	10:51	-131.607	45.081	0	489.70	0	4.9750	0	34.0260	0	26.910	0	485.147	0	39.3	4	12.7	4	-1E+10	1	-1E+10	1	-1E+10	1	-1E+10	1	-1E+10	1	-1E+10	1
4901784	21	C	01/31/2016	10:51	-131.607	45.081	0	492.30	0	4.9560	0	34.0270	0	26.913	0	487.720	0	39.0	4	12.6	4	-1E+10	1	-1E+10	1	-1E+10	1	-1E+10	1	-1E+10	1	-1E+10	1
4901784	21	C	01/31/2016	10:51	-131.607	45.081	0	494.80	0	4.9520	0	34.0270	0	26.914	0	490.194	0	38.4	4	12.4	4	-1E+10	1	-1E+10	1	-1E+10	1	-1E+10	1	-1E+10	1	-1E+10	1
4901784	21	C	01/31/2016	10:51	-131.607	45.081	0	497.40	0	4.9410	0	34.0300	0	26.917	0	492.766	0	37.6	4	12.1	4	-1E+10	1	-1E+10	1	-1E+10	1	-1E+10	1	-1E+10	1	-1E+10	1
4901784	21	C	01/31/2016	10:51	-131.607	45.081	0	500.00	0	4.9170	0	34.0340	0	26.923	0	495.339	0	37.1	4	12.0	4	-1E+10	1	-1E+10	1	-1E+10	1	-1E+10	1	-1E+10	1	-1E+10	1
4901784	21	C	01/31/2016	10:51	-131.607	45.081	0	505.40	0	4.9060	0	34.0360	0	26.926	0	500.682	0	35.8	4	11.5	4	-1E+10	1	-1E+10	1	-1E+10	1	-1E+10	1	-1E+10	1	-1E+10	1
4901784	21	C	01/31/2016	10:51	-131.607	45.081	0	510.70	0	4.8820	0	34.0450	0	26.936	0	505.926	0	33.8	4	10.9	4	-1E+10	1	-1E+10	1	-1E+10	1	-1E+10	1	-1E+10	1	-1E+10	1
4901784	21	C	01/31/2016	10:51	-131.607	45.081	0	515.10	0	4.8730	0	34.0510	0	26.942	0	510.280	0	32.7	4	10.5	4	-1E+10	1	-1E+10	1	-1E+10	1	-1E+10	1	-1E+10	1	-1E+10	1
4901784	21	C	01/31/2016	10:51	-131.607	45.081	0	519.60	0	4.8690	0	34.0540	0	26.945	0	514.732	0	31.6	4	10.2	4	-1E+10	1	-1E+10	1	-1E+10	1	-1E+10	1	-1E+10	1	-1E+10	1
4901784	21	C	01/31/2016	10:51	-131.607	45.081	0	524.90	0	4.8350	0	34.0610	0	26.954	0	519.976	0	30.4	4	9.8	4	-1E+10	1	-1E+10	1	-1E+10	1	-1E+10	1	-1E+10	1	-1E+10	1
4901784	21	C	01/31/2016	10:51	-131.607	45.081	0	530.30	0	4.7990	0	34.0660	0	26.962	0	525.318	0	29.7	4	9.5	4	-1E+10	1	-1E+10	1	-1E+10	1	-1E+10	1	-1E+10	1	-1E+10	1
4901784	21	C	01/31/2016	10:51	-131.607	45.081	0	534.80	0	4.7660	0	34.0700	0	26.969	0	529.770	0	29.4	4	9.4	4	-1E+10	1	-1E+10	1	-1E+10	1	-1E+10	1	-1E+10	1	-1E+10	1
4901784	21	C	01/31/2016	10:51	-131.607	45.081	0	539.30	0	4.7370	0	34.0720	0	26.974	0	534.222	0	29.4	4	9.5	4	-1E+10	1	-1E+10	1	-1E+10	1	-1E+10	1	-1E+10	1	-1E+10	1
4901784	21	C	01/31/2016	10:51	-131.607	45.081	0	544.70	0	4.7040	0	34.0710	0	26.977	0	539.564	0	29.7	4	9.5	4	-1E+10	1	-1E+10	1	-1E+10	1	-1E+10	1	-1E+10	1	-1E+10	1
4901784	21	C	01/31/2016	10:51	-131.607	45.081	0	550.10	0	4.6620	0	34.0720	0	26.982	0	544.906	0	29.5	4	9.5	4	-1E+10	1	-1E+10	1	-1E+10	1	-1E+10	1	-1E+10	1	-1E+10	1
4901784	21	C	01/31/2016	10:51	-131.607	45.081	0	555.50	0	4.6220	0	34.0760	0	26.990	0	550.248	0	28.9	4	9.2	4	-1E+10	1	-1E+10	1	-1E+10	1	-1E+10	1	-1E+10	1	-1E+10	1
4901784	21	C	01/31/2016	10:51	-131.607	45.081	0	560.00	0	4.6250	0	34.0790	0	26.992	0	554.700	0	28.3	4	9.1	4	-1E+10	1	-1E+10	1	-1E+10	1	-1E+10	1	-1E+10	1	-1E+10	1
4901784	21	C	01/31/2016	10:51	-131.607	45.081	0	564.50	0	4.6140	0	34.0800	0	26.994	0	559.151	0	27.6	4	8.8	4	-1E+10	1	-1E+10	1	-1E+10	1	-1E+10	1	-1E+10	1	-1E+10	1
4901784	21	C	01/31/2016	10:51	-131.607	45.081	0	569.80	0	4.5920	0	34.0850	0	27.000	0	564.394	0	26.5	4	8.5	4	-1E+10	1	-1E+10	1	-1E+10	1	-1E+10	1	-1E+10	1	-1E+10	1
4901784	21	C	01/31/2016	10:51	-131.607	45.081	0	575.20	0	4.5740	0	34.0920	0	27.008	0	569.735	0	25.7	4	8.2	4	-1E+10	1	-1E+10	1	-1E+10	1	-1E+10	1	-1E+10	1	-1E+10	1
4901784	21	C	01/31/2016	10:51	-131.607	45.081	0	580.60	0	4.5420	0	34.0950	0	27.014	0	575.076	0	25.1	4	8.0	4	-1E+10	1	-1E+10	1	-1E+10	1	-1E+10	1	-1E+10	1	-1E+10	1
4901784	21	C	01/31/2016	10:51	-131.607	45.081	0	585.10	0	4.5190	0	34.0970	0	27.018	0	579.527	0	24.3	4	7.8	4	-1E+10	1	-1E+10	1	-1E+10	1	-1E+10	1	-1E+10	1	-1E+10	1
4901784	21	C	01/31/2016	10:51	-131.607	45.081	0	589.70	0	4.5290	0	34.1050	0	27.023	0	584.077	0	22.9	4	7.3	4	-1E+10	1	-1E+10	1	-1E+10	1	-1E+10	1	-1E+10	1	-1E+10	1
4901784	21	C	01/31/2016	10:51	-131.607	45.081	0	595.20	0	4.5430	0	34.1130	0	27.028	0	589.517	0	22.4	4	7.2	4	-1E+10	1	-1E+10	1	-1E+10	1	-1E+10	1	-1E+10	1	-1E+10	1
4901784	21	C	01/31/2016	10:51	-131.607	45.081	0	599.70	0	4.4920	0	34.1120	0	27.033	0	593.967	0	22.5	4	7.2	4	-1E+10	1	-1E+10	1	-1E+10	1	-1E+10	1	-1E+10	1	-1E+10	1
4901784	21	C	01/31/2016	10:51	-131.607	45.081	0	604.80	0	4.4730	0	34.1160	0	27.038	0	599.011	0	22.2	4	7.1	4	-1E+10	1	-1E+10	1	-1E+10	1	-1E+10	1	-1E+10	1	-1E+10	1
4901784	21	C	01/31/2016	10:51	-131.607	45.081	0	609.90	0	4.4480	0	34.1180	0	27.042	0	604.055	0	21.8	4	7.0	4	-1E+10	1	-1E+10	1	-1E+10	1	-1E+10	1	-1E+10	1	-1E+10	1
4901784	21	C	01/31/2016	10:51	-131.607	45.081	0	614.70	0	4.4350	0	34.1230	0	27.048	0	608.802	0	21.5	4	6.9	4	-1E+10	1	-1E+10	1	-1E+10	1	-1E+10	1	-1E+10	1	-1E+10	1
4901784	21	C	01/31/2016	10:51	-131.607	45.081	0	619.50	0	4.4050	0	34.1250	0	27.053	0	613.549	0	21.1	4	6.7	4	-1E+10	1	-1E+10	1	-1E+10	1	-1E+10	1	-1E+10	1	-1E+10	1
4901784	21	C	01/31/2016	10:51	-131.607	45.081	0	625.00	0	4.3870	0	34.1310	0	27.059	0	618.988	0	19.9	4	6.4	4	-1E+10	1	-1E+10	1	-1E+10	1	-1E+10	1	-1E+10	1	-1E+10	1
4901784	21	C	01/31/2016	10:51	-131.607	45.081	0	630.70	0	4.3860	0	34.1430	0	27.069	0	624.625	0	18.6	4	5.9	4	-1E+10	1	-1E+10	1	-1E+10	1	-1E+10	1	-1E+10	1	-1E+10	1
4901784	21	C	01/31/2016	10:51	-131.607	45.081	0	635.70	0	4.3750	0	34.1490	0	27.075	0	629.569	0	18.1	4	5.8	4	-1E+10	1	-1E+10	1	-1E+10	1	-1E+10	1	-1E+10	1	-1E+10	1
4901784	21	C	01/31/2016	10:51	-131.607	45.081	0	640.70	0	4.3430	0	34.1540	0	27.082	0	634.513	0	17.7	4	5.6	4	-1E+10	1	-1E+10	1	-1E+10	1	-1E+10	1	-1E+10	1	-1E+10	1
4901784	21	C	01/31/2016	10:51	-131.607	45.081	0	645.70	0	4.3130	0	34.1600	0	27.090	0	639.457	0	17.2	4	5.5	4	-1E+10	1	-1E+10	1	-1E+10	1	-1E+10	1	-1E+10	1	-1E+10	1
4901784	21	C	01/31/2016	10:51	-131.607	45.081	0	650.80	0	4.2890	0	34.1660	0	27.098	0	644.500	0	16.8	4	5.3	4	-1E+10	1	-1E+10	1	-1E+10	1	-1E+10	1	-1E+10	1	-1E+10	1
4901784	21	C	01/31/2016	10:51	-131.607	45.081	0	655.80	0	4.2730	0	34.1710	0	27.103	0	649.444	0	16.6	4	5.3	4	-1E+10	1	-1E+10	1	-1E+10	1	-1E+10	1	-1E+10	1	-1E+10	1
4901784	21	C	01/31/2016	10:51	-131.607	45.081	0	660.00	0	4.2480	0	34.1730	0	27.108	0	653.596	0	16.6	4	5.3	4	-1E+10	1	-1E+10	1	-1E+10	1	-1E+10	1	-1E+10	1	-1E+10	1
4901784	21	C	01/31/2016	10:51	-131.607	45.081	0	664.40	0	4.2210	0	34.1750	0	27.112	0	657.947	0	16.5	4	5.2	4	-1E+10	1	-1E+10	1	-1E+10	1	-1E+10	1	-1E+10	1	-1E+10	1
4901784	21	C	01/31/2016	10:51	-131.607	45.081	0	669.60	0	4.1980	0	34.1780	0	27.117	0	663.088	0	16.4	4	5.2	4	-1E+10	1	-1E+10	1	-1E+10	1	-1E+10	1	-1E+10	1	-1E+10	1
4901784	21	C	01/31/2016	10:51	-131.607	45.081	0	674.90	0	4.1930	0	34.1780	0	27.118	0	668.328	0	16.1	4	5.1	4	-1E+10	1	-1E+10	1	-1E+10	1	-1E+10	1	-1E+10	1	-1E+10	1
4901784	21	C	01/31/2016	10:51	-131.607	45.081	0	680.20	0	4.1690	0	34.1860	0	27.126	0	673.568	0	15.6	4	5.0	4	-1E+10	1	-1E+10	1	-1E+10	1	-1E+10	1	-1E+10	1	-1E+10	1
4901784	21	C	01/31/2016	10:51	-131.607	45.081	0	685.50	0	4.1630	0	34.1890	0	27.129	0	678.807	0	15.4	4	4.9	4	-1E+10	1	-1E+10	1	-1E+10	1	-1E+10	1	-1E+10	1	-1E+10	1
4901784	21	C	01/31/2016	10:51	-131.607	45.081	0	690.10	0	4.1520	0	34.1910	0	27.132	0	683.355	0	15.2	4	4.8	4	-1E+10	1	-1E+10	1	-1E+10	1	-1E+10	1	-1E+10	1	-1E+10	1
4901784	21	C	01/31/2016	10:51	-131.607	45.081	0	694.70	0	4.1250	0	34.1950	0	27.138	0	687.902	0	15.0	4	4.7	4	-1E+10	1	-1E+10	1	-1E+10	1	-1E+10	1	-1E+10	1	-1E+10	1
4901784	21	C	01/31/2016	10:51	-131.607	45.081	0	700.40	0	4.1060	0	34.2010	0	27.145	0	693.537	0	14.8	4	4.7	4	-1E+10	1	-1E+10	1	-1E+10	1	-1E+10	1	-1E+10	1	-1E+10	1
4901784	21	C	01/31/2016	10:51	-131.607	45.081	0	705.30	0	4.1060	0	34.2030	0	27.147	0	698.381	0	14.5	4	4.6	4	-1E+10	1	-1E+10	1	-1E+10	1	-1E+10	1	-1E+10	1	-1E+10	1
4901784	21	C	01/31/2016	10:51	-131.607	45.081	0	710.10	0	4.0890	0	34.2070	0	27.152	0	703.126	0	14.5	4	4.6	4	-1E+10	1	-1E+10	1	-1E+10	1	-1E+10	1	-1E+10	1	-1E+10	1
4901784	21	C	01/31/2016	10:51	-131.607	45.081	0	715.40	0	4.0680	0	34.2100	0	27.156	0	708.365	0	14.4	4	4.5	4	-1E+10	1	-1E+10	1	-1E+10	1	-1E+10	1	-1E+10	1	-1E+10	1
4901784	21	C	01/31/2016	10:51	-131.607	45.081	0	720.20	0	4.0640	0	34.2110	0	27.157	0	713.109	0	14.2	4	4.5	4	-1E+10	1	-1E+10	1	-1E+10	1	-1E+10	1	-1E+10	1	-1E+10	1
4901784	21	C	01/31/2016	10:51	-131.607	45.081	0	725.10	0	4.0490	0	34.2150	0	27.162	0	717.953	0	14.0	4	4.4	4	-1E+10	1	-1E+10	1	-1E+10	1	-1E+10	1	-1E+10	1	-1E+10	1
4901784	21	C	01/31/2016	10:51	-131.607	45.081	0	730.10	0	4.0450	0	34.2170	0	27.164	0	722.895	0	13.9	4	4.4	4	-1E+10	1	-1E+10	1	-1E+10	1	-1E+10	1	-1E+10	1	-1E+10	1
4901784	21	C	01/31/2016	10:51	-131.607	45.081	0	735.10	0	4.0280	0	34.2190	0	27.168	0	727.837	0	13.8	4	4.3	4	-1E+10	1	-1E+10	1	-1E+10	1	-1E+10	1	-1E+10	1	-1E+10	1
4901784	21	C	01/31/2016	10:51	-131.607	45.081	0	740.10	0	4.0130	0	34.2240	0	27.173	0	732.778	0	13.6	4	4.3	4	-1E+10	1	-1E+10	1	-1E+10	1	-1E+10	1	-1E+10	1	-1E+10	1
4901784	21	C	01/31/2016	10:51	-131.607	45.081	0	745.20	0	4.0010	0	34.2270	0	27.177	0	737.819	0	13.6	4	4.3	4	-1E+10	1	-1E+10	1	-1E+10	1	-1E+10	1	-1E+10	1	-1E+10	1
4901784	21	C	01/31/2016	10:51	-131.607	45.081	0	750.40	0	3.9770	0	34.2290	0	27.181	0	742.958	0	13.6	4	4.3	4	-1E+10	1	-1E+10	1	-1E+10	1	-1E+10	1	-1E+10	1	-1E+10	1
4901784	21	C	01/31/2016	10:51	-131.607	45.081	0	755.50	0	3.9630	0	34.2320	0	27.185	0	747.999	0	13.5	4	4.3	4	-1E+10	1	-1E+10	1	-1E+10	1	-1E+10	1	-1E+10	1	-1E+10	1
4901784	21	C	01/31/2016	10:51	-131.607	45.081	0	759.90	0	3.9590	0	34.2330	0	27.186	0	752.347	0	13.4	4	4.2	4	-1E+10	1	-1E+10	1	-1E+10	1	-1E+10	1	-1E+10	1	-1E+10	1
4901784	21	C	01/31/2016	10:51	-131.607	45.081	0	764.30	0	3.9470	0	34.2370	0	27.190	0	756.695	0	13.2	4	4.2	4	-1E+10	1	-1E+10	1	-1E+10	1	-1E+10	1	-1E+10	1	-1E+10	1
4901784	21	C	01/31/2016	10:51	-131.607	45.081	0	769.60	0	3.9330	0	34.2420	0	27.196	0	761.933	0	13.0	4	4.1	4	-1E+10	1	-1E+10	1	-1E+10	1	-1E+10	1	-1E+10	1	-1E+10	1
4901784	21	C	01/31/2016	10:51	-131.607	45.081	0	775.00	0	3.9250	0	34.2450	0	27.199	0	767.269	0	12.9	4	4.1	4	-1E+10	1	-1E+10	1	-1E+10	1	-1E+10	1	-1E+10	1	-1E+10	1
4901784	21	C	01/31/2016	10:51	-131.607	45.081	0	780.30	0	3.9040	0	34.2470	0	27.203	0	772.506	0	12.9	4	4.1	4	-1E+10	1	-1E+10	1	-1E+10	1	-1E+10	1	-1E+10	1	-1E+10	1
4901784	21	C	01/31/2016	10:51	-131.607	45.081	0	785.70	0	3.8820	0	34.2500	0	27.207	0	777.842	0	12.8	4	4.0	4	-1E+10	1	-1E+10	1	-1E+10	1	-1E+10	1	-1E+10	1	-1E+10	1
4901784	21	C	01/31/2016	10:51	-131.607	45.081	0	790.10	0	3.8780	0	34.2510	0	27.209	0	782.190	0	12.7	4	4.0	4	-1E+10	1	-1E+10	1	-1E+10	1	-1E+10	1	-1E+10	1	-1E+10	1
4901784	21	C	01/31/2016	10:51	-131.607	45.081	0	794.50	0	3.8690	0	34.2530	0	27.211	0	786.538	0	12.5	4	3.9	4	-1E+10	1	-1E+10	1	-1E+10	1	-1E+10	1	-1E+10	1	-1E+10	1
4901784	21	C	01/31/2016	10:51	-131.607	45.081	0	799.90	0	3.8580	0	34.2600	0	27.218	0	791.874	0	12.4	4	3.9	4	-1E+10	1	-1E+10	1	-1E+10	1	-1E+10	1	-1E+10	1	-1E+10	1
4901784	21	C	01/31/2016	10:51	-131.607	45.081	0	805.30	0	3.8310	0	34.2610	0	27.221	0	797.209	0	12.5	4	3.9	4	-1E+10	1	-1E+10	1	-1E+10	1	-1E+10	1	-1E+10	1	-1E+10	1
4901784	21	C	01/31/2016	10:51	-131.607	45.081	0	809.80	0	3.8090	0	34.2620	0	27.224	0	801.655	0	12.5	4	3.9	4	-1E+10	1	-1E+10	1	-1E+10	1	-1E+10	1	-1E+10	1	-1E+10	1
4901784	21	C	01/31/2016	10:51	-131.607	45.081	0	814.40	0	3.7900	0	34.2650	0	27.229	0	806.200	0	12.4	4	3.9	4	-1E+10	1	-1E+10	1	-1E+10	1	-1E+10	1	-1E+10	1	-1E+10	1
4901784	21	C	01/31/2016	10:51	-131.607	45.081	0	819.90	0	3.7820	0	34.2670	0	27.231	0	811.634	0	12.4	4	3.9	4	-1E+10	1	-1E+10	1	-1E+10	1	-1E+10	1	-1E+10	1	-1E+10	1
4901784	21	C	01/31/2016	10:51	-131.607	45.081	0	825.40	0	3.7720	0	34.2690	0	27.234	0	817.068	0	12.4	4	3.9	4	-1E+10	1	-1E+10	1	-1E+10	1	-1E+10	1	-1E+10	1	-1E+10	1
4901784	21	C	01/31/2016	10:51	-131.607	45.081	0	830.00	0	3.7620	0	34.2700	0	27.236	0	821.612	0	12.3	4	3.9	4	-1E+10	1	-1E+10	1	-1E+10	1	-1E+10	1	-1E+10	1	-1E+10	1
4901784	21	C	01/31/2016	10:51	-131.607	45.081	0	834.60	0	3.7490	0	34.2720	0	27.239	0	826.157	0	12.3	4	3.9	4	-1E+10	1	-1E+10	1	-1E+10	1	-1E+10	1	-1E+10	1	-1E+10	1
4901784	21	C	01/31/2016	10:51	-131.607	45.081	0	840.10	0	3.7300	0	34.2750	0	27.243	0	831.590	0	12.2	4	3.8	4	-1E+10	1	-1E+10	1	-1E+10	1	-1E+10	1	-1E+10	1	-1E+10	1
4901784	21	C	01/31/2016	10:51	-131.607	45.081	0	845.60	0	3.7130	0	34.2770	0	27.246	0	837.023	0	12.2	4	3.8	4	-1E+10	1	-1E+10	1	-1E+10	1	-1E+10	1	-1E+10	1	-1E+10	1
4901784	21	C	01/31/2016	10:51	-131.607	45.081	0	850.20	0	3.6830	0	34.2810	0	27.252	0	841.568	0	12.2	4	3.8	4	-1E+10	1	-1E+10	1	-1E+10	1	-1E+10	1	-1E+10	1	-1E+10	1
4901784	21	C	01/31/2016	10:51	-131.607	45.081	0	854.80	0	3.6700	0	34.2830	0	27.255	0	846.111	0	12.1	4	3.8	4	-1E+10	1	-1E+10	1	-1E+10	1	-1E+10	1	-1E+10	1	-1E+10	1
4901784	21	C	01/31/2016	10:51	-131.607	45.081	0	860.20	0	3.6630	0	34.2890	0	27.261	0	851.446	0	12.0	4	3.8	4	-1E+10	1	-1E+10	1	-1E+10	1	-1E+10	1	-1E+10	1	-1E+10	1
4901784	21	C	01/31/2016	10:51	-131.607	45.081	0	864.80	0	3.6570	0	34.2920	0	27.264	0	855.989	0	12.0	4	3.8	4	-1E+10	1	-1E+10	1	-1E+10	1	-1E+10	1	-1E+10	1	-1E+10	1
4901784	21	C	01/31/2016	10:51	-131.607	45.081	0	869.30	0	3.6530	0	34.2920	0	27.264	0	860.434	0	12.0	4	3.8	4	-1E+10	1	-1E+10	1	-1E+10	1	-1E+10	1	-1E+10	1	-1E+10	1
4901784	21	C	01/31/2016	10:51	-131.607	45.081	0	874.90	0	3.6430	0	34.2930	0	27.266	0	865.966	0	12.0	4	3.8	4	-1E+10	1	-1E+10	1	-1E+10	1	-1E+10	1	-1E+10	1	-1E+10	1
4901784	21	C	01/31/2016	10:51	-131.607	45.081	0	880.40	0	3.6210	0	34.2940	0	27.269	0	871.398	0	12.0	4	3.8	4	-1E+10	1	-1E+10	1	-1E+10	1	-1E+10	1	-1E+10	1	-1E+10	1
4901784	21	C	01/31/2016	10:51	-131.607	45.081	0	884.90	0	3.6050	0	34.2960	0	27.272	0	875.843	0	12.0	4	3.7	4	-1E+10	1	-1E+10	1	-1E+10	1	-1E+10	1	-1E+10	1	-1E+10	1
4901784	21	C	01/31/2016	10:51	-131.607	45.081	0	889.50	0	3.5890	0	34.3010	0	27.278	0	880.386	0	11.9	4	3.7	4	-1E+10	1	-1E+10	1	-1E+10	1	-1E+10	1	-1E+10	1	-1E+10	1
4901784	21	C	01/31/2016	10:51	-131.607	45.081	0	895.00	0	3.5810	0	34.3060	0	27.283	0	885.818	0	11.8	4	3.7	4	-1E+10	1	-1E+10	1	-1E+10	1	-1E+10	1	-1E+10	1	-1E+10	1
4901784	21	C	01/31/2016	10:51	-131.607	45.081	0	900.50	0	3.5730	0	34.3080	0	27.285	0	891.250	0	11.8	4	3.7	4	-1E+10	1	-1E+10	1	-1E+10	1	-1E+10	1	-1E+10	1	-1E+10	1
4901784	21	C	01/31/2016	10:51	-131.607	45.081	0	905.00	0	3.5640	0	34.3100	0	27.287	0	895.694	0	11.8	4	3.7	4	-1E+10	1	-1E+10	1	-1E+10	1	-1E+10	1	-1E+10	1	-1E+10	1
4901784	21	C	01/31/2016	10:51	-131.607	45.081	0	909.60	0	3.5480	0	34.3120	0	27.291	0	900.237	0	11.8	4	3.7	4	-1E+10	1	-1E+10	1	-1E+10	1	-1E+10	1	-1E+10	1	-1E+10	1
4901784	21	C	01/31/2016	10:51	-131.607	45.081	0	915.10	0	3.5360	0	34.3150	0	27.294	0	905.668	0	11.7	4	3.7	4	-1E+10	1	-1E+10	1	-1E+10	1	-1E+10	1	-1E+10	1	-1E+10	1
4901784	21	C	01/31/2016	10:51	-131.607	45.081	0	920.60	0	3.5190	0	34.3180	0	27.298	0	911.099	0	11.8	4	3.7	4	-1E+10	1	-1E+10	1	-1E+10	1	-1E+10	1	-1E+10	1	-1E+10	1
4901784	21	C	01/31/2016	10:51	-131.607	45.081	0	925.10	0	3.4860	0	34.3190	0	27.302	0	915.543	0	11.8	4	3.7	4	-1E+10	1	-1E+10	1	-1E+10	1	-1E+10	1	-1E+10	1	-1E+10	1
4901784	21	C	01/31/2016	10:51	-131.607	45.081	0	929.70	0	3.4860	0	34.3210	0	27.304	0	920.086	0	11.8	4	3.7	4	-1E+10	1	-1E+10	1	-1E+10	1	-1E+10	1	-1E+10	1	-1E+10	1
4901784	21	C	01/31/2016	10:51	-131.607	45.081	0	935.30	0	3.4800	0	34.3230	0	27.306	0	925.615	0	11.8	4	3.7	4	-1E+10	1	-1E+10	1	-1E+10	1	-1E+10	1	-1E+10	1	-1E+10	1
4901784	21	C	01/31/2016	10:51	-131.607	45.081	0	940.60	0	3.4540	0	34.3250	0	27.310	0	930.849	0	11.8	4	3.7	4	-1E+10	1	-1E+10	1	-1E+10	1	-1E+10	1	-1E+10	1	-1E+10	1
4901784	21	C	01/31/2016	10:51	-131.607	45.081	0	945.40	0	3.4360	0	34.3270	0	27.314	0	935.588	0	11.8	4	3.7	4	-1E+10	1	-1E+10	1	-1E+10	1	-1E+10	1	-1E+10	1	-1E+10	1
4901784	21	C	01/31/2016	10:51	-131.607	45.081	0	950.30	0	3.4370	0	34.3300	0	27.316	0	940.426	0	11.7	4	3.7	4	-1E+10	1	-1E+10	1	-1E+10	1	-1E+10	1	-1E+10	1	-1E+10	1
4901784	21	C	01/31/2016	10:51	-131.607	45.081	0	955.10	0	3.4370	0	34.3370	0	27.321	0	945.166	0	11.7	4	3.6	4	-1E+10	1	-1E+10	1	-1E+10	1	-1E+10	1	-1E+10	1	-1E+10	1
4901784	21	C	01/31/2016	10:51	-131.607	45.081	0	960.10	0	3.4400	0	34.3420	0	27.325	0	950.102	0	11.7	4	3.6	4	-1E+10	1	-1E+10	1	-1E+10	1	-1E+10	1	-1E+10	1	-1E+10	1
4901784	21	C	01/31/2016	10:51	-131.607	45.081	0	965.00	0	3.4370	0	34.3460	0	27.329	0	954.940	0	11.7	4	3.6	4	-1E+10	1	-1E+10	1	-1E+10	1	-1E+10	1	-1E+10	1	-1E+10	1
4901784	21	C	01/31/2016	10:51	-131.607	45.081	0	970.00	0	3.4320	0	34.3490	0	27.332	0	959.876	0	11.7	4	3.6	4	-1E+10	1	-1E+10	1	-1E+10	1	-1E+10	1	-1E+10	1	-1E+10	1
4901784	21	C	01/31/2016	10:51	-131.607	45.081	0	975.10	0	3.4180	0	34.3530	0	27.336	0	964.911	0	11.7	4	3.6	4	-1E+10	1	-1E+10	1	-1E+10	1	-1E+10	1	-1E+10	1	-1E+10	1
4901784	21	C	01/31/2016	10:51	-131.607	45.081	0	980.10	0	3.4070	0	34.3550	0	27.339	0	969.848	0	11.7	4	3.7	4	-1E+10	1	-1E+10	1	-1E+10	1	-1E+10	1	-1E+10	1	-1E+10	1
4901784	21	C	01/31/2016	10:51	-131.607	45.081	0	985.10	0	3.3850	0	34.3560	0	27.342	0	974.784	0	11.8	4	3.7	4	-1E+10	1	-1E+10	1	-1E+10	1	-1E+10	1	-1E+10	1	-1E+10	1
4901784	21	C	01/31/2016	10:51	-131.607	45.081	0	990.10	0	3.3680	0	34.3580	0	27.345	0	979.720	0	11.9	4	3.7	4	-1E+10	1	-1E+10	1	-1E+10	1	-1E+10	1	-1E+10	1	-1E+10	1
4901784	21	C	01/31/2016	10:51	-131.607	45.081	0	995.30	0	3.3590	0	34.3600	0	27.347	0	984.853	0	11.9	4	3.7	4	-1E+10	1	-1E+10	1	-1E+10	1	-1E+10	1	-1E+10	1	-1E+10	1
4901784	21	C	01/31/2016	10:51	-131.607	45.081	0	1000.40	0	3.3490	0	34.3630	0	27.351	0	989.887	0	11.9	4	3.7	4	-1E+10	1	-1E+10	1	-1E+10	1	-1E+10	1	-1E+10	1	-1E+10	1
4901784	21	C	01/31/2016	10:51	-131.607	45.081	0	1005.60	0	3.3360	0	34.3640	0	27.353	0	995.020	0	12.0	4	3.7	4	-1E+10	1	-1E+10	1	-1E+10	1	-1E+10	1	-1E+10	1	-1E+10	1
4901784	21	C	01/31/2016	10:51	-131.607	45.081	0	1009.90	0	3.3290	0	34.3640	0	27.354	0	999.265	0	12.0	4	3.7	4	-1E+10	1	-1E+10	1	-1E+10	1	-1E+10	1	-1E+10	1	-1E+10	1
4901784	21	C	01/31/2016	10:51	-131.607	45.081	0	1014.30	0	3.3220	0	34.3660	0	27.356	0	1003.608	0	12.1	4	3.7	4	-1E+10	1	-1E+10	1	-1E+10	1	-1E+10	1	-1E+10	1	-1E+10	1
4901784	21	C	01/31/2016	10:51	-131.607	45.081	0	1019.60	0	3.3090	0	34.3690	0	27.359	0	1008.839	0	12.1	4	3.8	4	-1E+10	1	-1E+10	1	-1E+10	1	-1E+10	1	-1E+10	1	-1E+10	1
4901784	21	C	01/31/2016	10:51	-131.607	45.081	0	1024.90	0	3.3030	0	34.3710	0	27.362	0	1014.071	0	12.2	4	3.8	4	-1E+10	1	-1E+10	1	-1E+10	1	-1E+10	1	-1E+10	1	-1E+10	1
4901784	21	C	01/31/2016	10:51	-131.607	45.081	0	1030.20	0	3.2960	0	34.3740	0	27.365	0	1019.302	0	12.3	4	3.8	4	-1E+10	1	-1E+10	1	-1E+10	1	-1E+10	1	-1E+10	1	-1E+10	1
4901784	21	C	01/31/2016	10:51	-131.607	45.081	0	1035.60	0	3.2920	0	34.3760	0	27.367	0	1024.631	0	12.3	4	3.8	4	-1E+10	1	-1E+10	1	-1E+10	1	-1E+10	1	-1E+10	1	-1E+10	1
4901784	21	C	01/31/2016	10:51	-131.607	45.081	0	1040.20	0	3.2910	0	34.3760	0	27.367	0	1029.171	0	12.4	4	3.9	4	-1E+10	1	-1E+10	1	-1E+10	1	-1E+10	1	-1E+10	1	-1E+10	1
4901784	21	C	01/31/2016	10:51	-131.607	45.081	0	1044.70	0	3.2900	0	34.3790	0	27.369	0	1033.613	0	12.5	4	3.9	4	-1E+10	1	-1E+10	1	-1E+10	1	-1E+10	1	-1E+10	1	-1E+10	1
4901784	21	C	01/31/2016	10:51	-131.607	45.081	0	1050.10	0	3.2890	0	34.3820	0	27.372	0	1038.942	0	12.5	4	3.9	4	-1E+10	1	-1E+10	1	-1E+10	1	-1E+10	1	-1E+10	1	-1E+10	1
4901784	21	C	01/31/2016	10:51	-131.607	45.081	0	1055.60	0	3.2810	0	34.3820	0	27.373	0	1044.370	0	12.6	4	3.9	4	-1E+10	1	-1E+10	1	-1E+10	1	-1E+10	1	-1E+10	1	-1E+10	1
4901784	21	C	01/31/2016	10:51	-131.607	45.081	0	1060.10	0	3.2740	0	34.3840	0	27.375	0	1048.811	0	12.6	4	3.9	4	-1E+10	1	-1E+10	1	-1E+10	1	-1E+10	1	-1E+10	1	-1E+10	1
4901784	21	C	01/31/2016	10:51	-131.607	45.081	0	1064.70	0	3.2700	0	34.3850	0	27.376	0	1053.350	0	12.7	4	3.9	4	-1E+10	1	-1E+10	1	-1E+10	1	-1E+10	1	-1E+10	1	-1E+10	1
4901784	21	C	01/31/2016	10:51	-131.607	45.081	0	1070.20	0	3.2620	0	34.3870	0	27.379	0	1058.778	0	12.8	4	4.0	4	-1E+10	1	-1E+10	1	-1E+10	1	-1E+10	1	-1E+10	1	-1E+10	1
4901784	21	C	01/31/2016	10:51	-131.607	45.081	0	1075.60	0	3.2510	0	34.3880	0	27.380	0	1064.106	0	12.9	4	4.0	4	-1E+10	1	-1E+10	1	-1E+10	1	-1E+10	1	-1E+10	1	-1E+10	1
4901784	21	C	01/31/2016	10:51	-131.607	45.081	0	1080.30	0	3.2400	0	34.3900	0	27.383	0	1068.744	0	12.9	4	4.0	4	-1E+10	1	-1E+10	1	-1E+10	1	-1E+10	1	-1E+10	1	-1E+10	1
4901784	21	C	01/31/2016	10:51	-131.607	45.081	0	1085.10	0	3.2340	0	34.3910	0	27.384	0	1073.481	0	12.9	4	4.0	4	-1E+10	1	-1E+10	1	-1E+10	1	-1E+10	1	-1E+10	1	-1E+10	1
4901784	21	C	01/31/2016	10:51	-131.607	45.081	0	1089.90	0	3.2260	0	34.3900	0	27.384	0	1078.217	0	13.0	4	4.0	4	-1E+10	1	-1E+10	1	-1E+10	1	-1E+10	1	-1E+10	1	-1E+10	1
4901784	21	C	01/31/2016	10:51	-131.607	45.081	0	1094.70	0	3.2160	0	34.3920	0	27.387	0	1082.953	0	13.1	4	4.0	4	-1E+10	1	-1E+10	1	-1E+10	1	-1E+10	1	-1E+10	1	-1E+10	1
4901784	21	C	01/31/2016	10:51	-131.607	45.081	0	1099.60	0	3.2110	0	34.3940	0	27.389	0	1087.788	0	13.1	4	4.1	4	-1E+10	1	-1E+10	1	-1E+10	1	-1E+10	1	-1E+10	1	-1E+10	1
4901784	21	C	01/31/2016	10:51	-131.607	45.081	0	1104.60	0	3.2020	0	34.3950	0	27.391	0	1092.721	0	13.2	4	4.1	4	-1E+10	1	-1E+10	1	-1E+10	1	-1E+10	1	-1E+10	1	-1E+10	1
4901784	21	C	01/31/2016	10:51	-131.607	45.081	0	1109.60	0	3.1930	0	34.3970	0	27.393	0	1097.654	0	13.3	4	4.1	4	-1E+10	1	-1E+10	1	-1E+10	1	-1E+10	1	-1E+10	1	-1E+10	1
4901784	21	C	01/31/2016	10:51	-131.607	45.081	0	1114.70	0	3.1860	0	34.3980	0	27.395	0	1102.686	0	13.3	4	4.1	4	-1E+10	1	-1E+10	1	-1E+10	1	-1E+10	1	-1E+10	1	-1E+10	1
4901784	21	C	01/31/2016	10:51	-131.607	45.081	0	1119.70	0	3.1790	0	34.3990	0	27.396	0	1107.619	0	13.4	4	4.2	4	-1E+10	1	-1E+10	1	-1E+10	1	-1E+10	1	-1E+10	1	-1E+10	1
4901784	21	C	01/31/2016	10:51	-131.607	45.081	0	1124.80	0	3.1700	0	34.4000	0	27.398	0	1112.650	0	13.5	4	4.2	4	-1E+10	1	-1E+10	1	-1E+10	1	-1E+10	1	-1E+10	1	-1E+10	1
4901784	21	C	01/31/2016	10:51	-131.607	45.081	0	1129.80	0	3.1480	0	34.4030	0	27.402	0	1117.583	0	13.6	4	4.2	4	-1E+10	1	-1E+10	1	-1E+10	1	-1E+10	1	-1E+10	1	-1E+10	1
4901784	21	C	01/31/2016	10:51	-131.607	45.081	0	1135.00	0	3.1410	0	34.4040	0	27.404	0	1122.713	0	13.7	4	4.2	4	-1E+10	1	-1E+10	1	-1E+10	1	-1E+10	1	-1E+10	1	-1E+10	1
4901784	21	C	01/31/2016	10:51	-131.607	45.081	0	1140.30	0	3.1280	0	34.4050	0	27.406	0	1127.941	0	13.7	4	4.2	4	-1E+10	1	-1E+10	1	-1E+10	1	-1E+10	1	-1E+10	1	-1E+10	1
4901784	21	C	01/31/2016	10:51	-131.607	45.081	0	1145.50	0	3.1100	0	34.4050	0	27.407	0	1133.071	0	13.7	4	4.2	4	-1E+10	1	-1E+10	1	-1E+10	1	-1E+10	1	-1E+10	1	-1E+10	1
4901784	21	C	01/31/2016	10:51	-131.607	45.081	0	1149.90	0	3.0880	0	34.4070	0	27.411	0	1137.411	0	13.8	4	4.3	4	-1E+10	1	-1E+10	1	-1E+10	1	-1E+10	1	-1E+10	1	-1E+10	1
4901784	21	C	01/31/2016	10:51	-131.607	45.081	0	1154.30	0	3.0710	0	34.4090	0	27.414	0	1141.752	0	13.9	4	4.3	4	-1E+10	1	-1E+10	1	-1E+10	1	-1E+10	1	-1E+10	1	-1E+10	1
4901784	21	C	01/31/2016	10:51	-131.607	45.081	0	1159.60	0	3.0630	0	34.4100	0	27.416	0	1146.979	0	14.0	4	4.3	4	-1E+10	1	-1E+10	1	-1E+10	1	-1E+10	1	-1E+10	1	-1E+10	1
4901784	21	C	01/31/2016	10:51	-131.607	45.081	0	1164.90	0	3.0580	0	34.4110	0	27.417	0	1152.207	0	14.1	4	4.4	4	-1E+10	1	-1E+10	1	-1E+10	1	-1E+10	1	-1E+10	1	-1E+10	1
4901784	21	C	01/31/2016	10:51	-131.607	45.081	0	1170.30	0	3.0440	0	34.4130	0	27.420	0	1157.534	0	14.3	4	4.4	4	-1E+10	1	-1E+10	1	-1E+10	1	-1E+10	1	-1E+10	1	-1E+10	1
4901784	21	C	01/31/2016	10:51	-131.607	45.081	0	1174.80	0	3.0340	0	34.4140	0	27.422	0	1161.972	0	14.4	4	4.4	4	-1E+10	1	-1E+10	1	-1E+10	1	-1E+10	1	-1E+10	1	-1E+10	1
4901784	21	C	01/31/2016	10:51	-131.607	45.081	0	1179.30	0	3.0280	0	34.4160	0	27.424	0	1166.410	0	14.5	4	4.5	4	-1E+10	1	-1E+10	1	-1E+10	1	-1E+10	1	-1E+10	1	-1E+10	1
4901784	21	C	01/31/2016	10:51	-131.607	45.081	0	1184.80	0	3.0210	0	34.4180	0	27.426	0	1171.835	0	14.7	4	4.5	4	-1E+10	1	-1E+10	1	-1E+10	1	-1E+10	1	-1E+10	1	-1E+10	1
4901784	21	C	01/31/2016	10:51	-131.607	45.081	0	1190.30	0	3.0090	0	34.4200	0	27.429	0	1177.259	0	14.9	4	4.6	4	-1E+10	1	-1E+10	1	-1E+10	1	-1E+10	1	-1E+10	1	-1E+10	1
4901784	21	C	01/31/2016	10:51	-131.607	45.081	0	1194.90	0	2.9940	0	34.4220	0	27.432	0	1181.796	0	15.0	4	4.6	4	-1E+10	1	-1E+10	1	-1E+10	1	-1E+10	1	-1E+10	1	-1E+10	1
4901784	21	C	01/31/2016	10:51	-131.607	45.081	0	1199.50	0	2.9870	0	34.4230	0	27.433	0	1186.333	0	15.1	4	4.7	4	-1E+10	1	-1E+10	1	-1E+10	1	-1E+10	1	-1E+10	1	-1E+10	1
4901784	21	C	01/31/2016	10:51	-131.607	45.081	0	1205.10	0	2.9780	0	34.4250	0	27.436	0	1191.855	0	15.3	4	4.7	4	-1E+10	1	-1E+10	1	-1E+10	1	-1E+10	1	-1E+10	1	-1E+10	1
4901784	21	C	01/31/2016	10:51	-131.607	45.081	0	1209.90	0	2.9710	0	34.4250	0	27.436	0	1196.589	0	15.4	4	4.8	4	-1E+10	1	-1E+10	1	-1E+10	1	-1E+10	1	-1E+10	1	-1E+10	1
4901784	21	C	01/31/2016	10:51	-131.607	45.081	0	1214.70	0	2.9500	0	34.4290	0	27.441	0	1201.322	0	15.5	4	4.8	4	-1E+10	1	-1E+10	1	-1E+10	1	-1E+10	1	-1E+10	1	-1E+10	1
4901784	21	C	01/31/2016	10:51	-131.607	45.081	0	1220.50	0	2.9430	0	34.4300	0	27.443	0	1207.042	0	15.6	4	4.8	4	-1E+10	1	-1E+10	1	-1E+10	1	-1E+10	1	-1E+10	1	-1E+10	1
4901784	21	C	01/31/2016	10:51	-131.607	45.081	0	1225.90	0	2.9370	0	34.4300	0	27.443	0	1212.367	0	15.7	4	4.9	4	-1E+10	1	-1E+10	1	-1E+10	1	-1E+10	1	-1E+10	1	-1E+10	1
4901784	21	C	01/31/2016	10:51	-131.607	45.081	0	1230.20	0	2.9290	0	34.4320	0	27.446	0	1216.607	0	15.8	4	4.9	4	-1E+10	1	-1E+10	1	-1E+10	1	-1E+10	1	-1E+10	1	-1E+10	1
4901784	21	C	01/31/2016	10:51	-131.607	45.081	0	1235.10	0	2.9200	0	34.4330	0	27.447	0	1221.439	0	15.9	4	4.9	4	-1E+10	1	-1E+10	1	-1E+10	1	-1E+10	1	-1E+10	1	-1E+10	1
4901784	21	C	01/31/2016	10:51	-131.607	45.081	0	1240.10	0	2.9120	0	34.4330	0	27.448	0	1226.369	0	16.0	4	4.9	4	-1E+10	1	-1E+10	1	-1E+10	1	-1E+10	1	-1E+10	1	-1E+10	1
4901784	21	C	01/31/2016	10:51	-131.607	45.081	0	1245.20	0	2.9000	0	34.4350	0	27.451	0	1231.397	0	16.2	4	5.0	4	-1E+10	1	-1E+10	1	-1E+10	1	-1E+10	1	-1E+10	1	-1E+10	1
4901784	21	C	01/31/2016	10:51	-131.607	45.081	0	1250.30	0	2.8900	0	34.4360	0	27.453	0	1236.426	0	16.3	4	5.0	4	-1E+10	1	-1E+10	1	-1E+10	1	-1E+10	1	-1E+10	1	-1E+10	1
4901784	21	C	01/31/2016	10:51	-131.607	45.081	0	1255.40	0	2.8800	0	34.4370	0	27.454	0	1241.454	0	16.4	4	5.1	4	-1E+10	1	-1E+10	1	-1E+10	1	-1E+10	1	-1E+10	1	-1E+10	1
4901784	21	C	01/31/2016	10:51	-131.607	45.081	0	1260.60	0	2.8740	0	34.4380	0	27.456	0	1246.581	0	16.6	4	5.1	4	-1E+10	1	-1E+10	1	-1E+10	1	-1E+10	1	-1E+10	1	-1E+10	1
4901784	21	C	01/31/2016	10:51	-131.607	45.081	0	1265.70	0	2.8640	0	34.4400	0	27.458	0	1251.609	0	16.7	4	5.1	4	-1E+10	1	-1E+10	1	-1E+10	1	-1E+10	1	-1E+10	1	-1E+10	1
4901784	21	C	01/31/2016	10:51	-131.607	45.081	0	1270.00	0	2.8590	0	34.4410	0	27.459	0	1255.848	0	16.8	4	5.2	4	-1E+10	1	-1E+10	1	-1E+10	1	-1E+10	1	-1E+10	1	-1E+10	1
4901784	21	C	01/31/2016	10:51	-131.607	45.081	0	1274.40	0	2.8550	0	34.4410	0	27.460	0	1260.186	0	16.8	4	5.2	4	-1E+10	1	-1E+10	1	-1E+10	1	-1E+10	1	-1E+10	1	-1E+10	1
4901784	21	C	01/31/2016	10:51	-131.607	45.081	0	1279.60	0	2.8410	0	34.4420	0	27.462	0	1265.313	0	17.0	4	5.2	4	-1E+10	1	-1E+10	1	-1E+10	1	-1E+10	1	-1E+10	1	-1E+10	1
4901784	21	C	01/31/2016	10:51	-131.607	45.081	0	1284.80	0	2.8330	0	34.4440	0	27.464	0	1270.439	0	17.2	4	5.3	4	-1E+10	1	-1E+10	1	-1E+10	1	-1E+10	1	-1E+10	1	-1E+10	1
4901784	21	C	01/31/2016	10:51	-131.607	45.081	0	1290.00	0	2.8230	0	34.4440	0	27.465	0	1275.565	0	17.3	4	5.3	4	-1E+10	1	-1E+10	1	-1E+10	1	-1E+10	1	-1E+10	1	-1E+10	1
4901784	21	C	01/31/2016	10:51	-131.607	45.081	0	1295.30	0	2.8110	0	34.4460	0	27.468	0	1280.790	0	17.5	4	5.4	4	-1E+10	1	-1E+10	1	-1E+10	1	-1E+10	1	-1E+10	1	-1E+10	1
4901784	21	C	01/31/2016	10:51	-131.607	45.081	0	1300.50	0	2.8020	0	34.4470	0	27.469	0	1285.916	0	17.6	4	5.4	4	-1E+10	1	-1E+10	1	-1E+10	1	-1E+10	1	-1E+10	1	-1E+10	1
4901784	21	C	01/31/2016	10:51	-131.607	45.081	0	1304.90	0	2.7930	0	34.4480	0	27.471	0	1290.253	0	17.7	4	5.4	4	-1E+10	1	-1E+10	1	-1E+10	1	-1E+10	1	-1E+10	1	-1E+10	1
4901784	21	C	01/31/2016	10:51	-131.607	45.081	0	1309.40	0	2.7820	0	34.4480	0	27.472	0	1294.688	0	17.9	4	5.5	4	-1E+10	1	-1E+10	1	-1E+10	1	-1E+10	1	-1E+10	1	-1E+10	1
4901784	21	C	01/31/2016	10:51	-131.607	45.081	0	1314.70	0	2.7670	0	34.4510	0	27.476	0	1299.912	0	18.2	4	5.6	4	-1E+10	1	-1E+10	1	-1E+10	1	-1E+10	1	-1E+10	1	-1E+10	1
4901784	21	C	01/31/2016	10:51	-131.607	45.081	0	1320.00	0	2.7650	0	34.4520	0	27.477	0	1305.136	0	18.3	4	5.6	4	-1E+10	1	-1E+10	1	-1E+10	1	-1E+10	1	-1E+10	1	-1E+10	1
4901784	21	C	01/31/2016	10:51	-131.607	45.081	0	1325.40	0	2.7630	0	34.4530	0	27.478	0	1310.459	0	18.5	4	5.7	4	-1E+10	1	-1E+10	1	-1E+10	1	-1E+10	1	-1E+10	1	-1E+10	1
4901784	21	C	01/31/2016	10:51	-131.607	45.081	0	1329.90	0	2.7590	0	34.4540	0	27.479	0	1314.894	0	18.7	4	5.7	4	-1E+10	1	-1E+10	1	-1E+10	1	-1E+10	1	-1E+10	1	-1E+10	1
4901784	21	C	01/31/2016	10:51	-131.607	45.081	0	1334.40	0	2.7570	0	34.4550	0	27.480	0	1319.329	0	18.9	4	5.8	4	-1E+10	1	-1E+10	1	-1E+10	1	-1E+10	1	-1E+10	1	-1E+10	1
4901784	21	C	01/31/2016	10:51	-131.607	45.081	0	1339.90	0	2.7420	0	34.4570	0	27.483	0	1324.750	0	19.1	4	5.9	4	-1E+10	1	-1E+10	1	-1E+10	1	-1E+10	1	-1E+10	1	-1E+10	1
4901784	21	C	01/31/2016	10:51	-131.607	45.081	0	1345.30	0	2.7320	0	34.4590	0	27.485	0	1330.072	0	19.4	4	5.9	4	-1E+10	1	-1E+10	1	-1E+10	1	-1E+10	1	-1E+10	1	-1E+10	1
4901784	21	C	01/31/2016	10:51	-131.607	45.081	0	1349.90	0	2.7250	0	34.4600	0	27.487	0	1334.605	0	19.5	4	6.0	4	-1E+10	1	-1E+10	1	-1E+10	1	-1E+10	1	-1E+10	1	-1E+10	1
4901784	21	C	01/31/2016	10:51	-131.607	45.081	0	1354.30	0	2.7180	0	34.4610	0	27.488	0	1338.941	0	19.7	4	6.0	4	-1E+10	1	-1E+10	1	-1E+10	1	-1E+10	1	-1E+10	1	-1E+10	1
4901784	21	C	01/31/2016	10:51	-131.607	45.081	0	1359.40	0	2.7100	0	34.4620	0	27.490	0	1343.967	0	19.9	4	6.1	4	-1E+10	1	-1E+10	1	-1E+10	1	-1E+10	1	-1E+10	1	-1E+10	1
4901784	21	C	01/31/2016	10:51	-131.607	45.081	0	1364.90	0	2.7040	0	34.4630	0	27.491	0	1349.387	0	20.0	4	6.1	4	-1E+10	1	-1E+10	1	-1E+10	1	-1E+10	1	-1E+10	1	-1E+10	1
4901784	21	C	01/31/2016	10:51	-131.607	45.081	0	1370.30	0	2.7010	0	34.4640	0	27.492	0	1354.709	0	20.2	4	6.2	4	-1E+10	1	-1E+10	1	-1E+10	1	-1E+10	1	-1E+10	1	-1E+10	1
4901784	21	C	01/31/2016	10:51	-131.607	45.081	0	1375.30	0	2.6960	0	34.4640	0	27.493	0	1359.636	0	20.3	4	6.2	4	-1E+10	1	-1E+10	1	-1E+10	1	-1E+10	1	-1E+10	1	-1E+10	1
4901784	21	C	01/31/2016	10:51	-131.607	45.081	0	1380.40	0	2.6840	0	34.4660	0	27.495	0	1364.661	0	20.5	4	6.3	4	-1E+10	1	-1E+10	1	-1E+10	1	-1E+10	1	-1E+10	1	-1E+10	1
4901784	21	C	01/31/2016	10:51	-131.607	45.081	0	1385.50	0	2.6750	0	34.4670	0	27.497	0	1369.686	0	20.7	4	6.4	4	-1E+10	1	-1E+10	1	-1E+10	1	-1E+10	1	-1E+10	1	-1E+10	1
4901784	21	C	01/31/2016	10:51	-131.607	45.081	0	1390.60	0	2.6670	0	34.4680	0	27.498	0	1374.711	0	21.0	4	6.4	4	-1E+10	1	-1E+10	1	-1E+10	1	-1E+10	1	-1E+10	1	-1E+10	1
4901784	21	C	01/31/2016	10:51	-131.607	45.081	0	1395.70	0	2.6570	0	34.4690	0	27.500	0	1379.736	0	21.3	4	6.5	4	-1E+10	1	-1E+10	1	-1E+10	1	-1E+10	1	-1E+10	1	-1E+10	1
4901784	21	C	01/31/2016	10:51	-131.607	45.081	0	1400.10	0	2.6470	0	34.4710	0	27.503	0	1384.072	0	21.5	4	6.6	4	-1E+10	1	-1E+10	1	-1E+10	1	-1E+10	1	-1E+10	1	-1E+10	1
4901784	21	C	01/31/2016	10:51	-131.607	45.081	0	1404.50	0	2.6350	0	34.4720	0	27.504	0	1388.407	0	21.8	4	6.7	4	-1E+10	1	-1E+10	1	-1E+10	1	-1E+10	1	-1E+10	1	-1E+10	1
4901784	21	C	01/31/2016	10:51	-131.607	45.081	0	1409.70	0	2.6220	0	34.4740	0	27.507	0	1393.530	0	22.0	4	6.7	4	-1E+10	1	-1E+10	1	-1E+10	1	-1E+10	1	-1E+10	1	-1E+10	1
4901784	21	C	01/31/2016	10:51	-131.607	45.081	0	1415.00	0	2.6170	0	34.4740	0	27.508	0	1398.752	0	22.1	4	6.8	4	-1E+10	1	-1E+10	1	-1E+10	1	-1E+10	1	-1E+10	1	-1E+10	1
4901784	21	C	01/31/2016	10:51	-131.607	45.081	0	1420.30	0	2.6100	0	34.4750	0	27.509	0	1403.973	0	22.3	4	6.8	4	-1E+10	1	-1E+10	1	-1E+10	1	-1E+10	1	-1E+10	1	-1E+10	1
4901784	21	C	01/31/2016	10:51	-131.607	45.081	0	1425.60	0	2.6050	0	34.4750	0	27.509	0	1409.195	0	22.5	4	6.9	4	-1E+10	1	-1E+10	1	-1E+10	1	-1E+10	1	-1E+10	1	-1E+10	1
4901784	21	C	01/31/2016	10:51	-131.607	45.081	0	1430.80	0	2.5960	0	34.4770	0	27.512	0	1414.318	0	22.8	4	7.0	4	-1E+10	1	-1E+10	1	-1E+10	1	-1E+10	1	-1E+10	1	-1E+10	1
4901784	21	C	01/31/2016	10:51	-131.607	45.081	0	1435.10	0	2.5870	0	34.4790	0	27.514	0	1418.553	0	23.1	4	7.1	4	-1E+10	1	-1E+10	1	-1E+10	1	-1E+10	1	-1E+10	1	-1E+10	1
4901784	21	C	01/31/2016	10:51	-131.607	45.081	0	1439.50	0	2.5850	0	34.4790	0	27.514	0	1422.888	0	23.3	4	7.1	4	-1E+10	1	-1E+10	1	-1E+10	1	-1E+10	1	-1E+10	1	-1E+10	1
4901784	21	C	01/31/2016	10:51	-131.607	45.081	0	1444.70	0	2.5760	0	34.4810	0	27.517	0	1428.010	0	23.6	4	7.2	4	-1E+10	1	-1E+10	1	-1E+10	1	-1E+10	1	-1E+10	1	-1E+10	1
4901784	21	C	01/31/2016	10:51	-131.607	45.081	0	1450.00	0	2.5710	0	34.4820	0	27.518	0	1433.231	0	23.7	4	7.2	4	-1E+10	1	-1E+10	1	-1E+10	1	-1E+10	1	-1E+10	1	-1E+10	1
4901784	21	C	01/31/2016	10:51	-131.607	45.081	0	1455.30	0	2.5600	0	34.4820	0	27.519	0	1438.452	0	24.0	4	7.3	4	-1E+10	1	-1E+10	1	-1E+10	1	-1E+10	1	-1E+10	1	-1E+10	1
4901784	21	C	01/31/2016	10:51	-131.607	45.081	0	1460.50	0	2.5490	0	34.4840	0	27.522	0	1443.574	0	24.3	4	7.4	4	-1E+10	1	-1E+10	1	-1E+10	1	-1E+10	1	-1E+10	1	-1E+10	1
4901784	21	C	01/31/2016	10:51	-131.607	45.081	0	1464.90	0	2.5450	0	34.4840	0	27.522	0	1447.908	0	24.5	4	7.5	4	-1E+10	1	-1E+10	1	-1E+10	1	-1E+10	1	-1E+10	1	-1E+10	1
4901784	21	C	01/31/2016	10:51	-131.607	45.081	0	1469.30	0	2.5370	0	34.4860	0	27.524	0	1452.242	0	24.6	4	7.5	4	-1E+10	1	-1E+10	1	-1E+10	1	-1E+10	1	-1E+10	1	-1E+10	1
4901784	21	C	01/31/2016	10:51	-131.607	45.081	0	1474.70	0	2.5300	0	34.4860	0	27.525	0	1457.560	0	24.9	4	7.6	4	-1E+10	1	-1E+10	1	-1E+10	1	-1E+10	1	-1E+10	1	-1E+10	1
4901784	21	C	01/31/2016	10:51	-131.607	45.081	0	1480.10	0	2.5230	0	34.4880	0	27.527	0	1462.879	0	25.2	4	7.7	4	-1E+10	1	-1E+10	1	-1E+10	1	-1E+10	1	-1E+10	1	-1E+10	1
4901784	21	C	01/31/2016	10:51	-131.607	45.081	0	1485.50	0	2.5170	0	34.4890	0	27.528	0	1468.197	0	25.5	4	7.8	4	-1E+10	1	-1E+10	1	-1E+10	1	-1E+10	1	-1E+10	1	-1E+10	1
4901784	21	C	01/31/2016	10:51	-131.607	45.081	0	1489.90	0	2.5120	0	34.4900	0	27.530	0	1472.531	0	25.7	4	7.9	4	-1E+10	1	-1E+10	1	-1E+10	1	-1E+10	1	-1E+10	1	-1E+10	1
4901784	21	C	01/31/2016	10:51	-131.607	45.081	0	1494.20	0	2.5060	0	34.4900	0	27.530	0	1476.766	0	25.9	4	7.9	4	-1E+10	1	-1E+10	1	-1E+10	1	-1E+10	1	-1E+10	1	-1E+10	1
4901784	21	C	01/31/2016	10:51	-131.607	45.081	0	1499.20	0	2.5010	0	34.4910	0	27.531	0	1481.690	0	26.1	4	8.0	4	-1E+10	1	-1E+10	1	-1E+10	1	-1E+10	1	-1E+10	1	-1E+10	1
4901784	21	C	01/31/2016	10:51	-131.607	45.081	0	1505.00	0	2.4930	0	34.4920	0	27.533	0	1487.402	0	26.5	4	8.1	4	-1E+10	1	-1E+10	1	-1E+10	1	-1E+10	1	-1E+10	1	-1E+10	1
4901784	21	C	01/31/2016	10:51	-131.607	45.081	0	1510.80	0	2.4790	0	34.4940	0	27.536	0	1493.113	0	27.1	4	8.3	4	-1E+10	1	-1E+10	1	-1E+10	1	-1E+10	1	-1E+10	1	-1E+10	1
4901784	21	C	01/31/2016	10:51	-131.607	45.081	0	1515.80	0	2.4700	0	34.4960	0	27.538	0	1498.037	0	27.5	4	8.4	4	-1E+10	1	-1E+10	1	-1E+10	1	-1E+10	1	-1E+10	1	-1E+10	1
4901784	21	C	01/31/2016	10:51	-131.607	45.081	0	1520.80	0	2.4640	0	34.4970	0	27.539	0	1502.961	0	27.7	4	8.5	4	-1E+10	1	-1E+10	1	-1E+10	1	-1E+10	1	-1E+10	1	-1E+10	1
4901784	21	C	01/31/2016	10:51	-131.607	45.081	0	1525.80	0	2.4560	0	34.4980	0	27.541	0	1507.884	0	28.1	4	8.6	4	-1E+10	1	-1E+10	1	-1E+10	1	-1E+10	1	-1E+10	1	-1E+10	1
4901784	21	C	01/31/2016	10:51	-131.607	45.081	0	1530.80	0	2.4520	0	34.4990	0	27.542	0	1512.808	0	28.4	4	8.7	4	-1E+10	1	-1E+10	1	-1E+10	1	-1E+10	1	-1E+10	1	-1E+10	1
4901784	21	C	01/31/2016	10:51	-131.607	45.081	0	1535.00	0	2.4430	0	34.5010	0	27.544	0	1516.943	0	28.8	4	8.8	4	-1E+10	1	-1E+10	1	-1E+10	1	-1E+10	1	-1E+10	1	-1E+10	1
4901784	21	C	01/31/2016	10:51	-131.607	45.081	0	1539.30	0	2.4310	0	34.5020	0	27.546	0	1521.177	0	29.2	4	8.9	4	-1E+10	1	-1E+10	1	-1E+10	1	-1E+10	1	-1E+10	1	-1E+10	1
4901784	21	C	01/31/2016	10:51	-131.607	45.081	0	1544.40	0	2.4220	0	34.5030	0	27.548	0	1526.199	0	29.6	4	9.0	4	-1E+10	1	-1E+10	1	-1E+10	1	-1E+10	1	-1E+10	1	-1E+10	1
4901784	21	C	01/31/2016	10:51	-131.607	45.081	0	1549.50	0	2.4110	0	34.5050	0	27.550	0	1531.220	0	29.9	4	9.1	4	-1E+10	1	-1E+10	1	-1E+10	1	-1E+10	1	-1E+10	1	-1E+10	1
4901784	21	C	01/31/2016	10:51	-131.607	45.081	0	1554.60	0	2.4050	0	34.5060	0	27.552	0	1536.241	0	30.2	4	9.2	4	-1E+10	1	-1E+10	1	-1E+10	1	-1E+10	1	-1E+10	1	-1E+10	1
4901784	21	C	01/31/2016	10:51	-131.607	45.081	0	1559.80	0	2.3970	0	34.5060	0	27.552	0	1541.361	0	30.5	4	9.3	4	-1E+10	1	-1E+10	1	-1E+10	1	-1E+10	1	-1E+10	1	-1E+10	1
4901784	21	C	01/31/2016	10:51	-131.607	45.081	0	1565.00	0	2.3920	0	34.5070	0	27.554	0	1546.481	0	30.8	4	9.4	4	-1E+10	1	-1E+10	1	-1E+10	1	-1E+10	1	-1E+10	1	-1E+10	1
4901784	21	C	01/31/2016	10:51	-131.607	45.081	0	1570.20	0	2.3800	0	34.5090	0	27.556	0	1551.600	0	31.1	4	9.5	4	-1E+10	1	-1E+10	1	-1E+10	1	-1E+10	1	-1E+10	1	-1E+10	1
4901784	21	C	01/31/2016	10:51	-131.607	45.081	0	1575.50	0	2.3780	0	34.5090	0	27.556	0	1556.818	0	31.3	4	9.5	4	-1E+10	1	-1E+10	1	-1E+10	1	-1E+10	1	-1E+10	1	-1E+10	1
4901784	21	C	01/31/2016	10:51	-131.607	45.081	0	1579.90	0	2.3740	0	34.5100	0	27.558	0	1561.149	0	31.5	4	9.6	4	-1E+10	1	-1E+10	1	-1E+10	1	-1E+10	1	-1E+10	1	-1E+10	1
4901784	21	C	01/31/2016	10:51	-131.607	45.081	0	1584.30	0	2.3660	0	34.5110	0	27.559	0	1565.481	0	31.7	4	9.6	4	-1E+10	1	-1E+10	1	-1E+10	1	-1E+10	1	-1E+10	1	-1E+10	1
4901784	21	C	01/31/2016	10:51	-131.607	45.081	0	1589.70	0	2.3640	0	34.5110	0	27.559	0	1570.797	0	31.8	4	9.7	4	-1E+10	1	-1E+10	1	-1E+10	1	-1E+10	1	-1E+10	1	-1E+10	1
4901784	21	C	01/31/2016	10:51	-131.607	45.081	0	1595.20	0	2.3570	0	34.5120	0	27.561	0	1576.211	0	32.2	4	9.8	4	-1E+10	1	-1E+10	1	-1E+10	1	-1E+10	1	-1E+10	1	-1E+10	1
4901784	21	C	01/31/2016	10:51	-131.607	45.081	0	1600.60	0	2.3490	0	34.5130	0	27.562	0	1581.526	0	32.5	4	9.9	4	-1E+10	1	-1E+10	1	-1E+10	1	-1E+10	1	-1E+10	1	-1E+10	1
4901784	21	C	01/31/2016	10:51	-131.607	45.081	0	1605.10	0	2.3440	0	34.5140	0	27.563	0	1585.956	0	32.7	4	9.9	4	-1E+10	1	-1E+10	1	-1E+10	1	-1E+10	1	-1E+10	1	-1E+10	1
4901784	21	C	01/31/2016	10:51	-131.607	45.081	0	1609.70	0	2.3410	0	34.5150	0	27.564	0	1590.484	0	32.8	4	10.0	4	-1E+10	1	-1E+10	1	-1E+10	1	-1E+10	1	-1E+10	1	-1E+10	1
4901784	21	C	01/31/2016	10:51	-131.607	45.081	0	1615.20	0	2.3380	0	34.5150	0	27.565	0	1595.897	0	33.1	4	10.1	4	-1E+10	1	-1E+10	1	-1E+10	1	-1E+10	1	-1E+10	1	-1E+10	1
4901784	21	C	01/31/2016	10:51	-131.607	45.081	0	1619.80	0	2.3310	0	34.5160	0	27.566	0	1600.425	0	33.5	4	10.2	4	-1E+10	1	-1E+10	1	-1E+10	1	-1E+10	1	-1E+10	1	-1E+10	1
4901784	21	C	01/31/2016	10:51	-131.607	45.081	0	1624.30	0	2.3240	0	34.5170	0	27.568	0	1604.854	0	33.7	4	10.2	4	-1E+10	1	-1E+10	1	-1E+10	1	-1E+10	1	-1E+10	1	-1E+10	1
4901784	21	C	01/31/2016	10:51	-131.607	45.081	0	1629.60	0	2.3180	0	34.5160	0	27.567	0	1610.071	0	34.0	4	10.3	4	-1E+10	1	-1E+10	1	-1E+10	1	-1E+10	1	-1E+10	1	-1E+10	1
4901784	21	C	01/31/2016	10:51	-131.607	45.081	0	1634.50	0	2.3100	0	34.5190	0	27.570	0	1614.893	0	34.4	4	10.4	4	-1E+10	1	-1E+10	1	-1E+10	1	-1E+10	1	-1E+10	1	-1E+10	1
4901784	21	C	01/31/2016	10:51	-131.607	45.081	0	1639.30	0	2.3040	0	34.5200	0	27.572	0	1619.617	0	34.7	4	10.5	4	-1E+10	1	-1E+10	1	-1E+10	1	-1E+10	1	-1E+10	1	-1E+10	1
4901784	21	C	01/31/2016	10:51	-131.607	45.081	0	1645.00	0	2.2940	0	34.5210	0	27.573	0	1625.227	0	35.1	4	10.6	4	-1E+10	1	-1E+10	1	-1E+10	1	-1E+10	1	-1E+10	1	-1E+10	1
4901784	21	C	01/31/2016	10:51	-131.607	45.081	0	1650.80	0	2.2880	0	34.5220	0	27.575	0	1630.935	0	35.4	4	10.7	4	-1E+10	1	-1E+10	1	-1E+10	1	-1E+10	1	-1E+10	1	-1E+10	1
4901784	21	C	01/31/2016	10:51	-131.607	45.081	0	1655.70	0	2.2830	0	34.5230	0	27.576	0	1635.757	0	35.8	4	10.9	4	-1E+10	1	-1E+10	1	-1E+10	1	-1E+10	1	-1E+10	1	-1E+10	1
4901784	21	C	01/31/2016	10:51	-131.607	45.081	0	1660.70	0	2.2740	0	34.5240	0	27.577	0	1640.678	0	36.1	4	11.0	4	-1E+10	1	-1E+10	1	-1E+10	1	-1E+10	1	-1E+10	1	-1E+10	1
4901784	21	C	01/31/2016	10:51	-131.607	45.081	0	1665.70	0	2.2690	0	34.5250	0	27.579	0	1645.598	0	36.4	4	11.1	4	-1E+10	1	-1E+10	1	-1E+10	1	-1E+10	1	-1E+10	1	-1E+10	1
4901784	21	C	01/31/2016	10:51	-131.607	45.081	0	1670.70	0	2.2620	0	34.5260	0	27.580	0	1650.518	0	36.8	4	11.2	4	-1E+10	1	-1E+10	1	-1E+10	1	-1E+10	1	-1E+10	1	-1E+10	1
4901784	21	C	01/31/2016	10:51	-131.607	45.081	0	1675.60	0	2.2550	0	34.5270	0	27.581	0	1655.340	0	37.1	4	11.3	4	-1E+10	1	-1E+10	1	-1E+10	1	-1E+10	1	-1E+10	1	-1E+10	1
4901784	21	C	01/31/2016	10:51	-131.607	45.081	0	1680.70	0	2.2530	0	34.5270	0	27.582	0	1660.358	0	37.4	4	11.3	4	-1E+10	1	-1E+10	1	-1E+10	1	-1E+10	1	-1E+10	1	-1E+10	1
4901784	21	C	01/31/2016	10:51	-131.607	45.081	0	1685.80	0	2.2480	0	34.5280	0	27.583	0	1665.377	0	37.8	4	11.5	4	-1E+10	1	-1E+10	1	-1E+10	1	-1E+10	1	-1E+10	1	-1E+10	1
4901784	21	C	01/31/2016	10:51	-131.607	45.081	0	1690.00	0	2.2400	0	34.5290	0	27.584	0	1669.509	0	38.2	4	11.6	4	-1E+10	1	-1E+10	1	-1E+10	1	-1E+10	1	-1E+10	1	-1E+10	1
4901784	21	C	01/31/2016	10:51	-131.607	45.081	0	1694.20	0	2.2370	0	34.5300	0	27.585	0	1673.642	0	38.6	4	11.7	4	-1E+10	1	-1E+10	1	-1E+10	1	-1E+10	1	-1E+10	1	-1E+10	1
4901784	21	C	01/31/2016	10:51	-131.607	45.081	0	1699.30	0	2.2310	0	34.5310	0	27.587	0	1678.660	0	39.1	4	11.8	4	-1E+10	1	-1E+10	1	-1E+10	1	-1E+10	1	-1E+10	1	-1E+10	1
4901784	21	C	01/31/2016	10:51	-131.607	45.081	0	1704.40	0	2.2190	0	34.5330	0	27.589	0	1683.677	0	39.4	4	11.9	4	-1E+10	1	-1E+10	1	-1E+10	1	-1E+10	1	-1E+10	1	-1E+10	1
4901784	21	C	01/31/2016	10:51	-131.607	45.081	0	1709.60	0	2.2130	0	34.5340	0	27.591	0	1688.793	0	39.8	4	12.1	4	-1E+10	1	-1E+10	1	-1E+10	1	-1E+10	1	-1E+10	1	-1E+10	1
4901784	21	C	01/31/2016	10:51	-131.607	45.081	0	1714.80	0	2.2050	0	34.5340	0	27.591	0	1693.909	0	40.3	4	12.2	4	-1E+10	1	-1E+10	1	-1E+10	1	-1E+10	1	-1E+10	1	-1E+10	1
4901784	21	C	01/31/2016	10:51	-131.607	45.081	0	1720.10	0	2.1930	0	34.5360	0	27.594	0	1699.124	0	40.8	4	12.4	4	-1E+10	1	-1E+10	1	-1E+10	1	-1E+10	1	-1E+10	1	-1E+10	1
4901784	21	C	01/31/2016	10:51	-131.607	45.081	0	1725.20	0	2.1870	0	34.5370	0	27.595	0	1704.141	0	41.4	4	12.5	4	-1E+10	1	-1E+10	1	-1E+10	1	-1E+10	1	-1E+10	1	-1E+10	1
4901784	21	C	01/31/2016	10:51	-131.607	45.081	0	1730.50	0	2.1780	0	34.5390	0	27.597	0	1709.355	0	41.9	4	12.7	4	-1E+10	1	-1E+10	1	-1E+10	1	-1E+10	1	-1E+10	1	-1E+10	1
4901784	21	C	01/31/2016	10:51	-131.607	45.081	0	1735.70	0	2.1740	0	34.5400	0	27.599	0	1714.470	0	42.2	4	12.8	4	-1E+10	1	-1E+10	1	-1E+10	1	-1E+10	1	-1E+10	1	-1E+10	1
4901784	21	C	01/31/2016	10:51	-131.607	45.081	0	1740.10	0	2.1680	0	34.5410	0	27.600	0	1718.799	0	42.5	4	12.9	4	-1E+10	1	-1E+10	1	-1E+10	1	-1E+10	1	-1E+10	1	-1E+10	1
4901784	21	C	01/31/2016	10:51	-131.607	45.081	0	1744.50	0	2.1610	0	34.5420	0	27.601	0	1723.127	0	42.8	4	12.9	4	-1E+10	1	-1E+10	1	-1E+10	1	-1E+10	1	-1E+10	1	-1E+10	1
4901784	21	C	01/31/2016	10:51	-131.607	45.081	0	1749.80	0	2.1580	0	34.5420	0	27.602	0	1728.341	0	43.1	4	13.0	4	-1E+10	1	-1E+10	1	-1E+10	1	-1E+10	1	-1E+10	1	-1E+10	1
4901784	21	C	01/31/2016	10:51	-131.607	45.081	0	1755.00	0	2.1510	0	34.5430	0	27.603	0	1733.456	0	43.5	4	13.2	4	-1E+10	1	-1E+10	1	-1E+10	1	-1E+10	1	-1E+10	1	-1E+10	1
4901784	21	C	01/31/2016	10:51	-131.607	45.081	0	1760.40	0	2.1480	0	34.5440	0	27.604	0	1738.767	0	43.8	4	13.3	4	-1E+10	1	-1E+10	1	-1E+10	1	-1E+10	1	-1E+10	1	-1E+10	1
4901784	21	C	01/31/2016	10:51	-131.607	45.081	0	1764.80	0	2.1460	0	34.5440	0	27.604	0	1743.095	0	44.2	4	13.4	4	-1E+10	1	-1E+10	1	-1E+10	1	-1E+10	1	-1E+10	1	-1E+10	1
4901784	21	C	01/31/2016	10:51	-131.607	45.081	0	1769.30	0	2.1400	0	34.5450	0	27.606	0	1747.521	0	44.6	4	13.5	4	-1E+10	1	-1E+10	1	-1E+10	1	-1E+10	1	-1E+10	1	-1E+10	1
4901784	21	C	01/31/2016	10:51	-131.607	45.081	0	1774.70	0	2.1290	0	34.5470	0	27.608	0	1752.832	0	45.2	4	13.7	4	-1E+10	1	-1E+10	1	-1E+10	1	-1E+10	1	-1E+10	1	-1E+10	1
4901784	21	C	01/31/2016	10:51	-131.607	45.081	0	1780.20	0	2.1230	0	34.5480	0	27.609	0	1758.242	0	45.6	4	13.8	4	-1E+10	1	-1E+10	1	-1E+10	1	-1E+10	1	-1E+10	1	-1E+10	1
4901784	21	C	01/31/2016	10:51	-131.607	45.081	0	1784.70	0	2.1120	0	34.5490	0	27.611	0	1762.668	0	46.1	4	13.9	4	-1E+10	1	-1E+10	1	-1E+10	1	-1E+10	1	-1E+10	1	-1E+10	1
4901784	21	C	01/31/2016	10:51	-131.607	45.081	0	1789.20	0	2.1030	0	34.5510	0	27.613	0	1767.093	0	46.4	4	14.0	4	-1E+10	1	-1E+10	1	-1E+10	1	-1E+10	1	-1E+10	1	-1E+10	1
4901784	21	C	01/31/2016	10:51	-131.607	45.081	0	1794.50	0	2.1000	0	34.5510	0	27.614	0	1772.306	0	46.5	4	14.1	4	-1E+10	1	-1E+10	1	-1E+10	1	-1E+10	1	-1E+10	1	-1E+10	1
4901784	21	C	01/31/2016	10:51	-131.607	45.081	0	1799.40	0	2.0960	0	34.5510	0	27.614	0	1777.125	0	46.8	4	14.1	4	-1E+10	1	-1E+10	1	-1E+10	1	-1E+10	1	-1E+10	1	-1E+10	1
4901784	21	C	01/31/2016	10:51	-131.607	45.081	0	1805.00	0	2.0910	0	34.5520	0	27.615	0	1782.632	0	47.1	4	14.2	4	-1E+10	1	-1E+10	1	-1E+10	1	-1E+10	1	-1E+10	1	-1E+10	1
4901784	21	C	01/31/2016	10:51	-131.607	45.081	0	1810.70	0	2.0860	0	34.5530	0	27.616	0	1788.237	0	47.4	4	14.3	4	-1E+10	1	-1E+10	1	-1E+10	1	-1E+10	1	-1E+10	1	-1E+10	1
4901784	21	C	01/31/2016	10:51	-131.607	45.081	0	1815.60	0	2.0830	0	34.5530	0	27.617	0	1793.056	0	47.7	4	14.4	4	-1E+10	1	-1E+10	1	-1E+10	1	-1E+10	1	-1E+10	1	-1E+10	1
4901784	21	C	01/31/2016	10:51	-131.607	45.081	0	1820.60	0	2.0780	0	34.5540	0	27.618	0	1797.973	0	48.0	4	14.5	4	-1E+10	1	-1E+10	1	-1E+10	1	-1E+10	1	-1E+10	1	-1E+10	1
4901784	21	C	01/31/2016	10:51	-131.607	45.081	0	1825.60	0	2.0740	0	34.5550	0	27.619	0	1802.889	0	48.4	4	14.6	4	-1E+10	1	-1E+10	1	-1E+10	1	-1E+10	1	-1E+10	1	-1E+10	1
4901784	21	C	01/31/2016	10:51	-131.607	45.081	0	1830.60	0	2.0680	0	34.5560	0	27.620	0	1807.806	0	48.7	4	14.7	4	-1E+10	1	-1E+10	1	-1E+10	1	-1E+10	1	-1E+10	1	-1E+10	1
4901784	21	C	01/31/2016	10:51	-131.607	45.081	0	1835.70	0	2.0640	0	34.5570	0	27.621	0	1812.821	0	49.0	4	14.8	4	-1E+10	1	-1E+10	1	-1E+10	1	-1E+10	1	-1E+10	1	-1E+10	1
4901784	21	C	01/31/2016	10:51	-131.607	45.081	0	1840.00	0	2.0610	0	34.5570	0	27.622	0	1817.049	0	49.2	4	14.8	4	-1E+10	1	-1E+10	1	-1E+10	1	-1E+10	1	-1E+10	1	-1E+10	1
4901784	21	C	01/31/2016	10:51	-131.607	45.081	0	1844.20	0	2.0550	0	34.5580	0	27.623	0	1821.178	0	49.5	4	14.9	4	-1E+10	1	-1E+10	1	-1E+10	1	-1E+10	1	-1E+10	1	-1E+10	1
4901784	21	C	01/31/2016	10:51	-131.607	45.081	0	1849.40	0	2.0510	0	34.5580	0	27.623	0	1826.291	0	49.7	4	15.0	4	-1E+10	1	-1E+10	1	-1E+10	1	-1E+10	1	-1E+10	1	-1E+10	1
4901784	21	C	01/31/2016	10:51	-131.607	45.081	0	1854.60	0	2.0480	0	34.5590	0	27.624	0	1831.404	0	50.0	4	15.1	4	-1E+10	1	-1E+10	1	-1E+10	1	-1E+10	1	-1E+10	1	-1E+10	1
4901784	21	C	01/31/2016	10:51	-131.607	45.081	0	1859.80	0	2.0460	0	34.5590	0	27.625	0	1836.516	0	50.3	4	15.2	4	-1E+10	1	-1E+10	1	-1E+10	1	-1E+10	1	-1E+10	1	-1E+10	1
4901784	21	C	01/31/2016	10:51	-131.607	45.081	0	1865.00	0	2.0400	0	34.5600	0	27.626	0	1841.629	0	50.8	4	15.3	4	-1E+10	1	-1E+10	1	-1E+10	1	-1E+10	1	-1E+10	1	-1E+10	1
4901784	21	C	01/31/2016	10:51	-131.607	45.081	0	1870.20	0	2.0310	0	34.5620	0	27.628	0	1846.741	0	51.2	4	15.4	4	-1E+10	1	-1E+10	1	-1E+10	1	-1E+10	1	-1E+10	1	-1E+10	1
4901784	21	C	01/31/2016	10:51	-131.607	45.081	0	1875.50	0	2.0260	0	34.5630	0	27.629	0	1851.951	0	51.5	4	15.5	4	-1E+10	1	-1E+10	1	-1E+10	1	-1E+10	1	-1E+10	1	-1E+10	1
4901784	21	C	01/31/2016	10:51	-131.607	45.081	0	1879.90	0	2.0240	0	34.5630	0	27.630	0	1856.277	0	51.6	4	15.6	4	-1E+10	1	-1E+10	1	-1E+10	1	-1E+10	1	-1E+10	1	-1E+10	1
4901784	21	C	01/31/2016	10:51	-131.607	45.081	0	1884.30	0	2.0230	0	34.5630	0	27.630	0	1860.602	0	51.7	4	15.6	4	-1E+10	1	-1E+10	1	-1E+10	1	-1E+10	1	-1E+10	1	-1E+10	1
4901784	21	C	01/31/2016	10:51	-131.607	45.081	0	1889.60	0	2.0210	0	34.5640	0	27.631	0	1865.812	0	51.9	4	15.6	4	-1E+10	1	-1E+10	1	-1E+10	1	-1E+10	1	-1E+10	1	-1E+10	1
4901784	21	C	01/31/2016	10:51	-131.607	45.081	0	1895.00	0	2.0190	0	34.5640	0	27.631	0	1871.121	0	52.1	4	15.7	4	-1E+10	1	-1E+10	1	-1E+10	1	-1E+10	1	-1E+10	1	-1E+10	1
4901784	21	C	01/31/2016	10:51	-131.607	45.081	0	1900.40	0	2.0160	0	34.5640	0	27.631	0	1876.429	0	52.4	4	15.8	4	-1E+10	1	-1E+10	1	-1E+10	1	-1E+10	1	-1E+10	1	-1E+10	1
4901784	21	C	01/31/2016	10:51	-131.607	45.081	0	1904.90	0	2.0120	0	34.5650	0	27.632	0	1880.852	0	52.7	4	15.9	4	-1E+10	1	-1E+10	1	-1E+10	1	-1E+10	1	-1E+10	1	-1E+10	1
4901784	21	C	01/31/2016	10:51	-131.607	45.081	0	1909.40	0	2.0070	0	34.5660	0	27.634	0	1885.276	0	52.9	4	16.0	4	-1E+10	1	-1E+10	1	-1E+10	1	-1E+10	1	-1E+10	1	-1E+10	1
4901784	21	C	01/31/2016	10:51	-131.607	45.081	0	1914.80	0	2.0050	0	34.5660	0	27.634	0	1890.583	0	53.1	4	16.0	4	-1E+10	1	-1E+10	1	-1E+10	1	-1E+10	1	-1E+10	1	-1E+10	1
4901784	21	C	01/31/2016	10:51	-131.607	45.081	0	1920.20	0	2.0040	0	34.5670	0	27.635	0	1895.891	0	53.4	4	16.1	4	-1E+10	1	-1E+10	1	-1E+10	1	-1E+10	1	-1E+10	1	-1E+10	1
4901784	21	C	01/31/2016	10:51	-131.607	45.081	0	1924.80	0	2.0000	0	34.5670	0	27.635	0	1900.412	0	53.7	4	16.2	4	-1E+10	1	-1E+10	1	-1E+10	1	-1E+10	1	-1E+10	1	-1E+10	1
4901784	21	C	01/31/2016	10:51	-131.607	45.081	0	1929.30	0	1.9960	0	34.5680	0	27.636	0	1904.835	0	53.9	4	16.2	4	-1E+10	1	-1E+10	1	-1E+10	1	-1E+10	1	-1E+10	1	-1E+10	1
4901784	21	C	01/31/2016	10:51	-131.607	45.081	0	1934.80	0	1.9940	0	34.5680	0	27.636	0	1910.241	0	54.1	4	16.3	4	-1E+10	1	-1E+10	1	-1E+10	1	-1E+10	1	-1E+10	1	-1E+10	1
4901784	21	C	01/31/2016	10:51	-131.607	45.081	0	1940.30	0	1.9910	0	34.5690	0	27.637	0	1915.646	0	54.4	4	16.4	4	-1E+10	1	-1E+10	1	-1E+10	1	-1E+10	1	-1E+10	1	-1E+10	1
4901784	21	C	01/31/2016	10:51	-131.607	45.081	0	1944.90	0	1.9890	0	34.5700	0	27.638	0	1920.167	0	54.6	4	16.5	4	-1E+10	1	-1E+10	1	-1E+10	1	-1E+10	1	-1E+10	1	-1E+10	1
4901784	21	C	01/31/2016	10:51	-131.607	45.081	0	1949.50	0	1.9850	0	34.5700	0	27.639	0	1924.688	0	54.9	4	16.5	4	-1E+10	1	-1E+10	1	-1E+10	1	-1E+10	1	-1E+10	1	-1E+10	1
4901784	21	C	01/31/2016	10:51	-131.607	45.081	0	1955.00	0	1.9820	0	34.5710	0	27.640	0	1930.093	0	55.2	4	16.6	4	-1E+10	1	-1E+10	1	-1E+10	1	-1E+10	1	-1E+10	1	-1E+10	1
4901784	21	C	01/31/2016	10:51	-131.607	45.081	0	1960.60	0	1.9770	0	34.5710	0	27.640	0	1935.596	0	55.5	4	16.7	4	-1E+10	1	-1E+10	1	-1E+10	1	-1E+10	1	-1E+10	1	-1E+10	1
4901784	21	C	01/31/2016	10:51	-131.607	45.081	0	1965.20	0	1.9750	0	34.5720	0	27.641	0	1940.116	0	55.6	4	16.8	4	-1E+10	1	-1E+10	1	-1E+10	1	-1E+10	1	-1E+10	1	-1E+10	1
4901784	21	C	01/31/2016	10:51	-131.607	45.081	0	1969.80	0	1.9730	0	34.5730	0	27.642	0	1944.637	0	55.8	4	16.8	4	-1E+10	1	-1E+10	1	-1E+10	1	-1E+10	1	-1E+10	1	-1E+10	1
4901784	21	C	01/31/2016	10:51	-131.607	45.081	0	1975.40	0	1.9710	0	34.5730	0	27.642	0	1950.140	0	56.0	4	16.9	4	-1E+10	1	-1E+10	1	-1E+10	1	-1E+10	1	-1E+10	1	-1E+10	1
4901784	21	C	01/31/2016	10:51	-131.607	45.081	0	1979.50	0	1.9700	0	34.5730	0	27.642	0	1954.168	0	56.2	4	16.9	4	-1E+10	1	-1E+10	1	-1E+10	1	-1E+10	1	-1E+10	1	-1E+10	1
4901784	21	C	01/31/2016	10:51	-131.607	45.081	0	1984.50	0	1.9670	0	34.5740	0	27.643	0	1959.081	0	56.5	4	17.0	4	-1E+10	1	-1E+10	1	-1E+10	1	-1E+10	1	-1E+10	1	-1E+10	1
4901784	21	C	01/31/2016	10:51	-131.607	45.081	0	1989.30	0	1.9620	0	34.5750	0	27.645	0	1963.798	0	56.8	4	17.1	4	-1E+10	1	-1E+10	1	-1E+10	1	-1E+10	1	-1E+10	1	-1E+10	1
4901784	21	C	01/31/2016	10:51	-131.607	45.081	0	1994.30	0	1.9600	0	34.5750	0	27.645	0	1968.711	0	57.0	4	17.2	4	-1E+10	1	-1E+10	1	-1E+10	1	-1E+10	1	-1E+10	1	-1E+10	1
4901784	21	C	01/31/2016	10:51	-131.607	45.081	0	1999.20	0	1.9580	0	34.5750	0	27.645	0	1973.525	0	57.2	4	17.2	4	-1E+10	1	-1E+10	1	-1E+10	1	-1E+10	1	-1E+10	1	-1E+10	1
4901784	21	C	01/31/2016	10:51	-131.607	45.081	0	2004.20	0	1.9540	0	34.5760	0	27.646	0	1978.438	0	57.5	4	17.3	4	-1E+10	1	-1E+10	1	-1E+10	1	-1E+10	1	-1E+10	1	-1E+10	1
4901784	21	C	01/31/2016	10:51	-131.607	45.081	0	2009.70	0	1.9510	0	34.5760	0	27.646	0	1983.841	0	57.7	4	17.4	4	-1E+10	1	-1E+10	1	-1E+10	1	-1E+10	1	-1E+10	1	-1E+10	1
4901784	21	C	01/31/2016	10:51	-131.607	45.081	0	2015.60	0	1.9490	0	34.5770	0	27.647	0	1989.638	0	58.0	4	17.5	4	-1E+10	1	-1E+10	1	-1E+10	1	-1E+10	1	-1E+10	1	-1E+10	1
4901784	21	C	01/31/2016	10:51	-131.607	45.081	0	2019.80	0	1.9460	0	34.5770	0	27.648	0	1993.764	0	58.2	4	17.5	4	-1E+10	1	-1E+10	1	-1E+10	1	-1E+10	1	-1E+10	1	-1E+10	1
4901784	21	C	01/31/2016	10:51	-131.607	45.081	0																										
4901784	22	C	02/10/2016	10:47	-131.742	44.940	0	2.70	0	10.8680	0	32.6860	0	24.998	0	2.678	0	263.2	4	96.1	4	-1E+10	1	-1E+10	1	-1E+10	1	-1E+10	1	-1E+10	1	-1E+10	1
4901784	22	C	02/10/2016	10:47	-131.742	44.940	0	4.00	0	10.8680	0	32.6860	0	24.998	0	3.968	0	263.1	4	96.0	4	-1E+10	1	-1E+10	1	-1E+10	1	-1E+10	1	-1E+10	1	-1E+10	1
4901784	22	C	02/10/2016	10:47	-131.742	44.940	0	5.30	0	10.8680	0	32.6860	0	24.998	0	5.257	0	263.1	4	96.0	4	-1E+10	1	-1E+10	1	-1E+10	1	-1E+10	1	-1E+10	1	-1E+10	1
4901784	22	C	02/10/2016	10:47	-131.742	44.940	0	6.70	0	10.8690	0	32.6870	0	24.998	0	6.646	0	263.1	4	96.0	4	-1E+10	1	-1E+10	1	-1E+10	1	-1E+10	1	-1E+10	1	-1E+10	1
4901784	22	C	02/10/2016	10:47	-131.742	44.940	0	8.10	0	10.8690	0	32.6860	0	24.998	0	8.034	0	263.2	4	96.0	4	-1E+10	1	-1E+10	1	-1E+10	1	-1E+10	1	-1E+10	1	-1E+10	1
4901784	22	C	02/10/2016	10:47	-131.742	44.940	0	9.60	0	10.8680	0	32.6870	0	24.999	0	9.522	0	263.2	4	96.0	4	-1E+10	1	-1E+10	1	-1E+10	1	-1E+10	1	-1E+10	1	-1E+10	1
4901784	22	C	02/10/2016	10:47	-131.742	44.940	0	11.30	0	10.8700	0	32.6870	0	24.998	0	11.208	0	263.0	4	96.0	4	-1E+10	1	-1E+10	1	-1E+10	1	-1E+10	1	-1E+10	1	-1E+10	1
4901784	22	C	02/10/2016	10:47	-131.742	44.940	0	12.90	0	10.8720	0	32.6870	0	24.998	0	12.795	0	263.0	4	96.0	4	-1E+10	1	-1E+10	1	-1E+10	1	-1E+10	1	-1E+10	1	-1E+10	1
4901784	22	C	02/10/2016	10:47	-131.742	44.940	0	14.60	0	10.8710	0	32.6880	0	24.999	0	14.481	0	263.1	4	96.0	4	-1E+10	1	-1E+10	1	-1E+10	1	-1E+10	1	-1E+10	1	-1E+10	1
4901784	22	C	02/10/2016	10:47	-131.742	44.940	0	16.30	0	10.8730	0	32.6870	0	24.998	0	16.167	0	263.1	4	96.0	4	-1E+10	1	-1E+10	1	-1E+10	1	-1E+10	1	-1E+10	1	-1E+10	1
4901784	22	C	02/10/2016	10:47	-131.742	44.940	0	18.00	0	10.8710	0	32.6880	0	24.999	0	17.853	0	263.0	4	96.0	4	-1E+10	1	-1E+10	1	-1E+10	1	-1E+10	1	-1E+10	1	-1E+10	1
4901784	22	C	02/10/2016	10:47	-131.742	44.940	0	19.80	0	10.8720	0	32.6870	0	24.998	0	19.638	0	263.1	4	96.0	4	-1E+10	1	-1E+10	1	-1E+10	1	-1E+10	1	-1E+10	1	-1E+10	1
4901784	22	C	02/10/2016	10:47	-131.742	44.940	0	21.50	0	10.8720	0	32.6880	0	24.999	0	21.324	0	263.0	4	96.0	4	-1E+10	1	-1E+10	1	-1E+10	1	-1E+10	1	-1E+10	1	-1E+10	1
4901784	22	C	02/10/2016	10:47	-131.742	44.940	0	23.30	0	10.8720	0	32.6880	0	24.999	0	23.110	0	262.9	4	95.9	4	-1E+10	1	-1E+10	1	-1E+10	1	-1E+10	1	-1E+10	1	-1E+10	1
4901784	22	C	02/10/2016	10:47	-131.742	44.940	0	25.10	0	10.8730	0	32.6870	0	24.998	0	24.895	0	262.9	4	96.0	4	-1E+10	1	-1E+10	1	-1E+10	1	-1E+10	1	-1E+10	1	-1E+10	1
4901784	22	C	02/10/2016	10:47	-131.742	44.940	0	26.80	0	10.8700	0	32.6870	0	24.999	0	26.581	0	262.9	4	96.0	4	-1E+10	1	-1E+10	1	-1E+10	1	-1E+10	1	-1E+10	1	-1E+10	1
4901784	22	C	02/10/2016	10:47	-131.742	44.940	0	28.50	0	10.8730	0	32.6870	0	24.998	0	28.267	0	262.8	4	95.9	4	-1E+10	1	-1E+10	1	-1E+10	1	-1E+10	1	-1E+10	1	-1E+10	1
4901784	22	C	02/10/2016	10:47	-131.742	44.940	0	30.10	0	10.8750	0	32.6870	0	24.998	0	29.854	0	262.9	4	96.0	4	-1E+10	1	-1E+10	1	-1E+10	1	-1E+10	1	-1E+10	1	-1E+10	1
4901784	22	C	02/10/2016	10:47	-131.742	44.940	0	31.80	0	10.8720	0	32.6880	0	24.999	0	31.540	0	262.8	4	95.9	4	-1E+10	1	-1E+10	1	-1E+10	1	-1E+10	1	-1E+10	1	-1E+10	1
4901784	22	C	02/10/2016	10:47	-131.742	44.940	0	33.60	0	10.8720	0	32.6880	0	24.999	0	33.325	0	262.8	4	95.9	4	-1E+10	1	-1E+10	1	-1E+10	1	-1E+10	1	-1E+10	1	-1E+10	1
4901784	22	C	02/10/2016	10:47	-131.742	44.940	0	35.30	0	10.8720	0	32.6880	0	24.999	0	35.011	0	262.8	4	95.9	4	-1E+10	1	-1E+10	1	-1E+10	1	-1E+10	1	-1E+10	1	-1E+10	1
4901784	22	C	02/10/2016	10:47	-131.742	44.940	0	37.00	0	10.8730	0	32.6880	0	24.999	0	36.697	0	262.7	4	95.9	4	-1E+10	1	-1E+10	1	-1E+10	1	-1E+10	1	-1E+10	1	-1E+10	1
4901784	22	C	02/10/2016	10:47	-131.742	44.940	0	38.80	0	10.8730	0	32.6880	0	24.999	0	38.482	0	262.8	4	95.9	4	-1E+10	1	-1E+10	1	-1E+10	1	-1E+10	1	-1E+10	1	-1E+10	1
4901784	22	C	02/10/2016	10:47	-131.742	44.940	0	40.60	0	10.8730	0	32.6880	0	24.999	0	40.267	0	262.8	4	95.9	4	-1E+10	1	-1E+10	1	-1E+10	1	-1E+10	1	-1E+10	1	-1E+10	1
4901784	22	C	02/10/2016	10:47	-131.742	44.940	0	42.30	0	10.8730	0	32.6880	0	24.999	0	41.953	0	262.8	4	95.9	4	-1E+10	1	-1E+10	1	-1E+10	1	-1E+10	1	-1E+10	1	-1E+10	1
4901784	22	C	02/10/2016	10:47	-131.742	44.940	0	44.10	0	10.8730	0	32.6880	0	24.999	0	43.738	0	262.6	4	95.8	4	-1E+10	1	-1E+10	1	-1E+10	1	-1E+10	1	-1E+10	1	-1E+10	1
4901784	22	C	02/10/2016	10:47	-131.742	44.940	0	45.80	0	10.8740	0	32.6880	0	24.999	0	45.423	0	262.5	4	95.8	4	-1E+10	1	-1E+10	1	-1E+10	1	-1E+10	1	-1E+10	1	-1E+10	1
4901784	22	C	02/10/2016	10:47	-131.742	44.940	0	47.50	0	10.8750	0	32.6870	0	24.998	0	47.109	0	262.5	4	95.8	4	-1E+10	1	-1E+10	1	-1E+10	1	-1E+10	1	-1E+10	1	-1E+10	1
4901784	22	C	02/10/2016	10:47	-131.742	44.940	0	49.30	0	10.8750	0	32.6870	0	24.998	0	48.894	0	262.4	4	95.8	4	-1E+10	1	-1E+10	1	-1E+10	1	-1E+10	1	-1E+10	1	-1E+10	1
4901784	22	C	02/10/2016	10:47	-131.742	44.940	0	51.10	0	10.8750	0	32.6880	0	24.999	0	50.679	0	262.4	4	95.8	4	-1E+10	1	-1E+10	1	-1E+10	1	-1E+10	1	-1E+10	1	-1E+10	1
4901784	22	C	02/10/2016	10:47	-131.742	44.940	0	52.80	0	10.8750	0	32.6880	0	24.999	0	52.365	0	262.5	4	95.8	4	-1E+10	1	-1E+10	1	-1E+10	1	-1E+10	1	-1E+10	1	-1E+10	1
4901784	22	C	02/10/2016	10:47	-131.742	44.940	0	54.70	0	10.8730	0	32.6870	0	24.999	0	54.249	0	262.4	4	95.8	4	-1E+10	1	-1E+10	1	-1E+10	1	-1E+10	1	-1E+10	1	-1E+10	1
4901784	22	C	02/10/2016	10:47	-131.742	44.940	0	56.40	0	10.8740	0	32.6870	0	24.999	0	55.935	0	262.1	4	95.6	4	-1E+10	1	-1E+10	1	-1E+10	1	-1E+10	1	-1E+10	1	-1E+10	1
4901784	22	C	02/10/2016	10:47	-131.742	44.940	0	58.10	0	10.8720	0	32.6870	0	24.999	0	57.621	0	262.0	4	95.6	4	-1E+10	1	-1E+10	1	-1E+10	1	-1E+10	1	-1E+10	1	-1E+10	1
4901784	22	C	02/10/2016	10:47	-131.742	44.940	0	59.90	0	10.8740	0	32.6860	0	24.998	0	59.405	0	262.1	4	95.7	4	-1E+10	1	-1E+10	1	-1E+10	1	-1E+10	1	-1E+10	1	-1E+10	1
4901784	22	C	02/10/2016	10:47	-131.742	44.940	0	61.50	0	10.8660	0	32.6870	0	25.000	0	60.992	0	261.8	4	95.5	4	-1E+10	1	-1E+10	1	-1E+10	1	-1E+10	1	-1E+10	1	-1E+10	1
4901784	22	C	02/10/2016	10:47	-131.742	44.940	0	63.30	0	10.8600	0	32.6860	0	25.000	0	62.777	0	261.3	4	95.3	4	-1E+10	1	-1E+10	1	-1E+10	1	-1E+10	1	-1E+10	1	-1E+10	1
4901784	22	C	02/10/2016	10:47	-131.742	44.940	0	64.90	0	10.8280	0	32.6850	0	25.005	0	64.363	0	261.3	4	95.3	4	-1E+10	1	-1E+10	1	-1E+10	1	-1E+10	1	-1E+10	1	-1E+10	1
4901784	22	C	02/10/2016	10:47	-131.742	44.940	0	66.70	0	10.8020	0	32.6850	0	25.010	0	66.148	0	261.3	4	95.2	4	-1E+10	1	-1E+10	1	-1E+10	1	-1E+10	1	-1E+10	1	-1E+10	1
4901784	22	C	02/10/2016	10:47	-131.742	44.940	0	68.40	0	10.7770	0	32.6850	0	25.014	0	67.834	0	261.2	4	95.1	4	-1E+10	1	-1E+10	1	-1E+10	1	-1E+10	1	-1E+10	1	-1E+10	1
4901784	22	C	02/10/2016	10:47	-131.742	44.940	0	70.10	0	10.7360	0	32.6820	0	25.019	0	69.520	0	261.3	4	95.1	4	-1E+10	1	-1E+10	1	-1E+10	1	-1E+10	1	-1E+10	1	-1E+10	1
4901784	22	C	02/10/2016	10:47	-131.742	44.940	0	71.80	0	10.7230	0	32.6820	0	25.021	0	71.205	0	261.2	4	95.0	4	-1E+10	1	-1E+10	1	-1E+10	1	-1E+10	1	-1E+10	1	-1E+10	1
4901784	22	C	02/10/2016	10:47	-131.742	44.940	0	73.50	0	10.6850	0	32.6800	0	25.026	0	72.891	0	261.2	4	95.0	4	-1E+10	1	-1E+10	1	-1E+10	1	-1E+10	1	-1E+10	1	-1E+10	1
4901784	22	C	02/10/2016	10:47	-131.742	44.940	0	75.20	0	10.6790	0	32.6800	0	25.027	0	74.576	0	261.3	4	95.0	4	-1E+10	1	-1E+10	1	-1E+10	1	-1E+10	1	-1E+10	1	-1E+10	1
4901784	22	C	02/10/2016	10:47	-131.742	44.940	0	77.00	0	10.6740	0	32.6800	0	25.028	0	76.361	0	261.1	4	94.9	4	-1E+10	1	-1E+10	1	-1E+10	1	-1E+10	1	-1E+10	1	-1E+10	1
4901784	22	C	02/10/2016	10:47	-131.742	44.940	0	78.70	0	10.6660	0	32.6780	0	25.028	0	78.047	0	260.9	4	94.8	4	-1E+10	1	-1E+10	1	-1E+10	1	-1E+10	1	-1E+10	1	-1E+10	1
4901784	22	C	02/10/2016	10:47	-131.742	44.940	0	80.50	0	10.6570	0	32.6780	0	25.030	0	79.831	0	260.5	4	94.6	4	-1E+10	1	-1E+10	1	-1E+10	1	-1E+10	1	-1E+10	1	-1E+10	1
4901784	22	C	02/10/2016	10:47	-131.742	44.940	0	82.30	0	10.6490	0	32.6770	0	25.030	0	81.616	0	260.5	4	94.6	4	-1E+10	1	-1E+10	1	-1E+10	1	-1E+10	1	-1E+10	1	-1E+10	1
4901784	22	C	02/10/2016	10:47	-131.742	44.940	0	84.00	0	10.6380	0	32.6760	0	25.032	0	83.302	0	260.3	4	94.5	4	-1E+10	1	-1E+10	1	-1E+10	1	-1E+10	1	-1E+10	1	-1E+10	1
4901784	22	C	02/10/2016	10:47	-131.742	44.940	0	85.80	0	10.6310	0	32.6750	0	25.032	0	85.086	0	259.9	4	94.3	4	-1E+10	1	-1E+10	1	-1E+10	1	-1E+10	1	-1E+10	1	-1E+10	1
4901784	22	C	02/10/2016	10:47	-131.742	44.940	0	87.60	0	10.6170	0	32.6740	0	25.034	0	86.871	0	259.2	4	94.1	4	-1E+10	1	-1E+10	1	-1E+10	1	-1E+10	1	-1E+10	1	-1E+10	1
4901784	22	C	02/10/2016	10:47	-131.742	44.940	0	89.30	0	10.6040	0	32.6730	0	25.035	0	88.556	0	258.2	4	93.7	4	-1E+10	1	-1E+10	1	-1E+10	1	-1E+10	1	-1E+10	1	-1E+10	1
4901784	22	C	02/10/2016	10:47	-131.742	44.940	0	91.10	0	10.5880	0	32.6720	0	25.037	0	90.341	0	257.4	4	93.3	4	-1E+10	1	-1E+10	1	-1E+10	1	-1E+10	1	-1E+10	1	-1E+10	1
4901784	22	C	02/10/2016	10:47	-131.742	44.940	0	93.20	0	10.5650	0	32.6710	0	25.040	0	92.423	0	255.4	4	92.6	4	-1E+10	1	-1E+10	1	-1E+10	1	-1E+10	1	-1E+10	1	-1E+10	1
4901784	22	C	02/10/2016	10:47	-131.742	44.940	0	94.90	0	10.5600	0	32.6690	0	25.040	0	94.109	0	252.6	4	91.6	4	-1E+10	1	-1E+10	1	-1E+10	1	-1E+10	1	-1E+10	1	-1E+10	1
4901784	22	C	02/10/2016	10:47	-131.742	44.940	0	96.20	0	10.5500	0	32.6670	0	25.040	0	95.397	0	249.2	4	90.3	4	-1E+10	1	-1E+10	1	-1E+10	1	-1E+10	1	-1E+10	1	-1E+10	1
4901784	22	C	02/10/2016	10:47	-131.742	44.940	0	97.50	0	10.5200	0	32.6720	0	25.049	0	96.686	0	244.7	4	88.6	4	-1E+10	1	-1E+10	1	-1E+10	1	-1E+10	1	-1E+10	1	-1E+10	1
4901784	22	C	02/10/2016	10:47	-131.742	44.940	0	98.90	0	10.4720	0	32.6890	0	25.071	0	98.074	0	239.4	4	86.6	4	-1E+10	1	-1E+10	1	-1E+10	1	-1E+10	1	-1E+10	1	-1E+10	1
4901784	22	C	02/10/2016	10:47	-131.742	44.940	0	100.30	0	10.3320	0	32.7430	0	25.137	0	99.462	0	233.0	4	84.1	4	-1E+10	1	-1E+10	1	-1E+10	1	-1E+10	1	-1E+10	1	-1E+10	1
4901784	22	C	02/10/2016	10:47	-131.742	44.940	0	102.30	0	10.0970	0	32.8330	0	25.246	0	101.445	0	224.3	4	80.6	4	-1E+10	1	-1E+10	1	-1E+10	1	-1E+10	1	-1E+10	1	-1E+10	1
4901784	22	C	02/10/2016	10:47	-131.742	44.940	0	105.30	0	9.7410	0	32.9700	0	25.412	0	104.419	0	215.5	4	76.9	4	-1E+10	1	-1E+10	1	-1E+10	1	-1E+10	1	-1E+10	1	-1E+10	1
4901784	22	C	02/10/2016	10:47	-131.742	44.940	0	107.60	0	9.4240	0	33.0810	0	25.551	0	106.699	0	210.3	4	74.6	4	-1E+10	1	-1E+10	1	-1E+10	1	-1E+10	1	-1E+10	1	-1E+10	1
4901784	22	C	02/10/2016	10:47	-131.742	44.940	0	110.00	0	9.2530	0	33.1360	0	25.621	0	109.079	0	206.7	4	73.1	4	-1E+10	1	-1E+10	1	-1E+10	1	-1E+10	1	-1E+10	1	-1E+10	1
4901784	22	C	02/10/2016	10:47	-131.742	44.940	0	112.60	0	9.0130	0	33.2170	0	25.722	0	111.656	0	203.5	4	71.6	4	-1E+10	1	-1E+10	1	-1E+10	1	-1E+10	1	-1E+10	1	-1E+10	1
4901784	22	C	02/10/2016	10:47	-131.742	44.940	0	115.10	0	8.8440	0	33.2760	0	25.795	0	114.134	0	201.5	4	70.7	4	-1E+10	1	-1E+10	1	-1E+10	1	-1E+10	1	-1E+10	1	-1E+10	1
4901784	22	C	02/10/2016	10:47	-131.742	44.940	0	117.80	0	8.7130	0	33.3210	0	25.850	0	116.811	0	200.3	4	70.1	4	-1E+10	1	-1E+10	1	-1E+10	1	-1E+10	1	-1E+10	1	-1E+10	1
4901784	22	C	02/10/2016	10:47	-131.742	44.940	0	119.60	0	8.6390	0	33.4040	0	25.927	0	118.595	0	199.6	4	69.8	4	-1E+10	1	-1E+10	1	-1E+10	1	-1E+10	1	-1E+10	1	-1E+10	1
4901784	22	C	02/10/2016	10:47	-131.742	44.940	0	122.50	0	8.5940	0	33.4160	0	25.943	0	121.470	0	198.4	4	69.3	4	-1E+10	1	-1E+10	1	-1E+10	1	-1E+10	1	-1E+10	1	-1E+10	1
4901784	22	C	02/10/2016	10:47	-131.742	44.940	0	125.30	0	8.5640	0	33.4330	0	25.961	0	124.246	0	196.7	4	68.6	4	-1E+10	1	-1E+10	1	-1E+10	1	-1E+10	1	-1E+10	1	-1E+10	1
4901784	22	C	02/10/2016	10:47	-131.742	44.940	0	127.20	0	8.4770	0	33.4610	0	25.996	0	126.129	0	195.7	4	68.2	4	-1E+10	1	-1E+10	1	-1E+10	1	-1E+10	1	-1E+10	1	-1E+10	1
4901784	22	C	02/10/2016	10:47	-131.742	44.940	0	130.00	0	8.4600	0	33.4780	0	26.012	0	128.905	0	195.5	4	68.1	4	-1E+10	1	-1E+10	1	-1E+10	1	-1E+10	1	-1E+10	1	-1E+10	1
4901784	22	C	02/10/2016	10:47	-131.742	44.940	0	132.90	0	8.4180	0	33.5040	0	26.039	0	131.779	0	194.7	4	67.8	4	-1E+10	1	-1E+10	1	-1E+10	1	-1E+10	1	-1E+10	1	-1E+10	1
4901784	22	C	02/10/2016	10:47	-131.742	44.940	0	134.70	0	8.4160	0	33.5120	0	26.046	0	133.564	0	194.5	4	67.7	4	-1E+10	1	-1E+10	1	-1E+10	1	-1E+10	1	-1E+10	1	-1E+10	1
4901784	22	C	02/10/2016	10:47	-131.742	44.940	0	137.50	0	8.4160	0	33.5270	0	26.057	0	136.339	0	193.8	4	67.5	4	-1E+10	1	-1E+10	1	-1E+10	1	-1E+10	1	-1E+10	1	-1E+10	1
4901784	22	C	02/10/2016	10:47	-131.742	44.940	0	140.40	0	8.3950	0	33.5420	0	26.072	0	139.214	0	192.8	4	67.1	4	-1E+10	1	-1E+10	1	-1E+10	1	-1E+10	1	-1E+10	1	-1E+10	1
4901784	22	C	02/10/2016	10:47	-131.742	44.940	0	142.40	0	8.3670	0	33.5560	0	26.088	0	141.196	0	192.5	4	66.9	4	-1E+10	1	-1E+10	1	-1E+10	1	-1E+10	1	-1E+10	1	-1E+10	1
4901784	22	C	02/10/2016	10:47	-131.742	44.940	0	144.90	0	8.3620	0	33.5640	0	26.095	0	143.674	0	192.3	4	66.9	4	-1E+10	1	-1E+10	1	-1E+10	1	-1E+10	1	-1E+10	1	-1E+10	1
4901784	22	C	02/10/2016	10:47	-131.742	44.940	0	147.70	0	8.3530	0	33.5740	0	26.104	0	146.449	0	192.0	4	66.8	4	-1E+10	1	-1E+10	1	-1E+10	1	-1E+10	1	-1E+10	1	-1E+10	1
4901784	22	C	02/10/2016	10:47	-131.742	44.940	0	150.10	0	8.3350	0	33.5850	0	26.115	0	148.828	0	191.8	4	66.7	4	-1E+10	1	-1E+10	1	-1E+10	1	-1E+10	1	-1E+10	1	-1E+10	1
4901784	22	C	02/10/2016	10:47	-131.742	44.940	0	152.50	0	8.3370	0	33.6220	0	26.144	0	151.207	0	191.4	4	66.5	4	-1E+10	1	-1E+10	1	-1E+10	1	-1E+10	1	-1E+10	1	-1E+10	1
4901784	22	C	02/10/2016	10:47	-131.742	44.940	0	154.90	0	8.3110	0	33.6490	0	26.169	0	153.586	0	191.6	4	66.6	4	-1E+10	1	-1E+10	1	-1E+10	1	-1E+10	1	-1E+10	1	-1E+10	1
4901784	22	C	02/10/2016	10:47	-131.742	44.940	0	157.30	0	8.3090	0	33.6980	0	26.208	0	155.965	0	191.5	4	66.6	4	-1E+10	1	-1E+10	1	-1E+10	1	-1E+10	1	-1E+10	1	-1E+10	1
4901784	22	C	02/10/2016	10:47	-131.742	44.940	0	159.80	0	8.2930	0	33.7090	0	26.219	0	158.442	0	191.9	4	66.7	4	-1E+10	1	-1E+10	1	-1E+10	1	-1E+10	1	-1E+10	1	-1E+10	1
4901784	22	C	02/10/2016	10:47	-131.742	44.940	0	162.30	0	8.2830	0	33.7230	0	26.232	0	160.920	0	192.4	4	66.8	4	-1E+10	1	-1E+10	1	-1E+10	1	-1E+10	1	-1E+10	1	-1E+10	1
4901784	22	C	02/10/2016	10:47	-131.742	44.940	0	164.90	0	8.2770	0	33.7300	0	26.238	0	163.497	0	192.5	4	66.9	4	-1E+10	1	-1E+10	1	-1E+10	1	-1E+10	1	-1E+10	1	-1E+10	1
4901784	22	C	02/10/2016	10:47	-131.742	44.940	0	167.50	0	8.1960	0	33.7390	0	26.257	0	166.074	0	192.3	4	66.7	4	-1E+10	1	-1E+10	1	-1E+10	1	-1E+10	1	-1E+10	1	-1E+10	1
4901784	22	C	02/10/2016	10:47	-131.742	44.940	0	170.10	0	8.1210	0	33.7420	0	26.271	0	168.651	0	191.6	4	66.3	4	-1E+10	1	-1E+10	1	-1E+10	1	-1E+10	1	-1E+10	1	-1E+10	1
4901784	22	C	02/10/2016	10:47	-131.742	44.940	0	172.80	0	8.0740	0	33.7520	0	26.286	0	171.327	0	190.5	4	65.9	4	-1E+10	1	-1E+10	1	-1E+10	1	-1E+10	1	-1E+10	1	-1E+10	1
4901784	22	C	02/10/2016	10:47	-131.742	44.940	0	175.50	0	8.0330	0	33.7620	0	26.300	0	174.002	0	189.6	4	65.5	4	-1E+10	1	-1E+10	1	-1E+10	1	-1E+10	1	-1E+10	1	-1E+10	1
4901784	22	C	02/10/2016	10:47	-131.742	44.940	0	177.40	0	7.9970	0	33.7800	0	26.319	0	175.885	0	188.6	4	65.2	4	-1E+10	1	-1E+10	1	-1E+10	1	-1E+10	1	-1E+10	1	-1E+10	1
4901784	22	C	02/10/2016	10:47	-131.742	44.940	0	180.10	0	8.0630	0	33.8060	0	26.330	0	178.561	0	187.0	4	64.7	4	-1E+10	1	-1E+10	1	-1E+10	1	-1E+10	1	-1E+10	1	-1E+10	1
4901784	22	C	02/10/2016	10:47	-131.742	44.940	0	182.90	0	8.1070	0	33.8230	0	26.337	0	181.336	0	185.7	4	64.3	4	-1E+10	1	-1E+10	1	-1E+10	1	-1E+10	1	-1E+10	1	-1E+10	1
4901784	22	C	02/10/2016	10:47	-131.742	44.940	0	184.70	0	8.0800	0	33.8320	0	26.348	0	183.120	0	184.9	4	64.0	4	-1E+10	1	-1E+10	1	-1E+10	1	-1E+10	1	-1E+10	1	-1E+10	1
4901784	22	C	02/10/2016	10:47	-131.742	44.940	0	187.40	0	7.9630	0	33.8230	0	26.358	0	185.795	0	184.2	4	63.6	4	-1E+10	1	-1E+10	1	-1E+10	1	-1E+10	1	-1E+10	1	-1E+10	1
4901784	22	C	02/10/2016	10:47	-131.742	44.940	0	190.10	0	7.8140	0	33.8180	0	26.376	0	188.471	0	183.0	4	63.0	4	-1E+10	1	-1E+10	1	-1E+10	1	-1E+10	1	-1E+10	1	-1E+10	1
4901784	22	C	02/10/2016	10:47	-131.742	44.940	0	191.90	0	7.7810	0	33.8210	0	26.383	0	190.255	0	181.4	4	62.4	4	-1E+10	1	-1E+10	1	-1E+10	1	-1E+10	1	-1E+10	1	-1E+10	1
4901784	22	C	02/10/2016	10:47	-131.742	44.940	0	194.70	0	7.7090	0	33.8310	0	26.401	0	193.030	0	179.3	4	61.6	4	-1E+10	1	-1E+10	1	-1E+10	1	-1E+10	1	-1E+10	1	-1E+10	1
4901784	22	C	02/10/2016	10:47	-131.742	44.940	0	197.60	0	7.6950	0	33.8310	0	26.403	0	195.903	0	177.5	4	60.9	4	-1E+10	1	-1E+10	1	-1E+10	1	-1E+10	1	-1E+10	1	-1E+10	1
4901784	22	C	02/10/2016	10:47	-131.742	44.940	0	199.50	0	7.6850	0	33.8300	0	26.404	0	197.786	0	175.8	4	60.3	4	-1E+10	1	-1E+10	1	-1E+10	1	-1E+10	1	-1E+10	1	-1E+10	1
4901784	22	C	02/10/2016	10:47	-131.742	44.940	0	202.30	0	7.6020	0	33.8360	0	26.421	0	200.561	0	173.1	4	59.3	4	-1E+10	1	-1E+10	1	-1E+10	1	-1E+10	1	-1E+10	1	-1E+10	1
4901784	22	C	02/10/2016	10:47	-131.742	44.940	0	205.20	0	7.5320	0	33.8400	0	26.434	0	203.434	0	171.8	4	58.8	4	-1E+10	1	-1E+10	1	-1E+10	1	-1E+10	1	-1E+10	1	-1E+10	1
4901784	22	C	02/10/2016	10:47	-131.742	44.940	0	207.20	0	7.5000	0	33.8440	0	26.442	0	205.416	0	170.8	4	58.4	4	-1E+10	1	-1E+10	1	-1E+10	1	-1E+10	1	-1E+10	1	-1E+10	1
4901784	22	C	02/10/2016	10:47	-131.742	44.940	0	209.70	0	7.4750	0	33.8450	0	26.446	0	207.893	0	170.0	4	58.1	4	-1E+10	1	-1E+10	1	-1E+10	1	-1E+10	1	-1E+10	1	-1E+10	1
4901784	22	C	02/10/2016	10:47	-131.742	44.940	0	212.40	0	7.4610	0	33.8470	0	26.449	0	210.569	0	169.5	4	57.9	4	-1E+10	1	-1E+10	1	-1E+10	1	-1E+10	1	-1E+10	1	-1E+10	1
4901784	22	C	02/10/2016	10:47	-131.742	44.940	0	214.80	0	7.4640	0	33.8470	0	26.449	0	212.947	0	168.8	4	57.6	4	-1E+10	1	-1E+10	1	-1E+10	1	-1E+10	1	-1E+10	1	-1E+10	1
4901784	22	C	02/10/2016	10:47	-131.742	44.940	0	217.20	0	7.4320	0	33.8520	0	26.458	0	215.325	0	167.0	4	57.0	4	-1E+10	1	-1E+10	1	-1E+10	1	-1E+10	1	-1E+10	1	-1E+10	1
4901784	22	C	02/10/2016	10:47	-131.742	44.940	0	219.70	0	7.3730	0	33.8560	0	26.469	0	217.802	0	165.4	4	56.4	4	-1E+10	1	-1E+10	1	-1E+10	1	-1E+10	1	-1E+10	1	-1E+10	1
4901784	22	C	02/10/2016	10:47	-131.742	44.940	0	222.10	0	7.3560	0	33.8560	0	26.471	0	220.180	0	163.7	4	55.8	4	-1E+10	1	-1E+10	1	-1E+10	1	-1E+10	1	-1E+10	1	-1E+10	1
4901784	22	C	02/10/2016	10:47	-131.742	44.940	0	225.40	0	7.3370	0	33.8550	0	26.473	0	223.450	0	161.2	4	54.9	4	-1E+10	1	-1E+10	1	-1E+10	1	-1E+10	1	-1E+10	1	-1E+10	1
4901784	22	C	02/10/2016	10:47	-131.742	44.940	0	227.90	0	7.3230	0	33.8540	0	26.475	0	225.927	0	158.1	4	53.8	4	-1E+10	1	-1E+10	1	-1E+10	1	-1E+10	1	-1E+10	1	-1E+10	1
4901784	22	C	02/10/2016	10:47	-131.742	44.940	0	230.30	0	7.2440	0	33.8550	0	26.486	0	228.305	0	154.2	4	52.4	4	-1E+10	1	-1E+10	1	-1E+10	1	-1E+10	1	-1E+10	1	-1E+10	1
4901784	22	C	02/10/2016	10:47	-131.742	44.940	0	232.90	0	7.1630	0	33.8580	0	26.500	0	230.881	0	151.2	4	51.3	4	-1E+10	1	-1E+10	1	-1E+10	1	-1E+10	1	-1E+10	1	-1E+10	1
4901784	22	C	02/10/2016	10:47	-131.742	44.940	0	235.40	0	7.1410	0	33.8580	0	26.503	0	233.357	0	148.7	4	50.4	4	-1E+10	1	-1E+10	1	-1E+10	1	-1E+10	1	-1E+10	1	-1E+10	1
4901784	22	C	02/10/2016	10:47	-131.742	44.940	0	237.90	0	7.1190	0	33.8580	0	26.506	0	235.834	0	146.5	4	49.6	4	-1E+10	1	-1E+10	1	-1E+10	1	-1E+10	1	-1E+10	1	-1E+10	1
4901784	22	C	02/10/2016	10:47	-131.742	44.940	0	239.60	0	7.1060	0	33.8570	0	26.507	0	237.519	0	145.1	4	49.2	4	-1E+10	1	-1E+10	1	-1E+10	1	-1E+10	1	-1E+10	1	-1E+10	1
4901784	22	C	02/10/2016	10:47	-131.742	44.940	0	242.10	0	7.0480	0	33.8620	0	26.519	0	239.995	0	142.8	4	48.3	4	-1E+10	1	-1E+10	1	-1E+10	1	-1E+10	1	-1E+10	1	-1E+10	1
4901784	22	C	02/10/2016	10:47	-131.742	44.940	0	244.70	0	7.0220	0	33.8630	0	26.523	0	242.571	0	140.6	4	47.5	4	-1E+10	1	-1E+10	1	-1E+10	1	-1E+10	1	-1E+10	1	-1E+10	1
4901784	22	C	02/10/2016	10:47	-131.742	44.940	0	247.20	0	7.0110	0	33.8630	0	26.525	0	245.048	0	137.6	4	46.5	4	-1E+10	1	-1E+10	1	-1E+10	1	-1E+10	1	-1E+10	1	-1E+10	1
4901784	22	C	02/10/2016	10:47	-131.742	44.940	0	249.80	0	6.9690	0	33.8660	0	26.533	0	247.624	0	134.1	4	45.3	4	-1E+10	1	-1E+10	1	-1E+10	1	-1E+10	1	-1E+10	1	-1E+10	1
4901784	22	C	02/10/2016	10:47	-131.742	44.940	0	252.30	0	6.9510	0	33.8690	0	26.538	0	250.101	0	131.7	4	44.5	4	-1E+10	1	-1E+10	1	-1E+10	1	-1E+10	1	-1E+10	1	-1E+10	1
4901784	22	C	02/10/2016	10:47	-131.742	44.940	0	254.90	0	6.9340	0	33.8710	0	26.542	0	252.676	0	130.7	4	44.1	4	-1E+10	1	-1E+10	1	-1E+10	1	-1E+10	1	-1E+10	1	-1E+10	1
4901784	22	C	02/10/2016	10:47	-131.742	44.940	0	257.50	0	6.8760	0	33.8720	0	26.550	0	255.252	0	130.0	4	43.8	4	-1E+10	1	-1E+10	1	-1E+10	1	-1E+10	1	-1E+10	1	-1E+10	1
4901784	22	C	02/10/2016	10:47	-131.742	44.940	0	260.10	0	6.8390	0	33.8730	0	26.556	0	257.828	0	128.2	4	43.2	4	-1E+10	1	-1E+10	1	-1E+10	1	-1E+10	1	-1E+10	1	-1E+10	1
4901784	22	C	02/10/2016	10:47	-131.742	44.940	0	262.70	0	6.8080	0	33.8750	0	26.562	0	260.403	0	125.5	4	42.2	4	-1E+10	1	-1E+10	1	-1E+10	1	-1E+10	1	-1E+10	1	-1E+10	1
4901784	22	C	02/10/2016	10:47	-131.742	44.940	0	265.20	0	6.7860	0	33.8770	0	26.567	0	262.880	0	122.8	4	41.3	4	-1E+10	1	-1E+10	1	-1E+10	1	-1E+10	1	-1E+10	1	-1E+10	1
4901784	22	C	02/10/2016	10:47	-131.742	44.940	0	267.80	0	6.7430	0	33.8800	0	26.575	0	265.456	0	121.0	4	40.7	4	-1E+10	1	-1E+10	1	-1E+10	1	-1E+10	1	-1E+10	1	-1E+10	1
4901784	22	C	02/10/2016	10:47	-131.742	44.940	0	270.30	0	6.7110	0	33.8810	0	26.580	0	267.932	0	119.5	4	40.1	4	-1E+10	1	-1E+10	1	-1E+10	1	-1E+10	1	-1E+10	1	-1E+10	1
4901784	22	C	02/10/2016	10:47	-131.742	44.940	0	272.00	0	6.6590	0	33.8850	0	26.590	0	269.616	0	118.6	4	39.8	4	-1E+10	1	-1E+10	1	-1E+10	1	-1E+10	1	-1E+10	1	-1E+10	1
4901784	22	C	02/10/2016	10:47	-131.742	44.940	0	274.70	0	6.6440	0	33.8860	0	26.593	0	272.291	0	117.7	4	39.5	4	-1E+10	1	-1E+10	1	-1E+10	1	-1E+10	1	-1E+10	1	-1E+10	1
4901784	22	C	02/10/2016	10:47	-131.742	44.940	0	277.30	0	6.6020	0	33.8900	0	26.601	0	274.866	0	117.0	4	39.2	4	-1E+10	1	-1E+10	1	-1E+10	1	-1E+10	1	-1E+10	1	-1E+10	1
4901784	22	C	02/10/2016	10:47	-131.742	44.940	0	280.00	0	6.5770	0	33.8890	0	26.604	0	277.541	0	116.5	4	39.0	4	-1E+10	1	-1E+10	1	-1E+10	1	-1E+10	1	-1E+10	1	-1E+10	1
4901784	22	C	02/10/2016	10:47	-131.742	44.940	0	282.50	0	6.5540	0	33.8890	0	26.607	0	280.017	0	115.8	4	38.8	4	-1E+10	1	-1E+10	1	-1E+10	1	-1E+10	1	-1E+10	1	-1E+10	1
4901784	22	C	02/10/2016	10:47	-131.742	44.940	0	285.20	0	6.5390	0	33.8900	0	26.610	0	282.691	0	115.1	4	38.5	4	-1E+10	1	-1E+10	1	-1E+10	1	-1E+10	1	-1E+10	1	-1E+10	1
4901784	22	C	02/10/2016	10:47	-131.742	44.940	0	287.80	0	6.5150	0	33.8910	0	26.614	0	285.267	0	114.3	4	38.2	4	-1E+10	1	-1E+10	1	-1E+10	1	-1E+10	1	-1E+10	1	-1E+10	1
4901784	22	C	02/10/2016	10:47	-131.742	44.940	0	289.60	0	6.4990	0	33.8900	0	26.615	0	287.050	0	113.5	4	37.9	4	-1E+10	1	-1E+10	1	-1E+10	1	-1E+10	1	-1E+10	1	-1E+10	1
4901784	22	C	02/10/2016	10:47	-131.742	44.940	0	292.20	0	6.4680	0	33.8910	0	26.620	0	289.625	0	112.4	4	37.5	4	-1E+10	1	-1E+10	1	-1E+10	1	-1E+10	1	-1E+10	1	-1E+10	1
4901784	22	C	02/10/2016	10:47	-131.742	44.940	0	294.70	0	6.4200	0	33.8930	0	26.628	0	292.101	0	111.3	4	37.1	4	-1E+10	1	-1E+10	1	-1E+10	1	-1E+10	1	-1E+10	1	-1E+10	1
4901784	22	C	02/10/2016	10:47	-131.742	44.940	0	297.30	0	6.3870	0	33.8940	0	26.633	0	294.676	0	110.1	4	36.7	4	-1E+10	1	-1E+10	1	-1E+10	1	-1E+10	1	-1E+10	1	-1E+10	1
4901784	22	C	02/10/2016	10:47	-131.742	44.940	0	299.90	0	6.3550	0	33.8950	0	26.638	0	297.251	0	108.8	4	36.2	4	-1E+10	1	-1E+10	1	-1E+10	1	-1E+10	1	-1E+10	1	-1E+10	1
4901784	22	C	02/10/2016	10:47	-131.742	44.940	0	302.50	0	6.3230	0	33.8960	0	26.643	0	299.827	0	107.7	4	35.8	4	-1E+10	1	-1E+10	1	-1E+10	1	-1E+10	1	-1E+10	1	-1E+10	1
4901784	22	C	02/10/2016	10:47	-131.742	44.940	0	305.10	0	6.2680	0	33.8970	0	26.651	0	302.402	0	106.3	4	35.3	4	-1E+10	1	-1E+10	1	-1E+10	1	-1E+10	1	-1E+10	1	-1E+10	1
4901784	22	C	02/10/2016	10:47	-131.742	44.940	0	307.80	0	6.2320	0	33.9020	0	26.659	0	305.076	0	105.3	4	35.0	4	-1E+10	1	-1E+10	1	-1E+10	1	-1E+10	1	-1E+10	1	-1E+10	1
4901784	22	C	02/10/2016	10:47	-131.742	44.940	0	310.40	0	6.2290	0	33.9010	0	26.659	0	307.651	0	105.0	4	34.9	4	-1E+10	1	-1E+10	1	-1E+10	1	-1E+10	1	-1E+10	1	-1E+10	1
4901784	22	C	02/10/2016	10:47	-131.742	44.940	0	312.10	0	6.2140	0	33.9030	0	26.662	0	309.335	0	105.2	4	34.9	4	-1E+10	1	-1E+10	1	-1E+10	1	-1E+10	1	-1E+10	1	-1E+10	1
4901784	22	C	02/10/2016	10:47	-131.742	44.940	0	314.70	0	6.1850	0	33.9000	0	26.664	0	311.910	0	105.7	4	35.1	4	-1E+10	1	-1E+10	1	-1E+10	1	-1E+10	1	-1E+10	1	-1E+10	1
4901784	22	C	02/10/2016	10:47	-131.742	44.940	0	317.40	0	6.1600	0	33.8990	0	26.666	0	314.584	0	105.4	4	35.0	4	-1E+10	1	-1E+10	1	-1E+10	1	-1E+10	1	-1E+10	1	-1E+10	1
4901784	22	C	02/10/2016	10:47	-131.742	44.940	0	320.00	0	6.1210	0	33.9010	0	26.673	0	317.159	0	104.8	4	34.7	4	-1E+10	1	-1E+10	1	-1E+10	1	-1E+10	1	-1E+10	1	-1E+10	1
4901784	22	C	02/10/2016	10:47	-131.742	44.940	0	322.70	0	6.1050	0	33.9000	0	26.674	0	319.833	0	104.0	4	34.4	4	-1E+10	1	-1E+10	1	-1E+10	1	-1E+10	1	-1E+10	1	-1E+10	1
4901784	22	C	02/10/2016	10:47	-131.742	44.940	0	324.60	0	6.0990	0	33.9000	0	26.675	0	321.714	0	103.3	4	34.2	4	-1E+10	1	-1E+10	1	-1E+10	1	-1E+10	1	-1E+10	1	-1E+10	1
4901784	22	C	02/10/2016	10:47	-131.742	44.940	0	327.30	0	6.0680	0	33.9020	0	26.680	0	324.388	0	102.2	4	33.8	4	-1E+10	1	-1E+10	1	-1E+10	1	-1E+10	1	-1E+10	1	-1E+10	1
4901784	22	C	02/10/2016	10:47	-131.742	44.940	0	329.90	0	6.0480	0	33.9010	0	26.682	0	326.963	0	101.1	4	33.4	4	-1E+10	1	-1E+10	1	-1E+10	1	-1E+10	1	-1E+10	1	-1E+10	1
4901784	22	C	02/10/2016	10:47	-131.742	44.940	0	332.50	0	6.0180	0	33.9050	0	26.689	0	329.538	0	100.4	4	33.2	4	-1E+10	1	-1E+10	1	-1E+10	1	-1E+10	1	-1E+10	1	-1E+10	1
4901784	22	C	02/10/2016	10:47	-131.742	44.940	0	335.20	0	5.9850	0	33.9030	0	26.691	0	332.211	0	100.2	4	33.1	4	-1E+10	1	-1E+10	1	-1E+10	1	-1E+10	1	-1E+10	1	-1E+10	1
4901784	22	C	02/10/2016	10:47	-131.742	44.940	0	337.80	0	5.9480	0	33.9030	0	26.696	0	334.786	0	99.5	4	32.8	4	-1E+10	1	-1E+10	1	-1E+10	1	-1E+10	1	-1E+10	1	-1E+10	1
4901784	22	C	02/10/2016	10:47	-131.742	44.940	0	340.50	0	5.9170	0	33.9030	0	26.700	0	337.460	0	98.7	4	32.6	4	-1E+10	1	-1E+10	1	-1E+10	1	-1E+10	1	-1E+10	1	-1E+10	1
4901784	22	C	02/10/2016	10:47	-131.742	44.940	0	342.40	0	5.9000	0	33.9040	0	26.703	0	339.341	0	98.0	4	32.3	4	-1E+10	1	-1E+10	1	-1E+10	1	-1E+10	1	-1E+10	1	-1E+10	1
4901784	22	C	02/10/2016	10:47	-131.742	44.940	0	345.20	0	5.8830	0	33.9040	0	26.705	0	342.114	0	96.7	4	31.8	4	-1E+10	1	-1E+10	1	-1E+10	1	-1E+10	1	-1E+10	1	-1E+10	1
4901784	22	C	02/10/2016	10:47	-131.742	44.940	0	347.90	0	5.8550	0	33.9060	0	26.710	0	344.788	0	95.3	4	31.4	4	-1E+10	1	-1E+10	1	-1E+10	1	-1E+10	1	-1E+10	1	-1E+10	1
4901784	22	C	02/10/2016	10:47	-131.742	44.940	0	349.80	0	5.8390	0	33.9050	0	26.711	0	346.669	0	94.3	4	31.0	4	-1E+10	1	-1E+10	1	-1E+10	1	-1E+10	1	-1E+10	1	-1E+10	1
4901784	22	C	02/10/2016	10:47	-131.742	44.940	0	352.60	0	5.8110	0	33.9070	0	26.716	0	349.442	0	92.2	4	30.3	4	-1E+10	1	-1E+10	1	-1E+10	1	-1E+10	1	-1E+10	1	-1E+10	1
4901784	22	C	02/10/2016	10:47	-131.742	44.940	0	355.30	0	5.7740	0	33.9090	0	26.722	0	352.115	0	90.7	4	29.8	4	-1E+10	1	-1E+10	1	-1E+10	1	-1E+10	1	-1E+10	1	-1E+10	1
4901784	22	C	02/10/2016	10:47	-131.742	44.940	0	357.20	0	5.7490	0	33.9100	0	26.726	0	353.997	0	89.8	4	29.5	4	-1E+10	1	-1E+10	1	-1E+10	1	-1E+10	1	-1E+10	1	-1E+10	1
4901784	22	C	02/10/2016	10:47	-131.742	44.940	0	360.00	0	5.7290	0	33.9130	0	26.731	0	356.769	0	88.4	4	29.0	4	-1E+10	1	-1E+10	1	-1E+10	1	-1E+10	1	-1E+10	1	-1E+10	1
4901784	22	C	02/10/2016	10:47	-131.742	44.940	0	362.70	0	5.7130	0	33.9140	0	26.734	0	359.442	0	87.1	4	28.6	4	-1E+10	1	-1E+10	1	-1E+10	1	-1E+10	1	-1E+10	1	-1E+10	1
4901784	22	C	02/10/2016	10:47	-131.742	44.940	0	364.50	0	5.7000	0	33.9140	0	26.735	0	361.225	0	86.5	4	28.4	4	-1E+10	1	-1E+10	1	-1E+10	1	-1E+10	1	-1E+10	1	-1E+10	1
4901784	22	C	02/10/2016	10:47	-131.742	44.940	0	367.30	0	5.6740	0	33.9140	0	26.739	0	363.997	0	85.1	4	27.9	4	-1E+10	1	-1E+10	1	-1E+10	1	-1E+10	1	-1E+10	1	-1E+10	1
4901784	22	C	02/10/2016	10:47	-131.742	44.940	0	370.00	0	5.6360	0	33.9170	0	26.746	0	366.670	0	83.5	4	27.4	4	-1E+10	1	-1E+10	1	-1E+10	1	-1E+10	1	-1E+10	1	-1E+10	1
4901784	22	C	02/10/2016	10:47	-131.742	44.940	0	372.80	0	5.6110	0	33.9190	0	26.750	0	369.443	0	81.9	4	26.8	4	-1E+10	1	-1E+10	1	-1E+10	1	-1E+10	1	-1E+10	1	-1E+10	1
4901784	22	C	02/10/2016	10:47	-131.742	44.940	0	375.60	0	5.5840	0	33.9200	0	26.754	0	372.215	0	80.4	4	26.3	4	-1E+10	1	-1E+10	1	-1E+10	1	-1E+10	1	-1E+10	1	-1E+10	1
4901784	22	C	02/10/2016	10:47	-131.742	44.940	0	377.50	0	5.5780	0	33.9200	0	26.755	0	374.096	0	79.1	4	25.9	4	-1E+10	1	-1E+10	1	-1E+10	1	-1E+10	1	-1E+10	1	-1E+10	1
4901784	22	C	02/10/2016	10:47	-131.742	44.940	0	379.40	0	5.5580	0	33.9210	0	26.758	0	375.977	0	77.7	4	25.4	4	-1E+10	1	-1E+10	1	-1E+10	1	-1E+10	1	-1E+10	1	-1E+10	1
4901784	22	C	02/10/2016	10:47	-131.742	44.940	0	382.20	0	5.5200	0	33.9250	0	26.766	0	378.749	0	75.2	4	24.6	4	-1E+10	1	-1E+10	1	-1E+10	1	-1E+10	1	-1E+10	1	-1E+10	1
4901784	22	C	02/10/2016	10:47	-131.742	44.940	0	385.00	0	5.4970	0	33.9300	0	26.773	0	381.522	0	72.9	4	23.8	4	-1E+10	1	-1E+10	1	-1E+10	1	-1E+10	1	-1E+10	1	-1E+10	1
4901784	22	C	02/10/2016	10:47	-131.742	44.940	0	387.00	0	5.4760	0	33.9320	0	26.777	0	383.502	0	71.3	4	23.3	4	-1E+10	1	-1E+10	1	-1E+10	1	-1E+10	1	-1E+10	1	-1E+10	1
4901784	22	C	02/10/2016	10:47	-131.742	44.940	0	389.80	0	5.4440	0	33.9380	0	26.785	0	386.274	0	69.4	4	22.6	4	-1E+10	1	-1E+10	1	-1E+10	1	-1E+10	1	-1E+10	1	-1E+10	1
4901784	22	C	02/10/2016	10:47	-131.742	44.940	0	392.60	0	5.4370	0	33.9420	0	26.789	0	389.046	0	67.7	4	22.1	4	-1E+10	1	-1E+10	1	-1E+10	1	-1E+10	1	-1E+10	1	-1E+10	1
4901784	22	C	02/10/2016	10:47	-131.742	44.940	0	394.60	0	5.4400	0	33.9470	0	26.793	0	391.026	0	66.9	4	21.8	4	-1E+10	1	-1E+10	1	-1E+10	1	-1E+10	1	-1E+10	1	-1E+10	1
4901784	22	C	02/10/2016	10:47	-131.742	44.940	0	397.50	0	5.4200	0	33.9480	0	26.796	0	393.897	0	66.3	4	21.6	4	-1E+10	1	-1E+10	1	-1E+10	1	-1E+10	1	-1E+10	1	-1E+10	1
4901784	22	C	02/10/2016	10:47	-131.742	44.940	0	400.40	0	5.3910	0	33.9500	0	26.801	0	396.768	0	65.7	4	21.4	4	-1E+10	1	-1E+10	1	-1E+10	1	-1E+10	1	-1E+10	1	-1E+10	1
4901784	22	C	02/10/2016	10:47	-131.742	44.940	0	402.40	0	5.3870	0	33.9490	0	26.801	0	398.748	0	65.3	4	21.3	4	-1E+10	1	-1E+10	1	-1E+10	1	-1E+10	1	-1E+10	1	-1E+10	1
4901784	22	C	02/10/2016	10:47	-131.742	44.940	0	405.30	0	5.3810	0	33.9500	0	26.803	0	401.619	0	64.3	4	21.0	4	-1E+10	1	-1E+10	1	-1E+10	1	-1E+10	1	-1E+10	1	-1E+10	1
4901784	22	C	02/10/2016	10:47	-131.742	44.940	0	408.20	0	5.3580	0	33.9540	0	26.808	0	404.489	0	63.5	4	20.7	4	-1E+10	1	-1E+10	1	-1E+10	1	-1E+10	1	-1E+10	1	-1E+10	1
4901784	22	C	02/10/2016	10:47	-131.742	44.940	0	410.20	0	5.3460	0	33.9540	0	26.810	0	406.469	0	63.3	4	20.6	4	-1E+10	1	-1E+10	1	-1E+10	1	-1E+10	1	-1E+10	1	-1E+10	1
4901784	22	C	02/10/2016	10:47	-131.742	44.940	0	412.20	0	5.3430	0	33.9540	0	26.810	0	408.449	0	63.0	4	20.5	4	-1E+10	1	-1E+10	1	-1E+10	1	-1E+10	1	-1E+10	1	-1E+10	1
4901784	22	C	02/10/2016	10:47	-131.742	44.940	0	415.20	0	5.3040	0	33.9540	0	26.815	0	411.419	0	62.3	4	20.3	4	-1E+10	1	-1E+10	1	-1E+10	1	-1E+10	1	-1E+10	1	-1E+10	1
4901784	22	C	02/10/2016	10:47	-131.742	44.940	0	418.20	0	5.2890	0	33.9580	0	26.820	0	414.389	0	61.0	4	19.8	4	-1E+10	1	-1E+10	1	-1E+10	1	-1E+10	1	-1E+10	1	-1E+10	1
4901784	22	C	02/10/2016	10:47	-131.742	44.940	0	420.10	0	5.2900	0	33.9610	0	26.822	0	416.269	0	60.4	4	19.6	4	-1E+10	1	-1E+10	1	-1E+10	1	-1E+10	1	-1E+10	1	-1E+10	1
4901784	22	C	02/10/2016	10:47	-131.742	44.940	0	422.10	0	5.2890	0	33.9620	0	26.823	0	418.249	0	59.8	4	19.4	4	-1E+10	1	-1E+10	1	-1E+10	1	-1E+10	1	-1E+10	1	-1E+10	1
4901784	22	C	02/10/2016	10:47	-131.742	44.940	0	425.10	0	5.2910	0	33.9630	0	26.824	0	421.219	0	58.9	4	19.1	4	-1E+10	1	-1E+10	1	-1E+10	1	-1E+10	1	-1E+10	1	-1E+10	1
4901784	22	C	02/10/2016	10:47	-131.742	44.940	0	428.20	0	5.2840	0	33.9650	0	26.826	0	424.287	0	57.9	4	18.8	4	-1E+10	1	-1E+10	1	-1E+10	1	-1E+10	1	-1E+10	1	-1E+10	1
4901784	22	C	02/10/2016	10:47	-131.742	44.940	0	430.20	0	5.2810	0	33.9660	0	26.827	0	426.267	0	57.2	4	18.6	4	-1E+10	1	-1E+10	1	-1E+10	1	-1E+10	1	-1E+10	1	-1E+10	1
4901784	22	C	02/10/2016	10:47	-131.742	44.940	0	432.20	0	5.2750	0	33.9680	0	26.829	0	428.247	0	56.6	4	18.4	4	-1E+10	1	-1E+10	1	-1E+10	1	-1E+10	1	-1E+10	1	-1E+10	1
4901784	22	C	02/10/2016	10:47	-131.742	44.940	0	434.20	0	5.2420	0	33.9730	0	26.837	0	430.226	0	56.2	4	18.2	4	-1E+10	1	-1E+10	1	-1E+10	1	-1E+10	1	-1E+10	1	-1E+10	1
4901784	22	C	02/10/2016	10:47	-131.742	44.940	0	437.30	0	5.2230	0	33.9730	0	26.840	0	433.295	0	55.6	4	18.1	4	-1E+10	1	-1E+10	1	-1E+10	1	-1E+10	1	-1E+10	1	-1E+10	1
4901784	22	C	02/10/2016	10:47	-131.742	44.940	0	440.30	0	5.2230	0	33.9730	0	26.840	0	436.264	0	55.0	4	17.9	4	-1E+10	1	-1E+10	1	-1E+10	1	-1E+10	1	-1E+10	1	-1E+10	1
4901784	22	C	02/10/2016	10:47	-131.742	44.940	0	442.70	0	5.2130	0	33.9740	0	26.842	0	438.639	0	54.3	4	17.6	4	-1E+10	1	-1E+10	1	-1E+10	1	-1E+10	1	-1E+10	1	-1E+10	1
4901784	22	C	02/10/2016	10:47	-131.742	44.940	0	445.10	0	5.1870	0	33.9750	0	26.845	0	441.015	0	53.6	4	17.4	4	-1E+10	1	-1E+10	1	-1E+10	1	-1E+10	1	-1E+10	1	-1E+10	1
4901784	22	C	02/10/2016	10:47	-131.742	44.940	0	447.60	0	5.1540	0	33.9780	0	26.852	0	443.489	0	52.9	4	17.2	4	-1E+10	1	-1E+10	1	-1E+10	1	-1E+10	1	-1E+10	1	-1E+10	1
4901784	22	C	02/10/2016	10:47	-131.742	44.940	0	450.10	0	5.1370	0	33.9800	0	26.855	0	445.964	0	52.2	4	16.9	4	-1E+10	1	-1E+10	1	-1E+10	1	-1E+10	1	-1E+10	1	-1E+10	1
4901784	22	C	02/10/2016	10:47	-131.742	44.940	0	452.60	0	5.1290	0	33.9810	0	26.857	0	448.438	0	51.3	4	16.6	4	-1E+10	1	-1E+10	1	-1E+10	1	-1E+10	1	-1E+10	1	-1E+10	1
4901784	22	C	02/10/2016	10:47	-131.742	44.940	0	455.10	0	5.1210	0	33.9820	0	26.859	0	450.912	0	50.2	4	16.2	4	-1E+10	1	-1E+10	1	-1E+10	1	-1E+10	1	-1E+10	1	-1E+10	1
4901784	22	C	02/10/2016	10:47	-131.742	44.940	0	457.50	0	5.0950	0	33.9870	0	26.866	0	453.287	0	48.8	4	15.8	4	-1E+10	1	-1E+10	1	-1E+10	1	-1E+10	1	-1E+10	1	-1E+10	1
4901784	22	C	02/10/2016	10:47	-131.742	44.940	0	460.00	0	5.0820	0	33.9920	0	26.871	0	455.762	0	47.3	4	15.3	4	-1E+10	1	-1E+10	1	-1E+10	1	-1E+10	1	-1E+10	1	-1E+10	1
4901784	22	C	02/10/2016	10:47	-131.742	44.940	0	462.50	0	5.1020	0	33.9970	0	26.873	0	458.236	0	46.0	4	14.9	4	-1E+10	1	-1E+10	1	-1E+10	1	-1E+10	1	-1E+10	1	-1E+10	1
4901784	22	C	02/10/2016	10:47	-131.742	44.940	0	465.00	0	5.0970	0	34.0030	0	26.878	0	460.710	0	45.0	4	14.6	4	-1E+10	1	-1E+10	1	-1E+10	1	-1E+10	1	-1E+10	1	-1E+10	1
4901784	22	C	02/10/2016	10:47	-131.742	44.940	0	467.50	0	5.0970	0	34.0050	0	26.880	0	463.184	0	44.5	4	14.4	4	-1E+10	1	-1E+10	1	-1E+10	1	-1E+10	1	-1E+10	1	-1E+10	1
4901784	22	C	02/10/2016	10:47	-131.742	44.940	0	470.10	0	5.0790	0	34.0050	0	26.882	0	465.757	0	43.8	4	14.2	4	-1E+10	1	-1E+10	1	-1E+10	1	-1E+10	1	-1E+10	1	-1E+10	1
4901784	22	C	02/10/2016	10:47	-131.742	44.940	0	472.70	0	5.0730	0	34.0100	0	26.886	0	468.330	0	43.1	4	13.9	4	-1E+10	1	-1E+10	1	-1E+10	1	-1E+10	1	-1E+10	1	-1E+10	1
4901784	22	C	02/10/2016	10:47	-131.742	44.940	0	475.20	0	5.0690	0	34.0110	0	26.888	0	470.804	0	42.5	4	13.8	4	-1E+10	1	-1E+10	1	-1E+10	1	-1E+10	1	-1E+10	1	-1E+10	1
4901784	22	C	02/10/2016	10:47	-131.742	44.940	0	477.80	0	5.0590	0	34.0120	0	26.890	0	473.377	0	41.6	4	13.5	4	-1E+10	1	-1E+10	1	-1E+10	1	-1E+10	1	-1E+10	1	-1E+10	1
4901784	22	C	02/10/2016	10:47	-131.742	44.940	0	480.40	0	5.0520	0	34.0170	0	26.894	0	475.950	0	40.6	4	13.1	4	-1E+10	1	-1E+10	1	-1E+10	1	-1E+10	1	-1E+10	1	-1E+10	1
4901784	22	C	02/10/2016	10:47	-131.742	44.940	0	482.10	0	5.0300	0	34.0190	0	26.899	0	477.633	0	40.2	4	13.0	4	-1E+10	1	-1E+10	1	-1E+10	1	-1E+10	1	-1E+10	1	-1E+10	1
4901784	22	C	02/10/2016	10:47	-131.742	44.940	0	484.60	0	5.0250	0	34.0220	0	26.902	0	480.107	0	39.5	4	12.8	4	-1E+10	1	-1E+10	1	-1E+10	1	-1E+10	1	-1E+10	1	-1E+10	1
4901784	22	C	02/10/2016	10:47	-131.742	44.940	0	487.20	0	5.0150	0	34.0240	0	26.904	0	482.679	0	38.9	4	12.6	4	-1E+10	1	-1E+10	1	-1E+10	1	-1E+10	1	-1E+10	1	-1E+10	1
4901784	22	C	02/10/2016	10:47	-131.742	44.940	0	489.80	0	4.9960	0	34.0260	0	26.908	0	485.252	0	38.2	4	12.3	4	-1E+10	1	-1E+10	1	-1E+10	1	-1E+10	1	-1E+10	1	-1E+10	1
4901784	22	C	02/10/2016	10:47	-131.742	44.940	0	492.40	0	4.9830	0	34.0280	0	26.911	0	487.825	0	37.6	4	12.1	4	-1E+10	1	-1E+10	1	-1E+10	1	-1E+10	1	-1E+10	1	-1E+10	1
4901784	22	C	02/10/2016	10:47	-131.742	44.940	0	494.90	0	4.9630	0	34.0320	0	26.917	0	490.299	0	36.9	4	11.9	4	-1E+10	1	-1E+10	1	-1E+10	1	-1E+10	1	-1E+10	1	-1E+10	1
4901784	22	C	02/10/2016	10:47	-131.742	44.940	0	497.50	0	4.9460	0	34.0340	0	26.920	0	492.872	0	36.2	4	11.7	4	-1E+10	1	-1E+10	1	-1E+10	1	-1E+10	1	-1E+10	1	-1E+10	1
4901784	22	C	02/10/2016	10:47	-131.742	44.940	0	500.20	0	4.9210	0	34.0390	0	26.927	0	495.543	0	35.4	4	11.4	4	-1E+10	1	-1E+10	1	-1E+10	1	-1E+10	1	-1E+10	1	-1E+10	1
4901784	22	C	02/10/2016	10:47	-131.742	44.940	0	504.50	0	4.8970	0	34.0440	0	26.934	0	499.798	0	34.5	4	11.1	4	-1E+10	1	-1E+10	1	-1E+10	1	-1E+10	1	-1E+10	1	-1E+10	1
4901784	22	C	02/10/2016	10:47	-131.742	44.940	0	509.60	0	4.8690	0	34.0470	0	26.939	0	504.844	0	33.6	4	10.8	4	-1E+10	1	-1E+10	1	-1E+10	1	-1E+10	1	-1E+10	1	-1E+10	1
4901784	22	C	02/10/2016	10:47	-131.742	44.940	0	514.80	0	4.8390	0	34.0520	0	26.947	0	509.990	0	33.0	4	10.6	4	-1E+10	1	-1E+10	1	-1E+10	1	-1E+10	1	-1E+10	1	-1E+10	1
4901784	22	C	02/10/2016	10:47	-131.742	44.940	0	520.10	0	4.7930	0	34.0550	0	26.954	0	515.233	0	32.9	4	10.6	4	-1E+10	1	-1E+10	1	-1E+10	1	-1E+10	1	-1E+10	1	-1E+10	1
4901784	22	C	02/10/2016	10:47	-131.742	44.940	0	525.20	0	4.7490	0	34.0550	0	26.959	0	520.279	0	32.8	4	10.5	4	-1E+10	1	-1E+10	1	-1E+10	1	-1E+10	1	-1E+10	1	-1E+10	1
4901784	22	C	02/10/2016	10:47	-131.742	44.940	0	530.50	0	4.7100	0	34.0570	0	26.965	0	525.523	0	32.8	4	10.5	4	-1E+10	1	-1E+10	1	-1E+10	1	-1E+10	1	-1E+10	1	-1E+10	1
4901784	22	C	02/10/2016	10:47	-131.742	44.940	0	535.00	0	4.6770	0	34.0560	0	26.968	0	529.975	0	32.3	4	10.3	4	-1E+10	1	-1E+10	1	-1E+10	1	-1E+10	1	-1E+10	1	-1E+10	1
4901784	22	C	02/10/2016	10:47	-131.742	44.940	0	539.40	0	4.6620	0	34.0610	0	26.973	0	534.328	0	30.8	4	9.9	4	-1E+10	1	-1E+10	1	-1E+10	1	-1E+10	1	-1E+10	1	-1E+10	1
4901784	22	C	02/10/2016	10:47	-131.742	44.940	0	544.70	0	4.6700	0	34.0680	0	26.978	0	539.571	0	28.3	4	9.1	4	-1E+10	1	-1E+10	1	-1E+10	1	-1E+10	1	-1E+10	1	-1E+10	1
4901784	22	C	02/10/2016	10:47	-131.742	44.940	0	550.00	0	4.6830	0	34.0820	0	26.988	0	544.815	0	26.7	4	8.6	4	-1E+10	1	-1E+10	1	-1E+10	1	-1E+10	1	-1E+10	1	-1E+10	1
4901784	22	C	02/10/2016	10:47	-131.742	44.940	0	555.40	0	4.6650	0	34.0880	0	26.995	0	550.156	0	26.0	4	8.3	4	-1E+10	1	-1E+10	1	-1E+10	1	-1E+10	1	-1E+10	1	-1E+10	1
4901784	22	C	02/10/2016	10:47	-131.742	44.940	0	559.90	0	4.6420	0	34.0880	0	26.997	0	554.608	0	25.7	4	8.2	4	-1E+10	1	-1E+10	1	-1E+10	1	-1E+10	1	-1E+10	1	-1E+10	1
4901784	22	C	02/10/2016	10:47	-131.742	44.940	0	564.50	0	4.6040	0	34.0930	0	27.005	0	559.158	0	25.5	4	8.2	4	-1E+10	1	-1E+10	1	-1E+10	1	-1E+10	1	-1E+10	1	-1E+10	1
4901784	22	C	02/10/2016	10:47	-131.742	44.940	0	570.00	0	4.5700	0	34.0960	0	27.012	0	564.599	0	25.1	4	8.0	4	-1E+10	1	-1E+10	1	-1E+10	1	-1E+10	1	-1E+10	1	-1E+10	1
4901784	22	C	02/10/2016	10:47	-131.742	44.940	0	575.50	0	4.5450	0	34.1000	0	27.017	0	570.039	0	24.8	4	7.9	4	-1E+10	1	-1E+10	1	-1E+10	1	-1E+10	1	-1E+10	1	-1E+10	1
4901784	22	C	02/10/2016	10:47	-131.742	44.940	0	580.20	0	4.5260	0	34.1010	0	27.020	0	574.688	0	24.6	4	7.9	4	-1E+10	1	-1E+10	1	-1E+10	1	-1E+10	1	-1E+10	1	-1E+10	1
4901784	22	C	02/10/2016	10:47	-131.742	44.940	0	584.80	0	4.5000	0	34.1040	0	27.026	0	579.238	0	24.5	4	7.8	4	-1E+10	1	-1E+10	1	-1E+10	1	-1E+10	1	-1E+10	1	-1E+10	1
4901784	22	C	02/10/2016	10:47	-131.742	44.940	0	590.50	0	4.4610	0	34.1050	0	27.031	0	584.876	0	24.1	4	7.7	4	-1E+10	1	-1E+10	1	-1E+10	1	-1E+10	1	-1E+10	1	-1E+10	1
4901784	22	C	02/10/2016	10:47	-131.742	44.940	0	595.20	0	4.4400	0	34.1100	0	27.037	0	589.524	0	23.5	4	7.5	4	-1E+10	1	-1E+10	1	-1E+10	1	-1E+10	1	-1E+10	1	-1E+10	1
4901784	22	C	02/10/2016	10:47	-131.742	44.940	0	599.90	0	4.4350	0	34.1130	0	27.040	0	594.173	0	22.7	4	7.2	4	-1E+10	1	-1E+10	1	-1E+10	1	-1E+10	1	-1E+10	1	-1E+10	1
4901784	22	C	02/10/2016	10:47	-131.742	44.940	0	605.30	0	4.4310	0	34.1220	0	27.047	0	599.513	0	21.8	4	6.9	4	-1E+10	1	-1E+10	1	-1E+10	1	-1E+10	1	-1E+10	1	-1E+10	1
4901784	22	C	02/10/2016	10:47	-131.742	44.940	0	609.60	0	4.4280	0	34.1240	0	27.049	0	603.766	0	21.5	4	6.9	4	-1E+10	1	-1E+10	1	-1E+10	1	-1E+10	1	-1E+10	1	-1E+10	1
4901784	22	C	02/10/2016	10:47	-131.742	44.940	0	614.40	0	4.4080	0	34.1260	0	27.053	0	608.513	0	21.3	4	6.8	4	-1E+10	1	-1E+10	1	-1E+10	1	-1E+10	1	-1E+10	1	-1E+10	1
4901784	22	C	02/10/2016	10:47	-131.742	44.940	0	619.90	0	4.3980	0	34.1280	0	27.056	0	613.952	0	20.7	4	6.6	4	-1E+10	1	-1E+10	1	-1E+10	1	-1E+10	1	-1E+10	1	-1E+10	1
4901784	22	C	02/10/2016	10:47	-131.742	44.940	0	625.60	0	4.3840	0	34.1350	0	27.063	0	619.589	0	19.6	4	6.2	4	-1E+10	1	-1E+10	1	-1E+10	1	-1E+10	1	-1E+10	1	-1E+10	1
4901784	22	C	02/10/2016	10:47	-131.742	44.940	0	630.40	0	4.3810	0	34.1410	0	27.068	0	624.336	0	18.8	4	6.0	4	-1E+10	1	-1E+10	1	-1E+10	1	-1E+10	1	-1E+10	1	-1E+10	1
4901784	22	C	02/10/2016	10:47	-131.742	44.940	0	635.30	0	4.3730	0	34.1470	0	27.074	0	629.181	0	18.2	4	5.8	4	-1E+10	1	-1E+10	1	-1E+10	1	-1E+10	1	-1E+10	1	-1E+10	1
4901784	22	C	02/10/2016	10:47	-131.742	44.940	0	640.20	0	4.3550	0	34.1520	0	27.080	0	634.027	0	17.9	4	5.7	4	-1E+10	1	-1E+10	1	-1E+10	1	-1E+10	1	-1E+10	1	-1E+10	1
4901784	22	C	02/10/2016	10:47	-131.742	44.940	0	645.00	0	4.3390	0	34.1560	0	27.085	0	638.773	0	17.6	4	5.6	4	-1E+10	1	-1E+10	1	-1E+10	1	-1E+10	1	-1E+10	1	-1E+10	1
4901784	22	C	02/10/2016	10:47	-131.742	44.940	0	650.00	0	4.3180	0	34.1580	0	27.088	0	643.717	0	17.3	4	5.5	4	-1E+10	1	-1E+10	1	-1E+10	1	-1E+10	1	-1E+10	1	-1E+10	1
4901784	22	C	02/10/2016	10:47	-131.742	44.940	0	655.00	0	4.3040	0	34.1620	0	27.093	0	648.661	0	16.9	4	5.4	4	-1E+10	1	-1E+10	1	-1E+10	1	-1E+10	1	-1E+10	1	-1E+10	1
4901784	22	C	02/10/2016	10:47	-131.742	44.940	0	660.10	0	4.2850	0	34.1680	0	27.100	0	653.704	0	16.5	4	5.2	4	-1E+10	1	-1E+10	1	-1E+10	1	-1E+10	1	-1E+10	1	-1E+10	1
4901784	22	C	02/10/2016	10:47	-131.742	44.940	0	665.20	0	4.2700	0	34.1740	0	27.106	0	658.746	0	16.2	4	5.2	4	-1E+10	1	-1E+10	1	-1E+10	1	-1E+10	1	-1E+10	1	-1E+10	1
4901784	22	C	02/10/2016	10:47	-131.742	44.940	0	670.20	0	4.2520	0	34.1760	0	27.110	0	663.690	0	16.1	4	5.1	4	-1E+10	1	-1E+10	1	-1E+10	1	-1E+10	1	-1E+10	1	-1E+10	1
4901784	22	C	02/10/2016	10:47	-131.742	44.940	0	675.30	0	4.2420	0	34.1790	0	27.113	0	668.732	0	15.9	4	5.1	4	-1E+10	1	-1E+10	1	-1E+10	1	-1E+10	1	-1E+10	1	-1E+10	1
4901784	22	C	02/10/2016	10:47	-131.742	44.940	0	680.60	0	4.2180	0	34.1820	0	27.118	0	673.972	0	15.7	4	5.0	4	-1E+10	1	-1E+10	1	-1E+10	1	-1E+10	1	-1E+10	1	-1E+10	1
4901784	22	C	02/10/2016	10:47	-131.742	44.940	0	685.00	0	4.2050	0	34.1840	0	27.121	0	678.322	0	15.5	4	4.9	4	-1E+10	1	-1E+10	1	-1E+10	1	-1E+10	1	-1E+10	1	-1E+10	1
4901784	22	C	02/10/2016	10:47	-131.742	44.940	0	689.40	0	4.1830	0	34.1890	0	27.127	0	682.672	0	15.2	4	4.8	4	-1E+10	1	-1E+10	1	-1E+10	1	-1E+10	1	-1E+10	1	-1E+10	1
4901784	22	C	02/10/2016	10:47	-131.742	44.940	0	694.70	0	4.1510	0	34.1950	0	27.136	0	687.911	0	14.9	4	4.7	4	-1E+10	1	-1E+10	1	-1E+10	1	-1E+10	1	-1E+10	1	-1E+10	1
4901784	22	C	02/10/2016	10:47	-131.742	44.940	0	700.00	0	4.1390	0	34.1980	0	27.139	0	693.151	0	14.6	4	4.6	4	-1E+10	1	-1E+10	1	-1E+10	1	-1E+10	1	-1E+10	1	-1E+10	1
4901784	22	C	02/10/2016	10:47	-131.742	44.940	0	705.20	0	4.1290	0	34.2050	0	27.146	0	698.291	0	14.2	4	4.5	4	-1E+10	1	-1E+10	1	-1E+10	1	-1E+10	1	-1E+10	1	-1E+10	1
4901784	22	C	02/10/2016	10:47	-131.742	44.940	0	710.60	0	4.1260	0	34.2100	0	27.150	0	703.629	0	13.8	4	4.4	4	-1E+10	1	-1E+10	1	-1E+10	1	-1E+10	1	-1E+10	1	-1E+10	1
4901784	22	C	02/10/2016	10:47	-131.742	44.940	0	715.10	0	4.1250	0	34.2130	0	27.153	0	708.077	0	13.7	4	4.3	4	-1E+10	1	-1E+10	1	-1E+10	1	-1E+10	1	-1E+10	1	-1E+10	1
4901784	22	C	02/10/2016	10:47	-131.742	44.940	0	719.60	0	4.1240	0	34.2140	0	27.154	0	712.525	0	13.7	4	4.3	4	-1E+10	1	-1E+10	1	-1E+10	1	-1E+10	1	-1E+10	1	-1E+10	1
4901784	22	C	02/10/2016	10:47	-131.742	44.940	0	725.10	0	4.1110	0	34.2160	0	27.157	0	717.962	0	13.5	4	4.3	4	-1E+10	1	-1E+10	1	-1E+10	1	-1E+10	1	-1E+10	1	-1E+10	1
4901784	22	C	02/10/2016	10:47	-131.742	44.940	0	730.60	0	4.1000	0	34.2200	0	27.161	0	723.398	0	13.3	4	4.2	4	-1E+10	1	-1E+10	1	-1E+10	1	-1E+10	1	-1E+10	1	-1E+10	1
4901784	22	C	02/10/2016	10:47	-131.742	44.940	0	735.10	0	4.0850	0	34.2240	0	27.166	0	727.846	0	13.2	4	4.2	4	-1E+10	1	-1E+10	1	-1E+10	1	-1E+10	1	-1E+10	1	-1E+10	1
4901784	22	C	02/10/2016	10:47	-131.742	44.940	0	739.60	0	4.0710	0	34.2240	0	27.167	0	732.294	0	13.1	4	4.1	4	-1E+10	1	-1E+10	1	-1E+10	1	-1E+10	1	-1E+10	1	-1E+10	1
4901784	22	C	02/10/2016	10:47	-131.742	44.940	0	745.20	0	4.0640	0	34.2300	0	27.173	0	737.829	0	12.6	4	4.0	4	-1E+10	1	-1E+10	1	-1E+10	1	-1E+10	1	-1E+10	1	-1E+10	1
4901784	22	C	02/10/2016	10:47	-131.742	44.940	0	749.80	0	4.0610	0	34.2380	0	27.180	0	742.375	0	12.4	4	3.9	4	-1E+10	1	-1E+10	1	-1E+10	1	-1E+10	1	-1E+10	1	-1E+10	1
4901784	22	C	02/10/2016	10:47	-131.742	44.940	0	754.50	0	4.0480	0	34.2400	0	27.182	0	747.020	0	12.4	4	3.9	4	-1E+10	1	-1E+10	1	-1E+10	1	-1E+10	1	-1E+10	1	-1E+10	1
4901784	22	C	02/10/2016	10:47	-131.742	44.940	0	760.00	0	4.0330	0	34.2420	0	27.186	0	752.455	0	12.3	4	3.9	4	-1E+10	1	-1E+10	1	-1E+10	1	-1E+10	1	-1E+10	1	-1E+10	1
4901784	22	C	02/10/2016	10:47	-131.742	44.940	0	764.70	0	4.0120	0	34.2440	0	27.189	0	757.100	0	12.3	4	3.9	4	-1E+10	1	-1E+10	1	-1E+10	1	-1E+10	1	-1E+10	1	-1E+10	1
4901784	22	C	02/10/2016	10:47	-131.742	44.940	0	769.40	0	4.0010	0	34.2470	0	27.193	0	761.745	0	12.2	4	3.8	4	-1E+10	1	-1E+10	1	-1E+10	1	-1E+10	1	-1E+10	1	-1E+10	1
4901784	22	C	02/10/2016	10:47	-131.742	44.940	0	775.00	0	3.9840	0	34.2500	0	27.197	0	767.279	0	12.1	4	3.8	4	-1E+10	1	-1E+10	1	-1E+10	1	-1E+10	1	-1E+10	1	-1E+10	1
4901784	22	C	02/10/2016	10:47	-131.742	44.940	0	780.60	0	3.9560	0	34.2530	0	27.202	0	772.813	0	12.1	4	3.8	4	-1E+10	1	-1E+10	1	-1E+10	1	-1E+10	1	-1E+10	1	-1E+10	1
4901784	22	C	02/10/2016	10:47	-131.742	44.940	0	785.60	0	3.9280	0	34.2550	0	27.207	0	777.754	0	12.0	4	3.8	4	-1E+10	1	-1E+10	1	-1E+10	1	-1E+10	1	-1E+10	1	-1E+10	1
4901784	22	C	02/10/2016	10:47	-131.742	44.940	0	790.10	0	3.9280	0	34.2620	0	27.212	0	782.200	0	11.8	4	3.7	4	-1E+10	1	-1E+10	1	-1E+10	1	-1E+10	1	-1E+10	1	-1E+10	1
4901784	22	C	02/10/2016	10:47	-131.742	44.940	0	794.80	0	3.9190	0	34.2640	0	27.215	0	786.844	0	11.7	4	3.7	4	-1E+10	1	-1E+10	1	-1E+10	1	-1E+10	1	-1E+10	1	-1E+10	1
4901784	22	C	02/10/2016	10:47	-131.742	44.940	0	799.60	0	3.9000	0	34.2680	0	27.220	0	791.587	0	11.6	4	3.7	4	-1E+10	1	-1E+10	1	-1E+10	1	-1E+10	1	-1E+10	1	-1E+10	1
4901784	22	C	02/10/2016	10:47	-131.742	44.940	0	804.40	0	3.8720	0	34.2730	0	27.227	0	796.330	0	11.5	4	3.6	4	-1E+10	1	-1E+10	1	-1E+10	1	-1E+10	1	-1E+10	1	-1E+10	1
4901784	22	C	02/10/2016	10:47	-131.742	44.940	0	809.30	0	3.8740	0	34.2800	0	27.232	0	801.172	0	11.3	4	3.6	4	-1E+10	1	-1E+10	1	-1E+10	1	-1E+10	1	-1E+10	1	-1E+10	1
4901784	22	C	02/10/2016	10:47	-131.742	44.940	0	814.20	0	3.8650	0	34.2830	0	27.236	0	806.013	0	11.3	4	3.6	4	-1E+10	1	-1E+10	1	-1E+10	1	-1E+10	1	-1E+10	1	-1E+10	1
4901784	22	C	02/10/2016	10:47	-131.742	44.940	0	819.30	0	3.8350	0	34.2850	0	27.240	0	811.052	0	11.4	4	3.6	4	-1E+10	1	-1E+10	1	-1E+10	1	-1E+10	1	-1E+10	1	-1E+10	1
4901784	22	C	02/10/2016	10:47	-131.742	44.940	0	824.20	0	3.8280	0	34.2840	0	27.240	0	815.893	0	11.4	4	3.6	4	-1E+10	1	-1E+10	1	-1E+10	1	-1E+10	1	-1E+10	1	-1E+10	1
4901784	22	C	02/10/2016	10:47	-131.742	44.940	0	829.30	0	3.8130	0	34.2860	0	27.243	0	820.931	0	11.4	4	3.6	4	-1E+10	1	-1E+10	1	-1E+10	1	-1E+10	1	-1E+10	1	-1E+10	1
4901784	22	C	02/10/2016	10:47	-131.742	44.940	0	834.40	0	3.7880	0	34.2880	0	27.247	0	825.970	0	11.5	4	3.6	4	-1E+10	1	-1E+10	1	-1E+10	1	-1E+10	1	-1E+10	1	-1E+10	1
4901784	22	C	02/10/2016	10:47	-131.742	44.940	0	839.60	0	3.7690	0	34.2890	0	27.250	0	831.107	0	11.5	4	3.6	4	-1E+10	1	-1E+10	1	-1E+10	1	-1E+10	1	-1E+10	1	-1E+10	1
4901784	22	C	02/10/2016	10:47	-131.742	44.940	0	844.70	0	3.7470	0	34.2910	0	27.254	0	836.145	0	11.6	4	3.6	4	-1E+10	1	-1E+10	1	-1E+10	1	-1E+10	1	-1E+10	1	-1E+10	1
4901784	22	C	02/10/2016	10:47	-131.742	44.940	0	849.90	0	3.7230	0	34.2910	0	27.256	0	841.282	0	11.7	4	3.7	4	-1E+10	1	-1E+10	1	-1E+10	1	-1E+10	1	-1E+10	1	-1E+10	1
4901784	22	C	02/10/2016	10:47	-131.742	44.940	0	855.20	0	3.6960	0	34.2940	0	27.261	0	846.518	0	11.7	4	3.7	4	-1E+10	1	-1E+10	1	-1E+10	1	-1E+10	1	-1E+10	1	-1E+10	1
4901784	22	C	02/10/2016	10:47	-131.742	44.940	0	860.50	0	3.6720	0	34.2940	0	27.264	0	851.753	0	11.8	4	3.7	4	-1E+10	1	-1E+10	1	-1E+10	1	-1E+10	1	-1E+10	1	-1E+10	1
4901784	22	C	02/10/2016	10:47	-131.742	44.940	0	865.00	0	3.6370	0	34.2940	0	27.267	0	856.198	0	12.0	4	3.7	4	-1E+10	1	-1E+10	1	-1E+10	1	-1E+10	1	-1E+10	1	-1E+10	1
4901784	22	C	02/10/2016	10:47	-131.742	44.940	0	869.50	0	3.6280	0	34.2950	0	27.269	0	860.643	0	12.0	4	3.7	4	-1E+10	1	-1E+10	1	-1E+10	1	-1E+10	1	-1E+10	1	-1E+10	1
4901784	22	C	02/10/2016	10:47	-131.742	44.940	0	875.00	0	3.6270	0	34.2950	0	27.269	0	866.076	0	12.0	4	3.7	4	-1E+10	1	-1E+10	1	-1E+10	1	-1E+10	1	-1E+10	1	-1E+10	1
4901784	22	C	02/10/2016	10:47	-131.742	44.940	0	880.40	0	3.6230	0	34.2950	0	27.270	0	871.409	0	12.0	4	3.7	4	-1E+10	1	-1E+10	1	-1E+10	1	-1E+10	1	-1E+10	1	-1E+10	1
4901784	22	C	02/10/2016	10:47	-131.742	44.940	0	885.00	0	3.6140	0	34.2970	0	27.272	0	875.953	0	11.9	4	3.7	4	-1E+10	1	-1E+10	1	-1E+10	1	-1E+10	1	-1E+10	1	-1E+10	1
4901784	22	C	02/10/2016	10:47	-131.742	44.940	0	889.70	0	3.6010	0	34.2990	0	27.275	0	880.595	0	11.9	4	3.7	4	-1E+10	1	-1E+10	1	-1E+10	1	-1E+10	1	-1E+10	1	-1E+10	1
4901784	22	C	02/10/2016	10:47	-131.742	44.940	0	895.40	0	3.5860	0	34.3020	0	27.279	0	886.224	0	11.8	4	3.7	4	-1E+10	1	-1E+10	1	-1E+10	1	-1E+10	1	-1E+10	1	-1E+10	1
4901784	22	C	02/10/2016	10:47	-131.742	44.940	0	900.10	0	3.5860	0	34.3050	0	27.281	0	890.866	0	11.8	4	3.7	4	-1E+10	1	-1E+10	1	-1E+10	1	-1E+10	1	-1E+10	1	-1E+10	1
4901784	22	C	02/10/2016	10:47	-131.742	44.940	0	904.80	0	3.5880	0	34.3060	0	27.282	0	895.508	0	11.8	4	3.7	4	-1E+10	1	-1E+10	1	-1E+10	1	-1E+10	1	-1E+10	1	-1E+10	1
4901784	22	C	02/10/2016	10:47	-131.742	44.940	0	910.10	0	3.5820	0	34.3060	0	27.283	0	900.742	0	11.7	4	3.7	4	-1E+10	1	-1E+10	1	-1E+10	1	-1E+10	1	-1E+10	1	-1E+10	1
4901784	22	C	02/10/2016	10:47	-131.742	44.940	0	914.40	0	3.5890	0	34.3080	0	27.283	0	904.989	0	11.7	4	3.6	4	-1E+10	1	-1E+10	1	-1E+10	1	-1E+10	1	-1E+10	1	-1E+10	1
4901784	22	C	02/10/2016	10:47	-131.742	44.940	0	919.90	0	3.5750	0	34.3120	0	27.288	0	910.420	0	11.7	4	3.6	4	-1E+10	1	-1E+10	1	-1E+10	1	-1E+10	1	-1E+10	1	-1E+10	1
4901784	22	C	02/10/2016	10:47	-131.742	44.940	0	925.50	0	3.5570	0	34.3140	0	27.291	0	915.950	0	11.7	4	3.7	4	-1E+10	1	-1E+10	1	-1E+10	1	-1E+10	1	-1E+10	1	-1E+10	1
4901784	22	C	02/10/2016	10:47	-131.742	44.940	0	930.40	0	3.5510	0	34.3150	0	27.293	0	920.789	0	11.7	4	3.7	4	-1E+10	1	-1E+10	1	-1E+10	1	-1E+10	1	-1E+10	1	-1E+10	1
4901784	22	C	02/10/2016	10:47	-131.742	44.940	0	935.40	0	3.5190	0	34.3150	0	27.296	0	925.726	0	11.8	4	3.7	4	-1E+10	1	-1E+10	1	-1E+10	1	-1E+10	1	-1E+10	1	-1E+10	1
4901784	22	C	02/10/2016	10:47	-131.742	44.940	0	940.30	0	3.5070	0	34.3170	0	27.299	0	930.564	0	11.8	4	3.7	4	-1E+10	1	-1E+10	1	-1E+10	1	-1E+10	1	-1E+10	1	-1E+10	1
4901784	22	C	02/10/2016	10:47	-131.742	44.940	0	945.30	0	3.5030	0	34.3210	0	27.302	0	935.501	0	11.7	4	3.7	4	-1E+10	1	-1E+10	1	-1E+10	1	-1E+10	1	-1E+10	1	-1E+10	1
4901784	22	C	02/10/2016	10:47	-131.742	44.940	0	950.30	0	3.4820	0	34.3220	0	27.305	0	940.438	0	11.8	4	3.7	4	-1E+10	1	-1E+10	1	-1E+10	1	-1E+10	1	-1E+10	1	-1E+10	1
4901784	22	C	02/10/2016	10:47	-131.742	44.940	0	955.40	0	3.4780	0	34.3240	0	27.307	0	945.474	0	11.7	4	3.7	4	-1E+10	1	-1E+10	1	-1E+10	1	-1E+10	1	-1E+10	1	-1E+10	1
4901784	22	C	02/10/2016	10:47	-131.742	44.940	0	960.50	0	3.4760	0	34.3290	0	27.311	0	950.509	0	11.7	4	3.7	4	-1E+10	1	-1E+10	1	-1E+10	1	-1E+10	1	-1E+10	1	-1E+10	1
4901784	22	C	02/10/2016	10:47	-131.742	44.940	0	965.60	0	3.4530	0	34.3310	0	27.315	0	955.545	0	11.7	4	3.7	4	-1E+10	1	-1E+10	1	-1E+10	1	-1E+10	1	-1E+10	1	-1E+10	1
4901784	22	C	02/10/2016	10:47	-131.742	44.940	0	970.60	0	3.4500	0	34.3340	0	27.318	0	960.481	0	11.7	4	3.7	4	-1E+10	1	-1E+10	1	-1E+10	1	-1E+10	1	-1E+10	1	-1E+10	1
4901784	22	C	02/10/2016	10:47	-131.742	44.940	0	975.70	0	3.4410	0	34.3360	0	27.320	0	965.516	0	11.7	4	3.7	4	-1E+10	1	-1E+10	1	-1E+10	1	-1E+10	1	-1E+10	1	-1E+10	1
4901784	22	C	02/10/2016	10:47	-131.742	44.940	0	979.90	0	3.4380	0	34.3370	0	27.322	0	969.663	0	11.7	4	3.7	4	-1E+10	1	-1E+10	1	-1E+10	1	-1E+10	1	-1E+10	1	-1E+10	1
4901784	22	C	02/10/2016	10:47	-131.742	44.940	0	984.20	0	3.4260	0	34.3370	0	27.323	0	973.908	0	11.7	4	3.7	4	-1E+10	1	-1E+10	1	-1E+10	1	-1E+10	1	-1E+10	1	-1E+10	1
4901784	22	C	02/10/2016	10:47	-131.742	44.940	0	989.30	0	3.4190	0	34.3380	0	27.324	0	978.943	0	11.7	4	3.7	4	-1E+10	1	-1E+10	1	-1E+10	1	-1E+10	1	-1E+10	1	-1E+10	1
4901784	22	C	02/10/2016	10:47	-131.742	44.940	0	994.40	0	3.4140	0	34.3390	0	27.326	0	983.977	0	11.7	4	3.7	4	-1E+10	1	-1E+10	1	-1E+10	1	-1E+10	1	-1E+10	1	-1E+10	1
4901784	22	C	02/10/2016	10:47	-131.742	44.940	0	999.60	0	3.4130	0	34.3430	0	27.329	0	989.110	0	11.7	4	3.7	4	-1E+10	1	-1E+10	1	-1E+10	1	-1E+10	1	-1E+10	1	-1E+10	1
4901784	22	C	02/10/2016	10:47	-131.742	44.940	0	1004.80	0	3.4130	0	34.3440	0	27.330	0	994.244	0	11.7	4	3.7	4	-1E+10	1	-1E+10	1	-1E+10	1	-1E+10	1	-1E+10	1	-1E+10	1
4901784	22	C	02/10/2016	10:47	-131.742	44.940	0	1010.00	0	3.4060	0	34.3460	0	27.332	0	999.377	0	11.7	4	3.7	4	-1E+10	1	-1E+10	1	-1E+10	1	-1E+10	1	-1E+10	1	-1E+10	1
4901784	22	C	02/10/2016	10:47	-131.742	44.940	0	1015.30	0	3.3990	0	34.3480	0	27.334	0	1004.608	0	11.7	4	3.7	4	-1E+10	1	-1E+10	1	-1E+10	1	-1E+10	1	-1E+10	1	-1E+10	1
4901784	22	C	02/10/2016	10:47	-131.742	44.940	0	1020.70	0	3.4000	0	34.3520	0	27.337	0	1009.938	0	11.7	4	3.7	4	-1E+10	1	-1E+10	1	-1E+10	1	-1E+10	1	-1E+10	1	-1E+10	1
4901784	22	C	02/10/2016	10:47	-131.742	44.940	0	1025.10	0	3.3990	0	34.3550	0	27.340	0	1014.281	0	11.8	4	3.7	4	-1E+10	1	-1E+10	1	-1E+10	1	-1E+10	1	-1E+10	1	-1E+10	1
4901784	22	C	02/10/2016	10:47	-131.742	44.940	0	1029.60	0	3.3890	0	34.3570	0	27.342	0	1018.723	0	11.8	4	3.7	4	-1E+10	1	-1E+10	1	-1E+10	1	-1E+10	1	-1E+10	1	-1E+10	1
4901784	22	C	02/10/2016	10:47	-131.742	44.940	0	1034.90	0	3.3720	0	34.3600	0	27.347	0	1023.954	0	11.8	4	3.7	4	-1E+10	1	-1E+10	1	-1E+10	1	-1E+10	1	-1E+10	1	-1E+10	1
4901784	22	C	02/10/2016	10:47	-131.742	44.940	0	1040.30	0	3.3580	0	34.3620	0	27.349	0	1029.284	0	11.9	4	3.7	4	-1E+10	1	-1E+10	1	-1E+10	1	-1E+10	1	-1E+10	1	-1E+10	1
4901784	22	C	02/10/2016	10:47	-131.742	44.940	0	1045.60	0	3.3550	0	34.3650	0	27.352	0	1034.514	0	11.9	4	3.7	4	-1E+10	1	-1E+10	1	-1E+10	1	-1E+10	1	-1E+10	1	-1E+10	1
4901784	22	C	02/10/2016	10:47	-131.742	44.940	0	1050.10	0	3.3440	0	34.3670	0	27.355	0	1038.955	0	12.0	4	3.7	4	-1E+10	1	-1E+10	1	-1E+10	1	-1E+10	1	-1E+10	1	-1E+10	1
4901784	22	C	02/10/2016	10:47	-131.742	44.940	0	1054.60	0	3.3430	0	34.3680	0	27.356	0	1043.396	0	12.0	4	3.7	4	-1E+10	1	-1E+10	1	-1E+10	1	-1E+10	1	-1E+10	1	-1E+10	1
4901784	22	C	02/10/2016	10:47	-131.742	44.940	0	1060.00	0	3.3300	0	34.3720	0	27.360	0	1048.726	0	12.1	4	3.8	4	-1E+10	1	-1E+10	1	-1E+10	1	-1E+10	1	-1E+10	1	-1E+10	1
4901784	22	C	02/10/2016	10:47	-131.742	44.940	0	1065.30	0	3.3280	0	34.3750	0	27.363	0	1053.956	0	12.2	4	3.8	4	-1E+10	1	-1E+10	1	-1E+10	1	-1E+10	1	-1E+10	1	-1E+10	1
4901784	22	C	02/10/2016	10:47	-131.742	44.940	0	1070.70	0	3.3210	0	34.3770	0	27.365	0	1059.285	0	12.3	4	3.8	4	-1E+10	1	-1E+10	1	-1E+10	1	-1E+10	1	-1E+10	1	-1E+10	1
4901784	22	C	02/10/2016	10:47	-131.742	44.940	0	1075.10	0	3.3080	0	34.3790	0	27.368	0	1063.627	0	12.3	4	3.8	4	-1E+10	1	-1E+10	1	-1E+10	1	-1E+10	1	-1E+10	1	-1E+10	1
4901784	22	C	02/10/2016	10:47	-131.742	44.940	0	1079.50	0	3.2940	0	34.3810	0	27.371	0	1067.969	0	12.4	4	3.9	4	-1E+10	1	-1E+10	1	-1E+10	1	-1E+10	1	-1E+10	1	-1E+10	1
4901784	22	C	02/10/2016	10:47	-131.742	44.940	0	1084.80	0	3.2830	0	34.3820	0	27.373	0	1073.199	0	12.5	4	3.9	4	-1E+10	1	-1E+10	1	-1E+10	1	-1E+10	1	-1E+10	1	-1E+10	1
4901784	22	C	02/10/2016	10:47	-131.742	44.940	0	1090.20	0	3.2650	0	34.3840	0	27.376	0	1078.527	0	12.6	4	3.9	4	-1E+10	1	-1E+10	1	-1E+10	1	-1E+10	1	-1E+10	1	-1E+10	1
4901784	22	C	02/10/2016	10:47	-131.742	44.940	0	1095.50	0	3.2460	0	34.3870	0	27.380	0	1083.756	0	12.7	4	3.9	4	-1E+10	1	-1E+10	1	-1E+10	1	-1E+10	1	-1E+10	1	-1E+10	1
4901784	22	C	02/10/2016	10:47	-131.742	44.940	0	1100.00	0	3.2300	0	34.3890	0	27.383	0	1088.197	0	12.8	4	4.0	4	-1E+10	1	-1E+10	1	-1E+10	1	-1E+10	1	-1E+10	1	-1E+10	1
4901784	22	C	02/10/2016	10:47	-131.742	44.940	0	1104.50	0	3.2200	0	34.3910	0	27.386	0	1092.637	0	12.9	4	4.0	4	-1E+10	1	-1E+10	1	-1E+10	1	-1E+10	1	-1E+10	1	-1E+10	1
4901784	22	C	02/10/2016	10:47	-131.742	44.940	0	1109.80	0	3.2050	0	34.3930	0	27.389	0	1097.866	0	13.0	4	4.0	4	-1E+10	1	-1E+10	1	-1E+10	1	-1E+10	1	-1E+10	1	-1E+10	1
4901784	22	C	02/10/2016	10:47	-131.742	44.940	0	1114.90	0	3.1940	0	34.3960	0	27.392	0	1102.898	0	13.2	4	4.1	4	-1E+10	1	-1E+10	1	-1E+10	1	-1E+10	1	-1E+10	1	-1E+10	1
4901784	22	C	02/10/2016	10:47	-131.742	44.940	0	1119.60	0	3.1880	0	34.3980	0	27.395	0	1107.535	0	13.3	4	4.1	4	-1E+10	1	-1E+10	1	-1E+10	1	-1E+10	1	-1E+10	1	-1E+10	1
4901784	22	C	02/10/2016	10:47	-131.742	44.940	0	1124.30	0	3.1720	0	34.4000	0	27.398	0	1112.172	0	13.5	4	4.2	4	-1E+10	1	-1E+10	1	-1E+10	1	-1E+10	1	-1E+10	1	-1E+10	1
4901784	22	C	02/10/2016	10:47	-131.742	44.940	0	1129.30	0	3.1530	0	34.4020	0	27.401	0	1117.104	0	13.7	4	4.2	4	-1E+10	1	-1E+10	1	-1E+10	1	-1E+10	1	-1E+10	1	-1E+10	1
4901784	22	C	02/10/2016	10:47	-131.742	44.940	0	1134.40	0	3.1310	0	34.4060	0	27.406	0	1122.136	0	13.8	4	4.3	4	-1E+10	1	-1E+10	1	-1E+10	1	-1E+10	1	-1E+10	1	-1E+10	1
4901784	22	C	02/10/2016	10:47	-131.742	44.940	0	1139.60	0	3.1240	0	34.4070	0	27.408	0	1127.265	0	13.9	4	4.3	4	-1E+10	1	-1E+10	1	-1E+10	1	-1E+10	1	-1E+10	1	-1E+10	1
4901784	22	C	02/10/2016	10:47	-131.742	44.940	0	1144.80	0	3.1140	0	34.4090	0	27.410	0	1132.395	0	14.1	4	4.4	4	-1E+10	1	-1E+10	1	-1E+10	1	-1E+10	1	-1E+10	1	-1E+10	1
4901784	22	C	02/10/2016	10:47	-131.742	44.940	0	1150.10	0	3.0940	0	34.4120	0	27.414	0	1137.623	0	14.2	4	4.4	4	-1E+10	1	-1E+10	1	-1E+10	1	-1E+10	1	-1E+10	1	-1E+10	1
4901784	22	C	02/10/2016	10:47	-131.742	44.940	0	1155.50	0	3.0770	0	34.4130	0	27.417	0	1142.950	0	14.3	4	4.4	4	-1E+10	1	-1E+10	1	-1E+10	1	-1E+10	1	-1E+10	1	-1E+10	1
4901784	22	C	02/10/2016	10:47	-131.742	44.940	0	1159.90	0	3.0650	0	34.4150	0	27.420	0	1147.290	0	14.4	4	4.5	4	-1E+10	1	-1E+10	1	-1E+10	1	-1E+10	1	-1E+10	1	-1E+10	1
4901784	22	C	02/10/2016	10:47	-131.742	44.940	0	1164.40	0	3.0530	0	34.4160	0	27.421	0	1151.729	0	14.4	4	4.5	4	-1E+10	1	-1E+10	1	-1E+10	1	-1E+10	1	-1E+10	1	-1E+10	1
4901784	22	C	02/10/2016	10:47	-131.742	44.940	0	1169.70	0	3.0440	0	34.4160	0	27.422	0	1156.957	0	14.4	4	4.4	4	-1E+10	1	-1E+10	1	-1E+10	1	-1E+10	1	-1E+10	1	-1E+10	1
4901784	22	C	02/10/2016	10:47	-131.742	44.940	0	1175.10	0	3.0200	0	34.4160	0	27.425	0	1162.283	0	14.5	4	4.5	4	-1E+10	1	-1E+10	1	-1E+10	1	-1E+10	1	-1E+10	1	-1E+10	1
4901784	22	C	02/10/2016	10:47	-131.742	44.940	0	1180.60	0	3.0060	0	34.4180	0	27.427	0	1167.708	0	14.6	4	4.5	4	-1E+10	1	-1E+10	1	-1E+10	1	-1E+10	1	-1E+10	1	-1E+10	1
4901784	22	C	02/10/2016	10:47	-131.742	44.940	0	1185.20	0	3.0010	0	34.4190	0	27.429	0	1172.245	0	14.7	4	4.5	4	-1E+10	1	-1E+10	1	-1E+10	1	-1E+10	1	-1E+10	1	-1E+10	1
4901784	22	C	02/10/2016	10:47	-131.742	44.940	0	1189.80	0	2.9980	0	34.4210	0	27.431	0	1176.782	0	14.9	4	4.6	4	-1E+10	1	-1E+10	1	-1E+10	1	-1E+10	1	-1E+10	1	-1E+10	1
4901784	22	C	02/10/2016	10:47	-131.742	44.940	0	1195.40	0	2.9990	0	34.4230	0	27.432	0	1182.305	0	15.2	4	4.7	4	-1E+10	1	-1E+10	1	-1E+10	1	-1E+10	1	-1E+10	1	-1E+10	1
4901784	22	C	02/10/2016	10:47	-131.742	44.940	0	1200.10	0	2.9920	0	34.4260	0	27.435	0	1186.940	0	15.4	4	4.8	4	-1E+10	1	-1E+10	1	-1E+10	1	-1E+10	1	-1E+10	1	-1E+10	1
4901784	22	C	02/10/2016	10:47	-131.742	44.940	0	1204.30	0	2.9780	0	34.4270	0	27.437	0	1191.082	0	15.5	4	4.8	4	-1E+10	1	-1E+10	1	-1E+10	1	-1E+10	1	-1E+10	1	-1E+10	1
4901784	22	C	02/10/2016	10:47	-131.742	44.940	0	1209.50	0	2.9620	0	34.4290	0	27.440	0	1196.210	0	15.7	4	4.8	4	-1E+10	1	-1E+10	1	-1E+10	1	-1E+10	1	-1E+10	1	-1E+10	1
4901784	22	C	02/10/2016	10:47	-131.742	44.940	0	1214.30	0	2.9480	0	34.4310	0	27.443	0	1200.944	0	15.9	4	4.9	4	-1E+10	1	-1E+10	1	-1E+10	1	-1E+10	1	-1E+10	1	-1E+10	1
4901784	22	C	02/10/2016	10:47	-131.742	44.940	0	1219.20	0	2.9420	0	34.4320	0	27.445	0	1205.776	0	16.0	4	4.9	4	-1E+10	1	-1E+10	1	-1E+10	1	-1E+10	1	-1E+10	1	-1E+10	1
4901784	22	C	02/10/2016	10:47	-131.742	44.940	0	1224.20	0	2.9370	0	34.4330	0	27.446	0	1210.706	0	16.1	4	4.9	4	-1E+10	1	-1E+10	1	-1E+10	1	-1E+10	1	-1E+10	1	-1E+10	1
4901784	22	C	02/10/2016	10:47	-131.742	44.940	0	1229.30	0	2.9290	0	34.4340	0	27.447	0	1215.735	0	16.2	4	5.0	4	-1E+10	1	-1E+10	1	-1E+10	1	-1E+10	1	-1E+10	1	-1E+10	1
4901784	22	C	02/10/2016	10:47	-131.742	44.940	0	1234.50	0	2.9180	0	34.4350	0	27.449	0	1220.863	0	16.3	4	5.0	4	-1E+10	1	-1E+10	1	-1E+10	1	-1E+10	1	-1E+10	1	-1E+10	1
4901784	22	C	02/10/2016	10:47	-131.742	44.940	0	1239.70	0	2.9120	0	34.4360	0	27.451	0	1225.990	0	16.5	4	5.1	4	-1E+10	1	-1E+10	1	-1E+10	1	-1E+10	1	-1E+10	1	-1E+10	1
4901784	22	C	02/10/2016	10:47	-131.742	44.940	0	1244.90	0	2.9030	0	34.4370	0	27.452	0	1231.117	0	16.7	4	5.1	4	-1E+10	1	-1E+10	1	-1E+10	1	-1E+10	1	-1E+10	1	-1E+10	1
4901784	22	C	02/10/2016	10:47	-131.742	44.940	0	1250.00	0	2.8850	0	34.4400	0	27.456	0	1236.146	0	16.9	4	5.2	4	-1E+10	1	-1E+10	1	-1E+10	1	-1E+10	1	-1E+10	1	-1E+10	1
4901784	22	C	02/10/2016	10:47	-131.742	44.940	0	1255.00	0	2.8780	0	34.4410	0	27.458	0	1241.076	0	17.0	4	5.2	4	-1E+10	1	-1E+10	1	-1E+10	1	-1E+10	1	-1E+10	1	-1E+10	1
4901784	22	C	02/10/2016	10:47	-131.742	44.940	0	1260.00	0	2.8640	0	34.4430	0	27.461	0	1246.006	0	17.3	4	5.3	4	-1E+10	1	-1E+10	1	-1E+10	1	-1E+10	1	-1E+10	1	-1E+10	1
4901784	22	C	02/10/2016	10:47	-131.742	44.940	0	1265.10	0	2.8520	0	34.4440	0	27.462	0	1251.034	0	17.4	4	5.4	4	-1E+10	1	-1E+10	1	-1E+10	1	-1E+10	1	-1E+10	1	-1E+10	1
4901784	22	C	02/10/2016	10:47	-131.742	44.940	0	1270.10	0	2.8400	0	34.4460	0	27.465	0	1255.963	0	17.6	4	5.4	4	-1E+10	1	-1E+10	1	-1E+10	1	-1E+10	1	-1E+10	1	-1E+10	1
4901784	22	C	02/10/2016	10:47	-131.742	44.940	0	1275.10	0	2.8300	0	34.4470	0	27.467	0	1260.893	0	17.9	4	5.5	4	-1E+10	1	-1E+10	1	-1E+10	1	-1E+10	1	-1E+10	1	-1E+10	1
4901784	22	C	02/10/2016	10:47	-131.742	44.940	0	1280.20	0	2.8170	0	34.4490	0	27.470	0	1265.921	0	18.1	4	5.6	4	-1E+10	1	-1E+10	1	-1E+10	1	-1E+10	1	-1E+10	1	-1E+10	1
4901784	22	C	02/10/2016	10:47	-131.742	44.940	0	1285.40	0	2.8050	0	34.4500	0	27.471	0	1271.047	0	18.4	4	5.6	4	-1E+10	1	-1E+10	1	-1E+10	1	-1E+10	1	-1E+10	1	-1E+10	1
4901784	22	C	02/10/2016	10:47	-131.742	44.940	0	1290.60	0	2.7910	0	34.4530	0	27.475	0	1276.173	0	18.6	4	5.7	4	-1E+10	1	-1E+10	1	-1E+10	1	-1E+10	1	-1E+10	1	-1E+10	1
4901784	22	C	02/10/2016	10:47	-131.742	44.940	0	1295.00	0	2.7870	0	34.4540	0	27.476	0	1280.511	0	18.8	4	5.8	4	-1E+10	1	-1E+10	1	-1E+10	1	-1E+10	1	-1E+10	1	-1E+10	1
4901784	22	C	02/10/2016	10:47	-131.742	44.940	0	1299.40	0	2.7780	0	34.4550	0	27.478	0	1284.848	0	19.0	4	5.8	4	-1E+10	1	-1E+10	1	-1E+10	1	-1E+10	1	-1E+10	1	-1E+10	1
4901784	22	C	02/10/2016	10:47	-131.742	44.940	0	1304.70	0	2.7640	0	34.4570	0	27.481	0	1290.072	0	19.2	4	5.9	4	-1E+10	1	-1E+10	1	-1E+10	1	-1E+10	1	-1E+10	1	-1E+10	1
4901784	22	C	02/10/2016	10:47	-131.742	44.940	0	1310.10	0	2.7550	0	34.4580	0	27.482	0	1295.395	0	19.4	4	5.9	4	-1E+10	1	-1E+10	1	-1E+10	1	-1E+10	1	-1E+10	1	-1E+10	1
4901784	22	C	02/10/2016	10:47	-131.742	44.940	0	1315.50	0	2.7480	0	34.4600	0	27.485	0	1300.718	0	19.7	4	6.0	4	-1E+10	1	-1E+10	1	-1E+10	1	-1E+10	1	-1E+10	1	-1E+10	1
4901784	22	C	02/10/2016	10:47	-131.742	44.940	0	1320.00	0	2.7430	0	34.4610	0	27.486	0	1305.153	0	20.0	4	6.1	4	-1E+10	1	-1E+10	1	-1E+10	1	-1E+10	1	-1E+10	1	-1E+10	1
4901784	22	C	02/10/2016	10:47	-131.742	44.940	0	1324.60	0	2.7350	0	34.4630	0	27.488	0	1309.687	0	20.3	4	6.2	4	-1E+10	1	-1E+10	1	-1E+10	1	-1E+10	1	-1E+10	1	-1E+10	1
4901784	22	C	02/10/2016	10:47	-131.742	44.940	0	1330.10	0	2.7320	0	34.4660	0	27.491	0	1315.108	0	20.7	4	6.3	4	-1E+10	1	-1E+10	1	-1E+10	1	-1E+10	1	-1E+10	1	-1E+10	1
4901784	22	C	02/10/2016	10:47	-131.742	44.940	0	1334.70	0	2.7250	0	34.4670	0	27.492	0	1319.642	0	20.9	4	6.4	4	-1E+10	1	-1E+10	1	-1E+10	1	-1E+10	1	-1E+10	1	-1E+10	1
4901784	22	C	02/10/2016	10:47	-131.742	44.940	0	1339.30	0	2.7180	0	34.4680	0	27.494	0	1324.176	0	21.0	4	6.5	4	-1E+10	1	-1E+10	1	-1E+10	1	-1E+10	1	-1E+10	1	-1E+10	1
4901784	22	C	02/10/2016	10:47	-131.742	44.940	0	1344.80	0	2.7080	0	34.4700	0	27.496	0	1329.596	0	21.3	4	6.5	4	-1E+10	1	-1E+10	1	-1E+10	1	-1E+10	1	-1E+10	1	-1E+10	1
4901784	22	C	02/10/2016	10:47	-131.742	44.940	0	1350.30	0	2.7050	0	34.4710	0	27.497	0	1335.017	0	21.3	4	6.5	4	-1E+10	1	-1E+10	1	-1E+10	1	-1E+10	1	-1E+10	1	-1E+10	1
4901784	22	C	02/10/2016	10:47	-131.742	44.940	0	1354.90	0	2.7020	0	34.4710	0	27.498	0	1339.550	0	21.5	4	6.6	4	-1E+10	1	-1E+10	1	-1E+10	1	-1E+10	1	-1E+10	1	-1E+10	1
4901784	22	C	02/10/2016	10:47	-131.742	44.940	0	1359.80	0	2.6960	0	34.4720	0	27.499	0	1344.379	0	21.6	4	6.6	4	-1E+10	1	-1E+10	1	-1E+10	1	-1E+10	1	-1E+10	1	-1E+10	1
4901784	22	C	02/10/2016	10:47	-131.742	44.940	0	1364.90	0	2.6900	0	34.4730	0	27.500	0	1349.405	0	21.7	4	6.7	4	-1E+10	1	-1E+10	1	-1E+10	1	-1E+10	1	-1E+10	1	-1E+10	1
4901784	22	C	02/10/2016	10:47	-131.742	44.940	0	1369.70	0	2.6860	0	34.4730	0	27.501	0	1354.135	0	21.8	4	6.7	4	-1E+10	1	-1E+10	1	-1E+10	1	-1E+10	1	-1E+10	1	-1E+10	1
4901784	22	C	02/10/2016	10:47	-131.742	44.940	0	1374.50	0	2.6830	0	34.4730	0	27.501	0	1358.865	0	21.9	4	6.7	4	-1E+10	1	-1E+10	1	-1E+10	1	-1E+10	1	-1E+10	1	-1E+10	1
4901784	22	C	02/10/2016	10:47	-131.742	44.940	0	1379.30	0	2.6800	0	34.4740	0	27.502	0	1363.595	0	22.1	4	6.8	4	-1E+10	1	-1E+10	1	-1E+10	1	-1E+10	1	-1E+10	1	-1E+10	1
4901784	22	C	02/10/2016	10:47	-131.742	44.940	0	1385.00	0	2.6740	0	34.4750	0	27.503	0	1369.211	0	22.2	4	6.8	4	-1E+10	1	-1E+10	1	-1E+10	1	-1E+10	1	-1E+10	1	-1E+10	1
4901784	22	C	02/10/2016	10:47	-131.742	44.940	0	1390.70	0	2.6650	0	34.4760	0	27.505	0	1374.828	0	22.4	4	6.9	4	-1E+10	1	-1E+10	1	-1E+10	1	-1E+10	1	-1E+10	1	-1E+10	1
4901784	22	C	02/10/2016	10:47	-131.742	44.940	0	1395.60	0	2.6630	0	34.4760	0	27.505	0	1379.656	0	22.5	4	6.9	4	-1E+10	1	-1E+10	1	-1E+10	1	-1E+10	1	-1E+10	1	-1E+10	1
4901784	22	C	02/10/2016	10:47	-131.742	44.940	0	1400.60	0	2.6590	0	34.4770	0	27.506	0	1384.582	0	22.7	4	7.0	4	-1E+10	1	-1E+10	1	-1E+10	1	-1E+10	1	-1E+10	1	-1E+10	1
4901784	22	C	02/10/2016	10:47	-131.742	44.940	0	1405.60	0	2.6520	0	34.4780	0	27.508	0	1389.509	0	22.9	4	7.0	4	-1E+10	1	-1E+10	1	-1E+10	1	-1E+10	1	-1E+10	1	-1E+10	1
4901784	22	C	02/10/2016	10:47	-131.742	44.940	0	1410.60	0	2.6450	0	34.4800	0	27.510	0	1394.435	0	23.2	4	7.1	4	-1E+10	1	-1E+10	1	-1E+10	1	-1E+10	1	-1E+10	1	-1E+10	1
4901784	22	C	02/10/2016	10:47	-131.742	44.940	0	1415.60	0	2.6350	0	34.4810	0	27.512	0	1399.361	0	23.5	4	7.2	4	-1E+10	1	-1E+10	1	-1E+10	1	-1E+10	1	-1E+10	1	-1E+10	1
4901784	22	C	02/10/2016	10:47	-131.742	44.940	0	1420.60	0	2.6260	0	34.4820	0	27.513	0	1404.287	0	23.7	4	7.3	4	-1E+10	1	-1E+10	1	-1E+10	1	-1E+10	1	-1E+10	1	-1E+10	1
4901784	22	C	02/10/2016	10:47	-131.742	44.940	0	1425.60	0	2.6220	0	34.4830	0	27.514	0	1409.213	0	23.9	4	7.3	4	-1E+10	1	-1E+10	1	-1E+10	1	-1E+10	1	-1E+10	1	-1E+10	1
4901784	22	C	02/10/2016	10:47	-131.742	44.940	0	1430.70	0	2.6140	0	34.4840	0	27.516	0	1414.237	0	24.2	4	7.4	4	-1E+10	1	-1E+10	1	-1E+10	1	-1E+10	1	-1E+10	1	-1E+10	1
4901784	22	C	02/10/2016	10:47	-131.742	44.940	0	1435.70	0	2.6060	0	34.4850	0	27.517	0	1419.163	0	24.5	4	7.5	4	-1E+10	1	-1E+10	1	-1E+10	1	-1E+10	1	-1E+10	1	-1E+10	1
4901784	22	C	02/10/2016	10:47	-131.742	44.940	0	1440.80	0	2.5980	0	34.4870	0	27.520	0	1424.187	0	24.7	4	7.6	4	-1E+10	1	-1E+10	1	-1E+10	1	-1E+10	1	-1E+10	1	-1E+10	1
4901784	22	C	02/10/2016	10:47	-131.742	44.940	0	1445.80	0	2.5930	0	34.4880	0	27.521	0	1429.112	0	24.9	4	7.6	4	-1E+10	1	-1E+10	1	-1E+10	1	-1E+10	1	-1E+10	1	-1E+10	1
4901784	22	C	02/10/2016	10:47	-131.742	44.940	0	1450.00	0	2.5880	0	34.4890	0	27.522	0	1433.250	0	25.1	4	7.7	4	-1E+10	1	-1E+10	1	-1E+10	1	-1E+10	1	-1E+10	1	-1E+10	1
4901784	22	C	02/10/2016	10:47	-131.742	44.940	0	1454.20	0	2.5830	0	34.4890	0	27.523	0	1437.387	0	25.4	4	7.8	4	-1E+10	1	-1E+10	1	-1E+10	1	-1E+10	1	-1E+10	1	-1E+10	1
4901784	22	C	02/10/2016	10:47	-131.742	44.940	0	1459.30	0	2.5710	0	34.4910	0	27.525	0	1442.411	0	25.7	4	7.8	4	-1E+10	1	-1E+10	1	-1E+10	1	-1E+10	1	-1E+10	1	-1E+10	1
4901784	22	C	02/10/2016	10:47	-131.742	44.940	0	1464.40	0	2.5610	0	34.4920	0	27.527	0	1447.434	0	26.0	4	7.9	4	-1E+10	1	-1E+10	1	-1E+10	1	-1E+10	1	-1E+10	1	-1E+10	1
4901784	22	C	02/10/2016	10:47	-131.742	44.940	0	1469.50	0	2.5510	0	34.4930	0	27.529	0	1452.457	0	26.2	4	8.0	4	-1E+10	1	-1E+10	1	-1E+10	1	-1E+10	1	-1E+10	1	-1E+10	1
4901784	22	C	02/10/2016	10:47	-131.742	44.940	0	1474.50	0	2.5420	0	34.4940	0	27.530	0	1457.382	0	26.6	4	8.1	4	-1E+10	1	-1E+10	1	-1E+10	1	-1E+10	1	-1E+10	1	-1E+10	1
4901784	22	C	02/10/2016	10:47	-131.742	44.940	0	1479.70	0	2.5270	0	34.4960	0	27.533	0	1462.504	0	26.9	4	8.2	4	-1E+10	1	-1E+10	1	-1E+10	1	-1E+10	1	-1E+10	1	-1E+10	1
4901784	22	C	02/10/2016	10:47	-131.742	44.940	0	1484.80	0	2.5220	0	34.4960	0	27.534	0	1467.527	0	27.1	4	8.3	4	-1E+10	1	-1E+10	1	-1E+10	1	-1E+10	1	-1E+10	1	-1E+10	1
4901784	22	C	02/10/2016	10:47	-131.742	44.940	0	1489.90	0	2.5160	0	34.4980	0	27.536	0	1472.550	0	27.4	4	8.4	4	-1E+10	1	-1E+10	1	-1E+10	1	-1E+10	1	-1E+10	1	-1E+10	1
4901784	22	C	02/10/2016	10:47	-131.742	44.940	0	1495.10	0	2.5030	0	34.5000	0	27.538	0	1477.671	0	27.8	4	8.5	4	-1E+10	1	-1E+10	1	-1E+10	1	-1E+10	1	-1E+10	1	-1E+10	1
4901784	22	C	02/10/2016	10:47	-131.742	44.940	0	1500.30	0	2.4950	0	34.5010	0	27.540	0	1482.792	0	28.1	4	8.6	4	-1E+10	1	-1E+10	1	-1E+10	1	-1E+10	1	-1E+10	1	-1E+10	1
4901784	22	C	02/10/2016	10:47	-131.742	44.940	0	1505.50	0	2.4890	0	34.5010	0	27.540	0	1487.913	0	28.4	4	8.7	4	-1E+10	1	-1E+10	1	-1E+10	1	-1E+10	1	-1E+10	1	-1E+10	1
4901784	22	C	02/10/2016	10:47	-131.742	44.940	0	1509.90	0	2.4780	0	34.5020	0	27.542	0	1492.246	0	28.7	4	8.8	4	-1E+10	1	-1E+10	1	-1E+10	1	-1E+10	1	-1E+10	1	-1E+10	1
4901784	22	C	02/10/2016	10:47	-131.742	44.940	0	1514.20	0	2.4710	0	34.5030	0	27.544	0	1496.481	0	29.0	4	8.8	4	-1E+10	1	-1E+10	1	-1E+10	1	-1E+10	1	-1E+10	1	-1E+10	1
4901784	22	C	02/10/2016	10:47	-131.742	44.940	0	1519.50	0	2.4560	0	34.5050	0	27.547	0	1501.700	0	29.3	4	8.9	4	-1E+10	1	-1E+10	1	-1E+10	1	-1E+10	1	-1E+10	1	-1E+10	1
4901784	22	C	02/10/2016	10:47	-131.742	44.940	0	1524.80	0	2.4510	0	34.5050	0	27.547	0	1506.919	0	29.6	4	9.0	4	-1E+10	1	-1E+10	1	-1E+10	1	-1E+10	1	-1E+10	1	-1E+10	1
4901784	22	C	02/10/2016	10:47	-131.742	44.940	0	1530.00	0	2.4400	0	34.5060	0	27.549	0	1512.039	0	30.1	4	9.2	4	-1E+10	1	-1E+10	1	-1E+10	1	-1E+10	1	-1E+10	1	-1E+10	1
4901784	22	C	02/10/2016	10:47	-131.742	44.940	0	1535.30	0	2.4270	0	34.5080	0	27.551	0	1517.258	0	30.5	4	9.3	4	-1E+10	1	-1E+10	1	-1E+10	1	-1E+10	1	-1E+10	1	-1E+10	1
4901784	22	C	02/10/2016	10:47	-131.742	44.940	0	1540.50	0	2.4170	0	34.5090	0	27.553	0	1522.378	0	30.7	4	9.4	4	-1E+10	1	-1E+10	1	-1E+10	1	-1E+10	1	-1E+10	1	-1E+10	1
4901784	22	C	02/10/2016	10:47	-131.742	44.940	0	1545.70	0	2.4100	0	34.5090	0	27.554	0	1527.498	0	31.0	4	9.4	4	-1E+10	1	-1E+10	1	-1E+10	1	-1E+10	1	-1E+10	1	-1E+10	1
4901784	22	C	02/10/2016	10:47	-131.742	44.940	0	1550.10	0	2.4030	0	34.5100	0	27.555	0	1531.831	0	31.2	4	9.5	4	-1E+10	1	-1E+10	1	-1E+10	1	-1E+10	1	-1E+10	1	-1E+10	1
4901784	22	C	02/10/2016	10:47	-131.742	44.940	0	1554.40	0	2.3970	0	34.5110	0	27.556	0	1536.065	0	31.5	4	9.6	4	-1E+10	1	-1E+10	1	-1E+10	1	-1E+10	1	-1E+10	1	-1E+10	1
4901784	22	C	02/10/2016	10:47	-131.742	44.940	0	1559.70	0	2.3850	0	34.5120	0	27.558	0	1541.283	0	31.8	4	9.7	4	-1E+10	1	-1E+10	1	-1E+10	1	-1E+10	1	-1E+10	1	-1E+10	1
4901784	22	C	02/10/2016	10:47	-131.742	44.940	0	1565.00	0	2.3810	0	34.5130	0	27.559	0	1546.501	0	32.0	4	9.7	4	-1E+10	1	-1E+10	1	-1E+10	1	-1E+10	1	-1E+10	1	-1E+10	1
4901784	22	C	02/10/2016	10:47	-131.742	44.940	0	1570.30	0	2.3800	0	34.5130	0	27.559	0	1551.719	0	32.3	4	9.8	4	-1E+10	1	-1E+10	1	-1E+10	1	-1E+10	1	-1E+10	1	-1E+10	1
4901784	22	C	02/10/2016	10:47	-131.742	44.940	0	1575.60	0	2.3670	0	34.5150	0	27.562	0	1556.936	0	32.8	4	10.0	4	-1E+10	1	-1E+10	1	-1E+10	1	-1E+10	1	-1E+10	1	-1E+10	1
4901784	22	C	02/10/2016	10:47	-131.742	44.940	0	1580.00	0	2.3660	0	34.5150	0	27.562	0	1561.268	0	33.1	4	10.1	4	-1E+10	1	-1E+10	1	-1E+10	1	-1E+10	1	-1E+10	1	-1E+10	1
4901784	22	C	02/10/2016	10:47	-131.742	44.940	0	1584.40	0	2.3550	0	34.5180	0	27.566	0	1565.600	0	33.6	4	10.2	4	-1E+10	1	-1E+10	1	-1E+10	1	-1E+10	1	-1E+10	1	-1E+10	1
4901784	22	C	02/10/2016	10:47	-131.742	44.940	0	1589.70	0	2.3410	0	34.5190	0	27.568	0	1570.817	0	34.0	4	10.3	4	-1E+10	1	-1E+10	1	-1E+10	1	-1E+10	1	-1E+10	1	-1E+10	1
4901784	22	C	02/10/2016	10:47	-131.742	44.940	0	1594.90	0	2.3330	0	34.5200	0	27.569	0	1575.936	0	34.3	4	10.4	4	-1E+10	1	-1E+10	1	-1E+10	1	-1E+10	1	-1E+10	1	-1E+10	1
4901784	22	C	02/10/2016	10:47	-131.742	44.940	0	1600.10	0	2.3270	0	34.5220	0	27.571	0	1581.055	0	34.6	4	10.5	4	-1E+10	1	-1E+10	1	-1E+10	1	-1E+10	1	-1E+10	1	-1E+10	1
4901784	22	C	02/10/2016	10:47	-131.742	44.940	0	1605.40	0	2.3210	0	34.5220	0	27.572	0	1586.272	0	34.9	4	10.6	4	-1E+10	1	-1E+10	1	-1E+10	1	-1E+10	1	-1E+10	1	-1E+10	1
4901784	22	C	02/10/2016	10:47	-131.742	44.940	0	1609.80	0	2.3140	0	34.5230	0	27.573	0	1590.603	0	35.1	4	10.7	4	-1E+10	1	-1E+10	1	-1E+10	1	-1E+10	1	-1E+10	1	-1E+10	1
4901784	22	C	02/10/2016	10:47	-131.742	44.940	0	1614.30	0	2.3080	0	34.5240	0	27.574	0	1595.032	0	35.4	4	10.7	4	-1E+10	1	-1E+10	1	-1E+10	1	-1E+10	1	-1E+10	1	-1E+10	1
4901784	22	C	02/10/2016	10:47	-131.742	44.940	0	1619.70	0	2.3000	0	34.5250	0	27.576	0	1600.347	0	35.7	4	10.8	4	-1E+10	1	-1E+10	1	-1E+10	1	-1E+10	1	-1E+10	1	-1E+10	1
4901784	22	C	02/10/2016	10:47	-131.742	44.940	0	1625.00	0	2.2920	0	34.5260	0	27.577	0	1605.564	0	36.0	4	10.9	4	-1E+10	1	-1E+10	1	-1E+10	1	-1E+10	1	-1E+10	1	-1E+10	1
4901784	22	C	02/10/2016	10:47	-131.742	44.940	0	1630.40	0	2.2850	0	34.5270	0	27.579	0	1610.879	0	36.4	4	11.0	4	-1E+10	1	-1E+10	1	-1E+10	1	-1E+10	1	-1E+10	1	-1E+10	1
4901784	22	C	02/10/2016	10:47	-131.742	44.940	0	1634.90	0	2.2810	0	34.5270	0	27.579	0	1615.308	0	36.6	4	11.1	4	-1E+10	1	-1E+10	1	-1E+10	1	-1E+10	1	-1E+10	1	-1E+10	1
4901784	22	C	02/10/2016	10:47	-131.742	44.940	0	1639.40	0	2.2750	0	34.5280	0	27.580	0	1619.737	0	37.0	4	11.2	4	-1E+10	1	-1E+10	1	-1E+10	1	-1E+10	1	-1E+10	1	-1E+10	1
4901784	22	C	02/10/2016	10:47	-131.742	44.940	0	1644.90	0	2.2660	0	34.5290	0	27.582	0	1625.150	0	37.5	4	11.4	4	-1E+10	1	-1E+10	1	-1E+10	1	-1E+10	1	-1E+10	1	-1E+10	1
4901784	22	C	02/10/2016	10:47	-131.742	44.940	0	1650.30	0	2.2510	0	34.5310	0	27.585	0	1630.464	0	38.2	4	11.6	4	-1E+10	1	-1E+10	1	-1E+10	1	-1E+10	1	-1E+10	1	-1E+10	1
4901784	22	C	02/10/2016	10:47	-131.742	44.940	0	1654.90	0	2.2430	0	34.5320	0	27.586	0	1634.991	0	38.5	4	11.7	4	-1E+10	1	-1E+10	1	-1E+10	1	-1E+10	1	-1E+10	1	-1E+10	1
4901784	22	C	02/10/2016	10:47	-131.742	44.940	0	1659.40	0	2.2360	0	34.5330	0	27.588	0	1639.420	0	39.0	4	11.8	4	-1E+10	1	-1E+10	1	-1E+10	1	-1E+10	1	-1E+10	1	-1E+10	1
4901784	22	C	02/10/2016	10:47	-131.742	44.940	0	1664.90	0	2.2240	0	34.5350	0	27.590	0	1644.832	0	39.5	4	12.0	4	-1E+10	1	-1E+10	1	-1E+10	1	-1E+10	1	-1E+10	1	-1E+10	1
4901784	22	C	02/10/2016	10:47	-131.742	44.940	0	1670.10	0	2.2190	0	34.5350	0	27.591	0	1649.949	0	39.8	4	12.1	4	-1E+10	1	-1E+10	1	-1E+10	1	-1E+10	1	-1E+10	1	-1E+10	1
4901784	22	C	02/10/2016	10:47	-131.742	44.940	0	1674.40	0	2.2140	0	34.5360	0	27.592	0	1654.180	0	40.1	4	12.1	4	-1E+10	1	-1E+10	1	-1E+10	1	-1E+10	1	-1E+10	1	-1E+10	1
4901784	22	C	02/10/2016	10:47	-131.742	44.940	0	1680.00	0	2.2040	0	34.5370	0	27.594	0	1659.691	0	40.7	4	12.3	4	-1E+10	1	-1E+10	1	-1E+10	1	-1E+10	1	-1E+10	1	-1E+10	1
4901784	22	C	02/10/2016	10:47	-131.742	44.940	0	1685.70	0	2.1910	0	34.5380	0	27.595	0	1665.300	0	41.3	4	12.5	4	-1E+10	1	-1E+10	1	-1E+10	1	-1E+10	1	-1E+10	1	-1E+10	1
4901784	22	C	02/10/2016	10:47	-131.742	44.940	0	1690.60	0	2.1820	0	34.5390	0	27.597	0	1670.121	0	41.6	4	12.6	4	-1E+10	1	-1E+10	1	-1E+10	1	-1E+10	1	-1E+10	1	-1E+10	1
4901784	22	C	02/10/2016	10:47	-131.742	44.940	0	1695.60	0	2.1770	0	34.5400	0	27.598	0	1675.041	0	42.0	4	12.7	4	-1E+10	1	-1E+10	1	-1E+10	1	-1E+10	1	-1E+10	1	-1E+10	1
4901784	22	C	02/10/2016	10:47	-131.742	44.940	0	1700.60	0	2.1700	0	34.5420	0	27.600	0	1679.960	0	42.3	4	12.8	4	-1E+10	1	-1E+10	1	-1E+10	1	-1E+10	1	-1E+10	1	-1E+10	1
4901784	22	C	02/10/2016	10:47	-131.742	44.940	0	1705.60	0	2.1640	0	34.5430	0	27.602	0	1684.880	0	42.5	4	12.9	4	-1E+10	1	-1E+10	1	-1E+10	1	-1E+10	1	-1E+10	1	-1E+10	1
4901784	22	C	02/10/2016	10:47	-131.742	44.940	0	1710.60	0	2.1630	0	34.5420	0	27.601	0	1689.799	0	42.8	4	13.0	4	-1E+10	1	-1E+10	1	-1E+10	1	-1E+10	1	-1E+10	1	-1E+10	1
4901784	22	C	02/10/2016	10:47	-131.742	44.940	0	1715.70	0	2.1530	0	34.5440	0	27.603	0	1694.817	0	43.3	4	13.1	4	-1E+10	1	-1E+10	1	-1E+10	1	-1E+10	1	-1E+10	1	-1E+10	1
4901784	22	C	02/10/2016	10:47	-131.742	44.940	0	1720.80	0	2.1460	0	34.5450	0	27.605	0	1699.834	0	43.8	4	13.2	4	-1E+10	1	-1E+10	1	-1E+10	1	-1E+10	1	-1E+10	1	-1E+10	1
4901784	22	C	02/10/2016	10:47	-131.742	44.940	0	1725.10	0	2.1400	0	34.5460	0	27.606	0	1704.065	0	44.1	4	13.4	4	-1E+10	1	-1E+10	1	-1E+10	1	-1E+10	1	-1E+10	1	-1E+10	1
4901784	22	C	02/10/2016	10:47	-131.742	44.940	0	1729.30	0	2.1350	0	34.5470	0	27.607	0	1708.197	0	44.5	4	13.5	4	-1E+10	1	-1E+10	1	-1E+10	1	-1E+10	1	-1E+10	1	-1E+10	1
4901784	22	C	02/10/2016	10:47	-131.742	44.940	0	1734.50	0	2.1250	0	34.5480	0	27.609	0	1713.312	0	45.0	4	13.6	4	-1E+10	1	-1E+10	1	-1E+10	1	-1E+10	1	-1E+10	1	-1E+10	1
4901784	22	C	02/10/2016	10:47	-131.742	44.940	0	1739.60	0	2.1180	0	34.5490	0	27.610	0	1718.329	0	45.5	4	13.8	4	-1E+10	1	-1E+10	1	-1E+10	1	-1E+10	1	-1E+10	1	-1E+10	1
4901784	22	C	02/10/2016	10:47	-131.742	44.940	0	1744.80	0	2.1120	0	34.5500	0	27.612	0	1723.445	0	45.9	4	13.9	4	-1E+10	1	-1E+10	1	-1E+10	1	-1E+10	1	-1E+10	1	-1E+10	1
4901784	22	C	02/10/2016	10:47	-131.742	44.940	0	1750.10	0	2.1030	0	34.5510	0	27.613	0	1728.658	0	46.2	4	14.0	4	-1E+10	1	-1E+10	1	-1E+10	1	-1E+10	1	-1E+10	1	-1E+10	1
4901784	22	C	02/10/2016	10:47	-131.742	44.940	0	1755.40	0	2.0990	0	34.5510	0	27.613	0	1733.871	0	46.5	4	14.1	4	-1E+10	1	-1E+10	1	-1E+10	1	-1E+10	1	-1E+10	1	-1E+10	1
4901784	22	C	02/10/2016	10:47	-131.742	44.940	0	1760.60	0	2.0960	0	34.5520	0	27.615	0	1738.986	0	46.7	4	14.1	4	-1E+10	1	-1E+10	1	-1E+10	1	-1E+10	1	-1E+10	1	-1E+10	1
4901784	22	C	02/10/2016	10:47	-131.742	44.940	0	1765.10	0	2.0930	0	34.5530	0	27.616	0	1743.413	0	46.9	4	14.2	4	-1E+10	1	-1E+10	1	-1E+10	1	-1E+10	1	-1E+10	1	-1E+10	1
4901784	22	C	02/10/2016	10:47	-131.742	44.940	0	1769.50	0	2.0910	0	34.5530	0	27.616	0	1747.741	0	47.1	4	14.2	4	-1E+10	1	-1E+10	1	-1E+10	1	-1E+10	1	-1E+10	1	-1E+10	1
4901784	22	C	02/10/2016	10:47	-131.742	44.940	0	1774.90	0	2.0860	0	34.5540	0	27.617	0	1753.052	0	47.5	4	14.4	4	-1E+10	1	-1E+10	1	-1E+10	1	-1E+10	1	-1E+10	1	-1E+10	1
4901784	22	C	02/10/2016	10:47	-131.742	44.940	0	1780.20	0	2.0800	0	34.5550	0	27.618	0	1758.265	0	47.9	4	14.5	4	-1E+10	1	-1E+10	1	-1E+10	1	-1E+10	1	-1E+10	1	-1E+10	1
4901784	22	C	02/10/2016	10:47	-131.742	44.940	0	1785.60	0	2.0760	0	34.5550	0	27.619	0	1763.576	0	48.3	4	14.6	4	-1E+10	1	-1E+10	1	-1E+10	1	-1E+10	1	-1E+10	1	-1E+10	1
4901784	22	C	02/10/2016	10:47	-131.742	44.940	0	1790.00	0	2.0690	0	34.5560	0	27.620	0	1767.903	0	48.6	4	14.7	4	-1E+10	1	-1E+10	1	-1E+10	1	-1E+10	1	-1E+10	1	-1E+10	1
4901784	22	C	02/10/2016	10:47	-131.742	44.940	0	1794.50	0	2.0640	0	34.5570	0	27.621	0	1772.329	0	49.0	4	14.8	4	-1E+10	1	-1E+10	1	-1E+10	1	-1E+10	1	-1E+10	1	-1E+10	1
4901784	22	C	02/10/2016	10:47	-131.742	44.940	0	1799.90	0	2.0580	0	34.5570	0	27.622	0	1777.640	0	49.3	4	14.9	4	-1E+10	1	-1E+10	1	-1E+10	1	-1E+10	1	-1E+10	1	-1E+10	1
4901784	22	C	02/10/2016	10:47	-131.742	44.940	0	1805.30	0	2.0520	0	34.5580	0	27.623	0	1782.950	0	49.6	4	15.0	4	-1E+10	1	-1E+10	1	-1E+10	1	-1E+10	1	-1E+10	1	-1E+10	1
4901784	22	C	02/10/2016	10:47	-131.742	44.940	0	1809.80	0	2.0510	0	34.5590	0	27.624	0	1787.375	0	49.8	4	15.0	4	-1E+10	1	-1E+10	1	-1E+10	1	-1E+10	1	-1E+10	1	-1E+10	1
4901784	22	C	02/10/2016	10:47	-131.742	44.940	0	1814.30	0	2.0460	0	34.5600	0	27.625	0	1791.801	0	50.2	4	15.1	4	-1E+10	1	-1E+10	1	-1E+10	1	-1E+10	1	-1E+10	1	-1E+10	1
4901784	22	C	02/10/2016	10:47	-131.742	44.940	0	1819.80	0	2.0410	0	34.5600	0	27.626	0	1797.209	0	50.5	4	15.2	4	-1E+10	1	-1E+10	1	-1E+10	1	-1E+10	1	-1E+10	1	-1E+10	1
4901784	22	C	02/10/2016	10:47	-131.742	44.940	0	1825.30	0	2.0350	0	34.5610	0	27.627	0	1802.618	0	50.9	4	15.4	4	-1E+10	1	-1E+10	1	-1E+10	1	-1E+10	1	-1E+10	1	-1E+10	1
4901784	22	C	02/10/2016	10:47	-131.742	44.940	0	1829.90	0	2.0310	0	34.5620	0	27.628	0	1807.141	0	51.2	4	15.4	4	-1E+10	1	-1E+10	1	-1E+10	1	-1E+10	1	-1E+10	1	-1E+10	1
4901784	22	C	02/10/2016	10:47	-131.742	44.940	0	1834.40	0	2.0280	0	34.5620	0	27.628	0	1811.566	0	51.5	4	15.5	4	-1E+10	1	-1E+10	1	-1E+10	1	-1E+10	1	-1E+10	1	-1E+10	1
4901784	22	C	02/10/2016	10:47	-131.742	44.940	0	1839.90	0	2.0210	0	34.5630	0	27.630	0	1816.974	0	52.0	4	15.7	4	-1E+10	1	-1E+10	1	-1E+10	1	-1E+10	1	-1E+10	1	-1E+10	1
4901784	22	C	02/10/2016	10:47	-131.742	44.940	0	1845.40	0	2.0140	0	34.5640	0	27.631	0	1822.382	0	52.4	4	15.8	4	-1E+10	1	-1E+10	1	-1E+10	1	-1E+10	1	-1E+10	1	-1E+10	1
4901784	22	C	02/10/2016	10:47	-131.742	44.940	0	1850.00	0	2.0110	0	34.5650	0	27.632	0	1826.905	0	52.7	4	15.9	4	-1E+10	1	-1E+10	1	-1E+10	1	-1E+10	1	-1E+10	1	-1E+10	1
4901784	22	C	02/10/2016	10:47	-131.742	44.940	0	1854.60	0	2.0070	0	34.5650	0	27.632	0	1831.427	0	53.1	4	16.0	4	-1E+10	1	-1E+10	1	-1E+10	1	-1E+10	1	-1E+10	1	-1E+10	1
4901784	22	C	02/10/2016	10:47	-131.742	44.940	0	1860.20	0	1.9990	0	34.5670	0	27.635	0	1836.933	0	53.6	4	16.2	4	-1E+10	1	-1E+10	1	-1E+10	1	-1E+10	1	-1E+10	1	-1E+10	1
4901784	22	C	02/10/2016	10:47	-131.742	44.940	0	1864.80	0	1.9960	0	34.5680	0	27.636	0	1841.456	0	54.0	4	16.3	4	-1E+10	1	-1E+10	1	-1E+10	1	-1E+10	1	-1E+10	1	-1E+10	1
4901784	22	C	02/10/2016	10:47	-131.742	44.940	0	1870.10	0	1.9890	0	34.5690	0	27.637	0	1846.666	0	54.4	4	16.4	4	-1E+10	1	-1E+10	1	-1E+10	1	-1E+10	1	-1E+10	1	-1E+10	1
4901784	22	C	02/10/2016	10:47	-131.742	44.940	0	1875.20	0	1.9850	0	34.5690	0	27.637	0	1851.680	0	54.7	4	16.5	4	-1E+10	1	-1E+10	1	-1E+10	1	-1E+10	1	-1E+10	1	-1E+10	1
4901784	22	C	02/10/2016	10:47	-131.742	44.940	0	1880.20	0	1.9810	0	34.5700	0	27.639	0	1856.596	0	55.0	4	16.6	4	-1E+10	1	-1E+10	1	-1E+10	1	-1E+10	1	-1E+10	1	-1E+10	1
4901784	22	C	02/10/2016	10:47	-131.742	44.940	0	1885.20	0	1.9770	0	34.5710	0	27.640	0	1861.511	0	55.3	4	16.6	4	-1E+10	1	-1E+10	1	-1E+10	1	-1E+10	1	-1E+10	1	-1E+10	1
4901784	22	C	02/10/2016	10:47	-131.742	44.940	0	1890.20	0	1.9730	0	34.5710	0	27.640	0	1866.426	0	55.6	4	16.7	4	-1E+10	1	-1E+10	1	-1E+10	1	-1E+10	1	-1E+10	1	-1E+10	1
4901784	22	C	02/10/2016	10:47	-131.742	44.940	0	1895.20	0	1.9690	0	34.5720	0	27.641	0	1871.342	0	55.8	4	16.8	4	-1E+10	1	-1E+10	1	-1E+10	1	-1E+10	1	-1E+10	1	-1E+10	1
4901784	22	C	02/10/2016	10:47	-131.742	44.940	0	1900.20	0	1.9680	0	34.5730	0	27.642	0	1876.257	0	56.0	4	16.9	4	-1E+10	1	-1E+10	1	-1E+10	1	-1E+10	1	-1E+10	1	-1E+10	1
4901784	22	C	02/10/2016	10:47	-131.742	44.940	0	1905.30	0	1.9660	0	34.5730	0	27.642	0	1881.270	0	56.2	4	16.9	4	-1E+10	1	-1E+10	1	-1E+10	1	-1E+10	1	-1E+10	1	-1E+10	1
4901784	22	C	02/10/2016	10:47	-131.742	44.940	0	1910.40	0	1.9620	0	34.5740	0	27.643	0	1886.283	0	56.5	4	17.0	4	-1E+10	1	-1E+10	1	-1E+10	1	-1E+10	1	-1E+10	1	-1E+10	1
4901784	22	C	02/10/2016	10:47	-131.742	44.940	0	1915.50	0	1.9590	0	34.5740	0	27.644	0	1891.296	0	56.7	4	17.1	4	-1E+10	1	-1E+10	1	-1E+10	1	-1E+10	1	-1E+10	1	-1E+10	1
4901784	22	C	02/10/2016	10:47	-131.742	44.940	0	1920.70	0	1.9580	0	34.5740	0	27.644	0	1896.407	0	56.9	4	17.1	4	-1E+10	1	-1E+10	1	-1E+10	1	-1E+10	1	-1E+10	1	-1E+10	1
4901784	22	C	02/10/2016	10:47	-131.742	44.940	0	1925.00	0	1.9550	0	34.5750	0	27.645	0	1900.633	0	57.1	4	17.2	4	-1E+10	1	-1E+10	1	-1E+10	1	-1E+10	1	-1E+10	1	-1E+10	1
4901784	22	C	02/10/2016	10:47	-131.742	44.940	0	1929.20	0	1.9540	0	34.5750	0	27.645	0	1904.762	0	57.2	4	17.2	4	-1E+10	1	-1E+10	1	-1E+10	1	-1E+10	1	-1E+10	1	-1E+10	1
4901784	22	C	02/10/2016	10:47	-131.742	44.940	0	1934.40	0	1.9510	0	34.5750	0	27.645	0	1909.872	0	57.4	4	17.3	4	-1E+10	1	-1E+10	1	-1E+10	1	-1E+10	1	-1E+10	1	-1E+10	1
4901784	22	C	02/10/2016	10:47	-131.742	44.940	0	1939.60	0	1.9500	0	34.5760	0	27.646	0	1914.983	0	57.6	4	17.3	4	-1E+10	1	-1E+10	1	-1E+10	1	-1E+10	1	-1E+10	1	-1E+10	1
4901784	22	C	02/10/2016	10:47	-131.742	44.940	0	1944.70	0	1.9470	0	34.5760	0	27.646	0	1919.995	0	57.8	4	17.4	4	-1E+10	1	-1E+10	1	-1E+10	1	-1E+10	1	-1E+10	1	-1E+10	1
4901784	22	C	02/10/2016	10:47	-131.742	44.940	0	1949.90	0	1.9450	0	34.5770	0	27.647	0	1925.106	0	58.0	4	17.4	4	-1E+10	1	-1E+10	1	-1E+10	1	-1E+10	1	-1E+10	1	-1E+10	1
4901784	22	C	02/10/2016	10:47	-131.742	44.940	0	1955.20	0	1.9430	0	34.5770	0	27.647	0	1930.314	0	58.1	4	17.5	4	-1E+10	1	-1E+10	1	-1E+10	1	-1E+10	1	-1E+10	1	-1E+10	1
4901784	22	C	02/10/2016	10:47	-131.742	44.940	0	1960.40	0	1.9410	0	34.5770	0	27.648	0	1935.425	0	58.3	4	17.6	4	-1E+10	1	-1E+10	1	-1E+10	1	-1E+10	1	-1E+10	1	-1E+10	1
4901784	22	C	02/10/2016	10:47	-131.742	44.940	0	1965.70	0	1.9390	0	34.5780	0	27.649	0	1940.633	0	58.5	4	17.6	4	-1E+10	1	-1E+10	1	-1E+10	1	-1E+10	1	-1E+10	1	-1E+10	1
4901784	22	C	02/10/2016	10:47	-131.742	44.940	0	1970.10	0	1.9370	0	34.5780	0	27.649	0	1944.957	0	58.6	4	17.6	4	-1E+10	1	-1E+10	1	-1E+10	1	-1E+10	1	-1E+10	1	-1E+10	1
4901784	22	C	02/10/2016	10:47	-131.742	44.940	0	1974.60	0	1.9360	0	34.5780	0	27.649	0	1949.379	0	58.7	4	17.7	4	-1E+10	1	-1E+10	1	-1E+10	1	-1E+10	1	-1E+10	1	-1E+10	1
4901784	22	C	02/10/2016	10:47	-131.742	44.940	0	1980.00	0	1.9360	0	34.5780	0	27.649	0	1954.685	0	58.8	4	17.7	4	-1E+10	1	-1E+10	1	-1E+10	1	-1E+10	1	-1E+10	1	-1E+10	1
4901784	22	C	02/10/2016	10:47	-131.742	44.940	0	1985.00	0	1.9330	0	34.5790	0	27.650	0	1959.598	0	59.0	4	17.8	4	-1E+10	1	-1E+10	1	-1E+10	1	-1E+10	1	-1E+10	1	-1E+10	1
4901784	22	C	02/10/2016	10:47	-131.742	44.940	0	1990.00	0	1.9310	0	34.5790	0	27.650	0	1964.511	0	59.1	4	17.8	4	-1E+10	1	-1E+10	1	-1E+10	1	-1E+10	1	-1E+10	1	-1E+10	1
4901784	22	C	02/10/2016	10:47	-131.742	44.940	0	1995.50	0	1.9310	0	34.5790	0	27.650	0	1969.915	0	59.3	4	17.8	4	-1E+10	1	-1E+10	1	-1E+10	1	-1E+10	1	-1E+10	1	-1E+10	1
4901784	22	C	02/10/2016	10:47	-131.742	44.940	0	2000.30	0	1.9280	0	34.5800	0	27.651	0	1974.632	0	59.5	4	17.9	4	-1E+10	1	-1E+10	1	-1E+10	1	-1E+10	1	-1E+10	1	-1E+10	1
4901784	22	C	02/10/2016	10:47	-131.742	44.940	0	2005.10	0	1.9270	0	34.5800	0	27.651	0	1979.348	0	59.6	4	17.9	4	-1E+10	1	-1E+10	1	-1E+10	1	-1E+10	1	-1E+10	1	-1E+10	1
4901784	22	C	02/10/2016	10:47	-131.742	44.940	0	2010.00	0	1.9250	0	34.5800	0	27.652	0	1984.162	0	59.8	4	18.0	4	-1E+10	1	-1E+10	1	-1E+10	1	-1E+10	1	-1E+10	1	-1E+10	1
4901784	22	C	02/10/2016	10:47	-131.742	44.940	0	2015.20	0	1.9240	0	34.5810	0	27.653	0	1989.271	0	59.9	4	18.0	4	-1E+10	1	-1E+10	1	-1E+10	1	-1E+10	1	-1E+10	1	-1E+10	1
4901784	22	C	02/10/2016	10:47	-131.742	44.940	0	2019.80	0	1.9220	0	34.5810	0	27.653	0	1993.790	0	60.0	4	18.1	4	-1E+10	1	-1E+10	1	-1E+10	1	-1E+10	1	-1E+10	1	-1E+10	1
4901784	22	C	02/10/2016	10:47	-131.742	44.940	0																										
4901784	23	C	02/20/2016	10:49	-131.875	44.819	0	3.00	0	10.6340	0	32.7190	0	25.064	0	2.976	0	263.8	4	95.8	4	-1E+10	1	-1E+10	1	-1E+10	1	-1E+10	1	-1E+10	1	-1E+10	1
4901784	23	C	02/20/2016	10:49	-131.875	44.819	0	4.50	0	10.6350	0	32.7180	0	25.063	0	4.463	0	263.8	4	95.8	4	-1E+10	1	-1E+10	1	-1E+10	1	-1E+10	1	-1E+10	1	-1E+10	1
4901784	23	C	02/20/2016	10:49	-131.875	44.819	0	5.80	0	10.6360	0	32.7180	0	25.063	0	5.753	0	263.6	4	95.7	4	-1E+10	1	-1E+10	1	-1E+10	1	-1E+10	1	-1E+10	1	-1E+10	1
4901784	23	C	02/20/2016	10:49	-131.875	44.819	0	7.30	0	10.6360	0	32.7180	0	25.063	0	7.241	0	263.6	4	95.7	4	-1E+10	1	-1E+10	1	-1E+10	1	-1E+10	1	-1E+10	1	-1E+10	1
4901784	23	C	02/20/2016	10:49	-131.875	44.819	0	8.80	0	10.6370	0	32.7180	0	25.063	0	8.729	0	263.7	4	95.8	4	-1E+10	1	-1E+10	1	-1E+10	1	-1E+10	1	-1E+10	1	-1E+10	1
4901784	23	C	02/20/2016	10:49	-131.875	44.819	0	10.30	0	10.6370	0	32.7190	0	25.064	0	10.216	0	263.7	4	95.8	4	-1E+10	1	-1E+10	1	-1E+10	1	-1E+10	1	-1E+10	1	-1E+10	1
4901784	23	C	02/20/2016	10:49	-131.875	44.819	0	11.90	0	10.6370	0	32.7180	0	25.063	0	11.803	0	263.6	4	95.7	4	-1E+10	1	-1E+10	1	-1E+10	1	-1E+10	1	-1E+10	1	-1E+10	1
4901784	23	C	02/20/2016	10:49	-131.875	44.819	0	13.70	0	10.6400	0	32.7180	0	25.063	0	13.589	0	263.8	4	95.8	4	-1E+10	1	-1E+10	1	-1E+10	1	-1E+10	1	-1E+10	1	-1E+10	1
4901784	23	C	02/20/2016	10:49	-131.875	44.819	0	15.40	0	10.6400	0	32.7180	0	25.063	0	15.275	0	263.5	4	95.7	4	-1E+10	1	-1E+10	1	-1E+10	1	-1E+10	1	-1E+10	1	-1E+10	1
4901784	23	C	02/20/2016	10:49	-131.875	44.819	0	17.20	0	10.6410	0	32.7180	0	25.062	0	17.060	0	263.5	4	95.7	4	-1E+10	1	-1E+10	1	-1E+10	1	-1E+10	1	-1E+10	1	-1E+10	1
4901784	23	C	02/20/2016	10:49	-131.875	44.819	0	19.10	0	10.6420	0	32.7180	0	25.062	0	18.944	0	263.7	4	95.8	4	-1E+10	1	-1E+10	1	-1E+10	1	-1E+10	1	-1E+10	1	-1E+10	1
4901784	23	C	02/20/2016	10:49	-131.875	44.819	0	21.00	0	10.6430	0	32.7180	0	25.062	0	20.829	0	263.5	4	95.7	4	-1E+10	1	-1E+10	1	-1E+10	1	-1E+10	1	-1E+10	1	-1E+10	1
4901784	23	C	02/20/2016	10:49	-131.875	44.819	0	22.80	0	10.6430	0	32.7180	0	25.062	0	22.614	0	263.4	4	95.7	4	-1E+10	1	-1E+10	1	-1E+10	1	-1E+10	1	-1E+10	1	-1E+10	1
4901784	23	C	02/20/2016	10:49	-131.875	44.819	0	24.70	0	10.6430	0	32.7180	0	25.062	0	24.498	0	263.6	4	95.7	4	-1E+10	1	-1E+10	1	-1E+10	1	-1E+10	1	-1E+10	1	-1E+10	1
4901784	23	C	02/20/2016	10:49	-131.875	44.819	0	26.40	0	10.6430	0	32.7180	0	25.062	0	26.184	0	263.4	4	95.7	4	-1E+10	1	-1E+10	1	-1E+10	1	-1E+10	1	-1E+10	1	-1E+10	1
4901784	23	C	02/20/2016	10:49	-131.875	44.819	0	28.30	0	10.6440	0	32.7180	0	25.062	0	28.069	0	263.6	4	95.7	4	-1E+10	1	-1E+10	1	-1E+10	1	-1E+10	1	-1E+10	1	-1E+10	1
4901784	23	C	02/20/2016	10:49	-131.875	44.819	0	30.00	0	10.6440	0	32.7180	0	25.062	0	29.755	0	263.5	4	95.7	4	-1E+10	1	-1E+10	1	-1E+10	1	-1E+10	1	-1E+10	1	-1E+10	1
4901784	23	C	02/20/2016	10:49	-131.875	44.819	0	31.90	0	10.6450	0	32.7180	0	25.062	0	31.639	0	263.5	4	95.7	4	-1E+10	1	-1E+10	1	-1E+10	1	-1E+10	1	-1E+10	1	-1E+10	1
4901784	23	C	02/20/2016	10:49	-131.875	44.819	0	33.80	0	10.6450	0	32.7180	0	25.062	0	33.523	0	263.4	4	95.7	4	-1E+10	1	-1E+10	1	-1E+10	1	-1E+10	1	-1E+10	1	-1E+10	1
4901784	23	C	02/20/2016	10:49	-131.875	44.819	0	35.60	0	10.6460	0	32.7180	0	25.062	0	35.309	0	263.4	4	95.7	4	-1E+10	1	-1E+10	1	-1E+10	1	-1E+10	1	-1E+10	1	-1E+10	1
4901784	23	C	02/20/2016	10:49	-131.875	44.819	0	37.40	0	10.6450	0	32.7180	0	25.062	0	37.094	0	263.3	4	95.6	4	-1E+10	1	-1E+10	1	-1E+10	1	-1E+10	1	-1E+10	1	-1E+10	1
4901784	23	C	02/20/2016	10:49	-131.875	44.819	0	39.30	0	10.6460	0	32.7180	0	25.062	0	38.978	0	263.3	4	95.7	4	-1E+10	1	-1E+10	1	-1E+10	1	-1E+10	1	-1E+10	1	-1E+10	1
4901784	23	C	02/20/2016	10:49	-131.875	44.819	0	41.10	0	10.6400	0	32.7190	0	25.064	0	40.763	0	263.3	4	95.6	4	-1E+10	1	-1E+10	1	-1E+10	1	-1E+10	1	-1E+10	1	-1E+10	1
4901784	23	C	02/20/2016	10:49	-131.875	44.819	0	43.00	0	10.6410	0	32.7180	0	25.063	0	42.647	0	263.4	4	95.7	4	-1E+10	1	-1E+10	1	-1E+10	1	-1E+10	1	-1E+10	1	-1E+10	1
4901784	23	C	02/20/2016	10:49	-131.875	44.819	0	44.70	0	10.6410	0	32.7180	0	25.063	0	44.333	0	263.4	4	95.7	4	-1E+10	1	-1E+10	1	-1E+10	1	-1E+10	1	-1E+10	1	-1E+10	1
4901784	23	C	02/20/2016	10:49	-131.875	44.819	0	46.60	0	10.6400	0	32.7180	0	25.063	0	46.217	0	263.1	4	95.6	4	-1E+10	1	-1E+10	1	-1E+10	1	-1E+10	1	-1E+10	1	-1E+10	1
4901784	23	C	02/20/2016	10:49	-131.875	44.819	0	48.40	0	10.6410	0	32.7180	0	25.063	0	48.002	0	263.3	4	95.6	4	-1E+10	1	-1E+10	1	-1E+10	1	-1E+10	1	-1E+10	1	-1E+10	1
4901784	23	C	02/20/2016	10:49	-131.875	44.819	0	50.10	0	10.6410	0	32.7190	0	25.064	0	49.688	0	263.2	4	95.6	4	-1E+10	1	-1E+10	1	-1E+10	1	-1E+10	1	-1E+10	1	-1E+10	1
4901784	23	C	02/20/2016	10:49	-131.875	44.819	0	52.00	0	10.6420	0	32.7190	0	25.064	0	51.572	0	263.1	4	95.6	4	-1E+10	1	-1E+10	1	-1E+10	1	-1E+10	1	-1E+10	1	-1E+10	1
4901784	23	C	02/20/2016	10:49	-131.875	44.819	0	53.70	0	10.6470	0	32.7180	0	25.062	0	53.258	0	263.1	4	95.6	4	-1E+10	1	-1E+10	1	-1E+10	1	-1E+10	1	-1E+10	1	-1E+10	1
4901784	23	C	02/20/2016	10:49	-131.875	44.819	0	55.60	0	10.6470	0	32.7180	0	25.062	0	55.142	0	263.0	4	95.5	4	-1E+10	1	-1E+10	1	-1E+10	1	-1E+10	1	-1E+10	1	-1E+10	1
4901784	23	C	02/20/2016	10:49	-131.875	44.819	0	57.30	0	10.6470	0	32.7180	0	25.062	0	56.828	0	263.2	4	95.6	4	-1E+10	1	-1E+10	1	-1E+10	1	-1E+10	1	-1E+10	1	-1E+10	1
4901784	23	C	02/20/2016	10:49	-131.875	44.819	0	59.20	0	10.6470	0	32.7180	0	25.062	0	58.712	0	263.0	4	95.5	4	-1E+10	1	-1E+10	1	-1E+10	1	-1E+10	1	-1E+10	1	-1E+10	1
4901784	23	C	02/20/2016	10:49	-131.875	44.819	0	61.00	0	10.6470	0	32.7180	0	25.062	0	60.497	0	263.0	4	95.5	4	-1E+10	1	-1E+10	1	-1E+10	1	-1E+10	1	-1E+10	1	-1E+10	1
4901784	23	C	02/20/2016	10:49	-131.875	44.819	0	62.90	0	10.6470	0	32.7180	0	25.062	0	62.381	0	263.1	4	95.6	4	-1E+10	1	-1E+10	1	-1E+10	1	-1E+10	1	-1E+10	1	-1E+10	1
4901784	23	C	02/20/2016	10:49	-131.875	44.819	0	64.70	0	10.6470	0	32.7180	0	25.062	0	64.166	0	262.8	4	95.5	4	-1E+10	1	-1E+10	1	-1E+10	1	-1E+10	1	-1E+10	1	-1E+10	1
4901784	23	C	02/20/2016	10:49	-131.875	44.819	0	66.60	0	10.6480	0	32.7180	0	25.062	0	66.050	0	262.9	4	95.5	4	-1E+10	1	-1E+10	1	-1E+10	1	-1E+10	1	-1E+10	1	-1E+10	1
4901784	23	C	02/20/2016	10:49	-131.875	44.819	0	68.40	0	10.6480	0	32.7180	0	25.062	0	67.835	0	262.7	4	95.4	4	-1E+10	1	-1E+10	1	-1E+10	1	-1E+10	1	-1E+10	1	-1E+10	1
4901784	23	C	02/20/2016	10:49	-131.875	44.819	0	70.20	0	10.6490	0	32.7180	0	25.062	0	69.619	0	262.7	4	95.4	4	-1E+10	1	-1E+10	1	-1E+10	1	-1E+10	1	-1E+10	1	-1E+10	1
4901784	23	C	02/20/2016	10:49	-131.875	44.819	0	72.10	0	10.6490	0	32.7180	0	25.062	0	71.503	0	262.6	4	95.4	4	-1E+10	1	-1E+10	1	-1E+10	1	-1E+10	1	-1E+10	1	-1E+10	1
4901784	23	C	02/20/2016	10:49	-131.875	44.819	0	73.80	0	10.6490	0	32.7180	0	25.062	0	73.189	0	262.5	4	95.4	4	-1E+10	1	-1E+10	1	-1E+10	1	-1E+10	1	-1E+10	1	-1E+10	1
4901784	23	C	02/20/2016	10:49	-131.875	44.819	0	75.70	0	10.6500	0	32.7180	0	25.062	0	75.073	0	262.5	4	95.4	4	-1E+10	1	-1E+10	1	-1E+10	1	-1E+10	1	-1E+10	1	-1E+10	1
4901784	23	C	02/20/2016	10:49	-131.875	44.819	0	77.50	0	10.6500	0	32.7180	0	25.062	0	76.858	0	262.5	4	95.4	4	-1E+10	1	-1E+10	1	-1E+10	1	-1E+10	1	-1E+10	1	-1E+10	1
4901784	23	C	02/20/2016	10:49	-131.875	44.819	0	79.30	0	10.6500	0	32.7180	0	25.062	0	78.642	0	262.3	4	95.3	4	-1E+10	1	-1E+10	1	-1E+10	1	-1E+10	1	-1E+10	1	-1E+10	1
4901784	23	C	02/20/2016	10:49	-131.875	44.819	0	81.20	0	10.6500	0	32.7180	0	25.062	0	80.526	0	262.1	4	95.2	4	-1E+10	1	-1E+10	1	-1E+10	1	-1E+10	1	-1E+10	1	-1E+10	1
4901784	23	C	02/20/2016	10:49	-131.875	44.819	0	82.90	0	10.6490	0	32.7190	0	25.063	0	82.212	0	262.0	4	95.2	4	-1E+10	1	-1E+10	1	-1E+10	1	-1E+10	1	-1E+10	1	-1E+10	1
4901784	23	C	02/20/2016	10:49	-131.875	44.819	0	84.70	0	10.6500	0	32.7180	0	25.062	0	83.997	0	262.0	4	95.2	4	-1E+10	1	-1E+10	1	-1E+10	1	-1E+10	1	-1E+10	1	-1E+10	1
4901784	23	C	02/20/2016	10:49	-131.875	44.819	0	86.60	0	10.6500	0	32.7180	0	25.062	0	85.880	0	261.7	4	95.1	4	-1E+10	1	-1E+10	1	-1E+10	1	-1E+10	1	-1E+10	1	-1E+10	1
4901784	23	C	02/20/2016	10:49	-131.875	44.819	0	88.40	0	10.6500	0	32.7180	0	25.062	0	87.665	0	261.4	4	94.9	4	-1E+10	1	-1E+10	1	-1E+10	1	-1E+10	1	-1E+10	1	-1E+10	1
4901784	23	C	02/20/2016	10:49	-131.875	44.819	0	90.20	0	10.6490	0	32.7180	0	25.063	0	89.450	0	261.0	4	94.8	4	-1E+10	1	-1E+10	1	-1E+10	1	-1E+10	1	-1E+10	1	-1E+10	1
4901784	23	C	02/20/2016	10:49	-131.875	44.819	0	92.00	0	10.6490	0	32.7180	0	25.063	0	91.234	0	260.6	4	94.7	4	-1E+10	1	-1E+10	1	-1E+10	1	-1E+10	1	-1E+10	1	-1E+10	1
4901784	23	C	02/20/2016	10:49	-131.875	44.819	0	93.80	0	10.6480	0	32.7180	0	25.063	0	93.019	0	260.0	4	94.4	4	-1E+10	1	-1E+10	1	-1E+10	1	-1E+10	1	-1E+10	1	-1E+10	1
4901784	23	C	02/20/2016	10:49	-131.875	44.819	0	95.50	0	10.6490	0	32.7170	0	25.062	0	94.704	0	259.2	4	94.2	4	-1E+10	1	-1E+10	1	-1E+10	1	-1E+10	1	-1E+10	1	-1E+10	1
4901784	23	C	02/20/2016	10:49	-131.875	44.819	0	97.20	0	10.6460	0	32.7170	0	25.062	0	96.390	0	258.0	4	93.7	4	-1E+10	1	-1E+10	1	-1E+10	1	-1E+10	1	-1E+10	1	-1E+10	1
4901784	23	C	02/20/2016	10:49	-131.875	44.819	0	98.90	0	10.6400	0	32.7170	0	25.064	0	98.075	0	256.5	4	93.2	4	-1E+10	1	-1E+10	1	-1E+10	1	-1E+10	1	-1E+10	1	-1E+10	1
4901784	23	C	02/20/2016	10:49	-131.875	44.819	0	102.00	0	10.6000	0	32.7170	0	25.070	0	101.149	0	252.5	4	91.6	4	-1E+10	1	-1E+10	1	-1E+10	1	-1E+10	1	-1E+10	1	-1E+10	1
4901784	23	C	02/20/2016	10:49	-131.875	44.819	0	104.80	0	10.4850	0	32.7220	0	25.094	0	103.925	0	245.8	4	89.0	4	-1E+10	1	-1E+10	1	-1E+10	1	-1E+10	1	-1E+10	1	-1E+10	1
4901784	23	C	02/20/2016	10:49	-131.875	44.819	0	107.70	0	10.3410	0	32.7320	0	25.127	0	106.800	0	235.8	4	85.1	4	-1E+10	1	-1E+10	1	-1E+10	1	-1E+10	1	-1E+10	1	-1E+10	1
4901784	23	C	02/20/2016	10:49	-131.875	44.819	0	110.00	0	9.9040	0	32.8760	0	25.312	0	109.080	0	228.1	4	81.6	4	-1E+10	1	-1E+10	1	-1E+10	1	-1E+10	1	-1E+10	1	-1E+10	1
4901784	23	C	02/20/2016	10:49	-131.875	44.819	0	112.20	0	9.7860	0	32.9120	0	25.360	0	111.261	0	222.6	4	79.5	4	-1E+10	1	-1E+10	1	-1E+10	1	-1E+10	1	-1E+10	1	-1E+10	1
4901784	23	C	02/20/2016	10:49	-131.875	44.819	0	114.60	0	9.4970	0	33.0170	0	25.489	0	113.640	0	217.6	4	77.3	4	-1E+10	1	-1E+10	1	-1E+10	1	-1E+10	1	-1E+10	1	-1E+10	1
4901784	23	C	02/20/2016	10:49	-131.875	44.819	0	117.20	0	9.3520	0	33.0680	0	25.552	0	116.218	0	215.0	4	76.1	4	-1E+10	1	-1E+10	1	-1E+10	1	-1E+10	1	-1E+10	1	-1E+10	1
4901784	23	C	02/20/2016	10:49	-131.875	44.819	0	120.30	0	9.2080	0	33.1250	0	25.620	0	119.291	0	212.3	4	75.0	4	-1E+10	1	-1E+10	1	-1E+10	1	-1E+10	1	-1E+10	1	-1E+10	1
4901784	23	C	02/20/2016	10:49	-131.875	44.819	0	122.60	0	9.1480	0	33.1600	0	25.657	0	121.571	0	210.6	4	74.3	4	-1E+10	1	-1E+10	1	-1E+10	1	-1E+10	1	-1E+10	1	-1E+10	1
4901784	23	C	02/20/2016	10:49	-131.875	44.819	0	125.10	0	9.0810	0	33.2010	0	25.699	0	124.049	0	208.4	4	73.4	4	-1E+10	1	-1E+10	1	-1E+10	1	-1E+10	1	-1E+10	1	-1E+10	1
4901784	23	C	02/20/2016	10:49	-131.875	44.819	0	127.70	0	8.9540	0	33.2500	0	25.758	0	126.626	0	206.7	4	72.7	4	-1E+10	1	-1E+10	1	-1E+10	1	-1E+10	1	-1E+10	1	-1E+10	1
4901784	23	C	02/20/2016	10:49	-131.875	44.819	0	130.30	0	8.8260	0	33.2770	0	25.799	0	129.204	0	205.5	4	72.0	4	-1E+10	1	-1E+10	1	-1E+10	1	-1E+10	1	-1E+10	1	-1E+10	1
4901784	23	C	02/20/2016	10:49	-131.875	44.819	0	132.90	0	8.6910	0	33.2990	0	25.837	0	131.781	0	205.3	4	71.8	4	-1E+10	1	-1E+10	1	-1E+10	1	-1E+10	1	-1E+10	1	-1E+10	1
4901784	23	C	02/20/2016	10:49	-131.875	44.819	0	134.70	0	8.7650	0	33.3420	0	25.859	0	133.565	0	205.0	4	71.8	4	-1E+10	1	-1E+10	1	-1E+10	1	-1E+10	1	-1E+10	1	-1E+10	1
4901784	23	C	02/20/2016	10:49	-131.875	44.819	0	137.50	0	8.7380	0	33.3850	0	25.897	0	136.341	0	203.5	4	71.2	4	-1E+10	1	-1E+10	1	-1E+10	1	-1E+10	1	-1E+10	1	-1E+10	1
4901784	23	C	02/20/2016	10:49	-131.875	44.819	0	140.80	0	8.6300	0	33.4420	0	25.958	0	139.612	0	202.2	4	70.7	4	-1E+10	1	-1E+10	1	-1E+10	1	-1E+10	1	-1E+10	1	-1E+10	1
4901784	23	C	02/20/2016	10:49	-131.875	44.819	0	142.70	0	8.5880	0	33.4700	0	25.987	0	141.495	0	201.7	4	70.5	4	-1E+10	1	-1E+10	1	-1E+10	1	-1E+10	1	-1E+10	1	-1E+10	1
4901784	23	C	02/20/2016	10:49	-131.875	44.819	0	145.20	0	8.5520	0	33.4850	0	26.004	0	143.973	0	200.6	4	70.0	4	-1E+10	1	-1E+10	1	-1E+10	1	-1E+10	1	-1E+10	1	-1E+10	1
4901784	23	C	02/20/2016	10:49	-131.875	44.819	0	147.70	0	8.5030	0	33.5380	0	26.053	0	146.451	0	199.8	4	69.7	4	-1E+10	1	-1E+10	1	-1E+10	1	-1E+10	1	-1E+10	1	-1E+10	1
4901784	23	C	02/20/2016	10:49	-131.875	44.819	0	150.10	0	8.4630	0	33.5650	0	26.080	0	148.830	0	199.0	4	69.3	4	-1E+10	1	-1E+10	1	-1E+10	1	-1E+10	1	-1E+10	1	-1E+10	1
4901784	23	C	02/20/2016	10:49	-131.875	44.819	0	152.50	0	8.3970	0	33.6080	0	26.124	0	151.209	0	198.1	4	69.0	4	-1E+10	1	-1E+10	1	-1E+10	1	-1E+10	1	-1E+10	1	-1E+10	1
4901784	23	C	02/20/2016	10:49	-131.875	44.819	0	154.90	0	8.3830	0	33.6240	0	26.139	0	153.588	0	197.3	4	68.7	4	-1E+10	1	-1E+10	1	-1E+10	1	-1E+10	1	-1E+10	1	-1E+10	1
4901784	23	C	02/20/2016	10:49	-131.875	44.819	0	157.30	0	8.3640	0	33.6440	0	26.157	0	155.966	0	196.5	4	68.4	4	-1E+10	1	-1E+10	1	-1E+10	1	-1E+10	1	-1E+10	1	-1E+10	1
4901784	23	C	02/20/2016	10:49	-131.875	44.819	0	159.80	0	8.3160	0	33.7030	0	26.211	0	158.444	0	195.3	4	67.9	4	-1E+10	1	-1E+10	1	-1E+10	1	-1E+10	1	-1E+10	1	-1E+10	1
4901784	23	C	02/20/2016	10:49	-131.875	44.819	0	162.30	0	8.3100	0	33.7150	0	26.221	0	160.922	0	194.7	4	67.7	4	-1E+10	1	-1E+10	1	-1E+10	1	-1E+10	1	-1E+10	1	-1E+10	1
4901784	23	C	02/20/2016	10:49	-131.875	44.819	0	165.10	0	8.3060	0	33.7240	0	26.229	0	163.697	0	193.8	4	67.4	4	-1E+10	1	-1E+10	1	-1E+10	1	-1E+10	1	-1E+10	1	-1E+10	1
4901784	23	C	02/20/2016	10:49	-131.875	44.819	0	167.80	0	8.2900	0	33.7440	0	26.247	0	166.373	0	193.0	4	67.1	4	-1E+10	1	-1E+10	1	-1E+10	1	-1E+10	1	-1E+10	1	-1E+10	1
4901784	23	C	02/20/2016	10:49	-131.875	44.819	0	169.70	0	8.2820	0	33.7500	0	26.253	0	168.256	0	192.4	4	66.9	4	-1E+10	1	-1E+10	1	-1E+10	1	-1E+10	1	-1E+10	1	-1E+10	1
4901784	23	C	02/20/2016	10:49	-131.875	44.819	0	172.40	0	8.2780	0	33.7530	0	26.256	0	170.932	0	191.9	4	66.7	4	-1E+10	1	-1E+10	1	-1E+10	1	-1E+10	1	-1E+10	1	-1E+10	1
4901784	23	C	02/20/2016	10:49	-131.875	44.819	0	175.10	0	8.2740	0	33.7560	0	26.259	0	173.608	0	190.8	4	66.3	4	-1E+10	1	-1E+10	1	-1E+10	1	-1E+10	1	-1E+10	1	-1E+10	1
4901784	23	C	02/20/2016	10:49	-131.875	44.819	0	177.80	0	8.2580	0	33.7680	0	26.271	0	176.284	0	189.8	4	65.9	4	-1E+10	1	-1E+10	1	-1E+10	1	-1E+10	1	-1E+10	1	-1E+10	1
4901784	23	C	02/20/2016	10:49	-131.875	44.819	0	180.40	0	8.2470	0	33.7730	0	26.276	0	178.860	0	188.4	4	65.4	4	-1E+10	1	-1E+10	1	-1E+10	1	-1E+10	1	-1E+10	1	-1E+10	1
4901784	23	C	02/20/2016	10:49	-131.875	44.819	0	182.20	0	8.1960	0	33.7950	0	26.301	0	180.644	0	188.0	4	65.2	4	-1E+10	1	-1E+10	1	-1E+10	1	-1E+10	1	-1E+10	1	-1E+10	1
4901784	23	C	02/20/2016	10:49	-131.875	44.819	0	184.80	0	8.1600	0	33.8050	0	26.315	0	183.221	0	187.3	4	64.9	4	-1E+10	1	-1E+10	1	-1E+10	1	-1E+10	1	-1E+10	1	-1E+10	1
4901784	23	C	02/20/2016	10:49	-131.875	44.819	0	187.40	0	8.1360	0	33.8110	0	26.323	0	185.798	0	186.7	4	64.7	4	-1E+10	1	-1E+10	1	-1E+10	1	-1E+10	1	-1E+10	1	-1E+10	1
4901784	23	C	02/20/2016	10:49	-131.875	44.819	0	190.10	0	8.0890	0	33.8220	0	26.339	0	188.473	0	186.1	4	64.4	4	-1E+10	1	-1E+10	1	-1E+10	1	-1E+10	1	-1E+10	1	-1E+10	1
4901784	23	C	02/20/2016	10:49	-131.875	44.819	0	192.90	0	8.0670	0	33.8230	0	26.343	0	191.248	0	185.2	4	64.1	4	-1E+10	1	-1E+10	1	-1E+10	1	-1E+10	1	-1E+10	1	-1E+10	1
4901784	23	C	02/20/2016	10:49	-131.875	44.819	0	194.70	0	7.9980	0	33.8330	0	26.361	0	193.032	0	184.6	4	63.8	4	-1E+10	1	-1E+10	1	-1E+10	1	-1E+10	1	-1E+10	1	-1E+10	1
4901784	23	C	02/20/2016	10:49	-131.875	44.819	0	197.40	0	7.9750	0	33.8320	0	26.363	0	195.707	0	183.7	4	63.5	4	-1E+10	1	-1E+10	1	-1E+10	1	-1E+10	1	-1E+10	1	-1E+10	1
4901784	23	C	02/20/2016	10:49	-131.875	44.819	0	200.10	0	7.9000	0	33.8370	0	26.378	0	198.383	0	182.6	4	63.0	4	-1E+10	1	-1E+10	1	-1E+10	1	-1E+10	1	-1E+10	1	-1E+10	1
4901784	23	C	02/20/2016	10:49	-131.875	44.819	0	202.00	0	7.8510	0	33.8370	0	26.386	0	200.266	0	182.0	4	62.7	4	-1E+10	1	-1E+10	1	-1E+10	1	-1E+10	1	-1E+10	1	-1E+10	1
4901784	23	C	02/20/2016	10:49	-131.875	44.819	0	204.80	0	7.8130	0	33.8380	0	26.392	0	203.040	0	180.7	4	62.2	4	-1E+10	1	-1E+10	1	-1E+10	1	-1E+10	1	-1E+10	1	-1E+10	1
4901784	23	C	02/20/2016	10:49	-131.875	44.819	0	207.80	0	7.7570	0	33.8380	0	26.400	0	206.013	0	179.3	4	61.6	4	-1E+10	1	-1E+10	1	-1E+10	1	-1E+10	1	-1E+10	1	-1E+10	1
4901784	23	C	02/20/2016	10:49	-131.875	44.819	0	209.60	0	7.7080	0	33.8380	0	26.407	0	207.797	0	178.2	4	61.2	4	-1E+10	1	-1E+10	1	-1E+10	1	-1E+10	1	-1E+10	1	-1E+10	1
4901784	23	C	02/20/2016	10:49	-131.875	44.819	0	212.50	0	7.6100	0	33.8420	0	26.424	0	210.670	0	176.5	4	60.5	4	-1E+10	1	-1E+10	1	-1E+10	1	-1E+10	1	-1E+10	1	-1E+10	1
4901784	23	C	02/20/2016	10:49	-131.875	44.819	0	215.20	0	7.5540	0	33.8430	0	26.433	0	213.346	0	175.1	4	59.9	4	-1E+10	1	-1E+10	1	-1E+10	1	-1E+10	1	-1E+10	1	-1E+10	1
4901784	23	C	02/20/2016	10:49	-131.875	44.819	0	217.00	0	7.5390	0	33.8430	0	26.435	0	215.129	0	173.9	4	59.5	4	-1E+10	1	-1E+10	1	-1E+10	1	-1E+10	1	-1E+10	1	-1E+10	1
4901784	23	C	02/20/2016	10:49	-131.875	44.819	0	219.80	0	7.4950	0	33.8460	0	26.444	0	217.903	0	171.9	4	58.7	4	-1E+10	1	-1E+10	1	-1E+10	1	-1E+10	1	-1E+10	1	-1E+10	1
4901784	23	C	02/20/2016	10:49	-131.875	44.819	0	222.50	0	7.4460	0	33.8490	0	26.453	0	220.579	0	169.9	4	58.0	4	-1E+10	1	-1E+10	1	-1E+10	1	-1E+10	1	-1E+10	1	-1E+10	1
4901784	23	C	02/20/2016	10:49	-131.875	44.819	0	224.40	0	7.4150	0	33.8520	0	26.460	0	222.461	0	168.2	4	57.4	4	-1E+10	1	-1E+10	1	-1E+10	1	-1E+10	1	-1E+10	1	-1E+10	1
4901784	23	C	02/20/2016	10:49	-131.875	44.819	0	227.40	0	7.3720	0	33.8520	0	26.466	0	225.434	0	165.4	4	56.4	4	-1E+10	1	-1E+10	1	-1E+10	1	-1E+10	1	-1E+10	1	-1E+10	1
4901784	23	C	02/20/2016	10:49	-131.875	44.819	0	230.20	0	7.3270	0	33.8530	0	26.473	0	228.208	0	162.2	4	55.2	4	-1E+10	1	-1E+10	1	-1E+10	1	-1E+10	1	-1E+10	1	-1E+10	1
4901784	23	C	02/20/2016	10:49	-131.875	44.819	0	232.60	0	7.2800	0	33.8540	0	26.481	0	230.586	0	158.2	4	53.8	4	-1E+10	1	-1E+10	1	-1E+10	1	-1E+10	1	-1E+10	1	-1E+10	1
4901784	23	C	02/20/2016	10:49	-131.875	44.819	0	235.00	0	7.2270	0	33.8550	0	26.489	0	232.964	0	154.3	4	52.4	4	-1E+10	1	-1E+10	1	-1E+10	1	-1E+10	1	-1E+10	1	-1E+10	1
4901784	23	C	02/20/2016	10:49	-131.875	44.819	0	237.30	0	7.1310	0	33.8600	0	26.506	0	235.243	0	150.7	4	51.1	4	-1E+10	1	-1E+10	1	-1E+10	1	-1E+10	1	-1E+10	1	-1E+10	1
4901784	23	C	02/20/2016	10:49	-131.875	44.819	0	239.70	0	7.0760	0	33.8620	0	26.515	0	237.620	0	148.0	4	50.1	4	-1E+10	1	-1E+10	1	-1E+10	1	-1E+10	1	-1E+10	1	-1E+10	1
4901784	23	C	02/20/2016	10:49	-131.875	44.819	0	242.10	0	7.0310	0	33.8630	0	26.522	0	239.998	0	145.6	4	49.2	4	-1E+10	1	-1E+10	1	-1E+10	1	-1E+10	1	-1E+10	1	-1E+10	1
4901784	23	C	02/20/2016	10:49	-131.875	44.819	0	245.40	0	6.9690	0	33.8650	0	26.532	0	243.268	0	142.4	4	48.1	4	-1E+10	1	-1E+10	1	-1E+10	1	-1E+10	1	-1E+10	1	-1E+10	1
4901784	23	C	02/20/2016	10:49	-131.875	44.819	0	247.90	0	6.9450	0	33.8660	0	26.536	0	245.744	0	140.3	4	47.4	4	-1E+10	1	-1E+10	1	-1E+10	1	-1E+10	1	-1E+10	1	-1E+10	1
4901784	23	C	02/20/2016	10:49	-131.875	44.819	0	250.40	0	6.9080	0	33.8660	0	26.541	0	248.221	0	137.9	4	46.5	4	-1E+10	1	-1E+10	1	-1E+10	1	-1E+10	1	-1E+10	1	-1E+10	1
4901784	23	C	02/20/2016	10:49	-131.875	44.819	0	253.00	0	6.8370	0	33.8690	0	26.553	0	250.797	0	135.3	4	45.5	4	-1E+10	1	-1E+10	1	-1E+10	1	-1E+10	1	-1E+10	1	-1E+10	1
4901784	23	C	02/20/2016	10:49	-131.875	44.819	0	254.60	0	6.7710	0	33.8730	0	26.565	0	252.382	0	133.8	4	45.0	4	-1E+10	1	-1E+10	1	-1E+10	1	-1E+10	1	-1E+10	1	-1E+10	1
4901784	23	C	02/20/2016	10:49	-131.875	44.819	0	257.20	0	6.7340	0	33.8750	0	26.572	0	254.958	0	132.9	4	44.6	4	-1E+10	1	-1E+10	1	-1E+10	1	-1E+10	1	-1E+10	1	-1E+10	1
4901784	23	C	02/20/2016	10:49	-131.875	44.819	0	259.80	0	6.7280	0	33.8740	0	26.572	0	257.533	0	131.8	4	44.3	4	-1E+10	1	-1E+10	1	-1E+10	1	-1E+10	1	-1E+10	1	-1E+10	1
4901784	23	C	02/20/2016	10:49	-131.875	44.819	0	262.40	0	6.6800	0	33.8770	0	26.581	0	260.109	0	130.9	4	43.9	4	-1E+10	1	-1E+10	1	-1E+10	1	-1E+10	1	-1E+10	1	-1E+10	1
4901784	23	C	02/20/2016	10:49	-131.875	44.819	0	265.00	0	6.6590	0	33.8770	0	26.583	0	262.685	0	130.4	4	43.7	4	-1E+10	1	-1E+10	1	-1E+10	1	-1E+10	1	-1E+10	1	-1E+10	1
4901784	23	C	02/20/2016	10:49	-131.875	44.819	0	267.70	0	6.6410	0	33.8780	0	26.587	0	265.359	0	129.9	4	43.5	4	-1E+10	1	-1E+10	1	-1E+10	1	-1E+10	1	-1E+10	1	-1E+10	1
4901784	23	C	02/20/2016	10:49	-131.875	44.819	0	270.40	0	6.6070	0	33.8780	0	26.591	0	268.034	0	129.6	4	43.4	4	-1E+10	1	-1E+10	1	-1E+10	1	-1E+10	1	-1E+10	1	-1E+10	1
4901784	23	C	02/20/2016	10:49	-131.875	44.819	0	272.20	0	6.5960	0	33.8780	0	26.593	0	269.817	0	129.4	4	43.3	4	-1E+10	1	-1E+10	1	-1E+10	1	-1E+10	1	-1E+10	1	-1E+10	1
4901784	23	C	02/20/2016	10:49	-131.875	44.819	0	274.90	0	6.5670	0	33.8770	0	26.596	0	272.492	0	128.5	4	43.0	4	-1E+10	1	-1E+10	1	-1E+10	1	-1E+10	1	-1E+10	1	-1E+10	1
4901784	23	C	02/20/2016	10:49	-131.875	44.819	0	277.50	0	6.5460	0	33.8770	0	26.599	0	275.067	0	126.9	4	42.4	4	-1E+10	1	-1E+10	1	-1E+10	1	-1E+10	1	-1E+10	1	-1E+10	1
4901784	23	C	02/20/2016	10:49	-131.875	44.819	0	280.20	0	6.5200	0	33.8780	0	26.603	0	277.742	0	124.9	4	41.7	4	-1E+10	1	-1E+10	1	-1E+10	1	-1E+10	1	-1E+10	1	-1E+10	1
4901784	23	C	02/20/2016	10:49	-131.875	44.819	0	282.90	0	6.4500	0	33.8820	0	26.615	0	280.416	0	123.7	4	41.3	4	-1E+10	1	-1E+10	1	-1E+10	1	-1E+10	1	-1E+10	1	-1E+10	1
4901784	23	C	02/20/2016	10:49	-131.875	44.819	0	284.70	0	6.4080	0	33.8830	0	26.621	0	282.199	0	123.4	4	41.2	4	-1E+10	1	-1E+10	1	-1E+10	1	-1E+10	1	-1E+10	1	-1E+10	1
4901784	23	C	02/20/2016	10:49	-131.875	44.819	0	287.50	0	6.3940	0	33.8820	0	26.622	0	284.973	0	122.7	4	40.9	4	-1E+10	1	-1E+10	1	-1E+10	1	-1E+10	1	-1E+10	1	-1E+10	1
4901784	23	C	02/20/2016	10:49	-131.875	44.819	0	290.20	0	6.3720	0	33.8820	0	26.625	0	287.647	0	122.0	4	40.6	4	-1E+10	1	-1E+10	1	-1E+10	1	-1E+10	1	-1E+10	1	-1E+10	1
4901784	23	C	02/20/2016	10:49	-131.875	44.819	0	292.10	0	6.3410	0	33.8810	0	26.628	0	289.529	0	121.2	4	40.4	4	-1E+10	1	-1E+10	1	-1E+10	1	-1E+10	1	-1E+10	1	-1E+10	1
4901784	23	C	02/20/2016	10:49	-131.875	44.819	0	295.00	0	6.3020	0	33.8810	0	26.634	0	292.401	0	118.9	4	39.5	4	-1E+10	1	-1E+10	1	-1E+10	1	-1E+10	1	-1E+10	1	-1E+10	1
4901784	23	C	02/20/2016	10:49	-131.875	44.819	0	297.80	0	6.2350	0	33.8850	0	26.645	0	295.175	0	116.4	4	38.7	4	-1E+10	1	-1E+10	1	-1E+10	1	-1E+10	1	-1E+10	1	-1E+10	1
4901784	23	C	02/20/2016	10:49	-131.875	44.819	0	299.70	0	6.2200	0	33.8840	0	26.646	0	297.057	0	115.1	4	38.2	4	-1E+10	1	-1E+10	1	-1E+10	1	-1E+10	1	-1E+10	1	-1E+10	1
4901784	23	C	02/20/2016	10:49	-131.875	44.819	0	302.60	0	6.1960	0	33.8860	0	26.651	0	299.929	0	111.6	4	37.0	4	-1E+10	1	-1E+10	1	-1E+10	1	-1E+10	1	-1E+10	1	-1E+10	1
4901784	23	C	02/20/2016	10:49	-131.875	44.819	0	305.50	0	6.1560	0	33.8880	0	26.658	0	302.801	0	108.1	4	35.8	4	-1E+10	1	-1E+10	1	-1E+10	1	-1E+10	1	-1E+10	1	-1E+10	1
4901784	23	C	02/20/2016	10:49	-131.875	44.819	0	307.40	0	6.0940	0	33.8940	0	26.670	0	304.683	0	106.1	4	35.1	4	-1E+10	1	-1E+10	1	-1E+10	1	-1E+10	1	-1E+10	1	-1E+10	1
4901784	23	C	02/20/2016	10:49	-131.875	44.819	0	310.20	0	6.0530	0	33.8950	0	26.676	0	307.456	0	104.2	4	34.4	4	-1E+10	1	-1E+10	1	-1E+10	1	-1E+10	1	-1E+10	1	-1E+10	1
4901784	23	C	02/20/2016	10:49	-131.875	44.819	0	313.10	0	5.9910	0	33.8970	0	26.686	0	310.328	0	102.6	4	33.9	4	-1E+10	1	-1E+10	1	-1E+10	1	-1E+10	1	-1E+10	1	-1E+10	1
4901784	23	C	02/20/2016	10:49	-131.875	44.819	0	315.00	0	5.9750	0	33.8980	0	26.689	0	312.210	0	101.7	4	33.6	4	-1E+10	1	-1E+10	1	-1E+10	1	-1E+10	1	-1E+10	1	-1E+10	1
4901784	23	C	02/20/2016	10:49	-131.875	44.819	0	317.00	0	5.9690	0	33.8980	0	26.689	0	314.191	0	100.9	4	33.3	4	-1E+10	1	-1E+10	1	-1E+10	1	-1E+10	1	-1E+10	1	-1E+10	1
4901784	23	C	02/20/2016	10:49	-131.875	44.819	0	319.90	0	5.9100	0	33.8990	0	26.697	0	317.063	0	99.4	4	32.8	4	-1E+10	1	-1E+10	1	-1E+10	1	-1E+10	1	-1E+10	1	-1E+10	1
4901784	23	C	02/20/2016	10:49	-131.875	44.819	0	322.90	0	5.8870	0	33.9020	0	26.703	0	320.034	0	97.7	4	32.2	4	-1E+10	1	-1E+10	1	-1E+10	1	-1E+10	1	-1E+10	1	-1E+10	1
4901784	23	C	02/20/2016	10:49	-131.875	44.819	0	324.80	0	5.8810	0	33.9010	0	26.703	0	321.916	0	96.8	4	31.9	4	-1E+10	1	-1E+10	1	-1E+10	1	-1E+10	1	-1E+10	1	-1E+10	1
4901784	23	C	02/20/2016	10:49	-131.875	44.819	0	326.80	0	5.8710	0	33.9010	0	26.704	0	323.896	0	95.6	4	31.5	4	-1E+10	1	-1E+10	1	-1E+10	1	-1E+10	1	-1E+10	1	-1E+10	1
4901784	23	C	02/20/2016	10:49	-131.875	44.819	0	329.80	0	5.8360	0	33.9040	0	26.711	0	326.867	0	93.9	4	30.9	4	-1E+10	1	-1E+10	1	-1E+10	1	-1E+10	1	-1E+10	1	-1E+10	1
4901784	23	C	02/20/2016	10:49	-131.875	44.819	0	332.70	0	5.8070	0	33.9060	0	26.716	0	329.739	0	92.3	4	30.4	4	-1E+10	1	-1E+10	1	-1E+10	1	-1E+10	1	-1E+10	1	-1E+10	1
4901784	23	C	02/20/2016	10:49	-131.875	44.819	0	334.70	0	5.8000	0	33.9060	0	26.717	0	331.720	0	91.3	4	30.0	4	-1E+10	1	-1E+10	1	-1E+10	1	-1E+10	1	-1E+10	1	-1E+10	1
4901784	23	C	02/20/2016	10:49	-131.875	44.819	0	337.70	0	5.7800	0	33.9070	0	26.720	0	334.691	0	89.3	4	29.3	4	-1E+10	1	-1E+10	1	-1E+10	1	-1E+10	1	-1E+10	1	-1E+10	1
4901784	23	C	02/20/2016	10:49	-131.875	44.819	0	340.70	0	5.7320	0	33.9100	0	26.728	0	337.662	0	87.3	4	28.7	4	-1E+10	1	-1E+10	1	-1E+10	1	-1E+10	1	-1E+10	1	-1E+10	1
4901784	23	C	02/20/2016	10:49	-131.875	44.819	0	342.60	0	5.7040	0	33.9140	0	26.735	0	339.543	0	86.5	4	28.4	4	-1E+10	1	-1E+10	1	-1E+10	1	-1E+10	1	-1E+10	1	-1E+10	1
4901784	23	C	02/20/2016	10:49	-131.875	44.819	0	344.50	0	5.7030	0	33.9130	0	26.734	0	341.425	0	85.9	4	28.2	4	-1E+10	1	-1E+10	1	-1E+10	1	-1E+10	1	-1E+10	1	-1E+10	1
4901784	23	C	02/20/2016	10:49	-131.875	44.819	0	347.50	0	5.6440	0	33.9150	0	26.743	0	344.395	0	85.2	4	27.9	4	-1E+10	1	-1E+10	1	-1E+10	1	-1E+10	1	-1E+10	1	-1E+10	1
4901784	23	C	02/20/2016	10:49	-131.875	44.819	0	350.40	0	5.6190	0	33.9140	0	26.745	0	347.267	0	84.4	4	27.6	4	-1E+10	1	-1E+10	1	-1E+10	1	-1E+10	1	-1E+10	1	-1E+10	1
4901784	23	C	02/20/2016	10:49	-131.875	44.819	0	352.40	0	5.6130	0	33.9150	0	26.747	0	349.247	0	83.6	4	27.4	4	-1E+10	1	-1E+10	1	-1E+10	1	-1E+10	1	-1E+10	1	-1E+10	1
4901784	23	C	02/20/2016	10:49	-131.875	44.819	0	354.40	0	5.6120	0	33.9150	0	26.747	0	351.228	0	82.7	4	27.1	4	-1E+10	1	-1E+10	1	-1E+10	1	-1E+10	1	-1E+10	1	-1E+10	1
4901784	23	C	02/20/2016	10:49	-131.875	44.819	0	357.20	0	5.5770	0	33.9180	0	26.753	0	354.000	0	81.2	4	26.6	4	-1E+10	1	-1E+10	1	-1E+10	1	-1E+10	1	-1E+10	1	-1E+10	1
4901784	23	C	02/20/2016	10:49	-131.875	44.819	0	360.20	0	5.5410	0	33.9200	0	26.759	0	356.971	0	80.1	4	26.2	4	-1E+10	1	-1E+10	1	-1E+10	1	-1E+10	1	-1E+10	1	-1E+10	1
4901784	23	C	02/20/2016	10:49	-131.875	44.819	0	362.20	0	5.5240	0	33.9230	0	26.764	0	358.951	0	79.5	4	26.0	4	-1E+10	1	-1E+10	1	-1E+10	1	-1E+10	1	-1E+10	1	-1E+10	1
4901784	23	C	02/20/2016	10:49	-131.875	44.819	0	365.10	0	5.5090	0	33.9240	0	26.766	0	361.823	0	78.7	4	25.7	4	-1E+10	1	-1E+10	1	-1E+10	1	-1E+10	1	-1E+10	1	-1E+10	1
4901784	23	C	02/20/2016	10:49	-131.875	44.819	0	368.00	0	5.4990	0	33.9250	0	26.768	0	364.694	0	78.1	4	25.5	4	-1E+10	1	-1E+10	1	-1E+10	1	-1E+10	1	-1E+10	1	-1E+10	1
4901784	23	C	02/20/2016	10:49	-131.875	44.819	0	370.60	0	5.4810	0	33.9250	0	26.771	0	367.269	0	77.5	4	25.3	4	-1E+10	1	-1E+10	1	-1E+10	1	-1E+10	1	-1E+10	1	-1E+10	1
4901784	23	C	02/20/2016	10:49	-131.875	44.819	0	372.50	0	5.4700	0	33.9260	0	26.773	0	369.150	0	77.0	4	25.1	4	-1E+10	1	-1E+10	1	-1E+10	1	-1E+10	1	-1E+10	1	-1E+10	1
4901784	23	C	02/20/2016	10:49	-131.875	44.819	0	375.00	0	5.4580	0	33.9270	0	26.775	0	371.625	0	76.1	4	24.8	4	-1E+10	1	-1E+10	1	-1E+10	1	-1E+10	1	-1E+10	1	-1E+10	1
4901784	23	C	02/20/2016	10:49	-131.875	44.819	0	377.40	0	5.4360	0	33.9280	0	26.778	0	374.001	0	75.6	4	24.6	4	-1E+10	1	-1E+10	1	-1E+10	1	-1E+10	1	-1E+10	1	-1E+10	1
4901784	23	C	02/20/2016	10:49	-131.875	44.819	0	379.90	0	5.4170	0	33.9260	0	26.779	0	376.477	0	74.5	4	24.3	4	-1E+10	1	-1E+10	1	-1E+10	1	-1E+10	1	-1E+10	1	-1E+10	1
4901784	23	C	02/20/2016	10:49	-131.875	44.819	0	382.40	0	5.3950	0	33.9300	0	26.785	0	378.952	0	72.9	4	23.8	4	-1E+10	1	-1E+10	1	-1E+10	1	-1E+10	1	-1E+10	1	-1E+10	1
4901784	23	C	02/20/2016	10:49	-131.875	44.819	0	384.80	0	5.3790	0	33.9330	0	26.789	0	381.328	0	71.5	4	23.3	4	-1E+10	1	-1E+10	1	-1E+10	1	-1E+10	1	-1E+10	1	-1E+10	1
4901784	23	C	02/20/2016	10:49	-131.875	44.819	0	387.30	0	5.3610	0	33.9360	0	26.794	0	383.803	0	70.3	4	22.9	4	-1E+10	1	-1E+10	1	-1E+10	1	-1E+10	1	-1E+10	1	-1E+10	1
4901784	23	C	02/20/2016	10:49	-131.875	44.819	0	389.90	0	5.3470	0	33.9380	0	26.797	0	386.377	0	69.2	4	22.5	4	-1E+10	1	-1E+10	1	-1E+10	1	-1E+10	1	-1E+10	1	-1E+10	1
4901784	23	C	02/20/2016	10:49	-131.875	44.819	0	392.40	0	5.3230	0	33.9400	0	26.801	0	388.852	0	68.2	4	22.2	4	-1E+10	1	-1E+10	1	-1E+10	1	-1E+10	1	-1E+10	1	-1E+10	1
4901784	23	C	02/20/2016	10:49	-131.875	44.819	0	394.90	0	5.3030	0	33.9420	0	26.805	0	391.327	0	67.3	4	21.9	4	-1E+10	1	-1E+10	1	-1E+10	1	-1E+10	1	-1E+10	1	-1E+10	1
4901784	23	C	02/20/2016	10:49	-131.875	44.819	0	397.50	0	5.2840	0	33.9450	0	26.810	0	393.901	0	66.0	4	21.5	4	-1E+10	1	-1E+10	1	-1E+10	1	-1E+10	1	-1E+10	1	-1E+10	1
4901784	23	C	02/20/2016	10:49	-131.875	44.819	0	400.10	0	5.2620	0	33.9460	0	26.813	0	396.475	0	64.7	4	21.0	4	-1E+10	1	-1E+10	1	-1E+10	1	-1E+10	1	-1E+10	1	-1E+10	1
4901784	23	C	02/20/2016	10:49	-131.875	44.819	0	402.70	0	5.2290	0	33.9500	0	26.820	0	399.049	0	63.5	4	20.6	4	-1E+10	1	-1E+10	1	-1E+10	1	-1E+10	1	-1E+10	1	-1E+10	1
4901784	23	C	02/20/2016	10:49	-131.875	44.819	0	405.20	0	5.2150	0	33.9520	0	26.823	0	401.524	0	62.5	4	20.3	4	-1E+10	1	-1E+10	1	-1E+10	1	-1E+10	1	-1E+10	1	-1E+10	1
4901784	23	C	02/20/2016	10:49	-131.875	44.819	0	407.80	0	5.1920	0	33.9560	0	26.829	0	404.098	0	61.6	4	20.0	4	-1E+10	1	-1E+10	1	-1E+10	1	-1E+10	1	-1E+10	1	-1E+10	1
4901784	23	C	02/20/2016	10:49	-131.875	44.819	0	409.60	0	5.1840	0	33.9560	0	26.830	0	405.880	0	61.0	4	19.8	4	-1E+10	1	-1E+10	1	-1E+10	1	-1E+10	1	-1E+10	1	-1E+10	1
4901784	23	C	02/20/2016	10:49	-131.875	44.819	0	412.20	0	5.1680	0	33.9580	0	26.834	0	408.454	0	60.1	4	19.5	4	-1E+10	1	-1E+10	1	-1E+10	1	-1E+10	1	-1E+10	1	-1E+10	1
4901784	23	C	02/20/2016	10:49	-131.875	44.819	0	414.80	0	5.1430	0	33.9610	0	26.839	0	411.027	0	59.0	4	19.1	4	-1E+10	1	-1E+10	1	-1E+10	1	-1E+10	1	-1E+10	1	-1E+10	1
4901784	23	C	02/20/2016	10:49	-131.875	44.819	0	417.30	0	5.1190	0	33.9640	0	26.844	0	413.502	0	58.0	4	18.8	4	-1E+10	1	-1E+10	1	-1E+10	1	-1E+10	1	-1E+10	1	-1E+10	1
4901784	23	C	02/20/2016	10:49	-131.875	44.819	0	419.90	0	5.0980	0	33.9680	0	26.850	0	416.076	0	56.9	4	18.4	4	-1E+10	1	-1E+10	1	-1E+10	1	-1E+10	1	-1E+10	1	-1E+10	1
4901784	23	C	02/20/2016	10:49	-131.875	44.819	0	422.50	0	5.0970	0	33.9700	0	26.852	0	418.650	0	56.3	4	18.2	4	-1E+10	1	-1E+10	1	-1E+10	1	-1E+10	1	-1E+10	1	-1E+10	1
4901784	23	C	02/20/2016	10:49	-131.875	44.819	0	425.00	0	5.0860	0	33.9710	0	26.854	0	421.124	0	55.7	4	18.0	4	-1E+10	1	-1E+10	1	-1E+10	1	-1E+10	1	-1E+10	1	-1E+10	1
4901784	23	C	02/20/2016	10:49	-131.875	44.819	0	427.70	0	5.0680	0	33.9720	0	26.856	0	423.797	0	55.0	4	17.8	4	-1E+10	1	-1E+10	1	-1E+10	1	-1E+10	1	-1E+10	1	-1E+10	1
4901784	23	C	02/20/2016	10:49	-131.875	44.819	0	430.20	0	5.0560	0	33.9740	0	26.859	0	426.272	0	54.1	4	17.5	4	-1E+10	1	-1E+10	1	-1E+10	1	-1E+10	1	-1E+10	1	-1E+10	1
4901784	23	C	02/20/2016	10:49	-131.875	44.819	0	432.80	0	5.0390	0	33.9770	0	26.864	0	428.845	0	53.3	4	17.2	4	-1E+10	1	-1E+10	1	-1E+10	1	-1E+10	1	-1E+10	1	-1E+10	1
4901784	23	C	02/20/2016	10:49	-131.875	44.819	0	435.30	0	5.0110	0	33.9780	0	26.868	0	431.320	0	52.4	4	16.9	4	-1E+10	1	-1E+10	1	-1E+10	1	-1E+10	1	-1E+10	1	-1E+10	1
4901784	23	C	02/20/2016	10:49	-131.875	44.819	0	437.90	0	5.0080	0	33.9800	0	26.870	0	433.893	0	51.0	4	16.5	4	-1E+10	1	-1E+10	1	-1E+10	1	-1E+10	1	-1E+10	1	-1E+10	1
4901784	23	C	02/20/2016	10:49	-131.875	44.819	0	440.40	0	5.0170	0	33.9850	0	26.873	0	436.368	0	49.3	4	15.9	4	-1E+10	1	-1E+10	1	-1E+10	1	-1E+10	1	-1E+10	1	-1E+10	1
4901784	23	C	02/20/2016	10:49	-131.875	44.819	0	442.10	0	5.0170	0	33.9920	0	26.878	0	438.050	0	48.1	4	15.6	4	-1E+10	1	-1E+10	1	-1E+10	1	-1E+10	1	-1E+10	1	-1E+10	1
4901784	23	C	02/20/2016	10:49	-131.875	44.819	0	444.60	0	5.0090	0	33.9960	0	26.882	0	440.525	0	47.2	4	15.2	4	-1E+10	1	-1E+10	1	-1E+10	1	-1E+10	1	-1E+10	1	-1E+10	1
4901784	23	C	02/20/2016	10:49	-131.875	44.819	0	447.10	0	4.9920	0	33.9990	0	26.887	0	442.999	0	46.7	4	15.1	4	-1E+10	1	-1E+10	1	-1E+10	1	-1E+10	1	-1E+10	1	-1E+10	1
4901784	23	C	02/20/2016	10:49	-131.875	44.819	0	449.60	0	4.9860	0	34.0010	0	26.889	0	445.474	0	46.3	4	15.0	4	-1E+10	1	-1E+10	1	-1E+10	1	-1E+10	1	-1E+10	1	-1E+10	1
4901784	23	C	02/20/2016	10:49	-131.875	44.819	0	452.10	0	4.9820	0	34.0010	0	26.889	0	447.948	0	46.0	4	14.8	4	-1E+10	1	-1E+10	1	-1E+10	1	-1E+10	1	-1E+10	1	-1E+10	1
4901784	23	C	02/20/2016	10:49	-131.875	44.819	0	454.60	0	4.9710	0	34.0020	0	26.892	0	450.422	0	45.4	4	14.7	4	-1E+10	1	-1E+10	1	-1E+10	1	-1E+10	1	-1E+10	1	-1E+10	1
4901784	23	C	02/20/2016	10:49	-131.875	44.819	0	457.20	0	4.9450	0	34.0040	0	26.896	0	452.996	0	44.8	4	14.4	4	-1E+10	1	-1E+10	1	-1E+10	1	-1E+10	1	-1E+10	1	-1E+10	1
4901784	23	C	02/20/2016	10:49	-131.875	44.819	0	459.80	0	4.9340	0	34.0070	0	26.900	0	455.569	0	44.0	4	14.2	4	-1E+10	1	-1E+10	1	-1E+10	1	-1E+10	1	-1E+10	1	-1E+10	1
4901784	23	C	02/20/2016	10:49	-131.875	44.819	0	462.40	0	4.9220	0	34.0090	0	26.903	0	458.142	0	43.4	4	14.0	4	-1E+10	1	-1E+10	1	-1E+10	1	-1E+10	1	-1E+10	1	-1E+10	1
4901784	23	C	02/20/2016	10:49	-131.875	44.819	0	465.00	0	4.9090	0	34.0120	0	26.907	0	460.715	0	42.9	4	13.8	4	-1E+10	1	-1E+10	1	-1E+10	1	-1E+10	1	-1E+10	1	-1E+10	1
4901784	23	C	02/20/2016	10:49	-131.875	44.819	0	467.60	0	4.8980	0	34.0140	0	26.909	0	463.288	0	42.6	4	13.7	4	-1E+10	1	-1E+10	1	-1E+10	1	-1E+10	1	-1E+10	1	-1E+10	1
4901784	23	C	02/20/2016	10:49	-131.875	44.819	0	470.20	0	4.8820	0	34.0150	0	26.912	0	465.861	0	42.2	4	13.6	4	-1E+10	1	-1E+10	1	-1E+10	1	-1E+10	1	-1E+10	1	-1E+10	1
4901784	23	C	02/20/2016	10:49	-131.875	44.819	0	472.90	0	4.8740	0	34.0150	0	26.913	0	468.534	0	41.6	4	13.4	4	-1E+10	1	-1E+10	1	-1E+10	1	-1E+10	1	-1E+10	1	-1E+10	1
4901784	23	C	02/20/2016	10:49	-131.875	44.819	0	474.60	0	4.8640	0	34.0150	0	26.914	0	470.216	0	41.0	4	13.2	4	-1E+10	1	-1E+10	1	-1E+10	1	-1E+10	1	-1E+10	1	-1E+10	1
4901784	23	C	02/20/2016	10:49	-131.875	44.819	0	477.20	0	4.8520	0	34.0200	0	26.919	0	472.789	0	39.9	4	12.9	4	-1E+10	1	-1E+10	1	-1E+10	1	-1E+10	1	-1E+10	1	-1E+10	1
4901784	23	C	02/20/2016	10:49	-131.875	44.819	0	479.80	0	4.8420	0	34.0250	0	26.924	0	475.362	0	39.0	4	12.6	4	-1E+10	1	-1E+10	1	-1E+10	1	-1E+10	1	-1E+10	1	-1E+10	1
4901784	23	C	02/20/2016	10:49	-131.875	44.819	0	482.40	0	4.8390	0	34.0290	0	26.928	0	477.935	0	38.3	4	12.3	4	-1E+10	1	-1E+10	1	-1E+10	1	-1E+10	1	-1E+10	1	-1E+10	1
4901784	23	C	02/20/2016	10:49	-131.875	44.819	0	485.00	0	4.8240	0	34.0320	0	26.932	0	480.508	0	37.8	4	12.2	4	-1E+10	1	-1E+10	1	-1E+10	1	-1E+10	1	-1E+10	1	-1E+10	1
4901784	23	C	02/20/2016	10:49	-131.875	44.819	0	487.60	0	4.8140	0	34.0340	0	26.935	0	483.081	0	37.3	4	12.0	4	-1E+10	1	-1E+10	1	-1E+10	1	-1E+10	1	-1E+10	1	-1E+10	1
4901784	23	C	02/20/2016	10:49	-131.875	44.819	0	490.20	0	4.8020	0	34.0350	0	26.937	0	485.654	0	36.8	4	11.8	4	-1E+10	1	-1E+10	1	-1E+10	1	-1E+10	1	-1E+10	1	-1E+10	1
4901784	23	C	02/20/2016	10:49	-131.875	44.819	0	492.80	0	4.7920	0	34.0360	0	26.939	0	488.226	0	36.2	4	11.6	4	-1E+10	1	-1E+10	1	-1E+10	1	-1E+10	1	-1E+10	1	-1E+10	1
4901784	23	C	02/20/2016	10:49	-131.875	44.819	0	495.50	0	4.7560	0	34.0410	0	26.947	0	490.898	0	35.5	4	11.4	4	-1E+10	1	-1E+10	1	-1E+10	1	-1E+10	1	-1E+10	1	-1E+10	1
4901784	23	C	02/20/2016	10:49	-131.875	44.819	0	497.40	0	4.7440	0	34.0430	0	26.950	0	492.778	0	35.2	4	11.3	4	-1E+10	1	-1E+10	1	-1E+10	1	-1E+10	1	-1E+10	1	-1E+10	1
4901784	23	C	02/20/2016	10:49	-131.875	44.819	0	500.00	0	4.7290	0	34.0450	0	26.953	0	495.351	0	34.6	4	11.1	4	-1E+10	1	-1E+10	1	-1E+10	1	-1E+10	1	-1E+10	1	-1E+10	1
4901784	23	C	02/20/2016	10:49	-131.875	44.819	0	504.60	0	4.7060	0	34.0500	0	26.960	0	499.903	0	33.7	4	10.8	4	-1E+10	1	-1E+10	1	-1E+10	1	-1E+10	1	-1E+10	1	-1E+10	1
4901784	23	C	02/20/2016	10:49	-131.875	44.819	0	510.10	0	4.6840	0	34.0550	0	26.966	0	505.345	0	32.8	4	10.5	4	-1E+10	1	-1E+10	1	-1E+10	1	-1E+10	1	-1E+10	1	-1E+10	1
4901784	23	C	02/20/2016	10:49	-131.875	44.819	0	515.60	0	4.6710	0	34.0580	0	26.970	0	510.787	0	32.2	4	10.3	4	-1E+10	1	-1E+10	1	-1E+10	1	-1E+10	1	-1E+10	1	-1E+10	1
4901784	23	C	02/20/2016	10:49	-131.875	44.819	0	520.20	0	4.6600	0	34.0600	0	26.973	0	515.338	0	31.5	4	10.1	4	-1E+10	1	-1E+10	1	-1E+10	1	-1E+10	1	-1E+10	1	-1E+10	1
4901784	23	C	02/20/2016	10:49	-131.875	44.819	0	524.70	0	4.6210	0	34.0650	0	26.981	0	519.790	0	30.6	4	9.8	4	-1E+10	1	-1E+10	1	-1E+10	1	-1E+10	1	-1E+10	1	-1E+10	1
4901784	23	C	02/20/2016	10:49	-131.875	44.819	0	530.20	0	4.6120	0	34.0710	0	26.987	0	525.232	0	29.4	4	9.4	4	-1E+10	1	-1E+10	1	-1E+10	1	-1E+10	1	-1E+10	1	-1E+10	1
4901784	23	C	02/20/2016	10:49	-131.875	44.819	0	534.80	0	4.5910	0	34.0760	0	26.993	0	529.783	0	28.9	4	9.3	4	-1E+10	1	-1E+10	1	-1E+10	1	-1E+10	1	-1E+10	1	-1E+10	1
4901784	23	C	02/20/2016	10:49	-131.875	44.819	0	539.50	0	4.5390	0	34.0800	0	27.002	0	534.433	0	28.6	4	9.1	4	-1E+10	1	-1E+10	1	-1E+10	1	-1E+10	1	-1E+10	1	-1E+10	1
4901784	23	C	02/20/2016	10:49	-131.875	44.819	0	544.70	0	4.5250	0	34.0840	0	27.007	0	539.577	0	27.5	4	8.8	4	-1E+10	1	-1E+10	1	-1E+10	1	-1E+10	1	-1E+10	1	-1E+10	1
4901784	23	C	02/20/2016	10:49	-131.875	44.819	0	549.50	0	4.5290	0	34.0880	0	27.009	0	544.326	0	26.5	4	8.5	4	-1E+10	1	-1E+10	1	-1E+10	1	-1E+10	1	-1E+10	1	-1E+10	1
4901784	23	C	02/20/2016	10:49	-131.875	44.819	0	555.00	0	4.5220	0	34.0940	0	27.015	0	549.767	0	25.7	4	8.2	4	-1E+10	1	-1E+10	1	-1E+10	1	-1E+10	1	-1E+10	1	-1E+10	1
4901784	23	C	02/20/2016	10:49	-131.875	44.819	0	560.60	0	4.5140	0	34.0970	0	27.018	0	555.307	0	25.4	4	8.1	4	-1E+10	1	-1E+10	1	-1E+10	1	-1E+10	1	-1E+10	1	-1E+10	1
4901784	23	C	02/20/2016	10:49	-131.875	44.819	0	565.50	0	4.4810	0	34.0990	0	27.023	0	560.154	0	25.2	4	8.1	4	-1E+10	1	-1E+10	1	-1E+10	1	-1E+10	1	-1E+10	1	-1E+10	1
4901784	23	C	02/20/2016	10:49	-131.875	44.819	0	570.40	0	4.4760	0	34.1000	0	27.025	0	565.001	0	25.0	4	8.0	4	-1E+10	1	-1E+10	1	-1E+10	1	-1E+10	1	-1E+10	1	-1E+10	1
4901784	23	C	02/20/2016	10:49	-131.875	44.819	0	575.30	0	4.4580	0	34.1020	0	27.028	0	569.848	0	24.6	4	7.9	4	-1E+10	1	-1E+10	1	-1E+10	1	-1E+10	1	-1E+10	1	-1E+10	1
4901784	23	C	02/20/2016	10:49	-131.875	44.819	0	580.30	0	4.4380	0	34.1060	0	27.034	0	574.793	0	24.2	4	7.7	4	-1E+10	1	-1E+10	1	-1E+10	1	-1E+10	1	-1E+10	1	-1E+10	1
4901784	23	C	02/20/2016	10:49	-131.875	44.819	0	585.30	0	4.4270	0	34.1080	0	27.037	0	579.739	0	24.0	4	7.6	4	-1E+10	1	-1E+10	1	-1E+10	1	-1E+10	1	-1E+10	1	-1E+10	1
4901784	23	C	02/20/2016	10:49	-131.875	44.819	0	590.40	0	4.4230	0	34.1090	0	27.038	0	584.783	0	23.6	4	7.5	4	-1E+10	1	-1E+10	1	-1E+10	1	-1E+10	1	-1E+10	1	-1E+10	1
4901784	23	C	02/20/2016	10:49	-131.875	44.819	0	595.40	0	4.4180	0	34.1120	0	27.041	0	589.729	0	22.9	4	7.3	4	-1E+10	1	-1E+10	1	-1E+10	1	-1E+10	1	-1E+10	1	-1E+10	1
4901784	23	C	02/20/2016	10:49	-131.875	44.819	0	600.60	0	4.4100	0	34.1160	0	27.045	0	594.872	0	22.3	4	7.1	4	-1E+10	1	-1E+10	1	-1E+10	1	-1E+10	1	-1E+10	1	-1E+10	1
4901784	23	C	02/20/2016	10:49	-131.875	44.819	0	604.90	0	4.3940	0	34.1210	0	27.051	0	599.125	0	22.0	4	7.0	4	-1E+10	1	-1E+10	1	-1E+10	1	-1E+10	1	-1E+10	1	-1E+10	1
4901784	23	C	02/20/2016	10:49	-131.875	44.819	0	609.20	0	4.3700	0	34.1230	0	27.055	0	603.377	0	21.8	4	6.9	4	-1E+10	1	-1E+10	1	-1E+10	1	-1E+10	1	-1E+10	1	-1E+10	1
4901784	23	C	02/20/2016	10:49	-131.875	44.819	0	614.40	0	4.3480	0	34.1270	0	27.060	0	608.520	0	21.3	4	6.8	4	-1E+10	1	-1E+10	1	-1E+10	1	-1E+10	1	-1E+10	1	-1E+10	1
4901784	23	C	02/20/2016	10:49	-131.875	44.819	0	619.70	0	4.3410	0	34.1300	0	27.063	0	613.761	0	20.9	4	6.6	4	-1E+10	1	-1E+10	1	-1E+10	1	-1E+10	1	-1E+10	1	-1E+10	1
4901784	23	C	02/20/2016	10:49	-131.875	44.819	0	625.00	0	4.3270	0	34.1340	0	27.068	0	619.003	0	20.4	4	6.5	4	-1E+10	1	-1E+10	1	-1E+10	1	-1E+10	1	-1E+10	1	-1E+10	1
4901784	23	C	02/20/2016	10:49	-131.875	44.819	0	630.40	0	4.3000	0	34.1390	0	27.075	0	624.343	0	20.2	4	6.4	4	-1E+10	1	-1E+10	1	-1E+10	1	-1E+10	1	-1E+10	1	-1E+10	1
4901784	23	C	02/20/2016	10:49	-131.875	44.819	0	634.80	0	4.2840	0	34.1410	0	27.078	0	628.694	0	20.0	4	6.4	4	-1E+10	1	-1E+10	1	-1E+10	1	-1E+10	1	-1E+10	1	-1E+10	1
4901784	23	C	02/20/2016	10:49	-131.875	44.819	0	639.30	0	4.2660	0	34.1450	0	27.083	0	633.144	0	19.7	4	6.3	4	-1E+10	1	-1E+10	1	-1E+10	1	-1E+10	1	-1E+10	1	-1E+10	1
4901784	23	C	02/20/2016	10:49	-131.875	44.819	0	644.60	0	4.2500	0	34.1480	0	27.088	0	638.385	0	19.3	4	6.1	4	-1E+10	1	-1E+10	1	-1E+10	1	-1E+10	1	-1E+10	1	-1E+10	1
4901784	23	C	02/20/2016	10:49	-131.875	44.819	0	650.00	0	4.2380	0	34.1520	0	27.092	0	643.724	0	18.6	4	5.9	4	-1E+10	1	-1E+10	1	-1E+10	1	-1E+10	1	-1E+10	1	-1E+10	1
4901784	23	C	02/20/2016	10:49	-131.875	44.819	0	655.40	0	4.2250	0	34.1610	0	27.101	0	649.064	0	17.9	4	5.7	4	-1E+10	1	-1E+10	1	-1E+10	1	-1E+10	1	-1E+10	1	-1E+10	1
4901784	23	C	02/20/2016	10:49	-131.875	44.819	0	660.00	0	4.2220	0	34.1640	0	27.103	0	653.612	0	17.7	4	5.6	4	-1E+10	1	-1E+10	1	-1E+10	1	-1E+10	1	-1E+10	1	-1E+10	1
4901784	23	C	02/20/2016	10:49	-131.875	44.819	0	664.60	0	4.2140	0	34.1660	0	27.106	0	658.160	0	17.5	4	5.6	4	-1E+10	1	-1E+10	1	-1E+10	1	-1E+10	1	-1E+10	1	-1E+10	1
4901784	23	C	02/20/2016	10:49	-131.875	44.819	0	670.10	0	4.2110	0	34.1680	0	27.108	0	663.598	0	17.1	4	5.4	4	-1E+10	1	-1E+10	1	-1E+10	1	-1E+10	1	-1E+10	1	-1E+10	1
4901784	23	C	02/20/2016	10:49	-131.875	44.819	0	675.60	0	4.1930	0	34.1730	0	27.114	0	669.036	0	16.7	4	5.3	4	-1E+10	1	-1E+10	1	-1E+10	1	-1E+10	1	-1E+10	1	-1E+10	1
4901784	23	C	02/20/2016	10:49	-131.875	44.819	0	680.20	0	4.1900	0	34.1780	0	27.118	0	673.584	0	16.4	4	5.2	4	-1E+10	1	-1E+10	1	-1E+10	1	-1E+10	1	-1E+10	1	-1E+10	1
4901784	23	C	02/20/2016	10:49	-131.875	44.819	0	684.90	0	4.1760	0	34.1810	0	27.122	0	678.231	0	16.2	4	5.1	4	-1E+10	1	-1E+10	1	-1E+10	1	-1E+10	1	-1E+10	1	-1E+10	1
4901784	23	C	02/20/2016	10:49	-131.875	44.819	0	690.40	0	4.1670	0	34.1830	0	27.124	0	683.668	0	15.8	4	5.0	4	-1E+10	1	-1E+10	1	-1E+10	1	-1E+10	1	-1E+10	1	-1E+10	1
4901784	23	C	02/20/2016	10:49	-131.875	44.819	0	695.00	0	4.1560	0	34.1880	0	27.130	0	688.216	0	15.5	4	4.9	4	-1E+10	1	-1E+10	1	-1E+10	1	-1E+10	1	-1E+10	1	-1E+10	1
4901784	23	C	02/20/2016	10:49	-131.875	44.819	0	699.60	0	4.1370	0	34.1920	0	27.135	0	692.763	0	15.1	4	4.8	4	-1E+10	1	-1E+10	1	-1E+10	1	-1E+10	1	-1E+10	1	-1E+10	1
4901784	23	C	02/20/2016	10:49	-131.875	44.819	0	705.20	0	4.1250	0	34.1970	0	27.140	0	698.299	0	14.5	4	4.6	4	-1E+10	1	-1E+10	1	-1E+10	1	-1E+10	1	-1E+10	1	-1E+10	1
4901784	23	C	02/20/2016	10:49	-131.875	44.819	0	709.80	0	4.1360	0	34.2060	0	27.146	0	702.846	0	13.9	4	4.4	4	-1E+10	1	-1E+10	1	-1E+10	1	-1E+10	1	-1E+10	1	-1E+10	1
4901784	23	C	02/20/2016	10:49	-131.875	44.819	0	714.60	0	4.1410	0	34.2100	0	27.149	0	707.591	0	13.6	4	4.3	4	-1E+10	1	-1E+10	1	-1E+10	1	-1E+10	1	-1E+10	1	-1E+10	1
4901784	23	C	02/20/2016	10:49	-131.875	44.819	0	720.20	0	4.1240	0	34.2130	0	27.153	0	713.127	0	13.4	4	4.2	4	-1E+10	1	-1E+10	1	-1E+10	1	-1E+10	1	-1E+10	1	-1E+10	1
4901784	23	C	02/20/2016	10:49	-131.875	44.819	0	725.00	0	4.1220	0	34.2170	0	27.156	0	717.871	0	13.2	4	4.2	4	-1E+10	1	-1E+10	1	-1E+10	1	-1E+10	1	-1E+10	1	-1E+10	1
4901784	23	C	02/20/2016	10:49	-131.875	44.819	0	729.70	0	4.1040	0	34.2200	0	27.161	0	722.517	0	13.1	4	4.2	4	-1E+10	1	-1E+10	1	-1E+10	1	-1E+10	1	-1E+10	1	-1E+10	1
4901784	23	C	02/20/2016	10:49	-131.875	44.819	0	735.40	0	4.0910	0	34.2230	0	27.164	0	728.151	0	12.9	4	4.1	4	-1E+10	1	-1E+10	1	-1E+10	1	-1E+10	1	-1E+10	1	-1E+10	1
4901784	23	C	02/20/2016	10:49	-131.875	44.819	0	740.40	0	4.1050	0	34.2280	0	27.167	0	733.093	0	12.6	4	4.0	4	-1E+10	1	-1E+10	1	-1E+10	1	-1E+10	1	-1E+10	1	-1E+10	1
4901784	23	C	02/20/2016	10:49	-131.875	44.819	0	744.90	0	4.0890	0	34.2310	0	27.171	0	737.540	0	12.7	4	4.0	4	-1E+10	1	-1E+10	1	-1E+10	1	-1E+10	1	-1E+10	1	-1E+10	1
4901784	23	C	02/20/2016	10:49	-131.875	44.819	0	749.80	0	4.0480	0	34.2330	0	27.177	0	742.383	0	12.8	4	4.1	4	-1E+10	1	-1E+10	1	-1E+10	1	-1E+10	1	-1E+10	1	-1E+10	1
4901784	23	C	02/20/2016	10:49	-131.875	44.819	0	754.70	0	4.0000	0	34.2350	0	27.183	0	747.226	0	12.8	4	4.0	4	-1E+10	1	-1E+10	1	-1E+10	1	-1E+10	1	-1E+10	1	-1E+10	1
4901784	23	C	02/20/2016	10:49	-131.875	44.819	0	759.70	0	3.9860	0	34.2380	0	27.187	0	752.167	0	12.7	4	4.0	4	-1E+10	1	-1E+10	1	-1E+10	1	-1E+10	1	-1E+10	1	-1E+10	1
4901784	23	C	02/20/2016	10:49	-131.875	44.819	0	764.80	0	3.9760	0	34.2400	0	27.190	0	757.208	0	12.6	4	4.0	4	-1E+10	1	-1E+10	1	-1E+10	1	-1E+10	1	-1E+10	1	-1E+10	1
4901784	23	C	02/20/2016	10:49	-131.875	44.819	0	769.80	0	3.9710	0	34.2420	0	27.192	0	762.149	0	12.5	4	4.0	4	-1E+10	1	-1E+10	1	-1E+10	1	-1E+10	1	-1E+10	1	-1E+10	1
4901784	23	C	02/20/2016	10:49	-131.875	44.819	0	774.80	0	3.9660	0	34.2430	0	27.193	0	767.090	0	12.4	4	3.9	4	-1E+10	1	-1E+10	1	-1E+10	1	-1E+10	1	-1E+10	1	-1E+10	1
4901784	23	C	02/20/2016	10:49	-131.875	44.819	0	779.90	0	3.9570	0	34.2460	0	27.197	0	772.130	0	12.2	4	3.9	4	-1E+10	1	-1E+10	1	-1E+10	1	-1E+10	1	-1E+10	1	-1E+10	1
4901784	23	C	02/20/2016	10:49	-131.875	44.819	0	785.00	0	3.9330	0	34.2520	0	27.204	0	777.169	0	12.1	4	3.8	4	-1E+10	1	-1E+10	1	-1E+10	1	-1E+10	1	-1E+10	1	-1E+10	1
4901784	23	C	02/20/2016	10:49	-131.875	44.819	0	790.10	0	3.9300	0	34.2580	0	27.209	0	782.209	0	11.9	4	3.7	4	-1E+10	1	-1E+10	1	-1E+10	1	-1E+10	1	-1E+10	1	-1E+10	1
4901784	23	C	02/20/2016	10:49	-131.875	44.819	0	795.30	0	3.9340	0	34.2610	0	27.211	0	787.347	0	11.8	4	3.7	4	-1E+10	1	-1E+10	1	-1E+10	1	-1E+10	1	-1E+10	1	-1E+10	1
4901784	23	C	02/20/2016	10:49	-131.875	44.819	0	800.50	0	3.9300	0	34.2620	0	27.212	0	792.485	0	11.7	4	3.7	4	-1E+10	1	-1E+10	1	-1E+10	1	-1E+10	1	-1E+10	1	-1E+10	1
4901784	23	C	02/20/2016	10:49	-131.875	44.819	0	805.60	0	3.9180	0	34.2630	0	27.214	0	797.525	0	11.7	4	3.7	4	-1E+10	1	-1E+10	1	-1E+10	1	-1E+10	1	-1E+10	1	-1E+10	1
4901784	23	C	02/20/2016	10:49	-131.875	44.819	0	810.00	0	3.9080	0	34.2640	0	27.216	0	801.872	0	11.7	4	3.7	4	-1E+10	1	-1E+10	1	-1E+10	1	-1E+10	1	-1E+10	1	-1E+10	1
4901784	23	C	02/20/2016	10:49	-131.875	44.819	0	814.40	0	3.8920	0	34.2670	0	27.220	0	806.219	0	11.6	4	3.7	4	-1E+10	1	-1E+10	1	-1E+10	1	-1E+10	1	-1E+10	1	-1E+10	1
4901784	23	C	02/20/2016	10:49	-131.875	44.819	0	819.60	0	3.8850	0	34.2700	0	27.223	0	811.357	0	11.6	4	3.7	4	-1E+10	1	-1E+10	1	-1E+10	1	-1E+10	1	-1E+10	1	-1E+10	1
4901784	23	C	02/20/2016	10:49	-131.875	44.819	0	824.90	0	3.8680	0	34.2730	0	27.227	0	816.593	0	11.7	4	3.7	4	-1E+10	1	-1E+10	1	-1E+10	1	-1E+10	1	-1E+10	1	-1E+10	1
4901784	23	C	02/20/2016	10:49	-131.875	44.819	0	830.10	0	3.8330	0	34.2740	0	27.232	0	821.731	0	11.8	4	3.7	4	-1E+10	1	-1E+10	1	-1E+10	1	-1E+10	1	-1E+10	1	-1E+10	1
4901784	23	C	02/20/2016	10:49	-131.875	44.819	0	835.40	0	3.8020	0	34.2730	0	27.234	0	826.967	0	11.9	4	3.7	4	-1E+10	1	-1E+10	1	-1E+10	1	-1E+10	1	-1E+10	1	-1E+10	1
4901784	23	C	02/20/2016	10:49	-131.875	44.819	0	839.80	0	3.7820	0	34.2760	0	27.239	0	831.314	0	11.9	4	3.7	4	-1E+10	1	-1E+10	1	-1E+10	1	-1E+10	1	-1E+10	1	-1E+10	1
4901784	23	C	02/20/2016	10:49	-131.875	44.819	0	844.30	0	3.7720	0	34.2770	0	27.240	0	835.759	0	11.8	4	3.7	4	-1E+10	1	-1E+10	1	-1E+10	1	-1E+10	1	-1E+10	1	-1E+10	1
4901784	23	C	02/20/2016	10:49	-131.875	44.819	0	849.60	0	3.7550	0	34.2800	0	27.244	0	840.995	0	11.7	4	3.7	4	-1E+10	1	-1E+10	1	-1E+10	1	-1E+10	1	-1E+10	1	-1E+10	1
4901784	23	C	02/20/2016	10:49	-131.875	44.819	0	855.00	0	3.7450	0	34.2850	0	27.249	0	846.329	0	11.7	4	3.7	4	-1E+10	1	-1E+10	1	-1E+10	1	-1E+10	1	-1E+10	1	-1E+10	1
4901784	23	C	02/20/2016	10:49	-131.875	44.819	0	860.60	0	3.7350	0	34.2870	0	27.252	0	851.861	0	11.7	4	3.7	4	-1E+10	1	-1E+10	1	-1E+10	1	-1E+10	1	-1E+10	1	-1E+10	1
4901784	23	C	02/20/2016	10:49	-131.875	44.819	0	865.10	0	3.7370	0	34.2870	0	27.252	0	856.306	0	11.6	4	3.7	4	-1E+10	1	-1E+10	1	-1E+10	1	-1E+10	1	-1E+10	1	-1E+10	1
4901784	23	C	02/20/2016	10:49	-131.875	44.819	0	869.70	0	3.7190	0	34.2890	0	27.255	0	860.850	0	11.7	4	3.7	4	-1E+10	1	-1E+10	1	-1E+10	1	-1E+10	1	-1E+10	1	-1E+10	1
4901784	23	C	02/20/2016	10:49	-131.875	44.819	0	875.30	0	3.6940	0	34.2890	0	27.258	0	866.382	0	11.8	4	3.7	4	-1E+10	1	-1E+10	1	-1E+10	1	-1E+10	1	-1E+10	1	-1E+10	1
4901784	23	C	02/20/2016	10:49	-131.875	44.819	0	879.90	0	3.6800	0	34.2910	0	27.261	0	870.925	0	11.8	4	3.7	4	-1E+10	1	-1E+10	1	-1E+10	1	-1E+10	1	-1E+10	1	-1E+10	1
4901784	23	C	02/20/2016	10:49	-131.875	44.819	0	885.20	0	3.6680	0	34.2920	0	27.263	0	876.160	0	11.8	4	3.7	4	-1E+10	1	-1E+10	1	-1E+10	1	-1E+10	1	-1E+10	1	-1E+10	1
4901784	23	C	02/20/2016	10:49	-131.875	44.819	0	890.30	0	3.6540	0	34.2920	0	27.264	0	881.197	0	11.9	4	3.7	4	-1E+10	1	-1E+10	1	-1E+10	1	-1E+10	1	-1E+10	1	-1E+10	1
4901784	23	C	02/20/2016	10:49	-131.875	44.819	0	895.10	0	3.6330	0	34.2930	0	27.267	0	885.938	0	11.9	4	3.7	4	-1E+10	1	-1E+10	1	-1E+10	1	-1E+10	1	-1E+10	1	-1E+10	1
4901784	23	C	02/20/2016	10:49	-131.875	44.819	0	899.90	0	3.6200	0	34.2940	0	27.269	0	890.679	0	11.9	4	3.7	4	-1E+10	1	-1E+10	1	-1E+10	1	-1E+10	1	-1E+10	1	-1E+10	1
4901784	23	C	02/20/2016	10:49	-131.875	44.819	0	904.90	0	3.6120	0	34.2950	0	27.271	0	895.617	0	11.9	4	3.7	4	-1E+10	1	-1E+10	1	-1E+10	1	-1E+10	1	-1E+10	1	-1E+10	1
4901784	23	C	02/20/2016	10:49	-131.875	44.819	0	909.80	0	3.6000	0	34.2960	0	27.273	0	900.456	0	11.9	4	3.7	4	-1E+10	1	-1E+10	1	-1E+10	1	-1E+10	1	-1E+10	1	-1E+10	1
4901784	23	C	02/20/2016	10:49	-131.875	44.819	0	914.80	0	3.5900	0	34.2980	0	27.275	0	905.394	0	11.9	4	3.7	4	-1E+10	1	-1E+10	1	-1E+10	1	-1E+10	1	-1E+10	1	-1E+10	1
4901784	23	C	02/20/2016	10:49	-131.875	44.819	0	919.60	0	3.5830	0	34.3020	0	27.279	0	910.134	0	11.8	4	3.7	4	-1E+10	1	-1E+10	1	-1E+10	1	-1E+10	1	-1E+10	1	-1E+10	1
4901784	23	C	02/20/2016	10:49	-131.875	44.819	0	924.60	0	3.5750	0	34.3040	0	27.282	0	915.071	0	11.8	4	3.7	4	-1E+10	1	-1E+10	1	-1E+10	1	-1E+10	1	-1E+10	1	-1E+10	1
4901784	23	C	02/20/2016	10:49	-131.875	44.819	0	929.60	0	3.5630	0	34.3080	0	27.286	0	920.009	0	11.7	4	3.7	4	-1E+10	1	-1E+10	1	-1E+10	1	-1E+10	1	-1E+10	1	-1E+10	1
4901784	23	C	02/20/2016	10:49	-131.875	44.819	0	934.60	0	3.5580	0	34.3100	0	27.288	0	924.946	0	11.6	4	3.6	4	-1E+10	1	-1E+10	1	-1E+10	1	-1E+10	1	-1E+10	1	-1E+10	1
4901784	23	C	02/20/2016	10:49	-131.875	44.819	0	939.60	0	3.5630	0	34.3150	0	27.292	0	929.884	0	11.5	4	3.6	4	-1E+10	1	-1E+10	1	-1E+10	1	-1E+10	1	-1E+10	1	-1E+10	1
4901784	23	C	02/20/2016	10:49	-131.875	44.819	0	944.60	0	3.5660	0	34.3210	0	27.296	0	934.821	0	11.4	4	3.6	4	-1E+10	1	-1E+10	1	-1E+10	1	-1E+10	1	-1E+10	1	-1E+10	1
4901784	23	C	02/20/2016	10:49	-131.875	44.819	0	949.60	0	3.5660	0	34.3250	0	27.300	0	939.758	0	11.4	4	3.6	4	-1E+10	1	-1E+10	1	-1E+10	1	-1E+10	1	-1E+10	1	-1E+10	1
4901784	23	C	02/20/2016	10:49	-131.875	44.819	0	954.60	0	3.5570	0	34.3280	0	27.303	0	944.695	0	11.4	4	3.6	4	-1E+10	1	-1E+10	1	-1E+10	1	-1E+10	1	-1E+10	1	-1E+10	1
4901784	23	C	02/20/2016	10:49	-131.875	44.819	0	959.70	0	3.5350	0	34.3290	0	27.306	0	949.730	0	11.5	4	3.6	4	-1E+10	1	-1E+10	1	-1E+10	1	-1E+10	1	-1E+10	1	-1E+10	1
4901784	23	C	02/20/2016	10:49	-131.875	44.819	0	964.70	0	3.5250	0	34.3300	0	27.308	0	954.667	0	11.5	4	3.6	4	-1E+10	1	-1E+10	1	-1E+10	1	-1E+10	1	-1E+10	1	-1E+10	1
4901784	23	C	02/20/2016	10:49	-131.875	44.819	0	969.80	0	3.5150	0	34.3330	0	27.311	0	959.702	0	11.5	4	3.6	4	-1E+10	1	-1E+10	1	-1E+10	1	-1E+10	1	-1E+10	1	-1E+10	1
4901784	23	C	02/20/2016	10:49	-131.875	44.819	0	975.00	0	3.5060	0	34.3350	0	27.313	0	964.836	0	11.6	4	3.6	4	-1E+10	1	-1E+10	1	-1E+10	1	-1E+10	1	-1E+10	1	-1E+10	1
4901784	23	C	02/20/2016	10:49	-131.875	44.819	0	980.20	0	3.4810	0	34.3340	0	27.315	0	969.970	0	11.6	4	3.6	4	-1E+10	1	-1E+10	1	-1E+10	1	-1E+10	1	-1E+10	1	-1E+10	1
4901784	23	C	02/20/2016	10:49	-131.875	44.819	0	985.40	0	3.4490	0	34.3330	0	27.317	0	975.103	0	11.7	4	3.6	4	-1E+10	1	-1E+10	1	-1E+10	1	-1E+10	1	-1E+10	1	-1E+10	1
4901784	23	C	02/20/2016	10:49	-131.875	44.819	0	990.60	0	3.4470	0	34.3340	0	27.318	0	980.237	0	11.7	4	3.6	4	-1E+10	1	-1E+10	1	-1E+10	1	-1E+10	1	-1E+10	1	-1E+10	1
4901784	23	C	02/20/2016	10:49	-131.875	44.819	0	995.00	0	3.4430	0	34.3370	0	27.321	0	984.581	0	11.7	4	3.6	4	-1E+10	1	-1E+10	1	-1E+10	1	-1E+10	1	-1E+10	1	-1E+10	1
4901784	23	C	02/20/2016	10:49	-131.875	44.819	0	999.50	0	3.4420	0	34.3400	0	27.324	0	989.023	0	11.7	4	3.6	4	-1E+10	1	-1E+10	1	-1E+10	1	-1E+10	1	-1E+10	1	-1E+10	1
4901784	23	C	02/20/2016	10:49	-131.875	44.819	0	1004.90	0	3.4370	0	34.3420	0	27.326	0	994.353	0	11.7	4	3.6	4	-1E+10	1	-1E+10	1	-1E+10	1	-1E+10	1	-1E+10	1	-1E+10	1
4901784	23	C	02/20/2016	10:49	-131.875	44.819	0	1010.20	0	3.4520	0	34.3470	0	27.328	0	999.585	0	11.6	4	3.6	4	-1E+10	1	-1E+10	1	-1E+10	1	-1E+10	1	-1E+10	1	-1E+10	1
4901784	23	C	02/20/2016	10:49	-131.875	44.819	0	1015.60	0	3.4350	0	34.3500	0	27.332	0	1004.915	0	11.7	4	3.6	4	-1E+10	1	-1E+10	1	-1E+10	1	-1E+10	1	-1E+10	1	-1E+10	1
4901784	23	C	02/20/2016	10:49	-131.875	44.819	0	1020.00	0	3.4150	0	34.3510	0	27.335	0	1009.259	0	11.8	4	3.7	4	-1E+10	1	-1E+10	1	-1E+10	1	-1E+10	1	-1E+10	1	-1E+10	1
4901784	23	C	02/20/2016	10:49	-131.875	44.819	0	1024.50	0	3.3980	0	34.3520	0	27.338	0	1013.700	0	11.8	4	3.7	4	-1E+10	1	-1E+10	1	-1E+10	1	-1E+10	1	-1E+10	1	-1E+10	1
4901784	23	C	02/20/2016	10:49	-131.875	44.819	0	1030.00	0	3.3940	0	34.3560	0	27.341	0	1019.129	0	11.8	4	3.7	4	-1E+10	1	-1E+10	1	-1E+10	1	-1E+10	1	-1E+10	1	-1E+10	1
4901784	23	C	02/20/2016	10:49	-131.875	44.819	0	1035.40	0	3.3920	0	34.3590	0	27.344	0	1024.459	0	11.8	4	3.7	4	-1E+10	1	-1E+10	1	-1E+10	1	-1E+10	1	-1E+10	1	-1E+10	1
4901784	23	C	02/20/2016	10:49	-131.875	44.819	0	1040.70	0	3.3750	0	34.3610	0	27.347	0	1029.690	0	11.9	4	3.7	4	-1E+10	1	-1E+10	1	-1E+10	1	-1E+10	1	-1E+10	1	-1E+10	1
4901784	23	C	02/20/2016	10:49	-131.875	44.819	0	1045.20	0	3.3620	0	34.3630	0	27.350	0	1034.131	0	12.0	4	3.7	4	-1E+10	1	-1E+10	1	-1E+10	1	-1E+10	1	-1E+10	1	-1E+10	1
4901784	23	C	02/20/2016	10:49	-131.875	44.819	0	1049.80	0	3.3810	0	34.3680	0	27.352	0	1038.671	0	12.0	4	3.7	4	-1E+10	1	-1E+10	1	-1E+10	1	-1E+10	1	-1E+10	1	-1E+10	1
4901784	23	C	02/20/2016	10:49	-131.875	44.819	0	1055.40	0	3.3810	0	34.3690	0	27.353	0	1044.198	0	12.0	4	3.7	4	-1E+10	1	-1E+10	1	-1E+10	1	-1E+10	1	-1E+10	1	-1E+10	1
4901784	23	C	02/20/2016	10:49	-131.875	44.819	0	1060.00	0	3.3680	0	34.3700	0	27.355	0	1048.737	0	12.0	4	3.7	4	-1E+10	1	-1E+10	1	-1E+10	1	-1E+10	1	-1E+10	1	-1E+10	1
4901784	23	C	02/20/2016	10:49	-131.875	44.819	0	1064.60	0	3.3540	0	34.3710	0	27.357	0	1053.277	0	12.1	4	3.8	4	-1E+10	1	-1E+10	1	-1E+10	1	-1E+10	1	-1E+10	1	-1E+10	1
4901784	23	C	02/20/2016	10:49	-131.875	44.819	0	1070.10	0	3.3410	0	34.3710	0	27.358	0	1058.705	0	12.1	4	3.8	4	-1E+10	1	-1E+10	1	-1E+10	1	-1E+10	1	-1E+10	1	-1E+10	1
4901784	23	C	02/20/2016	10:49	-131.875	44.819	0	1075.60	0	3.3290	0	34.3730	0	27.361	0	1064.132	0	12.2	4	3.8	4	-1E+10	1	-1E+10	1	-1E+10	1	-1E+10	1	-1E+10	1	-1E+10	1
4901784	23	C	02/20/2016	10:49	-131.875	44.819	0	1080.20	0	3.3210	0	34.3740	0	27.363	0	1068.671	0	12.2	4	3.8	4	-1E+10	1	-1E+10	1	-1E+10	1	-1E+10	1	-1E+10	1	-1E+10	1
4901784	23	C	02/20/2016	10:49	-131.875	44.819	0	1085.10	0	3.3210	0	34.3760	0	27.364	0	1073.506	0	12.3	4	3.8	4	-1E+10	1	-1E+10	1	-1E+10	1	-1E+10	1	-1E+10	1	-1E+10	1
4901784	23	C	02/20/2016	10:49	-131.875	44.819	0	1090.20	0	3.3140	0	34.3780	0	27.367	0	1078.539	0	12.3	4	3.8	4	-1E+10	1	-1E+10	1	-1E+10	1	-1E+10	1	-1E+10	1	-1E+10	1
4901784	23	C	02/20/2016	10:49	-131.875	44.819	0	1094.90	0	3.3000	0	34.3790	0	27.369	0	1083.177	0	12.4	4	3.9	4	-1E+10	1	-1E+10	1	-1E+10	1	-1E+10	1	-1E+10	1	-1E+10	1
4901784	23	C	02/20/2016	10:49	-131.875	44.819	0	1099.60	0	3.2850	0	34.3810	0	27.372	0	1087.814	0	12.5	4	3.9	4	-1E+10	1	-1E+10	1	-1E+10	1	-1E+10	1	-1E+10	1	-1E+10	1
4901784	23	C	02/20/2016	10:49	-131.875	44.819	0	1105.10	0	3.2700	0	34.3830	0	27.375	0	1093.241	0	12.6	4	3.9	4	-1E+10	1	-1E+10	1	-1E+10	1	-1E+10	1	-1E+10	1	-1E+10	1
4901784	23	C	02/20/2016	10:49	-131.875	44.819	0	1110.60	0	3.2550	0	34.3850	0	27.378	0	1098.667	0	12.7	4	3.9	4	-1E+10	1	-1E+10	1	-1E+10	1	-1E+10	1	-1E+10	1	-1E+10	1
4901784	23	C	02/20/2016	10:49	-131.875	44.819	0	1115.70	0	3.2320	0	34.3870	0	27.382	0	1103.699	0	12.8	4	4.0	4	-1E+10	1	-1E+10	1	-1E+10	1	-1E+10	1	-1E+10	1	-1E+10	1
4901784	23	C	02/20/2016	10:49	-131.875	44.819	0	1120.20	0	3.2200	0	34.3900	0	27.385	0	1108.139	0	12.9	4	4.0	4	-1E+10	1	-1E+10	1	-1E+10	1	-1E+10	1	-1E+10	1	-1E+10	1
4901784	23	C	02/20/2016	10:49	-131.875	44.819	0	1124.60	0	3.2160	0	34.3910	0	27.386	0	1112.480	0	13.0	4	4.0	4	-1E+10	1	-1E+10	1	-1E+10	1	-1E+10	1	-1E+10	1	-1E+10	1
4901784	23	C	02/20/2016	10:49	-131.875	44.819	0	1129.80	0	3.2000	0	34.3930	0	27.390	0	1117.610	0	13.2	4	4.1	4	-1E+10	1	-1E+10	1	-1E+10	1	-1E+10	1	-1E+10	1	-1E+10	1
4901784	23	C	02/20/2016	10:49	-131.875	44.819	0	1135.20	0	3.1840	0	34.3960	0	27.393	0	1122.937	0	13.3	4	4.1	4	-1E+10	1	-1E+10	1	-1E+10	1	-1E+10	1	-1E+10	1	-1E+10	1
4901784	23	C	02/20/2016	10:49	-131.875	44.819	0	1140.50	0	3.1740	0	34.3980	0	27.396	0	1128.166	0	13.4	4	4.1	4	-1E+10	1	-1E+10	1	-1E+10	1	-1E+10	1	-1E+10	1	-1E+10	1
4901784	23	C	02/20/2016	10:49	-131.875	44.819	0	1145.00	0	3.1670	0	34.3990	0	27.397	0	1132.605	0	13.5	4	4.2	4	-1E+10	1	-1E+10	1	-1E+10	1	-1E+10	1	-1E+10	1	-1E+10	1
4901784	23	C	02/20/2016	10:49	-131.875	44.819	0	1149.50	0	3.1560	0	34.4010	0	27.400	0	1137.044	0	13.6	4	4.2	4	-1E+10	1	-1E+10	1	-1E+10	1	-1E+10	1	-1E+10	1	-1E+10	1
4901784	23	C	02/20/2016	10:49	-131.875	44.819	0	1154.80	0	3.1460	0	34.4020	0	27.402	0	1142.272	0	13.7	4	4.2	4	-1E+10	1	-1E+10	1	-1E+10	1	-1E+10	1	-1E+10	1	-1E+10	1
4901784	23	C	02/20/2016	10:49	-131.875	44.819	0	1160.20	0	3.1280	0	34.4050	0	27.406	0	1147.599	0	13.8	4	4.3	4	-1E+10	1	-1E+10	1	-1E+10	1	-1E+10	1	-1E+10	1	-1E+10	1
4901784	23	C	02/20/2016	10:49	-131.875	44.819	0	1165.60	0	3.1210	0	34.4060	0	27.407	0	1152.926	0	14.0	4	4.3	4	-1E+10	1	-1E+10	1	-1E+10	1	-1E+10	1	-1E+10	1	-1E+10	1
4901784	23	C	02/20/2016	10:49	-131.875	44.819	0	1170.00	0	3.1130	0	34.4080	0	27.410	0	1157.266	0	14.1	4	4.4	4	-1E+10	1	-1E+10	1	-1E+10	1	-1E+10	1	-1E+10	1	-1E+10	1
4901784	23	C	02/20/2016	10:49	-131.875	44.819	0	1174.50	0	3.0980	0	34.4100	0	27.413	0	1161.704	0	14.3	4	4.4	4	-1E+10	1	-1E+10	1	-1E+10	1	-1E+10	1	-1E+10	1	-1E+10	1
4901784	23	C	02/20/2016	10:49	-131.875	44.819	0	1179.90	0	3.0820	0	34.4120	0	27.416	0	1167.030	0	14.4	4	4.5	4	-1E+10	1	-1E+10	1	-1E+10	1	-1E+10	1	-1E+10	1	-1E+10	1
4901784	23	C	02/20/2016	10:49	-131.875	44.819	0	1185.40	0	3.0700	0	34.4150	0	27.419	0	1172.455	0	14.6	4	4.5	4	-1E+10	1	-1E+10	1	-1E+10	1	-1E+10	1	-1E+10	1	-1E+10	1
4901784	23	C	02/20/2016	10:49	-131.875	44.819	0	1190.00	0	3.0650	0	34.4170	0	27.421	0	1176.992	0	14.8	4	4.6	4	-1E+10	1	-1E+10	1	-1E+10	1	-1E+10	1	-1E+10	1	-1E+10	1
4901784	23	C	02/20/2016	10:49	-131.875	44.819	0	1194.60	0	3.0540	0	34.4190	0	27.424	0	1181.529	0	14.9	4	4.6	4	-1E+10	1	-1E+10	1	-1E+10	1	-1E+10	1	-1E+10	1	-1E+10	1
4901784	23	C	02/20/2016	10:49	-131.875	44.819	0	1200.10	0	3.0360	0	34.4200	0	27.426	0	1186.953	0	15.1	4	4.7	4	-1E+10	1	-1E+10	1	-1E+10	1	-1E+10	1	-1E+10	1	-1E+10	1
4901784	23	C	02/20/2016	10:49	-131.875	44.819	0	1205.70	0	3.0200	0	34.4230	0	27.430	0	1192.476	0	15.4	4	4.7	4	-1E+10	1	-1E+10	1	-1E+10	1	-1E+10	1	-1E+10	1	-1E+10	1
4901784	23	C	02/20/2016	10:49	-131.875	44.819	0	1210.30	0	3.0160	0	34.4250	0	27.432	0	1197.012	0	15.5	4	4.8	4	-1E+10	1	-1E+10	1	-1E+10	1	-1E+10	1	-1E+10	1	-1E+10	1
4901784	23	C	02/20/2016	10:49	-131.875	44.819	0	1214.90	0	3.0100	0	34.4270	0	27.434	0	1201.549	0	15.7	4	4.8	4	-1E+10	1	-1E+10	1	-1E+10	1	-1E+10	1	-1E+10	1	-1E+10	1
4901784	23	C	02/20/2016	10:49	-131.875	44.819	0	1220.60	0	2.9960	0	34.4290	0	27.437	0	1207.170	0	15.8	4	4.9	4	-1E+10	1	-1E+10	1	-1E+10	1	-1E+10	1	-1E+10	1	-1E+10	1
4901784	23	C	02/20/2016	10:49	-131.875	44.819	0	1225.30	0	2.9830	0	34.4300	0	27.439	0	1211.804	0	16.0	4	4.9	4	-1E+10	1	-1E+10	1	-1E+10	1	-1E+10	1	-1E+10	1	-1E+10	1
4901784	23	C	02/20/2016	10:49	-131.875	44.819	0	1230.00	0	2.9690	0	34.4320	0	27.442	0	1216.439	0	16.1	4	5.0	4	-1E+10	1	-1E+10	1	-1E+10	1	-1E+10	1	-1E+10	1	-1E+10	1
4901784	23	C	02/20/2016	10:49	-131.875	44.819	0	1235.50	0	2.9530	0	34.4330	0	27.444	0	1221.862	0	16.2	4	5.0	4	-1E+10	1	-1E+10	1	-1E+10	1	-1E+10	1	-1E+10	1	-1E+10	1
4901784	23	C	02/20/2016	10:49	-131.875	44.819	0	1240.00	0	2.9480	0	34.4340	0	27.446	0	1226.300	0	16.3	4	5.0	4	-1E+10	1	-1E+10	1	-1E+10	1	-1E+10	1	-1E+10	1	-1E+10	1
4901784	23	C	02/20/2016	10:49	-131.875	44.819	0	1244.30	0	2.9360	0	34.4340	0	27.447	0	1230.540	0	16.5	4	5.1	4	-1E+10	1	-1E+10	1	-1E+10	1	-1E+10	1	-1E+10	1	-1E+10	1
4901784	23	C	02/20/2016	10:49	-131.875	44.819	0	1249.60	0	2.9220	0	34.4370	0	27.451	0	1235.765	0	16.7	4	5.1	4	-1E+10	1	-1E+10	1	-1E+10	1	-1E+10	1	-1E+10	1	-1E+10	1
4901784	23	C	02/20/2016	10:49	-131.875	44.819	0	1254.90	0	2.9120	0	34.4390	0	27.453	0	1240.991	0	16.9	4	5.2	4	-1E+10	1	-1E+10	1	-1E+10	1	-1E+10	1	-1E+10	1	-1E+10	1
4901784	23	C	02/20/2016	10:49	-131.875	44.819	0	1260.20	0	2.9010	0	34.4400	0	27.455	0	1246.217	0	17.1	4	5.3	4	-1E+10	1	-1E+10	1	-1E+10	1	-1E+10	1	-1E+10	1	-1E+10	1
4901784	23	C	02/20/2016	10:49	-131.875	44.819	0	1265.60	0	2.8940	0	34.4410	0	27.456	0	1251.541	0	17.3	4	5.3	4	-1E+10	1	-1E+10	1	-1E+10	1	-1E+10	1	-1E+10	1	-1E+10	1
4901784	23	C	02/20/2016	10:49	-131.875	44.819	0	1270.10	0	2.8840	0	34.4430	0	27.459	0	1255.977	0	17.5	4	5.4	4	-1E+10	1	-1E+10	1	-1E+10	1	-1E+10	1	-1E+10	1	-1E+10	1
4901784	23	C	02/20/2016	10:49	-131.875	44.819	0	1274.60	0	2.8720	0	34.4450	0	27.462	0	1260.414	0	17.7	4	5.4	4	-1E+10	1	-1E+10	1	-1E+10	1	-1E+10	1	-1E+10	1	-1E+10	1
4901784	23	C	02/20/2016	10:49	-131.875	44.819	0	1280.10	0	2.8580	0	34.4470	0	27.464	0	1265.836	0	17.9	4	5.5	4	-1E+10	1	-1E+10	1	-1E+10	1	-1E+10	1	-1E+10	1	-1E+10	1
4901784	23	C	02/20/2016	10:49	-131.875	44.819	0	1284.70	0	2.8460	0	34.4470	0	27.465	0	1270.371	0	18.0	4	5.5	4	-1E+10	1	-1E+10	1	-1E+10	1	-1E+10	1	-1E+10	1	-1E+10	1
4901784	23	C	02/20/2016	10:49	-131.875	44.819	0	1289.20	0	2.8370	0	34.4480	0	27.467	0	1274.807	0	18.0	4	5.6	4	-1E+10	1	-1E+10	1	-1E+10	1	-1E+10	1	-1E+10	1	-1E+10	1
4901784	23	C	02/20/2016	10:49	-131.875	44.819	0	1294.50	0	2.8310	0	34.4490	0	27.468	0	1280.032	0	18.2	4	5.6	4	-1E+10	1	-1E+10	1	-1E+10	1	-1E+10	1	-1E+10	1	-1E+10	1
4901784	23	C	02/20/2016	10:49	-131.875	44.819	0	1299.40	0	2.8260	0	34.4490	0	27.469	0	1284.862	0	18.3	4	5.6	4	-1E+10	1	-1E+10	1	-1E+10	1	-1E+10	1	-1E+10	1	-1E+10	1
4901784	23	C	02/20/2016	10:49	-131.875	44.819	0	1305.00	0	2.8210	0	34.4500	0	27.470	0	1290.382	0	18.6	4	5.7	4	-1E+10	1	-1E+10	1	-1E+10	1	-1E+10	1	-1E+10	1	-1E+10	1
4901784	23	C	02/20/2016	10:49	-131.875	44.819	0	1310.70	0	2.8060	0	34.4520	0	27.473	0	1296.001	0	18.9	4	5.8	4	-1E+10	1	-1E+10	1	-1E+10	1	-1E+10	1	-1E+10	1	-1E+10	1
4901784	23	C	02/20/2016	10:49	-131.875	44.819	0	1315.60	0	2.7900	0	34.4550	0	27.477	0	1300.831	0	19.2	4	5.9	4	-1E+10	1	-1E+10	1	-1E+10	1	-1E+10	1	-1E+10	1	-1E+10	1
4901784	23	C	02/20/2016	10:49	-131.875	44.819	0	1320.60	0	2.7890	0	34.4560	0	27.478	0	1305.759	0	19.3	4	5.9	4	-1E+10	1	-1E+10	1	-1E+10	1	-1E+10	1	-1E+10	1	-1E+10	1
4901784	23	C	02/20/2016	10:49	-131.875	44.819	0	1325.60	0	2.7810	0	34.4570	0	27.479	0	1310.688	0	19.6	4	6.0	4	-1E+10	1	-1E+10	1	-1E+10	1	-1E+10	1	-1E+10	1	-1E+10	1
4901784	23	C	02/20/2016	10:49	-131.875	44.819	0	1329.90	0	2.7650	0	34.4600	0	27.483	0	1314.926	0	19.8	4	6.1	4	-1E+10	1	-1E+10	1	-1E+10	1	-1E+10	1	-1E+10	1	-1E+10	1
4901784	23	C	02/20/2016	10:49	-131.875	44.819	0	1334.30	0	2.7580	0	34.4610	0	27.485	0	1319.263	0	20.0	4	6.1	4	-1E+10	1	-1E+10	1	-1E+10	1	-1E+10	1	-1E+10	1	-1E+10	1
4901784	23	C	02/20/2016	10:49	-131.875	44.819	0	1339.50	0	2.7480	0	34.4630	0	27.487	0	1324.388	0	20.2	4	6.2	4	-1E+10	1	-1E+10	1	-1E+10	1	-1E+10	1	-1E+10	1	-1E+10	1
4901784	23	C	02/20/2016	10:49	-131.875	44.819	0	1344.80	0	2.7390	0	34.4660	0	27.490	0	1329.611	0	20.4	4	6.3	4	-1E+10	1	-1E+10	1	-1E+10	1	-1E+10	1	-1E+10	1	-1E+10	1
4901784	23	C	02/20/2016	10:49	-131.875	44.819	0	1350.10	0	2.7290	0	34.4680	0	27.493	0	1334.834	0	20.6	4	6.3	4	-1E+10	1	-1E+10	1	-1E+10	1	-1E+10	1	-1E+10	1	-1E+10	1
4901784	23	C	02/20/2016	10:49	-131.875	44.819	0	1355.40	0	2.7210	0	34.4690	0	27.494	0	1340.058	0	20.8	4	6.4	4	-1E+10	1	-1E+10	1	-1E+10	1	-1E+10	1	-1E+10	1	-1E+10	1
4901784	23	C	02/20/2016	10:49	-131.875	44.819	0	1360.70	0	2.7160	0	34.4700	0	27.496	0	1345.281	0	21.0	4	6.4	4	-1E+10	1	-1E+10	1	-1E+10	1	-1E+10	1	-1E+10	1	-1E+10	1
4901784	23	C	02/20/2016	10:49	-131.875	44.819	0	1365.20	0	2.7110	0	34.4710	0	27.497	0	1349.715	0	21.2	4	6.5	4	-1E+10	1	-1E+10	1	-1E+10	1	-1E+10	1	-1E+10	1	-1E+10	1
4901784	23	C	02/20/2016	10:49	-131.875	44.819	0	1369.70	0	2.7040	0	34.4710	0	27.497	0	1354.150	0	21.4	4	6.5	4	-1E+10	1	-1E+10	1	-1E+10	1	-1E+10	1	-1E+10	1	-1E+10	1
4901784	23	C	02/20/2016	10:49	-131.875	44.819	0	1375.10	0	2.6940	0	34.4730	0	27.500	0	1359.471	0	21.6	4	6.6	4	-1E+10	1	-1E+10	1	-1E+10	1	-1E+10	1	-1E+10	1	-1E+10	1
4901784	23	C	02/20/2016	10:49	-131.875	44.819	0	1380.10	0	2.6820	0	34.4740	0	27.502	0	1364.398	0	21.9	4	6.7	4	-1E+10	1	-1E+10	1	-1E+10	1	-1E+10	1	-1E+10	1	-1E+10	1
4901784	23	C	02/20/2016	10:49	-131.875	44.819	0	1385.10	0	2.6750	0	34.4740	0	27.502	0	1369.325	0	22.1	4	6.8	4	-1E+10	1	-1E+10	1	-1E+10	1	-1E+10	1	-1E+10	1	-1E+10	1
4901784	23	C	02/20/2016	10:49	-131.875	44.819	0	1390.70	0	2.6680	0	34.4770	0	27.506	0	1374.843	0	22.4	4	6.8	4	-1E+10	1	-1E+10	1	-1E+10	1	-1E+10	1	-1E+10	1	-1E+10	1
4901784	23	C	02/20/2016	10:49	-131.875	44.819	0	1395.50	0	2.6590	0	34.4780	0	27.507	0	1379.573	0	22.6	4	6.9	4	-1E+10	1	-1E+10	1	-1E+10	1	-1E+10	1	-1E+10	1	-1E+10	1
4901784	23	C	02/20/2016	10:49	-131.875	44.819	0	1400.40	0	2.6500	0	34.4790	0	27.509	0	1384.401	0	22.8	4	7.0	4	-1E+10	1	-1E+10	1	-1E+10	1	-1E+10	1	-1E+10	1	-1E+10	1
4901784	23	C	02/20/2016	10:49	-131.875	44.819	0	1405.30	0	2.6450	0	34.4800	0	27.510	0	1389.229	0	23.0	4	7.0	4	-1E+10	1	-1E+10	1	-1E+10	1	-1E+10	1	-1E+10	1	-1E+10	1
4901784	23	C	02/20/2016	10:49	-131.875	44.819	0	1410.30	0	2.6400	0	34.4810	0	27.511	0	1394.155	0	23.3	4	7.1	4	-1E+10	1	-1E+10	1	-1E+10	1	-1E+10	1	-1E+10	1	-1E+10	1
4901784	23	C	02/20/2016	10:49	-131.875	44.819	0	1415.40	0	2.6320	0	34.4830	0	27.514	0	1399.180	0	23.6	4	7.2	4	-1E+10	1	-1E+10	1	-1E+10	1	-1E+10	1	-1E+10	1	-1E+10	1
4901784	23	C	02/20/2016	10:49	-131.875	44.819	0	1420.50	0	2.6280	0	34.4840	0	27.515	0	1404.204	0	23.9	4	7.3	4	-1E+10	1	-1E+10	1	-1E+10	1	-1E+10	1	-1E+10	1	-1E+10	1
4901784	23	C	02/20/2016	10:49	-131.875	44.819	0	1425.60	0	2.6210	0	34.4840	0	27.515	0	1409.229	0	24.1	4	7.4	4	-1E+10	1	-1E+10	1	-1E+10	1	-1E+10	1	-1E+10	1	-1E+10	1
4901784	23	C	02/20/2016	10:49	-131.875	44.819	0	1430.00	0	2.6150	0	34.4850	0	27.517	0	1413.563	0	24.2	4	7.4	4	-1E+10	1	-1E+10	1	-1E+10	1	-1E+10	1	-1E+10	1	-1E+10	1
4901784	23	C	02/20/2016	10:49	-131.875	44.819	0	1434.40	0	2.6100	0	34.4860	0	27.518	0	1417.898	0	24.5	4	7.5	4	-1E+10	1	-1E+10	1	-1E+10	1	-1E+10	1	-1E+10	1	-1E+10	1
4901784	23	C	02/20/2016	10:49	-131.875	44.819	0	1439.70	0	2.6000	0	34.4870	0	27.520	0	1423.119	0	24.8	4	7.6	4	-1E+10	1	-1E+10	1	-1E+10	1	-1E+10	1	-1E+10	1	-1E+10	1
4901784	23	C	02/20/2016	10:49	-131.875	44.819	0	1445.00	0	2.5880	0	34.4880	0	27.521	0	1428.340	0	25.1	4	7.7	4	-1E+10	1	-1E+10	1	-1E+10	1	-1E+10	1	-1E+10	1	-1E+10	1
4901784	23	C	02/20/2016	10:49	-131.875	44.819	0	1450.40	0	2.5820	0	34.4890	0	27.523	0	1433.660	0	25.4	4	7.8	4	-1E+10	1	-1E+10	1	-1E+10	1	-1E+10	1	-1E+10	1	-1E+10	1
4901784	23	C	02/20/2016	10:49	-131.875	44.819	0	1454.90	0	2.5730	0	34.4910	0	27.525	0	1438.093	0	25.7	4	7.9	4	-1E+10	1	-1E+10	1	-1E+10	1	-1E+10	1	-1E+10	1	-1E+10	1
4901784	23	C	02/20/2016	10:49	-131.875	44.819	0	1459.40	0	2.5650	0	34.4910	0	27.526	0	1442.525	0	26.0	4	7.9	4	-1E+10	1	-1E+10	1	-1E+10	1	-1E+10	1	-1E+10	1	-1E+10	1
4901784	23	C	02/20/2016	10:49	-131.875	44.819	0	1464.80	0	2.5570	0	34.4920	0	27.527	0	1447.844	0	26.3	4	8.0	4	-1E+10	1	-1E+10	1	-1E+10	1	-1E+10	1	-1E+10	1	-1E+10	1
4901784	23	C	02/20/2016	10:49	-131.875	44.819	0	1470.30	0	2.5490	0	34.4930	0	27.529	0	1453.262	0	26.7	4	8.1	4	-1E+10	1	-1E+10	1	-1E+10	1	-1E+10	1	-1E+10	1	-1E+10	1
4901784	23	C	02/20/2016	10:49	-131.875	44.819	0	1474.80	0	2.5400	0	34.4950	0	27.531	0	1457.694	0	26.9	4	8.2	4	-1E+10	1	-1E+10	1	-1E+10	1	-1E+10	1	-1E+10	1	-1E+10	1
4901784	23	C	02/20/2016	10:49	-131.875	44.819	0	1479.30	0	2.5350	0	34.4950	0	27.532	0	1462.126	0	27.1	4	8.3	4	-1E+10	1	-1E+10	1	-1E+10	1	-1E+10	1	-1E+10	1	-1E+10	1
4901784	23	C	02/20/2016	10:49	-131.875	44.819	0	1485.00	0	2.5250	0	34.4960	0	27.533	0	1467.740	0	27.4	4	8.4	4	-1E+10	1	-1E+10	1	-1E+10	1	-1E+10	1	-1E+10	1	-1E+10	1
4901784	23	C	02/20/2016	10:49	-131.875	44.819	0	1490.20	0	2.5160	0	34.4980	0	27.536	0	1472.862	0	27.7	4	8.5	4	-1E+10	1	-1E+10	1	-1E+10	1	-1E+10	1	-1E+10	1	-1E+10	1
4901784	23	C	02/20/2016	10:49	-131.875	44.819	0	1494.90	0	2.5150	0	34.4980	0	27.536	0	1477.491	0	28.0	4	8.6	4	-1E+10	1	-1E+10	1	-1E+10	1	-1E+10	1	-1E+10	1	-1E+10	1
4901784	23	C	02/20/2016	10:49	-131.875	44.819	0	1499.70	0	2.5050	0	34.5000	0	27.538	0	1482.218	0	28.4	4	8.7	4	-1E+10	1	-1E+10	1	-1E+10	1	-1E+10	1	-1E+10	1	-1E+10	1
4901784	23	C	02/20/2016	10:49	-131.875	44.819	0	1504.50	0	2.5000	0	34.5010	0	27.540	0	1486.945	0	28.7	4	8.8	4	-1E+10	1	-1E+10	1	-1E+10	1	-1E+10	1	-1E+10	1	-1E+10	1
4901784	23	C	02/20/2016	10:49	-131.875	44.819	0	1509.40	0	2.4940	0	34.5020	0	27.541	0	1491.771	0	29.0	4	8.8	4	-1E+10	1	-1E+10	1	-1E+10	1	-1E+10	1	-1E+10	1	-1E+10	1
4901784	23	C	02/20/2016	10:49	-131.875	44.819	0	1514.30	0	2.4850	0	34.5020	0	27.542	0	1496.596	0	29.2	4	8.9	4	-1E+10	1	-1E+10	1	-1E+10	1	-1E+10	1	-1E+10	1	-1E+10	1
4901784	23	C	02/20/2016	10:49	-131.875	44.819	0	1519.30	0	2.4770	0	34.5040	0	27.544	0	1501.520	0	29.6	4	9.0	4	-1E+10	1	-1E+10	1	-1E+10	1	-1E+10	1	-1E+10	1	-1E+10	1
4901784	23	C	02/20/2016	10:49	-131.875	44.819	0	1524.40	0	2.4670	0	34.5050	0	27.546	0	1506.542	0	29.9	4	9.1	4	-1E+10	1	-1E+10	1	-1E+10	1	-1E+10	1	-1E+10	1	-1E+10	1
4901784	23	C	02/20/2016	10:49	-131.875	44.819	0	1529.40	0	2.4540	0	34.5060	0	27.548	0	1511.466	0	30.3	4	9.2	4	-1E+10	1	-1E+10	1	-1E+10	1	-1E+10	1	-1E+10	1	-1E+10	1
4901784	23	C	02/20/2016	10:49	-131.875	44.819	0	1534.40	0	2.4480	0	34.5070	0	27.549	0	1516.389	0	30.7	4	9.3	4	-1E+10	1	-1E+10	1	-1E+10	1	-1E+10	1	-1E+10	1	-1E+10	1
4901784	23	C	02/20/2016	10:49	-131.875	44.819	0	1539.50	0	2.4350	0	34.5080	0	27.551	0	1521.411	0	31.2	4	9.5	4	-1E+10	1	-1E+10	1	-1E+10	1	-1E+10	1	-1E+10	1	-1E+10	1
4901784	23	C	02/20/2016	10:49	-131.875	44.819	0	1544.60	0	2.4230	0	34.5090	0	27.553	0	1526.432	0	31.5	4	9.6	4	-1E+10	1	-1E+10	1	-1E+10	1	-1E+10	1	-1E+10	1	-1E+10	1
4901784	23	C	02/20/2016	10:49	-131.875	44.819	0	1549.70	0	2.4170	0	34.5110	0	27.555	0	1531.454	0	32.1	4	9.8	4	-1E+10	1	-1E+10	1	-1E+10	1	-1E+10	1	-1E+10	1	-1E+10	1
4901784	23	C	02/20/2016	10:49	-131.875	44.819	0	1554.90	0	2.4080	0	34.5120	0	27.556	0	1536.574	0	32.5	4	9.9	4	-1E+10	1	-1E+10	1	-1E+10	1	-1E+10	1	-1E+10	1	-1E+10	1
4901784	23	C	02/20/2016	10:49	-131.875	44.819	0	1560.00	0	2.3950	0	34.5140	0	27.559	0	1541.595	0	32.9	4	10.0	4	-1E+10	1	-1E+10	1	-1E+10	1	-1E+10	1	-1E+10	1	-1E+10	1
4901784	23	C	02/20/2016	10:49	-131.875	44.819	0	1565.20	0	2.3860	0	34.5150	0	27.561	0	1546.715	0	33.2	4	10.1	4	-1E+10	1	-1E+10	1	-1E+10	1	-1E+10	1	-1E+10	1	-1E+10	1
4901784	23	C	02/20/2016	10:49	-131.875	44.819	0	1570.30	0	2.3700	0	34.5160	0	27.563	0	1551.736	0	33.5	4	10.2	4	-1E+10	1	-1E+10	1	-1E+10	1	-1E+10	1	-1E+10	1	-1E+10	1
4901784	23	C	02/20/2016	10:49	-131.875	44.819	0	1575.40	0	2.3610	0	34.5170	0	27.564	0	1556.757	0	33.7	4	10.2	4	-1E+10	1	-1E+10	1	-1E+10	1	-1E+10	1	-1E+10	1	-1E+10	1
4901784	23	C	02/20/2016	10:49	-131.875	44.819	0	1580.60	0	2.3600	0	34.5170	0	27.564	0	1561.876	0	33.9	4	10.3	4	-1E+10	1	-1E+10	1	-1E+10	1	-1E+10	1	-1E+10	1	-1E+10	1
4901784	23	C	02/20/2016	10:49	-131.875	44.819	0	1585.70	0	2.3540	0	34.5180	0	27.566	0	1566.897	0	34.1	4	10.4	4	-1E+10	1	-1E+10	1	-1E+10	1	-1E+10	1	-1E+10	1	-1E+10	1
4901784	23	C	02/20/2016	10:49	-131.875	44.819	0	1590.00	0	2.3480	0	34.5180	0	27.566	0	1571.130	0	34.4	4	10.4	4	-1E+10	1	-1E+10	1	-1E+10	1	-1E+10	1	-1E+10	1	-1E+10	1
4901784	23	C	02/20/2016	10:49	-131.875	44.819	0	1594.40	0	2.3410	0	34.5190	0	27.568	0	1575.461	0	34.5	4	10.5	4	-1E+10	1	-1E+10	1	-1E+10	1	-1E+10	1	-1E+10	1	-1E+10	1
4901784	23	C	02/20/2016	10:49	-131.875	44.819	0	1599.60	0	2.3340	0	34.5190	0	27.568	0	1580.580	0	34.8	4	10.6	4	-1E+10	1	-1E+10	1	-1E+10	1	-1E+10	1	-1E+10	1	-1E+10	1
4901784	23	C	02/20/2016	10:49	-131.875	44.819	0	1604.80	0	2.3210	0	34.5190	0	27.569	0	1585.699	0	35.0	4	10.6	4	-1E+10	1	-1E+10	1	-1E+10	1	-1E+10	1	-1E+10	1	-1E+10	1
4901784	23	C	02/20/2016	10:49	-131.875	44.819	0	1610.10	0	2.3070	0	34.5210	0	27.572	0	1590.916	0	35.4	4	10.7	4	-1E+10	1	-1E+10	1	-1E+10	1	-1E+10	1	-1E+10	1	-1E+10	1
4901784	23	C	02/20/2016	10:49	-131.875	44.819	0	1615.40	0	2.2980	0	34.5220	0	27.574	0	1596.133	0	35.7	4	10.8	4	-1E+10	1	-1E+10	1	-1E+10	1	-1E+10	1	-1E+10	1	-1E+10	1
4901784	23	C	02/20/2016	10:49	-131.875	44.819	0	1619.80	0	2.2910	0	34.5220	0	27.574	0	1600.464	0	36.0	4	10.9	4	-1E+10	1	-1E+10	1	-1E+10	1	-1E+10	1	-1E+10	1	-1E+10	1
4901784	23	C	02/20/2016	10:49	-131.875	44.819	0	1624.30	0	2.2840	0	34.5230	0	27.576	0	1604.893	0	36.3	4	11.0	4	-1E+10	1	-1E+10	1	-1E+10	1	-1E+10	1	-1E+10	1	-1E+10	1
4901784	23	C	02/20/2016	10:49	-131.875	44.819	0	1629.60	0	2.2740	0	34.5240	0	27.577	0	1610.110	0	36.6	4	11.1	4	-1E+10	1	-1E+10	1	-1E+10	1	-1E+10	1	-1E+10	1	-1E+10	1
4901784	23	C	02/20/2016	10:49	-131.875	44.819	0	1635.00	0	2.2710	0	34.5250	0	27.578	0	1615.424	0	36.9	4	11.2	4	-1E+10	1	-1E+10	1	-1E+10	1	-1E+10	1	-1E+10	1	-1E+10	1
4901784	23	C	02/20/2016	10:49	-131.875	44.819	0	1640.40	0	2.2650	0	34.5260	0	27.580	0	1620.739	0	37.2	4	11.3	4	-1E+10	1	-1E+10	1	-1E+10	1	-1E+10	1	-1E+10	1	-1E+10	1
4901784	23	C	02/20/2016	10:49	-131.875	44.819	0	1644.90	0	2.2580	0	34.5270	0	27.581	0	1625.168	0	37.5	4	11.4	4	-1E+10	1	-1E+10	1	-1E+10	1	-1E+10	1	-1E+10	1	-1E+10	1
4901784	23	C	02/20/2016	10:49	-131.875	44.819	0	1649.50	0	2.2550	0	34.5270	0	27.581	0	1629.695	0	37.7	4	11.4	4	-1E+10	1	-1E+10	1	-1E+10	1	-1E+10	1	-1E+10	1	-1E+10	1
4901784	23	C	02/20/2016	10:49	-131.875	44.819	0	1655.10	0	2.2500	0	34.5280	0	27.582	0	1635.206	0	38.1	4	11.6	4	-1E+10	1	-1E+10	1	-1E+10	1	-1E+10	1	-1E+10	1	-1E+10	1
4901784	23	C	02/20/2016	10:49	-131.875	44.819	0	1660.60	0	2.2480	0	34.5290	0	27.583	0	1640.619	0	38.4	4	11.6	4	-1E+10	1	-1E+10	1	-1E+10	1	-1E+10	1	-1E+10	1	-1E+10	1
4901784	23	C	02/20/2016	10:49	-131.875	44.819	0	1665.10	0	2.2450	0	34.5300	0	27.585	0	1645.047	0	38.6	4	11.7	4	-1E+10	1	-1E+10	1	-1E+10	1	-1E+10	1	-1E+10	1	-1E+10	1
4901784	23	C	02/20/2016	10:49	-131.875	44.819	0	1669.70	0	2.2380	0	34.5300	0	27.585	0	1649.574	0	38.9	4	11.8	4	-1E+10	1	-1E+10	1	-1E+10	1	-1E+10	1	-1E+10	1	-1E+10	1
4901784	23	C	02/20/2016	10:49	-131.875	44.819	0	1675.30	0	2.2330	0	34.5310	0	27.586	0	1655.085	0	39.3	4	11.9	4	-1E+10	1	-1E+10	1	-1E+10	1	-1E+10	1	-1E+10	1	-1E+10	1
4901784	23	C	02/20/2016	10:49	-131.875	44.819	0	1679.90	0	2.2280	0	34.5330	0	27.588	0	1659.611	0	39.6	4	12.0	4	-1E+10	1	-1E+10	1	-1E+10	1	-1E+10	1	-1E+10	1	-1E+10	1
4901784	23	C	02/20/2016	10:49	-131.875	44.819	0	1684.60	0	2.2250	0	34.5330	0	27.589	0	1664.236	0	39.8	4	12.1	4	-1E+10	1	-1E+10	1	-1E+10	1	-1E+10	1	-1E+10	1	-1E+10	1
4901784	23	C	02/20/2016	10:49	-131.875	44.819	0	1690.20	0	2.2200	0	34.5340	0	27.590	0	1669.746	0	40.1	4	12.2	4	-1E+10	1	-1E+10	1	-1E+10	1	-1E+10	1	-1E+10	1	-1E+10	1
4901784	23	C	02/20/2016	10:49	-131.875	44.819	0	1694.90	0	2.2160	0	34.5340	0	27.590	0	1674.371	0	40.3	4	12.2	4	-1E+10	1	-1E+10	1	-1E+10	1	-1E+10	1	-1E+10	1	-1E+10	1
4901784	23	C	02/20/2016	10:49	-131.875	44.819	0	1699.60	0	2.2100	0	34.5350	0	27.592	0	1678.995	0	40.6	4	12.3	4	-1E+10	1	-1E+10	1	-1E+10	1	-1E+10	1	-1E+10	1	-1E+10	1
4901784	23	C	02/20/2016	10:49	-131.875	44.819	0	1705.30	0	2.2060	0	34.5360	0	27.593	0	1684.603	0	40.8	4	12.4	4	-1E+10	1	-1E+10	1	-1E+10	1	-1E+10	1	-1E+10	1	-1E+10	1
4901784	23	C	02/20/2016	10:49	-131.875	44.819	0	1710.10	0	2.2020	0	34.5360	0	27.593	0	1689.326	0	41.0	4	12.4	4	-1E+10	1	-1E+10	1	-1E+10	1	-1E+10	1	-1E+10	1	-1E+10	1
4901784	23	C	02/20/2016	10:49	-131.875	44.819	0	1714.80	0	2.1940	0	34.5370	0	27.595	0	1693.950	0	41.3	4	12.5	4	-1E+10	1	-1E+10	1	-1E+10	1	-1E+10	1	-1E+10	1	-1E+10	1
4901784	23	C	02/20/2016	10:49	-131.875	44.819	0	1720.50	0	2.1880	0	34.5380	0	27.596	0	1699.558	0	41.5	4	12.6	4	-1E+10	1	-1E+10	1	-1E+10	1	-1E+10	1	-1E+10	1	-1E+10	1
4901784	23	C	02/20/2016	10:49	-131.875	44.819	0	1725.30	0	2.1850	0	34.5390	0	27.597	0	1704.280	0	41.6	4	12.6	4	-1E+10	1	-1E+10	1	-1E+10	1	-1E+10	1	-1E+10	1	-1E+10	1
4901784	23	C	02/20/2016	10:49	-131.875	44.819	0	1730.00	0	2.1840	0	34.5390	0	27.597	0	1708.904	0	41.8	4	12.6	4	-1E+10	1	-1E+10	1	-1E+10	1	-1E+10	1	-1E+10	1	-1E+10	1
4901784	23	C	02/20/2016	10:49	-131.875	44.819	0	1735.50	0	2.1800	0	34.5390	0	27.597	0	1714.315	0	42.1	4	12.7	4	-1E+10	1	-1E+10	1	-1E+10	1	-1E+10	1	-1E+10	1	-1E+10	1
4901784	23	C	02/20/2016	10:49	-131.875	44.819	0	1740.50	0	2.1730	0	34.5400	0	27.599	0	1719.234	0	42.4	4	12.8	4	-1E+10	1	-1E+10	1	-1E+10	1	-1E+10	1	-1E+10	1	-1E+10	1
4901784	23	C	02/20/2016	10:49	-131.875	44.819	0	1745.50	0	2.1710	0	34.5410	0	27.600	0	1724.152	0	42.6	4	12.9	4	-1E+10	1	-1E+10	1	-1E+10	1	-1E+10	1	-1E+10	1	-1E+10	1
4901784	23	C	02/20/2016	10:49	-131.875	44.819	0	1750.60	0	2.1690	0	34.5410	0	27.600	0	1729.169	0	42.8	4	13.0	4	-1E+10	1	-1E+10	1	-1E+10	1	-1E+10	1	-1E+10	1	-1E+10	1
4901784	23	C	02/20/2016	10:49	-131.875	44.819	0	1755.60	0	2.1600	0	34.5420	0	27.601	0	1734.087	0	43.1	4	13.1	4	-1E+10	1	-1E+10	1	-1E+10	1	-1E+10	1	-1E+10	1	-1E+10	1
4901784	23	C	02/20/2016	10:49	-131.875	44.819	0	1760.70	0	2.1540	0	34.5430	0	27.603	0	1739.104	0	43.5	4	13.2	4	-1E+10	1	-1E+10	1	-1E+10	1	-1E+10	1	-1E+10	1	-1E+10	1
4901784	23	C	02/20/2016	10:49	-131.875	44.819	0	1765.10	0	2.1480	0	34.5440	0	27.604	0	1743.432	0	43.7	4	13.2	4	-1E+10	1	-1E+10	1	-1E+10	1	-1E+10	1	-1E+10	1	-1E+10	1
4901784	23	C	02/20/2016	10:49	-131.875	44.819	0	1769.40	0	2.1450	0	34.5440	0	27.604	0	1747.662	0	43.8	4	13.3	4	-1E+10	1	-1E+10	1	-1E+10	1	-1E+10	1	-1E+10	1	-1E+10	1
4901784	23	C	02/20/2016	10:49	-131.875	44.819	0	1774.60	0	2.1400	0	34.5450	0	27.606	0	1752.776	0	44.2	4	13.4	4	-1E+10	1	-1E+10	1	-1E+10	1	-1E+10	1	-1E+10	1	-1E+10	1
4901784	23	C	02/20/2016	10:49	-131.875	44.819	0	1779.80	0	2.1320	0	34.5460	0	27.607	0	1757.891	0	44.7	4	13.5	4	-1E+10	1	-1E+10	1	-1E+10	1	-1E+10	1	-1E+10	1	-1E+10	1
4901784	23	C	02/20/2016	10:49	-131.875	44.819	0	1785.10	0	2.1230	0	34.5470	0	27.609	0	1763.104	0	45.3	4	13.7	4	-1E+10	1	-1E+10	1	-1E+10	1	-1E+10	1	-1E+10	1	-1E+10	1
4901784	23	C	02/20/2016	10:49	-131.875	44.819	0	1790.50	0	2.1160	0	34.5480	0	27.610	0	1768.415	0	45.7	4	13.8	4	-1E+10	1	-1E+10	1	-1E+10	1	-1E+10	1	-1E+10	1	-1E+10	1
4901784	23	C	02/20/2016	10:49	-131.875	44.819	0	1795.00	0	2.1110	0	34.5490	0	27.611	0	1772.840	0	45.9	4	13.9	4	-1E+10	1	-1E+10	1	-1E+10	1	-1E+10	1	-1E+10	1	-1E+10	1
4901784	23	C	02/20/2016	10:49	-131.875	44.819	0	1799.50	0	2.1060	0	34.5500	0	27.612	0	1777.266	0	46.1	4	13.9	4	-1E+10	1	-1E+10	1	-1E+10	1	-1E+10	1	-1E+10	1	-1E+10	1
4901784	23	C	02/20/2016	10:49	-131.875	44.819	0	1804.90	0	2.1020	0	34.5500	0	27.613	0	1782.577	0	46.3	4	14.0	4	-1E+10	1	-1E+10	1	-1E+10	1	-1E+10	1	-1E+10	1	-1E+10	1
4901784	23	C	02/20/2016	10:49	-131.875	44.819	0	1810.30	0	2.0980	0	34.5510	0	27.614	0	1787.887	0	46.6	4	14.1	4	-1E+10	1	-1E+10	1	-1E+10	1	-1E+10	1	-1E+10	1	-1E+10	1
4901784	23	C	02/20/2016	10:49	-131.875	44.819	0	1814.90	0	2.0980	0	34.5510	0	27.614	0	1792.411	0	46.8	4	14.1	4	-1E+10	1	-1E+10	1	-1E+10	1	-1E+10	1	-1E+10	1	-1E+10	1
4901784	23	C	02/20/2016	10:49	-131.875	44.819	0	1819.50	0	2.0930	0	34.5520	0	27.615	0	1796.934	0	47.0	4	14.2	4	-1E+10	1	-1E+10	1	-1E+10	1	-1E+10	1	-1E+10	1	-1E+10	1
4901784	23	C	02/20/2016	10:49	-131.875	44.819	0	1825.20	0	2.0890	0	34.5520	0	27.615	0	1802.539	0	47.3	4	14.3	4	-1E+10	1	-1E+10	1	-1E+10	1	-1E+10	1	-1E+10	1	-1E+10	1
4901784	23	C	02/20/2016	10:49	-131.875	44.819	0	1829.80	0	2.0860	0	34.5530	0	27.617	0	1807.063	0	47.6	4	14.4	4	-1E+10	1	-1E+10	1	-1E+10	1	-1E+10	1	-1E+10	1	-1E+10	1
4901784	23	C	02/20/2016	10:49	-131.875	44.819	0	1834.70	0	2.0810	0	34.5540	0	27.618	0	1811.881	0	47.9	4	14.5	4	-1E+10	1	-1E+10	1	-1E+10	1	-1E+10	1	-1E+10	1	-1E+10	1
4901784	23	C	02/20/2016	10:49	-131.875	44.819	0	1839.90	0	2.0760	0	34.5550	0	27.619	0	1816.994	0	48.2	4	14.6	4	-1E+10	1	-1E+10	1	-1E+10	1	-1E+10	1	-1E+10	1	-1E+10	1
4901784	23	C	02/20/2016	10:49	-131.875	44.819	0	1844.80	0	2.0730	0	34.5550	0	27.619	0	1821.812	0	48.4	4	14.6	4	-1E+10	1	-1E+10	1	-1E+10	1	-1E+10	1	-1E+10	1	-1E+10	1
4901784	23	C	02/20/2016	10:49	-131.875	44.819	0	1849.70	0	2.0710	0	34.5550	0	27.619	0	1826.630	0	48.8	4	14.7	4	-1E+10	1	-1E+10	1	-1E+10	1	-1E+10	1	-1E+10	1	-1E+10	1
4901784	23	C	02/20/2016	10:49	-131.875	44.819	0	1854.60	0	2.0640	0	34.5560	0	27.621	0	1831.448	0	49.2	4	14.9	4	-1E+10	1	-1E+10	1	-1E+10	1	-1E+10	1	-1E+10	1	-1E+10	1
4901784	23	C	02/20/2016	10:49	-131.875	44.819	0	1859.50	0	2.0570	0	34.5570	0	27.622	0	1836.266	0	49.5	4	14.9	4	-1E+10	1	-1E+10	1	-1E+10	1	-1E+10	1	-1E+10	1	-1E+10	1
4901784	23	C	02/20/2016	10:49	-131.875	44.819	0	1864.40	0	2.0560	0	34.5570	0	27.622	0	1841.083	0	49.7	4	15.0	4	-1E+10	1	-1E+10	1	-1E+10	1	-1E+10	1	-1E+10	1	-1E+10	1
4901784	23	C	02/20/2016	10:49	-131.875	44.819	0	1869.40	0	2.0530	0	34.5580	0	27.623	0	1845.999	0	50.2	4	15.1	4	-1E+10	1	-1E+10	1	-1E+10	1	-1E+10	1	-1E+10	1	-1E+10	1
4901784	23	C	02/20/2016	10:49	-131.875	44.819	0	1874.40	0	2.0410	0	34.5600	0	27.626	0	1850.915	0	50.7	4	15.3	4	-1E+10	1	-1E+10	1	-1E+10	1	-1E+10	1	-1E+10	1	-1E+10	1
4901784	23	C	02/20/2016	10:49	-131.875	44.819	0	1879.40	0	2.0360	0	34.5600	0	27.626	0	1855.830	0	50.9	4	15.4	4	-1E+10	1	-1E+10	1	-1E+10	1	-1E+10	1	-1E+10	1	-1E+10	1
4901784	23	C	02/20/2016	10:49	-131.875	44.819	0	1884.40	0	2.0340	0	34.5610	0	27.627	0	1860.746	0	51.1	4	15.4	4	-1E+10	1	-1E+10	1	-1E+10	1	-1E+10	1	-1E+10	1	-1E+10	1
4901784	23	C	02/20/2016	10:49	-131.875	44.819	0	1889.50	0	2.0320	0	34.5610	0	27.627	0	1865.759	0	51.3	4	15.5	4	-1E+10	1	-1E+10	1	-1E+10	1	-1E+10	1	-1E+10	1	-1E+10	1
4901784	23	C	02/20/2016	10:49	-131.875	44.819	0	1894.60	0	2.0270	0	34.5620	0	27.629	0	1870.773	0	51.6	4	15.6	4	-1E+10	1	-1E+10	1	-1E+10	1	-1E+10	1	-1E+10	1	-1E+10	1
4901784	23	C	02/20/2016	10:49	-131.875	44.819	0	1899.80	0	2.0250	0	34.5620	0	27.629	0	1875.884	0	51.8	4	15.6	4	-1E+10	1	-1E+10	1	-1E+10	1	-1E+10	1	-1E+10	1	-1E+10	1
4901784	23	C	02/20/2016	10:49	-131.875	44.819	0	1904.90	0	2.0230	0	34.5630	0	27.630	0	1880.898	0	51.9	4	15.6	4	-1E+10	1	-1E+10	1	-1E+10	1	-1E+10	1	-1E+10	1	-1E+10	1
4901784	23	C	02/20/2016	10:49	-131.875	44.819	0	1910.10	0	2.0210	0	34.5630	0	27.630	0	1886.009	0	52.0	4	15.7	4	-1E+10	1	-1E+10	1	-1E+10	1	-1E+10	1	-1E+10	1	-1E+10	1
4901784	23	C	02/20/2016	10:49	-131.875	44.819	0	1915.30	0	2.0190	0	34.5630	0	27.630	0	1891.120	0	52.3	4	15.8	4	-1E+10	1	-1E+10	1	-1E+10	1	-1E+10	1	-1E+10	1	-1E+10	1
4901784	23	C	02/20/2016	10:49	-131.875	44.819	0	1920.50	0	2.0140	0	34.5640	0	27.631	0	1896.232	0	52.6	4	15.9	4	-1E+10	1	-1E+10	1	-1E+10	1	-1E+10	1	-1E+10	1	-1E+10	1
4901784	23	C	02/20/2016	10:49	-131.875	44.819	0	1925.70	0	2.0080	0	34.5650	0	27.633	0	1901.343	0	52.9	4	15.9	4	-1E+10	1	-1E+10	1	-1E+10	1	-1E+10	1	-1E+10	1	-1E+10	1
4901784	23	C	02/20/2016	10:49	-131.875	44.819	0	1930.00	0	2.0060	0	34.5660	0	27.634	0	1905.569	0	53.1	4	16.0	4	-1E+10	1	-1E+10	1	-1E+10	1	-1E+10	1	-1E+10	1	-1E+10	1
4901784	23	C	02/20/2016	10:49	-131.875	44.819	0	1934.30	0	2.0050	0	34.5660	0	27.634	0	1909.795	0	53.2	4	16.0	4	-1E+10	1	-1E+10	1	-1E+10	1	-1E+10	1	-1E+10	1	-1E+10	1
4901784	23	C	02/20/2016	10:49	-131.875	44.819	0	1939.50	0	2.0030	0	34.5660	0	27.634	0	1914.906	0	53.5	4	16.1	4	-1E+10	1	-1E+10	1	-1E+10	1	-1E+10	1	-1E+10	1	-1E+10	1
4901784	23	C	02/20/2016	10:49	-131.875	44.819	0	1944.70	0	1.9980	0	34.5670	0	27.635	0	1920.017	0	53.7	4	16.2	4	-1E+10	1	-1E+10	1	-1E+10	1	-1E+10	1	-1E+10	1	-1E+10	1
4901784	23	C	02/20/2016	10:49	-131.875	44.819	0	1949.90	0	1.9940	0	34.5670	0	27.636	0	1925.127	0	53.8	4	16.2	4	-1E+10	1	-1E+10	1	-1E+10	1	-1E+10	1	-1E+10	1	-1E+10	1
4901784	23	C	02/20/2016	10:49	-131.875	44.819	0	1955.10	0	1.9860	0	34.5680	0	27.637	0	1930.238	0	53.8	4	16.2	4	-1E+10	1	-1E+10	1	-1E+10	1	-1E+10	1	-1E+10	1	-1E+10	1
4901784	23	C	02/20/2016	10:49	-131.875	44.819	0	1960.40	0	1.9820	0	34.5680	0	27.637	0	1935.446	0	53.9	4	16.3	4	-1E+10	1	-1E+10	1	-1E+10	1	-1E+10	1	-1E+10	1	-1E+10	1
4901784	23	C	02/20/2016	10:49	-131.875	44.819	0	1964.80	0	1.9810	0	34.5680	0	27.637	0	1939.770	0	54.1	4	16.3	4	-1E+10	1	-1E+10	1	-1E+10	1	-1E+10	1	-1E+10	1	-1E+10	1
4901784	23	C	02/20/2016	10:49	-131.875	44.819	0	1969.30	0	1.9790	0	34.5690	0	27.638	0	1944.192	0	54.3	4	16.4	4	-1E+10	1	-1E+10	1	-1E+10	1	-1E+10	1	-1E+10	1	-1E+10	1
4901784	23	C	02/20/2016	10:49	-131.875	44.819	0	1974.60	0	1.9760	0	34.5690	0	27.639	0	1949.400	0	54.5	4	16.4	4	-1E+10	1	-1E+10	1	-1E+10	1	-1E+10	1	-1E+10	1	-1E+10	1
4901784	23	C	02/20/2016	10:49	-131.875	44.819	0	1980.00	0	1.9730	0	34.5700	0	27.640	0	1954.707	0	54.8	4	16.5	4	-1E+10	1	-1E+10	1	-1E+10	1	-1E+10	1	-1E+10	1	-1E+10	1
4901784	23	C	02/20/2016	10:49	-131.875	44.819	0	1985.40	0	1.9690	0	34.5700	0	27.640	0	1960.013	0	55.1	4	16.6	4	-1E+10	1	-1E+10	1	-1E+10	1	-1E+10	1	-1E+10	1	-1E+10	1
4901784	23	C	02/20/2016	10:49	-131.875	44.819	0	1989.90	0	1.9680	0	34.5710	0	27.641	0	1964.435	0	55.3	4	16.7	4	-1E+10	1	-1E+10	1	-1E+10	1	-1E+10	1	-1E+10	1	-1E+10	1
4901784	23	C	02/20/2016	10:49	-131.875	44.819	0	1994.40	0	1.9660	0	34.5710	0	27.641	0	1968.856	0	55.5	4	16.7	4	-1E+10	1	-1E+10	1	-1E+10	1	-1E+10	1	-1E+10	1	-1E+10	1
4901784	23	C	02/20/2016	10:49	-131.875	44.819	0	1999.90	0	1.9640	0	34.5720	0	27.642	0	1974.261	0	55.8	4	16.8	4	-1E+10	1	-1E+10	1	-1E+10	1	-1E+10	1	-1E+10	1	-1E+10	1
4901784	23	C	02/20/2016	10:49	-131.875	44.819	0	2005.30	0	1.9620	0	34.5730	0	27.643	0	1979.566	0	56.0	4	16.9	4	-1E+10	1	-1E+10	1	-1E+10	1	-1E+10	1	-1E+10	1	-1E+10	1
4901784	23	C	02/20/2016	10:49	-131.875	44.819	0	2010.40	0	1.9600	0	34.5730	0	27.643	0	1984.577	0	56.2	4	16.9	4	-1E+10	1	-1E+10	1	-1E+10	1	-1E+10	1	-1E+10	1	-1E+10	1
4901784	23	C	02/20/2016	10:49	-131.875	44.819	0	2014.60	0	1.9580	0	34.5730	0	27.644	0	1988.704	0	56.4	4	17.0	4	-1E+10	1	-1E+10	1	-1E+10	1	-1E+10	1	-1E+10	1	-1E+10	1
4901784	23	C	02/20/2016	10:49	-131.875	44.819	0	2019.80	0	1.9560	0	34.5740	0	27.645	0	1993.812	0	56.6	4	17.1	4	-1E+10	1	-1E+10	1	-1E+10	1	-1E+10	1	-1E+10	1	-1E+10	1
4901784	23	C	02/20/2016	10:49	-131.875	44.819	0																										
4901784	24	C	03/01/2016	10:51	-131.960	44.714	0	2.40	0	10.5500	0	32.6900	0	25.056	0	2.381	0	266.0	4	96.4	4	-1E+10	1	-1E+10	1	-1E+10	1	-1E+10	1	-1E+10	1	-1E+10	1
4901784	24	C	03/01/2016	10:51	-131.960	44.714	0	3.40	0	10.5500	0	32.6920	0	25.058	0	3.372	0	265.9	4	96.4	4	-1E+10	1	-1E+10	1	-1E+10	1	-1E+10	1	-1E+10	1	-1E+10	1
4901784	24	C	03/01/2016	10:51	-131.960	44.714	0	4.70	0	10.5530	0	32.6960	0	25.060	0	4.662	0	265.8	4	96.3	4	-1E+10	1	-1E+10	1	-1E+10	1	-1E+10	1	-1E+10	1	-1E+10	1
4901784	24	C	03/01/2016	10:51	-131.960	44.714	0	6.20	0	10.5520	0	32.6960	0	25.060	0	6.150	0	265.8	4	96.4	4	-1E+10	1	-1E+10	1	-1E+10	1	-1E+10	1	-1E+10	1	-1E+10	1
4901784	24	C	03/01/2016	10:51	-131.960	44.714	0	7.70	0	10.5530	0	32.6960	0	25.060	0	7.638	0	265.9	4	96.4	4	-1E+10	1	-1E+10	1	-1E+10	1	-1E+10	1	-1E+10	1	-1E+10	1
4901784	24	C	03/01/2016	10:51	-131.960	44.714	0	9.30	0	10.5530	0	32.6970	0	25.061	0	9.225	0	265.9	4	96.4	4	-1E+10	1	-1E+10	1	-1E+10	1	-1E+10	1	-1E+10	1	-1E+10	1
4901784	24	C	03/01/2016	10:51	-131.960	44.714	0	10.90	0	10.5570	0	32.7020	0	25.064	0	10.812	0	265.9	4	96.4	4	-1E+10	1	-1E+10	1	-1E+10	1	-1E+10	1	-1E+10	1	-1E+10	1
4901784	24	C	03/01/2016	10:51	-131.960	44.714	0	12.60	0	10.5650	0	32.7110	0	25.070	0	12.498	0	265.8	4	96.4	4	-1E+10	1	-1E+10	1	-1E+10	1	-1E+10	1	-1E+10	1	-1E+10	1
4901784	24	C	03/01/2016	10:51	-131.960	44.714	0	14.40	0	10.5650	0	32.7110	0	25.070	0	14.283	0	265.8	4	96.4	4	-1E+10	1	-1E+10	1	-1E+10	1	-1E+10	1	-1E+10	1	-1E+10	1
4901784	24	C	03/01/2016	10:51	-131.960	44.714	0	16.10	0	10.5660	0	32.7110	0	25.070	0	15.969	0	265.7	4	96.4	4	-1E+10	1	-1E+10	1	-1E+10	1	-1E+10	1	-1E+10	1	-1E+10	1
4901784	24	C	03/01/2016	10:51	-131.960	44.714	0	17.80	0	10.5680	0	32.7120	0	25.070	0	17.655	0	265.8	4	96.4	4	-1E+10	1	-1E+10	1	-1E+10	1	-1E+10	1	-1E+10	1	-1E+10	1
4901784	24	C	03/01/2016	10:51	-131.960	44.714	0	19.60	0	10.5700	0	32.7120	0	25.070	0	19.440	0	265.7	4	96.3	4	-1E+10	1	-1E+10	1	-1E+10	1	-1E+10	1	-1E+10	1	-1E+10	1
4901784	24	C	03/01/2016	10:51	-131.960	44.714	0	21.30	0	10.5690	0	32.7120	0	25.070	0	21.127	0	265.8	4	96.4	4	-1E+10	1	-1E+10	1	-1E+10	1	-1E+10	1	-1E+10	1	-1E+10	1
4901784	24	C	03/01/2016	10:51	-131.960	44.714	0	23.00	0	10.5710	0	32.7130	0	25.071	0	22.813	0	265.7	4	96.4	4	-1E+10	1	-1E+10	1	-1E+10	1	-1E+10	1	-1E+10	1	-1E+10	1
4901784	24	C	03/01/2016	10:51	-131.960	44.714	0	24.70	0	10.5720	0	32.7140	0	25.071	0	24.499	0	265.7	4	96.3	4	-1E+10	1	-1E+10	1	-1E+10	1	-1E+10	1	-1E+10	1	-1E+10	1
4901784	24	C	03/01/2016	10:51	-131.960	44.714	0	26.40	0	10.5750	0	32.7150	0	25.072	0	26.185	0	265.7	4	96.4	4	-1E+10	1	-1E+10	1	-1E+10	1	-1E+10	1	-1E+10	1	-1E+10	1
4901784	24	C	03/01/2016	10:51	-131.960	44.714	0	28.20	0	10.5750	0	32.7150	0	25.072	0	27.970	0	265.6	4	96.3	4	-1E+10	1	-1E+10	1	-1E+10	1	-1E+10	1	-1E+10	1	-1E+10	1
4901784	24	C	03/01/2016	10:51	-131.960	44.714	0	29.90	0	10.5760	0	32.7150	0	25.072	0	29.656	0	265.5	4	96.3	4	-1E+10	1	-1E+10	1	-1E+10	1	-1E+10	1	-1E+10	1	-1E+10	1
4901784	24	C	03/01/2016	10:51	-131.960	44.714	0	31.60	0	10.5760	0	32.7150	0	25.072	0	31.342	0	265.6	4	96.3	4	-1E+10	1	-1E+10	1	-1E+10	1	-1E+10	1	-1E+10	1	-1E+10	1
4901784	24	C	03/01/2016	10:51	-131.960	44.714	0	33.40	0	10.5760	0	32.7150	0	25.072	0	33.127	0	265.5	4	96.3	4	-1E+10	1	-1E+10	1	-1E+10	1	-1E+10	1	-1E+10	1	-1E+10	1
4901784	24	C	03/01/2016	10:51	-131.960	44.714	0	35.20	0	10.5760	0	32.7150	0	25.072	0	34.912	0	265.7	4	96.4	4	-1E+10	1	-1E+10	1	-1E+10	1	-1E+10	1	-1E+10	1	-1E+10	1
4901784	24	C	03/01/2016	10:51	-131.960	44.714	0	36.90	0	10.5760	0	32.7150	0	25.072	0	36.598	0	265.6	4	96.3	4	-1E+10	1	-1E+10	1	-1E+10	1	-1E+10	1	-1E+10	1	-1E+10	1
4901784	24	C	03/01/2016	10:51	-131.960	44.714	0	38.60	0	10.5760	0	32.7160	0	25.073	0	38.284	0	265.4	4	96.3	4	-1E+10	1	-1E+10	1	-1E+10	1	-1E+10	1	-1E+10	1	-1E+10	1
4901784	24	C	03/01/2016	10:51	-131.960	44.714	0	40.40	0	10.5750	0	32.7150	0	25.072	0	40.069	0	265.4	4	96.3	4	-1E+10	1	-1E+10	1	-1E+10	1	-1E+10	1	-1E+10	1	-1E+10	1
4901784	24	C	03/01/2016	10:51	-131.960	44.714	0	42.00	0	10.5760	0	32.7150	0	25.072	0	41.656	0	265.4	4	96.3	4	-1E+10	1	-1E+10	1	-1E+10	1	-1E+10	1	-1E+10	1	-1E+10	1
4901784	24	C	03/01/2016	10:51	-131.960	44.714	0	43.70	0	10.5760	0	32.7150	0	25.072	0	43.342	0	265.4	4	96.3	4	-1E+10	1	-1E+10	1	-1E+10	1	-1E+10	1	-1E+10	1	-1E+10	1
4901784	24	C	03/01/2016	10:51	-131.960	44.714	0	45.50	0	10.5760	0	32.7150	0	25.072	0	45.127	0	265.3	4	96.2	4	-1E+10	1	-1E+10	1	-1E+10	1	-1E+10	1	-1E+10	1	-1E+10	1
4901784	24	C	03/01/2016	10:51	-131.960	44.714	0	47.20	0	10.5760	0	32.7150	0	25.072	0	46.813	0	265.3	4	96.2	4	-1E+10	1	-1E+10	1	-1E+10	1	-1E+10	1	-1E+10	1	-1E+10	1
4901784	24	C	03/01/2016	10:51	-131.960	44.714	0	49.00	0	10.5770	0	32.7150	0	25.072	0	48.598	0	265.5	4	96.3	4	-1E+10	1	-1E+10	1	-1E+10	1	-1E+10	1	-1E+10	1	-1E+10	1
4901784	24	C	03/01/2016	10:51	-131.960	44.714	0	50.80	0	10.5770	0	32.7150	0	25.072	0	50.383	0	265.3	4	96.2	4	-1E+10	1	-1E+10	1	-1E+10	1	-1E+10	1	-1E+10	1	-1E+10	1
4901784	24	C	03/01/2016	10:51	-131.960	44.714	0	52.50	0	10.5760	0	32.7150	0	25.072	0	52.069	0	265.4	4	96.3	4	-1E+10	1	-1E+10	1	-1E+10	1	-1E+10	1	-1E+10	1	-1E+10	1
4901784	24	C	03/01/2016	10:51	-131.960	44.714	0	54.30	0	10.5760	0	32.7150	0	25.072	0	53.854	0	265.3	4	96.2	4	-1E+10	1	-1E+10	1	-1E+10	1	-1E+10	1	-1E+10	1	-1E+10	1
4901784	24	C	03/01/2016	10:51	-131.960	44.714	0	56.10	0	10.5770	0	32.7160	0	25.073	0	55.639	0	265.3	4	96.2	4	-1E+10	1	-1E+10	1	-1E+10	1	-1E+10	1	-1E+10	1	-1E+10	1
4901784	24	C	03/01/2016	10:51	-131.960	44.714	0	57.70	0	10.5760	0	32.7150	0	25.072	0	57.225	0	265.2	4	96.2	4	-1E+10	1	-1E+10	1	-1E+10	1	-1E+10	1	-1E+10	1	-1E+10	1
4901784	24	C	03/01/2016	10:51	-131.960	44.714	0	59.50	0	10.5770	0	32.7150	0	25.072	0	59.010	0	265.3	4	96.2	4	-1E+10	1	-1E+10	1	-1E+10	1	-1E+10	1	-1E+10	1	-1E+10	1
4901784	24	C	03/01/2016	10:51	-131.960	44.714	0	61.30	0	10.5770	0	32.7150	0	25.072	0	60.795	0	265.3	4	96.2	4	-1E+10	1	-1E+10	1	-1E+10	1	-1E+10	1	-1E+10	1	-1E+10	1
4901784	24	C	03/01/2016	10:51	-131.960	44.714	0	63.00	0	10.5770	0	32.7150	0	25.072	0	62.481	0	265.4	4	96.2	4	-1E+10	1	-1E+10	1	-1E+10	1	-1E+10	1	-1E+10	1	-1E+10	1
4901784	24	C	03/01/2016	10:51	-131.960	44.714	0	64.80	0	10.5770	0	32.7150	0	25.072	0	64.266	0	265.3	4	96.2	4	-1E+10	1	-1E+10	1	-1E+10	1	-1E+10	1	-1E+10	1	-1E+10	1
4901784	24	C	03/01/2016	10:51	-131.960	44.714	0	66.50	0	10.5770	0	32.7150	0	25.072	0	65.951	0	265.1	4	96.2	4	-1E+10	1	-1E+10	1	-1E+10	1	-1E+10	1	-1E+10	1	-1E+10	1
4901784	24	C	03/01/2016	10:51	-131.960	44.714	0	68.30	0	10.5780	0	32.7150	0	25.072	0	67.736	0	265.0	4	96.1	4	-1E+10	1	-1E+10	1	-1E+10	1	-1E+10	1	-1E+10	1	-1E+10	1
4901784	24	C	03/01/2016	10:51	-131.960	44.714	0	70.00	0	10.5780	0	32.7150	0	25.072	0	69.422	0	264.9	4	96.1	4	-1E+10	1	-1E+10	1	-1E+10	1	-1E+10	1	-1E+10	1	-1E+10	1
4901784	24	C	03/01/2016	10:51	-131.960	44.714	0	71.80	0	10.5770	0	32.7160	0	25.073	0	71.207	0	264.8	4	96.1	4	-1E+10	1	-1E+10	1	-1E+10	1	-1E+10	1	-1E+10	1	-1E+10	1
4901784	24	C	03/01/2016	10:51	-131.960	44.714	0	73.50	0	10.5780	0	32.7150	0	25.072	0	72.892	0	264.7	4	96.0	4	-1E+10	1	-1E+10	1	-1E+10	1	-1E+10	1	-1E+10	1	-1E+10	1
4901784	24	C	03/01/2016	10:51	-131.960	44.714	0	75.20	0	10.5780	0	32.7150	0	25.072	0	74.578	0	264.6	4	96.0	4	-1E+10	1	-1E+10	1	-1E+10	1	-1E+10	1	-1E+10	1	-1E+10	1
4901784	24	C	03/01/2016	10:51	-131.960	44.714	0	77.00	0	10.5780	0	32.7150	0	25.072	0	76.363	0	264.4	4	95.9	4	-1E+10	1	-1E+10	1	-1E+10	1	-1E+10	1	-1E+10	1	-1E+10	1
4901784	24	C	03/01/2016	10:51	-131.960	44.714	0	78.70	0	10.5790	0	32.7150	0	25.072	0	78.048	0	264.1	4	95.8	4	-1E+10	1	-1E+10	1	-1E+10	1	-1E+10	1	-1E+10	1	-1E+10	1
4901784	24	C	03/01/2016	10:51	-131.960	44.714	0	80.40	0	10.5780	0	32.7150	0	25.072	0	79.734	0	263.8	4	95.7	4	-1E+10	1	-1E+10	1	-1E+10	1	-1E+10	1	-1E+10	1	-1E+10	1
4901784	24	C	03/01/2016	10:51	-131.960	44.714	0	82.10	0	10.5730	0	32.7160	0	25.074	0	81.420	0	263.3	4	95.5	4	-1E+10	1	-1E+10	1	-1E+10	1	-1E+10	1	-1E+10	1	-1E+10	1
4901784	24	C	03/01/2016	10:51	-131.960	44.714	0	83.90	0	10.5690	0	32.7180	0	25.076	0	83.204	0	262.8	4	95.3	4	-1E+10	1	-1E+10	1	-1E+10	1	-1E+10	1	-1E+10	1	-1E+10	1
4901784	24	C	03/01/2016	10:51	-131.960	44.714	0	85.50	0	10.5610	0	32.7200	0	25.079	0	84.791	0	262.4	4	95.1	4	-1E+10	1	-1E+10	1	-1E+10	1	-1E+10	1	-1E+10	1	-1E+10	1
4901784	24	C	03/01/2016	10:51	-131.960	44.714	0	87.30	0	10.5540	0	32.7220	0	25.082	0	86.575	0	261.9	4	95.0	4	-1E+10	1	-1E+10	1	-1E+10	1	-1E+10	1	-1E+10	1	-1E+10	1
4901784	24	C	03/01/2016	10:51	-131.960	44.714	0	88.90	0	10.5470	0	32.7230	0	25.084	0	88.162	0	260.9	4	94.6	4	-1E+10	1	-1E+10	1	-1E+10	1	-1E+10	1	-1E+10	1	-1E+10	1
4901784	24	C	03/01/2016	10:51	-131.960	44.714	0	90.60	0	10.5340	0	32.7260	0	25.089	0	89.847	0	260.1	4	94.3	4	-1E+10	1	-1E+10	1	-1E+10	1	-1E+10	1	-1E+10	1	-1E+10	1
4901784	24	C	03/01/2016	10:51	-131.960	44.714	0	92.30	0	10.5160	0	32.7300	0	25.095	0	91.533	0	259.0	4	93.8	4	-1E+10	1	-1E+10	1	-1E+10	1	-1E+10	1	-1E+10	1	-1E+10	1
4901784	24	C	03/01/2016	10:51	-131.960	44.714	0	94.00	0	10.4570	0	32.7420	0	25.114	0	93.218	0	258.3	4	93.5	4	-1E+10	1	-1E+10	1	-1E+10	1	-1E+10	1	-1E+10	1	-1E+10	1
4901784	24	C	03/01/2016	10:51	-131.960	44.714	0	95.80	0	10.4320	0	32.7460	0	25.122	0	95.003	0	257.3	4	93.1	4	-1E+10	1	-1E+10	1	-1E+10	1	-1E+10	1	-1E+10	1	-1E+10	1
4901784	24	C	03/01/2016	10:51	-131.960	44.714	0	97.60	0	10.4200	0	32.7510	0	25.128	0	96.787	0	255.6	4	92.4	4	-1E+10	1	-1E+10	1	-1E+10	1	-1E+10	1	-1E+10	1	-1E+10	1
4901784	24	C	03/01/2016	10:51	-131.960	44.714	0	99.40	0	10.3830	0	32.7590	0	25.140	0	98.572	0	254.1	4	91.8	4	-1E+10	1	-1E+10	1	-1E+10	1	-1E+10	1	-1E+10	1	-1E+10	1
4901784	24	C	03/01/2016	10:51	-131.960	44.714	0	102.20	0	10.3180	0	32.7760	0	25.165	0	101.348	0	251.9	4	90.9	4	-1E+10	1	-1E+10	1	-1E+10	1	-1E+10	1	-1E+10	1	-1E+10	1
4901784	24	C	03/01/2016	10:51	-131.960	44.714	0	104.90	0	10.2820	0	32.7850	0	25.178	0	104.025	0	249.2	4	89.9	4	-1E+10	1	-1E+10	1	-1E+10	1	-1E+10	1	-1E+10	1	-1E+10	1
4901784	24	C	03/01/2016	10:51	-131.960	44.714	0	107.50	0	10.1390	0	32.8210	0	25.230	0	106.602	0	246.2	4	88.5	4	-1E+10	1	-1E+10	1	-1E+10	1	-1E+10	1	-1E+10	1	-1E+10	1
4901784	24	C	03/01/2016	10:51	-131.960	44.714	0	110.20	0	10.0640	0	32.8680	0	25.279	0	109.279	0	244.2	4	87.7	4	-1E+10	1	-1E+10	1	-1E+10	1	-1E+10	1	-1E+10	1	-1E+10	1
4901784	24	C	03/01/2016	10:51	-131.960	44.714	0	112.50	0	10.0390	0	32.8790	0	25.292	0	111.559	0	243.3	4	87.3	4	-1E+10	1	-1E+10	1	-1E+10	1	-1E+10	1	-1E+10	1	-1E+10	1
4901784	24	C	03/01/2016	10:51	-131.960	44.714	0	115.00	0	10.0240	0	32.8840	0	25.299	0	114.038	0	241.5	4	86.6	4	-1E+10	1	-1E+10	1	-1E+10	1	-1E+10	1	-1E+10	1	-1E+10	1
4901784	24	C	03/01/2016	10:51	-131.960	44.714	0	118.00	0	9.9920	0	32.8960	0	25.313	0	117.012	0	238.2	4	85.4	4	-1E+10	1	-1E+10	1	-1E+10	1	-1E+10	1	-1E+10	1	-1E+10	1
4901784	24	C	03/01/2016	10:51	-131.960	44.714	0	120.30	0	9.9420	0	32.9190	0	25.340	0	119.292	0	235.1	4	84.3	4	-1E+10	1	-1E+10	1	-1E+10	1	-1E+10	1	-1E+10	1	-1E+10	1
4901784	24	C	03/01/2016	10:51	-131.960	44.714	0	122.50	0	9.9000	0	32.9350	0	25.359	0	121.473	0	231.3	4	82.8	4	-1E+10	1	-1E+10	1	-1E+10	1	-1E+10	1	-1E+10	1	-1E+10	1
4901784	24	C	03/01/2016	10:51	-131.960	44.714	0	125.50	0	9.7660	0	32.9830	0	25.419	0	124.447	0	225.2	4	80.4	4	-1E+10	1	-1E+10	1	-1E+10	1	-1E+10	1	-1E+10	1	-1E+10	1
4901784	24	C	03/01/2016	10:51	-131.960	44.714	0	127.80	0	9.5890	0	33.0490	0	25.499	0	126.727	0	221.6	4	78.9	4	-1E+10	1	-1E+10	1	-1E+10	1	-1E+10	1	-1E+10	1	-1E+10	1
4901784	24	C	03/01/2016	10:51	-131.960	44.714	0	130.30	0	9.4930	0	33.0980	0	25.553	0	129.205	0	218.8	4	77.7	4	-1E+10	1	-1E+10	1	-1E+10	1	-1E+10	1	-1E+10	1	-1E+10	1
4901784	24	C	03/01/2016	10:51	-131.960	44.714	0	132.30	0	9.4280	0	33.1290	0	25.588	0	131.187	0	216.3	4	76.8	4	-1E+10	1	-1E+10	1	-1E+10	1	-1E+10	1	-1E+10	1	-1E+10	1
4901784	24	C	03/01/2016	10:51	-131.960	44.714	0	135.00	0	9.3360	0	33.1690	0	25.634	0	133.864	0	212.4	4	75.3	4	-1E+10	1	-1E+10	1	-1E+10	1	-1E+10	1	-1E+10	1	-1E+10	1
4901784	24	C	03/01/2016	10:51	-131.960	44.714	0	137.70	0	9.2200	0	33.2110	0	25.685	0	136.540	0	208.4	4	73.6	4	-1E+10	1	-1E+10	1	-1E+10	1	-1E+10	1	-1E+10	1	-1E+10	1
4901784	24	C	03/01/2016	10:51	-131.960	44.714	0	139.90	0	9.1210	0	33.2410	0	25.725	0	138.721	0	205.1	4	72.3	4	-1E+10	1	-1E+10	1	-1E+10	1	-1E+10	1	-1E+10	1	-1E+10	1
4901784	24	C	03/01/2016	10:51	-131.960	44.714	0	142.30	0	8.9300	0	33.3120	0	25.810	0	141.100	0	202.5	4	71.2	4	-1E+10	1	-1E+10	1	-1E+10	1	-1E+10	1	-1E+10	1	-1E+10	1
4901784	24	C	03/01/2016	10:51	-131.960	44.714	0	144.70	0	8.7910	0	33.3720	0	25.879	0	143.479	0	201.0	4	70.5	4	-1E+10	1	-1E+10	1	-1E+10	1	-1E+10	1	-1E+10	1	-1E+10	1
4901784	24	C	03/01/2016	10:51	-131.960	44.714	0	147.00	0	8.7180	0	33.4050	0	25.916	0	145.759	0	199.2	4	69.7	4	-1E+10	1	-1E+10	1	-1E+10	1	-1E+10	1	-1E+10	1	-1E+10	1
4901784	24	C	03/01/2016	10:51	-131.960	44.714	0	150.00	0	8.5570	0	33.4790	0	25.999	0	148.732	0	197.6	4	68.9	4	-1E+10	1	-1E+10	1	-1E+10	1	-1E+10	1	-1E+10	1	-1E+10	1
4901784	24	C	03/01/2016	10:51	-131.960	44.714	0	152.40	0	8.4710	0	33.5190	0	26.043	0	151.111	0	196.6	4	68.5	4	-1E+10	1	-1E+10	1	-1E+10	1	-1E+10	1	-1E+10	1	-1E+10	1
4901784	24	C	03/01/2016	10:51	-131.960	44.714	0	154.80	0	8.4480	0	33.5290	0	26.054	0	153.490	0	195.8	4	68.2	4	-1E+10	1	-1E+10	1	-1E+10	1	-1E+10	1	-1E+10	1	-1E+10	1
4901784	24	C	03/01/2016	10:51	-131.960	44.714	0	157.20	0	8.4100	0	33.5480	0	26.075	0	155.869	0	194.5	4	67.7	4	-1E+10	1	-1E+10	1	-1E+10	1	-1E+10	1	-1E+10	1	-1E+10	1
4901784	24	C	03/01/2016	10:51	-131.960	44.714	0	159.70	0	8.3600	0	33.5730	0	26.102	0	158.347	0	193.3	4	67.2	4	-1E+10	1	-1E+10	1	-1E+10	1	-1E+10	1	-1E+10	1	-1E+10	1
4901784	24	C	03/01/2016	10:51	-131.960	44.714	0	162.20	0	8.2820	0	33.6160	0	26.148	0	160.824	0	192.3	4	66.8	4	-1E+10	1	-1E+10	1	-1E+10	1	-1E+10	1	-1E+10	1	-1E+10	1
4901784	24	C	03/01/2016	10:51	-131.960	44.714	0	164.80	0	8.2650	0	33.6320	0	26.163	0	163.401	0	191.6	4	66.5	4	-1E+10	1	-1E+10	1	-1E+10	1	-1E+10	1	-1E+10	1	-1E+10	1
4901784	24	C	03/01/2016	10:51	-131.960	44.714	0	167.30	0	8.2650	0	33.6410	0	26.170	0	165.879	0	190.5	4	66.1	4	-1E+10	1	-1E+10	1	-1E+10	1	-1E+10	1	-1E+10	1	-1E+10	1
4901784	24	C	03/01/2016	10:51	-131.960	44.714	0	169.90	0	8.2580	0	33.6810	0	26.202	0	168.456	0	189.3	4	65.7	4	-1E+10	1	-1E+10	1	-1E+10	1	-1E+10	1	-1E+10	1	-1E+10	1
4901784	24	C	03/01/2016	10:51	-131.960	44.714	0	172.40	0	8.2260	0	33.6970	0	26.220	0	170.934	0	188.6	4	65.5	4	-1E+10	1	-1E+10	1	-1E+10	1	-1E+10	1	-1E+10	1	-1E+10	1
4901784	24	C	03/01/2016	10:51	-131.960	44.714	0	174.90	0	8.1940	0	33.7130	0	26.237	0	173.411	0	188.0	4	65.2	4	-1E+10	1	-1E+10	1	-1E+10	1	-1E+10	1	-1E+10	1	-1E+10	1
4901784	24	C	03/01/2016	10:51	-131.960	44.714	0	177.40	0	8.1540	0	33.7320	0	26.258	0	175.889	0	187.3	4	64.9	4	-1E+10	1	-1E+10	1	-1E+10	1	-1E+10	1	-1E+10	1	-1E+10	1
4901784	24	C	03/01/2016	10:51	-131.960	44.714	0	180.00	0	8.0630	0	33.7550	0	26.290	0	178.466	0	186.9	4	64.6	4	-1E+10	1	-1E+10	1	-1E+10	1	-1E+10	1	-1E+10	1	-1E+10	1
4901784	24	C	03/01/2016	10:51	-131.960	44.714	0	182.60	0	8.0210	0	33.7800	0	26.316	0	181.042	0	186.0	4	64.3	4	-1E+10	1	-1E+10	1	-1E+10	1	-1E+10	1	-1E+10	1	-1E+10	1
4901784	24	C	03/01/2016	10:51	-131.960	44.714	0	185.30	0	8.0040	0	33.7850	0	26.322	0	183.718	0	185.0	4	63.9	4	-1E+10	1	-1E+10	1	-1E+10	1	-1E+10	1	-1E+10	1	-1E+10	1
4901784	24	C	03/01/2016	10:51	-131.960	44.714	0	188.00	0	7.9790	0	33.7910	0	26.330	0	186.394	0	183.9	4	63.5	4	-1E+10	1	-1E+10	1	-1E+10	1	-1E+10	1	-1E+10	1	-1E+10	1
4901784	24	C	03/01/2016	10:51	-131.960	44.714	0	189.80	0	7.9420	0	33.8010	0	26.344	0	188.178	0	183.4	4	63.3	4	-1E+10	1	-1E+10	1	-1E+10	1	-1E+10	1	-1E+10	1	-1E+10	1
4901784	24	C	03/01/2016	10:51	-131.960	44.714	0	192.50	0	7.9020	0	33.8090	0	26.356	0	190.853	0	182.6	4	62.9	4	-1E+10	1	-1E+10	1	-1E+10	1	-1E+10	1	-1E+10	1	-1E+10	1
4901784	24	C	03/01/2016	10:51	-131.960	44.714	0	195.10	0	7.8640	0	33.8140	0	26.365	0	193.430	0	182.0	4	62.7	4	-1E+10	1	-1E+10	1	-1E+10	1	-1E+10	1	-1E+10	1	-1E+10	1
4901784	24	C	03/01/2016	10:51	-131.960	44.714	0	197.70	0	7.8510	0	33.8150	0	26.368	0	196.007	0	181.3	4	62.4	4	-1E+10	1	-1E+10	1	-1E+10	1	-1E+10	1	-1E+10	1	-1E+10	1
4901784	24	C	03/01/2016	10:51	-131.960	44.714	0	200.30	0	7.8320	0	33.8160	0	26.372	0	198.583	0	180.4	4	62.1	4	-1E+10	1	-1E+10	1	-1E+10	1	-1E+10	1	-1E+10	1	-1E+10	1
4901784	24	C	03/01/2016	10:51	-131.960	44.714	0	202.10	0	7.7700	0	33.8270	0	26.389	0	200.367	0	179.3	4	61.7	4	-1E+10	1	-1E+10	1	-1E+10	1	-1E+10	1	-1E+10	1	-1E+10	1
4901784	24	C	03/01/2016	10:51	-131.960	44.714	0	204.70	0	7.7350	0	33.8320	0	26.398	0	202.943	0	177.4	4	61.0	4	-1E+10	1	-1E+10	1	-1E+10	1	-1E+10	1	-1E+10	1	-1E+10	1
4901784	24	C	03/01/2016	10:51	-131.960	44.714	0	207.40	0	7.6690	0	33.8400	0	26.414	0	205.619	0	174.6	4	59.9	4	-1E+10	1	-1E+10	1	-1E+10	1	-1E+10	1	-1E+10	1	-1E+10	1
4901784	24	C	03/01/2016	10:51	-131.960	44.714	0	210.10	0	7.5920	0	33.8500	0	26.433	0	208.294	0	173.4	4	59.4	4	-1E+10	1	-1E+10	1	-1E+10	1	-1E+10	1	-1E+10	1	-1E+10	1
4901784	24	C	03/01/2016	10:51	-131.960	44.714	0	212.90	0	7.5670	0	33.8520	0	26.438	0	211.069	0	172.3	4	59.0	4	-1E+10	1	-1E+10	1	-1E+10	1	-1E+10	1	-1E+10	1	-1E+10	1
4901784	24	C	03/01/2016	10:51	-131.960	44.714	0	214.70	0	7.5620	0	33.8520	0	26.439	0	212.852	0	171.4	4	58.7	4	-1E+10	1	-1E+10	1	-1E+10	1	-1E+10	1	-1E+10	1	-1E+10	1
4901784	24	C	03/01/2016	10:51	-131.960	44.714	0	217.40	0	7.5460	0	33.8520	0	26.441	0	215.527	0	169.8	4	58.1	4	-1E+10	1	-1E+10	1	-1E+10	1	-1E+10	1	-1E+10	1	-1E+10	1
4901784	24	C	03/01/2016	10:51	-131.960	44.714	0	220.20	0	7.5100	0	33.8510	0	26.446	0	218.302	0	167.5	4	57.3	4	-1E+10	1	-1E+10	1	-1E+10	1	-1E+10	1	-1E+10	1	-1E+10	1
4901784	24	C	03/01/2016	10:51	-131.960	44.714	0	222.00	0	7.4750	0	33.8530	0	26.452	0	220.085	0	165.9	4	56.7	4	-1E+10	1	-1E+10	1	-1E+10	1	-1E+10	1	-1E+10	1	-1E+10	1
4901784	24	C	03/01/2016	10:51	-131.960	44.714	0	224.80	0	7.3420	0	33.8610	0	26.477	0	222.860	0	163.9	4	55.8	4	-1E+10	1	-1E+10	1	-1E+10	1	-1E+10	1	-1E+10	1	-1E+10	1
4901784	24	C	03/01/2016	10:51	-131.960	44.714	0	227.60	0	7.2930	0	33.8610	0	26.484	0	225.634	0	162.3	4	55.2	4	-1E+10	1	-1E+10	1	-1E+10	1	-1E+10	1	-1E+10	1	-1E+10	1
4901784	24	C	03/01/2016	10:51	-131.960	44.714	0	229.50	0	7.2500	0	33.8600	0	26.489	0	227.517	0	160.9	4	54.7	4	-1E+10	1	-1E+10	1	-1E+10	1	-1E+10	1	-1E+10	1	-1E+10	1
4901784	24	C	03/01/2016	10:51	-131.960	44.714	0	232.50	0	7.1410	0	33.8660	0	26.509	0	230.489	0	159.5	4	54.1	4	-1E+10	1	-1E+10	1	-1E+10	1	-1E+10	1	-1E+10	1	-1E+10	1
4901784	24	C	03/01/2016	10:51	-131.960	44.714	0	234.90	0	7.1210	0	33.8650	0	26.511	0	232.867	0	158.3	4	53.6	4	-1E+10	1	-1E+10	1	-1E+10	1	-1E+10	1	-1E+10	1	-1E+10	1
4901784	24	C	03/01/2016	10:51	-131.960	44.714	0	237.30	0	7.0970	0	33.8640	0	26.514	0	235.245	0	156.5	4	53.0	4	-1E+10	1	-1E+10	1	-1E+10	1	-1E+10	1	-1E+10	1	-1E+10	1
4901784	24	C	03/01/2016	10:51	-131.960	44.714	0	239.70	0	7.0250	0	33.8670	0	26.526	0	237.623	0	154.5	4	52.2	4	-1E+10	1	-1E+10	1	-1E+10	1	-1E+10	1	-1E+10	1	-1E+10	1
4901784	24	C	03/01/2016	10:51	-131.960	44.714	0	242.90	0	6.9800	0	33.8670	0	26.532	0	240.793	0	151.5	4	51.2	4	-1E+10	1	-1E+10	1	-1E+10	1	-1E+10	1	-1E+10	1	-1E+10	1
4901784	24	C	03/01/2016	10:51	-131.960	44.714	0	245.40	0	6.9270	0	33.8680	0	26.540	0	243.270	0	148.7	4	50.2	4	-1E+10	1	-1E+10	1	-1E+10	1	-1E+10	1	-1E+10	1	-1E+10	1
4901784	24	C	03/01/2016	10:51	-131.960	44.714	0	247.90	0	6.8420	0	33.8680	0	26.552	0	245.747	0	146.3	4	49.3	4	-1E+10	1	-1E+10	1	-1E+10	1	-1E+10	1	-1E+10	1	-1E+10	1
4901784	24	C	03/01/2016	10:51	-131.960	44.714	0	250.40	0	6.7450	0	33.8720	0	26.568	0	248.223	0	143.5	4	48.2	4	-1E+10	1	-1E+10	1	-1E+10	1	-1E+10	1	-1E+10	1	-1E+10	1
4901784	24	C	03/01/2016	10:51	-131.960	44.714	0	252.90	0	6.7220	0	33.8720	0	26.571	0	250.700	0	142.2	4	47.7	4	-1E+10	1	-1E+10	1	-1E+10	1	-1E+10	1	-1E+10	1	-1E+10	1
4901784	24	C	03/01/2016	10:51	-131.960	44.714	0	255.50	0	6.7090	0	33.8740	0	26.574	0	253.276	0	140.4	4	47.1	4	-1E+10	1	-1E+10	1	-1E+10	1	-1E+10	1	-1E+10	1	-1E+10	1
4901784	24	C	03/01/2016	10:51	-131.960	44.714	0	257.10	0	6.6890	0	33.8710	0	26.575	0	254.861	0	138.9	4	46.6	4	-1E+10	1	-1E+10	1	-1E+10	1	-1E+10	1	-1E+10	1	-1E+10	1
4901784	24	C	03/01/2016	10:51	-131.960	44.714	0	259.70	0	6.6640	0	33.8710	0	26.578	0	257.437	0	136.5	4	45.8	4	-1E+10	1	-1E+10	1	-1E+10	1	-1E+10	1	-1E+10	1	-1E+10	1
4901784	24	C	03/01/2016	10:51	-131.960	44.714	0	262.30	0	6.6250	0	33.8760	0	26.587	0	260.013	0	133.0	4	44.6	4	-1E+10	1	-1E+10	1	-1E+10	1	-1E+10	1	-1E+10	1	-1E+10	1
4901784	24	C	03/01/2016	10:51	-131.960	44.714	0	264.90	0	6.5850	0	33.8760	0	26.592	0	262.588	0	130.4	4	43.7	4	-1E+10	1	-1E+10	1	-1E+10	1	-1E+10	1	-1E+10	1	-1E+10	1
4901784	24	C	03/01/2016	10:51	-131.960	44.714	0	267.50	0	6.5620	0	33.8770	0	26.596	0	265.164	0	128.5	4	43.0	4	-1E+10	1	-1E+10	1	-1E+10	1	-1E+10	1	-1E+10	1	-1E+10	1
4901784	24	C	03/01/2016	10:51	-131.960	44.714	0	270.10	0	6.5330	0	33.8790	0	26.602	0	267.740	0	126.3	4	42.2	4	-1E+10	1	-1E+10	1	-1E+10	1	-1E+10	1	-1E+10	1	-1E+10	1
4901784	24	C	03/01/2016	10:51	-131.960	44.714	0	272.80	0	6.5020	0	33.8810	0	26.607	0	270.414	0	124.8	4	41.7	4	-1E+10	1	-1E+10	1	-1E+10	1	-1E+10	1	-1E+10	1	-1E+10	1
4901784	24	C	03/01/2016	10:51	-131.960	44.714	0	274.60	0	6.4940	0	33.8810	0	26.608	0	272.197	0	123.9	4	41.4	4	-1E+10	1	-1E+10	1	-1E+10	1	-1E+10	1	-1E+10	1	-1E+10	1
4901784	24	C	03/01/2016	10:51	-131.960	44.714	0	277.20	0	6.4760	0	33.8830	0	26.612	0	274.773	0	122.4	4	40.9	4	-1E+10	1	-1E+10	1	-1E+10	1	-1E+10	1	-1E+10	1	-1E+10	1
4901784	24	C	03/01/2016	10:51	-131.960	44.714	0	279.90	0	6.4480	0	33.8850	0	26.618	0	277.447	0	120.9	4	40.3	4	-1E+10	1	-1E+10	1	-1E+10	1	-1E+10	1	-1E+10	1	-1E+10	1
4901784	24	C	03/01/2016	10:51	-131.960	44.714	0	282.50	0	6.4340	0	33.8850	0	26.619	0	280.023	0	119.4	4	39.8	4	-1E+10	1	-1E+10	1	-1E+10	1	-1E+10	1	-1E+10	1	-1E+10	1
4901784	24	C	03/01/2016	10:51	-131.960	44.714	0	285.10	0	6.4140	0	33.8850	0	26.622	0	282.598	0	117.8	4	39.3	4	-1E+10	1	-1E+10	1	-1E+10	1	-1E+10	1	-1E+10	1	-1E+10	1
4901784	24	C	03/01/2016	10:51	-131.960	44.714	0	287.80	0	6.3930	0	33.8860	0	26.626	0	285.273	0	116.2	4	38.7	4	-1E+10	1	-1E+10	1	-1E+10	1	-1E+10	1	-1E+10	1	-1E+10	1
4901784	24	C	03/01/2016	10:51	-131.960	44.714	0	290.50	0	6.3530	0	33.8890	0	26.633	0	287.947	0	114.9	4	38.3	4	-1E+10	1	-1E+10	1	-1E+10	1	-1E+10	1	-1E+10	1	-1E+10	1
4901784	24	C	03/01/2016	10:51	-131.960	44.714	0	292.30	0	6.3240	0	33.8890	0	26.637	0	289.730	0	114.0	4	37.9	4	-1E+10	1	-1E+10	1	-1E+10	1	-1E+10	1	-1E+10	1	-1E+10	1
4901784	24	C	03/01/2016	10:51	-131.960	44.714	0	294.90	0	6.3060	0	33.8900	0	26.640	0	292.305	0	112.8	4	37.5	4	-1E+10	1	-1E+10	1	-1E+10	1	-1E+10	1	-1E+10	1	-1E+10	1
4901784	24	C	03/01/2016	10:51	-131.960	44.714	0	297.50	0	6.2910	0	33.8910	0	26.643	0	294.881	0	111.3	4	37.0	4	-1E+10	1	-1E+10	1	-1E+10	1	-1E+10	1	-1E+10	1	-1E+10	1
4901784	24	C	03/01/2016	10:51	-131.960	44.714	0	300.20	0	6.2670	0	33.8920	0	26.647	0	297.555	0	109.7	4	36.5	4	-1E+10	1	-1E+10	1	-1E+10	1	-1E+10	1	-1E+10	1	-1E+10	1
4901784	24	C	03/01/2016	10:51	-131.960	44.714	0	302.90	0	6.2540	0	33.8930	0	26.649	0	300.229	0	107.8	4	35.8	4	-1E+10	1	-1E+10	1	-1E+10	1	-1E+10	1	-1E+10	1	-1E+10	1
4901784	24	C	03/01/2016	10:51	-131.960	44.714	0	304.60	0	6.2420	0	33.8930	0	26.651	0	301.913	0	106.4	4	35.3	4	-1E+10	1	-1E+10	1	-1E+10	1	-1E+10	1	-1E+10	1	-1E+10	1
4901784	24	C	03/01/2016	10:51	-131.960	44.714	0	307.30	0	6.2150	0	33.8930	0	26.654	0	304.587	0	103.4	4	34.3	4	-1E+10	1	-1E+10	1	-1E+10	1	-1E+10	1	-1E+10	1	-1E+10	1
4901784	24	C	03/01/2016	10:51	-131.960	44.714	0	309.90	0	6.1650	0	33.9010	0	26.667	0	307.162	0	100.8	4	33.4	4	-1E+10	1	-1E+10	1	-1E+10	1	-1E+10	1	-1E+10	1	-1E+10	1
4901784	24	C	03/01/2016	10:51	-131.960	44.714	0	312.60	0	6.1550	0	33.9030	0	26.670	0	309.836	0	99.1	4	32.8	4	-1E+10	1	-1E+10	1	-1E+10	1	-1E+10	1	-1E+10	1	-1E+10	1
4901784	24	C	03/01/2016	10:51	-131.960	44.714	0	315.20	0	6.1560	0	33.9060	0	26.672	0	312.411	0	97.9	4	32.5	4	-1E+10	1	-1E+10	1	-1E+10	1	-1E+10	1	-1E+10	1	-1E+10	1
4901784	24	C	03/01/2016	10:51	-131.960	44.714	0	317.00	0	6.1490	0	33.9050	0	26.672	0	314.194	0	97.3	4	32.3	4	-1E+10	1	-1E+10	1	-1E+10	1	-1E+10	1	-1E+10	1	-1E+10	1
4901784	24	C	03/01/2016	10:51	-131.960	44.714	0	319.70	0	6.1290	0	33.9070	0	26.676	0	316.868	0	96.3	4	31.9	4	-1E+10	1	-1E+10	1	-1E+10	1	-1E+10	1	-1E+10	1	-1E+10	1
4901784	24	C	03/01/2016	10:51	-131.960	44.714	0	322.40	0	6.1050	0	33.9070	0	26.679	0	319.542	0	95.3	4	31.6	4	-1E+10	1	-1E+10	1	-1E+10	1	-1E+10	1	-1E+10	1	-1E+10	1
4901784	24	C	03/01/2016	10:51	-131.960	44.714	0	325.10	0	6.0820	0	33.9070	0	26.682	0	322.216	0	94.3	4	31.2	4	-1E+10	1	-1E+10	1	-1E+10	1	-1E+10	1	-1E+10	1	-1E+10	1
4901784	24	C	03/01/2016	10:51	-131.960	44.714	0	327.80	0	6.0570	0	33.9070	0	26.686	0	324.890	0	92.8	4	30.7	4	-1E+10	1	-1E+10	1	-1E+10	1	-1E+10	1	-1E+10	1	-1E+10	1
4901784	24	C	03/01/2016	10:51	-131.960	44.714	0	329.60	0	6.0390	0	33.9070	0	26.688	0	326.673	0	91.2	4	30.1	4	-1E+10	1	-1E+10	1	-1E+10	1	-1E+10	1	-1E+10	1	-1E+10	1
4901784	24	C	03/01/2016	10:51	-131.960	44.714	0	332.50	0	6.0020	0	33.9110	0	26.696	0	329.545	0	89.1	4	29.4	4	-1E+10	1	-1E+10	1	-1E+10	1	-1E+10	1	-1E+10	1	-1E+10	1
4901784	24	C	03/01/2016	10:51	-131.960	44.714	0	335.20	0	5.9670	0	33.9150	0	26.703	0	332.218	0	87.9	4	29.0	4	-1E+10	1	-1E+10	1	-1E+10	1	-1E+10	1	-1E+10	1	-1E+10	1
4901784	24	C	03/01/2016	10:51	-131.960	44.714	0	337.10	0	5.9630	0	33.9150	0	26.704	0	334.100	0	87.2	4	28.8	4	-1E+10	1	-1E+10	1	-1E+10	1	-1E+10	1	-1E+10	1	-1E+10	1
4901784	24	C	03/01/2016	10:51	-131.960	44.714	0	339.80	0	5.9400	0	33.9160	0	26.707	0	336.774	0	86.3	4	28.5	4	-1E+10	1	-1E+10	1	-1E+10	1	-1E+10	1	-1E+10	1	-1E+10	1
4901784	24	C	03/01/2016	10:51	-131.960	44.714	0	342.60	0	5.8980	0	33.9200	0	26.716	0	339.546	0	85.8	4	28.3	4	-1E+10	1	-1E+10	1	-1E+10	1	-1E+10	1	-1E+10	1	-1E+10	1
4901784	24	C	03/01/2016	10:51	-131.960	44.714	0	345.30	0	5.8900	0	33.9190	0	26.716	0	342.220	0	85.6	4	28.2	4	-1E+10	1	-1E+10	1	-1E+10	1	-1E+10	1	-1E+10	1	-1E+10	1
4901784	24	C	03/01/2016	10:51	-131.960	44.714	0	348.00	0	5.8880	0	33.9180	0	26.715	0	344.894	0	85.3	4	28.1	4	-1E+10	1	-1E+10	1	-1E+10	1	-1E+10	1	-1E+10	1	-1E+10	1
4901784	24	C	03/01/2016	10:51	-131.960	44.714	0	349.80	0	5.8800	0	33.9180	0	26.716	0	346.676	0	85.0	4	28.0	4	-1E+10	1	-1E+10	1	-1E+10	1	-1E+10	1	-1E+10	1	-1E+10	1
4901784	24	C	03/01/2016	10:51	-131.960	44.714	0	352.60	0	5.8650	0	33.9170	0	26.718	0	349.449	0	84.6	4	27.9	4	-1E+10	1	-1E+10	1	-1E+10	1	-1E+10	1	-1E+10	1	-1E+10	1
4901784	24	C	03/01/2016	10:51	-131.960	44.714	0	355.40	0	5.8240	0	33.9180	0	26.723	0	352.222	0	84.1	4	27.7	4	-1E+10	1	-1E+10	1	-1E+10	1	-1E+10	1	-1E+10	1	-1E+10	1
4901784	24	C	03/01/2016	10:51	-131.960	44.714	0	357.20	0	5.8140	0	33.9170	0	26.724	0	354.004	0	83.9	4	27.6	4	-1E+10	1	-1E+10	1	-1E+10	1	-1E+10	1	-1E+10	1	-1E+10	1
4901784	24	C	03/01/2016	10:51	-131.960	44.714	0	360.00	0	5.7500	0	33.9180	0	26.733	0	356.776	0	83.4	4	27.4	4	-1E+10	1	-1E+10	1	-1E+10	1	-1E+10	1	-1E+10	1	-1E+10	1
4901784	24	C	03/01/2016	10:51	-131.960	44.714	0	362.80	0	5.7190	0	33.9190	0	26.737	0	359.549	0	82.8	4	27.2	4	-1E+10	1	-1E+10	1	-1E+10	1	-1E+10	1	-1E+10	1	-1E+10	1
4901784	24	C	03/01/2016	10:51	-131.960	44.714	0	364.70	0	5.6930	0	33.9180	0	26.740	0	361.430	0	82.4	4	27.0	4	-1E+10	1	-1E+10	1	-1E+10	1	-1E+10	1	-1E+10	1	-1E+10	1
4901784	24	C	03/01/2016	10:51	-131.960	44.714	0	367.50	0	5.6660	0	33.9200	0	26.744	0	364.203	0	81.4	4	26.7	4	-1E+10	1	-1E+10	1	-1E+10	1	-1E+10	1	-1E+10	1	-1E+10	1
4901784	24	C	03/01/2016	10:51	-131.960	44.714	0	370.40	0	5.6510	0	33.9210	0	26.747	0	367.074	0	80.4	4	26.4	4	-1E+10	1	-1E+10	1	-1E+10	1	-1E+10	1	-1E+10	1	-1E+10	1
4901784	24	C	03/01/2016	10:51	-131.960	44.714	0	372.40	0	5.6390	0	33.9230	0	26.750	0	369.054	0	79.8	4	26.1	4	-1E+10	1	-1E+10	1	-1E+10	1	-1E+10	1	-1E+10	1	-1E+10	1
4901784	24	C	03/01/2016	10:51	-131.960	44.714	0	374.30	0	5.6360	0	33.9220	0	26.750	0	370.936	0	79.2	4	25.9	4	-1E+10	1	-1E+10	1	-1E+10	1	-1E+10	1	-1E+10	1	-1E+10	1
4901784	24	C	03/01/2016	10:51	-131.960	44.714	0	377.30	0	5.6190	0	33.9240	0	26.753	0	373.906	0	78.1	4	25.6	4	-1E+10	1	-1E+10	1	-1E+10	1	-1E+10	1	-1E+10	1	-1E+10	1
4901784	24	C	03/01/2016	10:51	-131.960	44.714	0	380.20	0	5.5990	0	33.9260	0	26.757	0	376.777	0	77.4	4	25.3	4	-1E+10	1	-1E+10	1	-1E+10	1	-1E+10	1	-1E+10	1	-1E+10	1
4901784	24	C	03/01/2016	10:51	-131.960	44.714	0	382.10	0	5.5900	0	33.9260	0	26.758	0	378.658	0	76.8	4	25.1	4	-1E+10	1	-1E+10	1	-1E+10	1	-1E+10	1	-1E+10	1	-1E+10	1
4901784	24	C	03/01/2016	10:51	-131.960	44.714	0	384.60	0	5.5850	0	33.9260	0	26.759	0	381.134	0	76.1	4	24.9	4	-1E+10	1	-1E+10	1	-1E+10	1	-1E+10	1	-1E+10	1	-1E+10	1
4901784	24	C	03/01/2016	10:51	-131.960	44.714	0	387.40	0	5.5750	0	33.9270	0	26.761	0	383.906	0	74.9	4	24.5	4	-1E+10	1	-1E+10	1	-1E+10	1	-1E+10	1	-1E+10	1	-1E+10	1
4901784	24	C	03/01/2016	10:51	-131.960	44.714	0	389.90	0	5.5530	0	33.9280	0	26.765	0	386.381	0	73.5	4	24.0	4	-1E+10	1	-1E+10	1	-1E+10	1	-1E+10	1	-1E+10	1	-1E+10	1
4901784	24	C	03/01/2016	10:51	-131.960	44.714	0	392.30	0	5.5190	0	33.9330	0	26.773	0	388.757	0	72.7	4	23.8	4	-1E+10	1	-1E+10	1	-1E+10	1	-1E+10	1	-1E+10	1	-1E+10	1
4901784	24	C	03/01/2016	10:51	-131.960	44.714	0	394.70	0	5.5080	0	33.9330	0	26.774	0	391.133	0	72.1	4	23.6	4	-1E+10	1	-1E+10	1	-1E+10	1	-1E+10	1	-1E+10	1	-1E+10	1
4901784	24	C	03/01/2016	10:51	-131.960	44.714	0	397.20	0	5.4950	0	33.9350	0	26.777	0	393.608	0	71.5	4	23.3	4	-1E+10	1	-1E+10	1	-1E+10	1	-1E+10	1	-1E+10	1	-1E+10	1
4901784	24	C	03/01/2016	10:51	-131.960	44.714	0	400.40	0	5.4790	0	33.9360	0	26.780	0	396.776	0	71.0	4	23.2	4	-1E+10	1	-1E+10	1	-1E+10	1	-1E+10	1	-1E+10	1	-1E+10	1
4901784	24	C	03/01/2016	10:51	-131.960	44.714	0	402.80	0	5.4780	0	33.9350	0	26.779	0	399.152	0	70.6	4	23.0	4	-1E+10	1	-1E+10	1	-1E+10	1	-1E+10	1	-1E+10	1	-1E+10	1
4901784	24	C	03/01/2016	10:51	-131.960	44.714	0	405.30	0	5.4560	0	33.9370	0	26.783	0	401.627	0	70.3	4	22.9	4	-1E+10	1	-1E+10	1	-1E+10	1	-1E+10	1	-1E+10	1	-1E+10	1
4901784	24	C	03/01/2016	10:51	-131.960	44.714	0	407.70	0	5.4450	0	33.9370	0	26.785	0	404.003	0	70.4	4	23.0	4	-1E+10	1	-1E+10	1	-1E+10	1	-1E+10	1	-1E+10	1	-1E+10	1
4901784	24	C	03/01/2016	10:51	-131.960	44.714	0	410.10	0	5.4090	0	33.9370	0	26.789	0	406.379	0	70.6	4	23.0	4	-1E+10	1	-1E+10	1	-1E+10	1	-1E+10	1	-1E+10	1	-1E+10	1
4901784	24	C	03/01/2016	10:51	-131.960	44.714	0	412.50	0	5.3800	0	33.9340	0	26.790	0	408.755	0	70.7	4	23.0	4	-1E+10	1	-1E+10	1	-1E+10	1	-1E+10	1	-1E+10	1	-1E+10	1
4901784	24	C	03/01/2016	10:51	-131.960	44.714	0	415.00	0	5.3390	0	33.9340	0	26.795	0	411.229	0	69.7	4	22.7	4	-1E+10	1	-1E+10	1	-1E+10	1	-1E+10	1	-1E+10	1	-1E+10	1
4901784	24	C	03/01/2016	10:51	-131.960	44.714	0	417.50	0	5.3420	0	33.9340	0	26.795	0	413.704	0	68.2	4	22.2	4	-1E+10	1	-1E+10	1	-1E+10	1	-1E+10	1	-1E+10	1	-1E+10	1
4901784	24	C	03/01/2016	10:51	-131.960	44.714	0	419.90	0	5.3270	0	33.9400	0	26.801	0	416.080	0	67.7	4	22.0	4	-1E+10	1	-1E+10	1	-1E+10	1	-1E+10	1	-1E+10	1	-1E+10	1
4901784	24	C	03/01/2016	10:51	-131.960	44.714	0	422.40	0	5.2890	0	33.9380	0	26.804	0	418.555	0	67.0	4	21.8	4	-1E+10	1	-1E+10	1	-1E+10	1	-1E+10	1	-1E+10	1	-1E+10	1
4901784	24	C	03/01/2016	10:51	-131.960	44.714	0	424.90	0	5.3070	0	33.9430	0	26.806	0	421.029	0	66.3	4	21.6	4	-1E+10	1	-1E+10	1	-1E+10	1	-1E+10	1	-1E+10	1	-1E+10	1
4901784	24	C	03/01/2016	10:51	-131.960	44.714	0	427.40	0	5.2260	0	33.9420	0	26.815	0	423.504	0	66.2	4	21.5	4	-1E+10	1	-1E+10	1	-1E+10	1	-1E+10	1	-1E+10	1	-1E+10	1
4901784	24	C	03/01/2016	10:51	-131.960	44.714	0	430.10	0	5.2020	0	33.9440	0	26.819	0	426.177	0	65.2	4	21.1	4	-1E+10	1	-1E+10	1	-1E+10	1	-1E+10	1	-1E+10	1	-1E+10	1
4901784	24	C	03/01/2016	10:51	-131.960	44.714	0	432.60	0	5.1800	0	33.9450	0	26.822	0	428.651	0	64.0	4	20.7	4	-1E+10	1	-1E+10	1	-1E+10	1	-1E+10	1	-1E+10	1	-1E+10	1
4901784	24	C	03/01/2016	10:51	-131.960	44.714	0	435.20	0	5.1720	0	33.9500	0	26.827	0	431.225	0	62.5	4	20.2	4	-1E+10	1	-1E+10	1	-1E+10	1	-1E+10	1	-1E+10	1	-1E+10	1
4901784	24	C	03/01/2016	10:51	-131.960	44.714	0	437.80	0	5.1650	0	33.9540	0	26.831	0	433.798	0	61.5	4	19.9	4	-1E+10	1	-1E+10	1	-1E+10	1	-1E+10	1	-1E+10	1	-1E+10	1
4901784	24	C	03/01/2016	10:51	-131.960	44.714	0	440.40	0	5.1540	0	33.9550	0	26.833	0	436.372	0	60.7	4	19.7	4	-1E+10	1	-1E+10	1	-1E+10	1	-1E+10	1	-1E+10	1	-1E+10	1
4901784	24	C	03/01/2016	10:51	-131.960	44.714	0	442.90	0	5.1460	0	33.9580	0	26.837	0	438.846	0	59.8	4	19.4	4	-1E+10	1	-1E+10	1	-1E+10	1	-1E+10	1	-1E+10	1	-1E+10	1
4901784	24	C	03/01/2016	10:51	-131.960	44.714	0	444.60	0	5.1410	0	33.9590	0	26.838	0	440.529	0	59.3	4	19.2	4	-1E+10	1	-1E+10	1	-1E+10	1	-1E+10	1	-1E+10	1	-1E+10	1
4901784	24	C	03/01/2016	10:51	-131.960	44.714	0	447.20	0	5.1330	0	33.9610	0	26.840	0	443.103	0	58.5	4	18.9	4	-1E+10	1	-1E+10	1	-1E+10	1	-1E+10	1	-1E+10	1	-1E+10	1
4901784	24	C	03/01/2016	10:51	-131.960	44.714	0	449.70	0	5.0930	0	33.9630	0	26.847	0	445.577	0	57.9	4	18.7	4	-1E+10	1	-1E+10	1	-1E+10	1	-1E+10	1	-1E+10	1	-1E+10	1
4901784	24	C	03/01/2016	10:51	-131.960	44.714	0	452.20	0	5.0850	0	33.9640	0	26.848	0	448.051	0	57.3	4	18.5	4	-1E+10	1	-1E+10	1	-1E+10	1	-1E+10	1	-1E+10	1	-1E+10	1
4901784	24	C	03/01/2016	10:51	-131.960	44.714	0	454.70	0	5.0560	0	33.9650	0	26.853	0	450.526	0	56.5	4	18.3	4	-1E+10	1	-1E+10	1	-1E+10	1	-1E+10	1	-1E+10	1	-1E+10	1
4901784	24	C	03/01/2016	10:51	-131.960	44.714	0	457.30	0	5.0410	0	33.9690	0	26.857	0	453.099	0	55.5	4	17.9	4	-1E+10	1	-1E+10	1	-1E+10	1	-1E+10	1	-1E+10	1	-1E+10	1
4901784	24	C	03/01/2016	10:51	-131.960	44.714	0	459.90	0	5.0270	0	33.9730	0	26.862	0	455.672	0	54.9	4	17.7	4	-1E+10	1	-1E+10	1	-1E+10	1	-1E+10	1	-1E+10	1	-1E+10	1
4901784	24	C	03/01/2016	10:51	-131.960	44.714	0	462.50	0	5.0230	0	33.9740	0	26.863	0	458.245	0	54.3	4	17.6	4	-1E+10	1	-1E+10	1	-1E+10	1	-1E+10	1	-1E+10	1	-1E+10	1
4901784	24	C	03/01/2016	10:51	-131.960	44.714	0	465.00	0	5.0200	0	33.9740	0	26.864	0	460.720	0	53.6	4	17.3	4	-1E+10	1	-1E+10	1	-1E+10	1	-1E+10	1	-1E+10	1	-1E+10	1
4901784	24	C	03/01/2016	10:51	-131.960	44.714	0	467.70	0	5.0190	0	33.9760	0	26.866	0	463.392	0	52.4	4	16.9	4	-1E+10	1	-1E+10	1	-1E+10	1	-1E+10	1	-1E+10	1	-1E+10	1
4901784	24	C	03/01/2016	10:51	-131.960	44.714	0	470.30	0	5.0140	0	33.9820	0	26.871	0	465.965	0	51.2	4	16.5	4	-1E+10	1	-1E+10	1	-1E+10	1	-1E+10	1	-1E+10	1	-1E+10	1
4901784	24	C	03/01/2016	10:51	-131.960	44.714	0	472.10	0	5.0120	0	33.9830	0	26.872	0	467.746	0	50.9	4	16.4	4	-1E+10	1	-1E+10	1	-1E+10	1	-1E+10	1	-1E+10	1	-1E+10	1
4901784	24	C	03/01/2016	10:51	-131.960	44.714	0	474.70	0	5.0000	0	33.9840	0	26.874	0	470.319	0	50.4	4	16.3	4	-1E+10	1	-1E+10	1	-1E+10	1	-1E+10	1	-1E+10	1	-1E+10	1
4901784	24	C	03/01/2016	10:51	-131.960	44.714	0	477.30	0	4.9660	0	33.9860	0	26.880	0	472.892	0	49.7	4	16.0	4	-1E+10	1	-1E+10	1	-1E+10	1	-1E+10	1	-1E+10	1	-1E+10	1
4901784	24	C	03/01/2016	10:51	-131.960	44.714	0	479.90	0	4.9440	0	33.9910	0	26.886	0	475.465	0	49.0	4	15.8	4	-1E+10	1	-1E+10	1	-1E+10	1	-1E+10	1	-1E+10	1	-1E+10	1
4901784	24	C	03/01/2016	10:51	-131.960	44.714	0	482.50	0	4.9340	0	33.9910	0	26.887	0	478.038	0	48.6	4	15.7	4	-1E+10	1	-1E+10	1	-1E+10	1	-1E+10	1	-1E+10	1	-1E+10	1
4901784	24	C	03/01/2016	10:51	-131.960	44.714	0	485.20	0	4.9180	0	33.9930	0	26.891	0	480.710	0	48.0	4	15.5	4	-1E+10	1	-1E+10	1	-1E+10	1	-1E+10	1	-1E+10	1	-1E+10	1
4901784	24	C	03/01/2016	10:51	-131.960	44.714	0	487.90	0	4.9130	0	33.9960	0	26.894	0	483.382	0	47.2	4	15.2	4	-1E+10	1	-1E+10	1	-1E+10	1	-1E+10	1	-1E+10	1	-1E+10	1
4901784	24	C	03/01/2016	10:51	-131.960	44.714	0	489.70	0	4.9080	0	33.9980	0	26.896	0	485.163	0	46.7	4	15.0	4	-1E+10	1	-1E+10	1	-1E+10	1	-1E+10	1	-1E+10	1	-1E+10	1
4901784	24	C	03/01/2016	10:51	-131.960	44.714	0	492.40	0	4.8910	0	34.0000	0	26.899	0	487.835	0	46.0	4	14.8	4	-1E+10	1	-1E+10	1	-1E+10	1	-1E+10	1	-1E+10	1	-1E+10	1
4901784	24	C	03/01/2016	10:51	-131.960	44.714	0	495.10	0	4.8840	0	34.0020	0	26.902	0	490.507	0	45.5	4	14.6	4	-1E+10	1	-1E+10	1	-1E+10	1	-1E+10	1	-1E+10	1	-1E+10	1
4901784	24	C	03/01/2016	10:51	-131.960	44.714	0	496.90	0	4.8820	0	34.0020	0	26.902	0	492.288	0	45.0	4	14.5	4	-1E+10	1	-1E+10	1	-1E+10	1	-1E+10	1	-1E+10	1	-1E+10	1
4901784	24	C	03/01/2016	10:51	-131.960	44.714	0	499.70	0	4.8720	0	34.0050	0	26.905	0	495.059	0	44.0	4	14.2	4	-1E+10	1	-1E+10	1	-1E+10	1	-1E+10	1	-1E+10	1	-1E+10	1
4901784	24	C	03/01/2016	10:51	-131.960	44.714	0	505.20	0	4.8520	0	34.0110	0	26.912	0	500.501	0	42.5	4	13.7	4	-1E+10	1	-1E+10	1	-1E+10	1	-1E+10	1	-1E+10	1	-1E+10	1
4901784	24	C	03/01/2016	10:51	-131.960	44.714	0	509.80	0	4.8340	0	34.0150	0	26.918	0	505.053	0	41.4	4	13.3	4	-1E+10	1	-1E+10	1	-1E+10	1	-1E+10	1	-1E+10	1	-1E+10	1
4901784	24	C	03/01/2016	10:51	-131.960	44.714	0	515.40	0	4.8140	0	34.0200	0	26.924	0	510.594	0	40.0	4	12.9	4	-1E+10	1	-1E+10	1	-1E+10	1	-1E+10	1	-1E+10	1	-1E+10	1
4901784	24	C	03/01/2016	10:51	-131.960	44.714	0	520.20	0	4.7970	0	34.0250	0	26.930	0	515.343	0	38.5	4	12.4	4	-1E+10	1	-1E+10	1	-1E+10	1	-1E+10	1	-1E+10	1	-1E+10	1
4901784	24	C	03/01/2016	10:51	-131.960	44.714	0	525.00	0	4.7720	0	34.0330	0	26.939	0	520.092	0	37.0	4	11.9	4	-1E+10	1	-1E+10	1	-1E+10	1	-1E+10	1	-1E+10	1	-1E+10	1
4901784	24	C	03/01/2016	10:51	-131.960	44.714	0	530.50	0	4.7520	0	34.0380	0	26.945	0	525.534	0	36.3	4	11.7	4	-1E+10	1	-1E+10	1	-1E+10	1	-1E+10	1	-1E+10	1	-1E+10	1
4901784	24	C	03/01/2016	10:51	-131.960	44.714	0	535.20	0	4.7440	0	34.0390	0	26.947	0	530.184	0	35.5	4	11.4	4	-1E+10	1	-1E+10	1	-1E+10	1	-1E+10	1	-1E+10	1	-1E+10	1
4901784	24	C	03/01/2016	10:51	-131.960	44.714	0	539.90	0	4.7180	0	34.0440	0	26.954	0	534.834	0	34.6	4	11.1	4	-1E+10	1	-1E+10	1	-1E+10	1	-1E+10	1	-1E+10	1	-1E+10	1
4901784	24	C	03/01/2016	10:51	-131.960	44.714	0	545.50	0	4.6910	0	34.0490	0	26.961	0	540.374	0	33.9	4	10.9	4	-1E+10	1	-1E+10	1	-1E+10	1	-1E+10	1	-1E+10	1	-1E+10	1
4901784	24	C	03/01/2016	10:51	-131.960	44.714	0	550.20	0	4.6770	0	34.0510	0	26.964	0	545.024	0	33.2	4	10.6	4	-1E+10	1	-1E+10	1	-1E+10	1	-1E+10	1	-1E+10	1	-1E+10	1
4901784	24	C	03/01/2016	10:51	-131.960	44.714	0	555.00	0	4.6570	0	34.0540	0	26.969	0	549.772	0	32.5	4	10.4	4	-1E+10	1	-1E+10	1	-1E+10	1	-1E+10	1	-1E+10	1	-1E+10	1
4901784	24	C	03/01/2016	10:51	-131.960	44.714	0	559.70	0	4.6280	0	34.0600	0	26.977	0	554.422	0	31.8	4	10.2	4	-1E+10	1	-1E+10	1	-1E+10	1	-1E+10	1	-1E+10	1	-1E+10	1
4901784	24	C	03/01/2016	10:51	-131.960	44.714	0	564.90	0	4.6120	0	34.0630	0	26.981	0	559.566	0	31.1	4	10.0	4	-1E+10	1	-1E+10	1	-1E+10	1	-1E+10	1	-1E+10	1	-1E+10	1
4901784	24	C	03/01/2016	10:51	-131.960	44.714	0	570.10	0	4.5920	0	34.0670	0	26.986	0	564.709	0	30.3	4	9.7	4	-1E+10	1	-1E+10	1	-1E+10	1	-1E+10	1	-1E+10	1	-1E+10	1
4901784	24	C	03/01/2016	10:51	-131.960	44.714	0	575.00	0	4.5860	0	34.0690	0	26.988	0	569.556	0	29.3	4	9.4	4	-1E+10	1	-1E+10	1	-1E+10	1	-1E+10	1	-1E+10	1	-1E+10	1
4901784	24	C	03/01/2016	10:51	-131.960	44.714	0	579.80	0	4.5620	0	34.0780	0	26.998	0	574.304	0	27.9	4	8.9	4	-1E+10	1	-1E+10	1	-1E+10	1	-1E+10	1	-1E+10	1	-1E+10	1
4901784	24	C	03/01/2016	10:51	-131.960	44.714	0	584.80	0	4.5480	0	34.0830	0	27.004	0	579.250	0	27.1	4	8.7	4	-1E+10	1	-1E+10	1	-1E+10	1	-1E+10	1	-1E+10	1	-1E+10	1
4901784	24	C	03/01/2016	10:51	-131.960	44.714	0	589.90	0	4.5310	0	34.0870	0	27.009	0	584.295	0	26.0	4	8.3	4	-1E+10	1	-1E+10	1	-1E+10	1	-1E+10	1	-1E+10	1	-1E+10	1
4901784	24	C	03/01/2016	10:51	-131.960	44.714	0	595.00	0	4.5070	0	34.0960	0	27.019	0	589.339	0	25.0	4	8.0	4	-1E+10	1	-1E+10	1	-1E+10	1	-1E+10	1	-1E+10	1	-1E+10	1
4901784	24	C	03/01/2016	10:51	-131.960	44.714	0	600.00	0	4.4940	0	34.1000	0	27.023	0	594.284	0	24.6	4	7.8	4	-1E+10	1	-1E+10	1	-1E+10	1	-1E+10	1	-1E+10	1	-1E+10	1
4901784	24	C	03/01/2016	10:51	-131.960	44.714	0	605.10	0	4.4810	0	34.1030	0	27.027	0	599.328	0	24.1	4	7.7	4	-1E+10	1	-1E+10	1	-1E+10	1	-1E+10	1	-1E+10	1	-1E+10	1
4901784	24	C	03/01/2016	10:51	-131.960	44.714	0	610.00	0	4.4680	0	34.1060	0	27.031	0	604.174	0	23.4	4	7.5	4	-1E+10	1	-1E+10	1	-1E+10	1	-1E+10	1	-1E+10	1	-1E+10	1
4901784	24	C	03/01/2016	10:51	-131.960	44.714	0	615.00	0	4.4490	0	34.1130	0	27.038	0	609.119	0	22.5	4	7.2	4	-1E+10	1	-1E+10	1	-1E+10	1	-1E+10	1	-1E+10	1	-1E+10	1
4901784	24	C	03/01/2016	10:51	-131.960	44.714	0	620.10	0	4.4290	0	34.1180	0	27.045	0	614.163	0	22.0	4	7.0	4	-1E+10	1	-1E+10	1	-1E+10	1	-1E+10	1	-1E+10	1	-1E+10	1
4901784	24	C	03/01/2016	10:51	-131.960	44.714	0	625.20	0	4.4180	0	34.1210	0	27.048	0	619.207	0	21.7	4	6.9	4	-1E+10	1	-1E+10	1	-1E+10	1	-1E+10	1	-1E+10	1	-1E+10	1
4901784	24	C	03/01/2016	10:51	-131.960	44.714	0	630.30	0	4.3980	0	34.1250	0	27.054	0	624.250	0	21.5	4	6.9	4	-1E+10	1	-1E+10	1	-1E+10	1	-1E+10	1	-1E+10	1	-1E+10	1
4901784	24	C	03/01/2016	10:51	-131.960	44.714	0	635.40	0	4.3880	0	34.1260	0	27.055	0	629.293	0	21.1	4	6.7	4	-1E+10	1	-1E+10	1	-1E+10	1	-1E+10	1	-1E+10	1	-1E+10	1
4901784	24	C	03/01/2016	10:51	-131.960	44.714	0	640.50	0	4.3760	0	34.1300	0	27.060	0	634.337	0	20.2	4	6.4	4	-1E+10	1	-1E+10	1	-1E+10	1	-1E+10	1	-1E+10	1	-1E+10	1
4901784	24	C	03/01/2016	10:51	-131.960	44.714	0	645.60	0	4.3510	0	34.1380	0	27.069	0	639.380	0	19.4	4	6.2	4	-1E+10	1	-1E+10	1	-1E+10	1	-1E+10	1	-1E+10	1	-1E+10	1
4901784	24	C	03/01/2016	10:51	-131.960	44.714	0	650.70	0	4.3350	0	34.1450	0	27.076	0	644.423	0	18.9	4	6.0	4	-1E+10	1	-1E+10	1	-1E+10	1	-1E+10	1	-1E+10	1	-1E+10	1
4901784	24	C	03/01/2016	10:51	-131.960	44.714	0	655.10	0	4.3280	0	34.1480	0	27.079	0	648.773	0	18.8	4	6.0	4	-1E+10	1	-1E+10	1	-1E+10	1	-1E+10	1	-1E+10	1	-1E+10	1
4901784	24	C	03/01/2016	10:51	-131.960	44.714	0	659.40	0	4.3250	0	34.1480	0	27.080	0	653.025	0	18.7	4	6.0	4	-1E+10	1	-1E+10	1	-1E+10	1	-1E+10	1	-1E+10	1	-1E+10	1
4901784	24	C	03/01/2016	10:51	-131.960	44.714	0	664.60	0	4.3090	0	34.1500	0	27.083	0	658.167	0	18.5	4	5.9	4	-1E+10	1	-1E+10	1	-1E+10	1	-1E+10	1	-1E+10	1	-1E+10	1
4901784	24	C	03/01/2016	10:51	-131.960	44.714	0	669.80	0	4.2840	0	34.1550	0	27.090	0	663.308	0	18.2	4	5.8	4	-1E+10	1	-1E+10	1	-1E+10	1	-1E+10	1	-1E+10	1	-1E+10	1
4901784	24	C	03/01/2016	10:51	-131.960	44.714	0	675.10	0	4.2800	0	34.1570	0	27.092	0	668.548	0	18.0	4	5.7	4	-1E+10	1	-1E+10	1	-1E+10	1	-1E+10	1	-1E+10	1	-1E+10	1
4901784	24	C	03/01/2016	10:51	-131.960	44.714	0	680.30	0	4.2760	0	34.1570	0	27.092	0	673.689	0	17.7	4	5.6	4	-1E+10	1	-1E+10	1	-1E+10	1	-1E+10	1	-1E+10	1	-1E+10	1
4901784	24	C	03/01/2016	10:51	-131.960	44.714	0	685.70	0	4.2530	0	34.1640	0	27.100	0	679.028	0	17.2	4	5.5	4	-1E+10	1	-1E+10	1	-1E+10	1	-1E+10	1	-1E+10	1	-1E+10	1
4901784	24	C	03/01/2016	10:51	-131.960	44.714	0	690.10	0	4.2320	0	34.1680	0	27.106	0	683.378	0	17.0	4	5.4	4	-1E+10	1	-1E+10	1	-1E+10	1	-1E+10	1	-1E+10	1	-1E+10	1
4901784	24	C	03/01/2016	10:51	-131.960	44.714	0	694.60	0	4.2170	0	34.1700	0	27.109	0	687.827	0	16.7	4	5.3	4	-1E+10	1	-1E+10	1	-1E+10	1	-1E+10	1	-1E+10	1	-1E+10	1
4901784	24	C	03/01/2016	10:51	-131.960	44.714	0	700.00	0	4.1950	0	34.1750	0	27.115	0	693.165	0	16.3	4	5.2	4	-1E+10	1	-1E+10	1	-1E+10	1	-1E+10	1	-1E+10	1	-1E+10	1
4901784	24	C	03/01/2016	10:51	-131.960	44.714	0	705.30	0	4.1940	0	34.1810	0	27.120	0	698.405	0	15.7	4	5.0	4	-1E+10	1	-1E+10	1	-1E+10	1	-1E+10	1	-1E+10	1	-1E+10	1
4901784	24	C	03/01/2016	10:51	-131.960	44.714	0	710.50	0	4.1830	0	34.1870	0	27.126	0	703.545	0	15.2	4	4.8	4	-1E+10	1	-1E+10	1	-1E+10	1	-1E+10	1	-1E+10	1	-1E+10	1
4901784	24	C	03/01/2016	10:51	-131.960	44.714	0	715.00	0	4.1720	0	34.1920	0	27.131	0	707.993	0	14.9	4	4.7	4	-1E+10	1	-1E+10	1	-1E+10	1	-1E+10	1	-1E+10	1	-1E+10	1
4901784	24	C	03/01/2016	10:51	-131.960	44.714	0	719.50	0	4.1500	0	34.1970	0	27.137	0	712.441	0	14.8	4	4.7	4	-1E+10	1	-1E+10	1	-1E+10	1	-1E+10	1	-1E+10	1	-1E+10	1
4901784	24	C	03/01/2016	10:51	-131.960	44.714	0	725.00	0	4.1250	0	34.2000	0	27.142	0	717.878	0	14.6	4	4.6	4	-1E+10	1	-1E+10	1	-1E+10	1	-1E+10	1	-1E+10	1	-1E+10	1
4901784	24	C	03/01/2016	10:51	-131.960	44.714	0	730.40	0	4.1090	0	34.2040	0	27.147	0	723.216	0	14.5	4	4.6	4	-1E+10	1	-1E+10	1	-1E+10	1	-1E+10	1	-1E+10	1	-1E+10	1
4901784	24	C	03/01/2016	10:51	-131.960	44.714	0	735.00	0	4.1100	0	34.2070	0	27.150	0	727.762	0	14.2	4	4.5	4	-1E+10	1	-1E+10	1	-1E+10	1	-1E+10	1	-1E+10	1	-1E+10	1
4901784	24	C	03/01/2016	10:51	-131.960	44.714	0	739.60	0	4.0770	0	34.2100	0	27.156	0	732.309	0	14.1	4	4.5	4	-1E+10	1	-1E+10	1	-1E+10	1	-1E+10	1	-1E+10	1	-1E+10	1
4901784	24	C	03/01/2016	10:51	-131.960	44.714	0	745.10	0	4.0580	0	34.2160	0	27.162	0	737.745	0	13.8	4	4.4	4	-1E+10	1	-1E+10	1	-1E+10	1	-1E+10	1	-1E+10	1	-1E+10	1
4901784	24	C	03/01/2016	10:51	-131.960	44.714	0	750.50	0	4.0410	0	34.2210	0	27.168	0	743.082	0	13.6	4	4.3	4	-1E+10	1	-1E+10	1	-1E+10	1	-1E+10	1	-1E+10	1	-1E+10	1
4901784	24	C	03/01/2016	10:51	-131.960	44.714	0	755.10	0	4.0330	0	34.2240	0	27.171	0	747.628	0	13.4	4	4.2	4	-1E+10	1	-1E+10	1	-1E+10	1	-1E+10	1	-1E+10	1	-1E+10	1
4901784	24	C	03/01/2016	10:51	-131.960	44.714	0	759.60	0	4.0120	0	34.2290	0	27.177	0	752.076	0	13.3	4	4.2	4	-1E+10	1	-1E+10	1	-1E+10	1	-1E+10	1	-1E+10	1	-1E+10	1
4901784	24	C	03/01/2016	10:51	-131.960	44.714	0	765.10	0	3.9950	0	34.2310	0	27.181	0	757.511	0	13.2	4	4.2	4	-1E+10	1	-1E+10	1	-1E+10	1	-1E+10	1	-1E+10	1	-1E+10	1
4901784	24	C	03/01/2016	10:51	-131.960	44.714	0	770.60	0	3.9800	0	34.2340	0	27.185	0	762.947	0	13.0	4	4.1	4	-1E+10	1	-1E+10	1	-1E+10	1	-1E+10	1	-1E+10	1	-1E+10	1
4901784	24	C	03/01/2016	10:51	-131.960	44.714	0	775.50	0	3.9730	0	34.2370	0	27.188	0	767.789	0	12.8	4	4.0	4	-1E+10	1	-1E+10	1	-1E+10	1	-1E+10	1	-1E+10	1	-1E+10	1
4901784	24	C	03/01/2016	10:51	-131.960	44.714	0	780.00	0	3.9650	0	34.2420	0	27.193	0	772.236	0	12.6	4	4.0	4	-1E+10	1	-1E+10	1	-1E+10	1	-1E+10	1	-1E+10	1	-1E+10	1
4901784	24	C	03/01/2016	10:51	-131.960	44.714	0	784.80	0	3.9550	0	34.2450	0	27.196	0	776.979	0	12.5	4	4.0	4	-1E+10	1	-1E+10	1	-1E+10	1	-1E+10	1	-1E+10	1	-1E+10	1
4901784	24	C	03/01/2016	10:51	-131.960	44.714	0	789.60	0	3.9350	0	34.2490	0	27.201	0	781.722	0	12.5	4	3.9	4	-1E+10	1	-1E+10	1	-1E+10	1	-1E+10	1	-1E+10	1	-1E+10	1
4901784	24	C	03/01/2016	10:51	-131.960	44.714	0	794.50	0	3.9140	0	34.2510	0	27.205	0	786.564	0	12.5	4	3.9	4	-1E+10	1	-1E+10	1	-1E+10	1	-1E+10	1	-1E+10	1	-1E+10	1
4901784	24	C	03/01/2016	10:51	-131.960	44.714	0	799.40	0	3.8970	0	34.2540	0	27.209	0	791.406	0	12.3	4	3.9	4	-1E+10	1	-1E+10	1	-1E+10	1	-1E+10	1	-1E+10	1	-1E+10	1
4901784	24	C	03/01/2016	10:51	-131.960	44.714	0	804.40	0	3.8990	0	34.2600	0	27.214	0	796.347	0	12.0	4	3.8	4	-1E+10	1	-1E+10	1	-1E+10	1	-1E+10	1	-1E+10	1	-1E+10	1
4901784	24	C	03/01/2016	10:51	-131.960	44.714	0	809.50	0	3.8840	0	34.2620	0	27.217	0	801.386	0	12.1	4	3.8	4	-1E+10	1	-1E+10	1	-1E+10	1	-1E+10	1	-1E+10	1	-1E+10	1
4901784	24	C	03/01/2016	10:51	-131.960	44.714	0	814.60	0	3.8660	0	34.2640	0	27.220	0	806.425	0	12.1	4	3.8	4	-1E+10	1	-1E+10	1	-1E+10	1	-1E+10	1	-1E+10	1	-1E+10	1
4901784	24	C	03/01/2016	10:51	-131.960	44.714	0	819.70	0	3.8520	0	34.2660	0	27.223	0	811.464	0	12.1	4	3.8	4	-1E+10	1	-1E+10	1	-1E+10	1	-1E+10	1	-1E+10	1	-1E+10	1
4901784	24	C	03/01/2016	10:51	-131.960	44.714	0	824.80	0	3.8360	0	34.2680	0	27.227	0	816.503	0	12.1	4	3.8	4	-1E+10	1	-1E+10	1	-1E+10	1	-1E+10	1	-1E+10	1	-1E+10	1
4901784	24	C	03/01/2016	10:51	-131.960	44.714	0	829.90	0	3.8290	0	34.2700	0	27.229	0	821.541	0	12.0	4	3.8	4	-1E+10	1	-1E+10	1	-1E+10	1	-1E+10	1	-1E+10	1	-1E+10	1
4901784	24	C	03/01/2016	10:51	-131.960	44.714	0	835.00	0	3.8180	0	34.2730	0	27.233	0	826.580	0	11.8	4	3.7	4	-1E+10	1	-1E+10	1	-1E+10	1	-1E+10	1	-1E+10	1	-1E+10	1
4901784	24	C	03/01/2016	10:51	-131.960	44.714	0	840.30	0	3.8070	0	34.2790	0	27.238	0	831.816	0	11.6	4	3.7	4	-1E+10	1	-1E+10	1	-1E+10	1	-1E+10	1	-1E+10	1	-1E+10	1
4901784	24	C	03/01/2016	10:51	-131.960	44.714	0	845.50	0	3.8030	0	34.2810	0	27.240	0	836.953	0	11.5	4	3.6	4	-1E+10	1	-1E+10	1	-1E+10	1	-1E+10	1	-1E+10	1	-1E+10	1
4901784	24	C	03/01/2016	10:51	-131.960	44.714	0	849.90	0	3.7980	0	34.2830	0	27.243	0	841.300	0	11.4	4	3.6	4	-1E+10	1	-1E+10	1	-1E+10	1	-1E+10	1	-1E+10	1	-1E+10	1
4901784	24	C	03/01/2016	10:51	-131.960	44.714	0	854.30	0	3.7890	0	34.2870	0	27.247	0	845.646	0	11.3	4	3.6	4	-1E+10	1	-1E+10	1	-1E+10	1	-1E+10	1	-1E+10	1	-1E+10	1
4901784	24	C	03/01/2016	10:51	-131.960	44.714	0	859.60	0	3.7810	0	34.2910	0	27.251	0	850.882	0	11.3	4	3.5	4	-1E+10	1	-1E+10	1	-1E+10	1	-1E+10	1	-1E+10	1	-1E+10	1
4901784	24	C	03/01/2016	10:51	-131.960	44.714	0	865.00	0	3.7780	0	34.2920	0	27.252	0	856.216	0	11.2	4	3.5	4	-1E+10	1	-1E+10	1	-1E+10	1	-1E+10	1	-1E+10	1	-1E+10	1
4901784	24	C	03/01/2016	10:51	-131.960	44.714	0	870.50	0	3.7740	0	34.2930	0	27.253	0	861.649	0	11.2	4	3.5	4	-1E+10	1	-1E+10	1	-1E+10	1	-1E+10	1	-1E+10	1	-1E+10	1
4901784	24	C	03/01/2016	10:51	-131.960	44.714	0	875.00	0	3.7600	0	34.2970	0	27.258	0	866.094	0	11.2	4	3.5	4	-1E+10	1	-1E+10	1	-1E+10	1	-1E+10	1	-1E+10	1	-1E+10	1
4901784	24	C	03/01/2016	10:51	-131.960	44.714	0	879.60	0	3.7410	0	34.2990	0	27.261	0	870.637	0	11.2	4	3.5	4	-1E+10	1	-1E+10	1	-1E+10	1	-1E+10	1	-1E+10	1	-1E+10	1
4901784	24	C	03/01/2016	10:51	-131.960	44.714	0	885.10	0	3.7320	0	34.3000	0	27.263	0	876.070	0	11.2	4	3.5	4	-1E+10	1	-1E+10	1	-1E+10	1	-1E+10	1	-1E+10	1	-1E+10	1
4901784	24	C	03/01/2016	10:51	-131.960	44.714	0	889.80	0	3.7250	0	34.3010	0	27.264	0	880.712	0	11.2	4	3.5	4	-1E+10	1	-1E+10	1	-1E+10	1	-1E+10	1	-1E+10	1	-1E+10	1
4901784	24	C	03/01/2016	10:51	-131.960	44.714	0	895.00	0	3.7030	0	34.3030	0	27.268	0	885.848	0	11.3	4	3.5	4	-1E+10	1	-1E+10	1	-1E+10	1	-1E+10	1	-1E+10	1	-1E+10	1
4901784	24	C	03/01/2016	10:51	-131.960	44.714	0	900.60	0	3.6890	0	34.3040	0	27.270	0	891.378	0	11.4	4	3.6	4	-1E+10	1	-1E+10	1	-1E+10	1	-1E+10	1	-1E+10	1	-1E+10	1
4901784	24	C	03/01/2016	10:51	-131.960	44.714	0	905.40	0	3.6690	0	34.3030	0	27.272	0	896.119	0	11.5	4	3.6	4	-1E+10	1	-1E+10	1	-1E+10	1	-1E+10	1	-1E+10	1	-1E+10	1
4901784	24	C	03/01/2016	10:51	-131.960	44.714	0	910.30	0	3.6410	0	34.3020	0	27.274	0	900.958	0	11.6	4	3.6	4	-1E+10	1	-1E+10	1	-1E+10	1	-1E+10	1	-1E+10	1	-1E+10	1
4901784	24	C	03/01/2016	10:51	-131.960	44.714	0	915.10	0	3.6070	0	34.3030	0	27.278	0	905.699	0	11.7	4	3.6	4	-1E+10	1	-1E+10	1	-1E+10	1	-1E+10	1	-1E+10	1	-1E+10	1
4901784	24	C	03/01/2016	10:51	-131.960	44.714	0	919.90	0	3.6040	0	34.3040	0	27.279	0	910.439	0	11.6	4	3.6	4	-1E+10	1	-1E+10	1	-1E+10	1	-1E+10	1	-1E+10	1	-1E+10	1
4901784	24	C	03/01/2016	10:51	-131.960	44.714	0	924.80	0	3.5970	0	34.3060	0	27.281	0	915.278	0	11.5	4	3.6	4	-1E+10	1	-1E+10	1	-1E+10	1	-1E+10	1	-1E+10	1	-1E+10	1
4901784	24	C	03/01/2016	10:51	-131.960	44.714	0	929.80	0	3.6080	0	34.3100	0	27.283	0	920.215	0	11.4	4	3.6	4	-1E+10	1	-1E+10	1	-1E+10	1	-1E+10	1	-1E+10	1	-1E+10	1
4901784	24	C	03/01/2016	10:51	-131.960	44.714	0	934.70	0	3.6190	0	34.3130	0	27.285	0	925.054	0	11.4	4	3.6	4	-1E+10	1	-1E+10	1	-1E+10	1	-1E+10	1	-1E+10	1	-1E+10	1
4901784	24	C	03/01/2016	10:51	-131.960	44.714	0	939.70	0	3.6000	0	34.3150	0	27.288	0	929.991	0	11.4	4	3.6	4	-1E+10	1	-1E+10	1	-1E+10	1	-1E+10	1	-1E+10	1	-1E+10	1
4901784	24	C	03/01/2016	10:51	-131.960	44.714	0	944.80	0	3.5830	0	34.3170	0	27.291	0	935.027	0	11.4	4	3.6	4	-1E+10	1	-1E+10	1	-1E+10	1	-1E+10	1	-1E+10	1	-1E+10	1
4901784	24	C	03/01/2016	10:51	-131.960	44.714	0	949.80	0	3.5790	0	34.3180	0	27.293	0	939.964	0	11.5	4	3.6	4	-1E+10	1	-1E+10	1	-1E+10	1	-1E+10	1	-1E+10	1	-1E+10	1
4901784	24	C	03/01/2016	10:51	-131.960	44.714	0	954.90	0	3.5630	0	34.3190	0	27.295	0	945.000	0	11.5	4	3.6	4	-1E+10	1	-1E+10	1	-1E+10	1	-1E+10	1	-1E+10	1	-1E+10	1
4901784	24	C	03/01/2016	10:51	-131.960	44.714	0	959.90	0	3.5500	0	34.3220	0	27.299	0	949.937	0	11.5	4	3.6	4	-1E+10	1	-1E+10	1	-1E+10	1	-1E+10	1	-1E+10	1	-1E+10	1
4901784	24	C	03/01/2016	10:51	-131.960	44.714	0	965.00	0	3.5300	0	34.3250	0	27.303	0	954.972	0	11.5	4	3.6	4	-1E+10	1	-1E+10	1	-1E+10	1	-1E+10	1	-1E+10	1	-1E+10	1
4901784	24	C	03/01/2016	10:51	-131.960	44.714	0	970.10	0	3.5200	0	34.3290	0	27.307	0	960.008	0	11.5	4	3.6	4	-1E+10	1	-1E+10	1	-1E+10	1	-1E+10	1	-1E+10	1	-1E+10	1
4901784	24	C	03/01/2016	10:51	-131.960	44.714	0	975.20	0	3.5060	0	34.3310	0	27.310	0	965.043	0	11.5	4	3.6	4	-1E+10	1	-1E+10	1	-1E+10	1	-1E+10	1	-1E+10	1	-1E+10	1
4901784	24	C	03/01/2016	10:51	-131.960	44.714	0	980.40	0	3.4950	0	34.3340	0	27.314	0	970.177	0	11.6	4	3.6	4	-1E+10	1	-1E+10	1	-1E+10	1	-1E+10	1	-1E+10	1	-1E+10	1
4901784	24	C	03/01/2016	10:51	-131.960	44.714	0	985.60	0	3.4770	0	34.3370	0	27.318	0	975.310	0	11.6	4	3.6	4	-1E+10	1	-1E+10	1	-1E+10	1	-1E+10	1	-1E+10	1	-1E+10	1
4901784	24	C	03/01/2016	10:51	-131.960	44.714	0	990.00	0	3.4720	0	34.3400	0	27.321	0	979.654	0	11.6	4	3.6	4	-1E+10	1	-1E+10	1	-1E+10	1	-1E+10	1	-1E+10	1	-1E+10	1
4901784	24	C	03/01/2016	10:51	-131.960	44.714	0	994.40	0	3.4620	0	34.3420	0	27.323	0	983.998	0	11.6	4	3.6	4	-1E+10	1	-1E+10	1	-1E+10	1	-1E+10	1	-1E+10	1	-1E+10	1
4901784	24	C	03/01/2016	10:51	-131.960	44.714	0	999.70	0	3.4500	0	34.3450	0	27.327	0	989.230	0	11.6	4	3.6	4	-1E+10	1	-1E+10	1	-1E+10	1	-1E+10	1	-1E+10	1	-1E+10	1
4901784	24	C	03/01/2016	10:51	-131.960	44.714	0	1005.10	0	3.4360	0	34.3510	0	27.333	0	994.560	0	11.7	4	3.6	4	-1E+10	1	-1E+10	1	-1E+10	1	-1E+10	1	-1E+10	1	-1E+10	1
4901784	24	C	03/01/2016	10:51	-131.960	44.714	0	1010.40	0	3.4240	0	34.3550	0	27.337	0	999.792	0	11.7	4	3.7	4	-1E+10	1	-1E+10	1	-1E+10	1	-1E+10	1	-1E+10	1	-1E+10	1
4901784	24	C	03/01/2016	10:51	-131.960	44.714	0	1015.70	0	3.4100	0	34.3550	0	27.339	0	1005.024	0	11.8	4	3.7	4	-1E+10	1	-1E+10	1	-1E+10	1	-1E+10	1	-1E+10	1	-1E+10	1
4901784	24	C	03/01/2016	10:51	-131.960	44.714	0	1020.10	0	3.3960	0	34.3580	0	27.343	0	1009.367	0	11.8	4	3.7	4	-1E+10	1	-1E+10	1	-1E+10	1	-1E+10	1	-1E+10	1	-1E+10	1
4901784	24	C	03/01/2016	10:51	-131.960	44.714	0	1024.60	0	3.3840	0	34.3600	0	27.345	0	1013.809	0	11.9	4	3.7	4	-1E+10	1	-1E+10	1	-1E+10	1	-1E+10	1	-1E+10	1	-1E+10	1
4901784	24	C	03/01/2016	10:51	-131.960	44.714	0	1029.90	0	3.3740	0	34.3640	0	27.349	0	1019.040	0	11.9	4	3.7	4	-1E+10	1	-1E+10	1	-1E+10	1	-1E+10	1	-1E+10	1	-1E+10	1
4901784	24	C	03/01/2016	10:51	-131.960	44.714	0	1035.20	0	3.3780	0	34.3680	0	27.352	0	1024.271	0	12.0	4	3.7	4	-1E+10	1	-1E+10	1	-1E+10	1	-1E+10	1	-1E+10	1	-1E+10	1
4901784	24	C	03/01/2016	10:51	-131.960	44.714	0	1040.50	0	3.3750	0	34.3690	0	27.353	0	1029.502	0	12.0	4	3.7	4	-1E+10	1	-1E+10	1	-1E+10	1	-1E+10	1	-1E+10	1	-1E+10	1
4901784	24	C	03/01/2016	10:51	-131.960	44.714	0	1044.90	0	3.3640	0	34.3700	0	27.355	0	1033.845	0	12.1	4	3.8	4	-1E+10	1	-1E+10	1	-1E+10	1	-1E+10	1	-1E+10	1	-1E+10	1
4901784	24	C	03/01/2016	10:51	-131.960	44.714	0	1049.30	0	3.3530	0	34.3720	0	27.358	0	1038.188	0	12.1	4	3.8	4	-1E+10	1	-1E+10	1	-1E+10	1	-1E+10	1	-1E+10	1	-1E+10	1
4901784	24	C	03/01/2016	10:51	-131.960	44.714	0	1054.70	0	3.3400	0	34.3730	0	27.360	0	1043.517	0	12.2	4	3.8	4	-1E+10	1	-1E+10	1	-1E+10	1	-1E+10	1	-1E+10	1	-1E+10	1
4901784	24	C	03/01/2016	10:51	-131.960	44.714	0	1060.10	0	3.3240	0	34.3740	0	27.362	0	1048.846	0	12.3	4	3.8	4	-1E+10	1	-1E+10	1	-1E+10	1	-1E+10	1	-1E+10	1	-1E+10	1
4901784	24	C	03/01/2016	10:51	-131.960	44.714	0	1065.30	0	3.3100	0	34.3760	0	27.365	0	1053.978	0	12.4	4	3.8	4	-1E+10	1	-1E+10	1	-1E+10	1	-1E+10	1	-1E+10	1	-1E+10	1
4901784	24	C	03/01/2016	10:51	-131.960	44.714	0	1070.70	0	3.2940	0	34.3780	0	27.368	0	1059.307	0	12.5	4	3.9	4	-1E+10	1	-1E+10	1	-1E+10	1	-1E+10	1	-1E+10	1	-1E+10	1
4901784	24	C	03/01/2016	10:51	-131.960	44.714	0	1075.10	0	3.2730	0	34.3820	0	27.374	0	1063.649	0	12.5	4	3.9	4	-1E+10	1	-1E+10	1	-1E+10	1	-1E+10	1	-1E+10	1	-1E+10	1
4901784	24	C	03/01/2016	10:51	-131.960	44.714	0	1079.50	0	3.2610	0	34.3830	0	27.376	0	1067.991	0	12.6	4	3.9	4	-1E+10	1	-1E+10	1	-1E+10	1	-1E+10	1	-1E+10	1	-1E+10	1
4901784	24	C	03/01/2016	10:51	-131.960	44.714	0	1084.90	0	3.2480	0	34.3850	0	27.378	0	1073.320	0	12.7	4	4.0	4	-1E+10	1	-1E+10	1	-1E+10	1	-1E+10	1	-1E+10	1	-1E+10	1
4901784	24	C	03/01/2016	10:51	-131.960	44.714	0	1090.40	0	3.2370	0	34.3860	0	27.380	0	1078.747	0	12.9	4	4.0	4	-1E+10	1	-1E+10	1	-1E+10	1	-1E+10	1	-1E+10	1	-1E+10	1
4901784	24	C	03/01/2016	10:51	-131.960	44.714	0	1095.50	0	3.2110	0	34.3900	0	27.386	0	1083.779	0	13.0	4	4.0	4	-1E+10	1	-1E+10	1	-1E+10	1	-1E+10	1	-1E+10	1	-1E+10	1
4901784	24	C	03/01/2016	10:51	-131.960	44.714	0	1099.70	0	3.2030	0	34.3910	0	27.387	0	1087.923	0	13.1	4	4.1	4	-1E+10	1	-1E+10	1	-1E+10	1	-1E+10	1	-1E+10	1	-1E+10	1
4901784	24	C	03/01/2016	10:51	-131.960	44.714	0	1104.40	0	3.1770	0	34.3950	0	27.393	0	1092.561	0	13.2	4	4.1	4	-1E+10	1	-1E+10	1	-1E+10	1	-1E+10	1	-1E+10	1	-1E+10	1
4901784	24	C	03/01/2016	10:51	-131.960	44.714	0	1109.90	0	3.1580	0	34.3980	0	27.397	0	1097.987	0	13.3	4	4.1	4	-1E+10	1	-1E+10	1	-1E+10	1	-1E+10	1	-1E+10	1	-1E+10	1
4901784	24	C	03/01/2016	10:51	-131.960	44.714	0	1115.00	0	3.1520	0	34.3990	0	27.399	0	1103.019	0	13.4	4	4.2	4	-1E+10	1	-1E+10	1	-1E+10	1	-1E+10	1	-1E+10	1	-1E+10	1
4901784	24	C	03/01/2016	10:51	-131.960	44.714	0	1119.30	0	3.1460	0	34.4000	0	27.400	0	1107.262	0	13.5	4	4.2	4	-1E+10	1	-1E+10	1	-1E+10	1	-1E+10	1	-1E+10	1	-1E+10	1
4901784	24	C	03/01/2016	10:51	-131.960	44.714	0	1124.50	0	3.1340	0	34.4020	0	27.403	0	1112.392	0	13.6	4	4.2	4	-1E+10	1	-1E+10	1	-1E+10	1	-1E+10	1	-1E+10	1	-1E+10	1
4901784	24	C	03/01/2016	10:51	-131.960	44.714	0	1129.80	0	3.1270	0	34.4020	0	27.403	0	1117.621	0	13.7	4	4.2	4	-1E+10	1	-1E+10	1	-1E+10	1	-1E+10	1	-1E+10	1	-1E+10	1
4901784	24	C	03/01/2016	10:51	-131.960	44.714	0	1135.10	0	3.1170	0	34.4050	0	27.407	0	1122.849	0	13.9	4	4.3	4	-1E+10	1	-1E+10	1	-1E+10	1	-1E+10	1	-1E+10	1	-1E+10	1
4901784	24	C	03/01/2016	10:51	-131.960	44.714	0	1140.40	0	3.1050	0	34.4070	0	27.409	0	1128.078	0	14.0	4	4.3	4	-1E+10	1	-1E+10	1	-1E+10	1	-1E+10	1	-1E+10	1	-1E+10	1
4901784	24	C	03/01/2016	10:51	-131.960	44.714	0	1144.90	0	3.1000	0	34.4080	0	27.411	0	1132.517	0	14.1	4	4.4	4	-1E+10	1	-1E+10	1	-1E+10	1	-1E+10	1	-1E+10	1	-1E+10	1
4901784	24	C	03/01/2016	10:51	-131.960	44.714	0	1149.40	0	3.0880	0	34.4100	0	27.413	0	1136.957	0	14.2	4	4.4	4	-1E+10	1	-1E+10	1	-1E+10	1	-1E+10	1	-1E+10	1	-1E+10	1
4901784	24	C	03/01/2016	10:51	-131.960	44.714	0	1154.90	0	3.0780	0	34.4120	0	27.416	0	1142.382	0	14.4	4	4.5	4	-1E+10	1	-1E+10	1	-1E+10	1	-1E+10	1	-1E+10	1	-1E+10	1
4901784	24	C	03/01/2016	10:51	-131.960	44.714	0	1160.30	0	3.0630	0	34.4140	0	27.419	0	1147.709	0	14.6	4	4.5	4	-1E+10	1	-1E+10	1	-1E+10	1	-1E+10	1	-1E+10	1	-1E+10	1
4901784	24	C	03/01/2016	10:51	-131.960	44.714	0	1164.80	0	3.0520	0	34.4170	0	27.422	0	1152.148	0	14.7	4	4.6	4	-1E+10	1	-1E+10	1	-1E+10	1	-1E+10	1	-1E+10	1	-1E+10	1
4901784	24	C	03/01/2016	10:51	-131.960	44.714	0	1169.30	0	3.0460	0	34.4180	0	27.424	0	1156.586	0	14.8	4	4.6	4	-1E+10	1	-1E+10	1	-1E+10	1	-1E+10	1	-1E+10	1	-1E+10	1
4901784	24	C	03/01/2016	10:51	-131.960	44.714	0	1174.80	0	3.0390	0	34.4190	0	27.425	0	1162.011	0	15.0	4	4.6	4	-1E+10	1	-1E+10	1	-1E+10	1	-1E+10	1	-1E+10	1	-1E+10	1
4901784	24	C	03/01/2016	10:51	-131.960	44.714	0	1180.20	0	3.0320	0	34.4210	0	27.427	0	1167.337	0	15.1	4	4.7	4	-1E+10	1	-1E+10	1	-1E+10	1	-1E+10	1	-1E+10	1	-1E+10	1
4901784	24	C	03/01/2016	10:51	-131.960	44.714	0	1185.70	0	3.0270	0	34.4220	0	27.429	0	1172.762	0	15.2	4	4.7	4	-1E+10	1	-1E+10	1	-1E+10	1	-1E+10	1	-1E+10	1	-1E+10	1
4901784	24	C	03/01/2016	10:51	-131.960	44.714	0	1190.30	0	3.0210	0	34.4230	0	27.430	0	1177.299	0	15.3	4	4.7	4	-1E+10	1	-1E+10	1	-1E+10	1	-1E+10	1	-1E+10	1	-1E+10	1
4901784	24	C	03/01/2016	10:51	-131.960	44.714	0	1195.00	0	3.0150	0	34.4240	0	27.432	0	1181.935	0	15.4	4	4.8	4	-1E+10	1	-1E+10	1	-1E+10	1	-1E+10	1	-1E+10	1	-1E+10	1
4901784	24	C	03/01/2016	10:51	-131.960	44.714	0	1199.80	0	3.0090	0	34.4250	0	27.433	0	1186.669	0	15.6	4	4.8	4	-1E+10	1	-1E+10	1	-1E+10	1	-1E+10	1	-1E+10	1	-1E+10	1
4901784	24	C	03/01/2016	10:51	-131.960	44.714	0	1204.50	0	2.9960	0	34.4280	0	27.436	0	1191.304	0	15.7	4	4.8	4	-1E+10	1	-1E+10	1	-1E+10	1	-1E+10	1	-1E+10	1	-1E+10	1
4901784	24	C	03/01/2016	10:51	-131.960	44.714	0	1210.20	0	2.9910	0	34.4290	0	27.438	0	1196.925	0	15.8	4	4.9	4	-1E+10	1	-1E+10	1	-1E+10	1	-1E+10	1	-1E+10	1	-1E+10	1
4901784	24	C	03/01/2016	10:51	-131.960	44.714	0	1215.00	0	2.9860	0	34.4300	0	27.439	0	1201.659	0	15.9	4	4.9	4	-1E+10	1	-1E+10	1	-1E+10	1	-1E+10	1	-1E+10	1	-1E+10	1
4901784	24	C	03/01/2016	10:51	-131.960	44.714	0	1219.80	0	2.9790	0	34.4310	0	27.440	0	1206.392	0	16.0	4	4.9	4	-1E+10	1	-1E+10	1	-1E+10	1	-1E+10	1	-1E+10	1	-1E+10	1
4901784	24	C	03/01/2016	10:51	-131.960	44.714	0	1224.70	0	2.9680	0	34.4320	0	27.442	0	1211.224	0	16.1	4	5.0	4	-1E+10	1	-1E+10	1	-1E+10	1	-1E+10	1	-1E+10	1	-1E+10	1
4901784	24	C	03/01/2016	10:51	-131.960	44.714	0	1229.60	0	2.9620	0	34.4330	0	27.444	0	1216.056	0	16.3	4	5.0	4	-1E+10	1	-1E+10	1	-1E+10	1	-1E+10	1	-1E+10	1	-1E+10	1
4901784	24	C	03/01/2016	10:51	-131.960	44.714	0	1235.50	0	2.9490	0	34.4350	0	27.446	0	1221.874	0	16.5	4	5.1	4	-1E+10	1	-1E+10	1	-1E+10	1	-1E+10	1	-1E+10	1	-1E+10	1
4901784	24	C	03/01/2016	10:51	-131.960	44.714	0	1240.10	0	2.9410	0	34.4370	0	27.449	0	1226.410	0	16.6	4	5.1	4	-1E+10	1	-1E+10	1	-1E+10	1	-1E+10	1	-1E+10	1	-1E+10	1
4901784	24	C	03/01/2016	10:51	-131.960	44.714	0	1244.80	0	2.9300	0	34.4380	0	27.451	0	1231.045	0	16.8	4	5.2	4	-1E+10	1	-1E+10	1	-1E+10	1	-1E+10	1	-1E+10	1	-1E+10	1
4901784	24	C	03/01/2016	10:51	-131.960	44.714	0	1250.20	0	2.9200	0	34.4390	0	27.452	0	1236.369	0	17.0	4	5.2	4	-1E+10	1	-1E+10	1	-1E+10	1	-1E+10	1	-1E+10	1	-1E+10	1
4901784	24	C	03/01/2016	10:51	-131.960	44.714	0	1254.80	0	2.9090	0	34.4410	0	27.455	0	1240.905	0	17.1	4	5.3	4	-1E+10	1	-1E+10	1	-1E+10	1	-1E+10	1	-1E+10	1	-1E+10	1
4901784	24	C	03/01/2016	10:51	-131.960	44.714	0	1259.70	0	2.9000	0	34.4420	0	27.457	0	1245.736	0	17.2	4	5.3	4	-1E+10	1	-1E+10	1	-1E+10	1	-1E+10	1	-1E+10	1	-1E+10	1
4901784	24	C	03/01/2016	10:51	-131.960	44.714	0	1264.80	0	2.8900	0	34.4420	0	27.457	0	1250.764	0	17.4	4	5.3	4	-1E+10	1	-1E+10	1	-1E+10	1	-1E+10	1	-1E+10	1	-1E+10	1
4901784	24	C	03/01/2016	10:51	-131.960	44.714	0	1269.60	0	2.8850	0	34.4440	0	27.460	0	1255.497	0	17.5	4	5.4	4	-1E+10	1	-1E+10	1	-1E+10	1	-1E+10	1	-1E+10	1	-1E+10	1
4901784	24	C	03/01/2016	10:51	-131.960	44.714	0	1274.40	0	2.8770	0	34.4440	0	27.460	0	1260.229	0	17.6	4	5.4	4	-1E+10	1	-1E+10	1	-1E+10	1	-1E+10	1	-1E+10	1	-1E+10	1
4901784	24	C	03/01/2016	10:51	-131.960	44.714	0	1279.30	0	2.8710	0	34.4450	0	27.462	0	1265.060	0	17.7	4	5.5	4	-1E+10	1	-1E+10	1	-1E+10	1	-1E+10	1	-1E+10	1	-1E+10	1
4901784	24	C	03/01/2016	10:51	-131.960	44.714	0	1284.30	0	2.8600	0	34.4450	0	27.463	0	1269.989	0	17.9	4	5.5	4	-1E+10	1	-1E+10	1	-1E+10	1	-1E+10	1	-1E+10	1	-1E+10	1
4901784	24	C	03/01/2016	10:51	-131.960	44.714	0	1289.20	0	2.8420	0	34.4470	0	27.466	0	1274.819	0	18.2	4	5.6	4	-1E+10	1	-1E+10	1	-1E+10	1	-1E+10	1	-1E+10	1	-1E+10	1
4901784	24	C	03/01/2016	10:51	-131.960	44.714	0	1294.30	0	2.8300	0	34.4490	0	27.469	0	1279.847	0	18.4	4	5.7	4	-1E+10	1	-1E+10	1	-1E+10	1	-1E+10	1	-1E+10	1	-1E+10	1
4901784	24	C	03/01/2016	10:51	-131.960	44.714	0	1299.40	0	2.8180	0	34.4500	0	27.470	0	1284.875	0	18.6	4	5.7	4	-1E+10	1	-1E+10	1	-1E+10	1	-1E+10	1	-1E+10	1	-1E+10	1
4901784	24	C	03/01/2016	10:51	-131.960	44.714	0	1304.60	0	2.8080	0	34.4520	0	27.473	0	1290.001	0	18.7	4	5.8	4	-1E+10	1	-1E+10	1	-1E+10	1	-1E+10	1	-1E+10	1	-1E+10	1
4901784	24	C	03/01/2016	10:51	-131.960	44.714	0	1309.80	0	2.8030	0	34.4530	0	27.474	0	1295.126	0	18.9	4	5.8	4	-1E+10	1	-1E+10	1	-1E+10	1	-1E+10	1	-1E+10	1	-1E+10	1
4901784	24	C	03/01/2016	10:51	-131.960	44.714	0	1315.00	0	2.7950	0	34.4540	0	27.476	0	1300.252	0	19.0	4	5.8	4	-1E+10	1	-1E+10	1	-1E+10	1	-1E+10	1	-1E+10	1	-1E+10	1
4901784	24	C	03/01/2016	10:51	-131.960	44.714	0	1320.30	0	2.7870	0	34.4560	0	27.478	0	1305.476	0	19.2	4	5.9	4	-1E+10	1	-1E+10	1	-1E+10	1	-1E+10	1	-1E+10	1	-1E+10	1
4901784	24	C	03/01/2016	10:51	-131.960	44.714	0	1325.60	0	2.7820	0	34.4570	0	27.479	0	1310.700	0	19.3	4	5.9	4	-1E+10	1	-1E+10	1	-1E+10	1	-1E+10	1	-1E+10	1	-1E+10	1
4901784	24	C	03/01/2016	10:51	-131.960	44.714	0	1330.00	0	2.7790	0	34.4580	0	27.480	0	1315.037	0	19.4	4	6.0	4	-1E+10	1	-1E+10	1	-1E+10	1	-1E+10	1	-1E+10	1	-1E+10	1
4901784	24	C	03/01/2016	10:51	-131.960	44.714	0	1334.50	0	2.7750	0	34.4590	0	27.482	0	1319.472	0	19.6	4	6.0	4	-1E+10	1	-1E+10	1	-1E+10	1	-1E+10	1	-1E+10	1	-1E+10	1
4901784	24	C	03/01/2016	10:51	-131.960	44.714	0	1339.90	0	2.7670	0	34.4610	0	27.484	0	1324.795	0	19.8	4	6.1	4	-1E+10	1	-1E+10	1	-1E+10	1	-1E+10	1	-1E+10	1	-1E+10	1
4901784	24	C	03/01/2016	10:51	-131.960	44.714	0	1345.30	0	2.7540	0	34.4620	0	27.486	0	1330.117	0	20.1	4	6.2	4	-1E+10	1	-1E+10	1	-1E+10	1	-1E+10	1	-1E+10	1	-1E+10	1
4901784	24	C	03/01/2016	10:51	-131.960	44.714	0	1349.90	0	2.7500	0	34.4640	0	27.488	0	1334.650	0	20.3	4	6.2	4	-1E+10	1	-1E+10	1	-1E+10	1	-1E+10	1	-1E+10	1	-1E+10	1
4901784	24	C	03/01/2016	10:51	-131.960	44.714	0	1354.40	0	2.7410	0	34.4670	0	27.491	0	1339.085	0	20.6	4	6.3	4	-1E+10	1	-1E+10	1	-1E+10	1	-1E+10	1	-1E+10	1	-1E+10	1
4901784	24	C	03/01/2016	10:51	-131.960	44.714	0	1359.90	0	2.7290	0	34.4680	0	27.493	0	1344.505	0	20.8	4	6.4	4	-1E+10	1	-1E+10	1	-1E+10	1	-1E+10	1	-1E+10	1	-1E+10	1
4901784	24	C	03/01/2016	10:51	-131.960	44.714	0	1365.40	0	2.7210	0	34.4690	0	27.494	0	1349.926	0	21.1	4	6.5	4	-1E+10	1	-1E+10	1	-1E+10	1	-1E+10	1	-1E+10	1	-1E+10	1
4901784	24	C	03/01/2016	10:51	-131.960	44.714	0	1370.00	0	2.7140	0	34.4700	0	27.496	0	1354.459	0	21.3	4	6.5	4	-1E+10	1	-1E+10	1	-1E+10	1	-1E+10	1	-1E+10	1	-1E+10	1
4901784	24	C	03/01/2016	10:51	-131.960	44.714	0	1374.90	0	2.7020	0	34.4720	0	27.498	0	1359.287	0	21.6	4	6.6	4	-1E+10	1	-1E+10	1	-1E+10	1	-1E+10	1	-1E+10	1	-1E+10	1
4901784	24	C	03/01/2016	10:51	-131.960	44.714	0	1380.10	0	2.6920	0	34.4730	0	27.500	0	1364.411	0	22.0	4	6.7	4	-1E+10	1	-1E+10	1	-1E+10	1	-1E+10	1	-1E+10	1	-1E+10	1
4901784	24	C	03/01/2016	10:51	-131.960	44.714	0	1384.90	0	2.6750	0	34.4760	0	27.504	0	1369.141	0	22.3	4	6.8	4	-1E+10	1	-1E+10	1	-1E+10	1	-1E+10	1	-1E+10	1	-1E+10	1
4901784	24	C	03/01/2016	10:51	-131.960	44.714	0	1389.80	0	2.6660	0	34.4770	0	27.506	0	1373.970	0	22.6	4	6.9	4	-1E+10	1	-1E+10	1	-1E+10	1	-1E+10	1	-1E+10	1	-1E+10	1
4901784	24	C	03/01/2016	10:51	-131.960	44.714	0	1394.70	0	2.6580	0	34.4780	0	27.507	0	1378.798	0	22.8	4	7.0	4	-1E+10	1	-1E+10	1	-1E+10	1	-1E+10	1	-1E+10	1	-1E+10	1
4901784	24	C	03/01/2016	10:51	-131.960	44.714	0	1399.70	0	2.6530	0	34.4780	0	27.508	0	1383.724	0	22.9	4	7.0	4	-1E+10	1	-1E+10	1	-1E+10	1	-1E+10	1	-1E+10	1	-1E+10	1
4901784	24	C	03/01/2016	10:51	-131.960	44.714	0	1404.60	0	2.6480	0	34.4800	0	27.510	0	1388.552	0	23.2	4	7.1	4	-1E+10	1	-1E+10	1	-1E+10	1	-1E+10	1	-1E+10	1	-1E+10	1
4901784	24	C	03/01/2016	10:51	-131.960	44.714	0	1409.60	0	2.6410	0	34.4800	0	27.510	0	1393.479	0	23.4	4	7.2	4	-1E+10	1	-1E+10	1	-1E+10	1	-1E+10	1	-1E+10	1	-1E+10	1
4901784	24	C	03/01/2016	10:51	-131.960	44.714	0	1414.50	0	2.6300	0	34.4810	0	27.512	0	1398.306	0	23.8	4	7.3	4	-1E+10	1	-1E+10	1	-1E+10	1	-1E+10	1	-1E+10	1	-1E+10	1
4901784	24	C	03/01/2016	10:51	-131.960	44.714	0	1419.40	0	2.6180	0	34.4830	0	27.515	0	1403.134	0	24.1	4	7.4	4	-1E+10	1	-1E+10	1	-1E+10	1	-1E+10	1	-1E+10	1	-1E+10	1
4901784	24	C	03/01/2016	10:51	-131.960	44.714	0	1424.40	0	2.6100	0	34.4840	0	27.516	0	1408.060	0	24.3	4	7.4	4	-1E+10	1	-1E+10	1	-1E+10	1	-1E+10	1	-1E+10	1	-1E+10	1
4901784	24	C	03/01/2016	10:51	-131.960	44.714	0	1429.40	0	2.6040	0	34.4850	0	27.518	0	1412.986	0	24.5	4	7.5	4	-1E+10	1	-1E+10	1	-1E+10	1	-1E+10	1	-1E+10	1	-1E+10	1
4901784	24	C	03/01/2016	10:51	-131.960	44.714	0	1434.40	0	2.5960	0	34.4860	0	27.519	0	1417.912	0	24.9	4	7.6	4	-1E+10	1	-1E+10	1	-1E+10	1	-1E+10	1	-1E+10	1	-1E+10	1
4901784	24	C	03/01/2016	10:51	-131.960	44.714	0	1439.40	0	2.5870	0	34.4870	0	27.521	0	1422.838	0	25.3	4	7.7	4	-1E+10	1	-1E+10	1	-1E+10	1	-1E+10	1	-1E+10	1	-1E+10	1
4901784	24	C	03/01/2016	10:51	-131.960	44.714	0	1444.40	0	2.5750	0	34.4890	0	27.523	0	1427.763	0	25.7	4	7.8	4	-1E+10	1	-1E+10	1	-1E+10	1	-1E+10	1	-1E+10	1	-1E+10	1
4901784	24	C	03/01/2016	10:51	-131.960	44.714	0	1449.50	0	2.5630	0	34.4900	0	27.525	0	1432.787	0	26.0	4	7.9	4	-1E+10	1	-1E+10	1	-1E+10	1	-1E+10	1	-1E+10	1	-1E+10	1
4901784	24	C	03/01/2016	10:51	-131.960	44.714	0	1454.40	0	2.5530	0	34.4920	0	27.528	0	1437.614	0	26.3	4	8.0	4	-1E+10	1	-1E+10	1	-1E+10	1	-1E+10	1	-1E+10	1	-1E+10	1
4901784	24	C	03/01/2016	10:51	-131.960	44.714	0	1459.50	0	2.5400	0	34.4930	0	27.530	0	1442.638	0	26.6	4	8.1	4	-1E+10	1	-1E+10	1	-1E+10	1	-1E+10	1	-1E+10	1	-1E+10	1
4901784	24	C	03/01/2016	10:51	-131.960	44.714	0	1464.60	0	2.5330	0	34.4940	0	27.531	0	1447.661	0	26.8	4	8.2	4	-1E+10	1	-1E+10	1	-1E+10	1	-1E+10	1	-1E+10	1	-1E+10	1
4901784	24	C	03/01/2016	10:51	-131.960	44.714	0	1469.70	0	2.5240	0	34.4940	0	27.532	0	1452.685	0	27.1	4	8.3	4	-1E+10	1	-1E+10	1	-1E+10	1	-1E+10	1	-1E+10	1	-1E+10	1
4901784	24	C	03/01/2016	10:51	-131.960	44.714	0	1474.80	0	2.5110	0	34.4960	0	27.534	0	1457.708	0	27.4	4	8.4	4	-1E+10	1	-1E+10	1	-1E+10	1	-1E+10	1	-1E+10	1	-1E+10	1
4901784	24	C	03/01/2016	10:51	-131.960	44.714	0	1480.00	0	2.5070	0	34.4970	0	27.536	0	1462.830	0	27.6	4	8.4	4	-1E+10	1	-1E+10	1	-1E+10	1	-1E+10	1	-1E+10	1	-1E+10	1
4901784	24	C	03/01/2016	10:51	-131.960	44.714	0	1485.20	0	2.5020	0	34.4970	0	27.536	0	1467.951	0	27.7	4	8.5	4	-1E+10	1	-1E+10	1	-1E+10	1	-1E+10	1	-1E+10	1	-1E+10	1
4901784	24	C	03/01/2016	10:51	-131.960	44.714	0	1490.40	0	2.4990	0	34.4980	0	27.537	0	1473.073	0	28.0	4	8.5	4	-1E+10	1	-1E+10	1	-1E+10	1	-1E+10	1	-1E+10	1	-1E+10	1
4901784	24	C	03/01/2016	10:51	-131.960	44.714	0	1495.60	0	2.4880	0	34.4990	0	27.539	0	1478.194	0	28.3	4	8.6	4	-1E+10	1	-1E+10	1	-1E+10	1	-1E+10	1	-1E+10	1	-1E+10	1
4901784	24	C	03/01/2016	10:51	-131.960	44.714	0	1500.00	0	2.4810	0	34.5000	0	27.540	0	1482.528	0	28.6	4	8.7	4	-1E+10	1	-1E+10	1	-1E+10	1	-1E+10	1	-1E+10	1	-1E+10	1
4901784	24	C	03/01/2016	10:51	-131.960	44.714	0	1504.40	0	2.4710	0	34.5010	0	27.542	0	1486.861	0	28.8	4	8.8	4	-1E+10	1	-1E+10	1	-1E+10	1	-1E+10	1	-1E+10	1	-1E+10	1
4901784	24	C	03/01/2016	10:51	-131.960	44.714	0	1509.70	0	2.4670	0	34.5020	0	27.543	0	1492.080	0	29.0	4	8.8	4	-1E+10	1	-1E+10	1	-1E+10	1	-1E+10	1	-1E+10	1	-1E+10	1
4901784	24	C	03/01/2016	10:51	-131.960	44.714	0	1515.10	0	2.4620	0	34.5020	0	27.544	0	1497.398	0	29.2	4	8.9	4	-1E+10	1	-1E+10	1	-1E+10	1	-1E+10	1	-1E+10	1	-1E+10	1
4901784	24	C	03/01/2016	10:51	-131.960	44.714	0	1520.40	0	2.4550	0	34.5030	0	27.545	0	1502.618	0	29.5	4	9.0	4	-1E+10	1	-1E+10	1	-1E+10	1	-1E+10	1	-1E+10	1	-1E+10	1
4901784	24	C	03/01/2016	10:51	-131.960	44.714	0	1525.00	0	2.4460	0	34.5040	0	27.547	0	1507.147	0	29.8	4	9.1	4	-1E+10	1	-1E+10	1	-1E+10	1	-1E+10	1	-1E+10	1	-1E+10	1
4901784	24	C	03/01/2016	10:51	-131.960	44.714	0	1529.50	0	2.4410	0	34.5040	0	27.547	0	1511.579	0	30.1	4	9.2	4	-1E+10	1	-1E+10	1	-1E+10	1	-1E+10	1	-1E+10	1	-1E+10	1
4901784	24	C	03/01/2016	10:51	-131.960	44.714	0	1534.90	0	2.4300	0	34.5060	0	27.550	0	1516.896	0	30.4	4	9.3	4	-1E+10	1	-1E+10	1	-1E+10	1	-1E+10	1	-1E+10	1	-1E+10	1
4901784	24	C	03/01/2016	10:51	-131.960	44.714	0	1540.20	0	2.4230	0	34.5070	0	27.551	0	1522.115	0	30.6	4	9.3	4	-1E+10	1	-1E+10	1	-1E+10	1	-1E+10	1	-1E+10	1	-1E+10	1
4901784	24	C	03/01/2016	10:51	-131.960	44.714	0	1545.60	0	2.4190	0	34.5070	0	27.551	0	1527.432	0	30.9	4	9.4	4	-1E+10	1	-1E+10	1	-1E+10	1	-1E+10	1	-1E+10	1	-1E+10	1
4901784	24	C	03/01/2016	10:51	-131.960	44.714	0	1550.10	0	2.4120	0	34.5080	0	27.553	0	1531.863	0	31.1	4	9.5	4	-1E+10	1	-1E+10	1	-1E+10	1	-1E+10	1	-1E+10	1	-1E+10	1
4901784	24	C	03/01/2016	10:51	-131.960	44.714	0	1554.60	0	2.4070	0	34.5090	0	27.554	0	1536.293	0	31.3	4	9.5	4	-1E+10	1	-1E+10	1	-1E+10	1	-1E+10	1	-1E+10	1	-1E+10	1
4901784	24	C	03/01/2016	10:51	-131.960	44.714	0	1560.00	0	2.4020	0	34.5090	0	27.554	0	1541.610	0	31.5	4	9.6	4	-1E+10	1	-1E+10	1	-1E+10	1	-1E+10	1	-1E+10	1	-1E+10	1
4901784	24	C	03/01/2016	10:51	-131.960	44.714	0	1565.50	0	2.3930	0	34.5100	0	27.556	0	1547.025	0	31.8	4	9.7	4	-1E+10	1	-1E+10	1	-1E+10	1	-1E+10	1	-1E+10	1	-1E+10	1
4901784	24	C	03/01/2016	10:51	-131.960	44.714	0	1570.00	0	2.3860	0	34.5110	0	27.557	0	1551.456	0	32.1	4	9.8	4	-1E+10	1	-1E+10	1	-1E+10	1	-1E+10	1	-1E+10	1	-1E+10	1
4901784	24	C	03/01/2016	10:51	-131.960	44.714	0	1574.60	0	2.3790	0	34.5120	0	27.559	0	1555.984	0	32.4	4	9.9	4	-1E+10	1	-1E+10	1	-1E+10	1	-1E+10	1	-1E+10	1	-1E+10	1
4901784	24	C	03/01/2016	10:51	-131.960	44.714	0	1580.20	0	2.3700	0	34.5130	0	27.560	0	1561.497	0	32.7	4	9.9	4	-1E+10	1	-1E+10	1	-1E+10	1	-1E+10	1	-1E+10	1	-1E+10	1
4901784	24	C	03/01/2016	10:51	-131.960	44.714	0	1584.90	0	2.3650	0	34.5140	0	27.562	0	1566.125	0	32.9	4	10.0	4	-1E+10	1	-1E+10	1	-1E+10	1	-1E+10	1	-1E+10	1	-1E+10	1
4901784	24	C	03/01/2016	10:51	-131.960	44.714	0	1589.60	0	2.3610	0	34.5140	0	27.562	0	1570.751	0	33.2	4	10.1	4	-1E+10	1	-1E+10	1	-1E+10	1	-1E+10	1	-1E+10	1	-1E+10	1
4901784	24	C	03/01/2016	10:51	-131.960	44.714	0	1595.10	0	2.3490	0	34.5160	0	27.565	0	1576.166	0	33.6	4	10.2	4	-1E+10	1	-1E+10	1	-1E+10	1	-1E+10	1	-1E+10	1	-1E+10	1
4901784	24	C	03/01/2016	10:51	-131.960	44.714	0	1600.60	0	2.3350	0	34.5170	0	27.567	0	1581.580	0	34.1	4	10.4	4	-1E+10	1	-1E+10	1	-1E+10	1	-1E+10	1	-1E+10	1	-1E+10	1
4901784	24	C	03/01/2016	10:51	-131.960	44.714	0	1605.50	0	2.3300	0	34.5180	0	27.568	0	1586.403	0	34.4	4	10.5	4	-1E+10	1	-1E+10	1	-1E+10	1	-1E+10	1	-1E+10	1	-1E+10	1
4901784	24	C	03/01/2016	10:51	-131.960	44.714	0	1610.50	0	2.3220	0	34.5190	0	27.569	0	1591.325	0	34.7	4	10.5	4	-1E+10	1	-1E+10	1	-1E+10	1	-1E+10	1	-1E+10	1	-1E+10	1
4901784	24	C	03/01/2016	10:51	-131.960	44.714	0	1615.40	0	2.3170	0	34.5200	0	27.570	0	1596.148	0	34.9	4	10.6	4	-1E+10	1	-1E+10	1	-1E+10	1	-1E+10	1	-1E+10	1	-1E+10	1
4901784	24	C	03/01/2016	10:51	-131.960	44.714	0	1620.50	0	2.3110	0	34.5200	0	27.571	0	1601.168	0	35.2	4	10.7	4	-1E+10	1	-1E+10	1	-1E+10	1	-1E+10	1	-1E+10	1	-1E+10	1
4901784	24	C	03/01/2016	10:51	-131.960	44.714	0	1625.50	0	2.3050	0	34.5210	0	27.572	0	1606.090	0	35.6	4	10.8	4	-1E+10	1	-1E+10	1	-1E+10	1	-1E+10	1	-1E+10	1	-1E+10	1
4901784	24	C	03/01/2016	10:51	-131.960	44.714	0	1630.60	0	2.2940	0	34.5230	0	27.575	0	1611.109	0	36.0	4	10.9	4	-1E+10	1	-1E+10	1	-1E+10	1	-1E+10	1	-1E+10	1	-1E+10	1
4901784	24	C	03/01/2016	10:51	-131.960	44.714	0	1635.70	0	2.2880	0	34.5240	0	27.576	0	1616.129	0	36.3	4	11.0	4	-1E+10	1	-1E+10	1	-1E+10	1	-1E+10	1	-1E+10	1	-1E+10	1
4901784	24	C	03/01/2016	10:51	-131.960	44.714	0	1640.70	0	2.2830	0	34.5240	0	27.577	0	1621.050	0	36.5	4	11.1	4	-1E+10	1	-1E+10	1	-1E+10	1	-1E+10	1	-1E+10	1	-1E+10	1
4901784	24	C	03/01/2016	10:51	-131.960	44.714	0	1645.00	0	2.2800	0	34.5250	0	27.578	0	1625.282	0	36.8	4	11.2	4	-1E+10	1	-1E+10	1	-1E+10	1	-1E+10	1	-1E+10	1	-1E+10	1
4901784	24	C	03/01/2016	10:51	-131.960	44.714	0	1649.40	0	2.2740	0	34.5250	0	27.578	0	1629.612	0	37.1	4	11.3	4	-1E+10	1	-1E+10	1	-1E+10	1	-1E+10	1	-1E+10	1	-1E+10	1
4901784	24	C	03/01/2016	10:51	-131.960	44.714	0	1654.70	0	2.2660	0	34.5260	0	27.580	0	1634.828	0	37.5	4	11.4	4	-1E+10	1	-1E+10	1	-1E+10	1	-1E+10	1	-1E+10	1	-1E+10	1
4901784	24	C	03/01/2016	10:51	-131.960	44.714	0	1659.90	0	2.2580	0	34.5270	0	27.581	0	1639.946	0	37.8	4	11.5	4	-1E+10	1	-1E+10	1	-1E+10	1	-1E+10	1	-1E+10	1	-1E+10	1
4901784	24	C	03/01/2016	10:51	-131.960	44.714	0	1665.20	0	2.2540	0	34.5280	0	27.582	0	1645.161	0	38.1	4	11.6	4	-1E+10	1	-1E+10	1	-1E+10	1	-1E+10	1	-1E+10	1	-1E+10	1
4901784	24	C	03/01/2016	10:51	-131.960	44.714	0	1670.50	0	2.2430	0	34.5290	0	27.584	0	1650.377	0	38.5	4	11.7	4	-1E+10	1	-1E+10	1	-1E+10	1	-1E+10	1	-1E+10	1	-1E+10	1
4901784	24	C	03/01/2016	10:51	-131.960	44.714	0	1674.90	0	2.2390	0	34.5300	0	27.585	0	1654.707	0	38.8	4	11.8	4	-1E+10	1	-1E+10	1	-1E+10	1	-1E+10	1	-1E+10	1	-1E+10	1
4901784	24	C	03/01/2016	10:51	-131.960	44.714	0	1679.30	0	2.2310	0	34.5310	0	27.587	0	1659.037	0	39.2	4	11.9	4	-1E+10	1	-1E+10	1	-1E+10	1	-1E+10	1	-1E+10	1	-1E+10	1
4901784	24	C	03/01/2016	10:51	-131.960	44.714	0	1684.70	0	2.2220	0	34.5320	0	27.588	0	1664.350	0	39.6	4	12.0	4	-1E+10	1	-1E+10	1	-1E+10	1	-1E+10	1	-1E+10	1	-1E+10	1
4901784	24	C	03/01/2016	10:51	-131.960	44.714	0	1690.00	0	2.2150	0	34.5330	0	27.590	0	1669.565	0	39.9	4	12.1	4	-1E+10	1	-1E+10	1	-1E+10	1	-1E+10	1	-1E+10	1	-1E+10	1
4901784	24	C	03/01/2016	10:51	-131.960	44.714	0	1695.40	0	2.2090	0	34.5340	0	27.591	0	1674.879	0	40.2	4	12.2	4	-1E+10	1	-1E+10	1	-1E+10	1	-1E+10	1	-1E+10	1	-1E+10	1
4901784	24	C	03/01/2016	10:51	-131.960	44.714	0	1699.90	0	2.2060	0	34.5340	0	27.591	0	1679.307	0	40.4	4	12.3	4	-1E+10	1	-1E+10	1	-1E+10	1	-1E+10	1	-1E+10	1	-1E+10	1
4901784	24	C	03/01/2016	10:51	-131.960	44.714	0	1704.40	0	2.2010	0	34.5350	0	27.592	0	1683.734	0	40.8	4	12.3	4	-1E+10	1	-1E+10	1	-1E+10	1	-1E+10	1	-1E+10	1	-1E+10	1
4901784	24	C	03/01/2016	10:51	-131.960	44.714	0	1709.80	0	2.1920	0	34.5360	0	27.594	0	1689.047	0	41.2	4	12.5	4	-1E+10	1	-1E+10	1	-1E+10	1	-1E+10	1	-1E+10	1	-1E+10	1
4901784	24	C	03/01/2016	10:51	-131.960	44.714	0	1715.20	0	2.1860	0	34.5370	0	27.595	0	1694.360	0	41.4	4	12.5	4	-1E+10	1	-1E+10	1	-1E+10	1	-1E+10	1	-1E+10	1	-1E+10	1
4901784	24	C	03/01/2016	10:51	-131.960	44.714	0	1720.60	0	2.1830	0	34.5370	0	27.595	0	1699.673	0	41.7	4	12.6	4	-1E+10	1	-1E+10	1	-1E+10	1	-1E+10	1	-1E+10	1	-1E+10	1
4901784	24	C	03/01/2016	10:51	-131.960	44.714	0	1725.20	0	2.1760	0	34.5390	0	27.598	0	1704.198	0	42.0	4	12.7	4	-1E+10	1	-1E+10	1	-1E+10	1	-1E+10	1	-1E+10	1	-1E+10	1
4901784	24	C	03/01/2016	10:51	-131.960	44.714	0	1729.80	0	2.1710	0	34.5390	0	27.598	0	1708.724	0	42.3	4	12.8	4	-1E+10	1	-1E+10	1	-1E+10	1	-1E+10	1	-1E+10	1	-1E+10	1
4901784	24	C	03/01/2016	10:51	-131.960	44.714	0	1735.30	0	2.1660	0	34.5400	0	27.599	0	1714.135	0	42.6	4	12.9	4	-1E+10	1	-1E+10	1	-1E+10	1	-1E+10	1	-1E+10	1	-1E+10	1
4901784	24	C	03/01/2016	10:51	-131.960	44.714	0	1739.90	0	2.1610	0	34.5410	0	27.600	0	1718.660	0	42.9	4	13.0	4	-1E+10	1	-1E+10	1	-1E+10	1	-1E+10	1	-1E+10	1	-1E+10	1
4901784	24	C	03/01/2016	10:51	-131.960	44.714	0	1744.50	0	2.1580	0	34.5410	0	27.601	0	1723.185	0	43.2	4	13.1	4	-1E+10	1	-1E+10	1	-1E+10	1	-1E+10	1	-1E+10	1	-1E+10	1
4901784	24	C	03/01/2016	10:51	-131.960	44.714	0	1750.20	0	2.1520	0	34.5420	0	27.602	0	1728.792	0	43.5	4	13.2	4	-1E+10	1	-1E+10	1	-1E+10	1	-1E+10	1	-1E+10	1	-1E+10	1
4901784	24	C	03/01/2016	10:51	-131.960	44.714	0	1754.80	0	2.1460	0	34.5430	0	27.603	0	1733.317	0	43.8	4	13.3	4	-1E+10	1	-1E+10	1	-1E+10	1	-1E+10	1	-1E+10	1	-1E+10	1
4901784	24	C	03/01/2016	10:51	-131.960	44.714	0	1759.50	0	2.1420	0	34.5430	0	27.604	0	1737.941	0	44.1	4	13.3	4	-1E+10	1	-1E+10	1	-1E+10	1	-1E+10	1	-1E+10	1	-1E+10	1
4901784	24	C	03/01/2016	10:51	-131.960	44.714	0	1765.00	0	2.1340	0	34.5440	0	27.605	0	1743.351	0	44.5	4	13.5	4	-1E+10	1	-1E+10	1	-1E+10	1	-1E+10	1	-1E+10	1	-1E+10	1
4901784	24	C	03/01/2016	10:51	-131.960	44.714	0	1770.50	0	2.1280	0	34.5450	0	27.606	0	1748.761	0	44.9	4	13.6	4	-1E+10	1	-1E+10	1	-1E+10	1	-1E+10	1	-1E+10	1	-1E+10	1
4901784	24	C	03/01/2016	10:51	-131.960	44.714	0	1775.50	0	2.1200	0	34.5460	0	27.608	0	1753.679	0	45.4	4	13.7	4	-1E+10	1	-1E+10	1	-1E+10	1	-1E+10	1	-1E+10	1	-1E+10	1
4901784	24	C	03/01/2016	10:51	-131.960	44.714	0	1780.40	0	2.1150	0	34.5470	0	27.609	0	1758.498	0	45.6	4	13.8	4	-1E+10	1	-1E+10	1	-1E+10	1	-1E+10	1	-1E+10	1	-1E+10	1
4901784	24	C	03/01/2016	10:51	-131.960	44.714	0	1785.40	0	2.1110	0	34.5480	0	27.610	0	1763.416	0	46.0	4	13.9	4	-1E+10	1	-1E+10	1	-1E+10	1	-1E+10	1	-1E+10	1	-1E+10	1
4901784	24	C	03/01/2016	10:51	-131.960	44.714	0	1790.40	0	2.1030	0	34.5490	0	27.612	0	1768.333	0	46.4	4	14.0	4	-1E+10	1	-1E+10	1	-1E+10	1	-1E+10	1	-1E+10	1	-1E+10	1
4901784	24	C	03/01/2016	10:51	-131.960	44.714	0	1795.40	0	2.0980	0	34.5500	0	27.613	0	1773.251	0	46.7	4	14.1	4	-1E+10	1	-1E+10	1	-1E+10	1	-1E+10	1	-1E+10	1	-1E+10	1
4901784	24	C	03/01/2016	10:51	-131.960	44.714	0	1800.40	0	2.0940	0	34.5500	0	27.613	0	1778.168	0	47.0	4	14.2	4	-1E+10	1	-1E+10	1	-1E+10	1	-1E+10	1	-1E+10	1	-1E+10	1
4901784	24	C	03/01/2016	10:51	-131.960	44.714	0	1805.50	0	2.0860	0	34.5510	0	27.615	0	1783.184	0	47.4	4	14.3	4	-1E+10	1	-1E+10	1	-1E+10	1	-1E+10	1	-1E+10	1	-1E+10	1
4901784	24	C	03/01/2016	10:51	-131.960	44.714	0	1810.50	0	2.0830	0	34.5520	0	27.616	0	1788.101	0	47.5	4	14.4	4	-1E+10	1	-1E+10	1	-1E+10	1	-1E+10	1	-1E+10	1	-1E+10	1
4901784	24	C	03/01/2016	10:51	-131.960	44.714	0	1815.60	0	2.0790	0	34.5520	0	27.616	0	1793.116	0	47.8	4	14.4	4	-1E+10	1	-1E+10	1	-1E+10	1	-1E+10	1	-1E+10	1	-1E+10	1
4901784	24	C	03/01/2016	10:51	-131.960	44.714	0	1820.60	0	2.0750	0	34.5520	0	27.617	0	1798.033	0	48.1	4	14.5	4	-1E+10	1	-1E+10	1	-1E+10	1	-1E+10	1	-1E+10	1	-1E+10	1
4901784	24	C	03/01/2016	10:51	-131.960	44.714	0	1825.70	0	2.0640	0	34.5540	0	27.619	0	1803.049	0	48.5	4	14.6	4	-1E+10	1	-1E+10	1	-1E+10	1	-1E+10	1	-1E+10	1	-1E+10	1
4901784	24	C	03/01/2016	10:51	-131.960	44.714	0	1830.00	0	2.0600	0	34.5550	0	27.620	0	1807.277	0	48.7	4	14.7	4	-1E+10	1	-1E+10	1	-1E+10	1	-1E+10	1	-1E+10	1	-1E+10	1
4901784	24	C	03/01/2016	10:51	-131.960	44.714	0	1834.30	0	2.0560	0	34.5550	0	27.620	0	1811.505	0	48.9	4	14.8	4	-1E+10	1	-1E+10	1	-1E+10	1	-1E+10	1	-1E+10	1	-1E+10	1
4901784	24	C	03/01/2016	10:51	-131.960	44.714	0	1839.50	0	2.0520	0	34.5560	0	27.622	0	1816.618	0	49.1	4	14.8	4	-1E+10	1	-1E+10	1	-1E+10	1	-1E+10	1	-1E+10	1	-1E+10	1
4901784	24	C	03/01/2016	10:51	-131.960	44.714	0	1844.70	0	2.0500	0	34.5560	0	27.622	0	1821.731	0	49.4	4	14.9	4	-1E+10	1	-1E+10	1	-1E+10	1	-1E+10	1	-1E+10	1	-1E+10	1
4901784	24	C	03/01/2016	10:51	-131.960	44.714	0	1849.90	0	2.0410	0	34.5570	0	27.623	0	1826.844	0	50.0	4	15.1	4	-1E+10	1	-1E+10	1	-1E+10	1	-1E+10	1	-1E+10	1	-1E+10	1
4901784	24	C	03/01/2016	10:51	-131.960	44.714	0	1855.00	0	2.0340	0	34.5580	0	27.625	0	1831.859	0	50.2	4	15.2	4	-1E+10	1	-1E+10	1	-1E+10	1	-1E+10	1	-1E+10	1	-1E+10	1
4901784	24	C	03/01/2016	10:51	-131.960	44.714	0	1860.30	0	2.0330	0	34.5590	0	27.626	0	1837.070	0	50.4	4	15.2	4	-1E+10	1	-1E+10	1	-1E+10	1	-1E+10	1	-1E+10	1	-1E+10	1
4901784	24	C	03/01/2016	10:51	-131.960	44.714	0	1865.50	0	2.0300	0	34.5590	0	27.626	0	1842.182	0	50.6	4	15.3	4	-1E+10	1	-1E+10	1	-1E+10	1	-1E+10	1	-1E+10	1	-1E+10	1
4901784	24	C	03/01/2016	10:51	-131.960	44.714	0	1869.90	0	2.0280	0	34.5590	0	27.626	0	1846.508	0	50.8	4	15.3	4	-1E+10	1	-1E+10	1	-1E+10	1	-1E+10	1	-1E+10	1	-1E+10	1
4901784	24	C	03/01/2016	10:51	-131.960	44.714	0	1874.30	0	2.0200	0	34.5600	0	27.627	0	1850.834	0	51.1	4	15.4	4	-1E+10	1	-1E+10	1	-1E+10	1	-1E+10	1	-1E+10	1	-1E+10	1
4901784	24	C	03/01/2016	10:51	-131.960	44.714	0	1879.60	0	2.0180	0	34.5600	0	27.628	0	1856.045	0	51.3	4	15.5	4	-1E+10	1	-1E+10	1	-1E+10	1	-1E+10	1	-1E+10	1	-1E+10	1
4901784	24	C	03/01/2016	10:51	-131.960	44.714	0	1884.90	0	2.0120	0	34.5620	0	27.630	0	1861.255	0	51.5	4	15.5	4	-1E+10	1	-1E+10	1	-1E+10	1	-1E+10	1	-1E+10	1	-1E+10	1
4901784	24	C	03/01/2016	10:51	-131.960	44.714	0	1890.20	0	2.0090	0	34.5620	0	27.630	0	1866.465	0	51.7	4	15.6	4	-1E+10	1	-1E+10	1	-1E+10	1	-1E+10	1	-1E+10	1	-1E+10	1
4901784	24	C	03/01/2016	10:51	-131.960	44.714	0	1895.50	0	2.0090	0	34.5620	0	27.630	0	1871.676	0	51.9	4	15.6	4	-1E+10	1	-1E+10	1	-1E+10	1	-1E+10	1	-1E+10	1	-1E+10	1
4901784	24	C	03/01/2016	10:51	-131.960	44.714	0	1899.90	0	2.0040	0	34.5630	0	27.631	0	1876.001	0	52.2	4	15.7	4	-1E+10	1	-1E+10	1	-1E+10	1	-1E+10	1	-1E+10	1	-1E+10	1
4901784	24	C	03/01/2016	10:51	-131.960	44.714	0	1904.30	0	2.0000	0	34.5630	0	27.632	0	1880.326	0	52.4	4	15.8	4	-1E+10	1	-1E+10	1	-1E+10	1	-1E+10	1	-1E+10	1	-1E+10	1
4901784	24	C	03/01/2016	10:51	-131.960	44.714	0	1909.60	0	1.9950	0	34.5640	0	27.633	0	1885.536	0	52.7	4	15.9	4	-1E+10	1	-1E+10	1	-1E+10	1	-1E+10	1	-1E+10	1	-1E+10	1
4901784	24	C	03/01/2016	10:51	-131.960	44.714	0	1915.00	0	1.9920	0	34.5640	0	27.633	0	1890.844	0	53.0	4	16.0	4	-1E+10	1	-1E+10	1	-1E+10	1	-1E+10	1	-1E+10	1	-1E+10	1
4901784	24	C	03/01/2016	10:51	-131.960	44.714	0	1920.30	0	1.9860	0	34.5650	0	27.634	0	1896.053	0	53.3	4	16.1	4	-1E+10	1	-1E+10	1	-1E+10	1	-1E+10	1	-1E+10	1	-1E+10	1
4901784	24	C	03/01/2016	10:51	-131.960	44.714	0	1925.60	0	1.9820	0	34.5660	0	27.636	0	1901.263	0	53.6	4	16.1	4	-1E+10	1	-1E+10	1	-1E+10	1	-1E+10	1	-1E+10	1	-1E+10	1
4901784	24	C	03/01/2016	10:51	-131.960	44.714	0	1930.20	0	1.9810	0	34.5660	0	27.636	0	1905.784	0	53.7	4	16.2	4	-1E+10	1	-1E+10	1	-1E+10	1	-1E+10	1	-1E+10	1	-1E+10	1
4901784	24	C	03/01/2016	10:51	-131.960	44.714	0	1934.70	0	1.9800	0	34.5670	0	27.637	0	1910.207	0	54.0	4	16.3	4	-1E+10	1	-1E+10	1	-1E+10	1	-1E+10	1	-1E+10	1	-1E+10	1
4901784	24	C	03/01/2016	10:51	-131.960	44.714	0	1940.20	0	1.9770	0	34.5680	0	27.638	0	1915.613	0	54.3	4	16.4	4	-1E+10	1	-1E+10	1	-1E+10	1	-1E+10	1	-1E+10	1	-1E+10	1
4901784	24	C	03/01/2016	10:51	-131.960	44.714	0	1945.60	0	1.9740	0	34.5680	0	27.638	0	1920.920	0	54.6	4	16.4	4	-1E+10	1	-1E+10	1	-1E+10	1	-1E+10	1	-1E+10	1	-1E+10	1
4901784	24	C	03/01/2016	10:51	-131.960	44.714	0	1950.10	0	1.9730	0	34.5680	0	27.638	0	1925.342	0	54.7	4	16.5	4	-1E+10	1	-1E+10	1	-1E+10	1	-1E+10	1	-1E+10	1	-1E+10	1
4901784	24	C	03/01/2016	10:51	-131.960	44.714	0	1954.70	0	1.9710	0	34.5690	0	27.639	0	1929.863	0	55.0	4	16.6	4	-1E+10	1	-1E+10	1	-1E+10	1	-1E+10	1	-1E+10	1	-1E+10	1
4901784	24	C	03/01/2016	10:51	-131.960	44.714	0	1960.20	0	1.9670	0	34.5700	0	27.640	0	1935.268	0	55.3	4	16.7	4	-1E+10	1	-1E+10	1	-1E+10	1	-1E+10	1	-1E+10	1	-1E+10	1
4901784	24	C	03/01/2016	10:51	-131.960	44.714	0	1964.70	0	1.9660	0	34.5700	0	27.640	0	1939.691	0	55.5	4	16.7	4	-1E+10	1	-1E+10	1	-1E+10	1	-1E+10	1	-1E+10	1	-1E+10	1
4901784	24	C	03/01/2016	10:51	-131.960	44.714	0	1969.30	0	1.9650	0	34.5700	0	27.640	0	1944.211	0	55.6	4	16.8	4	-1E+10	1	-1E+10	1	-1E+10	1	-1E+10	1	-1E+10	1	-1E+10	1
4901784	24	C	03/01/2016	10:51	-131.960	44.714	0	1974.90	0	1.9620	0	34.5710	0	27.641	0	1949.714	0	56.0	4	16.9	4	-1E+10	1	-1E+10	1	-1E+10	1	-1E+10	1	-1E+10	1	-1E+10	1
4901784	24	C	03/01/2016	10:51	-131.960	44.714	0	1980.40	0	1.9590	0	34.5710	0	27.642	0	1955.119	0	56.3	4	17.0	4	-1E+10	1	-1E+10	1	-1E+10	1	-1E+10	1	-1E+10	1	-1E+10	1
4901784	24	C	03/01/2016	10:51	-131.960	44.714	0	1985.10	0	1.9540	0	34.5720	0	27.643	0	1959.737	0	56.6	4	17.0	4	-1E+10	1	-1E+10	1	-1E+10	1	-1E+10	1	-1E+10	1	-1E+10	1
4901784	24	C	03/01/2016	10:51	-131.960	44.714	0	1989.70	0	1.9510	0	34.5720	0	27.643	0	1964.257	0	56.8	4	17.1	4	-1E+10	1	-1E+10	1	-1E+10	1	-1E+10	1	-1E+10	1	-1E+10	1
4901784	24	C	03/01/2016	10:51	-131.960	44.714	0	1994.90	0	1.9440	0	34.5730	0	27.644	0	1969.367	0	57.2	4	17.2	4	-1E+10	1	-1E+10	1	-1E+10	1	-1E+10	1	-1E+10	1	-1E+10	1
4901784	24	C	03/01/2016	10:51	-131.960	44.714	0	1999.20	0	1.9420	0	34.5740	0	27.645	0	1973.592	0	57.4	4	17.3	4	-1E+10	1	-1E+10	1	-1E+10	1	-1E+10	1	-1E+10	1	-1E+10	1
4901784	24	C	03/01/2016	10:51	-131.960	44.714	0	2004.90	0	1.9370	0	34.5740	0	27.646	0	1979.192	0	57.9	4	17.4	4	-1E+10	1	-1E+10	1	-1E+10	1	-1E+10	1	-1E+10	1	-1E+10	1
4901784	24	C	03/01/2016	10:51	-131.960	44.714	0	2010.70	0	1.9320	0	34.5760	0	27.648	0	1984.891	0	58.5	4	17.6	4	-1E+10	1	-1E+10	1	-1E+10	1	-1E+10	1	-1E+10	1	-1E+10	1
4901784	24	C	03/01/2016	10:51	-131.960	44.714	0	2015.80	0	1.9300	0	34.5770	0	27.649	0	1989.902	0	58.7	4	17.7	4	-1E+10	1	-1E+10	1	-1E+10	1	-1E+10	1	-1E+10	1	-1E+10	1
4901784	24	C	03/01/2016	10:51	-131.960	44.714	0	2020.30	0	1.9290	0	34.5770	0	27.649	0	1994.323	0	58.9	4	17.7	4	-1E+10	1	-1E+10	1	-1E+10	1	-1E+10	1	-1E+10	1	-1E+10	1
4901784	24	C	03/01/2016	10:51	-131.960	44.714	0																										
4901784	25	C	03/11/2016	10:47	-131.995	44.656	0	2.30	0	10.3350	0	32.7330	0	25.126	0	2.281	0	264.5	4	95.5	4	-1E+10	1	-1E+10	1	-1E+10	1	-1E+10	1	-1E+10	1	-1E+10	1
4901784	25	C	03/11/2016	10:47	-131.995	44.656	0	3.50	0	10.3340	0	32.7330	0	25.126	0	3.472	0	264.6	4	95.5	4	-1E+10	1	-1E+10	1	-1E+10	1	-1E+10	1	-1E+10	1	-1E+10	1
4901784	25	C	03/11/2016	10:47	-131.995	44.656	0	5.00	0	10.3380	0	32.7330	0	25.126	0	4.960	0	264.6	4	95.5	4	-1E+10	1	-1E+10	1	-1E+10	1	-1E+10	1	-1E+10	1	-1E+10	1
4901784	25	C	03/11/2016	10:47	-131.995	44.656	0	6.70	0	10.3380	0	32.7330	0	25.126	0	6.646	0	264.7	4	95.5	4	-1E+10	1	-1E+10	1	-1E+10	1	-1E+10	1	-1E+10	1	-1E+10	1
4901784	25	C	03/11/2016	10:47	-131.995	44.656	0	8.90	0	10.3400	0	32.7330	0	25.126	0	8.828	0	264.5	4	95.4	4	-1E+10	1	-1E+10	1	-1E+10	1	-1E+10	1	-1E+10	1	-1E+10	1
4901784	25	C	03/11/2016	10:47	-131.995	44.656	0	10.70	0	10.3410	0	32.7330	0	25.125	0	10.613	0	264.6	4	95.5	4	-1E+10	1	-1E+10	1	-1E+10	1	-1E+10	1	-1E+10	1	-1E+10	1
4901784	25	C	03/11/2016	10:47	-131.995	44.656	0	12.20	0	10.3440	0	32.7330	0	25.125	0	12.101	0	264.5	4	95.5	4	-1E+10	1	-1E+10	1	-1E+10	1	-1E+10	1	-1E+10	1	-1E+10	1
4901784	25	C	03/11/2016	10:47	-131.995	44.656	0	13.70	0	10.3460	0	32.7330	0	25.125	0	13.589	0	264.4	4	95.5	4	-1E+10	1	-1E+10	1	-1E+10	1	-1E+10	1	-1E+10	1	-1E+10	1
4901784	25	C	03/11/2016	10:47	-131.995	44.656	0	15.30	0	10.3460	0	32.7330	0	25.125	0	15.176	0	264.4	4	95.4	4	-1E+10	1	-1E+10	1	-1E+10	1	-1E+10	1	-1E+10	1	-1E+10	1
4901784	25	C	03/11/2016	10:47	-131.995	44.656	0	16.80	0	10.3420	0	32.7340	0	25.126	0	16.663	0	264.5	4	95.5	4	-1E+10	1	-1E+10	1	-1E+10	1	-1E+10	1	-1E+10	1	-1E+10	1
4901784	25	C	03/11/2016	10:47	-131.995	44.656	0	18.60	0	10.3440	0	32.7330	0	25.125	0	18.449	0	264.4	4	95.4	4	-1E+10	1	-1E+10	1	-1E+10	1	-1E+10	1	-1E+10	1	-1E+10	1
4901784	25	C	03/11/2016	10:47	-131.995	44.656	0	20.30	0	10.3450	0	32.7340	0	25.126	0	20.135	0	264.5	4	95.5	4	-1E+10	1	-1E+10	1	-1E+10	1	-1E+10	1	-1E+10	1	-1E+10	1
4901784	25	C	03/11/2016	10:47	-131.995	44.656	0	22.10	0	10.3520	0	32.7340	0	25.125	0	21.920	0	264.4	4	95.5	4	-1E+10	1	-1E+10	1	-1E+10	1	-1E+10	1	-1E+10	1	-1E+10	1
4901784	25	C	03/11/2016	10:47	-131.995	44.656	0	23.90	0	10.3530	0	32.7340	0	25.124	0	23.705	0	264.3	4	95.4	4	-1E+10	1	-1E+10	1	-1E+10	1	-1E+10	1	-1E+10	1	-1E+10	1
4901784	25	C	03/11/2016	10:47	-131.995	44.656	0	25.70	0	10.3530	0	32.7330	0	25.124	0	25.491	0	264.2	4	95.4	4	-1E+10	1	-1E+10	1	-1E+10	1	-1E+10	1	-1E+10	1	-1E+10	1
4901784	25	C	03/11/2016	10:47	-131.995	44.656	0	27.50	0	10.3500	0	32.7330	0	25.124	0	27.276	0	264.3	4	95.4	4	-1E+10	1	-1E+10	1	-1E+10	1	-1E+10	1	-1E+10	1	-1E+10	1
4901784	25	C	03/11/2016	10:47	-131.995	44.656	0	29.20	0	10.3520	0	32.7340	0	25.125	0	28.962	0	264.5	4	95.5	4	-1E+10	1	-1E+10	1	-1E+10	1	-1E+10	1	-1E+10	1	-1E+10	1
4901784	25	C	03/11/2016	10:47	-131.995	44.656	0	30.90	0	10.3530	0	32.7330	0	25.124	0	30.648	0	264.3	4	95.4	4	-1E+10	1	-1E+10	1	-1E+10	1	-1E+10	1	-1E+10	1	-1E+10	1
4901784	25	C	03/11/2016	10:47	-131.995	44.656	0	32.60	0	10.3500	0	32.7340	0	25.125	0	32.334	0	264.3	4	95.4	4	-1E+10	1	-1E+10	1	-1E+10	1	-1E+10	1	-1E+10	1	-1E+10	1
4901784	25	C	03/11/2016	10:47	-131.995	44.656	0	34.20	0	10.3500	0	32.7330	0	25.124	0	33.921	0	264.1	4	95.3	4	-1E+10	1	-1E+10	1	-1E+10	1	-1E+10	1	-1E+10	1	-1E+10	1
4901784	25	C	03/11/2016	10:47	-131.995	44.656	0	35.90	0	10.3490	0	32.7340	0	25.125	0	35.607	0	264.0	4	95.3	4	-1E+10	1	-1E+10	1	-1E+10	1	-1E+10	1	-1E+10	1	-1E+10	1
4901784	25	C	03/11/2016	10:47	-131.995	44.656	0	37.50	0	10.3500	0	32.7330	0	25.124	0	37.193	0	264.0	4	95.3	4	-1E+10	1	-1E+10	1	-1E+10	1	-1E+10	1	-1E+10	1	-1E+10	1
4901784	25	C	03/11/2016	10:47	-131.995	44.656	0	39.40	0	10.3570	0	32.7350	0	25.125	0	39.078	0	264.0	4	95.3	4	-1E+10	1	-1E+10	1	-1E+10	1	-1E+10	1	-1E+10	1	-1E+10	1
4901784	25	C	03/11/2016	10:47	-131.995	44.656	0	41.10	0	10.3600	0	32.7360	0	25.125	0	40.764	0	264.0	4	95.3	4	-1E+10	1	-1E+10	1	-1E+10	1	-1E+10	1	-1E+10	1	-1E+10	1
4901784	25	C	03/11/2016	10:47	-131.995	44.656	0	43.00	0	10.3630	0	32.7360	0	25.125	0	42.648	0	263.9	4	95.3	4	-1E+10	1	-1E+10	1	-1E+10	1	-1E+10	1	-1E+10	1	-1E+10	1
4901784	25	C	03/11/2016	10:47	-131.995	44.656	0	44.80	0	10.3680	0	32.7400	0	25.127	0	44.433	0	263.9	4	95.3	4	-1E+10	1	-1E+10	1	-1E+10	1	-1E+10	1	-1E+10	1	-1E+10	1
4901784	25	C	03/11/2016	10:47	-131.995	44.656	0	46.70	0	10.3690	0	32.7410	0	25.128	0	46.317	0	263.8	4	95.3	4	-1E+10	1	-1E+10	1	-1E+10	1	-1E+10	1	-1E+10	1	-1E+10	1
4901784	25	C	03/11/2016	10:47	-131.995	44.656	0	48.40	0	10.3680	0	32.7400	0	25.127	0	48.003	0	263.6	4	95.2	4	-1E+10	1	-1E+10	1	-1E+10	1	-1E+10	1	-1E+10	1	-1E+10	1
4901784	25	C	03/11/2016	10:47	-131.995	44.656	0	50.30	0	10.3680	0	32.7390	0	25.126	0	49.887	0	263.6	4	95.2	4	-1E+10	1	-1E+10	1	-1E+10	1	-1E+10	1	-1E+10	1	-1E+10	1
4901784	25	C	03/11/2016	10:47	-131.995	44.656	0	52.10	0	10.3700	0	32.7410	0	25.128	0	51.672	0	263.7	4	95.2	4	-1E+10	1	-1E+10	1	-1E+10	1	-1E+10	1	-1E+10	1	-1E+10	1
4901784	25	C	03/11/2016	10:47	-131.995	44.656	0	53.90	0	10.3700	0	32.7410	0	25.128	0	53.457	0	263.7	4	95.2	4	-1E+10	1	-1E+10	1	-1E+10	1	-1E+10	1	-1E+10	1	-1E+10	1
4901784	25	C	03/11/2016	10:47	-131.995	44.656	0	55.70	0	10.3700	0	32.7420	0	25.128	0	55.242	0	263.5	4	95.2	4	-1E+10	1	-1E+10	1	-1E+10	1	-1E+10	1	-1E+10	1	-1E+10	1
4901784	25	C	03/11/2016	10:47	-131.995	44.656	0	57.50	0	10.3700	0	32.7420	0	25.128	0	57.027	0	263.6	4	95.2	4	-1E+10	1	-1E+10	1	-1E+10	1	-1E+10	1	-1E+10	1	-1E+10	1
4901784	25	C	03/11/2016	10:47	-131.995	44.656	0	59.30	0	10.3710	0	32.7420	0	25.128	0	58.812	0	263.4	4	95.1	4	-1E+10	1	-1E+10	1	-1E+10	1	-1E+10	1	-1E+10	1	-1E+10	1
4901784	25	C	03/11/2016	10:47	-131.995	44.656	0	61.10	0	10.3710	0	32.7420	0	25.128	0	60.597	0	263.4	4	95.1	4	-1E+10	1	-1E+10	1	-1E+10	1	-1E+10	1	-1E+10	1	-1E+10	1
4901784	25	C	03/11/2016	10:47	-131.995	44.656	0	62.90	0	10.3710	0	32.7420	0	25.128	0	62.382	0	263.4	4	95.1	4	-1E+10	1	-1E+10	1	-1E+10	1	-1E+10	1	-1E+10	1	-1E+10	1
4901784	25	C	03/11/2016	10:47	-131.995	44.656	0	64.70	0	10.3710	0	32.7420	0	25.128	0	64.167	0	263.5	4	95.2	4	-1E+10	1	-1E+10	1	-1E+10	1	-1E+10	1	-1E+10	1	-1E+10	1
4901784	25	C	03/11/2016	10:47	-131.995	44.656	0	66.50	0	10.3690	0	32.7430	0	25.130	0	65.952	0	263.1	4	95.0	4	-1E+10	1	-1E+10	1	-1E+10	1	-1E+10	1	-1E+10	1	-1E+10	1
4901784	25	C	03/11/2016	10:47	-131.995	44.656	0	68.30	0	10.3690	0	32.7430	0	25.130	0	67.737	0	263.2	4	95.1	4	-1E+10	1	-1E+10	1	-1E+10	1	-1E+10	1	-1E+10	1	-1E+10	1
4901784	25	C	03/11/2016	10:47	-131.995	44.656	0	70.00	0	10.3690	0	32.7430	0	25.130	0	69.422	0	263.1	4	95.0	4	-1E+10	1	-1E+10	1	-1E+10	1	-1E+10	1	-1E+10	1	-1E+10	1
4901784	25	C	03/11/2016	10:47	-131.995	44.656	0	71.80	0	10.3690	0	32.7430	0	25.130	0	71.207	0	263.2	4	95.1	4	-1E+10	1	-1E+10	1	-1E+10	1	-1E+10	1	-1E+10	1	-1E+10	1
4901784	25	C	03/11/2016	10:47	-131.995	44.656	0	73.60	0	10.3690	0	32.7430	0	25.130	0	72.992	0	263.0	4	95.0	4	-1E+10	1	-1E+10	1	-1E+10	1	-1E+10	1	-1E+10	1	-1E+10	1
4901784	25	C	03/11/2016	10:47	-131.995	44.656	0	75.40	0	10.3700	0	32.7430	0	25.130	0	74.777	0	262.9	4	95.0	4	-1E+10	1	-1E+10	1	-1E+10	1	-1E+10	1	-1E+10	1	-1E+10	1
4901784	25	C	03/11/2016	10:47	-131.995	44.656	0	77.10	0	10.3700	0	32.7430	0	25.130	0	76.462	0	262.8	4	94.9	4	-1E+10	1	-1E+10	1	-1E+10	1	-1E+10	1	-1E+10	1	-1E+10	1
4901784	25	C	03/11/2016	10:47	-131.995	44.656	0	78.90	0	10.3700	0	32.7440	0	25.130	0	78.247	0	262.8	4	94.9	4	-1E+10	1	-1E+10	1	-1E+10	1	-1E+10	1	-1E+10	1	-1E+10	1
4901784	25	C	03/11/2016	10:47	-131.995	44.656	0	80.60	0	10.3700	0	32.7430	0	25.130	0	79.933	0	262.7	4	94.9	4	-1E+10	1	-1E+10	1	-1E+10	1	-1E+10	1	-1E+10	1	-1E+10	1
4901784	25	C	03/11/2016	10:47	-131.995	44.656	0	82.30	0	10.3690	0	32.7440	0	25.131	0	81.618	0	262.4	4	94.8	4	-1E+10	1	-1E+10	1	-1E+10	1	-1E+10	1	-1E+10	1	-1E+10	1
4901784	25	C	03/11/2016	10:47	-131.995	44.656	0	84.10	0	10.3710	0	32.7440	0	25.130	0	83.403	0	262.5	4	94.8	4	-1E+10	1	-1E+10	1	-1E+10	1	-1E+10	1	-1E+10	1	-1E+10	1
4901784	25	C	03/11/2016	10:47	-131.995	44.656	0	85.80	0	10.3730	0	32.7450	0	25.131	0	85.089	0	262.3	4	94.8	4	-1E+10	1	-1E+10	1	-1E+10	1	-1E+10	1	-1E+10	1	-1E+10	1
4901784	25	C	03/11/2016	10:47	-131.995	44.656	0	87.50	0	10.3720	0	32.7450	0	25.131	0	86.774	0	262.2	4	94.7	4	-1E+10	1	-1E+10	1	-1E+10	1	-1E+10	1	-1E+10	1	-1E+10	1
4901784	25	C	03/11/2016	10:47	-131.995	44.656	0	89.30	0	10.3710	0	32.7450	0	25.131	0	88.559	0	261.9	4	94.6	4	-1E+10	1	-1E+10	1	-1E+10	1	-1E+10	1	-1E+10	1	-1E+10	1
4901784	25	C	03/11/2016	10:47	-131.995	44.656	0	91.00	0	10.3720	0	32.7450	0	25.131	0	90.244	0	261.6	4	94.5	4	-1E+10	1	-1E+10	1	-1E+10	1	-1E+10	1	-1E+10	1	-1E+10	1
4901784	25	C	03/11/2016	10:47	-131.995	44.656	0	92.80	0	10.3720	0	32.7450	0	25.131	0	92.029	0	261.5	4	94.5	4	-1E+10	1	-1E+10	1	-1E+10	1	-1E+10	1	-1E+10	1	-1E+10	1
4901784	25	C	03/11/2016	10:47	-131.995	44.656	0	94.50	0	10.3720	0	32.7450	0	25.131	0	93.714	0	261.0	4	94.3	4	-1E+10	1	-1E+10	1	-1E+10	1	-1E+10	1	-1E+10	1	-1E+10	1
4901784	25	C	03/11/2016	10:47	-131.995	44.656	0	96.30	0	10.3690	0	32.7450	0	25.132	0	95.499	0	260.4	4	94.0	4	-1E+10	1	-1E+10	1	-1E+10	1	-1E+10	1	-1E+10	1	-1E+10	1
4901784	25	C	03/11/2016	10:47	-131.995	44.656	0	98.00	0	10.3680	0	32.7440	0	25.131	0	97.185	0	259.9	4	93.8	4	-1E+10	1	-1E+10	1	-1E+10	1	-1E+10	1	-1E+10	1	-1E+10	1
4901784	25	C	03/11/2016	10:47	-131.995	44.656	0	99.70	0	10.3670	0	32.7440	0	25.131	0	98.870	0	259.1	4	93.6	4	-1E+10	1	-1E+10	1	-1E+10	1	-1E+10	1	-1E+10	1	-1E+10	1
4901784	25	C	03/11/2016	10:47	-131.995	44.656	0	102.80	0	10.3630	0	32.7410	0	25.130	0	101.943	0	256.5	4	92.6	4	-1E+10	1	-1E+10	1	-1E+10	1	-1E+10	1	-1E+10	1	-1E+10	1
4901784	25	C	03/11/2016	10:47	-131.995	44.656	0	105.10	0	10.3320	0	32.7380	0	25.133	0	104.224	0	252.8	4	91.2	4	-1E+10	1	-1E+10	1	-1E+10	1	-1E+10	1	-1E+10	1	-1E+10	1
4901784	25	C	03/11/2016	10:47	-131.995	44.656	0	107.30	0	10.1810	0	32.7650	0	25.179	0	106.405	0	248.8	4	89.5	4	-1E+10	1	-1E+10	1	-1E+10	1	-1E+10	1	-1E+10	1	-1E+10	1
4901784	25	C	03/11/2016	10:47	-131.995	44.656	0	110.30	0	10.0650	0	32.8040	0	25.229	0	109.379	0	243.2	4	87.3	4	-1E+10	1	-1E+10	1	-1E+10	1	-1E+10	1	-1E+10	1	-1E+10	1
4901784	25	C	03/11/2016	10:47	-131.995	44.656	0	112.60	0	9.9770	0	32.8370	0	25.270	0	111.659	0	238.0	4	85.3	4	-1E+10	1	-1E+10	1	-1E+10	1	-1E+10	1	-1E+10	1	-1E+10	1
4901784	25	C	03/11/2016	10:47	-131.995	44.656	0	115.10	0	9.7910	0	32.9030	0	25.352	0	114.137	0	233.0	4	83.2	4	-1E+10	1	-1E+10	1	-1E+10	1	-1E+10	1	-1E+10	1	-1E+10	1
4901784	25	C	03/11/2016	10:47	-131.995	44.656	0	117.60	0	9.5810	0	32.9900	0	25.454	0	116.616	0	228.4	4	81.2	4	-1E+10	1	-1E+10	1	-1E+10	1	-1E+10	1	-1E+10	1	-1E+10	1
4901784	25	C	03/11/2016	10:47	-131.995	44.656	0	120.10	0	9.4990	0	33.0280	0	25.497	0	119.094	0	224.7	4	79.8	4	-1E+10	1	-1E+10	1	-1E+10	1	-1E+10	1	-1E+10	1	-1E+10	1
4901784	25	C	03/11/2016	10:47	-131.995	44.656	0	123.10	0	9.4620	0	33.0400	0	25.513	0	122.068	0	218.6	4	77.6	4	-1E+10	1	-1E+10	1	-1E+10	1	-1E+10	1	-1E+10	1	-1E+10	1
4901784	25	C	03/11/2016	10:47	-131.995	44.656	0	124.80	0	9.3040	0	33.1180	0	25.599	0	123.753	0	213.4	4	75.5	4	-1E+10	1	-1E+10	1	-1E+10	1	-1E+10	1	-1E+10	1	-1E+10	1
4901784	25	C	03/11/2016	10:47	-131.995	44.656	0	127.10	0	9.0350	0	33.2680	0	25.759	0	126.033	0	211.3	4	74.4	4	-1E+10	1	-1E+10	1	-1E+10	1	-1E+10	1	-1E+10	1	-1E+10	1
4901784	25	C	03/11/2016	10:47	-131.995	44.656	0	130.00	0	9.0150	0	33.2780	0	25.770	0	128.908	0	209.7	4	73.8	4	-1E+10	1	-1E+10	1	-1E+10	1	-1E+10	1	-1E+10	1	-1E+10	1
4901784	25	C	03/11/2016	10:47	-131.995	44.656	0	132.40	0	8.9750	0	33.2950	0	25.790	0	131.287	0	208.0	4	73.2	4	-1E+10	1	-1E+10	1	-1E+10	1	-1E+10	1	-1E+10	1	-1E+10	1
4901784	25	C	03/11/2016	10:47	-131.995	44.656	0	134.90	0	8.9470	0	33.3040	0	25.801	0	133.765	0	205.4	4	72.2	4	-1E+10	1	-1E+10	1	-1E+10	1	-1E+10	1	-1E+10	1	-1E+10	1
4901784	25	C	03/11/2016	10:47	-131.995	44.656	0	137.30	0	8.8700	0	33.3360	0	25.838	0	136.145	0	202.4	4	71.1	4	-1E+10	1	-1E+10	1	-1E+10	1	-1E+10	1	-1E+10	1	-1E+10	1
4901784	25	C	03/11/2016	10:47	-131.995	44.656	0	139.90	0	8.7140	0	33.4040	0	25.916	0	138.722	0	198.2	4	69.4	4	-1E+10	1	-1E+10	1	-1E+10	1	-1E+10	1	-1E+10	1	-1E+10	1
4901784	25	C	03/11/2016	10:47	-131.995	44.656	0	142.50	0	8.4020	0	33.5620	0	26.087	0	141.299	0	196.4	4	68.3	4	-1E+10	1	-1E+10	1	-1E+10	1	-1E+10	1	-1E+10	1	-1E+10	1
4901784	25	C	03/11/2016	10:47	-131.995	44.656	0	145.20	0	8.3380	0	33.6060	0	26.131	0	143.975	0	195.3	4	67.9	4	-1E+10	1	-1E+10	1	-1E+10	1	-1E+10	1	-1E+10	1	-1E+10	1
4901784	25	C	03/11/2016	10:47	-131.995	44.656	0	147.90	0	8.3160	0	33.6260	0	26.150	0	146.652	0	194.5	4	67.6	4	-1E+10	1	-1E+10	1	-1E+10	1	-1E+10	1	-1E+10	1	-1E+10	1
4901784	25	C	03/11/2016	10:47	-131.995	44.656	0	149.60	0	8.3070	0	33.6320	0	26.156	0	148.337	0	193.8	4	67.3	4	-1E+10	1	-1E+10	1	-1E+10	1	-1E+10	1	-1E+10	1	-1E+10	1
4901784	25	C	03/11/2016	10:47	-131.995	44.656	0	152.30	0	8.2700	0	33.6620	0	26.186	0	151.013	0	192.9	4	67.0	4	-1E+10	1	-1E+10	1	-1E+10	1	-1E+10	1	-1E+10	1	-1E+10	1
4901784	25	C	03/11/2016	10:47	-131.995	44.656	0	154.90	0	8.2490	0	33.6810	0	26.204	0	153.590	0	192.0	4	66.7	4	-1E+10	1	-1E+10	1	-1E+10	1	-1E+10	1	-1E+10	1	-1E+10	1
4901784	25	C	03/11/2016	10:47	-131.995	44.656	0	157.70	0	8.2440	0	33.6900	0	26.211	0	156.365	0	190.8	4	66.2	4	-1E+10	1	-1E+10	1	-1E+10	1	-1E+10	1	-1E+10	1	-1E+10	1
4901784	25	C	03/11/2016	10:47	-131.995	44.656	0	160.50	0	8.2340	0	33.6990	0	26.220	0	159.140	0	189.1	4	65.6	4	-1E+10	1	-1E+10	1	-1E+10	1	-1E+10	1	-1E+10	1	-1E+10	1
4901784	25	C	03/11/2016	10:47	-131.995	44.656	0	162.30	0	8.2300	0	33.7050	0	26.225	0	160.924	0	187.7	4	65.1	4	-1E+10	1	-1E+10	1	-1E+10	1	-1E+10	1	-1E+10	1	-1E+10	1
4901784	25	C	03/11/2016	10:47	-131.995	44.656	0	164.80	0	8.1960	0	33.7320	0	26.252	0	163.402	0	185.5	4	64.3	4	-1E+10	1	-1E+10	1	-1E+10	1	-1E+10	1	-1E+10	1	-1E+10	1
4901784	25	C	03/11/2016	10:47	-131.995	44.656	0	167.60	0	8.1480	0	33.7460	0	26.270	0	166.177	0	183.0	4	63.4	4	-1E+10	1	-1E+10	1	-1E+10	1	-1E+10	1	-1E+10	1	-1E+10	1
4901784	25	C	03/11/2016	10:47	-131.995	44.656	0	170.00	0	8.1100	0	33.7550	0	26.283	0	168.556	0	181.1	4	62.7	4	-1E+10	1	-1E+10	1	-1E+10	1	-1E+10	1	-1E+10	1	-1E+10	1
4901784	25	C	03/11/2016	10:47	-131.995	44.656	0	172.50	0	8.0850	0	33.7630	0	26.293	0	171.034	0	179.9	4	62.3	4	-1E+10	1	-1E+10	1	-1E+10	1	-1E+10	1	-1E+10	1	-1E+10	1
4901784	25	C	03/11/2016	10:47	-131.995	44.656	0	174.90	0	8.0690	0	33.7690	0	26.300	0	173.412	0	179.0	4	61.9	4	-1E+10	1	-1E+10	1	-1E+10	1	-1E+10	1	-1E+10	1	-1E+10	1
4901784	25	C	03/11/2016	10:47	-131.995	44.656	0	177.30	0	8.0230	0	33.7870	0	26.321	0	175.791	0	178.1	4	61.6	4	-1E+10	1	-1E+10	1	-1E+10	1	-1E+10	1	-1E+10	1	-1E+10	1
4901784	25	C	03/11/2016	10:47	-131.995	44.656	0	179.80	0	7.9880	0	33.7900	0	26.328	0	178.269	0	177.1	4	61.2	4	-1E+10	1	-1E+10	1	-1E+10	1	-1E+10	1	-1E+10	1	-1E+10	1
4901784	25	C	03/11/2016	10:47	-131.995	44.656	0	182.20	0	7.9630	0	33.8000	0	26.340	0	180.647	0	176.1	4	60.8	4	-1E+10	1	-1E+10	1	-1E+10	1	-1E+10	1	-1E+10	1	-1E+10	1
4901784	25	C	03/11/2016	10:47	-131.995	44.656	0	185.40	0	7.9440	0	33.8090	0	26.350	0	183.818	0	174.4	4	60.2	4	-1E+10	1	-1E+10	1	-1E+10	1	-1E+10	1	-1E+10	1	-1E+10	1
4901784	25	C	03/11/2016	10:47	-131.995	44.656	0	187.80	0	7.8720	0	33.8160	0	26.366	0	186.197	0	172.6	4	59.5	4	-1E+10	1	-1E+10	1	-1E+10	1	-1E+10	1	-1E+10	1	-1E+10	1
4901784	25	C	03/11/2016	10:47	-131.995	44.656	0	190.30	0	7.8380	0	33.8140	0	26.369	0	188.674	0	170.8	4	58.8	4	-1E+10	1	-1E+10	1	-1E+10	1	-1E+10	1	-1E+10	1	-1E+10	1
4901784	25	C	03/11/2016	10:47	-131.995	44.656	0	192.70	0	7.8160	0	33.8130	0	26.372	0	191.053	0	168.6	4	58.0	4	-1E+10	1	-1E+10	1	-1E+10	1	-1E+10	1	-1E+10	1	-1E+10	1
4901784	25	C	03/11/2016	10:47	-131.995	44.656	0	195.30	0	7.7650	0	33.8190	0	26.384	0	193.629	0	166.5	4	57.2	4	-1E+10	1	-1E+10	1	-1E+10	1	-1E+10	1	-1E+10	1	-1E+10	1
4901784	25	C	03/11/2016	10:47	-131.995	44.656	0	197.80	0	7.7240	0	33.8270	0	26.396	0	196.107	0	164.0	4	56.3	4	-1E+10	1	-1E+10	1	-1E+10	1	-1E+10	1	-1E+10	1	-1E+10	1
4901784	25	C	03/11/2016	10:47	-131.995	44.656	0	200.30	0	7.6580	0	33.8280	0	26.406	0	198.584	0	163.7	4	56.1	4	-1E+10	1	-1E+10	1	-1E+10	1	-1E+10	1	-1E+10	1	-1E+10	1
4901784	25	C	03/11/2016	10:47	-131.995	44.656	0	202.90	0	7.6300	0	33.8290	0	26.411	0	201.161	0	163.9	4	56.2	4	-1E+10	1	-1E+10	1	-1E+10	1	-1E+10	1	-1E+10	1	-1E+10	1
4901784	25	C	03/11/2016	10:47	-131.995	44.656	0	204.60	0	7.6000	0	33.8340	0	26.419	0	202.845	0	164.6	4	56.4	4	-1E+10	1	-1E+10	1	-1E+10	1	-1E+10	1	-1E+10	1	-1E+10	1
4901784	25	C	03/11/2016	10:47	-131.995	44.656	0	207.10	0	7.5750	0	33.8410	0	26.428	0	205.322	0	166.7	4	57.0	4	-1E+10	1	-1E+10	1	-1E+10	1	-1E+10	1	-1E+10	1	-1E+10	1
4901784	25	C	03/11/2016	10:47	-131.995	44.656	0	209.60	0	7.5340	0	33.8530	0	26.444	0	207.800	0	167.8	4	57.4	4	-1E+10	1	-1E+10	1	-1E+10	1	-1E+10	1	-1E+10	1	-1E+10	1
4901784	25	C	03/11/2016	10:47	-131.995	44.656	0	212.20	0	7.4940	0	33.8560	0	26.452	0	210.376	0	165.9	4	56.7	4	-1E+10	1	-1E+10	1	-1E+10	1	-1E+10	1	-1E+10	1	-1E+10	1
4901784	25	C	03/11/2016	10:47	-131.995	44.656	0	214.80	0	7.4670	0	33.8570	0	26.457	0	212.952	0	163.9	4	56.0	4	-1E+10	1	-1E+10	1	-1E+10	1	-1E+10	1	-1E+10	1	-1E+10	1
4901784	25	C	03/11/2016	10:47	-131.995	44.656	0	217.40	0	7.3990	0	33.8600	0	26.468	0	215.529	0	162.9	4	55.6	4	-1E+10	1	-1E+10	1	-1E+10	1	-1E+10	1	-1E+10	1	-1E+10	1
4901784	25	C	03/11/2016	10:47	-131.995	44.656	0	220.00	0	7.3440	0	33.8650	0	26.480	0	218.105	0	161.8	4	55.1	4	-1E+10	1	-1E+10	1	-1E+10	1	-1E+10	1	-1E+10	1	-1E+10	1
4901784	25	C	03/11/2016	10:47	-131.995	44.656	0	222.50	0	7.2830	0	33.8650	0	26.489	0	220.582	0	159.5	4	54.3	4	-1E+10	1	-1E+10	1	-1E+10	1	-1E+10	1	-1E+10	1	-1E+10	1
4901784	25	C	03/11/2016	10:47	-131.995	44.656	0	225.00	0	7.2350	0	33.8650	0	26.495	0	223.059	0	157.0	4	53.3	4	-1E+10	1	-1E+10	1	-1E+10	1	-1E+10	1	-1E+10	1	-1E+10	1
4901784	25	C	03/11/2016	10:47	-131.995	44.656	0	227.50	0	7.1650	0	33.8660	0	26.506	0	225.536	0	154.3	4	52.3	4	-1E+10	1	-1E+10	1	-1E+10	1	-1E+10	1	-1E+10	1	-1E+10	1
4901784	25	C	03/11/2016	10:47	-131.995	44.656	0	230.10	0	7.0600	0	33.8670	0	26.521	0	228.112	0	151.4	4	51.2	4	-1E+10	1	-1E+10	1	-1E+10	1	-1E+10	1	-1E+10	1	-1E+10	1
4901784	25	C	03/11/2016	10:47	-131.995	44.656	0	232.80	0	6.9820	0	33.8720	0	26.536	0	230.788	0	148.3	4	50.1	4	-1E+10	1	-1E+10	1	-1E+10	1	-1E+10	1	-1E+10	1	-1E+10	1
4901784	25	C	03/11/2016	10:47	-131.995	44.656	0	235.40	0	6.9650	0	33.8720	0	26.538	0	233.364	0	146.0	4	49.3	4	-1E+10	1	-1E+10	1	-1E+10	1	-1E+10	1	-1E+10	1	-1E+10	1
4901784	25	C	03/11/2016	10:47	-131.995	44.656	0	237.30	0	6.9540	0	33.8720	0	26.540	0	235.246	0	145.1	4	49.0	4	-1E+10	1	-1E+10	1	-1E+10	1	-1E+10	1	-1E+10	1	-1E+10	1
4901784	25	C	03/11/2016	10:47	-131.995	44.656	0	240.10	0	6.9110	0	33.8720	0	26.546	0	238.020	0	143.3	4	48.3	4	-1E+10	1	-1E+10	1	-1E+10	1	-1E+10	1	-1E+10	1	-1E+10	1
4901784	25	C	03/11/2016	10:47	-131.995	44.656	0	242.90	0	6.8220	0	33.8750	0	26.560	0	240.794	0	140.5	4	47.3	4	-1E+10	1	-1E+10	1	-1E+10	1	-1E+10	1	-1E+10	1	-1E+10	1
4901784	25	C	03/11/2016	10:47	-131.995	44.656	0	244.90	0	6.7670	0	33.8760	0	26.568	0	242.776	0	139.6	4	46.9	4	-1E+10	1	-1E+10	1	-1E+10	1	-1E+10	1	-1E+10	1	-1E+10	1
4901784	25	C	03/11/2016	10:47	-131.995	44.656	0	247.60	0	6.7380	0	33.8750	0	26.571	0	245.451	0	138.8	4	46.6	4	-1E+10	1	-1E+10	1	-1E+10	1	-1E+10	1	-1E+10	1	-1E+10	1
4901784	25	C	03/11/2016	10:47	-131.995	44.656	0	250.40	0	6.6740	0	33.8760	0	26.581	0	248.225	0	138.5	4	46.5	4	-1E+10	1	-1E+10	1	-1E+10	1	-1E+10	1	-1E+10	1	-1E+10	1
4901784	25	C	03/11/2016	10:47	-131.995	44.656	0	252.30	0	6.6610	0	33.8750	0	26.581	0	250.107	0	138.3	4	46.4	4	-1E+10	1	-1E+10	1	-1E+10	1	-1E+10	1	-1E+10	1	-1E+10	1
4901784	25	C	03/11/2016	10:47	-131.995	44.656	0	255.10	0	6.6340	0	33.8740	0	26.584	0	252.881	0	137.3	4	46.0	4	-1E+10	1	-1E+10	1	-1E+10	1	-1E+10	1	-1E+10	1	-1E+10	1
4901784	25	C	03/11/2016	10:47	-131.995	44.656	0	257.80	0	6.5920	0	33.8740	0	26.590	0	255.556	0	135.8	4	45.5	4	-1E+10	1	-1E+10	1	-1E+10	1	-1E+10	1	-1E+10	1	-1E+10	1
4901784	25	C	03/11/2016	10:47	-131.995	44.656	0	259.60	0	6.5620	0	33.8750	0	26.595	0	257.339	0	135.1	4	45.2	4	-1E+10	1	-1E+10	1	-1E+10	1	-1E+10	1	-1E+10	1	-1E+10	1
4901784	25	C	03/11/2016	10:47	-131.995	44.656	0	262.50	0	6.4740	0	33.8770	0	26.608	0	260.212	0	135.0	4	45.1	4	-1E+10	1	-1E+10	1	-1E+10	1	-1E+10	1	-1E+10	1	-1E+10	1
4901784	25	C	03/11/2016	10:47	-131.995	44.656	0	265.30	0	6.4440	0	33.8750	0	26.610	0	262.986	0	134.8	4	45.0	4	-1E+10	1	-1E+10	1	-1E+10	1	-1E+10	1	-1E+10	1	-1E+10	1
4901784	25	C	03/11/2016	10:47	-131.995	44.656	0	267.20	0	6.4350	0	33.8730	0	26.610	0	264.868	0	134.5	4	44.9	4	-1E+10	1	-1E+10	1	-1E+10	1	-1E+10	1	-1E+10	1	-1E+10	1
4901784	25	C	03/11/2016	10:47	-131.995	44.656	0	269.60	0	6.4180	0	33.8740	0	26.613	0	267.246	0	133.9	4	44.7	4	-1E+10	1	-1E+10	1	-1E+10	1	-1E+10	1	-1E+10	1	-1E+10	1
4901784	25	C	03/11/2016	10:47	-131.995	44.656	0	272.40	0	6.4040	0	33.8720	0	26.613	0	270.019	0	132.7	4	44.3	4	-1E+10	1	-1E+10	1	-1E+10	1	-1E+10	1	-1E+10	1	-1E+10	1
4901784	25	C	03/11/2016	10:47	-131.995	44.656	0	274.80	0	6.3810	0	33.8700	0	26.614	0	272.397	0	131.5	4	43.8	4	-1E+10	1	-1E+10	1	-1E+10	1	-1E+10	1	-1E+10	1	-1E+10	1
4901784	25	C	03/11/2016	10:47	-131.995	44.656	0	277.30	0	6.2520	0	33.8670	0	26.629	0	274.873	0	129.9	4	43.1	4	-1E+10	1	-1E+10	1	-1E+10	1	-1E+10	1	-1E+10	1	-1E+10	1
4901784	25	C	03/11/2016	10:47	-131.995	44.656	0	279.70	0	6.1510	0	33.8660	0	26.641	0	277.251	0	127.7	4	42.3	4	-1E+10	1	-1E+10	1	-1E+10	1	-1E+10	1	-1E+10	1	-1E+10	1
4901784	25	C	03/11/2016	10:47	-131.995	44.656	0	282.10	0	6.0700	0	33.8680	0	26.653	0	279.628	0	125.3	4	41.4	4	-1E+10	1	-1E+10	1	-1E+10	1	-1E+10	1	-1E+10	1	-1E+10	1
4901784	25	C	03/11/2016	10:47	-131.995	44.656	0	285.40	0	6.0120	0	33.8700	0	26.661	0	282.897	0	123.5	4	40.8	4	-1E+10	1	-1E+10	1	-1E+10	1	-1E+10	1	-1E+10	1	-1E+10	1
4901784	25	C	03/11/2016	10:47	-131.995	44.656	0	287.70	0	6.0010	0	33.8700	0	26.663	0	285.175	0	122.4	4	40.4	4	-1E+10	1	-1E+10	1	-1E+10	1	-1E+10	1	-1E+10	1	-1E+10	1
4901784	25	C	03/11/2016	10:47	-131.995	44.656	0	290.20	0	5.9520	0	33.8730	0	26.671	0	287.651	0	121.4	4	40.0	4	-1E+10	1	-1E+10	1	-1E+10	1	-1E+10	1	-1E+10	1	-1E+10	1
4901784	25	C	03/11/2016	10:47	-131.995	44.656	0	292.60	0	5.9310	0	33.8720	0	26.673	0	290.029	0	120.7	4	39.8	4	-1E+10	1	-1E+10	1	-1E+10	1	-1E+10	1	-1E+10	1	-1E+10	1
4901784	25	C	03/11/2016	10:47	-131.995	44.656	0	295.10	0	5.9220	0	33.8730	0	26.675	0	292.505	0	119.9	4	39.5	4	-1E+10	1	-1E+10	1	-1E+10	1	-1E+10	1	-1E+10	1	-1E+10	1
4901784	25	C	03/11/2016	10:47	-131.995	44.656	0	297.60	0	5.9120	0	33.8710	0	26.675	0	294.981	0	118.8	4	39.2	4	-1E+10	1	-1E+10	1	-1E+10	1	-1E+10	1	-1E+10	1	-1E+10	1
4901784	25	C	03/11/2016	10:47	-131.995	44.656	0	300.10	0	5.8870	0	33.8720	0	26.679	0	297.457	0	117.4	4	38.7	4	-1E+10	1	-1E+10	1	-1E+10	1	-1E+10	1	-1E+10	1	-1E+10	1
4901784	25	C	03/11/2016	10:47	-131.995	44.656	0	302.70	0	5.8410	0	33.8730	0	26.685	0	300.033	0	116.3	4	38.3	4	-1E+10	1	-1E+10	1	-1E+10	1	-1E+10	1	-1E+10	1	-1E+10	1
4901784	25	C	03/11/2016	10:47	-131.995	44.656	0	305.30	0	5.8320	0	33.8720	0	26.686	0	302.608	0	115.0	4	37.8	4	-1E+10	1	-1E+10	1	-1E+10	1	-1E+10	1	-1E+10	1	-1E+10	1
4901784	25	C	03/11/2016	10:47	-131.995	44.656	0	307.80	0	5.8030	0	33.8750	0	26.691	0	305.084	0	113.3	4	37.2	4	-1E+10	1	-1E+10	1	-1E+10	1	-1E+10	1	-1E+10	1	-1E+10	1
4901784	25	C	03/11/2016	10:47	-131.995	44.656	0	309.50	0	5.7860	0	33.8750	0	26.694	0	306.768	0	112.4	4	36.9	4	-1E+10	1	-1E+10	1	-1E+10	1	-1E+10	1	-1E+10	1	-1E+10	1
4901784	25	C	03/11/2016	10:47	-131.995	44.656	0	312.10	0	5.7760	0	33.8750	0	26.695	0	309.343	0	110.8	4	36.4	4	-1E+10	1	-1E+10	1	-1E+10	1	-1E+10	1	-1E+10	1	-1E+10	1
4901784	25	C	03/11/2016	10:47	-131.995	44.656	0	314.60	0	5.7390	0	33.8760	0	26.700	0	311.819	0	108.8	4	35.7	4	-1E+10	1	-1E+10	1	-1E+10	1	-1E+10	1	-1E+10	1	-1E+10	1
4901784	25	C	03/11/2016	10:47	-131.995	44.656	0	317.10	0	5.7360	0	33.8810	0	26.705	0	314.295	0	106.7	4	35.0	4	-1E+10	1	-1E+10	1	-1E+10	1	-1E+10	1	-1E+10	1	-1E+10	1
4901784	25	C	03/11/2016	10:47	-131.995	44.656	0	319.70	0	5.7330	0	33.8830	0	26.706	0	316.870	0	104.7	4	34.4	4	-1E+10	1	-1E+10	1	-1E+10	1	-1E+10	1	-1E+10	1	-1E+10	1
4901784	25	C	03/11/2016	10:47	-131.995	44.656	0	322.30	0	5.7340	0	33.8860	0	26.709	0	319.445	0	102.2	4	33.6	4	-1E+10	1	-1E+10	1	-1E+10	1	-1E+10	1	-1E+10	1	-1E+10	1
4901784	25	C	03/11/2016	10:47	-131.995	44.656	0	324.90	0	5.7280	0	33.8870	0	26.710	0	322.020	0	99.4	4	32.6	4	-1E+10	1	-1E+10	1	-1E+10	1	-1E+10	1	-1E+10	1	-1E+10	1
4901784	25	C	03/11/2016	10:47	-131.995	44.656	0	327.50	0	5.7460	0	33.8950	0	26.714	0	324.595	0	95.0	4	31.2	4	-1E+10	1	-1E+10	1	-1E+10	1	-1E+10	1	-1E+10	1	-1E+10	1
4901784	25	C	03/11/2016	10:47	-131.995	44.656	0	330.10	0	5.7630	0	33.9030	0	26.719	0	327.170	0	91.8	4	30.2	4	-1E+10	1	-1E+10	1	-1E+10	1	-1E+10	1	-1E+10	1	-1E+10	1
4901784	25	C	03/11/2016	10:47	-131.995	44.656	0	332.80	0	5.7810	0	33.9070	0	26.720	0	329.843	0	89.2	4	29.3	4	-1E+10	1	-1E+10	1	-1E+10	1	-1E+10	1	-1E+10	1	-1E+10	1
4901784	25	C	03/11/2016	10:47	-131.995	44.656	0	335.40	0	5.7630	0	33.9100	0	26.724	0	332.418	0	87.5	4	28.7	4	-1E+10	1	-1E+10	1	-1E+10	1	-1E+10	1	-1E+10	1	-1E+10	1
4901784	25	C	03/11/2016	10:47	-131.995	44.656	0	337.10	0	5.7580	0	33.9120	0	26.727	0	334.102	0	86.5	4	28.4	4	-1E+10	1	-1E+10	1	-1E+10	1	-1E+10	1	-1E+10	1	-1E+10	1
4901784	25	C	03/11/2016	10:47	-131.995	44.656	0	339.70	0	5.7410	0	33.9150	0	26.731	0	336.677	0	85.7	4	28.1	4	-1E+10	1	-1E+10	1	-1E+10	1	-1E+10	1	-1E+10	1	-1E+10	1
4901784	25	C	03/11/2016	10:47	-131.995	44.656	0	342.30	0	5.7370	0	33.9150	0	26.732	0	339.251	0	85.1	4	27.9	4	-1E+10	1	-1E+10	1	-1E+10	1	-1E+10	1	-1E+10	1	-1E+10	1
4901784	25	C	03/11/2016	10:47	-131.995	44.656	0	345.00	0	5.7320	0	33.9160	0	26.733	0	341.925	0	84.2	4	27.6	4	-1E+10	1	-1E+10	1	-1E+10	1	-1E+10	1	-1E+10	1	-1E+10	1
4901784	25	C	03/11/2016	10:47	-131.995	44.656	0	347.50	0	5.7290	0	33.9160	0	26.733	0	344.401	0	83.0	4	27.3	4	-1E+10	1	-1E+10	1	-1E+10	1	-1E+10	1	-1E+10	1	-1E+10	1
4901784	25	C	03/11/2016	10:47	-131.995	44.656	0	350.20	0	5.7230	0	33.9180	0	26.736	0	347.074	0	81.6	4	26.8	4	-1E+10	1	-1E+10	1	-1E+10	1	-1E+10	1	-1E+10	1	-1E+10	1
4901784	25	C	03/11/2016	10:47	-131.995	44.656	0	352.90	0	5.7180	0	33.9200	0	26.738	0	349.748	0	80.2	4	26.3	4	-1E+10	1	-1E+10	1	-1E+10	1	-1E+10	1	-1E+10	1	-1E+10	1
4901784	25	C	03/11/2016	10:47	-131.995	44.656	0	354.60	0	5.7100	0	33.9200	0	26.739	0	351.431	0	79.2	4	26.0	4	-1E+10	1	-1E+10	1	-1E+10	1	-1E+10	1	-1E+10	1	-1E+10	1
4901784	25	C	03/11/2016	10:47	-131.995	44.656	0	357.20	0	5.6770	0	33.9240	0	26.746	0	354.006	0	77.7	4	25.5	4	-1E+10	1	-1E+10	1	-1E+10	1	-1E+10	1	-1E+10	1	-1E+10	1
4901784	25	C	03/11/2016	10:47	-131.995	44.656	0	359.90	0	5.6660	0	33.9260	0	26.749	0	356.679	0	76.4	4	25.1	4	-1E+10	1	-1E+10	1	-1E+10	1	-1E+10	1	-1E+10	1	-1E+10	1
4901784	25	C	03/11/2016	10:47	-131.995	44.656	0	362.40	0	5.6550	0	33.9280	0	26.752	0	359.155	0	75.4	4	24.7	4	-1E+10	1	-1E+10	1	-1E+10	1	-1E+10	1	-1E+10	1	-1E+10	1
4901784	25	C	03/11/2016	10:47	-131.995	44.656	0	364.90	0	5.6360	0	33.9300	0	26.756	0	361.630	0	74.3	4	24.3	4	-1E+10	1	-1E+10	1	-1E+10	1	-1E+10	1	-1E+10	1	-1E+10	1
4901784	25	C	03/11/2016	10:47	-131.995	44.656	0	367.60	0	5.6190	0	33.9320	0	26.760	0	364.304	0	73.4	4	24.0	4	-1E+10	1	-1E+10	1	-1E+10	1	-1E+10	1	-1E+10	1	-1E+10	1
4901784	25	C	03/11/2016	10:47	-131.995	44.656	0	370.10	0	5.6100	0	33.9330	0	26.761	0	366.779	0	72.5	4	23.7	4	-1E+10	1	-1E+10	1	-1E+10	1	-1E+10	1	-1E+10	1	-1E+10	1
4901784	25	C	03/11/2016	10:47	-131.995	44.656	0	372.80	0	5.6070	0	33.9330	0	26.762	0	369.452	0	71.5	4	23.4	4	-1E+10	1	-1E+10	1	-1E+10	1	-1E+10	1	-1E+10	1	-1E+10	1
4901784	25	C	03/11/2016	10:47	-131.995	44.656	0	375.50	0	5.5960	0	33.9350	0	26.765	0	372.126	0	70.1	4	22.9	4	-1E+10	1	-1E+10	1	-1E+10	1	-1E+10	1	-1E+10	1	-1E+10	1
4901784	25	C	03/11/2016	10:47	-131.995	44.656	0	377.20	0	5.5850	0	33.9360	0	26.767	0	373.809	0	69.2	4	22.7	4	-1E+10	1	-1E+10	1	-1E+10	1	-1E+10	1	-1E+10	1	-1E+10	1
4901784	25	C	03/11/2016	10:47	-131.995	44.656	0	379.90	0	5.5550	0	33.9400	0	26.774	0	376.482	0	68.1	4	22.3	4	-1E+10	1	-1E+10	1	-1E+10	1	-1E+10	1	-1E+10	1	-1E+10	1
4901784	25	C	03/11/2016	10:47	-131.995	44.656	0	382.50	0	5.5290	0	33.9400	0	26.777	0	379.056	0	67.1	4	21.9	4	-1E+10	1	-1E+10	1	-1E+10	1	-1E+10	1	-1E+10	1	-1E+10	1
4901784	25	C	03/11/2016	10:47	-131.995	44.656	0	385.20	0	5.5040	0	33.9440	0	26.783	0	381.730	0	66.0	4	21.6	4	-1E+10	1	-1E+10	1	-1E+10	1	-1E+10	1	-1E+10	1	-1E+10	1
4901784	25	C	03/11/2016	10:47	-131.995	44.656	0	387.80	0	5.4840	0	33.9430	0	26.785	0	384.304	0	65.3	4	21.3	4	-1E+10	1	-1E+10	1	-1E+10	1	-1E+10	1	-1E+10	1	-1E+10	1
4901784	25	C	03/11/2016	10:47	-131.995	44.656	0	389.60	0	5.4450	0	33.9460	0	26.792	0	386.086	0	64.7	4	21.1	4	-1E+10	1	-1E+10	1	-1E+10	1	-1E+10	1	-1E+10	1	-1E+10	1
4901784	25	C	03/11/2016	10:47	-131.995	44.656	0	392.20	0	5.3970	0	33.9500	0	26.801	0	388.660	0	64.0	4	20.9	4	-1E+10	1	-1E+10	1	-1E+10	1	-1E+10	1	-1E+10	1	-1E+10	1
4901784	25	C	03/11/2016	10:47	-131.995	44.656	0	394.90	0	5.3870	0	33.9510	0	26.803	0	391.333	0	63.7	4	20.8	4	-1E+10	1	-1E+10	1	-1E+10	1	-1E+10	1	-1E+10	1	-1E+10	1
4901784	25	C	03/11/2016	10:47	-131.995	44.656	0	397.40	0	5.3830	0	33.9510	0	26.803	0	393.808	0	63.6	4	20.7	4	-1E+10	1	-1E+10	1	-1E+10	1	-1E+10	1	-1E+10	1	-1E+10	1
4901784	25	C	03/11/2016	10:47	-131.995	44.656	0	400.00	0	5.3730	0	33.9520	0	26.805	0	396.382	0	63.5	4	20.7	4	-1E+10	1	-1E+10	1	-1E+10	1	-1E+10	1	-1E+10	1	-1E+10	1
4901784	25	C	03/11/2016	10:47	-131.995	44.656	0	402.70	0	5.3680	0	33.9510	0	26.805	0	399.055	0	63.4	4	20.7	4	-1E+10	1	-1E+10	1	-1E+10	1	-1E+10	1	-1E+10	1	-1E+10	1
4901784	25	C	03/11/2016	10:47	-131.995	44.656	0	405.20	0	5.3590	0	33.9490	0	26.804	0	401.530	0	63.3	4	20.6	4	-1E+10	1	-1E+10	1	-1E+10	1	-1E+10	1	-1E+10	1	-1E+10	1
4901784	25	C	03/11/2016	10:47	-131.995	44.656	0	407.90	0	5.3410	0	33.9490	0	26.806	0	404.203	0	63.0	4	20.5	4	-1E+10	1	-1E+10	1	-1E+10	1	-1E+10	1	-1E+10	1	-1E+10	1
4901784	25	C	03/11/2016	10:47	-131.995	44.656	0	410.50	0	5.2880	0	33.9490	0	26.813	0	406.777	0	62.4	4	20.3	4	-1E+10	1	-1E+10	1	-1E+10	1	-1E+10	1	-1E+10	1	-1E+10	1
4901784	25	C	03/11/2016	10:47	-131.995	44.656	0	412.20	0	5.2560	0	33.9500	0	26.817	0	408.460	0	61.8	4	20.1	4	-1E+10	1	-1E+10	1	-1E+10	1	-1E+10	1	-1E+10	1	-1E+10	1
4901784	25	C	03/11/2016	10:47	-131.995	44.656	0	414.90	0	5.2200	0	33.9550	0	26.825	0	411.133	0	61.2	4	19.8	4	-1E+10	1	-1E+10	1	-1E+10	1	-1E+10	1	-1E+10	1	-1E+10	1
4901784	25	C	03/11/2016	10:47	-131.995	44.656	0	417.60	0	5.2030	0	33.9540	0	26.827	0	413.805	0	60.6	4	19.7	4	-1E+10	1	-1E+10	1	-1E+10	1	-1E+10	1	-1E+10	1	-1E+10	1
4901784	25	C	03/11/2016	10:47	-131.995	44.656	0	420.30	0	5.1840	0	33.9550	0	26.830	0	416.478	0	59.4	4	19.3	4	-1E+10	1	-1E+10	1	-1E+10	1	-1E+10	1	-1E+10	1	-1E+10	1
4901784	25	C	03/11/2016	10:47	-131.995	44.656	0	423.00	0	5.1610	0	33.9580	0	26.835	0	419.151	0	57.7	4	18.7	4	-1E+10	1	-1E+10	1	-1E+10	1	-1E+10	1	-1E+10	1	-1E+10	1
4901784	25	C	03/11/2016	10:47	-131.995	44.656	0	424.70	0	5.1540	0	33.9620	0	26.839	0	420.834	0	56.3	4	18.2	4	-1E+10	1	-1E+10	1	-1E+10	1	-1E+10	1	-1E+10	1	-1E+10	1
4901784	25	C	03/11/2016	10:47	-131.995	44.656	0	427.40	0	5.1660	0	33.9710	0	26.844	0	423.506	0	54.7	4	17.7	4	-1E+10	1	-1E+10	1	-1E+10	1	-1E+10	1	-1E+10	1	-1E+10	1
4901784	25	C	03/11/2016	10:47	-131.995	44.656	0	430.20	0	5.1490	0	33.9740	0	26.849	0	426.278	0	54.2	4	17.6	4	-1E+10	1	-1E+10	1	-1E+10	1	-1E+10	1	-1E+10	1	-1E+10	1
4901784	25	C	03/11/2016	10:47	-131.995	44.656	0	432.00	0	5.1470	0	33.9750	0	26.850	0	428.060	0	54.2	4	17.6	4	-1E+10	1	-1E+10	1	-1E+10	1	-1E+10	1	-1E+10	1	-1E+10	1
4901784	25	C	03/11/2016	10:47	-131.995	44.656	0	434.70	0	5.1300	0	33.9750	0	26.852	0	430.732	0	54.2	4	17.6	4	-1E+10	1	-1E+10	1	-1E+10	1	-1E+10	1	-1E+10	1	-1E+10	1
4901784	25	C	03/11/2016	10:47	-131.995	44.656	0	437.40	0	5.1050	0	33.9750	0	26.855	0	433.405	0	54.3	4	17.6	4	-1E+10	1	-1E+10	1	-1E+10	1	-1E+10	1	-1E+10	1	-1E+10	1
4901784	25	C	03/11/2016	10:47	-131.995	44.656	0	440.20	0	5.0850	0	33.9750	0	26.857	0	436.176	0	54.3	4	17.6	4	-1E+10	1	-1E+10	1	-1E+10	1	-1E+10	1	-1E+10	1	-1E+10	1
4901784	25	C	03/11/2016	10:47	-131.995	44.656	0	443.00	0	5.0610	0	33.9740	0	26.859	0	438.948	0	54.1	4	17.5	4	-1E+10	1	-1E+10	1	-1E+10	1	-1E+10	1	-1E+10	1	-1E+10	1
4901784	25	C	03/11/2016	10:47	-131.995	44.656	0	444.80	0	5.0560	0	33.9740	0	26.860	0	440.729	0	53.8	4	17.4	4	-1E+10	1	-1E+10	1	-1E+10	1	-1E+10	1	-1E+10	1	-1E+10	1
4901784	25	C	03/11/2016	10:47	-131.995	44.656	0	447.20	0	5.0440	0	33.9750	0	26.862	0	443.105	0	53.2	4	17.2	4	-1E+10	1	-1E+10	1	-1E+10	1	-1E+10	1	-1E+10	1	-1E+10	1
4901784	25	C	03/11/2016	10:47	-131.995	44.656	0	449.80	0	5.0200	0	33.9780	0	26.867	0	445.678	0	52.1	4	16.8	4	-1E+10	1	-1E+10	1	-1E+10	1	-1E+10	1	-1E+10	1	-1E+10	1
4901784	25	C	03/11/2016	10:47	-131.995	44.656	0	453.00	0	5.0000	0	33.9810	0	26.872	0	448.846	0	50.7	4	16.4	4	-1E+10	1	-1E+10	1	-1E+10	1	-1E+10	1	-1E+10	1	-1E+10	1
4901784	25	C	03/11/2016	10:47	-131.995	44.656	0	455.30	0	4.9840	0	33.9850	0	26.877	0	451.122	0	49.7	4	16.0	4	-1E+10	1	-1E+10	1	-1E+10	1	-1E+10	1	-1E+10	1	-1E+10	1
4901784	25	C	03/11/2016	10:47	-131.995	44.656	0	457.70	0	4.9730	0	33.9890	0	26.881	0	453.497	0	48.7	4	15.7	4	-1E+10	1	-1E+10	1	-1E+10	1	-1E+10	1	-1E+10	1	-1E+10	1
4901784	25	C	03/11/2016	10:47	-131.995	44.656	0	460.10	0	4.9660	0	33.9930	0	26.885	0	455.873	0	48.0	4	15.5	4	-1E+10	1	-1E+10	1	-1E+10	1	-1E+10	1	-1E+10	1	-1E+10	1
4901784	25	C	03/11/2016	10:47	-131.995	44.656	0	462.60	0	4.9650	0	33.9940	0	26.886	0	458.347	0	47.4	4	15.3	4	-1E+10	1	-1E+10	1	-1E+10	1	-1E+10	1	-1E+10	1	-1E+10	1
4901784	25	C	03/11/2016	10:47	-131.995	44.656	0	465.00	0	4.9550	0	33.9950	0	26.888	0	460.722	0	47.0	4	15.2	4	-1E+10	1	-1E+10	1	-1E+10	1	-1E+10	1	-1E+10	1	-1E+10	1
4901784	25	C	03/11/2016	10:47	-131.995	44.656	0	467.40	0	4.9310	0	33.9970	0	26.892	0	463.097	0	46.2	4	14.9	4	-1E+10	1	-1E+10	1	-1E+10	1	-1E+10	1	-1E+10	1	-1E+10	1
4901784	25	C	03/11/2016	10:47	-131.995	44.656	0	469.80	0	4.9270	0	34.0020	0	26.897	0	465.473	0	45.3	4	14.6	4	-1E+10	1	-1E+10	1	-1E+10	1	-1E+10	1	-1E+10	1	-1E+10	1
4901784	25	C	03/11/2016	10:47	-131.995	44.656	0	472.20	0	4.9080	0	34.0030	0	26.900	0	467.848	0	44.9	4	14.5	4	-1E+10	1	-1E+10	1	-1E+10	1	-1E+10	1	-1E+10	1	-1E+10	1
4901784	25	C	03/11/2016	10:47	-131.995	44.656	0	474.60	0	4.8940	0	34.0030	0	26.901	0	470.223	0	44.1	4	14.2	4	-1E+10	1	-1E+10	1	-1E+10	1	-1E+10	1	-1E+10	1	-1E+10	1
4901784	25	C	03/11/2016	10:47	-131.995	44.656	0	477.00	0	4.9030	0	34.0070	0	26.903	0	472.598	0	42.8	4	13.8	4	-1E+10	1	-1E+10	1	-1E+10	1	-1E+10	1	-1E+10	1	-1E+10	1
4901784	25	C	03/11/2016	10:47	-131.995	44.656	0	480.30	0	4.9000	0	34.0120	0	26.908	0	475.864	0	41.5	4	13.4	4	-1E+10	1	-1E+10	1	-1E+10	1	-1E+10	1	-1E+10	1	-1E+10	1
4901784	25	C	03/11/2016	10:47	-131.995	44.656	0	482.70	0	4.8710	0	34.0170	0	26.915	0	478.239	0	40.8	4	13.1	4	-1E+10	1	-1E+10	1	-1E+10	1	-1E+10	1	-1E+10	1	-1E+10	1
4901784	25	C	03/11/2016	10:47	-131.995	44.656	0	485.20	0	4.8510	0	34.0190	0	26.919	0	480.713	0	40.3	4	13.0	4	-1E+10	1	-1E+10	1	-1E+10	1	-1E+10	1	-1E+10	1	-1E+10	1
4901784	25	C	03/11/2016	10:47	-131.995	44.656	0	487.70	0	4.8390	0	34.0220	0	26.922	0	483.187	0	39.7	4	12.8	4	-1E+10	1	-1E+10	1	-1E+10	1	-1E+10	1	-1E+10	1	-1E+10	1
4901784	25	C	03/11/2016	10:47	-131.995	44.656	0	490.20	0	4.8310	0	34.0240	0	26.925	0	485.661	0	38.9	4	12.5	4	-1E+10	1	-1E+10	1	-1E+10	1	-1E+10	1	-1E+10	1	-1E+10	1
4901784	25	C	03/11/2016	10:47	-131.995	44.656	0	492.60	0	4.8210	0	34.0290	0	26.930	0	488.036	0	38.5	4	12.4	4	-1E+10	1	-1E+10	1	-1E+10	1	-1E+10	1	-1E+10	1	-1E+10	1
4901784	25	C	03/11/2016	10:47	-131.995	44.656	0	495.10	0	4.7970	0	34.0280	0	26.932	0	490.510	0	37.9	4	12.2	4	-1E+10	1	-1E+10	1	-1E+10	1	-1E+10	1	-1E+10	1	-1E+10	1
4901784	25	C	03/11/2016	10:47	-131.995	44.656	0	497.70	0	4.7920	0	34.0300	0	26.934	0	493.083	0	37.1	4	11.9	4	-1E+10	1	-1E+10	1	-1E+10	1	-1E+10	1	-1E+10	1	-1E+10	1
4901784	25	C	03/11/2016	10:47	-131.995	44.656	0	500.20	0	4.7730	0	34.0350	0	26.940	0	495.556	0	36.3	4	11.7	4	-1E+10	1	-1E+10	1	-1E+10	1	-1E+10	1	-1E+10	1	-1E+10	1
4901784	25	C	03/11/2016	10:47	-131.995	44.656	0	504.60	0	4.7740	0	34.0400	0	26.944	0	499.910	0	34.9	4	11.2	4	-1E+10	1	-1E+10	1	-1E+10	1	-1E+10	1	-1E+10	1	-1E+10	1
4901784	25	C	03/11/2016	10:47	-131.995	44.656	0	509.70	0	4.7810	0	34.0470	0	26.949	0	504.957	0	33.2	4	10.7	4	-1E+10	1	-1E+10	1	-1E+10	1	-1E+10	1	-1E+10	1	-1E+10	1
4901784	25	C	03/11/2016	10:47	-131.995	44.656	0	514.90	0	4.7920	0	34.0520	0	26.952	0	510.102	0	32.3	4	10.4	4	-1E+10	1	-1E+10	1	-1E+10	1	-1E+10	1	-1E+10	1	-1E+10	1
4901784	25	C	03/11/2016	10:47	-131.995	44.656	0	520.10	0	4.7920	0	34.0530	0	26.953	0	515.247	0	31.1	4	10.0	4	-1E+10	1	-1E+10	1	-1E+10	1	-1E+10	1	-1E+10	1	-1E+10	1
4901784	25	C	03/11/2016	10:47	-131.995	44.656	0	525.40	0	4.7710	0	34.0620	0	26.962	0	520.491	0	29.7	4	9.5	4	-1E+10	1	-1E+10	1	-1E+10	1	-1E+10	1	-1E+10	1	-1E+10	1
4901784	25	C	03/11/2016	10:47	-131.995	44.656	0	530.70	0	4.7400	0	34.0670	0	26.970	0	525.735	0	29.3	4	9.4	4	-1E+10	1	-1E+10	1	-1E+10	1	-1E+10	1	-1E+10	1	-1E+10	1
4901784	25	C	03/11/2016	10:47	-131.995	44.656	0	535.20	0	4.7100	0	34.0680	0	26.974	0	530.187	0	29.4	4	9.4	4	-1E+10	1	-1E+10	1	-1E+10	1	-1E+10	1	-1E+10	1	-1E+10	1
4901784	25	C	03/11/2016	10:47	-131.995	44.656	0	539.80	0	4.6870	0	34.0680	0	26.976	0	534.738	0	29.0	4	9.3	4	-1E+10	1	-1E+10	1	-1E+10	1	-1E+10	1	-1E+10	1	-1E+10	1
4901784	25	C	03/11/2016	10:47	-131.995	44.656	0	545.40	0	4.6650	0	34.0720	0	26.982	0	540.278	0	28.1	4	9.0	4	-1E+10	1	-1E+10	1	-1E+10	1	-1E+10	1	-1E+10	1	-1E+10	1
4901784	25	C	03/11/2016	10:47	-131.995	44.656	0	550.40	0	4.6610	0	34.0770	0	26.986	0	545.225	0	26.7	4	8.6	4	-1E+10	1	-1E+10	1	-1E+10	1	-1E+10	1	-1E+10	1	-1E+10	1
4901784	25	C	03/11/2016	10:47	-131.995	44.656	0	554.90	0	4.6450	0	34.0840	0	26.994	0	549.676	0	25.9	4	8.3	4	-1E+10	1	-1E+10	1	-1E+10	1	-1E+10	1	-1E+10	1	-1E+10	1
4901784	25	C	03/11/2016	10:47	-131.995	44.656	0	559.80	0	4.6290	0	34.0870	0	26.998	0	554.524	0	25.4	4	8.1	4	-1E+10	1	-1E+10	1	-1E+10	1	-1E+10	1	-1E+10	1	-1E+10	1
4901784	25	C	03/11/2016	10:47	-131.995	44.656	0	564.60	0	4.6020	0	34.0910	0	27.004	0	559.272	0	25.2	4	8.1	4	-1E+10	1	-1E+10	1	-1E+10	1	-1E+10	1	-1E+10	1	-1E+10	1
4901784	25	C	03/11/2016	10:47	-131.995	44.656	0	569.50	0	4.5750	0	34.0930	0	27.009	0	564.119	0	25.0	4	8.0	4	-1E+10	1	-1E+10	1	-1E+10	1	-1E+10	1	-1E+10	1	-1E+10	1
4901784	25	C	03/11/2016	10:47	-131.995	44.656	0	574.40	0	4.5580	0	34.0970	0	27.014	0	568.966	0	24.5	4	7.8	4	-1E+10	1	-1E+10	1	-1E+10	1	-1E+10	1	-1E+10	1	-1E+10	1
4901784	25	C	03/11/2016	10:47	-131.995	44.656	0	579.40	0	4.5530	0	34.0990	0	27.016	0	573.912	0	24.2	4	7.7	4	-1E+10	1	-1E+10	1	-1E+10	1	-1E+10	1	-1E+10	1	-1E+10	1
4901784	25	C	03/11/2016	10:47	-131.995	44.656	0	584.50	0	4.5470	0	34.1010	0	27.018	0	578.956	0	24.0	4	7.7	4	-1E+10	1	-1E+10	1	-1E+10	1	-1E+10	1	-1E+10	1	-1E+10	1
4901784	25	C	03/11/2016	10:47	-131.995	44.656	0	589.70	0	4.5300	0	34.1030	0	27.022	0	584.100	0	23.8	4	7.6	4	-1E+10	1	-1E+10	1	-1E+10	1	-1E+10	1	-1E+10	1	-1E+10	1
4901784	25	C	03/11/2016	10:47	-131.995	44.656	0	594.80	0	4.5210	0	34.1030	0	27.023	0	589.144	0	23.6	4	7.5	4	-1E+10	1	-1E+10	1	-1E+10	1	-1E+10	1	-1E+10	1	-1E+10	1
4901784	25	C	03/11/2016	10:47	-131.995	44.656	0	599.80	0	4.4870	0	34.1060	0	27.029	0	594.089	0	23.3	4	7.4	4	-1E+10	1	-1E+10	1	-1E+10	1	-1E+10	1	-1E+10	1	-1E+10	1
4901784	25	C	03/11/2016	10:47	-131.995	44.656	0	604.90	0	4.4710	0	34.1100	0	27.034	0	599.134	0	22.8	4	7.3	4	-1E+10	1	-1E+10	1	-1E+10	1	-1E+10	1	-1E+10	1	-1E+10	1
4901784	25	C	03/11/2016	10:47	-131.995	44.656	0	610.10	0	4.4490	0	34.1140	0	27.039	0	604.276	0	22.2	4	7.1	4	-1E+10	1	-1E+10	1	-1E+10	1	-1E+10	1	-1E+10	1	-1E+10	1
4901784	25	C	03/11/2016	10:47	-131.995	44.656	0	615.30	0	4.4200	0	34.1200	0	27.047	0	609.419	0	21.5	4	6.8	4	-1E+10	1	-1E+10	1	-1E+10	1	-1E+10	1	-1E+10	1	-1E+10	1
4901784	25	C	03/11/2016	10:47	-131.995	44.656	0	620.40	0	4.4090	0	34.1240	0	27.051	0	614.463	0	20.8	4	6.6	4	-1E+10	1	-1E+10	1	-1E+10	1	-1E+10	1	-1E+10	1	-1E+10	1
4901784	25	C	03/11/2016	10:47	-131.995	44.656	0	625.60	0	4.3940	0	34.1300	0	27.058	0	619.605	0	20.3	4	6.5	4	-1E+10	1	-1E+10	1	-1E+10	1	-1E+10	1	-1E+10	1	-1E+10	1
4901784	25	C	03/11/2016	10:47	-131.995	44.656	0	630.00	0	4.3820	0	34.1330	0	27.062	0	623.957	0	19.8	4	6.3	4	-1E+10	1	-1E+10	1	-1E+10	1	-1E+10	1	-1E+10	1	-1E+10	1
4901784	25	C	03/11/2016	10:47	-131.995	44.656	0	634.30	0	4.3820	0	34.1370	0	27.065	0	628.209	0	19.3	4	6.2	4	-1E+10	1	-1E+10	1	-1E+10	1	-1E+10	1	-1E+10	1	-1E+10	1
4901784	25	C	03/11/2016	10:47	-131.995	44.656	0	639.40	0	4.3760	0	34.1420	0	27.069	0	633.252	0	18.8	4	6.0	4	-1E+10	1	-1E+10	1	-1E+10	1	-1E+10	1	-1E+10	1	-1E+10	1
4901784	25	C	03/11/2016	10:47	-131.995	44.656	0	644.70	0	4.3490	0	34.1460	0	27.076	0	638.493	0	18.5	4	5.9	4	-1E+10	1	-1E+10	1	-1E+10	1	-1E+10	1	-1E+10	1	-1E+10	1
4901784	25	C	03/11/2016	10:47	-131.995	44.656	0	649.90	0	4.3270	0	34.1500	0	27.081	0	643.635	0	18.4	4	5.9	4	-1E+10	1	-1E+10	1	-1E+10	1	-1E+10	1	-1E+10	1	-1E+10	1
4901784	25	C	03/11/2016	10:47	-131.995	44.656	0	655.10	0	4.3100	0	34.1520	0	27.084	0	648.777	0	18.3	4	5.8	4	-1E+10	1	-1E+10	1	-1E+10	1	-1E+10	1	-1E+10	1	-1E+10	1
4901784	25	C	03/11/2016	10:47	-131.995	44.656	0	660.50	0	4.3020	0	34.1530	0	27.086	0	654.116	0	18.1	4	5.8	4	-1E+10	1	-1E+10	1	-1E+10	1	-1E+10	1	-1E+10	1	-1E+10	1
4901784	25	C	03/11/2016	10:47	-131.995	44.656	0	665.70	0	4.2870	0	34.1550	0	27.089	0	659.258	0	17.8	4	5.7	4	-1E+10	1	-1E+10	1	-1E+10	1	-1E+10	1	-1E+10	1	-1E+10	1
4901784	25	C	03/11/2016	10:47	-131.995	44.656	0	670.10	0	4.2790	0	34.1580	0	27.093	0	663.608	0	17.4	4	5.5	4	-1E+10	1	-1E+10	1	-1E+10	1	-1E+10	1	-1E+10	1	-1E+10	1
4901784	25	C	03/11/2016	10:47	-131.995	44.656	0	674.50	0	4.2660	0	34.1640	0	27.099	0	667.959	0	17.0	4	5.4	4	-1E+10	1	-1E+10	1	-1E+10	1	-1E+10	1	-1E+10	1	-1E+10	1
4901784	25	C	03/11/2016	10:47	-131.995	44.656	0	679.80	0	4.2510	0	34.1680	0	27.104	0	673.199	0	16.8	4	5.3	4	-1E+10	1	-1E+10	1	-1E+10	1	-1E+10	1	-1E+10	1	-1E+10	1
4901784	25	C	03/11/2016	10:47	-131.995	44.656	0	685.20	0	4.2410	0	34.1720	0	27.108	0	678.537	0	16.5	4	5.2	4	-1E+10	1	-1E+10	1	-1E+10	1	-1E+10	1	-1E+10	1	-1E+10	1
4901784	25	C	03/11/2016	10:47	-131.995	44.656	0	690.60	0	4.2140	0	34.1750	0	27.113	0	683.876	0	16.3	4	5.2	4	-1E+10	1	-1E+10	1	-1E+10	1	-1E+10	1	-1E+10	1	-1E+10	1
4901784	25	C	03/11/2016	10:47	-131.995	44.656	0	695.10	0	4.1910	0	34.1780	0	27.118	0	688.325	0	16.0	4	5.1	4	-1E+10	1	-1E+10	1	-1E+10	1	-1E+10	1	-1E+10	1	-1E+10	1
4901784	25	C	03/11/2016	10:47	-131.995	44.656	0	699.70	0	4.1740	0	34.1820	0	27.123	0	692.872	0	15.8	4	5.0	4	-1E+10	1	-1E+10	1	-1E+10	1	-1E+10	1	-1E+10	1	-1E+10	1
4901784	25	C	03/11/2016	10:47	-131.995	44.656	0	705.20	0	4.1540	0	34.1870	0	27.129	0	698.309	0	15.3	4	4.8	4	-1E+10	1	-1E+10	1	-1E+10	1	-1E+10	1	-1E+10	1	-1E+10	1
4901784	25	C	03/11/2016	10:47	-131.995	44.656	0	709.80	0	4.1380	0	34.1940	0	27.136	0	702.857	0	14.8	4	4.7	4	-1E+10	1	-1E+10	1	-1E+10	1	-1E+10	1	-1E+10	1	-1E+10	1
4901784	25	C	03/11/2016	10:47	-131.995	44.656	0	715.10	0	4.1230	0	34.1990	0	27.142	0	708.096	0	14.5	4	4.6	4	-1E+10	1	-1E+10	1	-1E+10	1	-1E+10	1	-1E+10	1	-1E+10	1
4901784	25	C	03/11/2016	10:47	-131.995	44.656	0	720.20	0	4.1150	0	34.2040	0	27.147	0	713.137	0	14.3	4	4.5	4	-1E+10	1	-1E+10	1	-1E+10	1	-1E+10	1	-1E+10	1	-1E+10	1
4901784	25	C	03/11/2016	10:47	-131.995	44.656	0	725.10	0	4.0870	0	34.2070	0	27.152	0	717.981	0	14.0	4	4.4	4	-1E+10	1	-1E+10	1	-1E+10	1	-1E+10	1	-1E+10	1	-1E+10	1
4901784	25	C	03/11/2016	10:47	-131.995	44.656	0	730.00	0	4.0620	0	34.2140	0	27.160	0	722.824	0	13.7	4	4.3	4	-1E+10	1	-1E+10	1	-1E+10	1	-1E+10	1	-1E+10	1	-1E+10	1
4901784	25	C	03/11/2016	10:47	-131.995	44.656	0	734.80	0	4.0420	0	34.2200	0	27.167	0	727.569	0	13.5	4	4.3	4	-1E+10	1	-1E+10	1	-1E+10	1	-1E+10	1	-1E+10	1	-1E+10	1
4901784	25	C	03/11/2016	10:47	-131.995	44.656	0	739.70	0	4.0190	0	34.2240	0	27.173	0	732.412	0	13.3	4	4.2	4	-1E+10	1	-1E+10	1	-1E+10	1	-1E+10	1	-1E+10	1	-1E+10	1
4901784	25	C	03/11/2016	10:47	-131.995	44.656	0	744.70	0	4.0190	0	34.2280	0	27.176	0	737.354	0	12.9	4	4.1	4	-1E+10	1	-1E+10	1	-1E+10	1	-1E+10	1	-1E+10	1	-1E+10	1
4901784	25	C	03/11/2016	10:47	-131.995	44.656	0	749.70	0	4.0180	0	34.2340	0	27.181	0	742.295	0	12.6	4	4.0	4	-1E+10	1	-1E+10	1	-1E+10	1	-1E+10	1	-1E+10	1	-1E+10	1
4901784	25	C	03/11/2016	10:47	-131.995	44.656	0	754.70	0	4.0060	0	34.2390	0	27.186	0	747.237	0	12.5	4	3.9	4	-1E+10	1	-1E+10	1	-1E+10	1	-1E+10	1	-1E+10	1	-1E+10	1
4901784	25	C	03/11/2016	10:47	-131.995	44.656	0	759.70	0	3.9990	0	34.2430	0	27.190	0	752.179	0	12.3	4	3.9	4	-1E+10	1	-1E+10	1	-1E+10	1	-1E+10	1	-1E+10	1	-1E+10	1
4901784	25	C	03/11/2016	10:47	-131.995	44.656	0	764.70	0	3.9880	0	34.2450	0	27.193	0	757.120	0	12.3	4	3.9	4	-1E+10	1	-1E+10	1	-1E+10	1	-1E+10	1	-1E+10	1	-1E+10	1
4901784	25	C	03/11/2016	10:47	-131.995	44.656	0	769.70	0	3.9500	0	34.2470	0	27.198	0	762.061	0	12.3	4	3.9	4	-1E+10	1	-1E+10	1	-1E+10	1	-1E+10	1	-1E+10	1	-1E+10	1
4901784	25	C	03/11/2016	10:47	-131.995	44.656	0	774.70	0	3.9320	0	34.2510	0	27.203	0	767.003	0	12.3	4	3.9	4	-1E+10	1	-1E+10	1	-1E+10	1	-1E+10	1	-1E+10	1	-1E+10	1
4901784	25	C	03/11/2016	10:47	-131.995	44.656	0	779.70	0	3.9250	0	34.2520	0	27.205	0	771.944	0	12.2	4	3.8	4	-1E+10	1	-1E+10	1	-1E+10	1	-1E+10	1	-1E+10	1	-1E+10	1
4901784	25	C	03/11/2016	10:47	-131.995	44.656	0	784.70	0	3.9090	0	34.2570	0	27.210	0	776.885	0	12.1	4	3.8	4	-1E+10	1	-1E+10	1	-1E+10	1	-1E+10	1	-1E+10	1	-1E+10	1
4901784	25	C	03/11/2016	10:47	-131.995	44.656	0	789.80	0	3.8970	0	34.2570	0	27.212	0	781.924	0	12.2	4	3.8	4	-1E+10	1	-1E+10	1	-1E+10	1	-1E+10	1	-1E+10	1	-1E+10	1
4901784	25	C	03/11/2016	10:47	-131.995	44.656	0	794.90	0	3.8830	0	34.2560	0	27.212	0	786.964	0	12.2	4	3.9	4	-1E+10	1	-1E+10	1	-1E+10	1	-1E+10	1	-1E+10	1	-1E+10	1
4901784	25	C	03/11/2016	10:47	-131.995	44.656	0	800.00	0	3.8720	0	34.2560	0	27.213	0	792.003	0	12.3	4	3.9	4	-1E+10	1	-1E+10	1	-1E+10	1	-1E+10	1	-1E+10	1	-1E+10	1
4901784	25	C	03/11/2016	10:47	-131.995	44.656	0	805.00	0	3.8400	0	34.2570	0	27.217	0	796.944	0	12.3	4	3.9	4	-1E+10	1	-1E+10	1	-1E+10	1	-1E+10	1	-1E+10	1	-1E+10	1
4901784	25	C	03/11/2016	10:47	-131.995	44.656	0	810.10	0	3.8270	0	34.2610	0	27.222	0	801.983	0	12.2	4	3.8	4	-1E+10	1	-1E+10	1	-1E+10	1	-1E+10	1	-1E+10	1	-1E+10	1
4901784	25	C	03/11/2016	10:47	-131.995	44.656	0	815.20	0	3.8100	0	34.2660	0	27.228	0	807.022	0	12.0	4	3.8	4	-1E+10	1	-1E+10	1	-1E+10	1	-1E+10	1	-1E+10	1	-1E+10	1
4901784	25	C	03/11/2016	10:47	-131.995	44.656	0	820.40	0	3.8070	0	34.2700	0	27.231	0	812.160	0	12.0	4	3.8	4	-1E+10	1	-1E+10	1	-1E+10	1	-1E+10	1	-1E+10	1	-1E+10	1
4901784	25	C	03/11/2016	10:47	-131.995	44.656	0	825.50	0	3.7920	0	34.2730	0	27.235	0	817.199	0	11.9	4	3.7	4	-1E+10	1	-1E+10	1	-1E+10	1	-1E+10	1	-1E+10	1	-1E+10	1
4901784	25	C	03/11/2016	10:47	-131.995	44.656	0	830.70	0	3.7800	0	34.2740	0	27.237	0	822.336	0	11.9	4	3.7	4	-1E+10	1	-1E+10	1	-1E+10	1	-1E+10	1	-1E+10	1	-1E+10	1
4901784	25	C	03/11/2016	10:47	-131.995	44.656	0	835.10	0	3.7540	0	34.2740	0	27.240	0	826.683	0	12.0	4	3.8	4	-1E+10	1	-1E+10	1	-1E+10	1	-1E+10	1	-1E+10	1	-1E+10	1
4901784	25	C	03/11/2016	10:47	-131.995	44.656	0	839.40	0	3.7410	0	34.2760	0	27.243	0	830.931	0	11.9	4	3.7	4	-1E+10	1	-1E+10	1	-1E+10	1	-1E+10	1	-1E+10	1	-1E+10	1
4901784	25	C	03/11/2016	10:47	-131.995	44.656	0	844.70	0	3.7250	0	34.2800	0	27.247	0	836.167	0	11.8	4	3.7	4	-1E+10	1	-1E+10	1	-1E+10	1	-1E+10	1	-1E+10	1	-1E+10	1
4901784	25	C	03/11/2016	10:47	-131.995	44.656	0	850.10	0	3.7110	0	34.2840	0	27.252	0	841.502	0	11.8	4	3.7	4	-1E+10	1	-1E+10	1	-1E+10	1	-1E+10	1	-1E+10	1	-1E+10	1
4901784	25	C	03/11/2016	10:47	-131.995	44.656	0	855.40	0	3.7040	0	34.2860	0	27.254	0	846.737	0	11.7	4	3.7	4	-1E+10	1	-1E+10	1	-1E+10	1	-1E+10	1	-1E+10	1	-1E+10	1
4901784	25	C	03/11/2016	10:47	-131.995	44.656	0	860.00	0	3.7010	0	34.2880	0	27.256	0	851.281	0	11.6	4	3.6	4	-1E+10	1	-1E+10	1	-1E+10	1	-1E+10	1	-1E+10	1	-1E+10	1
4901784	25	C	03/11/2016	10:47	-131.995	44.656	0	865.10	0	3.6960	0	34.2910	0	27.259	0	856.319	0	11.6	4	3.6	4	-1E+10	1	-1E+10	1	-1E+10	1	-1E+10	1	-1E+10	1	-1E+10	1
4901784	25	C	03/11/2016	10:47	-131.995	44.656	0	870.50	0	3.6720	0	34.2940	0	27.264	0	861.653	0	11.6	4	3.6	4	-1E+10	1	-1E+10	1	-1E+10	1	-1E+10	1	-1E+10	1	-1E+10	1
4901784	25	C	03/11/2016	10:47	-131.995	44.656	0	875.30	0	3.6550	0	34.2970	0	27.268	0	866.395	0	11.5	4	3.6	4	-1E+10	1	-1E+10	1	-1E+10	1	-1E+10	1	-1E+10	1	-1E+10	1
4901784	25	C	03/11/2016	10:47	-131.995	44.656	0	880.20	0	3.6610	0	34.3010	0	27.271	0	871.235	0	11.5	4	3.6	4	-1E+10	1	-1E+10	1	-1E+10	1	-1E+10	1	-1E+10	1	-1E+10	1
4901784	25	C	03/11/2016	10:47	-131.995	44.656	0	885.00	0	3.6250	0	34.3010	0	27.274	0	875.976	0	11.7	4	3.6	4	-1E+10	1	-1E+10	1	-1E+10	1	-1E+10	1	-1E+10	1	-1E+10	1
4901784	25	C	03/11/2016	10:47	-131.995	44.656	0	889.80	0	3.6130	0	34.3030	0	27.277	0	880.717	0	11.7	4	3.7	4	-1E+10	1	-1E+10	1	-1E+10	1	-1E+10	1	-1E+10	1	-1E+10	1
4901784	25	C	03/11/2016	10:47	-131.995	44.656	0	894.70	0	3.5920	0	34.3020	0	27.278	0	885.556	0	11.7	4	3.7	4	-1E+10	1	-1E+10	1	-1E+10	1	-1E+10	1	-1E+10	1	-1E+10	1
4901784	25	C	03/11/2016	10:47	-131.995	44.656	0	899.70	0	3.5780	0	34.3050	0	27.282	0	890.494	0	11.7	4	3.7	4	-1E+10	1	-1E+10	1	-1E+10	1	-1E+10	1	-1E+10	1	-1E+10	1
4901784	25	C	03/11/2016	10:47	-131.995	44.656	0	904.70	0	3.5740	0	34.3080	0	27.285	0	895.433	0	11.6	4	3.6	4	-1E+10	1	-1E+10	1	-1E+10	1	-1E+10	1	-1E+10	1	-1E+10	1
4901784	25	C	03/11/2016	10:47	-131.995	44.656	0	909.80	0	3.5690	0	34.3120	0	27.289	0	900.469	0	11.5	4	3.6	4	-1E+10	1	-1E+10	1	-1E+10	1	-1E+10	1	-1E+10	1	-1E+10	1
4901784	25	C	03/11/2016	10:47	-131.995	44.656	0	914.90	0	3.5720	0	34.3160	0	27.292	0	905.506	0	11.5	4	3.6	4	-1E+10	1	-1E+10	1	-1E+10	1	-1E+10	1	-1E+10	1	-1E+10	1
4901784	25	C	03/11/2016	10:47	-131.995	44.656	0	920.00	0	3.5550	0	34.3180	0	27.295	0	910.543	0	11.5	4	3.6	4	-1E+10	1	-1E+10	1	-1E+10	1	-1E+10	1	-1E+10	1	-1E+10	1
4901784	25	C	03/11/2016	10:47	-131.995	44.656	0	925.00	0	3.5440	0	34.3200	0	27.297	0	915.480	0	11.5	4	3.6	4	-1E+10	1	-1E+10	1	-1E+10	1	-1E+10	1	-1E+10	1	-1E+10	1
4901784	25	C	03/11/2016	10:47	-131.995	44.656	0	930.10	0	3.5320	0	34.3230	0	27.301	0	920.517	0	11.5	4	3.6	4	-1E+10	1	-1E+10	1	-1E+10	1	-1E+10	1	-1E+10	1	-1E+10	1
4901784	25	C	03/11/2016	10:47	-131.995	44.656	0	935.20	0	3.5110	0	34.3250	0	27.305	0	925.553	0	11.6	4	3.6	4	-1E+10	1	-1E+10	1	-1E+10	1	-1E+10	1	-1E+10	1	-1E+10	1
4901784	25	C	03/11/2016	10:47	-131.995	44.656	0	940.20	0	3.4970	0	34.3280	0	27.308	0	930.490	0	11.6	4	3.6	4	-1E+10	1	-1E+10	1	-1E+10	1	-1E+10	1	-1E+10	1	-1E+10	1
4901784	25	C	03/11/2016	10:47	-131.995	44.656	0	945.40	0	3.4840	0	34.3330	0	27.314	0	935.625	0	11.5	4	3.6	4	-1E+10	1	-1E+10	1	-1E+10	1	-1E+10	1	-1E+10	1	-1E+10	1
4901784	25	C	03/11/2016	10:47	-131.995	44.656	0	950.50	0	3.4860	0	34.3360	0	27.316	0	940.661	0	11.5	4	3.6	4	-1E+10	1	-1E+10	1	-1E+10	1	-1E+10	1	-1E+10	1	-1E+10	1
4901784	25	C	03/11/2016	10:47	-131.995	44.656	0	954.90	0	3.4840	0	34.3390	0	27.319	0	945.005	0	11.5	4	3.6	4	-1E+10	1	-1E+10	1	-1E+10	1	-1E+10	1	-1E+10	1	-1E+10	1
4901784	25	C	03/11/2016	10:47	-131.995	44.656	0	959.20	0	3.4770	0	34.3390	0	27.319	0	949.251	0	11.6	4	3.6	4	-1E+10	1	-1E+10	1	-1E+10	1	-1E+10	1	-1E+10	1	-1E+10	1
4901784	25	C	03/11/2016	10:47	-131.995	44.656	0	964.50	0	3.4590	0	34.3400	0	27.322	0	954.484	0	11.6	4	3.6	4	-1E+10	1	-1E+10	1	-1E+10	1	-1E+10	1	-1E+10	1	-1E+10	1
4901784	25	C	03/11/2016	10:47	-131.995	44.656	0	969.80	0	3.4520	0	34.3440	0	27.326	0	959.717	0	11.6	4	3.6	4	-1E+10	1	-1E+10	1	-1E+10	1	-1E+10	1	-1E+10	1	-1E+10	1
4901784	25	C	03/11/2016	10:47	-131.995	44.656	0	975.10	0	3.4330	0	34.3460	0	27.329	0	964.949	0	11.7	4	3.6	4	-1E+10	1	-1E+10	1	-1E+10	1	-1E+10	1	-1E+10	1	-1E+10	1
4901784	25	C	03/11/2016	10:47	-131.995	44.656	0	980.40	0	3.4240	0	34.3500	0	27.333	0	970.182	0	11.7	4	3.7	4	-1E+10	1	-1E+10	1	-1E+10	1	-1E+10	1	-1E+10	1	-1E+10	1
4901784	25	C	03/11/2016	10:47	-131.995	44.656	0	985.00	0	3.4110	0	34.3530	0	27.337	0	974.723	0	11.8	4	3.7	4	-1E+10	1	-1E+10	1	-1E+10	1	-1E+10	1	-1E+10	1	-1E+10	1
4901784	25	C	03/11/2016	10:47	-131.995	44.656	0	989.40	0	3.3940	0	34.3550	0	27.340	0	979.067	0	11.8	4	3.7	4	-1E+10	1	-1E+10	1	-1E+10	1	-1E+10	1	-1E+10	1	-1E+10	1
4901784	25	C	03/11/2016	10:47	-131.995	44.656	0	994.90	0	3.3840	0	34.3560	0	27.342	0	984.497	0	11.9	4	3.7	4	-1E+10	1	-1E+10	1	-1E+10	1	-1E+10	1	-1E+10	1	-1E+10	1
4901784	25	C	03/11/2016	10:47	-131.995	44.656	0	1000.30	0	3.3820	0	34.3580	0	27.344	0	989.827	0	11.9	4	3.7	4	-1E+10	1	-1E+10	1	-1E+10	1	-1E+10	1	-1E+10	1	-1E+10	1
4901784	25	C	03/11/2016	10:47	-131.995	44.656	0	1004.90	0	3.3750	0	34.3590	0	27.345	0	994.368	0	11.9	4	3.7	4	-1E+10	1	-1E+10	1	-1E+10	1	-1E+10	1	-1E+10	1	-1E+10	1
4901784	25	C	03/11/2016	10:47	-131.995	44.656	0	1009.50	0	3.3630	0	34.3610	0	27.348	0	998.909	0	12.0	4	3.7	4	-1E+10	1	-1E+10	1	-1E+10	1	-1E+10	1	-1E+10	1	-1E+10	1
4901784	25	C	03/11/2016	10:47	-131.995	44.656	0	1015.10	0	3.3420	0	34.3630	0	27.352	0	1004.437	0	12.0	4	3.7	4	-1E+10	1	-1E+10	1	-1E+10	1	-1E+10	1	-1E+10	1	-1E+10	1
4901784	25	C	03/11/2016	10:47	-131.995	44.656	0	1020.60	0	3.3380	0	34.3650	0	27.354	0	1009.866	0	12.1	4	3.7	4	-1E+10	1	-1E+10	1	-1E+10	1	-1E+10	1	-1E+10	1	-1E+10	1
4901784	25	C	03/11/2016	10:47	-131.995	44.656	0	1025.40	0	3.3360	0	34.3660	0	27.355	0	1014.604	0	12.1	4	3.8	4	-1E+10	1	-1E+10	1	-1E+10	1	-1E+10	1	-1E+10	1	-1E+10	1
4901784	25	C	03/11/2016	10:47	-131.995	44.656	0	1029.80	0	3.3210	0	34.3680	0	27.358	0	1018.947	0	12.2	4	3.8	4	-1E+10	1	-1E+10	1	-1E+10	1	-1E+10	1	-1E+10	1	-1E+10	1
4901784	25	C	03/11/2016	10:47	-131.995	44.656	0	1034.70	0	3.3070	0	34.3700	0	27.361	0	1023.783	0	12.2	4	3.8	4	-1E+10	1	-1E+10	1	-1E+10	1	-1E+10	1	-1E+10	1	-1E+10	1
4901784	25	C	03/11/2016	10:47	-131.995	44.656	0	1039.60	0	3.3000	0	34.3710	0	27.362	0	1028.620	0	12.3	4	3.8	4	-1E+10	1	-1E+10	1	-1E+10	1	-1E+10	1	-1E+10	1	-1E+10	1
4901784	25	C	03/11/2016	10:47	-131.995	44.656	0	1044.50	0	3.2910	0	34.3740	0	27.365	0	1033.456	0	12.3	4	3.8	4	-1E+10	1	-1E+10	1	-1E+10	1	-1E+10	1	-1E+10	1	-1E+10	1
4901784	25	C	03/11/2016	10:47	-131.995	44.656	0	1049.40	0	3.2780	0	34.3770	0	27.369	0	1038.292	0	12.4	4	3.9	4	-1E+10	1	-1E+10	1	-1E+10	1	-1E+10	1	-1E+10	1	-1E+10	1
4901784	25	C	03/11/2016	10:47	-131.995	44.656	0	1054.30	0	3.2650	0	34.3800	0	27.373	0	1043.128	0	12.5	4	3.9	4	-1E+10	1	-1E+10	1	-1E+10	1	-1E+10	1	-1E+10	1	-1E+10	1
4901784	25	C	03/11/2016	10:47	-131.995	44.656	0	1059.30	0	3.2560	0	34.3820	0	27.375	0	1048.062	0	12.6	4	3.9	4	-1E+10	1	-1E+10	1	-1E+10	1	-1E+10	1	-1E+10	1	-1E+10	1
4901784	25	C	03/11/2016	10:47	-131.995	44.656	0	1064.20	0	3.2430	0	34.3840	0	27.378	0	1052.898	0	12.7	4	3.9	4	-1E+10	1	-1E+10	1	-1E+10	1	-1E+10	1	-1E+10	1	-1E+10	1
4901784	25	C	03/11/2016	10:47	-131.995	44.656	0	1069.20	0	3.2290	0	34.3860	0	27.381	0	1057.832	0	12.8	4	4.0	4	-1E+10	1	-1E+10	1	-1E+10	1	-1E+10	1	-1E+10	1	-1E+10	1
4901784	25	C	03/11/2016	10:47	-131.995	44.656	0	1074.20	0	3.2130	0	34.3890	0	27.385	0	1062.766	0	12.9	4	4.0	4	-1E+10	1	-1E+10	1	-1E+10	1	-1E+10	1	-1E+10	1	-1E+10	1
4901784	25	C	03/11/2016	10:47	-131.995	44.656	0	1079.20	0	3.2040	0	34.3900	0	27.386	0	1067.701	0	13.0	4	4.0	4	-1E+10	1	-1E+10	1	-1E+10	1	-1E+10	1	-1E+10	1	-1E+10	1
4901784	25	C	03/11/2016	10:47	-131.995	44.656	0	1084.30	0	3.1960	0	34.3920	0	27.389	0	1072.733	0	13.0	4	4.0	4	-1E+10	1	-1E+10	1	-1E+10	1	-1E+10	1	-1E+10	1	-1E+10	1
4901784	25	C	03/11/2016	10:47	-131.995	44.656	0	1089.50	0	3.1880	0	34.3920	0	27.390	0	1077.864	0	13.1	4	4.1	4	-1E+10	1	-1E+10	1	-1E+10	1	-1E+10	1	-1E+10	1	-1E+10	1
4901784	25	C	03/11/2016	10:47	-131.995	44.656	0	1094.60	0	3.1790	0	34.3940	0	27.392	0	1082.897	0	13.2	4	4.1	4	-1E+10	1	-1E+10	1	-1E+10	1	-1E+10	1	-1E+10	1	-1E+10	1
4901784	25	C	03/11/2016	10:47	-131.995	44.656	0	1099.70	0	3.1700	0	34.3950	0	27.394	0	1087.929	0	13.3	4	4.1	4	-1E+10	1	-1E+10	1	-1E+10	1	-1E+10	1	-1E+10	1	-1E+10	1
4901784	25	C	03/11/2016	10:47	-131.995	44.656	0	1104.80	0	3.1590	0	34.3970	0	27.396	0	1092.961	0	13.4	4	4.1	4	-1E+10	1	-1E+10	1	-1E+10	1	-1E+10	1	-1E+10	1	-1E+10	1
4901784	25	C	03/11/2016	10:47	-131.995	44.656	0	1110.00	0	3.1480	0	34.4000	0	27.400	0	1098.092	0	13.5	4	4.2	4	-1E+10	1	-1E+10	1	-1E+10	1	-1E+10	1	-1E+10	1	-1E+10	1
4901784	25	C	03/11/2016	10:47	-131.995	44.656	0	1115.40	0	3.1410	0	34.4010	0	27.401	0	1103.420	0	13.6	4	4.2	4	-1E+10	1	-1E+10	1	-1E+10	1	-1E+10	1	-1E+10	1	-1E+10	1
4901784	25	C	03/11/2016	10:47	-131.995	44.656	0	1120.20	0	3.1350	0	34.4020	0	27.403	0	1108.156	0	13.6	4	4.2	4	-1E+10	1	-1E+10	1	-1E+10	1	-1E+10	1	-1E+10	1	-1E+10	1
4901784	25	C	03/11/2016	10:47	-131.995	44.656	0	1124.90	0	3.1340	0	34.4030	0	27.403	0	1112.793	0	13.7	4	4.2	4	-1E+10	1	-1E+10	1	-1E+10	1	-1E+10	1	-1E+10	1	-1E+10	1
4901784	25	C	03/11/2016	10:47	-131.995	44.656	0	1129.70	0	3.1300	0	34.4040	0	27.405	0	1117.528	0	13.8	4	4.3	4	-1E+10	1	-1E+10	1	-1E+10	1	-1E+10	1	-1E+10	1	-1E+10	1
4901784	25	C	03/11/2016	10:47	-131.995	44.656	0	1134.40	0	3.1260	0	34.4060	0	27.407	0	1122.165	0	13.9	4	4.3	4	-1E+10	1	-1E+10	1	-1E+10	1	-1E+10	1	-1E+10	1	-1E+10	1
4901784	25	C	03/11/2016	10:47	-131.995	44.656	0	1140.00	0	3.1220	0	34.4070	0	27.408	0	1127.690	0	14.0	4	4.3	4	-1E+10	1	-1E+10	1	-1E+10	1	-1E+10	1	-1E+10	1	-1E+10	1
4901784	25	C	03/11/2016	10:47	-131.995	44.656	0	1144.70	0	3.1130	0	34.4080	0	27.410	0	1132.326	0	14.1	4	4.4	4	-1E+10	1	-1E+10	1	-1E+10	1	-1E+10	1	-1E+10	1	-1E+10	1
4901784	25	C	03/11/2016	10:47	-131.995	44.656	0	1149.50	0	3.1060	0	34.4100	0	27.412	0	1137.061	0	14.3	4	4.4	4	-1E+10	1	-1E+10	1	-1E+10	1	-1E+10	1	-1E+10	1	-1E+10	1
4901784	25	C	03/11/2016	10:47	-131.995	44.656	0	1155.10	0	3.0980	0	34.4120	0	27.414	0	1142.585	0	14.4	4	4.5	4	-1E+10	1	-1E+10	1	-1E+10	1	-1E+10	1	-1E+10	1	-1E+10	1
4901784	25	C	03/11/2016	10:47	-131.995	44.656	0	1160.30	0	3.0830	0	34.4150	0	27.418	0	1147.715	0	14.6	4	4.5	4	-1E+10	1	-1E+10	1	-1E+10	1	-1E+10	1	-1E+10	1	-1E+10	1
4901784	25	C	03/11/2016	10:47	-131.995	44.656	0	1164.30	0	3.0740	0	34.4170	0	27.420	0	1151.661	0	14.6	4	4.5	4	-1E+10	1	-1E+10	1	-1E+10	1	-1E+10	1	-1E+10	1	-1E+10	1
4901784	25	C	03/11/2016	10:47	-131.995	44.656	0	1170.00	0	3.0720	0	34.4170	0	27.421	0	1157.283	0	14.7	4	4.5	4	-1E+10	1	-1E+10	1	-1E+10	1	-1E+10	1	-1E+10	1	-1E+10	1
4901784	25	C	03/11/2016	10:47	-131.995	44.656	0	1175.70	0	3.0630	0	34.4180	0	27.422	0	1162.905	0	14.9	4	4.6	4	-1E+10	1	-1E+10	1	-1E+10	1	-1E+10	1	-1E+10	1	-1E+10	1
4901784	25	C	03/11/2016	10:47	-131.995	44.656	0	1180.60	0	3.0410	0	34.4200	0	27.426	0	1167.738	0	15.1	4	4.7	4	-1E+10	1	-1E+10	1	-1E+10	1	-1E+10	1	-1E+10	1	-1E+10	1
4901784	25	C	03/11/2016	10:47	-131.995	44.656	0	1185.60	0	3.0260	0	34.4230	0	27.430	0	1172.670	0	15.3	4	4.7	4	-1E+10	1	-1E+10	1	-1E+10	1	-1E+10	1	-1E+10	1	-1E+10	1
4901784	25	C	03/11/2016	10:47	-131.995	44.656	0	1190.70	0	3.0180	0	34.4240	0	27.431	0	1177.700	0	15.4	4	4.8	4	-1E+10	1	-1E+10	1	-1E+10	1	-1E+10	1	-1E+10	1	-1E+10	1
4901784	25	C	03/11/2016	10:47	-131.995	44.656	0	1195.70	0	3.0070	0	34.4260	0	27.434	0	1182.631	0	15.6	4	4.8	4	-1E+10	1	-1E+10	1	-1E+10	1	-1E+10	1	-1E+10	1	-1E+10	1
4901784	25	C	03/11/2016	10:47	-131.995	44.656	0	1199.90	0	3.0000	0	34.4270	0	27.435	0	1186.774	0	15.7	4	4.8	4	-1E+10	1	-1E+10	1	-1E+10	1	-1E+10	1	-1E+10	1	-1E+10	1
4901784	25	C	03/11/2016	10:47	-131.995	44.656	0	1204.20	0	2.9930	0	34.4280	0	27.437	0	1191.014	0	15.8	4	4.9	4	-1E+10	1	-1E+10	1	-1E+10	1	-1E+10	1	-1E+10	1	-1E+10	1
4901784	25	C	03/11/2016	10:47	-131.995	44.656	0	1209.40	0	2.9830	0	34.4290	0	27.438	0	1196.143	0	15.9	4	4.9	4	-1E+10	1	-1E+10	1	-1E+10	1	-1E+10	1	-1E+10	1	-1E+10	1
4901784	25	C	03/11/2016	10:47	-131.995	44.656	0	1214.50	0	2.9700	0	34.4300	0	27.440	0	1201.172	0	16.1	4	5.0	4	-1E+10	1	-1E+10	1	-1E+10	1	-1E+10	1	-1E+10	1	-1E+10	1
4901784	25	C	03/11/2016	10:47	-131.995	44.656	0	1219.70	0	2.9530	0	34.4320	0	27.444	0	1206.300	0	16.3	4	5.0	4	-1E+10	1	-1E+10	1	-1E+10	1	-1E+10	1	-1E+10	1	-1E+10	1
4901784	25	C	03/11/2016	10:47	-131.995	44.656	0	1225.00	0	2.9410	0	34.4340	0	27.446	0	1211.527	0	16.4	4	5.1	4	-1E+10	1	-1E+10	1	-1E+10	1	-1E+10	1	-1E+10	1	-1E+10	1
4901784	25	C	03/11/2016	10:47	-131.995	44.656	0	1230.20	0	2.9320	0	34.4350	0	27.448	0	1216.655	0	16.6	4	5.1	4	-1E+10	1	-1E+10	1	-1E+10	1	-1E+10	1	-1E+10	1	-1E+10	1
4901784	25	C	03/11/2016	10:47	-131.995	44.656	0	1235.30	0	2.9220	0	34.4360	0	27.450	0	1221.684	0	16.7	4	5.1	4	-1E+10	1	-1E+10	1	-1E+10	1	-1E+10	1	-1E+10	1	-1E+10	1
4901784	25	C	03/11/2016	10:47	-131.995	44.656	0	1240.30	0	2.9150	0	34.4370	0	27.451	0	1226.614	0	16.9	4	5.2	4	-1E+10	1	-1E+10	1	-1E+10	1	-1E+10	1	-1E+10	1	-1E+10	1
4901784	25	C	03/11/2016	10:47	-131.995	44.656	0	1245.40	0	2.9030	0	34.4390	0	27.454	0	1231.643	0	17.1	4	5.3	4	-1E+10	1	-1E+10	1	-1E+10	1	-1E+10	1	-1E+10	1	-1E+10	1
4901784	25	C	03/11/2016	10:47	-131.995	44.656	0	1250.50	0	2.8920	0	34.4400	0	27.456	0	1236.671	0	17.3	4	5.3	4	-1E+10	1	-1E+10	1	-1E+10	1	-1E+10	1	-1E+10	1	-1E+10	1
4901784	25	C	03/11/2016	10:47	-131.995	44.656	0	1255.50	0	2.8790	0	34.4420	0	27.458	0	1241.601	0	17.5	4	5.4	4	-1E+10	1	-1E+10	1	-1E+10	1	-1E+10	1	-1E+10	1	-1E+10	1
4901784	25	C	03/11/2016	10:47	-131.995	44.656	0	1260.60	0	2.8650	0	34.4430	0	27.460	0	1246.630	0	17.7	4	5.5	4	-1E+10	1	-1E+10	1	-1E+10	1	-1E+10	1	-1E+10	1	-1E+10	1
4901784	25	C	03/11/2016	10:47	-131.995	44.656	0	1265.70	0	2.8540	0	34.4450	0	27.463	0	1251.658	0	17.9	4	5.5	4	-1E+10	1	-1E+10	1	-1E+10	1	-1E+10	1	-1E+10	1	-1E+10	1
4901784	25	C	03/11/2016	10:47	-131.995	44.656	0	1270.70	0	2.8480	0	34.4460	0	27.464	0	1256.588	0	18.0	4	5.5	4	-1E+10	1	-1E+10	1	-1E+10	1	-1E+10	1	-1E+10	1	-1E+10	1
4901784	25	C	03/11/2016	10:47	-131.995	44.656	0	1275.00	0	2.8420	0	34.4470	0	27.466	0	1260.827	0	18.1	4	5.6	4	-1E+10	1	-1E+10	1	-1E+10	1	-1E+10	1	-1E+10	1	-1E+10	1
4901784	25	C	03/11/2016	10:47	-131.995	44.656	0	1279.30	0	2.8360	0	34.4480	0	27.467	0	1265.067	0	18.3	4	5.6	4	-1E+10	1	-1E+10	1	-1E+10	1	-1E+10	1	-1E+10	1	-1E+10	1
4901784	25	C	03/11/2016	10:47	-131.995	44.656	0	1284.40	0	2.8250	0	34.4500	0	27.470	0	1270.094	0	18.5	4	5.7	4	-1E+10	1	-1E+10	1	-1E+10	1	-1E+10	1	-1E+10	1	-1E+10	1
4901784	25	C	03/11/2016	10:47	-131.995	44.656	0	1289.50	0	2.8130	0	34.4520	0	27.472	0	1275.122	0	18.8	4	5.8	4	-1E+10	1	-1E+10	1	-1E+10	1	-1E+10	1	-1E+10	1	-1E+10	1
4901784	25	C	03/11/2016	10:47	-131.995	44.656	0	1294.70	0	2.8020	0	34.4540	0	27.475	0	1280.248	0	19.1	4	5.9	4	-1E+10	1	-1E+10	1	-1E+10	1	-1E+10	1	-1E+10	1	-1E+10	1
4901784	25	C	03/11/2016	10:47	-131.995	44.656	0	1299.90	0	2.7880	0	34.4560	0	27.478	0	1285.374	0	19.3	4	5.9	4	-1E+10	1	-1E+10	1	-1E+10	1	-1E+10	1	-1E+10	1	-1E+10	1
4901784	25	C	03/11/2016	10:47	-131.995	44.656	0	1305.10	0	2.7730	0	34.4580	0	27.481	0	1290.500	0	19.6	4	6.0	4	-1E+10	1	-1E+10	1	-1E+10	1	-1E+10	1	-1E+10	1	-1E+10	1
4901784	25	C	03/11/2016	10:47	-131.995	44.656	0	1310.40	0	2.7660	0	34.4590	0	27.482	0	1295.725	0	19.8	4	6.1	4	-1E+10	1	-1E+10	1	-1E+10	1	-1E+10	1	-1E+10	1	-1E+10	1
4901784	25	C	03/11/2016	10:47	-131.995	44.656	0	1314.80	0	2.7550	0	34.4600	0	27.484	0	1300.062	0	20.0	4	6.1	4	-1E+10	1	-1E+10	1	-1E+10	1	-1E+10	1	-1E+10	1	-1E+10	1
4901784	25	C	03/11/2016	10:47	-131.995	44.656	0	1320.00	0	2.7490	0	34.4610	0	27.485	0	1305.188	0	20.2	4	6.2	4	-1E+10	1	-1E+10	1	-1E+10	1	-1E+10	1	-1E+10	1	-1E+10	1
4901784	25	C	03/11/2016	10:47	-131.995	44.656	0	1325.40	0	2.7400	0	34.4630	0	27.488	0	1310.510	0	20.5	4	6.3	4	-1E+10	1	-1E+10	1	-1E+10	1	-1E+10	1	-1E+10	1	-1E+10	1
4901784	25	C	03/11/2016	10:47	-131.995	44.656	0	1330.20	0	2.7300	0	34.4640	0	27.489	0	1315.241	0	20.8	4	6.4	4	-1E+10	1	-1E+10	1	-1E+10	1	-1E+10	1	-1E+10	1	-1E+10	1
4901784	25	C	03/11/2016	10:47	-131.995	44.656	0	1335.00	0	2.7150	0	34.4660	0	27.492	0	1319.972	0	21.0	4	6.5	4	-1E+10	1	-1E+10	1	-1E+10	1	-1E+10	1	-1E+10	1	-1E+10	1
4901784	25	C	03/11/2016	10:47	-131.995	44.656	0	1339.80	0	2.7070	0	34.4670	0	27.494	0	1324.703	0	21.2	4	6.5	4	-1E+10	1	-1E+10	1	-1E+10	1	-1E+10	1	-1E+10	1	-1E+10	1
4901784	25	C	03/11/2016	10:47	-131.995	44.656	0	1344.70	0	2.7000	0	34.4680	0	27.495	0	1329.532	0	21.5	4	6.6	4	-1E+10	1	-1E+10	1	-1E+10	1	-1E+10	1	-1E+10	1	-1E+10	1
4901784	25	C	03/11/2016	10:47	-131.995	44.656	0	1349.60	0	2.6880	0	34.4700	0	27.498	0	1334.362	0	21.9	4	6.7	4	-1E+10	1	-1E+10	1	-1E+10	1	-1E+10	1	-1E+10	1	-1E+10	1
4901784	25	C	03/11/2016	10:47	-131.995	44.656	0	1354.60	0	2.6730	0	34.4720	0	27.501	0	1339.289	0	22.1	4	6.8	4	-1E+10	1	-1E+10	1	-1E+10	1	-1E+10	1	-1E+10	1	-1E+10	1
4901784	25	C	03/11/2016	10:47	-131.995	44.656	0	1359.60	0	2.6690	0	34.4730	0	27.502	0	1344.217	0	22.3	4	6.8	4	-1E+10	1	-1E+10	1	-1E+10	1	-1E+10	1	-1E+10	1	-1E+10	1
4901784	25	C	03/11/2016	10:47	-131.995	44.656	0	1364.70	0	2.6650	0	34.4750	0	27.504	0	1349.243	0	22.4	4	6.9	4	-1E+10	1	-1E+10	1	-1E+10	1	-1E+10	1	-1E+10	1	-1E+10	1
4901784	25	C	03/11/2016	10:47	-131.995	44.656	0	1369.70	0	2.6610	0	34.4760	0	27.505	0	1354.170	0	22.6	4	6.9	4	-1E+10	1	-1E+10	1	-1E+10	1	-1E+10	1	-1E+10	1	-1E+10	1
4901784	25	C	03/11/2016	10:47	-131.995	44.656	0	1374.80	0	2.6580	0	34.4760	0	27.505	0	1359.196	0	22.8	4	7.0	4	-1E+10	1	-1E+10	1	-1E+10	1	-1E+10	1	-1E+10	1	-1E+10	1
4901784	25	C	03/11/2016	10:47	-131.995	44.656	0	1379.90	0	2.6410	0	34.4780	0	27.509	0	1364.222	0	23.1	4	7.1	4	-1E+10	1	-1E+10	1	-1E+10	1	-1E+10	1	-1E+10	1	-1E+10	1
4901784	25	C	03/11/2016	10:47	-131.995	44.656	0	1385.10	0	2.6360	0	34.4790	0	27.510	0	1369.346	0	23.3	4	7.1	4	-1E+10	1	-1E+10	1	-1E+10	1	-1E+10	1	-1E+10	1	-1E+10	1
4901784	25	C	03/11/2016	10:47	-131.995	44.656	0	1390.30	0	2.6280	0	34.4810	0	27.512	0	1374.470	0	23.5	4	7.2	4	-1E+10	1	-1E+10	1	-1E+10	1	-1E+10	1	-1E+10	1	-1E+10	1
4901784	25	C	03/11/2016	10:47	-131.995	44.656	0	1395.60	0	2.6240	0	34.4810	0	27.512	0	1379.692	0	23.7	4	7.3	4	-1E+10	1	-1E+10	1	-1E+10	1	-1E+10	1	-1E+10	1	-1E+10	1
4901784	25	C	03/11/2016	10:47	-131.995	44.656	0	1400.10	0	2.6180	0	34.4820	0	27.514	0	1384.126	0	23.9	4	7.3	4	-1E+10	1	-1E+10	1	-1E+10	1	-1E+10	1	-1E+10	1	-1E+10	1
4901784	25	C	03/11/2016	10:47	-131.995	44.656	0	1404.50	0	2.6110	0	34.4830	0	27.515	0	1388.461	0	24.1	4	7.4	4	-1E+10	1	-1E+10	1	-1E+10	1	-1E+10	1	-1E+10	1	-1E+10	1
4901784	25	C	03/11/2016	10:47	-131.995	44.656	0	1409.70	0	2.6020	0	34.4840	0	27.517	0	1393.585	0	24.5	4	7.5	4	-1E+10	1	-1E+10	1	-1E+10	1	-1E+10	1	-1E+10	1	-1E+10	1
4901784	25	C	03/11/2016	10:47	-131.995	44.656	0	1415.10	0	2.5890	0	34.4860	0	27.520	0	1398.905	0	24.8	4	7.6	4	-1E+10	1	-1E+10	1	-1E+10	1	-1E+10	1	-1E+10	1	-1E+10	1
4901784	25	C	03/11/2016	10:47	-131.995	44.656	0	1420.40	0	2.5810	0	34.4870	0	27.521	0	1404.127	0	25.0	4	7.6	4	-1E+10	1	-1E+10	1	-1E+10	1	-1E+10	1	-1E+10	1	-1E+10	1
4901784	25	C	03/11/2016	10:47	-131.995	44.656	0	1425.00	0	2.5770	0	34.4870	0	27.521	0	1408.659	0	25.1	4	7.7	4	-1E+10	1	-1E+10	1	-1E+10	1	-1E+10	1	-1E+10	1	-1E+10	1
4901784	25	C	03/11/2016	10:47	-131.995	44.656	0	1429.50	0	2.5710	0	34.4880	0	27.523	0	1413.092	0	25.4	4	7.8	4	-1E+10	1	-1E+10	1	-1E+10	1	-1E+10	1	-1E+10	1	-1E+10	1
4901784	25	C	03/11/2016	10:47	-131.995	44.656	0	1435.50	0	2.5630	0	34.4890	0	27.524	0	1419.003	0	25.7	4	7.9	4	-1E+10	1	-1E+10	1	-1E+10	1	-1E+10	1	-1E+10	1	-1E+10	1
4901784	25	C	03/11/2016	10:47	-131.995	44.656	0	1440.50	0	2.5520	0	34.4910	0	27.527	0	1423.929	0	26.0	4	8.0	4	-1E+10	1	-1E+10	1	-1E+10	1	-1E+10	1	-1E+10	1	-1E+10	1
4901784	25	C	03/11/2016	10:47	-131.995	44.656	0	1445.30	0	2.5430	0	34.4920	0	27.528	0	1428.657	0	26.3	4	8.0	4	-1E+10	1	-1E+10	1	-1E+10	1	-1E+10	1	-1E+10	1	-1E+10	1
4901784	25	C	03/11/2016	10:47	-131.995	44.656	0	1450.10	0	2.5350	0	34.4930	0	27.530	0	1433.386	0	26.6	4	8.1	4	-1E+10	1	-1E+10	1	-1E+10	1	-1E+10	1	-1E+10	1	-1E+10	1
4901784	25	C	03/11/2016	10:47	-131.995	44.656	0	1455.00	0	2.5290	0	34.4940	0	27.531	0	1438.213	0	26.8	4	8.2	4	-1E+10	1	-1E+10	1	-1E+10	1	-1E+10	1	-1E+10	1	-1E+10	1
4901784	25	C	03/11/2016	10:47	-131.995	44.656	0	1459.80	0	2.5220	0	34.4940	0	27.532	0	1442.941	0	27.1	4	8.3	4	-1E+10	1	-1E+10	1	-1E+10	1	-1E+10	1	-1E+10	1	-1E+10	1
4901784	25	C	03/11/2016	10:47	-131.995	44.656	0	1464.60	0	2.5130	0	34.4950	0	27.533	0	1447.669	0	27.4	4	8.4	4	-1E+10	1	-1E+10	1	-1E+10	1	-1E+10	1	-1E+10	1	-1E+10	1
4901784	25	C	03/11/2016	10:47	-131.995	44.656	0	1469.40	0	2.5000	0	34.4970	0	27.536	0	1452.397	0	27.8	4	8.5	4	-1E+10	1	-1E+10	1	-1E+10	1	-1E+10	1	-1E+10	1	-1E+10	1
4901784	25	C	03/11/2016	10:47	-131.995	44.656	0	1474.40	0	2.4940	0	34.4980	0	27.537	0	1457.322	0	28.0	4	8.5	4	-1E+10	1	-1E+10	1	-1E+10	1	-1E+10	1	-1E+10	1	-1E+10	1
4901784	25	C	03/11/2016	10:47	-131.995	44.656	0	1479.40	0	2.4880	0	34.4990	0	27.539	0	1462.247	0	28.3	4	8.6	4	-1E+10	1	-1E+10	1	-1E+10	1	-1E+10	1	-1E+10	1	-1E+10	1
4901784	25	C	03/11/2016	10:47	-131.995	44.656	0	1484.40	0	2.4760	0	34.5000	0	27.541	0	1467.171	0	28.5	4	8.7	4	-1E+10	1	-1E+10	1	-1E+10	1	-1E+10	1	-1E+10	1	-1E+10	1
4901784	25	C	03/11/2016	10:47	-131.995	44.656	0	1489.40	0	2.4730	0	34.5000	0	27.541	0	1472.096	0	28.7	4	8.8	4	-1E+10	1	-1E+10	1	-1E+10	1	-1E+10	1	-1E+10	1	-1E+10	1
4901784	25	C	03/11/2016	10:47	-131.995	44.656	0	1494.40	0	2.4660	0	34.5010	0	27.542	0	1477.020	0	28.9	4	8.8	4	-1E+10	1	-1E+10	1	-1E+10	1	-1E+10	1	-1E+10	1	-1E+10	1
4901784	25	C	03/11/2016	10:47	-131.995	44.656	0	1499.60	0	2.4620	0	34.5020	0	27.543	0	1482.142	0	29.1	4	8.9	4	-1E+10	1	-1E+10	1	-1E+10	1	-1E+10	1	-1E+10	1	-1E+10	1
4901784	25	C	03/11/2016	10:47	-131.995	44.656	0	1504.70	0	2.4550	0	34.5030	0	27.545	0	1487.164	0	29.3	4	8.9	4	-1E+10	1	-1E+10	1	-1E+10	1	-1E+10	1	-1E+10	1	-1E+10	1
4901784	25	C	03/11/2016	10:47	-131.995	44.656	0	1509.70	0	2.4480	0	34.5030	0	27.546	0	1492.088	0	29.5	4	9.0	4	-1E+10	1	-1E+10	1	-1E+10	1	-1E+10	1	-1E+10	1	-1E+10	1
4901784	25	C	03/11/2016	10:47	-131.995	44.656	0	1514.70	0	2.4430	0	34.5040	0	27.547	0	1497.012	0	29.7	4	9.0	4	-1E+10	1	-1E+10	1	-1E+10	1	-1E+10	1	-1E+10	1	-1E+10	1
4901784	25	C	03/11/2016	10:47	-131.995	44.656	0	1519.80	0	2.4390	0	34.5040	0	27.547	0	1502.035	0	29.9	4	9.1	4	-1E+10	1	-1E+10	1	-1E+10	1	-1E+10	1	-1E+10	1	-1E+10	1
4901784	25	C	03/11/2016	10:47	-131.995	44.656	0	1524.90	0	2.4320	0	34.5050	0	27.549	0	1507.057	0	30.2	4	9.2	4	-1E+10	1	-1E+10	1	-1E+10	1	-1E+10	1	-1E+10	1	-1E+10	1
4901784	25	C	03/11/2016	10:47	-131.995	44.656	0	1530.10	0	2.4250	0	34.5060	0	27.550	0	1512.178	0	30.5	4	9.3	4	-1E+10	1	-1E+10	1	-1E+10	1	-1E+10	1	-1E+10	1	-1E+10	1
4901784	25	C	03/11/2016	10:47	-131.995	44.656	0	1535.20	0	2.4140	0	34.5070	0	27.552	0	1517.200	0	30.8	4	9.4	4	-1E+10	1	-1E+10	1	-1E+10	1	-1E+10	1	-1E+10	1	-1E+10	1
4901784	25	C	03/11/2016	10:47	-131.995	44.656	0	1540.50	0	2.4030	0	34.5080	0	27.553	0	1522.418	0	31.1	4	9.5	4	-1E+10	1	-1E+10	1	-1E+10	1	-1E+10	1	-1E+10	1	-1E+10	1
4901784	25	C	03/11/2016	10:47	-131.995	44.656	0	1545.70	0	2.3940	0	34.5090	0	27.555	0	1527.538	0	31.4	4	9.6	4	-1E+10	1	-1E+10	1	-1E+10	1	-1E+10	1	-1E+10	1	-1E+10	1
4901784	25	C	03/11/2016	10:47	-131.995	44.656	0	1550.00	0	2.3930	0	34.5100	0	27.556	0	1531.772	0	31.6	4	9.6	4	-1E+10	1	-1E+10	1	-1E+10	1	-1E+10	1	-1E+10	1	-1E+10	1
4901784	25	C	03/11/2016	10:47	-131.995	44.656	0	1554.60	0	2.3860	0	34.5110	0	27.557	0	1536.302	0	32.0	4	9.7	4	-1E+10	1	-1E+10	1	-1E+10	1	-1E+10	1	-1E+10	1	-1E+10	1
4901784	25	C	03/11/2016	10:47	-131.995	44.656	0	1559.90	0	2.3760	0	34.5120	0	27.559	0	1541.520	0	32.5	4	9.9	4	-1E+10	1	-1E+10	1	-1E+10	1	-1E+10	1	-1E+10	1	-1E+10	1
4901784	25	C	03/11/2016	10:47	-131.995	44.656	0	1565.20	0	2.3620	0	34.5140	0	27.562	0	1546.738	0	32.9	4	10.0	4	-1E+10	1	-1E+10	1	-1E+10	1	-1E+10	1	-1E+10	1	-1E+10	1
4901784	25	C	03/11/2016	10:47	-131.995	44.656	0	1570.60	0	2.3560	0	34.5140	0	27.562	0	1552.055	0	33.2	4	10.1	4	-1E+10	1	-1E+10	1	-1E+10	1	-1E+10	1	-1E+10	1	-1E+10	1
4901784	25	C	03/11/2016	10:47	-131.995	44.656	0	1575.00	0	2.3510	0	34.5150	0	27.563	0	1556.387	0	33.5	4	10.2	4	-1E+10	1	-1E+10	1	-1E+10	1	-1E+10	1	-1E+10	1	-1E+10	1
4901784	25	C	03/11/2016	10:47	-131.995	44.656	0	1579.40	0	2.3420	0	34.5160	0	27.565	0	1560.718	0	33.9	4	10.3	4	-1E+10	1	-1E+10	1	-1E+10	1	-1E+10	1	-1E+10	1	-1E+10	1
4901784	25	C	03/11/2016	10:47	-131.995	44.656	0	1584.80	0	2.3320	0	34.5170	0	27.567	0	1566.035	0	34.3	4	10.4	4	-1E+10	1	-1E+10	1	-1E+10	1	-1E+10	1	-1E+10	1	-1E+10	1
4901784	25	C	03/11/2016	10:47	-131.995	44.656	0	1590.20	0	2.3220	0	34.5180	0	27.568	0	1571.350	0	34.7	4	10.5	4	-1E+10	1	-1E+10	1	-1E+10	1	-1E+10	1	-1E+10	1	-1E+10	1
4901784	25	C	03/11/2016	10:47	-131.995	44.656	0	1595.60	0	2.3160	0	34.5190	0	27.570	0	1576.666	0	35.0	4	10.6	4	-1E+10	1	-1E+10	1	-1E+10	1	-1E+10	1	-1E+10	1	-1E+10	1
4901784	25	C	03/11/2016	10:47	-131.995	44.656	0	1600.10	0	2.3110	0	34.5200	0	27.571	0	1581.096	0	35.3	4	10.7	4	-1E+10	1	-1E+10	1	-1E+10	1	-1E+10	1	-1E+10	1	-1E+10	1
4901784	25	C	03/11/2016	10:47	-131.995	44.656	0	1604.50	0	2.3050	0	34.5200	0	27.571	0	1585.428	0	35.5	4	10.8	4	-1E+10	1	-1E+10	1	-1E+10	1	-1E+10	1	-1E+10	1	-1E+10	1
4901784	25	C	03/11/2016	10:47	-131.995	44.656	0	1609.90	0	2.2990	0	34.5210	0	27.573	0	1590.743	0	35.8	4	10.9	4	-1E+10	1	-1E+10	1	-1E+10	1	-1E+10	1	-1E+10	1	-1E+10	1
4901784	25	C	03/11/2016	10:47	-131.995	44.656	0	1615.30	0	2.2930	0	34.5220	0	27.574	0	1596.058	0	36.1	4	11.0	4	-1E+10	1	-1E+10	1	-1E+10	1	-1E+10	1	-1E+10	1	-1E+10	1
4901784	25	C	03/11/2016	10:47	-131.995	44.656	0	1619.90	0	2.2880	0	34.5230	0	27.575	0	1600.586	0	36.3	4	11.0	4	-1E+10	1	-1E+10	1	-1E+10	1	-1E+10	1	-1E+10	1	-1E+10	1
4901784	25	C	03/11/2016	10:47	-131.995	44.656	0	1624.40	0	2.2820	0	34.5230	0	27.576	0	1605.016	0	36.6	4	11.1	4	-1E+10	1	-1E+10	1	-1E+10	1	-1E+10	1	-1E+10	1	-1E+10	1
4901784	25	C	03/11/2016	10:47	-131.995	44.656	0	1629.80	0	2.2740	0	34.5240	0	27.577	0	1610.331	0	37.1	4	11.3	4	-1E+10	1	-1E+10	1	-1E+10	1	-1E+10	1	-1E+10	1	-1E+10	1
4901784	25	C	03/11/2016	10:47	-131.995	44.656	0	1635.30	0	2.2640	0	34.5260	0	27.580	0	1615.744	0	37.5	4	11.4	4	-1E+10	1	-1E+10	1	-1E+10	1	-1E+10	1	-1E+10	1	-1E+10	1
4901784	25	C	03/11/2016	10:47	-131.995	44.656	0	1639.90	0	2.2600	0	34.5270	0	27.581	0	1620.271	0	37.7	4	11.4	4	-1E+10	1	-1E+10	1	-1E+10	1	-1E+10	1	-1E+10	1	-1E+10	1
4901784	25	C	03/11/2016	10:47	-131.995	44.656	0	1644.70	0	2.2540	0	34.5270	0	27.581	0	1624.995	0	38.0	4	11.5	4	-1E+10	1	-1E+10	1	-1E+10	1	-1E+10	1	-1E+10	1	-1E+10	1
4901784	25	C	03/11/2016	10:47	-131.995	44.656	0	1650.00	0	2.2480	0	34.5280	0	27.583	0	1630.212	0	38.4	4	11.6	4	-1E+10	1	-1E+10	1	-1E+10	1	-1E+10	1	-1E+10	1	-1E+10	1
4901784	25	C	03/11/2016	10:47	-131.995	44.656	0	1654.90	0	2.2390	0	34.5290	0	27.584	0	1635.034	0	38.7	4	11.7	4	-1E+10	1	-1E+10	1	-1E+10	1	-1E+10	1	-1E+10	1	-1E+10	1
4901784	25	C	03/11/2016	10:47	-131.995	44.656	0	1659.80	0	2.2340	0	34.5290	0	27.585	0	1639.856	0	39.0	4	11.8	4	-1E+10	1	-1E+10	1	-1E+10	1	-1E+10	1	-1E+10	1	-1E+10	1
4901784	25	C	03/11/2016	10:47	-131.995	44.656	0	1664.70	0	2.2280	0	34.5300	0	27.586	0	1644.678	0	39.3	4	11.9	4	-1E+10	1	-1E+10	1	-1E+10	1	-1E+10	1	-1E+10	1	-1E+10	1
4901784	25	C	03/11/2016	10:47	-131.995	44.656	0	1669.60	0	2.2220	0	34.5310	0	27.587	0	1649.500	0	39.7	4	12.0	4	-1E+10	1	-1E+10	1	-1E+10	1	-1E+10	1	-1E+10	1	-1E+10	1
4901784	25	C	03/11/2016	10:47	-131.995	44.656	0	1674.60	0	2.2100	0	34.5330	0	27.590	0	1654.421	0	40.1	4	12.2	4	-1E+10	1	-1E+10	1	-1E+10	1	-1E+10	1	-1E+10	1	-1E+10	1
4901784	25	C	03/11/2016	10:47	-131.995	44.656	0	1679.60	0	2.2050	0	34.5330	0	27.590	0	1659.341	0	40.4	4	12.2	4	-1E+10	1	-1E+10	1	-1E+10	1	-1E+10	1	-1E+10	1	-1E+10	1
4901784	25	C	03/11/2016	10:47	-131.995	44.656	0	1684.60	0	2.2010	0	34.5340	0	27.591	0	1664.261	0	40.7	4	12.3	4	-1E+10	1	-1E+10	1	-1E+10	1	-1E+10	1	-1E+10	1	-1E+10	1
4901784	25	C	03/11/2016	10:47	-131.995	44.656	0	1689.60	0	2.1970	0	34.5340	0	27.592	0	1669.181	0	41.1	4	12.4	4	-1E+10	1	-1E+10	1	-1E+10	1	-1E+10	1	-1E+10	1	-1E+10	1
4901784	25	C	03/11/2016	10:47	-131.995	44.656	0	1694.70	0	2.1870	0	34.5360	0	27.594	0	1674.199	0	41.5	4	12.6	4	-1E+10	1	-1E+10	1	-1E+10	1	-1E+10	1	-1E+10	1	-1E+10	1
4901784	25	C	03/11/2016	10:47	-131.995	44.656	0	1699.80	0	2.1790	0	34.5380	0	27.596	0	1679.217	0	42.0	4	12.7	4	-1E+10	1	-1E+10	1	-1E+10	1	-1E+10	1	-1E+10	1	-1E+10	1
4901784	25	C	03/11/2016	10:47	-131.995	44.656	0	1704.90	0	2.1720	0	34.5380	0	27.597	0	1684.235	0	42.4	4	12.8	4	-1E+10	1	-1E+10	1	-1E+10	1	-1E+10	1	-1E+10	1	-1E+10	1
4901784	25	C	03/11/2016	10:47	-131.995	44.656	0	1710.10	0	2.1630	0	34.5390	0	27.599	0	1689.351	0	42.8	4	12.9	4	-1E+10	1	-1E+10	1	-1E+10	1	-1E+10	1	-1E+10	1	-1E+10	1
4901784	25	C	03/11/2016	10:47	-131.995	44.656	0	1715.20	0	2.1570	0	34.5400	0	27.600	0	1694.369	0	43.1	4	13.0	4	-1E+10	1	-1E+10	1	-1E+10	1	-1E+10	1	-1E+10	1	-1E+10	1
4901784	25	C	03/11/2016	10:47	-131.995	44.656	0	1720.30	0	2.1500	0	34.5410	0	27.601	0	1699.387	0	43.4	4	13.1	4	-1E+10	1	-1E+10	1	-1E+10	1	-1E+10	1	-1E+10	1	-1E+10	1
4901784	25	C	03/11/2016	10:47	-131.995	44.656	0	1725.40	0	2.1470	0	34.5420	0	27.602	0	1704.404	0	43.6	4	13.2	4	-1E+10	1	-1E+10	1	-1E+10	1	-1E+10	1	-1E+10	1	-1E+10	1
4901784	25	C	03/11/2016	10:47	-131.995	44.656	0	1730.60	0	2.1410	0	34.5430	0	27.604	0	1709.520	0	43.9	4	13.3	4	-1E+10	1	-1E+10	1	-1E+10	1	-1E+10	1	-1E+10	1	-1E+10	1
4901784	25	C	03/11/2016	10:47	-131.995	44.656	0	1735.70	0	2.1350	0	34.5430	0	27.604	0	1714.537	0	44.2	4	13.4	4	-1E+10	1	-1E+10	1	-1E+10	1	-1E+10	1	-1E+10	1	-1E+10	1
4901784	25	C	03/11/2016	10:47	-131.995	44.656	0	1740.10	0	2.1300	0	34.5450	0	27.606	0	1718.866	0	44.4	4	13.4	4	-1E+10	1	-1E+10	1	-1E+10	1	-1E+10	1	-1E+10	1	-1E+10	1
4901784	25	C	03/11/2016	10:47	-131.995	44.656	0	1744.40	0	2.1270	0	34.5450	0	27.606	0	1723.096	0	44.5	4	13.5	4	-1E+10	1	-1E+10	1	-1E+10	1	-1E+10	1	-1E+10	1	-1E+10	1
4901784	25	C	03/11/2016	10:47	-131.995	44.656	0	1749.70	0	2.1250	0	34.5450	0	27.607	0	1728.310	0	44.7	4	13.5	4	-1E+10	1	-1E+10	1	-1E+10	1	-1E+10	1	-1E+10	1	-1E+10	1
4901784	25	C	03/11/2016	10:47	-131.995	44.656	0	1755.00	0	2.1200	0	34.5450	0	27.607	0	1733.523	0	45.1	4	13.6	4	-1E+10	1	-1E+10	1	-1E+10	1	-1E+10	1	-1E+10	1	-1E+10	1
4901784	25	C	03/11/2016	10:47	-131.995	44.656	0	1760.30	0	2.1120	0	34.5470	0	27.609	0	1738.737	0	45.7	4	13.8	4	-1E+10	1	-1E+10	1	-1E+10	1	-1E+10	1	-1E+10	1	-1E+10	1
4901784	25	C	03/11/2016	10:47	-131.995	44.656	0	1765.70	0	2.1050	0	34.5480	0	27.611	0	1744.048	0	46.1	4	13.9	4	-1E+10	1	-1E+10	1	-1E+10	1	-1E+10	1	-1E+10	1	-1E+10	1
4901784	25	C	03/11/2016	10:47	-131.995	44.656	0	1770.20	0	2.1020	0	34.5480	0	27.611	0	1748.475	0	46.4	4	14.0	4	-1E+10	1	-1E+10	1	-1E+10	1	-1E+10	1	-1E+10	1	-1E+10	1
4901784	25	C	03/11/2016	10:47	-131.995	44.656	0	1774.70	0	2.0980	0	34.5490	0	27.612	0	1752.901	0	46.8	4	14.1	4	-1E+10	1	-1E+10	1	-1E+10	1	-1E+10	1	-1E+10	1	-1E+10	1
4901784	25	C	03/11/2016	10:47	-131.995	44.656	0	1780.20	0	2.0920	0	34.5500	0	27.613	0	1758.311	0	47.1	4	14.2	4	-1E+10	1	-1E+10	1	-1E+10	1	-1E+10	1	-1E+10	1	-1E+10	1
4901784	25	C	03/11/2016	10:47	-131.995	44.656	0	1785.60	0	2.0870	0	34.5500	0	27.614	0	1763.622	0	47.4	4	14.3	4	-1E+10	1	-1E+10	1	-1E+10	1	-1E+10	1	-1E+10	1	-1E+10	1
4901784	25	C	03/11/2016	10:47	-131.995	44.656	0	1790.30	0	2.0830	0	34.5510	0	27.615	0	1768.245	0	47.7	4	14.4	4	-1E+10	1	-1E+10	1	-1E+10	1	-1E+10	1	-1E+10	1	-1E+10	1
4901784	25	C	03/11/2016	10:47	-131.995	44.656	0	1794.80	0	2.0800	0	34.5510	0	27.615	0	1772.670	0	48.0	4	14.5	4	-1E+10	1	-1E+10	1	-1E+10	1	-1E+10	1	-1E+10	1	-1E+10	1
4901784	25	C	03/11/2016	10:47	-131.995	44.656	0	1799.80	0	2.0730	0	34.5530	0	27.617	0	1777.588	0	48.5	4	14.6	4	-1E+10	1	-1E+10	1	-1E+10	1	-1E+10	1	-1E+10	1	-1E+10	1
4901784	25	C	03/11/2016	10:47	-131.995	44.656	0	1804.70	0	2.0680	0	34.5540	0	27.619	0	1782.407	0	48.8	4	14.7	4	-1E+10	1	-1E+10	1	-1E+10	1	-1E+10	1	-1E+10	1	-1E+10	1
4901784	25	C	03/11/2016	10:47	-131.995	44.656	0	1809.60	0	2.0600	0	34.5550	0	27.620	0	1787.226	0	49.2	4	14.9	4	-1E+10	1	-1E+10	1	-1E+10	1	-1E+10	1	-1E+10	1	-1E+10	1
4901784	25	C	03/11/2016	10:47	-131.995	44.656	0	1814.60	0	2.0560	0	34.5550	0	27.620	0	1792.143	0	49.6	4	15.0	4	-1E+10	1	-1E+10	1	-1E+10	1	-1E+10	1	-1E+10	1	-1E+10	1
4901784	25	C	03/11/2016	10:47	-131.995	44.656	0	1819.60	0	2.0520	0	34.5560	0	27.621	0	1797.060	0	49.9	4	15.1	4	-1E+10	1	-1E+10	1	-1E+10	1	-1E+10	1	-1E+10	1	-1E+10	1
4901784	25	C	03/11/2016	10:47	-131.995	44.656	0	1824.60	0	2.0460	0	34.5570	0	27.623	0	1801.977	0	50.2	4	15.2	4	-1E+10	1	-1E+10	1	-1E+10	1	-1E+10	1	-1E+10	1	-1E+10	1
4901784	25	C	03/11/2016	10:47	-131.995	44.656	0	1829.70	0	2.0440	0	34.5570	0	27.623	0	1806.992	0	50.5	4	15.2	4	-1E+10	1	-1E+10	1	-1E+10	1	-1E+10	1	-1E+10	1	-1E+10	1
4901784	25	C	03/11/2016	10:47	-131.995	44.656	0	1834.80	0	2.0390	0	34.5580	0	27.624	0	1812.007	0	50.8	4	15.3	4	-1E+10	1	-1E+10	1	-1E+10	1	-1E+10	1	-1E+10	1	-1E+10	1
4901784	25	C	03/11/2016	10:47	-131.995	44.656	0	1840.00	0	2.0360	0	34.5590	0	27.625	0	1817.120	0	51.3	4	15.5	4	-1E+10	1	-1E+10	1	-1E+10	1	-1E+10	1	-1E+10	1	-1E+10	1
4901784	25	C	03/11/2016	10:47	-131.995	44.656	0	1845.10	0	2.0290	0	34.5600	0	27.627	0	1822.135	0	51.6	4	15.6	4	-1E+10	1	-1E+10	1	-1E+10	1	-1E+10	1	-1E+10	1	-1E+10	1
4901784	25	C	03/11/2016	10:47	-131.995	44.656	0	1850.20	0	2.0250	0	34.5610	0	27.628	0	1827.149	0	51.9	4	15.7	4	-1E+10	1	-1E+10	1	-1E+10	1	-1E+10	1	-1E+10	1	-1E+10	1
4901784	25	C	03/11/2016	10:47	-131.995	44.656	0	1855.40	0	2.0200	0	34.5610	0	27.628	0	1832.262	0	52.2	4	15.7	4	-1E+10	1	-1E+10	1	-1E+10	1	-1E+10	1	-1E+10	1	-1E+10	1
4901784	25	C	03/11/2016	10:47	-131.995	44.656	0	1860.60	0	2.0140	0	34.5620	0	27.629	0	1837.375	0	52.5	4	15.8	4	-1E+10	1	-1E+10	1	-1E+10	1	-1E+10	1	-1E+10	1	-1E+10	1
4901784	25	C	03/11/2016	10:47	-131.995	44.656	0	1864.90	0	2.0120	0	34.5620	0	27.630	0	1841.602	0	52.7	4	15.9	4	-1E+10	1	-1E+10	1	-1E+10	1	-1E+10	1	-1E+10	1	-1E+10	1
4901784	25	C	03/11/2016	10:47	-131.995	44.656	0	1869.30	0	2.0050	0	34.5630	0	27.631	0	1845.928	0	53.0	4	16.0	4	-1E+10	1	-1E+10	1	-1E+10	1	-1E+10	1	-1E+10	1	-1E+10	1
4901784	25	C	03/11/2016	10:47	-131.995	44.656	0	1874.60	0	2.0010	0	34.5640	0	27.632	0	1851.139	0	53.3	4	16.1	4	-1E+10	1	-1E+10	1	-1E+10	1	-1E+10	1	-1E+10	1	-1E+10	1
4901784	25	C	03/11/2016	10:47	-131.995	44.656	0	1879.90	0	1.9980	0	34.5640	0	27.632	0	1856.350	0	53.6	4	16.1	4	-1E+10	1	-1E+10	1	-1E+10	1	-1E+10	1	-1E+10	1	-1E+10	1
4901784	25	C	03/11/2016	10:47	-131.995	44.656	0	1885.20	0	1.9950	0	34.5650	0	27.633	0	1861.560	0	53.8	4	16.2	4	-1E+10	1	-1E+10	1	-1E+10	1	-1E+10	1	-1E+10	1	-1E+10	1
4901784	25	C	03/11/2016	10:47	-131.995	44.656	0	1890.60	0	1.9910	0	34.5650	0	27.634	0	1866.869	0	54.2	4	16.3	4	-1E+10	1	-1E+10	1	-1E+10	1	-1E+10	1	-1E+10	1	-1E+10	1
4901784	25	C	03/11/2016	10:47	-131.995	44.656	0	1895.10	0	1.9880	0	34.5660	0	27.635	0	1871.292	0	54.4	4	16.4	4	-1E+10	1	-1E+10	1	-1E+10	1	-1E+10	1	-1E+10	1	-1E+10	1
4901784	25	C	03/11/2016	10:47	-131.995	44.656	0	1899.70	0	1.9840	0	34.5670	0	27.636	0	1875.814	0	54.6	4	16.4	4	-1E+10	1	-1E+10	1	-1E+10	1	-1E+10	1	-1E+10	1	-1E+10	1
4901784	25	C	03/11/2016	10:47	-131.995	44.656	0	1905.20	0	1.9810	0	34.5670	0	27.636	0	1881.221	0	54.9	4	16.5	4	-1E+10	1	-1E+10	1	-1E+10	1	-1E+10	1	-1E+10	1	-1E+10	1
4901784	25	C	03/11/2016	10:47	-131.995	44.656	0	1910.60	0	1.9770	0	34.5680	0	27.637	0	1886.529	0	55.3	4	16.7	4	-1E+10	1	-1E+10	1	-1E+10	1	-1E+10	1	-1E+10	1	-1E+10	1
4901784	25	C	03/11/2016	10:47	-131.995	44.656	0	1915.20	0	1.9750	0	34.5690	0	27.638	0	1891.051	0	55.5	4	16.7	4	-1E+10	1	-1E+10	1	-1E+10	1	-1E+10	1	-1E+10	1	-1E+10	1
4901784	25	C	03/11/2016	10:47	-131.995	44.656	0	1919.70	0	1.9730	0	34.5690	0	27.639	0	1895.474	0	55.7	4	16.8	4	-1E+10	1	-1E+10	1	-1E+10	1	-1E+10	1	-1E+10	1	-1E+10	1
4901784	25	C	03/11/2016	10:47	-131.995	44.656	0	1925.20	0	1.9710	0	34.5690	0	27.639	0	1900.880	0	55.9	4	16.8	4	-1E+10	1	-1E+10	1	-1E+10	1	-1E+10	1	-1E+10	1	-1E+10	1
4901784	25	C	03/11/2016	10:47	-131.995	44.656	0	1929.80	0	1.9680	0	34.5700	0	27.640	0	1905.401	0	56.1	4	16.9	4	-1E+10	1	-1E+10	1	-1E+10	1	-1E+10	1	-1E+10	1	-1E+10	1
4901784	25	C	03/11/2016	10:47	-131.995	44.656	0	1934.40	0	1.9670	0	34.5700	0	27.640	0	1909.922	0	56.3	4	16.9	4	-1E+10	1	-1E+10	1	-1E+10	1	-1E+10	1	-1E+10	1	-1E+10	1
4901784	25	C	03/11/2016	10:47	-131.995	44.656	0	1939.90	0	1.9630	0	34.5710	0	27.641	0	1915.328	0	56.6	4	17.0	4	-1E+10	1	-1E+10	1	-1E+10	1	-1E+10	1	-1E+10	1	-1E+10	1
4901784	25	C	03/11/2016	10:47	-131.995	44.656	0	1945.50	0	1.9590	0	34.5710	0	27.641	0	1920.832	0	56.8	4	17.1	4	-1E+10	1	-1E+10	1	-1E+10	1	-1E+10	1	-1E+10	1	-1E+10	1
4901784	25	C	03/11/2016	10:47	-131.995	44.656	0	1949.60	0	1.9580	0	34.5720	0	27.642	0	1924.861	0	57.0	4	17.2	4	-1E+10	1	-1E+10	1	-1E+10	1	-1E+10	1	-1E+10	1	-1E+10	1
4901784	25	C	03/11/2016	10:47	-131.995	44.656	0	1954.50	0	1.9550	0	34.5730	0	27.643	0	1929.677	0	57.3	4	17.3	4	-1E+10	1	-1E+10	1	-1E+10	1	-1E+10	1	-1E+10	1	-1E+10	1
4901784	25	C	03/11/2016	10:47	-131.995	44.656	0	1959.40	0	1.9520	0	34.5730	0	27.644	0	1934.493	0	57.6	4	17.3	4	-1E+10	1	-1E+10	1	-1E+10	1	-1E+10	1	-1E+10	1	-1E+10	1
4901784	25	C	03/11/2016	10:47	-131.995	44.656	0	1964.30	0	1.9500	0	34.5730	0	27.644	0	1939.308	0	57.8	4	17.4	4	-1E+10	1	-1E+10	1	-1E+10	1	-1E+10	1	-1E+10	1	-1E+10	1
4901784	25	C	03/11/2016	10:47	-131.995	44.656	0	1969.30	0	1.9470	0	34.5740	0	27.645	0	1944.222	0	58.1	4	17.5	4	-1E+10	1	-1E+10	1	-1E+10	1	-1E+10	1	-1E+10	1	-1E+10	1
4901784	25	C	03/11/2016	10:47	-131.995	44.656	0	1974.30	0	1.9420	0	34.5750	0	27.646	0	1949.135	0	58.5	4	17.6	4	-1E+10	1	-1E+10	1	-1E+10	1	-1E+10	1	-1E+10	1	-1E+10	1
4901784	25	C	03/11/2016	10:47	-131.995	44.656	0	1979.30	0	1.9380	0	34.5750	0	27.646	0	1954.048	0	58.8	4	17.7	4	-1E+10	1	-1E+10	1	-1E+10	1	-1E+10	1	-1E+10	1	-1E+10	1
4901784	25	C	03/11/2016	10:47	-131.995	44.656	0	1984.40	0	1.9330	0	34.5760	0	27.648	0	1959.060	0	59.1	4	17.8	4	-1E+10	1	-1E+10	1	-1E+10	1	-1E+10	1	-1E+10	1	-1E+10	1
4901784	25	C	03/11/2016	10:47	-131.995	44.656	0	1989.50	0	1.9310	0	34.5770	0	27.649	0	1964.071	0	59.4	4	17.9	4	-1E+10	1	-1E+10	1	-1E+10	1	-1E+10	1	-1E+10	1	-1E+10	1
4901784	25	C	03/11/2016	10:47	-131.995	44.656	0	1994.60	0	1.9270	0	34.5770	0	27.649	0	1969.083	0	59.7	4	18.0	4	-1E+10	1	-1E+10	1	-1E+10	1	-1E+10	1	-1E+10	1	-1E+10	1
4901784	25	C	03/11/2016	10:47	-131.995	44.656	0	1999.60	0	1.9250	0	34.5780	0	27.650	0	1973.995	0	59.9	4	18.0	4	-1E+10	1	-1E+10	1	-1E+10	1	-1E+10	1	-1E+10	1	-1E+10	1
4901784	25	C	03/11/2016	10:47	-131.995	44.656	0	2004.60	0	1.9220	0	34.5790	0	27.651	0	1978.908	0	60.1	4	18.1	4	-1E+10	1	-1E+10	1	-1E+10	1	-1E+10	1	-1E+10	1	-1E+10	1
4901784	25	C	03/11/2016	10:47	-131.995	44.656	0	2009.40	0	1.9200	0	34.5790	0	27.651	0	1983.624	0	60.3	4	18.1	4	-1E+10	1	-1E+10	1	-1E+10	1	-1E+10	1	-1E+10	1	-1E+10	1
4901784	25	C	03/11/2016	10:47	-131.995	44.656	0	2015.30	0	1.9170	0	34.5790	0	27.651	0	1989.421	0	60.5	4	18.2	4	-1E+10	1	-1E+10	1	-1E+10	1	-1E+10	1	-1E+10	1	-1E+10	1
4901784	25	C	03/11/2016	10:47	-131.995	44.656	0	2019.40	0	1.9150	0	34.5800	0	27.652	0	1993.449	0	58.6	8	17.6	8	-1E+10	1	-1E+10	1	-1E+10	1	-1E+10	1	-1E+10	1	-1E+10	1
4901784	25	C	03/11/2016	10:47	-131.995	44.656	0																										
4901784	26	C	03/21/2016	10:46	-132.024	44.656	0	2.10	0	10.4910	0	32.7280	0	25.096	0	2.083	0	267.8	4	97.0	4	-1E+10	1	-1E+10	1	-1E+10	1	-1E+10	1	-1E+10	1	-1E+10	1
4901784	26	C	03/21/2016	10:46	-132.024	44.656	0	3.40	0	10.4910	0	32.7280	0	25.096	0	3.372	0	267.7	4	96.9	4	-1E+10	1	-1E+10	1	-1E+10	1	-1E+10	1	-1E+10	1	-1E+10	1
4901784	26	C	03/21/2016	10:46	-132.024	44.656	0	4.70	0	10.4930	0	32.7280	0	25.095	0	4.662	0	267.7	4	96.9	4	-1E+10	1	-1E+10	1	-1E+10	1	-1E+10	1	-1E+10	1	-1E+10	1
4901784	26	C	03/21/2016	10:46	-132.024	44.656	0	6.20	0	10.4930	0	32.7280	0	25.096	0	6.150	0	267.7	4	96.9	4	-1E+10	1	-1E+10	1	-1E+10	1	-1E+10	1	-1E+10	1	-1E+10	1
4901784	26	C	03/21/2016	10:46	-132.024	44.656	0	7.70	0	10.4930	0	32.7280	0	25.096	0	7.638	0	267.6	4	96.9	4	-1E+10	1	-1E+10	1	-1E+10	1	-1E+10	1	-1E+10	1	-1E+10	1
4901784	26	C	03/21/2016	10:46	-132.024	44.656	0	9.30	0	10.4930	0	32.7280	0	25.096	0	9.225	0	267.6	4	96.9	4	-1E+10	1	-1E+10	1	-1E+10	1	-1E+10	1	-1E+10	1	-1E+10	1
4901784	26	C	03/21/2016	10:46	-132.024	44.656	0	10.90	0	10.4930	0	32.7280	0	25.096	0	10.812	0	267.7	4	96.9	4	-1E+10	1	-1E+10	1	-1E+10	1	-1E+10	1	-1E+10	1	-1E+10	1
4901784	26	C	03/21/2016	10:46	-132.024	44.656	0	12.60	0	10.4930	0	32.7280	0	25.096	0	12.498	0	267.7	4	96.9	4	-1E+10	1	-1E+10	1	-1E+10	1	-1E+10	1	-1E+10	1	-1E+10	1
4901784	26	C	03/21/2016	10:46	-132.024	44.656	0	14.30	0	10.4930	0	32.7280	0	25.096	0	14.184	0	267.5	4	96.9	4	-1E+10	1	-1E+10	1	-1E+10	1	-1E+10	1	-1E+10	1	-1E+10	1
4901784	26	C	03/21/2016	10:46	-132.024	44.656	0	16.10	0	10.4930	0	32.7280	0	25.096	0	15.969	0	267.6	4	96.9	4	-1E+10	1	-1E+10	1	-1E+10	1	-1E+10	1	-1E+10	1	-1E+10	1
4901784	26	C	03/21/2016	10:46	-132.024	44.656	0	17.90	0	10.4930	0	32.7280	0	25.096	0	17.754	0	267.5	4	96.8	4	-1E+10	1	-1E+10	1	-1E+10	1	-1E+10	1	-1E+10	1	-1E+10	1
4901784	26	C	03/21/2016	10:46	-132.024	44.656	0	19.70	0	10.4930	0	32.7280	0	25.096	0	19.540	0	267.5	4	96.8	4	-1E+10	1	-1E+10	1	-1E+10	1	-1E+10	1	-1E+10	1	-1E+10	1
4901784	26	C	03/21/2016	10:46	-132.024	44.656	0	21.50	0	10.4930	0	32.7280	0	25.096	0	21.325	0	267.4	4	96.8	4	-1E+10	1	-1E+10	1	-1E+10	1	-1E+10	1	-1E+10	1	-1E+10	1
4901784	26	C	03/21/2016	10:46	-132.024	44.656	0	23.40	0	10.4930	0	32.7280	0	25.096	0	23.209	0	267.5	4	96.9	4	-1E+10	1	-1E+10	1	-1E+10	1	-1E+10	1	-1E+10	1	-1E+10	1
4901784	26	C	03/21/2016	10:46	-132.024	44.656	0	25.10	0	10.4940	0	32.7280	0	25.096	0	24.896	0	267.3	4	96.8	4	-1E+10	1	-1E+10	1	-1E+10	1	-1E+10	1	-1E+10	1	-1E+10	1
4901784	26	C	03/21/2016	10:46	-132.024	44.656	0	27.00	0	10.4940	0	32.7280	0	25.096	0	26.780	0	267.6	4	96.9	4	-1E+10	1	-1E+10	1	-1E+10	1	-1E+10	1	-1E+10	1	-1E+10	1
4901784	26	C	03/21/2016	10:46	-132.024	44.656	0	28.70	0	10.4940	0	32.7280	0	25.096	0	28.466	0	267.3	4	96.8	4	-1E+10	1	-1E+10	1	-1E+10	1	-1E+10	1	-1E+10	1	-1E+10	1
4901784	26	C	03/21/2016	10:46	-132.024	44.656	0	30.50	0	10.4940	0	32.7280	0	25.096	0	30.251	0	267.4	4	96.8	4	-1E+10	1	-1E+10	1	-1E+10	1	-1E+10	1	-1E+10	1	-1E+10	1
4901784	26	C	03/21/2016	10:46	-132.024	44.656	0	32.30	0	10.4950	0	32.7270	0	25.095	0	32.036	0	267.4	4	96.8	4	-1E+10	1	-1E+10	1	-1E+10	1	-1E+10	1	-1E+10	1	-1E+10	1
4901784	26	C	03/21/2016	10:46	-132.024	44.656	0	34.00	0	10.4950	0	32.7280	0	25.096	0	33.722	0	267.2	4	96.7	4	-1E+10	1	-1E+10	1	-1E+10	1	-1E+10	1	-1E+10	1	-1E+10	1
4901784	26	C	03/21/2016	10:46	-132.024	44.656	0	35.70	0	10.4910	0	32.7270	0	25.096	0	35.408	0	267.1	4	96.7	4	-1E+10	1	-1E+10	1	-1E+10	1	-1E+10	1	-1E+10	1	-1E+10	1
4901784	26	C	03/21/2016	10:46	-132.024	44.656	0	37.40	0	10.4900	0	32.7270	0	25.096	0	37.094	0	267.1	4	96.7	4	-1E+10	1	-1E+10	1	-1E+10	1	-1E+10	1	-1E+10	1	-1E+10	1
4901784	26	C	03/21/2016	10:46	-132.024	44.656	0	39.10	0	10.4840	0	32.7270	0	25.097	0	38.780	0	266.7	4	96.6	4	-1E+10	1	-1E+10	1	-1E+10	1	-1E+10	1	-1E+10	1	-1E+10	1
4901784	26	C	03/21/2016	10:46	-132.024	44.656	0	40.90	0	10.4780	0	32.7260	0	25.097	0	40.565	0	266.5	4	96.5	4	-1E+10	1	-1E+10	1	-1E+10	1	-1E+10	1	-1E+10	1	-1E+10	1
4901784	26	C	03/21/2016	10:46	-132.024	44.656	0	42.60	0	10.4680	0	32.7250	0	25.098	0	42.251	0	266.2	4	96.3	4	-1E+10	1	-1E+10	1	-1E+10	1	-1E+10	1	-1E+10	1	-1E+10	1
4901784	26	C	03/21/2016	10:46	-132.024	44.656	0	44.20	0	10.4100	0	32.7270	0	25.110	0	43.838	0	266.0	4	96.1	4	-1E+10	1	-1E+10	1	-1E+10	1	-1E+10	1	-1E+10	1	-1E+10	1
4901784	26	C	03/21/2016	10:46	-132.024	44.656	0	45.90	0	10.3790	0	32.7280	0	25.116	0	45.524	0	265.5	4	95.9	4	-1E+10	1	-1E+10	1	-1E+10	1	-1E+10	1	-1E+10	1	-1E+10	1
4901784	26	C	03/21/2016	10:46	-132.024	44.656	0	47.60	0	10.3500	0	32.7300	0	25.122	0	47.210	0	265.2	4	95.7	4	-1E+10	1	-1E+10	1	-1E+10	1	-1E+10	1	-1E+10	1	-1E+10	1
4901784	26	C	03/21/2016	10:46	-132.024	44.656	0	49.30	0	10.3050	0	32.7330	0	25.132	0	48.896	0	265.0	4	95.6	4	-1E+10	1	-1E+10	1	-1E+10	1	-1E+10	1	-1E+10	1	-1E+10	1
4901784	26	C	03/21/2016	10:46	-132.024	44.656	0	51.00	0	10.2890	0	32.7330	0	25.135	0	50.581	0	264.9	4	95.5	4	-1E+10	1	-1E+10	1	-1E+10	1	-1E+10	1	-1E+10	1	-1E+10	1
4901784	26	C	03/21/2016	10:46	-132.024	44.656	0	52.80	0	10.2850	0	32.7330	0	25.136	0	52.366	0	264.7	4	95.4	4	-1E+10	1	-1E+10	1	-1E+10	1	-1E+10	1	-1E+10	1	-1E+10	1
4901784	26	C	03/21/2016	10:46	-132.024	44.656	0	54.50	0	10.2790	0	32.7340	0	25.138	0	54.052	0	264.7	4	95.4	4	-1E+10	1	-1E+10	1	-1E+10	1	-1E+10	1	-1E+10	1	-1E+10	1
4901784	26	C	03/21/2016	10:46	-132.024	44.656	0	56.30	0	10.2780	0	32.7340	0	25.138	0	55.837	0	264.5	4	95.3	4	-1E+10	1	-1E+10	1	-1E+10	1	-1E+10	1	-1E+10	1	-1E+10	1
4901784	26	C	03/21/2016	10:46	-132.024	44.656	0	58.00	0	10.2780	0	32.7340	0	25.138	0	57.523	0	264.3	4	95.3	4	-1E+10	1	-1E+10	1	-1E+10	1	-1E+10	1	-1E+10	1	-1E+10	1
4901784	26	C	03/21/2016	10:46	-132.024	44.656	0	59.80	0	10.2770	0	32.7340	0	25.138	0	59.308	0	264.4	4	95.3	4	-1E+10	1	-1E+10	1	-1E+10	1	-1E+10	1	-1E+10	1	-1E+10	1
4901784	26	C	03/21/2016	10:46	-132.024	44.656	0	61.50	0	10.2750	0	32.7340	0	25.138	0	60.994	0	264.2	4	95.2	4	-1E+10	1	-1E+10	1	-1E+10	1	-1E+10	1	-1E+10	1	-1E+10	1
4901784	26	C	03/21/2016	10:46	-132.024	44.656	0	63.20	0	10.2670	0	32.7340	0	25.140	0	62.679	0	264.0	4	95.1	4	-1E+10	1	-1E+10	1	-1E+10	1	-1E+10	1	-1E+10	1	-1E+10	1
4901784	26	C	03/21/2016	10:46	-132.024	44.656	0	64.90	0	10.2650	0	32.7340	0	25.140	0	64.365	0	263.8	4	95.1	4	-1E+10	1	-1E+10	1	-1E+10	1	-1E+10	1	-1E+10	1	-1E+10	1
4901784	26	C	03/21/2016	10:46	-132.024	44.656	0	66.70	0	10.2620	0	32.7340	0	25.141	0	66.150	0	263.7	4	95.0	4	-1E+10	1	-1E+10	1	-1E+10	1	-1E+10	1	-1E+10	1	-1E+10	1
4901784	26	C	03/21/2016	10:46	-132.024	44.656	0	68.50	0	10.2610	0	32.7340	0	25.141	0	67.935	0	263.6	4	95.0	4	-1E+10	1	-1E+10	1	-1E+10	1	-1E+10	1	-1E+10	1	-1E+10	1
4901784	26	C	03/21/2016	10:46	-132.024	44.656	0	70.20	0	10.2580	0	32.7340	0	25.141	0	69.621	0	263.5	4	94.9	4	-1E+10	1	-1E+10	1	-1E+10	1	-1E+10	1	-1E+10	1	-1E+10	1
4901784	26	C	03/21/2016	10:46	-132.024	44.656	0	71.90	0	10.2530	0	32.7340	0	25.142	0	71.306	0	263.4	4	94.9	4	-1E+10	1	-1E+10	1	-1E+10	1	-1E+10	1	-1E+10	1	-1E+10	1
4901784	26	C	03/21/2016	10:46	-132.024	44.656	0	73.60	0	10.2540	0	32.7340	0	25.142	0	72.992	0	263.3	4	94.8	4	-1E+10	1	-1E+10	1	-1E+10	1	-1E+10	1	-1E+10	1	-1E+10	1
4901784	26	C	03/21/2016	10:46	-132.024	44.656	0	75.40	0	10.2490	0	32.7350	0	25.144	0	74.777	0	262.7	4	94.6	4	-1E+10	1	-1E+10	1	-1E+10	1	-1E+10	1	-1E+10	1	-1E+10	1
4901784	26	C	03/21/2016	10:46	-132.024	44.656	0	77.20	0	10.2470	0	32.7340	0	25.143	0	76.561	0	262.8	4	94.7	4	-1E+10	1	-1E+10	1	-1E+10	1	-1E+10	1	-1E+10	1	-1E+10	1
4901784	26	C	03/21/2016	10:46	-132.024	44.656	0	78.90	0	10.2470	0	32.7340	0	25.143	0	78.247	0	262.3	4	94.5	4	-1E+10	1	-1E+10	1	-1E+10	1	-1E+10	1	-1E+10	1	-1E+10	1
4901784	26	C	03/21/2016	10:46	-132.024	44.656	0	80.70	0	10.2470	0	32.7350	0	25.144	0	80.032	0	262.2	4	94.4	4	-1E+10	1	-1E+10	1	-1E+10	1	-1E+10	1	-1E+10	1	-1E+10	1
4901784	26	C	03/21/2016	10:46	-132.024	44.656	0	82.40	0	10.2450	0	32.7350	0	25.145	0	81.717	0	262.0	4	94.4	4	-1E+10	1	-1E+10	1	-1E+10	1	-1E+10	1	-1E+10	1	-1E+10	1
4901784	26	C	03/21/2016	10:46	-132.024	44.656	0	84.10	0	10.2490	0	32.7370	0	25.146	0	83.403	0	261.8	4	94.3	4	-1E+10	1	-1E+10	1	-1E+10	1	-1E+10	1	-1E+10	1	-1E+10	1
4901784	26	C	03/21/2016	10:46	-132.024	44.656	0	85.90	0	10.2480	0	32.7380	0	25.147	0	85.188	0	261.4	4	94.1	4	-1E+10	1	-1E+10	1	-1E+10	1	-1E+10	1	-1E+10	1	-1E+10	1
4901784	26	C	03/21/2016	10:46	-132.024	44.656	0	87.70	0	10.2480	0	32.7390	0	25.147	0	86.972	0	261.0	4	94.0	4	-1E+10	1	-1E+10	1	-1E+10	1	-1E+10	1	-1E+10	1	-1E+10	1
4901784	26	C	03/21/2016	10:46	-132.024	44.656	0	89.40	0	10.2480	0	32.7390	0	25.147	0	88.658	0	260.7	4	93.9	4	-1E+10	1	-1E+10	1	-1E+10	1	-1E+10	1	-1E+10	1	-1E+10	1
4901784	26	C	03/21/2016	10:46	-132.024	44.656	0	91.20	0	10.2400	0	32.7420	0	25.151	0	90.443	0	260.1	4	93.7	4	-1E+10	1	-1E+10	1	-1E+10	1	-1E+10	1	-1E+10	1	-1E+10	1
4901784	26	C	03/21/2016	10:46	-132.024	44.656	0	92.90	0	10.2360	0	32.7440	0	25.153	0	92.128	0	259.8	4	93.6	4	-1E+10	1	-1E+10	1	-1E+10	1	-1E+10	1	-1E+10	1	-1E+10	1
4901784	26	C	03/21/2016	10:46	-132.024	44.656	0	94.70	0	10.2510	0	32.7480	0	25.154	0	93.913	0	259.0	4	93.3	4	-1E+10	1	-1E+10	1	-1E+10	1	-1E+10	1	-1E+10	1	-1E+10	1
4901784	26	C	03/21/2016	10:46	-132.024	44.656	0	96.50	0	10.2520	0	32.7500	0	25.155	0	95.697	0	258.4	4	93.1	4	-1E+10	1	-1E+10	1	-1E+10	1	-1E+10	1	-1E+10	1	-1E+10	1
4901784	26	C	03/21/2016	10:46	-132.024	44.656	0	98.50	0	10.2430	0	32.7500	0	25.157	0	97.680	0	257.4	4	92.7	4	-1E+10	1	-1E+10	1	-1E+10	1	-1E+10	1	-1E+10	1	-1E+10	1
4901784	26	C	03/21/2016	10:46	-132.024	44.656	0	98.90	0	10.2440	0	32.7500	0	25.157	0	98.077	0	257.0	4	92.6	4	-1E+10	1	-1E+10	1	-1E+10	1	-1E+10	1	-1E+10	1	-1E+10	1
4901784	26	C	03/21/2016	10:46	-132.024	44.656	0	100.40	0	10.2310	0	32.7510	0	25.160	0	99.564	0	255.8	4	92.1	4	-1E+10	1	-1E+10	1	-1E+10	1	-1E+10	1	-1E+10	1	-1E+10	1
4901784	26	C	03/21/2016	10:46	-132.024	44.656	0	102.40	0	10.2160	0	32.7560	0	25.166	0	101.547	0	253.2	4	91.2	4	-1E+10	1	-1E+10	1	-1E+10	1	-1E+10	1	-1E+10	1	-1E+10	1
4901784	26	C	03/21/2016	10:46	-132.024	44.656	0	105.30	0	10.1650	0	32.7780	0	25.192	0	104.422	0	248.1	4	89.2	4	-1E+10	1	-1E+10	1	-1E+10	1	-1E+10	1	-1E+10	1	-1E+10	1
4901784	26	C	03/21/2016	10:46	-132.024	44.656	0	108.00	0	10.0740	0	32.8270	0	25.246	0	107.099	0	242.6	4	87.1	4	-1E+10	1	-1E+10	1	-1E+10	1	-1E+10	1	-1E+10	1	-1E+10	1
4901784	26	C	03/21/2016	10:46	-132.024	44.656	0	110.10	0	10.0120	0	32.8570	0	25.279	0	109.181	0	238.7	4	85.6	4	-1E+10	1	-1E+10	1	-1E+10	1	-1E+10	1	-1E+10	1	-1E+10	1
4901784	26	C	03/21/2016	10:46	-132.024	44.656	0	112.30	0	9.9760	0	32.8740	0	25.299	0	111.362	0	233.3	4	83.6	4	-1E+10	1	-1E+10	1	-1E+10	1	-1E+10	1	-1E+10	1	-1E+10	1
4901784	26	C	03/21/2016	10:46	-132.024	44.656	0	115.40	0	9.8350	0	32.9540	0	25.385	0	114.435	0	225.1	4	80.5	4	-1E+10	1	-1E+10	1	-1E+10	1	-1E+10	1	-1E+10	1	-1E+10	1
4901784	26	C	03/21/2016	10:46	-132.024	44.656	0	117.80	0	9.7410	0	33.0030	0	25.438	0	116.814	0	218.7	4	78.1	4	-1E+10	1	-1E+10	1	-1E+10	1	-1E+10	1	-1E+10	1	-1E+10	1
4901784	26	C	03/21/2016	10:46	-132.024	44.656	0	120.30	0	9.5540	0	33.1070	0	25.550	0	119.293	0	213.9	4	76.1	4	-1E+10	1	-1E+10	1	-1E+10	1	-1E+10	1	-1E+10	1	-1E+10	1
4901784	26	C	03/21/2016	10:46	-132.024	44.656	0	122.90	0	9.4350	0	33.1540	0	25.606	0	121.870	0	210.2	4	74.6	4	-1E+10	1	-1E+10	1	-1E+10	1	-1E+10	1	-1E+10	1	-1E+10	1
4901784	26	C	03/21/2016	10:46	-132.024	44.656	0	124.80	0	9.2290	0	33.2290	0	25.698	0	123.753	0	207.8	4	73.5	4	-1E+10	1	-1E+10	1	-1E+10	1	-1E+10	1	-1E+10	1	-1E+10	1
4901784	26	C	03/21/2016	10:46	-132.024	44.656	0	127.50	0	9.1570	0	33.2500	0	25.726	0	126.430	0	206.9	4	73.1	4	-1E+10	1	-1E+10	1	-1E+10	1	-1E+10	1	-1E+10	1	-1E+10	1
4901784	26	C	03/21/2016	10:46	-132.024	44.656	0	130.10	0	9.0900	0	33.2700	0	25.752	0	129.007	0	206.0	4	72.6	4	-1E+10	1	-1E+10	1	-1E+10	1	-1E+10	1	-1E+10	1	-1E+10	1
4901784	26	C	03/21/2016	10:46	-132.024	44.656	0	132.80	0	9.0800	0	33.2740	0	25.757	0	131.684	0	204.7	4	72.2	4	-1E+10	1	-1E+10	1	-1E+10	1	-1E+10	1	-1E+10	1	-1E+10	1
4901784	26	C	03/21/2016	10:46	-132.024	44.656	0	135.50	0	9.0700	0	33.2780	0	25.761	0	134.360	0	202.8	4	71.5	4	-1E+10	1	-1E+10	1	-1E+10	1	-1E+10	1	-1E+10	1	-1E+10	1
4901784	26	C	03/21/2016	10:46	-132.024	44.656	0	137.30	0	9.0060	0	33.3030	0	25.791	0	136.145	0	201.3	4	70.8	4	-1E+10	1	-1E+10	1	-1E+10	1	-1E+10	1	-1E+10	1	-1E+10	1
4901784	26	C	03/21/2016	10:46	-132.024	44.656	0	139.90	0	8.9290	0	33.3280	0	25.823	0	138.722	0	199.3	4	70.1	4	-1E+10	1	-1E+10	1	-1E+10	1	-1E+10	1	-1E+10	1	-1E+10	1
4901784	26	C	03/21/2016	10:46	-132.024	44.656	0	142.50	0	8.8660	0	33.3500	0	25.850	0	141.299	0	197.1	4	69.2	4	-1E+10	1	-1E+10	1	-1E+10	1	-1E+10	1	-1E+10	1	-1E+10	1
4901784	26	C	03/21/2016	10:46	-132.024	44.656	0	145.20	0	8.7170	0	33.4200	0	25.928	0	143.975	0	195.9	4	68.6	4	-1E+10	1	-1E+10	1	-1E+10	1	-1E+10	1	-1E+10	1	-1E+10	1
4901784	26	C	03/21/2016	10:46	-132.024	44.656	0	147.80	0	8.6500	0	33.4490	0	25.961	0	146.552	0	194.6	4	68.1	4	-1E+10	1	-1E+10	1	-1E+10	1	-1E+10	1	-1E+10	1	-1E+10	1
4901784	26	C	03/21/2016	10:46	-132.024	44.656	0	149.60	0	8.6200	0	33.4630	0	25.976	0	148.337	0	193.7	4	67.7	4	-1E+10	1	-1E+10	1	-1E+10	1	-1E+10	1	-1E+10	1	-1E+10	1
4901784	26	C	03/21/2016	10:46	-132.024	44.656	0	152.50	0	8.5290	0	33.5410	0	26.052	0	151.211	0	192.7	4	67.2	4	-1E+10	1	-1E+10	1	-1E+10	1	-1E+10	1	-1E+10	1	-1E+10	1
4901784	26	C	03/21/2016	10:46	-132.024	44.656	0	155.30	0	8.4620	0	33.5970	0	26.106	0	153.986	0	192.0	4	66.9	4	-1E+10	1	-1E+10	1	-1E+10	1	-1E+10	1	-1E+10	1	-1E+10	1
4901784	26	C	03/21/2016	10:46	-132.024	44.656	0	157.20	0	8.4530	0	33.6030	0	26.112	0	155.870	0	191.4	4	66.7	4	-1E+10	1	-1E+10	1	-1E+10	1	-1E+10	1	-1E+10	1	-1E+10	1
4901784	26	C	03/21/2016	10:46	-132.024	44.656	0	159.60	0	8.4040	0	33.6370	0	26.146	0	158.248	0	190.7	4	66.4	4	-1E+10	1	-1E+10	1	-1E+10	1	-1E+10	1	-1E+10	1	-1E+10	1
4901784	26	C	03/21/2016	10:46	-132.024	44.656	0	162.40	0	8.3380	0	33.6620	0	26.175	0	161.024	0	190.2	4	66.2	4	-1E+10	1	-1E+10	1	-1E+10	1	-1E+10	1	-1E+10	1	-1E+10	1
4901784	26	C	03/21/2016	10:46	-132.024	44.656	0	164.90	0	8.2860	0	33.6790	0	26.197	0	163.501	0	189.4	4	65.8	4	-1E+10	1	-1E+10	1	-1E+10	1	-1E+10	1	-1E+10	1	-1E+10	1
4901784	26	C	03/21/2016	10:46	-132.024	44.656	0	167.30	0	8.2590	0	33.6880	0	26.208	0	165.880	0	188.0	4	65.3	4	-1E+10	1	-1E+10	1	-1E+10	1	-1E+10	1	-1E+10	1	-1E+10	1
4901784	26	C	03/21/2016	10:46	-132.024	44.656	0	169.80	0	8.2070	0	33.7010	0	26.226	0	168.358	0	186.8	4	64.8	4	-1E+10	1	-1E+10	1	-1E+10	1	-1E+10	1	-1E+10	1	-1E+10	1
4901784	26	C	03/21/2016	10:46	-132.024	44.656	0	172.30	0	8.1660	0	33.7080	0	26.237	0	170.836	0	185.2	4	64.2	4	-1E+10	1	-1E+10	1	-1E+10	1	-1E+10	1	-1E+10	1	-1E+10	1
4901784	26	C	03/21/2016	10:46	-132.024	44.656	0	174.80	0	8.1190	0	33.7140	0	26.249	0	173.313	0	183.3	4	63.5	4	-1E+10	1	-1E+10	1	-1E+10	1	-1E+10	1	-1E+10	1	-1E+10	1
4901784	26	C	03/21/2016	10:46	-132.024	44.656	0	177.30	0	8.0600	0	33.7320	0	26.272	0	175.791	0	181.5	4	62.8	4	-1E+10	1	-1E+10	1	-1E+10	1	-1E+10	1	-1E+10	1	-1E+10	1
4901784	26	C	03/21/2016	10:46	-132.024	44.656	0	180.30	0	8.0310	0	33.7400	0	26.283	0	178.764	0	179.4	4	62.0	4	-1E+10	1	-1E+10	1	-1E+10	1	-1E+10	1	-1E+10	1	-1E+10	1
4901784	26	C	03/21/2016	10:46	-132.024	44.656	0	182.80	0	7.9470	0	33.7590	0	26.310	0	181.242	0	176.5	4	60.9	4	-1E+10	1	-1E+10	1	-1E+10	1	-1E+10	1	-1E+10	1	-1E+10	1
4901784	26	C	03/21/2016	10:46	-132.024	44.656	0	185.10	0	7.8340	0	33.7820	0	26.345	0	183.521	0	174.9	4	60.2	4	-1E+10	1	-1E+10	1	-1E+10	1	-1E+10	1	-1E+10	1	-1E+10	1
4901784	26	C	03/21/2016	10:46	-132.024	44.656	0	187.40	0	7.7950	0	33.7920	0	26.358	0	185.800	0	174.2	4	59.9	4	-1E+10	1	-1E+10	1	-1E+10	1	-1E+10	1	-1E+10	1	-1E+10	1
4901784	26	C	03/21/2016	10:46	-132.024	44.656	0	189.80	0	7.7770	0	33.7960	0	26.364	0	188.179	0	173.3	4	59.6	4	-1E+10	1	-1E+10	1	-1E+10	1	-1E+10	1	-1E+10	1	-1E+10	1
4901784	26	C	03/21/2016	10:46	-132.024	44.656	0	192.30	0	7.7580	0	33.7990	0	26.369	0	190.656	0	172.2	4	59.2	4	-1E+10	1	-1E+10	1	-1E+10	1	-1E+10	1	-1E+10	1	-1E+10	1
4901784	26	C	03/21/2016	10:46	-132.024	44.656	0	194.80	0	7.7170	0	33.8070	0	26.381	0	193.134	0	171.0	4	58.7	4	-1E+10	1	-1E+10	1	-1E+10	1	-1E+10	1	-1E+10	1	-1E+10	1
4901784	26	C	03/21/2016	10:46	-132.024	44.656	0	197.20	0	7.6750	0	33.8140	0	26.393	0	195.512	0	169.8	4	58.3	4	-1E+10	1	-1E+10	1	-1E+10	1	-1E+10	1	-1E+10	1	-1E+10	1
4901784	26	C	03/21/2016	10:46	-132.024	44.656	0	199.70	0	7.6270	0	33.8210	0	26.405	0	197.989	0	168.8	4	57.8	4	-1E+10	1	-1E+10	1	-1E+10	1	-1E+10	1	-1E+10	1	-1E+10	1
4901784	26	C	03/21/2016	10:46	-132.024	44.656	0	202.30	0	7.6010	0	33.8260	0	26.413	0	200.566	0	167.7	4	57.4	4	-1E+10	1	-1E+10	1	-1E+10	1	-1E+10	1	-1E+10	1	-1E+10	1
4901784	26	C	03/21/2016	10:46	-132.024	44.656	0	204.80	0	7.5650	0	33.8300	0	26.421	0	203.043	0	166.5	4	57.0	4	-1E+10	1	-1E+10	1	-1E+10	1	-1E+10	1	-1E+10	1	-1E+10	1
4901784	26	C	03/21/2016	10:46	-132.024	44.656	0	207.30	0	7.4970	0	33.8400	0	26.439	0	205.521	0	164.9	4	56.4	4	-1E+10	1	-1E+10	1	-1E+10	1	-1E+10	1	-1E+10	1	-1E+10	1
4901784	26	C	03/21/2016	10:46	-132.024	44.656	0	209.80	0	7.4460	0	33.8440	0	26.449	0	207.998	0	163.8	4	55.9	4	-1E+10	1	-1E+10	1	-1E+10	1	-1E+10	1	-1E+10	1	-1E+10	1
4901784	26	C	03/21/2016	10:46	-132.024	44.656	0	212.30	0	7.3960	0	33.8480	0	26.459	0	210.475	0	162.5	4	55.4	4	-1E+10	1	-1E+10	1	-1E+10	1	-1E+10	1	-1E+10	1	-1E+10	1
4901784	26	C	03/21/2016	10:46	-132.024	44.656	0	214.80	0	7.3560	0	33.8480	0	26.465	0	212.952	0	161.3	4	55.0	4	-1E+10	1	-1E+10	1	-1E+10	1	-1E+10	1	-1E+10	1	-1E+10	1
4901784	26	C	03/21/2016	10:46	-132.024	44.656	0	217.30	0	7.3080	0	33.8520	0	26.475	0	215.430	0	160.1	4	54.5	4	-1E+10	1	-1E+10	1	-1E+10	1	-1E+10	1	-1E+10	1	-1E+10	1
4901784	26	C	03/21/2016	10:46	-132.024	44.656	0	219.90	0	7.2600	0	33.8540	0	26.483	0	218.006	0	158.9	4	54.0	4	-1E+10	1	-1E+10	1	-1E+10	1	-1E+10	1	-1E+10	1	-1E+10	1
4901784	26	C	03/21/2016	10:46	-132.024	44.656	0	222.40	0	7.2150	0	33.8570	0	26.492	0	220.483	0	157.7	4	53.6	4	-1E+10	1	-1E+10	1	-1E+10	1	-1E+10	1	-1E+10	1	-1E+10	1
4901784	26	C	03/21/2016	10:46	-132.024	44.656	0	225.00	0	7.2030	0	33.8540	0	26.491	0	223.059	0	156.2	4	53.0	4	-1E+10	1	-1E+10	1	-1E+10	1	-1E+10	1	-1E+10	1	-1E+10	1
4901784	26	C	03/21/2016	10:46	-132.024	44.656	0	227.50	0	7.1000	0	33.8620	0	26.512	0	225.536	0	155.2	4	52.6	4	-1E+10	1	-1E+10	1	-1E+10	1	-1E+10	1	-1E+10	1	-1E+10	1
4901784	26	C	03/21/2016	10:46	-132.024	44.656	0	230.10	0	7.0840	0	33.8610	0	26.513	0	228.112	0	154.2	4	52.2	4	-1E+10	1	-1E+10	1	-1E+10	1	-1E+10	1	-1E+10	1	-1E+10	1
4901784	26	C	03/21/2016	10:46	-132.024	44.656	0	232.70	0	7.0480	0	33.8620	0	26.519	0	230.688	0	152.7	4	51.7	4	-1E+10	1	-1E+10	1	-1E+10	1	-1E+10	1	-1E+10	1	-1E+10	1
4901784	26	C	03/21/2016	10:46	-132.024	44.656	0	235.40	0	7.0250	0	33.8610	0	26.521	0	233.364	0	151.1	4	51.1	4	-1E+10	1	-1E+10	1	-1E+10	1	-1E+10	1	-1E+10	1	-1E+10	1
4901784	26	C	03/21/2016	10:46	-132.024	44.656	0	237.10	0	6.9660	0	33.8650	0	26.533	0	235.048	0	149.9	4	50.6	4	-1E+10	1	-1E+10	1	-1E+10	1	-1E+10	1	-1E+10	1	-1E+10	1
4901784	26	C	03/21/2016	10:46	-132.024	44.656	0	239.80	0	6.9080	0	33.8670	0	26.542	0	237.723	0	148.5	4	50.1	4	-1E+10	1	-1E+10	1	-1E+10	1	-1E+10	1	-1E+10	1	-1E+10	1
4901784	26	C	03/21/2016	10:46	-132.024	44.656	0	242.50	0	6.8720	0	33.8680	0	26.548	0	240.398	0	147.0	4	49.5	4	-1E+10	1	-1E+10	1	-1E+10	1	-1E+10	1	-1E+10	1	-1E+10	1
4901784	26	C	03/21/2016	10:46	-132.024	44.656	0	245.20	0	6.8460	0	33.8670	0	26.550	0	243.073	0	145.2	4	48.9	4	-1E+10	1	-1E+10	1	-1E+10	1	-1E+10	1	-1E+10	1	-1E+10	1
4901784	26	C	03/21/2016	10:46	-132.024	44.656	0	247.80	0	6.8060	0	33.8670	0	26.556	0	245.649	0	142.7	4	48.0	4	-1E+10	1	-1E+10	1	-1E+10	1	-1E+10	1	-1E+10	1	-1E+10	1
4901784	26	C	03/21/2016	10:46	-132.024	44.656	0	249.60	0	6.7410	0	33.8670	0	26.565	0	247.432	0	141.0	4	47.4	4	-1E+10	1	-1E+10	1	-1E+10	1	-1E+10	1	-1E+10	1	-1E+10	1
4901784	26	C	03/21/2016	10:46	-132.024	44.656	0	252.20	0	6.6580	0	33.8710	0	26.579	0	250.008	0	138.7	4	46.5	4	-1E+10	1	-1E+10	1	-1E+10	1	-1E+10	1	-1E+10	1	-1E+10	1
4901784	26	C	03/21/2016	10:46	-132.024	44.656	0	254.90	0	6.6000	0	33.8700	0	26.586	0	252.683	0	136.5	4	45.7	4	-1E+10	1	-1E+10	1	-1E+10	1	-1E+10	1	-1E+10	1	-1E+10	1
4901784	26	C	03/21/2016	10:46	-132.024	44.656	0	257.50	0	6.5080	0	33.8760	0	26.602	0	255.259	0	134.7	4	45.0	4	-1E+10	1	-1E+10	1	-1E+10	1	-1E+10	1	-1E+10	1	-1E+10	1
4901784	26	C	03/21/2016	10:46	-132.024	44.656	0	260.30	0	6.4780	0	33.8760	0	26.606	0	258.033	0	133.7	4	44.6	4	-1E+10	1	-1E+10	1	-1E+10	1	-1E+10	1	-1E+10	1	-1E+10	1
4901784	26	C	03/21/2016	10:46	-132.024	44.656	0	262.10	0	6.4620	0	33.8760	0	26.609	0	259.816	0	132.7	4	44.3	4	-1E+10	1	-1E+10	1	-1E+10	1	-1E+10	1	-1E+10	1	-1E+10	1
4901784	26	C	03/21/2016	10:46	-132.024	44.656	0	264.80	0	6.4270	0	33.8780	0	26.615	0	262.491	0	131.7	4	43.9	4	-1E+10	1	-1E+10	1	-1E+10	1	-1E+10	1	-1E+10	1	-1E+10	1
4901784	26	C	03/21/2016	10:46	-132.024	44.656	0	267.60	0	6.4140	0	33.8770	0	26.616	0	265.264	0	130.6	4	43.5	4	-1E+10	1	-1E+10	1	-1E+10	1	-1E+10	1	-1E+10	1	-1E+10	1
4901784	26	C	03/21/2016	10:46	-132.024	44.656	0	270.20	0	6.4020	0	33.8770	0	26.617	0	267.840	0	129.1	4	43.0	4	-1E+10	1	-1E+10	1	-1E+10	1	-1E+10	1	-1E+10	1	-1E+10	1
4901784	26	C	03/21/2016	10:46	-132.024	44.656	0	272.90	0	6.3840	0	33.8760	0	26.619	0	270.515	0	127.1	4	42.4	4	-1E+10	1	-1E+10	1	-1E+10	1	-1E+10	1	-1E+10	1	-1E+10	1
4901784	26	C	03/21/2016	10:46	-132.024	44.656	0	274.80	0	6.3170	0	33.8800	0	26.631	0	272.397	0	126.2	4	42.0	4	-1E+10	1	-1E+10	1	-1E+10	1	-1E+10	1	-1E+10	1	-1E+10	1
4901784	26	C	03/21/2016	10:46	-132.024	44.656	0	277.50	0	6.2840	0	33.8800	0	26.635	0	275.071	0	125.1	4	41.6	4	-1E+10	1	-1E+10	1	-1E+10	1	-1E+10	1	-1E+10	1	-1E+10	1
4901784	26	C	03/21/2016	10:46	-132.024	44.656	0	280.20	0	6.2550	0	33.8800	0	26.639	0	277.746	0	123.8	4	41.1	4	-1E+10	1	-1E+10	1	-1E+10	1	-1E+10	1	-1E+10	1	-1E+10	1
4901784	26	C	03/21/2016	10:46	-132.024	44.656	0	282.00	0	6.2180	0	33.8790	0	26.643	0	279.529	0	123.2	4	40.9	4	-1E+10	1	-1E+10	1	-1E+10	1	-1E+10	1	-1E+10	1	-1E+10	1
4901784	26	C	03/21/2016	10:46	-132.024	44.656	0	284.80	0	6.1720	0	33.8820	0	26.651	0	282.303	0	122.4	4	40.6	4	-1E+10	1	-1E+10	1	-1E+10	1	-1E+10	1	-1E+10	1	-1E+10	1
4901784	26	C	03/21/2016	10:46	-132.024	44.656	0	287.50	0	6.1550	0	33.8820	0	26.653	0	284.977	0	121.8	4	40.4	4	-1E+10	1	-1E+10	1	-1E+10	1	-1E+10	1	-1E+10	1	-1E+10	1
4901784	26	C	03/21/2016	10:46	-132.024	44.656	0	290.10	0	6.1500	0	33.8810	0	26.653	0	287.552	0	121.1	4	40.2	4	-1E+10	1	-1E+10	1	-1E+10	1	-1E+10	1	-1E+10	1	-1E+10	1
4901784	26	C	03/21/2016	10:46	-132.024	44.656	0	292.80	0	6.1390	0	33.8810	0	26.654	0	290.227	0	120.3	4	39.9	4	-1E+10	1	-1E+10	1	-1E+10	1	-1E+10	1	-1E+10	1	-1E+10	1
4901784	26	C	03/21/2016	10:46	-132.024	44.656	0	294.60	0	6.1370	0	33.8820	0	26.655	0	292.010	0	119.6	4	39.6	4	-1E+10	1	-1E+10	1	-1E+10	1	-1E+10	1	-1E+10	1	-1E+10	1
4901784	26	C	03/21/2016	10:46	-132.024	44.656	0	297.30	0	6.1300	0	33.8810	0	26.655	0	294.684	0	118.2	4	39.2	4	-1E+10	1	-1E+10	1	-1E+10	1	-1E+10	1	-1E+10	1	-1E+10	1
4901784	26	C	03/21/2016	10:46	-132.024	44.656	0	300.10	0	6.1030	0	33.8820	0	26.660	0	297.457	0	116.6	4	38.6	4	-1E+10	1	-1E+10	1	-1E+10	1	-1E+10	1	-1E+10	1	-1E+10	1
4901784	26	C	03/21/2016	10:46	-132.024	44.656	0	302.00	0	6.0990	0	33.8820	0	26.660	0	299.339	0	115.2	4	38.1	4	-1E+10	1	-1E+10	1	-1E+10	1	-1E+10	1	-1E+10	1	-1E+10	1
4901784	26	C	03/21/2016	10:46	-132.024	44.656	0	304.70	0	6.0680	0	33.8840	0	26.666	0	302.014	0	112.6	4	37.3	4	-1E+10	1	-1E+10	1	-1E+10	1	-1E+10	1	-1E+10	1	-1E+10	1
4901784	26	C	03/21/2016	10:46	-132.024	44.656	0	307.50	0	6.0360	0	33.8870	0	26.672	0	304.787	0	110.3	4	36.5	4	-1E+10	1	-1E+10	1	-1E+10	1	-1E+10	1	-1E+10	1	-1E+10	1
4901784	26	C	03/21/2016	10:46	-132.024	44.656	0	310.10	0	6.0160	0	33.8900	0	26.677	0	307.362	0	108.6	4	35.9	4	-1E+10	1	-1E+10	1	-1E+10	1	-1E+10	1	-1E+10	1	-1E+10	1
4901784	26	C	03/21/2016	10:46	-132.024	44.656	0	312.80	0	5.9990	0	33.8890	0	26.678	0	310.036	0	107.0	4	35.3	4	-1E+10	1	-1E+10	1	-1E+10	1	-1E+10	1	-1E+10	1	-1E+10	1
4901784	26	C	03/21/2016	10:46	-132.024	44.656	0	314.70	0	5.9500	0	33.8940	0	26.688	0	311.918	0	106.0	4	35.0	4	-1E+10	1	-1E+10	1	-1E+10	1	-1E+10	1	-1E+10	1	-1E+10	1
4901784	26	C	03/21/2016	10:46	-132.024	44.656	0	317.40	0	5.9140	0	33.8940	0	26.693	0	314.592	0	105.3	4	34.7	4	-1E+10	1	-1E+10	1	-1E+10	1	-1E+10	1	-1E+10	1	-1E+10	1
4901784	26	C	03/21/2016	10:46	-132.024	44.656	0	320.10	0	5.8720	0	33.8950	0	26.699	0	317.266	0	104.1	4	34.3	4	-1E+10	1	-1E+10	1	-1E+10	1	-1E+10	1	-1E+10	1	-1E+10	1
4901784	26	C	03/21/2016	10:46	-132.024	44.656	0	322.00	0	5.8470	0	33.8950	0	26.702	0	319.148	0	103.9	4	34.2	4	-1E+10	1	-1E+10	1	-1E+10	1	-1E+10	1	-1E+10	1	-1E+10	1
4901784	26	C	03/21/2016	10:46	-132.024	44.656	0	324.80	0	5.8120	0	33.8950	0	26.706	0	321.921	0	103.7	4	34.1	4	-1E+10	1	-1E+10	1	-1E+10	1	-1E+10	1	-1E+10	1	-1E+10	1
4901784	26	C	03/21/2016	10:46	-132.024	44.656	0	327.60	0	5.7940	0	33.8940	0	26.708	0	324.694	0	103.5	4	34.0	4	-1E+10	1	-1E+10	1	-1E+10	1	-1E+10	1	-1E+10	1	-1E+10	1
4901784	26	C	03/21/2016	10:46	-132.024	44.656	0	329.50	0	5.7840	0	33.8930	0	26.708	0	326.575	0	103.2	4	33.9	4	-1E+10	1	-1E+10	1	-1E+10	1	-1E+10	1	-1E+10	1	-1E+10	1
4901784	26	C	03/21/2016	10:46	-132.024	44.656	0	332.30	0	5.7760	0	33.8920	0	26.709	0	329.348	0	102.6	4	33.7	4	-1E+10	1	-1E+10	1	-1E+10	1	-1E+10	1	-1E+10	1	-1E+10	1
4901784	26	C	03/21/2016	10:46	-132.024	44.656	0	335.20	0	5.7520	0	33.8910	0	26.711	0	332.220	0	101.6	4	33.4	4	-1E+10	1	-1E+10	1	-1E+10	1	-1E+10	1	-1E+10	1	-1E+10	1
4901784	26	C	03/21/2016	10:46	-132.024	44.656	0	337.00	0	5.7150	0	33.8930	0	26.717	0	334.003	0	100.7	4	33.0	4	-1E+10	1	-1E+10	1	-1E+10	1	-1E+10	1	-1E+10	1	-1E+10	1
4901784	26	C	03/21/2016	10:46	-132.024	44.656	0	339.80	0	5.6880	0	33.8990	0	26.725	0	336.776	0	101.5	4	33.3	4	-1E+10	1	-1E+10	1	-1E+10	1	-1E+10	1	-1E+10	1	-1E+10	1
4901784	26	C	03/21/2016	10:46	-132.024	44.656	0	342.70	0	5.6340	0	33.8890	0	26.723	0	339.647	0	102.5	4	33.6	4	-1E+10	1	-1E+10	1	-1E+10	1	-1E+10	1	-1E+10	1	-1E+10	1
4901784	26	C	03/21/2016	10:46	-132.024	44.656	0	344.60	0	5.5960	0	33.8890	0	26.728	0	341.529	0	102.8	4	33.6	4	-1E+10	1	-1E+10	1	-1E+10	1	-1E+10	1	-1E+10	1	-1E+10	1
4901784	26	C	03/21/2016	10:46	-132.024	44.656	0	347.40	0	5.5090	0	33.8860	0	26.736	0	344.302	0	101.9	4	33.3	4	-1E+10	1	-1E+10	1	-1E+10	1	-1E+10	1	-1E+10	1	-1E+10	1
4901784	26	C	03/21/2016	10:46	-132.024	44.656	0	350.90	0	5.4750	0	33.8830	0	26.738	0	347.767	0	99.7	4	32.5	4	-1E+10	1	-1E+10	1	-1E+10	1	-1E+10	1	-1E+10	1	-1E+10	1
4901784	26	C	03/21/2016	10:46	-132.024	44.656	0	352.80	0	5.4690	0	33.8840	0	26.739	0	349.649	0	97.6	4	31.8	4	-1E+10	1	-1E+10	1	-1E+10	1	-1E+10	1	-1E+10	1	-1E+10	1
4901784	26	C	03/21/2016	10:46	-132.024	44.656	0	355.20	0	5.4680	0	33.8920	0	26.746	0	352.025	0	94.2	4	30.7	4	-1E+10	1	-1E+10	1	-1E+10	1	-1E+10	1	-1E+10	1	-1E+10	1
4901784	26	C	03/21/2016	10:46	-132.024	44.656	0	357.60	0	5.4530	0	33.8950	0	26.750	0	354.402	0	91.8	4	30.0	4	-1E+10	1	-1E+10	1	-1E+10	1	-1E+10	1	-1E+10	1	-1E+10	1
4901784	26	C	03/21/2016	10:46	-132.024	44.656	0	360.10	0	5.4620	0	33.9000	0	26.753	0	356.877	0	89.4	4	29.2	4	-1E+10	1	-1E+10	1	-1E+10	1	-1E+10	1	-1E+10	1	-1E+10	1
4901784	26	C	03/21/2016	10:46	-132.024	44.656	0	362.50	0	5.4710	0	33.9030	0	26.754	0	359.254	0	87.4	4	28.5	4	-1E+10	1	-1E+10	1	-1E+10	1	-1E+10	1	-1E+10	1	-1E+10	1
4901784	26	C	03/21/2016	10:46	-132.024	44.656	0	364.90	0	5.4740	0	33.9040	0	26.755	0	361.630	0	84.7	4	27.6	4	-1E+10	1	-1E+10	1	-1E+10	1	-1E+10	1	-1E+10	1	-1E+10	1
4901784	26	C	03/21/2016	10:46	-132.024	44.656	0	367.40	0	5.4750	0	33.9090	0	26.759	0	364.106	0	81.7	4	26.7	4	-1E+10	1	-1E+10	1	-1E+10	1	-1E+10	1	-1E+10	1	-1E+10	1
4901784	26	C	03/21/2016	10:46	-132.024	44.656	0	369.80	0	5.4650	0	33.9170	0	26.766	0	366.482	0	79.7	4	26.0	4	-1E+10	1	-1E+10	1	-1E+10	1	-1E+10	1	-1E+10	1	-1E+10	1
4901784	26	C	03/21/2016	10:46	-132.024	44.656	0	372.30	0	5.4470	0	33.9200	0	26.771	0	368.957	0	78.5	4	25.6	4	-1E+10	1	-1E+10	1	-1E+10	1	-1E+10	1	-1E+10	1	-1E+10	1
4901784	26	C	03/21/2016	10:46	-132.024	44.656	0	374.90	0	5.4370	0	33.9220	0	26.773	0	371.532	0	77.3	4	25.2	4	-1E+10	1	-1E+10	1	-1E+10	1	-1E+10	1	-1E+10	1	-1E+10	1
4901784	26	C	03/21/2016	10:46	-132.024	44.656	0	377.40	0	5.4260	0	33.9240	0	26.776	0	374.007	0	76.3	4	24.9	4	-1E+10	1	-1E+10	1	-1E+10	1	-1E+10	1	-1E+10	1	-1E+10	1
4901784	26	C	03/21/2016	10:46	-132.024	44.656	0	379.90	0	5.4160	0	33.9270	0	26.780	0	376.482	0	75.4	4	24.6	4	-1E+10	1	-1E+10	1	-1E+10	1	-1E+10	1	-1E+10	1	-1E+10	1
4901784	26	C	03/21/2016	10:46	-132.024	44.656	0	382.30	0	5.3990	0	33.9280	0	26.783	0	378.858	0	74.9	4	24.4	4	-1E+10	1	-1E+10	1	-1E+10	1	-1E+10	1	-1E+10	1	-1E+10	1
4901784	26	C	03/21/2016	10:46	-132.024	44.656	0	384.80	0	5.3830	0	33.9280	0	26.785	0	381.334	0	74.4	4	24.2	4	-1E+10	1	-1E+10	1	-1E+10	1	-1E+10	1	-1E+10	1	-1E+10	1
4901784	26	C	03/21/2016	10:46	-132.024	44.656	0	387.30	0	5.3640	0	33.9280	0	26.787	0	383.809	0	73.8	4	24.0	4	-1E+10	1	-1E+10	1	-1E+10	1	-1E+10	1	-1E+10	1	-1E+10	1
4901784	26	C	03/21/2016	10:46	-132.024	44.656	0	389.80	0	5.3540	0	33.9290	0	26.789	0	386.284	0	72.9	4	23.7	4	-1E+10	1	-1E+10	1	-1E+10	1	-1E+10	1	-1E+10	1	-1E+10	1
4901784	26	C	03/21/2016	10:46	-132.024	44.656	0	392.30	0	5.3360	0	33.9310	0	26.793	0	388.759	0	72.1	4	23.5	4	-1E+10	1	-1E+10	1	-1E+10	1	-1E+10	1	-1E+10	1	-1E+10	1
4901784	26	C	03/21/2016	10:46	-132.024	44.656	0	394.80	0	5.3350	0	33.9320	0	26.794	0	391.234	0	71.3	4	23.2	4	-1E+10	1	-1E+10	1	-1E+10	1	-1E+10	1	-1E+10	1	-1E+10	1
4901784	26	C	03/21/2016	10:46	-132.024	44.656	0	397.20	0	5.3320	0	33.9310	0	26.793	0	393.610	0	70.1	4	22.8	4	-1E+10	1	-1E+10	1	-1E+10	1	-1E+10	1	-1E+10	1	-1E+10	1
4901784	26	C	03/21/2016	10:46	-132.024	44.656	0	399.70	0	5.3060	0	33.9360	0	26.800	0	396.085	0	68.7	4	22.3	4	-1E+10	1	-1E+10	1	-1E+10	1	-1E+10	1	-1E+10	1	-1E+10	1
4901784	26	C	03/21/2016	10:46	-132.024	44.656	0	402.20	0	5.2930	0	33.9380	0	26.803	0	398.560	0	67.7	4	22.0	4	-1E+10	1	-1E+10	1	-1E+10	1	-1E+10	1	-1E+10	1	-1E+10	1
4901784	26	C	03/21/2016	10:46	-132.024	44.656	0	404.60	0	5.2740	0	33.9420	0	26.809	0	400.936	0	66.8	4	21.7	4	-1E+10	1	-1E+10	1	-1E+10	1	-1E+10	1	-1E+10	1	-1E+10	1
4901784	26	C	03/21/2016	10:46	-132.024	44.656	0	407.90	0	5.2690	0	33.9430	0	26.810	0	404.203	0	65.5	4	21.3	4	-1E+10	1	-1E+10	1	-1E+10	1	-1E+10	1	-1E+10	1	-1E+10	1
4901784	26	C	03/21/2016	10:46	-132.024	44.656	0	410.40	0	5.2660	0	33.9430	0	26.810	0	406.678	0	64.3	4	20.9	4	-1E+10	1	-1E+10	1	-1E+10	1	-1E+10	1	-1E+10	1	-1E+10	1
4901784	26	C	03/21/2016	10:46	-132.024	44.656	0	412.90	0	5.2580	0	33.9490	0	26.816	0	409.153	0	62.9	4	20.4	4	-1E+10	1	-1E+10	1	-1E+10	1	-1E+10	1	-1E+10	1	-1E+10	1
4901784	26	C	03/21/2016	10:46	-132.024	44.656	0	415.30	0	5.2470	0	33.9540	0	26.821	0	411.529	0	62.3	4	20.2	4	-1E+10	1	-1E+10	1	-1E+10	1	-1E+10	1	-1E+10	1	-1E+10	1
4901784	26	C	03/21/2016	10:46	-132.024	44.656	0	417.90	0	5.2240	0	33.9530	0	26.823	0	414.102	0	61.9	4	20.1	4	-1E+10	1	-1E+10	1	-1E+10	1	-1E+10	1	-1E+10	1	-1E+10	1
4901784	26	C	03/21/2016	10:46	-132.024	44.656	0	420.40	0	5.1970	0	33.9500	0	26.824	0	416.577	0	61.1	4	19.8	4	-1E+10	1	-1E+10	1	-1E+10	1	-1E+10	1	-1E+10	1	-1E+10	1
4901784	26	C	03/21/2016	10:46	-132.024	44.656	0	422.90	0	5.1710	0	33.9540	0	26.830	0	419.052	0	59.9	4	19.4	4	-1E+10	1	-1E+10	1	-1E+10	1	-1E+10	1	-1E+10	1	-1E+10	1
4901784	26	C	03/21/2016	10:46	-132.024	44.656	0	425.50	0	5.1630	0	33.9550	0	26.832	0	421.626	0	58.2	4	18.9	4	-1E+10	1	-1E+10	1	-1E+10	1	-1E+10	1	-1E+10	1	-1E+10	1
4901784	26	C	03/21/2016	10:46	-132.024	44.656	0	427.10	0	5.1480	0	33.9580	0	26.836	0	423.209	0	57.0	4	18.5	4	-1E+10	1	-1E+10	1	-1E+10	1	-1E+10	1	-1E+10	1	-1E+10	1
4901784	26	C	03/21/2016	10:46	-132.024	44.656	0	429.60	0	5.1230	0	33.9660	0	26.845	0	425.684	0	55.5	4	18.0	4	-1E+10	1	-1E+10	1	-1E+10	1	-1E+10	1	-1E+10	1	-1E+10	1
4901784	26	C	03/21/2016	10:46	-132.024	44.656	0	432.20	0	5.1110	0	33.9700	0	26.850	0	428.258	0	54.4	4	17.6	4	-1E+10	1	-1E+10	1	-1E+10	1	-1E+10	1	-1E+10	1	-1E+10	1
4901784	26	C	03/21/2016	10:46	-132.024	44.656	0	434.80	0	5.1020	0	33.9720	0	26.853	0	430.831	0	53.3	4	17.2	4	-1E+10	1	-1E+10	1	-1E+10	1	-1E+10	1	-1E+10	1	-1E+10	1
4901784	26	C	03/21/2016	10:46	-132.024	44.656	0	437.50	0	5.0710	0	33.9770	0	26.860	0	433.504	0	52.1	4	16.9	4	-1E+10	1	-1E+10	1	-1E+10	1	-1E+10	1	-1E+10	1	-1E+10	1
4901784	26	C	03/21/2016	10:46	-132.024	44.656	0	440.10	0	5.0560	0	33.9790	0	26.863	0	436.077	0	51.0	4	16.5	4	-1E+10	1	-1E+10	1	-1E+10	1	-1E+10	1	-1E+10	1	-1E+10	1
4901784	26	C	03/21/2016	10:46	-132.024	44.656	0	442.70	0	5.0470	0	33.9820	0	26.867	0	438.651	0	49.8	4	16.1	4	-1E+10	1	-1E+10	1	-1E+10	1	-1E+10	1	-1E+10	1	-1E+10	1
4901784	26	C	03/21/2016	10:46	-132.024	44.656	0	444.50	0	5.0450	0	33.9840	0	26.869	0	440.433	0	49.0	4	15.8	4	-1E+10	1	-1E+10	1	-1E+10	1	-1E+10	1	-1E+10	1	-1E+10	1
4901784	26	C	03/21/2016	10:46	-132.024	44.656	0	447.20	0	5.0220	0	33.9910	0	26.877	0	443.105	0	48.0	4	15.5	4	-1E+10	1	-1E+10	1	-1E+10	1	-1E+10	1	-1E+10	1	-1E+10	1
4901784	26	C	03/21/2016	10:46	-132.024	44.656	0	449.80	0	5.0070	0	33.9940	0	26.881	0	445.678	0	47.4	4	15.3	4	-1E+10	1	-1E+10	1	-1E+10	1	-1E+10	1	-1E+10	1	-1E+10	1
4901784	26	C	03/21/2016	10:46	-132.024	44.656	0	452.50	0	5.0040	0	33.9950	0	26.882	0	448.351	0	46.9	4	15.1	4	-1E+10	1	-1E+10	1	-1E+10	1	-1E+10	1	-1E+10	1	-1E+10	1
4901784	26	C	03/21/2016	10:46	-132.024	44.656	0	455.20	0	4.9940	0	33.9970	0	26.885	0	451.023	0	46.3	4	14.9	4	-1E+10	1	-1E+10	1	-1E+10	1	-1E+10	1	-1E+10	1	-1E+10	1
4901784	26	C	03/21/2016	10:46	-132.024	44.656	0	457.80	0	4.9870	0	33.9990	0	26.887	0	453.596	0	45.7	4	14.8	4	-1E+10	1	-1E+10	1	-1E+10	1	-1E+10	1	-1E+10	1	-1E+10	1
4901784	26	C	03/21/2016	10:46	-132.024	44.656	0	460.50	0	4.9810	0	34.0000	0	26.889	0	456.269	0	45.3	4	14.6	4	-1E+10	1	-1E+10	1	-1E+10	1	-1E+10	1	-1E+10	1	-1E+10	1
4901784	26	C	03/21/2016	10:46	-132.024	44.656	0	462.20	0	4.9680	0	33.9990	0	26.890	0	457.951	0	44.9	4	14.5	4	-1E+10	1	-1E+10	1	-1E+10	1	-1E+10	1	-1E+10	1	-1E+10	1
4901784	26	C	03/21/2016	10:46	-132.024	44.656	0	464.90	0	4.9300	0	34.0040	0	26.898	0	460.623	0	44.1	4	14.2	4	-1E+10	1	-1E+10	1	-1E+10	1	-1E+10	1	-1E+10	1	-1E+10	1
4901784	26	C	03/21/2016	10:46	-132.024	44.656	0	467.60	0	4.8980	0	34.0070	0	26.904	0	463.295	0	43.3	4	14.0	4	-1E+10	1	-1E+10	1	-1E+10	1	-1E+10	1	-1E+10	1	-1E+10	1
4901784	26	C	03/21/2016	10:46	-132.024	44.656	0	470.30	0	4.8950	0	34.0100	0	26.907	0	465.967	0	42.6	4	13.7	4	-1E+10	1	-1E+10	1	-1E+10	1	-1E+10	1	-1E+10	1	-1E+10	1
4901784	26	C	03/21/2016	10:46	-132.024	44.656	0	473.00	0	4.8900	0	34.0110	0	26.908	0	468.640	0	41.9	4	13.5	4	-1E+10	1	-1E+10	1	-1E+10	1	-1E+10	1	-1E+10	1	-1E+10	1
4901784	26	C	03/21/2016	10:46	-132.024	44.656	0	474.70	0	4.8830	0	34.0140	0	26.911	0	470.322	0	41.4	4	13.3	4	-1E+10	1	-1E+10	1	-1E+10	1	-1E+10	1	-1E+10	1	-1E+10	1
4901784	26	C	03/21/2016	10:46	-132.024	44.656	0	477.40	0	4.8470	0	34.0170	0	26.918	0	472.994	0	40.9	4	13.2	4	-1E+10	1	-1E+10	1	-1E+10	1	-1E+10	1	-1E+10	1	-1E+10	1
4901784	26	C	03/21/2016	10:46	-132.024	44.656	0	480.00	0	4.8270	0	34.0180	0	26.921	0	475.567	0	40.3	4	13.0	4	-1E+10	1	-1E+10	1	-1E+10	1	-1E+10	1	-1E+10	1	-1E+10	1
4901784	26	C	03/21/2016	10:46	-132.024	44.656	0	482.70	0	4.8190	0	34.0210	0	26.924	0	478.239	0	39.4	4	12.7	4	-1E+10	1	-1E+10	1	-1E+10	1	-1E+10	1	-1E+10	1	-1E+10	1
4901784	26	C	03/21/2016	10:46	-132.024	44.656	0	485.50	0	4.8120	0	34.0240	0	26.927	0	481.010	0	38.3	4	12.3	4	-1E+10	1	-1E+10	1	-1E+10	1	-1E+10	1	-1E+10	1	-1E+10	1
4901784	26	C	03/21/2016	10:46	-132.024	44.656	0	487.20	0	4.8150	0	34.0260	0	26.928	0	482.692	0	37.5	4	12.0	4	-1E+10	1	-1E+10	1	-1E+10	1	-1E+10	1	-1E+10	1	-1E+10	1
4901784	26	C	03/21/2016	10:46	-132.024	44.656	0	489.90	0	4.8350	0	34.0330	0	26.932	0	485.364	0	36.1	4	11.6	4	-1E+10	1	-1E+10	1	-1E+10	1	-1E+10	1	-1E+10	1	-1E+10	1
4901784	26	C	03/21/2016	10:46	-132.024	44.656	0	492.50	0	4.8360	0	34.0380	0	26.936	0	487.937	0	35.4	4	11.4	4	-1E+10	1	-1E+10	1	-1E+10	1	-1E+10	1	-1E+10	1	-1E+10	1
4901784	26	C	03/21/2016	10:46	-132.024	44.656	0	495.30	0	4.8280	0	34.0400	0	26.938	0	490.708	0	34.9	4	11.2	4	-1E+10	1	-1E+10	1	-1E+10	1	-1E+10	1	-1E+10	1	-1E+10	1
4901784	26	C	03/21/2016	10:46	-132.024	44.656	0	497.90	0	4.8260	0	34.0410	0	26.939	0	493.280	0	34.3	4	11.0	4	-1E+10	1	-1E+10	1	-1E+10	1	-1E+10	1	-1E+10	1	-1E+10	1
4901784	26	C	03/21/2016	10:46	-132.024	44.656	0	499.80	0	4.8210	0	34.0420	0	26.940	0	495.161	0	33.8	4	10.9	4	-1E+10	1	-1E+10	1	-1E+10	1	-1E+10	1	-1E+10	1	-1E+10	1
4901784	26	C	03/21/2016	10:46	-132.024	44.656	0	505.20	0	4.8060	0	34.0490	0	26.948	0	500.504	0	32.1	4	10.3	4	-1E+10	1	-1E+10	1	-1E+10	1	-1E+10	1	-1E+10	1	-1E+10	1
4901784	26	C	03/21/2016	10:46	-132.024	44.656	0	509.90	0	4.7970	0	34.0560	0	26.954	0	505.155	0	31.1	4	10.0	4	-1E+10	1	-1E+10	1	-1E+10	1	-1E+10	1	-1E+10	1	-1E+10	1
4901784	26	C	03/21/2016	10:46	-132.024	44.656	0	514.60	0	4.7900	0	34.0580	0	26.957	0	509.805	0	30.5	4	9.8	4	-1E+10	1	-1E+10	1	-1E+10	1	-1E+10	1	-1E+10	1	-1E+10	1
4901784	26	C	03/21/2016	10:46	-132.024	44.656	0	520.10	0	4.7710	0	34.0640	0	26.964	0	515.247	0	29.6	4	9.5	4	-1E+10	1	-1E+10	1	-1E+10	1	-1E+10	1	-1E+10	1	-1E+10	1
4901784	26	C	03/21/2016	10:46	-132.024	44.656	0	525.60	0	4.7540	0	34.0670	0	26.968	0	520.689	0	29.0	4	9.3	4	-1E+10	1	-1E+10	1	-1E+10	1	-1E+10	1	-1E+10	1	-1E+10	1
4901784	26	C	03/21/2016	10:46	-132.024	44.656	0	530.30	0	4.7380	0	34.0690	0	26.971	0	525.339	0	28.6	4	9.2	4	-1E+10	1	-1E+10	1	-1E+10	1	-1E+10	1	-1E+10	1	-1E+10	1
4901784	26	C	03/21/2016	10:46	-132.024	44.656	0	534.90	0	4.7120	0	34.0740	0	26.978	0	529.890	0	28.2	4	9.0	4	-1E+10	1	-1E+10	1	-1E+10	1	-1E+10	1	-1E+10	1	-1E+10	1
4901784	26	C	03/21/2016	10:46	-132.024	44.656	0	539.70	0	4.7000	0	34.0760	0	26.981	0	534.639	0	27.9	4	8.9	4	-1E+10	1	-1E+10	1	-1E+10	1	-1E+10	1	-1E+10	1	-1E+10	1
4901784	26	C	03/21/2016	10:46	-132.024	44.656	0	544.40	0	4.6830	0	34.0800	0	26.986	0	539.289	0	27.5	4	8.8	4	-1E+10	1	-1E+10	1	-1E+10	1	-1E+10	1	-1E+10	1	-1E+10	1
4901784	26	C	03/21/2016	10:46	-132.024	44.656	0	550.00	0	4.6750	0	34.0820	0	26.989	0	544.829	0	26.8	4	8.6	4	-1E+10	1	-1E+10	1	-1E+10	1	-1E+10	1	-1E+10	1	-1E+10	1
4901784	26	C	03/21/2016	10:46	-132.024	44.656	0	554.80	0	4.6600	0	34.0860	0	26.994	0	549.577	0	26.1	4	8.4	4	-1E+10	1	-1E+10	1	-1E+10	1	-1E+10	1	-1E+10	1	-1E+10	1
4901784	26	C	03/21/2016	10:46	-132.024	44.656	0	560.30	0	4.6260	0	34.0900	0	27.001	0	555.018	0	24.9	4	8.0	4	-1E+10	1	-1E+10	1	-1E+10	1	-1E+10	1	-1E+10	1	-1E+10	1
4901784	26	C	03/21/2016	10:46	-132.024	44.656	0	565.50	0	4.5910	0	34.0960	0	27.009	0	560.162	0	23.8	4	7.6	4	-1E+10	1	-1E+10	1	-1E+10	1	-1E+10	1	-1E+10	1	-1E+10	1
4901784	26	C	03/21/2016	10:46	-132.024	44.656	0	570.30	0	4.5670	0	34.1020	0	27.017	0	564.910	0	23.1	4	7.4	4	-1E+10	1	-1E+10	1	-1E+10	1	-1E+10	1	-1E+10	1	-1E+10	1
4901784	26	C	03/21/2016	10:46	-132.024	44.656	0	575.20	0	4.5530	0	34.1080	0	27.023	0	569.757	0	22.3	4	7.1	4	-1E+10	1	-1E+10	1	-1E+10	1	-1E+10	1	-1E+10	1	-1E+10	1
4901784	26	C	03/21/2016	10:46	-132.024	44.656	0	580.10	0	4.5390	0	34.1120	0	27.028	0	574.604	0	21.9	4	7.0	4	-1E+10	1	-1E+10	1	-1E+10	1	-1E+10	1	-1E+10	1	-1E+10	1
4901784	26	C	03/21/2016	10:46	-132.024	44.656	0	585.10	0	4.5310	0	34.1130	0	27.029	0	579.550	0	21.5	4	6.9	4	-1E+10	1	-1E+10	1	-1E+10	1	-1E+10	1	-1E+10	1	-1E+10	1
4901784	26	C	03/21/2016	10:46	-132.024	44.656	0	590.00	0	4.5140	0	34.1180	0	27.035	0	584.397	0	21.0	4	6.7	4	-1E+10	1	-1E+10	1	-1E+10	1	-1E+10	1	-1E+10	1	-1E+10	1
4901784	26	C	03/21/2016	10:46	-132.024	44.656	0	595.00	0	4.5060	0	34.1190	0	27.037	0	589.342	0	20.6	4	6.6	4	-1E+10	1	-1E+10	1	-1E+10	1	-1E+10	1	-1E+10	1	-1E+10	1
4901784	26	C	03/21/2016	10:46	-132.024	44.656	0	599.90	0	4.4800	0	34.1250	0	27.044	0	594.188	0	20.1	4	6.4	4	-1E+10	1	-1E+10	1	-1E+10	1	-1E+10	1	-1E+10	1	-1E+10	1
4901784	26	C	03/21/2016	10:46	-132.024	44.656	0	604.80	0	4.4610	0	34.1290	0	27.050	0	599.035	0	19.7	4	6.3	4	-1E+10	1	-1E+10	1	-1E+10	1	-1E+10	1	-1E+10	1	-1E+10	1
4901784	26	C	03/21/2016	10:46	-132.024	44.656	0	609.70	0	4.4370	0	34.1330	0	27.056	0	603.881	0	19.4	4	6.2	4	-1E+10	1	-1E+10	1	-1E+10	1	-1E+10	1	-1E+10	1	-1E+10	1
4901784	26	C	03/21/2016	10:46	-132.024	44.656	0	614.80	0	4.4110	0	34.1370	0	27.062	0	608.925	0	19.1	4	6.1	4	-1E+10	1	-1E+10	1	-1E+10	1	-1E+10	1	-1E+10	1	-1E+10	1
4901784	26	C	03/21/2016	10:46	-132.024	44.656	0	620.10	0	4.3980	0	34.1410	0	27.066	0	614.166	0	18.7	4	6.0	4	-1E+10	1	-1E+10	1	-1E+10	1	-1E+10	1	-1E+10	1	-1E+10	1
4901784	26	C	03/21/2016	10:46	-132.024	44.656	0	625.40	0	4.3680	0	34.1450	0	27.073	0	619.408	0	18.4	4	5.9	4	-1E+10	1	-1E+10	1	-1E+10	1	-1E+10	1	-1E+10	1	-1E+10	1
4901784	26	C	03/21/2016	10:46	-132.024	44.656	0	630.60	0	4.3430	0	34.1490	0	27.078	0	624.550	0	18.2	4	5.8	4	-1E+10	1	-1E+10	1	-1E+10	1	-1E+10	1	-1E+10	1	-1E+10	1
4901784	26	C	03/21/2016	10:46	-132.024	44.656	0	634.90	0	4.3330	0	34.1520	0	27.082	0	628.802	0	17.9	4	5.7	4	-1E+10	1	-1E+10	1	-1E+10	1	-1E+10	1	-1E+10	1	-1E+10	1
4901784	26	C	03/21/2016	10:46	-132.024	44.656	0	639.30	0	4.3200	0	34.1550	0	27.086	0	633.153	0	17.7	4	5.6	4	-1E+10	1	-1E+10	1	-1E+10	1	-1E+10	1	-1E+10	1	-1E+10	1
4901784	26	C	03/21/2016	10:46	-132.024	44.656	0	644.70	0	4.3090	0	34.1560	0	27.088	0	638.493	0	17.5	4	5.6	4	-1E+10	1	-1E+10	1	-1E+10	1	-1E+10	1	-1E+10	1	-1E+10	1
4901784	26	C	03/21/2016	10:46	-132.024	44.656	0	650.10	0	4.2750	0	34.1610	0	27.095	0	643.833	0	17.2	4	5.5	4	-1E+10	1	-1E+10	1	-1E+10	1	-1E+10	1	-1E+10	1	-1E+10	1
4901784	26	C	03/21/2016	10:46	-132.024	44.656	0	655.50	0	4.2670	0	34.1640	0	27.099	0	649.172	0	16.8	4	5.3	4	-1E+10	1	-1E+10	1	-1E+10	1	-1E+10	1	-1E+10	1	-1E+10	1
4901784	26	C	03/21/2016	10:46	-132.024	44.656	0	660.00	0	4.2580	0	34.1680	0	27.103	0	653.622	0	16.4	4	5.2	4	-1E+10	1	-1E+10	1	-1E+10	1	-1E+10	1	-1E+10	1	-1E+10	1
4901784	26	C	03/21/2016	10:46	-132.024	44.656	0	664.50	0	4.2370	0	34.1730	0	27.109	0	658.071	0	16.3	4	5.2	4	-1E+10	1	-1E+10	1	-1E+10	1	-1E+10	1	-1E+10	1	-1E+10	1
4901784	26	C	03/21/2016	10:46	-132.024	44.656	0	670.00	0	4.2210	0	34.1750	0	27.112	0	663.509	0	16.1	4	5.1	4	-1E+10	1	-1E+10	1	-1E+10	1	-1E+10	1	-1E+10	1	-1E+10	1
4901784	26	C	03/21/2016	10:46	-132.024	44.656	0	675.30	0	4.1980	0	34.1790	0	27.118	0	668.750	0	15.9	4	5.0	4	-1E+10	1	-1E+10	1	-1E+10	1	-1E+10	1	-1E+10	1	-1E+10	1
4901784	26	C	03/21/2016	10:46	-132.024	44.656	0	679.50	0	4.1740	0	34.1820	0	27.123	0	672.902	0	15.7	4	5.0	4	-1E+10	1	-1E+10	1	-1E+10	1	-1E+10	1	-1E+10	1	-1E+10	1
4901784	26	C	03/21/2016	10:46	-132.024	44.656	0	685.00	0	4.1670	0	34.1870	0	27.127	0	678.340	0	15.4	4	4.9	4	-1E+10	1	-1E+10	1	-1E+10	1	-1E+10	1	-1E+10	1	-1E+10	1
4901784	26	C	03/21/2016	10:46	-132.024	44.656	0	690.50	0	4.1520	0	34.1890	0	27.131	0	683.777	0	15.3	4	4.8	4	-1E+10	1	-1E+10	1	-1E+10	1	-1E+10	1	-1E+10	1	-1E+10	1
4901784	26	C	03/21/2016	10:46	-132.024	44.656	0	695.30	0	4.1300	0	34.1920	0	27.135	0	688.523	0	15.2	4	4.8	4	-1E+10	1	-1E+10	1	-1E+10	1	-1E+10	1	-1E+10	1	-1E+10	1
4901784	26	C	03/21/2016	10:46	-132.024	44.656	0	700.20	0	4.1190	0	34.1950	0	27.139	0	693.367	0	15.1	4	4.8	4	-1E+10	1	-1E+10	1	-1E+10	1	-1E+10	1	-1E+10	1	-1E+10	1
4901784	26	C	03/21/2016	10:46	-132.024	44.656	0	705.10	0	4.1080	0	34.1970	0	27.142	0	698.211	0	14.9	4	4.7	4	-1E+10	1	-1E+10	1	-1E+10	1	-1E+10	1	-1E+10	1	-1E+10	1
4901784	26	C	03/21/2016	10:46	-132.024	44.656	0	709.90	0	4.0940	0	34.2000	0	27.146	0	702.956	0	14.8	4	4.7	4	-1E+10	1	-1E+10	1	-1E+10	1	-1E+10	1	-1E+10	1	-1E+10	1
4901784	26	C	03/21/2016	10:46	-132.024	44.656	0	714.90	0	4.0850	0	34.2030	0	27.149	0	707.898	0	14.5	4	4.6	4	-1E+10	1	-1E+10	1	-1E+10	1	-1E+10	1	-1E+10	1	-1E+10	1
4901784	26	C	03/21/2016	10:46	-132.024	44.656	0	719.80	0	4.0760	0	34.2060	0	27.152	0	712.742	0	14.3	4	4.5	4	-1E+10	1	-1E+10	1	-1E+10	1	-1E+10	1	-1E+10	1	-1E+10	1
4901784	26	C	03/21/2016	10:46	-132.024	44.656	0	724.90	0	4.0540	0	34.2100	0	27.158	0	717.783	0	14.1	4	4.5	4	-1E+10	1	-1E+10	1	-1E+10	1	-1E+10	1	-1E+10	1	-1E+10	1
4901784	26	C	03/21/2016	10:46	-132.024	44.656	0	730.00	0	4.0360	0	34.2150	0	27.164	0	722.824	0	13.9	4	4.4	4	-1E+10	1	-1E+10	1	-1E+10	1	-1E+10	1	-1E+10	1	-1E+10	1
4901784	26	C	03/21/2016	10:46	-132.024	44.656	0	735.00	0	4.0250	0	34.2190	0	27.168	0	727.766	0	13.7	4	4.3	4	-1E+10	1	-1E+10	1	-1E+10	1	-1E+10	1	-1E+10	1	-1E+10	1
4901784	26	C	03/21/2016	10:46	-132.024	44.656	0	740.00	0	4.0160	0	34.2230	0	27.172	0	732.708	0	13.5	4	4.3	4	-1E+10	1	-1E+10	1	-1E+10	1	-1E+10	1	-1E+10	1	-1E+10	1
4901784	26	C	03/21/2016	10:46	-132.024	44.656	0	745.00	0	4.0120	0	34.2250	0	27.174	0	737.650	0	13.2	4	4.2	4	-1E+10	1	-1E+10	1	-1E+10	1	-1E+10	1	-1E+10	1	-1E+10	1
4901784	26	C	03/21/2016	10:46	-132.024	44.656	0	750.20	0	3.9900	0	34.2340	0	27.184	0	742.790	0	13.0	4	4.1	4	-1E+10	1	-1E+10	1	-1E+10	1	-1E+10	1	-1E+10	1	-1E+10	1
4901784	26	C	03/21/2016	10:46	-132.024	44.656	0	755.40	0	3.9880	0	34.2350	0	27.185	0	747.929	0	12.9	4	4.1	4	-1E+10	1	-1E+10	1	-1E+10	1	-1E+10	1	-1E+10	1	-1E+10	1
4901784	26	C	03/21/2016	10:46	-132.024	44.656	0	759.80	0	3.9810	0	34.2370	0	27.187	0	752.278	0	12.8	4	4.1	4	-1E+10	1	-1E+10	1	-1E+10	1	-1E+10	1	-1E+10	1	-1E+10	1
4901784	26	C	03/21/2016	10:46	-132.024	44.656	0	764.20	0	3.9620	0	34.2370	0	27.189	0	756.626	0	12.8	4	4.1	4	-1E+10	1	-1E+10	1	-1E+10	1	-1E+10	1	-1E+10	1	-1E+10	1
4901784	26	C	03/21/2016	10:46	-132.024	44.656	0	769.40	0	3.9380	0	34.2400	0	27.194	0	761.765	0	12.7	4	4.0	4	-1E+10	1	-1E+10	1	-1E+10	1	-1E+10	1	-1E+10	1	-1E+10	1
4901784	26	C	03/21/2016	10:46	-132.024	44.656	0	774.70	0	3.9400	0	34.2460	0	27.198	0	767.003	0	12.4	4	3.9	4	-1E+10	1	-1E+10	1	-1E+10	1	-1E+10	1	-1E+10	1	-1E+10	1
4901784	26	C	03/21/2016	10:46	-132.024	44.656	0	779.90	0	3.9190	0	34.2490	0	27.203	0	772.141	0	12.4	4	3.9	4	-1E+10	1	-1E+10	1	-1E+10	1	-1E+10	1	-1E+10	1	-1E+10	1
4901784	26	C	03/21/2016	10:46	-132.024	44.656	0	785.20	0	3.9060	0	34.2520	0	27.207	0	777.379	0	12.3	4	3.9	4	-1E+10	1	-1E+10	1	-1E+10	1	-1E+10	1	-1E+10	1	-1E+10	1
4901784	26	C	03/21/2016	10:46	-132.024	44.656	0	790.40	0	3.8880	0	34.2550	0	27.211	0	782.517	0	12.2	4	3.8	4	-1E+10	1	-1E+10	1	-1E+10	1	-1E+10	1	-1E+10	1	-1E+10	1
4901784	26	C	03/21/2016	10:46	-132.024	44.656	0	795.70	0	3.8690	0	34.2600	0	27.217	0	787.754	0	12.1	4	3.8	4	-1E+10	1	-1E+10	1	-1E+10	1	-1E+10	1	-1E+10	1	-1E+10	1
4901784	26	C	03/21/2016	10:46	-132.024	44.656	0	800.00	0	3.8610	0	34.2620	0	27.219	0	792.003	0	12.0	4	3.8	4	-1E+10	1	-1E+10	1	-1E+10	1	-1E+10	1	-1E+10	1	-1E+10	1
4901784	26	C	03/21/2016	10:46	-132.024	44.656	0	804.40	0	3.8640	0	34.2630	0	27.220	0	796.351	0	11.9	4	3.8	4	-1E+10	1	-1E+10	1	-1E+10	1	-1E+10	1	-1E+10	1	-1E+10	1
4901784	26	C	03/21/2016	10:46	-132.024	44.656	0	809.80	0	3.8590	0	34.2670	0	27.223	0	801.687	0	11.9	4	3.7	4	-1E+10	1	-1E+10	1	-1E+10	1	-1E+10	1	-1E+10	1	-1E+10	1
4901784	26	C	03/21/2016	10:46	-132.024	44.656	0	815.20	0	3.8390	0	34.2690	0	27.227	0	807.022	0	11.9	4	3.7	4	-1E+10	1	-1E+10	1	-1E+10	1	-1E+10	1	-1E+10	1	-1E+10	1
4901784	26	C	03/21/2016	10:46	-132.024	44.656	0	820.60	0	3.8200	0	34.2710	0	27.231	0	812.357	0	11.9	4	3.7	4	-1E+10	1	-1E+10	1	-1E+10	1	-1E+10	1	-1E+10	1	-1E+10	1
4901784	26	C	03/21/2016	10:46	-132.024	44.656	0	825.10	0	3.7990	0	34.2700	0	27.232	0	816.803	0	11.9	4	3.7	4	-1E+10	1	-1E+10	1	-1E+10	1	-1E+10	1	-1E+10	1	-1E+10	1
4901784	26	C	03/21/2016	10:46	-132.024	44.656	0	829.70	0	3.7900	0	34.2720	0	27.234	0	821.348	0	11.8	4	3.7	4	-1E+10	1	-1E+10	1	-1E+10	1	-1E+10	1	-1E+10	1	-1E+10	1
4901784	26	C	03/21/2016	10:46	-132.024	44.656	0	835.10	0	3.7950	0	34.2790	0	27.240	0	826.683	0	11.7	4	3.7	4	-1E+10	1	-1E+10	1	-1E+10	1	-1E+10	1	-1E+10	1	-1E+10	1
4901784	26	C	03/21/2016	10:46	-132.024	44.656	0	840.60	0	3.7670	0	34.2790	0	27.242	0	832.117	0	11.8	4	3.7	4	-1E+10	1	-1E+10	1	-1E+10	1	-1E+10	1	-1E+10	1	-1E+10	1
4901784	26	C	03/21/2016	10:46	-132.024	44.656	0	845.10	0	3.7360	0	34.2800	0	27.246	0	836.562	0	11.8	4	3.7	4	-1E+10	1	-1E+10	1	-1E+10	1	-1E+10	1	-1E+10	1	-1E+10	1
4901784	26	C	03/21/2016	10:46	-132.024	44.656	0	849.80	0	3.7190	0	34.2820	0	27.250	0	841.205	0	11.8	4	3.7	4	-1E+10	1	-1E+10	1	-1E+10	1	-1E+10	1	-1E+10	1	-1E+10	1
4901784	26	C	03/21/2016	10:46	-132.024	44.656	0	855.40	0	3.7010	0	34.2850	0	27.254	0	846.737	0	11.7	4	3.7	4	-1E+10	1	-1E+10	1	-1E+10	1	-1E+10	1	-1E+10	1	-1E+10	1
4901784	26	C	03/21/2016	10:46	-132.024	44.656	0	859.90	0	3.6880	0	34.2900	0	27.259	0	851.183	0	11.7	4	3.7	4	-1E+10	1	-1E+10	1	-1E+10	1	-1E+10	1	-1E+10	1	-1E+10	1
4901784	26	C	03/21/2016	10:46	-132.024	44.656	0	864.50	0	3.6680	0	34.2930	0	27.263	0	855.727	0	11.7	4	3.7	4	-1E+10	1	-1E+10	1	-1E+10	1	-1E+10	1	-1E+10	1	-1E+10	1
4901784	26	C	03/21/2016	10:46	-132.024	44.656	0	870.00	0	3.6630	0	34.2940	0	27.265	0	861.159	0	11.7	4	3.7	4	-1E+10	1	-1E+10	1	-1E+10	1	-1E+10	1	-1E+10	1	-1E+10	1
4901784	26	C	03/21/2016	10:46	-132.024	44.656	0	875.30	0	3.6620	0	34.2950	0	27.266	0	866.395	0	11.6	4	3.6	4	-1E+10	1	-1E+10	1	-1E+10	1	-1E+10	1	-1E+10	1	-1E+10	1
4901784	26	C	03/21/2016	10:46	-132.024	44.656	0	880.50	0	3.6550	0	34.2980	0	27.269	0	871.531	0	11.5	4	3.6	4	-1E+10	1	-1E+10	1	-1E+10	1	-1E+10	1	-1E+10	1	-1E+10	1
4901784	26	C	03/21/2016	10:46	-132.024	44.656	0	885.30	0	3.6460	0	34.3010	0	27.272	0	876.272	0	11.5	4	3.6	4	-1E+10	1	-1E+10	1	-1E+10	1	-1E+10	1	-1E+10	1	-1E+10	1
4901784	26	C	03/21/2016	10:46	-132.024	44.656	0	890.10	0	3.6390	0	34.3040	0	27.275	0	881.013	0	11.5	4	3.6	4	-1E+10	1	-1E+10	1	-1E+10	1	-1E+10	1	-1E+10	1	-1E+10	1
4901784	26	C	03/21/2016	10:46	-132.024	44.656	0	894.90	0	3.6310	0	34.3090	0	27.280	0	885.754	0	11.4	4	3.6	4	-1E+10	1	-1E+10	1	-1E+10	1	-1E+10	1	-1E+10	1	-1E+10	1
4901784	26	C	03/21/2016	10:46	-132.024	44.656	0	899.80	0	3.6220	0	34.3120	0	27.283	0	890.593	0	11.4	4	3.6	4	-1E+10	1	-1E+10	1	-1E+10	1	-1E+10	1	-1E+10	1	-1E+10	1
4901784	26	C	03/21/2016	10:46	-132.024	44.656	0	904.70	0	3.6170	0	34.3140	0	27.285	0	895.433	0	11.4	4	3.6	4	-1E+10	1	-1E+10	1	-1E+10	1	-1E+10	1	-1E+10	1	-1E+10	1
4901784	26	C	03/21/2016	10:46	-132.024	44.656	0	909.60	0	3.6010	0	34.3170	0	27.289	0	900.272	0	11.4	4	3.6	4	-1E+10	1	-1E+10	1	-1E+10	1	-1E+10	1	-1E+10	1	-1E+10	1
4901784	26	C	03/21/2016	10:46	-132.024	44.656	0	914.50	0	3.5960	0	34.3200	0	27.292	0	905.111	0	11.4	4	3.6	4	-1E+10	1	-1E+10	1	-1E+10	1	-1E+10	1	-1E+10	1	-1E+10	1
4901784	26	C	03/21/2016	10:46	-132.024	44.656	0	919.50	0	3.5800	0	34.3210	0	27.295	0	910.049	0	11.4	4	3.6	4	-1E+10	1	-1E+10	1	-1E+10	1	-1E+10	1	-1E+10	1	-1E+10	1
4901784	26	C	03/21/2016	10:46	-132.024	44.656	0	924.60	0	3.5620	0	34.3240	0	27.299	0	915.085	0	11.4	4	3.6	4	-1E+10	1	-1E+10	1	-1E+10	1	-1E+10	1	-1E+10	1	-1E+10	1
4901784	26	C	03/21/2016	10:46	-132.024	44.656	0	929.60	0	3.5430	0	34.3270	0	27.303	0	920.023	0	11.5	4	3.6	4	-1E+10	1	-1E+10	1	-1E+10	1	-1E+10	1	-1E+10	1	-1E+10	1
4901784	26	C	03/21/2016	10:46	-132.024	44.656	0	934.60	0	3.5230	0	34.3290	0	27.307	0	924.960	0	11.5	4	3.6	4	-1E+10	1	-1E+10	1	-1E+10	1	-1E+10	1	-1E+10	1	-1E+10	1
4901784	26	C	03/21/2016	10:46	-132.024	44.656	0	939.70	0	3.5110	0	34.3330	0	27.311	0	929.996	0	11.5	4	3.6	4	-1E+10	1	-1E+10	1	-1E+10	1	-1E+10	1	-1E+10	1	-1E+10	1
4901784	26	C	03/21/2016	10:46	-132.024	44.656	0	944.70	0	3.5050	0	34.3360	0	27.314	0	934.934	0	11.5	4	3.6	4	-1E+10	1	-1E+10	1	-1E+10	1	-1E+10	1	-1E+10	1	-1E+10	1
4901784	26	C	03/21/2016	10:46	-132.024	44.656	0	949.80	0	3.5010	0	34.3370	0	27.315	0	939.969	0	11.5	4	3.6	4	-1E+10	1	-1E+10	1	-1E+10	1	-1E+10	1	-1E+10	1	-1E+10	1
4901784	26	C	03/21/2016	10:46	-132.024	44.656	0	954.90	0	3.4950	0	34.3400	0	27.318	0	945.005	0	11.5	4	3.6	4	-1E+10	1	-1E+10	1	-1E+10	1	-1E+10	1	-1E+10	1	-1E+10	1
4901784	26	C	03/21/2016	10:46	-132.024	44.656	0	960.00	0	3.4790	0	34.3420	0	27.321	0	950.041	0	11.6	4	3.6	4	-1E+10	1	-1E+10	1	-1E+10	1	-1E+10	1	-1E+10	1	-1E+10	1
4901784	26	C	03/21/2016	10:46	-132.024	44.656	0	965.10	0	3.4540	0	34.3440	0	27.325	0	955.076	0	11.7	4	3.6	4	-1E+10	1	-1E+10	1	-1E+10	1	-1E+10	1	-1E+10	1	-1E+10	1
4901784	26	C	03/21/2016	10:46	-132.024	44.656	0	970.10	0	3.4400	0	34.3460	0	27.328	0	960.013	0	11.7	4	3.7	4	-1E+10	1	-1E+10	1	-1E+10	1	-1E+10	1	-1E+10	1	-1E+10	1
4901784	26	C	03/21/2016	10:46	-132.024	44.656	0	975.20	0	3.4300	0	34.3460	0	27.329	0	965.048	0	11.7	4	3.7	4	-1E+10	1	-1E+10	1	-1E+10	1	-1E+10	1	-1E+10	1	-1E+10	1
4901784	26	C	03/21/2016	10:46	-132.024	44.656	0	980.40	0	3.4160	0	34.3500	0	27.334	0	970.182	0	11.8	4	3.7	4	-1E+10	1	-1E+10	1	-1E+10	1	-1E+10	1	-1E+10	1	-1E+10	1
4901784	26	C	03/21/2016	10:46	-132.024	44.656	0	985.50	0	3.4040	0	34.3520	0	27.337	0	975.217	0	11.8	4	3.7	4	-1E+10	1	-1E+10	1	-1E+10	1	-1E+10	1	-1E+10	1	-1E+10	1
4901784	26	C	03/21/2016	10:46	-132.024	44.656	0	990.60	0	3.3880	0	34.3560	0	27.341	0	980.252	0	11.9	4	3.7	4	-1E+10	1	-1E+10	1	-1E+10	1	-1E+10	1	-1E+10	1	-1E+10	1
4901784	26	C	03/21/2016	10:46	-132.024	44.656	0	995.80	0	3.3710	0	34.3600	0	27.346	0	985.385	0	11.9	4	3.7	4	-1E+10	1	-1E+10	1	-1E+10	1	-1E+10	1	-1E+10	1	-1E+10	1
4901784	26	C	03/21/2016	10:46	-132.024	44.656	0	1000.10	0	3.3600	0	34.3620	0	27.349	0	989.630	0	12.0	4	3.7	4	-1E+10	1	-1E+10	1	-1E+10	1	-1E+10	1	-1E+10	1	-1E+10	1
4901784	26	C	03/21/2016	10:46	-132.024	44.656	0	1004.40	0	3.3480	0	34.3630	0	27.351	0	993.875	0	12.0	4	3.7	4	-1E+10	1	-1E+10	1	-1E+10	1	-1E+10	1	-1E+10	1	-1E+10	1
4901784	26	C	03/21/2016	10:46	-132.024	44.656	0	1009.60	0	3.3430	0	34.3650	0	27.353	0	999.008	0	12.0	4	3.7	4	-1E+10	1	-1E+10	1	-1E+10	1	-1E+10	1	-1E+10	1	-1E+10	1
4901784	26	C	03/21/2016	10:46	-132.024	44.656	0	1014.90	0	3.3390	0	34.3670	0	27.355	0	1004.240	0	12.0	4	3.7	4	-1E+10	1	-1E+10	1	-1E+10	1	-1E+10	1	-1E+10	1	-1E+10	1
4901784	26	C	03/21/2016	10:46	-132.024	44.656	0	1020.20	0	3.3330	0	34.3680	0	27.356	0	1009.471	0	12.1	4	3.8	4	-1E+10	1	-1E+10	1	-1E+10	1	-1E+10	1	-1E+10	1	-1E+10	1
4901784	26	C	03/21/2016	10:46	-132.024	44.656	0	1025.50	0	3.3230	0	34.3700	0	27.359	0	1014.703	0	12.1	4	3.8	4	-1E+10	1	-1E+10	1	-1E+10	1	-1E+10	1	-1E+10	1	-1E+10	1
4901784	26	C	03/21/2016	10:46	-132.024	44.656	0	1030.00	0	3.3130	0	34.3720	0	27.362	0	1019.144	0	12.2	4	3.8	4	-1E+10	1	-1E+10	1	-1E+10	1	-1E+10	1	-1E+10	1	-1E+10	1
4901784	26	C	03/21/2016	10:46	-132.024	44.656	0	1034.50	0	3.3000	0	34.3740	0	27.364	0	1023.586	0	12.3	4	3.8	4	-1E+10	1	-1E+10	1	-1E+10	1	-1E+10	1	-1E+10	1	-1E+10	1
4901784	26	C	03/21/2016	10:46	-132.024	44.656	0	1039.90	0	3.2860	0	34.3760	0	27.367	0	1028.916	0	12.4	4	3.8	4	-1E+10	1	-1E+10	1	-1E+10	1	-1E+10	1	-1E+10	1	-1E+10	1
4901784	26	C	03/21/2016	10:46	-132.024	44.656	0	1045.30	0	3.2750	0	34.3780	0	27.370	0	1034.245	0	12.4	4	3.9	4	-1E+10	1	-1E+10	1	-1E+10	1	-1E+10	1	-1E+10	1	-1E+10	1
4901784	26	C	03/21/2016	10:46	-132.024	44.656	0	1049.90	0	3.2640	0	34.3800	0	27.373	0	1038.785	0	12.5	4	3.9	4	-1E+10	1	-1E+10	1	-1E+10	1	-1E+10	1	-1E+10	1	-1E+10	1
4901784	26	C	03/21/2016	10:46	-132.024	44.656	0	1054.40	0	3.2500	0	34.3820	0	27.376	0	1043.227	0	12.6	4	3.9	4	-1E+10	1	-1E+10	1	-1E+10	1	-1E+10	1	-1E+10	1	-1E+10	1
4901784	26	C	03/21/2016	10:46	-132.024	44.656	0	1060.00	0	3.2370	0	34.3850	0	27.379	0	1048.753	0	12.7	4	4.0	4	-1E+10	1	-1E+10	1	-1E+10	1	-1E+10	1	-1E+10	1	-1E+10	1
4901784	26	C	03/21/2016	10:46	-132.024	44.656	0	1065.60	0	3.2200	0	34.3880	0	27.383	0	1054.280	0	12.9	4	4.0	4	-1E+10	1	-1E+10	1	-1E+10	1	-1E+10	1	-1E+10	1	-1E+10	1
4901784	26	C	03/21/2016	10:46	-132.024	44.656	0	1070.40	0	3.2120	0	34.3890	0	27.385	0	1059.017	0	12.9	4	4.0	4	-1E+10	1	-1E+10	1	-1E+10	1	-1E+10	1	-1E+10	1	-1E+10	1
4901784	26	C	03/21/2016	10:46	-132.024	44.656	0	1074.80	0	3.2030	0	34.3900	0	27.386	0	1063.359	0	13.0	4	4.0	4	-1E+10	1	-1E+10	1	-1E+10	1	-1E+10	1	-1E+10	1	-1E+10	1
4901784	26	C	03/21/2016	10:46	-132.024	44.656	0	1079.50	0	3.1890	0	34.3930	0	27.390	0	1067.997	0	13.1	4	4.1	4	-1E+10	1	-1E+10	1	-1E+10	1	-1E+10	1	-1E+10	1	-1E+10	1
4901784	26	C	03/21/2016	10:46	-132.024	44.656	0	1084.40	0	3.1800	0	34.3950	0	27.393	0	1072.832	0	13.2	4	4.1	4	-1E+10	1	-1E+10	1	-1E+10	1	-1E+10	1	-1E+10	1	-1E+10	1
4901784	26	C	03/21/2016	10:46	-132.024	44.656	0	1089.20	0	3.1710	0	34.3960	0	27.394	0	1077.568	0	13.3	4	4.1	4	-1E+10	1	-1E+10	1	-1E+10	1	-1E+10	1	-1E+10	1	-1E+10	1
4901784	26	C	03/21/2016	10:46	-132.024	44.656	0	1095.00	0	3.1590	0	34.3990	0	27.398	0	1083.292	0	13.4	4	4.2	4	-1E+10	1	-1E+10	1	-1E+10	1	-1E+10	1	-1E+10	1	-1E+10	1
4901784	26	C	03/21/2016	10:46	-132.024	44.656	0	1100.80	0	3.1490	0	34.4000	0	27.400	0	1089.015	0	13.6	4	4.2	4	-1E+10	1	-1E+10	1	-1E+10	1	-1E+10	1	-1E+10	1	-1E+10	1
4901784	26	C	03/21/2016	10:46	-132.024	44.656	0	1105.00	0	3.1370	0	34.4020	0	27.402	0	1093.159	0	13.7	4	4.2	4	-1E+10	1	-1E+10	1	-1E+10	1	-1E+10	1	-1E+10	1	-1E+10	1
4901784	26	C	03/21/2016	10:46	-132.024	44.656	0	1109.60	0	3.1260	0	34.4030	0	27.404	0	1097.697	0	13.8	4	4.3	4	-1E+10	1	-1E+10	1	-1E+10	1	-1E+10	1	-1E+10	1	-1E+10	1
4901784	26	C	03/21/2016	10:46	-132.024	44.656	0	1115.20	0	3.1120	0	34.4060	0	27.408	0	1103.222	0	13.9	4	4.3	4	-1E+10	1	-1E+10	1	-1E+10	1	-1E+10	1	-1E+10	1	-1E+10	1
4901784	26	C	03/21/2016	10:46	-132.024	44.656	0	1119.90	0	3.1050	0	34.4070	0	27.409	0	1107.860	0	14.0	4	4.3	4	-1E+10	1	-1E+10	1	-1E+10	1	-1E+10	1	-1E+10	1	-1E+10	1
4901784	26	C	03/21/2016	10:46	-132.024	44.656	0	1124.60	0	3.0980	0	34.4090	0	27.412	0	1112.497	0	14.1	4	4.4	4	-1E+10	1	-1E+10	1	-1E+10	1	-1E+10	1	-1E+10	1	-1E+10	1
4901784	26	C	03/21/2016	10:46	-132.024	44.656	0	1130.30	0	3.0900	0	34.4110	0	27.414	0	1118.120	0	14.3	4	4.4	4	-1E+10	1	-1E+10	1	-1E+10	1	-1E+10	1	-1E+10	1	-1E+10	1
4901784	26	C	03/21/2016	10:46	-132.024	44.656	0	1135.10	0	3.0810	0	34.4130	0	27.416	0	1122.856	0	14.4	4	4.5	4	-1E+10	1	-1E+10	1	-1E+10	1	-1E+10	1	-1E+10	1	-1E+10	1
4901784	26	C	03/21/2016	10:46	-132.024	44.656	0	1139.90	0	3.0760	0	34.4140	0	27.418	0	1127.591	0	14.5	4	4.5	4	-1E+10	1	-1E+10	1	-1E+10	1	-1E+10	1	-1E+10	1	-1E+10	1
4901784	26	C	03/21/2016	10:46	-132.024	44.656	0	1145.20	0	3.0690	0	34.4150	0	27.419	0	1132.819	0	14.6	4	4.5	4	-1E+10	1	-1E+10	1	-1E+10	1	-1E+10	1	-1E+10	1	-1E+10	1
4901784	26	C	03/21/2016	10:46	-132.024	44.656	0	1150.50	0	3.0610	0	34.4170	0	27.421	0	1138.048	0	14.7	4	4.6	4	-1E+10	1	-1E+10	1	-1E+10	1	-1E+10	1	-1E+10	1	-1E+10	1
4901784	26	C	03/21/2016	10:46	-132.024	44.656	0	1155.40	0	3.0550	0	34.4180	0	27.423	0	1142.881	0	14.9	4	4.6	4	-1E+10	1	-1E+10	1	-1E+10	1	-1E+10	1	-1E+10	1	-1E+10	1
4901784	26	C	03/21/2016	10:46	-132.024	44.656	0	1160.40	0	3.0480	0	34.4200	0	27.425	0	1147.814	0	15.0	4	4.6	4	-1E+10	1	-1E+10	1	-1E+10	1	-1E+10	1	-1E+10	1	-1E+10	1
4901784	26	C	03/21/2016	10:46	-132.024	44.656	0	1165.40	0	3.0350	0	34.4220	0	27.428	0	1152.746	0	15.2	4	4.7	4	-1E+10	1	-1E+10	1	-1E+10	1	-1E+10	1	-1E+10	1	-1E+10	1
4901784	26	C	03/21/2016	10:46	-132.024	44.656	0	1170.50	0	3.0240	0	34.4240	0	27.431	0	1157.776	0	15.3	4	4.7	4	-1E+10	1	-1E+10	1	-1E+10	1	-1E+10	1	-1E+10	1	-1E+10	1
4901784	26	C	03/21/2016	10:46	-132.024	44.656	0	1175.70	0	3.0130	0	34.4250	0	27.432	0	1162.905	0	15.5	4	4.8	4	-1E+10	1	-1E+10	1	-1E+10	1	-1E+10	1	-1E+10	1	-1E+10	1
4901784	26	C	03/21/2016	10:46	-132.024	44.656	0	1180.00	0	3.0030	0	34.4260	0	27.434	0	1167.147	0	15.6	4	4.8	4	-1E+10	1	-1E+10	1	-1E+10	1	-1E+10	1	-1E+10	1	-1E+10	1
4901784	26	C	03/21/2016	10:46	-132.024	44.656	0	1184.40	0	2.9930	0	34.4280	0	27.437	0	1171.486	0	15.7	4	4.9	4	-1E+10	1	-1E+10	1	-1E+10	1	-1E+10	1	-1E+10	1	-1E+10	1
4901784	26	C	03/21/2016	10:46	-132.024	44.656	0	1189.70	0	2.9790	0	34.4290	0	27.439	0	1176.714	0	15.9	4	4.9	4	-1E+10	1	-1E+10	1	-1E+10	1	-1E+10	1	-1E+10	1	-1E+10	1
4901784	26	C	03/21/2016	10:46	-132.024	44.656	0	1195.00	0	2.9730	0	34.4300	0	27.440	0	1181.941	0	16.0	4	4.9	4	-1E+10	1	-1E+10	1	-1E+10	1	-1E+10	1	-1E+10	1	-1E+10	1
4901784	26	C	03/21/2016	10:46	-132.024	44.656	0	1200.40	0	2.9660	0	34.4310	0	27.442	0	1187.267	0	16.1	4	5.0	4	-1E+10	1	-1E+10	1	-1E+10	1	-1E+10	1	-1E+10	1	-1E+10	1
4901784	26	C	03/21/2016	10:46	-132.024	44.656	0	1204.90	0	2.9570	0	34.4320	0	27.443	0	1191.705	0	16.2	4	5.0	4	-1E+10	1	-1E+10	1	-1E+10	1	-1E+10	1	-1E+10	1	-1E+10	1
4901784	26	C	03/21/2016	10:46	-132.024	44.656	0	1209.40	0	2.9490	0	34.4330	0	27.445	0	1196.143	0	16.3	4	5.0	4	-1E+10	1	-1E+10	1	-1E+10	1	-1E+10	1	-1E+10	1	-1E+10	1
4901784	26	C	03/21/2016	10:46	-132.024	44.656	0	1214.90	0	2.9410	0	34.4350	0	27.447	0	1201.567	0	16.5	4	5.1	4	-1E+10	1	-1E+10	1	-1E+10	1	-1E+10	1	-1E+10	1	-1E+10	1
4901784	26	C	03/21/2016	10:46	-132.024	44.656	0	1220.50	0	2.9350	0	34.4360	0	27.448	0	1207.089	0	16.6	4	5.1	4	-1E+10	1	-1E+10	1	-1E+10	1	-1E+10	1	-1E+10	1	-1E+10	1
4901784	26	C	03/21/2016	10:46	-132.024	44.656	0	1225.20	0	2.9250	0	34.4370	0	27.450	0	1211.724	0	16.7	4	5.1	4	-1E+10	1	-1E+10	1	-1E+10	1	-1E+10	1	-1E+10	1	-1E+10	1
4901784	26	C	03/21/2016	10:46	-132.024	44.656	0	1229.70	0	2.9220	0	34.4380	0	27.451	0	1216.162	0	16.8	4	5.2	4	-1E+10	1	-1E+10	1	-1E+10	1	-1E+10	1	-1E+10	1	-1E+10	1
4901784	26	C	03/21/2016	10:46	-132.024	44.656	0	1234.90	0	2.9150	0	34.4390	0	27.453	0	1221.289	0	16.9	4	5.2	4	-1E+10	1	-1E+10	1	-1E+10	1	-1E+10	1	-1E+10	1	-1E+10	1
4901784	26	C	03/21/2016	10:46	-132.024	44.656	0	1240.20	0	2.9040	0	34.4400	0	27.454	0	1226.515	0	17.0	4	5.2	4	-1E+10	1	-1E+10	1	-1E+10	1	-1E+10	1	-1E+10	1	-1E+10	1
4901784	26	C	03/21/2016	10:46	-132.024	44.656	0	1245.50	0	2.8950	0	34.4410	0	27.456	0	1231.741	0	17.2	4	5.3	4	-1E+10	1	-1E+10	1	-1E+10	1	-1E+10	1	-1E+10	1	-1E+10	1
4901784	26	C	03/21/2016	10:46	-132.024	44.656	0	1249.90	0	2.8900	0	34.4410	0	27.457	0	1236.080	0	17.3	4	5.3	4	-1E+10	1	-1E+10	1	-1E+10	1	-1E+10	1	-1E+10	1	-1E+10	1
4901784	26	C	03/21/2016	10:46	-132.024	44.656	0	1254.20	0	2.8780	0	34.4430	0	27.459	0	1240.320	0	17.5	4	5.4	4	-1E+10	1	-1E+10	1	-1E+10	1	-1E+10	1	-1E+10	1	-1E+10	1
4901784	26	C	03/21/2016	10:46	-132.024	44.656	0	1259.50	0	2.8670	0	34.4440	0	27.461	0	1245.545	0	17.7	4	5.4	4	-1E+10	1	-1E+10	1	-1E+10	1	-1E+10	1	-1E+10	1	-1E+10	1
4901784	26	C	03/21/2016	10:46	-132.024	44.656	0	1264.70	0	2.8580	0	34.4450	0	27.463	0	1250.672	0	17.8	4	5.5	4	-1E+10	1	-1E+10	1	-1E+10	1	-1E+10	1	-1E+10	1	-1E+10	1
4901784	26	C	03/21/2016	10:46	-132.024	44.656	0	1270.00	0	2.8470	0	34.4470	0	27.465	0	1255.898	0	18.0	4	5.5	4	-1E+10	1	-1E+10	1	-1E+10	1	-1E+10	1	-1E+10	1	-1E+10	1
4901784	26	C	03/21/2016	10:46	-132.024	44.656	0	1275.20	0	2.8380	0	34.4480	0	27.467	0	1261.024	0	18.2	4	5.6	4	-1E+10	1	-1E+10	1	-1E+10	1	-1E+10	1	-1E+10	1	-1E+10	1
4901784	26	C	03/21/2016	10:46	-132.024	44.656	0	1280.50	0	2.8280	0	34.4490	0	27.469	0	1266.250	0	18.3	4	5.6	4	-1E+10	1	-1E+10	1	-1E+10	1	-1E+10	1	-1E+10	1	-1E+10	1
4901784	26	C	03/21/2016	10:46	-132.024	44.656	0	1284.90	0	2.8230	0	34.4510	0	27.471	0	1270.587	0	18.4	4	5.7	4	-1E+10	1	-1E+10	1	-1E+10	1	-1E+10	1	-1E+10	1	-1E+10	1
4901784	26	C	03/21/2016	10:46	-132.024	44.656	0	1289.30	0	2.8190	0	34.4510	0	27.471	0	1274.925	0	18.5	4	5.7	4	-1E+10	1	-1E+10	1	-1E+10	1	-1E+10	1	-1E+10	1	-1E+10	1
4901784	26	C	03/21/2016	10:46	-132.024	44.656	0	1294.70	0	2.8130	0	34.4520	0	27.472	0	1280.248	0	18.7	4	5.8	4	-1E+10	1	-1E+10	1	-1E+10	1	-1E+10	1	-1E+10	1	-1E+10	1
4901784	26	C	03/21/2016	10:46	-132.024	44.656	0	1300.10	0	2.8050	0	34.4530	0	27.474	0	1285.572	0	18.9	4	5.8	4	-1E+10	1	-1E+10	1	-1E+10	1	-1E+10	1	-1E+10	1	-1E+10	1
4901784	26	C	03/21/2016	10:46	-132.024	44.656	0	1305.50	0	2.7920	0	34.4560	0	27.477	0	1290.895	0	19.2	4	5.9	4	-1E+10	1	-1E+10	1	-1E+10	1	-1E+10	1	-1E+10	1	-1E+10	1
4901784	26	C	03/21/2016	10:46	-132.024	44.656	0	1310.00	0	2.7830	0	34.4570	0	27.479	0	1295.331	0	19.4	4	5.9	4	-1E+10	1	-1E+10	1	-1E+10	1	-1E+10	1	-1E+10	1	-1E+10	1
4901784	26	C	03/21/2016	10:46	-132.024	44.656	0	1314.50	0	2.7750	0	34.4580	0	27.481	0	1299.766	0	19.5	4	6.0	4	-1E+10	1	-1E+10	1	-1E+10	1	-1E+10	1	-1E+10	1	-1E+10	1
4901784	26	C	03/21/2016	10:46	-132.024	44.656	0	1319.90	0	2.7680	0	34.4580	0	27.481	0	1305.089	0	19.7	4	6.0	4	-1E+10	1	-1E+10	1	-1E+10	1	-1E+10	1	-1E+10	1	-1E+10	1
4901784	26	C	03/21/2016	10:46	-132.024	44.656	0	1325.30	0	2.7600	0	34.4600	0	27.484	0	1310.412	0	19.9	4	6.1	4	-1E+10	1	-1E+10	1	-1E+10	1	-1E+10	1	-1E+10	1	-1E+10	1
4901784	26	C	03/21/2016	10:46	-132.024	44.656	0	1329.80	0	2.7560	0	34.4600	0	27.484	0	1314.847	0	20.0	4	6.1	4	-1E+10	1	-1E+10	1	-1E+10	1	-1E+10	1	-1E+10	1	-1E+10	1
4901784	26	C	03/21/2016	10:46	-132.024	44.656	0	1334.40	0	2.7460	0	34.4610	0	27.486	0	1319.381	0	20.2	4	6.2	4	-1E+10	1	-1E+10	1	-1E+10	1	-1E+10	1	-1E+10	1	-1E+10	1
4901784	26	C	03/21/2016	10:46	-132.024	44.656	0	1339.90	0	2.7360	0	34.4620	0	27.487	0	1324.802	0	20.5	4	6.3	4	-1E+10	1	-1E+10	1	-1E+10	1	-1E+10	1	-1E+10	1	-1E+10	1
4901784	26	C	03/21/2016	10:46	-132.024	44.656	0	1345.30	0	2.7260	0	34.4640	0	27.490	0	1330.124	0	20.7	4	6.4	4	-1E+10	1	-1E+10	1	-1E+10	1	-1E+10	1	-1E+10	1	-1E+10	1
4901784	26	C	03/21/2016	10:46	-132.024	44.656	0	1349.80	0	2.7210	0	34.4640	0	27.490	0	1334.559	0	20.9	4	6.4	4	-1E+10	1	-1E+10	1	-1E+10	1	-1E+10	1	-1E+10	1	-1E+10	1
4901784	26	C	03/21/2016	10:46	-132.024	44.656	0	1354.40	0	2.7080	0	34.4660	0	27.493	0	1339.092	0	21.2	4	6.5	4	-1E+10	1	-1E+10	1	-1E+10	1	-1E+10	1	-1E+10	1	-1E+10	1
4901784	26	C	03/21/2016	10:46	-132.024	44.656	0	1359.90	0	2.7000	0	34.4680	0	27.495	0	1344.513	0	21.5	4	6.6	4	-1E+10	1	-1E+10	1	-1E+10	1	-1E+10	1	-1E+10	1	-1E+10	1
4901784	26	C	03/21/2016	10:46	-132.024	44.656	0	1365.20	0	2.6870	0	34.4700	0	27.498	0	1349.736	0	21.8	4	6.7	4	-1E+10	1	-1E+10	1	-1E+10	1	-1E+10	1	-1E+10	1	-1E+10	1
4901784	26	C	03/21/2016	10:46	-132.024	44.656	0	1370.60	0	2.6770	0	34.4720	0	27.501	0	1355.057	0	22.1	4	6.8	4	-1E+10	1	-1E+10	1	-1E+10	1	-1E+10	1	-1E+10	1	-1E+10	1
4901784	26	C	03/21/2016	10:46	-132.024	44.656	0	1375.00	0	2.6710	0	34.4730	0	27.502	0	1359.393	0	22.4	4	6.8	4	-1E+10	1	-1E+10	1	-1E+10	1	-1E+10	1	-1E+10	1	-1E+10	1
4901784	26	C	03/21/2016	10:46	-132.024	44.656	0	1379.60	0	2.6610	0	34.4750	0	27.504	0	1363.926	0	22.6	4	6.9	4	-1E+10	1	-1E+10	1	-1E+10	1	-1E+10	1	-1E+10	1	-1E+10	1
4901784	26	C	03/21/2016	10:46	-132.024	44.656	0	1385.00	0	2.6500	0	34.4760	0	27.506	0	1369.247	0	22.9	4	7.0	4	-1E+10	1	-1E+10	1	-1E+10	1	-1E+10	1	-1E+10	1	-1E+10	1
4901784	26	C	03/21/2016	10:46	-132.024	44.656	0	1390.40	0	2.6410	0	34.4780	0	27.509	0	1374.568	0	23.2	4	7.1	4	-1E+10	1	-1E+10	1	-1E+10	1	-1E+10	1	-1E+10	1	-1E+10	1
4901784	26	C	03/21/2016	10:46	-132.024	44.656	0	1395.00	0	2.6330	0	34.4790	0	27.510	0	1379.101	0	23.4	4	7.2	4	-1E+10	1	-1E+10	1	-1E+10	1	-1E+10	1	-1E+10	1	-1E+10	1
4901784	26	C	03/21/2016	10:46	-132.024	44.656	0	1399.50	0	2.6230	0	34.4800	0	27.512	0	1383.535	0	23.6	4	7.2	4	-1E+10	1	-1E+10	1	-1E+10	1	-1E+10	1	-1E+10	1	-1E+10	1
4901784	26	C	03/21/2016	10:46	-132.024	44.656	0	1404.90	0	2.6170	0	34.4810	0	27.513	0	1388.856	0	23.8	4	7.3	4	-1E+10	1	-1E+10	1	-1E+10	1	-1E+10	1	-1E+10	1	-1E+10	1
4901784	26	C	03/21/2016	10:46	-132.024	44.656	0	1410.30	0	2.6070	0	34.4820	0	27.515	0	1394.176	0	24.1	4	7.4	4	-1E+10	1	-1E+10	1	-1E+10	1	-1E+10	1	-1E+10	1	-1E+10	1
4901784	26	C	03/21/2016	10:46	-132.024	44.656	0	1414.80	0	2.6010	0	34.4830	0	27.516	0	1398.610	0	24.3	4	7.4	4	-1E+10	1	-1E+10	1	-1E+10	1	-1E+10	1	-1E+10	1	-1E+10	1
4901784	26	C	03/21/2016	10:46	-132.024	44.656	0	1419.30	0	2.5960	0	34.4840	0	27.517	0	1403.043	0	24.5	4	7.5	4	-1E+10	1	-1E+10	1	-1E+10	1	-1E+10	1	-1E+10	1	-1E+10	1
4901784	26	C	03/21/2016	10:46	-132.024	44.656	0	1424.80	0	2.5870	0	34.4850	0	27.519	0	1408.462	0	24.7	4	7.6	4	-1E+10	1	-1E+10	1	-1E+10	1	-1E+10	1	-1E+10	1	-1E+10	1
4901784	26	C	03/21/2016	10:46	-132.024	44.656	0	1430.20	0	2.5820	0	34.4850	0	27.519	0	1413.782	0	25.0	4	7.6	4	-1E+10	1	-1E+10	1	-1E+10	1	-1E+10	1	-1E+10	1	-1E+10	1
4901784	26	C	03/21/2016	10:46	-132.024	44.656	0	1435.70	0	2.5740	0	34.4860	0	27.521	0	1419.200	0	25.3	4	7.7	4	-1E+10	1	-1E+10	1	-1E+10	1	-1E+10	1	-1E+10	1	-1E+10	1
4901784	26	C	03/21/2016	10:46	-132.024	44.656	0	1440.20	0	2.5590	0	34.4880	0	27.524	0	1423.633	0	25.7	4	7.8	4	-1E+10	1	-1E+10	1	-1E+10	1	-1E+10	1	-1E+10	1	-1E+10	1
4901784	26	C	03/21/2016	10:46	-132.024	44.656	0	1444.70	0	2.5500	0	34.4890	0	27.525	0	1428.066	0	25.8	4	7.9	4	-1E+10	1	-1E+10	1	-1E+10	1	-1E+10	1	-1E+10	1	-1E+10	1
4901784	26	C	03/21/2016	10:46	-132.024	44.656	0	1450.20	0	2.5470	0	34.4900	0	27.527	0	1433.484	0	26.0	4	8.0	4	-1E+10	1	-1E+10	1	-1E+10	1	-1E+10	1	-1E+10	1	-1E+10	1
4901784	26	C	03/21/2016	10:46	-132.024	44.656	0	1455.60	0	2.5410	0	34.4910	0	27.528	0	1438.804	0	26.3	4	8.0	4	-1E+10	1	-1E+10	1	-1E+10	1	-1E+10	1	-1E+10	1	-1E+10	1
4901784	26	C	03/21/2016	10:46	-132.024	44.656	0	1460.20	0	2.5350	0	34.4920	0	27.529	0	1443.335	0	26.5	4	8.1	4	-1E+10	1	-1E+10	1	-1E+10	1	-1E+10	1	-1E+10	1	-1E+10	1
4901784	26	C	03/21/2016	10:46	-132.024	44.656	0	1464.90	0	2.5310	0	34.4930	0	27.530	0	1447.965	0	26.8	4	8.2	4	-1E+10	1	-1E+10	1	-1E+10	1	-1E+10	1	-1E+10	1	-1E+10	1
4901784	26	C	03/21/2016	10:46	-132.024	44.656	0	1470.10	0	2.5210	0	34.4950	0	27.533	0	1453.087	0	27.2	4	8.3	4	-1E+10	1	-1E+10	1	-1E+10	1	-1E+10	1	-1E+10	1	-1E+10	1
4901784	26	C	03/21/2016	10:46	-132.024	44.656	0	1474.80	0	2.5120	0	34.4960	0	27.534	0	1457.716	0	27.5	4	8.4	4	-1E+10	1	-1E+10	1	-1E+10	1	-1E+10	1	-1E+10	1	-1E+10	1
4901784	26	C	03/21/2016	10:46	-132.024	44.656	0	1479.60	0	2.5020	0	34.4970	0	27.536	0	1462.444	0	27.8	4	8.5	4	-1E+10	1	-1E+10	1	-1E+10	1	-1E+10	1	-1E+10	1	-1E+10	1
4901784	26	C	03/21/2016	10:46	-132.024	44.656	0	1484.40	0	2.4940	0	34.4970	0	27.537	0	1467.171	0	28.1	4	8.6	4	-1E+10	1	-1E+10	1	-1E+10	1	-1E+10	1	-1E+10	1	-1E+10	1
4901784	26	C	03/21/2016	10:46	-132.024	44.656	0	1489.30	0	2.4780	0	34.5000	0	27.540	0	1471.998	0	28.6	4	8.7	4	-1E+10	1	-1E+10	1	-1E+10	1	-1E+10	1	-1E+10	1	-1E+10	1
4901784	26	C	03/21/2016	10:46	-132.024	44.656	0	1495.00	0	2.4680	0	34.5010	0	27.542	0	1477.611	0	29.1	4	8.9	4	-1E+10	1	-1E+10	1	-1E+10	1	-1E+10	1	-1E+10	1	-1E+10	1
4901784	26	C	03/21/2016	10:46	-132.024	44.656	0	1500.70	0	2.4530	0	34.5030	0	27.545	0	1483.225	0	29.6	4	9.0	4	-1E+10	1	-1E+10	1	-1E+10	1	-1E+10	1	-1E+10	1	-1E+10	1
4901784	26	C	03/21/2016	10:46	-132.024	44.656	0	1505.70	0	2.4430	0	34.5040	0	27.547	0	1488.149	0	29.8	4	9.1	4	-1E+10	1	-1E+10	1	-1E+10	1	-1E+10	1	-1E+10	1	-1E+10	1
4901784	26	C	03/21/2016	10:46	-132.024	44.656	0	1510.60	0	2.4360	0	34.5050	0	27.548	0	1492.975	0	30.2	4	9.2	4	-1E+10	1	-1E+10	1	-1E+10	1	-1E+10	1	-1E+10	1	-1E+10	1
4901784	26	C	03/21/2016	10:46	-132.024	44.656	0	1515.60	0	2.4250	0	34.5060	0	27.550	0	1497.899	0	30.6	4	9.3	4	-1E+10	1	-1E+10	1	-1E+10	1	-1E+10	1	-1E+10	1	-1E+10	1
4901784	26	C	03/21/2016	10:46	-132.024	44.656	0	1520.60	0	2.4180	0	34.5070	0	27.551	0	1502.823	0	30.9	4	9.4	4	-1E+10	1	-1E+10	1	-1E+10	1	-1E+10	1	-1E+10	1	-1E+10	1
4901784	26	C	03/21/2016	10:46	-132.024	44.656	0	1525.60	0	2.4100	0	34.5080	0	27.553	0	1507.746	0	31.1	4	9.5	4	-1E+10	1	-1E+10	1	-1E+10	1	-1E+10	1	-1E+10	1	-1E+10	1
4901784	26	C	03/21/2016	10:46	-132.024	44.656	0	1530.60	0	2.4050	0	34.5080	0	27.553	0	1512.670	0	31.5	4	9.6	4	-1E+10	1	-1E+10	1	-1E+10	1	-1E+10	1	-1E+10	1	-1E+10	1
4901784	26	C	03/21/2016	10:46	-132.024	44.656	0	1535.70	0	2.3940	0	34.5100	0	27.556	0	1517.692	0	31.9	4	9.7	4	-1E+10	1	-1E+10	1	-1E+10	1	-1E+10	1	-1E+10	1	-1E+10	1
4901784	26	C	03/21/2016	10:46	-132.024	44.656	0	1540.70	0	2.3860	0	34.5110	0	27.557	0	1522.615	0	32.3	4	9.8	4	-1E+10	1	-1E+10	1	-1E+10	1	-1E+10	1	-1E+10	1	-1E+10	1
4901784	26	C	03/21/2016	10:46	-132.024	44.656	0	1545.70	0	2.3780	0	34.5120	0	27.559	0	1527.539	0	32.7	4	9.9	4	-1E+10	1	-1E+10	1	-1E+10	1	-1E+10	1	-1E+10	1	-1E+10	1
4901784	26	C	03/21/2016	10:46	-132.024	44.656	0	1550.00	0	2.3740	0	34.5130	0	27.560	0	1531.773	0	33.0	4	10.0	4	-1E+10	1	-1E+10	1	-1E+10	1	-1E+10	1	-1E+10	1	-1E+10	1
4901784	26	C	03/21/2016	10:46	-132.024	44.656	0	1554.30	0	2.3630	0	34.5140	0	27.562	0	1536.006	0	33.5	4	10.2	4	-1E+10	1	-1E+10	1	-1E+10	1	-1E+10	1	-1E+10	1	-1E+10	1
4901784	26	C	03/21/2016	10:46	-132.024	44.656	0	1559.40	0	2.3560	0	34.5160	0	27.564	0	1541.028	0	34.1	4	10.4	4	-1E+10	1	-1E+10	1	-1E+10	1	-1E+10	1	-1E+10	1	-1E+10	1
4901784	26	C	03/21/2016	10:46	-132.024	44.656	0	1564.50	0	2.3490	0	34.5170	0	27.565	0	1546.049	0	34.4	4	10.4	4	-1E+10	1	-1E+10	1	-1E+10	1	-1E+10	1	-1E+10	1	-1E+10	1
4901784	26	C	03/21/2016	10:46	-132.024	44.656	0	1569.70	0	2.3360	0	34.5180	0	27.567	0	1551.169	0	34.7	4	10.5	4	-1E+10	1	-1E+10	1	-1E+10	1	-1E+10	1	-1E+10	1	-1E+10	1
4901784	26	C	03/21/2016	10:46	-132.024	44.656	0	1575.00	0	2.3290	0	34.5190	0	27.568	0	1556.387	0	34.9	4	10.6	4	-1E+10	1	-1E+10	1	-1E+10	1	-1E+10	1	-1E+10	1	-1E+10	1
4901784	26	C	03/21/2016	10:46	-132.024	44.656	0	1580.40	0	2.3240	0	34.5190	0	27.569	0	1561.703	0	35.3	4	10.7	4	-1E+10	1	-1E+10	1	-1E+10	1	-1E+10	1	-1E+10	1	-1E+10	1
4901784	26	C	03/21/2016	10:46	-132.024	44.656	0	1585.70	0	2.3130	0	34.5210	0	27.571	0	1566.921	0	35.7	4	10.9	4	-1E+10	1	-1E+10	1	-1E+10	1	-1E+10	1	-1E+10	1	-1E+10	1
4901784	26	C	03/21/2016	10:46	-132.024	44.656	0	1590.10	0	2.3080	0	34.5220	0	27.573	0	1571.252	0	36.0	4	10.9	4	-1E+10	1	-1E+10	1	-1E+10	1	-1E+10	1	-1E+10	1	-1E+10	1
4901784	26	C	03/21/2016	10:46	-132.024	44.656	0	1594.70	0	2.3070	0	34.5220	0	27.573	0	1575.780	0	36.2	4	11.0	4	-1E+10	1	-1E+10	1	-1E+10	1	-1E+10	1	-1E+10	1	-1E+10	1
4901784	26	C	03/21/2016	10:46	-132.024	44.656	0	1600.10	0	2.2980	0	34.5230	0	27.574	0	1581.096	0	36.4	4	11.1	4	-1E+10	1	-1E+10	1	-1E+10	1	-1E+10	1	-1E+10	1	-1E+10	1
4901784	26	C	03/21/2016	10:46	-132.024	44.656	0	1605.50	0	2.2940	0	34.5240	0	27.575	0	1586.412	0	36.7	4	11.1	4	-1E+10	1	-1E+10	1	-1E+10	1	-1E+10	1	-1E+10	1	-1E+10	1
4901784	26	C	03/21/2016	10:46	-132.024	44.656	0	1609.60	0	2.2930	0	34.5240	0	27.576	0	1590.448	0	37.0	4	11.2	4	-1E+10	1	-1E+10	1	-1E+10	1	-1E+10	1	-1E+10	1	-1E+10	1
4901784	26	C	03/21/2016	10:46	-132.024	44.656	0	1614.40	0	2.2860	0	34.5250	0	27.577	0	1595.173	0	37.2	4	11.3	4	-1E+10	1	-1E+10	1	-1E+10	1	-1E+10	1	-1E+10	1	-1E+10	1
4901784	26	C	03/21/2016	10:46	-132.024	44.656	0	1620.00	0	2.2780	0	34.5250	0	27.578	0	1600.685	0	37.5	4	11.4	4	-1E+10	1	-1E+10	1	-1E+10	1	-1E+10	1	-1E+10	1	-1E+10	1
4901784	26	C	03/21/2016	10:46	-132.024	44.656	0	1625.60	0	2.2790	0	34.5270	0	27.579	0	1606.197	0	38.0	4	11.5	4	-1E+10	1	-1E+10	1	-1E+10	1	-1E+10	1	-1E+10	1	-1E+10	1
4901784	26	C	03/21/2016	10:46	-132.024	44.656	0	1630.50	0	2.2750	0	34.5280	0	27.580	0	1611.020	0	38.3	4	11.6	4	-1E+10	1	-1E+10	1	-1E+10	1	-1E+10	1	-1E+10	1	-1E+10	1
4901784	26	C	03/21/2016	10:46	-132.024	44.656	0	1635.40	0	2.2640	0	34.5290	0	27.582	0	1615.842	0	38.6	4	11.7	4	-1E+10	1	-1E+10	1	-1E+10	1	-1E+10	1	-1E+10	1	-1E+10	1
4901784	26	C	03/21/2016	10:46	-132.024	44.656	0	1640.40	0	2.2570	0	34.5290	0	27.583	0	1620.764	0	38.9	4	11.8	4	-1E+10	1	-1E+10	1	-1E+10	1	-1E+10	1	-1E+10	1	-1E+10	1
4901784	26	C	03/21/2016	10:46	-132.024	44.656	0	1645.40	0	2.2480	0	34.5300	0	27.584	0	1625.685	0	39.2	4	11.9	4	-1E+10	1	-1E+10	1	-1E+10	1	-1E+10	1	-1E+10	1	-1E+10	1
4901784	26	C	03/21/2016	10:46	-132.024	44.656	0	1650.50	0	2.2320	0	34.5310	0	27.586	0	1630.704	0	39.6	4	12.0	4	-1E+10	1	-1E+10	1	-1E+10	1	-1E+10	1	-1E+10	1	-1E+10	1
4901784	26	C	03/21/2016	10:46	-132.024	44.656	0	1655.60	0	2.2290	0	34.5320	0	27.587	0	1635.723	0	39.9	4	12.1	4	-1E+10	1	-1E+10	1	-1E+10	1	-1E+10	1	-1E+10	1	-1E+10	1
4901784	26	C	03/21/2016	10:46	-132.024	44.656	0	1660.70	0	2.2190	0	34.5330	0	27.589	0	1640.742	0	40.3	4	12.2	4	-1E+10	1	-1E+10	1	-1E+10	1	-1E+10	1	-1E+10	1	-1E+10	1
4901784	26	C	03/21/2016	10:46	-132.024	44.656	0	1665.00	0	2.2120	0	34.5340	0	27.590	0	1644.974	0	40.5	4	12.3	4	-1E+10	1	-1E+10	1	-1E+10	1	-1E+10	1	-1E+10	1	-1E+10	1
4901784	26	C	03/21/2016	10:46	-132.024	44.656	0	1669.30	0	2.2070	0	34.5340	0	27.591	0	1649.205	0	40.9	4	12.4	4	-1E+10	1	-1E+10	1	-1E+10	1	-1E+10	1	-1E+10	1	-1E+10	1
4901784	26	C	03/21/2016	10:46	-132.024	44.656	0	1674.60	0	2.1980	0	34.5360	0	27.593	0	1654.421	0	41.4	4	12.5	4	-1E+10	1	-1E+10	1	-1E+10	1	-1E+10	1	-1E+10	1	-1E+10	1
4901784	26	C	03/21/2016	10:46	-132.024	44.656	0	1679.90	0	2.1890	0	34.5360	0	27.594	0	1659.636	0	41.7	4	12.6	4	-1E+10	1	-1E+10	1	-1E+10	1	-1E+10	1	-1E+10	1	-1E+10	1
4901784	26	C	03/21/2016	10:46	-132.024	44.656	0	1685.20	0	2.1780	0	34.5370	0	27.596	0	1664.851	0	42.1	4	12.7	4	-1E+10	1	-1E+10	1	-1E+10	1	-1E+10	1	-1E+10	1	-1E+10	1
4901784	26	C	03/21/2016	10:46	-132.024	44.656	0	1690.50	0	2.1750	0	34.5380	0	27.597	0	1670.067	0	42.5	4	12.9	4	-1E+10	1	-1E+10	1	-1E+10	1	-1E+10	1	-1E+10	1	-1E+10	1
4901784	26	C	03/21/2016	10:46	-132.024	44.656	0	1695.00	0	2.1740	0	34.5400	0	27.598	0	1674.494	0	42.8	4	13.0	4	-1E+10	1	-1E+10	1	-1E+10	1	-1E+10	1	-1E+10	1	-1E+10	1
4901784	26	C	03/21/2016	10:46	-132.024	44.656	0	1699.60	0	2.1680	0	34.5400	0	27.599	0	1679.021	0	43.1	4	13.0	4	-1E+10	1	-1E+10	1	-1E+10	1	-1E+10	1	-1E+10	1	-1E+10	1
4901784	26	C	03/21/2016	10:46	-132.024	44.656	0	1705.00	0	2.1640	0	34.5410	0	27.600	0	1684.334	0	43.3	4	13.1	4	-1E+10	1	-1E+10	1	-1E+10	1	-1E+10	1	-1E+10	1	-1E+10	1
4901784	26	C	03/21/2016	10:46	-132.024	44.656	0	1710.10	0	2.1610	0	34.5410	0	27.600	0	1689.352	0	43.6	4	13.2	4	-1E+10	1	-1E+10	1	-1E+10	1	-1E+10	1	-1E+10	1	-1E+10	1
4901784	26	C	03/21/2016	10:46	-132.024	44.656	0	1715.10	0	2.1540	0	34.5420	0	27.602	0	1694.271	0	44.1	4	13.3	4	-1E+10	1	-1E+10	1	-1E+10	1	-1E+10	1	-1E+10	1	-1E+10	1
4901784	26	C	03/21/2016	10:46	-132.024	44.656	0	1720.80	0	2.1430	0	34.5440	0	27.604	0	1699.879	0	44.6	4	13.5	4	-1E+10	1	-1E+10	1	-1E+10	1	-1E+10	1	-1E+10	1	-1E+10	1
4901784	26	C	03/21/2016	10:46	-132.024	44.656	0	1725.70	0	2.1390	0	34.5450	0	27.605	0	1704.700	0	44.8	4	13.6	4	-1E+10	1	-1E+10	1	-1E+10	1	-1E+10	1	-1E+10	1	-1E+10	1
4901784	26	C	03/21/2016	10:46	-132.024	44.656	0	1730.70	0	2.1310	0	34.5450	0	27.606	0	1709.619	0	45.1	4	13.6	4	-1E+10	1	-1E+10	1	-1E+10	1	-1E+10	1	-1E+10	1	-1E+10	1
4901784	26	C	03/21/2016	10:46	-132.024	44.656	0	1735.60	0	2.1270	0	34.5460	0	27.607	0	1714.439	0	45.4	4	13.7	4	-1E+10	1	-1E+10	1	-1E+10	1	-1E+10	1	-1E+10	1	-1E+10	1
4901784	26	C	03/21/2016	10:46	-132.024	44.656	0	1740.70	0	2.1210	0	34.5470	0	27.608	0	1719.456	0	45.8	4	13.8	4	-1E+10	1	-1E+10	1	-1E+10	1	-1E+10	1	-1E+10	1	-1E+10	1
4901784	26	C	03/21/2016	10:46	-132.024	44.656	0	1745.70	0	2.1170	0	34.5480	0	27.610	0	1724.375	0	46.1	4	13.9	4	-1E+10	1	-1E+10	1	-1E+10	1	-1E+10	1	-1E+10	1	-1E+10	1
4901784	26	C	03/21/2016	10:46	-132.024	44.656	0	1750.70	0	2.1100	0	34.5480	0	27.610	0	1729.294	0	46.3	4	14.0	4	-1E+10	1	-1E+10	1	-1E+10	1	-1E+10	1	-1E+10	1	-1E+10	1
4901784	26	C	03/21/2016	10:46	-132.024	44.656	0	1755.70	0	2.1030	0	34.5490	0	27.612	0	1734.212	0	46.6	4	14.1	4	-1E+10	1	-1E+10	1	-1E+10	1	-1E+10	1	-1E+10	1	-1E+10	1
4901784	26	C	03/21/2016	10:46	-132.024	44.656	0	1760.00	0	2.1010	0	34.5490	0	27.612	0	1738.442	0	46.7	4	14.1	4	-1E+10	1	-1E+10	1	-1E+10	1	-1E+10	1	-1E+10	1	-1E+10	1
4901784	26	C	03/21/2016	10:46	-132.024	44.656	0	1764.20	0	2.0990	0	34.5490	0	27.612	0	1742.573	0	46.9	4	14.2	4	-1E+10	1	-1E+10	1	-1E+10	1	-1E+10	1	-1E+10	1	-1E+10	1
4901784	26	C	03/21/2016	10:46	-132.024	44.656	0	1769.40	0	2.0950	0	34.5500	0	27.613	0	1747.688	0	47.2	4	14.3	4	-1E+10	1	-1E+10	1	-1E+10	1	-1E+10	1	-1E+10	1	-1E+10	1
4901784	26	C	03/21/2016	10:46	-132.024	44.656	0	1774.50	0	2.0910	0	34.5510	0	27.614	0	1752.704	0	47.5	4	14.3	4	-1E+10	1	-1E+10	1	-1E+10	1	-1E+10	1	-1E+10	1	-1E+10	1
4901784	26	C	03/21/2016	10:46	-132.024	44.656	0	1779.70	0	2.0860	0	34.5510	0	27.615	0	1757.819	0	47.6	4	14.4	4	-1E+10	1	-1E+10	1	-1E+10	1	-1E+10	1	-1E+10	1	-1E+10	1
4901784	26	C	03/21/2016	10:46	-132.024	44.656	0	1784.90	0	2.0830	0	34.5520	0	27.616	0	1762.934	0	47.9	4	14.5	4	-1E+10	1	-1E+10	1	-1E+10	1	-1E+10	1	-1E+10	1	-1E+10	1
4901784	26	C	03/21/2016	10:46	-132.024	44.656	0	1790.30	0	2.0810	0	34.5520	0	27.616	0	1768.245	0	48.1	4	14.5	4	-1E+10	1	-1E+10	1	-1E+10	1	-1E+10	1	-1E+10	1	-1E+10	1
4901784	26	C	03/21/2016	10:46	-132.024	44.656	0	1795.70	0	2.0750	0	34.5530	0	27.617	0	1773.556	0	48.5	4	14.7	4	-1E+10	1	-1E+10	1	-1E+10	1	-1E+10	1	-1E+10	1	-1E+10	1
4901784	26	C	03/21/2016	10:46	-132.024	44.656	0	1800.20	0	2.0720	0	34.5540	0	27.618	0	1777.981	0	48.8	4	14.8	4	-1E+10	1	-1E+10	1	-1E+10	1	-1E+10	1	-1E+10	1	-1E+10	1
4901784	26	C	03/21/2016	10:46	-132.024	44.656	0	1804.70	0	2.0690	0	34.5550	0	27.619	0	1782.407	0	49.1	4	14.8	4	-1E+10	1	-1E+10	1	-1E+10	1	-1E+10	1	-1E+10	1	-1E+10	1
4901784	26	C	03/21/2016	10:46	-132.024	44.656	0	1810.10	0	2.0650	0	34.5550	0	27.620	0	1787.717	0	49.3	4	14.9	4	-1E+10	1	-1E+10	1	-1E+10	1	-1E+10	1	-1E+10	1	-1E+10	1
4901784	26	C	03/21/2016	10:46	-132.024	44.656	0	1815.30	0	2.0600	0	34.5560	0	27.621	0	1792.831	0	49.6	4	15.0	4	-1E+10	1	-1E+10	1	-1E+10	1	-1E+10	1	-1E+10	1	-1E+10	1
4901784	26	C	03/21/2016	10:46	-132.024	44.656	0	1820.60	0	2.0550	0	34.5560	0	27.621	0	1798.043	0	49.9	4	15.1	4	-1E+10	1	-1E+10	1	-1E+10	1	-1E+10	1	-1E+10	1	-1E+10	1
4901784	26	C	03/21/2016	10:46	-132.024	44.656	0	1825.40	0	2.0480	0	34.5570	0	27.623	0	1802.763	0	50.2	4	15.2	4	-1E+10	1	-1E+10	1	-1E+10	1	-1E+10	1	-1E+10	1	-1E+10	1
4901784	26	C	03/21/2016	10:46	-132.024	44.656	0	1830.20	0	2.0430	0	34.5580	0	27.624	0	1807.483	0	50.5	4	15.2	4	-1E+10	1	-1E+10	1	-1E+10	1	-1E+10	1	-1E+10	1	-1E+10	1
4901784	26	C	03/21/2016	10:46	-132.024	44.656	0	1835.10	0	2.0430	0	34.5580	0	27.624	0	1812.302	0	50.7	4	15.3	4	-1E+10	1	-1E+10	1	-1E+10	1	-1E+10	1	-1E+10	1	-1E+10	1
4901784	26	C	03/21/2016	10:46	-132.024	44.656	0	1840.00	0	2.0370	0	34.5590	0	27.625	0	1817.120	0	51.0	4	15.4	4	-1E+10	1	-1E+10	1	-1E+10	1	-1E+10	1	-1E+10	1	-1E+10	1
4901784	26	C	03/21/2016	10:46	-132.024	44.656	0	1844.90	0	2.0320	0	34.5600	0	27.626	0	1821.938	0	51.3	4	15.5	4	-1E+10	1	-1E+10	1	-1E+10	1	-1E+10	1	-1E+10	1	-1E+10	1
4901784	26	C	03/21/2016	10:46	-132.024	44.656	0	1849.80	0	2.0290	0	34.5600	0	27.627	0	1826.756	0	51.6	4	15.6	4	-1E+10	1	-1E+10	1	-1E+10	1	-1E+10	1	-1E+10	1	-1E+10	1
4901784	26	C	03/21/2016	10:46	-132.024	44.656	0	1854.80	0	2.0230	0	34.5610	0	27.628	0	1831.672	0	51.9	4	15.7	4	-1E+10	1	-1E+10	1	-1E+10	1	-1E+10	1	-1E+10	1	-1E+10	1
4901784	26	C	03/21/2016	10:46	-132.024	44.656	0	1859.80	0	2.0190	0	34.5610	0	27.628	0	1836.588	0	52.2	4	15.7	4	-1E+10	1	-1E+10	1	-1E+10	1	-1E+10	1	-1E+10	1	-1E+10	1
4901784	26	C	03/21/2016	10:46	-132.024	44.656	0	1864.70	0	2.0160	0	34.5620	0	27.629	0	1841.406	0	52.3	4	15.8	4	-1E+10	1	-1E+10	1	-1E+10	1	-1E+10	1	-1E+10	1	-1E+10	1
4901784	26	C	03/21/2016	10:46	-132.024	44.656	0	1869.80	0	2.0150	0	34.5620	0	27.629	0	1846.420	0	52.6	4	15.9	4	-1E+10	1	-1E+10	1	-1E+10	1	-1E+10	1	-1E+10	1	-1E+10	1
4901784	26	C	03/21/2016	10:46	-132.024	44.656	0	1874.80	0	2.0110	0	34.5630	0	27.631	0	1851.336	0	52.9	4	16.0	4	-1E+10	1	-1E+10	1	-1E+10	1	-1E+10	1	-1E+10	1	-1E+10	1
4901784	26	C	03/21/2016	10:46	-132.024	44.656	0	1880.00	0	2.0040	0	34.5640	0	27.632	0	1856.448	0	53.3	4	16.1	4	-1E+10	1	-1E+10	1	-1E+10	1	-1E+10	1	-1E+10	1	-1E+10	1
4901784	26	C	03/21/2016	10:46	-132.024	44.656	0	1885.10	0	2.0000	0	34.5650	0	27.633	0	1861.462	0	53.6	4	16.2	4	-1E+10	1	-1E+10	1	-1E+10	1	-1E+10	1	-1E+10	1	-1E+10	1
4901784	26	C	03/21/2016	10:46	-132.024	44.656	0	1890.20	0	1.9970	0	34.5650	0	27.633	0	1866.475	0	53.9	4	16.2	4	-1E+10	1	-1E+10	1	-1E+10	1	-1E+10	1	-1E+10	1	-1E+10	1
4901784	26	C	03/21/2016	10:46	-132.024	44.656	0	1895.40	0	1.9920	0	34.5660	0	27.635	0	1871.587	0	54.1	4	16.3	4	-1E+10	1	-1E+10	1	-1E+10	1	-1E+10	1	-1E+10	1	-1E+10	1
4901784	26	C	03/21/2016	10:46	-132.024	44.656	0	1900.60	0	1.9890	0	34.5660	0	27.635	0	1876.699	0	54.4	4	16.4	4	-1E+10	1	-1E+10	1	-1E+10	1	-1E+10	1	-1E+10	1	-1E+10	1
4901784	26	C	03/21/2016	10:46	-132.024	44.656	0	1904.90	0	1.9880	0	34.5670	0	27.636	0	1880.926	0	54.5	4	16.4	4	-1E+10	1	-1E+10	1	-1E+10	1	-1E+10	1	-1E+10	1	-1E+10	1
4901784	26	C	03/21/2016	10:46	-132.024	44.656	0	1909.30	0	1.9860	0	34.5670	0	27.636	0	1885.251	0	54.7	4	16.5	4	-1E+10	1	-1E+10	1	-1E+10	1	-1E+10	1	-1E+10	1	-1E+10	1
4901784	26	C	03/21/2016	10:46	-132.024	44.656	0	1914.50	0	1.9830	0	34.5670	0	27.636	0	1890.363	0	55.0	4	16.6	4	-1E+10	1	-1E+10	1	-1E+10	1	-1E+10	1	-1E+10	1	-1E+10	1
4901784	26	C	03/21/2016	10:46	-132.024	44.656	0	1919.90	0	1.9790	0	34.5680	0	27.637	0	1895.671	0	55.4	4	16.7	4	-1E+10	1	-1E+10	1	-1E+10	1	-1E+10	1	-1E+10	1	-1E+10	1
4901784	26	C	03/21/2016	10:46	-132.024	44.656	0	1925.20	0	1.9750	0	34.5690	0	27.638	0	1900.880	0	55.8	4	16.8	4	-1E+10	1	-1E+10	1	-1E+10	1	-1E+10	1	-1E+10	1	-1E+10	1
4901784	26	C	03/21/2016	10:46	-132.024	44.656	0	1930.60	0	1.9680	0	34.5700	0	27.640	0	1906.188	0	56.2	4	16.9	4	-1E+10	1	-1E+10	1	-1E+10	1	-1E+10	1	-1E+10	1	-1E+10	1
4901784	26	C	03/21/2016	10:46	-132.024	44.656	0	1935.00	0	1.9660	0	34.5710	0	27.641	0	1910.512	0	56.4	4	17.0	4	-1E+10	1	-1E+10	1	-1E+10	1	-1E+10	1	-1E+10	1	-1E+10	1
4901784	26	C	03/21/2016	10:46	-132.024	44.656	0	1939.50	0	1.9630	0	34.5710	0	27.641	0	1914.935	0	56.6	4	17.1	4	-1E+10	1	-1E+10	1	-1E+10	1	-1E+10	1	-1E+10	1	-1E+10	1
4901784	26	C	03/21/2016	10:46	-132.024	44.656	0	1944.80	0	1.9590	0	34.5720	0	27.642	0	1920.144	0	56.9	4	17.1	4	-1E+10	1	-1E+10	1	-1E+10	1	-1E+10	1	-1E+10	1	-1E+10	1
4901784	26	C	03/21/2016	10:46	-132.024	44.656	0	1950.20	0	1.9580	0	34.5720	0	27.642	0	1925.451	0	57.1	4	17.2	4	-1E+10	1	-1E+10	1	-1E+10	1	-1E+10	1	-1E+10	1	-1E+10	1
4901784	26	C	03/21/2016	10:46	-132.024	44.656	0	1955.50	0	1.9540	0	34.5720	0	27.643	0	1930.660	0	57.4	4	17.3	4	-1E+10	1	-1E+10	1	-1E+10	1	-1E+10	1	-1E+10	1	-1E+10	1
4901784	26	C	03/21/2016	10:46	-132.024	44.656	0	1960.00	0	1.9520	0	34.5730	0	27.644	0	1935.082	0	57.6	4	17.4	4	-1E+10	1	-1E+10	1	-1E+10	1	-1E+10	1	-1E+10	1	-1E+10	1
4901784	26	C	03/21/2016	10:46	-132.024	44.656	0	1964.50	0	1.9490	0	34.5740	0	27.645	0	1939.505	0	57.9	4	17.4	4	-1E+10	1	-1E+10	1	-1E+10	1	-1E+10	1	-1E+10	1	-1E+10	1
4901784	26	C	03/21/2016	10:46	-132.024	44.656	0	1969.80	0	1.9460	0	34.5740	0	27.645	0	1944.713	0	58.1	4	17.5	4	-1E+10	1	-1E+10	1	-1E+10	1	-1E+10	1	-1E+10	1	-1E+10	1
4901784	26	C	03/21/2016	10:46	-132.024	44.656	0	1975.20	0	1.9440	0	34.5750	0	27.646	0	1950.020	0	58.4	4	17.6	4	-1E+10	1	-1E+10	1	-1E+10	1	-1E+10	1	-1E+10	1	-1E+10	1
4901784	26	C	03/21/2016	10:46	-132.024	44.656	0	1980.60	0	1.9420	0	34.5750	0	27.646	0	1955.326	0	58.6	4	17.6	4	-1E+10	1	-1E+10	1	-1E+10	1	-1E+10	1	-1E+10	1	-1E+10	1
4901784	26	C	03/21/2016	10:46	-132.024	44.656	0	1985.10	0	1.9400	0	34.5760	0	27.647	0	1959.748	0	58.8	4	17.7	4	-1E+10	1	-1E+10	1	-1E+10	1	-1E+10	1	-1E+10	1	-1E+10	1
4901784	26	C	03/21/2016	10:46	-132.024	44.656	0	1989.70	0	1.9390	0	34.5760	0	27.647	0	1964.268	0	58.9	4	17.7	4	-1E+10	1	-1E+10	1	-1E+10	1	-1E+10	1	-1E+10	1	-1E+10	1
4901784	26	C	03/21/2016	10:46	-132.024	44.656	0	1995.10	0	1.9360	0	34.5770	0	27.648	0	1969.574	0	59.3	4	17.8	4	-1E+10	1	-1E+10	1	-1E+10	1	-1E+10	1	-1E+10	1	-1E+10	1
4901784	26	C	03/21/2016	10:46	-132.024	44.656	0	2000.20	0	1.9340	0	34.5770	0	27.648	0	1974.585	0	59.5	4	17.9	4	-1E+10	1	-1E+10	1	-1E+10	1	-1E+10	1	-1E+10	1	-1E+10	1
4901784	26	C	03/21/2016	10:46	-132.024	44.656	0	2005.10	0	1.9310	0	34.5780	0	27.650	0	1979.400	0	59.8	4	18.0	4	-1E+10	1	-1E+10	1	-1E+10	1	-1E+10	1	-1E+10	1	-1E+10	1
4901784	26	C	03/21/2016	10:46	-132.024	44.656	0	2010.80	0	1.9250	0	34.5790	0	27.651	0	1985.000	0	60.1	4	18.1	4	-1E+10	1	-1E+10	1	-1E+10	1	-1E+10	1	-1E+10	1	-1E+10	1
4901784	26	C	03/21/2016	10:46	-132.024	44.656	0	2015.60	0	1.9210	0	34.5790	0	27.651	0	1989.716	0	60.4	4	18.2	4	-1E+10	1	-1E+10	1	-1E+10	1	-1E+10	1	-1E+10	1	-1E+10	1
4901784	26	C	03/21/2016	10:46	-132.024	44.656	0	2020.50	0	1.9190	0	34.5800	0	27.652	0	1994.530	0	60.5	4	18.2	4	-1E+10	1	-1E+10	1	-1E+10	1	-1E+10	1	-1E+10	1	-1E+10	1
4901784	26	C	03/21/2016	10:46	-132.024	44.656	0																										
4901784	27	C	03/31/2016	10:45	-132.078	44.660	0	2.00	0	10.4540	0	32.7490	0	25.118	0	1.984	0	271.2	4	98.1	4	-1E+10	1	-1E+10	1	-1E+10	1	-1E+10	1	-1E+10	1	-1E+10	1
4901784	27	C	03/31/2016	10:45	-132.078	44.660	0	3.60	0	10.4480	0	32.7490	0	25.120	0	3.571	0	271.4	4	98.2	4	-1E+10	1	-1E+10	1	-1E+10	1	-1E+10	1	-1E+10	1	-1E+10	1
4901784	27	C	03/31/2016	10:45	-132.078	44.660	0	5.20	0	10.4450	0	32.7490	0	25.120	0	5.158	0	271.2	4	98.1	4	-1E+10	1	-1E+10	1	-1E+10	1	-1E+10	1	-1E+10	1	-1E+10	1
4901784	27	C	03/31/2016	10:45	-132.078	44.660	0	6.70	0	10.4420	0	32.7490	0	25.121	0	6.646	0	271.3	4	98.1	4	-1E+10	1	-1E+10	1	-1E+10	1	-1E+10	1	-1E+10	1	-1E+10	1
4901784	27	C	03/31/2016	10:45	-132.078	44.660	0	8.30	0	10.4160	0	32.7520	0	25.127	0	8.233	0	271.5	4	98.2	4	-1E+10	1	-1E+10	1	-1E+10	1	-1E+10	1	-1E+10	1	-1E+10	1
4901784	27	C	03/31/2016	10:45	-132.078	44.660	0	9.90	0	10.4100	0	32.7510	0	25.128	0	9.820	0	271.4	4	98.1	4	-1E+10	1	-1E+10	1	-1E+10	1	-1E+10	1	-1E+10	1	-1E+10	1
4901784	27	C	03/31/2016	10:45	-132.078	44.660	0	11.50	0	10.3910	0	32.7520	0	25.132	0	11.407	0	271.3	4	98.0	4	-1E+10	1	-1E+10	1	-1E+10	1	-1E+10	1	-1E+10	1	-1E+10	1
4901784	27	C	03/31/2016	10:45	-132.078	44.660	0	13.10	0	10.3710	0	32.7500	0	25.134	0	12.994	0	271.2	4	98.0	4	-1E+10	1	-1E+10	1	-1E+10	1	-1E+10	1	-1E+10	1	-1E+10	1
4901784	27	C	03/31/2016	10:45	-132.078	44.660	0	14.80	0	10.3270	0	32.7520	0	25.143	0	14.680	0	271.3	4	97.9	4	-1E+10	1	-1E+10	1	-1E+10	1	-1E+10	1	-1E+10	1	-1E+10	1
4901784	27	C	03/31/2016	10:45	-132.078	44.660	0	16.60	0	10.2650	0	32.7610	0	25.160	0	16.465	0	271.6	4	97.9	4	-1E+10	1	-1E+10	1	-1E+10	1	-1E+10	1	-1E+10	1	-1E+10	1
4901784	27	C	03/31/2016	10:45	-132.078	44.660	0	18.30	0	10.2500	0	32.7630	0	25.164	0	18.151	0	271.6	4	97.8	4	-1E+10	1	-1E+10	1	-1E+10	1	-1E+10	1	-1E+10	1	-1E+10	1
4901784	27	C	03/31/2016	10:45	-132.078	44.660	0	20.10	0	10.2390	0	32.7620	0	25.166	0	19.936	0	271.6	4	97.8	4	-1E+10	1	-1E+10	1	-1E+10	1	-1E+10	1	-1E+10	1	-1E+10	1
4901784	27	C	03/31/2016	10:45	-132.078	44.660	0	21.80	0	10.2320	0	32.7630	0	25.167	0	21.623	0	271.9	4	97.9	4	-1E+10	1	-1E+10	1	-1E+10	1	-1E+10	1	-1E+10	1	-1E+10	1
4901784	27	C	03/31/2016	10:45	-132.078	44.660	0	23.60	0	10.2240	0	32.7630	0	25.169	0	23.408	0	271.6	4	97.8	4	-1E+10	1	-1E+10	1	-1E+10	1	-1E+10	1	-1E+10	1	-1E+10	1
4901784	27	C	03/31/2016	10:45	-132.078	44.660	0	25.40	0	10.2230	0	32.7630	0	25.169	0	25.193	0	271.5	4	97.7	4	-1E+10	1	-1E+10	1	-1E+10	1	-1E+10	1	-1E+10	1	-1E+10	1
4901784	27	C	03/31/2016	10:45	-132.078	44.660	0	27.10	0	10.2140	0	32.7630	0	25.171	0	26.879	0	271.5	4	97.7	4	-1E+10	1	-1E+10	1	-1E+10	1	-1E+10	1	-1E+10	1	-1E+10	1
4901784	27	C	03/31/2016	10:45	-132.078	44.660	0	28.90	0	10.2080	0	32.7630	0	25.172	0	28.664	0	271.3	4	97.6	4	-1E+10	1	-1E+10	1	-1E+10	1	-1E+10	1	-1E+10	1	-1E+10	1
4901784	27	C	03/31/2016	10:45	-132.078	44.660	0	30.70	0	10.2020	0	32.7630	0	25.173	0	30.449	0	271.3	4	97.7	4	-1E+10	1	-1E+10	1	-1E+10	1	-1E+10	1	-1E+10	1	-1E+10	1
4901784	27	C	03/31/2016	10:45	-132.078	44.660	0	32.50	0	10.1930	0	32.7630	0	25.174	0	32.235	0	271.1	4	97.6	4	-1E+10	1	-1E+10	1	-1E+10	1	-1E+10	1	-1E+10	1	-1E+10	1
4901784	27	C	03/31/2016	10:45	-132.078	44.660	0	34.30	0	10.1740	0	32.7640	0	25.178	0	34.020	0	271.0	4	97.5	4	-1E+10	1	-1E+10	1	-1E+10	1	-1E+10	1	-1E+10	1	-1E+10	1
4901784	27	C	03/31/2016	10:45	-132.078	44.660	0	36.10	0	10.1510	0	32.7660	0	25.184	0	35.805	0	271.1	4	97.5	4	-1E+10	1	-1E+10	1	-1E+10	1	-1E+10	1	-1E+10	1	-1E+10	1
4901784	27	C	03/31/2016	10:45	-132.078	44.660	0	37.90	0	10.1400	0	32.7660	0	25.186	0	37.590	0	271.0	4	97.4	4	-1E+10	1	-1E+10	1	-1E+10	1	-1E+10	1	-1E+10	1	-1E+10	1
4901784	27	C	03/31/2016	10:45	-132.078	44.660	0	39.70	0	10.1390	0	32.7660	0	25.186	0	39.375	0	271.1	4	97.4	4	-1E+10	1	-1E+10	1	-1E+10	1	-1E+10	1	-1E+10	1	-1E+10	1
4901784	27	C	03/31/2016	10:45	-132.078	44.660	0	41.40	0	10.1350	0	32.7660	0	25.187	0	41.061	0	270.9	4	97.4	4	-1E+10	1	-1E+10	1	-1E+10	1	-1E+10	1	-1E+10	1	-1E+10	1
4901784	27	C	03/31/2016	10:45	-132.078	44.660	0	43.20	0	10.1310	0	32.7660	0	25.187	0	42.846	0	270.9	4	97.3	4	-1E+10	1	-1E+10	1	-1E+10	1	-1E+10	1	-1E+10	1	-1E+10	1
4901784	27	C	03/31/2016	10:45	-132.078	44.660	0	45.00	0	10.1290	0	32.7660	0	25.188	0	44.631	0	270.6	4	97.3	4	-1E+10	1	-1E+10	1	-1E+10	1	-1E+10	1	-1E+10	1	-1E+10	1
4901784	27	C	03/31/2016	10:45	-132.078	44.660	0	46.80	0	10.1280	0	32.7660	0	25.188	0	46.416	0	270.6	4	97.2	4	-1E+10	1	-1E+10	1	-1E+10	1	-1E+10	1	-1E+10	1	-1E+10	1
4901784	27	C	03/31/2016	10:45	-132.078	44.660	0	48.60	0	10.1230	0	32.7650	0	25.188	0	48.201	0	270.7	4	97.3	4	-1E+10	1	-1E+10	1	-1E+10	1	-1E+10	1	-1E+10	1	-1E+10	1
4901784	27	C	03/31/2016	10:45	-132.078	44.660	0	50.30	0	10.1170	0	32.7650	0	25.189	0	49.887	0	270.6	4	97.2	4	-1E+10	1	-1E+10	1	-1E+10	1	-1E+10	1	-1E+10	1	-1E+10	1
4901784	27	C	03/31/2016	10:45	-132.078	44.660	0	52.10	0	10.1150	0	32.7650	0	25.189	0	51.672	0	270.4	4	97.1	4	-1E+10	1	-1E+10	1	-1E+10	1	-1E+10	1	-1E+10	1	-1E+10	1
4901784	27	C	03/31/2016	10:45	-132.078	44.660	0	53.90	0	10.1140	0	32.7640	0	25.189	0	53.457	0	270.3	4	97.1	4	-1E+10	1	-1E+10	1	-1E+10	1	-1E+10	1	-1E+10	1	-1E+10	1
4901784	27	C	03/31/2016	10:45	-132.078	44.660	0	55.70	0	10.1120	0	32.7650	0	25.190	0	55.242	0	270.0	4	97.0	4	-1E+10	1	-1E+10	1	-1E+10	1	-1E+10	1	-1E+10	1	-1E+10	1
4901784	27	C	03/31/2016	10:45	-132.078	44.660	0	57.40	0	10.1120	0	32.7650	0	25.190	0	56.928	0	269.8	4	96.9	4	-1E+10	1	-1E+10	1	-1E+10	1	-1E+10	1	-1E+10	1	-1E+10	1
4901784	27	C	03/31/2016	10:45	-132.078	44.660	0	59.20	0	10.1110	0	32.7640	0	25.189	0	58.713	0	269.7	4	96.9	4	-1E+10	1	-1E+10	1	-1E+10	1	-1E+10	1	-1E+10	1	-1E+10	1
4901784	27	C	03/31/2016	10:45	-132.078	44.660	0	61.00	0	10.1070	0	32.7640	0	25.190	0	60.498	0	269.6	4	96.8	4	-1E+10	1	-1E+10	1	-1E+10	1	-1E+10	1	-1E+10	1	-1E+10	1
4901784	27	C	03/31/2016	10:45	-132.078	44.660	0	62.80	0	10.1060	0	32.7630	0	25.189	0	62.283	0	269.3	4	96.7	4	-1E+10	1	-1E+10	1	-1E+10	1	-1E+10	1	-1E+10	1	-1E+10	1
4901784	27	C	03/31/2016	10:45	-132.078	44.660	0	64.60	0	10.0980	0	32.7630	0	25.191	0	64.068	0	268.9	4	96.6	4	-1E+10	1	-1E+10	1	-1E+10	1	-1E+10	1	-1E+10	1	-1E+10	1
4901784	27	C	03/31/2016	10:45	-132.078	44.660	0	66.30	0	10.0900	0	32.7630	0	25.192	0	65.753	0	268.4	4	96.4	4	-1E+10	1	-1E+10	1	-1E+10	1	-1E+10	1	-1E+10	1	-1E+10	1
4901784	27	C	03/31/2016	10:45	-132.078	44.660	0	68.20	0	10.0860	0	32.7620	0	25.192	0	67.637	0	267.8	4	96.2	4	-1E+10	1	-1E+10	1	-1E+10	1	-1E+10	1	-1E+10	1	-1E+10	1
4901784	27	C	03/31/2016	10:45	-132.078	44.660	0	70.00	0	10.0820	0	32.7610	0	25.192	0	69.422	0	267.1	4	95.9	4	-1E+10	1	-1E+10	1	-1E+10	1	-1E+10	1	-1E+10	1	-1E+10	1
4901784	27	C	03/31/2016	10:45	-132.078	44.660	0	71.90	0	10.0730	0	32.7590	0	25.192	0	71.306	0	265.9	4	95.4	4	-1E+10	1	-1E+10	1	-1E+10	1	-1E+10	1	-1E+10	1	-1E+10	1
4901784	27	C	03/31/2016	10:45	-132.078	44.660	0	73.70	0	10.0440	0	32.7580	0	25.196	0	73.091	0	264.3	4	94.8	4	-1E+10	1	-1E+10	1	-1E+10	1	-1E+10	1	-1E+10	1	-1E+10	1
4901784	27	C	03/31/2016	10:45	-132.078	44.660	0	75.60	0	9.9360	0	32.7590	0	25.215	0	74.975	0	263.2	4	94.2	4	-1E+10	1	-1E+10	1	-1E+10	1	-1E+10	1	-1E+10	1	-1E+10	1
4901784	27	C	03/31/2016	10:45	-132.078	44.660	0	77.50	0	9.8450	0	32.7600	0	25.231	0	76.859	0	263.2	4	94.0	4	-1E+10	1	-1E+10	1	-1E+10	1	-1E+10	1	-1E+10	1	-1E+10	1
4901784	27	C	03/31/2016	10:45	-132.078	44.660	0	79.30	0	9.7950	0	32.7600	0	25.239	0	78.644	0	263.2	4	93.9	4	-1E+10	1	-1E+10	1	-1E+10	1	-1E+10	1	-1E+10	1	-1E+10	1
4901784	27	C	03/31/2016	10:45	-132.078	44.660	0	81.20	0	9.7210	0	32.7550	0	25.247	0	80.528	0	263.7	4	93.9	4	-1E+10	1	-1E+10	1	-1E+10	1	-1E+10	1	-1E+10	1	-1E+10	1
4901784	27	C	03/31/2016	10:45	-132.078	44.660	0	83.00	0	9.6850	0	32.7530	0	25.252	0	82.312	0	264.1	4	94.0	4	-1E+10	1	-1E+10	1	-1E+10	1	-1E+10	1	-1E+10	1	-1E+10	1
4901784	27	C	03/31/2016	10:45	-132.078	44.660	0	85.00	0	9.6490	0	32.7470	0	25.253	0	84.295	0	264.1	4	93.9	4	-1E+10	1	-1E+10	1	-1E+10	1	-1E+10	1	-1E+10	1	-1E+10	1
4901784	27	C	03/31/2016	10:45	-132.078	44.660	0	86.90	0	9.6020	0	32.7460	0	25.260	0	86.179	0	264.6	4	94.0	4	-1E+10	1	-1E+10	1	-1E+10	1	-1E+10	1	-1E+10	1	-1E+10	1
4901784	27	C	03/31/2016	10:45	-132.078	44.660	0	88.80	0	9.5600	0	32.7400	0	25.262	0	88.063	0	264.8	4	94.0	4	-1E+10	1	-1E+10	1	-1E+10	1	-1E+10	1	-1E+10	1	-1E+10	1
4901784	27	C	03/31/2016	10:45	-132.078	44.660	0	90.70	0	9.5490	0	32.7400	0	25.264	0	89.947	0	264.6	4	93.9	4	-1E+10	1	-1E+10	1	-1E+10	1	-1E+10	1	-1E+10	1	-1E+10	1
4901784	27	C	03/31/2016	10:45	-132.078	44.660	0	92.60	0	9.5440	0	32.7410	0	25.265	0	91.831	0	264.3	4	93.8	4	-1E+10	1	-1E+10	1	-1E+10	1	-1E+10	1	-1E+10	1	-1E+10	1
4901784	27	C	03/31/2016	10:45	-132.078	44.660	0	94.50	0	9.5440	0	32.7410	0	25.265	0	93.714	0	263.9	4	93.6	4	-1E+10	1	-1E+10	1	-1E+10	1	-1E+10	1	-1E+10	1	-1E+10	1
4901784	27	C	03/31/2016	10:45	-132.078	44.660	0	96.40	0	9.5370	0	32.7420	0	25.267	0	95.598	0	263.6	4	93.5	4	-1E+10	1	-1E+10	1	-1E+10	1	-1E+10	1	-1E+10	1	-1E+10	1
4901784	27	C	03/31/2016	10:45	-132.078	44.660	0	98.80	0	9.5110	0	32.7440	0	25.273	0	97.978	0	262.9	4	93.2	4	-1E+10	1	-1E+10	1	-1E+10	1	-1E+10	1	-1E+10	1	-1E+10	1
4901784	27	C	03/31/2016	10:45	-132.078	44.660	0	102.30	0	9.4830	0	32.7450	0	25.278	0	101.448	0	260.4	4	92.3	4	-1E+10	1	-1E+10	1	-1E+10	1	-1E+10	1	-1E+10	1	-1E+10	1
4901784	27	C	03/31/2016	10:45	-132.078	44.660	0	104.70	0	9.4610	0	32.7500	0	25.286	0	103.827	0	257.1	4	91.1	4	-1E+10	1	-1E+10	1	-1E+10	1	-1E+10	1	-1E+10	1	-1E+10	1
4901784	27	C	03/31/2016	10:45	-132.078	44.660	0	107.80	0	9.4900	0	32.7720	0	25.298	0	106.900	0	249.8	4	88.5	4	-1E+10	1	-1E+10	1	-1E+10	1	-1E+10	1	-1E+10	1	-1E+10	1
4901784	27	C	03/31/2016	10:45	-132.078	44.660	0	110.10	0	9.6330	0	32.8360	0	25.325	0	109.181	0	241.6	4	85.9	4	-1E+10	1	-1E+10	1	-1E+10	1	-1E+10	1	-1E+10	1	-1E+10	1
4901784	27	C	03/31/2016	10:45	-132.078	44.660	0	112.70	0	9.7260	0	32.9140	0	25.371	0	111.758	0	234.0	4	83.4	4	-1E+10	1	-1E+10	1	-1E+10	1	-1E+10	1	-1E+10	1	-1E+10	1
4901784	27	C	03/31/2016	10:45	-132.078	44.660	0	115.20	0	9.6830	0	32.9770	0	25.427	0	114.237	0	229.0	4	81.6	4	-1E+10	1	-1E+10	1	-1E+10	1	-1E+10	1	-1E+10	1	-1E+10	1
4901784	27	C	03/31/2016	10:45	-132.078	44.660	0	117.00	0	9.5900	0	33.0380	0	25.490	0	116.021	0	225.7	4	80.3	4	-1E+10	1	-1E+10	1	-1E+10	1	-1E+10	1	-1E+10	1	-1E+10	1
4901784	27	C	03/31/2016	10:45	-132.078	44.660	0	119.70	0	9.5540	0	33.0770	0	25.527	0	118.698	0	223.3	4	79.4	4	-1E+10	1	-1E+10	1	-1E+10	1	-1E+10	1	-1E+10	1	-1E+10	1
4901784	27	C	03/31/2016	10:45	-132.078	44.660	0	122.90	0	9.3900	0	33.1280	0	25.593	0	121.870	0	221.2	4	78.4	4	-1E+10	1	-1E+10	1	-1E+10	1	-1E+10	1	-1E+10	1	-1E+10	1
4901784	27	C	03/31/2016	10:45	-132.078	44.660	0	124.90	0	9.2220	0	33.1670	0	25.650	0	123.853	0	219.6	4	77.6	4	-1E+10	1	-1E+10	1	-1E+10	1	-1E+10	1	-1E+10	1	-1E+10	1
4901784	27	C	03/31/2016	10:45	-132.078	44.660	0	127.10	0	9.1290	0	33.2140	0	25.702	0	126.033	0	217.5	4	76.7	4	-1E+10	1	-1E+10	1	-1E+10	1	-1E+10	1	-1E+10	1	-1E+10	1
4901784	27	C	03/31/2016	10:45	-132.078	44.660	0	130.10	0	9.0510	0	33.2350	0	25.731	0	129.007	0	214.6	4	75.6	4	-1E+10	1	-1E+10	1	-1E+10	1	-1E+10	1	-1E+10	1	-1E+10	1
4901784	27	C	03/31/2016	10:45	-132.078	44.660	0	132.40	0	9.0090	0	33.2470	0	25.747	0	131.287	0	210.9	4	74.2	4	-1E+10	1	-1E+10	1	-1E+10	1	-1E+10	1	-1E+10	1	-1E+10	1
4901784	27	C	03/31/2016	10:45	-132.078	44.660	0	134.80	0	8.8230	0	33.3600	0	25.864	0	133.666	0	207.5	4	72.8	4	-1E+10	1	-1E+10	1	-1E+10	1	-1E+10	1	-1E+10	1	-1E+10	1
4901784	27	C	03/31/2016	10:45	-132.078	44.660	0	137.90	0	8.7310	0	33.4150	0	25.922	0	136.739	0	204.4	4	71.6	4	-1E+10	1	-1E+10	1	-1E+10	1	-1E+10	1	-1E+10	1	-1E+10	1
4901784	27	C	03/31/2016	10:45	-132.078	44.660	0	140.30	0	8.6100	0	33.4860	0	25.996	0	139.118	0	202.3	4	70.7	4	-1E+10	1	-1E+10	1	-1E+10	1	-1E+10	1	-1E+10	1	-1E+10	1
4901784	27	C	03/31/2016	10:45	-132.078	44.660	0	142.80	0	8.5820	0	33.5040	0	26.014	0	141.596	0	201.3	4	70.3	4	-1E+10	1	-1E+10	1	-1E+10	1	-1E+10	1	-1E+10	1	-1E+10	1
4901784	27	C	03/31/2016	10:45	-132.078	44.660	0	145.30	0	8.5760	0	33.5070	0	26.018	0	144.074	0	199.7	4	69.8	4	-1E+10	1	-1E+10	1	-1E+10	1	-1E+10	1	-1E+10	1	-1E+10	1
4901784	27	C	03/31/2016	10:45	-132.078	44.660	0	147.80	0	8.5510	0	33.5220	0	26.033	0	146.552	0	197.4	4	68.9	4	-1E+10	1	-1E+10	1	-1E+10	1	-1E+10	1	-1E+10	1	-1E+10	1
4901784	27	C	03/31/2016	10:45	-132.078	44.660	0	150.30	0	8.4460	0	33.5970	0	26.108	0	149.030	0	195.3	4	68.0	4	-1E+10	1	-1E+10	1	-1E+10	1	-1E+10	1	-1E+10	1	-1E+10	1
4901784	27	C	03/31/2016	10:45	-132.078	44.660	0	152.10	0	8.4110	0	33.6210	0	26.132	0	150.815	0	194.8	4	67.9	4	-1E+10	1	-1E+10	1	-1E+10	1	-1E+10	1	-1E+10	1	-1E+10	1
4901784	27	C	03/31/2016	10:45	-132.078	44.660	0	154.70	0	8.3880	0	33.6490	0	26.158	0	153.392	0	194.5	4	67.7	4	-1E+10	1	-1E+10	1	-1E+10	1	-1E+10	1	-1E+10	1	-1E+10	1
4901784	27	C	03/31/2016	10:45	-132.078	44.660	0	157.20	0	8.3680	0	33.6690	0	26.176	0	155.869	0	194.1	4	67.6	4	-1E+10	1	-1E+10	1	-1E+10	1	-1E+10	1	-1E+10	1	-1E+10	1
4901784	27	C	03/31/2016	10:45	-132.078	44.660	0	159.80	0	8.3200	0	33.7110	0	26.217	0	158.446	0	193.7	4	67.4	4	-1E+10	1	-1E+10	1	-1E+10	1	-1E+10	1	-1E+10	1	-1E+10	1
4901784	27	C	03/31/2016	10:45	-132.078	44.660	0	162.50	0	8.2990	0	33.7260	0	26.232	0	161.123	0	193.1	4	67.1	4	-1E+10	1	-1E+10	1	-1E+10	1	-1E+10	1	-1E+10	1	-1E+10	1
4901784	27	C	03/31/2016	10:45	-132.078	44.660	0	165.00	0	8.2830	0	33.7420	0	26.247	0	163.600	0	192.2	4	66.8	4	-1E+10	1	-1E+10	1	-1E+10	1	-1E+10	1	-1E+10	1	-1E+10	1
4901784	27	C	03/31/2016	10:45	-132.078	44.660	0	167.60	0	8.2440	0	33.7650	0	26.270	0	166.177	0	191.0	4	66.4	4	-1E+10	1	-1E+10	1	-1E+10	1	-1E+10	1	-1E+10	1	-1E+10	1
4901784	27	C	03/31/2016	10:45	-132.078	44.660	0	170.20	0	8.1930	0	33.7780	0	26.288	0	168.754	0	189.7	4	65.8	4	-1E+10	1	-1E+10	1	-1E+10	1	-1E+10	1	-1E+10	1	-1E+10	1
4901784	27	C	03/31/2016	10:45	-132.078	44.660	0	172.90	0	8.1520	0	33.7940	0	26.307	0	171.430	0	188.5	4	65.4	4	-1E+10	1	-1E+10	1	-1E+10	1	-1E+10	1	-1E+10	1	-1E+10	1
4901784	27	C	03/31/2016	10:45	-132.078	44.660	0	174.70	0	8.1490	0	33.7950	0	26.308	0	173.214	0	187.4	4	65.0	4	-1E+10	1	-1E+10	1	-1E+10	1	-1E+10	1	-1E+10	1	-1E+10	1
4901784	27	C	03/31/2016	10:45	-132.078	44.660	0	177.40	0	8.1350	0	33.7960	0	26.311	0	175.890	0	185.2	4	64.2	4	-1E+10	1	-1E+10	1	-1E+10	1	-1E+10	1	-1E+10	1	-1E+10	1
4901784	27	C	03/31/2016	10:45	-132.078	44.660	0	180.00	0	8.0690	0	33.8090	0	26.331	0	178.467	0	182.8	4	63.3	4	-1E+10	1	-1E+10	1	-1E+10	1	-1E+10	1	-1E+10	1	-1E+10	1
4901784	27	C	03/31/2016	10:45	-132.078	44.660	0	182.70	0	8.0100	0	33.8180	0	26.347	0	181.142	0	180.9	4	62.5	4	-1E+10	1	-1E+10	1	-1E+10	1	-1E+10	1	-1E+10	1	-1E+10	1
4901784	27	C	03/31/2016	10:45	-132.078	44.660	0	185.30	0	7.9730	0	33.8240	0	26.357	0	183.719	0	179.4	4	62.0	4	-1E+10	1	-1E+10	1	-1E+10	1	-1E+10	1	-1E+10	1	-1E+10	1
4901784	27	C	03/31/2016	10:45	-132.078	44.660	0	187.20	0	7.9640	0	33.8260	0	26.360	0	185.602	0	178.5	4	61.6	4	-1E+10	1	-1E+10	1	-1E+10	1	-1E+10	1	-1E+10	1	-1E+10	1
4901784	27	C	03/31/2016	10:45	-132.078	44.660	0	189.90	0	7.9050	0	33.8310	0	26.373	0	188.278	0	177.3	4	61.1	4	-1E+10	1	-1E+10	1	-1E+10	1	-1E+10	1	-1E+10	1	-1E+10	1
4901784	27	C	03/31/2016	10:45	-132.078	44.660	0	192.50	0	7.8780	0	33.8310	0	26.377	0	190.854	0	175.7	4	60.6	4	-1E+10	1	-1E+10	1	-1E+10	1	-1E+10	1	-1E+10	1	-1E+10	1
4901784	27	C	03/31/2016	10:45	-132.078	44.660	0	195.30	0	7.7640	0	33.8440	0	26.404	0	193.629	0	174.2	4	59.9	4	-1E+10	1	-1E+10	1	-1E+10	1	-1E+10	1	-1E+10	1	-1E+10	1
4901784	27	C	03/31/2016	10:45	-132.078	44.660	0	197.90	0	7.6960	0	33.8490	0	26.417	0	196.206	0	173.3	4	59.5	4	-1E+10	1	-1E+10	1	-1E+10	1	-1E+10	1	-1E+10	1	-1E+10	1
4901784	27	C	03/31/2016	10:45	-132.078	44.660	0	199.80	0	7.6830	0	33.8490	0	26.419	0	198.089	0	172.4	4	59.2	4	-1E+10	1	-1E+10	1	-1E+10	1	-1E+10	1	-1E+10	1	-1E+10	1
4901784	27	C	03/31/2016	10:45	-132.078	44.660	0	202.40	0	7.6320	0	33.8530	0	26.430	0	200.665	0	171.2	4	58.7	4	-1E+10	1	-1E+10	1	-1E+10	1	-1E+10	1	-1E+10	1	-1E+10	1
4901784	27	C	03/31/2016	10:45	-132.078	44.660	0	205.20	0	7.5520	0	33.8560	0	26.444	0	203.440	0	170.0	4	58.2	4	-1E+10	1	-1E+10	1	-1E+10	1	-1E+10	1	-1E+10	1	-1E+10	1
4901784	27	C	03/31/2016	10:45	-132.078	44.660	0	207.00	0	7.5460	0	33.8560	0	26.444	0	205.223	0	169.2	4	57.9	4	-1E+10	1	-1E+10	1	-1E+10	1	-1E+10	1	-1E+10	1	-1E+10	1
4901784	27	C	03/31/2016	10:45	-132.078	44.660	0	209.80	0	7.5270	0	33.8570	0	26.448	0	207.998	0	167.6	4	57.3	4	-1E+10	1	-1E+10	1	-1E+10	1	-1E+10	1	-1E+10	1	-1E+10	1
4901784	27	C	03/31/2016	10:45	-132.078	44.660	0	212.60	0	7.4840	0	33.8600	0	26.456	0	210.772	0	166.1	4	56.8	4	-1E+10	1	-1E+10	1	-1E+10	1	-1E+10	1	-1E+10	1	-1E+10	1
4901784	27	C	03/31/2016	10:45	-132.078	44.660	0	215.40	0	7.4340	0	33.8610	0	26.464	0	213.547	0	165.1	4	56.4	4	-1E+10	1	-1E+10	1	-1E+10	1	-1E+10	1	-1E+10	1	-1E+10	1
4901784	27	C	03/31/2016	10:45	-132.078	44.660	0	218.10	0	7.3810	0	33.8620	0	26.473	0	216.222	0	164.1	4	55.9	4	-1E+10	1	-1E+10	1	-1E+10	1	-1E+10	1	-1E+10	1	-1E+10	1
4901784	27	C	03/31/2016	10:45	-132.078	44.660	0	219.90	0	7.3540	0	33.8630	0	26.477	0	218.006	0	163.5	4	55.7	4	-1E+10	1	-1E+10	1	-1E+10	1	-1E+10	1	-1E+10	1	-1E+10	1
4901784	27	C	03/31/2016	10:45	-132.078	44.660	0	222.70	0	7.3390	0	33.8630	0	26.479	0	220.780	0	162.4	4	55.3	4	-1E+10	1	-1E+10	1	-1E+10	1	-1E+10	1	-1E+10	1	-1E+10	1
4901784	27	C	03/31/2016	10:45	-132.078	44.660	0	225.40	0	7.2830	0	33.8660	0	26.490	0	223.455	0	161.0	4	54.8	4	-1E+10	1	-1E+10	1	-1E+10	1	-1E+10	1	-1E+10	1	-1E+10	1
4901784	27	C	03/31/2016	10:45	-132.078	44.660	0	227.40	0	7.2540	0	33.8650	0	26.493	0	225.437	0	160.6	4	54.6	4	-1E+10	1	-1E+10	1	-1E+10	1	-1E+10	1	-1E+10	1	-1E+10	1
4901784	27	C	03/31/2016	10:45	-132.078	44.660	0	230.20	0	7.2190	0	33.8650	0	26.498	0	228.211	0	159.2	4	54.1	4	-1E+10	1	-1E+10	1	-1E+10	1	-1E+10	1	-1E+10	1	-1E+10	1
4901784	27	C	03/31/2016	10:45	-132.078	44.660	0	233.40	0	7.1770	0	33.8640	0	26.503	0	231.382	0	157.6	4	53.5	4	-1E+10	1	-1E+10	1	-1E+10	1	-1E+10	1	-1E+10	1	-1E+10	1
4901784	27	C	03/31/2016	10:45	-132.078	44.660	0	234.70	0	7.1530	0	33.8640	0	26.506	0	232.670	0	156.3	4	53.0	4	-1E+10	1	-1E+10	1	-1E+10	1	-1E+10	1	-1E+10	1	-1E+10	1
4901784	27	C	03/31/2016	10:45	-132.078	44.660	0	237.20	0	7.0580	0	33.8650	0	26.520	0	235.147	0	154.5	4	52.3	4	-1E+10	1	-1E+10	1	-1E+10	1	-1E+10	1	-1E+10	1	-1E+10	1
4901784	27	C	03/31/2016	10:45	-132.078	44.660	0	239.60	0	7.0170	0	33.8640	0	26.525	0	237.525	0	152.5	4	51.6	4	-1E+10	1	-1E+10	1	-1E+10	1	-1E+10	1	-1E+10	1	-1E+10	1
4901784	27	C	03/31/2016	10:45	-132.078	44.660	0	242.10	0	6.9520	0	33.8680	0	26.537	0	240.002	0	150.5	4	50.8	4	-1E+10	1	-1E+10	1	-1E+10	1	-1E+10	1	-1E+10	1	-1E+10	1
4901784	27	C	03/31/2016	10:45	-132.078	44.660	0	244.60	0	6.8890	0	33.8680	0	26.545	0	242.478	0	148.8	4	50.2	4	-1E+10	1	-1E+10	1	-1E+10	1	-1E+10	1	-1E+10	1	-1E+10	1
4901784	27	C	03/31/2016	10:45	-132.078	44.660	0	247.10	0	6.8530	0	33.8680	0	26.550	0	244.955	0	147.1	4	49.6	4	-1E+10	1	-1E+10	1	-1E+10	1	-1E+10	1	-1E+10	1	-1E+10	1
4901784	27	C	03/31/2016	10:45	-132.078	44.660	0	249.60	0	6.8300	0	33.8680	0	26.553	0	247.432	0	145.1	4	48.8	4	-1E+10	1	-1E+10	1	-1E+10	1	-1E+10	1	-1E+10	1	-1E+10	1
4901784	27	C	03/31/2016	10:45	-132.078	44.660	0	252.80	0	6.7220	0	33.8700	0	26.569	0	250.602	0	143.0	4	48.0	4	-1E+10	1	-1E+10	1	-1E+10	1	-1E+10	1	-1E+10	1	-1E+10	1
4901784	27	C	03/31/2016	10:45	-132.078	44.660	0	255.30	0	6.6660	0	33.8710	0	26.578	0	253.079	0	141.7	4	47.5	4	-1E+10	1	-1E+10	1	-1E+10	1	-1E+10	1	-1E+10	1	-1E+10	1
4901784	27	C	03/31/2016	10:45	-132.078	44.660	0	257.80	0	6.6240	0	33.8700	0	26.583	0	255.556	0	140.0	4	46.9	4	-1E+10	1	-1E+10	1	-1E+10	1	-1E+10	1	-1E+10	1	-1E+10	1
4901784	27	C	03/31/2016	10:45	-132.078	44.660	0	260.30	0	6.5670	0	33.8710	0	26.591	0	258.033	0	138.2	4	46.3	4	-1E+10	1	-1E+10	1	-1E+10	1	-1E+10	1	-1E+10	1	-1E+10	1
4901784	27	C	03/31/2016	10:45	-132.078	44.660	0	262.80	0	6.5200	0	33.8700	0	26.596	0	260.509	0	136.5	4	45.6	4	-1E+10	1	-1E+10	1	-1E+10	1	-1E+10	1	-1E+10	1	-1E+10	1
4901784	27	C	03/31/2016	10:45	-132.078	44.660	0	265.30	0	6.4550	0	33.8700	0	26.605	0	262.986	0	135.0	4	45.0	4	-1E+10	1	-1E+10	1	-1E+10	1	-1E+10	1	-1E+10	1	-1E+10	1
4901784	27	C	03/31/2016	10:45	-132.078	44.660	0	267.90	0	6.3640	0	33.8740	0	26.620	0	265.561	0	134.1	4	44.7	4	-1E+10	1	-1E+10	1	-1E+10	1	-1E+10	1	-1E+10	1	-1E+10	1
4901784	27	C	03/31/2016	10:45	-132.078	44.660	0	270.40	0	6.3370	0	33.8730	0	26.622	0	268.038	0	133.7	4	44.5	4	-1E+10	1	-1E+10	1	-1E+10	1	-1E+10	1	-1E+10	1	-1E+10	1
4901784	27	C	03/31/2016	10:45	-132.078	44.660	0	272.10	0	6.3310	0	33.8730	0	26.623	0	269.722	0	133.3	4	44.4	4	-1E+10	1	-1E+10	1	-1E+10	1	-1E+10	1	-1E+10	1	-1E+10	1
4901784	27	C	03/31/2016	10:45	-132.078	44.660	0	274.60	0	6.3240	0	33.8730	0	26.624	0	272.199	0	132.4	4	44.1	4	-1E+10	1	-1E+10	1	-1E+10	1	-1E+10	1	-1E+10	1	-1E+10	1
4901784	27	C	03/31/2016	10:45	-132.078	44.660	0	277.20	0	6.3160	0	33.8720	0	26.624	0	274.774	0	131.5	4	43.7	4	-1E+10	1	-1E+10	1	-1E+10	1	-1E+10	1	-1E+10	1	-1E+10	1
4901784	27	C	03/31/2016	10:45	-132.078	44.660	0	279.80	0	6.3120	0	33.8710	0	26.624	0	277.350	0	129.8	4	43.2	4	-1E+10	1	-1E+10	1	-1E+10	1	-1E+10	1	-1E+10	1	-1E+10	1
4901784	27	C	03/31/2016	10:45	-132.078	44.660	0	282.40	0	6.2220	0	33.8720	0	26.636	0	279.925	0	128.2	4	42.6	4	-1E+10	1	-1E+10	1	-1E+10	1	-1E+10	1	-1E+10	1	-1E+10	1
4901784	27	C	03/31/2016	10:45	-132.078	44.660	0	285.10	0	6.1690	0	33.8710	0	26.642	0	282.600	0	126.7	4	42.0	4	-1E+10	1	-1E+10	1	-1E+10	1	-1E+10	1	-1E+10	1	-1E+10	1
4901784	27	C	03/31/2016	10:45	-132.078	44.660	0	287.80	0	6.1300	0	33.8700	0	26.647	0	285.274	0	125.1	4	41.4	4	-1E+10	1	-1E+10	1	-1E+10	1	-1E+10	1	-1E+10	1	-1E+10	1
4901784	27	C	03/31/2016	10:45	-132.078	44.660	0	289.60	0	6.1000	0	33.8720	0	26.652	0	287.057	0	123.8	4	41.0	4	-1E+10	1	-1E+10	1	-1E+10	1	-1E+10	1	-1E+10	1	-1E+10	1
4901784	27	C	03/31/2016	10:45	-132.078	44.660	0	292.20	0	6.0730	0	33.8700	0	26.654	0	289.632	0	121.7	4	40.3	4	-1E+10	1	-1E+10	1	-1E+10	1	-1E+10	1	-1E+10	1	-1E+10	1
4901784	27	C	03/31/2016	10:45	-132.078	44.660	0	294.90	0	6.0100	0	33.8700	0	26.662	0	292.307	0	118.9	4	39.3	4	-1E+10	1	-1E+10	1	-1E+10	1	-1E+10	1	-1E+10	1	-1E+10	1
4901784	27	C	03/31/2016	10:45	-132.078	44.660	0	297.50	0	5.9330	0	33.8760	0	26.676	0	294.882	0	117.0	4	38.6	4	-1E+10	1	-1E+10	1	-1E+10	1	-1E+10	1	-1E+10	1	-1E+10	1
4901784	27	C	03/31/2016	10:45	-132.078	44.660	0	300.10	0	5.9120	0	33.8790	0	26.681	0	297.457	0	115.3	4	38.0	4	-1E+10	1	-1E+10	1	-1E+10	1	-1E+10	1	-1E+10	1	-1E+10	1
4901784	27	C	03/31/2016	10:45	-132.078	44.660	0	302.70	0	5.8700	0	33.8780	0	26.686	0	300.032	0	113.8	4	37.5	4	-1E+10	1	-1E+10	1	-1E+10	1	-1E+10	1	-1E+10	1	-1E+10	1
4901784	27	C	03/31/2016	10:45	-132.078	44.660	0	305.40	0	5.8360	0	33.8790	0	26.691	0	302.707	0	112.5	4	37.0	4	-1E+10	1	-1E+10	1	-1E+10	1	-1E+10	1	-1E+10	1	-1E+10	1
4901784	27	C	03/31/2016	10:45	-132.078	44.660	0	307.20	0	5.8370	0	33.8800	0	26.691	0	304.490	0	112.0	4	36.9	4	-1E+10	1	-1E+10	1	-1E+10	1	-1E+10	1	-1E+10	1	-1E+10	1
4901784	27	C	03/31/2016	10:45	-132.078	44.660	0	309.90	0	5.8110	0	33.8810	0	26.695	0	307.164	0	111.2	4	36.6	4	-1E+10	1	-1E+10	1	-1E+10	1	-1E+10	1	-1E+10	1	-1E+10	1
4901784	27	C	03/31/2016	10:45	-132.078	44.660	0	312.60	0	5.8070	0	33.8810	0	26.696	0	309.838	0	110.4	4	36.3	4	-1E+10	1	-1E+10	1	-1E+10	1	-1E+10	1	-1E+10	1	-1E+10	1
4901784	27	C	03/31/2016	10:45	-132.078	44.660	0	314.40	0	5.8000	0	33.8800	0	26.696	0	311.621	0	109.6	4	36.0	4	-1E+10	1	-1E+10	1	-1E+10	1	-1E+10	1	-1E+10	1	-1E+10	1
4901784	27	C	03/31/2016	10:45	-132.078	44.660	0	317.20	0	5.7740	0	33.8810	0	26.700	0	314.394	0	107.9	4	35.4	4	-1E+10	1	-1E+10	1	-1E+10	1	-1E+10	1	-1E+10	1	-1E+10	1
4901784	27	C	03/31/2016	10:45	-132.078	44.660	0	320.00	0	5.7370	0	33.8810	0	26.704	0	317.167	0	106.1	4	34.8	4	-1E+10	1	-1E+10	1	-1E+10	1	-1E+10	1	-1E+10	1	-1E+10	1
4901784	27	C	03/31/2016	10:45	-132.078	44.660	0	322.70	0	5.6930	0	33.8830	0	26.711	0	319.841	0	104.5	4	34.3	4	-1E+10	1	-1E+10	1	-1E+10	1	-1E+10	1	-1E+10	1	-1E+10	1
4901784	27	C	03/31/2016	10:45	-132.078	44.660	0	325.50	0	5.6800	0	33.8830	0	26.713	0	322.614	0	102.8	4	33.7	4	-1E+10	1	-1E+10	1	-1E+10	1	-1E+10	1	-1E+10	1	-1E+10	1
4901784	27	C	03/31/2016	10:45	-132.078	44.660	0	327.40	0	5.6600	0	33.8850	0	26.717	0	324.495	0	101.4	4	33.2	4	-1E+10	1	-1E+10	1	-1E+10	1	-1E+10	1	-1E+10	1	-1E+10	1
4901784	27	C	03/31/2016	10:45	-132.078	44.660	0	330.20	0	5.6400	0	33.8870	0	26.721	0	327.268	0	99.6	4	32.6	4	-1E+10	1	-1E+10	1	-1E+10	1	-1E+10	1	-1E+10	1	-1E+10	1
4901784	27	C	03/31/2016	10:45	-132.078	44.660	0	333.00	0	5.6030	0	33.8880	0	26.726	0	330.041	0	98.0	4	32.1	4	-1E+10	1	-1E+10	1	-1E+10	1	-1E+10	1	-1E+10	1	-1E+10	1
4901784	27	C	03/31/2016	10:45	-132.078	44.660	0	334.90	0	5.5770	0	33.8890	0	26.730	0	331.923	0	96.8	4	31.7	4	-1E+10	1	-1E+10	1	-1E+10	1	-1E+10	1	-1E+10	1	-1E+10	1
4901784	27	C	03/31/2016	10:45	-132.078	44.660	0	337.60	0	5.5110	0	33.8930	0	26.741	0	334.597	0	95.5	4	31.2	4	-1E+10	1	-1E+10	1	-1E+10	1	-1E+10	1	-1E+10	1	-1E+10	1
4901784	27	C	03/31/2016	10:45	-132.078	44.660	0	340.40	0	5.5000	0	33.8930	0	26.743	0	337.370	0	94.4	4	30.8	4	-1E+10	1	-1E+10	1	-1E+10	1	-1E+10	1	-1E+10	1	-1E+10	1
4901784	27	C	03/31/2016	10:45	-132.078	44.660	0	342.30	0	5.4880	0	33.8940	0	26.745	0	339.251	0	93.6	4	30.5	4	-1E+10	1	-1E+10	1	-1E+10	1	-1E+10	1	-1E+10	1	-1E+10	1
4901784	27	C	03/31/2016	10:45	-132.078	44.660	0	345.10	0	5.4770	0	33.8950	0	26.747	0	342.024	0	92.2	4	30.1	4	-1E+10	1	-1E+10	1	-1E+10	1	-1E+10	1	-1E+10	1	-1E+10	1
4901784	27	C	03/31/2016	10:45	-132.078	44.660	0	347.90	0	5.4620	0	33.8950	0	26.749	0	344.797	0	90.8	4	29.6	4	-1E+10	1	-1E+10	1	-1E+10	1	-1E+10	1	-1E+10	1	-1E+10	1
4901784	27	C	03/31/2016	10:45	-132.078	44.660	0	349.90	0	5.4370	0	33.8970	0	26.753	0	346.777	0	89.7	4	29.2	4	-1E+10	1	-1E+10	1	-1E+10	1	-1E+10	1	-1E+10	1	-1E+10	1
4901784	27	C	03/31/2016	10:45	-132.078	44.660	0	352.80	0	5.3950	0	33.8980	0	26.759	0	349.649	0	88.3	4	28.8	4	-1E+10	1	-1E+10	1	-1E+10	1	-1E+10	1	-1E+10	1	-1E+10	1
4901784	27	C	03/31/2016	10:45	-132.078	44.660	0	355.70	0	5.3530	0	33.9010	0	26.767	0	352.520	0	86.9	4	28.3	4	-1E+10	1	-1E+10	1	-1E+10	1	-1E+10	1	-1E+10	1	-1E+10	1
4901784	27	C	03/31/2016	10:45	-132.078	44.660	0	357.60	0	5.3300	0	33.9010	0	26.769	0	354.402	0	86.1	4	28.0	4	-1E+10	1	-1E+10	1	-1E+10	1	-1E+10	1	-1E+10	1	-1E+10	1
4901784	27	C	03/31/2016	10:45	-132.078	44.660	0	359.50	0	5.3010	0	33.9040	0	26.775	0	356.283	0	85.1	4	27.7	4	-1E+10	1	-1E+10	1	-1E+10	1	-1E+10	1	-1E+10	1	-1E+10	1
4901784	27	C	03/31/2016	10:45	-132.078	44.660	0	362.50	0	5.2690	0	33.9060	0	26.780	0	359.254	0	84.0	4	27.3	4	-1E+10	1	-1E+10	1	-1E+10	1	-1E+10	1	-1E+10	1	-1E+10	1
4901784	27	C	03/31/2016	10:45	-132.078	44.660	0	365.30	0	5.2420	0	33.9110	0	26.787	0	362.026	0	83.0	4	26.9	4	-1E+10	1	-1E+10	1	-1E+10	1	-1E+10	1	-1E+10	1	-1E+10	1
4901784	27	C	03/31/2016	10:45	-132.078	44.660	0	367.70	0	5.2290	0	33.9110	0	26.789	0	364.403	0	82.6	4	26.8	4	-1E+10	1	-1E+10	1	-1E+10	1	-1E+10	1	-1E+10	1	-1E+10	1
4901784	27	C	03/31/2016	10:45	-132.078	44.660	0	370.10	0	5.2240	0	33.9110	0	26.790	0	366.779	0	82.0	4	26.6	4	-1E+10	1	-1E+10	1	-1E+10	1	-1E+10	1	-1E+10	1	-1E+10	1
4901784	27	C	03/31/2016	10:45	-132.078	44.660	0	372.60	0	5.2080	0	33.9120	0	26.792	0	369.254	0	81.6	4	26.5	4	-1E+10	1	-1E+10	1	-1E+10	1	-1E+10	1	-1E+10	1	-1E+10	1
4901784	27	C	03/31/2016	10:45	-132.078	44.660	0	375.10	0	5.1990	0	33.9130	0	26.794	0	371.730	0	81.1	4	26.3	4	-1E+10	1	-1E+10	1	-1E+10	1	-1E+10	1	-1E+10	1	-1E+10	1
4901784	27	C	03/31/2016	10:45	-132.078	44.660	0	377.60	0	5.1880	0	33.9140	0	26.796	0	374.205	0	80.6	4	26.1	4	-1E+10	1	-1E+10	1	-1E+10	1	-1E+10	1	-1E+10	1	-1E+10	1
4901784	27	C	03/31/2016	10:45	-132.078	44.660	0	380.10	0	5.1830	0	33.9150	0	26.798	0	376.680	0	80.4	4	26.0	4	-1E+10	1	-1E+10	1	-1E+10	1	-1E+10	1	-1E+10	1	-1E+10	1
4901784	27	C	03/31/2016	10:45	-132.078	44.660	0	382.60	0	5.1800	0	33.9150	0	26.798	0	379.155	0	79.8	4	25.9	4	-1E+10	1	-1E+10	1	-1E+10	1	-1E+10	1	-1E+10	1	-1E+10	1
4901784	27	C	03/31/2016	10:45	-132.078	44.660	0	385.10	0	5.1800	0	33.9150	0	26.798	0	381.630	0	79.1	4	25.6	4	-1E+10	1	-1E+10	1	-1E+10	1	-1E+10	1	-1E+10	1	-1E+10	1
4901784	27	C	03/31/2016	10:45	-132.078	44.660	0	387.60	0	5.1710	0	33.9160	0	26.800	0	384.106	0	78.2	4	25.3	4	-1E+10	1	-1E+10	1	-1E+10	1	-1E+10	1	-1E+10	1	-1E+10	1
4901784	27	C	03/31/2016	10:45	-132.078	44.660	0	390.10	0	5.1610	0	33.9180	0	26.803	0	386.581	0	76.9	4	24.9	4	-1E+10	1	-1E+10	1	-1E+10	1	-1E+10	1	-1E+10	1	-1E+10	1
4901784	27	C	03/31/2016	10:45	-132.078	44.660	0	392.60	0	5.1510	0	33.9210	0	26.806	0	389.056	0	75.6	4	24.5	4	-1E+10	1	-1E+10	1	-1E+10	1	-1E+10	1	-1E+10	1	-1E+10	1
4901784	27	C	03/31/2016	10:45	-132.078	44.660	0	395.10	0	5.1440	0	33.9250	0	26.810	0	391.531	0	74.3	4	24.1	4	-1E+10	1	-1E+10	1	-1E+10	1	-1E+10	1	-1E+10	1	-1E+10	1
4901784	27	C	03/31/2016	10:45	-132.078	44.660	0	397.60	0	5.1380	0	33.9270	0	26.812	0	394.006	0	72.9	4	23.6	4	-1E+10	1	-1E+10	1	-1E+10	1	-1E+10	1	-1E+10	1	-1E+10	1
4901784	27	C	03/31/2016	10:45	-132.078	44.660	0	400.20	0	5.1360	0	33.9300	0	26.815	0	396.580	0	71.5	4	23.2	4	-1E+10	1	-1E+10	1	-1E+10	1	-1E+10	1	-1E+10	1	-1E+10	1
4901784	27	C	03/31/2016	10:45	-132.078	44.660	0	402.60	0	5.1330	0	33.9350	0	26.819	0	398.956	0	70.1	4	22.7	4	-1E+10	1	-1E+10	1	-1E+10	1	-1E+10	1	-1E+10	1	-1E+10	1
4901784	27	C	03/31/2016	10:45	-132.078	44.660	0	405.20	0	5.1320	0	33.9360	0	26.820	0	401.530	0	68.8	4	22.3	4	-1E+10	1	-1E+10	1	-1E+10	1	-1E+10	1	-1E+10	1	-1E+10	1
4901784	27	C	03/31/2016	10:45	-132.078	44.660	0	407.70	0	5.1310	0	33.9400	0	26.824	0	404.005	0	67.1	4	21.7	4	-1E+10	1	-1E+10	1	-1E+10	1	-1E+10	1	-1E+10	1	-1E+10	1
4901784	27	C	03/31/2016	10:45	-132.078	44.660	0	410.20	0	5.1350	0	33.9420	0	26.825	0	406.480	0	65.4	4	21.2	4	-1E+10	1	-1E+10	1	-1E+10	1	-1E+10	1	-1E+10	1	-1E+10	1
4901784	27	C	03/31/2016	10:45	-132.078	44.660	0	412.80	0	5.1430	0	33.9490	0	26.829	0	409.054	0	63.4	4	20.5	4	-1E+10	1	-1E+10	1	-1E+10	1	-1E+10	1	-1E+10	1	-1E+10	1
4901784	27	C	03/31/2016	10:45	-132.078	44.660	0	415.40	0	5.1500	0	33.9530	0	26.832	0	411.627	0	61.8	4	20.0	4	-1E+10	1	-1E+10	1	-1E+10	1	-1E+10	1	-1E+10	1	-1E+10	1
4901784	27	C	03/31/2016	10:45	-132.078	44.660	0	417.10	0	5.1510	0	33.9570	0	26.835	0	413.310	0	60.8	4	19.7	4	-1E+10	1	-1E+10	1	-1E+10	1	-1E+10	1	-1E+10	1	-1E+10	1
4901784	27	C	03/31/2016	10:45	-132.078	44.660	0	419.60	0	5.1150	0	33.9620	0	26.843	0	415.785	0	60.0	4	19.4	4	-1E+10	1	-1E+10	1	-1E+10	1	-1E+10	1	-1E+10	1	-1E+10	1
4901784	27	C	03/31/2016	10:45	-132.078	44.660	0	422.20	0	5.1170	0	33.9630	0	26.844	0	418.359	0	59.4	4	19.2	4	-1E+10	1	-1E+10	1	-1E+10	1	-1E+10	1	-1E+10	1	-1E+10	1
4901784	27	C	03/31/2016	10:45	-132.078	44.660	0	424.80	0	5.1260	0	33.9670	0	26.846	0	420.933	0	58.8	4	19.0	4	-1E+10	1	-1E+10	1	-1E+10	1	-1E+10	1	-1E+10	1	-1E+10	1
4901784	27	C	03/31/2016	10:45	-132.078	44.660	0	427.30	0	5.1070	0	33.9660	0	26.847	0	423.407	0	58.6	4	19.0	4	-1E+10	1	-1E+10	1	-1E+10	1	-1E+10	1	-1E+10	1	-1E+10	1
4901784	27	C	03/31/2016	10:45	-132.078	44.660	0	429.90	0	5.0880	0	33.9660	0	26.849	0	425.981	0	57.9	4	18.7	4	-1E+10	1	-1E+10	1	-1E+10	1	-1E+10	1	-1E+10	1	-1E+10	1
4901784	27	C	03/31/2016	10:45	-132.078	44.660	0	432.40	0	5.0740	0	33.9670	0	26.852	0	428.456	0	56.6	4	18.3	4	-1E+10	1	-1E+10	1	-1E+10	1	-1E+10	1	-1E+10	1	-1E+10	1
4901784	27	C	03/31/2016	10:45	-132.078	44.660	0	435.00	0	5.0680	0	33.9720	0	26.857	0	431.029	0	55.4	4	17.9	4	-1E+10	1	-1E+10	1	-1E+10	1	-1E+10	1	-1E+10	1	-1E+10	1
4901784	27	C	03/31/2016	10:45	-132.078	44.660	0	437.50	0	5.0560	0	33.9750	0	26.860	0	433.504	0	54.3	4	17.5	4	-1E+10	1	-1E+10	1	-1E+10	1	-1E+10	1	-1E+10	1	-1E+10	1
4901784	27	C	03/31/2016	10:45	-132.078	44.660	0	440.10	0	5.0530	0	33.9780	0	26.863	0	436.077	0	53.1	4	17.2	4	-1E+10	1	-1E+10	1	-1E+10	1	-1E+10	1	-1E+10	1	-1E+10	1
4901784	27	C	03/31/2016	10:45	-132.078	44.660	0	442.70	0	5.0490	0	33.9800	0	26.865	0	438.651	0	51.9	4	16.8	4	-1E+10	1	-1E+10	1	-1E+10	1	-1E+10	1	-1E+10	1	-1E+10	1
4901784	27	C	03/31/2016	10:45	-132.078	44.660	0	445.30	0	5.0380	0	33.9860	0	26.871	0	441.224	0	50.9	4	16.4	4	-1E+10	1	-1E+10	1	-1E+10	1	-1E+10	1	-1E+10	1	-1E+10	1
4901784	27	C	03/31/2016	10:45	-132.078	44.660	0	447.90	0	5.0190	0	33.9870	0	26.874	0	443.798	0	50.1	4	16.2	4	-1E+10	1	-1E+10	1	-1E+10	1	-1E+10	1	-1E+10	1	-1E+10	1
4901784	27	C	03/31/2016	10:45	-132.078	44.660	0	449.60	0	5.0150	0	33.9890	0	26.876	0	445.480	0	49.3	4	15.9	4	-1E+10	1	-1E+10	1	-1E+10	1	-1E+10	1	-1E+10	1	-1E+10	1
4901784	27	C	03/31/2016	10:45	-132.078	44.660	0	452.10	0	5.0040	0	33.9920	0	26.880	0	447.955	0	48.1	4	15.5	4	-1E+10	1	-1E+10	1	-1E+10	1	-1E+10	1	-1E+10	1	-1E+10	1
4901784	27	C	03/31/2016	10:45	-132.078	44.660	0	454.70	0	5.0030	0	33.9980	0	26.885	0	450.528	0	47.0	4	15.2	4	-1E+10	1	-1E+10	1	-1E+10	1	-1E+10	1	-1E+10	1	-1E+10	1
4901784	27	C	03/31/2016	10:45	-132.078	44.660	0	457.40	0	4.9890	0	33.9990	0	26.887	0	453.200	0	46.4	4	15.0	4	-1E+10	1	-1E+10	1	-1E+10	1	-1E+10	1	-1E+10	1	-1E+10	1
4901784	27	C	03/31/2016	10:45	-132.078	44.660	0	460.00	0	4.9810	0	34.0030	0	26.891	0	455.773	0	45.7	4	14.7	4	-1E+10	1	-1E+10	1	-1E+10	1	-1E+10	1	-1E+10	1	-1E+10	1
4901784	27	C	03/31/2016	10:45	-132.078	44.660	0	462.60	0	4.9780	0	34.0060	0	26.894	0	458.347	0	45.2	4	14.6	4	-1E+10	1	-1E+10	1	-1E+10	1	-1E+10	1	-1E+10	1	-1E+10	1
4901784	27	C	03/31/2016	10:45	-132.078	44.660	0	465.20	0	4.9720	0	34.0070	0	26.895	0	460.920	0	44.9	4	14.5	4	-1E+10	1	-1E+10	1	-1E+10	1	-1E+10	1	-1E+10	1	-1E+10	1
4901784	27	C	03/31/2016	10:45	-132.078	44.660	0	467.00	0	4.9570	0	34.0090	0	26.899	0	462.701	0	44.8	4	14.5	4	-1E+10	1	-1E+10	1	-1E+10	1	-1E+10	1	-1E+10	1	-1E+10	1
4901784	27	C	03/31/2016	10:45	-132.078	44.660	0	469.70	0	4.9420	0	34.0070	0	26.899	0	465.373	0	44.7	4	14.4	4	-1E+10	1	-1E+10	1	-1E+10	1	-1E+10	1	-1E+10	1	-1E+10	1
4901784	27	C	03/31/2016	10:45	-132.078	44.660	0	472.40	0	4.9180	0	34.0080	0	26.902	0	468.046	0	44.2	4	14.2	4	-1E+10	1	-1E+10	1	-1E+10	1	-1E+10	1	-1E+10	1	-1E+10	1
4901784	27	C	03/31/2016	10:45	-132.078	44.660	0	475.10	0	4.9220	0	34.0130	0	26.906	0	470.718	0	43.6	4	14.0	4	-1E+10	1	-1E+10	1	-1E+10	1	-1E+10	1	-1E+10	1	-1E+10	1
4901784	27	C	03/31/2016	10:45	-132.078	44.660	0	477.80	0	4.9200	0	34.0150	0	26.908	0	473.390	0	43.6	4	14.1	4	-1E+10	1	-1E+10	1	-1E+10	1	-1E+10	1	-1E+10	1	-1E+10	1
4901784	27	C	03/31/2016	10:45	-132.078	44.660	0	479.60	0	4.9180	0	34.0140	0	26.907	0	475.171	0	44.0	4	14.2	4	-1E+10	1	-1E+10	1	-1E+10	1	-1E+10	1	-1E+10	1	-1E+10	1
4901784	27	C	03/31/2016	10:45	-132.078	44.660	0	482.30	0	4.8750	0	34.0130	0	26.911	0	477.843	0	44.8	4	14.4	4	-1E+10	1	-1E+10	1	-1E+10	1	-1E+10	1	-1E+10	1	-1E+10	1
4901784	27	C	03/31/2016	10:45	-132.078	44.660	0	484.90	0	4.8540	0	34.0110	0	26.912	0	480.416	0	45.5	4	14.6	4	-1E+10	1	-1E+10	1	-1E+10	1	-1E+10	1	-1E+10	1	-1E+10	1
4901784	27	C	03/31/2016	10:45	-132.078	44.660	0	487.60	0	4.8270	0	34.0070	0	26.912	0	483.088	0	46.7	4	15.0	4	-1E+10	1	-1E+10	1	-1E+10	1	-1E+10	1	-1E+10	1	-1E+10	1
4901784	27	C	03/31/2016	10:45	-132.078	44.660	0	490.30	0	4.7650	0	34.0030	0	26.916	0	485.760	0	48.0	4	15.4	4	-1E+10	1	-1E+10	1	-1E+10	1	-1E+10	1	-1E+10	1	-1E+10	1
4901784	27	C	03/31/2016	10:45	-132.078	44.660	0	492.10	0	4.7060	0	33.9990	0	26.919	0	487.541	0	48.7	4	15.6	4	-1E+10	1	-1E+10	1	-1E+10	1	-1E+10	1	-1E+10	1	-1E+10	1
4901784	27	C	03/31/2016	10:45	-132.078	44.660	0	494.70	0	4.6590	0	33.9960	0	26.922	0	490.114	0	49.0	4	15.7	4	-1E+10	1	-1E+10	1	-1E+10	1	-1E+10	1	-1E+10	1	-1E+10	1
4901784	27	C	03/31/2016	10:45	-132.078	44.660	0	497.40	0	4.6420	0	33.9960	0	26.924	0	492.785	0	48.7	4	15.6	4	-1E+10	1	-1E+10	1	-1E+10	1	-1E+10	1	-1E+10	1	-1E+10	1
4901784	27	C	03/31/2016	10:45	-132.078	44.660	0	500.10	0	4.6320	0	33.9970	0	26.926	0	495.457	0	48.3	4	15.5	4	-1E+10	1	-1E+10	1	-1E+10	1	-1E+10	1	-1E+10	1	-1E+10	1
4901784	27	C	03/31/2016	10:45	-132.078	44.660	0	504.50	0	4.6170	0	33.9990	0	26.929	0	499.811	0	47.0	4	15.0	4	-1E+10	1	-1E+10	1	-1E+10	1	-1E+10	1	-1E+10	1	-1E+10	1
4901784	27	C	03/31/2016	10:45	-132.078	44.660	0	509.90	0	4.6000	0	34.0060	0	26.936	0	505.154	0	45.2	4	14.5	4	-1E+10	1	-1E+10	1	-1E+10	1	-1E+10	1	-1E+10	1	-1E+10	1
4901784	27	C	03/31/2016	10:45	-132.078	44.660	0	515.50	0	4.5980	0	34.0130	0	26.942	0	510.695	0	42.7	4	13.7	4	-1E+10	1	-1E+10	1	-1E+10	1	-1E+10	1	-1E+10	1	-1E+10	1
4901784	27	C	03/31/2016	10:45	-132.078	44.660	0	520.20	0	4.6280	0	34.0230	0	26.947	0	515.346	0	41.0	4	13.1	4	-1E+10	1	-1E+10	1	-1E+10	1	-1E+10	1	-1E+10	1	-1E+10	1
4901784	27	C	03/31/2016	10:45	-132.078	44.660	0	524.80	0	4.5850	0	34.0250	0	26.953	0	519.897	0	40.5	4	12.9	4	-1E+10	1	-1E+10	1	-1E+10	1	-1E+10	1	-1E+10	1	-1E+10	1
4901784	27	C	03/31/2016	10:45	-132.078	44.660	0	530.50	0	4.5670	0	34.0300	0	26.959	0	525.537	0	39.9	4	12.8	4	-1E+10	1	-1E+10	1	-1E+10	1	-1E+10	1	-1E+10	1	-1E+10	1
4901784	27	C	03/31/2016	10:45	-132.078	44.660	0	535.20	0	4.5240	0	34.0300	0	26.964	0	530.187	0	40.0	4	12.8	4	-1E+10	1	-1E+10	1	-1E+10	1	-1E+10	1	-1E+10	1	-1E+10	1
4901784	27	C	03/31/2016	10:45	-132.078	44.660	0	539.90	0	4.4950	0	34.0310	0	26.968	0	534.837	0	38.8	4	12.4	4	-1E+10	1	-1E+10	1	-1E+10	1	-1E+10	1	-1E+10	1	-1E+10	1
4901784	27	C	03/31/2016	10:45	-132.078	44.660	0	545.50	0	4.4850	0	34.0370	0	26.974	0	540.377	0	36.6	4	11.7	4	-1E+10	1	-1E+10	1	-1E+10	1	-1E+10	1	-1E+10	1	-1E+10	1
4901784	27	C	03/31/2016	10:45	-132.078	44.660	0	551.00	0	4.5230	0	34.0520	0	26.981	0	545.818	0	32.9	4	10.5	4	-1E+10	1	-1E+10	1	-1E+10	1	-1E+10	1	-1E+10	1	-1E+10	1
4901784	27	C	03/31/2016	10:45	-132.078	44.660	0	555.30	0	4.5630	0	34.0630	0	26.986	0	550.072	0	30.6	4	9.8	4	-1E+10	1	-1E+10	1	-1E+10	1	-1E+10	1	-1E+10	1	-1E+10	1
4901784	27	C	03/31/2016	10:45	-132.078	44.660	0	560.20	0	4.5680	0	34.0730	0	26.993	0	554.919	0	29.4	4	9.4	4	-1E+10	1	-1E+10	1	-1E+10	1	-1E+10	1	-1E+10	1	-1E+10	1
4901784	27	C	03/31/2016	10:45	-132.078	44.660	0	565.00	0	4.5570	0	34.0760	0	26.997	0	559.667	0	28.8	4	9.2	4	-1E+10	1	-1E+10	1	-1E+10	1	-1E+10	1	-1E+10	1	-1E+10	1
4901784	27	C	03/31/2016	10:45	-132.078	44.660	0	569.80	0	4.5400	0	34.0760	0	26.999	0	564.416	0	28.0	4	8.9	4	-1E+10	1	-1E+10	1	-1E+10	1	-1E+10	1	-1E+10	1	-1E+10	1
4901784	27	C	03/31/2016	10:45	-132.078	44.660	0	574.80	0	4.5380	0	34.0860	0	27.007	0	569.361	0	26.6	4	8.5	4	-1E+10	1	-1E+10	1	-1E+10	1	-1E+10	1	-1E+10	1	-1E+10	1
4901784	27	C	03/31/2016	10:45	-132.078	44.660	0	579.80	0	4.4900	0	34.0900	0	27.015	0	574.307	0	25.9	4	8.3	4	-1E+10	1	-1E+10	1	-1E+10	1	-1E+10	1	-1E+10	1	-1E+10	1
4901784	27	C	03/31/2016	10:45	-132.078	44.660	0	584.80	0	4.4830	0	34.0970	0	27.022	0	579.253	0	24.6	4	7.9	4	-1E+10	1	-1E+10	1	-1E+10	1	-1E+10	1	-1E+10	1	-1E+10	1
4901784	27	C	03/31/2016	10:45	-132.078	44.660	0	589.80	0	4.4740	0	34.1040	0	27.028	0	584.198	0	23.5	4	7.5	4	-1E+10	1	-1E+10	1	-1E+10	1	-1E+10	1	-1E+10	1	-1E+10	1
4901784	27	C	03/31/2016	10:45	-132.078	44.660	0	594.90	0	4.4640	0	34.1110	0	27.035	0	589.243	0	22.5	4	7.2	4	-1E+10	1	-1E+10	1	-1E+10	1	-1E+10	1	-1E+10	1	-1E+10	1
4901784	27	C	03/31/2016	10:45	-132.078	44.660	0	600.00	0	4.4520	0	34.1170	0	27.041	0	594.287	0	21.8	4	7.0	4	-1E+10	1	-1E+10	1	-1E+10	1	-1E+10	1	-1E+10	1	-1E+10	1
4901784	27	C	03/31/2016	10:45	-132.078	44.660	0	605.10	0	4.4310	0	34.1200	0	27.046	0	599.331	0	21.3	4	6.8	4	-1E+10	1	-1E+10	1	-1E+10	1	-1E+10	1	-1E+10	1	-1E+10	1
4901784	27	C	03/31/2016	10:45	-132.078	44.660	0	610.30	0	4.4150	0	34.1250	0	27.052	0	604.474	0	20.8	4	6.6	4	-1E+10	1	-1E+10	1	-1E+10	1	-1E+10	1	-1E+10	1	-1E+10	1
4901784	27	C	03/31/2016	10:45	-132.078	44.660	0	615.50	0	4.3960	0	34.1290	0	27.057	0	609.617	0	20.2	4	6.4	4	-1E+10	1	-1E+10	1	-1E+10	1	-1E+10	1	-1E+10	1	-1E+10	1
4901784	27	C	03/31/2016	10:45	-132.078	44.660	0	619.90	0	4.3950	0	34.1340	0	27.061	0	613.968	0	19.3	4	6.1	4	-1E+10	1	-1E+10	1	-1E+10	1	-1E+10	1	-1E+10	1	-1E+10	1
4901784	27	C	03/31/2016	10:45	-132.078	44.660	0	624.30	0	4.4090	0	34.1400	0	27.064	0	618.320	0	18.9	4	6.0	4	-1E+10	1	-1E+10	1	-1E+10	1	-1E+10	1	-1E+10	1	-1E+10	1
4901784	27	C	03/31/2016	10:45	-132.078	44.660	0	629.50	0	4.3750	0	34.1410	0	27.069	0	623.462	0	18.8	4	6.0	4	-1E+10	1	-1E+10	1	-1E+10	1	-1E+10	1	-1E+10	1	-1E+10	1
4901784	27	C	03/31/2016	10:45	-132.078	44.660	0	634.80	0	4.3670	0	34.1450	0	27.073	0	628.703	0	18.2	4	5.8	4	-1E+10	1	-1E+10	1	-1E+10	1	-1E+10	1	-1E+10	1	-1E+10	1
4901784	27	C	03/31/2016	10:45	-132.078	44.660	0	640.00	0	4.3580	0	34.1500	0	27.078	0	633.845	0	17.5	4	5.6	4	-1E+10	1	-1E+10	1	-1E+10	1	-1E+10	1	-1E+10	1	-1E+10	1
4901784	27	C	03/31/2016	10:45	-132.078	44.660	0	645.30	0	4.3480	0	34.1560	0	27.084	0	639.086	0	16.9	4	5.4	4	-1E+10	1	-1E+10	1	-1E+10	1	-1E+10	1	-1E+10	1	-1E+10	1
4901784	27	C	03/31/2016	10:45	-132.078	44.660	0	650.60	0	4.3360	0	34.1630	0	27.090	0	644.327	0	16.3	4	5.2	4	-1E+10	1	-1E+10	1	-1E+10	1	-1E+10	1	-1E+10	1	-1E+10	1
4901784	27	C	03/31/2016	10:45	-132.078	44.660	0	655.10	0	4.3170	0	34.1700	0	27.098	0	648.777	0	15.9	4	5.1	4	-1E+10	1	-1E+10	1	-1E+10	1	-1E+10	1	-1E+10	1	-1E+10	1
4901784	27	C	03/31/2016	10:45	-132.078	44.660	0	659.50	0	4.3130	0	34.1720	0	27.100	0	653.127	0	15.8	4	5.0	4	-1E+10	1	-1E+10	1	-1E+10	1	-1E+10	1	-1E+10	1	-1E+10	1
4901784	27	C	03/31/2016	10:45	-132.078	44.660	0	664.90	0	4.2910	0	34.1740	0	27.104	0	658.467	0	15.9	4	5.0	4	-1E+10	1	-1E+10	1	-1E+10	1	-1E+10	1	-1E+10	1	-1E+10	1
4901784	27	C	03/31/2016	10:45	-132.078	44.660	0	670.30	0	4.2630	0	34.1740	0	27.107	0	663.806	0	15.8	4	5.0	4	-1E+10	1	-1E+10	1	-1E+10	1	-1E+10	1	-1E+10	1	-1E+10	1
4901784	27	C	03/31/2016	10:45	-132.078	44.660	0	674.90	0	4.2440	0	34.1770	0	27.111	0	668.354	0	15.6	4	5.0	4	-1E+10	1	-1E+10	1	-1E+10	1	-1E+10	1	-1E+10	1	-1E+10	1
4901784	27	C	03/31/2016	10:45	-132.078	44.660	0	679.50	0	4.2420	0	34.1800	0	27.114	0	672.902	0	15.4	4	4.9	4	-1E+10	1	-1E+10	1	-1E+10	1	-1E+10	1	-1E+10	1	-1E+10	1
4901784	27	C	03/31/2016	10:45	-132.078	44.660	0	684.90	0	4.2190	0	34.1840	0	27.120	0	678.241	0	15.3	4	4.8	4	-1E+10	1	-1E+10	1	-1E+10	1	-1E+10	1	-1E+10	1	-1E+10	1
4901784	27	C	03/31/2016	10:45	-132.078	44.660	0	690.30	0	4.1960	0	34.1880	0	27.125	0	683.579	0	15.1	4	4.8	4	-1E+10	1	-1E+10	1	-1E+10	1	-1E+10	1	-1E+10	1	-1E+10	1
4901784	27	C	03/31/2016	10:45	-132.078	44.660	0	694.90	0	4.1770	0	34.1920	0	27.131	0	688.127	0	15.0	4	4.7	4	-1E+10	1	-1E+10	1	-1E+10	1	-1E+10	1	-1E+10	1	-1E+10	1
4901784	27	C	03/31/2016	10:45	-132.078	44.660	0	699.50	0	4.1660	0	34.1920	0	27.132	0	692.674	0	14.8	4	4.7	4	-1E+10	1	-1E+10	1	-1E+10	1	-1E+10	1	-1E+10	1	-1E+10	1
4901784	27	C	03/31/2016	10:45	-132.078	44.660	0	705.00	0	4.1510	0	34.1960	0	27.136	0	698.111	0	14.4	4	4.6	4	-1E+10	1	-1E+10	1	-1E+10	1	-1E+10	1	-1E+10	1	-1E+10	1
4901784	27	C	03/31/2016	10:45	-132.078	44.660	0	710.60	0	4.1300	0	34.2050	0	27.146	0	703.647	0	14.0	4	4.5	4	-1E+10	1	-1E+10	1	-1E+10	1	-1E+10	1	-1E+10	1	-1E+10	1
4901784	27	C	03/31/2016	10:45	-132.078	44.660	0	715.30	0	4.1160	0	34.2090	0	27.151	0	708.293	0	13.9	4	4.4	4	-1E+10	1	-1E+10	1	-1E+10	1	-1E+10	1	-1E+10	1	-1E+10	1
4901784	27	C	03/31/2016	10:45	-132.078	44.660	0	720.20	0	4.1020	0	34.2120	0	27.154	0	713.137	0	13.8	4	4.4	4	-1E+10	1	-1E+10	1	-1E+10	1	-1E+10	1	-1E+10	1	-1E+10	1
4901784	27	C	03/31/2016	10:45	-132.078	44.660	0	725.20	0	4.0830	0	34.2140	0	27.158	0	718.079	0	13.7	4	4.3	4	-1E+10	1	-1E+10	1	-1E+10	1	-1E+10	1	-1E+10	1	-1E+10	1
4901784	27	C	03/31/2016	10:45	-132.078	44.660	0	729.90	0	4.0700	0	34.2170	0	27.162	0	722.725	0	13.6	4	4.3	4	-1E+10	1	-1E+10	1	-1E+10	1	-1E+10	1	-1E+10	1	-1E+10	1
4901784	27	C	03/31/2016	10:45	-132.078	44.660	0	734.60	0	4.0560	0	34.2200	0	27.166	0	727.371	0	13.4	4	4.2	4	-1E+10	1	-1E+10	1	-1E+10	1	-1E+10	1	-1E+10	1	-1E+10	1
4901784	27	C	03/31/2016	10:45	-132.078	44.660	0	740.10	0	4.0310	0	34.2260	0	27.173	0	732.807	0	13.2	4	4.2	4	-1E+10	1	-1E+10	1	-1E+10	1	-1E+10	1	-1E+10	1	-1E+10	1
4901784	27	C	03/31/2016	10:45	-132.078	44.660	0	745.70	0	4.0070	0	34.2310	0	27.179	0	738.342	0	13.1	4	4.1	4	-1E+10	1	-1E+10	1	-1E+10	1	-1E+10	1	-1E+10	1	-1E+10	1
4901784	27	C	03/31/2016	10:45	-132.078	44.660	0	750.60	0	3.9910	0	34.2330	0	27.183	0	743.185	0	13.0	4	4.1	4	-1E+10	1	-1E+10	1	-1E+10	1	-1E+10	1	-1E+10	1	-1E+10	1
4901784	27	C	03/31/2016	10:45	-132.078	44.660	0	755.60	0	3.9800	0	34.2340	0	27.185	0	748.126	0	13.0	4	4.1	4	-1E+10	1	-1E+10	1	-1E+10	1	-1E+10	1	-1E+10	1	-1E+10	1
4901784	27	C	03/31/2016	10:45	-132.078	44.660	0	760.60	0	3.9740	0	34.2360	0	27.187	0	753.068	0	12.9	4	4.1	4	-1E+10	1	-1E+10	1	-1E+10	1	-1E+10	1	-1E+10	1	-1E+10	1
4901784	27	C	03/31/2016	10:45	-132.078	44.660	0	765.70	0	3.9680	0	34.2370	0	27.188	0	758.108	0	12.8	4	4.0	4	-1E+10	1	-1E+10	1	-1E+10	1	-1E+10	1	-1E+10	1	-1E+10	1
4901784	27	C	03/31/2016	10:45	-132.078	44.660	0	770.80	0	3.9520	0	34.2400	0	27.192	0	763.148	0	12.7	4	4.0	4	-1E+10	1	-1E+10	1	-1E+10	1	-1E+10	1	-1E+10	1	-1E+10	1
4901784	27	C	03/31/2016	10:45	-132.078	44.660	0	775.80	0	3.9400	0	34.2430	0	27.196	0	768.089	0	12.6	4	4.0	4	-1E+10	1	-1E+10	1	-1E+10	1	-1E+10	1	-1E+10	1	-1E+10	1
4901784	27	C	03/31/2016	10:45	-132.078	44.660	0	780.80	0	3.9320	0	34.2470	0	27.200	0	773.030	0	12.4	4	3.9	4	-1E+10	1	-1E+10	1	-1E+10	1	-1E+10	1	-1E+10	1	-1E+10	1
4901784	27	C	03/31/2016	10:45	-132.078	44.660	0	785.10	0	3.9230	0	34.2500	0	27.203	0	777.280	0	12.3	4	3.9	4	-1E+10	1	-1E+10	1	-1E+10	1	-1E+10	1	-1E+10	1	-1E+10	1
4901784	27	C	03/31/2016	10:45	-132.078	44.660	0	789.30	0	3.9120	0	34.2510	0	27.205	0	781.430	0	12.3	4	3.9	4	-1E+10	1	-1E+10	1	-1E+10	1	-1E+10	1	-1E+10	1	-1E+10	1
4901784	27	C	03/31/2016	10:45	-132.078	44.660	0	794.40	0	3.9050	0	34.2550	0	27.209	0	786.470	0	12.2	4	3.8	4	-1E+10	1	-1E+10	1	-1E+10	1	-1E+10	1	-1E+10	1	-1E+10	1
4901784	27	C	03/31/2016	10:45	-132.078	44.660	0	799.50	0	3.8980	0	34.2570	0	27.212	0	791.509	0	12.1	4	3.8	4	-1E+10	1	-1E+10	1	-1E+10	1	-1E+10	1	-1E+10	1	-1E+10	1
4901784	27	C	03/31/2016	10:45	-132.078	44.660	0	804.70	0	3.8770	0	34.2570	0	27.214	0	796.647	0	12.1	4	3.8	4	-1E+10	1	-1E+10	1	-1E+10	1	-1E+10	1	-1E+10	1	-1E+10	1
4901784	27	C	03/31/2016	10:45	-132.078	44.660	0	809.90	0	3.8570	0	34.2620	0	27.220	0	801.785	0	12.0	4	3.8	4	-1E+10	1	-1E+10	1	-1E+10	1	-1E+10	1	-1E+10	1	-1E+10	1
4901784	27	C	03/31/2016	10:45	-132.078	44.660	0	815.00	0	3.8560	0	34.2640	0	27.221	0	806.824	0	11.9	4	3.8	4	-1E+10	1	-1E+10	1	-1E+10	1	-1E+10	1	-1E+10	1	-1E+10	1
4901784	27	C	03/31/2016	10:45	-132.078	44.660	0	820.30	0	3.8370	0	34.2680	0	27.227	0	812.061	0	11.9	4	3.7	4	-1E+10	1	-1E+10	1	-1E+10	1	-1E+10	1	-1E+10	1	-1E+10	1
4901784	27	C	03/31/2016	10:45	-132.078	44.660	0	825.50	0	3.8070	0	34.2710	0	27.232	0	817.198	0	11.9	4	3.7	4	-1E+10	1	-1E+10	1	-1E+10	1	-1E+10	1	-1E+10	1	-1E+10	1
4901784	27	C	03/31/2016	10:45	-132.078	44.660	0	829.90	0	3.7940	0	34.2730	0	27.235	0	821.545	0	11.9	4	3.7	4	-1E+10	1	-1E+10	1	-1E+10	1	-1E+10	1	-1E+10	1	-1E+10	1
4901784	27	C	03/31/2016	10:45	-132.078	44.660	0	834.30	0	3.7930	0	34.2740	0	27.236	0	825.892	0	11.9	4	3.7	4	-1E+10	1	-1E+10	1	-1E+10	1	-1E+10	1	-1E+10	1	-1E+10	1
4901784	27	C	03/31/2016	10:45	-132.078	44.660	0	839.70	0	3.7790	0	34.2750	0	27.238	0	831.227	0	11.8	4	3.7	4	-1E+10	1	-1E+10	1	-1E+10	1	-1E+10	1	-1E+10	1	-1E+10	1
4901784	27	C	03/31/2016	10:45	-132.078	44.660	0	845.00	0	3.7680	0	34.2780	0	27.242	0	836.463	0	11.7	4	3.7	4	-1E+10	1	-1E+10	1	-1E+10	1	-1E+10	1	-1E+10	1	-1E+10	1
4901784	27	C	03/31/2016	10:45	-132.078	44.660	0	850.30	0	3.7590	0	34.2810	0	27.245	0	841.699	0	11.7	4	3.7	4	-1E+10	1	-1E+10	1	-1E+10	1	-1E+10	1	-1E+10	1	-1E+10	1
4901784	27	C	03/31/2016	10:45	-132.078	44.660	0	854.80	0	3.7450	0	34.2830	0	27.248	0	846.144	0	11.7	4	3.7	4	-1E+10	1	-1E+10	1	-1E+10	1	-1E+10	1	-1E+10	1	-1E+10	1
4901784	27	C	03/31/2016	10:45	-132.078	44.660	0	859.30	0	3.7340	0	34.2860	0	27.251	0	850.590	0	11.6	4	3.6	4	-1E+10	1	-1E+10	1	-1E+10	1	-1E+10	1	-1E+10	1	-1E+10	1
4901784	27	C	03/31/2016	10:45	-132.078	44.660	0	864.70	0	3.7240	0	34.2880	0	27.254	0	855.924	0	11.6	4	3.6	4	-1E+10	1	-1E+10	1	-1E+10	1	-1E+10	1	-1E+10	1	-1E+10	1
4901784	27	C	03/31/2016	10:45	-132.078	44.660	0	870.10	0	3.7090	0	34.2930	0	27.260	0	861.258	0	11.5	4	3.6	4	-1E+10	1	-1E+10	1	-1E+10	1	-1E+10	1	-1E+10	1	-1E+10	1
4901784	27	C	03/31/2016	10:45	-132.078	44.660	0	875.60	0	3.7010	0	34.2960	0	27.263	0	866.691	0	11.4	4	3.6	4	-1E+10	1	-1E+10	1	-1E+10	1	-1E+10	1	-1E+10	1	-1E+10	1
4901784	27	C	03/31/2016	10:45	-132.078	44.660	0	880.10	0	3.6940	0	34.2980	0	27.265	0	871.135	0	11.4	4	3.6	4	-1E+10	1	-1E+10	1	-1E+10	1	-1E+10	1	-1E+10	1	-1E+10	1
4901784	27	C	03/31/2016	10:45	-132.078	44.660	0	884.70	0	3.6830	0	34.3010	0	27.269	0	875.679	0	11.4	4	3.6	4	-1E+10	1	-1E+10	1	-1E+10	1	-1E+10	1	-1E+10	1	-1E+10	1
4901784	27	C	03/31/2016	10:45	-132.078	44.660	0	890.30	0	3.6740	0	34.3040	0	27.272	0	881.210	0	11.4	4	3.6	4	-1E+10	1	-1E+10	1	-1E+10	1	-1E+10	1	-1E+10	1	-1E+10	1
4901784	27	C	03/31/2016	10:45	-132.078	44.660	0	894.90	0	3.6610	0	34.3070	0	27.276	0	885.753	0	11.3	4	3.6	4	-1E+10	1	-1E+10	1	-1E+10	1	-1E+10	1	-1E+10	1	-1E+10	1
4901784	27	C	03/31/2016	10:45	-132.078	44.660	0	899.60	0	3.6540	0	34.3080	0	27.277	0	890.395	0	11.3	4	3.6	4	-1E+10	1	-1E+10	1	-1E+10	1	-1E+10	1	-1E+10	1	-1E+10	1
4901784	27	C	03/31/2016	10:45	-132.078	44.660	0	905.10	0	3.6380	0	34.3120	0	27.282	0	895.827	0	11.3	4	3.6	4	-1E+10	1	-1E+10	1	-1E+10	1	-1E+10	1	-1E+10	1	-1E+10	1
4901784	27	C	03/31/2016	10:45	-132.078	44.660	0	909.80	0	3.6280	0	34.3140	0	27.284	0	900.469	0	11.3	4	3.6	4	-1E+10	1	-1E+10	1	-1E+10	1	-1E+10	1	-1E+10	1	-1E+10	1
4901784	27	C	03/31/2016	10:45	-132.078	44.660	0	914.50	0	3.6240	0	34.3160	0	27.286	0	905.111	0	11.3	4	3.5	4	-1E+10	1	-1E+10	1	-1E+10	1	-1E+10	1	-1E+10	1	-1E+10	1
4901784	27	C	03/31/2016	10:45	-132.078	44.660	0	920.10	0	3.6130	0	34.3190	0	27.290	0	910.641	0	11.3	4	3.5	4	-1E+10	1	-1E+10	1	-1E+10	1	-1E+10	1	-1E+10	1	-1E+10	1
4901784	27	C	03/31/2016	10:45	-132.078	44.660	0	925.40	0	3.6010	0	34.3210	0	27.293	0	915.875	0	11.3	4	3.6	4	-1E+10	1	-1E+10	1	-1E+10	1	-1E+10	1	-1E+10	1	-1E+10	1
4901784	27	C	03/31/2016	10:45	-132.078	44.660	0	930.20	0	3.5940	0	34.3220	0	27.294	0	920.615	0	11.4	4	3.6	4	-1E+10	1	-1E+10	1	-1E+10	1	-1E+10	1	-1E+10	1	-1E+10	1
4901784	27	C	03/31/2016	10:45	-132.078	44.660	0	935.10	0	3.5720	0	34.3250	0	27.299	0	925.454	0	11.4	4	3.6	4	-1E+10	1	-1E+10	1	-1E+10	1	-1E+10	1	-1E+10	1	-1E+10	1
4901784	27	C	03/31/2016	10:45	-132.078	44.660	0	939.90	0	3.5570	0	34.3280	0	27.303	0	930.193	0	11.4	4	3.6	4	-1E+10	1	-1E+10	1	-1E+10	1	-1E+10	1	-1E+10	1	-1E+10	1
4901784	27	C	03/31/2016	10:45	-132.078	44.660	0	944.90	0	3.5470	0	34.3290	0	27.305	0	935.131	0	11.5	4	3.6	4	-1E+10	1	-1E+10	1	-1E+10	1	-1E+10	1	-1E+10	1	-1E+10	1
4901784	27	C	03/31/2016	10:45	-132.078	44.660	0	949.80	0	3.5330	0	34.3320	0	27.308	0	939.969	0	11.5	4	3.6	4	-1E+10	1	-1E+10	1	-1E+10	1	-1E+10	1	-1E+10	1	-1E+10	1
4901784	27	C	03/31/2016	10:45	-132.078	44.660	0	954.80	0	3.5240	0	34.3330	0	27.310	0	944.906	0	11.5	4	3.6	4	-1E+10	1	-1E+10	1	-1E+10	1	-1E+10	1	-1E+10	1	-1E+10	1
4901784	27	C	03/31/2016	10:45	-132.078	44.660	0	959.80	0	3.5090	0	34.3360	0	27.314	0	949.843	0	11.5	4	3.6	4	-1E+10	1	-1E+10	1	-1E+10	1	-1E+10	1	-1E+10	1	-1E+10	1
4901784	27	C	03/31/2016	10:45	-132.078	44.660	0	964.80	0	3.5000	0	34.3390	0	27.317	0	954.780	0	11.5	4	3.6	4	-1E+10	1	-1E+10	1	-1E+10	1	-1E+10	1	-1E+10	1	-1E+10	1
4901784	27	C	03/31/2016	10:45	-132.078	44.660	0	969.70	0	3.4920	0	34.3400	0	27.319	0	959.617	0	11.6	4	3.6	4	-1E+10	1	-1E+10	1	-1E+10	1	-1E+10	1	-1E+10	1	-1E+10	1
4901784	27	C	03/31/2016	10:45	-132.078	44.660	0	974.70	0	3.4690	0	34.3430	0	27.323	0	964.554	0	11.6	4	3.6	4	-1E+10	1	-1E+10	1	-1E+10	1	-1E+10	1	-1E+10	1	-1E+10	1
4901784	27	C	03/31/2016	10:45	-132.078	44.660	0	979.70	0	3.4580	0	34.3440	0	27.325	0	969.490	0	11.6	4	3.6	4	-1E+10	1	-1E+10	1	-1E+10	1	-1E+10	1	-1E+10	1	-1E+10	1
4901784	27	C	03/31/2016	10:45	-132.078	44.660	0	984.80	0	3.4430	0	34.3470	0	27.329	0	974.525	0	11.7	4	3.6	4	-1E+10	1	-1E+10	1	-1E+10	1	-1E+10	1	-1E+10	1	-1E+10	1
4901784	27	C	03/31/2016	10:45	-132.078	44.660	0	989.80	0	3.4370	0	34.3490	0	27.331	0	979.461	0	11.6	4	3.6	4	-1E+10	1	-1E+10	1	-1E+10	1	-1E+10	1	-1E+10	1	-1E+10	1
4901784	27	C	03/31/2016	10:45	-132.078	44.660	0	994.90	0	3.4290	0	34.3520	0	27.334	0	984.496	0	11.7	4	3.6	4	-1E+10	1	-1E+10	1	-1E+10	1	-1E+10	1	-1E+10	1	-1E+10	1
4901784	27	C	03/31/2016	10:45	-132.078	44.660	0	1000.00	0	3.4140	0	34.3560	0	27.339	0	989.531	0	11.7	4	3.7	4	-1E+10	1	-1E+10	1	-1E+10	1	-1E+10	1	-1E+10	1	-1E+10	1
4901784	27	C	03/31/2016	10:45	-132.078	44.660	0	1005.10	0	3.4060	0	34.3570	0	27.341	0	994.565	0	11.8	4	3.7	4	-1E+10	1	-1E+10	1	-1E+10	1	-1E+10	1	-1E+10	1	-1E+10	1
4901784	27	C	03/31/2016	10:45	-132.078	44.660	0	1010.30	0	3.3920	0	34.3590	0	27.344	0	999.698	0	11.8	4	3.7	4	-1E+10	1	-1E+10	1	-1E+10	1	-1E+10	1	-1E+10	1	-1E+10	1
4901784	27	C	03/31/2016	10:45	-132.078	44.660	0	1015.40	0	3.3820	0	34.3600	0	27.345	0	1004.733	0	11.9	4	3.7	4	-1E+10	1	-1E+10	1	-1E+10	1	-1E+10	1	-1E+10	1	-1E+10	1
4901784	27	C	03/31/2016	10:45	-132.078	44.660	0	1020.60	0	3.3690	0	34.3620	0	27.348	0	1009.866	0	11.9	4	3.7	4	-1E+10	1	-1E+10	1	-1E+10	1	-1E+10	1	-1E+10	1	-1E+10	1
4901784	27	C	03/31/2016	10:45	-132.078	44.660	0	1025.70	0	3.3560	0	34.3650	0	27.352	0	1014.900	0	12.0	4	3.7	4	-1E+10	1	-1E+10	1	-1E+10	1	-1E+10	1	-1E+10	1	-1E+10	1
4901784	27	C	03/31/2016	10:45	-132.078	44.660	0	1030.10	0	3.3470	0	34.3680	0	27.355	0	1019.243	0	12.0	4	3.7	4	-1E+10	1	-1E+10	1	-1E+10	1	-1E+10	1	-1E+10	1	-1E+10	1
4901784	27	C	03/31/2016	10:45	-132.078	44.660	0	1034.40	0	3.3400	0	34.3690	0	27.357	0	1023.487	0	12.1	4	3.8	4	-1E+10	1	-1E+10	1	-1E+10	1	-1E+10	1	-1E+10	1	-1E+10	1
4901784	27	C	03/31/2016	10:45	-132.078	44.660	0	1039.70	0	3.3270	0	34.3710	0	27.360	0	1028.718	0	12.1	4	3.8	4	-1E+10	1	-1E+10	1	-1E+10	1	-1E+10	1	-1E+10	1	-1E+10	1
4901784	27	C	03/31/2016	10:45	-132.078	44.660	0	1045.10	0	3.3200	0	34.3720	0	27.361	0	1034.048	0	12.2	4	3.8	4	-1E+10	1	-1E+10	1	-1E+10	1	-1E+10	1	-1E+10	1	-1E+10	1
4901784	27	C	03/31/2016	10:45	-132.078	44.660	0	1050.40	0	3.3050	0	34.3750	0	27.365	0	1039.278	0	12.2	4	3.8	4	-1E+10	1	-1E+10	1	-1E+10	1	-1E+10	1	-1E+10	1	-1E+10	1
4901784	27	C	03/31/2016	10:45	-132.078	44.660	0	1054.90	0	3.3030	0	34.3760	0	27.366	0	1043.720	0	12.3	4	3.8	4	-1E+10	1	-1E+10	1	-1E+10	1	-1E+10	1	-1E+10	1	-1E+10	1
4901784	27	C	03/31/2016	10:45	-132.078	44.660	0	1059.30	0	3.2960	0	34.3770	0	27.367	0	1048.062	0	12.3	4	3.8	4	-1E+10	1	-1E+10	1	-1E+10	1	-1E+10	1	-1E+10	1	-1E+10	1
4901784	27	C	03/31/2016	10:45	-132.078	44.660	0	1064.80	0	3.2910	0	34.3780	0	27.369	0	1053.490	0	12.4	4	3.8	4	-1E+10	1	-1E+10	1	-1E+10	1	-1E+10	1	-1E+10	1	-1E+10	1
4901784	27	C	03/31/2016	10:45	-132.078	44.660	0	1070.20	0	3.2760	0	34.3800	0	27.372	0	1058.819	0	12.5	4	3.9	4	-1E+10	1	-1E+10	1	-1E+10	1	-1E+10	1	-1E+10	1	-1E+10	1
4901784	27	C	03/31/2016	10:45	-132.078	44.660	0	1074.80	0	3.2610	0	34.3820	0	27.375	0	1063.358	0	12.6	4	3.9	4	-1E+10	1	-1E+10	1	-1E+10	1	-1E+10	1	-1E+10	1	-1E+10	1
4901784	27	C	03/31/2016	10:45	-132.078	44.660	0	1079.30	0	3.2490	0	34.3830	0	27.377	0	1067.799	0	12.6	4	3.9	4	-1E+10	1	-1E+10	1	-1E+10	1	-1E+10	1	-1E+10	1	-1E+10	1
4901784	27	C	03/31/2016	10:45	-132.078	44.660	0	1084.80	0	3.2320	0	34.3860	0	27.381	0	1073.226	0	12.7	4	4.0	4	-1E+10	1	-1E+10	1	-1E+10	1	-1E+10	1	-1E+10	1	-1E+10	1
4901784	27	C	03/31/2016	10:45	-132.078	44.660	0	1090.30	0	3.2250	0	34.3870	0	27.382	0	1078.653	0	12.8	4	4.0	4	-1E+10	1	-1E+10	1	-1E+10	1	-1E+10	1	-1E+10	1	-1E+10	1
4901784	27	C	03/31/2016	10:45	-132.078	44.660	0	1094.80	0	3.2170	0	34.3890	0	27.385	0	1083.094	0	12.9	4	4.0	4	-1E+10	1	-1E+10	1	-1E+10	1	-1E+10	1	-1E+10	1	-1E+10	1
4901784	27	C	03/31/2016	10:45	-132.078	44.660	0	1099.40	0	3.2140	0	34.3890	0	27.385	0	1087.633	0	12.9	4	4.0	4	-1E+10	1	-1E+10	1	-1E+10	1	-1E+10	1	-1E+10	1	-1E+10	1
4901784	27	C	03/31/2016	10:45	-132.078	44.660	0	1105.00	0	3.2070	0	34.3900	0	27.386	0	1093.158	0	13.0	4	4.0	4	-1E+10	1	-1E+10	1	-1E+10	1	-1E+10	1	-1E+10	1	-1E+10	1
4901784	27	C	03/31/2016	10:45	-132.078	44.660	0	1109.70	0	3.1920	0	34.3930	0	27.390	0	1097.795	0	13.2	4	4.1	4	-1E+10	1	-1E+10	1	-1E+10	1	-1E+10	1	-1E+10	1	-1E+10	1
4901784	27	C	03/31/2016	10:45	-132.078	44.660	0	1115.00	0	3.1720	0	34.3970	0	27.395	0	1103.025	0	13.3	4	4.1	4	-1E+10	1	-1E+10	1	-1E+10	1	-1E+10	1	-1E+10	1	-1E+10	1
4901784	27	C	03/31/2016	10:45	-132.078	44.660	0	1120.10	0	3.1610	0	34.3980	0	27.397	0	1108.056	0	13.4	4	4.2	4	-1E+10	1	-1E+10	1	-1E+10	1	-1E+10	1	-1E+10	1	-1E+10	1
4901784	27	C	03/31/2016	10:45	-132.078	44.660	0	1125.10	0	3.1500	0	34.4000	0	27.400	0	1112.989	0	13.6	4	4.2	4	-1E+10	1	-1E+10	1	-1E+10	1	-1E+10	1	-1E+10	1	-1E+10	1
4901784	27	C	03/31/2016	10:45	-132.078	44.660	0	1130.00	0	3.1400	0	34.4020	0	27.402	0	1117.824	0	13.7	4	4.2	4	-1E+10	1	-1E+10	1	-1E+10	1	-1E+10	1	-1E+10	1	-1E+10	1
4901784	27	C	03/31/2016	10:45	-132.078	44.660	0	1134.90	0	3.1350	0	34.4030	0	27.403	0	1122.658	0	13.8	4	4.3	4	-1E+10	1	-1E+10	1	-1E+10	1	-1E+10	1	-1E+10	1	-1E+10	1
4901784	27	C	03/31/2016	10:45	-132.078	44.660	0	1139.90	0	3.1220	0	34.4070	0	27.408	0	1127.590	0	14.0	4	4.3	4	-1E+10	1	-1E+10	1	-1E+10	1	-1E+10	1	-1E+10	1	-1E+10	1
4901784	27	C	03/31/2016	10:45	-132.078	44.660	0	1144.80	0	3.1150	0	34.4090	0	27.410	0	1132.424	0	14.2	4	4.4	4	-1E+10	1	-1E+10	1	-1E+10	1	-1E+10	1	-1E+10	1	-1E+10	1
4901784	27	C	03/31/2016	10:45	-132.078	44.660	0	1149.80	0	3.1020	0	34.4110	0	27.413	0	1137.357	0	14.4	4	4.5	4	-1E+10	1	-1E+10	1	-1E+10	1	-1E+10	1	-1E+10	1	-1E+10	1
4901784	27	C	03/31/2016	10:45	-132.078	44.660	0	1154.80	0	3.0870	0	34.4150	0	27.418	0	1142.289	0	14.5	4	4.5	4	-1E+10	1	-1E+10	1	-1E+10	1	-1E+10	1	-1E+10	1	-1E+10	1
4901784	27	C	03/31/2016	10:45	-132.078	44.660	0	1159.90	0	3.0830	0	34.4150	0	27.418	0	1147.320	0	14.7	4	4.5	4	-1E+10	1	-1E+10	1	-1E+10	1	-1E+10	1	-1E+10	1	-1E+10	1
4901784	27	C	03/31/2016	10:45	-132.078	44.660	0	1165.00	0	3.0730	0	34.4170	0	27.420	0	1152.351	0	14.8	4	4.6	4	-1E+10	1	-1E+10	1	-1E+10	1	-1E+10	1	-1E+10	1	-1E+10	1
4901784	27	C	03/31/2016	10:45	-132.078	44.660	0	1170.10	0	3.0570	0	34.4200	0	27.424	0	1157.381	0	15.0	4	4.6	4	-1E+10	1	-1E+10	1	-1E+10	1	-1E+10	1	-1E+10	1	-1E+10	1
4901784	27	C	03/31/2016	10:45	-132.078	44.660	0	1175.30	0	3.0500	0	34.4200	0	27.425	0	1162.510	0	15.1	4	4.7	4	-1E+10	1	-1E+10	1	-1E+10	1	-1E+10	1	-1E+10	1	-1E+10	1
4901784	27	C	03/31/2016	10:45	-132.078	44.660	0	1180.50	0	3.0370	0	34.4220	0	27.428	0	1167.639	0	15.3	4	4.7	4	-1E+10	1	-1E+10	1	-1E+10	1	-1E+10	1	-1E+10	1	-1E+10	1
4901784	27	C	03/31/2016	10:45	-132.078	44.660	0	1185.70	0	3.0180	0	34.4240	0	27.431	0	1172.768	0	15.4	4	4.8	4	-1E+10	1	-1E+10	1	-1E+10	1	-1E+10	1	-1E+10	1	-1E+10	1
4901784	27	C	03/31/2016	10:45	-132.078	44.660	0	1190.00	0	3.0100	0	34.4250	0	27.433	0	1177.009	0	15.5	4	4.8	4	-1E+10	1	-1E+10	1	-1E+10	1	-1E+10	1	-1E+10	1	-1E+10	1
4901784	27	C	03/31/2016	10:45	-132.078	44.660	0	1194.40	0	3.0030	0	34.4260	0	27.434	0	1181.349	0	15.6	4	4.8	4	-1E+10	1	-1E+10	1	-1E+10	1	-1E+10	1	-1E+10	1	-1E+10	1
4901784	27	C	03/31/2016	10:45	-132.078	44.660	0	1199.60	0	2.9920	0	34.4270	0	27.436	0	1186.477	0	15.7	4	4.9	4	-1E+10	1	-1E+10	1	-1E+10	1	-1E+10	1	-1E+10	1	-1E+10	1
4901784	27	C	03/31/2016	10:45	-132.078	44.660	0	1205.00	0	2.9850	0	34.4290	0	27.438	0	1191.803	0	15.8	4	4.9	4	-1E+10	1	-1E+10	1	-1E+10	1	-1E+10	1	-1E+10	1	-1E+10	1
4901784	27	C	03/31/2016	10:45	-132.078	44.660	0	1210.20	0	2.9780	0	34.4300	0	27.440	0	1196.931	0	16.0	4	4.9	4	-1E+10	1	-1E+10	1	-1E+10	1	-1E+10	1	-1E+10	1	-1E+10	1
4901784	27	C	03/31/2016	10:45	-132.078	44.660	0	1215.60	0	2.9670	0	34.4310	0	27.442	0	1202.257	0	16.1	4	5.0	4	-1E+10	1	-1E+10	1	-1E+10	1	-1E+10	1	-1E+10	1	-1E+10	1
4901784	27	C	03/31/2016	10:45	-132.078	44.660	0	1220.10	0	2.9520	0	34.4330	0	27.444	0	1206.694	0	16.3	4	5.0	4	-1E+10	1	-1E+10	1	-1E+10	1	-1E+10	1	-1E+10	1	-1E+10	1
4901784	27	C	03/31/2016	10:45	-132.078	44.660	0	1224.60	0	2.9470	0	34.4340	0	27.446	0	1211.132	0	16.4	4	5.0	4	-1E+10	1	-1E+10	1	-1E+10	1	-1E+10	1	-1E+10	1	-1E+10	1
4901784	27	C	03/31/2016	10:45	-132.078	44.660	0	1230.00	0	2.9430	0	34.4340	0	27.446	0	1216.457	0	16.5	4	5.1	4	-1E+10	1	-1E+10	1	-1E+10	1	-1E+10	1	-1E+10	1	-1E+10	1
4901784	27	C	03/31/2016	10:45	-132.078	44.660	0	1235.60	0	2.9280	0	34.4360	0	27.449	0	1221.979	0	16.7	4	5.1	4	-1E+10	1	-1E+10	1	-1E+10	1	-1E+10	1	-1E+10	1	-1E+10	1
4901784	27	C	03/31/2016	10:45	-132.078	44.660	0	1240.20	0	2.9230	0	34.4370	0	27.450	0	1226.515	0	16.8	4	5.2	4	-1E+10	1	-1E+10	1	-1E+10	1	-1E+10	1	-1E+10	1	-1E+10	1
4901784	27	C	03/31/2016	10:45	-132.078	44.660	0	1244.90	0	2.9160	0	34.4380	0	27.452	0	1231.149	0	16.9	4	5.2	4	-1E+10	1	-1E+10	1	-1E+10	1	-1E+10	1	-1E+10	1	-1E+10	1
4901784	27	C	03/31/2016	10:45	-132.078	44.660	0	1249.60	0	2.9070	0	34.4390	0	27.453	0	1235.784	0	17.1	4	5.3	4	-1E+10	1	-1E+10	1	-1E+10	1	-1E+10	1	-1E+10	1	-1E+10	1
4901784	27	C	03/31/2016	10:45	-132.078	44.660	0	1254.10	0	2.8990	0	34.4400	0	27.455	0	1240.221	0	17.2	4	5.3	4	-1E+10	1	-1E+10	1	-1E+10	1	-1E+10	1	-1E+10	1	-1E+10	1
4901784	27	C	03/31/2016	10:45	-132.078	44.660	0	1259.40	0	2.8870	0	34.4420	0	27.458	0	1245.446	0	17.4	4	5.4	4	-1E+10	1	-1E+10	1	-1E+10	1	-1E+10	1	-1E+10	1	-1E+10	1
4901784	27	C	03/31/2016	10:45	-132.078	44.660	0	1264.30	0	2.8680	0	34.4440	0	27.461	0	1250.277	0	17.7	4	5.4	4	-1E+10	1	-1E+10	1	-1E+10	1	-1E+10	1	-1E+10	1	-1E+10	1
4901784	27	C	03/31/2016	10:45	-132.078	44.660	0	1269.30	0	2.8610	0	34.4450	0	27.462	0	1255.207	0	17.8	4	5.5	4	-1E+10	1	-1E+10	1	-1E+10	1	-1E+10	1	-1E+10	1	-1E+10	1
4901784	27	C	03/31/2016	10:45	-132.078	44.660	0	1274.30	0	2.8500	0	34.4460	0	27.464	0	1260.137	0	18.0	4	5.5	4	-1E+10	1	-1E+10	1	-1E+10	1	-1E+10	1	-1E+10	1	-1E+10	1
4901784	27	C	03/31/2016	10:45	-132.078	44.660	0	1279.30	0	2.8410	0	34.4480	0	27.467	0	1265.066	0	18.1	4	5.6	4	-1E+10	1	-1E+10	1	-1E+10	1	-1E+10	1	-1E+10	1	-1E+10	1
4901784	27	C	03/31/2016	10:45	-132.078	44.660	0	1284.30	0	2.8380	0	34.4480	0	27.467	0	1269.995	0	18.2	4	5.6	4	-1E+10	1	-1E+10	1	-1E+10	1	-1E+10	1	-1E+10	1	-1E+10	1
4901784	27	C	03/31/2016	10:45	-132.078	44.660	0	1289.40	0	2.8330	0	34.4490	0	27.468	0	1275.023	0	18.4	4	5.7	4	-1E+10	1	-1E+10	1	-1E+10	1	-1E+10	1	-1E+10	1	-1E+10	1
4901784	27	C	03/31/2016	10:45	-132.078	44.660	0	1294.60	0	2.8160	0	34.4510	0	27.471	0	1280.149	0	18.7	4	5.8	4	-1E+10	1	-1E+10	1	-1E+10	1	-1E+10	1	-1E+10	1	-1E+10	1
4901784	27	C	03/31/2016	10:45	-132.078	44.660	0	1299.90	0	2.8020	0	34.4540	0	27.475	0	1285.374	0	19.0	4	5.8	4	-1E+10	1	-1E+10	1	-1E+10	1	-1E+10	1	-1E+10	1	-1E+10	1
4901784	27	C	03/31/2016	10:45	-132.078	44.660	0	1305.10	0	2.7930	0	34.4550	0	27.477	0	1290.500	0	19.2	4	5.9	4	-1E+10	1	-1E+10	1	-1E+10	1	-1E+10	1	-1E+10	1	-1E+10	1
4901784	27	C	03/31/2016	10:45	-132.078	44.660	0	1310.40	0	2.7820	0	34.4560	0	27.478	0	1295.724	0	19.4	4	5.9	4	-1E+10	1	-1E+10	1	-1E+10	1	-1E+10	1	-1E+10	1	-1E+10	1
4901784	27	C	03/31/2016	10:45	-132.078	44.660	0	1315.70	0	2.7750	0	34.4570	0	27.480	0	1300.949	0	19.6	4	6.0	4	-1E+10	1	-1E+10	1	-1E+10	1	-1E+10	1	-1E+10	1	-1E+10	1
4901784	27	C	03/31/2016	10:45	-132.078	44.660	0	1320.10	0	2.7660	0	34.4590	0	27.482	0	1305.286	0	19.7	4	6.1	4	-1E+10	1	-1E+10	1	-1E+10	1	-1E+10	1	-1E+10	1	-1E+10	1
4901784	27	C	03/31/2016	10:45	-132.078	44.660	0	1324.60	0	2.7600	0	34.4590	0	27.483	0	1309.721	0	19.9	4	6.1	4	-1E+10	1	-1E+10	1	-1E+10	1	-1E+10	1	-1E+10	1	-1E+10	1
4901784	27	C	03/31/2016	10:45	-132.078	44.660	0	1330.00	0	2.7530	0	34.4600	0	27.484	0	1315.044	0	20.1	4	6.2	4	-1E+10	1	-1E+10	1	-1E+10	1	-1E+10	1	-1E+10	1	-1E+10	1
4901784	27	C	03/31/2016	10:45	-132.078	44.660	0	1335.30	0	2.7420	0	34.4620	0	27.487	0	1320.268	0	20.4	4	6.2	4	-1E+10	1	-1E+10	1	-1E+10	1	-1E+10	1	-1E+10	1	-1E+10	1
4901784	27	C	03/31/2016	10:45	-132.078	44.660	0	1339.80	0	2.7320	0	34.4630	0	27.488	0	1324.703	0	20.6	4	6.3	4	-1E+10	1	-1E+10	1	-1E+10	1	-1E+10	1	-1E+10	1	-1E+10	1
4901784	27	C	03/31/2016	10:45	-132.078	44.660	0	1345.00	0	2.7250	0	34.4650	0	27.491	0	1329.828	0	20.7	4	6.4	4	-1E+10	1	-1E+10	1	-1E+10	1	-1E+10	1	-1E+10	1	-1E+10	1
4901784	27	C	03/31/2016	10:45	-132.078	44.660	0	1349.90	0	2.7170	0	34.4670	0	27.493	0	1334.657	0	21.0	4	6.4	4	-1E+10	1	-1E+10	1	-1E+10	1	-1E+10	1	-1E+10	1	-1E+10	1
4901784	27	C	03/31/2016	10:45	-132.078	44.660	0	1354.50	0	2.7120	0	34.4670	0	27.494	0	1339.190	0	21.2	4	6.5	4	-1E+10	1	-1E+10	1	-1E+10	1	-1E+10	1	-1E+10	1	-1E+10	1
4901784	27	C	03/31/2016	10:45	-132.078	44.660	0	1359.90	0	2.7010	0	34.4690	0	27.496	0	1344.512	0	21.5	4	6.6	4	-1E+10	1	-1E+10	1	-1E+10	1	-1E+10	1	-1E+10	1	-1E+10	1
4901784	27	C	03/31/2016	10:45	-132.078	44.660	0	1365.50	0	2.6850	0	34.4710	0	27.499	0	1350.031	0	21.8	4	6.7	4	-1E+10	1	-1E+10	1	-1E+10	1	-1E+10	1	-1E+10	1	-1E+10	1
4901784	27	C	03/31/2016	10:45	-132.078	44.660	0	1370.60	0	2.6830	0	34.4710	0	27.499	0	1355.057	0	21.9	4	6.7	4	-1E+10	1	-1E+10	1	-1E+10	1	-1E+10	1	-1E+10	1	-1E+10	1
4901784	27	C	03/31/2016	10:45	-132.078	44.660	0	1374.90	0	2.6770	0	34.4730	0	27.501	0	1359.294	0	22.1	4	6.8	4	-1E+10	1	-1E+10	1	-1E+10	1	-1E+10	1	-1E+10	1	-1E+10	1
4901784	27	C	03/31/2016	10:45	-132.078	44.660	0	1379.20	0	2.6710	0	34.4740	0	27.503	0	1363.531	0	22.4	4	6.9	4	-1E+10	1	-1E+10	1	-1E+10	1	-1E+10	1	-1E+10	1	-1E+10	1
4901784	27	C	03/31/2016	10:45	-132.078	44.660	0	1384.40	0	2.6600	0	34.4760	0	27.505	0	1368.655	0	22.7	4	7.0	4	-1E+10	1	-1E+10	1	-1E+10	1	-1E+10	1	-1E+10	1	-1E+10	1
4901784	27	C	03/31/2016	10:45	-132.078	44.660	0	1389.60	0	2.6460	0	34.4770	0	27.507	0	1373.779	0	23.0	4	7.0	4	-1E+10	1	-1E+10	1	-1E+10	1	-1E+10	1	-1E+10	1	-1E+10	1
4901784	27	C	03/31/2016	10:45	-132.078	44.660	0	1394.90	0	2.6360	0	34.4780	0	27.509	0	1379.002	0	23.2	4	7.1	4	-1E+10	1	-1E+10	1	-1E+10	1	-1E+10	1	-1E+10	1	-1E+10	1
4901784	27	C	03/31/2016	10:45	-132.078	44.660	0	1400.20	0	2.6330	0	34.4790	0	27.510	0	1384.224	0	23.3	4	7.1	4	-1E+10	1	-1E+10	1	-1E+10	1	-1E+10	1	-1E+10	1	-1E+10	1
4901784	27	C	03/31/2016	10:45	-132.078	44.660	0	1405.50	0	2.6280	0	34.4790	0	27.511	0	1389.446	0	23.5	4	7.2	4	-1E+10	1	-1E+10	1	-1E+10	1	-1E+10	1	-1E+10	1	-1E+10	1
4901784	27	C	03/31/2016	10:45	-132.078	44.660	0	1409.90	0	2.6220	0	34.4800	0	27.512	0	1393.781	0	23.7	4	7.2	4	-1E+10	1	-1E+10	1	-1E+10	1	-1E+10	1	-1E+10	1	-1E+10	1
4901784	27	C	03/31/2016	10:45	-132.078	44.660	0	1414.40	0	2.6170	0	34.4820	0	27.514	0	1398.215	0	23.8	4	7.3	4	-1E+10	1	-1E+10	1	-1E+10	1	-1E+10	1	-1E+10	1	-1E+10	1
4901784	27	C	03/31/2016	10:45	-132.078	44.660	0	1419.70	0	2.6120	0	34.4830	0	27.515	0	1403.437	0	24.1	4	7.4	4	-1E+10	1	-1E+10	1	-1E+10	1	-1E+10	1	-1E+10	1	-1E+10	1
4901784	27	C	03/31/2016	10:45	-132.078	44.660	0	1425.20	0	2.6030	0	34.4840	0	27.517	0	1408.855	0	24.4	4	7.5	4	-1E+10	1	-1E+10	1	-1E+10	1	-1E+10	1	-1E+10	1	-1E+10	1
4901784	27	C	03/31/2016	10:45	-132.078	44.660	0	1430.60	0	2.5970	0	34.4850	0	27.518	0	1414.175	0	24.7	4	7.5	4	-1E+10	1	-1E+10	1	-1E+10	1	-1E+10	1	-1E+10	1	-1E+10	1
4901784	27	C	03/31/2016	10:45	-132.078	44.660	0	1435.20	0	2.5880	0	34.4860	0	27.520	0	1418.707	0	24.9	4	7.6	4	-1E+10	1	-1E+10	1	-1E+10	1	-1E+10	1	-1E+10	1	-1E+10	1
4901784	27	C	03/31/2016	10:45	-132.078	44.660	0	1439.80	0	2.5760	0	34.4870	0	27.522	0	1423.239	0	25.2	4	7.7	4	-1E+10	1	-1E+10	1	-1E+10	1	-1E+10	1	-1E+10	1	-1E+10	1
4901784	27	C	03/31/2016	10:45	-132.078	44.660	0	1445.50	0	2.5670	0	34.4890	0	27.524	0	1428.854	0	25.5	4	7.8	4	-1E+10	1	-1E+10	1	-1E+10	1	-1E+10	1	-1E+10	1	-1E+10	1
4901784	27	C	03/31/2016	10:45	-132.078	44.660	0	1450.10	0	2.5610	0	34.4900	0	27.525	0	1433.385	0	25.8	4	7.9	4	-1E+10	1	-1E+10	1	-1E+10	1	-1E+10	1	-1E+10	1	-1E+10	1
4901784	27	C	03/31/2016	10:45	-132.078	44.660	0	1454.70	0	2.5530	0	34.4910	0	27.527	0	1437.917	0	26.1	4	8.0	4	-1E+10	1	-1E+10	1	-1E+10	1	-1E+10	1	-1E+10	1	-1E+10	1
4901784	27	C	03/31/2016	10:45	-132.078	44.660	0	1460.20	0	2.5430	0	34.4920	0	27.529	0	1443.334	0	26.4	4	8.1	4	-1E+10	1	-1E+10	1	-1E+10	1	-1E+10	1	-1E+10	1	-1E+10	1
4901784	27	C	03/31/2016	10:45	-132.078	44.660	0	1464.80	0	2.5360	0	34.4930	0	27.530	0	1447.865	0	26.7	4	8.2	4	-1E+10	1	-1E+10	1	-1E+10	1	-1E+10	1	-1E+10	1	-1E+10	1
4901784	27	C	03/31/2016	10:45	-132.078	44.660	0	1469.30	0	2.5260	0	34.4940	0	27.532	0	1452.298	0	27.0	4	8.2	4	-1E+10	1	-1E+10	1	-1E+10	1	-1E+10	1	-1E+10	1	-1E+10	1
4901784	27	C	03/31/2016	10:45	-132.078	44.660	0	1474.90	0	2.5170	0	34.4950	0	27.533	0	1457.814	0	27.4	4	8.4	4	-1E+10	1	-1E+10	1	-1E+10	1	-1E+10	1	-1E+10	1	-1E+10	1
4901784	27	C	03/31/2016	10:45	-132.078	44.660	0	1480.20	0	2.4990	0	34.4970	0	27.536	0	1463.034	0	27.8	4	8.5	4	-1E+10	1	-1E+10	1	-1E+10	1	-1E+10	1	-1E+10	1	-1E+10	1
4901784	27	C	03/31/2016	10:45	-132.078	44.660	0	1485.50	0	2.4910	0	34.4980	0	27.538	0	1468.254	0	28.1	4	8.6	4	-1E+10	1	-1E+10	1	-1E+10	1	-1E+10	1	-1E+10	1	-1E+10	1
4901784	27	C	03/31/2016	10:45	-132.078	44.660	0	1490.60	0	2.4830	0	34.4990	0	27.539	0	1473.277	0	28.4	4	8.7	4	-1E+10	1	-1E+10	1	-1E+10	1	-1E+10	1	-1E+10	1	-1E+10	1
4901784	27	C	03/31/2016	10:45	-132.078	44.660	0	1495.70	0	2.4710	0	34.5000	0	27.541	0	1478.300	0	28.7	4	8.8	4	-1E+10	1	-1E+10	1	-1E+10	1	-1E+10	1	-1E+10	1	-1E+10	1
4901784	27	C	03/31/2016	10:45	-132.078	44.660	0	1500.00	0	2.4660	0	34.5010	0	27.542	0	1482.535	0	28.9	4	8.8	4	-1E+10	1	-1E+10	1	-1E+10	1	-1E+10	1	-1E+10	1	-1E+10	1
4901784	27	C	03/31/2016	10:45	-132.078	44.660	0	1504.30	0	2.4610	0	34.5020	0	27.544	0	1486.770	0	29.1	4	8.9	4	-1E+10	1	-1E+10	1	-1E+10	1	-1E+10	1	-1E+10	1	-1E+10	1
4901784	27	C	03/31/2016	10:45	-132.078	44.660	0	1509.50	0	2.4540	0	34.5020	0	27.544	0	1491.891	0	29.4	4	9.0	4	-1E+10	1	-1E+10	1	-1E+10	1	-1E+10	1	-1E+10	1	-1E+10	1
4901784	27	C	03/31/2016	10:45	-132.078	44.660	0	1514.60	0	2.4440	0	34.5040	0	27.547	0	1496.913	0	29.8	4	9.1	4	-1E+10	1	-1E+10	1	-1E+10	1	-1E+10	1	-1E+10	1	-1E+10	1
4901784	27	C	03/31/2016	10:45	-132.078	44.660	0	1519.90	0	2.4370	0	34.5040	0	27.547	0	1502.133	0	30.1	4	9.2	4	-1E+10	1	-1E+10	1	-1E+10	1	-1E+10	1	-1E+10	1	-1E+10	1
4901784	27	C	03/31/2016	10:45	-132.078	44.660	0	1525.20	0	2.4230	0	34.5060	0	27.550	0	1507.352	0	30.6	4	9.3	4	-1E+10	1	-1E+10	1	-1E+10	1	-1E+10	1	-1E+10	1	-1E+10	1
4901784	27	C	03/31/2016	10:45	-132.078	44.660	0	1530.50	0	2.4090	0	34.5080	0	27.553	0	1512.571	0	31.0	4	9.4	4	-1E+10	1	-1E+10	1	-1E+10	1	-1E+10	1	-1E+10	1	-1E+10	1
4901784	27	C	03/31/2016	10:45	-132.078	44.660	0	1535.00	0	2.4010	0	34.5090	0	27.554	0	1517.002	0	31.2	4	9.5	4	-1E+10	1	-1E+10	1	-1E+10	1	-1E+10	1	-1E+10	1	-1E+10	1
4901784	27	C	03/31/2016	10:45	-132.078	44.660	0	1539.50	0	2.3970	0	34.5090	0	27.555	0	1521.433	0	31.4	4	9.6	4	-1E+10	1	-1E+10	1	-1E+10	1	-1E+10	1	-1E+10	1	-1E+10	1
4901784	27	C	03/31/2016	10:45	-132.078	44.660	0	1545.00	0	2.3920	0	34.5100	0	27.556	0	1526.849	0	31.8	4	9.7	4	-1E+10	1	-1E+10	1	-1E+10	1	-1E+10	1	-1E+10	1	-1E+10	1
4901784	27	C	03/31/2016	10:45	-132.078	44.660	0	1550.40	0	2.3810	0	34.5120	0	27.558	0	1532.166	0	32.1	4	9.8	4	-1E+10	1	-1E+10	1	-1E+10	1	-1E+10	1	-1E+10	1	-1E+10	1
4901784	27	C	03/31/2016	10:45	-132.078	44.660	0	1554.90	0	2.3790	0	34.5120	0	27.559	0	1536.596	0	32.3	4	9.8	4	-1E+10	1	-1E+10	1	-1E+10	1	-1E+10	1	-1E+10	1	-1E+10	1
4901784	27	C	03/31/2016	10:45	-132.078	44.660	0	1559.50	0	2.3720	0	34.5120	0	27.559	0	1541.126	0	32.6	4	9.9	4	-1E+10	1	-1E+10	1	-1E+10	1	-1E+10	1	-1E+10	1	-1E+10	1
4901784	27	C	03/31/2016	10:45	-132.078	44.660	0	1564.90	0	2.3600	0	34.5140	0	27.562	0	1546.442	0	32.9	4	10.0	4	-1E+10	1	-1E+10	1	-1E+10	1	-1E+10	1	-1E+10	1	-1E+10	1
4901784	27	C	03/31/2016	10:45	-132.078	44.660	0	1570.20	0	2.3550	0	34.5150	0	27.563	0	1551.660	0	33.2	4	10.1	4	-1E+10	1	-1E+10	1	-1E+10	1	-1E+10	1	-1E+10	1	-1E+10	1
4901784	27	C	03/31/2016	10:45	-132.078	44.660	0	1575.50	0	2.3490	0	34.5150	0	27.564	0	1556.878	0	33.5	4	10.2	4	-1E+10	1	-1E+10	1	-1E+10	1	-1E+10	1	-1E+10	1	-1E+10	1
4901784	27	C	03/31/2016	10:45	-132.078	44.660	0	1580.30	0	2.3370	0	34.5170	0	27.566	0	1561.604	0	33.9	4	10.3	4	-1E+10	1	-1E+10	1	-1E+10	1	-1E+10	1	-1E+10	1	-1E+10	1
4901784	27	C	03/31/2016	10:45	-132.078	44.660	0	1585.10	0	2.3340	0	34.5170	0	27.566	0	1566.329	0	34.1	4	10.3	4	-1E+10	1	-1E+10	1	-1E+10	1	-1E+10	1	-1E+10	1	-1E+10	1
4901784	27	C	03/31/2016	10:45	-132.078	44.660	0	1589.90	0	2.3280	0	34.5180	0	27.568	0	1571.055	0	34.4	4	10.4	4	-1E+10	1	-1E+10	1	-1E+10	1	-1E+10	1	-1E+10	1	-1E+10	1
4901784	27	C	03/31/2016	10:45	-132.078	44.660	0	1594.80	0	2.3210	0	34.5190	0	27.569	0	1575.878	0	34.6	4	10.5	4	-1E+10	1	-1E+10	1	-1E+10	1	-1E+10	1	-1E+10	1	-1E+10	1
4901784	27	C	03/31/2016	10:45	-132.078	44.660	0	1599.60	0	2.3140	0	34.5190	0	27.570	0	1580.603	0	35.0	4	10.6	4	-1E+10	1	-1E+10	1	-1E+10	1	-1E+10	1	-1E+10	1	-1E+10	1
4901784	27	C	03/31/2016	10:45	-132.078	44.660	0	1604.60	0	2.3040	0	34.5210	0	27.572	0	1585.525	0	35.4	4	10.8	4	-1E+10	1	-1E+10	1	-1E+10	1	-1E+10	1	-1E+10	1	-1E+10	1
4901784	27	C	03/31/2016	10:45	-132.078	44.660	0	1609.60	0	2.2980	0	34.5220	0	27.574	0	1590.447	0	35.7	4	10.9	4	-1E+10	1	-1E+10	1	-1E+10	1	-1E+10	1	-1E+10	1	-1E+10	1
4901784	27	C	03/31/2016	10:45	-132.078	44.660	0	1614.60	0	2.2920	0	34.5220	0	27.574	0	1595.369	0	36.1	4	11.0	4	-1E+10	1	-1E+10	1	-1E+10	1	-1E+10	1	-1E+10	1	-1E+10	1
4901784	27	C	03/31/2016	10:45	-132.078	44.660	0	1619.70	0	2.2820	0	34.5240	0	27.577	0	1600.389	0	36.4	4	11.1	4	-1E+10	1	-1E+10	1	-1E+10	1	-1E+10	1	-1E+10	1	-1E+10	1
4901784	27	C	03/31/2016	10:45	-132.078	44.660	0	1624.80	0	2.2760	0	34.5240	0	27.577	0	1605.409	0	36.7	4	11.1	4	-1E+10	1	-1E+10	1	-1E+10	1	-1E+10	1	-1E+10	1	-1E+10	1
4901784	27	C	03/31/2016	10:45	-132.078	44.660	0	1629.90	0	2.2700	0	34.5250	0	27.578	0	1610.428	0	37.0	4	11.2	4	-1E+10	1	-1E+10	1	-1E+10	1	-1E+10	1	-1E+10	1	-1E+10	1
4901784	27	C	03/31/2016	10:45	-132.078	44.660	0	1634.90	0	2.2640	0	34.5260	0	27.580	0	1615.350	0	37.3	4	11.3	4	-1E+10	1	-1E+10	1	-1E+10	1	-1E+10	1	-1E+10	1	-1E+10	1
4901784	27	C	03/31/2016	10:45	-132.078	44.660	0	1640.00	0	2.2580	0	34.5260	0	27.580	0	1620.369	0	37.6	4	11.4	4	-1E+10	1	-1E+10	1	-1E+10	1	-1E+10	1	-1E+10	1	-1E+10	1
4901784	27	C	03/31/2016	10:45	-132.078	44.660	0	1645.10	0	2.2510	0	34.5280	0	27.582	0	1625.389	0	38.0	4	11.5	4	-1E+10	1	-1E+10	1	-1E+10	1	-1E+10	1	-1E+10	1	-1E+10	1
4901784	27	C	03/31/2016	10:45	-132.078	44.660	0	1650.10	0	2.2430	0	34.5290	0	27.584	0	1630.309	0	38.3	4	11.6	4	-1E+10	1	-1E+10	1	-1E+10	1	-1E+10	1	-1E+10	1	-1E+10	1
4901784	27	C	03/31/2016	10:45	-132.078	44.660	0	1655.30	0	2.2350	0	34.5300	0	27.585	0	1635.427	0	38.7	4	11.7	4	-1E+10	1	-1E+10	1	-1E+10	1	-1E+10	1	-1E+10	1	-1E+10	1
4901784	27	C	03/31/2016	10:45	-132.078	44.660	0	1660.40	0	2.2270	0	34.5310	0	27.587	0	1640.446	0	39.1	4	11.8	4	-1E+10	1	-1E+10	1	-1E+10	1	-1E+10	1	-1E+10	1	-1E+10	1
4901784	27	C	03/31/2016	10:45	-132.078	44.660	0	1665.60	0	2.2220	0	34.5320	0	27.588	0	1645.563	0	39.4	4	11.9	4	-1E+10	1	-1E+10	1	-1E+10	1	-1E+10	1	-1E+10	1	-1E+10	1
4901784	27	C	03/31/2016	10:45	-132.078	44.660	0	1669.90	0	2.2170	0	34.5320	0	27.588	0	1649.795	0	39.7	4	12.0	4	-1E+10	1	-1E+10	1	-1E+10	1	-1E+10	1	-1E+10	1	-1E+10	1
4901784	27	C	03/31/2016	10:45	-132.078	44.660	0	1674.20	0	2.2110	0	34.5330	0	27.590	0	1654.026	0	39.9	4	12.1	4	-1E+10	1	-1E+10	1	-1E+10	1	-1E+10	1	-1E+10	1	-1E+10	1
4901784	27	C	03/31/2016	10:45	-132.078	44.660	0	1679.50	0	2.2090	0	34.5330	0	27.590	0	1659.242	0	40.1	4	12.2	4	-1E+10	1	-1E+10	1	-1E+10	1	-1E+10	1	-1E+10	1	-1E+10	1
4901784	27	C	03/31/2016	10:45	-132.078	44.660	0	1684.80	0	2.2020	0	34.5340	0	27.591	0	1664.457	0	40.5	4	12.3	4	-1E+10	1	-1E+10	1	-1E+10	1	-1E+10	1	-1E+10	1	-1E+10	1
4901784	27	C	03/31/2016	10:45	-132.078	44.660	0	1690.10	0	2.1950	0	34.5340	0	27.592	0	1669.672	0	40.8	4	12.4	4	-1E+10	1	-1E+10	1	-1E+10	1	-1E+10	1	-1E+10	1	-1E+10	1
4901784	27	C	03/31/2016	10:45	-132.078	44.660	0	1695.40	0	2.1870	0	34.5350	0	27.593	0	1674.887	0	41.2	4	12.5	4	-1E+10	1	-1E+10	1	-1E+10	1	-1E+10	1	-1E+10	1	-1E+10	1
4901784	27	C	03/31/2016	10:45	-132.078	44.660	0	1700.70	0	2.1820	0	34.5360	0	27.595	0	1680.102	0	41.5	4	12.6	4	-1E+10	1	-1E+10	1	-1E+10	1	-1E+10	1	-1E+10	1	-1E+10	1
4901784	27	C	03/31/2016	10:45	-132.078	44.660	0	1705.20	0	2.1770	0	34.5370	0	27.596	0	1684.530	0	41.7	4	12.6	4	-1E+10	1	-1E+10	1	-1E+10	1	-1E+10	1	-1E+10	1	-1E+10	1
4901784	27	C	03/31/2016	10:45	-132.078	44.660	0	1709.60	0	2.1720	0	34.5370	0	27.596	0	1688.859	0	42.1	4	12.7	4	-1E+10	1	-1E+10	1	-1E+10	1	-1E+10	1	-1E+10	1	-1E+10	1
4901784	27	C	03/31/2016	10:45	-132.078	44.660	0	1715.00	0	2.1640	0	34.5390	0	27.598	0	1694.172	0	42.4	4	12.8	4	-1E+10	1	-1E+10	1	-1E+10	1	-1E+10	1	-1E+10	1	-1E+10	1
4901784	27	C	03/31/2016	10:45	-132.078	44.660	0	1720.40	0	2.1600	0	34.5390	0	27.599	0	1699.485	0	42.6	4	12.9	4	-1E+10	1	-1E+10	1	-1E+10	1	-1E+10	1	-1E+10	1	-1E+10	1
4901784	27	C	03/31/2016	10:45	-132.078	44.660	0	1724.90	0	2.1570	0	34.5400	0	27.600	0	1703.912	0	42.9	4	13.0	4	-1E+10	1	-1E+10	1	-1E+10	1	-1E+10	1	-1E+10	1	-1E+10	1
4901784	27	C	03/31/2016	10:45	-132.078	44.660	0	1729.50	0	2.1520	0	34.5400	0	27.600	0	1708.437	0	43.2	4	13.1	4	-1E+10	1	-1E+10	1	-1E+10	1	-1E+10	1	-1E+10	1	-1E+10	1
4901784	27	C	03/31/2016	10:45	-132.078	44.660	0	1735.00	0	2.1450	0	34.5410	0	27.602	0	1713.848	0	43.6	4	13.2	4	-1E+10	1	-1E+10	1	-1E+10	1	-1E+10	1	-1E+10	1	-1E+10	1
4901784	27	C	03/31/2016	10:45	-132.078	44.660	0	1740.50	0	2.1350	0	34.5420	0	27.603	0	1719.259	0	44.1	4	13.3	4	-1E+10	1	-1E+10	1	-1E+10	1	-1E+10	1	-1E+10	1	-1E+10	1
4901784	27	C	03/31/2016	10:45	-132.078	44.660	0	1745.10	0	2.1300	0	34.5430	0	27.605	0	1723.784	0	44.5	4	13.4	4	-1E+10	1	-1E+10	1	-1E+10	1	-1E+10	1	-1E+10	1	-1E+10	1
4901784	27	C	03/31/2016	10:45	-132.078	44.660	0	1749.80	0	2.1210	0	34.5440	0	27.606	0	1728.408	0	44.8	4	13.6	4	-1E+10	1	-1E+10	1	-1E+10	1	-1E+10	1	-1E+10	1	-1E+10	1
4901784	27	C	03/31/2016	10:45	-132.078	44.660	0	1755.00	0	2.1150	0	34.5450	0	27.607	0	1733.523	0	45.2	4	13.7	4	-1E+10	1	-1E+10	1	-1E+10	1	-1E+10	1	-1E+10	1	-1E+10	1
4901784	27	C	03/31/2016	10:45	-132.078	44.660	0	1759.30	0	2.1090	0	34.5460	0	27.609	0	1737.753	0	45.5	4	13.8	4	-1E+10	1	-1E+10	1	-1E+10	1	-1E+10	1	-1E+10	1	-1E+10	1
4901784	27	C	03/31/2016	10:45	-132.078	44.660	0	1765.00	0	2.1030	0	34.5470	0	27.610	0	1743.359	0	45.9	4	13.9	4	-1E+10	1	-1E+10	1	-1E+10	1	-1E+10	1	-1E+10	1	-1E+10	1
4901784	27	C	03/31/2016	10:45	-132.078	44.660	0	1770.60	0	2.0980	0	34.5480	0	27.611	0	1748.868	0	46.3	4	14.0	4	-1E+10	1	-1E+10	1	-1E+10	1	-1E+10	1	-1E+10	1	-1E+10	1
4901784	27	C	03/31/2016	10:45	-132.078	44.660	0	1775.60	0	2.0930	0	34.5490	0	27.612	0	1753.786	0	46.6	4	14.1	4	-1E+10	1	-1E+10	1	-1E+10	1	-1E+10	1	-1E+10	1	-1E+10	1
4901784	27	C	03/31/2016	10:45	-132.078	44.660	0	1780.50	0	2.0910	0	34.5500	0	27.613	0	1758.605	0	46.8	4	14.1	4	-1E+10	1	-1E+10	1	-1E+10	1	-1E+10	1	-1E+10	1	-1E+10	1
4901784	27	C	03/31/2016	10:45	-132.078	44.660	0	1785.40	0	2.0870	0	34.5500	0	27.614	0	1763.425	0	47.1	4	14.2	4	-1E+10	1	-1E+10	1	-1E+10	1	-1E+10	1	-1E+10	1	-1E+10	1
4901784	27	C	03/31/2016	10:45	-132.078	44.660	0	1790.40	0	2.0820	0	34.5510	0	27.615	0	1768.342	0	47.4	4	14.3	4	-1E+10	1	-1E+10	1	-1E+10	1	-1E+10	1	-1E+10	1	-1E+10	1
4901784	27	C	03/31/2016	10:45	-132.078	44.660	0	1795.40	0	2.0770	0	34.5510	0	27.615	0	1773.260	0	47.6	4	14.4	4	-1E+10	1	-1E+10	1	-1E+10	1	-1E+10	1	-1E+10	1	-1E+10	1
4901784	27	C	03/31/2016	10:45	-132.078	44.660	0	1800.50	0	2.0730	0	34.5520	0	27.617	0	1778.276	0	47.9	4	14.5	4	-1E+10	1	-1E+10	1	-1E+10	1	-1E+10	1	-1E+10	1	-1E+10	1
4901784	27	C	03/31/2016	10:45	-132.078	44.660	0	1805.60	0	2.0690	0	34.5520	0	27.617	0	1783.291	0	48.2	4	14.5	4	-1E+10	1	-1E+10	1	-1E+10	1	-1E+10	1	-1E+10	1	-1E+10	1
4901784	27	C	03/31/2016	10:45	-132.078	44.660	0	1810.70	0	2.0660	0	34.5530	0	27.618	0	1788.307	0	48.3	4	14.6	4	-1E+10	1	-1E+10	1	-1E+10	1	-1E+10	1	-1E+10	1	-1E+10	1
4901784	27	C	03/31/2016	10:45	-132.078	44.660	0	1815.00	0	2.0650	0	34.5530	0	27.618	0	1792.535	0	48.5	4	14.6	4	-1E+10	1	-1E+10	1	-1E+10	1	-1E+10	1	-1E+10	1	-1E+10	1
4901784	27	C	03/31/2016	10:45	-132.078	44.660	0	1819.30	0	2.0620	0	34.5540	0	27.619	0	1796.764	0	48.7	4	14.7	4	-1E+10	1	-1E+10	1	-1E+10	1	-1E+10	1	-1E+10	1	-1E+10	1
4901784	27	C	03/31/2016	10:45	-132.078	44.660	0	1824.40	0	2.0610	0	34.5540	0	27.619	0	1801.779	0	48.9	4	14.8	4	-1E+10	1	-1E+10	1	-1E+10	1	-1E+10	1	-1E+10	1	-1E+10	1
4901784	27	C	03/31/2016	10:45	-132.078	44.660	0	1829.60	0	2.0570	0	34.5550	0	27.620	0	1806.893	0	49.3	4	14.9	4	-1E+10	1	-1E+10	1	-1E+10	1	-1E+10	1	-1E+10	1	-1E+10	1
4901784	27	C	03/31/2016	10:45	-132.078	44.660	0	1834.80	0	2.0540	0	34.5550	0	27.621	0	1812.006	0	49.7	4	15.0	4	-1E+10	1	-1E+10	1	-1E+10	1	-1E+10	1	-1E+10	1	-1E+10	1
4901784	27	C	03/31/2016	10:45	-132.078	44.660	0	1840.00	0	2.0460	0	34.5560	0	27.622	0	1817.119	0	50.0	4	15.1	4	-1E+10	1	-1E+10	1	-1E+10	1	-1E+10	1	-1E+10	1	-1E+10	1
4901784	27	C	03/31/2016	10:45	-132.078	44.660	0	1845.20	0	2.0400	0	34.5570	0	27.623	0	1822.232	0	50.4	4	15.2	4	-1E+10	1	-1E+10	1	-1E+10	1	-1E+10	1	-1E+10	1	-1E+10	1
4901784	27	C	03/31/2016	10:45	-132.078	44.660	0	1850.50	0	2.0350	0	34.5580	0	27.625	0	1827.443	0	50.7	4	15.3	4	-1E+10	1	-1E+10	1	-1E+10	1	-1E+10	1	-1E+10	1	-1E+10	1
4901784	27	C	03/31/2016	10:45	-132.078	44.660	0	1854.90	0	2.0320	0	34.5580	0	27.625	0	1831.770	0	50.9	4	15.4	4	-1E+10	1	-1E+10	1	-1E+10	1	-1E+10	1	-1E+10	1	-1E+10	1
4901784	27	C	03/31/2016	10:45	-132.078	44.660	0	1859.40	0	2.0300	0	34.5590	0	27.626	0	1836.194	0	51.1	4	15.4	4	-1E+10	1	-1E+10	1	-1E+10	1	-1E+10	1	-1E+10	1	-1E+10	1
4901784	27	C	03/31/2016	10:45	-132.078	44.660	0	1864.70	0	2.0270	0	34.5590	0	27.626	0	1841.405	0	51.5	4	15.5	4	-1E+10	1	-1E+10	1	-1E+10	1	-1E+10	1	-1E+10	1	-1E+10	1
4901784	27	C	03/31/2016	10:45	-132.078	44.660	0	1870.00	0	2.0220	0	34.5600	0	27.627	0	1846.616	0	51.8	4	15.6	4	-1E+10	1	-1E+10	1	-1E+10	1	-1E+10	1	-1E+10	1	-1E+10	1
4901784	27	C	03/31/2016	10:45	-132.078	44.660	0	1875.40	0	2.0180	0	34.5610	0	27.628	0	1851.925	0	52.1	4	15.7	4	-1E+10	1	-1E+10	1	-1E+10	1	-1E+10	1	-1E+10	1	-1E+10	1
4901784	27	C	03/31/2016	10:45	-132.078	44.660	0	1880.70	0	2.0120	0	34.5620	0	27.630	0	1857.135	0	52.5	4	15.8	4	-1E+10	1	-1E+10	1	-1E+10	1	-1E+10	1	-1E+10	1	-1E+10	1
4901784	27	C	03/31/2016	10:45	-132.078	44.660	0	1885.10	0	2.0060	0	34.5630	0	27.631	0	1861.461	0	52.9	4	16.0	4	-1E+10	1	-1E+10	1	-1E+10	1	-1E+10	1	-1E+10	1	-1E+10	1
4901784	27	C	03/31/2016	10:45	-132.078	44.660	0	1889.60	0	2.0030	0	34.5630	0	27.631	0	1865.885	0	53.3	4	16.1	4	-1E+10	1	-1E+10	1	-1E+10	1	-1E+10	1	-1E+10	1	-1E+10	1
4901784	27	C	03/31/2016	10:45	-132.078	44.660	0	1894.90	0	1.9960	0	34.5640	0	27.633	0	1871.095	0	53.7	4	16.2	4	-1E+10	1	-1E+10	1	-1E+10	1	-1E+10	1	-1E+10	1	-1E+10	1
4901784	27	C	03/31/2016	10:45	-132.078	44.660	0	1900.30	0	1.9920	0	34.5650	0	27.634	0	1876.403	0	54.0	4	16.3	4	-1E+10	1	-1E+10	1	-1E+10	1	-1E+10	1	-1E+10	1	-1E+10	1
4901784	27	C	03/31/2016	10:45	-132.078	44.660	0	1905.70	0	1.9890	0	34.5660	0	27.635	0	1881.712	0	54.2	4	16.3	4	-1E+10	1	-1E+10	1	-1E+10	1	-1E+10	1	-1E+10	1	-1E+10	1
4901784	27	C	03/31/2016	10:45	-132.078	44.660	0	1910.20	0	1.9840	0	34.5670	0	27.636	0	1886.135	0	54.5	4	16.4	4	-1E+10	1	-1E+10	1	-1E+10	1	-1E+10	1	-1E+10	1	-1E+10	1
4901784	27	C	03/31/2016	10:45	-132.078	44.660	0	1914.70	0	1.9820	0	34.5670	0	27.636	0	1890.558	0	54.6	4	16.5	4	-1E+10	1	-1E+10	1	-1E+10	1	-1E+10	1	-1E+10	1	-1E+10	1
4901784	27	C	03/31/2016	10:45	-132.078	44.660	0	1920.10	0	1.9790	0	34.5670	0	27.637	0	1895.866	0	54.9	4	16.5	4	-1E+10	1	-1E+10	1	-1E+10	1	-1E+10	1	-1E+10	1	-1E+10	1
4901784	27	C	03/31/2016	10:45	-132.078	44.660	0	1925.60	0	1.9740	0	34.5680	0	27.638	0	1901.272	0	55.2	4	16.6	4	-1E+10	1	-1E+10	1	-1E+10	1	-1E+10	1	-1E+10	1	-1E+10	1
4901784	27	C	03/31/2016	10:45	-132.078	44.660	0	1930.20	0	1.9710	0	34.5680	0	27.638	0	1905.794	0	55.4	4	16.7	4	-1E+10	1	-1E+10	1	-1E+10	1	-1E+10	1	-1E+10	1	-1E+10	1
4901784	27	C	03/31/2016	10:45	-132.078	44.660	0	1934.80	0	1.9670	0	34.5690	0	27.639	0	1910.315	0	55.6	4	16.8	4	-1E+10	1	-1E+10	1	-1E+10	1	-1E+10	1	-1E+10	1	-1E+10	1
4901784	27	C	03/31/2016	10:45	-132.078	44.660	0	1940.30	0	1.9610	0	34.5700	0	27.640	0	1915.721	0	56.0	4	16.9	4	-1E+10	1	-1E+10	1	-1E+10	1	-1E+10	1	-1E+10	1	-1E+10	1
4901784	27	C	03/31/2016	10:45	-132.078	44.660	0	1945.00	0	1.9600	0	34.5710	0	27.641	0	1920.340	0	56.3	4	16.9	4	-1E+10	1	-1E+10	1	-1E+10	1	-1E+10	1	-1E+10	1	-1E+10	1
4901784	27	C	03/31/2016	10:45	-132.078	44.660	0	1949.70	0	1.9590	0	34.5710	0	27.641	0	1924.959	0	56.5	4	17.0	4	-1E+10	1	-1E+10	1	-1E+10	1	-1E+10	1	-1E+10	1	-1E+10	1
4901784	27	C	03/31/2016	10:45	-132.078	44.660	0	1954.90	0	1.9550	0	34.5720	0	27.643	0	1930.069	0	56.8	4	17.1	4	-1E+10	1	-1E+10	1	-1E+10	1	-1E+10	1	-1E+10	1	-1E+10	1
4901784	27	C	03/31/2016	10:45	-132.078	44.660	0	1959.20	0	1.9530	0	34.5720	0	27.643	0	1934.295	0	57.0	4	17.2	4	-1E+10	1	-1E+10	1	-1E+10	1	-1E+10	1	-1E+10	1	-1E+10	1
4901784	27	C	03/31/2016	10:45	-132.078	44.660	0	1965.00	0	1.9510	0	34.5730	0	27.644	0	1939.995	0	57.3	4	17.2	4	-1E+10	1	-1E+10	1	-1E+10	1	-1E+10	1	-1E+10	1	-1E+10	1
4901784	27	C	03/31/2016	10:45	-132.078	44.660	0	1970.80	0	1.9480	0	34.5730	0	27.644	0	1945.695	0	57.5	4	17.3	4	-1E+10	1	-1E+10	1	-1E+10	1	-1E+10	1	-1E+10	1	-1E+10	1
4901784	27	C	03/31/2016	10:45	-132.078	44.660	0	1975.70	0	1.9470	0	34.5730	0	27.644	0	1950.510	0	57.7	4	17.4	4	-1E+10	1	-1E+10	1	-1E+10	1	-1E+10	1	-1E+10	1	-1E+10	1
4901784	27	C	03/31/2016	10:45	-132.078	44.660	0	1980.70	0	1.9440	0	34.5740	0	27.645	0	1955.423	0	57.9	4	17.4	4	-1E+10	1	-1E+10	1	-1E+10	1	-1E+10	1	-1E+10	1	-1E+10	1
4901784	27	C	03/31/2016	10:45	-132.078	44.660	0	1985.80	0	1.9410	0	34.5740	0	27.645	0	1960.435	0	58.1	4	17.5	4	-1E+10	1	-1E+10	1	-1E+10	1	-1E+10	1	-1E+10	1	-1E+10	1
4901784	27	C	03/31/2016	10:45	-132.078	44.660	0	1990.80	0	1.9390	0	34.5750	0	27.646	0	1965.348	0	58.3	4	17.5	4	-1E+10	1	-1E+10	1	-1E+10	1	-1E+10	1	-1E+10	1	-1E+10	1
4901784	27	C	03/31/2016	10:45	-132.078	44.660	0	1995.00	0	1.9370	0	34.5750	0	27.647	0	1969.475	0	58.5	4	17.6	4	-1E+10	1	-1E+10	1	-1E+10	1	-1E+10	1	-1E+10	1	-1E+10	1
4901784	27	C	03/31/2016	10:45	-132.078	44.660	0	1999.30	0	1.9340	0	34.5760	0	27.648	0	1973.700	0	58.8	4	17.7	4	-1E+10	1	-1E+10	1	-1E+10	1	-1E+10	1	-1E+10	1	-1E+10	1
4901784	27	C	03/31/2016	10:45	-132.078	44.660	0	2005.00	0	1.9300	0	34.5760	0	27.648	0	1979.300	0	59.2	4	17.8	4	-1E+10	1	-1E+10	1	-1E+10	1	-1E+10	1	-1E+10	1	-1E+10	1
4901784	27	C	03/31/2016	10:45	-132.078	44.660	0	2009.60	0	1.9270	0	34.5770	0	27.649	0	1983.820	0	59.4	4	17.9	4	-1E+10	1	-1E+10	1	-1E+10	1	-1E+10	1	-1E+10	1	-1E+10	1
4901784	27	C	03/31/2016	10:45	-132.078	44.660	0	2015.10	0	1.9240	0	34.5770	0	27.649	0	1989.224	0	59.6	4	17.9	4	-1E+10	1	-1E+10	1	-1E+10	1	-1E+10	1	-1E+10	1	-1E+10	1
4901784	27	C	03/31/2016	10:45	-132.078	44.660	0	2020.20	0	1.9230	0	34.5780	0	27.650	0	1994.235	0	59.7	4	18.0	4	-1E+10	1	-1E+10	1	-1E+10	1	-1E+10	1	-1E+10	1	-1E+10	1
4901784	27	C	03/31/2016	10:45	-132.078	44.660	0																										
4901784	28	C	04/10/2016	10:48	-132.094	44.629	0	3.20	0	10.3870	0	32.7720	0	25.148	0	3.174	0	274.7	4	99.3	4	-1E+10	1	-1E+10	1	-1E+10	1	-1E+10	1	-1E+10	1	-1E+10	1
4901784	28	C	04/10/2016	10:48	-132.094	44.629	0	4.80	0	10.3890	0	32.7710	0	25.147	0	4.761	0	274.7	4	99.3	4	-1E+10	1	-1E+10	1	-1E+10	1	-1E+10	1	-1E+10	1	-1E+10	1
4901784	28	C	04/10/2016	10:48	-132.094	44.629	0	6.30	0	10.3890	0	32.7710	0	25.147	0	6.249	0	274.7	4	99.3	4	-1E+10	1	-1E+10	1	-1E+10	1	-1E+10	1	-1E+10	1	-1E+10	1
4901784	28	C	04/10/2016	10:48	-132.094	44.629	0	8.00	0	10.3870	0	32.7710	0	25.147	0	7.935	0	274.8	4	99.3	4	-1E+10	1	-1E+10	1	-1E+10	1	-1E+10	1	-1E+10	1	-1E+10	1
4901784	28	C	04/10/2016	10:48	-132.094	44.629	0	9.60	0	10.3880	0	32.7710	0	25.147	0	9.522	0	274.7	4	99.3	4	-1E+10	1	-1E+10	1	-1E+10	1	-1E+10	1	-1E+10	1	-1E+10	1
4901784	28	C	04/10/2016	10:48	-132.094	44.629	0	11.30	0	10.3870	0	32.7710	0	25.147	0	11.208	0	274.5	4	99.2	4	-1E+10	1	-1E+10	1	-1E+10	1	-1E+10	1	-1E+10	1	-1E+10	1
4901784	28	C	04/10/2016	10:48	-132.094	44.629	0	13.00	0	10.3860	0	32.7710	0	25.147	0	12.895	0	274.5	4	99.2	4	-1E+10	1	-1E+10	1	-1E+10	1	-1E+10	1	-1E+10	1	-1E+10	1
4901784	28	C	04/10/2016	10:48	-132.094	44.629	0	14.60	0	10.3870	0	32.7710	0	25.147	0	14.481	0	274.4	4	99.1	4	-1E+10	1	-1E+10	1	-1E+10	1	-1E+10	1	-1E+10	1	-1E+10	1
4901784	28	C	04/10/2016	10:48	-132.094	44.629	0	16.30	0	10.3860	0	32.7710	0	25.148	0	16.168	0	274.5	4	99.2	4	-1E+10	1	-1E+10	1	-1E+10	1	-1E+10	1	-1E+10	1	-1E+10	1
4901784	28	C	04/10/2016	10:48	-132.094	44.629	0	17.90	0	10.3870	0	32.7710	0	25.147	0	17.755	0	274.3	4	99.1	4	-1E+10	1	-1E+10	1	-1E+10	1	-1E+10	1	-1E+10	1	-1E+10	1
4901784	28	C	04/10/2016	10:48	-132.094	44.629	0	19.60	0	10.3860	0	32.7710	0	25.148	0	19.441	0	274.5	4	99.2	4	-1E+10	1	-1E+10	1	-1E+10	1	-1E+10	1	-1E+10	1	-1E+10	1
4901784	28	C	04/10/2016	10:48	-132.094	44.629	0	21.30	0	10.3880	0	32.7700	0	25.146	0	21.127	0	274.3	4	99.1	4	-1E+10	1	-1E+10	1	-1E+10	1	-1E+10	1	-1E+10	1	-1E+10	1
4901784	28	C	04/10/2016	10:48	-132.094	44.629	0	23.00	0	10.3880	0	32.7700	0	25.147	0	22.813	0	274.5	4	99.2	4	-1E+10	1	-1E+10	1	-1E+10	1	-1E+10	1	-1E+10	1	-1E+10	1
4901784	28	C	04/10/2016	10:48	-132.094	44.629	0	24.70	0	10.3880	0	32.7700	0	25.147	0	24.499	0	274.3	4	99.1	4	-1E+10	1	-1E+10	1	-1E+10	1	-1E+10	1	-1E+10	1	-1E+10	1
4901784	28	C	04/10/2016	10:48	-132.094	44.629	0	26.40	0	10.3830	0	32.7690	0	25.147	0	26.185	0	274.2	4	99.1	4	-1E+10	1	-1E+10	1	-1E+10	1	-1E+10	1	-1E+10	1	-1E+10	1
4901784	28	C	04/10/2016	10:48	-132.094	44.629	0	28.20	0	10.3800	0	32.7690	0	25.147	0	27.970	0	274.3	4	99.1	4	-1E+10	1	-1E+10	1	-1E+10	1	-1E+10	1	-1E+10	1	-1E+10	1
4901784	28	C	04/10/2016	10:48	-132.094	44.629	0	30.00	0	10.3800	0	32.7660	0	25.145	0	29.755	0	274.3	4	99.1	4	-1E+10	1	-1E+10	1	-1E+10	1	-1E+10	1	-1E+10	1	-1E+10	1
4901784	28	C	04/10/2016	10:48	-132.094	44.629	0	31.70	0	10.3740	0	32.7650	0	25.145	0	31.441	0	274.4	4	99.1	4	-1E+10	1	-1E+10	1	-1E+10	1	-1E+10	1	-1E+10	1	-1E+10	1
4901784	28	C	04/10/2016	10:48	-132.094	44.629	0	33.40	0	10.3510	0	32.7630	0	25.148	0	33.127	0	274.9	4	99.2	4	-1E+10	1	-1E+10	1	-1E+10	1	-1E+10	1	-1E+10	1	-1E+10	1
4901784	28	C	04/10/2016	10:48	-132.094	44.629	0	35.10	0	10.2750	0	32.7620	0	25.160	0	34.813	0	274.9	4	99.1	4	-1E+10	1	-1E+10	1	-1E+10	1	-1E+10	1	-1E+10	1	-1E+10	1
4901784	28	C	04/10/2016	10:48	-132.094	44.629	0	36.80	0	10.1760	0	32.7630	0	25.177	0	36.499	0	275.4	4	99.1	4	-1E+10	1	-1E+10	1	-1E+10	1	-1E+10	1	-1E+10	1	-1E+10	1
4901784	28	C	04/10/2016	10:48	-132.094	44.629	0	38.60	0	10.0770	0	32.7540	0	25.187	0	38.284	0	275.7	4	98.9	4	-1E+10	1	-1E+10	1	-1E+10	1	-1E+10	1	-1E+10	1	-1E+10	1
4901784	28	C	04/10/2016	10:48	-132.094	44.629	0	40.50	0	10.0130	0	32.7530	0	25.197	0	40.169	0	275.4	4	98.7	4	-1E+10	1	-1E+10	1	-1E+10	1	-1E+10	1	-1E+10	1	-1E+10	1
4901784	28	C	04/10/2016	10:48	-132.094	44.629	0	42.40	0	9.9990	0	32.7500	0	25.197	0	42.053	0	274.6	4	98.4	4	-1E+10	1	-1E+10	1	-1E+10	1	-1E+10	1	-1E+10	1	-1E+10	1
4901784	28	C	04/10/2016	10:48	-132.094	44.629	0	44.20	0	9.8690	0	32.7580	0	25.225	0	43.838	0	273.8	4	97.8	4	-1E+10	1	-1E+10	1	-1E+10	1	-1E+10	1	-1E+10	1	-1E+10	1
4901784	28	C	04/10/2016	10:48	-132.094	44.629	0	46.00	0	9.7730	0	32.7530	0	25.236	0	45.623	0	273.3	4	97.5	4	-1E+10	1	-1E+10	1	-1E+10	1	-1E+10	1	-1E+10	1	-1E+10	1
4901784	28	C	04/10/2016	10:48	-132.094	44.629	0	47.90	0	9.7250	0	32.7520	0	25.244	0	47.507	0	272.4	4	97.0	4	-1E+10	1	-1E+10	1	-1E+10	1	-1E+10	1	-1E+10	1	-1E+10	1
4901784	28	C	04/10/2016	10:48	-132.094	44.629	0	49.70	0	9.7040	0	32.7570	0	25.251	0	49.292	0	271.3	4	96.6	4	-1E+10	1	-1E+10	1	-1E+10	1	-1E+10	1	-1E+10	1	-1E+10	1
4901784	28	C	04/10/2016	10:48	-132.094	44.629	0	51.60	0	9.6210	0	32.7510	0	25.260	0	51.176	0	270.7	4	96.2	4	-1E+10	1	-1E+10	1	-1E+10	1	-1E+10	1	-1E+10	1	-1E+10	1
4901784	28	C	04/10/2016	10:48	-132.094	44.629	0	53.50	0	9.5910	0	32.7490	0	25.263	0	53.061	0	270.0	4	95.9	4	-1E+10	1	-1E+10	1	-1E+10	1	-1E+10	1	-1E+10	1	-1E+10	1
4901784	28	C	04/10/2016	10:48	-132.094	44.629	0	55.40	0	9.5610	0	32.7490	0	25.268	0	54.945	0	269.0	4	95.5	4	-1E+10	1	-1E+10	1	-1E+10	1	-1E+10	1	-1E+10	1	-1E+10	1
4901784	28	C	04/10/2016	10:48	-132.094	44.629	0	57.20	0	9.5370	0	32.7490	0	25.272	0	56.730	0	267.8	4	95.0	4	-1E+10	1	-1E+10	1	-1E+10	1	-1E+10	1	-1E+10	1	-1E+10	1
4901784	28	C	04/10/2016	10:48	-132.094	44.629	0	59.10	0	9.5170	0	32.7490	0	25.275	0	58.614	0	266.4	4	94.5	4	-1E+10	1	-1E+10	1	-1E+10	1	-1E+10	1	-1E+10	1	-1E+10	1
4901784	28	C	04/10/2016	10:48	-132.094	44.629	0	61.00	0	9.5030	0	32.7500	0	25.278	0	60.498	0	265.7	4	94.2	4	-1E+10	1	-1E+10	1	-1E+10	1	-1E+10	1	-1E+10	1	-1E+10	1
4901784	28	C	04/10/2016	10:48	-132.094	44.629	0	62.90	0	9.4740	0	32.7490	0	25.282	0	62.382	0	265.2	4	93.9	4	-1E+10	1	-1E+10	1	-1E+10	1	-1E+10	1	-1E+10	1	-1E+10	1
4901784	28	C	04/10/2016	10:48	-132.094	44.629	0	64.90	0	9.4730	0	32.7510	0	25.284	0	64.365	0	264.9	4	93.9	4	-1E+10	1	-1E+10	1	-1E+10	1	-1E+10	1	-1E+10	1	-1E+10	1
4901784	28	C	04/10/2016	10:48	-132.094	44.629	0	66.80	0	9.4780	0	32.7540	0	25.286	0	66.249	0	264.8	4	93.8	4	-1E+10	1	-1E+10	1	-1E+10	1	-1E+10	1	-1E+10	1	-1E+10	1
4901784	28	C	04/10/2016	10:48	-132.094	44.629	0	68.70	0	9.4620	0	32.7550	0	25.289	0	68.133	0	264.9	4	93.8	4	-1E+10	1	-1E+10	1	-1E+10	1	-1E+10	1	-1E+10	1	-1E+10	1
4901784	28	C	04/10/2016	10:48	-132.094	44.629	0	71.10	0	9.4510	0	32.7560	0	25.292	0	70.513	0	264.7	4	93.7	4	-1E+10	1	-1E+10	1	-1E+10	1	-1E+10	1	-1E+10	1	-1E+10	1
4901784	28	C	04/10/2016	10:48	-132.094	44.629	0	73.00	0	9.4410	0	32.7560	0	25.293	0	72.397	0	265.0	4	93.8	4	-1E+10	1	-1E+10	1	-1E+10	1	-1E+10	1	-1E+10	1	-1E+10	1
4901784	28	C	04/10/2016	10:48	-132.094	44.629	0	74.60	0	9.4240	0	32.7570	0	25.297	0	73.984	0	264.9	4	93.7	4	-1E+10	1	-1E+10	1	-1E+10	1	-1E+10	1	-1E+10	1	-1E+10	1
4901784	28	C	04/10/2016	10:48	-132.094	44.629	0	76.10	0	9.4090	0	32.7550	0	25.298	0	75.471	0	264.7	4	93.6	4	-1E+10	1	-1E+10	1	-1E+10	1	-1E+10	1	-1E+10	1	-1E+10	1
4901784	28	C	04/10/2016	10:48	-132.094	44.629	0	77.70	0	9.3710	0	32.7520	0	25.301	0	77.057	0	264.3	4	93.4	4	-1E+10	1	-1E+10	1	-1E+10	1	-1E+10	1	-1E+10	1	-1E+10	1
4901784	28	C	04/10/2016	10:48	-132.094	44.629	0	79.30	0	9.3150	0	32.7480	0	25.307	0	78.644	0	263.7	4	93.1	4	-1E+10	1	-1E+10	1	-1E+10	1	-1E+10	1	-1E+10	1	-1E+10	1
4901784	28	C	04/10/2016	10:48	-132.094	44.629	0	80.90	0	9.3070	0	32.7480	0	25.308	0	80.230	0	262.4	4	92.6	4	-1E+10	1	-1E+10	1	-1E+10	1	-1E+10	1	-1E+10	1	-1E+10	1
4901784	28	C	04/10/2016	10:48	-132.094	44.629	0	82.50	0	9.3600	0	32.7620	0	25.311	0	81.817	0	260.6	4	92.1	4	-1E+10	1	-1E+10	1	-1E+10	1	-1E+10	1	-1E+10	1	-1E+10	1
4901784	28	C	04/10/2016	10:48	-132.094	44.629	0	84.10	0	9.3420	0	32.7690	0	25.319	0	83.403	0	259.3	4	91.6	4	-1E+10	1	-1E+10	1	-1E+10	1	-1E+10	1	-1E+10	1	-1E+10	1
4901784	28	C	04/10/2016	10:48	-132.094	44.629	0	85.60	0	9.3700	0	32.7810	0	25.324	0	84.890	0	257.7	4	91.1	4	-1E+10	1	-1E+10	1	-1E+10	1	-1E+10	1	-1E+10	1	-1E+10	1
4901784	28	C	04/10/2016	10:48	-132.094	44.629	0	87.20	0	9.3140	0	32.7810	0	25.333	0	86.477	0	255.9	4	90.4	4	-1E+10	1	-1E+10	1	-1E+10	1	-1E+10	1	-1E+10	1	-1E+10	1
4901784	28	C	04/10/2016	10:48	-132.094	44.629	0	88.80	0	9.3540	0	32.8070	0	25.347	0	88.063	0	253.6	4	89.6	4	-1E+10	1	-1E+10	1	-1E+10	1	-1E+10	1	-1E+10	1	-1E+10	1
4901784	28	C	04/10/2016	10:48	-132.094	44.629	0	90.30	0	9.3480	0	32.8110	0	25.351	0	89.550	0	251.2	4	88.8	4	-1E+10	1	-1E+10	1	-1E+10	1	-1E+10	1	-1E+10	1	-1E+10	1
4901784	28	C	04/10/2016	10:48	-132.094	44.629	0	91.90	0	9.3380	0	32.8150	0	25.356	0	91.137	0	248.5	4	87.8	4	-1E+10	1	-1E+10	1	-1E+10	1	-1E+10	1	-1E+10	1	-1E+10	1
4901784	28	C	04/10/2016	10:48	-132.094	44.629	0	93.60	0	9.3300	0	32.8230	0	25.364	0	92.822	0	244.3	4	86.3	4	-1E+10	1	-1E+10	1	-1E+10	1	-1E+10	1	-1E+10	1	-1E+10	1
4901784	28	C	04/10/2016	10:48	-132.094	44.629	0	95.20	0	9.3380	0	32.8420	0	25.377	0	94.409	0	238.7	4	84.4	4	-1E+10	1	-1E+10	1	-1E+10	1	-1E+10	1	-1E+10	1	-1E+10	1
4901784	28	C	04/10/2016	10:48	-132.094	44.629	0	96.80	0	9.4930	0	32.9580	0	25.443	0	95.995	0	231.7	4	82.2	4	-1E+10	1	-1E+10	1	-1E+10	1	-1E+10	1	-1E+10	1	-1E+10	1
4901784	28	C	04/10/2016	10:48	-132.094	44.629	0	98.40	0	9.4860	0	33.0180	0	25.491	0	97.581	0	227.7	4	80.9	4	-1E+10	1	-1E+10	1	-1E+10	1	-1E+10	1	-1E+10	1	-1E+10	1
4901784	28	C	04/10/2016	10:48	-132.094	44.629	0	100.00	0	9.4540	0	33.0530	0	25.524	0	99.168	0	224.6	4	79.7	4	-1E+10	1	-1E+10	1	-1E+10	1	-1E+10	1	-1E+10	1	-1E+10	1
4901784	28	C	04/10/2016	10:48	-132.094	44.629	0	102.60	0	9.4220	0	33.0820	0	25.552	0	101.745	0	219.5	4	77.8	4	-1E+10	1	-1E+10	1	-1E+10	1	-1E+10	1	-1E+10	1	-1E+10	1
4901784	28	C	04/10/2016	10:48	-132.094	44.629	0	105.10	0	9.3400	0	33.1720	0	25.635	0	104.224	0	214.0	4	75.8	4	-1E+10	1	-1E+10	1	-1E+10	1	-1E+10	1	-1E+10	1	-1E+10	1
4901784	28	C	04/10/2016	10:48	-132.094	44.629	0	107.60	0	9.2760	0	33.2140	0	25.678	0	106.702	0	209.9	4	74.3	4	-1E+10	1	-1E+10	1	-1E+10	1	-1E+10	1	-1E+10	1	-1E+10	1
4901784	28	C	04/10/2016	10:48	-132.094	44.629	0	110.10	0	9.1990	0	33.2660	0	25.731	0	109.181	0	205.7	4	72.7	4	-1E+10	1	-1E+10	1	-1E+10	1	-1E+10	1	-1E+10	1	-1E+10	1
4901784	28	C	04/10/2016	10:48	-132.094	44.629	0	112.70	0	9.0000	0	33.3220	0	25.806	0	111.758	0	203.2	4	71.5	4	-1E+10	1	-1E+10	1	-1E+10	1	-1E+10	1	-1E+10	1	-1E+10	1
4901784	28	C	04/10/2016	10:48	-132.094	44.629	0	115.40	0	8.8550	0	33.3420	0	25.845	0	114.435	0	201.2	4	70.6	4	-1E+10	1	-1E+10	1	-1E+10	1	-1E+10	1	-1E+10	1	-1E+10	1
4901784	28	C	04/10/2016	10:48	-132.094	44.629	0	117.30	0	8.7810	0	33.3740	0	25.881	0	116.319	0	200.5	4	70.3	4	-1E+10	1	-1E+10	1	-1E+10	1	-1E+10	1	-1E+10	1	-1E+10	1
4901784	28	C	04/10/2016	10:48	-132.094	44.629	0	119.10	0	8.7290	0	33.4160	0	25.922	0	118.103	0	200.1	4	70.1	4	-1E+10	1	-1E+10	1	-1E+10	1	-1E+10	1	-1E+10	1	-1E+10	1
4901784	28	C	04/10/2016	10:48	-132.094	44.629	0	122.20	0	8.6420	0	33.5070	0	26.007	0	121.176	0	199.6	4	69.8	4	-1E+10	1	-1E+10	1	-1E+10	1	-1E+10	1	-1E+10	1	-1E+10	1
4901784	28	C	04/10/2016	10:48	-132.094	44.629	0	125.20	0	8.5590	0	33.5560	0	26.058	0	124.150	0	199.1	4	69.5	4	-1E+10	1	-1E+10	1	-1E+10	1	-1E+10	1	-1E+10	1	-1E+10	1
4901784	28	C	04/10/2016	10:48	-132.094	44.629	0	127.70	0	8.5290	0	33.5790	0	26.081	0	126.629	0	198.5	4	69.3	4	-1E+10	1	-1E+10	1	-1E+10	1	-1E+10	1	-1E+10	1	-1E+10	1
4901784	28	C	04/10/2016	10:48	-132.094	44.629	0	130.20	0	8.4910	0	33.5940	0	26.098	0	129.107	0	197.1	4	68.8	4	-1E+10	1	-1E+10	1	-1E+10	1	-1E+10	1	-1E+10	1	-1E+10	1
4901784	28	C	04/10/2016	10:48	-132.094	44.629	0	132.60	0	8.4270	0	33.6320	0	26.138	0	131.486	0	196.3	4	68.4	4	-1E+10	1	-1E+10	1	-1E+10	1	-1E+10	1	-1E+10	1	-1E+10	1
4901784	28	C	04/10/2016	10:48	-132.094	44.629	0	135.00	0	8.4080	0	33.6450	0	26.151	0	133.865	0	196.0	4	68.3	4	-1E+10	1	-1E+10	1	-1E+10	1	-1E+10	1	-1E+10	1	-1E+10	1
4901784	28	C	04/10/2016	10:48	-132.094	44.629	0	137.60	0	8.4040	0	33.6460	0	26.153	0	136.442	0	195.2	4	68.0	4	-1E+10	1	-1E+10	1	-1E+10	1	-1E+10	1	-1E+10	1	-1E+10	1
4901784	28	C	04/10/2016	10:48	-132.094	44.629	0	140.00	0	8.3880	0	33.6550	0	26.162	0	138.821	0	194.3	4	67.7	4	-1E+10	1	-1E+10	1	-1E+10	1	-1E+10	1	-1E+10	1	-1E+10	1
4901784	28	C	04/10/2016	10:48	-132.094	44.629	0	142.40	0	8.3810	0	33.6580	0	26.166	0	141.200	0	193.2	4	67.3	4	-1E+10	1	-1E+10	1	-1E+10	1	-1E+10	1	-1E+10	1	-1E+10	1
4901784	28	C	04/10/2016	10:48	-132.094	44.629	0	144.90	0	8.3130	0	33.6990	0	26.208	0	143.678	0	191.5	4	66.6	4	-1E+10	1	-1E+10	1	-1E+10	1	-1E+10	1	-1E+10	1	-1E+10	1
4901784	28	C	04/10/2016	10:48	-132.094	44.629	0	147.40	0	8.2910	0	33.7090	0	26.219	0	146.156	0	190.8	4	66.3	4	-1E+10	1	-1E+10	1	-1E+10	1	-1E+10	1	-1E+10	1	-1E+10	1
4901784	28	C	04/10/2016	10:48	-132.094	44.629	0	149.90	0	8.2820	0	33.7120	0	26.223	0	148.634	0	189.6	4	65.9	4	-1E+10	1	-1E+10	1	-1E+10	1	-1E+10	1	-1E+10	1	-1E+10	1
4901784	28	C	04/10/2016	10:48	-132.094	44.629	0	152.50	0	8.2070	0	33.7540	0	26.267	0	151.211	0	188.5	4	65.4	4	-1E+10	1	-1E+10	1	-1E+10	1	-1E+10	1	-1E+10	1	-1E+10	1
4901784	28	C	04/10/2016	10:48	-132.094	44.629	0	155.10	0	8.1710	0	33.7700	0	26.285	0	153.788	0	187.4	4	65.0	4	-1E+10	1	-1E+10	1	-1E+10	1	-1E+10	1	-1E+10	1	-1E+10	1
4901784	28	C	04/10/2016	10:48	-132.094	44.629	0	157.70	0	8.1380	0	33.7790	0	26.297	0	156.366	0	186.7	4	64.7	4	-1E+10	1	-1E+10	1	-1E+10	1	-1E+10	1	-1E+10	1	-1E+10	1
4901784	28	C	04/10/2016	10:48	-132.094	44.629	0	160.40	0	8.1270	0	33.7810	0	26.300	0	159.042	0	185.9	4	64.4	4	-1E+10	1	-1E+10	1	-1E+10	1	-1E+10	1	-1E+10	1	-1E+10	1
4901784	28	C	04/10/2016	10:48	-132.094	44.629	0	162.20	0	8.1210	0	33.7810	0	26.301	0	160.826	0	185.2	4	64.2	4	-1E+10	1	-1E+10	1	-1E+10	1	-1E+10	1	-1E+10	1	-1E+10	1
4901784	28	C	04/10/2016	10:48	-132.094	44.629	0	164.80	0	8.0690	0	33.7960	0	26.321	0	163.403	0	183.8	4	63.6	4	-1E+10	1	-1E+10	1	-1E+10	1	-1E+10	1	-1E+10	1	-1E+10	1
4901784	28	C	04/10/2016	10:48	-132.094	44.629	0	167.50	0	8.0170	0	33.8090	0	26.339	0	166.079	0	182.5	4	63.1	4	-1E+10	1	-1E+10	1	-1E+10	1	-1E+10	1	-1E+10	1	-1E+10	1
4901784	28	C	04/10/2016	10:48	-132.094	44.629	0	170.20	0	7.9880	0	33.8120	0	26.345	0	168.755	0	181.3	4	62.6	4	-1E+10	1	-1E+10	1	-1E+10	1	-1E+10	1	-1E+10	1	-1E+10	1
4901784	28	C	04/10/2016	10:48	-132.094	44.629	0	172.90	0	7.9080	0	33.8270	0	26.369	0	171.431	0	180.1	4	62.1	4	-1E+10	1	-1E+10	1	-1E+10	1	-1E+10	1	-1E+10	1	-1E+10	1
4901784	28	C	04/10/2016	10:48	-132.094	44.629	0	174.80	0	7.8490	0	33.8340	0	26.383	0	173.314	0	179.5	4	61.8	4	-1E+10	1	-1E+10	1	-1E+10	1	-1E+10	1	-1E+10	1	-1E+10	1
4901784	28	C	04/10/2016	10:48	-132.094	44.629	0	177.60	0	7.8260	0	33.8360	0	26.388	0	176.089	0	178.9	4	61.6	4	-1E+10	1	-1E+10	1	-1E+10	1	-1E+10	1	-1E+10	1	-1E+10	1
4901784	28	C	04/10/2016	10:48	-132.094	44.629	0	180.40	0	7.7820	0	33.8420	0	26.399	0	178.864	0	178.4	4	61.3	4	-1E+10	1	-1E+10	1	-1E+10	1	-1E+10	1	-1E+10	1	-1E+10	1
4901784	28	C	04/10/2016	10:48	-132.094	44.629	0	182.20	0	7.7810	0	33.8420	0	26.399	0	180.647	0	178.1	4	61.3	4	-1E+10	1	-1E+10	1	-1E+10	1	-1E+10	1	-1E+10	1	-1E+10	1
4901784	28	C	04/10/2016	10:48	-132.094	44.629	0	185.00	0	7.7810	0	33.8410	0	26.399	0	183.422	0	177.3	4	61.0	4	-1E+10	1	-1E+10	1	-1E+10	1	-1E+10	1	-1E+10	1	-1E+10	1
4901784	28	C	04/10/2016	10:48	-132.094	44.629	0	187.90	0	7.7780	0	33.8400	0	26.398	0	186.296	0	176.1	4	60.6	4	-1E+10	1	-1E+10	1	-1E+10	1	-1E+10	1	-1E+10	1	-1E+10	1
4901784	28	C	04/10/2016	10:48	-132.094	44.629	0	189.80	0	7.7700	0	33.8390	0	26.399	0	188.179	0	174.8	4	60.1	4	-1E+10	1	-1E+10	1	-1E+10	1	-1E+10	1	-1E+10	1	-1E+10	1
4901784	28	C	04/10/2016	10:48	-132.094	44.629	0	192.60	0	7.6530	0	33.8480	0	26.423	0	190.954	0	173.3	4	59.4	4	-1E+10	1	-1E+10	1	-1E+10	1	-1E+10	1	-1E+10	1	-1E+10	1
4901784	28	C	04/10/2016	10:48	-132.094	44.629	0	195.80	0	7.6140	0	33.8500	0	26.430	0	194.125	0	172.3	4	59.0	4	-1E+10	1	-1E+10	1	-1E+10	1	-1E+10	1	-1E+10	1	-1E+10	1
4901784	28	C	04/10/2016	10:48	-132.094	44.629	0	197.10	0	7.5750	0	33.8540	0	26.439	0	195.413	0	171.5	4	58.7	4	-1E+10	1	-1E+10	1	-1E+10	1	-1E+10	1	-1E+10	1	-1E+10	1
4901784	28	C	04/10/2016	10:48	-132.094	44.629	0	200.30	0	7.5180	0	33.8570	0	26.449	0	198.585	0	170.7	4	58.4	4	-1E+10	1	-1E+10	1	-1E+10	1	-1E+10	1	-1E+10	1	-1E+10	1
4901784	28	C	04/10/2016	10:48	-132.094	44.629	0	202.60	0	7.5020	0	33.8570	0	26.451	0	200.864	0	169.9	4	58.1	4	-1E+10	1	-1E+10	1	-1E+10	1	-1E+10	1	-1E+10	1	-1E+10	1
4901784	28	C	04/10/2016	10:48	-132.094	44.629	0	205.00	0	7.4920	0	33.8560	0	26.452	0	203.242	0	168.9	4	57.7	4	-1E+10	1	-1E+10	1	-1E+10	1	-1E+10	1	-1E+10	1	-1E+10	1
4901784	28	C	04/10/2016	10:48	-132.094	44.629	0	207.40	0	7.4730	0	33.8560	0	26.455	0	205.620	0	167.4	4	57.2	4	-1E+10	1	-1E+10	1	-1E+10	1	-1E+10	1	-1E+10	1	-1E+10	1
4901784	28	C	04/10/2016	10:48	-132.094	44.629	0	209.80	0	7.3840	0	33.8590	0	26.470	0	207.998	0	165.8	4	56.5	4	-1E+10	1	-1E+10	1	-1E+10	1	-1E+10	1	-1E+10	1	-1E+10	1
4901784	28	C	04/10/2016	10:48	-132.094	44.629	0	212.20	0	7.2930	0	33.8640	0	26.486	0	210.377	0	164.9	4	56.1	4	-1E+10	1	-1E+10	1	-1E+10	1	-1E+10	1	-1E+10	1	-1E+10	1
4901784	28	C	04/10/2016	10:48	-132.094	44.629	0	214.70	0	7.2740	0	33.8640	0	26.489	0	212.854	0	164.1	4	55.8	4	-1E+10	1	-1E+10	1	-1E+10	1	-1E+10	1	-1E+10	1	-1E+10	1
4901784	28	C	04/10/2016	10:48	-132.094	44.629	0	217.90	0	7.2560	0	33.8630	0	26.491	0	216.025	0	162.9	4	55.4	4	-1E+10	1	-1E+10	1	-1E+10	1	-1E+10	1	-1E+10	1	-1E+10	1
4901784	28	C	04/10/2016	10:48	-132.094	44.629	0	220.40	0	7.2200	0	33.8640	0	26.497	0	218.502	0	161.6	4	54.9	4	-1E+10	1	-1E+10	1	-1E+10	1	-1E+10	1	-1E+10	1	-1E+10	1
4901784	28	C	04/10/2016	10:48	-132.094	44.629	0	222.80	0	7.1740	0	33.8660	0	26.505	0	220.880	0	160.4	4	54.4	4	-1E+10	1	-1E+10	1	-1E+10	1	-1E+10	1	-1E+10	1	-1E+10	1
4901784	28	C	04/10/2016	10:48	-132.094	44.629	0	225.10	0	7.1320	0	33.8670	0	26.511	0	223.159	0	159.2	4	54.0	4	-1E+10	1	-1E+10	1	-1E+10	1	-1E+10	1	-1E+10	1	-1E+10	1
4901784	28	C	04/10/2016	10:48	-132.094	44.629	0	227.70	0	7.1100	0	33.8680	0	26.515	0	225.735	0	158.0	4	53.5	4	-1E+10	1	-1E+10	1	-1E+10	1	-1E+10	1	-1E+10	1	-1E+10	1
4901784	28	C	04/10/2016	10:48	-132.094	44.629	0	230.10	0	7.0570	0	33.8680	0	26.522	0	228.113	0	156.7	4	53.0	4	-1E+10	1	-1E+10	1	-1E+10	1	-1E+10	1	-1E+10	1	-1E+10	1
4901784	28	C	04/10/2016	10:48	-132.094	44.629	0	232.70	0	7.0280	0	33.8680	0	26.526	0	230.689	0	155.4	4	52.6	4	-1E+10	1	-1E+10	1	-1E+10	1	-1E+10	1	-1E+10	1	-1E+10	1
4901784	28	C	04/10/2016	10:48	-132.094	44.629	0	235.20	0	6.9870	0	33.8700	0	26.534	0	233.166	0	153.7	4	51.9	4	-1E+10	1	-1E+10	1	-1E+10	1	-1E+10	1	-1E+10	1	-1E+10	1
4901784	28	C	04/10/2016	10:48	-132.094	44.629	0	237.80	0	6.9390	0	33.8680	0	26.539	0	235.742	0	152.0	4	51.3	4	-1E+10	1	-1E+10	1	-1E+10	1	-1E+10	1	-1E+10	1	-1E+10	1
4901784	28	C	04/10/2016	10:48	-132.094	44.629	0	240.30	0	6.8780	0	33.8700	0	26.548	0	238.219	0	150.2	4	50.6	4	-1E+10	1	-1E+10	1	-1E+10	1	-1E+10	1	-1E+10	1	-1E+10	1
4901784	28	C	04/10/2016	10:48	-132.094	44.629	0	242.10	0	6.8520	0	33.8680	0	26.550	0	240.002	0	149.1	4	50.2	4	-1E+10	1	-1E+10	1	-1E+10	1	-1E+10	1	-1E+10	1	-1E+10	1
4901784	28	C	04/10/2016	10:48	-132.094	44.629	0	244.60	0	6.7830	0	33.8690	0	26.560	0	242.479	0	147.4	4	49.6	4	-1E+10	1	-1E+10	1	-1E+10	1	-1E+10	1	-1E+10	1	-1E+10	1
4901784	28	C	04/10/2016	10:48	-132.094	44.629	0	247.10	0	6.7280	0	33.8690	0	26.568	0	244.956	0	146.0	4	49.0	4	-1E+10	1	-1E+10	1	-1E+10	1	-1E+10	1	-1E+10	1	-1E+10	1
4901784	28	C	04/10/2016	10:48	-132.094	44.629	0	249.80	0	6.6680	0	33.8710	0	26.577	0	247.631	0	144.7	4	48.5	4	-1E+10	1	-1E+10	1	-1E+10	1	-1E+10	1	-1E+10	1	-1E+10	1
4901784	28	C	04/10/2016	10:48	-132.094	44.629	0	252.30	0	6.6460	0	33.8690	0	26.579	0	250.108	0	143.5	4	48.1	4	-1E+10	1	-1E+10	1	-1E+10	1	-1E+10	1	-1E+10	1	-1E+10	1
4901784	28	C	04/10/2016	10:48	-132.094	44.629	0	255.00	0	6.6070	0	33.8700	0	26.585	0	252.783	0	142.2	4	47.6	4	-1E+10	1	-1E+10	1	-1E+10	1	-1E+10	1	-1E+10	1	-1E+10	1
4901784	28	C	04/10/2016	10:48	-132.094	44.629	0	257.60	0	6.5700	0	33.8700	0	26.590	0	255.358	0	140.6	4	47.1	4	-1E+10	1	-1E+10	1	-1E+10	1	-1E+10	1	-1E+10	1	-1E+10	1
4901784	28	C	04/10/2016	10:48	-132.094	44.629	0	260.20	0	6.5100	0	33.8710	0	26.598	0	257.934	0	139.0	4	46.5	4	-1E+10	1	-1E+10	1	-1E+10	1	-1E+10	1	-1E+10	1	-1E+10	1
4901784	28	C	04/10/2016	10:48	-132.094	44.629	0	262.80	0	6.4300	0	33.8720	0	26.610	0	260.510	0	137.9	4	46.0	4	-1E+10	1	-1E+10	1	-1E+10	1	-1E+10	1	-1E+10	1	-1E+10	1
4901784	28	C	04/10/2016	10:48	-132.094	44.629	0	264.60	0	6.4130	0	33.8720	0	26.612	0	262.293	0	137.3	4	45.8	4	-1E+10	1	-1E+10	1	-1E+10	1	-1E+10	1	-1E+10	1	-1E+10	1
4901784	28	C	04/10/2016	10:48	-132.094	44.629	0	267.20	0	6.3890	0	33.8710	0	26.614	0	264.869	0	136.3	4	45.4	4	-1E+10	1	-1E+10	1	-1E+10	1	-1E+10	1	-1E+10	1	-1E+10	1
4901784	28	C	04/10/2016	10:48	-132.094	44.629	0	269.80	0	6.3600	0	33.8710	0	26.618	0	267.444	0	135.2	4	45.0	4	-1E+10	1	-1E+10	1	-1E+10	1	-1E+10	1	-1E+10	1	-1E+10	1
4901784	28	C	04/10/2016	10:48	-132.094	44.629	0	272.40	0	6.3290	0	33.8710	0	26.622	0	270.020	0	134.0	4	44.6	4	-1E+10	1	-1E+10	1	-1E+10	1	-1E+10	1	-1E+10	1	-1E+10	1
4901784	28	C	04/10/2016	10:48	-132.094	44.629	0	275.00	0	6.3070	0	33.8710	0	26.625	0	272.596	0	132.8	4	44.2	4	-1E+10	1	-1E+10	1	-1E+10	1	-1E+10	1	-1E+10	1	-1E+10	1
4901784	28	C	04/10/2016	10:48	-132.094	44.629	0	277.70	0	6.2690	0	33.8710	0	26.630	0	275.270	0	131.5	4	43.7	4	-1E+10	1	-1E+10	1	-1E+10	1	-1E+10	1	-1E+10	1	-1E+10	1
4901784	28	C	04/10/2016	10:48	-132.094	44.629	0	280.30	0	6.2260	0	33.8710	0	26.635	0	277.846	0	130.4	4	43.3	4	-1E+10	1	-1E+10	1	-1E+10	1	-1E+10	1	-1E+10	1	-1E+10	1
4901784	28	C	04/10/2016	10:48	-132.094	44.629	0	282.10	0	6.2000	0	33.8710	0	26.638	0	279.629	0	129.6	4	43.0	4	-1E+10	1	-1E+10	1	-1E+10	1	-1E+10	1	-1E+10	1	-1E+10	1
4901784	28	C	04/10/2016	10:48	-132.094	44.629	0	284.80	0	6.1500	0	33.8710	0	26.645	0	282.303	0	128.7	4	42.6	4	-1E+10	1	-1E+10	1	-1E+10	1	-1E+10	1	-1E+10	1	-1E+10	1
4901784	28	C	04/10/2016	10:48	-132.094	44.629	0	287.50	0	6.1250	0	33.8720	0	26.649	0	284.978	0	128.0	4	42.4	4	-1E+10	1	-1E+10	1	-1E+10	1	-1E+10	1	-1E+10	1	-1E+10	1
4901784	28	C	04/10/2016	10:48	-132.094	44.629	0	290.10	0	6.1130	0	33.8720	0	26.650	0	287.553	0	127.3	4	42.2	4	-1E+10	1	-1E+10	1	-1E+10	1	-1E+10	1	-1E+10	1	-1E+10	1
4901784	28	C	04/10/2016	10:48	-132.094	44.629	0	292.80	0	6.0970	0	33.8700	0	26.651	0	290.227	0	126.5	4	41.9	4	-1E+10	1	-1E+10	1	-1E+10	1	-1E+10	1	-1E+10	1	-1E+10	1
4901784	28	C	04/10/2016	10:48	-132.094	44.629	0	294.60	0	6.0750	0	33.8710	0	26.654	0	292.010	0	125.9	4	41.6	4	-1E+10	1	-1E+10	1	-1E+10	1	-1E+10	1	-1E+10	1	-1E+10	1
4901784	28	C	04/10/2016	10:48	-132.094	44.629	0	297.30	0	6.0620	0	33.8700	0	26.655	0	294.685	0	124.5	4	41.2	4	-1E+10	1	-1E+10	1	-1E+10	1	-1E+10	1	-1E+10	1	-1E+10	1
4901784	28	C	04/10/2016	10:48	-132.094	44.629	0	299.90	0	6.0150	0	33.8690	0	26.660	0	297.260	0	123.0	4	40.6	4	-1E+10	1	-1E+10	1	-1E+10	1	-1E+10	1	-1E+10	1	-1E+10	1
4901784	28	C	04/10/2016	10:48	-132.094	44.629	0	302.60	0	5.9500	0	33.8690	0	26.669	0	299.934	0	121.5	4	40.1	4	-1E+10	1	-1E+10	1	-1E+10	1	-1E+10	1	-1E+10	1	-1E+10	1
4901784	28	C	04/10/2016	10:48	-132.094	44.629	0	305.20	0	5.8990	0	33.8690	0	26.675	0	302.510	0	120.4	4	39.7	4	-1E+10	1	-1E+10	1	-1E+10	1	-1E+10	1	-1E+10	1	-1E+10	1
4901784	28	C	04/10/2016	10:48	-132.094	44.629	0	307.00	0	5.8790	0	33.8690	0	26.677	0	304.292	0	119.7	4	39.4	4	-1E+10	1	-1E+10	1	-1E+10	1	-1E+10	1	-1E+10	1	-1E+10	1
4901784	28	C	04/10/2016	10:48	-132.094	44.629	0	309.80	0	5.8430	0	33.8690	0	26.682	0	307.066	0	118.6	4	39.0	4	-1E+10	1	-1E+10	1	-1E+10	1	-1E+10	1	-1E+10	1	-1E+10	1
4901784	28	C	04/10/2016	10:48	-132.094	44.629	0	312.50	0	5.7990	0	33.8700	0	26.688	0	309.740	0	117.8	4	38.7	4	-1E+10	1	-1E+10	1	-1E+10	1	-1E+10	1	-1E+10	1	-1E+10	1
4901784	28	C	04/10/2016	10:48	-132.094	44.629	0	315.30	0	5.7770	0	33.8710	0	26.692	0	312.513	0	116.9	4	38.4	4	-1E+10	1	-1E+10	1	-1E+10	1	-1E+10	1	-1E+10	1	-1E+10	1
4901784	28	C	04/10/2016	10:48	-132.094	44.629	0	318.10	0	5.7590	0	33.8700	0	26.693	0	315.286	0	115.9	4	38.1	4	-1E+10	1	-1E+10	1	-1E+10	1	-1E+10	1	-1E+10	1	-1E+10	1
4901784	28	C	04/10/2016	10:48	-132.094	44.629	0	320.00	0	5.7470	0	33.8700	0	26.695	0	317.168	0	115.1	4	37.8	4	-1E+10	1	-1E+10	1	-1E+10	1	-1E+10	1	-1E+10	1	-1E+10	1
4901784	28	C	04/10/2016	10:48	-132.094	44.629	0	322.80	0	5.7050	0	33.8710	0	26.700	0	319.941	0	114.0	4	37.4	4	-1E+10	1	-1E+10	1	-1E+10	1	-1E+10	1	-1E+10	1	-1E+10	1
4901784	28	C	04/10/2016	10:48	-132.094	44.629	0	325.50	0	5.6770	0	33.8710	0	26.704	0	322.615	0	113.1	4	37.1	4	-1E+10	1	-1E+10	1	-1E+10	1	-1E+10	1	-1E+10	1	-1E+10	1
4901784	28	C	04/10/2016	10:48	-132.094	44.629	0	327.40	0	5.6540	0	33.8720	0	26.707	0	324.496	0	112.5	4	36.9	4	-1E+10	1	-1E+10	1	-1E+10	1	-1E+10	1	-1E+10	1	-1E+10	1
4901784	28	C	04/10/2016	10:48	-132.094	44.629	0	330.10	0	5.6300	0	33.8720	0	26.710	0	327.170	0	111.6	4	36.5	4	-1E+10	1	-1E+10	1	-1E+10	1	-1E+10	1	-1E+10	1	-1E+10	1
4901784	28	C	04/10/2016	10:48	-132.094	44.629	0	332.90	0	5.6130	0	33.8720	0	26.712	0	329.943	0	110.8	4	36.3	4	-1E+10	1	-1E+10	1	-1E+10	1	-1E+10	1	-1E+10	1	-1E+10	1
4901784	28	C	04/10/2016	10:48	-132.094	44.629	0	334.80	0	5.6080	0	33.8720	0	26.713	0	331.825	0	110.0	4	36.0	4	-1E+10	1	-1E+10	1	-1E+10	1	-1E+10	1	-1E+10	1	-1E+10	1
4901784	28	C	04/10/2016	10:48	-132.094	44.629	0	337.50	0	5.5930	0	33.8720	0	26.715	0	334.499	0	108.6	4	35.5	4	-1E+10	1	-1E+10	1	-1E+10	1	-1E+10	1	-1E+10	1	-1E+10	1
4901784	28	C	04/10/2016	10:48	-132.094	44.629	0	340.20	0	5.5710	0	33.8720	0	26.718	0	337.172	0	106.7	4	34.9	4	-1E+10	1	-1E+10	1	-1E+10	1	-1E+10	1	-1E+10	1	-1E+10	1
4901784	28	C	04/10/2016	10:48	-132.094	44.629	0	341.90	0	5.5240	0	33.8730	0	26.724	0	338.856	0	105.5	4	34.5	4	-1E+10	1	-1E+10	1	-1E+10	1	-1E+10	1	-1E+10	1	-1E+10	1
4901784	28	C	04/10/2016	10:48	-132.094	44.629	0	344.70	0	5.4720	0	33.8760	0	26.733	0	341.629	0	103.8	4	33.9	4	-1E+10	1	-1E+10	1	-1E+10	1	-1E+10	1	-1E+10	1	-1E+10	1
4901784	28	C	04/10/2016	10:48	-132.094	44.629	0	347.50	0	5.4430	0	33.8770	0	26.737	0	344.401	0	102.5	4	33.4	4	-1E+10	1	-1E+10	1	-1E+10	1	-1E+10	1	-1E+10	1	-1E+10	1
4901784	28	C	04/10/2016	10:48	-132.094	44.629	0	350.20	0	5.4280	0	33.8780	0	26.739	0	347.075	0	101.2	4	33.0	4	-1E+10	1	-1E+10	1	-1E+10	1	-1E+10	1	-1E+10	1	-1E+10	1
4901784	28	C	04/10/2016	10:48	-132.094	44.629	0	352.90	0	5.4050	0	33.8800	0	26.744	0	349.749	0	99.5	4	32.4	4	-1E+10	1	-1E+10	1	-1E+10	1	-1E+10	1	-1E+10	1	-1E+10	1
4901784	28	C	04/10/2016	10:48	-132.094	44.629	0	354.80	0	5.3870	0	33.8820	0	26.747	0	351.630	0	98.4	4	32.0	4	-1E+10	1	-1E+10	1	-1E+10	1	-1E+10	1	-1E+10	1	-1E+10	1
4901784	28	C	04/10/2016	10:48	-132.094	44.629	0	357.60	0	5.3650	0	33.8830	0	26.751	0	354.403	0	97.3	4	31.7	4	-1E+10	1	-1E+10	1	-1E+10	1	-1E+10	1	-1E+10	1	-1E+10	1
4901784	28	C	04/10/2016	10:48	-132.094	44.629	0	360.40	0	5.3400	0	33.8840	0	26.755	0	357.175	0	96.1	4	31.3	4	-1E+10	1	-1E+10	1	-1E+10	1	-1E+10	1	-1E+10	1	-1E+10	1
4901784	28	C	04/10/2016	10:48	-132.094	44.629	0	362.30	0	5.3110	0	33.8840	0	26.758	0	359.057	0	95.6	4	31.1	4	-1E+10	1	-1E+10	1	-1E+10	1	-1E+10	1	-1E+10	1	-1E+10	1
4901784	28	C	04/10/2016	10:48	-132.094	44.629	0	365.10	0	5.2850	0	33.8850	0	26.762	0	361.829	0	94.3	4	30.6	4	-1E+10	1	-1E+10	1	-1E+10	1	-1E+10	1	-1E+10	1	-1E+10	1
4901784	28	C	04/10/2016	10:48	-132.094	44.629	0	367.90	0	5.2630	0	33.8840	0	26.764	0	364.602	0	92.7	4	30.1	4	-1E+10	1	-1E+10	1	-1E+10	1	-1E+10	1	-1E+10	1	-1E+10	1
4901784	28	C	04/10/2016	10:48	-132.094	44.629	0	369.70	0	5.2310	0	33.8890	0	26.771	0	366.384	0	91.6	4	29.7	4	-1E+10	1	-1E+10	1	-1E+10	1	-1E+10	1	-1E+10	1	-1E+10	1
4901784	28	C	04/10/2016	10:48	-132.094	44.629	0	372.50	0	5.2300	0	33.8940	0	26.775	0	369.156	0	90.4	4	29.3	4	-1E+10	1	-1E+10	1	-1E+10	1	-1E+10	1	-1E+10	1	-1E+10	1
4901784	28	C	04/10/2016	10:48	-132.094	44.629	0	375.20	0	5.2280	0	33.8940	0	26.776	0	371.830	0	89.7	4	29.1	4	-1E+10	1	-1E+10	1	-1E+10	1	-1E+10	1	-1E+10	1	-1E+10	1
4901784	28	C	04/10/2016	10:48	-132.094	44.629	0	377.00	0	5.2230	0	33.8950	0	26.777	0	373.612	0	89.1	4	28.9	4	-1E+10	1	-1E+10	1	-1E+10	1	-1E+10	1	-1E+10	1	-1E+10	1
4901784	28	C	04/10/2016	10:48	-132.094	44.629	0	379.80	0	5.2180	0	33.8950	0	26.778	0	376.384	0	88.1	4	28.6	4	-1E+10	1	-1E+10	1	-1E+10	1	-1E+10	1	-1E+10	1	-1E+10	1
4901784	28	C	04/10/2016	10:48	-132.094	44.629	0	382.60	0	5.2140	0	33.8970	0	26.780	0	379.156	0	86.7	4	28.1	4	-1E+10	1	-1E+10	1	-1E+10	1	-1E+10	1	-1E+10	1	-1E+10	1
4901784	28	C	04/10/2016	10:48	-132.094	44.629	0	384.50	0	5.1970	0	33.8970	0	26.782	0	381.038	0	85.7	4	27.8	4	-1E+10	1	-1E+10	1	-1E+10	1	-1E+10	1	-1E+10	1	-1E+10	1
4901784	28	C	04/10/2016	10:48	-132.094	44.629	0	387.20	0	5.1750	0	33.9000	0	26.787	0	383.711	0	84.0	4	27.2	4	-1E+10	1	-1E+10	1	-1E+10	1	-1E+10	1	-1E+10	1	-1E+10	1
4901784	28	C	04/10/2016	10:48	-132.094	44.629	0	390.00	0	5.1520	0	33.9020	0	26.791	0	386.483	0	82.3	4	26.7	4	-1E+10	1	-1E+10	1	-1E+10	1	-1E+10	1	-1E+10	1	-1E+10	1
4901784	28	C	04/10/2016	10:48	-132.094	44.629	0	392.80	0	5.1030	0	33.9070	0	26.801	0	389.255	0	80.9	4	26.2	4	-1E+10	1	-1E+10	1	-1E+10	1	-1E+10	1	-1E+10	1	-1E+10	1
4901784	28	C	04/10/2016	10:48	-132.094	44.629	0	395.60	0	5.0730	0	33.9100	0	26.806	0	392.027	0	79.9	4	25.8	4	-1E+10	1	-1E+10	1	-1E+10	1	-1E+10	1	-1E+10	1	-1E+10	1
4901784	28	C	04/10/2016	10:48	-132.094	44.629	0	398.00	0	5.0600	0	33.9110	0	26.809	0	394.403	0	79.3	4	25.6	4	-1E+10	1	-1E+10	1	-1E+10	1	-1E+10	1	-1E+10	1	-1E+10	1
4901784	28	C	04/10/2016	10:48	-132.094	44.629	0	399.90	0	5.0480	0	33.9140	0	26.812	0	396.284	0	78.7	4	25.4	4	-1E+10	1	-1E+10	1	-1E+10	1	-1E+10	1	-1E+10	1	-1E+10	1
4901784	28	C	04/10/2016	10:48	-132.094	44.629	0	402.20	0	5.0410	0	33.9150	0	26.814	0	398.561	0	78.0	4	25.2	4	-1E+10	1	-1E+10	1	-1E+10	1	-1E+10	1	-1E+10	1	-1E+10	1
4901784	28	C	04/10/2016	10:48	-132.094	44.629	0	405.30	0	5.0340	0	33.9160	0	26.816	0	401.630	0	77.1	4	24.9	4	-1E+10	1	-1E+10	1	-1E+10	1	-1E+10	1	-1E+10	1	-1E+10	1
4901784	28	C	04/10/2016	10:48	-132.094	44.629	0	407.70	0	5.0200	0	33.9170	0	26.818	0	404.006	0	76.2	4	24.6	4	-1E+10	1	-1E+10	1	-1E+10	1	-1E+10	1	-1E+10	1	-1E+10	1
4901784	28	C	04/10/2016	10:48	-132.094	44.629	0	410.10	0	5.0010	0	33.9210	0	26.823	0	406.382	0	75.6	4	24.4	4	-1E+10	1	-1E+10	1	-1E+10	1	-1E+10	1	-1E+10	1	-1E+10	1
4901784	28	C	04/10/2016	10:48	-132.094	44.629	0	412.50	0	4.9920	0	33.9210	0	26.825	0	408.758	0	75.1	4	24.2	4	-1E+10	1	-1E+10	1	-1E+10	1	-1E+10	1	-1E+10	1	-1E+10	1
4901784	28	C	04/10/2016	10:48	-132.094	44.629	0	414.90	0	4.9870	0	33.9210	0	26.825	0	411.134	0	74.1	4	23.9	4	-1E+10	1	-1E+10	1	-1E+10	1	-1E+10	1	-1E+10	1	-1E+10	1
4901784	28	C	04/10/2016	10:48	-132.094	44.629	0	417.30	0	4.9840	0	33.9220	0	26.826	0	413.509	0	72.8	4	23.5	4	-1E+10	1	-1E+10	1	-1E+10	1	-1E+10	1	-1E+10	1	-1E+10	1
4901784	28	C	04/10/2016	10:48	-132.094	44.629	0	419.70	0	4.9570	0	33.9260	0	26.832	0	415.885	0	70.8	4	22.8	4	-1E+10	1	-1E+10	1	-1E+10	1	-1E+10	1	-1E+10	1	-1E+10	1
4901784	28	C	04/10/2016	10:48	-132.094	44.629	0	422.90	0	4.9270	0	33.9310	0	26.840	0	419.053	0	67.7	4	21.8	4	-1E+10	1	-1E+10	1	-1E+10	1	-1E+10	1	-1E+10	1	-1E+10	1
4901784	28	C	04/10/2016	10:48	-132.094	44.629	0	425.40	0	4.9180	0	33.9380	0	26.846	0	421.528	0	65.2	4	21.0	4	-1E+10	1	-1E+10	1	-1E+10	1	-1E+10	1	-1E+10	1	-1E+10	1
4901784	28	C	04/10/2016	10:48	-132.094	44.629	0	427.90	0	4.9330	0	33.9470	0	26.852	0	424.002	0	63.0	4	20.3	4	-1E+10	1	-1E+10	1	-1E+10	1	-1E+10	1	-1E+10	1	-1E+10	1
4901784	28	C	04/10/2016	10:48	-132.094	44.629	0	430.40	0	4.9400	0	33.9520	0	26.855	0	426.477	0	61.2	4	19.7	4	-1E+10	1	-1E+10	1	-1E+10	1	-1E+10	1	-1E+10	1	-1E+10	1
4901784	28	C	04/10/2016	10:48	-132.094	44.629	0	432.90	0	4.9280	0	33.9580	0	26.861	0	428.952	0	59.6	4	19.2	4	-1E+10	1	-1E+10	1	-1E+10	1	-1E+10	1	-1E+10	1	-1E+10	1
4901784	28	C	04/10/2016	10:48	-132.094	44.629	0	435.40	0	4.9320	0	33.9650	0	26.866	0	431.426	0	57.9	4	18.6	4	-1E+10	1	-1E+10	1	-1E+10	1	-1E+10	1	-1E+10	1	-1E+10	1
4901784	28	C	04/10/2016	10:48	-132.094	44.629	0	437.10	0	4.9370	0	33.9660	0	26.867	0	433.109	0	56.9	4	18.3	4	-1E+10	1	-1E+10	1	-1E+10	1	-1E+10	1	-1E+10	1	-1E+10	1
4901784	28	C	04/10/2016	10:48	-132.094	44.629	0	439.70	0	4.9510	0	33.9710	0	26.869	0	435.683	0	55.4	4	17.9	4	-1E+10	1	-1E+10	1	-1E+10	1	-1E+10	1	-1E+10	1	-1E+10	1
4901784	28	C	04/10/2016	10:48	-132.094	44.629	0	442.20	0	4.9640	0	33.9740	0	26.870	0	438.157	0	54.1	4	17.5	4	-1E+10	1	-1E+10	1	-1E+10	1	-1E+10	1	-1E+10	1	-1E+10	1
4901784	28	C	04/10/2016	10:48	-132.094	44.629	0	444.80	0	4.9410	0	33.9750	0	26.873	0	440.731	0	52.8	4	17.0	4	-1E+10	1	-1E+10	1	-1E+10	1	-1E+10	1	-1E+10	1	-1E+10	1
4901784	28	C	04/10/2016	10:48	-132.094	44.629	0	447.40	0	4.9530	0	33.9850	0	26.880	0	443.304	0	51.0	4	16.4	4	-1E+10	1	-1E+10	1	-1E+10	1	-1E+10	1	-1E+10	1	-1E+10	1
4901784	28	C	04/10/2016	10:48	-132.094	44.629	0	450.00	0	4.9480	0	33.9890	0	26.884	0	445.877	0	50.6	4	16.3	4	-1E+10	1	-1E+10	1	-1E+10	1	-1E+10	1	-1E+10	1	-1E+10	1
4901784	28	C	04/10/2016	10:48	-132.094	44.629	0	452.60	0	4.9310	0	33.9890	0	26.886	0	448.451	0	50.4	4	16.3	4	-1E+10	1	-1E+10	1	-1E+10	1	-1E+10	1	-1E+10	1	-1E+10	1
4901784	28	C	04/10/2016	10:48	-132.094	44.629	0	455.30	0	4.8990	0	33.9880	0	26.889	0	451.123	0	49.7	4	16.0	4	-1E+10	1	-1E+10	1	-1E+10	1	-1E+10	1	-1E+10	1	-1E+10	1
4901784	28	C	04/10/2016	10:48	-132.094	44.629	0	457.90	0	4.8720	0	33.9960	0	26.898	0	453.696	0	49.2	4	15.8	4	-1E+10	1	-1E+10	1	-1E+10	1	-1E+10	1	-1E+10	1	-1E+10	1
4901784	28	C	04/10/2016	10:48	-132.094	44.629	0	459.70	0	4.8540	0	33.9930	0	26.898	0	455.478	0	48.9	4	15.7	4	-1E+10	1	-1E+10	1	-1E+10	1	-1E+10	1	-1E+10	1	-1E+10	1
4901784	28	C	04/10/2016	10:48	-132.094	44.629	0	462.40	0	4.8280	0	33.9960	0	26.903	0	458.150	0	48.4	4	15.6	4	-1E+10	1	-1E+10	1	-1E+10	1	-1E+10	1	-1E+10	1	-1E+10	1
4901784	28	C	04/10/2016	10:48	-132.094	44.629	0	465.20	0	4.7880	0	33.9980	0	26.909	0	460.921	0	48.0	4	15.4	4	-1E+10	1	-1E+10	1	-1E+10	1	-1E+10	1	-1E+10	1	-1E+10	1
4901784	28	C	04/10/2016	10:48	-132.094	44.629	0	467.00	0	4.7880	0	33.9980	0	26.909	0	462.703	0	47.5	4	15.3	4	-1E+10	1	-1E+10	1	-1E+10	1	-1E+10	1	-1E+10	1	-1E+10	1
4901784	28	C	04/10/2016	10:48	-132.094	44.629	0	469.70	0	4.7820	0	34.0020	0	26.913	0	465.375	0	46.9	4	15.1	4	-1E+10	1	-1E+10	1	-1E+10	1	-1E+10	1	-1E+10	1	-1E+10	1
4901784	28	C	04/10/2016	10:48	-132.094	44.629	0	472.40	0	4.7690	0	34.0010	0	26.913	0	468.047	0	46.3	4	14.9	4	-1E+10	1	-1E+10	1	-1E+10	1	-1E+10	1	-1E+10	1	-1E+10	1
4901784	28	C	04/10/2016	10:48	-132.094	44.629	0	475.20	0	4.7700	0	34.0060	0	26.917	0	470.818	0	45.0	4	14.5	4	-1E+10	1	-1E+10	1	-1E+10	1	-1E+10	1	-1E+10	1	-1E+10	1
4901784	28	C	04/10/2016	10:48	-132.094	44.629	0	478.00	0	4.7770	0	34.0100	0	26.920	0	473.589	0	44.2	4	14.2	4	-1E+10	1	-1E+10	1	-1E+10	1	-1E+10	1	-1E+10	1	-1E+10	1
4901784	28	C	04/10/2016	10:48	-132.094	44.629	0	479.80	0	4.7670	0	34.0130	0	26.923	0	475.370	0	43.9	4	14.1	4	-1E+10	1	-1E+10	1	-1E+10	1	-1E+10	1	-1E+10	1	-1E+10	1
4901784	28	C	04/10/2016	10:48	-132.094	44.629	0	482.60	0	4.7470	0	34.0130	0	26.925	0	478.141	0	43.3	4	13.9	4	-1E+10	1	-1E+10	1	-1E+10	1	-1E+10	1	-1E+10	1	-1E+10	1
4901784	28	C	04/10/2016	10:48	-132.094	44.629	0	485.40	0	4.7490	0	34.0160	0	26.928	0	480.912	0	42.7	4	13.7	4	-1E+10	1	-1E+10	1	-1E+10	1	-1E+10	1	-1E+10	1	-1E+10	1
4901784	28	C	04/10/2016	10:48	-132.094	44.629	0	487.20	0	4.7460	0	34.0170	0	26.929	0	482.693	0	42.3	4	13.6	4	-1E+10	1	-1E+10	1	-1E+10	1	-1E+10	1	-1E+10	1	-1E+10	1
4901784	28	C	04/10/2016	10:48	-132.094	44.629	0	490.00	0	4.7340	0	34.0190	0	26.932	0	485.464	0	41.7	4	13.4	4	-1E+10	1	-1E+10	1	-1E+10	1	-1E+10	1	-1E+10	1	-1E+10	1
4901784	28	C	04/10/2016	10:48	-132.094	44.629	0	492.80	0	4.7330	0	34.0210	0	26.933	0	488.235	0	41.1	4	13.2	4	-1E+10	1	-1E+10	1	-1E+10	1	-1E+10	1	-1E+10	1	-1E+10	1
4901784	28	C	04/10/2016	10:48	-132.094	44.629	0	494.60	0	4.7240	0	34.0220	0	26.935	0	490.016	0	40.8	4	13.1	4	-1E+10	1	-1E+10	1	-1E+10	1	-1E+10	1	-1E+10	1	-1E+10	1
4901784	28	C	04/10/2016	10:48	-132.094	44.629	0	497.50	0	4.7160	0	34.0230	0	26.937	0	492.886	0	40.5	4	13.0	4	-1E+10	1	-1E+10	1	-1E+10	1	-1E+10	1	-1E+10	1	-1E+10	1
4901784	28	C	04/10/2016	10:48	-132.094	44.629	0	500.30	0	4.6820	0	34.0260	0	26.943	0	495.657	0	40.9	4	13.1	4	-1E+10	1	-1E+10	1	-1E+10	1	-1E+10	1	-1E+10	1	-1E+10	1
4901784	28	C	04/10/2016	10:48	-132.094	44.629	0	505.10	0	4.6230	0	34.0240	0	26.948	0	500.406	0	40.3	4	12.9	4	-1E+10	1	-1E+10	1	-1E+10	1	-1E+10	1	-1E+10	1	-1E+10	1
4901784	28	C	04/10/2016	10:48	-132.094	44.629	0	509.80	0	4.6230	0	34.0300	0	26.953	0	505.057	0	38.1	4	12.2	4	-1E+10	1	-1E+10	1	-1E+10	1	-1E+10	1	-1E+10	1	-1E+10	1
4901784	28	C	04/10/2016	10:48	-132.094	44.629	0	515.50	0	4.6590	0	34.0420	0	26.958	0	510.697	0	36.2	4	11.6	4	-1E+10	1	-1E+10	1	-1E+10	1	-1E+10	1	-1E+10	1	-1E+10	1
4901784	28	C	04/10/2016	10:48	-132.094	44.629	0	520.20	0	4.6480	0	34.0440	0	26.961	0	515.347	0	36.3	4	11.6	4	-1E+10	1	-1E+10	1	-1E+10	1	-1E+10	1	-1E+10	1	-1E+10	1
4901784	28	C	04/10/2016	10:48	-132.094	44.629	0	525.00	0	4.5870	0	34.0410	0	26.966	0	520.096	0	37.2	4	11.9	4	-1E+10	1	-1E+10	1	-1E+10	1	-1E+10	1	-1E+10	1	-1E+10	1
4901784	28	C	04/10/2016	10:48	-132.094	44.629	0	529.80	0	4.5070	0	34.0380	0	26.972	0	524.846	0	37.5	4	12.0	4	-1E+10	1	-1E+10	1	-1E+10	1	-1E+10	1	-1E+10	1	-1E+10	1
4901784	28	C	04/10/2016	10:48	-132.094	44.629	0	534.60	0	4.4540	0	34.0410	0	26.980	0	529.595	0	36.3	4	11.6	4	-1E+10	1	-1E+10	1	-1E+10	1	-1E+10	1	-1E+10	1	-1E+10	1
4901784	28	C	04/10/2016	10:48	-132.094	44.629	0	540.40	0	4.4760	0	34.0540	0	26.988	0	535.333	0	33.7	4	10.8	4	-1E+10	1	-1E+10	1	-1E+10	1	-1E+10	1	-1E+10	1	-1E+10	1
4901784	28	C	04/10/2016	10:48	-132.094	44.629	0	545.40	0	4.4640	0	34.0580	0	26.993	0	540.279	0	33.4	4	10.7	4	-1E+10	1	-1E+10	1	-1E+10	1	-1E+10	1	-1E+10	1	-1E+10	1
4901784	28	C	04/10/2016	10:48	-132.094	44.629	0	550.30	0	4.4590	0	34.0590	0	26.994	0	545.127	0	32.8	4	10.5	4	-1E+10	1	-1E+10	1	-1E+10	1	-1E+10	1	-1E+10	1	-1E+10	1
4901784	28	C	04/10/2016	10:48	-132.094	44.629	0	555.20	0	4.4220	0	34.0650	0	27.003	0	549.974	0	32.0	4	10.2	4	-1E+10	1	-1E+10	1	-1E+10	1	-1E+10	1	-1E+10	1	-1E+10	1
4901784	28	C	04/10/2016	10:48	-132.094	44.629	0	560.20	0	4.4020	0	34.0690	0	27.008	0	554.921	0	30.7	4	9.8	4	-1E+10	1	-1E+10	1	-1E+10	1	-1E+10	1	-1E+10	1	-1E+10	1
4901784	28	C	04/10/2016	10:48	-132.094	44.629	0	565.10	0	4.4160	0	34.0760	0	27.012	0	559.768	0	29.4	4	9.4	4	-1E+10	1	-1E+10	1	-1E+10	1	-1E+10	1	-1E+10	1	-1E+10	1
4901784	28	C	04/10/2016	10:48	-132.094	44.629	0	570.10	0	4.3940	0	34.0800	0	27.018	0	564.714	0	28.9	4	9.2	4	-1E+10	1	-1E+10	1	-1E+10	1	-1E+10	1	-1E+10	1	-1E+10	1
4901784	28	C	04/10/2016	10:48	-132.094	44.629	0	574.50	0	4.3740	0	34.0840	0	27.023	0	569.066	0	28.1	4	9.0	4	-1E+10	1	-1E+10	1	-1E+10	1	-1E+10	1	-1E+10	1	-1E+10	1
4901784	28	C	04/10/2016	10:48	-132.094	44.629	0	579.50	0	4.3610	0	34.0910	0	27.030	0	574.012	0	26.8	4	8.5	4	-1E+10	1	-1E+10	1	-1E+10	1	-1E+10	1	-1E+10	1	-1E+10	1
4901784	28	C	04/10/2016	10:48	-132.094	44.629	0	584.50	0	4.3600	0	34.0960	0	27.034	0	578.958	0	25.7	4	8.2	4	-1E+10	1	-1E+10	1	-1E+10	1	-1E+10	1	-1E+10	1	-1E+10	1
4901784	28	C	04/10/2016	10:48	-132.094	44.629	0	589.40	0	4.3300	0	34.1030	0	27.043	0	583.805	0	24.3	4	7.7	4	-1E+10	1	-1E+10	1	-1E+10	1	-1E+10	1	-1E+10	1	-1E+10	1
4901784	28	C	04/10/2016	10:48	-132.094	44.629	0	594.50	0	4.3650	0	34.1140	0	27.048	0	588.849	0	22.6	4	7.2	4	-1E+10	1	-1E+10	1	-1E+10	1	-1E+10	1	-1E+10	1	-1E+10	1
4901784	28	C	04/10/2016	10:48	-132.094	44.629	0	599.60	0	4.3740	0	34.1190	0	27.051	0	593.893	0	22.0	4	7.0	4	-1E+10	1	-1E+10	1	-1E+10	1	-1E+10	1	-1E+10	1	-1E+10	1
4901784	28	C	04/10/2016	10:48	-132.094	44.629	0	604.70	0	4.3760	0	34.1230	0	27.054	0	598.937	0	21.3	4	6.8	4	-1E+10	1	-1E+10	1	-1E+10	1	-1E+10	1	-1E+10	1	-1E+10	1
4901784	28	C	04/10/2016	10:48	-132.094	44.629	0	609.70	0	4.3610	0	34.1260	0	27.058	0	603.882	0	20.6	4	6.5	4	-1E+10	1	-1E+10	1	-1E+10	1	-1E+10	1	-1E+10	1	-1E+10	1
4901784	28	C	04/10/2016	10:48	-132.094	44.629	0	614.80	0	4.3530	0	34.1340	0	27.065	0	608.926	0	19.9	4	6.3	4	-1E+10	1	-1E+10	1	-1E+10	1	-1E+10	1	-1E+10	1	-1E+10	1
4901784	28	C	04/10/2016	10:48	-132.094	44.629	0	620.00	0	4.3250	0	34.1380	0	27.071	0	614.069	0	19.4	4	6.2	4	-1E+10	1	-1E+10	1	-1E+10	1	-1E+10	1	-1E+10	1	-1E+10	1
4901784	28	C	04/10/2016	10:48	-132.094	44.629	0	625.20	0	4.3120	0	34.1430	0	27.077	0	619.211	0	18.8	4	6.0	4	-1E+10	1	-1E+10	1	-1E+10	1	-1E+10	1	-1E+10	1	-1E+10	1
4901784	28	C	04/10/2016	10:48	-132.094	44.629	0	630.40	0	4.3110	0	34.1480	0	27.081	0	624.354	0	18.1	4	5.8	4	-1E+10	1	-1E+10	1	-1E+10	1	-1E+10	1	-1E+10	1	-1E+10	1
4901784	28	C	04/10/2016	10:48	-132.094	44.629	0	634.90	0	4.2980	0	34.1540	0	27.087	0	628.804	0	17.7	4	5.6	4	-1E+10	1	-1E+10	1	-1E+10	1	-1E+10	1	-1E+10	1	-1E+10	1
4901784	28	C	04/10/2016	10:48	-132.094	44.629	0	639.40	0	4.2990	0	34.1560	0	27.089	0	633.254	0	17.3	4	5.5	4	-1E+10	1	-1E+10	1	-1E+10	1	-1E+10	1	-1E+10	1	-1E+10	1
4901784	28	C	04/10/2016	10:48	-132.094	44.629	0	644.70	0	4.2770	0	34.1620	0	27.096	0	638.495	0	17.0	4	5.4	4	-1E+10	1	-1E+10	1	-1E+10	1	-1E+10	1	-1E+10	1	-1E+10	1
4901784	28	C	04/10/2016	10:48	-132.094	44.629	0	650.00	0	4.2580	0	34.1670	0	27.102	0	643.736	0	16.6	4	5.3	4	-1E+10	1	-1E+10	1	-1E+10	1	-1E+10	1	-1E+10	1	-1E+10	1
4901784	28	C	04/10/2016	10:48	-132.094	44.629	0	655.40	0	4.2510	0	34.1700	0	27.105	0	649.075	0	16.1	4	5.1	4	-1E+10	1	-1E+10	1	-1E+10	1	-1E+10	1	-1E+10	1	-1E+10	1
4901784	28	C	04/10/2016	10:48	-132.094	44.629	0	660.00	0	4.2500	0	34.1760	0	27.110	0	653.624	0	15.5	4	4.9	4	-1E+10	1	-1E+10	1	-1E+10	1	-1E+10	1	-1E+10	1	-1E+10	1
4901784	28	C	04/10/2016	10:48	-132.094	44.629	0	664.50	0	4.2380	0	34.1820	0	27.116	0	658.073	0	15.2	4	4.8	4	-1E+10	1	-1E+10	1	-1E+10	1	-1E+10	1	-1E+10	1	-1E+10	1
4901784	28	C	04/10/2016	10:48	-132.094	44.629	0	669.90	0	4.2350	0	34.1860	0	27.119	0	663.412	0	15.0	4	4.8	4	-1E+10	1	-1E+10	1	-1E+10	1	-1E+10	1	-1E+10	1	-1E+10	1
4901784	28	C	04/10/2016	10:48	-132.094	44.629	0	675.30	0	4.2020	0	34.1880	0	27.125	0	668.751	0	14.9	4	4.7	4	-1E+10	1	-1E+10	1	-1E+10	1	-1E+10	1	-1E+10	1	-1E+10	1
4901784	28	C	04/10/2016	10:48	-132.094	44.629	0	679.80	0	4.1950	0	34.1930	0	27.129	0	673.200	0	14.7	4	4.7	4	-1E+10	1	-1E+10	1	-1E+10	1	-1E+10	1	-1E+10	1	-1E+10	1
4901784	28	C	04/10/2016	10:48	-132.094	44.629	0	684.30	0	4.1870	0	34.1940	0	27.131	0	677.649	0	14.5	4	4.6	4	-1E+10	1	-1E+10	1	-1E+10	1	-1E+10	1	-1E+10	1	-1E+10	1
4901784	28	C	04/10/2016	10:48	-132.094	44.629	0	689.80	0	4.1810	0	34.1960	0	27.133	0	683.087	0	14.3	4	4.5	4	-1E+10	1	-1E+10	1	-1E+10	1	-1E+10	1	-1E+10	1	-1E+10	1
4901784	28	C	04/10/2016	10:48	-132.094	44.629	0	695.40	0	4.1700	0	34.2010	0	27.138	0	688.623	0	14.1	4	4.5	4	-1E+10	1	-1E+10	1	-1E+10	1	-1E+10	1	-1E+10	1	-1E+10	1
4901784	28	C	04/10/2016	10:48	-132.094	44.629	0	700.10	0	4.1620	0	34.2040	0	27.142	0	693.269	0	13.9	4	4.4	4	-1E+10	1	-1E+10	1	-1E+10	1	-1E+10	1	-1E+10	1	-1E+10	1
4901784	28	C	04/10/2016	10:48	-132.094	44.629	0	704.80	0	4.1510	0	34.2060	0	27.144	0	697.916	0	13.8	4	4.4	4	-1E+10	1	-1E+10	1	-1E+10	1	-1E+10	1	-1E+10	1	-1E+10	1
4901784	28	C	04/10/2016	10:48	-132.094	44.629	0	710.60	0	4.1360	0	34.2090	0	27.148	0	703.649	0	13.7	4	4.3	4	-1E+10	1	-1E+10	1	-1E+10	1	-1E+10	1	-1E+10	1	-1E+10	1
4901784	28	C	04/10/2016	10:48	-132.094	44.629	0	715.30	0	4.1150	0	34.2130	0	27.154	0	708.295	0	13.7	4	4.3	4	-1E+10	1	-1E+10	1	-1E+10	1	-1E+10	1	-1E+10	1	-1E+10	1
4901784	28	C	04/10/2016	10:48	-132.094	44.629	0	720.00	0	4.0900	0	34.2140	0	27.157	0	712.941	0	13.7	4	4.3	4	-1E+10	1	-1E+10	1	-1E+10	1	-1E+10	1	-1E+10	1	-1E+10	1
4901784	28	C	04/10/2016	10:48	-132.094	44.629	0	724.70	0	4.0540	0	34.2170	0	27.163	0	717.587	0	13.7	4	4.3	4	-1E+10	1	-1E+10	1	-1E+10	1	-1E+10	1	-1E+10	1	-1E+10	1
4901784	28	C	04/10/2016	10:48	-132.094	44.629	0	729.50	0	4.0420	0	34.2190	0	27.166	0	722.332	0	13.6	4	4.3	4	-1E+10	1	-1E+10	1	-1E+10	1	-1E+10	1	-1E+10	1	-1E+10	1
4901784	28	C	04/10/2016	10:48	-132.094	44.629	0	735.20	0	4.0320	0	34.2220	0	27.170	0	727.966	0	13.5	4	4.3	4	-1E+10	1	-1E+10	1	-1E+10	1	-1E+10	1	-1E+10	1	-1E+10	1
4901784	28	C	04/10/2016	10:48	-132.094	44.629	0	739.90	0	4.0290	0	34.2230	0	27.171	0	732.611	0	13.4	4	4.2	4	-1E+10	1	-1E+10	1	-1E+10	1	-1E+10	1	-1E+10	1	-1E+10	1
4901784	28	C	04/10/2016	10:48	-132.094	44.629	0	744.60	0	4.0240	0	34.2240	0	27.172	0	737.257	0	13.3	4	4.2	4	-1E+10	1	-1E+10	1	-1E+10	1	-1E+10	1	-1E+10	1	-1E+10	1
4901784	28	C	04/10/2016	10:48	-132.094	44.629	0	750.20	0	3.9900	0	34.2310	0	27.181	0	742.792	0	13.1	4	4.1	4	-1E+10	1	-1E+10	1	-1E+10	1	-1E+10	1	-1E+10	1	-1E+10	1
4901784	28	C	04/10/2016	10:48	-132.094	44.629	0	755.60	0	3.9830	0	34.2320	0	27.183	0	748.128	0	13.0	4	4.1	4	-1E+10	1	-1E+10	1	-1E+10	1	-1E+10	1	-1E+10	1	-1E+10	1
4901784	28	C	04/10/2016	10:48	-132.094	44.629	0	759.80	0	3.9770	0	34.2340	0	27.185	0	752.279	0	12.9	4	4.1	4	-1E+10	1	-1E+10	1	-1E+10	1	-1E+10	1	-1E+10	1	-1E+10	1
4901784	28	C	04/10/2016	10:48	-132.094	44.629	0	764.50	0	3.9640	0	34.2390	0	27.190	0	756.924	0	12.7	4	4.0	4	-1E+10	1	-1E+10	1	-1E+10	1	-1E+10	1	-1E+10	1	-1E+10	1
4901784	28	C	04/10/2016	10:48	-132.094	44.629	0	769.90	0	3.9410	0	34.2440	0	27.197	0	762.261	0	12.5	4	3.9	4	-1E+10	1	-1E+10	1	-1E+10	1	-1E+10	1	-1E+10	1	-1E+10	1
4901784	28	C	04/10/2016	10:48	-132.094	44.629	0	775.60	0	3.9330	0	34.2470	0	27.200	0	767.894	0	12.4	4	3.9	4	-1E+10	1	-1E+10	1	-1E+10	1	-1E+10	1	-1E+10	1	-1E+10	1
4901784	28	C	04/10/2016	10:48	-132.094	44.629	0	780.40	0	3.9100	0	34.2500	0	27.205	0	772.637	0	12.4	4	3.9	4	-1E+10	1	-1E+10	1	-1E+10	1	-1E+10	1	-1E+10	1	-1E+10	1
4901784	28	C	04/10/2016	10:48	-132.094	44.629	0	785.30	0	3.8980	0	34.2530	0	27.208	0	777.480	0	12.2	4	3.9	4	-1E+10	1	-1E+10	1	-1E+10	1	-1E+10	1	-1E+10	1	-1E+10	1
4901784	28	C	04/10/2016	10:48	-132.094	44.629	0	790.20	0	3.8880	0	34.2570	0	27.212	0	782.322	0	12.2	4	3.8	4	-1E+10	1	-1E+10	1	-1E+10	1	-1E+10	1	-1E+10	1	-1E+10	1
4901784	28	C	04/10/2016	10:48	-132.094	44.629	0	795.20	0	3.8790	0	34.2580	0	27.214	0	787.262	0	12.1	4	3.8	4	-1E+10	1	-1E+10	1	-1E+10	1	-1E+10	1	-1E+10	1	-1E+10	1
4901784	28	C	04/10/2016	10:48	-132.094	44.629	0	800.10	0	3.8620	0	34.2620	0	27.219	0	792.104	0	12.0	4	3.8	4	-1E+10	1	-1E+10	1	-1E+10	1	-1E+10	1	-1E+10	1	-1E+10	1
4901784	28	C	04/10/2016	10:48	-132.094	44.629	0	805.10	0	3.8530	0	34.2630	0	27.221	0	797.045	0	12.0	4	3.8	4	-1E+10	1	-1E+10	1	-1E+10	1	-1E+10	1	-1E+10	1	-1E+10	1
4901784	28	C	04/10/2016	10:48	-132.094	44.629	0	810.10	0	3.8290	0	34.2670	0	27.226	0	801.985	0	12.0	4	3.8	4	-1E+10	1	-1E+10	1	-1E+10	1	-1E+10	1	-1E+10	1	-1E+10	1
4901784	28	C	04/10/2016	10:48	-132.094	44.629	0	815.20	0	3.8030	0	34.2680	0	27.230	0	807.024	0	12.0	4	3.8	4	-1E+10	1	-1E+10	1	-1E+10	1	-1E+10	1	-1E+10	1	-1E+10	1
4901784	28	C	04/10/2016	10:48	-132.094	44.629	0	820.20	0	3.7950	0	34.2700	0	27.232	0	811.964	0	11.9	4	3.7	4	-1E+10	1	-1E+10	1	-1E+10	1	-1E+10	1	-1E+10	1	-1E+10	1
4901784	28	C	04/10/2016	10:48	-132.094	44.629	0	825.30	0	3.7820	0	34.2730	0	27.236	0	817.003	0	11.9	4	3.7	4	-1E+10	1	-1E+10	1	-1E+10	1	-1E+10	1	-1E+10	1	-1E+10	1
4901784	28	C	04/10/2016	10:48	-132.094	44.629	0	830.50	0	3.7650	0	34.2760	0	27.240	0	822.141	0	11.8	4	3.7	4	-1E+10	1	-1E+10	1	-1E+10	1	-1E+10	1	-1E+10	1	-1E+10	1
4901784	28	C	04/10/2016	10:48	-132.094	44.629	0	835.70	0	3.7530	0	34.2800	0	27.245	0	827.278	0	11.7	4	3.7	4	-1E+10	1	-1E+10	1	-1E+10	1	-1E+10	1	-1E+10	1	-1E+10	1
4901784	28	C	04/10/2016	10:48	-132.094	44.629	0	840.10	0	3.7500	0	34.2820	0	27.246	0	831.625	0	11.6	4	3.6	4	-1E+10	1	-1E+10	1	-1E+10	1	-1E+10	1	-1E+10	1	-1E+10	1
4901784	28	C	04/10/2016	10:48	-132.094	44.629	0	844.40	0	3.7460	0	34.2860	0	27.250	0	835.873	0	11.6	4	3.6	4	-1E+10	1	-1E+10	1	-1E+10	1	-1E+10	1	-1E+10	1	-1E+10	1
4901784	28	C	04/10/2016	10:48	-132.094	44.629	0	849.70	0	3.7340	0	34.2880	0	27.253	0	841.109	0	11.5	4	3.6	4	-1E+10	1	-1E+10	1	-1E+10	1	-1E+10	1	-1E+10	1	-1E+10	1
4901784	28	C	04/10/2016	10:48	-132.094	44.629	0	855.00	0	3.7170	0	34.2910	0	27.257	0	846.344	0	11.5	4	3.6	4	-1E+10	1	-1E+10	1	-1E+10	1	-1E+10	1	-1E+10	1	-1E+10	1
4901784	28	C	04/10/2016	10:48	-132.094	44.629	0	860.30	0	3.7050	0	34.2930	0	27.260	0	851.580	0	11.5	4	3.6	4	-1E+10	1	-1E+10	1	-1E+10	1	-1E+10	1	-1E+10	1	-1E+10	1
4901784	28	C	04/10/2016	10:48	-132.094	44.629	0	865.60	0	3.6770	0	34.2980	0	27.267	0	856.815	0	11.4	4	3.6	4	-1E+10	1	-1E+10	1	-1E+10	1	-1E+10	1	-1E+10	1	-1E+10	1
4901784	28	C	04/10/2016	10:48	-132.094	44.629	0	870.10	0	3.6640	0	34.3020	0	27.271	0	861.260	0	11.4	4	3.6	4	-1E+10	1	-1E+10	1	-1E+10	1	-1E+10	1	-1E+10	1	-1E+10	1
4901784	28	C	04/10/2016	10:48	-132.094	44.629	0	874.70	0	3.6550	0	34.3040	0	27.274	0	865.804	0	11.4	4	3.6	4	-1E+10	1	-1E+10	1	-1E+10	1	-1E+10	1	-1E+10	1	-1E+10	1
4901784	28	C	04/10/2016	10:48	-132.094	44.629	0	880.20	0	3.6400	0	34.3080	0	27.278	0	871.237	0	11.4	4	3.6	4	-1E+10	1	-1E+10	1	-1E+10	1	-1E+10	1	-1E+10	1	-1E+10	1
4901784	28	C	04/10/2016	10:48	-132.094	44.629	0	884.80	0	3.6300	0	34.3100	0	27.281	0	875.780	0	11.4	4	3.6	4	-1E+10	1	-1E+10	1	-1E+10	1	-1E+10	1	-1E+10	1	-1E+10	1
4901784	28	C	04/10/2016	10:48	-132.094	44.629	0	889.50	0	3.6240	0	34.3120	0	27.283	0	880.422	0	11.4	4	3.6	4	-1E+10	1	-1E+10	1	-1E+10	1	-1E+10	1	-1E+10	1	-1E+10	1
4901784	28	C	04/10/2016	10:48	-132.094	44.629	0	894.90	0	3.6090	0	34.3160	0	27.288	0	885.756	0	11.4	4	3.6	4	-1E+10	1	-1E+10	1	-1E+10	1	-1E+10	1	-1E+10	1	-1E+10	1
4901784	28	C	04/10/2016	10:48	-132.094	44.629	0	900.10	0	3.5970	0	34.3190	0	27.291	0	890.892	0	11.4	4	3.6	4	-1E+10	1	-1E+10	1	-1E+10	1	-1E+10	1	-1E+10	1	-1E+10	1
4901784	28	C	04/10/2016	10:48	-132.094	44.629	0	905.10	0	3.5800	0	34.3230	0	27.296	0	895.830	0	11.4	4	3.6	4	-1E+10	1	-1E+10	1	-1E+10	1	-1E+10	1	-1E+10	1	-1E+10	1
4901784	28	C	04/10/2016	10:48	-132.094	44.629	0	910.60	0	3.5500	0	34.3260	0	27.302	0	901.262	0	11.4	4	3.6	4	-1E+10	1	-1E+10	1	-1E+10	1	-1E+10	1	-1E+10	1	-1E+10	1
4901784	28	C	04/10/2016	10:48	-132.094	44.629	0	915.50	0	3.5360	0	34.3280	0	27.305	0	906.101	0	11.4	4	3.6	4	-1E+10	1	-1E+10	1	-1E+10	1	-1E+10	1	-1E+10	1	-1E+10	1
4901784	28	C	04/10/2016	10:48	-132.094	44.629	0	920.30	0	3.5340	0	34.3310	0	27.307	0	910.841	0	11.5	4	3.6	4	-1E+10	1	-1E+10	1	-1E+10	1	-1E+10	1	-1E+10	1	-1E+10	1
4901784	28	C	04/10/2016	10:48	-132.094	44.629	0	925.20	0	3.5210	0	34.3330	0	27.310	0	915.680	0	11.5	4	3.6	4	-1E+10	1	-1E+10	1	-1E+10	1	-1E+10	1	-1E+10	1	-1E+10	1
4901784	28	C	04/10/2016	10:48	-132.094	44.629	0	930.00	0	3.5050	0	34.3360	0	27.314	0	920.420	0	11.5	4	3.6	4	-1E+10	1	-1E+10	1	-1E+10	1	-1E+10	1	-1E+10	1	-1E+10	1
4901784	28	C	04/10/2016	10:48	-132.094	44.629	0	934.90	0	3.4950	0	34.3380	0	27.317	0	925.259	0	11.5	4	3.6	4	-1E+10	1	-1E+10	1	-1E+10	1	-1E+10	1	-1E+10	1	-1E+10	1
4901784	28	C	04/10/2016	10:48	-132.094	44.629	0	939.90	0	3.4780	0	34.3420	0	27.321	0	930.196	0	11.5	4	3.6	4	-1E+10	1	-1E+10	1	-1E+10	1	-1E+10	1	-1E+10	1	-1E+10	1
4901784	28	C	04/10/2016	10:48	-132.094	44.629	0	945.00	0	3.4690	0	34.3440	0	27.324	0	935.232	0	11.6	4	3.6	4	-1E+10	1	-1E+10	1	-1E+10	1	-1E+10	1	-1E+10	1	-1E+10	1
4901784	28	C	04/10/2016	10:48	-132.094	44.629	0	950.10	0	3.4550	0	34.3460	0	27.327	0	940.268	0	11.6	4	3.6	4	-1E+10	1	-1E+10	1	-1E+10	1	-1E+10	1	-1E+10	1	-1E+10	1
4901784	28	C	04/10/2016	10:48	-132.094	44.629	0	955.20	0	3.4460	0	34.3480	0	27.329	0	945.304	0	11.6	4	3.6	4	-1E+10	1	-1E+10	1	-1E+10	1	-1E+10	1	-1E+10	1	-1E+10	1
4901784	28	C	04/10/2016	10:48	-132.094	44.629	0	960.40	0	3.4360	0	34.3500	0	27.332	0	950.438	0	11.6	4	3.6	4	-1E+10	1	-1E+10	1	-1E+10	1	-1E+10	1	-1E+10	1	-1E+10	1
4901784	28	C	04/10/2016	10:48	-132.094	44.629	0	965.60	0	3.4340	0	34.3510	0	27.333	0	955.572	0	11.7	4	3.6	4	-1E+10	1	-1E+10	1	-1E+10	1	-1E+10	1	-1E+10	1	-1E+10	1
4901784	28	C	04/10/2016	10:48	-132.094	44.629	0	970.80	0	3.4200	0	34.3530	0	27.336	0	960.706	0	11.7	4	3.7	4	-1E+10	1	-1E+10	1	-1E+10	1	-1E+10	1	-1E+10	1	-1E+10	1
4901784	28	C	04/10/2016	10:48	-132.094	44.629	0	975.10	0	3.4100	0	34.3550	0	27.339	0	964.952	0	11.8	4	3.7	4	-1E+10	1	-1E+10	1	-1E+10	1	-1E+10	1	-1E+10	1	-1E+10	1
4901784	28	C	04/10/2016	10:48	-132.094	44.629	0	979.40	0	3.3970	0	34.3560	0	27.341	0	969.197	0	11.8	4	3.7	4	-1E+10	1	-1E+10	1	-1E+10	1	-1E+10	1	-1E+10	1	-1E+10	1
4901784	28	C	04/10/2016	10:48	-132.094	44.629	0	984.70	0	3.3860	0	34.3580	0	27.343	0	974.429	0	11.8	4	3.7	4	-1E+10	1	-1E+10	1	-1E+10	1	-1E+10	1	-1E+10	1	-1E+10	1
4901784	28	C	04/10/2016	10:48	-132.094	44.629	0	989.90	0	3.3780	0	34.3600	0	27.346	0	979.563	0	11.9	4	3.7	4	-1E+10	1	-1E+10	1	-1E+10	1	-1E+10	1	-1E+10	1	-1E+10	1
4901784	28	C	04/10/2016	10:48	-132.094	44.629	0	995.30	0	3.3630	0	34.3640	0	27.350	0	984.894	0	11.9	4	3.7	4	-1E+10	1	-1E+10	1	-1E+10	1	-1E+10	1	-1E+10	1	-1E+10	1
4901784	28	C	04/10/2016	10:48	-132.094	44.629	0	999.80	0	3.3510	0	34.3670	0	27.354	0	989.336	0	12.0	4	3.7	4	-1E+10	1	-1E+10	1	-1E+10	1	-1E+10	1	-1E+10	1	-1E+10	1
4901784	28	C	04/10/2016	10:48	-132.094	44.629	0	1004.40	0	3.3390	0	34.3680	0	27.356	0	993.877	0	12.0	4	3.7	4	-1E+10	1	-1E+10	1	-1E+10	1	-1E+10	1	-1E+10	1	-1E+10	1
4901784	28	C	04/10/2016	10:48	-132.094	44.629	0	1009.80	0	3.3260	0	34.3700	0	27.359	0	999.208	0	12.1	4	3.8	4	-1E+10	1	-1E+10	1	-1E+10	1	-1E+10	1	-1E+10	1	-1E+10	1
4901784	28	C	04/10/2016	10:48	-132.094	44.629	0	1015.20	0	3.3080	0	34.3730	0	27.363	0	1004.538	0	12.2	4	3.8	4	-1E+10	1	-1E+10	1	-1E+10	1	-1E+10	1	-1E+10	1	-1E+10	1
4901784	28	C	04/10/2016	10:48	-132.094	44.629	0	1019.80	0	3.3010	0	34.3740	0	27.364	0	1009.079	0	12.3	4	3.8	4	-1E+10	1	-1E+10	1	-1E+10	1	-1E+10	1	-1E+10	1	-1E+10	1
4901784	28	C	04/10/2016	10:48	-132.094	44.629	0	1024.40	0	3.2890	0	34.3760	0	27.367	0	1013.619	0	12.4	4	3.8	4	-1E+10	1	-1E+10	1	-1E+10	1	-1E+10	1	-1E+10	1	-1E+10	1
4901784	28	C	04/10/2016	10:48	-132.094	44.629	0	1030.00	0	3.2760	0	34.3790	0	27.371	0	1019.147	0	12.5	4	3.9	4	-1E+10	1	-1E+10	1	-1E+10	1	-1E+10	1	-1E+10	1	-1E+10	1
4901784	28	C	04/10/2016	10:48	-132.094	44.629	0	1035.60	0	3.2700	0	34.3810	0	27.373	0	1024.674	0	12.5	4	3.9	4	-1E+10	1	-1E+10	1	-1E+10	1	-1E+10	1	-1E+10	1	-1E+10	1
4901784	28	C	04/10/2016	10:48	-132.094	44.629	0	1040.30	0	3.2670	0	34.3820	0	27.374	0	1029.313	0	12.6	4	3.9	4	-1E+10	1	-1E+10	1	-1E+10	1	-1E+10	1	-1E+10	1	-1E+10	1
4901784	28	C	04/10/2016	10:48	-132.094	44.629	0	1044.90	0	3.2560	0	34.3840	0	27.377	0	1033.853	0	12.6	4	3.9	4	-1E+10	1	-1E+10	1	-1E+10	1	-1E+10	1	-1E+10	1	-1E+10	1
4901784	28	C	04/10/2016	10:48	-132.094	44.629	0	1050.50	0	3.2450	0	34.3860	0	27.379	0	1039.380	0	12.7	4	3.9	4	-1E+10	1	-1E+10	1	-1E+10	1	-1E+10	1	-1E+10	1	-1E+10	1
4901784	28	C	04/10/2016	10:48	-132.094	44.629	0	1055.10	0	3.2420	0	34.3860	0	27.380	0	1043.920	0	12.8	4	4.0	4	-1E+10	1	-1E+10	1	-1E+10	1	-1E+10	1	-1E+10	1	-1E+10	1
4901784	28	C	04/10/2016	10:48	-132.094	44.629	0	1059.70	0	3.2290	0	34.3880	0	27.382	0	1048.460	0	12.8	4	4.0	4	-1E+10	1	-1E+10	1	-1E+10	1	-1E+10	1	-1E+10	1	-1E+10	1
4901784	28	C	04/10/2016	10:48	-132.094	44.629	0	1065.30	0	3.2200	0	34.3890	0	27.384	0	1053.986	0	12.9	4	4.0	4	-1E+10	1	-1E+10	1	-1E+10	1	-1E+10	1	-1E+10	1	-1E+10	1
4901784	28	C	04/10/2016	10:48	-132.094	44.629	0	1069.90	0	3.2100	0	34.3910	0	27.387	0	1058.526	0	13.0	4	4.0	4	-1E+10	1	-1E+10	1	-1E+10	1	-1E+10	1	-1E+10	1	-1E+10	1
4901784	28	C	04/10/2016	10:48	-132.094	44.629	0	1074.60	0	3.1960	0	34.3930	0	27.389	0	1063.164	0	13.1	4	4.1	4	-1E+10	1	-1E+10	1	-1E+10	1	-1E+10	1	-1E+10	1	-1E+10	1
4901784	28	C	04/10/2016	10:48	-132.094	44.629	0	1079.90	0	3.1830	0	34.3950	0	27.392	0	1068.394	0	13.2	4	4.1	4	-1E+10	1	-1E+10	1	-1E+10	1	-1E+10	1	-1E+10	1	-1E+10	1
4901784	28	C	04/10/2016	10:48	-132.094	44.629	0	1085.00	0	3.1790	0	34.3950	0	27.393	0	1073.427	0	13.3	4	4.1	4	-1E+10	1	-1E+10	1	-1E+10	1	-1E+10	1	-1E+10	1	-1E+10	1
4901784	28	C	04/10/2016	10:48	-132.094	44.629	0	1090.70	0	3.1640	0	34.3980	0	27.397	0	1079.051	0	13.4	4	4.1	4	-1E+10	1	-1E+10	1	-1E+10	1	-1E+10	1	-1E+10	1	-1E+10	1
4901784	28	C	04/10/2016	10:48	-132.094	44.629	0	1095.70	0	3.1550	0	34.3990	0	27.398	0	1083.985	0	13.5	4	4.2	4	-1E+10	1	-1E+10	1	-1E+10	1	-1E+10	1	-1E+10	1	-1E+10	1
4901784	28	C	04/10/2016	10:48	-132.094	44.629	0	1100.60	0	3.1430	0	34.4000	0	27.400	0	1088.820	0	13.5	4	4.2	4	-1E+10	1	-1E+10	1	-1E+10	1	-1E+10	1	-1E+10	1	-1E+10	1
4901784	28	C	04/10/2016	10:48	-132.094	44.629	0	1105.60	0	3.1360	0	34.4020	0	27.402	0	1093.753	0	13.7	4	4.2	4	-1E+10	1	-1E+10	1	-1E+10	1	-1E+10	1	-1E+10	1	-1E+10	1
4901784	28	C	04/10/2016	10:48	-132.094	44.629	0	1110.20	0	3.1270	0	34.4040	0	27.405	0	1098.292	0	13.8	4	4.3	4	-1E+10	1	-1E+10	1	-1E+10	1	-1E+10	1	-1E+10	1	-1E+10	1
4901784	28	C	04/10/2016	10:48	-132.094	44.629	0	1114.70	0	3.1170	0	34.4050	0	27.407	0	1102.732	0	13.9	4	4.3	4	-1E+10	1	-1E+10	1	-1E+10	1	-1E+10	1	-1E+10	1	-1E+10	1
4901784	28	C	04/10/2016	10:48	-132.094	44.629	0	1120.10	0	3.1090	0	34.4070	0	27.409	0	1108.060	0	14.0	4	4.3	4	-1E+10	1	-1E+10	1	-1E+10	1	-1E+10	1	-1E+10	1	-1E+10	1
4901784	28	C	04/10/2016	10:48	-132.094	44.629	0	1125.60	0	3.0950	0	34.4090	0	27.412	0	1113.486	0	14.1	4	4.4	4	-1E+10	1	-1E+10	1	-1E+10	1	-1E+10	1	-1E+10	1	-1E+10	1
4901784	28	C	04/10/2016	10:48	-132.094	44.629	0	1130.20	0	3.0900	0	34.4100	0	27.413	0	1118.024	0	14.2	4	4.4	4	-1E+10	1	-1E+10	1	-1E+10	1	-1E+10	1	-1E+10	1	-1E+10	1
4901784	28	C	04/10/2016	10:48	-132.094	44.629	0	1134.80	0	3.0730	0	34.4120	0	27.416	0	1122.562	0	14.4	4	4.4	4	-1E+10	1	-1E+10	1	-1E+10	1	-1E+10	1	-1E+10	1	-1E+10	1
4901784	28	C	04/10/2016	10:48	-132.094	44.629	0	1140.40	0	3.0650	0	34.4140	0	27.419	0	1128.087	0	14.5	4	4.5	4	-1E+10	1	-1E+10	1	-1E+10	1	-1E+10	1	-1E+10	1	-1E+10	1
4901784	28	C	04/10/2016	10:48	-132.094	44.629	0	1145.00	0	3.0470	0	34.4160	0	27.422	0	1132.625	0	14.7	4	4.5	4	-1E+10	1	-1E+10	1	-1E+10	1	-1E+10	1	-1E+10	1	-1E+10	1
4901784	28	C	04/10/2016	10:48	-132.094	44.629	0	1149.70	0	3.0370	0	34.4180	0	27.424	0	1137.261	0	14.9	4	4.6	4	-1E+10	1	-1E+10	1	-1E+10	1	-1E+10	1	-1E+10	1	-1E+10	1
4901784	28	C	04/10/2016	10:48	-132.094	44.629	0	1155.30	0	3.0250	0	34.4200	0	27.427	0	1142.786	0	15.0	4	4.6	4	-1E+10	1	-1E+10	1	-1E+10	1	-1E+10	1	-1E+10	1	-1E+10	1
4901784	28	C	04/10/2016	10:48	-132.094	44.629	0	1160.10	0	3.0120	0	34.4220	0	27.430	0	1147.520	0	15.1	4	4.7	4	-1E+10	1	-1E+10	1	-1E+10	1	-1E+10	1	-1E+10	1	-1E+10	1
4901784	28	C	04/10/2016	10:48	-132.094	44.629	0	1164.70	0	3.0090	0	34.4220	0	27.430	0	1152.058	0	15.2	4	4.7	4	-1E+10	1	-1E+10	1	-1E+10	1	-1E+10	1	-1E+10	1	-1E+10	1
4901784	28	C	04/10/2016	10:48	-132.094	44.629	0	1170.30	0	3.0060	0	34.4230	0	27.431	0	1157.582	0	15.3	4	4.7	4	-1E+10	1	-1E+10	1	-1E+10	1	-1E+10	1	-1E+10	1	-1E+10	1
4901784	28	C	04/10/2016	10:48	-132.094	44.629	0	1175.10	0	3.0020	0	34.4240	0	27.433	0	1162.316	0	15.4	4	4.8	4	-1E+10	1	-1E+10	1	-1E+10	1	-1E+10	1	-1E+10	1	-1E+10	1
4901784	28	C	04/10/2016	10:48	-132.094	44.629	0	1179.90	0	2.9860	0	34.4260	0	27.436	0	1167.051	0	15.6	4	4.8	4	-1E+10	1	-1E+10	1	-1E+10	1	-1E+10	1	-1E+10	1	-1E+10	1
4901784	28	C	04/10/2016	10:48	-132.094	44.629	0	1184.70	0	2.9710	0	34.4280	0	27.439	0	1171.785	0	15.8	4	4.9	4	-1E+10	1	-1E+10	1	-1E+10	1	-1E+10	1	-1E+10	1	-1E+10	1
4901784	28	C	04/10/2016	10:48	-132.094	44.629	0	1189.60	0	2.9630	0	34.4290	0	27.440	0	1176.618	0	15.9	4	4.9	4	-1E+10	1	-1E+10	1	-1E+10	1	-1E+10	1	-1E+10	1	-1E+10	1
4901784	28	C	04/10/2016	10:48	-132.094	44.629	0	1195.30	0	2.9560	0	34.4310	0	27.442	0	1182.240	0	16.0	4	4.9	4	-1E+10	1	-1E+10	1	-1E+10	1	-1E+10	1	-1E+10	1	-1E+10	1
4901784	28	C	04/10/2016	10:48	-132.094	44.629	0	1200.10	0	2.9450	0	34.4310	0	27.443	0	1186.974	0	16.1	4	5.0	4	-1E+10	1	-1E+10	1	-1E+10	1	-1E+10	1	-1E+10	1	-1E+10	1
4901784	28	C	04/10/2016	10:48	-132.094	44.629	0	1205.00	0	2.9390	0	34.4320	0	27.445	0	1191.806	0	16.3	4	5.0	4	-1E+10	1	-1E+10	1	-1E+10	1	-1E+10	1	-1E+10	1	-1E+10	1
4901784	28	C	04/10/2016	10:48	-132.094	44.629	0	1209.80	0	2.9260	0	34.4340	0	27.448	0	1196.540	0	16.5	4	5.1	4	-1E+10	1	-1E+10	1	-1E+10	1	-1E+10	1	-1E+10	1	-1E+10	1
4901784	28	C	04/10/2016	10:48	-132.094	44.629	0	1214.60	0	2.9170	0	34.4360	0	27.450	0	1201.274	0	16.7	4	5.1	4	-1E+10	1	-1E+10	1	-1E+10	1	-1E+10	1	-1E+10	1	-1E+10	1
4901784	28	C	04/10/2016	10:48	-132.094	44.629	0	1220.40	0	2.9060	0	34.4380	0	27.453	0	1206.994	0	16.9	4	5.2	4	-1E+10	1	-1E+10	1	-1E+10	1	-1E+10	1	-1E+10	1	-1E+10	1
4901784	28	C	04/10/2016	10:48	-132.094	44.629	0	1225.20	0	2.8960	0	34.4400	0	27.455	0	1211.727	0	17.1	4	5.3	4	-1E+10	1	-1E+10	1	-1E+10	1	-1E+10	1	-1E+10	1	-1E+10	1
4901784	28	C	04/10/2016	10:48	-132.094	44.629	0	1230.00	0	2.8860	0	34.4410	0	27.457	0	1216.460	0	17.2	4	5.3	4	-1E+10	1	-1E+10	1	-1E+10	1	-1E+10	1	-1E+10	1	-1E+10	1
4901784	28	C	04/10/2016	10:48	-132.094	44.629	0	1234.80	0	2.8760	0	34.4430	0	27.459	0	1221.194	0	17.4	4	5.4	4	-1E+10	1	-1E+10	1	-1E+10	1	-1E+10	1	-1E+10	1	-1E+10	1
4901784	28	C	04/10/2016	10:48	-132.094	44.629	0	1239.50	0	2.8710	0	34.4430	0	27.460	0	1225.828	0	17.5	4	5.4	4	-1E+10	1	-1E+10	1	-1E+10	1	-1E+10	1	-1E+10	1	-1E+10	1
4901784	28	C	04/10/2016	10:48	-132.094	44.629	0	1244.90	0	2.8610	0	34.4450	0	27.462	0	1231.153	0	17.7	4	5.5	4	-1E+10	1	-1E+10	1	-1E+10	1	-1E+10	1	-1E+10	1	-1E+10	1
4901784	28	C	04/10/2016	10:48	-132.094	44.629	0	1250.30	0	2.8520	0	34.4460	0	27.464	0	1236.477	0	18.0	4	5.5	4	-1E+10	1	-1E+10	1	-1E+10	1	-1E+10	1	-1E+10	1	-1E+10	1
4901784	28	C	04/10/2016	10:48	-132.094	44.629	0	1254.80	0	2.8380	0	34.4480	0	27.467	0	1240.914	0	18.2	4	5.6	4	-1E+10	1	-1E+10	1	-1E+10	1	-1E+10	1	-1E+10	1	-1E+10	1
4901784	28	C	04/10/2016	10:48	-132.094	44.629	0	1259.30	0	2.8250	0	34.4500	0	27.470	0	1245.351	0	18.4	4	5.7	4	-1E+10	1	-1E+10	1	-1E+10	1	-1E+10	1	-1E+10	1	-1E+10	1
4901784	28	C	04/10/2016	10:48	-132.094	44.629	0	1264.80	0	2.8130	0	34.4510	0	27.471	0	1250.774	0	18.6	4	5.7	4	-1E+10	1	-1E+10	1	-1E+10	1	-1E+10	1	-1E+10	1	-1E+10	1
4901784	28	C	04/10/2016	10:48	-132.094	44.629	0	1270.20	0	2.8020	0	34.4540	0	27.475	0	1256.098	0	18.8	4	5.8	4	-1E+10	1	-1E+10	1	-1E+10	1	-1E+10	1	-1E+10	1	-1E+10	1
4901784	28	C	04/10/2016	10:48	-132.094	44.629	0	1275.60	0	2.7950	0	34.4550	0	27.476	0	1261.422	0	19.0	4	5.8	4	-1E+10	1	-1E+10	1	-1E+10	1	-1E+10	1	-1E+10	1	-1E+10	1
4901784	28	C	04/10/2016	10:48	-132.094	44.629	0	1280.50	0	2.7930	0	34.4570	0	27.478	0	1266.253	0	19.1	4	5.9	4	-1E+10	1	-1E+10	1	-1E+10	1	-1E+10	1	-1E+10	1	-1E+10	1
4901784	28	C	04/10/2016	10:48	-132.094	44.629	0	1285.30	0	2.7900	0	34.4580	0	27.479	0	1270.985	0	19.3	4	5.9	4	-1E+10	1	-1E+10	1	-1E+10	1	-1E+10	1	-1E+10	1	-1E+10	1
4901784	28	C	04/10/2016	10:48	-132.094	44.629	0	1290.20	0	2.7700	0	34.4580	0	27.481	0	1275.815	0	19.6	4	6.0	4	-1E+10	1	-1E+10	1	-1E+10	1	-1E+10	1	-1E+10	1	-1E+10	1
4901784	28	C	04/10/2016	10:48	-132.094	44.629	0	1295.10	0	2.7610	0	34.4590	0	27.482	0	1280.646	0	19.7	4	6.1	4	-1E+10	1	-1E+10	1	-1E+10	1	-1E+10	1	-1E+10	1	-1E+10	1
4901784	28	C	04/10/2016	10:48	-132.094	44.629	0	1300.10	0	2.7510	0	34.4600	0	27.484	0	1285.575	0	19.9	4	6.1	4	-1E+10	1	-1E+10	1	-1E+10	1	-1E+10	1	-1E+10	1	-1E+10	1
4901784	28	C	04/10/2016	10:48	-132.094	44.629	0	1305.00	0	2.7440	0	34.4610	0	27.486	0	1290.405	0	20.1	4	6.2	4	-1E+10	1	-1E+10	1	-1E+10	1	-1E+10	1	-1E+10	1	-1E+10	1
4901784	28	C	04/10/2016	10:48	-132.094	44.629	0	1310.00	0	2.7440	0	34.4640	0	27.488	0	1295.334	0	20.3	4	6.2	4	-1E+10	1	-1E+10	1	-1E+10	1	-1E+10	1	-1E+10	1	-1E+10	1
4901784	28	C	04/10/2016	10:48	-132.094	44.629	0	1314.90	0	2.7440	0	34.4650	0	27.489	0	1300.164	0	20.4	4	6.3	4	-1E+10	1	-1E+10	1	-1E+10	1	-1E+10	1	-1E+10	1	-1E+10	1
4901784	28	C	04/10/2016	10:48	-132.094	44.629	0	1319.90	0	2.7380	0	34.4670	0	27.491	0	1305.092	0	20.7	4	6.3	4	-1E+10	1	-1E+10	1	-1E+10	1	-1E+10	1	-1E+10	1	-1E+10	1
4901784	28	C	04/10/2016	10:48	-132.094	44.629	0	1324.90	0	2.7290	0	34.4680	0	27.493	0	1310.021	0	20.9	4	6.4	4	-1E+10	1	-1E+10	1	-1E+10	1	-1E+10	1	-1E+10	1	-1E+10	1
4901784	28	C	04/10/2016	10:48	-132.094	44.629	0	1329.90	0	2.7180	0	34.4690	0	27.494	0	1314.949	0	21.1	4	6.5	4	-1E+10	1	-1E+10	1	-1E+10	1	-1E+10	1	-1E+10	1	-1E+10	1
4901784	28	C	04/10/2016	10:48	-132.094	44.629	0	1335.00	0	2.7080	0	34.4700	0	27.496	0	1319.976	0	21.4	4	6.6	4	-1E+10	1	-1E+10	1	-1E+10	1	-1E+10	1	-1E+10	1	-1E+10	1
4901784	28	C	04/10/2016	10:48	-132.094	44.629	0	1340.10	0	2.6970	0	34.4710	0	27.498	0	1325.002	0	21.6	4	6.6	4	-1E+10	1	-1E+10	1	-1E+10	1	-1E+10	1	-1E+10	1	-1E+10	1
4901784	28	C	04/10/2016	10:48	-132.094	44.629	0	1345.10	0	2.6870	0	34.4730	0	27.500	0	1329.930	0	21.9	4	6.7	4	-1E+10	1	-1E+10	1	-1E+10	1	-1E+10	1	-1E+10	1	-1E+10	1
4901784	28	C	04/10/2016	10:48	-132.094	44.629	0	1350.20	0	2.6770	0	34.4740	0	27.502	0	1334.956	0	22.1	4	6.8	4	-1E+10	1	-1E+10	1	-1E+10	1	-1E+10	1	-1E+10	1	-1E+10	1
4901784	28	C	04/10/2016	10:48	-132.094	44.629	0	1355.40	0	2.6670	0	34.4750	0	27.504	0	1340.081	0	22.4	4	6.9	4	-1E+10	1	-1E+10	1	-1E+10	1	-1E+10	1	-1E+10	1	-1E+10	1
4901784	28	C	04/10/2016	10:48	-132.094	44.629	0	1360.50	0	2.6580	0	34.4760	0	27.505	0	1345.107	0	22.6	4	6.9	4	-1E+10	1	-1E+10	1	-1E+10	1	-1E+10	1	-1E+10	1	-1E+10	1
4901784	28	C	04/10/2016	10:48	-132.094	44.629	0	1364.90	0	2.6520	0	34.4770	0	27.507	0	1349.444	0	22.9	4	7.0	4	-1E+10	1	-1E+10	1	-1E+10	1	-1E+10	1	-1E+10	1	-1E+10	1
4901784	28	C	04/10/2016	10:48	-132.094	44.629	0	1369.30	0	2.6420	0	34.4780	0	27.508	0	1353.780	0	23.2	4	7.1	4	-1E+10	1	-1E+10	1	-1E+10	1	-1E+10	1	-1E+10	1	-1E+10	1
4901784	28	C	04/10/2016	10:48	-132.094	44.629	0	1374.60	0	2.6280	0	34.4800	0	27.511	0	1359.002	0	23.5	4	7.2	4	-1E+10	1	-1E+10	1	-1E+10	1	-1E+10	1	-1E+10	1	-1E+10	1
4901784	28	C	04/10/2016	10:48	-132.094	44.629	0	1380.00	0	2.6170	0	34.4810	0	27.513	0	1364.324	0	23.8	4	7.3	4	-1E+10	1	-1E+10	1	-1E+10	1	-1E+10	1	-1E+10	1	-1E+10	1
4901784	28	C	04/10/2016	10:48	-132.094	44.629	0	1385.30	0	2.6070	0	34.4820	0	27.515	0	1369.546	0	24.1	4	7.4	4	-1E+10	1	-1E+10	1	-1E+10	1	-1E+10	1	-1E+10	1	-1E+10	1
4901784	28	C	04/10/2016	10:48	-132.094	44.629	0	1390.70	0	2.5980	0	34.4830	0	27.516	0	1374.867	0	24.4	4	7.5	4	-1E+10	1	-1E+10	1	-1E+10	1	-1E+10	1	-1E+10	1	-1E+10	1
4901784	28	C	04/10/2016	10:48	-132.094	44.629	0	1395.20	0	2.5880	0	34.4850	0	27.519	0	1379.301	0	24.7	4	7.6	4	-1E+10	1	-1E+10	1	-1E+10	1	-1E+10	1	-1E+10	1	-1E+10	1
4901784	28	C	04/10/2016	10:48	-132.094	44.629	0	1399.70	0	2.5790	0	34.4860	0	27.520	0	1383.735	0	24.9	4	7.6	4	-1E+10	1	-1E+10	1	-1E+10	1	-1E+10	1	-1E+10	1	-1E+10	1
4901784	28	C	04/10/2016	10:48	-132.094	44.629	0	1405.10	0	2.5730	0	34.4870	0	27.522	0	1389.056	0	25.1	4	7.7	4	-1E+10	1	-1E+10	1	-1E+10	1	-1E+10	1	-1E+10	1	-1E+10	1
4901784	28	C	04/10/2016	10:48	-132.094	44.629	0	1409.60	0	2.5690	0	34.4880	0	27.523	0	1393.490	0	25.2	4	7.7	4	-1E+10	1	-1E+10	1	-1E+10	1	-1E+10	1	-1E+10	1	-1E+10	1
4901784	28	C	04/10/2016	10:48	-132.094	44.629	0	1414.10	0	2.5650	0	34.4880	0	27.523	0	1397.923	0	25.4	4	7.8	4	-1E+10	1	-1E+10	1	-1E+10	1	-1E+10	1	-1E+10	1	-1E+10	1
4901784	28	C	04/10/2016	10:48	-132.094	44.629	0	1419.40	0	2.5580	0	34.4890	0	27.525	0	1403.145	0	25.7	4	7.8	4	-1E+10	1	-1E+10	1	-1E+10	1	-1E+10	1	-1E+10	1	-1E+10	1
4901784	28	C	04/10/2016	10:48	-132.094	44.629	0	1425.00	0	2.5460	0	34.4910	0	27.527	0	1408.662	0	26.0	4	8.0	4	-1E+10	1	-1E+10	1	-1E+10	1	-1E+10	1	-1E+10	1	-1E+10	1
4901784	28	C	04/10/2016	10:48	-132.094	44.629	0	1430.60	0	2.5380	0	34.4920	0	27.529	0	1414.179	0	26.3	4	8.0	4	-1E+10	1	-1E+10	1	-1E+10	1	-1E+10	1	-1E+10	1	-1E+10	1
4901784	28	C	04/10/2016	10:48	-132.094	44.629	0	1435.60	0	2.5290	0	34.4930	0	27.530	0	1419.105	0	26.7	4	8.1	4	-1E+10	1	-1E+10	1	-1E+10	1	-1E+10	1	-1E+10	1	-1E+10	1
4901784	28	C	04/10/2016	10:48	-132.094	44.629	0	1440.50	0	2.5170	0	34.4950	0	27.533	0	1423.932	0	27.0	4	8.2	4	-1E+10	1	-1E+10	1	-1E+10	1	-1E+10	1	-1E+10	1	-1E+10	1
4901784	28	C	04/10/2016	10:48	-132.094	44.629	0	1445.50	0	2.5090	0	34.4950	0	27.534	0	1428.858	0	27.2	4	8.3	4	-1E+10	1	-1E+10	1	-1E+10	1	-1E+10	1	-1E+10	1	-1E+10	1
4901784	28	C	04/10/2016	10:48	-132.094	44.629	0	1450.50	0	2.5030	0	34.4960	0	27.535	0	1433.783	0	27.5	4	8.4	4	-1E+10	1	-1E+10	1	-1E+10	1	-1E+10	1	-1E+10	1	-1E+10	1
4901784	28	C	04/10/2016	10:48	-132.094	44.629	0	1455.50	0	2.4980	0	34.4970	0	27.536	0	1438.709	0	27.7	4	8.5	4	-1E+10	1	-1E+10	1	-1E+10	1	-1E+10	1	-1E+10	1	-1E+10	1
4901784	28	C	04/10/2016	10:48	-132.094	44.629	0	1460.60	0	2.4900	0	34.4980	0	27.538	0	1443.733	0	28.0	4	8.5	4	-1E+10	1	-1E+10	1	-1E+10	1	-1E+10	1	-1E+10	1	-1E+10	1
4901784	28	C	04/10/2016	10:48	-132.094	44.629	0	1465.60	0	2.4810	0	34.4990	0	27.539	0	1448.658	0	28.3	4	8.6	4	-1E+10	1	-1E+10	1	-1E+10	1	-1E+10	1	-1E+10	1	-1E+10	1
4901784	28	C	04/10/2016	10:48	-132.094	44.629	0	1470.70	0	2.4720	0	34.5000	0	27.541	0	1453.681	0	28.6	4	8.7	4	-1E+10	1	-1E+10	1	-1E+10	1	-1E+10	1	-1E+10	1	-1E+10	1
4901784	28	C	04/10/2016	10:48	-132.094	44.629	0	1475.80	0	2.4620	0	34.5010	0	27.543	0	1458.705	0	29.0	4	8.8	4	-1E+10	1	-1E+10	1	-1E+10	1	-1E+10	1	-1E+10	1	-1E+10	1
4901784	28	C	04/10/2016	10:48	-132.094	44.629	0	1480.00	0	2.4530	0	34.5030	0	27.545	0	1462.841	0	29.1	4	8.9	4	-1E+10	1	-1E+10	1	-1E+10	1	-1E+10	1	-1E+10	1	-1E+10	1
4901784	28	C	04/10/2016	10:48	-132.094	44.629	0	1484.30	0	2.4530	0	34.5030	0	27.545	0	1467.077	0	29.2	4	8.9	4	-1E+10	1	-1E+10	1	-1E+10	1	-1E+10	1	-1E+10	1	-1E+10	1
4901784	28	C	04/10/2016	10:48	-132.094	44.629	0	1489.40	0	2.4480	0	34.5030	0	27.545	0	1472.100	0	29.5	4	9.0	4	-1E+10	1	-1E+10	1	-1E+10	1	-1E+10	1	-1E+10	1	-1E+10	1
4901784	28	C	04/10/2016	10:48	-132.094	44.629	0	1494.70	0	2.4410	0	34.5040	0	27.547	0	1477.320	0	29.8	4	9.1	4	-1E+10	1	-1E+10	1	-1E+10	1	-1E+10	1	-1E+10	1	-1E+10	1
4901784	28	C	04/10/2016	10:48	-132.094	44.629	0	1499.90	0	2.4330	0	34.5050	0	27.548	0	1482.441	0	30.1	4	9.2	4	-1E+10	1	-1E+10	1	-1E+10	1	-1E+10	1	-1E+10	1	-1E+10	1
4901784	28	C	04/10/2016	10:48	-132.094	44.629	0	1505.20	0	2.4280	0	34.5060	0	27.550	0	1487.661	0	30.3	4	9.2	4	-1E+10	1	-1E+10	1	-1E+10	1	-1E+10	1	-1E+10	1	-1E+10	1
4901784	28	C	04/10/2016	10:48	-132.094	44.629	0	1510.50	0	2.4200	0	34.5070	0	27.551	0	1492.880	0	30.6	4	9.3	4	-1E+10	1	-1E+10	1	-1E+10	1	-1E+10	1	-1E+10	1	-1E+10	1
4901784	28	C	04/10/2016	10:48	-132.094	44.629	0	1515.00	0	2.4160	0	34.5070	0	27.551	0	1497.312	0	30.7	4	9.4	4	-1E+10	1	-1E+10	1	-1E+10	1	-1E+10	1	-1E+10	1	-1E+10	1
4901784	28	C	04/10/2016	10:48	-132.094	44.629	0	1519.50	0	2.4130	0	34.5070	0	27.552	0	1501.743	0	30.8	4	9.4	4	-1E+10	1	-1E+10	1	-1E+10	1	-1E+10	1	-1E+10	1	-1E+10	1
4901784	28	C	04/10/2016	10:48	-132.094	44.629	0	1524.90	0	2.4060	0	34.5090	0	27.554	0	1507.061	0	31.1	4	9.5	4	-1E+10	1	-1E+10	1	-1E+10	1	-1E+10	1	-1E+10	1	-1E+10	1
4901784	28	C	04/10/2016	10:48	-132.094	44.629	0	1530.20	0	2.4000	0	34.5090	0	27.554	0	1512.280	0	31.3	4	9.5	4	-1E+10	1	-1E+10	1	-1E+10	1	-1E+10	1	-1E+10	1	-1E+10	1
4901784	28	C	04/10/2016	10:48	-132.094	44.629	0	1535.20	0	2.3960	0	34.5090	0	27.555	0	1517.203	0	31.5	4	9.6	4	-1E+10	1	-1E+10	1	-1E+10	1	-1E+10	1	-1E+10	1	-1E+10	1
4901784	28	C	04/10/2016	10:48	-132.094	44.629	0	1540.10	0	2.3840	0	34.5110	0	27.557	0	1522.028	0	31.8	4	9.7	4	-1E+10	1	-1E+10	1	-1E+10	1	-1E+10	1	-1E+10	1	-1E+10	1
4901784	28	C	04/10/2016	10:48	-132.094	44.629	0	1545.60	0	2.3780	0	34.5120	0	27.559	0	1527.444	0	32.0	4	9.7	4	-1E+10	1	-1E+10	1	-1E+10	1	-1E+10	1	-1E+10	1	-1E+10	1
4901784	28	C	04/10/2016	10:48	-132.094	44.629	0	1550.40	0	2.3760	0	34.5120	0	27.559	0	1532.170	0	32.2	4	9.8	4	-1E+10	1	-1E+10	1	-1E+10	1	-1E+10	1	-1E+10	1	-1E+10	1
4901784	28	C	04/10/2016	10:48	-132.094	44.629	0	1555.20	0	2.3710	0	34.5130	0	27.560	0	1536.896	0	32.4	4	9.9	4	-1E+10	1	-1E+10	1	-1E+10	1	-1E+10	1	-1E+10	1	-1E+10	1
4901784	28	C	04/10/2016	10:48	-132.094	44.629	0	1560.00	0	2.3660	0	34.5130	0	27.561	0	1541.622	0	32.6	4	9.9	4	-1E+10	1	-1E+10	1	-1E+10	1	-1E+10	1	-1E+10	1	-1E+10	1
4901784	28	C	04/10/2016	10:48	-132.094	44.629	0	1565.00	0	2.3620	0	34.5140	0	27.562	0	1546.545	0	32.9	4	10.0	4	-1E+10	1	-1E+10	1	-1E+10	1	-1E+10	1	-1E+10	1	-1E+10	1
4901784	28	C	04/10/2016	10:48	-132.094	44.629	0	1569.90	0	2.3530	0	34.5150	0	27.563	0	1551.369	0	33.2	4	10.1	4	-1E+10	1	-1E+10	1	-1E+10	1	-1E+10	1	-1E+10	1	-1E+10	1
4901784	28	C	04/10/2016	10:48	-132.094	44.629	0	1574.90	0	2.3450	0	34.5160	0	27.565	0	1556.292	0	33.5	4	10.2	4	-1E+10	1	-1E+10	1	-1E+10	1	-1E+10	1	-1E+10	1	-1E+10	1
4901784	28	C	04/10/2016	10:48	-132.094	44.629	0	1579.90	0	2.3400	0	34.5160	0	27.565	0	1561.215	0	33.8	4	10.3	4	-1E+10	1	-1E+10	1	-1E+10	1	-1E+10	1	-1E+10	1	-1E+10	1
4901784	28	C	04/10/2016	10:48	-132.094	44.629	0	1584.90	0	2.3330	0	34.5170	0	27.567	0	1566.137	0	34.2	4	10.4	4	-1E+10	1	-1E+10	1	-1E+10	1	-1E+10	1	-1E+10	1	-1E+10	1
4901784	28	C	04/10/2016	10:48	-132.094	44.629	0	1589.90	0	2.3220	0	34.5190	0	27.569	0	1571.059	0	34.6	4	10.5	4	-1E+10	1	-1E+10	1	-1E+10	1	-1E+10	1	-1E+10	1	-1E+10	1
4901784	28	C	04/10/2016	10:48	-132.094	44.629	0	1595.00	0	2.3170	0	34.5200	0	27.570	0	1576.080	0	34.8	4	10.6	4	-1E+10	1	-1E+10	1	-1E+10	1	-1E+10	1	-1E+10	1	-1E+10	1
4901784	28	C	04/10/2016	10:48	-132.094	44.629	0	1600.10	0	2.3130	0	34.5200	0	27.571	0	1581.100	0	35.0	4	10.6	4	-1E+10	1	-1E+10	1	-1E+10	1	-1E+10	1	-1E+10	1	-1E+10	1
4901784	28	C	04/10/2016	10:48	-132.094	44.629	0	1605.10	0	2.3060	0	34.5210	0	27.572	0	1586.022	0	35.3	4	10.7	4	-1E+10	1	-1E+10	1	-1E+10	1	-1E+10	1	-1E+10	1	-1E+10	1
4901784	28	C	04/10/2016	10:48	-132.094	44.629	0	1610.30	0	2.2990	0	34.5220	0	27.573	0	1591.141	0	35.7	4	10.8	4	-1E+10	1	-1E+10	1	-1E+10	1	-1E+10	1	-1E+10	1	-1E+10	1
4901784	28	C	04/10/2016	10:48	-132.094	44.629	0	1615.40	0	2.2940	0	34.5220	0	27.574	0	1596.161	0	36.1	4	11.0	4	-1E+10	1	-1E+10	1	-1E+10	1	-1E+10	1	-1E+10	1	-1E+10	1
4901784	28	C	04/10/2016	10:48	-132.094	44.629	0	1620.50	0	2.2830	0	34.5240	0	27.576	0	1601.181	0	36.6	4	11.1	4	-1E+10	1	-1E+10	1	-1E+10	1	-1E+10	1	-1E+10	1	-1E+10	1
4901784	28	C	04/10/2016	10:48	-132.094	44.629	0	1625.80	0	2.2750	0	34.5250	0	27.578	0	1606.398	0	37.1	4	11.3	4	-1E+10	1	-1E+10	1	-1E+10	1	-1E+10	1	-1E+10	1	-1E+10	1
4901784	28	C	04/10/2016	10:48	-132.094	44.629	0	1630.10	0	2.2650	0	34.5260	0	27.580	0	1610.630	0	37.6	4	11.4	4	-1E+10	1	-1E+10	1	-1E+10	1	-1E+10	1	-1E+10	1	-1E+10	1
4901784	28	C	04/10/2016	10:48	-132.094	44.629	0	1634.50	0	2.2550	0	34.5270	0	27.581	0	1614.961	0	37.9	4	11.5	4	-1E+10	1	-1E+10	1	-1E+10	1	-1E+10	1	-1E+10	1	-1E+10	1
4901784	28	C	04/10/2016	10:48	-132.094	44.629	0	1639.80	0	2.2490	0	34.5280	0	27.582	0	1620.177	0	38.3	4	11.6	4	-1E+10	1	-1E+10	1	-1E+10	1	-1E+10	1	-1E+10	1	-1E+10	1
4901784	28	C	04/10/2016	10:48	-132.094	44.629	0	1645.10	0	2.2420	0	34.5290	0	27.584	0	1625.393	0	38.7	4	11.7	4	-1E+10	1	-1E+10	1	-1E+10	1	-1E+10	1	-1E+10	1	-1E+10	1
4901784	28	C	04/10/2016	10:48	-132.094	44.629	0	1650.50	0	2.2350	0	34.5300	0	27.585	0	1630.708	0	39.1	4	11.9	4	-1E+10	1	-1E+10	1	-1E+10	1	-1E+10	1	-1E+10	1	-1E+10	1
4901784	28	C	04/10/2016	10:48	-132.094	44.629	0	1654.90	0	2.2310	0	34.5310	0	27.586	0	1635.038	0	39.4	4	12.0	4	-1E+10	1	-1E+10	1	-1E+10	1	-1E+10	1	-1E+10	1	-1E+10	1
4901784	28	C	04/10/2016	10:48	-132.094	44.629	0	1659.40	0	2.2250	0	34.5320	0	27.588	0	1639.467	0	39.6	4	12.0	4	-1E+10	1	-1E+10	1	-1E+10	1	-1E+10	1	-1E+10	1	-1E+10	1
4901784	28	C	04/10/2016	10:48	-132.094	44.629	0	1664.80	0	2.2210	0	34.5320	0	27.588	0	1644.781	0	39.9	4	12.1	4	-1E+10	1	-1E+10	1	-1E+10	1	-1E+10	1	-1E+10	1	-1E+10	1
4901784	28	C	04/10/2016	10:48	-132.094	44.629	0	1670.40	0	2.2140	0	34.5330	0	27.589	0	1650.292	0	40.3	4	12.2	4	-1E+10	1	-1E+10	1	-1E+10	1	-1E+10	1	-1E+10	1	-1E+10	1
4901784	28	C	04/10/2016	10:48	-132.094	44.629	0	1675.00	0	2.2040	0	34.5350	0	27.592	0	1654.818	0	40.7	4	12.3	4	-1E+10	1	-1E+10	1	-1E+10	1	-1E+10	1	-1E+10	1	-1E+10	1
4901784	28	C	04/10/2016	10:48	-132.094	44.629	0	1679.70	0	2.1980	0	34.5350	0	27.592	0	1659.443	0	41.0	4	12.4	4	-1E+10	1	-1E+10	1	-1E+10	1	-1E+10	1	-1E+10	1	-1E+10	1
4901784	28	C	04/10/2016	10:48	-132.094	44.629	0	1685.20	0	2.1920	0	34.5360	0	27.594	0	1664.855	0	41.3	4	12.5	4	-1E+10	1	-1E+10	1	-1E+10	1	-1E+10	1	-1E+10	1	-1E+10	1
4901784	28	C	04/10/2016	10:48	-132.094	44.629	0	1689.90	0	2.1880	0	34.5370	0	27.595	0	1669.480	0	41.6	4	12.6	4	-1E+10	1	-1E+10	1	-1E+10	1	-1E+10	1	-1E+10	1	-1E+10	1
4901784	28	C	04/10/2016	10:48	-132.094	44.629	0	1694.50	0	2.1850	0	34.5370	0	27.595	0	1674.007	0	41.7	4	12.6	4	-1E+10	1	-1E+10	1	-1E+10	1	-1E+10	1	-1E+10	1	-1E+10	1
4901784	28	C	04/10/2016	10:48	-132.094	44.629	0	1700.10	0	2.1820	0	34.5380	0	27.596	0	1679.517	0	41.9	4	12.7	4	-1E+10	1	-1E+10	1	-1E+10	1	-1E+10	1	-1E+10	1	-1E+10	1
4901784	28	C	04/10/2016	10:48	-132.094	44.629	0	1704.80	0	2.1780	0	34.5380	0	27.597	0	1684.141	0	42.1	4	12.8	4	-1E+10	1	-1E+10	1	-1E+10	1	-1E+10	1	-1E+10	1	-1E+10	1
4901784	28	C	04/10/2016	10:48	-132.094	44.629	0	1709.40	0	2.1750	0	34.5380	0	27.597	0	1688.667	0	42.4	4	12.8	4	-1E+10	1	-1E+10	1	-1E+10	1	-1E+10	1	-1E+10	1	-1E+10	1
4901784	28	C	04/10/2016	10:48	-132.094	44.629	0	1715.10	0	2.1680	0	34.5400	0	27.599	0	1694.275	0	42.7	4	12.9	4	-1E+10	1	-1E+10	1	-1E+10	1	-1E+10	1	-1E+10	1	-1E+10	1
4901784	28	C	04/10/2016	10:48	-132.094	44.629	0	1719.80	0	2.1660	0	34.5400	0	27.599	0	1698.899	0	42.9	4	13.0	4	-1E+10	1	-1E+10	1	-1E+10	1	-1E+10	1	-1E+10	1	-1E+10	1
4901784	28	C	04/10/2016	10:48	-132.094	44.629	0	1724.50	0	2.1640	0	34.5410	0	27.600	0	1703.523	0	43.1	4	13.1	4	-1E+10	1	-1E+10	1	-1E+10	1	-1E+10	1	-1E+10	1	-1E+10	1
4901784	28	C	04/10/2016	10:48	-132.094	44.629	0	1730.20	0	2.1580	0	34.5410	0	27.601	0	1709.131	0	43.5	4	13.2	4	-1E+10	1	-1E+10	1	-1E+10	1	-1E+10	1	-1E+10	1	-1E+10	1
4901784	28	C	04/10/2016	10:48	-132.094	44.629	0	1734.90	0	2.1480	0	34.5420	0	27.602	0	1713.755	0	43.8	4	13.2	4	-1E+10	1	-1E+10	1	-1E+10	1	-1E+10	1	-1E+10	1	-1E+10	1
4901784	28	C	04/10/2016	10:48	-132.094	44.629	0	1739.70	0	2.1400	0	34.5430	0	27.604	0	1718.477	0	44.1	4	13.3	4	-1E+10	1	-1E+10	1	-1E+10	1	-1E+10	1	-1E+10	1	-1E+10	1
4901784	28	C	04/10/2016	10:48	-132.094	44.629	0	1745.40	0	2.1330	0	34.5440	0	27.605	0	1724.084	0	44.6	4	13.5	4	-1E+10	1	-1E+10	1	-1E+10	1	-1E+10	1	-1E+10	1	-1E+10	1
4901784	28	C	04/10/2016	10:48	-132.094	44.629	0	1749.60	0	2.1290	0	34.5450	0	27.606	0	1728.216	0	44.9	4	13.6	4	-1E+10	1	-1E+10	1	-1E+10	1	-1E+10	1	-1E+10	1	-1E+10	1
4901784	28	C	04/10/2016	10:48	-132.094	44.629	0	1754.50	0	2.1210	0	34.5460	0	27.608	0	1733.036	0	45.3	4	13.7	4	-1E+10	1	-1E+10	1	-1E+10	1	-1E+10	1	-1E+10	1	-1E+10	1
4901784	28	C	04/10/2016	10:48	-132.094	44.629	0	1759.50	0	2.1180	0	34.5470	0	27.609	0	1737.954	0	45.6	4	13.8	4	-1E+10	1	-1E+10	1	-1E+10	1	-1E+10	1	-1E+10	1	-1E+10	1
4901784	28	C	04/10/2016	10:48	-132.094	44.629	0	1764.40	0	2.1130	0	34.5470	0	27.609	0	1742.774	0	45.8	4	13.9	4	-1E+10	1	-1E+10	1	-1E+10	1	-1E+10	1	-1E+10	1	-1E+10	1
4901784	28	C	04/10/2016	10:48	-132.094	44.629	0	1769.40	0	2.1070	0	34.5480	0	27.611	0	1747.692	0	46.2	4	14.0	4	-1E+10	1	-1E+10	1	-1E+10	1	-1E+10	1	-1E+10	1	-1E+10	1
4901784	28	C	04/10/2016	10:48	-132.094	44.629	0	1774.40	0	2.1010	0	34.5490	0	27.612	0	1752.610	0	46.5	4	14.0	4	-1E+10	1	-1E+10	1	-1E+10	1	-1E+10	1	-1E+10	1	-1E+10	1
4901784	28	C	04/10/2016	10:48	-132.094	44.629	0	1779.50	0	2.0980	0	34.5490	0	27.612	0	1757.627	0	46.6	4	14.1	4	-1E+10	1	-1E+10	1	-1E+10	1	-1E+10	1	-1E+10	1	-1E+10	1
4901784	28	C	04/10/2016	10:48	-132.094	44.629	0	1784.50	0	2.0960	0	34.5490	0	27.612	0	1762.544	0	47.0	4	14.2	4	-1E+10	1	-1E+10	1	-1E+10	1	-1E+10	1	-1E+10	1	-1E+10	1
4901784	28	C	04/10/2016	10:48	-132.094	44.629	0	1789.60	0	2.0890	0	34.5510	0	27.614	0	1767.560	0	47.3	4	14.3	4	-1E+10	1	-1E+10	1	-1E+10	1	-1E+10	1	-1E+10	1	-1E+10	1
4901784	28	C	04/10/2016	10:48	-132.094	44.629	0	1794.80	0	2.0840	0	34.5520	0	27.616	0	1772.675	0	47.7	4	14.4	4	-1E+10	1	-1E+10	1	-1E+10	1	-1E+10	1	-1E+10	1	-1E+10	1
4901784	28	C	04/10/2016	10:48	-132.094	44.629	0	1799.90	0	2.0780	0	34.5520	0	27.616	0	1777.691	0	48.2	4	14.6	4	-1E+10	1	-1E+10	1	-1E+10	1	-1E+10	1	-1E+10	1	-1E+10	1
4901784	28	C	04/10/2016	10:48	-132.094	44.629	0	1805.00	0	2.0740	0	34.5530	0	27.617	0	1782.706	0	48.6	4	14.7	4	-1E+10	1	-1E+10	1	-1E+10	1	-1E+10	1	-1E+10	1	-1E+10	1
4901784	28	C	04/10/2016	10:48	-132.094	44.629	0	1810.10	0	2.0680	0	34.5550	0	27.619	0	1787.722	0	49.0	4	14.8	4	-1E+10	1	-1E+10	1	-1E+10	1	-1E+10	1	-1E+10	1	-1E+10	1
4901784	28	C	04/10/2016	10:48	-132.094	44.629	0	1815.30	0	2.0630	0	34.5550	0	27.620	0	1792.836	0	49.3	4	14.9	4	-1E+10	1	-1E+10	1	-1E+10	1	-1E+10	1	-1E+10	1	-1E+10	1
4901784	28	C	04/10/2016	10:48	-132.094	44.629	0	1820.50	0	2.0560	0	34.5560	0	27.621	0	1797.949	0	49.5	4	14.9	4	-1E+10	1	-1E+10	1	-1E+10	1	-1E+10	1	-1E+10	1	-1E+10	1
4901784	28	C	04/10/2016	10:48	-132.094	44.629	0	1824.90	0	2.0530	0	34.5570	0	27.622	0	1802.276	0	49.5	4	14.9	4	-1E+10	1	-1E+10	1	-1E+10	1	-1E+10	1	-1E+10	1	-1E+10	1
4901784	28	C	04/10/2016	10:48	-132.094	44.629	0	1829.30	0	2.0480	0	34.5570	0	27.623	0	1806.603	0	49.6	4	15.0	4	-1E+10	1	-1E+10	1	-1E+10	1	-1E+10	1	-1E+10	1	-1E+10	1
4901784	28	C	04/10/2016	10:48	-132.094	44.629	0	1834.50	0	2.0420	0	34.5570	0	27.623	0	1811.716	0	49.7	4	15.0	4	-1E+10	1	-1E+10	1	-1E+10	1	-1E+10	1	-1E+10	1	-1E+10	1
4901784	28	C	04/10/2016	10:48	-132.094	44.629	0	1839.80	0	2.0390	0	34.5580	0	27.624	0	1816.928	0	50.0	4	15.1	4	-1E+10	1	-1E+10	1	-1E+10	1	-1E+10	1	-1E+10	1	-1E+10	1
4901784	28	C	04/10/2016	10:48	-132.094	44.629	0	1845.00	0	2.0350	0	34.5580	0	27.625	0	1822.041	0	50.4	4	15.2	4	-1E+10	1	-1E+10	1	-1E+10	1	-1E+10	1	-1E+10	1	-1E+10	1
4901784	28	C	04/10/2016	10:48	-132.094	44.629	0	1850.30	0	2.0290	0	34.5590	0	27.626	0	1827.252	0	50.8	4	15.3	4	-1E+10	1	-1E+10	1	-1E+10	1	-1E+10	1	-1E+10	1	-1E+10	1
4901784	28	C	04/10/2016	10:48	-132.094	44.629	0	1855.60	0	2.0220	0	34.5600	0	27.627	0	1832.463	0	51.2	4	15.4	4	-1E+10	1	-1E+10	1	-1E+10	1	-1E+10	1	-1E+10	1	-1E+10	1
4901784	28	C	04/10/2016	10:48	-132.094	44.629	0	1860.00	0	2.0210	0	34.5610	0	27.628	0	1836.789	0	51.5	4	15.5	4	-1E+10	1	-1E+10	1	-1E+10	1	-1E+10	1	-1E+10	1	-1E+10	1
4901784	28	C	04/10/2016	10:48	-132.094	44.629	0	1864.50	0	2.0190	0	34.5610	0	27.628	0	1841.214	0	51.8	4	15.6	4	-1E+10	1	-1E+10	1	-1E+10	1	-1E+10	1	-1E+10	1	-1E+10	1
4901784	28	C	04/10/2016	10:48	-132.094	44.629	0	1869.80	0	2.0170	0	34.5620	0	27.629	0	1846.425	0	52.0	4	15.7	4	-1E+10	1	-1E+10	1	-1E+10	1	-1E+10	1	-1E+10	1	-1E+10	1
4901784	28	C	04/10/2016	10:48	-132.094	44.629	0	1875.10	0	2.0110	0	34.5620	0	27.630	0	1851.635	0	52.2	4	15.7	4	-1E+10	1	-1E+10	1	-1E+10	1	-1E+10	1	-1E+10	1	-1E+10	1
4901784	28	C	04/10/2016	10:48	-132.094	44.629	0	1880.40	0	2.0040	0	34.5630	0	27.631	0	1856.846	0	52.4	4	15.8	4	-1E+10	1	-1E+10	1	-1E+10	1	-1E+10	1	-1E+10	1	-1E+10	1
4901784	28	C	04/10/2016	10:48	-132.094	44.629	0	1884.90	0	2.0020	0	34.5640	0	27.632	0	1861.270	0	52.6	4	15.9	4	-1E+10	1	-1E+10	1	-1E+10	1	-1E+10	1	-1E+10	1	-1E+10	1
4901784	28	C	04/10/2016	10:48	-132.094	44.629	0	1889.40	0	2.0000	0	34.5640	0	27.632	0	1865.694	0	52.7	4	15.9	4	-1E+10	1	-1E+10	1	-1E+10	1	-1E+10	1	-1E+10	1	-1E+10	1
4901784	28	C	04/10/2016	10:48	-132.094	44.629	0	1894.80	0	1.9970	0	34.5640	0	27.633	0	1871.002	0	53.1	4	16.0	4	-1E+10	1	-1E+10	1	-1E+10	1	-1E+10	1	-1E+10	1	-1E+10	1
4901784	28	C	04/10/2016	10:48	-132.094	44.629	0	1900.20	0	1.9920	0	34.5650	0	27.634	0	1876.311	0	53.4	4	16.1	4	-1E+10	1	-1E+10	1	-1E+10	1	-1E+10	1	-1E+10	1	-1E+10	1
4901784	28	C	04/10/2016	10:48	-132.094	44.629	0	1905.70	0	1.9890	0	34.5660	0	27.635	0	1881.717	0	53.5	4	16.1	4	-1E+10	1	-1E+10	1	-1E+10	1	-1E+10	1	-1E+10	1	-1E+10	1
4901784	28	C	04/10/2016	10:48	-132.094	44.629	0	1910.30	0	1.9880	0	34.5660	0	27.635	0	1886.239	0	53.7	4	16.2	4	-1E+10	1	-1E+10	1	-1E+10	1	-1E+10	1	-1E+10	1	-1E+10	1
4901784	28	C	04/10/2016	10:48	-132.094	44.629	0	1914.90	0	1.9870	0	34.5660	0	27.635	0	1890.761	0	53.9	4	16.2	4	-1E+10	1	-1E+10	1	-1E+10	1	-1E+10	1	-1E+10	1	-1E+10	1
4901784	28	C	04/10/2016	10:48	-132.094	44.629	0	1920.40	0	1.9840	0	34.5670	0	27.636	0	1896.167	0	54.4	4	16.4	4	-1E+10	1	-1E+10	1	-1E+10	1	-1E+10	1	-1E+10	1	-1E+10	1
4901784	28	C	04/10/2016	10:48	-132.094	44.629	0	1925.00	0	1.9830	0	34.5680	0	27.637	0	1900.688	0	54.6	4	16.5	4	-1E+10	1	-1E+10	1	-1E+10	1	-1E+10	1	-1E+10	1	-1E+10	1
4901784	28	C	04/10/2016	10:48	-132.094	44.629	0	1929.70	0	1.9790	0	34.5680	0	27.637	0	1905.308	0	54.7	4	16.5	4	-1E+10	1	-1E+10	1	-1E+10	1	-1E+10	1	-1E+10	1	-1E+10	1
4901784	28	C	04/10/2016	10:48	-132.094	44.629	0	1935.40	0	1.9730	0	34.5690	0	27.639	0	1910.910	0	55.0	4	16.6	4	-1E+10	1	-1E+10	1	-1E+10	1	-1E+10	1	-1E+10	1	-1E+10	1
4901784	28	C	04/10/2016	10:48	-132.094	44.629	0	1939.50	0	1.9700	0	34.5690	0	27.639	0	1914.940	0	55.2	4	16.6	4	-1E+10	1	-1E+10	1	-1E+10	1	-1E+10	1	-1E+10	1	-1E+10	1
4901784	28	C	04/10/2016	10:48	-132.094	44.629	0	1944.50	0	1.9670	0	34.5700	0	27.640	0	1919.854	0	55.6	4	16.7	4	-1E+10	1	-1E+10	1	-1E+10	1	-1E+10	1	-1E+10	1	-1E+10	1
4901784	28	C	04/10/2016	10:48	-132.094	44.629	0	1949.40	0	1.9650	0	34.5700	0	27.640	0	1924.670	0	55.9	4	16.8	4	-1E+10	1	-1E+10	1	-1E+10	1	-1E+10	1	-1E+10	1	-1E+10	1
4901784	28	C	04/10/2016	10:48	-132.094	44.629	0	1954.40	0	1.9610	0	34.5710	0	27.641	0	1929.584	0	56.3	4	17.0	4	-1E+10	1	-1E+10	1	-1E+10	1	-1E+10	1	-1E+10	1	-1E+10	1
4901784	28	C	04/10/2016	10:48	-132.094	44.629	0	1959.40	0	1.9560	0	34.5720	0	27.643	0	1934.497	0	56.7	4	17.1	4	-1E+10	1	-1E+10	1	-1E+10	1	-1E+10	1	-1E+10	1	-1E+10	1
4901784	28	C	04/10/2016	10:48	-132.094	44.629	0	1964.40	0	1.9540	0	34.5730	0	27.644	0	1939.411	0	57.0	4	17.2	4	-1E+10	1	-1E+10	1	-1E+10	1	-1E+10	1	-1E+10	1	-1E+10	1
4901784	28	C	04/10/2016	10:48	-132.094	44.629	0	1969.40	0	1.9490	0	34.5730	0	27.644	0	1944.325	0	57.4	4	17.3	4	-1E+10	1	-1E+10	1	-1E+10	1	-1E+10	1	-1E+10	1	-1E+10	1
4901784	28	C	04/10/2016	10:48	-132.094	44.629	0	1974.40	0	1.9470	0	34.5740	0	27.645	0	1949.238	0	57.6	4	17.3	4	-1E+10	1	-1E+10	1	-1E+10	1	-1E+10	1	-1E+10	1	-1E+10	1
4901784	28	C	04/10/2016	10:48	-132.094	44.629	0	1979.60	0	1.9430	0	34.5740	0	27.645	0	1954.348	0	57.9	4	17.4	4	-1E+10	1	-1E+10	1	-1E+10	1	-1E+10	1	-1E+10	1	-1E+10	1
4901784	28	C	04/10/2016	10:48	-132.094	44.629	0	1984.60	0	1.9380	0	34.5750	0	27.646	0	1959.261	0	58.2	4	17.5	4	-1E+10	1	-1E+10	1	-1E+10	1	-1E+10	1	-1E+10	1	-1E+10	1
4901784	28	C	04/10/2016	10:48	-132.094	44.629	0	1989.70	0	1.9360	0	34.5760	0	27.647	0	1964.273	0	58.4	4	17.6	4	-1E+10	1	-1E+10	1	-1E+10	1	-1E+10	1	-1E+10	1	-1E+10	1
4901784	28	C	04/10/2016	10:48	-132.094	44.629	0	1994.80	0	1.9330	0	34.5760	0	27.648	0	1969.284	0	58.7	4	17.7	4	-1E+10	1	-1E+10	1	-1E+10	1	-1E+10	1	-1E+10	1	-1E+10	1
4901784	28	C	04/10/2016	10:48	-132.094	44.629	0	1999.90	0	1.9300	0	34.5770	0	27.649	0	1974.295	0	58.9	4	17.7	4	-1E+10	1	-1E+10	1	-1E+10	1	-1E+10	1	-1E+10	1	-1E+10	1
4901784	28	C	04/10/2016	10:48	-132.094	44.629	0	2005.10	0	1.9290	0	34.5770	0	27.649	0	1979.404	0	59.2	4	17.8	4	-1E+10	1	-1E+10	1	-1E+10	1	-1E+10	1	-1E+10	1	-1E+10	1
4901784	28	C	04/10/2016	10:48	-132.094	44.629	0	2010.10	0	1.9270	0	34.5780	0	27.650	0	1984.317	0	59.5	4	17.9	4	-1E+10	1	-1E+10	1	-1E+10	1	-1E+10	1	-1E+10	1	-1E+10	1
4901784	28	C	04/10/2016	10:48	-132.094	44.629	0	2015.00	0	1.9230	0	34.5780	0	27.650	0	1989.131	0	59.8	4	18.0	4	-1E+10	1	-1E+10	1	-1E+10	1	-1E+10	1	-1E+10	1	-1E+10	1
4901784	28	C	04/10/2016	10:48	-132.094	44.629	0	2019.70	0	1.9210	0	34.5790	0	27.651	0	1993.749	0	60.1	4	18.1	4	-1E+10	1	-1E+10	1	-1E+10	1	-1E+10	1	-1E+10	1	-1E+10	1
4901784	28	C	04/10/2016	10:48	-132.094	44.629	0																										
4901784	29	C	04/20/2016	10:45	-132.034	44.661	0	3.10	0	10.6740	0	32.7260	0	25.063	0	3.075	0	270.9	4	98.5	4	-1E+10	1	-1E+10	1	-1E+10	1	-1E+10	1	-1E+10	1	-1E+10	1
4901784	29	C	04/20/2016	10:45	-132.034	44.661	0	4.60	0	10.6730	0	32.7210	0	25.059	0	4.563	0	271.2	4	98.6	4	-1E+10	1	-1E+10	1	-1E+10	1	-1E+10	1	-1E+10	1	-1E+10	1
4901784	29	C	04/20/2016	10:45	-132.034	44.661	0	6.30	0	10.6770	0	32.7240	0	25.061	0	6.249	0	270.7	4	98.4	4	-1E+10	1	-1E+10	1	-1E+10	1	-1E+10	1	-1E+10	1	-1E+10	1
4901784	29	C	04/20/2016	10:45	-132.034	44.661	0	8.20	0	10.6190	0	32.7280	0	25.074	0	8.134	0	271.0	4	98.4	4	-1E+10	1	-1E+10	1	-1E+10	1	-1E+10	1	-1E+10	1	-1E+10	1
4901784	29	C	04/20/2016	10:45	-132.034	44.661	0	10.00	0	10.6110	0	32.7270	0	25.075	0	9.919	0	270.7	4	98.3	4	-1E+10	1	-1E+10	1	-1E+10	1	-1E+10	1	-1E+10	1	-1E+10	1
4901784	29	C	04/20/2016	10:45	-132.034	44.661	0	11.80	0	10.5900	0	32.7300	0	25.081	0	11.704	0	270.9	4	98.3	4	-1E+10	1	-1E+10	1	-1E+10	1	-1E+10	1	-1E+10	1	-1E+10	1
4901784	29	C	04/20/2016	10:45	-132.034	44.661	0	13.70	0	10.5700	0	32.7290	0	25.083	0	13.589	0	270.8	4	98.2	4	-1E+10	1	-1E+10	1	-1E+10	1	-1E+10	1	-1E+10	1	-1E+10	1
4901784	29	C	04/20/2016	10:45	-132.034	44.661	0	15.60	0	10.5680	0	32.7290	0	25.084	0	15.473	0	270.9	4	98.3	4	-1E+10	1	-1E+10	1	-1E+10	1	-1E+10	1	-1E+10	1	-1E+10	1
4901784	29	C	04/20/2016	10:45	-132.034	44.661	0	17.40	0	10.5690	0	32.7300	0	25.084	0	17.259	0	270.8	4	98.2	4	-1E+10	1	-1E+10	1	-1E+10	1	-1E+10	1	-1E+10	1	-1E+10	1
4901784	29	C	04/20/2016	10:45	-132.034	44.661	0	19.30	0	10.5740	0	32.7290	0	25.083	0	19.143	0	270.5	4	98.1	4	-1E+10	1	-1E+10	1	-1E+10	1	-1E+10	1	-1E+10	1	-1E+10	1
4901784	29	C	04/20/2016	10:45	-132.034	44.661	0	21.10	0	10.5680	0	32.7300	0	25.084	0	20.928	0	270.2	4	98.0	4	-1E+10	1	-1E+10	1	-1E+10	1	-1E+10	1	-1E+10	1	-1E+10	1
4901784	29	C	04/20/2016	10:45	-132.034	44.661	0	23.00	0	10.5570	0	32.7310	0	25.087	0	22.813	0	270.0	4	97.9	4	-1E+10	1	-1E+10	1	-1E+10	1	-1E+10	1	-1E+10	1	-1E+10	1
4901784	29	C	04/20/2016	10:45	-132.034	44.661	0	24.90	0	10.5130	0	32.7300	0	25.094	0	24.697	0	270.2	4	97.9	4	-1E+10	1	-1E+10	1	-1E+10	1	-1E+10	1	-1E+10	1	-1E+10	1
4901784	29	C	04/20/2016	10:45	-132.034	44.661	0	26.70	0	10.5090	0	32.7300	0	25.095	0	26.482	0	269.9	4	97.8	4	-1E+10	1	-1E+10	1	-1E+10	1	-1E+10	1	-1E+10	1	-1E+10	1
4901784	29	C	04/20/2016	10:45	-132.034	44.661	0	28.60	0	10.5080	0	32.7290	0	25.094	0	28.367	0	269.4	4	97.6	4	-1E+10	1	-1E+10	1	-1E+10	1	-1E+10	1	-1E+10	1	-1E+10	1
4901784	29	C	04/20/2016	10:45	-132.034	44.661	0	30.50	0	10.4820	0	32.7320	0	25.101	0	30.251	0	269.0	4	97.4	4	-1E+10	1	-1E+10	1	-1E+10	1	-1E+10	1	-1E+10	1	-1E+10	1
4901784	29	C	04/20/2016	10:45	-132.034	44.661	0	32.40	0	10.4780	0	32.7300	0	25.100	0	32.135	0	268.3	4	97.1	4	-1E+10	1	-1E+10	1	-1E+10	1	-1E+10	1	-1E+10	1	-1E+10	1
4901784	29	C	04/20/2016	10:45	-132.034	44.661	0	34.30	0	10.4240	0	32.7290	0	25.109	0	34.020	0	267.5	4	96.7	4	-1E+10	1	-1E+10	1	-1E+10	1	-1E+10	1	-1E+10	1	-1E+10	1
4901784	29	C	04/20/2016	10:45	-132.034	44.661	0	36.20	0	10.3470	0	32.7320	0	25.124	0	35.904	0	267.3	4	96.5	4	-1E+10	1	-1E+10	1	-1E+10	1	-1E+10	1	-1E+10	1	-1E+10	1
4901784	29	C	04/20/2016	10:45	-132.034	44.661	0	38.10	0	10.2590	0	32.7360	0	25.142	0	37.788	0	267.2	4	96.3	4	-1E+10	1	-1E+10	1	-1E+10	1	-1E+10	1	-1E+10	1	-1E+10	1
4901784	29	C	04/20/2016	10:45	-132.034	44.661	0	40.40	0	10.2340	0	32.7360	0	25.146	0	40.069	0	266.7	4	96.1	4	-1E+10	1	-1E+10	1	-1E+10	1	-1E+10	1	-1E+10	1	-1E+10	1
4901784	29	C	04/20/2016	10:45	-132.034	44.661	0	40.90	0	10.2240	0	32.7370	0	25.149	0	40.565	0	266.8	4	96.1	4	-1E+10	1	-1E+10	1	-1E+10	1	-1E+10	1	-1E+10	1	-1E+10	1
4901784	29	C	04/20/2016	10:45	-132.034	44.661	0	42.60	0	10.1110	0	32.7360	0	25.167	0	42.251	0	266.8	4	95.8	4	-1E+10	1	-1E+10	1	-1E+10	1	-1E+10	1	-1E+10	1	-1E+10	1
4901784	29	C	04/20/2016	10:45	-132.034	44.661	0	44.10	0	10.0810	0	32.7450	0	25.179	0	43.739	0	266.3	4	95.6	4	-1E+10	1	-1E+10	1	-1E+10	1	-1E+10	1	-1E+10	1	-1E+10	1
4901784	29	C	04/20/2016	10:45	-132.034	44.661	0	45.80	0	10.0440	0	32.7460	0	25.186	0	45.425	0	265.9	4	95.4	4	-1E+10	1	-1E+10	1	-1E+10	1	-1E+10	1	-1E+10	1	-1E+10	1
4901784	29	C	04/20/2016	10:45	-132.034	44.661	0	47.40	0	10.0180	0	32.7490	0	25.193	0	47.011	0	265.5	4	95.2	4	-1E+10	1	-1E+10	1	-1E+10	1	-1E+10	1	-1E+10	1	-1E+10	1
4901784	29	C	04/20/2016	10:45	-132.034	44.661	0	49.00	0	9.9950	0	32.7510	0	25.198	0	48.598	0	265.1	4	95.0	4	-1E+10	1	-1E+10	1	-1E+10	1	-1E+10	1	-1E+10	1	-1E+10	1
4901784	29	C	04/20/2016	10:45	-132.034	44.661	0	50.60	0	9.9290	0	32.7600	0	25.216	0	50.185	0	264.6	4	94.7	4	-1E+10	1	-1E+10	1	-1E+10	1	-1E+10	1	-1E+10	1	-1E+10	1
4901784	29	C	04/20/2016	10:45	-132.034	44.661	0	52.30	0	9.8740	0	32.7650	0	25.229	0	51.871	0	264.6	4	94.6	4	-1E+10	1	-1E+10	1	-1E+10	1	-1E+10	1	-1E+10	1	-1E+10	1
4901784	29	C	04/20/2016	10:45	-132.034	44.661	0	53.90	0	9.7930	0	32.7670	0	25.244	0	53.457	0	264.8	4	94.5	4	-1E+10	1	-1E+10	1	-1E+10	1	-1E+10	1	-1E+10	1	-1E+10	1
4901784	29	C	04/20/2016	10:45	-132.034	44.661	0	55.50	0	9.7580	0	32.7660	0	25.249	0	55.044	0	264.5	4	94.3	4	-1E+10	1	-1E+10	1	-1E+10	1	-1E+10	1	-1E+10	1	-1E+10	1
4901784	29	C	04/20/2016	10:45	-132.034	44.661	0	57.30	0	9.7300	0	32.7670	0	25.255	0	56.829	0	264.2	4	94.1	4	-1E+10	1	-1E+10	1	-1E+10	1	-1E+10	1	-1E+10	1	-1E+10	1
4901784	29	C	04/20/2016	10:45	-132.034	44.661	0	59.00	0	9.6990	0	32.7660	0	25.259	0	58.515	0	263.5	4	93.8	4	-1E+10	1	-1E+10	1	-1E+10	1	-1E+10	1	-1E+10	1	-1E+10	1
4901784	29	C	04/20/2016	10:45	-132.034	44.661	0	60.60	0	9.6710	0	32.7630	0	25.261	0	60.101	0	262.7	4	93.5	4	-1E+10	1	-1E+10	1	-1E+10	1	-1E+10	1	-1E+10	1	-1E+10	1
4901784	29	C	04/20/2016	10:45	-132.034	44.661	0	62.20	0	9.6540	0	32.7630	0	25.264	0	61.688	0	261.3	4	92.9	4	-1E+10	1	-1E+10	1	-1E+10	1	-1E+10	1	-1E+10	1	-1E+10	1
4901784	29	C	04/20/2016	10:45	-132.034	44.661	0	63.90	0	9.6780	0	32.7700	0	25.266	0	63.373	0	259.6	4	92.4	4	-1E+10	1	-1E+10	1	-1E+10	1	-1E+10	1	-1E+10	1	-1E+10	1
4901784	29	C	04/20/2016	10:45	-132.034	44.661	0	65.40	0	9.6650	0	32.7790	0	25.275	0	64.861	0	258.1	4	91.8	4	-1E+10	1	-1E+10	1	-1E+10	1	-1E+10	1	-1E+10	1	-1E+10	1
4901784	29	C	04/20/2016	10:45	-132.034	44.661	0	67.00	0	9.6480	0	32.7790	0	25.278	0	66.447	0	256.9	4	91.4	4	-1E+10	1	-1E+10	1	-1E+10	1	-1E+10	1	-1E+10	1	-1E+10	1
4901784	29	C	04/20/2016	10:45	-132.034	44.661	0	68.60	0	9.5850	0	32.8030	0	25.307	0	68.034	0	255.4	4	90.7	4	-1E+10	1	-1E+10	1	-1E+10	1	-1E+10	1	-1E+10	1	-1E+10	1
4901784	29	C	04/20/2016	10:45	-132.034	44.661	0	70.30	0	9.5610	0	32.8060	0	25.313	0	69.720	0	254.2	4	90.3	4	-1E+10	1	-1E+10	1	-1E+10	1	-1E+10	1	-1E+10	1	-1E+10	1
4901784	29	C	04/20/2016	10:45	-132.034	44.661	0	72.00	0	9.5500	0	32.8070	0	25.315	0	71.405	0	252.7	4	89.7	4	-1E+10	1	-1E+10	1	-1E+10	1	-1E+10	1	-1E+10	1	-1E+10	1
4901784	29	C	04/20/2016	10:45	-132.034	44.661	0	73.70	0	9.5500	0	32.8120	0	25.319	0	73.091	0	250.3	4	88.9	4	-1E+10	1	-1E+10	1	-1E+10	1	-1E+10	1	-1E+10	1	-1E+10	1
4901784	29	C	04/20/2016	10:45	-132.034	44.661	0	75.40	0	9.5540	0	32.8210	0	25.326	0	74.777	0	247.6	4	87.9	4	-1E+10	1	-1E+10	1	-1E+10	1	-1E+10	1	-1E+10	1	-1E+10	1
4901784	29	C	04/20/2016	10:45	-132.034	44.661	0	77.10	0	9.5260	0	32.8340	0	25.340	0	76.462	0	244.6	4	86.8	4	-1E+10	1	-1E+10	1	-1E+10	1	-1E+10	1	-1E+10	1	-1E+10	1
4901784	29	C	04/20/2016	10:45	-132.034	44.661	0	78.80	0	9.5150	0	32.8710	0	25.371	0	78.148	0	241.1	4	85.5	4	-1E+10	1	-1E+10	1	-1E+10	1	-1E+10	1	-1E+10	1	-1E+10	1
4901784	29	C	04/20/2016	10:45	-132.034	44.661	0	81.10	0	9.4650	0	32.8970	0	25.400	0	80.428	0	238.7	4	84.6	4	-1E+10	1	-1E+10	1	-1E+10	1	-1E+10	1	-1E+10	1	-1E+10	1
4901784	29	C	04/20/2016	10:45	-132.034	44.661	0	82.80	0	9.4160	0	32.9110	0	25.418	0	82.114	0	236.1	4	83.6	4	-1E+10	1	-1E+10	1	-1E+10	1	-1E+10	1	-1E+10	1	-1E+10	1
4901784	29	C	04/20/2016	10:45	-132.034	44.661	0	84.20	0	9.3090	0	32.9360	0	25.455	0	83.502	0	234.6	4	82.9	4	-1E+10	1	-1E+10	1	-1E+10	1	-1E+10	1	-1E+10	1	-1E+10	1
4901784	29	C	04/20/2016	10:45	-132.034	44.661	0	85.60	0	9.2870	0	32.9670	0	25.483	0	84.890	0	232.1	4	82.0	4	-1E+10	1	-1E+10	1	-1E+10	1	-1E+10	1	-1E+10	1	-1E+10	1
4901784	29	C	04/20/2016	10:45	-132.034	44.661	0	87.00	0	9.2650	0	32.9880	0	25.503	0	86.278	0	229.6	4	81.1	4	-1E+10	1	-1E+10	1	-1E+10	1	-1E+10	1	-1E+10	1	-1E+10	1
4901784	29	C	04/20/2016	10:45	-132.034	44.661	0	88.50	0	9.2560	0	33.0040	0	25.517	0	87.766	0	226.8	4	80.1	4	-1E+10	1	-1E+10	1	-1E+10	1	-1E+10	1	-1E+10	1	-1E+10	1
4901784	29	C	04/20/2016	10:45	-132.034	44.661	0	89.90	0	9.2360	0	33.0240	0	25.536	0	89.154	0	224.1	4	79.1	4	-1E+10	1	-1E+10	1	-1E+10	1	-1E+10	1	-1E+10	1	-1E+10	1
4901784	29	C	04/20/2016	10:45	-132.034	44.661	0	91.50	0	9.1750	0	33.0780	0	25.588	0	90.740	0	222.0	4	78.3	4	-1E+10	1	-1E+10	1	-1E+10	1	-1E+10	1	-1E+10	1	-1E+10	1
4901784	29	C	04/20/2016	10:45	-132.034	44.661	0	93.00	0	9.1470	0	33.1040	0	25.612	0	92.227	0	220.2	4	77.7	4	-1E+10	1	-1E+10	1	-1E+10	1	-1E+10	1	-1E+10	1	-1E+10	1
4901784	29	C	04/20/2016	10:45	-132.034	44.661	0	94.70	0	9.1260	0	33.1220	0	25.630	0	93.913	0	218.8	4	77.1	4	-1E+10	1	-1E+10	1	-1E+10	1	-1E+10	1	-1E+10	1	-1E+10	1
4901784	29	C	04/20/2016	10:45	-132.034	44.661	0	96.30	0	9.1180	0	33.1300	0	25.637	0	95.499	0	217.1	4	76.5	4	-1E+10	1	-1E+10	1	-1E+10	1	-1E+10	1	-1E+10	1	-1E+10	1
4901784	29	C	04/20/2016	10:45	-132.034	44.661	0	98.00	0	9.1040	0	33.1460	0	25.652	0	97.184	0	215.1	4	75.8	4	-1E+10	1	-1E+10	1	-1E+10	1	-1E+10	1	-1E+10	1	-1E+10	1
4901784	29	C	04/20/2016	10:45	-132.034	44.661	0	99.60	0	9.0660	0	33.1840	0	25.688	0	98.771	0	213.5	4	75.2	4	-1E+10	1	-1E+10	1	-1E+10	1	-1E+10	1	-1E+10	1	-1E+10	1
4901784	29	C	04/20/2016	10:45	-132.034	44.661	0	102.90	0	8.9270	0	33.2610	0	25.770	0	102.042	0	212.0	4	74.5	4	-1E+10	1	-1E+10	1	-1E+10	1	-1E+10	1	-1E+10	1	-1E+10	1
4901784	29	C	04/20/2016	10:45	-132.034	44.661	0	104.60	0	8.9050	0	33.2810	0	25.789	0	103.728	0	211.2	4	74.2	4	-1E+10	1	-1E+10	1	-1E+10	1	-1E+10	1	-1E+10	1	-1E+10	1
4901784	29	C	04/20/2016	10:45	-132.034	44.661	0	107.10	0	8.8890	0	33.3050	0	25.810	0	106.206	0	210.0	4	73.7	4	-1E+10	1	-1E+10	1	-1E+10	1	-1E+10	1	-1E+10	1	-1E+10	1
4901784	29	C	04/20/2016	10:45	-132.034	44.661	0	109.70	0	8.8790	0	33.3100	0	25.816	0	108.784	0	208.5	4	73.2	4	-1E+10	1	-1E+10	1	-1E+10	1	-1E+10	1	-1E+10	1	-1E+10	1
4901784	29	C	04/20/2016	10:45	-132.034	44.661	0	112.20	0	8.8380	0	33.3410	0	25.847	0	111.262	0	206.3	4	72.4	4	-1E+10	1	-1E+10	1	-1E+10	1	-1E+10	1	-1E+10	1	-1E+10	1
4901784	29	C	04/20/2016	10:45	-132.034	44.661	0	114.70	0	8.7820	0	33.4070	0	25.907	0	113.741	0	203.6	4	71.4	4	-1E+10	1	-1E+10	1	-1E+10	1	-1E+10	1	-1E+10	1	-1E+10	1
4901784	29	C	04/20/2016	10:45	-132.034	44.661	0	117.10	0	8.7340	0	33.4500	0	25.948	0	116.120	0	200.1	4	70.1	4	-1E+10	1	-1E+10	1	-1E+10	1	-1E+10	1	-1E+10	1	-1E+10	1
4901784	29	C	04/20/2016	10:45	-132.034	44.661	0	120.30	0	8.6250	0	33.5130	0	26.014	0	119.292	0	196.5	4	68.7	4	-1E+10	1	-1E+10	1	-1E+10	1	-1E+10	1	-1E+10	1	-1E+10	1
4901784	29	C	04/20/2016	10:45	-132.034	44.661	0	122.80	0	8.6000	0	33.5290	0	26.031	0	121.771	0	195.2	4	68.2	4	-1E+10	1	-1E+10	1	-1E+10	1	-1E+10	1	-1E+10	1	-1E+10	1
4901784	29	C	04/20/2016	10:45	-132.034	44.661	0	125.30	0	8.5300	0	33.5770	0	26.079	0	124.249	0	194.1	4	67.8	4	-1E+10	1	-1E+10	1	-1E+10	1	-1E+10	1	-1E+10	1	-1E+10	1
4901784	29	C	04/20/2016	10:45	-132.034	44.661	0	127.80	0	8.4770	0	33.6140	0	26.116	0	126.727	0	193.7	4	67.5	4	-1E+10	1	-1E+10	1	-1E+10	1	-1E+10	1	-1E+10	1	-1E+10	1
4901784	29	C	04/20/2016	10:45	-132.034	44.661	0	130.00	0	8.4550	0	33.6270	0	26.130	0	128.908	0	193.7	4	67.5	4	-1E+10	1	-1E+10	1	-1E+10	1	-1E+10	1	-1E+10	1	-1E+10	1
4901784	29	C	04/20/2016	10:45	-132.034	44.661	0	132.60	0	8.4390	0	33.6510	0	26.151	0	131.486	0	193.5	4	67.4	4	-1E+10	1	-1E+10	1	-1E+10	1	-1E+10	1	-1E+10	1	-1E+10	1
4901784	29	C	04/20/2016	10:45	-132.034	44.661	0	134.90	0	8.4310	0	33.6570	0	26.157	0	133.765	0	192.8	4	67.2	4	-1E+10	1	-1E+10	1	-1E+10	1	-1E+10	1	-1E+10	1	-1E+10	1
4901784	29	C	04/20/2016	10:45	-132.034	44.661	0	137.30	0	8.4070	0	33.6660	0	26.168	0	136.144	0	191.8	4	66.8	4	-1E+10	1	-1E+10	1	-1E+10	1	-1E+10	1	-1E+10	1	-1E+10	1
4901784	29	C	04/20/2016	10:45	-132.034	44.661	0	140.40	0	8.3770	0	33.6780	0	26.182	0	139.217	0	190.2	4	66.2	4	-1E+10	1	-1E+10	1	-1E+10	1	-1E+10	1	-1E+10	1	-1E+10	1
4901784	29	C	04/20/2016	10:45	-132.034	44.661	0	142.80	0	8.3210	0	33.7070	0	26.213	0	141.596	0	188.4	4	65.5	4	-1E+10	1	-1E+10	1	-1E+10	1	-1E+10	1	-1E+10	1	-1E+10	1
4901784	29	C	04/20/2016	10:45	-132.034	44.661	0	145.20	0	8.2380	0	33.7280	0	26.242	0	143.975	0	187.6	4	65.1	4	-1E+10	1	-1E+10	1	-1E+10	1	-1E+10	1	-1E+10	1	-1E+10	1
4901784	29	C	04/20/2016	10:45	-132.034	44.661	0	147.70	0	8.2110	0	33.7410	0	26.256	0	146.453	0	187.0	4	64.9	4	-1E+10	1	-1E+10	1	-1E+10	1	-1E+10	1	-1E+10	1	-1E+10	1
4901784	29	C	04/20/2016	10:45	-132.034	44.661	0	150.30	0	8.1530	0	33.7600	0	26.280	0	149.030	0	187.3	4	64.9	4	-1E+10	1	-1E+10	1	-1E+10	1	-1E+10	1	-1E+10	1	-1E+10	1
4901784	29	C	04/20/2016	10:45	-132.034	44.661	0	152.80	0	8.1420	0	33.7790	0	26.296	0	151.508	0	187.3	4	64.9	4	-1E+10	1	-1E+10	1	-1E+10	1	-1E+10	1	-1E+10	1	-1E+10	1
4901784	29	C	04/20/2016	10:45	-132.034	44.661	0	155.30	0	8.1290	0	33.7860	0	26.304	0	153.986	0	186.7	4	64.7	4	-1E+10	1	-1E+10	1	-1E+10	1	-1E+10	1	-1E+10	1	-1E+10	1
4901784	29	C	04/20/2016	10:45	-132.034	44.661	0	157.90	0	8.1130	0	33.7950	0	26.313	0	156.563	0	185.9	4	64.4	4	-1E+10	1	-1E+10	1	-1E+10	1	-1E+10	1	-1E+10	1	-1E+10	1
4901784	29	C	04/20/2016	10:45	-132.034	44.661	0	160.40	0	8.0510	0	33.8100	0	26.334	0	159.041	0	184.8	4	63.9	4	-1E+10	1	-1E+10	1	-1E+10	1	-1E+10	1	-1E+10	1	-1E+10	1
4901784	29	C	04/20/2016	10:45	-132.034	44.661	0	163.00	0	8.0350	0	33.8160	0	26.341	0	161.618	0	184.2	4	63.7	4	-1E+10	1	-1E+10	1	-1E+10	1	-1E+10	1	-1E+10	1	-1E+10	1
4901784	29	C	04/20/2016	10:45	-132.034	44.661	0	164.80	0	8.0190	0	33.8200	0	26.347	0	163.402	0	183.5	4	63.4	4	-1E+10	1	-1E+10	1	-1E+10	1	-1E+10	1	-1E+10	1	-1E+10	1
4901784	29	C	04/20/2016	10:45	-132.034	44.661	0	167.40	0	7.9990	0	33.8220	0	26.352	0	165.979	0	182.7	4	63.1	4	-1E+10	1	-1E+10	1	-1E+10	1	-1E+10	1	-1E+10	1	-1E+10	1
4901784	29	C	04/20/2016	10:45	-132.034	44.661	0	170.10	0	7.9760	0	33.8260	0	26.358	0	168.655	0	181.3	4	62.6	4	-1E+10	1	-1E+10	1	-1E+10	1	-1E+10	1	-1E+10	1	-1E+10	1
4901784	29	C	04/20/2016	10:45	-132.034	44.661	0	172.70	0	7.9180	0	33.8360	0	26.375	0	171.232	0	180.1	4	62.1	4	-1E+10	1	-1E+10	1	-1E+10	1	-1E+10	1	-1E+10	1	-1E+10	1
4901784	29	C	04/20/2016	10:45	-132.034	44.661	0	175.40	0	7.8480	0	33.8450	0	26.392	0	173.908	0	178.5	4	61.5	4	-1E+10	1	-1E+10	1	-1E+10	1	-1E+10	1	-1E+10	1	-1E+10	1
4901784	29	C	04/20/2016	10:45	-132.034	44.661	0	177.20	0	7.8030	0	33.8490	0	26.402	0	175.692	0	177.9	4	61.2	4	-1E+10	1	-1E+10	1	-1E+10	1	-1E+10	1	-1E+10	1	-1E+10	1
4901784	29	C	04/20/2016	10:45	-132.034	44.661	0	179.90	0	7.7800	0	33.8510	0	26.407	0	178.368	0	176.7	4	60.8	4	-1E+10	1	-1E+10	1	-1E+10	1	-1E+10	1	-1E+10	1	-1E+10	1
4901784	29	C	04/20/2016	10:45	-132.034	44.661	0	182.60	0	7.7540	0	33.8520	0	26.411	0	181.043	0	175.2	4	60.2	4	-1E+10	1	-1E+10	1	-1E+10	1	-1E+10	1	-1E+10	1	-1E+10	1
4901784	29	C	04/20/2016	10:45	-132.034	44.661	0	184.50	0	7.7120	0	33.8520	0	26.417	0	182.926	0	174.0	4	59.7	4	-1E+10	1	-1E+10	1	-1E+10	1	-1E+10	1	-1E+10	1	-1E+10	1
4901784	29	C	04/20/2016	10:45	-132.034	44.661	0	187.20	0	7.6410	0	33.8550	0	26.430	0	185.602	0	172.3	4	59.1	4	-1E+10	1	-1E+10	1	-1E+10	1	-1E+10	1	-1E+10	1	-1E+10	1
4901784	29	C	04/20/2016	10:45	-132.034	44.661	0	189.90	0	7.5890	0	33.8570	0	26.439	0	188.278	0	171.0	4	58.5	4	-1E+10	1	-1E+10	1	-1E+10	1	-1E+10	1	-1E+10	1	-1E+10	1
4901784	29	C	04/20/2016	10:45	-132.034	44.661	0	192.60	0	7.5440	0	33.8570	0	26.445	0	190.953	0	169.3	4	57.9	4	-1E+10	1	-1E+10	1	-1E+10	1	-1E+10	1	-1E+10	1	-1E+10	1
4901784	29	C	04/20/2016	10:45	-132.034	44.661	0	195.30	0	7.5000	0	33.8570	0	26.452	0	193.629	0	167.5	4	57.3	4	-1E+10	1	-1E+10	1	-1E+10	1	-1E+10	1	-1E+10	1	-1E+10	1
4901784	29	C	04/20/2016	10:45	-132.034	44.661	0	197.10	0	7.4240	0	33.8610	0	26.465	0	195.413	0	166.5	4	56.8	4	-1E+10	1	-1E+10	1	-1E+10	1	-1E+10	1	-1E+10	1	-1E+10	1
4901784	29	C	04/20/2016	10:45	-132.034	44.661	0	200.00	0	7.3640	0	33.8620	0	26.475	0	198.287	0	165.0	4	56.2	4	-1E+10	1	-1E+10	1	-1E+10	1	-1E+10	1	-1E+10	1	-1E+10	1
4901784	29	C	04/20/2016	10:45	-132.034	44.661	0	202.80	0	7.3040	0	33.8650	0	26.486	0	201.061	0	163.7	4	55.7	4	-1E+10	1	-1E+10	1	-1E+10	1	-1E+10	1	-1E+10	1	-1E+10	1
4901784	29	C	04/20/2016	10:45	-132.034	44.661	0	204.50	0	7.2560	0	33.8650	0	26.492	0	202.746	0	163.1	4	55.4	4	-1E+10	1	-1E+10	1	-1E+10	1	-1E+10	1	-1E+10	1	-1E+10	1
4901784	29	C	04/20/2016	10:45	-132.034	44.661	0	207.30	0	7.2030	0	33.8670	0	26.501	0	205.521	0	162.3	4	55.1	4	-1E+10	1	-1E+10	1	-1E+10	1	-1E+10	1	-1E+10	1	-1E+10	1
4901784	29	C	04/20/2016	10:45	-132.034	44.661	0	210.10	0	7.1930	0	33.8660	0	26.502	0	208.295	0	161.4	4	54.8	4	-1E+10	1	-1E+10	1	-1E+10	1	-1E+10	1	-1E+10	1	-1E+10	1
4901784	29	C	04/20/2016	10:45	-132.034	44.661	0	212.00	0	7.1610	0	33.8670	0	26.507	0	210.178	0	160.9	4	54.6	4	-1E+10	1	-1E+10	1	-1E+10	1	-1E+10	1	-1E+10	1	-1E+10	1
4901784	29	C	04/20/2016	10:45	-132.034	44.661	0	214.80	0	7.1440	0	33.8670	0	26.509	0	212.952	0	160.2	4	54.3	4	-1E+10	1	-1E+10	1	-1E+10	1	-1E+10	1	-1E+10	1	-1E+10	1
4901784	29	C	04/20/2016	10:45	-132.034	44.661	0	217.60	0	7.1290	0	33.8680	0	26.512	0	215.727	0	159.2	4	54.0	4	-1E+10	1	-1E+10	1	-1E+10	1	-1E+10	1	-1E+10	1	-1E+10	1
4901784	29	C	04/20/2016	10:45	-132.034	44.661	0	219.40	0	7.0930	0	33.8670	0	26.517	0	217.510	0	158.2	4	53.6	4	-1E+10	1	-1E+10	1	-1E+10	1	-1E+10	1	-1E+10	1	-1E+10	1
4901784	29	C	04/20/2016	10:45	-132.034	44.661	0	222.30	0	7.0430	0	33.8660	0	26.523	0	220.384	0	157.0	4	53.1	4	-1E+10	1	-1E+10	1	-1E+10	1	-1E+10	1	-1E+10	1	-1E+10	1
4901784	29	C	04/20/2016	10:45	-132.034	44.661	0	225.10	0	6.9680	0	33.8720	0	26.538	0	223.158	0	155.9	4	52.6	4	-1E+10	1	-1E+10	1	-1E+10	1	-1E+10	1	-1E+10	1	-1E+10	1
4901784	29	C	04/20/2016	10:45	-132.034	44.661	0	226.90	0	6.9170	0	33.8710	0	26.544	0	224.942	0	155.2	4	52.4	4	-1E+10	1	-1E+10	1	-1E+10	1	-1E+10	1	-1E+10	1	-1E+10	1
4901784	29	C	04/20/2016	10:45	-132.034	44.661	0	229.70	0	6.8700	0	33.8700	0	26.549	0	227.716	0	154.3	4	52.0	4	-1E+10	1	-1E+10	1	-1E+10	1	-1E+10	1	-1E+10	1	-1E+10	1
4901784	29	C	04/20/2016	10:45	-132.034	44.661	0	232.60	0	6.8350	0	33.8700	0	26.554	0	230.589	0	153.2	4	51.6	4	-1E+10	1	-1E+10	1	-1E+10	1	-1E+10	1	-1E+10	1	-1E+10	1
4901784	29	C	04/20/2016	10:45	-132.034	44.661	0	234.40	0	6.8050	0	33.8700	0	26.558	0	232.373	0	152.4	4	51.3	4	-1E+10	1	-1E+10	1	-1E+10	1	-1E+10	1	-1E+10	1	-1E+10	1
4901784	29	C	04/20/2016	10:45	-132.034	44.661	0	236.80	0	6.7590	0	33.8710	0	26.565	0	234.751	0	151.6	4	50.9	4	-1E+10	1	-1E+10	1	-1E+10	1	-1E+10	1	-1E+10	1	-1E+10	1
4901784	29	C	04/20/2016	10:45	-132.034	44.661	0	239.60	0	6.7140	0	33.8710	0	26.571	0	237.525	0	150.4	4	50.5	4	-1E+10	1	-1E+10	1	-1E+10	1	-1E+10	1	-1E+10	1	-1E+10	1
4901784	29	C	04/20/2016	10:45	-132.034	44.661	0	242.70	0	6.6780	0	33.8710	0	26.576	0	240.596	0	149.1	4	50.0	4	-1E+10	1	-1E+10	1	-1E+10	1	-1E+10	1	-1E+10	1	-1E+10	1
4901784	29	C	04/20/2016	10:45	-132.034	44.661	0	245.20	0	6.6470	0	33.8710	0	26.580	0	243.073	0	147.8	4	49.6	4	-1E+10	1	-1E+10	1	-1E+10	1	-1E+10	1	-1E+10	1	-1E+10	1
4901784	29	C	04/20/2016	10:45	-132.034	44.661	0	247.60	0	6.6040	0	33.8710	0	26.586	0	245.451	0	147.0	4	49.2	4	-1E+10	1	-1E+10	1	-1E+10	1	-1E+10	1	-1E+10	1	-1E+10	1
4901784	29	C	04/20/2016	10:45	-132.034	44.661	0	250.00	0	6.5930	0	33.8700	0	26.586	0	247.828	0	146.1	4	48.9	4	-1E+10	1	-1E+10	1	-1E+10	1	-1E+10	1	-1E+10	1	-1E+10	1
4901784	29	C	04/20/2016	10:45	-132.034	44.661	0	252.40	0	6.5600	0	33.8700	0	26.591	0	250.206	0	144.7	4	48.4	4	-1E+10	1	-1E+10	1	-1E+10	1	-1E+10	1	-1E+10	1	-1E+10	1
4901784	29	C	04/20/2016	10:45	-132.034	44.661	0	254.80	0	6.5190	0	33.8720	0	26.598	0	252.584	0	143.6	4	48.0	4	-1E+10	1	-1E+10	1	-1E+10	1	-1E+10	1	-1E+10	1	-1E+10	1
4901784	29	C	04/20/2016	10:45	-132.034	44.661	0	257.20	0	6.4900	0	33.8700	0	26.600	0	254.961	0	142.6	4	47.6	4	-1E+10	1	-1E+10	1	-1E+10	1	-1E+10	1	-1E+10	1	-1E+10	1
4901784	29	C	04/20/2016	10:45	-132.034	44.661	0	259.80	0	6.4530	0	33.8710	0	26.606	0	257.537	0	141.7	4	47.3	4	-1E+10	1	-1E+10	1	-1E+10	1	-1E+10	1	-1E+10	1	-1E+10	1
4901784	29	C	04/20/2016	10:45	-132.034	44.661	0	262.30	0	6.4200	0	33.8710	0	26.610	0	260.014	0	140.7	4	46.9	4	-1E+10	1	-1E+10	1	-1E+10	1	-1E+10	1	-1E+10	1	-1E+10	1
4901784	29	C	04/20/2016	10:45	-132.034	44.661	0	264.70	0	6.3920	0	33.8710	0	26.614	0	262.391	0	139.7	4	46.6	4	-1E+10	1	-1E+10	1	-1E+10	1	-1E+10	1	-1E+10	1	-1E+10	1
4901784	29	C	04/20/2016	10:45	-132.034	44.661	0	267.20	0	6.3730	0	33.8700	0	26.615	0	264.868	0	138.7	4	46.2	4	-1E+10	1	-1E+10	1	-1E+10	1	-1E+10	1	-1E+10	1	-1E+10	1
4901784	29	C	04/20/2016	10:45	-132.034	44.661	0	269.60	0	6.3600	0	33.8690	0	26.616	0	267.246	0	137.2	4	45.7	4	-1E+10	1	-1E+10	1	-1E+10	1	-1E+10	1	-1E+10	1	-1E+10	1
4901784	29	C	04/20/2016	10:45	-132.034	44.661	0	272.10	0	6.3300	0	33.8690	0	26.620	0	269.722	0	135.1	4	45.0	4	-1E+10	1	-1E+10	1	-1E+10	1	-1E+10	1	-1E+10	1	-1E+10	1
4901784	29	C	04/20/2016	10:45	-132.034	44.661	0	274.60	0	6.2690	0	33.8690	0	26.628	0	272.199	0	133.0	4	44.2	4	-1E+10	1	-1E+10	1	-1E+10	1	-1E+10	1	-1E+10	1	-1E+10	1
4901784	29	C	04/20/2016	10:45	-132.034	44.661	0	277.10	0	6.2150	0	33.8680	0	26.634	0	274.675	0	130.7	4	43.4	4	-1E+10	1	-1E+10	1	-1E+10	1	-1E+10	1	-1E+10	1	-1E+10	1
4901784	29	C	04/20/2016	10:45	-132.034	44.661	0	279.60	0	6.1140	0	33.8700	0	26.649	0	277.151	0	128.5	4	42.5	4	-1E+10	1	-1E+10	1	-1E+10	1	-1E+10	1	-1E+10	1	-1E+10	1
4901784	29	C	04/20/2016	10:45	-132.034	44.661	0	282.10	0	6.0810	0	33.8700	0	26.653	0	279.628	0	127.3	4	42.1	4	-1E+10	1	-1E+10	1	-1E+10	1	-1E+10	1	-1E+10	1	-1E+10	1
4901784	29	C	04/20/2016	10:45	-132.034	44.661	0	284.60	0	6.0620	0	33.8690	0	26.654	0	282.104	0	125.9	4	41.6	4	-1E+10	1	-1E+10	1	-1E+10	1	-1E+10	1	-1E+10	1	-1E+10	1
4901784	29	C	04/20/2016	10:45	-132.034	44.661	0	287.20	0	6.0330	0	33.8690	0	26.658	0	284.680	0	124.4	4	41.1	4	-1E+10	1	-1E+10	1	-1E+10	1	-1E+10	1	-1E+10	1	-1E+10	1
4901784	29	C	04/20/2016	10:45	-132.034	44.661	0	289.80	0	6.0030	0	33.8690	0	26.662	0	287.255	0	122.9	4	40.6	4	-1E+10	1	-1E+10	1	-1E+10	1	-1E+10	1	-1E+10	1	-1E+10	1
4901784	29	C	04/20/2016	10:45	-132.034	44.661	0	292.30	0	5.9760	0	33.8680	0	26.664	0	289.731	0	121.3	4	40.0	4	-1E+10	1	-1E+10	1	-1E+10	1	-1E+10	1	-1E+10	1	-1E+10	1
4901784	29	C	04/20/2016	10:45	-132.034	44.661	0	294.90	0	5.9170	0	33.8690	0	26.673	0	292.307	0	119.7	4	39.4	4	-1E+10	1	-1E+10	1	-1E+10	1	-1E+10	1	-1E+10	1	-1E+10	1
4901784	29	C	04/20/2016	10:45	-132.034	44.661	0	297.50	0	5.8790	0	33.8700	0	26.678	0	294.882	0	118.0	4	38.9	4	-1E+10	1	-1E+10	1	-1E+10	1	-1E+10	1	-1E+10	1	-1E+10	1
4901784	29	C	04/20/2016	10:45	-132.034	44.661	0	300.20	0	5.8440	0	33.8700	0	26.682	0	297.556	0	116.3	4	38.3	4	-1E+10	1	-1E+10	1	-1E+10	1	-1E+10	1	-1E+10	1	-1E+10	1
4901784	29	C	04/20/2016	10:45	-132.034	44.661	0	302.80	0	5.7980	0	33.8690	0	26.687	0	300.131	0	114.4	4	37.6	4	-1E+10	1	-1E+10	1	-1E+10	1	-1E+10	1	-1E+10	1	-1E+10	1
4901784	29	C	04/20/2016	10:45	-132.034	44.661	0	305.40	0	5.7540	0	33.8700	0	26.694	0	302.707	0	112.0	4	36.8	4	-1E+10	1	-1E+10	1	-1E+10	1	-1E+10	1	-1E+10	1	-1E+10	1
4901784	29	C	04/20/2016	10:45	-132.034	44.661	0	307.10	0	5.6840	0	33.8740	0	26.705	0	304.390	0	110.3	4	36.2	4	-1E+10	1	-1E+10	1	-1E+10	1	-1E+10	1	-1E+10	1	-1E+10	1
4901784	29	C	04/20/2016	10:45	-132.034	44.661	0	309.80	0	5.6600	0	33.8740	0	26.708	0	307.065	0	108.5	4	35.6	4	-1E+10	1	-1E+10	1	-1E+10	1	-1E+10	1	-1E+10	1	-1E+10	1
4901784	29	C	04/20/2016	10:45	-132.034	44.661	0	312.40	0	5.6290	0	33.8750	0	26.713	0	309.640	0	106.3	4	34.8	4	-1E+10	1	-1E+10	1	-1E+10	1	-1E+10	1	-1E+10	1	-1E+10	1
4901784	29	C	04/20/2016	10:45	-132.034	44.661	0	315.00	0	5.5980	0	33.8810	0	26.721	0	312.215	0	104.4	4	34.2	4	-1E+10	1	-1E+10	1	-1E+10	1	-1E+10	1	-1E+10	1	-1E+10	1
4901784	29	C	04/20/2016	10:45	-132.034	44.661	0	317.60	0	5.5640	0	33.8820	0	26.726	0	314.790	0	103.1	4	33.7	4	-1E+10	1	-1E+10	1	-1E+10	1	-1E+10	1	-1E+10	1	-1E+10	1
4901784	29	C	04/20/2016	10:45	-132.034	44.661	0	320.20	0	5.5550	0	33.8830	0	26.728	0	317.365	0	101.7	4	33.2	4	-1E+10	1	-1E+10	1	-1E+10	1	-1E+10	1	-1E+10	1	-1E+10	1
4901784	29	C	04/20/2016	10:45	-132.034	44.661	0	322.90	0	5.5370	0	33.8850	0	26.732	0	320.039	0	100.2	4	32.7	4	-1E+10	1	-1E+10	1	-1E+10	1	-1E+10	1	-1E+10	1	-1E+10	1
4901784	29	C	04/20/2016	10:45	-132.034	44.661	0	324.70	0	5.4950	0	33.8880	0	26.739	0	321.822	0	99.4	4	32.5	4	-1E+10	1	-1E+10	1	-1E+10	1	-1E+10	1	-1E+10	1	-1E+10	1
4901784	29	C	04/20/2016	10:45	-132.034	44.661	0	327.40	0	5.4840	0	33.8870	0	26.740	0	324.495	0	98.2	4	32.1	4	-1E+10	1	-1E+10	1	-1E+10	1	-1E+10	1	-1E+10	1	-1E+10	1
4901784	29	C	04/20/2016	10:45	-132.034	44.661	0	330.10	0	5.4700	0	33.8880	0	26.742	0	327.169	0	96.7	4	31.6	4	-1E+10	1	-1E+10	1	-1E+10	1	-1E+10	1	-1E+10	1	-1E+10	1
4901784	29	C	04/20/2016	10:45	-132.034	44.661	0	332.70	0	5.4620	0	33.8890	0	26.744	0	329.744	0	95.3	4	31.1	4	-1E+10	1	-1E+10	1	-1E+10	1	-1E+10	1	-1E+10	1	-1E+10	1
4901784	29	C	04/20/2016	10:45	-132.034	44.661	0	335.40	0	5.4380	0	33.8910	0	26.748	0	332.418	0	93.5	4	30.5	4	-1E+10	1	-1E+10	1	-1E+10	1	-1E+10	1	-1E+10	1	-1E+10	1
4901784	29	C	04/20/2016	10:45	-132.034	44.661	0	337.20	0	5.4150	0	33.8920	0	26.752	0	334.201	0	92.5	4	30.1	4	-1E+10	1	-1E+10	1	-1E+10	1	-1E+10	1	-1E+10	1	-1E+10	1
4901784	29	C	04/20/2016	10:45	-132.034	44.661	0	339.90	0	5.3900	0	33.8950	0	26.757	0	336.874	0	91.1	4	29.7	4	-1E+10	1	-1E+10	1	-1E+10	1	-1E+10	1	-1E+10	1	-1E+10	1
4901784	29	C	04/20/2016	10:45	-132.034	44.661	0	342.60	0	5.3480	0	33.8960	0	26.763	0	339.548	0	89.8	4	29.2	4	-1E+10	1	-1E+10	1	-1E+10	1	-1E+10	1	-1E+10	1	-1E+10	1
4901784	29	C	04/20/2016	10:45	-132.034	44.661	0	345.30	0	5.3320	0	33.8990	0	26.767	0	342.222	0	88.6	4	28.8	4	-1E+10	1	-1E+10	1	-1E+10	1	-1E+10	1	-1E+10	1	-1E+10	1
4901784	29	C	04/20/2016	10:45	-132.034	44.661	0	348.00	0	5.3180	0	33.9010	0	26.771	0	344.896	0	87.4	4	28.4	4	-1E+10	1	-1E+10	1	-1E+10	1	-1E+10	1	-1E+10	1	-1E+10	1
4901784	29	C	04/20/2016	10:45	-132.034	44.661	0	349.80	0	5.3200	0	33.9010	0	26.770	0	346.678	0	86.8	4	28.2	4	-1E+10	1	-1E+10	1	-1E+10	1	-1E+10	1	-1E+10	1	-1E+10	1
4901784	29	C	04/20/2016	10:45	-132.034	44.661	0	352.50	0	5.2940	0	33.9030	0	26.775	0	349.352	0	85.8	4	27.9	4	-1E+10	1	-1E+10	1	-1E+10	1	-1E+10	1	-1E+10	1	-1E+10	1
4901784	29	C	04/20/2016	10:45	-132.034	44.661	0	355.20	0	5.2550	0	33.9050	0	26.781	0	352.025	0	85.2	4	27.7	4	-1E+10	1	-1E+10	1	-1E+10	1	-1E+10	1	-1E+10	1	-1E+10	1
4901784	29	C	04/20/2016	10:45	-132.034	44.661	0	357.00	0	5.2110	0	33.9030	0	26.785	0	353.808	0	85.0	4	27.6	4	-1E+10	1	-1E+10	1	-1E+10	1	-1E+10	1	-1E+10	1	-1E+10	1
4901784	29	C	04/20/2016	10:45	-132.034	44.661	0	359.80	0	5.1830	0	33.9030	0	26.788	0	356.580	0	84.2	4	27.3	4	-1E+10	1	-1E+10	1	-1E+10	1	-1E+10	1	-1E+10	1	-1E+10	1
4901784	29	C	04/20/2016	10:45	-132.034	44.661	0	362.70	0	5.1710	0	33.9020	0	26.789	0	359.452	0	82.9	4	26.9	4	-1E+10	1	-1E+10	1	-1E+10	1	-1E+10	1	-1E+10	1	-1E+10	1
4901784	29	C	04/20/2016	10:45	-132.034	44.661	0	364.50	0	5.1620	0	33.9040	0	26.791	0	361.234	0	81.8	4	26.5	4	-1E+10	1	-1E+10	1	-1E+10	1	-1E+10	1	-1E+10	1	-1E+10	1
4901784	29	C	04/20/2016	10:45	-132.034	44.661	0	367.40	0	5.1330	0	33.9060	0	26.796	0	364.105	0	79.6	4	25.8	4	-1E+10	1	-1E+10	1	-1E+10	1	-1E+10	1	-1E+10	1	-1E+10	1
4901784	29	C	04/20/2016	10:45	-132.034	44.661	0	370.20	0	5.0910	0	33.9130	0	26.807	0	366.878	0	77.4	4	25.0	4	-1E+10	1	-1E+10	1	-1E+10	1	-1E+10	1	-1E+10	1	-1E+10	1
4901784	29	C	04/20/2016	10:45	-132.034	44.661	0	372.10	0	5.0930	0	33.9120	0	26.806	0	368.759	0	75.9	4	24.5	4	-1E+10	1	-1E+10	1	-1E+10	1	-1E+10	1	-1E+10	1	-1E+10	1
4901784	29	C	04/20/2016	10:45	-132.034	44.661	0	374.90	0	5.1280	0	33.9240	0	26.811	0	371.531	0	74.9	4	24.2	4	-1E+10	1	-1E+10	1	-1E+10	1	-1E+10	1	-1E+10	1	-1E+10	1
4901784	29	C	04/20/2016	10:45	-132.034	44.661	0	377.70	0	5.1020	0	33.9230	0	26.813	0	374.304	0	73.9	4	23.9	4	-1E+10	1	-1E+10	1	-1E+10	1	-1E+10	1	-1E+10	1	-1E+10	1
4901784	29	C	04/20/2016	10:45	-132.034	44.661	0	379.60	0	5.1130	0	33.9250	0	26.814	0	376.185	0	72.8	4	23.6	4	-1E+10	1	-1E+10	1	-1E+10	1	-1E+10	1	-1E+10	1	-1E+10	1
4901784	29	C	04/20/2016	10:45	-132.034	44.661	0	382.50	0	5.1150	0	33.9320	0	26.819	0	379.056	0	72.9	4	23.6	4	-1E+10	1	-1E+10	1	-1E+10	1	-1E+10	1	-1E+10	1	-1E+10	1
4901784	29	C	04/20/2016	10:45	-132.034	44.661	0	384.90	0	5.0540	0	33.9300	0	26.824	0	381.432	0	73.1	4	23.6	4	-1E+10	1	-1E+10	1	-1E+10	1	-1E+10	1	-1E+10	1	-1E+10	1
4901784	29	C	04/20/2016	10:45	-132.034	44.661	0	387.40	0	5.0280	0	33.9270	0	26.825	0	383.908	0	72.5	4	23.4	4	-1E+10	1	-1E+10	1	-1E+10	1	-1E+10	1	-1E+10	1	-1E+10	1
4901784	29	C	04/20/2016	10:45	-132.034	44.661	0	389.80	0	5.0240	0	33.9280	0	26.826	0	386.284	0	71.3	4	23.0	4	-1E+10	1	-1E+10	1	-1E+10	1	-1E+10	1	-1E+10	1	-1E+10	1
4901784	29	C	04/20/2016	10:45	-132.034	44.661	0	392.90	0	5.0230	0	33.9310	0	26.829	0	389.353	0	68.7	4	22.2	4	-1E+10	1	-1E+10	1	-1E+10	1	-1E+10	1	-1E+10	1	-1E+10	1
4901784	29	C	04/20/2016	10:45	-132.034	44.661	0	395.40	0	5.0270	0	33.9390	0	26.835	0	391.828	0	66.4	4	21.4	4	-1E+10	1	-1E+10	1	-1E+10	1	-1E+10	1	-1E+10	1	-1E+10	1
4901784	29	C	04/20/2016	10:45	-132.034	44.661	0	397.80	0	5.0340	0	33.9450	0	26.839	0	394.204	0	64.6	4	20.9	4	-1E+10	1	-1E+10	1	-1E+10	1	-1E+10	1	-1E+10	1	-1E+10	1
4901784	29	C	04/20/2016	10:45	-132.034	44.661	0	400.30	0	5.0320	0	33.9500	0	26.843	0	396.679	0	63.2	4	20.4	4	-1E+10	1	-1E+10	1	-1E+10	1	-1E+10	1	-1E+10	1	-1E+10	1
4901784	29	C	04/20/2016	10:45	-132.034	44.661	0	402.80	0	5.0300	0	33.9540	0	26.846	0	399.154	0	62.1	4	20.1	4	-1E+10	1	-1E+10	1	-1E+10	1	-1E+10	1	-1E+10	1	-1E+10	1
4901784	29	C	04/20/2016	10:45	-132.034	44.661	0	405.30	0	5.0350	0	33.9580	0	26.849	0	401.629	0	61.1	4	19.7	4	-1E+10	1	-1E+10	1	-1E+10	1	-1E+10	1	-1E+10	1	-1E+10	1
4901784	29	C	04/20/2016	10:45	-132.034	44.661	0	407.70	0	5.0390	0	33.9590	0	26.849	0	404.005	0	60.4	4	19.5	4	-1E+10	1	-1E+10	1	-1E+10	1	-1E+10	1	-1E+10	1	-1E+10	1
4901784	29	C	04/20/2016	10:45	-132.034	44.661	0	410.20	0	5.0410	0	33.9610	0	26.851	0	406.480	0	59.7	4	19.3	4	-1E+10	1	-1E+10	1	-1E+10	1	-1E+10	1	-1E+10	1	-1E+10	1
4901784	29	C	04/20/2016	10:45	-132.034	44.661	0	412.80	0	5.0300	0	33.9630	0	26.854	0	409.054	0	59.0	4	19.1	4	-1E+10	1	-1E+10	1	-1E+10	1	-1E+10	1	-1E+10	1	-1E+10	1
4901784	29	C	04/20/2016	10:45	-132.034	44.661	0	415.30	0	5.0310	0	33.9650	0	26.855	0	411.528	0	58.2	4	18.8	4	-1E+10	1	-1E+10	1	-1E+10	1	-1E+10	1	-1E+10	1	-1E+10	1
4901784	29	C	04/20/2016	10:45	-132.034	44.661	0	417.10	0	5.0340	0	33.9650	0	26.855	0	413.310	0	57.6	4	18.6	4	-1E+10	1	-1E+10	1	-1E+10	1	-1E+10	1	-1E+10	1	-1E+10	1
4901784	29	C	04/20/2016	10:45	-132.034	44.661	0	419.60	0	5.0340	0	33.9680	0	26.857	0	415.785	0	56.5	4	18.2	4	-1E+10	1	-1E+10	1	-1E+10	1	-1E+10	1	-1E+10	1	-1E+10	1
4901784	29	C	04/20/2016	10:45	-132.034	44.661	0	422.10	0	5.0420	0	33.9750	0	26.862	0	418.260	0	55.9	4	18.1	4	-1E+10	1	-1E+10	1	-1E+10	1	-1E+10	1	-1E+10	1	-1E+10	1
4901784	29	C	04/20/2016	10:45	-132.034	44.661	0	424.70	0	5.0150	0	33.9750	0	26.865	0	420.834	0	55.9	4	18.1	4	-1E+10	1	-1E+10	1	-1E+10	1	-1E+10	1	-1E+10	1	-1E+10	1
4901784	29	C	04/20/2016	10:45	-132.034	44.661	0	427.30	0	4.9830	0	33.9740	0	26.868	0	423.407	0	55.8	4	18.0	4	-1E+10	1	-1E+10	1	-1E+10	1	-1E+10	1	-1E+10	1	-1E+10	1
4901784	29	C	04/20/2016	10:45	-132.034	44.661	0	429.90	0	4.9790	0	33.9750	0	26.869	0	425.981	0	55.4	4	17.9	4	-1E+10	1	-1E+10	1	-1E+10	1	-1E+10	1	-1E+10	1	-1E+10	1
4901784	29	C	04/20/2016	10:45	-132.034	44.661	0	432.50	0	4.9820	0	33.9780	0	26.871	0	428.554	0	55.1	4	17.8	4	-1E+10	1	-1E+10	1	-1E+10	1	-1E+10	1	-1E+10	1	-1E+10	1
4901784	29	C	04/20/2016	10:45	-132.034	44.661	0	435.20	0	4.9430	0	33.9760	0	26.874	0	431.227	0	55.1	4	17.8	4	-1E+10	1	-1E+10	1	-1E+10	1	-1E+10	1	-1E+10	1	-1E+10	1
4901784	29	C	04/20/2016	10:45	-132.034	44.661	0	437.80	0	4.9360	0	33.9770	0	26.875	0	433.801	0	54.5	4	17.6	4	-1E+10	1	-1E+10	1	-1E+10	1	-1E+10	1	-1E+10	1	-1E+10	1
4901784	29	C	04/20/2016	10:45	-132.034	44.661	0	439.50	0	4.9380	0	33.9780	0	26.876	0	435.483	0	54.1	4	17.4	4	-1E+10	1	-1E+10	1	-1E+10	1	-1E+10	1	-1E+10	1	-1E+10	1
4901784	29	C	04/20/2016	10:45	-132.034	44.661	0	442.10	0	4.9440	0	33.9780	0	26.875	0	438.057	0	53.5	4	17.3	4	-1E+10	1	-1E+10	1	-1E+10	1	-1E+10	1	-1E+10	1	-1E+10	1
4901784	29	C	04/20/2016	10:45	-132.034	44.661	0	444.80	0	4.9300	0	33.9810	0	26.879	0	440.729	0	52.9	4	17.1	4	-1E+10	1	-1E+10	1	-1E+10	1	-1E+10	1	-1E+10	1	-1E+10	1
4901784	29	C	04/20/2016	10:45	-132.034	44.661	0	447.40	0	4.9000	0	33.9810	0	26.883	0	443.303	0	52.2	4	16.8	4	-1E+10	1	-1E+10	1	-1E+10	1	-1E+10	1	-1E+10	1	-1E+10	1
4901784	29	C	04/20/2016	10:45	-132.034	44.661	0	449.90	0	4.8820	0	33.9850	0	26.888	0	445.777	0	51.2	4	16.5	4	-1E+10	1	-1E+10	1	-1E+10	1	-1E+10	1	-1E+10	1	-1E+10	1
4901784	29	C	04/20/2016	10:45	-132.034	44.661	0	452.50	0	4.8730	0	33.9900	0	26.893	0	448.350	0	50.3	4	16.2	4	-1E+10	1	-1E+10	1	-1E+10	1	-1E+10	1	-1E+10	1	-1E+10	1
4901784	29	C	04/20/2016	10:45	-132.034	44.661	0	455.20	0	4.8670	0	33.9930	0	26.896	0	451.023	0	49.5	4	15.9	4	-1E+10	1	-1E+10	1	-1E+10	1	-1E+10	1	-1E+10	1	-1E+10	1
4901784	29	C	04/20/2016	10:45	-132.034	44.661	0	457.80	0	4.8660	0	33.9950	0	26.898	0	453.596	0	49.1	4	15.8	4	-1E+10	1	-1E+10	1	-1E+10	1	-1E+10	1	-1E+10	1	-1E+10	1
4901784	29	C	04/20/2016	10:45	-132.034	44.661	0	460.40	0	4.8610	0	33.9960	0	26.899	0	456.169	0	48.8	4	15.7	4	-1E+10	1	-1E+10	1	-1E+10	1	-1E+10	1	-1E+10	1	-1E+10	1
4901784	29	C	04/20/2016	10:45	-132.034	44.661	0	462.20	0	4.8590	0	33.9960	0	26.899	0	457.951	0	48.6	4	15.6	4	-1E+10	1	-1E+10	1	-1E+10	1	-1E+10	1	-1E+10	1	-1E+10	1
4901784	29	C	04/20/2016	10:45	-132.034	44.661	0	464.80	0	4.8540	0	33.9960	0	26.900	0	460.524	0	48.1	4	15.5	4	-1E+10	1	-1E+10	1	-1E+10	1	-1E+10	1	-1E+10	1	-1E+10	1
4901784	29	C	04/20/2016	10:45	-132.034	44.661	0	467.40	0	4.8510	0	34.0000	0	26.904	0	463.097	0	47.5	4	15.3	4	-1E+10	1	-1E+10	1	-1E+10	1	-1E+10	1	-1E+10	1	-1E+10	1
4901784	29	C	04/20/2016	10:45	-132.034	44.661	0	470.10	0	4.8370	0	34.0020	0	26.907	0	465.769	0	47.3	4	15.2	4	-1E+10	1	-1E+10	1	-1E+10	1	-1E+10	1	-1E+10	1	-1E+10	1
4901784	29	C	04/20/2016	10:45	-132.034	44.661	0	472.70	0	4.8100	0	34.0010	0	26.909	0	468.342	0	47.0	4	15.1	4	-1E+10	1	-1E+10	1	-1E+10	1	-1E+10	1	-1E+10	1	-1E+10	1
4901784	29	C	04/20/2016	10:45	-132.034	44.661	0	475.30	0	4.7990	0	34.0020	0	26.911	0	470.916	0	46.4	4	14.9	4	-1E+10	1	-1E+10	1	-1E+10	1	-1E+10	1	-1E+10	1	-1E+10	1
4901784	29	C	04/20/2016	10:45	-132.034	44.661	0	478.00	0	4.7840	0	34.0060	0	26.916	0	473.588	0	45.9	4	14.7	4	-1E+10	1	-1E+10	1	-1E+10	1	-1E+10	1	-1E+10	1	-1E+10	1
4901784	29	C	04/20/2016	10:45	-132.034	44.661	0	479.80	0	4.7790	0	34.0060	0	26.916	0	475.369	0	45.6	4	14.7	4	-1E+10	1	-1E+10	1	-1E+10	1	-1E+10	1	-1E+10	1	-1E+10	1
4901784	29	C	04/20/2016	10:45	-132.034	44.661	0	482.50	0	4.7700	0	34.0080	0	26.919	0	478.041	0	45.2	4	14.5	4	-1E+10	1	-1E+10	1	-1E+10	1	-1E+10	1	-1E+10	1	-1E+10	1
4901784	29	C	04/20/2016	10:45	-132.034	44.661	0	485.10	0	4.7600	0	34.0080	0	26.920	0	480.614	0	44.6	4	14.3	4	-1E+10	1	-1E+10	1	-1E+10	1	-1E+10	1	-1E+10	1	-1E+10	1
4901784	29	C	04/20/2016	10:45	-132.034	44.661	0	487.80	0	4.7520	0	34.0100	0	26.923	0	483.286	0	44.0	4	14.1	4	-1E+10	1	-1E+10	1	-1E+10	1	-1E+10	1	-1E+10	1	-1E+10	1
4901784	29	C	04/20/2016	10:45	-132.034	44.661	0	490.50	0	4.6860	0	34.0130	0	26.932	0	485.958	0	43.5	4	13.9	4	-1E+10	1	-1E+10	1	-1E+10	1	-1E+10	1	-1E+10	1	-1E+10	1
4901784	29	C	04/20/2016	10:45	-132.034	44.661	0	492.20	0	4.6900	0	34.0130	0	26.932	0	487.640	0	43.1	4	13.8	4	-1E+10	1	-1E+10	1	-1E+10	1	-1E+10	1	-1E+10	1	-1E+10	1
4901784	29	C	04/20/2016	10:45	-132.034	44.661	0	494.90	0	4.7000	0	34.0180	0	26.935	0	490.312	0	42.5	4	13.6	4	-1E+10	1	-1E+10	1	-1E+10	1	-1E+10	1	-1E+10	1	-1E+10	1
4901784	29	C	04/20/2016	10:45	-132.034	44.661	0	497.60	0	4.6990	0	34.0200	0	26.936	0	492.983	0	42.2	4	13.5	4	-1E+10	1	-1E+10	1	-1E+10	1	-1E+10	1	-1E+10	1	-1E+10	1
4901784	29	C	04/20/2016	10:45	-132.034	44.661	0	500.20	0	4.6980	0	34.0220	0	26.938	0	495.556	0	42.4	4	13.6	4	-1E+10	1	-1E+10	1	-1E+10	1	-1E+10	1	-1E+10	1	-1E+10	1
4901784	29	C	04/20/2016	10:45	-132.034	44.661	0	504.80	0	4.6200	0	34.0190	0	26.944	0	500.108	0	43.0	4	13.8	4	-1E+10	1	-1E+10	1	-1E+10	1	-1E+10	1	-1E+10	1	-1E+10	1
4901784	29	C	04/20/2016	10:45	-132.034	44.661	0	510.20	0	4.5740	0	34.0190	0	26.949	0	505.451	0	42.4	4	13.5	4	-1E+10	1	-1E+10	1	-1E+10	1	-1E+10	1	-1E+10	1	-1E+10	1
4901784	29	C	04/20/2016	10:45	-132.034	44.661	0	515.60	0	4.5800	0	34.0250	0	26.954	0	510.794	0	41.3	4	13.2	4	-1E+10	1	-1E+10	1	-1E+10	1	-1E+10	1	-1E+10	1	-1E+10	1
4901784	29	C	04/20/2016	10:45	-132.034	44.661	0	520.10	0	4.5250	0	34.0240	0	26.959	0	515.247	0	40.8	4	13.0	4	-1E+10	1	-1E+10	1	-1E+10	1	-1E+10	1	-1E+10	1	-1E+10	1
4901784	29	C	04/20/2016	10:45	-132.034	44.661	0	524.60	0	4.5070	0	34.0280	0	26.964	0	519.699	0	39.2	4	12.5	4	-1E+10	1	-1E+10	1	-1E+10	1	-1E+10	1	-1E+10	1	-1E+10	1
4901784	29	C	04/20/2016	10:45	-132.034	44.661	0	530.10	0	4.4850	0	34.0370	0	26.973	0	525.141	0	37.6	4	12.0	4	-1E+10	1	-1E+10	1	-1E+10	1	-1E+10	1	-1E+10	1	-1E+10	1
4901784	29	C	04/20/2016	10:45	-132.034	44.661	0	535.60	0	4.4700	0	34.0440	0	26.981	0	530.582	0	36.0	4	11.5	4	-1E+10	1	-1E+10	1	-1E+10	1	-1E+10	1	-1E+10	1	-1E+10	1
4901784	29	C	04/20/2016	10:45	-132.034	44.661	0	540.90	0	4.4560	0	34.0500	0	26.987	0	535.826	0	34.6	4	11.0	4	-1E+10	1	-1E+10	1	-1E+10	1	-1E+10	1	-1E+10	1	-1E+10	1
4901784	29	C	04/20/2016	10:45	-132.034	44.661	0	545.20	0	4.4580	0	34.0570	0	26.992	0	540.080	0	33.2	4	10.6	4	-1E+10	1	-1E+10	1	-1E+10	1	-1E+10	1	-1E+10	1	-1E+10	1
4901784	29	C	04/20/2016	10:45	-132.034	44.661	0	550.10	0	4.4430	0	34.0640	0	27.000	0	544.927	0	31.9	4	10.2	4	-1E+10	1	-1E+10	1	-1E+10	1	-1E+10	1	-1E+10	1	-1E+10	1
4901784	29	C	04/20/2016	10:45	-132.034	44.661	0	554.90	0	4.4140	0	34.0690	0	27.007	0	549.676	0	31.2	4	9.9	4	-1E+10	1	-1E+10	1	-1E+10	1	-1E+10	1	-1E+10	1	-1E+10	1
4901784	29	C	04/20/2016	10:45	-132.034	44.661	0	559.90	0	4.4160	0	34.0740	0	27.010	0	554.622	0	30.1	4	9.6	4	-1E+10	1	-1E+10	1	-1E+10	1	-1E+10	1	-1E+10	1	-1E+10	1
4901784	29	C	04/20/2016	10:45	-132.034	44.661	0	564.70	0	4.4100	0	34.0770	0	27.014	0	559.371	0	29.0	4	9.3	4	-1E+10	1	-1E+10	1	-1E+10	1	-1E+10	1	-1E+10	1	-1E+10	1
4901784	29	C	04/20/2016	10:45	-132.034	44.661	0	569.60	0	4.4090	0	34.0840	0	27.019	0	564.218	0	27.7	4	8.8	4	-1E+10	1	-1E+10	1	-1E+10	1	-1E+10	1	-1E+10	1	-1E+10	1
4901784	29	C	04/20/2016	10:45	-132.034	44.661	0	574.50	0	4.4140	0	34.0920	0	27.025	0	569.065	0	26.7	4	8.5	4	-1E+10	1	-1E+10	1	-1E+10	1	-1E+10	1	-1E+10	1	-1E+10	1
4901784	29	C	04/20/2016	10:45	-132.034	44.661	0	579.60	0	4.3990	0	34.0950	0	27.029	0	574.109	0	26.1	4	8.3	4	-1E+10	1	-1E+10	1	-1E+10	1	-1E+10	1	-1E+10	1	-1E+10	1
4901784	29	C	04/20/2016	10:45	-132.034	44.661	0	584.60	0	4.3920	0	34.0980	0	27.032	0	579.055	0	24.7	4	7.9	4	-1E+10	1	-1E+10	1	-1E+10	1	-1E+10	1	-1E+10	1	-1E+10	1
4901784	29	C	04/20/2016	10:45	-132.034	44.661	0	589.60	0	4.4140	0	34.1090	0	27.039	0	584.001	0	22.4	4	7.1	4	-1E+10	1	-1E+10	1	-1E+10	1	-1E+10	1	-1E+10	1	-1E+10	1
4901784	29	C	04/20/2016	10:45	-132.034	44.661	0	594.80	0	4.4450	0	34.1210	0	27.045	0	589.144	0	20.8	4	6.6	4	-1E+10	1	-1E+10	1	-1E+10	1	-1E+10	1	-1E+10	1	-1E+10	1
4901784	29	C	04/20/2016	10:45	-132.034	44.661	0	599.90	0	4.4300	0	34.1280	0	27.052	0	594.188	0	19.9	4	6.4	4	-1E+10	1	-1E+10	1	-1E+10	1	-1E+10	1	-1E+10	1	-1E+10	1
4901784	29	C	04/20/2016	10:45	-132.034	44.661	0	605.00	0	4.4110	0	34.1340	0	27.059	0	599.232	0	19.4	4	6.2	4	-1E+10	1	-1E+10	1	-1E+10	1	-1E+10	1	-1E+10	1	-1E+10	1
4901784	29	C	04/20/2016	10:45	-132.034	44.661	0	610.20	0	4.3890	0	34.1380	0	27.065	0	604.375	0	18.7	4	6.0	4	-1E+10	1	-1E+10	1	-1E+10	1	-1E+10	1	-1E+10	1	-1E+10	1
4901784	29	C	04/20/2016	10:45	-132.034	44.661	0	615.40	0	4.3690	0	34.1460	0	27.073	0	609.518	0	18.1	4	5.8	4	-1E+10	1	-1E+10	1	-1E+10	1	-1E+10	1	-1E+10	1	-1E+10	1
4901784	29	C	04/20/2016	10:45	-132.034	44.661	0	620.60	0	4.3680	0	34.1500	0	27.076	0	614.660	0	17.6	4	5.6	4	-1E+10	1	-1E+10	1	-1E+10	1	-1E+10	1	-1E+10	1	-1E+10	1
4901784	29	C	04/20/2016	10:45	-132.034	44.661	0	625.00	0	4.3490	0	34.1550	0	27.082	0	619.012	0	17.2	4	5.5	4	-1E+10	1	-1E+10	1	-1E+10	1	-1E+10	1	-1E+10	1	-1E+10	1
4901784	29	C	04/20/2016	10:45	-132.034	44.661	0	629.40	0	4.3380	0	34.1590	0	27.087	0	623.363	0	17.0	4	5.4	4	-1E+10	1	-1E+10	1	-1E+10	1	-1E+10	1	-1E+10	1	-1E+10	1
4901784	29	C	04/20/2016	10:45	-132.034	44.661	0	634.70	0	4.3280	0	34.1620	0	27.090	0	628.604	0	16.8	4	5.3	4	-1E+10	1	-1E+10	1	-1E+10	1	-1E+10	1	-1E+10	1	-1E+10	1
4901784	29	C	04/20/2016	10:45	-132.034	44.661	0	640.00	0	4.3230	0	34.1630	0	27.092	0	633.845	0	16.6	4	5.3	4	-1E+10	1	-1E+10	1	-1E+10	1	-1E+10	1	-1E+10	1	-1E+10	1
4901784	29	C	04/20/2016	10:45	-132.034	44.661	0	645.30	0	4.3070	0	34.1670	0	27.097	0	639.086	0	16.3	4	5.2	4	-1E+10	1	-1E+10	1	-1E+10	1	-1E+10	1	-1E+10	1	-1E+10	1
4901784	29	C	04/20/2016	10:45	-132.034	44.661	0	650.60	0	4.2960	0	34.1690	0	27.099	0	644.327	0	16.0	4	5.1	4	-1E+10	1	-1E+10	1	-1E+10	1	-1E+10	1	-1E+10	1	-1E+10	1
4901784	29	C	04/20/2016	10:45	-132.034	44.661	0	655.10	0	4.2780	0	34.1740	0	27.105	0	648.777	0	15.6	4	5.0	4	-1E+10	1	-1E+10	1	-1E+10	1	-1E+10	1	-1E+10	1	-1E+10	1
4901784	29	C	04/20/2016	10:45	-132.034	44.661	0	659.60	0	4.2690	0	34.1780	0	27.109	0	653.226	0	15.4	4	4.9	4	-1E+10	1	-1E+10	1	-1E+10	1	-1E+10	1	-1E+10	1	-1E+10	1
4901784	29	C	04/20/2016	10:45	-132.034	44.661	0	665.00	0	4.2530	0	34.1810	0	27.114	0	658.565	0	15.3	4	4.8	4	-1E+10	1	-1E+10	1	-1E+10	1	-1E+10	1	-1E+10	1	-1E+10	1
4901784	29	C	04/20/2016	10:45	-132.034	44.661	0	670.50	0	4.2410	0	34.1840	0	27.117	0	664.003	0	15.0	4	4.8	4	-1E+10	1	-1E+10	1	-1E+10	1	-1E+10	1	-1E+10	1	-1E+10	1
4901784	29	C	04/20/2016	10:45	-132.034	44.661	0	675.10	0	4.2280	0	34.1870	0	27.121	0	668.551	0	14.8	4	4.7	4	-1E+10	1	-1E+10	1	-1E+10	1	-1E+10	1	-1E+10	1	-1E+10	1
4901784	29	C	04/20/2016	10:45	-132.034	44.661	0	679.70	0	4.2130	0	34.1910	0	27.126	0	673.099	0	14.6	4	4.6	4	-1E+10	1	-1E+10	1	-1E+10	1	-1E+10	1	-1E+10	1	-1E+10	1
4901784	29	C	04/20/2016	10:45	-132.034	44.661	0	685.20	0	4.1990	0	34.1950	0	27.131	0	678.537	0	14.4	4	4.6	4	-1E+10	1	-1E+10	1	-1E+10	1	-1E+10	1	-1E+10	1	-1E+10	1
4901784	29	C	04/20/2016	10:45	-132.034	44.661	0	689.90	0	4.1880	0	34.1980	0	27.134	0	683.184	0	14.2	4	4.5	4	-1E+10	1	-1E+10	1	-1E+10	1	-1E+10	1	-1E+10	1	-1E+10	1
4901784	29	C	04/20/2016	10:45	-132.034	44.661	0	694.50	0	4.1700	0	34.2020	0	27.139	0	687.731	0	14.0	4	4.4	4	-1E+10	1	-1E+10	1	-1E+10	1	-1E+10	1	-1E+10	1	-1E+10	1
4901784	29	C	04/20/2016	10:45	-132.034	44.661	0	700.20	0	4.1500	0	34.2070	0	27.145	0	693.366	0	13.8	4	4.4	4	-1E+10	1	-1E+10	1	-1E+10	1	-1E+10	1	-1E+10	1	-1E+10	1
4901784	29	C	04/20/2016	10:45	-132.034	44.661	0	705.60	0	4.1390	0	34.2100	0	27.149	0	698.705	0	13.6	4	4.3	4	-1E+10	1	-1E+10	1	-1E+10	1	-1E+10	1	-1E+10	1	-1E+10	1
4901784	29	C	04/20/2016	10:45	-132.034	44.661	0	710.50	0	4.1190	0	34.2140	0	27.154	0	703.548	0	13.5	4	4.3	4	-1E+10	1	-1E+10	1	-1E+10	1	-1E+10	1	-1E+10	1	-1E+10	1
4901784	29	C	04/20/2016	10:45	-132.034	44.661	0	715.30	0	4.1080	0	34.2160	0	27.157	0	708.293	0	13.3	4	4.2	4	-1E+10	1	-1E+10	1	-1E+10	1	-1E+10	1	-1E+10	1	-1E+10	1
4901784	29	C	04/20/2016	10:45	-132.034	44.661	0	720.30	0	4.1050	0	34.2190	0	27.160	0	713.236	0	13.1	4	4.2	4	-1E+10	1	-1E+10	1	-1E+10	1	-1E+10	1	-1E+10	1	-1E+10	1
4901784	29	C	04/20/2016	10:45	-132.034	44.661	0	725.30	0	4.0790	0	34.2230	0	27.166	0	718.178	0	13.0	4	4.1	4	-1E+10	1	-1E+10	1	-1E+10	1	-1E+10	1	-1E+10	1	-1E+10	1
4901784	29	C	04/20/2016	10:45	-132.034	44.661	0	730.30	0	4.0650	0	34.2270	0	27.170	0	723.120	0	12.9	4	4.1	4	-1E+10	1	-1E+10	1	-1E+10	1	-1E+10	1	-1E+10	1	-1E+10	1
4901784	29	C	04/20/2016	10:45	-132.034	44.661	0	735.30	0	4.0460	0	34.2300	0	27.175	0	728.062	0	12.7	4	4.0	4	-1E+10	1	-1E+10	1	-1E+10	1	-1E+10	1	-1E+10	1	-1E+10	1
4901784	29	C	04/20/2016	10:45	-132.034	44.661	0	740.30	0	4.0300	0	34.2340	0	27.179	0	733.004	0	12.6	4	4.0	4	-1E+10	1	-1E+10	1	-1E+10	1	-1E+10	1	-1E+10	1	-1E+10	1
4901784	29	C	04/20/2016	10:45	-132.034	44.661	0	745.50	0	4.0140	0	34.2390	0	27.185	0	738.144	0	12.5	4	3.9	4	-1E+10	1	-1E+10	1	-1E+10	1	-1E+10	1	-1E+10	1	-1E+10	1
4901784	29	C	04/20/2016	10:45	-132.034	44.661	0	750.60	0	3.9990	0	34.2410	0	27.188	0	743.185	0	12.4	4	3.9	4	-1E+10	1	-1E+10	1	-1E+10	1	-1E+10	1	-1E+10	1	-1E+10	1
4901784	29	C	04/20/2016	10:45	-132.034	44.661	0	754.90	0	3.9900	0	34.2430	0	27.191	0	747.434	0	12.4	4	3.9	4	-1E+10	1	-1E+10	1	-1E+10	1	-1E+10	1	-1E+10	1	-1E+10	1
4901784	29	C	04/20/2016	10:45	-132.034	44.661	0	759.20	0	3.9820	0	34.2440	0	27.192	0	751.684	0	12.3	4	3.9	4	-1E+10	1	-1E+10	1	-1E+10	1	-1E+10	1	-1E+10	1	-1E+10	1
4901784	29	C	04/20/2016	10:45	-132.034	44.661	0	764.50	0	3.9590	0	34.2480	0	27.198	0	756.922	0	12.2	4	3.9	4	-1E+10	1	-1E+10	1	-1E+10	1	-1E+10	1	-1E+10	1	-1E+10	1
4901784	29	C	04/20/2016	10:45	-132.034	44.661	0	769.70	0	3.9480	0	34.2510	0	27.201	0	762.061	0	12.1	4	3.8	4	-1E+10	1	-1E+10	1	-1E+10	1	-1E+10	1	-1E+10	1	-1E+10	1
4901784	29	C	04/20/2016	10:45	-132.034	44.661	0	775.10	0	3.9400	0	34.2550	0	27.206	0	767.398	0	12.0	4	3.8	4	-1E+10	1	-1E+10	1	-1E+10	1	-1E+10	1	-1E+10	1	-1E+10	1
4901784	29	C	04/20/2016	10:45	-132.034	44.661	0	780.30	0	3.9270	0	34.2580	0	27.209	0	772.536	0	11.9	4	3.8	4	-1E+10	1	-1E+10	1	-1E+10	1	-1E+10	1	-1E+10	1	-1E+10	1
4901784	29	C	04/20/2016	10:45	-132.034	44.661	0	785.60	0	3.9140	0	34.2590	0	27.211	0	777.774	0	11.9	4	3.7	4	-1E+10	1	-1E+10	1	-1E+10	1	-1E+10	1	-1E+10	1	-1E+10	1
4901784	29	C	04/20/2016	10:45	-132.034	44.661	0	790.10	0	3.9010	0	34.2620	0	27.215	0	782.220	0	11.8	4	3.7	4	-1E+10	1	-1E+10	1	-1E+10	1	-1E+10	1	-1E+10	1	-1E+10	1
4901784	29	C	04/20/2016	10:45	-132.034	44.661	0	794.60	0	3.8870	0	34.2650	0	27.219	0	786.667	0	11.8	4	3.7	4	-1E+10	1	-1E+10	1	-1E+10	1	-1E+10	1	-1E+10	1	-1E+10	1
4901784	29	C	04/20/2016	10:45	-132.034	44.661	0	799.90	0	3.8780	0	34.2670	0	27.222	0	791.904	0	11.7	4	3.7	4	-1E+10	1	-1E+10	1	-1E+10	1	-1E+10	1	-1E+10	1	-1E+10	1
4901784	29	C	04/20/2016	10:45	-132.034	44.661	0	805.20	0	3.8670	0	34.2700	0	27.225	0	797.141	0	11.6	4	3.7	4	-1E+10	1	-1E+10	1	-1E+10	1	-1E+10	1	-1E+10	1	-1E+10	1
4901784	29	C	04/20/2016	10:45	-132.034	44.661	0	810.60	0	3.8590	0	34.2720	0	27.227	0	802.477	0	11.6	4	3.6	4	-1E+10	1	-1E+10	1	-1E+10	1	-1E+10	1	-1E+10	1	-1E+10	1
4901784	29	C	04/20/2016	10:45	-132.034	44.661	0	815.10	0	3.8510	0	34.2750	0	27.231	0	806.923	0	11.5	4	3.6	4	-1E+10	1	-1E+10	1	-1E+10	1	-1E+10	1	-1E+10	1	-1E+10	1
4901784	29	C	04/20/2016	10:45	-132.034	44.661	0	819.60	0	3.8430	0	34.2770	0	27.233	0	811.369	0	11.5	4	3.6	4	-1E+10	1	-1E+10	1	-1E+10	1	-1E+10	1	-1E+10	1	-1E+10	1
4901784	29	C	04/20/2016	10:45	-132.034	44.661	0	825.00	0	3.8170	0	34.2790	0	27.237	0	816.704	0	11.5	4	3.6	4	-1E+10	1	-1E+10	1	-1E+10	1	-1E+10	1	-1E+10	1	-1E+10	1
4901784	29	C	04/20/2016	10:45	-132.034	44.661	0	830.40	0	3.7960	0	34.2820	0	27.242	0	822.039	0	11.5	4	3.6	4	-1E+10	1	-1E+10	1	-1E+10	1	-1E+10	1	-1E+10	1	-1E+10	1
4901784	29	C	04/20/2016	10:45	-132.034	44.661	0	834.90	0	3.7820	0	34.2840	0	27.245	0	826.485	0	11.5	4	3.6	4	-1E+10	1	-1E+10	1	-1E+10	1	-1E+10	1	-1E+10	1	-1E+10	1
4901784	29	C	04/20/2016	10:45	-132.034	44.661	0	839.40	0	3.7790	0	34.2850	0	27.246	0	830.931	0	11.5	4	3.6	4	-1E+10	1	-1E+10	1	-1E+10	1	-1E+10	1	-1E+10	1	-1E+10	1
4901784	29	C	04/20/2016	10:45	-132.034	44.661	0	844.80	0	3.7630	0	34.2850	0	27.248	0	836.265	0	11.6	4	3.6	4	-1E+10	1	-1E+10	1	-1E+10	1	-1E+10	1	-1E+10	1	-1E+10	1
4901784	29	C	04/20/2016	10:45	-132.034	44.661	0	850.20	0	3.7430	0	34.2850	0	27.250	0	841.600	0	11.6	4	3.6	4	-1E+10	1	-1E+10	1	-1E+10	1	-1E+10	1	-1E+10	1	-1E+10	1
4901784	29	C	04/20/2016	10:45	-132.034	44.661	0	855.60	0	3.7220	0	34.2880	0	27.254	0	846.934	0	11.6	4	3.6	4	-1E+10	1	-1E+10	1	-1E+10	1	-1E+10	1	-1E+10	1	-1E+10	1
4901784	29	C	04/20/2016	10:45	-132.034	44.661	0	860.10	0	3.7190	0	34.2890	0	27.255	0	851.380	0	11.5	4	3.6	4	-1E+10	1	-1E+10	1	-1E+10	1	-1E+10	1	-1E+10	1	-1E+10	1
4901784	29	C	04/20/2016	10:45	-132.034	44.661	0	864.60	0	3.7110	0	34.2920	0	27.258	0	855.825	0	11.5	4	3.6	4	-1E+10	1	-1E+10	1	-1E+10	1	-1E+10	1	-1E+10	1	-1E+10	1
4901784	29	C	04/20/2016	10:45	-132.034	44.661	0	870.10	0	3.7050	0	34.2960	0	27.262	0	861.258	0	11.4	4	3.6	4	-1E+10	1	-1E+10	1	-1E+10	1	-1E+10	1	-1E+10	1	-1E+10	1
4901784	29	C	04/20/2016	10:45	-132.034	44.661	0	874.80	0	3.6920	0	34.2990	0	27.266	0	865.900	0	11.4	4	3.6	4	-1E+10	1	-1E+10	1	-1E+10	1	-1E+10	1	-1E+10	1	-1E+10	1
4901784	29	C	04/20/2016	10:45	-132.034	44.661	0	879.40	0	3.6820	0	34.3010	0	27.269	0	870.444	0	11.4	4	3.6	4	-1E+10	1	-1E+10	1	-1E+10	1	-1E+10	1	-1E+10	1	-1E+10	1
4901784	29	C	04/20/2016	10:45	-132.034	44.661	0	884.70	0	3.6620	0	34.3050	0	27.274	0	875.679	0	11.4	4	3.6	4	-1E+10	1	-1E+10	1	-1E+10	1	-1E+10	1	-1E+10	1	-1E+10	1
4901784	29	C	04/20/2016	10:45	-132.034	44.661	0	889.50	0	3.6510	0	34.3070	0	27.276	0	880.420	0	11.4	4	3.6	4	-1E+10	1	-1E+10	1	-1E+10	1	-1E+10	1	-1E+10	1	-1E+10	1
4901784	29	C	04/20/2016	10:45	-132.034	44.661	0	894.30	0	3.6360	0	34.3090	0	27.280	0	885.161	0	11.4	4	3.6	4	-1E+10	1	-1E+10	1	-1E+10	1	-1E+10	1	-1E+10	1	-1E+10	1
4901784	29	C	04/20/2016	10:45	-132.034	44.661	0	900.00	0	3.6250	0	34.3120	0	27.283	0	890.790	0	11.4	4	3.6	4	-1E+10	1	-1E+10	1	-1E+10	1	-1E+10	1	-1E+10	1	-1E+10	1
4901784	29	C	04/20/2016	10:45	-132.034	44.661	0	905.80	0	3.6040	0	34.3160	0	27.288	0	896.519	0	11.4	4	3.6	4	-1E+10	1	-1E+10	1	-1E+10	1	-1E+10	1	-1E+10	1	-1E+10	1
4901784	29	C	04/20/2016	10:45	-132.034	44.661	0	910.70	0	3.5960	0	34.3200	0	27.292	0	901.358	0	11.4	4	3.6	4	-1E+10	1	-1E+10	1	-1E+10	1	-1E+10	1	-1E+10	1	-1E+10	1
4901784	29	C	04/20/2016	10:45	-132.034	44.661	0	915.70	0	3.5830	0	34.3210	0	27.294	0	906.296	0	11.4	4	3.6	4	-1E+10	1	-1E+10	1	-1E+10	1	-1E+10	1	-1E+10	1	-1E+10	1
4901784	29	C	04/20/2016	10:45	-132.034	44.661	0	920.70	0	3.5700	0	34.3230	0	27.297	0	911.233	0	11.4	4	3.6	4	-1E+10	1	-1E+10	1	-1E+10	1	-1E+10	1	-1E+10	1	-1E+10	1
4901784	29	C	04/20/2016	10:45	-132.034	44.661	0	925.60	0	3.5530	0	34.3270	0	27.302	0	916.072	0	11.4	4	3.6	4	-1E+10	1	-1E+10	1	-1E+10	1	-1E+10	1	-1E+10	1	-1E+10	1
4901784	29	C	04/20/2016	10:45	-132.034	44.661	0	930.70	0	3.5320	0	34.3310	0	27.307	0	921.109	0	11.4	4	3.6	4	-1E+10	1	-1E+10	1	-1E+10	1	-1E+10	1	-1E+10	1	-1E+10	1
4901784	29	C	04/20/2016	10:45	-132.034	44.661	0	935.70	0	3.5200	0	34.3320	0	27.309	0	926.046	0	11.4	4	3.6	4	-1E+10	1	-1E+10	1	-1E+10	1	-1E+10	1	-1E+10	1	-1E+10	1
4901784	29	C	04/20/2016	10:45	-132.034	44.661	0	940.00	0	3.5110	0	34.3350	0	27.313	0	930.292	0	11.5	4	3.6	4	-1E+10	1	-1E+10	1	-1E+10	1	-1E+10	1	-1E+10	1	-1E+10	1
4901784	29	C	04/20/2016	10:45	-132.034	44.661	0	944.20	0	3.4990	0	34.3370	0	27.315	0	934.439	0	11.5	4	3.6	4	-1E+10	1	-1E+10	1	-1E+10	1	-1E+10	1	-1E+10	1	-1E+10	1
4901784	29	C	04/20/2016	10:45	-132.034	44.661	0	949.40	0	3.4830	0	34.3400	0	27.319	0	939.574	0	11.5	4	3.6	4	-1E+10	1	-1E+10	1	-1E+10	1	-1E+10	1	-1E+10	1	-1E+10	1
4901784	29	C	04/20/2016	10:45	-132.034	44.661	0	954.70	0	3.4670	0	34.3440	0	27.324	0	944.807	0	11.5	4	3.6	4	-1E+10	1	-1E+10	1	-1E+10	1	-1E+10	1	-1E+10	1	-1E+10	1
4901784	29	C	04/20/2016	10:45	-132.034	44.661	0	960.00	0	3.4640	0	34.3460	0	27.326	0	950.040	0	11.5	4	3.6	4	-1E+10	1	-1E+10	1	-1E+10	1	-1E+10	1	-1E+10	1	-1E+10	1
4901784	29	C	04/20/2016	10:45	-132.034	44.661	0	965.20	0	3.4480	0	34.3500	0	27.331	0	955.174	0	11.6	4	3.6	4	-1E+10	1	-1E+10	1	-1E+10	1	-1E+10	1	-1E+10	1	-1E+10	1
4901784	29	C	04/20/2016	10:45	-132.034	44.661	0	970.50	0	3.4300	0	34.3530	0	27.335	0	960.407	0	11.6	4	3.6	4	-1E+10	1	-1E+10	1	-1E+10	1	-1E+10	1	-1E+10	1	-1E+10	1
4901784	29	C	04/20/2016	10:45	-132.034	44.661	0	975.00	0	3.4230	0	34.3550	0	27.337	0	964.850	0	11.7	4	3.6	4	-1E+10	1	-1E+10	1	-1E+10	1	-1E+10	1	-1E+10	1	-1E+10	1
4901784	29	C	04/20/2016	10:45	-132.034	44.661	0	979.50	0	3.4110	0	34.3570	0	27.340	0	969.293	0	11.7	4	3.7	4	-1E+10	1	-1E+10	1	-1E+10	1	-1E+10	1	-1E+10	1	-1E+10	1
4901784	29	C	04/20/2016	10:45	-132.034	44.661	0	984.90	0	3.3950	0	34.3600	0	27.344	0	974.624	0	11.8	4	3.7	4	-1E+10	1	-1E+10	1	-1E+10	1	-1E+10	1	-1E+10	1	-1E+10	1
4901784	29	C	04/20/2016	10:45	-132.034	44.661	0	990.10	0	3.3770	0	34.3620	0	27.347	0	979.758	0	11.9	4	3.7	4	-1E+10	1	-1E+10	1	-1E+10	1	-1E+10	1	-1E+10	1	-1E+10	1
4901784	29	C	04/20/2016	10:45	-132.034	44.661	0	995.10	0	3.3590	0	34.3650	0	27.351	0	984.694	0	11.9	4	3.7	4	-1E+10	1	-1E+10	1	-1E+10	1	-1E+10	1	-1E+10	1	-1E+10	1
4901784	29	C	04/20/2016	10:45	-132.034	44.661	0	1000.60	0	3.3420	0	34.3680	0	27.355	0	990.123	0	12.0	4	3.7	4	-1E+10	1	-1E+10	1	-1E+10	1	-1E+10	1	-1E+10	1	-1E+10	1
4901784	29	C	04/20/2016	10:45	-132.034	44.661	0	1005.50	0	3.3340	0	34.3700	0	27.358	0	994.960	0	12.1	4	3.8	4	-1E+10	1	-1E+10	1	-1E+10	1	-1E+10	1	-1E+10	1	-1E+10	1
4901784	29	C	04/20/2016	10:45	-132.034	44.661	0	1010.40	0	3.3230	0	34.3720	0	27.361	0	999.797	0	12.1	4	3.8	4	-1E+10	1	-1E+10	1	-1E+10	1	-1E+10	1	-1E+10	1	-1E+10	1
4901784	29	C	04/20/2016	10:45	-132.034	44.661	0	1015.20	0	3.3150	0	34.3730	0	27.362	0	1004.535	0	12.2	4	3.8	4	-1E+10	1	-1E+10	1	-1E+10	1	-1E+10	1	-1E+10	1	-1E+10	1
4901784	29	C	04/20/2016	10:45	-132.034	44.661	0	1020.20	0	3.3070	0	34.3740	0	27.364	0	1009.471	0	12.2	4	3.8	4	-1E+10	1	-1E+10	1	-1E+10	1	-1E+10	1	-1E+10	1	-1E+10	1
4901784	29	C	04/20/2016	10:45	-132.034	44.661	0	1025.10	0	3.2960	0	34.3760	0	27.366	0	1014.307	0	12.3	4	3.8	4	-1E+10	1	-1E+10	1	-1E+10	1	-1E+10	1	-1E+10	1	-1E+10	1
4901784	29	C	04/20/2016	10:45	-132.034	44.661	0	1030.20	0	3.2800	0	34.3780	0	27.369	0	1019.341	0	12.4	4	3.9	4	-1E+10	1	-1E+10	1	-1E+10	1	-1E+10	1	-1E+10	1	-1E+10	1
4901784	29	C	04/20/2016	10:45	-132.034	44.661	0	1035.20	0	3.2670	0	34.3800	0	27.372	0	1024.276	0	12.5	4	3.9	4	-1E+10	1	-1E+10	1	-1E+10	1	-1E+10	1	-1E+10	1	-1E+10	1
4901784	29	C	04/20/2016	10:45	-132.034	44.661	0	1040.30	0	3.2560	0	34.3830	0	27.376	0	1029.310	0	12.6	4	3.9	4	-1E+10	1	-1E+10	1	-1E+10	1	-1E+10	1	-1E+10	1	-1E+10	1
4901784	29	C	04/20/2016	10:45	-132.034	44.661	0	1045.40	0	3.2510	0	34.3840	0	27.377	0	1034.344	0	12.6	4	3.9	4	-1E+10	1	-1E+10	1	-1E+10	1	-1E+10	1	-1E+10	1	-1E+10	1
4901784	29	C	04/20/2016	10:45	-132.034	44.661	0	1050.60	0	3.2500	0	34.3840	0	27.377	0	1039.476	0	12.7	4	3.9	4	-1E+10	1	-1E+10	1	-1E+10	1	-1E+10	1	-1E+10	1	-1E+10	1
4901784	29	C	04/20/2016	10:45	-132.034	44.661	0	1054.90	0	3.2380	0	34.3860	0	27.380	0	1043.719	0	12.7	4	4.0	4	-1E+10	1	-1E+10	1	-1E+10	1	-1E+10	1	-1E+10	1	-1E+10	1
4901784	29	C	04/20/2016	10:45	-132.034	44.661	0	1059.30	0	3.2300	0	34.3880	0	27.382	0	1048.062	0	12.8	4	4.0	4	-1E+10	1	-1E+10	1	-1E+10	1	-1E+10	1	-1E+10	1	-1E+10	1
4901784	29	C	04/20/2016	10:45	-132.034	44.661	0	1064.60	0	3.2190	0	34.3900	0	27.385	0	1053.292	0	12.9	4	4.0	4	-1E+10	1	-1E+10	1	-1E+10	1	-1E+10	1	-1E+10	1	-1E+10	1
4901784	29	C	04/20/2016	10:45	-132.034	44.661	0	1069.90	0	3.2110	0	34.3910	0	27.386	0	1058.523	0	13.0	4	4.0	4	-1E+10	1	-1E+10	1	-1E+10	1	-1E+10	1	-1E+10	1	-1E+10	1
4901784	29	C	04/20/2016	10:45	-132.034	44.661	0	1075.30	0	3.1970	0	34.3930	0	27.389	0	1063.852	0	13.1	4	4.1	4	-1E+10	1	-1E+10	1	-1E+10	1	-1E+10	1	-1E+10	1	-1E+10	1
4901784	29	C	04/20/2016	10:45	-132.034	44.661	0	1079.90	0	3.1850	0	34.3960	0	27.393	0	1068.391	0	13.2	4	4.1	4	-1E+10	1	-1E+10	1	-1E+10	1	-1E+10	1	-1E+10	1	-1E+10	1
4901784	29	C	04/20/2016	10:45	-132.034	44.661	0	1084.40	0	3.1780	0	34.3970	0	27.394	0	1072.831	0	13.3	4	4.1	4	-1E+10	1	-1E+10	1	-1E+10	1	-1E+10	1	-1E+10	1	-1E+10	1
4901784	29	C	04/20/2016	10:45	-132.034	44.661	0	1089.80	0	3.1670	0	34.3990	0	27.397	0	1078.160	0	13.4	4	4.2	4	-1E+10	1	-1E+10	1	-1E+10	1	-1E+10	1	-1E+10	1	-1E+10	1
4901784	29	C	04/20/2016	10:45	-132.034	44.661	0	1095.20	0	3.1590	0	34.4000	0	27.399	0	1083.488	0	13.5	4	4.2	4	-1E+10	1	-1E+10	1	-1E+10	1	-1E+10	1	-1E+10	1	-1E+10	1
4901784	29	C	04/20/2016	10:45	-132.034	44.661	0	1100.40	0	3.1470	0	34.4020	0	27.401	0	1088.619	0	13.6	4	4.2	4	-1E+10	1	-1E+10	1	-1E+10	1	-1E+10	1	-1E+10	1	-1E+10	1
4901784	29	C	04/20/2016	10:45	-132.034	44.661	0	1105.20	0	3.1340	0	34.4040	0	27.404	0	1093.355	0	13.8	4	4.3	4	-1E+10	1	-1E+10	1	-1E+10	1	-1E+10	1	-1E+10	1	-1E+10	1
4901784	29	C	04/20/2016	10:45	-132.034	44.661	0	1110.00	0	3.1150	0	34.4060	0	27.408	0	1098.091	0	13.9	4	4.3	4	-1E+10	1	-1E+10	1	-1E+10	1	-1E+10	1	-1E+10	1	-1E+10	1
4901784	29	C	04/20/2016	10:45	-132.034	44.661	0	1114.80	0	3.1030	0	34.4080	0	27.410	0	1102.827	0	14.0	4	4.3	4	-1E+10	1	-1E+10	1	-1E+10	1	-1E+10	1	-1E+10	1	-1E+10	1
4901784	29	C	04/20/2016	10:45	-132.034	44.661	0	1119.70	0	3.0970	0	34.4090	0	27.412	0	1107.662	0	14.1	4	4.4	4	-1E+10	1	-1E+10	1	-1E+10	1	-1E+10	1	-1E+10	1	-1E+10	1
4901784	29	C	04/20/2016	10:45	-132.034	44.661	0	1124.60	0	3.0890	0	34.4100	0	27.413	0	1112.496	0	14.2	4	4.4	4	-1E+10	1	-1E+10	1	-1E+10	1	-1E+10	1	-1E+10	1	-1E+10	1
4901784	29	C	04/20/2016	10:45	-132.034	44.661	0	1129.60	0	3.0850	0	34.4120	0	27.415	0	1117.429	0	14.3	4	4.4	4	-1E+10	1	-1E+10	1	-1E+10	1	-1E+10	1	-1E+10	1	-1E+10	1
4901784	29	C	04/20/2016	10:45	-132.034	44.661	0	1134.60	0	3.0820	0	34.4120	0	27.415	0	1122.362	0	14.3	4	4.4	4	-1E+10	1	-1E+10	1	-1E+10	1	-1E+10	1	-1E+10	1	-1E+10	1
4901784	29	C	04/20/2016	10:45	-132.034	44.661	0	1139.60	0	3.0720	0	34.4140	0	27.418	0	1127.294	0	14.4	4	4.4	4	-1E+10	1	-1E+10	1	-1E+10	1	-1E+10	1	-1E+10	1	-1E+10	1
4901784	29	C	04/20/2016	10:45	-132.034	44.661	0	1144.60	0	3.0620	0	34.4140	0	27.419	0	1132.227	0	14.5	4	4.5	4	-1E+10	1	-1E+10	1	-1E+10	1	-1E+10	1	-1E+10	1	-1E+10	1
4901784	29	C	04/20/2016	10:45	-132.034	44.661	0	1149.70	0	3.0510	0	34.4160	0	27.422	0	1137.258	0	14.6	4	4.5	4	-1E+10	1	-1E+10	1	-1E+10	1	-1E+10	1	-1E+10	1	-1E+10	1
4901784	29	C	04/20/2016	10:45	-132.034	44.661	0	1154.80	0	3.0380	0	34.4180	0	27.424	0	1142.289	0	14.8	4	4.6	4	-1E+10	1	-1E+10	1	-1E+10	1	-1E+10	1	-1E+10	1	-1E+10	1
4901784	29	C	04/20/2016	10:45	-132.034	44.661	0	1159.80	0	3.0260	0	34.4200	0	27.427	0	1147.221	0	15.0	4	4.6	4	-1E+10	1	-1E+10	1	-1E+10	1	-1E+10	1	-1E+10	1	-1E+10	1
4901784	29	C	04/20/2016	10:45	-132.034	44.661	0	1164.90	0	3.0180	0	34.4220	0	27.429	0	1152.252	0	15.1	4	4.7	4	-1E+10	1	-1E+10	1	-1E+10	1	-1E+10	1	-1E+10	1	-1E+10	1
4901784	29	C	04/20/2016	10:45	-132.034	44.661	0	1170.00	0	3.0110	0	34.4240	0	27.432	0	1157.282	0	15.2	4	4.7	4	-1E+10	1	-1E+10	1	-1E+10	1	-1E+10	1	-1E+10	1	-1E+10	1
4901784	29	C	04/20/2016	10:45	-132.034	44.661	0	1175.10	0	3.0050	0	34.4240	0	27.432	0	1162.313	0	15.3	4	4.7	4	-1E+10	1	-1E+10	1	-1E+10	1	-1E+10	1	-1E+10	1	-1E+10	1
4901784	29	C	04/20/2016	10:45	-132.034	44.661	0	1180.10	0	2.9950	0	34.4250	0	27.434	0	1167.245	0	15.4	4	4.8	4	-1E+10	1	-1E+10	1	-1E+10	1	-1E+10	1	-1E+10	1	-1E+10	1
4901784	29	C	04/20/2016	10:45	-132.034	44.661	0	1185.10	0	2.9850	0	34.4280	0	27.437	0	1172.176	0	15.6	4	4.8	4	-1E+10	1	-1E+10	1	-1E+10	1	-1E+10	1	-1E+10	1	-1E+10	1
4901784	29	C	04/20/2016	10:45	-132.034	44.661	0	1190.20	0	2.9770	0	34.4290	0	27.439	0	1177.206	0	15.7	4	4.8	4	-1E+10	1	-1E+10	1	-1E+10	1	-1E+10	1	-1E+10	1	-1E+10	1
4901784	29	C	04/20/2016	10:45	-132.034	44.661	0	1195.20	0	2.9680	0	34.4300	0	27.440	0	1182.138	0	15.8	4	4.9	4	-1E+10	1	-1E+10	1	-1E+10	1	-1E+10	1	-1E+10	1	-1E+10	1
4901784	29	C	04/20/2016	10:45	-132.034	44.661	0	1200.30	0	2.9640	0	34.4310	0	27.442	0	1187.168	0	15.9	4	4.9	4	-1E+10	1	-1E+10	1	-1E+10	1	-1E+10	1	-1E+10	1	-1E+10	1
4901784	29	C	04/20/2016	10:45	-132.034	44.661	0	1205.40	0	2.9620	0	34.4320	0	27.443	0	1192.197	0	16.0	4	4.9	4	-1E+10	1	-1E+10	1	-1E+10	1	-1E+10	1	-1E+10	1	-1E+10	1
4901784	29	C	04/20/2016	10:45	-132.034	44.661	0	1210.60	0	2.9520	0	34.4330	0	27.444	0	1197.326	0	16.2	4	5.0	4	-1E+10	1	-1E+10	1	-1E+10	1	-1E+10	1	-1E+10	1	-1E+10	1
4901784	29	C	04/20/2016	10:45	-132.034	44.661	0	1215.70	0	2.9390	0	34.4350	0	27.447	0	1202.355	0	16.3	4	5.0	4	-1E+10	1	-1E+10	1	-1E+10	1	-1E+10	1	-1E+10	1	-1E+10	1
4901784	29	C	04/20/2016	10:45	-132.034	44.661	0	1220.00	0	2.9290	0	34.4370	0	27.450	0	1206.596	0	16.5	4	5.1	4	-1E+10	1	-1E+10	1	-1E+10	1	-1E+10	1	-1E+10	1	-1E+10	1
4901784	29	C	04/20/2016	10:45	-132.034	44.661	0	1224.40	0	2.9250	0	34.4370	0	27.450	0	1210.935	0	16.6	4	5.1	4	-1E+10	1	-1E+10	1	-1E+10	1	-1E+10	1	-1E+10	1	-1E+10	1
4901784	29	C	04/20/2016	10:45	-132.034	44.661	0	1229.70	0	2.9190	0	34.4390	0	27.452	0	1216.161	0	16.7	4	5.1	4	-1E+10	1	-1E+10	1	-1E+10	1	-1E+10	1	-1E+10	1	-1E+10	1
4901784	29	C	04/20/2016	10:45	-132.034	44.661	0	1235.10	0	2.9110	0	34.4400	0	27.454	0	1221.486	0	16.8	4	5.2	4	-1E+10	1	-1E+10	1	-1E+10	1	-1E+10	1	-1E+10	1	-1E+10	1
4901784	29	C	04/20/2016	10:45	-132.034	44.661	0	1240.40	0	2.9060	0	34.4410	0	27.455	0	1226.712	0	16.9	4	5.2	4	-1E+10	1	-1E+10	1	-1E+10	1	-1E+10	1	-1E+10	1	-1E+10	1
4901784	29	C	04/20/2016	10:45	-132.034	44.661	0	1244.90	0	2.9050	0	34.4410	0	27.455	0	1231.149	0	16.9	4	5.2	4	-1E+10	1	-1E+10	1	-1E+10	1	-1E+10	1	-1E+10	1	-1E+10	1
4901784	29	C	04/20/2016	10:45	-132.034	44.661	0	1249.40	0	2.8990	0	34.4420	0	27.457	0	1235.586	0	17.1	4	5.3	4	-1E+10	1	-1E+10	1	-1E+10	1	-1E+10	1	-1E+10	1	-1E+10	1
4901784	29	C	04/20/2016	10:45	-132.034	44.661	0	1254.80	0	2.8910	0	34.4440	0	27.459	0	1240.911	0	17.2	4	5.3	4	-1E+10	1	-1E+10	1	-1E+10	1	-1E+10	1	-1E+10	1	-1E+10	1
4901784	29	C	04/20/2016	10:45	-132.034	44.661	0	1260.30	0	2.8860	0	34.4450	0	27.460	0	1246.334	0	17.3	4	5.3	4	-1E+10	1	-1E+10	1	-1E+10	1	-1E+10	1	-1E+10	1	-1E+10	1
4901784	29	C	04/20/2016	10:45	-132.034	44.661	0	1264.90	0	2.8810	0	34.4460	0	27.461	0	1250.869	0	17.5	4	5.4	4	-1E+10	1	-1E+10	1	-1E+10	1	-1E+10	1	-1E+10	1	-1E+10	1
4901784	29	C	04/20/2016	10:45	-132.034	44.661	0	1269.50	0	2.8760	0	34.4470	0	27.463	0	1255.404	0	17.6	4	5.4	4	-1E+10	1	-1E+10	1	-1E+10	1	-1E+10	1	-1E+10	1	-1E+10	1
4901784	29	C	04/20/2016	10:45	-132.034	44.661	0	1274.90	0	2.8670	0	34.4490	0	27.465	0	1260.728	0	18.0	4	5.5	4	-1E+10	1	-1E+10	1	-1E+10	1	-1E+10	1	-1E+10	1	-1E+10	1
4901784	29	C	04/20/2016	10:45	-132.034	44.661	0	1280.40	0	2.8650	0	34.4520	0	27.468	0	1266.150	0	18.2	4	5.6	4	-1E+10	1	-1E+10	1	-1E+10	1	-1E+10	1	-1E+10	1	-1E+10	1
4901784	29	C	04/20/2016	10:45	-132.034	44.661	0	1284.90	0	2.8610	0	34.4530	0	27.469	0	1270.587	0	18.2	4	5.6	4	-1E+10	1	-1E+10	1	-1E+10	1	-1E+10	1	-1E+10	1	-1E+10	1
4901784	29	C	04/20/2016	10:45	-132.034	44.661	0	1289.50	0	2.8560	0	34.4530	0	27.469	0	1275.122	0	18.4	4	5.6	4	-1E+10	1	-1E+10	1	-1E+10	1	-1E+10	1	-1E+10	1	-1E+10	1
4901784	29	C	04/20/2016	10:45	-132.034	44.661	0	1295.00	0	2.8380	0	34.4540	0	27.472	0	1280.543	0	18.5	4	5.7	4	-1E+10	1	-1E+10	1	-1E+10	1	-1E+10	1	-1E+10	1	-1E+10	1
4901784	29	C	04/20/2016	10:45	-132.034	44.661	0	1300.50	0	2.8230	0	34.4560	0	27.475	0	1285.965	0	18.8	4	5.8	4	-1E+10	1	-1E+10	1	-1E+10	1	-1E+10	1	-1E+10	1	-1E+10	1
4901784	29	C	04/20/2016	10:45	-132.034	44.661	0	1305.10	0	2.8130	0	34.4580	0	27.477	0	1290.500	0	19.0	4	5.8	4	-1E+10	1	-1E+10	1	-1E+10	1	-1E+10	1	-1E+10	1	-1E+10	1
4901784	29	C	04/20/2016	10:45	-132.034	44.661	0	1310.40	0	2.8080	0	34.4590	0	27.479	0	1295.724	0	19.2	4	5.9	4	-1E+10	1	-1E+10	1	-1E+10	1	-1E+10	1	-1E+10	1	-1E+10	1
4901784	29	C	04/20/2016	10:45	-132.034	44.661	0	1315.40	0	2.7980	0	34.4600	0	27.480	0	1300.653	0	19.4	4	6.0	4	-1E+10	1	-1E+10	1	-1E+10	1	-1E+10	1	-1E+10	1	-1E+10	1
4901784	29	C	04/20/2016	10:45	-132.034	44.661	0	1320.30	0	2.7810	0	34.4620	0	27.483	0	1305.483	0	19.7	4	6.1	4	-1E+10	1	-1E+10	1	-1E+10	1	-1E+10	1	-1E+10	1	-1E+10	1
4901784	29	C	04/20/2016	10:45	-132.034	44.661	0	1325.20	0	2.7690	0	34.4640	0	27.486	0	1310.312	0	19.9	4	6.1	4	-1E+10	1	-1E+10	1	-1E+10	1	-1E+10	1	-1E+10	1	-1E+10	1
4901784	29	C	04/20/2016	10:45	-132.034	44.661	0	1330.00	0	2.7620	0	34.4640	0	27.487	0	1315.044	0	20.1	4	6.2	4	-1E+10	1	-1E+10	1	-1E+10	1	-1E+10	1	-1E+10	1	-1E+10	1
4901784	29	C	04/20/2016	10:45	-132.034	44.661	0	1334.90	0	2.7510	0	34.4650	0	27.488	0	1319.873	0	20.4	4	6.3	4	-1E+10	1	-1E+10	1	-1E+10	1	-1E+10	1	-1E+10	1	-1E+10	1
4901784	29	C	04/20/2016	10:45	-132.034	44.661	0	1339.80	0	2.7380	0	34.4660	0	27.490	0	1324.703	0	20.7	4	6.3	4	-1E+10	1	-1E+10	1	-1E+10	1	-1E+10	1	-1E+10	1	-1E+10	1
4901784	29	C	04/20/2016	10:45	-132.034	44.661	0	1344.70	0	2.7210	0	34.4670	0	27.493	0	1329.532	0	21.0	4	6.4	4	-1E+10	1	-1E+10	1	-1E+10	1	-1E+10	1	-1E+10	1	-1E+10	1
4901784	29	C	04/20/2016	10:45	-132.034	44.661	0	1349.60	0	2.7120	0	34.4690	0	27.495	0	1334.361	0	21.2	4	6.5	4	-1E+10	1	-1E+10	1	-1E+10	1	-1E+10	1	-1E+10	1	-1E+10	1
4901784	29	C	04/20/2016	10:45	-132.034	44.661	0	1354.60	0	2.7040	0	34.4710	0	27.497	0	1339.289	0	21.5	4	6.6	4	-1E+10	1	-1E+10	1	-1E+10	1	-1E+10	1	-1E+10	1	-1E+10	1
4901784	29	C	04/20/2016	10:45	-132.034	44.661	0	1360.00	0	2.6970	0	34.4720	0	27.499	0	1344.611	0	21.8	4	6.7	4	-1E+10	1	-1E+10	1	-1E+10	1	-1E+10	1	-1E+10	1	-1E+10	1
4901784	29	C	04/20/2016	10:45	-132.034	44.661	0	1365.60	0	2.6810	0	34.4740	0	27.502	0	1350.129	0	22.2	4	6.8	4	-1E+10	1	-1E+10	1	-1E+10	1	-1E+10	1	-1E+10	1	-1E+10	1
4901784	29	C	04/20/2016	10:45	-132.034	44.661	0	1370.30	0	2.6670	0	34.4760	0	27.505	0	1354.761	0	22.5	4	6.9	4	-1E+10	1	-1E+10	1	-1E+10	1	-1E+10	1	-1E+10	1	-1E+10	1
4901784	29	C	04/20/2016	10:45	-132.034	44.661	0	1375.00	0	2.6580	0	34.4770	0	27.506	0	1359.393	0	22.8	4	7.0	4	-1E+10	1	-1E+10	1	-1E+10	1	-1E+10	1	-1E+10	1	-1E+10	1
4901784	29	C	04/20/2016	10:45	-132.034	44.661	0	1380.60	0	2.6450	0	34.4780	0	27.508	0	1364.911	0	23.1	4	7.1	4	-1E+10	1	-1E+10	1	-1E+10	1	-1E+10	1	-1E+10	1	-1E+10	1
4901784	29	C	04/20/2016	10:45	-132.034	44.661	0	1385.30	0	2.6340	0	34.4810	0	27.512	0	1369.542	0	23.3	4	7.1	4	-1E+10	1	-1E+10	1	-1E+10	1	-1E+10	1	-1E+10	1	-1E+10	1
4901784	29	C	04/20/2016	10:45	-132.034	44.661	0	1389.90	0	2.6300	0	34.4810	0	27.512	0	1374.075	0	23.5	4	7.2	4	-1E+10	1	-1E+10	1	-1E+10	1	-1E+10	1	-1E+10	1	-1E+10	1
4901784	29	C	04/20/2016	10:45	-132.034	44.661	0	1395.60	0	2.6210	0	34.4820	0	27.514	0	1379.691	0	23.8	4	7.3	4	-1E+10	1	-1E+10	1	-1E+10	1	-1E+10	1	-1E+10	1	-1E+10	1
4901784	29	C	04/20/2016	10:45	-132.034	44.661	0	1400.30	0	2.6130	0	34.4830	0	27.515	0	1384.322	0	24.0	4	7.3	4	-1E+10	1	-1E+10	1	-1E+10	1	-1E+10	1	-1E+10	1	-1E+10	1
4901784	29	C	04/20/2016	10:45	-132.034	44.661	0	1405.00	0	2.6060	0	34.4840	0	27.516	0	1388.953	0	24.3	4	7.4	4	-1E+10	1	-1E+10	1	-1E+10	1	-1E+10	1	-1E+10	1	-1E+10	1
4901784	29	C	04/20/2016	10:45	-132.034	44.661	0	1409.80	0	2.6000	0	34.4850	0	27.518	0	1393.683	0	24.5	4	7.5	4	-1E+10	1	-1E+10	1	-1E+10	1	-1E+10	1	-1E+10	1	-1E+10	1
4901784	29	C	04/20/2016	10:45	-132.034	44.661	0	1414.60	0	2.5860	0	34.4860	0	27.520	0	1398.412	0	24.8	4	7.6	4	-1E+10	1	-1E+10	1	-1E+10	1	-1E+10	1	-1E+10	1	-1E+10	1
4901784	29	C	04/20/2016	10:45	-132.034	44.661	0	1420.40	0	2.5770	0	34.4870	0	27.521	0	1404.126	0	25.2	4	7.7	4	-1E+10	1	-1E+10	1	-1E+10	1	-1E+10	1	-1E+10	1	-1E+10	1
4901784	29	C	04/20/2016	10:45	-132.034	44.661	0	1425.20	0	2.5710	0	34.4890	0	27.524	0	1408.855	0	25.5	4	7.8	4	-1E+10	1	-1E+10	1	-1E+10	1	-1E+10	1	-1E+10	1	-1E+10	1
4901784	29	C	04/20/2016	10:45	-132.034	44.661	0	1430.10	0	2.5650	0	34.4900	0	27.525	0	1413.683	0	25.7	4	7.9	4	-1E+10	1	-1E+10	1	-1E+10	1	-1E+10	1	-1E+10	1	-1E+10	1
4901784	29	C	04/20/2016	10:45	-132.034	44.661	0	1435.00	0	2.5590	0	34.4910	0	27.526	0	1418.510	0	25.8	4	7.9	4	-1E+10	1	-1E+10	1	-1E+10	1	-1E+10	1	-1E+10	1	-1E+10	1
4901784	29	C	04/20/2016	10:45	-132.034	44.661	0	1439.80	0	2.5540	0	34.4910	0	27.527	0	1423.239	0	26.0	4	7.9	4	-1E+10	1	-1E+10	1	-1E+10	1	-1E+10	1	-1E+10	1	-1E+10	1
4901784	29	C	04/20/2016	10:45	-132.034	44.661	0	1444.70	0	2.5520	0	34.4920	0	27.528	0	1428.066	0	26.2	4	8.0	4	-1E+10	1	-1E+10	1	-1E+10	1	-1E+10	1	-1E+10	1	-1E+10	1
4901784	29	C	04/20/2016	10:45	-132.034	44.661	0	1449.70	0	2.5430	0	34.4930	0	27.529	0	1432.991	0	26.5	4	8.1	4	-1E+10	1	-1E+10	1	-1E+10	1	-1E+10	1	-1E+10	1	-1E+10	1
4901784	29	C	04/20/2016	10:45	-132.034	44.661	0	1454.80	0	2.5400	0	34.4930	0	27.530	0	1438.015	0	26.9	4	8.2	4	-1E+10	1	-1E+10	1	-1E+10	1	-1E+10	1	-1E+10	1	-1E+10	1
4901784	29	C	04/20/2016	10:45	-132.034	44.661	0	1459.80	0	2.5320	0	34.4950	0	27.532	0	1442.940	0	27.2	4	8.3	4	-1E+10	1	-1E+10	1	-1E+10	1	-1E+10	1	-1E+10	1	-1E+10	1
4901784	29	C	04/20/2016	10:45	-132.034	44.661	0	1464.80	0	2.5280	0	34.4960	0	27.533	0	1447.865	0	27.4	4	8.4	4	-1E+10	1	-1E+10	1	-1E+10	1	-1E+10	1	-1E+10	1	-1E+10	1
4901784	29	C	04/20/2016	10:45	-132.034	44.661	0	1469.90	0	2.5170	0	34.4970	0	27.535	0	1452.889	0	27.7	4	8.5	4	-1E+10	1	-1E+10	1	-1E+10	1	-1E+10	1	-1E+10	1	-1E+10	1
4901784	29	C	04/20/2016	10:45	-132.034	44.661	0	1475.00	0	2.5080	0	34.4970	0	27.536	0	1457.912	0	28.0	4	8.5	4	-1E+10	1	-1E+10	1	-1E+10	1	-1E+10	1	-1E+10	1	-1E+10	1
4901784	29	C	04/20/2016	10:45	-132.034	44.661	0	1480.10	0	2.4990	0	34.4980	0	27.537	0	1462.935	0	28.2	4	8.6	4	-1E+10	1	-1E+10	1	-1E+10	1	-1E+10	1	-1E+10	1	-1E+10	1
4901784	29	C	04/20/2016	10:45	-132.034	44.661	0	1485.20	0	2.4900	0	34.5000	0	27.539	0	1467.959	0	28.3	4	8.6	4	-1E+10	1	-1E+10	1	-1E+10	1	-1E+10	1	-1E+10	1	-1E+10	1
4901784	29	C	04/20/2016	10:45	-132.034	44.661	0	1489.90	0	2.4830	0	34.5000	0	27.540	0	1472.588	0	28.6	4	8.7	4	-1E+10	1	-1E+10	1	-1E+10	1	-1E+10	1	-1E+10	1	-1E+10	1
4901784	29	C	04/20/2016	10:45	-132.034	44.661	0	1495.50	0	2.4760	0	34.5010	0	27.541	0	1478.103	0	29.0	4	8.9	4	-1E+10	1	-1E+10	1	-1E+10	1	-1E+10	1	-1E+10	1	-1E+10	1
4901784	29	C	04/20/2016	10:45	-132.034	44.661	0	1500.80	0	2.4710	0	34.5020	0	27.543	0	1483.323	0	29.4	4	9.0	4	-1E+10	1	-1E+10	1	-1E+10	1	-1E+10	1	-1E+10	1	-1E+10	1
4901784	29	C	04/20/2016	10:45	-132.034	44.661	0	1505.20	0	2.4650	0	34.5030	0	27.544	0	1487.656	0	29.7	4	9.1	4	-1E+10	1	-1E+10	1	-1E+10	1	-1E+10	1	-1E+10	1	-1E+10	1
4901784	29	C	04/20/2016	10:45	-132.034	44.661	0	1510.20	0	2.4520	0	34.5050	0	27.547	0	1492.580	0	30.1	4	9.2	4	-1E+10	1	-1E+10	1	-1E+10	1	-1E+10	1	-1E+10	1	-1E+10	1
4901784	29	C	04/20/2016	10:45	-132.034	44.661	0	1515.10	0	2.4440	0	34.5060	0	27.548	0	1497.406	0	30.4	4	9.3	4	-1E+10	1	-1E+10	1	-1E+10	1	-1E+10	1	-1E+10	1	-1E+10	1
4901784	29	C	04/20/2016	10:45	-132.034	44.661	0	1520.00	0	2.4390	0	34.5070	0	27.550	0	1502.231	0	30.9	4	9.4	4	-1E+10	1	-1E+10	1	-1E+10	1	-1E+10	1	-1E+10	1	-1E+10	1
4901784	29	C	04/20/2016	10:45	-132.034	44.661	0	1525.00	0	2.4310	0	34.5080	0	27.551	0	1507.155	0	31.3	4	9.5	4	-1E+10	1	-1E+10	1	-1E+10	1	-1E+10	1	-1E+10	1	-1E+10	1
4901784	29	C	04/20/2016	10:45	-132.034	44.661	0	1530.10	0	2.4260	0	34.5100	0	27.553	0	1512.177	0	31.8	4	9.7	4	-1E+10	1	-1E+10	1	-1E+10	1	-1E+10	1	-1E+10	1	-1E+10	1
4901784	29	C	04/20/2016	10:45	-132.034	44.661	0	1535.20	0	2.4230	0	34.5110	0	27.554	0	1517.199	0	32.2	4	9.8	4	-1E+10	1	-1E+10	1	-1E+10	1	-1E+10	1	-1E+10	1	-1E+10	1
4901784	29	C	04/20/2016	10:45	-132.034	44.661	0	1540.20	0	2.4110	0	34.5120	0	27.556	0	1522.122	0	32.5	4	9.9	4	-1E+10	1	-1E+10	1	-1E+10	1	-1E+10	1	-1E+10	1	-1E+10	1
4901784	29	C	04/20/2016	10:45	-132.034	44.661	0	1545.30	0	2.4030	0	34.5130	0	27.557	0	1527.144	0	32.7	4	10.0	4	-1E+10	1	-1E+10	1	-1E+10	1	-1E+10	1	-1E+10	1	-1E+10	1
4901784	29	C	04/20/2016	10:45	-132.034	44.661	0	1550.50	0	2.3950	0	34.5140	0	27.559	0	1532.264	0	32.9	4	10.0	4	-1E+10	1	-1E+10	1	-1E+10	1	-1E+10	1	-1E+10	1	-1E+10	1
4901784	29	C	04/20/2016	10:45	-132.034	44.661	0	1554.80	0	2.3950	0	34.5140	0	27.559	0	1536.498	0	33.0	4	10.0	4	-1E+10	1	-1E+10	1	-1E+10	1	-1E+10	1	-1E+10	1	-1E+10	1
4901784	29	C	04/20/2016	10:45	-132.034	44.661	0	1559.20	0	2.3850	0	34.5140	0	27.560	0	1540.830	0	33.2	4	10.1	4	-1E+10	1	-1E+10	1	-1E+10	1	-1E+10	1	-1E+10	1	-1E+10	1
4901784	29	C	04/20/2016	10:45	-132.034	44.661	0	1564.40	0	2.3850	0	34.5150	0	27.561	0	1545.950	0	33.4	4	10.2	4	-1E+10	1	-1E+10	1	-1E+10	1	-1E+10	1	-1E+10	1	-1E+10	1
4901784	29	C	04/20/2016	10:45	-132.034	44.661	0	1569.70	0	2.3670	0	34.5150	0	27.562	0	1551.168	0	33.4	4	10.1	4	-1E+10	1	-1E+10	1	-1E+10	1	-1E+10	1	-1E+10	1	-1E+10	1
4901784	29	C	04/20/2016	10:45	-132.034	44.661	0	1575.00	0	2.3470	0	34.5150	0	27.564	0	1556.386	0	33.5	4	10.2	4	-1E+10	1	-1E+10	1	-1E+10	1	-1E+10	1	-1E+10	1	-1E+10	1
4901784	29	C	04/20/2016	10:45	-132.034	44.661	0	1580.40	0	2.3380	0	34.5160	0	27.565	0	1561.702	0	33.8	4	10.3	4	-1E+10	1	-1E+10	1	-1E+10	1	-1E+10	1	-1E+10	1	-1E+10	1
4901784	29	C	04/20/2016	10:45	-132.034	44.661	0	1584.90	0	2.3310	0	34.5170	0	27.567	0	1566.132	0	34.2	4	10.4	4	-1E+10	1	-1E+10	1	-1E+10	1	-1E+10	1	-1E+10	1	-1E+10	1
4901784	29	C	04/20/2016	10:45	-132.034	44.661	0	1589.40	0	2.3240	0	34.5180	0	27.568	0	1570.562	0	34.5	4	10.5	4	-1E+10	1	-1E+10	1	-1E+10	1	-1E+10	1	-1E+10	1	-1E+10	1
4901784	29	C	04/20/2016	10:45	-132.034	44.661	0	1594.80	0	2.3120	0	34.5190	0	27.570	0	1575.878	0	35.0	4	10.6	4	-1E+10	1	-1E+10	1	-1E+10	1	-1E+10	1	-1E+10	1	-1E+10	1
4901784	29	C	04/20/2016	10:45	-132.034	44.661	0	1600.20	0	2.3050	0	34.5200	0	27.571	0	1581.194	0	35.3	4	10.7	4	-1E+10	1	-1E+10	1	-1E+10	1	-1E+10	1	-1E+10	1	-1E+10	1
4901784	29	C	04/20/2016	10:45	-132.034	44.661	0	1605.60	0	2.3000	0	34.5210	0	27.573	0	1586.510	0	35.7	4	10.8	4	-1E+10	1	-1E+10	1	-1E+10	1	-1E+10	1	-1E+10	1	-1E+10	1
4901784	29	C	04/20/2016	10:45	-132.034	44.661	0	1610.10	0	2.2930	0	34.5220	0	27.574	0	1590.939	0	36.0	4	10.9	4	-1E+10	1	-1E+10	1	-1E+10	1	-1E+10	1	-1E+10	1	-1E+10	1
4901784	29	C	04/20/2016	10:45	-132.034	44.661	0	1614.70	0	2.2820	0	34.5230	0	27.576	0	1595.467	0	36.3	4	11.0	4	-1E+10	1	-1E+10	1	-1E+10	1	-1E+10	1	-1E+10	1	-1E+10	1
4901784	29	C	04/20/2016	10:45	-132.034	44.661	0	1620.10	0	2.2770	0	34.5240	0	27.577	0	1600.782	0	36.5	4	11.1	4	-1E+10	1	-1E+10	1	-1E+10	1	-1E+10	1	-1E+10	1	-1E+10	1
4901784	29	C	04/20/2016	10:45	-132.034	44.661	0	1625.50	0	2.2730	0	34.5240	0	27.577	0	1606.098	0	36.8	4	11.2	4	-1E+10	1	-1E+10	1	-1E+10	1	-1E+10	1	-1E+10	1	-1E+10	1
4901784	29	C	04/20/2016	10:45	-132.034	44.661	0	1630.00	0	2.2670	0	34.5250	0	27.579	0	1610.527	0	37.0	4	11.2	4	-1E+10	1	-1E+10	1	-1E+10	1	-1E+10	1	-1E+10	1	-1E+10	1
4901784	29	C	04/20/2016	10:45	-132.034	44.661	0	1634.50	0	2.2610	0	34.5250	0	27.579	0	1614.956	0	37.3	4	11.3	4	-1E+10	1	-1E+10	1	-1E+10	1	-1E+10	1	-1E+10	1	-1E+10	1
4901784	29	C	04/20/2016	10:45	-132.034	44.661	0	1639.90	0	2.2560	0	34.5260	0	27.580	0	1620.271	0	37.6	4	11.4	4	-1E+10	1	-1E+10	1	-1E+10	1	-1E+10	1	-1E+10	1	-1E+10	1
4901784	29	C	04/20/2016	10:45	-132.034	44.661	0	1645.40	0	2.2500	0	34.5270	0	27.582	0	1625.684	0	37.9	4	11.5	4	-1E+10	1	-1E+10	1	-1E+10	1	-1E+10	1	-1E+10	1	-1E+10	1
4901784	29	C	04/20/2016	10:45	-132.034	44.661	0	1650.00	0	2.2430	0	34.5280	0	27.583	0	1630.211	0	38.3	4	11.6	4	-1E+10	1	-1E+10	1	-1E+10	1	-1E+10	1	-1E+10	1	-1E+10	1
4901784	29	C	04/20/2016	10:45	-132.034	44.661	0	1654.60	0	2.2350	0	34.5290	0	27.584	0	1634.738	0	38.6	4	11.7	4	-1E+10	1	-1E+10	1	-1E+10	1	-1E+10	1	-1E+10	1	-1E+10	1
4901784	29	C	04/20/2016	10:45	-132.034	44.661	0	1660.10	0	2.2290	0	34.5300	0	27.586	0	1640.151	0	39.0	4	11.8	4	-1E+10	1	-1E+10	1	-1E+10	1	-1E+10	1	-1E+10	1	-1E+10	1
4901784	29	C	04/20/2016	10:45	-132.034	44.661	0	1665.60	0	2.2200	0	34.5310	0	27.587	0	1645.563	0	39.4	4	11.9	4	-1E+10	1	-1E+10	1	-1E+10	1	-1E+10	1	-1E+10	1	-1E+10	1
4901784	29	C	04/20/2016	10:45	-132.034	44.661	0	1670.20	0	2.2160	0	34.5310	0	27.588	0	1650.090	0	39.7	4	12.0	4	-1E+10	1	-1E+10	1	-1E+10	1	-1E+10	1	-1E+10	1	-1E+10	1
4901784	29	C	04/20/2016	10:45	-132.034	44.661	0	1674.80	0	2.2050	0	34.5330	0	27.590	0	1654.617	0	40.1	4	12.2	4	-1E+10	1	-1E+10	1	-1E+10	1	-1E+10	1	-1E+10	1	-1E+10	1
4901784	29	C	04/20/2016	10:45	-132.034	44.661	0	1680.40	0	2.1990	0	34.5340	0	27.592	0	1660.127	0	40.4	4	12.2	4	-1E+10	1	-1E+10	1	-1E+10	1	-1E+10	1	-1E+10	1	-1E+10	1
4901784	29	C	04/20/2016	10:45	-132.034	44.661	0	1685.00	0	2.1960	0	34.5340	0	27.592	0	1664.654	0	40.6	4	12.3	4	-1E+10	1	-1E+10	1	-1E+10	1	-1E+10	1	-1E+10	1	-1E+10	1
4901784	29	C	04/20/2016	10:45	-132.034	44.661	0	1689.70	0	2.1920	0	34.5350	0	27.593	0	1669.278	0	40.8	4	12.4	4	-1E+10	1	-1E+10	1	-1E+10	1	-1E+10	1	-1E+10	1	-1E+10	1
4901784	29	C	04/20/2016	10:45	-132.034	44.661	0	1695.10	0	2.1870	0	34.5360	0	27.594	0	1674.592	0	41.2	4	12.5	4	-1E+10	1	-1E+10	1	-1E+10	1	-1E+10	1	-1E+10	1	-1E+10	1
4901784	29	C	04/20/2016	10:45	-132.034	44.661	0	1700.60	0	2.1790	0	34.5370	0	27.596	0	1680.004	0	41.6	4	12.6	4	-1E+10	1	-1E+10	1	-1E+10	1	-1E+10	1	-1E+10	1	-1E+10	1
4901784	29	C	04/20/2016	10:45	-132.034	44.661	0	1705.50	0	2.1730	0	34.5380	0	27.597	0	1684.825	0	41.9	4	12.7	4	-1E+10	1	-1E+10	1	-1E+10	1	-1E+10	1	-1E+10	1	-1E+10	1
4901784	29	C	04/20/2016	10:45	-132.034	44.661	0	1710.40	0	2.1680	0	34.5380	0	27.597	0	1689.646	0	42.2	4	12.8	4	-1E+10	1	-1E+10	1	-1E+10	1	-1E+10	1	-1E+10	1	-1E+10	1
4901784	29	C	04/20/2016	10:45	-132.034	44.661	0	1715.40	0	2.1610	0	34.5390	0	27.599	0	1694.565	0	42.5	4	12.9	4	-1E+10	1	-1E+10	1	-1E+10	1	-1E+10	1	-1E+10	1	-1E+10	1
4901784	29	C	04/20/2016	10:45	-132.034	44.661	0	1720.30	0	2.1560	0	34.5400	0	27.600	0	1699.386	0	42.8	4	12.9	4	-1E+10	1	-1E+10	1	-1E+10	1	-1E+10	1	-1E+10	1	-1E+10	1
4901784	29	C	04/20/2016	10:45	-132.034	44.661	0	1725.40	0	2.1510	0	34.5410	0	27.601	0	1704.404	0	43.1	4	13.0	4	-1E+10	1	-1E+10	1	-1E+10	1	-1E+10	1	-1E+10	1	-1E+10	1
4901784	29	C	04/20/2016	10:45	-132.034	44.661	0	1730.40	0	2.1470	0	34.5410	0	27.602	0	1709.323	0	43.3	4	13.1	4	-1E+10	1	-1E+10	1	-1E+10	1	-1E+10	1	-1E+10	1	-1E+10	1
4901784	29	C	04/20/2016	10:45	-132.034	44.661	0	1735.50	0	2.1430	0	34.5420	0	27.603	0	1714.340	0	43.5	4	13.2	4	-1E+10	1	-1E+10	1	-1E+10	1	-1E+10	1	-1E+10	1	-1E+10	1
4901784	29	C	04/20/2016	10:45	-132.034	44.661	0	1740.60	0	2.1420	0	34.5420	0	27.603	0	1719.357	0	43.7	4	13.2	4	-1E+10	1	-1E+10	1	-1E+10	1	-1E+10	1	-1E+10	1	-1E+10	1
4901784	29	C	04/20/2016	10:45	-132.034	44.661	0	1745.70	0	2.1380	0	34.5430	0	27.604	0	1724.374	0	44.1	4	13.3	4	-1E+10	1	-1E+10	1	-1E+10	1	-1E+10	1	-1E+10	1	-1E+10	1
4901784	29	C	04/20/2016	10:45	-132.034	44.661	0	1750.00	0	2.1310	0	34.5440	0	27.605	0	1728.604	0	44.4	4	13.4	4	-1E+10	1	-1E+10	1	-1E+10	1	-1E+10	1	-1E+10	1	-1E+10	1
4901784	29	C	04/20/2016	10:45	-132.034	44.661	0	1754.30	0	2.1270	0	34.5440	0	27.606	0	1732.834	0	44.7	4	13.5	4	-1E+10	1	-1E+10	1	-1E+10	1	-1E+10	1	-1E+10	1	-1E+10	1
4901784	29	C	04/20/2016	10:45	-132.034	44.661	0	1759.50	0	2.1190	0	34.5460	0	27.608	0	1737.949	0	45.2	4	13.7	4	-1E+10	1	-1E+10	1	-1E+10	1	-1E+10	1	-1E+10	1	-1E+10	1
4901784	29	C	04/20/2016	10:45	-132.034	44.661	0	1764.70	0	2.1120	0	34.5460	0	27.608	0	1743.064	0	45.7	4	13.8	4	-1E+10	1	-1E+10	1	-1E+10	1	-1E+10	1	-1E+10	1	-1E+10	1
4901784	29	C	04/20/2016	10:45	-132.034	44.661	0	1769.90	0	2.1030	0	34.5480	0	27.611	0	1748.179	0	46.1	4	13.9	4	-1E+10	1	-1E+10	1	-1E+10	1	-1E+10	1	-1E+10	1	-1E+10	1
4901784	29	C	04/20/2016	10:45	-132.034	44.661	0	1775.10	0	2.0960	0	34.5490	0	27.612	0	1753.294	0	46.5	4	14.1	4	-1E+10	1	-1E+10	1	-1E+10	1	-1E+10	1	-1E+10	1	-1E+10	1
4901784	29	C	04/20/2016	10:45	-132.034	44.661	0	1780.30	0	2.0900	0	34.5500	0	27.613	0	1758.408	0	46.9	4	14.2	4	-1E+10	1	-1E+10	1	-1E+10	1	-1E+10	1	-1E+10	1	-1E+10	1
4901784	29	C	04/20/2016	10:45	-132.034	44.661	0	1785.60	0	2.0860	0	34.5510	0	27.615	0	1763.621	0	47.2	4	14.2	4	-1E+10	1	-1E+10	1	-1E+10	1	-1E+10	1	-1E+10	1	-1E+10	1
4901784	29	C	04/20/2016	10:45	-132.034	44.661	0	1790.00	0	2.0850	0	34.5510	0	27.615	0	1767.949	0	47.4	4	14.3	4	-1E+10	1	-1E+10	1	-1E+10	1	-1E+10	1	-1E+10	1	-1E+10	1
4901784	29	C	04/20/2016	10:45	-132.034	44.661	0	1794.40	0	2.0810	0	34.5510	0	27.615	0	1772.276	0	47.6	4	14.4	4	-1E+10	1	-1E+10	1	-1E+10	1	-1E+10	1	-1E+10	1	-1E+10	1
4901784	29	C	04/20/2016	10:45	-132.034	44.661	0	1799.70	0	2.0760	0	34.5520	0	27.616	0	1777.489	0	47.9	4	14.5	4	-1E+10	1	-1E+10	1	-1E+10	1	-1E+10	1	-1E+10	1	-1E+10	1
4901784	29	C	04/20/2016	10:45	-132.034	44.661	0	1805.00	0	2.0730	0	34.5520	0	27.617	0	1782.701	0	48.2	4	14.6	4	-1E+10	1	-1E+10	1	-1E+10	1	-1E+10	1	-1E+10	1	-1E+10	1
4901784	29	C	04/20/2016	10:45	-132.034	44.661	0	1810.40	0	2.0660	0	34.5530	0	27.618	0	1788.012	0	48.5	4	14.6	4	-1E+10	1	-1E+10	1	-1E+10	1	-1E+10	1	-1E+10	1	-1E+10	1
4901784	29	C	04/20/2016	10:45	-132.034	44.661	0	1814.90	0	2.0630	0	34.5540	0	27.619	0	1792.437	0	48.7	4	14.7	4	-1E+10	1	-1E+10	1	-1E+10	1	-1E+10	1	-1E+10	1	-1E+10	1
4901784	29	C	04/20/2016	10:45	-132.034	44.661	0	1819.30	0	2.0590	0	34.5550	0	27.620	0	1796.764	0	48.9	4	14.8	4	-1E+10	1	-1E+10	1	-1E+10	1	-1E+10	1	-1E+10	1	-1E+10	1
4901784	29	C	04/20/2016	10:45	-132.034	44.661	0	1824.60	0	2.0560	0	34.5550	0	27.620	0	1801.976	0	49.2	4	14.9	4	-1E+10	1	-1E+10	1	-1E+10	1	-1E+10	1	-1E+10	1	-1E+10	1
4901784	29	C	04/20/2016	10:45	-132.034	44.661	0	1829.40	0	2.0510	0	34.5560	0	27.622	0	1806.696	0	49.5	4	14.9	4	-1E+10	1	-1E+10	1	-1E+10	1	-1E+10	1	-1E+10	1	-1E+10	1
4901784	29	C	04/20/2016	10:45	-132.034	44.661	0	1834.30	0	2.0490	0	34.5560	0	27.622	0	1811.514	0	49.8	4	15.0	4	-1E+10	1	-1E+10	1	-1E+10	1	-1E+10	1	-1E+10	1	-1E+10	1
4901784	29	C	04/20/2016	10:45	-132.034	44.661	0	1840.00	0	2.0420	0	34.5570	0	27.623	0	1817.119	0	50.2	4	15.2	4	-1E+10	1	-1E+10	1	-1E+10	1	-1E+10	1	-1E+10	1	-1E+10	1
4901784	29	C	04/20/2016	10:45	-132.034	44.661	0	1845.60	0	2.0350	0	34.5590	0	27.625	0	1822.625	0	50.7	4	15.3	4	-1E+10	1	-1E+10	1	-1E+10	1	-1E+10	1	-1E+10	1	-1E+10	1
4901784	29	C	04/20/2016	10:45	-132.034	44.661	0	1850.50	0	2.0280	0	34.5590	0	27.626	0	1827.443	0	51.0	4	15.4	4	-1E+10	1	-1E+10	1	-1E+10	1	-1E+10	1	-1E+10	1	-1E+10	1
4901784	29	C	04/20/2016	10:45	-132.034	44.661	0	1855.40	0	2.0240	0	34.5600	0	27.627	0	1832.261	0	51.2	4	15.4	4	-1E+10	1	-1E+10	1	-1E+10	1	-1E+10	1	-1E+10	1	-1E+10	1
4901784	29	C	04/20/2016	10:45	-132.034	44.661	0	1860.30	0	2.0220	0	34.5600	0	27.627	0	1837.079	0	51.4	4	15.5	4	-1E+10	1	-1E+10	1	-1E+10	1	-1E+10	1	-1E+10	1	-1E+10	1
4901784	29	C	04/20/2016	10:45	-132.034	44.661	0	1865.30	0	2.0210	0	34.5610	0	27.628	0	1841.995	0	51.5	4	15.5	4	-1E+10	1	-1E+10	1	-1E+10	1	-1E+10	1	-1E+10	1	-1E+10	1
4901784	29	C	04/20/2016	10:45	-132.034	44.661	0	1870.20	0	2.0200	0	34.5610	0	27.628	0	1846.812	0	51.6	4	15.6	4	-1E+10	1	-1E+10	1	-1E+10	1	-1E+10	1	-1E+10	1	-1E+10	1
4901784	29	C	04/20/2016	10:45	-132.034	44.661	0	1875.20	0	2.0170	0	34.5610	0	27.629	0	1851.728	0	52.0	4	15.7	4	-1E+10	1	-1E+10	1	-1E+10	1	-1E+10	1	-1E+10	1	-1E+10	1
4901784	29	C	04/20/2016	10:45	-132.034	44.661	0	1880.30	0	2.0110	0	34.5620	0	27.630	0	1856.742	0	52.4	4	15.8	4	-1E+10	1	-1E+10	1	-1E+10	1	-1E+10	1	-1E+10	1	-1E+10	1
4901784	29	C	04/20/2016	10:45	-132.034	44.661	0	1885.40	0	2.0050	0	34.5630	0	27.631	0	1861.756	0	52.8	4	15.9	4	-1E+10	1	-1E+10	1	-1E+10	1	-1E+10	1	-1E+10	1	-1E+10	1
4901784	29	C	04/20/2016	10:45	-132.034	44.661	0	1890.50	0	2.0000	0	34.5640	0	27.632	0	1866.769	0	53.1	4	16.0	4	-1E+10	1	-1E+10	1	-1E+10	1	-1E+10	1	-1E+10	1	-1E+10	1
4901784	29	C	04/20/2016	10:45	-132.034	44.661	0	1895.60	0	1.9950	0	34.5650	0	27.634	0	1871.783	0	53.4	4	16.1	4	-1E+10	1	-1E+10	1	-1E+10	1	-1E+10	1	-1E+10	1	-1E+10	1
4901784	29	C	04/20/2016	10:45	-132.034	44.661	0	1900.00	0	1.9920	0	34.5650	0	27.634	0	1876.108	0	53.6	4	16.2	4	-1E+10	1	-1E+10	1	-1E+10	1	-1E+10	1	-1E+10	1	-1E+10	1
4901784	29	C	04/20/2016	10:45	-132.034	44.661	0	1904.30	0	1.9890	0	34.5660	0	27.635	0	1880.335	0	53.9	4	16.2	4	-1E+10	1	-1E+10	1	-1E+10	1	-1E+10	1	-1E+10	1	-1E+10	1
4901784	29	C	04/20/2016	10:45	-132.034	44.661	0	1909.50	0	1.9860	0	34.5660	0	27.635	0	1885.447	0	54.1	4	16.3	4	-1E+10	1	-1E+10	1	-1E+10	1	-1E+10	1	-1E+10	1	-1E+10	1
4901784	29	C	04/20/2016	10:45	-132.034	44.661	0	1914.80	0	1.9820	0	34.5670	0	27.636	0	1890.657	0	54.4	4	16.4	4	-1E+10	1	-1E+10	1	-1E+10	1	-1E+10	1	-1E+10	1	-1E+10	1
4901784	29	C	04/20/2016	10:45	-132.034	44.661	0	1920.00	0	1.9790	0	34.5670	0	27.637	0	1895.768	0	54.7	4	16.5	4	-1E+10	1	-1E+10	1	-1E+10	1	-1E+10	1	-1E+10	1	-1E+10	1
4901784	29	C	04/20/2016	10:45	-132.034	44.661	0	1925.20	0	1.9750	0	34.5680	0	27.638	0	1900.879	0	55.0	4	16.6	4	-1E+10	1	-1E+10	1	-1E+10	1	-1E+10	1	-1E+10	1	-1E+10	1
4901784	29	C	04/20/2016	10:45	-132.034	44.661	0	1930.30	0	1.9710	0	34.5690	0	27.639	0	1905.892	0	55.3	4	16.7	4	-1E+10	1	-1E+10	1	-1E+10	1	-1E+10	1	-1E+10	1	-1E+10	1
4901784	29	C	04/20/2016	10:45	-132.034	44.661	0	1935.60	0	1.9660	0	34.5700	0	27.640	0	1911.101	0	55.7	4	16.8	4	-1E+10	1	-1E+10	1	-1E+10	1	-1E+10	1	-1E+10	1	-1E+10	1
4901784	29	C	04/20/2016	10:45	-132.034	44.661	0	1940.00	0	1.9630	0	34.5700	0	27.640	0	1915.426	0	56.0	4	16.9	4	-1E+10	1	-1E+10	1	-1E+10	1	-1E+10	1	-1E+10	1	-1E+10	1
4901784	29	C	04/20/2016	10:45	-132.034	44.661	0	1944.40	0	1.9580	0	34.5710	0	27.641	0	1919.750	0	56.3	4	17.0	4	-1E+10	1	-1E+10	1	-1E+10	1	-1E+10	1	-1E+10	1	-1E+10	1
4901784	29	C	04/20/2016	10:45	-132.034	44.661	0	1949.70	0	1.9560	0	34.5720	0	27.642	0	1924.959	0	56.5	4	17.0	4	-1E+10	1	-1E+10	1	-1E+10	1	-1E+10	1	-1E+10	1	-1E+10	1
4901784	29	C	04/20/2016	10:45	-132.034	44.661	0	1955.10	0	1.9550	0	34.5720	0	27.643	0	1930.266	0	56.7	4	17.1	4	-1E+10	1	-1E+10	1	-1E+10	1	-1E+10	1	-1E+10	1	-1E+10	1
4901784	29	C	04/20/2016	10:45	-132.034	44.661	0	1960.60	0	1.9530	0	34.5720	0	27.643	0	1935.671	0	56.9	4	17.1	4	-1E+10	1	-1E+10	1	-1E+10	1	-1E+10	1	-1E+10	1	-1E+10	1
4901784	29	C	04/20/2016	10:45	-132.034	44.661	0	1965.10	0	1.9510	0	34.5730	0	27.644	0	1940.093	0	57.1	4	17.2	4	-1E+10	1	-1E+10	1	-1E+10	1	-1E+10	1	-1E+10	1	-1E+10	1
4901784	29	C	04/20/2016	10:45	-132.034	44.661	0	1969.50	0	1.9500	0	34.5730	0	27.644	0	1944.417	0	57.3	4	17.2	4	-1E+10	1	-1E+10	1	-1E+10	1	-1E+10	1	-1E+10	1	-1E+10	1
4901784	29	C	04/20/2016	10:45	-132.034	44.661	0	1975.00	0	1.9480	0	34.5740	0	27.645	0	1949.822	0	57.4	4	17.3	4	-1E+10	1	-1E+10	1	-1E+10	1	-1E+10	1	-1E+10	1	-1E+10	1
4901784	29	C	04/20/2016	10:45	-132.034	44.661	0	1980.50	0	1.9470	0	34.5740	0	27.645	0	1955.227	0	57.6	4	17.4	4	-1E+10	1	-1E+10	1	-1E+10	1	-1E+10	1	-1E+10	1	-1E+10	1
4901784	29	C	04/20/2016	10:45	-132.034	44.661	0	1985.00	0	1.9450	0	34.5740	0	27.645	0	1959.649	0	57.9	4	17.4	4	-1E+10	1	-1E+10	1	-1E+10	1	-1E+10	1	-1E+10	1	-1E+10	1
4901784	29	C	04/20/2016	10:45	-132.034	44.661	0	1989.60	0	1.9410	0	34.5750	0	27.646	0	1964.169	0	58.1	4	17.5	4	-1E+10	1	-1E+10	1	-1E+10	1	-1E+10	1	-1E+10	1	-1E+10	1
4901784	29	C	04/20/2016	10:45	-132.034	44.661	0	1995.00	0	1.9380	0	34.5760	0	27.647	0	1969.475	0	58.3	4	17.5	4	-1E+10	1	-1E+10	1	-1E+10	1	-1E+10	1	-1E+10	1	-1E+10	1
4901784	29	C	04/20/2016	10:45	-132.034	44.661	0	2000.60	0	1.9370	0	34.5760	0	27.647	0	1974.977	0	58.5	4	17.6	4	-1E+10	1	-1E+10	1	-1E+10	1	-1E+10	1	-1E+10	1	-1E+10	1
4901784	29	C	04/20/2016	10:45	-132.034	44.661	0	2005.50	0	1.9330	0	34.5760	0	27.648	0	1979.792	0	58.8	4	17.7	4	-1E+10	1	-1E+10	1	-1E+10	1	-1E+10	1	-1E+10	1	-1E+10	1
4901784	29	C	04/20/2016	10:45	-132.034	44.661	0	2010.50	0	1.9310	0	34.5770	0	27.649	0	1984.704	0	58.9	4	17.7	4	-1E+10	1	-1E+10	1	-1E+10	1	-1E+10	1	-1E+10	1	-1E+10	1
4901784	29	C	04/20/2016	10:45	-132.034	44.661	0	2015.30	0	1.9290	0	34.5770	0	27.649	0	1989.420	0	59.2	4	17.8	4	-1E+10	1	-1E+10	1	-1E+10	1	-1E+10	1	-1E+10	1	-1E+10	1
4901784	29	C	04/20/2016	10:45	-132.034	44.661	0	2020.10	0	1.9250	0	34.5780	0	27.650	0	1994.136	0	59.4	4	17.9	4	-1E+10	1	-1E+10	1	-1E+10	1	-1E+10	1	-1E+10	1	-1E+10	1
4901784	29	C	04/20/2016	10:45	-132.034	44.661	0																										
4901784	30	C	04/30/2016	10:52	-132.006	44.688	0	2.00	0	11.2010	0	32.7490	0	24.988	0	1.984	0	278.1	4	102.2	4	-1E+10	1	-1E+10	1	-1E+10	1	-1E+10	1	-1E+10	1	-1E+10	1
4901784	30	C	04/30/2016	10:52	-132.006	44.688	0	3.40	0	11.2040	0	32.7480	0	24.987	0	3.372	0	278.2	4	102.3	4	-1E+10	1	-1E+10	1	-1E+10	1	-1E+10	1	-1E+10	1	-1E+10	1
4901784	30	C	04/30/2016	10:52	-132.006	44.688	0	5.00	0	11.1370	0	32.7460	0	24.997	0	4.959	0	278.7	4	102.3	4	-1E+10	1	-1E+10	1	-1E+10	1	-1E+10	1	-1E+10	1	-1E+10	1
4901784	30	C	04/30/2016	10:52	-132.006	44.688	0	6.50	0	11.0940	0	32.7520	0	25.009	0	6.447	0	279.0	4	102.3	4	-1E+10	1	-1E+10	1	-1E+10	1	-1E+10	1	-1E+10	1	-1E+10	1
4901784	30	C	04/30/2016	10:52	-132.006	44.688	0	8.10	0	11.0060	0	32.7480	0	25.022	0	8.034	0	278.9	4	102.1	4	-1E+10	1	-1E+10	1	-1E+10	1	-1E+10	1	-1E+10	1	-1E+10	1
4901784	30	C	04/30/2016	10:52	-132.006	44.688	0	9.70	0	10.9590	0	32.7470	0	25.029	0	9.621	0	279.4	4	102.2	4	-1E+10	1	-1E+10	1	-1E+10	1	-1E+10	1	-1E+10	1	-1E+10	1
4901784	30	C	04/30/2016	10:52	-132.006	44.688	0	11.30	0	10.9470	0	32.7470	0	25.032	0	11.208	0	279.1	4	102.1	4	-1E+10	1	-1E+10	1	-1E+10	1	-1E+10	1	-1E+10	1	-1E+10	1
4901784	30	C	04/30/2016	10:52	-132.006	44.688	0	13.10	0	10.9270	0	32.7480	0	25.036	0	12.994	0	278.5	4	101.8	4	-1E+10	1	-1E+10	1	-1E+10	1	-1E+10	1	-1E+10	1	-1E+10	1
4901784	30	C	04/30/2016	10:52	-132.006	44.688	0	14.70	0	10.9200	0	32.7480	0	25.037	0	14.581	0	278.0	4	101.6	4	-1E+10	1	-1E+10	1	-1E+10	1	-1E+10	1	-1E+10	1	-1E+10	1
4901784	30	C	04/30/2016	10:52	-132.006	44.688	0	16.50	0	10.9120	0	32.7480	0	25.039	0	16.366	0	277.2	4	101.3	4	-1E+10	1	-1E+10	1	-1E+10	1	-1E+10	1	-1E+10	1	-1E+10	1
4901784	30	C	04/30/2016	10:52	-132.006	44.688	0	18.30	0	10.9080	0	32.7480	0	25.039	0	18.151	0	276.8	4	101.1	4	-1E+10	1	-1E+10	1	-1E+10	1	-1E+10	1	-1E+10	1	-1E+10	1
4901784	30	C	04/30/2016	10:52	-132.006	44.688	0	20.00	0	10.9020	0	32.7480	0	25.040	0	19.837	0	276.5	4	101.0	4	-1E+10	1	-1E+10	1	-1E+10	1	-1E+10	1	-1E+10	1	-1E+10	1
4901784	30	C	04/30/2016	10:52	-132.006	44.688	0	21.70	0	10.9010	0	32.7480	0	25.041	0	21.523	0	276.3	4	100.9	4	-1E+10	1	-1E+10	1	-1E+10	1	-1E+10	1	-1E+10	1	-1E+10	1
4901784	30	C	04/30/2016	10:52	-132.006	44.688	0	23.50	0	10.9020	0	32.7470	0	25.040	0	23.309	0	275.9	4	100.8	4	-1E+10	1	-1E+10	1	-1E+10	1	-1E+10	1	-1E+10	1	-1E+10	1
4901784	30	C	04/30/2016	10:52	-132.006	44.688	0	25.20	0	10.9020	0	32.7470	0	25.040	0	24.995	0	275.7	4	100.7	4	-1E+10	1	-1E+10	1	-1E+10	1	-1E+10	1	-1E+10	1	-1E+10	1
4901784	30	C	04/30/2016	10:52	-132.006	44.688	0	26.90	0	10.8980	0	32.7470	0	25.040	0	26.681	0	275.1	4	100.5	4	-1E+10	1	-1E+10	1	-1E+10	1	-1E+10	1	-1E+10	1	-1E+10	1
4901784	30	C	04/30/2016	10:52	-132.006	44.688	0	28.70	0	10.8940	0	32.7460	0	25.040	0	28.466	0	274.5	4	100.3	4	-1E+10	1	-1E+10	1	-1E+10	1	-1E+10	1	-1E+10	1	-1E+10	1
4901784	30	C	04/30/2016	10:52	-132.006	44.688	0	30.40	0	10.8910	0	32.7460	0	25.041	0	30.152	0	273.7	4	100.0	4	-1E+10	1	-1E+10	1	-1E+10	1	-1E+10	1	-1E+10	1	-1E+10	1
4901784	30	C	04/30/2016	10:52	-132.006	44.688	0	32.10	0	10.8850	0	32.7450	0	25.041	0	31.838	0	273.0	4	99.7	4	-1E+10	1	-1E+10	1	-1E+10	1	-1E+10	1	-1E+10	1	-1E+10	1
4901784	30	C	04/30/2016	10:52	-132.006	44.688	0	33.90	0	10.8830	0	32.7430	0	25.040	0	33.623	0	272.0	4	99.3	4	-1E+10	1	-1E+10	1	-1E+10	1	-1E+10	1	-1E+10	1	-1E+10	1
4901784	30	C	04/30/2016	10:52	-132.006	44.688	0	35.40	0	10.8790	0	32.7400	0	25.039	0	35.111	0	270.6	4	98.8	4	-1E+10	1	-1E+10	1	-1E+10	1	-1E+10	1	-1E+10	1	-1E+10	1
4901784	30	C	04/30/2016	10:52	-132.006	44.688	0	37.10	0	10.8510	0	32.7350	0	25.040	0	36.797	0	268.8	4	98.1	4	-1E+10	1	-1E+10	1	-1E+10	1	-1E+10	1	-1E+10	1	-1E+10	1
4901784	30	C	04/30/2016	10:52	-132.006	44.688	0	38.70	0	10.6580	0	32.7520	0	25.086	0	38.383	0	267.8	4	97.3	4	-1E+10	1	-1E+10	1	-1E+10	1	-1E+10	1	-1E+10	1	-1E+10	1
4901784	30	C	04/30/2016	10:52	-132.006	44.688	0	40.50	0	10.2620	0	32.7810	0	25.177	0	40.168	0	267.9	4	96.6	4	-1E+10	1	-1E+10	1	-1E+10	1	-1E+10	1	-1E+10	1	-1E+10	1
4901784	30	C	04/30/2016	10:52	-132.006	44.688	0	42.30	0	10.0870	0	32.7390	0	25.174	0	41.954	0	269.6	4	96.8	4	-1E+10	1	-1E+10	1	-1E+10	1	-1E+10	1	-1E+10	1	-1E+10	1
4901784	30	C	04/30/2016	10:52	-132.006	44.688	0	44.10	0	10.0610	0	32.7450	0	25.183	0	43.739	0	269.0	4	96.5	4	-1E+10	1	-1E+10	1	-1E+10	1	-1E+10	1	-1E+10	1	-1E+10	1
4901784	30	C	04/30/2016	10:52	-132.006	44.688	0	45.90	0	10.0410	0	32.7450	0	25.186	0	45.524	0	268.7	4	96.4	4	-1E+10	1	-1E+10	1	-1E+10	1	-1E+10	1	-1E+10	1	-1E+10	1
4901784	30	C	04/30/2016	10:52	-132.006	44.688	0	47.60	0	10.0610	0	32.7560	0	25.191	0	47.210	0	268.1	4	96.2	4	-1E+10	1	-1E+10	1	-1E+10	1	-1E+10	1	-1E+10	1	-1E+10	1
4901784	30	C	04/30/2016	10:52	-132.006	44.688	0	49.50	0	10.1560	0	32.7700	0	25.186	0	49.094	0	267.2	4	96.1	4	-1E+10	1	-1E+10	1	-1E+10	1	-1E+10	1	-1E+10	1	-1E+10	1
4901784	30	C	04/30/2016	10:52	-132.006	44.688	0	51.20	0	9.9810	0	32.7520	0	25.201	0	50.780	0	267.2	4	95.7	4	-1E+10	1	-1E+10	1	-1E+10	1	-1E+10	1	-1E+10	1	-1E+10	1
4901784	30	C	04/30/2016	10:52	-132.006	44.688	0	53.10	0	9.8880	0	32.7510	0	25.216	0	52.664	0	267.7	4	95.7	4	-1E+10	1	-1E+10	1	-1E+10	1	-1E+10	1	-1E+10	1	-1E+10	1
4901784	30	C	04/30/2016	10:52	-132.006	44.688	0	54.80	0	9.8730	0	32.7530	0	25.220	0	54.350	0	267.0	4	95.4	4	-1E+10	1	-1E+10	1	-1E+10	1	-1E+10	1	-1E+10	1	-1E+10	1
4901784	30	C	04/30/2016	10:52	-132.006	44.688	0	56.60	0	9.8580	0	32.7530	0	25.223	0	56.134	0	266.2	4	95.1	4	-1E+10	1	-1E+10	1	-1E+10	1	-1E+10	1	-1E+10	1	-1E+10	1
4901784	30	C	04/30/2016	10:52	-132.006	44.688	0	58.40	0	9.8300	0	32.7540	0	25.228	0	57.919	0	264.7	4	94.5	4	-1E+10	1	-1E+10	1	-1E+10	1	-1E+10	1	-1E+10	1	-1E+10	1
4901784	30	C	04/30/2016	10:52	-132.006	44.688	0	60.20	0	9.8060	0	32.7530	0	25.231	0	59.704	0	263.2	4	93.9	4	-1E+10	1	-1E+10	1	-1E+10	1	-1E+10	1	-1E+10	1	-1E+10	1
4901784	30	C	04/30/2016	10:52	-132.006	44.688	0	62.00	0	9.7630	0	32.7570	0	25.242	0	61.489	0	261.3	4	93.2	4	-1E+10	1	-1E+10	1	-1E+10	1	-1E+10	1	-1E+10	1	-1E+10	1
4901784	30	C	04/30/2016	10:52	-132.006	44.688	0	63.80	0	9.7160	0	32.7630	0	25.254	0	63.274	0	259.6	4	92.5	4	-1E+10	1	-1E+10	1	-1E+10	1	-1E+10	1	-1E+10	1	-1E+10	1
4901784	30	C	04/30/2016	10:52	-132.006	44.688	0	65.60	0	9.6810	0	32.7710	0	25.266	0	65.059	0	257.6	4	91.7	4	-1E+10	1	-1E+10	1	-1E+10	1	-1E+10	1	-1E+10	1	-1E+10	1
4901784	30	C	04/30/2016	10:52	-132.006	44.688	0	68.00	0	9.6130	0	32.8050	0	25.304	0	67.439	0	255.3	4	90.7	4	-1E+10	1	-1E+10	1	-1E+10	1	-1E+10	1	-1E+10	1	-1E+10	1
4901784	30	C	04/30/2016	10:52	-132.006	44.688	0	69.80	0	9.6090	0	32.8080	0	25.307	0	69.224	0	253.4	4	90.1	4	-1E+10	1	-1E+10	1	-1E+10	1	-1E+10	1	-1E+10	1	-1E+10	1
4901784	30	C	04/30/2016	10:52	-132.006	44.688	0	71.40	0	9.7420	0	32.8680	0	25.332	0	70.810	0	251.5	4	89.7	4	-1E+10	1	-1E+10	1	-1E+10	1	-1E+10	1	-1E+10	1	-1E+10	1
4901784	30	C	04/30/2016	10:52	-132.006	44.688	0	72.90	0	9.7330	0	32.8750	0	25.339	0	72.298	0	249.2	4	88.9	4	-1E+10	1	-1E+10	1	-1E+10	1	-1E+10	1	-1E+10	1	-1E+10	1
4901784	30	C	04/30/2016	10:52	-132.006	44.688	0	74.40	0	9.7500	0	32.8910	0	25.349	0	73.785	0	247.0	4	88.1	4	-1E+10	1	-1E+10	1	-1E+10	1	-1E+10	1	-1E+10	1	-1E+10	1
4901784	30	C	04/30/2016	10:52	-132.006	44.688	0	76.00	0	9.8260	0	32.9210	0	25.360	0	75.371	0	244.9	4	87.5	4	-1E+10	1	-1E+10	1	-1E+10	1	-1E+10	1	-1E+10	1	-1E+10	1
4901784	30	C	04/30/2016	10:52	-132.006	44.688	0	77.50	0	9.8280	0	32.9280	0	25.365	0	76.859	0	242.2	4	86.6	4	-1E+10	1	-1E+10	1	-1E+10	1	-1E+10	1	-1E+10	1	-1E+10	1
4901784	30	C	04/30/2016	10:52	-132.006	44.688	0	79.10	0	9.8420	0	32.9440	0	25.375	0	78.445	0	239.3	4	85.6	4	-1E+10	1	-1E+10	1	-1E+10	1	-1E+10	1	-1E+10	1	-1E+10	1
4901784	30	C	04/30/2016	10:52	-132.006	44.688	0	80.80	0	9.7710	0	32.9740	0	25.410	0	80.131	0	236.7	4	84.5	4	-1E+10	1	-1E+10	1	-1E+10	1	-1E+10	1	-1E+10	1	-1E+10	1
4901784	30	C	04/30/2016	10:52	-132.006	44.688	0	82.40	0	9.6800	0	32.9940	0	25.441	0	81.717	0	234.1	4	83.5	4	-1E+10	1	-1E+10	1	-1E+10	1	-1E+10	1	-1E+10	1	-1E+10	1
4901784	30	C	04/30/2016	10:52	-132.006	44.688	0	83.90	0	9.6710	0	33.0270	0	25.468	0	83.204	0	231.5	4	82.5	4	-1E+10	1	-1E+10	1	-1E+10	1	-1E+10	1	-1E+10	1	-1E+10	1
4901784	30	C	04/30/2016	10:52	-132.006	44.688	0	85.50	0	9.5810	0	33.0640	0	25.511	0	84.791	0	229.3	4	81.6	4	-1E+10	1	-1E+10	1	-1E+10	1	-1E+10	1	-1E+10	1	-1E+10	1
4901784	30	C	04/30/2016	10:52	-132.006	44.688	0	87.20	0	9.5720	0	33.0680	0	25.516	0	86.476	0	227.7	4	81.0	4	-1E+10	1	-1E+10	1	-1E+10	1	-1E+10	1	-1E+10	1	-1E+10	1
4901784	30	C	04/30/2016	10:52	-132.006	44.688	0	88.90	0	9.5500	0	33.0770	0	25.527	0	88.162	0	225.7	4	80.3	4	-1E+10	1	-1E+10	1	-1E+10	1	-1E+10	1	-1E+10	1	-1E+10	1
4901784	30	C	04/30/2016	10:52	-132.006	44.688	0	90.50	0	9.5220	0	33.0850	0	25.538	0	89.748	0	223.2	4	79.3	4	-1E+10	1	-1E+10	1	-1E+10	1	-1E+10	1	-1E+10	1	-1E+10	1
4901784	30	C	04/30/2016	10:52	-132.006	44.688	0	92.10	0	9.4450	0	33.1310	0	25.586	0	91.335	0	220.5	4	78.3	4	-1E+10	1	-1E+10	1	-1E+10	1	-1E+10	1	-1E+10	1	-1E+10	1
4901784	30	C	04/30/2016	10:52	-132.006	44.688	0	93.90	0	9.3010	0	33.1680	0	25.638	0	93.119	0	218.6	4	77.4	4	-1E+10	1	-1E+10	1	-1E+10	1	-1E+10	1	-1E+10	1	-1E+10	1
4901784	30	C	04/30/2016	10:52	-132.006	44.688	0	95.60	0	9.1930	0	33.2020	0	25.682	0	94.805	0	217.1	4	76.7	4	-1E+10	1	-1E+10	1	-1E+10	1	-1E+10	1	-1E+10	1	-1E+10	1
4901784	30	C	04/30/2016	10:52	-132.006	44.688	0	98.00	0	9.1530	0	33.2150	0	25.698	0	97.184	0	214.9	4	75.8	4	-1E+10	1	-1E+10	1	-1E+10	1	-1E+10	1	-1E+10	1	-1E+10	1
4901784	30	C	04/30/2016	10:52	-132.006	44.688	0	99.80	0	9.0460	0	33.2670	0	25.756	0	98.969	0	212.8	4	75.0	4	-1E+10	1	-1E+10	1	-1E+10	1	-1E+10	1	-1E+10	1	-1E+10	1
4901784	30	C	04/30/2016	10:52	-132.006	44.688	0	102.20	0	8.9500	0	33.3060	0	25.802	0	101.348	0	210.4	4	74.0	4	-1E+10	1	-1E+10	1	-1E+10	1	-1E+10	1	-1E+10	1	-1E+10	1
4901784	30	C	04/30/2016	10:52	-132.006	44.688	0	105.40	0	8.8350	0	33.3620	0	25.863	0	104.521	0	207.7	4	72.9	4	-1E+10	1	-1E+10	1	-1E+10	1	-1E+10	1	-1E+10	1	-1E+10	1
4901784	30	C	04/30/2016	10:52	-132.006	44.688	0	107.70	0	8.7910	0	33.3940	0	25.895	0	106.801	0	206.6	4	72.4	4	-1E+10	1	-1E+10	1	-1E+10	1	-1E+10	1	-1E+10	1	-1E+10	1
4901784	30	C	04/30/2016	10:52	-132.006	44.688	0	110.20	0	8.7810	0	33.4000	0	25.902	0	109.279	0	205.2	4	71.9	4	-1E+10	1	-1E+10	1	-1E+10	1	-1E+10	1	-1E+10	1	-1E+10	1
4901784	30	C	04/30/2016	10:52	-132.006	44.688	0	112.50	0	8.7440	0	33.4290	0	25.930	0	111.560	0	203.6	4	71.3	4	-1E+10	1	-1E+10	1	-1E+10	1	-1E+10	1	-1E+10	1	-1E+10	1
4901784	30	C	04/30/2016	10:52	-132.006	44.688	0	115.00	0	8.7170	0	33.4500	0	25.951	0	114.038	0	202.2	4	70.8	4	-1E+10	1	-1E+10	1	-1E+10	1	-1E+10	1	-1E+10	1	-1E+10	1
4901784	30	C	04/30/2016	10:52	-132.006	44.688	0	117.30	0	8.6930	0	33.4660	0	25.967	0	116.318	0	200.8	4	70.3	4	-1E+10	1	-1E+10	1	-1E+10	1	-1E+10	1	-1E+10	1	-1E+10	1
4901784	30	C	04/30/2016	10:52	-132.006	44.688	0	119.90	0	8.6530	0	33.4930	0	25.994	0	118.896	0	198.5	4	69.4	4	-1E+10	1	-1E+10	1	-1E+10	1	-1E+10	1	-1E+10	1	-1E+10	1
4901784	30	C	04/30/2016	10:52	-132.006	44.688	0	122.40	0	8.5940	0	33.5280	0	26.031	0	121.374	0	196.4	4	68.6	4	-1E+10	1	-1E+10	1	-1E+10	1	-1E+10	1	-1E+10	1	-1E+10	1
4901784	30	C	04/30/2016	10:52	-132.006	44.688	0	125.00	0	8.5340	0	33.5600	0	26.065	0	123.951	0	195.3	4	68.2	4	-1E+10	1	-1E+10	1	-1E+10	1	-1E+10	1	-1E+10	1	-1E+10	1
4901784	30	C	04/30/2016	10:52	-132.006	44.688	0	127.50	0	8.5130	0	33.5720	0	26.078	0	126.430	0	194.6	4	67.9	4	-1E+10	1	-1E+10	1	-1E+10	1	-1E+10	1	-1E+10	1	-1E+10	1
4901784	30	C	04/30/2016	10:52	-132.006	44.688	0	130.10	0	8.4880	0	33.5990	0	26.103	0	129.007	0	193.9	4	67.6	4	-1E+10	1	-1E+10	1	-1E+10	1	-1E+10	1	-1E+10	1	-1E+10	1
4901784	30	C	04/30/2016	10:52	-132.006	44.688	0	132.70	0	8.4580	0	33.6250	0	26.128	0	131.584	0	193.4	4	67.4	4	-1E+10	1	-1E+10	1	-1E+10	1	-1E+10	1	-1E+10	1	-1E+10	1
4901784	30	C	04/30/2016	10:52	-132.006	44.688	0	135.40	0	8.4210	0	33.6470	0	26.151	0	134.261	0	193.1	4	67.3	4	-1E+10	1	-1E+10	1	-1E+10	1	-1E+10	1	-1E+10	1	-1E+10	1
4901784	30	C	04/30/2016	10:52	-132.006	44.688	0	138.00	0	8.3940	0	33.6630	0	26.167	0	136.838	0	192.7	4	67.1	4	-1E+10	1	-1E+10	1	-1E+10	1	-1E+10	1	-1E+10	1	-1E+10	1
4901784	30	C	04/30/2016	10:52	-132.006	44.688	0	139.80	0	8.3760	0	33.6800	0	26.184	0	138.622	0	192.3	4	66.9	4	-1E+10	1	-1E+10	1	-1E+10	1	-1E+10	1	-1E+10	1	-1E+10	1
4901784	30	C	04/30/2016	10:52	-132.006	44.688	0	142.60	0	8.3350	0	33.7030	0	26.208	0	141.398	0	191.1	4	66.5	4	-1E+10	1	-1E+10	1	-1E+10	1	-1E+10	1	-1E+10	1	-1E+10	1
4901784	30	C	04/30/2016	10:52	-132.006	44.688	0	145.30	0	8.2690	0	33.7340	0	26.242	0	144.074	0	189.5	4	65.8	4	-1E+10	1	-1E+10	1	-1E+10	1	-1E+10	1	-1E+10	1	-1E+10	1
4901784	30	C	04/30/2016	10:52	-132.006	44.688	0	147.20	0	8.2250	0	33.7550	0	26.265	0	145.957	0	189.0	4	65.6	4	-1E+10	1	-1E+10	1	-1E+10	1	-1E+10	1	-1E+10	1	-1E+10	1
4901784	30	C	04/30/2016	10:52	-132.006	44.688	0	150.00	0	8.1710	0	33.7780	0	26.291	0	148.733	0	188.1	4	65.2	4	-1E+10	1	-1E+10	1	-1E+10	1	-1E+10	1	-1E+10	1	-1E+10	1
4901784	30	C	04/30/2016	10:52	-132.006	44.688	0	152.70	0	8.1390	0	33.7900	0	26.306	0	151.409	0	187.4	4	65.0	4	-1E+10	1	-1E+10	1	-1E+10	1	-1E+10	1	-1E+10	1	-1E+10	1
4901784	30	C	04/30/2016	10:52	-132.006	44.688	0	154.50	0	8.1010	0	33.8040	0	26.322	0	153.193	0	187.0	4	64.8	4	-1E+10	1	-1E+10	1	-1E+10	1	-1E+10	1	-1E+10	1	-1E+10	1
4901784	30	C	04/30/2016	10:52	-132.006	44.688	0	157.30	0	8.0850	0	33.8100	0	26.329	0	155.968	0	186.2	4	64.5	4	-1E+10	1	-1E+10	1	-1E+10	1	-1E+10	1	-1E+10	1	-1E+10	1
4901784	30	C	04/30/2016	10:52	-132.006	44.688	0	160.10	0	8.0560	0	33.8180	0	26.340	0	158.743	0	185.3	4	64.1	4	-1E+10	1	-1E+10	1	-1E+10	1	-1E+10	1	-1E+10	1	-1E+10	1
4901784	30	C	04/30/2016	10:52	-132.006	44.688	0	162.00	0	8.0420	0	33.8200	0	26.344	0	160.627	0	184.6	4	63.9	4	-1E+10	1	-1E+10	1	-1E+10	1	-1E+10	1	-1E+10	1	-1E+10	1
4901784	30	C	04/30/2016	10:52	-132.006	44.688	0	164.80	0	8.0020	0	33.8280	0	26.356	0	163.402	0	183.3	4	63.3	4	-1E+10	1	-1E+10	1	-1E+10	1	-1E+10	1	-1E+10	1	-1E+10	1
4901784	30	C	04/30/2016	10:52	-132.006	44.688	0	167.60	0	7.9400	0	33.8360	0	26.371	0	166.177	0	182.1	4	62.9	4	-1E+10	1	-1E+10	1	-1E+10	1	-1E+10	1	-1E+10	1	-1E+10	1
4901784	30	C	04/30/2016	10:52	-132.006	44.688	0	169.50	0	7.9320	0	33.8350	0	26.372	0	168.060	0	181.5	4	62.6	4	-1E+10	1	-1E+10	1	-1E+10	1	-1E+10	1	-1E+10	1	-1E+10	1
4901784	30	C	04/30/2016	10:52	-132.006	44.688	0	172.30	0	7.8920	0	33.8430	0	26.384	0	170.835	0	180.3	4	62.2	4	-1E+10	1	-1E+10	1	-1E+10	1	-1E+10	1	-1E+10	1	-1E+10	1
4901784	30	C	04/30/2016	10:52	-132.006	44.688	0	175.10	0	7.8500	0	33.8460	0	26.392	0	173.610	0	178.9	4	61.6	4	-1E+10	1	-1E+10	1	-1E+10	1	-1E+10	1	-1E+10	1	-1E+10	1
4901784	30	C	04/30/2016	10:52	-132.006	44.688	0	176.90	0	7.7950	0	33.8540	0	26.407	0	175.394	0	178.1	4	61.3	4	-1E+10	1	-1E+10	1	-1E+10	1	-1E+10	1	-1E+10	1	-1E+10	1
4901784	30	C	04/30/2016	10:52	-132.006	44.688	0	179.80	0	7.7490	0	33.8530	0	26.413	0	178.268	0	176.9	4	60.8	4	-1E+10	1	-1E+10	1	-1E+10	1	-1E+10	1	-1E+10	1	-1E+10	1
4901784	30	C	04/30/2016	10:52	-132.006	44.688	0	183.10	0	7.6810	0	33.8570	0	26.426	0	181.538	0	175.8	4	60.3	4	-1E+10	1	-1E+10	1	-1E+10	1	-1E+10	1	-1E+10	1	-1E+10	1
4901784	30	C	04/30/2016	10:52	-132.006	44.688	0	185.00	0	7.6460	0	33.8590	0	26.432	0	183.421	0	175.4	4	60.2	4	-1E+10	1	-1E+10	1	-1E+10	1	-1E+10	1	-1E+10	1	-1E+10	1
4901784	30	C	04/30/2016	10:52	-132.006	44.688	0	187.40	0	7.6230	0	33.8650	0	26.440	0	185.800	0	174.8	4	59.9	4	-1E+10	1	-1E+10	1	-1E+10	1	-1E+10	1	-1E+10	1	-1E+10	1
4901784	30	C	04/30/2016	10:52	-132.006	44.688	0	189.70	0	7.6060	0	33.8650	0	26.443	0	188.079	0	173.9	4	59.6	4	-1E+10	1	-1E+10	1	-1E+10	1	-1E+10	1	-1E+10	1	-1E+10	1
4901784	30	C	04/30/2016	10:52	-132.006	44.688	0	192.10	0	7.5790	0	33.8650	0	26.447	0	190.458	0	172.6	4	59.1	4	-1E+10	1	-1E+10	1	-1E+10	1	-1E+10	1	-1E+10	1	-1E+10	1
4901784	30	C	04/30/2016	10:52	-132.006	44.688	0	195.30	0	7.5030	0	33.8680	0	26.460	0	193.629	0	170.6	4	58.3	4	-1E+10	1	-1E+10	1	-1E+10	1	-1E+10	1	-1E+10	1	-1E+10	1
4901784	30	C	04/30/2016	10:52	-132.006	44.688	0	197.70	0	7.4420	0	33.8700	0	26.470	0	196.007	0	169.7	4	57.9	4	-1E+10	1	-1E+10	1	-1E+10	1	-1E+10	1	-1E+10	1	-1E+10	1
4901784	30	C	04/30/2016	10:52	-132.006	44.688	0	200.10	0	7.4090	0	33.8690	0	26.474	0	198.385	0	168.5	4	57.5	4	-1E+10	1	-1E+10	1	-1E+10	1	-1E+10	1	-1E+10	1	-1E+10	1
4901784	30	C	04/30/2016	10:52	-132.006	44.688	0	202.60	0	7.3570	0	33.8710	0	26.483	0	200.863	0	167.3	4	57.0	4	-1E+10	1	-1E+10	1	-1E+10	1	-1E+10	1	-1E+10	1	-1E+10	1
4901784	30	C	04/30/2016	10:52	-132.006	44.688	0	204.90	0	7.3240	0	33.8700	0	26.487	0	203.142	0	166.4	4	56.7	4	-1E+10	1	-1E+10	1	-1E+10	1	-1E+10	1	-1E+10	1	-1E+10	1
4901784	30	C	04/30/2016	10:52	-132.006	44.688	0	207.30	0	7.3070	0	33.8710	0	26.490	0	205.520	0	165.4	4	56.3	4	-1E+10	1	-1E+10	1	-1E+10	1	-1E+10	1	-1E+10	1	-1E+10	1
4901784	30	C	04/30/2016	10:52	-132.006	44.688	0	209.80	0	7.2600	0	33.8700	0	26.496	0	207.997	0	164.3	4	55.8	4	-1E+10	1	-1E+10	1	-1E+10	1	-1E+10	1	-1E+10	1	-1E+10	1
4901784	30	C	04/30/2016	10:52	-132.006	44.688	0	212.10	0	7.2310	0	33.8700	0	26.500	0	210.276	0	163.0	4	55.4	4	-1E+10	1	-1E+10	1	-1E+10	1	-1E+10	1	-1E+10	1	-1E+10	1
4901784	30	C	04/30/2016	10:52	-132.006	44.688	0	214.60	0	7.1870	0	33.8700	0	26.506	0	212.754	0	161.7	4	54.9	4	-1E+10	1	-1E+10	1	-1E+10	1	-1E+10	1	-1E+10	1	-1E+10	1
4901784	30	C	04/30/2016	10:52	-132.006	44.688	0	217.90	0	7.1450	0	33.8690	0	26.511	0	216.023	0	159.9	4	54.2	4	-1E+10	1	-1E+10	1	-1E+10	1	-1E+10	1	-1E+10	1	-1E+10	1
4901784	30	C	04/30/2016	10:52	-132.006	44.688	0	220.30	0	7.1060	0	33.8680	0	26.516	0	218.402	0	158.6	4	53.7	4	-1E+10	1	-1E+10	1	-1E+10	1	-1E+10	1	-1E+10	1	-1E+10	1
4901784	30	C	04/30/2016	10:52	-132.006	44.688	0	222.80	0	7.0610	0	33.8670	0	26.521	0	220.879	0	157.1	4	53.2	4	-1E+10	1	-1E+10	1	-1E+10	1	-1E+10	1	-1E+10	1	-1E+10	1
4901784	30	C	04/30/2016	10:52	-132.006	44.688	0	225.20	0	7.0140	0	33.8670	0	26.527	0	223.257	0	155.4	4	52.5	4	-1E+10	1	-1E+10	1	-1E+10	1	-1E+10	1	-1E+10	1	-1E+10	1
4901784	30	C	04/30/2016	10:52	-132.006	44.688	0	227.70	0	6.9580	0	33.8680	0	26.536	0	225.734	0	153.7	4	51.9	4	-1E+10	1	-1E+10	1	-1E+10	1	-1E+10	1	-1E+10	1	-1E+10	1
4901784	30	C	04/30/2016	10:52	-132.006	44.688	0	230.20	0	6.8850	0	33.8670	0	26.545	0	228.211	0	151.8	4	51.2	4	-1E+10	1	-1E+10	1	-1E+10	1	-1E+10	1	-1E+10	1	-1E+10	1
4901784	30	C	04/30/2016	10:52	-132.006	44.688	0	232.80	0	6.7880	0	33.8690	0	26.560	0	230.787	0	150.5	4	50.6	4	-1E+10	1	-1E+10	1	-1E+10	1	-1E+10	1	-1E+10	1	-1E+10	1
4901784	30	C	04/30/2016	10:52	-132.006	44.688	0	235.30	0	6.7600	0	33.8690	0	26.563	0	233.264	0	149.5	4	50.2	4	-1E+10	1	-1E+10	1	-1E+10	1	-1E+10	1	-1E+10	1	-1E+10	1
4901784	30	C	04/30/2016	10:52	-132.006	44.688	0	237.80	0	6.7200	0	33.8680	0	26.568	0	235.741	0	148.2	4	49.8	4	-1E+10	1	-1E+10	1	-1E+10	1	-1E+10	1	-1E+10	1	-1E+10	1
4901784	30	C	04/30/2016	10:52	-132.006	44.688	0	240.30	0	6.6710	0	33.8690	0	26.575	0	238.218	0	147.3	4	49.4	4	-1E+10	1	-1E+10	1	-1E+10	1	-1E+10	1	-1E+10	1	-1E+10	1
4901784	30	C	04/30/2016	10:52	-132.006	44.688	0	242.90	0	6.6340	0	33.8690	0	26.580	0	240.794	0	146.5	4	49.1	4	-1E+10	1	-1E+10	1	-1E+10	1	-1E+10	1	-1E+10	1	-1E+10	1
4901784	30	C	04/30/2016	10:52	-132.006	44.688	0	245.40	0	6.6110	0	33.8690	0	26.583	0	243.270	0	145.6	4	48.8	4	-1E+10	1	-1E+10	1	-1E+10	1	-1E+10	1	-1E+10	1	-1E+10	1
4901784	30	C	04/30/2016	10:52	-132.006	44.688	0	247.10	0	6.5750	0	33.8700	0	26.589	0	244.955	0	144.6	4	48.4	4	-1E+10	1	-1E+10	1	-1E+10	1	-1E+10	1	-1E+10	1	-1E+10	1
4901784	30	C	04/30/2016	10:52	-132.006	44.688	0	249.70	0	6.5230	0	33.8700	0	26.596	0	247.531	0	143.3	4	47.9	4	-1E+10	1	-1E+10	1	-1E+10	1	-1E+10	1	-1E+10	1	-1E+10	1
4901784	30	C	04/30/2016	10:52	-132.006	44.688	0	252.20	0	6.4950	0	33.8690	0	26.599	0	250.007	0	142.1	4	47.5	4	-1E+10	1	-1E+10	1	-1E+10	1	-1E+10	1	-1E+10	1	-1E+10	1
4901784	30	C	04/30/2016	10:52	-132.006	44.688	0	254.80	0	6.4630	0	33.8700	0	26.604	0	252.583	0	140.5	4	46.9	4	-1E+10	1	-1E+10	1	-1E+10	1	-1E+10	1	-1E+10	1	-1E+10	1
4901784	30	C	04/30/2016	10:52	-132.006	44.688	0	257.40	0	6.4240	0	33.8690	0	26.608	0	255.159	0	138.8	4	46.3	4	-1E+10	1	-1E+10	1	-1E+10	1	-1E+10	1	-1E+10	1	-1E+10	1
4901784	30	C	04/30/2016	10:52	-132.006	44.688	0	260.00	0	6.3920	0	33.8690	0	26.612	0	257.735	0	136.7	4	45.5	4	-1E+10	1	-1E+10	1	-1E+10	1	-1E+10	1	-1E+10	1	-1E+10	1
4901784	30	C	04/30/2016	10:52	-132.006	44.688	0	262.70	0	6.3220	0	33.8690	0	26.621	0	260.409	0	134.6	4	44.8	4	-1E+10	1	-1E+10	1	-1E+10	1	-1E+10	1	-1E+10	1	-1E+10	1
4901784	30	C	04/30/2016	10:52	-132.006	44.688	0	264.50	0	6.2710	0	33.8680	0	26.627	0	262.193	0	133.4	4	44.3	4	-1E+10	1	-1E+10	1	-1E+10	1	-1E+10	1	-1E+10	1	-1E+10	1
4901784	30	C	04/30/2016	10:52	-132.006	44.688	0	267.20	0	6.2100	0	33.8710	0	26.637	0	264.867	0	131.6	4	43.7	4	-1E+10	1	-1E+10	1	-1E+10	1	-1E+10	1	-1E+10	1	-1E+10	1
4901784	30	C	04/30/2016	10:52	-132.006	44.688	0	269.90	0	6.1850	0	33.8700	0	26.639	0	267.542	0	130.0	4	43.1	4	-1E+10	1	-1E+10	1	-1E+10	1	-1E+10	1	-1E+10	1	-1E+10	1
4901784	30	C	04/30/2016	10:52	-132.006	44.688	0	272.50	0	6.1530	0	33.8690	0	26.643	0	270.118	0	128.6	4	42.6	4	-1E+10	1	-1E+10	1	-1E+10	1	-1E+10	1	-1E+10	1	-1E+10	1
4901784	30	C	04/30/2016	10:52	-132.006	44.688	0	275.20	0	6.1230	0	33.8690	0	26.647	0	272.792	0	127.3	4	42.2	4	-1E+10	1	-1E+10	1	-1E+10	1	-1E+10	1	-1E+10	1	-1E+10	1
4901784	30	C	04/30/2016	10:52	-132.006	44.688	0	277.00	0	6.0860	0	33.8700	0	26.652	0	274.575	0	126.4	4	41.8	4	-1E+10	1	-1E+10	1	-1E+10	1	-1E+10	1	-1E+10	1	-1E+10	1
4901784	30	C	04/30/2016	10:52	-132.006	44.688	0	279.80	0	6.0400	0	33.8710	0	26.659	0	277.349	0	125.3	4	41.4	4	-1E+10	1	-1E+10	1	-1E+10	1	-1E+10	1	-1E+10	1	-1E+10	1
4901784	30	C	04/30/2016	10:52	-132.006	44.688	0	282.50	0	6.0070	0	33.8720	0	26.664	0	280.023	0	124.6	4	41.2	4	-1E+10	1	-1E+10	1	-1E+10	1	-1E+10	1	-1E+10	1	-1E+10	1
4901784	30	C	04/30/2016	10:52	-132.006	44.688	0	285.30	0	6.0010	0	33.8710	0	26.664	0	282.797	0	123.9	4	40.9	4	-1E+10	1	-1E+10	1	-1E+10	1	-1E+10	1	-1E+10	1	-1E+10	1
4901784	30	C	04/30/2016	10:52	-132.006	44.688	0	288.00	0	5.9980	0	33.8700	0	26.663	0	285.471	0	122.8	4	40.6	4	-1E+10	1	-1E+10	1	-1E+10	1	-1E+10	1	-1E+10	1	-1E+10	1
4901784	30	C	04/30/2016	10:52	-132.006	44.688	0	289.80	0	5.9820	0	33.8690	0	26.664	0	287.254	0	121.9	4	40.2	4	-1E+10	1	-1E+10	1	-1E+10	1	-1E+10	1	-1E+10	1	-1E+10	1
4901784	30	C	04/30/2016	10:52	-132.006	44.688	0	292.50	0	5.9230	0	33.8720	0	26.674	0	289.929	0	120.6	4	39.8	4	-1E+10	1	-1E+10	1	-1E+10	1	-1E+10	1	-1E+10	1	-1E+10	1
4901784	30	C	04/30/2016	10:52	-132.006	44.688	0	295.30	0	5.9040	0	33.8730	0	26.677	0	292.702	0	119.8	4	39.5	4	-1E+10	1	-1E+10	1	-1E+10	1	-1E+10	1	-1E+10	1	-1E+10	1
4901784	30	C	04/30/2016	10:52	-132.006	44.688	0	297.10	0	5.8990	0	33.8730	0	26.678	0	294.485	0	119.1	4	39.2	4	-1E+10	1	-1E+10	1	-1E+10	1	-1E+10	1	-1E+10	1	-1E+10	1
4901784	30	C	04/30/2016	10:52	-132.006	44.688	0	299.90	0	5.8920	0	33.8720	0	26.678	0	297.258	0	117.8	4	38.8	4	-1E+10	1	-1E+10	1	-1E+10	1	-1E+10	1	-1E+10	1	-1E+10	1
4901784	30	C	04/30/2016	10:52	-132.006	44.688	0	302.70	0	5.8620	0	33.8730	0	26.683	0	300.032	0	116.0	4	38.2	4	-1E+10	1	-1E+10	1	-1E+10	1	-1E+10	1	-1E+10	1	-1E+10	1
4901784	30	C	04/30/2016	10:52	-132.006	44.688	0	304.60	0	5.8280	0	33.8740	0	26.688	0	301.914	0	114.6	4	37.7	4	-1E+10	1	-1E+10	1	-1E+10	1	-1E+10	1	-1E+10	1	-1E+10	1
4901784	30	C	04/30/2016	10:52	-132.006	44.688	0	307.30	0	5.8050	0	33.8730	0	26.690	0	304.588	0	112.3	4	36.9	4	-1E+10	1	-1E+10	1	-1E+10	1	-1E+10	1	-1E+10	1	-1E+10	1
4901784	30	C	04/30/2016	10:52	-132.006	44.688	0	310.10	0	5.7680	0	33.8770	0	26.697	0	307.361	0	109.5	4	36.0	4	-1E+10	1	-1E+10	1	-1E+10	1	-1E+10	1	-1E+10	1	-1E+10	1
4901784	30	C	04/30/2016	10:52	-132.006	44.688	0	312.00	0	5.7530	0	33.8810	0	26.702	0	309.243	0	108.1	4	35.5	4	-1E+10	1	-1E+10	1	-1E+10	1	-1E+10	1	-1E+10	1	-1E+10	1
4901784	30	C	04/30/2016	10:52	-132.006	44.688	0	314.80	0	5.7360	0	33.8820	0	26.705	0	312.016	0	106.1	4	34.8	4	-1E+10	1	-1E+10	1	-1E+10	1	-1E+10	1	-1E+10	1	-1E+10	1
4901784	30	C	04/30/2016	10:52	-132.006	44.688	0	317.60	0	5.7130	0	33.8840	0	26.710	0	314.789	0	104.0	4	34.1	4	-1E+10	1	-1E+10	1	-1E+10	1	-1E+10	1	-1E+10	1	-1E+10	1
4901784	30	C	04/30/2016	10:52	-132.006	44.688	0	319.40	0	5.6780	0	33.8850	0	26.715	0	316.572	0	102.9	4	33.7	4	-1E+10	1	-1E+10	1	-1E+10	1	-1E+10	1	-1E+10	1	-1E+10	1
4901784	30	C	04/30/2016	10:52	-132.006	44.688	0	322.20	0	5.6610	0	33.8890	0	26.720	0	319.345	0	101.5	4	33.3	4	-1E+10	1	-1E+10	1	-1E+10	1	-1E+10	1	-1E+10	1	-1E+10	1
4901784	30	C	04/30/2016	10:52	-132.006	44.688	0	325.00	0	5.6300	0	33.8900	0	26.725	0	322.118	0	100.4	4	32.9	4	-1E+10	1	-1E+10	1	-1E+10	1	-1E+10	1	-1E+10	1	-1E+10	1
4901784	30	C	04/30/2016	10:52	-132.006	44.688	0	327.80	0	5.6160	0	33.8890	0	26.725	0	324.891	0	99.2	4	32.5	4	-1E+10	1	-1E+10	1	-1E+10	1	-1E+10	1	-1E+10	1	-1E+10	1
4901784	30	C	04/30/2016	10:52	-132.006	44.688	0	330.60	0	5.5890	0	33.8900	0	26.730	0	327.664	0	97.6	4	31.9	4	-1E+10	1	-1E+10	1	-1E+10	1	-1E+10	1	-1E+10	1	-1E+10	1
4901784	30	C	04/30/2016	10:52	-132.006	44.688	0	332.40	0	5.5790	0	33.8900	0	26.731	0	329.446	0	96.5	4	31.6	4	-1E+10	1	-1E+10	1	-1E+10	1	-1E+10	1	-1E+10	1	-1E+10	1
4901784	30	C	04/30/2016	10:52	-132.006	44.688	0	335.30	0	5.5310	0	33.8930	0	26.739	0	332.318	0	94.9	4	31.0	4	-1E+10	1	-1E+10	1	-1E+10	1	-1E+10	1	-1E+10	1	-1E+10	1
4901784	30	C	04/30/2016	10:52	-132.006	44.688	0	338.00	0	5.5050	0	33.8920	0	26.741	0	334.992	0	93.4	4	30.5	4	-1E+10	1	-1E+10	1	-1E+10	1	-1E+10	1	-1E+10	1	-1E+10	1
4901784	30	C	04/30/2016	10:52	-132.006	44.688	0	340.00	0	5.4720	0	33.8950	0	26.748	0	336.973	0	92.2	4	30.1	4	-1E+10	1	-1E+10	1	-1E+10	1	-1E+10	1	-1E+10	1	-1E+10	1
4901784	30	C	04/30/2016	10:52	-132.006	44.688	0	341.90	0	5.4400	0	33.8980	0	26.754	0	338.854	0	91.3	4	29.8	4	-1E+10	1	-1E+10	1	-1E+10	1	-1E+10	1	-1E+10	1	-1E+10	1
4901784	30	C	04/30/2016	10:52	-132.006	44.688	0	344.70	0	5.4300	0	33.8990	0	26.756	0	341.627	0	89.9	4	29.3	4	-1E+10	1	-1E+10	1	-1E+10	1	-1E+10	1	-1E+10	1	-1E+10	1
4901784	30	C	04/30/2016	10:52	-132.006	44.688	0	347.50	0	5.4090	0	33.9010	0	26.760	0	344.400	0	88.5	4	28.8	4	-1E+10	1	-1E+10	1	-1E+10	1	-1E+10	1	-1E+10	1	-1E+10	1
4901784	30	C	04/30/2016	10:52	-132.006	44.688	0	349.50	0	5.4080	0	33.9010	0	26.760	0	346.380	0	87.4	4	28.5	4	-1E+10	1	-1E+10	1	-1E+10	1	-1E+10	1	-1E+10	1	-1E+10	1
4901784	30	C	04/30/2016	10:52	-132.006	44.688	0	352.40	0	5.3880	0	33.9040	0	26.765	0	349.252	0	85.6	4	27.9	4	-1E+10	1	-1E+10	1	-1E+10	1	-1E+10	1	-1E+10	1	-1E+10	1
4901784	30	C	04/30/2016	10:52	-132.006	44.688	0	355.20	0	5.3660	0	33.9060	0	26.769	0	352.024	0	84.0	4	27.3	4	-1E+10	1	-1E+10	1	-1E+10	1	-1E+10	1	-1E+10	1	-1E+10	1
4901784	30	C	04/30/2016	10:52	-132.006	44.688	0	357.10	0	5.3600	0	33.9090	0	26.772	0	353.906	0	82.8	4	26.9	4	-1E+10	1	-1E+10	1	-1E+10	1	-1E+10	1	-1E+10	1	-1E+10	1
4901784	30	C	04/30/2016	10:52	-132.006	44.688	0	360.00	0	5.3290	0	33.9120	0	26.778	0	356.777	0	81.4	4	26.5	4	-1E+10	1	-1E+10	1	-1E+10	1	-1E+10	1	-1E+10	1	-1E+10	1
4901784	30	C	04/30/2016	10:52	-132.006	44.688	0	362.90	0	5.3130	0	33.9160	0	26.783	0	359.649	0	80.0	4	26.0	4	-1E+10	1	-1E+10	1	-1E+10	1	-1E+10	1	-1E+10	1	-1E+10	1
4901784	30	C	04/30/2016	10:52	-132.006	44.688	0	364.70	0	5.2970	0	33.9170	0	26.786	0	361.431	0	79.2	4	25.8	4	-1E+10	1	-1E+10	1	-1E+10	1	-1E+10	1	-1E+10	1	-1E+10	1
4901784	30	C	04/30/2016	10:52	-132.006	44.688	0	367.60	0	5.2810	0	33.9180	0	26.789	0	364.303	0	77.8	4	25.3	4	-1E+10	1	-1E+10	1	-1E+10	1	-1E+10	1	-1E+10	1	-1E+10	1
4901784	30	C	04/30/2016	10:52	-132.006	44.688	0	370.40	0	5.2690	0	33.9200	0	26.792	0	367.075	0	76.3	4	24.8	4	-1E+10	1	-1E+10	1	-1E+10	1	-1E+10	1	-1E+10	1	-1E+10	1
4901784	30	C	04/30/2016	10:52	-132.006	44.688	0	372.30	0	5.2600	0	33.9220	0	26.794	0	368.956	0	75.0	4	24.4	4	-1E+10	1	-1E+10	1	-1E+10	1	-1E+10	1	-1E+10	1	-1E+10	1
4901784	30	C	04/30/2016	10:52	-132.006	44.688	0	375.10	0	5.2500	0	33.9250	0	26.798	0	371.729	0	72.9	4	23.7	4	-1E+10	1	-1E+10	1	-1E+10	1	-1E+10	1	-1E+10	1	-1E+10	1
4901784	30	C	04/30/2016	10:52	-132.006	44.688	0	378.00	0	5.2230	0	33.9350	0	26.809	0	374.600	0	70.9	4	23.0	4	-1E+10	1	-1E+10	1	-1E+10	1	-1E+10	1	-1E+10	1	-1E+10	1
4901784	30	C	04/30/2016	10:52	-132.006	44.688	0	379.80	0	5.2150	0	33.9350	0	26.810	0	376.382	0	70.3	4	22.8	4	-1E+10	1	-1E+10	1	-1E+10	1	-1E+10	1	-1E+10	1	-1E+10	1
4901784	30	C	04/30/2016	10:52	-132.006	44.688	0	382.70	0	5.1980	0	33.9400	0	26.816	0	379.253	0	69.3	4	22.5	4	-1E+10	1	-1E+10	1	-1E+10	1	-1E+10	1	-1E+10	1	-1E+10	1
4901784	30	C	04/30/2016	10:52	-132.006	44.688	0	385.60	0	5.1970	0	33.9410	0	26.817	0	382.125	0	68.6	4	22.3	4	-1E+10	1	-1E+10	1	-1E+10	1	-1E+10	1	-1E+10	1	-1E+10	1
4901784	30	C	04/30/2016	10:52	-132.006	44.688	0	387.50	0	5.1910	0	33.9410	0	26.817	0	384.006	0	68.1	4	22.1	4	-1E+10	1	-1E+10	1	-1E+10	1	-1E+10	1	-1E+10	1	-1E+10	1
4901784	30	C	04/30/2016	10:52	-132.006	44.688	0	389.40	0	5.1870	0	33.9420	0	26.819	0	385.887	0	67.4	4	21.8	4	-1E+10	1	-1E+10	1	-1E+10	1	-1E+10	1	-1E+10	1	-1E+10	1
4901784	30	C	04/30/2016	10:52	-132.006	44.688	0	392.30	0	5.1850	0	33.9450	0	26.821	0	388.758	0	66.4	4	21.5	4	-1E+10	1	-1E+10	1	-1E+10	1	-1E+10	1	-1E+10	1	-1E+10	1
4901784	30	C	04/30/2016	10:52	-132.006	44.688	0	395.10	0	5.1790	0	33.9460	0	26.823	0	391.530	0	65.5	4	21.2	4	-1E+10	1	-1E+10	1	-1E+10	1	-1E+10	1	-1E+10	1	-1E+10	1
4901784	30	C	04/30/2016	10:52	-132.006	44.688	0	397.60	0	5.1750	0	33.9480	0	26.825	0	394.005	0	64.4	4	20.9	4	-1E+10	1	-1E+10	1	-1E+10	1	-1E+10	1	-1E+10	1	-1E+10	1
4901784	30	C	04/30/2016	10:52	-132.006	44.688	0	400.40	0	5.1640	0	33.9500	0	26.828	0	396.777	0	62.9	4	20.4	4	-1E+10	1	-1E+10	1	-1E+10	1	-1E+10	1	-1E+10	1	-1E+10	1
4901784	30	C	04/30/2016	10:52	-132.006	44.688	0	402.80	0	5.1380	0	33.9570	0	26.836	0	399.153	0	61.4	4	19.9	4	-1E+10	1	-1E+10	1	-1E+10	1	-1E+10	1	-1E+10	1	-1E+10	1
4901784	30	C	04/30/2016	10:52	-132.006	44.688	0	405.20	0	5.1210	0	33.9590	0	26.840	0	401.529	0	60.6	4	19.6	4	-1E+10	1	-1E+10	1	-1E+10	1	-1E+10	1	-1E+10	1	-1E+10	1
4901784	30	C	04/30/2016	10:52	-132.006	44.688	0	407.60	0	5.1040	0	33.9610	0	26.843	0	403.905	0	59.8	4	19.3	4	-1E+10	1	-1E+10	1	-1E+10	1	-1E+10	1	-1E+10	1	-1E+10	1
4901784	30	C	04/30/2016	10:52	-132.006	44.688	0	410.00	0	5.0970	0	33.9640	0	26.847	0	406.281	0	59.1	4	19.1	4	-1E+10	1	-1E+10	1	-1E+10	1	-1E+10	1	-1E+10	1	-1E+10	1
4901784	30	C	04/30/2016	10:52	-132.006	44.688	0	412.50	0	5.0840	0	33.9670	0	26.851	0	408.756	0	58.4	4	18.9	4	-1E+10	1	-1E+10	1	-1E+10	1	-1E+10	1	-1E+10	1	-1E+10	1
4901784	30	C	04/30/2016	10:52	-132.006	44.688	0	414.90	0	5.0850	0	33.9680	0	26.851	0	411.131	0	57.9	4	18.7	4	-1E+10	1	-1E+10	1	-1E+10	1	-1E+10	1	-1E+10	1	-1E+10	1
4901784	30	C	04/30/2016	10:52	-132.006	44.688	0	417.30	0	5.0800	0	33.9690	0	26.853	0	413.507	0	57.4	4	18.6	4	-1E+10	1	-1E+10	1	-1E+10	1	-1E+10	1	-1E+10	1	-1E+10	1
4901784	30	C	04/30/2016	10:52	-132.006	44.688	0	419.80	0	5.0600	0	33.9700	0	26.856	0	415.982	0	56.9	4	18.4	4	-1E+10	1	-1E+10	1	-1E+10	1	-1E+10	1	-1E+10	1	-1E+10	1
4901784	30	C	04/30/2016	10:52	-132.006	44.688	0	422.20	0	5.0410	0	33.9720	0	26.859	0	418.358	0	56.3	4	18.2	4	-1E+10	1	-1E+10	1	-1E+10	1	-1E+10	1	-1E+10	1	-1E+10	1
4901784	30	C	04/30/2016	10:52	-132.006	44.688	0	424.80	0	5.0140	0	33.9750	0	26.865	0	420.931	0	55.7	4	18.0	4	-1E+10	1	-1E+10	1	-1E+10	1	-1E+10	1	-1E+10	1	-1E+10	1
4901784	30	C	04/30/2016	10:52	-132.006	44.688	0	427.30	0	5.0230	0	33.9750	0	26.864	0	423.406	0	55.2	4	17.8	4	-1E+10	1	-1E+10	1	-1E+10	1	-1E+10	1	-1E+10	1	-1E+10	1
4901784	30	C	04/30/2016	10:52	-132.006	44.688	0	429.70	0	5.0040	0	33.9770	0	26.868	0	425.782	0	54.9	4	17.7	4	-1E+10	1	-1E+10	1	-1E+10	1	-1E+10	1	-1E+10	1	-1E+10	1
4901784	30	C	04/30/2016	10:52	-132.006	44.688	0	432.10	0	4.9820	0	33.9780	0	26.871	0	428.158	0	54.6	4	17.6	4	-1E+10	1	-1E+10	1	-1E+10	1	-1E+10	1	-1E+10	1	-1E+10	1
4901784	30	C	04/30/2016	10:52	-132.006	44.688	0	434.60	0	4.9600	0	33.9790	0	26.874	0	430.632	0	54.3	4	17.5	4	-1E+10	1	-1E+10	1	-1E+10	1	-1E+10	1	-1E+10	1	-1E+10	1
4901784	30	C	04/30/2016	10:52	-132.006	44.688	0	437.10	0	4.9470	0	33.9800	0	26.877	0	433.107	0	54.1	4	17.5	4	-1E+10	1	-1E+10	1	-1E+10	1	-1E+10	1	-1E+10	1	-1E+10	1
4901784	30	C	04/30/2016	10:52	-132.006	44.688	0	439.60	0	4.9160	0	33.9800	0	26.880	0	435.581	0	54.2	4	17.5	4	-1E+10	1	-1E+10	1	-1E+10	1	-1E+10	1	-1E+10	1	-1E+10	1
4901784	30	C	04/30/2016	10:52	-132.006	44.688	0	442.10	0	4.8940	0	33.9800	0	26.883	0	438.056	0	54.1	4	17.4	4	-1E+10	1	-1E+10	1	-1E+10	1	-1E+10	1	-1E+10	1	-1E+10	1
4901784	30	C	04/30/2016	10:52	-132.006	44.688	0	444.70	0	4.8750	0	33.9810	0	26.886	0	440.629	0	53.9	4	17.3	4	-1E+10	1	-1E+10	1	-1E+10	1	-1E+10	1	-1E+10	1	-1E+10	1
4901784	30	C	04/30/2016	10:52	-132.006	44.688	0	447.40	0	4.8560	0	33.9820	0	26.888	0	443.302	0	53.7	4	17.3	4	-1E+10	1	-1E+10	1	-1E+10	1	-1E+10	1	-1E+10	1	-1E+10	1
4901784	30	C	04/30/2016	10:52	-132.006	44.688	0	450.00	0	4.8500	0	33.9830	0	26.890	0	445.875	0	53.5	4	17.2	4	-1E+10	1	-1E+10	1	-1E+10	1	-1E+10	1	-1E+10	1	-1E+10	1
4901784	30	C	04/30/2016	10:52	-132.006	44.688	0	452.60	0	4.8430	0	33.9830	0	26.891	0	448.448	0	53.4	4	17.2	4	-1E+10	1	-1E+10	1	-1E+10	1	-1E+10	1	-1E+10	1	-1E+10	1
4901784	30	C	04/30/2016	10:52	-132.006	44.688	0	455.30	0	4.8340	0	33.9820	0	26.891	0	451.121	0	53.4	4	17.2	4	-1E+10	1	-1E+10	1	-1E+10	1	-1E+10	1	-1E+10	1	-1E+10	1
4901784	30	C	04/30/2016	10:52	-132.006	44.688	0	457.90	0	4.8100	0	33.9830	0	26.894	0	453.694	0	53.3	4	17.1	4	-1E+10	1	-1E+10	1	-1E+10	1	-1E+10	1	-1E+10	1	-1E+10	1
4901784	30	C	04/30/2016	10:52	-132.006	44.688	0	459.70	0	4.8020	0	33.9840	0	26.896	0	455.475	0	53.2	4	17.1	4	-1E+10	1	-1E+10	1	-1E+10	1	-1E+10	1	-1E+10	1	-1E+10	1
4901784	30	C	04/30/2016	10:52	-132.006	44.688	0	462.40	0	4.7940	0	33.9840	0	26.897	0	458.148	0	53.1	4	17.1	4	-1E+10	1	-1E+10	1	-1E+10	1	-1E+10	1	-1E+10	1	-1E+10	1
4901784	30	C	04/30/2016	10:52	-132.006	44.688	0	465.10	0	4.7890	0	33.9830	0	26.897	0	460.820	0	52.9	4	17.0	4	-1E+10	1	-1E+10	1	-1E+10	1	-1E+10	1	-1E+10	1	-1E+10	1
4901784	30	C	04/30/2016	10:52	-132.006	44.688	0	466.90	0	4.7860	0	33.9840	0	26.898	0	462.601	0	52.8	4	17.0	4	-1E+10	1	-1E+10	1	-1E+10	1	-1E+10	1	-1E+10	1	-1E+10	1
4901784	30	C	04/30/2016	10:52	-132.006	44.688	0	469.70	0	4.7750	0	33.9840	0	26.899	0	465.372	0	52.5	4	16.9	4	-1E+10	1	-1E+10	1	-1E+10	1	-1E+10	1	-1E+10	1	-1E+10	1
4901784	30	C	04/30/2016	10:52	-132.006	44.688	0	472.40	0	4.7620	0	33.9850	0	26.902	0	468.044	0	52.1	4	16.7	4	-1E+10	1	-1E+10	1	-1E+10	1	-1E+10	1	-1E+10	1	-1E+10	1
4901784	30	C	04/30/2016	10:52	-132.006	44.688	0	475.20	0	4.7460	0	33.9850	0	26.903	0	470.815	0	51.5	4	16.5	4	-1E+10	1	-1E+10	1	-1E+10	1	-1E+10	1	-1E+10	1	-1E+10	1
4901784	30	C	04/30/2016	10:52	-132.006	44.688	0	478.10	0	4.7340	0	33.9840	0	26.904	0	473.685	0	50.7	4	16.3	4	-1E+10	1	-1E+10	1	-1E+10	1	-1E+10	1	-1E+10	1	-1E+10	1
4901784	30	C	04/30/2016	10:52	-132.006	44.688	0	480.00	0	4.6950	0	33.9870	0	26.911	0	475.566	0	50.0	4	16.0	4	-1E+10	1	-1E+10	1	-1E+10	1	-1E+10	1	-1E+10	1	-1E+10	1
4901784	30	C	04/30/2016	10:52	-132.006	44.688	0	482.80	0	4.6700	0	33.9940	0	26.919	0	478.337	0	49.0	4	15.7	4	-1E+10	1	-1E+10	1	-1E+10	1	-1E+10	1	-1E+10	1	-1E+10	1
4901784	30	C	04/30/2016	10:52	-132.006	44.688	0	485.60	0	4.6600	0	33.9970	0	26.922	0	481.107	0	48.4	4	15.5	4	-1E+10	1	-1E+10	1	-1E+10	1	-1E+10	1	-1E+10	1	-1E+10	1
4901784	30	C	04/30/2016	10:52	-132.006	44.688	0	487.40	0	4.6520	0	33.9970	0	26.923	0	482.889	0	48.0	4	15.4	4	-1E+10	1	-1E+10	1	-1E+10	1	-1E+10	1	-1E+10	1	-1E+10	1
4901784	30	C	04/30/2016	10:52	-132.006	44.688	0	490.30	0	4.6350	0	33.9990	0	26.927	0	485.758	0	47.2	4	15.1	4	-1E+10	1	-1E+10	1	-1E+10	1	-1E+10	1	-1E+10	1	-1E+10	1
4901784	30	C	04/30/2016	10:52	-132.006	44.688	0	493.10	0	4.6510	0	34.0020	0	26.927	0	488.529	0	46.0	4	14.7	4	-1E+10	1	-1E+10	1	-1E+10	1	-1E+10	1	-1E+10	1	-1E+10	1
4901784	30	C	04/30/2016	10:52	-132.006	44.688	0	495.00	0	4.6470	0	34.0040	0	26.929	0	490.409	0	45.5	4	14.6	4	-1E+10	1	-1E+10	1	-1E+10	1	-1E+10	1	-1E+10	1	-1E+10	1
4901784	30	C	04/30/2016	10:52	-132.006	44.688	0	497.80	0	4.6290	0	34.0080	0	26.935	0	493.180	0	44.8	4	14.3	4	-1E+10	1	-1E+10	1	-1E+10	1	-1E+10	1	-1E+10	1	-1E+10	1
4901784	30	C	04/30/2016	10:52	-132.006	44.688	0	500.60	0	4.6030	0	34.0130	0	26.941	0	495.951	0	44.2	4	14.2	4	-1E+10	1	-1E+10	1	-1E+10	1	-1E+10	1	-1E+10	1	-1E+10	1
4901784	30	C	04/30/2016	10:52	-132.006	44.688	0	505.30	0	4.5850	0	34.0140	0	26.944	0	500.601	0	43.4	4	13.9	4	-1E+10	1	-1E+10	1	-1E+10	1	-1E+10	1	-1E+10	1	-1E+10	1
4901784	30	C	04/30/2016	10:52	-132.006	44.688	0	510.00	0	4.5710	0	34.0180	0	26.949	0	505.252	0	42.2	4	13.5	4	-1E+10	1	-1E+10	1	-1E+10	1	-1E+10	1	-1E+10	1	-1E+10	1
4901784	30	C	04/30/2016	10:52	-132.006	44.688	0	514.80	0	4.5610	0	34.0230	0	26.954	0	510.001	0	41.1	4	13.1	4	-1E+10	1	-1E+10	1	-1E+10	1	-1E+10	1	-1E+10	1	-1E+10	1
4901784	30	C	04/30/2016	10:52	-132.006	44.688	0	519.60	0	4.5360	0	34.0290	0	26.962	0	514.751	0	40.3	4	12.9	4	-1E+10	1	-1E+10	1	-1E+10	1	-1E+10	1	-1E+10	1	-1E+10	1
4901784	30	C	04/30/2016	10:52	-132.006	44.688	0	525.20	0	4.5100	0	34.0330	0	26.968	0	520.291	0	39.7	4	12.7	4	-1E+10	1	-1E+10	1	-1E+10	1	-1E+10	1	-1E+10	1	-1E+10	1
4901784	30	C	04/30/2016	10:52	-132.006	44.688	0	530.00	0	4.5040	0	34.0340	0	26.969	0	525.041	0	39.1	4	12.5	4	-1E+10	1	-1E+10	1	-1E+10	1	-1E+10	1	-1E+10	1	-1E+10	1
4901784	30	C	04/30/2016	10:52	-132.006	44.688	0	534.80	0	4.4850	0	34.0360	0	26.973	0	529.790	0	38.3	4	12.2	4	-1E+10	1	-1E+10	1	-1E+10	1	-1E+10	1	-1E+10	1	-1E+10	1
4901784	30	C	04/30/2016	10:52	-132.006	44.688	0	539.60	0	4.4650	0	34.0400	0	26.978	0	534.538	0	37.3	4	11.9	4	-1E+10	1	-1E+10	1	-1E+10	1	-1E+10	1	-1E+10	1	-1E+10	1
4901784	30	C	04/30/2016	10:52	-132.006	44.688	0	544.50	0	4.4640	0	34.0440	0	26.981	0	539.386	0	36.0	4	11.5	4	-1E+10	1	-1E+10	1	-1E+10	1	-1E+10	1	-1E+10	1	-1E+10	1
4901784	30	C	04/30/2016	10:52	-132.006	44.688	0	550.40	0	4.4550	0	34.0540	0	26.990	0	545.223	0	34.5	4	11.0	4	-1E+10	1	-1E+10	1	-1E+10	1	-1E+10	1	-1E+10	1	-1E+10	1
4901784	30	C	04/30/2016	10:52	-132.006	44.688	0	555.20	0	4.4550	0	34.0570	0	26.993	0	549.971	0	33.8	4	10.8	4	-1E+10	1	-1E+10	1	-1E+10	1	-1E+10	1	-1E+10	1	-1E+10	1
4901784	30	C	04/30/2016	10:52	-132.006	44.688	0	559.80	0	4.4570	0	34.0570	0	26.993	0	554.522	0	32.8	4	10.5	4	-1E+10	1	-1E+10	1	-1E+10	1	-1E+10	1	-1E+10	1	-1E+10	1
4901784	30	C	04/30/2016	10:52	-132.006	44.688	0	564.30	0	4.4540	0	34.0660	0	27.000	0	558.974	0	31.4	4	10.0	4	-1E+10	1	-1E+10	1	-1E+10	1	-1E+10	1	-1E+10	1	-1E+10	1
4901784	30	C	04/30/2016	10:52	-132.006	44.688	0	569.20	0	4.4560	0	34.0710	0	27.004	0	563.821	0	30.2	4	9.6	4	-1E+10	1	-1E+10	1	-1E+10	1	-1E+10	1	-1E+10	1	-1E+10	1
4901784	30	C	04/30/2016	10:52	-132.006	44.688	0	574.90	0	4.4680	0	34.0780	0	27.008	0	569.459	0	28.4	4	9.1	4	-1E+10	1	-1E+10	1	-1E+10	1	-1E+10	1	-1E+10	1	-1E+10	1
4901784	30	C	04/30/2016	10:52	-132.006	44.688	0	580.60	0	4.4840	0	34.0870	0	27.014	0	575.097	0	26.4	4	8.4	4	-1E+10	1	-1E+10	1	-1E+10	1	-1E+10	1	-1E+10	1	-1E+10	1
4901784	30	C	04/30/2016	10:52	-132.006	44.688	0	585.60	0	4.4750	0	34.0950	0	27.021	0	580.043	0	25.2	4	8.0	4	-1E+10	1	-1E+10	1	-1E+10	1	-1E+10	1	-1E+10	1	-1E+10	1
4901784	30	C	04/30/2016	10:52	-132.006	44.688	0	590.70	0	4.4600	0	34.1010	0	27.027	0	585.087	0	24.2	4	7.7	4	-1E+10	1	-1E+10	1	-1E+10	1	-1E+10	1	-1E+10	1	-1E+10	1
4901784	30	C	04/30/2016	10:52	-132.006	44.688	0	595.00	0	4.4460	0	34.1080	0	27.035	0	589.340	0	23.3	4	7.4	4	-1E+10	1	-1E+10	1	-1E+10	1	-1E+10	1	-1E+10	1	-1E+10	1
4901784	30	C	04/30/2016	10:52	-132.006	44.688	0	599.40	0	4.4380	0	34.1120	0	27.039	0	593.692	0	22.8	4	7.3	4	-1E+10	1	-1E+10	1	-1E+10	1	-1E+10	1	-1E+10	1	-1E+10	1
4901784	30	C	04/30/2016	10:52	-132.006	44.688	0	604.60	0	4.4340	0	34.1150	0	27.042	0	598.835	0	22.2	4	7.1	4	-1E+10	1	-1E+10	1	-1E+10	1	-1E+10	1	-1E+10	1	-1E+10	1
4901784	30	C	04/30/2016	10:52	-132.006	44.688	0	609.80	0	4.4280	0	34.1190	0	27.045	0	603.978	0	21.6	4	6.9	4	-1E+10	1	-1E+10	1	-1E+10	1	-1E+10	1	-1E+10	1	-1E+10	1
4901784	30	C	04/30/2016	10:52	-132.006	44.688	0	614.90	0	4.4200	0	34.1230	0	27.049	0	609.022	0	21.1	4	6.7	4	-1E+10	1	-1E+10	1	-1E+10	1	-1E+10	1	-1E+10	1	-1E+10	1
4901784	30	C	04/30/2016	10:52	-132.006	44.688	0	620.00	0	4.4100	0	34.1250	0	27.052	0	614.066	0	20.4	4	6.5	4	-1E+10	1	-1E+10	1	-1E+10	1	-1E+10	1	-1E+10	1	-1E+10	1
4901784	30	C	04/30/2016	10:52	-132.006	44.688	0	625.10	0	4.3720	0	34.1340	0	27.063	0	619.109	0	19.7	4	6.3	4	-1E+10	1	-1E+10	1	-1E+10	1	-1E+10	1	-1E+10	1	-1E+10	1
4901784	30	C	04/30/2016	10:52	-132.006	44.688	0	630.30	0	4.3400	0	34.1390	0	27.071	0	624.252	0	19.1	4	6.1	4	-1E+10	1	-1E+10	1	-1E+10	1	-1E+10	1	-1E+10	1	-1E+10	1
4901784	30	C	04/30/2016	10:52	-132.006	44.688	0	635.50	0	4.3230	0	34.1460	0	27.078	0	629.394	0	17.9	4	5.7	4	-1E+10	1	-1E+10	1	-1E+10	1	-1E+10	1	-1E+10	1	-1E+10	1
4901784	30	C	04/30/2016	10:52	-132.006	44.688	0	640.70	0	4.3390	0	34.1570	0	27.085	0	634.536	0	17.0	4	5.4	4	-1E+10	1	-1E+10	1	-1E+10	1	-1E+10	1	-1E+10	1	-1E+10	1
4901784	30	C	04/30/2016	10:52	-132.006	44.688	0	645.10	0	4.3130	0	34.1640	0	27.094	0	638.887	0	16.6	4	5.3	4	-1E+10	1	-1E+10	1	-1E+10	1	-1E+10	1	-1E+10	1	-1E+10	1
4901784	30	C	04/30/2016	10:52	-132.006	44.688	0	649.60	0	4.2930	0	34.1670	0	27.098	0	643.337	0	16.4	4	5.2	4	-1E+10	1	-1E+10	1	-1E+10	1	-1E+10	1	-1E+10	1	-1E+10	1
4901784	30	C	04/30/2016	10:52	-132.006	44.688	0	654.90	0	4.2810	0	34.1710	0	27.103	0	648.577	0	16.2	4	5.1	4	-1E+10	1	-1E+10	1	-1E+10	1	-1E+10	1	-1E+10	1	-1E+10	1
4901784	30	C	04/30/2016	10:52	-132.006	44.688	0	660.30	0	4.2710	0	34.1730	0	27.105	0	653.917	0	15.9	4	5.0	4	-1E+10	1	-1E+10	1	-1E+10	1	-1E+10	1	-1E+10	1	-1E+10	1
4901784	30	C	04/30/2016	10:52	-132.006	44.688	0	665.60	0	4.2560	0	34.1780	0	27.111	0	659.157	0	15.4	4	4.9	4	-1E+10	1	-1E+10	1	-1E+10	1	-1E+10	1	-1E+10	1	-1E+10	1
4901784	30	C	04/30/2016	10:52	-132.006	44.688	0	670.10	0	4.2390	0	34.1840	0	27.117	0	663.606	0	15.2	4	4.8	4	-1E+10	1	-1E+10	1	-1E+10	1	-1E+10	1	-1E+10	1	-1E+10	1
4901784	30	C	04/30/2016	10:52	-132.006	44.688	0	674.70	0	4.2220	0	34.1860	0	27.121	0	668.154	0	15.0	4	4.8	4	-1E+10	1	-1E+10	1	-1E+10	1	-1E+10	1	-1E+10	1	-1E+10	1
4901784	30	C	04/30/2016	10:52	-132.006	44.688	0	680.10	0	4.2100	0	34.1910	0	27.126	0	673.493	0	14.7	4	4.7	4	-1E+10	1	-1E+10	1	-1E+10	1	-1E+10	1	-1E+10	1	-1E+10	1
4901784	30	C	04/30/2016	10:52	-132.006	44.688	0	685.60	0	4.1940	0	34.1960	0	27.132	0	678.931	0	14.4	4	4.6	4	-1E+10	1	-1E+10	1	-1E+10	1	-1E+10	1	-1E+10	1	-1E+10	1
4901784	30	C	04/30/2016	10:52	-132.006	44.688	0	690.20	0	4.1810	0	34.1980	0	27.135	0	683.479	0	14.2	4	4.5	4	-1E+10	1	-1E+10	1	-1E+10	1	-1E+10	1	-1E+10	1	-1E+10	1
4901784	30	C	04/30/2016	10:52	-132.006	44.688	0	694.80	0	4.1690	0	34.2020	0	27.139	0	688.026	0	13.9	4	4.4	4	-1E+10	1	-1E+10	1	-1E+10	1	-1E+10	1	-1E+10	1	-1E+10	1
4901784	30	C	04/30/2016	10:52	-132.006	44.688	0	700.20	0	4.1530	0	34.2080	0	27.146	0	693.365	0	13.6	4	4.3	4	-1E+10	1	-1E+10	1	-1E+10	1	-1E+10	1	-1E+10	1	-1E+10	1
4901784	30	C	04/30/2016	10:52	-132.006	44.688	0	705.60	0	4.1390	0	34.2120	0	27.150	0	698.703	0	13.5	4	4.3	4	-1E+10	1	-1E+10	1	-1E+10	1	-1E+10	1	-1E+10	1	-1E+10	1
4901784	30	C	04/30/2016	10:52	-132.006	44.688	0	710.20	0	4.1280	0	34.2150	0	27.154	0	703.250	0	13.3	4	4.2	4	-1E+10	1	-1E+10	1	-1E+10	1	-1E+10	1	-1E+10	1	-1E+10	1
4901784	30	C	04/30/2016	10:52	-132.006	44.688	0	714.80	0	4.1210	0	34.2170	0	27.156	0	707.797	0	13.2	4	4.2	4	-1E+10	1	-1E+10	1	-1E+10	1	-1E+10	1	-1E+10	1	-1E+10	1
4901784	30	C	04/30/2016	10:52	-132.006	44.688	0	720.30	0	4.1110	0	34.2200	0	27.160	0	713.234	0	13.1	4	4.1	4	-1E+10	1	-1E+10	1	-1E+10	1	-1E+10	1	-1E+10	1	-1E+10	1
4901784	30	C	04/30/2016	10:52	-132.006	44.688	0	725.00	0	4.1020	0	34.2230	0	27.163	0	717.880	0	13.0	4	4.1	4	-1E+10	1	-1E+10	1	-1E+10	1	-1E+10	1	-1E+10	1	-1E+10	1
4901784	30	C	04/30/2016	10:52	-132.006	44.688	0	730.00	0	4.0950	0	34.2250	0	27.166	0	722.822	0	12.9	4	4.1	4	-1E+10	1	-1E+10	1	-1E+10	1	-1E+10	1	-1E+10	1	-1E+10	1
4901784	30	C	04/30/2016	10:52	-132.006	44.688	0	735.10	0	4.0820	0	34.2280	0	27.169	0	727.863	0	12.9	4	4.1	4	-1E+10	1	-1E+10	1	-1E+10	1	-1E+10	1	-1E+10	1	-1E+10	1
4901784	30	C	04/30/2016	10:52	-132.006	44.688	0	739.80	0	4.0660	0	34.2300	0	27.173	0	732.508	0	12.8	4	4.0	4	-1E+10	1	-1E+10	1	-1E+10	1	-1E+10	1	-1E+10	1	-1E+10	1
4901784	30	C	04/30/2016	10:52	-132.006	44.688	0	744.70	0	4.0510	0	34.2340	0	27.177	0	737.352	0	12.6	4	4.0	4	-1E+10	1	-1E+10	1	-1E+10	1	-1E+10	1	-1E+10	1	-1E+10	1
4901784	30	C	04/30/2016	10:52	-132.006	44.688	0	749.50	0	4.0450	0	34.2350	0	27.179	0	742.096	0	12.6	4	4.0	4	-1E+10	1	-1E+10	1	-1E+10	1	-1E+10	1	-1E+10	1	-1E+10	1
4901784	30	C	04/30/2016	10:52	-132.006	44.688	0	754.40	0	4.0350	0	34.2360	0	27.181	0	746.939	0	12.6	4	4.0	4	-1E+10	1	-1E+10	1	-1E+10	1	-1E+10	1	-1E+10	1	-1E+10	1
4901784	30	C	04/30/2016	10:52	-132.006	44.688	0	759.30	0	4.0100	0	34.2390	0	27.186	0	751.781	0	12.6	4	4.0	4	-1E+10	1	-1E+10	1	-1E+10	1	-1E+10	1	-1E+10	1	-1E+10	1
4901784	30	C	04/30/2016	10:52	-132.006	44.688	0	765.00	0	3.9890	0	34.2400	0	27.189	0	757.414	0	12.5	4	3.9	4	-1E+10	1	-1E+10	1	-1E+10	1	-1E+10	1	-1E+10	1	-1E+10	1
4901784	30	C	04/30/2016	10:52	-132.006	44.688	0	770.70	0	3.9640	0	34.2470	0	27.197	0	763.048	0	12.3	4	3.9	4	-1E+10	1	-1E+10	1	-1E+10	1	-1E+10	1	-1E+10	1	-1E+10	1
4901784	30	C	04/30/2016	10:52	-132.006	44.688	0	775.60	0	3.9530	0	34.2500	0	27.200	0	767.890	0	12.2	4	3.9	4	-1E+10	1	-1E+10	1	-1E+10	1	-1E+10	1	-1E+10	1	-1E+10	1
4901784	30	C	04/30/2016	10:52	-132.006	44.688	0	780.60	0	3.9490	0	34.2510	0	27.201	0	772.831	0	12.2	4	3.8	4	-1E+10	1	-1E+10	1	-1E+10	1	-1E+10	1	-1E+10	1	-1E+10	1
4901784	30	C	04/30/2016	10:52	-132.006	44.688	0	785.60	0	3.9350	0	34.2520	0	27.204	0	777.772	0	12.1	4	3.8	4	-1E+10	1	-1E+10	1	-1E+10	1	-1E+10	1	-1E+10	1	-1E+10	1
4901784	30	C	04/30/2016	10:52	-132.006	44.688	0	790.60	0	3.9250	0	34.2560	0	27.208	0	782.713	0	12.1	4	3.8	4	-1E+10	1	-1E+10	1	-1E+10	1	-1E+10	1	-1E+10	1	-1E+10	1
4901784	30	C	04/30/2016	10:52	-132.006	44.688	0	795.60	0	3.9140	0	34.2580	0	27.211	0	787.653	0	12.0	4	3.8	4	-1E+10	1	-1E+10	1	-1E+10	1	-1E+10	1	-1E+10	1	-1E+10	1
4901784	30	C	04/30/2016	10:52	-132.006	44.688	0	800.70	0	3.9070	0	34.2590	0	27.212	0	792.693	0	11.9	4	3.8	4	-1E+10	1	-1E+10	1	-1E+10	1	-1E+10	1	-1E+10	1	-1E+10	1
4901784	30	C	04/30/2016	10:52	-132.006	44.688	0	805.00	0	3.8960	0	34.2630	0	27.217	0	796.941	0	11.8	4	3.7	4	-1E+10	1	-1E+10	1	-1E+10	1	-1E+10	1	-1E+10	1	-1E+10	1
4901784	30	C	04/30/2016	10:52	-132.006	44.688	0	809.30	0	3.8850	0	34.2660	0	27.220	0	801.190	0	11.7	4	3.7	4	-1E+10	1	-1E+10	1	-1E+10	1	-1E+10	1	-1E+10	1	-1E+10	1
4901784	30	C	04/30/2016	10:52	-132.006	44.688	0	814.70	0	3.8740	0	34.2700	0	27.224	0	806.526	0	11.6	4	3.7	4	-1E+10	1	-1E+10	1	-1E+10	1	-1E+10	1	-1E+10	1	-1E+10	1
4901784	30	C	04/30/2016	10:52	-132.006	44.688	0	820.00	0	3.8590	0	34.2720	0	27.228	0	811.762	0	11.6	4	3.6	4	-1E+10	1	-1E+10	1	-1E+10	1	-1E+10	1	-1E+10	1	-1E+10	1
4901784	30	C	04/30/2016	10:52	-132.006	44.688	0	825.40	0	3.8390	0	34.2770	0	27.234	0	817.097	0	11.6	4	3.6	4	-1E+10	1	-1E+10	1	-1E+10	1	-1E+10	1	-1E+10	1	-1E+10	1
4901784	30	C	04/30/2016	10:52	-132.006	44.688	0	829.90	0	3.8240	0	34.2780	0	27.236	0	821.543	0	11.6	4	3.6	4	-1E+10	1	-1E+10	1	-1E+10	1	-1E+10	1	-1E+10	1	-1E+10	1
4901784	30	C	04/30/2016	10:52	-132.006	44.688	0	834.40	0	3.7960	0	34.2800	0	27.240	0	825.989	0	11.6	4	3.7	4	-1E+10	1	-1E+10	1	-1E+10	1	-1E+10	1	-1E+10	1	-1E+10	1
4901784	30	C	04/30/2016	10:52	-132.006	44.688	0	839.80	0	3.7790	0	34.2810	0	27.243	0	831.324	0	11.6	4	3.6	4	-1E+10	1	-1E+10	1	-1E+10	1	-1E+10	1	-1E+10	1	-1E+10	1
4901784	30	C	04/30/2016	10:52	-132.006	44.688	0	845.30	0	3.7570	0	34.2840	0	27.247	0	836.757	0	11.6	4	3.6	4	-1E+10	1	-1E+10	1	-1E+10	1	-1E+10	1	-1E+10	1	-1E+10	1
4901784	30	C	04/30/2016	10:52	-132.006	44.688	0	849.80	0	3.7470	0	34.2850	0	27.249	0	841.203	0	11.6	4	3.6	4	-1E+10	1	-1E+10	1	-1E+10	1	-1E+10	1	-1E+10	1	-1E+10	1
4901784	30	C	04/30/2016	10:52	-132.006	44.688	0	854.40	0	3.7360	0	34.2880	0	27.253	0	845.747	0	11.5	4	3.6	4	-1E+10	1	-1E+10	1	-1E+10	1	-1E+10	1	-1E+10	1	-1E+10	1
4901784	30	C	04/30/2016	10:52	-132.006	44.688	0	859.90	0	3.7260	0	34.2910	0	27.256	0	851.180	0	11.5	4	3.6	4	-1E+10	1	-1E+10	1	-1E+10	1	-1E+10	1	-1E+10	1	-1E+10	1
4901784	30	C	04/30/2016	10:52	-132.006	44.688	0	864.70	0	3.7150	0	34.2940	0	27.260	0	855.922	0	11.5	4	3.6	4	-1E+10	1	-1E+10	1	-1E+10	1	-1E+10	1	-1E+10	1	-1E+10	1
4901784	30	C	04/30/2016	10:52	-132.006	44.688	0	869.90	0	3.6990	0	34.2970	0	27.264	0	861.058	0	11.4	4	3.6	4	-1E+10	1	-1E+10	1	-1E+10	1	-1E+10	1	-1E+10	1	-1E+10	1
4901784	30	C	04/30/2016	10:52	-132.006	44.688	0	875.50	0	3.6830	0	34.3010	0	27.268	0	866.590	0	11.4	4	3.6	4	-1E+10	1	-1E+10	1	-1E+10	1	-1E+10	1	-1E+10	1	-1E+10	1
4901784	30	C	04/30/2016	10:52	-132.006	44.688	0	880.30	0	3.6790	0	34.3040	0	27.271	0	871.331	0	11.3	4	3.5	4	-1E+10	1	-1E+10	1	-1E+10	1	-1E+10	1	-1E+10	1	-1E+10	1
4901784	30	C	04/30/2016	10:52	-132.006	44.688	0	885.20	0	3.6700	0	34.3060	0	27.274	0	876.171	0	11.3	4	3.5	4	-1E+10	1	-1E+10	1	-1E+10	1	-1E+10	1	-1E+10	1	-1E+10	1
4901784	30	C	04/30/2016	10:52	-132.006	44.688	0	890.10	0	3.6610	0	34.3080	0	27.276	0	881.010	0	11.3	4	3.5	4	-1E+10	1	-1E+10	1	-1E+10	1	-1E+10	1	-1E+10	1	-1E+10	1
4901784	30	C	04/30/2016	10:52	-132.006	44.688	0	895.00	0	3.6490	0	34.3110	0	27.280	0	885.850	0	11.3	4	3.5	4	-1E+10	1	-1E+10	1	-1E+10	1	-1E+10	1	-1E+10	1	-1E+10	1
4901784	30	C	04/30/2016	10:52	-132.006	44.688	0	899.80	0	3.6320	0	34.3140	0	27.284	0	890.591	0	11.3	4	3.5	4	-1E+10	1	-1E+10	1	-1E+10	1	-1E+10	1	-1E+10	1	-1E+10	1
4901784	30	C	04/30/2016	10:52	-132.006	44.688	0	904.80	0	3.6190	0	34.3170	0	27.288	0	895.529	0	11.3	4	3.5	4	-1E+10	1	-1E+10	1	-1E+10	1	-1E+10	1	-1E+10	1	-1E+10	1
4901784	30	C	04/30/2016	10:52	-132.006	44.688	0	909.80	0	3.5970	0	34.3210	0	27.293	0	900.467	0	11.3	4	3.5	4	-1E+10	1	-1E+10	1	-1E+10	1	-1E+10	1	-1E+10	1	-1E+10	1
4901784	30	C	04/30/2016	10:52	-132.006	44.688	0	914.70	0	3.5890	0	34.3230	0	27.295	0	905.306	0	11.3	4	3.6	4	-1E+10	1	-1E+10	1	-1E+10	1	-1E+10	1	-1E+10	1	-1E+10	1
4901784	30	C	04/30/2016	10:52	-132.006	44.688	0	919.80	0	3.5810	0	34.3250	0	27.298	0	910.342	0	11.4	4	3.6	4	-1E+10	1	-1E+10	1	-1E+10	1	-1E+10	1	-1E+10	1	-1E+10	1
4901784	30	C	04/30/2016	10:52	-132.006	44.688	0	924.80	0	3.5680	0	34.3260	0	27.300	0	915.280	0	11.4	4	3.6	4	-1E+10	1	-1E+10	1	-1E+10	1	-1E+10	1	-1E+10	1	-1E+10	1
4901784	30	C	04/30/2016	10:52	-132.006	44.688	0	929.90	0	3.5570	0	34.3280	0	27.303	0	920.316	0	11.4	4	3.6	4	-1E+10	1	-1E+10	1	-1E+10	1	-1E+10	1	-1E+10	1	-1E+10	1
4901784	30	C	04/30/2016	10:52	-132.006	44.688	0	935.00	0	3.5410	0	34.3310	0	27.307	0	925.353	0	11.4	4	3.6	4	-1E+10	1	-1E+10	1	-1E+10	1	-1E+10	1	-1E+10	1	-1E+10	1
4901784	30	C	04/30/2016	10:52	-132.006	44.688	0	940.10	0	3.5190	0	34.3350	0	27.312	0	930.389	0	11.5	4	3.6	4	-1E+10	1	-1E+10	1	-1E+10	1	-1E+10	1	-1E+10	1	-1E+10	1
4901784	30	C	04/30/2016	10:52	-132.006	44.688	0	945.40	0	3.5020	0	34.3380	0	27.316	0	935.622	0	11.5	4	3.6	4	-1E+10	1	-1E+10	1	-1E+10	1	-1E+10	1	-1E+10	1	-1E+10	1
4901784	30	C	04/30/2016	10:52	-132.006	44.688	0	950.60	0	3.4930	0	34.3390	0	27.318	0	940.757	0	11.5	4	3.6	4	-1E+10	1	-1E+10	1	-1E+10	1	-1E+10	1	-1E+10	1	-1E+10	1
4901784	30	C	04/30/2016	10:52	-132.006	44.688	0	954.90	0	3.4840	0	34.3410	0	27.320	0	945.002	0	11.5	4	3.6	4	-1E+10	1	-1E+10	1	-1E+10	1	-1E+10	1	-1E+10	1	-1E+10	1
4901784	30	C	04/30/2016	10:52	-132.006	44.688	0	959.20	0	3.4710	0	34.3430	0	27.323	0	949.248	0	11.6	4	3.6	4	-1E+10	1	-1E+10	1	-1E+10	1	-1E+10	1	-1E+10	1	-1E+10	1
4901784	30	C	04/30/2016	10:52	-132.006	44.688	0	964.50	0	3.4540	0	34.3470	0	27.328	0	954.481	0	11.6	4	3.6	4	-1E+10	1	-1E+10	1	-1E+10	1	-1E+10	1	-1E+10	1	-1E+10	1
4901784	30	C	04/30/2016	10:52	-132.006	44.688	0	969.80	0	3.4440	0	34.3480	0	27.330	0	959.714	0	11.6	4	3.6	4	-1E+10	1	-1E+10	1	-1E+10	1	-1E+10	1	-1E+10	1	-1E+10	1
4901784	30	C	04/30/2016	10:52	-132.006	44.688	0	975.10	0	3.4300	0	34.3510	0	27.333	0	964.946	0	11.7	4	3.6	4	-1E+10	1	-1E+10	1	-1E+10	1	-1E+10	1	-1E+10	1	-1E+10	1
4901784	30	C	04/30/2016	10:52	-132.006	44.688	0	980.60	0	3.4150	0	34.3530	0	27.336	0	970.376	0	11.7	4	3.7	4	-1E+10	1	-1E+10	1	-1E+10	1	-1E+10	1	-1E+10	1	-1E+10	1
4901784	30	C	04/30/2016	10:52	-132.006	44.688	0	985.10	0	3.4000	0	34.3560	0	27.340	0	974.819	0	11.8	4	3.7	4	-1E+10	1	-1E+10	1	-1E+10	1	-1E+10	1	-1E+10	1	-1E+10	1
4901784	30	C	04/30/2016	10:52	-132.006	44.688	0	989.50	0	3.3880	0	34.3590	0	27.344	0	979.163	0	11.8	4	3.7	4	-1E+10	1	-1E+10	1	-1E+10	1	-1E+10	1	-1E+10	1	-1E+10	1
4901784	30	C	04/30/2016	10:52	-132.006	44.688	0	994.90	0	3.3770	0	34.3620	0	27.347	0	984.494	0	11.9	4	3.7	4	-1E+10	1	-1E+10	1	-1E+10	1	-1E+10	1	-1E+10	1	-1E+10	1
4901784	30	C	04/30/2016	10:52	-132.006	44.688	0	1000.30	0	3.3660	0	34.3650	0	27.351	0	989.825	0	11.9	4	3.7	4	-1E+10	1	-1E+10	1	-1E+10	1	-1E+10	1	-1E+10	1	-1E+10	1
4901784	30	C	04/30/2016	10:52	-132.006	44.688	0	1004.80	0	3.3580	0	34.3660	0	27.352	0	994.267	0	11.9	4	3.7	4	-1E+10	1	-1E+10	1	-1E+10	1	-1E+10	1	-1E+10	1	-1E+10	1
4901784	30	C	04/30/2016	10:52	-132.006	44.688	0	1009.30	0	3.3540	0	34.3670	0	27.354	0	998.709	0	12.0	4	3.7	4	-1E+10	1	-1E+10	1	-1E+10	1	-1E+10	1	-1E+10	1	-1E+10	1
4901784	30	C	04/30/2016	10:52	-132.006	44.688	0	1014.70	0	3.3480	0	34.3680	0	27.355	0	1004.039	0	12.0	4	3.7	4	-1E+10	1	-1E+10	1	-1E+10	1	-1E+10	1	-1E+10	1	-1E+10	1
4901784	30	C	04/30/2016	10:52	-132.006	44.688	0	1020.00	0	3.3310	0	34.3710	0	27.359	0	1009.271	0	12.1	4	3.8	4	-1E+10	1	-1E+10	1	-1E+10	1	-1E+10	1	-1E+10	1	-1E+10	1
4901784	30	C	04/30/2016	10:52	-132.006	44.688	0	1025.30	0	3.3180	0	34.3730	0	27.362	0	1014.502	0	12.2	4	3.8	4	-1E+10	1	-1E+10	1	-1E+10	1	-1E+10	1	-1E+10	1	-1E+10	1
4901784	30	C	04/30/2016	10:52	-132.006	44.688	0	1030.60	0	3.3040	0	34.3770	0	27.366	0	1019.734	0	12.2	4	3.8	4	-1E+10	1	-1E+10	1	-1E+10	1	-1E+10	1	-1E+10	1	-1E+10	1
4901784	30	C	04/30/2016	10:52	-132.006	44.688	0	1035.00	0	3.3010	0	34.3780	0	27.368	0	1024.076	0	12.3	4	3.8	4	-1E+10	1	-1E+10	1	-1E+10	1	-1E+10	1	-1E+10	1	-1E+10	1
4901784	30	C	04/30/2016	10:52	-132.006	44.688	0	1039.60	0	3.2930	0	34.3780	0	27.368	0	1028.617	0	12.3	4	3.8	4	-1E+10	1	-1E+10	1	-1E+10	1	-1E+10	1	-1E+10	1	-1E+10	1
4901784	30	C	04/30/2016	10:52	-132.006	44.688	0	1045.00	0	3.2870	0	34.3800	0	27.370	0	1033.946	0	12.4	4	3.8	4	-1E+10	1	-1E+10	1	-1E+10	1	-1E+10	1	-1E+10	1	-1E+10	1
4901784	30	C	04/30/2016	10:52	-132.006	44.688	0	1050.50	0	3.2830	0	34.3810	0	27.372	0	1039.374	0	12.4	4	3.9	4	-1E+10	1	-1E+10	1	-1E+10	1	-1E+10	1	-1E+10	1	-1E+10	1
4901784	30	C	04/30/2016	10:52	-132.006	44.688	0	1055.00	0	3.2760	0	34.3830	0	27.374	0	1043.816	0	12.5	4	3.9	4	-1E+10	1	-1E+10	1	-1E+10	1	-1E+10	1	-1E+10	1	-1E+10	1
4901784	30	C	04/30/2016	10:52	-132.006	44.688	0	1059.60	0	3.2690	0	34.3840	0	27.375	0	1048.355	0	12.5	4	3.9	4	-1E+10	1	-1E+10	1	-1E+10	1	-1E+10	1	-1E+10	1	-1E+10	1
4901784	30	C	04/30/2016	10:52	-132.006	44.688	0	1065.10	0	3.2550	0	34.3860	0	27.378	0	1053.783	0	12.6	4	3.9	4	-1E+10	1	-1E+10	1	-1E+10	1	-1E+10	1	-1E+10	1	-1E+10	1
4901784	30	C	04/30/2016	10:52	-132.006	44.688	0	1069.70	0	3.2480	0	34.3880	0	27.381	0	1058.323	0	12.7	4	3.9	4	-1E+10	1	-1E+10	1	-1E+10	1	-1E+10	1	-1E+10	1	-1E+10	1
4901784	30	C	04/30/2016	10:52	-132.006	44.688	0	1074.30	0	3.2410	0	34.3900	0	27.383	0	1062.862	0	12.8	4	4.0	4	-1E+10	1	-1E+10	1	-1E+10	1	-1E+10	1	-1E+10	1	-1E+10	1
4901784	30	C	04/30/2016	10:52	-132.006	44.688	0	1079.50	0	3.2330	0	34.3910	0	27.385	0	1067.994	0	12.8	4	4.0	4	-1E+10	1	-1E+10	1	-1E+10	1	-1E+10	1	-1E+10	1	-1E+10	1
4901784	30	C	04/30/2016	10:52	-132.006	44.688	0	1084.40	0	3.2230	0	34.3910	0	27.385	0	1072.829	0	13.0	4	4.0	4	-1E+10	1	-1E+10	1	-1E+10	1	-1E+10	1	-1E+10	1	-1E+10	1
4901784	30	C	04/30/2016	10:52	-132.006	44.688	0	1090.00	0	3.2040	0	34.3940	0	27.390	0	1078.355	0	13.1	4	4.1	4	-1E+10	1	-1E+10	1	-1E+10	1	-1E+10	1	-1E+10	1	-1E+10	1
4901784	30	C	04/30/2016	10:52	-132.006	44.688	0	1095.60	0	3.1930	0	34.3960	0	27.392	0	1083.880	0	13.2	4	4.1	4	-1E+10	1	-1E+10	1	-1E+10	1	-1E+10	1	-1E+10	1	-1E+10	1
4901784	30	C	04/30/2016	10:52	-132.006	44.688	0	1100.60	0	3.1810	0	34.3990	0	27.396	0	1088.814	0	13.4	4	4.2	4	-1E+10	1	-1E+10	1	-1E+10	1	-1E+10	1	-1E+10	1	-1E+10	1
4901784	30	C	04/30/2016	10:52	-132.006	44.688	0	1105.00	0	3.1740	0	34.4000	0	27.397	0	1093.155	0	13.5	4	4.2	4	-1E+10	1	-1E+10	1	-1E+10	1	-1E+10	1	-1E+10	1	-1E+10	1
4901784	30	C	04/30/2016	10:52	-132.006	44.688	0	1109.40	0	3.1630	0	34.4030	0	27.401	0	1097.497	0	13.6	4	4.2	4	-1E+10	1	-1E+10	1	-1E+10	1	-1E+10	1	-1E+10	1	-1E+10	1
4901784	30	C	04/30/2016	10:52	-132.006	44.688	0	1114.70	0	3.1500	0	34.4060	0	27.404	0	1102.726	0	13.8	4	4.3	4	-1E+10	1	-1E+10	1	-1E+10	1	-1E+10	1	-1E+10	1	-1E+10	1
4901784	30	C	04/30/2016	10:52	-132.006	44.688	0	1120.20	0	3.1370	0	34.4090	0	27.408	0	1108.152	0	13.9	4	4.3	4	-1E+10	1	-1E+10	1	-1E+10	1	-1E+10	1	-1E+10	1	-1E+10	1
4901784	30	C	04/30/2016	10:52	-132.006	44.688	0	1124.80	0	3.1310	0	34.4100	0	27.409	0	1112.691	0	14.1	4	4.4	4	-1E+10	1	-1E+10	1	-1E+10	1	-1E+10	1	-1E+10	1	-1E+10	1
4901784	30	C	04/30/2016	10:52	-132.006	44.688	0	1129.40	0	3.1260	0	34.4130	0	27.412	0	1117.229	0	14.3	4	4.4	4	-1E+10	1	-1E+10	1	-1E+10	1	-1E+10	1	-1E+10	1	-1E+10	1
4901784	30	C	04/30/2016	10:52	-132.006	44.688	0	1135.00	0	3.1190	0	34.4150	0	27.415	0	1122.754	0	14.5	4	4.5	4	-1E+10	1	-1E+10	1	-1E+10	1	-1E+10	1	-1E+10	1	-1E+10	1
4901784	30	C	04/30/2016	10:52	-132.006	44.688	0	1139.70	0	3.0970	0	34.4180	0	27.419	0	1127.390	0	14.7	4	4.5	4	-1E+10	1	-1E+10	1	-1E+10	1	-1E+10	1	-1E+10	1	-1E+10	1
4901784	30	C	04/30/2016	10:52	-132.006	44.688	0	1144.40	0	3.1090	0	34.4210	0	27.420	0	1132.027	0	15.0	4	4.6	4	-1E+10	1	-1E+10	1	-1E+10	1	-1E+10	1	-1E+10	1	-1E+10	1
4901784	30	C	04/30/2016	10:52	-132.006	44.688	0	1150.00	0	3.1100	0	34.4250	0	27.423	0	1137.551	0	15.3	4	4.7	4	-1E+10	1	-1E+10	1	-1E+10	1	-1E+10	1	-1E+10	1	-1E+10	1
4901784	30	C	04/30/2016	10:52	-132.006	44.688	0	1155.60	0	3.1080	0	34.4290	0	27.427	0	1143.075	0	15.4	4	4.8	4	-1E+10	1	-1E+10	1	-1E+10	1	-1E+10	1	-1E+10	1	-1E+10	1
4901784	30	C	04/30/2016	10:52	-132.006	44.688	0	1160.30	0	3.0990	0	34.4300	0	27.428	0	1147.712	0	15.5	4	4.8	4	-1E+10	1	-1E+10	1	-1E+10	1	-1E+10	1	-1E+10	1	-1E+10	1
4901784	30	C	04/30/2016	10:52	-132.006	44.688	0	1165.00	0	3.0940	0	34.4310	0	27.430	0	1152.348	0	15.7	4	4.9	4	-1E+10	1	-1E+10	1	-1E+10	1	-1E+10	1	-1E+10	1	-1E+10	1
4901784	30	C	04/30/2016	10:52	-132.006	44.688	0	1170.60	0	3.0840	0	34.4330	0	27.432	0	1157.871	0	15.9	4	4.9	4	-1E+10	1	-1E+10	1	-1E+10	1	-1E+10	1	-1E+10	1	-1E+10	1
4901784	30	C	04/30/2016	10:52	-132.006	44.688	0	1175.30	0	3.0690	0	34.4340	0	27.434	0	1162.507	0	16.0	4	5.0	4	-1E+10	1	-1E+10	1	-1E+10	1	-1E+10	1	-1E+10	1	-1E+10	1
4901784	30	C	04/30/2016	10:52	-132.006	44.688	0	1180.10	0	3.0590	0	34.4350	0	27.436	0	1167.242	0	16.1	4	5.0	4	-1E+10	1	-1E+10	1	-1E+10	1	-1E+10	1	-1E+10	1	-1E+10	1
4901784	30	C	04/30/2016	10:52	-132.006	44.688	0	1184.90	0	3.0580	0	34.4360	0	27.437	0	1171.976	0	16.2	4	5.0	4	-1E+10	1	-1E+10	1	-1E+10	1	-1E+10	1	-1E+10	1	-1E+10	1
4901784	30	C	04/30/2016	10:52	-132.006	44.688	0	1189.60	0	3.0540	0	34.4370	0	27.438	0	1176.612	0	16.3	4	5.0	4	-1E+10	1	-1E+10	1	-1E+10	1	-1E+10	1	-1E+10	1	-1E+10	1
4901784	30	C	04/30/2016	10:52	-132.006	44.688	0	1195.40	0	3.0520	0	34.4380	0	27.439	0	1182.332	0	16.4	4	5.1	4	-1E+10	1	-1E+10	1	-1E+10	1	-1E+10	1	-1E+10	1	-1E+10	1
4901784	30	C	04/30/2016	10:52	-132.006	44.688	0	1200.30	0	3.0470	0	34.4380	0	27.440	0	1187.165	0	16.5	4	5.1	4	-1E+10	1	-1E+10	1	-1E+10	1	-1E+10	1	-1E+10	1	-1E+10	1
4901784	30	C	04/30/2016	10:52	-132.006	44.688	0	1205.30	0	3.0420	0	34.4380	0	27.440	0	1192.096	0	16.7	4	5.1	4	-1E+10	1	-1E+10	1	-1E+10	1	-1E+10	1	-1E+10	1	-1E+10	1
4901784	30	C	04/30/2016	10:52	-132.006	44.688	0	1210.30	0	3.0270	0	34.4410	0	27.444	0	1197.027	0	16.9	4	5.2	4	-1E+10	1	-1E+10	1	-1E+10	1	-1E+10	1	-1E+10	1	-1E+10	1
4901784	30	C	04/30/2016	10:52	-132.006	44.688	0	1215.30	0	3.0180	0	34.4430	0	27.447	0	1201.958	0	17.2	4	5.3	4	-1E+10	1	-1E+10	1	-1E+10	1	-1E+10	1	-1E+10	1	-1E+10	1
4901784	30	C	04/30/2016	10:52	-132.006	44.688	0	1220.30	0	3.0060	0	34.4450	0	27.449	0	1206.889	0	17.3	4	5.3	4	-1E+10	1	-1E+10	1	-1E+10	1	-1E+10	1	-1E+10	1	-1E+10	1
4901784	30	C	04/30/2016	10:52	-132.006	44.688	0	1225.70	0	2.9900	0	34.4460	0	27.452	0	1212.214	0	17.5	4	5.4	4	-1E+10	1	-1E+10	1	-1E+10	1	-1E+10	1	-1E+10	1	-1E+10	1
4901784	30	C	04/30/2016	10:52	-132.006	44.688	0	1230.70	0	2.9780	0	34.4470	0	27.453	0	1217.144	0	17.6	4	5.4	4	-1E+10	1	-1E+10	1	-1E+10	1	-1E+10	1	-1E+10	1	-1E+10	1
4901784	30	C	04/30/2016	10:52	-132.006	44.688	0	1235.40	0	2.9720	0	34.4490	0	27.456	0	1221.779	0	17.6	4	5.4	4	-1E+10	1	-1E+10	1	-1E+10	1	-1E+10	1	-1E+10	1	-1E+10	1
4901784	30	C	04/30/2016	10:52	-132.006	44.688	0	1240.10	0	2.9590	0	34.4470	0	27.455	0	1226.413	0	17.6	4	5.4	4	-1E+10	1	-1E+10	1	-1E+10	1	-1E+10	1	-1E+10	1	-1E+10	1
4901784	30	C	04/30/2016	10:52	-132.006	44.688	0	1244.90	0	2.9560	0	34.4490	0	27.457	0	1231.146	0	17.9	4	5.5	4	-1E+10	1	-1E+10	1	-1E+10	1	-1E+10	1	-1E+10	1	-1E+10	1
4901784	30	C	04/30/2016	10:52	-132.006	44.688	0	1249.70	0	2.9520	0	34.4510	0	27.459	0	1235.879	0	18.2	4	5.6	4	-1E+10	1	-1E+10	1	-1E+10	1	-1E+10	1	-1E+10	1	-1E+10	1
4901784	30	C	04/30/2016	10:52	-132.006	44.688	0	1254.50	0	2.9470	0	34.4520	0	27.460	0	1240.612	0	18.4	4	5.7	4	-1E+10	1	-1E+10	1	-1E+10	1	-1E+10	1	-1E+10	1	-1E+10	1
4901784	30	C	04/30/2016	10:52	-132.006	44.688	0	1259.50	0	2.9380	0	34.4540	0	27.463	0	1245.542	0	18.6	4	5.7	4	-1E+10	1	-1E+10	1	-1E+10	1	-1E+10	1	-1E+10	1	-1E+10	1
4901784	30	C	04/30/2016	10:52	-132.006	44.688	0	1264.40	0	2.9280	0	34.4550	0	27.464	0	1250.373	0	18.6	4	5.7	4	-1E+10	1	-1E+10	1	-1E+10	1	-1E+10	1	-1E+10	1	-1E+10	1
4901784	30	C	04/30/2016	10:52	-132.006	44.688	0	1269.40	0	2.9230	0	34.4550	0	27.465	0	1255.303	0	18.8	4	5.8	4	-1E+10	1	-1E+10	1	-1E+10	1	-1E+10	1	-1E+10	1	-1E+10	1
4901784	30	C	04/30/2016	10:52	-132.006	44.688	0	1274.40	0	2.9160	0	34.4560	0	27.466	0	1260.232	0	19.0	4	5.9	4	-1E+10	1	-1E+10	1	-1E+10	1	-1E+10	1	-1E+10	1	-1E+10	1
4901784	30	C	04/30/2016	10:52	-132.006	44.688	0	1279.50	0	2.9110	0	34.4570	0	27.468	0	1265.260	0	19.2	4	5.9	4	-1E+10	1	-1E+10	1	-1E+10	1	-1E+10	1	-1E+10	1	-1E+10	1
4901784	30	C	04/30/2016	10:52	-132.006	44.688	0	1284.60	0	2.9020	0	34.4590	0	27.470	0	1270.288	0	19.4	4	6.0	4	-1E+10	1	-1E+10	1	-1E+10	1	-1E+10	1	-1E+10	1	-1E+10	1
4901784	30	C	04/30/2016	10:52	-132.006	44.688	0	1289.70	0	2.8940	0	34.4590	0	27.471	0	1275.316	0	19.6	4	6.0	4	-1E+10	1	-1E+10	1	-1E+10	1	-1E+10	1	-1E+10	1	-1E+10	1
4901784	30	C	04/30/2016	10:52	-132.006	44.688	0	1294.80	0	2.8770	0	34.4610	0	27.474	0	1280.343	0	19.9	4	6.1	4	-1E+10	1	-1E+10	1	-1E+10	1	-1E+10	1	-1E+10	1	-1E+10	1
4901784	30	C	04/30/2016	10:52	-132.006	44.688	0	1299.90	0	2.8560	0	34.4630	0	27.477	0	1285.371	0	20.2	4	6.2	4	-1E+10	1	-1E+10	1	-1E+10	1	-1E+10	1	-1E+10	1	-1E+10	1
4901784	30	C	04/30/2016	10:52	-132.006	44.688	0	1305.00	0	2.8390	0	34.4650	0	27.481	0	1290.398	0	20.6	4	6.3	4	-1E+10	1	-1E+10	1	-1E+10	1	-1E+10	1	-1E+10	1	-1E+10	1
4901784	30	C	04/30/2016	10:52	-132.006	44.688	0	1310.10	0	2.8230	0	34.4670	0	27.484	0	1295.425	0	20.9	4	6.4	4	-1E+10	1	-1E+10	1	-1E+10	1	-1E+10	1	-1E+10	1	-1E+10	1
4901784	30	C	04/30/2016	10:52	-132.006	44.688	0	1315.20	0	2.8100	0	34.4680	0	27.486	0	1300.452	0	21.2	4	6.5	4	-1E+10	1	-1E+10	1	-1E+10	1	-1E+10	1	-1E+10	1	-1E+10	1
4901784	30	C	04/30/2016	10:52	-132.006	44.688	0	1320.40	0	2.7960	0	34.4700	0	27.488	0	1305.578	0	21.5	4	6.6	4	-1E+10	1	-1E+10	1	-1E+10	1	-1E+10	1	-1E+10	1	-1E+10	1
4901784	30	C	04/30/2016	10:52	-132.006	44.688	0	1325.50	0	2.7830	0	34.4720	0	27.491	0	1310.605	0	21.8	4	6.7	4	-1E+10	1	-1E+10	1	-1E+10	1	-1E+10	1	-1E+10	1	-1E+10	1
4901784	30	C	04/30/2016	10:52	-132.006	44.688	0	1330.80	0	2.7810	0	34.4730	0	27.492	0	1315.829	0	22.1	4	6.8	4	-1E+10	1	-1E+10	1	-1E+10	1	-1E+10	1	-1E+10	1	-1E+10	1
4901784	30	C	04/30/2016	10:52	-132.006	44.688	0	1335.10	0	2.7770	0	34.4740	0	27.493	0	1320.067	0	22.2	4	6.8	4	-1E+10	1	-1E+10	1	-1E+10	1	-1E+10	1	-1E+10	1	-1E+10	1
4901784	30	C	04/30/2016	10:52	-132.006	44.688	0	1339.50	0	2.7700	0	34.4750	0	27.495	0	1324.404	0	22.4	4	6.9	4	-1E+10	1	-1E+10	1	-1E+10	1	-1E+10	1	-1E+10	1	-1E+10	1
4901784	30	C	04/30/2016	10:52	-132.006	44.688	0	1344.70	0	2.7620	0	34.4760	0	27.496	0	1329.529	0	22.6	4	6.9	4	-1E+10	1	-1E+10	1	-1E+10	1	-1E+10	1	-1E+10	1	-1E+10	1
4901784	30	C	04/30/2016	10:52	-132.006	44.688	0	1349.90	0	2.7550	0	34.4770	0	27.498	0	1334.654	0	22.8	4	7.0	4	-1E+10	1	-1E+10	1	-1E+10	1	-1E+10	1	-1E+10	1	-1E+10	1
4901784	30	C	04/30/2016	10:52	-132.006	44.688	0	1355.20	0	2.7400	0	34.4780	0	27.500	0	1339.877	0	23.1	4	7.1	4	-1E+10	1	-1E+10	1	-1E+10	1	-1E+10	1	-1E+10	1	-1E+10	1
4901784	30	C	04/30/2016	10:52	-132.006	44.688	0	1360.50	0	2.7330	0	34.4790	0	27.501	0	1345.100	0	23.2	4	7.1	4	-1E+10	1	-1E+10	1	-1E+10	1	-1E+10	1	-1E+10	1	-1E+10	1
4901784	30	C	04/30/2016	10:52	-132.006	44.688	0	1365.70	0	2.7220	0	34.4800	0	27.503	0	1350.225	0	23.5	4	7.2	4	-1E+10	1	-1E+10	1	-1E+10	1	-1E+10	1	-1E+10	1	-1E+10	1
4901784	30	C	04/30/2016	10:52	-132.006	44.688	0	1370.10	0	2.7050	0	34.4810	0	27.505	0	1354.561	0	23.6	4	7.2	4	-1E+10	1	-1E+10	1	-1E+10	1	-1E+10	1	-1E+10	1	-1E+10	1
4901784	30	C	04/30/2016	10:52	-132.006	44.688	0	1374.60	0	2.6930	0	34.4810	0	27.506	0	1358.995	0	23.7	4	7.3	4	-1E+10	1	-1E+10	1	-1E+10	1	-1E+10	1	-1E+10	1	-1E+10	1
4901784	30	C	04/30/2016	10:52	-132.006	44.688	0	1379.90	0	2.6840	0	34.4820	0	27.508	0	1364.218	0	23.9	4	7.3	4	-1E+10	1	-1E+10	1	-1E+10	1	-1E+10	1	-1E+10	1	-1E+10	1
4901784	30	C	04/30/2016	10:52	-132.006	44.688	0	1385.20	0	2.6710	0	34.4830	0	27.510	0	1369.440	0	24.1	4	7.4	4	-1E+10	1	-1E+10	1	-1E+10	1	-1E+10	1	-1E+10	1	-1E+10	1
4901784	30	C	04/30/2016	10:52	-132.006	44.688	0	1390.60	0	2.6550	0	34.4840	0	27.512	0	1374.761	0	24.3	4	7.5	4	-1E+10	1	-1E+10	1	-1E+10	1	-1E+10	1	-1E+10	1	-1E+10	1
4901784	30	C	04/30/2016	10:52	-132.006	44.688	0	1395.10	0	2.6510	0	34.4840	0	27.513	0	1379.195	0	24.6	4	7.5	4	-1E+10	1	-1E+10	1	-1E+10	1	-1E+10	1	-1E+10	1	-1E+10	1
4901784	30	C	04/30/2016	10:52	-132.006	44.688	0	1399.60	0	2.6440	0	34.4860	0	27.515	0	1383.629	0	24.9	4	7.6	4	-1E+10	1	-1E+10	1	-1E+10	1	-1E+10	1	-1E+10	1	-1E+10	1
4901784	30	C	04/30/2016	10:52	-132.006	44.688	0	1405.10	0	2.6310	0	34.4880	0	27.518	0	1389.048	0	25.2	4	7.7	4	-1E+10	1	-1E+10	1	-1E+10	1	-1E+10	1	-1E+10	1	-1E+10	1
4901784	30	C	04/30/2016	10:52	-132.006	44.688	0	1410.50	0	2.6260	0	34.4880	0	27.518	0	1394.369	0	25.4	4	7.8	4	-1E+10	1	-1E+10	1	-1E+10	1	-1E+10	1	-1E+10	1	-1E+10	1
4901784	30	C	04/30/2016	10:52	-132.006	44.688	0	1415.10	0	2.6110	0	34.4890	0	27.520	0	1398.901	0	25.7	4	7.9	4	-1E+10	1	-1E+10	1	-1E+10	1	-1E+10	1	-1E+10	1	-1E+10	1
4901784	30	C	04/30/2016	10:52	-132.006	44.688	0	1419.60	0	2.6020	0	34.4900	0	27.522	0	1403.335	0	26.0	4	8.0	4	-1E+10	1	-1E+10	1	-1E+10	1	-1E+10	1	-1E+10	1	-1E+10	1
4901784	30	C	04/30/2016	10:52	-132.006	44.688	0	1425.10	0	2.5870	0	34.4910	0	27.524	0	1408.753	0	26.4	4	8.1	4	-1E+10	1	-1E+10	1	-1E+10	1	-1E+10	1	-1E+10	1	-1E+10	1
4901784	30	C	04/30/2016	10:52	-132.006	44.688	0	1430.50	0	2.5800	0	34.4940	0	27.527	0	1414.073	0	26.9	4	8.2	4	-1E+10	1	-1E+10	1	-1E+10	1	-1E+10	1	-1E+10	1	-1E+10	1
4901784	30	C	04/30/2016	10:52	-132.006	44.688	0	1435.00	0	2.5740	0	34.4950	0	27.528	0	1418.506	0	27.2	4	8.3	4	-1E+10	1	-1E+10	1	-1E+10	1	-1E+10	1	-1E+10	1	-1E+10	1
4901784	30	C	04/30/2016	10:52	-132.006	44.688	0	1439.60	0	2.5630	0	34.4960	0	27.530	0	1423.038	0	27.5	4	8.4	4	-1E+10	1	-1E+10	1	-1E+10	1	-1E+10	1	-1E+10	1	-1E+10	1
4901784	30	C	04/30/2016	10:52	-132.006	44.688	0	1445.10	0	2.5490	0	34.4970	0	27.532	0	1428.456	0	27.9	4	8.5	4	-1E+10	1	-1E+10	1	-1E+10	1	-1E+10	1	-1E+10	1	-1E+10	1
4901784	30	C	04/30/2016	10:52	-132.006	44.688	0	1449.70	0	2.5340	0	34.4990	0	27.535	0	1432.988	0	28.2	4	8.6	4	-1E+10	1	-1E+10	1	-1E+10	1	-1E+10	1	-1E+10	1	-1E+10	1
4901784	30	C	04/30/2016	10:52	-132.006	44.688	0	1454.30	0	2.5260	0	34.4990	0	27.535	0	1437.519	0	28.3	4	8.7	4	-1E+10	1	-1E+10	1	-1E+10	1	-1E+10	1	-1E+10	1	-1E+10	1
4901784	30	C	04/30/2016	10:52	-132.006	44.688	0	1459.90	0	2.5170	0	34.5000	0	27.537	0	1443.035	0	28.6	4	8.7	4	-1E+10	1	-1E+10	1	-1E+10	1	-1E+10	1	-1E+10	1	-1E+10	1
4901784	30	C	04/30/2016	10:52	-132.006	44.688	0	1465.50	0	2.5050	0	34.5010	0	27.539	0	1448.551	0	28.8	4	8.8	4	-1E+10	1	-1E+10	1	-1E+10	1	-1E+10	1	-1E+10	1	-1E+10	1
4901784	30	C	04/30/2016	10:52	-132.006	44.688	0	1469.60	0	2.4960	0	34.5020	0	27.540	0	1452.590	0	28.9	4	8.8	4	-1E+10	1	-1E+10	1	-1E+10	1	-1E+10	1	-1E+10	1	-1E+10	1
4901784	30	C	04/30/2016	10:52	-132.006	44.688	0	1474.50	0	2.4840	0	34.5020	0	27.541	0	1457.416	0	29.1	4	8.9	4	-1E+10	1	-1E+10	1	-1E+10	1	-1E+10	1	-1E+10	1	-1E+10	1
4901784	30	C	04/30/2016	10:52	-132.006	44.688	0	1479.30	0	2.4750	0	34.5020	0	27.542	0	1462.144	0	29.4	4	9.0	4	-1E+10	1	-1E+10	1	-1E+10	1	-1E+10	1	-1E+10	1	-1E+10	1
4901784	30	C	04/30/2016	10:52	-132.006	44.688	0	1484.20	0	2.4690	0	34.5040	0	27.544	0	1466.970	0	29.8	4	9.1	4	-1E+10	1	-1E+10	1	-1E+10	1	-1E+10	1	-1E+10	1	-1E+10	1
4901784	30	C	04/30/2016	10:52	-132.006	44.688	0	1489.90	0	2.4590	0	34.5050	0	27.546	0	1472.584	0	30.2	4	9.2	4	-1E+10	1	-1E+10	1	-1E+10	1	-1E+10	1	-1E+10	1	-1E+10	1
4901784	30	C	04/30/2016	10:52	-132.006	44.688	0	1495.70	0	2.4420	0	34.5060	0	27.548	0	1478.296	0	30.5	4	9.3	4	-1E+10	1	-1E+10	1	-1E+10	1	-1E+10	1	-1E+10	1	-1E+10	1
4901784	30	C	04/30/2016	10:52	-132.006	44.688	0	1500.60	0	2.4330	0	34.5070	0	27.550	0	1483.122	0	31.0	4	9.4	4	-1E+10	1	-1E+10	1	-1E+10	1	-1E+10	1	-1E+10	1	-1E+10	1
4901784	30	C	04/30/2016	10:52	-132.006	44.688	0	1505.60	0	2.4280	0	34.5090	0	27.552	0	1488.046	0	31.4	4	9.6	4	-1E+10	1	-1E+10	1	-1E+10	1	-1E+10	1	-1E+10	1	-1E+10	1
4901784	30	C	04/30/2016	10:52	-132.006	44.688	0	1510.60	0	2.4240	0	34.5100	0	27.553	0	1492.970	0	31.7	4	9.7	4	-1E+10	1	-1E+10	1	-1E+10	1	-1E+10	1	-1E+10	1	-1E+10	1
4901784	30	C	04/30/2016	10:52	-132.006	44.688	0	1515.60	0	2.4150	0	34.5110	0	27.555	0	1497.894	0	32.1	4	9.8	4	-1E+10	1	-1E+10	1	-1E+10	1	-1E+10	1	-1E+10	1	-1E+10	1
4901784	30	C	04/30/2016	10:52	-132.006	44.688	0	1520.70	0	2.4030	0	34.5120	0	27.556	0	1502.917	0	32.3	4	9.8	4	-1E+10	1	-1E+10	1	-1E+10	1	-1E+10	1	-1E+10	1	-1E+10	1
4901784	30	C	04/30/2016	10:52	-132.006	44.688	0	1525.00	0	2.3910	0	34.5120	0	27.557	0	1507.151	0	32.4	4	9.9	4	-1E+10	1	-1E+10	1	-1E+10	1	-1E+10	1	-1E+10	1	-1E+10	1
4901784	30	C	04/30/2016	10:52	-132.006	44.688	0	1529.20	0	2.3790	0	34.5130	0	27.559	0	1511.287	0	32.7	4	10.0	4	-1E+10	1	-1E+10	1	-1E+10	1	-1E+10	1	-1E+10	1	-1E+10	1
4901784	30	C	04/30/2016	10:52	-132.006	44.688	0	1534.30	0	2.3710	0	34.5140	0	27.561	0	1516.309	0	33.1	4	10.1	4	-1E+10	1	-1E+10	1	-1E+10	1	-1E+10	1	-1E+10	1	-1E+10	1
4901784	30	C	04/30/2016	10:52	-132.006	44.688	0	1539.40	0	2.3600	0	34.5150	0	27.562	0	1521.331	0	33.4	4	10.1	4	-1E+10	1	-1E+10	1	-1E+10	1	-1E+10	1	-1E+10	1	-1E+10	1
4901784	30	C	04/30/2016	10:52	-132.006	44.688	0	1544.70	0	2.3530	0	34.5160	0	27.564	0	1526.549	0	33.7	4	10.2	4	-1E+10	1	-1E+10	1	-1E+10	1	-1E+10	1	-1E+10	1	-1E+10	1
4901784	30	C	04/30/2016	10:52	-132.006	44.688	0	1549.90	0	2.3510	0	34.5170	0	27.565	0	1531.670	0	34.1	4	10.4	4	-1E+10	1	-1E+10	1	-1E+10	1	-1E+10	1	-1E+10	1	-1E+10	1
4901784	30	C	04/30/2016	10:52	-132.006	44.688	0	1555.20	0	2.3480	0	34.5180	0	27.566	0	1536.888	0	34.4	4	10.5	4	-1E+10	1	-1E+10	1	-1E+10	1	-1E+10	1	-1E+10	1	-1E+10	1
4901784	30	C	04/30/2016	10:52	-132.006	44.688	0	1560.50	0	2.3430	0	34.5190	0	27.567	0	1542.106	0	34.8	4	10.6	4	-1E+10	1	-1E+10	1	-1E+10	1	-1E+10	1	-1E+10	1	-1E+10	1
4901784	30	C	04/30/2016	10:52	-132.006	44.688	0	1564.90	0	2.3330	0	34.5200	0	27.569	0	1546.438	0	35.1	4	10.7	4	-1E+10	1	-1E+10	1	-1E+10	1	-1E+10	1	-1E+10	1	-1E+10	1
4901784	30	C	04/30/2016	10:52	-132.006	44.688	0	1569.40	0	2.3200	0	34.5210	0	27.571	0	1550.869	0	35.3	4	10.7	4	-1E+10	1	-1E+10	1	-1E+10	1	-1E+10	1	-1E+10	1	-1E+10	1
4901784	30	C	04/30/2016	10:52	-132.006	44.688	0	1574.80	0	2.3100	0	34.5220	0	27.572	0	1556.185	0	35.7	4	10.8	4	-1E+10	1	-1E+10	1	-1E+10	1	-1E+10	1	-1E+10	1	-1E+10	1
4901784	30	C	04/30/2016	10:52	-132.006	44.688	0	1580.20	0	2.3070	0	34.5230	0	27.573	0	1561.501	0	36.0	4	10.9	4	-1E+10	1	-1E+10	1	-1E+10	1	-1E+10	1	-1E+10	1	-1E+10	1
4901784	30	C	04/30/2016	10:52	-132.006	44.688	0	1585.60	0	2.2980	0	34.5240	0	27.575	0	1566.818	0	36.2	4	11.0	4	-1E+10	1	-1E+10	1	-1E+10	1	-1E+10	1	-1E+10	1	-1E+10	1
4901784	30	C	04/30/2016	10:52	-132.006	44.688	0	1590.20	0	2.2930	0	34.5240	0	27.575	0	1571.346	0	36.3	4	11.0	4	-1E+10	1	-1E+10	1	-1E+10	1	-1E+10	1	-1E+10	1	-1E+10	1
4901784	30	C	04/30/2016	10:52	-132.006	44.688	0	1594.80	0	2.2900	0	34.5240	0	27.576	0	1575.874	0	36.4	4	11.1	4	-1E+10	1	-1E+10	1	-1E+10	1	-1E+10	1	-1E+10	1	-1E+10	1
4901784	30	C	04/30/2016	10:52	-132.006	44.688	0	1600.30	0	2.2830	0	34.5240	0	27.576	0	1581.289	0	36.7	4	11.1	4	-1E+10	1	-1E+10	1	-1E+10	1	-1E+10	1	-1E+10	1	-1E+10	1
4901784	30	C	04/30/2016	10:52	-132.006	44.688	0	1604.90	0	2.2770	0	34.5250	0	27.578	0	1585.817	0	37.0	4	11.2	4	-1E+10	1	-1E+10	1	-1E+10	1	-1E+10	1	-1E+10	1	-1E+10	1
4901784	30	C	04/30/2016	10:52	-132.006	44.688	0	1609.50	0	2.2690	0	34.5260	0	27.579	0	1590.345	0	37.3	4	11.3	4	-1E+10	1	-1E+10	1	-1E+10	1	-1E+10	1	-1E+10	1	-1E+10	1
4901784	30	C	04/30/2016	10:52	-132.006	44.688	0	1615.00	0	2.2580	0	34.5280	0	27.582	0	1595.759	0	37.8	4	11.5	4	-1E+10	1	-1E+10	1	-1E+10	1	-1E+10	1	-1E+10	1	-1E+10	1
4901784	30	C	04/30/2016	10:52	-132.006	44.688	0	1620.40	0	2.2530	0	34.5290	0	27.583	0	1601.074	0	38.2	4	11.6	4	-1E+10	1	-1E+10	1	-1E+10	1	-1E+10	1	-1E+10	1	-1E+10	1
4901784	30	C	04/30/2016	10:52	-132.006	44.688	0	1625.30	0	2.2470	0	34.5300	0	27.584	0	1605.897	0	38.6	4	11.7	4	-1E+10	1	-1E+10	1	-1E+10	1	-1E+10	1	-1E+10	1	-1E+10	1
4901784	30	C	04/30/2016	10:52	-132.006	44.688	0	1630.20	0	2.2380	0	34.5310	0	27.586	0	1610.720	0	38.8	4	11.8	4	-1E+10	1	-1E+10	1	-1E+10	1	-1E+10	1	-1E+10	1	-1E+10	1
4901784	30	C	04/30/2016	10:52	-132.006	44.688	0	1635.20	0	2.2280	0	34.5310	0	27.587	0	1615.641	0	39.0	4	11.8	4	-1E+10	1	-1E+10	1	-1E+10	1	-1E+10	1	-1E+10	1	-1E+10	1
4901784	30	C	04/30/2016	10:52	-132.006	44.688	0	1640.20	0	2.2230	0	34.5310	0	27.587	0	1620.562	0	39.2	4	11.9	4	-1E+10	1	-1E+10	1	-1E+10	1	-1E+10	1	-1E+10	1	-1E+10	1
4901784	30	C	04/30/2016	10:52	-132.006	44.688	0	1645.10	0	2.2180	0	34.5320	0	27.588	0	1625.384	0	39.5	4	12.0	4	-1E+10	1	-1E+10	1	-1E+10	1	-1E+10	1	-1E+10	1	-1E+10	1
4901784	30	C	04/30/2016	10:52	-132.006	44.688	0	1650.20	0	2.2130	0	34.5330	0	27.589	0	1630.404	0	39.8	4	12.1	4	-1E+10	1	-1E+10	1	-1E+10	1	-1E+10	1	-1E+10	1	-1E+10	1
4901784	30	C	04/30/2016	10:52	-132.006	44.688	0	1655.20	0	2.2020	0	34.5340	0	27.591	0	1635.324	0	40.1	4	12.1	4	-1E+10	1	-1E+10	1	-1E+10	1	-1E+10	1	-1E+10	1	-1E+10	1
4901784	30	C	04/30/2016	10:52	-132.006	44.688	0	1660.30	0	2.1950	0	34.5340	0	27.592	0	1640.344	0	40.3	4	12.2	4	-1E+10	1	-1E+10	1	-1E+10	1	-1E+10	1	-1E+10	1	-1E+10	1
4901784	30	C	04/30/2016	10:52	-132.006	44.688	0	1665.40	0	2.1890	0	34.5350	0	27.593	0	1645.362	0	40.6	4	12.3	4	-1E+10	1	-1E+10	1	-1E+10	1	-1E+10	1	-1E+10	1	-1E+10	1
4901784	30	C	04/30/2016	10:52	-132.006	44.688	0	1670.50	0	2.1860	0	34.5360	0	27.594	0	1650.381	0	40.9	4	12.4	4	-1E+10	1	-1E+10	1	-1E+10	1	-1E+10	1	-1E+10	1	-1E+10	1
4901784	30	C	04/30/2016	10:52	-132.006	44.688	0	1675.70	0	2.1850	0	34.5360	0	27.594	0	1655.498	0	41.1	4	12.4	4	-1E+10	1	-1E+10	1	-1E+10	1	-1E+10	1	-1E+10	1	-1E+10	1
4901784	30	C	04/30/2016	10:52	-132.006	44.688	0	1680.00	0	2.1790	0	34.5370	0	27.595	0	1659.730	0	41.4	4	12.5	4	-1E+10	1	-1E+10	1	-1E+10	1	-1E+10	1	-1E+10	1	-1E+10	1
4901784	30	C	04/30/2016	10:52	-132.006	44.688	0	1684.30	0	2.1740	0	34.5370	0	27.596	0	1663.961	0	41.6	4	12.6	4	-1E+10	1	-1E+10	1	-1E+10	1	-1E+10	1	-1E+10	1	-1E+10	1
4901784	30	C	04/30/2016	10:52	-132.006	44.688	0	1689.50	0	2.1690	0	34.5380	0	27.597	0	1669.078	0	42.0	4	12.7	4	-1E+10	1	-1E+10	1	-1E+10	1	-1E+10	1	-1E+10	1	-1E+10	1
4901784	30	C	04/30/2016	10:52	-132.006	44.688	0	1694.70	0	2.1620	0	34.5390	0	27.599	0	1674.194	0	42.4	4	12.8	4	-1E+10	1	-1E+10	1	-1E+10	1	-1E+10	1	-1E+10	1	-1E+10	1
4901784	30	C	04/30/2016	10:52	-132.006	44.688	0	1700.00	0	2.1580	0	34.5400	0	27.600	0	1679.409	0	42.7	4	12.9	4	-1E+10	1	-1E+10	1	-1E+10	1	-1E+10	1	-1E+10	1	-1E+10	1
4901784	30	C	04/30/2016	10:52	-132.006	44.688	0	1705.30	0	2.1520	0	34.5410	0	27.601	0	1684.624	0	43.0	4	13.0	4	-1E+10	1	-1E+10	1	-1E+10	1	-1E+10	1	-1E+10	1	-1E+10	1
4901784	30	C	04/30/2016	10:52	-132.006	44.688	0	1710.60	0	2.1470	0	34.5410	0	27.601	0	1689.839	0	43.4	4	13.1	4	-1E+10	1	-1E+10	1	-1E+10	1	-1E+10	1	-1E+10	1	-1E+10	1
4901784	30	C	04/30/2016	10:52	-132.006	44.688	0	1715.00	0	2.1420	0	34.5430	0	27.603	0	1694.168	0	43.8	4	13.2	4	-1E+10	1	-1E+10	1	-1E+10	1	-1E+10	1	-1E+10	1	-1E+10	1
4901784	30	C	04/30/2016	10:52	-132.006	44.688	0	1719.50	0	2.1350	0	34.5430	0	27.604	0	1698.595	0	44.1	4	13.3	4	-1E+10	1	-1E+10	1	-1E+10	1	-1E+10	1	-1E+10	1	-1E+10	1
4901784	30	C	04/30/2016	10:52	-132.006	44.688	0	1725.50	0	2.1280	0	34.5440	0	27.605	0	1704.498	0	44.6	4	13.5	4	-1E+10	1	-1E+10	1	-1E+10	1	-1E+10	1	-1E+10	1	-1E+10	1
4901784	30	C	04/30/2016	10:52	-132.006	44.688	0	1730.50	0	2.1220	0	34.5460	0	27.607	0	1709.417	0	45.1	4	13.6	4	-1E+10	1	-1E+10	1	-1E+10	1	-1E+10	1	-1E+10	1	-1E+10	1
4901784	30	C	04/30/2016	10:52	-132.006	44.688	0	1735.30	0	2.1160	0	34.5470	0	27.609	0	1714.139	0	45.5	4	13.7	4	-1E+10	1	-1E+10	1	-1E+10	1	-1E+10	1	-1E+10	1	-1E+10	1
4901784	30	C	04/30/2016	10:52	-132.006	44.688	0	1740.10	0	2.1080	0	34.5480	0	27.610	0	1718.861	0	45.9	4	13.9	4	-1E+10	1	-1E+10	1	-1E+10	1	-1E+10	1	-1E+10	1	-1E+10	1
4901784	30	C	04/30/2016	10:52	-132.006	44.688	0	1745.00	0	2.1020	0	34.5490	0	27.612	0	1723.681	0	46.1	4	13.9	4	-1E+10	1	-1E+10	1	-1E+10	1	-1E+10	1	-1E+10	1	-1E+10	1
4901784	30	C	04/30/2016	10:52	-132.006	44.688	0	1749.90	0	2.1000	0	34.5490	0	27.612	0	1728.502	0	46.3	4	14.0	4	-1E+10	1	-1E+10	1	-1E+10	1	-1E+10	1	-1E+10	1	-1E+10	1
4901784	30	C	04/30/2016	10:52	-132.006	44.688	0	1754.80	0	2.0930	0	34.5500	0	27.613	0	1733.322	0	46.6	4	14.1	4	-1E+10	1	-1E+10	1	-1E+10	1	-1E+10	1	-1E+10	1	-1E+10	1
4901784	30	C	04/30/2016	10:52	-132.006	44.688	0	1759.80	0	2.0890	0	34.5510	0	27.614	0	1738.240	0	46.9	4	14.2	4	-1E+10	1	-1E+10	1	-1E+10	1	-1E+10	1	-1E+10	1	-1E+10	1
4901784	30	C	04/30/2016	10:52	-132.006	44.688	0	1764.70	0	2.0840	0	34.5510	0	27.615	0	1743.060	0	47.1	4	14.2	4	-1E+10	1	-1E+10	1	-1E+10	1	-1E+10	1	-1E+10	1	-1E+10	1
4901784	30	C	04/30/2016	10:52	-132.006	44.688	0	1769.80	0	2.0810	0	34.5520	0	27.616	0	1748.076	0	47.4	4	14.3	4	-1E+10	1	-1E+10	1	-1E+10	1	-1E+10	1	-1E+10	1	-1E+10	1
4901784	30	C	04/30/2016	10:52	-132.006	44.688	0	1774.80	0	2.0780	0	34.5520	0	27.616	0	1752.994	0	47.6	4	14.4	4	-1E+10	1	-1E+10	1	-1E+10	1	-1E+10	1	-1E+10	1	-1E+10	1
4901784	30	C	04/30/2016	10:52	-132.006	44.688	0	1779.80	0	2.0710	0	34.5530	0	27.617	0	1757.912	0	47.8	4	14.4	4	-1E+10	1	-1E+10	1	-1E+10	1	-1E+10	1	-1E+10	1	-1E+10	1
4901784	30	C	04/30/2016	10:52	-132.006	44.688	0	1784.90	0	2.0670	0	34.5530	0	27.618	0	1762.928	0	47.8	4	14.4	4	-1E+10	1	-1E+10	1	-1E+10	1	-1E+10	1	-1E+10	1	-1E+10	1
4901784	30	C	04/30/2016	10:52	-132.006	44.688	0	1790.00	0	2.0660	0	34.5530	0	27.618	0	1767.944	0	47.9	4	14.5	4	-1E+10	1	-1E+10	1	-1E+10	1	-1E+10	1	-1E+10	1	-1E+10	1
4901784	30	C	04/30/2016	10:52	-132.006	44.688	0	1795.20	0	2.0610	0	34.5540	0	27.619	0	1773.059	0	48.0	4	14.5	4	-1E+10	1	-1E+10	1	-1E+10	1	-1E+10	1	-1E+10	1	-1E+10	1
4901784	30	C	04/30/2016	10:52	-132.006	44.688	0	1800.30	0	2.0560	0	34.5540	0	27.619	0	1778.074	0	48.3	4	14.6	4	-1E+10	1	-1E+10	1	-1E+10	1	-1E+10	1	-1E+10	1	-1E+10	1
4901784	30	C	04/30/2016	10:52	-132.006	44.688	0	1805.40	0	2.0520	0	34.5550	0	27.621	0	1783.090	0	48.8	4	14.7	4	-1E+10	1	-1E+10	1	-1E+10	1	-1E+10	1	-1E+10	1	-1E+10	1
4901784	30	C	04/30/2016	10:52	-132.006	44.688	0	1810.50	0	2.0490	0	34.5560	0	27.622	0	1788.106	0	49.1	4	14.8	4	-1E+10	1	-1E+10	1	-1E+10	1	-1E+10	1	-1E+10	1	-1E+10	1
4901784	30	C	04/30/2016	10:52	-132.006	44.688	0	1814.90	0	2.0480	0	34.5570	0	27.623	0	1792.433	0	49.3	4	14.9	4	-1E+10	1	-1E+10	1	-1E+10	1	-1E+10	1	-1E+10	1	-1E+10	1
4901784	30	C	04/30/2016	10:52	-132.006	44.688	0	1819.30	0	2.0470	0	34.5570	0	27.623	0	1796.760	0	49.4	4	14.9	4	-1E+10	1	-1E+10	1	-1E+10	1	-1E+10	1	-1E+10	1	-1E+10	1
4901784	30	C	04/30/2016	10:52	-132.006	44.688	0	1824.60	0	2.0450	0	34.5570	0	27.623	0	1801.971	0	49.6	4	15.0	4	-1E+10	1	-1E+10	1	-1E+10	1	-1E+10	1	-1E+10	1	-1E+10	1
4901784	30	C	04/30/2016	10:52	-132.006	44.688	0	1829.90	0	2.0430	0	34.5580	0	27.624	0	1807.183	0	50.1	4	15.1	4	-1E+10	1	-1E+10	1	-1E+10	1	-1E+10	1	-1E+10	1	-1E+10	1
4901784	30	C	04/30/2016	10:52	-132.006	44.688	0	1835.20	0	2.0370	0	34.5590	0	27.625	0	1812.395	0	50.4	4	15.2	4	-1E+10	1	-1E+10	1	-1E+10	1	-1E+10	1	-1E+10	1	-1E+10	1
4901784	30	C	04/30/2016	10:52	-132.006	44.688	0	1840.50	0	2.0340	0	34.5590	0	27.625	0	1817.606	0	50.6	4	15.3	4	-1E+10	1	-1E+10	1	-1E+10	1	-1E+10	1	-1E+10	1	-1E+10	1
4901784	30	C	04/30/2016	10:52	-132.006	44.688	0	1845.00	0	2.0310	0	34.5590	0	27.626	0	1822.031	0	50.8	4	15.3	4	-1E+10	1	-1E+10	1	-1E+10	1	-1E+10	1	-1E+10	1	-1E+10	1
4901784	30	C	04/30/2016	10:52	-132.006	44.688	0	1849.50	0	2.0280	0	34.5600	0	27.627	0	1826.456	0	51.0	4	15.4	4	-1E+10	1	-1E+10	1	-1E+10	1	-1E+10	1	-1E+10	1	-1E+10	1
4901784	30	C	04/30/2016	10:52	-132.006	44.688	0	1854.90	0	2.0240	0	34.5600	0	27.627	0	1831.765	0	51.3	4	15.5	4	-1E+10	1	-1E+10	1	-1E+10	1	-1E+10	1	-1E+10	1	-1E+10	1
4901784	30	C	04/30/2016	10:52	-132.006	44.688	0	1860.30	0	2.0180	0	34.5620	0	27.629	0	1837.074	0	51.7	4	15.6	4	-1E+10	1	-1E+10	1	-1E+10	1	-1E+10	1	-1E+10	1	-1E+10	1
4901784	30	C	04/30/2016	10:52	-132.006	44.688	0	1864.90	0	2.0160	0	34.5620	0	27.629	0	1841.597	0	51.8	4	15.6	4	-1E+10	1	-1E+10	1	-1E+10	1	-1E+10	1	-1E+10	1	-1E+10	1
4901784	30	C	04/30/2016	10:52	-132.006	44.688	0	1869.40	0	2.0140	0	34.5620	0	27.630	0	1846.021	0	52.0	4	15.7	4	-1E+10	1	-1E+10	1	-1E+10	1	-1E+10	1	-1E+10	1	-1E+10	1
4901784	30	C	04/30/2016	10:52	-132.006	44.688	0	1874.90	0	2.0120	0	34.5630	0	27.631	0	1851.429	0	52.3	4	15.8	4	-1E+10	1	-1E+10	1	-1E+10	1	-1E+10	1	-1E+10	1	-1E+10	1
4901784	30	C	04/30/2016	10:52	-132.006	44.688	0	1879.60	0	2.0080	0	34.5640	0	27.632	0	1856.049	0	52.7	4	15.9	4	-1E+10	1	-1E+10	1	-1E+10	1	-1E+10	1	-1E+10	1	-1E+10	1
4901784	30	C	04/30/2016	10:52	-132.006	44.688	0	1884.10	0	2.0030	0	34.5640	0	27.632	0	1860.473	0	53.0	4	16.0	4	-1E+10	1	-1E+10	1	-1E+10	1	-1E+10	1	-1E+10	1	-1E+10	1
4901784	30	C	04/30/2016	10:52	-132.006	44.688	0	1889.50	0	1.9990	0	34.5650	0	27.633	0	1865.782	0	53.3	4	16.1	4	-1E+10	1	-1E+10	1	-1E+10	1	-1E+10	1	-1E+10	1	-1E+10	1
4901784	30	C	04/30/2016	10:52	-132.006	44.688	0	1894.40	0	1.9970	0	34.5650	0	27.633	0	1870.599	0	53.7	4	16.2	4	-1E+10	1	-1E+10	1	-1E+10	1	-1E+10	1	-1E+10	1	-1E+10	1
4901784	30	C	04/30/2016	10:52	-132.006	44.688	0	1899.30	0	1.9900	0	34.5670	0	27.636	0	1875.416	0	54.1	4	16.3	4	-1E+10	1	-1E+10	1	-1E+10	1	-1E+10	1	-1E+10	1	-1E+10	1
4901784	30	C	04/30/2016	10:52	-132.006	44.688	0	1904.20	0	1.9870	0	34.5670	0	27.636	0	1880.232	0	54.3	4	16.4	4	-1E+10	1	-1E+10	1	-1E+10	1	-1E+10	1	-1E+10	1	-1E+10	1
4901784	30	C	04/30/2016	10:52	-132.006	44.688	0	1910.00	0	1.9830	0	34.5680	0	27.637	0	1885.934	0	54.7	4	16.5	4	-1E+10	1	-1E+10	1	-1E+10	1	-1E+10	1	-1E+10	1	-1E+10	1
4901784	30	C	04/30/2016	10:52	-132.006	44.688	0	1915.80	0	1.9810	0	34.5680	0	27.637	0	1891.635	0	54.9	4	16.6	4	-1E+10	1	-1E+10	1	-1E+10	1	-1E+10	1	-1E+10	1	-1E+10	1
4901784	30	C	04/30/2016	10:52	-132.006	44.688	0	1920.80	0	1.9770	0	34.5690	0	27.638	0	1896.550	0	55.2	4	16.6	4	-1E+10	1	-1E+10	1	-1E+10	1	-1E+10	1	-1E+10	1	-1E+10	1
4901784	30	C	04/30/2016	10:52	-132.006	44.688	0	1924.90	0	1.9750	0	34.5700	0	27.639	0	1900.580	0	55.4	4	16.7	4	-1E+10	1	-1E+10	1	-1E+10	1	-1E+10	1	-1E+10	1	-1E+10	1
4901784	30	C	04/30/2016	10:52	-132.006	44.688	0	1929.20	0	1.9730	0	34.5700	0	27.639	0	1904.806	0	55.6	4	16.8	4	-1E+10	1	-1E+10	1	-1E+10	1	-1E+10	1	-1E+10	1	-1E+10	1
4901784	30	C	04/30/2016	10:52	-132.006	44.688	0	1934.30	0	1.9690	0	34.5710	0	27.641	0	1909.819	0	55.9	4	16.8	4	-1E+10	1	-1E+10	1	-1E+10	1	-1E+10	1	-1E+10	1	-1E+10	1
4901784	30	C	04/30/2016	10:52	-132.006	44.688	0	1939.40	0	1.9660	0	34.5710	0	27.641	0	1914.831	0	56.1	4	16.9	4	-1E+10	1	-1E+10	1	-1E+10	1	-1E+10	1	-1E+10	1	-1E+10	1
4901784	30	C	04/30/2016	10:52	-132.006	44.688	0	1944.50	0	1.9640	0	34.5720	0	27.642	0	1919.844	0	56.4	4	17.0	4	-1E+10	1	-1E+10	1	-1E+10	1	-1E+10	1	-1E+10	1	-1E+10	1
4901784	30	C	04/30/2016	10:52	-132.006	44.688	0	1949.60	0	1.9600	0	34.5720	0	27.642	0	1924.856	0	56.6	4	17.1	4	-1E+10	1	-1E+10	1	-1E+10	1	-1E+10	1	-1E+10	1	-1E+10	1
4901784	30	C	04/30/2016	10:52	-132.006	44.688	0	1954.70	0	1.9570	0	34.5730	0	27.643	0	1929.868	0	56.9	4	17.1	4	-1E+10	1	-1E+10	1	-1E+10	1	-1E+10	1	-1E+10	1	-1E+10	1
4901784	30	C	04/30/2016	10:52	-132.006	44.688	0	1959.90	0	1.9540	0	34.5730	0	27.643	0	1934.978	0	57.1	4	17.2	4	-1E+10	1	-1E+10	1	-1E+10	1	-1E+10	1	-1E+10	1	-1E+10	1
4901784	30	C	04/30/2016	10:52	-132.006	44.688	0	1965.10	0	1.9510	0	34.5740	0	27.645	0	1940.089	0	57.4	4	17.3	4	-1E+10	1	-1E+10	1	-1E+10	1	-1E+10	1	-1E+10	1	-1E+10	1
4901784	30	C	04/30/2016	10:52	-132.006	44.688	0	1970.20	0	1.9470	0	34.5740	0	27.645	0	1945.100	0	57.6	4	17.3	4	-1E+10	1	-1E+10	1	-1E+10	1	-1E+10	1	-1E+10	1	-1E+10	1
4901784	30	C	04/30/2016	10:52	-132.006	44.688	0	1975.40	0	1.9450	0	34.5750	0	27.646	0	1950.210	0	57.8	4	17.4	4	-1E+10	1	-1E+10	1	-1E+10	1	-1E+10	1	-1E+10	1	-1E+10	1
4901784	30	C	04/30/2016	10:52	-132.006	44.688	0	1980.70	0	1.9430	0	34.5750	0	27.646	0	1955.418	0	58.0	4	17.5	4	-1E+10	1	-1E+10	1	-1E+10	1	-1E+10	1	-1E+10	1	-1E+10	1
4901784	30	C	04/30/2016	10:52	-132.006	44.688	0	1985.10	0	1.9410	0	34.5760	0	27.647	0	1959.742	0	58.1	4	17.5	4	-1E+10	1	-1E+10	1	-1E+10	1	-1E+10	1	-1E+10	1	-1E+10	1
4901784	30	C	04/30/2016	10:52	-132.006	44.688	0	1989.60	0	1.9400	0	34.5760	0	27.647	0	1964.164	0	58.3	4	17.5	4	-1E+10	1	-1E+10	1	-1E+10	1	-1E+10	1	-1E+10	1	-1E+10	1
4901784	30	C	04/30/2016	10:52	-132.006	44.688	0	1995.10	0	1.9380	0	34.5760	0	27.647	0	1969.568	0	58.5	4	17.6	4	-1E+10	1	-1E+10	1	-1E+10	1	-1E+10	1	-1E+10	1	-1E+10	1
4901784	30	C	04/30/2016	10:52	-132.006	44.688	0	2000.10	0	1.9360	0	34.5770	0	27.648	0	1974.481	0	58.6	4	17.7	4	-1E+10	1	-1E+10	1	-1E+10	1	-1E+10	1	-1E+10	1	-1E+10	1
4901784	30	C	04/30/2016	10:52	-132.006	44.688	0	2004.80	0	1.9340	0	34.5770	0	27.648	0	1979.099	0	58.8	4	17.7	4	-1E+10	1	-1E+10	1	-1E+10	1	-1E+10	1	-1E+10	1	-1E+10	1
4901784	30	C	04/30/2016	10:52	-132.006	44.688	0	2010.00	0	1.9320	0	34.5770	0	27.649	0	1984.208	0	58.9	4	17.7	4	-1E+10	1	-1E+10	1	-1E+10	1	-1E+10	1	-1E+10	1	-1E+10	1
4901784	30	C	04/30/2016	10:52	-132.006	44.688	0	2016.10	0	1.9290	0	34.5780	0	27.650	0	1990.201	0	58.7	4	17.7	4	-1E+10	1	-1E+10	1	-1E+10	1	-1E+10	1	-1E+10	1	-1E+10	1
4901784	30	C	04/30/2016	10:52	-132.006	44.688	0																										
4901784	31	C	05/10/2016	10:49	-132.003	44.749	0	2.50	0	12.0910	0	32.7050	0	24.791	0	2.480	0	265.0	4	99.2	4	-1E+10	1	-1E+10	1	-1E+10	1	-1E+10	1	-1E+10	1	-1E+10	1
4901784	31	C	05/10/2016	10:49	-132.003	44.749	0	4.30	0	12.0900	0	32.7040	0	24.790	0	4.265	0	264.8	4	99.1	4	-1E+10	1	-1E+10	1	-1E+10	1	-1E+10	1	-1E+10	1	-1E+10	1
4901784	31	C	05/10/2016	10:49	-132.003	44.749	0	4.70	0	12.0900	0	32.7050	0	24.791	0	4.662	0	264.9	4	99.2	4	-1E+10	1	-1E+10	1	-1E+10	1	-1E+10	1	-1E+10	1	-1E+10	1
4901784	31	C	05/10/2016	10:49	-132.003	44.749	0	6.10	0	12.0890	0	32.7040	0	24.790	0	6.051	0	264.8	4	99.1	4	-1E+10	1	-1E+10	1	-1E+10	1	-1E+10	1	-1E+10	1	-1E+10	1
4901784	31	C	05/10/2016	10:49	-132.003	44.749	0	7.40	0	12.0900	0	32.7050	0	24.791	0	7.340	0	264.8	4	99.1	4	-1E+10	1	-1E+10	1	-1E+10	1	-1E+10	1	-1E+10	1	-1E+10	1
4901784	31	C	05/10/2016	10:49	-132.003	44.749	0	8.80	0	12.0930	0	32.7040	0	24.790	0	8.729	0	264.8	4	99.2	4	-1E+10	1	-1E+10	1	-1E+10	1	-1E+10	1	-1E+10	1	-1E+10	1
4901784	31	C	05/10/2016	10:49	-132.003	44.749	0	10.20	0	12.0940	0	32.7040	0	24.790	0	10.117	0	264.7	4	99.1	4	-1E+10	1	-1E+10	1	-1E+10	1	-1E+10	1	-1E+10	1	-1E+10	1
4901784	31	C	05/10/2016	10:49	-132.003	44.749	0	11.80	0	12.0920	0	32.7040	0	24.790	0	11.704	0	264.6	4	99.1	4	-1E+10	1	-1E+10	1	-1E+10	1	-1E+10	1	-1E+10	1	-1E+10	1
4901784	31	C	05/10/2016	10:49	-132.003	44.749	0	13.50	0	12.0910	0	32.7030	0	24.789	0	13.390	0	264.6	4	99.1	4	-1E+10	1	-1E+10	1	-1E+10	1	-1E+10	1	-1E+10	1	-1E+10	1
4901784	31	C	05/10/2016	10:49	-132.003	44.749	0	15.20	0	12.0890	0	32.7030	0	24.790	0	15.076	0	264.4	4	99.0	4	-1E+10	1	-1E+10	1	-1E+10	1	-1E+10	1	-1E+10	1	-1E+10	1
4901784	31	C	05/10/2016	10:49	-132.003	44.749	0	16.80	0	12.0880	0	32.7010	0	24.788	0	16.663	0	264.3	4	99.0	4	-1E+10	1	-1E+10	1	-1E+10	1	-1E+10	1	-1E+10	1	-1E+10	1
4901784	31	C	05/10/2016	10:49	-132.003	44.749	0	18.50	0	12.0840	0	32.7010	0	24.789	0	18.349	0	264.3	4	98.9	4	-1E+10	1	-1E+10	1	-1E+10	1	-1E+10	1	-1E+10	1	-1E+10	1
4901784	31	C	05/10/2016	10:49	-132.003	44.749	0	20.00	0	12.0760	0	32.6990	0	24.789	0	19.837	0	263.9	4	98.8	4	-1E+10	1	-1E+10	1	-1E+10	1	-1E+10	1	-1E+10	1	-1E+10	1
4901784	31	C	05/10/2016	10:49	-132.003	44.749	0	21.60	0	12.0670	0	32.6970	0	24.789	0	21.424	0	263.8	4	98.7	4	-1E+10	1	-1E+10	1	-1E+10	1	-1E+10	1	-1E+10	1	-1E+10	1
4901784	31	C	05/10/2016	10:49	-132.003	44.749	0	23.20	0	12.0500	0	32.6930	0	24.790	0	23.011	0	263.2	4	98.5	4	-1E+10	1	-1E+10	1	-1E+10	1	-1E+10	1	-1E+10	1	-1E+10	1
4901784	31	C	05/10/2016	10:49	-132.003	44.749	0	24.70	0	11.9440	0	32.6920	0	24.809	0	24.499	0	262.9	4	98.1	4	-1E+10	1	-1E+10	1	-1E+10	1	-1E+10	1	-1E+10	1	-1E+10	1
4901784	31	C	05/10/2016	10:49	-132.003	44.749	0	26.40	0	11.5950	0	32.6940	0	24.874	0	26.185	0	263.3	4	97.6	4	-1E+10	1	-1E+10	1	-1E+10	1	-1E+10	1	-1E+10	1	-1E+10	1
4901784	31	C	05/10/2016	10:49	-132.003	44.749	0	28.10	0	11.4130	0	32.6940	0	24.908	0	27.871	0	263.5	4	97.3	4	-1E+10	1	-1E+10	1	-1E+10	1	-1E+10	1	-1E+10	1	-1E+10	1
4901784	31	C	05/10/2016	10:49	-132.003	44.749	0	29.80	0	11.1890	0	32.6970	0	24.950	0	29.557	0	263.1	4	96.7	4	-1E+10	1	-1E+10	1	-1E+10	1	-1E+10	1	-1E+10	1	-1E+10	1
4901784	31	C	05/10/2016	10:49	-132.003	44.749	0	31.60	0	11.0520	0	32.7100	0	24.985	0	31.342	0	263.0	4	96.4	4	-1E+10	1	-1E+10	1	-1E+10	1	-1E+10	1	-1E+10	1	-1E+10	1
4901784	31	C	05/10/2016	10:49	-132.003	44.749	0	33.30	0	11.0020	0	32.7130	0	24.996	0	33.028	0	262.8	4	96.2	4	-1E+10	1	-1E+10	1	-1E+10	1	-1E+10	1	-1E+10	1	-1E+10	1
4901784	31	C	05/10/2016	10:49	-132.003	44.749	0	35.10	0	10.9500	0	32.7170	0	25.008	0	34.813	0	263.1	4	96.2	4	-1E+10	1	-1E+10	1	-1E+10	1	-1E+10	1	-1E+10	1	-1E+10	1
4901784	31	C	05/10/2016	10:49	-132.003	44.749	0	36.70	0	10.9000	0	32.7200	0	25.019	0	36.400	0	263.8	4	96.4	4	-1E+10	1	-1E+10	1	-1E+10	1	-1E+10	1	-1E+10	1	-1E+10	1
4901784	31	C	05/10/2016	10:49	-132.003	44.749	0	38.60	0	10.7640	0	32.7420	0	25.060	0	38.284	0	264.3	4	96.3	4	-1E+10	1	-1E+10	1	-1E+10	1	-1E+10	1	-1E+10	1	-1E+10	1
4901784	31	C	05/10/2016	10:49	-132.003	44.749	0	40.40	0	10.7210	0	32.7440	0	25.069	0	40.069	0	264.3	4	96.2	4	-1E+10	1	-1E+10	1	-1E+10	1	-1E+10	1	-1E+10	1	-1E+10	1
4901784	31	C	05/10/2016	10:49	-132.003	44.749	0	42.30	0	10.6950	0	32.7450	0	25.075	0	41.953	0	264.0	4	96.0	4	-1E+10	1	-1E+10	1	-1E+10	1	-1E+10	1	-1E+10	1	-1E+10	1
4901784	31	C	05/10/2016	10:49	-132.003	44.749	0	44.10	0	10.6790	0	32.7450	0	25.077	0	43.738	0	263.7	4	95.9	4	-1E+10	1	-1E+10	1	-1E+10	1	-1E+10	1	-1E+10	1	-1E+10	1
4901784	31	C	05/10/2016	10:49	-132.003	44.749	0	45.80	0	10.5940	0	32.7550	0	25.100	0	45.424	0	263.6	4	95.7	4	-1E+10	1	-1E+10	1	-1E+10	1	-1E+10	1	-1E+10	1	-1E+10	1
4901784	31	C	05/10/2016	10:49	-132.003	44.749	0	47.60	0	10.5670	0	32.7510	0	25.102	0	47.209	0	263.6	4	95.6	4	-1E+10	1	-1E+10	1	-1E+10	1	-1E+10	1	-1E+10	1	-1E+10	1
4901784	31	C	05/10/2016	10:49	-132.003	44.749	0	49.30	0	10.5220	0	32.7530	0	25.111	0	48.895	0	263.4	4	95.4	4	-1E+10	1	-1E+10	1	-1E+10	1	-1E+10	1	-1E+10	1	-1E+10	1
4901784	31	C	05/10/2016	10:49	-132.003	44.749	0	51.10	0	10.5000	0	32.7540	0	25.115	0	50.680	0	262.9	4	95.2	4	-1E+10	1	-1E+10	1	-1E+10	1	-1E+10	1	-1E+10	1	-1E+10	1
4901784	31	C	05/10/2016	10:49	-132.003	44.749	0	52.90	0	10.4810	0	32.7540	0	25.119	0	52.465	0	262.7	4	95.1	4	-1E+10	1	-1E+10	1	-1E+10	1	-1E+10	1	-1E+10	1	-1E+10	1
4901784	31	C	05/10/2016	10:49	-132.003	44.749	0	54.60	0	10.4500	0	32.7530	0	25.123	0	54.151	0	262.4	4	94.9	4	-1E+10	1	-1E+10	1	-1E+10	1	-1E+10	1	-1E+10	1	-1E+10	1
4901784	31	C	05/10/2016	10:49	-132.003	44.749	0	56.50	0	10.3970	0	32.7590	0	25.137	0	56.035	0	262.0	4	94.7	4	-1E+10	1	-1E+10	1	-1E+10	1	-1E+10	1	-1E+10	1	-1E+10	1
4901784	31	C	05/10/2016	10:49	-132.003	44.749	0	58.30	0	10.3370	0	32.7660	0	25.153	0	57.820	0	262.6	4	94.8	4	-1E+10	1	-1E+10	1	-1E+10	1	-1E+10	1	-1E+10	1	-1E+10	1
4901784	31	C	05/10/2016	10:49	-132.003	44.749	0	60.10	0	10.2670	0	32.7720	0	25.169	0	59.605	0	264.2	4	95.2	4	-1E+10	1	-1E+10	1	-1E+10	1	-1E+10	1	-1E+10	1	-1E+10	1
4901784	31	C	05/10/2016	10:49	-132.003	44.749	0	62.00	0	10.2770	0	32.7860	0	25.179	0	61.489	0	264.6	4	95.4	4	-1E+10	1	-1E+10	1	-1E+10	1	-1E+10	1	-1E+10	1	-1E+10	1
4901784	31	C	05/10/2016	10:49	-132.003	44.749	0	63.80	0	10.2610	0	32.7970	0	25.190	0	63.274	0	264.1	4	95.2	4	-1E+10	1	-1E+10	1	-1E+10	1	-1E+10	1	-1E+10	1	-1E+10	1
4901784	31	C	05/10/2016	10:49	-132.003	44.749	0	65.60	0	10.2050	0	32.7980	0	25.200	0	65.059	0	264.0	4	95.0	4	-1E+10	1	-1E+10	1	-1E+10	1	-1E+10	1	-1E+10	1	-1E+10	1
4901784	31	C	05/10/2016	10:49	-132.003	44.749	0	67.40	0	10.1390	0	32.7860	0	25.202	0	66.844	0	264.1	4	95.0	4	-1E+10	1	-1E+10	1	-1E+10	1	-1E+10	1	-1E+10	1	-1E+10	1
4901784	31	C	05/10/2016	10:49	-132.003	44.749	0	69.30	0	10.1110	0	32.7830	0	25.204	0	68.728	0	263.7	4	94.7	4	-1E+10	1	-1E+10	1	-1E+10	1	-1E+10	1	-1E+10	1	-1E+10	1
4901784	31	C	05/10/2016	10:49	-132.003	44.749	0	71.10	0	10.0810	0	32.7790	0	25.206	0	70.512	0	263.2	4	94.5	4	-1E+10	1	-1E+10	1	-1E+10	1	-1E+10	1	-1E+10	1	-1E+10	1
4901784	31	C	05/10/2016	10:49	-132.003	44.749	0	73.00	0	9.9650	0	32.7690	0	25.218	0	72.396	0	262.7	4	94.1	4	-1E+10	1	-1E+10	1	-1E+10	1	-1E+10	1	-1E+10	1	-1E+10	1
4901784	31	C	05/10/2016	10:49	-132.003	44.749	0	74.80	0	9.9430	0	32.7700	0	25.222	0	74.181	0	261.8	4	93.7	4	-1E+10	1	-1E+10	1	-1E+10	1	-1E+10	1	-1E+10	1	-1E+10	1
4901784	31	C	05/10/2016	10:49	-132.003	44.749	0	77.00	0	9.8830	0	32.7780	0	25.238	0	76.362	0	260.4	4	93.1	4	-1E+10	1	-1E+10	1	-1E+10	1	-1E+10	1	-1E+10	1	-1E+10	1
4901784	31	C	05/10/2016	10:49	-132.003	44.749	0	77.50	0	9.8640	0	32.7860	0	25.248	0	76.858	0	260.1	4	92.9	4	-1E+10	1	-1E+10	1	-1E+10	1	-1E+10	1	-1E+10	1	-1E+10	1
4901784	31	C	05/10/2016	10:49	-132.003	44.749	0	79.20	0	9.8490	0	32.8000	0	25.261	0	78.544	0	258.9	4	92.5	4	-1E+10	1	-1E+10	1	-1E+10	1	-1E+10	1	-1E+10	1	-1E+10	1
4901784	31	C	05/10/2016	10:49	-132.003	44.749	0	80.80	0	9.8570	0	32.8150	0	25.272	0	80.130	0	257.5	4	92.0	4	-1E+10	1	-1E+10	1	-1E+10	1	-1E+10	1	-1E+10	1	-1E+10	1
4901784	31	C	05/10/2016	10:49	-132.003	44.749	0	82.30	0	9.8640	0	32.8230	0	25.277	0	81.618	0	256.2	4	91.6	4	-1E+10	1	-1E+10	1	-1E+10	1	-1E+10	1	-1E+10	1	-1E+10	1
4901784	31	C	05/10/2016	10:49	-132.003	44.749	0	83.90	0	9.8730	0	32.8400	0	25.289	0	83.204	0	254.4	4	91.0	4	-1E+10	1	-1E+10	1	-1E+10	1	-1E+10	1	-1E+10	1	-1E+10	1
4901784	31	C	05/10/2016	10:49	-132.003	44.749	0	85.50	0	9.8680	0	32.8480	0	25.296	0	84.790	0	253.4	4	90.6	4	-1E+10	1	-1E+10	1	-1E+10	1	-1E+10	1	-1E+10	1	-1E+10	1
4901784	31	C	05/10/2016	10:49	-132.003	44.749	0	87.00	0	9.8710	0	32.8540	0	25.300	0	86.278	0	252.0	4	90.1	4	-1E+10	1	-1E+10	1	-1E+10	1	-1E+10	1	-1E+10	1	-1E+10	1
4901784	31	C	05/10/2016	10:49	-132.003	44.749	0	88.50	0	9.8740	0	32.8590	0	25.303	0	87.765	0	250.5	4	89.6	4	-1E+10	1	-1E+10	1	-1E+10	1	-1E+10	1	-1E+10	1	-1E+10	1
4901784	31	C	05/10/2016	10:49	-132.003	44.749	0	90.10	0	9.8500	0	32.8700	0	25.316	0	89.351	0	248.8	4	88.9	4	-1E+10	1	-1E+10	1	-1E+10	1	-1E+10	1	-1E+10	1	-1E+10	1
4901784	31	C	05/10/2016	10:49	-132.003	44.749	0	91.70	0	9.7870	0	32.8710	0	25.327	0	90.938	0	247.1	4	88.2	4	-1E+10	1	-1E+10	1	-1E+10	1	-1E+10	1	-1E+10	1	-1E+10	1
4901784	31	C	05/10/2016	10:49	-132.003	44.749	0	93.20	0	9.7600	0	32.8680	0	25.329	0	92.425	0	245.0	4	87.4	4	-1E+10	1	-1E+10	1	-1E+10	1	-1E+10	1	-1E+10	1	-1E+10	1
4901784	31	C	05/10/2016	10:49	-132.003	44.749	0	94.80	0	9.6990	0	32.8620	0	25.335	0	94.011	0	242.2	4	86.3	4	-1E+10	1	-1E+10	1	-1E+10	1	-1E+10	1	-1E+10	1	-1E+10	1
4901784	31	C	05/10/2016	10:49	-132.003	44.749	0	96.30	0	9.5880	0	32.8810	0	25.368	0	95.498	0	238.7	4	84.8	4	-1E+10	1	-1E+10	1	-1E+10	1	-1E+10	1	-1E+10	1	-1E+10	1
4901784	31	C	05/10/2016	10:49	-132.003	44.749	0	98.00	0	9.5230	0	32.9250	0	25.412	0	97.184	0	235.5	4	83.6	4	-1E+10	1	-1E+10	1	-1E+10	1	-1E+10	1	-1E+10	1	-1E+10	1
4901784	31	C	05/10/2016	10:49	-132.003	44.749	0	99.70	0	9.5270	0	32.9390	0	25.423	0	98.869	0	232.2	4	82.5	4	-1E+10	1	-1E+10	1	-1E+10	1	-1E+10	1	-1E+10	1	-1E+10	1
4901784	31	C	05/10/2016	10:49	-132.003	44.749	0	102.20	0	9.4640	0	33.0020	0	25.482	0	101.348	0	226.8	4	80.5	4	-1E+10	1	-1E+10	1	-1E+10	1	-1E+10	1	-1E+10	1	-1E+10	1
4901784	31	C	05/10/2016	10:49	-132.003	44.749	0	104.70	0	9.3600	0	33.0520	0	25.538	0	103.826	0	222.6	4	78.8	4	-1E+10	1	-1E+10	1	-1E+10	1	-1E+10	1	-1E+10	1	-1E+10	1
4901784	31	C	05/10/2016	10:49	-132.003	44.749	0	107.50	0	9.3160	0	33.1400	0	25.614	0	106.602	0	217.1	4	76.8	4	-1E+10	1	-1E+10	1	-1E+10	1	-1E+10	1	-1E+10	1	-1E+10	1
4901784	31	C	05/10/2016	10:49	-132.003	44.749	0	110.20	0	9.1530	0	33.2020	0	25.688	0	109.279	0	212.8	4	75.1	4	-1E+10	1	-1E+10	1	-1E+10	1	-1E+10	1	-1E+10	1	-1E+10	1
4901784	31	C	05/10/2016	10:49	-132.003	44.749	0	112.40	0	9.1150	0	33.2650	0	25.744	0	111.460	0	209.1	4	73.8	4	-1E+10	1	-1E+10	1	-1E+10	1	-1E+10	1	-1E+10	1	-1E+10	1
4901784	31	C	05/10/2016	10:49	-132.003	44.749	0	115.30	0	9.0700	0	33.3230	0	25.796	0	114.335	0	204.7	4	72.2	4	-1E+10	1	-1E+10	1	-1E+10	1	-1E+10	1	-1E+10	1	-1E+10	1
4901784	31	C	05/10/2016	10:49	-132.003	44.749	0	117.60	0	9.0260	0	33.3650	0	25.836	0	116.615	0	201.4	4	71.0	4	-1E+10	1	-1E+10	1	-1E+10	1	-1E+10	1	-1E+10	1	-1E+10	1
4901784	31	C	05/10/2016	10:49	-132.003	44.749	0	119.90	0	8.8930	0	33.4150	0	25.896	0	118.895	0	199.1	4	70.0	4	-1E+10	1	-1E+10	1	-1E+10	1	-1E+10	1	-1E+10	1	-1E+10	1
4901784	31	C	05/10/2016	10:49	-132.003	44.749	0	122.20	0	8.8080	0	33.4410	0	25.930	0	121.175	0	197.7	4	69.4	4	-1E+10	1	-1E+10	1	-1E+10	1	-1E+10	1	-1E+10	1	-1E+10	1
4901784	31	C	05/10/2016	10:49	-132.003	44.749	0	124.60	0	8.7230	0	33.4690	0	25.965	0	123.554	0	196.5	4	68.8	4	-1E+10	1	-1E+10	1	-1E+10	1	-1E+10	1	-1E+10	1	-1E+10	1
4901784	31	C	05/10/2016	10:49	-132.003	44.749	0	127.80	0	8.5990	0	33.5330	0	26.034	0	126.726	0	195.0	4	68.2	4	-1E+10	1	-1E+10	1	-1E+10	1	-1E+10	1	-1E+10	1	-1E+10	1
4901784	31	C	05/10/2016	10:49	-132.003	44.749	0	130.30	0	8.5510	0	33.5520	0	26.056	0	129.205	0	193.4	4	67.5	4	-1E+10	1	-1E+10	1	-1E+10	1	-1E+10	1	-1E+10	1	-1E+10	1
4901784	31	C	05/10/2016	10:49	-132.003	44.749	0	132.80	0	8.4570	0	33.5970	0	26.106	0	131.683	0	192.5	4	67.1	4	-1E+10	1	-1E+10	1	-1E+10	1	-1E+10	1	-1E+10	1	-1E+10	1
4901784	31	C	05/10/2016	10:49	-132.003	44.749	0	135.40	0	8.3710	0	33.6610	0	26.169	0	134.260	0	192.3	4	66.9	4	-1E+10	1	-1E+10	1	-1E+10	1	-1E+10	1	-1E+10	1	-1E+10	1
4901784	31	C	05/10/2016	10:49	-132.003	44.749	0	137.10	0	8.3460	0	33.6800	0	26.188	0	135.945	0	191.8	4	66.7	4	-1E+10	1	-1E+10	1	-1E+10	1	-1E+10	1	-1E+10	1	-1E+10	1
4901784	31	C	05/10/2016	10:49	-132.003	44.749	0	139.70	0	8.3330	0	33.6920	0	26.199	0	138.522	0	191.0	4	66.4	4	-1E+10	1	-1E+10	1	-1E+10	1	-1E+10	1	-1E+10	1	-1E+10	1
4901784	31	C	05/10/2016	10:49	-132.003	44.749	0	142.40	0	8.2970	0	33.7110	0	26.220	0	141.199	0	189.6	4	65.9	4	-1E+10	1	-1E+10	1	-1E+10	1	-1E+10	1	-1E+10	1	-1E+10	1
4901784	31	C	05/10/2016	10:49	-132.003	44.749	0	145.00	0	8.2480	0	33.7380	0	26.248	0	143.776	0	188.6	4	65.5	4	-1E+10	1	-1E+10	1	-1E+10	1	-1E+10	1	-1E+10	1	-1E+10	1
4901784	31	C	05/10/2016	10:49	-132.003	44.749	0	147.70	0	8.2060	0	33.7570	0	26.270	0	146.452	0	187.8	4	65.2	4	-1E+10	1	-1E+10	1	-1E+10	1	-1E+10	1	-1E+10	1	-1E+10	1
4901784	31	C	05/10/2016	10:49	-132.003	44.749	0	149.50	0	8.1720	0	33.7720	0	26.286	0	148.236	0	187.3	4	65.0	4	-1E+10	1	-1E+10	1	-1E+10	1	-1E+10	1	-1E+10	1	-1E+10	1
4901784	31	C	05/10/2016	10:49	-132.003	44.749	0	152.20	0	8.1640	0	33.7750	0	26.290	0	150.912	0	186.6	4	64.7	4	-1E+10	1	-1E+10	1	-1E+10	1	-1E+10	1	-1E+10	1	-1E+10	1
4901784	31	C	05/10/2016	10:49	-132.003	44.749	0	154.90	0	8.1460	0	33.7810	0	26.297	0	153.589	0	185.8	4	64.4	4	-1E+10	1	-1E+10	1	-1E+10	1	-1E+10	1	-1E+10	1	-1E+10	1
4901784	31	C	05/10/2016	10:49	-132.003	44.749	0	157.60	0	8.0990	0	33.7970	0	26.317	0	156.265	0	184.7	4	64.0	4	-1E+10	1	-1E+10	1	-1E+10	1	-1E+10	1	-1E+10	1	-1E+10	1
4901784	31	C	05/10/2016	10:49	-132.003	44.749	0	160.40	0	8.0670	0	33.8050	0	26.328	0	159.040	0	183.9	4	63.6	4	-1E+10	1	-1E+10	1	-1E+10	1	-1E+10	1	-1E+10	1	-1E+10	1
4901784	31	C	05/10/2016	10:49	-132.003	44.749	0	162.30	0	8.0420	0	33.8110	0	26.337	0	160.923	0	183.3	4	63.4	4	-1E+10	1	-1E+10	1	-1E+10	1	-1E+10	1	-1E+10	1	-1E+10	1
4901784	31	C	05/10/2016	10:49	-132.003	44.749	0	165.00	0	7.9900	0	33.8230	0	26.354	0	163.599	0	182.2	4	62.9	4	-1E+10	1	-1E+10	1	-1E+10	1	-1E+10	1	-1E+10	1	-1E+10	1
4901784	31	C	05/10/2016	10:49	-132.003	44.749	0	167.70	0	7.9530	0	33.8300	0	26.365	0	166.275	0	181.3	4	62.6	4	-1E+10	1	-1E+10	1	-1E+10	1	-1E+10	1	-1E+10	1	-1E+10	1
4901784	31	C	05/10/2016	10:49	-132.003	44.749	0	169.60	0	7.9190	0	33.8360	0	26.374	0	168.158	0	180.7	4	62.3	4	-1E+10	1	-1E+10	1	-1E+10	1	-1E+10	1	-1E+10	1	-1E+10	1
4901784	31	C	05/10/2016	10:49	-132.003	44.749	0	172.40	0	7.8500	0	33.8490	0	26.395	0	170.933	0	179.4	4	61.8	4	-1E+10	1	-1E+10	1	-1E+10	1	-1E+10	1	-1E+10	1	-1E+10	1
4901784	31	C	05/10/2016	10:49	-132.003	44.749	0	175.20	0	7.8050	0	33.8540	0	26.405	0	173.708	0	178.3	4	61.3	4	-1E+10	1	-1E+10	1	-1E+10	1	-1E+10	1	-1E+10	1	-1E+10	1
4901784	31	C	05/10/2016	10:49	-132.003	44.749	0	177.10	0	7.7840	0	33.8540	0	26.408	0	175.591	0	177.3	4	61.0	4	-1E+10	1	-1E+10	1	-1E+10	1	-1E+10	1	-1E+10	1	-1E+10	1
4901784	31	C	05/10/2016	10:49	-132.003	44.749	0	179.90	0	7.7310	0	33.8590	0	26.420	0	178.366	0	175.6	4	60.3	4	-1E+10	1	-1E+10	1	-1E+10	1	-1E+10	1	-1E+10	1	-1E+10	1
4901784	31	C	05/10/2016	10:49	-132.003	44.749	0	182.80	0	7.6690	0	33.8630	0	26.432	0	181.240	0	173.8	4	59.6	4	-1E+10	1	-1E+10	1	-1E+10	1	-1E+10	1	-1E+10	1	-1E+10	1
4901784	31	C	05/10/2016	10:49	-132.003	44.749	0	184.60	0	7.6000	0	33.8630	0	26.442	0	183.024	0	173.1	4	59.3	4	-1E+10	1	-1E+10	1	-1E+10	1	-1E+10	1	-1E+10	1	-1E+10	1
4901784	31	C	05/10/2016	10:49	-132.003	44.749	0	187.50	0	7.5710	0	33.8630	0	26.446	0	185.898	0	172.2	4	59.0	4	-1E+10	1	-1E+10	1	-1E+10	1	-1E+10	1	-1E+10	1	-1E+10	1
4901784	31	C	05/10/2016	10:49	-132.003	44.749	0	190.40	0	7.5490	0	33.8620	0	26.448	0	188.772	0	171.0	4	58.5	4	-1E+10	1	-1E+10	1	-1E+10	1	-1E+10	1	-1E+10	1	-1E+10	1
4901784	31	C	05/10/2016	10:49	-132.003	44.749	0	192.40	0	7.5060	0	33.8650	0	26.457	0	190.754	0	170.2	4	58.2	4	-1E+10	1	-1E+10	1	-1E+10	1	-1E+10	1	-1E+10	1	-1E+10	1
4901784	31	C	05/10/2016	10:49	-132.003	44.749	0	195.30	0	7.4830	0	33.8670	0	26.462	0	193.628	0	168.9	4	57.7	4	-1E+10	1	-1E+10	1	-1E+10	1	-1E+10	1	-1E+10	1	-1E+10	1
4901784	31	C	05/10/2016	10:49	-132.003	44.749	0	198.20	0	7.4310	0	33.8660	0	26.468	0	196.501	0	167.4	4	57.1	4	-1E+10	1	-1E+10	1	-1E+10	1	-1E+10	1	-1E+10	1	-1E+10	1
4901784	31	C	05/10/2016	10:49	-132.003	44.749	0	200.10	0	7.3840	0	33.8690	0	26.477	0	198.384	0	166.2	4	56.7	4	-1E+10	1	-1E+10	1	-1E+10	1	-1E+10	1	-1E+10	1	-1E+10	1
4901784	31	C	05/10/2016	10:49	-132.003	44.749	0	202.60	0	7.3460	0	33.8690	0	26.483	0	200.862	0	165.3	4	56.3	4	-1E+10	1	-1E+10	1	-1E+10	1	-1E+10	1	-1E+10	1	-1E+10	1
4901784	31	C	05/10/2016	10:49	-132.003	44.749	0	205.40	0	7.3040	0	33.8670	0	26.487	0	203.636	0	163.5	4	55.7	4	-1E+10	1	-1E+10	1	-1E+10	1	-1E+10	1	-1E+10	1	-1E+10	1
4901784	31	C	05/10/2016	10:49	-132.003	44.749	0	207.80	0	7.2550	0	33.8680	0	26.495	0	206.014	0	162.3	4	55.2	4	-1E+10	1	-1E+10	1	-1E+10	1	-1E+10	1	-1E+10	1	-1E+10	1
4901784	31	C	05/10/2016	10:49	-132.003	44.749	0	210.30	0	7.2100	0	33.8680	0	26.501	0	208.492	0	160.7	4	54.6	4	-1E+10	1	-1E+10	1	-1E+10	1	-1E+10	1	-1E+10	1	-1E+10	1
4901784	31	C	05/10/2016	10:49	-132.003	44.749	0	212.80	0	7.1450	0	33.8690	0	26.511	0	210.969	0	159.1	4	53.9	4	-1E+10	1	-1E+10	1	-1E+10	1	-1E+10	1	-1E+10	1	-1E+10	1
4901784	31	C	05/10/2016	10:49	-132.003	44.749	0	215.30	0	7.1180	0	33.8680	0	26.514	0	213.446	0	157.3	4	53.3	4	-1E+10	1	-1E+10	1	-1E+10	1	-1E+10	1	-1E+10	1	-1E+10	1
4901784	31	C	05/10/2016	10:49	-132.003	44.749	0	217.80	0	7.0910	0	33.8660	0	26.516	0	215.923	0	154.9	4	52.4	4	-1E+10	1	-1E+10	1	-1E+10	1	-1E+10	1	-1E+10	1	-1E+10	1
4901784	31	C	05/10/2016	10:49	-132.003	44.749	0	220.20	0	6.9650	0	33.8690	0	26.536	0	218.301	0	152.0	4	51.3	4	-1E+10	1	-1E+10	1	-1E+10	1	-1E+10	1	-1E+10	1	-1E+10	1
4901784	31	C	05/10/2016	10:49	-132.003	44.749	0	222.70	0	6.8420	0	33.8670	0	26.551	0	220.778	0	150.2	4	50.6	4	-1E+10	1	-1E+10	1	-1E+10	1	-1E+10	1	-1E+10	1	-1E+10	1
4901784	31	C	05/10/2016	10:49	-132.003	44.749	0	225.30	0	6.7870	0	33.8700	0	26.560	0	223.354	0	149.1	4	50.1	4	-1E+10	1	-1E+10	1	-1E+10	1	-1E+10	1	-1E+10	1	-1E+10	1
4901784	31	C	05/10/2016	10:49	-132.003	44.749	0	227.90	0	6.7590	0	33.8690	0	26.563	0	225.931	0	147.9	4	49.7	4	-1E+10	1	-1E+10	1	-1E+10	1	-1E+10	1	-1E+10	1	-1E+10	1
4901784	31	C	05/10/2016	10:49	-132.003	44.749	0	230.40	0	6.7340	0	33.8670	0	26.565	0	228.408	0	146.4	4	49.2	4	-1E+10	1	-1E+10	1	-1E+10	1	-1E+10	1	-1E+10	1	-1E+10	1
4901784	31	C	05/10/2016	10:49	-132.003	44.749	0	232.90	0	6.6630	0	33.8700	0	26.577	0	230.885	0	144.7	4	48.5	4	-1E+10	1	-1E+10	1	-1E+10	1	-1E+10	1	-1E+10	1	-1E+10	1
4901784	31	C	05/10/2016	10:49	-132.003	44.749	0	234.60	0	6.6160	0	33.8700	0	26.583	0	232.569	0	143.9	4	48.2	4	-1E+10	1	-1E+10	1	-1E+10	1	-1E+10	1	-1E+10	1	-1E+10	1
4901784	31	C	05/10/2016	10:49	-132.003	44.749	0	237.20	0	6.5810	0	33.8700	0	26.588	0	235.145	0	142.4	4	47.7	4	-1E+10	1	-1E+10	1	-1E+10	1	-1E+10	1	-1E+10	1	-1E+10	1
4901784	31	C	05/10/2016	10:49	-132.003	44.749	0	239.70	0	6.5460	0	33.8700	0	26.593	0	237.622	0	141.0	4	47.2	4	-1E+10	1	-1E+10	1	-1E+10	1	-1E+10	1	-1E+10	1	-1E+10	1
4901784	31	C	05/10/2016	10:49	-132.003	44.749	0	242.30	0	6.5210	0	33.8690	0	26.595	0	240.198	0	139.4	4	46.6	4	-1E+10	1	-1E+10	1	-1E+10	1	-1E+10	1	-1E+10	1	-1E+10	1
4901784	31	C	05/10/2016	10:49	-132.003	44.749	0	244.80	0	6.4700	0	33.8700	0	26.603	0	242.675	0	137.5	4	45.9	4	-1E+10	1	-1E+10	1	-1E+10	1	-1E+10	1	-1E+10	1	-1E+10	1
4901784	31	C	05/10/2016	10:49	-132.003	44.749	0	247.50	0	6.4130	0	33.8720	0	26.612	0	245.350	0	136.0	4	45.3	4	-1E+10	1	-1E+10	1	-1E+10	1	-1E+10	1	-1E+10	1	-1E+10	1
4901784	31	C	05/10/2016	10:49	-132.003	44.749	0	250.10	0	6.3760	0	33.8730	0	26.617	0	247.925	0	134.9	4	45.0	4	-1E+10	1	-1E+10	1	-1E+10	1	-1E+10	1	-1E+10	1	-1E+10	1
4901784	31	C	05/10/2016	10:49	-132.003	44.749	0	252.80	0	6.3620	0	33.8730	0	26.619	0	250.600	0	133.8	4	44.6	4	-1E+10	1	-1E+10	1	-1E+10	1	-1E+10	1	-1E+10	1	-1E+10	1
4901784	31	C	05/10/2016	10:49	-132.003	44.749	0	255.50	0	6.3380	0	33.8730	0	26.622	0	253.275	0	132.5	4	44.1	4	-1E+10	1	-1E+10	1	-1E+10	1	-1E+10	1	-1E+10	1	-1E+10	1
4901784	31	C	05/10/2016	10:49	-132.003	44.749	0	257.20	0	6.3110	0	33.8740	0	26.626	0	254.959	0	131.6	4	43.8	4	-1E+10	1	-1E+10	1	-1E+10	1	-1E+10	1	-1E+10	1	-1E+10	1
4901784	31	C	05/10/2016	10:49	-132.003	44.749	0	259.90	0	6.2840	0	33.8740	0	26.630	0	257.634	0	130.4	4	43.4	4	-1E+10	1	-1E+10	1	-1E+10	1	-1E+10	1	-1E+10	1	-1E+10	1
4901784	31	C	05/10/2016	10:49	-132.003	44.749	0	262.50	0	6.2470	0	33.8750	0	26.635	0	260.210	0	129.2	4	42.9	4	-1E+10	1	-1E+10	1	-1E+10	1	-1E+10	1	-1E+10	1	-1E+10	1
4901784	31	C	05/10/2016	10:49	-132.003	44.749	0	265.20	0	6.2210	0	33.8760	0	26.640	0	262.885	0	128.1	4	42.5	4	-1E+10	1	-1E+10	1	-1E+10	1	-1E+10	1	-1E+10	1	-1E+10	1
4901784	31	C	05/10/2016	10:49	-132.003	44.749	0	267.90	0	6.2050	0	33.8760	0	26.642	0	265.559	0	127.3	4	42.2	4	-1E+10	1	-1E+10	1	-1E+10	1	-1E+10	1	-1E+10	1	-1E+10	1
4901784	31	C	05/10/2016	10:49	-132.003	44.749	0	269.70	0	6.1950	0	33.8760	0	26.643	0	267.342	0	126.7	4	42.0	4	-1E+10	1	-1E+10	1	-1E+10	1	-1E+10	1	-1E+10	1	-1E+10	1
4901784	31	C	05/10/2016	10:49	-132.003	44.749	0	272.50	0	6.1560	0	33.8750	0	26.647	0	270.116	0	125.3	4	41.5	4	-1E+10	1	-1E+10	1	-1E+10	1	-1E+10	1	-1E+10	1	-1E+10	1
4901784	31	C	05/10/2016	10:49	-132.003	44.749	0	275.20	0	6.1250	0	33.8770	0	26.653	0	272.791	0	123.6	4	41.0	4	-1E+10	1	-1E+10	1	-1E+10	1	-1E+10	1	-1E+10	1	-1E+10	1
4901784	31	C	05/10/2016	10:49	-132.003	44.749	0	277.00	0	6.1110	0	33.8780	0	26.655	0	274.574	0	122.6	4	40.6	4	-1E+10	1	-1E+10	1	-1E+10	1	-1E+10	1	-1E+10	1	-1E+10	1
4901784	31	C	05/10/2016	10:49	-132.003	44.749	0	279.70	0	6.0970	0	33.8800	0	26.659	0	277.248	0	121.5	4	40.2	4	-1E+10	1	-1E+10	1	-1E+10	1	-1E+10	1	-1E+10	1	-1E+10	1
4901784	31	C	05/10/2016	10:49	-132.003	44.749	0	282.50	0	6.0760	0	33.8790	0	26.660	0	280.022	0	120.3	4	39.8	4	-1E+10	1	-1E+10	1	-1E+10	1	-1E+10	1	-1E+10	1	-1E+10	1
4901784	31	C	05/10/2016	10:49	-132.003	44.749	0	285.20	0	6.0530	0	33.8800	0	26.664	0	282.696	0	119.0	4	39.4	4	-1E+10	1	-1E+10	1	-1E+10	1	-1E+10	1	-1E+10	1	-1E+10	1
4901784	31	C	05/10/2016	10:49	-132.003	44.749	0	287.90	0	6.0230	0	33.8800	0	26.668	0	285.371	0	117.6	4	38.9	4	-1E+10	1	-1E+10	1	-1E+10	1	-1E+10	1	-1E+10	1	-1E+10	1
4901784	31	C	05/10/2016	10:49	-132.003	44.749	0	289.70	0	5.9930	0	33.8810	0	26.673	0	287.154	0	116.6	4	38.5	4	-1E+10	1	-1E+10	1	-1E+10	1	-1E+10	1	-1E+10	1	-1E+10	1
4901784	31	C	05/10/2016	10:49	-132.003	44.749	0	292.50	0	5.9560	0	33.8810	0	26.677	0	289.927	0	115.6	4	38.1	4	-1E+10	1	-1E+10	1	-1E+10	1	-1E+10	1	-1E+10	1	-1E+10	1
4901784	31	C	05/10/2016	10:49	-132.003	44.749	0	295.20	0	5.9190	0	33.8820	0	26.683	0	292.601	0	114.6	4	37.8	4	-1E+10	1	-1E+10	1	-1E+10	1	-1E+10	1	-1E+10	1	-1E+10	1
4901784	31	C	05/10/2016	10:49	-132.003	44.749	0	297.00	0	5.9140	0	33.8830	0	26.684	0	294.384	0	114.0	4	37.6	4	-1E+10	1	-1E+10	1	-1E+10	1	-1E+10	1	-1E+10	1	-1E+10	1
4901784	31	C	05/10/2016	10:49	-132.003	44.749	0	299.80	0	5.8760	0	33.8810	0	26.687	0	297.158	0	113.4	4	37.3	4	-1E+10	1	-1E+10	1	-1E+10	1	-1E+10	1	-1E+10	1	-1E+10	1
4901784	31	C	05/10/2016	10:49	-132.003	44.749	0	302.50	0	5.8390	0	33.8790	0	26.690	0	299.832	0	112.3	4	37.0	4	-1E+10	1	-1E+10	1	-1E+10	1	-1E+10	1	-1E+10	1	-1E+10	1
4901784	31	C	05/10/2016	10:49	-132.003	44.749	0	305.30	0	5.7900	0	33.8800	0	26.697	0	302.605	0	110.5	4	36.3	4	-1E+10	1	-1E+10	1	-1E+10	1	-1E+10	1	-1E+10	1	-1E+10	1
4901784	31	C	05/10/2016	10:49	-132.003	44.749	0	308.10	0	5.7550	0	33.8820	0	26.703	0	305.378	0	109.4	4	35.9	4	-1E+10	1	-1E+10	1	-1E+10	1	-1E+10	1	-1E+10	1	-1E+10	1
4901784	31	C	05/10/2016	10:49	-132.003	44.749	0	310.00	0	5.7460	0	33.8810	0	26.703	0	307.260	0	108.7	4	35.7	4	-1E+10	1	-1E+10	1	-1E+10	1	-1E+10	1	-1E+10	1	-1E+10	1
4901784	31	C	05/10/2016	10:49	-132.003	44.749	0	312.80	0	5.7030	0	33.8820	0	26.709	0	310.033	0	107.5	4	35.3	4	-1E+10	1	-1E+10	1	-1E+10	1	-1E+10	1	-1E+10	1	-1E+10	1
4901784	31	C	05/10/2016	10:49	-132.003	44.749	0	315.60	0	5.6850	0	33.8820	0	26.711	0	312.807	0	106.2	4	34.8	4	-1E+10	1	-1E+10	1	-1E+10	1	-1E+10	1	-1E+10	1	-1E+10	1
4901784	31	C	05/10/2016	10:49	-132.003	44.749	0	317.50	0	5.6680	0	33.8830	0	26.714	0	314.688	0	105.1	4	34.4	4	-1E+10	1	-1E+10	1	-1E+10	1	-1E+10	1	-1E+10	1	-1E+10	1
4901784	31	C	05/10/2016	10:49	-132.003	44.749	0	320.00	0	5.6540	0	33.8840	0	26.717	0	317.164	0	103.7	4	34.0	4	-1E+10	1	-1E+10	1	-1E+10	1	-1E+10	1	-1E+10	1	-1E+10	1
4901784	31	C	05/10/2016	10:49	-132.003	44.749	0	322.70	0	5.6190	0	33.8860	0	26.723	0	319.838	0	101.8	4	33.3	4	-1E+10	1	-1E+10	1	-1E+10	1	-1E+10	1	-1E+10	1	-1E+10	1
4901784	31	C	05/10/2016	10:49	-132.003	44.749	0	325.00	0	5.5780	0	33.8890	0	26.730	0	322.116	0	100.4	4	32.8	4	-1E+10	1	-1E+10	1	-1E+10	1	-1E+10	1	-1E+10	1	-1E+10	1
4901784	31	C	05/10/2016	10:49	-132.003	44.749	0	327.40	0	5.5620	0	33.8890	0	26.732	0	324.493	0	99.3	4	32.5	4	-1E+10	1	-1E+10	1	-1E+10	1	-1E+10	1	-1E+10	1	-1E+10	1
4901784	31	C	05/10/2016	10:49	-132.003	44.749	0	329.70	0	5.5360	0	33.8910	0	26.737	0	326.771	0	98.2	4	32.1	4	-1E+10	1	-1E+10	1	-1E+10	1	-1E+10	1	-1E+10	1	-1E+10	1
4901784	31	C	05/10/2016	10:49	-132.003	44.749	0	332.10	0	5.5250	0	33.8910	0	26.738	0	329.147	0	97.1	4	31.7	4	-1E+10	1	-1E+10	1	-1E+10	1	-1E+10	1	-1E+10	1	-1E+10	1
4901784	31	C	05/10/2016	10:49	-132.003	44.749	0	335.30	0	5.5060	0	33.8930	0	26.742	0	332.316	0	95.3	4	31.1	4	-1E+10	1	-1E+10	1	-1E+10	1	-1E+10	1	-1E+10	1	-1E+10	1
4901784	31	C	05/10/2016	10:49	-132.003	44.749	0	337.80	0	5.4930	0	33.8930	0	26.743	0	334.792	0	93.6	4	30.6	4	-1E+10	1	-1E+10	1	-1E+10	1	-1E+10	1	-1E+10	1	-1E+10	1
4901784	31	C	05/10/2016	10:49	-132.003	44.749	0	340.20	0	5.4570	0	33.8970	0	26.751	0	337.169	0	92.0	4	30.0	4	-1E+10	1	-1E+10	1	-1E+10	1	-1E+10	1	-1E+10	1	-1E+10	1
4901784	31	C	05/10/2016	10:49	-132.003	44.749	0	342.70	0	5.4420	0	33.8990	0	26.754	0	339.644	0	90.3	4	29.4	4	-1E+10	1	-1E+10	1	-1E+10	1	-1E+10	1	-1E+10	1	-1E+10	1
4901784	31	C	05/10/2016	10:49	-132.003	44.749	0	345.20	0	5.4310	0	33.9040	0	26.760	0	342.120	0	89.0	4	29.0	4	-1E+10	1	-1E+10	1	-1E+10	1	-1E+10	1	-1E+10	1	-1E+10	1
4901784	31	C	05/10/2016	10:49	-132.003	44.749	0	347.70	0	5.4180	0	33.9040	0	26.761	0	344.596	0	88.4	4	28.8	4	-1E+10	1	-1E+10	1	-1E+10	1	-1E+10	1	-1E+10	1	-1E+10	1
4901784	31	C	05/10/2016	10:49	-132.003	44.749	0	350.20	0	5.3970	0	33.9060	0	26.765	0	347.071	0	87.7	4	28.6	4	-1E+10	1	-1E+10	1	-1E+10	1	-1E+10	1	-1E+10	1	-1E+10	1
4901784	31	C	05/10/2016	10:49	-132.003	44.749	0	352.60	0	5.3880	0	33.9060	0	26.766	0	349.448	0	86.9	4	28.3	4	-1E+10	1	-1E+10	1	-1E+10	1	-1E+10	1	-1E+10	1	-1E+10	1
4901784	31	C	05/10/2016	10:49	-132.003	44.749	0	355.10	0	5.3800	0	33.9070	0	26.768	0	351.923	0	85.9	4	28.0	4	-1E+10	1	-1E+10	1	-1E+10	1	-1E+10	1	-1E+10	1	-1E+10	1
4901784	31	C	05/10/2016	10:49	-132.003	44.749	0	357.60	0	5.3700	0	33.9090	0	26.771	0	354.399	0	85.0	4	27.7	4	-1E+10	1	-1E+10	1	-1E+10	1	-1E+10	1	-1E+10	1	-1E+10	1
4901784	31	C	05/10/2016	10:49	-132.003	44.749	0	360.10	0	5.3610	0	33.9110	0	26.774	0	356.874	0	84.2	4	27.4	4	-1E+10	1	-1E+10	1	-1E+10	1	-1E+10	1	-1E+10	1	-1E+10	1
4901784	31	C	05/10/2016	10:49	-132.003	44.749	0	362.60	0	5.3560	0	33.9110	0	26.774	0	359.350	0	83.3	4	27.1	4	-1E+10	1	-1E+10	1	-1E+10	1	-1E+10	1	-1E+10	1	-1E+10	1
4901784	31	C	05/10/2016	10:49	-132.003	44.749	0	365.10	0	5.3320	0	33.9140	0	26.779	0	361.825	0	82.5	4	26.8	4	-1E+10	1	-1E+10	1	-1E+10	1	-1E+10	1	-1E+10	1	-1E+10	1
4901784	31	C	05/10/2016	10:49	-132.003	44.749	0	367.60	0	5.3180	0	33.9150	0	26.782	0	364.301	0	82.0	4	26.7	4	-1E+10	1	-1E+10	1	-1E+10	1	-1E+10	1	-1E+10	1	-1E+10	1
4901784	31	C	05/10/2016	10:49	-132.003	44.749	0	370.20	0	5.2880	0	33.9160	0	26.786	0	366.875	0	81.9	4	26.6	4	-1E+10	1	-1E+10	1	-1E+10	1	-1E+10	1	-1E+10	1	-1E+10	1
4901784	31	C	05/10/2016	10:49	-132.003	44.749	0	372.80	0	5.2880	0	33.9130	0	26.784	0	369.449	0	81.5	4	26.5	4	-1E+10	1	-1E+10	1	-1E+10	1	-1E+10	1	-1E+10	1	-1E+10	1
4901784	31	C	05/10/2016	10:49	-132.003	44.749	0	375.40	0	5.2590	0	33.9130	0	26.787	0	372.024	0	80.8	4	26.2	4	-1E+10	1	-1E+10	1	-1E+10	1	-1E+10	1	-1E+10	1	-1E+10	1
4901784	31	C	05/10/2016	10:49	-132.003	44.749	0	377.90	0	5.2430	0	33.9140	0	26.790	0	374.499	0	79.7	4	25.9	4	-1E+10	1	-1E+10	1	-1E+10	1	-1E+10	1	-1E+10	1	-1E+10	1
4901784	31	C	05/10/2016	10:49	-132.003	44.749	0	379.70	0	5.2330	0	33.9160	0	26.793	0	376.281	0	78.7	4	25.5	4	-1E+10	1	-1E+10	1	-1E+10	1	-1E+10	1	-1E+10	1	-1E+10	1
4901784	31	C	05/10/2016	10:49	-132.003	44.749	0	382.30	0	5.2280	0	33.9170	0	26.794	0	378.855	0	77.3	4	25.1	4	-1E+10	1	-1E+10	1	-1E+10	1	-1E+10	1	-1E+10	1	-1E+10	1
4901784	31	C	05/10/2016	10:49	-132.003	44.749	0	384.90	0	5.1940	0	33.9210	0	26.801	0	381.429	0	75.5	4	24.5	4	-1E+10	1	-1E+10	1	-1E+10	1	-1E+10	1	-1E+10	1	-1E+10	1
4901784	31	C	05/10/2016	10:49	-132.003	44.749	0	387.60	0	5.1530	0	33.9250	0	26.809	0	384.103	0	74.2	4	24.0	4	-1E+10	1	-1E+10	1	-1E+10	1	-1E+10	1	-1E+10	1	-1E+10	1
4901784	31	C	05/10/2016	10:49	-132.003	44.749	0	390.20	0	5.1360	0	33.9290	0	26.814	0	386.677	0	73.1	4	23.7	4	-1E+10	1	-1E+10	1	-1E+10	1	-1E+10	1	-1E+10	1	-1E+10	1
4901784	31	C	05/10/2016	10:49	-132.003	44.749	0	392.90	0	5.1350	0	33.9310	0	26.816	0	389.350	0	71.9	4	23.3	4	-1E+10	1	-1E+10	1	-1E+10	1	-1E+10	1	-1E+10	1	-1E+10	1
4901784	31	C	05/10/2016	10:49	-132.003	44.749	0	395.50	0	5.1380	0	33.9340	0	26.818	0	391.924	0	70.7	4	22.9	4	-1E+10	1	-1E+10	1	-1E+10	1	-1E+10	1	-1E+10	1	-1E+10	1
4901784	31	C	05/10/2016	10:49	-132.003	44.749	0	397.20	0	5.1340	0	33.9360	0	26.820	0	393.607	0	70.1	4	22.7	4	-1E+10	1	-1E+10	1	-1E+10	1	-1E+10	1	-1E+10	1	-1E+10	1
4901784	31	C	05/10/2016	10:49	-132.003	44.749	0	399.90	0	5.1260	0	33.9390	0	26.823	0	396.280	0	69.3	4	22.4	4	-1E+10	1	-1E+10	1	-1E+10	1	-1E+10	1	-1E+10	1	-1E+10	1
4901784	31	C	05/10/2016	10:49	-132.003	44.749	0	402.50	0	5.1000	0	33.9390	0	26.826	0	398.854	0	68.6	4	22.2	4	-1E+10	1	-1E+10	1	-1E+10	1	-1E+10	1	-1E+10	1	-1E+10	1
4901784	31	C	05/10/2016	10:49	-132.003	44.749	0	405.10	0	5.0840	0	33.9410	0	26.830	0	401.428	0	67.8	4	21.9	4	-1E+10	1	-1E+10	1	-1E+10	1	-1E+10	1	-1E+10	1	-1E+10	1
4901784	31	C	05/10/2016	10:49	-132.003	44.749	0	407.70	0	5.0670	0	33.9440	0	26.834	0	404.002	0	66.9	4	21.6	4	-1E+10	1	-1E+10	1	-1E+10	1	-1E+10	1	-1E+10	1	-1E+10	1
4901784	31	C	05/10/2016	10:49	-132.003	44.749	0	409.50	0	5.0570	0	33.9450	0	26.836	0	405.784	0	66.5	4	21.5	4	-1E+10	1	-1E+10	1	-1E+10	1	-1E+10	1	-1E+10	1	-1E+10	1
4901784	31	C	05/10/2016	10:49	-132.003	44.749	0	412.20	0	5.0450	0	33.9460	0	26.838	0	408.456	0	65.8	4	21.3	4	-1E+10	1	-1E+10	1	-1E+10	1	-1E+10	1	-1E+10	1	-1E+10	1
4901784	31	C	05/10/2016	10:49	-132.003	44.749	0	414.80	0	5.0310	0	33.9480	0	26.842	0	411.030	0	64.9	4	21.0	4	-1E+10	1	-1E+10	1	-1E+10	1	-1E+10	1	-1E+10	1	-1E+10	1
4901784	31	C	05/10/2016	10:49	-132.003	44.749	0	417.50	0	5.0160	0	33.9500	0	26.845	0	413.703	0	64.2	4	20.7	4	-1E+10	1	-1E+10	1	-1E+10	1	-1E+10	1	-1E+10	1	-1E+10	1
4901784	31	C	05/10/2016	10:49	-132.003	44.749	0	420.10	0	5.0000	0	33.9520	0	26.848	0	416.277	0	63.3	4	20.4	4	-1E+10	1	-1E+10	1	-1E+10	1	-1E+10	1	-1E+10	1	-1E+10	1
4901784	31	C	05/10/2016	10:49	-132.003	44.749	0	422.70	0	4.9780	0	33.9540	0	26.852	0	418.850	0	62.7	4	20.2	4	-1E+10	1	-1E+10	1	-1E+10	1	-1E+10	1	-1E+10	1	-1E+10	1
4901784	31	C	05/10/2016	10:49	-132.003	44.749	0	425.40	0	4.9680	0	33.9550	0	26.854	0	421.523	0	62.0	4	20.0	4	-1E+10	1	-1E+10	1	-1E+10	1	-1E+10	1	-1E+10	1	-1E+10	1
4901784	31	C	05/10/2016	10:49	-132.003	44.749	0	427.20	0	4.9610	0	33.9560	0	26.856	0	423.305	0	61.4	4	19.8	4	-1E+10	1	-1E+10	1	-1E+10	1	-1E+10	1	-1E+10	1	-1E+10	1
4901784	31	C	05/10/2016	10:49	-132.003	44.749	0	429.80	0	4.9510	0	33.9600	0	26.860	0	425.878	0	60.8	4	19.6	4	-1E+10	1	-1E+10	1	-1E+10	1	-1E+10	1	-1E+10	1	-1E+10	1
4901784	31	C	05/10/2016	10:49	-132.003	44.749	0	432.50	0	4.9420	0	33.9610	0	26.862	0	428.551	0	60.2	4	19.4	4	-1E+10	1	-1E+10	1	-1E+10	1	-1E+10	1	-1E+10	1	-1E+10	1
4901784	31	C	05/10/2016	10:49	-132.003	44.749	0	435.20	0	4.9280	0	33.9620	0	26.864	0	431.224	0	59.7	4	19.2	4	-1E+10	1	-1E+10	1	-1E+10	1	-1E+10	1	-1E+10	1	-1E+10	1
4901784	31	C	05/10/2016	10:49	-132.003	44.749	0	437.90	0	4.8900	0	33.9640	0	26.870	0	433.896	0	59.1	4	19.0	4	-1E+10	1	-1E+10	1	-1E+10	1	-1E+10	1	-1E+10	1	-1E+10	1
4901784	31	C	05/10/2016	10:49	-132.003	44.749	0	439.70	0	4.8860	0	33.9650	0	26.872	0	435.678	0	58.8	4	18.9	4	-1E+10	1	-1E+10	1	-1E+10	1	-1E+10	1	-1E+10	1	-1E+10	1
4901784	31	C	05/10/2016	10:49	-132.003	44.749	0	442.40	0	4.8870	0	33.9670	0	26.873	0	438.350	0	58.1	4	18.7	4	-1E+10	1	-1E+10	1	-1E+10	1	-1E+10	1	-1E+10	1	-1E+10	1
4901784	31	C	05/10/2016	10:49	-132.003	44.749	0	445.10	0	4.8810	0	33.9680	0	26.875	0	441.023	0	57.6	4	18.5	4	-1E+10	1	-1E+10	1	-1E+10	1	-1E+10	1	-1E+10	1	-1E+10	1
4901784	31	C	05/10/2016	10:49	-132.003	44.749	0	447.80	0	4.8770	0	33.9690	0	26.876	0	443.695	0	56.9	4	18.3	4	-1E+10	1	-1E+10	1	-1E+10	1	-1E+10	1	-1E+10	1	-1E+10	1
4901784	31	C	05/10/2016	10:49	-132.003	44.749	0	450.60	0	4.8680	0	33.9700	0	26.878	0	446.466	0	56.2	4	18.1	4	-1E+10	1	-1E+10	1	-1E+10	1	-1E+10	1	-1E+10	1	-1E+10	1
4901784	31	C	05/10/2016	10:49	-132.003	44.749	0	452.40	0	4.8490	0	33.9720	0	26.881	0	448.248	0	55.7	4	17.9	4	-1E+10	1	-1E+10	1	-1E+10	1	-1E+10	1	-1E+10	1	-1E+10	1
4901784	31	C	05/10/2016	10:49	-132.003	44.749	0	455.10	0	4.8340	0	33.9750	0	26.885	0	450.920	0	54.9	4	17.7	4	-1E+10	1	-1E+10	1	-1E+10	1	-1E+10	1	-1E+10	1	-1E+10	1
4901784	31	C	05/10/2016	10:49	-132.003	44.749	0	457.70	0	4.8220	0	33.9770	0	26.888	0	453.493	0	54.1	4	17.4	4	-1E+10	1	-1E+10	1	-1E+10	1	-1E+10	1	-1E+10	1	-1E+10	1
4901784	31	C	05/10/2016	10:49	-132.003	44.749	0	459.50	0	4.8130	0	33.9790	0	26.891	0	455.275	0	53.5	4	17.2	4	-1E+10	1	-1E+10	1	-1E+10	1	-1E+10	1	-1E+10	1	-1E+10	1
4901784	31	C	05/10/2016	10:49	-132.003	44.749	0	462.20	0	4.7890	0	33.9830	0	26.897	0	457.947	0	52.8	4	17.0	4	-1E+10	1	-1E+10	1	-1E+10	1	-1E+10	1	-1E+10	1	-1E+10	1
4901784	31	C	05/10/2016	10:49	-132.003	44.749	0	464.90	0	4.7790	0	33.9840	0	26.899	0	460.619	0	52.1	4	16.7	4	-1E+10	1	-1E+10	1	-1E+10	1	-1E+10	1	-1E+10	1	-1E+10	1
4901784	31	C	05/10/2016	10:49	-132.003	44.749	0	467.60	0	4.7680	0	33.9880	0	26.903	0	463.291	0	51.5	4	16.5	4	-1E+10	1	-1E+10	1	-1E+10	1	-1E+10	1	-1E+10	1	-1E+10	1
4901784	31	C	05/10/2016	10:49	-132.003	44.749	0	470.20	0	4.7610	0	33.9880	0	26.904	0	465.865	0	51.0	4	16.4	4	-1E+10	1	-1E+10	1	-1E+10	1	-1E+10	1	-1E+10	1	-1E+10	1
4901784	31	C	05/10/2016	10:49	-132.003	44.749	0	472.00	0	4.7590	0	33.9890	0	26.905	0	467.646	0	50.6	4	16.3	4	-1E+10	1	-1E+10	1	-1E+10	1	-1E+10	1	-1E+10	1	-1E+10	1
4901784	31	C	05/10/2016	10:49	-132.003	44.749	0	474.70	0	4.7410	0	33.9920	0	26.909	0	470.318	0	50.2	4	16.1	4	-1E+10	1	-1E+10	1	-1E+10	1	-1E+10	1	-1E+10	1	-1E+10	1
4901784	31	C	05/10/2016	10:49	-132.003	44.749	0	477.30	0	4.7330	0	33.9940	0	26.912	0	472.891	0	49.9	4	16.0	4	-1E+10	1	-1E+10	1	-1E+10	1	-1E+10	1	-1E+10	1	-1E+10	1
4901784	31	C	05/10/2016	10:49	-132.003	44.749	0	480.00	0	4.7290	0	33.9940	0	26.912	0	475.563	0	49.7	4	16.0	4	-1E+10	1	-1E+10	1	-1E+10	1	-1E+10	1	-1E+10	1	-1E+10	1
4901784	31	C	05/10/2016	10:49	-132.003	44.749	0	482.70	0	4.7160	0	33.9940	0	26.914	0	478.235	0	49.5	4	15.9	4	-1E+10	1	-1E+10	1	-1E+10	1	-1E+10	1	-1E+10	1	-1E+10	1
4901784	31	C	05/10/2016	10:49	-132.003	44.749	0	484.50	0	4.7130	0	33.9940	0	26.914	0	480.016	0	49.1	4	15.7	4	-1E+10	1	-1E+10	1	-1E+10	1	-1E+10	1	-1E+10	1	-1E+10	1
4901784	31	C	05/10/2016	10:49	-132.003	44.749	0	487.30	0	4.7050	0	33.9980	0	26.918	0	482.787	0	48.5	4	15.5	4	-1E+10	1	-1E+10	1	-1E+10	1	-1E+10	1	-1E+10	1	-1E+10	1
4901784	31	C	05/10/2016	10:49	-132.003	44.749	0	490.00	0	4.6890	0	33.9990	0	26.921	0	485.459	0	47.9	4	15.4	4	-1E+10	1	-1E+10	1	-1E+10	1	-1E+10	1	-1E+10	1	-1E+10	1
4901784	31	C	05/10/2016	10:49	-132.003	44.749	0	492.80	0	4.6940	0	34.0010	0	26.922	0	488.230	0	47.4	4	15.2	4	-1E+10	1	-1E+10	1	-1E+10	1	-1E+10	1	-1E+10	1	-1E+10	1
4901784	31	C	05/10/2016	10:49	-132.003	44.749	0	495.60	0	4.6720	0	34.0000	0	26.924	0	491.000	0	46.7	4	15.0	4	-1E+10	1	-1E+10	1	-1E+10	1	-1E+10	1	-1E+10	1	-1E+10	1
4901784	31	C	05/10/2016	10:49	-132.003	44.749	0	497.50	0	4.6520	0	34.0010	0	26.927	0	492.880	0	45.9	4	14.7	4	-1E+10	1	-1E+10	1	-1E+10	1	-1E+10	1	-1E+10	1	-1E+10	1
4901784	31	C	05/10/2016	10:49	-132.003	44.749	0	500.20	0	4.6680	0	34.0050	0	26.928	0	495.552	0	44.1	4	14.1	4	-1E+10	1	-1E+10	1	-1E+10	1	-1E+10	1	-1E+10	1	-1E+10	1
4901784	31	C	05/10/2016	10:49	-132.003	44.749	0	504.80	0	4.6890	0	34.0180	0	26.936	0	500.104	0	42.3	4	13.6	4	-1E+10	1	-1E+10	1	-1E+10	1	-1E+10	1	-1E+10	1	-1E+10	1
4901784	31	C	05/10/2016	10:49	-132.003	44.749	0	510.50	0	4.6270	0	34.0210	0	26.945	0	505.744	0	42.1	4	13.5	4	-1E+10	1	-1E+10	1	-1E+10	1	-1E+10	1	-1E+10	1	-1E+10	1
4901784	31	C	05/10/2016	10:49	-132.003	44.749	0	515.00	0	4.6030	0	34.0220	0	26.949	0	510.196	0	41.4	4	13.2	4	-1E+10	1	-1E+10	1	-1E+10	1	-1E+10	1	-1E+10	1	-1E+10	1
4901784	31	C	05/10/2016	10:49	-132.003	44.749	0	519.80	0	4.5630	0	34.0250	0	26.955	0	514.946	0	40.2	4	12.9	4	-1E+10	1	-1E+10	1	-1E+10	1	-1E+10	1	-1E+10	1	-1E+10	1
4901784	31	C	05/10/2016	10:49	-132.003	44.749	0	525.30	0	4.5690	0	34.0330	0	26.961	0	520.387	0	37.6	4	12.0	4	-1E+10	1	-1E+10	1	-1E+10	1	-1E+10	1	-1E+10	1	-1E+10	1
4901784	31	C	05/10/2016	10:49	-132.003	44.749	0	530.10	0	4.6040	0	34.0420	0	26.965	0	525.137	0	35.8	4	11.5	4	-1E+10	1	-1E+10	1	-1E+10	1	-1E+10	1	-1E+10	1	-1E+10	1
4901784	31	C	05/10/2016	10:49	-132.003	44.749	0	534.80	0	4.5440	0	34.0480	0	26.976	0	529.787	0	34.7	4	11.1	4	-1E+10	1	-1E+10	1	-1E+10	1	-1E+10	1	-1E+10	1	-1E+10	1
4901784	31	C	05/10/2016	10:49	-132.003	44.749	0	540.50	0	4.5370	0	34.0560	0	26.983	0	535.426	0	33.1	4	10.6	4	-1E+10	1	-1E+10	1	-1E+10	1	-1E+10	1	-1E+10	1	-1E+10	1
4901784	31	C	05/10/2016	10:49	-132.003	44.749	0	545.10	0	4.5280	0	34.0610	0	26.988	0	539.977	0	32.1	4	10.2	4	-1E+10	1	-1E+10	1	-1E+10	1	-1E+10	1	-1E+10	1	-1E+10	1
4901784	31	C	05/10/2016	10:49	-132.003	44.749	0	549.80	0	4.5210	0	34.0660	0	26.993	0	544.626	0	30.8	4	9.9	4	-1E+10	1	-1E+10	1	-1E+10	1	-1E+10	1	-1E+10	1	-1E+10	1
4901784	31	C	05/10/2016	10:49	-132.003	44.749	0	554.70	0	4.5130	0	34.0710	0	26.998	0	549.474	0	29.1	4	9.3	4	-1E+10	1	-1E+10	1	-1E+10	1	-1E+10	1	-1E+10	1	-1E+10	1
4901784	31	C	05/10/2016	10:49	-132.003	44.749	0	560.00	0	4.5380	0	34.0820	0	27.004	0	554.717	0	27.4	4	8.8	4	-1E+10	1	-1E+10	1	-1E+10	1	-1E+10	1	-1E+10	1	-1E+10	1
4901784	31	C	05/10/2016	10:49	-132.003	44.749	0	565.50	0	4.5330	0	34.0910	0	27.011	0	560.157	0	26.2	4	8.4	4	-1E+10	1	-1E+10	1	-1E+10	1	-1E+10	1	-1E+10	1	-1E+10	1
4901784	31	C	05/10/2016	10:49	-132.003	44.749	0	570.40	0	4.5120	0	34.0930	0	27.015	0	565.005	0	25.4	4	8.1	4	-1E+10	1	-1E+10	1	-1E+10	1	-1E+10	1	-1E+10	1	-1E+10	1
4901784	31	C	05/10/2016	10:49	-132.003	44.749	0	575.30	0	4.5100	0	34.1010	0	27.022	0	569.851	0	24.0	4	7.7	4	-1E+10	1	-1E+10	1	-1E+10	1	-1E+10	1	-1E+10	1	-1E+10	1
4901784	31	C	05/10/2016	10:49	-132.003	44.749	0	580.30	0	4.5030	0	34.1090	0	27.029	0	574.797	0	23.0	4	7.3	4	-1E+10	1	-1E+10	1	-1E+10	1	-1E+10	1	-1E+10	1	-1E+10	1
4901784	31	C	05/10/2016	10:49	-132.003	44.749	0	585.20	0	4.4940	0	34.1130	0	27.033	0	579.644	0	22.3	4	7.1	4	-1E+10	1	-1E+10	1	-1E+10	1	-1E+10	1	-1E+10	1	-1E+10	1
4901784	31	C	05/10/2016	10:49	-132.003	44.749	0	590.10	0	4.4840	0	34.1180	0	27.038	0	584.490	0	21.5	4	6.9	4	-1E+10	1	-1E+10	1	-1E+10	1	-1E+10	1	-1E+10	1	-1E+10	1
4901784	31	C	05/10/2016	10:49	-132.003	44.749	0	595.10	0	4.4830	0	34.1220	0	27.042	0	589.436	0	20.9	4	6.7	4	-1E+10	1	-1E+10	1	-1E+10	1	-1E+10	1	-1E+10	1	-1E+10	1
4901784	31	C	05/10/2016	10:49	-132.003	44.749	0	600.10	0	4.4700	0	34.1270	0	27.047	0	594.381	0	20.2	4	6.4	4	-1E+10	1	-1E+10	1	-1E+10	1	-1E+10	1	-1E+10	1	-1E+10	1
4901784	31	C	05/10/2016	10:49	-132.003	44.749	0	605.10	0	4.4520	0	34.1330	0	27.054	0	599.326	0	19.5	4	6.2	4	-1E+10	1	-1E+10	1	-1E+10	1	-1E+10	1	-1E+10	1	-1E+10	1
4901784	31	C	05/10/2016	10:49	-132.003	44.749	0	610.20	0	4.4290	0	34.1390	0	27.061	0	604.370	0	18.9	4	6.0	4	-1E+10	1	-1E+10	1	-1E+10	1	-1E+10	1	-1E+10	1	-1E+10	1
4901784	31	C	05/10/2016	10:49	-132.003	44.749	0	615.30	0	4.4060	0	34.1460	0	27.069	0	609.414	0	18.4	4	5.9	4	-1E+10	1	-1E+10	1	-1E+10	1	-1E+10	1	-1E+10	1	-1E+10	1
4901784	31	C	05/10/2016	10:49	-132.003	44.749	0	620.50	0	4.3970	0	34.1500	0	27.073	0	614.557	0	18.1	4	5.8	4	-1E+10	1	-1E+10	1	-1E+10	1	-1E+10	1	-1E+10	1	-1E+10	1
4901784	31	C	05/10/2016	10:49	-132.003	44.749	0	625.60	0	4.3870	0	34.1520	0	27.076	0	619.600	0	17.8	4	5.7	4	-1E+10	1	-1E+10	1	-1E+10	1	-1E+10	1	-1E+10	1	-1E+10	1
4901784	31	C	05/10/2016	10:49	-132.003	44.749	0	630.70	0	4.3710	0	34.1550	0	27.080	0	624.644	0	17.4	4	5.5	4	-1E+10	1	-1E+10	1	-1E+10	1	-1E+10	1	-1E+10	1	-1E+10	1
4901784	31	C	05/10/2016	10:49	-132.003	44.749	0	635.00	0	4.3610	0	34.1580	0	27.084	0	628.896	0	17.1	4	5.5	4	-1E+10	1	-1E+10	1	-1E+10	1	-1E+10	1	-1E+10	1	-1E+10	1
4901784	31	C	05/10/2016	10:49	-132.003	44.749	0	639.40	0	4.3480	0	34.1600	0	27.087	0	633.247	0	16.8	4	5.3	4	-1E+10	1	-1E+10	1	-1E+10	1	-1E+10	1	-1E+10	1	-1E+10	1
4901784	31	C	05/10/2016	10:49	-132.003	44.749	0	644.60	0	4.3210	0	34.1660	0	27.094	0	638.389	0	16.3	4	5.2	4	-1E+10	1	-1E+10	1	-1E+10	1	-1E+10	1	-1E+10	1	-1E+10	1
4901784	31	C	05/10/2016	10:49	-132.003	44.749	0	649.80	0	4.2850	0	34.1750	0	27.105	0	643.531	0	15.9	4	5.1	4	-1E+10	1	-1E+10	1	-1E+10	1	-1E+10	1	-1E+10	1	-1E+10	1
4901784	31	C	05/10/2016	10:49	-132.003	44.749	0	655.20	0	4.2700	0	34.1780	0	27.109	0	648.870	0	15.8	4	5.0	4	-1E+10	1	-1E+10	1	-1E+10	1	-1E+10	1	-1E+10	1	-1E+10	1
4901784	31	C	05/10/2016	10:49	-132.003	44.749	0	660.50	0	4.2520	0	34.1800	0	27.113	0	654.111	0	15.6	4	5.0	4	-1E+10	1	-1E+10	1	-1E+10	1	-1E+10	1	-1E+10	1	-1E+10	1
4901784	31	C	05/10/2016	10:49	-132.003	44.749	0	664.90	0	4.2190	0	34.1830	0	27.119	0	658.461	0	15.5	4	4.9	4	-1E+10	1	-1E+10	1	-1E+10	1	-1E+10	1	-1E+10	1	-1E+10	1
4901784	31	C	05/10/2016	10:49	-132.003	44.749	0	669.30	0	4.1930	0	34.1870	0	27.125	0	662.812	0	15.3	4	4.9	4	-1E+10	1	-1E+10	1	-1E+10	1	-1E+10	1	-1E+10	1	-1E+10	1
4901784	31	C	05/10/2016	10:49	-132.003	44.749	0	674.60	0	4.1700	0	34.1910	0	27.130	0	668.052	0	15.0	4	4.8	4	-1E+10	1	-1E+10	1	-1E+10	1	-1E+10	1	-1E+10	1	-1E+10	1
4901784	31	C	05/10/2016	10:49	-132.003	44.749	0	680.00	0	4.1540	0	34.1970	0	27.137	0	673.391	0	14.8	4	4.7	4	-1E+10	1	-1E+10	1	-1E+10	1	-1E+10	1	-1E+10	1	-1E+10	1
4901784	31	C	05/10/2016	10:49	-132.003	44.749	0	685.50	0	4.1480	0	34.2000	0	27.140	0	678.828	0	14.5	4	4.6	4	-1E+10	1	-1E+10	1	-1E+10	1	-1E+10	1	-1E+10	1	-1E+10	1
4901784	31	C	05/10/2016	10:49	-132.003	44.749	0	690.10	0	4.1410	0	34.2030	0	27.143	0	683.376	0	14.4	4	4.6	4	-1E+10	1	-1E+10	1	-1E+10	1	-1E+10	1	-1E+10	1	-1E+10	1
4901784	31	C	05/10/2016	10:49	-132.003	44.749	0	694.70	0	4.1150	0	34.2060	0	27.148	0	687.923	0	14.2	4	4.5	4	-1E+10	1	-1E+10	1	-1E+10	1	-1E+10	1	-1E+10	1	-1E+10	1
4901784	31	C	05/10/2016	10:49	-132.003	44.749	0	699.60	0	4.1060	0	34.2100	0	27.152	0	692.768	0	14.1	4	4.5	4	-1E+10	1	-1E+10	1	-1E+10	1	-1E+10	1	-1E+10	1	-1E+10	1
4901784	31	C	05/10/2016	10:49	-132.003	44.749	0	704.90	0	4.0900	0	34.2130	0	27.156	0	698.007	0	13.9	4	4.4	4	-1E+10	1	-1E+10	1	-1E+10	1	-1E+10	1	-1E+10	1	-1E+10	1
4901784	31	C	05/10/2016	10:49	-132.003	44.749	0	710.50	0	4.0750	0	34.2160	0	27.160	0	703.543	0	13.7	4	4.3	4	-1E+10	1	-1E+10	1	-1E+10	1	-1E+10	1	-1E+10	1	-1E+10	1
4901784	31	C	05/10/2016	10:49	-132.003	44.749	0	715.40	0	4.0580	0	34.2190	0	27.164	0	708.386	0	13.6	4	4.3	4	-1E+10	1	-1E+10	1	-1E+10	1	-1E+10	1	-1E+10	1	-1E+10	1
4901784	31	C	05/10/2016	10:49	-132.003	44.749	0	720.30	0	4.0440	0	34.2220	0	27.168	0	713.230	0	13.5	4	4.3	4	-1E+10	1	-1E+10	1	-1E+10	1	-1E+10	1	-1E+10	1	-1E+10	1
4901784	31	C	05/10/2016	10:49	-132.003	44.749	0	725.20	0	4.0370	0	34.2230	0	27.170	0	718.073	0	13.3	4	4.2	4	-1E+10	1	-1E+10	1	-1E+10	1	-1E+10	1	-1E+10	1	-1E+10	1
4901784	31	C	05/10/2016	10:49	-132.003	44.749	0	730.20	0	4.0190	0	34.2300	0	27.177	0	723.016	0	13.1	4	4.1	4	-1E+10	1	-1E+10	1	-1E+10	1	-1E+10	1	-1E+10	1	-1E+10	1
4901784	31	C	05/10/2016	10:49	-132.003	44.749	0	735.20	0	4.0100	0	34.2320	0	27.180	0	727.958	0	13.0	4	4.1	4	-1E+10	1	-1E+10	1	-1E+10	1	-1E+10	1	-1E+10	1	-1E+10	1
4901784	31	C	05/10/2016	10:49	-132.003	44.749	0	740.10	0	4.0050	0	34.2340	0	27.182	0	732.801	0	12.9	4	4.1	4	-1E+10	1	-1E+10	1	-1E+10	1	-1E+10	1	-1E+10	1	-1E+10	1
4901784	31	C	05/10/2016	10:49	-132.003	44.749	0	745.10	0	3.9930	0	34.2370	0	27.186	0	737.743	0	12.8	4	4.0	4	-1E+10	1	-1E+10	1	-1E+10	1	-1E+10	1	-1E+10	1	-1E+10	1
4901784	31	C	05/10/2016	10:49	-132.003	44.749	0	750.10	0	3.9780	0	34.2400	0	27.190	0	742.684	0	12.7	4	4.0	4	-1E+10	1	-1E+10	1	-1E+10	1	-1E+10	1	-1E+10	1	-1E+10	1
4901784	31	C	05/10/2016	10:49	-132.003	44.749	0	755.00	0	3.9590	0	34.2430	0	27.194	0	747.527	0	12.6	4	4.0	4	-1E+10	1	-1E+10	1	-1E+10	1	-1E+10	1	-1E+10	1	-1E+10	1
4901784	31	C	05/10/2016	10:49	-132.003	44.749	0	760.00	0	3.9530	0	34.2450	0	27.196	0	752.469	0	12.4	4	3.9	4	-1E+10	1	-1E+10	1	-1E+10	1	-1E+10	1	-1E+10	1	-1E+10	1
4901784	31	C	05/10/2016	10:49	-132.003	44.749	0	765.00	0	3.9360	0	34.2500	0	27.202	0	757.410	0	12.2	4	3.9	4	-1E+10	1	-1E+10	1	-1E+10	1	-1E+10	1	-1E+10	1	-1E+10	1
4901784	31	C	05/10/2016	10:49	-132.003	44.749	0	770.10	0	3.9190	0	34.2530	0	27.206	0	762.450	0	12.0	4	3.8	4	-1E+10	1	-1E+10	1	-1E+10	1	-1E+10	1	-1E+10	1	-1E+10	1
4901784	31	C	05/10/2016	10:49	-132.003	44.749	0	775.20	0	3.9180	0	34.2600	0	27.212	0	767.490	0	11.8	4	3.7	4	-1E+10	1	-1E+10	1	-1E+10	1	-1E+10	1	-1E+10	1	-1E+10	1
4901784	31	C	05/10/2016	10:49	-132.003	44.749	0	780.40	0	3.8850	0	34.2640	0	27.218	0	772.629	0	11.7	4	3.7	4	-1E+10	1	-1E+10	1	-1E+10	1	-1E+10	1	-1E+10	1	-1E+10	1
4901784	31	C	05/10/2016	10:49	-132.003	44.749	0	785.70	0	3.8830	0	34.2690	0	27.222	0	777.866	0	11.5	4	3.6	4	-1E+10	1	-1E+10	1	-1E+10	1	-1E+10	1	-1E+10	1	-1E+10	1
4901784	31	C	05/10/2016	10:49	-132.003	44.749	0	790.00	0	3.8810	0	34.2730	0	27.226	0	782.115	0	11.5	4	3.6	4	-1E+10	1	-1E+10	1	-1E+10	1	-1E+10	1	-1E+10	1	-1E+10	1
4901784	31	C	05/10/2016	10:49	-132.003	44.749	0	794.40	0	3.8540	0	34.2750	0	27.230	0	786.463	0	11.5	4	3.6	4	-1E+10	1	-1E+10	1	-1E+10	1	-1E+10	1	-1E+10	1	-1E+10	1
4901784	31	C	05/10/2016	10:49	-132.003	44.749	0	799.70	0	3.8470	0	34.2760	0	27.232	0	791.700	0	11.4	4	3.6	4	-1E+10	1	-1E+10	1	-1E+10	1	-1E+10	1	-1E+10	1	-1E+10	1
4901784	31	C	05/10/2016	10:49	-132.003	44.749	0	805.00	0	3.8320	0	34.2810	0	27.237	0	796.937	0	11.4	4	3.6	4	-1E+10	1	-1E+10	1	-1E+10	1	-1E+10	1	-1E+10	1	-1E+10	1
4901784	31	C	05/10/2016	10:49	-132.003	44.749	0	810.30	0	3.8180	0	34.2820	0	27.240	0	802.174	0	11.4	4	3.6	4	-1E+10	1	-1E+10	1	-1E+10	1	-1E+10	1	-1E+10	1	-1E+10	1
4901784	31	C	05/10/2016	10:49	-132.003	44.749	0	815.60	0	3.8020	0	34.2850	0	27.244	0	807.410	0	11.4	4	3.6	4	-1E+10	1	-1E+10	1	-1E+10	1	-1E+10	1	-1E+10	1	-1E+10	1
4901784	31	C	05/10/2016	10:49	-132.003	44.749	0	820.00	0	3.7680	0	34.2860	0	27.248	0	811.758	0	11.5	4	3.6	4	-1E+10	1	-1E+10	1	-1E+10	1	-1E+10	1	-1E+10	1	-1E+10	1
4901784	31	C	05/10/2016	10:49	-132.003	44.749	0	824.40	0	3.7390	0	34.2880	0	27.252	0	816.105	0	11.5	4	3.6	4	-1E+10	1	-1E+10	1	-1E+10	1	-1E+10	1	-1E+10	1	-1E+10	1
4901784	31	C	05/10/2016	10:49	-132.003	44.749	0	829.70	0	3.7300	0	34.2900	0	27.255	0	821.341	0	11.5	4	3.6	4	-1E+10	1	-1E+10	1	-1E+10	1	-1E+10	1	-1E+10	1	-1E+10	1
4901784	31	C	05/10/2016	10:49	-132.003	44.749	0	835.10	0	3.7260	0	34.2940	0	27.258	0	826.676	0	11.4	4	3.6	4	-1E+10	1	-1E+10	1	-1E+10	1	-1E+10	1	-1E+10	1	-1E+10	1
4901784	31	C	05/10/2016	10:49	-132.003	44.749	0	840.50	0	3.7110	0	34.2960	0	27.261	0	832.011	0	11.2	4	3.5	4	-1E+10	1	-1E+10	1	-1E+10	1	-1E+10	1	-1E+10	1	-1E+10	1
4901784	31	C	05/10/2016	10:49	-132.003	44.749	0	845.00	0	3.7070	0	34.3020	0	27.267	0	836.456	0	11.0	4	3.4	4	-1E+10	1	-1E+10	1	-1E+10	1	-1E+10	1	-1E+10	1	-1E+10	1
4901784	31	C	05/10/2016	10:49	-132.003	44.749	0	849.60	0	3.7520	0	34.3100	0	27.269	0	841.001	0	10.8	4	3.4	4	-1E+10	1	-1E+10	1	-1E+10	1	-1E+10	1	-1E+10	1	-1E+10	1
4901784	31	C	05/10/2016	10:49	-132.003	44.749	0	855.10	0	3.7340	0	34.3130	0	27.273	0	846.434	0	11.0	4	3.5	4	-1E+10	1	-1E+10	1	-1E+10	1	-1E+10	1	-1E+10	1	-1E+10	1
4901784	31	C	05/10/2016	10:49	-132.003	44.749	0	860.50	0	3.6770	0	34.3100	0	27.276	0	851.768	0	11.3	4	3.5	4	-1E+10	1	-1E+10	1	-1E+10	1	-1E+10	1	-1E+10	1	-1E+10	1
4901784	31	C	05/10/2016	10:49	-132.003	44.749	0	865.10	0	3.6450	0	34.3090	0	27.278	0	856.312	0	11.4	4	3.6	4	-1E+10	1	-1E+10	1	-1E+10	1	-1E+10	1	-1E+10	1	-1E+10	1
4901784	31	C	05/10/2016	10:49	-132.003	44.749	0	869.70	0	3.6340	0	34.3110	0	27.281	0	860.856	0	11.3	4	3.6	4	-1E+10	1	-1E+10	1	-1E+10	1	-1E+10	1	-1E+10	1	-1E+10	1
4901784	31	C	05/10/2016	10:49	-132.003	44.749	0	875.00	0	3.6240	0	34.3140	0	27.285	0	866.091	0	11.3	4	3.5	4	-1E+10	1	-1E+10	1	-1E+10	1	-1E+10	1	-1E+10	1	-1E+10	1
4901784	31	C	05/10/2016	10:49	-132.003	44.749	0	879.30	0	3.6130	0	34.3170	0	27.288	0	870.338	0	11.3	4	3.5	4	-1E+10	1	-1E+10	1	-1E+10	1	-1E+10	1	-1E+10	1	-1E+10	1
4901784	31	C	05/10/2016	10:49	-132.003	44.749	0	884.90	0	3.6020	0	34.3200	0	27.292	0	875.869	0	11.3	4	3.5	4	-1E+10	1	-1E+10	1	-1E+10	1	-1E+10	1	-1E+10	1	-1E+10	1
4901784	31	C	05/10/2016	10:49	-132.003	44.749	0	890.40	0	3.5940	0	34.3220	0	27.294	0	881.302	0	11.3	4	3.5	4	-1E+10	1	-1E+10	1	-1E+10	1	-1E+10	1	-1E+10	1	-1E+10	1
4901784	31	C	05/10/2016	10:49	-132.003	44.749	0	895.20	0	3.5820	0	34.3230	0	27.296	0	886.042	0	11.3	4	3.5	4	-1E+10	1	-1E+10	1	-1E+10	1	-1E+10	1	-1E+10	1	-1E+10	1
4901784	31	C	05/10/2016	10:49	-132.003	44.749	0	900.10	0	3.5730	0	34.3250	0	27.298	0	890.882	0	11.3	4	3.5	4	-1E+10	1	-1E+10	1	-1E+10	1	-1E+10	1	-1E+10	1	-1E+10	1
4901784	31	C	05/10/2016	10:49	-132.003	44.749	0	905.00	0	3.5620	0	34.3270	0	27.301	0	895.721	0	11.4	4	3.5	4	-1E+10	1	-1E+10	1	-1E+10	1	-1E+10	1	-1E+10	1	-1E+10	1
4901784	31	C	05/10/2016	10:49	-132.003	44.749	0	910.00	0	3.5470	0	34.3290	0	27.304	0	900.659	0	11.4	4	3.6	4	-1E+10	1	-1E+10	1	-1E+10	1	-1E+10	1	-1E+10	1	-1E+10	1
4901784	31	C	05/10/2016	10:49	-132.003	44.749	0	914.90	0	3.5390	0	34.3310	0	27.307	0	905.498	0	11.4	4	3.6	4	-1E+10	1	-1E+10	1	-1E+10	1	-1E+10	1	-1E+10	1	-1E+10	1
4901784	31	C	05/10/2016	10:49	-132.003	44.749	0	919.90	0	3.5310	0	34.3360	0	27.311	0	910.436	0	11.4	4	3.6	4	-1E+10	1	-1E+10	1	-1E+10	1	-1E+10	1	-1E+10	1	-1E+10	1
4901784	31	C	05/10/2016	10:49	-132.003	44.749	0	925.00	0	3.5050	0	34.3380	0	27.316	0	915.472	0	11.5	4	3.6	4	-1E+10	1	-1E+10	1	-1E+10	1	-1E+10	1	-1E+10	1	-1E+10	1
4901784	31	C	05/10/2016	10:49	-132.003	44.749	0	930.10	0	3.4920	0	34.3400	0	27.318	0	920.509	0	11.5	4	3.6	4	-1E+10	1	-1E+10	1	-1E+10	1	-1E+10	1	-1E+10	1	-1E+10	1
4901784	31	C	05/10/2016	10:49	-132.003	44.749	0	935.30	0	3.4800	0	34.3430	0	27.322	0	925.644	0	11.5	4	3.6	4	-1E+10	1	-1E+10	1	-1E+10	1	-1E+10	1	-1E+10	1	-1E+10	1
4901784	31	C	05/10/2016	10:49	-132.003	44.749	0	940.40	0	3.4700	0	34.3450	0	27.325	0	930.680	0	11.5	4	3.6	4	-1E+10	1	-1E+10	1	-1E+10	1	-1E+10	1	-1E+10	1	-1E+10	1
4901784	31	C	05/10/2016	10:49	-132.003	44.749	0	945.60	0	3.4600	0	34.3470	0	27.327	0	935.814	0	11.6	4	3.6	4	-1E+10	1	-1E+10	1	-1E+10	1	-1E+10	1	-1E+10	1	-1E+10	1
4901784	31	C	05/10/2016	10:49	-132.003	44.749	0	950.00	0	3.4530	0	34.3480	0	27.329	0	940.159	0	11.6	4	3.6	4	-1E+10	1	-1E+10	1	-1E+10	1	-1E+10	1	-1E+10	1	-1E+10	1
4901784	31	C	05/10/2016	10:49	-132.003	44.749	0	954.40	0	3.4440	0	34.3490	0	27.330	0	944.503	0	11.6	4	3.6	4	-1E+10	1	-1E+10	1	-1E+10	1	-1E+10	1	-1E+10	1	-1E+10	1
4901784	31	C	05/10/2016	10:49	-132.003	44.749	0	959.60	0	3.4340	0	34.3520	0	27.334	0	949.638	0	11.6	4	3.6	4	-1E+10	1	-1E+10	1	-1E+10	1	-1E+10	1	-1E+10	1	-1E+10	1
4901784	31	C	05/10/2016	10:49	-132.003	44.749	0	964.90	0	3.4260	0	34.3530	0	27.335	0	954.871	0	11.7	4	3.6	4	-1E+10	1	-1E+10	1	-1E+10	1	-1E+10	1	-1E+10	1	-1E+10	1
4901784	31	C	05/10/2016	10:49	-132.003	44.749	0	970.30	0	3.4160	0	34.3560	0	27.339	0	960.202	0	11.7	4	3.6	4	-1E+10	1	-1E+10	1	-1E+10	1	-1E+10	1	-1E+10	1	-1E+10	1
4901784	31	C	05/10/2016	10:49	-132.003	44.749	0	975.60	0	3.4050	0	34.3580	0	27.341	0	965.435	0	11.7	4	3.7	4	-1E+10	1	-1E+10	1	-1E+10	1	-1E+10	1	-1E+10	1	-1E+10	1
4901784	31	C	05/10/2016	10:49	-132.003	44.749	0	980.10	0	3.3990	0	34.3590	0	27.343	0	969.877	0	11.8	4	3.7	4	-1E+10	1	-1E+10	1	-1E+10	1	-1E+10	1	-1E+10	1	-1E+10	1
4901784	31	C	05/10/2016	10:49	-132.003	44.749	0	984.60	0	3.3880	0	34.3610	0	27.345	0	974.320	0	11.8	4	3.7	4	-1E+10	1	-1E+10	1	-1E+10	1	-1E+10	1	-1E+10	1	-1E+10	1
4901784	31	C	05/10/2016	10:49	-132.003	44.749	0	990.10	0	3.3830	0	34.3630	0	27.348	0	979.750	0	11.8	4	3.7	4	-1E+10	1	-1E+10	1	-1E+10	1	-1E+10	1	-1E+10	1	-1E+10	1
4901784	31	C	05/10/2016	10:49	-132.003	44.749	0	995.60	0	3.3790	0	34.3640	0	27.349	0	985.179	0	11.8	4	3.7	4	-1E+10	1	-1E+10	1	-1E+10	1	-1E+10	1	-1E+10	1	-1E+10	1
4901784	31	C	05/10/2016	10:49	-132.003	44.749	0	1000.20	0	3.3770	0	34.3650	0	27.350	0	989.720	0	11.9	4	3.7	4	-1E+10	1	-1E+10	1	-1E+10	1	-1E+10	1	-1E+10	1	-1E+10	1
4901784	31	C	05/10/2016	10:49	-132.003	44.749	0	1004.80	0	3.3720	0	34.3670	0	27.352	0	994.261	0	11.9	4	3.7	4	-1E+10	1	-1E+10	1	-1E+10	1	-1E+10	1	-1E+10	1	-1E+10	1
4901784	31	C	05/10/2016	10:49	-132.003	44.749	0	1010.40	0	3.3610	0	34.3690	0	27.355	0	999.789	0	12.0	4	3.7	4	-1E+10	1	-1E+10	1	-1E+10	1	-1E+10	1	-1E+10	1	-1E+10	1
4901784	31	C	05/10/2016	10:49	-132.003	44.749	0	1015.10	0	3.3510	0	34.3700	0	27.356	0	1004.428	0	12.0	4	3.7	4	-1E+10	1	-1E+10	1	-1E+10	1	-1E+10	1	-1E+10	1	-1E+10	1
4901784	31	C	05/10/2016	10:49	-132.003	44.749	0	1019.80	0	3.3360	0	34.3730	0	27.360	0	1009.068	0	12.1	4	3.8	4	-1E+10	1	-1E+10	1	-1E+10	1	-1E+10	1	-1E+10	1	-1E+10	1
4901784	31	C	05/10/2016	10:49	-132.003	44.749	0	1025.40	0	3.3230	0	34.3780	0	27.365	0	1014.595	0	12.2	4	3.8	4	-1E+10	1	-1E+10	1	-1E+10	1	-1E+10	1	-1E+10	1	-1E+10	1
4901784	31	C	05/10/2016	10:49	-132.003	44.749	0	1030.10	0	3.3230	0	34.3800	0	27.367	0	1019.234	0	12.2	4	3.8	4	-1E+10	1	-1E+10	1	-1E+10	1	-1E+10	1	-1E+10	1	-1E+10	1
4901784	31	C	05/10/2016	10:49	-132.003	44.749	0	1034.80	0	3.3220	0	34.3810	0	27.368	0	1023.873	0	12.3	4	3.8	4	-1E+10	1	-1E+10	1	-1E+10	1	-1E+10	1	-1E+10	1	-1E+10	1
4901784	31	C	05/10/2016	10:49	-132.003	44.749	0	1040.40	0	3.3200	0	34.3840	0	27.371	0	1029.400	0	12.4	4	3.9	4	-1E+10	1	-1E+10	1	-1E+10	1	-1E+10	1	-1E+10	1	-1E+10	1
4901784	31	C	05/10/2016	10:49	-132.003	44.749	0	1045.10	0	3.3160	0	34.3860	0	27.373	0	1034.039	0	12.5	4	3.9	4	-1E+10	1	-1E+10	1	-1E+10	1	-1E+10	1	-1E+10	1	-1E+10	1
4901784	31	C	05/10/2016	10:49	-132.003	44.749	0	1049.80	0	3.3140	0	34.3880	0	27.374	0	1038.678	0	12.6	4	3.9	4	-1E+10	1	-1E+10	1	-1E+10	1	-1E+10	1	-1E+10	1	-1E+10	1
4901784	31	C	05/10/2016	10:49	-132.003	44.749	0	1055.30	0	3.3180	0	34.3930	0	27.378	0	1044.106	0	12.8	4	4.0	4	-1E+10	1	-1E+10	1	-1E+10	1	-1E+10	1	-1E+10	1	-1E+10	1
4901784	31	C	05/10/2016	10:49	-132.003	44.749	0	1060.00	0	3.3210	0	34.3990	0	27.383	0	1048.744	0	12.9	4	4.0	4	-1E+10	1	-1E+10	1	-1E+10	1	-1E+10	1	-1E+10	1	-1E+10	1
4901784	31	C	05/10/2016	10:49	-132.003	44.749	0	1065.30	0	3.3220	0	34.4000	0	27.383	0	1053.975	0	13.0	4	4.0	4	-1E+10	1	-1E+10	1	-1E+10	1	-1E+10	1	-1E+10	1	-1E+10	1
4901784	31	C	05/10/2016	10:49	-132.003	44.749	0	1070.30	0	3.3220	0	34.4020	0	27.385	0	1058.909	0	13.1	4	4.1	4	-1E+10	1	-1E+10	1	-1E+10	1	-1E+10	1	-1E+10	1	-1E+10	1
4901784	31	C	05/10/2016	10:49	-132.003	44.749	0	1075.20	0	3.3170	0	34.4040	0	27.387	0	1063.744	0	13.2	4	4.1	4	-1E+10	1	-1E+10	1	-1E+10	1	-1E+10	1	-1E+10	1	-1E+10	1
4901784	31	C	05/10/2016	10:49	-132.003	44.749	0	1080.10	0	3.3030	0	34.4070	0	27.391	0	1068.580	0	13.4	4	4.2	4	-1E+10	1	-1E+10	1	-1E+10	1	-1E+10	1	-1E+10	1	-1E+10	1
4901784	31	C	05/10/2016	10:49	-132.003	44.749	0	1084.90	0	3.2820	0	34.4090	0	27.394	0	1073.316	0	13.5	4	4.2	4	-1E+10	1	-1E+10	1	-1E+10	1	-1E+10	1	-1E+10	1	-1E+10	1
4901784	31	C	05/10/2016	10:49	-132.003	44.749	0	1089.80	0	3.2690	0	34.4100	0	27.396	0	1078.151	0	13.6	4	4.2	4	-1E+10	1	-1E+10	1	-1E+10	1	-1E+10	1	-1E+10	1	-1E+10	1
4901784	31	C	05/10/2016	10:49	-132.003	44.749	0	1094.60	0	3.2640	0	34.4120	0	27.399	0	1082.888	0	13.7	4	4.3	4	-1E+10	1	-1E+10	1	-1E+10	1	-1E+10	1	-1E+10	1	-1E+10	1
4901784	31	C	05/10/2016	10:49	-132.003	44.749	0	1099.60	0	3.2610	0	34.4120	0	27.399	0	1087.821	0	13.8	4	4.3	4	-1E+10	1	-1E+10	1	-1E+10	1	-1E+10	1	-1E+10	1	-1E+10	1
4901784	31	C	05/10/2016	10:49	-132.003	44.749	0	1104.50	0	3.2570	0	34.4130	0	27.400	0	1092.656	0	13.9	4	4.3	4	-1E+10	1	-1E+10	1	-1E+10	1	-1E+10	1	-1E+10	1	-1E+10	1
4901784	31	C	05/10/2016	10:49	-132.003	44.749	0	1109.60	0	3.2490	0	34.4140	0	27.402	0	1097.688	0	14.1	4	4.4	4	-1E+10	1	-1E+10	1	-1E+10	1	-1E+10	1	-1E+10	1	-1E+10	1
4901784	31	C	05/10/2016	10:49	-132.003	44.749	0	1114.50	0	3.2220	0	34.4180	0	27.407	0	1102.522	0	14.3	4	4.4	4	-1E+10	1	-1E+10	1	-1E+10	1	-1E+10	1	-1E+10	1	-1E+10	1
4901784	31	C	05/10/2016	10:49	-132.003	44.749	0	1119.60	0	3.2120	0	34.4190	0	27.409	0	1107.554	0	14.4	4	4.5	4	-1E+10	1	-1E+10	1	-1E+10	1	-1E+10	1	-1E+10	1	-1E+10	1
4901784	31	C	05/10/2016	10:49	-132.003	44.749	0	1124.60	0	3.2050	0	34.4200	0	27.411	0	1112.487	0	14.5	4	4.5	4	-1E+10	1	-1E+10	1	-1E+10	1	-1E+10	1	-1E+10	1	-1E+10	1
4901784	31	C	05/10/2016	10:49	-132.003	44.749	0	1129.60	0	3.2020	0	34.4210	0	27.412	0	1117.420	0	14.6	4	4.5	4	-1E+10	1	-1E+10	1	-1E+10	1	-1E+10	1	-1E+10	1	-1E+10	1
4901784	31	C	05/10/2016	10:49	-132.003	44.749	0	1134.60	0	3.1920	0	34.4230	0	27.414	0	1122.353	0	14.7	4	4.6	4	-1E+10	1	-1E+10	1	-1E+10	1	-1E+10	1	-1E+10	1	-1E+10	1
4901784	31	C	05/10/2016	10:49	-132.003	44.749	0	1139.60	0	3.1840	0	34.4240	0	27.416	0	1127.285	0	14.8	4	4.6	4	-1E+10	1	-1E+10	1	-1E+10	1	-1E+10	1	-1E+10	1	-1E+10	1
4901784	31	C	05/10/2016	10:49	-132.003	44.749	0	1144.60	0	3.1750	0	34.4250	0	27.417	0	1132.218	0	15.0	4	4.6	4	-1E+10	1	-1E+10	1	-1E+10	1	-1E+10	1	-1E+10	1	-1E+10	1
4901784	31	C	05/10/2016	10:49	-132.003	44.749	0	1149.60	0	3.1660	0	34.4260	0	27.419	0	1137.150	0	15.0	4	4.7	4	-1E+10	1	-1E+10	1	-1E+10	1	-1E+10	1	-1E+10	1	-1E+10	1
4901784	31	C	05/10/2016	10:49	-132.003	44.749	0	1154.70	0	3.1600	0	34.4260	0	27.420	0	1142.181	0	15.2	4	4.7	4	-1E+10	1	-1E+10	1	-1E+10	1	-1E+10	1	-1E+10	1	-1E+10	1
4901784	31	C	05/10/2016	10:49	-132.003	44.749	0	1159.70	0	3.1450	0	34.4270	0	27.422	0	1147.113	0	15.3	4	4.8	4	-1E+10	1	-1E+10	1	-1E+10	1	-1E+10	1	-1E+10	1	-1E+10	1
4901784	31	C	05/10/2016	10:49	-132.003	44.749	0	1164.70	0	3.1250	0	34.4300	0	27.426	0	1152.045	0	15.6	4	4.8	4	-1E+10	1	-1E+10	1	-1E+10	1	-1E+10	1	-1E+10	1	-1E+10	1
4901784	31	C	05/10/2016	10:49	-132.003	44.749	0	1169.80	0	3.1030	0	34.4330	0	27.431	0	1157.076	0	15.8	4	4.9	4	-1E+10	1	-1E+10	1	-1E+10	1	-1E+10	1	-1E+10	1	-1E+10	1
4901784	31	C	05/10/2016	10:49	-132.003	44.749	0	1174.90	0	3.0990	0	34.4340	0	27.432	0	1162.106	0	15.9	4	4.9	4	-1E+10	1	-1E+10	1	-1E+10	1	-1E+10	1	-1E+10	1	-1E+10	1
4901784	31	C	05/10/2016	10:49	-132.003	44.749	0	1180.00	0	3.0930	0	34.4350	0	27.433	0	1167.137	0	16.1	4	5.0	4	-1E+10	1	-1E+10	1	-1E+10	1	-1E+10	1	-1E+10	1	-1E+10	1
4901784	31	C	05/10/2016	10:49	-132.003	44.749	0	1185.10	0	3.0770	0	34.4370	0	27.436	0	1172.167	0	16.3	4	5.1	4	-1E+10	1	-1E+10	1	-1E+10	1	-1E+10	1	-1E+10	1	-1E+10	1
4901784	31	C	05/10/2016	10:49	-132.003	44.749	0	1190.20	0	3.0600	0	34.4390	0	27.439	0	1177.197	0	16.6	4	5.1	4	-1E+10	1	-1E+10	1	-1E+10	1	-1E+10	1	-1E+10	1	-1E+10	1
4901784	31	C	05/10/2016	10:49	-132.003	44.749	0	1195.40	0	3.0480	0	34.4400	0	27.441	0	1182.325	0	16.8	4	5.2	4	-1E+10	1	-1E+10	1	-1E+10	1	-1E+10	1	-1E+10	1	-1E+10	1
4901784	31	C	05/10/2016	10:49	-132.003	44.749	0	1200.50	0	3.0350	0	34.4420	0	27.444	0	1187.355	0	17.0	4	5.2	4	-1E+10	1	-1E+10	1	-1E+10	1	-1E+10	1	-1E+10	1	-1E+10	1
4901784	31	C	05/10/2016	10:49	-132.003	44.749	0	1205.70	0	3.0190	0	34.4440	0	27.447	0	1192.484	0	17.2	4	5.3	4	-1E+10	1	-1E+10	1	-1E+10	1	-1E+10	1	-1E+10	1	-1E+10	1
4901784	31	C	05/10/2016	10:49	-132.003	44.749	0	1210.10	0	3.0100	0	34.4460	0	27.450	0	1196.823	0	17.3	4	5.3	4	-1E+10	1	-1E+10	1	-1E+10	1	-1E+10	1	-1E+10	1	-1E+10	1
4901784	31	C	05/10/2016	10:49	-132.003	44.749	0	1214.50	0	3.0070	0	34.4460	0	27.450	0	1201.162	0	17.4	4	5.4	4	-1E+10	1	-1E+10	1	-1E+10	1	-1E+10	1	-1E+10	1	-1E+10	1
4901784	31	C	05/10/2016	10:49	-132.003	44.749	0	1219.80	0	2.9910	0	34.4480	0	27.453	0	1206.389	0	17.6	4	5.4	4	-1E+10	1	-1E+10	1	-1E+10	1	-1E+10	1	-1E+10	1	-1E+10	1
4901784	31	C	05/10/2016	10:49	-132.003	44.749	0	1225.10	0	2.9840	0	34.4480	0	27.454	0	1211.615	0	17.7	4	5.5	4	-1E+10	1	-1E+10	1	-1E+10	1	-1E+10	1	-1E+10	1	-1E+10	1
4901784	31	C	05/10/2016	10:49	-132.003	44.749	0	1230.50	0	2.9690	0	34.4500	0	27.457	0	1216.940	0	17.9	4	5.5	4	-1E+10	1	-1E+10	1	-1E+10	1	-1E+10	1	-1E+10	1	-1E+10	1
4901784	31	C	05/10/2016	10:49	-132.003	44.749	0	1235.00	0	2.9610	0	34.4510	0	27.458	0	1221.377	0	18.1	4	5.6	4	-1E+10	1	-1E+10	1	-1E+10	1	-1E+10	1	-1E+10	1	-1E+10	1
4901784	31	C	05/10/2016	10:49	-132.003	44.749	0	1239.50	0	2.9500	0	34.4520	0	27.460	0	1225.815	0	18.3	4	5.6	4	-1E+10	1	-1E+10	1	-1E+10	1	-1E+10	1	-1E+10	1	-1E+10	1
4901784	31	C	05/10/2016	10:49	-132.003	44.749	0	1244.90	0	2.9370	0	34.4540	0	27.463	0	1231.139	0	18.5	4	5.7	4	-1E+10	1	-1E+10	1	-1E+10	1	-1E+10	1	-1E+10	1	-1E+10	1
4901784	31	C	05/10/2016	10:49	-132.003	44.749	0	1250.40	0	2.9260	0	34.4550	0	27.465	0	1236.562	0	18.7	4	5.8	4	-1E+10	1	-1E+10	1	-1E+10	1	-1E+10	1	-1E+10	1	-1E+10	1
4901784	31	C	05/10/2016	10:49	-132.003	44.749	0	1254.90	0	2.9170	0	34.4560	0	27.466	0	1240.999	0	18.8	4	5.8	4	-1E+10	1	-1E+10	1	-1E+10	1	-1E+10	1	-1E+10	1	-1E+10	1
4901784	31	C	05/10/2016	10:49	-132.003	44.749	0	1259.50	0	2.9130	0	34.4570	0	27.467	0	1245.535	0	18.9	4	5.8	4	-1E+10	1	-1E+10	1	-1E+10	1	-1E+10	1	-1E+10	1	-1E+10	1
4901784	31	C	05/10/2016	10:49	-132.003	44.749	0	1265.10	0	2.9070	0	34.4570	0	27.468	0	1251.056	0	19.0	4	5.9	4	-1E+10	1	-1E+10	1	-1E+10	1	-1E+10	1	-1E+10	1	-1E+10	1
4901784	31	C	05/10/2016	10:49	-132.003	44.749	0	1269.70	0	2.9030	0	34.4580	0	27.469	0	1255.591	0	19.2	4	5.9	4	-1E+10	1	-1E+10	1	-1E+10	1	-1E+10	1	-1E+10	1	-1E+10	1
4901784	31	C	05/10/2016	10:49	-132.003	44.749	0	1274.30	0	2.8920	0	34.4600	0	27.472	0	1260.126	0	19.4	4	6.0	4	-1E+10	1	-1E+10	1	-1E+10	1	-1E+10	1	-1E+10	1	-1E+10	1
4901784	31	C	05/10/2016	10:49	-132.003	44.749	0	1279.60	0	2.8840	0	34.4610	0	27.473	0	1265.351	0	19.6	4	6.0	4	-1E+10	1	-1E+10	1	-1E+10	1	-1E+10	1	-1E+10	1	-1E+10	1
4901784	31	C	05/10/2016	10:49	-132.003	44.749	0	1284.50	0	2.8760	0	34.4620	0	27.475	0	1270.182	0	19.7	4	6.1	4	-1E+10	1	-1E+10	1	-1E+10	1	-1E+10	1	-1E+10	1	-1E+10	1
4901784	31	C	05/10/2016	10:49	-132.003	44.749	0	1289.30	0	2.8740	0	34.4620	0	27.475	0	1274.914	0	19.8	4	6.1	4	-1E+10	1	-1E+10	1	-1E+10	1	-1E+10	1	-1E+10	1	-1E+10	1
4901784	31	C	05/10/2016	10:49	-132.003	44.749	0	1294.20	0	2.8670	0	34.4620	0	27.476	0	1279.744	0	20.0	4	6.2	4	-1E+10	1	-1E+10	1	-1E+10	1	-1E+10	1	-1E+10	1	-1E+10	1
4901784	31	C	05/10/2016	10:49	-132.003	44.749	0	1300.00	0	2.8570	0	34.4640	0	27.478	0	1285.462	0	20.3	4	6.3	4	-1E+10	1	-1E+10	1	-1E+10	1	-1E+10	1	-1E+10	1	-1E+10	1
4901784	31	C	05/10/2016	10:49	-132.003	44.749	0	1305.00	0	2.8470	0	34.4660	0	27.481	0	1290.391	0	20.6	4	6.3	4	-1E+10	1	-1E+10	1	-1E+10	1	-1E+10	1	-1E+10	1	-1E+10	1
4901784	31	C	05/10/2016	10:49	-132.003	44.749	0	1309.30	0	2.8400	0	34.4670	0	27.482	0	1294.630	0	20.7	4	6.4	4	-1E+10	1	-1E+10	1	-1E+10	1	-1E+10	1	-1E+10	1	-1E+10	1
4901784	31	C	05/10/2016	10:49	-132.003	44.749	0	1314.40	0	2.8330	0	34.4670	0	27.483	0	1299.657	0	20.9	4	6.4	4	-1E+10	1	-1E+10	1	-1E+10	1	-1E+10	1	-1E+10	1	-1E+10	1
4901784	31	C	05/10/2016	10:49	-132.003	44.749	0	1319.50	0	2.8130	0	34.4690	0	27.486	0	1304.684	0	21.2	4	6.5	4	-1E+10	1	-1E+10	1	-1E+10	1	-1E+10	1	-1E+10	1	-1E+10	1
4901784	31	C	05/10/2016	10:49	-132.003	44.749	0	1324.70	0	2.8030	0	34.4710	0	27.489	0	1309.809	0	21.4	4	6.6	4	-1E+10	1	-1E+10	1	-1E+10	1	-1E+10	1	-1E+10	1	-1E+10	1
4901784	31	C	05/10/2016	10:49	-132.003	44.749	0	1330.00	0	2.7900	0	34.4720	0	27.491	0	1315.033	0	21.7	4	6.7	4	-1E+10	1	-1E+10	1	-1E+10	1	-1E+10	1	-1E+10	1	-1E+10	1
4901784	31	C	05/10/2016	10:49	-132.003	44.749	0	1335.10	0	2.7790	0	34.4730	0	27.492	0	1320.060	0	21.9	4	6.7	4	-1E+10	1	-1E+10	1	-1E+10	1	-1E+10	1	-1E+10	1	-1E+10	1
4901784	31	C	05/10/2016	10:49	-132.003	44.749	0	1340.00	0	2.7650	0	34.4740	0	27.494	0	1324.889	0	22.1	4	6.8	4	-1E+10	1	-1E+10	1	-1E+10	1	-1E+10	1	-1E+10	1	-1E+10	1
4901784	31	C	05/10/2016	10:49	-132.003	44.749	0	1344.50	0	2.7590	0	34.4750	0	27.496	0	1329.324	0	22.2	4	6.8	4	-1E+10	1	-1E+10	1	-1E+10	1	-1E+10	1	-1E+10	1	-1E+10	1
4901784	31	C	05/10/2016	10:49	-132.003	44.749	0	1349.80	0	2.7490	0	34.4760	0	27.497	0	1334.548	0	22.4	4	6.9	4	-1E+10	1	-1E+10	1	-1E+10	1	-1E+10	1	-1E+10	1	-1E+10	1
4901784	31	C	05/10/2016	10:49	-132.003	44.749	0	1355.20	0	2.7390	0	34.4770	0	27.499	0	1339.869	0	22.6	4	6.9	4	-1E+10	1	-1E+10	1	-1E+10	1	-1E+10	1	-1E+10	1	-1E+10	1
4901784	31	C	05/10/2016	10:49	-132.003	44.749	0	1360.20	0	2.7320	0	34.4770	0	27.500	0	1344.797	0	22.7	4	7.0	4	-1E+10	1	-1E+10	1	-1E+10	1	-1E+10	1	-1E+10	1	-1E+10	1
4901784	31	C	05/10/2016	10:49	-132.003	44.749	0	1365.40	0	2.7260	0	34.4780	0	27.501	0	1349.921	0	22.9	4	7.0	4	-1E+10	1	-1E+10	1	-1E+10	1	-1E+10	1	-1E+10	1	-1E+10	1
4901784	31	C	05/10/2016	10:49	-132.003	44.749	0	1370.60	0	2.7160	0	34.4790	0	27.503	0	1355.046	0	23.1	4	7.1	4	-1E+10	1	-1E+10	1	-1E+10	1	-1E+10	1	-1E+10	1	-1E+10	1
4901784	31	C	05/10/2016	10:49	-132.003	44.749	0	1375.00	0	2.7130	0	34.4790	0	27.503	0	1359.382	0	23.2	4	7.1	4	-1E+10	1	-1E+10	1	-1E+10	1	-1E+10	1	-1E+10	1	-1E+10	1
4901784	31	C	05/10/2016	10:49	-132.003	44.749	0	1379.50	0	2.7060	0	34.4800	0	27.505	0	1363.816	0	23.4	4	7.2	4	-1E+10	1	-1E+10	1	-1E+10	1	-1E+10	1	-1E+10	1	-1E+10	1
4901784	31	C	05/10/2016	10:49	-132.003	44.749	0	1384.90	0	2.6900	0	34.4810	0	27.507	0	1369.137	0	23.8	4	7.3	4	-1E+10	1	-1E+10	1	-1E+10	1	-1E+10	1	-1E+10	1	-1E+10	1
4901784	31	C	05/10/2016	10:49	-132.003	44.749	0	1390.40	0	2.6750	0	34.4820	0	27.509	0	1374.557	0	24.1	4	7.4	4	-1E+10	1	-1E+10	1	-1E+10	1	-1E+10	1	-1E+10	1	-1E+10	1
4901784	31	C	05/10/2016	10:49	-132.003	44.749	0	1395.00	0	2.6600	0	34.4840	0	27.512	0	1379.089	0	24.5	4	7.5	4	-1E+10	1	-1E+10	1	-1E+10	1	-1E+10	1	-1E+10	1	-1E+10	1
4901784	31	C	05/10/2016	10:49	-132.003	44.749	0	1399.70	0	2.6380	0	34.4860	0	27.515	0	1383.720	0	25.0	4	7.7	4	-1E+10	1	-1E+10	1	-1E+10	1	-1E+10	1	-1E+10	1	-1E+10	1
4901784	31	C	05/10/2016	10:49	-132.003	44.749	0	1405.20	0	2.6230	0	34.4880	0	27.518	0	1389.139	0	25.4	4	7.8	4	-1E+10	1	-1E+10	1	-1E+10	1	-1E+10	1	-1E+10	1	-1E+10	1
4901784	31	C	05/10/2016	10:49	-132.003	44.749	0	1409.90	0	2.6180	0	34.4900	0	27.520	0	1393.770	0	25.8	4	7.9	4	-1E+10	1	-1E+10	1	-1E+10	1	-1E+10	1	-1E+10	1	-1E+10	1
4901784	31	C	05/10/2016	10:49	-132.003	44.749	0	1414.60	0	2.6130	0	34.4920	0	27.522	0	1398.401	0	26.1	4	8.0	4	-1E+10	1	-1E+10	1	-1E+10	1	-1E+10	1	-1E+10	1	-1E+10	1
4901784	31	C	05/10/2016	10:49	-132.003	44.749	0	1420.30	0	2.6050	0	34.4920	0	27.523	0	1404.016	0	26.3	4	8.1	4	-1E+10	1	-1E+10	1	-1E+10	1	-1E+10	1	-1E+10	1	-1E+10	1
4901784	31	C	05/10/2016	10:49	-132.003	44.749	0	1425.00	0	2.5960	0	34.4930	0	27.525	0	1408.647	0	26.8	4	8.2	4	-1E+10	1	-1E+10	1	-1E+10	1	-1E+10	1	-1E+10	1	-1E+10	1
4901784	31	C	05/10/2016	10:49	-132.003	44.749	0	1429.80	0	2.5900	0	34.4950	0	27.527	0	1413.376	0	27.2	4	8.3	4	-1E+10	1	-1E+10	1	-1E+10	1	-1E+10	1	-1E+10	1	-1E+10	1
4901784	31	C	05/10/2016	10:49	-132.003	44.749	0	1434.60	0	2.5770	0	34.4970	0	27.529	0	1418.104	0	27.4	4	8.4	4	-1E+10	1	-1E+10	1	-1E+10	1	-1E+10	1	-1E+10	1	-1E+10	1
4901784	31	C	05/10/2016	10:49	-132.003	44.749	0	1439.50	0	2.5710	0	34.4970	0	27.530	0	1422.932	0	27.6	4	8.4	4	-1E+10	1	-1E+10	1	-1E+10	1	-1E+10	1	-1E+10	1	-1E+10	1
4901784	31	C	05/10/2016	10:49	-132.003	44.749	0	1445.20	0	2.5630	0	34.4980	0	27.532	0	1428.547	0	27.9	4	8.5	4	-1E+10	1	-1E+10	1	-1E+10	1	-1E+10	1	-1E+10	1	-1E+10	1
4901784	31	C	05/10/2016	10:49	-132.003	44.749	0	1450.00	0	2.5530	0	34.4990	0	27.533	0	1433.275	0	28.2	4	8.6	4	-1E+10	1	-1E+10	1	-1E+10	1	-1E+10	1	-1E+10	1	-1E+10	1
4901784	31	C	05/10/2016	10:49	-132.003	44.749	0	1454.90	0	2.5380	0	34.5000	0	27.535	0	1438.102	0	28.4	4	8.7	4	-1E+10	1	-1E+10	1	-1E+10	1	-1E+10	1	-1E+10	1	-1E+10	1
4901784	31	C	05/10/2016	10:49	-132.003	44.749	0	1459.90	0	2.5320	0	34.5010	0	27.537	0	1443.027	0	28.6	4	8.7	4	-1E+10	1	-1E+10	1	-1E+10	1	-1E+10	1	-1E+10	1	-1E+10	1
4901784	31	C	05/10/2016	10:49	-132.003	44.749	0	1464.90	0	2.5280	0	34.5010	0	27.537	0	1447.952	0	28.7	4	8.8	4	-1E+10	1	-1E+10	1	-1E+10	1	-1E+10	1	-1E+10	1	-1E+10	1
4901784	31	C	05/10/2016	10:49	-132.003	44.749	0	1469.80	0	2.5200	0	34.5020	0	27.538	0	1452.779	0	29.0	4	8.8	4	-1E+10	1	-1E+10	1	-1E+10	1	-1E+10	1	-1E+10	1	-1E+10	1
4901784	31	C	05/10/2016	10:49	-132.003	44.749	0	1474.80	0	2.5100	0	34.5030	0	27.540	0	1457.704	0	29.2	4	8.9	4	-1E+10	1	-1E+10	1	-1E+10	1	-1E+10	1	-1E+10	1	-1E+10	1
4901784	31	C	05/10/2016	10:49	-132.003	44.749	0	1479.80	0	2.5000	0	34.5040	0	27.542	0	1462.628	0	29.5	4	9.0	4	-1E+10	1	-1E+10	1	-1E+10	1	-1E+10	1	-1E+10	1	-1E+10	1
4901784	31	C	05/10/2016	10:49	-132.003	44.749	0	1484.80	0	2.4930	0	34.5050	0	27.543	0	1467.553	0	29.6	4	9.0	4	-1E+10	1	-1E+10	1	-1E+10	1	-1E+10	1	-1E+10	1	-1E+10	1
4901784	31	C	05/10/2016	10:49	-132.003	44.749	0	1489.70	0	2.4910	0	34.5050	0	27.543	0	1472.379	0	29.7	4	9.1	4	-1E+10	1	-1E+10	1	-1E+10	1	-1E+10	1	-1E+10	1	-1E+10	1
4901784	31	C	05/10/2016	10:49	-132.003	44.749	0	1494.40	0	2.4880	0	34.5050	0	27.544	0	1477.008	0	29.9	4	9.1	4	-1E+10	1	-1E+10	1	-1E+10	1	-1E+10	1	-1E+10	1	-1E+10	1
4901784	31	C	05/10/2016	10:49	-132.003	44.749	0	1499.80	0	2.4800	0	34.5060	0	27.545	0	1482.326	0	30.0	4	9.2	4	-1E+10	1	-1E+10	1	-1E+10	1	-1E+10	1	-1E+10	1	-1E+10	1
4901784	31	C	05/10/2016	10:49	-132.003	44.749	0	1505.30	0	2.4730	0	34.5070	0	27.547	0	1487.743	0	30.2	4	9.2	4	-1E+10	1	-1E+10	1	-1E+10	1	-1E+10	1	-1E+10	1	-1E+10	1
4901784	31	C	05/10/2016	10:49	-132.003	44.749	0	1509.80	0	2.4690	0	34.5070	0	27.547	0	1492.174	0	30.3	4	9.2	4	-1E+10	1	-1E+10	1	-1E+10	1	-1E+10	1	-1E+10	1	-1E+10	1
4901784	31	C	05/10/2016	10:49	-132.003	44.749	0	1514.40	0	2.4620	0	34.5070	0	27.548	0	1496.704	0	30.5	4	9.3	4	-1E+10	1	-1E+10	1	-1E+10	1	-1E+10	1	-1E+10	1	-1E+10	1
4901784	31	C	05/10/2016	10:49	-132.003	44.749	0	1519.90	0	2.4570	0	34.5080	0	27.549	0	1502.120	0	30.7	4	9.3	4	-1E+10	1	-1E+10	1	-1E+10	1	-1E+10	1	-1E+10	1	-1E+10	1
4901784	31	C	05/10/2016	10:49	-132.003	44.749	0	1525.40	0	2.4500	0	34.5090	0	27.550	0	1507.537	0	30.9	4	9.4	4	-1E+10	1	-1E+10	1	-1E+10	1	-1E+10	1	-1E+10	1	-1E+10	1
4901784	31	C	05/10/2016	10:49	-132.003	44.749	0	1530.10	0	2.4460	0	34.5090	0	27.551	0	1512.165	0	31.0	4	9.4	4	-1E+10	1	-1E+10	1	-1E+10	1	-1E+10	1	-1E+10	1	-1E+10	1
4901784	31	C	05/10/2016	10:49	-132.003	44.749	0	1534.70	0	2.4440	0	34.5090	0	27.551	0	1516.694	0	31.1	4	9.5	4	-1E+10	1	-1E+10	1	-1E+10	1	-1E+10	1	-1E+10	1	-1E+10	1
4901784	31	C	05/10/2016	10:49	-132.003	44.749	0	1540.20	0	2.4390	0	34.5100	0	27.552	0	1522.110	0	31.4	4	9.6	4	-1E+10	1	-1E+10	1	-1E+10	1	-1E+10	1	-1E+10	1	-1E+10	1
4901784	31	C	05/10/2016	10:49	-132.003	44.749	0	1544.90	0	2.4310	0	34.5110	0	27.554	0	1526.738	0	31.6	4	9.6	4	-1E+10	1	-1E+10	1	-1E+10	1	-1E+10	1	-1E+10	1	-1E+10	1
4901784	31	C	05/10/2016	10:49	-132.003	44.749	0	1549.60	0	2.4270	0	34.5110	0	27.554	0	1531.366	0	31.8	4	9.7	4	-1E+10	1	-1E+10	1	-1E+10	1	-1E+10	1	-1E+10	1	-1E+10	1
4901784	31	C	05/10/2016	10:49	-132.003	44.749	0	1555.00	0	2.4210	0	34.5120	0	27.555	0	1536.682	0	32.1	4	9.8	4	-1E+10	1	-1E+10	1	-1E+10	1	-1E+10	1	-1E+10	1	-1E+10	1
4901784	31	C	05/10/2016	10:49	-132.003	44.749	0	1560.50	0	2.4110	0	34.5130	0	27.557	0	1542.098	0	32.5	4	9.9	4	-1E+10	1	-1E+10	1	-1E+10	1	-1E+10	1	-1E+10	1	-1E+10	1
4901784	31	C	05/10/2016	10:49	-132.003	44.749	0	1565.30	0	2.4020	0	34.5140	0	27.558	0	1546.823	0	32.8	4	10.0	4	-1E+10	1	-1E+10	1	-1E+10	1	-1E+10	1	-1E+10	1	-1E+10	1
4901784	31	C	05/10/2016	10:49	-132.003	44.749	0	1570.10	0	2.3910	0	34.5150	0	27.560	0	1551.549	0	33.0	4	10.0	4	-1E+10	1	-1E+10	1	-1E+10	1	-1E+10	1	-1E+10	1	-1E+10	1
4901784	31	C	05/10/2016	10:49	-132.003	44.749	0	1575.10	0	2.3880	0	34.5150	0	27.560	0	1556.472	0	33.2	4	10.1	4	-1E+10	1	-1E+10	1	-1E+10	1	-1E+10	1	-1E+10	1	-1E+10	1
4901784	31	C	05/10/2016	10:49	-132.003	44.749	0	1580.00	0	2.3810	0	34.5160	0	27.562	0	1561.296	0	33.5	4	10.2	4	-1E+10	1	-1E+10	1	-1E+10	1	-1E+10	1	-1E+10	1	-1E+10	1
4901784	31	C	05/10/2016	10:49	-132.003	44.749	0	1585.00	0	2.3760	0	34.5170	0	27.563	0	1566.218	0	33.7	4	10.3	4	-1E+10	1	-1E+10	1	-1E+10	1	-1E+10	1	-1E+10	1	-1E+10	1
4901784	31	C	05/10/2016	10:49	-132.003	44.749	0	1589.90	0	2.3670	0	34.5180	0	27.565	0	1571.042	0	34.0	4	10.3	4	-1E+10	1	-1E+10	1	-1E+10	1	-1E+10	1	-1E+10	1	-1E+10	1
4901784	31	C	05/10/2016	10:49	-132.003	44.749	0	1595.00	0	2.3630	0	34.5180	0	27.565	0	1576.062	0	34.2	4	10.4	4	-1E+10	1	-1E+10	1	-1E+10	1	-1E+10	1	-1E+10	1	-1E+10	1
4901784	31	C	05/10/2016	10:49	-132.003	44.749	0	1600.00	0	2.3550	0	34.5190	0	27.566	0	1580.984	0	34.6	4	10.5	4	-1E+10	1	-1E+10	1	-1E+10	1	-1E+10	1	-1E+10	1	-1E+10	1
4901784	31	C	05/10/2016	10:49	-132.003	44.749	0	1605.10	0	2.3430	0	34.5200	0	27.568	0	1586.005	0	35.1	4	10.7	4	-1E+10	1	-1E+10	1	-1E+10	1	-1E+10	1	-1E+10	1	-1E+10	1
4901784	31	C	05/10/2016	10:49	-132.003	44.749	0	1610.20	0	2.3280	0	34.5220	0	27.571	0	1591.025	0	35.5	4	10.8	4	-1E+10	1	-1E+10	1	-1E+10	1	-1E+10	1	-1E+10	1	-1E+10	1
4901784	31	C	05/10/2016	10:49	-132.003	44.749	0	1615.30	0	2.3200	0	34.5230	0	27.573	0	1596.045	0	35.8	4	10.9	4	-1E+10	1	-1E+10	1	-1E+10	1	-1E+10	1	-1E+10	1	-1E+10	1
4901784	31	C	05/10/2016	10:49	-132.003	44.749	0	1620.40	0	2.3140	0	34.5240	0	27.574	0	1601.065	0	36.1	4	11.0	4	-1E+10	1	-1E+10	1	-1E+10	1	-1E+10	1	-1E+10	1	-1E+10	1
4901784	31	C	05/10/2016	10:49	-132.003	44.749	0	1625.60	0	2.3070	0	34.5250	0	27.575	0	1606.183	0	36.4	4	11.0	4	-1E+10	1	-1E+10	1	-1E+10	1	-1E+10	1	-1E+10	1	-1E+10	1
4901784	31	C	05/10/2016	10:49	-132.003	44.749	0	1630.00	0	2.3020	0	34.5250	0	27.576	0	1610.514	0	36.7	4	11.1	4	-1E+10	1	-1E+10	1	-1E+10	1	-1E+10	1	-1E+10	1	-1E+10	1
4901784	31	C	05/10/2016	10:49	-132.003	44.749	0	1634.30	0	2.2950	0	34.5260	0	27.577	0	1614.746	0	36.9	4	11.2	4	-1E+10	1	-1E+10	1	-1E+10	1	-1E+10	1	-1E+10	1	-1E+10	1
4901784	31	C	05/10/2016	10:49	-132.003	44.749	0	1639.60	0	2.2870	0	34.5270	0	27.579	0	1619.962	0	37.2	4	11.3	4	-1E+10	1	-1E+10	1	-1E+10	1	-1E+10	1	-1E+10	1	-1E+10	1
4901784	31	C	05/10/2016	10:49	-132.003	44.749	0	1644.80	0	2.2830	0	34.5280	0	27.580	0	1625.080	0	37.5	4	11.4	4	-1E+10	1	-1E+10	1	-1E+10	1	-1E+10	1	-1E+10	1	-1E+10	1
4901784	31	C	05/10/2016	10:49	-132.003	44.749	0	1650.00	0	2.2760	0	34.5290	0	27.581	0	1630.198	0	37.9	4	11.5	4	-1E+10	1	-1E+10	1	-1E+10	1	-1E+10	1	-1E+10	1	-1E+10	1
4901784	31	C	05/10/2016	10:49	-132.003	44.749	0	1655.20	0	2.2690	0	34.5290	0	27.582	0	1635.315	0	38.2	4	11.6	4	-1E+10	1	-1E+10	1	-1E+10	1	-1E+10	1	-1E+10	1	-1E+10	1
4901784	31	C	05/10/2016	10:49	-132.003	44.749	0	1660.50	0	2.2620	0	34.5300	0	27.583	0	1640.531	0	38.4	4	11.7	4	-1E+10	1	-1E+10	1	-1E+10	1	-1E+10	1	-1E+10	1	-1E+10	1
4901784	31	C	05/10/2016	10:49	-132.003	44.749	0	1665.00	0	2.2570	0	34.5310	0	27.584	0	1644.960	0	38.7	4	11.7	4	-1E+10	1	-1E+10	1	-1E+10	1	-1E+10	1	-1E+10	1	-1E+10	1
4901784	31	C	05/10/2016	10:49	-132.003	44.749	0	1669.30	0	2.2460	0	34.5320	0	27.586	0	1649.191	0	39.1	4	11.8	4	-1E+10	1	-1E+10	1	-1E+10	1	-1E+10	1	-1E+10	1	-1E+10	1
4901784	31	C	05/10/2016	10:49	-132.003	44.749	0	1674.50	0	2.2350	0	34.5330	0	27.588	0	1654.308	0	39.4	4	12.0	4	-1E+10	1	-1E+10	1	-1E+10	1	-1E+10	1	-1E+10	1	-1E+10	1
4901784	31	C	05/10/2016	10:49	-132.003	44.749	0	1679.70	0	2.2280	0	34.5340	0	27.589	0	1659.425	0	39.7	4	12.0	4	-1E+10	1	-1E+10	1	-1E+10	1	-1E+10	1	-1E+10	1	-1E+10	1
4901784	31	C	05/10/2016	10:49	-132.003	44.749	0	1684.90	0	2.2240	0	34.5350	0	27.590	0	1664.542	0	39.9	4	12.1	4	-1E+10	1	-1E+10	1	-1E+10	1	-1E+10	1	-1E+10	1	-1E+10	1
4901784	31	C	05/10/2016	10:49	-132.003	44.749	0	1690.10	0	2.2220	0	34.5350	0	27.591	0	1669.659	0	40.1	4	12.2	4	-1E+10	1	-1E+10	1	-1E+10	1	-1E+10	1	-1E+10	1	-1E+10	1
4901784	31	C	05/10/2016	10:49	-132.003	44.749	0	1695.40	0	2.2200	0	34.5350	0	27.591	0	1674.874	0	40.4	4	12.2	4	-1E+10	1	-1E+10	1	-1E+10	1	-1E+10	1	-1E+10	1	-1E+10	1
4901784	31	C	05/10/2016	10:49	-132.003	44.749	0	1700.60	0	2.2140	0	34.5360	0	27.592	0	1679.990	0	40.7	4	12.3	4	-1E+10	1	-1E+10	1	-1E+10	1	-1E+10	1	-1E+10	1	-1E+10	1
4901784	31	C	05/10/2016	10:49	-132.003	44.749	0	1705.00	0	2.2070	0	34.5370	0	27.593	0	1684.319	0	41.0	4	12.4	4	-1E+10	1	-1E+10	1	-1E+10	1	-1E+10	1	-1E+10	1	-1E+10	1
4901784	31	C	05/10/2016	10:49	-132.003	44.749	0	1709.40	0	2.2020	0	34.5380	0	27.595	0	1688.648	0	41.3	4	12.5	4	-1E+10	1	-1E+10	1	-1E+10	1	-1E+10	1	-1E+10	1	-1E+10	1
4901784	31	C	05/10/2016	10:49	-132.003	44.749	0	1714.70	0	2.1950	0	34.5390	0	27.596	0	1693.863	0	41.6	4	12.6	4	-1E+10	1	-1E+10	1	-1E+10	1	-1E+10	1	-1E+10	1	-1E+10	1
4901784	31	C	05/10/2016	10:49	-132.003	44.749	0	1720.10	0	2.1870	0	34.5390	0	27.597	0	1699.176	0	42.0	4	12.7	4	-1E+10	1	-1E+10	1	-1E+10	1	-1E+10	1	-1E+10	1	-1E+10	1
4901784	31	C	05/10/2016	10:49	-132.003	44.749	0	1725.50	0	2.1800	0	34.5400	0	27.598	0	1704.488	0	42.4	4	12.8	4	-1E+10	1	-1E+10	1	-1E+10	1	-1E+10	1	-1E+10	1	-1E+10	1
4901784	31	C	05/10/2016	10:49	-132.003	44.749	0	1729.90	0	2.1730	0	34.5410	0	27.599	0	1708.817	0	42.7	4	12.9	4	-1E+10	1	-1E+10	1	-1E+10	1	-1E+10	1	-1E+10	1	-1E+10	1
4901784	31	C	05/10/2016	10:49	-132.003	44.749	0	1734.50	0	2.1650	0	34.5410	0	27.600	0	1713.342	0	42.9	4	13.0	4	-1E+10	1	-1E+10	1	-1E+10	1	-1E+10	1	-1E+10	1	-1E+10	1
4901784	31	C	05/10/2016	10:49	-132.003	44.749	0	1740.00	0	2.1550	0	34.5420	0	27.602	0	1718.753	0	43.4	4	13.1	4	-1E+10	1	-1E+10	1	-1E+10	1	-1E+10	1	-1E+10	1	-1E+10	1
4901784	31	C	05/10/2016	10:49	-132.003	44.749	0	1745.40	0	2.1450	0	34.5430	0	27.603	0	1724.065	0	43.9	4	13.3	4	-1E+10	1	-1E+10	1	-1E+10	1	-1E+10	1	-1E+10	1	-1E+10	1
4901784	31	C	05/10/2016	10:49	-132.003	44.749	0	1749.90	0	2.1390	0	34.5450	0	27.605	0	1728.492	0	44.3	4	13.4	4	-1E+10	1	-1E+10	1	-1E+10	1	-1E+10	1	-1E+10	1	-1E+10	1
4901784	31	C	05/10/2016	10:49	-132.003	44.749	0	1754.40	0	2.1300	0	34.5460	0	27.607	0	1732.918	0	44.6	4	13.5	4	-1E+10	1	-1E+10	1	-1E+10	1	-1E+10	1	-1E+10	1	-1E+10	1
4901784	31	C	05/10/2016	10:49	-132.003	44.749	0	1759.80	0	2.1270	0	34.5470	0	27.608	0	1738.230	0	44.9	4	13.6	4	-1E+10	1	-1E+10	1	-1E+10	1	-1E+10	1	-1E+10	1	-1E+10	1
4901784	31	C	05/10/2016	10:49	-132.003	44.749	0	1765.30	0	2.1230	0	34.5470	0	27.608	0	1743.640	0	45.2	4	13.7	4	-1E+10	1	-1E+10	1	-1E+10	1	-1E+10	1	-1E+10	1	-1E+10	1
4901784	31	C	05/10/2016	10:49	-132.003	44.749	0	1769.90	0	2.1220	0	34.5480	0	27.609	0	1748.165	0	45.5	4	13.7	4	-1E+10	1	-1E+10	1	-1E+10	1	-1E+10	1	-1E+10	1	-1E+10	1
4901784	31	C	05/10/2016	10:49	-132.003	44.749	0	1774.40	0	2.1190	0	34.5480	0	27.610	0	1752.591	0	45.8	4	13.8	4	-1E+10	1	-1E+10	1	-1E+10	1	-1E+10	1	-1E+10	1	-1E+10	1
4901784	31	C	05/10/2016	10:49	-132.003	44.749	0	1779.70	0	2.1100	0	34.5500	0	27.612	0	1757.804	0	46.2	4	14.0	4	-1E+10	1	-1E+10	1	-1E+10	1	-1E+10	1	-1E+10	1	-1E+10	1
4901784	31	C	05/10/2016	10:49	-132.003	44.749	0	1784.50	0	2.1010	0	34.5500	0	27.613	0	1762.525	0	46.5	4	14.0	4	-1E+10	1	-1E+10	1	-1E+10	1	-1E+10	1	-1E+10	1	-1E+10	1
4901784	31	C	05/10/2016	10:49	-132.003	44.749	0	1789.40	0	2.0960	0	34.5510	0	27.614	0	1767.344	0	46.8	4	14.1	4	-1E+10	1	-1E+10	1	-1E+10	1	-1E+10	1	-1E+10	1	-1E+10	1
4901784	31	C	05/10/2016	10:49	-132.003	44.749	0	1795.10	0	2.0920	0	34.5520	0	27.615	0	1772.950	0	47.0	4	14.2	4	-1E+10	1	-1E+10	1	-1E+10	1	-1E+10	1	-1E+10	1	-1E+10	1
4901784	31	C	05/10/2016	10:49	-132.003	44.749	0	1800.70	0	2.0840	0	34.5520	0	27.616	0	1778.458	0	47.2	4	14.3	4	-1E+10	1	-1E+10	1	-1E+10	1	-1E+10	1	-1E+10	1	-1E+10	1
4901784	31	C	05/10/2016	10:49	-132.003	44.749	0	1805.60	0	2.0760	0	34.5530	0	27.617	0	1783.277	0	47.5	4	14.4	4	-1E+10	1	-1E+10	1	-1E+10	1	-1E+10	1	-1E+10	1	-1E+10	1
4901784	31	C	05/10/2016	10:49	-132.003	44.749	0	1810.50	0	2.0720	0	34.5530	0	27.617	0	1788.095	0	47.8	4	14.4	4	-1E+10	1	-1E+10	1	-1E+10	1	-1E+10	1	-1E+10	1	-1E+10	1
4901784	31	C	05/10/2016	10:49	-132.003	44.749	0	1815.40	0	2.0700	0	34.5540	0	27.618	0	1792.914	0	48.0	4	14.5	4	-1E+10	1	-1E+10	1	-1E+10	1	-1E+10	1	-1E+10	1	-1E+10	1
4901784	31	C	05/10/2016	10:49	-132.003	44.749	0	1820.40	0	2.0670	0	34.5540	0	27.619	0	1797.831	0	48.4	4	14.6	4	-1E+10	1	-1E+10	1	-1E+10	1	-1E+10	1	-1E+10	1	-1E+10	1
4901784	31	C	05/10/2016	10:49	-132.003	44.749	0	1825.40	0	2.0610	0	34.5550	0	27.620	0	1802.748	0	48.7	4	14.7	4	-1E+10	1	-1E+10	1	-1E+10	1	-1E+10	1	-1E+10	1	-1E+10	1
4901784	31	C	05/10/2016	10:49	-132.003	44.749	0	1830.40	0	2.0560	0	34.5560	0	27.621	0	1807.665	0	49.1	4	14.8	4	-1E+10	1	-1E+10	1	-1E+10	1	-1E+10	1	-1E+10	1	-1E+10	1
4901784	31	C	05/10/2016	10:49	-132.003	44.749	0	1835.40	0	2.0520	0	34.5570	0	27.622	0	1812.581	0	49.4	4	14.9	4	-1E+10	1	-1E+10	1	-1E+10	1	-1E+10	1	-1E+10	1	-1E+10	1
4901784	31	C	05/10/2016	10:49	-132.003	44.749	0	1840.40	0	2.0470	0	34.5580	0	27.624	0	1817.498	0	49.6	4	15.0	4	-1E+10	1	-1E+10	1	-1E+10	1	-1E+10	1	-1E+10	1	-1E+10	1
4901784	31	C	05/10/2016	10:49	-132.003	44.749	0	1845.40	0	2.0440	0	34.5580	0	27.624	0	1822.414	0	49.9	4	15.0	4	-1E+10	1	-1E+10	1	-1E+10	1	-1E+10	1	-1E+10	1	-1E+10	1
4901784	31	C	05/10/2016	10:49	-132.003	44.749	0	1850.40	0	2.0410	0	34.5590	0	27.625	0	1827.330	0	50.2	4	15.1	4	-1E+10	1	-1E+10	1	-1E+10	1	-1E+10	1	-1E+10	1	-1E+10	1
4901784	31	C	05/10/2016	10:49	-132.003	44.749	0	1855.50	0	2.0370	0	34.5590	0	27.625	0	1832.345	0	50.5	4	15.2	4	-1E+10	1	-1E+10	1	-1E+10	1	-1E+10	1	-1E+10	1	-1E+10	1
4901784	31	C	05/10/2016	10:49	-132.003	44.749	0	1860.50	0	2.0310	0	34.5600	0	27.627	0	1837.261	0	50.8	4	15.3	4	-1E+10	1	-1E+10	1	-1E+10	1	-1E+10	1	-1E+10	1	-1E+10	1
4901784	31	C	05/10/2016	10:49	-132.003	44.749	0	1865.60	0	2.0290	0	34.5600	0	27.627	0	1842.275	0	51.0	4	15.4	4	-1E+10	1	-1E+10	1	-1E+10	1	-1E+10	1	-1E+10	1	-1E+10	1
4901784	31	C	05/10/2016	10:49	-132.003	44.749	0	1870.70	0	2.0230	0	34.5610	0	27.628	0	1847.289	0	51.5	4	15.5	4	-1E+10	1	-1E+10	1	-1E+10	1	-1E+10	1	-1E+10	1	-1E+10	1
4901784	31	C	05/10/2016	10:49	-132.003	44.749	0	1875.70	0	2.0140	0	34.5620	0	27.630	0	1852.205	0	51.9	4	15.6	4	-1E+10	1	-1E+10	1	-1E+10	1	-1E+10	1	-1E+10	1	-1E+10	1
4901784	31	C	05/10/2016	10:49	-132.003	44.749	0	1880.80	0	2.0110	0	34.5630	0	27.631	0	1857.219	0	52.1	4	15.7	4	-1E+10	1	-1E+10	1	-1E+10	1	-1E+10	1	-1E+10	1	-1E+10	1
4901784	31	C	05/10/2016	10:49	-132.003	44.749	0	1885.10	0	2.0080	0	34.5640	0	27.632	0	1861.446	0	52.4	4	15.8	4	-1E+10	1	-1E+10	1	-1E+10	1	-1E+10	1	-1E+10	1	-1E+10	1
4901784	31	C	05/10/2016	10:49	-132.003	44.749	0	1889.30	0	2.0030	0	34.5640	0	27.632	0	1865.575	0	52.7	4	15.9	4	-1E+10	1	-1E+10	1	-1E+10	1	-1E+10	1	-1E+10	1	-1E+10	1
4901784	31	C	05/10/2016	10:49	-132.003	44.749	0	1894.50	0	1.9990	0	34.5650	0	27.633	0	1870.687	0	52.9	4	16.0	4	-1E+10	1	-1E+10	1	-1E+10	1	-1E+10	1	-1E+10	1	-1E+10	1
4901784	31	C	05/10/2016	10:49	-132.003	44.749	0	1899.60	0	1.9950	0	34.5650	0	27.634	0	1875.700	0	53.2	4	16.0	4	-1E+10	1	-1E+10	1	-1E+10	1	-1E+10	1	-1E+10	1	-1E+10	1
4901784	31	C	05/10/2016	10:49	-132.003	44.749	0	1904.70	0	1.9940	0	34.5660	0	27.634	0	1880.713	0	53.4	4	16.1	4	-1E+10	1	-1E+10	1	-1E+10	1	-1E+10	1	-1E+10	1	-1E+10	1
4901784	31	C	05/10/2016	10:49	-132.003	44.749	0	1909.80	0	1.9910	0	34.5660	0	27.635	0	1885.727	0	53.7	4	16.2	4	-1E+10	1	-1E+10	1	-1E+10	1	-1E+10	1	-1E+10	1	-1E+10	1
4901784	31	C	05/10/2016	10:49	-132.003	44.749	0	1914.90	0	1.9860	0	34.5670	0	27.636	0	1890.740	0	54.0	4	16.3	4	-1E+10	1	-1E+10	1	-1E+10	1	-1E+10	1	-1E+10	1	-1E+10	1
4901784	31	C	05/10/2016	10:49	-132.003	44.749	0	1920.10	0	1.9820	0	34.5680	0	27.637	0	1895.851	0	54.4	4	16.4	4	-1E+10	1	-1E+10	1	-1E+10	1	-1E+10	1	-1E+10	1	-1E+10	1
4901784	31	C	05/10/2016	10:49	-132.003	44.749	0	1925.30	0	1.9780	0	34.5680	0	27.637	0	1900.962	0	54.7	4	16.5	4	-1E+10	1	-1E+10	1	-1E+10	1	-1E+10	1	-1E+10	1	-1E+10	1
4901784	31	C	05/10/2016	10:49	-132.003	44.749	0	1930.50	0	1.9740	0	34.5690	0	27.639	0	1906.073	0	55.1	4	16.6	4	-1E+10	1	-1E+10	1	-1E+10	1	-1E+10	1	-1E+10	1	-1E+10	1
4901784	31	C	05/10/2016	10:49	-132.003	44.749	0	1935.70	0	1.9690	0	34.5700	0	27.640	0	1911.184	0	55.5	4	16.7	4	-1E+10	1	-1E+10	1	-1E+10	1	-1E+10	1	-1E+10	1	-1E+10	1
4901784	31	C	05/10/2016	10:49	-132.003	44.749	0	1940.10	0	1.9660	0	34.5710	0	27.641	0	1915.508	0	55.8	4	16.8	4	-1E+10	1	-1E+10	1	-1E+10	1	-1E+10	1	-1E+10	1	-1E+10	1
4901784	31	C	05/10/2016	10:49	-132.003	44.749	0	1944.40	0	1.9620	0	34.5720	0	27.642	0	1919.734	0	56.1	4	16.9	4	-1E+10	1	-1E+10	1	-1E+10	1	-1E+10	1	-1E+10	1	-1E+10	1
4901784	31	C	05/10/2016	10:49	-132.003	44.749	0	1949.70	0	1.9580	0	34.5720	0	27.642	0	1924.943	0	56.4	4	17.0	4	-1E+10	1	-1E+10	1	-1E+10	1	-1E+10	1	-1E+10	1	-1E+10	1
4901784	31	C	05/10/2016	10:49	-132.003	44.749	0	1954.90	0	1.9560	0	34.5730	0	27.643	0	1930.054	0	56.7	4	17.1	4	-1E+10	1	-1E+10	1	-1E+10	1	-1E+10	1	-1E+10	1	-1E+10	1
4901784	31	C	05/10/2016	10:49	-132.003	44.749	0	1960.20	0	1.9510	0	34.5740	0	27.645	0	1935.262	0	57.0	4	17.2	4	-1E+10	1	-1E+10	1	-1E+10	1	-1E+10	1	-1E+10	1	-1E+10	1
4901784	31	C	05/10/2016	10:49	-132.003	44.749	0	1965.10	0	1.9490	0	34.5740	0	27.645	0	1940.078	0	57.2	4	17.2	4	-1E+10	1	-1E+10	1	-1E+10	1	-1E+10	1	-1E+10	1	-1E+10	1
4901784	31	C	05/10/2016	10:49	-132.003	44.749	0	1969.30	0	1.9470	0	34.5750	0	27.646	0	1944.205	0	57.4	4	17.3	4	-1E+10	1	-1E+10	1	-1E+10	1	-1E+10	1	-1E+10	1	-1E+10	1
4901784	31	C	05/10/2016	10:49	-132.003	44.749	0	1974.90	0	1.9460	0	34.5750	0	27.646	0	1949.708	0	57.6	4	17.3	4	-1E+10	1	-1E+10	1	-1E+10	1	-1E+10	1	-1E+10	1	-1E+10	1
4901784	31	C	05/10/2016	10:49	-132.003	44.749	0	1980.60	0	1.9450	0	34.5750	0	27.646	0	1955.309	0	57.9	4	17.4	4	-1E+10	1	-1E+10	1	-1E+10	1	-1E+10	1	-1E+10	1	-1E+10	1
4901784	31	C	05/10/2016	10:49	-132.003	44.749	0	1985.40	0	1.9410	0	34.5760	0	27.647	0	1960.026	0	58.1	4	17.5	4	-1E+10	1	-1E+10	1	-1E+10	1	-1E+10	1	-1E+10	1	-1E+10	1
4901784	31	C	05/10/2016	10:49	-132.003	44.749	0	1990.30	0	1.9390	0	34.5760	0	27.647	0	1964.841	0	58.3	4	17.6	4	-1E+10	1	-1E+10	1	-1E+10	1	-1E+10	1	-1E+10	1	-1E+10	1
4901784	31	C	05/10/2016	10:49	-132.003	44.749	0	1995.20	0	1.9350	0	34.5770	0	27.648	0	1969.655	0	58.5	4	17.6	4	-1E+10	1	-1E+10	1	-1E+10	1	-1E+10	1	-1E+10	1	-1E+10	1
4901784	31	C	05/10/2016	10:49	-132.003	44.749	0	2000.10	0	1.9350	0	34.5770	0	27.648	0	1974.470	0	58.5	4	17.6	4	-1E+10	1	-1E+10	1	-1E+10	1	-1E+10	1	-1E+10	1	-1E+10	1
4901784	31	C	05/10/2016	10:49	-132.003	44.749	0	2005.30	0	1.9320	0	34.5770	0	27.649	0	1979.579	0	58.6	4	17.7	4	-1E+10	1	-1E+10	1	-1E+10	1	-1E+10	1	-1E+10	1	-1E+10	1
4901784	31	C	05/10/2016	10:49	-132.003	44.749	0	2009.90	0	1.9310	0	34.5780	0	27.650	0	1984.099	0	58.8	4	17.7	4	-1E+10	1	-1E+10	1	-1E+10	1	-1E+10	1	-1E+10	1	-1E+10	1
4901784	31	C	05/10/2016	10:49	-132.003	44.749	0	2014.80	0	1.9300	0	34.5780	0	27.650	0	1988.913	0	58.9	4	17.7	4	-1E+10	1	-1E+10	1	-1E+10	1	-1E+10	1	-1E+10	1	-1E+10	1
4901784	31	C	05/10/2016	10:49	-132.003	44.749	0	2020.20	0	1.9280	0	34.5780	0	27.650	0	1994.218	0	59.1	4	17.8	4	-1E+10	1	-1E+10	1	-1E+10	1	-1E+10	1	-1E+10	1	-1E+10	1
4901784	31	C	05/10/2016	10:49	-132.003	44.749	0																										
4901784	32	C	05/20/2016	10:48	-132.169	44.779	0	870.30	0	3.6840	0	34.3080	0	27.274	0	861.446	0	11.2	4	3.5	4	-1E+10	1	-1E+10	1	-1E+10	1	-1E+10	1	-1E+10	1	-1E+10	1
4901784	32	C	05/20/2016	10:48	-132.169	44.779	0	875.10	0	3.6750	0	34.3110	0	27.277	0	866.187	0	11.2	4	3.5	4	-1E+10	1	-1E+10	1	-1E+10	1	-1E+10	1	-1E+10	1	-1E+10	1
4901784	32	C	05/20/2016	10:48	-132.169	44.779	0	879.80	0	3.6590	0	34.3130	0	27.280	0	870.830	0	11.2	4	3.5	4	-1E+10	1	-1E+10	1	-1E+10	1	-1E+10	1	-1E+10	1	-1E+10	1
4901784	32	C	05/20/2016	10:48	-132.169	44.779	0	884.60	0	3.6480	0	34.3150	0	27.283	0	875.571	0	11.2	4	3.5	4	-1E+10	1	-1E+10	1	-1E+10	1	-1E+10	1	-1E+10	1	-1E+10	1
4901784	32	C	05/20/2016	10:48	-132.169	44.779	0	890.20	0	3.6370	0	34.3190	0	27.287	0	881.102	0	11.2	4	3.5	4	-1E+10	1	-1E+10	1	-1E+10	1	-1E+10	1	-1E+10	1	-1E+10	1
4901784	32	C	05/20/2016	10:48	-132.169	44.779	0	894.90	0	3.6330	0	34.3200	0	27.289	0	885.744	0	11.2	4	3.5	4	-1E+10	1	-1E+10	1	-1E+10	1	-1E+10	1	-1E+10	1	-1E+10	1
4901784	32	C	05/20/2016	10:48	-132.169	44.779	0	899.60	0	3.6250	0	34.3230	0	27.292	0	890.386	0	11.2	4	3.5	4	-1E+10	1	-1E+10	1	-1E+10	1	-1E+10	1	-1E+10	1	-1E+10	1
4901784	32	C	05/20/2016	10:48	-132.169	44.779	0	905.30	0	3.6070	0	34.3250	0	27.295	0	896.015	0	11.3	4	3.5	4	-1E+10	1	-1E+10	1	-1E+10	1	-1E+10	1	-1E+10	1	-1E+10	1
4901784	32	C	05/20/2016	10:48	-132.169	44.779	0	909.90	0	3.5940	0	34.3260	0	27.297	0	900.558	0	11.3	4	3.5	4	-1E+10	1	-1E+10	1	-1E+10	1	-1E+10	1	-1E+10	1	-1E+10	1
4901784	32	C	05/20/2016	10:48	-132.169	44.779	0	914.60	0	3.5890	0	34.3270	0	27.299	0	905.199	0	11.3	4	3.5	4	-1E+10	1	-1E+10	1	-1E+10	1	-1E+10	1	-1E+10	1	-1E+10	1
4901784	32	C	05/20/2016	10:48	-132.169	44.779	0	920.10	0	3.5750	0	34.3290	0	27.302	0	910.631	0	11.3	4	3.5	4	-1E+10	1	-1E+10	1	-1E+10	1	-1E+10	1	-1E+10	1	-1E+10	1
4901784	32	C	05/20/2016	10:48	-132.169	44.779	0	924.70	0	3.5620	0	34.3320	0	27.305	0	915.174	0	11.3	4	3.5	4	-1E+10	1	-1E+10	1	-1E+10	1	-1E+10	1	-1E+10	1	-1E+10	1
4901784	32	C	05/20/2016	10:48	-132.169	44.779	0	929.30	0	3.5550	0	34.3350	0	27.308	0	919.716	0	11.3	4	3.5	4	-1E+10	1	-1E+10	1	-1E+10	1	-1E+10	1	-1E+10	1	-1E+10	1
4901784	32	C	05/20/2016	10:48	-132.169	44.779	0	934.90	0	3.5430	0	34.3370	0	27.311	0	925.246	0	11.3	4	3.5	4	-1E+10	1	-1E+10	1	-1E+10	1	-1E+10	1	-1E+10	1	-1E+10	1
4901784	32	C	05/20/2016	10:48	-132.169	44.779	0	940.50	0	3.5340	0	34.3410	0	27.315	0	930.776	0	11.3	4	3.5	4	-1E+10	1	-1E+10	1	-1E+10	1	-1E+10	1	-1E+10	1	-1E+10	1
4901784	32	C	05/20/2016	10:48	-132.169	44.779	0	945.20	0	3.5260	0	34.3420	0	27.317	0	935.417	0	11.3	4	3.5	4	-1E+10	1	-1E+10	1	-1E+10	1	-1E+10	1	-1E+10	1	-1E+10	1
4901784	32	C	05/20/2016	10:48	-132.169	44.779	0	949.90	0	3.5080	0	34.3440	0	27.320	0	940.057	0	11.4	4	3.6	4	-1E+10	1	-1E+10	1	-1E+10	1	-1E+10	1	-1E+10	1	-1E+10	1
4901784	32	C	05/20/2016	10:48	-132.169	44.779	0	955.50	0	3.4890	0	34.3470	0	27.324	0	945.587	0	11.4	4	3.6	4	-1E+10	1	-1E+10	1	-1E+10	1	-1E+10	1	-1E+10	1	-1E+10	1
4901784	32	C	05/20/2016	10:48	-132.169	44.779	0	960.30	0	3.4760	0	34.3500	0	27.328	0	950.326	0	11.5	4	3.6	4	-1E+10	1	-1E+10	1	-1E+10	1	-1E+10	1	-1E+10	1	-1E+10	1
4901784	32	C	05/20/2016	10:48	-132.169	44.779	0	964.90	0	3.4650	0	34.3530	0	27.332	0	954.868	0	11.5	4	3.6	4	-1E+10	1	-1E+10	1	-1E+10	1	-1E+10	1	-1E+10	1	-1E+10	1
4901784	32	C	05/20/2016	10:48	-132.169	44.779	0	969.80	0	3.4650	0	34.3550	0	27.333	0	959.706	0	11.5	4	3.6	4	-1E+10	1	-1E+10	1	-1E+10	1	-1E+10	1	-1E+10	1	-1E+10	1
4901784	32	C	05/20/2016	10:48	-132.169	44.779	0	974.80	0	3.4670	0	34.3590	0	27.336	0	964.642	0	11.5	4	3.6	4	-1E+10	1	-1E+10	1	-1E+10	1	-1E+10	1	-1E+10	1	-1E+10	1
4901784	32	C	05/20/2016	10:48	-132.169	44.779	0	979.70	0	3.4410	0	34.3580	0	27.338	0	969.480	0	11.6	4	3.6	4	-1E+10	1	-1E+10	1	-1E+10	1	-1E+10	1	-1E+10	1	-1E+10	1
4901784	32	C	05/20/2016	10:48	-132.169	44.779	0	984.70	0	3.4270	0	34.3590	0	27.340	0	974.416	0	11.7	4	3.6	4	-1E+10	1	-1E+10	1	-1E+10	1	-1E+10	1	-1E+10	1	-1E+10	1
4901784	32	C	05/20/2016	10:48	-132.169	44.779	0	989.80	0	3.3980	0	34.3640	0	27.347	0	979.451	0	11.8	4	3.7	4	-1E+10	1	-1E+10	1	-1E+10	1	-1E+10	1	-1E+10	1	-1E+10	1
4901784	32	C	05/20/2016	10:48	-132.169	44.779	0	994.90	0	3.3820	0	34.3660	0	27.350	0	984.485	0	11.8	4	3.7	4	-1E+10	1	-1E+10	1	-1E+10	1	-1E+10	1	-1E+10	1	-1E+10	1
4901784	32	C	05/20/2016	10:48	-132.169	44.779	0	1000.00	0	3.3800	0	34.3670	0	27.351	0	989.520	0	11.8	4	3.7	4	-1E+10	1	-1E+10	1	-1E+10	1	-1E+10	1	-1E+10	1	-1E+10	1
4901784	32	C	05/20/2016	10:48	-132.169	44.779	0	1005.10	0	3.3680	0	34.3680	0	27.353	0	994.554	0	11.9	4	3.7	4	-1E+10	1	-1E+10	1	-1E+10	1	-1E+10	1	-1E+10	1	-1E+10	1
4901784	32	C	05/20/2016	10:48	-132.169	44.779	0	1010.30	0	3.3560	0	34.3700	0	27.356	0	999.687	0	12.0	4	3.7	4	-1E+10	1	-1E+10	1	-1E+10	1	-1E+10	1	-1E+10	1	-1E+10	1
4901784	32	C	05/20/2016	10:48	-132.169	44.779	0	1015.50	0	3.3420	0	34.3730	0	27.360	0	1004.820	0	12.0	4	3.7	4	-1E+10	1	-1E+10	1	-1E+10	1	-1E+10	1	-1E+10	1	-1E+10	1
4901784	32	C	05/20/2016	10:48	-132.169	44.779	0	1019.90	0	3.3350	0	34.3740	0	27.361	0	1009.164	0	12.0	4	3.7	4	-1E+10	1	-1E+10	1	-1E+10	1	-1E+10	1	-1E+10	1	-1E+10	1
4901784	32	C	05/20/2016	10:48	-132.169	44.779	0	1024.30	0	3.3270	0	34.3750	0	27.363	0	1013.507	0	12.1	4	3.8	4	-1E+10	1	-1E+10	1	-1E+10	1	-1E+10	1	-1E+10	1	-1E+10	1
4901784	32	C	05/20/2016	10:48	-132.169	44.779	0	1029.60	0	3.3160	0	34.3770	0	27.365	0	1018.738	0	12.2	4	3.8	4	-1E+10	1	-1E+10	1	-1E+10	1	-1E+10	1	-1E+10	1	-1E+10	1
4901784	32	C	05/20/2016	10:48	-132.169	44.779	0	1035.00	0	3.3080	0	34.3790	0	27.368	0	1024.068	0	12.2	4	3.8	4	-1E+10	1	-1E+10	1	-1E+10	1	-1E+10	1	-1E+10	1	-1E+10	1
4901784	32	C	05/20/2016	10:48	-132.169	44.779	0	1040.50	0	3.3030	0	34.3810	0	27.370	0	1029.496	0	12.3	4	3.8	4	-1E+10	1	-1E+10	1	-1E+10	1	-1E+10	1	-1E+10	1	-1E+10	1
4901784	32	C	05/20/2016	10:48	-132.169	44.779	0	1045.00	0	3.2990	0	34.3820	0	27.371	0	1033.937	0	12.3	4	3.8	4	-1E+10	1	-1E+10	1	-1E+10	1	-1E+10	1	-1E+10	1	-1E+10	1
4901784	32	C	05/20/2016	10:48	-132.169	44.779	0	1049.60	0	3.3020	0	34.3850	0	27.373	0	1038.477	0	12.4	4	3.9	4	-1E+10	1	-1E+10	1	-1E+10	1	-1E+10	1	-1E+10	1	-1E+10	1
4901784	32	C	05/20/2016	10:48	-132.169	44.779	0	1055.10	0	3.2910	0	34.3880	0	27.377	0	1043.905	0	12.5	4	3.9	4	-1E+10	1	-1E+10	1	-1E+10	1	-1E+10	1	-1E+10	1	-1E+10	1
4901784	32	C	05/20/2016	10:48	-132.169	44.779	0	1060.60	0	3.2680	0	34.3890	0	27.380	0	1049.333	0	12.6	4	3.9	4	-1E+10	1	-1E+10	1	-1E+10	1	-1E+10	1	-1E+10	1	-1E+10	1
4901784	32	C	05/20/2016	10:48	-132.169	44.779	0	1065.40	0	3.2530	0	34.3910	0	27.383	0	1054.070	0	12.7	4	3.9	4	-1E+10	1	-1E+10	1	-1E+10	1	-1E+10	1	-1E+10	1	-1E+10	1
4901784	32	C	05/20/2016	10:48	-132.169	44.779	0	1069.90	0	3.2460	0	34.3930	0	27.385	0	1058.511	0	12.7	4	3.9	4	-1E+10	1	-1E+10	1	-1E+10	1	-1E+10	1	-1E+10	1	-1E+10	1
4901784	32	C	05/20/2016	10:48	-132.169	44.779	0	1074.80	0	3.2420	0	34.3940	0	27.386	0	1063.347	0	12.8	4	4.0	4	-1E+10	1	-1E+10	1	-1E+10	1	-1E+10	1	-1E+10	1	-1E+10	1
4901784	32	C	05/20/2016	10:48	-132.169	44.779	0	1079.70	0	3.2380	0	34.3970	0	27.389	0	1068.182	0	12.9	4	4.0	4	-1E+10	1	-1E+10	1	-1E+10	1	-1E+10	1	-1E+10	1	-1E+10	1
4901784	32	C	05/20/2016	10:48	-132.169	44.779	0	1084.70	0	3.2280	0	34.3980	0	27.391	0	1073.116	0	13.1	4	4.1	4	-1E+10	1	-1E+10	1	-1E+10	1	-1E+10	1	-1E+10	1	-1E+10	1
4901784	32	C	05/20/2016	10:48	-132.169	44.779	0	1089.70	0	3.2080	0	34.4010	0	27.395	0	1078.049	0	13.2	4	4.1	4	-1E+10	1	-1E+10	1	-1E+10	1	-1E+10	1	-1E+10	1	-1E+10	1
4901784	32	C	05/20/2016	10:48	-132.169	44.779	0	1094.80	0	3.1910	0	34.4040	0	27.399	0	1083.082	0	13.4	4	4.1	4	-1E+10	1	-1E+10	1	-1E+10	1	-1E+10	1	-1E+10	1	-1E+10	1
4901784	32	C	05/20/2016	10:48	-132.169	44.779	0	1099.90	0	3.1850	0	34.4060	0	27.401	0	1088.114	0	13.4	4	4.2	4	-1E+10	1	-1E+10	1	-1E+10	1	-1E+10	1	-1E+10	1	-1E+10	1
4901784	32	C	05/20/2016	10:48	-132.169	44.779	0	1105.30	0	3.1850	0	34.4070	0	27.402	0	1093.442	0	13.6	4	4.2	4	-1E+10	1	-1E+10	1	-1E+10	1	-1E+10	1	-1E+10	1	-1E+10	1
4901784	32	C	05/20/2016	10:48	-132.169	44.779	0	1110.10	0	3.1810	0	34.4100	0	27.405	0	1098.178	0	13.8	4	4.3	4	-1E+10	1	-1E+10	1	-1E+10	1	-1E+10	1	-1E+10	1	-1E+10	1
4901784	32	C	05/20/2016	10:48	-132.169	44.779	0	1114.80	0	3.1860	0	34.4130	0	27.407	0	1102.815	0	13.9	4	4.3	4	-1E+10	1	-1E+10	1	-1E+10	1	-1E+10	1	-1E+10	1	-1E+10	1
4901784	32	C	05/20/2016	10:48	-132.169	44.779	0	1119.70	0	3.1720	0	34.4150	0	27.410	0	1107.650	0	14.0	4	4.4	4	-1E+10	1	-1E+10	1	-1E+10	1	-1E+10	1	-1E+10	1	-1E+10	1
4901784	32	C	05/20/2016	10:48	-132.169	44.779	0	1124.50	0	3.1480	0	34.4160	0	27.413	0	1112.385	0	14.2	4	4.4	4	-1E+10	1	-1E+10	1	-1E+10	1	-1E+10	1	-1E+10	1	-1E+10	1
4901784	32	C	05/20/2016	10:48	-132.169	44.779	0	1129.40	0	3.1550	0	34.4210	0	27.416	0	1117.219	0	14.5	4	4.5	4	-1E+10	1	-1E+10	1	-1E+10	1	-1E+10	1	-1E+10	1	-1E+10	1
4901784	32	C	05/20/2016	10:48	-132.169	44.779	0	1134.40	0	3.1680	0	34.4250	0	27.418	0	1122.152	0	14.6	4	4.5	4	-1E+10	1	-1E+10	1	-1E+10	1	-1E+10	1	-1E+10	1	-1E+10	1
4901784	32	C	05/20/2016	10:48	-132.169	44.779	0	1139.40	0	3.1700	0	34.4260	0	27.419	0	1127.085	0	14.7	4	4.6	4	-1E+10	1	-1E+10	1	-1E+10	1	-1E+10	1	-1E+10	1	-1E+10	1
4901784	32	C	05/20/2016	10:48	-132.169	44.779	0	1144.50	0	3.1660	0	34.4270	0	27.420	0	1132.116	0	14.8	4	4.6	4	-1E+10	1	-1E+10	1	-1E+10	1	-1E+10	1	-1E+10	1	-1E+10	1
4901784	32	C	05/20/2016	10:48	-132.169	44.779	0	1149.60	0	3.1600	0	34.4280	0	27.421	0	1137.147	0	14.9	4	4.6	4	-1E+10	1	-1E+10	1	-1E+10	1	-1E+10	1	-1E+10	1	-1E+10	1
4901784	32	C	05/20/2016	10:48	-132.169	44.779	0	1154.80	0	3.1500	0	34.4290	0	27.423	0	1142.277	0	15.1	4	4.7	4	-1E+10	1	-1E+10	1	-1E+10	1	-1E+10	1	-1E+10	1	-1E+10	1
4901784	32	C	05/20/2016	10:48	-132.169	44.779	0	1160.00	0	3.1360	0	34.4310	0	27.426	0	1147.406	0	15.3	4	4.7	4	-1E+10	1	-1E+10	1	-1E+10	1	-1E+10	1	-1E+10	1	-1E+10	1
4901784	32	C	05/20/2016	10:48	-132.169	44.779	0	1165.30	0	3.1240	0	34.4330	0	27.429	0	1152.634	0	15.4	4	4.8	4	-1E+10	1	-1E+10	1	-1E+10	1	-1E+10	1	-1E+10	1	-1E+10	1
4901784	32	C	05/20/2016	10:48	-132.169	44.779	0	1170.50	0	3.1210	0	34.4330	0	27.429	0	1157.763	0	15.5	4	4.8	4	-1E+10	1	-1E+10	1	-1E+10	1	-1E+10	1	-1E+10	1	-1E+10	1
4901784	32	C	05/20/2016	10:48	-132.169	44.779	0	1175.00	0	3.1050	0	34.4350	0	27.432	0	1162.202	0	15.7	4	4.9	4	-1E+10	1	-1E+10	1	-1E+10	1	-1E+10	1	-1E+10	1	-1E+10	1
4901784	32	C	05/20/2016	10:48	-132.169	44.779	0	1179.40	0	3.0950	0	34.4370	0	27.435	0	1166.542	0	15.9	4	4.9	4	-1E+10	1	-1E+10	1	-1E+10	1	-1E+10	1	-1E+10	1	-1E+10	1
4901784	32	C	05/20/2016	10:48	-132.169	44.779	0	1184.80	0	3.0850	0	34.4380	0	27.436	0	1171.868	0	16.0	4	5.0	4	-1E+10	1	-1E+10	1	-1E+10	1	-1E+10	1	-1E+10	1	-1E+10	1
4901784	32	C	05/20/2016	10:48	-132.169	44.779	0	1190.20	0	3.0750	0	34.4390	0	27.438	0	1177.193	0	16.2	4	5.0	4	-1E+10	1	-1E+10	1	-1E+10	1	-1E+10	1	-1E+10	1	-1E+10	1
4901784	32	C	05/20/2016	10:48	-132.169	44.779	0	1195.60	0	3.0640	0	34.4410	0	27.441	0	1182.519	0	16.3	4	5.1	4	-1E+10	1	-1E+10	1	-1E+10	1	-1E+10	1	-1E+10	1	-1E+10	1
4901784	32	C	05/20/2016	10:48	-132.169	44.779	0	1200.10	0	3.0510	0	34.4410	0	27.442	0	1186.957	0	16.5	4	5.1	4	-1E+10	1	-1E+10	1	-1E+10	1	-1E+10	1	-1E+10	1	-1E+10	1
4901784	32	C	05/20/2016	10:48	-132.169	44.779	0	1204.60	0	3.0410	0	34.4430	0	27.444	0	1191.395	0	16.7	4	5.2	4	-1E+10	1	-1E+10	1	-1E+10	1	-1E+10	1	-1E+10	1	-1E+10	1
4901784	32	C	05/20/2016	10:48	-132.169	44.779	0	1210.00	0	3.0370	0	34.4450	0	27.446	0	1196.721	0	16.9	4	5.2	4	-1E+10	1	-1E+10	1	-1E+10	1	-1E+10	1	-1E+10	1	-1E+10	1
4901784	32	C	05/20/2016	10:48	-132.169	44.779	0	1215.50	0	3.0260	0	34.4460	0	27.448	0	1202.145	0	17.1	4	5.3	4	-1E+10	1	-1E+10	1	-1E+10	1	-1E+10	1	-1E+10	1	-1E+10	1
4901784	32	C	05/20/2016	10:48	-132.169	44.779	0	1220.10	0	3.0150	0	34.4470	0	27.450	0	1206.681	0	17.3	4	5.3	4	-1E+10	1	-1E+10	1	-1E+10	1	-1E+10	1	-1E+10	1	-1E+10	1
4901784	32	C	05/20/2016	10:48	-132.169	44.779	0	1224.70	0	3.0030	0	34.4490	0	27.453	0	1211.217	0	17.4	4	5.4	4	-1E+10	1	-1E+10	1	-1E+10	1	-1E+10	1	-1E+10	1	-1E+10	1
4901784	32	C	05/20/2016	10:48	-132.169	44.779	0	1230.20	0	2.9810	0	34.4500	0	27.456	0	1216.641	0	17.5	4	5.4	4	-1E+10	1	-1E+10	1	-1E+10	1	-1E+10	1	-1E+10	1	-1E+10	1
4901784	32	C	05/20/2016	10:48	-132.169	44.779	0	1235.30	0	2.9650	0	34.4500	0	27.457	0	1221.670	0	17.7	4	5.5	4	-1E+10	1	-1E+10	1	-1E+10	1	-1E+10	1	-1E+10	1	-1E+10	1
4901784	32	C	05/20/2016	10:48	-132.169	44.779	0	1240.50	0	2.9580	0	34.4530	0	27.460	0	1226.797	0	18.0	4	5.6	4	-1E+10	1	-1E+10	1	-1E+10	1	-1E+10	1	-1E+10	1	-1E+10	1
4901784	32	C	05/20/2016	10:48	-132.169	44.779	0	1245.60	0	2.9480	0	34.4550	0	27.463	0	1231.826	0	18.2	4	5.6	4	-1E+10	1	-1E+10	1	-1E+10	1	-1E+10	1	-1E+10	1	-1E+10	1
4901784	32	C	05/20/2016	10:48	-132.169	44.779	0	1250.00	0	2.9420	0	34.4560	0	27.464	0	1236.164	0	18.4	4	5.7	4	-1E+10	1	-1E+10	1	-1E+10	1	-1E+10	1	-1E+10	1	-1E+10	1
4901784	32	C	05/20/2016	10:48	-132.169	44.779	0	1254.30	0	2.9370	0	34.4570	0	27.465	0	1240.404	0	18.6	4	5.7	4	-1E+10	1	-1E+10	1	-1E+10	1	-1E+10	1	-1E+10	1	-1E+10	1
4901784	32	C	05/20/2016	10:48	-132.169	44.779	0	1259.60	0	2.9330	0	34.4580	0	27.466	0	1245.630	0	18.7	4	5.8	4	-1E+10	1	-1E+10	1	-1E+10	1	-1E+10	1	-1E+10	1	-1E+10	1
4901784	32	C	05/20/2016	10:48	-132.169	44.779	0	1264.80	0	2.9250	0	34.4590	0	27.468	0	1250.757	0	18.9	4	5.8	4	-1E+10	1	-1E+10	1	-1E+10	1	-1E+10	1	-1E+10	1	-1E+10	1
4901784	32	C	05/20/2016	10:48	-132.169	44.779	0	1270.00	0	2.9160	0	34.4600	0	27.470	0	1255.883	0	19.1	4	5.9	4	-1E+10	1	-1E+10	1	-1E+10	1	-1E+10	1	-1E+10	1	-1E+10	1
4901784	32	C	05/20/2016	10:48	-132.169	44.779	0	1275.20	0	2.9100	0	34.4610	0	27.471	0	1261.010	0	19.2	4	5.9	4	-1E+10	1	-1E+10	1	-1E+10	1	-1E+10	1	-1E+10	1	-1E+10	1
4901784	32	C	05/20/2016	10:48	-132.169	44.779	0	1280.40	0	2.9010	0	34.4620	0	27.473	0	1266.137	0	19.5	4	6.0	4	-1E+10	1	-1E+10	1	-1E+10	1	-1E+10	1	-1E+10	1	-1E+10	1
4901784	32	C	05/20/2016	10:48	-132.169	44.779	0	1285.70	0	2.8910	0	34.4630	0	27.474	0	1271.361	0	19.7	4	6.1	4	-1E+10	1	-1E+10	1	-1E+10	1	-1E+10	1	-1E+10	1	-1E+10	1
4901784	32	C	05/20/2016	10:48	-132.169	44.779	0	1289.90	0	2.8790	0	34.4650	0	27.477	0	1275.502	0	19.9	4	6.1	4	-1E+10	1	-1E+10	1	-1E+10	1	-1E+10	1	-1E+10	1	-1E+10	1
4901784	32	C	05/20/2016	10:48	-132.169	44.779	0	1294.30	0	2.8650	0	34.4660	0	27.479	0	1279.840	0	20.1	4	6.2	4	-1E+10	1	-1E+10	1	-1E+10	1	-1E+10	1	-1E+10	1	-1E+10	1
4901784	32	C	05/20/2016	10:48	-132.169	44.779	0	1299.50	0	2.8560	0	34.4680	0	27.481	0	1284.966	0	20.2	4	6.2	4	-1E+10	1	-1E+10	1	-1E+10	1	-1E+10	1	-1E+10	1	-1E+10	1
4901784	32	C	05/20/2016	10:48	-132.169	44.779	0	1304.70	0	2.8510	0	34.4680	0	27.482	0	1290.091	0	20.3	4	6.2	4	-1E+10	1	-1E+10	1	-1E+10	1	-1E+10	1	-1E+10	1	-1E+10	1
4901784	32	C	05/20/2016	10:48	-132.169	44.779	0	1310.00	0	2.8480	0	34.4690	0	27.483	0	1295.316	0	20.4	4	6.3	4	-1E+10	1	-1E+10	1	-1E+10	1	-1E+10	1	-1E+10	1	-1E+10	1
4901784	32	C	05/20/2016	10:48	-132.169	44.779	0	1315.20	0	2.8420	0	34.4690	0	27.484	0	1300.441	0	20.6	4	6.3	4	-1E+10	1	-1E+10	1	-1E+10	1	-1E+10	1	-1E+10	1	-1E+10	1
4901784	32	C	05/20/2016	10:48	-132.169	44.779	0	1320.50	0	2.8360	0	34.4700	0	27.485	0	1305.666	0	20.7	4	6.4	4	-1E+10	1	-1E+10	1	-1E+10	1	-1E+10	1	-1E+10	1	-1E+10	1
4901784	32	C	05/20/2016	10:48	-132.169	44.779	0	1324.90	0	2.8270	0	34.4710	0	27.487	0	1310.003	0	20.9	4	6.4	4	-1E+10	1	-1E+10	1	-1E+10	1	-1E+10	1	-1E+10	1	-1E+10	1
4901784	32	C	05/20/2016	10:48	-132.169	44.779	0	1329.30	0	2.8220	0	34.4720	0	27.488	0	1314.339	0	21.1	4	6.5	4	-1E+10	1	-1E+10	1	-1E+10	1	-1E+10	1	-1E+10	1	-1E+10	1
4901784	32	C	05/20/2016	10:48	-132.169	44.779	0	1334.60	0	2.8090	0	34.4720	0	27.489	0	1319.563	0	21.3	4	6.5	4	-1E+10	1	-1E+10	1	-1E+10	1	-1E+10	1	-1E+10	1	-1E+10	1
4901784	32	C	05/20/2016	10:48	-132.169	44.779	0	1340.00	0	2.7930	0	34.4740	0	27.492	0	1324.885	0	21.6	4	6.6	4	-1E+10	1	-1E+10	1	-1E+10	1	-1E+10	1	-1E+10	1	-1E+10	1
4901784	32	C	05/20/2016	10:48	-132.169	44.779	0	1345.40	0	2.7860	0	34.4750	0	27.493	0	1330.207	0	21.8	4	6.7	4	-1E+10	1	-1E+10	1	-1E+10	1	-1E+10	1	-1E+10	1	-1E+10	1
4901784	32	C	05/20/2016	10:48	-132.169	44.779	0	1349.80	0	2.7770	0	34.4760	0	27.495	0	1334.544	0	21.9	4	6.7	4	-1E+10	1	-1E+10	1	-1E+10	1	-1E+10	1	-1E+10	1	-1E+10	1
4901784	32	C	05/20/2016	10:48	-132.169	44.779	0	1354.30	0	2.7700	0	34.4770	0	27.497	0	1338.979	0	22.1	4	6.8	4	-1E+10	1	-1E+10	1	-1E+10	1	-1E+10	1	-1E+10	1	-1E+10	1
4901784	32	C	05/20/2016	10:48	-132.169	44.779	0	1359.70	0	2.7600	0	34.4780	0	27.498	0	1344.300	0	22.3	4	6.8	4	-1E+10	1	-1E+10	1	-1E+10	1	-1E+10	1	-1E+10	1	-1E+10	1
4901784	32	C	05/20/2016	10:48	-132.169	44.779	0	1365.10	0	2.7540	0	34.4790	0	27.500	0	1349.622	0	22.4	4	6.9	4	-1E+10	1	-1E+10	1	-1E+10	1	-1E+10	1	-1E+10	1	-1E+10	1
4901784	32	C	05/20/2016	10:48	-132.169	44.779	0	1370.50	0	2.7480	0	34.4800	0	27.501	0	1354.943	0	22.6	4	7.0	4	-1E+10	1	-1E+10	1	-1E+10	1	-1E+10	1	-1E+10	1	-1E+10	1
4901784	32	C	05/20/2016	10:48	-132.169	44.779	0	1375.10	0	2.7360	0	34.4800	0	27.502	0	1359.476	0	22.8	4	7.0	4	-1E+10	1	-1E+10	1	-1E+10	1	-1E+10	1	-1E+10	1	-1E+10	1
4901784	32	C	05/20/2016	10:48	-132.169	44.779	0	1379.60	0	2.7240	0	34.4820	0	27.505	0	1363.911	0	23.0	4	7.1	4	-1E+10	1	-1E+10	1	-1E+10	1	-1E+10	1	-1E+10	1	-1E+10	1
4901784	32	C	05/20/2016	10:48	-132.169	44.779	0	1385.10	0	2.7160	0	34.4820	0	27.505	0	1369.330	0	23.2	4	7.1	4	-1E+10	1	-1E+10	1	-1E+10	1	-1E+10	1	-1E+10	1	-1E+10	1
4901784	32	C	05/20/2016	10:48	-132.169	44.779	0	1389.70	0	2.7100	0	34.4830	0	27.507	0	1373.863	0	23.4	4	7.2	4	-1E+10	1	-1E+10	1	-1E+10	1	-1E+10	1	-1E+10	1	-1E+10	1
4901784	32	C	05/20/2016	10:48	-132.169	44.779	0	1395.00	0	2.6960	0	34.4840	0	27.509	0	1379.085	0	23.7	4	7.3	4	-1E+10	1	-1E+10	1	-1E+10	1	-1E+10	1	-1E+10	1	-1E+10	1
4901784	32	C	05/20/2016	10:48	-132.169	44.779	0	1400.60	0	2.6830	0	34.4860	0	27.511	0	1384.603	0	24.0	4	7.4	4	-1E+10	1	-1E+10	1	-1E+10	1	-1E+10	1	-1E+10	1	-1E+10	1
4901784	32	C	05/20/2016	10:48	-132.169	44.779	0	1405.40	0	2.6760	0	34.4870	0	27.513	0	1389.332	0	24.2	4	7.4	4	-1E+10	1	-1E+10	1	-1E+10	1	-1E+10	1	-1E+10	1	-1E+10	1
4901784	32	C	05/20/2016	10:48	-132.169	44.779	0	1410.20	0	2.6690	0	34.4870	0	27.514	0	1394.061	0	24.5	4	7.5	4	-1E+10	1	-1E+10	1	-1E+10	1	-1E+10	1	-1E+10	1	-1E+10	1
4901784	32	C	05/20/2016	10:48	-132.169	44.779	0	1415.10	0	2.6590	0	34.4880	0	27.515	0	1398.889	0	24.7	4	7.6	4	-1E+10	1	-1E+10	1	-1E+10	1	-1E+10	1	-1E+10	1	-1E+10	1
4901784	32	C	05/20/2016	10:48	-132.169	44.779	0	1420.00	0	2.6470	0	34.4900	0	27.518	0	1403.717	0	25.0	4	7.6	4	-1E+10	1	-1E+10	1	-1E+10	1	-1E+10	1	-1E+10	1	-1E+10	1
4901784	32	C	05/20/2016	10:48	-132.169	44.779	0	1424.90	0	2.6420	0	34.4900	0	27.518	0	1408.544	0	25.2	4	7.7	4	-1E+10	1	-1E+10	1	-1E+10	1	-1E+10	1	-1E+10	1	-1E+10	1
4901784	32	C	05/20/2016	10:48	-132.169	44.779	0	1429.90	0	2.6380	0	34.4920	0	27.520	0	1413.470	0	25.5	4	7.8	4	-1E+10	1	-1E+10	1	-1E+10	1	-1E+10	1	-1E+10	1	-1E+10	1
4901784	32	C	05/20/2016	10:48	-132.169	44.779	0	1434.90	0	2.6300	0	34.4930	0	27.522	0	1418.396	0	25.7	4	7.9	4	-1E+10	1	-1E+10	1	-1E+10	1	-1E+10	1	-1E+10	1	-1E+10	1
4901784	32	C	05/20/2016	10:48	-132.169	44.779	0	1439.90	0	2.6200	0	34.4940	0	27.524	0	1423.322	0	25.9	4	7.9	4	-1E+10	1	-1E+10	1	-1E+10	1	-1E+10	1	-1E+10	1	-1E+10	1
4901784	32	C	05/20/2016	10:48	-132.169	44.779	0	1444.90	0	2.6160	0	34.4950	0	27.525	0	1428.247	0	26.2	4	8.0	4	-1E+10	1	-1E+10	1	-1E+10	1	-1E+10	1	-1E+10	1	-1E+10	1
4901784	32	C	05/20/2016	10:48	-132.169	44.779	0	1450.00	0	2.6140	0	34.4950	0	27.525	0	1433.271	0	26.5	4	8.1	4	-1E+10	1	-1E+10	1	-1E+10	1	-1E+10	1	-1E+10	1	-1E+10	1
4901784	32	C	05/20/2016	10:48	-132.169	44.779	0	1455.20	0	2.6020	0	34.4970	0	27.528	0	1438.393	0	26.8	4	8.2	4	-1E+10	1	-1E+10	1	-1E+10	1	-1E+10	1	-1E+10	1	-1E+10	1
4901784	32	C	05/20/2016	10:48	-132.169	44.779	0	1460.30	0	2.5880	0	34.4980	0	27.530	0	1443.417	0	27.0	4	8.3	4	-1E+10	1	-1E+10	1	-1E+10	1	-1E+10	1	-1E+10	1	-1E+10	1
4901784	32	C	05/20/2016	10:48	-132.169	44.779	0	1465.50	0	2.5710	0	34.4980	0	27.531	0	1448.539	0	27.3	4	8.3	4	-1E+10	1	-1E+10	1	-1E+10	1	-1E+10	1	-1E+10	1	-1E+10	1
4901784	32	C	05/20/2016	10:48	-132.169	44.779	0	1470.70	0	2.5600	0	34.5000	0	27.534	0	1453.661	0	27.6	4	8.4	4	-1E+10	1	-1E+10	1	-1E+10	1	-1E+10	1	-1E+10	1	-1E+10	1
4901784	32	C	05/20/2016	10:48	-132.169	44.779	0	1474.90	0	2.5530	0	34.5000	0	27.534	0	1457.798	0	27.8	4	8.5	4	-1E+10	1	-1E+10	1	-1E+10	1	-1E+10	1	-1E+10	1	-1E+10	1
4901784	32	C	05/20/2016	10:48	-132.169	44.779	0	1479.40	0	2.5410	0	34.5010	0	27.536	0	1462.230	0	28.1	4	8.6	4	-1E+10	1	-1E+10	1	-1E+10	1	-1E+10	1	-1E+10	1	-1E+10	1
4901784	32	C	05/20/2016	10:48	-132.169	44.779	0	1484.70	0	2.5240	0	34.5030	0	27.539	0	1467.450	0	28.4	4	8.7	4	-1E+10	1	-1E+10	1	-1E+10	1	-1E+10	1	-1E+10	1	-1E+10	1
4901784	32	C	05/20/2016	10:48	-132.169	44.779	0	1490.00	0	2.5180	0	34.5030	0	27.540	0	1472.670	0	28.7	4	8.8	4	-1E+10	1	-1E+10	1	-1E+10	1	-1E+10	1	-1E+10	1	-1E+10	1
4901784	32	C	05/20/2016	10:48	-132.169	44.779	0	1495.30	0	2.5070	0	34.5050	0	27.542	0	1477.890	0	29.0	4	8.8	4	-1E+10	1	-1E+10	1	-1E+10	1	-1E+10	1	-1E+10	1	-1E+10	1
4901784	32	C	05/20/2016	10:48	-132.169	44.779	0	1500.60	0	2.5020	0	34.5060	0	27.543	0	1483.110	0	29.2	4	8.9	4	-1E+10	1	-1E+10	1	-1E+10	1	-1E+10	1	-1E+10	1	-1E+10	1
4901784	32	C	05/20/2016	10:48	-132.169	44.779	0	1505.10	0	2.4960	0	34.5060	0	27.544	0	1487.541	0	29.5	4	9.0	4	-1E+10	1	-1E+10	1	-1E+10	1	-1E+10	1	-1E+10	1	-1E+10	1
4901784	32	C	05/20/2016	10:48	-132.169	44.779	0	1509.60	0	2.4870	0	34.5070	0	27.545	0	1491.973	0	29.7	4	9.1	4	-1E+10	1	-1E+10	1	-1E+10	1	-1E+10	1	-1E+10	1	-1E+10	1
4901784	32	C	05/20/2016	10:48	-132.169	44.779	0	1515.00	0	2.4830	0	34.5080	0	27.547	0	1497.291	0	29.9	4	9.1	4	-1E+10	1	-1E+10	1	-1E+10	1	-1E+10	1	-1E+10	1	-1E+10	1
4901784	32	C	05/20/2016	10:48	-132.169	44.779	0	1520.40	0	2.4770	0	34.5090	0	27.548	0	1502.609	0	30.1	4	9.2	4	-1E+10	1	-1E+10	1	-1E+10	1	-1E+10	1	-1E+10	1	-1E+10	1
4901784	32	C	05/20/2016	10:48	-132.169	44.779	0	1524.90	0	2.4630	0	34.5090	0	27.549	0	1507.040	0	30.3	4	9.2	4	-1E+10	1	-1E+10	1	-1E+10	1	-1E+10	1	-1E+10	1	-1E+10	1
4901784	32	C	05/20/2016	10:48	-132.169	44.779	0	1529.50	0	2.4550	0	34.5090	0	27.550	0	1511.570	0	30.5	4	9.3	4	-1E+10	1	-1E+10	1	-1E+10	1	-1E+10	1	-1E+10	1	-1E+10	1
4901784	32	C	05/20/2016	10:48	-132.169	44.779	0	1535.00	0	2.4440	0	34.5100	0	27.552	0	1516.985	0	30.7	4	9.4	4	-1E+10	1	-1E+10	1	-1E+10	1	-1E+10	1	-1E+10	1	-1E+10	1
4901784	32	C	05/20/2016	10:48	-132.169	44.779	0	1540.50	0	2.4360	0	34.5110	0	27.553	0	1522.401	0	31.0	4	9.4	4	-1E+10	1	-1E+10	1	-1E+10	1	-1E+10	1	-1E+10	1	-1E+10	1
4901784	32	C	05/20/2016	10:48	-132.169	44.779	0	1545.10	0	2.4280	0	34.5120	0	27.555	0	1526.930	0	31.3	4	9.5	4	-1E+10	1	-1E+10	1	-1E+10	1	-1E+10	1	-1E+10	1	-1E+10	1
4901784	32	C	05/20/2016	10:48	-132.169	44.779	0	1549.70	0	2.4290	0	34.5130	0	27.555	0	1531.460	0	31.6	4	9.6	4	-1E+10	1	-1E+10	1	-1E+10	1	-1E+10	1	-1E+10	1	-1E+10	1
4901784	32	C	05/20/2016	10:48	-132.169	44.779	0	1555.30	0	2.4220	0	34.5150	0	27.558	0	1536.973	0	32.0	4	9.8	4	-1E+10	1	-1E+10	1	-1E+10	1	-1E+10	1	-1E+10	1	-1E+10	1
4901784	32	C	05/20/2016	10:48	-132.169	44.779	0	1559.90	0	2.4110	0	34.5160	0	27.559	0	1541.502	0	32.3	4	9.8	4	-1E+10	1	-1E+10	1	-1E+10	1	-1E+10	1	-1E+10	1	-1E+10	1
4901784	32	C	05/20/2016	10:48	-132.169	44.779	0	1565.10	0	2.4000	0	34.5170	0	27.561	0	1546.622	0	32.6	4	9.9	4	-1E+10	1	-1E+10	1	-1E+10	1	-1E+10	1	-1E+10	1	-1E+10	1
4901784	32	C	05/20/2016	10:48	-132.169	44.779	0	1570.20	0	2.3940	0	34.5170	0	27.562	0	1551.643	0	32.8	4	10.0	4	-1E+10	1	-1E+10	1	-1E+10	1	-1E+10	1	-1E+10	1	-1E+10	1
4901784	32	C	05/20/2016	10:48	-132.169	44.779	0	1575.00	0	2.3830	0	34.5180	0	27.563	0	1556.369	0	33.0	4	10.0	4	-1E+10	1	-1E+10	1	-1E+10	1	-1E+10	1	-1E+10	1	-1E+10	1
4901784	32	C	05/20/2016	10:48	-132.169	44.779	0	1579.90	0	2.3720	0	34.5180	0	27.564	0	1561.193	0	33.3	4	10.1	4	-1E+10	1	-1E+10	1	-1E+10	1	-1E+10	1	-1E+10	1	-1E+10	1
4901784	32	C	05/20/2016	10:48	-132.169	44.779	0	1584.70	0	2.3670	0	34.5200	0	27.566	0	1565.918	0	33.6	4	10.2	4	-1E+10	1	-1E+10	1	-1E+10	1	-1E+10	1	-1E+10	1	-1E+10	1
4901784	32	C	05/20/2016	10:48	-132.169	44.779	0	1589.60	0	2.3630	0	34.5200	0	27.567	0	1570.742	0	33.9	4	10.3	4	-1E+10	1	-1E+10	1	-1E+10	1	-1E+10	1	-1E+10	1	-1E+10	1
4901784	32	C	05/20/2016	10:48	-132.169	44.779	0	1594.50	0	2.3560	0	34.5210	0	27.568	0	1575.566	0	34.2	4	10.4	4	-1E+10	1	-1E+10	1	-1E+10	1	-1E+10	1	-1E+10	1	-1E+10	1
4901784	32	C	05/20/2016	10:48	-132.169	44.779	0	1599.50	0	2.3500	0	34.5220	0	27.569	0	1580.488	0	34.5	4	10.5	4	-1E+10	1	-1E+10	1	-1E+10	1	-1E+10	1	-1E+10	1	-1E+10	1
4901784	32	C	05/20/2016	10:48	-132.169	44.779	0	1604.50	0	2.3440	0	34.5230	0	27.571	0	1585.409	0	34.8	4	10.6	4	-1E+10	1	-1E+10	1	-1E+10	1	-1E+10	1	-1E+10	1	-1E+10	1
4901784	32	C	05/20/2016	10:48	-132.169	44.779	0	1609.40	0	2.3360	0	34.5230	0	27.571	0	1590.233	0	35.0	4	10.7	4	-1E+10	1	-1E+10	1	-1E+10	1	-1E+10	1	-1E+10	1	-1E+10	1
4901784	32	C	05/20/2016	10:48	-132.169	44.779	0	1614.30	0	2.3300	0	34.5240	0	27.573	0	1595.056	0	35.3	4	10.7	4	-1E+10	1	-1E+10	1	-1E+10	1	-1E+10	1	-1E+10	1	-1E+10	1
4901784	32	C	05/20/2016	10:48	-132.169	44.779	0	1619.40	0	2.3240	0	34.5250	0	27.574	0	1600.076	0	35.6	4	10.8	4	-1E+10	1	-1E+10	1	-1E+10	1	-1E+10	1	-1E+10	1	-1E+10	1
4901784	32	C	05/20/2016	10:48	-132.169	44.779	0	1624.40	0	2.3100	0	34.5260	0	27.576	0	1604.997	0	36.0	4	10.9	4	-1E+10	1	-1E+10	1	-1E+10	1	-1E+10	1	-1E+10	1	-1E+10	1
4901784	32	C	05/20/2016	10:48	-132.169	44.779	0	1629.50	0	2.2970	0	34.5270	0	27.578	0	1610.017	0	36.4	4	11.0	4	-1E+10	1	-1E+10	1	-1E+10	1	-1E+10	1	-1E+10	1	-1E+10	1
4901784	32	C	05/20/2016	10:48	-132.169	44.779	0	1634.60	0	2.2850	0	34.5280	0	27.580	0	1615.037	0	36.7	4	11.1	4	-1E+10	1	-1E+10	1	-1E+10	1	-1E+10	1	-1E+10	1	-1E+10	1
4901784	32	C	05/20/2016	10:48	-132.169	44.779	0	1639.70	0	2.2790	0	34.5290	0	27.581	0	1620.056	0	37.0	4	11.2	4	-1E+10	1	-1E+10	1	-1E+10	1	-1E+10	1	-1E+10	1	-1E+10	1
4901784	32	C	05/20/2016	10:48	-132.169	44.779	0	1644.90	0	2.2740	0	34.5300	0	27.582	0	1625.174	0	37.4	4	11.4	4	-1E+10	1	-1E+10	1	-1E+10	1	-1E+10	1	-1E+10	1	-1E+10	1
4901784	32	C	05/20/2016	10:48	-132.169	44.779	0	1650.00	0	2.2630	0	34.5310	0	27.584	0	1630.193	0	37.7	4	11.4	4	-1E+10	1	-1E+10	1	-1E+10	1	-1E+10	1	-1E+10	1	-1E+10	1
4901784	32	C	05/20/2016	10:48	-132.169	44.779	0	1655.30	0	2.2530	0	34.5310	0	27.585	0	1635.409	0	38.1	4	11.5	4	-1E+10	1	-1E+10	1	-1E+10	1	-1E+10	1	-1E+10	1	-1E+10	1
4901784	32	C	05/20/2016	10:48	-132.169	44.779	0	1660.40	0	2.2460	0	34.5330	0	27.587	0	1640.428	0	38.4	4	11.7	4	-1E+10	1	-1E+10	1	-1E+10	1	-1E+10	1	-1E+10	1	-1E+10	1
4901784	32	C	05/20/2016	10:48	-132.169	44.779	0	1665.60	0	2.2400	0	34.5330	0	27.587	0	1645.545	0	38.8	4	11.8	4	-1E+10	1	-1E+10	1	-1E+10	1	-1E+10	1	-1E+10	1	-1E+10	1
4901784	32	C	05/20/2016	10:48	-132.169	44.779	0	1670.00	0	2.2370	0	34.5340	0	27.588	0	1649.875	0	39.1	4	11.9	4	-1E+10	1	-1E+10	1	-1E+10	1	-1E+10	1	-1E+10	1	-1E+10	1
4901784	32	C	05/20/2016	10:48	-132.169	44.779	0	1674.40	0	2.2300	0	34.5350	0	27.590	0	1654.205	0	39.5	4	12.0	4	-1E+10	1	-1E+10	1	-1E+10	1	-1E+10	1	-1E+10	1	-1E+10	1
4901784	32	C	05/20/2016	10:48	-132.169	44.779	0	1679.70	0	2.2230	0	34.5360	0	27.591	0	1659.420	0	40.0	4	12.1	4	-1E+10	1	-1E+10	1	-1E+10	1	-1E+10	1	-1E+10	1	-1E+10	1
4901784	32	C	05/20/2016	10:48	-132.169	44.779	0	1685.00	0	2.2140	0	34.5370	0	27.593	0	1664.636	0	40.3	4	12.2	4	-1E+10	1	-1E+10	1	-1E+10	1	-1E+10	1	-1E+10	1	-1E+10	1
4901784	32	C	05/20/2016	10:48	-132.169	44.779	0	1690.40	0	2.2100	0	34.5390	0	27.595	0	1669.949	0	40.7	4	12.3	4	-1E+10	1	-1E+10	1	-1E+10	1	-1E+10	1	-1E+10	1	-1E+10	1
4901784	32	C	05/20/2016	10:48	-132.169	44.779	0	1695.00	0	2.2080	0	34.5390	0	27.595	0	1674.475	0	40.9	4	12.4	4	-1E+10	1	-1E+10	1	-1E+10	1	-1E+10	1	-1E+10	1	-1E+10	1
4901784	32	C	05/20/2016	10:48	-132.169	44.779	0	1699.50	0	2.2050	0	34.5400	0	27.596	0	1678.903	0	41.1	4	12.5	4	-1E+10	1	-1E+10	1	-1E+10	1	-1E+10	1	-1E+10	1	-1E+10	1
4901784	32	C	05/20/2016	10:48	-132.169	44.779	0	1705.00	0	2.2000	0	34.5400	0	27.596	0	1684.314	0	41.4	4	12.6	4	-1E+10	1	-1E+10	1	-1E+10	1	-1E+10	1	-1E+10	1	-1E+10	1
4901784	32	C	05/20/2016	10:48	-132.169	44.779	0	1710.60	0	2.1940	0	34.5420	0	27.599	0	1689.824	0	41.8	4	12.7	4	-1E+10	1	-1E+10	1	-1E+10	1	-1E+10	1	-1E+10	1	-1E+10	1
4901784	32	C	05/20/2016	10:48	-132.169	44.779	0	1715.10	0	2.1890	0	34.5420	0	27.599	0	1694.252	0	42.1	4	12.7	4	-1E+10	1	-1E+10	1	-1E+10	1	-1E+10	1	-1E+10	1	-1E+10	1
4901784	32	C	05/20/2016	10:48	-132.169	44.779	0	1720.40	0	2.1860	0	34.5430	0	27.600	0	1699.466	0	42.5	4	12.9	4	-1E+10	1	-1E+10	1	-1E+10	1	-1E+10	1	-1E+10	1	-1E+10	1
4901784	32	C	05/20/2016	10:48	-132.169	44.779	0	1725.40	0	2.1780	0	34.5440	0	27.601	0	1704.385	0	42.9	4	13.0	4	-1E+10	1	-1E+10	1	-1E+10	1	-1E+10	1	-1E+10	1	-1E+10	1
4901784	32	C	05/20/2016	10:48	-132.169	44.779	0	1730.20	0	2.1710	0	34.5450	0	27.603	0	1709.107	0	43.2	4	13.1	4	-1E+10	1	-1E+10	1	-1E+10	1	-1E+10	1	-1E+10	1	-1E+10	1
4901784	32	C	05/20/2016	10:48	-132.169	44.779	0	1735.10	0	2.1650	0	34.5460	0	27.604	0	1713.928	0	43.6	4	13.2	4	-1E+10	1	-1E+10	1	-1E+10	1	-1E+10	1	-1E+10	1	-1E+10	1
4901784	32	C	05/20/2016	10:48	-132.169	44.779	0	1739.90	0	2.1570	0	34.5470	0	27.606	0	1718.650	0	44.0	4	13.3	4	-1E+10	1	-1E+10	1	-1E+10	1	-1E+10	1	-1E+10	1	-1E+10	1
4901784	32	C	05/20/2016	10:48	-132.169	44.779	0	1744.70	0	2.1490	0	34.5480	0	27.607	0	1723.372	0	44.4	4	13.4	4	-1E+10	1	-1E+10	1	-1E+10	1	-1E+10	1	-1E+10	1	-1E+10	1
4901784	32	C	05/20/2016	10:48	-132.169	44.779	0	1749.70	0	2.1420	0	34.5480	0	27.608	0	1728.290	0	44.8	4	13.6	4	-1E+10	1	-1E+10	1	-1E+10	1	-1E+10	1	-1E+10	1	-1E+10	1
4901784	32	C	05/20/2016	10:48	-132.169	44.779	0	1754.60	0	2.1330	0	34.5500	0	27.610	0	1733.110	0	45.2	4	13.7	4	-1E+10	1	-1E+10	1	-1E+10	1	-1E+10	1	-1E+10	1	-1E+10	1
4901784	32	C	05/20/2016	10:48	-132.169	44.779	0	1759.60	0	2.1310	0	34.5500	0	27.610	0	1738.029	0	45.5	4	13.8	4	-1E+10	1	-1E+10	1	-1E+10	1	-1E+10	1	-1E+10	1	-1E+10	1
4901784	32	C	05/20/2016	10:48	-132.169	44.779	0	1764.50	0	2.1260	0	34.5510	0	27.611	0	1742.848	0	45.9	4	13.9	4	-1E+10	1	-1E+10	1	-1E+10	1	-1E+10	1	-1E+10	1	-1E+10	1
4901784	32	C	05/20/2016	10:48	-132.169	44.779	0	1769.50	0	2.1180	0	34.5520	0	27.613	0	1747.766	0	46.3	4	14.0	4	-1E+10	1	-1E+10	1	-1E+10	1	-1E+10	1	-1E+10	1	-1E+10	1
4901784	32	C	05/20/2016	10:48	-132.169	44.779	0	1774.50	0	2.1080	0	34.5540	0	27.615	0	1752.684	0	46.8	4	14.1	4	-1E+10	1	-1E+10	1	-1E+10	1	-1E+10	1	-1E+10	1	-1E+10	1
4901784	32	C	05/20/2016	10:48	-132.169	44.779	0	1779.40	0	2.1040	0	34.5540	0	27.616	0	1757.504	0	47.0	4	14.2	4	-1E+10	1	-1E+10	1	-1E+10	1	-1E+10	1	-1E+10	1	-1E+10	1
4901784	32	C	05/20/2016	10:48	-132.169	44.779	0	1784.40	0	2.1000	0	34.5550	0	27.617	0	1762.422	0	47.3	4	14.3	4	-1E+10	1	-1E+10	1	-1E+10	1	-1E+10	1	-1E+10	1	-1E+10	1
4901784	32	C	05/20/2016	10:48	-132.169	44.779	0	1789.40	0	2.0950	0	34.5560	0	27.618	0	1767.339	0	47.5	4	14.4	4	-1E+10	1	-1E+10	1	-1E+10	1	-1E+10	1	-1E+10	1	-1E+10	1
4901784	32	C	05/20/2016	10:48	-132.169	44.779	0	1794.40	0	2.0920	0	34.5560	0	27.618	0	1772.257	0	47.8	4	14.5	4	-1E+10	1	-1E+10	1	-1E+10	1	-1E+10	1	-1E+10	1	-1E+10	1
4901784	32	C	05/20/2016	10:48	-132.169	44.779	0	1799.50	0	2.0880	0	34.5570	0	27.619	0	1777.273	0	48.2	4	14.6	4	-1E+10	1	-1E+10	1	-1E+10	1	-1E+10	1	-1E+10	1	-1E+10	1
4901784	32	C	05/20/2016	10:48	-132.169	44.779	0	1804.50	0	2.0810	0	34.5580	0	27.621	0	1782.190	0	48.5	4	14.7	4	-1E+10	1	-1E+10	1	-1E+10	1	-1E+10	1	-1E+10	1	-1E+10	1
4901784	32	C	05/20/2016	10:48	-132.169	44.779	0	1809.60	0	2.0720	0	34.5590	0	27.622	0	1787.205	0	48.9	4	14.8	4	-1E+10	1	-1E+10	1	-1E+10	1	-1E+10	1	-1E+10	1	-1E+10	1
4901784	32	C	05/20/2016	10:48	-132.169	44.779	0	1814.80	0	2.0690	0	34.5590	0	27.623	0	1792.319	0	49.0	4	14.8	4	-1E+10	1	-1E+10	1	-1E+10	1	-1E+10	1	-1E+10	1	-1E+10	1
4901784	32	C	05/20/2016	10:48	-132.169	44.779	0	1819.90	0	2.0660	0	34.5600	0	27.624	0	1797.334	0	49.3	4	14.9	4	-1E+10	1	-1E+10	1	-1E+10	1	-1E+10	1	-1E+10	1	-1E+10	1
4901784	32	C	05/20/2016	10:48	-132.169	44.779	0	1825.20	0	2.0650	0	34.5600	0	27.624	0	1802.546	0	49.5	4	15.0	4	-1E+10	1	-1E+10	1	-1E+10	1	-1E+10	1	-1E+10	1	-1E+10	1
4901784	32	C	05/20/2016	10:48	-132.169	44.779	0	1830.50	0	2.0570	0	34.5610	0	27.625	0	1807.758	0	49.9	4	15.1	4	-1E+10	1	-1E+10	1	-1E+10	1	-1E+10	1	-1E+10	1	-1E+10	1
4901784	32	C	05/20/2016	10:48	-132.169	44.779	0	1835.70	0	2.0520	0	34.5620	0	27.626	0	1812.871	0	50.2	4	15.2	4	-1E+10	1	-1E+10	1	-1E+10	1	-1E+10	1	-1E+10	1	-1E+10	1
4901784	32	C	05/20/2016	10:48	-132.169	44.779	0	1840.10	0	2.0480	0	34.5620	0	27.627	0	1817.197	0	50.4	4	15.2	4	-1E+10	1	-1E+10	1	-1E+10	1	-1E+10	1	-1E+10	1	-1E+10	1
4901784	32	C	05/20/2016	10:48	-132.169	44.779	0	1844.60	0	2.0470	0	34.5620	0	27.627	0	1821.622	0	50.5	4	15.3	4	-1E+10	1	-1E+10	1	-1E+10	1	-1E+10	1	-1E+10	1	-1E+10	1
4901784	32	C	05/20/2016	10:48	-132.169	44.779	0	1849.90	0	2.0420	0	34.5630	0	27.628	0	1826.833	0	50.9	4	15.4	4	-1E+10	1	-1E+10	1	-1E+10	1	-1E+10	1	-1E+10	1	-1E+10	1
4901784	32	C	05/20/2016	10:48	-132.169	44.779	0	1855.30	0	2.0350	0	34.5640	0	27.629	0	1832.143	0	51.1	4	15.4	4	-1E+10	1	-1E+10	1	-1E+10	1	-1E+10	1	-1E+10	1	-1E+10	1
4901784	32	C	05/20/2016	10:48	-132.169	44.779	0	1859.80	0	2.0310	0	34.5650	0	27.631	0	1836.567	0	51.2	4	15.5	4	-1E+10	1	-1E+10	1	-1E+10	1	-1E+10	1	-1E+10	1	-1E+10	1
4901784	32	C	05/20/2016	10:48	-132.169	44.779	0	1864.30	0	2.0270	0	34.5650	0	27.631	0	1840.992	0	51.4	4	15.5	4	-1E+10	1	-1E+10	1	-1E+10	1	-1E+10	1	-1E+10	1	-1E+10	1
4901784	32	C	05/20/2016	10:48	-132.169	44.779	0	1869.80	0	2.0250	0	34.5650	0	27.631	0	1846.399	0	51.7	4	15.6	4	-1E+10	1	-1E+10	1	-1E+10	1	-1E+10	1	-1E+10	1	-1E+10	1
4901784	32	C	05/20/2016	10:48	-132.169	44.779	0	1875.00	0	2.0240	0	34.5660	0	27.632	0	1851.511	0	52.0	4	15.7	4	-1E+10	1	-1E+10	1	-1E+10	1	-1E+10	1	-1E+10	1	-1E+10	1
4901784	32	C	05/20/2016	10:48	-132.169	44.779	0	1880.10	0	2.0180	0	34.5670	0	27.633	0	1856.525	0	52.4	4	15.8	4	-1E+10	1	-1E+10	1	-1E+10	1	-1E+10	1	-1E+10	1	-1E+10	1
4901784	32	C	05/20/2016	10:48	-132.169	44.779	0	1885.70	0	2.0100	0	34.5680	0	27.635	0	1862.030	0	52.7	4	15.9	4	-1E+10	1	-1E+10	1	-1E+10	1	-1E+10	1	-1E+10	1	-1E+10	1
4901784	32	C	05/20/2016	10:48	-132.169	44.779	0	1890.60	0	2.0100	0	34.5680	0	27.635	0	1866.847	0	52.9	4	15.9	4	-1E+10	1	-1E+10	1	-1E+10	1	-1E+10	1	-1E+10	1	-1E+10	1
4901784	32	C	05/20/2016	10:48	-132.169	44.779	0	1895.50	0	2.0050	0	34.5680	0	27.635	0	1871.664	0	53.1	4	16.0	4	-1E+10	1	-1E+10	1	-1E+10	1	-1E+10	1	-1E+10	1	-1E+10	1
4901784	32	C	05/20/2016	10:48	-132.169	44.779	0	1900.50	0	2.0010	0	34.5690	0	27.636	0	1876.579	0	53.4	4	16.1	4	-1E+10	1	-1E+10	1	-1E+10	1	-1E+10	1	-1E+10	1	-1E+10	1
4901784	32	C	05/20/2016	10:48	-132.169	44.779	0	1905.40	0	1.9980	0	34.5700	0	27.637	0	1881.396	0	53.7	4	16.2	4	-1E+10	1	-1E+10	1	-1E+10	1	-1E+10	1	-1E+10	1	-1E+10	1
4901784	32	C	05/20/2016	10:48	-132.169	44.779	0	1910.30	0	1.9930	0	34.5700	0	27.638	0	1886.213	0	53.9	4	16.2	4	-1E+10	1	-1E+10	1	-1E+10	1	-1E+10	1	-1E+10	1	-1E+10	1
4901784	32	C	05/20/2016	10:48	-132.169	44.779	0	1915.20	0	1.9910	0	34.5710	0	27.639	0	1891.029	0	54.1	4	16.3	4	-1E+10	1	-1E+10	1	-1E+10	1	-1E+10	1	-1E+10	1	-1E+10	1
4901784	32	C	05/20/2016	10:48	-132.169	44.779	0	1920.30	0	1.9890	0	34.5710	0	27.639	0	1896.042	0	54.3	4	16.4	4	-1E+10	1	-1E+10	1	-1E+10	1	-1E+10	1	-1E+10	1	-1E+10	1
4901784	32	C	05/20/2016	10:48	-132.169	44.779	0	1925.30	0	1.9860	0	34.5720	0	27.640	0	1900.957	0	54.4	4	16.4	4	-1E+10	1	-1E+10	1	-1E+10	1	-1E+10	1	-1E+10	1	-1E+10	1
4901784	32	C	05/20/2016	10:48	-132.169	44.779	0	1930.40	0	1.9840	0	34.5720	0	27.640	0	1905.969	0	54.6	4	16.5	4	-1E+10	1	-1E+10	1	-1E+10	1	-1E+10	1	-1E+10	1	-1E+10	1
4901784	32	C	05/20/2016	10:48	-132.169	44.779	0	1935.50	0	1.9810	0	34.5720	0	27.640	0	1910.982	0	54.8	4	16.5	4	-1E+10	1	-1E+10	1	-1E+10	1	-1E+10	1	-1E+10	1	-1E+10	1
4901784	32	C	05/20/2016	10:48	-132.169	44.779	0	1940.70	0	1.9780	0	34.5720	0	27.641	0	1916.093	0	55.0	4	16.6	4	-1E+10	1	-1E+10	1	-1E+10	1	-1E+10	1	-1E+10	1	-1E+10	1
4901784	32	C	05/20/2016	10:48	-132.169	44.779	0	1945.00	0	1.9760	0	34.5730	0	27.642	0	1920.319	0	55.2	4	16.6	4	-1E+10	1	-1E+10	1	-1E+10	1	-1E+10	1	-1E+10	1	-1E+10	1
4901784	32	C	05/20/2016	10:48	-132.169	44.779	0	1949.30	0	1.9730	0	34.5730	0	27.642	0	1924.545	0	55.4	4	16.7	4	-1E+10	1	-1E+10	1	-1E+10	1	-1E+10	1	-1E+10	1	-1E+10	1
4901784	32	C	05/20/2016	10:48	-132.169	44.779	0	1954.50	0	1.9710	0	34.5740	0	27.643	0	1929.655	0	55.6	4	16.7	4	-1E+10	1	-1E+10	1	-1E+10	1	-1E+10	1	-1E+10	1	-1E+10	1
4901784	32	C	05/20/2016	10:48	-132.169	44.779	0	1959.60	0	1.9690	0	34.5740	0	27.643	0	1934.667	0	55.8	4	16.8	4	-1E+10	1	-1E+10	1	-1E+10	1	-1E+10	1	-1E+10	1	-1E+10	1
4901784	32	C	05/20/2016	10:48	-132.169	44.779	0	1964.80	0	1.9660	0	34.5750	0	27.644	0	1939.777	0	56.1	4	16.9	4	-1E+10	1	-1E+10	1	-1E+10	1	-1E+10	1	-1E+10	1	-1E+10	1
4901784	32	C	05/20/2016	10:48	-132.169	44.779	0	1969.90	0	1.9630	0	34.5750	0	27.644	0	1944.789	0	56.4	4	17.0	4	-1E+10	1	-1E+10	1	-1E+10	1	-1E+10	1	-1E+10	1	-1E+10	1
4901784	32	C	05/20/2016	10:48	-132.169	44.779	0	1975.10	0	1.9600	0	34.5760	0	27.646	0	1949.899	0	56.6	4	17.1	4	-1E+10	1	-1E+10	1	-1E+10	1	-1E+10	1	-1E+10	1	-1E+10	1
4901784	32	C	05/20/2016	10:48	-132.169	44.779	0	1980.30	0	1.9570	0	34.5770	0	27.647	0	1955.009	0	56.8	4	17.1	4	-1E+10	1	-1E+10	1	-1E+10	1	-1E+10	1	-1E+10	1	-1E+10	1
4901784	32	C	05/20/2016	10:48	-132.169	44.779	0	1985.60	0	1.9540	0	34.5770	0	27.647	0	1960.217	0	57.0	4	17.2	4	-1E+10	1	-1E+10	1	-1E+10	1	-1E+10	1	-1E+10	1	-1E+10	1
4901784	32	C	05/20/2016	10:48	-132.169	44.779	0	1989.40	0	1.9520	0	34.5770	0	27.647	0	1963.951	0	57.1	4	17.2	4	-1E+10	1	-1E+10	1	-1E+10	1	-1E+10	1	-1E+10	1	-1E+10	1
4901784	32	C	05/20/2016	10:48	-132.169	44.779	0	1994.80	0	1.9500	0	34.5780	0	27.648	0	1969.257	0	57.3	4	17.3	4	-1E+10	1	-1E+10	1	-1E+10	1	-1E+10	1	-1E+10	1	-1E+10	1
4901784	32	C	05/20/2016	10:48	-132.169	44.779	0	2000.10	0	1.9480	0	34.5780	0	27.648	0	1974.464	0	57.5	4	17.3	4	-1E+10	1	-1E+10	1	-1E+10	1	-1E+10	1	-1E+10	1	-1E+10	1
4901784	32	C	05/20/2016	10:48	-132.169	44.779	0	2005.10	0	1.9470	0	34.5780	0	27.648	0	1979.377	0	57.7	4	17.4	4	-1E+10	1	-1E+10	1	-1E+10	1	-1E+10	1	-1E+10	1	-1E+10	1
4901784	32	C	05/20/2016	10:48	-132.169	44.779	0	2009.80	0	1.9450	0	34.5790	0	27.649	0	1983.995	0	57.8	4	17.4	4	-1E+10	1	-1E+10	1	-1E+10	1	-1E+10	1	-1E+10	1	-1E+10	1
4901784	32	C	05/20/2016	10:48	-132.169	44.779	0	2015.00	0	1.9430	0	34.5790	0	27.649	0	1989.104	0	57.9	4	17.4	4	-1E+10	1	-1E+10	1	-1E+10	1	-1E+10	1	-1E+10	1	-1E+10	1
4901784	32	C	05/20/2016	10:48	-132.169	44.779	0	2018.70	0	1.9410	0	34.5800	0	27.650	0	1992.739	0	57.0	8	17.2	8	-1E+10	1	-1E+10	1	-1E+10	1	-1E+10	1	-1E+10	1	-1E+10	1
4901784	32	C	05/20/2016	10:48	-132.169	44.779	0																										
4901784	33	C	05/30/2016	10:44	-132.477	45.007	0	2.20	0	12.1990	0	32.7990	0	24.843	0	2.182	0	267.2	4	100.3	4	-1E+10	1	-1E+10	1	-1E+10	1	-1E+10	1	-1E+10	1	-1E+10	1
4901784	33	C	05/30/2016	10:44	-132.477	45.007	0	3.80	0	12.2030	0	32.7980	0	24.842	0	3.769	0	267.1	4	100.3	4	-1E+10	1	-1E+10	1	-1E+10	1	-1E+10	1	-1E+10	1	-1E+10	1
4901784	33	C	05/30/2016	10:44	-132.477	45.007	0	5.50	0	12.1930	0	32.7970	0	24.843	0	5.455	0	267.3	4	100.4	4	-1E+10	1	-1E+10	1	-1E+10	1	-1E+10	1	-1E+10	1	-1E+10	1
4901784	33	C	05/30/2016	10:44	-132.477	45.007	0	7.20	0	12.1700	0	32.7950	0	24.846	0	7.141	0	267.4	4	100.3	4	-1E+10	1	-1E+10	1	-1E+10	1	-1E+10	1	-1E+10	1	-1E+10	1
4901784	33	C	05/30/2016	10:44	-132.477	45.007	0	8.80	0	12.1160	0	32.7960	0	24.857	0	8.728	0	267.5	4	100.3	4	-1E+10	1	-1E+10	1	-1E+10	1	-1E+10	1	-1E+10	1	-1E+10	1
4901784	33	C	05/30/2016	10:44	-132.477	45.007	0	10.50	0	12.0640	0	32.7960	0	24.867	0	10.414	0	267.8	4	100.3	4	-1E+10	1	-1E+10	1	-1E+10	1	-1E+10	1	-1E+10	1	-1E+10	1
4901784	33	C	05/30/2016	10:44	-132.477	45.007	0	12.20	0	12.0040	0	32.7940	0	24.876	0	12.101	0	267.7	4	100.1	4	-1E+10	1	-1E+10	1	-1E+10	1	-1E+10	1	-1E+10	1	-1E+10	1
4901784	33	C	05/30/2016	10:44	-132.477	45.007	0	13.80	0	11.9930	0	32.7950	0	24.879	0	13.688	0	267.5	4	100.0	4	-1E+10	1	-1E+10	1	-1E+10	1	-1E+10	1	-1E+10	1	-1E+10	1
4901784	33	C	05/30/2016	10:44	-132.477	45.007	0	15.50	0	11.9910	0	32.7970	0	24.881	0	15.374	0	267.5	4	100.0	4	-1E+10	1	-1E+10	1	-1E+10	1	-1E+10	1	-1E+10	1	-1E+10	1
4901784	33	C	05/30/2016	10:44	-132.477	45.007	0	17.30	0	11.9840	0	32.7970	0	24.882	0	17.159	0	267.1	4	99.9	4	-1E+10	1	-1E+10	1	-1E+10	1	-1E+10	1	-1E+10	1	-1E+10	1
4901784	33	C	05/30/2016	10:44	-132.477	45.007	0	18.90	0	11.9790	0	32.7960	0	24.883	0	18.746	0	267.0	4	99.8	4	-1E+10	1	-1E+10	1	-1E+10	1	-1E+10	1	-1E+10	1	-1E+10	1
4901784	33	C	05/30/2016	10:44	-132.477	45.007	0	20.60	0	11.9750	0	32.7970	0	24.884	0	20.432	0	266.5	4	99.6	4	-1E+10	1	-1E+10	1	-1E+10	1	-1E+10	1	-1E+10	1	-1E+10	1
4901784	33	C	05/30/2016	10:44	-132.477	45.007	0	22.30	0	11.9850	0	32.8010	0	24.885	0	22.118	0	266.0	4	99.5	4	-1E+10	1	-1E+10	1	-1E+10	1	-1E+10	1	-1E+10	1	-1E+10	1
4901784	33	C	05/30/2016	10:44	-132.477	45.007	0	24.00	0	11.9640	0	32.8370	0	24.917	0	23.804	0	265.5	4	99.2	4	-1E+10	1	-1E+10	1	-1E+10	1	-1E+10	1	-1E+10	1	-1E+10	1
4901784	33	C	05/30/2016	10:44	-132.477	45.007	0	25.80	0	11.9050	0	32.8530	0	24.941	0	25.589	0	265.4	4	99.1	4	-1E+10	1	-1E+10	1	-1E+10	1	-1E+10	1	-1E+10	1	-1E+10	1
4901784	33	C	05/30/2016	10:44	-132.477	45.007	0	27.50	0	11.8540	0	32.8600	0	24.956	0	27.275	0	265.2	4	98.9	4	-1E+10	1	-1E+10	1	-1E+10	1	-1E+10	1	-1E+10	1	-1E+10	1
4901784	33	C	05/30/2016	10:44	-132.477	45.007	0	29.20	0	11.8130	0	32.8610	0	24.964	0	28.961	0	264.8	4	98.7	4	-1E+10	1	-1E+10	1	-1E+10	1	-1E+10	1	-1E+10	1	-1E+10	1
4901784	33	C	05/30/2016	10:44	-132.477	45.007	0	30.90	0	11.7610	0	32.8630	0	24.975	0	30.647	0	264.5	4	98.5	4	-1E+10	1	-1E+10	1	-1E+10	1	-1E+10	1	-1E+10	1	-1E+10	1
4901784	33	C	05/30/2016	10:44	-132.477	45.007	0	32.60	0	11.7440	0	32.8620	0	24.978	0	32.333	0	263.9	4	98.2	4	-1E+10	1	-1E+10	1	-1E+10	1	-1E+10	1	-1E+10	1	-1E+10	1
4901784	33	C	05/30/2016	10:44	-132.477	45.007	0	34.40	0	11.7230	0	32.8620	0	24.982	0	34.118	0	263.3	4	98.0	4	-1E+10	1	-1E+10	1	-1E+10	1	-1E+10	1	-1E+10	1	-1E+10	1
4901784	33	C	05/30/2016	10:44	-132.477	45.007	0	36.10	0	11.7140	0	32.8610	0	24.983	0	35.804	0	262.5	4	97.6	4	-1E+10	1	-1E+10	1	-1E+10	1	-1E+10	1	-1E+10	1	-1E+10	1
4901784	33	C	05/30/2016	10:44	-132.477	45.007	0	37.80	0	11.6950	0	32.8600	0	24.985	0	37.490	0	261.8	4	97.3	4	-1E+10	1	-1E+10	1	-1E+10	1	-1E+10	1	-1E+10	1	-1E+10	1
4901784	33	C	05/30/2016	10:44	-132.477	45.007	0	39.60	0	11.6730	0	32.8580	0	24.988	0	39.275	0	261.2	4	97.1	4	-1E+10	1	-1E+10	1	-1E+10	1	-1E+10	1	-1E+10	1	-1E+10	1
4901784	33	C	05/30/2016	10:44	-132.477	45.007	0	41.30	0	11.6630	0	32.8560	0	24.988	0	40.961	0	260.5	4	96.8	4	-1E+10	1	-1E+10	1	-1E+10	1	-1E+10	1	-1E+10	1	-1E+10	1
4901784	33	C	05/30/2016	10:44	-132.477	45.007	0	43.00	0	11.6420	0	32.8540	0	24.991	0	42.646	0	260.1	4	96.6	4	-1E+10	1	-1E+10	1	-1E+10	1	-1E+10	1	-1E+10	1	-1E+10	1
4901784	33	C	05/30/2016	10:44	-132.477	45.007	0	44.80	0	11.5610	0	32.8510	0	25.003	0	44.431	0	259.8	4	96.3	4	-1E+10	1	-1E+10	1	-1E+10	1	-1E+10	1	-1E+10	1	-1E+10	1
4901784	33	C	05/30/2016	10:44	-132.477	45.007	0	46.50	0	11.4440	0	32.8540	0	25.027	0	46.117	0	259.2	4	95.9	4	-1E+10	1	-1E+10	1	-1E+10	1	-1E+10	1	-1E+10	1	-1E+10	1
4901784	33	C	05/30/2016	10:44	-132.477	45.007	0	48.30	0	11.2800	0	32.8480	0	25.052	0	47.902	0	259.8	4	95.7	4	-1E+10	1	-1E+10	1	-1E+10	1	-1E+10	1	-1E+10	1	-1E+10	1
4901784	33	C	05/30/2016	10:44	-132.477	45.007	0	49.90	0	11.1640	0	32.8410	0	25.067	0	49.489	0	259.5	4	95.4	4	-1E+10	1	-1E+10	1	-1E+10	1	-1E+10	1	-1E+10	1	-1E+10	1
4901784	33	C	05/30/2016	10:44	-132.477	45.007	0	51.70	0	10.8550	0	32.8510	0	25.129	0	51.274	0	260.1	4	95.0	4	-1E+10	1	-1E+10	1	-1E+10	1	-1E+10	1	-1E+10	1	-1E+10	1
4901784	33	C	05/30/2016	10:44	-132.477	45.007	0	53.40	0	10.6750	0	32.8550	0	25.164	0	52.960	0	260.4	4	94.7	4	-1E+10	1	-1E+10	1	-1E+10	1	-1E+10	1	-1E+10	1	-1E+10	1
4901784	33	C	05/30/2016	10:44	-132.477	45.007	0	55.30	0	10.6900	0	32.8910	0	25.189	0	54.844	0	259.6	4	94.5	4	-1E+10	1	-1E+10	1	-1E+10	1	-1E+10	1	-1E+10	1	-1E+10	1
4901784	33	C	05/30/2016	10:44	-132.477	45.007	0	57.10	0	10.6850	0	32.9030	0	25.200	0	56.629	0	258.9	4	94.3	4	-1E+10	1	-1E+10	1	-1E+10	1	-1E+10	1	-1E+10	1	-1E+10	1
4901784	33	C	05/30/2016	10:44	-132.477	45.007	0	59.00	0	10.5580	0	32.8920	0	25.213	0	58.513	0	258.5	4	93.9	4	-1E+10	1	-1E+10	1	-1E+10	1	-1E+10	1	-1E+10	1	-1E+10	1
4901784	33	C	05/30/2016	10:44	-132.477	45.007	0	60.90	0	10.5010	0	32.8990	0	25.228	0	60.397	0	258.0	4	93.6	4	-1E+10	1	-1E+10	1	-1E+10	1	-1E+10	1	-1E+10	1	-1E+10	1
4901784	33	C	05/30/2016	10:44	-132.477	45.007	0	62.70	0	10.5200	0	32.9180	0	25.240	0	62.182	0	257.1	4	93.3	4	-1E+10	1	-1E+10	1	-1E+10	1	-1E+10	1	-1E+10	1	-1E+10	1
4901784	33	C	05/30/2016	10:44	-132.477	45.007	0	64.70	0	10.5050	0	32.9270	0	25.250	0	64.165	0	256.4	4	93.0	4	-1E+10	1	-1E+10	1	-1E+10	1	-1E+10	1	-1E+10	1	-1E+10	1
4901784	33	C	05/30/2016	10:44	-132.477	45.007	0	66.60	0	10.4730	0	32.9320	0	25.259	0	66.049	0	256.2	4	92.8	4	-1E+10	1	-1E+10	1	-1E+10	1	-1E+10	1	-1E+10	1	-1E+10	1
4901784	33	C	05/30/2016	10:44	-132.477	45.007	0	68.50	0	10.4550	0	32.9350	0	25.265	0	67.933	0	256.0	4	92.8	4	-1E+10	1	-1E+10	1	-1E+10	1	-1E+10	1	-1E+10	1	-1E+10	1
4901784	33	C	05/30/2016	10:44	-132.477	45.007	0	70.30	0	10.4120	0	32.9320	0	25.270	0	69.717	0	256.3	4	92.8	4	-1E+10	1	-1E+10	1	-1E+10	1	-1E+10	1	-1E+10	1	-1E+10	1
4901784	33	C	05/30/2016	10:44	-132.477	45.007	0	72.20	0	10.3310	0	32.9290	0	25.281	0	71.601	0	256.5	4	92.7	4	-1E+10	1	-1E+10	1	-1E+10	1	-1E+10	1	-1E+10	1	-1E+10	1
4901784	33	C	05/30/2016	10:44	-132.477	45.007	0	74.10	0	10.3470	0	32.9360	0	25.284	0	73.485	0	256.1	4	92.6	4	-1E+10	1	-1E+10	1	-1E+10	1	-1E+10	1	-1E+10	1	-1E+10	1
4901784	33	C	05/30/2016	10:44	-132.477	45.007	0	76.00	0	10.2220	0	32.9190	0	25.292	0	75.369	0	256.6	4	92.5	4	-1E+10	1	-1E+10	1	-1E+10	1	-1E+10	1	-1E+10	1	-1E+10	1
4901784	33	C	05/30/2016	10:44	-132.477	45.007	0	77.80	0	10.2420	0	32.9480	0	25.311	0	77.154	0	256.0	4	92.3	4	-1E+10	1	-1E+10	1	-1E+10	1	-1E+10	1	-1E+10	1	-1E+10	1
4901784	33	C	05/30/2016	10:44	-132.477	45.007	0	79.80	0	10.0930	0	32.9170	0	25.312	0	79.137	0	256.2	4	92.1	4	-1E+10	1	-1E+10	1	-1E+10	1	-1E+10	1	-1E+10	1	-1E+10	1
4901784	33	C	05/30/2016	10:44	-132.477	45.007	0	81.70	0	10.0780	0	32.9170	0	25.315	0	81.021	0	256.2	4	92.1	4	-1E+10	1	-1E+10	1	-1E+10	1	-1E+10	1	-1E+10	1	-1E+10	1
4901784	33	C	05/30/2016	10:44	-132.477	45.007	0	83.50	0	10.0300	0	32.9070	0	25.315	0	82.805	0	255.5	4	91.7	4	-1E+10	1	-1E+10	1	-1E+10	1	-1E+10	1	-1E+10	1	-1E+10	1
4901784	33	C	05/30/2016	10:44	-132.477	45.007	0	85.90	0	9.8140	0	32.8930	0	25.340	0	85.185	0	255.8	4	91.4	4	-1E+10	1	-1E+10	1	-1E+10	1	-1E+10	1	-1E+10	1	-1E+10	1
4901784	33	C	05/30/2016	10:44	-132.477	45.007	0	87.70	0	9.7850	0	32.9030	0	25.352	0	86.970	0	255.4	4	91.2	4	-1E+10	1	-1E+10	1	-1E+10	1	-1E+10	1	-1E+10	1	-1E+10	1
4901784	33	C	05/30/2016	10:44	-132.477	45.007	0	89.30	0	9.8170	0	32.9200	0	25.360	0	88.556	0	254.6	4	91.0	4	-1E+10	1	-1E+10	1	-1E+10	1	-1E+10	1	-1E+10	1	-1E+10	1
4901784	33	C	05/30/2016	10:44	-132.477	45.007	0	90.90	0	9.7450	0	32.9290	0	25.379	0	90.142	0	253.4	4	90.4	4	-1E+10	1	-1E+10	1	-1E+10	1	-1E+10	1	-1E+10	1	-1E+10	1
4901784	33	C	05/30/2016	10:44	-132.477	45.007	0	92.50	0	9.7100	0	32.9300	0	25.386	0	91.729	0	252.4	4	90.0	4	-1E+10	1	-1E+10	1	-1E+10	1	-1E+10	1	-1E+10	1	-1E+10	1
4901784	33	C	05/30/2016	10:44	-132.477	45.007	0	94.00	0	9.7060	0	32.9380	0	25.393	0	93.216	0	251.0	4	89.5	4	-1E+10	1	-1E+10	1	-1E+10	1	-1E+10	1	-1E+10	1	-1E+10	1
4901784	33	C	05/30/2016	10:44	-132.477	45.007	0	95.60	0	9.6730	0	32.9450	0	25.404	0	94.802	0	248.9	4	88.7	4	-1E+10	1	-1E+10	1	-1E+10	1	-1E+10	1	-1E+10	1	-1E+10	1
4901784	33	C	05/30/2016	10:44	-132.477	45.007	0	97.30	0	9.5940	0	32.9580	0	25.427	0	96.487	0	246.5	4	87.7	4	-1E+10	1	-1E+10	1	-1E+10	1	-1E+10	1	-1E+10	1	-1E+10	1
4901784	33	C	05/30/2016	10:44	-132.477	45.007	0	98.90	0	9.5700	0	32.9770	0	25.446	0	98.074	0	243.8	4	86.7	4	-1E+10	1	-1E+10	1	-1E+10	1	-1E+10	1	-1E+10	1	-1E+10	1
4901784	33	C	05/30/2016	10:44	-132.477	45.007	0	100.50	0	9.5320	0	32.9920	0	25.463	0	99.660	0	240.1	4	85.3	4	-1E+10	1	-1E+10	1	-1E+10	1	-1E+10	1	-1E+10	1	-1E+10	1
4901784	33	C	05/30/2016	10:44	-132.477	45.007	0	102.80	0	9.5130	0	33.0370	0	25.502	0	101.940	0	233.4	4	82.9	4	-1E+10	1	-1E+10	1	-1E+10	1	-1E+10	1	-1E+10	1	-1E+10	1
4901784	33	C	05/30/2016	10:44	-132.477	45.007	0	105.20	0	9.4740	0	33.0900	0	25.549	0	104.319	0	225.0	4	79.9	4	-1E+10	1	-1E+10	1	-1E+10	1	-1E+10	1	-1E+10	1	-1E+10	1
4901784	33	C	05/30/2016	10:44	-132.477	45.007	0	107.80	0	9.4400	0	33.1890	0	25.632	0	106.897	0	217.7	4	77.3	4	-1E+10	1	-1E+10	1	-1E+10	1	-1E+10	1	-1E+10	1	-1E+10	1
4901784	33	C	05/30/2016	10:44	-132.477	45.007	0	110.40	0	9.3880	0	33.2340	0	25.676	0	109.474	0	212.5	4	75.4	4	-1E+10	1	-1E+10	1	-1E+10	1	-1E+10	1	-1E+10	1	-1E+10	1
4901784	33	C	05/30/2016	10:44	-132.477	45.007	0	112.10	0	9.2950	0	33.3200	0	25.758	0	111.160	0	208.9	4	74.0	4	-1E+10	1	-1E+10	1	-1E+10	1	-1E+10	1	-1E+10	1	-1E+10	1
4901784	33	C	05/30/2016	10:44	-132.477	45.007	0	114.80	0	9.2290	0	33.3660	0	25.805	0	113.836	0	205.4	4	72.7	4	-1E+10	1	-1E+10	1	-1E+10	1	-1E+10	1	-1E+10	1	-1E+10	1
4901784	33	C	05/30/2016	10:44	-132.477	45.007	0	117.40	0	9.1260	0	33.4320	0	25.873	0	116.414	0	202.5	4	71.6	4	-1E+10	1	-1E+10	1	-1E+10	1	-1E+10	1	-1E+10	1	-1E+10	1
4901784	33	C	05/30/2016	10:44	-132.477	45.007	0	120.10	0	9.0290	0	33.4880	0	25.932	0	119.090	0	200.9	4	70.9	4	-1E+10	1	-1E+10	1	-1E+10	1	-1E+10	1	-1E+10	1	-1E+10	1
4901784	33	C	05/30/2016	10:44	-132.477	45.007	0	122.80	0	8.9680	0	33.5150	0	25.963	0	121.767	0	199.4	4	70.2	4	-1E+10	1	-1E+10	1	-1E+10	1	-1E+10	1	-1E+10	1	-1E+10	1
4901784	33	C	05/30/2016	10:44	-132.477	45.007	0	124.50	0	8.9510	0	33.5190	0	25.969	0	123.452	0	198.6	4	70.0	4	-1E+10	1	-1E+10	1	-1E+10	1	-1E+10	1	-1E+10	1	-1E+10	1
4901784	33	C	05/30/2016	10:44	-132.477	45.007	0	127.00	0	8.8780	0	33.5410	0	25.997	0	125.930	0	196.8	4	69.2	4	-1E+10	1	-1E+10	1	-1E+10	1	-1E+10	1	-1E+10	1	-1E+10	1
4901784	33	C	05/30/2016	10:44	-132.477	45.007	0	129.60	0	8.7960	0	33.5670	0	26.030	0	128.508	0	195.1	4	68.5	4	-1E+10	1	-1E+10	1	-1E+10	1	-1E+10	1	-1E+10	1	-1E+10	1
4901784	33	C	05/30/2016	10:44	-132.477	45.007	0	132.70	0	8.6590	0	33.6110	0	26.086	0	131.580	0	193.9	4	67.9	4	-1E+10	1	-1E+10	1	-1E+10	1	-1E+10	1	-1E+10	1	-1E+10	1
4901784	33	C	05/30/2016	10:44	-132.477	45.007	0	135.00	0	8.6310	0	33.6180	0	26.096	0	133.860	0	193.6	4	67.7	4	-1E+10	1	-1E+10	1	-1E+10	1	-1E+10	1	-1E+10	1	-1E+10	1
4901784	33	C	05/30/2016	10:44	-132.477	45.007	0	137.40	0	8.6170	0	33.6350	0	26.111	0	136.239	0	193.3	4	67.6	4	-1E+10	1	-1E+10	1	-1E+10	1	-1E+10	1	-1E+10	1	-1E+10	1
4901784	33	C	05/30/2016	10:44	-132.477	45.007	0	139.90	0	8.6280	0	33.6700	0	26.137	0	138.717	0	192.8	4	67.5	4	-1E+10	1	-1E+10	1	-1E+10	1	-1E+10	1	-1E+10	1	-1E+10	1
4901784	33	C	05/30/2016	10:44	-132.477	45.007	0	142.50	0	8.6970	0	33.7300	0	26.174	0	141.294	0	191.4	4	67.1	4	-1E+10	1	-1E+10	1	-1E+10	1	-1E+10	1	-1E+10	1	-1E+10	1
4901784	33	C	05/30/2016	10:44	-132.477	45.007	0	145.10	0	8.6870	0	33.7650	0	26.203	0	143.872	0	190.1	4	66.7	4	-1E+10	1	-1E+10	1	-1E+10	1	-1E+10	1	-1E+10	1	-1E+10	1
4901784	33	C	05/30/2016	10:44	-132.477	45.007	0	147.80	0	8.5870	0	33.7660	0	26.219	0	146.548	0	188.1	4	65.8	4	-1E+10	1	-1E+10	1	-1E+10	1	-1E+10	1	-1E+10	1	-1E+10	1
4901784	33	C	05/30/2016	10:44	-132.477	45.007	0	150.40	0	8.5900	0	33.7980	0	26.244	0	149.125	0	185.6	4	65.0	4	-1E+10	1	-1E+10	1	-1E+10	1	-1E+10	1	-1E+10	1	-1E+10	1
4901784	33	C	05/30/2016	10:44	-132.477	45.007	0	152.20	0	8.3960	0	33.7800	0	26.259	0	150.909	0	185.1	4	64.5	4	-1E+10	1	-1E+10	1	-1E+10	1	-1E+10	1	-1E+10	1	-1E+10	1
4901784	33	C	05/30/2016	10:44	-132.477	45.007	0	155.00	0	8.3720	0	33.7820	0	26.264	0	153.684	0	184.6	4	64.3	4	-1E+10	1	-1E+10	1	-1E+10	1	-1E+10	1	-1E+10	1	-1E+10	1
4901784	33	C	05/30/2016	10:44	-132.477	45.007	0	157.70	0	8.3500	0	33.7930	0	26.276	0	156.360	0	182.8	4	63.6	4	-1E+10	1	-1E+10	1	-1E+10	1	-1E+10	1	-1E+10	1	-1E+10	1
4901784	33	C	05/30/2016	10:44	-132.477	45.007	0	159.60	0	8.2960	0	33.8020	0	26.292	0	158.243	0	181.5	4	63.1	4	-1E+10	1	-1E+10	1	-1E+10	1	-1E+10	1	-1E+10	1	-1E+10	1
4901784	33	C	05/30/2016	10:44	-132.477	45.007	0	162.40	0	8.2790	0	33.8070	0	26.298	0	161.018	0	180.5	4	62.8	4	-1E+10	1	-1E+10	1	-1E+10	1	-1E+10	1	-1E+10	1	-1E+10	1
4901784	33	C	05/30/2016	10:44	-132.477	45.007	0	165.20	0	8.2350	0	33.8150	0	26.311	0	163.793	0	179.1	4	62.2	4	-1E+10	1	-1E+10	1	-1E+10	1	-1E+10	1	-1E+10	1	-1E+10	1
4901784	33	C	05/30/2016	10:44	-132.477	45.007	0	167.10	0	8.2220	0	33.8200	0	26.317	0	165.676	0	178.2	4	61.9	4	-1E+10	1	-1E+10	1	-1E+10	1	-1E+10	1	-1E+10	1	-1E+10	1
4901784	33	C	05/30/2016	10:44	-132.477	45.007	0	169.90	0	8.1830	0	33.8270	0	26.328	0	168.451	0	176.5	4	61.3	4	-1E+10	1	-1E+10	1	-1E+10	1	-1E+10	1	-1E+10	1	-1E+10	1
4901784	33	C	05/30/2016	10:44	-132.477	45.007	0	172.70	0	8.1590	0	33.8350	0	26.338	0	171.226	0	175.3	4	60.8	4	-1E+10	1	-1E+10	1	-1E+10	1	-1E+10	1	-1E+10	1	-1E+10	1
4901784	33	C	05/30/2016	10:44	-132.477	45.007	0	174.60	0	8.1360	0	33.8390	0	26.345	0	173.109	0	174.5	4	60.5	4	-1E+10	1	-1E+10	1	-1E+10	1	-1E+10	1	-1E+10	1	-1E+10	1
4901784	33	C	05/30/2016	10:44	-132.477	45.007	0	177.40	0	8.0940	0	33.8370	0	26.349	0	175.884	0	172.8	4	59.9	4	-1E+10	1	-1E+10	1	-1E+10	1	-1E+10	1	-1E+10	1	-1E+10	1
4901784	33	C	05/30/2016	10:44	-132.477	45.007	0	180.70	0	7.9960	0	33.8400	0	26.366	0	179.155	0	170.7	4	59.0	4	-1E+10	1	-1E+10	1	-1E+10	1	-1E+10	1	-1E+10	1	-1E+10	1
4901784	33	C	05/30/2016	10:44	-132.477	45.007	0	182.60	0	7.9680	0	33.8440	0	26.374	0	181.038	0	169.6	4	58.6	4	-1E+10	1	-1E+10	1	-1E+10	1	-1E+10	1	-1E+10	1	-1E+10	1
4901784	33	C	05/30/2016	10:44	-132.477	45.007	0	185.00	0	7.9200	0	33.8470	0	26.383	0	183.416	0	168.4	4	58.1	4	-1E+10	1	-1E+10	1	-1E+10	1	-1E+10	1	-1E+10	1	-1E+10	1
4901784	33	C	05/30/2016	10:44	-132.477	45.007	0	187.40	0	7.9090	0	33.8500	0	26.387	0	185.794	0	167.3	4	57.7	4	-1E+10	1	-1E+10	1	-1E+10	1	-1E+10	1	-1E+10	1	-1E+10	1
4901784	33	C	05/30/2016	10:44	-132.477	45.007	0	189.90	0	7.8910	0	33.8510	0	26.391	0	188.272	0	165.2	4	57.0	4	-1E+10	1	-1E+10	1	-1E+10	1	-1E+10	1	-1E+10	1	-1E+10	1
4901784	33	C	05/30/2016	10:44	-132.477	45.007	0	192.40	0	7.8450	0	33.8520	0	26.398	0	190.749	0	162.7	4	56.1	4	-1E+10	1	-1E+10	1	-1E+10	1	-1E+10	1	-1E+10	1	-1E+10	1
4901784	33	C	05/30/2016	10:44	-132.477	45.007	0	194.80	0	7.7390	0	33.8570	0	26.417	0	193.127	0	160.5	4	55.1	4	-1E+10	1	-1E+10	1	-1E+10	1	-1E+10	1	-1E+10	1	-1E+10	1
4901784	33	C	05/30/2016	10:44	-132.477	45.007	0	197.30	0	7.6870	0	33.8600	0	26.427	0	195.605	0	158.9	4	54.5	4	-1E+10	1	-1E+10	1	-1E+10	1	-1E+10	1	-1E+10	1	-1E+10	1
4901784	33	C	05/30/2016	10:44	-132.477	45.007	0	199.90	0	7.6580	0	33.8590	0	26.431	0	198.181	0	156.6	4	53.7	4	-1E+10	1	-1E+10	1	-1E+10	1	-1E+10	1	-1E+10	1	-1E+10	1
4901784	33	C	05/30/2016	10:44	-132.477	45.007	0	202.40	0	7.5910	0	33.8600	0	26.441	0	200.659	0	154.7	4	53.0	4	-1E+10	1	-1E+10	1	-1E+10	1	-1E+10	1	-1E+10	1	-1E+10	1
4901784	33	C	05/30/2016	10:44	-132.477	45.007	0	205.00	0	7.5390	0	33.8610	0	26.449	0	203.235	0	152.9	4	52.3	4	-1E+10	1	-1E+10	1	-1E+10	1	-1E+10	1	-1E+10	1	-1E+10	1
4901784	33	C	05/30/2016	10:44	-132.477	45.007	0	207.50	0	7.4760	0	33.8580	0	26.456	0	205.712	0	152.2	4	52.0	4	-1E+10	1	-1E+10	1	-1E+10	1	-1E+10	1	-1E+10	1	-1E+10	1
4901784	33	C	05/30/2016	10:44	-132.477	45.007	0	210.00	0	7.4300	0	33.8620	0	26.466	0	208.189	0	153.4	4	52.4	4	-1E+10	1	-1E+10	1	-1E+10	1	-1E+10	1	-1E+10	1	-1E+10	1
4901784	33	C	05/30/2016	10:44	-132.477	45.007	0	212.50	0	7.4200	0	33.8700	0	26.473	0	210.667	0	155.7	4	53.1	4	-1E+10	1	-1E+10	1	-1E+10	1	-1E+10	1	-1E+10	1	-1E+10	1
4901784	33	C	05/30/2016	10:44	-132.477	45.007	0	215.00	0	7.4190	0	33.8740	0	26.477	0	213.144	0	155.3	4	53.0	4	-1E+10	1	-1E+10	1	-1E+10	1	-1E+10	1	-1E+10	1	-1E+10	1
4901784	33	C	05/30/2016	10:44	-132.477	45.007	0	217.50	0	7.4080	0	33.8940	0	26.494	0	215.621	0	154.4	4	52.7	4	-1E+10	1	-1E+10	1	-1E+10	1	-1E+10	1	-1E+10	1	-1E+10	1
4901784	33	C	05/30/2016	10:44	-132.477	45.007	0	220.00	0	7.3850	0	33.8970	0	26.500	0	218.098	0	153.5	4	52.4	4	-1E+10	1	-1E+10	1	-1E+10	1	-1E+10	1	-1E+10	1	-1E+10	1
4901784	33	C	05/30/2016	10:44	-132.477	45.007	0	222.50	0	7.3620	0	33.8970	0	26.503	0	220.575	0	152.4	4	51.9	4	-1E+10	1	-1E+10	1	-1E+10	1	-1E+10	1	-1E+10	1	-1E+10	1
4901784	33	C	05/30/2016	10:44	-132.477	45.007	0	225.10	0	7.2960	0	33.8990	0	26.514	0	223.151	0	150.9	4	51.4	4	-1E+10	1	-1E+10	1	-1E+10	1	-1E+10	1	-1E+10	1	-1E+10	1
4901784	33	C	05/30/2016	10:44	-132.477	45.007	0	227.50	0	7.2630	0	33.9000	0	26.519	0	225.529	0	149.7	4	50.9	4	-1E+10	1	-1E+10	1	-1E+10	1	-1E+10	1	-1E+10	1	-1E+10	1
4901784	33	C	05/30/2016	10:44	-132.477	45.007	0	230.10	0	7.2180	0	33.9000	0	26.525	0	228.105	0	148.4	4	50.4	4	-1E+10	1	-1E+10	1	-1E+10	1	-1E+10	1	-1E+10	1	-1E+10	1
4901784	33	C	05/30/2016	10:44	-132.477	45.007	0	232.70	0	7.1860	0	33.8990	0	26.529	0	230.681	0	147.4	4	50.1	4	-1E+10	1	-1E+10	1	-1E+10	1	-1E+10	1	-1E+10	1	-1E+10	1
4901784	33	C	05/30/2016	10:44	-132.477	45.007	0	235.40	0	7.1630	0	33.8980	0	26.532	0	233.356	0	146.0	4	49.5	4	-1E+10	1	-1E+10	1	-1E+10	1	-1E+10	1	-1E+10	1	-1E+10	1
4901784	33	C	05/30/2016	10:44	-132.477	45.007	0	238.00	0	7.1230	0	33.8930	0	26.533	0	235.932	0	144.0	4	48.8	4	-1E+10	1	-1E+10	1	-1E+10	1	-1E+10	1	-1E+10	1	-1E+10	1
4901784	33	C	05/30/2016	10:44	-132.477	45.007	0	239.80	0	7.0380	0	33.8950	0	26.546	0	237.715	0	142.6	4	48.3	4	-1E+10	1	-1E+10	1	-1E+10	1	-1E+10	1	-1E+10	1	-1E+10	1
4901784	33	C	05/30/2016	10:44	-132.477	45.007	0	242.30	0	6.9210	0	33.8950	0	26.562	0	240.192	0	140.9	4	47.6	4	-1E+10	1	-1E+10	1	-1E+10	1	-1E+10	1	-1E+10	1	-1E+10	1
4901784	33	C	05/30/2016	10:44	-132.477	45.007	0	245.00	0	6.8870	0	33.8920	0	26.565	0	242.867	0	139.8	4	47.1	4	-1E+10	1	-1E+10	1	-1E+10	1	-1E+10	1	-1E+10	1	-1E+10	1
4901784	33	C	05/30/2016	10:44	-132.477	45.007	0	247.60	0	6.8740	0	33.8930	0	26.567	0	245.443	0	138.4	4	46.6	4	-1E+10	1	-1E+10	1	-1E+10	1	-1E+10	1	-1E+10	1	-1E+10	1
4901784	33	C	05/30/2016	10:44	-132.477	45.007	0	250.20	0	6.8240	0	33.8950	0	26.576	0	248.019	0	137.3	4	46.2	4	-1E+10	1	-1E+10	1	-1E+10	1	-1E+10	1	-1E+10	1	-1E+10	1
4901784	33	C	05/30/2016	10:44	-132.477	45.007	0	252.00	0	6.8100	0	33.8960	0	26.578	0	249.802	0	136.7	4	46.0	4	-1E+10	1	-1E+10	1	-1E+10	1	-1E+10	1	-1E+10	1	-1E+10	1
4901784	33	C	05/30/2016	10:44	-132.477	45.007	0	254.70	0	6.7860	0	33.8980	0	26.583	0	252.477	0	136.3	4	45.9	4	-1E+10	1	-1E+10	1	-1E+10	1	-1E+10	1	-1E+10	1	-1E+10	1
4901784	33	C	05/30/2016	10:44	-132.477	45.007	0	257.30	0	6.7820	0	33.9010	0	26.586	0	255.052	0	136.2	4	45.8	4	-1E+10	1	-1E+10	1	-1E+10	1	-1E+10	1	-1E+10	1	-1E+10	1
4901784	33	C	05/30/2016	10:44	-132.477	45.007	0	259.90	0	6.7440	0	33.9040	0	26.593	0	257.628	0	136.0	4	45.7	4	-1E+10	1	-1E+10	1	-1E+10	1	-1E+10	1	-1E+10	1	-1E+10	1
4901784	33	C	05/30/2016	10:44	-132.477	45.007	0	262.50	0	6.6860	0	33.9050	0	26.602	0	260.204	0	135.8	4	45.6	4	-1E+10	1	-1E+10	1	-1E+10	1	-1E+10	1	-1E+10	1	-1E+10	1
4901784	33	C	05/30/2016	10:44	-132.477	45.007	0	265.20	0	6.6370	0	33.9050	0	26.608	0	262.878	0	135.9	4	45.6	4	-1E+10	1	-1E+10	1	-1E+10	1	-1E+10	1	-1E+10	1	-1E+10	1
4901784	33	C	05/30/2016	10:44	-132.477	45.007	0	267.90	0	6.6170	0	33.9040	0	26.610	0	265.553	0	135.4	4	45.4	4	-1E+10	1	-1E+10	1	-1E+10	1	-1E+10	1	-1E+10	1	-1E+10	1
4901784	33	C	05/30/2016	10:44	-132.477	45.007	0	269.70	0	6.6090	0	33.9040	0	26.611	0	267.336	0	134.6	4	45.1	4	-1E+10	1	-1E+10	1	-1E+10	1	-1E+10	1	-1E+10	1	-1E+10	1
4901784	33	C	05/30/2016	10:44	-132.477	45.007	0	272.40	0	6.5690	0	33.9050	0	26.618	0	270.011	0	133.1	4	44.6	4	-1E+10	1	-1E+10	1	-1E+10	1	-1E+10	1	-1E+10	1	-1E+10	1
4901784	33	C	05/30/2016	10:44	-132.477	45.007	0	275.10	0	6.5230	0	33.9040	0	26.623	0	272.685	0	131.6	4	44.0	4	-1E+10	1	-1E+10	1	-1E+10	1	-1E+10	1	-1E+10	1	-1E+10	1
4901784	33	C	05/30/2016	10:44	-132.477	45.007	0	277.70	0	6.4830	0	33.9030	0	26.627	0	275.261	0	130.1	4	43.5	4	-1E+10	1	-1E+10	1	-1E+10	1	-1E+10	1	-1E+10	1	-1E+10	1
4901784	33	C	05/30/2016	10:44	-132.477	45.007	0	280.40	0	6.4370	0	33.9020	0	26.632	0	277.935	0	128.3	4	42.8	4	-1E+10	1	-1E+10	1	-1E+10	1	-1E+10	1	-1E+10	1	-1E+10	1
4901784	33	C	05/30/2016	10:44	-132.477	45.007	0	282.20	0	6.3860	0	33.9030	0	26.640	0	279.718	0	127.4	4	42.5	4	-1E+10	1	-1E+10	1	-1E+10	1	-1E+10	1	-1E+10	1	-1E+10	1
4901784	33	C	05/30/2016	10:44	-132.477	45.007	0	284.90	0	6.3420	0	33.9020	0	26.645	0	282.392	0	125.9	4	41.9	4	-1E+10	1	-1E+10	1	-1E+10	1	-1E+10	1	-1E+10	1	-1E+10	1
4901784	33	C	05/30/2016	10:44	-132.477	45.007	0	287.60	0	6.2900	0	33.9020	0	26.652	0	285.067	0	124.7	4	41.5	4	-1E+10	1	-1E+10	1	-1E+10	1	-1E+10	1	-1E+10	1	-1E+10	1
4901784	33	C	05/30/2016	10:44	-132.477	45.007	0	290.30	0	6.2470	0	33.9030	0	26.658	0	287.741	0	123.8	4	41.1	4	-1E+10	1	-1E+10	1	-1E+10	1	-1E+10	1	-1E+10	1	-1E+10	1
4901784	33	C	05/30/2016	10:44	-132.477	45.007	0	293.00	0	6.2150	0	33.9030	0	26.662	0	290.415	0	123.0	4	40.8	4	-1E+10	1	-1E+10	1	-1E+10	1	-1E+10	1	-1E+10	1	-1E+10	1
4901784	33	C	05/30/2016	10:44	-132.477	45.007	0	294.80	0	6.2030	0	33.9030	0	26.664	0	292.198	0	122.6	4	40.7	4	-1E+10	1	-1E+10	1	-1E+10	1	-1E+10	1	-1E+10	1	-1E+10	1
4901784	33	C	05/30/2016	10:44	-132.477	45.007	0	297.60	0	6.1950	0	33.9020	0	26.664	0	294.972	0	121.6	4	40.3	4	-1E+10	1	-1E+10	1	-1E+10	1	-1E+10	1	-1E+10	1	-1E+10	1
4901784	33	C	05/30/2016	10:44	-132.477	45.007	0	300.20	0	6.1600	0	33.8990	0	26.666	0	297.547	0	120.3	4	39.9	4	-1E+10	1	-1E+10	1	-1E+10	1	-1E+10	1	-1E+10	1	-1E+10	1
4901784	33	C	05/30/2016	10:44	-132.477	45.007	0	302.10	0	6.1310	0	33.9010	0	26.671	0	299.429	0	119.1	4	39.5	4	-1E+10	1	-1E+10	1	-1E+10	1	-1E+10	1	-1E+10	1	-1E+10	1
4901784	33	C	05/30/2016	10:44	-132.477	45.007	0	304.90	0	6.0810	0	33.9000	0	26.677	0	302.202	0	117.6	4	38.9	4	-1E+10	1	-1E+10	1	-1E+10	1	-1E+10	1	-1E+10	1	-1E+10	1
4901784	33	C	05/30/2016	10:44	-132.477	45.007	0	307.70	0	6.0520	0	33.9000	0	26.680	0	304.975	0	117.0	4	38.7	4	-1E+10	1	-1E+10	1	-1E+10	1	-1E+10	1	-1E+10	1	-1E+10	1
4901784	33	C	05/30/2016	10:44	-132.477	45.007	0	309.50	0	6.0260	0	33.9000	0	26.684	0	306.758	0	116.4	4	38.5	4	-1E+10	1	-1E+10	1	-1E+10	1	-1E+10	1	-1E+10	1	-1E+10	1
4901784	33	C	05/30/2016	10:44	-132.477	45.007	0	312.30	0	6.0070	0	33.9010	0	26.687	0	309.531	0	115.8	4	38.2	4	-1E+10	1	-1E+10	1	-1E+10	1	-1E+10	1	-1E+10	1	-1E+10	1
4901784	33	C	05/30/2016	10:44	-132.477	45.007	0	315.10	0	6.0000	0	33.9020	0	26.689	0	312.304	0	114.7	4	37.9	4	-1E+10	1	-1E+10	1	-1E+10	1	-1E+10	1	-1E+10	1	-1E+10	1
4901784	33	C	05/30/2016	10:44	-132.477	45.007	0	316.90	0	5.9780	0	33.9030	0	26.692	0	314.087	0	113.8	4	37.6	4	-1E+10	1	-1E+10	1	-1E+10	1	-1E+10	1	-1E+10	1	-1E+10	1
4901784	33	C	05/30/2016	10:44	-132.477	45.007	0	319.70	0	5.9530	0	33.9010	0	26.694	0	316.860	0	112.2	4	37.0	4	-1E+10	1	-1E+10	1	-1E+10	1	-1E+10	1	-1E+10	1	-1E+10	1
4901784	33	C	05/30/2016	10:44	-132.477	45.007	0	322.50	0	5.9060	0	33.9020	0	26.700	0	319.633	0	110.6	4	36.5	4	-1E+10	1	-1E+10	1	-1E+10	1	-1E+10	1	-1E+10	1	-1E+10	1
4901784	33	C	05/30/2016	10:44	-132.477	45.007	0	325.30	0	5.8750	0	33.9030	0	26.705	0	322.405	0	108.8	4	35.8	4	-1E+10	1	-1E+10	1	-1E+10	1	-1E+10	1	-1E+10	1	-1E+10	1
4901784	33	C	05/30/2016	10:44	-132.477	45.007	0	328.00	0	5.8180	0	33.9030	0	26.712	0	325.079	0	107.3	4	35.3	4	-1E+10	1	-1E+10	1	-1E+10	1	-1E+10	1	-1E+10	1	-1E+10	1
4901784	33	C	05/30/2016	10:44	-132.477	45.007	0	329.80	0	5.8100	0	33.9030	0	26.713	0	326.862	0	106.4	4	35.0	4	-1E+10	1	-1E+10	1	-1E+10	1	-1E+10	1	-1E+10	1	-1E+10	1
4901784	33	C	05/30/2016	10:44	-132.477	45.007	0	332.50	0	5.7770	0	33.9040	0	26.718	0	329.536	0	105.1	4	34.5	4	-1E+10	1	-1E+10	1	-1E+10	1	-1E+10	1	-1E+10	1	-1E+10	1
4901784	33	C	05/30/2016	10:44	-132.477	45.007	0	335.30	0	5.7460	0	33.9050	0	26.722	0	332.308	0	104.2	4	34.2	4	-1E+10	1	-1E+10	1	-1E+10	1	-1E+10	1	-1E+10	1	-1E+10	1
4901784	33	C	05/30/2016	10:44	-132.477	45.007	0	337.10	0	5.7440	0	33.9040	0	26.722	0	334.091	0	103.5	4	34.0	4	-1E+10	1	-1E+10	1	-1E+10	1	-1E+10	1	-1E+10	1	-1E+10	1
4901784	33	C	05/30/2016	10:44	-132.477	45.007	0	339.80	0	5.7230	0	33.9050	0	26.725	0	336.765	0	102.1	4	33.5	4	-1E+10	1	-1E+10	1	-1E+10	1	-1E+10	1	-1E+10	1	-1E+10	1
4901784	33	C	05/30/2016	10:44	-132.477	45.007	0	342.50	0	5.6930	0	33.9050	0	26.729	0	339.438	0	100.4	4	32.9	4	-1E+10	1	-1E+10	1	-1E+10	1	-1E+10	1	-1E+10	1	-1E+10	1
4901784	33	C	05/30/2016	10:44	-132.477	45.007	0	345.30	0	5.6600	0	33.9060	0	26.734	0	342.211	0	98.7	4	32.4	4	-1E+10	1	-1E+10	1	-1E+10	1	-1E+10	1	-1E+10	1	-1E+10	1
4901784	33	C	05/30/2016	10:44	-132.477	45.007	0	348.10	0	5.6200	0	33.9070	0	26.739	0	344.984	0	97.2	4	31.8	4	-1E+10	1	-1E+10	1	-1E+10	1	-1E+10	1	-1E+10	1	-1E+10	1
4901784	33	C	05/30/2016	10:44	-132.477	45.007	0	349.90	0	5.6070	0	33.9080	0	26.742	0	346.766	0	96.0	4	31.4	4	-1E+10	1	-1E+10	1	-1E+10	1	-1E+10	1	-1E+10	1	-1E+10	1
4901784	33	C	05/30/2016	10:44	-132.477	45.007	0	352.70	0	5.5770	0	33.9080	0	26.745	0	349.539	0	93.9	4	30.7	4	-1E+10	1	-1E+10	1	-1E+10	1	-1E+10	1	-1E+10	1	-1E+10	1
4901784	33	C	05/30/2016	10:44	-132.477	45.007	0	355.50	0	5.5440	0	33.9100	0	26.751	0	352.311	0	92.1	4	30.1	4	-1E+10	1	-1E+10	1	-1E+10	1	-1E+10	1	-1E+10	1	-1E+10	1
4901784	33	C	05/30/2016	10:44	-132.477	45.007	0	357.30	0	5.5310	0	33.9100	0	26.753	0	354.093	0	91.3	4	29.8	4	-1E+10	1	-1E+10	1	-1E+10	1	-1E+10	1	-1E+10	1	-1E+10	1
4901784	33	C	05/30/2016	10:44	-132.477	45.007	0	360.00	0	5.5000	0	33.9110	0	26.757	0	356.767	0	89.7	4	29.3	4	-1E+10	1	-1E+10	1	-1E+10	1	-1E+10	1	-1E+10	1	-1E+10	1
4901784	33	C	05/30/2016	10:44	-132.477	45.007	0	362.70	0	5.4690	0	33.9120	0	26.762	0	359.440	0	88.4	4	28.8	4	-1E+10	1	-1E+10	1	-1E+10	1	-1E+10	1	-1E+10	1	-1E+10	1
4901784	33	C	05/30/2016	10:44	-132.477	45.007	0	364.50	0	5.4380	0	33.9140	0	26.767	0	361.222	0	87.7	4	28.6	4	-1E+10	1	-1E+10	1	-1E+10	1	-1E+10	1	-1E+10	1	-1E+10	1
4901784	33	C	05/30/2016	10:44	-132.477	45.007	0	367.30	0	5.4120	0	33.9150	0	26.771	0	363.995	0	86.6	4	28.2	4	-1E+10	1	-1E+10	1	-1E+10	1	-1E+10	1	-1E+10	1	-1E+10	1
4901784	33	C	05/30/2016	10:44	-132.477	45.007	0	370.00	0	5.3870	0	33.9190	0	26.777	0	366.668	0	85.5	4	27.8	4	-1E+10	1	-1E+10	1	-1E+10	1	-1E+10	1	-1E+10	1	-1E+10	1
4901784	33	C	05/30/2016	10:44	-132.477	45.007	0	372.80	0	5.3470	0	33.9190	0	26.782	0	369.440	0	84.1	4	27.4	4	-1E+10	1	-1E+10	1	-1E+10	1	-1E+10	1	-1E+10	1	-1E+10	1
4901784	33	C	05/30/2016	10:44	-132.477	45.007	0	375.50	0	5.3100	0	33.9220	0	26.788	0	372.114	0	83.0	4	27.0	4	-1E+10	1	-1E+10	1	-1E+10	1	-1E+10	1	-1E+10	1	-1E+10	1
4901784	33	C	05/30/2016	10:44	-132.477	45.007	0	377.30	0	5.3000	0	33.9220	0	26.790	0	373.896	0	82.4	4	26.8	4	-1E+10	1	-1E+10	1	-1E+10	1	-1E+10	1	-1E+10	1	-1E+10	1
4901784	33	C	05/30/2016	10:44	-132.477	45.007	0	380.20	0	5.2860	0	33.9230	0	26.792	0	376.767	0	81.1	4	26.3	4	-1E+10	1	-1E+10	1	-1E+10	1	-1E+10	1	-1E+10	1	-1E+10	1
4901784	33	C	05/30/2016	10:44	-132.477	45.007	0	382.90	0	5.2800	0	33.9230	0	26.793	0	379.440	0	79.2	4	25.7	4	-1E+10	1	-1E+10	1	-1E+10	1	-1E+10	1	-1E+10	1	-1E+10	1
4901784	33	C	05/30/2016	10:44	-132.477	45.007	0	384.80	0	5.2660	0	33.9240	0	26.795	0	381.321	0	77.5	4	25.2	4	-1E+10	1	-1E+10	1	-1E+10	1	-1E+10	1	-1E+10	1	-1E+10	1
4901784	33	C	05/30/2016	10:44	-132.477	45.007	0	387.70	0	5.2340	0	33.9300	0	26.804	0	384.192	0	75.5	4	24.5	4	-1E+10	1	-1E+10	1	-1E+10	1	-1E+10	1	-1E+10	1	-1E+10	1
4901784	33	C	05/30/2016	10:44	-132.477	45.007	0	390.40	0	5.1950	0	33.9330	0	26.811	0	386.865	0	74.0	4	24.0	4	-1E+10	1	-1E+10	1	-1E+10	1	-1E+10	1	-1E+10	1	-1E+10	1
4901784	33	C	05/30/2016	10:44	-132.477	45.007	0	392.30	0	5.1740	0	33.9340	0	26.814	0	388.746	0	73.0	4	23.7	4	-1E+10	1	-1E+10	1	-1E+10	1	-1E+10	1	-1E+10	1	-1E+10	1
4901784	33	C	05/30/2016	10:44	-132.477	45.007	0	395.10	0	5.1310	0	33.9390	0	26.823	0	391.518	0	72.2	4	23.4	4	-1E+10	1	-1E+10	1	-1E+10	1	-1E+10	1	-1E+10	1	-1E+10	1
4901784	33	C	05/30/2016	10:44	-132.477	45.007	0	397.90	0	5.1270	0	33.9390	0	26.823	0	394.290	0	71.2	4	23.0	4	-1E+10	1	-1E+10	1	-1E+10	1	-1E+10	1	-1E+10	1	-1E+10	1
4901784	33	C	05/30/2016	10:44	-132.477	45.007	0	399.80	0	5.1210	0	33.9390	0	26.824	0	396.171	0	70.2	4	22.7	4	-1E+10	1	-1E+10	1	-1E+10	1	-1E+10	1	-1E+10	1	-1E+10	1
4901784	33	C	05/30/2016	10:44	-132.477	45.007	0	402.50	0	5.0910	0	33.9430	0	26.831	0	398.844	0	68.3	4	22.1	4	-1E+10	1	-1E+10	1	-1E+10	1	-1E+10	1	-1E+10	1	-1E+10	1
4901784	33	C	05/30/2016	10:44	-132.477	45.007	0	405.90	0	5.0540	0	33.9510	0	26.841	0	402.210	0	66.0	4	21.3	4	-1E+10	1	-1E+10	1	-1E+10	1	-1E+10	1	-1E+10	1	-1E+10	1
4901784	33	C	05/30/2016	10:44	-132.477	45.007	0	407.80	0	5.0500	0	33.9540	0	26.844	0	404.091	0	64.8	4	20.9	4	-1E+10	1	-1E+10	1	-1E+10	1	-1E+10	1	-1E+10	1	-1E+10	1
4901784	33	C	05/30/2016	10:44	-132.477	45.007	0	410.20	0	5.0550	0	33.9580	0	26.847	0	406.467	0	63.7	4	20.6	4	-1E+10	1	-1E+10	1	-1E+10	1	-1E+10	1	-1E+10	1	-1E+10	1
4901784	33	C	05/30/2016	10:44	-132.477	45.007	0	412.60	0	5.0330	0	33.9570	0	26.848	0	408.843	0	62.2	4	20.1	4	-1E+10	1	-1E+10	1	-1E+10	1	-1E+10	1	-1E+10	1	-1E+10	1
4901784	33	C	05/30/2016	10:44	-132.477	45.007	0	415.10	0	5.0370	0	33.9620	0	26.852	0	411.317	0	60.4	4	19.5	4	-1E+10	1	-1E+10	1	-1E+10	1	-1E+10	1	-1E+10	1	-1E+10	1
4901784	33	C	05/30/2016	10:44	-132.477	45.007	0	417.40	0	5.0380	0	33.9670	0	26.856	0	413.594	0	58.4	4	18.9	4	-1E+10	1	-1E+10	1	-1E+10	1	-1E+10	1	-1E+10	1	-1E+10	1
4901784	33	C	05/30/2016	10:44	-132.477	45.007	0	419.90	0	5.0680	0	33.9750	0	26.859	0	416.069	0	56.4	4	18.3	4	-1E+10	1	-1E+10	1	-1E+10	1	-1E+10	1	-1E+10	1	-1E+10	1
4901784	33	C	05/30/2016	10:44	-132.477	45.007	0	422.40	0	5.0640	0	33.9780	0	26.862	0	418.543	0	55.1	4	17.8	4	-1E+10	1	-1E+10	1	-1E+10	1	-1E+10	1	-1E+10	1	-1E+10	1
4901784	33	C	05/30/2016	10:44	-132.477	45.007	0	424.90	0	5.0540	0	33.9840	0	26.868	0	421.018	0	53.8	4	17.4	4	-1E+10	1	-1E+10	1	-1E+10	1	-1E+10	1	-1E+10	1	-1E+10	1
4901784	33	C	05/30/2016	10:44	-132.477	45.007	0	427.30	0	5.0600	0	33.9880	0	26.870	0	423.394	0	52.9	4	17.1	4	-1E+10	1	-1E+10	1	-1E+10	1	-1E+10	1	-1E+10	1	-1E+10	1
4901784	33	C	05/30/2016	10:44	-132.477	45.007	0	429.80	0	5.0570	0	33.9900	0	26.872	0	425.868	0	52.7	4	17.0	4	-1E+10	1	-1E+10	1	-1E+10	1	-1E+10	1	-1E+10	1	-1E+10	1
4901784	33	C	05/30/2016	10:44	-132.477	45.007	0	432.30	0	5.0420	0	33.9900	0	26.874	0	428.343	0	52.5	4	17.0	4	-1E+10	1	-1E+10	1	-1E+10	1	-1E+10	1	-1E+10	1	-1E+10	1
4901784	33	C	05/30/2016	10:44	-132.477	45.007	0	434.90	0	5.0320	0	33.9890	0	26.874	0	430.916	0	52.0	4	16.8	4	-1E+10	1	-1E+10	1	-1E+10	1	-1E+10	1	-1E+10	1	-1E+10	1
4901784	33	C	05/30/2016	10:44	-132.477	45.007	0	437.50	0	5.0320	0	33.9930	0	26.877	0	433.490	0	51.2	4	16.6	4	-1E+10	1	-1E+10	1	-1E+10	1	-1E+10	1	-1E+10	1	-1E+10	1
4901784	33	C	05/30/2016	10:44	-132.477	45.007	0	440.10	0	5.0170	0	33.9950	0	26.881	0	436.063	0	51.1	4	16.5	4	-1E+10	1	-1E+10	1	-1E+10	1	-1E+10	1	-1E+10	1	-1E+10	1
4901784	33	C	05/30/2016	10:44	-132.477	45.007	0	442.60	0	5.0030	0	33.9960	0	26.883	0	438.538	0	51.0	4	16.5	4	-1E+10	1	-1E+10	1	-1E+10	1	-1E+10	1	-1E+10	1	-1E+10	1
4901784	33	C	05/30/2016	10:44	-132.477	45.007	0	445.20	0	4.9750	0	33.9960	0	26.886	0	441.111	0	51.4	4	16.6	4	-1E+10	1	-1E+10	1	-1E+10	1	-1E+10	1	-1E+10	1	-1E+10	1
4901784	33	C	05/30/2016	10:44	-132.477	45.007	0	447.80	0	4.9460	0	33.9960	0	26.890	0	443.684	0	51.9	4	16.7	4	-1E+10	1	-1E+10	1	-1E+10	1	-1E+10	1	-1E+10	1	-1E+10	1
4901784	33	C	05/30/2016	10:44	-132.477	45.007	0	450.40	0	4.8920	0	33.9930	0	26.893	0	446.258	0	52.4	4	16.9	4	-1E+10	1	-1E+10	1	-1E+10	1	-1E+10	1	-1E+10	1	-1E+10	1
4901784	33	C	05/30/2016	10:44	-132.477	45.007	0	453.00	0	4.8720	0	33.9900	0	26.893	0	448.831	0	52.2	4	16.8	4	-1E+10	1	-1E+10	1	-1E+10	1	-1E+10	1	-1E+10	1	-1E+10	1
4901784	33	C	05/30/2016	10:44	-132.477	45.007	0	454.70	0	4.8430	0	33.9900	0	26.896	0	450.514	0	51.5	4	16.6	4	-1E+10	1	-1E+10	1	-1E+10	1	-1E+10	1	-1E+10	1	-1E+10	1
4901784	33	C	05/30/2016	10:44	-132.477	45.007	0	457.20	0	4.8620	0	33.9930	0	26.897	0	452.988	0	49.5	4	15.9	4	-1E+10	1	-1E+10	1	-1E+10	1	-1E+10	1	-1E+10	1	-1E+10	1
4901784	33	C	05/30/2016	10:44	-132.477	45.007	0	459.90	0	4.8880	0	34.0000	0	26.899	0	455.660	0	47.5	4	15.3	4	-1E+10	1	-1E+10	1	-1E+10	1	-1E+10	1	-1E+10	1	-1E+10	1
4901784	33	C	05/30/2016	10:44	-132.477	45.007	0	462.40	0	4.9000	0	34.0070	0	26.904	0	458.134	0	45.9	4	14.8	4	-1E+10	1	-1E+10	1	-1E+10	1	-1E+10	1	-1E+10	1	-1E+10	1
4901784	33	C	05/30/2016	10:44	-132.477	45.007	0	465.00	0	4.8720	0	34.0090	0	26.908	0	460.707	0	45.1	4	14.5	4	-1E+10	1	-1E+10	1	-1E+10	1	-1E+10	1	-1E+10	1	-1E+10	1
4901784	33	C	05/30/2016	10:44	-132.477	45.007	0	467.70	0	4.8660	0	34.0110	0	26.911	0	463.379	0	42.9	4	13.8	4	-1E+10	1	-1E+10	1	-1E+10	1	-1E+10	1	-1E+10	1	-1E+10	1
4901784	33	C	05/30/2016	10:44	-132.477	45.007	0	470.40	0	4.8950	0	34.0250	0	26.918	0	466.051	0	41.0	4	13.2	4	-1E+10	1	-1E+10	1	-1E+10	1	-1E+10	1	-1E+10	1	-1E+10	1
4901784	33	C	05/30/2016	10:44	-132.477	45.007	0	472.10	0	4.8990	0	34.0270	0	26.920	0	467.734	0	40.6	4	13.1	4	-1E+10	1	-1E+10	1	-1E+10	1	-1E+10	1	-1E+10	1	-1E+10	1
4901784	33	C	05/30/2016	10:44	-132.477	45.007	0	474.80	0	4.8930	0	34.0280	0	26.921	0	470.406	0	40.1	4	12.9	4	-1E+10	1	-1E+10	1	-1E+10	1	-1E+10	1	-1E+10	1	-1E+10	1
4901784	33	C	05/30/2016	10:44	-132.477	45.007	0	477.50	0	4.8800	0	34.0290	0	26.923	0	473.078	0	39.5	4	12.7	4	-1E+10	1	-1E+10	1	-1E+10	1	-1E+10	1	-1E+10	1	-1E+10	1
4901784	33	C	05/30/2016	10:44	-132.477	45.007	0	480.10	0	4.8710	0	34.0320	0	26.927	0	475.651	0	38.9	4	12.5	4	-1E+10	1	-1E+10	1	-1E+10	1	-1E+10	1	-1E+10	1	-1E+10	1
4901784	33	C	05/30/2016	10:44	-132.477	45.007	0	482.80	0	4.8610	0	34.0330	0	26.929	0	478.322	0	38.4	4	12.4	4	-1E+10	1	-1E+10	1	-1E+10	1	-1E+10	1	-1E+10	1	-1E+10	1
4901784	33	C	05/30/2016	10:44	-132.477	45.007	0	484.60	0	4.8460	0	34.0350	0	26.932	0	480.104	0	38.0	4	12.2	4	-1E+10	1	-1E+10	1	-1E+10	1	-1E+10	1	-1E+10	1	-1E+10	1
4901784	33	C	05/30/2016	10:44	-132.477	45.007	0	487.30	0	4.8060	0	34.0380	0	26.939	0	482.775	0	37.5	4	12.0	4	-1E+10	1	-1E+10	1	-1E+10	1	-1E+10	1	-1E+10	1	-1E+10	1
4901784	33	C	05/30/2016	10:44	-132.477	45.007	0	490.10	0	4.7880	0	34.0410	0	26.943	0	485.546	0	36.8	4	11.8	4	-1E+10	1	-1E+10	1	-1E+10	1	-1E+10	1	-1E+10	1	-1E+10	1
4901784	33	C	05/30/2016	10:44	-132.477	45.007	0	492.00	0	4.7600	0	34.0440	0	26.949	0	487.426	0	36.5	4	11.7	4	-1E+10	1	-1E+10	1	-1E+10	1	-1E+10	1	-1E+10	1	-1E+10	1
4901784	33	C	05/30/2016	10:44	-132.477	45.007	0	494.70	0	4.7470	0	34.0460	0	26.952	0	490.098	0	36.0	4	11.6	4	-1E+10	1	-1E+10	1	-1E+10	1	-1E+10	1	-1E+10	1	-1E+10	1
4901784	33	C	05/30/2016	10:44	-132.477	45.007	0	497.50	0	4.7350	0	34.0490	0	26.956	0	492.869	0	35.7	4	11.5	4	-1E+10	1	-1E+10	1	-1E+10	1	-1E+10	1	-1E+10	1	-1E+10	1
4901784	33	C	05/30/2016	10:44	-132.477	45.007	0	500.30	0	4.7190	0	34.0500	0	26.958	0	495.639	0	35.4	4	11.4	4	-1E+10	1	-1E+10	1	-1E+10	1	-1E+10	1	-1E+10	1	-1E+10	1
4901784	33	C	05/30/2016	10:44	-132.477	45.007	0	504.90	0	4.7150	0	34.0520	0	26.960	0	500.191	0	34.6	4	11.1	4	-1E+10	1	-1E+10	1	-1E+10	1	-1E+10	1	-1E+10	1	-1E+10	1
4901784	33	C	05/30/2016	10:44	-132.477	45.007	0	510.40	0	4.7140	0	34.0570	0	26.964	0	505.633	0	33.9	4	10.9	4	-1E+10	1	-1E+10	1	-1E+10	1	-1E+10	1	-1E+10	1	-1E+10	1
4901784	33	C	05/30/2016	10:44	-132.477	45.007	0	514.90	0	4.6640	0	34.0570	0	26.970	0	510.085	0	33.9	4	10.9	4	-1E+10	1	-1E+10	1	-1E+10	1	-1E+10	1	-1E+10	1	-1E+10	1
4901784	33	C	05/30/2016	10:44	-132.477	45.007	0	519.60	0	4.6090	0	34.0560	0	26.975	0	514.736	0	32.7	4	10.5	4	-1E+10	1	-1E+10	1	-1E+10	1	-1E+10	1	-1E+10	1	-1E+10	1
4901784	33	C	05/30/2016	10:44	-132.477	45.007	0	525.30	0	4.6400	0	34.0700	0	26.983	0	520.375	0	29.7	4	9.5	4	-1E+10	1	-1E+10	1	-1E+10	1	-1E+10	1	-1E+10	1	-1E+10	1
4901784	33	C	05/30/2016	10:44	-132.477	45.007	0	530.20	0	4.6260	0	34.0800	0	26.992	0	525.223	0	28.6	4	9.2	4	-1E+10	1	-1E+10	1	-1E+10	1	-1E+10	1	-1E+10	1	-1E+10	1
4901784	33	C	05/30/2016	10:44	-132.477	45.007	0	535.00	0	4.6040	0	34.0850	0	26.999	0	529.972	0	28.3	4	9.1	4	-1E+10	1	-1E+10	1	-1E+10	1	-1E+10	1	-1E+10	1	-1E+10	1
4901784	33	C	05/30/2016	10:44	-132.477	45.007	0	540.40	0	4.5850	0	34.0870	0	27.002	0	535.314	0	28.5	4	9.1	4	-1E+10	1	-1E+10	1	-1E+10	1	-1E+10	1	-1E+10	1	-1E+10	1
4901784	33	C	05/30/2016	10:44	-132.477	45.007	0	545.20	0	4.5290	0	34.0850	0	27.007	0	540.063	0	29.8	4	9.5	4	-1E+10	1	-1E+10	1	-1E+10	1	-1E+10	1	-1E+10	1	-1E+10	1
4901784	33	C	05/30/2016	10:44	-132.477	45.007	0	550.00	0	4.4310	0	34.0790	0	27.013	0	544.811	0	30.4	4	9.7	4	-1E+10	1	-1E+10	1	-1E+10	1	-1E+10	1	-1E+10	1	-1E+10	1
4901784	33	C	05/30/2016	10:44	-132.477	45.007	0	554.80	0	4.4000	0	34.0840	0	27.020	0	549.560	0	29.4	4	9.4	4	-1E+10	1	-1E+10	1	-1E+10	1	-1E+10	1	-1E+10	1	-1E+10	1
4901784	33	C	05/30/2016	10:44	-132.477	45.007	0	559.70	0	4.3980	0	34.0880	0	27.024	0	554.407	0	28.0	4	8.9	4	-1E+10	1	-1E+10	1	-1E+10	1	-1E+10	1	-1E+10	1	-1E+10	1
4901784	33	C	05/30/2016	10:44	-132.477	45.007	0	564.70	0	4.4120	0	34.0950	0	27.028	0	559.353	0	26.2	4	8.3	4	-1E+10	1	-1E+10	1	-1E+10	1	-1E+10	1	-1E+10	1	-1E+10	1
4901784	33	C	05/30/2016	10:44	-132.477	45.007	0	569.80	0	4.4310	0	34.1030	0	27.032	0	564.398	0	24.8	4	7.9	4	-1E+10	1	-1E+10	1	-1E+10	1	-1E+10	1	-1E+10	1	-1E+10	1
4901784	33	C	05/30/2016	10:44	-132.477	45.007	0	574.80	0	4.4220	0	34.1110	0	27.039	0	569.343	0	23.7	4	7.6	4	-1E+10	1	-1E+10	1	-1E+10	1	-1E+10	1	-1E+10	1	-1E+10	1
4901784	33	C	05/30/2016	10:44	-132.477	45.007	0	579.90	0	4.4120	0	34.1150	0	27.044	0	574.388	0	22.9	4	7.3	4	-1E+10	1	-1E+10	1	-1E+10	1	-1E+10	1	-1E+10	1	-1E+10	1
4901784	33	C	05/30/2016	10:44	-132.477	45.007	0	585.10	0	4.3830	0	34.1240	0	27.054	0	579.531	0	22.1	4	7.0	4	-1E+10	1	-1E+10	1	-1E+10	1	-1E+10	1	-1E+10	1	-1E+10	1
4901784	33	C	05/30/2016	10:44	-132.477	45.007	0	590.40	0	4.3700	0	34.1280	0	27.059	0	584.773	0	21.6	4	6.9	4	-1E+10	1	-1E+10	1	-1E+10	1	-1E+10	1	-1E+10	1	-1E+10	1
4901784	33	C	05/30/2016	10:44	-132.477	45.007	0	594.90	0	4.3550	0	34.1310	0	27.063	0	589.224	0	21.3	4	6.8	4	-1E+10	1	-1E+10	1	-1E+10	1	-1E+10	1	-1E+10	1	-1E+10	1
4901784	33	C	05/30/2016	10:44	-132.477	45.007	0	599.30	0	4.3440	0	34.1330	0	27.065	0	593.576	0	21.0	4	6.7	4	-1E+10	1	-1E+10	1	-1E+10	1	-1E+10	1	-1E+10	1	-1E+10	1
4901784	33	C	05/30/2016	10:44	-132.477	45.007	0	604.60	0	4.3330	0	34.1370	0	27.070	0	598.818	0	20.6	4	6.6	4	-1E+10	1	-1E+10	1	-1E+10	1	-1E+10	1	-1E+10	1	-1E+10	1
4901784	33	C	05/30/2016	10:44	-132.477	45.007	0	609.90	0	4.3290	0	34.1390	0	27.072	0	604.059	0	20.2	4	6.4	4	-1E+10	1	-1E+10	1	-1E+10	1	-1E+10	1	-1E+10	1	-1E+10	1
4901784	33	C	05/30/2016	10:44	-132.477	45.007	0	615.40	0	4.3230	0	34.1430	0	27.076	0	609.498	0	19.8	4	6.3	4	-1E+10	1	-1E+10	1	-1E+10	1	-1E+10	1	-1E+10	1	-1E+10	1
4901784	33	C	05/30/2016	10:44	-132.477	45.007	0	619.90	0	4.3150	0	34.1460	0	27.079	0	613.949	0	19.3	4	6.1	4	-1E+10	1	-1E+10	1	-1E+10	1	-1E+10	1	-1E+10	1	-1E+10	1
4901784	33	C	05/30/2016	10:44	-132.477	45.007	0	624.60	0	4.3060	0	34.1510	0	27.084	0	618.597	0	18.7	4	6.0	4	-1E+10	1	-1E+10	1	-1E+10	1	-1E+10	1	-1E+10	1	-1E+10	1
4901784	33	C	05/30/2016	10:44	-132.477	45.007	0	630.10	0	4.2910	0	34.1560	0	27.089	0	624.035	0	18.2	4	5.8	4	-1E+10	1	-1E+10	1	-1E+10	1	-1E+10	1	-1E+10	1	-1E+10	1
4901784	33	C	05/30/2016	10:44	-132.477	45.007	0	634.80	0	4.2780	0	34.1620	0	27.096	0	628.683	0	17.9	4	5.7	4	-1E+10	1	-1E+10	1	-1E+10	1	-1E+10	1	-1E+10	1	-1E+10	1
4901784	33	C	05/30/2016	10:44	-132.477	45.007	0	639.40	0	4.2580	0	34.1640	0	27.099	0	633.232	0	17.9	4	5.7	4	-1E+10	1	-1E+10	1	-1E+10	1	-1E+10	1	-1E+10	1	-1E+10	1
4901784	33	C	05/30/2016	10:44	-132.477	45.007	0	644.90	0	4.2380	0	34.1660	0	27.103	0	638.670	0	17.8	4	5.7	4	-1E+10	1	-1E+10	1	-1E+10	1	-1E+10	1	-1E+10	1	-1E+10	1
4901784	33	C	05/30/2016	10:44	-132.477	45.007	0	650.40	0	4.2160	0	34.1670	0	27.106	0	644.109	0	17.7	4	5.6	4	-1E+10	1	-1E+10	1	-1E+10	1	-1E+10	1	-1E+10	1	-1E+10	1
4901784	33	C	05/30/2016	10:44	-132.477	45.007	0	655.00	0	4.2000	0	34.1690	0	27.110	0	648.657	0	17.5	4	5.5	4	-1E+10	1	-1E+10	1	-1E+10	1	-1E+10	1	-1E+10	1	-1E+10	1
4901784	33	C	05/30/2016	10:44	-132.477	45.007	0	659.80	0	4.1680	0	34.1730	0	27.116	0	653.403	0	17.2	4	5.4	4	-1E+10	1	-1E+10	1	-1E+10	1	-1E+10	1	-1E+10	1	-1E+10	1
4901784	33	C	05/30/2016	10:44	-132.477	45.007	0	665.40	0	4.1540	0	34.1790	0	27.122	0	658.940	0	16.6	4	5.3	4	-1E+10	1	-1E+10	1	-1E+10	1	-1E+10	1	-1E+10	1	-1E+10	1
4901784	33	C	05/30/2016	10:44	-132.477	45.007	0	670.10	0	4.1540	0	34.1830	0	27.126	0	663.587	0	16.1	4	5.1	4	-1E+10	1	-1E+10	1	-1E+10	1	-1E+10	1	-1E+10	1	-1E+10	1
4901784	33	C	05/30/2016	10:44	-132.477	45.007	0	674.90	0	4.1560	0	34.1880	0	27.129	0	668.332	0	15.9	4	5.0	4	-1E+10	1	-1E+10	1	-1E+10	1	-1E+10	1	-1E+10	1	-1E+10	1
4901784	33	C	05/30/2016	10:44	-132.477	45.007	0	679.70	0	4.1400	0	34.1900	0	27.133	0	673.078	0	15.8	4	5.0	4	-1E+10	1	-1E+10	1	-1E+10	1	-1E+10	1	-1E+10	1	-1E+10	1
4901784	33	C	05/30/2016	10:44	-132.477	45.007	0	684.50	0	4.1080	0	34.1930	0	27.138	0	677.823	0	15.6	4	5.0	4	-1E+10	1	-1E+10	1	-1E+10	1	-1E+10	1	-1E+10	1	-1E+10	1
4901784	33	C	05/30/2016	10:44	-132.477	45.007	0	690.30	0	4.0880	0	34.1980	0	27.144	0	683.557	0	15.4	4	4.9	4	-1E+10	1	-1E+10	1	-1E+10	1	-1E+10	1	-1E+10	1	-1E+10	1
4901784	33	C	05/30/2016	10:44	-132.477	45.007	0	695.40	0	4.0800	0	34.2010	0	27.148	0	688.599	0	15.3	4	4.9	4	-1E+10	1	-1E+10	1	-1E+10	1	-1E+10	1	-1E+10	1	-1E+10	1
4901784	33	C	05/30/2016	10:44	-132.477	45.007	0	700.00	0	4.0740	0	34.2010	0	27.148	0	693.146	0	15.4	4	4.9	4	-1E+10	1	-1E+10	1	-1E+10	1	-1E+10	1	-1E+10	1	-1E+10	1
4901784	33	C	05/30/2016	10:44	-132.477	45.007	0	704.90	0	4.0610	0	34.2030	0	27.151	0	697.990	0	15.4	4	4.9	4	-1E+10	1	-1E+10	1	-1E+10	1	-1E+10	1	-1E+10	1	-1E+10	1
4901784	33	C	05/30/2016	10:44	-132.477	45.007	0	709.80	0	4.0360	0	34.2030	0	27.154	0	702.834	0	15.3	4	4.8	4	-1E+10	1	-1E+10	1	-1E+10	1	-1E+10	1	-1E+10	1	-1E+10	1
4901784	33	C	05/30/2016	10:44	-132.477	45.007	0	714.60	0	4.0330	0	34.2080	0	27.158	0	707.579	0	14.8	4	4.7	4	-1E+10	1	-1E+10	1	-1E+10	1	-1E+10	1	-1E+10	1	-1E+10	1
4901784	33	C	05/30/2016	10:44	-132.477	45.007	0	719.50	0	4.0390	0	34.2120	0	27.161	0	712.422	0	14.5	4	4.6	4	-1E+10	1	-1E+10	1	-1E+10	1	-1E+10	1	-1E+10	1	-1E+10	1
4901784	33	C	05/30/2016	10:44	-132.477	45.007	0	724.50	0	4.0340	0	34.2130	0	27.162	0	717.364	0	14.3	4	4.5	4	-1E+10	1	-1E+10	1	-1E+10	1	-1E+10	1	-1E+10	1	-1E+10	1
4901784	33	C	05/30/2016	10:44	-132.477	45.007	0	729.40	0	4.0290	0	34.2190	0	27.167	0	722.208	0	13.9	4	4.4	4	-1E+10	1	-1E+10	1	-1E+10	1	-1E+10	1	-1E+10	1	-1E+10	1
4901784	33	C	05/30/2016	10:44	-132.477	45.007	0	734.40	0	4.0250	0	34.2230	0	27.171	0	727.150	0	13.6	4	4.3	4	-1E+10	1	-1E+10	1	-1E+10	1	-1E+10	1	-1E+10	1	-1E+10	1
4901784	33	C	05/30/2016	10:44	-132.477	45.007	0	739.30	0	4.0170	0	34.2250	0	27.174	0	731.993	0	13.4	4	4.2	4	-1E+10	1	-1E+10	1	-1E+10	1	-1E+10	1	-1E+10	1	-1E+10	1
4901784	33	C	05/30/2016	10:44	-132.477	45.007	0	744.40	0	4.0030	0	34.2300	0	27.179	0	737.033	0	13.1	4	4.1	4	-1E+10	1	-1E+10	1	-1E+10	1	-1E+10	1	-1E+10	1	-1E+10	1
4901784	33	C	05/30/2016	10:44	-132.477	45.007	0	749.50	0	4.0010	0	34.2360	0	27.184	0	742.074	0	12.8	4	4.0	4	-1E+10	1	-1E+10	1	-1E+10	1	-1E+10	1	-1E+10	1	-1E+10	1
4901784	33	C	05/30/2016	10:44	-132.477	45.007	0	754.60	0	3.9960	0	34.2390	0	27.187	0	747.114	0	12.6	4	4.0	4	-1E+10	1	-1E+10	1	-1E+10	1	-1E+10	1	-1E+10	1	-1E+10	1
4901784	33	C	05/30/2016	10:44	-132.477	45.007	0	759.70	0	3.9840	0	34.2440	0	27.192	0	752.154	0	12.5	4	3.9	4	-1E+10	1	-1E+10	1	-1E+10	1	-1E+10	1	-1E+10	1	-1E+10	1
4901784	33	C	05/30/2016	10:44	-132.477	45.007	0	764.80	0	3.9740	0	34.2470	0	27.196	0	757.194	0	12.4	4	3.9	4	-1E+10	1	-1E+10	1	-1E+10	1	-1E+10	1	-1E+10	1	-1E+10	1
4901784	33	C	05/30/2016	10:44	-132.477	45.007	0	770.00	0	3.9660	0	34.2490	0	27.198	0	762.333	0	12.3	4	3.9	4	-1E+10	1	-1E+10	1	-1E+10	1	-1E+10	1	-1E+10	1	-1E+10	1
4901784	33	C	05/30/2016	10:44	-132.477	45.007	0	775.20	0	3.9520	0	34.2520	0	27.202	0	767.472	0	12.3	4	3.9	4	-1E+10	1	-1E+10	1	-1E+10	1	-1E+10	1	-1E+10	1	-1E+10	1
4901784	33	C	05/30/2016	10:44	-132.477	45.007	0	780.40	0	3.9410	0	34.2530	0	27.204	0	772.610	0	12.2	4	3.8	4	-1E+10	1	-1E+10	1	-1E+10	1	-1E+10	1	-1E+10	1	-1E+10	1
4901784	33	C	05/30/2016	10:44	-132.477	45.007	0	785.60	0	3.9200	0	34.2580	0	27.210	0	777.749	0	12.2	4	3.8	4	-1E+10	1	-1E+10	1	-1E+10	1	-1E+10	1	-1E+10	1	-1E+10	1
4901784	33	C	05/30/2016	10:44	-132.477	45.007	0	790.00	0	3.9150	0	34.2600	0	27.212	0	782.097	0	12.2	4	3.8	4	-1E+10	1	-1E+10	1	-1E+10	1	-1E+10	1	-1E+10	1	-1E+10	1
4901784	33	C	05/30/2016	10:44	-132.477	45.007	0	794.30	0	3.8930	0	34.2610	0	27.215	0	786.346	0	12.4	4	3.9	4	-1E+10	1	-1E+10	1	-1E+10	1	-1E+10	1	-1E+10	1	-1E+10	1
4901784	33	C	05/30/2016	10:44	-132.477	45.007	0	799.40	0	3.8600	0	34.2620	0	27.219	0	791.385	0	12.3	4	3.9	4	-1E+10	1	-1E+10	1	-1E+10	1	-1E+10	1	-1E+10	1	-1E+10	1
4901784	33	C	05/30/2016	10:44	-132.477	45.007	0	804.50	0	3.8690	0	34.2650	0	27.221	0	796.424	0	12.1	4	3.8	4	-1E+10	1	-1E+10	1	-1E+10	1	-1E+10	1	-1E+10	1	-1E+10	1
4901784	33	C	05/30/2016	10:44	-132.477	45.007	0	809.70	0	3.8490	0	34.2670	0	27.224	0	801.562	0	12.2	4	3.8	4	-1E+10	1	-1E+10	1	-1E+10	1	-1E+10	1	-1E+10	1	-1E+10	1
4901784	33	C	05/30/2016	10:44	-132.477	45.007	0	815.00	0	3.8350	0	34.2720	0	27.230	0	806.798	0	12.2	4	3.8	4	-1E+10	1	-1E+10	1	-1E+10	1	-1E+10	1	-1E+10	1	-1E+10	1
4901784	33	C	05/30/2016	10:44	-132.477	45.007	0	820.30	0	3.8090	0	34.2710	0	27.232	0	812.035	0	12.4	4	3.9	4	-1E+10	1	-1E+10	1	-1E+10	1	-1E+10	1	-1E+10	1	-1E+10	1
4901784	33	C	05/30/2016	10:44	-132.477	45.007	0	825.50	0	3.7900	0	34.2730	0	27.235	0	817.172	0	12.4	4	3.9	4	-1E+10	1	-1E+10	1	-1E+10	1	-1E+10	1	-1E+10	1	-1E+10	1
4901784	33	C	05/30/2016	10:44	-132.477	45.007	0	829.90	0	3.7770	0	34.2760	0	27.239	0	821.519	0	12.6	4	4.0	4	-1E+10	1	-1E+10	1	-1E+10	1	-1E+10	1	-1E+10	1	-1E+10	1
4901784	33	C	05/30/2016	10:44	-132.477	45.007	0	834.40	0	3.7650	0	34.2750	0	27.239	0	825.965	0	12.9	4	4.1	4	-1E+10	1	-1E+10	1	-1E+10	1	-1E+10	1	-1E+10	1	-1E+10	1
4901784	33	C	05/30/2016	10:44	-132.477	45.007	0	839.70	0	3.6990	0	34.2690	0	27.241	0	831.201	0	13.3	4	4.2	4	-1E+10	1	-1E+10	1	-1E+10	1	-1E+10	1	-1E+10	1	-1E+10	1
4901784	33	C	05/30/2016	10:44	-132.477	45.007	0	845.00	0	3.6630	0	34.2720	0	27.247	0	836.436	0	12.9	4	4.0	4	-1E+10	1	-1E+10	1	-1E+10	1	-1E+10	1	-1E+10	1	-1E+10	1
4901784	33	C	05/30/2016	10:44	-132.477	45.007	0	850.40	0	3.7100	0	34.2830	0	27.251	0	841.771	0	12.4	4	3.9	4	-1E+10	1	-1E+10	1	-1E+10	1	-1E+10	1	-1E+10	1	-1E+10	1
4901784	33	C	05/30/2016	10:44	-132.477	45.007	0	854.80	0	3.7090	0	34.2890	0	27.256	0	846.117	0	12.5	4	3.9	4	-1E+10	1	-1E+10	1	-1E+10	1	-1E+10	1	-1E+10	1	-1E+10	1
4901784	33	C	05/30/2016	10:44	-132.477	45.007	0	859.30	0	3.6330	0	34.2850	0	27.260	0	850.562	0	12.5	4	3.9	4	-1E+10	1	-1E+10	1	-1E+10	1	-1E+10	1	-1E+10	1	-1E+10	1
4901784	33	C	05/30/2016	10:44	-132.477	45.007	0	864.80	0	3.6360	0	34.2930	0	27.267	0	855.995	0	11.9	4	3.7	4	-1E+10	1	-1E+10	1	-1E+10	1	-1E+10	1	-1E+10	1	-1E+10	1
4901784	33	C	05/30/2016	10:44	-132.477	45.007	0	870.30	0	3.6910	0	34.3050	0	27.271	0	861.428	0	11.3	4	3.5	4	-1E+10	1	-1E+10	1	-1E+10	1	-1E+10	1	-1E+10	1	-1E+10	1
4901784	33	C	05/30/2016	10:44	-132.477	45.007	0	874.90	0	3.7040	0	34.3110	0	27.274	0	865.972	0	11.2	4	3.5	4	-1E+10	1	-1E+10	1	-1E+10	1	-1E+10	1	-1E+10	1	-1E+10	1
4901784	33	C	05/30/2016	10:44	-132.477	45.007	0	879.60	0	3.6970	0	34.3120	0	27.276	0	870.614	0	11.2	4	3.5	4	-1E+10	1	-1E+10	1	-1E+10	1	-1E+10	1	-1E+10	1	-1E+10	1
4901784	33	C	05/30/2016	10:44	-132.477	45.007	0	885.10	0	3.6830	0	34.3160	0	27.281	0	876.046	0	11.1	4	3.5	4	-1E+10	1	-1E+10	1	-1E+10	1	-1E+10	1	-1E+10	1	-1E+10	1
4901784	33	C	05/30/2016	10:44	-132.477	45.007	0	889.80	0	3.6820	0	34.3210	0	27.285	0	880.688	0	11.2	4	3.5	4	-1E+10	1	-1E+10	1	-1E+10	1	-1E+10	1	-1E+10	1	-1E+10	1
4901784	33	C	05/30/2016	10:44	-132.477	45.007	0	894.40	0	3.6280	0	34.3180	0	27.288	0	885.231	0	11.5	4	3.6	4	-1E+10	1	-1E+10	1	-1E+10	1	-1E+10	1	-1E+10	1	-1E+10	1
4901784	33	C	05/30/2016	10:44	-132.477	45.007	0	899.70	0	3.6090	0	34.3180	0	27.289	0	890.466	0	11.5	4	3.6	4	-1E+10	1	-1E+10	1	-1E+10	1	-1E+10	1	-1E+10	1	-1E+10	1
4901784	33	C	05/30/2016	10:44	-132.477	45.007	0	904.50	0	3.6220	0	34.3250	0	27.294	0	895.206	0	11.5	4	3.6	4	-1E+10	1	-1E+10	1	-1E+10	1	-1E+10	1	-1E+10	1	-1E+10	1
4901784	33	C	05/30/2016	10:44	-132.477	45.007	0	909.30	0	3.6180	0	34.3250	0	27.294	0	899.946	0	11.8	4	3.7	4	-1E+10	1	-1E+10	1	-1E+10	1	-1E+10	1	-1E+10	1	-1E+10	1
4901784	33	C	05/30/2016	10:44	-132.477	45.007	0	914.90	0	3.5170	0	34.3180	0	27.298	0	905.477	0	12.3	4	3.8	4	-1E+10	1	-1E+10	1	-1E+10	1	-1E+10	1	-1E+10	1	-1E+10	1
4901784	33	C	05/30/2016	10:44	-132.477	45.007	0	920.70	0	3.4730	0	34.3150	0	27.300	0	911.204	0	12.3	4	3.8	4	-1E+10	1	-1E+10	1	-1E+10	1	-1E+10	1	-1E+10	1	-1E+10	1
4901784	33	C	05/30/2016	10:44	-132.477	45.007	0	925.70	0	3.4700	0	34.3210	0	27.305	0	916.142	0	12.1	4	3.8	4	-1E+10	1	-1E+10	1	-1E+10	1	-1E+10	1	-1E+10	1	-1E+10	1
4901784	33	C	05/30/2016	10:44	-132.477	45.007	0	930.60	0	3.5220	0	34.3320	0	27.309	0	920.980	0	11.9	4	3.7	4	-1E+10	1	-1E+10	1	-1E+10	1	-1E+10	1	-1E+10	1	-1E+10	1
4901784	33	C	05/30/2016	10:44	-132.477	45.007	0	935.60	0	3.5210	0	34.3330	0	27.310	0	925.918	0	12.1	4	3.8	4	-1E+10	1	-1E+10	1	-1E+10	1	-1E+10	1	-1E+10	1	-1E+10	1
4901784	33	C	05/30/2016	10:44	-132.477	45.007	0	940.60	0	3.4470	0	34.3260	0	27.312	0	930.855	0	12.5	4	3.9	4	-1E+10	1	-1E+10	1	-1E+10	1	-1E+10	1	-1E+10	1	-1E+10	1
4901784	33	C	05/30/2016	10:44	-132.477	45.007	0	945.70	0	3.3860	0	34.3210	0	27.313	0	935.891	0	12.4	4	3.9	4	-1E+10	1	-1E+10	1	-1E+10	1	-1E+10	1	-1E+10	1	-1E+10	1
4901784	33	C	05/30/2016	10:44	-132.477	45.007	0	949.90	0	3.3810	0	34.3250	0	27.317	0	940.038	0	12.0	4	3.7	4	-1E+10	1	-1E+10	1	-1E+10	1	-1E+10	1	-1E+10	1	-1E+10	1
4901784	33	C	05/30/2016	10:44	-132.477	45.007	0	954.30	0	3.4550	0	34.3430	0	27.325	0	944.382	0	11.4	4	3.6	4	-1E+10	1	-1E+10	1	-1E+10	1	-1E+10	1	-1E+10	1	-1E+10	1
4901784	33	C	05/30/2016	10:44	-132.477	45.007	0	959.40	0	3.5170	0	34.3550	0	27.328	0	949.418	0	11.3	4	3.5	4	-1E+10	1	-1E+10	1	-1E+10	1	-1E+10	1	-1E+10	1	-1E+10	1
4901784	33	C	05/30/2016	10:44	-132.477	45.007	0	964.60	0	3.5080	0	34.3560	0	27.330	0	954.552	0	11.3	4	3.5	4	-1E+10	1	-1E+10	1	-1E+10	1	-1E+10	1	-1E+10	1	-1E+10	1
4901784	33	C	05/30/2016	10:44	-132.477	45.007	0	969.80	0	3.4850	0	34.3570	0	27.333	0	959.685	0	11.4	4	3.6	4	-1E+10	1	-1E+10	1	-1E+10	1	-1E+10	1	-1E+10	1	-1E+10	1
4901784	33	C	05/30/2016	10:44	-132.477	45.007	0	975.10	0	3.4760	0	34.3570	0	27.334	0	964.918	0	11.5	4	3.6	4	-1E+10	1	-1E+10	1	-1E+10	1	-1E+10	1	-1E+10	1	-1E+10	1
4901784	33	C	05/30/2016	10:44	-132.477	45.007	0	980.30	0	3.4520	0	34.3570	0	27.336	0	970.052	0	11.6	4	3.6	4	-1E+10	1	-1E+10	1	-1E+10	1	-1E+10	1	-1E+10	1	-1E+10	1
4901784	33	C	05/30/2016	10:44	-132.477	45.007	0	985.50	0	3.4390	0	34.3590	0	27.339	0	975.185	0	11.6	4	3.6	4	-1E+10	1	-1E+10	1	-1E+10	1	-1E+10	1	-1E+10	1	-1E+10	1
4901784	33	C	05/30/2016	10:44	-132.477	45.007	0	990.00	0	3.4300	0	34.3600	0	27.341	0	979.628	0	11.7	4	3.6	4	-1E+10	1	-1E+10	1	-1E+10	1	-1E+10	1	-1E+10	1	-1E+10	1
4901784	33	C	05/30/2016	10:44	-132.477	45.007	0	994.50	0	3.4130	0	34.3630	0	27.345	0	984.070	0	11.7	4	3.6	4	-1E+10	1	-1E+10	1	-1E+10	1	-1E+10	1	-1E+10	1	-1E+10	1
4901784	33	C	05/30/2016	10:44	-132.477	45.007	0	999.90	0	3.3990	0	34.3660	0	27.349	0	989.401	0	11.8	4	3.7	4	-1E+10	1	-1E+10	1	-1E+10	1	-1E+10	1	-1E+10	1	-1E+10	1
4901784	33	C	05/30/2016	10:44	-132.477	45.007	0	1005.40	0	3.4020	0	34.3710	0	27.352	0	994.830	0	11.8	4	3.7	4	-1E+10	1	-1E+10	1	-1E+10	1	-1E+10	1	-1E+10	1	-1E+10	1
4901784	33	C	05/30/2016	10:44	-132.477	45.007	0	1009.90	0	3.3940	0	34.3730	0	27.355	0	999.272	0	11.8	4	3.7	4	-1E+10	1	-1E+10	1	-1E+10	1	-1E+10	1	-1E+10	1	-1E+10	1
4901784	33	C	05/30/2016	10:44	-132.477	45.007	0	1014.50	0	3.3720	0	34.3720	0	27.356	0	1003.812	0	11.9	4	3.7	4	-1E+10	1	-1E+10	1	-1E+10	1	-1E+10	1	-1E+10	1	-1E+10	1
4901784	33	C	05/30/2016	10:44	-132.477	45.007	0	1020.10	0	3.3650	0	34.3740	0	27.358	0	1009.340	0	12.0	4	3.7	4	-1E+10	1	-1E+10	1	-1E+10	1	-1E+10	1	-1E+10	1	-1E+10	1
4901784	33	C	05/30/2016	10:44	-132.477	45.007	0	1024.70	0	3.3470	0	34.3770	0	27.362	0	1013.880	0	12.0	4	3.7	4	-1E+10	1	-1E+10	1	-1E+10	1	-1E+10	1	-1E+10	1	-1E+10	1
4901784	33	C	05/30/2016	10:44	-132.477	45.007	0	1029.40	0	3.3400	0	34.3790	0	27.365	0	1018.519	0	12.1	4	3.8	4	-1E+10	1	-1E+10	1	-1E+10	1	-1E+10	1	-1E+10	1	-1E+10	1
4901784	33	C	05/30/2016	10:44	-132.477	45.007	0	1034.90	0	3.3310	0	34.3800	0	27.366	0	1023.948	0	12.2	4	3.8	4	-1E+10	1	-1E+10	1	-1E+10	1	-1E+10	1	-1E+10	1	-1E+10	1
4901784	33	C	05/30/2016	10:44	-132.477	45.007	0	1040.40	0	3.3180	0	34.3830	0	27.370	0	1029.376	0	12.3	4	3.8	4	-1E+10	1	-1E+10	1	-1E+10	1	-1E+10	1	-1E+10	1	-1E+10	1
4901784	33	C	05/30/2016	10:44	-132.477	45.007	0	1045.00	0	3.3200	0	34.3860	0	27.372	0	1033.916	0	12.3	4	3.8	4	-1E+10	1	-1E+10	1	-1E+10	1	-1E+10	1	-1E+10	1	-1E+10	1
4901784	33	C	05/30/2016	10:44	-132.477	45.007	0	1050.00	0	3.3080	0	34.3880	0	27.375	0	1038.850	0	12.4	4	3.9	4	-1E+10	1	-1E+10	1	-1E+10	1	-1E+10	1	-1E+10	1	-1E+10	1
4901784	33	C	05/30/2016	10:44	-132.477	45.007	0	1055.10	0	3.3100	0	34.3920	0	27.378	0	1043.884	0	12.5	4	3.9	4	-1E+10	1	-1E+10	1	-1E+10	1	-1E+10	1	-1E+10	1	-1E+10	1
4901784	33	C	05/30/2016	10:44	-132.477	45.007	0	1059.90	0	3.2920	0	34.3930	0	27.381	0	1048.621	0	12.5	4	3.9	4	-1E+10	1	-1E+10	1	-1E+10	1	-1E+10	1	-1E+10	1	-1E+10	1
4901784	33	C	05/30/2016	10:44	-132.477	45.007	0	1064.70	0	3.2730	0	34.3930	0	27.382	0	1053.357	0	12.6	4	3.9	4	-1E+10	1	-1E+10	1	-1E+10	1	-1E+10	1	-1E+10	1	-1E+10	1
4901784	33	C	05/30/2016	10:44	-132.477	45.007	0	1069.60	0	3.2650	0	34.3970	0	27.386	0	1058.193	0	12.7	4	4.0	4	-1E+10	1	-1E+10	1	-1E+10	1	-1E+10	1	-1E+10	1	-1E+10	1
4901784	33	C	05/30/2016	10:44	-132.477	45.007	0	1074.40	0	3.2560	0	34.3980	0	27.388	0	1062.930	0	12.8	4	4.0	4	-1E+10	1	-1E+10	1	-1E+10	1	-1E+10	1	-1E+10	1	-1E+10	1
4901784	33	C	05/30/2016	10:44	-132.477	45.007	0	1079.40	0	3.2410	0	34.4000	0	27.391	0	1067.863	0	12.9	4	4.0	4	-1E+10	1	-1E+10	1	-1E+10	1	-1E+10	1	-1E+10	1	-1E+10	1
4901784	33	C	05/30/2016	10:44	-132.477	45.007	0	1084.40	0	3.2340	0	34.4020	0	27.393	0	1072.797	0	13.0	4	4.0	4	-1E+10	1	-1E+10	1	-1E+10	1	-1E+10	1	-1E+10	1	-1E+10	1
4901784	33	C	05/30/2016	10:44	-132.477	45.007	0	1089.30	0	3.2280	0	34.4040	0	27.395	0	1077.632	0	13.1	4	4.1	4	-1E+10	1	-1E+10	1	-1E+10	1	-1E+10	1	-1E+10	1	-1E+10	1
4901784	33	C	05/30/2016	10:44	-132.477	45.007	0	1094.30	0	3.2170	0	34.4050	0	27.397	0	1082.566	0	13.2	4	4.1	4	-1E+10	1	-1E+10	1	-1E+10	1	-1E+10	1	-1E+10	1	-1E+10	1
4901784	33	C	05/30/2016	10:44	-132.477	45.007	0	1099.30	0	3.2110	0	34.4060	0	27.399	0	1087.499	0	13.3	4	4.1	4	-1E+10	1	-1E+10	1	-1E+10	1	-1E+10	1	-1E+10	1	-1E+10	1
4901784	33	C	05/30/2016	10:44	-132.477	45.007	0	1104.30	0	3.2010	0	34.4070	0	27.400	0	1092.433	0	13.3	4	4.1	4	-1E+10	1	-1E+10	1	-1E+10	1	-1E+10	1	-1E+10	1	-1E+10	1
4901784	33	C	05/30/2016	10:44	-132.477	45.007	0	1109.50	0	3.1890	0	34.4080	0	27.402	0	1097.563	0	13.5	4	4.2	4	-1E+10	1	-1E+10	1	-1E+10	1	-1E+10	1	-1E+10	1	-1E+10	1
4901784	33	C	05/30/2016	10:44	-132.477	45.007	0	1114.60	0	3.1750	0	34.4090	0	27.404	0	1102.595	0	13.6	4	4.2	4	-1E+10	1	-1E+10	1	-1E+10	1	-1E+10	1	-1E+10	1	-1E+10	1
4901784	33	C	05/30/2016	10:44	-132.477	45.007	0	1120.20	0	3.1660	0	34.4120	0	27.408	0	1108.120	0	13.7	4	4.3	4	-1E+10	1	-1E+10	1	-1E+10	1	-1E+10	1	-1E+10	1	-1E+10	1
4901784	33	C	05/30/2016	10:44	-132.477	45.007	0	1125.10	0	3.1620	0	34.4140	0	27.410	0	1112.954	0	13.8	4	4.3	4	-1E+10	1	-1E+10	1	-1E+10	1	-1E+10	1	-1E+10	1	-1E+10	1
4901784	33	C	05/30/2016	10:44	-132.477	45.007	0	1130.40	0	3.1490	0	34.4150	0	27.412	0	1118.183	0	13.9	4	4.3	4	-1E+10	1	-1E+10	1	-1E+10	1	-1E+10	1	-1E+10	1	-1E+10	1
4901784	33	C	05/30/2016	10:44	-132.477	45.007	0	1135.20	0	3.1390	0	34.4170	0	27.414	0	1122.918	0	14.0	4	4.4	4	-1E+10	1	-1E+10	1	-1E+10	1	-1E+10	1	-1E+10	1	-1E+10	1
4901784	33	C	05/30/2016	10:44	-132.477	45.007	0	1140.00	0	3.1470	0	34.4180	0	27.414	0	1127.653	0	14.3	4	4.4	4	-1E+10	1	-1E+10	1	-1E+10	1	-1E+10	1	-1E+10	1	-1E+10	1
4901784	33	C	05/30/2016	10:44	-132.477	45.007	0	1145.00	0	3.1660	0	34.4230	0	27.417	0	1132.585	0	14.4	4	4.5	4	-1E+10	1	-1E+10	1	-1E+10	1	-1E+10	1	-1E+10	1	-1E+10	1
4901784	33	C	05/30/2016	10:44	-132.477	45.007	0	1150.00	0	3.1620	0	34.4260	0	27.419	0	1137.518	0	14.5	4	4.5	4	-1E+10	1	-1E+10	1	-1E+10	1	-1E+10	1	-1E+10	1	-1E+10	1
4901784	33	C	05/30/2016	10:44	-132.477	45.007	0	1154.90	0	3.1340	0	34.4250	0	27.421	0	1142.351	0	14.6	4	4.5	4	-1E+10	1	-1E+10	1	-1E+10	1	-1E+10	1	-1E+10	1	-1E+10	1
4901784	33	C	05/30/2016	10:44	-132.477	45.007	0	1159.80	0	3.1260	0	34.4270	0	27.424	0	1147.185	0	14.6	4	4.5	4	-1E+10	1	-1E+10	1	-1E+10	1	-1E+10	1	-1E+10	1	-1E+10	1
4901784	33	C	05/30/2016	10:44	-132.477	45.007	0	1164.80	0	3.1140	0	34.4260	0	27.424	0	1152.117	0	14.6	4	4.5	4	-1E+10	1	-1E+10	1	-1E+10	1	-1E+10	1	-1E+10	1	-1E+10	1
4901784	33	C	05/30/2016	10:44	-132.477	45.007	0	1169.90	0	3.0900	0	34.4250	0	27.425	0	1157.147	0	14.6	4	4.5	4	-1E+10	1	-1E+10	1	-1E+10	1	-1E+10	1	-1E+10	1	-1E+10	1
4901784	33	C	05/30/2016	10:44	-132.477	45.007	0	1174.90	0	3.0720	0	34.4260	0	27.428	0	1162.079	0	14.7	4	4.6	4	-1E+10	1	-1E+10	1	-1E+10	1	-1E+10	1	-1E+10	1	-1E+10	1
4901784	33	C	05/30/2016	10:44	-132.477	45.007	0	1179.90	0	3.0650	0	34.4270	0	27.429	0	1167.010	0	14.9	4	4.6	4	-1E+10	1	-1E+10	1	-1E+10	1	-1E+10	1	-1E+10	1	-1E+10	1
4901784	33	C	05/30/2016	10:44	-132.477	45.007	0	1185.00	0	3.0650	0	34.4310	0	27.433	0	1172.040	0	15.2	4	4.7	4	-1E+10	1	-1E+10	1	-1E+10	1	-1E+10	1	-1E+10	1	-1E+10	1
4901784	33	C	05/30/2016	10:44	-132.477	45.007	0	1190.00	0	3.0650	0	34.4340	0	27.435	0	1176.972	0	15.3	4	4.7	4	-1E+10	1	-1E+10	1	-1E+10	1	-1E+10	1	-1E+10	1	-1E+10	1
4901784	33	C	05/30/2016	10:44	-132.477	45.007	0	1195.20	0	3.0610	0	34.4350	0	27.436	0	1182.100	0	15.3	4	4.7	4	-1E+10	1	-1E+10	1	-1E+10	1	-1E+10	1	-1E+10	1	-1E+10	1
4901784	33	C	05/30/2016	10:44	-132.477	45.007	0	1200.30	0	3.0290	0	34.4330	0	27.437	0	1187.130	0	15.3	4	4.7	4	-1E+10	1	-1E+10	1	-1E+10	1	-1E+10	1	-1E+10	1	-1E+10	1
4901784	33	C	05/30/2016	10:44	-132.477	45.007	0	1205.50	0	3.0260	0	34.4340	0	27.439	0	1192.258	0	15.5	4	4.8	4	-1E+10	1	-1E+10	1	-1E+10	1	-1E+10	1	-1E+10	1	-1E+10	1
4901784	33	C	05/30/2016	10:44	-132.477	45.007	0	1210.70	0	3.0170	0	34.4360	0	27.441	0	1197.386	0	16.0	4	4.9	4	-1E+10	1	-1E+10	1	-1E+10	1	-1E+10	1	-1E+10	1	-1E+10	1
4901784	33	C	05/30/2016	10:44	-132.477	45.007	0	1215.10	0	3.0330	0	34.4400	0	27.443	0	1201.725	0	16.4	4	5.1	4	-1E+10	1	-1E+10	1	-1E+10	1	-1E+10	1	-1E+10	1	-1E+10	1
4901784	33	C	05/30/2016	10:44	-132.477	45.007	0	1219.40	0	3.0350	0	34.4450	0	27.447	0	1205.965	0	16.6	4	5.1	4	-1E+10	1	-1E+10	1	-1E+10	1	-1E+10	1	-1E+10	1	-1E+10	1
4901784	33	C	05/30/2016	10:44	-132.477	45.007	0	1224.80	0	3.0250	0	34.4470	0	27.449	0	1211.290	0	16.8	4	5.2	4	-1E+10	1	-1E+10	1	-1E+10	1	-1E+10	1	-1E+10	1	-1E+10	1
4901784	33	C	05/30/2016	10:44	-132.477	45.007	0	1230.00	0	3.0140	0	34.4480	0	27.451	0	1216.418	0	16.9	4	5.2	4	-1E+10	1	-1E+10	1	-1E+10	1	-1E+10	1	-1E+10	1	-1E+10	1
4901784	33	C	05/30/2016	10:44	-132.477	45.007	0	1235.20	0	3.0060	0	34.4480	0	27.452	0	1221.545	0	16.9	4	5.2	4	-1E+10	1	-1E+10	1	-1E+10	1	-1E+10	1	-1E+10	1	-1E+10	1
4901784	33	C	05/30/2016	10:44	-132.477	45.007	0	1240.30	0	2.9890	0	34.4490	0	27.454	0	1226.574	0	17.0	4	5.3	4	-1E+10	1	-1E+10	1	-1E+10	1	-1E+10	1	-1E+10	1	-1E+10	1
4901784	33	C	05/30/2016	10:44	-132.477	45.007	0	1245.40	0	2.9740	0	34.4490	0	27.455	0	1231.603	0	17.0	4	5.3	4	-1E+10	1	-1E+10	1	-1E+10	1	-1E+10	1	-1E+10	1	-1E+10	1
4901784	33	C	05/30/2016	10:44	-132.477	45.007	0	1250.30	0	2.9570	0	34.4490	0	27.457	0	1236.434	0	17.1	4	5.3	4	-1E+10	1	-1E+10	1	-1E+10	1	-1E+10	1	-1E+10	1	-1E+10	1
4901784	33	C	05/30/2016	10:44	-132.477	45.007	0	1255.30	0	2.9530	0	34.4510	0	27.459	0	1241.364	0	17.2	4	5.3	4	-1E+10	1	-1E+10	1	-1E+10	1	-1E+10	1	-1E+10	1	-1E+10	1
4901784	33	C	05/30/2016	10:44	-132.477	45.007	0	1260.20	0	2.9400	0	34.4510	0	27.460	0	1246.195	0	17.2	4	5.3	4	-1E+10	1	-1E+10	1	-1E+10	1	-1E+10	1	-1E+10	1	-1E+10	1
4901784	33	C	05/30/2016	10:44	-132.477	45.007	0	1265.20	0	2.9190	0	34.4510	0	27.462	0	1251.125	0	17.1	4	5.3	4	-1E+10	1	-1E+10	1	-1E+10	1	-1E+10	1	-1E+10	1	-1E+10	1
4901784	33	C	05/30/2016	10:44	-132.477	45.007	0	1270.20	0	2.9040	0	34.4520	0	27.464	0	1256.054	0	17.3	4	5.3	4	-1E+10	1	-1E+10	1	-1E+10	1	-1E+10	1	-1E+10	1	-1E+10	1
4901784	33	C	05/30/2016	10:44	-132.477	45.007	0	1275.20	0	2.8970	0	34.4530	0	27.466	0	1260.984	0	17.5	4	5.4	4	-1E+10	1	-1E+10	1	-1E+10	1	-1E+10	1	-1E+10	1	-1E+10	1
4901784	33	C	05/30/2016	10:44	-132.477	45.007	0	1280.30	0	2.8910	0	34.4540	0	27.467	0	1266.011	0	17.8	4	5.5	4	-1E+10	1	-1E+10	1	-1E+10	1	-1E+10	1	-1E+10	1	-1E+10	1
4901784	33	C	05/30/2016	10:44	-132.477	45.007	0	1285.30	0	2.8900	0	34.4570	0	27.470	0	1270.941	0	18.2	4	5.6	4	-1E+10	1	-1E+10	1	-1E+10	1	-1E+10	1	-1E+10	1	-1E+10	1
4901784	33	C	05/30/2016	10:44	-132.477	45.007	0	1290.40	0	2.8840	0	34.4590	0	27.472	0	1275.968	0	18.4	4	5.7	4	-1E+10	1	-1E+10	1	-1E+10	1	-1E+10	1	-1E+10	1	-1E+10	1
4901784	33	C	05/30/2016	10:44	-132.477	45.007	0	1295.50	0	2.8730	0	34.4600	0	27.474	0	1280.996	0	18.8	4	5.8	4	-1E+10	1	-1E+10	1	-1E+10	1	-1E+10	1	-1E+10	1	-1E+10	1
4901784	33	C	05/30/2016	10:44	-132.477	45.007	0	1300.60	0	2.8820	0	34.4640	0	27.476	0	1286.023	0	19.4	4	6.0	4	-1E+10	1	-1E+10	1	-1E+10	1	-1E+10	1	-1E+10	1	-1E+10	1
4901784	33	C	05/30/2016	10:44	-132.477	45.007	0	1304.90	0	2.8820	0	34.4660	0	27.478	0	1290.262	0	19.5	4	6.0	4	-1E+10	1	-1E+10	1	-1E+10	1	-1E+10	1	-1E+10	1	-1E+10	1
4901784	33	C	05/30/2016	10:44	-132.477	45.007	0	1309.30	0	2.8570	0	34.4660	0	27.480	0	1294.599	0	19.5	4	6.0	4	-1E+10	1	-1E+10	1	-1E+10	1	-1E+10	1	-1E+10	1	-1E+10	1
4901784	33	C	05/30/2016	10:44	-132.477	45.007	0	1314.40	0	2.8560	0	34.4670	0	27.481	0	1299.626	0	19.8	4	6.1	4	-1E+10	1	-1E+10	1	-1E+10	1	-1E+10	1	-1E+10	1	-1E+10	1
4901784	33	C	05/30/2016	10:44	-132.477	45.007	0	1319.60	0	2.8490	0	34.4690	0	27.483	0	1304.751	0	20.1	4	6.2	4	-1E+10	1	-1E+10	1	-1E+10	1	-1E+10	1	-1E+10	1	-1E+10	1
4901784	33	C	05/30/2016	10:44	-132.477	45.007	0	1324.80	0	2.8430	0	34.4710	0	27.485	0	1309.876	0	20.3	4	6.2	4	-1E+10	1	-1E+10	1	-1E+10	1	-1E+10	1	-1E+10	1	-1E+10	1
4901784	33	C	05/30/2016	10:44	-132.477	45.007	0	1330.00	0	2.8370	0	34.4710	0	27.486	0	1315.002	0	20.4	4	6.3	4	-1E+10	1	-1E+10	1	-1E+10	1	-1E+10	1	-1E+10	1	-1E+10	1
4901784	33	C	05/30/2016	10:44	-132.477	45.007	0	1335.30	0	2.8220	0	34.4730	0	27.489	0	1320.225	0	20.4	4	6.3	4	-1E+10	1	-1E+10	1	-1E+10	1	-1E+10	1	-1E+10	1	-1E+10	1
4901784	33	C	05/30/2016	10:44	-132.477	45.007	0	1340.50	0	2.7970	0	34.4720	0	27.490	0	1325.350	0	20.3	4	6.2	4	-1E+10	1	-1E+10	1	-1E+10	1	-1E+10	1	-1E+10	1	-1E+10	1
4901784	33	C	05/30/2016	10:44	-132.477	45.007	0	1345.60	0	2.7810	0	34.4720	0	27.492	0	1330.376	0	20.4	4	6.3	4	-1E+10	1	-1E+10	1	-1E+10	1	-1E+10	1	-1E+10	1	-1E+10	1
4901784	33	C	05/30/2016	10:44	-132.477	45.007	0	1350.80	0	2.7770	0	34.4730	0	27.493	0	1335.501	0	20.5	4	6.3	4	-1E+10	1	-1E+10	1	-1E+10	1	-1E+10	1	-1E+10	1	-1E+10	1
4901784	33	C	05/30/2016	10:44	-132.477	45.007	0	1355.00	0	2.7670	0	34.4740	0	27.494	0	1339.640	0	20.6	4	6.3	4	-1E+10	1	-1E+10	1	-1E+10	1	-1E+10	1	-1E+10	1	-1E+10	1
4901784	33	C	05/30/2016	10:44	-132.477	45.007	0	1359.40	0	2.7640	0	34.4740	0	27.495	0	1343.976	0	20.7	4	6.3	4	-1E+10	1	-1E+10	1	-1E+10	1	-1E+10	1	-1E+10	1	-1E+10	1
4901784	33	C	05/30/2016	10:44	-132.477	45.007	0	1364.70	0	2.7500	0	34.4740	0	27.496	0	1349.199	0	20.8	4	6.4	4	-1E+10	1	-1E+10	1	-1E+10	1	-1E+10	1	-1E+10	1	-1E+10	1
4901784	33	C	05/30/2016	10:44	-132.477	45.007	0	1370.00	0	2.7370	0	34.4750	0	27.498	0	1354.422	0	21.0	4	6.5	4	-1E+10	1	-1E+10	1	-1E+10	1	-1E+10	1	-1E+10	1	-1E+10	1
4901784	33	C	05/30/2016	10:44	-132.477	45.007	0	1375.30	0	2.7250	0	34.4770	0	27.501	0	1359.645	0	21.2	4	6.5	4	-1E+10	1	-1E+10	1	-1E+10	1	-1E+10	1	-1E+10	1	-1E+10	1
4901784	33	C	05/30/2016	10:44	-132.477	45.007	0	1380.50	0	2.7080	0	34.4760	0	27.501	0	1364.769	0	21.4	4	6.5	4	-1E+10	1	-1E+10	1	-1E+10	1	-1E+10	1	-1E+10	1	-1E+10	1
4901784	33	C	05/30/2016	10:44	-132.477	45.007	0	1384.90	0	2.6840	0	34.4770	0	27.504	0	1369.104	0	21.5	4	6.6	4	-1E+10	1	-1E+10	1	-1E+10	1	-1E+10	1	-1E+10	1	-1E+10	1
4901784	33	C	05/30/2016	10:44	-132.477	45.007	0	1389.40	0	2.6630	0	34.4760	0	27.505	0	1373.538	0	21.7	4	6.6	4	-1E+10	1	-1E+10	1	-1E+10	1	-1E+10	1	-1E+10	1	-1E+10	1
4901784	33	C	05/30/2016	10:44	-132.477	45.007	0	1394.70	0	2.6400	0	34.4770	0	27.508	0	1378.761	0	22.0	4	6.7	4	-1E+10	1	-1E+10	1	-1E+10	1	-1E+10	1	-1E+10	1	-1E+10	1
4901784	33	C	05/30/2016	10:44	-132.477	45.007	0	1400.10	0	2.6260	0	34.4790	0	27.511	0	1384.081	0	22.2	4	6.8	4	-1E+10	1	-1E+10	1	-1E+10	1	-1E+10	1	-1E+10	1	-1E+10	1
4901784	33	C	05/30/2016	10:44	-132.477	45.007	0	1405.50	0	2.6220	0	34.4790	0	27.511	0	1389.402	0	22.5	4	6.9	4	-1E+10	1	-1E+10	1	-1E+10	1	-1E+10	1	-1E+10	1	-1E+10	1
4901784	33	C	05/30/2016	10:44	-132.477	45.007	0	1410.00	0	2.6180	0	34.4820	0	27.514	0	1393.835	0	22.8	4	7.0	4	-1E+10	1	-1E+10	1	-1E+10	1	-1E+10	1	-1E+10	1	-1E+10	1
4901784	33	C	05/30/2016	10:44	-132.477	45.007	0	1414.60	0	2.6250	0	34.4840	0	27.515	0	1398.367	0	23.0	4	7.0	4	-1E+10	1	-1E+10	1	-1E+10	1	-1E+10	1	-1E+10	1	-1E+10	1
4901784	33	C	05/30/2016	10:44	-132.477	45.007	0	1420.20	0	2.6300	0	34.4850	0	27.515	0	1403.884	0	23.2	4	7.1	4	-1E+10	1	-1E+10	1	-1E+10	1	-1E+10	1	-1E+10	1	-1E+10	1
4901784	33	C	05/30/2016	10:44	-132.477	45.007	0	1424.80	0	2.6230	0	34.4860	0	27.517	0	1408.416	0	23.3	4	7.1	4	-1E+10	1	-1E+10	1	-1E+10	1	-1E+10	1	-1E+10	1	-1E+10	1
4901784	33	C	05/30/2016	10:44	-132.477	45.007	0	1430.10	0	2.5990	0	34.4860	0	27.519	0	1413.637	0	23.3	4	7.1	4	-1E+10	1	-1E+10	1	-1E+10	1	-1E+10	1	-1E+10	1	-1E+10	1
4901784	33	C	05/30/2016	10:44	-132.477	45.007	0	1435.20	0	2.5810	0	34.4850	0	27.520	0	1418.662	0	23.3	4	7.1	4	-1E+10	1	-1E+10	1	-1E+10	1	-1E+10	1	-1E+10	1	-1E+10	1
4901784	33	C	05/30/2016	10:44	-132.477	45.007	0	1440.10	0	2.5610	0	34.4850	0	27.521	0	1423.489	0	23.4	4	7.1	4	-1E+10	1	-1E+10	1	-1E+10	1	-1E+10	1	-1E+10	1	-1E+10	1
4901784	33	C	05/30/2016	10:44	-132.477	45.007	0	1445.10	0	2.5520	0	34.4860	0	27.523	0	1428.414	0	23.6	4	7.2	4	-1E+10	1	-1E+10	1	-1E+10	1	-1E+10	1	-1E+10	1	-1E+10	1
4901784	33	C	05/30/2016	10:44	-132.477	45.007	0	1450.00	0	2.5490	0	34.4860	0	27.523	0	1433.241	0	23.8	4	7.3	4	-1E+10	1	-1E+10	1	-1E+10	1	-1E+10	1	-1E+10	1	-1E+10	1
4901784	33	C	05/30/2016	10:44	-132.477	45.007	0	1455.00	0	2.5430	0	34.4870	0	27.524	0	1438.166	0	24.4	4	7.5	4	-1E+10	1	-1E+10	1	-1E+10	1	-1E+10	1	-1E+10	1	-1E+10	1
4901784	33	C	05/30/2016	10:44	-132.477	45.007	0	1460.00	0	2.5510	0	34.4920	0	27.528	0	1443.091	0	25.4	4	7.8	4	-1E+10	1	-1E+10	1	-1E+10	1	-1E+10	1	-1E+10	1	-1E+10	1
4901784	33	C	05/30/2016	10:44	-132.477	45.007	0	1465.00	0	2.5570	0	34.4950	0	27.530	0	1448.016	0	25.8	4	7.9	4	-1E+10	1	-1E+10	1	-1E+10	1	-1E+10	1	-1E+10	1	-1E+10	1
4901784	33	C	05/30/2016	10:44	-132.477	45.007	0	1470.00	0	2.5460	0	34.4960	0	27.532	0	1452.941	0	26.1	4	8.0	4	-1E+10	1	-1E+10	1	-1E+10	1	-1E+10	1	-1E+10	1	-1E+10	1
4901784	33	C	05/30/2016	10:44	-132.477	45.007	0	1475.00	0	2.5270	0	34.4960	0	27.533	0	1457.866	0	26.8	4	8.2	4	-1E+10	1	-1E+10	1	-1E+10	1	-1E+10	1	-1E+10	1	-1E+10	1
4901784	33	C	05/30/2016	10:44	-132.477	45.007	0	1480.00	0	2.5480	0	34.5020	0	27.536	0	1462.790	0	27.6	4	8.4	4	-1E+10	1	-1E+10	1	-1E+10	1	-1E+10	1	-1E+10	1	-1E+10	1
4901784	33	C	05/30/2016	10:44	-132.477	45.007	0	1485.20	0	2.5470	0	34.5040	0	27.538	0	1467.912	0	27.9	4	8.5	4	-1E+10	1	-1E+10	1	-1E+10	1	-1E+10	1	-1E+10	1	-1E+10	1
4901784	33	C	05/30/2016	10:44	-132.477	45.007	0	1490.30	0	2.5430	0	34.5040	0	27.538	0	1472.935	0	28.1	4	8.6	4	-1E+10	1	-1E+10	1	-1E+10	1	-1E+10	1	-1E+10	1	-1E+10	1
4901784	33	C	05/30/2016	10:44	-132.477	45.007	0	1495.50	0	2.5310	0	34.5050	0	27.540	0	1478.056	0	28.2	4	8.6	4	-1E+10	1	-1E+10	1	-1E+10	1	-1E+10	1	-1E+10	1	-1E+10	1
4901784	33	C	05/30/2016	10:44	-132.477	45.007	0	1500.70	0	2.5130	0	34.5040	0	27.541	0	1483.177	0	28.2	4	8.6	4	-1E+10	1	-1E+10	1	-1E+10	1	-1E+10	1	-1E+10	1	-1E+10	1
4901784	33	C	05/30/2016	10:44	-132.477	45.007	0	1505.10	0	2.4960	0	34.5050	0	27.543	0	1487.510	0	28.3	4	8.6	4	-1E+10	1	-1E+10	1	-1E+10	1	-1E+10	1	-1E+10	1	-1E+10	1
4901784	33	C	05/30/2016	10:44	-132.477	45.007	0	1509.50	0	2.4790	0	34.5040	0	27.544	0	1491.843	0	28.5	4	8.7	4	-1E+10	1	-1E+10	1	-1E+10	1	-1E+10	1	-1E+10	1	-1E+10	1
4901784	33	C	05/30/2016	10:44	-132.477	45.007	0	1514.70	0	2.4760	0	34.5060	0	27.546	0	1496.964	0	28.9	4	8.8	4	-1E+10	1	-1E+10	1	-1E+10	1	-1E+10	1	-1E+10	1	-1E+10	1
4901784	33	C	05/30/2016	10:44	-132.477	45.007	0	1520.00	0	2.4710	0	34.5070	0	27.547	0	1502.183	0	29.1	4	8.9	4	-1E+10	1	-1E+10	1	-1E+10	1	-1E+10	1	-1E+10	1	-1E+10	1
4901784	33	C	05/30/2016	10:44	-132.477	45.007	0	1525.30	0	2.4510	0	34.5080	0	27.549	0	1507.402	0	29.4	4	9.0	4	-1E+10	1	-1E+10	1	-1E+10	1	-1E+10	1	-1E+10	1	-1E+10	1
4901784	33	C	05/30/2016	10:44	-132.477	45.007	0	1530.70	0	2.4410	0	34.5080	0	27.550	0	1512.719	0	29.5	4	9.0	4	-1E+10	1	-1E+10	1	-1E+10	1	-1E+10	1	-1E+10	1	-1E+10	1
4901784	33	C	05/30/2016	10:44	-132.477	45.007	0	1535.10	0	2.4250	0	34.5090	0	27.552	0	1517.052	0	29.6	4	9.0	4	-1E+10	1	-1E+10	1	-1E+10	1	-1E+10	1	-1E+10	1	-1E+10	1
4901784	33	C	05/30/2016	10:44	-132.477	45.007	0	1539.50	0	2.4170	0	34.5090	0	27.553	0	1521.384	0	29.7	4	9.0	4	-1E+10	1	-1E+10	1	-1E+10	1	-1E+10	1	-1E+10	1	-1E+10	1
4901784	33	C	05/30/2016	10:44	-132.477	45.007	0	1544.90	0	2.4110	0	34.5100	0	27.554	0	1526.701	0	29.9	4	9.1	4	-1E+10	1	-1E+10	1	-1E+10	1	-1E+10	1	-1E+10	1	-1E+10	1
4901784	33	C	05/30/2016	10:44	-132.477	45.007	0	1550.30	0	2.4060	0	34.5110	0	27.556	0	1532.018	0	30.2	4	9.2	4	-1E+10	1	-1E+10	1	-1E+10	1	-1E+10	1	-1E+10	1	-1E+10	1
4901784	33	C	05/30/2016	10:44	-132.477	45.007	0	1554.90	0	2.4050	0	34.5110	0	27.556	0	1536.547	0	30.4	4	9.2	4	-1E+10	1	-1E+10	1	-1E+10	1	-1E+10	1	-1E+10	1	-1E+10	1
4901784	33	C	05/30/2016	10:44	-132.477	45.007	0	1559.50	0	2.4030	0	34.5120	0	27.557	0	1541.076	0	30.7	4	9.3	4	-1E+10	1	-1E+10	1	-1E+10	1	-1E+10	1	-1E+10	1	-1E+10	1
4901784	33	C	05/30/2016	10:44	-132.477	45.007	0	1564.90	0	2.3960	0	34.5130	0	27.558	0	1546.393	0	31.0	4	9.4	4	-1E+10	1	-1E+10	1	-1E+10	1	-1E+10	1	-1E+10	1	-1E+10	1
4901784	33	C	05/30/2016	10:44	-132.477	45.007	0	1570.50	0	2.3860	0	34.5140	0	27.560	0	1551.906	0	31.2	4	9.5	4	-1E+10	1	-1E+10	1	-1E+10	1	-1E+10	1	-1E+10	1	-1E+10	1
4901784	33	C	05/30/2016	10:44	-132.477	45.007	0	1575.20	0	2.3750	0	34.5140	0	27.561	0	1556.533	0	31.4	4	9.6	4	-1E+10	1	-1E+10	1	-1E+10	1	-1E+10	1	-1E+10	1	-1E+10	1
4901784	33	C	05/30/2016	10:44	-132.477	45.007	0	1579.80	0	2.3620	0	34.5150	0	27.563	0	1561.062	0	31.7	4	9.6	4	-1E+10	1	-1E+10	1	-1E+10	1	-1E+10	1	-1E+10	1	-1E+10	1
4901784	33	C	05/30/2016	10:44	-132.477	45.007	0	1585.40	0	2.3530	0	34.5160	0	27.564	0	1566.575	0	32.0	4	9.7	4	-1E+10	1	-1E+10	1	-1E+10	1	-1E+10	1	-1E+10	1	-1E+10	1
4901784	33	C	05/30/2016	10:44	-132.477	45.007	0	1590.20	0	2.3440	0	34.5170	0	27.566	0	1571.300	0	32.4	4	9.9	4	-1E+10	1	-1E+10	1	-1E+10	1	-1E+10	1	-1E+10	1	-1E+10	1
4901784	33	C	05/30/2016	10:44	-132.477	45.007	0	1594.90	0	2.3310	0	34.5180	0	27.568	0	1575.926	0	32.8	4	10.0	4	-1E+10	1	-1E+10	1	-1E+10	1	-1E+10	1	-1E+10	1	-1E+10	1
4901784	33	C	05/30/2016	10:44	-132.477	45.007	0	1599.80	0	2.3230	0	34.5190	0	27.569	0	1580.750	0	33.3	4	10.1	4	-1E+10	1	-1E+10	1	-1E+10	1	-1E+10	1	-1E+10	1	-1E+10	1
4901784	33	C	05/30/2016	10:44	-132.477	45.007	0	1604.80	0	2.3230	0	34.5210	0	27.571	0	1585.672	0	34.2	4	10.4	4	-1E+10	1	-1E+10	1	-1E+10	1	-1E+10	1	-1E+10	1	-1E+10	1
4901784	33	C	05/30/2016	10:44	-132.477	45.007	0	1609.90	0	2.3200	0	34.5230	0	27.573	0	1590.692	0	34.8	4	10.6	4	-1E+10	1	-1E+10	1	-1E+10	1	-1E+10	1	-1E+10	1	-1E+10	1
4901784	33	C	05/30/2016	10:44	-132.477	45.007	0	1615.00	0	2.3120	0	34.5240	0	27.574	0	1595.712	0	35.3	4	10.7	4	-1E+10	1	-1E+10	1	-1E+10	1	-1E+10	1	-1E+10	1	-1E+10	1
4901784	33	C	05/30/2016	10:44	-132.477	45.007	0	1620.20	0	2.2920	0	34.5260	0	27.577	0	1600.830	0	35.9	4	10.9	4	-1E+10	1	-1E+10	1	-1E+10	1	-1E+10	1	-1E+10	1	-1E+10	1
4901784	33	C	05/30/2016	10:44	-132.477	45.007	0	1625.40	0	2.2810	0	34.5280	0	27.580	0	1605.948	0	36.3	4	11.0	4	-1E+10	1	-1E+10	1	-1E+10	1	-1E+10	1	-1E+10	1	-1E+10	1
4901784	33	C	05/30/2016	10:44	-132.477	45.007	0	1630.70	0	2.2740	0	34.5280	0	27.580	0	1611.164	0	36.7	4	11.1	4	-1E+10	1	-1E+10	1	-1E+10	1	-1E+10	1	-1E+10	1	-1E+10	1
4901784	33	C	05/30/2016	10:44	-132.477	45.007	0	1635.10	0	2.2640	0	34.5300	0	27.583	0	1615.495	0	37.1	4	11.3	4	-1E+10	1	-1E+10	1	-1E+10	1	-1E+10	1	-1E+10	1	-1E+10	1
4901784	33	C	05/30/2016	10:44	-132.477	45.007	0	1639.40	0	2.2580	0	34.5310	0	27.584	0	1619.727	0	37.4	4	11.3	4	-1E+10	1	-1E+10	1	-1E+10	1	-1E+10	1	-1E+10	1	-1E+10	1
4901784	33	C	05/30/2016	10:44	-132.477	45.007	0	1644.70	0	2.2550	0	34.5320	0	27.585	0	1624.943	0	37.8	4	11.5	4	-1E+10	1	-1E+10	1	-1E+10	1	-1E+10	1	-1E+10	1	-1E+10	1
4901784	33	C	05/30/2016	10:44	-132.477	45.007	0	1649.90	0	2.2500	0	34.5320	0	27.586	0	1630.061	0	38.3	4	11.6	4	-1E+10	1	-1E+10	1	-1E+10	1	-1E+10	1	-1E+10	1	-1E+10	1
4901784	33	C	05/30/2016	10:44	-132.477	45.007	0	1655.20	0	2.2370	0	34.5340	0	27.588	0	1635.276	0	38.9	4	11.8	4	-1E+10	1	-1E+10	1	-1E+10	1	-1E+10	1	-1E+10	1	-1E+10	1
4901784	33	C	05/30/2016	10:44	-132.477	45.007	0	1660.40	0	2.2250	0	34.5360	0	27.591	0	1640.394	0	39.3	4	11.9	4	-1E+10	1	-1E+10	1	-1E+10	1	-1E+10	1	-1E+10	1	-1E+10	1
4901784	33	C	05/30/2016	10:44	-132.477	45.007	0	1664.90	0	2.2170	0	34.5370	0	27.592	0	1644.822	0	39.6	4	12.0	4	-1E+10	1	-1E+10	1	-1E+10	1	-1E+10	1	-1E+10	1	-1E+10	1
4901784	33	C	05/30/2016	10:44	-132.477	45.007	0	1669.30	0	2.2130	0	34.5380	0	27.594	0	1649.152	0	39.8	4	12.1	4	-1E+10	1	-1E+10	1	-1E+10	1	-1E+10	1	-1E+10	1	-1E+10	1
4901784	33	C	05/30/2016	10:44	-132.477	45.007	0	1674.70	0	2.2080	0	34.5380	0	27.594	0	1654.465	0	40.1	4	12.1	4	-1E+10	1	-1E+10	1	-1E+10	1	-1E+10	1	-1E+10	1	-1E+10	1
4901784	33	C	05/30/2016	10:44	-132.477	45.007	0	1680.00	0	2.2020	0	34.5390	0	27.595	0	1659.681	0	40.3	4	12.2	4	-1E+10	1	-1E+10	1	-1E+10	1	-1E+10	1	-1E+10	1	-1E+10	1
4901784	33	C	05/30/2016	10:44	-132.477	45.007	0	1685.40	0	2.1960	0	34.5400	0	27.597	0	1664.994	0	40.5	4	12.3	4	-1E+10	1	-1E+10	1	-1E+10	1	-1E+10	1	-1E+10	1	-1E+10	1
4901784	33	C	05/30/2016	10:44	-132.477	45.007	0	1689.90	0	2.1950	0	34.5400	0	27.597	0	1669.422	0	40.6	4	12.3	4	-1E+10	1	-1E+10	1	-1E+10	1	-1E+10	1	-1E+10	1	-1E+10	1
4901784	33	C	05/30/2016	10:44	-132.477	45.007	0	1694.40	0	2.1940	0	34.5400	0	27.597	0	1673.850	0	40.8	4	12.4	4	-1E+10	1	-1E+10	1	-1E+10	1	-1E+10	1	-1E+10	1	-1E+10	1
4901784	33	C	05/30/2016	10:44	-132.477	45.007	0	1699.70	0	2.1840	0	34.5410	0	27.598	0	1679.064	0	41.1	4	12.5	4	-1E+10	1	-1E+10	1	-1E+10	1	-1E+10	1	-1E+10	1	-1E+10	1
4901784	33	C	05/30/2016	10:44	-132.477	45.007	0	1705.10	0	2.1790	0	34.5420	0	27.600	0	1684.378	0	41.4	4	12.5	4	-1E+10	1	-1E+10	1	-1E+10	1	-1E+10	1	-1E+10	1	-1E+10	1
4901784	33	C	05/30/2016	10:44	-132.477	45.007	0	1710.60	0	2.1760	0	34.5430	0	27.601	0	1689.789	0	41.6	4	12.6	4	-1E+10	1	-1E+10	1	-1E+10	1	-1E+10	1	-1E+10	1	-1E+10	1
4901784	33	C	05/30/2016	10:44	-132.477	45.007	0	1715.10	0	2.1670	0	34.5440	0	27.602	0	1694.216	0	41.9	4	12.7	4	-1E+10	1	-1E+10	1	-1E+10	1	-1E+10	1	-1E+10	1	-1E+10	1
4901784	33	C	05/30/2016	10:44	-132.477	45.007	0	1719.70	0	2.1650	0	34.5440	0	27.602	0	1698.742	0	42.2	4	12.8	4	-1E+10	1	-1E+10	1	-1E+10	1	-1E+10	1	-1E+10	1	-1E+10	1
4901784	33	C	05/30/2016	10:44	-132.477	45.007	0	1725.10	0	2.1610	0	34.5450	0	27.604	0	1704.054	0	42.5	4	12.9	4	-1E+10	1	-1E+10	1	-1E+10	1	-1E+10	1	-1E+10	1	-1E+10	1
4901784	33	C	05/30/2016	10:44	-132.477	45.007	0	1730.50	0	2.1570	0	34.5460	0	27.605	0	1709.367	0	42.8	4	12.9	4	-1E+10	1	-1E+10	1	-1E+10	1	-1E+10	1	-1E+10	1	-1E+10	1
4901784	33	C	05/30/2016	10:44	-132.477	45.007	0	1735.10	0	2.1540	0	34.5470	0	27.606	0	1713.892	0	43.0	4	13.0	4	-1E+10	1	-1E+10	1	-1E+10	1	-1E+10	1	-1E+10	1	-1E+10	1
4901784	33	C	05/30/2016	10:44	-132.477	45.007	0	1739.70	0	2.1480	0	34.5470	0	27.606	0	1718.417	0	43.3	4	13.1	4	-1E+10	1	-1E+10	1	-1E+10	1	-1E+10	1	-1E+10	1	-1E+10	1
4901784	33	C	05/30/2016	10:44	-132.477	45.007	0	1745.20	0	2.1420	0	34.5480	0	27.608	0	1723.827	0	43.7	4	13.2	4	-1E+10	1	-1E+10	1	-1E+10	1	-1E+10	1	-1E+10	1	-1E+10	1
4901784	33	C	05/30/2016	10:44	-132.477	45.007	0	1749.90	0	2.1330	0	34.5500	0	27.610	0	1728.451	0	44.1	4	13.3	4	-1E+10	1	-1E+10	1	-1E+10	1	-1E+10	1	-1E+10	1	-1E+10	1
4901784	33	C	05/30/2016	10:44	-132.477	45.007	0	1754.60	0	2.1280	0	34.5510	0	27.611	0	1733.074	0	44.3	4	13.4	4	-1E+10	1	-1E+10	1	-1E+10	1	-1E+10	1	-1E+10	1	-1E+10	1
4901784	33	C	05/30/2016	10:44	-132.477	45.007	0	1759.80	0	2.1220	0	34.5520	0	27.612	0	1738.189	0	44.6	4	13.5	4	-1E+10	1	-1E+10	1	-1E+10	1	-1E+10	1	-1E+10	1	-1E+10	1
4901784	33	C	05/30/2016	10:44	-132.477	45.007	0	1765.00	0	2.1180	0	34.5520	0	27.613	0	1743.304	0	44.9	4	13.6	4	-1E+10	1	-1E+10	1	-1E+10	1	-1E+10	1	-1E+10	1	-1E+10	1
4901784	33	C	05/30/2016	10:44	-132.477	45.007	0	1770.80	0	2.1110	0	34.5530	0	27.614	0	1749.008	0	45.3	4	13.7	4	-1E+10	1	-1E+10	1	-1E+10	1	-1E+10	1	-1E+10	1	-1E+10	1
4901784	33	C	05/30/2016	10:44	-132.477	45.007	0	1775.70	0	2.1070	0	34.5540	0	27.615	0	1753.828	0	45.6	4	13.8	4	-1E+10	1	-1E+10	1	-1E+10	1	-1E+10	1	-1E+10	1	-1E+10	1
4901784	33	C	05/30/2016	10:44	-132.477	45.007	0	1780.80	0	2.0960	0	34.5550	0	27.617	0	1758.844	0	46.0	4	13.9	4	-1E+10	1	-1E+10	1	-1E+10	1	-1E+10	1	-1E+10	1	-1E+10	1
4901784	33	C	05/30/2016	10:44	-132.477	45.007	0	1785.80	0	2.0910	0	34.5550	0	27.617	0	1763.762	0	46.3	4	14.0	4	-1E+10	1	-1E+10	1	-1E+10	1	-1E+10	1	-1E+10	1	-1E+10	1
4901784	33	C	05/30/2016	10:44	-132.477	45.007	0	1790.80	0	2.0870	0	34.5560	0	27.619	0	1768.679	0	46.6	4	14.1	4	-1E+10	1	-1E+10	1	-1E+10	1	-1E+10	1	-1E+10	1	-1E+10	1
4901784	33	C	05/30/2016	10:44	-132.477	45.007	0	1795.80	0	2.0850	0	34.5570	0	27.620	0	1773.596	0	46.9	4	14.2	4	-1E+10	1	-1E+10	1	-1E+10	1	-1E+10	1	-1E+10	1	-1E+10	1
4901784	33	C	05/30/2016	10:44	-132.477	45.007	0	1800.70	0	2.0810	0	34.5580	0	27.621	0	1778.415	0	47.1	4	14.2	4	-1E+10	1	-1E+10	1	-1E+10	1	-1E+10	1	-1E+10	1	-1E+10	1
4901784	33	C	05/30/2016	10:44	-132.477	45.007	0	1805.60	0	2.0780	0	34.5580	0	27.621	0	1783.234	0	47.4	4	14.3	4	-1E+10	1	-1E+10	1	-1E+10	1	-1E+10	1	-1E+10	1	-1E+10	1
4901784	33	C	05/30/2016	10:44	-132.477	45.007	0	1810.60	0	2.0750	0	34.5590	0	27.622	0	1788.151	0	47.7	4	14.4	4	-1E+10	1	-1E+10	1	-1E+10	1	-1E+10	1	-1E+10	1	-1E+10	1
4901784	33	C	05/30/2016	10:44	-132.477	45.007	0	1815.70	0	2.0710	0	34.5590	0	27.622	0	1793.166	0	48.0	4	14.5	4	-1E+10	1	-1E+10	1	-1E+10	1	-1E+10	1	-1E+10	1	-1E+10	1
4901784	33	C	05/30/2016	10:44	-132.477	45.007	0	1820.00	0	2.0680	0	34.5600	0	27.623	0	1797.395	0	48.3	4	14.6	4	-1E+10	1	-1E+10	1	-1E+10	1	-1E+10	1	-1E+10	1	-1E+10	1
4901784	33	C	05/30/2016	10:44	-132.477	45.007	0	1824.30	0	2.0640	0	34.5610	0	27.625	0	1801.623	0	48.5	4	14.6	4	-1E+10	1	-1E+10	1	-1E+10	1	-1E+10	1	-1E+10	1	-1E+10	1
4901784	33	C	05/30/2016	10:44	-132.477	45.007	0	1829.40	0	2.0600	0	34.5610	0	27.625	0	1806.638	0	48.8	4	14.7	4	-1E+10	1	-1E+10	1	-1E+10	1	-1E+10	1	-1E+10	1	-1E+10	1
4901784	33	C	05/30/2016	10:44	-132.477	45.007	0	1834.60	0	2.0550	0	34.5620	0	27.626	0	1811.751	0	49.1	4	14.8	4	-1E+10	1	-1E+10	1	-1E+10	1	-1E+10	1	-1E+10	1	-1E+10	1
4901784	33	C	05/30/2016	10:44	-132.477	45.007	0	1839.80	0	2.0520	0	34.5620	0	27.626	0	1816.864	0	49.3	4	14.9	4	-1E+10	1	-1E+10	1	-1E+10	1	-1E+10	1	-1E+10	1	-1E+10	1
4901784	33	C	05/30/2016	10:44	-132.477	45.007	0	1845.00	0	2.0450	0	34.5640	0	27.629	0	1821.977	0	49.7	4	15.0	4	-1E+10	1	-1E+10	1	-1E+10	1	-1E+10	1	-1E+10	1	-1E+10	1
4901784	33	C	05/30/2016	10:44	-132.477	45.007	0	1850.30	0	2.0400	0	34.5640	0	27.629	0	1827.188	0	50.0	4	15.1	4	-1E+10	1	-1E+10	1	-1E+10	1	-1E+10	1	-1E+10	1	-1E+10	1
4901784	33	C	05/30/2016	10:44	-132.477	45.007	0	1855.60	0	2.0380	0	34.5650	0	27.630	0	1832.399	0	50.2	4	15.2	4	-1E+10	1	-1E+10	1	-1E+10	1	-1E+10	1	-1E+10	1	-1E+10	1
4901784	33	C	05/30/2016	10:44	-132.477	45.007	0	1860.10	0	2.0350	0	34.5650	0	27.630	0	1836.824	0	50.6	4	15.3	4	-1E+10	1	-1E+10	1	-1E+10	1	-1E+10	1	-1E+10	1	-1E+10	1
4901784	33	C	05/30/2016	10:44	-132.477	45.007	0	1864.50	0	2.0290	0	34.5660	0	27.632	0	1841.150	0	50.9	4	15.4	4	-1E+10	1	-1E+10	1	-1E+10	1	-1E+10	1	-1E+10	1	-1E+10	1
4901784	33	C	05/30/2016	10:44	-132.477	45.007	0	1869.90	0	2.0230	0	34.5670	0	27.633	0	1846.459	0	51.3	4	15.5	4	-1E+10	1	-1E+10	1	-1E+10	1	-1E+10	1	-1E+10	1	-1E+10	1
4901784	33	C	05/30/2016	10:44	-132.477	45.007	0	1875.30	0	2.0180	0	34.5680	0	27.634	0	1851.767	0	51.6	4	15.6	4	-1E+10	1	-1E+10	1	-1E+10	1	-1E+10	1	-1E+10	1	-1E+10	1
4901784	33	C	05/30/2016	10:44	-132.477	45.007	0	1880.60	0	2.0120	0	34.5680	0	27.635	0	1856.978	0	52.0	4	15.7	4	-1E+10	1	-1E+10	1	-1E+10	1	-1E+10	1	-1E+10	1	-1E+10	1
4901784	33	C	05/30/2016	10:44	-132.477	45.007	0	1885.10	0	2.0080	0	34.5690	0	27.636	0	1861.401	0	52.2	4	15.7	4	-1E+10	1	-1E+10	1	-1E+10	1	-1E+10	1	-1E+10	1	-1E+10	1
4901784	33	C	05/30/2016	10:44	-132.477	45.007	0	1889.70	0	2.0040	0	34.5700	0	27.637	0	1865.923	0	52.4	4	15.8	4	-1E+10	1	-1E+10	1	-1E+10	1	-1E+10	1	-1E+10	1	-1E+10	1
4901784	33	C	05/30/2016	10:44	-132.477	45.007	0	1895.20	0	2.0020	0	34.5700	0	27.637	0	1871.330	0	52.7	4	15.9	4	-1E+10	1	-1E+10	1	-1E+10	1	-1E+10	1	-1E+10	1	-1E+10	1
4901784	33	C	05/30/2016	10:44	-132.477	45.007	0	1899.80	0	1.9990	0	34.5710	0	27.638	0	1875.852	0	53.0	4	16.0	4	-1E+10	1	-1E+10	1	-1E+10	1	-1E+10	1	-1E+10	1	-1E+10	1
4901784	33	C	05/30/2016	10:44	-132.477	45.007	0	1905.10	0	1.9940	0	34.5710	0	27.638	0	1881.062	0	53.3	4	16.1	4	-1E+10	1	-1E+10	1	-1E+10	1	-1E+10	1	-1E+10	1	-1E+10	1
4901784	33	C	05/30/2016	10:44	-132.477	45.007	0	1910.20	0	1.9900	0	34.5720	0	27.640	0	1886.075	0	53.6	4	16.2	4	-1E+10	1	-1E+10	1	-1E+10	1	-1E+10	1	-1E+10	1	-1E+10	1
4901784	33	C	05/30/2016	10:44	-132.477	45.007	0	1915.10	0	1.9860	0	34.5730	0	27.641	0	1890.891	0	53.9	4	16.2	4	-1E+10	1	-1E+10	1	-1E+10	1	-1E+10	1	-1E+10	1	-1E+10	1
4901784	33	C	05/30/2016	10:44	-132.477	45.007	0	1920.00	0	1.9830	0	34.5730	0	27.641	0	1895.707	0	54.1	4	16.3	4	-1E+10	1	-1E+10	1	-1E+10	1	-1E+10	1	-1E+10	1	-1E+10	1
4901784	33	C	05/30/2016	10:44	-132.477	45.007	0	1924.90	0	1.9800	0	34.5740	0	27.642	0	1900.524	0	54.4	4	16.4	4	-1E+10	1	-1E+10	1	-1E+10	1	-1E+10	1	-1E+10	1	-1E+10	1
4901784	33	C	05/30/2016	10:44	-132.477	45.007	0	1929.90	0	1.9760	0	34.5740	0	27.642	0	1905.438	0	54.6	4	16.4	4	-1E+10	1	-1E+10	1	-1E+10	1	-1E+10	1	-1E+10	1	-1E+10	1
4901784	33	C	05/30/2016	10:44	-132.477	45.007	0	1934.90	0	1.9740	0	34.5750	0	27.643	0	1910.352	0	54.8	4	16.5	4	-1E+10	1	-1E+10	1	-1E+10	1	-1E+10	1	-1E+10	1	-1E+10	1
4901784	33	C	05/30/2016	10:44	-132.477	45.007	0	1939.80	0	1.9710	0	34.5750	0	27.644	0	1915.168	0	55.0	4	16.6	4	-1E+10	1	-1E+10	1	-1E+10	1	-1E+10	1	-1E+10	1	-1E+10	1
4901784	33	C	05/30/2016	10:44	-132.477	45.007	0	1944.90	0	1.9690	0	34.5760	0	27.645	0	1920.180	0	55.2	4	16.6	4	-1E+10	1	-1E+10	1	-1E+10	1	-1E+10	1	-1E+10	1	-1E+10	1
4901784	33	C	05/30/2016	10:44	-132.477	45.007	0	1950.00	0	1.9650	0	34.5760	0	27.645	0	1925.192	0	55.5	4	16.7	4	-1E+10	1	-1E+10	1	-1E+10	1	-1E+10	1	-1E+10	1	-1E+10	1
4901784	33	C	05/30/2016	10:44	-132.477	45.007	0	1955.20	0	1.9620	0	34.5770	0	27.646	0	1930.303	0	55.7	4	16.8	4	-1E+10	1	-1E+10	1	-1E+10	1	-1E+10	1	-1E+10	1	-1E+10	1
4901784	33	C	05/30/2016	10:44	-132.477	45.007	0	1960.30	0	1.9620	0	34.5770	0	27.646	0	1935.315	0	55.8	4	16.8	4	-1E+10	1	-1E+10	1	-1E+10	1	-1E+10	1	-1E+10	1	-1E+10	1
4901784	33	C	05/30/2016	10:44	-132.477	45.007	0	1965.40	0	1.9580	0	34.5780	0	27.647	0	1940.326	0	56.1	4	16.9	4	-1E+10	1	-1E+10	1	-1E+10	1	-1E+10	1	-1E+10	1	-1E+10	1
4901784	33	C	05/30/2016	10:44	-132.477	45.007	0	1970.50	0	1.9540	0	34.5780	0	27.648	0	1945.338	0	56.4	4	17.0	4	-1E+10	1	-1E+10	1	-1E+10	1	-1E+10	1	-1E+10	1	-1E+10	1
4901784	33	C	05/30/2016	10:44	-132.477	45.007	0	1975.60	0	1.9510	0	34.5790	0	27.649	0	1950.349	0	56.6	4	17.0	4	-1E+10	1	-1E+10	1	-1E+10	1	-1E+10	1	-1E+10	1	-1E+10	1
4901784	33	C	05/30/2016	10:44	-132.477	45.007	0	1979.90	0	1.9500	0	34.5790	0	27.649	0	1954.575	0	56.8	4	17.1	4	-1E+10	1	-1E+10	1	-1E+10	1	-1E+10	1	-1E+10	1	-1E+10	1
4901784	33	C	05/30/2016	10:44	-132.477	45.007	0	1984.30	0	1.9480	0	34.5790	0	27.649	0	1958.898	0	57.0	4	17.2	4	-1E+10	1	-1E+10	1	-1E+10	1	-1E+10	1	-1E+10	1	-1E+10	1
4901784	33	C	05/30/2016	10:44	-132.477	45.007	0	1989.50	0	1.9450	0	34.5800	0	27.650	0	1964.008	0	57.2	4	17.2	4	-1E+10	1	-1E+10	1	-1E+10	1	-1E+10	1	-1E+10	1	-1E+10	1
4901784	33	C	05/30/2016	10:44	-132.477	45.007	0	1994.80	0	1.9410	0	34.5800	0	27.650	0	1969.215	0	57.6	4	17.3	4	-1E+10	1	-1E+10	1	-1E+10	1	-1E+10	1	-1E+10	1	-1E+10	1
4901784	33	C	05/30/2016	10:44	-132.477	45.007	0	1999.90	0	1.9380	0	34.5810	0	27.651	0	1974.226	0	57.9	4	17.4	4	-1E+10	1	-1E+10	1	-1E+10	1	-1E+10	1	-1E+10	1	-1E+10	1
4901784	33	C	05/30/2016	10:44	-132.477	45.007	0	2005.00	0	1.9350	0	34.5820	0	27.652	0	1979.237	0	58.1	4	17.5	4	-1E+10	1	-1E+10	1	-1E+10	1	-1E+10	1	-1E+10	1	-1E+10	1
4901784	33	C	05/30/2016	10:44	-132.477	45.007	0	2009.60	0	1.9320	0	34.5820	0	27.653	0	1983.757	0	58.3	4	17.6	4	-1E+10	1	-1E+10	1	-1E+10	1	-1E+10	1	-1E+10	1	-1E+10	1
4901784	33	C	05/30/2016	10:44	-132.477	45.007	0	2015.00	0	1.9300	0	34.5830	0	27.654	0	1989.062	0	58.5	4	17.6	4	-1E+10	1	-1E+10	1	-1E+10	1	-1E+10	1	-1E+10	1	-1E+10	1
4901784	33	C	05/30/2016	10:44	-132.477	45.007	0	2019.70	0	1.9280	0	34.5830	0	27.654	0	1993.680	0	58.6	4	17.6	4	-1E+10	1	-1E+10	1	-1E+10	1	-1E+10	1	-1E+10	1	-1E+10	1
4901784	33	C	05/30/2016	10:44	-132.477	45.007	0																										
4901784	34	C	06/09/2016	10:52	-132.253	44.993	0	2.40	0	13.0180	0	32.6910	0	24.602	0	2.381	0	266.8	4	101.8	4	-1E+10	1	-1E+10	1	-1E+10	1	-1E+10	1	-1E+10	1	-1E+10	1
4901784	34	C	06/09/2016	10:52	-132.253	44.993	0	3.80	0	13.0170	0	32.6910	0	24.602	0	3.769	0	266.8	4	101.8	4	-1E+10	1	-1E+10	1	-1E+10	1	-1E+10	1	-1E+10	1	-1E+10	1
4901784	34	C	06/09/2016	10:52	-132.253	44.993	0	5.20	0	13.0180	0	32.6900	0	24.601	0	5.158	0	267.0	4	101.9	4	-1E+10	1	-1E+10	1	-1E+10	1	-1E+10	1	-1E+10	1	-1E+10	1
4901784	34	C	06/09/2016	10:52	-132.253	44.993	0	6.70	0	13.0170	0	32.6890	0	24.601	0	6.646	0	267.0	4	101.9	4	-1E+10	1	-1E+10	1	-1E+10	1	-1E+10	1	-1E+10	1	-1E+10	1
4901784	34	C	06/09/2016	10:52	-132.253	44.993	0	8.10	0	13.0160	0	32.6870	0	24.599	0	8.034	0	267.0	4	101.9	4	-1E+10	1	-1E+10	1	-1E+10	1	-1E+10	1	-1E+10	1	-1E+10	1
4901784	34	C	06/09/2016	10:52	-132.253	44.993	0	9.50	0	13.0140	0	32.6820	0	24.596	0	9.423	0	267.4	4	102.1	4	-1E+10	1	-1E+10	1	-1E+10	1	-1E+10	1	-1E+10	1	-1E+10	1
4901784	34	C	06/09/2016	10:52	-132.253	44.993	0	10.90	0	12.8890	0	32.6880	0	24.625	0	10.811	0	268.0	4	102.0	4	-1E+10	1	-1E+10	1	-1E+10	1	-1E+10	1	-1E+10	1	-1E+10	1
4901784	34	C	06/09/2016	10:52	-132.253	44.993	0	12.40	0	12.7430	0	32.6930	0	24.657	0	12.299	0	268.6	4	101.9	4	-1E+10	1	-1E+10	1	-1E+10	1	-1E+10	1	-1E+10	1	-1E+10	1
4901784	34	C	06/09/2016	10:52	-132.253	44.993	0	13.90	0	12.6820	0	32.6860	0	24.664	0	13.787	0	268.6	4	101.8	4	-1E+10	1	-1E+10	1	-1E+10	1	-1E+10	1	-1E+10	1	-1E+10	1
4901784	34	C	06/09/2016	10:52	-132.253	44.993	0	15.50	0	12.5610	0	32.6790	0	24.682	0	15.374	0	268.0	4	101.3	4	-1E+10	1	-1E+10	1	-1E+10	1	-1E+10	1	-1E+10	1	-1E+10	1
4901784	34	C	06/09/2016	10:52	-132.253	44.993	0	17.00	0	12.2140	0	32.6880	0	24.755	0	16.861	0	268.7	4	100.9	4	-1E+10	1	-1E+10	1	-1E+10	1	-1E+10	1	-1E+10	1	-1E+10	1
4901784	34	C	06/09/2016	10:52	-132.253	44.993	0	18.50	0	12.1520	0	32.7020	0	24.777	0	18.349	0	267.4	4	100.3	4	-1E+10	1	-1E+10	1	-1E+10	1	-1E+10	1	-1E+10	1	-1E+10	1
4901784	34	C	06/09/2016	10:52	-132.253	44.993	0	20.10	0	12.0880	0	32.7070	0	24.793	0	19.936	0	265.8	4	99.5	4	-1E+10	1	-1E+10	1	-1E+10	1	-1E+10	1	-1E+10	1	-1E+10	1
4901784	34	C	06/09/2016	10:52	-132.253	44.993	0	21.80	0	11.7290	0	32.7530	0	24.896	0	21.622	0	265.3	4	98.6	4	-1E+10	1	-1E+10	1	-1E+10	1	-1E+10	1	-1E+10	1	-1E+10	1
4901784	34	C	06/09/2016	10:52	-132.253	44.993	0	23.50	0	11.6550	0	32.7660	0	24.919	0	23.308	0	263.8	4	97.9	4	-1E+10	1	-1E+10	1	-1E+10	1	-1E+10	1	-1E+10	1	-1E+10	1
4901784	34	C	06/09/2016	10:52	-132.253	44.993	0	25.20	0	11.6280	0	32.7730	0	24.930	0	24.994	0	262.3	4	97.3	4	-1E+10	1	-1E+10	1	-1E+10	1	-1E+10	1	-1E+10	1	-1E+10	1
4901784	34	C	06/09/2016	10:52	-132.253	44.993	0	26.90	0	11.5730	0	32.7720	0	24.939	0	26.680	0	261.1	4	96.8	4	-1E+10	1	-1E+10	1	-1E+10	1	-1E+10	1	-1E+10	1	-1E+10	1
4901784	34	C	06/09/2016	10:52	-132.253	44.993	0	28.60	0	11.5340	0	32.7710	0	24.945	0	28.366	0	260.3	4	96.4	4	-1E+10	1	-1E+10	1	-1E+10	1	-1E+10	1	-1E+10	1	-1E+10	1
4901784	34	C	06/09/2016	10:52	-132.253	44.993	0	30.30	0	11.4690	0	32.7710	0	24.957	0	30.052	0	259.5	4	95.9	4	-1E+10	1	-1E+10	1	-1E+10	1	-1E+10	1	-1E+10	1	-1E+10	1
4901784	34	C	06/09/2016	10:52	-132.253	44.993	0	32.00	0	11.4440	0	32.7740	0	24.964	0	31.738	0	258.9	4	95.7	4	-1E+10	1	-1E+10	1	-1E+10	1	-1E+10	1	-1E+10	1	-1E+10	1
4901784	34	C	06/09/2016	10:52	-132.253	44.993	0	33.70	0	11.5630	0	32.7990	0	24.962	0	33.424	0	257.9	4	95.6	4	-1E+10	1	-1E+10	1	-1E+10	1	-1E+10	1	-1E+10	1	-1E+10	1
4901784	34	C	06/09/2016	10:52	-132.253	44.993	0	35.30	0	11.5250	0	32.8040	0	24.973	0	35.010	0	257.3	4	95.3	4	-1E+10	1	-1E+10	1	-1E+10	1	-1E+10	1	-1E+10	1	-1E+10	1
4901784	34	C	06/09/2016	10:52	-132.253	44.993	0	36.90	0	11.4360	0	32.7950	0	24.982	0	36.597	0	257.0	4	95.0	4	-1E+10	1	-1E+10	1	-1E+10	1	-1E+10	1	-1E+10	1	-1E+10	1
4901784	34	C	06/09/2016	10:52	-132.253	44.993	0	38.60	0	11.2530	0	32.7960	0	25.016	0	38.283	0	257.0	4	94.6	4	-1E+10	1	-1E+10	1	-1E+10	1	-1E+10	1	-1E+10	1	-1E+10	1
4901784	34	C	06/09/2016	10:52	-132.253	44.993	0	40.20	0	11.0850	0	32.7860	0	25.038	0	39.870	0	257.2	4	94.3	4	-1E+10	1	-1E+10	1	-1E+10	1	-1E+10	1	-1E+10	1	-1E+10	1
4901784	34	C	06/09/2016	10:52	-132.253	44.993	0	41.90	0	10.8420	0	32.8020	0	25.093	0	41.556	0	257.6	4	94.0	4	-1E+10	1	-1E+10	1	-1E+10	1	-1E+10	1	-1E+10	1	-1E+10	1
4901784	34	C	06/09/2016	10:52	-132.253	44.993	0	43.70	0	10.6690	0	32.8050	0	25.126	0	43.341	0	258.6	4	94.1	4	-1E+10	1	-1E+10	1	-1E+10	1	-1E+10	1	-1E+10	1	-1E+10	1
4901784	34	C	06/09/2016	10:52	-132.253	44.993	0	45.50	0	10.4060	0	32.8250	0	25.187	0	45.126	0	259.2	4	93.7	4	-1E+10	1	-1E+10	1	-1E+10	1	-1E+10	1	-1E+10	1	-1E+10	1
4901784	34	C	06/09/2016	10:52	-132.253	44.993	0	47.30	0	10.2980	0	32.8220	0	25.203	0	46.911	0	259.8	4	93.7	4	-1E+10	1	-1E+10	1	-1E+10	1	-1E+10	1	-1E+10	1	-1E+10	1
4901784	34	C	06/09/2016	10:52	-132.253	44.993	0	49.20	0	10.2620	0	32.8240	0	25.211	0	48.795	0	259.5	4	93.6	4	-1E+10	1	-1E+10	1	-1E+10	1	-1E+10	1	-1E+10	1	-1E+10	1
4901784	34	C	06/09/2016	10:52	-132.253	44.993	0	51.00	0	10.2240	0	32.8260	0	25.219	0	50.580	0	259.3	4	93.4	4	-1E+10	1	-1E+10	1	-1E+10	1	-1E+10	1	-1E+10	1	-1E+10	1
4901784	34	C	06/09/2016	10:52	-132.253	44.993	0	52.90	0	10.1830	0	32.8270	0	25.226	0	52.464	0	259.2	4	93.3	4	-1E+10	1	-1E+10	1	-1E+10	1	-1E+10	1	-1E+10	1	-1E+10	1
4901784	34	C	06/09/2016	10:52	-132.253	44.993	0	54.80	0	10.1490	0	32.8250	0	25.230	0	54.348	0	259.0	4	93.2	4	-1E+10	1	-1E+10	1	-1E+10	1	-1E+10	1	-1E+10	1	-1E+10	1
4901784	34	C	06/09/2016	10:52	-132.253	44.993	0	56.60	0	10.1050	0	32.8250	0	25.238	0	56.133	0	258.8	4	93.0	4	-1E+10	1	-1E+10	1	-1E+10	1	-1E+10	1	-1E+10	1	-1E+10	1
4901784	34	C	06/09/2016	10:52	-132.253	44.993	0	59.00	0	10.0870	0	32.8270	0	25.242	0	58.513	0	258.5	4	92.8	4	-1E+10	1	-1E+10	1	-1E+10	1	-1E+10	1	-1E+10	1	-1E+10	1
4901784	34	C	06/09/2016	10:52	-132.253	44.993	0	60.80	0	10.0570	0	32.8290	0	25.249	0	60.298	0	258.2	4	92.7	4	-1E+10	1	-1E+10	1	-1E+10	1	-1E+10	1	-1E+10	1	-1E+10	1
4901784	34	C	06/09/2016	10:52	-132.253	44.993	0	62.40	0	10.0470	0	32.8310	0	25.252	0	61.884	0	257.8	4	92.5	4	-1E+10	1	-1E+10	1	-1E+10	1	-1E+10	1	-1E+10	1	-1E+10	1
4901784	34	C	06/09/2016	10:52	-132.253	44.993	0	63.90	0	10.0280	0	32.8350	0	25.259	0	63.372	0	257.4	4	92.3	4	-1E+10	1	-1E+10	1	-1E+10	1	-1E+10	1	-1E+10	1	-1E+10	1
4901784	34	C	06/09/2016	10:52	-132.253	44.993	0	65.50	0	10.0200	0	32.8370	0	25.262	0	64.958	0	257.1	4	92.2	4	-1E+10	1	-1E+10	1	-1E+10	1	-1E+10	1	-1E+10	1	-1E+10	1
4901784	34	C	06/09/2016	10:52	-132.253	44.993	0	67.10	0	10.0190	0	32.8420	0	25.266	0	66.545	0	256.5	4	92.0	4	-1E+10	1	-1E+10	1	-1E+10	1	-1E+10	1	-1E+10	1	-1E+10	1
4901784	34	C	06/09/2016	10:52	-132.253	44.993	0	68.60	0	10.0060	0	32.8470	0	25.272	0	68.032	0	256.2	4	91.9	4	-1E+10	1	-1E+10	1	-1E+10	1	-1E+10	1	-1E+10	1	-1E+10	1
4901784	34	C	06/09/2016	10:52	-132.253	44.993	0	70.20	0	9.9900	0	32.8550	0	25.281	0	69.618	0	255.4	4	91.6	4	-1E+10	1	-1E+10	1	-1E+10	1	-1E+10	1	-1E+10	1	-1E+10	1
4901784	34	C	06/09/2016	10:52	-132.253	44.993	0	71.80	0	9.9840	0	32.8580	0	25.284	0	71.205	0	254.9	4	91.4	4	-1E+10	1	-1E+10	1	-1E+10	1	-1E+10	1	-1E+10	1	-1E+10	1
4901784	34	C	06/09/2016	10:52	-132.253	44.993	0	73.40	0	9.9580	0	32.8760	0	25.302	0	72.791	0	254.1	4	91.0	4	-1E+10	1	-1E+10	1	-1E+10	1	-1E+10	1	-1E+10	1	-1E+10	1
4901784	34	C	06/09/2016	10:52	-132.253	44.993	0	74.90	0	9.9270	0	32.8920	0	25.320	0	74.279	0	253.2	4	90.7	4	-1E+10	1	-1E+10	1	-1E+10	1	-1E+10	1	-1E+10	1	-1E+10	1
4901784	34	C	06/09/2016	10:52	-132.253	44.993	0	76.60	0	9.9090	0	32.8940	0	25.325	0	75.964	0	252.3	4	90.3	4	-1E+10	1	-1E+10	1	-1E+10	1	-1E+10	1	-1E+10	1	-1E+10	1
4901784	34	C	06/09/2016	10:52	-132.253	44.993	0	78.10	0	9.8980	0	32.8940	0	25.327	0	77.451	0	251.0	4	89.8	4	-1E+10	1	-1E+10	1	-1E+10	1	-1E+10	1	-1E+10	1	-1E+10	1
4901784	34	C	06/09/2016	10:52	-132.253	44.993	0	79.70	0	9.8500	0	32.9020	0	25.341	0	79.038	0	249.6	4	89.2	4	-1E+10	1	-1E+10	1	-1E+10	1	-1E+10	1	-1E+10	1	-1E+10	1
4901784	34	C	06/09/2016	10:52	-132.253	44.993	0	81.40	0	9.8010	0	32.9180	0	25.361	0	80.723	0	248.5	4	88.8	4	-1E+10	1	-1E+10	1	-1E+10	1	-1E+10	1	-1E+10	1	-1E+10	1
4901784	34	C	06/09/2016	10:52	-132.253	44.993	0	83.10	0	9.7780	0	32.9280	0	25.373	0	82.409	0	247.2	4	88.3	4	-1E+10	1	-1E+10	1	-1E+10	1	-1E+10	1	-1E+10	1	-1E+10	1
4901784	34	C	06/09/2016	10:52	-132.253	44.993	0	84.70	0	9.7560	0	32.9360	0	25.383	0	83.995	0	245.7	4	87.7	4	-1E+10	1	-1E+10	1	-1E+10	1	-1E+10	1	-1E+10	1	-1E+10	1
4901784	34	C	06/09/2016	10:52	-132.253	44.993	0	86.40	0	9.7360	0	32.9460	0	25.394	0	85.681	0	243.8	4	87.0	4	-1E+10	1	-1E+10	1	-1E+10	1	-1E+10	1	-1E+10	1	-1E+10	1
4901784	34	C	06/09/2016	10:52	-132.253	44.993	0	87.90	0	9.7180	0	32.9570	0	25.406	0	87.168	0	241.8	4	86.3	4	-1E+10	1	-1E+10	1	-1E+10	1	-1E+10	1	-1E+10	1	-1E+10	1
4901784	34	C	06/09/2016	10:52	-132.253	44.993	0	89.60	0	9.6630	0	32.9840	0	25.436	0	88.853	0	239.4	4	85.3	4	-1E+10	1	-1E+10	1	-1E+10	1	-1E+10	1	-1E+10	1	-1E+10	1
4901784	34	C	06/09/2016	10:52	-132.253	44.993	0	91.20	0	9.6440	0	33.0130	0	25.461	0	90.440	0	237.6	4	84.7	4	-1E+10	1	-1E+10	1	-1E+10	1	-1E+10	1	-1E+10	1	-1E+10	1
4901784	34	C	06/09/2016	10:52	-132.253	44.993	0	92.90	0	9.6260	0	33.0230	0	25.472	0	92.125	0	235.7	4	83.9	4	-1E+10	1	-1E+10	1	-1E+10	1	-1E+10	1	-1E+10	1	-1E+10	1
4901784	34	C	06/09/2016	10:52	-132.253	44.993	0	94.60	0	9.6030	0	33.0330	0	25.484	0	93.811	0	233.6	4	83.2	4	-1E+10	1	-1E+10	1	-1E+10	1	-1E+10	1	-1E+10	1	-1E+10	1
4901784	34	C	06/09/2016	10:52	-132.253	44.993	0	96.30	0	9.5690	0	33.0530	0	25.505	0	95.496	0	230.7	4	82.1	4	-1E+10	1	-1E+10	1	-1E+10	1	-1E+10	1	-1E+10	1	-1E+10	1
4901784	34	C	06/09/2016	10:52	-132.253	44.993	0	98.00	0	9.4990	0	33.1130	0	25.563	0	97.181	0	228.1	4	81.1	4	-1E+10	1	-1E+10	1	-1E+10	1	-1E+10	1	-1E+10	1	-1E+10	1
4901784	34	C	06/09/2016	10:52	-132.253	44.993	0	99.60	0	9.4660	0	33.1600	0	25.605	0	98.768	0	226.2	4	80.4	4	-1E+10	1	-1E+10	1	-1E+10	1	-1E+10	1	-1E+10	1	-1E+10	1
4901784	34	C	06/09/2016	10:52	-132.253	44.993	0	102.20	0	9.4720	0	33.2140	0	25.647	0	101.345	0	224.3	4	79.7	4	-1E+10	1	-1E+10	1	-1E+10	1	-1E+10	1	-1E+10	1	-1E+10	1
4901784	34	C	06/09/2016	10:52	-132.253	44.993	0	104.80	0	9.4920	0	33.2390	0	25.663	0	103.923	0	222.4	4	79.1	4	-1E+10	1	-1E+10	1	-1E+10	1	-1E+10	1	-1E+10	1	-1E+10	1
4901784	34	C	06/09/2016	10:52	-132.253	44.993	0	107.50	0	9.4950	0	33.2540	0	25.674	0	106.600	0	219.6	4	78.1	4	-1E+10	1	-1E+10	1	-1E+10	1	-1E+10	1	-1E+10	1	-1E+10	1
4901784	34	C	06/09/2016	10:52	-132.253	44.993	0	109.60	0	9.4880	0	33.2740	0	25.691	0	108.682	0	216.2	4	76.9	4	-1E+10	1	-1E+10	1	-1E+10	1	-1E+10	1	-1E+10	1	-1E+10	1
4901784	34	C	06/09/2016	10:52	-132.253	44.993	0	112.40	0	9.4180	0	33.3450	0	25.758	0	111.457	0	211.3	4	75.1	4	-1E+10	1	-1E+10	1	-1E+10	1	-1E+10	1	-1E+10	1	-1E+10	1
4901784	34	C	06/09/2016	10:52	-132.253	44.993	0	115.40	0	9.3140	0	33.4100	0	25.826	0	114.431	0	206.7	4	73.3	4	-1E+10	1	-1E+10	1	-1E+10	1	-1E+10	1	-1E+10	1	-1E+10	1
4901784	34	C	06/09/2016	10:52	-132.253	44.993	0	117.70	0	9.1730	0	33.4700	0	25.895	0	116.711	0	203.7	4	72.1	4	-1E+10	1	-1E+10	1	-1E+10	1	-1E+10	1	-1E+10	1	-1E+10	1
4901784	34	C	06/09/2016	10:52	-132.253	44.993	0	119.90	0	9.0800	0	33.5050	0	25.937	0	118.892	0	200.9	4	70.9	4	-1E+10	1	-1E+10	1	-1E+10	1	-1E+10	1	-1E+10	1	-1E+10	1
4901784	34	C	06/09/2016	10:52	-132.253	44.993	0	122.30	0	9.0170	0	33.5330	0	25.969	0	121.271	0	198.0	4	69.9	4	-1E+10	1	-1E+10	1	-1E+10	1	-1E+10	1	-1E+10	1	-1E+10	1
4901784	34	C	06/09/2016	10:52	-132.253	44.993	0	124.70	0	8.8990	0	33.5730	0	26.019	0	123.650	0	195.6	4	68.8	4	-1E+10	1	-1E+10	1	-1E+10	1	-1E+10	1	-1E+10	1	-1E+10	1
4901784	34	C	06/09/2016	10:52	-132.253	44.993	0	127.90	0	8.8010	0	33.6190	0	26.070	0	126.823	0	192.8	4	67.7	4	-1E+10	1	-1E+10	1	-1E+10	1	-1E+10	1	-1E+10	1	-1E+10	1
4901784	34	C	06/09/2016	10:52	-132.253	44.993	0	130.40	0	8.7200	0	33.6390	0	26.099	0	129.301	0	190.5	4	66.8	4	-1E+10	1	-1E+10	1	-1E+10	1	-1E+10	1	-1E+10	1	-1E+10	1
4901784	34	C	06/09/2016	10:52	-132.253	44.993	0	132.90	0	8.5650	0	33.6680	0	26.145	0	131.779	0	188.1	4	65.8	4	-1E+10	1	-1E+10	1	-1E+10	1	-1E+10	1	-1E+10	1	-1E+10	1
4901784	34	C	06/09/2016	10:52	-132.253	44.993	0	135.50	0	8.4450	0	33.6960	0	26.186	0	134.356	0	187.2	4	65.3	4	-1E+10	1	-1E+10	1	-1E+10	1	-1E+10	1	-1E+10	1	-1E+10	1
4901784	34	C	06/09/2016	10:52	-132.253	44.993	0	137.20	0	8.4370	0	33.7000	0	26.190	0	136.041	0	186.5	4	65.0	4	-1E+10	1	-1E+10	1	-1E+10	1	-1E+10	1	-1E+10	1	-1E+10	1
4901784	34	C	06/09/2016	10:52	-132.253	44.993	0	139.70	0	8.3870	0	33.7300	0	26.221	0	138.519	0	185.3	4	64.5	4	-1E+10	1	-1E+10	1	-1E+10	1	-1E+10	1	-1E+10	1	-1E+10	1
4901784	34	C	06/09/2016	10:52	-132.253	44.993	0	142.10	0	8.3550	0	33.7380	0	26.232	0	140.898	0	184.2	4	64.1	4	-1E+10	1	-1E+10	1	-1E+10	1	-1E+10	1	-1E+10	1	-1E+10	1
4901784	34	C	06/09/2016	10:52	-132.253	44.993	0	144.70	0	8.2980	0	33.7630	0	26.260	0	143.475	0	183.2	4	63.7	4	-1E+10	1	-1E+10	1	-1E+10	1	-1E+10	1	-1E+10	1	-1E+10	1
4901784	34	C	06/09/2016	10:52	-132.253	44.993	0	147.30	0	8.2880	0	33.7700	0	26.267	0	146.052	0	182.2	4	63.4	4	-1E+10	1	-1E+10	1	-1E+10	1	-1E+10	1	-1E+10	1	-1E+10	1
4901784	34	C	06/09/2016	10:52	-132.253	44.993	0	149.70	0	8.2460	0	33.7790	0	26.281	0	148.431	0	180.9	4	62.8	4	-1E+10	1	-1E+10	1	-1E+10	1	-1E+10	1	-1E+10	1	-1E+10	1
4901784	34	C	06/09/2016	10:52	-132.253	44.993	0	152.20	0	8.1870	0	33.7830	0	26.293	0	150.909	0	180.0	4	62.4	4	-1E+10	1	-1E+10	1	-1E+10	1	-1E+10	1	-1E+10	1	-1E+10	1
4901784	34	C	06/09/2016	10:52	-132.253	44.993	0	154.80	0	8.1400	0	33.8000	0	26.313	0	153.486	0	179.1	4	62.1	4	-1E+10	1	-1E+10	1	-1E+10	1	-1E+10	1	-1E+10	1	-1E+10	1
4901784	34	C	06/09/2016	10:52	-132.253	44.993	0	157.40	0	8.0970	0	33.8050	0	26.324	0	156.063	0	178.6	4	61.8	4	-1E+10	1	-1E+10	1	-1E+10	1	-1E+10	1	-1E+10	1	-1E+10	1
4901784	34	C	06/09/2016	10:52	-132.253	44.993	0	160.10	0	8.0610	0	33.8140	0	26.336	0	158.739	0	178.3	4	61.7	4	-1E+10	1	-1E+10	1	-1E+10	1	-1E+10	1	-1E+10	1	-1E+10	1
4901784	34	C	06/09/2016	10:52	-132.253	44.993	0	162.70	0	8.0120	0	33.8380	0	26.362	0	161.316	0	178.2	4	61.6	4	-1E+10	1	-1E+10	1	-1E+10	1	-1E+10	1	-1E+10	1	-1E+10	1
4901784	34	C	06/09/2016	10:52	-132.253	44.993	0	164.50	0	8.0190	0	33.8440	0	26.366	0	163.100	0	178.5	4	61.7	4	-1E+10	1	-1E+10	1	-1E+10	1	-1E+10	1	-1E+10	1	-1E+10	1
4901784	34	C	06/09/2016	10:52	-132.253	44.993	0	167.30	0	8.0480	0	33.8680	0	26.380	0	165.875	0	178.0	4	61.6	4	-1E+10	1	-1E+10	1	-1E+10	1	-1E+10	1	-1E+10	1	-1E+10	1
4901784	34	C	06/09/2016	10:52	-132.253	44.993	0	170.10	0	8.0260	0	33.8760	0	26.390	0	168.650	0	177.1	4	61.3	4	-1E+10	1	-1E+10	1	-1E+10	1	-1E+10	1	-1E+10	1	-1E+10	1
4901784	34	C	06/09/2016	10:52	-132.253	44.993	0	172.00	0	8.0240	0	33.8770	0	26.391	0	170.533	0	176.3	4	61.0	4	-1E+10	1	-1E+10	1	-1E+10	1	-1E+10	1	-1E+10	1	-1E+10	1
4901784	34	C	06/09/2016	10:52	-132.253	44.993	0	174.80	0	8.0110	0	33.8790	0	26.395	0	173.308	0	174.8	4	60.5	4	-1E+10	1	-1E+10	1	-1E+10	1	-1E+10	1	-1E+10	1	-1E+10	1
4901784	34	C	06/09/2016	10:52	-132.253	44.993	0	177.50	0	7.9150	0	33.8780	0	26.408	0	175.984	0	173.0	4	59.7	4	-1E+10	1	-1E+10	1	-1E+10	1	-1E+10	1	-1E+10	1	-1E+10	1
4901784	34	C	06/09/2016	10:52	-132.253	44.993	0	180.00	0	7.8880	0	33.8860	0	26.418	0	178.461	0	171.4	4	59.1	4	-1E+10	1	-1E+10	1	-1E+10	1	-1E+10	1	-1E+10	1	-1E+10	1
4901784	34	C	06/09/2016	10:52	-132.253	44.993	0	182.60	0	7.8090	0	33.8820	0	26.427	0	181.038	0	169.5	4	58.3	4	-1E+10	1	-1E+10	1	-1E+10	1	-1E+10	1	-1E+10	1	-1E+10	1
4901784	34	C	06/09/2016	10:52	-132.253	44.993	0	184.90	0	7.7860	0	33.8800	0	26.429	0	183.317	0	167.7	4	57.7	4	-1E+10	1	-1E+10	1	-1E+10	1	-1E+10	1	-1E+10	1	-1E+10	1
4901784	34	C	06/09/2016	10:52	-132.253	44.993	0	187.30	0	7.7620	0	33.8790	0	26.431	0	185.695	0	165.4	4	56.9	4	-1E+10	1	-1E+10	1	-1E+10	1	-1E+10	1	-1E+10	1	-1E+10	1
4901784	34	C	06/09/2016	10:52	-132.253	44.993	0	190.40	0	7.7110	0	33.8770	0	26.437	0	188.768	0	162.1	4	55.7	4	-1E+10	1	-1E+10	1	-1E+10	1	-1E+10	1	-1E+10	1	-1E+10	1
4901784	34	C	06/09/2016	10:52	-132.253	44.993	0	192.80	0	7.6050	0	33.8750	0	26.451	0	191.146	0	160.7	4	55.1	4	-1E+10	1	-1E+10	1	-1E+10	1	-1E+10	1	-1E+10	1	-1E+10	1
4901784	34	C	06/09/2016	10:52	-132.253	44.993	0	195.20	0	7.5650	0	33.8770	0	26.458	0	193.524	0	159.7	4	54.7	4	-1E+10	1	-1E+10	1	-1E+10	1	-1E+10	1	-1E+10	1	-1E+10	1
4901784	34	C	06/09/2016	10:52	-132.253	44.993	0	197.60	0	7.5460	0	33.8770	0	26.461	0	195.902	0	159.4	4	54.5	4	-1E+10	1	-1E+10	1	-1E+10	1	-1E+10	1	-1E+10	1	-1E+10	1
4901784	34	C	06/09/2016	10:52	-132.253	44.993	0	200.00	0	7.5480	0	33.8810	0	26.464	0	198.281	0	159.3	4	54.5	4	-1E+10	1	-1E+10	1	-1E+10	1	-1E+10	1	-1E+10	1	-1E+10	1
4901784	34	C	06/09/2016	10:52	-132.253	44.993	0	202.40	0	7.5260	0	33.8920	0	26.475	0	200.659	0	158.5	4	54.2	4	-1E+10	1	-1E+10	1	-1E+10	1	-1E+10	1	-1E+10	1	-1E+10	1
4901784	34	C	06/09/2016	10:52	-132.253	44.993	0	204.70	0	7.4930	0	33.8900	0	26.479	0	202.938	0	157.7	4	53.9	4	-1E+10	1	-1E+10	1	-1E+10	1	-1E+10	1	-1E+10	1	-1E+10	1
4901784	34	C	06/09/2016	10:52	-132.253	44.993	0	207.20	0	7.4360	0	33.8900	0	26.487	0	205.415	0	157.2	4	53.7	4	-1E+10	1	-1E+10	1	-1E+10	1	-1E+10	1	-1E+10	1	-1E+10	1
4901784	34	C	06/09/2016	10:52	-132.253	44.993	0	209.70	0	7.4190	0	33.8920	0	26.491	0	207.892	0	156.8	4	53.5	4	-1E+10	1	-1E+10	1	-1E+10	1	-1E+10	1	-1E+10	1	-1E+10	1
4901784	34	C	06/09/2016	10:52	-132.253	44.993	0	212.20	0	7.4030	0	33.8960	0	26.496	0	210.370	0	156.2	4	53.3	4	-1E+10	1	-1E+10	1	-1E+10	1	-1E+10	1	-1E+10	1	-1E+10	1
4901784	34	C	06/09/2016	10:52	-132.253	44.993	0	214.70	0	7.3800	0	33.8960	0	26.499	0	212.847	0	155.9	4	53.1	4	-1E+10	1	-1E+10	1	-1E+10	1	-1E+10	1	-1E+10	1	-1E+10	1
4901784	34	C	06/09/2016	10:52	-132.253	44.993	0	217.30	0	7.3600	0	33.8950	0	26.502	0	215.423	0	155.5	4	53.0	4	-1E+10	1	-1E+10	1	-1E+10	1	-1E+10	1	-1E+10	1	-1E+10	1
4901784	34	C	06/09/2016	10:52	-132.253	44.993	0	219.80	0	7.3550	0	33.8950	0	26.502	0	217.900	0	154.7	4	52.7	4	-1E+10	1	-1E+10	1	-1E+10	1	-1E+10	1	-1E+10	1	-1E+10	1
4901784	34	C	06/09/2016	10:52	-132.253	44.993	0	222.30	0	7.3430	0	33.8940	0	26.503	0	220.377	0	153.3	4	52.2	4	-1E+10	1	-1E+10	1	-1E+10	1	-1E+10	1	-1E+10	1	-1E+10	1
4901784	34	C	06/09/2016	10:52	-132.253	44.993	0	224.90	0	7.2810	0	33.8970	0	26.514	0	222.953	0	151.9	4	51.7	4	-1E+10	1	-1E+10	1	-1E+10	1	-1E+10	1	-1E+10	1	-1E+10	1
4901784	34	C	06/09/2016	10:52	-132.253	44.993	0	227.40	0	7.2410	0	33.8960	0	26.519	0	225.430	0	150.3	4	51.1	4	-1E+10	1	-1E+10	1	-1E+10	1	-1E+10	1	-1E+10	1	-1E+10	1
4901784	34	C	06/09/2016	10:52	-132.253	44.993	0	229.90	0	7.1830	0	33.8960	0	26.527	0	227.907	0	148.4	4	50.4	4	-1E+10	1	-1E+10	1	-1E+10	1	-1E+10	1	-1E+10	1	-1E+10	1
4901784	34	C	06/09/2016	10:52	-132.253	44.993	0	232.50	0	7.1440	0	33.8940	0	26.531	0	230.483	0	146.7	4	49.7	4	-1E+10	1	-1E+10	1	-1E+10	1	-1E+10	1	-1E+10	1	-1E+10	1
4901784	34	C	06/09/2016	10:52	-132.253	44.993	0	234.90	0	7.1020	0	33.8950	0	26.538	0	232.861	0	145.0	4	49.1	4	-1E+10	1	-1E+10	1	-1E+10	1	-1E+10	1	-1E+10	1	-1E+10	1
4901784	34	C	06/09/2016	10:52	-132.253	44.993	0	237.40	0	7.0590	0	33.8990	0	26.547	0	235.338	0	143.9	4	48.7	4	-1E+10	1	-1E+10	1	-1E+10	1	-1E+10	1	-1E+10	1	-1E+10	1
4901784	34	C	06/09/2016	10:52	-132.253	44.993	0	240.00	0	7.0260	0	33.8990	0	26.551	0	237.914	0	142.7	4	48.3	4	-1E+10	1	-1E+10	1	-1E+10	1	-1E+10	1	-1E+10	1	-1E+10	1
4901784	34	C	06/09/2016	10:52	-132.253	44.993	0	242.60	0	6.9740	0	33.9000	0	26.559	0	240.490	0	141.9	4	48.0	4	-1E+10	1	-1E+10	1	-1E+10	1	-1E+10	1	-1E+10	1	-1E+10	1
4901784	34	C	06/09/2016	10:52	-132.253	44.993	0	245.10	0	6.9530	0	33.9020	0	26.564	0	242.966	0	140.8	4	47.6	4	-1E+10	1	-1E+10	1	-1E+10	1	-1E+10	1	-1E+10	1	-1E+10	1
4901784	34	C	06/09/2016	10:52	-132.253	44.993	0	247.60	0	6.9330	0	33.9010	0	26.565	0	245.443	0	139.3	4	47.0	4	-1E+10	1	-1E+10	1	-1E+10	1	-1E+10	1	-1E+10	1	-1E+10	1
4901784	34	C	06/09/2016	10:52	-132.253	44.993	0	250.10	0	6.9050	0	33.9010	0	26.569	0	247.920	0	138.0	4	46.5	4	-1E+10	1	-1E+10	1	-1E+10	1	-1E+10	1	-1E+10	1	-1E+10	1
4901784	34	C	06/09/2016	10:52	-132.253	44.993	0	252.70	0	6.8570	0	33.9010	0	26.576	0	250.496	0	136.3	4	45.9	4	-1E+10	1	-1E+10	1	-1E+10	1	-1E+10	1	-1E+10	1	-1E+10	1
4901784	34	C	06/09/2016	10:52	-132.253	44.993	0	255.20	0	6.8340	0	33.9010	0	26.579	0	252.972	0	135.4	4	45.6	4	-1E+10	1	-1E+10	1	-1E+10	1	-1E+10	1	-1E+10	1	-1E+10	1
4901784	34	C	06/09/2016	10:52	-132.253	44.993	0	257.70	0	6.8230	0	33.8990	0	26.579	0	255.449	0	133.7	4	45.0	4	-1E+10	1	-1E+10	1	-1E+10	1	-1E+10	1	-1E+10	1	-1E+10	1
4901784	34	C	06/09/2016	10:52	-132.253	44.993	0	260.30	0	6.7360	0	33.9030	0	26.594	0	258.025	0	131.9	4	44.3	4	-1E+10	1	-1E+10	1	-1E+10	1	-1E+10	1	-1E+10	1	-1E+10	1
4901784	34	C	06/09/2016	10:52	-132.253	44.993	0	262.80	0	6.6780	0	33.9030	0	26.601	0	260.501	0	128.9	4	43.3	4	-1E+10	1	-1E+10	1	-1E+10	1	-1E+10	1	-1E+10	1	-1E+10	1
4901784	34	C	06/09/2016	10:52	-132.253	44.993	0	265.40	0	6.6430	0	33.9050	0	26.608	0	263.077	0	127.1	4	42.6	4	-1E+10	1	-1E+10	1	-1E+10	1	-1E+10	1	-1E+10	1	-1E+10	1
4901784	34	C	06/09/2016	10:52	-132.253	44.993	0	267.80	0	6.6160	0	33.9050	0	26.611	0	265.454	0	126.1	4	42.3	4	-1E+10	1	-1E+10	1	-1E+10	1	-1E+10	1	-1E+10	1	-1E+10	1
4901784	34	C	06/09/2016	10:52	-132.253	44.993	0	270.40	0	6.5880	0	33.9060	0	26.616	0	268.030	0	123.4	4	41.3	4	-1E+10	1	-1E+10	1	-1E+10	1	-1E+10	1	-1E+10	1	-1E+10	1
4901784	34	C	06/09/2016	10:52	-132.253	44.993	0	272.90	0	6.5400	0	33.9090	0	26.624	0	270.506	0	121.4	4	40.6	4	-1E+10	1	-1E+10	1	-1E+10	1	-1E+10	1	-1E+10	1	-1E+10	1
4901784	34	C	06/09/2016	10:52	-132.253	44.993	0	274.60	0	6.5250	0	33.9080	0	26.626	0	272.190	0	123.3	4	41.2	4	-1E+10	1	-1E+10	1	-1E+10	1	-1E+10	1	-1E+10	1	-1E+10	1
4901784	34	C	06/09/2016	10:52	-132.253	44.993	0	277.10	0	6.5060	0	33.9080	0	26.628	0	274.667	0	123.9	4	41.4	4	-1E+10	1	-1E+10	1	-1E+10	1	-1E+10	1	-1E+10	1	-1E+10	1
4901784	34	C	06/09/2016	10:52	-132.253	44.993	0	279.70	0	6.4750	0	33.9090	0	26.633	0	277.242	0	122.7	4	41.0	4	-1E+10	1	-1E+10	1	-1E+10	1	-1E+10	1	-1E+10	1	-1E+10	1
4901784	34	C	06/09/2016	10:52	-132.253	44.993	0	282.10	0	6.4470	0	33.9080	0	26.636	0	279.619	0	123.1	4	41.1	4	-1E+10	1	-1E+10	1	-1E+10	1	-1E+10	1	-1E+10	1	-1E+10	1
4901784	34	C	06/09/2016	10:52	-132.253	44.993	0	284.70	0	6.4150	0	33.9090	0	26.641	0	282.195	0	126.3	4	42.1	4	-1E+10	1	-1E+10	1	-1E+10	1	-1E+10	1	-1E+10	1	-1E+10	1
4901784	34	C	06/09/2016	10:52	-132.253	44.993	0	287.30	0	6.3630	0	33.9070	0	26.646	0	284.770	0	126.1	4	42.0	4	-1E+10	1	-1E+10	1	-1E+10	1	-1E+10	1	-1E+10	1	-1E+10	1
4901784	34	C	06/09/2016	10:52	-132.253	44.993	0	289.80	0	6.3430	0	33.9070	0	26.649	0	287.246	0	124.6	4	41.5	4	-1E+10	1	-1E+10	1	-1E+10	1	-1E+10	1	-1E+10	1	-1E+10	1
4901784	34	C	06/09/2016	10:52	-132.253	44.993	0	292.30	0	6.2940	0	33.9080	0	26.656	0	289.722	0	123.4	4	41.1	4	-1E+10	1	-1E+10	1	-1E+10	1	-1E+10	1	-1E+10	1	-1E+10	1
4901784	34	C	06/09/2016	10:52	-132.253	44.993	0	294.80	0	6.2640	0	33.9080	0	26.660	0	292.199	0	122.5	4	40.7	4	-1E+10	1	-1E+10	1	-1E+10	1	-1E+10	1	-1E+10	1	-1E+10	1
4901784	34	C	06/09/2016	10:52	-132.253	44.993	0	297.30	0	6.2470	0	33.9070	0	26.661	0	294.675	0	121.4	4	40.3	4	-1E+10	1	-1E+10	1	-1E+10	1	-1E+10	1	-1E+10	1	-1E+10	1
4901784	34	C	06/09/2016	10:52	-132.253	44.993	0	299.80	0	6.2000	0	33.9060	0	26.666	0	297.151	0	119.8	4	39.8	4	-1E+10	1	-1E+10	1	-1E+10	1	-1E+10	1	-1E+10	1	-1E+10	1
4901784	34	C	06/09/2016	10:52	-132.253	44.993	0	302.40	0	6.1610	0	33.9080	0	26.673	0	299.726	0	118.7	4	39.4	4	-1E+10	1	-1E+10	1	-1E+10	1	-1E+10	1	-1E+10	1	-1E+10	1
4901784	34	C	06/09/2016	10:52	-132.253	44.993	0	304.90	0	6.1170	0	33.9080	0	26.678	0	302.202	0	118.3	4	39.2	4	-1E+10	1	-1E+10	1	-1E+10	1	-1E+10	1	-1E+10	1	-1E+10	1
4901784	34	C	06/09/2016	10:52	-132.253	44.993	0	307.50	0	6.0900	0	33.9070	0	26.681	0	304.777	0	117.6	4	38.9	4	-1E+10	1	-1E+10	1	-1E+10	1	-1E+10	1	-1E+10	1	-1E+10	1
4901784	34	C	06/09/2016	10:52	-132.253	44.993	0	310.10	0	6.0620	0	33.9070	0	26.685	0	307.352	0	116.4	4	38.5	4	-1E+10	1	-1E+10	1	-1E+10	1	-1E+10	1	-1E+10	1	-1E+10	1
4901784	34	C	06/09/2016	10:52	-132.253	44.993	0	312.60	0	6.0150	0	33.9080	0	26.691	0	309.828	0	115.1	4	38.0	4	-1E+10	1	-1E+10	1	-1E+10	1	-1E+10	1	-1E+10	1	-1E+10	1
4901784	34	C	06/09/2016	10:52	-132.253	44.993	0	315.10	0	5.9730	0	33.9060	0	26.695	0	312.304	0	113.5	4	37.5	4	-1E+10	1	-1E+10	1	-1E+10	1	-1E+10	1	-1E+10	1	-1E+10	1
4901784	34	C	06/09/2016	10:52	-132.253	44.993	0	317.80	0	5.9330	0	33.9080	0	26.702	0	314.978	0	111.8	4	36.9	4	-1E+10	1	-1E+10	1	-1E+10	1	-1E+10	1	-1E+10	1	-1E+10	1
4901784	34	C	06/09/2016	10:52	-132.253	44.993	0	320.40	0	5.9000	0	33.9090	0	26.707	0	317.553	0	110.3	4	36.4	4	-1E+10	1	-1E+10	1	-1E+10	1	-1E+10	1	-1E+10	1	-1E+10	1
4901784	34	C	06/09/2016	10:52	-132.253	44.993	0	322.10	0	5.8880	0	33.9080	0	26.707	0	319.237	0	109.4	4	36.0	4	-1E+10	1	-1E+10	1	-1E+10	1	-1E+10	1	-1E+10	1	-1E+10	1
4901784	34	C	06/09/2016	10:52	-132.253	44.993	0	324.70	0	5.8380	0	33.9100	0	26.715	0	321.812	0	107.3	4	35.3	4	-1E+10	1	-1E+10	1	-1E+10	1	-1E+10	1	-1E+10	1	-1E+10	1
4901784	34	C	06/09/2016	10:52	-132.253	44.993	0	327.30	0	5.8120	0	33.9100	0	26.718	0	324.386	0	104.8	4	34.5	4	-1E+10	1	-1E+10	1	-1E+10	1	-1E+10	1	-1E+10	1	-1E+10	1
4901784	34	C	06/09/2016	10:52	-132.253	44.993	0	329.90	0	5.7810	0	33.9110	0	26.723	0	326.961	0	101.9	4	33.5	4	-1E+10	1	-1E+10	1	-1E+10	1	-1E+10	1	-1E+10	1	-1E+10	1
4901784	34	C	06/09/2016	10:52	-132.253	44.993	0	332.50	0	5.7560	0	33.9160	0	26.730	0	329.536	0	97.8	4	32.1	4	-1E+10	1	-1E+10	1	-1E+10	1	-1E+10	1	-1E+10	1	-1E+10	1
4901784	34	C	06/09/2016	10:52	-132.253	44.993	0	335.20	0	5.7440	0	33.9180	0	26.733	0	332.210	0	95.3	4	31.3	4	-1E+10	1	-1E+10	1	-1E+10	1	-1E+10	1	-1E+10	1	-1E+10	1
4901784	34	C	06/09/2016	10:52	-132.253	44.993	0	337.90	0	5.7460	0	33.9210	0	26.735	0	334.884	0	93.2	4	30.6	4	-1E+10	1	-1E+10	1	-1E+10	1	-1E+10	1	-1E+10	1	-1E+10	1
4901784	34	C	06/09/2016	10:52	-132.253	44.993	0	339.70	0	5.7410	0	33.9220	0	26.737	0	336.666	0	92.4	4	30.3	4	-1E+10	1	-1E+10	1	-1E+10	1	-1E+10	1	-1E+10	1	-1E+10	1
4901784	34	C	06/09/2016	10:52	-132.253	44.993	0	342.40	0	5.7300	0	33.9240	0	26.740	0	339.340	0	91.9	4	30.2	4	-1E+10	1	-1E+10	1	-1E+10	1	-1E+10	1	-1E+10	1	-1E+10	1
4901784	34	C	06/09/2016	10:52	-132.253	44.993	0	345.00	0	5.7200	0	33.9260	0	26.742	0	341.914	0	92.7	4	30.4	4	-1E+10	1	-1E+10	1	-1E+10	1	-1E+10	1	-1E+10	1	-1E+10	1
4901784	34	C	06/09/2016	10:52	-132.253	44.993	0	347.70	0	5.6370	0	33.9210	0	26.748	0	344.588	0	94.6	4	31.0	4	-1E+10	1	-1E+10	1	-1E+10	1	-1E+10	1	-1E+10	1	-1E+10	1
4901784	34	C	06/09/2016	10:52	-132.253	44.993	0	350.40	0	5.5850	0	33.9190	0	26.753	0	347.261	0	94.9	4	31.0	4	-1E+10	1	-1E+10	1	-1E+10	1	-1E+10	1	-1E+10	1	-1E+10	1
4901784	34	C	06/09/2016	10:52	-132.253	44.993	0	352.20	0	5.5720	0	33.9190	0	26.755	0	349.044	0	94.0	4	30.8	4	-1E+10	1	-1E+10	1	-1E+10	1	-1E+10	1	-1E+10	1	-1E+10	1
4901784	34	C	06/09/2016	10:52	-132.253	44.993	0	355.00	0	5.5650	0	33.9230	0	26.759	0	351.816	0	93.9	4	30.7	4	-1E+10	1	-1E+10	1	-1E+10	1	-1E+10	1	-1E+10	1	-1E+10	1
4901784	34	C	06/09/2016	10:52	-132.253	44.993	0	357.70	0	5.5200	0	33.9200	0	26.762	0	354.490	0	95.0	4	31.0	4	-1E+10	1	-1E+10	1	-1E+10	1	-1E+10	1	-1E+10	1	-1E+10	1
4901784	34	C	06/09/2016	10:52	-132.253	44.993	0	359.50	0	5.4940	0	33.9190	0	26.764	0	356.272	0	95.1	4	31.1	4	-1E+10	1	-1E+10	1	-1E+10	1	-1E+10	1	-1E+10	1	-1E+10	1
4901784	34	C	06/09/2016	10:52	-132.253	44.993	0	362.40	0	5.4800	0	33.9180	0	26.765	0	359.144	0	94.6	4	30.9	4	-1E+10	1	-1E+10	1	-1E+10	1	-1E+10	1	-1E+10	1	-1E+10	1
4901784	34	C	06/09/2016	10:52	-132.253	44.993	0	365.20	0	5.4460	0	33.9170	0	26.768	0	361.916	0	94.4	4	30.8	4	-1E+10	1	-1E+10	1	-1E+10	1	-1E+10	1	-1E+10	1	-1E+10	1
4901784	34	C	06/09/2016	10:52	-132.253	44.993	0	367.10	0	5.4070	0	33.9170	0	26.773	0	363.797	0	94.1	4	30.7	4	-1E+10	1	-1E+10	1	-1E+10	1	-1E+10	1	-1E+10	1	-1E+10	1
4901784	34	C	06/09/2016	10:52	-132.253	44.993	0	369.90	0	5.3730	0	33.9170	0	26.777	0	366.570	0	94.1	4	30.6	4	-1E+10	1	-1E+10	1	-1E+10	1	-1E+10	1	-1E+10	1	-1E+10	1
4901784	34	C	06/09/2016	10:52	-132.253	44.993	0	372.80	0	5.3440	0	33.9170	0	26.780	0	369.441	0	93.7	4	30.5	4	-1E+10	1	-1E+10	1	-1E+10	1	-1E+10	1	-1E+10	1	-1E+10	1
4901784	34	C	06/09/2016	10:52	-132.253	44.993	0	374.70	0	5.3370	0	33.9160	0	26.780	0	371.322	0	92.8	4	30.2	4	-1E+10	1	-1E+10	1	-1E+10	1	-1E+10	1	-1E+10	1	-1E+10	1
4901784	34	C	06/09/2016	10:52	-132.253	44.993	0	377.50	0	5.3070	0	33.9190	0	26.786	0	374.094	0	91.1	4	29.6	4	-1E+10	1	-1E+10	1	-1E+10	1	-1E+10	1	-1E+10	1	-1E+10	1
4901784	34	C	06/09/2016	10:52	-132.253	44.993	0	380.40	0	5.2690	0	33.9210	0	26.792	0	376.966	0	89.9	4	29.2	4	-1E+10	1	-1E+10	1	-1E+10	1	-1E+10	1	-1E+10	1	-1E+10	1
4901784	34	C	06/09/2016	10:52	-132.253	44.993	0	382.30	0	5.2600	0	33.9210	0	26.793	0	378.847	0	88.6	4	28.8	4	-1E+10	1	-1E+10	1	-1E+10	1	-1E+10	1	-1E+10	1	-1E+10	1
4901784	34	C	06/09/2016	10:52	-132.253	44.993	0	384.20	0	5.2480	0	33.9220	0	26.796	0	380.728	0	87.7	4	28.5	4	-1E+10	1	-1E+10	1	-1E+10	1	-1E+10	1	-1E+10	1	-1E+10	1
4901784	34	C	06/09/2016	10:52	-132.253	44.993	0	387.30	0	5.2140	0	33.9250	0	26.802	0	383.797	0	87.0	4	28.2	4	-1E+10	1	-1E+10	1	-1E+10	1	-1E+10	1	-1E+10	1	-1E+10	1
4901784	34	C	06/09/2016	10:52	-132.253	44.993	0	390.20	0	5.1920	0	33.9260	0	26.805	0	386.668	0	86.3	4	28.0	4	-1E+10	1	-1E+10	1	-1E+10	1	-1E+10	1	-1E+10	1	-1E+10	1
4901784	34	C	06/09/2016	10:52	-132.253	44.993	0	392.60	0	5.1780	0	33.9280	0	26.809	0	389.044	0	85.6	4	27.8	4	-1E+10	1	-1E+10	1	-1E+10	1	-1E+10	1	-1E+10	1	-1E+10	1
4901784	34	C	06/09/2016	10:52	-132.253	44.993	0	395.10	0	5.1680	0	33.9280	0	26.810	0	391.519	0	85.1	4	27.6	4	-1E+10	1	-1E+10	1	-1E+10	1	-1E+10	1	-1E+10	1	-1E+10	1
4901784	34	C	06/09/2016	10:52	-132.253	44.993	0	397.40	0	5.1590	0	33.9290	0	26.812	0	393.796	0	84.4	4	27.4	4	-1E+10	1	-1E+10	1	-1E+10	1	-1E+10	1	-1E+10	1	-1E+10	1
4901784	34	C	06/09/2016	10:52	-132.253	44.993	0	399.80	0	5.1450	0	33.9300	0	26.814	0	396.172	0	83.6	4	27.1	4	-1E+10	1	-1E+10	1	-1E+10	1	-1E+10	1	-1E+10	1	-1E+10	1
4901784	34	C	06/09/2016	10:52	-132.253	44.993	0	402.20	0	5.1370	0	33.9310	0	26.816	0	398.548	0	82.7	4	26.8	4	-1E+10	1	-1E+10	1	-1E+10	1	-1E+10	1	-1E+10	1	-1E+10	1
4901784	34	C	06/09/2016	10:52	-132.253	44.993	0	404.70	0	5.1380	0	33.9310	0	26.816	0	401.023	0	81.6	4	26.4	4	-1E+10	1	-1E+10	1	-1E+10	1	-1E+10	1	-1E+10	1	-1E+10	1
4901784	34	C	06/09/2016	10:52	-132.253	44.993	0	407.10	0	5.1360	0	33.9310	0	26.816	0	403.399	0	79.7	4	25.8	4	-1E+10	1	-1E+10	1	-1E+10	1	-1E+10	1	-1E+10	1	-1E+10	1
4901784	34	C	06/09/2016	10:52	-132.253	44.993	0	410.40	0	5.1170	0	33.9350	0	26.821	0	406.665	0	75.9	4	24.6	4	-1E+10	1	-1E+10	1	-1E+10	1	-1E+10	1	-1E+10	1	-1E+10	1
4901784	34	C	06/09/2016	10:52	-132.253	44.993	0	412.90	0	5.0880	0	33.9410	0	26.829	0	409.140	0	73.5	4	23.8	4	-1E+10	1	-1E+10	1	-1E+10	1	-1E+10	1	-1E+10	1	-1E+10	1
4901784	34	C	06/09/2016	10:52	-132.253	44.993	0	414.60	0	5.0830	0	33.9430	0	26.832	0	410.823	0	73.0	4	23.6	4	-1E+10	1	-1E+10	1	-1E+10	1	-1E+10	1	-1E+10	1	-1E+10	1
4901784	34	C	06/09/2016	10:52	-132.253	44.993	0	417.30	0	5.0780	0	33.9440	0	26.833	0	413.496	0	72.3	4	23.4	4	-1E+10	1	-1E+10	1	-1E+10	1	-1E+10	1	-1E+10	1	-1E+10	1
4901784	34	C	06/09/2016	10:52	-132.253	44.993	0	419.90	0	5.0670	0	33.9440	0	26.834	0	416.069	0	71.5	4	23.1	4	-1E+10	1	-1E+10	1	-1E+10	1	-1E+10	1	-1E+10	1	-1E+10	1
4901784	34	C	06/09/2016	10:52	-132.253	44.993	0	422.40	0	5.0420	0	33.9470	0	26.840	0	418.544	0	70.8	4	22.9	4	-1E+10	1	-1E+10	1	-1E+10	1	-1E+10	1	-1E+10	1	-1E+10	1
4901784	34	C	06/09/2016	10:52	-132.253	44.993	0	425.00	0	5.0310	0	33.9480	0	26.842	0	421.118	0	70.1	4	22.7	4	-1E+10	1	-1E+10	1	-1E+10	1	-1E+10	1	-1E+10	1	-1E+10	1
4901784	34	C	06/09/2016	10:52	-132.253	44.993	0	427.60	0	5.0100	0	33.9510	0	26.846	0	423.691	0	69.4	4	22.4	4	-1E+10	1	-1E+10	1	-1E+10	1	-1E+10	1	-1E+10	1	-1E+10	1
4901784	34	C	06/09/2016	10:52	-132.253	44.993	0	430.20	0	4.9970	0	33.9530	0	26.849	0	426.265	0	69.0	4	22.3	4	-1E+10	1	-1E+10	1	-1E+10	1	-1E+10	1	-1E+10	1	-1E+10	1
4901784	34	C	06/09/2016	10:52	-132.253	44.993	0	432.00	0	4.9810	0	33.9550	0	26.853	0	428.046	0	69.1	4	22.3	4	-1E+10	1	-1E+10	1	-1E+10	1	-1E+10	1	-1E+10	1	-1E+10	1
4901784	34	C	06/09/2016	10:52	-132.253	44.993	0	434.70	0	4.9550	0	33.9550	0	26.856	0	430.719	0	68.8	4	22.2	4	-1E+10	1	-1E+10	1	-1E+10	1	-1E+10	1	-1E+10	1	-1E+10	1
4901784	34	C	06/09/2016	10:52	-132.253	44.993	0	437.30	0	4.9490	0	33.9560	0	26.857	0	433.292	0	67.8	4	21.9	4	-1E+10	1	-1E+10	1	-1E+10	1	-1E+10	1	-1E+10	1	-1E+10	1
4901784	34	C	06/09/2016	10:52	-132.253	44.993	0	440.00	0	4.9380	0	33.9570	0	26.859	0	435.965	0	66.2	4	21.3	4	-1E+10	1	-1E+10	1	-1E+10	1	-1E+10	1	-1E+10	1	-1E+10	1
4901784	34	C	06/09/2016	10:52	-132.253	44.993	0	442.60	0	4.9170	0	33.9620	0	26.866	0	438.538	0	63.7	4	20.5	4	-1E+10	1	-1E+10	1	-1E+10	1	-1E+10	1	-1E+10	1	-1E+10	1
4901784	34	C	06/09/2016	10:52	-132.253	44.993	0	445.20	0	4.9170	0	33.9680	0	26.871	0	441.112	0	62.0	4	20.0	4	-1E+10	1	-1E+10	1	-1E+10	1	-1E+10	1	-1E+10	1	-1E+10	1
4901784	34	C	06/09/2016	10:52	-132.253	44.993	0	447.80	0	4.9080	0	33.9710	0	26.874	0	443.685	0	60.8	4	19.6	4	-1E+10	1	-1E+10	1	-1E+10	1	-1E+10	1	-1E+10	1	-1E+10	1
4901784	34	C	06/09/2016	10:52	-132.253	44.993	0	449.60	0	4.9070	0	33.9710	0	26.874	0	445.466	0	60.0	4	19.3	4	-1E+10	1	-1E+10	1	-1E+10	1	-1E+10	1	-1E+10	1	-1E+10	1
4901784	34	C	06/09/2016	10:52	-132.253	44.993	0	452.30	0	4.9050	0	33.9740	0	26.877	0	448.139	0	58.6	4	18.9	4	-1E+10	1	-1E+10	1	-1E+10	1	-1E+10	1	-1E+10	1	-1E+10	1
4901784	34	C	06/09/2016	10:52	-132.253	44.993	0	455.00	0	4.8900	0	33.9790	0	26.882	0	450.811	0	57.5	4	18.5	4	-1E+10	1	-1E+10	1	-1E+10	1	-1E+10	1	-1E+10	1	-1E+10	1
4901784	34	C	06/09/2016	10:52	-132.253	44.993	0	457.70	0	4.8750	0	33.9820	0	26.886	0	453.483	0	57.1	4	18.4	4	-1E+10	1	-1E+10	1	-1E+10	1	-1E+10	1	-1E+10	1	-1E+10	1
4901784	34	C	06/09/2016	10:52	-132.253	44.993	0	460.40	0	4.8640	0	33.9840	0	26.889	0	456.155	0	57.0	4	18.3	4	-1E+10	1	-1E+10	1	-1E+10	1	-1E+10	1	-1E+10	1	-1E+10	1
4901784	34	C	06/09/2016	10:52	-132.253	44.993	0	462.20	0	4.8340	0	33.9850	0	26.893	0	457.937	0	56.9	4	18.3	4	-1E+10	1	-1E+10	1	-1E+10	1	-1E+10	1	-1E+10	1	-1E+10	1
4901784	34	C	06/09/2016	10:52	-132.253	44.993	0	464.90	0	4.8300	0	33.9850	0	26.894	0	460.609	0	55.7	4	17.9	4	-1E+10	1	-1E+10	1	-1E+10	1	-1E+10	1	-1E+10	1	-1E+10	1
4901784	34	C	06/09/2016	10:52	-132.253	44.993	0	467.50	0	4.8190	0	33.9870	0	26.897	0	463.182	0	53.8	4	17.3	4	-1E+10	1	-1E+10	1	-1E+10	1	-1E+10	1	-1E+10	1	-1E+10	1
4901784	34	C	06/09/2016	10:52	-132.253	44.993	0	470.30	0	4.8040	0	33.9940	0	26.904	0	465.953	0	52.0	4	16.7	4	-1E+10	1	-1E+10	1	-1E+10	1	-1E+10	1	-1E+10	1	-1E+10	1
4901784	34	C	06/09/2016	10:52	-132.253	44.993	0	473.00	0	4.7880	0	33.9980	0	26.909	0	468.625	0	51.0	4	16.4	4	-1E+10	1	-1E+10	1	-1E+10	1	-1E+10	1	-1E+10	1	-1E+10	1
4901784	34	C	06/09/2016	10:52	-132.253	44.993	0	474.80	0	4.7820	0	34.0000	0	26.911	0	470.406	0	50.4	4	16.2	4	-1E+10	1	-1E+10	1	-1E+10	1	-1E+10	1	-1E+10	1	-1E+10	1
4901784	34	C	06/09/2016	10:52	-132.253	44.993	0	477.60	0	4.7760	0	34.0030	0	26.914	0	473.177	0	49.7	4	16.0	4	-1E+10	1	-1E+10	1	-1E+10	1	-1E+10	1	-1E+10	1	-1E+10	1
4901784	34	C	06/09/2016	10:52	-132.253	44.993	0	480.30	0	4.7640	0	34.0050	0	26.917	0	475.849	0	49.2	4	15.8	4	-1E+10	1	-1E+10	1	-1E+10	1	-1E+10	1	-1E+10	1	-1E+10	1
4901784	34	C	06/09/2016	10:52	-132.253	44.993	0	482.10	0	4.7540	0	34.0070	0	26.920	0	477.630	0	48.9	4	15.7	4	-1E+10	1	-1E+10	1	-1E+10	1	-1E+10	1	-1E+10	1	-1E+10	1
4901784	34	C	06/09/2016	10:52	-132.253	44.993	0	484.80	0	4.7410	0	34.0070	0	26.921	0	480.302	0	48.3	4	15.5	4	-1E+10	1	-1E+10	1	-1E+10	1	-1E+10	1	-1E+10	1	-1E+10	1
4901784	34	C	06/09/2016	10:52	-132.253	44.993	0	487.50	0	4.7270	0	34.0070	0	26.923	0	482.974	0	47.6	4	15.3	4	-1E+10	1	-1E+10	1	-1E+10	1	-1E+10	1	-1E+10	1	-1E+10	1
4901784	34	C	06/09/2016	10:52	-132.253	44.993	0	490.20	0	4.6980	0	34.0120	0	26.930	0	485.646	0	46.5	4	14.9	4	-1E+10	1	-1E+10	1	-1E+10	1	-1E+10	1	-1E+10	1	-1E+10	1
4901784	34	C	06/09/2016	10:52	-132.253	44.993	0	492.90	0	4.6740	0	34.0140	0	26.934	0	488.317	0	45.5	4	14.6	4	-1E+10	1	-1E+10	1	-1E+10	1	-1E+10	1	-1E+10	1	-1E+10	1
4901784	34	C	06/09/2016	10:52	-132.253	44.993	0	494.70	0	4.6550	0	34.0190	0	26.940	0	490.099	0	44.6	4	14.3	4	-1E+10	1	-1E+10	1	-1E+10	1	-1E+10	1	-1E+10	1	-1E+10	1
4901784	34	C	06/09/2016	10:52	-132.253	44.993	0	497.50	0	4.6480	0	34.0230	0	26.944	0	492.869	0	43.4	4	13.9	4	-1E+10	1	-1E+10	1	-1E+10	1	-1E+10	1	-1E+10	1	-1E+10	1
4901784	34	C	06/09/2016	10:52	-132.253	44.993	0	500.20	0	4.6340	0	34.0260	0	26.948	0	495.541	0	42.3	4	13.6	4	-1E+10	1	-1E+10	1	-1E+10	1	-1E+10	1	-1E+10	1	-1E+10	1
4901784	34	C	06/09/2016	10:52	-132.253	44.993	0	504.80	0	4.6390	0	34.0340	0	26.954	0	500.093	0	41.5	4	13.3	4	-1E+10	1	-1E+10	1	-1E+10	1	-1E+10	1	-1E+10	1	-1E+10	1
4901784	34	C	06/09/2016	10:52	-132.253	44.993	0	509.30	0	4.5950	0	34.0350	0	26.960	0	504.545	0	40.9	4	13.1	4	-1E+10	1	-1E+10	1	-1E+10	1	-1E+10	1	-1E+10	1	-1E+10	1
4901784	34	C	06/09/2016	10:52	-132.253	44.993	0	514.70	0	4.5590	0	34.0390	0	26.967	0	509.888	0	39.4	4	12.6	4	-1E+10	1	-1E+10	1	-1E+10	1	-1E+10	1	-1E+10	1	-1E+10	1
4901784	34	C	06/09/2016	10:52	-132.253	44.993	0	520.10	0	4.5340	0	34.0460	0	26.975	0	515.231	0	37.6	4	12.0	4	-1E+10	1	-1E+10	1	-1E+10	1	-1E+10	1	-1E+10	1	-1E+10	1
4901784	34	C	06/09/2016	10:52	-132.253	44.993	0	525.50	0	4.5390	0	34.0550	0	26.982	0	520.574	0	35.5	4	11.3	4	-1E+10	1	-1E+10	1	-1E+10	1	-1E+10	1	-1E+10	1	-1E+10	1
4901784	34	C	06/09/2016	10:52	-132.253	44.993	0	530.00	0	4.5140	0	34.0610	0	26.989	0	525.026	0	34.8	4	11.1	4	-1E+10	1	-1E+10	1	-1E+10	1	-1E+10	1	-1E+10	1	-1E+10	1
4901784	34	C	06/09/2016	10:52	-132.253	44.993	0	534.50	0	4.4830	0	34.0640	0	26.995	0	529.478	0	34.1	4	10.9	4	-1E+10	1	-1E+10	1	-1E+10	1	-1E+10	1	-1E+10	1	-1E+10	1
4901784	34	C	06/09/2016	10:52	-132.253	44.993	0	539.90	0	4.4620	0	34.0680	0	27.001	0	534.820	0	33.2	4	10.6	4	-1E+10	1	-1E+10	1	-1E+10	1	-1E+10	1	-1E+10	1	-1E+10	1
4901784	34	C	06/09/2016	10:52	-132.253	44.993	0	545.40	0	4.4540	0	34.0710	0	27.004	0	540.261	0	31.9	4	10.2	4	-1E+10	1	-1E+10	1	-1E+10	1	-1E+10	1	-1E+10	1	-1E+10	1
4901784	34	C	06/09/2016	10:52	-132.253	44.993	0	549.90	0	4.4500	0	34.0770	0	27.009	0	544.713	0	30.5	4	9.7	4	-1E+10	1	-1E+10	1	-1E+10	1	-1E+10	1	-1E+10	1	-1E+10	1
4901784	34	C	06/09/2016	10:52	-132.253	44.993	0	554.50	0	4.4410	0	34.0830	0	27.015	0	549.263	0	29.2	4	9.3	4	-1E+10	1	-1E+10	1	-1E+10	1	-1E+10	1	-1E+10	1	-1E+10	1
4901784	34	C	06/09/2016	10:52	-132.253	44.993	0	559.80	0	4.4330	0	34.0890	0	27.021	0	554.506	0	27.4	4	8.7	4	-1E+10	1	-1E+10	1	-1E+10	1	-1E+10	1	-1E+10	1	-1E+10	1
4901784	34	C	06/09/2016	10:52	-132.253	44.993	0	565.30	0	4.4250	0	34.1020	0	27.032	0	559.947	0	25.7	4	8.2	4	-1E+10	1	-1E+10	1	-1E+10	1	-1E+10	1	-1E+10	1	-1E+10	1
4901784	34	C	06/09/2016	10:52	-132.253	44.993	0	570.00	0	4.4200	0	34.1100	0	27.039	0	564.596	0	24.8	4	7.9	4	-1E+10	1	-1E+10	1	-1E+10	1	-1E+10	1	-1E+10	1	-1E+10	1
4901784	34	C	06/09/2016	10:52	-132.253	44.993	0	574.60	0	4.4110	0	34.1120	0	27.041	0	569.146	0	24.3	4	7.7	4	-1E+10	1	-1E+10	1	-1E+10	1	-1E+10	1	-1E+10	1	-1E+10	1
4901784	34	C	06/09/2016	10:52	-132.253	44.993	0	580.10	0	4.4030	0	34.1170	0	27.046	0	574.586	0	23.4	4	7.4	4	-1E+10	1	-1E+10	1	-1E+10	1	-1E+10	1	-1E+10	1	-1E+10	1
4901784	34	C	06/09/2016	10:52	-132.253	44.993	0	584.80	0	4.4100	0	34.1210	0	27.049	0	579.235	0	22.5	4	7.2	4	-1E+10	1	-1E+10	1	-1E+10	1	-1E+10	1	-1E+10	1	-1E+10	1
4901784	34	C	06/09/2016	10:52	-132.253	44.993	0	589.40	0	4.4080	0	34.1280	0	27.054	0	583.785	0	21.9	4	7.0	4	-1E+10	1	-1E+10	1	-1E+10	1	-1E+10	1	-1E+10	1	-1E+10	1
4901784	34	C	06/09/2016	10:52	-132.253	44.993	0	595.00	0	4.3910	0	34.1320	0	27.060	0	589.324	0	21.5	4	6.9	4	-1E+10	1	-1E+10	1	-1E+10	1	-1E+10	1	-1E+10	1	-1E+10	1
4901784	34	C	06/09/2016	10:52	-132.253	44.993	0	600.50	0	4.3770	0	34.1350	0	27.063	0	594.763	0	21.1	4	6.7	4	-1E+10	1	-1E+10	1	-1E+10	1	-1E+10	1	-1E+10	1	-1E+10	1
4901784	34	C	06/09/2016	10:52	-132.253	44.993	0	605.20	0	4.3600	0	34.1390	0	27.068	0	599.412	0	20.9	4	6.7	4	-1E+10	1	-1E+10	1	-1E+10	1	-1E+10	1	-1E+10	1	-1E+10	1
4901784	34	C	06/09/2016	10:52	-132.253	44.993	0	609.90	0	4.3290	0	34.1410	0	27.073	0	604.060	0	20.8	4	6.6	4	-1E+10	1	-1E+10	1	-1E+10	1	-1E+10	1	-1E+10	1	-1E+10	1
4901784	34	C	06/09/2016	10:52	-132.253	44.993	0	615.50	0	4.2950	0	34.1420	0	27.078	0	609.598	0	20.4	4	6.5	4	-1E+10	1	-1E+10	1	-1E+10	1	-1E+10	1	-1E+10	1	-1E+10	1
4901784	34	C	06/09/2016	10:52	-132.253	44.993	0	620.10	0	4.3030	0	34.1470	0	27.081	0	614.147	0	19.9	4	6.3	4	-1E+10	1	-1E+10	1	-1E+10	1	-1E+10	1	-1E+10	1	-1E+10	1
4901784	34	C	06/09/2016	10:52	-132.253	44.993	0	624.80	0	4.2640	0	34.1500	0	27.087	0	618.795	0	19.4	4	6.2	4	-1E+10	1	-1E+10	1	-1E+10	1	-1E+10	1	-1E+10	1	-1E+10	1
4901784	34	C	06/09/2016	10:52	-132.253	44.993	0	630.40	0	4.2540	0	34.1600	0	27.097	0	624.333	0	18.8	4	6.0	4	-1E+10	1	-1E+10	1	-1E+10	1	-1E+10	1	-1E+10	1	-1E+10	1
4901784	34	C	06/09/2016	10:52	-132.253	44.993	0	635.40	0	4.2490	0	34.1610	0	27.098	0	629.277	0	18.6	4	5.9	4	-1E+10	1	-1E+10	1	-1E+10	1	-1E+10	1	-1E+10	1	-1E+10	1
4901784	34	C	06/09/2016	10:52	-132.253	44.993	0	639.90	0	4.2330	0	34.1640	0	27.102	0	633.727	0	18.2	4	5.8	4	-1E+10	1	-1E+10	1	-1E+10	1	-1E+10	1	-1E+10	1	-1E+10	1
4901784	34	C	06/09/2016	10:52	-132.253	44.993	0	644.80	0	4.2230	0	34.1680	0	27.106	0	638.572	0	17.9	4	5.7	4	-1E+10	1	-1E+10	1	-1E+10	1	-1E+10	1	-1E+10	1	-1E+10	1
4901784	34	C	06/09/2016	10:52	-132.253	44.993	0	649.70	0	4.2180	0	34.1700	0	27.108	0	643.417	0	17.6	4	5.6	4	-1E+10	1	-1E+10	1	-1E+10	1	-1E+10	1	-1E+10	1	-1E+10	1
4901784	34	C	06/09/2016	10:52	-132.253	44.993	0	654.60	0	4.2110	0	34.1730	0	27.112	0	648.262	0	17.3	4	5.5	4	-1E+10	1	-1E+10	1	-1E+10	1	-1E+10	1	-1E+10	1	-1E+10	1
4901784	34	C	06/09/2016	10:52	-132.253	44.993	0	659.60	0	4.2020	0	34.1790	0	27.117	0	653.206	0	16.9	4	5.4	4	-1E+10	1	-1E+10	1	-1E+10	1	-1E+10	1	-1E+10	1	-1E+10	1
4901784	34	C	06/09/2016	10:52	-132.253	44.993	0	664.70	0	4.1900	0	34.1810	0	27.120	0	658.249	0	16.7	4	5.3	4	-1E+10	1	-1E+10	1	-1E+10	1	-1E+10	1	-1E+10	1	-1E+10	1
4901784	34	C	06/09/2016	10:52	-132.253	44.993	0	669.90	0	4.1710	0	34.1840	0	27.125	0	663.390	0	16.5	4	5.2	4	-1E+10	1	-1E+10	1	-1E+10	1	-1E+10	1	-1E+10	1	-1E+10	1
4901784	34	C	06/09/2016	10:52	-132.253	44.993	0	675.00	0	4.1460	0	34.1880	0	27.130	0	668.432	0	16.1	4	5.1	4	-1E+10	1	-1E+10	1	-1E+10	1	-1E+10	1	-1E+10	1	-1E+10	1
4901784	34	C	06/09/2016	10:52	-132.253	44.993	0	680.30	0	4.1390	0	34.1940	0	27.136	0	673.672	0	15.8	4	5.0	4	-1E+10	1	-1E+10	1	-1E+10	1	-1E+10	1	-1E+10	1	-1E+10	1
4901784	34	C	06/09/2016	10:52	-132.253	44.993	0	684.80	0	4.1240	0	34.1970	0	27.140	0	678.121	0	15.7	4	5.0	4	-1E+10	1	-1E+10	1	-1E+10	1	-1E+10	1	-1E+10	1	-1E+10	1
4901784	34	C	06/09/2016	10:52	-132.253	44.993	0	689.40	0	4.1170	0	34.1970	0	27.141	0	682.668	0	15.6	4	4.9	4	-1E+10	1	-1E+10	1	-1E+10	1	-1E+10	1	-1E+10	1	-1E+10	1
4901784	34	C	06/09/2016	10:52	-132.253	44.993	0	695.60	0	4.0920	0	34.2010	0	27.146	0	688.798	0	15.3	4	4.9	4	-1E+10	1	-1E+10	1	-1E+10	1	-1E+10	1	-1E+10	1	-1E+10	1
4901784	34	C	06/09/2016	10:52	-132.253	44.993	0	700.60	0	4.0660	0	34.2060	0	27.153	0	693.740	0	15.1	4	4.8	4	-1E+10	1	-1E+10	1	-1E+10	1	-1E+10	1	-1E+10	1	-1E+10	1
4901784	34	C	06/09/2016	10:52	-132.253	44.993	0	705.20	0	4.0560	0	34.2100	0	27.157	0	698.288	0	14.8	4	4.7	4	-1E+10	1	-1E+10	1	-1E+10	1	-1E+10	1	-1E+10	1	-1E+10	1
4901784	34	C	06/09/2016	10:52	-132.253	44.993	0	709.90	0	4.0470	0	34.2130	0	27.161	0	702.934	0	14.6	4	4.6	4	-1E+10	1	-1E+10	1	-1E+10	1	-1E+10	1	-1E+10	1	-1E+10	1
4901784	34	C	06/09/2016	10:52	-132.253	44.993	0	714.60	0	4.0370	0	34.2150	0	27.163	0	707.580	0	14.4	4	4.6	4	-1E+10	1	-1E+10	1	-1E+10	1	-1E+10	1	-1E+10	1	-1E+10	1
4901784	34	C	06/09/2016	10:52	-132.253	44.993	0	719.40	0	4.0210	0	34.2210	0	27.170	0	712.324	0	14.3	4	4.5	4	-1E+10	1	-1E+10	1	-1E+10	1	-1E+10	1	-1E+10	1	-1E+10	1
4901784	34	C	06/09/2016	10:52	-132.253	44.993	0	724.30	0	4.0160	0	34.2220	0	27.171	0	717.168	0	14.2	4	4.5	4	-1E+10	1	-1E+10	1	-1E+10	1	-1E+10	1	-1E+10	1	-1E+10	1
4901784	34	C	06/09/2016	10:52	-132.253	44.993	0	729.30	0	4.0090	0	34.2230	0	27.173	0	722.110	0	14.1	4	4.5	4	-1E+10	1	-1E+10	1	-1E+10	1	-1E+10	1	-1E+10	1	-1E+10	1
4901784	34	C	06/09/2016	10:52	-132.253	44.993	0	734.40	0	3.9980	0	34.2250	0	27.175	0	727.151	0	13.9	4	4.4	4	-1E+10	1	-1E+10	1	-1E+10	1	-1E+10	1	-1E+10	1	-1E+10	1
4901784	34	C	06/09/2016	10:52	-132.253	44.993	0	739.50	0	3.9810	0	34.2290	0	27.180	0	732.191	0	13.7	4	4.3	4	-1E+10	1	-1E+10	1	-1E+10	1	-1E+10	1	-1E+10	1	-1E+10	1
4901784	34	C	06/09/2016	10:52	-132.253	44.993	0	744.60	0	3.9680	0	34.2320	0	27.184	0	737.232	0	13.7	4	4.3	4	-1E+10	1	-1E+10	1	-1E+10	1	-1E+10	1	-1E+10	1	-1E+10	1
4901784	34	C	06/09/2016	10:52	-132.253	44.993	0	749.80	0	3.9670	0	34.2340	0	27.186	0	742.371	0	13.5	4	4.3	4	-1E+10	1	-1E+10	1	-1E+10	1	-1E+10	1	-1E+10	1	-1E+10	1
4901784	34	C	06/09/2016	10:52	-132.253	44.993	0	755.10	0	3.9660	0	34.2350	0	27.187	0	747.609	0	13.5	4	4.3	4	-1E+10	1	-1E+10	1	-1E+10	1	-1E+10	1	-1E+10	1	-1E+10	1
4901784	34	C	06/09/2016	10:52	-132.253	44.993	0	760.40	0	3.9410	0	34.2380	0	27.192	0	752.847	0	13.4	4	4.2	4	-1E+10	1	-1E+10	1	-1E+10	1	-1E+10	1	-1E+10	1	-1E+10	1
4901784	34	C	06/09/2016	10:52	-132.253	44.993	0	764.90	0	3.9360	0	34.2440	0	27.197	0	757.294	0	13.2	4	4.2	4	-1E+10	1	-1E+10	1	-1E+10	1	-1E+10	1	-1E+10	1	-1E+10	1
4901784	34	C	06/09/2016	10:52	-132.253	44.993	0	769.30	0	3.9000	0	34.2450	0	27.202	0	761.642	0	13.0	4	4.1	4	-1E+10	1	-1E+10	1	-1E+10	1	-1E+10	1	-1E+10	1	-1E+10	1
4901784	34	C	06/09/2016	10:52	-132.253	44.993	0	774.80	0	3.9220	0	34.2520	0	27.205	0	767.078	0	12.6	4	4.0	4	-1E+10	1	-1E+10	1	-1E+10	1	-1E+10	1	-1E+10	1	-1E+10	1
4901784	34	C	06/09/2016	10:52	-132.253	44.993	0	780.20	0	3.9200	0	34.2580	0	27.210	0	772.414	0	12.5	4	3.9	4	-1E+10	1	-1E+10	1	-1E+10	1	-1E+10	1	-1E+10	1	-1E+10	1
4901784	34	C	06/09/2016	10:52	-132.253	44.993	0	785.60	0	3.9010	0	34.2600	0	27.214	0	777.750	0	12.7	4	4.0	4	-1E+10	1	-1E+10	1	-1E+10	1	-1E+10	1	-1E+10	1	-1E+10	1
4901784	34	C	06/09/2016	10:52	-132.253	44.993	0	790.20	0	3.8750	0	34.2590	0	27.215	0	782.295	0	12.8	4	4.0	4	-1E+10	1	-1E+10	1	-1E+10	1	-1E+10	1	-1E+10	1	-1E+10	1
4901784	34	C	06/09/2016	10:52	-132.253	44.993	0	794.80	0	3.8530	0	34.2590	0	27.218	0	786.841	0	12.8	4	4.0	4	-1E+10	1	-1E+10	1	-1E+10	1	-1E+10	1	-1E+10	1	-1E+10	1
4901784	34	C	06/09/2016	10:52	-132.253	44.993	0	800.40	0	3.8180	0	34.2610	0	27.223	0	792.374	0	12.7	4	4.0	4	-1E+10	1	-1E+10	1	-1E+10	1	-1E+10	1	-1E+10	1	-1E+10	1
4901784	34	C	06/09/2016	10:52	-132.253	44.993	0	805.10	0	3.7980	0	34.2640	0	27.227	0	797.018	0	12.2	4	3.8	4	-1E+10	1	-1E+10	1	-1E+10	1	-1E+10	1	-1E+10	1	-1E+10	1
4901784	34	C	06/09/2016	10:52	-132.253	44.993	0	809.80	0	3.8530	0	34.2770	0	27.232	0	801.662	0	11.6	4	3.7	4	-1E+10	1	-1E+10	1	-1E+10	1	-1E+10	1	-1E+10	1	-1E+10	1
4901784	34	C	06/09/2016	10:52	-132.253	44.993	0	815.40	0	3.8500	0	34.2810	0	27.236	0	807.195	0	11.5	4	3.6	4	-1E+10	1	-1E+10	1	-1E+10	1	-1E+10	1	-1E+10	1	-1E+10	1
4901784	34	C	06/09/2016	10:52	-132.253	44.993	0	820.20	0	3.8420	0	34.2830	0	27.238	0	811.937	0	11.5	4	3.6	4	-1E+10	1	-1E+10	1	-1E+10	1	-1E+10	1	-1E+10	1	-1E+10	1
4901784	34	C	06/09/2016	10:52	-132.253	44.993	0	824.90	0	3.8220	0	34.2870	0	27.243	0	816.580	0	11.5	4	3.6	4	-1E+10	1	-1E+10	1	-1E+10	1	-1E+10	1	-1E+10	1	-1E+10	1
4901784	34	C	06/09/2016	10:52	-132.253	44.993	0	830.50	0	3.8050	0	34.2890	0	27.247	0	822.113	0	11.5	4	3.6	4	-1E+10	1	-1E+10	1	-1E+10	1	-1E+10	1	-1E+10	1	-1E+10	1
4901784	34	C	06/09/2016	10:52	-132.253	44.993	0	835.30	0	3.7960	0	34.2910	0	27.249	0	826.855	0	11.6	4	3.7	4	-1E+10	1	-1E+10	1	-1E+10	1	-1E+10	1	-1E+10	1	-1E+10	1
4901784	34	C	06/09/2016	10:52	-132.253	44.993	0	839.90	0	3.7690	0	34.2910	0	27.252	0	831.399	0	11.9	4	3.7	4	-1E+10	1	-1E+10	1	-1E+10	1	-1E+10	1	-1E+10	1	-1E+10	1
4901784	34	C	06/09/2016	10:52	-132.253	44.993	0	845.60	0	3.7290	0	34.2910	0	27.256	0	837.030	0	12.1	4	3.8	4	-1E+10	1	-1E+10	1	-1E+10	1	-1E+10	1	-1E+10	1	-1E+10	1
4901784	34	C	06/09/2016	10:52	-132.253	44.993	0	850.30	0	3.7070	0	34.2920	0	27.259	0	841.673	0	12.1	4	3.8	4	-1E+10	1	-1E+10	1	-1E+10	1	-1E+10	1	-1E+10	1	-1E+10	1
4901784	34	C	06/09/2016	10:52	-132.253	44.993	0	855.00	0	3.7060	0	34.2960	0	27.262	0	846.316	0	12.0	4	3.8	4	-1E+10	1	-1E+10	1	-1E+10	1	-1E+10	1	-1E+10	1	-1E+10	1
4901784	34	C	06/09/2016	10:52	-132.253	44.993	0	860.60	0	3.6810	0	34.2980	0	27.266	0	851.848	0	12.1	4	3.8	4	-1E+10	1	-1E+10	1	-1E+10	1	-1E+10	1	-1E+10	1	-1E+10	1
4901784	34	C	06/09/2016	10:52	-132.253	44.993	0	865.20	0	3.6630	0	34.3010	0	27.270	0	856.391	0	12.2	4	3.8	4	-1E+10	1	-1E+10	1	-1E+10	1	-1E+10	1	-1E+10	1	-1E+10	1
4901784	34	C	06/09/2016	10:52	-132.253	44.993	0	869.80	0	3.6240	0	34.2990	0	27.273	0	860.935	0	12.2	4	3.8	4	-1E+10	1	-1E+10	1	-1E+10	1	-1E+10	1	-1E+10	1	-1E+10	1
4901784	34	C	06/09/2016	10:52	-132.253	44.993	0	875.40	0	3.6410	0	34.3060	0	27.277	0	866.466	0	11.8	4	3.7	4	-1E+10	1	-1E+10	1	-1E+10	1	-1E+10	1	-1E+10	1	-1E+10	1
4901784	34	C	06/09/2016	10:52	-132.253	44.993	0	879.90	0	3.6460	0	34.3120	0	27.281	0	870.911	0	11.8	4	3.7	4	-1E+10	1	-1E+10	1	-1E+10	1	-1E+10	1	-1E+10	1	-1E+10	1
4901784	34	C	06/09/2016	10:52	-132.253	44.993	0	884.50	0	3.6420	0	34.3140	0	27.283	0	875.454	0	11.9	4	3.7	4	-1E+10	1	-1E+10	1	-1E+10	1	-1E+10	1	-1E+10	1	-1E+10	1
4901784	34	C	06/09/2016	10:52	-132.253	44.993	0	890.10	0	3.5820	0	34.3110	0	27.286	0	880.985	0	12.3	4	3.9	4	-1E+10	1	-1E+10	1	-1E+10	1	-1E+10	1	-1E+10	1	-1E+10	1
4901784	34	C	06/09/2016	10:52	-132.253	44.993	0	895.60	0	3.5210	0	34.3070	0	27.289	0	886.417	0	12.4	4	3.9	4	-1E+10	1	-1E+10	1	-1E+10	1	-1E+10	1	-1E+10	1	-1E+10	1
4901784	34	C	06/09/2016	10:52	-132.253	44.993	0	900.20	0	3.5230	0	34.3110	0	27.292	0	890.961	0	12.2	4	3.8	4	-1E+10	1	-1E+10	1	-1E+10	1	-1E+10	1	-1E+10	1	-1E+10	1
4901784	34	C	06/09/2016	10:52	-132.253	44.993	0	904.80	0	3.5260	0	34.3140	0	27.294	0	895.503	0	11.8	4	3.7	4	-1E+10	1	-1E+10	1	-1E+10	1	-1E+10	1	-1E+10	1	-1E+10	1
4901784	34	C	06/09/2016	10:52	-132.253	44.993	0	910.40	0	3.5770	0	34.3280	0	27.301	0	901.034	0	11.3	4	3.5	4	-1E+10	1	-1E+10	1	-1E+10	1	-1E+10	1	-1E+10	1	-1E+10	1
4901784	34	C	06/09/2016	10:52	-132.253	44.993	0	915.10	0	3.5910	0	34.3340	0	27.304	0	905.675	0	11.2	4	3.5	4	-1E+10	1	-1E+10	1	-1E+10	1	-1E+10	1	-1E+10	1	-1E+10	1
4901784	34	C	06/09/2016	10:52	-132.253	44.993	0	919.80	0	3.5820	0	34.3370	0	27.307	0	910.317	0	11.2	4	3.5	4	-1E+10	1	-1E+10	1	-1E+10	1	-1E+10	1	-1E+10	1	-1E+10	1
4901784	34	C	06/09/2016	10:52	-132.253	44.993	0	925.30	0	3.5640	0	34.3400	0	27.311	0	915.748	0	11.2	4	3.5	4	-1E+10	1	-1E+10	1	-1E+10	1	-1E+10	1	-1E+10	1	-1E+10	1
4901784	34	C	06/09/2016	10:52	-132.253	44.993	0	929.80	0	3.5580	0	34.3410	0	27.313	0	920.192	0	11.2	4	3.5	4	-1E+10	1	-1E+10	1	-1E+10	1	-1E+10	1	-1E+10	1	-1E+10	1
4901784	34	C	06/09/2016	10:52	-132.253	44.993	0	934.40	0	3.5580	0	34.3450	0	27.316	0	924.734	0	11.2	4	3.5	4	-1E+10	1	-1E+10	1	-1E+10	1	-1E+10	1	-1E+10	1	-1E+10	1
4901784	34	C	06/09/2016	10:52	-132.253	44.993	0	940.00	0	3.5460	0	34.3450	0	27.317	0	930.264	0	11.3	4	3.5	4	-1E+10	1	-1E+10	1	-1E+10	1	-1E+10	1	-1E+10	1	-1E+10	1
4901784	34	C	06/09/2016	10:52	-132.253	44.993	0	944.70	0	3.5370	0	34.3450	0	27.318	0	934.904	0	11.3	4	3.5	4	-1E+10	1	-1E+10	1	-1E+10	1	-1E+10	1	-1E+10	1	-1E+10	1
4901784	34	C	06/09/2016	10:52	-132.253	44.993	0	949.40	0	3.5240	0	34.3470	0	27.321	0	939.545	0	11.3	4	3.5	4	-1E+10	1	-1E+10	1	-1E+10	1	-1E+10	1	-1E+10	1	-1E+10	1
4901784	34	C	06/09/2016	10:52	-132.253	44.993	0	955.10	0	3.5070	0	34.3490	0	27.324	0	945.173	0	11.4	4	3.6	4	-1E+10	1	-1E+10	1	-1E+10	1	-1E+10	1	-1E+10	1	-1E+10	1
4901784	34	C	06/09/2016	10:52	-132.253	44.993	0	959.80	0	3.5000	0	34.3520	0	27.327	0	949.814	0	11.4	4	3.6	4	-1E+10	1	-1E+10	1	-1E+10	1	-1E+10	1	-1E+10	1	-1E+10	1
4901784	34	C	06/09/2016	10:52	-132.253	44.993	0	964.60	0	3.4860	0	34.3530	0	27.330	0	954.553	0	11.5	4	3.6	4	-1E+10	1	-1E+10	1	-1E+10	1	-1E+10	1	-1E+10	1	-1E+10	1
4901784	34	C	06/09/2016	10:52	-132.253	44.993	0	970.20	0	3.4680	0	34.3560	0	27.334	0	960.082	0	11.5	4	3.6	4	-1E+10	1	-1E+10	1	-1E+10	1	-1E+10	1	-1E+10	1	-1E+10	1
4901784	34	C	06/09/2016	10:52	-132.253	44.993	0	975.60	0	3.4530	0	34.3580	0	27.337	0	965.413	0	11.6	4	3.6	4	-1E+10	1	-1E+10	1	-1E+10	1	-1E+10	1	-1E+10	1	-1E+10	1
4901784	34	C	06/09/2016	10:52	-132.253	44.993	0	980.50	0	3.4350	0	34.3610	0	27.341	0	970.250	0	11.6	4	3.6	4	-1E+10	1	-1E+10	1	-1E+10	1	-1E+10	1	-1E+10	1	-1E+10	1
4901784	34	C	06/09/2016	10:52	-132.253	44.993	0	985.40	0	3.4210	0	34.3650	0	27.346	0	975.088	0	11.7	4	3.6	4	-1E+10	1	-1E+10	1	-1E+10	1	-1E+10	1	-1E+10	1	-1E+10	1
4901784	34	C	06/09/2016	10:52	-132.253	44.993	0	990.30	0	3.4130	0	34.3670	0	27.348	0	979.925	0	11.7	4	3.6	4	-1E+10	1	-1E+10	1	-1E+10	1	-1E+10	1	-1E+10	1	-1E+10	1
4901784	34	C	06/09/2016	10:52	-132.253	44.993	0	995.20	0	3.4060	0	34.3690	0	27.350	0	984.762	0	11.7	4	3.7	4	-1E+10	1	-1E+10	1	-1E+10	1	-1E+10	1	-1E+10	1	-1E+10	1
4901784	34	C	06/09/2016	10:52	-132.253	44.993	0	1000.20	0	3.4000	0	34.3700	0	27.352	0	989.698	0	11.8	4	3.7	4	-1E+10	1	-1E+10	1	-1E+10	1	-1E+10	1	-1E+10	1	-1E+10	1
4901784	34	C	06/09/2016	10:52	-132.253	44.993	0	1005.10	0	3.3870	0	34.3730	0	27.355	0	994.535	0	11.8	4	3.7	4	-1E+10	1	-1E+10	1	-1E+10	1	-1E+10	1	-1E+10	1	-1E+10	1
4901784	34	C	06/09/2016	10:52	-132.253	44.993	0	1010.10	0	3.3730	0	34.3760	0	27.359	0	999.470	0	11.9	4	3.7	4	-1E+10	1	-1E+10	1	-1E+10	1	-1E+10	1	-1E+10	1	-1E+10	1
4901784	34	C	06/09/2016	10:52	-132.253	44.993	0	1015.10	0	3.3630	0	34.3780	0	27.362	0	1004.406	0	11.9	4	3.7	4	-1E+10	1	-1E+10	1	-1E+10	1	-1E+10	1	-1E+10	1	-1E+10	1
4901784	34	C	06/09/2016	10:52	-132.253	44.993	0	1020.20	0	3.3590	0	34.3810	0	27.364	0	1009.440	0	12.0	4	3.7	4	-1E+10	1	-1E+10	1	-1E+10	1	-1E+10	1	-1E+10	1	-1E+10	1
4901784	34	C	06/09/2016	10:52	-132.253	44.993	0	1025.30	0	3.3550	0	34.3830	0	27.366	0	1014.474	0	12.0	4	3.7	4	-1E+10	1	-1E+10	1	-1E+10	1	-1E+10	1	-1E+10	1	-1E+10	1
4901784	34	C	06/09/2016	10:52	-132.253	44.993	0	1030.50	0	3.3410	0	34.3850	0	27.369	0	1019.606	0	12.1	4	3.8	4	-1E+10	1	-1E+10	1	-1E+10	1	-1E+10	1	-1E+10	1	-1E+10	1
4901784	34	C	06/09/2016	10:52	-132.253	44.993	0	1035.70	0	3.3360	0	34.3870	0	27.371	0	1024.738	0	12.2	4	3.8	4	-1E+10	1	-1E+10	1	-1E+10	1	-1E+10	1	-1E+10	1	-1E+10	1
4901784	34	C	06/09/2016	10:52	-132.253	44.993	0	1040.00	0	3.3310	0	34.3890	0	27.374	0	1028.982	0	12.2	4	3.8	4	-1E+10	1	-1E+10	1	-1E+10	1	-1E+10	1	-1E+10	1	-1E+10	1
4901784	34	C	06/09/2016	10:52	-132.253	44.993	0	1044.40	0	3.3090	0	34.3890	0	27.376	0	1033.325	0	12.3	4	3.8	4	-1E+10	1	-1E+10	1	-1E+10	1	-1E+10	1	-1E+10	1	-1E+10	1
4901784	34	C	06/09/2016	10:52	-132.253	44.993	0	1049.70	0	3.2990	0	34.3910	0	27.378	0	1038.556	0	12.4	4	3.9	4	-1E+10	1	-1E+10	1	-1E+10	1	-1E+10	1	-1E+10	1	-1E+10	1
4901784	34	C	06/09/2016	10:52	-132.253	44.993	0	1055.00	0	3.2870	0	34.3930	0	27.381	0	1043.786	0	12.5	4	3.9	4	-1E+10	1	-1E+10	1	-1E+10	1	-1E+10	1	-1E+10	1	-1E+10	1
4901784	34	C	06/09/2016	10:52	-132.253	44.993	0	1060.30	0	3.2880	0	34.3960	0	27.383	0	1049.017	0	12.6	4	3.9	4	-1E+10	1	-1E+10	1	-1E+10	1	-1E+10	1	-1E+10	1	-1E+10	1
4901784	34	C	06/09/2016	10:52	-132.253	44.993	0	1064.90	0	3.2820	0	34.3990	0	27.386	0	1053.556	0	12.6	4	3.9	4	-1E+10	1	-1E+10	1	-1E+10	1	-1E+10	1	-1E+10	1	-1E+10	1
4901784	34	C	06/09/2016	10:52	-132.253	44.993	0	1070.20	0	3.2730	0	34.4010	0	27.389	0	1058.786	0	12.7	4	3.9	4	-1E+10	1	-1E+10	1	-1E+10	1	-1E+10	1	-1E+10	1	-1E+10	1
4901784	34	C	06/09/2016	10:52	-132.253	44.993	0	1075.30	0	3.2710	0	34.4020	0	27.390	0	1063.819	0	12.7	4	4.0	4	-1E+10	1	-1E+10	1	-1E+10	1	-1E+10	1	-1E+10	1	-1E+10	1
4901784	34	C	06/09/2016	10:52	-132.253	44.993	0	1080.10	0	3.2570	0	34.4010	0	27.390	0	1068.555	0	12.8	4	4.0	4	-1E+10	1	-1E+10	1	-1E+10	1	-1E+10	1	-1E+10	1	-1E+10	1
4901784	34	C	06/09/2016	10:52	-132.253	44.993	0	1084.80	0	3.2540	0	34.4020	0	27.391	0	1073.193	0	12.8	4	4.0	4	-1E+10	1	-1E+10	1	-1E+10	1	-1E+10	1	-1E+10	1	-1E+10	1
4901784	34	C	06/09/2016	10:52	-132.253	44.993	0	1089.70	0	3.2510	0	34.4030	0	27.393	0	1078.028	0	12.9	4	4.0	4	-1E+10	1	-1E+10	1	-1E+10	1	-1E+10	1	-1E+10	1	-1E+10	1
4901784	34	C	06/09/2016	10:52	-132.253	44.993	0	1094.50	0	3.2420	0	34.4040	0	27.394	0	1082.764	0	13.0	4	4.0	4	-1E+10	1	-1E+10	1	-1E+10	1	-1E+10	1	-1E+10	1	-1E+10	1
4901784	34	C	06/09/2016	10:52	-132.253	44.993	0	1099.50	0	3.2300	0	34.4080	0	27.399	0	1087.698	0	13.2	4	4.1	4	-1E+10	1	-1E+10	1	-1E+10	1	-1E+10	1	-1E+10	1	-1E+10	1
4901784	34	C	06/09/2016	10:52	-132.253	44.993	0	1104.60	0	3.2250	0	34.4100	0	27.401	0	1092.730	0	13.3	4	4.1	4	-1E+10	1	-1E+10	1	-1E+10	1	-1E+10	1	-1E+10	1	-1E+10	1
4901784	34	C	06/09/2016	10:52	-132.253	44.993	0	1109.70	0	3.2280	0	34.4120	0	27.402	0	1097.762	0	13.4	4	4.1	4	-1E+10	1	-1E+10	1	-1E+10	1	-1E+10	1	-1E+10	1	-1E+10	1
4901784	34	C	06/09/2016	10:52	-132.253	44.993	0	1114.80	0	3.2230	0	34.4130	0	27.403	0	1102.794	0	13.5	4	4.2	4	-1E+10	1	-1E+10	1	-1E+10	1	-1E+10	1	-1E+10	1	-1E+10	1
4901784	34	C	06/09/2016	10:52	-132.253	44.993	0	1120.60	0	3.2250	0	34.4150	0	27.405	0	1108.516	0	13.8	4	4.3	4	-1E+10	1	-1E+10	1	-1E+10	1	-1E+10	1	-1E+10	1	-1E+10	1
4901784	34	C	06/09/2016	10:52	-132.253	44.993	0	1125.20	0	3.2220	0	34.4170	0	27.407	0	1113.054	0	14.1	4	4.4	4	-1E+10	1	-1E+10	1	-1E+10	1	-1E+10	1	-1E+10	1	-1E+10	1
4901784	34	C	06/09/2016	10:52	-132.253	44.993	0	1129.60	0	3.2190	0	34.4180	0	27.408	0	1117.395	0	14.3	4	4.5	4	-1E+10	1	-1E+10	1	-1E+10	1	-1E+10	1	-1E+10	1	-1E+10	1
4901784	34	C	06/09/2016	10:52	-132.253	44.993	0	1134.70	0	3.1910	0	34.4160	0	27.409	0	1122.426	0	14.2	4	4.4	4	-1E+10	1	-1E+10	1	-1E+10	1	-1E+10	1	-1E+10	1	-1E+10	1
4901784	34	C	06/09/2016	10:52	-132.253	44.993	0	1140.20	0	3.1690	0	34.4150	0	27.410	0	1127.852	0	14.1	4	4.4	4	-1E+10	1	-1E+10	1	-1E+10	1	-1E+10	1	-1E+10	1	-1E+10	1
4901784	34	C	06/09/2016	10:52	-132.253	44.993	0	1145.10	0	3.1650	0	34.4180	0	27.413	0	1132.685	0	14.2	4	4.4	4	-1E+10	1	-1E+10	1	-1E+10	1	-1E+10	1	-1E+10	1	-1E+10	1
4901784	34	C	06/09/2016	10:52	-132.253	44.993	0	1150.10	0	3.1440	0	34.4160	0	27.413	0	1137.618	0	13.9	4	4.3	4	-1E+10	1	-1E+10	1	-1E+10	1	-1E+10	1	-1E+10	1	-1E+10	1
4901784	34	C	06/09/2016	10:52	-132.253	44.993	0	1155.00	0	3.1160	0	34.4160	0	27.416	0	1142.451	0	13.9	4	4.3	4	-1E+10	1	-1E+10	1	-1E+10	1	-1E+10	1	-1E+10	1	-1E+10	1
4901784	34	C	06/09/2016	10:52	-132.253	44.993	0	1160.00	0	3.1090	0	34.4170	0	27.417	0	1147.383	0	14.1	4	4.4	4	-1E+10	1	-1E+10	1	-1E+10	1	-1E+10	1	-1E+10	1	-1E+10	1
4901784	34	C	06/09/2016	10:52	-132.253	44.993	0	1165.00	0	3.1030	0	34.4200	0	27.420	0	1152.315	0	14.3	4	4.4	4	-1E+10	1	-1E+10	1	-1E+10	1	-1E+10	1	-1E+10	1	-1E+10	1
4901784	34	C	06/09/2016	10:52	-132.253	44.993	0	1170.00	0	3.0990	0	34.4210	0	27.421	0	1157.247	0	14.4	4	4.5	4	-1E+10	1	-1E+10	1	-1E+10	1	-1E+10	1	-1E+10	1	-1E+10	1
4901784	34	C	06/09/2016	10:52	-132.253	44.993	0	1175.00	0	3.0990	0	34.4230	0	27.423	0	1162.179	0	14.7	4	4.6	4	-1E+10	1	-1E+10	1	-1E+10	1	-1E+10	1	-1E+10	1	-1E+10	1
4901784	34	C	06/09/2016	10:52	-132.253	44.993	0	1180.10	0	3.1190	0	34.4290	0	27.426	0	1167.209	0	14.8	4	4.6	4	-1E+10	1	-1E+10	1	-1E+10	1	-1E+10	1	-1E+10	1	-1E+10	1
4901784	34	C	06/09/2016	10:52	-132.253	44.993	0	1185.30	0	3.1160	0	34.4300	0	27.427	0	1172.338	0	14.8	4	4.6	4	-1E+10	1	-1E+10	1	-1E+10	1	-1E+10	1	-1E+10	1	-1E+10	1
4901784	34	C	06/09/2016	10:52	-132.253	44.993	0	1190.50	0	3.1040	0	34.4310	0	27.429	0	1177.466	0	14.9	4	4.6	4	-1E+10	1	-1E+10	1	-1E+10	1	-1E+10	1	-1E+10	1	-1E+10	1
4901784	34	C	06/09/2016	10:52	-132.253	44.993	0	1195.70	0	3.0960	0	34.4310	0	27.430	0	1182.595	0	14.9	4	4.6	4	-1E+10	1	-1E+10	1	-1E+10	1	-1E+10	1	-1E+10	1	-1E+10	1
4901784	34	C	06/09/2016	10:52	-132.253	44.993	0	1200.00	0	3.0910	0	34.4320	0	27.431	0	1186.835	0	15.0	4	4.6	4	-1E+10	1	-1E+10	1	-1E+10	1	-1E+10	1	-1E+10	1	-1E+10	1
4901784	34	C	06/09/2016	10:52	-132.253	44.993	0	1204.50	0	3.0870	0	34.4320	0	27.431	0	1191.273	0	15.1	4	4.7	4	-1E+10	1	-1E+10	1	-1E+10	1	-1E+10	1	-1E+10	1	-1E+10	1
4901784	34	C	06/09/2016	10:52	-132.253	44.993	0	1209.80	0	3.0760	0	34.4340	0	27.434	0	1196.500	0	15.3	4	4.7	4	-1E+10	1	-1E+10	1	-1E+10	1	-1E+10	1	-1E+10	1	-1E+10	1
4901784	34	C	06/09/2016	10:52	-132.253	44.993	0	1215.20	0	3.0630	0	34.4350	0	27.436	0	1201.825	0	15.4	4	4.7	4	-1E+10	1	-1E+10	1	-1E+10	1	-1E+10	1	-1E+10	1	-1E+10	1
4901784	34	C	06/09/2016	10:52	-132.253	44.993	0	1220.60	0	3.0690	0	34.4390	0	27.439	0	1207.150	0	15.5	4	4.8	4	-1E+10	1	-1E+10	1	-1E+10	1	-1E+10	1	-1E+10	1	-1E+10	1
4901784	34	C	06/09/2016	10:52	-132.253	44.993	0	1225.10	0	3.0590	0	34.4400	0	27.441	0	1211.588	0	15.6	4	4.8	4	-1E+10	1	-1E+10	1	-1E+10	1	-1E+10	1	-1E+10	1	-1E+10	1
4901784	34	C	06/09/2016	10:52	-132.253	44.993	0	1229.60	0	3.0530	0	34.4410	0	27.442	0	1216.025	0	15.6	4	4.8	4	-1E+10	1	-1E+10	1	-1E+10	1	-1E+10	1	-1E+10	1	-1E+10	1
4901784	34	C	06/09/2016	10:52	-132.253	44.993	0	1235.00	0	3.0370	0	34.4410	0	27.443	0	1221.350	0	15.8	4	4.9	4	-1E+10	1	-1E+10	1	-1E+10	1	-1E+10	1	-1E+10	1	-1E+10	1
4901784	34	C	06/09/2016	10:52	-132.253	44.993	0	1240.40	0	3.0260	0	34.4420	0	27.445	0	1226.674	0	16.0	4	5.0	4	-1E+10	1	-1E+10	1	-1E+10	1	-1E+10	1	-1E+10	1	-1E+10	1
4901784	34	C	06/09/2016	10:52	-132.253	44.993	0	1244.90	0	3.0210	0	34.4430	0	27.446	0	1231.111	0	16.1	4	5.0	4	-1E+10	1	-1E+10	1	-1E+10	1	-1E+10	1	-1E+10	1	-1E+10	1
4901784	34	C	06/09/2016	10:52	-132.253	44.993	0	1249.50	0	3.0100	0	34.4430	0	27.448	0	1235.647	0	16.2	4	5.0	4	-1E+10	1	-1E+10	1	-1E+10	1	-1E+10	1	-1E+10	1	-1E+10	1
4901784	34	C	06/09/2016	10:52	-132.253	44.993	0	1254.90	0	2.9780	0	34.4420	0	27.450	0	1240.971	0	16.3	4	5.0	4	-1E+10	1	-1E+10	1	-1E+10	1	-1E+10	1	-1E+10	1	-1E+10	1
4901784	34	C	06/09/2016	10:52	-132.253	44.993	0	1260.10	0	2.9630	0	34.4430	0	27.452	0	1246.098	0	16.4	4	5.1	4	-1E+10	1	-1E+10	1	-1E+10	1	-1E+10	1	-1E+10	1	-1E+10	1
4901784	34	C	06/09/2016	10:52	-132.253	44.993	0	1265.10	0	2.9480	0	34.4450	0	27.455	0	1251.028	0	16.5	4	5.1	4	-1E+10	1	-1E+10	1	-1E+10	1	-1E+10	1	-1E+10	1	-1E+10	1
4901784	34	C	06/09/2016	10:52	-132.253	44.993	0	1270.10	0	2.9380	0	34.4460	0	27.456	0	1255.957	0	16.6	4	5.1	4	-1E+10	1	-1E+10	1	-1E+10	1	-1E+10	1	-1E+10	1	-1E+10	1
4901784	34	C	06/09/2016	10:52	-132.253	44.993	0	1275.10	0	2.9270	0	34.4470	0	27.458	0	1260.886	0	16.8	4	5.2	4	-1E+10	1	-1E+10	1	-1E+10	1	-1E+10	1	-1E+10	1	-1E+10	1
4901784	34	C	06/09/2016	10:52	-132.253	44.993	0	1280.10	0	2.9170	0	34.4480	0	27.460	0	1265.816	0	16.9	4	5.2	4	-1E+10	1	-1E+10	1	-1E+10	1	-1E+10	1	-1E+10	1	-1E+10	1
4901784	34	C	06/09/2016	10:52	-132.253	44.993	0	1285.10	0	2.9020	0	34.4500	0	27.463	0	1270.745	0	17.1	4	5.3	4	-1E+10	1	-1E+10	1	-1E+10	1	-1E+10	1	-1E+10	1	-1E+10	1
4901784	34	C	06/09/2016	10:52	-132.253	44.993	0	1290.10	0	2.8890	0	34.4520	0	27.466	0	1275.674	0	17.3	4	5.3	4	-1E+10	1	-1E+10	1	-1E+10	1	-1E+10	1	-1E+10	1	-1E+10	1
4901784	34	C	06/09/2016	10:52	-132.253	44.993	0	1295.20	0	2.8860	0	34.4530	0	27.467	0	1280.701	0	17.4	4	5.4	4	-1E+10	1	-1E+10	1	-1E+10	1	-1E+10	1	-1E+10	1	-1E+10	1
4901784	34	C	06/09/2016	10:52	-132.253	44.993	0	1300.20	0	2.8760	0	34.4540	0	27.469	0	1285.630	0	17.6	4	5.4	4	-1E+10	1	-1E+10	1	-1E+10	1	-1E+10	1	-1E+10	1	-1E+10	1
4901784	34	C	06/09/2016	10:52	-132.253	44.993	0	1305.20	0	2.8710	0	34.4540	0	27.469	0	1290.559	0	17.8	4	5.5	4	-1E+10	1	-1E+10	1	-1E+10	1	-1E+10	1	-1E+10	1	-1E+10	1
4901784	34	C	06/09/2016	10:52	-132.253	44.993	0	1310.30	0	2.8620	0	34.4560	0	27.471	0	1295.586	0	18.0	4	5.6	4	-1E+10	1	-1E+10	1	-1E+10	1	-1E+10	1	-1E+10	1	-1E+10	1
4901784	34	C	06/09/2016	10:52	-132.253	44.993	0	1315.40	0	2.8510	0	34.4580	0	27.474	0	1300.613	0	18.2	4	5.6	4	-1E+10	1	-1E+10	1	-1E+10	1	-1E+10	1	-1E+10	1	-1E+10	1
4901784	34	C	06/09/2016	10:52	-132.253	44.993	0	1320.50	0	2.8400	0	34.4590	0	27.476	0	1305.640	0	18.4	4	5.7	4	-1E+10	1	-1E+10	1	-1E+10	1	-1E+10	1	-1E+10	1	-1E+10	1
4901784	34	C	06/09/2016	10:52	-132.253	44.993	0	1325.60	0	2.8310	0	34.4600	0	27.477	0	1310.667	0	18.6	4	5.7	4	-1E+10	1	-1E+10	1	-1E+10	1	-1E+10	1	-1E+10	1	-1E+10	1
4901784	34	C	06/09/2016	10:52	-132.253	44.993	0	1330.60	0	2.8190	0	34.4620	0	27.480	0	1315.595	0	18.8	4	5.8	4	-1E+10	1	-1E+10	1	-1E+10	1	-1E+10	1	-1E+10	1	-1E+10	1
4901784	34	C	06/09/2016	10:52	-132.253	44.993	0	1335.70	0	2.8090	0	34.4630	0	27.482	0	1320.621	0	19.1	4	5.9	4	-1E+10	1	-1E+10	1	-1E+10	1	-1E+10	1	-1E+10	1	-1E+10	1
4901784	34	C	06/09/2016	10:52	-132.253	44.993	0	1340.70	0	2.8010	0	34.4650	0	27.484	0	1325.549	0	19.4	4	6.0	4	-1E+10	1	-1E+10	1	-1E+10	1	-1E+10	1	-1E+10	1	-1E+10	1
4901784	34	C	06/09/2016	10:52	-132.253	44.993	0	1345.70	0	2.7890	0	34.4670	0	27.487	0	1330.477	0	19.7	4	6.1	4	-1E+10	1	-1E+10	1	-1E+10	1	-1E+10	1	-1E+10	1	-1E+10	1
4901784	34	C	06/09/2016	10:52	-132.253	44.993	0	1350.80	0	2.7730	0	34.4690	0	27.490	0	1335.503	0	20.0	4	6.1	4	-1E+10	1	-1E+10	1	-1E+10	1	-1E+10	1	-1E+10	1	-1E+10	1
4901784	34	C	06/09/2016	10:52	-132.253	44.993	0	1355.80	0	2.7650	0	34.4710	0	27.492	0	1340.430	0	20.3	4	6.2	4	-1E+10	1	-1E+10	1	-1E+10	1	-1E+10	1	-1E+10	1	-1E+10	1
4901784	34	C	06/09/2016	10:52	-132.253	44.993	0	1360.10	0	2.7540	0	34.4720	0	27.494	0	1344.668	0	20.4	4	6.3	4	-1E+10	1	-1E+10	1	-1E+10	1	-1E+10	1	-1E+10	1	-1E+10	1
4901784	34	C	06/09/2016	10:52	-132.253	44.993	0	1364.40	0	2.7450	0	34.4730	0	27.496	0	1348.905	0	20.7	4	6.4	4	-1E+10	1	-1E+10	1	-1E+10	1	-1E+10	1	-1E+10	1	-1E+10	1
4901784	34	C	06/09/2016	10:52	-132.253	44.993	0	1369.40	0	2.7400	0	34.4760	0	27.498	0	1353.833	0	21.0	4	6.4	4	-1E+10	1	-1E+10	1	-1E+10	1	-1E+10	1	-1E+10	1	-1E+10	1
4901784	34	C	06/09/2016	10:52	-132.253	44.993	0	1374.50	0	2.7320	0	34.4760	0	27.499	0	1358.858	0	21.0	4	6.4	4	-1E+10	1	-1E+10	1	-1E+10	1	-1E+10	1	-1E+10	1	-1E+10	1
4901784	34	C	06/09/2016	10:52	-132.253	44.993	0	1379.60	0	2.7220	0	34.4760	0	27.500	0	1363.884	0	21.2	4	6.5	4	-1E+10	1	-1E+10	1	-1E+10	1	-1E+10	1	-1E+10	1	-1E+10	1
4901784	34	C	06/09/2016	10:52	-132.253	44.993	0	1384.70	0	2.7090	0	34.4780	0	27.503	0	1368.909	0	21.6	4	6.6	4	-1E+10	1	-1E+10	1	-1E+10	1	-1E+10	1	-1E+10	1	-1E+10	1
4901784	34	C	06/09/2016	10:52	-132.253	44.993	0	1389.80	0	2.6970	0	34.4800	0	27.505	0	1373.934	0	21.9	4	6.7	4	-1E+10	1	-1E+10	1	-1E+10	1	-1E+10	1	-1E+10	1	-1E+10	1
4901784	34	C	06/09/2016	10:52	-132.253	44.993	0	1395.00	0	2.6920	0	34.4810	0	27.507	0	1379.058	0	22.3	4	6.8	4	-1E+10	1	-1E+10	1	-1E+10	1	-1E+10	1	-1E+10	1	-1E+10	1
4901784	34	C	06/09/2016	10:52	-132.253	44.993	0	1400.20	0	2.7040	0	34.4850	0	27.509	0	1384.181	0	22.7	4	7.0	4	-1E+10	1	-1E+10	1	-1E+10	1	-1E+10	1	-1E+10	1	-1E+10	1
4901784	34	C	06/09/2016	10:52	-132.253	44.993	0	1405.40	0	2.7020	0	34.4860	0	27.510	0	1389.305	0	22.9	4	7.0	4	-1E+10	1	-1E+10	1	-1E+10	1	-1E+10	1	-1E+10	1	-1E+10	1
4901784	34	C	06/09/2016	10:52	-132.253	44.993	0	1410.60	0	2.6890	0	34.4870	0	27.512	0	1394.428	0	23.1	4	7.1	4	-1E+10	1	-1E+10	1	-1E+10	1	-1E+10	1	-1E+10	1	-1E+10	1
4901784	34	C	06/09/2016	10:52	-132.253	44.993	0	1414.90	0	2.6750	0	34.4880	0	27.514	0	1398.665	0	23.1	4	7.1	4	-1E+10	1	-1E+10	1	-1E+10	1	-1E+10	1	-1E+10	1	-1E+10	1
4901784	34	C	06/09/2016	10:52	-132.253	44.993	0	1419.30	0	2.6580	0	34.4880	0	27.515	0	1402.999	0	23.2	4	7.1	4	-1E+10	1	-1E+10	1	-1E+10	1	-1E+10	1	-1E+10	1	-1E+10	1
4901784	34	C	06/09/2016	10:52	-132.253	44.993	0	1424.60	0	2.6410	0	34.4890	0	27.518	0	1408.221	0	23.5	4	7.2	4	-1E+10	1	-1E+10	1	-1E+10	1	-1E+10	1	-1E+10	1	-1E+10	1
4901784	34	C	06/09/2016	10:52	-132.253	44.993	0	1429.90	0	2.6360	0	34.4900	0	27.519	0	1413.442	0	23.9	4	7.3	4	-1E+10	1	-1E+10	1	-1E+10	1	-1E+10	1	-1E+10	1	-1E+10	1
4901784	34	C	06/09/2016	10:52	-132.253	44.993	0	1435.30	0	2.6300	0	34.4920	0	27.521	0	1418.762	0	24.0	4	7.4	4	-1E+10	1	-1E+10	1	-1E+10	1	-1E+10	1	-1E+10	1	-1E+10	1
4901784	34	C	06/09/2016	10:52	-132.253	44.993	0	1440.60	0	2.6140	0	34.4920	0	27.522	0	1423.983	0	24.1	4	7.4	4	-1E+10	1	-1E+10	1	-1E+10	1	-1E+10	1	-1E+10	1	-1E+10	1
4901784	34	C	06/09/2016	10:52	-132.253	44.993	0	1445.00	0	2.5980	0	34.4920	0	27.524	0	1428.317	0	24.2	4	7.4	4	-1E+10	1	-1E+10	1	-1E+10	1	-1E+10	1	-1E+10	1	-1E+10	1
4901784	34	C	06/09/2016	10:52	-132.253	44.993	0	1449.40	0	2.5870	0	34.4920	0	27.525	0	1432.652	0	24.5	4	7.5	4	-1E+10	1	-1E+10	1	-1E+10	1	-1E+10	1	-1E+10	1	-1E+10	1
4901784	34	C	06/09/2016	10:52	-132.253	44.993	0	1454.60	0	2.5790	0	34.4930	0	27.526	0	1437.774	0	24.9	4	7.6	4	-1E+10	1	-1E+10	1	-1E+10	1	-1E+10	1	-1E+10	1	-1E+10	1
4901784	34	C	06/09/2016	10:52	-132.253	44.993	0	1459.90	0	2.5840	0	34.4950	0	27.527	0	1442.994	0	25.4	4	7.8	4	-1E+10	1	-1E+10	1	-1E+10	1	-1E+10	1	-1E+10	1	-1E+10	1
4901784	34	C	06/09/2016	10:52	-132.253	44.993	0	1465.30	0	2.5800	0	34.4970	0	27.529	0	1448.313	0	25.7	4	7.9	4	-1E+10	1	-1E+10	1	-1E+10	1	-1E+10	1	-1E+10	1	-1E+10	1
4901784	34	C	06/09/2016	10:52	-132.253	44.993	0	1469.80	0	2.5680	0	34.4980	0	27.531	0	1452.746	0	25.8	4	7.9	4	-1E+10	1	-1E+10	1	-1E+10	1	-1E+10	1	-1E+10	1	-1E+10	1
4901784	34	C	06/09/2016	10:52	-132.253	44.993	0	1474.30	0	2.5540	0	34.4980	0	27.532	0	1457.178	0	26.0	4	7.9	4	-1E+10	1	-1E+10	1	-1E+10	1	-1E+10	1	-1E+10	1	-1E+10	1
4901784	34	C	06/09/2016	10:52	-132.253	44.993	0	1479.60	0	2.5420	0	34.4990	0	27.534	0	1462.398	0	26.1	4	8.0	4	-1E+10	1	-1E+10	1	-1E+10	1	-1E+10	1	-1E+10	1	-1E+10	1
4901784	34	C	06/09/2016	10:52	-132.253	44.993	0	1485.00	0	2.5260	0	34.4990	0	27.536	0	1467.717	0	26.3	4	8.0	4	-1E+10	1	-1E+10	1	-1E+10	1	-1E+10	1	-1E+10	1	-1E+10	1
4901784	34	C	06/09/2016	10:52	-132.253	44.993	0	1490.30	0	2.5200	0	34.5000	0	27.537	0	1472.937	0	26.5	4	8.1	4	-1E+10	1	-1E+10	1	-1E+10	1	-1E+10	1	-1E+10	1	-1E+10	1
4901784	34	C	06/09/2016	10:52	-132.253	44.993	0	1495.70	0	2.5070	0	34.5010	0	27.539	0	1478.255	0	26.7	4	8.1	4	-1E+10	1	-1E+10	1	-1E+10	1	-1E+10	1	-1E+10	1	-1E+10	1
4901784	34	C	06/09/2016	10:52	-132.253	44.993	0	1500.10	0	2.4980	0	34.5020	0	27.541	0	1482.588	0	26.8	4	8.2	4	-1E+10	1	-1E+10	1	-1E+10	1	-1E+10	1	-1E+10	1	-1E+10	1
4901784	34	C	06/09/2016	10:52	-132.253	44.993	0	1504.60	0	2.4930	0	34.5020	0	27.541	0	1487.020	0	27.1	4	8.3	4	-1E+10	1	-1E+10	1	-1E+10	1	-1E+10	1	-1E+10	1	-1E+10	1
4901784	34	C	06/09/2016	10:52	-132.253	44.993	0	1510.00	0	2.4800	0	34.5040	0	27.544	0	1492.337	0	27.6	4	8.4	4	-1E+10	1	-1E+10	1	-1E+10	1	-1E+10	1	-1E+10	1	-1E+10	1
4901784	34	C	06/09/2016	10:52	-132.253	44.993	0	1515.40	0	2.4690	0	34.5050	0	27.545	0	1497.655	0	27.9	4	8.5	4	-1E+10	1	-1E+10	1	-1E+10	1	-1E+10	1	-1E+10	1	-1E+10	1
4901784	34	C	06/09/2016	10:52	-132.253	44.993	0	1519.90	0	2.4600	0	34.5070	0	27.548	0	1502.087	0	28.1	4	8.6	4	-1E+10	1	-1E+10	1	-1E+10	1	-1E+10	1	-1E+10	1	-1E+10	1
4901784	34	C	06/09/2016	10:52	-132.253	44.993	0	1524.70	0	2.4550	0	34.5070	0	27.548	0	1506.813	0	28.4	4	8.7	4	-1E+10	1	-1E+10	1	-1E+10	1	-1E+10	1	-1E+10	1	-1E+10	1
4901784	34	C	06/09/2016	10:52	-132.253	44.993	0	1529.90	0	2.4460	0	34.5080	0	27.550	0	1511.934	0	28.6	4	8.7	4	-1E+10	1	-1E+10	1	-1E+10	1	-1E+10	1	-1E+10	1	-1E+10	1
4901784	34	C	06/09/2016	10:52	-132.253	44.993	0	1534.70	0	2.4370	0	34.5090	0	27.551	0	1516.660	0	28.7	4	8.7	4	-1E+10	1	-1E+10	1	-1E+10	1	-1E+10	1	-1E+10	1	-1E+10	1
4901784	34	C	06/09/2016	10:52	-132.253	44.993	0	1539.50	0	2.4350	0	34.5090	0	27.552	0	1521.386	0	28.8	4	8.8	4	-1E+10	1	-1E+10	1	-1E+10	1	-1E+10	1	-1E+10	1	-1E+10	1
4901784	34	C	06/09/2016	10:52	-132.253	44.993	0	1544.40	0	2.4250	0	34.5100	0	27.553	0	1526.211	0	29.0	4	8.8	4	-1E+10	1	-1E+10	1	-1E+10	1	-1E+10	1	-1E+10	1	-1E+10	1
4901784	34	C	06/09/2016	10:52	-132.253	44.993	0	1549.30	0	2.4220	0	34.5100	0	27.553	0	1531.036	0	29.1	4	8.9	4	-1E+10	1	-1E+10	1	-1E+10	1	-1E+10	1	-1E+10	1	-1E+10	1
4901784	34	C	06/09/2016	10:52	-132.253	44.993	0	1555.00	0	2.4180	0	34.5110	0	27.555	0	1536.648	0	29.4	4	8.9	4	-1E+10	1	-1E+10	1	-1E+10	1	-1E+10	1	-1E+10	1	-1E+10	1
4901784	34	C	06/09/2016	10:52	-132.253	44.993	0	1560.00	0	2.4160	0	34.5110	0	27.555	0	1541.570	0	29.6	4	9.0	4	-1E+10	1	-1E+10	1	-1E+10	1	-1E+10	1	-1E+10	1	-1E+10	1
4901784	34	C	06/09/2016	10:52	-132.253	44.993	0	1565.00	0	2.4070	0	34.5130	0	27.557	0	1546.493	0	30.1	4	9.2	4	-1E+10	1	-1E+10	1	-1E+10	1	-1E+10	1	-1E+10	1	-1E+10	1
4901784	34	C	06/09/2016	10:52	-132.253	44.993	0	1570.00	0	2.3970	0	34.5140	0	27.559	0	1551.416	0	30.5	4	9.3	4	-1E+10	1	-1E+10	1	-1E+10	1	-1E+10	1	-1E+10	1	-1E+10	1
4901784	34	C	06/09/2016	10:52	-132.253	44.993	0	1574.20	0	2.3870	0	34.5150	0	27.561	0	1555.550	0	30.8	4	9.4	4	-1E+10	1	-1E+10	1	-1E+10	1	-1E+10	1	-1E+10	1	-1E+10	1
4901784	34	C	06/09/2016	10:52	-132.253	44.993	0	1579.30	0	2.3820	0	34.5160	0	27.562	0	1560.571	0	31.3	4	9.5	4	-1E+10	1	-1E+10	1	-1E+10	1	-1E+10	1	-1E+10	1	-1E+10	1
4901784	34	C	06/09/2016	10:52	-132.253	44.993	0	1584.30	0	2.3750	0	34.5180	0	27.564	0	1565.494	0	31.7	4	9.7	4	-1E+10	1	-1E+10	1	-1E+10	1	-1E+10	1	-1E+10	1	-1E+10	1
4901784	34	C	06/09/2016	10:52	-132.253	44.993	0	1589.40	0	2.3640	0	34.5190	0	27.566	0	1570.514	0	32.2	4	9.8	4	-1E+10	1	-1E+10	1	-1E+10	1	-1E+10	1	-1E+10	1	-1E+10	1
4901784	34	C	06/09/2016	10:52	-132.253	44.993	0	1594.60	0	2.3540	0	34.5210	0	27.568	0	1575.633	0	32.6	4	9.9	4	-1E+10	1	-1E+10	1	-1E+10	1	-1E+10	1	-1E+10	1	-1E+10	1
4901784	34	C	06/09/2016	10:52	-132.253	44.993	0	1599.80	0	2.3520	0	34.5220	0	27.569	0	1580.752	0	32.9	4	10.0	4	-1E+10	1	-1E+10	1	-1E+10	1	-1E+10	1	-1E+10	1	-1E+10	1
4901784	34	C	06/09/2016	10:52	-132.253	44.993	0	1605.00	0	2.3440	0	34.5230	0	27.571	0	1585.870	0	33.3	4	10.1	4	-1E+10	1	-1E+10	1	-1E+10	1	-1E+10	1	-1E+10	1	-1E+10	1
4901784	34	C	06/09/2016	10:52	-132.253	44.993	0	1610.30	0	2.3340	0	34.5240	0	27.572	0	1591.087	0	33.6	4	10.2	4	-1E+10	1	-1E+10	1	-1E+10	1	-1E+10	1	-1E+10	1	-1E+10	1
4901784	34	C	06/09/2016	10:52	-132.253	44.993	0	1615.60	0	2.3290	0	34.5250	0	27.574	0	1596.304	0	33.9	4	10.3	4	-1E+10	1	-1E+10	1	-1E+10	1	-1E+10	1	-1E+10	1	-1E+10	1
4901784	34	C	06/09/2016	10:52	-132.253	44.993	0	1620.10	0	2.3220	0	34.5260	0	27.575	0	1600.733	0	34.2	4	10.4	4	-1E+10	1	-1E+10	1	-1E+10	1	-1E+10	1	-1E+10	1	-1E+10	1
4901784	34	C	06/09/2016	10:52	-132.253	44.993	0	1624.60	0	2.3160	0	34.5270	0	27.576	0	1605.162	0	34.4	4	10.4	4	-1E+10	1	-1E+10	1	-1E+10	1	-1E+10	1	-1E+10	1	-1E+10	1
4901784	34	C	06/09/2016	10:52	-132.253	44.993	0	1630.00	0	2.3120	0	34.5270	0	27.577	0	1610.477	0	34.5	4	10.5	4	-1E+10	1	-1E+10	1	-1E+10	1	-1E+10	1	-1E+10	1	-1E+10	1
4901784	34	C	06/09/2016	10:52	-132.253	44.993	0	1635.50	0	2.3070	0	34.5270	0	27.577	0	1615.891	0	34.8	4	10.6	4	-1E+10	1	-1E+10	1	-1E+10	1	-1E+10	1	-1E+10	1	-1E+10	1
4901784	34	C	06/09/2016	10:52	-132.253	44.993	0	1640.00	0	2.3020	0	34.5280	0	27.578	0	1620.319	0	34.9	4	10.6	4	-1E+10	1	-1E+10	1	-1E+10	1	-1E+10	1	-1E+10	1	-1E+10	1
4901784	34	C	06/09/2016	10:52	-132.253	44.993	0	1644.70	0	2.2930	0	34.5290	0	27.580	0	1624.945	0	35.0	4	10.6	4	-1E+10	1	-1E+10	1	-1E+10	1	-1E+10	1	-1E+10	1	-1E+10	1
4901784	34	C	06/09/2016	10:52	-132.253	44.993	0	1650.30	0	2.2860	0	34.5290	0	27.580	0	1630.456	0	35.2	4	10.7	4	-1E+10	1	-1E+10	1	-1E+10	1	-1E+10	1	-1E+10	1	-1E+10	1
4901784	34	C	06/09/2016	10:52	-132.253	44.993	0	1654.90	0	2.2790	0	34.5290	0	27.581	0	1634.983	0	35.6	4	10.8	4	-1E+10	1	-1E+10	1	-1E+10	1	-1E+10	1	-1E+10	1	-1E+10	1
4901784	34	C	06/09/2016	10:52	-132.253	44.993	0	1659.80	0	2.2750	0	34.5310	0	27.583	0	1639.805	0	36.0	4	10.9	4	-1E+10	1	-1E+10	1	-1E+10	1	-1E+10	1	-1E+10	1	-1E+10	1
4901784	34	C	06/09/2016	10:52	-132.253	44.993	0	1665.00	0	2.2700	0	34.5320	0	27.584	0	1644.922	0	36.5	4	11.1	4	-1E+10	1	-1E+10	1	-1E+10	1	-1E+10	1	-1E+10	1	-1E+10	1
4901784	34	C	06/09/2016	10:52	-132.253	44.993	0	1669.90	0	2.2670	0	34.5340	0	27.586	0	1649.744	0	36.8	4	11.2	4	-1E+10	1	-1E+10	1	-1E+10	1	-1E+10	1	-1E+10	1	-1E+10	1
4901784	34	C	06/09/2016	10:52	-132.253	44.993	0	1674.80	0	2.2640	0	34.5350	0	27.587	0	1654.566	0	37.1	4	11.2	4	-1E+10	1	-1E+10	1	-1E+10	1	-1E+10	1	-1E+10	1	-1E+10	1
4901784	34	C	06/09/2016	10:52	-132.253	44.993	0	1679.80	0	2.2590	0	34.5350	0	27.588	0	1659.486	0	37.3	4	11.3	4	-1E+10	1	-1E+10	1	-1E+10	1	-1E+10	1	-1E+10	1	-1E+10	1
4901784	34	C	06/09/2016	10:52	-132.253	44.993	0	1684.80	0	2.2540	0	34.5360	0	27.589	0	1664.406	0	37.6	4	11.4	4	-1E+10	1	-1E+10	1	-1E+10	1	-1E+10	1	-1E+10	1	-1E+10	1
4901784	34	C	06/09/2016	10:52	-132.253	44.993	0	1689.90	0	2.2490	0	34.5370	0	27.590	0	1669.424	0	37.9	4	11.5	4	-1E+10	1	-1E+10	1	-1E+10	1	-1E+10	1	-1E+10	1	-1E+10	1
4901784	34	C	06/09/2016	10:52	-132.253	44.993	0	1694.90	0	2.2410	0	34.5370	0	27.591	0	1674.344	0	38.2	4	11.6	4	-1E+10	1	-1E+10	1	-1E+10	1	-1E+10	1	-1E+10	1	-1E+10	1
4901784	34	C	06/09/2016	10:52	-132.253	44.993	0	1700.00	0	2.2370	0	34.5380	0	27.592	0	1679.362	0	38.5	4	11.7	4	-1E+10	1	-1E+10	1	-1E+10	1	-1E+10	1	-1E+10	1	-1E+10	1
4901784	34	C	06/09/2016	10:52	-132.253	44.993	0	1705.10	0	2.2300	0	34.5390	0	27.593	0	1684.380	0	38.9	4	11.8	4	-1E+10	1	-1E+10	1	-1E+10	1	-1E+10	1	-1E+10	1	-1E+10	1
4901784	34	C	06/09/2016	10:52	-132.253	44.993	0	1710.30	0	2.2220	0	34.5410	0	27.595	0	1689.496	0	39.2	4	11.9	4	-1E+10	1	-1E+10	1	-1E+10	1	-1E+10	1	-1E+10	1	-1E+10	1
4901784	34	C	06/09/2016	10:52	-132.253	44.993	0	1715.50	0	2.2170	0	34.5410	0	27.596	0	1694.612	0	39.6	4	12.0	4	-1E+10	1	-1E+10	1	-1E+10	1	-1E+10	1	-1E+10	1	-1E+10	1
4901784	34	C	06/09/2016	10:52	-132.253	44.993	0	1720.60	0	2.2090	0	34.5420	0	27.597	0	1699.629	0	40.0	4	12.1	4	-1E+10	1	-1E+10	1	-1E+10	1	-1E+10	1	-1E+10	1	-1E+10	1
4901784	34	C	06/09/2016	10:52	-132.253	44.993	0	1725.00	0	2.2010	0	34.5430	0	27.599	0	1703.958	0	40.3	4	12.2	4	-1E+10	1	-1E+10	1	-1E+10	1	-1E+10	1	-1E+10	1	-1E+10	1
4901784	34	C	06/09/2016	10:52	-132.253	44.993	0	1729.30	0	2.1970	0	34.5440	0	27.600	0	1708.188	0	40.5	4	12.3	4	-1E+10	1	-1E+10	1	-1E+10	1	-1E+10	1	-1E+10	1	-1E+10	1
4901784	34	C	06/09/2016	10:52	-132.253	44.993	0	1734.50	0	2.1940	0	34.5450	0	27.601	0	1713.304	0	40.8	4	12.4	4	-1E+10	1	-1E+10	1	-1E+10	1	-1E+10	1	-1E+10	1	-1E+10	1
4901784	34	C	06/09/2016	10:52	-132.253	44.993	0	1739.70	0	2.1860	0	34.5460	0	27.603	0	1718.419	0	41.1	4	12.4	4	-1E+10	1	-1E+10	1	-1E+10	1	-1E+10	1	-1E+10	1	-1E+10	1
4901784	34	C	06/09/2016	10:52	-132.253	44.993	0	1745.00	0	2.1800	0	34.5470	0	27.604	0	1723.633	0	41.3	4	12.5	4	-1E+10	1	-1E+10	1	-1E+10	1	-1E+10	1	-1E+10	1	-1E+10	1
4901784	34	C	06/09/2016	10:52	-132.253	44.993	0	1750.30	0	2.1760	0	34.5470	0	27.604	0	1728.846	0	41.6	4	12.6	4	-1E+10	1	-1E+10	1	-1E+10	1	-1E+10	1	-1E+10	1	-1E+10	1
4901784	34	C	06/09/2016	10:52	-132.253	44.993	0	1755.70	0	2.1700	0	34.5480	0	27.605	0	1734.158	0	41.9	4	12.7	4	-1E+10	1	-1E+10	1	-1E+10	1	-1E+10	1	-1E+10	1	-1E+10	1
4901784	34	C	06/09/2016	10:52	-132.253	44.993	0	1760.10	0	2.1640	0	34.5490	0	27.607	0	1738.486	0	42.2	4	12.8	4	-1E+10	1	-1E+10	1	-1E+10	1	-1E+10	1	-1E+10	1	-1E+10	1
4901784	34	C	06/09/2016	10:52	-132.253	44.993	0	1764.60	0	2.1580	0	34.5490	0	27.607	0	1742.912	0	42.5	4	12.9	4	-1E+10	1	-1E+10	1	-1E+10	1	-1E+10	1	-1E+10	1	-1E+10	1
4901784	34	C	06/09/2016	10:52	-132.253	44.993	0	1770.00	0	2.1500	0	34.5500	0	27.609	0	1748.224	0	42.9	4	13.0	4	-1E+10	1	-1E+10	1	-1E+10	1	-1E+10	1	-1E+10	1	-1E+10	1
4901784	34	C	06/09/2016	10:52	-132.253	44.993	0	1775.30	0	2.1410	0	34.5510	0	27.610	0	1753.437	0	43.3	4	13.1	4	-1E+10	1	-1E+10	1	-1E+10	1	-1E+10	1	-1E+10	1	-1E+10	1
4901784	34	C	06/09/2016	10:52	-132.253	44.993	0	1780.70	0	2.1350	0	34.5520	0	27.612	0	1758.748	0	43.7	4	13.2	4	-1E+10	1	-1E+10	1	-1E+10	1	-1E+10	1	-1E+10	1	-1E+10	1
4901784	34	C	06/09/2016	10:52	-132.253	44.993	0	1785.40	0	2.1300	0	34.5530	0	27.613	0	1763.370	0	44.0	4	13.3	4	-1E+10	1	-1E+10	1	-1E+10	1	-1E+10	1	-1E+10	1	-1E+10	1
4901784	34	C	06/09/2016	10:52	-132.253	44.993	0	1790.30	0	2.1230	0	34.5540	0	27.614	0	1768.190	0	44.4	4	13.4	4	-1E+10	1	-1E+10	1	-1E+10	1	-1E+10	1	-1E+10	1	-1E+10	1
4901784	34	C	06/09/2016	10:52	-132.253	44.993	0	1795.10	0	2.1160	0	34.5550	0	27.616	0	1772.910	0	44.8	4	13.6	4	-1E+10	1	-1E+10	1	-1E+10	1	-1E+10	1	-1E+10	1	-1E+10	1
4901784	34	C	06/09/2016	10:52	-132.253	44.993	0	1799.90	0	2.1120	0	34.5560	0	27.617	0	1777.631	0	45.2	4	13.7	4	-1E+10	1	-1E+10	1	-1E+10	1	-1E+10	1	-1E+10	1	-1E+10	1
4901784	34	C	06/09/2016	10:52	-132.253	44.993	0	1804.80	0	2.1060	0	34.5570	0	27.618	0	1782.450	0	45.4	4	13.7	4	-1E+10	1	-1E+10	1	-1E+10	1	-1E+10	1	-1E+10	1	-1E+10	1
4901784	34	C	06/09/2016	10:52	-132.253	44.993	0	1809.70	0	2.1010	0	34.5580	0	27.619	0	1787.268	0	45.8	4	13.8	4	-1E+10	1	-1E+10	1	-1E+10	1	-1E+10	1	-1E+10	1	-1E+10	1
4901784	34	C	06/09/2016	10:52	-132.253	44.993	0	1814.60	0	2.0940	0	34.5590	0	27.621	0	1792.087	0	46.1	4	13.9	4	-1E+10	1	-1E+10	1	-1E+10	1	-1E+10	1	-1E+10	1	-1E+10	1
4901784	34	C	06/09/2016	10:52	-132.253	44.993	0	1819.60	0	2.0910	0	34.5590	0	27.621	0	1797.004	0	46.4	4	14.0	4	-1E+10	1	-1E+10	1	-1E+10	1	-1E+10	1	-1E+10	1	-1E+10	1
4901784	34	C	06/09/2016	10:52	-132.253	44.993	0	1824.60	0	2.0860	0	34.5600	0	27.622	0	1801.920	0	46.6	4	14.1	4	-1E+10	1	-1E+10	1	-1E+10	1	-1E+10	1	-1E+10	1	-1E+10	1
4901784	34	C	06/09/2016	10:52	-132.253	44.993	0	1829.70	0	2.0830	0	34.5600	0	27.622	0	1806.935	0	46.8	4	14.1	4	-1E+10	1	-1E+10	1	-1E+10	1	-1E+10	1	-1E+10	1	-1E+10	1
4901784	34	C	06/09/2016	10:52	-132.253	44.993	0	1834.70	0	2.0820	0	34.5610	0	27.623	0	1811.852	0	47.0	4	14.2	4	-1E+10	1	-1E+10	1	-1E+10	1	-1E+10	1	-1E+10	1	-1E+10	1
4901784	34	C	06/09/2016	10:52	-132.253	44.993	0	1839.80	0	2.0780	0	34.5610	0	27.624	0	1816.867	0	47.2	4	14.3	4	-1E+10	1	-1E+10	1	-1E+10	1	-1E+10	1	-1E+10	1	-1E+10	1
4901784	34	C	06/09/2016	10:52	-132.253	44.993	0	1844.90	0	2.0740	0	34.5620	0	27.625	0	1821.881	0	47.4	4	14.3	4	-1E+10	1	-1E+10	1	-1E+10	1	-1E+10	1	-1E+10	1	-1E+10	1
4901784	34	C	06/09/2016	10:52	-132.253	44.993	0	1850.00	0	2.0710	0	34.5620	0	27.625	0	1826.896	0	47.6	4	14.4	4	-1E+10	1	-1E+10	1	-1E+10	1	-1E+10	1	-1E+10	1	-1E+10	1
4901784	34	C	06/09/2016	10:52	-132.253	44.993	0	1855.00	0	2.0670	0	34.5630	0	27.626	0	1831.812	0	47.9	4	14.5	4	-1E+10	1	-1E+10	1	-1E+10	1	-1E+10	1	-1E+10	1	-1E+10	1
4901784	34	C	06/09/2016	10:52	-132.253	44.993	0	1860.00	0	2.0650	0	34.5630	0	27.626	0	1836.728	0	48.1	4	14.5	4	-1E+10	1	-1E+10	1	-1E+10	1	-1E+10	1	-1E+10	1	-1E+10	1
4901784	34	C	06/09/2016	10:52	-132.253	44.993	0	1865.10	0	2.0610	0	34.5640	0	27.627	0	1841.742	0	48.5	4	14.6	4	-1E+10	1	-1E+10	1	-1E+10	1	-1E+10	1	-1E+10	1	-1E+10	1
4901784	34	C	06/09/2016	10:52	-132.253	44.993	0	1870.30	0	2.0530	0	34.5650	0	27.629	0	1846.854	0	48.9	4	14.8	4	-1E+10	1	-1E+10	1	-1E+10	1	-1E+10	1	-1E+10	1	-1E+10	1
4901784	34	C	06/09/2016	10:52	-132.253	44.993	0	1875.50	0	2.0500	0	34.5650	0	27.629	0	1851.966	0	49.1	4	14.8	4	-1E+10	1	-1E+10	1	-1E+10	1	-1E+10	1	-1E+10	1	-1E+10	1
4901784	34	C	06/09/2016	10:52	-132.253	44.993	0	1879.90	0	2.0470	0	34.5660	0	27.630	0	1856.292	0	49.3	4	14.9	4	-1E+10	1	-1E+10	1	-1E+10	1	-1E+10	1	-1E+10	1	-1E+10	1
4901784	34	C	06/09/2016	10:52	-132.253	44.993	0	1884.20	0	2.0440	0	34.5660	0	27.631	0	1860.519	0	49.5	4	14.9	4	-1E+10	1	-1E+10	1	-1E+10	1	-1E+10	1	-1E+10	1	-1E+10	1
4901784	34	C	06/09/2016	10:52	-132.253	44.993	0	1889.40	0	2.0410	0	34.5670	0	27.632	0	1865.631	0	49.8	4	15.0	4	-1E+10	1	-1E+10	1	-1E+10	1	-1E+10	1	-1E+10	1	-1E+10	1
4901784	34	C	06/09/2016	10:52	-132.253	44.993	0	1894.60	0	2.0360	0	34.5670	0	27.632	0	1870.743	0	50.2	4	15.1	4	-1E+10	1	-1E+10	1	-1E+10	1	-1E+10	1	-1E+10	1	-1E+10	1
4901784	34	C	06/09/2016	10:52	-132.253	44.993	0	1899.90	0	2.0310	0	34.5690	0	27.634	0	1875.953	0	50.5	4	15.2	4	-1E+10	1	-1E+10	1	-1E+10	1	-1E+10	1	-1E+10	1	-1E+10	1
4901784	34	C	06/09/2016	10:52	-132.253	44.993	0	1905.10	0	2.0250	0	34.5690	0	27.635	0	1881.064	0	50.8	4	15.3	4	-1E+10	1	-1E+10	1	-1E+10	1	-1E+10	1	-1E+10	1	-1E+10	1
4901784	34	C	06/09/2016	10:52	-132.253	44.993	0	1910.30	0	2.0240	0	34.5690	0	27.635	0	1886.175	0	51.0	4	15.4	4	-1E+10	1	-1E+10	1	-1E+10	1	-1E+10	1	-1E+10	1	-1E+10	1
4901784	34	C	06/09/2016	10:52	-132.253	44.993	0	1915.60	0	2.0200	0	34.5700	0	27.636	0	1891.385	0	51.3	4	15.5	4	-1E+10	1	-1E+10	1	-1E+10	1	-1E+10	1	-1E+10	1	-1E+10	1
4901784	34	C	06/09/2016	10:52	-132.253	44.993	0	1920.00	0	2.0160	0	34.5710	0	27.637	0	1895.710	0	51.6	4	15.6	4	-1E+10	1	-1E+10	1	-1E+10	1	-1E+10	1	-1E+10	1	-1E+10	1
4901784	34	C	06/09/2016	10:52	-132.253	44.993	0	1924.50	0	2.0130	0	34.5710	0	27.637	0	1900.133	0	51.9	4	15.7	4	-1E+10	1	-1E+10	1	-1E+10	1	-1E+10	1	-1E+10	1	-1E+10	1
4901784	34	C	06/09/2016	10:52	-132.253	44.993	0	1929.80	0	2.0060	0	34.5720	0	27.639	0	1905.342	0	52.4	4	15.8	4	-1E+10	1	-1E+10	1	-1E+10	1	-1E+10	1	-1E+10	1	-1E+10	1
4901784	34	C	06/09/2016	10:52	-132.253	44.993	0	1935.20	0	2.0000	0	34.5730	0	27.640	0	1910.649	0	52.8	4	15.9	4	-1E+10	1	-1E+10	1	-1E+10	1	-1E+10	1	-1E+10	1	-1E+10	1
4901784	34	C	06/09/2016	10:52	-132.253	44.993	0	1940.60	0	1.9960	0	34.5740	0	27.641	0	1915.956	0	53.2	4	16.0	4	-1E+10	1	-1E+10	1	-1E+10	1	-1E+10	1	-1E+10	1	-1E+10	1
4901784	34	C	06/09/2016	10:52	-132.253	44.993	0	1945.10	0	1.9910	0	34.5750	0	27.642	0	1920.379	0	53.5	4	16.1	4	-1E+10	1	-1E+10	1	-1E+10	1	-1E+10	1	-1E+10	1	-1E+10	1
4901784	34	C	06/09/2016	10:52	-132.253	44.993	0	1949.60	0	1.9870	0	34.5760	0	27.643	0	1924.801	0	53.8	4	16.2	4	-1E+10	1	-1E+10	1	-1E+10	1	-1E+10	1	-1E+10	1	-1E+10	1
4901784	34	C	06/09/2016	10:52	-132.253	44.993	0	1955.00	0	1.9830	0	34.5760	0	27.644	0	1930.108	0	54.0	4	16.3	4	-1E+10	1	-1E+10	1	-1E+10	1	-1E+10	1	-1E+10	1	-1E+10	1
4901784	34	C	06/09/2016	10:52	-132.253	44.993	0	1960.50	0	1.9810	0	34.5770	0	27.645	0	1935.513	0	54.2	4	16.3	4	-1E+10	1	-1E+10	1	-1E+10	1	-1E+10	1	-1E+10	1	-1E+10	1
4901784	34	C	06/09/2016	10:52	-132.253	44.993	0	1965.00	0	1.9790	0	34.5770	0	27.645	0	1939.936	0	54.4	4	16.4	4	-1E+10	1	-1E+10	1	-1E+10	1	-1E+10	1	-1E+10	1	-1E+10	1
4901784	34	C	06/09/2016	10:52	-132.253	44.993	0	1969.60	0	1.9750	0	34.5780	0	27.646	0	1944.456	0	54.7	4	16.5	4	-1E+10	1	-1E+10	1	-1E+10	1	-1E+10	1	-1E+10	1	-1E+10	1
4901784	34	C	06/09/2016	10:52	-132.253	44.993	0	1975.00	0	1.9710	0	34.5780	0	27.646	0	1949.762	0	55.1	4	16.6	4	-1E+10	1	-1E+10	1	-1E+10	1	-1E+10	1	-1E+10	1	-1E+10	1
4901784	34	C	06/09/2016	10:52	-132.253	44.993	0	1980.50	0	1.9670	0	34.5790	0	27.647	0	1955.167	0	55.5	4	16.7	4	-1E+10	1	-1E+10	1	-1E+10	1	-1E+10	1	-1E+10	1	-1E+10	1
4901784	34	C	06/09/2016	10:52	-132.253	44.993	0	1985.00	0	1.9640	0	34.5800	0	27.649	0	1959.589	0	55.7	4	16.8	4	-1E+10	1	-1E+10	1	-1E+10	1	-1E+10	1	-1E+10	1	-1E+10	1
4901784	34	C	06/09/2016	10:52	-132.253	44.993	0	1990.30	0	1.9610	0	34.5800	0	27.649	0	1964.796	0	55.9	4	16.8	4	-1E+10	1	-1E+10	1	-1E+10	1	-1E+10	1	-1E+10	1	-1E+10	1
4901784	34	C	06/09/2016	10:52	-132.253	44.993	0	1995.30	0	1.9590	0	34.5810	0	27.650	0	1969.709	0	56.0	4	16.9	4	-1E+10	1	-1E+10	1	-1E+10	1	-1E+10	1	-1E+10	1	-1E+10	1
4901784	34	C	06/09/2016	10:52	-132.253	44.993	0	2000.10	0	1.9590	0	34.5810	0	27.650	0	1974.425	0	56.1	4	16.9	4	-1E+10	1	-1E+10	1	-1E+10	1	-1E+10	1	-1E+10	1	-1E+10	1
4901784	34	C	06/09/2016	10:52	-132.253	44.993	0	2005.00	0	1.9570	0	34.5810	0	27.650	0	1979.240	0	56.4	4	17.0	4	-1E+10	1	-1E+10	1	-1E+10	1	-1E+10	1	-1E+10	1	-1E+10	1
4901784	34	C	06/09/2016	10:52	-132.253	44.993	0	2009.90	0	1.9530	0	34.5820	0	27.651	0	1984.054	0	56.6	4	17.1	4	-1E+10	1	-1E+10	1	-1E+10	1	-1E+10	1	-1E+10	1	-1E+10	1
4901784	34	C	06/09/2016	10:52	-132.253	44.993	0	2014.80	0	1.9510	0	34.5820	0	27.651	0	1988.868	0	56.9	4	17.1	4	-1E+10	1	-1E+10	1	-1E+10	1	-1E+10	1	-1E+10	1	-1E+10	1
4901784	34	C	06/09/2016	10:52	-132.253	44.993	0	2020.20	0	1.9490	0	34.5830	0	27.652	0	1994.173	0	57.0	4	17.2	4	-1E+10	1	-1E+10	1	-1E+10	1	-1E+10	1	-1E+10	1	-1E+10	1
4901784	34	C	06/09/2016	10:52	-132.253	44.993	0																										
4901784	35	C	06/19/2016	10:46	-132.364	44.722	0	2.00	0	14.2370	0	32.7370	0	24.390	0	1.984	0	256.7	4	100.5	4	-1E+10	1	-1E+10	1	-1E+10	1	-1E+10	1	-1E+10	1	-1E+10	1
4901784	35	C	06/19/2016	10:46	-132.364	44.722	0	3.60	0	14.2170	0	32.7330	0	24.392	0	3.571	0	257.2	4	100.6	4	-1E+10	1	-1E+10	1	-1E+10	1	-1E+10	1	-1E+10	1	-1E+10	1
4901784	35	C	06/19/2016	10:46	-132.364	44.722	0	5.30	0	14.2290	0	32.7330	0	24.389	0	5.257	0	257.4	4	100.7	4	-1E+10	1	-1E+10	1	-1E+10	1	-1E+10	1	-1E+10	1	-1E+10	1
4901784	35	C	06/19/2016	10:46	-132.364	44.722	0	7.00	0	14.1890	0	32.7220	0	24.389	0	6.943	0	258.3	4	101.0	4	-1E+10	1	-1E+10	1	-1E+10	1	-1E+10	1	-1E+10	1	-1E+10	1
4901784	35	C	06/19/2016	10:46	-132.364	44.722	0	8.80	0	14.0460	0	32.7240	0	24.420	0	8.729	0	259.1	4	101.0	4	-1E+10	1	-1E+10	1	-1E+10	1	-1E+10	1	-1E+10	1	-1E+10	1
4901784	35	C	06/19/2016	10:46	-132.364	44.722	0	10.60	0	13.7670	0	32.7070	0	24.464	0	10.514	0	261.3	4	101.3	4	-1E+10	1	-1E+10	1	-1E+10	1	-1E+10	1	-1E+10	1	-1E+10	1
4901784	35	C	06/19/2016	10:46	-132.364	44.722	0	12.40	0	13.5260	0	32.7050	0	24.512	0	12.299	0	263.0	4	101.4	4	-1E+10	1	-1E+10	1	-1E+10	1	-1E+10	1	-1E+10	1	-1E+10	1
4901784	35	C	06/19/2016	10:46	-132.364	44.722	0	14.30	0	13.4000	0	32.7040	0	24.536	0	14.184	0	263.5	4	101.4	4	-1E+10	1	-1E+10	1	-1E+10	1	-1E+10	1	-1E+10	1	-1E+10	1
4901784	35	C	06/19/2016	10:46	-132.364	44.722	0	16.10	0	13.3550	0	32.7040	0	24.545	0	15.969	0	263.6	4	101.3	4	-1E+10	1	-1E+10	1	-1E+10	1	-1E+10	1	-1E+10	1	-1E+10	1
4901784	35	C	06/19/2016	10:46	-132.364	44.722	0	17.90	0	13.3310	0	32.7000	0	24.547	0	17.754	0	263.9	4	101.4	4	-1E+10	1	-1E+10	1	-1E+10	1	-1E+10	1	-1E+10	1	-1E+10	1
4901784	35	C	06/19/2016	10:46	-132.364	44.722	0	19.80	0	13.2880	0	32.6980	0	24.554	0	19.639	0	264.2	4	101.4	4	-1E+10	1	-1E+10	1	-1E+10	1	-1E+10	1	-1E+10	1	-1E+10	1
4901784	35	C	06/19/2016	10:46	-132.364	44.722	0	21.60	0	13.2580	0	32.6950	0	24.558	0	21.424	0	264.9	4	101.6	4	-1E+10	1	-1E+10	1	-1E+10	1	-1E+10	1	-1E+10	1	-1E+10	1
4901784	35	C	06/19/2016	10:46	-132.364	44.722	0	23.50	0	13.1490	0	32.6930	0	24.578	0	23.309	0	266.2	4	101.9	4	-1E+10	1	-1E+10	1	-1E+10	1	-1E+10	1	-1E+10	1	-1E+10	1
4901784	35	C	06/19/2016	10:46	-132.364	44.722	0	25.20	0	12.9110	0	32.6890	0	24.622	0	24.995	0	268.5	4	102.3	4	-1E+10	1	-1E+10	1	-1E+10	1	-1E+10	1	-1E+10	1	-1E+10	1
4901784	35	C	06/19/2016	10:46	-132.364	44.722	0	27.00	0	12.0330	0	32.6700	0	24.775	0	26.780	0	272.2	4	101.8	4	-1E+10	1	-1E+10	1	-1E+10	1	-1E+10	1	-1E+10	1	-1E+10	1
4901784	35	C	06/19/2016	10:46	-132.364	44.722	0	29.00	0	11.5960	0	32.6740	0	24.859	0	28.763	0	272.7	4	101.0	4	-1E+10	1	-1E+10	1	-1E+10	1	-1E+10	1	-1E+10	1	-1E+10	1
4901784	35	C	06/19/2016	10:46	-132.364	44.722	0	31.00	0	11.4100	0	32.6670	0	24.887	0	30.747	0	270.2	4	99.7	4	-1E+10	1	-1E+10	1	-1E+10	1	-1E+10	1	-1E+10	1	-1E+10	1
4901784	35	C	06/19/2016	10:46	-132.364	44.722	0	32.90	0	11.4150	0	32.6820	0	24.898	0	32.631	0	267.7	4	98.8	4	-1E+10	1	-1E+10	1	-1E+10	1	-1E+10	1	-1E+10	1	-1E+10	1
4901784	35	C	06/19/2016	10:46	-132.364	44.722	0	34.80	0	11.3090	0	32.6910	0	24.924	0	34.515	0	265.5	4	97.8	4	-1E+10	1	-1E+10	1	-1E+10	1	-1E+10	1	-1E+10	1	-1E+10	1
4901784	35	C	06/19/2016	10:46	-132.364	44.722	0	36.90	0	11.3950	0	32.7250	0	24.935	0	36.598	0	263.9	4	97.4	4	-1E+10	1	-1E+10	1	-1E+10	1	-1E+10	1	-1E+10	1	-1E+10	1
4901784	35	C	06/19/2016	10:46	-132.364	44.722	0	38.80	0	11.3940	0	32.7520	0	24.956	0	38.482	0	261.7	4	96.6	4	-1E+10	1	-1E+10	1	-1E+10	1	-1E+10	1	-1E+10	1	-1E+10	1
4901784	35	C	06/19/2016	10:46	-132.364	44.722	0	40.80	0	11.0790	0	32.7620	0	25.020	0	40.466	0	261.3	4	95.8	4	-1E+10	1	-1E+10	1	-1E+10	1	-1E+10	1	-1E+10	1	-1E+10	1
4901784	35	C	06/19/2016	10:46	-132.364	44.722	0	42.80	0	10.8430	0	32.7510	0	25.054	0	42.449	0	262.3	4	95.7	4	-1E+10	1	-1E+10	1	-1E+10	1	-1E+10	1	-1E+10	1	-1E+10	1
4901784	35	C	06/19/2016	10:46	-132.364	44.722	0	44.80	0	10.7850	0	32.7490	0	25.062	0	44.433	0	261.9	4	95.5	4	-1E+10	1	-1E+10	1	-1E+10	1	-1E+10	1	-1E+10	1	-1E+10	1
4901784	35	C	06/19/2016	10:46	-132.364	44.722	0	47.10	0	10.6340	0	32.7450	0	25.085	0	46.714	0	261.9	4	95.1	4	-1E+10	1	-1E+10	1	-1E+10	1	-1E+10	1	-1E+10	1	-1E+10	1
4901784	35	C	06/19/2016	10:46	-132.364	44.722	0	48.90	0	10.4050	0	32.7220	0	25.107	0	48.499	0	261.2	4	94.4	4	-1E+10	1	-1E+10	1	-1E+10	1	-1E+10	1	-1E+10	1	-1E+10	1
4901784	35	C	06/19/2016	10:46	-132.364	44.722	0	50.50	0	10.1160	0	32.7670	0	25.191	0	50.085	0	261.7	4	94.0	4	-1E+10	1	-1E+10	1	-1E+10	1	-1E+10	1	-1E+10	1	-1E+10	1
4901784	35	C	06/19/2016	10:46	-132.364	44.722	0	52.10	0	10.0990	0	32.7690	0	25.195	0	51.672	0	261.2	4	93.8	4	-1E+10	1	-1E+10	1	-1E+10	1	-1E+10	1	-1E+10	1	-1E+10	1
4901784	35	C	06/19/2016	10:46	-132.364	44.722	0	53.80	0	10.0330	0	32.7790	0	25.214	0	53.358	0	260.3	4	93.4	4	-1E+10	1	-1E+10	1	-1E+10	1	-1E+10	1	-1E+10	1	-1E+10	1
4901784	35	C	06/19/2016	10:46	-132.364	44.722	0	55.20	0	10.0390	0	32.7870	0	25.219	0	54.746	0	259.4	4	93.1	4	-1E+10	1	-1E+10	1	-1E+10	1	-1E+10	1	-1E+10	1	-1E+10	1
4901784	35	C	06/19/2016	10:46	-132.364	44.722	0	56.40	0	10.0260	0	32.8000	0	25.232	0	55.936	0	258.6	4	92.8	4	-1E+10	1	-1E+10	1	-1E+10	1	-1E+10	1	-1E+10	1	-1E+10	1
4901784	35	C	06/19/2016	10:46	-132.364	44.722	0	57.80	0	9.9890	0	32.8140	0	25.249	0	57.324	0	258.4	4	92.6	4	-1E+10	1	-1E+10	1	-1E+10	1	-1E+10	1	-1E+10	1	-1E+10	1
4901784	35	C	06/19/2016	10:46	-132.364	44.722	0	59.50	0	9.9910	0	32.8270	0	25.259	0	59.010	0	257.8	4	92.4	4	-1E+10	1	-1E+10	1	-1E+10	1	-1E+10	1	-1E+10	1	-1E+10	1
4901784	35	C	06/19/2016	10:46	-132.364	44.722	0	61.20	0	9.9510	0	32.8240	0	25.263	0	60.696	0	257.5	4	92.2	4	-1E+10	1	-1E+10	1	-1E+10	1	-1E+10	1	-1E+10	1	-1E+10	1
4901784	35	C	06/19/2016	10:46	-132.364	44.722	0	63.10	0	9.8350	0	32.8190	0	25.278	0	62.580	0	258.0	4	92.2	4	-1E+10	1	-1E+10	1	-1E+10	1	-1E+10	1	-1E+10	1	-1E+10	1
4901784	35	C	06/19/2016	10:46	-132.364	44.722	0	65.00	0	9.8900	0	32.8350	0	25.282	0	64.464	0	257.4	4	92.1	4	-1E+10	1	-1E+10	1	-1E+10	1	-1E+10	1	-1E+10	1	-1E+10	1
4901784	35	C	06/19/2016	10:46	-132.364	44.722	0	67.10	0	9.8520	0	32.8290	0	25.283	0	66.546	0	257.1	4	91.9	4	-1E+10	1	-1E+10	1	-1E+10	1	-1E+10	1	-1E+10	1	-1E+10	1
4901784	35	C	06/19/2016	10:46	-132.364	44.722	0	67.60	0	9.8520	0	32.8330	0	25.286	0	67.042	0	256.9	4	91.8	4	-1E+10	1	-1E+10	1	-1E+10	1	-1E+10	1	-1E+10	1	-1E+10	1
4901784	35	C	06/19/2016	10:46	-132.364	44.722	0	69.30	0	9.8360	0	32.8290	0	25.286	0	68.728	0	256.4	4	91.6	4	-1E+10	1	-1E+10	1	-1E+10	1	-1E+10	1	-1E+10	1	-1E+10	1
4901784	35	C	06/19/2016	10:46	-132.364	44.722	0	70.80	0	9.7430	0	32.8290	0	25.301	0	70.215	0	256.0	4	91.3	4	-1E+10	1	-1E+10	1	-1E+10	1	-1E+10	1	-1E+10	1	-1E+10	1
4901784	35	C	06/19/2016	10:46	-132.364	44.722	0	72.40	0	9.7810	0	32.8420	0	25.305	0	71.802	0	255.0	4	91.0	4	-1E+10	1	-1E+10	1	-1E+10	1	-1E+10	1	-1E+10	1	-1E+10	1
4901784	35	C	06/19/2016	10:46	-132.364	44.722	0	73.90	0	9.8000	0	32.8510	0	25.309	0	73.289	0	254.0	4	90.7	4	-1E+10	1	-1E+10	1	-1E+10	1	-1E+10	1	-1E+10	1	-1E+10	1
4901784	35	C	06/19/2016	10:46	-132.364	44.722	0	75.40	0	9.8630	0	32.8790	0	25.321	0	74.776	0	252.4	4	90.3	4	-1E+10	1	-1E+10	1	-1E+10	1	-1E+10	1	-1E+10	1	-1E+10	1
4901784	35	C	06/19/2016	10:46	-132.364	44.722	0	76.90	0	9.8350	0	32.8870	0	25.331	0	76.264	0	251.6	4	89.9	4	-1E+10	1	-1E+10	1	-1E+10	1	-1E+10	1	-1E+10	1	-1E+10	1
4901784	35	C	06/19/2016	10:46	-132.364	44.722	0	78.50	0	9.8040	0	32.8900	0	25.339	0	77.850	0	251.0	4	89.6	4	-1E+10	1	-1E+10	1	-1E+10	1	-1E+10	1	-1E+10	1	-1E+10	1
4901784	35	C	06/19/2016	10:46	-132.364	44.722	0	80.10	0	9.8040	0	32.8910	0	25.340	0	79.436	0	250.1	4	89.3	4	-1E+10	1	-1E+10	1	-1E+10	1	-1E+10	1	-1E+10	1	-1E+10	1
4901784	35	C	06/19/2016	10:46	-132.364	44.722	0	81.60	0	9.8190	0	32.8950	0	25.340	0	80.924	0	248.9	4	88.9	4	-1E+10	1	-1E+10	1	-1E+10	1	-1E+10	1	-1E+10	1	-1E+10	1
4901784	35	C	06/19/2016	10:46	-132.364	44.722	0	83.10	0	9.7740	0	32.9040	0	25.355	0	82.411	0	247.6	4	88.4	4	-1E+10	1	-1E+10	1	-1E+10	1	-1E+10	1	-1E+10	1	-1E+10	1
4901784	35	C	06/19/2016	10:46	-132.364	44.722	0	84.60	0	9.7370	0	32.9080	0	25.364	0	83.898	0	246.3	4	87.9	4	-1E+10	1	-1E+10	1	-1E+10	1	-1E+10	1	-1E+10	1	-1E+10	1
4901784	35	C	06/19/2016	10:46	-132.364	44.722	0	86.10	0	9.6820	0	32.9140	0	25.378	0	85.385	0	244.6	4	87.1	4	-1E+10	1	-1E+10	1	-1E+10	1	-1E+10	1	-1E+10	1	-1E+10	1
4901784	35	C	06/19/2016	10:46	-132.364	44.722	0	87.70	0	9.5400	0	32.9180	0	25.404	0	86.972	0	243.0	4	86.3	4	-1E+10	1	-1E+10	1	-1E+10	1	-1E+10	1	-1E+10	1	-1E+10	1
4901784	35	C	06/19/2016	10:46	-132.364	44.722	0	89.20	0	9.3270	0	32.9280	0	25.446	0	88.459	0	241.0	4	85.2	4	-1E+10	1	-1E+10	1	-1E+10	1	-1E+10	1	-1E+10	1	-1E+10	1
4901784	35	C	06/19/2016	10:46	-132.364	44.722	0	90.80	0	9.5600	0	32.9790	0	25.449	0	90.045	0	237.3	4	84.3	4	-1E+10	1	-1E+10	1	-1E+10	1	-1E+10	1	-1E+10	1	-1E+10	1
4901784	35	C	06/19/2016	10:46	-132.364	44.722	0	92.60	0	9.5800	0	33.0370	0	25.491	0	91.830	0	234.0	4	83.3	4	-1E+10	1	-1E+10	1	-1E+10	1	-1E+10	1	-1E+10	1	-1E+10	1
4901784	35	C	06/19/2016	10:46	-132.364	44.722	0	94.30	0	9.5580	0	33.0430	0	25.499	0	93.516	0	232.2	4	82.6	4	-1E+10	1	-1E+10	1	-1E+10	1	-1E+10	1	-1E+10	1	-1E+10	1
4901784	35	C	06/19/2016	10:46	-132.364	44.722	0	96.00	0	9.5490	0	33.0620	0	25.515	0	95.201	0	230.0	4	81.8	4	-1E+10	1	-1E+10	1	-1E+10	1	-1E+10	1	-1E+10	1	-1E+10	1
4901784	35	C	06/19/2016	10:46	-132.364	44.722	0	97.60	0	9.5090	0	33.0920	0	25.545	0	96.787	0	227.7	4	80.9	4	-1E+10	1	-1E+10	1	-1E+10	1	-1E+10	1	-1E+10	1	-1E+10	1
4901784	35	C	06/19/2016	10:46	-132.364	44.722	0	99.30	0	9.4280	0	33.1010	0	25.565	0	98.473	0	225.6	4	80.0	4	-1E+10	1	-1E+10	1	-1E+10	1	-1E+10	1	-1E+10	1	-1E+10	1
4901784	35	C	06/19/2016	10:46	-132.364	44.722	0	102.80	0	9.4280	0	33.1450	0	25.600	0	101.943	0	218.2	4	77.4	4	-1E+10	1	-1E+10	1	-1E+10	1	-1E+10	1	-1E+10	1	-1E+10	1
4901784	35	C	06/19/2016	10:46	-132.364	44.722	0	105.40	0	9.3600	0	33.2440	0	25.688	0	104.520	0	212.8	4	75.5	4	-1E+10	1	-1E+10	1	-1E+10	1	-1E+10	1	-1E+10	1	-1E+10	1
4901784	35	C	06/19/2016	10:46	-132.364	44.722	0	108.10	0	9.3020	0	33.2800	0	25.726	0	107.197	0	208.7	4	73.9	4	-1E+10	1	-1E+10	1	-1E+10	1	-1E+10	1	-1E+10	1	-1E+10	1
4901784	35	C	06/19/2016	10:46	-132.364	44.722	0	109.90	0	9.2150	0	33.3440	0	25.790	0	108.982	0	206.1	4	72.9	4	-1E+10	1	-1E+10	1	-1E+10	1	-1E+10	1	-1E+10	1	-1E+10	1
4901784	35	C	06/19/2016	10:46	-132.364	44.722	0	112.60	0	9.1400	0	33.4190	0	25.860	0	111.658	0	202.8	4	71.7	4	-1E+10	1	-1E+10	1	-1E+10	1	-1E+10	1	-1E+10	1	-1E+10	1
4901784	35	C	06/19/2016	10:46	-132.364	44.722	0	115.40	0	9.0550	0	33.4950	0	25.933	0	114.434	0	200.1	4	70.6	4	-1E+10	1	-1E+10	1	-1E+10	1	-1E+10	1	-1E+10	1	-1E+10	1
4901784	35	C	06/19/2016	10:46	-132.364	44.722	0	117.90	0	8.9860	0	33.5420	0	25.981	0	116.913	0	197.9	4	69.7	4	-1E+10	1	-1E+10	1	-1E+10	1	-1E+10	1	-1E+10	1	-1E+10	1
4901784	35	C	06/19/2016	10:46	-132.364	44.722	0	119.80	0	8.8930	0	33.5690	0	26.017	0	118.796	0	196.0	4	68.9	4	-1E+10	1	-1E+10	1	-1E+10	1	-1E+10	1	-1E+10	1	-1E+10	1
4901784	35	C	06/19/2016	10:46	-132.364	44.722	0	122.10	0	8.8250	0	33.5930	0	26.046	0	121.076	0	194.4	4	68.3	4	-1E+10	1	-1E+10	1	-1E+10	1	-1E+10	1	-1E+10	1	-1E+10	1
4901784	35	C	06/19/2016	10:46	-132.364	44.722	0	125.30	0	8.7470	0	33.6140	0	26.075	0	124.248	0	192.6	4	67.6	4	-1E+10	1	-1E+10	1	-1E+10	1	-1E+10	1	-1E+10	1	-1E+10	1
4901784	35	C	06/19/2016	10:46	-132.364	44.722	0	127.70	0	8.7140	0	33.6250	0	26.089	0	126.627	0	191.7	4	67.2	4	-1E+10	1	-1E+10	1	-1E+10	1	-1E+10	1	-1E+10	1	-1E+10	1
4901784	35	C	06/19/2016	10:46	-132.364	44.722	0	130.20	0	8.6880	0	33.6340	0	26.100	0	129.106	0	190.9	4	66.9	4	-1E+10	1	-1E+10	1	-1E+10	1	-1E+10	1	-1E+10	1	-1E+10	1
4901784	35	C	06/19/2016	10:46	-132.364	44.722	0	132.70	0	8.6260	0	33.6650	0	26.134	0	131.584	0	190.1	4	66.6	4	-1E+10	1	-1E+10	1	-1E+10	1	-1E+10	1	-1E+10	1	-1E+10	1
4901784	35	C	06/19/2016	10:46	-132.364	44.722	0	135.30	0	8.6200	0	33.6710	0	26.139	0	134.161	0	189.4	4	66.3	4	-1E+10	1	-1E+10	1	-1E+10	1	-1E+10	1	-1E+10	1	-1E+10	1
4901784	35	C	06/19/2016	10:46	-132.364	44.722	0	137.90	0	8.5930	0	33.6920	0	26.160	0	136.738	0	188.8	4	66.1	4	-1E+10	1	-1E+10	1	-1E+10	1	-1E+10	1	-1E+10	1	-1E+10	1
4901784	35	C	06/19/2016	10:46	-132.364	44.722	0	139.60	0	8.5660	0	33.7280	0	26.192	0	138.424	0	188.4	4	65.9	4	-1E+10	1	-1E+10	1	-1E+10	1	-1E+10	1	-1E+10	1	-1E+10	1
4901784	35	C	06/19/2016	10:46	-132.364	44.722	0	142.20	0	8.5360	0	33.7480	0	26.213	0	141.001	0	188.0	4	65.7	4	-1E+10	1	-1E+10	1	-1E+10	1	-1E+10	1	-1E+10	1	-1E+10	1
4901784	35	C	06/19/2016	10:46	-132.364	44.722	0	144.80	0	8.5020	0	33.7580	0	26.226	0	143.578	0	187.5	4	65.5	4	-1E+10	1	-1E+10	1	-1E+10	1	-1E+10	1	-1E+10	1	-1E+10	1
4901784	35	C	06/19/2016	10:46	-132.364	44.722	0	147.70	0	8.4610	0	33.7720	0	26.243	0	146.452	0	186.3	4	65.0	4	-1E+10	1	-1E+10	1	-1E+10	1	-1E+10	1	-1E+10	1	-1E+10	1
4901784	35	C	06/19/2016	10:46	-132.364	44.722	0	150.00	0	8.4120	0	33.7970	0	26.270	0	148.732	0	185.2	4	64.6	4	-1E+10	1	-1E+10	1	-1E+10	1	-1E+10	1	-1E+10	1	-1E+10	1
4901784	35	C	06/19/2016	10:46	-132.364	44.722	0	152.40	0	8.3540	0	33.8110	0	26.290	0	151.111	0	184.1	4	64.1	4	-1E+10	1	-1E+10	1	-1E+10	1	-1E+10	1	-1E+10	1	-1E+10	1
4901784	35	C	06/19/2016	10:46	-132.364	44.722	0	154.70	0	8.3220	0	33.8200	0	26.302	0	153.391	0	183.2	4	63.8	4	-1E+10	1	-1E+10	1	-1E+10	1	-1E+10	1	-1E+10	1	-1E+10	1
4901784	35	C	06/19/2016	10:46	-132.364	44.722	0	157.80	0	8.2880	0	33.8260	0	26.312	0	156.463	0	181.6	4	63.2	4	-1E+10	1	-1E+10	1	-1E+10	1	-1E+10	1	-1E+10	1	-1E+10	1
4901784	35	C	06/19/2016	10:46	-132.364	44.722	0	160.20	0	8.2450	0	33.8320	0	26.323	0	158.842	0	180.4	4	62.7	4	-1E+10	1	-1E+10	1	-1E+10	1	-1E+10	1	-1E+10	1	-1E+10	1
4901784	35	C	06/19/2016	10:46	-132.364	44.722	0	162.60	0	8.2030	0	33.8490	0	26.342	0	161.221	0	179.4	4	62.3	4	-1E+10	1	-1E+10	1	-1E+10	1	-1E+10	1	-1E+10	1	-1E+10	1
4901784	35	C	06/19/2016	10:46	-132.364	44.722	0	164.90	0	8.2000	0	33.8550	0	26.348	0	163.500	0	178.1	4	61.8	4	-1E+10	1	-1E+10	1	-1E+10	1	-1E+10	1	-1E+10	1	-1E+10	1
4901784	35	C	06/19/2016	10:46	-132.364	44.722	0	167.40	0	8.1470	0	33.8580	0	26.358	0	165.978	0	176.6	4	61.2	4	-1E+10	1	-1E+10	1	-1E+10	1	-1E+10	1	-1E+10	1	-1E+10	1
4901784	35	C	06/19/2016	10:46	-132.364	44.722	0	169.80	0	8.0960	0	33.8590	0	26.366	0	168.357	0	175.5	4	60.8	4	-1E+10	1	-1E+10	1	-1E+10	1	-1E+10	1	-1E+10	1	-1E+10	1
4901784	35	C	06/19/2016	10:46	-132.364	44.722	0	172.20	0	8.0810	0	33.8630	0	26.372	0	170.735	0	174.5	4	60.4	4	-1E+10	1	-1E+10	1	-1E+10	1	-1E+10	1	-1E+10	1	-1E+10	1
4901784	35	C	06/19/2016	10:46	-132.364	44.722	0	174.70	0	8.0540	0	33.8690	0	26.380	0	173.213	0	172.9	4	59.8	4	-1E+10	1	-1E+10	1	-1E+10	1	-1E+10	1	-1E+10	1	-1E+10	1
4901784	35	C	06/19/2016	10:46	-132.364	44.722	0	177.20	0	7.9850	0	33.8680	0	26.390	0	175.691	0	171.3	4	59.2	4	-1E+10	1	-1E+10	1	-1E+10	1	-1E+10	1	-1E+10	1	-1E+10	1
4901784	35	C	06/19/2016	10:46	-132.364	44.722	0	180.40	0	7.9430	0	33.8680	0	26.396	0	178.862	0	170.4	4	58.8	4	-1E+10	1	-1E+10	1	-1E+10	1	-1E+10	1	-1E+10	1	-1E+10	1
4901784	35	C	06/19/2016	10:46	-132.364	44.722	0	182.90	0	7.9070	0	33.8650	0	26.399	0	181.340	0	169.8	4	58.6	4	-1E+10	1	-1E+10	1	-1E+10	1	-1E+10	1	-1E+10	1	-1E+10	1
4901784	35	C	06/19/2016	10:46	-132.364	44.722	0	185.30	0	7.8780	0	33.8760	0	26.412	0	183.718	0	169.3	4	58.4	4	-1E+10	1	-1E+10	1	-1E+10	1	-1E+10	1	-1E+10	1	-1E+10	1
4901784	35	C	06/19/2016	10:46	-132.364	44.722	0	187.80	0	7.8780	0	33.8780	0	26.414	0	186.196	0	168.9	4	58.2	4	-1E+10	1	-1E+10	1	-1E+10	1	-1E+10	1	-1E+10	1	-1E+10	1
4901784	35	C	06/19/2016	10:46	-132.364	44.722	0	190.30	0	7.8370	0	33.8850	0	26.425	0	188.673	0	168.1	4	57.9	4	-1E+10	1	-1E+10	1	-1E+10	1	-1E+10	1	-1E+10	1	-1E+10	1
4901784	35	C	06/19/2016	10:46	-132.364	44.722	0	192.90	0	7.7990	0	33.8870	0	26.432	0	191.250	0	167.4	4	57.6	4	-1E+10	1	-1E+10	1	-1E+10	1	-1E+10	1	-1E+10	1	-1E+10	1
4901784	35	C	06/19/2016	10:46	-132.364	44.722	0	195.40	0	7.7820	0	33.8870	0	26.435	0	193.727	0	166.3	4	57.2	4	-1E+10	1	-1E+10	1	-1E+10	1	-1E+10	1	-1E+10	1	-1E+10	1
4901784	35	C	06/19/2016	10:46	-132.364	44.722	0	197.90	0	7.7520	0	33.8870	0	26.439	0	196.205	0	165.2	4	56.8	4	-1E+10	1	-1E+10	1	-1E+10	1	-1E+10	1	-1E+10	1	-1E+10	1
4901784	35	C	06/19/2016	10:46	-132.364	44.722	0	200.40	0	7.7220	0	33.8880	0	26.444	0	198.682	0	164.0	4	56.3	4	-1E+10	1	-1E+10	1	-1E+10	1	-1E+10	1	-1E+10	1	-1E+10	1
4901784	35	C	06/19/2016	10:46	-132.364	44.722	0	202.90	0	7.6570	0	33.8900	0	26.455	0	201.159	0	162.8	4	55.9	4	-1E+10	1	-1E+10	1	-1E+10	1	-1E+10	1	-1E+10	1	-1E+10	1
4901784	35	C	06/19/2016	10:46	-132.364	44.722	0	204.60	0	7.6400	0	33.8920	0	26.459	0	202.844	0	161.8	4	55.5	4	-1E+10	1	-1E+10	1	-1E+10	1	-1E+10	1	-1E+10	1	-1E+10	1
4901784	35	C	06/19/2016	10:46	-132.364	44.722	0	207.20	0	7.5960	0	33.8930	0	26.466	0	205.420	0	160.7	4	55.1	4	-1E+10	1	-1E+10	1	-1E+10	1	-1E+10	1	-1E+10	1	-1E+10	1
4901784	35	C	06/19/2016	10:46	-132.364	44.722	0	209.70	0	7.5530	0	33.8950	0	26.474	0	207.898	0	159.4	4	54.6	4	-1E+10	1	-1E+10	1	-1E+10	1	-1E+10	1	-1E+10	1	-1E+10	1
4901784	35	C	06/19/2016	10:46	-132.364	44.722	0	212.20	0	7.4900	0	33.8950	0	26.483	0	210.375	0	158.7	4	54.2	4	-1E+10	1	-1E+10	1	-1E+10	1	-1E+10	1	-1E+10	1	-1E+10	1
4901784	35	C	06/19/2016	10:46	-132.364	44.722	0	214.80	0	7.4570	0	33.8950	0	26.488	0	212.951	0	157.9	4	53.9	4	-1E+10	1	-1E+10	1	-1E+10	1	-1E+10	1	-1E+10	1	-1E+10	1
4901784	35	C	06/19/2016	10:46	-132.364	44.722	0	217.30	0	7.4100	0	33.8980	0	26.497	0	215.428	0	156.9	4	53.5	4	-1E+10	1	-1E+10	1	-1E+10	1	-1E+10	1	-1E+10	1	-1E+10	1
4901784	35	C	06/19/2016	10:46	-132.364	44.722	0	219.80	0	7.3900	0	33.8970	0	26.499	0	217.905	0	156.4	4	53.3	4	-1E+10	1	-1E+10	1	-1E+10	1	-1E+10	1	-1E+10	1	-1E+10	1
4901784	35	C	06/19/2016	10:46	-132.364	44.722	0	222.40	0	7.3780	0	33.8970	0	26.501	0	220.482	0	155.5	4	53.0	4	-1E+10	1	-1E+10	1	-1E+10	1	-1E+10	1	-1E+10	1	-1E+10	1
4901784	35	C	06/19/2016	10:46	-132.364	44.722	0	224.90	0	7.3610	0	33.8970	0	26.503	0	222.959	0	154.6	4	52.7	4	-1E+10	1	-1E+10	1	-1E+10	1	-1E+10	1	-1E+10	1	-1E+10	1
4901784	35	C	06/19/2016	10:46	-132.364	44.722	0	227.50	0	7.3340	0	33.8970	0	26.507	0	225.535	0	152.9	4	52.1	4	-1E+10	1	-1E+10	1	-1E+10	1	-1E+10	1	-1E+10	1	-1E+10	1
4901784	35	C	06/19/2016	10:46	-132.364	44.722	0	230.10	0	7.2650	0	33.8980	0	26.517	0	228.111	0	151.2	4	51.4	4	-1E+10	1	-1E+10	1	-1E+10	1	-1E+10	1	-1E+10	1	-1E+10	1
4901784	35	C	06/19/2016	10:46	-132.364	44.722	0	232.60	0	7.2080	0	33.9020	0	26.528	0	230.588	0	149.5	4	50.8	4	-1E+10	1	-1E+10	1	-1E+10	1	-1E+10	1	-1E+10	1	-1E+10	1
4901784	35	C	06/19/2016	10:46	-132.364	44.722	0	235.20	0	7.1540	0	33.9030	0	26.537	0	233.164	0	148.1	4	50.2	4	-1E+10	1	-1E+10	1	-1E+10	1	-1E+10	1	-1E+10	1	-1E+10	1
4901784	35	C	06/19/2016	10:46	-132.364	44.722	0	237.70	0	7.1130	0	33.9040	0	26.543	0	235.641	0	146.5	4	49.7	4	-1E+10	1	-1E+10	1	-1E+10	1	-1E+10	1	-1E+10	1	-1E+10	1
4901784	35	C	06/19/2016	10:46	-132.364	44.722	0	240.30	0	7.0610	0	33.9030	0	26.550	0	238.217	0	145.3	4	49.2	4	-1E+10	1	-1E+10	1	-1E+10	1	-1E+10	1	-1E+10	1	-1E+10	1
4901784	35	C	06/19/2016	10:46	-132.364	44.722	0	242.90	0	7.0240	0	33.9040	0	26.555	0	240.793	0	144.0	4	48.7	4	-1E+10	1	-1E+10	1	-1E+10	1	-1E+10	1	-1E+10	1	-1E+10	1
4901784	35	C	06/19/2016	10:46	-132.364	44.722	0	245.50	0	6.9800	0	33.9040	0	26.561	0	243.369	0	143.1	4	48.3	4	-1E+10	1	-1E+10	1	-1E+10	1	-1E+10	1	-1E+10	1	-1E+10	1
4901784	35	C	06/19/2016	10:46	-132.364	44.722	0	247.20	0	6.9630	0	33.9040	0	26.564	0	245.053	0	142.6	4	48.2	4	-1E+10	1	-1E+10	1	-1E+10	1	-1E+10	1	-1E+10	1	-1E+10	1
4901784	35	C	06/19/2016	10:46	-132.364	44.722	0	249.80	0	6.9260	0	33.9050	0	26.570	0	247.629	0	142.2	4	48.0	4	-1E+10	1	-1E+10	1	-1E+10	1	-1E+10	1	-1E+10	1	-1E+10	1
4901784	35	C	06/19/2016	10:46	-132.364	44.722	0	252.30	0	6.9110	0	33.9040	0	26.571	0	250.106	0	141.6	4	47.8	4	-1E+10	1	-1E+10	1	-1E+10	1	-1E+10	1	-1E+10	1	-1E+10	1
4901784	35	C	06/19/2016	10:46	-132.364	44.722	0	254.90	0	6.8570	0	33.9060	0	26.580	0	252.681	0	141.0	4	47.5	4	-1E+10	1	-1E+10	1	-1E+10	1	-1E+10	1	-1E+10	1	-1E+10	1
4901784	35	C	06/19/2016	10:46	-132.364	44.722	0	257.40	0	6.8460	0	33.9060	0	26.581	0	255.158	0	140.0	4	47.2	4	-1E+10	1	-1E+10	1	-1E+10	1	-1E+10	1	-1E+10	1	-1E+10	1
4901784	35	C	06/19/2016	10:46	-132.364	44.722	0	259.90	0	6.8120	0	33.9050	0	26.585	0	257.635	0	139.2	4	46.9	4	-1E+10	1	-1E+10	1	-1E+10	1	-1E+10	1	-1E+10	1	-1E+10	1
4901784	35	C	06/19/2016	10:46	-132.364	44.722	0	262.50	0	6.7660	0	33.9060	0	26.592	0	260.211	0	138.7	4	46.6	4	-1E+10	1	-1E+10	1	-1E+10	1	-1E+10	1	-1E+10	1	-1E+10	1
4901784	35	C	06/19/2016	10:46	-132.364	44.722	0	265.10	0	6.7080	0	33.9060	0	26.600	0	262.786	0	137.6	4	46.2	4	-1E+10	1	-1E+10	1	-1E+10	1	-1E+10	1	-1E+10	1	-1E+10	1
4901784	35	C	06/19/2016	10:46	-132.364	44.722	0	267.70	0	6.6520	0	33.9060	0	26.607	0	265.362	0	136.3	4	45.7	4	-1E+10	1	-1E+10	1	-1E+10	1	-1E+10	1	-1E+10	1	-1E+10	1
4901784	35	C	06/19/2016	10:46	-132.364	44.722	0	270.30	0	6.6090	0	33.9060	0	26.613	0	267.937	0	134.6	4	45.1	4	-1E+10	1	-1E+10	1	-1E+10	1	-1E+10	1	-1E+10	1	-1E+10	1
4901784	35	C	06/19/2016	10:46	-132.364	44.722	0	272.90	0	6.5430	0	33.9050	0	26.621	0	270.513	0	132.7	4	44.4	4	-1E+10	1	-1E+10	1	-1E+10	1	-1E+10	1	-1E+10	1	-1E+10	1
4901784	35	C	06/19/2016	10:46	-132.364	44.722	0	274.60	0	6.4790	0	33.9060	0	26.630	0	272.197	0	131.6	4	44.0	4	-1E+10	1	-1E+10	1	-1E+10	1	-1E+10	1	-1E+10	1	-1E+10	1
4901784	35	C	06/19/2016	10:46	-132.364	44.722	0	277.20	0	6.4330	0	33.9060	0	26.636	0	274.773	0	129.9	4	43.3	4	-1E+10	1	-1E+10	1	-1E+10	1	-1E+10	1	-1E+10	1	-1E+10	1
4901784	35	C	06/19/2016	10:46	-132.364	44.722	0	279.80	0	6.3860	0	33.9070	0	26.643	0	277.348	0	128.1	4	42.7	4	-1E+10	1	-1E+10	1	-1E+10	1	-1E+10	1	-1E+10	1	-1E+10	1
4901784	35	C	06/19/2016	10:46	-132.364	44.722	0	282.50	0	6.3510	0	33.9070	0	26.648	0	280.023	0	126.6	4	42.2	4	-1E+10	1	-1E+10	1	-1E+10	1	-1E+10	1	-1E+10	1	-1E+10	1
4901784	35	C	06/19/2016	10:46	-132.364	44.722	0	285.10	0	6.3020	0	33.9060	0	26.653	0	282.598	0	125.0	4	41.6	4	-1E+10	1	-1E+10	1	-1E+10	1	-1E+10	1	-1E+10	1	-1E+10	1
4901784	35	C	06/19/2016	10:46	-132.364	44.722	0	287.80	0	6.2860	0	33.9060	0	26.655	0	285.272	0	123.5	4	41.1	4	-1E+10	1	-1E+10	1	-1E+10	1	-1E+10	1	-1E+10	1	-1E+10	1
4901784	35	C	06/19/2016	10:46	-132.364	44.722	0	290.40	0	6.2720	0	33.9050	0	26.656	0	287.848	0	121.8	4	40.5	4	-1E+10	1	-1E+10	1	-1E+10	1	-1E+10	1	-1E+10	1	-1E+10	1
4901784	35	C	06/19/2016	10:46	-132.364	44.722	0	292.20	0	6.2660	0	33.9050	0	26.657	0	289.631	0	120.2	4	39.9	4	-1E+10	1	-1E+10	1	-1E+10	1	-1E+10	1	-1E+10	1	-1E+10	1
4901784	35	C	06/19/2016	10:46	-132.364	44.722	0	294.80	0	6.2160	0	33.9040	0	26.663	0	292.206	0	117.5	4	39.0	4	-1E+10	1	-1E+10	1	-1E+10	1	-1E+10	1	-1E+10	1	-1E+10	1
4901784	35	C	06/19/2016	10:46	-132.364	44.722	0	297.60	0	6.1640	0	33.9050	0	26.670	0	294.979	0	117.1	4	38.8	4	-1E+10	1	-1E+10	1	-1E+10	1	-1E+10	1	-1E+10	1	-1E+10	1
4901784	35	C	06/19/2016	10:46	-132.364	44.722	0	300.30	0	6.1280	0	33.9050	0	26.675	0	297.654	0	116.7	4	38.7	4	-1E+10	1	-1E+10	1	-1E+10	1	-1E+10	1	-1E+10	1	-1E+10	1
4901784	35	C	06/19/2016	10:46	-132.364	44.722	0	303.10	0	6.0980	0	33.9050	0	26.678	0	300.427	0	115.2	4	38.1	4	-1E+10	1	-1E+10	1	-1E+10	1	-1E+10	1	-1E+10	1	-1E+10	1
4901784	35	C	06/19/2016	10:46	-132.364	44.722	0	304.90	0	6.0890	0	33.9050	0	26.680	0	302.210	0	113.7	4	37.6	4	-1E+10	1	-1E+10	1	-1E+10	1	-1E+10	1	-1E+10	1	-1E+10	1
4901784	35	C	06/19/2016	10:46	-132.364	44.722	0	307.60	0	6.0630	0	33.9050	0	26.683	0	304.884	0	111.7	4	37.0	4	-1E+10	1	-1E+10	1	-1E+10	1	-1E+10	1	-1E+10	1	-1E+10	1
4901784	35	C	06/19/2016	10:46	-132.364	44.722	0	310.40	0	6.0280	0	33.9050	0	26.687	0	307.657	0	110.3	4	36.5	4	-1E+10	1	-1E+10	1	-1E+10	1	-1E+10	1	-1E+10	1	-1E+10	1
4901784	35	C	06/19/2016	10:46	-132.364	44.722	0	312.20	0	5.9660	0	33.9060	0	26.696	0	309.440	0	109.0	4	36.0	4	-1E+10	1	-1E+10	1	-1E+10	1	-1E+10	1	-1E+10	1	-1E+10	1
4901784	35	C	06/19/2016	10:46	-132.364	44.722	0	315.00	0	5.9460	0	33.9060	0	26.698	0	312.213	0	105.9	4	35.0	4	-1E+10	1	-1E+10	1	-1E+10	1	-1E+10	1	-1E+10	1	-1E+10	1
4901784	35	C	06/19/2016	10:46	-132.364	44.722	0	317.80	0	5.9100	0	33.9090	0	26.705	0	314.986	0	102.7	4	33.9	4	-1E+10	1	-1E+10	1	-1E+10	1	-1E+10	1	-1E+10	1	-1E+10	1
4901784	35	C	06/19/2016	10:46	-132.364	44.722	0	319.70	0	5.9030	0	33.9110	0	26.708	0	316.868	0	101.0	4	33.3	4	-1E+10	1	-1E+10	1	-1E+10	1	-1E+10	1	-1E+10	1	-1E+10	1
4901784	35	C	06/19/2016	10:46	-132.364	44.722	0	322.50	0	5.8890	0	33.9110	0	26.710	0	319.641	0	98.9	4	32.6	4	-1E+10	1	-1E+10	1	-1E+10	1	-1E+10	1	-1E+10	1	-1E+10	1
4901784	35	C	06/19/2016	10:46	-132.364	44.722	0	325.30	0	5.8700	0	33.9140	0	26.714	0	322.414	0	96.8	4	31.9	4	-1E+10	1	-1E+10	1	-1E+10	1	-1E+10	1	-1E+10	1	-1E+10	1
4901784	35	C	06/19/2016	10:46	-132.364	44.722	0	327.20	0	5.8570	0	33.9130	0	26.715	0	324.296	0	96.3	4	31.7	4	-1E+10	1	-1E+10	1	-1E+10	1	-1E+10	1	-1E+10	1	-1E+10	1
4901784	35	C	06/19/2016	10:46	-132.364	44.722	0	330.00	0	5.7920	0	33.9140	0	26.724	0	327.069	0	95.8	4	31.5	4	-1E+10	1	-1E+10	1	-1E+10	1	-1E+10	1	-1E+10	1	-1E+10	1
4901784	35	C	06/19/2016	10:46	-132.364	44.722	0	332.80	0	5.7320	0	33.9110	0	26.729	0	329.841	0	95.1	4	31.2	4	-1E+10	1	-1E+10	1	-1E+10	1	-1E+10	1	-1E+10	1	-1E+10	1
4901784	35	C	06/19/2016	10:46	-132.364	44.722	0	334.70	0	5.7070	0	33.9110	0	26.732	0	331.723	0	94.2	4	30.9	4	-1E+10	1	-1E+10	1	-1E+10	1	-1E+10	1	-1E+10	1	-1E+10	1
4901784	35	C	06/19/2016	10:46	-132.364	44.722	0	337.50	0	5.6620	0	33.9130	0	26.739	0	334.496	0	92.7	4	30.4	4	-1E+10	1	-1E+10	1	-1E+10	1	-1E+10	1	-1E+10	1	-1E+10	1
4901784	35	C	06/19/2016	10:46	-132.364	44.722	0	340.30	0	5.6290	0	33.9160	0	26.745	0	337.269	0	91.5	4	30.0	4	-1E+10	1	-1E+10	1	-1E+10	1	-1E+10	1	-1E+10	1	-1E+10	1
4901784	35	C	06/19/2016	10:46	-132.364	44.722	0	342.20	0	5.6030	0	33.9150	0	26.748	0	339.150	0	91.2	4	29.9	4	-1E+10	1	-1E+10	1	-1E+10	1	-1E+10	1	-1E+10	1	-1E+10	1
4901784	35	C	06/19/2016	10:46	-132.364	44.722	0	344.90	0	5.5850	0	33.9160	0	26.751	0	341.824	0	90.9	4	29.7	4	-1E+10	1	-1E+10	1	-1E+10	1	-1E+10	1	-1E+10	1	-1E+10	1
4901784	35	C	06/19/2016	10:46	-132.364	44.722	0	347.70	0	5.5690	0	33.9140	0	26.751	0	344.597	0	90.5	4	29.6	4	-1E+10	1	-1E+10	1	-1E+10	1	-1E+10	1	-1E+10	1	-1E+10	1
4901784	35	C	06/19/2016	10:46	-132.364	44.722	0	349.60	0	5.5010	0	33.9160	0	26.761	0	346.478	0	90.7	4	29.6	4	-1E+10	1	-1E+10	1	-1E+10	1	-1E+10	1	-1E+10	1	-1E+10	1
4901784	35	C	06/19/2016	10:46	-132.364	44.722	0	352.40	0	5.4700	0	33.9150	0	26.764	0	349.251	0	89.9	4	29.4	4	-1E+10	1	-1E+10	1	-1E+10	1	-1E+10	1	-1E+10	1	-1E+10	1
4901784	35	C	06/19/2016	10:46	-132.364	44.722	0	355.20	0	5.4300	0	33.9160	0	26.769	0	352.023	0	89.3	4	29.1	4	-1E+10	1	-1E+10	1	-1E+10	1	-1E+10	1	-1E+10	1	-1E+10	1
4901784	35	C	06/19/2016	10:46	-132.364	44.722	0	357.00	0	5.4170	0	33.9160	0	26.771	0	353.806	0	88.4	4	28.8	4	-1E+10	1	-1E+10	1	-1E+10	1	-1E+10	1	-1E+10	1	-1E+10	1
4901784	35	C	06/19/2016	10:46	-132.364	44.722	0	359.90	0	5.3930	0	33.9170	0	26.775	0	356.677	0	87.2	4	28.4	4	-1E+10	1	-1E+10	1	-1E+10	1	-1E+10	1	-1E+10	1	-1E+10	1
4901784	35	C	06/19/2016	10:46	-132.364	44.722	0	362.70	0	5.3670	0	33.9190	0	26.779	0	359.450	0	86.3	4	28.1	4	-1E+10	1	-1E+10	1	-1E+10	1	-1E+10	1	-1E+10	1	-1E+10	1
4901784	35	C	06/19/2016	10:46	-132.364	44.722	0	364.50	0	5.3420	0	33.9190	0	26.782	0	361.232	0	85.6	4	27.8	4	-1E+10	1	-1E+10	1	-1E+10	1	-1E+10	1	-1E+10	1	-1E+10	1
4901784	35	C	06/19/2016	10:46	-132.364	44.722	0	367.30	0	5.3300	0	33.9210	0	26.785	0	364.004	0	84.2	4	27.4	4	-1E+10	1	-1E+10	1	-1E+10	1	-1E+10	1	-1E+10	1	-1E+10	1
4901784	35	C	06/19/2016	10:46	-132.364	44.722	0	370.10	0	5.3140	0	33.9240	0	26.789	0	366.777	0	83.2	4	27.0	4	-1E+10	1	-1E+10	1	-1E+10	1	-1E+10	1	-1E+10	1	-1E+10	1
4901784	35	C	06/19/2016	10:46	-132.364	44.722	0	371.90	0	5.3000	0	33.9230	0	26.790	0	368.559	0	82.8	4	26.9	4	-1E+10	1	-1E+10	1	-1E+10	1	-1E+10	1	-1E+10	1	-1E+10	1
4901784	35	C	06/19/2016	10:46	-132.364	44.722	0	374.80	0	5.2660	0	33.9250	0	26.796	0	371.430	0	82.1	4	26.6	4	-1E+10	1	-1E+10	1	-1E+10	1	-1E+10	1	-1E+10	1	-1E+10	1
4901784	35	C	06/19/2016	10:46	-132.364	44.722	0	377.60	0	5.2340	0	33.9270	0	26.801	0	374.203	0	81.2	4	26.4	4	-1E+10	1	-1E+10	1	-1E+10	1	-1E+10	1	-1E+10	1	-1E+10	1
4901784	35	C	06/19/2016	10:46	-132.364	44.722	0	380.00	0	5.2160	0	33.9290	0	26.805	0	376.579	0	80.8	4	26.2	4	-1E+10	1	-1E+10	1	-1E+10	1	-1E+10	1	-1E+10	1	-1E+10	1
4901784	35	C	06/19/2016	10:46	-132.364	44.722	0	382.60	0	5.2020	0	33.9290	0	26.807	0	379.153	0	80.1	4	26.0	4	-1E+10	1	-1E+10	1	-1E+10	1	-1E+10	1	-1E+10	1	-1E+10	1
4901784	35	C	06/19/2016	10:46	-132.364	44.722	0	385.00	0	5.1840	0	33.9290	0	26.809	0	381.529	0	79.1	4	25.6	4	-1E+10	1	-1E+10	1	-1E+10	1	-1E+10	1	-1E+10	1	-1E+10	1
4901784	35	C	06/19/2016	10:46	-132.364	44.722	0	387.30	0	5.1840	0	33.9340	0	26.813	0	383.806	0	78.1	4	25.3	4	-1E+10	1	-1E+10	1	-1E+10	1	-1E+10	1	-1E+10	1	-1E+10	1
4901784	35	C	06/19/2016	10:46	-132.364	44.722	0	390.30	0	5.1460	0	33.9330	0	26.816	0	386.777	0	76.9	4	24.9	4	-1E+10	1	-1E+10	1	-1E+10	1	-1E+10	1	-1E+10	1	-1E+10	1
4901784	35	C	06/19/2016	10:46	-132.364	44.722	0	392.70	0	5.1360	0	33.9340	0	26.818	0	389.153	0	75.0	4	24.3	4	-1E+10	1	-1E+10	1	-1E+10	1	-1E+10	1	-1E+10	1	-1E+10	1
4901784	35	C	06/19/2016	10:46	-132.364	44.722	0	395.10	0	5.1110	0	33.9380	0	26.824	0	391.529	0	72.3	4	23.4	4	-1E+10	1	-1E+10	1	-1E+10	1	-1E+10	1	-1E+10	1	-1E+10	1
4901784	35	C	06/19/2016	10:46	-132.364	44.722	0	397.60	0	5.1050	0	33.9480	0	26.833	0	394.004	0	69.5	4	22.5	4	-1E+10	1	-1E+10	1	-1E+10	1	-1E+10	1	-1E+10	1	-1E+10	1
4901784	35	C	06/19/2016	10:46	-132.364	44.722	0	400.10	0	5.1160	0	33.9530	0	26.836	0	396.479	0	68.0	4	22.0	4	-1E+10	1	-1E+10	1	-1E+10	1	-1E+10	1	-1E+10	1	-1E+10	1
4901784	35	C	06/19/2016	10:46	-132.364	44.722	0	402.60	0	5.1210	0	33.9530	0	26.835	0	398.954	0	67.0	4	21.7	4	-1E+10	1	-1E+10	1	-1E+10	1	-1E+10	1	-1E+10	1	-1E+10	1
4901784	35	C	06/19/2016	10:46	-132.364	44.722	0	405.00	0	5.1110	0	33.9570	0	26.839	0	401.330	0	66.1	4	21.4	4	-1E+10	1	-1E+10	1	-1E+10	1	-1E+10	1	-1E+10	1	-1E+10	1
4901784	35	C	06/19/2016	10:46	-132.364	44.722	0	407.40	0	5.0860	0	33.9590	0	26.844	0	403.706	0	65.2	4	21.1	4	-1E+10	1	-1E+10	1	-1E+10	1	-1E+10	1	-1E+10	1	-1E+10	1
4901784	35	C	06/19/2016	10:46	-132.364	44.722	0	409.90	0	5.0840	0	33.9610	0	26.846	0	406.180	0	64.2	4	20.8	4	-1E+10	1	-1E+10	1	-1E+10	1	-1E+10	1	-1E+10	1	-1E+10	1
4901784	35	C	06/19/2016	10:46	-132.364	44.722	0	412.30	0	5.0710	0	33.9630	0	26.849	0	408.556	0	63.3	4	20.5	4	-1E+10	1	-1E+10	1	-1E+10	1	-1E+10	1	-1E+10	1	-1E+10	1
4901784	35	C	06/19/2016	10:46	-132.364	44.722	0	414.90	0	5.0640	0	33.9660	0	26.852	0	411.130	0	62.5	4	20.2	4	-1E+10	1	-1E+10	1	-1E+10	1	-1E+10	1	-1E+10	1	-1E+10	1
4901784	35	C	06/19/2016	10:46	-132.364	44.722	0	417.40	0	5.0530	0	33.9660	0	26.853	0	413.605	0	61.6	4	19.9	4	-1E+10	1	-1E+10	1	-1E+10	1	-1E+10	1	-1E+10	1	-1E+10	1
4901784	35	C	06/19/2016	10:46	-132.364	44.722	0	419.90	0	5.0280	0	33.9700	0	26.859	0	416.080	0	60.7	4	19.6	4	-1E+10	1	-1E+10	1	-1E+10	1	-1E+10	1	-1E+10	1	-1E+10	1
4901784	35	C	06/19/2016	10:46	-132.364	44.722	0	422.40	0	5.0340	0	33.9740	0	26.862	0	418.554	0	59.5	4	19.2	4	-1E+10	1	-1E+10	1	-1E+10	1	-1E+10	1	-1E+10	1	-1E+10	1
4901784	35	C	06/19/2016	10:46	-132.364	44.722	0	424.90	0	5.0280	0	33.9750	0	26.863	0	421.029	0	58.9	4	19.0	4	-1E+10	1	-1E+10	1	-1E+10	1	-1E+10	1	-1E+10	1	-1E+10	1
4901784	35	C	06/19/2016	10:46	-132.364	44.722	0	427.40	0	5.0200	0	33.9770	0	26.866	0	423.504	0	58.3	4	18.8	4	-1E+10	1	-1E+10	1	-1E+10	1	-1E+10	1	-1E+10	1	-1E+10	1
4901784	35	C	06/19/2016	10:46	-132.364	44.722	0	430.00	0	5.0140	0	33.9780	0	26.867	0	426.077	0	57.7	4	18.6	4	-1E+10	1	-1E+10	1	-1E+10	1	-1E+10	1	-1E+10	1	-1E+10	1
4901784	35	C	06/19/2016	10:46	-132.364	44.722	0	432.60	0	5.0070	0	33.9800	0	26.870	0	428.651	0	57.3	4	18.5	4	-1E+10	1	-1E+10	1	-1E+10	1	-1E+10	1	-1E+10	1	-1E+10	1
4901784	35	C	06/19/2016	10:46	-132.364	44.722	0	435.10	0	5.0000	0	33.9810	0	26.871	0	431.126	0	57.4	4	18.5	4	-1E+10	1	-1E+10	1	-1E+10	1	-1E+10	1	-1E+10	1	-1E+10	1
4901784	35	C	06/19/2016	10:46	-132.364	44.722	0	437.70	0	4.9870	0	33.9810	0	26.873	0	433.699	0	58.0	4	18.7	4	-1E+10	1	-1E+10	1	-1E+10	1	-1E+10	1	-1E+10	1	-1E+10	1
4901784	35	C	06/19/2016	10:46	-132.364	44.722	0	440.30	0	4.9100	0	33.9800	0	26.881	0	436.273	0	58.3	4	18.8	4	-1E+10	1	-1E+10	1	-1E+10	1	-1E+10	1	-1E+10	1	-1E+10	1
4901784	35	C	06/19/2016	10:46	-132.364	44.722	0	442.80	0	4.8830	0	33.9800	0	26.884	0	438.747	0	57.3	4	18.5	4	-1E+10	1	-1E+10	1	-1E+10	1	-1E+10	1	-1E+10	1	-1E+10	1
4901784	35	C	06/19/2016	10:46	-132.364	44.722	0	445.30	0	4.8710	0	33.9820	0	26.887	0	441.222	0	55.8	4	18.0	4	-1E+10	1	-1E+10	1	-1E+10	1	-1E+10	1	-1E+10	1	-1E+10	1
4901784	35	C	06/19/2016	10:46	-132.364	44.722	0	448.00	0	4.8670	0	33.9870	0	26.891	0	443.894	0	54.2	4	17.4	4	-1E+10	1	-1E+10	1	-1E+10	1	-1E+10	1	-1E+10	1	-1E+10	1
4901784	35	C	06/19/2016	10:46	-132.364	44.722	0	449.80	0	4.8690	0	33.9890	0	26.893	0	445.676	0	53.3	4	17.2	4	-1E+10	1	-1E+10	1	-1E+10	1	-1E+10	1	-1E+10	1	-1E+10	1
4901784	35	C	06/19/2016	10:46	-132.364	44.722	0	452.40	0	4.8610	0	33.9950	0	26.898	0	448.249	0	51.9	4	16.7	4	-1E+10	1	-1E+10	1	-1E+10	1	-1E+10	1	-1E+10	1	-1E+10	1
4901784	35	C	06/19/2016	10:46	-132.364	44.722	0	455.10	0	4.8580	0	33.9990	0	26.902	0	450.921	0	51.4	4	16.5	4	-1E+10	1	-1E+10	1	-1E+10	1	-1E+10	1	-1E+10	1	-1E+10	1
4901784	35	C	06/19/2016	10:46	-132.364	44.722	0	457.70	0	4.8440	0	33.9990	0	26.903	0	453.495	0	51.2	4	16.5	4	-1E+10	1	-1E+10	1	-1E+10	1	-1E+10	1	-1E+10	1	-1E+10	1
4901784	35	C	06/19/2016	10:46	-132.364	44.722	0	460.40	0	4.8390	0	33.9980	0	26.903	0	456.167	0	50.7	4	16.3	4	-1E+10	1	-1E+10	1	-1E+10	1	-1E+10	1	-1E+10	1	-1E+10	1
4901784	35	C	06/19/2016	10:46	-132.364	44.722	0	462.20	0	4.8320	0	34.0000	0	26.906	0	457.948	0	50.1	4	16.1	4	-1E+10	1	-1E+10	1	-1E+10	1	-1E+10	1	-1E+10	1	-1E+10	1
4901784	35	C	06/19/2016	10:46	-132.364	44.722	0	464.90	0	4.8250	0	34.0030	0	26.909	0	460.620	0	49.5	4	15.9	4	-1E+10	1	-1E+10	1	-1E+10	1	-1E+10	1	-1E+10	1	-1E+10	1
4901784	35	C	06/19/2016	10:46	-132.364	44.722	0	467.60	0	4.7740	0	34.0030	0	26.914	0	463.293	0	49.0	4	15.7	4	-1E+10	1	-1E+10	1	-1E+10	1	-1E+10	1	-1E+10	1	-1E+10	1
4901784	35	C	06/19/2016	10:46	-132.364	44.722	0	470.30	0	4.8030	0	34.0060	0	26.914	0	465.965	0	47.5	4	15.3	4	-1E+10	1	-1E+10	1	-1E+10	1	-1E+10	1	-1E+10	1	-1E+10	1
4901784	35	C	06/19/2016	10:46	-132.364	44.722	0	473.00	0	4.8230	0	34.0110	0	26.915	0	468.637	0	47.2	4	15.2	4	-1E+10	1	-1E+10	1	-1E+10	1	-1E+10	1	-1E+10	1	-1E+10	1
4901784	35	C	06/19/2016	10:46	-132.364	44.722	0	474.80	0	4.7940	0	34.0110	0	26.919	0	470.418	0	47.2	4	15.2	4	-1E+10	1	-1E+10	1	-1E+10	1	-1E+10	1	-1E+10	1	-1E+10	1
4901784	35	C	06/19/2016	10:46	-132.364	44.722	0	477.50	0	4.7680	0	34.0130	0	26.923	0	473.090	0	46.9	4	15.1	4	-1E+10	1	-1E+10	1	-1E+10	1	-1E+10	1	-1E+10	1	-1E+10	1
4901784	35	C	06/19/2016	10:46	-132.364	44.722	0	480.10	0	4.7460	0	34.0140	0	26.926	0	475.663	0	46.7	4	15.0	4	-1E+10	1	-1E+10	1	-1E+10	1	-1E+10	1	-1E+10	1	-1E+10	1
4901784	35	C	06/19/2016	10:46	-132.364	44.722	0	482.80	0	4.7300	0	34.0140	0	26.928	0	478.335	0	46.1	4	14.8	4	-1E+10	1	-1E+10	1	-1E+10	1	-1E+10	1	-1E+10	1	-1E+10	1
4901784	35	C	06/19/2016	10:46	-132.364	44.722	0	485.50	0	4.7220	0	34.0160	0	26.931	0	481.007	0	45.2	4	14.5	4	-1E+10	1	-1E+10	1	-1E+10	1	-1E+10	1	-1E+10	1	-1E+10	1
4901784	35	C	06/19/2016	10:46	-132.364	44.722	0	487.30	0	4.7170	0	34.0200	0	26.934	0	482.788	0	44.5	4	14.3	4	-1E+10	1	-1E+10	1	-1E+10	1	-1E+10	1	-1E+10	1	-1E+10	1
4901784	35	C	06/19/2016	10:46	-132.364	44.722	0	490.00	0	4.7120	0	34.0220	0	26.937	0	485.460	0	43.9	4	14.1	4	-1E+10	1	-1E+10	1	-1E+10	1	-1E+10	1	-1E+10	1	-1E+10	1
4901784	35	C	06/19/2016	10:46	-132.364	44.722	0	492.70	0	4.7110	0	34.0230	0	26.937	0	488.132	0	43.1	4	13.8	4	-1E+10	1	-1E+10	1	-1E+10	1	-1E+10	1	-1E+10	1	-1E+10	1
4901784	35	C	06/19/2016	10:46	-132.364	44.722	0	494.50	0	4.7100	0	34.0260	0	26.940	0	489.913	0	42.5	4	13.6	4	-1E+10	1	-1E+10	1	-1E+10	1	-1E+10	1	-1E+10	1	-1E+10	1
4901784	35	C	06/19/2016	10:46	-132.364	44.722	0	497.20	0	4.6960	0	34.0300	0	26.945	0	492.585	0	42.0	4	13.5	4	-1E+10	1	-1E+10	1	-1E+10	1	-1E+10	1	-1E+10	1	-1E+10	1
4901784	35	C	06/19/2016	10:46	-132.364	44.722	0	499.90	0	4.6900	0	34.0310	0	26.946	0	495.257	0	41.5	4	13.3	4	-1E+10	1	-1E+10	1	-1E+10	1	-1E+10	1	-1E+10	1	-1E+10	1
4901784	35	C	06/19/2016	10:46	-132.364	44.722	0	505.50	0	4.6700	0	34.0350	0	26.952	0	500.798	0	40.8	4	13.1	4	-1E+10	1	-1E+10	1	-1E+10	1	-1E+10	1	-1E+10	1	-1E+10	1
4901784	35	C	06/19/2016	10:46	-132.364	44.722	0	510.10	0	4.6200	0	34.0370	0	26.959	0	505.349	0	40.6	4	13.0	4	-1E+10	1	-1E+10	1	-1E+10	1	-1E+10	1	-1E+10	1	-1E+10	1
4901784	35	C	06/19/2016	10:46	-132.364	44.722	0	514.70	0	4.6000	0	34.0380	0	26.962	0	509.901	0	39.8	4	12.7	4	-1E+10	1	-1E+10	1	-1E+10	1	-1E+10	1	-1E+10	1	-1E+10	1
4901784	35	C	06/19/2016	10:46	-132.364	44.722	0	520.30	0	4.5860	0	34.0430	0	26.967	0	515.442	0	38.1	4	12.2	4	-1E+10	1	-1E+10	1	-1E+10	1	-1E+10	1	-1E+10	1	-1E+10	1
4901784	35	C	06/19/2016	10:46	-132.364	44.722	0	525.00	0	4.5840	0	34.0470	0	26.971	0	520.092	0	36.3	4	11.6	4	-1E+10	1	-1E+10	1	-1E+10	1	-1E+10	1	-1E+10	1	-1E+10	1
4901784	35	C	06/19/2016	10:46	-132.364	44.722	0	529.80	0	4.5920	0	34.0580	0	26.979	0	524.841	0	34.7	4	11.1	4	-1E+10	1	-1E+10	1	-1E+10	1	-1E+10	1	-1E+10	1	-1E+10	1
4901784	35	C	06/19/2016	10:46	-132.364	44.722	0	535.40	0	4.5830	0	34.0620	0	26.983	0	530.382	0	34.1	4	10.9	4	-1E+10	1	-1E+10	1	-1E+10	1	-1E+10	1	-1E+10	1	-1E+10	1
4901784	35	C	06/19/2016	10:46	-132.364	44.722	0	540.10	0	4.5280	0	34.0640	0	26.990	0	535.031	0	34.1	4	10.9	4	-1E+10	1	-1E+10	1	-1E+10	1	-1E+10	1	-1E+10	1	-1E+10	1
4901784	35	C	06/19/2016	10:46	-132.364	44.722	0	544.80	0	4.5110	0	34.0670	0	26.995	0	539.681	0	33.4	4	10.7	4	-1E+10	1	-1E+10	1	-1E+10	1	-1E+10	1	-1E+10	1	-1E+10	1
4901784	35	C	06/19/2016	10:46	-132.364	44.722	0	550.50	0	4.5010	0	34.0690	0	26.997	0	545.320	0	32.7	4	10.4	4	-1E+10	1	-1E+10	1	-1E+10	1	-1E+10	1	-1E+10	1	-1E+10	1
4901784	35	C	06/19/2016	10:46	-132.364	44.722	0	555.20	0	4.4770	0	34.0730	0	27.003	0	549.970	0	31.9	4	10.2	4	-1E+10	1	-1E+10	1	-1E+10	1	-1E+10	1	-1E+10	1	-1E+10	1
4901784	35	C	06/19/2016	10:46	-132.364	44.722	0	560.00	0	4.4390	0	34.0780	0	27.011	0	554.718	0	31.2	4	10.0	4	-1E+10	1	-1E+10	1	-1E+10	1	-1E+10	1	-1E+10	1	-1E+10	1
4901784	35	C	06/19/2016	10:46	-132.364	44.722	0	564.70	0	4.4380	0	34.0810	0	27.014	0	559.367	0	30.4	4	9.7	4	-1E+10	1	-1E+10	1	-1E+10	1	-1E+10	1	-1E+10	1	-1E+10	1
4901784	35	C	06/19/2016	10:46	-132.364	44.722	0	570.10	0	4.4360	0	34.0850	0	27.017	0	564.709	0	29.3	4	9.3	4	-1E+10	1	-1E+10	1	-1E+10	1	-1E+10	1	-1E+10	1	-1E+10	1
4901784	35	C	06/19/2016	10:46	-132.364	44.722	0	575.40	0	4.4430	0	34.0910	0	27.021	0	569.952	0	28.0	4	8.9	4	-1E+10	1	-1E+10	1	-1E+10	1	-1E+10	1	-1E+10	1	-1E+10	1
4901784	35	C	06/19/2016	10:46	-132.364	44.722	0	580.30	0	4.4210	0	34.0960	0	27.028	0	574.799	0	27.1	4	8.6	4	-1E+10	1	-1E+10	1	-1E+10	1	-1E+10	1	-1E+10	1	-1E+10	1
4901784	35	C	06/19/2016	10:46	-132.364	44.722	0	585.20	0	4.4030	0	34.1030	0	27.035	0	579.645	0	26.2	4	8.4	4	-1E+10	1	-1E+10	1	-1E+10	1	-1E+10	1	-1E+10	1	-1E+10	1
4901784	35	C	06/19/2016	10:46	-132.364	44.722	0	590.10	0	4.3860	0	34.1060	0	27.039	0	584.492	0	25.7	4	8.2	4	-1E+10	1	-1E+10	1	-1E+10	1	-1E+10	1	-1E+10	1	-1E+10	1
4901784	35	C	06/19/2016	10:46	-132.364	44.722	0	595.10	0	4.3760	0	34.1100	0	27.044	0	589.437	0	24.9	4	7.9	4	-1E+10	1	-1E+10	1	-1E+10	1	-1E+10	1	-1E+10	1	-1E+10	1
4901784	35	C	06/19/2016	10:46	-132.364	44.722	0	600.00	0	4.3730	0	34.1140	0	27.047	0	594.284	0	24.2	4	7.7	4	-1E+10	1	-1E+10	1	-1E+10	1	-1E+10	1	-1E+10	1	-1E+10	1
4901784	35	C	06/19/2016	10:46	-132.364	44.722	0	604.80	0	4.3620	0	34.1170	0	27.051	0	599.031	0	23.5	4	7.5	4	-1E+10	1	-1E+10	1	-1E+10	1	-1E+10	1	-1E+10	1	-1E+10	1
4901784	35	C	06/19/2016	10:46	-132.364	44.722	0	609.80	0	4.3440	0	34.1230	0	27.057	0	603.976	0	22.5	4	7.2	4	-1E+10	1	-1E+10	1	-1E+10	1	-1E+10	1	-1E+10	1	-1E+10	1
4901784	35	C	06/19/2016	10:46	-132.364	44.722	0	614.70	0	4.3290	0	34.1290	0	27.064	0	608.822	0	21.7	4	6.9	4	-1E+10	1	-1E+10	1	-1E+10	1	-1E+10	1	-1E+10	1	-1E+10	1
4901784	35	C	06/19/2016	10:46	-132.364	44.722	0	619.60	0	4.3080	0	34.1360	0	27.072	0	613.668	0	20.8	4	6.6	4	-1E+10	1	-1E+10	1	-1E+10	1	-1E+10	1	-1E+10	1	-1E+10	1
4901784	35	C	06/19/2016	10:46	-132.364	44.722	0	624.60	0	4.2960	0	34.1430	0	27.079	0	618.613	0	20.1	4	6.4	4	-1E+10	1	-1E+10	1	-1E+10	1	-1E+10	1	-1E+10	1	-1E+10	1
4901784	35	C	06/19/2016	10:46	-132.364	44.722	0	629.60	0	4.2890	0	34.1480	0	27.083	0	623.557	0	19.7	4	6.3	4	-1E+10	1	-1E+10	1	-1E+10	1	-1E+10	1	-1E+10	1	-1E+10	1
4901784	35	C	06/19/2016	10:46	-132.364	44.722	0	634.60	0	4.2720	0	34.1500	0	27.087	0	628.502	0	19.4	4	6.2	4	-1E+10	1	-1E+10	1	-1E+10	1	-1E+10	1	-1E+10	1	-1E+10	1
4901784	35	C	06/19/2016	10:46	-132.364	44.722	0	639.70	0	4.2410	0	34.1540	0	27.093	0	633.545	0	19.1	4	6.1	4	-1E+10	1	-1E+10	1	-1E+10	1	-1E+10	1	-1E+10	1	-1E+10	1
4901784	35	C	06/19/2016	10:46	-132.364	44.722	0	644.70	0	4.2250	0	34.1560	0	27.096	0	638.489	0	18.7	4	5.9	4	-1E+10	1	-1E+10	1	-1E+10	1	-1E+10	1	-1E+10	1	-1E+10	1
4901784	35	C	06/19/2016	10:46	-132.364	44.722	0	649.70	0	4.2020	0	34.1630	0	27.104	0	643.433	0	18.0	4	5.7	4	-1E+10	1	-1E+10	1	-1E+10	1	-1E+10	1	-1E+10	1	-1E+10	1
4901784	35	C	06/19/2016	10:46	-132.364	44.722	0	654.80	0	4.1820	0	34.1700	0	27.112	0	648.476	0	17.5	4	5.5	4	-1E+10	1	-1E+10	1	-1E+10	1	-1E+10	1	-1E+10	1	-1E+10	1
4901784	35	C	06/19/2016	10:46	-132.364	44.722	0	659.80	0	4.1680	0	34.1760	0	27.118	0	653.420	0	17.0	4	5.4	4	-1E+10	1	-1E+10	1	-1E+10	1	-1E+10	1	-1E+10	1	-1E+10	1
4901784	35	C	06/19/2016	10:46	-132.364	44.722	0	665.00	0	4.1600	0	34.1800	0	27.122	0	658.562	0	16.8	4	5.3	4	-1E+10	1	-1E+10	1	-1E+10	1	-1E+10	1	-1E+10	1	-1E+10	1
4901784	35	C	06/19/2016	10:46	-132.364	44.722	0	670.10	0	4.1150	0	34.1830	0	27.130	0	663.604	0	16.7	4	5.3	4	-1E+10	1	-1E+10	1	-1E+10	1	-1E+10	1	-1E+10	1	-1E+10	1
4901784	35	C	06/19/2016	10:46	-132.364	44.722	0	675.30	0	4.1000	0	34.1870	0	27.134	0	668.745	0	16.5	4	5.2	4	-1E+10	1	-1E+10	1	-1E+10	1	-1E+10	1	-1E+10	1	-1E+10	1
4901784	35	C	06/19/2016	10:46	-132.364	44.722	0	680.50	0	4.0960	0	34.1900	0	27.137	0	673.887	0	16.2	4	5.1	4	-1E+10	1	-1E+10	1	-1E+10	1	-1E+10	1	-1E+10	1	-1E+10	1
4901784	35	C	06/19/2016	10:46	-132.364	44.722	0	685.60	0	4.0780	0	34.1950	0	27.143	0	678.929	0	16.0	4	5.1	4	-1E+10	1	-1E+10	1	-1E+10	1	-1E+10	1	-1E+10	1	-1E+10	1
4901784	35	C	06/19/2016	10:46	-132.364	44.722	0	690.00	0	4.0820	0	34.1960	0	27.143	0	683.279	0	15.9	4	5.0	4	-1E+10	1	-1E+10	1	-1E+10	1	-1E+10	1	-1E+10	1	-1E+10	1
4901784	35	C	06/19/2016	10:46	-132.364	44.722	0	694.30	0	4.0720	0	34.1970	0	27.145	0	687.530	0	15.8	4	5.0	4	-1E+10	1	-1E+10	1	-1E+10	1	-1E+10	1	-1E+10	1	-1E+10	1
4901784	35	C	06/19/2016	10:46	-132.364	44.722	0	699.50	0	4.0630	0	34.1990	0	27.148	0	692.670	0	15.6	4	4.9	4	-1E+10	1	-1E+10	1	-1E+10	1	-1E+10	1	-1E+10	1	-1E+10	1
4901784	35	C	06/19/2016	10:46	-132.364	44.722	0	704.70	0	4.0470	0	34.2020	0	27.152	0	697.811	0	15.4	4	4.9	4	-1E+10	1	-1E+10	1	-1E+10	1	-1E+10	1	-1E+10	1	-1E+10	1
4901784	35	C	06/19/2016	10:46	-132.364	44.722	0	709.90	0	4.0280	0	34.2060	0	27.157	0	702.951	0	15.1	4	4.8	4	-1E+10	1	-1E+10	1	-1E+10	1	-1E+10	1	-1E+10	1	-1E+10	1
4901784	35	C	06/19/2016	10:46	-132.364	44.722	0	715.20	0	4.0130	0	34.2100	0	27.162	0	708.190	0	14.9	4	4.7	4	-1E+10	1	-1E+10	1	-1E+10	1	-1E+10	1	-1E+10	1	-1E+10	1
4901784	35	C	06/19/2016	10:46	-132.364	44.722	0	720.40	0	4.0060	0	34.2150	0	27.167	0	713.331	0	14.5	4	4.6	4	-1E+10	1	-1E+10	1	-1E+10	1	-1E+10	1	-1E+10	1	-1E+10	1
4901784	35	C	06/19/2016	10:46	-132.364	44.722	0	725.60	0	3.9940	0	34.2200	0	27.172	0	718.471	0	14.3	4	4.5	4	-1E+10	1	-1E+10	1	-1E+10	1	-1E+10	1	-1E+10	1	-1E+10	1
4901784	35	C	06/19/2016	10:46	-132.364	44.722	0	729.90	0	3.9780	0	34.2230	0	27.176	0	722.721	0	14.1	4	4.4	4	-1E+10	1	-1E+10	1	-1E+10	1	-1E+10	1	-1E+10	1	-1E+10	1
4901784	35	C	06/19/2016	10:46	-132.364	44.722	0	734.40	0	3.9740	0	34.2280	0	27.180	0	727.169	0	13.8	4	4.3	4	-1E+10	1	-1E+10	1	-1E+10	1	-1E+10	1	-1E+10	1	-1E+10	1
4901784	35	C	06/19/2016	10:46	-132.364	44.722	0	739.80	0	3.9700	0	34.2330	0	27.185	0	732.506	0	13.5	4	4.3	4	-1E+10	1	-1E+10	1	-1E+10	1	-1E+10	1	-1E+10	1	-1E+10	1
4901784	35	C	06/19/2016	10:46	-132.364	44.722	0	745.20	0	3.9680	0	34.2360	0	27.187	0	737.843	0	13.3	4	4.2	4	-1E+10	1	-1E+10	1	-1E+10	1	-1E+10	1	-1E+10	1	-1E+10	1
4901784	35	C	06/19/2016	10:46	-132.364	44.722	0	750.60	0	3.9650	0	34.2410	0	27.192	0	743.180	0	13.0	4	4.1	4	-1E+10	1	-1E+10	1	-1E+10	1	-1E+10	1	-1E+10	1	-1E+10	1
4901784	35	C	06/19/2016	10:46	-132.364	44.722	0	755.10	0	3.9650	0	34.2450	0	27.195	0	747.628	0	12.8	4	4.0	4	-1E+10	1	-1E+10	1	-1E+10	1	-1E+10	1	-1E+10	1	-1E+10	1
4901784	35	C	06/19/2016	10:46	-132.364	44.722	0	759.50	0	3.9650	0	34.2470	0	27.197	0	751.976	0	12.6	4	4.0	4	-1E+10	1	-1E+10	1	-1E+10	1	-1E+10	1	-1E+10	1	-1E+10	1
4901784	35	C	06/19/2016	10:46	-132.364	44.722	0	764.90	0	3.9550	0	34.2520	0	27.202	0	757.313	0	12.4	4	3.9	4	-1E+10	1	-1E+10	1	-1E+10	1	-1E+10	1	-1E+10	1	-1E+10	1
4901784	35	C	06/19/2016	10:46	-132.364	44.722	0	770.40	0	3.9430	0	34.2550	0	27.205	0	762.749	0	12.3	4	3.9	4	-1E+10	1	-1E+10	1	-1E+10	1	-1E+10	1	-1E+10	1	-1E+10	1
4901784	35	C	06/19/2016	10:46	-132.364	44.722	0	774.90	0	3.9300	0	34.2580	0	27.209	0	767.196	0	12.3	4	3.9	4	-1E+10	1	-1E+10	1	-1E+10	1	-1E+10	1	-1E+10	1	-1E+10	1
4901784	35	C	06/19/2016	10:46	-132.364	44.722	0	779.50	0	3.9130	0	34.2600	0	27.212	0	771.741	0	12.2	4	3.8	4	-1E+10	1	-1E+10	1	-1E+10	1	-1E+10	1	-1E+10	1	-1E+10	1
4901784	35	C	06/19/2016	10:46	-132.364	44.722	0	784.70	0	3.8980	0	34.2650	0	27.218	0	776.880	0	12.0	4	3.8	4	-1E+10	1	-1E+10	1	-1E+10	1	-1E+10	1	-1E+10	1	-1E+10	1
4901784	35	C	06/19/2016	10:46	-132.364	44.722	0	790.10	0	3.8870	0	34.2680	0	27.221	0	782.216	0	11.9	4	3.7	4	-1E+10	1	-1E+10	1	-1E+10	1	-1E+10	1	-1E+10	1	-1E+10	1
4901784	35	C	06/19/2016	10:46	-132.364	44.722	0	795.70	0	3.8780	0	34.2720	0	27.225	0	787.750	0	11.7	4	3.7	4	-1E+10	1	-1E+10	1	-1E+10	1	-1E+10	1	-1E+10	1	-1E+10	1
4901784	35	C	06/19/2016	10:46	-132.364	44.722	0	800.40	0	3.8600	0	34.2780	0	27.232	0	792.394	0	11.6	4	3.7	4	-1E+10	1	-1E+10	1	-1E+10	1	-1E+10	1	-1E+10	1	-1E+10	1
4901784	35	C	06/19/2016	10:46	-132.364	44.722	0	805.30	0	3.8370	0	34.2830	0	27.238	0	797.235	0	11.6	4	3.7	4	-1E+10	1	-1E+10	1	-1E+10	1	-1E+10	1	-1E+10	1	-1E+10	1
4901784	35	C	06/19/2016	10:46	-132.364	44.722	0	810.20	0	3.8250	0	34.2840	0	27.240	0	802.077	0	11.7	4	3.7	4	-1E+10	1	-1E+10	1	-1E+10	1	-1E+10	1	-1E+10	1	-1E+10	1
4901784	35	C	06/19/2016	10:46	-132.364	44.722	0	815.20	0	3.7810	0	34.2860	0	27.246	0	807.017	0	11.7	4	3.7	4	-1E+10	1	-1E+10	1	-1E+10	1	-1E+10	1	-1E+10	1	-1E+10	1
4901784	35	C	06/19/2016	10:46	-132.364	44.722	0	820.20	0	3.7810	0	34.2930	0	27.252	0	811.957	0	11.5	4	3.6	4	-1E+10	1	-1E+10	1	-1E+10	1	-1E+10	1	-1E+10	1	-1E+10	1
4901784	35	C	06/19/2016	10:46	-132.364	44.722	0	825.30	0	3.7640	0	34.2940	0	27.255	0	816.996	0	11.6	4	3.6	4	-1E+10	1	-1E+10	1	-1E+10	1	-1E+10	1	-1E+10	1	-1E+10	1
4901784	35	C	06/19/2016	10:46	-132.364	44.722	0	830.50	0	3.7460	0	34.2970	0	27.259	0	822.133	0	11.6	4	3.6	4	-1E+10	1	-1E+10	1	-1E+10	1	-1E+10	1	-1E+10	1	-1E+10	1
4901784	35	C	06/19/2016	10:46	-132.364	44.722	0	835.60	0	3.7210	0	34.3000	0	27.264	0	827.172	0	11.7	4	3.7	4	-1E+10	1	-1E+10	1	-1E+10	1	-1E+10	1	-1E+10	1	-1E+10	1
4901784	35	C	06/19/2016	10:46	-132.364	44.722	0	840.00	0	3.6990	0	34.3040	0	27.269	0	831.519	0	11.6	4	3.6	4	-1E+10	1	-1E+10	1	-1E+10	1	-1E+10	1	-1E+10	1	-1E+10	1
4901784	35	C	06/19/2016	10:46	-132.364	44.722	0	844.30	0	3.6850	0	34.3060	0	27.272	0	835.767	0	11.7	4	3.7	4	-1E+10	1	-1E+10	1	-1E+10	1	-1E+10	1	-1E+10	1	-1E+10	1
4901784	35	C	06/19/2016	10:46	-132.364	44.722	0	849.40	0	3.6610	0	34.3060	0	27.274	0	840.805	0	11.8	4	3.7	4	-1E+10	1	-1E+10	1	-1E+10	1	-1E+10	1	-1E+10	1	-1E+10	1
4901784	35	C	06/19/2016	10:46	-132.364	44.722	0	854.60	0	3.6480	0	34.3090	0	27.278	0	845.942	0	11.8	4	3.7	4	-1E+10	1	-1E+10	1	-1E+10	1	-1E+10	1	-1E+10	1	-1E+10	1
4901784	35	C	06/19/2016	10:46	-132.364	44.722	0	859.80	0	3.6160	0	34.3110	0	27.283	0	851.079	0	11.9	4	3.7	4	-1E+10	1	-1E+10	1	-1E+10	1	-1E+10	1	-1E+10	1	-1E+10	1
4901784	35	C	06/19/2016	10:46	-132.364	44.722	0	865.10	0	3.5980	0	34.3130	0	27.286	0	856.314	0	11.8	4	3.7	4	-1E+10	1	-1E+10	1	-1E+10	1	-1E+10	1	-1E+10	1	-1E+10	1
4901784	35	C	06/19/2016	10:46	-132.364	44.722	0	870.40	0	3.6050	0	34.3180	0	27.290	0	861.549	0	11.6	4	3.6	4	-1E+10	1	-1E+10	1	-1E+10	1	-1E+10	1	-1E+10	1	-1E+10	1
4901784	35	C	06/19/2016	10:46	-132.364	44.722	0	874.80	0	3.6160	0	34.3230	0	27.293	0	865.895	0	11.4	4	3.6	4	-1E+10	1	-1E+10	1	-1E+10	1	-1E+10	1	-1E+10	1	-1E+10	1
4901784	35	C	06/19/2016	10:46	-132.364	44.722	0	879.30	0	3.6080	0	34.3260	0	27.296	0	870.340	0	11.4	4	3.6	4	-1E+10	1	-1E+10	1	-1E+10	1	-1E+10	1	-1E+10	1	-1E+10	1
4901784	35	C	06/19/2016	10:46	-132.364	44.722	0	884.70	0	3.5900	0	34.3280	0	27.299	0	875.674	0	11.4	4	3.6	4	-1E+10	1	-1E+10	1	-1E+10	1	-1E+10	1	-1E+10	1	-1E+10	1
4901784	35	C	06/19/2016	10:46	-132.364	44.722	0	890.10	0	3.5870	0	34.3330	0	27.303	0	881.008	0	11.3	4	3.5	4	-1E+10	1	-1E+10	1	-1E+10	1	-1E+10	1	-1E+10	1	-1E+10	1
4901784	35	C	06/19/2016	10:46	-132.364	44.722	0	895.60	0	3.5770	0	34.3380	0	27.308	0	886.440	0	11.3	4	3.5	4	-1E+10	1	-1E+10	1	-1E+10	1	-1E+10	1	-1E+10	1	-1E+10	1
4901784	35	C	06/19/2016	10:46	-132.364	44.722	0	900.10	0	3.5640	0	34.3420	0	27.313	0	890.884	0	11.3	4	3.5	4	-1E+10	1	-1E+10	1	-1E+10	1	-1E+10	1	-1E+10	1	-1E+10	1
4901784	35	C	06/19/2016	10:46	-132.364	44.722	0	904.60	0	3.5490	0	34.3430	0	27.315	0	895.328	0	11.3	4	3.5	4	-1E+10	1	-1E+10	1	-1E+10	1	-1E+10	1	-1E+10	1	-1E+10	1
4901784	35	C	06/19/2016	10:46	-132.364	44.722	0	910.20	0	3.5330	0	34.3450	0	27.318	0	900.859	0	11.3	4	3.5	4	-1E+10	1	-1E+10	1	-1E+10	1	-1E+10	1	-1E+10	1	-1E+10	1
4901784	35	C	06/19/2016	10:46	-132.364	44.722	0	914.80	0	3.5210	0	34.3480	0	27.322	0	905.402	0	11.3	4	3.5	4	-1E+10	1	-1E+10	1	-1E+10	1	-1E+10	1	-1E+10	1	-1E+10	1
4901784	35	C	06/19/2016	10:46	-132.364	44.722	0	919.50	0	3.5130	0	34.3500	0	27.324	0	910.043	0	11.3	4	3.5	4	-1E+10	1	-1E+10	1	-1E+10	1	-1E+10	1	-1E+10	1	-1E+10	1
4901784	35	C	06/19/2016	10:46	-132.364	44.722	0	925.00	0	3.4980	0	34.3540	0	27.329	0	915.475	0	11.4	4	3.6	4	-1E+10	1	-1E+10	1	-1E+10	1	-1E+10	1	-1E+10	1	-1E+10	1
4901784	35	C	06/19/2016	10:46	-132.364	44.722	0	929.70	0	3.4840	0	34.3560	0	27.332	0	920.116	0	11.5	4	3.6	4	-1E+10	1	-1E+10	1	-1E+10	1	-1E+10	1	-1E+10	1	-1E+10	1
4901784	35	C	06/19/2016	10:46	-132.364	44.722	0	934.80	0	3.4770	0	34.3570	0	27.333	0	925.152	0	11.5	4	3.6	4	-1E+10	1	-1E+10	1	-1E+10	1	-1E+10	1	-1E+10	1	-1E+10	1
4901784	35	C	06/19/2016	10:46	-132.364	44.722	0	940.10	0	3.4680	0	34.3600	0	27.337	0	930.386	0	11.5	4	3.6	4	-1E+10	1	-1E+10	1	-1E+10	1	-1E+10	1	-1E+10	1	-1E+10	1
4901784	35	C	06/19/2016	10:46	-132.364	44.722	0	944.90	0	3.4580	0	34.3620	0	27.339	0	935.125	0	11.5	4	3.6	4	-1E+10	1	-1E+10	1	-1E+10	1	-1E+10	1	-1E+10	1	-1E+10	1
4901784	35	C	06/19/2016	10:46	-132.364	44.722	0	949.80	0	3.4440	0	34.3650	0	27.343	0	939.964	0	11.6	4	3.6	4	-1E+10	1	-1E+10	1	-1E+10	1	-1E+10	1	-1E+10	1	-1E+10	1
4901784	35	C	06/19/2016	10:46	-132.364	44.722	0	954.80	0	3.4360	0	34.3670	0	27.345	0	944.901	0	11.6	4	3.6	4	-1E+10	1	-1E+10	1	-1E+10	1	-1E+10	1	-1E+10	1	-1E+10	1
4901784	35	C	06/19/2016	10:46	-132.364	44.722	0	959.80	0	3.4140	0	34.3700	0	27.350	0	949.837	0	11.8	4	3.7	4	-1E+10	1	-1E+10	1	-1E+10	1	-1E+10	1	-1E+10	1	-1E+10	1
4901784	35	C	06/19/2016	10:46	-132.364	44.722	0	964.90	0	3.4010	0	34.3700	0	27.351	0	954.873	0	11.9	4	3.7	4	-1E+10	1	-1E+10	1	-1E+10	1	-1E+10	1	-1E+10	1	-1E+10	1
4901784	35	C	06/19/2016	10:46	-132.364	44.722	0	969.90	0	3.3870	0	34.3700	0	27.353	0	959.810	0	12.0	4	3.7	4	-1E+10	1	-1E+10	1	-1E+10	1	-1E+10	1	-1E+10	1	-1E+10	1
4901784	35	C	06/19/2016	10:46	-132.364	44.722	0	975.00	0	3.3370	0	34.3650	0	27.353	0	964.845	0	12.1	4	3.8	4	-1E+10	1	-1E+10	1	-1E+10	1	-1E+10	1	-1E+10	1	-1E+10	1
4901784	35	C	06/19/2016	10:46	-132.364	44.722	0	980.00	0	3.3220	0	34.3670	0	27.356	0	969.781	0	12.1	4	3.8	4	-1E+10	1	-1E+10	1	-1E+10	1	-1E+10	1	-1E+10	1	-1E+10	1
4901784	35	C	06/19/2016	10:46	-132.364	44.722	0	985.10	0	3.3290	0	34.3720	0	27.360	0	974.816	0	12.1	4	3.8	4	-1E+10	1	-1E+10	1	-1E+10	1	-1E+10	1	-1E+10	1	-1E+10	1
4901784	35	C	06/19/2016	10:46	-132.364	44.722	0	990.20	0	3.3220	0	34.3750	0	27.363	0	979.851	0	12.2	4	3.8	4	-1E+10	1	-1E+10	1	-1E+10	1	-1E+10	1	-1E+10	1	-1E+10	1
4901784	35	C	06/19/2016	10:46	-132.364	44.722	0	995.30	0	3.3110	0	34.3760	0	27.365	0	984.886	0	12.2	4	3.8	4	-1E+10	1	-1E+10	1	-1E+10	1	-1E+10	1	-1E+10	1	-1E+10	1
4901784	35	C	06/19/2016	10:46	-132.364	44.722	0	1000.40	0	3.3090	0	34.3790	0	27.367	0	989.920	0	12.3	4	3.8	4	-1E+10	1	-1E+10	1	-1E+10	1	-1E+10	1	-1E+10	1	-1E+10	1
4901784	35	C	06/19/2016	10:46	-132.364	44.722	0	1005.50	0	3.2980	0	34.3820	0	27.371	0	994.955	0	12.4	4	3.9	4	-1E+10	1	-1E+10	1	-1E+10	1	-1E+10	1	-1E+10	1	-1E+10	1
4901784	35	C	06/19/2016	10:46	-132.364	44.722	0	1010.60	0	3.3360	0	34.3910	0	27.374	0	999.989	0	12.6	4	3.9	4	-1E+10	1	-1E+10	1	-1E+10	1	-1E+10	1	-1E+10	1	-1E+10	1
4901784	35	C	06/19/2016	10:46	-132.364	44.722	0	1015.80	0	3.3500	0	34.3960	0	27.377	0	1005.122	0	12.9	4	4.0	4	-1E+10	1	-1E+10	1	-1E+10	1	-1E+10	1	-1E+10	1	-1E+10	1
4901784	35	C	06/19/2016	10:46	-132.364	44.722	0	1020.10	0	3.3520	0	34.4000	0	27.380	0	1009.366	0	13.3	4	4.1	4	-1E+10	1	-1E+10	1	-1E+10	1	-1E+10	1	-1E+10	1	-1E+10	1
4901784	35	C	06/19/2016	10:46	-132.364	44.722	0	1024.40	0	3.3460	0	34.4030	0	27.383	0	1013.611	0	13.6	4	4.2	4	-1E+10	1	-1E+10	1	-1E+10	1	-1E+10	1	-1E+10	1	-1E+10	1
4901784	35	C	06/19/2016	10:46	-132.364	44.722	0	1029.60	0	3.3360	0	34.4050	0	27.386	0	1018.743	0	13.7	4	4.2	4	-1E+10	1	-1E+10	1	-1E+10	1	-1E+10	1	-1E+10	1	-1E+10	1
4901784	35	C	06/19/2016	10:46	-132.364	44.722	0	1034.70	0	3.3260	0	34.4050	0	27.387	0	1023.777	0	13.6	4	4.2	4	-1E+10	1	-1E+10	1	-1E+10	1	-1E+10	1	-1E+10	1	-1E+10	1
4901784	35	C	06/19/2016	10:46	-132.364	44.722	0	1039.90	0	3.3050	0	34.4070	0	27.390	0	1028.909	0	13.8	4	4.3	4	-1E+10	1	-1E+10	1	-1E+10	1	-1E+10	1	-1E+10	1	-1E+10	1
4901784	35	C	06/19/2016	10:46	-132.364	44.722	0	1045.10	0	3.3080	0	34.4100	0	27.392	0	1034.042	0	14.7	4	4.6	4	-1E+10	1	-1E+10	1	-1E+10	1	-1E+10	1	-1E+10	1	-1E+10	1
4901784	35	C	06/19/2016	10:46	-132.364	44.722	0	1050.40	0	3.3300	0	34.4160	0	27.395	0	1039.273	0	16.0	4	5.0	4	-1E+10	1	-1E+10	1	-1E+10	1	-1E+10	1	-1E+10	1	-1E+10	1
4901784	35	C	06/19/2016	10:46	-132.364	44.722	0	1055.60	0	3.3350	0	34.4200	0	27.398	0	1044.404	0	16.0	4	5.0	4	-1E+10	1	-1E+10	1	-1E+10	1	-1E+10	1	-1E+10	1	-1E+10	1
4901784	35	C	06/19/2016	10:46	-132.364	44.722	0	1059.90	0	3.3160	0	34.4190	0	27.399	0	1048.648	0	15.4	4	4.8	4	-1E+10	1	-1E+10	1	-1E+10	1	-1E+10	1	-1E+10	1	-1E+10	1
4901784	35	C	06/19/2016	10:46	-132.364	44.722	0	1064.30	0	3.2790	0	34.4170	0	27.401	0	1052.990	0	14.9	4	4.6	4	-1E+10	1	-1E+10	1	-1E+10	1	-1E+10	1	-1E+10	1	-1E+10	1
4901784	35	C	06/19/2016	10:46	-132.364	44.722	0	1069.50	0	3.2460	0	34.4150	0	27.402	0	1058.122	0	14.4	4	4.5	4	-1E+10	1	-1E+10	1	-1E+10	1	-1E+10	1	-1E+10	1	-1E+10	1
4901784	35	C	06/19/2016	10:46	-132.364	44.722	0	1074.70	0	3.2110	0	34.4140	0	27.405	0	1063.253	0	14.2	4	4.4	4	-1E+10	1	-1E+10	1	-1E+10	1	-1E+10	1	-1E+10	1	-1E+10	1
4901784	35	C	06/19/2016	10:46	-132.364	44.722	0	1080.00	0	3.1950	0	34.4150	0	27.407	0	1068.484	0	14.3	4	4.4	4	-1E+10	1	-1E+10	1	-1E+10	1	-1E+10	1	-1E+10	1	-1E+10	1
4901784	35	C	06/19/2016	10:46	-132.364	44.722	0	1085.30	0	3.1880	0	34.4180	0	27.410	0	1073.714	0	14.5	4	4.5	4	-1E+10	1	-1E+10	1	-1E+10	1	-1E+10	1	-1E+10	1	-1E+10	1
4901784	35	C	06/19/2016	10:46	-132.364	44.722	0	1090.60	0	3.1820	0	34.4190	0	27.412	0	1078.943	0	14.6	4	4.5	4	-1E+10	1	-1E+10	1	-1E+10	1	-1E+10	1	-1E+10	1	-1E+10	1
4901784	35	C	06/19/2016	10:46	-132.364	44.722	0	1095.10	0	3.1770	0	34.4210	0	27.414	0	1083.384	0	14.8	4	4.6	4	-1E+10	1	-1E+10	1	-1E+10	1	-1E+10	1	-1E+10	1	-1E+10	1
4901784	35	C	06/19/2016	10:46	-132.364	44.722	0	1099.60	0	3.1780	0	34.4230	0	27.415	0	1087.824	0	15.0	4	4.6	4	-1E+10	1	-1E+10	1	-1E+10	1	-1E+10	1	-1E+10	1	-1E+10	1
4901784	35	C	06/19/2016	10:46	-132.364	44.722	0	1105.00	0	3.1730	0	34.4240	0	27.417	0	1093.152	0	15.1	4	4.7	4	-1E+10	1	-1E+10	1	-1E+10	1	-1E+10	1	-1E+10	1	-1E+10	1
4901784	35	C	06/19/2016	10:46	-132.364	44.722	0	1110.40	0	3.1720	0	34.4250	0	27.417	0	1098.480	0	15.5	4	4.8	4	-1E+10	1	-1E+10	1	-1E+10	1	-1E+10	1	-1E+10	1	-1E+10	1
4901784	35	C	06/19/2016	10:46	-132.364	44.722	0	1114.90	0	3.1820	0	34.4270	0	27.418	0	1102.920	0	16.4	4	5.1	4	-1E+10	1	-1E+10	1	-1E+10	1	-1E+10	1	-1E+10	1	-1E+10	1
4901784	35	C	06/19/2016	10:46	-132.364	44.722	0	1119.40	0	3.2000	0	34.4330	0	27.421	0	1107.360	0	17.0	4	5.3	4	-1E+10	1	-1E+10	1	-1E+10	1	-1E+10	1	-1E+10	1	-1E+10	1
4901784	35	C	06/19/2016	10:46	-132.364	44.722	0	1124.90	0	3.2200	0	34.4370	0	27.423	0	1112.786	0	17.4	4	5.4	4	-1E+10	1	-1E+10	1	-1E+10	1	-1E+10	1	-1E+10	1	-1E+10	1
4901784	35	C	06/19/2016	10:46	-132.364	44.722	0	1130.30	0	3.2050	0	34.4360	0	27.423	0	1118.113	0	16.8	4	5.2	4	-1E+10	1	-1E+10	1	-1E+10	1	-1E+10	1	-1E+10	1	-1E+10	1
4901784	35	C	06/19/2016	10:46	-132.364	44.722	0	1134.90	0	3.1700	0	34.4330	0	27.424	0	1122.651	0	16.2	4	5.0	4	-1E+10	1	-1E+10	1	-1E+10	1	-1E+10	1	-1E+10	1	-1E+10	1
4901784	35	C	06/19/2016	10:46	-132.364	44.722	0	1139.50	0	3.1430	0	34.4320	0	27.426	0	1127.189	0	16.2	4	5.0	4	-1E+10	1	-1E+10	1	-1E+10	1	-1E+10	1	-1E+10	1	-1E+10	1
4901784	35	C	06/19/2016	10:46	-132.364	44.722	0	1145.00	0	3.1440	0	34.4350	0	27.428	0	1132.615	0	16.5	4	5.1	4	-1E+10	1	-1E+10	1	-1E+10	1	-1E+10	1	-1E+10	1	-1E+10	1
4901784	35	C	06/19/2016	10:46	-132.364	44.722	0	1150.50	0	3.1330	0	34.4350	0	27.429	0	1138.041	0	16.3	4	5.1	4	-1E+10	1	-1E+10	1	-1E+10	1	-1E+10	1	-1E+10	1	-1E+10	1
4901784	35	C	06/19/2016	10:46	-132.364	44.722	0	1155.30	0	3.1000	0	34.4350	0	27.432	0	1142.776	0	16.3	4	5.1	4	-1E+10	1	-1E+10	1	-1E+10	1	-1E+10	1	-1E+10	1	-1E+10	1
4901784	35	C	06/19/2016	10:46	-132.364	44.722	0	1159.80	0	3.1020	0	34.4370	0	27.434	0	1147.215	0	16.7	4	5.2	4	-1E+10	1	-1E+10	1	-1E+10	1	-1E+10	1	-1E+10	1	-1E+10	1
4901784	35	C	06/19/2016	10:46	-132.364	44.722	0	1164.70	0	3.0980	0	34.4400	0	27.437	0	1152.048	0	17.3	4	5.3	4	-1E+10	1	-1E+10	1	-1E+10	1	-1E+10	1	-1E+10	1	-1E+10	1
4901784	35	C	06/19/2016	10:46	-132.364	44.722	0	1169.60	0	3.1170	0	34.4440	0	27.438	0	1156.881	0	17.8	4	5.5	4	-1E+10	1	-1E+10	1	-1E+10	1	-1E+10	1	-1E+10	1	-1E+10	1
4901784	35	C	06/19/2016	10:46	-132.364	44.722	0	1174.60	0	3.1120	0	34.4450	0	27.439	0	1161.813	0	18.0	4	5.6	4	-1E+10	1	-1E+10	1	-1E+10	1	-1E+10	1	-1E+10	1	-1E+10	1
4901784	35	C	06/19/2016	10:46	-132.364	44.722	0	1179.60	0	3.1040	0	34.4470	0	27.442	0	1166.745	0	18.1	4	5.6	4	-1E+10	1	-1E+10	1	-1E+10	1	-1E+10	1	-1E+10	1	-1E+10	1
4901784	35	C	06/19/2016	10:46	-132.364	44.722	0	1184.70	0	3.0940	0	34.4480	0	27.443	0	1171.775	0	18.2	4	5.6	4	-1E+10	1	-1E+10	1	-1E+10	1	-1E+10	1	-1E+10	1	-1E+10	1
4901784	35	C	06/19/2016	10:46	-132.364	44.722	0	1189.80	0	3.0840	0	34.4490	0	27.445	0	1176.805	0	18.1	4	5.6	4	-1E+10	1	-1E+10	1	-1E+10	1	-1E+10	1	-1E+10	1	-1E+10	1
4901784	35	C	06/19/2016	10:46	-132.364	44.722	0	1194.90	0	3.0640	0	34.4490	0	27.447	0	1181.835	0	18.0	4	5.6	4	-1E+10	1	-1E+10	1	-1E+10	1	-1E+10	1	-1E+10	1	-1E+10	1
4901784	35	C	06/19/2016	10:46	-132.364	44.722	0	1200.10	0	3.0430	0	34.4490	0	27.449	0	1186.964	0	17.8	4	5.5	4	-1E+10	1	-1E+10	1	-1E+10	1	-1E+10	1	-1E+10	1	-1E+10	1
4901784	35	C	06/19/2016	10:46	-132.364	44.722	0	1205.40	0	3.0260	0	34.4490	0	27.451	0	1192.191	0	17.5	4	5.4	4	-1E+10	1	-1E+10	1	-1E+10	1	-1E+10	1	-1E+10	1	-1E+10	1
4901784	35	C	06/19/2016	10:46	-132.364	44.722	0	1210.60	0	3.0110	0	34.4480	0	27.451	0	1197.319	0	17.2	4	5.3	4	-1E+10	1	-1E+10	1	-1E+10	1	-1E+10	1	-1E+10	1	-1E+10	1
4901784	35	C	06/19/2016	10:46	-132.364	44.722	0	1214.90	0	3.0030	0	34.4470	0	27.451	0	1201.559	0	17.1	4	5.3	4	-1E+10	1	-1E+10	1	-1E+10	1	-1E+10	1	-1E+10	1	-1E+10	1
4901784	35	C	06/19/2016	10:46	-132.364	44.722	0	1219.30	0	2.9890	0	34.4460	0	27.452	0	1205.899	0	17.1	4	5.3	4	-1E+10	1	-1E+10	1	-1E+10	1	-1E+10	1	-1E+10	1	-1E+10	1
4901784	35	C	06/19/2016	10:46	-132.364	44.722	0	1224.60	0	2.9780	0	34.4470	0	27.453	0	1211.125	0	17.4	4	5.4	4	-1E+10	1	-1E+10	1	-1E+10	1	-1E+10	1	-1E+10	1	-1E+10	1
4901784	35	C	06/19/2016	10:46	-132.364	44.722	0	1229.90	0	2.9840	0	34.4510	0	27.456	0	1216.351	0	18.2	4	5.6	4	-1E+10	1	-1E+10	1	-1E+10	1	-1E+10	1	-1E+10	1	-1E+10	1
4901784	35	C	06/19/2016	10:46	-132.364	44.722	0	1235.20	0	3.0020	0	34.4550	0	27.458	0	1221.578	0	19.0	4	5.9	4	-1E+10	1	-1E+10	1	-1E+10	1	-1E+10	1	-1E+10	1	-1E+10	1
4901784	35	C	06/19/2016	10:46	-132.364	44.722	0	1240.60	0	3.0060	0	34.4580	0	27.460	0	1226.902	0	19.3	4	6.0	4	-1E+10	1	-1E+10	1	-1E+10	1	-1E+10	1	-1E+10	1	-1E+10	1
4901784	35	C	06/19/2016	10:46	-132.364	44.722	0	1245.10	0	3.0010	0	34.4590	0	27.461	0	1231.339	0	19.3	4	6.0	4	-1E+10	1	-1E+10	1	-1E+10	1	-1E+10	1	-1E+10	1	-1E+10	1
4901784	35	C	06/19/2016	10:46	-132.364	44.722	0	1249.60	0	2.9910	0	34.4590	0	27.462	0	1235.777	0	19.5	4	6.0	4	-1E+10	1	-1E+10	1	-1E+10	1	-1E+10	1	-1E+10	1	-1E+10	1
4901784	35	C	06/19/2016	10:46	-132.364	44.722	0	1255.10	0	2.9850	0	34.4620	0	27.465	0	1241.199	0	19.9	4	6.1	4	-1E+10	1	-1E+10	1	-1E+10	1	-1E+10	1	-1E+10	1	-1E+10	1
4901784	35	C	06/19/2016	10:46	-132.364	44.722	0	1259.70	0	2.9820	0	34.4640	0	27.467	0	1245.735	0	20.1	4	6.2	4	-1E+10	1	-1E+10	1	-1E+10	1	-1E+10	1	-1E+10	1	-1E+10	1
4901784	35	C	06/19/2016	10:46	-132.364	44.722	0	1264.90	0	2.9710	0	34.4650	0	27.469	0	1250.862	0	20.3	4	6.3	4	-1E+10	1	-1E+10	1	-1E+10	1	-1E+10	1	-1E+10	1	-1E+10	1
4901784	35	C	06/19/2016	10:46	-132.364	44.722	0	1270.40	0	2.9640	0	34.4670	0	27.471	0	1256.284	0	20.6	4	6.4	4	-1E+10	1	-1E+10	1	-1E+10	1	-1E+10	1	-1E+10	1	-1E+10	1
4901784	35	C	06/19/2016	10:46	-132.364	44.722	0	1275.30	0	2.9600	0	34.4690	0	27.473	0	1261.115	0	20.7	4	6.4	4	-1E+10	1	-1E+10	1	-1E+10	1	-1E+10	1	-1E+10	1	-1E+10	1
4901784	35	C	06/19/2016	10:46	-132.364	44.722	0	1280.20	0	2.9510	0	34.4690	0	27.474	0	1265.946	0	20.6	4	6.4	4	-1E+10	1	-1E+10	1	-1E+10	1	-1E+10	1	-1E+10	1	-1E+10	1
4901784	35	C	06/19/2016	10:46	-132.364	44.722	0	1285.10	0	2.9350	0	34.4690	0	27.475	0	1270.777	0	20.7	4	6.4	4	-1E+10	1	-1E+10	1	-1E+10	1	-1E+10	1	-1E+10	1	-1E+10	1
4901784	35	C	06/19/2016	10:46	-132.364	44.722	0	1290.10	0	2.9340	0	34.4700	0	27.476	0	1275.706	0	21.0	4	6.5	4	-1E+10	1	-1E+10	1	-1E+10	1	-1E+10	1	-1E+10	1	-1E+10	1
4901784	35	C	06/19/2016	10:46	-132.364	44.722	0	1295.10	0	2.9190	0	34.4710	0	27.478	0	1280.635	0	20.9	4	6.4	4	-1E+10	1	-1E+10	1	-1E+10	1	-1E+10	1	-1E+10	1	-1E+10	1
4901784	35	C	06/19/2016	10:46	-132.364	44.722	0	1300.10	0	2.9110	0	34.4710	0	27.479	0	1285.564	0	21.0	4	6.5	4	-1E+10	1	-1E+10	1	-1E+10	1	-1E+10	1	-1E+10	1	-1E+10	1
4901784	35	C	06/19/2016	10:46	-132.364	44.722	0	1305.10	0	2.9050	0	34.4720	0	27.480	0	1290.493	0	21.1	4	6.5	4	-1E+10	1	-1E+10	1	-1E+10	1	-1E+10	1	-1E+10	1	-1E+10	1
4901784	35	C	06/19/2016	10:46	-132.364	44.722	0	1310.10	0	2.9020	0	34.4730	0	27.481	0	1295.421	0	21.2	4	6.5	4	-1E+10	1	-1E+10	1	-1E+10	1	-1E+10	1	-1E+10	1	-1E+10	1
4901784	35	C	06/19/2016	10:46	-132.364	44.722	0	1315.10	0	2.8990	0	34.4730	0	27.482	0	1300.350	0	21.4	4	6.6	4	-1E+10	1	-1E+10	1	-1E+10	1	-1E+10	1	-1E+10	1	-1E+10	1
4901784	35	C	06/19/2016	10:46	-132.364	44.722	0	1320.10	0	2.8890	0	34.4750	0	27.484	0	1305.278	0	21.5	4	6.6	4	-1E+10	1	-1E+10	1	-1E+10	1	-1E+10	1	-1E+10	1	-1E+10	1
4901784	35	C	06/19/2016	10:46	-132.364	44.722	0	1325.10	0	2.8880	0	34.4750	0	27.484	0	1310.207	0	21.7	4	6.7	4	-1E+10	1	-1E+10	1	-1E+10	1	-1E+10	1	-1E+10	1	-1E+10	1
4901784	35	C	06/19/2016	10:46	-132.364	44.722	0	1330.30	0	2.8830	0	34.4770	0	27.487	0	1315.332	0	21.9	4	6.7	4	-1E+10	1	-1E+10	1	-1E+10	1	-1E+10	1	-1E+10	1	-1E+10	1
4901784	35	C	06/19/2016	10:46	-132.364	44.722	0	1335.30	0	2.8730	0	34.4780	0	27.488	0	1320.260	0	22.0	4	6.8	4	-1E+10	1	-1E+10	1	-1E+10	1	-1E+10	1	-1E+10	1	-1E+10	1
4901784	35	C	06/19/2016	10:46	-132.364	44.722	0	1340.40	0	2.8670	0	34.4780	0	27.489	0	1325.287	0	22.1	4	6.8	4	-1E+10	1	-1E+10	1	-1E+10	1	-1E+10	1	-1E+10	1	-1E+10	1
4901784	35	C	06/19/2016	10:46	-132.364	44.722	0	1345.60	0	2.8650	0	34.4780	0	27.489	0	1330.412	0	22.3	4	6.9	4	-1E+10	1	-1E+10	1	-1E+10	1	-1E+10	1	-1E+10	1	-1E+10	1
4901784	35	C	06/19/2016	10:46	-132.364	44.722	0	1350.70	0	2.8530	0	34.4800	0	27.492	0	1335.438	0	22.6	4	7.0	4	-1E+10	1	-1E+10	1	-1E+10	1	-1E+10	1	-1E+10	1	-1E+10	1
4901784	35	C	06/19/2016	10:46	-132.364	44.722	0	1355.00	0	2.8500	0	34.4810	0	27.493	0	1339.676	0	22.9	4	7.0	4	-1E+10	1	-1E+10	1	-1E+10	1	-1E+10	1	-1E+10	1	-1E+10	1
4901784	35	C	06/19/2016	10:46	-132.364	44.722	0	1359.30	0	2.8460	0	34.4830	0	27.495	0	1343.913	0	23.3	4	7.2	4	-1E+10	1	-1E+10	1	-1E+10	1	-1E+10	1	-1E+10	1	-1E+10	1
4901784	35	C	06/19/2016	10:46	-132.364	44.722	0	1364.60	0	2.8420	0	34.4850	0	27.497	0	1349.136	0	23.6	4	7.3	4	-1E+10	1	-1E+10	1	-1E+10	1	-1E+10	1	-1E+10	1	-1E+10	1
4901784	35	C	06/19/2016	10:46	-132.364	44.722	0	1370.10	0	2.8330	0	34.4870	0	27.499	0	1354.556	0	24.0	4	7.4	4	-1E+10	1	-1E+10	1	-1E+10	1	-1E+10	1	-1E+10	1	-1E+10	1
4901784	35	C	06/19/2016	10:46	-132.364	44.722	0	1375.00	0	2.8250	0	34.4890	0	27.501	0	1359.385	0	24.2	4	7.4	4	-1E+10	1	-1E+10	1	-1E+10	1	-1E+10	1	-1E+10	1	-1E+10	1
4901784	35	C	06/19/2016	10:46	-132.364	44.722	0	1379.60	0	2.8230	0	34.4890	0	27.502	0	1363.918	0	24.4	4	7.5	4	-1E+10	1	-1E+10	1	-1E+10	1	-1E+10	1	-1E+10	1	-1E+10	1
4901784	35	C	06/19/2016	10:46	-132.364	44.722	0	1384.60	0	2.8180	0	34.4910	0	27.504	0	1368.845	0	24.6	4	7.6	4	-1E+10	1	-1E+10	1	-1E+10	1	-1E+10	1	-1E+10	1	-1E+10	1
4901784	35	C	06/19/2016	10:46	-132.364	44.722	0	1389.60	0	2.8070	0	34.4920	0	27.506	0	1373.772	0	24.7	4	7.6	4	-1E+10	1	-1E+10	1	-1E+10	1	-1E+10	1	-1E+10	1	-1E+10	1
4901784	35	C	06/19/2016	10:46	-132.364	44.722	0	1394.70	0	2.8030	0	34.4920	0	27.506	0	1378.797	0	24.9	4	7.6	4	-1E+10	1	-1E+10	1	-1E+10	1	-1E+10	1	-1E+10	1	-1E+10	1
4901784	35	C	06/19/2016	10:46	-132.364	44.722	0	1399.70	0	2.7950	0	34.4930	0	27.507	0	1383.723	0	24.9	4	7.6	4	-1E+10	1	-1E+10	1	-1E+10	1	-1E+10	1	-1E+10	1	-1E+10	1
4901784	35	C	06/19/2016	10:46	-132.364	44.722	0	1404.80	0	2.7630	0	34.4920	0	27.509	0	1388.749	0	24.8	4	7.6	4	-1E+10	1	-1E+10	1	-1E+10	1	-1E+10	1	-1E+10	1	-1E+10	1
4901784	35	C	06/19/2016	10:46	-132.364	44.722	0	1409.90	0	2.7530	0	34.4930	0	27.511	0	1393.773	0	24.9	4	7.6	4	-1E+10	1	-1E+10	1	-1E+10	1	-1E+10	1	-1E+10	1	-1E+10	1
4901784	35	C	06/19/2016	10:46	-132.364	44.722	0	1415.10	0	2.7470	0	34.4940	0	27.513	0	1398.897	0	25.1	4	7.7	4	-1E+10	1	-1E+10	1	-1E+10	1	-1E+10	1	-1E+10	1	-1E+10	1
4901784	35	C	06/19/2016	10:46	-132.364	44.722	0	1420.30	0	2.7400	0	34.4950	0	27.514	0	1404.020	0	25.2	4	7.7	4	-1E+10	1	-1E+10	1	-1E+10	1	-1E+10	1	-1E+10	1	-1E+10	1
4901784	35	C	06/19/2016	10:46	-132.364	44.722	0	1425.70	0	2.7270	0	34.4950	0	27.515	0	1409.340	0	25.1	4	7.7	4	-1E+10	1	-1E+10	1	-1E+10	1	-1E+10	1	-1E+10	1	-1E+10	1
4901784	35	C	06/19/2016	10:46	-132.364	44.722	0	1430.10	0	2.7120	0	34.4950	0	27.516	0	1413.675	0	25.0	4	7.7	4	-1E+10	1	-1E+10	1	-1E+10	1	-1E+10	1	-1E+10	1	-1E+10	1
4901784	35	C	06/19/2016	10:46	-132.364	44.722	0	1434.60	0	2.7030	0	34.4940	0	27.516	0	1418.108	0	24.8	4	7.6	4	-1E+10	1	-1E+10	1	-1E+10	1	-1E+10	1	-1E+10	1	-1E+10	1
4901784	35	C	06/19/2016	10:46	-132.364	44.722	0	1440.10	0	2.6880	0	34.4930	0	27.517	0	1423.526	0	24.7	4	7.6	4	-1E+10	1	-1E+10	1	-1E+10	1	-1E+10	1	-1E+10	1	-1E+10	1
4901784	35	C	06/19/2016	10:46	-132.364	44.722	0	1445.50	0	2.6670	0	34.4930	0	27.519	0	1428.846	0	24.7	4	7.6	4	-1E+10	1	-1E+10	1	-1E+10	1	-1E+10	1	-1E+10	1	-1E+10	1
4901784	35	C	06/19/2016	10:46	-132.364	44.722	0	1450.00	0	2.6580	0	34.4940	0	27.520	0	1433.279	0	24.9	4	7.6	4	-1E+10	1	-1E+10	1	-1E+10	1	-1E+10	1	-1E+10	1	-1E+10	1
4901784	35	C	06/19/2016	10:46	-132.364	44.722	0	1454.50	0	2.6590	0	34.4950	0	27.521	0	1437.711	0	25.2	4	7.7	4	-1E+10	1	-1E+10	1	-1E+10	1	-1E+10	1	-1E+10	1	-1E+10	1
4901784	35	C	06/19/2016	10:46	-132.364	44.722	0	1460.00	0	2.6480	0	34.4960	0	27.523	0	1443.129	0	25.4	4	7.8	4	-1E+10	1	-1E+10	1	-1E+10	1	-1E+10	1	-1E+10	1	-1E+10	1
4901784	35	C	06/19/2016	10:46	-132.364	44.722	0	1465.40	0	2.6370	0	34.4970	0	27.525	0	1448.448	0	25.7	4	7.9	4	-1E+10	1	-1E+10	1	-1E+10	1	-1E+10	1	-1E+10	1	-1E+10	1
4901784	35	C	06/19/2016	10:46	-132.364	44.722	0	1470.00	0	2.6280	0	34.4980	0	27.526	0	1452.979	0	25.9	4	7.9	4	-1E+10	1	-1E+10	1	-1E+10	1	-1E+10	1	-1E+10	1	-1E+10	1
4901784	35	C	06/19/2016	10:46	-132.364	44.722	0	1474.50	0	2.6200	0	34.4980	0	27.527	0	1457.412	0	26.1	4	8.0	4	-1E+10	1	-1E+10	1	-1E+10	1	-1E+10	1	-1E+10	1	-1E+10	1
4901784	35	C	06/19/2016	10:46	-132.364	44.722	0	1480.00	0	2.6160	0	34.5000	0	27.529	0	1462.829	0	26.5	4	8.1	4	-1E+10	1	-1E+10	1	-1E+10	1	-1E+10	1	-1E+10	1	-1E+10	1
4901784	35	C	06/19/2016	10:46	-132.364	44.722	0	1485.60	0	2.6020	0	34.5010	0	27.531	0	1468.344	0	26.9	4	8.2	4	-1E+10	1	-1E+10	1	-1E+10	1	-1E+10	1	-1E+10	1	-1E+10	1
4901784	35	C	06/19/2016	10:46	-132.364	44.722	0	1490.30	0	2.5920	0	34.5020	0	27.533	0	1472.974	0	27.1	4	8.3	4	-1E+10	1	-1E+10	1	-1E+10	1	-1E+10	1	-1E+10	1	-1E+10	1
4901784	35	C	06/19/2016	10:46	-132.364	44.722	0	1494.70	0	2.5820	0	34.5030	0	27.534	0	1477.307	0	27.4	4	8.4	4	-1E+10	1	-1E+10	1	-1E+10	1	-1E+10	1	-1E+10	1	-1E+10	1
4901784	35	C	06/19/2016	10:46	-132.364	44.722	0	1500.00	0	2.5650	0	34.5040	0	27.537	0	1482.527	0	27.7	4	8.5	4	-1E+10	1	-1E+10	1	-1E+10	1	-1E+10	1	-1E+10	1	-1E+10	1
4901784	35	C	06/19/2016	10:46	-132.364	44.722	0	1505.00	0	2.5460	0	34.5050	0	27.539	0	1487.451	0	28.0	4	8.6	4	-1E+10	1	-1E+10	1	-1E+10	1	-1E+10	1	-1E+10	1	-1E+10	1
4901784	35	C	06/19/2016	10:46	-132.364	44.722	0	1510.10	0	2.5320	0	34.5060	0	27.541	0	1492.473	0	28.4	4	8.7	4	-1E+10	1	-1E+10	1	-1E+10	1	-1E+10	1	-1E+10	1	-1E+10	1
4901784	35	C	06/19/2016	10:46	-132.364	44.722	0	1515.20	0	2.5200	0	34.5080	0	27.544	0	1497.496	0	28.8	4	8.8	4	-1E+10	1	-1E+10	1	-1E+10	1	-1E+10	1	-1E+10	1	-1E+10	1
4901784	35	C	06/19/2016	10:46	-132.364	44.722	0	1520.40	0	2.5050	0	34.5090	0	27.546	0	1502.617	0	29.0	4	8.9	4	-1E+10	1	-1E+10	1	-1E+10	1	-1E+10	1	-1E+10	1	-1E+10	1
4901784	35	C	06/19/2016	10:46	-132.364	44.722	0	1525.60	0	2.4920	0	34.5100	0	27.548	0	1507.737	0	29.3	4	8.9	4	-1E+10	1	-1E+10	1	-1E+10	1	-1E+10	1	-1E+10	1	-1E+10	1
4901784	35	C	06/19/2016	10:46	-132.364	44.722	0	1529.90	0	2.4780	0	34.5110	0	27.550	0	1511.972	0	29.5	4	9.0	4	-1E+10	1	-1E+10	1	-1E+10	1	-1E+10	1	-1E+10	1	-1E+10	1
4901784	35	C	06/19/2016	10:46	-132.364	44.722	0	1534.30	0	2.4680	0	34.5120	0	27.551	0	1516.304	0	29.7	4	9.1	4	-1E+10	1	-1E+10	1	-1E+10	1	-1E+10	1	-1E+10	1	-1E+10	1
4901784	35	C	06/19/2016	10:46	-132.364	44.722	0	1539.50	0	2.4630	0	34.5130	0	27.552	0	1521.424	0	30.2	4	9.2	4	-1E+10	1	-1E+10	1	-1E+10	1	-1E+10	1	-1E+10	1	-1E+10	1
4901784	35	C	06/19/2016	10:46	-132.364	44.722	0	1544.80	0	2.4570	0	34.5140	0	27.554	0	1526.643	0	30.6	4	9.3	4	-1E+10	1	-1E+10	1	-1E+10	1	-1E+10	1	-1E+10	1	-1E+10	1
4901784	35	C	06/19/2016	10:46	-132.364	44.722	0	1550.00	0	2.4420	0	34.5160	0	27.557	0	1531.763	0	31.0	4	9.5	4	-1E+10	1	-1E+10	1	-1E+10	1	-1E+10	1	-1E+10	1	-1E+10	1
4901784	35	C	06/19/2016	10:46	-132.364	44.722	0	1555.30	0	2.4370	0	34.5170	0	27.558	0	1536.982	0	31.3	4	9.5	4	-1E+10	1	-1E+10	1	-1E+10	1	-1E+10	1	-1E+10	1	-1E+10	1
4901784	35	C	06/19/2016	10:46	-132.364	44.722	0	1560.60	0	2.4300	0	34.5170	0	27.559	0	1542.200	0	31.4	4	9.6	4	-1E+10	1	-1E+10	1	-1E+10	1	-1E+10	1	-1E+10	1	-1E+10	1
4901784	35	C	06/19/2016	10:46	-132.364	44.722	0	1565.00	0	2.4160	0	34.5180	0	27.561	0	1546.532	0	31.6	4	9.6	4	-1E+10	1	-1E+10	1	-1E+10	1	-1E+10	1	-1E+10	1	-1E+10	1
4901784	35	C	06/19/2016	10:46	-132.364	44.722	0	1569.50	0	2.4040	0	34.5180	0	27.562	0	1550.962	0	31.9	4	9.7	4	-1E+10	1	-1E+10	1	-1E+10	1	-1E+10	1	-1E+10	1	-1E+10	1
4901784	35	C	06/19/2016	10:46	-132.364	44.722	0	1574.90	0	2.3940	0	34.5200	0	27.564	0	1556.279	0	32.5	4	9.9	4	-1E+10	1	-1E+10	1	-1E+10	1	-1E+10	1	-1E+10	1	-1E+10	1
4901784	35	C	06/19/2016	10:46	-132.364	44.722	0	1580.40	0	2.3830	0	34.5210	0	27.566	0	1561.693	0	32.8	4	10.0	4	-1E+10	1	-1E+10	1	-1E+10	1	-1E+10	1	-1E+10	1	-1E+10	1
4901784	35	C	06/19/2016	10:46	-132.364	44.722	0	1584.90	0	2.3760	0	34.5220	0	27.567	0	1566.124	0	32.9	4	10.0	4	-1E+10	1	-1E+10	1	-1E+10	1	-1E+10	1	-1E+10	1	-1E+10	1
4901784	35	C	06/19/2016	10:46	-132.364	44.722	0	1590.20	0	2.3710	0	34.5220	0	27.568	0	1571.341	0	33.2	4	10.1	4	-1E+10	1	-1E+10	1	-1E+10	1	-1E+10	1	-1E+10	1	-1E+10	1
4901784	35	C	06/19/2016	10:46	-132.364	44.722	0	1595.20	0	2.3590	0	34.5240	0	27.570	0	1576.263	0	33.6	4	10.2	4	-1E+10	1	-1E+10	1	-1E+10	1	-1E+10	1	-1E+10	1	-1E+10	1
4901784	35	C	06/19/2016	10:46	-132.364	44.722	0	1600.10	0	2.3490	0	34.5250	0	27.572	0	1581.087	0	34.0	4	10.3	4	-1E+10	1	-1E+10	1	-1E+10	1	-1E+10	1	-1E+10	1	-1E+10	1
4901784	35	C	06/19/2016	10:46	-132.364	44.722	0	1605.00	0	2.3420	0	34.5260	0	27.573	0	1585.910	0	34.3	4	10.4	4	-1E+10	1	-1E+10	1	-1E+10	1	-1E+10	1	-1E+10	1	-1E+10	1
4901784	35	C	06/19/2016	10:46	-132.364	44.722	0	1609.80	0	2.3370	0	34.5260	0	27.574	0	1590.635	0	34.5	4	10.5	4	-1E+10	1	-1E+10	1	-1E+10	1	-1E+10	1	-1E+10	1	-1E+10	1
4901784	35	C	06/19/2016	10:46	-132.364	44.722	0	1614.70	0	2.3220	0	34.5280	0	27.576	0	1595.458	0	34.6	4	10.5	4	-1E+10	1	-1E+10	1	-1E+10	1	-1E+10	1	-1E+10	1	-1E+10	1
4901784	35	C	06/19/2016	10:46	-132.364	44.722	0	1619.70	0	2.3120	0	34.5280	0	27.577	0	1600.380	0	34.6	4	10.5	4	-1E+10	1	-1E+10	1	-1E+10	1	-1E+10	1	-1E+10	1	-1E+10	1
4901784	35	C	06/19/2016	10:46	-132.364	44.722	0	1624.60	0	2.3020	0	34.5280	0	27.578	0	1605.203	0	34.9	4	10.6	4	-1E+10	1	-1E+10	1	-1E+10	1	-1E+10	1	-1E+10	1	-1E+10	1
4901784	35	C	06/19/2016	10:46	-132.364	44.722	0	1629.60	0	2.2950	0	34.5290	0	27.580	0	1610.124	0	35.2	4	10.7	4	-1E+10	1	-1E+10	1	-1E+10	1	-1E+10	1	-1E+10	1	-1E+10	1
4901784	35	C	06/19/2016	10:46	-132.364	44.722	0	1634.60	0	2.2920	0	34.5300	0	27.581	0	1615.045	0	35.4	4	10.7	4	-1E+10	1	-1E+10	1	-1E+10	1	-1E+10	1	-1E+10	1	-1E+10	1
4901784	35	C	06/19/2016	10:46	-132.364	44.722	0	1639.80	0	2.2870	0	34.5300	0	27.581	0	1620.163	0	35.6	4	10.8	4	-1E+10	1	-1E+10	1	-1E+10	1	-1E+10	1	-1E+10	1	-1E+10	1
4901784	35	C	06/19/2016	10:46	-132.364	44.722	0	1644.90	0	2.2810	0	34.5310	0	27.582	0	1625.183	0	35.8	4	10.9	4	-1E+10	1	-1E+10	1	-1E+10	1	-1E+10	1	-1E+10	1	-1E+10	1
4901784	35	C	06/19/2016	10:46	-132.364	44.722	0	1650.10	0	2.2720	0	34.5320	0	27.584	0	1630.300	0	36.2	4	11.0	4	-1E+10	1	-1E+10	1	-1E+10	1	-1E+10	1	-1E+10	1	-1E+10	1
4901784	35	C	06/19/2016	10:46	-132.364	44.722	0	1655.40	0	2.2680	0	34.5330	0	27.585	0	1635.516	0	36.5	4	11.1	4	-1E+10	1	-1E+10	1	-1E+10	1	-1E+10	1	-1E+10	1	-1E+10	1
4901784	35	C	06/19/2016	10:46	-132.364	44.722	0	1660.70	0	2.2610	0	34.5340	0	27.586	0	1640.732	0	36.8	4	11.2	4	-1E+10	1	-1E+10	1	-1E+10	1	-1E+10	1	-1E+10	1	-1E+10	1
4901784	35	C	06/19/2016	10:46	-132.364	44.722	0	1665.10	0	2.2590	0	34.5340	0	27.587	0	1645.062	0	37.0	4	11.2	4	-1E+10	1	-1E+10	1	-1E+10	1	-1E+10	1	-1E+10	1	-1E+10	1
4901784	35	C	06/19/2016	10:46	-132.364	44.722	0	1669.50	0	2.2560	0	34.5350	0	27.588	0	1649.392	0	37.3	4	11.3	4	-1E+10	1	-1E+10	1	-1E+10	1	-1E+10	1	-1E+10	1	-1E+10	1
4901784	35	C	06/19/2016	10:46	-132.364	44.722	0	1674.80	0	2.2450	0	34.5360	0	27.589	0	1654.608	0	37.6	4	11.4	4	-1E+10	1	-1E+10	1	-1E+10	1	-1E+10	1	-1E+10	1	-1E+10	1
4901784	35	C	06/19/2016	10:46	-132.364	44.722	0	1680.20	0	2.2360	0	34.5370	0	27.591	0	1659.921	0	37.9	4	11.5	4	-1E+10	1	-1E+10	1	-1E+10	1	-1E+10	1	-1E+10	1	-1E+10	1
4901784	35	C	06/19/2016	10:46	-132.364	44.722	0	1685.60	0	2.2280	0	34.5380	0	27.592	0	1665.235	0	38.3	4	11.6	4	-1E+10	1	-1E+10	1	-1E+10	1	-1E+10	1	-1E+10	1	-1E+10	1
4901784	35	C	06/19/2016	10:46	-132.364	44.722	0	1690.10	0	2.2190	0	34.5390	0	27.594	0	1669.663	0	38.7	4	11.7	4	-1E+10	1	-1E+10	1	-1E+10	1	-1E+10	1	-1E+10	1	-1E+10	1
4901784	35	C	06/19/2016	10:46	-132.364	44.722	0	1694.70	0	2.2140	0	34.5400	0	27.595	0	1674.189	0	39.0	4	11.8	4	-1E+10	1	-1E+10	1	-1E+10	1	-1E+10	1	-1E+10	1	-1E+10	1
4901784	35	C	06/19/2016	10:46	-132.364	44.722	0	1700.10	0	2.2080	0	34.5410	0	27.597	0	1679.502	0	39.5	4	12.0	4	-1E+10	1	-1E+10	1	-1E+10	1	-1E+10	1	-1E+10	1	-1E+10	1
4901784	35	C	06/19/2016	10:46	-132.364	44.722	0	1705.20	0	2.2040	0	34.5420	0	27.598	0	1684.520	0	40.0	4	12.1	4	-1E+10	1	-1E+10	1	-1E+10	1	-1E+10	1	-1E+10	1	-1E+10	1
4901784	35	C	06/19/2016	10:46	-132.364	44.722	0	1709.50	0	2.1980	0	34.5430	0	27.599	0	1688.751	0	40.3	4	12.2	4	-1E+10	1	-1E+10	1	-1E+10	1	-1E+10	1	-1E+10	1	-1E+10	1
4901784	35	C	06/19/2016	10:46	-132.364	44.722	0	1714.30	0	2.1920	0	34.5440	0	27.600	0	1693.474	0	40.5	4	12.3	4	-1E+10	1	-1E+10	1	-1E+10	1	-1E+10	1	-1E+10	1	-1E+10	1
4901784	35	C	06/19/2016	10:46	-132.364	44.722	0	1720.00	0	2.1890	0	34.5450	0	27.601	0	1699.082	0	40.8	4	12.4	4	-1E+10	1	-1E+10	1	-1E+10	1	-1E+10	1	-1E+10	1	-1E+10	1
4901784	35	C	06/19/2016	10:46	-132.364	44.722	0	1725.60	0	2.1850	0	34.5460	0	27.603	0	1704.591	0	41.2	4	12.5	4	-1E+10	1	-1E+10	1	-1E+10	1	-1E+10	1	-1E+10	1	-1E+10	1
4901784	35	C	06/19/2016	10:46	-132.364	44.722	0	1730.30	0	2.1780	0	34.5470	0	27.604	0	1709.215	0	41.5	4	12.6	4	-1E+10	1	-1E+10	1	-1E+10	1	-1E+10	1	-1E+10	1	-1E+10	1
4901784	35	C	06/19/2016	10:46	-132.364	44.722	0	1735.20	0	2.1730	0	34.5470	0	27.604	0	1714.035	0	41.7	4	12.6	4	-1E+10	1	-1E+10	1	-1E+10	1	-1E+10	1	-1E+10	1	-1E+10	1
4901784	35	C	06/19/2016	10:46	-132.364	44.722	0	1740.10	0	2.1680	0	34.5480	0	27.606	0	1718.856	0	42.0	4	12.7	4	-1E+10	1	-1E+10	1	-1E+10	1	-1E+10	1	-1E+10	1	-1E+10	1
4901784	35	C	06/19/2016	10:46	-132.364	44.722	0	1745.00	0	2.1650	0	34.5490	0	27.607	0	1723.676	0	42.3	4	12.8	4	-1E+10	1	-1E+10	1	-1E+10	1	-1E+10	1	-1E+10	1	-1E+10	1
4901784	35	C	06/19/2016	10:46	-132.364	44.722	0	1750.00	0	2.1610	0	34.5500	0	27.608	0	1728.595	0	42.5	4	12.9	4	-1E+10	1	-1E+10	1	-1E+10	1	-1E+10	1	-1E+10	1	-1E+10	1
4901784	35	C	06/19/2016	10:46	-132.364	44.722	0	1754.90	0	2.1580	0	34.5500	0	27.608	0	1733.415	0	42.7	4	12.9	4	-1E+10	1	-1E+10	1	-1E+10	1	-1E+10	1	-1E+10	1	-1E+10	1
4901784	35	C	06/19/2016	10:46	-132.364	44.722	0	1759.90	0	2.1530	0	34.5500	0	27.608	0	1738.333	0	43.0	4	13.0	4	-1E+10	1	-1E+10	1	-1E+10	1	-1E+10	1	-1E+10	1	-1E+10	1
4901784	35	C	06/19/2016	10:46	-132.364	44.722	0	1764.90	0	2.1490	0	34.5510	0	27.610	0	1743.251	0	43.4	4	13.1	4	-1E+10	1	-1E+10	1	-1E+10	1	-1E+10	1	-1E+10	1	-1E+10	1
4901784	35	C	06/19/2016	10:46	-132.364	44.722	0	1769.90	0	2.1410	0	34.5520	0	27.611	0	1748.169	0	43.8	4	13.3	4	-1E+10	1	-1E+10	1	-1E+10	1	-1E+10	1	-1E+10	1	-1E+10	1
4901784	35	C	06/19/2016	10:46	-132.364	44.722	0	1775.00	0	2.1350	0	34.5530	0	27.612	0	1753.186	0	44.2	4	13.4	4	-1E+10	1	-1E+10	1	-1E+10	1	-1E+10	1	-1E+10	1	-1E+10	1
4901784	35	C	06/19/2016	10:46	-132.364	44.722	0	1780.10	0	2.1300	0	34.5540	0	27.614	0	1758.202	0	44.5	4	13.4	4	-1E+10	1	-1E+10	1	-1E+10	1	-1E+10	1	-1E+10	1	-1E+10	1
4901784	35	C	06/19/2016	10:46	-132.364	44.722	0	1785.20	0	2.1270	0	34.5550	0	27.615	0	1763.218	0	44.7	4	13.5	4	-1E+10	1	-1E+10	1	-1E+10	1	-1E+10	1	-1E+10	1	-1E+10	1
4901784	35	C	06/19/2016	10:46	-132.364	44.722	0	1790.30	0	2.1250	0	34.5560	0	27.616	0	1768.234	0	45.2	4	13.7	4	-1E+10	1	-1E+10	1	-1E+10	1	-1E+10	1	-1E+10	1	-1E+10	1
4901784	35	C	06/19/2016	10:46	-132.364	44.722	0	1795.40	0	2.1200	0	34.5570	0	27.617	0	1773.250	0	45.6	4	13.8	4	-1E+10	1	-1E+10	1	-1E+10	1	-1E+10	1	-1E+10	1	-1E+10	1
4901784	35	C	06/19/2016	10:46	-132.364	44.722	0	1800.60	0	2.1110	0	34.5570	0	27.618	0	1778.364	0	45.9	4	13.9	4	-1E+10	1	-1E+10	1	-1E+10	1	-1E+10	1	-1E+10	1	-1E+10	1
4901784	35	C	06/19/2016	10:46	-132.364	44.722	0	1805.70	0	2.1060	0	34.5590	0	27.620	0	1783.379	0	46.3	4	14.0	4	-1E+10	1	-1E+10	1	-1E+10	1	-1E+10	1	-1E+10	1	-1E+10	1
4901784	35	C	06/19/2016	10:46	-132.364	44.722	0	1810.00	0	2.1020	0	34.5590	0	27.620	0	1787.608	0	46.5	4	14.0	4	-1E+10	1	-1E+10	1	-1E+10	1	-1E+10	1	-1E+10	1	-1E+10	1
4901784	35	C	06/19/2016	10:46	-132.364	44.722	0	1814.40	0	2.0970	0	34.5600	0	27.621	0	1791.935	0	46.7	4	14.1	4	-1E+10	1	-1E+10	1	-1E+10	1	-1E+10	1	-1E+10	1	-1E+10	1
4901784	35	C	06/19/2016	10:46	-132.364	44.722	0	1819.50	0	2.0910	0	34.5600	0	27.622	0	1796.951	0	47.0	4	14.2	4	-1E+10	1	-1E+10	1	-1E+10	1	-1E+10	1	-1E+10	1	-1E+10	1
4901784	35	C	06/19/2016	10:46	-132.364	44.722	0	1824.70	0	2.0860	0	34.5610	0	27.623	0	1802.064	0	47.4	4	14.3	4	-1E+10	1	-1E+10	1	-1E+10	1	-1E+10	1	-1E+10	1	-1E+10	1
4901784	35	C	06/19/2016	10:46	-132.364	44.722	0	1829.80	0	2.0790	0	34.5620	0	27.624	0	1807.079	0	47.8	4	14.5	4	-1E+10	1	-1E+10	1	-1E+10	1	-1E+10	1	-1E+10	1	-1E+10	1
4901784	35	C	06/19/2016	10:46	-132.364	44.722	0	1835.00	0	2.0720	0	34.5630	0	27.626	0	1812.192	0	48.1	4	14.5	4	-1E+10	1	-1E+10	1	-1E+10	1	-1E+10	1	-1E+10	1	-1E+10	1
4901784	35	C	06/19/2016	10:46	-132.364	44.722	0	1840.30	0	2.0700	0	34.5630	0	27.626	0	1817.404	0	48.3	4	14.6	4	-1E+10	1	-1E+10	1	-1E+10	1	-1E+10	1	-1E+10	1	-1E+10	1
4901784	35	C	06/19/2016	10:46	-132.364	44.722	0	1845.60	0	2.0630	0	34.5640	0	27.627	0	1822.615	0	48.6	4	14.7	4	-1E+10	1	-1E+10	1	-1E+10	1	-1E+10	1	-1E+10	1	-1E+10	1
4901784	35	C	06/19/2016	10:46	-132.364	44.722	0	1850.00	0	2.0610	0	34.5650	0	27.628	0	1826.942	0	48.8	4	14.7	4	-1E+10	1	-1E+10	1	-1E+10	1	-1E+10	1	-1E+10	1	-1E+10	1
4901784	35	C	06/19/2016	10:46	-132.364	44.722	0	1854.40	0	2.0580	0	34.5650	0	27.628	0	1831.268	0	49.0	4	14.8	4	-1E+10	1	-1E+10	1	-1E+10	1	-1E+10	1	-1E+10	1	-1E+10	1
4901784	35	C	06/19/2016	10:46	-132.364	44.722	0	1859.80	0	2.0540	0	34.5660	0	27.630	0	1836.577	0	49.3	4	14.9	4	-1E+10	1	-1E+10	1	-1E+10	1	-1E+10	1	-1E+10	1	-1E+10	1
4901784	35	C	06/19/2016	10:46	-132.364	44.722	0	1865.10	0	2.0490	0	34.5670	0	27.631	0	1841.788	0	49.6	4	15.0	4	-1E+10	1	-1E+10	1	-1E+10	1	-1E+10	1	-1E+10	1	-1E+10	1
4901784	35	C	06/19/2016	10:46	-132.364	44.722	0	1870.50	0	2.0460	0	34.5670	0	27.631	0	1847.097	0	49.9	4	15.1	4	-1E+10	1	-1E+10	1	-1E+10	1	-1E+10	1	-1E+10	1	-1E+10	1
4901784	35	C	06/19/2016	10:46	-132.364	44.722	0	1875.00	0	2.0430	0	34.5680	0	27.632	0	1851.521	0	50.2	4	15.2	4	-1E+10	1	-1E+10	1	-1E+10	1	-1E+10	1	-1E+10	1	-1E+10	1
4901784	35	C	06/19/2016	10:46	-132.364	44.722	0	1879.60	0	2.0380	0	34.5690	0	27.633	0	1856.043	0	50.6	4	15.3	4	-1E+10	1	-1E+10	1	-1E+10	1	-1E+10	1	-1E+10	1	-1E+10	1
4901784	35	C	06/19/2016	10:46	-132.364	44.722	0	1885.10	0	2.0330	0	34.5690	0	27.634	0	1861.450	0	50.9	4	15.3	4	-1E+10	1	-1E+10	1	-1E+10	1	-1E+10	1	-1E+10	1	-1E+10	1
4901784	35	C	06/19/2016	10:46	-132.364	44.722	0	1890.20	0	2.0300	0	34.5700	0	27.635	0	1866.464	0	51.1	4	15.4	4	-1E+10	1	-1E+10	1	-1E+10	1	-1E+10	1	-1E+10	1	-1E+10	1
4901784	35	C	06/19/2016	10:46	-132.364	44.722	0	1894.40	0	2.0270	0	34.5700	0	27.635	0	1870.593	0	51.4	4	15.5	4	-1E+10	1	-1E+10	1	-1E+10	1	-1E+10	1	-1E+10	1	-1E+10	1
4901784	35	C	06/19/2016	10:46	-132.364	44.722	0	1900.10	0	2.0210	0	34.5710	0	27.636	0	1876.196	0	51.8	4	15.6	4	-1E+10	1	-1E+10	1	-1E+10	1	-1E+10	1	-1E+10	1	-1E+10	1
4901784	35	C	06/19/2016	10:46	-132.364	44.722	0	1905.70	0	2.0180	0	34.5720	0	27.637	0	1881.701	0	52.0	4	15.7	4	-1E+10	1	-1E+10	1	-1E+10	1	-1E+10	1	-1E+10	1	-1E+10	1
4901784	35	C	06/19/2016	10:46	-132.364	44.722	0	1910.60	0	2.0160	0	34.5720	0	27.638	0	1886.518	0	52.2	4	15.8	4	-1E+10	1	-1E+10	1	-1E+10	1	-1E+10	1	-1E+10	1	-1E+10	1
4901784	35	C	06/19/2016	10:46	-132.364	44.722	0	1915.40	0	2.0110	0	34.5730	0	27.639	0	1891.236	0	52.5	4	15.8	4	-1E+10	1	-1E+10	1	-1E+10	1	-1E+10	1	-1E+10	1	-1E+10	1
4901784	35	C	06/19/2016	10:46	-132.364	44.722	0	1920.20	0	2.0070	0	34.5740	0	27.640	0	1895.954	0	52.8	4	15.9	4	-1E+10	1	-1E+10	1	-1E+10	1	-1E+10	1	-1E+10	1	-1E+10	1
4901784	35	C	06/19/2016	10:46	-132.364	44.722	0	1925.10	0	2.0060	0	34.5740	0	27.640	0	1900.770	0	53.0	4	16.0	4	-1E+10	1	-1E+10	1	-1E+10	1	-1E+10	1	-1E+10	1	-1E+10	1
4901784	35	C	06/19/2016	10:46	-132.364	44.722	0	1930.00	0	2.0010	0	34.5750	0	27.641	0	1905.586	0	53.3	4	16.1	4	-1E+10	1	-1E+10	1	-1E+10	1	-1E+10	1	-1E+10	1	-1E+10	1
4901784	35	C	06/19/2016	10:46	-132.364	44.722	0	1934.90	0	1.9970	0	34.5760	0	27.642	0	1910.402	0	53.6	4	16.2	4	-1E+10	1	-1E+10	1	-1E+10	1	-1E+10	1	-1E+10	1	-1E+10	1
4901784	35	C	06/19/2016	10:46	-132.364	44.722	0	1939.90	0	1.9940	0	34.5760	0	27.643	0	1915.317	0	53.8	4	16.2	4	-1E+10	1	-1E+10	1	-1E+10	1	-1E+10	1	-1E+10	1	-1E+10	1
4901784	35	C	06/19/2016	10:46	-132.364	44.722	0	1944.90	0	1.9920	0	34.5760	0	27.643	0	1920.231	0	54.0	4	16.3	4	-1E+10	1	-1E+10	1	-1E+10	1	-1E+10	1	-1E+10	1	-1E+10	1
4901784	35	C	06/19/2016	10:46	-132.364	44.722	0	1949.90	0	1.9890	0	34.5770	0	27.644	0	1925.145	0	54.3	4	16.4	4	-1E+10	1	-1E+10	1	-1E+10	1	-1E+10	1	-1E+10	1	-1E+10	1
4901784	35	C	06/19/2016	10:46	-132.364	44.722	0	1954.90	0	1.9840	0	34.5780	0	27.645	0	1930.059	0	54.6	4	16.4	4	-1E+10	1	-1E+10	1	-1E+10	1	-1E+10	1	-1E+10	1	-1E+10	1
4901784	35	C	06/19/2016	10:46	-132.364	44.722	0	1959.90	0	1.9820	0	34.5780	0	27.645	0	1934.972	0	54.8	4	16.5	4	-1E+10	1	-1E+10	1	-1E+10	1	-1E+10	1	-1E+10	1	-1E+10	1
4901784	35	C	06/19/2016	10:46	-132.364	44.722	0	1965.00	0	1.9780	0	34.5790	0	27.647	0	1939.984	0	55.1	4	16.6	4	-1E+10	1	-1E+10	1	-1E+10	1	-1E+10	1	-1E+10	1	-1E+10	1
4901784	35	C	06/19/2016	10:46	-132.364	44.722	0	1970.10	0	1.9750	0	34.5790	0	27.647	0	1944.996	0	55.5	4	16.7	4	-1E+10	1	-1E+10	1	-1E+10	1	-1E+10	1	-1E+10	1	-1E+10	1
4901784	35	C	06/19/2016	10:46	-132.364	44.722	0	1975.20	0	1.9680	0	34.5800	0	27.648	0	1950.008	0	56.0	4	16.9	4	-1E+10	1	-1E+10	1	-1E+10	1	-1E+10	1	-1E+10	1	-1E+10	1
4901784	35	C	06/19/2016	10:46	-132.364	44.722	0	1980.40	0	1.9640	0	34.5810	0	27.649	0	1955.118	0	56.3	4	17.0	4	-1E+10	1	-1E+10	1	-1E+10	1	-1E+10	1	-1E+10	1	-1E+10	1
4901784	35	C	06/19/2016	10:46	-132.364	44.722	0	1985.50	0	1.9600	0	34.5820	0	27.650	0	1960.129	0	56.6	4	17.1	4	-1E+10	1	-1E+10	1	-1E+10	1	-1E+10	1	-1E+10	1	-1E+10	1
4901784	35	C	06/19/2016	10:46	-132.364	44.722	0	1990.70	0	1.9570	0	34.5820	0	27.651	0	1965.239	0	56.9	4	17.1	4	-1E+10	1	-1E+10	1	-1E+10	1	-1E+10	1	-1E+10	1	-1E+10	1
4901784	35	C	06/19/2016	10:46	-132.364	44.722	0	1995.70	0	1.9550	0	34.5830	0	27.652	0	1970.151	0	57.1	4	17.2	4	-1E+10	1	-1E+10	1	-1E+10	1	-1E+10	1	-1E+10	1	-1E+10	1
4901784	35	C	06/19/2016	10:46	-132.364	44.722	0	2000.00	0	1.9530	0	34.5830	0	27.652	0	1974.377	0	57.3	4	17.3	4	-1E+10	1	-1E+10	1	-1E+10	1	-1E+10	1	-1E+10	1	-1E+10	1
4901784	35	C	06/19/2016	10:46	-132.364	44.722	0	2004.40	0	1.9490	0	34.5840	0	27.653	0	1978.700	0	57.7	4	17.4	4	-1E+10	1	-1E+10	1	-1E+10	1	-1E+10	1	-1E+10	1	-1E+10	1
4901784	35	C	06/19/2016	10:46	-132.364	44.722	0	2010.10	0	1.9430	0	34.5850	0	27.654	0	1984.300	0	58.1	4	17.5	4	-1E+10	1	-1E+10	1	-1E+10	1	-1E+10	1	-1E+10	1	-1E+10	1
4901784	35	C	06/19/2016	10:46	-132.364	44.722	0	2014.80	0	1.9400	0	34.5850	0	27.655	0	1988.918	0	58.3	4	17.5	4	-1E+10	1	-1E+10	1	-1E+10	1	-1E+10	1	-1E+10	1	-1E+10	1
4901784	35	C	06/19/2016	10:46	-132.364	44.722	0	2020.30	0	1.9380	0	34.5860	0	27.656	0	1994.322	0	58.5	4	17.6	4	-1E+10	1	-1E+10	1	-1E+10	1	-1E+10	1	-1E+10	1	-1E+10	1
4901784	35	C	06/19/2016	10:46	-132.364	44.722	0																										
4901784	36	C	06/29/2016	10:34	-132.355	44.783	0	1.90	0	15.2780	0	32.6370	0	24.091	0	1.885	0	252.3	4	100.7	4	-1E+10	1	-1E+10	1	-1E+10	1	-1E+10	1	-1E+10	1	-1E+10	1
4901784	36	C	06/29/2016	10:34	-132.355	44.783	0	3.40	0	15.2770	0	32.6310	0	24.087	0	3.372	0	252.4	4	100.8	4	-1E+10	1	-1E+10	1	-1E+10	1	-1E+10	1	-1E+10	1	-1E+10	1
4901784	36	C	06/29/2016	10:34	-132.355	44.783	0	5.00	0	15.2360	0	32.6200	0	24.088	0	4.959	0	252.4	4	100.7	4	-1E+10	1	-1E+10	1	-1E+10	1	-1E+10	1	-1E+10	1	-1E+10	1
4901784	36	C	06/29/2016	10:34	-132.355	44.783	0	6.80	0	14.4880	0	32.6290	0	24.255	0	6.745	0	255.3	4	100.3	4	-1E+10	1	-1E+10	1	-1E+10	1	-1E+10	1	-1E+10	1	-1E+10	1
4901784	36	C	06/29/2016	10:34	-132.355	44.783	0	8.60	0	14.3300	0	32.6260	0	24.286	0	8.530	0	256.6	4	100.5	4	-1E+10	1	-1E+10	1	-1E+10	1	-1E+10	1	-1E+10	1	-1E+10	1
4901784	36	C	06/29/2016	10:34	-132.355	44.783	0	10.30	0	14.2850	0	32.6220	0	24.292	0	10.216	0	256.9	4	100.5	4	-1E+10	1	-1E+10	1	-1E+10	1	-1E+10	1	-1E+10	1	-1E+10	1
4901784	36	C	06/29/2016	10:34	-132.355	44.783	0	12.30	0	14.2300	0	32.6180	0	24.300	0	12.200	0	257.1	4	100.5	4	-1E+10	1	-1E+10	1	-1E+10	1	-1E+10	1	-1E+10	1	-1E+10	1
4901784	36	C	06/29/2016	10:34	-132.355	44.783	0	12.80	0	14.2160	0	32.6160	0	24.302	0	12.696	0	257.7	4	100.7	4	-1E+10	1	-1E+10	1	-1E+10	1	-1E+10	1	-1E+10	1	-1E+10	1
4901784	36	C	06/29/2016	10:34	-132.355	44.783	0	14.20	0	14.1910	0	32.6130	0	24.305	0	14.085	0	258.2	4	100.9	4	-1E+10	1	-1E+10	1	-1E+10	1	-1E+10	1	-1E+10	1	-1E+10	1
4901784	36	C	06/29/2016	10:34	-132.355	44.783	0	15.70	0	14.0990	0	32.6090	0	24.321	0	15.572	0	259.9	4	101.3	4	-1E+10	1	-1E+10	1	-1E+10	1	-1E+10	1	-1E+10	1	-1E+10	1
4901784	36	C	06/29/2016	10:34	-132.355	44.783	0	17.10	0	14.0180	0	32.6050	0	24.334	0	16.961	0	261.7	4	101.9	4	-1E+10	1	-1E+10	1	-1E+10	1	-1E+10	1	-1E+10	1	-1E+10	1
4901784	36	C	06/29/2016	10:34	-132.355	44.783	0	18.40	0	13.7420	0	32.5990	0	24.386	0	18.250	0	264.4	4	102.3	4	-1E+10	1	-1E+10	1	-1E+10	1	-1E+10	1	-1E+10	1	-1E+10	1
4901784	36	C	06/29/2016	10:34	-132.355	44.783	0	19.80	0	13.2210	0	32.6000	0	24.492	0	19.639	0	267.7	4	102.5	4	-1E+10	1	-1E+10	1	-1E+10	1	-1E+10	1	-1E+10	1	-1E+10	1
4901784	36	C	06/29/2016	10:34	-132.355	44.783	0	21.40	0	12.7570	0	32.6060	0	24.587	0	21.226	0	270.7	4	102.7	4	-1E+10	1	-1E+10	1	-1E+10	1	-1E+10	1	-1E+10	1	-1E+10	1
4901784	36	C	06/29/2016	10:34	-132.355	44.783	0	23.00	0	12.0990	0	32.6170	0	24.721	0	22.812	0	273.9	4	102.5	4	-1E+10	1	-1E+10	1	-1E+10	1	-1E+10	1	-1E+10	1	-1E+10	1
4901784	36	C	06/29/2016	10:34	-132.355	44.783	0	24.70	0	11.5690	0	32.6450	0	24.841	0	24.499	0	274.2	4	101.5	4	-1E+10	1	-1E+10	1	-1E+10	1	-1E+10	1	-1E+10	1	-1E+10	1
4901784	36	C	06/29/2016	10:34	-132.355	44.783	0	26.40	0	11.3590	0	32.6380	0	24.874	0	26.185	0	272.6	4	100.5	4	-1E+10	1	-1E+10	1	-1E+10	1	-1E+10	1	-1E+10	1	-1E+10	1
4901784	36	C	06/29/2016	10:34	-132.355	44.783	0	28.10	0	11.2880	0	32.6620	0	24.905	0	27.871	0	270.3	4	99.5	4	-1E+10	1	-1E+10	1	-1E+10	1	-1E+10	1	-1E+10	1	-1E+10	1
4901784	36	C	06/29/2016	10:34	-132.355	44.783	0	29.80	0	11.1870	0	32.6810	0	24.938	0	29.557	0	268.5	4	98.6	4	-1E+10	1	-1E+10	1	-1E+10	1	-1E+10	1	-1E+10	1	-1E+10	1
4901784	36	C	06/29/2016	10:34	-132.355	44.783	0	32.10	0	11.1200	0	32.7030	0	24.967	0	31.838	0	265.6	4	97.4	4	-1E+10	1	-1E+10	1	-1E+10	1	-1E+10	1	-1E+10	1	-1E+10	1
4901784	36	C	06/29/2016	10:34	-132.355	44.783	0	34.00	0	11.2450	0	32.7750	0	25.001	0	33.722	0	263.1	4	96.8	4	-1E+10	1	-1E+10	1	-1E+10	1	-1E+10	1	-1E+10	1	-1E+10	1
4901784	36	C	06/29/2016	10:34	-132.355	44.783	0	35.50	0	11.3170	0	32.8030	0	25.010	0	35.210	0	260.6	4	96.1	4	-1E+10	1	-1E+10	1	-1E+10	1	-1E+10	1	-1E+10	1	-1E+10	1
4901784	36	C	06/29/2016	10:34	-132.355	44.783	0	37.00	0	11.2970	0	32.8010	0	25.012	0	36.697	0	259.2	4	95.5	4	-1E+10	1	-1E+10	1	-1E+10	1	-1E+10	1	-1E+10	1	-1E+10	1
4901784	36	C	06/29/2016	10:34	-132.355	44.783	0	38.60	0	11.3080	0	32.8730	0	25.066	0	38.284	0	256.6	4	94.6	4	-1E+10	1	-1E+10	1	-1E+10	1	-1E+10	1	-1E+10	1	-1E+10	1
4901784	36	C	06/29/2016	10:34	-132.355	44.783	0	40.10	0	11.1280	0	32.8750	0	25.100	0	39.771	0	256.5	4	94.2	4	-1E+10	1	-1E+10	1	-1E+10	1	-1E+10	1	-1E+10	1	-1E+10	1
4901784	36	C	06/29/2016	10:34	-132.355	44.783	0	41.60	0	11.0010	0	32.8780	0	25.125	0	41.259	0	255.6	4	93.7	4	-1E+10	1	-1E+10	1	-1E+10	1	-1E+10	1	-1E+10	1	-1E+10	1
4901784	36	C	06/29/2016	10:34	-132.355	44.783	0	43.20	0	10.8550	0	32.8660	0	25.141	0	42.846	0	255.6	4	93.3	4	-1E+10	1	-1E+10	1	-1E+10	1	-1E+10	1	-1E+10	1	-1E+10	1
4901784	36	C	06/29/2016	10:34	-132.355	44.783	0	44.70	0	10.6590	0	32.8650	0	25.174	0	44.333	0	255.5	4	92.9	4	-1E+10	1	-1E+10	1	-1E+10	1	-1E+10	1	-1E+10	1	-1E+10	1
4901784	36	C	06/29/2016	10:34	-132.355	44.783	0	46.40	0	10.5350	0	32.8610	0	25.193	0	46.019	0	255.9	4	92.8	4	-1E+10	1	-1E+10	1	-1E+10	1	-1E+10	1	-1E+10	1	-1E+10	1
4901784	36	C	06/29/2016	10:34	-132.355	44.783	0	47.90	0	10.4700	0	32.8600	0	25.203	0	47.507	0	256.3	4	92.8	4	-1E+10	1	-1E+10	1	-1E+10	1	-1E+10	1	-1E+10	1	-1E+10	1
4901784	36	C	06/29/2016	10:34	-132.355	44.783	0	49.60	0	10.4120	0	32.8600	0	25.213	0	49.192	0	256.2	4	92.7	4	-1E+10	1	-1E+10	1	-1E+10	1	-1E+10	1	-1E+10	1	-1E+10	1
4901784	36	C	06/29/2016	10:34	-132.355	44.783	0	51.30	0	10.3450	0	32.8590	0	25.224	0	50.878	0	256.5	4	92.7	4	-1E+10	1	-1E+10	1	-1E+10	1	-1E+10	1	-1E+10	1	-1E+10	1
4901784	36	C	06/29/2016	10:34	-132.355	44.783	0	53.00	0	10.2920	0	32.8620	0	25.235	0	52.564	0	256.3	4	92.5	4	-1E+10	1	-1E+10	1	-1E+10	1	-1E+10	1	-1E+10	1	-1E+10	1
4901784	36	C	06/29/2016	10:34	-132.355	44.783	0	54.60	0	10.2240	0	32.8490	0	25.237	0	54.151	0	256.8	4	92.5	4	-1E+10	1	-1E+10	1	-1E+10	1	-1E+10	1	-1E+10	1	-1E+10	1
4901784	36	C	06/29/2016	10:34	-132.355	44.783	0	56.30	0	10.1700	0	32.8470	0	25.244	0	55.836	0	256.6	4	92.4	4	-1E+10	1	-1E+10	1	-1E+10	1	-1E+10	1	-1E+10	1	-1E+10	1
4901784	36	C	06/29/2016	10:34	-132.355	44.783	0	57.90	0	10.0770	0	32.8320	0	25.248	0	57.423	0	256.9	4	92.3	4	-1E+10	1	-1E+10	1	-1E+10	1	-1E+10	1	-1E+10	1	-1E+10	1
4901784	36	C	06/29/2016	10:34	-132.355	44.783	0	59.60	0	10.1230	0	32.8620	0	25.264	0	59.109	0	256.4	4	92.2	4	-1E+10	1	-1E+10	1	-1E+10	1	-1E+10	1	-1E+10	1	-1E+10	1
4901784	36	C	06/29/2016	10:34	-132.355	44.783	0	61.20	0	10.0390	0	32.8610	0	25.277	0	60.695	0	256.3	4	92.0	4	-1E+10	1	-1E+10	1	-1E+10	1	-1E+10	1	-1E+10	1	-1E+10	1
4901784	36	C	06/29/2016	10:34	-132.355	44.783	0	62.90	0	9.9610	0	32.8590	0	25.289	0	62.381	0	256.4	4	91.9	4	-1E+10	1	-1E+10	1	-1E+10	1	-1E+10	1	-1E+10	1	-1E+10	1
4901784	36	C	06/29/2016	10:34	-132.355	44.783	0	64.40	0	9.9400	0	32.8510	0	25.286	0	63.869	0	256.8	4	92.0	4	-1E+10	1	-1E+10	1	-1E+10	1	-1E+10	1	-1E+10	1	-1E+10	1
4901784	36	C	06/29/2016	10:34	-132.355	44.783	0	66.20	0	9.9560	0	32.8660	0	25.295	0	65.653	0	256.3	4	91.8	4	-1E+10	1	-1E+10	1	-1E+10	1	-1E+10	1	-1E+10	1	-1E+10	1
4901784	36	C	06/29/2016	10:34	-132.355	44.783	0	67.80	0	9.9510	0	32.8680	0	25.297	0	67.240	0	256.0	4	91.7	4	-1E+10	1	-1E+10	1	-1E+10	1	-1E+10	1	-1E+10	1	-1E+10	1
4901784	36	C	06/29/2016	10:34	-132.355	44.783	0	69.50	0	9.9820	0	32.8770	0	25.299	0	68.926	0	255.5	4	91.6	4	-1E+10	1	-1E+10	1	-1E+10	1	-1E+10	1	-1E+10	1	-1E+10	1
4901784	36	C	06/29/2016	10:34	-132.355	44.783	0	71.10	0	9.9270	0	32.8790	0	25.310	0	70.512	0	255.2	4	91.4	4	-1E+10	1	-1E+10	1	-1E+10	1	-1E+10	1	-1E+10	1	-1E+10	1
4901784	36	C	06/29/2016	10:34	-132.355	44.783	0	72.80	0	9.8770	0	32.8710	0	25.312	0	72.198	0	255.3	4	91.3	4	-1E+10	1	-1E+10	1	-1E+10	1	-1E+10	1	-1E+10	1	-1E+10	1
4901784	36	C	06/29/2016	10:34	-132.355	44.783	0	74.50	0	9.9530	0	32.8970	0	25.320	0	73.883	0	254.1	4	91.1	4	-1E+10	1	-1E+10	1	-1E+10	1	-1E+10	1	-1E+10	1	-1E+10	1
4901784	36	C	06/29/2016	10:34	-132.355	44.783	0	76.30	0	9.8870	0	32.8990	0	25.332	0	75.668	0	253.9	4	90.8	4	-1E+10	1	-1E+10	1	-1E+10	1	-1E+10	1	-1E+10	1	-1E+10	1
4901784	36	C	06/29/2016	10:34	-132.355	44.783	0	78.10	0	9.7660	0	32.8910	0	25.346	0	77.453	0	254.5	4	90.8	4	-1E+10	1	-1E+10	1	-1E+10	1	-1E+10	1	-1E+10	1	-1E+10	1
4901784	36	C	06/29/2016	10:34	-132.355	44.783	0	79.80	0	9.8130	0	32.9100	0	25.353	0	79.139	0	253.7	4	90.6	4	-1E+10	1	-1E+10	1	-1E+10	1	-1E+10	1	-1E+10	1	-1E+10	1
4901784	36	C	06/29/2016	10:34	-132.355	44.783	0	81.50	0	9.8140	0	32.9140	0	25.356	0	80.824	0	252.3	4	90.1	4	-1E+10	1	-1E+10	1	-1E+10	1	-1E+10	1	-1E+10	1	-1E+10	1
4901784	36	C	06/29/2016	10:34	-132.355	44.783	0	83.30	0	9.8230	0	32.9200	0	25.359	0	82.609	0	251.4	4	89.8	4	-1E+10	1	-1E+10	1	-1E+10	1	-1E+10	1	-1E+10	1	-1E+10	1
4901784	36	C	06/29/2016	10:34	-132.355	44.783	0	85.00	0	9.7990	0	32.9170	0	25.361	0	84.294	0	250.0	4	89.3	4	-1E+10	1	-1E+10	1	-1E+10	1	-1E+10	1	-1E+10	1	-1E+10	1
4901784	36	C	06/29/2016	10:34	-132.355	44.783	0	86.80	0	9.7350	0	32.9240	0	25.377	0	86.079	0	248.4	4	88.6	4	-1E+10	1	-1E+10	1	-1E+10	1	-1E+10	1	-1E+10	1	-1E+10	1
4901784	36	C	06/29/2016	10:34	-132.355	44.783	0	88.60	0	9.6430	0	32.9230	0	25.391	0	87.864	0	246.8	4	87.9	4	-1E+10	1	-1E+10	1	-1E+10	1	-1E+10	1	-1E+10	1	-1E+10	1
4901784	36	C	06/29/2016	10:34	-132.355	44.783	0	90.30	0	9.6490	0	32.9350	0	25.400	0	89.549	0	244.4	4	87.0	4	-1E+10	1	-1E+10	1	-1E+10	1	-1E+10	1	-1E+10	1	-1E+10	1
4901784	36	C	06/29/2016	10:34	-132.355	44.783	0	92.10	0	9.5260	0	32.9440	0	25.427	0	91.334	0	241.8	4	85.9	4	-1E+10	1	-1E+10	1	-1E+10	1	-1E+10	1	-1E+10	1	-1E+10	1
4901784	36	C	06/29/2016	10:34	-132.355	44.783	0	93.90	0	9.4340	0	32.9550	0	25.450	0	93.118	0	239.0	4	84.7	4	-1E+10	1	-1E+10	1	-1E+10	1	-1E+10	1	-1E+10	1	-1E+10	1
4901784	36	C	06/29/2016	10:34	-132.355	44.783	0	95.70	0	9.3770	0	32.9670	0	25.469	0	94.903	0	236.4	4	83.7	4	-1E+10	1	-1E+10	1	-1E+10	1	-1E+10	1	-1E+10	1	-1E+10	1
4901784	36	C	06/29/2016	10:34	-132.355	44.783	0	97.50	0	9.3150	0	32.9750	0	25.485	0	96.688	0	233.0	4	82.4	4	-1E+10	1	-1E+10	1	-1E+10	1	-1E+10	1	-1E+10	1	-1E+10	1
4901784	36	C	06/29/2016	10:34	-132.355	44.783	0	99.30	0	9.2340	0	33.0270	0	25.539	0	98.472	0	228.9	4	80.8	4	-1E+10	1	-1E+10	1	-1E+10	1	-1E+10	1	-1E+10	1	-1E+10	1
4901784	36	C	06/29/2016	10:34	-132.355	44.783	0	103.40	0	9.1910	0	33.1060	0	25.607	0	102.537	0	219.8	4	77.6	4	-1E+10	1	-1E+10	1	-1E+10	1	-1E+10	1	-1E+10	1	-1E+10	1
4901784	36	C	06/29/2016	10:34	-132.355	44.783	0	105.20	0	9.0800	0	33.2160	0	25.711	0	104.322	0	215.3	4	75.9	4	-1E+10	1	-1E+10	1	-1E+10	1	-1E+10	1	-1E+10	1	-1E+10	1
4901784	36	C	06/29/2016	10:34	-132.355	44.783	0	107.60	0	9.0310	0	33.2970	0	25.782	0	106.701	0	211.9	4	74.6	4	-1E+10	1	-1E+10	1	-1E+10	1	-1E+10	1	-1E+10	1	-1E+10	1
4901784	36	C	06/29/2016	10:34	-132.355	44.783	0	110.00	0	9.0180	0	33.3200	0	25.802	0	109.080	0	208.3	4	73.4	4	-1E+10	1	-1E+10	1	-1E+10	1	-1E+10	1	-1E+10	1	-1E+10	1
4901784	36	C	06/29/2016	10:34	-132.355	44.783	0	112.30	0	8.9690	0	33.3910	0	25.865	0	111.360	0	204.5	4	72.0	4	-1E+10	1	-1E+10	1	-1E+10	1	-1E+10	1	-1E+10	1	-1E+10	1
4901784	36	C	06/29/2016	10:34	-132.355	44.783	0	115.40	0	8.9620	0	33.4690	0	25.928	0	114.434	0	200.1	4	70.4	4	-1E+10	1	-1E+10	1	-1E+10	1	-1E+10	1	-1E+10	1	-1E+10	1
4901784	36	C	06/29/2016	10:34	-132.355	44.783	0	117.60	0	8.8830	0	33.5500	0	26.003	0	116.615	0	196.8	4	69.2	4	-1E+10	1	-1E+10	1	-1E+10	1	-1E+10	1	-1E+10	1	-1E+10	1
4901784	36	C	06/29/2016	10:34	-132.355	44.783	0	120.00	0	8.8060	0	33.5970	0	26.052	0	118.994	0	196.0	4	68.8	4	-1E+10	1	-1E+10	1	-1E+10	1	-1E+10	1	-1E+10	1	-1E+10	1
4901784	36	C	06/29/2016	10:34	-132.355	44.783	0	122.30	0	8.7760	0	33.6090	0	26.066	0	121.274	0	195.1	4	68.5	4	-1E+10	1	-1E+10	1	-1E+10	1	-1E+10	1	-1E+10	1	-1E+10	1
4901784	36	C	06/29/2016	10:34	-132.355	44.783	0	124.70	0	8.7460	0	33.6220	0	26.081	0	123.653	0	194.1	4	68.1	4	-1E+10	1	-1E+10	1	-1E+10	1	-1E+10	1	-1E+10	1	-1E+10	1
4901784	36	C	06/29/2016	10:34	-132.355	44.783	0	127.20	0	8.7010	0	33.6440	0	26.105	0	126.131	0	193.1	4	67.7	4	-1E+10	1	-1E+10	1	-1E+10	1	-1E+10	1	-1E+10	1	-1E+10	1
4901784	36	C	06/29/2016	10:34	-132.355	44.783	0	129.80	0	8.6830	0	33.6510	0	26.114	0	128.708	0	192.1	4	67.3	4	-1E+10	1	-1E+10	1	-1E+10	1	-1E+10	1	-1E+10	1	-1E+10	1
4901784	36	C	06/29/2016	10:34	-132.355	44.783	0	132.40	0	8.6620	0	33.6590	0	26.123	0	131.286	0	190.9	4	66.9	4	-1E+10	1	-1E+10	1	-1E+10	1	-1E+10	1	-1E+10	1	-1E+10	1
4901784	36	C	06/29/2016	10:34	-132.355	44.783	0	134.90	0	8.6100	0	33.6760	0	26.145	0	133.764	0	189.5	4	66.3	4	-1E+10	1	-1E+10	1	-1E+10	1	-1E+10	1	-1E+10	1	-1E+10	1
4901784	36	C	06/29/2016	10:34	-132.355	44.783	0	137.40	0	8.5650	0	33.6930	0	26.165	0	136.242	0	188.2	4	65.8	4	-1E+10	1	-1E+10	1	-1E+10	1	-1E+10	1	-1E+10	1	-1E+10	1
4901784	36	C	06/29/2016	10:34	-132.355	44.783	0	140.10	0	8.5060	0	33.7180	0	26.194	0	138.918	0	186.8	4	65.2	4	-1E+10	1	-1E+10	1	-1E+10	1	-1E+10	1	-1E+10	1	-1E+10	1
4901784	36	C	06/29/2016	10:34	-132.355	44.783	0	143.20	0	8.4330	0	33.7400	0	26.222	0	141.991	0	185.4	4	64.7	4	-1E+10	1	-1E+10	1	-1E+10	1	-1E+10	1	-1E+10	1	-1E+10	1
4901784	36	C	06/29/2016	10:34	-132.355	44.783	0	144.90	0	8.4070	0	33.7510	0	26.235	0	143.676	0	184.5	4	64.3	4	-1E+10	1	-1E+10	1	-1E+10	1	-1E+10	1	-1E+10	1	-1E+10	1
4901784	36	C	06/29/2016	10:34	-132.355	44.783	0	147.00	0	8.3710	0	33.7580	0	26.246	0	145.758	0	183.3	4	63.8	4	-1E+10	1	-1E+10	1	-1E+10	1	-1E+10	1	-1E+10	1	-1E+10	1
4901784	36	C	06/29/2016	10:34	-132.355	44.783	0	149.90	0	8.3020	0	33.7650	0	26.261	0	148.632	0	181.3	4	63.1	4	-1E+10	1	-1E+10	1	-1E+10	1	-1E+10	1	-1E+10	1	-1E+10	1
4901784	36	C	06/29/2016	10:34	-132.355	44.783	0	152.80	0	8.2340	0	33.7730	0	26.278	0	151.507	0	179.6	4	62.4	4	-1E+10	1	-1E+10	1	-1E+10	1	-1E+10	1	-1E+10	1	-1E+10	1
4901784	36	C	06/29/2016	10:34	-132.355	44.783	0	155.10	0	8.1940	0	33.7800	0	26.290	0	153.786	0	178.1	4	61.8	4	-1E+10	1	-1E+10	1	-1E+10	1	-1E+10	1	-1E+10	1	-1E+10	1
4901784	36	C	06/29/2016	10:34	-132.355	44.783	0	157.40	0	8.1490	0	33.7880	0	26.303	0	156.066	0	176.3	4	61.1	4	-1E+10	1	-1E+10	1	-1E+10	1	-1E+10	1	-1E+10	1	-1E+10	1
4901784	36	C	06/29/2016	10:34	-132.355	44.783	0	159.70	0	8.0240	0	33.8110	0	26.339	0	158.346	0	174.9	4	60.5	4	-1E+10	1	-1E+10	1	-1E+10	1	-1E+10	1	-1E+10	1	-1E+10	1
4901784	36	C	06/29/2016	10:34	-132.355	44.783	0	162.10	0	8.0080	0	33.8120	0	26.342	0	160.724	0	173.7	4	60.0	4	-1E+10	1	-1E+10	1	-1E+10	1	-1E+10	1	-1E+10	1	-1E+10	1
4901784	36	C	06/29/2016	10:34	-132.355	44.783	0	165.30	0	7.8990	0	33.8310	0	26.373	0	163.896	0	172.3	4	59.4	4	-1E+10	1	-1E+10	1	-1E+10	1	-1E+10	1	-1E+10	1	-1E+10	1
4901784	36	C	06/29/2016	10:34	-132.355	44.783	0	167.60	0	7.8580	0	33.8380	0	26.385	0	166.175	0	171.8	4	59.2	4	-1E+10	1	-1E+10	1	-1E+10	1	-1E+10	1	-1E+10	1	-1E+10	1
4901784	36	C	06/29/2016	10:34	-132.355	44.783	0	170.10	0	7.8490	0	33.8450	0	26.392	0	168.653	0	171.5	4	59.1	4	-1E+10	1	-1E+10	1	-1E+10	1	-1E+10	1	-1E+10	1	-1E+10	1
4901784	36	C	06/29/2016	10:34	-132.355	44.783	0	172.60	0	7.8460	0	33.8460	0	26.393	0	171.131	0	170.7	4	58.8	4	-1E+10	1	-1E+10	1	-1E+10	1	-1E+10	1	-1E+10	1	-1E+10	1
4901784	36	C	06/29/2016	10:34	-132.355	44.783	0	175.20	0	7.7960	0	33.8680	0	26.417	0	173.708	0	169.9	4	58.5	4	-1E+10	1	-1E+10	1	-1E+10	1	-1E+10	1	-1E+10	1	-1E+10	1
4901784	36	C	06/29/2016	10:34	-132.355	44.783	0	177.70	0	7.7570	0	33.8710	0	26.426	0	176.185	0	168.8	4	58.0	4	-1E+10	1	-1E+10	1	-1E+10	1	-1E+10	1	-1E+10	1	-1E+10	1
4901784	36	C	06/29/2016	10:34	-132.355	44.783	0	180.20	0	7.7130	0	33.8770	0	26.437	0	178.663	0	167.5	4	57.5	4	-1E+10	1	-1E+10	1	-1E+10	1	-1E+10	1	-1E+10	1	-1E+10	1
4901784	36	C	06/29/2016	10:34	-132.355	44.783	0	182.80	0	7.6660	0	33.8770	0	26.443	0	181.240	0	166.2	4	57.0	4	-1E+10	1	-1E+10	1	-1E+10	1	-1E+10	1	-1E+10	1	-1E+10	1
4901784	36	C	06/29/2016	10:34	-132.355	44.783	0	185.30	0	7.6170	0	33.8800	0	26.453	0	183.717	0	164.9	4	56.5	4	-1E+10	1	-1E+10	1	-1E+10	1	-1E+10	1	-1E+10	1	-1E+10	1
4901784	36	C	06/29/2016	10:34	-132.355	44.783	0	187.90	0	7.5590	0	33.8810	0	26.462	0	186.294	0	163.6	4	56.0	4	-1E+10	1	-1E+10	1	-1E+10	1	-1E+10	1	-1E+10	1	-1E+10	1
4901784	36	C	06/29/2016	10:34	-132.355	44.783	0	189.60	0	7.5280	0	33.8820	0	26.467	0	187.978	0	162.7	4	55.6	4	-1E+10	1	-1E+10	1	-1E+10	1	-1E+10	1	-1E+10	1	-1E+10	1
4901784	36	C	06/29/2016	10:34	-132.355	44.783	0	192.20	0	7.4820	0	33.8810	0	26.473	0	190.555	0	161.6	4	55.2	4	-1E+10	1	-1E+10	1	-1E+10	1	-1E+10	1	-1E+10	1	-1E+10	1
4901784	36	C	06/29/2016	10:34	-132.355	44.783	0	194.80	0	7.4370	0	33.8810	0	26.479	0	193.131	0	160.4	4	54.8	4	-1E+10	1	-1E+10	1	-1E+10	1	-1E+10	1	-1E+10	1	-1E+10	1
4901784	36	C	06/29/2016	10:34	-132.355	44.783	0	197.30	0	7.3960	0	33.8820	0	26.486	0	195.609	0	159.2	4	54.3	4	-1E+10	1	-1E+10	1	-1E+10	1	-1E+10	1	-1E+10	1	-1E+10	1
4901784	36	C	06/29/2016	10:34	-132.355	44.783	0	200.00	0	7.3490	0	33.8860	0	26.496	0	198.284	0	158.2	4	53.9	4	-1E+10	1	-1E+10	1	-1E+10	1	-1E+10	1	-1E+10	1	-1E+10	1
4901784	36	C	06/29/2016	10:34	-132.355	44.783	0	202.60	0	7.3280	0	33.8860	0	26.499	0	200.861	0	157.2	4	53.5	4	-1E+10	1	-1E+10	1	-1E+10	1	-1E+10	1	-1E+10	1	-1E+10	1
4901784	36	C	06/29/2016	10:34	-132.355	44.783	0	205.30	0	7.3030	0	33.8860	0	26.502	0	203.536	0	156.1	4	53.1	4	-1E+10	1	-1E+10	1	-1E+10	1	-1E+10	1	-1E+10	1	-1E+10	1
4901784	36	C	06/29/2016	10:34	-132.355	44.783	0	207.10	0	7.2910	0	33.8860	0	26.504	0	205.320	0	155.3	4	52.8	4	-1E+10	1	-1E+10	1	-1E+10	1	-1E+10	1	-1E+10	1	-1E+10	1
4901784	36	C	06/29/2016	10:34	-132.355	44.783	0	209.80	0	7.2580	0	33.8910	0	26.513	0	207.995	0	154.2	4	52.4	4	-1E+10	1	-1E+10	1	-1E+10	1	-1E+10	1	-1E+10	1	-1E+10	1
4901784	36	C	06/29/2016	10:34	-132.355	44.783	0	212.50	0	7.2170	0	33.8910	0	26.518	0	210.671	0	153.3	4	52.1	4	-1E+10	1	-1E+10	1	-1E+10	1	-1E+10	1	-1E+10	1	-1E+10	1
4901784	36	C	06/29/2016	10:34	-132.355	44.783	0	215.20	0	7.1790	0	33.8940	0	26.526	0	213.346	0	151.8	4	51.5	4	-1E+10	1	-1E+10	1	-1E+10	1	-1E+10	1	-1E+10	1	-1E+10	1
4901784	36	C	06/29/2016	10:34	-132.355	44.783	0	217.90	0	7.1430	0	33.8960	0	26.532	0	216.022	0	150.4	4	51.0	4	-1E+10	1	-1E+10	1	-1E+10	1	-1E+10	1	-1E+10	1	-1E+10	1
4901784	36	C	06/29/2016	10:34	-132.355	44.783	0	219.80	0	7.1200	0	33.8970	0	26.536	0	217.904	0	149.2	4	50.6	4	-1E+10	1	-1E+10	1	-1E+10	1	-1E+10	1	-1E+10	1	-1E+10	1
4901784	36	C	06/29/2016	10:34	-132.355	44.783	0	222.60	0	7.0660	0	33.8990	0	26.545	0	220.679	0	146.9	4	49.7	4	-1E+10	1	-1E+10	1	-1E+10	1	-1E+10	1	-1E+10	1	-1E+10	1
4901784	36	C	06/29/2016	10:34	-132.355	44.783	0	225.30	0	7.0130	0	33.8990	0	26.553	0	223.354	0	144.9	4	49.0	4	-1E+10	1	-1E+10	1	-1E+10	1	-1E+10	1	-1E+10	1	-1E+10	1
4901784	36	C	06/29/2016	10:34	-132.355	44.783	0	227.10	0	6.9980	0	33.8990	0	26.555	0	225.137	0	144.4	4	48.8	4	-1E+10	1	-1E+10	1	-1E+10	1	-1E+10	1	-1E+10	1	-1E+10	1
4901784	36	C	06/29/2016	10:34	-132.355	44.783	0	229.80	0	6.9620	0	33.9010	0	26.561	0	227.812	0	144.1	4	48.7	4	-1E+10	1	-1E+10	1	-1E+10	1	-1E+10	1	-1E+10	1	-1E+10	1
4901784	36	C	06/29/2016	10:34	-132.355	44.783	0	232.50	0	6.9440	0	33.9010	0	26.564	0	230.488	0	143.4	4	48.4	4	-1E+10	1	-1E+10	1	-1E+10	1	-1E+10	1	-1E+10	1	-1E+10	1
4901784	36	C	06/29/2016	10:34	-132.355	44.783	0	235.30	0	6.9300	0	33.9020	0	26.567	0	233.262	0	139.9	4	47.2	4	-1E+10	1	-1E+10	1	-1E+10	1	-1E+10	1	-1E+10	1	-1E+10	1
4901784	36	C	06/29/2016	10:34	-132.355	44.783	0	238.00	0	6.8940	0	33.9010	0	26.571	0	235.937	0	135.9	4	45.8	4	-1E+10	1	-1E+10	1	-1E+10	1	-1E+10	1	-1E+10	1	-1E+10	1
4901784	36	C	06/29/2016	10:34	-132.355	44.783	0	239.90	0	6.8880	0	33.9000	0	26.571	0	237.819	0	133.9	4	45.1	4	-1E+10	1	-1E+10	1	-1E+10	1	-1E+10	1	-1E+10	1	-1E+10	1
4901784	36	C	06/29/2016	10:34	-132.355	44.783	0	242.60	0	6.8590	0	33.9000	0	26.575	0	240.494	0	129.4	4	43.6	4	-1E+10	1	-1E+10	1	-1E+10	1	-1E+10	1	-1E+10	1	-1E+10	1
4901784	36	C	06/29/2016	10:34	-132.355	44.783	0	245.30	0	6.8010	0	33.9010	0	26.583	0	243.169	0	126.0	4	42.4	4	-1E+10	1	-1E+10	1	-1E+10	1	-1E+10	1	-1E+10	1	-1E+10	1
4901784	36	C	06/29/2016	10:34	-132.355	44.783	0	247.20	0	6.7560	0	33.9040	0	26.592	0	245.052	0	125.0	4	42.0	4	-1E+10	1	-1E+10	1	-1E+10	1	-1E+10	1	-1E+10	1	-1E+10	1
4901784	36	C	06/29/2016	10:34	-132.355	44.783	0	250.00	0	6.7430	0	33.9030	0	26.593	0	247.826	0	123.1	4	41.4	4	-1E+10	1	-1E+10	1	-1E+10	1	-1E+10	1	-1E+10	1	-1E+10	1
4901784	36	C	06/29/2016	10:34	-132.355	44.783	0	252.60	0	6.7340	0	33.9020	0	26.593	0	250.401	0	120.5	4	40.5	4	-1E+10	1	-1E+10	1	-1E+10	1	-1E+10	1	-1E+10	1	-1E+10	1
4901784	36	C	06/29/2016	10:34	-132.355	44.783	0	254.50	0	6.6920	0	33.9030	0	26.599	0	252.284	0	119.0	4	39.9	4	-1E+10	1	-1E+10	1	-1E+10	1	-1E+10	1	-1E+10	1	-1E+10	1
4901784	36	C	06/29/2016	10:34	-132.355	44.783	0	257.20	0	6.6450	0	33.9050	0	26.607	0	254.959	0	116.7	4	39.1	4	-1E+10	1	-1E+10	1	-1E+10	1	-1E+10	1	-1E+10	1	-1E+10	1
4901784	36	C	06/29/2016	10:34	-132.355	44.783	0	260.00	0	6.6120	0	33.9070	0	26.613	0	257.732	0	114.3	4	38.3	4	-1E+10	1	-1E+10	1	-1E+10	1	-1E+10	1	-1E+10	1	-1E+10	1
4901784	36	C	06/29/2016	10:34	-132.355	44.783	0	262.70	0	6.5710	0	33.9090	0	26.620	0	260.407	0	112.8	4	37.8	4	-1E+10	1	-1E+10	1	-1E+10	1	-1E+10	1	-1E+10	1	-1E+10	1
4901784	36	C	06/29/2016	10:34	-132.355	44.783	0	265.40	0	6.5420	0	33.9100	0	26.625	0	263.082	0	111.9	4	37.4	4	-1E+10	1	-1E+10	1	-1E+10	1	-1E+10	1	-1E+10	1	-1E+10	1
4901784	36	C	06/29/2016	10:34	-132.355	44.783	0	267.30	0	6.5210	0	33.9110	0	26.628	0	264.964	0	111.2	4	37.2	4	-1E+10	1	-1E+10	1	-1E+10	1	-1E+10	1	-1E+10	1	-1E+10	1
4901784	36	C	06/29/2016	10:34	-132.355	44.783	0	270.10	0	6.4740	0	33.9120	0	26.635	0	267.738	0	109.8	4	36.7	4	-1E+10	1	-1E+10	1	-1E+10	1	-1E+10	1	-1E+10	1	-1E+10	1
4901784	36	C	06/29/2016	10:34	-132.355	44.783	0	272.80	0	6.4220	0	33.9140	0	26.644	0	270.412	0	108.7	4	36.3	4	-1E+10	1	-1E+10	1	-1E+10	1	-1E+10	1	-1E+10	1	-1E+10	1
4901784	36	C	06/29/2016	10:34	-132.355	44.783	0	274.70	0	6.3890	0	33.9140	0	26.648	0	272.295	0	107.7	4	35.9	4	-1E+10	1	-1E+10	1	-1E+10	1	-1E+10	1	-1E+10	1	-1E+10	1
4901784	36	C	06/29/2016	10:34	-132.355	44.783	0	277.40	0	6.3730	0	33.9160	0	26.652	0	274.969	0	106.6	4	35.5	4	-1E+10	1	-1E+10	1	-1E+10	1	-1E+10	1	-1E+10	1	-1E+10	1
4901784	36	C	06/29/2016	10:34	-132.355	44.783	0	280.20	0	6.3610	0	33.9150	0	26.653	0	277.743	0	105.7	4	35.2	4	-1E+10	1	-1E+10	1	-1E+10	1	-1E+10	1	-1E+10	1	-1E+10	1
4901784	36	C	06/29/2016	10:34	-132.355	44.783	0	282.00	0	6.3380	0	33.9170	0	26.657	0	279.526	0	105.3	4	35.0	4	-1E+10	1	-1E+10	1	-1E+10	1	-1E+10	1	-1E+10	1	-1E+10	1
4901784	36	C	06/29/2016	10:34	-132.355	44.783	0	284.80	0	6.3110	0	33.9170	0	26.661	0	282.299	0	105.1	4	35.0	4	-1E+10	1	-1E+10	1	-1E+10	1	-1E+10	1	-1E+10	1	-1E+10	1
4901784	36	C	06/29/2016	10:34	-132.355	44.783	0	287.50	0	6.2920	0	33.9170	0	26.663	0	284.974	0	105.4	4	35.1	4	-1E+10	1	-1E+10	1	-1E+10	1	-1E+10	1	-1E+10	1	-1E+10	1
4901784	36	C	06/29/2016	10:34	-132.355	44.783	0	290.20	0	6.2410	0	33.9170	0	26.670	0	287.648	0	106.3	4	35.3	4	-1E+10	1	-1E+10	1	-1E+10	1	-1E+10	1	-1E+10	1	-1E+10	1
4901784	36	C	06/29/2016	10:34	-132.355	44.783	0	293.00	0	6.2180	0	33.9160	0	26.672	0	290.421	0	106.6	4	35.4	4	-1E+10	1	-1E+10	1	-1E+10	1	-1E+10	1	-1E+10	1	-1E+10	1
4901784	36	C	06/29/2016	10:34	-132.355	44.783	0	294.80	0	6.1980	0	33.9150	0	26.674	0	292.204	0	107.0	4	35.5	4	-1E+10	1	-1E+10	1	-1E+10	1	-1E+10	1	-1E+10	1	-1E+10	1
4901784	36	C	06/29/2016	10:34	-132.355	44.783	0	297.50	0	6.1760	0	33.9160	0	26.677	0	294.879	0	106.4	4	35.3	4	-1E+10	1	-1E+10	1	-1E+10	1	-1E+10	1	-1E+10	1	-1E+10	1
4901784	36	C	06/29/2016	10:34	-132.355	44.783	0	300.30	0	6.1490	0	33.9150	0	26.680	0	297.652	0	105.7	4	35.0	4	-1E+10	1	-1E+10	1	-1E+10	1	-1E+10	1	-1E+10	1	-1E+10	1
4901784	36	C	06/29/2016	10:34	-132.355	44.783	0	302.10	0	6.1280	0	33.9160	0	26.683	0	299.435	0	105.4	4	34.9	4	-1E+10	1	-1E+10	1	-1E+10	1	-1E+10	1	-1E+10	1	-1E+10	1
4901784	36	C	06/29/2016	10:34	-132.355	44.783	0	304.80	0	6.1260	0	33.9180	0	26.685	0	302.109	0	104.8	4	34.7	4	-1E+10	1	-1E+10	1	-1E+10	1	-1E+10	1	-1E+10	1	-1E+10	1
4901784	36	C	06/29/2016	10:34	-132.355	44.783	0	307.60	0	6.1100	0	33.9180	0	26.687	0	304.882	0	105.7	4	35.0	4	-1E+10	1	-1E+10	1	-1E+10	1	-1E+10	1	-1E+10	1	-1E+10	1
4901784	36	C	06/29/2016	10:34	-132.355	44.783	0	309.50	0	6.0990	0	33.9170	0	26.688	0	306.764	0	106.7	4	35.3	4	-1E+10	1	-1E+10	1	-1E+10	1	-1E+10	1	-1E+10	1	-1E+10	1
4901784	36	C	06/29/2016	10:34	-132.355	44.783	0	312.30	0	6.0600	0	33.9150	0	26.691	0	309.537	0	107.1	4	35.4	4	-1E+10	1	-1E+10	1	-1E+10	1	-1E+10	1	-1E+10	1	-1E+10	1
4901784	36	C	06/29/2016	10:34	-132.355	44.783	0	315.00	0	6.0550	0	33.9140	0	26.691	0	312.211	0	106.3	4	35.2	4	-1E+10	1	-1E+10	1	-1E+10	1	-1E+10	1	-1E+10	1	-1E+10	1
4901784	36	C	06/29/2016	10:34	-132.355	44.783	0	317.80	0	6.0130	0	33.9150	0	26.697	0	314.984	0	104.6	4	34.6	4	-1E+10	1	-1E+10	1	-1E+10	1	-1E+10	1	-1E+10	1	-1E+10	1
4901784	36	C	06/29/2016	10:34	-132.355	44.783	0	320.50	0	5.9910	0	33.9160	0	26.701	0	317.658	0	102.6	4	33.9	4	-1E+10	1	-1E+10	1	-1E+10	1	-1E+10	1	-1E+10	1	-1E+10	1
4901784	36	C	06/29/2016	10:34	-132.355	44.783	0	322.40	0	5.9700	0	33.9180	0	26.705	0	319.540	0	101.7	4	33.6	4	-1E+10	1	-1E+10	1	-1E+10	1	-1E+10	1	-1E+10	1	-1E+10	1
4901784	36	C	06/29/2016	10:34	-132.355	44.783	0	325.20	0	5.9550	0	33.9170	0	26.706	0	322.313	0	101.8	4	33.6	4	-1E+10	1	-1E+10	1	-1E+10	1	-1E+10	1	-1E+10	1	-1E+10	1
4901784	36	C	06/29/2016	10:34	-132.355	44.783	0	327.90	0	5.9330	0	33.9160	0	26.708	0	324.987	0	102.0	4	33.6	4	-1E+10	1	-1E+10	1	-1E+10	1	-1E+10	1	-1E+10	1	-1E+10	1
4901784	36	C	06/29/2016	10:34	-132.355	44.783	0	329.70	0	5.9050	0	33.9180	0	26.713	0	326.770	0	102.1	4	33.6	4	-1E+10	1	-1E+10	1	-1E+10	1	-1E+10	1	-1E+10	1	-1E+10	1
4901784	36	C	06/29/2016	10:34	-132.355	44.783	0	332.60	0	5.8640	0	33.9160	0	26.717	0	329.641	0	102.8	4	33.8	4	-1E+10	1	-1E+10	1	-1E+10	1	-1E+10	1	-1E+10	1	-1E+10	1
4901784	36	C	06/29/2016	10:34	-132.355	44.783	0	335.30	0	5.8250	0	33.9150	0	26.721	0	332.315	0	103.1	4	33.9	4	-1E+10	1	-1E+10	1	-1E+10	1	-1E+10	1	-1E+10	1	-1E+10	1
4901784	36	C	06/29/2016	10:34	-132.355	44.783	0	337.20	0	5.7890	0	33.9160	0	26.726	0	334.197	0	103.1	4	33.9	4	-1E+10	1	-1E+10	1	-1E+10	1	-1E+10	1	-1E+10	1	-1E+10	1
4901784	36	C	06/29/2016	10:34	-132.355	44.783	0	340.00	0	5.7500	0	33.9140	0	26.729	0	336.970	0	102.8	4	33.8	4	-1E+10	1	-1E+10	1	-1E+10	1	-1E+10	1	-1E+10	1	-1E+10	1
4901784	36	C	06/29/2016	10:34	-132.355	44.783	0	342.90	0	5.7090	0	33.9140	0	26.734	0	339.841	0	101.4	4	33.3	4	-1E+10	1	-1E+10	1	-1E+10	1	-1E+10	1	-1E+10	1	-1E+10	1
4901784	36	C	06/29/2016	10:34	-132.355	44.783	0	344.70	0	5.6960	0	33.9110	0	26.733	0	341.624	0	99.8	4	32.7	4	-1E+10	1	-1E+10	1	-1E+10	1	-1E+10	1	-1E+10	1	-1E+10	1
4901784	36	C	06/29/2016	10:34	-132.355	44.783	0	347.50	0	5.6570	0	33.9110	0	26.738	0	344.397	0	96.1	4	31.5	4	-1E+10	1	-1E+10	1	-1E+10	1	-1E+10	1	-1E+10	1	-1E+10	1
4901784	36	C	06/29/2016	10:34	-132.355	44.783	0	350.30	0	5.6260	0	33.9120	0	26.743	0	347.169	0	92.5	4	30.3	4	-1E+10	1	-1E+10	1	-1E+10	1	-1E+10	1	-1E+10	1	-1E+10	1
4901784	36	C	06/29/2016	10:34	-132.355	44.783	0	352.20	0	5.5970	0	33.9170	0	26.750	0	349.051	0	90.7	4	29.7	4	-1E+10	1	-1E+10	1	-1E+10	1	-1E+10	1	-1E+10	1	-1E+10	1
4901784	36	C	06/29/2016	10:34	-132.355	44.783	0	355.10	0	5.5440	0	33.9200	0	26.759	0	351.922	0	89.2	4	29.2	4	-1E+10	1	-1E+10	1	-1E+10	1	-1E+10	1	-1E+10	1	-1E+10	1
4901784	36	C	06/29/2016	10:34	-132.355	44.783	0	357.90	0	5.5150	0	33.9210	0	26.763	0	354.695	0	88.7	4	29.0	4	-1E+10	1	-1E+10	1	-1E+10	1	-1E+10	1	-1E+10	1	-1E+10	1
4901784	36	C	06/29/2016	10:34	-132.355	44.783	0	359.90	0	5.5050	0	33.9210	0	26.764	0	356.675	0	88.5	4	28.9	4	-1E+10	1	-1E+10	1	-1E+10	1	-1E+10	1	-1E+10	1	-1E+10	1
4901784	36	C	06/29/2016	10:34	-132.355	44.783	0	362.70	0	5.4780	0	33.9220	0	26.768	0	359.448	0	87.9	4	28.7	4	-1E+10	1	-1E+10	1	-1E+10	1	-1E+10	1	-1E+10	1	-1E+10	1
4901784	36	C	06/29/2016	10:34	-132.355	44.783	0	365.60	0	5.4410	0	33.9230	0	26.774	0	362.319	0	87.6	4	28.6	4	-1E+10	1	-1E+10	1	-1E+10	1	-1E+10	1	-1E+10	1	-1E+10	1
4901784	36	C	06/29/2016	10:34	-132.355	44.783	0	367.50	0	5.3910	0	33.9240	0	26.780	0	364.200	0	86.1	4	28.1	4	-1E+10	1	-1E+10	1	-1E+10	1	-1E+10	1	-1E+10	1	-1E+10	1
4901784	36	C	06/29/2016	10:34	-132.355	44.783	0	370.30	0	5.3830	0	33.9250	0	26.782	0	366.973	0	85.4	4	27.8	4	-1E+10	1	-1E+10	1	-1E+10	1	-1E+10	1	-1E+10	1	-1E+10	1
4901784	36	C	06/29/2016	10:34	-132.355	44.783	0	373.10	0	5.3490	0	33.9260	0	26.787	0	369.745	0	84.5	4	27.5	4	-1E+10	1	-1E+10	1	-1E+10	1	-1E+10	1	-1E+10	1	-1E+10	1
4901784	36	C	06/29/2016	10:34	-132.355	44.783	0	375.00	0	5.3490	0	33.9290	0	26.789	0	371.626	0	84.0	4	27.3	4	-1E+10	1	-1E+10	1	-1E+10	1	-1E+10	1	-1E+10	1	-1E+10	1
4901784	36	C	06/29/2016	10:34	-132.355	44.783	0	376.90	0	5.3360	0	33.9300	0	26.792	0	373.508	0	83.6	4	27.2	4	-1E+10	1	-1E+10	1	-1E+10	1	-1E+10	1	-1E+10	1	-1E+10	1
4901784	36	C	06/29/2016	10:34	-132.355	44.783	0	379.80	0	5.3160	0	33.9300	0	26.794	0	376.379	0	82.2	4	26.7	4	-1E+10	1	-1E+10	1	-1E+10	1	-1E+10	1	-1E+10	1	-1E+10	1
4901784	36	C	06/29/2016	10:34	-132.355	44.783	0	382.60	0	5.2740	0	33.9320	0	26.801	0	379.151	0	80.7	4	26.2	4	-1E+10	1	-1E+10	1	-1E+10	1	-1E+10	1	-1E+10	1	-1E+10	1
4901784	36	C	06/29/2016	10:34	-132.355	44.783	0	384.40	0	5.2640	0	33.9320	0	26.802	0	380.933	0	79.6	4	25.8	4	-1E+10	1	-1E+10	1	-1E+10	1	-1E+10	1	-1E+10	1	-1E+10	1
4901784	36	C	06/29/2016	10:34	-132.355	44.783	0	387.20	0	5.2290	0	33.9340	0	26.807	0	383.705	0	77.8	4	25.2	4	-1E+10	1	-1E+10	1	-1E+10	1	-1E+10	1	-1E+10	1	-1E+10	1
4901784	36	C	06/29/2016	10:34	-132.355	44.783	0	390.70	0	5.2040	0	33.9360	0	26.812	0	387.170	0	75.4	4	24.5	4	-1E+10	1	-1E+10	1	-1E+10	1	-1E+10	1	-1E+10	1	-1E+10	1
4901784	36	C	06/29/2016	10:34	-132.355	44.783	0	392.60	0	5.2180	0	33.9400	0	26.814	0	389.052	0	73.0	4	23.7	4	-1E+10	1	-1E+10	1	-1E+10	1	-1E+10	1	-1E+10	1	-1E+10	1
4901784	36	C	06/29/2016	10:34	-132.355	44.783	0	395.00	0	5.2600	0	33.9540	0	26.820	0	391.428	0	72.3	4	23.5	4	-1E+10	1	-1E+10	1	-1E+10	1	-1E+10	1	-1E+10	1	-1E+10	1
4901784	36	C	06/29/2016	10:34	-132.355	44.783	0	397.40	0	5.1660	0	33.9520	0	26.829	0	393.804	0	73.1	4	23.7	4	-1E+10	1	-1E+10	1	-1E+10	1	-1E+10	1	-1E+10	1	-1E+10	1
4901784	36	C	06/29/2016	10:34	-132.355	44.783	0	399.90	0	5.1340	0	33.9470	0	26.829	0	396.279	0	72.0	4	23.3	4	-1E+10	1	-1E+10	1	-1E+10	1	-1E+10	1	-1E+10	1	-1E+10	1
4901784	36	C	06/29/2016	10:34	-132.355	44.783	0	402.30	0	5.1420	0	33.9520	0	26.832	0	398.654	0	70.2	4	22.7	4	-1E+10	1	-1E+10	1	-1E+10	1	-1E+10	1	-1E+10	1	-1E+10	1
4901784	36	C	06/29/2016	10:34	-132.355	44.783	0	404.80	0	5.1690	0	33.9620	0	26.837	0	401.129	0	69.2	4	22.4	4	-1E+10	1	-1E+10	1	-1E+10	1	-1E+10	1	-1E+10	1	-1E+10	1
4901784	36	C	06/29/2016	10:34	-132.355	44.783	0	407.30	0	5.0870	0	33.9570	0	26.842	0	403.604	0	69.6	4	22.5	4	-1E+10	1	-1E+10	1	-1E+10	1	-1E+10	1	-1E+10	1	-1E+10	1
4901784	36	C	06/29/2016	10:34	-132.355	44.783	0	409.90	0	5.0760	0	33.9590	0	26.845	0	406.178	0	68.1	4	22.0	4	-1E+10	1	-1E+10	1	-1E+10	1	-1E+10	1	-1E+10	1	-1E+10	1
4901784	36	C	06/29/2016	10:34	-132.355	44.783	0	412.40	0	5.0710	0	33.9610	0	26.847	0	408.653	0	66.9	4	21.6	4	-1E+10	1	-1E+10	1	-1E+10	1	-1E+10	1	-1E+10	1	-1E+10	1
4901784	36	C	06/29/2016	10:34	-132.355	44.783	0	414.90	0	5.0240	0	33.9590	0	26.851	0	411.128	0	65.8	4	21.2	4	-1E+10	1	-1E+10	1	-1E+10	1	-1E+10	1	-1E+10	1	-1E+10	1
4901784	36	C	06/29/2016	10:34	-132.355	44.783	0	417.40	0	5.0160	0	33.9630	0	26.855	0	413.603	0	63.6	4	20.6	4	-1E+10	1	-1E+10	1	-1E+10	1	-1E+10	1	-1E+10	1	-1E+10	1
4901784	36	C	06/29/2016	10:34	-132.355	44.783	0	420.00	0	5.0270	0	33.9730	0	26.862	0	416.176	0	62.2	4	20.1	4	-1E+10	1	-1E+10	1	-1E+10	1	-1E+10	1	-1E+10	1	-1E+10	1
4901784	36	C	06/29/2016	10:34	-132.355	44.783	0	422.50	0	4.9980	0	33.9740	0	26.866	0	418.651	0	61.3	4	19.8	4	-1E+10	1	-1E+10	1	-1E+10	1	-1E+10	1	-1E+10	1	-1E+10	1
4901784	36	C	06/29/2016	10:34	-132.355	44.783	0	425.00	0	4.9950	0	33.9750	0	26.867	0	421.126	0	60.3	4	19.5	4	-1E+10	1	-1E+10	1	-1E+10	1	-1E+10	1	-1E+10	1	-1E+10	1
4901784	36	C	06/29/2016	10:34	-132.355	44.783	0	427.60	0	4.9930	0	33.9760	0	26.868	0	423.699	0	59.2	4	19.1	4	-1E+10	1	-1E+10	1	-1E+10	1	-1E+10	1	-1E+10	1	-1E+10	1
4901784	36	C	06/29/2016	10:34	-132.355	44.783	0	430.30	0	5.0100	0	33.9840	0	26.873	0	426.372	0	57.3	4	18.5	4	-1E+10	1	-1E+10	1	-1E+10	1	-1E+10	1	-1E+10	1	-1E+10	1
4901784	36	C	06/29/2016	10:34	-132.355	44.783	0	432.90	0	5.0210	0	33.9890	0	26.875	0	428.946	0	56.8	4	18.4	4	-1E+10	1	-1E+10	1	-1E+10	1	-1E+10	1	-1E+10	1	-1E+10	1
4901784	36	C	06/29/2016	10:34	-132.355	44.783	0	434.70	0	4.9990	0	33.9870	0	26.876	0	430.727	0	56.8	4	18.3	4	-1E+10	1	-1E+10	1	-1E+10	1	-1E+10	1	-1E+10	1	-1E+10	1
4901784	36	C	06/29/2016	10:34	-132.355	44.783	0	437.30	0	4.9950	0	33.9900	0	26.879	0	433.301	0	56.2	4	18.2	4	-1E+10	1	-1E+10	1	-1E+10	1	-1E+10	1	-1E+10	1	-1E+10	1
4901784	36	C	06/29/2016	10:34	-132.355	44.783	0	439.90	0	4.9740	0	33.9930	0	26.884	0	435.874	0	56.3	4	18.2	4	-1E+10	1	-1E+10	1	-1E+10	1	-1E+10	1	-1E+10	1	-1E+10	1
4901784	36	C	06/29/2016	10:34	-132.355	44.783	0	442.60	0	4.9400	0	33.9860	0	26.882	0	438.547	0	56.4	4	18.2	4	-1E+10	1	-1E+10	1	-1E+10	1	-1E+10	1	-1E+10	1	-1E+10	1
4901784	36	C	06/29/2016	10:34	-132.355	44.783	0	445.30	0	4.9210	0	33.9890	0	26.887	0	441.219	0	55.8	4	18.0	4	-1E+10	1	-1E+10	1	-1E+10	1	-1E+10	1	-1E+10	1	-1E+10	1
4901784	36	C	06/29/2016	10:34	-132.355	44.783	0	447.10	0	4.9320	0	33.9910	0	26.887	0	443.001	0	55.4	4	17.9	4	-1E+10	1	-1E+10	1	-1E+10	1	-1E+10	1	-1E+10	1	-1E+10	1
4901784	36	C	06/29/2016	10:34	-132.355	44.783	0	449.80	0	4.9050	0	33.9900	0	26.889	0	445.673	0	55.0	4	17.7	4	-1E+10	1	-1E+10	1	-1E+10	1	-1E+10	1	-1E+10	1	-1E+10	1
4901784	36	C	06/29/2016	10:34	-132.355	44.783	0	452.50	0	4.9140	0	33.9920	0	26.890	0	448.345	0	53.8	4	17.3	4	-1E+10	1	-1E+10	1	-1E+10	1	-1E+10	1	-1E+10	1	-1E+10	1
4901784	36	C	06/29/2016	10:34	-132.355	44.783	0	455.30	0	4.8800	0	33.9990	0	26.899	0	451.117	0	54.0	4	17.4	4	-1E+10	1	-1E+10	1	-1E+10	1	-1E+10	1	-1E+10	1	-1E+10	1
4901784	36	C	06/29/2016	10:34	-132.355	44.783	0	458.10	0	4.8440	0	33.9980	0	26.903	0	453.888	0	54.3	4	17.5	4	-1E+10	1	-1E+10	1	-1E+10	1	-1E+10	1	-1E+10	1	-1E+10	1
4901784	36	C	06/29/2016	10:34	-132.355	44.783	0	459.90	0	4.8360	0	33.9970	0	26.903	0	455.669	0	54.2	4	17.4	4	-1E+10	1	-1E+10	1	-1E+10	1	-1E+10	1	-1E+10	1	-1E+10	1
4901784	36	C	06/29/2016	10:34	-132.355	44.783	0	462.70	0	4.8330	0	33.9970	0	26.903	0	458.441	0	54.1	4	17.4	4	-1E+10	1	-1E+10	1	-1E+10	1	-1E+10	1	-1E+10	1	-1E+10	1
4901784	36	C	06/29/2016	10:34	-132.355	44.783	0	465.50	0	4.8030	0	33.9950	0	26.905	0	461.212	0	54.1	4	17.4	4	-1E+10	1	-1E+10	1	-1E+10	1	-1E+10	1	-1E+10	1	-1E+10	1
4901784	36	C	06/29/2016	10:34	-132.355	44.783	0	467.30	0	4.7910	0	33.9940	0	26.905	0	462.993	0	53.8	4	17.3	4	-1E+10	1	-1E+10	1	-1E+10	1	-1E+10	1	-1E+10	1	-1E+10	1
4901784	36	C	06/29/2016	10:34	-132.355	44.783	0	470.00	0	4.7730	0	33.9950	0	26.908	0	465.665	0	52.9	4	17.0	4	-1E+10	1	-1E+10	1	-1E+10	1	-1E+10	1	-1E+10	1	-1E+10	1
4901784	36	C	06/29/2016	10:34	-132.355	44.783	0	472.80	0	4.7600	0	33.9970	0	26.911	0	468.436	0	51.7	4	16.6	4	-1E+10	1	-1E+10	1	-1E+10	1	-1E+10	1	-1E+10	1	-1E+10	1
4901784	36	C	06/29/2016	10:34	-132.355	44.783	0	475.20	0	4.7400	0	34.0040	0	26.919	0	470.811	0	51.0	4	16.4	4	-1E+10	1	-1E+10	1	-1E+10	1	-1E+10	1	-1E+10	1	-1E+10	1
4901784	36	C	06/29/2016	10:34	-132.355	44.783	0	477.80	0	4.7310	0	34.0050	0	26.921	0	473.384	0	50.4	4	16.2	4	-1E+10	1	-1E+10	1	-1E+10	1	-1E+10	1	-1E+10	1	-1E+10	1
4901784	36	C	06/29/2016	10:34	-132.355	44.783	0	480.10	0	4.7210	0	34.0060	0	26.923	0	475.660	0	49.8	4	16.0	4	-1E+10	1	-1E+10	1	-1E+10	1	-1E+10	1	-1E+10	1	-1E+10	1
4901784	36	C	06/29/2016	10:34	-132.355	44.783	0	482.50	0	4.7160	0	34.0090	0	26.926	0	478.035	0	49.1	4	15.8	4	-1E+10	1	-1E+10	1	-1E+10	1	-1E+10	1	-1E+10	1	-1E+10	1
4901784	36	C	06/29/2016	10:34	-132.355	44.783	0	484.90	0	4.6960	0	34.0110	0	26.930	0	480.410	0	48.8	4	15.6	4	-1E+10	1	-1E+10	1	-1E+10	1	-1E+10	1	-1E+10	1	-1E+10	1
4901784	36	C	06/29/2016	10:34	-132.355	44.783	0	487.30	0	4.6810	0	34.0120	0	26.932	0	482.785	0	48.5	4	15.5	4	-1E+10	1	-1E+10	1	-1E+10	1	-1E+10	1	-1E+10	1	-1E+10	1
4901784	36	C	06/29/2016	10:34	-132.355	44.783	0	489.70	0	4.6750	0	34.0120	0	26.933	0	485.160	0	48.0	4	15.4	4	-1E+10	1	-1E+10	1	-1E+10	1	-1E+10	1	-1E+10	1	-1E+10	1
4901784	36	C	06/29/2016	10:34	-132.355	44.783	0	492.10	0	4.6640	0	34.0130	0	26.935	0	487.535	0	47.5	4	15.2	4	-1E+10	1	-1E+10	1	-1E+10	1	-1E+10	1	-1E+10	1	-1E+10	1
4901784	36	C	06/29/2016	10:34	-132.355	44.783	0	495.40	0	4.6580	0	34.0160	0	26.938	0	490.801	0	46.6	4	14.9	4	-1E+10	1	-1E+10	1	-1E+10	1	-1E+10	1	-1E+10	1	-1E+10	1
4901784	36	C	06/29/2016	10:34	-132.355	44.783	0	497.80	0	4.6520	0	34.0190	0	26.941	0	493.176	0	45.8	4	14.7	4	-1E+10	1	-1E+10	1	-1E+10	1	-1E+10	1	-1E+10	1	-1E+10	1
4901784	36	C	06/29/2016	10:34	-132.355	44.783	0	500.10	0	4.6470	0	34.0210	0	26.943	0	495.452	0	44.9	4	14.4	4	-1E+10	1	-1E+10	1	-1E+10	1	-1E+10	1	-1E+10	1	-1E+10	1
4901784	36	C	06/29/2016	10:34	-132.355	44.783	0	505.00	0	4.6430	0	34.0280	0	26.949	0	500.300	0	42.7	4	13.7	4	-1E+10	1	-1E+10	1	-1E+10	1	-1E+10	1	-1E+10	1	-1E+10	1
4901784	36	C	06/29/2016	10:34	-132.355	44.783	0	510.80	0	4.6370	0	34.0370	0	26.957	0	506.039	0	40.4	4	12.9	4	-1E+10	1	-1E+10	1	-1E+10	1	-1E+10	1	-1E+10	1	-1E+10	1
4901784	36	C	06/29/2016	10:34	-132.355	44.783	0	515.70	0	4.6150	0	34.0430	0	26.964	0	510.887	0	39.0	4	12.5	4	-1E+10	1	-1E+10	1	-1E+10	1	-1E+10	1	-1E+10	1	-1E+10	1
4901784	36	C	06/29/2016	10:34	-132.355	44.783	0	520.80	0	4.6190	0	34.0490	0	26.968	0	515.934	0	37.0	4	11.9	4	-1E+10	1	-1E+10	1	-1E+10	1	-1E+10	1	-1E+10	1	-1E+10	1
4901784	36	C	06/29/2016	10:34	-132.355	44.783	0	525.00	0	4.6050	0	34.0540	0	26.974	0	520.089	0	35.6	4	11.4	4	-1E+10	1	-1E+10	1	-1E+10	1	-1E+10	1	-1E+10	1	-1E+10	1
4901784	36	C	06/29/2016	10:34	-132.355	44.783	0	529.30	0	4.6020	0	34.0620	0	26.981	0	524.343	0	34.1	4	10.9	4	-1E+10	1	-1E+10	1	-1E+10	1	-1E+10	1	-1E+10	1	-1E+10	1
4901784	36	C	06/29/2016	10:34	-132.355	44.783	0	534.30	0	4.6090	0	34.0680	0	26.985	0	529.290	0	32.8	4	10.5	4	-1E+10	1	-1E+10	1	-1E+10	1	-1E+10	1	-1E+10	1	-1E+10	1
4901784	36	C	06/29/2016	10:34	-132.355	44.783	0	539.50	0	4.6120	0	34.0710	0	26.987	0	534.435	0	31.5	4	10.1	4	-1E+10	1	-1E+10	1	-1E+10	1	-1E+10	1	-1E+10	1	-1E+10	1
4901784	36	C	06/29/2016	10:34	-132.355	44.783	0	544.60	0	4.6140	0	34.0800	0	26.994	0	539.480	0	30.1	4	9.6	4	-1E+10	1	-1E+10	1	-1E+10	1	-1E+10	1	-1E+10	1	-1E+10	1
4901784	36	C	06/29/2016	10:34	-132.355	44.783	0	549.70	0	4.6060	0	34.0850	0	26.999	0	544.526	0	29.5	4	9.4	4	-1E+10	1	-1E+10	1	-1E+10	1	-1E+10	1	-1E+10	1	-1E+10	1
4901784	36	C	06/29/2016	10:34	-132.355	44.783	0	554.80	0	4.5890	0	34.0870	0	27.002	0	549.571	0	28.9	4	9.2	4	-1E+10	1	-1E+10	1	-1E+10	1	-1E+10	1	-1E+10	1	-1E+10	1
4901784	36	C	06/29/2016	10:34	-132.355	44.783	0	560.00	0	4.5860	0	34.0910	0	27.006	0	554.715	0	28.3	4	9.0	4	-1E+10	1	-1E+10	1	-1E+10	1	-1E+10	1	-1E+10	1	-1E+10	1
4901784	36	C	06/29/2016	10:34	-132.355	44.783	0	565.30	0	4.5780	0	34.0930	0	27.008	0	559.958	0	27.9	4	8.9	4	-1E+10	1	-1E+10	1	-1E+10	1	-1E+10	1	-1E+10	1	-1E+10	1
4901784	36	C	06/29/2016	10:34	-132.355	44.783	0	570.60	0	4.5640	0	34.0940	0	27.011	0	565.201	0	27.3	4	8.7	4	-1E+10	1	-1E+10	1	-1E+10	1	-1E+10	1	-1E+10	1	-1E+10	1
4901784	36	C	06/29/2016	10:34	-132.355	44.783	0	574.90	0	4.5490	0	34.0990	0	27.016	0	569.454	0	26.5	4	8.5	4	-1E+10	1	-1E+10	1	-1E+10	1	-1E+10	1	-1E+10	1	-1E+10	1
4901784	36	C	06/29/2016	10:34	-132.355	44.783	0	579.20	0	4.5220	0	34.1030	0	27.022	0	573.707	0	26.1	4	8.3	4	-1E+10	1	-1E+10	1	-1E+10	1	-1E+10	1	-1E+10	1	-1E+10	1
4901784	36	C	06/29/2016	10:34	-132.355	44.783	0	584.40	0	4.5040	0	34.1060	0	27.027	0	578.851	0	25.7	4	8.2	4	-1E+10	1	-1E+10	1	-1E+10	1	-1E+10	1	-1E+10	1	-1E+10	1
4901784	36	C	06/29/2016	10:34	-132.355	44.783	0	589.70	0	4.4710	0	34.1080	0	27.032	0	584.093	0	25.4	4	8.1	4	-1E+10	1	-1E+10	1	-1E+10	1	-1E+10	1	-1E+10	1	-1E+10	1
4901784	36	C	06/29/2016	10:34	-132.355	44.783	0	595.00	0	4.4490	0	34.1110	0	27.037	0	589.335	0	24.9	4	7.9	4	-1E+10	1	-1E+10	1	-1E+10	1	-1E+10	1	-1E+10	1	-1E+10	1
4901784	36	C	06/29/2016	10:34	-132.355	44.783	0	600.30	0	4.4370	0	34.1150	0	27.041	0	594.577	0	24.3	4	7.7	4	-1E+10	1	-1E+10	1	-1E+10	1	-1E+10	1	-1E+10	1	-1E+10	1
4901784	36	C	06/29/2016	10:34	-132.355	44.783	0	605.50	0	4.4130	0	34.1180	0	27.046	0	599.720	0	23.5	4	7.5	4	-1E+10	1	-1E+10	1	-1E+10	1	-1E+10	1	-1E+10	1	-1E+10	1
4901784	36	C	06/29/2016	10:34	-132.355	44.783	0	610.00	0	4.4150	0	34.1250	0	27.052	0	604.171	0	22.2	4	7.1	4	-1E+10	1	-1E+10	1	-1E+10	1	-1E+10	1	-1E+10	1	-1E+10	1
4901784	36	C	06/29/2016	10:34	-132.355	44.783	0	614.40	0	4.4080	0	34.1320	0	27.058	0	608.522	0	21.5	4	6.8	4	-1E+10	1	-1E+10	1	-1E+10	1	-1E+10	1	-1E+10	1	-1E+10	1
4901784	36	C	06/29/2016	10:34	-132.355	44.783	0	619.70	0	4.3790	0	34.1390	0	27.067	0	613.764	0	20.7	4	6.6	4	-1E+10	1	-1E+10	1	-1E+10	1	-1E+10	1	-1E+10	1	-1E+10	1
4901784	36	C	06/29/2016	10:34	-132.355	44.783	0	625.00	0	4.3550	0	34.1450	0	27.074	0	619.005	0	20.2	4	6.4	4	-1E+10	1	-1E+10	1	-1E+10	1	-1E+10	1	-1E+10	1	-1E+10	1
4901784	36	C	06/29/2016	10:34	-132.355	44.783	0	630.20	0	4.3400	0	34.1480	0	27.078	0	624.147	0	19.7	4	6.3	4	-1E+10	1	-1E+10	1	-1E+10	1	-1E+10	1	-1E+10	1	-1E+10	1
4901784	36	C	06/29/2016	10:34	-132.355	44.783	0	635.60	0	4.3110	0	34.1540	0	27.086	0	629.487	0	19.3	4	6.1	4	-1E+10	1	-1E+10	1	-1E+10	1	-1E+10	1	-1E+10	1	-1E+10	1
4901784	36	C	06/29/2016	10:34	-132.355	44.783	0	640.00	0	4.2900	0	34.1580	0	27.091	0	633.838	0	19.0	4	6.0	4	-1E+10	1	-1E+10	1	-1E+10	1	-1E+10	1	-1E+10	1	-1E+10	1
4901784	36	C	06/29/2016	10:34	-132.355	44.783	0	644.50	0	4.2760	0	34.1610	0	27.095	0	638.288	0	18.7	4	6.0	4	-1E+10	1	-1E+10	1	-1E+10	1	-1E+10	1	-1E+10	1	-1E+10	1
4901784	36	C	06/29/2016	10:34	-132.355	44.783	0	649.90	0	4.2670	0	34.1630	0	27.098	0	643.628	0	18.4	4	5.9	4	-1E+10	1	-1E+10	1	-1E+10	1	-1E+10	1	-1E+10	1	-1E+10	1
4901784	36	C	06/29/2016	10:34	-132.355	44.783	0	655.40	0	4.2420	0	34.1680	0	27.104	0	649.066	0	18.0	4	5.7	4	-1E+10	1	-1E+10	1	-1E+10	1	-1E+10	1	-1E+10	1	-1E+10	1
4901784	36	C	06/29/2016	10:34	-132.355	44.783	0	659.90	0	4.2290	0	34.1710	0	27.108	0	653.515	0	17.7	4	5.6	4	-1E+10	1	-1E+10	1	-1E+10	1	-1E+10	1	-1E+10	1	-1E+10	1
4901784	36	C	06/29/2016	10:34	-132.355	44.783	0	664.50	0	4.2110	0	34.1750	0	27.113	0	658.064	0	17.4	4	5.5	4	-1E+10	1	-1E+10	1	-1E+10	1	-1E+10	1	-1E+10	1	-1E+10	1
4901784	36	C	06/29/2016	10:34	-132.355	44.783	0	669.90	0	4.1920	0	34.1790	0	27.118	0	663.403	0	17.1	4	5.4	4	-1E+10	1	-1E+10	1	-1E+10	1	-1E+10	1	-1E+10	1	-1E+10	1
4901784	36	C	06/29/2016	10:34	-132.355	44.783	0	675.40	0	4.1840	0	34.1820	0	27.122	0	668.841	0	16.8	4	5.3	4	-1E+10	1	-1E+10	1	-1E+10	1	-1E+10	1	-1E+10	1	-1E+10	1
4901784	36	C	06/29/2016	10:34	-132.355	44.783	0	679.90	0	4.1660	0	34.1870	0	27.128	0	673.290	0	16.5	4	5.2	4	-1E+10	1	-1E+10	1	-1E+10	1	-1E+10	1	-1E+10	1	-1E+10	1
4901784	36	C	06/29/2016	10:34	-132.355	44.783	0	684.50	0	4.1500	0	34.1920	0	27.133	0	677.837	0	16.2	4	5.1	4	-1E+10	1	-1E+10	1	-1E+10	1	-1E+10	1	-1E+10	1	-1E+10	1
4901784	36	C	06/29/2016	10:34	-132.355	44.783	0	689.70	0	4.1420	0	34.1940	0	27.136	0	682.978	0	15.9	4	5.0	4	-1E+10	1	-1E+10	1	-1E+10	1	-1E+10	1	-1E+10	1	-1E+10	1
4901784	36	C	06/29/2016	10:34	-132.355	44.783	0	694.40	0	4.1220	0	34.1980	0	27.141	0	687.625	0	15.7	4	5.0	4	-1E+10	1	-1E+10	1	-1E+10	1	-1E+10	1	-1E+10	1	-1E+10	1
4901784	36	C	06/29/2016	10:34	-132.355	44.783	0	699.20	0	4.1100	0	34.2000	0	27.144	0	692.370	0	15.4	4	4.9	4	-1E+10	1	-1E+10	1	-1E+10	1	-1E+10	1	-1E+10	1	-1E+10	1
4901784	36	C	06/29/2016	10:34	-132.355	44.783	0	704.90	0	4.0880	0	34.2060	0	27.151	0	698.005	0	15.1	4	4.8	4	-1E+10	1	-1E+10	1	-1E+10	1	-1E+10	1	-1E+10	1	-1E+10	1
4901784	36	C	06/29/2016	10:34	-132.355	44.783	0	710.60	0	4.0620	0	34.2130	0	27.159	0	703.639	0	14.7	4	4.7	4	-1E+10	1	-1E+10	1	-1E+10	1	-1E+10	1	-1E+10	1	-1E+10	1
4901784	36	C	06/29/2016	10:34	-132.355	44.783	0	715.50	0	4.0440	0	34.2180	0	27.165	0	708.483	0	14.6	4	4.6	4	-1E+10	1	-1E+10	1	-1E+10	1	-1E+10	1	-1E+10	1	-1E+10	1
4901784	36	C	06/29/2016	10:34	-132.355	44.783	0	720.40	0	4.0270	0	34.2200	0	27.168	0	713.327	0	14.7	4	4.7	4	-1E+10	1	-1E+10	1	-1E+10	1	-1E+10	1	-1E+10	1	-1E+10	1
4901784	36	C	06/29/2016	10:34	-132.355	44.783	0	725.30	0	3.9890	0	34.2200	0	27.172	0	718.170	0	14.9	4	4.7	4	-1E+10	1	-1E+10	1	-1E+10	1	-1E+10	1	-1E+10	1	-1E+10	1
4901784	36	C	06/29/2016	10:34	-132.355	44.783	0	730.30	0	3.9670	0	34.2230	0	27.177	0	723.112	0	14.7	4	4.6	4	-1E+10	1	-1E+10	1	-1E+10	1	-1E+10	1	-1E+10	1	-1E+10	1
4901784	36	C	06/29/2016	10:34	-132.355	44.783	0	735.40	0	3.9490	0	34.2270	0	27.182	0	728.153	0	14.5	4	4.6	4	-1E+10	1	-1E+10	1	-1E+10	1	-1E+10	1	-1E+10	1	-1E+10	1
4901784	36	C	06/29/2016	10:34	-132.355	44.783	0	740.50	0	3.9350	0	34.2310	0	27.187	0	733.194	0	14.2	4	4.5	4	-1E+10	1	-1E+10	1	-1E+10	1	-1E+10	1	-1E+10	1	-1E+10	1
4901784	36	C	06/29/2016	10:34	-132.355	44.783	0	745.60	0	3.9410	0	34.2360	0	27.190	0	738.235	0	13.6	4	4.3	4	-1E+10	1	-1E+10	1	-1E+10	1	-1E+10	1	-1E+10	1	-1E+10	1
4901784	36	C	06/29/2016	10:34	-132.355	44.783	0	750.70	0	3.9570	0	34.2420	0	27.193	0	743.275	0	13.2	4	4.2	4	-1E+10	1	-1E+10	1	-1E+10	1	-1E+10	1	-1E+10	1	-1E+10	1
4901784	36	C	06/29/2016	10:34	-132.355	44.783	0	754.90	0	3.9510	0	34.2470	0	27.198	0	747.426	0	13.0	4	4.1	4	-1E+10	1	-1E+10	1	-1E+10	1	-1E+10	1	-1E+10	1	-1E+10	1
4901784	36	C	06/29/2016	10:34	-132.355	44.783	0	759.30	0	3.9360	0	34.2490	0	27.201	0	751.775	0	13.0	4	4.1	4	-1E+10	1	-1E+10	1	-1E+10	1	-1E+10	1	-1E+10	1	-1E+10	1
4901784	36	C	06/29/2016	10:34	-132.355	44.783	0	764.50	0	3.9310	0	34.2500	0	27.202	0	756.914	0	12.9	4	4.1	4	-1E+10	1	-1E+10	1	-1E+10	1	-1E+10	1	-1E+10	1	-1E+10	1
4901784	36	C	06/29/2016	10:34	-132.355	44.783	0	769.90	0	3.9200	0	34.2530	0	27.206	0	762.250	0	12.8	4	4.0	4	-1E+10	1	-1E+10	1	-1E+10	1	-1E+10	1	-1E+10	1	-1E+10	1
4901784	36	C	06/29/2016	10:34	-132.355	44.783	0	775.20	0	3.9040	0	34.2560	0	27.210	0	767.488	0	12.6	4	4.0	4	-1E+10	1	-1E+10	1	-1E+10	1	-1E+10	1	-1E+10	1	-1E+10	1
4901784	36	C	06/29/2016	10:34	-132.355	44.783	0	780.60	0	3.9080	0	34.2610	0	27.214	0	772.824	0	12.3	4	3.9	4	-1E+10	1	-1E+10	1	-1E+10	1	-1E+10	1	-1E+10	1	-1E+10	1
4901784	36	C	06/29/2016	10:34	-132.355	44.783	0	785.20	0	3.9110	0	34.2650	0	27.216	0	777.370	0	12.1	4	3.8	4	-1E+10	1	-1E+10	1	-1E+10	1	-1E+10	1	-1E+10	1	-1E+10	1
4901784	36	C	06/29/2016	10:34	-132.355	44.783	0	789.80	0	3.9030	0	34.2660	0	27.218	0	781.915	0	12.1	4	3.8	4	-1E+10	1	-1E+10	1	-1E+10	1	-1E+10	1	-1E+10	1	-1E+10	1
4901784	36	C	06/29/2016	10:34	-132.355	44.783	0	795.30	0	3.8900	0	34.2690	0	27.222	0	787.350	0	12.0	4	3.8	4	-1E+10	1	-1E+10	1	-1E+10	1	-1E+10	1	-1E+10	1	-1E+10	1
4901784	36	C	06/29/2016	10:34	-132.355	44.783	0	799.90	0	3.8830	0	34.2730	0	27.226	0	791.895	0	11.8	4	3.7	4	-1E+10	1	-1E+10	1	-1E+10	1	-1E+10	1	-1E+10	1	-1E+10	1
4901784	36	C	06/29/2016	10:34	-132.355	44.783	0	804.50	0	3.8760	0	34.2750	0	27.228	0	796.440	0	11.7	4	3.7	4	-1E+10	1	-1E+10	1	-1E+10	1	-1E+10	1	-1E+10	1	-1E+10	1
4901784	36	C	06/29/2016	10:34	-132.355	44.783	0	810.10	0	3.8650	0	34.2790	0	27.232	0	801.974	0	11.7	4	3.7	4	-1E+10	1	-1E+10	1	-1E+10	1	-1E+10	1	-1E+10	1	-1E+10	1
4901784	36	C	06/29/2016	10:34	-132.355	44.783	0	814.60	0	3.8540	0	34.2810	0	27.235	0	806.420	0	11.7	4	3.7	4	-1E+10	1	-1E+10	1	-1E+10	1	-1E+10	1	-1E+10	1	-1E+10	1
4901784	36	C	06/29/2016	10:34	-132.355	44.783	0	819.20	0	3.8430	0	34.2830	0	27.238	0	810.965	0	11.7	4	3.7	4	-1E+10	1	-1E+10	1	-1E+10	1	-1E+10	1	-1E+10	1	-1E+10	1
4901784	36	C	06/29/2016	10:34	-132.355	44.783	0	824.40	0	3.8170	0	34.2830	0	27.241	0	816.102	0	11.7	4	3.7	4	-1E+10	1	-1E+10	1	-1E+10	1	-1E+10	1	-1E+10	1	-1E+10	1
4901784	36	C	06/29/2016	10:34	-132.355	44.783	0	830.00	0	3.7800	0	34.2900	0	27.250	0	821.635	0	11.6	4	3.6	4	-1E+10	1	-1E+10	1	-1E+10	1	-1E+10	1	-1E+10	1	-1E+10	1
4901784	36	C	06/29/2016	10:34	-132.355	44.783	0	835.70	0	3.7670	0	34.2970	0	27.257	0	827.266	0	11.4	4	3.6	4	-1E+10	1	-1E+10	1	-1E+10	1	-1E+10	1	-1E+10	1	-1E+10	1
4901784	36	C	06/29/2016	10:34	-132.355	44.783	0	840.60	0	3.7610	0	34.3010	0	27.261	0	832.107	0	11.3	4	3.6	4	-1E+10	1	-1E+10	1	-1E+10	1	-1E+10	1	-1E+10	1	-1E+10	1
4901784	36	C	06/29/2016	10:34	-132.355	44.783	0	845.60	0	3.7540	0	34.3040	0	27.264	0	837.046	0	11.3	4	3.5	4	-1E+10	1	-1E+10	1	-1E+10	1	-1E+10	1	-1E+10	1	-1E+10	1
4901784	36	C	06/29/2016	10:34	-132.355	44.783	0	850.60	0	3.7350	0	34.3080	0	27.269	0	841.986	0	11.2	4	3.5	4	-1E+10	1	-1E+10	1	-1E+10	1	-1E+10	1	-1E+10	1	-1E+10	1
4901784	36	C	06/29/2016	10:34	-132.355	44.783	0	855.50	0	3.7240	0	34.3110	0	27.272	0	846.826	0	11.3	4	3.5	4	-1E+10	1	-1E+10	1	-1E+10	1	-1E+10	1	-1E+10	1	-1E+10	1
4901784	36	C	06/29/2016	10:34	-132.355	44.783	0	860.40	0	3.7150	0	34.3130	0	27.275	0	851.667	0	11.3	4	3.5	4	-1E+10	1	-1E+10	1	-1E+10	1	-1E+10	1	-1E+10	1	-1E+10	1
4901784	36	C	06/29/2016	10:34	-132.355	44.783	0	865.40	0	3.7090	0	34.3140	0	27.276	0	856.606	0	11.3	4	3.6	4	-1E+10	1	-1E+10	1	-1E+10	1	-1E+10	1	-1E+10	1	-1E+10	1
4901784	36	C	06/29/2016	10:34	-132.355	44.783	0	870.40	0	3.6990	0	34.3150	0	27.278	0	861.545	0	11.5	4	3.6	4	-1E+10	1	-1E+10	1	-1E+10	1	-1E+10	1	-1E+10	1	-1E+10	1
4901784	36	C	06/29/2016	10:34	-132.355	44.783	0	875.40	0	3.6490	0	34.3150	0	27.283	0	866.483	0	11.8	4	3.7	4	-1E+10	1	-1E+10	1	-1E+10	1	-1E+10	1	-1E+10	1	-1E+10	1
4901784	36	C	06/29/2016	10:34	-132.355	44.783	0	880.50	0	3.6110	0	34.3140	0	27.286	0	871.521	0	11.8	4	3.7	4	-1E+10	1	-1E+10	1	-1E+10	1	-1E+10	1	-1E+10	1	-1E+10	1
4901784	36	C	06/29/2016	10:34	-132.355	44.783	0	885.60	0	3.5960	0	34.3170	0	27.290	0	876.558	0	11.7	4	3.7	4	-1E+10	1	-1E+10	1	-1E+10	1	-1E+10	1	-1E+10	1	-1E+10	1
4901784	36	C	06/29/2016	10:34	-132.355	44.783	0	890.70	0	3.6070	0	34.3240	0	27.294	0	881.595	0	11.3	4	3.5	4	-1E+10	1	-1E+10	1	-1E+10	1	-1E+10	1	-1E+10	1	-1E+10	1
4901784	36	C	06/29/2016	10:34	-132.355	44.783	0	895.80	0	3.6150	0	34.3280	0	27.297	0	886.632	0	11.3	4	3.5	4	-1E+10	1	-1E+10	1	-1E+10	1	-1E+10	1	-1E+10	1	-1E+10	1
4901784	36	C	06/29/2016	10:34	-132.355	44.783	0	900.00	0	3.6100	0	34.3310	0	27.300	0	890.780	0	11.3	4	3.5	4	-1E+10	1	-1E+10	1	-1E+10	1	-1E+10	1	-1E+10	1	-1E+10	1
4901784	36	C	06/29/2016	10:34	-132.355	44.783	0	904.30	0	3.6040	0	34.3340	0	27.303	0	895.027	0	11.4	4	3.6	4	-1E+10	1	-1E+10	1	-1E+10	1	-1E+10	1	-1E+10	1	-1E+10	1
4901784	36	C	06/29/2016	10:34	-132.355	44.783	0	909.40	0	3.5870	0	34.3350	0	27.305	0	900.064	0	11.5	4	3.6	4	-1E+10	1	-1E+10	1	-1E+10	1	-1E+10	1	-1E+10	1	-1E+10	1
4901784	36	C	06/29/2016	10:34	-132.355	44.783	0	914.70	0	3.5760	0	34.3380	0	27.309	0	905.298	0	11.6	4	3.6	4	-1E+10	1	-1E+10	1	-1E+10	1	-1E+10	1	-1E+10	1	-1E+10	1
4901784	36	C	06/29/2016	10:34	-132.355	44.783	0	919.90	0	3.5680	0	34.3400	0	27.311	0	910.433	0	11.7	4	3.6	4	-1E+10	1	-1E+10	1	-1E+10	1	-1E+10	1	-1E+10	1	-1E+10	1
4901784	36	C	06/29/2016	10:34	-132.355	44.783	0	925.20	0	3.5350	0	34.3380	0	27.313	0	915.667	0	11.8	4	3.7	4	-1E+10	1	-1E+10	1	-1E+10	1	-1E+10	1	-1E+10	1	-1E+10	1
4901784	36	C	06/29/2016	10:34	-132.355	44.783	0	930.40	0	3.5070	0	34.3380	0	27.315	0	920.802	0	11.8	4	3.7	4	-1E+10	1	-1E+10	1	-1E+10	1	-1E+10	1	-1E+10	1	-1E+10	1
4901784	36	C	06/29/2016	10:34	-132.355	44.783	0	934.90	0	3.5090	0	34.3420	0	27.318	0	925.246	0	11.8	4	3.7	4	-1E+10	1	-1E+10	1	-1E+10	1	-1E+10	1	-1E+10	1	-1E+10	1
4901784	36	C	06/29/2016	10:34	-132.355	44.783	0	939.30	0	3.5050	0	34.3450	0	27.321	0	929.590	0	11.8	4	3.7	4	-1E+10	1	-1E+10	1	-1E+10	1	-1E+10	1	-1E+10	1	-1E+10	1
4901784	36	C	06/29/2016	10:34	-132.355	44.783	0	944.80	0	3.5020	0	34.3510	0	27.326	0	935.021	0	11.7	4	3.7	4	-1E+10	1	-1E+10	1	-1E+10	1	-1E+10	1	-1E+10	1	-1E+10	1
4901784	36	C	06/29/2016	10:34	-132.355	44.783	0	950.20	0	3.5040	0	34.3560	0	27.330	0	940.353	0	11.7	4	3.6	4	-1E+10	1	-1E+10	1	-1E+10	1	-1E+10	1	-1E+10	1	-1E+10	1
4901784	36	C	06/29/2016	10:34	-132.355	44.783	0	955.60	0	3.4960	0	34.3590	0	27.333	0	945.685	0	11.6	4	3.6	4	-1E+10	1	-1E+10	1	-1E+10	1	-1E+10	1	-1E+10	1	-1E+10	1
4901784	36	C	06/29/2016	10:34	-132.355	44.783	0	960.10	0	3.4880	0	34.3630	0	27.337	0	950.128	0	11.5	4	3.6	4	-1E+10	1	-1E+10	1	-1E+10	1	-1E+10	1	-1E+10	1	-1E+10	1
4901784	36	C	06/29/2016	10:34	-132.355	44.783	0	964.60	0	3.4780	0	34.3640	0	27.339	0	954.571	0	11.5	4	3.6	4	-1E+10	1	-1E+10	1	-1E+10	1	-1E+10	1	-1E+10	1	-1E+10	1
4901784	36	C	06/29/2016	10:34	-132.355	44.783	0	970.00	0	3.4600	0	34.3660	0	27.343	0	959.903	0	11.6	4	3.6	4	-1E+10	1	-1E+10	1	-1E+10	1	-1E+10	1	-1E+10	1	-1E+10	1
4901784	36	C	06/29/2016	10:34	-132.355	44.783	0	975.50	0	3.4310	0	34.3660	0	27.345	0	965.333	0	11.6	4	3.6	4	-1E+10	1	-1E+10	1	-1E+10	1	-1E+10	1	-1E+10	1	-1E+10	1
4901784	36	C	06/29/2016	10:34	-132.355	44.783	0	980.10	0	3.4210	0	34.3680	0	27.348	0	969.874	0	11.6	4	3.6	4	-1E+10	1	-1E+10	1	-1E+10	1	-1E+10	1	-1E+10	1	-1E+10	1
4901784	36	C	06/29/2016	10:34	-132.355	44.783	0	984.60	0	3.4140	0	34.3710	0	27.351	0	974.317	0	11.7	4	3.6	4	-1E+10	1	-1E+10	1	-1E+10	1	-1E+10	1	-1E+10	1	-1E+10	1
4901784	36	C	06/29/2016	10:34	-132.355	44.783	0	990.10	0	3.4080	0	34.3730	0	27.353	0	979.747	0	11.7	4	3.7	4	-1E+10	1	-1E+10	1	-1E+10	1	-1E+10	1	-1E+10	1	-1E+10	1
4901784	36	C	06/29/2016	10:34	-132.355	44.783	0	995.60	0	3.3930	0	34.3750	0	27.356	0	985.176	0	11.8	4	3.7	4	-1E+10	1	-1E+10	1	-1E+10	1	-1E+10	1	-1E+10	1	-1E+10	1
4901784	36	C	06/29/2016	10:34	-132.355	44.783	0	1000.20	0	3.3790	0	34.3780	0	27.360	0	989.717	0	11.9	4	3.7	4	-1E+10	1	-1E+10	1	-1E+10	1	-1E+10	1	-1E+10	1	-1E+10	1
4901784	36	C	06/29/2016	10:34	-132.355	44.783	0	1004.80	0	3.3690	0	34.3800	0	27.363	0	994.258	0	11.9	4	3.7	4	-1E+10	1	-1E+10	1	-1E+10	1	-1E+10	1	-1E+10	1	-1E+10	1
4901784	36	C	06/29/2016	10:34	-132.355	44.783	0	1010.40	0	3.3590	0	34.3840	0	27.367	0	999.786	0	12.0	4	3.7	4	-1E+10	1	-1E+10	1	-1E+10	1	-1E+10	1	-1E+10	1	-1E+10	1
4901784	36	C	06/29/2016	10:34	-132.355	44.783	0	1014.90	0	3.3540	0	34.3880	0	27.370	0	1004.228	0	12.0	4	3.7	4	-1E+10	1	-1E+10	1	-1E+10	1	-1E+10	1	-1E+10	1	-1E+10	1
4901784	36	C	06/29/2016	10:34	-132.355	44.783	0	1019.50	0	3.3530	0	34.3890	0	27.371	0	1008.768	0	12.1	4	3.8	4	-1E+10	1	-1E+10	1	-1E+10	1	-1E+10	1	-1E+10	1	-1E+10	1
4901784	36	C	06/29/2016	10:34	-132.355	44.783	0	1025.00	0	3.3480	0	34.3910	0	27.373	0	1014.197	0	12.3	4	3.8	4	-1E+10	1	-1E+10	1	-1E+10	1	-1E+10	1	-1E+10	1	-1E+10	1
4901784	36	C	06/29/2016	10:34	-132.355	44.783	0	1030.60	0	3.3350	0	34.3950	0	27.378	0	1019.725	0	12.4	4	3.9	4	-1E+10	1	-1E+10	1	-1E+10	1	-1E+10	1	-1E+10	1	-1E+10	1
4901784	36	C	06/29/2016	10:34	-132.355	44.783	0	1035.20	0	3.3260	0	34.3980	0	27.381	0	1024.265	0	12.5	4	3.9	4	-1E+10	1	-1E+10	1	-1E+10	1	-1E+10	1	-1E+10	1	-1E+10	1
4901784	36	C	06/29/2016	10:34	-132.355	44.783	0	1039.90	0	3.3240	0	34.4000	0	27.383	0	1028.904	0	12.7	4	3.9	4	-1E+10	1	-1E+10	1	-1E+10	1	-1E+10	1	-1E+10	1	-1E+10	1
4901784	36	C	06/29/2016	10:34	-132.355	44.783	0	1045.60	0	3.2990	0	34.4000	0	27.385	0	1034.529	0	12.9	4	4.0	4	-1E+10	1	-1E+10	1	-1E+10	1	-1E+10	1	-1E+10	1	-1E+10	1
4901784	36	C	06/29/2016	10:34	-132.355	44.783	0	1050.40	0	3.2800	0	34.4000	0	27.387	0	1039.267	0	13.2	4	4.1	4	-1E+10	1	-1E+10	1	-1E+10	1	-1E+10	1	-1E+10	1	-1E+10	1
4901784	36	C	06/29/2016	10:34	-132.355	44.783	0	1054.90	0	3.2910	0	34.4050	0	27.390	0	1043.708	0	13.6	4	4.2	4	-1E+10	1	-1E+10	1	-1E+10	1	-1E+10	1	-1E+10	1	-1E+10	1
4901784	36	C	06/29/2016	10:34	-132.355	44.783	0	1059.60	0	3.2820	0	34.4080	0	27.393	0	1048.346	0	14.1	4	4.4	4	-1E+10	1	-1E+10	1	-1E+10	1	-1E+10	1	-1E+10	1	-1E+10	1
4901784	36	C	06/29/2016	10:34	-132.355	44.783	0	1064.50	0	3.2880	0	34.4130	0	27.397	0	1053.182	0	14.5	4	4.5	4	-1E+10	1	-1E+10	1	-1E+10	1	-1E+10	1	-1E+10	1	-1E+10	1
4901784	36	C	06/29/2016	10:34	-132.355	44.783	0	1069.40	0	3.2770	0	34.4140	0	27.399	0	1058.017	0	14.4	4	4.5	4	-1E+10	1	-1E+10	1	-1E+10	1	-1E+10	1	-1E+10	1	-1E+10	1
4901784	36	C	06/29/2016	10:34	-132.355	44.783	0	1074.40	0	3.2690	0	34.4140	0	27.400	0	1062.952	0	14.5	4	4.5	4	-1E+10	1	-1E+10	1	-1E+10	1	-1E+10	1	-1E+10	1	-1E+10	1
4901784	36	C	06/29/2016	10:34	-132.355	44.783	0	1079.30	0	3.2610	0	34.4140	0	27.400	0	1067.787	0	14.6	4	4.5	4	-1E+10	1	-1E+10	1	-1E+10	1	-1E+10	1	-1E+10	1	-1E+10	1
4901784	36	C	06/29/2016	10:34	-132.355	44.783	0	1084.20	0	3.2530	0	34.4160	0	27.403	0	1072.622	0	14.8	4	4.6	4	-1E+10	1	-1E+10	1	-1E+10	1	-1E+10	1	-1E+10	1	-1E+10	1
4901784	36	C	06/29/2016	10:34	-132.355	44.783	0	1090.00	0	3.2380	0	34.4190	0	27.406	0	1078.345	0	14.9	4	4.6	4	-1E+10	1	-1E+10	1	-1E+10	1	-1E+10	1	-1E+10	1	-1E+10	1
4901784	36	C	06/29/2016	10:34	-132.355	44.783	0	1095.60	0	3.2210	0	34.4200	0	27.409	0	1083.871	0	15.0	4	4.6	4	-1E+10	1	-1E+10	1	-1E+10	1	-1E+10	1	-1E+10	1	-1E+10	1
4901784	36	C	06/29/2016	10:34	-132.355	44.783	0	1100.60	0	3.2130	0	34.4210	0	27.410	0	1088.804	0	15.0	4	4.6	4	-1E+10	1	-1E+10	1	-1E+10	1	-1E+10	1	-1E+10	1	-1E+10	1
4901784	36	C	06/29/2016	10:34	-132.355	44.783	0	1105.60	0	3.2060	0	34.4210	0	27.411	0	1093.738	0	14.9	4	4.6	4	-1E+10	1	-1E+10	1	-1E+10	1	-1E+10	1	-1E+10	1	-1E+10	1
4901784	36	C	06/29/2016	10:34	-132.355	44.783	0	1110.10	0	3.1960	0	34.4230	0	27.414	0	1098.178	0	15.0	4	4.6	4	-1E+10	1	-1E+10	1	-1E+10	1	-1E+10	1	-1E+10	1	-1E+10	1
4901784	36	C	06/29/2016	10:34	-132.355	44.783	0	1114.70	0	3.1890	0	34.4230	0	27.414	0	1102.716	0	14.9	4	4.6	4	-1E+10	1	-1E+10	1	-1E+10	1	-1E+10	1	-1E+10	1	-1E+10	1
4901784	36	C	06/29/2016	10:34	-132.355	44.783	0	1120.20	0	3.1740	0	34.4240	0	27.417	0	1108.143	0	14.8	4	4.6	4	-1E+10	1	-1E+10	1	-1E+10	1	-1E+10	1	-1E+10	1	-1E+10	1
4901784	36	C	06/29/2016	10:34	-132.355	44.783	0	1124.80	0	3.1510	0	34.4230	0	27.418	0	1112.681	0	14.6	4	4.5	4	-1E+10	1	-1E+10	1	-1E+10	1	-1E+10	1	-1E+10	1	-1E+10	1
4901784	36	C	06/29/2016	10:34	-132.355	44.783	0	1129.40	0	3.1370	0	34.4240	0	27.420	0	1117.219	0	14.5	4	4.5	4	-1E+10	1	-1E+10	1	-1E+10	1	-1E+10	1	-1E+10	1	-1E+10	1
4901784	36	C	06/29/2016	10:34	-132.355	44.783	0	1135.10	0	3.1250	0	34.4230	0	27.420	0	1122.842	0	14.5	4	4.5	4	-1E+10	1	-1E+10	1	-1E+10	1	-1E+10	1	-1E+10	1	-1E+10	1
4901784	36	C	06/29/2016	10:34	-132.355	44.783	0	1139.80	0	3.1230	0	34.4240	0	27.421	0	1127.479	0	14.7	4	4.5	4	-1E+10	1	-1E+10	1	-1E+10	1	-1E+10	1	-1E+10	1	-1E+10	1
4901784	36	C	06/29/2016	10:34	-132.355	44.783	0	1144.50	0	3.1130	0	34.4260	0	27.424	0	1132.116	0	14.9	4	4.6	4	-1E+10	1	-1E+10	1	-1E+10	1	-1E+10	1	-1E+10	1	-1E+10	1
4901784	36	C	06/29/2016	10:34	-132.355	44.783	0	1150.30	0	3.1050	0	34.4280	0	27.426	0	1137.837	0	15.2	4	4.7	4	-1E+10	1	-1E+10	1	-1E+10	1	-1E+10	1	-1E+10	1	-1E+10	1
4901784	36	C	06/29/2016	10:34	-132.355	44.783	0	1155.00	0	3.1030	0	34.4320	0	27.430	0	1142.473	0	15.4	4	4.8	4	-1E+10	1	-1E+10	1	-1E+10	1	-1E+10	1	-1E+10	1	-1E+10	1
4901784	36	C	06/29/2016	10:34	-132.355	44.783	0	1159.80	0	3.0930	0	34.4320	0	27.431	0	1147.208	0	15.4	4	4.8	4	-1E+10	1	-1E+10	1	-1E+10	1	-1E+10	1	-1E+10	1	-1E+10	1
4901784	36	C	06/29/2016	10:34	-132.355	44.783	0	1164.60	0	3.0840	0	34.4330	0	27.432	0	1151.943	0	15.4	4	4.8	4	-1E+10	1	-1E+10	1	-1E+10	1	-1E+10	1	-1E+10	1	-1E+10	1
4901784	36	C	06/29/2016	10:34	-132.355	44.783	0	1169.50	0	3.0770	0	34.4340	0	27.434	0	1156.776	0	15.5	4	4.8	4	-1E+10	1	-1E+10	1	-1E+10	1	-1E+10	1	-1E+10	1	-1E+10	1
4901784	36	C	06/29/2016	10:34	-132.355	44.783	0	1175.40	0	3.0610	0	34.4350	0	27.436	0	1162.596	0	15.7	4	4.8	4	-1E+10	1	-1E+10	1	-1E+10	1	-1E+10	1	-1E+10	1	-1E+10	1
4901784	36	C	06/29/2016	10:34	-132.355	44.783	0	1180.30	0	3.0520	0	34.4370	0	27.438	0	1167.429	0	16.1	4	5.0	4	-1E+10	1	-1E+10	1	-1E+10	1	-1E+10	1	-1E+10	1	-1E+10	1
4901784	36	C	06/29/2016	10:34	-132.355	44.783	0	1185.20	0	3.0540	0	34.4400	0	27.441	0	1172.262	0	16.5	4	5.1	4	-1E+10	1	-1E+10	1	-1E+10	1	-1E+10	1	-1E+10	1	-1E+10	1
4901784	36	C	06/29/2016	10:34	-132.355	44.783	0	1190.10	0	3.0560	0	34.4430	0	27.443	0	1177.095	0	16.9	4	5.2	4	-1E+10	1	-1E+10	1	-1E+10	1	-1E+10	1	-1E+10	1	-1E+10	1
4901784	36	C	06/29/2016	10:34	-132.355	44.783	0	1195.10	0	3.0530	0	34.4450	0	27.445	0	1182.026	0	17.2	4	5.3	4	-1E+10	1	-1E+10	1	-1E+10	1	-1E+10	1	-1E+10	1	-1E+10	1
4901784	36	C	06/29/2016	10:34	-132.355	44.783	0	1200.10	0	3.0550	0	34.4480	0	27.447	0	1186.957	0	17.5	4	5.4	4	-1E+10	1	-1E+10	1	-1E+10	1	-1E+10	1	-1E+10	1	-1E+10	1
4901784	36	C	06/29/2016	10:34	-132.355	44.783	0	1205.10	0	3.0550	0	34.4490	0	27.448	0	1191.888	0	17.8	4	5.5	4	-1E+10	1	-1E+10	1	-1E+10	1	-1E+10	1	-1E+10	1	-1E+10	1
4901784	36	C	06/29/2016	10:34	-132.355	44.783	0	1210.10	0	3.0480	0	34.4510	0	27.450	0	1196.819	0	18.0	4	5.6	4	-1E+10	1	-1E+10	1	-1E+10	1	-1E+10	1	-1E+10	1	-1E+10	1
4901784	36	C	06/29/2016	10:34	-132.355	44.783	0	1215.20	0	3.0470	0	34.4520	0	27.451	0	1201.848	0	18.1	4	5.6	4	-1E+10	1	-1E+10	1	-1E+10	1	-1E+10	1	-1E+10	1	-1E+10	1
4901784	36	C	06/29/2016	10:34	-132.355	44.783	0	1220.30	0	3.0380	0	34.4530	0	27.453	0	1206.878	0	18.3	4	5.6	4	-1E+10	1	-1E+10	1	-1E+10	1	-1E+10	1	-1E+10	1	-1E+10	1
4901784	36	C	06/29/2016	10:34	-132.355	44.783	0	1225.40	0	3.0290	0	34.4550	0	27.455	0	1211.907	0	18.4	4	5.7	4	-1E+10	1	-1E+10	1	-1E+10	1	-1E+10	1	-1E+10	1	-1E+10	1
4901784	36	C	06/29/2016	10:34	-132.355	44.783	0	1230.40	0	3.0200	0	34.4550	0	27.456	0	1216.838	0	18.3	4	5.7	4	-1E+10	1	-1E+10	1	-1E+10	1	-1E+10	1	-1E+10	1	-1E+10	1
4901784	36	C	06/29/2016	10:34	-132.355	44.783	0	1235.40	0	2.9950	0	34.4550	0	27.458	0	1221.768	0	18.3	4	5.6	4	-1E+10	1	-1E+10	1	-1E+10	1	-1E+10	1	-1E+10	1	-1E+10	1
4901784	36	C	06/29/2016	10:34	-132.355	44.783	0	1239.60	0	2.9850	0	34.4560	0	27.460	0	1225.909	0	18.3	4	5.7	4	-1E+10	1	-1E+10	1	-1E+10	1	-1E+10	1	-1E+10	1	-1E+10	1
4901784	36	C	06/29/2016	10:34	-132.355	44.783	0	1244.50	0	2.9680	0	34.4570	0	27.462	0	1230.741	0	18.3	4	5.6	4	-1E+10	1	-1E+10	1	-1E+10	1	-1E+10	1	-1E+10	1	-1E+10	1
4901784	36	C	06/29/2016	10:34	-132.355	44.783	0	1249.40	0	2.9590	0	34.4570	0	27.463	0	1235.572	0	18.4	4	5.7	4	-1E+10	1	-1E+10	1	-1E+10	1	-1E+10	1	-1E+10	1	-1E+10	1
4901784	36	C	06/29/2016	10:34	-132.355	44.783	0	1254.40	0	2.9530	0	34.4580	0	27.465	0	1240.502	0	18.6	4	5.7	4	-1E+10	1	-1E+10	1	-1E+10	1	-1E+10	1	-1E+10	1	-1E+10	1
4901784	36	C	06/29/2016	10:34	-132.355	44.783	0	1259.30	0	2.9440	0	34.4610	0	27.468	0	1245.334	0	18.9	4	5.8	4	-1E+10	1	-1E+10	1	-1E+10	1	-1E+10	1	-1E+10	1	-1E+10	1
4901784	36	C	06/29/2016	10:34	-132.355	44.783	0	1264.30	0	2.9430	0	34.4620	0	27.469	0	1250.263	0	19.1	4	5.9	4	-1E+10	1	-1E+10	1	-1E+10	1	-1E+10	1	-1E+10	1	-1E+10	1
4901784	36	C	06/29/2016	10:34	-132.355	44.783	0	1269.40	0	2.9370	0	34.4630	0	27.470	0	1255.291	0	19.5	4	6.0	4	-1E+10	1	-1E+10	1	-1E+10	1	-1E+10	1	-1E+10	1	-1E+10	1
4901784	36	C	06/29/2016	10:34	-132.355	44.783	0	1274.50	0	2.9340	0	34.4650	0	27.472	0	1260.320	0	19.9	4	6.1	4	-1E+10	1	-1E+10	1	-1E+10	1	-1E+10	1	-1E+10	1	-1E+10	1
4901784	36	C	06/29/2016	10:34	-132.355	44.783	0	1279.70	0	2.9390	0	34.4680	0	27.474	0	1265.446	0	20.5	4	6.3	4	-1E+10	1	-1E+10	1	-1E+10	1	-1E+10	1	-1E+10	1	-1E+10	1
4901784	36	C	06/29/2016	10:34	-132.355	44.783	0	1285.00	0	2.9400	0	34.4710	0	27.476	0	1270.671	0	20.7	4	6.4	4	-1E+10	1	-1E+10	1	-1E+10	1	-1E+10	1	-1E+10	1	-1E+10	1
4901784	36	C	06/29/2016	10:34	-132.355	44.783	0	1290.20	0	2.9300	0	34.4710	0	27.477	0	1275.797	0	20.6	4	6.3	4	-1E+10	1	-1E+10	1	-1E+10	1	-1E+10	1	-1E+10	1	-1E+10	1
4901784	36	C	06/29/2016	10:34	-132.355	44.783	0	1295.40	0	2.9100	0	34.4710	0	27.479	0	1280.923	0	20.6	4	6.3	4	-1E+10	1	-1E+10	1	-1E+10	1	-1E+10	1	-1E+10	1	-1E+10	1
4901784	36	C	06/29/2016	10:34	-132.355	44.783	0	1299.90	0	2.9060	0	34.4720	0	27.480	0	1285.359	0	20.7	4	6.4	4	-1E+10	1	-1E+10	1	-1E+10	1	-1E+10	1	-1E+10	1	-1E+10	1
4901784	36	C	06/29/2016	10:34	-132.355	44.783	0	1304.30	0	2.8980	0	34.4730	0	27.482	0	1289.697	0	20.8	4	6.4	4	-1E+10	1	-1E+10	1	-1E+10	1	-1E+10	1	-1E+10	1	-1E+10	1
4901784	36	C	06/29/2016	10:34	-132.355	44.783	0	1309.60	0	2.8860	0	34.4730	0	27.483	0	1294.921	0	21.0	4	6.5	4	-1E+10	1	-1E+10	1	-1E+10	1	-1E+10	1	-1E+10	1	-1E+10	1
4901784	36	C	06/29/2016	10:34	-132.355	44.783	0	1314.90	0	2.8720	0	34.4750	0	27.486	0	1300.145	0	21.3	4	6.6	4	-1E+10	1	-1E+10	1	-1E+10	1	-1E+10	1	-1E+10	1	-1E+10	1
4901784	36	C	06/29/2016	10:34	-132.355	44.783	0	1320.30	0	2.8640	0	34.4770	0	27.488	0	1305.468	0	21.6	4	6.7	4	-1E+10	1	-1E+10	1	-1E+10	1	-1E+10	1	-1E+10	1	-1E+10	1
4901784	36	C	06/29/2016	10:34	-132.355	44.783	0	1324.80	0	2.8610	0	34.4790	0	27.490	0	1309.904	0	21.8	4	6.7	4	-1E+10	1	-1E+10	1	-1E+10	1	-1E+10	1	-1E+10	1	-1E+10	1
4901784	36	C	06/29/2016	10:34	-132.355	44.783	0	1329.40	0	2.8590	0	34.4800	0	27.491	0	1314.437	0	21.9	4	6.8	4	-1E+10	1	-1E+10	1	-1E+10	1	-1E+10	1	-1E+10	1	-1E+10	1
4901784	36	C	06/29/2016	10:34	-132.355	44.783	0	1334.80	0	2.8570	0	34.4800	0	27.491	0	1319.760	0	22.1	4	6.8	4	-1E+10	1	-1E+10	1	-1E+10	1	-1E+10	1	-1E+10	1	-1E+10	1
4901784	36	C	06/29/2016	10:34	-132.355	44.783	0	1340.40	0	2.8470	0	34.4810	0	27.493	0	1325.279	0	22.2	4	6.8	4	-1E+10	1	-1E+10	1	-1E+10	1	-1E+10	1	-1E+10	1	-1E+10	1
4901784	36	C	06/29/2016	10:34	-132.355	44.783	0	1345.00	0	2.8430	0	34.4820	0	27.494	0	1329.813	0	22.4	4	6.9	4	-1E+10	1	-1E+10	1	-1E+10	1	-1E+10	1	-1E+10	1	-1E+10	1
4901784	36	C	06/29/2016	10:34	-132.355	44.783	0	1349.70	0	2.8420	0	34.4830	0	27.495	0	1334.445	0	22.7	4	7.0	4	-1E+10	1	-1E+10	1	-1E+10	1	-1E+10	1	-1E+10	1	-1E+10	1
4901784	36	C	06/29/2016	10:34	-132.355	44.783	0	1355.40	0	2.8320	0	34.4840	0	27.497	0	1340.062	0	22.9	4	7.0	4	-1E+10	1	-1E+10	1	-1E+10	1	-1E+10	1	-1E+10	1	-1E+10	1
4901784	36	C	06/29/2016	10:34	-132.355	44.783	0	1360.10	0	2.8220	0	34.4860	0	27.499	0	1344.694	0	23.1	4	7.1	4	-1E+10	1	-1E+10	1	-1E+10	1	-1E+10	1	-1E+10	1	-1E+10	1
4901784	36	C	06/29/2016	10:34	-132.355	44.783	0	1364.90	0	2.8140	0	34.4870	0	27.501	0	1349.424	0	23.2	4	7.1	4	-1E+10	1	-1E+10	1	-1E+10	1	-1E+10	1	-1E+10	1	-1E+10	1
4901784	36	C	06/29/2016	10:34	-132.355	44.783	0	1370.60	0	2.8040	0	34.4870	0	27.502	0	1355.041	0	23.4	4	7.2	4	-1E+10	1	-1E+10	1	-1E+10	1	-1E+10	1	-1E+10	1	-1E+10	1
4901784	36	C	06/29/2016	10:34	-132.355	44.783	0	1375.80	0	2.7970	0	34.4890	0	27.504	0	1360.166	0	23.6	4	7.2	4	-1E+10	1	-1E+10	1	-1E+10	1	-1E+10	1	-1E+10	1	-1E+10	1
4901784	36	C	06/29/2016	10:34	-132.355	44.783	0	1380.20	0	2.7950	0	34.4890	0	27.504	0	1364.501	0	23.7	4	7.3	4	-1E+10	1	-1E+10	1	-1E+10	1	-1E+10	1	-1E+10	1	-1E+10	1
4901784	36	C	06/29/2016	10:34	-132.355	44.783	0	1385.10	0	2.7880	0	34.4900	0	27.506	0	1369.330	0	24.0	4	7.4	4	-1E+10	1	-1E+10	1	-1E+10	1	-1E+10	1	-1E+10	1	-1E+10	1
4901784	36	C	06/29/2016	10:34	-132.355	44.783	0	1390.10	0	2.7810	0	34.4920	0	27.508	0	1374.257	0	24.2	4	7.4	4	-1E+10	1	-1E+10	1	-1E+10	1	-1E+10	1	-1E+10	1	-1E+10	1
4901784	36	C	06/29/2016	10:34	-132.355	44.783	0	1395.00	0	2.7730	0	34.4920	0	27.509	0	1379.085	0	24.5	4	7.5	4	-1E+10	1	-1E+10	1	-1E+10	1	-1E+10	1	-1E+10	1	-1E+10	1
4901784	36	C	06/29/2016	10:34	-132.355	44.783	0	1400.00	0	2.7630	0	34.4940	0	27.511	0	1384.011	0	24.7	4	7.6	4	-1E+10	1	-1E+10	1	-1E+10	1	-1E+10	1	-1E+10	1	-1E+10	1
4901784	36	C	06/29/2016	10:34	-132.355	44.783	0	1405.00	0	2.7510	0	34.4950	0	27.513	0	1388.938	0	24.9	4	7.7	4	-1E+10	1	-1E+10	1	-1E+10	1	-1E+10	1	-1E+10	1	-1E+10	1
4901784	36	C	06/29/2016	10:34	-132.355	44.783	0	1410.10	0	2.7460	0	34.4960	0	27.514	0	1393.963	0	25.1	4	7.7	4	-1E+10	1	-1E+10	1	-1E+10	1	-1E+10	1	-1E+10	1	-1E+10	1
4901784	36	C	06/29/2016	10:34	-132.355	44.783	0	1415.10	0	2.7350	0	34.4970	0	27.516	0	1398.889	0	25.2	4	7.7	4	-1E+10	1	-1E+10	1	-1E+10	1	-1E+10	1	-1E+10	1	-1E+10	1
4901784	36	C	06/29/2016	10:34	-132.355	44.783	0	1420.10	0	2.7290	0	34.4970	0	27.516	0	1403.815	0	25.2	4	7.7	4	-1E+10	1	-1E+10	1	-1E+10	1	-1E+10	1	-1E+10	1	-1E+10	1
4901784	36	C	06/29/2016	10:34	-132.355	44.783	0	1425.20	0	2.7260	0	34.4970	0	27.517	0	1408.839	0	25.3	4	7.8	4	-1E+10	1	-1E+10	1	-1E+10	1	-1E+10	1	-1E+10	1	-1E+10	1
4901784	36	C	06/29/2016	10:34	-132.355	44.783	0	1430.20	0	2.7170	0	34.4980	0	27.518	0	1413.765	0	25.4	4	7.8	4	-1E+10	1	-1E+10	1	-1E+10	1	-1E+10	1	-1E+10	1	-1E+10	1
4901784	36	C	06/29/2016	10:34	-132.355	44.783	0	1435.40	0	2.7110	0	34.4980	0	27.519	0	1418.888	0	25.5	4	7.8	4	-1E+10	1	-1E+10	1	-1E+10	1	-1E+10	1	-1E+10	1	-1E+10	1
4901784	36	C	06/29/2016	10:34	-132.355	44.783	0	1440.50	0	2.7070	0	34.4980	0	27.519	0	1423.912	0	25.6	4	7.8	4	-1E+10	1	-1E+10	1	-1E+10	1	-1E+10	1	-1E+10	1	-1E+10	1
4901784	36	C	06/29/2016	10:34	-132.355	44.783	0	1445.60	0	2.7000	0	34.4990	0	27.521	0	1428.936	0	25.6	4	7.9	4	-1E+10	1	-1E+10	1	-1E+10	1	-1E+10	1	-1E+10	1	-1E+10	1
4901784	36	C	06/29/2016	10:34	-132.355	44.783	0	1450.70	0	2.6930	0	34.4990	0	27.521	0	1433.960	0	25.6	4	7.9	4	-1E+10	1	-1E+10	1	-1E+10	1	-1E+10	1	-1E+10	1	-1E+10	1
4901784	36	C	06/29/2016	10:34	-132.355	44.783	0	1455.10	0	2.6790	0	34.5000	0	27.523	0	1438.294	0	25.4	4	7.8	4	-1E+10	1	-1E+10	1	-1E+10	1	-1E+10	1	-1E+10	1	-1E+10	1
4901784	36	C	06/29/2016	10:34	-132.355	44.783	0	1459.40	0	2.6570	0	34.4970	0	27.523	0	1442.530	0	25.1	4	7.7	4	-1E+10	1	-1E+10	1	-1E+10	1	-1E+10	1	-1E+10	1	-1E+10	1
4901784	36	C	06/29/2016	10:34	-132.355	44.783	0	1464.70	0	2.6460	0	34.4970	0	27.524	0	1447.751	0	25.1	4	7.7	4	-1E+10	1	-1E+10	1	-1E+10	1	-1E+10	1	-1E+10	1	-1E+10	1
4901784	36	C	06/29/2016	10:34	-132.355	44.783	0	1470.00	0	2.6330	0	34.4970	0	27.525	0	1452.971	0	25.1	4	7.7	4	-1E+10	1	-1E+10	1	-1E+10	1	-1E+10	1	-1E+10	1	-1E+10	1
4901784	36	C	06/29/2016	10:34	-132.355	44.783	0	1475.30	0	2.6240	0	34.4980	0	27.527	0	1458.191	0	25.4	4	7.8	4	-1E+10	1	-1E+10	1	-1E+10	1	-1E+10	1	-1E+10	1	-1E+10	1
4901784	36	C	06/29/2016	10:34	-132.355	44.783	0	1480.70	0	2.6180	0	34.4990	0	27.528	0	1463.510	0	25.7	4	7.9	4	-1E+10	1	-1E+10	1	-1E+10	1	-1E+10	1	-1E+10	1	-1E+10	1
4901784	36	C	06/29/2016	10:34	-132.355	44.783	0	1485.20	0	2.6020	0	34.5000	0	27.530	0	1467.942	0	25.8	4	7.9	4	-1E+10	1	-1E+10	1	-1E+10	1	-1E+10	1	-1E+10	1	-1E+10	1
4901784	36	C	06/29/2016	10:34	-132.355	44.783	0	1490.00	0	2.5930	0	34.5000	0	27.531	0	1472.670	0	25.8	4	7.9	4	-1E+10	1	-1E+10	1	-1E+10	1	-1E+10	1	-1E+10	1	-1E+10	1
4901784	36	C	06/29/2016	10:34	-132.355	44.783	0	1495.00	0	2.5720	0	34.5000	0	27.533	0	1477.594	0	25.8	4	7.9	4	-1E+10	1	-1E+10	1	-1E+10	1	-1E+10	1	-1E+10	1	-1E+10	1
4901784	36	C	06/29/2016	10:34	-132.355	44.783	0	1499.80	0	2.5670	0	34.5010	0	27.534	0	1482.321	0	26.1	4	8.0	4	-1E+10	1	-1E+10	1	-1E+10	1	-1E+10	1	-1E+10	1	-1E+10	1
4901784	36	C	06/29/2016	10:34	-132.355	44.783	0	1504.60	0	2.5600	0	34.5020	0	27.535	0	1487.049	0	26.5	4	8.1	4	-1E+10	1	-1E+10	1	-1E+10	1	-1E+10	1	-1E+10	1	-1E+10	1
4901784	36	C	06/29/2016	10:34	-132.355	44.783	0	1509.50	0	2.5470	0	34.5040	0	27.538	0	1491.874	0	26.8	4	8.2	4	-1E+10	1	-1E+10	1	-1E+10	1	-1E+10	1	-1E+10	1	-1E+10	1
4901784	36	C	06/29/2016	10:34	-132.355	44.783	0	1514.40	0	2.5290	0	34.5050	0	27.540	0	1496.700	0	26.9	4	8.2	4	-1E+10	1	-1E+10	1	-1E+10	1	-1E+10	1	-1E+10	1	-1E+10	1
4901784	36	C	06/29/2016	10:34	-132.355	44.783	0	1519.40	0	2.5190	0	34.5050	0	27.541	0	1501.623	0	27.2	4	8.3	4	-1E+10	1	-1E+10	1	-1E+10	1	-1E+10	1	-1E+10	1	-1E+10	1
4901784	36	C	06/29/2016	10:34	-132.355	44.783	0	1524.30	0	2.5130	0	34.5060	0	27.543	0	1506.449	0	27.4	4	8.4	4	-1E+10	1	-1E+10	1	-1E+10	1	-1E+10	1	-1E+10	1	-1E+10	1
4901784	36	C	06/29/2016	10:34	-132.355	44.783	0	1529.30	0	2.4970	0	34.5080	0	27.546	0	1511.372	0	27.9	4	8.5	4	-1E+10	1	-1E+10	1	-1E+10	1	-1E+10	1	-1E+10	1	-1E+10	1
4901784	36	C	06/29/2016	10:34	-132.355	44.783	0	1534.30	0	2.4910	0	34.5090	0	27.547	0	1516.296	0	28.2	4	8.6	4	-1E+10	1	-1E+10	1	-1E+10	1	-1E+10	1	-1E+10	1	-1E+10	1
4901784	36	C	06/29/2016	10:34	-132.355	44.783	0	1539.30	0	2.4850	0	34.5100	0	27.548	0	1521.219	0	28.6	4	8.7	4	-1E+10	1	-1E+10	1	-1E+10	1	-1E+10	1	-1E+10	1	-1E+10	1
4901784	36	C	06/29/2016	10:34	-132.355	44.783	0	1544.30	0	2.4760	0	34.5110	0	27.550	0	1526.142	0	28.9	4	8.8	4	-1E+10	1	-1E+10	1	-1E+10	1	-1E+10	1	-1E+10	1	-1E+10	1
4901784	36	C	06/29/2016	10:34	-132.355	44.783	0	1549.30	0	2.4700	0	34.5120	0	27.551	0	1531.065	0	29.1	4	8.9	4	-1E+10	1	-1E+10	1	-1E+10	1	-1E+10	1	-1E+10	1	-1E+10	1
4901784	36	C	06/29/2016	10:34	-132.355	44.783	0	1554.30	0	2.4640	0	34.5130	0	27.552	0	1535.988	0	29.3	4	8.9	4	-1E+10	1	-1E+10	1	-1E+10	1	-1E+10	1	-1E+10	1	-1E+10	1
4901784	36	C	06/29/2016	10:34	-132.355	44.783	0	1559.40	0	2.4570	0	34.5140	0	27.554	0	1541.010	0	29.5	4	9.0	4	-1E+10	1	-1E+10	1	-1E+10	1	-1E+10	1	-1E+10	1	-1E+10	1
4901784	36	C	06/29/2016	10:34	-132.355	44.783	0	1564.40	0	2.4510	0	34.5140	0	27.554	0	1545.933	0	29.7	4	9.1	4	-1E+10	1	-1E+10	1	-1E+10	1	-1E+10	1	-1E+10	1	-1E+10	1
4901784	36	C	06/29/2016	10:34	-132.355	44.783	0	1569.50	0	2.4400	0	34.5150	0	27.556	0	1550.954	0	30.1	4	9.2	4	-1E+10	1	-1E+10	1	-1E+10	1	-1E+10	1	-1E+10	1	-1E+10	1
4901784	36	C	06/29/2016	10:34	-132.355	44.783	0	1574.50	0	2.4290	0	34.5170	0	27.559	0	1555.876	0	30.5	4	9.3	4	-1E+10	1	-1E+10	1	-1E+10	1	-1E+10	1	-1E+10	1	-1E+10	1
4901784	36	C	06/29/2016	10:34	-132.355	44.783	0	1579.50	0	2.4190	0	34.5180	0	27.560	0	1560.799	0	30.7	4	9.3	4	-1E+10	1	-1E+10	1	-1E+10	1	-1E+10	1	-1E+10	1	-1E+10	1
4901784	36	C	06/29/2016	10:34	-132.355	44.783	0	1584.50	0	2.4180	0	34.5180	0	27.560	0	1565.721	0	30.8	4	9.4	4	-1E+10	1	-1E+10	1	-1E+10	1	-1E+10	1	-1E+10	1	-1E+10	1
4901784	36	C	06/29/2016	10:34	-132.355	44.783	0	1589.60	0	2.4160	0	34.5180	0	27.561	0	1570.742	0	31.1	4	9.5	4	-1E+10	1	-1E+10	1	-1E+10	1	-1E+10	1	-1E+10	1	-1E+10	1
4901784	36	C	06/29/2016	10:34	-132.355	44.783	0	1594.70	0	2.4100	0	34.5200	0	27.563	0	1575.762	0	31.4	4	9.6	4	-1E+10	1	-1E+10	1	-1E+10	1	-1E+10	1	-1E+10	1	-1E+10	1
4901784	36	C	06/29/2016	10:34	-132.355	44.783	0	1599.90	0	2.4070	0	34.5220	0	27.565	0	1580.881	0	31.6	4	9.6	4	-1E+10	1	-1E+10	1	-1E+10	1	-1E+10	1	-1E+10	1	-1E+10	1
4901784	36	C	06/29/2016	10:34	-132.355	44.783	0	1605.00	0	2.3940	0	34.5210	0	27.565	0	1585.901	0	31.5	4	9.6	4	-1E+10	1	-1E+10	1	-1E+10	1	-1E+10	1	-1E+10	1	-1E+10	1
4901784	36	C	06/29/2016	10:34	-132.355	44.783	0	1610.10	0	2.3800	0	34.5210	0	27.566	0	1590.921	0	31.7	4	9.6	4	-1E+10	1	-1E+10	1	-1E+10	1	-1E+10	1	-1E+10	1	-1E+10	1
4901784	36	C	06/29/2016	10:34	-132.355	44.783	0	1615.30	0	2.3710	0	34.5220	0	27.568	0	1596.040	0	32.0	4	9.7	4	-1E+10	1	-1E+10	1	-1E+10	1	-1E+10	1	-1E+10	1	-1E+10	1
4901784	36	C	06/29/2016	10:34	-132.355	44.783	0	1620.50	0	2.3620	0	34.5230	0	27.569	0	1601.158	0	32.4	4	9.8	4	-1E+10	1	-1E+10	1	-1E+10	1	-1E+10	1	-1E+10	1	-1E+10	1
4901784	36	C	06/29/2016	10:34	-132.355	44.783	0	1625.80	0	2.3530	0	34.5240	0	27.571	0	1606.375	0	32.8	4	10.0	4	-1E+10	1	-1E+10	1	-1E+10	1	-1E+10	1	-1E+10	1	-1E+10	1
4901784	36	C	06/29/2016	10:34	-132.355	44.783	0	1630.10	0	2.3430	0	34.5250	0	27.572	0	1610.607	0	33.2	4	10.1	4	-1E+10	1	-1E+10	1	-1E+10	1	-1E+10	1	-1E+10	1	-1E+10	1
4901784	36	C	06/29/2016	10:34	-132.355	44.783	0	1634.40	0	2.3300	0	34.5260	0	27.574	0	1614.839	0	33.7	4	10.2	4	-1E+10	1	-1E+10	1	-1E+10	1	-1E+10	1	-1E+10	1	-1E+10	1
4901784	36	C	06/29/2016	10:34	-132.355	44.783	0	1639.70	0	2.3180	0	34.5280	0	27.577	0	1620.056	0	34.3	4	10.4	4	-1E+10	1	-1E+10	1	-1E+10	1	-1E+10	1	-1E+10	1	-1E+10	1
4901784	36	C	06/29/2016	10:34	-132.355	44.783	0	1645.10	0	2.3070	0	34.5300	0	27.579	0	1625.370	0	34.8	4	10.6	4	-1E+10	1	-1E+10	1	-1E+10	1	-1E+10	1	-1E+10	1	-1E+10	1
4901784	36	C	06/29/2016	10:34	-132.355	44.783	0	1650.40	0	2.2930	0	34.5320	0	27.582	0	1630.586	0	35.3	4	10.7	4	-1E+10	1	-1E+10	1	-1E+10	1	-1E+10	1	-1E+10	1	-1E+10	1
4901784	36	C	06/29/2016	10:34	-132.355	44.783	0	1655.70	0	2.2840	0	34.5320	0	27.583	0	1635.802	0	35.7	4	10.8	4	-1E+10	1	-1E+10	1	-1E+10	1	-1E+10	1	-1E+10	1	-1E+10	1
4901784	36	C	06/29/2016	10:34	-132.355	44.783	0	1660.20	0	2.2780	0	34.5340	0	27.585	0	1640.231	0	36.0	4	10.9	4	-1E+10	1	-1E+10	1	-1E+10	1	-1E+10	1	-1E+10	1	-1E+10	1
4901784	36	C	06/29/2016	10:34	-132.355	44.783	0	1664.60	0	2.2740	0	34.5340	0	27.585	0	1644.561	0	36.3	4	11.0	4	-1E+10	1	-1E+10	1	-1E+10	1	-1E+10	1	-1E+10	1	-1E+10	1
4901784	36	C	06/29/2016	10:34	-132.355	44.783	0	1670.00	0	2.2620	0	34.5360	0	27.588	0	1649.875	0	36.7	4	11.1	4	-1E+10	1	-1E+10	1	-1E+10	1	-1E+10	1	-1E+10	1	-1E+10	1
4901784	36	C	06/29/2016	10:34	-132.355	44.783	0	1675.40	0	2.2560	0	34.5360	0	27.589	0	1655.189	0	37.0	4	11.2	4	-1E+10	1	-1E+10	1	-1E+10	1	-1E+10	1	-1E+10	1	-1E+10	1
4901784	36	C	06/29/2016	10:34	-132.355	44.783	0	1679.90	0	2.2500	0	34.5370	0	27.590	0	1659.617	0	37.3	4	11.3	4	-1E+10	1	-1E+10	1	-1E+10	1	-1E+10	1	-1E+10	1	-1E+10	1
4901784	36	C	06/29/2016	10:34	-132.355	44.783	0	1684.40	0	2.2450	0	34.5380	0	27.591	0	1664.045	0	37.6	4	11.4	4	-1E+10	1	-1E+10	1	-1E+10	1	-1E+10	1	-1E+10	1	-1E+10	1
4901784	36	C	06/29/2016	10:34	-132.355	44.783	0	1689.90	0	2.2380	0	34.5390	0	27.592	0	1669.457	0	37.8	4	11.5	4	-1E+10	1	-1E+10	1	-1E+10	1	-1E+10	1	-1E+10	1	-1E+10	1
4901784	36	C	06/29/2016	10:34	-132.355	44.783	0	1695.30	0	2.2310	0	34.5400	0	27.594	0	1674.770	0	38.0	4	11.5	4	-1E+10	1	-1E+10	1	-1E+10	1	-1E+10	1	-1E+10	1	-1E+10	1
4901784	36	C	06/29/2016	10:34	-132.355	44.783	0	1699.90	0	2.2310	0	34.5400	0	27.594	0	1679.296	0	38.2	4	11.6	4	-1E+10	1	-1E+10	1	-1E+10	1	-1E+10	1	-1E+10	1	-1E+10	1
4901784	36	C	06/29/2016	10:34	-132.355	44.783	0	1705.20	0	2.2240	0	34.5410	0	27.595	0	1684.511	0	38.5	4	11.7	4	-1E+10	1	-1E+10	1	-1E+10	1	-1E+10	1	-1E+10	1	-1E+10	1
4901784	36	C	06/29/2016	10:34	-132.355	44.783	0	1710.20	0	2.2210	0	34.5420	0	27.596	0	1689.430	0	38.7	4	11.7	4	-1E+10	1	-1E+10	1	-1E+10	1	-1E+10	1	-1E+10	1	-1E+10	1
4901784	36	C	06/29/2016	10:34	-132.355	44.783	0	1715.10	0	2.2180	0	34.5420	0	27.597	0	1694.251	0	39.0	4	11.8	4	-1E+10	1	-1E+10	1	-1E+10	1	-1E+10	1	-1E+10	1	-1E+10	1
4901784	36	C	06/29/2016	10:34	-132.355	44.783	0	1719.90	0	2.2130	0	34.5430	0	27.598	0	1698.974	0	39.3	4	11.9	4	-1E+10	1	-1E+10	1	-1E+10	1	-1E+10	1	-1E+10	1	-1E+10	1
4901784	36	C	06/29/2016	10:34	-132.355	44.783	0	1724.90	0	2.2070	0	34.5440	0	27.599	0	1703.893	0	39.6	4	12.0	4	-1E+10	1	-1E+10	1	-1E+10	1	-1E+10	1	-1E+10	1	-1E+10	1
4901784	36	C	06/29/2016	10:34	-132.355	44.783	0	1729.90	0	2.2030	0	34.5440	0	27.600	0	1708.812	0	39.9	4	12.1	4	-1E+10	1	-1E+10	1	-1E+10	1	-1E+10	1	-1E+10	1	-1E+10	1
4901784	36	C	06/29/2016	10:34	-132.355	44.783	0	1734.80	0	2.1980	0	34.5450	0	27.601	0	1713.632	0	40.2	4	12.2	4	-1E+10	1	-1E+10	1	-1E+10	1	-1E+10	1	-1E+10	1	-1E+10	1
4901784	36	C	06/29/2016	10:34	-132.355	44.783	0	1739.80	0	2.1930	0	34.5460	0	27.602	0	1718.551	0	40.5	4	12.3	4	-1E+10	1	-1E+10	1	-1E+10	1	-1E+10	1	-1E+10	1	-1E+10	1
4901784	36	C	06/29/2016	10:34	-132.355	44.783	0	1744.80	0	2.1870	0	34.5470	0	27.603	0	1723.470	0	40.9	4	12.4	4	-1E+10	1	-1E+10	1	-1E+10	1	-1E+10	1	-1E+10	1	-1E+10	1
4901784	36	C	06/29/2016	10:34	-132.355	44.783	0	1749.90	0	2.1790	0	34.5480	0	27.605	0	1728.486	0	41.2	4	12.5	4	-1E+10	1	-1E+10	1	-1E+10	1	-1E+10	1	-1E+10	1	-1E+10	1
4901784	36	C	06/29/2016	10:34	-132.355	44.783	0	1755.00	0	2.1750	0	34.5480	0	27.605	0	1733.503	0	41.4	4	12.5	4	-1E+10	1	-1E+10	1	-1E+10	1	-1E+10	1	-1E+10	1	-1E+10	1
4901784	36	C	06/29/2016	10:34	-132.355	44.783	0	1760.10	0	2.1720	0	34.5490	0	27.606	0	1738.520	0	41.6	4	12.6	4	-1E+10	1	-1E+10	1	-1E+10	1	-1E+10	1	-1E+10	1	-1E+10	1
4901784	36	C	06/29/2016	10:34	-132.355	44.783	0	1765.20	0	2.1680	0	34.5500	0	27.607	0	1743.536	0	42.0	4	12.7	4	-1E+10	1	-1E+10	1	-1E+10	1	-1E+10	1	-1E+10	1	-1E+10	1
4901784	36	C	06/29/2016	10:34	-132.355	44.783	0	1770.40	0	2.1660	0	34.5500	0	27.608	0	1748.651	0	42.2	4	12.8	4	-1E+10	1	-1E+10	1	-1E+10	1	-1E+10	1	-1E+10	1	-1E+10	1
4901784	36	C	06/29/2016	10:34	-132.355	44.783	0	1775.60	0	2.1630	0	34.5510	0	27.609	0	1753.766	0	42.5	4	12.9	4	-1E+10	1	-1E+10	1	-1E+10	1	-1E+10	1	-1E+10	1	-1E+10	1
4901784	36	C	06/29/2016	10:34	-132.355	44.783	0	1780.00	0	2.1590	0	34.5510	0	27.609	0	1758.094	0	42.8	4	12.9	4	-1E+10	1	-1E+10	1	-1E+10	1	-1E+10	1	-1E+10	1	-1E+10	1
4901784	36	C	06/29/2016	10:34	-132.355	44.783	0	1784.40	0	2.1530	0	34.5520	0	27.610	0	1762.421	0	43.1	4	13.0	4	-1E+10	1	-1E+10	1	-1E+10	1	-1E+10	1	-1E+10	1	-1E+10	1
4901784	36	C	06/29/2016	10:34	-132.355	44.783	0	1789.80	0	2.1470	0	34.5530	0	27.612	0	1767.732	0	43.5	4	13.2	4	-1E+10	1	-1E+10	1	-1E+10	1	-1E+10	1	-1E+10	1	-1E+10	1
4901784	36	C	06/29/2016	10:34	-132.355	44.783	0	1795.10	0	2.1410	0	34.5540	0	27.613	0	1772.945	0	43.8	4	13.3	4	-1E+10	1	-1E+10	1	-1E+10	1	-1E+10	1	-1E+10	1	-1E+10	1
4901784	36	C	06/29/2016	10:34	-132.355	44.783	0	1800.50	0	2.1340	0	34.5550	0	27.614	0	1778.255	0	44.2	4	13.4	4	-1E+10	1	-1E+10	1	-1E+10	1	-1E+10	1	-1E+10	1	-1E+10	1
4901784	36	C	06/29/2016	10:34	-132.355	44.783	0	1805.00	0	2.1280	0	34.5570	0	27.616	0	1782.681	0	44.6	4	13.5	4	-1E+10	1	-1E+10	1	-1E+10	1	-1E+10	1	-1E+10	1	-1E+10	1
4901784	36	C	06/29/2016	10:34	-132.355	44.783	0	1809.70	0	2.1200	0	34.5580	0	27.618	0	1787.303	0	45.0	4	13.6	4	-1E+10	1	-1E+10	1	-1E+10	1	-1E+10	1	-1E+10	1	-1E+10	1
4901784	36	C	06/29/2016	10:34	-132.355	44.783	0	1814.80	0	2.1140	0	34.5590	0	27.619	0	1792.319	0	45.3	4	13.7	4	-1E+10	1	-1E+10	1	-1E+10	1	-1E+10	1	-1E+10	1	-1E+10	1
4901784	36	C	06/29/2016	10:34	-132.355	44.783	0	1819.60	0	2.1100	0	34.5590	0	27.619	0	1797.039	0	45.6	4	13.8	4	-1E+10	1	-1E+10	1	-1E+10	1	-1E+10	1	-1E+10	1	-1E+10	1
4901784	36	C	06/29/2016	10:34	-132.355	44.783	0	1824.30	0	2.1050	0	34.5600	0	27.621	0	1801.661	0	45.8	4	13.9	4	-1E+10	1	-1E+10	1	-1E+10	1	-1E+10	1	-1E+10	1	-1E+10	1
4901784	36	C	06/29/2016	10:34	-132.355	44.783	0	1830.00	0	2.1010	0	34.5610	0	27.622	0	1807.266	0	46.2	4	14.0	4	-1E+10	1	-1E+10	1	-1E+10	1	-1E+10	1	-1E+10	1	-1E+10	1
4901784	36	C	06/29/2016	10:34	-132.355	44.783	0	1835.70	0	2.0940	0	34.5620	0	27.623	0	1812.870	0	46.6	4	14.1	4	-1E+10	1	-1E+10	1	-1E+10	1	-1E+10	1	-1E+10	1	-1E+10	1
4901784	36	C	06/29/2016	10:34	-132.355	44.783	0	1840.60	0	2.0890	0	34.5620	0	27.624	0	1817.689	0	46.9	4	14.2	4	-1E+10	1	-1E+10	1	-1E+10	1	-1E+10	1	-1E+10	1	-1E+10	1
4901784	36	C	06/29/2016	10:34	-132.355	44.783	0	1845.60	0	2.0840	0	34.5630	0	27.625	0	1822.605	0	47.3	4	14.3	4	-1E+10	1	-1E+10	1	-1E+10	1	-1E+10	1	-1E+10	1	-1E+10	1
4901784	36	C	06/29/2016	10:34	-132.355	44.783	0	1850.50	0	2.0770	0	34.5640	0	27.626	0	1827.423	0	47.7	4	14.4	4	-1E+10	1	-1E+10	1	-1E+10	1	-1E+10	1	-1E+10	1	-1E+10	1
4901784	36	C	06/29/2016	10:34	-132.355	44.783	0	1855.50	0	2.0720	0	34.5640	0	27.627	0	1832.339	0	48.0	4	14.5	4	-1E+10	1	-1E+10	1	-1E+10	1	-1E+10	1	-1E+10	1	-1E+10	1
4901784	36	C	06/29/2016	10:34	-132.355	44.783	0	1860.60	0	2.0690	0	34.5650	0	27.628	0	1837.353	0	48.2	4	14.6	4	-1E+10	1	-1E+10	1	-1E+10	1	-1E+10	1	-1E+10	1	-1E+10	1
4901784	36	C	06/29/2016	10:34	-132.355	44.783	0	1865.70	0	2.0650	0	34.5660	0	27.629	0	1842.367	0	48.4	4	14.6	4	-1E+10	1	-1E+10	1	-1E+10	1	-1E+10	1	-1E+10	1	-1E+10	1
4901784	36	C	06/29/2016	10:34	-132.355	44.783	0	1870.80	0	2.0620	0	34.5660	0	27.629	0	1847.382	0	48.7	4	14.7	4	-1E+10	1	-1E+10	1	-1E+10	1	-1E+10	1	-1E+10	1	-1E+10	1
4901784	36	C	06/29/2016	10:34	-132.355	44.783	0	1875.00	0	2.0600	0	34.5670	0	27.630	0	1851.511	0	48.9	4	14.8	4	-1E+10	1	-1E+10	1	-1E+10	1	-1E+10	1	-1E+10	1	-1E+10	1
4901784	36	C	06/29/2016	10:34	-132.355	44.783	0	1879.30	0	2.0570	0	34.5670	0	27.630	0	1855.738	0	49.0	4	14.8	4	-1E+10	1	-1E+10	1	-1E+10	1	-1E+10	1	-1E+10	1	-1E+10	1
4901784	36	C	06/29/2016	10:34	-132.355	44.783	0	1884.30	0	2.0550	0	34.5670	0	27.630	0	1860.654	0	49.2	4	14.9	4	-1E+10	1	-1E+10	1	-1E+10	1	-1E+10	1	-1E+10	1	-1E+10	1
4901784	36	C	06/29/2016	10:34	-132.355	44.783	0	1889.50	0	2.0510	0	34.5680	0	27.632	0	1865.765	0	49.6	4	15.0	4	-1E+10	1	-1E+10	1	-1E+10	1	-1E+10	1	-1E+10	1	-1E+10	1
4901784	36	C	06/29/2016	10:34	-132.355	44.783	0	1894.70	0	2.0470	0	34.5690	0	27.633	0	1870.877	0	49.8	4	15.0	4	-1E+10	1	-1E+10	1	-1E+10	1	-1E+10	1	-1E+10	1	-1E+10	1
4901784	36	C	06/29/2016	10:34	-132.355	44.783	0	1900.00	0	2.0440	0	34.5690	0	27.633	0	1876.087	0	50.0	4	15.1	4	-1E+10	1	-1E+10	1	-1E+10	1	-1E+10	1	-1E+10	1	-1E+10	1
4901784	36	C	06/29/2016	10:34	-132.355	44.783	0	1905.30	0	2.0400	0	34.5700	0	27.634	0	1881.297	0	50.3	4	15.2	4	-1E+10	1	-1E+10	1	-1E+10	1	-1E+10	1	-1E+10	1	-1E+10	1
4901784	36	C	06/29/2016	10:34	-132.355	44.783	0	1910.60	0	2.0370	0	34.5700	0	27.634	0	1886.507	0	50.6	4	15.3	4	-1E+10	1	-1E+10	1	-1E+10	1	-1E+10	1	-1E+10	1	-1E+10	1
4901784	36	C	06/29/2016	10:34	-132.355	44.783	0	1915.10	0	2.0330	0	34.5710	0	27.636	0	1890.930	0	50.9	4	15.3	4	-1E+10	1	-1E+10	1	-1E+10	1	-1E+10	1	-1E+10	1	-1E+10	1
4901784	36	C	06/29/2016	10:34	-132.355	44.783	0	1919.50	0	2.0290	0	34.5720	0	27.637	0	1895.255	0	51.1	4	15.4	4	-1E+10	1	-1E+10	1	-1E+10	1	-1E+10	1	-1E+10	1	-1E+10	1
4901784	36	C	06/29/2016	10:34	-132.355	44.783	0	1924.90	0	2.0250	0	34.5720	0	27.637	0	1900.563	0	51.3	4	15.5	4	-1E+10	1	-1E+10	1	-1E+10	1	-1E+10	1	-1E+10	1	-1E+10	1
4901784	36	C	06/29/2016	10:34	-132.355	44.783	0	1930.40	0	2.0220	0	34.5730	0	27.638	0	1905.969	0	51.5	4	15.5	4	-1E+10	1	-1E+10	1	-1E+10	1	-1E+10	1	-1E+10	1	-1E+10	1
4901784	36	C	06/29/2016	10:34	-132.355	44.783	0	1934.90	0	2.0200	0	34.5730	0	27.638	0	1910.392	0	51.7	4	15.6	4	-1E+10	1	-1E+10	1	-1E+10	1	-1E+10	1	-1E+10	1	-1E+10	1
4901784	36	C	06/29/2016	10:34	-132.355	44.783	0	1939.40	0	2.0180	0	34.5730	0	27.638	0	1914.814	0	51.9	4	15.6	4	-1E+10	1	-1E+10	1	-1E+10	1	-1E+10	1	-1E+10	1	-1E+10	1
4901784	36	C	06/29/2016	10:34	-132.355	44.783	0	1944.80	0	2.0150	0	34.5740	0	27.640	0	1920.122	0	52.0	4	15.7	4	-1E+10	1	-1E+10	1	-1E+10	1	-1E+10	1	-1E+10	1	-1E+10	1
4901784	36	C	06/29/2016	10:34	-132.355	44.783	0	1950.20	0	2.0130	0	34.5740	0	27.640	0	1925.429	0	52.2	4	15.8	4	-1E+10	1	-1E+10	1	-1E+10	1	-1E+10	1	-1E+10	1	-1E+10	1
4901784	36	C	06/29/2016	10:34	-132.355	44.783	0	1955.70	0	2.0110	0	34.5750	0	27.641	0	1930.834	0	52.4	4	15.8	4	-1E+10	1	-1E+10	1	-1E+10	1	-1E+10	1	-1E+10	1	-1E+10	1
4901784	36	C	06/29/2016	10:34	-132.355	44.783	0	1960.20	0	2.0090	0	34.5750	0	27.641	0	1935.256	0	52.6	4	15.9	4	-1E+10	1	-1E+10	1	-1E+10	1	-1E+10	1	-1E+10	1	-1E+10	1
4901784	36	C	06/29/2016	10:34	-132.355	44.783	0	1964.70	0	2.0080	0	34.5750	0	27.641	0	1939.678	0	52.7	4	15.9	4	-1E+10	1	-1E+10	1	-1E+10	1	-1E+10	1	-1E+10	1	-1E+10	1
4901784	36	C	06/29/2016	10:34	-132.355	44.783	0	1970.20	0	2.0030	0	34.5760	0	27.642	0	1945.083	0	52.9	4	16.0	4	-1E+10	1	-1E+10	1	-1E+10	1	-1E+10	1	-1E+10	1	-1E+10	1
4901784	36	C	06/29/2016	10:34	-132.355	44.783	0	1975.60	0	2.0020	0	34.5760	0	27.642	0	1950.390	0	53.2	4	16.0	4	-1E+10	1	-1E+10	1	-1E+10	1	-1E+10	1	-1E+10	1	-1E+10	1
4901784	36	C	06/29/2016	10:34	-132.355	44.783	0	1980.20	0	1.9980	0	34.5770	0	27.643	0	1954.910	0	53.6	4	16.1	4	-1E+10	1	-1E+10	1	-1E+10	1	-1E+10	1	-1E+10	1	-1E+10	1
4901784	36	C	06/29/2016	10:34	-132.355	44.783	0	1984.70	0	1.9950	0	34.5780	0	27.645	0	1959.332	0	53.8	4	16.2	4	-1E+10	1	-1E+10	1	-1E+10	1	-1E+10	1	-1E+10	1	-1E+10	1
4901784	36	C	06/29/2016	10:34	-132.355	44.783	0	1990.20	0	1.9930	0	34.5780	0	27.645	0	1964.736	0	53.9	4	16.3	4	-1E+10	1	-1E+10	1	-1E+10	1	-1E+10	1	-1E+10	1	-1E+10	1
4901784	36	C	06/29/2016	10:34	-132.355	44.783	0	1994.80	0	1.9910	0	34.5780	0	27.645	0	1969.256	0	54.0	4	16.3	4	-1E+10	1	-1E+10	1	-1E+10	1	-1E+10	1	-1E+10	1	-1E+10	1
4901784	36	C	06/29/2016	10:34	-132.355	44.783	0	1999.20	0	1.9890	0	34.5790	0	27.646	0	1973.579	0	54.2	4	16.3	4	-1E+10	1	-1E+10	1	-1E+10	1	-1E+10	1	-1E+10	1	-1E+10	1
4901784	36	C	06/29/2016	10:34	-132.355	44.783	0	2004.50	0	1.9870	0	34.5790	0	27.646	0	1978.787	0	54.4	4	16.4	4	-1E+10	1	-1E+10	1	-1E+10	1	-1E+10	1	-1E+10	1	-1E+10	1
4901784	36	C	06/29/2016	10:34	-132.355	44.783	0	2009.40	0	1.9850	0	34.5790	0	27.646	0	1983.601	0	54.6	4	16.5	4	-1E+10	1	-1E+10	1	-1E+10	1	-1E+10	1	-1E+10	1	-1E+10	1
4901784	36	C	06/29/2016	10:34	-132.355	44.783	0	2015.00	0	1.9820	0	34.5800	0	27.647	0	1989.103	0	55.0	4	16.6	4	-1E+10	1	-1E+10	1	-1E+10	1	-1E+10	1	-1E+10	1	-1E+10	1
4901784	36	C	06/29/2016	10:34	-132.355	44.783	0	2020.70	0	1.9780	0	34.5810	0	27.648	0	1994.703	0	55.4	4	16.7	4	-1E+10	1	-1E+10	1	-1E+10	1	-1E+10	1	-1E+10	1	-1E+10	1
4901784	36	C	06/29/2016	10:34	-132.355	44.783	0																										
4901784	37	C	07/09/2016	10:43	-132.591	44.797	0	2.60	0	14.9640	0	32.7060	0	24.213	0	2.579	0	246.7	4	97.9	4	-1E+10	1	-1E+10	1	-1E+10	1	-1E+10	1	-1E+10	1	-1E+10	1
4901784	37	C	07/09/2016	10:43	-132.591	44.797	0	3.80	0	14.9660	0	32.7060	0	24.212	0	3.769	0	246.6	4	97.9	4	-1E+10	1	-1E+10	1	-1E+10	1	-1E+10	1	-1E+10	1	-1E+10	1
4901784	37	C	07/09/2016	10:43	-132.591	44.797	0	5.40	0	14.9650	0	32.7070	0	24.213	0	5.356	0	246.7	4	97.9	4	-1E+10	1	-1E+10	1	-1E+10	1	-1E+10	1	-1E+10	1	-1E+10	1
4901784	37	C	07/09/2016	10:43	-132.591	44.797	0	7.20	0	14.9680	0	32.7070	0	24.213	0	7.142	0	246.7	4	97.9	4	-1E+10	1	-1E+10	1	-1E+10	1	-1E+10	1	-1E+10	1	-1E+10	1
4901784	37	C	07/09/2016	10:43	-132.591	44.797	0	9.00	0	14.9680	0	32.7060	0	24.212	0	8.927	0	246.4	4	97.8	4	-1E+10	1	-1E+10	1	-1E+10	1	-1E+10	1	-1E+10	1	-1E+10	1
4901784	37	C	07/09/2016	10:43	-132.591	44.797	0	10.80	0	14.9660	0	32.7060	0	24.212	0	10.712	0	246.5	4	97.9	4	-1E+10	1	-1E+10	1	-1E+10	1	-1E+10	1	-1E+10	1	-1E+10	1
4901784	37	C	07/09/2016	10:43	-132.591	44.797	0	12.60	0	14.9660	0	32.7060	0	24.212	0	12.498	0	246.5	4	97.9	4	-1E+10	1	-1E+10	1	-1E+10	1	-1E+10	1	-1E+10	1	-1E+10	1
4901784	37	C	07/09/2016	10:43	-132.591	44.797	0	15.00	0	14.9660	0	32.7050	0	24.212	0	14.878	0	246.3	4	97.8	4	-1E+10	1	-1E+10	1	-1E+10	1	-1E+10	1	-1E+10	1	-1E+10	1
4901784	37	C	07/09/2016	10:43	-132.591	44.797	0	16.70	0	14.9530	0	32.7030	0	24.213	0	16.564	0	246.6	4	97.8	4	-1E+10	1	-1E+10	1	-1E+10	1	-1E+10	1	-1E+10	1	-1E+10	1
4901784	37	C	07/09/2016	10:43	-132.591	44.797	0	18.20	0	14.9000	0	32.7090	0	24.229	0	18.052	0	247.0	4	97.9	4	-1E+10	1	-1E+10	1	-1E+10	1	-1E+10	1	-1E+10	1	-1E+10	1
4901784	37	C	07/09/2016	10:43	-132.591	44.797	0	19.80	0	14.9040	0	32.7080	0	24.228	0	19.639	0	247.1	4	98.0	4	-1E+10	1	-1E+10	1	-1E+10	1	-1E+10	1	-1E+10	1	-1E+10	1
4901784	37	C	07/09/2016	10:43	-132.591	44.797	0	21.30	0	14.8990	0	32.7040	0	24.226	0	21.126	0	247.2	4	98.0	4	-1E+10	1	-1E+10	1	-1E+10	1	-1E+10	1	-1E+10	1	-1E+10	1
4901784	37	C	07/09/2016	10:43	-132.591	44.797	0	22.80	0	14.8600	0	32.7070	0	24.236	0	22.614	0	247.9	4	98.2	4	-1E+10	1	-1E+10	1	-1E+10	1	-1E+10	1	-1E+10	1	-1E+10	1
4901784	37	C	07/09/2016	10:43	-132.591	44.797	0	24.50	0	14.7970	0	32.7130	0	24.254	0	24.300	0	249.2	4	98.6	4	-1E+10	1	-1E+10	1	-1E+10	1	-1E+10	1	-1E+10	1	-1E+10	1
4901784	37	C	07/09/2016	10:43	-132.591	44.797	0	24.80	0	14.7920	0	32.7090	0	24.252	0	24.598	0	249.1	4	98.6	4	-1E+10	1	-1E+10	1	-1E+10	1	-1E+10	1	-1E+10	1	-1E+10	1
4901784	37	C	07/09/2016	10:43	-132.591	44.797	0	25.80	0	14.7600	0	32.7080	0	24.259	0	25.589	0	250.5	4	99.0	4	-1E+10	1	-1E+10	1	-1E+10	1	-1E+10	1	-1E+10	1	-1E+10	1
4901784	37	C	07/09/2016	10:43	-132.591	44.797	0	26.80	0	14.7130	0	32.7010	0	24.263	0	26.581	0	252.1	4	99.6	4	-1E+10	1	-1E+10	1	-1E+10	1	-1E+10	1	-1E+10	1	-1E+10	1
4901784	37	C	07/09/2016	10:43	-132.591	44.797	0	27.70	0	14.5370	0	32.7160	0	24.312	0	27.474	0	253.9	4	100.0	4	-1E+10	1	-1E+10	1	-1E+10	1	-1E+10	1	-1E+10	1	-1E+10	1
4901784	37	C	07/09/2016	10:43	-132.591	44.797	0	28.80	0	14.0990	0	32.7670	0	24.443	0	28.565	0	257.6	4	100.5	4	-1E+10	1	-1E+10	1	-1E+10	1	-1E+10	1	-1E+10	1	-1E+10	1
4901784	37	C	07/09/2016	10:43	-132.591	44.797	0	30.00	0	13.4210	0	32.8250	0	24.626	0	29.755	0	261.2	4	100.6	4	-1E+10	1	-1E+10	1	-1E+10	1	-1E+10	1	-1E+10	1	-1E+10	1
4901784	37	C	07/09/2016	10:43	-132.591	44.797	0	31.40	0	12.7620	0	32.8290	0	24.759	0	31.143	0	266.0	4	101.1	4	-1E+10	1	-1E+10	1	-1E+10	1	-1E+10	1	-1E+10	1	-1E+10	1
4901784	37	C	07/09/2016	10:43	-132.591	44.797	0	33.00	0	12.4340	0	32.8250	0	24.820	0	32.730	0	267.9	4	101.1	4	-1E+10	1	-1E+10	1	-1E+10	1	-1E+10	1	-1E+10	1	-1E+10	1
4901784	37	C	07/09/2016	10:43	-132.591	44.797	0	34.60	0	12.1530	0	32.8400	0	24.885	0	34.317	0	269.0	4	101.0	4	-1E+10	1	-1E+10	1	-1E+10	1	-1E+10	1	-1E+10	1	-1E+10	1
4901784	37	C	07/09/2016	10:43	-132.591	44.797	0	36.30	0	12.0090	0	32.8300	0	24.904	0	36.003	0	270.0	4	101.0	4	-1E+10	1	-1E+10	1	-1E+10	1	-1E+10	1	-1E+10	1	-1E+10	1
4901784	37	C	07/09/2016	10:43	-132.591	44.797	0	37.90	0	11.9210	0	32.8290	0	24.919	0	37.590	0	269.3	4	100.6	4	-1E+10	1	-1E+10	1	-1E+10	1	-1E+10	1	-1E+10	1	-1E+10	1
4901784	37	C	07/09/2016	10:43	-132.591	44.797	0	39.70	0	11.8580	0	32.8320	0	24.934	0	39.375	0	269.0	4	100.3	4	-1E+10	1	-1E+10	1	-1E+10	1	-1E+10	1	-1E+10	1	-1E+10	1
4901784	37	C	07/09/2016	10:43	-132.591	44.797	0	41.40	0	11.7340	0	32.8390	0	24.962	0	41.061	0	268.4	4	99.8	4	-1E+10	1	-1E+10	1	-1E+10	1	-1E+10	1	-1E+10	1	-1E+10	1
4901784	37	C	07/09/2016	10:43	-132.591	44.797	0	43.20	0	11.6760	0	32.8500	0	24.981	0	42.846	0	267.8	4	99.5	4	-1E+10	1	-1E+10	1	-1E+10	1	-1E+10	1	-1E+10	1	-1E+10	1
4901784	37	C	07/09/2016	10:43	-132.591	44.797	0	44.90	0	11.6180	0	32.8520	0	24.993	0	44.532	0	266.8	4	99.0	4	-1E+10	1	-1E+10	1	-1E+10	1	-1E+10	1	-1E+10	1	-1E+10	1
4901784	37	C	07/09/2016	10:43	-132.591	44.797	0	46.70	0	11.4800	0	32.8560	0	25.022	0	46.317	0	266.0	4	98.5	4	-1E+10	1	-1E+10	1	-1E+10	1	-1E+10	1	-1E+10	1	-1E+10	1
4901784	37	C	07/09/2016	10:43	-132.591	44.797	0	48.50	0	11.3250	0	32.8590	0	25.052	0	48.102	0	264.9	4	97.7	4	-1E+10	1	-1E+10	1	-1E+10	1	-1E+10	1	-1E+10	1	-1E+10	1
4901784	37	C	07/09/2016	10:43	-132.591	44.797	0	50.20	0	11.2260	0	32.8550	0	25.067	0	49.787	0	263.0	4	96.8	4	-1E+10	1	-1E+10	1	-1E+10	1	-1E+10	1	-1E+10	1	-1E+10	1
4901784	37	C	07/09/2016	10:43	-132.591	44.797	0	52.00	0	11.0020	0	32.8620	0	25.112	0	51.572	0	260.4	4	95.4	4	-1E+10	1	-1E+10	1	-1E+10	1	-1E+10	1	-1E+10	1	-1E+10	1
4901784	37	C	07/09/2016	10:43	-132.591	44.797	0	53.80	0	10.8200	0	32.8650	0	25.147	0	53.357	0	259.0	4	94.5	4	-1E+10	1	-1E+10	1	-1E+10	1	-1E+10	1	-1E+10	1	-1E+10	1
4901784	37	C	07/09/2016	10:43	-132.591	44.797	0	55.60	0	10.6920	0	32.8740	0	25.176	0	55.142	0	257.5	4	93.7	4	-1E+10	1	-1E+10	1	-1E+10	1	-1E+10	1	-1E+10	1	-1E+10	1
4901784	37	C	07/09/2016	10:43	-132.591	44.797	0	57.50	0	10.6540	0	32.8790	0	25.186	0	57.026	0	256.5	4	93.3	4	-1E+10	1	-1E+10	1	-1E+10	1	-1E+10	1	-1E+10	1	-1E+10	1
4901784	37	C	07/09/2016	10:43	-132.591	44.797	0	59.40	0	10.6120	0	32.8880	0	25.201	0	58.910	0	255.4	4	92.8	4	-1E+10	1	-1E+10	1	-1E+10	1	-1E+10	1	-1E+10	1	-1E+10	1
4901784	37	C	07/09/2016	10:43	-132.591	44.797	0	61.30	0	10.4750	0	32.8700	0	25.210	0	60.795	0	255.6	4	92.6	4	-1E+10	1	-1E+10	1	-1E+10	1	-1E+10	1	-1E+10	1	-1E+10	1
4901784	37	C	07/09/2016	10:43	-132.591	44.797	0	63.10	0	10.3890	0	32.8640	0	25.220	0	62.579	0	255.4	4	92.4	4	-1E+10	1	-1E+10	1	-1E+10	1	-1E+10	1	-1E+10	1	-1E+10	1
4901784	37	C	07/09/2016	10:43	-132.591	44.797	0	65.10	0	10.3150	0	32.8670	0	25.235	0	64.563	0	255.4	4	92.2	4	-1E+10	1	-1E+10	1	-1E+10	1	-1E+10	1	-1E+10	1	-1E+10	1
4901784	37	C	07/09/2016	10:43	-132.591	44.797	0	66.90	0	10.2370	0	32.8680	0	25.249	0	66.347	0	255.6	4	92.1	4	-1E+10	1	-1E+10	1	-1E+10	1	-1E+10	1	-1E+10	1	-1E+10	1
4901784	37	C	07/09/2016	10:43	-132.591	44.797	0	68.80	0	10.1870	0	32.8730	0	25.262	0	68.231	0	255.3	4	91.9	4	-1E+10	1	-1E+10	1	-1E+10	1	-1E+10	1	-1E+10	1	-1E+10	1
4901784	37	C	07/09/2016	10:43	-132.591	44.797	0	70.60	0	10.0950	0	32.8780	0	25.281	0	70.016	0	255.3	4	91.8	4	-1E+10	1	-1E+10	1	-1E+10	1	-1E+10	1	-1E+10	1	-1E+10	1
4901784	37	C	07/09/2016	10:43	-132.591	44.797	0	72.50	0	10.0410	0	32.8750	0	25.288	0	71.900	0	255.2	4	91.6	4	-1E+10	1	-1E+10	1	-1E+10	1	-1E+10	1	-1E+10	1	-1E+10	1
4901784	37	C	07/09/2016	10:43	-132.591	44.797	0	74.90	0	10.1540	0	32.9120	0	25.298	0	74.280	0	253.7	4	91.3	4	-1E+10	1	-1E+10	1	-1E+10	1	-1E+10	1	-1E+10	1	-1E+10	1
4901784	37	C	07/09/2016	10:43	-132.591	44.797	0	76.70	0	10.0760	0	32.9150	0	25.313	0	76.065	0	253.4	4	91.0	4	-1E+10	1	-1E+10	1	-1E+10	1	-1E+10	1	-1E+10	1	-1E+10	1
4901784	37	C	07/09/2016	10:43	-132.591	44.797	0	78.30	0	10.0420	0	32.9260	0	25.328	0	77.651	0	252.6	4	90.7	4	-1E+10	1	-1E+10	1	-1E+10	1	-1E+10	1	-1E+10	1	-1E+10	1
4901784	37	C	07/09/2016	10:43	-132.591	44.797	0	79.80	0	10.0220	0	32.9300	0	25.334	0	79.138	0	252.0	4	90.4	4	-1E+10	1	-1E+10	1	-1E+10	1	-1E+10	1	-1E+10	1	-1E+10	1
4901784	37	C	07/09/2016	10:43	-132.591	44.797	0	81.40	0	9.9990	0	32.9300	0	25.338	0	80.725	0	251.0	4	90.1	4	-1E+10	1	-1E+10	1	-1E+10	1	-1E+10	1	-1E+10	1	-1E+10	1
4901784	37	C	07/09/2016	10:43	-132.591	44.797	0	82.90	0	9.9710	0	32.9390	0	25.350	0	82.212	0	250.2	4	89.7	4	-1E+10	1	-1E+10	1	-1E+10	1	-1E+10	1	-1E+10	1	-1E+10	1
4901784	37	C	07/09/2016	10:43	-132.591	44.797	0	84.50	0	9.8970	0	32.9320	0	25.357	0	83.798	0	249.2	4	89.2	4	-1E+10	1	-1E+10	1	-1E+10	1	-1E+10	1	-1E+10	1	-1E+10	1
4901784	37	C	07/09/2016	10:43	-132.591	44.797	0	86.10	0	9.8790	0	32.9430	0	25.368	0	85.385	0	247.9	4	88.7	4	-1E+10	1	-1E+10	1	-1E+10	1	-1E+10	1	-1E+10	1	-1E+10	1
4901784	37	C	07/09/2016	10:43	-132.591	44.797	0	87.80	0	9.8640	0	32.9450	0	25.372	0	87.070	0	246.4	4	88.1	4	-1E+10	1	-1E+10	1	-1E+10	1	-1E+10	1	-1E+10	1	-1E+10	1
4901784	37	C	07/09/2016	10:43	-132.591	44.797	0	89.40	0	9.8120	0	32.9590	0	25.392	0	88.657	0	245.0	4	87.6	4	-1E+10	1	-1E+10	1	-1E+10	1	-1E+10	1	-1E+10	1	-1E+10	1
4901784	37	C	07/09/2016	10:43	-132.591	44.797	0	91.10	0	9.8030	0	32.9720	0	25.403	0	90.342	0	243.4	4	87.0	4	-1E+10	1	-1E+10	1	-1E+10	1	-1E+10	1	-1E+10	1	-1E+10	1
4901784	37	C	07/09/2016	10:43	-132.591	44.797	0	92.70	0	9.7270	0	32.9860	0	25.427	0	91.929	0	241.9	4	86.3	4	-1E+10	1	-1E+10	1	-1E+10	1	-1E+10	1	-1E+10	1	-1E+10	1
4901784	37	C	07/09/2016	10:43	-132.591	44.797	0	94.40	0	9.6690	0	33.0090	0	25.454	0	93.614	0	240.6	4	85.7	4	-1E+10	1	-1E+10	1	-1E+10	1	-1E+10	1	-1E+10	1	-1E+10	1
4901784	37	C	07/09/2016	10:43	-132.591	44.797	0	96.10	0	9.6250	0	33.0310	0	25.479	0	95.300	0	239.3	4	85.2	4	-1E+10	1	-1E+10	1	-1E+10	1	-1E+10	1	-1E+10	1	-1E+10	1
4901784	37	C	07/09/2016	10:43	-132.591	44.797	0	97.80	0	9.5910	0	33.0500	0	25.499	0	96.985	0	238.4	4	84.8	4	-1E+10	1	-1E+10	1	-1E+10	1	-1E+10	1	-1E+10	1	-1E+10	1
4901784	37	C	07/09/2016	10:43	-132.591	44.797	0	99.60	0	9.5890	0	33.0520	0	25.501	0	98.770	0	237.6	4	84.6	4	-1E+10	1	-1E+10	1	-1E+10	1	-1E+10	1	-1E+10	1	-1E+10	1
4901784	37	C	07/09/2016	10:43	-132.591	44.797	0	102.10	0	9.5730	0	33.0690	0	25.517	0	101.248	0	235.8	4	83.9	4	-1E+10	1	-1E+10	1	-1E+10	1	-1E+10	1	-1E+10	1	-1E+10	1
4901784	37	C	07/09/2016	10:43	-132.591	44.797	0	104.70	0	9.5520	0	33.0940	0	25.540	0	103.826	0	234.4	4	83.4	4	-1E+10	1	-1E+10	1	-1E+10	1	-1E+10	1	-1E+10	1	-1E+10	1
4901784	37	C	07/09/2016	10:43	-132.591	44.797	0	107.30	0	9.5500	0	33.0960	0	25.542	0	106.403	0	232.8	4	82.8	4	-1E+10	1	-1E+10	1	-1E+10	1	-1E+10	1	-1E+10	1	-1E+10	1
4901784	37	C	07/09/2016	10:43	-132.591	44.797	0	110.00	0	9.5400	0	33.1010	0	25.547	0	109.080	0	230.8	4	82.1	4	-1E+10	1	-1E+10	1	-1E+10	1	-1E+10	1	-1E+10	1	-1E+10	1
4901784	37	C	07/09/2016	10:43	-132.591	44.797	0	112.70	0	9.5150	0	33.1210	0	25.567	0	111.757	0	227.9	4	81.0	4	-1E+10	1	-1E+10	1	-1E+10	1	-1E+10	1	-1E+10	1	-1E+10	1
4901784	37	C	07/09/2016	10:43	-132.591	44.797	0	116.00	0	9.4900	0	33.1470	0	25.592	0	115.028	0	224.0	4	79.6	4	-1E+10	1	-1E+10	1	-1E+10	1	-1E+10	1	-1E+10	1	-1E+10	1
4901784	37	C	07/09/2016	10:43	-132.591	44.797	0	117.90	0	9.4600	0	33.1770	0	25.620	0	116.912	0	221.3	4	78.6	4	-1E+10	1	-1E+10	1	-1E+10	1	-1E+10	1	-1E+10	1	-1E+10	1
4901784	37	C	07/09/2016	10:43	-132.591	44.797	0	120.20	0	9.4070	0	33.2300	0	25.670	0	119.192	0	218.0	4	77.4	4	-1E+10	1	-1E+10	1	-1E+10	1	-1E+10	1	-1E+10	1	-1E+10	1
4901784	37	C	07/09/2016	10:43	-132.591	44.797	0	122.50	0	9.3950	0	33.2420	0	25.681	0	121.472	0	215.2	4	76.4	4	-1E+10	1	-1E+10	1	-1E+10	1	-1E+10	1	-1E+10	1	-1E+10	1
4901784	37	C	07/09/2016	10:43	-132.591	44.797	0	124.70	0	9.3630	0	33.2670	0	25.706	0	123.653	0	211.0	4	74.9	4	-1E+10	1	-1E+10	1	-1E+10	1	-1E+10	1	-1E+10	1	-1E+10	1
4901784	37	C	07/09/2016	10:43	-132.591	44.797	0	127.30	0	9.2820	0	33.3600	0	25.792	0	126.230	0	206.8	4	73.3	4	-1E+10	1	-1E+10	1	-1E+10	1	-1E+10	1	-1E+10	1	-1E+10	1
4901784	37	C	07/09/2016	10:43	-132.591	44.797	0	129.90	0	9.2260	0	33.4140	0	25.843	0	128.807	0	203.7	4	72.1	4	-1E+10	1	-1E+10	1	-1E+10	1	-1E+10	1	-1E+10	1	-1E+10	1
4901784	37	C	07/09/2016	10:43	-132.591	44.797	0	132.50	0	9.1710	0	33.4590	0	25.887	0	131.385	0	200.5	4	70.9	4	-1E+10	1	-1E+10	1	-1E+10	1	-1E+10	1	-1E+10	1	-1E+10	1
4901784	37	C	07/09/2016	10:43	-132.591	44.797	0	135.30	0	9.0980	0	33.5420	0	25.964	0	134.160	0	197.6	4	69.8	4	-1E+10	1	-1E+10	1	-1E+10	1	-1E+10	1	-1E+10	1	-1E+10	1
4901784	37	C	07/09/2016	10:43	-132.591	44.797	0	137.90	0	9.0370	0	33.5770	0	26.001	0	136.737	0	194.9	4	68.8	4	-1E+10	1	-1E+10	1	-1E+10	1	-1E+10	1	-1E+10	1	-1E+10	1
4901784	37	C	07/09/2016	10:43	-132.591	44.797	0	139.60	0	8.9830	0	33.6120	0	26.037	0	138.423	0	193.1	4	68.1	4	-1E+10	1	-1E+10	1	-1E+10	1	-1E+10	1	-1E+10	1	-1E+10	1
4901784	37	C	07/09/2016	10:43	-132.591	44.797	0	142.30	0	8.8340	0	33.6680	0	26.104	0	141.099	0	191.8	4	67.4	4	-1E+10	1	-1E+10	1	-1E+10	1	-1E+10	1	-1E+10	1	-1E+10	1
4901784	37	C	07/09/2016	10:43	-132.591	44.797	0	145.00	0	8.7830	0	33.6940	0	26.132	0	143.775	0	191.0	4	67.1	4	-1E+10	1	-1E+10	1	-1E+10	1	-1E+10	1	-1E+10	1	-1E+10	1
4901784	37	C	07/09/2016	10:43	-132.591	44.797	0	147.70	0	8.6630	0	33.7440	0	26.190	0	146.451	0	191.2	4	67.0	4	-1E+10	1	-1E+10	1	-1E+10	1	-1E+10	1	-1E+10	1	-1E+10	1
4901784	37	C	07/09/2016	10:43	-132.591	44.797	0	150.60	0	8.5800	0	33.7580	0	26.214	0	149.326	0	191.7	4	67.1	4	-1E+10	1	-1E+10	1	-1E+10	1	-1E+10	1	-1E+10	1	-1E+10	1
4901784	37	C	07/09/2016	10:43	-132.591	44.797	0	152.50	0	8.5640	0	33.7620	0	26.219	0	151.209	0	191.9	4	67.1	4	-1E+10	1	-1E+10	1	-1E+10	1	-1E+10	1	-1E+10	1	-1E+10	1
4901784	37	C	07/09/2016	10:43	-132.591	44.797	0	154.40	0	8.5680	0	33.7770	0	26.231	0	153.092	0	192.2	4	67.2	4	-1E+10	1	-1E+10	1	-1E+10	1	-1E+10	1	-1E+10	1	-1E+10	1
4901784	37	C	07/09/2016	10:43	-132.591	44.797	0	157.30	0	8.5330	0	33.7900	0	26.246	0	155.967	0	191.9	4	67.1	4	-1E+10	1	-1E+10	1	-1E+10	1	-1E+10	1	-1E+10	1	-1E+10	1
4901784	37	C	07/09/2016	10:43	-132.591	44.797	0	160.30	0	8.5170	0	33.8030	0	26.259	0	158.940	0	192.0	4	67.1	4	-1E+10	1	-1E+10	1	-1E+10	1	-1E+10	1	-1E+10	1	-1E+10	1
4901784	37	C	07/09/2016	10:43	-132.591	44.797	0	162.20	0	8.5160	0	33.8070	0	26.262	0	160.823	0	191.7	4	67.0	4	-1E+10	1	-1E+10	1	-1E+10	1	-1E+10	1	-1E+10	1	-1E+10	1
4901784	37	C	07/09/2016	10:43	-132.591	44.797	0	165.10	0	8.4710	0	33.8200	0	26.279	0	163.697	0	191.1	4	66.7	4	-1E+10	1	-1E+10	1	-1E+10	1	-1E+10	1	-1E+10	1	-1E+10	1
4901784	37	C	07/09/2016	10:43	-132.591	44.797	0	167.90	0	8.4220	0	33.8290	0	26.294	0	166.473	0	191.1	4	66.7	4	-1E+10	1	-1E+10	1	-1E+10	1	-1E+10	1	-1E+10	1	-1E+10	1
4901784	37	C	07/09/2016	10:43	-132.591	44.797	0	169.90	0	8.4150	0	33.8410	0	26.304	0	168.455	0	191.0	4	66.6	4	-1E+10	1	-1E+10	1	-1E+10	1	-1E+10	1	-1E+10	1	-1E+10	1
4901784	37	C	07/09/2016	10:43	-132.591	44.797	0	172.70	0	8.4010	0	33.8450	0	26.310	0	171.230	0	190.7	4	66.5	4	-1E+10	1	-1E+10	1	-1E+10	1	-1E+10	1	-1E+10	1	-1E+10	1
4901784	37	C	07/09/2016	10:43	-132.591	44.797	0	175.60	0	8.3870	0	33.8490	0	26.315	0	174.104	0	190.2	4	66.3	4	-1E+10	1	-1E+10	1	-1E+10	1	-1E+10	1	-1E+10	1	-1E+10	1
4901784	37	C	07/09/2016	10:43	-132.591	44.797	0	177.50	0	8.3780	0	33.8520	0	26.319	0	175.987	0	189.7	4	66.1	4	-1E+10	1	-1E+10	1	-1E+10	1	-1E+10	1	-1E+10	1	-1E+10	1
4901784	37	C	07/09/2016	10:43	-132.591	44.797	0	179.40	0	8.3660	0	33.8640	0	26.330	0	177.870	0	189.0	4	65.9	4	-1E+10	1	-1E+10	1	-1E+10	1	-1E+10	1	-1E+10	1	-1E+10	1
4901784	37	C	07/09/2016	10:43	-132.591	44.797	0	181.90	0	8.3170	0	33.8700	0	26.342	0	180.347	0	188.4	4	65.6	4	-1E+10	1	-1E+10	1	-1E+10	1	-1E+10	1	-1E+10	1	-1E+10	1
4901784	37	C	07/09/2016	10:43	-132.591	44.797	0	184.60	0	8.2580	0	33.8800	0	26.359	0	183.023	0	187.4	4	65.2	4	-1E+10	1	-1E+10	1	-1E+10	1	-1E+10	1	-1E+10	1	-1E+10	1
4901784	37	C	07/09/2016	10:43	-132.591	44.797	0	187.70	0	8.2360	0	33.8800	0	26.362	0	186.095	0	186.4	4	64.8	4	-1E+10	1	-1E+10	1	-1E+10	1	-1E+10	1	-1E+10	1	-1E+10	1
4901784	37	C	07/09/2016	10:43	-132.591	44.797	0	190.10	0	8.2110	0	33.8820	0	26.368	0	188.474	0	185.3	4	64.4	4	-1E+10	1	-1E+10	1	-1E+10	1	-1E+10	1	-1E+10	1	-1E+10	1
4901784	37	C	07/09/2016	10:43	-132.591	44.797	0	192.50	0	8.1710	0	33.8830	0	26.374	0	190.852	0	184.2	4	63.9	4	-1E+10	1	-1E+10	1	-1E+10	1	-1E+10	1	-1E+10	1	-1E+10	1
4901784	37	C	07/09/2016	10:43	-132.591	44.797	0	194.90	0	8.1240	0	33.8840	0	26.382	0	193.230	0	183.2	4	63.5	4	-1E+10	1	-1E+10	1	-1E+10	1	-1E+10	1	-1E+10	1	-1E+10	1
4901784	37	C	07/09/2016	10:43	-132.591	44.797	0	197.30	0	8.1010	0	33.8860	0	26.387	0	195.609	0	182.3	4	63.2	4	-1E+10	1	-1E+10	1	-1E+10	1	-1E+10	1	-1E+10	1	-1E+10	1
4901784	37	C	07/09/2016	10:43	-132.591	44.797	0	200.40	0	8.0560	0	33.8880	0	26.395	0	198.681	0	180.4	4	62.4	4	-1E+10	1	-1E+10	1	-1E+10	1	-1E+10	1	-1E+10	1	-1E+10	1
4901784	37	C	07/09/2016	10:43	-132.591	44.797	0	202.90	0	8.0190	0	33.8880	0	26.401	0	201.158	0	178.6	4	61.8	4	-1E+10	1	-1E+10	1	-1E+10	1	-1E+10	1	-1E+10	1	-1E+10	1
4901784	37	C	07/09/2016	10:43	-132.591	44.797	0	205.30	0	7.9660	0	33.8890	0	26.410	0	203.536	0	176.6	4	61.0	4	-1E+10	1	-1E+10	1	-1E+10	1	-1E+10	1	-1E+10	1	-1E+10	1
4901784	37	C	07/09/2016	10:43	-132.591	44.797	0	207.70	0	7.8980	0	33.8950	0	26.424	0	205.914	0	174.9	4	60.3	4	-1E+10	1	-1E+10	1	-1E+10	1	-1E+10	1	-1E+10	1	-1E+10	1
4901784	37	C	07/09/2016	10:43	-132.591	44.797	0	210.30	0	7.8540	0	33.8920	0	26.428	0	208.491	0	172.9	4	59.6	4	-1E+10	1	-1E+10	1	-1E+10	1	-1E+10	1	-1E+10	1	-1E+10	1
4901784	37	C	07/09/2016	10:43	-132.591	44.797	0	212.80	0	7.7780	0	33.8920	0	26.439	0	210.968	0	171.6	4	59.0	4	-1E+10	1	-1E+10	1	-1E+10	1	-1E+10	1	-1E+10	1	-1E+10	1
4901784	37	C	07/09/2016	10:43	-132.591	44.797	0	215.30	0	7.7610	0	33.8920	0	26.442	0	213.445	0	170.5	4	58.6	4	-1E+10	1	-1E+10	1	-1E+10	1	-1E+10	1	-1E+10	1	-1E+10	1
4901784	37	C	07/09/2016	10:43	-132.591	44.797	0	217.80	0	7.7310	0	33.8920	0	26.446	0	215.922	0	168.8	4	58.0	4	-1E+10	1	-1E+10	1	-1E+10	1	-1E+10	1	-1E+10	1	-1E+10	1
4901784	37	C	07/09/2016	10:43	-132.591	44.797	0	220.40	0	7.6750	0	33.8920	0	26.454	0	218.498	0	167.4	4	57.5	4	-1E+10	1	-1E+10	1	-1E+10	1	-1E+10	1	-1E+10	1	-1E+10	1
4901784	37	C	07/09/2016	10:43	-132.591	44.797	0	222.90	0	7.6490	0	33.8910	0	26.457	0	220.976	0	166.2	4	57.0	4	-1E+10	1	-1E+10	1	-1E+10	1	-1E+10	1	-1E+10	1	-1E+10	1
4901784	37	C	07/09/2016	10:43	-132.591	44.797	0	224.60	0	7.6160	0	33.8930	0	26.464	0	222.660	0	165.4	4	56.7	4	-1E+10	1	-1E+10	1	-1E+10	1	-1E+10	1	-1E+10	1	-1E+10	1
4901784	37	C	07/09/2016	10:43	-132.591	44.797	0	227.20	0	7.5950	0	33.8910	0	26.465	0	225.236	0	163.5	4	56.0	4	-1E+10	1	-1E+10	1	-1E+10	1	-1E+10	1	-1E+10	1	-1E+10	1
4901784	37	C	07/09/2016	10:43	-132.591	44.797	0	229.70	0	7.5030	0	33.8930	0	26.480	0	227.713	0	161.2	4	55.1	4	-1E+10	1	-1E+10	1	-1E+10	1	-1E+10	1	-1E+10	1	-1E+10	1
4901784	37	C	07/09/2016	10:43	-132.591	44.797	0	232.30	0	7.4520	0	33.8940	0	26.488	0	230.289	0	160.2	4	54.7	4	-1E+10	1	-1E+10	1	-1E+10	1	-1E+10	1	-1E+10	1	-1E+10	1
4901784	37	C	07/09/2016	10:43	-132.591	44.797	0	234.90	0	7.4150	0	33.8930	0	26.492	0	232.865	0	159.1	4	54.3	4	-1E+10	1	-1E+10	1	-1E+10	1	-1E+10	1	-1E+10	1	-1E+10	1
4901784	37	C	07/09/2016	10:43	-132.591	44.797	0	237.60	0	7.3730	0	33.8930	0	26.498	0	235.540	0	157.2	4	53.6	4	-1E+10	1	-1E+10	1	-1E+10	1	-1E+10	1	-1E+10	1	-1E+10	1
4901784	37	C	07/09/2016	10:43	-132.591	44.797	0	240.30	0	7.3050	0	33.8940	0	26.509	0	238.215	0	155.4	4	52.9	4	-1E+10	1	-1E+10	1	-1E+10	1	-1E+10	1	-1E+10	1	-1E+10	1
4901784	37	C	07/09/2016	10:43	-132.591	44.797	0	242.00	0	7.2670	0	33.8960	0	26.516	0	239.900	0	154.4	4	52.5	4	-1E+10	1	-1E+10	1	-1E+10	1	-1E+10	1	-1E+10	1	-1E+10	1
4901784	37	C	07/09/2016	10:43	-132.591	44.797	0	244.60	0	7.2340	0	33.8980	0	26.522	0	242.475	0	153.0	4	52.0	4	-1E+10	1	-1E+10	1	-1E+10	1	-1E+10	1	-1E+10	1	-1E+10	1
4901784	37	C	07/09/2016	10:43	-132.591	44.797	0	247.30	0	7.2080	0	33.8960	0	26.524	0	245.150	0	151.5	4	51.4	4	-1E+10	1	-1E+10	1	-1E+10	1	-1E+10	1	-1E+10	1	-1E+10	1
4901784	37	C	07/09/2016	10:43	-132.591	44.797	0	250.00	0	7.1490	0	33.8990	0	26.534	0	247.825	0	149.8	4	50.8	4	-1E+10	1	-1E+10	1	-1E+10	1	-1E+10	1	-1E+10	1	-1E+10	1
4901784	37	C	07/09/2016	10:43	-132.591	44.797	0	252.70	0	7.0790	0	33.9030	0	26.547	0	250.500	0	148.4	4	50.3	4	-1E+10	1	-1E+10	1	-1E+10	1	-1E+10	1	-1E+10	1	-1E+10	1
4901784	37	C	07/09/2016	10:43	-132.591	44.797	0	254.50	0	7.0490	0	33.9030	0	26.551	0	252.283	0	147.7	4	50.0	4	-1E+10	1	-1E+10	1	-1E+10	1	-1E+10	1	-1E+10	1	-1E+10	1
4901784	37	C	07/09/2016	10:43	-132.591	44.797	0	257.20	0	7.0140	0	33.9020	0	26.555	0	254.958	0	147.2	4	49.8	4	-1E+10	1	-1E+10	1	-1E+10	1	-1E+10	1	-1E+10	1	-1E+10	1
4901784	37	C	07/09/2016	10:43	-132.591	44.797	0	259.90	0	6.9700	0	33.9040	0	26.563	0	257.633	0	146.8	4	49.6	4	-1E+10	1	-1E+10	1	-1E+10	1	-1E+10	1	-1E+10	1	-1E+10	1
4901784	37	C	07/09/2016	10:43	-132.591	44.797	0	262.50	0	6.9330	0	33.9040	0	26.568	0	260.209	0	145.8	4	49.2	4	-1E+10	1	-1E+10	1	-1E+10	1	-1E+10	1	-1E+10	1	-1E+10	1
4901784	37	C	07/09/2016	10:43	-132.591	44.797	0	265.30	0	6.8830	0	33.9030	0	26.574	0	262.982	0	144.0	4	48.6	4	-1E+10	1	-1E+10	1	-1E+10	1	-1E+10	1	-1E+10	1	-1E+10	1
4901784	37	C	07/09/2016	10:43	-132.591	44.797	0	267.20	0	6.8610	0	33.9030	0	26.577	0	264.865	0	142.7	4	48.1	4	-1E+10	1	-1E+10	1	-1E+10	1	-1E+10	1	-1E+10	1	-1E+10	1
4901784	37	C	07/09/2016	10:43	-132.591	44.797	0	270.00	0	6.7980	0	33.9030	0	26.586	0	267.638	0	140.3	4	47.2	4	-1E+10	1	-1E+10	1	-1E+10	1	-1E+10	1	-1E+10	1	-1E+10	1
4901784	37	C	07/09/2016	10:43	-132.591	44.797	0	272.80	0	6.7410	0	33.9050	0	26.595	0	270.412	0	137.2	4	46.1	4	-1E+10	1	-1E+10	1	-1E+10	1	-1E+10	1	-1E+10	1	-1E+10	1
4901784	37	C	07/09/2016	10:43	-132.591	44.797	0	274.70	0	6.6920	0	33.9030	0	26.600	0	272.294	0	135.1	4	45.3	4	-1E+10	1	-1E+10	1	-1E+10	1	-1E+10	1	-1E+10	1	-1E+10	1
4901784	37	C	07/09/2016	10:43	-132.591	44.797	0	277.40	0	6.6560	0	33.9060	0	26.607	0	274.969	0	132.6	4	44.5	4	-1E+10	1	-1E+10	1	-1E+10	1	-1E+10	1	-1E+10	1	-1E+10	1
4901784	37	C	07/09/2016	10:43	-132.591	44.797	0	280.20	0	6.6220	0	33.9070	0	26.612	0	277.742	0	131.2	4	44.0	4	-1E+10	1	-1E+10	1	-1E+10	1	-1E+10	1	-1E+10	1	-1E+10	1
4901784	37	C	07/09/2016	10:43	-132.591	44.797	0	282.00	0	6.5970	0	33.9070	0	26.616	0	279.525	0	130.1	4	43.6	4	-1E+10	1	-1E+10	1	-1E+10	1	-1E+10	1	-1E+10	1	-1E+10	1
4901784	37	C	07/09/2016	10:43	-132.591	44.797	0	284.90	0	6.5460	0	33.9070	0	26.622	0	282.398	0	129.3	4	43.3	4	-1E+10	1	-1E+10	1	-1E+10	1	-1E+10	1	-1E+10	1	-1E+10	1
4901784	37	C	07/09/2016	10:43	-132.591	44.797	0	287.70	0	6.4670	0	33.9030	0	26.629	0	285.171	0	128.7	4	43.0	4	-1E+10	1	-1E+10	1	-1E+10	1	-1E+10	1	-1E+10	1	-1E+10	1
4901784	37	C	07/09/2016	10:43	-132.591	44.797	0	289.60	0	6.3980	0	33.9030	0	26.638	0	287.053	0	127.9	4	42.6	4	-1E+10	1	-1E+10	1	-1E+10	1	-1E+10	1	-1E+10	1	-1E+10	1
4901784	37	C	07/09/2016	10:43	-132.591	44.797	0	292.50	0	6.3530	0	33.9030	0	26.644	0	289.926	0	126.2	4	42.0	4	-1E+10	1	-1E+10	1	-1E+10	1	-1E+10	1	-1E+10	1	-1E+10	1
4901784	37	C	07/09/2016	10:43	-132.591	44.797	0	295.30	0	6.3210	0	33.9030	0	26.648	0	292.699	0	124.5	4	41.4	4	-1E+10	1	-1E+10	1	-1E+10	1	-1E+10	1	-1E+10	1	-1E+10	1
4901784	37	C	07/09/2016	10:43	-132.591	44.797	0	297.10	0	6.2770	0	33.9060	0	26.656	0	294.482	0	123.4	4	41.0	4	-1E+10	1	-1E+10	1	-1E+10	1	-1E+10	1	-1E+10	1	-1E+10	1
4901784	37	C	07/09/2016	10:43	-132.591	44.797	0	300.00	0	6.2290	0	33.9040	0	26.661	0	297.354	0	122.1	4	40.6	4	-1E+10	1	-1E+10	1	-1E+10	1	-1E+10	1	-1E+10	1	-1E+10	1
4901784	37	C	07/09/2016	10:43	-132.591	44.797	0	302.70	0	6.1960	0	33.9020	0	26.664	0	300.029	0	120.4	4	40.0	4	-1E+10	1	-1E+10	1	-1E+10	1	-1E+10	1	-1E+10	1	-1E+10	1
4901784	37	C	07/09/2016	10:43	-132.591	44.797	0	304.50	0	6.1560	0	33.9030	0	26.670	0	301.812	0	119.1	4	39.5	4	-1E+10	1	-1E+10	1	-1E+10	1	-1E+10	1	-1E+10	1	-1E+10	1
4901784	37	C	07/09/2016	10:43	-132.591	44.797	0	307.40	0	6.1280	0	33.9050	0	26.675	0	304.684	0	117.3	4	38.9	4	-1E+10	1	-1E+10	1	-1E+10	1	-1E+10	1	-1E+10	1	-1E+10	1
4901784	37	C	07/09/2016	10:43	-132.591	44.797	0	310.20	0	6.0850	0	33.9070	0	26.682	0	307.457	0	115.8	4	38.3	4	-1E+10	1	-1E+10	1	-1E+10	1	-1E+10	1	-1E+10	1	-1E+10	1
4901784	37	C	07/09/2016	10:43	-132.591	44.797	0	312.10	0	6.0650	0	33.9060	0	26.684	0	309.339	0	114.7	4	37.9	4	-1E+10	1	-1E+10	1	-1E+10	1	-1E+10	1	-1E+10	1	-1E+10	1
4901784	37	C	07/09/2016	10:43	-132.591	44.797	0	314.90	0	6.0280	0	33.9080	0	26.690	0	312.112	0	112.4	4	37.2	4	-1E+10	1	-1E+10	1	-1E+10	1	-1E+10	1	-1E+10	1	-1E+10	1
4901784	37	C	07/09/2016	10:43	-132.591	44.797	0	317.80	0	5.9720	0	33.9080	0	26.697	0	314.984	0	110.6	4	36.5	4	-1E+10	1	-1E+10	1	-1E+10	1	-1E+10	1	-1E+10	1	-1E+10	1
4901784	37	C	07/09/2016	10:43	-132.591	44.797	0	319.70	0	5.9590	0	33.9120	0	26.702	0	316.866	0	109.3	4	36.1	4	-1E+10	1	-1E+10	1	-1E+10	1	-1E+10	1	-1E+10	1	-1E+10	1
4901784	37	C	07/09/2016	10:43	-132.591	44.797	0	322.50	0	5.9270	0	33.9120	0	26.706	0	319.639	0	108.8	4	35.9	4	-1E+10	1	-1E+10	1	-1E+10	1	-1E+10	1	-1E+10	1	-1E+10	1
4901784	37	C	07/09/2016	10:43	-132.591	44.797	0	325.30	0	5.8890	0	33.9110	0	26.710	0	322.412	0	108.0	4	35.6	4	-1E+10	1	-1E+10	1	-1E+10	1	-1E+10	1	-1E+10	1	-1E+10	1
4901784	37	C	07/09/2016	10:43	-132.591	44.797	0	327.30	0	5.8680	0	33.9110	0	26.712	0	324.392	0	106.9	4	35.2	4	-1E+10	1	-1E+10	1	-1E+10	1	-1E+10	1	-1E+10	1	-1E+10	1
4901784	37	C	07/09/2016	10:43	-132.591	44.797	0	330.20	0	5.8340	0	33.9110	0	26.716	0	327.264	0	105.1	4	34.6	4	-1E+10	1	-1E+10	1	-1E+10	1	-1E+10	1	-1E+10	1	-1E+10	1
4901784	37	C	07/09/2016	10:43	-132.591	44.797	0	333.10	0	5.8100	0	33.9110	0	26.719	0	330.136	0	103.1	4	33.9	4	-1E+10	1	-1E+10	1	-1E+10	1	-1E+10	1	-1E+10	1	-1E+10	1
4901784	37	C	07/09/2016	10:43	-132.591	44.797	0	335.00	0	5.7920	0	33.9130	0	26.723	0	332.018	0	101.5	4	33.4	4	-1E+10	1	-1E+10	1	-1E+10	1	-1E+10	1	-1E+10	1	-1E+10	1
4901784	37	C	07/09/2016	10:43	-132.591	44.797	0	336.90	0	5.7660	0	33.9140	0	26.727	0	333.899	0	100.3	4	32.9	4	-1E+10	1	-1E+10	1	-1E+10	1	-1E+10	1	-1E+10	1	-1E+10	1
4901784	37	C	07/09/2016	10:43	-132.591	44.797	0	339.70	0	5.7330	0	33.9180	0	26.734	0	336.672	0	98.0	4	32.2	4	-1E+10	1	-1E+10	1	-1E+10	1	-1E+10	1	-1E+10	1	-1E+10	1
4901784	37	C	07/09/2016	10:43	-132.591	44.797	0	342.60	0	5.7170	0	33.9190	0	26.737	0	339.544	0	96.8	4	31.8	4	-1E+10	1	-1E+10	1	-1E+10	1	-1E+10	1	-1E+10	1	-1E+10	1
4901784	37	C	07/09/2016	10:43	-132.591	44.797	0	344.50	0	5.7070	0	33.9200	0	26.739	0	341.425	0	96.4	4	31.6	4	-1E+10	1	-1E+10	1	-1E+10	1	-1E+10	1	-1E+10	1	-1E+10	1
4901784	37	C	07/09/2016	10:43	-132.591	44.797	0	347.40	0	5.6850	0	33.9190	0	26.741	0	344.297	0	95.6	4	31.3	4	-1E+10	1	-1E+10	1	-1E+10	1	-1E+10	1	-1E+10	1	-1E+10	1
4901784	37	C	07/09/2016	10:43	-132.591	44.797	0	350.30	0	5.6400	0	33.9210	0	26.748	0	347.169	0	95.0	4	31.1	4	-1E+10	1	-1E+10	1	-1E+10	1	-1E+10	1	-1E+10	1	-1E+10	1
4901784	37	C	07/09/2016	10:43	-132.591	44.797	0	352.20	0	5.5920	0	33.9190	0	26.752	0	349.050	0	94.7	4	31.0	4	-1E+10	1	-1E+10	1	-1E+10	1	-1E+10	1	-1E+10	1	-1E+10	1
4901784	37	C	07/09/2016	10:43	-132.591	44.797	0	354.70	0	5.5480	0	33.9230	0	26.761	0	351.526	0	94.1	4	30.8	4	-1E+10	1	-1E+10	1	-1E+10	1	-1E+10	1	-1E+10	1	-1E+10	1
4901784	37	C	07/09/2016	10:43	-132.591	44.797	0	357.50	0	5.5250	0	33.9210	0	26.762	0	354.298	0	93.2	4	30.5	4	-1E+10	1	-1E+10	1	-1E+10	1	-1E+10	1	-1E+10	1	-1E+10	1
4901784	37	C	07/09/2016	10:43	-132.591	44.797	0	360.00	0	5.5050	0	33.9210	0	26.764	0	356.774	0	92.6	4	30.2	4	-1E+10	1	-1E+10	1	-1E+10	1	-1E+10	1	-1E+10	1	-1E+10	1
4901784	37	C	07/09/2016	10:43	-132.591	44.797	0	362.40	0	5.4860	0	33.9210	0	26.767	0	359.150	0	91.5	4	29.9	4	-1E+10	1	-1E+10	1	-1E+10	1	-1E+10	1	-1E+10	1	-1E+10	1
4901784	37	C	07/09/2016	10:43	-132.591	44.797	0	364.90	0	5.4380	0	33.9230	0	26.774	0	361.626	0	90.2	4	29.4	4	-1E+10	1	-1E+10	1	-1E+10	1	-1E+10	1	-1E+10	1	-1E+10	1
4901784	37	C	07/09/2016	10:43	-132.591	44.797	0	367.40	0	5.4350	0	33.9230	0	26.774	0	364.101	0	89.3	4	29.1	4	-1E+10	1	-1E+10	1	-1E+10	1	-1E+10	1	-1E+10	1	-1E+10	1
4901784	37	C	07/09/2016	10:43	-132.591	44.797	0	369.80	0	5.3800	0	33.9250	0	26.783	0	366.477	0	88.4	4	28.8	4	-1E+10	1	-1E+10	1	-1E+10	1	-1E+10	1	-1E+10	1	-1E+10	1
4901784	37	C	07/09/2016	10:43	-132.591	44.797	0	372.30	0	5.3580	0	33.9250	0	26.785	0	368.953	0	87.9	4	28.6	4	-1E+10	1	-1E+10	1	-1E+10	1	-1E+10	1	-1E+10	1	-1E+10	1
4901784	37	C	07/09/2016	10:43	-132.591	44.797	0	374.90	0	5.3480	0	33.9230	0	26.785	0	371.527	0	87.2	4	28.4	4	-1E+10	1	-1E+10	1	-1E+10	1	-1E+10	1	-1E+10	1	-1E+10	1
4901784	37	C	07/09/2016	10:43	-132.591	44.797	0	377.30	0	5.3150	0	33.9250	0	26.790	0	373.903	0	86.2	4	28.0	4	-1E+10	1	-1E+10	1	-1E+10	1	-1E+10	1	-1E+10	1	-1E+10	1
4901784	37	C	07/09/2016	10:43	-132.591	44.797	0	379.70	0	5.2740	0	33.9280	0	26.797	0	376.279	0	85.1	4	27.7	4	-1E+10	1	-1E+10	1	-1E+10	1	-1E+10	1	-1E+10	1	-1E+10	1
4901784	37	C	07/09/2016	10:43	-132.591	44.797	0	382.20	0	5.2590	0	33.9290	0	26.800	0	378.755	0	84.2	4	27.3	4	-1E+10	1	-1E+10	1	-1E+10	1	-1E+10	1	-1E+10	1	-1E+10	1
4901784	37	C	07/09/2016	10:43	-132.591	44.797	0	384.80	0	5.2490	0	33.9280	0	26.800	0	381.329	0	82.9	4	26.9	4	-1E+10	1	-1E+10	1	-1E+10	1	-1E+10	1	-1E+10	1	-1E+10	1
4901784	37	C	07/09/2016	10:43	-132.591	44.797	0	387.40	0	5.2310	0	33.9300	0	26.804	0	383.903	0	81.2	4	26.4	4	-1E+10	1	-1E+10	1	-1E+10	1	-1E+10	1	-1E+10	1	-1E+10	1
4901784	37	C	07/09/2016	10:43	-132.591	44.797	0	390.10	0	5.2060	0	33.9340	0	26.810	0	386.576	0	79.6	4	25.8	4	-1E+10	1	-1E+10	1	-1E+10	1	-1E+10	1	-1E+10	1	-1E+10	1
4901784	37	C	07/09/2016	10:43	-132.591	44.797	0	392.80	0	5.1880	0	33.9350	0	26.813	0	389.249	0	77.8	4	25.2	4	-1E+10	1	-1E+10	1	-1E+10	1	-1E+10	1	-1E+10	1	-1E+10	1
4901784	37	C	07/09/2016	10:43	-132.591	44.797	0	395.50	0	5.1810	0	33.9360	0	26.815	0	391.922	0	75.5	4	24.5	4	-1E+10	1	-1E+10	1	-1E+10	1	-1E+10	1	-1E+10	1	-1E+10	1
4901784	37	C	07/09/2016	10:43	-132.591	44.797	0	397.30	0	5.1720	0	33.9380	0	26.817	0	393.704	0	73.3	4	23.8	4	-1E+10	1	-1E+10	1	-1E+10	1	-1E+10	1	-1E+10	1	-1E+10	1
4901784	37	C	07/09/2016	10:43	-132.591	44.797	0	400.00	0	5.1520	0	33.9470	0	26.827	0	396.377	0	69.9	4	22.6	4	-1E+10	1	-1E+10	1	-1E+10	1	-1E+10	1	-1E+10	1	-1E+10	1
4901784	37	C	07/09/2016	10:43	-132.591	44.797	0	402.70	0	5.1290	0	33.9530	0	26.834	0	399.050	0	66.8	4	21.6	4	-1E+10	1	-1E+10	1	-1E+10	1	-1E+10	1	-1E+10	1	-1E+10	1
4901784	37	C	07/09/2016	10:43	-132.591	44.797	0	404.50	0	5.1370	0	33.9570	0	26.836	0	400.832	0	64.5	4	20.9	4	-1E+10	1	-1E+10	1	-1E+10	1	-1E+10	1	-1E+10	1	-1E+10	1
4901784	37	C	07/09/2016	10:43	-132.591	44.797	0	407.20	0	5.2020	0	33.9680	0	26.838	0	403.505	0	61.0	4	19.8	4	-1E+10	1	-1E+10	1	-1E+10	1	-1E+10	1	-1E+10	1	-1E+10	1
4901784	37	C	07/09/2016	10:43	-132.591	44.797	0	409.80	0	5.2130	0	33.9790	0	26.845	0	406.079	0	59.7	4	19.4	4	-1E+10	1	-1E+10	1	-1E+10	1	-1E+10	1	-1E+10	1	-1E+10	1
4901784	37	C	07/09/2016	10:43	-132.591	44.797	0	412.50	0	5.1730	0	33.9770	0	26.848	0	408.751	0	58.3	4	18.9	4	-1E+10	1	-1E+10	1	-1E+10	1	-1E+10	1	-1E+10	1	-1E+10	1
4901784	37	C	07/09/2016	10:43	-132.591	44.797	0	415.20	0	5.1610	0	33.9810	0	26.853	0	411.424	0	56.4	4	18.3	4	-1E+10	1	-1E+10	1	-1E+10	1	-1E+10	1	-1E+10	1	-1E+10	1
4901784	37	C	07/09/2016	10:43	-132.591	44.797	0	417.10	0	5.1700	0	33.9850	0	26.855	0	413.305	0	54.8	4	17.8	4	-1E+10	1	-1E+10	1	-1E+10	1	-1E+10	1	-1E+10	1	-1E+10	1
4901784	37	C	07/09/2016	10:43	-132.591	44.797	0	419.90	0	5.1840	0	33.9910	0	26.858	0	416.077	0	53.3	4	17.3	4	-1E+10	1	-1E+10	1	-1E+10	1	-1E+10	1	-1E+10	1	-1E+10	1
4901784	37	C	07/09/2016	10:43	-132.591	44.797	0	422.60	0	5.1850	0	33.9960	0	26.862	0	418.750	0	52.4	4	17.0	4	-1E+10	1	-1E+10	1	-1E+10	1	-1E+10	1	-1E+10	1	-1E+10	1
4901784	37	C	07/09/2016	10:43	-132.591	44.797	0	424.50	0	5.1740	0	33.9970	0	26.864	0	420.630	0	52.1	4	16.9	4	-1E+10	1	-1E+10	1	-1E+10	1	-1E+10	1	-1E+10	1	-1E+10	1
4901784	37	C	07/09/2016	10:43	-132.591	44.797	0	427.30	0	5.1530	0	33.9980	0	26.867	0	423.402	0	51.7	4	16.8	4	-1E+10	1	-1E+10	1	-1E+10	1	-1E+10	1	-1E+10	1	-1E+10	1
4901784	37	C	07/09/2016	10:43	-132.591	44.797	0	430.10	0	5.1320	0	34.0010	0	26.872	0	426.174	0	51.2	4	16.6	4	-1E+10	1	-1E+10	1	-1E+10	1	-1E+10	1	-1E+10	1	-1E+10	1
4901784	37	C	07/09/2016	10:43	-132.591	44.797	0	431.90	0	5.1310	0	34.0020	0	26.873	0	427.955	0	50.8	4	16.5	4	-1E+10	1	-1E+10	1	-1E+10	1	-1E+10	1	-1E+10	1	-1E+10	1
4901784	37	C	07/09/2016	10:43	-132.591	44.797	0	434.70	0	5.1220	0	34.0030	0	26.875	0	430.727	0	50.3	4	16.3	4	-1E+10	1	-1E+10	1	-1E+10	1	-1E+10	1	-1E+10	1	-1E+10	1
4901784	37	C	07/09/2016	10:43	-132.591	44.797	0	437.50	0	5.1070	0	34.0050	0	26.878	0	433.498	0	49.8	4	16.1	4	-1E+10	1	-1E+10	1	-1E+10	1	-1E+10	1	-1E+10	1	-1E+10	1
4901784	37	C	07/09/2016	10:43	-132.591	44.797	0	439.40	0	5.1050	0	34.0050	0	26.878	0	435.379	0	49.5	4	16.0	4	-1E+10	1	-1E+10	1	-1E+10	1	-1E+10	1	-1E+10	1	-1E+10	1
4901784	37	C	07/09/2016	10:43	-132.591	44.797	0	442.20	0	5.0950	0	34.0080	0	26.882	0	438.150	0	49.4	4	16.0	4	-1E+10	1	-1E+10	1	-1E+10	1	-1E+10	1	-1E+10	1	-1E+10	1
4901784	37	C	07/09/2016	10:43	-132.591	44.797	0	445.00	0	5.0630	0	34.0080	0	26.886	0	440.922	0	49.5	4	16.0	4	-1E+10	1	-1E+10	1	-1E+10	1	-1E+10	1	-1E+10	1	-1E+10	1
4901784	37	C	07/09/2016	10:43	-132.591	44.797	0	446.90	0	5.0400	0	34.0080	0	26.888	0	442.802	0	49.4	4	16.0	4	-1E+10	1	-1E+10	1	-1E+10	1	-1E+10	1	-1E+10	1	-1E+10	1
4901784	37	C	07/09/2016	10:43	-132.591	44.797	0	449.80	0	5.0380	0	34.0090	0	26.889	0	445.673	0	48.9	4	15.8	4	-1E+10	1	-1E+10	1	-1E+10	1	-1E+10	1	-1E+10	1	-1E+10	1
4901784	37	C	07/09/2016	10:43	-132.591	44.797	0	452.70	0	5.0320	0	34.0100	0	26.891	0	448.543	0	48.2	4	15.6	4	-1E+10	1	-1E+10	1	-1E+10	1	-1E+10	1	-1E+10	1	-1E+10	1
4901784	37	C	07/09/2016	10:43	-132.591	44.797	0	454.60	0	5.0300	0	34.0120	0	26.893	0	450.423	0	47.8	4	15.4	4	-1E+10	1	-1E+10	1	-1E+10	1	-1E+10	1	-1E+10	1	-1E+10	1
4901784	37	C	07/09/2016	10:43	-132.591	44.797	0	457.50	0	5.0290	0	34.0130	0	26.894	0	453.293	0	47.0	4	15.2	4	-1E+10	1	-1E+10	1	-1E+10	1	-1E+10	1	-1E+10	1	-1E+10	1
4901784	37	C	07/09/2016	10:43	-132.591	44.797	0	460.30	0	5.0160	0	34.0170	0	26.898	0	456.065	0	46.2	4	14.9	4	-1E+10	1	-1E+10	1	-1E+10	1	-1E+10	1	-1E+10	1	-1E+10	1
4901784	37	C	07/09/2016	10:43	-132.591	44.797	0	462.70	0	5.0090	0	34.0180	0	26.900	0	458.440	0	45.7	4	14.8	4	-1E+10	1	-1E+10	1	-1E+10	1	-1E+10	1	-1E+10	1	-1E+10	1
4901784	37	C	07/09/2016	10:43	-132.591	44.797	0	465.40	0	4.9890	0	34.0220	0	26.905	0	461.112	0	45.1	4	14.6	4	-1E+10	1	-1E+10	1	-1E+10	1	-1E+10	1	-1E+10	1	-1E+10	1
4901784	37	C	07/09/2016	10:43	-132.591	44.797	0	467.90	0	4.9850	0	34.0220	0	26.906	0	463.586	0	44.8	4	14.5	4	-1E+10	1	-1E+10	1	-1E+10	1	-1E+10	1	-1E+10	1	-1E+10	1
4901784	37	C	07/09/2016	10:43	-132.591	44.797	0	470.30	0	4.9820	0	34.0230	0	26.907	0	465.961	0	44.4	4	14.3	4	-1E+10	1	-1E+10	1	-1E+10	1	-1E+10	1	-1E+10	1	-1E+10	1
4901784	37	C	07/09/2016	10:43	-132.591	44.797	0	472.70	0	4.9790	0	34.0240	0	26.908	0	468.337	0	44.0	4	14.2	4	-1E+10	1	-1E+10	1	-1E+10	1	-1E+10	1	-1E+10	1	-1E+10	1
4901784	37	C	07/09/2016	10:43	-132.591	44.797	0	475.20	0	4.9740	0	34.0240	0	26.909	0	470.811	0	43.4	4	14.0	4	-1E+10	1	-1E+10	1	-1E+10	1	-1E+10	1	-1E+10	1	-1E+10	1
4901784	37	C	07/09/2016	10:43	-132.591	44.797	0	477.70	0	4.9640	0	34.0250	0	26.911	0	473.285	0	42.7	4	13.8	4	-1E+10	1	-1E+10	1	-1E+10	1	-1E+10	1	-1E+10	1	-1E+10	1
4901784	37	C	07/09/2016	10:43	-132.591	44.797	0	480.20	0	4.9390	0	34.0290	0	26.917	0	475.759	0	42.1	4	13.6	4	-1E+10	1	-1E+10	1	-1E+10	1	-1E+10	1	-1E+10	1	-1E+10	1
4901784	37	C	07/09/2016	10:43	-132.591	44.797	0	482.70	0	4.9280	0	34.0310	0	26.920	0	478.233	0	41.5	4	13.4	4	-1E+10	1	-1E+10	1	-1E+10	1	-1E+10	1	-1E+10	1	-1E+10	1
4901784	37	C	07/09/2016	10:43	-132.591	44.797	0	485.20	0	4.9150	0	34.0340	0	26.923	0	480.707	0	40.8	4	13.2	4	-1E+10	1	-1E+10	1	-1E+10	1	-1E+10	1	-1E+10	1	-1E+10	1
4901784	37	C	07/09/2016	10:43	-132.591	44.797	0	487.80	0	4.9070	0	34.0370	0	26.927	0	483.280	0	40.3	4	13.0	4	-1E+10	1	-1E+10	1	-1E+10	1	-1E+10	1	-1E+10	1	-1E+10	1
4901784	37	C	07/09/2016	10:43	-132.591	44.797	0	490.30	0	4.8980	0	34.0370	0	26.928	0	485.754	0	39.8	4	12.8	4	-1E+10	1	-1E+10	1	-1E+10	1	-1E+10	1	-1E+10	1	-1E+10	1
4901784	37	C	07/09/2016	10:43	-132.591	44.797	0	492.90	0	4.8920	0	34.0380	0	26.929	0	488.326	0	39.2	4	12.6	4	-1E+10	1	-1E+10	1	-1E+10	1	-1E+10	1	-1E+10	1	-1E+10	1
4901784	37	C	07/09/2016	10:43	-132.591	44.797	0	495.30	0	4.8830	0	34.0410	0	26.933	0	490.701	0	38.3	4	12.4	4	-1E+10	1	-1E+10	1	-1E+10	1	-1E+10	1	-1E+10	1	-1E+10	1
4901784	37	C	07/09/2016	10:43	-132.591	44.797	0	497.80	0	4.8720	0	34.0430	0	26.936	0	493.175	0	37.6	4	12.1	4	-1E+10	1	-1E+10	1	-1E+10	1	-1E+10	1	-1E+10	1	-1E+10	1
4901784	37	C	07/09/2016	10:43	-132.591	44.797	0	500.30	0	4.8460	0	34.0480	0	26.942	0	495.649	0	37.1	4	11.9	4	-1E+10	1	-1E+10	1	-1E+10	1	-1E+10	1	-1E+10	1	-1E+10	1
4901784	37	C	07/09/2016	10:43	-132.591	44.797	0	504.50	0	4.8310	0	34.0500	0	26.946	0	499.805	0	36.4	4	11.7	4	-1E+10	1	-1E+10	1	-1E+10	1	-1E+10	1	-1E+10	1	-1E+10	1
4901784	37	C	07/09/2016	10:43	-132.591	44.797	0	509.50	0	4.8060	0	34.0540	0	26.952	0	504.752	0	35.6	4	11.5	4	-1E+10	1	-1E+10	1	-1E+10	1	-1E+10	1	-1E+10	1	-1E+10	1
4901784	37	C	07/09/2016	10:43	-132.591	44.797	0	514.50	0	4.7820	0	34.0580	0	26.958	0	509.699	0	34.8	4	11.2	4	-1E+10	1	-1E+10	1	-1E+10	1	-1E+10	1	-1E+10	1	-1E+10	1
4901784	37	C	07/09/2016	10:43	-132.591	44.797	0	519.50	0	4.7700	0	34.0610	0	26.961	0	514.647	0	34.0	4	10.9	4	-1E+10	1	-1E+10	1	-1E+10	1	-1E+10	1	-1E+10	1	-1E+10	1
4901784	37	C	07/09/2016	10:43	-132.591	44.797	0	524.60	0	4.7680	0	34.0650	0	26.965	0	519.693	0	33.1	4	10.6	4	-1E+10	1	-1E+10	1	-1E+10	1	-1E+10	1	-1E+10	1	-1E+10	1
4901784	37	C	07/09/2016	10:43	-132.591	44.797	0	529.60	0	4.7400	0	34.0690	0	26.971	0	524.639	0	32.1	4	10.3	4	-1E+10	1	-1E+10	1	-1E+10	1	-1E+10	1	-1E+10	1	-1E+10	1
4901784	37	C	07/09/2016	10:43	-132.591	44.797	0	534.70	0	4.7200	0	34.0720	0	26.976	0	529.685	0	31.3	4	10.0	4	-1E+10	1	-1E+10	1	-1E+10	1	-1E+10	1	-1E+10	1	-1E+10	1
4901784	37	C	07/09/2016	10:43	-132.591	44.797	0	539.80	0	4.6880	0	34.0770	0	26.983	0	534.731	0	30.3	4	9.7	4	-1E+10	1	-1E+10	1	-1E+10	1	-1E+10	1	-1E+10	1	-1E+10	1
4901784	37	C	07/09/2016	10:43	-132.591	44.797	0	544.90	0	4.6570	0	34.0830	0	26.991	0	539.776	0	29.4	4	9.4	4	-1E+10	1	-1E+10	1	-1E+10	1	-1E+10	1	-1E+10	1	-1E+10	1
4901784	37	C	07/09/2016	10:43	-132.591	44.797	0	550.10	0	4.6350	0	34.0870	0	26.997	0	544.921	0	28.8	4	9.2	4	-1E+10	1	-1E+10	1	-1E+10	1	-1E+10	1	-1E+10	1	-1E+10	1
4901784	37	C	07/09/2016	10:43	-132.591	44.797	0	555.20	0	4.6180	0	34.0900	0	27.001	0	549.966	0	28.3	4	9.1	4	-1E+10	1	-1E+10	1	-1E+10	1	-1E+10	1	-1E+10	1	-1E+10	1
4901784	37	C	07/09/2016	10:43	-132.591	44.797	0	560.30	0	4.6080	0	34.0920	0	27.004	0	555.011	0	27.7	4	8.9	4	-1E+10	1	-1E+10	1	-1E+10	1	-1E+10	1	-1E+10	1	-1E+10	1
4901784	37	C	07/09/2016	10:43	-132.591	44.797	0	565.50	0	4.5790	0	34.0970	0	27.011	0	560.155	0	26.9	4	8.6	4	-1E+10	1	-1E+10	1	-1E+10	1	-1E+10	1	-1E+10	1	-1E+10	1
4901784	37	C	07/09/2016	10:43	-132.591	44.797	0	570.60	0	4.5570	0	34.1020	0	27.018	0	565.200	0	26.2	4	8.4	4	-1E+10	1	-1E+10	1	-1E+10	1	-1E+10	1	-1E+10	1	-1E+10	1
4901784	37	C	07/09/2016	10:43	-132.591	44.797	0	574.90	0	4.5400	0	34.1050	0	27.022	0	569.453	0	25.9	4	8.3	4	-1E+10	1	-1E+10	1	-1E+10	1	-1E+10	1	-1E+10	1	-1E+10	1
4901784	37	C	07/09/2016	10:43	-132.591	44.797	0	579.20	0	4.5280	0	34.1070	0	27.025	0	573.707	0	25.5	4	8.2	4	-1E+10	1	-1E+10	1	-1E+10	1	-1E+10	1	-1E+10	1	-1E+10	1
4901784	37	C	07/09/2016	10:43	-132.591	44.797	0	584.40	0	4.5220	0	34.1090	0	27.027	0	578.850	0	25.0	4	8.0	4	-1E+10	1	-1E+10	1	-1E+10	1	-1E+10	1	-1E+10	1	-1E+10	1
4901784	37	C	07/09/2016	10:43	-132.591	44.797	0	589.50	0	4.5080	0	34.1120	0	27.031	0	583.894	0	24.4	4	7.8	4	-1E+10	1	-1E+10	1	-1E+10	1	-1E+10	1	-1E+10	1	-1E+10	1
4901784	37	C	07/09/2016	10:43	-132.591	44.797	0	594.70	0	4.4860	0	34.1180	0	27.038	0	589.038	0	23.8	4	7.6	4	-1E+10	1	-1E+10	1	-1E+10	1	-1E+10	1	-1E+10	1	-1E+10	1
4901784	37	C	07/09/2016	10:43	-132.591	44.797	0	599.90	0	4.4810	0	34.1210	0	27.041	0	594.181	0	23.3	4	7.5	4	-1E+10	1	-1E+10	1	-1E+10	1	-1E+10	1	-1E+10	1	-1E+10	1
4901784	37	C	07/09/2016	10:43	-132.591	44.797	0	605.00	0	4.4690	0	34.1240	0	27.045	0	599.225	0	22.9	4	7.3	4	-1E+10	1	-1E+10	1	-1E+10	1	-1E+10	1	-1E+10	1	-1E+10	1
4901784	37	C	07/09/2016	10:43	-132.591	44.797	0	610.10	0	4.4570	0	34.1270	0	27.049	0	604.269	0	22.4	4	7.2	4	-1E+10	1	-1E+10	1	-1E+10	1	-1E+10	1	-1E+10	1	-1E+10	1
4901784	37	C	07/09/2016	10:43	-132.591	44.797	0	615.20	0	4.4440	0	34.1290	0	27.052	0	609.312	0	22.0	4	7.0	4	-1E+10	1	-1E+10	1	-1E+10	1	-1E+10	1	-1E+10	1	-1E+10	1
4901784	37	C	07/09/2016	10:43	-132.591	44.797	0	620.50	0	4.4170	0	34.1340	0	27.059	0	614.554	0	21.4	4	6.8	4	-1E+10	1	-1E+10	1	-1E+10	1	-1E+10	1	-1E+10	1	-1E+10	1
4901784	37	C	07/09/2016	10:43	-132.591	44.797	0	625.70	0	4.3850	0	34.1390	0	27.066	0	619.696	0	20.7	4	6.6	4	-1E+10	1	-1E+10	1	-1E+10	1	-1E+10	1	-1E+10	1	-1E+10	1
4901784	37	C	07/09/2016	10:43	-132.591	44.797	0	630.00	0	4.3620	0	34.1450	0	27.073	0	623.949	0	20.2	4	6.4	4	-1E+10	1	-1E+10	1	-1E+10	1	-1E+10	1	-1E+10	1	-1E+10	1
4901784	37	C	07/09/2016	10:43	-132.591	44.797	0	634.30	0	4.3530	0	34.1480	0	27.077	0	628.201	0	19.8	4	6.3	4	-1E+10	1	-1E+10	1	-1E+10	1	-1E+10	1	-1E+10	1	-1E+10	1
4901784	37	C	07/09/2016	10:43	-132.591	44.797	0	639.60	0	4.3320	0	34.1540	0	27.084	0	633.442	0	19.4	4	6.2	4	-1E+10	1	-1E+10	1	-1E+10	1	-1E+10	1	-1E+10	1	-1E+10	1
4901784	37	C	07/09/2016	10:43	-132.591	44.797	0	644.80	0	4.3150	0	34.1570	0	27.088	0	638.584	0	18.9	4	6.0	4	-1E+10	1	-1E+10	1	-1E+10	1	-1E+10	1	-1E+10	1	-1E+10	1
4901784	37	C	07/09/2016	10:43	-132.591	44.797	0	650.10	0	4.2900	0	34.1620	0	27.094	0	643.825	0	18.4	4	5.9	4	-1E+10	1	-1E+10	1	-1E+10	1	-1E+10	1	-1E+10	1	-1E+10	1
4901784	37	C	07/09/2016	10:43	-132.591	44.797	0	655.50	0	4.2630	0	34.1680	0	27.102	0	649.164	0	18.1	4	5.8	4	-1E+10	1	-1E+10	1	-1E+10	1	-1E+10	1	-1E+10	1	-1E+10	1
4901784	37	C	07/09/2016	10:43	-132.591	44.797	0	659.90	0	4.2410	0	34.1710	0	27.107	0	653.515	0	17.9	4	5.7	4	-1E+10	1	-1E+10	1	-1E+10	1	-1E+10	1	-1E+10	1	-1E+10	1
4901784	37	C	07/09/2016	10:43	-132.591	44.797	0	664.40	0	4.2160	0	34.1730	0	27.111	0	657.964	0	17.7	4	5.6	4	-1E+10	1	-1E+10	1	-1E+10	1	-1E+10	1	-1E+10	1	-1E+10	1
4901784	37	C	07/09/2016	10:43	-132.591	44.797	0	669.80	0	4.2040	0	34.1770	0	27.116	0	663.303	0	17.2	4	5.4	4	-1E+10	1	-1E+10	1	-1E+10	1	-1E+10	1	-1E+10	1	-1E+10	1
4901784	37	C	07/09/2016	10:43	-132.591	44.797	0	675.20	0	4.1850	0	34.1840	0	27.123	0	668.642	0	16.7	4	5.3	4	-1E+10	1	-1E+10	1	-1E+10	1	-1E+10	1	-1E+10	1	-1E+10	1
4901784	37	C	07/09/2016	10:43	-132.591	44.797	0	679.80	0	4.1710	0	34.1890	0	27.129	0	673.190	0	16.4	4	5.2	4	-1E+10	1	-1E+10	1	-1E+10	1	-1E+10	1	-1E+10	1	-1E+10	1
4901784	37	C	07/09/2016	10:43	-132.591	44.797	0	684.50	0	4.1530	0	34.1920	0	27.133	0	677.837	0	16.2	4	5.1	4	-1E+10	1	-1E+10	1	-1E+10	1	-1E+10	1	-1E+10	1	-1E+10	1
4901784	37	C	07/09/2016	10:43	-132.591	44.797	0	690.10	0	4.1320	0	34.1950	0	27.138	0	683.373	0	15.9	4	5.1	4	-1E+10	1	-1E+10	1	-1E+10	1	-1E+10	1	-1E+10	1	-1E+10	1
4901784	37	C	07/09/2016	10:43	-132.591	44.797	0	694.80	0	4.1290	0	34.1990	0	27.141	0	688.019	0	15.7	4	5.0	4	-1E+10	1	-1E+10	1	-1E+10	1	-1E+10	1	-1E+10	1	-1E+10	1
4901784	37	C	07/09/2016	10:43	-132.591	44.797	0	700.20	0	4.1220	0	34.2010	0	27.143	0	693.358	0	15.5	4	4.9	4	-1E+10	1	-1E+10	1	-1E+10	1	-1E+10	1	-1E+10	1	-1E+10	1
4901784	37	C	07/09/2016	10:43	-132.591	44.797	0	705.50	0	4.1110	0	34.2030	0	27.146	0	698.597	0	15.3	4	4.9	4	-1E+10	1	-1E+10	1	-1E+10	1	-1E+10	1	-1E+10	1	-1E+10	1
4901784	37	C	07/09/2016	10:43	-132.591	44.797	0	710.40	0	4.0950	0	34.2070	0	27.151	0	703.441	0	15.1	4	4.8	4	-1E+10	1	-1E+10	1	-1E+10	1	-1E+10	1	-1E+10	1	-1E+10	1
4901784	37	C	07/09/2016	10:43	-132.591	44.797	0	715.20	0	4.0770	0	34.2110	0	27.156	0	708.186	0	14.9	4	4.7	4	-1E+10	1	-1E+10	1	-1E+10	1	-1E+10	1	-1E+10	1	-1E+10	1
4901784	37	C	07/09/2016	10:43	-132.591	44.797	0	720.00	0	4.0640	0	34.2140	0	27.160	0	712.930	0	14.7	4	4.6	4	-1E+10	1	-1E+10	1	-1E+10	1	-1E+10	1	-1E+10	1	-1E+10	1
4901784	37	C	07/09/2016	10:43	-132.591	44.797	0	725.00	0	4.0540	0	34.2180	0	27.164	0	717.873	0	14.3	4	4.5	4	-1E+10	1	-1E+10	1	-1E+10	1	-1E+10	1	-1E+10	1	-1E+10	1
4901784	37	C	07/09/2016	10:43	-132.591	44.797	0	730.00	0	4.0470	0	34.2240	0	27.170	0	722.815	0	14.1	4	4.5	4	-1E+10	1	-1E+10	1	-1E+10	1	-1E+10	1	-1E+10	1	-1E+10	1
4901784	37	C	07/09/2016	10:43	-132.591	44.797	0	735.00	0	4.0300	0	34.2250	0	27.172	0	727.757	0	14.2	4	4.5	4	-1E+10	1	-1E+10	1	-1E+10	1	-1E+10	1	-1E+10	1	-1E+10	1
4901784	37	C	07/09/2016	10:43	-132.591	44.797	0	740.10	0	3.9980	0	34.2270	0	27.177	0	732.798	0	14.0	4	4.4	4	-1E+10	1	-1E+10	1	-1E+10	1	-1E+10	1	-1E+10	1	-1E+10	1
4901784	37	C	07/09/2016	10:43	-132.591	44.797	0	745.10	0	3.9960	0	34.2330	0	27.182	0	737.739	0	13.5	4	4.2	4	-1E+10	1	-1E+10	1	-1E+10	1	-1E+10	1	-1E+10	1	-1E+10	1
4901784	37	C	07/09/2016	10:43	-132.591	44.797	0	750.20	0	4.0020	0	34.2400	0	27.187	0	742.780	0	13.1	4	4.1	4	-1E+10	1	-1E+10	1	-1E+10	1	-1E+10	1	-1E+10	1	-1E+10	1
4901784	37	C	07/09/2016	10:43	-132.591	44.797	0	755.30	0	3.9890	0	34.2430	0	27.191	0	747.820	0	13.0	4	4.1	4	-1E+10	1	-1E+10	1	-1E+10	1	-1E+10	1	-1E+10	1	-1E+10	1
4901784	37	C	07/09/2016	10:43	-132.591	44.797	0	760.50	0	3.9700	0	34.2470	0	27.196	0	752.960	0	12.9	4	4.1	4	-1E+10	1	-1E+10	1	-1E+10	1	-1E+10	1	-1E+10	1	-1E+10	1
4901784	37	C	07/09/2016	10:43	-132.591	44.797	0	764.90	0	3.9620	0	34.2480	0	27.198	0	757.308	0	12.9	4	4.1	4	-1E+10	1	-1E+10	1	-1E+10	1	-1E+10	1	-1E+10	1	-1E+10	1
4901784	37	C	07/09/2016	10:43	-132.591	44.797	0	769.30	0	3.9590	0	34.2500	0	27.200	0	761.656	0	12.8	4	4.0	4	-1E+10	1	-1E+10	1	-1E+10	1	-1E+10	1	-1E+10	1	-1E+10	1
4901784	37	C	07/09/2016	10:43	-132.591	44.797	0	774.40	0	3.9510	0	34.2520	0	27.202	0	766.696	0	12.6	4	4.0	4	-1E+10	1	-1E+10	1	-1E+10	1	-1E+10	1	-1E+10	1	-1E+10	1
4901784	37	C	07/09/2016	10:43	-132.591	44.797	0	779.70	0	3.9370	0	34.2570	0	27.207	0	771.934	0	12.3	4	3.9	4	-1E+10	1	-1E+10	1	-1E+10	1	-1E+10	1	-1E+10	1	-1E+10	1
4901784	37	C	07/09/2016	10:43	-132.591	44.797	0	784.90	0	3.9190	0	34.2640	0	27.215	0	777.072	0	12.1	4	3.8	4	-1E+10	1	-1E+10	1	-1E+10	1	-1E+10	1	-1E+10	1	-1E+10	1
4901784	37	C	07/09/2016	10:43	-132.591	44.797	0	790.30	0	3.9090	0	34.2670	0	27.218	0	782.408	0	12.0	4	3.8	4	-1E+10	1	-1E+10	1	-1E+10	1	-1E+10	1	-1E+10	1	-1E+10	1
4901784	37	C	07/09/2016	10:43	-132.591	44.797	0	795.60	0	3.8940	0	34.2720	0	27.224	0	787.645	0	11.9	4	3.7	4	-1E+10	1	-1E+10	1	-1E+10	1	-1E+10	1	-1E+10	1	-1E+10	1
4901784	37	C	07/09/2016	10:43	-132.591	44.797	0	800.10	0	3.8810	0	34.2750	0	27.228	0	792.092	0	11.8	4	3.7	4	-1E+10	1	-1E+10	1	-1E+10	1	-1E+10	1	-1E+10	1	-1E+10	1
4901784	37	C	07/09/2016	10:43	-132.591	44.797	0	804.60	0	3.8670	0	34.2770	0	27.231	0	796.538	0	11.7	4	3.7	4	-1E+10	1	-1E+10	1	-1E+10	1	-1E+10	1	-1E+10	1	-1E+10	1
4901784	37	C	07/09/2016	10:43	-132.591	44.797	0	810.00	0	3.8380	0	34.2850	0	27.240	0	801.874	0	11.6	4	3.6	4	-1E+10	1	-1E+10	1	-1E+10	1	-1E+10	1	-1E+10	1	-1E+10	1
4901784	37	C	07/09/2016	10:43	-132.591	44.797	0	815.50	0	3.8300	0	34.2880	0	27.243	0	807.308	0	11.5	4	3.6	4	-1E+10	1	-1E+10	1	-1E+10	1	-1E+10	1	-1E+10	1	-1E+10	1
4901784	37	C	07/09/2016	10:43	-132.591	44.797	0	820.10	0	3.8180	0	34.2920	0	27.248	0	811.853	0	11.5	4	3.6	4	-1E+10	1	-1E+10	1	-1E+10	1	-1E+10	1	-1E+10	1	-1E+10	1
4901784	37	C	07/09/2016	10:43	-132.591	44.797	0	824.60	0	3.8030	0	34.2940	0	27.251	0	816.299	0	11.5	4	3.6	4	-1E+10	1	-1E+10	1	-1E+10	1	-1E+10	1	-1E+10	1	-1E+10	1
4901784	37	C	07/09/2016	10:43	-132.591	44.797	0	830.00	0	3.7800	0	34.2960	0	27.255	0	821.634	0	11.6	4	3.7	4	-1E+10	1	-1E+10	1	-1E+10	1	-1E+10	1	-1E+10	1	-1E+10	1
4901784	37	C	07/09/2016	10:43	-132.591	44.797	0	835.40	0	3.7470	0	34.2990	0	27.260	0	826.969	0	11.8	4	3.7	4	-1E+10	1	-1E+10	1	-1E+10	1	-1E+10	1	-1E+10	1	-1E+10	1
4901784	37	C	07/09/2016	10:43	-132.591	44.797	0	840.00	0	3.7360	0	34.2990	0	27.261	0	831.513	0	11.9	4	3.7	4	-1E+10	1	-1E+10	1	-1E+10	1	-1E+10	1	-1E+10	1	-1E+10	1
4901784	37	C	07/09/2016	10:43	-132.591	44.797	0	844.50	0	3.7100	0	34.3000	0	27.265	0	835.959	0	11.9	4	3.7	4	-1E+10	1	-1E+10	1	-1E+10	1	-1E+10	1	-1E+10	1	-1E+10	1
4901784	37	C	07/09/2016	10:43	-132.591	44.797	0	850.00	0	3.7030	0	34.3010	0	27.266	0	841.392	0	11.8	4	3.7	4	-1E+10	1	-1E+10	1	-1E+10	1	-1E+10	1	-1E+10	1	-1E+10	1
4901784	37	C	07/09/2016	10:43	-132.591	44.797	0	855.50	0	3.6990	0	34.3030	0	27.268	0	846.825	0	11.6	4	3.6	4	-1E+10	1	-1E+10	1	-1E+10	1	-1E+10	1	-1E+10	1	-1E+10	1
4901784	37	C	07/09/2016	10:43	-132.591	44.797	0	860.20	0	3.6960	0	34.3120	0	27.276	0	851.468	0	11.4	4	3.6	4	-1E+10	1	-1E+10	1	-1E+10	1	-1E+10	1	-1E+10	1	-1E+10	1
4901784	37	C	07/09/2016	10:43	-132.591	44.797	0	864.90	0	3.6870	0	34.3150	0	27.279	0	856.111	0	11.3	4	3.6	4	-1E+10	1	-1E+10	1	-1E+10	1	-1E+10	1	-1E+10	1	-1E+10	1
4901784	37	C	07/09/2016	10:43	-132.591	44.797	0	870.20	0	3.6700	0	34.3210	0	27.286	0	861.346	0	11.3	4	3.6	4	-1E+10	1	-1E+10	1	-1E+10	1	-1E+10	1	-1E+10	1	-1E+10	1
4901784	37	C	07/09/2016	10:43	-132.591	44.797	0	874.40	0	3.6590	0	34.3250	0	27.290	0	865.494	0	11.3	4	3.6	4	-1E+10	1	-1E+10	1	-1E+10	1	-1E+10	1	-1E+10	1	-1E+10	1
4901784	37	C	07/09/2016	10:43	-132.591	44.797	0	880.00	0	3.6490	0	34.3280	0	27.293	0	871.026	0	11.4	4	3.6	4	-1E+10	1	-1E+10	1	-1E+10	1	-1E+10	1	-1E+10	1	-1E+10	1
4901784	37	C	07/09/2016	10:43	-132.591	44.797	0	885.70	0	3.6180	0	34.3340	0	27.301	0	876.656	0	11.4	4	3.6	4	-1E+10	1	-1E+10	1	-1E+10	1	-1E+10	1	-1E+10	1	-1E+10	1
4901784	37	C	07/09/2016	10:43	-132.591	44.797	0	890.70	0	3.5910	0	34.3370	0	27.306	0	881.594	0	11.4	4	3.6	4	-1E+10	1	-1E+10	1	-1E+10	1	-1E+10	1	-1E+10	1	-1E+10	1
4901784	37	C	07/09/2016	10:43	-132.591	44.797	0	895.60	0	3.5640	0	34.3390	0	27.310	0	886.434	0	11.5	4	3.6	4	-1E+10	1	-1E+10	1	-1E+10	1	-1E+10	1	-1E+10	1	-1E+10	1
4901784	37	C	07/09/2016	10:43	-132.591	44.797	0	900.60	0	3.5400	0	34.3410	0	27.314	0	891.372	0	11.6	4	3.6	4	-1E+10	1	-1E+10	1	-1E+10	1	-1E+10	1	-1E+10	1	-1E+10	1
4901784	37	C	07/09/2016	10:43	-132.591	44.797	0	905.50	0	3.5260	0	34.3440	0	27.318	0	896.211	0	11.6	4	3.6	4	-1E+10	1	-1E+10	1	-1E+10	1	-1E+10	1	-1E+10	1	-1E+10	1
4901784	37	C	07/09/2016	10:43	-132.591	44.797	0	910.50	0	3.5190	0	34.3480	0	27.322	0	901.149	0	11.5	4	3.6	4	-1E+10	1	-1E+10	1	-1E+10	1	-1E+10	1	-1E+10	1	-1E+10	1
4901784	37	C	07/09/2016	10:43	-132.591	44.797	0	915.50	0	3.5310	0	34.3530	0	27.325	0	906.087	0	11.5	4	3.6	4	-1E+10	1	-1E+10	1	-1E+10	1	-1E+10	1	-1E+10	1	-1E+10	1
4901784	37	C	07/09/2016	10:43	-132.591	44.797	0	920.40	0	3.5280	0	34.3560	0	27.328	0	910.926	0	11.5	4	3.6	4	-1E+10	1	-1E+10	1	-1E+10	1	-1E+10	1	-1E+10	1	-1E+10	1
4901784	37	C	07/09/2016	10:43	-132.591	44.797	0	925.40	0	3.4940	0	34.3550	0	27.330	0	915.863	0	11.6	4	3.6	4	-1E+10	1	-1E+10	1	-1E+10	1	-1E+10	1	-1E+10	1	-1E+10	1
4901784	37	C	07/09/2016	10:43	-132.591	44.797	0	930.50	0	3.4670	0	34.3560	0	27.334	0	920.900	0	11.7	4	3.6	4	-1E+10	1	-1E+10	1	-1E+10	1	-1E+10	1	-1E+10	1	-1E+10	1
4901784	37	C	07/09/2016	10:43	-132.591	44.797	0	935.60	0	3.4710	0	34.3600	0	27.336	0	925.936	0	11.6	4	3.6	4	-1E+10	1	-1E+10	1	-1E+10	1	-1E+10	1	-1E+10	1	-1E+10	1
4901784	37	C	07/09/2016	10:43	-132.591	44.797	0	940.70	0	3.4880	0	34.3660	0	27.340	0	930.972	0	11.7	4	3.6	4	-1E+10	1	-1E+10	1	-1E+10	1	-1E+10	1	-1E+10	1	-1E+10	1
4901784	37	C	07/09/2016	10:43	-132.591	44.797	0	945.60	0	3.4640	0	34.3660	0	27.342	0	935.810	0	11.8	4	3.7	4	-1E+10	1	-1E+10	1	-1E+10	1	-1E+10	1	-1E+10	1	-1E+10	1
4901784	37	C	07/09/2016	10:43	-132.591	44.797	0	950.70	0	3.4430	0	34.3680	0	27.346	0	940.846	0	11.9	4	3.7	4	-1E+10	1	-1E+10	1	-1E+10	1	-1E+10	1	-1E+10	1	-1E+10	1
4901784	37	C	07/09/2016	10:43	-132.591	44.797	0	955.00	0	3.4340	0	34.3700	0	27.348	0	945.092	0	12.2	4	3.8	4	-1E+10	1	-1E+10	1	-1E+10	1	-1E+10	1	-1E+10	1	-1E+10	1
4901784	37	C	07/09/2016	10:43	-132.591	44.797	0	959.20	0	3.4470	0	34.3750	0	27.351	0	949.238	0	12.6	4	3.9	4	-1E+10	1	-1E+10	1	-1E+10	1	-1E+10	1	-1E+10	1	-1E+10	1
4901784	37	C	07/09/2016	10:43	-132.591	44.797	0	964.30	0	3.4390	0	34.3790	0	27.355	0	954.274	0	12.6	4	3.9	4	-1E+10	1	-1E+10	1	-1E+10	1	-1E+10	1	-1E+10	1	-1E+10	1
4901784	37	C	07/09/2016	10:43	-132.591	44.797	0	969.40	0	3.4180	0	34.3790	0	27.357	0	959.309	0	12.5	4	3.9	4	-1E+10	1	-1E+10	1	-1E+10	1	-1E+10	1	-1E+10	1	-1E+10	1
4901784	37	C	07/09/2016	10:43	-132.591	44.797	0	974.40	0	3.3750	0	34.3810	0	27.363	0	964.246	0	12.6	4	3.9	4	-1E+10	1	-1E+10	1	-1E+10	1	-1E+10	1	-1E+10	1	-1E+10	1
4901784	37	C	07/09/2016	10:43	-132.591	44.797	0	979.50	0	3.3940	0	34.3870	0	27.366	0	969.281	0	13.0	4	4.1	4	-1E+10	1	-1E+10	1	-1E+10	1	-1E+10	1	-1E+10	1	-1E+10	1
4901784	37	C	07/09/2016	10:43	-132.591	44.797	0	984.70	0	3.3910	0	34.3910	0	27.369	0	974.414	0	12.8	4	4.0	4	-1E+10	1	-1E+10	1	-1E+10	1	-1E+10	1	-1E+10	1	-1E+10	1
4901784	37	C	07/09/2016	10:43	-132.591	44.797	0	989.90	0	3.3460	0	34.3910	0	27.373	0	979.548	0	12.6	4	3.9	4	-1E+10	1	-1E+10	1	-1E+10	1	-1E+10	1	-1E+10	1	-1E+10	1
4901784	37	C	07/09/2016	10:43	-132.591	44.797	0	995.00	0	3.3180	0	34.3930	0	27.378	0	984.583	0	12.6	4	3.9	4	-1E+10	1	-1E+10	1	-1E+10	1	-1E+10	1	-1E+10	1	-1E+10	1
4901784	37	C	07/09/2016	10:43	-132.591	44.797	0	1000.20	0	3.3140	0	34.3950	0	27.380	0	989.716	0	13.1	4	4.1	4	-1E+10	1	-1E+10	1	-1E+10	1	-1E+10	1	-1E+10	1	-1E+10	1
4901784	37	C	07/09/2016	10:43	-132.591	44.797	0	1005.40	0	3.3370	0	34.4050	0	27.385	0	994.849	0	13.5	4	4.2	4	-1E+10	1	-1E+10	1	-1E+10	1	-1E+10	1	-1E+10	1	-1E+10	1
4901784	37	C	07/09/2016	10:43	-132.591	44.797	0	1010.60	0	3.3640	0	34.4120	0	27.389	0	999.982	0	13.7	4	4.3	4	-1E+10	1	-1E+10	1	-1E+10	1	-1E+10	1	-1E+10	1	-1E+10	1
4901784	37	C	07/09/2016	10:43	-132.591	44.797	0	1015.00	0	3.3680	0	34.4140	0	27.390	0	1004.325	0	13.8	4	4.3	4	-1E+10	1	-1E+10	1	-1E+10	1	-1E+10	1	-1E+10	1	-1E+10	1
4901784	37	C	07/09/2016	10:43	-132.591	44.797	0	1019.30	0	3.3680	0	34.4140	0	27.390	0	1008.570	0	14.1	4	4.4	4	-1E+10	1	-1E+10	1	-1E+10	1	-1E+10	1	-1E+10	1	-1E+10	1
4901784	37	C	07/09/2016	10:43	-132.591	44.797	0	1024.50	0	3.3570	0	34.4160	0	27.393	0	1013.702	0	14.9	4	4.6	4	-1E+10	1	-1E+10	1	-1E+10	1	-1E+10	1	-1E+10	1	-1E+10	1
4901784	37	C	07/09/2016	10:43	-132.591	44.797	0	1029.60	0	3.3490	0	34.4170	0	27.394	0	1018.736	0	15.2	4	4.7	4	-1E+10	1	-1E+10	1	-1E+10	1	-1E+10	1	-1E+10	1	-1E+10	1
4901784	37	C	07/09/2016	10:43	-132.591	44.797	0	1034.90	0	3.3310	0	34.4180	0	27.397	0	1023.967	0	15.0	4	4.7	4	-1E+10	1	-1E+10	1	-1E+10	1	-1E+10	1	-1E+10	1	-1E+10	1
4901784	37	C	07/09/2016	10:43	-132.591	44.797	0	1040.20	0	3.3060	0	34.4170	0	27.398	0	1029.198	0	14.5	4	4.5	4	-1E+10	1	-1E+10	1	-1E+10	1	-1E+10	1	-1E+10	1	-1E+10	1
4901784	37	C	07/09/2016	10:43	-132.591	44.797	0	1045.50	0	3.2710	0	34.4170	0	27.402	0	1034.429	0	14.1	4	4.4	4	-1E+10	1	-1E+10	1	-1E+10	1	-1E+10	1	-1E+10	1	-1E+10	1
4901784	37	C	07/09/2016	10:43	-132.591	44.797	0	1050.00	0	3.2630	0	34.4180	0	27.403	0	1038.871	0	14.3	4	4.4	4	-1E+10	1	-1E+10	1	-1E+10	1	-1E+10	1	-1E+10	1	-1E+10	1
4901784	37	C	07/09/2016	10:43	-132.591	44.797	0	1055.00	0	3.2650	0	34.4200	0	27.405	0	1043.805	0	14.6	4	4.5	4	-1E+10	1	-1E+10	1	-1E+10	1	-1E+10	1	-1E+10	1	-1E+10	1
4901784	37	C	07/09/2016	10:43	-132.591	44.797	0	1060.10	0	3.2580	0	34.4210	0	27.406	0	1048.838	0	14.8	4	4.6	4	-1E+10	1	-1E+10	1	-1E+10	1	-1E+10	1	-1E+10	1	-1E+10	1
4901784	37	C	07/09/2016	10:43	-132.591	44.797	0	1064.90	0	3.2460	0	34.4220	0	27.408	0	1053.575	0	15.2	4	4.7	4	-1E+10	1	-1E+10	1	-1E+10	1	-1E+10	1	-1E+10	1	-1E+10	1
4901784	37	C	07/09/2016	10:43	-132.591	44.797	0	1069.60	0	3.2470	0	34.4250	0	27.410	0	1058.213	0	16.1	4	5.0	4	-1E+10	1	-1E+10	1	-1E+10	1	-1E+10	1	-1E+10	1	-1E+10	1
4901784	37	C	07/09/2016	10:43	-132.591	44.797	0	1074.40	0	3.2770	0	34.4320	0	27.413	0	1062.950	0	17.1	4	5.3	4	-1E+10	1	-1E+10	1	-1E+10	1	-1E+10	1	-1E+10	1	-1E+10	1
4901784	37	C	07/09/2016	10:43	-132.591	44.797	0	1079.30	0	3.2870	0	34.4360	0	27.415	0	1067.785	0	17.5	4	5.4	4	-1E+10	1	-1E+10	1	-1E+10	1	-1E+10	1	-1E+10	1	-1E+10	1
4901784	37	C	07/09/2016	10:43	-132.591	44.797	0	1085.00	0	3.2810	0	34.4380	0	27.418	0	1073.410	0	17.7	4	5.5	4	-1E+10	1	-1E+10	1	-1E+10	1	-1E+10	1	-1E+10	1	-1E+10	1
4901784	37	C	07/09/2016	10:43	-132.591	44.797	0	1090.80	0	3.2620	0	34.4390	0	27.420	0	1079.133	0	17.5	4	5.4	4	-1E+10	1	-1E+10	1	-1E+10	1	-1E+10	1	-1E+10	1	-1E+10	1
4901784	37	C	07/09/2016	10:43	-132.591	44.797	0	1095.00	0	3.2410	0	34.4390	0	27.422	0	1083.277	0	17.5	4	5.4	4	-1E+10	1	-1E+10	1	-1E+10	1	-1E+10	1	-1E+10	1	-1E+10	1
4901784	37	C	07/09/2016	10:43	-132.591	44.797	0	1099.90	0	3.2300	0	34.4400	0	27.424	0	1088.112	0	17.7	4	5.5	4	-1E+10	1	-1E+10	1	-1E+10	1	-1E+10	1	-1E+10	1	-1E+10	1
4901784	37	C	07/09/2016	10:43	-132.591	44.797	0	1105.40	0	3.2210	0	34.4430	0	27.427	0	1093.539	0	18.3	4	5.7	4	-1E+10	1	-1E+10	1	-1E+10	1	-1E+10	1	-1E+10	1	-1E+10	1
4901784	37	C	07/09/2016	10:43	-132.591	44.797	0	1110.10	0	3.2320	0	34.4470	0	27.430	0	1098.176	0	18.9	4	5.9	4	-1E+10	1	-1E+10	1	-1E+10	1	-1E+10	1	-1E+10	1	-1E+10	1
4901784	37	C	07/09/2016	10:43	-132.591	44.797	0	1114.90	0	3.2370	0	34.4510	0	27.432	0	1102.912	0	19.4	4	6.0	4	-1E+10	1	-1E+10	1	-1E+10	1	-1E+10	1	-1E+10	1	-1E+10	1
4901784	37	C	07/09/2016	10:43	-132.591	44.797	0	1119.90	0	3.2360	0	34.4530	0	27.434	0	1107.845	0	19.5	4	6.1	4	-1E+10	1	-1E+10	1	-1E+10	1	-1E+10	1	-1E+10	1	-1E+10	1
4901784	37	C	07/09/2016	10:43	-132.591	44.797	0	1124.80	0	3.2360	0	34.4530	0	27.434	0	1112.680	0	19.5	4	6.1	4	-1E+10	1	-1E+10	1	-1E+10	1	-1E+10	1	-1E+10	1	-1E+10	1
4901784	37	C	07/09/2016	10:43	-132.591	44.797	0	1129.80	0	3.2380	0	34.4530	0	27.434	0	1117.612	0	19.6	4	6.1	4	-1E+10	1	-1E+10	1	-1E+10	1	-1E+10	1	-1E+10	1	-1E+10	1
4901784	37	C	07/09/2016	10:43	-132.591	44.797	0	1134.70	0	3.2370	0	34.4540	0	27.435	0	1122.446	0	19.7	4	6.1	4	-1E+10	1	-1E+10	1	-1E+10	1	-1E+10	1	-1E+10	1	-1E+10	1
4901784	37	C	07/09/2016	10:43	-132.591	44.797	0	1139.60	0	3.2390	0	34.4560	0	27.436	0	1127.280	0	19.7	4	6.1	4	-1E+10	1	-1E+10	1	-1E+10	1	-1E+10	1	-1E+10	1	-1E+10	1
4901784	37	C	07/09/2016	10:43	-132.591	44.797	0	1144.60	0	3.2160	0	34.4550	0	27.438	0	1132.213	0	19.6	4	6.1	4	-1E+10	1	-1E+10	1	-1E+10	1	-1E+10	1	-1E+10	1	-1E+10	1
4901784	37	C	07/09/2016	10:43	-132.591	44.797	0	1149.70	0	3.2080	0	34.4550	0	27.438	0	1137.244	0	19.6	4	6.1	4	-1E+10	1	-1E+10	1	-1E+10	1	-1E+10	1	-1E+10	1	-1E+10	1
4901784	37	C	07/09/2016	10:43	-132.591	44.797	0	1154.80	0	3.1950	0	34.4550	0	27.440	0	1142.275	0	19.7	4	6.1	4	-1E+10	1	-1E+10	1	-1E+10	1	-1E+10	1	-1E+10	1	-1E+10	1
4901784	37	C	07/09/2016	10:43	-132.591	44.797	0	1159.90	0	3.1900	0	34.4570	0	27.442	0	1147.305	0	20.2	4	6.3	4	-1E+10	1	-1E+10	1	-1E+10	1	-1E+10	1	-1E+10	1	-1E+10	1
4901784	37	C	07/09/2016	10:43	-132.591	44.797	0	1165.00	0	3.2050	0	34.4620	0	27.444	0	1152.336	0	20.8	4	6.4	4	-1E+10	1	-1E+10	1	-1E+10	1	-1E+10	1	-1E+10	1	-1E+10	1
4901784	37	C	07/09/2016	10:43	-132.591	44.797	0	1170.20	0	3.1990	0	34.4630	0	27.446	0	1157.465	0	20.8	4	6.5	4	-1E+10	1	-1E+10	1	-1E+10	1	-1E+10	1	-1E+10	1	-1E+10	1
4901784	37	C	07/09/2016	10:43	-132.591	44.797	0	1175.50	0	3.1860	0	34.4640	0	27.448	0	1162.693	0	21.0	4	6.5	4	-1E+10	1	-1E+10	1	-1E+10	1	-1E+10	1	-1E+10	1	-1E+10	1
4901784	37	C	07/09/2016	10:43	-132.591	44.797	0	1180.70	0	3.1920	0	34.4670	0	27.450	0	1167.822	0	21.4	4	6.6	4	-1E+10	1	-1E+10	1	-1E+10	1	-1E+10	1	-1E+10	1	-1E+10	1
4901784	37	C	07/09/2016	10:43	-132.591	44.797	0	1185.10	0	3.1850	0	34.4680	0	27.451	0	1172.162	0	21.5	4	6.7	4	-1E+10	1	-1E+10	1	-1E+10	1	-1E+10	1	-1E+10	1	-1E+10	1
4901784	37	C	07/09/2016	10:43	-132.591	44.797	0	1189.60	0	3.1730	0	34.4690	0	27.453	0	1176.600	0	21.6	4	6.7	4	-1E+10	1	-1E+10	1	-1E+10	1	-1E+10	1	-1E+10	1	-1E+10	1
4901784	37	C	07/09/2016	10:43	-132.591	44.797	0	1195.10	0	3.1640	0	34.4700	0	27.455	0	1182.024	0	21.7	4	6.7	4	-1E+10	1	-1E+10	1	-1E+10	1	-1E+10	1	-1E+10	1	-1E+10	1
4901784	37	C	07/09/2016	10:43	-132.591	44.797	0	1200.60	0	3.1540	0	34.4720	0	27.457	0	1187.449	0	21.9	4	6.8	4	-1E+10	1	-1E+10	1	-1E+10	1	-1E+10	1	-1E+10	1	-1E+10	1
4901784	37	C	07/09/2016	10:43	-132.591	44.797	0	1205.20	0	3.1460	0	34.4720	0	27.458	0	1191.985	0	22.0	4	6.8	4	-1E+10	1	-1E+10	1	-1E+10	1	-1E+10	1	-1E+10	1	-1E+10	1
4901784	37	C	07/09/2016	10:43	-132.591	44.797	0	1209.80	0	3.1400	0	34.4730	0	27.459	0	1196.522	0	22.1	4	6.8	4	-1E+10	1	-1E+10	1	-1E+10	1	-1E+10	1	-1E+10	1	-1E+10	1
4901784	37	C	07/09/2016	10:43	-132.591	44.797	0	1215.10	0	3.1350	0	34.4740	0	27.461	0	1201.748	0	22.1	4	6.9	4	-1E+10	1	-1E+10	1	-1E+10	1	-1E+10	1	-1E+10	1	-1E+10	1
4901784	37	C	07/09/2016	10:43	-132.591	44.797	0	1220.30	0	3.1210	0	34.4740	0	27.462	0	1206.876	0	22.1	4	6.9	4	-1E+10	1	-1E+10	1	-1E+10	1	-1E+10	1	-1E+10	1	-1E+10	1
4901784	37	C	07/09/2016	10:43	-132.591	44.797	0	1225.50	0	3.1110	0	34.4750	0	27.464	0	1212.004	0	22.3	4	6.9	4	-1E+10	1	-1E+10	1	-1E+10	1	-1E+10	1	-1E+10	1	-1E+10	1
4901784	37	C	07/09/2016	10:43	-132.591	44.797	0	1230.00	0	3.1080	0	34.4760	0	27.465	0	1216.442	0	22.4	4	6.9	4	-1E+10	1	-1E+10	1	-1E+10	1	-1E+10	1	-1E+10	1	-1E+10	1
4901784	37	C	07/09/2016	10:43	-132.591	44.797	0	1234.40	0	3.1030	0	34.4770	0	27.466	0	1220.780	0	22.6	4	7.0	4	-1E+10	1	-1E+10	1	-1E+10	1	-1E+10	1	-1E+10	1	-1E+10	1
4901784	37	C	07/09/2016	10:43	-132.591	44.797	0	1239.80	0	3.1040	0	34.4790	0	27.468	0	1226.105	0	22.8	4	7.1	4	-1E+10	1	-1E+10	1	-1E+10	1	-1E+10	1	-1E+10	1	-1E+10	1
4901784	37	C	07/09/2016	10:43	-132.591	44.797	0	1245.20	0	3.0990	0	34.4790	0	27.468	0	1231.430	0	23.0	4	7.1	4	-1E+10	1	-1E+10	1	-1E+10	1	-1E+10	1	-1E+10	1	-1E+10	1
4901784	37	C	07/09/2016	10:43	-132.591	44.797	0	1250.60	0	3.0940	0	34.4820	0	27.471	0	1236.754	0	23.3	4	7.2	4	-1E+10	1	-1E+10	1	-1E+10	1	-1E+10	1	-1E+10	1	-1E+10	1
4901784	37	C	07/09/2016	10:43	-132.591	44.797	0	1255.10	0	3.0890	0	34.4820	0	27.472	0	1241.191	0	23.3	4	7.2	4	-1E+10	1	-1E+10	1	-1E+10	1	-1E+10	1	-1E+10	1	-1E+10	1
4901784	37	C	07/09/2016	10:43	-132.591	44.797	0	1259.60	0	3.0810	0	34.4820	0	27.472	0	1245.628	0	23.4	4	7.2	4	-1E+10	1	-1E+10	1	-1E+10	1	-1E+10	1	-1E+10	1	-1E+10	1
4901784	37	C	07/09/2016	10:43	-132.591	44.797	0	1264.90	0	3.0720	0	34.4840	0	27.475	0	1250.853	0	23.7	4	7.3	4	-1E+10	1	-1E+10	1	-1E+10	1	-1E+10	1	-1E+10	1	-1E+10	1
4901784	37	C	07/09/2016	10:43	-132.591	44.797	0	1270.30	0	3.0720	0	34.4860	0	27.476	0	1256.177	0	24.0	4	7.4	4	-1E+10	1	-1E+10	1	-1E+10	1	-1E+10	1	-1E+10	1	-1E+10	1
4901784	37	C	07/09/2016	10:43	-132.591	44.797	0	1275.70	0	3.0750	0	34.4870	0	27.477	0	1261.501	0	24.2	4	7.5	4	-1E+10	1	-1E+10	1	-1E+10	1	-1E+10	1	-1E+10	1	-1E+10	1
4901784	37	C	07/09/2016	10:43	-132.591	44.797	0	1280.20	0	3.0720	0	34.4880	0	27.478	0	1265.937	0	24.3	4	7.5	4	-1E+10	1	-1E+10	1	-1E+10	1	-1E+10	1	-1E+10	1	-1E+10	1
4901784	37	C	07/09/2016	10:43	-132.591	44.797	0	1284.70	0	3.0680	0	34.4880	0	27.479	0	1270.374	0	24.2	4	7.5	4	-1E+10	1	-1E+10	1	-1E+10	1	-1E+10	1	-1E+10	1	-1E+10	1
4901784	37	C	07/09/2016	10:43	-132.591	44.797	0	1290.20	0	3.0610	0	34.4880	0	27.479	0	1275.796	0	24.3	4	7.5	4	-1E+10	1	-1E+10	1	-1E+10	1	-1E+10	1	-1E+10	1	-1E+10	1
4901784	37	C	07/09/2016	10:43	-132.591	44.797	0	1294.80	0	3.0480	0	34.4890	0	27.481	0	1280.330	0	24.4	4	7.5	4	-1E+10	1	-1E+10	1	-1E+10	1	-1E+10	1	-1E+10	1	-1E+10	1
4901784	37	C	07/09/2016	10:43	-132.591	44.797	0	1299.30	0	3.0440	0	34.4900	0	27.482	0	1284.766	0	24.4	4	7.5	4	-1E+10	1	-1E+10	1	-1E+10	1	-1E+10	1	-1E+10	1	-1E+10	1
4901784	37	C	07/09/2016	10:43	-132.591	44.797	0	1304.80	0	3.0170	0	34.4890	0	27.484	0	1290.188	0	24.2	4	7.5	4	-1E+10	1	-1E+10	1	-1E+10	1	-1E+10	1	-1E+10	1	-1E+10	1
4901784	37	C	07/09/2016	10:43	-132.591	44.797	0	1310.30	0	3.0010	0	34.4890	0	27.486	0	1295.609	0	24.2	4	7.5	4	-1E+10	1	-1E+10	1	-1E+10	1	-1E+10	1	-1E+10	1	-1E+10	1
4901784	37	C	07/09/2016	10:43	-132.591	44.797	0	1314.80	0	2.9890	0	34.4900	0	27.487	0	1300.045	0	24.0	4	7.4	4	-1E+10	1	-1E+10	1	-1E+10	1	-1E+10	1	-1E+10	1	-1E+10	1
4901784	37	C	07/09/2016	10:43	-132.591	44.797	0	1319.40	0	2.9770	0	34.4890	0	27.488	0	1304.579	0	24.0	4	7.4	4	-1E+10	1	-1E+10	1	-1E+10	1	-1E+10	1	-1E+10	1	-1E+10	1
4901784	37	C	07/09/2016	10:43	-132.591	44.797	0	1324.90	0	2.9700	0	34.4890	0	27.488	0	1310.000	0	24.1	4	7.4	4	-1E+10	1	-1E+10	1	-1E+10	1	-1E+10	1	-1E+10	1	-1E+10	1
4901784	37	C	07/09/2016	10:43	-132.591	44.797	0	1330.40	0	2.9620	0	34.4900	0	27.490	0	1315.421	0	24.2	4	7.5	4	-1E+10	1	-1E+10	1	-1E+10	1	-1E+10	1	-1E+10	1	-1E+10	1
4901784	37	C	07/09/2016	10:43	-132.591	44.797	0	1335.00	0	2.9560	0	34.4910	0	27.491	0	1319.955	0	24.4	4	7.5	4	-1E+10	1	-1E+10	1	-1E+10	1	-1E+10	1	-1E+10	1	-1E+10	1
4901784	37	C	07/09/2016	10:43	-132.591	44.797	0	1339.60	0	2.9500	0	34.4910	0	27.492	0	1324.489	0	24.6	4	7.6	4	-1E+10	1	-1E+10	1	-1E+10	1	-1E+10	1	-1E+10	1	-1E+10	1
4901784	37	C	07/09/2016	10:43	-132.591	44.797	0	1345.10	0	2.9380	0	34.4930	0	27.495	0	1329.909	0	24.8	4	7.7	4	-1E+10	1	-1E+10	1	-1E+10	1	-1E+10	1	-1E+10	1	-1E+10	1
4901784	37	C	07/09/2016	10:43	-132.591	44.797	0	1349.80	0	2.9300	0	34.4950	0	27.497	0	1334.542	0	25.0	4	7.7	4	-1E+10	1	-1E+10	1	-1E+10	1	-1E+10	1	-1E+10	1	-1E+10	1
4901784	37	C	07/09/2016	10:43	-132.591	44.797	0	1354.40	0	2.9240	0	34.4950	0	27.497	0	1339.075	0	25.2	4	7.8	4	-1E+10	1	-1E+10	1	-1E+10	1	-1E+10	1	-1E+10	1	-1E+10	1
4901784	37	C	07/09/2016	10:43	-132.591	44.797	0	1360.00	0	2.9140	0	34.4960	0	27.499	0	1344.594	0	25.4	4	7.8	4	-1E+10	1	-1E+10	1	-1E+10	1	-1E+10	1	-1E+10	1	-1E+10	1
4901784	37	C	07/09/2016	10:43	-132.591	44.797	0	1365.60	0	2.9030	0	34.4980	0	27.502	0	1350.112	0	25.6	4	7.9	4	-1E+10	1	-1E+10	1	-1E+10	1	-1E+10	1	-1E+10	1	-1E+10	1
4901784	37	C	07/09/2016	10:43	-132.591	44.797	0	1370.30	0	2.8980	0	34.4980	0	27.502	0	1354.744	0	25.6	4	7.9	4	-1E+10	1	-1E+10	1	-1E+10	1	-1E+10	1	-1E+10	1	-1E+10	1
4901784	37	C	07/09/2016	10:43	-132.591	44.797	0	1374.80	0	2.8920	0	34.4980	0	27.503	0	1359.178	0	25.4	4	7.8	4	-1E+10	1	-1E+10	1	-1E+10	1	-1E+10	1	-1E+10	1	-1E+10	1
4901784	37	C	07/09/2016	10:43	-132.591	44.797	0	1379.80	0	2.8780	0	34.4970	0	27.503	0	1364.105	0	25.2	4	7.8	4	-1E+10	1	-1E+10	1	-1E+10	1	-1E+10	1	-1E+10	1	-1E+10	1
4901784	37	C	07/09/2016	10:43	-132.591	44.797	0	1384.80	0	2.8700	0	34.4960	0	27.503	0	1369.032	0	25.3	4	7.8	4	-1E+10	1	-1E+10	1	-1E+10	1	-1E+10	1	-1E+10	1	-1E+10	1
4901784	37	C	07/09/2016	10:43	-132.591	44.797	0	1389.80	0	2.8630	0	34.4970	0	27.505	0	1373.959	0	25.5	4	7.8	4	-1E+10	1	-1E+10	1	-1E+10	1	-1E+10	1	-1E+10	1	-1E+10	1
4901784	37	C	07/09/2016	10:43	-132.591	44.797	0	1394.80	0	2.8550	0	34.4990	0	27.507	0	1378.886	0	25.6	4	7.9	4	-1E+10	1	-1E+10	1	-1E+10	1	-1E+10	1	-1E+10	1	-1E+10	1
4901784	37	C	07/09/2016	10:43	-132.591	44.797	0	1399.80	0	2.8500	0	34.4990	0	27.507	0	1383.812	0	25.7	4	7.9	4	-1E+10	1	-1E+10	1	-1E+10	1	-1E+10	1	-1E+10	1	-1E+10	1
4901784	37	C	07/09/2016	10:43	-132.591	44.797	0	1404.80	0	2.8410	0	34.4990	0	27.508	0	1388.739	0	25.9	4	8.0	4	-1E+10	1	-1E+10	1	-1E+10	1	-1E+10	1	-1E+10	1	-1E+10	1
4901784	37	C	07/09/2016	10:43	-132.591	44.797	0	1409.70	0	2.8220	0	34.5010	0	27.512	0	1393.567	0	26.1	4	8.0	4	-1E+10	1	-1E+10	1	-1E+10	1	-1E+10	1	-1E+10	1	-1E+10	1
4901784	37	C	07/09/2016	10:43	-132.591	44.797	0	1414.70	0	2.8140	0	34.5020	0	27.513	0	1398.493	0	26.2	4	8.1	4	-1E+10	1	-1E+10	1	-1E+10	1	-1E+10	1	-1E+10	1	-1E+10	1
4901784	37	C	07/09/2016	10:43	-132.591	44.797	0	1419.70	0	2.8090	0	34.5020	0	27.514	0	1403.419	0	26.3	4	8.1	4	-1E+10	1	-1E+10	1	-1E+10	1	-1E+10	1	-1E+10	1	-1E+10	1
4901784	37	C	07/09/2016	10:43	-132.591	44.797	0	1424.80	0	2.8060	0	34.5020	0	27.514	0	1408.444	0	26.4	4	8.1	4	-1E+10	1	-1E+10	1	-1E+10	1	-1E+10	1	-1E+10	1	-1E+10	1
4901784	37	C	07/09/2016	10:43	-132.591	44.797	0	1429.80	0	2.8000	0	34.5030	0	27.515	0	1413.369	0	26.5	4	8.1	4	-1E+10	1	-1E+10	1	-1E+10	1	-1E+10	1	-1E+10	1	-1E+10	1
4901784	37	C	07/09/2016	10:43	-132.591	44.797	0	1434.90	0	2.7940	0	34.5030	0	27.516	0	1418.394	0	26.6	4	8.2	4	-1E+10	1	-1E+10	1	-1E+10	1	-1E+10	1	-1E+10	1	-1E+10	1
4901784	37	C	07/09/2016	10:43	-132.591	44.797	0	1439.90	0	2.7760	0	34.5040	0	27.518	0	1423.319	0	26.6	4	8.2	4	-1E+10	1	-1E+10	1	-1E+10	1	-1E+10	1	-1E+10	1	-1E+10	1
4901784	37	C	07/09/2016	10:43	-132.591	44.797	0	1445.10	0	2.7670	0	34.5040	0	27.519	0	1428.442	0	26.6	4	8.2	4	-1E+10	1	-1E+10	1	-1E+10	1	-1E+10	1	-1E+10	1	-1E+10	1
4901784	37	C	07/09/2016	10:43	-132.591	44.797	0	1450.20	0	2.7560	0	34.5040	0	27.520	0	1433.466	0	26.6	4	8.2	4	-1E+10	1	-1E+10	1	-1E+10	1	-1E+10	1	-1E+10	1	-1E+10	1
4901784	37	C	07/09/2016	10:43	-132.591	44.797	0	1455.40	0	2.7380	0	34.5040	0	27.522	0	1438.588	0	26.7	4	8.2	4	-1E+10	1	-1E+10	1	-1E+10	1	-1E+10	1	-1E+10	1	-1E+10	1
4901784	37	C	07/09/2016	10:43	-132.591	44.797	0	1460.60	0	2.7380	0	34.5040	0	27.522	0	1443.710	0	26.7	4	8.2	4	-1E+10	1	-1E+10	1	-1E+10	1	-1E+10	1	-1E+10	1	-1E+10	1
4901784	37	C	07/09/2016	10:43	-132.591	44.797	0	1465.70	0	2.7280	0	34.5040	0	27.522	0	1448.734	0	26.8	4	8.2	4	-1E+10	1	-1E+10	1	-1E+10	1	-1E+10	1	-1E+10	1	-1E+10	1
4901784	37	C	07/09/2016	10:43	-132.591	44.797	0	1470.00	0	2.7150	0	34.5050	0	27.524	0	1452.969	0	26.7	4	8.2	4	-1E+10	1	-1E+10	1	-1E+10	1	-1E+10	1	-1E+10	1	-1E+10	1
4901784	37	C	07/09/2016	10:43	-132.591	44.797	0	1474.40	0	2.7060	0	34.5050	0	27.525	0	1457.303	0	26.7	4	8.2	4	-1E+10	1	-1E+10	1	-1E+10	1	-1E+10	1	-1E+10	1	-1E+10	1
4901784	37	C	07/09/2016	10:43	-132.591	44.797	0	1479.70	0	2.7000	0	34.5040	0	27.525	0	1462.523	0	26.7	4	8.2	4	-1E+10	1	-1E+10	1	-1E+10	1	-1E+10	1	-1E+10	1	-1E+10	1
4901784	37	C	07/09/2016	10:43	-132.591	44.797	0	1485.10	0	2.6920	0	34.5030	0	27.525	0	1467.842	0	26.6	4	8.1	4	-1E+10	1	-1E+10	1	-1E+10	1	-1E+10	1	-1E+10	1	-1E+10	1
4901784	37	C	07/09/2016	10:43	-132.591	44.797	0	1490.40	0	2.6710	0	34.5030	0	27.527	0	1473.062	0	26.5	4	8.1	4	-1E+10	1	-1E+10	1	-1E+10	1	-1E+10	1	-1E+10	1	-1E+10	1
4901784	37	C	07/09/2016	10:43	-132.591	44.797	0	1495.70	0	2.6590	0	34.5040	0	27.529	0	1478.281	0	26.5	4	8.1	4	-1E+10	1	-1E+10	1	-1E+10	1	-1E+10	1	-1E+10	1	-1E+10	1
4901784	37	C	07/09/2016	10:43	-132.591	44.797	0	1500.20	0	2.6370	0	34.5040	0	27.530	0	1482.713	0	26.3	4	8.1	4	-1E+10	1	-1E+10	1	-1E+10	1	-1E+10	1	-1E+10	1	-1E+10	1
4901784	37	C	07/09/2016	10:43	-132.591	44.797	0	1504.60	0	2.6320	0	34.5030	0	27.530	0	1487.047	0	26.4	4	8.1	4	-1E+10	1	-1E+10	1	-1E+10	1	-1E+10	1	-1E+10	1	-1E+10	1
4901784	37	C	07/09/2016	10:43	-132.591	44.797	0	1510.00	0	2.6240	0	34.5030	0	27.531	0	1492.365	0	26.4	4	8.1	4	-1E+10	1	-1E+10	1	-1E+10	1	-1E+10	1	-1E+10	1	-1E+10	1
4901784	37	C	07/09/2016	10:43	-132.591	44.797	0	1515.40	0	2.6130	0	34.5040	0	27.533	0	1497.682	0	26.6	4	8.1	4	-1E+10	1	-1E+10	1	-1E+10	1	-1E+10	1	-1E+10	1	-1E+10	1
4901784	37	C	07/09/2016	10:43	-132.591	44.797	0	1519.90	0	2.6070	0	34.5040	0	27.533	0	1502.114	0	26.8	4	8.2	4	-1E+10	1	-1E+10	1	-1E+10	1	-1E+10	1	-1E+10	1	-1E+10	1
4901784	37	C	07/09/2016	10:43	-132.591	44.797	0	1524.50	0	2.5990	0	34.5050	0	27.535	0	1506.644	0	27.0	4	8.3	4	-1E+10	1	-1E+10	1	-1E+10	1	-1E+10	1	-1E+10	1	-1E+10	1
4901784	37	C	07/09/2016	10:43	-132.591	44.797	0	1530.10	0	2.5840	0	34.5060	0	27.537	0	1512.158	0	27.3	4	8.3	4	-1E+10	1	-1E+10	1	-1E+10	1	-1E+10	1	-1E+10	1	-1E+10	1
4901784	37	C	07/09/2016	10:43	-132.591	44.797	0	1534.70	0	2.5730	0	34.5070	0	27.538	0	1516.687	0	27.4	4	8.4	4	-1E+10	1	-1E+10	1	-1E+10	1	-1E+10	1	-1E+10	1	-1E+10	1
4901784	37	C	07/09/2016	10:43	-132.591	44.797	0	1539.30	0	2.5650	0	34.5070	0	27.539	0	1521.217	0	27.5	4	8.4	4	-1E+10	1	-1E+10	1	-1E+10	1	-1E+10	1	-1E+10	1	-1E+10	1
4901784	37	C	07/09/2016	10:43	-132.591	44.797	0	1545.50	0	2.5480	0	34.5080	0	27.541	0	1527.322	0	27.7	4	8.5	4	-1E+10	1	-1E+10	1	-1E+10	1	-1E+10	1	-1E+10	1	-1E+10	1
4901784	37	C	07/09/2016	10:43	-132.591	44.797	0	1550.60	0	2.5330	0	34.5090	0	27.544	0	1532.343	0	27.9	4	8.5	4	-1E+10	1	-1E+10	1	-1E+10	1	-1E+10	1	-1E+10	1	-1E+10	1
4901784	37	C	07/09/2016	10:43	-132.591	44.797	0	1555.30	0	2.5220	0	34.5090	0	27.544	0	1536.971	0	28.0	4	8.6	4	-1E+10	1	-1E+10	1	-1E+10	1	-1E+10	1	-1E+10	1	-1E+10	1
4901784	37	C	07/09/2016	10:43	-132.591	44.797	0	1560.10	0	2.5090	0	34.5100	0	27.546	0	1541.697	0	28.2	4	8.6	4	-1E+10	1	-1E+10	1	-1E+10	1	-1E+10	1	-1E+10	1	-1E+10	1
4901784	37	C	07/09/2016	10:43	-132.591	44.797	0	1565.00	0	2.5030	0	34.5110	0	27.548	0	1546.521	0	28.3	4	8.6	4	-1E+10	1	-1E+10	1	-1E+10	1	-1E+10	1	-1E+10	1	-1E+10	1
4901784	37	C	07/09/2016	10:43	-132.591	44.797	0	1569.90	0	2.4980	0	34.5110	0	27.548	0	1551.345	0	28.5	4	8.7	4	-1E+10	1	-1E+10	1	-1E+10	1	-1E+10	1	-1E+10	1	-1E+10	1
4901784	37	C	07/09/2016	10:43	-132.591	44.797	0	1574.80	0	2.4890	0	34.5120	0	27.550	0	1556.170	0	28.6	4	8.7	4	-1E+10	1	-1E+10	1	-1E+10	1	-1E+10	1	-1E+10	1	-1E+10	1
4901784	37	C	07/09/2016	10:43	-132.591	44.797	0	1579.60	0	2.4840	0	34.5120	0	27.550	0	1560.895	0	29.0	4	8.8	4	-1E+10	1	-1E+10	1	-1E+10	1	-1E+10	1	-1E+10	1	-1E+10	1
4901784	37	C	07/09/2016	10:43	-132.591	44.797	0	1584.50	0	2.4780	0	34.5140	0	27.552	0	1565.719	0	29.6	4	9.0	4	-1E+10	1	-1E+10	1	-1E+10	1	-1E+10	1	-1E+10	1	-1E+10	1
4901784	37	C	07/09/2016	10:43	-132.591	44.797	0	1589.50	0	2.4730	0	34.5160	0	27.554	0	1570.641	0	30.1	4	9.2	4	-1E+10	1	-1E+10	1	-1E+10	1	-1E+10	1	-1E+10	1	-1E+10	1
4901784	37	C	07/09/2016	10:43	-132.591	44.797	0	1594.40	0	2.4640	0	34.5170	0	27.556	0	1575.465	0	30.4	4	9.3	4	-1E+10	1	-1E+10	1	-1E+10	1	-1E+10	1	-1E+10	1	-1E+10	1
4901784	37	C	07/09/2016	10:43	-132.591	44.797	0	1599.40	0	2.4580	0	34.5180	0	27.557	0	1580.387	0	30.6	4	9.3	4	-1E+10	1	-1E+10	1	-1E+10	1	-1E+10	1	-1E+10	1	-1E+10	1
4901784	37	C	07/09/2016	10:43	-132.591	44.797	0	1604.30	0	2.4480	0	34.5180	0	27.558	0	1585.210	0	30.8	4	9.4	4	-1E+10	1	-1E+10	1	-1E+10	1	-1E+10	1	-1E+10	1	-1E+10	1
4901784	37	C	07/09/2016	10:43	-132.591	44.797	0	1609.30	0	2.4380	0	34.5190	0	27.560	0	1590.132	0	31.0	4	9.5	4	-1E+10	1	-1E+10	1	-1E+10	1	-1E+10	1	-1E+10	1	-1E+10	1
4901784	37	C	07/09/2016	10:43	-132.591	44.797	0	1614.30	0	2.4220	0	34.5200	0	27.562	0	1595.053	0	31.4	4	9.6	4	-1E+10	1	-1E+10	1	-1E+10	1	-1E+10	1	-1E+10	1	-1E+10	1
4901784	37	C	07/09/2016	10:43	-132.591	44.797	0	1619.30	0	2.4020	0	34.5210	0	27.564	0	1599.975	0	31.6	4	9.6	4	-1E+10	1	-1E+10	1	-1E+10	1	-1E+10	1	-1E+10	1	-1E+10	1
4901784	37	C	07/09/2016	10:43	-132.591	44.797	0	1624.40	0	2.3960	0	34.5220	0	27.566	0	1604.995	0	31.8	4	9.7	4	-1E+10	1	-1E+10	1	-1E+10	1	-1E+10	1	-1E+10	1	-1E+10	1
4901784	37	C	07/09/2016	10:43	-132.591	44.797	0	1629.50	0	2.3860	0	34.5220	0	27.567	0	1610.014	0	32.1	4	9.8	4	-1E+10	1	-1E+10	1	-1E+10	1	-1E+10	1	-1E+10	1	-1E+10	1
4901784	37	C	07/09/2016	10:43	-132.591	44.797	0	1634.60	0	2.3680	0	34.5240	0	27.570	0	1615.034	0	32.5	4	9.9	4	-1E+10	1	-1E+10	1	-1E+10	1	-1E+10	1	-1E+10	1	-1E+10	1
4901784	37	C	07/09/2016	10:43	-132.591	44.797	0	1639.70	0	2.3600	0	34.5250	0	27.571	0	1620.053	0	32.7	4	9.9	4	-1E+10	1	-1E+10	1	-1E+10	1	-1E+10	1	-1E+10	1	-1E+10	1
4901784	37	C	07/09/2016	10:43	-132.591	44.797	0	1644.70	0	2.3590	0	34.5250	0	27.571	0	1624.974	0	32.9	4	10.0	4	-1E+10	1	-1E+10	1	-1E+10	1	-1E+10	1	-1E+10	1	-1E+10	1
4901784	37	C	07/09/2016	10:43	-132.591	44.797	0	1649.80	0	2.3520	0	34.5260	0	27.573	0	1629.994	0	33.3	4	10.1	4	-1E+10	1	-1E+10	1	-1E+10	1	-1E+10	1	-1E+10	1	-1E+10	1
4901784	37	C	07/09/2016	10:43	-132.591	44.797	0	1654.80	0	2.3370	0	34.5270	0	27.575	0	1634.914	0	33.7	4	10.3	4	-1E+10	1	-1E+10	1	-1E+10	1	-1E+10	1	-1E+10	1	-1E+10	1
4901784	37	C	07/09/2016	10:43	-132.591	44.797	0	1659.90	0	2.3260	0	34.5290	0	27.577	0	1639.933	0	34.1	4	10.4	4	-1E+10	1	-1E+10	1	-1E+10	1	-1E+10	1	-1E+10	1	-1E+10	1
4901784	37	C	07/09/2016	10:43	-132.591	44.797	0	1665.10	0	2.3170	0	34.5300	0	27.579	0	1645.051	0	34.4	4	10.4	4	-1E+10	1	-1E+10	1	-1E+10	1	-1E+10	1	-1E+10	1	-1E+10	1
4901784	37	C	07/09/2016	10:43	-132.591	44.797	0	1670.30	0	2.3150	0	34.5300	0	27.579	0	1650.168	0	34.7	4	10.5	4	-1E+10	1	-1E+10	1	-1E+10	1	-1E+10	1	-1E+10	1	-1E+10	1
4901784	37	C	07/09/2016	10:43	-132.591	44.797	0	1675.40	0	2.3080	0	34.5310	0	27.580	0	1655.186	0	35.2	4	10.7	4	-1E+10	1	-1E+10	1	-1E+10	1	-1E+10	1	-1E+10	1	-1E+10	1
4901784	37	C	07/09/2016	10:43	-132.591	44.797	0	1680.70	0	2.2960	0	34.5330	0	27.583	0	1660.402	0	35.8	4	10.9	4	-1E+10	1	-1E+10	1	-1E+10	1	-1E+10	1	-1E+10	1	-1E+10	1
4901784	37	C	07/09/2016	10:43	-132.591	44.797	0	1685.00	0	2.2900	0	34.5340	0	27.584	0	1664.633	0	36.2	4	11.0	4	-1E+10	1	-1E+10	1	-1E+10	1	-1E+10	1	-1E+10	1	-1E+10	1
4901784	37	C	07/09/2016	10:43	-132.591	44.797	0	1689.30	0	2.2770	0	34.5360	0	27.587	0	1668.864	0	36.6	4	11.1	4	-1E+10	1	-1E+10	1	-1E+10	1	-1E+10	1	-1E+10	1	-1E+10	1
4901784	37	C	07/09/2016	10:43	-132.591	44.797	0	1694.60	0	2.2680	0	34.5370	0	27.589	0	1674.079	0	37.0	4	11.2	4	-1E+10	1	-1E+10	1	-1E+10	1	-1E+10	1	-1E+10	1	-1E+10	1
4901784	37	C	07/09/2016	10:43	-132.591	44.797	0	1699.90	0	2.2640	0	34.5380	0	27.590	0	1679.294	0	37.5	4	11.4	4	-1E+10	1	-1E+10	1	-1E+10	1	-1E+10	1	-1E+10	1	-1E+10	1
4901784	37	C	07/09/2016	10:43	-132.591	44.797	0	1705.20	0	2.2530	0	34.5410	0	27.593	0	1684.509	0	37.9	4	11.5	4	-1E+10	1	-1E+10	1	-1E+10	1	-1E+10	1	-1E+10	1	-1E+10	1
4901784	37	C	07/09/2016	10:43	-132.591	44.797	0	1710.50	0	2.2470	0	34.5410	0	27.594	0	1689.723	0	38.2	4	11.6	4	-1E+10	1	-1E+10	1	-1E+10	1	-1E+10	1	-1E+10	1	-1E+10	1
4901784	37	C	07/09/2016	10:43	-132.591	44.797	0	1714.90	0	2.2390	0	34.5430	0	27.596	0	1694.052	0	38.6	4	11.7	4	-1E+10	1	-1E+10	1	-1E+10	1	-1E+10	1	-1E+10	1	-1E+10	1
4901784	37	C	07/09/2016	10:43	-132.591	44.797	0	1719.40	0	2.2360	0	34.5430	0	27.596	0	1698.479	0	38.8	4	11.8	4	-1E+10	1	-1E+10	1	-1E+10	1	-1E+10	1	-1E+10	1	-1E+10	1
4901784	37	C	07/09/2016	10:43	-132.591	44.797	0	1724.80	0	2.2290	0	34.5430	0	27.597	0	1703.792	0	39.0	4	11.8	4	-1E+10	1	-1E+10	1	-1E+10	1	-1E+10	1	-1E+10	1	-1E+10	1
4901784	37	C	07/09/2016	10:43	-132.591	44.797	0	1730.30	0	2.2220	0	34.5440	0	27.598	0	1709.203	0	39.4	4	11.9	4	-1E+10	1	-1E+10	1	-1E+10	1	-1E+10	1	-1E+10	1	-1E+10	1
4901784	37	C	07/09/2016	10:43	-132.591	44.797	0	1734.90	0	2.2190	0	34.5450	0	27.599	0	1713.728	0	39.7	4	12.0	4	-1E+10	1	-1E+10	1	-1E+10	1	-1E+10	1	-1E+10	1	-1E+10	1
4901784	37	C	07/09/2016	10:43	-132.591	44.797	0	1740.10	0	2.2200	0	34.5460	0	27.600	0	1718.844	0	40.1	4	12.2	4	-1E+10	1	-1E+10	1	-1E+10	1	-1E+10	1	-1E+10	1	-1E+10	1
4901784	37	C	07/09/2016	10:43	-132.591	44.797	0	1745.20	0	2.2150	0	34.5470	0	27.601	0	1723.861	0	40.5	4	12.3	4	-1E+10	1	-1E+10	1	-1E+10	1	-1E+10	1	-1E+10	1	-1E+10	1
4901784	37	C	07/09/2016	10:43	-132.591	44.797	0	1750.10	0	2.2110	0	34.5480	0	27.602	0	1728.681	0	40.9	4	12.4	4	-1E+10	1	-1E+10	1	-1E+10	1	-1E+10	1	-1E+10	1	-1E+10	1
4901784	37	C	07/09/2016	10:43	-132.591	44.797	0	1754.90	0	2.2060	0	34.5500	0	27.604	0	1733.403	0	41.3	4	12.5	4	-1E+10	1	-1E+10	1	-1E+10	1	-1E+10	1	-1E+10	1	-1E+10	1
4901784	37	C	07/09/2016	10:43	-132.591	44.797	0	1759.80	0	2.1990	0	34.5510	0	27.606	0	1738.223	0	41.5	4	12.6	4	-1E+10	1	-1E+10	1	-1E+10	1	-1E+10	1	-1E+10	1	-1E+10	1
4901784	37	C	07/09/2016	10:43	-132.591	44.797	0	1764.70	0	2.1940	0	34.5510	0	27.606	0	1743.042	0	41.8	4	12.7	4	-1E+10	1	-1E+10	1	-1E+10	1	-1E+10	1	-1E+10	1	-1E+10	1
4901784	37	C	07/09/2016	10:43	-132.591	44.797	0	1769.60	0	2.1870	0	34.5520	0	27.607	0	1747.862	0	42.1	4	12.8	4	-1E+10	1	-1E+10	1	-1E+10	1	-1E+10	1	-1E+10	1	-1E+10	1
4901784	37	C	07/09/2016	10:43	-132.591	44.797	0	1774.50	0	2.1800	0	34.5520	0	27.608	0	1752.682	0	42.4	4	12.9	4	-1E+10	1	-1E+10	1	-1E+10	1	-1E+10	1	-1E+10	1	-1E+10	1
4901784	37	C	07/09/2016	10:43	-132.591	44.797	0	1779.50	0	2.1700	0	34.5530	0	27.610	0	1757.599	0	42.8	4	13.0	4	-1E+10	1	-1E+10	1	-1E+10	1	-1E+10	1	-1E+10	1	-1E+10	1
4901784	37	C	07/09/2016	10:43	-132.591	44.797	0	1784.60	0	2.1590	0	34.5540	0	27.611	0	1762.615	0	43.1	4	13.0	4	-1E+10	1	-1E+10	1	-1E+10	1	-1E+10	1	-1E+10	1	-1E+10	1
4901784	37	C	07/09/2016	10:43	-132.591	44.797	0	1789.70	0	2.1520	0	34.5550	0	27.613	0	1767.631	0	43.4	4	13.1	4	-1E+10	1	-1E+10	1	-1E+10	1	-1E+10	1	-1E+10	1	-1E+10	1
4901784	37	C	07/09/2016	10:43	-132.591	44.797	0	1794.80	0	2.1470	0	34.5550	0	27.613	0	1772.647	0	43.7	4	13.2	4	-1E+10	1	-1E+10	1	-1E+10	1	-1E+10	1	-1E+10	1	-1E+10	1
4901784	37	C	07/09/2016	10:43	-132.591	44.797	0	1800.00	0	2.1380	0	34.5570	0	27.615	0	1777.761	0	43.9	4	13.3	4	-1E+10	1	-1E+10	1	-1E+10	1	-1E+10	1	-1E+10	1	-1E+10	1
4901784	37	C	07/09/2016	10:43	-132.591	44.797	0	1805.20	0	2.1360	0	34.5570	0	27.616	0	1782.875	0	44.0	4	13.3	4	-1E+10	1	-1E+10	1	-1E+10	1	-1E+10	1	-1E+10	1	-1E+10	1
4901784	37	C	07/09/2016	10:43	-132.591	44.797	0	1810.40	0	2.1330	0	34.5570	0	27.616	0	1787.989	0	44.3	4	13.4	4	-1E+10	1	-1E+10	1	-1E+10	1	-1E+10	1	-1E+10	1	-1E+10	1
4901784	37	C	07/09/2016	10:43	-132.591	44.797	0	1815.70	0	2.1250	0	34.5580	0	27.617	0	1793.201	0	44.6	4	13.5	4	-1E+10	1	-1E+10	1	-1E+10	1	-1E+10	1	-1E+10	1	-1E+10	1
4901784	37	C	07/09/2016	10:43	-132.591	44.797	0	1820.10	0	2.1220	0	34.5590	0	27.618	0	1797.528	0	44.8	4	13.6	4	-1E+10	1	-1E+10	1	-1E+10	1	-1E+10	1	-1E+10	1	-1E+10	1
4901784	37	C	07/09/2016	10:43	-132.591	44.797	0	1824.50	0	2.1190	0	34.5590	0	27.619	0	1801.855	0	45.1	4	13.6	4	-1E+10	1	-1E+10	1	-1E+10	1	-1E+10	1	-1E+10	1	-1E+10	1
4901784	37	C	07/09/2016	10:43	-132.591	44.797	0	1829.90	0	2.1140	0	34.5600	0	27.620	0	1807.165	0	45.4	4	13.7	4	-1E+10	1	-1E+10	1	-1E+10	1	-1E+10	1	-1E+10	1	-1E+10	1
4901784	37	C	07/09/2016	10:43	-132.591	44.797	0	1835.20	0	2.1090	0	34.5610	0	27.621	0	1812.376	0	45.8	4	13.8	4	-1E+10	1	-1E+10	1	-1E+10	1	-1E+10	1	-1E+10	1	-1E+10	1
4901784	37	C	07/09/2016	10:43	-132.591	44.797	0	1840.40	0	2.1020	0	34.5620	0	27.623	0	1817.490	0	46.2	4	13.9	4	-1E+10	1	-1E+10	1	-1E+10	1	-1E+10	1	-1E+10	1	-1E+10	1
4901784	37	C	07/09/2016	10:43	-132.591	44.797	0	1845.10	0	2.0980	0	34.5620	0	27.623	0	1822.111	0	46.5	4	14.1	4	-1E+10	1	-1E+10	1	-1E+10	1	-1E+10	1	-1E+10	1	-1E+10	1
4901784	37	C	07/09/2016	10:43	-132.591	44.797	0	1849.90	0	2.0930	0	34.5630	0	27.624	0	1826.831	0	46.9	4	14.2	4	-1E+10	1	-1E+10	1	-1E+10	1	-1E+10	1	-1E+10	1	-1E+10	1
4901784	37	C	07/09/2016	10:43	-132.591	44.797	0	1854.80	0	2.0860	0	34.5640	0	27.626	0	1831.648	0	47.3	4	14.3	4	-1E+10	1	-1E+10	1	-1E+10	1	-1E+10	1	-1E+10	1	-1E+10	1
4901784	37	C	07/09/2016	10:43	-132.591	44.797	0	1859.70	0	2.0810	0	34.5650	0	27.627	0	1836.466	0	47.6	4	14.4	4	-1E+10	1	-1E+10	1	-1E+10	1	-1E+10	1	-1E+10	1	-1E+10	1
4901784	37	C	07/09/2016	10:43	-132.591	44.797	0	1864.80	0	2.0740	0	34.5660	0	27.628	0	1841.480	0	48.0	4	14.5	4	-1E+10	1	-1E+10	1	-1E+10	1	-1E+10	1	-1E+10	1	-1E+10	1
4901784	37	C	07/09/2016	10:43	-132.591	44.797	0	1869.90	0	2.0700	0	34.5670	0	27.629	0	1846.494	0	48.2	4	14.6	4	-1E+10	1	-1E+10	1	-1E+10	1	-1E+10	1	-1E+10	1	-1E+10	1
4901784	37	C	07/09/2016	10:43	-132.591	44.797	0	1875.00	0	2.0670	0	34.5670	0	27.630	0	1851.508	0	48.6	4	14.7	4	-1E+10	1	-1E+10	1	-1E+10	1	-1E+10	1	-1E+10	1	-1E+10	1
4901784	37	C	07/09/2016	10:43	-132.591	44.797	0	1880.20	0	2.0600	0	34.5680	0	27.631	0	1856.620	0	49.0	4	14.8	4	-1E+10	1	-1E+10	1	-1E+10	1	-1E+10	1	-1E+10	1	-1E+10	1
4901784	37	C	07/09/2016	10:43	-132.591	44.797	0	1885.30	0	2.0540	0	34.5690	0	27.632	0	1861.634	0	49.4	4	14.9	4	-1E+10	1	-1E+10	1	-1E+10	1	-1E+10	1	-1E+10	1	-1E+10	1
4901784	37	C	07/09/2016	10:43	-132.591	44.797	0	1890.60	0	2.0490	0	34.5700	0	27.633	0	1866.844	0	49.7	4	15.0	4	-1E+10	1	-1E+10	1	-1E+10	1	-1E+10	1	-1E+10	1	-1E+10	1
4901784	37	C	07/09/2016	10:43	-132.591	44.797	0	1894.90	0	2.0450	0	34.5710	0	27.635	0	1871.072	0	50.0	4	15.1	4	-1E+10	1	-1E+10	1	-1E+10	1	-1E+10	1	-1E+10	1	-1E+10	1
4901784	37	C	07/09/2016	10:43	-132.591	44.797	0	1899.20	0	2.0400	0	34.5710	0	27.635	0	1875.298	0	50.3	4	15.2	4	-1E+10	1	-1E+10	1	-1E+10	1	-1E+10	1	-1E+10	1	-1E+10	1
4901784	37	C	07/09/2016	10:43	-132.591	44.797	0	1904.40	0	2.0350	0	34.5720	0	27.636	0	1880.410	0	50.6	4	15.3	4	-1E+10	1	-1E+10	1	-1E+10	1	-1E+10	1	-1E+10	1	-1E+10	1
4901784	37	C	07/09/2016	10:43	-132.591	44.797	0	1909.70	0	2.0320	0	34.5720	0	27.636	0	1885.620	0	50.9	4	15.4	4	-1E+10	1	-1E+10	1	-1E+10	1	-1E+10	1	-1E+10	1	-1E+10	1
4901784	37	C	07/09/2016	10:43	-132.591	44.797	0	1915.00	0	2.0270	0	34.5730	0	27.638	0	1890.829	0	51.3	4	15.5	4	-1E+10	1	-1E+10	1	-1E+10	1	-1E+10	1	-1E+10	1	-1E+10	1
4901784	37	C	07/09/2016	10:43	-132.591	44.797	0	1920.30	0	2.0220	0	34.5740	0	27.639	0	1896.039	0	51.7	4	15.6	4	-1E+10	1	-1E+10	1	-1E+10	1	-1E+10	1	-1E+10	1	-1E+10	1
4901784	37	C	07/09/2016	10:43	-132.591	44.797	0	1925.70	0	2.0180	0	34.5750	0	27.640	0	1901.347	0	51.9	4	15.7	4	-1E+10	1	-1E+10	1	-1E+10	1	-1E+10	1	-1E+10	1	-1E+10	1
4901784	37	C	07/09/2016	10:43	-132.591	44.797	0	1930.10	0	2.0160	0	34.5750	0	27.640	0	1905.671	0	52.1	4	15.7	4	-1E+10	1	-1E+10	1	-1E+10	1	-1E+10	1	-1E+10	1	-1E+10	1
4901784	37	C	07/09/2016	10:43	-132.591	44.797	0	1934.60	0	2.0110	0	34.5760	0	27.641	0	1910.094	0	52.4	4	15.8	4	-1E+10	1	-1E+10	1	-1E+10	1	-1E+10	1	-1E+10	1	-1E+10	1
4901784	37	C	07/09/2016	10:43	-132.591	44.797	0	1940.00	0	2.0090	0	34.5770	0	27.642	0	1915.402	0	52.6	4	15.9	4	-1E+10	1	-1E+10	1	-1E+10	1	-1E+10	1	-1E+10	1	-1E+10	1
4901784	37	C	07/09/2016	10:43	-132.591	44.797	0	1945.50	0	2.0060	0	34.5770	0	27.643	0	1920.807	0	52.9	4	16.0	4	-1E+10	1	-1E+10	1	-1E+10	1	-1E+10	1	-1E+10	1	-1E+10	1
4901784	37	C	07/09/2016	10:43	-132.591	44.797	0	1950.10	0	2.0010	0	34.5780	0	27.644	0	1925.328	0	53.3	4	16.1	4	-1E+10	1	-1E+10	1	-1E+10	1	-1E+10	1	-1E+10	1	-1E+10	1
4901784	37	C	07/09/2016	10:43	-132.591	44.797	0	1954.70	0	1.9960	0	34.5780	0	27.644	0	1929.849	0	53.6	4	16.2	4	-1E+10	1	-1E+10	1	-1E+10	1	-1E+10	1	-1E+10	1	-1E+10	1
4901784	37	C	07/09/2016	10:43	-132.591	44.797	0	1960.20	0	1.9920	0	34.5790	0	27.645	0	1935.254	0	53.9	4	16.2	4	-1E+10	1	-1E+10	1	-1E+10	1	-1E+10	1	-1E+10	1	-1E+10	1
4901784	37	C	07/09/2016	10:43	-132.591	44.797	0	1965.60	0	1.9880	0	34.5800	0	27.647	0	1940.560	0	54.1	4	16.3	4	-1E+10	1	-1E+10	1	-1E+10	1	-1E+10	1	-1E+10	1	-1E+10	1
4901784	37	C	07/09/2016	10:43	-132.591	44.797	0	1970.60	0	1.9860	0	34.5800	0	27.647	0	1945.474	0	54.3	4	16.4	4	-1E+10	1	-1E+10	1	-1E+10	1	-1E+10	1	-1E+10	1	-1E+10	1
4901784	37	C	07/09/2016	10:43	-132.591	44.797	0	1975.50	0	1.9840	0	34.5800	0	27.647	0	1950.289	0	54.6	4	16.5	4	-1E+10	1	-1E+10	1	-1E+10	1	-1E+10	1	-1E+10	1	-1E+10	1
4901784	37	C	07/09/2016	10:43	-132.591	44.797	0	1980.40	0	1.9800	0	34.5810	0	27.648	0	1955.104	0	54.9	4	16.6	4	-1E+10	1	-1E+10	1	-1E+10	1	-1E+10	1	-1E+10	1	-1E+10	1
4901784	37	C	07/09/2016	10:43	-132.591	44.797	0	1985.30	0	1.9760	0	34.5820	0	27.649	0	1959.919	0	55.2	4	16.6	4	-1E+10	1	-1E+10	1	-1E+10	1	-1E+10	1	-1E+10	1	-1E+10	1
4901784	37	C	07/09/2016	10:43	-132.591	44.797	0	1990.00	0	1.9730	0	34.5830	0	27.650	0	1964.537	0	55.5	4	16.7	4	-1E+10	1	-1E+10	1	-1E+10	1	-1E+10	1	-1E+10	1	-1E+10	1
4901784	37	C	07/09/2016	10:43	-132.591	44.797	0	1995.20	0	1.9690	0	34.5830	0	27.651	0	1969.647	0	55.7	4	16.8	4	-1E+10	1	-1E+10	1	-1E+10	1	-1E+10	1	-1E+10	1	-1E+10	1
4901784	37	C	07/09/2016	10:43	-132.591	44.797	0	2001.40	0	1.9660	0	34.5850	0	27.652	0	1975.738	0	54.7	8	16.5	8	-1E+10	1	-1E+10	1	-1E+10	1	-1E+10	1	-1E+10	1	-1E+10	1
4901784	37	C	07/09/2016	10:43	-132.591	44.797	0																										
4901784	38	C	07/19/2016	10:49	-132.570	44.886	0	1.90	0	14.8270	0	32.6380	0	24.190	0	1.885	0	247.4	4	97.9	4	-1E+10	1	-1E+10	1	-1E+10	1	-1E+10	1	-1E+10	1	-1E+10	1
4901784	38	C	07/19/2016	10:49	-132.570	44.886	0	3.20	0	14.8260	0	32.6380	0	24.190	0	3.174	0	247.5	4	97.9	4	-1E+10	1	-1E+10	1	-1E+10	1	-1E+10	1	-1E+10	1	-1E+10	1
4901784	38	C	07/19/2016	10:49	-132.570	44.886	0	4.70	0	14.8280	0	32.6380	0	24.189	0	4.662	0	247.1	4	97.8	4	-1E+10	1	-1E+10	1	-1E+10	1	-1E+10	1	-1E+10	1	-1E+10	1
4901784	38	C	07/19/2016	10:49	-132.570	44.886	0	6.30	0	14.8270	0	32.6390	0	24.190	0	6.249	0	247.0	4	97.7	4	-1E+10	1	-1E+10	1	-1E+10	1	-1E+10	1	-1E+10	1	-1E+10	1
4901784	38	C	07/19/2016	10:49	-132.570	44.886	0	8.00	0	14.8280	0	32.6390	0	24.190	0	7.935	0	247.0	4	97.7	4	-1E+10	1	-1E+10	1	-1E+10	1	-1E+10	1	-1E+10	1	-1E+10	1
4901784	38	C	07/19/2016	10:49	-132.570	44.886	0	9.70	0	14.8270	0	32.6380	0	24.190	0	9.621	0	247.0	4	97.7	4	-1E+10	1	-1E+10	1	-1E+10	1	-1E+10	1	-1E+10	1	-1E+10	1
4901784	38	C	07/19/2016	10:49	-132.570	44.886	0	11.40	0	14.8270	0	32.6380	0	24.190	0	11.307	0	246.8	4	97.6	4	-1E+10	1	-1E+10	1	-1E+10	1	-1E+10	1	-1E+10	1	-1E+10	1
4901784	38	C	07/19/2016	10:49	-132.570	44.886	0	13.30	0	14.8270	0	32.6380	0	24.190	0	13.192	0	246.8	4	97.7	4	-1E+10	1	-1E+10	1	-1E+10	1	-1E+10	1	-1E+10	1	-1E+10	1
4901784	38	C	07/19/2016	10:49	-132.570	44.886	0	15.00	0	14.8280	0	32.6370	0	24.189	0	14.878	0	246.6	4	97.6	4	-1E+10	1	-1E+10	1	-1E+10	1	-1E+10	1	-1E+10	1	-1E+10	1
4901784	38	C	07/19/2016	10:49	-132.570	44.886	0	16.80	0	14.8280	0	32.6380	0	24.190	0	16.663	0	246.6	4	97.6	4	-1E+10	1	-1E+10	1	-1E+10	1	-1E+10	1	-1E+10	1	-1E+10	1
4901784	38	C	07/19/2016	10:49	-132.570	44.886	0	18.50	0	14.8260	0	32.6370	0	24.189	0	18.349	0	246.6	4	97.6	4	-1E+10	1	-1E+10	1	-1E+10	1	-1E+10	1	-1E+10	1	-1E+10	1
4901784	38	C	07/19/2016	10:49	-132.570	44.886	0	20.80	0	14.8240	0	32.6360	0	24.189	0	20.630	0	246.5	4	97.5	4	-1E+10	1	-1E+10	1	-1E+10	1	-1E+10	1	-1E+10	1	-1E+10	1
4901784	38	C	07/19/2016	10:49	-132.570	44.886	0	22.40	0	14.8210	0	32.6360	0	24.190	0	22.217	0	246.7	4	97.6	4	-1E+10	1	-1E+10	1	-1E+10	1	-1E+10	1	-1E+10	1	-1E+10	1
4901784	38	C	07/19/2016	10:49	-132.570	44.886	0	23.70	0	14.8040	0	32.6350	0	24.193	0	23.507	0	247.1	4	97.7	4	-1E+10	1	-1E+10	1	-1E+10	1	-1E+10	1	-1E+10	1	-1E+10	1
4901784	38	C	07/19/2016	10:49	-132.570	44.886	0	25.00	0	14.8010	0	32.6320	0	24.191	0	24.796	0	247.3	4	97.8	4	-1E+10	1	-1E+10	1	-1E+10	1	-1E+10	1	-1E+10	1	-1E+10	1
4901784	38	C	07/19/2016	10:49	-132.570	44.886	0	26.20	0	14.7980	0	32.6290	0	24.190	0	25.986	0	247.9	4	98.0	4	-1E+10	1	-1E+10	1	-1E+10	1	-1E+10	1	-1E+10	1	-1E+10	1
4901784	38	C	07/19/2016	10:49	-132.570	44.886	0	27.30	0	14.7870	0	32.6230	0	24.187	0	27.077	0	249.0	4	98.4	4	-1E+10	1	-1E+10	1	-1E+10	1	-1E+10	1	-1E+10	1	-1E+10	1
4901784	38	C	07/19/2016	10:49	-132.570	44.886	0	28.50	0	14.7670	0	32.6140	0	24.185	0	28.267	0	250.6	4	99.0	4	-1E+10	1	-1E+10	1	-1E+10	1	-1E+10	1	-1E+10	1	-1E+10	1
4901784	38	C	07/19/2016	10:49	-132.570	44.886	0	29.70	0	14.5280	0	32.6120	0	24.234	0	29.457	0	252.9	4	99.5	4	-1E+10	1	-1E+10	1	-1E+10	1	-1E+10	1	-1E+10	1	-1E+10	1
4901784	38	C	07/19/2016	10:49	-132.570	44.886	0	31.00	0	14.0690	0	32.6150	0	24.332	0	30.746	0	257.4	4	100.3	4	-1E+10	1	-1E+10	1	-1E+10	1	-1E+10	1	-1E+10	1	-1E+10	1
4901784	38	C	07/19/2016	10:49	-132.570	44.886	0	32.50	0	13.3700	0	32.6380	0	24.492	0	32.234	0	263.0	4	101.1	4	-1E+10	1	-1E+10	1	-1E+10	1	-1E+10	1	-1E+10	1	-1E+10	1
4901784	38	C	07/19/2016	10:49	-132.570	44.886	0	34.00	0	12.9640	0	32.6570	0	24.587	0	33.722	0	264.6	4	100.9	4	-1E+10	1	-1E+10	1	-1E+10	1	-1E+10	1	-1E+10	1	-1E+10	1
4901784	38	C	07/19/2016	10:49	-132.570	44.886	0	35.50	0	12.4120	0	32.6950	0	24.723	0	35.209	0	265.9	4	100.2	4	-1E+10	1	-1E+10	1	-1E+10	1	-1E+10	1	-1E+10	1	-1E+10	1
4901784	38	C	07/19/2016	10:49	-132.570	44.886	0	37.20	0	11.6430	0	32.6880	0	24.861	0	36.895	0	266.5	4	98.8	4	-1E+10	1	-1E+10	1	-1E+10	1	-1E+10	1	-1E+10	1	-1E+10	1
4901784	38	C	07/19/2016	10:49	-132.570	44.886	0	38.90	0	11.4560	0	32.7590	0	24.951	0	38.581	0	267.2	4	98.8	4	-1E+10	1	-1E+10	1	-1E+10	1	-1E+10	1	-1E+10	1	-1E+10	1
4901784	38	C	07/19/2016	10:49	-132.570	44.886	0	40.50	0	11.3300	0	32.7950	0	25.001	0	40.168	0	265.2	4	97.8	4	-1E+10	1	-1E+10	1	-1E+10	1	-1E+10	1	-1E+10	1	-1E+10	1
4901784	38	C	07/19/2016	10:49	-132.570	44.886	0	42.10	0	11.2440	0	32.7870	0	25.011	0	41.754	0	263.2	4	96.9	4	-1E+10	1	-1E+10	1	-1E+10	1	-1E+10	1	-1E+10	1	-1E+10	1
4901784	38	C	07/19/2016	10:49	-132.570	44.886	0	43.70	0	11.1040	0	32.7940	0	25.041	0	43.341	0	260.1	4	95.5	4	-1E+10	1	-1E+10	1	-1E+10	1	-1E+10	1	-1E+10	1	-1E+10	1
4901784	38	C	07/19/2016	10:49	-132.570	44.886	0	45.50	0	10.3100	0	32.7530	0	25.147	0	45.126	0	262.2	4	94.6	4	-1E+10	1	-1E+10	1	-1E+10	1	-1E+10	1	-1E+10	1	-1E+10	1
4901784	38	C	07/19/2016	10:49	-132.570	44.886	0	47.30	0	10.0750	0	32.7250	0	25.165	0	46.911	0	262.6	4	94.2	4	-1E+10	1	-1E+10	1	-1E+10	1	-1E+10	1	-1E+10	1	-1E+10	1
4901784	38	C	07/19/2016	10:49	-132.570	44.886	0	49.20	0	9.7210	0	32.7030	0	25.206	0	48.795	0	263.2	4	93.7	4	-1E+10	1	-1E+10	1	-1E+10	1	-1E+10	1	-1E+10	1	-1E+10	1
4901784	38	C	07/19/2016	10:49	-132.570	44.886	0	51.00	0	9.7230	0	32.7210	0	25.220	0	50.580	0	262.3	4	93.4	4	-1E+10	1	-1E+10	1	-1E+10	1	-1E+10	1	-1E+10	1	-1E+10	1
4901784	38	C	07/19/2016	10:49	-132.570	44.886	0	52.90	0	9.5800	0	32.7200	0	25.242	0	52.464	0	261.3	4	92.8	4	-1E+10	1	-1E+10	1	-1E+10	1	-1E+10	1	-1E+10	1	-1E+10	1
4901784	38	C	07/19/2016	10:49	-132.570	44.886	0	54.70	0	9.7200	0	32.7660	0	25.255	0	54.249	0	260.2	4	92.7	4	-1E+10	1	-1E+10	1	-1E+10	1	-1E+10	1	-1E+10	1	-1E+10	1
4901784	38	C	07/19/2016	10:49	-132.570	44.886	0	56.50	0	9.8370	0	32.8000	0	25.263	0	56.034	0	259.1	4	92.5	4	-1E+10	1	-1E+10	1	-1E+10	1	-1E+10	1	-1E+10	1	-1E+10	1
4901784	38	C	07/19/2016	10:49	-132.570	44.886	0	58.40	0	9.9390	0	32.8270	0	25.267	0	57.918	0	257.8	4	92.3	4	-1E+10	1	-1E+10	1	-1E+10	1	-1E+10	1	-1E+10	1	-1E+10	1
4901784	38	C	07/19/2016	10:49	-132.570	44.886	0	60.30	0	9.9550	0	32.8430	0	25.277	0	59.802	0	257.3	4	92.2	4	-1E+10	1	-1E+10	1	-1E+10	1	-1E+10	1	-1E+10	1	-1E+10	1
4901784	38	C	07/19/2016	10:49	-132.570	44.886	0	62.10	0	9.9300	0	32.8450	0	25.283	0	61.587	0	256.7	4	91.9	4	-1E+10	1	-1E+10	1	-1E+10	1	-1E+10	1	-1E+10	1	-1E+10	1
4901784	38	C	07/19/2016	10:49	-132.570	44.886	0	63.90	0	9.7770	0	32.8450	0	25.308	0	63.372	0	257.1	4	91.7	4	-1E+10	1	-1E+10	1	-1E+10	1	-1E+10	1	-1E+10	1	-1E+10	1
4901784	38	C	07/19/2016	10:49	-132.570	44.886	0	65.70	0	9.8070	0	32.8600	0	25.315	0	65.157	0	256.6	4	91.6	4	-1E+10	1	-1E+10	1	-1E+10	1	-1E+10	1	-1E+10	1	-1E+10	1
4901784	38	C	07/19/2016	10:49	-132.570	44.886	0	67.50	0	9.7820	0	32.8610	0	25.320	0	66.942	0	256.4	4	91.5	4	-1E+10	1	-1E+10	1	-1E+10	1	-1E+10	1	-1E+10	1	-1E+10	1
4901784	38	C	07/19/2016	10:49	-132.570	44.886	0	69.90	0	9.7340	0	32.8670	0	25.332	0	69.322	0	256.1	4	91.3	4	-1E+10	1	-1E+10	1	-1E+10	1	-1E+10	1	-1E+10	1	-1E+10	1
4901784	38	C	07/19/2016	10:49	-132.570	44.886	0	71.80	0	9.6970	0	32.8680	0	25.339	0	71.206	0	255.8	4	91.1	4	-1E+10	1	-1E+10	1	-1E+10	1	-1E+10	1	-1E+10	1	-1E+10	1
4901784	38	C	07/19/2016	10:49	-132.570	44.886	0	73.40	0	9.6770	0	32.8720	0	25.346	0	72.792	0	255.4	4	90.9	4	-1E+10	1	-1E+10	1	-1E+10	1	-1E+10	1	-1E+10	1	-1E+10	1
4901784	38	C	07/19/2016	10:49	-132.570	44.886	0	74.90	0	9.6770	0	32.8790	0	25.351	0	74.279	0	254.7	4	90.7	4	-1E+10	1	-1E+10	1	-1E+10	1	-1E+10	1	-1E+10	1	-1E+10	1
4901784	38	C	07/19/2016	10:49	-132.570	44.886	0	76.40	0	9.6770	0	32.8830	0	25.354	0	75.767	0	253.9	4	90.4	4	-1E+10	1	-1E+10	1	-1E+10	1	-1E+10	1	-1E+10	1	-1E+10	1
4901784	38	C	07/19/2016	10:49	-132.570	44.886	0	77.90	0	9.6560	0	32.8980	0	25.369	0	77.254	0	252.5	4	89.9	4	-1E+10	1	-1E+10	1	-1E+10	1	-1E+10	1	-1E+10	1	-1E+10	1
4901784	38	C	07/19/2016	10:49	-132.570	44.886	0	79.50	0	9.6910	0	32.9220	0	25.383	0	78.840	0	251.4	4	89.6	4	-1E+10	1	-1E+10	1	-1E+10	1	-1E+10	1	-1E+10	1	-1E+10	1
4901784	38	C	07/19/2016	10:49	-132.570	44.886	0	81.00	0	9.6920	0	32.9230	0	25.383	0	80.328	0	250.0	4	89.1	4	-1E+10	1	-1E+10	1	-1E+10	1	-1E+10	1	-1E+10	1	-1E+10	1
4901784	38	C	07/19/2016	10:49	-132.570	44.886	0	82.60	0	9.6480	0	32.9350	0	25.400	0	81.914	0	247.8	4	88.2	4	-1E+10	1	-1E+10	1	-1E+10	1	-1E+10	1	-1E+10	1	-1E+10	1
4901784	38	C	07/19/2016	10:49	-132.570	44.886	0	84.20	0	9.6110	0	32.9460	0	25.414	0	83.500	0	245.9	4	87.5	4	-1E+10	1	-1E+10	1	-1E+10	1	-1E+10	1	-1E+10	1	-1E+10	1
4901784	38	C	07/19/2016	10:49	-132.570	44.886	0	85.80	0	9.6280	0	32.9580	0	25.421	0	85.087	0	243.7	4	86.8	4	-1E+10	1	-1E+10	1	-1E+10	1	-1E+10	1	-1E+10	1	-1E+10	1
4901784	38	C	07/19/2016	10:49	-132.570	44.886	0	87.30	0	9.6500	0	32.9840	0	25.438	0	86.574	0	241.1	4	85.9	4	-1E+10	1	-1E+10	1	-1E+10	1	-1E+10	1	-1E+10	1	-1E+10	1
4901784	38	C	07/19/2016	10:49	-132.570	44.886	0	88.90	0	9.6150	0	33.0010	0	25.457	0	88.160	0	238.4	4	84.9	4	-1E+10	1	-1E+10	1	-1E+10	1	-1E+10	1	-1E+10	1	-1E+10	1
4901784	38	C	07/19/2016	10:49	-132.570	44.886	0	90.60	0	9.4020	0	32.9980	0	25.489	0	89.846	0	236.0	4	83.6	4	-1E+10	1	-1E+10	1	-1E+10	1	-1E+10	1	-1E+10	1	-1E+10	1
4901784	38	C	07/19/2016	10:49	-132.570	44.886	0	92.20	0	9.3960	0	33.0240	0	25.510	0	91.432	0	233.0	4	82.6	4	-1E+10	1	-1E+10	1	-1E+10	1	-1E+10	1	-1E+10	1	-1E+10	1
4901784	38	C	07/19/2016	10:49	-132.570	44.886	0	93.90	0	9.3990	0	33.0660	0	25.543	0	93.118	0	229.9	4	81.5	4	-1E+10	1	-1E+10	1	-1E+10	1	-1E+10	1	-1E+10	1	-1E+10	1
4901784	38	C	07/19/2016	10:49	-132.570	44.886	0	95.70	0	9.3890	0	33.0780	0	25.554	0	94.902	0	227.1	4	80.5	4	-1E+10	1	-1E+10	1	-1E+10	1	-1E+10	1	-1E+10	1	-1E+10	1
4901784	38	C	07/19/2016	10:49	-132.570	44.886	0	97.40	0	9.3580	0	33.1320	0	25.601	0	96.588	0	223.2	4	79.1	4	-1E+10	1	-1E+10	1	-1E+10	1	-1E+10	1	-1E+10	1	-1E+10	1
4901784	38	C	07/19/2016	10:49	-132.570	44.886	0	99.10	0	9.3460	0	33.1740	0	25.636	0	98.273	0	220.8	4	78.2	4	-1E+10	1	-1E+10	1	-1E+10	1	-1E+10	1	-1E+10	1	-1E+10	1
4901784	38	C	07/19/2016	10:49	-132.570	44.886	0	102.60	0	9.3070	0	33.2880	0	25.731	0	101.743	0	214.7	4	76.1	4	-1E+10	1	-1E+10	1	-1E+10	1	-1E+10	1	-1E+10	1	-1E+10	1
4901784	38	C	07/19/2016	10:49	-132.570	44.886	0	105.20	0	9.2940	0	33.3090	0	25.750	0	104.321	0	212.7	4	75.4	4	-1E+10	1	-1E+10	1	-1E+10	1	-1E+10	1	-1E+10	1	-1E+10	1
4901784	38	C	07/19/2016	10:49	-132.570	44.886	0	107.90	0	9.2730	0	33.3250	0	25.766	0	106.997	0	210.0	4	74.4	4	-1E+10	1	-1E+10	1	-1E+10	1	-1E+10	1	-1E+10	1	-1E+10	1
4901784	38	C	07/19/2016	10:49	-132.570	44.886	0	110.20	0	9.2140	0	33.3790	0	25.817	0	109.277	0	208.1	4	73.6	4	-1E+10	1	-1E+10	1	-1E+10	1	-1E+10	1	-1E+10	1	-1E+10	1
4901784	38	C	07/19/2016	10:49	-132.570	44.886	0	112.70	0	9.2060	0	33.3990	0	25.834	0	111.756	0	206.3	4	73.0	4	-1E+10	1	-1E+10	1	-1E+10	1	-1E+10	1	-1E+10	1	-1E+10	1
4901784	38	C	07/19/2016	10:49	-132.570	44.886	0	114.80	0	9.1970	0	33.4140	0	25.847	0	113.838	0	204.1	4	72.2	4	-1E+10	1	-1E+10	1	-1E+10	1	-1E+10	1	-1E+10	1	-1E+10	1
4901784	38	C	07/19/2016	10:49	-132.570	44.886	0	117.10	0	9.0920	0	33.4750	0	25.912	0	116.118	0	202.7	4	71.6	4	-1E+10	1	-1E+10	1	-1E+10	1	-1E+10	1	-1E+10	1	-1E+10	1
4901784	38	C	07/19/2016	10:49	-132.570	44.886	0	120.30	0	9.0610	0	33.4860	0	25.925	0	119.290	0	201.5	4	71.1	4	-1E+10	1	-1E+10	1	-1E+10	1	-1E+10	1	-1E+10	1	-1E+10	1
4901784	38	C	07/19/2016	10:49	-132.570	44.886	0	122.70	0	9.0590	0	33.4860	0	25.926	0	121.669	0	200.1	4	70.6	4	-1E+10	1	-1E+10	1	-1E+10	1	-1E+10	1	-1E+10	1	-1E+10	1
4901784	38	C	07/19/2016	10:49	-132.570	44.886	0	125.10	0	9.0310	0	33.5580	0	25.987	0	124.048	0	198.3	4	70.0	4	-1E+10	1	-1E+10	1	-1E+10	1	-1E+10	1	-1E+10	1	-1E+10	1
4901784	38	C	07/19/2016	10:49	-132.570	44.886	0	127.50	0	8.9760	0	33.6760	0	26.088	0	126.427	0	196.7	4	69.4	4	-1E+10	1	-1E+10	1	-1E+10	1	-1E+10	1	-1E+10	1	-1E+10	1
4901784	38	C	07/19/2016	10:49	-132.570	44.886	0	130.00	0	8.9510	0	33.6940	0	26.106	0	128.905	0	196.1	4	69.2	4	-1E+10	1	-1E+10	1	-1E+10	1	-1E+10	1	-1E+10	1	-1E+10	1
4901784	38	C	07/19/2016	10:49	-132.570	44.886	0	132.70	0	8.9240	0	33.7190	0	26.130	0	131.582	0	195.5	4	68.9	4	-1E+10	1	-1E+10	1	-1E+10	1	-1E+10	1	-1E+10	1	-1E+10	1
4901784	38	C	07/19/2016	10:49	-132.570	44.886	0	135.30	0	8.9090	0	33.7280	0	26.139	0	134.159	0	194.9	4	68.7	4	-1E+10	1	-1E+10	1	-1E+10	1	-1E+10	1	-1E+10	1	-1E+10	1
4901784	38	C	07/19/2016	10:49	-132.570	44.886	0	138.00	0	8.8980	0	33.7360	0	26.147	0	136.835	0	194.1	4	68.4	4	-1E+10	1	-1E+10	1	-1E+10	1	-1E+10	1	-1E+10	1	-1E+10	1
4901784	38	C	07/19/2016	10:49	-132.570	44.886	0	139.80	0	8.8830	0	33.7440	0	26.156	0	138.620	0	193.6	4	68.2	4	-1E+10	1	-1E+10	1	-1E+10	1	-1E+10	1	-1E+10	1	-1E+10	1
4901784	38	C	07/19/2016	10:49	-132.570	44.886	0	142.60	0	8.8490	0	33.7700	0	26.181	0	141.395	0	192.8	4	67.9	4	-1E+10	1	-1E+10	1	-1E+10	1	-1E+10	1	-1E+10	1	-1E+10	1
4901784	38	C	07/19/2016	10:49	-132.570	44.886	0	145.40	0	8.8000	0	33.8130	0	26.223	0	144.170	0	192.0	4	67.5	4	-1E+10	1	-1E+10	1	-1E+10	1	-1E+10	1	-1E+10	1	-1E+10	1
4901784	38	C	07/19/2016	10:49	-132.570	44.886	0	147.40	0	8.7820	0	33.8250	0	26.235	0	146.153	0	191.7	4	67.4	4	-1E+10	1	-1E+10	1	-1E+10	1	-1E+10	1	-1E+10	1	-1E+10	1
4901784	38	C	07/19/2016	10:49	-132.570	44.886	0	149.40	0	8.7730	0	33.8400	0	26.248	0	148.135	0	191.3	4	67.3	4	-1E+10	1	-1E+10	1	-1E+10	1	-1E+10	1	-1E+10	1	-1E+10	1
4901784	38	C	07/19/2016	10:49	-132.570	44.886	0	152.30	0	8.7420	0	33.8530	0	26.263	0	151.010	0	190.5	4	67.0	4	-1E+10	1	-1E+10	1	-1E+10	1	-1E+10	1	-1E+10	1	-1E+10	1
4901784	38	C	07/19/2016	10:49	-132.570	44.886	0	155.20	0	8.7120	0	33.8670	0	26.279	0	153.884	0	189.9	4	66.7	4	-1E+10	1	-1E+10	1	-1E+10	1	-1E+10	1	-1E+10	1	-1E+10	1
4901784	38	C	07/19/2016	10:49	-132.570	44.886	0	157.10	0	8.7010	0	33.8700	0	26.283	0	155.767	0	189.3	4	66.5	4	-1E+10	1	-1E+10	1	-1E+10	1	-1E+10	1	-1E+10	1	-1E+10	1
4901784	38	C	07/19/2016	10:49	-132.570	44.886	0	160.00	0	8.6690	0	33.8770	0	26.294	0	158.641	0	188.5	4	66.1	4	-1E+10	1	-1E+10	1	-1E+10	1	-1E+10	1	-1E+10	1	-1E+10	1
4901784	38	C	07/19/2016	10:49	-132.570	44.886	0	163.00	0	8.6350	0	33.8820	0	26.303	0	161.615	0	187.8	4	65.9	4	-1E+10	1	-1E+10	1	-1E+10	1	-1E+10	1	-1E+10	1	-1E+10	1
4901784	38	C	07/19/2016	10:49	-132.570	44.886	0	164.90	0	8.6290	0	33.8820	0	26.304	0	163.498	0	187.2	4	65.6	4	-1E+10	1	-1E+10	1	-1E+10	1	-1E+10	1	-1E+10	1	-1E+10	1
4901784	38	C	07/19/2016	10:49	-132.570	44.886	0	166.90	0	8.6210	0	33.8820	0	26.305	0	165.480	0	186.6	4	65.4	4	-1E+10	1	-1E+10	1	-1E+10	1	-1E+10	1	-1E+10	1	-1E+10	1
4901784	38	C	07/19/2016	10:49	-132.570	44.886	0	169.90	0	8.5890	0	33.8860	0	26.313	0	168.453	0	185.4	4	64.9	4	-1E+10	1	-1E+10	1	-1E+10	1	-1E+10	1	-1E+10	1	-1E+10	1
4901784	38	C	07/19/2016	10:49	-132.570	44.886	0	172.80	0	8.5370	0	33.8910	0	26.325	0	171.327	0	184.2	4	64.5	4	-1E+10	1	-1E+10	1	-1E+10	1	-1E+10	1	-1E+10	1	-1E+10	1
4901784	38	C	07/19/2016	10:49	-132.570	44.886	0	174.90	0	8.4930	0	33.8930	0	26.333	0	173.409	0	183.5	4	64.1	4	-1E+10	1	-1E+10	1	-1E+10	1	-1E+10	1	-1E+10	1	-1E+10	1
4901784	38	C	07/19/2016	10:49	-132.570	44.886	0	176.90	0	8.4760	0	33.8930	0	26.336	0	175.391	0	182.6	4	63.8	4	-1E+10	1	-1E+10	1	-1E+10	1	-1E+10	1	-1E+10	1	-1E+10	1
4901784	38	C	07/19/2016	10:49	-132.570	44.886	0	180.00	0	8.4210	0	33.8960	0	26.347	0	178.463	0	181.1	4	63.2	4	-1E+10	1	-1E+10	1	-1E+10	1	-1E+10	1	-1E+10	1	-1E+10	1
4901784	38	C	07/19/2016	10:49	-132.570	44.886	0	183.10	0	8.3010	0	33.9020	0	26.370	0	181.535	0	180.0	4	62.7	4	-1E+10	1	-1E+10	1	-1E+10	1	-1E+10	1	-1E+10	1	-1E+10	1
4901784	38	C	07/19/2016	10:49	-132.570	44.886	0	185.10	0	8.2880	0	33.9000	0	26.370	0	183.517	0	179.2	4	62.4	4	-1E+10	1	-1E+10	1	-1E+10	1	-1E+10	1	-1E+10	1	-1E+10	1
4901784	38	C	07/19/2016	10:49	-132.570	44.886	0	187.10	0	8.2300	0	33.9030	0	26.381	0	185.499	0	178.6	4	62.1	4	-1E+10	1	-1E+10	1	-1E+10	1	-1E+10	1	-1E+10	1	-1E+10	1
4901784	38	C	07/19/2016	10:49	-132.570	44.886	0	190.20	0	8.1990	0	33.9010	0	26.384	0	188.571	0	177.3	4	61.6	4	-1E+10	1	-1E+10	1	-1E+10	1	-1E+10	1	-1E+10	1	-1E+10	1
4901784	38	C	07/19/2016	10:49	-132.570	44.886	0	193.20	0	8.1310	0	33.9030	0	26.396	0	191.544	0	176.2	4	61.1	4	-1E+10	1	-1E+10	1	-1E+10	1	-1E+10	1	-1E+10	1	-1E+10	1
4901784	38	C	07/19/2016	10:49	-132.570	44.886	0	195.30	0	8.0910	0	33.9060	0	26.404	0	193.625	0	175.5	4	60.8	4	-1E+10	1	-1E+10	1	-1E+10	1	-1E+10	1	-1E+10	1	-1E+10	1
4901784	38	C	07/19/2016	10:49	-132.570	44.886	0	197.30	0	8.0780	0	33.9070	0	26.407	0	195.607	0	174.6	4	60.5	4	-1E+10	1	-1E+10	1	-1E+10	1	-1E+10	1	-1E+10	1	-1E+10	1
4901784	38	C	07/19/2016	10:49	-132.570	44.886	0	199.30	0	8.0600	0	33.9070	0	26.410	0	197.589	0	173.7	4	60.2	4	-1E+10	1	-1E+10	1	-1E+10	1	-1E+10	1	-1E+10	1	-1E+10	1
4901784	38	C	07/19/2016	10:49	-132.570	44.886	0	202.30	0	7.9690	0	33.9090	0	26.425	0	200.562	0	172.0	4	59.4	4	-1E+10	1	-1E+10	1	-1E+10	1	-1E+10	1	-1E+10	1	-1E+10	1
4901784	38	C	07/19/2016	10:49	-132.570	44.886	0	205.30	0	7.9130	0	33.9060	0	26.431	0	203.534	0	170.5	4	58.8	4	-1E+10	1	-1E+10	1	-1E+10	1	-1E+10	1	-1E+10	1	-1E+10	1
4901784	38	C	07/19/2016	10:49	-132.570	44.886	0	207.30	0	7.8820	0	33.9050	0	26.435	0	205.516	0	169.2	4	58.3	4	-1E+10	1	-1E+10	1	-1E+10	1	-1E+10	1	-1E+10	1	-1E+10	1
4901784	38	C	07/19/2016	10:49	-132.570	44.886	0	209.30	0	7.8530	0	33.9040	0	26.438	0	207.498	0	167.7	4	57.8	4	-1E+10	1	-1E+10	1	-1E+10	1	-1E+10	1	-1E+10	1	-1E+10	1
4901784	38	C	07/19/2016	10:49	-132.570	44.886	0	212.30	0	7.7690	0	33.9010	0	26.448	0	210.471	0	165.0	4	56.8	4	-1E+10	1	-1E+10	1	-1E+10	1	-1E+10	1	-1E+10	1	-1E+10	1
4901784	38	C	07/19/2016	10:49	-132.570	44.886	0	215.30	0	7.6850	0	33.9050	0	26.463	0	213.443	0	163.1	4	56.0	4	-1E+10	1	-1E+10	1	-1E+10	1	-1E+10	1	-1E+10	1	-1E+10	1
4901784	38	C	07/19/2016	10:49	-132.570	44.886	0	217.20	0	7.6320	0	33.9020	0	26.468	0	215.326	0	162.2	4	55.6	4	-1E+10	1	-1E+10	1	-1E+10	1	-1E+10	1	-1E+10	1	-1E+10	1
4901784	38	C	07/19/2016	10:49	-132.570	44.886	0	220.10	0	7.5470	0	33.9080	0	26.485	0	218.199	0	160.0	4	54.8	4	-1E+10	1	-1E+10	1	-1E+10	1	-1E+10	1	-1E+10	1	-1E+10	1
4901784	38	C	07/19/2016	10:49	-132.570	44.886	0	223.00	0	7.4480	0	33.9030	0	26.495	0	221.073	0	157.8	4	53.9	4	-1E+10	1	-1E+10	1	-1E+10	1	-1E+10	1	-1E+10	1	-1E+10	1
4901784	38	C	07/19/2016	10:49	-132.570	44.886	0	224.90	0	7.3860	0	33.9080	0	26.508	0	222.955	0	157.3	4	53.6	4	-1E+10	1	-1E+10	1	-1E+10	1	-1E+10	1	-1E+10	1	-1E+10	1
4901784	38	C	07/19/2016	10:49	-132.570	44.886	0	227.80	0	7.3500	0	33.9010	0	26.508	0	225.829	0	156.1	4	53.2	4	-1E+10	1	-1E+10	1	-1E+10	1	-1E+10	1	-1E+10	1	-1E+10	1
4901784	38	C	07/19/2016	10:49	-132.570	44.886	0	230.70	0	7.2900	0	33.9010	0	26.516	0	228.702	0	154.6	4	52.6	4	-1E+10	1	-1E+10	1	-1E+10	1	-1E+10	1	-1E+10	1	-1E+10	1
4901784	38	C	07/19/2016	10:49	-132.570	44.886	0	232.60	0	7.2330	0	33.9020	0	26.525	0	230.584	0	153.7	4	52.2	4	-1E+10	1	-1E+10	1	-1E+10	1	-1E+10	1	-1E+10	1	-1E+10	1
4901784	38	C	07/19/2016	10:49	-132.570	44.886	0	234.50	0	7.2230	0	33.9010	0	26.526	0	232.467	0	152.9	4	51.9	4	-1E+10	1	-1E+10	1	-1E+10	1	-1E+10	1	-1E+10	1	-1E+10	1
4901784	38	C	07/19/2016	10:49	-132.570	44.886	0	237.30	0	7.1620	0	33.9020	0	26.535	0	235.241	0	151.2	4	51.3	4	-1E+10	1	-1E+10	1	-1E+10	1	-1E+10	1	-1E+10	1	-1E+10	1
4901784	38	C	07/19/2016	10:49	-132.570	44.886	0	240.00	0	7.0710	0	33.9030	0	26.548	0	237.916	0	149.8	4	50.7	4	-1E+10	1	-1E+10	1	-1E+10	1	-1E+10	1	-1E+10	1	-1E+10	1
4901784	38	C	07/19/2016	10:49	-132.570	44.886	0	242.80	0	7.0280	0	33.9030	0	26.554	0	240.690	0	148.7	4	50.3	4	-1E+10	1	-1E+10	1	-1E+10	1	-1E+10	1	-1E+10	1	-1E+10	1
4901784	38	C	07/19/2016	10:49	-132.570	44.886	0	245.60	0	6.9880	0	33.9020	0	26.559	0	243.464	0	147.8	4	50.0	4	-1E+10	1	-1E+10	1	-1E+10	1	-1E+10	1	-1E+10	1	-1E+10	1
4901784	38	C	07/19/2016	10:49	-132.570	44.886	0	247.40	0	6.9680	0	33.9020	0	26.562	0	245.247	0	147.1	4	49.7	4	-1E+10	1	-1E+10	1	-1E+10	1	-1E+10	1	-1E+10	1	-1E+10	1
4901784	38	C	07/19/2016	10:49	-132.570	44.886	0	250.20	0	6.9500	0	33.9010	0	26.563	0	248.021	0	145.8	4	49.2	4	-1E+10	1	-1E+10	1	-1E+10	1	-1E+10	1	-1E+10	1	-1E+10	1
4901784	38	C	07/19/2016	10:49	-132.570	44.886	0	253.10	0	6.9200	0	33.9000	0	26.567	0	250.894	0	144.0	4	48.6	4	-1E+10	1	-1E+10	1	-1E+10	1	-1E+10	1	-1E+10	1	-1E+10	1
4901784	38	C	07/19/2016	10:49	-132.570	44.886	0	254.90	0	6.8880	0	33.8990	0	26.570	0	252.678	0	142.6	4	48.1	4	-1E+10	1	-1E+10	1	-1E+10	1	-1E+10	1	-1E+10	1	-1E+10	1
4901784	38	C	07/19/2016	10:49	-132.570	44.886	0	257.20	0	6.7770	0	33.9000	0	26.586	0	254.956	0	140.8	4	47.4	4	-1E+10	1	-1E+10	1	-1E+10	1	-1E+10	1	-1E+10	1	-1E+10	1
4901784	38	C	07/19/2016	10:49	-132.570	44.886	0	259.70	0	6.7040	0	33.8990	0	26.595	0	257.433	0	139.3	4	46.8	4	-1E+10	1	-1E+10	1	-1E+10	1	-1E+10	1	-1E+10	1	-1E+10	1
4901784	38	C	07/19/2016	10:49	-132.570	44.886	0	262.70	0	6.6510	0	33.8990	0	26.602	0	260.405	0	137.9	4	46.3	4	-1E+10	1	-1E+10	1	-1E+10	1	-1E+10	1	-1E+10	1	-1E+10	1
4901784	38	C	07/19/2016	10:49	-132.570	44.886	0	265.00	0	6.6290	0	33.8990	0	26.605	0	262.683	0	136.7	4	45.8	4	-1E+10	1	-1E+10	1	-1E+10	1	-1E+10	1	-1E+10	1	-1E+10	1
4901784	38	C	07/19/2016	10:49	-132.570	44.886	0	267.40	0	6.5860	0	33.8990	0	26.610	0	265.061	0	135.2	4	45.3	4	-1E+10	1	-1E+10	1	-1E+10	1	-1E+10	1	-1E+10	1	-1E+10	1
4901784	38	C	07/19/2016	10:49	-132.570	44.886	0	269.70	0	6.5400	0	33.8990	0	26.617	0	267.339	0	133.9	4	44.8	4	-1E+10	1	-1E+10	1	-1E+10	1	-1E+10	1	-1E+10	1	-1E+10	1
4901784	38	C	07/19/2016	10:49	-132.570	44.886	0	272.10	0	6.4860	0	33.9010	0	26.625	0	269.716	0	132.6	4	44.3	4	-1E+10	1	-1E+10	1	-1E+10	1	-1E+10	1	-1E+10	1	-1E+10	1
4901784	38	C	07/19/2016	10:49	-132.570	44.886	0	275.40	0	6.4410	0	33.9020	0	26.632	0	272.985	0	130.9	4	43.7	4	-1E+10	1	-1E+10	1	-1E+10	1	-1E+10	1	-1E+10	1	-1E+10	1
4901784	38	C	07/19/2016	10:49	-132.570	44.886	0	277.80	0	6.4090	0	33.9020	0	26.636	0	275.363	0	129.4	4	43.2	4	-1E+10	1	-1E+10	1	-1E+10	1	-1E+10	1	-1E+10	1	-1E+10	1
4901784	38	C	07/19/2016	10:49	-132.570	44.886	0	280.20	0	6.3520	0	33.9040	0	26.645	0	277.740	0	127.9	4	42.6	4	-1E+10	1	-1E+10	1	-1E+10	1	-1E+10	1	-1E+10	1	-1E+10	1
4901784	38	C	07/19/2016	10:49	-132.570	44.886	0	282.60	0	6.3090	0	33.9030	0	26.650	0	280.117	0	126.7	4	42.2	4	-1E+10	1	-1E+10	1	-1E+10	1	-1E+10	1	-1E+10	1	-1E+10	1
4901784	38	C	07/19/2016	10:49	-132.570	44.886	0	285.10	0	6.2910	0	33.9030	0	26.652	0	282.594	0	125.2	4	41.7	4	-1E+10	1	-1E+10	1	-1E+10	1	-1E+10	1	-1E+10	1	-1E+10	1
4901784	38	C	07/19/2016	10:49	-132.570	44.886	0	287.70	0	6.2270	0	33.9050	0	26.662	0	285.169	0	123.6	4	41.0	4	-1E+10	1	-1E+10	1	-1E+10	1	-1E+10	1	-1E+10	1	-1E+10	1
4901784	38	C	07/19/2016	10:49	-132.570	44.886	0	290.20	0	6.1930	0	33.9050	0	26.666	0	287.645	0	122.3	4	40.6	4	-1E+10	1	-1E+10	1	-1E+10	1	-1E+10	1	-1E+10	1	-1E+10	1
4901784	38	C	07/19/2016	10:49	-132.570	44.886	0	292.70	0	6.1730	0	33.9040	0	26.668	0	290.122	0	120.8	4	40.1	4	-1E+10	1	-1E+10	1	-1E+10	1	-1E+10	1	-1E+10	1	-1E+10	1
4901784	38	C	07/19/2016	10:49	-132.570	44.886	0	295.20	0	6.1260	0	33.9040	0	26.674	0	292.598	0	119.0	4	39.4	4	-1E+10	1	-1E+10	1	-1E+10	1	-1E+10	1	-1E+10	1	-1E+10	1
4901784	38	C	07/19/2016	10:49	-132.570	44.886	0	297.80	0	6.0680	0	33.9040	0	26.681	0	295.173	0	117.3	4	38.8	4	-1E+10	1	-1E+10	1	-1E+10	1	-1E+10	1	-1E+10	1	-1E+10	1
4901784	38	C	07/19/2016	10:49	-132.570	44.886	0	299.60	0	6.0320	0	33.9050	0	26.687	0	296.956	0	116.2	4	38.4	4	-1E+10	1	-1E+10	1	-1E+10	1	-1E+10	1	-1E+10	1	-1E+10	1
4901784	38	C	07/19/2016	10:49	-132.570	44.886	0	302.20	0	6.0020	0	33.9060	0	26.691	0	299.531	0	115.0	4	38.0	4	-1E+10	1	-1E+10	1	-1E+10	1	-1E+10	1	-1E+10	1	-1E+10	1
4901784	38	C	07/19/2016	10:49	-132.570	44.886	0	304.90	0	5.9740	0	33.9060	0	26.695	0	302.205	0	113.5	4	37.5	4	-1E+10	1	-1E+10	1	-1E+10	1	-1E+10	1	-1E+10	1	-1E+10	1
4901784	38	C	07/19/2016	10:49	-132.570	44.886	0	307.60	0	5.9420	0	33.9090	0	26.701	0	304.879	0	112.2	4	37.0	4	-1E+10	1	-1E+10	1	-1E+10	1	-1E+10	1	-1E+10	1	-1E+10	1
4901784	38	C	07/19/2016	10:49	-132.570	44.886	0	310.30	0	5.9280	0	33.9080	0	26.702	0	307.553	0	110.8	4	36.6	4	-1E+10	1	-1E+10	1	-1E+10	1	-1E+10	1	-1E+10	1	-1E+10	1
4901784	38	C	07/19/2016	10:49	-132.570	44.886	0	312.10	0	5.8960	0	33.9100	0	26.708	0	309.336	0	109.8	4	36.2	4	-1E+10	1	-1E+10	1	-1E+10	1	-1E+10	1	-1E+10	1	-1E+10	1
4901784	38	C	07/19/2016	10:49	-132.570	44.886	0	314.90	0	5.8520	0	33.9080	0	26.712	0	312.109	0	108.3	4	35.7	4	-1E+10	1	-1E+10	1	-1E+10	1	-1E+10	1	-1E+10	1	-1E+10	1
4901784	38	C	07/19/2016	10:49	-132.570	44.886	0	317.60	0	5.8170	0	33.9070	0	26.715	0	314.783	0	106.7	4	35.1	4	-1E+10	1	-1E+10	1	-1E+10	1	-1E+10	1	-1E+10	1	-1E+10	1
4901784	38	C	07/19/2016	10:49	-132.570	44.886	0	320.30	0	5.7180	0	33.9110	0	26.730	0	317.457	0	105.5	4	34.6	4	-1E+10	1	-1E+10	1	-1E+10	1	-1E+10	1	-1E+10	1	-1E+10	1
4901784	38	C	07/19/2016	10:49	-132.570	44.886	0	323.00	0	5.6990	0	33.9110	0	26.733	0	320.131	0	104.7	4	34.4	4	-1E+10	1	-1E+10	1	-1E+10	1	-1E+10	1	-1E+10	1	-1E+10	1
4901784	38	C	07/19/2016	10:49	-132.570	44.886	0	324.90	0	5.6900	0	33.9100	0	26.733	0	322.013	0	104.1	4	34.1	4	-1E+10	1	-1E+10	1	-1E+10	1	-1E+10	1	-1E+10	1	-1E+10	1
4901784	38	C	07/19/2016	10:49	-132.570	44.886	0	326.70	0	5.6770	0	33.9110	0	26.736	0	323.795	0	103.4	4	33.9	4	-1E+10	1	-1E+10	1	-1E+10	1	-1E+10	1	-1E+10	1	-1E+10	1
4901784	38	C	07/19/2016	10:49	-132.570	44.886	0	329.70	0	5.6520	0	33.9110	0	26.739	0	326.766	0	102.0	4	33.4	4	-1E+10	1	-1E+10	1	-1E+10	1	-1E+10	1	-1E+10	1	-1E+10	1
4901784	38	C	07/19/2016	10:49	-132.570	44.886	0	332.50	0	5.6210	0	33.9120	0	26.743	0	329.539	0	100.3	4	32.9	4	-1E+10	1	-1E+10	1	-1E+10	1	-1E+10	1	-1E+10	1	-1E+10	1
4901784	38	C	07/19/2016	10:49	-132.570	44.886	0	334.90	0	5.5690	0	33.9150	0	26.752	0	331.916	0	99.1	4	32.4	4	-1E+10	1	-1E+10	1	-1E+10	1	-1E+10	1	-1E+10	1	-1E+10	1
4901784	38	C	07/19/2016	10:49	-132.570	44.886	0	337.20	0	5.5590	0	33.9150	0	26.753	0	334.194	0	98.1	4	32.1	4	-1E+10	1	-1E+10	1	-1E+10	1	-1E+10	1	-1E+10	1	-1E+10	1
4901784	38	C	07/19/2016	10:49	-132.570	44.886	0	339.60	0	5.5440	0	33.9160	0	26.756	0	336.570	0	96.6	4	31.6	4	-1E+10	1	-1E+10	1	-1E+10	1	-1E+10	1	-1E+10	1	-1E+10	1
4901784	38	C	07/19/2016	10:49	-132.570	44.886	0	342.70	0	5.5130	0	33.9170	0	26.760	0	339.640	0	94.1	4	30.8	4	-1E+10	1	-1E+10	1	-1E+10	1	-1E+10	1	-1E+10	1	-1E+10	1
4901784	38	C	07/19/2016	10:49	-132.570	44.886	0	345.10	0	5.4810	0	33.9220	0	26.768	0	342.017	0	92.2	4	30.1	4	-1E+10	1	-1E+10	1	-1E+10	1	-1E+10	1	-1E+10	1	-1E+10	1
4901784	38	C	07/19/2016	10:49	-132.570	44.886	0	347.50	0	5.4770	0	33.9250	0	26.771	0	344.393	0	90.9	4	29.7	4	-1E+10	1	-1E+10	1	-1E+10	1	-1E+10	1	-1E+10	1	-1E+10	1
4901784	38	C	07/19/2016	10:49	-132.570	44.886	0	350.00	0	5.4670	0	33.9260	0	26.773	0	346.869	0	90.3	4	29.5	4	-1E+10	1	-1E+10	1	-1E+10	1	-1E+10	1	-1E+10	1	-1E+10	1
4901784	38	C	07/19/2016	10:49	-132.570	44.886	0	352.50	0	5.4390	0	33.9260	0	26.776	0	349.344	0	89.9	4	29.3	4	-1E+10	1	-1E+10	1	-1E+10	1	-1E+10	1	-1E+10	1	-1E+10	1
4901784	38	C	07/19/2016	10:49	-132.570	44.886	0	355.10	0	5.3910	0	33.9250	0	26.781	0	351.919	0	89.6	4	29.2	4	-1E+10	1	-1E+10	1	-1E+10	1	-1E+10	1	-1E+10	1	-1E+10	1
4901784	38	C	07/19/2016	10:49	-132.570	44.886	0	357.60	0	5.3570	0	33.9280	0	26.787	0	354.394	0	88.3	4	28.7	4	-1E+10	1	-1E+10	1	-1E+10	1	-1E+10	1	-1E+10	1	-1E+10	1
4901784	38	C	07/19/2016	10:49	-132.570	44.886	0	360.10	0	5.3530	0	33.9290	0	26.789	0	356.870	0	86.9	4	28.3	4	-1E+10	1	-1E+10	1	-1E+10	1	-1E+10	1	-1E+10	1	-1E+10	1
4901784	38	C	07/19/2016	10:49	-132.570	44.886	0	362.70	0	5.3480	0	33.9320	0	26.792	0	359.444	0	84.8	4	27.6	4	-1E+10	1	-1E+10	1	-1E+10	1	-1E+10	1	-1E+10	1	-1E+10	1
4901784	38	C	07/19/2016	10:49	-132.570	44.886	0	365.20	0	5.3420	0	33.9360	0	26.796	0	361.920	0	82.7	4	26.9	4	-1E+10	1	-1E+10	1	-1E+10	1	-1E+10	1	-1E+10	1	-1E+10	1
4901784	38	C	07/19/2016	10:49	-132.570	44.886	0	367.70	0	5.3350	0	33.9390	0	26.799	0	364.395	0	80.4	4	26.2	4	-1E+10	1	-1E+10	1	-1E+10	1	-1E+10	1	-1E+10	1	-1E+10	1
4901784	38	C	07/19/2016	10:49	-132.570	44.886	0	370.20	0	5.3380	0	33.9420	0	26.801	0	366.870	0	77.8	4	25.3	4	-1E+10	1	-1E+10	1	-1E+10	1	-1E+10	1	-1E+10	1	-1E+10	1
4901784	38	C	07/19/2016	10:49	-132.570	44.886	0	372.80	0	5.3540	0	33.9460	0	26.802	0	369.445	0	74.5	4	24.3	4	-1E+10	1	-1E+10	1	-1E+10	1	-1E+10	1	-1E+10	1	-1E+10	1
4901784	38	C	07/19/2016	10:49	-132.570	44.886	0	375.40	0	5.3900	0	33.9520	0	26.803	0	372.019	0	70.7	4	23.0	4	-1E+10	1	-1E+10	1	-1E+10	1	-1E+10	1	-1E+10	1	-1E+10	1
4901784	38	C	07/19/2016	10:49	-132.570	44.886	0	377.10	0	5.4460	0	33.9650	0	26.806	0	373.702	0	68.0	4	22.2	4	-1E+10	1	-1E+10	1	-1E+10	1	-1E+10	1	-1E+10	1	-1E+10	1
4901784	38	C	07/19/2016	10:49	-132.570	44.886	0	379.70	0	5.4630	0	33.9670	0	26.806	0	376.276	0	66.4	4	21.7	4	-1E+10	1	-1E+10	1	-1E+10	1	-1E+10	1	-1E+10	1	-1E+10	1
4901784	38	C	07/19/2016	10:49	-132.570	44.886	0	382.30	0	5.4170	0	33.9660	0	26.811	0	378.850	0	65.7	4	21.4	4	-1E+10	1	-1E+10	1	-1E+10	1	-1E+10	1	-1E+10	1	-1E+10	1
4901784	38	C	07/19/2016	10:49	-132.570	44.886	0	384.90	0	5.3860	0	33.9680	0	26.816	0	381.425	0	63.6	4	20.7	4	-1E+10	1	-1E+10	1	-1E+10	1	-1E+10	1	-1E+10	1	-1E+10	1
4901784	38	C	07/19/2016	10:49	-132.570	44.886	0	387.60	0	5.3910	0	33.9750	0	26.821	0	384.098	0	61.1	4	19.9	4	-1E+10	1	-1E+10	1	-1E+10	1	-1E+10	1	-1E+10	1	-1E+10	1
4901784	38	C	07/19/2016	10:49	-132.570	44.886	0	390.20	0	5.3800	0	33.9770	0	26.824	0	386.672	0	59.2	4	19.3	4	-1E+10	1	-1E+10	1	-1E+10	1	-1E+10	1	-1E+10	1	-1E+10	1
4901784	38	C	07/19/2016	10:49	-132.570	44.886	0	392.90	0	5.3720	0	33.9850	0	26.831	0	389.345	0	57.2	4	18.6	4	-1E+10	1	-1E+10	1	-1E+10	1	-1E+10	1	-1E+10	1	-1E+10	1
4901784	38	C	07/19/2016	10:49	-132.570	44.886	0	394.60	0	5.3740	0	33.9860	0	26.832	0	391.028	0	56.1	4	18.3	4	-1E+10	1	-1E+10	1	-1E+10	1	-1E+10	1	-1E+10	1	-1E+10	1
4901784	38	C	07/19/2016	10:49	-132.570	44.886	0	397.20	0	5.3600	0	33.9910	0	26.837	0	393.602	0	54.7	4	17.8	4	-1E+10	1	-1E+10	1	-1E+10	1	-1E+10	1	-1E+10	1	-1E+10	1
4901784	38	C	07/19/2016	10:49	-132.570	44.886	0	399.90	0	5.3410	0	33.9940	0	26.842	0	396.275	0	53.5	4	17.4	4	-1E+10	1	-1E+10	1	-1E+10	1	-1E+10	1	-1E+10	1	-1E+10	1
4901784	38	C	07/19/2016	10:49	-132.570	44.886	0	402.60	0	5.3250	0	33.9980	0	26.847	0	398.948	0	52.6	4	17.1	4	-1E+10	1	-1E+10	1	-1E+10	1	-1E+10	1	-1E+10	1	-1E+10	1
4901784	38	C	07/19/2016	10:49	-132.570	44.886	0	405.20	0	5.3040	0	34.0010	0	26.852	0	401.522	0	51.8	4	16.9	4	-1E+10	1	-1E+10	1	-1E+10	1	-1E+10	1	-1E+10	1	-1E+10	1
4901784	38	C	07/19/2016	10:49	-132.570	44.886	0	407.00	0	5.2940	0	34.0010	0	26.853	0	403.303	0	51.5	4	16.7	4	-1E+10	1	-1E+10	1	-1E+10	1	-1E+10	1	-1E+10	1	-1E+10	1
4901784	38	C	07/19/2016	10:49	-132.570	44.886	0	409.70	0	5.2600	0	34.0040	0	26.860	0	405.976	0	51.0	4	16.6	4	-1E+10	1	-1E+10	1	-1E+10	1	-1E+10	1	-1E+10	1	-1E+10	1
4901784	38	C	07/19/2016	10:49	-132.570	44.886	0	412.30	0	5.1970	0	34.0050	0	26.868	0	408.550	0	51.0	4	16.5	4	-1E+10	1	-1E+10	1	-1E+10	1	-1E+10	1	-1E+10	1	-1E+10	1
4901784	38	C	07/19/2016	10:49	-132.570	44.886	0	415.00	0	5.2090	0	34.0090	0	26.869	0	411.223	0	50.4	4	16.4	4	-1E+10	1	-1E+10	1	-1E+10	1	-1E+10	1	-1E+10	1	-1E+10	1
4901784	38	C	07/19/2016	10:49	-132.570	44.886	0	417.60	0	5.2130	0	34.0080	0	26.868	0	413.797	0	50.2	4	16.3	4	-1E+10	1	-1E+10	1	-1E+10	1	-1E+10	1	-1E+10	1	-1E+10	1
4901784	38	C	07/19/2016	10:49	-132.570	44.886	0	420.30	0	5.1780	0	34.0080	0	26.872	0	416.469	0	50.2	4	16.3	4	-1E+10	1	-1E+10	1	-1E+10	1	-1E+10	1	-1E+10	1	-1E+10	1
4901784	38	C	07/19/2016	10:49	-132.570	44.886	0	422.90	0	5.1290	0	34.0090	0	26.879	0	419.043	0	49.8	4	16.1	4	-1E+10	1	-1E+10	1	-1E+10	1	-1E+10	1	-1E+10	1	-1E+10	1
4901784	38	C	07/19/2016	10:49	-132.570	44.886	0	424.60	0	5.1330	0	34.0110	0	26.880	0	420.726	0	49.4	4	16.0	4	-1E+10	1	-1E+10	1	-1E+10	1	-1E+10	1	-1E+10	1	-1E+10	1
4901784	38	C	07/19/2016	10:49	-132.570	44.886	0	427.20	0	5.1260	0	34.0120	0	26.882	0	423.299	0	48.9	4	15.8	4	-1E+10	1	-1E+10	1	-1E+10	1	-1E+10	1	-1E+10	1	-1E+10	1
4901784	38	C	07/19/2016	10:49	-132.570	44.886	0	429.80	0	5.1190	0	34.0130	0	26.883	0	425.873	0	48.1	4	15.6	4	-1E+10	1	-1E+10	1	-1E+10	1	-1E+10	1	-1E+10	1	-1E+10	1
4901784	38	C	07/19/2016	10:49	-132.570	44.886	0	432.50	0	5.1100	0	34.0150	0	26.886	0	428.546	0	47.3	4	15.3	4	-1E+10	1	-1E+10	1	-1E+10	1	-1E+10	1	-1E+10	1	-1E+10	1
4901784	38	C	07/19/2016	10:49	-132.570	44.886	0	435.10	0	5.1060	0	34.0170	0	26.888	0	431.119	0	46.6	4	15.1	4	-1E+10	1	-1E+10	1	-1E+10	1	-1E+10	1	-1E+10	1	-1E+10	1
4901784	38	C	07/19/2016	10:49	-132.570	44.886	0	437.80	0	5.1060	0	34.0200	0	26.890	0	433.792	0	45.8	4	14.8	4	-1E+10	1	-1E+10	1	-1E+10	1	-1E+10	1	-1E+10	1	-1E+10	1
4901784	38	C	07/19/2016	10:49	-132.570	44.886	0	440.50	0	5.1030	0	34.0230	0	26.893	0	436.464	0	45.3	4	14.7	4	-1E+10	1	-1E+10	1	-1E+10	1	-1E+10	1	-1E+10	1	-1E+10	1
4901784	38	C	07/19/2016	10:49	-132.570	44.886	0	442.20	0	5.1000	0	34.0230	0	26.893	0	438.147	0	45.0	4	14.6	4	-1E+10	1	-1E+10	1	-1E+10	1	-1E+10	1	-1E+10	1	-1E+10	1
4901784	38	C	07/19/2016	10:49	-132.570	44.886	0	444.90	0	5.0920	0	34.0250	0	26.896	0	440.819	0	44.4	4	14.4	4	-1E+10	1	-1E+10	1	-1E+10	1	-1E+10	1	-1E+10	1	-1E+10	1
4901784	38	C	07/19/2016	10:49	-132.570	44.886	0	447.60	0	5.0740	0	34.0280	0	26.900	0	443.491	0	44.2	4	14.3	4	-1E+10	1	-1E+10	1	-1E+10	1	-1E+10	1	-1E+10	1	-1E+10	1
4901784	38	C	07/19/2016	10:49	-132.570	44.886	0	450.30	0	5.0590	0	34.0280	0	26.902	0	446.164	0	43.9	4	14.2	4	-1E+10	1	-1E+10	1	-1E+10	1	-1E+10	1	-1E+10	1	-1E+10	1
4901784	38	C	07/19/2016	10:49	-132.570	44.886	0	452.90	0	5.0420	0	34.0310	0	26.906	0	448.737	0	43.7	4	14.1	4	-1E+10	1	-1E+10	1	-1E+10	1	-1E+10	1	-1E+10	1	-1E+10	1
4901784	38	C	07/19/2016	10:49	-132.570	44.886	0	454.60	0	5.0380	0	34.0310	0	26.907	0	450.420	0	43.7	4	14.1	4	-1E+10	1	-1E+10	1	-1E+10	1	-1E+10	1	-1E+10	1	-1E+10	1
4901784	38	C	07/19/2016	10:49	-132.570	44.886	0	457.40	0	5.0190	0	34.0300	0	26.908	0	453.191	0	43.7	4	14.1	4	-1E+10	1	-1E+10	1	-1E+10	1	-1E+10	1	-1E+10	1	-1E+10	1
4901784	38	C	07/19/2016	10:49	-132.570	44.886	0	460.00	0	5.0030	0	34.0300	0	26.910	0	455.764	0	43.6	4	14.1	4	-1E+10	1	-1E+10	1	-1E+10	1	-1E+10	1	-1E+10	1	-1E+10	1
4901784	38	C	07/19/2016	10:49	-132.570	44.886	0	462.70	0	4.9810	0	34.0300	0	26.913	0	458.436	0	43.3	4	14.0	4	-1E+10	1	-1E+10	1	-1E+10	1	-1E+10	1	-1E+10	1	-1E+10	1
4901784	38	C	07/19/2016	10:49	-132.570	44.886	0	465.40	0	4.9710	0	34.0290	0	26.913	0	461.108	0	42.7	4	13.8	4	-1E+10	1	-1E+10	1	-1E+10	1	-1E+10	1	-1E+10	1	-1E+10	1
4901784	38	C	07/19/2016	10:49	-132.570	44.886	0	467.10	0	4.9600	0	34.0340	0	26.918	0	462.791	0	42.0	4	13.6	4	-1E+10	1	-1E+10	1	-1E+10	1	-1E+10	1	-1E+10	1	-1E+10	1
4901784	38	C	07/19/2016	10:49	-132.570	44.886	0	469.70	0	4.9430	0	34.0360	0	26.922	0	465.364	0	41.6	4	13.4	4	-1E+10	1	-1E+10	1	-1E+10	1	-1E+10	1	-1E+10	1	-1E+10	1
4901784	38	C	07/19/2016	10:49	-132.570	44.886	0	472.40	0	4.9230	0	34.0370	0	26.925	0	468.036	0	41.2	4	13.3	4	-1E+10	1	-1E+10	1	-1E+10	1	-1E+10	1	-1E+10	1	-1E+10	1
4901784	38	C	07/19/2016	10:49	-132.570	44.886	0	475.00	0	4.9090	0	34.0390	0	26.928	0	470.609	0	40.2	4	13.0	4	-1E+10	1	-1E+10	1	-1E+10	1	-1E+10	1	-1E+10	1	-1E+10	1
4901784	38	C	07/19/2016	10:49	-132.570	44.886	0	477.60	0	4.9070	0	34.0410	0	26.930	0	473.182	0	39.5	4	12.7	4	-1E+10	1	-1E+10	1	-1E+10	1	-1E+10	1	-1E+10	1	-1E+10	1
4901784	38	C	07/19/2016	10:49	-132.570	44.886	0	480.20	0	4.8830	0	34.0430	0	26.934	0	475.755	0	39.0	4	12.5	4	-1E+10	1	-1E+10	1	-1E+10	1	-1E+10	1	-1E+10	1	-1E+10	1
4901784	38	C	07/19/2016	10:49	-132.570	44.886	0	482.90	0	4.8620	0	34.0490	0	26.941	0	478.427	0	38.0	4	12.2	4	-1E+10	1	-1E+10	1	-1E+10	1	-1E+10	1	-1E+10	1	-1E+10	1
4901784	38	C	07/19/2016	10:49	-132.570	44.886	0	484.70	0	4.8370	0	34.0500	0	26.945	0	480.208	0	37.6	4	12.1	4	-1E+10	1	-1E+10	1	-1E+10	1	-1E+10	1	-1E+10	1	-1E+10	1
4901784	38	C	07/19/2016	10:49	-132.570	44.886	0	487.30	0	4.8410	0	34.0530	0	26.947	0	482.781	0	37.0	4	11.9	4	-1E+10	1	-1E+10	1	-1E+10	1	-1E+10	1	-1E+10	1	-1E+10	1
4901784	38	C	07/19/2016	10:49	-132.570	44.886	0	489.90	0	4.8300	0	34.0560	0	26.950	0	485.354	0	36.5	4	11.8	4	-1E+10	1	-1E+10	1	-1E+10	1	-1E+10	1	-1E+10	1	-1E+10	1
4901784	38	C	07/19/2016	10:49	-132.570	44.886	0	492.60	0	4.8200	0	34.0560	0	26.952	0	488.025	0	36.2	4	11.6	4	-1E+10	1	-1E+10	1	-1E+10	1	-1E+10	1	-1E+10	1	-1E+10	1
4901784	38	C	07/19/2016	10:49	-132.570	44.886	0	495.40	0	4.7950	0	34.0580	0	26.956	0	490.796	0	35.7	4	11.5	4	-1E+10	1	-1E+10	1	-1E+10	1	-1E+10	1	-1E+10	1	-1E+10	1
4901784	38	C	07/19/2016	10:49	-132.570	44.886	0	497.20	0	4.7950	0	34.0600	0	26.958	0	492.577	0	35.4	4	11.4	4	-1E+10	1	-1E+10	1	-1E+10	1	-1E+10	1	-1E+10	1	-1E+10	1
4901784	38	C	07/19/2016	10:49	-132.570	44.886	0	499.90	0	4.7650	0	34.0610	0	26.962	0	495.249	0	35.1	4	11.3	4	-1E+10	1	-1E+10	1	-1E+10	1	-1E+10	1	-1E+10	1	-1E+10	1
4901784	38	C	07/19/2016	10:49	-132.570	44.886	0	504.60	0	4.7520	0	34.0650	0	26.966	0	499.900	0	34.2	4	11.0	4	-1E+10	1	-1E+10	1	-1E+10	1	-1E+10	1	-1E+10	1	-1E+10	1
4901784	38	C	07/19/2016	10:49	-132.570	44.886	0	510.10	0	4.7290	0	34.0700	0	26.973	0	505.342	0	33.4	4	10.7	4	-1E+10	1	-1E+10	1	-1E+10	1	-1E+10	1	-1E+10	1	-1E+10	1
4901784	38	C	07/19/2016	10:49	-132.570	44.886	0	515.60	0	4.7090	0	34.0720	0	26.977	0	510.784	0	32.8	4	10.5	4	-1E+10	1	-1E+10	1	-1E+10	1	-1E+10	1	-1E+10	1	-1E+10	1
4901784	38	C	07/19/2016	10:49	-132.570	44.886	0	520.20	0	4.6820	0	34.0760	0	26.983	0	515.335	0	32.4	4	10.4	4	-1E+10	1	-1E+10	1	-1E+10	1	-1E+10	1	-1E+10	1	-1E+10	1
4901784	38	C	07/19/2016	10:49	-132.570	44.886	0	525.00	0	4.6620	0	34.0770	0	26.986	0	520.084	0	32.0	4	10.3	4	-1E+10	1	-1E+10	1	-1E+10	1	-1E+10	1	-1E+10	1	-1E+10	1
4901784	38	C	07/19/2016	10:49	-132.570	44.886	0	529.70	0	4.6400	0	34.0820	0	26.992	0	524.734	0	31.7	4	10.2	4	-1E+10	1	-1E+10	1	-1E+10	1	-1E+10	1	-1E+10	1	-1E+10	1
4901784	38	C	07/19/2016	10:49	-132.570	44.886	0	534.40	0	4.5970	0	34.0800	0	26.996	0	529.384	0	31.9	4	10.2	4	-1E+10	1	-1E+10	1	-1E+10	1	-1E+10	1	-1E+10	1	-1E+10	1
4901784	38	C	07/19/2016	10:49	-132.570	44.886	0	539.80	0	4.5490	0	34.0810	0	27.002	0	534.726	0	31.4	4	10.0	4	-1E+10	1	-1E+10	1	-1E+10	1	-1E+10	1	-1E+10	1	-1E+10	1
4901784	38	C	07/19/2016	10:49	-132.570	44.886	0	545.10	0	4.5440	0	34.0870	0	27.007	0	539.970	0	30.5	4	9.8	4	-1E+10	1	-1E+10	1	-1E+10	1	-1E+10	1	-1E+10	1	-1E+10	1
4901784	38	C	07/19/2016	10:49	-132.570	44.886	0	550.70	0	4.5100	0	34.0910	0	27.014	0	545.510	0	29.8	4	9.5	4	-1E+10	1	-1E+10	1	-1E+10	1	-1E+10	1	-1E+10	1	-1E+10	1
4901784	38	C	07/19/2016	10:49	-132.570	44.886	0	555.50	0	4.4970	0	34.0940	0	27.018	0	550.258	0	29.5	4	9.4	4	-1E+10	1	-1E+10	1	-1E+10	1	-1E+10	1	-1E+10	1	-1E+10	1
4901784	38	C	07/19/2016	10:49	-132.570	44.886	0	560.50	0	4.4760	0	34.0950	0	27.021	0	555.204	0	29.2	4	9.3	4	-1E+10	1	-1E+10	1	-1E+10	1	-1E+10	1	-1E+10	1	-1E+10	1
4901784	38	C	07/19/2016	10:49	-132.570	44.886	0	565.40	0	4.4700	0	34.0980	0	27.024	0	560.051	0	28.6	4	9.1	4	-1E+10	1	-1E+10	1	-1E+10	1	-1E+10	1	-1E+10	1	-1E+10	1
4901784	38	C	07/19/2016	10:49	-132.570	44.886	0	570.40	0	4.4570	0	34.0990	0	27.026	0	564.997	0	28.1	4	9.0	4	-1E+10	1	-1E+10	1	-1E+10	1	-1E+10	1	-1E+10	1	-1E+10	1
4901784	38	C	07/19/2016	10:49	-132.570	44.886	0	575.50	0	4.4440	0	34.1030	0	27.031	0	570.042	0	27.3	4	8.7	4	-1E+10	1	-1E+10	1	-1E+10	1	-1E+10	1	-1E+10	1	-1E+10	1
4901784	38	C	07/19/2016	10:49	-132.570	44.886	0	580.70	0	4.4340	0	34.1070	0	27.035	0	575.186	0	26.2	4	8.3	4	-1E+10	1	-1E+10	1	-1E+10	1	-1E+10	1	-1E+10	1	-1E+10	1
4901784	38	C	07/19/2016	10:49	-132.570	44.886	0	585.80	0	4.4400	0	34.1140	0	27.040	0	580.230	0	24.5	4	7.8	4	-1E+10	1	-1E+10	1	-1E+10	1	-1E+10	1	-1E+10	1	-1E+10	1
4901784	38	C	07/19/2016	10:49	-132.570	44.886	0	590.10	0	4.4400	0	34.1260	0	27.049	0	584.483	0	23.3	4	7.4	4	-1E+10	1	-1E+10	1	-1E+10	1	-1E+10	1	-1E+10	1	-1E+10	1
4901784	38	C	07/19/2016	10:49	-132.570	44.886	0	594.40	0	4.4280	0	34.1290	0	27.053	0	588.736	0	22.9	4	7.3	4	-1E+10	1	-1E+10	1	-1E+10	1	-1E+10	1	-1E+10	1	-1E+10	1
4901784	38	C	07/19/2016	10:49	-132.570	44.886	0	599.70	0	4.4260	0	34.1320	0	27.056	0	593.978	0	22.1	4	7.1	4	-1E+10	1	-1E+10	1	-1E+10	1	-1E+10	1	-1E+10	1	-1E+10	1
4901784	38	C	07/19/2016	10:49	-132.570	44.886	0	605.10	0	4.3790	0	34.1390	0	27.066	0	599.319	0	21.7	4	6.9	4	-1E+10	1	-1E+10	1	-1E+10	1	-1E+10	1	-1E+10	1	-1E+10	1
4901784	38	C	07/19/2016	10:49	-132.570	44.886	0	610.40	0	4.3380	0	34.1430	0	27.074	0	604.560	0	21.2	4	6.8	4	-1E+10	1	-1E+10	1	-1E+10	1	-1E+10	1	-1E+10	1	-1E+10	1
4901784	38	C	07/19/2016	10:49	-132.570	44.886	0	615.70	0	4.3280	0	34.1460	0	27.077	0	609.802	0	20.8	4	6.6	4	-1E+10	1	-1E+10	1	-1E+10	1	-1E+10	1	-1E+10	1	-1E+10	1
4901784	38	C	07/19/2016	10:49	-132.570	44.886	0	620.20	0	4.3180	0	34.1500	0	27.082	0	614.252	0	20.3	4	6.5	4	-1E+10	1	-1E+10	1	-1E+10	1	-1E+10	1	-1E+10	1	-1E+10	1
4901784	38	C	07/19/2016	10:49	-132.570	44.886	0	624.80	0	4.3090	0	34.1530	0	27.085	0	618.801	0	19.9	4	6.3	4	-1E+10	1	-1E+10	1	-1E+10	1	-1E+10	1	-1E+10	1	-1E+10	1
4901784	38	C	07/19/2016	10:49	-132.570	44.886	0	630.30	0	4.2990	0	34.1570	0	27.089	0	624.240	0	19.4	4	6.2	4	-1E+10	1	-1E+10	1	-1E+10	1	-1E+10	1	-1E+10	1	-1E+10	1
4901784	38	C	07/19/2016	10:49	-132.570	44.886	0	634.90	0	4.2830	0	34.1620	0	27.095	0	628.789	0	19.1	4	6.1	4	-1E+10	1	-1E+10	1	-1E+10	1	-1E+10	1	-1E+10	1	-1E+10	1
4901784	38	C	07/19/2016	10:49	-132.570	44.886	0	639.40	0	4.2720	0	34.1650	0	27.099	0	633.239	0	18.8	4	6.0	4	-1E+10	1	-1E+10	1	-1E+10	1	-1E+10	1	-1E+10	1	-1E+10	1
4901784	38	C	07/19/2016	10:49	-132.570	44.886	0	644.90	0	4.2660	0	34.1670	0	27.101	0	638.677	0	18.5	4	5.9	4	-1E+10	1	-1E+10	1	-1E+10	1	-1E+10	1	-1E+10	1	-1E+10	1
4901784	38	C	07/19/2016	10:49	-132.570	44.886	0	650.40	0	4.2560	0	34.1710	0	27.105	0	644.116	0	18.3	4	5.8	4	-1E+10	1	-1E+10	1	-1E+10	1	-1E+10	1	-1E+10	1	-1E+10	1
4901784	38	C	07/19/2016	10:49	-132.570	44.886	0	655.00	0	4.2540	0	34.1720	0	27.106	0	648.664	0	18.1	4	5.8	4	-1E+10	1	-1E+10	1	-1E+10	1	-1E+10	1	-1E+10	1	-1E+10	1
4901784	38	C	07/19/2016	10:49	-132.570	44.886	0	659.70	0	4.2420	0	34.1730	0	27.108	0	653.311	0	17.9	4	5.7	4	-1E+10	1	-1E+10	1	-1E+10	1	-1E+10	1	-1E+10	1	-1E+10	1
4901784	38	C	07/19/2016	10:49	-132.570	44.886	0	665.20	0	4.2170	0	34.1770	0	27.114	0	658.749	0	17.5	4	5.6	4	-1E+10	1	-1E+10	1	-1E+10	1	-1E+10	1	-1E+10	1	-1E+10	1
4901784	38	C	07/19/2016	10:49	-132.570	44.886	0	669.90	0	4.2020	0	34.1810	0	27.119	0	663.396	0	17.1	4	5.4	4	-1E+10	1	-1E+10	1	-1E+10	1	-1E+10	1	-1E+10	1	-1E+10	1
4901784	38	C	07/19/2016	10:49	-132.570	44.886	0	674.60	0	4.1910	0	34.1860	0	27.124	0	668.043	0	16.7	4	5.3	4	-1E+10	1	-1E+10	1	-1E+10	1	-1E+10	1	-1E+10	1	-1E+10	1
4901784	38	C	07/19/2016	10:49	-132.570	44.886	0	680.20	0	4.1720	0	34.1910	0	27.130	0	673.580	0	16.3	4	5.2	4	-1E+10	1	-1E+10	1	-1E+10	1	-1E+10	1	-1E+10	1	-1E+10	1
4901784	38	C	07/19/2016	10:49	-132.570	44.886	0	684.90	0	4.1500	0	34.1930	0	27.134	0	678.226	0	16.0	4	5.1	4	-1E+10	1	-1E+10	1	-1E+10	1	-1E+10	1	-1E+10	1	-1E+10	1
4901784	38	C	07/19/2016	10:49	-132.570	44.886	0	689.60	0	4.1400	0	34.1980	0	27.139	0	682.873	0	15.5	4	4.9	4	-1E+10	1	-1E+10	1	-1E+10	1	-1E+10	1	-1E+10	1	-1E+10	1
4901784	38	C	07/19/2016	10:49	-132.570	44.886	0	695.40	0	4.1210	0	34.2050	0	27.147	0	688.607	0	15.0	4	4.7	4	-1E+10	1	-1E+10	1	-1E+10	1	-1E+10	1	-1E+10	1	-1E+10	1
4901784	38	C	07/19/2016	10:49	-132.570	44.886	0	700.30	0	4.0940	0	34.2130	0	27.156	0	693.451	0	14.7	4	4.6	4	-1E+10	1	-1E+10	1	-1E+10	1	-1E+10	1	-1E+10	1	-1E+10	1
4901784	38	C	07/19/2016	10:49	-132.570	44.886	0	705.00	0	4.0660	0	34.2180	0	27.163	0	698.097	0	14.4	4	4.6	4	-1E+10	1	-1E+10	1	-1E+10	1	-1E+10	1	-1E+10	1	-1E+10	1
4901784	38	C	07/19/2016	10:49	-132.570	44.886	0	709.80	0	4.0460	0	34.2230	0	27.169	0	702.842	0	14.2	4	4.5	4	-1E+10	1	-1E+10	1	-1E+10	1	-1E+10	1	-1E+10	1	-1E+10	1
4901784	38	C	07/19/2016	10:49	-132.570	44.886	0	714.50	0	4.0290	0	34.2290	0	27.175	0	707.488	0	14.0	4	4.4	4	-1E+10	1	-1E+10	1	-1E+10	1	-1E+10	1	-1E+10	1	-1E+10	1
4901784	38	C	07/19/2016	10:49	-132.570	44.886	0	720.30	0	4.0140	0	34.2320	0	27.179	0	713.221	0	13.9	4	4.4	4	-1E+10	1	-1E+10	1	-1E+10	1	-1E+10	1	-1E+10	1	-1E+10	1
4901784	38	C	07/19/2016	10:49	-132.570	44.886	0	725.40	0	4.0030	0	34.2350	0	27.183	0	718.262	0	13.7	4	4.3	4	-1E+10	1	-1E+10	1	-1E+10	1	-1E+10	1	-1E+10	1	-1E+10	1
4901784	38	C	07/19/2016	10:49	-132.570	44.886	0	730.00	0	4.0040	0	34.2380	0	27.185	0	722.809	0	13.6	4	4.3	4	-1E+10	1	-1E+10	1	-1E+10	1	-1E+10	1	-1E+10	1	-1E+10	1
4901784	38	C	07/19/2016	10:49	-132.570	44.886	0	734.90	0	3.9960	0	34.2380	0	27.186	0	727.652	0	13.5	4	4.3	4	-1E+10	1	-1E+10	1	-1E+10	1	-1E+10	1	-1E+10	1	-1E+10	1
4901784	38	C	07/19/2016	10:49	-132.570	44.886	0	739.80	0	3.9880	0	34.2420	0	27.190	0	732.495	0	13.3	4	4.2	4	-1E+10	1	-1E+10	1	-1E+10	1	-1E+10	1	-1E+10	1	-1E+10	1
4901784	38	C	07/19/2016	10:49	-132.570	44.886	0	744.80	0	3.9770	0	34.2480	0	27.196	0	737.437	0	13.1	4	4.1	4	-1E+10	1	-1E+10	1	-1E+10	1	-1E+10	1	-1E+10	1	-1E+10	1
4901784	38	C	07/19/2016	10:49	-132.570	44.886	0	749.80	0	3.9730	0	34.2500	0	27.198	0	742.379	0	12.9	4	4.1	4	-1E+10	1	-1E+10	1	-1E+10	1	-1E+10	1	-1E+10	1	-1E+10	1
4901784	38	C	07/19/2016	10:49	-132.570	44.886	0	754.70	0	3.9550	0	34.2550	0	27.204	0	747.221	0	12.8	4	4.0	4	-1E+10	1	-1E+10	1	-1E+10	1	-1E+10	1	-1E+10	1	-1E+10	1
4901784	38	C	07/19/2016	10:49	-132.570	44.886	0	759.70	0	3.9360	0	34.2580	0	27.208	0	752.163	0	12.8	4	4.0	4	-1E+10	1	-1E+10	1	-1E+10	1	-1E+10	1	-1E+10	1	-1E+10	1
4901784	38	C	07/19/2016	10:49	-132.570	44.886	0	764.60	0	3.8900	0	34.2620	0	27.216	0	757.005	0	12.8	4	4.0	4	-1E+10	1	-1E+10	1	-1E+10	1	-1E+10	1	-1E+10	1	-1E+10	1
4901784	38	C	07/19/2016	10:49	-132.570	44.886	0	769.60	0	3.8810	0	34.2650	0	27.219	0	761.946	0	12.5	4	3.9	4	-1E+10	1	-1E+10	1	-1E+10	1	-1E+10	1	-1E+10	1	-1E+10	1
4901784	38	C	07/19/2016	10:49	-132.570	44.886	0	774.60	0	3.8810	0	34.2710	0	27.224	0	766.888	0	12.2	4	3.8	4	-1E+10	1	-1E+10	1	-1E+10	1	-1E+10	1	-1E+10	1	-1E+10	1
4901784	38	C	07/19/2016	10:49	-132.570	44.886	0	779.70	0	3.8670	0	34.2760	0	27.230	0	771.927	0	12.0	4	3.8	4	-1E+10	1	-1E+10	1	-1E+10	1	-1E+10	1	-1E+10	1	-1E+10	1
4901784	38	C	07/19/2016	10:49	-132.570	44.886	0	784.90	0	3.8660	0	34.2790	0	27.232	0	777.066	0	11.9	4	3.7	4	-1E+10	1	-1E+10	1	-1E+10	1	-1E+10	1	-1E+10	1	-1E+10	1
4901784	38	C	07/19/2016	10:49	-132.570	44.886	0	790.10	0	3.8590	0	34.2820	0	27.235	0	782.204	0	11.8	4	3.7	4	-1E+10	1	-1E+10	1	-1E+10	1	-1E+10	1	-1E+10	1	-1E+10	1
4901784	38	C	07/19/2016	10:49	-132.570	44.886	0	795.40	0	3.8480	0	34.2830	0	27.237	0	787.441	0	11.8	4	3.7	4	-1E+10	1	-1E+10	1	-1E+10	1	-1E+10	1	-1E+10	1	-1E+10	1
4901784	38	C	07/19/2016	10:49	-132.570	44.886	0	800.60	0	3.8240	0	34.2850	0	27.241	0	792.579	0	12.0	4	3.8	4	-1E+10	1	-1E+10	1	-1E+10	1	-1E+10	1	-1E+10	1	-1E+10	1
4901784	38	C	07/19/2016	10:49	-132.570	44.886	0	805.00	0	3.7990	0	34.2870	0	27.245	0	796.927	0	12.1	4	3.8	4	-1E+10	1	-1E+10	1	-1E+10	1	-1E+10	1	-1E+10	1	-1E+10	1
4901784	38	C	07/19/2016	10:49	-132.570	44.886	0	809.30	0	3.7880	0	34.2880	0	27.247	0	801.176	0	12.2	4	3.8	4	-1E+10	1	-1E+10	1	-1E+10	1	-1E+10	1	-1E+10	1	-1E+10	1
4901784	38	C	07/19/2016	10:49	-132.570	44.886	0	814.60	0	3.7650	0	34.2890	0	27.250	0	806.412	0	12.3	4	3.9	4	-1E+10	1	-1E+10	1	-1E+10	1	-1E+10	1	-1E+10	1	-1E+10	1
4901784	38	C	07/19/2016	10:49	-132.570	44.886	0	819.90	0	3.7610	0	34.2900	0	27.252	0	811.649	0	12.2	4	3.8	4	-1E+10	1	-1E+10	1	-1E+10	1	-1E+10	1	-1E+10	1	-1E+10	1
4901784	38	C	07/19/2016	10:49	-132.570	44.886	0	825.20	0	3.7540	0	34.2930	0	27.255	0	816.885	0	12.2	4	3.8	4	-1E+10	1	-1E+10	1	-1E+10	1	-1E+10	1	-1E+10	1	-1E+10	1
4901784	38	C	07/19/2016	10:49	-132.570	44.886	0	830.70	0	3.7280	0	34.2930	0	27.257	0	822.319	0	12.4	4	3.9	4	-1E+10	1	-1E+10	1	-1E+10	1	-1E+10	1	-1E+10	1	-1E+10	1
4901784	38	C	07/19/2016	10:49	-132.570	44.886	0	835.20	0	3.7280	0	34.2930	0	27.257	0	826.764	0	12.4	4	3.9	4	-1E+10	1	-1E+10	1	-1E+10	1	-1E+10	1	-1E+10	1	-1E+10	1
4901784	38	C	07/19/2016	10:49	-132.570	44.886	0	839.70	0	3.6950	0	34.2930	0	27.261	0	831.210	0	12.5	4	3.9	4	-1E+10	1	-1E+10	1	-1E+10	1	-1E+10	1	-1E+10	1	-1E+10	1
4901784	38	C	07/19/2016	10:49	-132.570	44.886	0	845.20	0	3.6750	0	34.2970	0	27.266	0	836.643	0	12.4	4	3.9	4	-1E+10	1	-1E+10	1	-1E+10	1	-1E+10	1	-1E+10	1	-1E+10	1
4901784	38	C	07/19/2016	10:49	-132.570	44.886	0	849.80	0	3.6620	0	34.2980	0	27.268	0	841.187	0	12.3	4	3.9	4	-1E+10	1	-1E+10	1	-1E+10	1	-1E+10	1	-1E+10	1	-1E+10	1
4901784	38	C	07/19/2016	10:49	-132.570	44.886	0	854.40	0	3.6590	0	34.3040	0	27.273	0	845.732	0	12.1	4	3.8	4	-1E+10	1	-1E+10	1	-1E+10	1	-1E+10	1	-1E+10	1	-1E+10	1
4901784	38	C	07/19/2016	10:49	-132.570	44.886	0	860.10	0	3.6560	0	34.3090	0	27.277	0	851.362	0	12.0	4	3.8	4	-1E+10	1	-1E+10	1	-1E+10	1	-1E+10	1	-1E+10	1	-1E+10	1
4901784	38	C	07/19/2016	10:49	-132.570	44.886	0	865.20	0	3.6470	0	34.3120	0	27.281	0	856.400	0	11.8	4	3.7	4	-1E+10	1	-1E+10	1	-1E+10	1	-1E+10	1	-1E+10	1	-1E+10	1
4901784	38	C	07/19/2016	10:49	-132.570	44.886	0	869.90	0	3.6450	0	34.3180	0	27.286	0	861.042	0	11.7	4	3.7	4	-1E+10	1	-1E+10	1	-1E+10	1	-1E+10	1	-1E+10	1	-1E+10	1
4901784	38	C	07/19/2016	10:49	-132.570	44.886	0	874.70	0	3.6390	0	34.3210	0	27.289	0	865.784	0	11.6	4	3.6	4	-1E+10	1	-1E+10	1	-1E+10	1	-1E+10	1	-1E+10	1	-1E+10	1
4901784	38	C	07/19/2016	10:49	-132.570	44.886	0	879.40	0	3.6460	0	34.3250	0	27.291	0	870.426	0	11.4	4	3.6	4	-1E+10	1	-1E+10	1	-1E+10	1	-1E+10	1	-1E+10	1	-1E+10	1
4901784	38	C	07/19/2016	10:49	-132.570	44.886	0	884.30	0	3.6310	0	34.3280	0	27.295	0	875.266	0	11.4	4	3.6	4	-1E+10	1	-1E+10	1	-1E+10	1	-1E+10	1	-1E+10	1	-1E+10	1
4901784	38	C	07/19/2016	10:49	-132.570	44.886	0	890.10	0	3.6300	0	34.3320	0	27.298	0	880.994	0	11.4	4	3.6	4	-1E+10	1	-1E+10	1	-1E+10	1	-1E+10	1	-1E+10	1	-1E+10	1
4901784	38	C	07/19/2016	10:49	-132.570	44.886	0	895.00	0	3.6280	0	34.3350	0	27.301	0	885.834	0	11.5	4	3.6	4	-1E+10	1	-1E+10	1	-1E+10	1	-1E+10	1	-1E+10	1	-1E+10	1
4901784	38	C	07/19/2016	10:49	-132.570	44.886	0	900.00	0	3.6010	0	34.3360	0	27.305	0	890.772	0	11.7	4	3.7	4	-1E+10	1	-1E+10	1	-1E+10	1	-1E+10	1	-1E+10	1	-1E+10	1
4901784	38	C	07/19/2016	10:49	-132.570	44.886	0	905.00	0	3.5430	0	34.3320	0	27.307	0	895.710	0	11.9	4	3.7	4	-1E+10	1	-1E+10	1	-1E+10	1	-1E+10	1	-1E+10	1	-1E+10	1
4901784	38	C	07/19/2016	10:49	-132.570	44.886	0	909.30	0	3.5340	0	34.3340	0	27.309	0	899.956	0	11.9	4	3.7	4	-1E+10	1	-1E+10	1	-1E+10	1	-1E+10	1	-1E+10	1	-1E+10	1
4901784	38	C	07/19/2016	10:49	-132.570	44.886	0	914.40	0	3.5080	0	34.3360	0	27.314	0	904.993	0	11.9	4	3.7	4	-1E+10	1	-1E+10	1	-1E+10	1	-1E+10	1	-1E+10	1	-1E+10	1
4901784	38	C	07/19/2016	10:49	-132.570	44.886	0	919.60	0	3.5160	0	34.3420	0	27.318	0	910.128	0	11.7	4	3.7	4	-1E+10	1	-1E+10	1	-1E+10	1	-1E+10	1	-1E+10	1	-1E+10	1
4901784	38	C	07/19/2016	10:49	-132.570	44.886	0	924.80	0	3.5430	0	34.3470	0	27.319	0	915.263	0	11.6	4	3.6	4	-1E+10	1	-1E+10	1	-1E+10	1	-1E+10	1	-1E+10	1	-1E+10	1
4901784	38	C	07/19/2016	10:49	-132.570	44.886	0	930.10	0	3.5290	0	34.3510	0	27.324	0	920.497	0	11.6	4	3.6	4	-1E+10	1	-1E+10	1	-1E+10	1	-1E+10	1	-1E+10	1	-1E+10	1
4901784	38	C	07/19/2016	10:49	-132.570	44.886	0	935.40	0	3.5230	0	34.3530	0	27.326	0	925.731	0	11.6	4	3.6	4	-1E+10	1	-1E+10	1	-1E+10	1	-1E+10	1	-1E+10	1	-1E+10	1
4901784	38	C	07/19/2016	10:49	-132.570	44.886	0	940.00	0	3.5190	0	34.3550	0	27.328	0	930.273	0	11.6	4	3.6	4	-1E+10	1	-1E+10	1	-1E+10	1	-1E+10	1	-1E+10	1	-1E+10	1
4901784	38	C	07/19/2016	10:49	-132.570	44.886	0	944.50	0	3.5170	0	34.3580	0	27.330	0	934.716	0	11.8	4	3.7	4	-1E+10	1	-1E+10	1	-1E+10	1	-1E+10	1	-1E+10	1	-1E+10	1
4901784	38	C	07/19/2016	10:49	-132.570	44.886	0	949.90	0	3.4980	0	34.3610	0	27.335	0	940.048	0	11.8	4	3.7	4	-1E+10	1	-1E+10	1	-1E+10	1	-1E+10	1	-1E+10	1	-1E+10	1
4901784	38	C	07/19/2016	10:49	-132.570	44.886	0	955.50	0	3.4840	0	34.3640	0	27.339	0	945.577	0	11.9	4	3.7	4	-1E+10	1	-1E+10	1	-1E+10	1	-1E+10	1	-1E+10	1	-1E+10	1
4901784	38	C	07/19/2016	10:49	-132.570	44.886	0	960.00	0	3.4580	0	34.3640	0	27.341	0	950.021	0	11.8	4	3.7	4	-1E+10	1	-1E+10	1	-1E+10	1	-1E+10	1	-1E+10	1	-1E+10	1
4901784	38	C	07/19/2016	10:49	-132.570	44.886	0	964.60	0	3.4440	0	34.3650	0	27.343	0	954.562	0	11.8	4	3.7	4	-1E+10	1	-1E+10	1	-1E+10	1	-1E+10	1	-1E+10	1	-1E+10	1
4901784	38	C	07/19/2016	10:49	-132.570	44.886	0	970.00	0	3.4370	0	34.3690	0	27.347	0	959.894	0	11.7	4	3.7	4	-1E+10	1	-1E+10	1	-1E+10	1	-1E+10	1	-1E+10	1	-1E+10	1
4901784	38	C	07/19/2016	10:49	-132.570	44.886	0	974.70	0	3.4510	0	34.3730	0	27.349	0	964.534	0	11.7	4	3.7	4	-1E+10	1	-1E+10	1	-1E+10	1	-1E+10	1	-1E+10	1	-1E+10	1
4901784	38	C	07/19/2016	10:49	-132.570	44.886	0	979.40	0	3.4500	0	34.3750	0	27.351	0	969.174	0	11.8	4	3.7	4	-1E+10	1	-1E+10	1	-1E+10	1	-1E+10	1	-1E+10	1	-1E+10	1
4901784	38	C	07/19/2016	10:49	-132.570	44.886	0	985.00	0	3.4330	0	34.3770	0	27.354	0	974.702	0	11.9	4	3.7	4	-1E+10	1	-1E+10	1	-1E+10	1	-1E+10	1	-1E+10	1	-1E+10	1
4901784	38	C	07/19/2016	10:49	-132.570	44.886	0	989.80	0	3.4240	0	34.3780	0	27.356	0	979.441	0	11.9	4	3.7	4	-1E+10	1	-1E+10	1	-1E+10	1	-1E+10	1	-1E+10	1	-1E+10	1
4901784	38	C	07/19/2016	10:49	-132.570	44.886	0	994.60	0	3.4250	0	34.3820	0	27.359	0	984.180	0	12.0	4	3.7	4	-1E+10	1	-1E+10	1	-1E+10	1	-1E+10	1	-1E+10	1	-1E+10	1
4901784	38	C	07/19/2016	10:49	-132.570	44.886	0	1000.20	0	3.4080	0	34.3850	0	27.363	0	989.708	0	12.2	4	3.8	4	-1E+10	1	-1E+10	1	-1E+10	1	-1E+10	1	-1E+10	1	-1E+10	1
4901784	38	C	07/19/2016	10:49	-132.570	44.886	0	1005.00	0	3.3940	0	34.3870	0	27.366	0	994.446	0	12.4	4	3.9	4	-1E+10	1	-1E+10	1	-1E+10	1	-1E+10	1	-1E+10	1	-1E+10	1
4901784	38	C	07/19/2016	10:49	-132.570	44.886	0	1009.80	0	3.3820	0	34.3900	0	27.369	0	999.184	0	12.3	4	3.8	4	-1E+10	1	-1E+10	1	-1E+10	1	-1E+10	1	-1E+10	1	-1E+10	1
4901784	38	C	07/19/2016	10:49	-132.570	44.886	0	1015.50	0	3.3670	0	34.3920	0	27.372	0	1004.811	0	12.5	4	3.9	4	-1E+10	1	-1E+10	1	-1E+10	1	-1E+10	1	-1E+10	1	-1E+10	1
4901784	38	C	07/19/2016	10:49	-132.570	44.886	0	1020.30	0	3.3580	0	34.3970	0	27.377	0	1009.548	0	12.8	4	4.0	4	-1E+10	1	-1E+10	1	-1E+10	1	-1E+10	1	-1E+10	1	-1E+10	1
4901784	38	C	07/19/2016	10:49	-132.570	44.886	0	1025.10	0	3.3580	0	34.4020	0	27.381	0	1014.286	0	13.2	4	4.1	4	-1E+10	1	-1E+10	1	-1E+10	1	-1E+10	1	-1E+10	1	-1E+10	1
4901784	38	C	07/19/2016	10:49	-132.570	44.886	0	1029.90	0	3.3620	0	34.4050	0	27.383	0	1019.024	0	13.4	4	4.2	4	-1E+10	1	-1E+10	1	-1E+10	1	-1E+10	1	-1E+10	1	-1E+10	1
4901784	38	C	07/19/2016	10:49	-132.570	44.886	0	1034.70	0	3.3700	0	34.4090	0	27.386	0	1023.762	0	13.6	4	4.2	4	-1E+10	1	-1E+10	1	-1E+10	1	-1E+10	1	-1E+10	1	-1E+10	1
4901784	38	C	07/19/2016	10:49	-132.570	44.886	0	1040.40	0	3.3700	0	34.4100	0	27.387	0	1029.387	0	13.8	4	4.3	4	-1E+10	1	-1E+10	1	-1E+10	1	-1E+10	1	-1E+10	1	-1E+10	1
4901784	38	C	07/19/2016	10:49	-132.570	44.886	0	1045.10	0	3.3710	0	34.4130	0	27.389	0	1034.026	0	13.9	4	4.3	4	-1E+10	1	-1E+10	1	-1E+10	1	-1E+10	1	-1E+10	1	-1E+10	1
4901784	38	C	07/19/2016	10:49	-132.570	44.886	0	1049.90	0	3.3600	0	34.4130	0	27.390	0	1038.763	0	13.9	4	4.3	4	-1E+10	1	-1E+10	1	-1E+10	1	-1E+10	1	-1E+10	1	-1E+10	1
4901784	38	C	07/19/2016	10:49	-132.570	44.886	0	1054.70	0	3.3350	0	34.4130	0	27.392	0	1043.500	0	13.8	4	4.3	4	-1E+10	1	-1E+10	1	-1E+10	1	-1E+10	1	-1E+10	1	-1E+10	1
4901784	38	C	07/19/2016	10:49	-132.570	44.886	0	1059.50	0	3.3400	0	34.4160	0	27.394	0	1048.237	0	13.9	4	4.3	4	-1E+10	1	-1E+10	1	-1E+10	1	-1E+10	1	-1E+10	1	-1E+10	1
4901784	38	C	07/19/2016	10:49	-132.570	44.886	0	1064.90	0	3.3510	0	34.4200	0	27.397	0	1053.567	0	14.2	4	4.4	4	-1E+10	1	-1E+10	1	-1E+10	1	-1E+10	1	-1E+10	1	-1E+10	1
4901784	38	C	07/19/2016	10:49	-132.570	44.886	0	1070.00	0	3.3530	0	34.4210	0	27.397	0	1058.599	0	14.7	4	4.6	4	-1E+10	1	-1E+10	1	-1E+10	1	-1E+10	1	-1E+10	1	-1E+10	1
4901784	38	C	07/19/2016	10:49	-132.570	44.886	0	1075.80	0	3.3430	0	34.4230	0	27.400	0	1064.323	0	15.2	4	4.7	4	-1E+10	1	-1E+10	1	-1E+10	1	-1E+10	1	-1E+10	1	-1E+10	1
4901784	38	C	07/19/2016	10:49	-132.570	44.886	0	1080.80	0	3.3250	0	34.4230	0	27.402	0	1069.257	0	15.1	4	4.7	4	-1E+10	1	-1E+10	1	-1E+10	1	-1E+10	1	-1E+10	1	-1E+10	1
4901784	38	C	07/19/2016	10:49	-132.570	44.886	0	1085.70	0	3.3140	0	34.4230	0	27.403	0	1074.092	0	15.0	4	4.7	4	-1E+10	1	-1E+10	1	-1E+10	1	-1E+10	1	-1E+10	1	-1E+10	1
4901784	38	C	07/19/2016	10:49	-132.570	44.886	0	1090.60	0	3.2930	0	34.4240	0	27.405	0	1078.927	0	14.9	4	4.6	4	-1E+10	1	-1E+10	1	-1E+10	1	-1E+10	1	-1E+10	1	-1E+10	1
4901784	38	C	07/19/2016	10:49	-132.570	44.886	0	1095.60	0	3.2890	0	34.4250	0	27.407	0	1083.860	0	15.1	4	4.7	4	-1E+10	1	-1E+10	1	-1E+10	1	-1E+10	1	-1E+10	1	-1E+10	1
4901784	38	C	07/19/2016	10:49	-132.570	44.886	0	1100.60	0	3.2890	0	34.4260	0	27.407	0	1088.794	0	15.3	4	4.8	4	-1E+10	1	-1E+10	1	-1E+10	1	-1E+10	1	-1E+10	1	-1E+10	1
4901784	38	C	07/19/2016	10:49	-132.570	44.886	0	1105.50	0	3.2820	0	34.4290	0	27.411	0	1093.629	0	15.7	4	4.9	4	-1E+10	1	-1E+10	1	-1E+10	1	-1E+10	1	-1E+10	1	-1E+10	1
4901784	38	C	07/19/2016	10:49	-132.570	44.886	0	1110.40	0	3.2770	0	34.4310	0	27.413	0	1098.463	0	15.9	4	5.0	4	-1E+10	1	-1E+10	1	-1E+10	1	-1E+10	1	-1E+10	1	-1E+10	1
4901784	38	C	07/19/2016	10:49	-132.570	44.886	0	1115.30	0	3.2770	0	34.4330	0	27.414	0	1103.298	0	16.1	4	5.0	4	-1E+10	1	-1E+10	1	-1E+10	1	-1E+10	1	-1E+10	1	-1E+10	1
4901784	38	C	07/19/2016	10:49	-132.570	44.886	0	1120.20	0	3.2490	0	34.4330	0	27.417	0	1108.132	0	16.1	4	5.0	4	-1E+10	1	-1E+10	1	-1E+10	1	-1E+10	1	-1E+10	1	-1E+10	1
4901784	38	C	07/19/2016	10:49	-132.570	44.886	0	1125.20	0	3.2400	0	34.4360	0	27.420	0	1113.065	0	16.7	4	5.2	4	-1E+10	1	-1E+10	1	-1E+10	1	-1E+10	1	-1E+10	1	-1E+10	1
4901784	38	C	07/19/2016	10:49	-132.570	44.886	0	1130.50	0	3.2460	0	34.4420	0	27.424	0	1118.294	0	17.3	4	5.4	4	-1E+10	1	-1E+10	1	-1E+10	1	-1E+10	1	-1E+10	1	-1E+10	1
4901784	38	C	07/19/2016	10:49	-132.570	44.886	0	1135.10	0	3.2550	0	34.4440	0	27.425	0	1122.832	0	17.6	4	5.5	4	-1E+10	1	-1E+10	1	-1E+10	1	-1E+10	1	-1E+10	1	-1E+10	1
4901784	38	C	07/19/2016	10:49	-132.570	44.886	0	1139.50	0	3.2500	0	34.4450	0	27.426	0	1127.172	0	17.7	4	5.5	4	-1E+10	1	-1E+10	1	-1E+10	1	-1E+10	1	-1E+10	1	-1E+10	1
4901784	38	C	07/19/2016	10:49	-132.570	44.886	0	1145.00	0	3.2510	0	34.4470	0	27.428	0	1132.598	0	17.9	4	5.6	4	-1E+10	1	-1E+10	1	-1E+10	1	-1E+10	1	-1E+10	1	-1E+10	1
4901784	38	C	07/19/2016	10:49	-132.570	44.886	0	1150.40	0	3.2420	0	34.4460	0	27.428	0	1137.925	0	17.8	4	5.5	4	-1E+10	1	-1E+10	1	-1E+10	1	-1E+10	1	-1E+10	1	-1E+10	1
4901784	38	C	07/19/2016	10:49	-132.570	44.886	0	1154.90	0	3.2330	0	34.4470	0	27.430	0	1142.364	0	17.8	4	5.5	4	-1E+10	1	-1E+10	1	-1E+10	1	-1E+10	1	-1E+10	1	-1E+10	1
4901784	38	C	07/19/2016	10:49	-132.570	44.886	0	1159.40	0	3.2270	0	34.4470	0	27.430	0	1146.803	0	17.9	4	5.6	4	-1E+10	1	-1E+10	1	-1E+10	1	-1E+10	1	-1E+10	1	-1E+10	1
4901784	38	C	07/19/2016	10:49	-132.570	44.886	0	1164.80	0	3.2220	0	34.4490	0	27.432	0	1152.129	0	18.1	4	5.6	4	-1E+10	1	-1E+10	1	-1E+10	1	-1E+10	1	-1E+10	1	-1E+10	1
4901784	38	C	07/19/2016	10:49	-132.570	44.886	0	1170.10	0	3.2110	0	34.4510	0	27.435	0	1157.357	0	18.1	4	5.6	4	-1E+10	1	-1E+10	1	-1E+10	1	-1E+10	1	-1E+10	1	-1E+10	1
4901784	38	C	07/19/2016	10:49	-132.570	44.886	0	1175.50	0	3.1900	0	34.4520	0	27.438	0	1162.683	0	18.1	4	5.6	4	-1E+10	1	-1E+10	1	-1E+10	1	-1E+10	1	-1E+10	1	-1E+10	1
4901784	38	C	07/19/2016	10:49	-132.570	44.886	0	1180.00	0	3.1810	0	34.4520	0	27.439	0	1167.122	0	18.2	4	5.6	4	-1E+10	1	-1E+10	1	-1E+10	1	-1E+10	1	-1E+10	1	-1E+10	1
4901784	38	C	07/19/2016	10:49	-132.570	44.886	0	1184.50	0	3.1670	0	34.4530	0	27.441	0	1171.560	0	18.1	4	5.6	4	-1E+10	1	-1E+10	1	-1E+10	1	-1E+10	1	-1E+10	1	-1E+10	1
4901784	38	C	07/19/2016	10:49	-132.570	44.886	0	1190.00	0	3.1460	0	34.4530	0	27.443	0	1176.985	0	18.1	4	5.6	4	-1E+10	1	-1E+10	1	-1E+10	1	-1E+10	1	-1E+10	1	-1E+10	1
4901784	38	C	07/19/2016	10:49	-132.570	44.886	0	1195.60	0	3.1250	0	34.4550	0	27.446	0	1182.508	0	18.2	4	5.6	4	-1E+10	1	-1E+10	1	-1E+10	1	-1E+10	1	-1E+10	1	-1E+10	1
4901784	38	C	07/19/2016	10:49	-132.570	44.886	0	1200.10	0	3.1210	0	34.4560	0	27.448	0	1186.946	0	18.3	4	5.7	4	-1E+10	1	-1E+10	1	-1E+10	1	-1E+10	1	-1E+10	1	-1E+10	1
4901784	38	C	07/19/2016	10:49	-132.570	44.886	0	1204.80	0	3.1170	0	34.4570	0	27.449	0	1191.581	0	18.5	4	5.7	4	-1E+10	1	-1E+10	1	-1E+10	1	-1E+10	1	-1E+10	1	-1E+10	1
4901784	38	C	07/19/2016	10:49	-132.570	44.886	0	1210.30	0	3.1070	0	34.4580	0	27.450	0	1197.005	0	18.6	4	5.8	4	-1E+10	1	-1E+10	1	-1E+10	1	-1E+10	1	-1E+10	1	-1E+10	1
4901784	38	C	07/19/2016	10:49	-132.570	44.886	0	1214.90	0	3.1010	0	34.4600	0	27.453	0	1201.541	0	18.7	4	5.8	4	-1E+10	1	-1E+10	1	-1E+10	1	-1E+10	1	-1E+10	1	-1E+10	1
4901784	38	C	07/19/2016	10:49	-132.570	44.886	0	1219.60	0	3.0960	0	34.4610	0	27.454	0	1206.176	0	18.9	4	5.8	4	-1E+10	1	-1E+10	1	-1E+10	1	-1E+10	1	-1E+10	1	-1E+10	1
4901784	38	C	07/19/2016	10:49	-132.570	44.886	0	1225.30	0	3.0850	0	34.4620	0	27.456	0	1211.797	0	18.9	4	5.9	4	-1E+10	1	-1E+10	1	-1E+10	1	-1E+10	1	-1E+10	1	-1E+10	1
4901784	38	C	07/19/2016	10:49	-132.570	44.886	0	1230.00	0	3.0790	0	34.4620	0	27.456	0	1216.432	0	19.1	4	5.9	4	-1E+10	1	-1E+10	1	-1E+10	1	-1E+10	1	-1E+10	1	-1E+10	1
4901784	38	C	07/19/2016	10:49	-132.570	44.886	0	1234.80	0	3.0690	0	34.4640	0	27.459	0	1221.165	0	19.3	4	6.0	4	-1E+10	1	-1E+10	1	-1E+10	1	-1E+10	1	-1E+10	1	-1E+10	1
4901784	38	C	07/19/2016	10:49	-132.570	44.886	0	1240.60	0	3.0600	0	34.4650	0	27.461	0	1226.884	0	19.5	4	6.0	4	-1E+10	1	-1E+10	1	-1E+10	1	-1E+10	1	-1E+10	1	-1E+10	1
4901784	38	C	07/19/2016	10:49	-132.570	44.886	0	1245.40	0	3.0420	0	34.4680	0	27.465	0	1231.617	0	19.8	4	6.1	4	-1E+10	1	-1E+10	1	-1E+10	1	-1E+10	1	-1E+10	1	-1E+10	1
4901784	38	C	07/19/2016	10:49	-132.570	44.886	0	1250.20	0	3.0300	0	34.4700	0	27.467	0	1236.349	0	20.0	4	6.2	4	-1E+10	1	-1E+10	1	-1E+10	1	-1E+10	1	-1E+10	1	-1E+10	1
4901784	38	C	07/19/2016	10:49	-132.570	44.886	0	1254.90	0	3.0190	0	34.4710	0	27.469	0	1240.984	0	20.2	4	6.2	4	-1E+10	1	-1E+10	1	-1E+10	1	-1E+10	1	-1E+10	1	-1E+10	1
4901784	38	C	07/19/2016	10:49	-132.570	44.886	0	1259.30	0	3.0130	0	34.4720	0	27.470	0	1245.322	0	20.3	4	6.3	4	-1E+10	1	-1E+10	1	-1E+10	1	-1E+10	1	-1E+10	1	-1E+10	1
4901784	38	C	07/19/2016	10:49	-132.570	44.886	0	1264.50	0	3.0050	0	34.4730	0	27.472	0	1250.449	0	20.5	4	6.3	4	-1E+10	1	-1E+10	1	-1E+10	1	-1E+10	1	-1E+10	1	-1E+10	1
4901784	38	C	07/19/2016	10:49	-132.570	44.886	0	1269.90	0	2.9930	0	34.4750	0	27.475	0	1255.772	0	20.7	4	6.4	4	-1E+10	1	-1E+10	1	-1E+10	1	-1E+10	1	-1E+10	1	-1E+10	1
4901784	38	C	07/19/2016	10:49	-132.570	44.886	0	1275.30	0	2.9850	0	34.4770	0	27.477	0	1261.096	0	21.0	4	6.5	4	-1E+10	1	-1E+10	1	-1E+10	1	-1E+10	1	-1E+10	1	-1E+10	1
4901784	38	C	07/19/2016	10:49	-132.570	44.886	0	1280.70	0	2.9780	0	34.4780	0	27.479	0	1266.420	0	21.2	4	6.5	4	-1E+10	1	-1E+10	1	-1E+10	1	-1E+10	1	-1E+10	1	-1E+10	1
4901784	38	C	07/19/2016	10:49	-132.570	44.886	0	1285.20	0	2.9730	0	34.4790	0	27.480	0	1270.856	0	21.4	4	6.6	4	-1E+10	1	-1E+10	1	-1E+10	1	-1E+10	1	-1E+10	1	-1E+10	1
4901784	38	C	07/19/2016	10:49	-132.570	44.886	0	1290.00	0	2.9690	0	34.4810	0	27.482	0	1275.588	0	21.6	4	6.7	4	-1E+10	1	-1E+10	1	-1E+10	1	-1E+10	1	-1E+10	1	-1E+10	1
4901784	38	C	07/19/2016	10:49	-132.570	44.886	0	1295.00	0	2.9540	0	34.4820	0	27.484	0	1280.517	0	21.6	4	6.7	4	-1E+10	1	-1E+10	1	-1E+10	1	-1E+10	1	-1E+10	1	-1E+10	1
4901784	38	C	07/19/2016	10:49	-132.570	44.886	0	1299.80	0	2.9430	0	34.4830	0	27.486	0	1285.249	0	21.6	4	6.7	4	-1E+10	1	-1E+10	1	-1E+10	1	-1E+10	1	-1E+10	1	-1E+10	1
4901784	38	C	07/19/2016	10:49	-132.570	44.886	0	1304.60	0	2.9350	0	34.4830	0	27.487	0	1289.980	0	21.7	4	6.7	4	-1E+10	1	-1E+10	1	-1E+10	1	-1E+10	1	-1E+10	1	-1E+10	1
4901784	38	C	07/19/2016	10:49	-132.570	44.886	0	1309.50	0	2.9250	0	34.4830	0	27.487	0	1294.810	0	21.8	4	6.7	4	-1E+10	1	-1E+10	1	-1E+10	1	-1E+10	1	-1E+10	1	-1E+10	1
4901784	38	C	07/19/2016	10:49	-132.570	44.886	0	1314.40	0	2.9190	0	34.4850	0	27.490	0	1299.640	0	22.1	4	6.8	4	-1E+10	1	-1E+10	1	-1E+10	1	-1E+10	1	-1E+10	1	-1E+10	1
4901784	38	C	07/19/2016	10:49	-132.570	44.886	0	1319.40	0	2.9140	0	34.4850	0	27.490	0	1304.569	0	22.4	4	6.9	4	-1E+10	1	-1E+10	1	-1E+10	1	-1E+10	1	-1E+10	1	-1E+10	1
4901784	38	C	07/19/2016	10:49	-132.570	44.886	0	1324.40	0	2.9120	0	34.4880	0	27.493	0	1309.497	0	22.8	4	7.0	4	-1E+10	1	-1E+10	1	-1E+10	1	-1E+10	1	-1E+10	1	-1E+10	1
4901784	38	C	07/19/2016	10:49	-132.570	44.886	0	1329.50	0	2.9070	0	34.4900	0	27.495	0	1314.523	0	23.0	4	7.1	4	-1E+10	1	-1E+10	1	-1E+10	1	-1E+10	1	-1E+10	1	-1E+10	1
4901784	38	C	07/19/2016	10:49	-132.570	44.886	0	1334.70	0	2.9040	0	34.4910	0	27.496	0	1319.649	0	23.2	4	7.2	4	-1E+10	1	-1E+10	1	-1E+10	1	-1E+10	1	-1E+10	1	-1E+10	1
4901784	38	C	07/19/2016	10:49	-132.570	44.886	0	1339.90	0	2.8970	0	34.4920	0	27.497	0	1324.774	0	23.4	4	7.2	4	-1E+10	1	-1E+10	1	-1E+10	1	-1E+10	1	-1E+10	1	-1E+10	1
4901784	38	C	07/19/2016	10:49	-132.570	44.886	0	1345.10	0	2.8910	0	34.4930	0	27.499	0	1329.899	0	23.5	4	7.2	4	-1E+10	1	-1E+10	1	-1E+10	1	-1E+10	1	-1E+10	1	-1E+10	1
4901784	38	C	07/19/2016	10:49	-132.570	44.886	0	1350.40	0	2.8800	0	34.4940	0	27.500	0	1335.122	0	23.7	4	7.3	4	-1E+10	1	-1E+10	1	-1E+10	1	-1E+10	1	-1E+10	1	-1E+10	1
4901784	38	C	07/19/2016	10:49	-132.570	44.886	0	1355.60	0	2.8700	0	34.4950	0	27.502	0	1340.247	0	23.9	4	7.4	4	-1E+10	1	-1E+10	1	-1E+10	1	-1E+10	1	-1E+10	1	-1E+10	1
4901784	38	C	07/19/2016	10:49	-132.570	44.886	0	1360.10	0	2.8620	0	34.4960	0	27.504	0	1344.681	0	24.1	4	7.4	4	-1E+10	1	-1E+10	1	-1E+10	1	-1E+10	1	-1E+10	1	-1E+10	1
4901784	38	C	07/19/2016	10:49	-132.570	44.886	0	1364.50	0	2.8520	0	34.4970	0	27.505	0	1349.017	0	24.2	4	7.4	4	-1E+10	1	-1E+10	1	-1E+10	1	-1E+10	1	-1E+10	1	-1E+10	1
4901784	38	C	07/19/2016	10:49	-132.570	44.886	0	1369.90	0	2.8330	0	34.4980	0	27.508	0	1354.339	0	24.1	4	7.4	4	-1E+10	1	-1E+10	1	-1E+10	1	-1E+10	1	-1E+10	1	-1E+10	1
4901784	38	C	07/19/2016	10:49	-132.570	44.886	0	1375.30	0	2.8110	0	34.4970	0	27.509	0	1359.660	0	23.7	4	7.3	4	-1E+10	1	-1E+10	1	-1E+10	1	-1E+10	1	-1E+10	1	-1E+10	1
4901784	38	C	07/19/2016	10:49	-132.570	44.886	0	1379.90	0	2.7830	0	34.4950	0	27.510	0	1364.193	0	23.5	4	7.2	4	-1E+10	1	-1E+10	1	-1E+10	1	-1E+10	1	-1E+10	1	-1E+10	1
4901784	38	C	07/19/2016	10:49	-132.570	44.886	0	1384.40	0	2.7590	0	34.4950	0	27.512	0	1368.627	0	23.6	4	7.2	4	-1E+10	1	-1E+10	1	-1E+10	1	-1E+10	1	-1E+10	1	-1E+10	1
4901784	38	C	07/19/2016	10:49	-132.570	44.886	0	1389.90	0	2.7500	0	34.4960	0	27.514	0	1374.046	0	23.7	4	7.3	4	-1E+10	1	-1E+10	1	-1E+10	1	-1E+10	1	-1E+10	1	-1E+10	1
4901784	38	C	07/19/2016	10:49	-132.570	44.886	0	1395.40	0	2.7480	0	34.4970	0	27.515	0	1379.466	0	23.8	4	7.3	4	-1E+10	1	-1E+10	1	-1E+10	1	-1E+10	1	-1E+10	1	-1E+10	1
4901784	38	C	07/19/2016	10:49	-132.570	44.886	0	1400.00	0	2.7470	0	34.4970	0	27.515	0	1383.998	0	23.9	4	7.3	4	-1E+10	1	-1E+10	1	-1E+10	1	-1E+10	1	-1E+10	1	-1E+10	1
4901784	38	C	07/19/2016	10:49	-132.570	44.886	0	1404.80	0	2.7410	0	34.4980	0	27.516	0	1388.727	0	24.1	4	7.4	4	-1E+10	1	-1E+10	1	-1E+10	1	-1E+10	1	-1E+10	1	-1E+10	1
4901784	38	C	07/19/2016	10:49	-132.570	44.886	0	1410.00	0	2.7300	0	34.4990	0	27.518	0	1393.851	0	24.2	4	7.4	4	-1E+10	1	-1E+10	1	-1E+10	1	-1E+10	1	-1E+10	1	-1E+10	1
4901784	38	C	07/19/2016	10:49	-132.570	44.886	0	1414.90	0	2.7270	0	34.5000	0	27.519	0	1398.678	0	24.3	4	7.5	4	-1E+10	1	-1E+10	1	-1E+10	1	-1E+10	1	-1E+10	1	-1E+10	1
4901784	38	C	07/19/2016	10:49	-132.570	44.886	0	1419.80	0	2.7260	0	34.5000	0	27.519	0	1403.506	0	24.4	4	7.5	4	-1E+10	1	-1E+10	1	-1E+10	1	-1E+10	1	-1E+10	1	-1E+10	1
4901784	38	C	07/19/2016	10:49	-132.570	44.886	0	1424.70	0	2.7210	0	34.5000	0	27.520	0	1408.333	0	24.5	4	7.5	4	-1E+10	1	-1E+10	1	-1E+10	1	-1E+10	1	-1E+10	1	-1E+10	1
4901784	38	C	07/19/2016	10:49	-132.570	44.886	0	1429.60	0	2.7150	0	34.5010	0	27.521	0	1413.161	0	24.7	4	7.6	4	-1E+10	1	-1E+10	1	-1E+10	1	-1E+10	1	-1E+10	1	-1E+10	1
4901784	38	C	07/19/2016	10:49	-132.570	44.886	0	1434.50	0	2.7100	0	34.5010	0	27.521	0	1417.988	0	24.8	4	7.6	4	-1E+10	1	-1E+10	1	-1E+10	1	-1E+10	1	-1E+10	1	-1E+10	1
4901784	38	C	07/19/2016	10:49	-132.570	44.886	0	1439.40	0	2.7030	0	34.5020	0	27.523	0	1422.815	0	25.0	4	7.7	4	-1E+10	1	-1E+10	1	-1E+10	1	-1E+10	1	-1E+10	1	-1E+10	1
4901784	38	C	07/19/2016	10:49	-132.570	44.886	0	1444.30	0	2.6920	0	34.5030	0	27.525	0	1427.642	0	25.2	4	7.7	4	-1E+10	1	-1E+10	1	-1E+10	1	-1E+10	1	-1E+10	1	-1E+10	1
4901784	38	C	07/19/2016	10:49	-132.570	44.886	0	1450.00	0	2.6770	0	34.5040	0	27.527	0	1433.257	0	25.4	4	7.8	4	-1E+10	1	-1E+10	1	-1E+10	1	-1E+10	1	-1E+10	1	-1E+10	1
4901784	38	C	07/19/2016	10:49	-132.570	44.886	0	1455.70	0	2.6670	0	34.5050	0	27.528	0	1438.872	0	25.5	4	7.8	4	-1E+10	1	-1E+10	1	-1E+10	1	-1E+10	1	-1E+10	1	-1E+10	1
4901784	38	C	07/19/2016	10:49	-132.570	44.886	0	1460.70	0	2.6590	0	34.5050	0	27.529	0	1443.797	0	25.5	4	7.8	4	-1E+10	1	-1E+10	1	-1E+10	1	-1E+10	1	-1E+10	1	-1E+10	1
4901784	38	C	07/19/2016	10:49	-132.570	44.886	0	1465.70	0	2.6490	0	34.5060	0	27.531	0	1448.722	0	25.5	4	7.8	4	-1E+10	1	-1E+10	1	-1E+10	1	-1E+10	1	-1E+10	1	-1E+10	1
4901784	38	C	07/19/2016	10:49	-132.570	44.886	0	1470.70	0	2.6450	0	34.5050	0	27.530	0	1453.647	0	25.4	4	7.8	4	-1E+10	1	-1E+10	1	-1E+10	1	-1E+10	1	-1E+10	1	-1E+10	1
4901784	38	C	07/19/2016	10:49	-132.570	44.886	0	1475.70	0	2.6300	0	34.5050	0	27.532	0	1458.571	0	25.1	4	7.7	4	-1E+10	1	-1E+10	1	-1E+10	1	-1E+10	1	-1E+10	1	-1E+10	1
4901784	38	C	07/19/2016	10:49	-132.570	44.886	0	1480.80	0	2.6060	0	34.5040	0	27.533	0	1463.595	0	24.9	4	7.6	4	-1E+10	1	-1E+10	1	-1E+10	1	-1E+10	1	-1E+10	1	-1E+10	1
4901784	38	C	07/19/2016	10:49	-132.570	44.886	0	1485.00	0	2.5980	0	34.5040	0	27.534	0	1467.731	0	25.0	4	7.6	4	-1E+10	1	-1E+10	1	-1E+10	1	-1E+10	1	-1E+10	1	-1E+10	1
4901784	38	C	07/19/2016	10:49	-132.570	44.886	0	1489.20	0	2.5950	0	34.5040	0	27.534	0	1471.868	0	25.0	4	7.7	4	-1E+10	1	-1E+10	1	-1E+10	1	-1E+10	1	-1E+10	1	-1E+10	1
4901784	38	C	07/19/2016	10:49	-132.570	44.886	0	1494.40	0	2.5910	0	34.5050	0	27.535	0	1476.989	0	25.1	4	7.7	4	-1E+10	1	-1E+10	1	-1E+10	1	-1E+10	1	-1E+10	1	-1E+10	1
4901784	38	C	07/19/2016	10:49	-132.570	44.886	0	1499.60	0	2.5880	0	34.5050	0	27.535	0	1482.110	0	25.3	4	7.7	4	-1E+10	1	-1E+10	1	-1E+10	1	-1E+10	1	-1E+10	1	-1E+10	1
4901784	38	C	07/19/2016	10:49	-132.570	44.886	0	1504.80	0	2.5800	0	34.5060	0	27.537	0	1487.231	0	25.5	4	7.8	4	-1E+10	1	-1E+10	1	-1E+10	1	-1E+10	1	-1E+10	1	-1E+10	1
4901784	38	C	07/19/2016	10:49	-132.570	44.886	0	1510.00	0	2.5710	0	34.5060	0	27.538	0	1492.352	0	25.7	4	7.9	4	-1E+10	1	-1E+10	1	-1E+10	1	-1E+10	1	-1E+10	1	-1E+10	1
4901784	38	C	07/19/2016	10:49	-132.570	44.886	0	1515.30	0	2.5650	0	34.5070	0	27.539	0	1497.572	0	26.0	4	7.9	4	-1E+10	1	-1E+10	1	-1E+10	1	-1E+10	1	-1E+10	1	-1E+10	1
4901784	38	C	07/19/2016	10:49	-132.570	44.886	0	1520.50	0	2.5550	0	34.5080	0	27.541	0	1502.692	0	26.4	4	8.1	4	-1E+10	1	-1E+10	1	-1E+10	1	-1E+10	1	-1E+10	1	-1E+10	1
4901784	38	C	07/19/2016	10:49	-132.570	44.886	0	1525.00	0	2.5460	0	34.5090	0	27.542	0	1507.124	0	26.8	4	8.2	4	-1E+10	1	-1E+10	1	-1E+10	1	-1E+10	1	-1E+10	1	-1E+10	1
4901784	38	C	07/19/2016	10:49	-132.570	44.886	0	1529.40	0	2.5380	0	34.5110	0	27.545	0	1511.456	0	27.2	4	8.3	4	-1E+10	1	-1E+10	1	-1E+10	1	-1E+10	1	-1E+10	1	-1E+10	1
4901784	38	C	07/19/2016	10:49	-132.570	44.886	0	1534.70	0	2.5270	0	34.5130	0	27.547	0	1516.675	0	27.6	4	8.4	4	-1E+10	1	-1E+10	1	-1E+10	1	-1E+10	1	-1E+10	1	-1E+10	1
4901784	38	C	07/19/2016	10:49	-132.570	44.886	0	1540.10	0	2.5110	0	34.5140	0	27.549	0	1521.992	0	27.8	4	8.5	4	-1E+10	1	-1E+10	1	-1E+10	1	-1E+10	1	-1E+10	1	-1E+10	1
4901784	38	C	07/19/2016	10:49	-132.570	44.886	0	1545.40	0	2.4950	0	34.5150	0	27.551	0	1527.211	0	28.1	4	8.6	4	-1E+10	1	-1E+10	1	-1E+10	1	-1E+10	1	-1E+10	1	-1E+10	1
4901784	38	C	07/19/2016	10:49	-132.570	44.886	0	1549.90	0	2.4880	0	34.5160	0	27.553	0	1531.642	0	28.3	4	8.6	4	-1E+10	1	-1E+10	1	-1E+10	1	-1E+10	1	-1E+10	1	-1E+10	1
4901784	38	C	07/19/2016	10:49	-132.570	44.886	0	1554.40	0	2.4790	0	34.5160	0	27.554	0	1536.072	0	28.5	4	8.7	4	-1E+10	1	-1E+10	1	-1E+10	1	-1E+10	1	-1E+10	1	-1E+10	1
4901784	38	C	07/19/2016	10:49	-132.570	44.886	0	1559.80	0	2.4640	0	34.5180	0	27.557	0	1541.389	0	28.8	4	8.8	4	-1E+10	1	-1E+10	1	-1E+10	1	-1E+10	1	-1E+10	1	-1E+10	1
4901784	38	C	07/19/2016	10:49	-132.570	44.886	0	1565.30	0	2.4580	0	34.5190	0	27.558	0	1546.804	0	29.2	4	8.9	4	-1E+10	1	-1E+10	1	-1E+10	1	-1E+10	1	-1E+10	1	-1E+10	1
4901784	38	C	07/19/2016	10:49	-132.570	44.886	0	1569.80	0	2.4530	0	34.5200	0	27.559	0	1551.234	0	29.5	4	9.0	4	-1E+10	1	-1E+10	1	-1E+10	1	-1E+10	1	-1E+10	1	-1E+10	1
4901784	38	C	07/19/2016	10:49	-132.570	44.886	0	1574.40	0	2.4490	0	34.5200	0	27.559	0	1555.763	0	30.0	4	9.1	4	-1E+10	1	-1E+10	1	-1E+10	1	-1E+10	1	-1E+10	1	-1E+10	1
4901784	38	C	07/19/2016	10:49	-132.570	44.886	0	1579.90	0	2.4380	0	34.5220	0	27.562	0	1561.177	0	30.6	4	9.3	4	-1E+10	1	-1E+10	1	-1E+10	1	-1E+10	1	-1E+10	1	-1E+10	1
4901784	38	C	07/19/2016	10:49	-132.570	44.886	0	1585.40	0	2.4180	0	34.5240	0	27.565	0	1566.592	0	31.0	4	9.4	4	-1E+10	1	-1E+10	1	-1E+10	1	-1E+10	1	-1E+10	1	-1E+10	1
4901784	38	C	07/19/2016	10:49	-132.570	44.886	0	1590.00	0	2.4120	0	34.5250	0	27.567	0	1571.120	0	31.3	4	9.5	4	-1E+10	1	-1E+10	1	-1E+10	1	-1E+10	1	-1E+10	1	-1E+10	1
4901784	38	C	07/19/2016	10:49	-132.570	44.886	0	1594.70	0	2.4040	0	34.5260	0	27.568	0	1575.747	0	31.5	4	9.6	4	-1E+10	1	-1E+10	1	-1E+10	1	-1E+10	1	-1E+10	1	-1E+10	1
4901784	38	C	07/19/2016	10:49	-132.570	44.886	0	1600.30	0	2.3930	0	34.5270	0	27.570	0	1581.260	0	31.9	4	9.7	4	-1E+10	1	-1E+10	1	-1E+10	1	-1E+10	1	-1E+10	1	-1E+10	1
4901784	38	C	07/19/2016	10:49	-132.570	44.886	0	1605.00	0	2.3830	0	34.5280	0	27.571	0	1585.886	0	32.2	4	9.8	4	-1E+10	1	-1E+10	1	-1E+10	1	-1E+10	1	-1E+10	1	-1E+10	1
4901784	38	C	07/19/2016	10:49	-132.570	44.886	0	1609.70	0	2.3760	0	34.5290	0	27.573	0	1590.512	0	32.5	4	9.9	4	-1E+10	1	-1E+10	1	-1E+10	1	-1E+10	1	-1E+10	1	-1E+10	1
4901784	38	C	07/19/2016	10:49	-132.570	44.886	0	1615.20	0	2.3570	0	34.5310	0	27.576	0	1595.926	0	32.9	4	10.0	4	-1E+10	1	-1E+10	1	-1E+10	1	-1E+10	1	-1E+10	1	-1E+10	1
4901784	38	C	07/19/2016	10:49	-132.570	44.886	0	1620.60	0	2.3520	0	34.5320	0	27.577	0	1601.241	0	33.2	4	10.1	4	-1E+10	1	-1E+10	1	-1E+10	1	-1E+10	1	-1E+10	1	-1E+10	1
4901784	38	C	07/19/2016	10:49	-132.570	44.886	0	1625.40	0	2.3510	0	34.5320	0	27.577	0	1605.966	0	33.4	4	10.2	4	-1E+10	1	-1E+10	1	-1E+10	1	-1E+10	1	-1E+10	1	-1E+10	1
4901784	38	C	07/19/2016	10:49	-132.570	44.886	0	1630.30	0	2.3430	0	34.5330	0	27.579	0	1610.789	0	33.9	4	10.3	4	-1E+10	1	-1E+10	1	-1E+10	1	-1E+10	1	-1E+10	1	-1E+10	1
4901784	38	C	07/19/2016	10:49	-132.570	44.886	0	1635.10	0	2.3300	0	34.5340	0	27.581	0	1615.513	0	34.3	4	10.4	4	-1E+10	1	-1E+10	1	-1E+10	1	-1E+10	1	-1E+10	1	-1E+10	1
4901784	38	C	07/19/2016	10:49	-132.570	44.886	0	1640.10	0	2.3190	0	34.5360	0	27.583	0	1620.434	0	34.7	4	10.6	4	-1E+10	1	-1E+10	1	-1E+10	1	-1E+10	1	-1E+10	1	-1E+10	1
4901784	38	C	07/19/2016	10:49	-132.570	44.886	0	1645.00	0	2.3120	0	34.5370	0	27.585	0	1625.256	0	35.1	4	10.7	4	-1E+10	1	-1E+10	1	-1E+10	1	-1E+10	1	-1E+10	1	-1E+10	1
4901784	38	C	07/19/2016	10:49	-132.570	44.886	0	1650.10	0	2.3030	0	34.5370	0	27.585	0	1630.275	0	35.5	4	10.8	4	-1E+10	1	-1E+10	1	-1E+10	1	-1E+10	1	-1E+10	1	-1E+10	1
4901784	38	C	07/19/2016	10:49	-132.570	44.886	0	1655.10	0	2.2900	0	34.5390	0	27.588	0	1635.196	0	36.0	4	10.9	4	-1E+10	1	-1E+10	1	-1E+10	1	-1E+10	1	-1E+10	1	-1E+10	1
4901784	38	C	07/19/2016	10:49	-132.570	44.886	0	1660.10	0	2.2720	0	34.5410	0	27.591	0	1640.117	0	36.6	4	11.1	4	-1E+10	1	-1E+10	1	-1E+10	1	-1E+10	1	-1E+10	1	-1E+10	1
4901784	38	C	07/19/2016	10:49	-132.570	44.886	0	1665.20	0	2.2680	0	34.5420	0	27.592	0	1645.135	0	36.7	4	11.2	4	-1E+10	1	-1E+10	1	-1E+10	1	-1E+10	1	-1E+10	1	-1E+10	1
4901784	38	C	07/19/2016	10:49	-132.570	44.886	0	1670.20	0	2.2650	0	34.5430	0	27.593	0	1650.056	0	36.9	4	11.2	4	-1E+10	1	-1E+10	1	-1E+10	1	-1E+10	1	-1E+10	1	-1E+10	1
4901784	38	C	07/19/2016	10:49	-132.570	44.886	0	1675.30	0	2.2610	0	34.5430	0	27.594	0	1655.074	0	37.1	4	11.3	4	-1E+10	1	-1E+10	1	-1E+10	1	-1E+10	1	-1E+10	1	-1E+10	1
4901784	38	C	07/19/2016	10:49	-132.570	44.886	0	1680.50	0	2.2560	0	34.5440	0	27.595	0	1660.191	0	37.3	4	11.3	4	-1E+10	1	-1E+10	1	-1E+10	1	-1E+10	1	-1E+10	1	-1E+10	1
4901784	38	C	07/19/2016	10:49	-132.570	44.886	0	1685.70	0	2.2520	0	34.5440	0	27.595	0	1665.308	0	37.5	4	11.4	4	-1E+10	1	-1E+10	1	-1E+10	1	-1E+10	1	-1E+10	1	-1E+10	1
4901784	38	C	07/19/2016	10:49	-132.570	44.886	0	1690.00	0	2.2480	0	34.5450	0	27.596	0	1669.539	0	37.8	4	11.5	4	-1E+10	1	-1E+10	1	-1E+10	1	-1E+10	1	-1E+10	1	-1E+10	1
4901784	38	C	07/19/2016	10:49	-132.570	44.886	0	1694.40	0	2.2460	0	34.5450	0	27.597	0	1673.868	0	38.2	4	11.6	4	-1E+10	1	-1E+10	1	-1E+10	1	-1E+10	1	-1E+10	1	-1E+10	1
4901784	38	C	07/19/2016	10:49	-132.570	44.886	0	1699.60	0	2.2330	0	34.5470	0	27.599	0	1678.985	0	38.7	4	11.7	4	-1E+10	1	-1E+10	1	-1E+10	1	-1E+10	1	-1E+10	1	-1E+10	1
4901784	38	C	07/19/2016	10:49	-132.570	44.886	0	1705.00	0	2.2220	0	34.5480	0	27.601	0	1684.298	0	39.2	4	11.9	4	-1E+10	1	-1E+10	1	-1E+10	1	-1E+10	1	-1E+10	1	-1E+10	1
4901784	38	C	07/19/2016	10:49	-132.570	44.886	0	1710.30	0	2.2140	0	34.5500	0	27.603	0	1689.512	0	39.6	4	12.0	4	-1E+10	1	-1E+10	1	-1E+10	1	-1E+10	1	-1E+10	1	-1E+10	1
4901784	38	C	07/19/2016	10:49	-132.570	44.886	0	1715.70	0	2.2090	0	34.5500	0	27.604	0	1694.825	0	39.9	4	12.1	4	-1E+10	1	-1E+10	1	-1E+10	1	-1E+10	1	-1E+10	1	-1E+10	1
4901784	38	C	07/19/2016	10:49	-132.570	44.886	0	1720.10	0	2.2020	0	34.5520	0	27.606	0	1699.154	0	40.1	4	12.2	4	-1E+10	1	-1E+10	1	-1E+10	1	-1E+10	1	-1E+10	1	-1E+10	1
4901784	38	C	07/19/2016	10:49	-132.570	44.886	0	1724.70	0	2.1990	0	34.5520	0	27.606	0	1703.680	0	40.2	4	12.2	4	-1E+10	1	-1E+10	1	-1E+10	1	-1E+10	1	-1E+10	1	-1E+10	1
4901784	38	C	07/19/2016	10:49	-132.570	44.886	0	1730.10	0	2.1990	0	34.5520	0	27.606	0	1708.992	0	40.3	4	12.2	4	-1E+10	1	-1E+10	1	-1E+10	1	-1E+10	1	-1E+10	1	-1E+10	1
4901784	38	C	07/19/2016	10:49	-132.570	44.886	0	1735.50	0	2.1980	0	34.5520	0	27.606	0	1714.304	0	40.6	4	12.3	4	-1E+10	1	-1E+10	1	-1E+10	1	-1E+10	1	-1E+10	1	-1E+10	1
4901784	38	C	07/19/2016	10:49	-132.570	44.886	0	1740.00	0	2.1940	0	34.5520	0	27.607	0	1718.731	0	41.0	4	12.4	4	-1E+10	1	-1E+10	1	-1E+10	1	-1E+10	1	-1E+10	1	-1E+10	1
4901784	38	C	07/19/2016	10:49	-132.570	44.886	0	1744.70	0	2.1840	0	34.5540	0	27.609	0	1723.355	0	41.3	4	12.5	4	-1E+10	1	-1E+10	1	-1E+10	1	-1E+10	1	-1E+10	1	-1E+10	1
4901784	38	C	07/19/2016	10:49	-132.570	44.886	0	1750.30	0	2.1790	0	34.5550	0	27.610	0	1728.863	0	41.6	4	12.6	4	-1E+10	1	-1E+10	1	-1E+10	1	-1E+10	1	-1E+10	1	-1E+10	1
4901784	38	C	07/19/2016	10:49	-132.570	44.886	0	1754.90	0	2.1740	0	34.5560	0	27.612	0	1733.388	0	41.9	4	12.7	4	-1E+10	1	-1E+10	1	-1E+10	1	-1E+10	1	-1E+10	1	-1E+10	1
4901784	38	C	07/19/2016	10:49	-132.570	44.886	0	1759.80	0	2.1650	0	34.5570	0	27.613	0	1738.208	0	42.2	4	12.8	4	-1E+10	1	-1E+10	1	-1E+10	1	-1E+10	1	-1E+10	1	-1E+10	1
4901784	38	C	07/19/2016	10:49	-132.570	44.886	0	1765.00	0	2.1620	0	34.5570	0	27.613	0	1743.323	0	42.5	4	12.9	4	-1E+10	1	-1E+10	1	-1E+10	1	-1E+10	1	-1E+10	1	-1E+10	1
4901784	38	C	07/19/2016	10:49	-132.570	44.886	0	1769.80	0	2.1570	0	34.5580	0	27.615	0	1748.044	0	43.1	4	13.0	4	-1E+10	1	-1E+10	1	-1E+10	1	-1E+10	1	-1E+10	1	-1E+10	1
4901784	38	C	07/19/2016	10:49	-132.570	44.886	0	1774.70	0	2.1440	0	34.5600	0	27.617	0	1752.864	0	43.6	4	13.2	4	-1E+10	1	-1E+10	1	-1E+10	1	-1E+10	1	-1E+10	1	-1E+10	1
4901784	38	C	07/19/2016	10:49	-132.570	44.886	0	1779.60	0	2.1400	0	34.5610	0	27.618	0	1757.683	0	43.9	4	13.3	4	-1E+10	1	-1E+10	1	-1E+10	1	-1E+10	1	-1E+10	1	-1E+10	1
4901784	38	C	07/19/2016	10:49	-132.570	44.886	0	1784.60	0	2.1350	0	34.5620	0	27.620	0	1762.601	0	44.3	4	13.4	4	-1E+10	1	-1E+10	1	-1E+10	1	-1E+10	1	-1E+10	1	-1E+10	1
4901784	38	C	07/19/2016	10:49	-132.570	44.886	0	1789.50	0	2.1260	0	34.5630	0	27.621	0	1767.420	0	44.5	4	13.5	4	-1E+10	1	-1E+10	1	-1E+10	1	-1E+10	1	-1E+10	1	-1E+10	1
4901784	38	C	07/19/2016	10:49	-132.570	44.886	0	1794.50	0	2.1250	0	34.5630	0	27.621	0	1772.338	0	44.7	4	13.5	4	-1E+10	1	-1E+10	1	-1E+10	1	-1E+10	1	-1E+10	1	-1E+10	1
4901784	38	C	07/19/2016	10:49	-132.570	44.886	0	1799.50	0	2.1200	0	34.5640	0	27.623	0	1777.255	0	45.1	4	13.6	4	-1E+10	1	-1E+10	1	-1E+10	1	-1E+10	1	-1E+10	1	-1E+10	1
4901784	38	C	07/19/2016	10:49	-132.570	44.886	0	1804.60	0	2.1150	0	34.5650	0	27.624	0	1782.271	0	45.4	4	13.7	4	-1E+10	1	-1E+10	1	-1E+10	1	-1E+10	1	-1E+10	1	-1E+10	1
4901784	38	C	07/19/2016	10:49	-132.570	44.886	0	1809.70	0	2.1100	0	34.5650	0	27.624	0	1787.286	0	45.5	4	13.8	4	-1E+10	1	-1E+10	1	-1E+10	1	-1E+10	1	-1E+10	1	-1E+10	1
4901784	38	C	07/19/2016	10:49	-132.570	44.886	0	1814.70	0	2.1080	0	34.5660	0	27.625	0	1792.203	0	45.7	4	13.8	4	-1E+10	1	-1E+10	1	-1E+10	1	-1E+10	1	-1E+10	1	-1E+10	1
4901784	38	C	07/19/2016	10:49	-132.570	44.886	0	1819.80	0	2.1040	0	34.5660	0	27.625	0	1797.218	0	45.9	4	13.9	4	-1E+10	1	-1E+10	1	-1E+10	1	-1E+10	1	-1E+10	1	-1E+10	1
4901784	38	C	07/19/2016	10:49	-132.570	44.886	0	1824.90	0	2.1030	0	34.5660	0	27.626	0	1802.233	0	46.1	4	13.9	4	-1E+10	1	-1E+10	1	-1E+10	1	-1E+10	1	-1E+10	1	-1E+10	1
4901784	38	C	07/19/2016	10:49	-132.570	44.886	0	1830.10	0	2.1000	0	34.5670	0	27.627	0	1807.347	0	46.4	4	14.0	4	-1E+10	1	-1E+10	1	-1E+10	1	-1E+10	1	-1E+10	1	-1E+10	1
4901784	38	C	07/19/2016	10:49	-132.570	44.886	0	1835.30	0	2.0940	0	34.5680	0	27.628	0	1812.460	0	46.8	4	14.1	4	-1E+10	1	-1E+10	1	-1E+10	1	-1E+10	1	-1E+10	1	-1E+10	1
4901784	38	C	07/19/2016	10:49	-132.570	44.886	0	1840.50	0	2.0900	0	34.5690	0	27.629	0	1817.573	0	47.1	4	14.2	4	-1E+10	1	-1E+10	1	-1E+10	1	-1E+10	1	-1E+10	1	-1E+10	1
4901784	38	C	07/19/2016	10:49	-132.570	44.886	0	1844.90	0	2.0870	0	34.5690	0	27.629	0	1821.899	0	47.5	4	14.3	4	-1E+10	1	-1E+10	1	-1E+10	1	-1E+10	1	-1E+10	1	-1E+10	1
4901784	38	C	07/19/2016	10:49	-132.570	44.886	0	1849.30	0	2.0800	0	34.5700	0	27.631	0	1826.226	0	47.9	4	14.5	4	-1E+10	1	-1E+10	1	-1E+10	1	-1E+10	1	-1E+10	1	-1E+10	1
4901784	38	C	07/19/2016	10:49	-132.570	44.886	0	1854.50	0	2.0770	0	34.5710	0	27.632	0	1831.338	0	48.3	4	14.6	4	-1E+10	1	-1E+10	1	-1E+10	1	-1E+10	1	-1E+10	1	-1E+10	1
4901784	38	C	07/19/2016	10:49	-132.570	44.886	0	1859.80	0	2.0660	0	34.5730	0	27.634	0	1836.549	0	48.9	4	14.8	4	-1E+10	1	-1E+10	1	-1E+10	1	-1E+10	1	-1E+10	1	-1E+10	1
4901784	38	C	07/19/2016	10:49	-132.570	44.886	0	1865.20	0	2.0560	0	34.5740	0	27.636	0	1841.858	0	49.3	4	14.9	4	-1E+10	1	-1E+10	1	-1E+10	1	-1E+10	1	-1E+10	1	-1E+10	1
4901784	38	C	07/19/2016	10:49	-132.570	44.886	0	1870.50	0	2.0520	0	34.5750	0	27.637	0	1847.069	0	49.5	4	14.9	4	-1E+10	1	-1E+10	1	-1E+10	1	-1E+10	1	-1E+10	1	-1E+10	1
4901784	38	C	07/19/2016	10:49	-132.570	44.886	0	1875.00	0	2.0510	0	34.5750	0	27.637	0	1851.493	0	49.6	4	15.0	4	-1E+10	1	-1E+10	1	-1E+10	1	-1E+10	1	-1E+10	1	-1E+10	1
4901784	38	C	07/19/2016	10:49	-132.570	44.886	0	1879.40	0	2.0500	0	34.5750	0	27.637	0	1855.819	0	49.8	4	15.0	4	-1E+10	1	-1E+10	1	-1E+10	1	-1E+10	1	-1E+10	1	-1E+10	1
4901784	38	C	07/19/2016	10:49	-132.570	44.886	0	1884.80	0	2.0470	0	34.5760	0	27.638	0	1861.127	0	50.1	4	15.1	4	-1E+10	1	-1E+10	1	-1E+10	1	-1E+10	1	-1E+10	1	-1E+10	1
4901784	38	C	07/19/2016	10:49	-132.570	44.886	0	1890.10	0	2.0420	0	34.5760	0	27.639	0	1866.337	0	50.4	4	15.2	4	-1E+10	1	-1E+10	1	-1E+10	1	-1E+10	1	-1E+10	1	-1E+10	1
4901784	38	C	07/19/2016	10:49	-132.570	44.886	0	1895.60	0	2.0370	0	34.5770	0	27.640	0	1871.744	0	50.8	4	15.3	4	-1E+10	1	-1E+10	1	-1E+10	1	-1E+10	1	-1E+10	1	-1E+10	1
4901784	38	C	07/19/2016	10:49	-132.570	44.886	0	1900.10	0	2.0330	0	34.5780	0	27.641	0	1876.168	0	51.1	4	15.4	4	-1E+10	1	-1E+10	1	-1E+10	1	-1E+10	1	-1E+10	1	-1E+10	1
4901784	38	C	07/19/2016	10:49	-132.570	44.886	0	1904.90	0	2.0270	0	34.5790	0	27.642	0	1880.886	0	51.4	4	15.5	4	-1E+10	1	-1E+10	1	-1E+10	1	-1E+10	1	-1E+10	1	-1E+10	1
4901784	38	C	07/19/2016	10:49	-132.570	44.886	0	1910.10	0	2.0230	0	34.5790	0	27.643	0	1885.997	0	51.7	4	15.6	4	-1E+10	1	-1E+10	1	-1E+10	1	-1E+10	1	-1E+10	1	-1E+10	1
4901784	38	C	07/19/2016	10:49	-132.570	44.886	0	1914.80	0	2.0190	0	34.5800	0	27.644	0	1890.617	0	51.9	4	15.7	4	-1E+10	1	-1E+10	1	-1E+10	1	-1E+10	1	-1E+10	1	-1E+10	1
4901784	38	C	07/19/2016	10:49	-132.570	44.886	0	1919.70	0	2.0150	0	34.5810	0	27.645	0	1895.434	0	52.2	4	15.7	4	-1E+10	1	-1E+10	1	-1E+10	1	-1E+10	1	-1E+10	1	-1E+10	1
4901784	38	C	07/19/2016	10:49	-132.570	44.886	0	1924.50	0	2.0120	0	34.5810	0	27.645	0	1900.152	0	52.5	4	15.8	4	-1E+10	1	-1E+10	1	-1E+10	1	-1E+10	1	-1E+10	1	-1E+10	1
4901784	38	C	07/19/2016	10:49	-132.570	44.886	0	1929.40	0	2.0090	0	34.5810	0	27.646	0	1904.968	0	52.8	4	15.9	4	-1E+10	1	-1E+10	1	-1E+10	1	-1E+10	1	-1E+10	1	-1E+10	1
4901784	38	C	07/19/2016	10:49	-132.570	44.886	0	1935.00	0	2.0020	0	34.5830	0	27.648	0	1910.472	0	53.2	4	16.0	4	-1E+10	1	-1E+10	1	-1E+10	1	-1E+10	1	-1E+10	1	-1E+10	1
4901784	38	C	07/19/2016	10:49	-132.570	44.886	0	1940.70	0	1.9970	0	34.5840	0	27.649	0	1916.074	0	53.4	4	16.1	4	-1E+10	1	-1E+10	1	-1E+10	1	-1E+10	1	-1E+10	1	-1E+10	1
4901784	38	C	07/19/2016	10:49	-132.570	44.886	0	1945.70	0	1.9960	0	34.5840	0	27.649	0	1920.988	0	53.6	4	16.2	4	-1E+10	1	-1E+10	1	-1E+10	1	-1E+10	1	-1E+10	1	-1E+10	1
4901784	38	C	07/19/2016	10:49	-132.570	44.886	0	1950.60	0	1.9940	0	34.5840	0	27.649	0	1925.803	0	53.8	4	16.2	4	-1E+10	1	-1E+10	1	-1E+10	1	-1E+10	1	-1E+10	1	-1E+10	1
4901784	38	C	07/19/2016	10:49	-132.570	44.886	0	1955.70	0	1.9920	0	34.5840	0	27.649	0	1930.815	0	54.0	4	16.3	4	-1E+10	1	-1E+10	1	-1E+10	1	-1E+10	1	-1E+10	1	-1E+10	1
4901784	38	C	07/19/2016	10:49	-132.570	44.886	0	1960.70	0	1.9880	0	34.5850	0	27.651	0	1935.729	0	54.2	4	16.3	4	-1E+10	1	-1E+10	1	-1E+10	1	-1E+10	1	-1E+10	1	-1E+10	1
4901784	38	C	07/19/2016	10:49	-132.570	44.886	0	1965.00	0	1.9860	0	34.5860	0	27.652	0	1939.955	0	54.4	4	16.4	4	-1E+10	1	-1E+10	1	-1E+10	1	-1E+10	1	-1E+10	1	-1E+10	1
4901784	38	C	07/19/2016	10:49	-132.570	44.886	0	1969.20	0	1.9830	0	34.5860	0	27.652	0	1944.082	0	54.6	4	16.5	4	-1E+10	1	-1E+10	1	-1E+10	1	-1E+10	1	-1E+10	1	-1E+10	1
4901784	38	C	07/19/2016	10:49	-132.570	44.886	0	1974.30	0	1.9800	0	34.5870	0	27.653	0	1949.094	0	54.9	4	16.5	4	-1E+10	1	-1E+10	1	-1E+10	1	-1E+10	1	-1E+10	1	-1E+10	1
4901784	38	C	07/19/2016	10:49	-132.570	44.886	0	1979.40	0	1.9770	0	34.5870	0	27.653	0	1954.105	0	55.1	4	16.6	4	-1E+10	1	-1E+10	1	-1E+10	1	-1E+10	1	-1E+10	1	-1E+10	1
4901784	38	C	07/19/2016	10:49	-132.570	44.886	0	1984.50	0	1.9760	0	34.5870	0	27.653	0	1959.117	0	55.3	4	16.7	4	-1E+10	1	-1E+10	1	-1E+10	1	-1E+10	1	-1E+10	1	-1E+10	1
4901784	38	C	07/19/2016	10:49	-132.570	44.886	0	1989.60	0	1.9740	0	34.5880	0	27.654	0	1964.128	0	55.5	4	16.7	4	-1E+10	1	-1E+10	1	-1E+10	1	-1E+10	1	-1E+10	1	-1E+10	1
4901784	38	C	07/19/2016	10:49	-132.570	44.886	0	1994.60	0	1.9720	0	34.5890	0	27.655	0	1969.041	0	55.7	4	16.8	4	-1E+10	1	-1E+10	1	-1E+10	1	-1E+10	1	-1E+10	1	-1E+10	1
4901784	38	C	07/19/2016	10:49	-132.570	44.886	0	1999.80	0	1.9710	0	34.5880	0	27.654	0	1974.150	0	55.8	4	16.8	4	-1E+10	1	-1E+10	1	-1E+10	1	-1E+10	1	-1E+10	1	-1E+10	1
4901784	38	C	07/19/2016	10:49	-132.570	44.886	0	2004.80	0	1.9680	0	34.5890	0	27.656	0	1979.063	0	56.1	4	16.9	4	-1E+10	1	-1E+10	1	-1E+10	1	-1E+10	1	-1E+10	1	-1E+10	1
4901784	38	C	07/19/2016	10:49	-132.570	44.886	0	2009.90	0	1.9640	0	34.5900	0	27.657	0	1984.074	0	56.4	4	17.0	4	-1E+10	1	-1E+10	1	-1E+10	1	-1E+10	1	-1E+10	1	-1E+10	1
4901784	38	C	07/19/2016	10:49	-132.570	44.886	0	2015.20	0	1.9610	0	34.5900	0	27.657	0	1989.281	0	56.6	4	17.0	4	-1E+10	1	-1E+10	1	-1E+10	1	-1E+10	1	-1E+10	1	-1E+10	1
4901784	38	C	07/19/2016	10:49	-132.570	44.886	0	2020.00	0	1.9610	0	34.5900	0	27.657	0	1993.997	0	56.7	4	17.1	4	-1E+10	1	-1E+10	1	-1E+10	1	-1E+10	1	-1E+10	1	-1E+10	1
4901784	38	C	07/19/2016	10:49	-132.570	44.886	0																										
4901784	39	C	07/29/2016	10:43	-132.560	44.938	0	2.60	0	16.9910	0	32.6940	0	23.748	0	2.579	0	238.5	4	98.5	4	-1E+10	1	-1E+10	1	-1E+10	1	-1E+10	1	-1E+10	1	-1E+10	1
4901784	39	C	07/29/2016	10:43	-132.560	44.938	0	3.90	0	16.9910	0	32.6910	0	23.746	0	3.868	0	238.5	4	98.5	4	-1E+10	1	-1E+10	1	-1E+10	1	-1E+10	1	-1E+10	1	-1E+10	1
4901784	39	C	07/29/2016	10:43	-132.560	44.938	0	5.20	0	16.9870	0	32.6880	0	23.745	0	5.158	0	238.5	4	98.4	4	-1E+10	1	-1E+10	1	-1E+10	1	-1E+10	1	-1E+10	1	-1E+10	1
4901784	39	C	07/29/2016	10:43	-132.560	44.938	0	6.70	0	16.9490	0	32.6810	0	23.748	0	6.646	0	238.8	4	98.5	4	-1E+10	1	-1E+10	1	-1E+10	1	-1E+10	1	-1E+10	1	-1E+10	1
4901784	39	C	07/29/2016	10:43	-132.560	44.938	0	8.30	0	16.5640	0	32.6900	0	23.844	0	8.233	0	239.6	4	98.1	4	-1E+10	1	-1E+10	1	-1E+10	1	-1E+10	1	-1E+10	1	-1E+10	1
4901784	39	C	07/29/2016	10:43	-132.560	44.938	0	9.90	0	16.1230	0	32.6930	0	23.947	0	9.819	0	241.8	4	98.2	4	-1E+10	1	-1E+10	1	-1E+10	1	-1E+10	1	-1E+10	1	-1E+10	1
4901784	39	C	07/29/2016	10:43	-132.560	44.938	0	11.70	0	15.9920	0	32.6850	0	23.971	0	11.605	0	242.5	4	98.2	4	-1E+10	1	-1E+10	1	-1E+10	1	-1E+10	1	-1E+10	1	-1E+10	1
4901784	39	C	07/29/2016	10:43	-132.560	44.938	0	14.10	0	15.7700	0	32.6820	0	24.018	0	13.985	0	243.3	4	98.1	4	-1E+10	1	-1E+10	1	-1E+10	1	-1E+10	1	-1E+10	1	-1E+10	1
4901784	39	C	07/29/2016	10:43	-132.560	44.938	0	16.00	0	15.6160	0	32.6750	0	24.047	0	15.870	0	243.8	4	98.0	4	-1E+10	1	-1E+10	1	-1E+10	1	-1E+10	1	-1E+10	1	-1E+10	1
4901784	39	C	07/29/2016	10:43	-132.560	44.938	0	17.60	0	15.4090	0	32.6730	0	24.091	0	17.456	0	244.6	4	97.9	4	-1E+10	1	-1E+10	1	-1E+10	1	-1E+10	1	-1E+10	1	-1E+10	1
4901784	39	C	07/29/2016	10:43	-132.560	44.938	0	19.20	0	15.2610	0	32.6680	0	24.120	0	19.043	0	245.5	4	98.0	4	-1E+10	1	-1E+10	1	-1E+10	1	-1E+10	1	-1E+10	1	-1E+10	1
4901784	39	C	07/29/2016	10:43	-132.560	44.938	0	20.80	0	15.2080	0	32.6670	0	24.130	0	20.630	0	245.7	4	98.0	4	-1E+10	1	-1E+10	1	-1E+10	1	-1E+10	1	-1E+10	1	-1E+10	1
4901784	39	C	07/29/2016	10:43	-132.560	44.938	0	22.40	0	15.1540	0	32.6630	0	24.139	0	22.217	0	246.0	4	98.0	4	-1E+10	1	-1E+10	1	-1E+10	1	-1E+10	1	-1E+10	1	-1E+10	1
4901784	39	C	07/29/2016	10:43	-132.560	44.938	0	24.20	0	15.0060	0	32.6680	0	24.175	0	24.002	0	246.6	4	97.9	4	-1E+10	1	-1E+10	1	-1E+10	1	-1E+10	1	-1E+10	1	-1E+10	1
4901784	39	C	07/29/2016	10:43	-132.560	44.938	0	24.50	0	14.9830	0	32.6610	0	24.174	0	24.300	0	247.3	4	98.2	4	-1E+10	1	-1E+10	1	-1E+10	1	-1E+10	1	-1E+10	1	-1E+10	1
4901784	39	C	07/29/2016	10:43	-132.560	44.938	0	25.80	0	14.9810	0	32.6560	0	24.171	0	25.589	0	247.9	4	98.4	4	-1E+10	1	-1E+10	1	-1E+10	1	-1E+10	1	-1E+10	1	-1E+10	1
4901784	39	C	07/29/2016	10:43	-132.560	44.938	0	27.00	0	14.9560	0	32.6500	0	24.172	0	26.779	0	248.6	4	98.6	4	-1E+10	1	-1E+10	1	-1E+10	1	-1E+10	1	-1E+10	1	-1E+10	1
4901784	39	C	07/29/2016	10:43	-132.560	44.938	0	28.10	0	14.8840	0	32.6440	0	24.183	0	27.870	0	250.5	4	99.2	4	-1E+10	1	-1E+10	1	-1E+10	1	-1E+10	1	-1E+10	1	-1E+10	1
4901784	39	C	07/29/2016	10:43	-132.560	44.938	0	29.30	0	14.7000	0	32.6390	0	24.218	0	29.060	0	252.5	4	99.7	4	-1E+10	1	-1E+10	1	-1E+10	1	-1E+10	1	-1E+10	1	-1E+10	1
4901784	39	C	07/29/2016	10:43	-132.560	44.938	0	30.60	0	14.0060	0	32.6880	0	24.401	0	30.350	0	256.4	4	99.8	4	-1E+10	1	-1E+10	1	-1E+10	1	-1E+10	1	-1E+10	1	-1E+10	1
4901784	39	C	07/29/2016	10:43	-132.560	44.938	0	32.00	0	13.2710	0	32.7340	0	24.586	0	31.738	0	261.6	4	100.4	4	-1E+10	1	-1E+10	1	-1E+10	1	-1E+10	1	-1E+10	1	-1E+10	1
4901784	39	C	07/29/2016	10:43	-132.560	44.938	0	33.40	0	12.9020	0	32.7520	0	24.673	0	33.126	0	263.3	4	100.3	4	-1E+10	1	-1E+10	1	-1E+10	1	-1E+10	1	-1E+10	1	-1E+10	1
4901784	39	C	07/29/2016	10:43	-132.560	44.938	0	34.90	0	12.3830	0	32.7830	0	24.797	0	34.614	0	264.3	4	99.6	4	-1E+10	1	-1E+10	1	-1E+10	1	-1E+10	1	-1E+10	1	-1E+10	1
4901784	39	C	07/29/2016	10:43	-132.560	44.938	0	36.50	0	11.8310	0	32.8200	0	24.929	0	36.201	0	266.7	4	99.4	4	-1E+10	1	-1E+10	1	-1E+10	1	-1E+10	1	-1E+10	1	-1E+10	1
4901784	39	C	07/29/2016	10:43	-132.560	44.938	0	38.10	0	11.5620	0	32.8330	0	24.989	0	37.787	0	265.9	4	98.6	4	-1E+10	1	-1E+10	1	-1E+10	1	-1E+10	1	-1E+10	1	-1E+10	1
4901784	39	C	07/29/2016	10:43	-132.560	44.938	0	39.70	0	11.4390	0	32.8320	0	25.010	0	39.374	0	263.7	4	97.5	4	-1E+10	1	-1E+10	1	-1E+10	1	-1E+10	1	-1E+10	1	-1E+10	1
4901784	39	C	07/29/2016	10:43	-132.560	44.938	0	41.20	0	11.0630	0	32.8410	0	25.085	0	40.862	0	261.6	4	96.0	4	-1E+10	1	-1E+10	1	-1E+10	1	-1E+10	1	-1E+10	1	-1E+10	1
4901784	39	C	07/29/2016	10:43	-132.560	44.938	0	42.80	0	10.7720	0	32.8480	0	25.141	0	42.448	0	260.6	4	95.0	4	-1E+10	1	-1E+10	1	-1E+10	1	-1E+10	1	-1E+10	1	-1E+10	1
4901784	39	C	07/29/2016	10:43	-132.560	44.938	0	44.40	0	10.5390	0	32.8620	0	25.193	0	44.035	0	259.8	4	94.3	4	-1E+10	1	-1E+10	1	-1E+10	1	-1E+10	1	-1E+10	1	-1E+10	1
4901784	39	C	07/29/2016	10:43	-132.560	44.938	0	46.00	0	10.4040	0	32.8580	0	25.213	0	45.622	0	259.8	4	94.0	4	-1E+10	1	-1E+10	1	-1E+10	1	-1E+10	1	-1E+10	1	-1E+10	1
4901784	39	C	07/29/2016	10:43	-132.560	44.938	0	47.60	0	10.3490	0	32.8540	0	25.219	0	47.208	0	258.6	4	93.4	4	-1E+10	1	-1E+10	1	-1E+10	1	-1E+10	1	-1E+10	1	-1E+10	1
4901784	39	C	07/29/2016	10:43	-132.560	44.938	0	49.20	0	10.1830	0	32.8560	0	25.249	0	48.795	0	258.5	4	93.1	4	-1E+10	1	-1E+10	1	-1E+10	1	-1E+10	1	-1E+10	1	-1E+10	1
4901784	39	C	07/29/2016	10:43	-132.560	44.938	0	50.90	0	10.1630	0	32.8640	0	25.258	0	50.481	0	257.6	4	92.7	4	-1E+10	1	-1E+10	1	-1E+10	1	-1E+10	1	-1E+10	1	-1E+10	1
4901784	39	C	07/29/2016	10:43	-132.560	44.938	0	52.50	0	10.1350	0	32.8690	0	25.267	0	52.068	0	257.0	4	92.4	4	-1E+10	1	-1E+10	1	-1E+10	1	-1E+10	1	-1E+10	1	-1E+10	1
4901784	39	C	07/29/2016	10:43	-132.560	44.938	0	54.10	0	10.1290	0	32.8830	0	25.279	0	53.654	0	256.4	4	92.2	4	-1E+10	1	-1E+10	1	-1E+10	1	-1E+10	1	-1E+10	1	-1E+10	1
4901784	39	C	07/29/2016	10:43	-132.560	44.938	0	55.80	0	10.1000	0	32.8810	0	25.282	0	55.340	0	256.0	4	92.0	4	-1E+10	1	-1E+10	1	-1E+10	1	-1E+10	1	-1E+10	1	-1E+10	1
4901784	39	C	07/29/2016	10:43	-132.560	44.938	0	57.50	0	10.0750	0	32.8800	0	25.286	0	57.026	0	255.6	4	91.8	4	-1E+10	1	-1E+10	1	-1E+10	1	-1E+10	1	-1E+10	1	-1E+10	1
4901784	39	C	07/29/2016	10:43	-132.560	44.938	0	59.20	0	10.0430	0	32.8890	0	25.298	0	58.711	0	255.1	4	91.6	4	-1E+10	1	-1E+10	1	-1E+10	1	-1E+10	1	-1E+10	1	-1E+10	1
4901784	39	C	07/29/2016	10:43	-132.560	44.938	0	60.80	0	9.9480	0	32.8850	0	25.311	0	60.298	0	255.2	4	91.4	4	-1E+10	1	-1E+10	1	-1E+10	1	-1E+10	1	-1E+10	1	-1E+10	1
4901784	39	C	07/29/2016	10:43	-132.560	44.938	0	62.50	0	9.9150	0	32.8970	0	25.326	0	61.984	0	255.0	4	91.3	4	-1E+10	1	-1E+10	1	-1E+10	1	-1E+10	1	-1E+10	1	-1E+10	1
4901784	39	C	07/29/2016	10:43	-132.560	44.938	0	64.20	0	9.9020	0	32.8980	0	25.329	0	63.669	0	254.7	4	91.2	4	-1E+10	1	-1E+10	1	-1E+10	1	-1E+10	1	-1E+10	1	-1E+10	1
4901784	39	C	07/29/2016	10:43	-132.560	44.938	0	66.00	0	9.9000	0	32.8980	0	25.329	0	65.454	0	254.4	4	91.0	4	-1E+10	1	-1E+10	1	-1E+10	1	-1E+10	1	-1E+10	1	-1E+10	1
4901784	39	C	07/29/2016	10:43	-132.560	44.938	0	67.70	0	9.8890	0	32.8970	0	25.330	0	67.140	0	254.0	4	90.9	4	-1E+10	1	-1E+10	1	-1E+10	1	-1E+10	1	-1E+10	1	-1E+10	1
4901784	39	C	07/29/2016	10:43	-132.560	44.938	0	69.40	0	9.7780	0	32.8980	0	25.349	0	68.825	0	253.9	4	90.6	4	-1E+10	1	-1E+10	1	-1E+10	1	-1E+10	1	-1E+10	1	-1E+10	1
4901784	39	C	07/29/2016	10:43	-132.560	44.938	0	71.40	0	9.7320	0	32.9010	0	25.359	0	70.809	0	253.6	4	90.5	4	-1E+10	1	-1E+10	1	-1E+10	1	-1E+10	1	-1E+10	1	-1E+10	1
4901784	39	C	07/29/2016	10:43	-132.560	44.938	0	71.90	0	9.7280	0	32.9030	0	25.361	0	71.304	0	253.5	4	90.4	4	-1E+10	1	-1E+10	1	-1E+10	1	-1E+10	1	-1E+10	1	-1E+10	1
4901784	39	C	07/29/2016	10:43	-132.560	44.938	0	73.40	0	9.7360	0	32.9080	0	25.364	0	72.792	0	252.7	4	90.1	4	-1E+10	1	-1E+10	1	-1E+10	1	-1E+10	1	-1E+10	1	-1E+10	1
4901784	39	C	07/29/2016	10:43	-132.560	44.938	0	74.80	0	9.7480	0	32.9140	0	25.367	0	74.180	0	251.9	4	89.9	4	-1E+10	1	-1E+10	1	-1E+10	1	-1E+10	1	-1E+10	1	-1E+10	1
4901784	39	C	07/29/2016	10:43	-132.560	44.938	0	76.30	0	9.7870	0	32.9390	0	25.380	0	75.667	0	250.8	4	89.6	4	-1E+10	1	-1E+10	1	-1E+10	1	-1E+10	1	-1E+10	1	-1E+10	1
4901784	39	C	07/29/2016	10:43	-132.560	44.938	0	77.80	0	9.7790	0	32.9510	0	25.391	0	77.154	0	250.2	4	89.3	4	-1E+10	1	-1E+10	1	-1E+10	1	-1E+10	1	-1E+10	1	-1E+10	1
4901784	39	C	07/29/2016	10:43	-132.560	44.938	0	79.30	0	9.7650	0	32.9590	0	25.399	0	78.642	0	249.5	4	89.1	4	-1E+10	1	-1E+10	1	-1E+10	1	-1E+10	1	-1E+10	1	-1E+10	1
4901784	39	C	07/29/2016	10:43	-132.560	44.938	0	80.80	0	9.7450	0	32.9670	0	25.409	0	80.129	0	248.6	4	88.7	4	-1E+10	1	-1E+10	1	-1E+10	1	-1E+10	1	-1E+10	1	-1E+10	1
4901784	39	C	07/29/2016	10:43	-132.560	44.938	0	82.40	0	9.7270	0	32.9790	0	25.421	0	81.715	0	247.7	4	88.4	4	-1E+10	1	-1E+10	1	-1E+10	1	-1E+10	1	-1E+10	1	-1E+10	1
4901784	39	C	07/29/2016	10:43	-132.560	44.938	0	84.00	0	9.7000	0	32.9870	0	25.432	0	83.302	0	246.6	4	88.0	4	-1E+10	1	-1E+10	1	-1E+10	1	-1E+10	1	-1E+10	1	-1E+10	1
4901784	39	C	07/29/2016	10:43	-132.560	44.938	0	85.60	0	9.7010	0	32.9980	0	25.440	0	84.888	0	246.0	4	87.7	4	-1E+10	1	-1E+10	1	-1E+10	1	-1E+10	1	-1E+10	1	-1E+10	1
4901784	39	C	07/29/2016	10:43	-132.560	44.938	0	87.20	0	9.6870	0	33.0030	0	25.447	0	86.474	0	244.6	4	87.2	4	-1E+10	1	-1E+10	1	-1E+10	1	-1E+10	1	-1E+10	1	-1E+10	1
4901784	39	C	07/29/2016	10:43	-132.560	44.938	0	88.80	0	9.6850	0	33.0090	0	25.452	0	88.061	0	243.4	4	86.8	4	-1E+10	1	-1E+10	1	-1E+10	1	-1E+10	1	-1E+10	1	-1E+10	1
4901784	39	C	07/29/2016	10:43	-132.560	44.938	0	90.40	0	9.6810	0	33.0170	0	25.459	0	89.647	0	241.7	4	86.2	4	-1E+10	1	-1E+10	1	-1E+10	1	-1E+10	1	-1E+10	1	-1E+10	1
4901784	39	C	07/29/2016	10:43	-132.560	44.938	0	92.00	0	9.6880	0	33.0400	0	25.475	0	91.233	0	239.7	4	85.5	4	-1E+10	1	-1E+10	1	-1E+10	1	-1E+10	1	-1E+10	1	-1E+10	1
4901784	39	C	07/29/2016	10:43	-132.560	44.938	0	93.70	0	9.6750	0	33.0520	0	25.487	0	92.919	0	237.6	4	84.7	4	-1E+10	1	-1E+10	1	-1E+10	1	-1E+10	1	-1E+10	1	-1E+10	1
4901784	39	C	07/29/2016	10:43	-132.560	44.938	0	95.40	0	9.6540	0	33.0820	0	25.514	0	94.604	0	234.9	4	83.8	4	-1E+10	1	-1E+10	1	-1E+10	1	-1E+10	1	-1E+10	1	-1E+10	1
4901784	39	C	07/29/2016	10:43	-132.560	44.938	0	97.10	0	9.5730	0	33.1040	0	25.544	0	96.290	0	233.1	4	83.0	4	-1E+10	1	-1E+10	1	-1E+10	1	-1E+10	1	-1E+10	1	-1E+10	1
4901784	39	C	07/29/2016	10:43	-132.560	44.938	0	98.90	0	9.5480	0	33.1210	0	25.562	0	98.074	0	231.0	4	82.2	4	-1E+10	1	-1E+10	1	-1E+10	1	-1E+10	1	-1E+10	1	-1E+10	1
4901784	39	C	07/29/2016	10:43	-132.560	44.938	0	102.20	0	9.5890	0	33.1440	0	25.573	0	101.346	0	226.0	4	80.5	4	-1E+10	1	-1E+10	1	-1E+10	1	-1E+10	1	-1E+10	1	-1E+10	1
4901784	39	C	07/29/2016	10:43	-132.560	44.938	0	105.20	0	9.5310	0	33.2060	0	25.631	0	104.320	0	220.4	4	78.4	4	-1E+10	1	-1E+10	1	-1E+10	1	-1E+10	1	-1E+10	1	-1E+10	1
4901784	39	C	07/29/2016	10:43	-132.560	44.938	0	107.40	0	9.4790	0	33.2550	0	25.678	0	106.501	0	216.8	4	77.1	4	-1E+10	1	-1E+10	1	-1E+10	1	-1E+10	1	-1E+10	1	-1E+10	1
4901784	39	C	07/29/2016	10:43	-132.560	44.938	0	109.70	0	9.4140	0	33.3050	0	25.727	0	108.781	0	213.0	4	75.7	4	-1E+10	1	-1E+10	1	-1E+10	1	-1E+10	1	-1E+10	1	-1E+10	1
4901784	39	C	07/29/2016	10:43	-132.560	44.938	0	112.90	0	9.3490	0	33.3840	0	25.800	0	111.954	0	209.6	4	74.4	4	-1E+10	1	-1E+10	1	-1E+10	1	-1E+10	1	-1E+10	1	-1E+10	1
4901784	39	C	07/29/2016	10:43	-132.560	44.938	0	115.30	0	9.3290	0	33.4200	0	25.831	0	114.333	0	207.3	4	73.6	4	-1E+10	1	-1E+10	1	-1E+10	1	-1E+10	1	-1E+10	1	-1E+10	1
4901784	39	C	07/29/2016	10:43	-132.560	44.938	0	117.80	0	9.3080	0	33.4410	0	25.851	0	116.811	0	204.7	4	72.6	4	-1E+10	1	-1E+10	1	-1E+10	1	-1E+10	1	-1E+10	1	-1E+10	1
4901784	39	C	07/29/2016	10:43	-132.560	44.938	0	120.30	0	9.2450	0	33.4970	0	25.905	0	119.289	0	201.3	4	71.3	4	-1E+10	1	-1E+10	1	-1E+10	1	-1E+10	1	-1E+10	1	-1E+10	1
4901784	39	C	07/29/2016	10:43	-132.560	44.938	0	122.80	0	9.1570	0	33.5570	0	25.966	0	121.768	0	198.8	4	70.4	4	-1E+10	1	-1E+10	1	-1E+10	1	-1E+10	1	-1E+10	1	-1E+10	1
4901784	39	C	07/29/2016	10:43	-132.560	44.938	0	125.30	0	9.0720	0	33.5950	0	26.009	0	124.246	0	196.6	4	69.5	4	-1E+10	1	-1E+10	1	-1E+10	1	-1E+10	1	-1E+10	1	-1E+10	1
4901784	39	C	07/29/2016	10:43	-132.560	44.938	0	127.80	0	8.9170	0	33.6420	0	26.070	0	126.724	0	195.3	4	68.8	4	-1E+10	1	-1E+10	1	-1E+10	1	-1E+10	1	-1E+10	1	-1E+10	1
4901784	39	C	07/29/2016	10:43	-132.560	44.938	0	130.30	0	8.8580	0	33.6840	0	26.112	0	129.202	0	194.4	4	68.4	4	-1E+10	1	-1E+10	1	-1E+10	1	-1E+10	1	-1E+10	1	-1E+10	1
4901784	39	C	07/29/2016	10:43	-132.560	44.938	0	132.10	0	8.8290	0	33.7160	0	26.142	0	130.987	0	194.0	4	68.2	4	-1E+10	1	-1E+10	1	-1E+10	1	-1E+10	1	-1E+10	1	-1E+10	1
4901784	39	C	07/29/2016	10:43	-132.560	44.938	0	134.70	0	8.8140	0	33.7720	0	26.188	0	133.564	0	193.3	4	68.0	4	-1E+10	1	-1E+10	1	-1E+10	1	-1E+10	1	-1E+10	1	-1E+10	1
4901784	39	C	07/29/2016	10:43	-132.560	44.938	0	137.40	0	8.8220	0	33.7990	0	26.208	0	136.240	0	192.8	4	67.8	4	-1E+10	1	-1E+10	1	-1E+10	1	-1E+10	1	-1E+10	1	-1E+10	1
4901784	39	C	07/29/2016	10:43	-132.560	44.938	0	140.10	0	8.7980	0	33.8170	0	26.226	0	138.916	0	192.3	4	67.6	4	-1E+10	1	-1E+10	1	-1E+10	1	-1E+10	1	-1E+10	1	-1E+10	1
4901784	39	C	07/29/2016	10:43	-132.560	44.938	0	142.80	0	8.7900	0	33.8270	0	26.235	0	141.593	0	191.8	4	67.4	4	-1E+10	1	-1E+10	1	-1E+10	1	-1E+10	1	-1E+10	1	-1E+10	1
4901784	39	C	07/29/2016	10:43	-132.560	44.938	0	144.60	0	8.7710	0	33.8440	0	26.252	0	143.377	0	191.5	4	67.3	4	-1E+10	1	-1E+10	1	-1E+10	1	-1E+10	1	-1E+10	1	-1E+10	1
4901784	39	C	07/29/2016	10:43	-132.560	44.938	0	147.30	0	8.7690	0	33.8470	0	26.254	0	146.053	0	191.1	4	67.2	4	-1E+10	1	-1E+10	1	-1E+10	1	-1E+10	1	-1E+10	1	-1E+10	1
4901784	39	C	07/29/2016	10:43	-132.560	44.938	0	149.90	0	8.7550	0	33.8660	0	26.271	0	148.630	0	190.5	4	67.0	4	-1E+10	1	-1E+10	1	-1E+10	1	-1E+10	1	-1E+10	1	-1E+10	1
4901784	39	C	07/29/2016	10:43	-132.560	44.938	0	152.60	0	8.7170	0	33.8770	0	26.286	0	151.306	0	189.6	4	66.6	4	-1E+10	1	-1E+10	1	-1E+10	1	-1E+10	1	-1E+10	1	-1E+10	1
4901784	39	C	07/29/2016	10:43	-132.560	44.938	0	155.30	0	8.7050	0	33.8780	0	26.289	0	153.982	0	188.6	4	66.2	4	-1E+10	1	-1E+10	1	-1E+10	1	-1E+10	1	-1E+10	1	-1E+10	1
4901784	39	C	07/29/2016	10:43	-132.560	44.938	0	157.10	0	8.6810	0	33.8850	0	26.298	0	155.766	0	187.8	4	65.9	4	-1E+10	1	-1E+10	1	-1E+10	1	-1E+10	1	-1E+10	1	-1E+10	1
4901784	39	C	07/29/2016	10:43	-132.560	44.938	0	160.00	0	8.6540	0	33.8890	0	26.305	0	158.641	0	186.4	4	65.4	4	-1E+10	1	-1E+10	1	-1E+10	1	-1E+10	1	-1E+10	1	-1E+10	1
4901784	39	C	07/29/2016	10:43	-132.560	44.938	0	162.70	0	8.5380	0	33.9060	0	26.336	0	161.317	0	185.0	4	64.7	4	-1E+10	1	-1E+10	1	-1E+10	1	-1E+10	1	-1E+10	1	-1E+10	1
4901784	39	C	07/29/2016	10:43	-132.560	44.938	0	164.60	0	8.5200	0	33.9050	0	26.338	0	163.200	0	184.3	4	64.5	4	-1E+10	1	-1E+10	1	-1E+10	1	-1E+10	1	-1E+10	1	-1E+10	1
4901784	39	C	07/29/2016	10:43	-132.560	44.938	0	167.50	0	8.4810	0	33.9060	0	26.345	0	166.074	0	182.8	4	63.9	4	-1E+10	1	-1E+10	1	-1E+10	1	-1E+10	1	-1E+10	1	-1E+10	1
4901784	39	C	07/29/2016	10:43	-132.560	44.938	0	170.20	0	8.4370	0	33.9070	0	26.353	0	168.750	0	181.2	4	63.3	4	-1E+10	1	-1E+10	1	-1E+10	1	-1E+10	1	-1E+10	1	-1E+10	1
4901784	39	C	07/29/2016	10:43	-132.560	44.938	0	172.20	0	8.3740	0	33.9080	0	26.363	0	170.732	0	180.1	4	62.8	4	-1E+10	1	-1E+10	1	-1E+10	1	-1E+10	1	-1E+10	1	-1E+10	1
4901784	39	C	07/29/2016	10:43	-132.560	44.938	0	175.00	0	8.3410	0	33.9080	0	26.368	0	173.507	0	178.5	4	62.2	4	-1E+10	1	-1E+10	1	-1E+10	1	-1E+10	1	-1E+10	1	-1E+10	1
4901784	39	C	07/29/2016	10:43	-132.560	44.938	0	177.80	0	8.2810	0	33.9090	0	26.378	0	176.282	0	176.3	4	61.3	4	-1E+10	1	-1E+10	1	-1E+10	1	-1E+10	1	-1E+10	1	-1E+10	1
4901784	39	C	07/29/2016	10:43	-132.560	44.938	0	179.70	0	8.2160	0	33.9050	0	26.385	0	178.165	0	175.0	4	60.8	4	-1E+10	1	-1E+10	1	-1E+10	1	-1E+10	1	-1E+10	1	-1E+10	1
4901784	39	C	07/29/2016	10:43	-132.560	44.938	0	182.60	0	8.0930	0	33.9070	0	26.405	0	181.039	0	173.7	4	60.2	4	-1E+10	1	-1E+10	1	-1E+10	1	-1E+10	1	-1E+10	1	-1E+10	1
4901784	39	C	07/29/2016	10:43	-132.560	44.938	0	186.00	0	8.0560	0	33.9060	0	26.409	0	184.408	0	172.7	4	59.8	4	-1E+10	1	-1E+10	1	-1E+10	1	-1E+10	1	-1E+10	1	-1E+10	1
4901784	39	C	07/29/2016	10:43	-132.560	44.938	0	187.80	0	8.0060	0	33.9060	0	26.417	0	186.192	0	172.1	4	59.5	4	-1E+10	1	-1E+10	1	-1E+10	1	-1E+10	1	-1E+10	1	-1E+10	1
4901784	39	C	07/29/2016	10:43	-132.560	44.938	0	190.20	0	7.9730	0	33.9070	0	26.422	0	188.570	0	171.7	4	59.3	4	-1E+10	1	-1E+10	1	-1E+10	1	-1E+10	1	-1E+10	1	-1E+10	1
4901784	39	C	07/29/2016	10:43	-132.560	44.938	0	192.60	0	7.9580	0	33.9070	0	26.425	0	190.949	0	171.1	4	59.1	4	-1E+10	1	-1E+10	1	-1E+10	1	-1E+10	1	-1E+10	1	-1E+10	1
4901784	39	C	07/29/2016	10:43	-132.560	44.938	0	194.90	0	7.9460	0	33.9070	0	26.427	0	193.228	0	170.4	4	58.9	4	-1E+10	1	-1E+10	1	-1E+10	1	-1E+10	1	-1E+10	1	-1E+10	1
4901784	39	C	07/29/2016	10:43	-132.560	44.938	0	197.30	0	7.9230	0	33.9070	0	26.430	0	195.606	0	169.6	4	58.5	4	-1E+10	1	-1E+10	1	-1E+10	1	-1E+10	1	-1E+10	1	-1E+10	1
4901784	39	C	07/29/2016	10:43	-132.560	44.938	0	199.70	0	7.9010	0	33.9070	0	26.433	0	197.984	0	168.8	4	58.2	4	-1E+10	1	-1E+10	1	-1E+10	1	-1E+10	1	-1E+10	1	-1E+10	1
4901784	39	C	07/29/2016	10:43	-132.560	44.938	0	202.30	0	7.8900	0	33.9050	0	26.433	0	200.561	0	167.7	4	57.9	4	-1E+10	1	-1E+10	1	-1E+10	1	-1E+10	1	-1E+10	1	-1E+10	1
4901784	39	C	07/29/2016	10:43	-132.560	44.938	0	204.70	0	7.8520	0	33.9050	0	26.439	0	202.939	0	166.3	4	57.3	4	-1E+10	1	-1E+10	1	-1E+10	1	-1E+10	1	-1E+10	1	-1E+10	1
4901784	39	C	07/29/2016	10:43	-132.560	44.938	0	207.30	0	7.7200	0	33.9090	0	26.461	0	205.515	0	165.3	4	56.8	4	-1E+10	1	-1E+10	1	-1E+10	1	-1E+10	1	-1E+10	1	-1E+10	1
4901784	39	C	07/29/2016	10:43	-132.560	44.938	0	209.90	0	7.6870	0	33.9080	0	26.465	0	208.092	0	164.7	4	56.6	4	-1E+10	1	-1E+10	1	-1E+10	1	-1E+10	1	-1E+10	1	-1E+10	1
4901784	39	C	07/29/2016	10:43	-132.560	44.938	0	212.40	0	7.6470	0	33.9090	0	26.472	0	210.569	0	163.9	4	56.2	4	-1E+10	1	-1E+10	1	-1E+10	1	-1E+10	1	-1E+10	1	-1E+10	1
4901784	39	C	07/29/2016	10:43	-132.560	44.938	0	215.00	0	7.5990	0	33.9110	0	26.480	0	213.145	0	163.1	4	55.9	4	-1E+10	1	-1E+10	1	-1E+10	1	-1E+10	1	-1E+10	1	-1E+10	1
4901784	39	C	07/29/2016	10:43	-132.560	44.938	0	217.50	0	7.5580	0	33.9100	0	26.485	0	215.622	0	161.9	4	55.4	4	-1E+10	1	-1E+10	1	-1E+10	1	-1E+10	1	-1E+10	1	-1E+10	1
4901784	39	C	07/29/2016	10:43	-132.560	44.938	0	220.20	0	7.4960	0	33.9120	0	26.496	0	218.297	0	160.7	4	54.9	4	-1E+10	1	-1E+10	1	-1E+10	1	-1E+10	1	-1E+10	1	-1E+10	1
4901784	39	C	07/29/2016	10:43	-132.560	44.938	0	222.70	0	7.4280	0	33.9090	0	26.503	0	220.774	0	159.8	4	54.6	4	-1E+10	1	-1E+10	1	-1E+10	1	-1E+10	1	-1E+10	1	-1E+10	1
4901784	39	C	07/29/2016	10:43	-132.560	44.938	0	225.30	0	7.4120	0	33.9100	0	26.506	0	223.351	0	158.8	4	54.2	4	-1E+10	1	-1E+10	1	-1E+10	1	-1E+10	1	-1E+10	1	-1E+10	1
4901784	39	C	07/29/2016	10:43	-132.560	44.938	0	227.90	0	7.3530	0	33.9100	0	26.514	0	225.927	0	157.7	4	53.8	4	-1E+10	1	-1E+10	1	-1E+10	1	-1E+10	1	-1E+10	1	-1E+10	1
4901784	39	C	07/29/2016	10:43	-132.560	44.938	0	229.60	0	7.3340	0	33.9100	0	26.517	0	227.611	0	157.1	4	53.5	4	-1E+10	1	-1E+10	1	-1E+10	1	-1E+10	1	-1E+10	1	-1E+10	1
4901784	39	C	07/29/2016	10:43	-132.560	44.938	0	232.30	0	7.3160	0	33.9090	0	26.519	0	230.286	0	155.9	4	53.1	4	-1E+10	1	-1E+10	1	-1E+10	1	-1E+10	1	-1E+10	1	-1E+10	1
4901784	39	C	07/29/2016	10:43	-132.560	44.938	0	235.00	0	7.2590	0	33.9100	0	26.528	0	232.961	0	155.2	4	52.8	4	-1E+10	1	-1E+10	1	-1E+10	1	-1E+10	1	-1E+10	1	-1E+10	1
4901784	39	C	07/29/2016	10:43	-132.560	44.938	0	237.80	0	7.2340	0	33.9100	0	26.531	0	235.735	0	154.3	4	52.5	4	-1E+10	1	-1E+10	1	-1E+10	1	-1E+10	1	-1E+10	1	-1E+10	1
4901784	39	C	07/29/2016	10:43	-132.560	44.938	0	240.50	0	7.2180	0	33.9080	0	26.532	0	238.410	0	153.3	4	52.1	4	-1E+10	1	-1E+10	1	-1E+10	1	-1E+10	1	-1E+10	1	-1E+10	1
4901784	39	C	07/29/2016	10:43	-132.560	44.938	0	242.30	0	7.1630	0	33.9110	0	26.542	0	240.194	0	152.7	4	51.8	4	-1E+10	1	-1E+10	1	-1E+10	1	-1E+10	1	-1E+10	1	-1E+10	1
4901784	39	C	07/29/2016	10:43	-132.560	44.938	0	244.90	0	7.1510	0	33.9100	0	26.543	0	242.769	0	151.6	4	51.4	4	-1E+10	1	-1E+10	1	-1E+10	1	-1E+10	1	-1E+10	1	-1E+10	1
4901784	39	C	07/29/2016	10:43	-132.560	44.938	0	247.70	0	7.1140	0	33.9100	0	26.548	0	245.543	0	150.4	4	51.0	4	-1E+10	1	-1E+10	1	-1E+10	1	-1E+10	1	-1E+10	1	-1E+10	1
4901784	39	C	07/29/2016	10:43	-132.560	44.938	0	249.50	0	7.0720	0	33.9110	0	26.554	0	247.327	0	149.7	4	50.7	4	-1E+10	1	-1E+10	1	-1E+10	1	-1E+10	1	-1E+10	1	-1E+10	1
4901784	39	C	07/29/2016	10:43	-132.560	44.938	0	252.30	0	7.0300	0	33.9110	0	26.560	0	250.101	0	149.0	4	50.4	4	-1E+10	1	-1E+10	1	-1E+10	1	-1E+10	1	-1E+10	1	-1E+10	1
4901784	39	C	07/29/2016	10:43	-132.560	44.938	0	255.10	0	6.9980	0	33.9110	0	26.565	0	252.875	0	148.2	4	50.1	4	-1E+10	1	-1E+10	1	-1E+10	1	-1E+10	1	-1E+10	1	-1E+10	1
4901784	39	C	07/29/2016	10:43	-132.560	44.938	0	257.80	0	6.9750	0	33.9100	0	26.567	0	255.549	0	147.4	4	49.8	4	-1E+10	1	-1E+10	1	-1E+10	1	-1E+10	1	-1E+10	1	-1E+10	1
4901784	39	C	07/29/2016	10:43	-132.560	44.938	0	260.40	0	6.9300	0	33.9100	0	26.573	0	258.125	0	146.5	4	49.4	4	-1E+10	1	-1E+10	1	-1E+10	1	-1E+10	1	-1E+10	1	-1E+10	1
4901784	39	C	07/29/2016	10:43	-132.560	44.938	0	262.20	0	6.9140	0	33.9100	0	26.575	0	259.908	0	145.8	4	49.2	4	-1E+10	1	-1E+10	1	-1E+10	1	-1E+10	1	-1E+10	1	-1E+10	1
4901784	39	C	07/29/2016	10:43	-132.560	44.938	0	265.00	0	6.8680	0	33.9100	0	26.582	0	262.682	0	144.6	4	48.7	4	-1E+10	1	-1E+10	1	-1E+10	1	-1E+10	1	-1E+10	1	-1E+10	1
4901784	39	C	07/29/2016	10:43	-132.560	44.938	0	267.70	0	6.8290	0	33.9090	0	26.586	0	265.357	0	143.4	4	48.3	4	-1E+10	1	-1E+10	1	-1E+10	1	-1E+10	1	-1E+10	1	-1E+10	1
4901784	39	C	07/29/2016	10:43	-132.560	44.938	0	269.50	0	6.8090	0	33.9090	0	26.589	0	267.140	0	142.3	4	47.9	4	-1E+10	1	-1E+10	1	-1E+10	1	-1E+10	1	-1E+10	1	-1E+10	1
4901784	39	C	07/29/2016	10:43	-132.560	44.938	0	272.30	0	6.7600	0	33.9080	0	26.595	0	269.913	0	140.7	4	47.3	4	-1E+10	1	-1E+10	1	-1E+10	1	-1E+10	1	-1E+10	1	-1E+10	1
4901784	39	C	07/29/2016	10:43	-132.560	44.938	0	275.00	0	6.7180	0	33.9060	0	26.599	0	272.588	0	138.9	4	46.6	4	-1E+10	1	-1E+10	1	-1E+10	1	-1E+10	1	-1E+10	1	-1E+10	1
4901784	39	C	07/29/2016	10:43	-132.560	44.938	0	277.80	0	6.6490	0	33.9080	0	26.609	0	275.361	0	137.1	4	46.0	4	-1E+10	1	-1E+10	1	-1E+10	1	-1E+10	1	-1E+10	1	-1E+10	1
4901784	39	C	07/29/2016	10:43	-132.560	44.938	0	280.50	0	6.6050	0	33.9060	0	26.614	0	278.036	0	135.6	4	45.4	4	-1E+10	1	-1E+10	1	-1E+10	1	-1E+10	1	-1E+10	1	-1E+10	1
4901784	39	C	07/29/2016	10:43	-132.560	44.938	0	282.40	0	6.5830	0	33.9060	0	26.617	0	279.918	0	134.6	4	45.1	4	-1E+10	1	-1E+10	1	-1E+10	1	-1E+10	1	-1E+10	1	-1E+10	1
4901784	39	C	07/29/2016	10:43	-132.560	44.938	0	285.20	0	6.5090	0	33.9070	0	26.627	0	282.691	0	133.1	4	44.5	4	-1E+10	1	-1E+10	1	-1E+10	1	-1E+10	1	-1E+10	1	-1E+10	1
4901784	39	C	07/29/2016	10:43	-132.560	44.938	0	287.90	0	6.4740	0	33.9080	0	26.633	0	285.366	0	132.3	4	44.2	4	-1E+10	1	-1E+10	1	-1E+10	1	-1E+10	1	-1E+10	1	-1E+10	1
4901784	39	C	07/29/2016	10:43	-132.560	44.938	0	289.80	0	6.4640	0	33.9080	0	26.634	0	287.248	0	131.9	4	44.1	4	-1E+10	1	-1E+10	1	-1E+10	1	-1E+10	1	-1E+10	1	-1E+10	1
4901784	39	C	07/29/2016	10:43	-132.560	44.938	0	292.60	0	6.4510	0	33.9070	0	26.635	0	290.021	0	131.0	4	43.7	4	-1E+10	1	-1E+10	1	-1E+10	1	-1E+10	1	-1E+10	1	-1E+10	1
4901784	39	C	07/29/2016	10:43	-132.560	44.938	0	295.40	0	6.4140	0	33.9060	0	26.639	0	292.794	0	130.1	4	43.4	4	-1E+10	1	-1E+10	1	-1E+10	1	-1E+10	1	-1E+10	1	-1E+10	1
4901784	39	C	07/29/2016	10:43	-132.560	44.938	0	297.30	0	6.3770	0	33.9070	0	26.644	0	294.676	0	129.4	4	43.1	4	-1E+10	1	-1E+10	1	-1E+10	1	-1E+10	1	-1E+10	1	-1E+10	1
4901784	39	C	07/29/2016	10:43	-132.560	44.938	0	300.10	0	6.3470	0	33.9090	0	26.650	0	297.450	0	128.6	4	42.8	4	-1E+10	1	-1E+10	1	-1E+10	1	-1E+10	1	-1E+10	1	-1E+10	1
4901784	39	C	07/29/2016	10:43	-132.560	44.938	0	302.80	0	6.3260	0	33.9080	0	26.652	0	300.124	0	128.0	4	42.6	4	-1E+10	1	-1E+10	1	-1E+10	1	-1E+10	1	-1E+10	1	-1E+10	1
4901784	39	C	07/29/2016	10:43	-132.560	44.938	0	304.70	0	6.3180	0	33.9080	0	26.653	0	302.006	0	127.5	4	42.4	4	-1E+10	1	-1E+10	1	-1E+10	1	-1E+10	1	-1E+10	1	-1E+10	1
4901784	39	C	07/29/2016	10:43	-132.560	44.938	0	307.50	0	6.3080	0	33.9080	0	26.654	0	304.779	0	126.4	4	42.1	4	-1E+10	1	-1E+10	1	-1E+10	1	-1E+10	1	-1E+10	1	-1E+10	1
4901784	39	C	07/29/2016	10:43	-132.560	44.938	0	310.20	0	6.2780	0	33.9070	0	26.657	0	307.453	0	125.2	4	41.6	4	-1E+10	1	-1E+10	1	-1E+10	1	-1E+10	1	-1E+10	1	-1E+10	1
4901784	39	C	07/29/2016	10:43	-132.560	44.938	0	312.10	0	6.2530	0	33.9090	0	26.662	0	309.335	0	124.5	4	41.4	4	-1E+10	1	-1E+10	1	-1E+10	1	-1E+10	1	-1E+10	1	-1E+10	1
4901784	39	C	07/29/2016	10:43	-132.560	44.938	0	315.00	0	6.2210	0	33.9100	0	26.667	0	312.207	0	123.1	4	40.9	4	-1E+10	1	-1E+10	1	-1E+10	1	-1E+10	1	-1E+10	1	-1E+10	1
4901784	39	C	07/29/2016	10:43	-132.560	44.938	0	317.70	0	6.2110	0	33.9090	0	26.668	0	314.881	0	121.7	4	40.4	4	-1E+10	1	-1E+10	1	-1E+10	1	-1E+10	1	-1E+10	1	-1E+10	1
4901784	39	C	07/29/2016	10:43	-132.560	44.938	0	319.60	0	6.1720	0	33.9100	0	26.673	0	316.763	0	120.4	4	39.9	4	-1E+10	1	-1E+10	1	-1E+10	1	-1E+10	1	-1E+10	1	-1E+10	1
4901784	39	C	07/29/2016	10:43	-132.560	44.938	0	322.50	0	6.1430	0	33.9100	0	26.677	0	319.635	0	118.7	4	39.4	4	-1E+10	1	-1E+10	1	-1E+10	1	-1E+10	1	-1E+10	1	-1E+10	1
4901784	39	C	07/29/2016	10:43	-132.560	44.938	0	325.30	0	6.0900	0	33.9120	0	26.685	0	322.407	0	117.0	4	38.7	4	-1E+10	1	-1E+10	1	-1E+10	1	-1E+10	1	-1E+10	1	-1E+10	1
4901784	39	C	07/29/2016	10:43	-132.560	44.938	0	327.10	0	6.0750	0	33.9120	0	26.687	0	324.190	0	116.2	4	38.5	4	-1E+10	1	-1E+10	1	-1E+10	1	-1E+10	1	-1E+10	1	-1E+10	1
4901784	39	C	07/29/2016	10:43	-132.560	44.938	0	330.00	0	6.0600	0	33.9120	0	26.689	0	327.062	0	114.8	4	38.0	4	-1E+10	1	-1E+10	1	-1E+10	1	-1E+10	1	-1E+10	1	-1E+10	1
4901784	39	C	07/29/2016	10:43	-132.560	44.938	0	332.80	0	6.0420	0	33.9120	0	26.691	0	329.835	0	112.7	4	37.3	4	-1E+10	1	-1E+10	1	-1E+10	1	-1E+10	1	-1E+10	1	-1E+10	1
4901784	39	C	07/29/2016	10:43	-132.560	44.938	0	334.60	0	5.9880	0	33.9150	0	26.701	0	331.617	0	111.4	4	36.8	4	-1E+10	1	-1E+10	1	-1E+10	1	-1E+10	1	-1E+10	1	-1E+10	1
4901784	39	C	07/29/2016	10:43	-132.560	44.938	0	337.40	0	5.9610	0	33.9140	0	26.703	0	334.390	0	109.7	4	36.2	4	-1E+10	1	-1E+10	1	-1E+10	1	-1E+10	1	-1E+10	1	-1E+10	1
4901784	39	C	07/29/2016	10:43	-132.560	44.938	0	340.20	0	5.9290	0	33.9130	0	26.706	0	337.163	0	107.7	4	35.5	4	-1E+10	1	-1E+10	1	-1E+10	1	-1E+10	1	-1E+10	1	-1E+10	1
4901784	39	C	07/29/2016	10:43	-132.560	44.938	0	342.00	0	5.8970	0	33.9140	0	26.711	0	338.945	0	106.2	4	35.0	4	-1E+10	1	-1E+10	1	-1E+10	1	-1E+10	1	-1E+10	1	-1E+10	1
4901784	39	C	07/29/2016	10:43	-132.560	44.938	0	344.80	0	5.8490	0	33.9150	0	26.718	0	341.718	0	104.1	4	34.3	4	-1E+10	1	-1E+10	1	-1E+10	1	-1E+10	1	-1E+10	1	-1E+10	1
4901784	39	C	07/29/2016	10:43	-132.560	44.938	0	347.60	0	5.8070	0	33.9150	0	26.723	0	344.491	0	101.8	4	33.5	4	-1E+10	1	-1E+10	1	-1E+10	1	-1E+10	1	-1E+10	1	-1E+10	1
4901784	39	C	07/29/2016	10:43	-132.560	44.938	0	349.50	0	5.7350	0	33.9190	0	26.735	0	346.372	0	100.6	4	33.0	4	-1E+10	1	-1E+10	1	-1E+10	1	-1E+10	1	-1E+10	1	-1E+10	1
4901784	39	C	07/29/2016	10:43	-132.560	44.938	0	352.40	0	5.7240	0	33.9200	0	26.737	0	349.244	0	98.9	4	32.5	4	-1E+10	1	-1E+10	1	-1E+10	1	-1E+10	1	-1E+10	1	-1E+10	1
4901784	39	C	07/29/2016	10:43	-132.560	44.938	0	355.30	0	5.7120	0	33.9210	0	26.739	0	352.115	0	97.1	4	31.9	4	-1E+10	1	-1E+10	1	-1E+10	1	-1E+10	1	-1E+10	1	-1E+10	1
4901784	39	C	07/29/2016	10:43	-132.560	44.938	0	357.10	0	5.7120	0	33.9220	0	26.740	0	353.898	0	95.6	4	31.4	4	-1E+10	1	-1E+10	1	-1E+10	1	-1E+10	1	-1E+10	1	-1E+10	1
4901784	39	C	07/29/2016	10:43	-132.560	44.938	0	360.00	0	5.6490	0	33.9220	0	26.748	0	356.769	0	93.4	4	30.6	4	-1E+10	1	-1E+10	1	-1E+10	1	-1E+10	1	-1E+10	1	-1E+10	1
4901784	39	C	07/29/2016	10:43	-132.560	44.938	0	362.80	0	5.6220	0	33.9270	0	26.755	0	359.541	0	89.7	4	29.4	4	-1E+10	1	-1E+10	1	-1E+10	1	-1E+10	1	-1E+10	1	-1E+10	1
4901784	39	C	07/29/2016	10:43	-132.560	44.938	0	364.60	0	5.6230	0	33.9320	0	26.759	0	361.324	0	87.8	4	28.7	4	-1E+10	1	-1E+10	1	-1E+10	1	-1E+10	1	-1E+10	1	-1E+10	1
4901784	39	C	07/29/2016	10:43	-132.560	44.938	0	367.50	0	5.6260	0	33.9340	0	26.760	0	364.195	0	85.0	4	27.8	4	-1E+10	1	-1E+10	1	-1E+10	1	-1E+10	1	-1E+10	1	-1E+10	1
4901784	39	C	07/29/2016	10:43	-132.560	44.938	0	370.30	0	5.6290	0	33.9350	0	26.761	0	366.968	0	81.6	4	26.7	4	-1E+10	1	-1E+10	1	-1E+10	1	-1E+10	1	-1E+10	1	-1E+10	1
4901784	39	C	07/29/2016	10:43	-132.560	44.938	0	372.20	0	5.6120	0	33.9390	0	26.766	0	368.849	0	79.0	4	25.9	4	-1E+10	1	-1E+10	1	-1E+10	1	-1E+10	1	-1E+10	1	-1E+10	1
4901784	39	C	07/29/2016	10:43	-132.560	44.938	0	375.00	0	5.6040	0	33.9470	0	26.773	0	371.621	0	75.0	4	24.6	4	-1E+10	1	-1E+10	1	-1E+10	1	-1E+10	1	-1E+10	1	-1E+10	1
4901784	39	C	07/29/2016	10:43	-132.560	44.938	0	377.80	0	5.6170	0	33.9530	0	26.777	0	374.393	0	72.0	4	23.6	4	-1E+10	1	-1E+10	1	-1E+10	1	-1E+10	1	-1E+10	1	-1E+10	1
4901784	39	C	07/29/2016	10:43	-132.560	44.938	0	379.70	0	5.6340	0	33.9580	0	26.778	0	376.274	0	70.5	4	23.1	4	-1E+10	1	-1E+10	1	-1E+10	1	-1E+10	1	-1E+10	1	-1E+10	1
4901784	39	C	07/29/2016	10:43	-132.560	44.938	0	382.60	0	5.6220	0	33.9600	0	26.782	0	379.146	0	68.4	4	22.4	4	-1E+10	1	-1E+10	1	-1E+10	1	-1E+10	1	-1E+10	1	-1E+10	1
4901784	39	C	07/29/2016	10:43	-132.560	44.938	0	385.40	0	5.6060	0	33.9630	0	26.786	0	381.918	0	66.3	4	21.7	4	-1E+10	1	-1E+10	1	-1E+10	1	-1E+10	1	-1E+10	1	-1E+10	1
4901784	39	C	07/29/2016	10:43	-132.560	44.938	0	387.30	0	5.5970	0	33.9660	0	26.789	0	383.799	0	64.7	4	21.2	4	-1E+10	1	-1E+10	1	-1E+10	1	-1E+10	1	-1E+10	1	-1E+10	1
4901784	39	C	07/29/2016	10:43	-132.560	44.938	0	390.20	0	5.5850	0	33.9720	0	26.796	0	386.670	0	63.0	4	20.6	4	-1E+10	1	-1E+10	1	-1E+10	1	-1E+10	1	-1E+10	1	-1E+10	1
4901784	39	C	07/29/2016	10:43	-132.560	44.938	0	393.00	0	5.5650	0	33.9750	0	26.800	0	389.442	0	61.9	4	20.3	4	-1E+10	1	-1E+10	1	-1E+10	1	-1E+10	1	-1E+10	1	-1E+10	1
4901784	39	C	07/29/2016	10:43	-132.560	44.938	0	394.90	0	5.5400	0	33.9770	0	26.805	0	391.323	0	61.5	4	20.1	4	-1E+10	1	-1E+10	1	-1E+10	1	-1E+10	1	-1E+10	1	-1E+10	1
4901784	39	C	07/29/2016	10:43	-132.560	44.938	0	397.80	0	5.4910	0	33.9800	0	26.813	0	394.194	0	61.1	4	20.0	4	-1E+10	1	-1E+10	1	-1E+10	1	-1E+10	1	-1E+10	1	-1E+10	1
4901784	39	C	07/29/2016	10:43	-132.560	44.938	0	400.70	0	5.4650	0	33.9800	0	26.816	0	397.065	0	60.8	4	19.8	4	-1E+10	1	-1E+10	1	-1E+10	1	-1E+10	1	-1E+10	1	-1E+10	1
4901784	39	C	07/29/2016	10:43	-132.560	44.938	0	402.60	0	5.4430	0	33.9810	0	26.820	0	398.946	0	60.7	4	19.8	4	-1E+10	1	-1E+10	1	-1E+10	1	-1E+10	1	-1E+10	1	-1E+10	1
4901784	39	C	07/29/2016	10:43	-132.560	44.938	0	404.50	0	5.4370	0	33.9810	0	26.820	0	400.827	0	60.6	4	19.8	4	-1E+10	1	-1E+10	1	-1E+10	1	-1E+10	1	-1E+10	1	-1E+10	1
4901784	39	C	07/29/2016	10:43	-132.560	44.938	0	407.40	0	5.3850	0	33.9810	0	26.827	0	403.698	0	60.6	4	19.7	4	-1E+10	1	-1E+10	1	-1E+10	1	-1E+10	1	-1E+10	1	-1E+10	1
4901784	39	C	07/29/2016	10:43	-132.560	44.938	0	410.20	0	5.3510	0	33.9820	0	26.831	0	406.469	0	60.2	4	19.6	4	-1E+10	1	-1E+10	1	-1E+10	1	-1E+10	1	-1E+10	1	-1E+10	1
4901784	39	C	07/29/2016	10:43	-132.560	44.938	0	412.20	0	5.3110	0	33.9810	0	26.835	0	408.449	0	59.9	4	19.5	4	-1E+10	1	-1E+10	1	-1E+10	1	-1E+10	1	-1E+10	1	-1E+10	1
4901784	39	C	07/29/2016	10:43	-132.560	44.938	0	415.00	0	5.2960	0	33.9830	0	26.839	0	411.221	0	58.9	4	19.2	4	-1E+10	1	-1E+10	1	-1E+10	1	-1E+10	1	-1E+10	1	-1E+10	1
4901784	39	C	07/29/2016	10:43	-132.560	44.938	0	417.90	0	5.2900	0	33.9840	0	26.840	0	414.092	0	57.7	4	18.8	4	-1E+10	1	-1E+10	1	-1E+10	1	-1E+10	1	-1E+10	1	-1E+10	1
4901784	39	C	07/29/2016	10:43	-132.560	44.938	0	419.70	0	5.2650	0	33.9870	0	26.846	0	415.873	0	56.8	4	18.5	4	-1E+10	1	-1E+10	1	-1E+10	1	-1E+10	1	-1E+10	1	-1E+10	1
4901784	39	C	07/29/2016	10:43	-132.560	44.938	0	422.60	0	5.2580	0	33.9910	0	26.850	0	418.744	0	55.6	4	18.1	4	-1E+10	1	-1E+10	1	-1E+10	1	-1E+10	1	-1E+10	1	-1E+10	1
4901784	39	C	07/29/2016	10:43	-132.560	44.938	0	425.50	0	5.2310	0	33.9930	0	26.854	0	421.615	0	54.4	4	17.7	4	-1E+10	1	-1E+10	1	-1E+10	1	-1E+10	1	-1E+10	1	-1E+10	1
4901784	39	C	07/29/2016	10:43	-132.560	44.938	0	427.40	0	5.2470	0	33.9970	0	26.856	0	423.495	0	53.3	4	17.3	4	-1E+10	1	-1E+10	1	-1E+10	1	-1E+10	1	-1E+10	1	-1E+10	1
4901784	39	C	07/29/2016	10:43	-132.560	44.938	0	429.40	0	5.2580	0	33.9980	0	26.855	0	425.475	0	52.5	4	17.1	4	-1E+10	1	-1E+10	1	-1E+10	1	-1E+10	1	-1E+10	1	-1E+10	1
4901784	39	C	07/29/2016	10:43	-132.560	44.938	0	432.30	0	5.2570	0	34.0020	0	26.858	0	428.346	0	51.5	4	16.7	4	-1E+10	1	-1E+10	1	-1E+10	1	-1E+10	1	-1E+10	1	-1E+10	1
4901784	39	C	07/29/2016	10:43	-132.560	44.938	0	435.20	0	5.2320	0	34.0040	0	26.863	0	431.216	0	50.9	4	16.5	4	-1E+10	1	-1E+10	1	-1E+10	1	-1E+10	1	-1E+10	1	-1E+10	1
4901784	39	C	07/29/2016	10:43	-132.560	44.938	0	437.20	0	5.2060	0	34.0040	0	26.866	0	433.196	0	50.5	4	16.4	4	-1E+10	1	-1E+10	1	-1E+10	1	-1E+10	1	-1E+10	1	-1E+10	1
4901784	39	C	07/29/2016	10:43	-132.560	44.938	0	440.10	0	5.1980	0	34.0080	0	26.870	0	436.066	0	49.8	4	16.2	4	-1E+10	1	-1E+10	1	-1E+10	1	-1E+10	1	-1E+10	1	-1E+10	1
4901784	39	C	07/29/2016	10:43	-132.560	44.938	0	443.10	0	5.1760	0	34.0110	0	26.875	0	439.035	0	49.8	4	16.1	4	-1E+10	1	-1E+10	1	-1E+10	1	-1E+10	1	-1E+10	1	-1E+10	1
4901784	39	C	07/29/2016	10:43	-132.560	44.938	0	445.10	0	5.1650	0	34.0120	0	26.877	0	441.015	0	49.8	4	16.1	4	-1E+10	1	-1E+10	1	-1E+10	1	-1E+10	1	-1E+10	1	-1E+10	1
4901784	39	C	07/29/2016	10:43	-132.560	44.938	0	446.90	0	5.1320	0	34.0110	0	26.880	0	442.796	0	49.8	4	16.1	4	-1E+10	1	-1E+10	1	-1E+10	1	-1E+10	1	-1E+10	1	-1E+10	1
4901784	39	C	07/29/2016	10:43	-132.560	44.938	0	449.90	0	5.1220	0	34.0110	0	26.881	0	445.766	0	49.6	4	16.1	4	-1E+10	1	-1E+10	1	-1E+10	1	-1E+10	1	-1E+10	1	-1E+10	1
4901784	39	C	07/29/2016	10:43	-132.560	44.938	0	452.80	0	5.1120	0	34.0110	0	26.883	0	448.636	0	49.3	4	16.0	4	-1E+10	1	-1E+10	1	-1E+10	1	-1E+10	1	-1E+10	1	-1E+10	1
4901784	39	C	07/29/2016	10:43	-132.560	44.938	0	454.90	0	5.1040	0	34.0110	0	26.884	0	450.714	0	48.9	4	15.8	4	-1E+10	1	-1E+10	1	-1E+10	1	-1E+10	1	-1E+10	1	-1E+10	1
4901784	39	C	07/29/2016	10:43	-132.560	44.938	0	457.80	0	5.0860	0	34.0130	0	26.887	0	453.584	0	48.4	4	15.7	4	-1E+10	1	-1E+10	1	-1E+10	1	-1E+10	1	-1E+10	1	-1E+10	1
4901784	39	C	07/29/2016	10:43	-132.560	44.938	0	460.70	0	5.0580	0	34.0140	0	26.891	0	456.455	0	47.9	4	15.5	4	-1E+10	1	-1E+10	1	-1E+10	1	-1E+10	1	-1E+10	1	-1E+10	1
4901784	39	C	07/29/2016	10:43	-132.560	44.938	0	462.60	0	5.0500	0	34.0160	0	26.894	0	458.335	0	47.5	4	15.4	4	-1E+10	1	-1E+10	1	-1E+10	1	-1E+10	1	-1E+10	1	-1E+10	1
4901784	39	C	07/29/2016	10:43	-132.560	44.938	0	464.40	0	5.0470	0	34.0190	0	26.896	0	460.116	0	47.1	4	15.2	4	-1E+10	1	-1E+10	1	-1E+10	1	-1E+10	1	-1E+10	1	-1E+10	1
4901784	39	C	07/29/2016	10:43	-132.560	44.938	0	467.40	0	5.0300	0	34.0190	0	26.898	0	463.085	0	46.6	4	15.1	4	-1E+10	1	-1E+10	1	-1E+10	1	-1E+10	1	-1E+10	1	-1E+10	1
4901784	39	C	07/29/2016	10:43	-132.560	44.938	0	470.20	0	5.0190	0	34.0210	0	26.901	0	465.856	0	46.0	4	14.9	4	-1E+10	1	-1E+10	1	-1E+10	1	-1E+10	1	-1E+10	1	-1E+10	1
4901784	39	C	07/29/2016	10:43	-132.560	44.938	0	472.20	0	5.0070	0	34.0250	0	26.906	0	467.836	0	45.7	4	14.8	4	-1E+10	1	-1E+10	1	-1E+10	1	-1E+10	1	-1E+10	1	-1E+10	1
4901784	39	C	07/29/2016	10:43	-132.560	44.938	0	475.10	0	4.9920	0	34.0260	0	26.908	0	470.706	0	45.7	4	14.8	4	-1E+10	1	-1E+10	1	-1E+10	1	-1E+10	1	-1E+10	1	-1E+10	1
4901784	39	C	07/29/2016	10:43	-132.560	44.938	0	478.00	0	4.9810	0	34.0260	0	26.910	0	473.575	0	45.7	4	14.8	4	-1E+10	1	-1E+10	1	-1E+10	1	-1E+10	1	-1E+10	1	-1E+10	1
4901784	39	C	07/29/2016	10:43	-132.560	44.938	0	479.90	0	4.9800	0	34.0260	0	26.910	0	475.456	0	45.7	4	14.8	4	-1E+10	1	-1E+10	1	-1E+10	1	-1E+10	1	-1E+10	1	-1E+10	1
4901784	39	C	07/29/2016	10:43	-132.560	44.938	0	482.80	0	4.9790	0	34.0250	0	26.909	0	478.325	0	45.8	4	14.8	4	-1E+10	1	-1E+10	1	-1E+10	1	-1E+10	1	-1E+10	1	-1E+10	1
4901784	39	C	07/29/2016	10:43	-132.560	44.938	0	485.60	0	4.9680	0	34.0260	0	26.911	0	481.096	0	45.8	4	14.8	4	-1E+10	1	-1E+10	1	-1E+10	1	-1E+10	1	-1E+10	1	-1E+10	1
4901784	39	C	07/29/2016	10:43	-132.560	44.938	0	487.60	0	4.9480	0	34.0270	0	26.914	0	483.075	0	46.0	4	14.8	4	-1E+10	1	-1E+10	1	-1E+10	1	-1E+10	1	-1E+10	1	-1E+10	1
4901784	39	C	07/29/2016	10:43	-132.560	44.938	0	489.50	0	4.9290	0	34.0240	0	26.914	0	484.956	0	46.3	4	14.9	4	-1E+10	1	-1E+10	1	-1E+10	1	-1E+10	1	-1E+10	1	-1E+10	1
4901784	39	C	07/29/2016	10:43	-132.560	44.938	0	492.40	0	4.8840	0	34.0220	0	26.917	0	487.825	0	46.1	4	14.9	4	-1E+10	1	-1E+10	1	-1E+10	1	-1E+10	1	-1E+10	1	-1E+10	1
4901784	39	C	07/29/2016	10:43	-132.560	44.938	0	495.20	0	4.8670	0	34.0260	0	26.923	0	490.596	0	45.6	4	14.7	4	-1E+10	1	-1E+10	1	-1E+10	1	-1E+10	1	-1E+10	1	-1E+10	1
4901784	39	C	07/29/2016	10:43	-132.560	44.938	0	497.70	0	4.8620	0	34.0270	0	26.924	0	493.070	0	45.4	4	14.6	4	-1E+10	1	-1E+10	1	-1E+10	1	-1E+10	1	-1E+10	1	-1E+10	1
4901784	39	C	07/29/2016	10:43	-132.560	44.938	0	499.60	0	4.8380	0	34.0270	0	26.927	0	494.950	0	45.4	4	14.6	4	-1E+10	1	-1E+10	1	-1E+10	1	-1E+10	1	-1E+10	1	-1E+10	1
4901784	39	C	07/29/2016	10:43	-132.560	44.938	0	504.50	0	4.7690	0	34.0280	0	26.935	0	499.798	0	44.4	4	14.3	4	-1E+10	1	-1E+10	1	-1E+10	1	-1E+10	1	-1E+10	1	-1E+10	1
4901784	39	C	07/29/2016	10:43	-132.560	44.938	0	509.40	0	4.7340	0	34.0340	0	26.944	0	504.647	0	42.5	4	13.6	4	-1E+10	1	-1E+10	1	-1E+10	1	-1E+10	1	-1E+10	1	-1E+10	1
4901784	39	C	07/29/2016	10:43	-132.560	44.938	0	514.30	0	4.7060	0	34.0420	0	26.953	0	509.495	0	40.9	4	13.1	4	-1E+10	1	-1E+10	1	-1E+10	1	-1E+10	1	-1E+10	1	-1E+10	1
4901784	39	C	07/29/2016	10:43	-132.560	44.938	0	519.20	0	4.6650	0	34.0460	0	26.961	0	514.343	0	39.8	4	12.8	4	-1E+10	1	-1E+10	1	-1E+10	1	-1E+10	1	-1E+10	1	-1E+10	1
4901784	39	C	07/29/2016	10:43	-132.560	44.938	0	525.00	0	4.6530	0	34.0520	0	26.967	0	520.082	0	38.3	4	12.3	4	-1E+10	1	-1E+10	1	-1E+10	1	-1E+10	1	-1E+10	1	-1E+10	1
4901784	39	C	07/29/2016	10:43	-132.560	44.938	0	530.80	0	4.6370	0	34.0580	0	26.974	0	525.820	0	37.1	4	11.9	4	-1E+10	1	-1E+10	1	-1E+10	1	-1E+10	1	-1E+10	1	-1E+10	1
4901784	39	C	07/29/2016	10:43	-132.560	44.938	0	535.80	0	4.6280	0	34.0620	0	26.978	0	530.767	0	36.2	4	11.6	4	-1E+10	1	-1E+10	1	-1E+10	1	-1E+10	1	-1E+10	1	-1E+10	1
4901784	39	C	07/29/2016	10:43	-132.560	44.938	0	540.00	0	4.6190	0	34.0650	0	26.981	0	534.922	0	35.4	4	11.3	4	-1E+10	1	-1E+10	1	-1E+10	1	-1E+10	1	-1E+10	1	-1E+10	1
4901784	39	C	07/29/2016	10:43	-132.560	44.938	0	544.40	0	4.6060	0	34.0680	0	26.985	0	539.275	0	34.6	4	11.1	4	-1E+10	1	-1E+10	1	-1E+10	1	-1E+10	1	-1E+10	1	-1E+10	1
4901784	39	C	07/29/2016	10:43	-132.560	44.938	0	549.50	0	4.5740	0	34.0720	0	26.992	0	544.320	0	33.8	4	10.8	4	-1E+10	1	-1E+10	1	-1E+10	1	-1E+10	1	-1E+10	1	-1E+10	1
4901784	39	C	07/29/2016	10:43	-132.560	44.938	0	554.70	0	4.5460	0	34.0750	0	26.997	0	549.464	0	32.8	4	10.5	4	-1E+10	1	-1E+10	1	-1E+10	1	-1E+10	1	-1E+10	1	-1E+10	1
4901784	39	C	07/29/2016	10:43	-132.560	44.938	0	559.90	0	4.5150	0	34.0820	0	27.006	0	554.608	0	31.4	4	10.0	4	-1E+10	1	-1E+10	1	-1E+10	1	-1E+10	1	-1E+10	1	-1E+10	1
4901784	39	C	07/29/2016	10:43	-132.560	44.938	0	565.10	0	4.5190	0	34.0880	0	27.011	0	559.752	0	30.3	4	9.7	4	-1E+10	1	-1E+10	1	-1E+10	1	-1E+10	1	-1E+10	1	-1E+10	1
4901784	39	C	07/29/2016	10:43	-132.560	44.938	0	569.80	0	4.5130	0	34.0920	0	27.014	0	564.401	0	29.5	4	9.4	4	-1E+10	1	-1E+10	1	-1E+10	1	-1E+10	1	-1E+10	1	-1E+10	1
4901784	39	C	07/29/2016	10:43	-132.560	44.938	0	574.90	0	4.4860	0	34.0960	0	27.021	0	569.446	0	29.0	4	9.2	4	-1E+10	1	-1E+10	1	-1E+10	1	-1E+10	1	-1E+10	1	-1E+10	1
4901784	39	C	07/29/2016	10:43	-132.560	44.938	0	580.30	0	4.4580	0	34.0990	0	27.026	0	574.787	0	28.4	4	9.1	4	-1E+10	1	-1E+10	1	-1E+10	1	-1E+10	1	-1E+10	1	-1E+10	1
4901784	39	C	07/29/2016	10:43	-132.560	44.938	0	585.00	0	4.4180	0	34.1030	0	27.034	0	579.436	0	27.5	4	8.8	4	-1E+10	1	-1E+10	1	-1E+10	1	-1E+10	1	-1E+10	1	-1E+10	1
4901784	39	C	07/29/2016	10:43	-132.560	44.938	0	589.80	0	4.4040	0	34.1110	0	27.041	0	584.184	0	26.4	4	8.4	4	-1E+10	1	-1E+10	1	-1E+10	1	-1E+10	1	-1E+10	1	-1E+10	1
4901784	39	C	07/29/2016	10:43	-132.560	44.938	0	594.60	0	4.3890	0	34.1160	0	27.047	0	588.931	0	25.8	4	8.2	4	-1E+10	1	-1E+10	1	-1E+10	1	-1E+10	1	-1E+10	1	-1E+10	1
4901784	39	C	07/29/2016	10:43	-132.560	44.938	0	599.50	0	4.3770	0	34.1190	0	27.051	0	593.777	0	25.1	4	8.0	4	-1E+10	1	-1E+10	1	-1E+10	1	-1E+10	1	-1E+10	1	-1E+10	1
4901784	39	C	07/29/2016	10:43	-132.560	44.938	0	604.50	0	4.3640	0	34.1250	0	27.057	0	598.722	0	24.4	4	7.8	4	-1E+10	1	-1E+10	1	-1E+10	1	-1E+10	1	-1E+10	1	-1E+10	1
4901784	39	C	07/29/2016	10:43	-132.560	44.938	0	609.50	0	4.3520	0	34.1270	0	27.060	0	603.667	0	24.3	4	7.7	4	-1E+10	1	-1E+10	1	-1E+10	1	-1E+10	1	-1E+10	1	-1E+10	1
4901784	39	C	07/29/2016	10:43	-132.560	44.938	0	614.60	0	4.3360	0	34.1280	0	27.062	0	608.711	0	24.1	4	7.7	4	-1E+10	1	-1E+10	1	-1E+10	1	-1E+10	1	-1E+10	1	-1E+10	1
4901784	39	C	07/29/2016	10:43	-132.560	44.938	0	619.70	0	4.3180	0	34.1290	0	27.065	0	613.755	0	23.6	4	7.5	4	-1E+10	1	-1E+10	1	-1E+10	1	-1E+10	1	-1E+10	1	-1E+10	1
4901784	39	C	07/29/2016	10:43	-132.560	44.938	0	624.80	0	4.3070	0	34.1340	0	27.070	0	618.798	0	22.9	4	7.3	4	-1E+10	1	-1E+10	1	-1E+10	1	-1E+10	1	-1E+10	1	-1E+10	1
4901784	39	C	07/29/2016	10:43	-132.560	44.938	0	629.90	0	4.3000	0	34.1390	0	27.075	0	623.842	0	22.3	4	7.1	4	-1E+10	1	-1E+10	1	-1E+10	1	-1E+10	1	-1E+10	1	-1E+10	1
4901784	39	C	07/29/2016	10:43	-132.560	44.938	0	635.10	0	4.2960	0	34.1400	0	27.076	0	628.984	0	21.7	4	6.9	4	-1E+10	1	-1E+10	1	-1E+10	1	-1E+10	1	-1E+10	1	-1E+10	1
4901784	39	C	07/29/2016	10:43	-132.560	44.938	0	640.40	0	4.2850	0	34.1440	0	27.081	0	634.225	0	20.7	4	6.6	4	-1E+10	1	-1E+10	1	-1E+10	1	-1E+10	1	-1E+10	1	-1E+10	1
4901784	39	C	07/29/2016	10:43	-132.560	44.938	0	644.90	0	4.2680	0	34.1540	0	27.090	0	638.674	0	19.7	4	6.3	4	-1E+10	1	-1E+10	1	-1E+10	1	-1E+10	1	-1E+10	1	-1E+10	1
4901784	39	C	07/29/2016	10:43	-132.560	44.938	0	649.40	0	4.2580	0	34.1600	0	27.096	0	643.124	0	19.2	4	6.1	4	-1E+10	1	-1E+10	1	-1E+10	1	-1E+10	1	-1E+10	1	-1E+10	1
4901784	39	C	07/29/2016	10:43	-132.560	44.938	0	654.70	0	4.2390	0	34.1660	0	27.103	0	648.365	0	18.6	4	5.9	4	-1E+10	1	-1E+10	1	-1E+10	1	-1E+10	1	-1E+10	1	-1E+10	1
4901784	39	C	07/29/2016	10:43	-132.560	44.938	0	660.30	0	4.2200	0	34.1710	0	27.109	0	653.902	0	18.2	4	5.8	4	-1E+10	1	-1E+10	1	-1E+10	1	-1E+10	1	-1E+10	1	-1E+10	1
4901784	39	C	07/29/2016	10:43	-132.560	44.938	0	664.80	0	4.2000	0	34.1760	0	27.115	0	658.351	0	18.0	4	5.7	4	-1E+10	1	-1E+10	1	-1E+10	1	-1E+10	1	-1E+10	1	-1E+10	1
4901784	39	C	07/29/2016	10:43	-132.560	44.938	0	669.40	0	4.1740	0	34.1790	0	27.120	0	662.899	0	17.9	4	5.7	4	-1E+10	1	-1E+10	1	-1E+10	1	-1E+10	1	-1E+10	1	-1E+10	1
4901784	39	C	07/29/2016	10:43	-132.560	44.938	0	675.00	0	4.1640	0	34.1810	0	27.123	0	668.436	0	17.7	4	5.6	4	-1E+10	1	-1E+10	1	-1E+10	1	-1E+10	1	-1E+10	1	-1E+10	1
4901784	39	C	07/29/2016	10:43	-132.560	44.938	0	680.50	0	4.1540	0	34.1830	0	27.126	0	673.873	0	17.3	4	5.5	4	-1E+10	1	-1E+10	1	-1E+10	1	-1E+10	1	-1E+10	1	-1E+10	1
4901784	39	C	07/29/2016	10:43	-132.560	44.938	0	685.10	0	4.1410	0	34.1870	0	27.130	0	678.421	0	16.9	4	5.4	4	-1E+10	1	-1E+10	1	-1E+10	1	-1E+10	1	-1E+10	1	-1E+10	1
4901784	39	C	07/29/2016	10:43	-132.560	44.938	0	689.80	0	4.1200	0	34.1920	0	27.136	0	683.067	0	16.5	4	5.2	4	-1E+10	1	-1E+10	1	-1E+10	1	-1E+10	1	-1E+10	1	-1E+10	1
4901784	39	C	07/29/2016	10:43	-132.560	44.938	0	695.50	0	4.1020	0	34.2000	0	27.145	0	688.702	0	16.1	4	5.1	4	-1E+10	1	-1E+10	1	-1E+10	1	-1E+10	1	-1E+10	1	-1E+10	1
4901784	39	C	07/29/2016	10:43	-132.560	44.938	0	700.10	0	4.0930	0	34.2040	0	27.149	0	693.250	0	15.8	4	5.0	4	-1E+10	1	-1E+10	1	-1E+10	1	-1E+10	1	-1E+10	1	-1E+10	1
4901784	39	C	07/29/2016	10:43	-132.560	44.938	0	704.80	0	4.0840	0	34.2080	0	27.153	0	697.896	0	15.4	4	4.9	4	-1E+10	1	-1E+10	1	-1E+10	1	-1E+10	1	-1E+10	1	-1E+10	1
4901784	39	C	07/29/2016	10:43	-132.560	44.938	0	710.50	0	4.0780	0	34.2130	0	27.158	0	703.530	0	15.1	4	4.8	4	-1E+10	1	-1E+10	1	-1E+10	1	-1E+10	1	-1E+10	1	-1E+10	1
4901784	39	C	07/29/2016	10:43	-132.560	44.938	0	715.20	0	4.0560	0	34.2160	0	27.162	0	708.176	0	15.0	4	4.8	4	-1E+10	1	-1E+10	1	-1E+10	1	-1E+10	1	-1E+10	1	-1E+10	1
4901784	39	C	07/29/2016	10:43	-132.560	44.938	0	719.90	0	4.0470	0	34.2190	0	27.166	0	712.822	0	14.8	4	4.7	4	-1E+10	1	-1E+10	1	-1E+10	1	-1E+10	1	-1E+10	1	-1E+10	1
4901784	39	C	07/29/2016	10:43	-132.560	44.938	0	725.60	0	4.0370	0	34.2220	0	27.169	0	718.456	0	14.6	4	4.6	4	-1E+10	1	-1E+10	1	-1E+10	1	-1E+10	1	-1E+10	1	-1E+10	1
4901784	39	C	07/29/2016	10:43	-132.560	44.938	0	730.40	0	4.0280	0	34.2240	0	27.172	0	723.201	0	14.4	4	4.6	4	-1E+10	1	-1E+10	1	-1E+10	1	-1E+10	1	-1E+10	1	-1E+10	1
4901784	39	C	07/29/2016	10:43	-132.560	44.938	0	735.20	0	4.0170	0	34.2280	0	27.176	0	727.945	0	14.2	4	4.5	4	-1E+10	1	-1E+10	1	-1E+10	1	-1E+10	1	-1E+10	1	-1E+10	1
4901784	39	C	07/29/2016	10:43	-132.560	44.938	0	739.90	0	4.0090	0	34.2310	0	27.179	0	732.590	0	14.0	4	4.4	4	-1E+10	1	-1E+10	1	-1E+10	1	-1E+10	1	-1E+10	1	-1E+10	1
4901784	39	C	07/29/2016	10:43	-132.560	44.938	0	744.70	0	3.9960	0	34.2360	0	27.184	0	737.335	0	13.8	4	4.3	4	-1E+10	1	-1E+10	1	-1E+10	1	-1E+10	1	-1E+10	1	-1E+10	1
4901784	39	C	07/29/2016	10:43	-132.560	44.938	0	750.50	0	3.9830	0	34.2390	0	27.188	0	743.067	0	13.5	4	4.3	4	-1E+10	1	-1E+10	1	-1E+10	1	-1E+10	1	-1E+10	1	-1E+10	1
4901784	39	C	07/29/2016	10:43	-132.560	44.938	0	755.30	0	3.9610	0	34.2450	0	27.195	0	747.811	0	13.3	4	4.2	4	-1E+10	1	-1E+10	1	-1E+10	1	-1E+10	1	-1E+10	1	-1E+10	1
4901784	39	C	07/29/2016	10:43	-132.560	44.938	0	760.00	0	3.9460	0	34.2510	0	27.202	0	752.456	0	13.1	4	4.1	4	-1E+10	1	-1E+10	1	-1E+10	1	-1E+10	1	-1E+10	1	-1E+10	1
4901784	39	C	07/29/2016	10:43	-132.560	44.938	0	764.90	0	3.9380	0	34.2540	0	27.205	0	757.298	0	12.9	4	4.1	4	-1E+10	1	-1E+10	1	-1E+10	1	-1E+10	1	-1E+10	1	-1E+10	1
4901784	39	C	07/29/2016	10:43	-132.560	44.938	0	769.70	0	3.9300	0	34.2580	0	27.209	0	762.042	0	12.8	4	4.0	4	-1E+10	1	-1E+10	1	-1E+10	1	-1E+10	1	-1E+10	1	-1E+10	1
4901784	39	C	07/29/2016	10:43	-132.560	44.938	0	775.50	0	3.9150	0	34.2610	0	27.213	0	767.773	0	12.6	4	4.0	4	-1E+10	1	-1E+10	1	-1E+10	1	-1E+10	1	-1E+10	1	-1E+10	1
4901784	39	C	07/29/2016	10:43	-132.560	44.938	0	780.30	0	3.9050	0	34.2650	0	27.217	0	772.517	0	12.5	4	3.9	4	-1E+10	1	-1E+10	1	-1E+10	1	-1E+10	1	-1E+10	1	-1E+10	1
4901784	39	C	07/29/2016	10:43	-132.560	44.938	0	784.80	0	3.8830	0	34.2680	0	27.222	0	776.963	0	12.5	4	3.9	4	-1E+10	1	-1E+10	1	-1E+10	1	-1E+10	1	-1E+10	1	-1E+10	1
4901784	39	C	07/29/2016	10:43	-132.560	44.938	0	790.00	0	3.8700	0	34.2730	0	27.227	0	782.102	0	12.3	4	3.9	4	-1E+10	1	-1E+10	1	-1E+10	1	-1E+10	1	-1E+10	1	-1E+10	1
4901784	39	C	07/29/2016	10:43	-132.560	44.938	0	795.70	0	3.8450	0	34.2790	0	27.234	0	787.734	0	12.3	4	3.9	4	-1E+10	1	-1E+10	1	-1E+10	1	-1E+10	1	-1E+10	1	-1E+10	1
4901784	39	C	07/29/2016	10:43	-132.560	44.938	0	800.70	0	3.8300	0	34.2800	0	27.237	0	792.674	0	12.3	4	3.9	4	-1E+10	1	-1E+10	1	-1E+10	1	-1E+10	1	-1E+10	1	-1E+10	1
4901784	39	C	07/29/2016	10:43	-132.560	44.938	0	805.80	0	3.8030	0	34.2850	0	27.243	0	797.713	0	12.2	4	3.8	4	-1E+10	1	-1E+10	1	-1E+10	1	-1E+10	1	-1E+10	1	-1E+10	1
4901784	39	C	07/29/2016	10:43	-132.560	44.938	0	810.00	0	3.7880	0	34.2890	0	27.248	0	801.863	0	12.1	4	3.8	4	-1E+10	1	-1E+10	1	-1E+10	1	-1E+10	1	-1E+10	1	-1E+10	1
4901784	39	C	07/29/2016	10:43	-132.560	44.938	0	814.20	0	3.7870	0	34.2910	0	27.250	0	806.013	0	12.0	4	3.8	4	-1E+10	1	-1E+10	1	-1E+10	1	-1E+10	1	-1E+10	1	-1E+10	1
4901784	39	C	07/29/2016	10:43	-132.560	44.938	0	819.30	0	3.7820	0	34.2930	0	27.252	0	811.052	0	11.8	4	3.7	4	-1E+10	1	-1E+10	1	-1E+10	1	-1E+10	1	-1E+10	1	-1E+10	1
4901784	39	C	07/29/2016	10:43	-132.560	44.938	0	824.30	0	3.7830	0	34.2980	0	27.256	0	815.992	0	11.6	4	3.6	4	-1E+10	1	-1E+10	1	-1E+10	1	-1E+10	1	-1E+10	1	-1E+10	1
4901784	39	C	07/29/2016	10:43	-132.560	44.938	0	829.30	0	3.7820	0	34.3030	0	27.260	0	820.932	0	11.4	4	3.6	4	-1E+10	1	-1E+10	1	-1E+10	1	-1E+10	1	-1E+10	1	-1E+10	1
4901784	39	C	07/29/2016	10:43	-132.560	44.938	0	834.40	0	3.7780	0	34.3050	0	27.262	0	825.970	0	11.4	4	3.6	4	-1E+10	1	-1E+10	1	-1E+10	1	-1E+10	1	-1E+10	1	-1E+10	1
4901784	39	C	07/29/2016	10:43	-132.560	44.938	0	839.50	0	3.7670	0	34.3070	0	27.265	0	831.008	0	11.3	4	3.6	4	-1E+10	1	-1E+10	1	-1E+10	1	-1E+10	1	-1E+10	1	-1E+10	1
4901784	39	C	07/29/2016	10:43	-132.560	44.938	0	844.60	0	3.7490	0	34.3110	0	27.270	0	836.047	0	11.4	4	3.6	4	-1E+10	1	-1E+10	1	-1E+10	1	-1E+10	1	-1E+10	1	-1E+10	1
4901784	39	C	07/29/2016	10:43	-132.560	44.938	0	849.70	0	3.7240	0	34.3130	0	27.274	0	841.085	0	11.5	4	3.6	4	-1E+10	1	-1E+10	1	-1E+10	1	-1E+10	1	-1E+10	1	-1E+10	1
4901784	39	C	07/29/2016	10:43	-132.560	44.938	0	854.90	0	3.6890	0	34.3150	0	27.279	0	846.221	0	11.6	4	3.6	4	-1E+10	1	-1E+10	1	-1E+10	1	-1E+10	1	-1E+10	1	-1E+10	1
4901784	39	C	07/29/2016	10:43	-132.560	44.938	0	860.10	0	3.6790	0	34.3170	0	27.281	0	851.358	0	11.5	4	3.6	4	-1E+10	1	-1E+10	1	-1E+10	1	-1E+10	1	-1E+10	1	-1E+10	1
4901784	39	C	07/29/2016	10:43	-132.560	44.938	0	865.20	0	3.6720	0	34.3220	0	27.286	0	856.396	0	11.4	4	3.6	4	-1E+10	1	-1E+10	1	-1E+10	1	-1E+10	1	-1E+10	1	-1E+10	1
4901784	39	C	07/29/2016	10:43	-132.560	44.938	0	870.40	0	3.6690	0	34.3240	0	27.288	0	861.532	0	11.4	4	3.6	4	-1E+10	1	-1E+10	1	-1E+10	1	-1E+10	1	-1E+10	1	-1E+10	1
4901784	39	C	07/29/2016	10:43	-132.560	44.938	0	875.60	0	3.6620	0	34.3260	0	27.290	0	866.668	0	11.4	4	3.6	4	-1E+10	1	-1E+10	1	-1E+10	1	-1E+10	1	-1E+10	1	-1E+10	1
4901784	39	C	07/29/2016	10:43	-132.560	44.938	0	879.90	0	3.6540	0	34.3270	0	27.292	0	870.916	0	11.4	4	3.6	4	-1E+10	1	-1E+10	1	-1E+10	1	-1E+10	1	-1E+10	1	-1E+10	1
4901784	39	C	07/29/2016	10:43	-132.560	44.938	0	884.30	0	3.6490	0	34.3320	0	27.297	0	875.261	0	11.4	4	3.6	4	-1E+10	1	-1E+10	1	-1E+10	1	-1E+10	1	-1E+10	1	-1E+10	1
4901784	39	C	07/29/2016	10:43	-132.560	44.938	0	889.60	0	3.6420	0	34.3340	0	27.299	0	880.496	0	11.4	4	3.6	4	-1E+10	1	-1E+10	1	-1E+10	1	-1E+10	1	-1E+10	1	-1E+10	1
4901784	39	C	07/29/2016	10:43	-132.560	44.938	0	894.90	0	3.6270	0	34.3370	0	27.303	0	885.731	0	11.4	4	3.6	4	-1E+10	1	-1E+10	1	-1E+10	1	-1E+10	1	-1E+10	1	-1E+10	1
4901784	39	C	07/29/2016	10:43	-132.560	44.938	0	900.20	0	3.6150	0	34.3380	0	27.305	0	890.965	0	11.4	4	3.6	4	-1E+10	1	-1E+10	1	-1E+10	1	-1E+10	1	-1E+10	1	-1E+10	1
4901784	39	C	07/29/2016	10:43	-132.560	44.938	0	905.60	0	3.5960	0	34.3410	0	27.309	0	896.298	0	11.5	4	3.6	4	-1E+10	1	-1E+10	1	-1E+10	1	-1E+10	1	-1E+10	1	-1E+10	1
4901784	39	C	07/29/2016	10:43	-132.560	44.938	0	910.00	0	3.5750	0	34.3430	0	27.313	0	900.643	0	11.5	4	3.6	4	-1E+10	1	-1E+10	1	-1E+10	1	-1E+10	1	-1E+10	1	-1E+10	1
4901784	39	C	07/29/2016	10:43	-132.560	44.938	0	914.60	0	3.5640	0	34.3460	0	27.316	0	905.186	0	11.6	4	3.6	4	-1E+10	1	-1E+10	1	-1E+10	1	-1E+10	1	-1E+10	1	-1E+10	1
4901784	39	C	07/29/2016	10:43	-132.560	44.938	0	920.10	0	3.5560	0	34.3520	0	27.322	0	910.618	0	11.7	4	3.6	4	-1E+10	1	-1E+10	1	-1E+10	1	-1E+10	1	-1E+10	1	-1E+10	1
4901784	39	C	07/29/2016	10:43	-132.560	44.938	0	925.60	0	3.5560	0	34.3560	0	27.325	0	916.049	0	11.7	4	3.7	4	-1E+10	1	-1E+10	1	-1E+10	1	-1E+10	1	-1E+10	1	-1E+10	1
4901784	39	C	07/29/2016	10:43	-132.560	44.938	0	930.20	0	3.5380	0	34.3570	0	27.328	0	920.591	0	11.7	4	3.7	4	-1E+10	1	-1E+10	1	-1E+10	1	-1E+10	1	-1E+10	1	-1E+10	1
4901784	39	C	07/29/2016	10:43	-132.560	44.938	0	934.80	0	3.5150	0	34.3610	0	27.333	0	925.134	0	11.7	4	3.7	4	-1E+10	1	-1E+10	1	-1E+10	1	-1E+10	1	-1E+10	1	-1E+10	1
4901784	39	C	07/29/2016	10:43	-132.560	44.938	0	940.40	0	3.5040	0	34.3630	0	27.336	0	930.663	0	11.7	4	3.7	4	-1E+10	1	-1E+10	1	-1E+10	1	-1E+10	1	-1E+10	1	-1E+10	1
4901784	39	C	07/29/2016	10:43	-132.560	44.938	0	944.60	0	3.4890	0	34.3630	0	27.337	0	934.810	0	11.7	4	3.6	4	-1E+10	1	-1E+10	1	-1E+10	1	-1E+10	1	-1E+10	1	-1E+10	1
4901784	39	C	07/29/2016	10:43	-132.560	44.938	0	949.40	0	3.4710	0	34.3660	0	27.341	0	939.550	0	11.7	4	3.7	4	-1E+10	1	-1E+10	1	-1E+10	1	-1E+10	1	-1E+10	1	-1E+10	1
4901784	39	C	07/29/2016	10:43	-132.560	44.938	0	954.20	0	3.4550	0	34.3690	0	27.345	0	944.289	0	11.7	4	3.7	4	-1E+10	1	-1E+10	1	-1E+10	1	-1E+10	1	-1E+10	1	-1E+10	1
4901784	39	C	07/29/2016	10:43	-132.560	44.938	0	959.90	0	3.4460	0	34.3700	0	27.347	0	949.917	0	11.8	4	3.7	4	-1E+10	1	-1E+10	1	-1E+10	1	-1E+10	1	-1E+10	1	-1E+10	1
4901784	39	C	07/29/2016	10:43	-132.560	44.938	0	965.70	0	3.4420	0	34.3700	0	27.347	0	955.644	0	11.8	4	3.7	4	-1E+10	1	-1E+10	1	-1E+10	1	-1E+10	1	-1E+10	1	-1E+10	1
4901784	39	C	07/29/2016	10:43	-132.560	44.938	0	970.70	0	3.4360	0	34.3750	0	27.352	0	960.580	0	11.9	4	3.7	4	-1E+10	1	-1E+10	1	-1E+10	1	-1E+10	1	-1E+10	1	-1E+10	1
4901784	39	C	07/29/2016	10:43	-132.560	44.938	0	975.80	0	3.4260	0	34.3790	0	27.356	0	965.615	0	11.9	4	3.7	4	-1E+10	1	-1E+10	1	-1E+10	1	-1E+10	1	-1E+10	1	-1E+10	1
4901784	39	C	07/29/2016	10:43	-132.560	44.938	0	980.00	0	3.4200	0	34.3800	0	27.358	0	969.762	0	12.0	4	3.7	4	-1E+10	1	-1E+10	1	-1E+10	1	-1E+10	1	-1E+10	1	-1E+10	1
4901784	39	C	07/29/2016	10:43	-132.560	44.938	0	984.30	0	3.4150	0	34.3840	0	27.361	0	974.007	0	12.0	4	3.7	4	-1E+10	1	-1E+10	1	-1E+10	1	-1E+10	1	-1E+10	1	-1E+10	1
4901784	39	C	07/29/2016	10:43	-132.560	44.938	0	989.40	0	3.4110	0	34.3880	0	27.365	0	979.042	0	12.2	4	3.8	4	-1E+10	1	-1E+10	1	-1E+10	1	-1E+10	1	-1E+10	1	-1E+10	1
4901784	39	C	07/29/2016	10:43	-132.560	44.938	0	994.50	0	3.3980	0	34.3910	0	27.368	0	984.076	0	12.5	4	3.9	4	-1E+10	1	-1E+10	1	-1E+10	1	-1E+10	1	-1E+10	1	-1E+10	1
4901784	39	C	07/29/2016	10:43	-132.560	44.938	0	999.60	0	3.3870	0	34.3920	0	27.370	0	989.111	0	13.0	4	4.0	4	-1E+10	1	-1E+10	1	-1E+10	1	-1E+10	1	-1E+10	1	-1E+10	1
4901784	39	C	07/29/2016	10:43	-132.560	44.938	0	1004.90	0	3.3960	0	34.3980	0	27.374	0	994.343	0	13.6	4	4.2	4	-1E+10	1	-1E+10	1	-1E+10	1	-1E+10	1	-1E+10	1	-1E+10	1
4901784	39	C	07/29/2016	10:43	-132.560	44.938	0	1010.20	0	3.4010	0	34.4000	0	27.376	0	999.574	0	13.8	4	4.3	4	-1E+10	1	-1E+10	1	-1E+10	1	-1E+10	1	-1E+10	1	-1E+10	1
4901784	39	C	07/29/2016	10:43	-132.560	44.938	0	1015.50	0	3.3980	0	34.4030	0	27.378	0	1004.806	0	13.9	4	4.3	4	-1E+10	1	-1E+10	1	-1E+10	1	-1E+10	1	-1E+10	1	-1E+10	1
4901784	39	C	07/29/2016	10:43	-132.560	44.938	0	1020.00	0	3.3890	0	34.4060	0	27.382	0	1009.248	0	13.9	4	4.3	4	-1E+10	1	-1E+10	1	-1E+10	1	-1E+10	1	-1E+10	1	-1E+10	1
4901784	39	C	07/29/2016	10:43	-132.560	44.938	0	1024.40	0	3.3670	0	34.4070	0	27.384	0	1013.591	0	13.8	4	4.3	4	-1E+10	1	-1E+10	1	-1E+10	1	-1E+10	1	-1E+10	1	-1E+10	1
4901784	39	C	07/29/2016	10:43	-132.560	44.938	0	1029.80	0	3.3470	0	34.4100	0	27.389	0	1018.920	0	13.8	4	4.3	4	-1E+10	1	-1E+10	1	-1E+10	1	-1E+10	1	-1E+10	1	-1E+10	1
4901784	39	C	07/29/2016	10:43	-132.560	44.938	0	1035.20	0	3.3370	0	34.4110	0	27.390	0	1024.250	0	13.9	4	4.3	4	-1E+10	1	-1E+10	1	-1E+10	1	-1E+10	1	-1E+10	1	-1E+10	1
4901784	39	C	07/29/2016	10:43	-132.560	44.938	0	1039.80	0	3.3300	0	34.4120	0	27.392	0	1028.790	0	14.0	4	4.4	4	-1E+10	1	-1E+10	1	-1E+10	1	-1E+10	1	-1E+10	1	-1E+10	1
4901784	39	C	07/29/2016	10:43	-132.560	44.938	0	1044.40	0	3.3230	0	34.4130	0	27.393	0	1033.330	0	14.1	4	4.4	4	-1E+10	1	-1E+10	1	-1E+10	1	-1E+10	1	-1E+10	1	-1E+10	1
4901784	39	C	07/29/2016	10:43	-132.560	44.938	0	1049.90	0	3.3140	0	34.4150	0	27.396	0	1038.758	0	14.1	4	4.4	4	-1E+10	1	-1E+10	1	-1E+10	1	-1E+10	1	-1E+10	1	-1E+10	1
4901784	39	C	07/29/2016	10:43	-132.560	44.938	0	1055.40	0	3.2960	0	34.4160	0	27.398	0	1044.186	0	14.2	4	4.4	4	-1E+10	1	-1E+10	1	-1E+10	1	-1E+10	1	-1E+10	1	-1E+10	1
4901784	39	C	07/29/2016	10:43	-132.560	44.938	0	1060.10	0	3.2870	0	34.4170	0	27.400	0	1048.825	0	14.2	4	4.4	4	-1E+10	1	-1E+10	1	-1E+10	1	-1E+10	1	-1E+10	1	-1E+10	1
4901784	39	C	07/29/2016	10:43	-132.560	44.938	0	1064.80	0	3.2780	0	34.4180	0	27.402	0	1053.463	0	14.2	4	4.4	4	-1E+10	1	-1E+10	1	-1E+10	1	-1E+10	1	-1E+10	1	-1E+10	1
4901784	39	C	07/29/2016	10:43	-132.560	44.938	0	1070.30	0	3.2720	0	34.4190	0	27.403	0	1058.890	0	14.3	4	4.4	4	-1E+10	1	-1E+10	1	-1E+10	1	-1E+10	1	-1E+10	1	-1E+10	1
4901784	39	C	07/29/2016	10:43	-132.560	44.938	0	1075.60	0	3.2620	0	34.4210	0	27.406	0	1064.120	0	14.4	4	4.5	4	-1E+10	1	-1E+10	1	-1E+10	1	-1E+10	1	-1E+10	1	-1E+10	1
4901784	39	C	07/29/2016	10:43	-132.560	44.938	0	1080.50	0	3.2480	0	34.4230	0	27.409	0	1068.956	0	14.4	4	4.5	4	-1E+10	1	-1E+10	1	-1E+10	1	-1E+10	1	-1E+10	1	-1E+10	1
4901784	39	C	07/29/2016	10:43	-132.560	44.938	0	1085.40	0	3.2300	0	34.4240	0	27.411	0	1073.791	0	14.3	4	4.5	4	-1E+10	1	-1E+10	1	-1E+10	1	-1E+10	1	-1E+10	1	-1E+10	1
4901784	39	C	07/29/2016	10:43	-132.560	44.938	0	1090.40	0	3.2250	0	34.4240	0	27.412	0	1078.724	0	14.4	4	4.5	4	-1E+10	1	-1E+10	1	-1E+10	1	-1E+10	1	-1E+10	1	-1E+10	1
4901784	39	C	07/29/2016	10:43	-132.560	44.938	0	1095.30	0	3.2160	0	34.4250	0	27.413	0	1083.559	0	14.5	4	4.5	4	-1E+10	1	-1E+10	1	-1E+10	1	-1E+10	1	-1E+10	1	-1E+10	1
4901784	39	C	07/29/2016	10:43	-132.560	44.938	0	1100.20	0	3.2130	0	34.4270	0	27.415	0	1088.394	0	14.7	4	4.6	4	-1E+10	1	-1E+10	1	-1E+10	1	-1E+10	1	-1E+10	1	-1E+10	1
4901784	39	C	07/29/2016	10:43	-132.560	44.938	0	1105.10	0	3.2100	0	34.4290	0	27.417	0	1093.229	0	15.0	4	4.6	4	-1E+10	1	-1E+10	1	-1E+10	1	-1E+10	1	-1E+10	1	-1E+10	1
4901784	39	C	07/29/2016	10:43	-132.560	44.938	0	1110.10	0	3.2120	0	34.4300	0	27.418	0	1098.162	0	15.3	4	4.7	4	-1E+10	1	-1E+10	1	-1E+10	1	-1E+10	1	-1E+10	1	-1E+10	1
4901784	39	C	07/29/2016	10:43	-132.560	44.938	0	1115.10	0	3.2030	0	34.4330	0	27.421	0	1103.095	0	15.5	4	4.8	4	-1E+10	1	-1E+10	1	-1E+10	1	-1E+10	1	-1E+10	1	-1E+10	1
4901784	39	C	07/29/2016	10:43	-132.560	44.938	0	1120.10	0	3.1910	0	34.4340	0	27.423	0	1108.028	0	15.6	4	4.8	4	-1E+10	1	-1E+10	1	-1E+10	1	-1E+10	1	-1E+10	1	-1E+10	1
4901784	39	C	07/29/2016	10:43	-132.560	44.938	0	1125.10	0	3.1810	0	34.4370	0	27.426	0	1112.961	0	15.8	4	4.9	4	-1E+10	1	-1E+10	1	-1E+10	1	-1E+10	1	-1E+10	1	-1E+10	1
4901784	39	C	07/29/2016	10:43	-132.560	44.938	0	1130.10	0	3.1800	0	34.4380	0	27.427	0	1117.894	0	16.2	4	5.0	4	-1E+10	1	-1E+10	1	-1E+10	1	-1E+10	1	-1E+10	1	-1E+10	1
4901784	39	C	07/29/2016	10:43	-132.560	44.938	0	1135.20	0	3.1820	0	34.4400	0	27.429	0	1122.925	0	16.7	4	5.2	4	-1E+10	1	-1E+10	1	-1E+10	1	-1E+10	1	-1E+10	1	-1E+10	1
4901784	39	C	07/29/2016	10:43	-132.560	44.938	0	1140.20	0	3.1920	0	34.4440	0	27.431	0	1127.857	0	17.2	4	5.3	4	-1E+10	1	-1E+10	1	-1E+10	1	-1E+10	1	-1E+10	1	-1E+10	1
4901784	39	C	07/29/2016	10:43	-132.560	44.938	0	1145.40	0	3.1990	0	34.4460	0	27.432	0	1132.987	0	17.5	4	5.4	4	-1E+10	1	-1E+10	1	-1E+10	1	-1E+10	1	-1E+10	1	-1E+10	1
4901784	39	C	07/29/2016	10:43	-132.560	44.938	0	1150.50	0	3.2070	0	34.4490	0	27.434	0	1138.018	0	17.7	4	5.5	4	-1E+10	1	-1E+10	1	-1E+10	1	-1E+10	1	-1E+10	1	-1E+10	1
4901784	39	C	07/29/2016	10:43	-132.560	44.938	0	1155.60	0	3.1950	0	34.4500	0	27.436	0	1143.049	0	17.6	4	5.5	4	-1E+10	1	-1E+10	1	-1E+10	1	-1E+10	1	-1E+10	1	-1E+10	1
4901784	39	C	07/29/2016	10:43	-132.560	44.938	0	1160.70	0	3.1790	0	34.4490	0	27.436	0	1148.080	0	17.6	4	5.4	4	-1E+10	1	-1E+10	1	-1E+10	1	-1E+10	1	-1E+10	1	-1E+10	1
4901784	39	C	07/29/2016	10:43	-132.560	44.938	0	1164.90	0	3.1760	0	34.4500	0	27.437	0	1152.222	0	17.6	4	5.4	4	-1E+10	1	-1E+10	1	-1E+10	1	-1E+10	1	-1E+10	1	-1E+10	1
4901784	39	C	07/29/2016	10:43	-132.560	44.938	0	1169.20	0	3.1710	0	34.4500	0	27.438	0	1156.464	0	17.5	4	5.4	4	-1E+10	1	-1E+10	1	-1E+10	1	-1E+10	1	-1E+10	1	-1E+10	1
4901784	39	C	07/29/2016	10:43	-132.560	44.938	0	1174.40	0	3.1480	0	34.4490	0	27.439	0	1161.593	0	17.4	4	5.4	4	-1E+10	1	-1E+10	1	-1E+10	1	-1E+10	1	-1E+10	1	-1E+10	1
4901784	39	C	07/29/2016	10:43	-132.560	44.938	0	1179.70	0	3.1370	0	34.4520	0	27.443	0	1166.820	0	17.6	4	5.4	4	-1E+10	1	-1E+10	1	-1E+10	1	-1E+10	1	-1E+10	1	-1E+10	1
4901784	39	C	07/29/2016	10:43	-132.560	44.938	0	1185.00	0	3.1330	0	34.4520	0	27.443	0	1172.048	0	17.7	4	5.5	4	-1E+10	1	-1E+10	1	-1E+10	1	-1E+10	1	-1E+10	1	-1E+10	1
4901784	39	C	07/29/2016	10:43	-132.560	44.938	0	1190.30	0	3.1270	0	34.4540	0	27.445	0	1177.275	0	17.9	4	5.5	4	-1E+10	1	-1E+10	1	-1E+10	1	-1E+10	1	-1E+10	1	-1E+10	1
4901784	39	C	07/29/2016	10:43	-132.560	44.938	0	1195.60	0	3.1170	0	34.4550	0	27.447	0	1182.502	0	18.0	4	5.6	4	-1E+10	1	-1E+10	1	-1E+10	1	-1E+10	1	-1E+10	1	-1E+10	1
4901784	39	C	07/29/2016	10:43	-132.560	44.938	0	1200.00	0	3.1160	0	34.4560	0	27.448	0	1186.841	0	18.1	4	5.6	4	-1E+10	1	-1E+10	1	-1E+10	1	-1E+10	1	-1E+10	1	-1E+10	1
4901784	39	C	07/29/2016	10:43	-132.560	44.938	0	1204.50	0	3.1170	0	34.4570	0	27.449	0	1191.279	0	18.3	4	5.7	4	-1E+10	1	-1E+10	1	-1E+10	1	-1E+10	1	-1E+10	1	-1E+10	1
4901784	39	C	07/29/2016	10:43	-132.560	44.938	0	1209.70	0	3.1130	0	34.4590	0	27.451	0	1196.407	0	18.5	4	5.7	4	-1E+10	1	-1E+10	1	-1E+10	1	-1E+10	1	-1E+10	1	-1E+10	1
4901784	39	C	07/29/2016	10:43	-132.560	44.938	0	1215.10	0	3.1030	0	34.4590	0	27.452	0	1201.733	0	18.4	4	5.7	4	-1E+10	1	-1E+10	1	-1E+10	1	-1E+10	1	-1E+10	1	-1E+10	1
4901784	39	C	07/29/2016	10:43	-132.560	44.938	0	1220.40	0	3.0860	0	34.4590	0	27.453	0	1206.959	0	18.3	4	5.7	4	-1E+10	1	-1E+10	1	-1E+10	1	-1E+10	1	-1E+10	1	-1E+10	1
4901784	39	C	07/29/2016	10:43	-132.560	44.938	0	1225.70	0	3.0620	0	34.4600	0	27.456	0	1212.186	0	18.5	4	5.7	4	-1E+10	1	-1E+10	1	-1E+10	1	-1E+10	1	-1E+10	1	-1E+10	1
4901784	39	C	07/29/2016	10:43	-132.560	44.938	0	1230.10	0	3.0630	0	34.4620	0	27.458	0	1216.524	0	18.7	4	5.8	4	-1E+10	1	-1E+10	1	-1E+10	1	-1E+10	1	-1E+10	1	-1E+10	1
4901784	39	C	07/29/2016	10:43	-132.560	44.938	0	1234.60	0	3.0600	0	34.4630	0	27.459	0	1220.962	0	18.8	4	5.8	4	-1E+10	1	-1E+10	1	-1E+10	1	-1E+10	1	-1E+10	1	-1E+10	1
4901784	39	C	07/29/2016	10:43	-132.560	44.938	0	1240.00	0	3.0540	0	34.4630	0	27.459	0	1226.286	0	18.9	4	5.8	4	-1E+10	1	-1E+10	1	-1E+10	1	-1E+10	1	-1E+10	1	-1E+10	1
4901784	39	C	07/29/2016	10:43	-132.560	44.938	0	1245.40	0	3.0480	0	34.4650	0	27.462	0	1231.611	0	19.1	4	5.9	4	-1E+10	1	-1E+10	1	-1E+10	1	-1E+10	1	-1E+10	1	-1E+10	1
4901784	39	C	07/29/2016	10:43	-132.560	44.938	0	1249.80	0	3.0400	0	34.4660	0	27.463	0	1235.949	0	19.2	4	5.9	4	-1E+10	1	-1E+10	1	-1E+10	1	-1E+10	1	-1E+10	1	-1E+10	1
4901784	39	C	07/29/2016	10:43	-132.560	44.938	0	1254.40	0	3.0340	0	34.4670	0	27.465	0	1240.485	0	19.3	4	6.0	4	-1E+10	1	-1E+10	1	-1E+10	1	-1E+10	1	-1E+10	1	-1E+10	1
4901784	39	C	07/29/2016	10:43	-132.560	44.938	0	1259.90	0	3.0230	0	34.4680	0	27.466	0	1245.907	0	19.6	4	6.0	4	-1E+10	1	-1E+10	1	-1E+10	1	-1E+10	1	-1E+10	1	-1E+10	1
4901784	39	C	07/29/2016	10:43	-132.560	44.938	0	1265.30	0	3.0150	0	34.4700	0	27.469	0	1251.231	0	19.9	4	6.1	4	-1E+10	1	-1E+10	1	-1E+10	1	-1E+10	1	-1E+10	1	-1E+10	1
4901784	39	C	07/29/2016	10:43	-132.560	44.938	0	1269.80	0	3.0040	0	34.4720	0	27.471	0	1255.668	0	20.2	4	6.2	4	-1E+10	1	-1E+10	1	-1E+10	1	-1E+10	1	-1E+10	1	-1E+10	1
4901784	39	C	07/29/2016	10:43	-132.560	44.938	0	1274.40	0	2.9940	0	34.4740	0	27.474	0	1260.203	0	20.5	4	6.3	4	-1E+10	1	-1E+10	1	-1E+10	1	-1E+10	1	-1E+10	1	-1E+10	1
4901784	39	C	07/29/2016	10:43	-132.560	44.938	0	1280.00	0	2.9830	0	34.4760	0	27.477	0	1265.724	0	20.7	4	6.4	4	-1E+10	1	-1E+10	1	-1E+10	1	-1E+10	1	-1E+10	1	-1E+10	1
4901784	39	C	07/29/2016	10:43	-132.560	44.938	0	1284.70	0	2.9740	0	34.4770	0	27.478	0	1270.357	0	20.9	4	6.5	4	-1E+10	1	-1E+10	1	-1E+10	1	-1E+10	1	-1E+10	1	-1E+10	1
4901784	39	C	07/29/2016	10:43	-132.560	44.938	0	1289.20	0	2.9630	0	34.4790	0	27.481	0	1274.793	0	21.1	4	6.5	4	-1E+10	1	-1E+10	1	-1E+10	1	-1E+10	1	-1E+10	1	-1E+10	1
4901784	39	C	07/29/2016	10:43	-132.560	44.938	0	1294.50	0	2.9560	0	34.4810	0	27.483	0	1280.018	0	21.4	4	6.6	4	-1E+10	1	-1E+10	1	-1E+10	1	-1E+10	1	-1E+10	1	-1E+10	1
4901784	39	C	07/29/2016	10:43	-132.560	44.938	0	1299.40	0	2.9500	0	34.4820	0	27.484	0	1284.848	0	21.6	4	6.7	4	-1E+10	1	-1E+10	1	-1E+10	1	-1E+10	1	-1E+10	1	-1E+10	1
4901784	39	C	07/29/2016	10:43	-132.560	44.938	0	1304.30	0	2.9450	0	34.4840	0	27.486	0	1289.678	0	21.8	4	6.7	4	-1E+10	1	-1E+10	1	-1E+10	1	-1E+10	1	-1E+10	1	-1E+10	1
4901784	39	C	07/29/2016	10:43	-132.560	44.938	0	1310.00	0	2.9400	0	34.4850	0	27.488	0	1295.297	0	22.0	4	6.8	4	-1E+10	1	-1E+10	1	-1E+10	1	-1E+10	1	-1E+10	1	-1E+10	1
4901784	39	C	07/29/2016	10:43	-132.560	44.938	0	1315.80	0	2.9290	0	34.4860	0	27.490	0	1301.014	0	22.3	4	6.9	4	-1E+10	1	-1E+10	1	-1E+10	1	-1E+10	1	-1E+10	1	-1E+10	1
4901784	39	C	07/29/2016	10:43	-132.560	44.938	0	1320.80	0	2.9210	0	34.4870	0	27.491	0	1305.942	0	22.4	4	6.9	4	-1E+10	1	-1E+10	1	-1E+10	1	-1E+10	1	-1E+10	1	-1E+10	1
4901784	39	C	07/29/2016	10:43	-132.560	44.938	0	1325.70	0	2.9160	0	34.4880	0	27.492	0	1310.772	0	22.7	4	7.0	4	-1E+10	1	-1E+10	1	-1E+10	1	-1E+10	1	-1E+10	1	-1E+10	1
4901784	39	C	07/29/2016	10:43	-132.560	44.938	0	1330.70	0	2.9120	0	34.4910	0	27.495	0	1315.700	0	23.0	4	7.1	4	-1E+10	1	-1E+10	1	-1E+10	1	-1E+10	1	-1E+10	1	-1E+10	1
4901784	39	C	07/29/2016	10:43	-132.560	44.938	0	1335.70	0	2.9030	0	34.4920	0	27.497	0	1320.628	0	23.2	4	7.2	4	-1E+10	1	-1E+10	1	-1E+10	1	-1E+10	1	-1E+10	1	-1E+10	1
4901784	39	C	07/29/2016	10:43	-132.560	44.938	0	1340.60	0	2.8950	0	34.4930	0	27.498	0	1325.457	0	23.3	4	7.2	4	-1E+10	1	-1E+10	1	-1E+10	1	-1E+10	1	-1E+10	1	-1E+10	1
4901784	39	C	07/29/2016	10:43	-132.560	44.938	0	1345.60	0	2.8850	0	34.4930	0	27.499	0	1330.385	0	23.4	4	7.2	4	-1E+10	1	-1E+10	1	-1E+10	1	-1E+10	1	-1E+10	1	-1E+10	1
4901784	39	C	07/29/2016	10:43	-132.560	44.938	0	1350.70	0	2.8770	0	34.4940	0	27.501	0	1335.411	0	23.7	4	7.3	4	-1E+10	1	-1E+10	1	-1E+10	1	-1E+10	1	-1E+10	1	-1E+10	1
4901784	39	C	07/29/2016	10:43	-132.560	44.938	0	1355.00	0	2.8710	0	34.4960	0	27.503	0	1339.649	0	23.9	4	7.4	4	-1E+10	1	-1E+10	1	-1E+10	1	-1E+10	1	-1E+10	1	-1E+10	1
4901784	39	C	07/29/2016	10:43	-132.560	44.938	0	1359.40	0	2.8700	0	34.4970	0	27.504	0	1343.985	0	24.1	4	7.4	4	-1E+10	1	-1E+10	1	-1E+10	1	-1E+10	1	-1E+10	1	-1E+10	1
4901784	39	C	07/29/2016	10:43	-132.560	44.938	0	1364.50	0	2.8630	0	34.4980	0	27.505	0	1349.011	0	24.3	4	7.5	4	-1E+10	1	-1E+10	1	-1E+10	1	-1E+10	1	-1E+10	1	-1E+10	1
4901784	39	C	07/29/2016	10:43	-132.560	44.938	0	1369.60	0	2.8570	0	34.4990	0	27.507	0	1354.037	0	24.4	4	7.5	4	-1E+10	1	-1E+10	1	-1E+10	1	-1E+10	1	-1E+10	1	-1E+10	1
4901784	39	C	07/29/2016	10:43	-132.560	44.938	0	1374.60	0	2.8500	0	34.5000	0	27.508	0	1358.964	0	24.5	4	7.6	4	-1E+10	1	-1E+10	1	-1E+10	1	-1E+10	1	-1E+10	1	-1E+10	1
4901784	39	C	07/29/2016	10:43	-132.560	44.938	0	1379.20	0	2.8420	0	34.5000	0	27.509	0	1363.496	0	24.6	4	7.6	4	-1E+10	1	-1E+10	1	-1E+10	1	-1E+10	1	-1E+10	1	-1E+10	1
4901784	39	C	07/29/2016	10:43	-132.560	44.938	0	1385.00	0	2.8290	0	34.5010	0	27.511	0	1369.212	0	24.8	4	7.6	4	-1E+10	1	-1E+10	1	-1E+10	1	-1E+10	1	-1E+10	1	-1E+10	1
4901784	39	C	07/29/2016	10:43	-132.560	44.938	0	1390.70	0	2.8160	0	34.5020	0	27.513	0	1374.828	0	25.0	4	7.7	4	-1E+10	1	-1E+10	1	-1E+10	1	-1E+10	1	-1E+10	1	-1E+10	1
4901784	39	C	07/29/2016	10:43	-132.560	44.938	0	1395.60	0	2.8100	0	34.5030	0	27.514	0	1379.656	0	25.2	4	7.8	4	-1E+10	1	-1E+10	1	-1E+10	1	-1E+10	1	-1E+10	1	-1E+10	1
4901784	39	C	07/29/2016	10:43	-132.560	44.938	0	1400.60	0	2.8030	0	34.5040	0	27.516	0	1384.583	0	25.3	4	7.8	4	-1E+10	1	-1E+10	1	-1E+10	1	-1E+10	1	-1E+10	1	-1E+10	1
4901784	39	C	07/29/2016	10:43	-132.560	44.938	0	1405.60	0	2.7800	0	34.5030	0	27.517	0	1389.509	0	25.3	4	7.8	4	-1E+10	1	-1E+10	1	-1E+10	1	-1E+10	1	-1E+10	1	-1E+10	1
4901784	39	C	07/29/2016	10:43	-132.560	44.938	0	1410.60	0	2.7680	0	34.5050	0	27.519	0	1394.435	0	25.6	4	7.8	4	-1E+10	1	-1E+10	1	-1E+10	1	-1E+10	1	-1E+10	1	-1E+10	1
4901784	39	C	07/29/2016	10:43	-132.560	44.938	0	1415.60	0	2.7630	0	34.5060	0	27.521	0	1399.361	0	25.7	4	7.9	4	-1E+10	1	-1E+10	1	-1E+10	1	-1E+10	1	-1E+10	1	-1E+10	1
4901784	39	C	07/29/2016	10:43	-132.560	44.938	0	1420.60	0	2.7590	0	34.5070	0	27.522	0	1404.287	0	26.0	4	8.0	4	-1E+10	1	-1E+10	1	-1E+10	1	-1E+10	1	-1E+10	1	-1E+10	1
4901784	39	C	07/29/2016	10:43	-132.560	44.938	0	1425.60	0	2.7550	0	34.5070	0	27.522	0	1409.213	0	26.2	4	8.0	4	-1E+10	1	-1E+10	1	-1E+10	1	-1E+10	1	-1E+10	1	-1E+10	1
4901784	39	C	07/29/2016	10:43	-132.560	44.938	0	1430.70	0	2.7390	0	34.5080	0	27.524	0	1414.238	0	26.3	4	8.1	4	-1E+10	1	-1E+10	1	-1E+10	1	-1E+10	1	-1E+10	1	-1E+10	1
4901784	39	C	07/29/2016	10:43	-132.560	44.938	0	1435.00	0	2.7270	0	34.5090	0	27.526	0	1418.474	0	26.3	4	8.1	4	-1E+10	1	-1E+10	1	-1E+10	1	-1E+10	1	-1E+10	1	-1E+10	1
4901784	39	C	07/29/2016	10:43	-132.560	44.938	0	1439.30	0	2.7180	0	34.5090	0	27.527	0	1422.710	0	26.3	4	8.1	4	-1E+10	1	-1E+10	1	-1E+10	1	-1E+10	1	-1E+10	1	-1E+10	1
4901784	39	C	07/29/2016	10:43	-132.560	44.938	0	1444.50	0	2.7110	0	34.5090	0	27.528	0	1427.832	0	26.4	4	8.1	4	-1E+10	1	-1E+10	1	-1E+10	1	-1E+10	1	-1E+10	1	-1E+10	1
4901784	39	C	07/29/2016	10:43	-132.560	44.938	0	1449.70	0	2.7000	0	34.5090	0	27.529	0	1432.954	0	26.4	4	8.1	4	-1E+10	1	-1E+10	1	-1E+10	1	-1E+10	1	-1E+10	1	-1E+10	1
4901784	39	C	07/29/2016	10:43	-132.560	44.938	0	1455.00	0	2.6880	0	34.5090	0	27.530	0	1438.175	0	26.2	4	8.0	4	-1E+10	1	-1E+10	1	-1E+10	1	-1E+10	1	-1E+10	1	-1E+10	1
4901784	39	C	07/29/2016	10:43	-132.560	44.938	0	1460.20	0	2.6740	0	34.5080	0	27.530	0	1443.297	0	26.0	4	8.0	4	-1E+10	1	-1E+10	1	-1E+10	1	-1E+10	1	-1E+10	1	-1E+10	1
4901784	39	C	07/29/2016	10:43	-132.560	44.938	0	1465.60	0	2.6630	0	34.5070	0	27.530	0	1448.616	0	26.0	4	8.0	4	-1E+10	1	-1E+10	1	-1E+10	1	-1E+10	1	-1E+10	1	-1E+10	1
4901784	39	C	07/29/2016	10:43	-132.560	44.938	0	1470.10	0	2.6530	0	34.5080	0	27.532	0	1453.049	0	26.2	4	8.0	4	-1E+10	1	-1E+10	1	-1E+10	1	-1E+10	1	-1E+10	1	-1E+10	1
4901784	39	C	07/29/2016	10:43	-132.560	44.938	0	1474.60	0	2.6370	0	34.5090	0	27.534	0	1457.481	0	26.5	4	8.1	4	-1E+10	1	-1E+10	1	-1E+10	1	-1E+10	1	-1E+10	1	-1E+10	1
4901784	39	C	07/29/2016	10:43	-132.560	44.938	0	1479.90	0	2.6240	0	34.5100	0	27.536	0	1462.701	0	26.8	4	8.2	4	-1E+10	1	-1E+10	1	-1E+10	1	-1E+10	1	-1E+10	1	-1E+10	1
4901784	39	C	07/29/2016	10:43	-132.560	44.938	0	1485.30	0	2.6190	0	34.5110	0	27.537	0	1468.020	0	26.9	4	8.2	4	-1E+10	1	-1E+10	1	-1E+10	1	-1E+10	1	-1E+10	1	-1E+10	1
4901784	39	C	07/29/2016	10:43	-132.560	44.938	0	1490.70	0	2.6070	0	34.5120	0	27.539	0	1473.338	0	27.0	4	8.3	4	-1E+10	1	-1E+10	1	-1E+10	1	-1E+10	1	-1E+10	1	-1E+10	1
4901784	39	C	07/29/2016	10:43	-132.560	44.938	0	1495.80	0	2.5970	0	34.5120	0	27.540	0	1478.361	0	26.9	4	8.2	4	-1E+10	1	-1E+10	1	-1E+10	1	-1E+10	1	-1E+10	1	-1E+10	1
4901784	39	C	07/29/2016	10:43	-132.560	44.938	0	1500.80	0	2.5710	0	34.5120	0	27.542	0	1483.285	0	26.7	4	8.2	4	-1E+10	1	-1E+10	1	-1E+10	1	-1E+10	1	-1E+10	1	-1E+10	1
4901784	39	C	07/29/2016	10:43	-132.560	44.938	0	1505.00	0	2.5590	0	34.5110	0	27.543	0	1487.421	0	26.6	4	8.1	4	-1E+10	1	-1E+10	1	-1E+10	1	-1E+10	1	-1E+10	1	-1E+10	1
4901784	39	C	07/29/2016	10:43	-132.560	44.938	0	1509.20	0	2.5460	0	34.5110	0	27.544	0	1491.557	0	26.6	4	8.1	4	-1E+10	1	-1E+10	1	-1E+10	1	-1E+10	1	-1E+10	1	-1E+10	1
4901784	39	C	07/29/2016	10:43	-132.560	44.938	0	1514.30	0	2.5370	0	34.5110	0	27.545	0	1496.580	0	26.8	4	8.2	4	-1E+10	1	-1E+10	1	-1E+10	1	-1E+10	1	-1E+10	1	-1E+10	1
4901784	39	C	07/29/2016	10:43	-132.560	44.938	0	1519.50	0	2.5350	0	34.5120	0	27.546	0	1501.700	0	27.1	4	8.3	4	-1E+10	1	-1E+10	1	-1E+10	1	-1E+10	1	-1E+10	1	-1E+10	1
4901784	39	C	07/29/2016	10:43	-132.560	44.938	0	1524.70	0	2.5310	0	34.5130	0	27.547	0	1506.821	0	27.6	4	8.4	4	-1E+10	1	-1E+10	1	-1E+10	1	-1E+10	1	-1E+10	1	-1E+10	1
4901784	39	C	07/29/2016	10:43	-132.560	44.938	0	1529.90	0	2.5260	0	34.5150	0	27.549	0	1511.941	0	28.0	4	8.5	4	-1E+10	1	-1E+10	1	-1E+10	1	-1E+10	1	-1E+10	1	-1E+10	1
4901784	39	C	07/29/2016	10:43	-132.560	44.938	0	1535.10	0	2.5170	0	34.5160	0	27.550	0	1517.062	0	28.4	4	8.7	4	-1E+10	1	-1E+10	1	-1E+10	1	-1E+10	1	-1E+10	1	-1E+10	1
4901784	39	C	07/29/2016	10:43	-132.560	44.938	0	1540.40	0	2.5050	0	34.5180	0	27.553	0	1522.280	0	28.8	4	8.8	4	-1E+10	1	-1E+10	1	-1E+10	1	-1E+10	1	-1E+10	1	-1E+10	1
4901784	39	C	07/29/2016	10:43	-132.560	44.938	0	1544.80	0	2.4950	0	34.5190	0	27.555	0	1526.613	0	29.0	4	8.9	4	-1E+10	1	-1E+10	1	-1E+10	1	-1E+10	1	-1E+10	1	-1E+10	1
4901784	39	C	07/29/2016	10:43	-132.560	44.938	0	1549.30	0	2.4920	0	34.5190	0	27.555	0	1531.043	0	29.2	4	8.9	4	-1E+10	1	-1E+10	1	-1E+10	1	-1E+10	1	-1E+10	1	-1E+10	1
4901784	39	C	07/29/2016	10:43	-132.560	44.938	0	1554.70	0	2.4850	0	34.5200	0	27.556	0	1536.360	0	29.4	4	9.0	4	-1E+10	1	-1E+10	1	-1E+10	1	-1E+10	1	-1E+10	1	-1E+10	1
4901784	39	C	07/29/2016	10:43	-132.560	44.938	0	1560.10	0	2.4740	0	34.5210	0	27.558	0	1541.677	0	29.5	4	9.0	4	-1E+10	1	-1E+10	1	-1E+10	1	-1E+10	1	-1E+10	1	-1E+10	1
4901784	39	C	07/29/2016	10:43	-132.560	44.938	0	1565.70	0	2.4690	0	34.5210	0	27.559	0	1547.190	0	29.6	4	9.0	4	-1E+10	1	-1E+10	1	-1E+10	1	-1E+10	1	-1E+10	1	-1E+10	1
4901784	39	C	07/29/2016	10:43	-132.560	44.938	0	1570.30	0	2.4600	0	34.5220	0	27.560	0	1551.719	0	29.6	4	9.0	4	-1E+10	1	-1E+10	1	-1E+10	1	-1E+10	1	-1E+10	1	-1E+10	1
4901784	39	C	07/29/2016	10:43	-132.560	44.938	0	1574.90	0	2.4530	0	34.5210	0	27.560	0	1556.248	0	29.7	4	9.0	4	-1E+10	1	-1E+10	1	-1E+10	1	-1E+10	1	-1E+10	1	-1E+10	1
4901784	39	C	07/29/2016	10:43	-132.560	44.938	0	1580.60	0	2.4420	0	34.5220	0	27.562	0	1561.859	0	29.9	4	9.1	4	-1E+10	1	-1E+10	1	-1E+10	1	-1E+10	1	-1E+10	1	-1E+10	1
4901784	39	C	07/29/2016	10:43	-132.560	44.938	0	1585.80	0	2.4320	0	34.5230	0	27.563	0	1566.978	0	30.2	4	9.2	4	-1E+10	1	-1E+10	1	-1E+10	1	-1E+10	1	-1E+10	1	-1E+10	1
4901784	39	C	07/29/2016	10:43	-132.560	44.938	0	1590.20	0	2.4200	0	34.5240	0	27.565	0	1571.310	0	30.4	4	9.3	4	-1E+10	1	-1E+10	1	-1E+10	1	-1E+10	1	-1E+10	1	-1E+10	1
4901784	39	C	07/29/2016	10:43	-132.560	44.938	0	1595.20	0	2.4070	0	34.5250	0	27.567	0	1576.232	0	30.7	4	9.4	4	-1E+10	1	-1E+10	1	-1E+10	1	-1E+10	1	-1E+10	1	-1E+10	1
4901784	39	C	07/29/2016	10:43	-132.560	44.938	0	1600.10	0	2.4020	0	34.5260	0	27.568	0	1581.055	0	31.0	4	9.4	4	-1E+10	1	-1E+10	1	-1E+10	1	-1E+10	1	-1E+10	1	-1E+10	1
4901784	39	C	07/29/2016	10:43	-132.560	44.938	0	1605.20	0	2.3940	0	34.5270	0	27.570	0	1586.075	0	31.3	4	9.5	4	-1E+10	1	-1E+10	1	-1E+10	1	-1E+10	1	-1E+10	1	-1E+10	1
4901784	39	C	07/29/2016	10:43	-132.560	44.938	0	1610.30	0	2.3860	0	34.5280	0	27.571	0	1591.095	0	31.6	4	9.6	4	-1E+10	1	-1E+10	1	-1E+10	1	-1E+10	1	-1E+10	1	-1E+10	1
4901784	39	C	07/29/2016	10:43	-132.560	44.938	0	1615.40	0	2.3770	0	34.5290	0	27.573	0	1596.115	0	31.9	4	9.7	4	-1E+10	1	-1E+10	1	-1E+10	1	-1E+10	1	-1E+10	1	-1E+10	1
4901784	39	C	07/29/2016	10:43	-132.560	44.938	0	1620.60	0	2.3690	0	34.5300	0	27.574	0	1601.234	0	32.2	4	9.8	4	-1E+10	1	-1E+10	1	-1E+10	1	-1E+10	1	-1E+10	1	-1E+10	1
4901784	39	C	07/29/2016	10:43	-132.560	44.938	0	1624.90	0	2.3640	0	34.5300	0	27.575	0	1605.466	0	32.4	4	9.9	4	-1E+10	1	-1E+10	1	-1E+10	1	-1E+10	1	-1E+10	1	-1E+10	1
4901784	39	C	07/29/2016	10:43	-132.560	44.938	0	1629.40	0	2.3600	0	34.5310	0	27.576	0	1609.895	0	32.6	4	9.9	4	-1E+10	1	-1E+10	1	-1E+10	1	-1E+10	1	-1E+10	1	-1E+10	1
4901784	39	C	07/29/2016	10:43	-132.560	44.938	0	1634.70	0	2.3550	0	34.5320	0	27.577	0	1615.111	0	33.0	4	10.0	4	-1E+10	1	-1E+10	1	-1E+10	1	-1E+10	1	-1E+10	1	-1E+10	1
4901784	39	C	07/29/2016	10:43	-132.560	44.938	0	1640.00	0	2.3460	0	34.5330	0	27.579	0	1620.328	0	33.4	4	10.2	4	-1E+10	1	-1E+10	1	-1E+10	1	-1E+10	1	-1E+10	1	-1E+10	1
4901784	39	C	07/29/2016	10:43	-132.560	44.938	0	1645.30	0	2.3370	0	34.5340	0	27.580	0	1625.544	0	33.8	4	10.3	4	-1E+10	1	-1E+10	1	-1E+10	1	-1E+10	1	-1E+10	1	-1E+10	1
4901784	39	C	07/29/2016	10:43	-132.560	44.938	0	1650.70	0	2.3250	0	34.5360	0	27.583	0	1630.858	0	34.2	4	10.4	4	-1E+10	1	-1E+10	1	-1E+10	1	-1E+10	1	-1E+10	1	-1E+10	1
4901784	39	C	07/29/2016	10:43	-132.560	44.938	0	1655.10	0	2.3170	0	34.5360	0	27.584	0	1635.188	0	34.5	4	10.5	4	-1E+10	1	-1E+10	1	-1E+10	1	-1E+10	1	-1E+10	1	-1E+10	1
4901784	39	C	07/29/2016	10:43	-132.560	44.938	0	1659.60	0	2.3110	0	34.5370	0	27.585	0	1639.617	0	34.8	4	10.6	4	-1E+10	1	-1E+10	1	-1E+10	1	-1E+10	1	-1E+10	1	-1E+10	1
4901784	39	C	07/29/2016	10:43	-132.560	44.938	0	1665.10	0	2.3010	0	34.5390	0	27.587	0	1645.029	0	35.2	4	10.7	4	-1E+10	1	-1E+10	1	-1E+10	1	-1E+10	1	-1E+10	1	-1E+10	1
4901784	39	C	07/29/2016	10:43	-132.560	44.938	0	1670.20	0	2.2940	0	34.5390	0	27.588	0	1650.048	0	35.6	4	10.8	4	-1E+10	1	-1E+10	1	-1E+10	1	-1E+10	1	-1E+10	1	-1E+10	1
4901784	39	C	07/29/2016	10:43	-132.560	44.938	0	1674.40	0	2.2860	0	34.5410	0	27.590	0	1654.181	0	35.8	4	10.9	4	-1E+10	1	-1E+10	1	-1E+10	1	-1E+10	1	-1E+10	1	-1E+10	1
4901784	39	C	07/29/2016	10:43	-132.560	44.938	0	1680.00	0	2.2810	0	34.5410	0	27.591	0	1659.691	0	36.3	4	11.0	4	-1E+10	1	-1E+10	1	-1E+10	1	-1E+10	1	-1E+10	1	-1E+10	1
4901784	39	C	07/29/2016	10:43	-132.560	44.938	0	1685.70	0	2.2720	0	34.5430	0	27.593	0	1665.300	0	37.0	4	11.2	4	-1E+10	1	-1E+10	1	-1E+10	1	-1E+10	1	-1E+10	1	-1E+10	1
4901784	39	C	07/29/2016	10:43	-132.560	44.938	0	1690.50	0	2.2640	0	34.5450	0	27.595	0	1670.023	0	37.5	4	11.4	4	-1E+10	1	-1E+10	1	-1E+10	1	-1E+10	1	-1E+10	1	-1E+10	1
4901784	39	C	07/29/2016	10:43	-132.560	44.938	0	1695.40	0	2.2600	0	34.5460	0	27.596	0	1674.844	0	37.8	4	11.5	4	-1E+10	1	-1E+10	1	-1E+10	1	-1E+10	1	-1E+10	1	-1E+10	1
4901784	39	C	07/29/2016	10:43	-132.560	44.938	0	1700.30	0	2.2570	0	34.5470	0	27.597	0	1679.666	0	38.1	4	11.6	4	-1E+10	1	-1E+10	1	-1E+10	1	-1E+10	1	-1E+10	1	-1E+10	1
4901784	39	C	07/29/2016	10:43	-132.560	44.938	0	1705.20	0	2.2530	0	34.5480	0	27.599	0	1684.487	0	38.4	4	11.6	4	-1E+10	1	-1E+10	1	-1E+10	1	-1E+10	1	-1E+10	1	-1E+10	1
4901784	39	C	07/29/2016	10:43	-132.560	44.938	0	1710.10	0	2.2460	0	34.5490	0	27.600	0	1689.308	0	38.6	4	11.7	4	-1E+10	1	-1E+10	1	-1E+10	1	-1E+10	1	-1E+10	1	-1E+10	1
4901784	39	C	07/29/2016	10:43	-132.560	44.938	0	1715.00	0	2.2420	0	34.5490	0	27.600	0	1694.128	0	38.8	4	11.8	4	-1E+10	1	-1E+10	1	-1E+10	1	-1E+10	1	-1E+10	1	-1E+10	1
4901784	39	C	07/29/2016	10:43	-132.560	44.938	0	1720.00	0	2.2390	0	34.5500	0	27.601	0	1699.048	0	39.0	4	11.8	4	-1E+10	1	-1E+10	1	-1E+10	1	-1E+10	1	-1E+10	1	-1E+10	1
4901784	39	C	07/29/2016	10:43	-132.560	44.938	0	1725.00	0	2.2320	0	34.5500	0	27.602	0	1703.967	0	39.2	4	11.9	4	-1E+10	1	-1E+10	1	-1E+10	1	-1E+10	1	-1E+10	1	-1E+10	1
4901784	39	C	07/29/2016	10:43	-132.560	44.938	0	1730.00	0	2.2230	0	34.5510	0	27.604	0	1708.885	0	39.6	4	12.0	4	-1E+10	1	-1E+10	1	-1E+10	1	-1E+10	1	-1E+10	1	-1E+10	1
4901784	39	C	07/29/2016	10:43	-132.560	44.938	0	1735.00	0	2.2150	0	34.5510	0	27.604	0	1713.804	0	40.1	4	12.2	4	-1E+10	1	-1E+10	1	-1E+10	1	-1E+10	1	-1E+10	1	-1E+10	1
4901784	39	C	07/29/2016	10:43	-132.560	44.938	0	1740.10	0	2.2040	0	34.5530	0	27.607	0	1718.821	0	40.7	4	12.3	4	-1E+10	1	-1E+10	1	-1E+10	1	-1E+10	1	-1E+10	1	-1E+10	1
4901784	39	C	07/29/2016	10:43	-132.560	44.938	0	1745.10	0	2.1910	0	34.5550	0	27.609	0	1723.740	0	41.2	4	12.5	4	-1E+10	1	-1E+10	1	-1E+10	1	-1E+10	1	-1E+10	1	-1E+10	1
4901784	39	C	07/29/2016	10:43	-132.560	44.938	0	1750.10	0	2.1860	0	34.5560	0	27.611	0	1728.658	0	41.5	4	12.6	4	-1E+10	1	-1E+10	1	-1E+10	1	-1E+10	1	-1E+10	1	-1E+10	1
4901784	39	C	07/29/2016	10:43	-132.560	44.938	0	1755.30	0	2.1800	0	34.5560	0	27.611	0	1733.773	0	42.0	4	12.7	4	-1E+10	1	-1E+10	1	-1E+10	1	-1E+10	1	-1E+10	1	-1E+10	1
4901784	39	C	07/29/2016	10:43	-132.560	44.938	0	1760.40	0	2.1660	0	34.5580	0	27.614	0	1738.790	0	42.6	4	12.9	4	-1E+10	1	-1E+10	1	-1E+10	1	-1E+10	1	-1E+10	1	-1E+10	1
4901784	39	C	07/29/2016	10:43	-132.560	44.938	0	1765.40	0	2.1580	0	34.5600	0	27.616	0	1743.708	0	42.9	4	13.0	4	-1E+10	1	-1E+10	1	-1E+10	1	-1E+10	1	-1E+10	1	-1E+10	1
4901784	39	C	07/29/2016	10:43	-132.560	44.938	0	1770.50	0	2.1540	0	34.5600	0	27.616	0	1748.724	0	43.0	4	13.0	4	-1E+10	1	-1E+10	1	-1E+10	1	-1E+10	1	-1E+10	1	-1E+10	1
4901784	39	C	07/29/2016	10:43	-132.560	44.938	0	1775.50	0	2.1530	0	34.5610	0	27.617	0	1753.642	0	43.2	4	13.1	4	-1E+10	1	-1E+10	1	-1E+10	1	-1E+10	1	-1E+10	1	-1E+10	1
4901784	39	C	07/29/2016	10:43	-132.560	44.938	0	1780.50	0	2.1480	0	34.5610	0	27.618	0	1758.560	0	43.5	4	13.2	4	-1E+10	1	-1E+10	1	-1E+10	1	-1E+10	1	-1E+10	1	-1E+10	1
4901784	39	C	07/29/2016	10:43	-132.560	44.938	0	1785.60	0	2.1410	0	34.5620	0	27.619	0	1763.576	0	43.8	4	13.2	4	-1E+10	1	-1E+10	1	-1E+10	1	-1E+10	1	-1E+10	1	-1E+10	1
4901784	39	C	07/29/2016	10:43	-132.560	44.938	0	1790.70	0	2.1400	0	34.5630	0	27.620	0	1768.592	0	43.9	4	13.3	4	-1E+10	1	-1E+10	1	-1E+10	1	-1E+10	1	-1E+10	1	-1E+10	1
4901784	39	C	07/29/2016	10:43	-132.560	44.938	0	1795.80	0	2.1400	0	34.5630	0	27.620	0	1773.608	0	44.0	4	13.3	4	-1E+10	1	-1E+10	1	-1E+10	1	-1E+10	1	-1E+10	1	-1E+10	1
4901784	39	C	07/29/2016	10:43	-132.560	44.938	0	1800.10	0	2.1380	0	34.5630	0	27.620	0	1777.837	0	44.2	4	13.4	4	-1E+10	1	-1E+10	1	-1E+10	1	-1E+10	1	-1E+10	1	-1E+10	1
4901784	39	C	07/29/2016	10:43	-132.560	44.938	0	1804.20	0	2.1340	0	34.5640	0	27.621	0	1781.869	0	44.5	4	13.5	4	-1E+10	1	-1E+10	1	-1E+10	1	-1E+10	1	-1E+10	1	-1E+10	1
4901784	39	C	07/29/2016	10:43	-132.560	44.938	0	1809.30	0	2.1290	0	34.5640	0	27.622	0	1786.884	0	44.8	4	13.6	4	-1E+10	1	-1E+10	1	-1E+10	1	-1E+10	1	-1E+10	1	-1E+10	1
4901784	39	C	07/29/2016	10:43	-132.560	44.938	0	1814.40	0	2.1260	0	34.5650	0	27.623	0	1791.899	0	45.1	4	13.6	4	-1E+10	1	-1E+10	1	-1E+10	1	-1E+10	1	-1E+10	1	-1E+10	1
4901784	39	C	07/29/2016	10:43	-132.560	44.938	0	1819.60	0	2.1230	0	34.5650	0	27.623	0	1797.013	0	45.5	4	13.7	4	-1E+10	1	-1E+10	1	-1E+10	1	-1E+10	1	-1E+10	1	-1E+10	1
4901784	39	C	07/29/2016	10:43	-132.560	44.938	0	1824.80	0	2.1130	0	34.5670	0	27.626	0	1802.126	0	45.9	4	13.9	4	-1E+10	1	-1E+10	1	-1E+10	1	-1E+10	1	-1E+10	1	-1E+10	1
4901784	39	C	07/29/2016	10:43	-132.560	44.938	0	1830.10	0	2.1100	0	34.5680	0	27.627	0	1807.338	0	46.1	4	14.0	4	-1E+10	1	-1E+10	1	-1E+10	1	-1E+10	1	-1E+10	1	-1E+10	1
4901784	39	C	07/29/2016	10:43	-132.560	44.938	0	1835.30	0	2.1050	0	34.5680	0	27.627	0	1812.451	0	46.5	4	14.1	4	-1E+10	1	-1E+10	1	-1E+10	1	-1E+10	1	-1E+10	1	-1E+10	1
4901784	39	C	07/29/2016	10:43	-132.560	44.938	0	1840.50	0	2.0970	0	34.5700	0	27.629	0	1817.564	0	46.9	4	14.2	4	-1E+10	1	-1E+10	1	-1E+10	1	-1E+10	1	-1E+10	1	-1E+10	1
4901784	39	C	07/29/2016	10:43	-132.560	44.938	0	1844.90	0	2.0940	0	34.5700	0	27.630	0	1821.891	0	47.1	4	14.2	4	-1E+10	1	-1E+10	1	-1E+10	1	-1E+10	1	-1E+10	1	-1E+10	1
4901784	39	C	07/29/2016	10:43	-132.560	44.938	0	1849.30	0	2.0910	0	34.5700	0	27.630	0	1826.217	0	47.4	4	14.3	4	-1E+10	1	-1E+10	1	-1E+10	1	-1E+10	1	-1E+10	1	-1E+10	1
4901784	39	C	07/29/2016	10:43	-132.560	44.938	0	1854.60	0	2.0850	0	34.5710	0	27.631	0	1831.428	0	47.8	4	14.5	4	-1E+10	1	-1E+10	1	-1E+10	1	-1E+10	1	-1E+10	1	-1E+10	1
4901784	39	C	07/29/2016	10:43	-132.560	44.938	0	1860.00	0	2.0780	0	34.5720	0	27.633	0	1836.737	0	48.3	4	14.6	4	-1E+10	1	-1E+10	1	-1E+10	1	-1E+10	1	-1E+10	1	-1E+10	1
4901784	39	C	07/29/2016	10:43	-132.560	44.938	0	1865.40	0	2.0690	0	34.5740	0	27.635	0	1842.046	0	48.7	4	14.7	4	-1E+10	1	-1E+10	1	-1E+10	1	-1E+10	1	-1E+10	1	-1E+10	1
4901784	39	C	07/29/2016	10:43	-132.560	44.938	0	1869.80	0	2.0650	0	34.5750	0	27.636	0	1846.372	0	48.9	4	14.8	4	-1E+10	1	-1E+10	1	-1E+10	1	-1E+10	1	-1E+10	1	-1E+10	1
4901784	39	C	07/29/2016	10:43	-132.560	44.938	0	1874.30	0	2.0650	0	34.5750	0	27.636	0	1850.796	0	49.0	4	14.8	4	-1E+10	1	-1E+10	1	-1E+10	1	-1E+10	1	-1E+10	1	-1E+10	1
4901784	39	C	07/29/2016	10:43	-132.560	44.938	0	1879.60	0	2.0630	0	34.5750	0	27.636	0	1856.006	0	49.1	4	14.8	4	-1E+10	1	-1E+10	1	-1E+10	1	-1E+10	1	-1E+10	1	-1E+10	1
4901784	39	C	07/29/2016	10:43	-132.560	44.938	0	1885.10	0	2.0620	0	34.5750	0	27.636	0	1861.413	0	49.3	4	14.9	4	-1E+10	1	-1E+10	1	-1E+10	1	-1E+10	1	-1E+10	1	-1E+10	1
4901784	39	C	07/29/2016	10:43	-132.560	44.938	0	1890.60	0	2.0610	0	34.5750	0	27.636	0	1866.820	0	49.5	4	14.9	4	-1E+10	1	-1E+10	1	-1E+10	1	-1E+10	1	-1E+10	1	-1E+10	1
4901784	39	C	07/29/2016	10:43	-132.560	44.938	0	1895.20	0	2.0580	0	34.5760	0	27.638	0	1871.342	0	49.9	4	15.1	4	-1E+10	1	-1E+10	1	-1E+10	1	-1E+10	1	-1E+10	1	-1E+10	1
4901784	39	C	07/29/2016	10:43	-132.560	44.938	0	1899.90	0	2.0490	0	34.5770	0	27.639	0	1875.962	0	50.4	4	15.2	4	-1E+10	1	-1E+10	1	-1E+10	1	-1E+10	1	-1E+10	1	-1E+10	1
4901784	39	C	07/29/2016	10:43	-132.560	44.938	0	1905.40	0	2.0400	0	34.5780	0	27.641	0	1881.369	0	50.9	4	15.4	4	-1E+10	1	-1E+10	1	-1E+10	1	-1E+10	1	-1E+10	1	-1E+10	1
4901784	39	C	07/29/2016	10:43	-132.560	44.938	0	1910.10	0	2.0340	0	34.5790	0	27.642	0	1885.988	0	51.2	4	15.5	4	-1E+10	1	-1E+10	1	-1E+10	1	-1E+10	1	-1E+10	1	-1E+10	1
4901784	39	C	07/29/2016	10:43	-132.560	44.938	0	1914.70	0	2.0270	0	34.5800	0	27.643	0	1890.510	0	51.6	4	15.6	4	-1E+10	1	-1E+10	1	-1E+10	1	-1E+10	1	-1E+10	1	-1E+10	1
4901784	39	C	07/29/2016	10:43	-132.560	44.938	0	1920.10	0	2.0230	0	34.5810	0	27.644	0	1895.818	0	51.9	4	15.7	4	-1E+10	1	-1E+10	1	-1E+10	1	-1E+10	1	-1E+10	1	-1E+10	1
4901784	39	C	07/29/2016	10:43	-132.560	44.938	0	1925.60	0	2.0170	0	34.5820	0	27.646	0	1901.224	0	52.1	4	15.7	4	-1E+10	1	-1E+10	1	-1E+10	1	-1E+10	1	-1E+10	1	-1E+10	1
4901784	39	C	07/29/2016	10:43	-132.560	44.938	0	1930.50	0	2.0160	0	34.5820	0	27.646	0	1906.040	0	52.2	4	15.8	4	-1E+10	1	-1E+10	1	-1E+10	1	-1E+10	1	-1E+10	1	-1E+10	1
4901784	39	C	07/29/2016	10:43	-132.560	44.938	0	1935.50	0	2.0150	0	34.5820	0	27.646	0	1910.954	0	52.4	4	15.8	4	-1E+10	1	-1E+10	1	-1E+10	1	-1E+10	1	-1E+10	1	-1E+10	1
4901784	39	C	07/29/2016	10:43	-132.560	44.938	0	1940.40	0	2.0130	0	34.5820	0	27.646	0	1915.770	0	52.6	4	15.9	4	-1E+10	1	-1E+10	1	-1E+10	1	-1E+10	1	-1E+10	1	-1E+10	1
4901784	39	C	07/29/2016	10:43	-132.560	44.938	0	1945.30	0	2.0090	0	34.5830	0	27.647	0	1920.585	0	52.9	4	16.0	4	-1E+10	1	-1E+10	1	-1E+10	1	-1E+10	1	-1E+10	1	-1E+10	1
4901784	39	C	07/29/2016	10:43	-132.560	44.938	0	1950.30	0	2.0040	0	34.5840	0	27.648	0	1925.499	0	53.3	4	16.1	4	-1E+10	1	-1E+10	1	-1E+10	1	-1E+10	1	-1E+10	1	-1E+10	1
4901784	39	C	07/29/2016	10:43	-132.560	44.938	0	1955.30	0	1.9990	0	34.5840	0	27.649	0	1930.413	0	53.7	4	16.2	4	-1E+10	1	-1E+10	1	-1E+10	1	-1E+10	1	-1E+10	1	-1E+10	1
4901784	39	C	07/29/2016	10:43	-132.560	44.938	0	1960.30	0	1.9930	0	34.5860	0	27.651	0	1935.327	0	54.1	4	16.3	4	-1E+10	1	-1E+10	1	-1E+10	1	-1E+10	1	-1E+10	1	-1E+10	1
4901784	39	C	07/29/2016	10:43	-132.560	44.938	0	1965.40	0	1.9880	0	34.5860	0	27.651	0	1940.339	0	54.4	4	16.4	4	-1E+10	1	-1E+10	1	-1E+10	1	-1E+10	1	-1E+10	1	-1E+10	1
4901784	39	C	07/29/2016	10:43	-132.560	44.938	0	1970.60	0	1.9840	0	34.5870	0	27.653	0	1945.448	0	54.7	4	16.5	4	-1E+10	1	-1E+10	1	-1E+10	1	-1E+10	1	-1E+10	1	-1E+10	1
4901784	39	C	07/29/2016	10:43	-132.560	44.938	0	1975.70	0	1.9810	0	34.5880	0	27.654	0	1950.460	0	54.9	4	16.6	4	-1E+10	1	-1E+10	1	-1E+10	1	-1E+10	1	-1E+10	1	-1E+10	1
4901784	39	C	07/29/2016	10:43	-132.560	44.938	0	1980.00	0	1.9790	0	34.5880	0	27.654	0	1954.685	0	55.1	4	16.6	4	-1E+10	1	-1E+10	1	-1E+10	1	-1E+10	1	-1E+10	1	-1E+10	1
4901784	39	C	07/29/2016	10:43	-132.560	44.938	0	1984.40	0	1.9780	0	34.5880	0	27.654	0	1959.009	0	55.3	4	16.7	4	-1E+10	1	-1E+10	1	-1E+10	1	-1E+10	1	-1E+10	1	-1E+10	1
4901784	39	C	07/29/2016	10:43	-132.560	44.938	0	1989.50	0	1.9750	0	34.5890	0	27.655	0	1964.020	0	55.4	4	16.7	4	-1E+10	1	-1E+10	1	-1E+10	1	-1E+10	1	-1E+10	1	-1E+10	1
4901784	39	C	07/29/2016	10:43	-132.560	44.938	0	1994.80	0	1.9730	0	34.5890	0	27.655	0	1969.228	0	55.7	4	16.8	4	-1E+10	1	-1E+10	1	-1E+10	1	-1E+10	1	-1E+10	1	-1E+10	1
4901784	39	C	07/29/2016	10:43	-132.560	44.938	0	2000.00	0	1.9700	0	34.5900	0	27.656	0	1974.337	0	55.9	4	16.9	4	-1E+10	1	-1E+10	1	-1E+10	1	-1E+10	1	-1E+10	1	-1E+10	1
4901784	39	C	07/29/2016	10:43	-132.560	44.938	0	2005.20	0	1.9680	0	34.5900	0	27.656	0	1979.446	0	56.1	4	16.9	4	-1E+10	1	-1E+10	1	-1E+10	1	-1E+10	1	-1E+10	1	-1E+10	1
4901784	39	C	07/29/2016	10:43	-132.560	44.938	0	2010.10	0	1.9650	0	34.5910	0	27.657	0	1984.261	0	56.4	4	17.0	4	-1E+10	1	-1E+10	1	-1E+10	1	-1E+10	1	-1E+10	1	-1E+10	1
4901784	39	C	07/29/2016	10:43	-132.560	44.938	0	2014.90	0	1.9610	0	34.5920	0	27.659	0	1988.976	0	56.7	4	17.1	4	-1E+10	1	-1E+10	1	-1E+10	1	-1E+10	1	-1E+10	1	-1E+10	1
4901784	39	C	07/29/2016	10:43	-132.560	44.938	0	2020.20	0	1.9570	0	34.5920	0	27.659	0	1994.183	0	57.0	4	17.2	4	-1E+10	1	-1E+10	1	-1E+10	1	-1E+10	1	-1E+10	1	-1E+10	1
4901784	39	C	07/29/2016	10:43	-132.560	44.938	0																										
4901784	40	C	08/08/2016	10:50	-132.514	44.973	0	2.10	0	16.4540	0	32.7220	0	23.894	0	2.083	0	238.8	4	97.6	4	-1E+10	1	-1E+10	1	-1E+10	1	-1E+10	1	-1E+10	1	-1E+10	1
4901784	40	C	08/08/2016	10:50	-132.514	44.973	0	3.70	0	16.4530	0	32.7220	0	23.894	0	3.670	0	238.6	4	97.5	4	-1E+10	1	-1E+10	1	-1E+10	1	-1E+10	1	-1E+10	1	-1E+10	1
4901784	40	C	08/08/2016	10:50	-132.514	44.973	0	5.40	0	16.4490	0	32.7220	0	23.895	0	5.356	0	238.5	4	97.5	4	-1E+10	1	-1E+10	1	-1E+10	1	-1E+10	1	-1E+10	1	-1E+10	1
4901784	40	C	08/08/2016	10:50	-132.514	44.973	0	7.00	0	16.4520	0	32.7220	0	23.895	0	6.943	0	238.4	4	97.4	4	-1E+10	1	-1E+10	1	-1E+10	1	-1E+10	1	-1E+10	1	-1E+10	1
4901784	40	C	08/08/2016	10:50	-132.514	44.973	0	8.50	0	16.4520	0	32.7220	0	23.895	0	8.431	0	238.1	4	97.3	4	-1E+10	1	-1E+10	1	-1E+10	1	-1E+10	1	-1E+10	1	-1E+10	1
4901784	40	C	08/08/2016	10:50	-132.514	44.973	0	10.20	0	16.4520	0	32.7220	0	23.895	0	10.117	0	238.0	4	97.3	4	-1E+10	1	-1E+10	1	-1E+10	1	-1E+10	1	-1E+10	1	-1E+10	1
4901784	40	C	08/08/2016	10:50	-132.514	44.973	0	12.20	0	16.4540	0	32.7210	0	23.894	0	12.101	0	237.7	4	97.2	4	-1E+10	1	-1E+10	1	-1E+10	1	-1E+10	1	-1E+10	1	-1E+10	1
4901784	40	C	08/08/2016	10:50	-132.514	44.973	0	12.70	0	16.4540	0	32.7210	0	23.894	0	12.597	0	237.8	4	97.2	4	-1E+10	1	-1E+10	1	-1E+10	1	-1E+10	1	-1E+10	1	-1E+10	1
4901784	40	C	08/08/2016	10:50	-132.514	44.973	0	14.20	0	16.4490	0	32.7200	0	23.894	0	14.084	0	237.7	4	97.1	4	-1E+10	1	-1E+10	1	-1E+10	1	-1E+10	1	-1E+10	1	-1E+10	1
4901784	40	C	08/08/2016	10:50	-132.514	44.973	0	15.70	0	16.4500	0	32.7200	0	23.894	0	15.572	0	237.6	4	97.1	4	-1E+10	1	-1E+10	1	-1E+10	1	-1E+10	1	-1E+10	1	-1E+10	1
4901784	40	C	08/08/2016	10:50	-132.514	44.973	0	17.10	0	16.4470	0	32.7200	0	23.895	0	16.961	0	237.4	4	97.0	4	-1E+10	1	-1E+10	1	-1E+10	1	-1E+10	1	-1E+10	1	-1E+10	1
4901784	40	C	08/08/2016	10:50	-132.514	44.973	0	18.50	0	16.4490	0	32.7200	0	23.894	0	18.349	0	237.4	4	97.0	4	-1E+10	1	-1E+10	1	-1E+10	1	-1E+10	1	-1E+10	1	-1E+10	1
4901784	40	C	08/08/2016	10:50	-132.514	44.973	0	19.70	0	16.4480	0	32.7180	0	23.893	0	19.539	0	237.6	4	97.1	4	-1E+10	1	-1E+10	1	-1E+10	1	-1E+10	1	-1E+10	1	-1E+10	1
4901784	40	C	08/08/2016	10:50	-132.514	44.973	0	21.20	0	16.4440	0	32.7160	0	23.892	0	21.027	0	238.0	4	97.3	4	-1E+10	1	-1E+10	1	-1E+10	1	-1E+10	1	-1E+10	1	-1E+10	1
4901784	40	C	08/08/2016	10:50	-132.514	44.973	0	22.10	0	16.4440	0	32.7120	0	23.889	0	21.919	0	238.6	4	97.5	4	-1E+10	1	-1E+10	1	-1E+10	1	-1E+10	1	-1E+10	1	-1E+10	1
4901784	40	C	08/08/2016	10:50	-132.514	44.973	0	23.10	0	16.4330	0	32.7020	0	23.884	0	22.911	0	240.2	4	98.1	4	-1E+10	1	-1E+10	1	-1E+10	1	-1E+10	1	-1E+10	1	-1E+10	1
4901784	40	C	08/08/2016	10:50	-132.514	44.973	0	23.90	0	16.4320	0	32.6870	0	23.873	0	23.705	0	243.2	4	99.3	4	-1E+10	1	-1E+10	1	-1E+10	1	-1E+10	1	-1E+10	1	-1E+10	1
4901784	40	C	08/08/2016	10:50	-132.514	44.973	0	24.60	0	16.3920	0	32.6610	0	23.862	0	24.399	0	246.2	4	100.4	4	-1E+10	1	-1E+10	1	-1E+10	1	-1E+10	1	-1E+10	1	-1E+10	1
4901784	40	C	08/08/2016	10:50	-132.514	44.973	0	25.60	0	15.4170	0	32.6400	0	24.064	0	25.391	0	252.8	4	101.2	4	-1E+10	1	-1E+10	1	-1E+10	1	-1E+10	1	-1E+10	1	-1E+10	1
4901784	40	C	08/08/2016	10:50	-132.514	44.973	0	26.80	0	13.4240	0	32.6880	0	24.519	0	26.581	0	264.2	4	101.7	4	-1E+10	1	-1E+10	1	-1E+10	1	-1E+10	1	-1E+10	1	-1E+10	1
4901784	40	C	08/08/2016	10:50	-132.514	44.973	0	28.00	0	12.8010	0	32.6980	0	24.650	0	27.771	0	269.6	4	102.4	4	-1E+10	1	-1E+10	1	-1E+10	1	-1E+10	1	-1E+10	1	-1E+10	1
4901784	40	C	08/08/2016	10:50	-132.514	44.973	0	29.40	0	12.4400	0	32.7280	0	24.743	0	29.159	0	272.4	4	102.7	4	-1E+10	1	-1E+10	1	-1E+10	1	-1E+10	1	-1E+10	1	-1E+10	1
4901784	40	C	08/08/2016	10:50	-132.514	44.973	0	30.90	0	12.0790	0	32.7850	0	24.856	0	30.647	0	273.4	4	102.4	4	-1E+10	1	-1E+10	1	-1E+10	1	-1E+10	1	-1E+10	1	-1E+10	1
4901784	40	C	08/08/2016	10:50	-132.514	44.973	0	32.40	0	11.9150	0	32.8100	0	24.906	0	32.135	0	273.2	4	102.0	4	-1E+10	1	-1E+10	1	-1E+10	1	-1E+10	1	-1E+10	1	-1E+10	1
4901784	40	C	08/08/2016	10:50	-132.514	44.973	0	34.10	0	11.7470	0	32.8370	0	24.958	0	33.820	0	273.6	4	101.8	4	-1E+10	1	-1E+10	1	-1E+10	1	-1E+10	1	-1E+10	1	-1E+10	1
4901784	40	C	08/08/2016	10:50	-132.514	44.973	0	34.60	0	11.7300	0	32.8350	0	24.959	0	34.316	0	273.5	4	101.7	4	-1E+10	1	-1E+10	1	-1E+10	1	-1E+10	1	-1E+10	1	-1E+10	1
4901784	40	C	08/08/2016	10:50	-132.514	44.973	0	36.00	0	11.6740	0	32.8360	0	24.971	0	35.705	0	272.9	4	101.4	4	-1E+10	1	-1E+10	1	-1E+10	1	-1E+10	1	-1E+10	1	-1E+10	1
4901784	40	C	08/08/2016	10:50	-132.514	44.973	0	37.50	0	11.4450	0	32.8560	0	25.028	0	37.192	0	273.2	4	101.0	4	-1E+10	1	-1E+10	1	-1E+10	1	-1E+10	1	-1E+10	1	-1E+10	1
4901784	40	C	08/08/2016	10:50	-132.514	44.973	0	38.80	0	11.4130	0	32.8600	0	25.037	0	38.482	0	271.8	4	100.5	4	-1E+10	1	-1E+10	1	-1E+10	1	-1E+10	1	-1E+10	1	-1E+10	1
4901784	40	C	08/08/2016	10:50	-132.514	44.973	0	40.30	0	11.3930	0	32.8560	0	25.037	0	39.969	0	269.7	4	99.6	4	-1E+10	1	-1E+10	1	-1E+10	1	-1E+10	1	-1E+10	1	-1E+10	1
4901784	40	C	08/08/2016	10:50	-132.514	44.973	0	41.70	0	11.3650	0	32.8500	0	25.038	0	41.357	0	267.1	4	98.6	4	-1E+10	1	-1E+10	1	-1E+10	1	-1E+10	1	-1E+10	1	-1E+10	1
4901784	40	C	08/08/2016	10:50	-132.514	44.973	0	43.20	0	11.1380	0	32.8510	0	25.079	0	42.845	0	264.5	4	97.2	4	-1E+10	1	-1E+10	1	-1E+10	1	-1E+10	1	-1E+10	1	-1E+10	1
4901784	40	C	08/08/2016	10:50	-132.514	44.973	0	44.90	0	10.9550	0	32.8600	0	25.119	0	44.531	0	262.0	4	95.9	4	-1E+10	1	-1E+10	1	-1E+10	1	-1E+10	1	-1E+10	1	-1E+10	1
4901784	40	C	08/08/2016	10:50	-132.514	44.973	0	46.50	0	10.7500	0	32.8670	0	25.160	0	46.117	0	260.8	4	95.1	4	-1E+10	1	-1E+10	1	-1E+10	1	-1E+10	1	-1E+10	1	-1E+10	1
4901784	40	C	08/08/2016	10:50	-132.514	44.973	0	48.10	0	10.6070	0	32.8630	0	25.182	0	47.704	0	259.8	4	94.4	4	-1E+10	1	-1E+10	1	-1E+10	1	-1E+10	1	-1E+10	1	-1E+10	1
4901784	40	C	08/08/2016	10:50	-132.514	44.973	0	49.70	0	10.4370	0	32.8680	0	25.215	0	49.291	0	259.1	4	93.8	4	-1E+10	1	-1E+10	1	-1E+10	1	-1E+10	1	-1E+10	1	-1E+10	1
4901784	40	C	08/08/2016	10:50	-132.514	44.973	0	51.40	0	10.3280	0	32.8660	0	25.232	0	50.977	0	258.7	4	93.4	4	-1E+10	1	-1E+10	1	-1E+10	1	-1E+10	1	-1E+10	1	-1E+10	1
4901784	40	C	08/08/2016	10:50	-132.514	44.973	0	53.10	0	10.2730	0	32.8700	0	25.245	0	52.662	0	258.3	4	93.2	4	-1E+10	1	-1E+10	1	-1E+10	1	-1E+10	1	-1E+10	1	-1E+10	1
4901784	40	C	08/08/2016	10:50	-132.514	44.973	0	54.90	0	10.2520	0	32.8610	0	25.241	0	54.447	0	257.8	4	92.9	4	-1E+10	1	-1E+10	1	-1E+10	1	-1E+10	1	-1E+10	1	-1E+10	1
4901784	40	C	08/08/2016	10:50	-132.514	44.973	0	56.60	0	10.0730	0	32.8530	0	25.265	0	56.133	0	257.8	4	92.6	4	-1E+10	1	-1E+10	1	-1E+10	1	-1E+10	1	-1E+10	1	-1E+10	1
4901784	40	C	08/08/2016	10:50	-132.514	44.973	0	58.50	0	10.0040	0	32.8450	0	25.270	0	58.017	0	257.5	4	92.3	4	-1E+10	1	-1E+10	1	-1E+10	1	-1E+10	1	-1E+10	1	-1E+10	1
4901784	40	C	08/08/2016	10:50	-132.514	44.973	0	60.20	0	9.9430	0	32.8450	0	25.281	0	59.703	0	256.7	4	91.9	4	-1E+10	1	-1E+10	1	-1E+10	1	-1E+10	1	-1E+10	1	-1E+10	1
4901784	40	C	08/08/2016	10:50	-132.514	44.973	0	62.10	0	9.8500	0	32.8530	0	25.302	0	61.587	0	256.4	4	91.6	4	-1E+10	1	-1E+10	1	-1E+10	1	-1E+10	1	-1E+10	1	-1E+10	1
4901784	40	C	08/08/2016	10:50	-132.514	44.973	0	63.90	0	9.8120	0	32.8580	0	25.312	0	63.372	0	255.9	4	91.4	4	-1E+10	1	-1E+10	1	-1E+10	1	-1E+10	1	-1E+10	1	-1E+10	1
4901784	40	C	08/08/2016	10:50	-132.514	44.973	0	65.70	0	9.7810	0	32.8580	0	25.318	0	65.156	0	255.5	4	91.2	4	-1E+10	1	-1E+10	1	-1E+10	1	-1E+10	1	-1E+10	1	-1E+10	1
4901784	40	C	08/08/2016	10:50	-132.514	44.973	0	67.50	0	9.7890	0	32.8660	0	25.322	0	66.941	0	254.8	4	91.0	4	-1E+10	1	-1E+10	1	-1E+10	1	-1E+10	1	-1E+10	1	-1E+10	1
4901784	40	C	08/08/2016	10:50	-132.514	44.973	0	69.30	0	9.7810	0	32.8790	0	25.334	0	68.726	0	254.0	4	90.7	4	-1E+10	1	-1E+10	1	-1E+10	1	-1E+10	1	-1E+10	1	-1E+10	1
4901784	40	C	08/08/2016	10:50	-132.514	44.973	0	71.20	0	9.8440	0	32.8970	0	25.338	0	70.610	0	252.8	4	90.4	4	-1E+10	1	-1E+10	1	-1E+10	1	-1E+10	1	-1E+10	1	-1E+10	1
4901784	40	C	08/08/2016	10:50	-132.514	44.973	0	72.90	0	9.8560	0	32.9020	0	25.340	0	72.296	0	251.4	4	89.9	4	-1E+10	1	-1E+10	1	-1E+10	1	-1E+10	1	-1E+10	1	-1E+10	1
4901784	40	C	08/08/2016	10:50	-132.514	44.973	0	74.80	0	9.8330	0	32.9210	0	25.358	0	74.180	0	250.4	4	89.5	4	-1E+10	1	-1E+10	1	-1E+10	1	-1E+10	1	-1E+10	1	-1E+10	1
4901784	40	C	08/08/2016	10:50	-132.514	44.973	0	76.60	0	9.7630	0	32.9310	0	25.378	0	75.964	0	249.9	4	89.2	4	-1E+10	1	-1E+10	1	-1E+10	1	-1E+10	1	-1E+10	1	-1E+10	1
4901784	40	C	08/08/2016	10:50	-132.514	44.973	0	78.40	0	9.7700	0	32.9380	0	25.382	0	77.749	0	248.6	4	88.8	4	-1E+10	1	-1E+10	1	-1E+10	1	-1E+10	1	-1E+10	1	-1E+10	1
4901784	40	C	08/08/2016	10:50	-132.514	44.973	0	80.30	0	9.7990	0	32.9580	0	25.393	0	79.633	0	247.0	4	88.2	4	-1E+10	1	-1E+10	1	-1E+10	1	-1E+10	1	-1E+10	1	-1E+10	1
4901784	40	C	08/08/2016	10:50	-132.514	44.973	0	82.00	0	9.7220	0	32.9730	0	25.417	0	81.318	0	245.5	4	87.6	4	-1E+10	1	-1E+10	1	-1E+10	1	-1E+10	1	-1E+10	1	-1E+10	1
4901784	40	C	08/08/2016	10:50	-132.514	44.973	0	83.90	0	9.7100	0	32.9930	0	25.435	0	83.202	0	244.4	4	87.2	4	-1E+10	1	-1E+10	1	-1E+10	1	-1E+10	1	-1E+10	1	-1E+10	1
4901784	40	C	08/08/2016	10:50	-132.514	44.973	0	85.70	0	9.6940	0	32.9990	0	25.442	0	84.987	0	242.7	4	86.5	4	-1E+10	1	-1E+10	1	-1E+10	1	-1E+10	1	-1E+10	1	-1E+10	1
4901784	40	C	08/08/2016	10:50	-132.514	44.973	0	87.50	0	9.6730	0	33.0180	0	25.461	0	86.772	0	240.6	4	85.8	4	-1E+10	1	-1E+10	1	-1E+10	1	-1E+10	1	-1E+10	1	-1E+10	1
4901784	40	C	08/08/2016	10:50	-132.514	44.973	0	89.30	0	9.6690	0	33.0240	0	25.466	0	88.556	0	238.4	4	85.0	4	-1E+10	1	-1E+10	1	-1E+10	1	-1E+10	1	-1E+10	1	-1E+10	1
4901784	40	C	08/08/2016	10:50	-132.514	44.973	0	91.10	0	9.6580	0	33.0520	0	25.490	0	90.341	0	235.6	4	84.0	4	-1E+10	1	-1E+10	1	-1E+10	1	-1E+10	1	-1E+10	1	-1E+10	1
4901784	40	C	08/08/2016	10:50	-132.514	44.973	0	92.80	0	9.6370	0	33.0820	0	25.517	0	92.026	0	233.0	4	83.0	4	-1E+10	1	-1E+10	1	-1E+10	1	-1E+10	1	-1E+10	1	-1E+10	1
4901784	40	C	08/08/2016	10:50	-132.514	44.973	0	94.50	0	9.6250	0	33.1110	0	25.541	0	93.712	0	230.5	4	82.1	4	-1E+10	1	-1E+10	1	-1E+10	1	-1E+10	1	-1E+10	1	-1E+10	1
4901784	40	C	08/08/2016	10:50	-132.514	44.973	0	96.30	0	9.6150	0	33.1240	0	25.553	0	95.496	0	227.8	4	81.2	4	-1E+10	1	-1E+10	1	-1E+10	1	-1E+10	1	-1E+10	1	-1E+10	1
4901784	40	C	08/08/2016	10:50	-132.514	44.973	0	98.00	0	9.5920	0	33.1460	0	25.574	0	97.182	0	224.6	4	80.0	4	-1E+10	1	-1E+10	1	-1E+10	1	-1E+10	1	-1E+10	1	-1E+10	1
4901784	40	C	08/08/2016	10:50	-132.514	44.973	0	99.70	0	9.5810	0	33.1550	0	25.583	0	98.867	0	221.3	4	78.8	4	-1E+10	1	-1E+10	1	-1E+10	1	-1E+10	1	-1E+10	1	-1E+10	1
4901784	40	C	08/08/2016	10:50	-132.514	44.973	0	102.40	0	9.4740	0	33.2490	0	25.674	0	101.544	0	215.7	4	76.7	4	-1E+10	1	-1E+10	1	-1E+10	1	-1E+10	1	-1E+10	1	-1E+10	1
4901784	40	C	08/08/2016	10:50	-132.514	44.973	0	105.10	0	9.3600	0	33.2920	0	25.726	0	104.221	0	211.7	4	75.1	4	-1E+10	1	-1E+10	1	-1E+10	1	-1E+10	1	-1E+10	1	-1E+10	1
4901784	40	C	08/08/2016	10:50	-132.514	44.973	0	107.80	0	9.2730	0	33.3610	0	25.794	0	106.897	0	209.2	4	74.1	4	-1E+10	1	-1E+10	1	-1E+10	1	-1E+10	1	-1E+10	1	-1E+10	1
4901784	40	C	08/08/2016	10:50	-132.514	44.973	0	110.60	0	9.2540	0	33.3720	0	25.805	0	109.673	0	207.0	4	73.3	4	-1E+10	1	-1E+10	1	-1E+10	1	-1E+10	1	-1E+10	1	-1E+10	1
4901784	40	C	08/08/2016	10:50	-132.514	44.973	0	112.40	0	9.2430	0	33.3780	0	25.812	0	111.458	0	204.9	4	72.5	4	-1E+10	1	-1E+10	1	-1E+10	1	-1E+10	1	-1E+10	1	-1E+10	1
4901784	40	C	08/08/2016	10:50	-132.514	44.973	0	114.90	0	9.1500	0	33.4670	0	25.896	0	113.936	0	202.1	4	71.5	4	-1E+10	1	-1E+10	1	-1E+10	1	-1E+10	1	-1E+10	1	-1E+10	1
4901784	40	C	08/08/2016	10:50	-132.514	44.973	0	118.20	0	9.0780	0	33.5320	0	25.959	0	117.207	0	199.9	4	70.6	4	-1E+10	1	-1E+10	1	-1E+10	1	-1E+10	1	-1E+10	1	-1E+10	1
4901784	40	C	08/08/2016	10:50	-132.514	44.973	0	120.10	0	9.0420	0	33.5600	0	25.986	0	119.091	0	198.6	4	70.1	4	-1E+10	1	-1E+10	1	-1E+10	1	-1E+10	1	-1E+10	1	-1E+10	1
4901784	40	C	08/08/2016	10:50	-132.514	44.973	0	122.40	0	8.9830	0	33.6120	0	26.036	0	121.371	0	197.5	4	69.7	4	-1E+10	1	-1E+10	1	-1E+10	1	-1E+10	1	-1E+10	1	-1E+10	1
4901784	40	C	08/08/2016	10:50	-132.514	44.973	0	125.40	0	8.9650	0	33.6350	0	26.057	0	124.345	0	196.3	4	69.2	4	-1E+10	1	-1E+10	1	-1E+10	1	-1E+10	1	-1E+10	1	-1E+10	1
4901784	40	C	08/08/2016	10:50	-132.514	44.973	0	127.70	0	8.9520	0	33.6530	0	26.073	0	126.625	0	195.4	4	68.9	4	-1E+10	1	-1E+10	1	-1E+10	1	-1E+10	1	-1E+10	1	-1E+10	1
4901784	40	C	08/08/2016	10:50	-132.514	44.973	0	130.20	0	8.8820	0	33.7190	0	26.136	0	129.103	0	194.5	4	68.5	4	-1E+10	1	-1E+10	1	-1E+10	1	-1E+10	1	-1E+10	1	-1E+10	1
4901784	40	C	08/08/2016	10:50	-132.514	44.973	0	132.70	0	8.8400	0	33.7640	0	26.178	0	131.581	0	194.2	4	68.3	4	-1E+10	1	-1E+10	1	-1E+10	1	-1E+10	1	-1E+10	1	-1E+10	1
4901784	40	C	08/08/2016	10:50	-132.514	44.973	0	135.30	0	8.8340	0	33.7760	0	26.188	0	134.158	0	194.0	4	68.3	4	-1E+10	1	-1E+10	1	-1E+10	1	-1E+10	1	-1E+10	1	-1E+10	1
4901784	40	C	08/08/2016	10:50	-132.514	44.973	0	137.90	0	8.8310	0	33.7830	0	26.194	0	136.735	0	193.7	4	68.2	4	-1E+10	1	-1E+10	1	-1E+10	1	-1E+10	1	-1E+10	1	-1E+10	1
4901784	40	C	08/08/2016	10:50	-132.514	44.973	0	139.70	0	8.8290	0	33.7860	0	26.197	0	138.519	0	193.4	4	68.0	4	-1E+10	1	-1E+10	1	-1E+10	1	-1E+10	1	-1E+10	1	-1E+10	1
4901784	40	C	08/08/2016	10:50	-132.514	44.973	0	142.20	0	8.8250	0	33.7940	0	26.204	0	140.997	0	193.1	4	67.9	4	-1E+10	1	-1E+10	1	-1E+10	1	-1E+10	1	-1E+10	1	-1E+10	1
4901784	40	C	08/08/2016	10:50	-132.514	44.973	0	144.90	0	8.8080	0	33.8120	0	26.221	0	143.674	0	192.5	4	67.7	4	-1E+10	1	-1E+10	1	-1E+10	1	-1E+10	1	-1E+10	1	-1E+10	1
4901784	40	C	08/08/2016	10:50	-132.514	44.973	0	147.70	0	8.7860	0	33.8450	0	26.250	0	146.449	0	191.9	4	67.5	4	-1E+10	1	-1E+10	1	-1E+10	1	-1E+10	1	-1E+10	1	-1E+10	1
4901784	40	C	08/08/2016	10:50	-132.514	44.973	0	150.50	0	8.7690	0	33.8550	0	26.261	0	149.224	0	191.4	4	67.3	4	-1E+10	1	-1E+10	1	-1E+10	1	-1E+10	1	-1E+10	1	-1E+10	1
4901784	40	C	08/08/2016	10:50	-132.514	44.973	0	152.30	0	8.7630	0	33.8560	0	26.262	0	151.008	0	190.9	4	67.1	4	-1E+10	1	-1E+10	1	-1E+10	1	-1E+10	1	-1E+10	1	-1E+10	1
4901784	40	C	08/08/2016	10:50	-132.514	44.973	0	155.20	0	8.7230	0	33.8720	0	26.281	0	153.883	0	190.4	4	66.9	4	-1E+10	1	-1E+10	1	-1E+10	1	-1E+10	1	-1E+10	1	-1E+10	1
4901784	40	C	08/08/2016	10:50	-132.514	44.973	0	158.00	0	8.7060	0	33.8760	0	26.287	0	156.658	0	190.1	4	66.8	4	-1E+10	1	-1E+10	1	-1E+10	1	-1E+10	1	-1E+10	1	-1E+10	1
4901784	40	C	08/08/2016	10:50	-132.514	44.973	0	159.90	0	8.7020	0	33.8770	0	26.288	0	158.541	0	189.9	4	66.7	4	-1E+10	1	-1E+10	1	-1E+10	1	-1E+10	1	-1E+10	1	-1E+10	1
4901784	40	C	08/08/2016	10:50	-132.514	44.973	0	161.80	0	8.6940	0	33.8800	0	26.292	0	160.424	0	189.5	4	66.5	4	-1E+10	1	-1E+10	1	-1E+10	1	-1E+10	1	-1E+10	1	-1E+10	1
4901784	40	C	08/08/2016	10:50	-132.514	44.973	0	164.70	0	8.6840	0	33.8830	0	26.296	0	163.298	0	188.8	4	66.3	4	-1E+10	1	-1E+10	1	-1E+10	1	-1E+10	1	-1E+10	1	-1E+10	1
4901784	40	C	08/08/2016	10:50	-132.514	44.973	0	167.60	0	8.6440	0	33.8930	0	26.310	0	166.172	0	188.1	4	66.0	4	-1E+10	1	-1E+10	1	-1E+10	1	-1E+10	1	-1E+10	1	-1E+10	1
4901784	40	C	08/08/2016	10:50	-132.514	44.973	0	169.40	0	8.6340	0	33.8930	0	26.312	0	167.956	0	187.6	4	65.8	4	-1E+10	1	-1E+10	1	-1E+10	1	-1E+10	1	-1E+10	1	-1E+10	1
4901784	40	C	08/08/2016	10:50	-132.514	44.973	0	172.40	0	8.6050	0	33.8970	0	26.319	0	170.930	0	186.7	4	65.4	4	-1E+10	1	-1E+10	1	-1E+10	1	-1E+10	1	-1E+10	1	-1E+10	1
4901784	40	C	08/08/2016	10:50	-132.514	44.973	0	175.20	0	8.5550	0	33.9030	0	26.332	0	173.705	0	185.6	4	65.0	4	-1E+10	1	-1E+10	1	-1E+10	1	-1E+10	1	-1E+10	1	-1E+10	1
4901784	40	C	08/08/2016	10:50	-132.514	44.973	0	177.60	0	8.5120	0	33.9050	0	26.340	0	176.083	0	184.6	4	64.6	4	-1E+10	1	-1E+10	1	-1E+10	1	-1E+10	1	-1E+10	1	-1E+10	1
4901784	40	C	08/08/2016	10:50	-132.514	44.973	0	179.90	0	8.5020	0	33.9050	0	26.341	0	178.362	0	183.4	4	64.1	4	-1E+10	1	-1E+10	1	-1E+10	1	-1E+10	1	-1E+10	1	-1E+10	1
4901784	40	C	08/08/2016	10:50	-132.514	44.973	0	182.40	0	8.4460	0	33.9050	0	26.350	0	180.840	0	182.0	4	63.5	4	-1E+10	1	-1E+10	1	-1E+10	1	-1E+10	1	-1E+10	1	-1E+10	1
4901784	40	C	08/08/2016	10:50	-132.514	44.973	0	184.90	0	8.3570	0	33.9100	0	26.367	0	183.317	0	180.8	4	63.0	4	-1E+10	1	-1E+10	1	-1E+10	1	-1E+10	1	-1E+10	1	-1E+10	1
4901784	40	C	08/08/2016	10:50	-132.514	44.973	0	187.40	0	8.3390	0	33.9100	0	26.370	0	185.795	0	179.4	4	62.5	4	-1E+10	1	-1E+10	1	-1E+10	1	-1E+10	1	-1E+10	1	-1E+10	1
4901784	40	C	08/08/2016	10:50	-132.514	44.973	0	189.90	0	8.3100	0	33.9090	0	26.374	0	188.272	0	177.6	4	61.9	4	-1E+10	1	-1E+10	1	-1E+10	1	-1E+10	1	-1E+10	1	-1E+10	1
4901784	40	C	08/08/2016	10:50	-132.514	44.973	0	192.50	0	8.2510	0	33.9030	0	26.378	0	190.849	0	175.4	4	61.0	4	-1E+10	1	-1E+10	1	-1E+10	1	-1E+10	1	-1E+10	1	-1E+10	1
4901784	40	C	08/08/2016	10:50	-132.514	44.973	0	195.00	0	8.1510	0	33.8980	0	26.389	0	193.326	0	173.9	4	60.3	4	-1E+10	1	-1E+10	1	-1E+10	1	-1E+10	1	-1E+10	1	-1E+10	1
4901784	40	C	08/08/2016	10:50	-132.514	44.973	0	197.60	0	8.0990	0	33.9000	0	26.398	0	195.903	0	173.2	4	60.0	4	-1E+10	1	-1E+10	1	-1E+10	1	-1E+10	1	-1E+10	1	-1E+10	1
4901784	40	C	08/08/2016	10:50	-132.514	44.973	0	200.20	0	8.1030	0	33.9030	0	26.400	0	198.479	0	172.4	4	59.7	4	-1E+10	1	-1E+10	1	-1E+10	1	-1E+10	1	-1E+10	1	-1E+10	1
4901784	40	C	08/08/2016	10:50	-132.514	44.973	0	202.80	0	8.0670	0	33.9100	0	26.411	0	201.056	0	171.0	4	59.2	4	-1E+10	1	-1E+10	1	-1E+10	1	-1E+10	1	-1E+10	1	-1E+10	1
4901784	40	C	08/08/2016	10:50	-132.514	44.973	0	205.40	0	8.0260	0	33.9070	0	26.415	0	203.632	0	169.6	4	58.7	4	-1E+10	1	-1E+10	1	-1E+10	1	-1E+10	1	-1E+10	1	-1E+10	1
4901784	40	C	08/08/2016	10:50	-132.514	44.973	0	207.00	0	7.9790	0	33.9070	0	26.422	0	205.217	0	168.4	4	58.2	4	-1E+10	1	-1E+10	1	-1E+10	1	-1E+10	1	-1E+10	1	-1E+10	1
4901784	40	C	08/08/2016	10:50	-132.514	44.973	0	209.70	0	7.8690	0	33.9060	0	26.437	0	207.893	0	167.0	4	57.6	4	-1E+10	1	-1E+10	1	-1E+10	1	-1E+10	1	-1E+10	1	-1E+10	1
4901784	40	C	08/08/2016	10:50	-132.514	44.973	0	212.30	0	7.8100	0	33.9030	0	26.443	0	210.469	0	166.2	4	57.2	4	-1E+10	1	-1E+10	1	-1E+10	1	-1E+10	1	-1E+10	1	-1E+10	1
4901784	40	C	08/08/2016	10:50	-132.514	44.973	0	214.90	0	7.7660	0	33.9050	0	26.451	0	213.045	0	165.5	4	56.9	4	-1E+10	1	-1E+10	1	-1E+10	1	-1E+10	1	-1E+10	1	-1E+10	1
4901784	40	C	08/08/2016	10:50	-132.514	44.973	0	217.40	0	7.7400	0	33.9030	0	26.454	0	215.522	0	164.6	4	56.6	4	-1E+10	1	-1E+10	1	-1E+10	1	-1E+10	1	-1E+10	1	-1E+10	1
4901784	40	C	08/08/2016	10:50	-132.514	44.973	0	220.00	0	7.7030	0	33.9030	0	26.459	0	218.099	0	163.6	4	56.2	4	-1E+10	1	-1E+10	1	-1E+10	1	-1E+10	1	-1E+10	1	-1E+10	1
4901784	40	C	08/08/2016	10:50	-132.514	44.973	0	222.60	0	7.6350	0	33.9070	0	26.472	0	220.675	0	162.8	4	55.8	4	-1E+10	1	-1E+10	1	-1E+10	1	-1E+10	1	-1E+10	1	-1E+10	1
4901784	40	C	08/08/2016	10:50	-132.514	44.973	0	225.30	0	7.5960	0	33.9060	0	26.477	0	223.350	0	161.9	4	55.5	4	-1E+10	1	-1E+10	1	-1E+10	1	-1E+10	1	-1E+10	1	-1E+10	1
4901784	40	C	08/08/2016	10:50	-132.514	44.973	0	228.00	0	7.5600	0	33.9060	0	26.482	0	226.025	0	161.1	4	55.1	4	-1E+10	1	-1E+10	1	-1E+10	1	-1E+10	1	-1E+10	1	-1E+10	1
4901784	40	C	08/08/2016	10:50	-132.514	44.973	0	229.80	0	7.5430	0	33.9060	0	26.484	0	227.808	0	160.6	4	55.0	4	-1E+10	1	-1E+10	1	-1E+10	1	-1E+10	1	-1E+10	1	-1E+10	1
4901784	40	C	08/08/2016	10:50	-132.514	44.973	0	232.50	0	7.5210	0	33.9070	0	26.488	0	230.484	0	159.8	4	54.7	4	-1E+10	1	-1E+10	1	-1E+10	1	-1E+10	1	-1E+10	1	-1E+10	1
4901784	40	C	08/08/2016	10:50	-132.514	44.973	0	235.20	0	7.4670	0	33.9080	0	26.497	0	233.159	0	159.2	4	54.4	4	-1E+10	1	-1E+10	1	-1E+10	1	-1E+10	1	-1E+10	1	-1E+10	1
4901784	40	C	08/08/2016	10:50	-132.514	44.973	0	236.90	0	7.4600	0	33.9080	0	26.498	0	234.843	0	158.6	4	54.2	4	-1E+10	1	-1E+10	1	-1E+10	1	-1E+10	1	-1E+10	1	-1E+10	1
4901784	40	C	08/08/2016	10:50	-132.514	44.973	0	239.60	0	7.4120	0	33.9090	0	26.506	0	237.518	0	157.9	4	53.9	4	-1E+10	1	-1E+10	1	-1E+10	1	-1E+10	1	-1E+10	1	-1E+10	1
4901784	40	C	08/08/2016	10:50	-132.514	44.973	0	242.30	0	7.3710	0	33.9080	0	26.511	0	240.193	0	157.1	4	53.5	4	-1E+10	1	-1E+10	1	-1E+10	1	-1E+10	1	-1E+10	1	-1E+10	1
4901784	40	C	08/08/2016	10:50	-132.514	44.973	0	245.10	0	7.3230	0	33.9090	0	26.518	0	242.967	0	155.7	4	53.0	4	-1E+10	1	-1E+10	1	-1E+10	1	-1E+10	1	-1E+10	1	-1E+10	1
4901784	40	C	08/08/2016	10:50	-132.514	44.973	0	247.90	0	7.2680	0	33.9080	0	26.525	0	245.741	0	154.3	4	52.5	4	-1E+10	1	-1E+10	1	-1E+10	1	-1E+10	1	-1E+10	1	-1E+10	1
4901784	40	C	08/08/2016	10:50	-132.514	44.973	0	249.70	0	7.1830	0	33.9100	0	26.538	0	247.524	0	153.5	4	52.1	4	-1E+10	1	-1E+10	1	-1E+10	1	-1E+10	1	-1E+10	1	-1E+10	1
4901784	40	C	08/08/2016	10:50	-132.514	44.973	0	252.50	0	7.1290	0	33.9090	0	26.545	0	250.298	0	152.7	4	51.8	4	-1E+10	1	-1E+10	1	-1E+10	1	-1E+10	1	-1E+10	1	-1E+10	1
4901784	40	C	08/08/2016	10:50	-132.514	44.973	0	255.30	0	7.1120	0	33.9090	0	26.547	0	253.072	0	151.8	4	51.5	4	-1E+10	1	-1E+10	1	-1E+10	1	-1E+10	1	-1E+10	1	-1E+10	1
4901784	40	C	08/08/2016	10:50	-132.514	44.973	0	257.20	0	7.1000	0	33.9080	0	26.548	0	254.954	0	151.3	4	51.3	4	-1E+10	1	-1E+10	1	-1E+10	1	-1E+10	1	-1E+10	1	-1E+10	1
4901784	40	C	08/08/2016	10:50	-132.514	44.973	0	259.90	0	7.0810	0	33.9080	0	26.551	0	257.629	0	150.0	4	50.8	4	-1E+10	1	-1E+10	1	-1E+10	1	-1E+10	1	-1E+10	1	-1E+10	1
4901784	40	C	08/08/2016	10:50	-132.514	44.973	0	262.60	0	7.0240	0	33.9080	0	26.559	0	260.304	0	148.6	4	50.3	4	-1E+10	1	-1E+10	1	-1E+10	1	-1E+10	1	-1E+10	1	-1E+10	1
4901784	40	C	08/08/2016	10:50	-132.514	44.973	0	265.30	0	6.9930	0	33.9070	0	26.562	0	262.978	0	147.2	4	49.7	4	-1E+10	1	-1E+10	1	-1E+10	1	-1E+10	1	-1E+10	1	-1E+10	1
4901784	40	C	08/08/2016	10:50	-132.514	44.973	0	268.00	0	6.9530	0	33.9060	0	26.567	0	265.653	0	145.5	4	49.1	4	-1E+10	1	-1E+10	1	-1E+10	1	-1E+10	1	-1E+10	1	-1E+10	1
4901784	40	C	08/08/2016	10:50	-132.514	44.973	0	269.90	0	6.9040	0	33.9060	0	26.574	0	267.535	0	144.0	4	48.6	4	-1E+10	1	-1E+10	1	-1E+10	1	-1E+10	1	-1E+10	1	-1E+10	1
4901784	40	C	08/08/2016	10:50	-132.514	44.973	0	272.50	0	6.8250	0	33.9080	0	26.586	0	270.111	0	142.3	4	47.9	4	-1E+10	1	-1E+10	1	-1E+10	1	-1E+10	1	-1E+10	1	-1E+10	1
4901784	40	C	08/08/2016	10:50	-132.514	44.973	0	275.20	0	6.7760	0	33.9090	0	26.593	0	272.785	0	141.1	4	47.4	4	-1E+10	1	-1E+10	1	-1E+10	1	-1E+10	1	-1E+10	1	-1E+10	1
4901784	40	C	08/08/2016	10:50	-132.514	44.973	0	277.00	0	6.7540	0	33.9070	0	26.595	0	274.568	0	140.2	4	47.1	4	-1E+10	1	-1E+10	1	-1E+10	1	-1E+10	1	-1E+10	1	-1E+10	1
4901784	40	C	08/08/2016	10:50	-132.514	44.973	0	279.70	0	6.7170	0	33.9070	0	26.600	0	277.243	0	138.5	4	46.5	4	-1E+10	1	-1E+10	1	-1E+10	1	-1E+10	1	-1E+10	1	-1E+10	1
4901784	40	C	08/08/2016	10:50	-132.514	44.973	0	282.50	0	6.6740	0	33.9090	0	26.607	0	280.016	0	136.9	4	45.9	4	-1E+10	1	-1E+10	1	-1E+10	1	-1E+10	1	-1E+10	1	-1E+10	1
4901784	40	C	08/08/2016	10:50	-132.514	44.973	0	285.20	0	6.6360	0	33.9110	0	26.614	0	282.690	0	135.2	4	45.3	4	-1E+10	1	-1E+10	1	-1E+10	1	-1E+10	1	-1E+10	1	-1E+10	1
4901784	40	C	08/08/2016	10:50	-132.514	44.973	0	288.00	0	6.5750	0	33.9110	0	26.622	0	285.464	0	133.5	4	44.7	4	-1E+10	1	-1E+10	1	-1E+10	1	-1E+10	1	-1E+10	1	-1E+10	1
4901784	40	C	08/08/2016	10:50	-132.514	44.973	0	289.80	0	6.5460	0	33.9110	0	26.625	0	287.247	0	132.6	4	44.4	4	-1E+10	1	-1E+10	1	-1E+10	1	-1E+10	1	-1E+10	1	-1E+10	1
4901784	40	C	08/08/2016	10:50	-132.514	44.973	0	292.50	0	6.5090	0	33.9120	0	26.631	0	289.921	0	131.3	4	43.9	4	-1E+10	1	-1E+10	1	-1E+10	1	-1E+10	1	-1E+10	1	-1E+10	1
4901784	40	C	08/08/2016	10:50	-132.514	44.973	0	295.30	0	6.4600	0	33.9130	0	26.638	0	292.694	0	130.1	4	43.4	4	-1E+10	1	-1E+10	1	-1E+10	1	-1E+10	1	-1E+10	1	-1E+10	1
4901784	40	C	08/08/2016	10:50	-132.514	44.973	0	297.20	0	6.4570	0	33.9110	0	26.637	0	294.576	0	129.2	4	43.2	4	-1E+10	1	-1E+10	1	-1E+10	1	-1E+10	1	-1E+10	1	-1E+10	1
4901784	40	C	08/08/2016	10:50	-132.514	44.973	0	299.90	0	6.4290	0	33.9110	0	26.641	0	297.251	0	127.6	4	42.6	4	-1E+10	1	-1E+10	1	-1E+10	1	-1E+10	1	-1E+10	1	-1E+10	1
4901784	40	C	08/08/2016	10:50	-132.514	44.973	0	302.70	0	6.3890	0	33.9100	0	26.645	0	300.024	0	125.7	4	41.9	4	-1E+10	1	-1E+10	1	-1E+10	1	-1E+10	1	-1E+10	1	-1E+10	1
4901784	40	C	08/08/2016	10:50	-132.514	44.973	0	304.50	0	6.3550	0	33.9090	0	26.649	0	301.807	0	124.5	4	41.5	4	-1E+10	1	-1E+10	1	-1E+10	1	-1E+10	1	-1E+10	1	-1E+10	1
4901784	40	C	08/08/2016	10:50	-132.514	44.973	0	307.20	0	6.2820	0	33.9110	0	26.660	0	304.481	0	123.5	4	41.1	4	-1E+10	1	-1E+10	1	-1E+10	1	-1E+10	1	-1E+10	1	-1E+10	1
4901784	40	C	08/08/2016	10:50	-132.514	44.973	0	310.00	0	6.2520	0	33.9100	0	26.663	0	307.254	0	122.6	4	40.7	4	-1E+10	1	-1E+10	1	-1E+10	1	-1E+10	1	-1E+10	1	-1E+10	1
4901784	40	C	08/08/2016	10:50	-132.514	44.973	0	312.80	0	6.2160	0	33.9110	0	26.668	0	310.027	0	121.8	4	40.4	4	-1E+10	1	-1E+10	1	-1E+10	1	-1E+10	1	-1E+10	1	-1E+10	1
4901784	40	C	08/08/2016	10:50	-132.514	44.973	0	315.50	0	6.1800	0	33.9110	0	26.673	0	312.701	0	120.5	4	40.0	4	-1E+10	1	-1E+10	1	-1E+10	1	-1E+10	1	-1E+10	1	-1E+10	1
4901784	40	C	08/08/2016	10:50	-132.514	44.973	0	317.40	0	6.1720	0	33.9090	0	26.672	0	314.583	0	119.4	4	39.6	4	-1E+10	1	-1E+10	1	-1E+10	1	-1E+10	1	-1E+10	1	-1E+10	1
4901784	40	C	08/08/2016	10:50	-132.514	44.973	0	320.20	0	6.1310	0	33.9090	0	26.678	0	317.356	0	117.3	4	38.9	4	-1E+10	1	-1E+10	1	-1E+10	1	-1E+10	1	-1E+10	1	-1E+10	1
4901784	40	C	08/08/2016	10:50	-132.514	44.973	0	323.00	0	6.0730	0	33.9100	0	26.686	0	320.129	0	115.3	4	38.1	4	-1E+10	1	-1E+10	1	-1E+10	1	-1E+10	1	-1E+10	1	-1E+10	1
4901784	40	C	08/08/2016	10:50	-132.514	44.973	0	324.80	0	6.0430	0	33.9110	0	26.690	0	321.911	0	113.8	4	37.6	4	-1E+10	1	-1E+10	1	-1E+10	1	-1E+10	1	-1E+10	1	-1E+10	1
4901784	40	C	08/08/2016	10:50	-132.514	44.973	0	327.70	0	5.9890	0	33.9100	0	26.696	0	324.783	0	111.5	4	36.8	4	-1E+10	1	-1E+10	1	-1E+10	1	-1E+10	1	-1E+10	1	-1E+10	1
4901784	40	C	08/08/2016	10:50	-132.514	44.973	0	330.40	0	5.9250	0	33.9100	0	26.704	0	327.457	0	109.3	4	36.0	4	-1E+10	1	-1E+10	1	-1E+10	1	-1E+10	1	-1E+10	1	-1E+10	1
4901784	40	C	08/08/2016	10:50	-132.514	44.973	0	332.80	0	5.8680	0	33.9130	0	26.714	0	329.834	0	107.2	4	35.3	4	-1E+10	1	-1E+10	1	-1E+10	1	-1E+10	1	-1E+10	1	-1E+10	1
4901784	40	C	08/08/2016	10:50	-132.514	44.973	0	334.60	0	5.8320	0	33.9140	0	26.719	0	331.616	0	106.0	4	34.9	4	-1E+10	1	-1E+10	1	-1E+10	1	-1E+10	1	-1E+10	1	-1E+10	1
4901784	40	C	08/08/2016	10:50	-132.514	44.973	0	337.00	0	5.8110	0	33.9150	0	26.722	0	333.993	0	105.1	4	34.6	4	-1E+10	1	-1E+10	1	-1E+10	1	-1E+10	1	-1E+10	1	-1E+10	1
4901784	40	C	08/08/2016	10:50	-132.514	44.973	0	340.20	0	5.7700	0	33.9160	0	26.728	0	337.162	0	104.0	4	34.2	4	-1E+10	1	-1E+10	1	-1E+10	1	-1E+10	1	-1E+10	1	-1E+10	1
4901784	40	C	08/08/2016	10:50	-132.514	44.973	0	342.60	0	5.7480	0	33.9160	0	26.731	0	339.538	0	103.6	4	34.0	4	-1E+10	1	-1E+10	1	-1E+10	1	-1E+10	1	-1E+10	1	-1E+10	1
4901784	40	C	08/08/2016	10:50	-132.514	44.973	0	345.00	0	5.6950	0	33.9140	0	26.736	0	341.915	0	103.2	4	33.9	4	-1E+10	1	-1E+10	1	-1E+10	1	-1E+10	1	-1E+10	1	-1E+10	1
4901784	40	C	08/08/2016	10:50	-132.514	44.973	0	347.40	0	5.6670	0	33.9130	0	26.739	0	344.292	0	102.4	4	33.6	4	-1E+10	1	-1E+10	1	-1E+10	1	-1E+10	1	-1E+10	1	-1E+10	1
4901784	40	C	08/08/2016	10:50	-132.514	44.973	0	349.80	0	5.6380	0	33.9140	0	26.743	0	346.668	0	101.4	4	33.2	4	-1E+10	1	-1E+10	1	-1E+10	1	-1E+10	1	-1E+10	1	-1E+10	1
4901784	40	C	08/08/2016	10:50	-132.514	44.973	0	352.20	0	5.6200	0	33.9120	0	26.743	0	349.045	0	99.9	4	32.7	4	-1E+10	1	-1E+10	1	-1E+10	1	-1E+10	1	-1E+10	1	-1E+10	1
4901784	40	C	08/08/2016	10:50	-132.514	44.973	0	354.70	0	5.5620	0	33.9150	0	26.753	0	351.520	0	98.2	4	32.1	4	-1E+10	1	-1E+10	1	-1E+10	1	-1E+10	1	-1E+10	1	-1E+10	1
4901784	40	C	08/08/2016	10:50	-132.514	44.973	0	357.10	0	5.5170	0	33.9180	0	26.761	0	353.896	0	96.5	4	31.5	4	-1E+10	1	-1E+10	1	-1E+10	1	-1E+10	1	-1E+10	1	-1E+10	1
4901784	40	C	08/08/2016	10:50	-132.514	44.973	0	359.60	0	5.5120	0	33.9200	0	26.763	0	356.372	0	94.8	4	31.0	4	-1E+10	1	-1E+10	1	-1E+10	1	-1E+10	1	-1E+10	1	-1E+10	1
4901784	40	C	08/08/2016	10:50	-132.514	44.973	0	362.20	0	5.5100	0	33.9230	0	26.765	0	358.946	0	93.1	4	30.4	4	-1E+10	1	-1E+10	1	-1E+10	1	-1E+10	1	-1E+10	1	-1E+10	1
4901784	40	C	08/08/2016	10:50	-132.514	44.973	0	364.70	0	5.4970	0	33.9250	0	26.769	0	361.422	0	91.6	4	29.9	4	-1E+10	1	-1E+10	1	-1E+10	1	-1E+10	1	-1E+10	1	-1E+10	1
4901784	40	C	08/08/2016	10:50	-132.514	44.973	0	367.30	0	5.4830	0	33.9260	0	26.771	0	363.996	0	89.9	4	29.3	4	-1E+10	1	-1E+10	1	-1E+10	1	-1E+10	1	-1E+10	1	-1E+10	1
4901784	40	C	08/08/2016	10:50	-132.514	44.973	0	369.90	0	5.4760	0	33.9290	0	26.774	0	366.570	0	87.6	4	28.6	4	-1E+10	1	-1E+10	1	-1E+10	1	-1E+10	1	-1E+10	1	-1E+10	1
4901784	40	C	08/08/2016	10:50	-132.514	44.973	0	372.50	0	5.4700	0	33.9330	0	26.778	0	369.145	0	85.7	4	28.0	4	-1E+10	1	-1E+10	1	-1E+10	1	-1E+10	1	-1E+10	1	-1E+10	1
4901784	40	C	08/08/2016	10:50	-132.514	44.973	0	375.20	0	5.4680	0	33.9360	0	26.781	0	371.818	0	84.1	4	27.4	4	-1E+10	1	-1E+10	1	-1E+10	1	-1E+10	1	-1E+10	1	-1E+10	1
4901784	40	C	08/08/2016	10:50	-132.514	44.973	0	377.80	0	5.4310	0	33.9370	0	26.786	0	374.392	0	82.8	4	27.0	4	-1E+10	1	-1E+10	1	-1E+10	1	-1E+10	1	-1E+10	1	-1E+10	1
4901784	40	C	08/08/2016	10:50	-132.514	44.973	0	379.60	0	5.4130	0	33.9370	0	26.788	0	376.174	0	81.5	4	26.6	4	-1E+10	1	-1E+10	1	-1E+10	1	-1E+10	1	-1E+10	1	-1E+10	1
4901784	40	C	08/08/2016	10:50	-132.514	44.973	0	382.20	0	5.3880	0	33.9410	0	26.794	0	378.748	0	78.9	4	25.7	4	-1E+10	1	-1E+10	1	-1E+10	1	-1E+10	1	-1E+10	1	-1E+10	1
4901784	40	C	08/08/2016	10:50	-132.514	44.973	0	384.90	0	5.3950	0	33.9470	0	26.798	0	381.421	0	76.4	4	24.9	4	-1E+10	1	-1E+10	1	-1E+10	1	-1E+10	1	-1E+10	1	-1E+10	1
4901784	40	C	08/08/2016	10:50	-132.514	44.973	0	387.50	0	5.3750	0	33.9480	0	26.801	0	383.996	0	74.5	4	24.2	4	-1E+10	1	-1E+10	1	-1E+10	1	-1E+10	1	-1E+10	1	-1E+10	1
4901784	40	C	08/08/2016	10:50	-132.514	44.973	0	390.20	0	5.3590	0	33.9530	0	26.807	0	386.669	0	72.0	4	23.4	4	-1E+10	1	-1E+10	1	-1E+10	1	-1E+10	1	-1E+10	1	-1E+10	1
4901784	40	C	08/08/2016	10:50	-132.514	44.973	0	392.00	0	5.3530	0	33.9580	0	26.812	0	388.451	0	70.3	4	22.9	4	-1E+10	1	-1E+10	1	-1E+10	1	-1E+10	1	-1E+10	1	-1E+10	1
4901784	40	C	08/08/2016	10:50	-132.514	44.973	0	394.70	0	5.3540	0	33.9620	0	26.815	0	391.124	0	68.5	4	22.3	4	-1E+10	1	-1E+10	1	-1E+10	1	-1E+10	1	-1E+10	1	-1E+10	1
4901784	40	C	08/08/2016	10:50	-132.514	44.973	0	397.30	0	5.3560	0	33.9650	0	26.817	0	393.698	0	66.7	4	21.7	4	-1E+10	1	-1E+10	1	-1E+10	1	-1E+10	1	-1E+10	1	-1E+10	1
4901784	40	C	08/08/2016	10:50	-132.514	44.973	0	400.00	0	5.3550	0	33.9710	0	26.822	0	396.371	0	65.4	4	21.3	4	-1E+10	1	-1E+10	1	-1E+10	1	-1E+10	1	-1E+10	1	-1E+10	1
4901784	40	C	08/08/2016	10:50	-132.514	44.973	0	402.80	0	5.3490	0	33.9720	0	26.824	0	399.142	0	64.6	4	21.0	4	-1E+10	1	-1E+10	1	-1E+10	1	-1E+10	1	-1E+10	1	-1E+10	1
4901784	40	C	08/08/2016	10:50	-132.514	44.973	0	404.60	0	5.3410	0	33.9750	0	26.827	0	400.924	0	64.1	4	20.9	4	-1E+10	1	-1E+10	1	-1E+10	1	-1E+10	1	-1E+10	1	-1E+10	1
4901784	40	C	08/08/2016	10:50	-132.514	44.973	0	407.30	0	5.3380	0	33.9760	0	26.828	0	403.597	0	63.7	4	20.7	4	-1E+10	1	-1E+10	1	-1E+10	1	-1E+10	1	-1E+10	1	-1E+10	1
4901784	40	C	08/08/2016	10:50	-132.514	44.973	0	410.10	0	5.3380	0	33.9760	0	26.828	0	406.369	0	63.4	4	20.6	4	-1E+10	1	-1E+10	1	-1E+10	1	-1E+10	1	-1E+10	1	-1E+10	1
4901784	40	C	08/08/2016	10:50	-132.514	44.973	0	412.80	0	5.3290	0	33.9770	0	26.830	0	409.042	0	62.8	4	20.4	4	-1E+10	1	-1E+10	1	-1E+10	1	-1E+10	1	-1E+10	1	-1E+10	1
4901784	40	C	08/08/2016	10:50	-132.514	44.973	0	415.50	0	5.3190	0	33.9770	0	26.831	0	411.715	0	62.2	4	20.2	4	-1E+10	1	-1E+10	1	-1E+10	1	-1E+10	1	-1E+10	1	-1E+10	1
4901784	40	C	08/08/2016	10:50	-132.514	44.973	0	417.30	0	5.3100	0	33.9780	0	26.833	0	413.496	0	61.9	4	20.1	4	-1E+10	1	-1E+10	1	-1E+10	1	-1E+10	1	-1E+10	1	-1E+10	1
4901784	40	C	08/08/2016	10:50	-132.514	44.973	0	420.10	0	5.2820	0	33.9800	0	26.838	0	416.268	0	61.5	4	20.0	4	-1E+10	1	-1E+10	1	-1E+10	1	-1E+10	1	-1E+10	1	-1E+10	1
4901784	40	C	08/08/2016	10:50	-132.514	44.973	0	422.90	0	5.2580	0	33.9810	0	26.842	0	419.040	0	61.2	4	19.9	4	-1E+10	1	-1E+10	1	-1E+10	1	-1E+10	1	-1E+10	1	-1E+10	1
4901784	40	C	08/08/2016	10:50	-132.514	44.973	0	424.80	0	5.2430	0	33.9820	0	26.844	0	420.920	0	60.8	4	19.7	4	-1E+10	1	-1E+10	1	-1E+10	1	-1E+10	1	-1E+10	1	-1E+10	1
4901784	40	C	08/08/2016	10:50	-132.514	44.973	0	427.50	0	5.2440	0	33.9830	0	26.845	0	423.593	0	60.2	4	19.5	4	-1E+10	1	-1E+10	1	-1E+10	1	-1E+10	1	-1E+10	1	-1E+10	1
4901784	40	C	08/08/2016	10:50	-132.514	44.973	0	430.30	0	5.2430	0	33.9830	0	26.845	0	426.365	0	59.5	4	19.3	4	-1E+10	1	-1E+10	1	-1E+10	1	-1E+10	1	-1E+10	1	-1E+10	1
4901784	40	C	08/08/2016	10:50	-132.514	44.973	0	432.10	0	5.2390	0	33.9850	0	26.847	0	428.146	0	59.0	4	19.2	4	-1E+10	1	-1E+10	1	-1E+10	1	-1E+10	1	-1E+10	1	-1E+10	1
4901784	40	C	08/08/2016	10:50	-132.514	44.973	0	434.90	0	5.2290	0	33.9870	0	26.850	0	430.918	0	58.2	4	18.9	4	-1E+10	1	-1E+10	1	-1E+10	1	-1E+10	1	-1E+10	1	-1E+10	1
4901784	40	C	08/08/2016	10:50	-132.514	44.973	0	437.70	0	5.2270	0	33.9900	0	26.853	0	433.689	0	57.4	4	18.6	4	-1E+10	1	-1E+10	1	-1E+10	1	-1E+10	1	-1E+10	1	-1E+10	1
4901784	40	C	08/08/2016	10:50	-132.514	44.973	0	439.60	0	5.2220	0	33.9910	0	26.854	0	435.570	0	57.1	4	18.5	4	-1E+10	1	-1E+10	1	-1E+10	1	-1E+10	1	-1E+10	1	-1E+10	1
4901784	40	C	08/08/2016	10:50	-132.514	44.973	0	442.40	0	5.2200	0	33.9920	0	26.855	0	438.341	0	56.5	4	18.4	4	-1E+10	1	-1E+10	1	-1E+10	1	-1E+10	1	-1E+10	1	-1E+10	1
4901784	40	C	08/08/2016	10:50	-132.514	44.973	0	445.20	0	5.2080	0	33.9930	0	26.857	0	441.112	0	56.0	4	18.2	4	-1E+10	1	-1E+10	1	-1E+10	1	-1E+10	1	-1E+10	1	-1E+10	1
4901784	40	C	08/08/2016	10:50	-132.514	44.973	0	447.10	0	5.1990	0	33.9940	0	26.859	0	442.993	0	55.5	4	18.0	4	-1E+10	1	-1E+10	1	-1E+10	1	-1E+10	1	-1E+10	1	-1E+10	1
4901784	40	C	08/08/2016	10:50	-132.514	44.973	0	449.90	0	5.1870	0	33.9970	0	26.863	0	445.764	0	55.0	4	17.9	4	-1E+10	1	-1E+10	1	-1E+10	1	-1E+10	1	-1E+10	1	-1E+10	1
4901784	40	C	08/08/2016	10:50	-132.514	44.973	0	452.70	0	5.1820	0	33.9960	0	26.863	0	448.535	0	54.5	4	17.7	4	-1E+10	1	-1E+10	1	-1E+10	1	-1E+10	1	-1E+10	1	-1E+10	1
4901784	40	C	08/08/2016	10:50	-132.514	44.973	0	454.50	0	5.1770	0	33.9980	0	26.865	0	450.317	0	54.1	4	17.5	4	-1E+10	1	-1E+10	1	-1E+10	1	-1E+10	1	-1E+10	1	-1E+10	1
4901784	40	C	08/08/2016	10:50	-132.514	44.973	0	457.30	0	5.1620	0	33.9990	0	26.867	0	453.088	0	53.7	4	17.4	4	-1E+10	1	-1E+10	1	-1E+10	1	-1E+10	1	-1E+10	1	-1E+10	1
4901784	40	C	08/08/2016	10:50	-132.514	44.973	0	460.10	0	5.1390	0	34.0020	0	26.872	0	455.859	0	53.7	4	17.4	4	-1E+10	1	-1E+10	1	-1E+10	1	-1E+10	1	-1E+10	1	-1E+10	1
4901784	40	C	08/08/2016	10:50	-132.514	44.973	0	461.90	0	5.0860	0	34.0000	0	26.877	0	457.641	0	54.0	4	17.5	4	-1E+10	1	-1E+10	1	-1E+10	1	-1E+10	1	-1E+10	1	-1E+10	1
4901784	40	C	08/08/2016	10:50	-132.514	44.973	0	464.70	0	5.0630	0	33.9990	0	26.879	0	460.412	0	53.7	4	17.4	4	-1E+10	1	-1E+10	1	-1E+10	1	-1E+10	1	-1E+10	1	-1E+10	1
4901784	40	C	08/08/2016	10:50	-132.514	44.973	0	467.50	0	5.0490	0	33.9990	0	26.880	0	463.183	0	52.9	4	17.1	4	-1E+10	1	-1E+10	1	-1E+10	1	-1E+10	1	-1E+10	1	-1E+10	1
4901784	40	C	08/08/2016	10:50	-132.514	44.973	0	470.20	0	5.0510	0	34.0030	0	26.883	0	465.855	0	51.7	4	16.7	4	-1E+10	1	-1E+10	1	-1E+10	1	-1E+10	1	-1E+10	1	-1E+10	1
4901784	40	C	08/08/2016	10:50	-132.514	44.973	0	473.00	0	5.0220	0	34.0090	0	26.891	0	468.626	0	51.2	4	16.5	4	-1E+10	1	-1E+10	1	-1E+10	1	-1E+10	1	-1E+10	1	-1E+10	1
4901784	40	C	08/08/2016	10:50	-132.514	44.973	0	474.80	0	5.0090	0	34.0080	0	26.892	0	470.407	0	51.0	4	16.5	4	-1E+10	1	-1E+10	1	-1E+10	1	-1E+10	1	-1E+10	1	-1E+10	1
4901784	40	C	08/08/2016	10:50	-132.514	44.973	0	477.60	0	4.9830	0	34.0080	0	26.895	0	473.178	0	50.5	4	16.3	4	-1E+10	1	-1E+10	1	-1E+10	1	-1E+10	1	-1E+10	1	-1E+10	1
4901784	40	C	08/08/2016	10:50	-132.514	44.973	0	480.30	0	4.9800	0	34.0110	0	26.898	0	475.850	0	49.8	4	16.1	4	-1E+10	1	-1E+10	1	-1E+10	1	-1E+10	1	-1E+10	1	-1E+10	1
4901784	40	C	08/08/2016	10:50	-132.514	44.973	0	482.10	0	4.9740	0	34.0140	0	26.901	0	477.631	0	49.7	4	16.0	4	-1E+10	1	-1E+10	1	-1E+10	1	-1E+10	1	-1E+10	1	-1E+10	1
4901784	40	C	08/08/2016	10:50	-132.514	44.973	0	484.80	0	4.9790	0	34.0150	0	26.901	0	480.303	0	50.1	4	16.2	4	-1E+10	1	-1E+10	1	-1E+10	1	-1E+10	1	-1E+10	1	-1E+10	1
4901784	40	C	08/08/2016	10:50	-132.514	44.973	0	487.40	0	4.8890	0	34.0090	0	26.907	0	482.876	0	50.6	4	16.3	4	-1E+10	1	-1E+10	1	-1E+10	1	-1E+10	1	-1E+10	1	-1E+10	1
4901784	40	C	08/08/2016	10:50	-132.514	44.973	0	490.20	0	4.8560	0	34.0100	0	26.911	0	485.647	0	50.2	4	16.1	4	-1E+10	1	-1E+10	1	-1E+10	1	-1E+10	1	-1E+10	1	-1E+10	1
4901784	40	C	08/08/2016	10:50	-132.514	44.973	0	492.90	0	4.8020	0	34.0100	0	26.917	0	488.318	0	49.4	4	15.9	4	-1E+10	1	-1E+10	1	-1E+10	1	-1E+10	1	-1E+10	1	-1E+10	1
4901784	40	C	08/08/2016	10:50	-132.514	44.973	0	494.70	0	4.7830	0	34.0130	0	26.922	0	490.100	0	48.7	4	15.7	4	-1E+10	1	-1E+10	1	-1E+10	1	-1E+10	1	-1E+10	1	-1E+10	1
4901784	40	C	08/08/2016	10:50	-132.514	44.973	0	497.40	0	4.7560	0	34.0180	0	26.929	0	492.771	0	47.7	4	15.3	4	-1E+10	1	-1E+10	1	-1E+10	1	-1E+10	1	-1E+10	1	-1E+10	1
4901784	40	C	08/08/2016	10:50	-132.514	44.973	0	500.00	0	4.7440	0	34.0200	0	26.932	0	495.344	0	46.9	4	15.1	4	-1E+10	1	-1E+10	1	-1E+10	1	-1E+10	1	-1E+10	1	-1E+10	1
4901784	40	C	08/08/2016	10:50	-132.514	44.973	0	505.30	0	4.6940	0	34.0280	0	26.943	0	500.588	0	45.3	4	14.5	4	-1E+10	1	-1E+10	1	-1E+10	1	-1E+10	1	-1E+10	1	-1E+10	1
4901784	40	C	08/08/2016	10:50	-132.514	44.973	0	510.70	0	4.6740	0	34.0340	0	26.950	0	505.931	0	44.0	4	14.1	4	-1E+10	1	-1E+10	1	-1E+10	1	-1E+10	1	-1E+10	1	-1E+10	1
4901784	40	C	08/08/2016	10:50	-132.514	44.973	0	515.20	0	4.6560	0	34.0370	0	26.955	0	510.384	0	43.3	4	13.9	4	-1E+10	1	-1E+10	1	-1E+10	1	-1E+10	1	-1E+10	1	-1E+10	1
4901784	40	C	08/08/2016	10:50	-132.514	44.973	0	519.80	0	4.6320	0	34.0380	0	26.958	0	514.935	0	42.4	4	13.6	4	-1E+10	1	-1E+10	1	-1E+10	1	-1E+10	1	-1E+10	1	-1E+10	1
4901784	40	C	08/08/2016	10:50	-132.514	44.973	0	525.20	0	4.6160	0	34.0430	0	26.964	0	520.278	0	40.6	4	13.0	4	-1E+10	1	-1E+10	1	-1E+10	1	-1E+10	1	-1E+10	1	-1E+10	1
4901784	40	C	08/08/2016	10:50	-132.514	44.973	0	529.80	0	4.6000	0	34.0490	0	26.971	0	524.829	0	39.2	4	12.6	4	-1E+10	1	-1E+10	1	-1E+10	1	-1E+10	1	-1E+10	1	-1E+10	1
4901784	40	C	08/08/2016	10:50	-132.514	44.973	0	534.30	0	4.5870	0	34.0530	0	26.975	0	529.281	0	37.7	4	12.0	4	-1E+10	1	-1E+10	1	-1E+10	1	-1E+10	1	-1E+10	1	-1E+10	1
4901784	40	C	08/08/2016	10:50	-132.514	44.973	0	539.80	0	4.5570	0	34.0620	0	26.986	0	534.722	0	35.8	4	11.4	4	-1E+10	1	-1E+10	1	-1E+10	1	-1E+10	1	-1E+10	1	-1E+10	1
4901784	40	C	08/08/2016	10:50	-132.514	44.973	0	545.40	0	4.5220	0	34.0700	0	26.996	0	540.262	0	34.2	4	10.9	4	-1E+10	1	-1E+10	1	-1E+10	1	-1E+10	1	-1E+10	1	-1E+10	1
4901784	40	C	08/08/2016	10:50	-132.514	44.973	0	550.00	0	4.4970	0	34.0750	0	27.003	0	544.813	0	32.9	4	10.5	4	-1E+10	1	-1E+10	1	-1E+10	1	-1E+10	1	-1E+10	1	-1E+10	1
4901784	40	C	08/08/2016	10:50	-132.514	44.973	0	554.60	0	4.4900	0	34.0830	0	27.010	0	549.363	0	31.6	4	10.1	4	-1E+10	1	-1E+10	1	-1E+10	1	-1E+10	1	-1E+10	1	-1E+10	1
4901784	40	C	08/08/2016	10:50	-132.514	44.973	0	560.20	0	4.4600	0	34.0890	0	27.018	0	554.903	0	30.4	4	9.7	4	-1E+10	1	-1E+10	1	-1E+10	1	-1E+10	1	-1E+10	1	-1E+10	1
4901784	40	C	08/08/2016	10:50	-132.514	44.973	0	565.50	0	4.4390	0	34.0980	0	27.027	0	560.146	0	28.9	4	9.2	4	-1E+10	1	-1E+10	1	-1E+10	1	-1E+10	1	-1E+10	1	-1E+10	1
4901784	40	C	08/08/2016	10:50	-132.514	44.973	0	570.40	0	4.4250	0	34.1040	0	27.033	0	564.993	0	28.0	4	8.9	4	-1E+10	1	-1E+10	1	-1E+10	1	-1E+10	1	-1E+10	1	-1E+10	1
4901784	40	C	08/08/2016	10:50	-132.514	44.973	0	575.20	0	4.4060	0	34.1080	0	27.039	0	569.741	0	27.3	4	8.7	4	-1E+10	1	-1E+10	1	-1E+10	1	-1E+10	1	-1E+10	1	-1E+10	1
4901784	40	C	08/08/2016	10:50	-132.514	44.973	0	580.00	0	4.3880	0	34.1110	0	27.043	0	574.489	0	26.8	4	8.5	4	-1E+10	1	-1E+10	1	-1E+10	1	-1E+10	1	-1E+10	1	-1E+10	1
4901784	40	C	08/08/2016	10:50	-132.514	44.973	0	585.00	0	4.3750	0	34.1140	0	27.047	0	579.434	0	26.3	4	8.4	4	-1E+10	1	-1E+10	1	-1E+10	1	-1E+10	1	-1E+10	1	-1E+10	1
4901784	40	C	08/08/2016	10:50	-132.514	44.973	0	589.80	0	4.3640	0	34.1170	0	27.050	0	584.182	0	25.8	4	8.2	4	-1E+10	1	-1E+10	1	-1E+10	1	-1E+10	1	-1E+10	1	-1E+10	1
4901784	40	C	08/08/2016	10:50	-132.514	44.973	0	594.70	0	4.3510	0	34.1200	0	27.054	0	589.028	0	25.2	4	8.0	4	-1E+10	1	-1E+10	1	-1E+10	1	-1E+10	1	-1E+10	1	-1E+10	1
4901784	40	C	08/08/2016	10:50	-132.514	44.973	0	599.70	0	4.3340	0	34.1240	0	27.059	0	593.973	0	24.6	4	7.8	4	-1E+10	1	-1E+10	1	-1E+10	1	-1E+10	1	-1E+10	1	-1E+10	1
4901784	40	C	08/08/2016	10:50	-132.514	44.973	0	604.70	0	4.3250	0	34.1260	0	27.062	0	598.918	0	23.8	4	7.6	4	-1E+10	1	-1E+10	1	-1E+10	1	-1E+10	1	-1E+10	1	-1E+10	1
4901784	40	C	08/08/2016	10:50	-132.514	44.973	0	609.70	0	4.3090	0	34.1340	0	27.070	0	603.863	0	22.8	4	7.3	4	-1E+10	1	-1E+10	1	-1E+10	1	-1E+10	1	-1E+10	1	-1E+10	1
4901784	40	C	08/08/2016	10:50	-132.514	44.973	0	614.80	0	4.2930	0	34.1400	0	27.076	0	608.907	0	22.1	4	7.0	4	-1E+10	1	-1E+10	1	-1E+10	1	-1E+10	1	-1E+10	1	-1E+10	1
4901784	40	C	08/08/2016	10:50	-132.514	44.973	0	620.00	0	4.2710	0	34.1460	0	27.084	0	614.049	0	21.2	4	6.7	4	-1E+10	1	-1E+10	1	-1E+10	1	-1E+10	1	-1E+10	1	-1E+10	1
4901784	40	C	08/08/2016	10:50	-132.514	44.973	0	625.30	0	4.2560	0	34.1530	0	27.091	0	619.291	0	20.6	4	6.5	4	-1E+10	1	-1E+10	1	-1E+10	1	-1E+10	1	-1E+10	1	-1E+10	1
4901784	40	C	08/08/2016	10:50	-132.514	44.973	0	630.60	0	4.2490	0	34.1570	0	27.095	0	624.532	0	20.0	4	6.3	4	-1E+10	1	-1E+10	1	-1E+10	1	-1E+10	1	-1E+10	1	-1E+10	1
4901784	40	C	08/08/2016	10:50	-132.514	44.973	0	635.00	0	4.2410	0	34.1620	0	27.099	0	628.883	0	19.4	4	6.2	4	-1E+10	1	-1E+10	1	-1E+10	1	-1E+10	1	-1E+10	1	-1E+10	1
4901784	40	C	08/08/2016	10:50	-132.514	44.973	0	639.50	0	4.2290	0	34.1650	0	27.103	0	633.333	0	18.9	4	6.0	4	-1E+10	1	-1E+10	1	-1E+10	1	-1E+10	1	-1E+10	1	-1E+10	1
4901784	40	C	08/08/2016	10:50	-132.514	44.973	0	644.80	0	4.2180	0	34.1730	0	27.111	0	638.573	0	18.3	4	5.8	4	-1E+10	1	-1E+10	1	-1E+10	1	-1E+10	1	-1E+10	1	-1E+10	1
4901784	40	C	08/08/2016	10:50	-132.514	44.973	0	650.10	0	4.2160	0	34.1770	0	27.114	0	643.814	0	17.9	4	5.7	4	-1E+10	1	-1E+10	1	-1E+10	1	-1E+10	1	-1E+10	1	-1E+10	1
4901784	40	C	08/08/2016	10:50	-132.514	44.973	0	655.50	0	4.1920	0	34.1820	0	27.121	0	649.153	0	17.7	4	5.6	4	-1E+10	1	-1E+10	1	-1E+10	1	-1E+10	1	-1E+10	1	-1E+10	1
4901784	40	C	08/08/2016	10:50	-132.514	44.973	0	660.00	0	4.1800	0	34.1840	0	27.124	0	653.603	0	17.5	4	5.5	4	-1E+10	1	-1E+10	1	-1E+10	1	-1E+10	1	-1E+10	1	-1E+10	1
4901784	40	C	08/08/2016	10:50	-132.514	44.973	0	664.50	0	4.1650	0	34.1860	0	27.127	0	658.052	0	17.2	4	5.4	4	-1E+10	1	-1E+10	1	-1E+10	1	-1E+10	1	-1E+10	1	-1E+10	1
4901784	40	C	08/08/2016	10:50	-132.514	44.973	0	669.90	0	4.1380	0	34.1920	0	27.134	0	663.391	0	16.8	4	5.3	4	-1E+10	1	-1E+10	1	-1E+10	1	-1E+10	1	-1E+10	1	-1E+10	1
4901784	40	C	08/08/2016	10:50	-132.514	44.973	0	675.40	0	4.1260	0	34.1950	0	27.138	0	668.829	0	16.5	4	5.2	4	-1E+10	1	-1E+10	1	-1E+10	1	-1E+10	1	-1E+10	1	-1E+10	1
4901784	40	C	08/08/2016	10:50	-132.514	44.973	0	680.00	0	4.1130	0	34.1980	0	27.142	0	673.377	0	16.3	4	5.2	4	-1E+10	1	-1E+10	1	-1E+10	1	-1E+10	1	-1E+10	1	-1E+10	1
4901784	40	C	08/08/2016	10:50	-132.514	44.973	0	684.60	0	4.0970	0	34.2020	0	27.147	0	677.924	0	16.0	4	5.1	4	-1E+10	1	-1E+10	1	-1E+10	1	-1E+10	1	-1E+10	1	-1E+10	1
4901784	40	C	08/08/2016	10:50	-132.514	44.973	0	690.30	0	4.0850	0	34.2060	0	27.151	0	683.559	0	15.7	4	5.0	4	-1E+10	1	-1E+10	1	-1E+10	1	-1E+10	1	-1E+10	1	-1E+10	1
4901784	40	C	08/08/2016	10:50	-132.514	44.973	0	695.30	0	4.0710	0	34.2110	0	27.157	0	688.502	0	15.4	4	4.9	4	-1E+10	1	-1E+10	1	-1E+10	1	-1E+10	1	-1E+10	1	-1E+10	1
4901784	40	C	08/08/2016	10:50	-132.514	44.973	0	699.80	0	4.0610	0	34.2150	0	27.161	0	692.951	0	15.1	4	4.8	4	-1E+10	1	-1E+10	1	-1E+10	1	-1E+10	1	-1E+10	1	-1E+10	1
4901784	40	C	08/08/2016	10:50	-132.514	44.973	0	704.60	0	4.0510	0	34.2190	0	27.165	0	697.696	0	14.9	4	4.7	4	-1E+10	1	-1E+10	1	-1E+10	1	-1E+10	1	-1E+10	1	-1E+10	1
4901784	40	C	08/08/2016	10:50	-132.514	44.973	0	709.50	0	4.0400	0	34.2230	0	27.169	0	702.540	0	14.6	4	4.6	4	-1E+10	1	-1E+10	1	-1E+10	1	-1E+10	1	-1E+10	1	-1E+10	1
4901784	40	C	08/08/2016	10:50	-132.514	44.973	0	714.40	0	4.0260	0	34.2270	0	27.174	0	707.383	0	14.3	4	4.5	4	-1E+10	1	-1E+10	1	-1E+10	1	-1E+10	1	-1E+10	1	-1E+10	1
4901784	40	C	08/08/2016	10:50	-132.514	44.973	0	719.30	0	4.0080	0	34.2340	0	27.181	0	712.227	0	14.0	4	4.4	4	-1E+10	1	-1E+10	1	-1E+10	1	-1E+10	1	-1E+10	1	-1E+10	1
4901784	40	C	08/08/2016	10:50	-132.514	44.973	0	724.30	0	4.0030	0	34.2370	0	27.184	0	717.169	0	13.9	4	4.4	4	-1E+10	1	-1E+10	1	-1E+10	1	-1E+10	1	-1E+10	1	-1E+10	1
4901784	40	C	08/08/2016	10:50	-132.514	44.973	0	729.30	0	3.9920	0	34.2410	0	27.189	0	722.111	0	13.7	4	4.3	4	-1E+10	1	-1E+10	1	-1E+10	1	-1E+10	1	-1E+10	1	-1E+10	1
4901784	40	C	08/08/2016	10:50	-132.514	44.973	0	734.30	0	3.9810	0	34.2430	0	27.192	0	727.053	0	13.6	4	4.3	4	-1E+10	1	-1E+10	1	-1E+10	1	-1E+10	1	-1E+10	1	-1E+10	1
4901784	40	C	08/08/2016	10:50	-132.514	44.973	0	739.40	0	3.9690	0	34.2460	0	27.195	0	732.094	0	13.5	4	4.3	4	-1E+10	1	-1E+10	1	-1E+10	1	-1E+10	1	-1E+10	1	-1E+10	1
4901784	40	C	08/08/2016	10:50	-132.514	44.973	0	744.50	0	3.9620	0	34.2490	0	27.198	0	737.134	0	13.4	4	4.2	4	-1E+10	1	-1E+10	1	-1E+10	1	-1E+10	1	-1E+10	1	-1E+10	1
4901784	40	C	08/08/2016	10:50	-132.514	44.973	0	749.60	0	3.9590	0	34.2500	0	27.199	0	742.175	0	13.3	4	4.2	4	-1E+10	1	-1E+10	1	-1E+10	1	-1E+10	1	-1E+10	1	-1E+10	1
4901784	40	C	08/08/2016	10:50	-132.514	44.973	0	754.90	0	3.9460	0	34.2520	0	27.202	0	747.413	0	13.1	4	4.1	4	-1E+10	1	-1E+10	1	-1E+10	1	-1E+10	1	-1E+10	1	-1E+10	1
4901784	40	C	08/08/2016	10:50	-132.514	44.973	0	760.10	0	3.9420	0	34.2570	0	27.207	0	752.552	0	12.8	4	4.0	4	-1E+10	1	-1E+10	1	-1E+10	1	-1E+10	1	-1E+10	1	-1E+10	1
4901784	40	C	08/08/2016	10:50	-132.514	44.973	0	765.30	0	3.9360	0	34.2610	0	27.211	0	757.691	0	12.6	4	4.0	4	-1E+10	1	-1E+10	1	-1E+10	1	-1E+10	1	-1E+10	1	-1E+10	1
4901784	40	C	08/08/2016	10:50	-132.514	44.973	0	770.60	0	3.9230	0	34.2650	0	27.215	0	762.929	0	12.5	4	3.9	4	-1E+10	1	-1E+10	1	-1E+10	1	-1E+10	1	-1E+10	1	-1E+10	1
4901784	40	C	08/08/2016	10:50	-132.514	44.973	0	774.90	0	3.9160	0	34.2690	0	27.219	0	767.178	0	12.3	4	3.9	4	-1E+10	1	-1E+10	1	-1E+10	1	-1E+10	1	-1E+10	1	-1E+10	1
4901784	40	C	08/08/2016	10:50	-132.514	44.973	0	779.30	0	3.9100	0	34.2720	0	27.222	0	771.526	0	12.2	4	3.8	4	-1E+10	1	-1E+10	1	-1E+10	1	-1E+10	1	-1E+10	1	-1E+10	1
4901784	40	C	08/08/2016	10:50	-132.514	44.973	0	784.60	0	3.8980	0	34.2750	0	27.226	0	776.763	0	12.1	4	3.8	4	-1E+10	1	-1E+10	1	-1E+10	1	-1E+10	1	-1E+10	1	-1E+10	1
4901784	40	C	08/08/2016	10:50	-132.514	44.973	0	789.90	0	3.8940	0	34.2770	0	27.228	0	782.000	0	12.0	4	3.8	4	-1E+10	1	-1E+10	1	-1E+10	1	-1E+10	1	-1E+10	1	-1E+10	1
4901784	40	C	08/08/2016	10:50	-132.514	44.973	0	795.20	0	3.8830	0	34.2810	0	27.232	0	787.237	0	11.8	4	3.7	4	-1E+10	1	-1E+10	1	-1E+10	1	-1E+10	1	-1E+10	1	-1E+10	1
4901784	40	C	08/08/2016	10:50	-132.514	44.973	0	800.40	0	3.8700	0	34.2850	0	27.237	0	792.375	0	11.8	4	3.7	4	-1E+10	1	-1E+10	1	-1E+10	1	-1E+10	1	-1E+10	1	-1E+10	1
4901784	40	C	08/08/2016	10:50	-132.514	44.973	0	804.90	0	3.8450	0	34.2870	0	27.241	0	796.822	0	11.8	4	3.7	4	-1E+10	1	-1E+10	1	-1E+10	1	-1E+10	1	-1E+10	1	-1E+10	1
4901784	40	C	08/08/2016	10:50	-132.514	44.973	0	809.30	0	3.8270	0	34.2900	0	27.245	0	801.169	0	11.8	4	3.7	4	-1E+10	1	-1E+10	1	-1E+10	1	-1E+10	1	-1E+10	1	-1E+10	1
4901784	40	C	08/08/2016	10:50	-132.514	44.973	0	814.60	0	3.8040	0	34.2950	0	27.251	0	806.406	0	11.7	4	3.7	4	-1E+10	1	-1E+10	1	-1E+10	1	-1E+10	1	-1E+10	1	-1E+10	1
4901784	40	C	08/08/2016	10:50	-132.514	44.973	0	820.10	0	3.7820	0	34.2990	0	27.257	0	811.840	0	11.7	4	3.7	4	-1E+10	1	-1E+10	1	-1E+10	1	-1E+10	1	-1E+10	1	-1E+10	1
4901784	40	C	08/08/2016	10:50	-132.514	44.973	0	825.50	0	3.7600	0	34.3030	0	27.262	0	817.175	0	11.6	4	3.7	4	-1E+10	1	-1E+10	1	-1E+10	1	-1E+10	1	-1E+10	1	-1E+10	1
4901784	40	C	08/08/2016	10:50	-132.514	44.973	0	830.00	0	3.7560	0	34.3040	0	27.263	0	821.620	0	11.6	4	3.6	4	-1E+10	1	-1E+10	1	-1E+10	1	-1E+10	1	-1E+10	1	-1E+10	1
4901784	40	C	08/08/2016	10:50	-132.514	44.973	0	834.50	0	3.7450	0	34.3080	0	27.268	0	826.066	0	11.5	4	3.6	4	-1E+10	1	-1E+10	1	-1E+10	1	-1E+10	1	-1E+10	1	-1E+10	1
4901784	40	C	08/08/2016	10:50	-132.514	44.973	0	840.00	0	3.7340	0	34.3100	0	27.270	0	831.500	0	11.6	4	3.6	4	-1E+10	1	-1E+10	1	-1E+10	1	-1E+10	1	-1E+10	1	-1E+10	1
4901784	40	C	08/08/2016	10:50	-132.514	44.973	0	845.40	0	3.7170	0	34.3120	0	27.274	0	836.834	0	11.6	4	3.6	4	-1E+10	1	-1E+10	1	-1E+10	1	-1E+10	1	-1E+10	1	-1E+10	1
4901784	40	C	08/08/2016	10:50	-132.514	44.973	0	850.00	0	3.7070	0	34.3150	0	27.277	0	841.378	0	11.5	4	3.6	4	-1E+10	1	-1E+10	1	-1E+10	1	-1E+10	1	-1E+10	1	-1E+10	1
4901784	40	C	08/08/2016	10:50	-132.514	44.973	0	854.60	0	3.6960	0	34.3180	0	27.281	0	845.922	0	11.5	4	3.6	4	-1E+10	1	-1E+10	1	-1E+10	1	-1E+10	1	-1E+10	1	-1E+10	1
4901784	40	C	08/08/2016	10:50	-132.514	44.973	0	860.10	0	3.6830	0	34.3200	0	27.283	0	851.355	0	11.5	4	3.6	4	-1E+10	1	-1E+10	1	-1E+10	1	-1E+10	1	-1E+10	1	-1E+10	1
4901784	40	C	08/08/2016	10:50	-132.514	44.973	0	864.70	0	3.6740	0	34.3230	0	27.287	0	855.899	0	11.5	4	3.6	4	-1E+10	1	-1E+10	1	-1E+10	1	-1E+10	1	-1E+10	1	-1E+10	1
4901784	40	C	08/08/2016	10:50	-132.514	44.973	0	869.40	0	3.6690	0	34.3260	0	27.290	0	860.542	0	11.4	4	3.6	4	-1E+10	1	-1E+10	1	-1E+10	1	-1E+10	1	-1E+10	1	-1E+10	1
4901784	40	C	08/08/2016	10:50	-132.514	44.973	0	875.00	0	3.6580	0	34.3280	0	27.292	0	866.073	0	11.4	4	3.6	4	-1E+10	1	-1E+10	1	-1E+10	1	-1E+10	1	-1E+10	1	-1E+10	1
4901784	40	C	08/08/2016	10:50	-132.514	44.973	0	880.60	0	3.6500	0	34.3310	0	27.296	0	871.604	0	11.4	4	3.6	4	-1E+10	1	-1E+10	1	-1E+10	1	-1E+10	1	-1E+10	1	-1E+10	1
4901784	40	C	08/08/2016	10:50	-132.514	44.973	0	885.20	0	3.6380	0	34.3340	0	27.299	0	876.148	0	11.4	4	3.6	4	-1E+10	1	-1E+10	1	-1E+10	1	-1E+10	1	-1E+10	1	-1E+10	1
4901784	40	C	08/08/2016	10:50	-132.514	44.973	0	889.90	0	3.6210	0	34.3370	0	27.303	0	880.790	0	11.4	4	3.6	4	-1E+10	1	-1E+10	1	-1E+10	1	-1E+10	1	-1E+10	1	-1E+10	1
4901784	40	C	08/08/2016	10:50	-132.514	44.973	0	895.50	0	3.6050	0	34.3390	0	27.307	0	886.320	0	11.5	4	3.6	4	-1E+10	1	-1E+10	1	-1E+10	1	-1E+10	1	-1E+10	1	-1E+10	1
4901784	40	C	08/08/2016	10:50	-132.514	44.973	0	900.30	0	3.5970	0	34.3440	0	27.311	0	891.061	0	11.5	4	3.6	4	-1E+10	1	-1E+10	1	-1E+10	1	-1E+10	1	-1E+10	1	-1E+10	1
4901784	40	C	08/08/2016	10:50	-132.514	44.973	0	905.00	0	3.5850	0	34.3470	0	27.315	0	895.703	0	11.5	4	3.6	4	-1E+10	1	-1E+10	1	-1E+10	1	-1E+10	1	-1E+10	1	-1E+10	1
4901784	40	C	08/08/2016	10:50	-132.514	44.973	0	909.70	0	3.5580	0	34.3500	0	27.320	0	900.344	0	11.5	4	3.6	4	-1E+10	1	-1E+10	1	-1E+10	1	-1E+10	1	-1E+10	1	-1E+10	1
4901784	40	C	08/08/2016	10:50	-132.514	44.973	0	914.40	0	3.5430	0	34.3520	0	27.323	0	904.986	0	11.5	4	3.6	4	-1E+10	1	-1E+10	1	-1E+10	1	-1E+10	1	-1E+10	1	-1E+10	1
4901784	40	C	08/08/2016	10:50	-132.514	44.973	0	920.10	0	3.5280	0	34.3550	0	27.327	0	910.615	0	11.5	4	3.6	4	-1E+10	1	-1E+10	1	-1E+10	1	-1E+10	1	-1E+10	1	-1E+10	1
4901784	40	C	08/08/2016	10:50	-132.514	44.973	0	925.50	0	3.5220	0	34.3580	0	27.330	0	915.947	0	11.6	4	3.6	4	-1E+10	1	-1E+10	1	-1E+10	1	-1E+10	1	-1E+10	1	-1E+10	1
4901784	40	C	08/08/2016	10:50	-132.514	44.973	0	930.30	0	3.5170	0	34.3600	0	27.332	0	920.687	0	11.7	4	3.7	4	-1E+10	1	-1E+10	1	-1E+10	1	-1E+10	1	-1E+10	1	-1E+10	1
4901784	40	C	08/08/2016	10:50	-132.514	44.973	0	935.20	0	3.5140	0	34.3630	0	27.335	0	925.526	0	11.8	4	3.7	4	-1E+10	1	-1E+10	1	-1E+10	1	-1E+10	1	-1E+10	1	-1E+10	1
4901784	40	C	08/08/2016	10:50	-132.514	44.973	0	940.00	0	3.5060	0	34.3650	0	27.337	0	930.265	0	11.8	4	3.7	4	-1E+10	1	-1E+10	1	-1E+10	1	-1E+10	1	-1E+10	1	-1E+10	1
4901784	40	C	08/08/2016	10:50	-132.514	44.973	0	944.90	0	3.4900	0	34.3680	0	27.341	0	935.104	0	11.9	4	3.7	4	-1E+10	1	-1E+10	1	-1E+10	1	-1E+10	1	-1E+10	1	-1E+10	1
4901784	40	C	08/08/2016	10:50	-132.514	44.973	0	949.80	0	3.4780	0	34.3700	0	27.344	0	939.942	0	12.0	4	3.8	4	-1E+10	1	-1E+10	1	-1E+10	1	-1E+10	1	-1E+10	1	-1E+10	1
4901784	40	C	08/08/2016	10:50	-132.514	44.973	0	954.70	0	3.4670	0	34.3720	0	27.347	0	944.780	0	12.1	4	3.8	4	-1E+10	1	-1E+10	1	-1E+10	1	-1E+10	1	-1E+10	1	-1E+10	1
4901784	40	C	08/08/2016	10:50	-132.514	44.973	0	959.60	0	3.4560	0	34.3740	0	27.349	0	949.618	0	12.2	4	3.8	4	-1E+10	1	-1E+10	1	-1E+10	1	-1E+10	1	-1E+10	1	-1E+10	1
4901784	40	C	08/08/2016	10:50	-132.514	44.973	0	964.60	0	3.4430	0	34.3780	0	27.354	0	954.555	0	12.3	4	3.8	4	-1E+10	1	-1E+10	1	-1E+10	1	-1E+10	1	-1E+10	1	-1E+10	1
4901784	40	C	08/08/2016	10:50	-132.514	44.973	0	969.60	0	3.4340	0	34.3820	0	27.358	0	959.491	0	12.6	4	3.9	4	-1E+10	1	-1E+10	1	-1E+10	1	-1E+10	1	-1E+10	1	-1E+10	1
4901784	40	C	08/08/2016	10:50	-132.514	44.973	0	974.60	0	3.4390	0	34.3890	0	27.363	0	964.427	0	13.0	4	4.0	4	-1E+10	1	-1E+10	1	-1E+10	1	-1E+10	1	-1E+10	1	-1E+10	1
4901784	40	C	08/08/2016	10:50	-132.514	44.973	0	979.50	0	3.4260	0	34.3920	0	27.367	0	969.265	0	12.8	4	4.0	4	-1E+10	1	-1E+10	1	-1E+10	1	-1E+10	1	-1E+10	1	-1E+10	1
4901784	40	C	08/08/2016	10:50	-132.514	44.973	0	984.50	0	3.3930	0	34.3920	0	27.370	0	974.201	0	12.5	4	3.9	4	-1E+10	1	-1E+10	1	-1E+10	1	-1E+10	1	-1E+10	1	-1E+10	1
4901784	40	C	08/08/2016	10:50	-132.514	44.973	0	989.60	0	3.3730	0	34.3930	0	27.372	0	979.236	0	12.4	4	3.9	4	-1E+10	1	-1E+10	1	-1E+10	1	-1E+10	1	-1E+10	1	-1E+10	1
4901784	40	C	08/08/2016	10:50	-132.514	44.973	0	994.70	0	3.3600	0	34.3950	0	27.375	0	984.270	0	12.5	4	3.9	4	-1E+10	1	-1E+10	1	-1E+10	1	-1E+10	1	-1E+10	1	-1E+10	1
4901784	40	C	08/08/2016	10:50	-132.514	44.973	0	999.90	0	3.3550	0	34.4000	0	27.380	0	989.404	0	12.7	4	4.0	4	-1E+10	1	-1E+10	1	-1E+10	1	-1E+10	1	-1E+10	1	-1E+10	1
4901784	40	C	08/08/2016	10:50	-132.514	44.973	0	1005.00	0	3.3460	0	34.4020	0	27.382	0	994.438	0	12.9	4	4.0	4	-1E+10	1	-1E+10	1	-1E+10	1	-1E+10	1	-1E+10	1	-1E+10	1
4901784	40	C	08/08/2016	10:50	-132.514	44.973	0	1010.30	0	3.3410	0	34.4060	0	27.386	0	999.670	0	13.3	4	4.1	4	-1E+10	1	-1E+10	1	-1E+10	1	-1E+10	1	-1E+10	1	-1E+10	1
4901784	40	C	08/08/2016	10:50	-132.514	44.973	0	1015.60	0	3.3500	0	34.4100	0	27.388	0	1004.901	0	13.6	4	4.2	4	-1E+10	1	-1E+10	1	-1E+10	1	-1E+10	1	-1E+10	1	-1E+10	1
4901784	40	C	08/08/2016	10:50	-132.514	44.973	0	1020.10	0	3.3460	0	34.4130	0	27.391	0	1009.343	0	13.8	4	4.3	4	-1E+10	1	-1E+10	1	-1E+10	1	-1E+10	1	-1E+10	1	-1E+10	1
4901784	40	C	08/08/2016	10:50	-132.514	44.973	0	1024.60	0	3.3390	0	34.4140	0	27.393	0	1013.785	0	14.1	4	4.4	4	-1E+10	1	-1E+10	1	-1E+10	1	-1E+10	1	-1E+10	1	-1E+10	1
4901784	40	C	08/08/2016	10:50	-132.514	44.973	0	1030.00	0	3.3400	0	34.4180	0	27.396	0	1019.115	0	14.4	4	4.5	4	-1E+10	1	-1E+10	1	-1E+10	1	-1E+10	1	-1E+10	1	-1E+10	1
4901784	40	C	08/08/2016	10:50	-132.514	44.973	0	1035.30	0	3.3360	0	34.4200	0	27.398	0	1024.346	0	14.5	4	4.5	4	-1E+10	1	-1E+10	1	-1E+10	1	-1E+10	1	-1E+10	1	-1E+10	1
4901784	40	C	08/08/2016	10:50	-132.514	44.973	0	1039.80	0	3.3260	0	34.4210	0	27.400	0	1028.787	0	14.6	4	4.6	4	-1E+10	1	-1E+10	1	-1E+10	1	-1E+10	1	-1E+10	1	-1E+10	1
4901784	40	C	08/08/2016	10:50	-132.514	44.973	0	1044.30	0	3.3150	0	34.4230	0	27.402	0	1033.228	0	14.9	4	4.6	4	-1E+10	1	-1E+10	1	-1E+10	1	-1E+10	1	-1E+10	1	-1E+10	1
4901784	40	C	08/08/2016	10:50	-132.514	44.973	0	1050.60	0	3.3190	0	34.4260	0	27.404	0	1039.446	0	15.4	4	4.8	4	-1E+10	1	-1E+10	1	-1E+10	1	-1E+10	1	-1E+10	1	-1E+10	1
4901784	40	C	08/08/2016	10:50	-132.514	44.973	0	1055.60	0	3.3200	0	34.4280	0	27.406	0	1044.380	0	15.7	4	4.9	4	-1E+10	1	-1E+10	1	-1E+10	1	-1E+10	1	-1E+10	1	-1E+10	1
4901784	40	C	08/08/2016	10:50	-132.514	44.973	0	1060.30	0	3.3210	0	34.4290	0	27.407	0	1049.019	0	16.1	4	5.0	4	-1E+10	1	-1E+10	1	-1E+10	1	-1E+10	1	-1E+10	1	-1E+10	1
4901784	40	C	08/08/2016	10:50	-132.514	44.973	0	1065.10	0	3.3220	0	34.4320	0	27.409	0	1053.755	0	16.4	4	5.1	4	-1E+10	1	-1E+10	1	-1E+10	1	-1E+10	1	-1E+10	1	-1E+10	1
4901784	40	C	08/08/2016	10:50	-132.514	44.973	0	1070.00	0	3.3180	0	34.4340	0	27.411	0	1058.591	0	16.7	4	5.2	4	-1E+10	1	-1E+10	1	-1E+10	1	-1E+10	1	-1E+10	1	-1E+10	1
4901784	40	C	08/08/2016	10:50	-132.514	44.973	0	1074.80	0	3.3140	0	34.4380	0	27.414	0	1063.328	0	17.1	4	5.3	4	-1E+10	1	-1E+10	1	-1E+10	1	-1E+10	1	-1E+10	1	-1E+10	1
4901784	40	C	08/08/2016	10:50	-132.514	44.973	0	1079.80	0	3.3150	0	34.4400	0	27.416	0	1068.262	0	17.3	4	5.4	4	-1E+10	1	-1E+10	1	-1E+10	1	-1E+10	1	-1E+10	1	-1E+10	1
4901784	40	C	08/08/2016	10:50	-132.514	44.973	0	1084.70	0	3.3120	0	34.4410	0	27.417	0	1073.097	0	17.4	4	5.4	4	-1E+10	1	-1E+10	1	-1E+10	1	-1E+10	1	-1E+10	1	-1E+10	1
4901784	40	C	08/08/2016	10:50	-132.514	44.973	0	1089.80	0	3.3070	0	34.4410	0	27.418	0	1078.129	0	17.4	4	5.4	4	-1E+10	1	-1E+10	1	-1E+10	1	-1E+10	1	-1E+10	1	-1E+10	1
4901784	40	C	08/08/2016	10:50	-132.514	44.973	0	1094.90	0	3.2940	0	34.4420	0	27.420	0	1083.161	0	17.3	4	5.4	4	-1E+10	1	-1E+10	1	-1E+10	1	-1E+10	1	-1E+10	1	-1E+10	1
4901784	40	C	08/08/2016	10:50	-132.514	44.973	0	1100.00	0	3.2890	0	34.4430	0	27.421	0	1088.193	0	17.3	4	5.4	4	-1E+10	1	-1E+10	1	-1E+10	1	-1E+10	1	-1E+10	1	-1E+10	1
4901784	40	C	08/08/2016	10:50	-132.514	44.973	0	1105.20	0	3.2810	0	34.4430	0	27.422	0	1093.324	0	17.3	4	5.4	4	-1E+10	1	-1E+10	1	-1E+10	1	-1E+10	1	-1E+10	1	-1E+10	1
4901784	40	C	08/08/2016	10:50	-132.514	44.973	0	1110.40	0	3.2680	0	34.4430	0	27.423	0	1098.454	0	17.3	4	5.4	4	-1E+10	1	-1E+10	1	-1E+10	1	-1E+10	1	-1E+10	1	-1E+10	1
4901784	40	C	08/08/2016	10:50	-132.514	44.973	0	1115.70	0	3.2610	0	34.4440	0	27.424	0	1103.683	0	17.4	4	5.4	4	-1E+10	1	-1E+10	1	-1E+10	1	-1E+10	1	-1E+10	1	-1E+10	1
4901784	40	C	08/08/2016	10:50	-132.514	44.973	0	1120.20	0	3.2510	0	34.4450	0	27.426	0	1108.123	0	17.4	4	5.4	4	-1E+10	1	-1E+10	1	-1E+10	1	-1E+10	1	-1E+10	1	-1E+10	1
4901784	40	C	08/08/2016	10:50	-132.514	44.973	0	1124.60	0	3.2300	0	34.4460	0	27.429	0	1112.464	0	17.3	4	5.4	4	-1E+10	1	-1E+10	1	-1E+10	1	-1E+10	1	-1E+10	1	-1E+10	1
4901784	40	C	08/08/2016	10:50	-132.514	44.973	0	1129.90	0	3.2200	0	34.4470	0	27.431	0	1117.693	0	17.3	4	5.4	4	-1E+10	1	-1E+10	1	-1E+10	1	-1E+10	1	-1E+10	1	-1E+10	1
4901784	40	C	08/08/2016	10:50	-132.514	44.973	0	1135.20	0	3.2050	0	34.4460	0	27.431	0	1122.921	0	17.1	4	5.3	4	-1E+10	1	-1E+10	1	-1E+10	1	-1E+10	1	-1E+10	1	-1E+10	1
4901784	40	C	08/08/2016	10:50	-132.514	44.973	0	1140.60	0	3.1810	0	34.4470	0	27.434	0	1128.248	0	17.4	4	5.4	4	-1E+10	1	-1E+10	1	-1E+10	1	-1E+10	1	-1E+10	1	-1E+10	1
4901784	40	C	08/08/2016	10:50	-132.514	44.973	0	1145.20	0	3.1940	0	34.4500	0	27.436	0	1132.786	0	17.7	4	5.5	4	-1E+10	1	-1E+10	1	-1E+10	1	-1E+10	1	-1E+10	1	-1E+10	1
4901784	40	C	08/08/2016	10:50	-132.514	44.973	0	1149.80	0	3.1900	0	34.4520	0	27.438	0	1137.324	0	17.5	4	5.4	4	-1E+10	1	-1E+10	1	-1E+10	1	-1E+10	1	-1E+10	1	-1E+10	1
4901784	40	C	08/08/2016	10:50	-132.514	44.973	0	1155.30	0	3.1630	0	34.4490	0	27.438	0	1142.749	0	17.2	4	5.3	4	-1E+10	1	-1E+10	1	-1E+10	1	-1E+10	1	-1E+10	1	-1E+10	1
4901784	40	C	08/08/2016	10:50	-132.514	44.973	0	1159.80	0	3.1490	0	34.4480	0	27.438	0	1147.188	0	17.3	4	5.4	4	-1E+10	1	-1E+10	1	-1E+10	1	-1E+10	1	-1E+10	1	-1E+10	1
4901784	40	C	08/08/2016	10:50	-132.514	44.973	0	1164.40	0	3.1380	0	34.4510	0	27.442	0	1151.726	0	17.9	4	5.5	4	-1E+10	1	-1E+10	1	-1E+10	1	-1E+10	1	-1E+10	1	-1E+10	1
4901784	40	C	08/08/2016	10:50	-132.514	44.973	0	1169.90	0	3.1510	0	34.4570	0	27.445	0	1157.151	0	18.7	4	5.8	4	-1E+10	1	-1E+10	1	-1E+10	1	-1E+10	1	-1E+10	1	-1E+10	1
4901784	40	C	08/08/2016	10:50	-132.514	44.973	0	1175.50	0	3.1680	0	34.4600	0	27.446	0	1162.674	0	19.2	4	6.0	4	-1E+10	1	-1E+10	1	-1E+10	1	-1E+10	1	-1E+10	1	-1E+10	1
4901784	40	C	08/08/2016	10:50	-132.514	44.973	0	1180.20	0	3.1760	0	34.4620	0	27.447	0	1167.310	0	19.3	4	6.0	4	-1E+10	1	-1E+10	1	-1E+10	1	-1E+10	1	-1E+10	1	-1E+10	1
4901784	40	C	08/08/2016	10:50	-132.514	44.973	0	1184.90	0	3.1640	0	34.4620	0	27.448	0	1171.945	0	19.1	4	5.9	4	-1E+10	1	-1E+10	1	-1E+10	1	-1E+10	1	-1E+10	1	-1E+10	1
4901784	40	C	08/08/2016	10:50	-132.514	44.973	0	1190.60	0	3.1360	0	34.4620	0	27.451	0	1177.567	0	19.0	4	5.9	4	-1E+10	1	-1E+10	1	-1E+10	1	-1E+10	1	-1E+10	1	-1E+10	1
4901784	40	C	08/08/2016	10:50	-132.514	44.973	0	1195.20	0	3.1360	0	34.4630	0	27.452	0	1182.104	0	19.0	4	5.9	4	-1E+10	1	-1E+10	1	-1E+10	1	-1E+10	1	-1E+10	1	-1E+10	1
4901784	40	C	08/08/2016	10:50	-132.514	44.973	0	1199.90	0	3.1120	0	34.4620	0	27.453	0	1186.739	0	18.8	4	5.8	4	-1E+10	1	-1E+10	1	-1E+10	1	-1E+10	1	-1E+10	1	-1E+10	1
4901784	40	C	08/08/2016	10:50	-132.514	44.973	0	1205.50	0	3.0980	0	34.4620	0	27.454	0	1192.262	0	18.9	4	5.8	4	-1E+10	1	-1E+10	1	-1E+10	1	-1E+10	1	-1E+10	1	-1E+10	1
4901784	40	C	08/08/2016	10:50	-132.514	44.973	0	1210.30	0	3.0890	0	34.4640	0	27.457	0	1196.995	0	19.0	4	5.9	4	-1E+10	1	-1E+10	1	-1E+10	1	-1E+10	1	-1E+10	1	-1E+10	1
4901784	40	C	08/08/2016	10:50	-132.514	44.973	0	1215.00	0	3.0800	0	34.4640	0	27.458	0	1201.630	0	19.1	4	5.9	4	-1E+10	1	-1E+10	1	-1E+10	1	-1E+10	1	-1E+10	1	-1E+10	1
4901784	40	C	08/08/2016	10:50	-132.514	44.973	0	1220.60	0	3.0690	0	34.4670	0	27.461	0	1207.153	0	19.4	4	6.0	4	-1E+10	1	-1E+10	1	-1E+10	1	-1E+10	1	-1E+10	1	-1E+10	1
4901784	40	C	08/08/2016	10:50	-132.514	44.973	0	1225.30	0	3.0570	0	34.4680	0	27.463	0	1211.787	0	19.6	4	6.0	4	-1E+10	1	-1E+10	1	-1E+10	1	-1E+10	1	-1E+10	1	-1E+10	1
4901784	40	C	08/08/2016	10:50	-132.514	44.973	0	1230.10	0	3.0530	0	34.4690	0	27.464	0	1216.520	0	19.8	4	6.1	4	-1E+10	1	-1E+10	1	-1E+10	1	-1E+10	1	-1E+10	1	-1E+10	1
4901784	40	C	08/08/2016	10:50	-132.514	44.973	0	1234.80	0	3.0440	0	34.4710	0	27.467	0	1221.155	0	20.3	4	6.3	4	-1E+10	1	-1E+10	1	-1E+10	1	-1E+10	1	-1E+10	1	-1E+10	1
4901784	40	C	08/08/2016	10:50	-132.514	44.973	0	1239.60	0	3.0550	0	34.4750	0	27.469	0	1225.888	0	20.8	4	6.4	4	-1E+10	1	-1E+10	1	-1E+10	1	-1E+10	1	-1E+10	1	-1E+10	1
4901784	40	C	08/08/2016	10:50	-132.514	44.973	0	1245.20	0	3.0620	0	34.4770	0	27.470	0	1231.410	0	20.9	4	6.5	4	-1E+10	1	-1E+10	1	-1E+10	1	-1E+10	1	-1E+10	1	-1E+10	1
4901784	40	C	08/08/2016	10:50	-132.514	44.973	0	1249.90	0	3.0300	0	34.4770	0	27.473	0	1236.044	0	20.9	4	6.5	4	-1E+10	1	-1E+10	1	-1E+10	1	-1E+10	1	-1E+10	1	-1E+10	1
4901784	40	C	08/08/2016	10:50	-132.514	44.973	0	1254.70	0	3.0280	0	34.4790	0	27.475	0	1240.776	0	21.4	4	6.6	4	-1E+10	1	-1E+10	1	-1E+10	1	-1E+10	1	-1E+10	1	-1E+10	1
4901784	40	C	08/08/2016	10:50	-132.514	44.973	0	1260.30	0	3.0430	0	34.4820	0	27.476	0	1246.298	0	21.6	4	6.7	4	-1E+10	1	-1E+10	1	-1E+10	1	-1E+10	1	-1E+10	1	-1E+10	1
4901784	40	C	08/08/2016	10:50	-132.514	44.973	0	1265.00	0	3.0260	0	34.4810	0	27.477	0	1250.931	0	21.4	4	6.6	4	-1E+10	1	-1E+10	1	-1E+10	1	-1E+10	1	-1E+10	1	-1E+10	1
4901784	40	C	08/08/2016	10:50	-132.514	44.973	0	1269.70	0	3.0010	0	34.4810	0	27.479	0	1255.565	0	21.5	4	6.7	4	-1E+10	1	-1E+10	1	-1E+10	1	-1E+10	1	-1E+10	1	-1E+10	1
4901784	40	C	08/08/2016	10:50	-132.514	44.973	0	1275.40	0	2.9970	0	34.4830	0	27.481	0	1261.185	0	22.1	4	6.8	4	-1E+10	1	-1E+10	1	-1E+10	1	-1E+10	1	-1E+10	1	-1E+10	1
4901784	40	C	08/08/2016	10:50	-132.514	44.973	0	1280.10	0	3.0010	0	34.4870	0	27.484	0	1265.818	0	22.3	4	6.9	4	-1E+10	1	-1E+10	1	-1E+10	1	-1E+10	1	-1E+10	1	-1E+10	1
4901784	40	C	08/08/2016	10:50	-132.514	44.973	0	1284.80	0	2.9950	0	34.4870	0	27.484	0	1270.452	0	22.3	4	6.9	4	-1E+10	1	-1E+10	1	-1E+10	1	-1E+10	1	-1E+10	1	-1E+10	1
4901784	40	C	08/08/2016	10:50	-132.514	44.973	0	1290.50	0	2.9780	0	34.4860	0	27.485	0	1276.071	0	22.4	4	6.9	4	-1E+10	1	-1E+10	1	-1E+10	1	-1E+10	1	-1E+10	1	-1E+10	1
4901784	40	C	08/08/2016	10:50	-132.514	44.973	0	1295.20	0	2.9790	0	34.4890	0	27.487	0	1280.704	0	22.6	4	7.0	4	-1E+10	1	-1E+10	1	-1E+10	1	-1E+10	1	-1E+10	1	-1E+10	1
4901784	40	C	08/08/2016	10:50	-132.514	44.973	0	1299.90	0	2.9650	0	34.4880	0	27.488	0	1285.337	0	22.4	4	6.9	4	-1E+10	1	-1E+10	1	-1E+10	1	-1E+10	1	-1E+10	1	-1E+10	1
4901784	40	C	08/08/2016	10:50	-132.514	44.973	0	1305.50	0	2.9530	0	34.4880	0	27.489	0	1290.857	0	22.3	4	6.9	4	-1E+10	1	-1E+10	1	-1E+10	1	-1E+10	1	-1E+10	1	-1E+10	1
4901784	40	C	08/08/2016	10:50	-132.514	44.973	0	1310.20	0	2.9250	0	34.4860	0	27.490	0	1295.490	0	22.1	4	6.8	4	-1E+10	1	-1E+10	1	-1E+10	1	-1E+10	1	-1E+10	1	-1E+10	1
4901784	40	C	08/08/2016	10:50	-132.514	44.973	0	1314.90	0	2.9160	0	34.4880	0	27.492	0	1300.123	0	22.3	4	6.9	4	-1E+10	1	-1E+10	1	-1E+10	1	-1E+10	1	-1E+10	1	-1E+10	1
4901784	40	C	08/08/2016	10:50	-132.514	44.973	0	1320.50	0	2.9080	0	34.4880	0	27.493	0	1305.642	0	22.6	4	7.0	4	-1E+10	1	-1E+10	1	-1E+10	1	-1E+10	1	-1E+10	1	-1E+10	1
4901784	40	C	08/08/2016	10:50	-132.514	44.973	0	1325.30	0	2.9100	0	34.4910	0	27.495	0	1310.373	0	23.0	4	7.1	4	-1E+10	1	-1E+10	1	-1E+10	1	-1E+10	1	-1E+10	1	-1E+10	1
4901784	40	C	08/08/2016	10:50	-132.514	44.973	0	1329.80	0	2.9040	0	34.4930	0	27.497	0	1314.809	0	23.3	4	7.2	4	-1E+10	1	-1E+10	1	-1E+10	1	-1E+10	1	-1E+10	1	-1E+10	1
4901784	40	C	08/08/2016	10:50	-132.514	44.973	0	1334.80	0	2.8940	0	34.4940	0	27.499	0	1319.737	0	23.4	4	7.2	4	-1E+10	1	-1E+10	1	-1E+10	1	-1E+10	1	-1E+10	1	-1E+10	1
4901784	40	C	08/08/2016	10:50	-132.514	44.973	0	1339.70	0	2.8790	0	34.4950	0	27.501	0	1324.566	0	23.6	4	7.3	4	-1E+10	1	-1E+10	1	-1E+10	1	-1E+10	1	-1E+10	1	-1E+10	1
4901784	40	C	08/08/2016	10:50	-132.514	44.973	0	1344.70	0	2.8700	0	34.4960	0	27.503	0	1329.494	0	23.9	4	7.4	4	-1E+10	1	-1E+10	1	-1E+10	1	-1E+10	1	-1E+10	1	-1E+10	1
4901784	40	C	08/08/2016	10:50	-132.514	44.973	0	1349.70	0	2.8680	0	34.4980	0	27.505	0	1334.421	0	24.2	4	7.5	4	-1E+10	1	-1E+10	1	-1E+10	1	-1E+10	1	-1E+10	1	-1E+10	1
4901784	40	C	08/08/2016	10:50	-132.514	44.973	0	1354.80	0	2.8680	0	34.5000	0	27.506	0	1339.447	0	24.6	4	7.6	4	-1E+10	1	-1E+10	1	-1E+10	1	-1E+10	1	-1E+10	1	-1E+10	1
4901784	40	C	08/08/2016	10:50	-132.514	44.973	0	1359.80	0	2.8650	0	34.5010	0	27.507	0	1344.375	0	24.9	4	7.7	4	-1E+10	1	-1E+10	1	-1E+10	1	-1E+10	1	-1E+10	1	-1E+10	1
4901784	40	C	08/08/2016	10:50	-132.514	44.973	0	1364.90	0	2.8520	0	34.5030	0	27.510	0	1349.401	0	25.2	4	7.7	4	-1E+10	1	-1E+10	1	-1E+10	1	-1E+10	1	-1E+10	1	-1E+10	1
4901784	40	C	08/08/2016	10:50	-132.514	44.973	0	1370.00	0	2.8420	0	34.5040	0	27.512	0	1354.426	0	25.3	4	7.8	4	-1E+10	1	-1E+10	1	-1E+10	1	-1E+10	1	-1E+10	1	-1E+10	1
4901784	40	C	08/08/2016	10:50	-132.514	44.973	0	1375.40	0	2.8230	0	34.5040	0	27.514	0	1359.748	0	25.3	4	7.8	4	-1E+10	1	-1E+10	1	-1E+10	1	-1E+10	1	-1E+10	1	-1E+10	1
4901784	40	C	08/08/2016	10:50	-132.514	44.973	0	1380.20	0	2.8180	0	34.5050	0	27.515	0	1364.477	0	25.4	4	7.8	4	-1E+10	1	-1E+10	1	-1E+10	1	-1E+10	1	-1E+10	1	-1E+10	1
4901784	40	C	08/08/2016	10:50	-132.514	44.973	0	1384.60	0	2.8150	0	34.5050	0	27.515	0	1368.813	0	25.5	4	7.8	4	-1E+10	1	-1E+10	1	-1E+10	1	-1E+10	1	-1E+10	1	-1E+10	1
4901784	40	C	08/08/2016	10:50	-132.514	44.973	0	1390.00	0	2.8020	0	34.5060	0	27.517	0	1374.134	0	25.7	4	7.9	4	-1E+10	1	-1E+10	1	-1E+10	1	-1E+10	1	-1E+10	1	-1E+10	1
4901784	40	C	08/08/2016	10:50	-132.514	44.973	0	1395.60	0	2.7880	0	34.5070	0	27.519	0	1379.652	0	25.9	4	8.0	4	-1E+10	1	-1E+10	1	-1E+10	1	-1E+10	1	-1E+10	1	-1E+10	1
4901784	40	C	08/08/2016	10:50	-132.514	44.973	0	1400.60	0	2.7810	0	34.5080	0	27.521	0	1384.578	0	26.0	4	8.0	4	-1E+10	1	-1E+10	1	-1E+10	1	-1E+10	1	-1E+10	1	-1E+10	1
4901784	40	C	08/08/2016	10:50	-132.514	44.973	0	1405.70	0	2.7730	0	34.5080	0	27.521	0	1389.603	0	26.0	4	8.0	4	-1E+10	1	-1E+10	1	-1E+10	1	-1E+10	1	-1E+10	1	-1E+10	1
4901784	40	C	08/08/2016	10:50	-132.514	44.973	0	1410.00	0	2.7640	0	34.5090	0	27.523	0	1393.840	0	26.1	4	8.0	4	-1E+10	1	-1E+10	1	-1E+10	1	-1E+10	1	-1E+10	1	-1E+10	1
4901784	40	C	08/08/2016	10:50	-132.514	44.973	0	1414.40	0	2.7610	0	34.5090	0	27.523	0	1398.175	0	26.1	4	8.0	4	-1E+10	1	-1E+10	1	-1E+10	1	-1E+10	1	-1E+10	1	-1E+10	1
4901784	40	C	08/08/2016	10:50	-132.514	44.973	0	1419.70	0	2.7520	0	34.5090	0	27.524	0	1403.396	0	26.2	4	8.0	4	-1E+10	1	-1E+10	1	-1E+10	1	-1E+10	1	-1E+10	1	-1E+10	1
4901784	40	C	08/08/2016	10:50	-132.514	44.973	0	1424.90	0	2.7350	0	34.5090	0	27.526	0	1408.519	0	26.1	4	8.0	4	-1E+10	1	-1E+10	1	-1E+10	1	-1E+10	1	-1E+10	1	-1E+10	1
4901784	40	C	08/08/2016	10:50	-132.514	44.973	0	1430.30	0	2.7210	0	34.5080	0	27.526	0	1413.839	0	26.0	4	8.0	4	-1E+10	1	-1E+10	1	-1E+10	1	-1E+10	1	-1E+10	1	-1E+10	1
4901784	40	C	08/08/2016	10:50	-132.514	44.973	0	1434.80	0	2.7130	0	34.5090	0	27.528	0	1418.272	0	26.0	4	8.0	4	-1E+10	1	-1E+10	1	-1E+10	1	-1E+10	1	-1E+10	1	-1E+10	1
4901784	40	C	08/08/2016	10:50	-132.514	44.973	0	1439.40	0	2.7000	0	34.5090	0	27.529	0	1422.804	0	26.0	4	8.0	4	-1E+10	1	-1E+10	1	-1E+10	1	-1E+10	1	-1E+10	1	-1E+10	1
4901784	40	C	08/08/2016	10:50	-132.514	44.973	0	1444.90	0	2.6890	0	34.5090	0	27.530	0	1428.222	0	26.1	4	8.0	4	-1E+10	1	-1E+10	1	-1E+10	1	-1E+10	1	-1E+10	1	-1E+10	1
4901784	40	C	08/08/2016	10:50	-132.514	44.973	0	1450.40	0	2.6790	0	34.5090	0	27.531	0	1433.639	0	26.1	4	8.0	4	-1E+10	1	-1E+10	1	-1E+10	1	-1E+10	1	-1E+10	1	-1E+10	1
4901784	40	C	08/08/2016	10:50	-132.514	44.973	0	1455.20	0	2.6590	0	34.5090	0	27.532	0	1438.368	0	26.1	4	8.0	4	-1E+10	1	-1E+10	1	-1E+10	1	-1E+10	1	-1E+10	1	-1E+10	1
4901784	40	C	08/08/2016	10:50	-132.514	44.973	0	1459.40	0	2.6550	0	34.5090	0	27.533	0	1442.505	0	26.3	4	8.1	4	-1E+10	1	-1E+10	1	-1E+10	1	-1E+10	1	-1E+10	1	-1E+10	1
4901784	40	C	08/08/2016	10:50	-132.514	44.973	0	1464.60	0	2.6420	0	34.5100	0	27.535	0	1447.627	0	26.4	4	8.1	4	-1E+10	1	-1E+10	1	-1E+10	1	-1E+10	1	-1E+10	1	-1E+10	1
4901784	40	C	08/08/2016	10:50	-132.514	44.973	0	1469.40	0	2.6290	0	34.5100	0	27.536	0	1452.355	0	26.5	4	8.1	4	-1E+10	1	-1E+10	1	-1E+10	1	-1E+10	1	-1E+10	1	-1E+10	1
4901784	40	C	08/08/2016	10:50	-132.514	44.973	0	1474.40	0	2.6160	0	34.5110	0	27.538	0	1457.279	0	26.6	4	8.1	4	-1E+10	1	-1E+10	1	-1E+10	1	-1E+10	1	-1E+10	1	-1E+10	1
4901784	40	C	08/08/2016	10:50	-132.514	44.973	0	1479.40	0	2.6020	0	34.5120	0	27.540	0	1462.204	0	26.8	4	8.2	4	-1E+10	1	-1E+10	1	-1E+10	1	-1E+10	1	-1E+10	1	-1E+10	1
4901784	40	C	08/08/2016	10:50	-132.514	44.973	0	1484.50	0	2.5830	0	34.5120	0	27.541	0	1467.227	0	26.6	4	8.1	4	-1E+10	1	-1E+10	1	-1E+10	1	-1E+10	1	-1E+10	1	-1E+10	1
4901784	40	C	08/08/2016	10:50	-132.514	44.973	0	1489.60	0	2.5540	0	34.5100	0	27.542	0	1472.250	0	26.5	4	8.1	4	-1E+10	1	-1E+10	1	-1E+10	1	-1E+10	1	-1E+10	1	-1E+10	1
4901784	40	C	08/08/2016	10:50	-132.514	44.973	0	1494.80	0	2.5480	0	34.5130	0	27.545	0	1477.371	0	27.1	4	8.3	4	-1E+10	1	-1E+10	1	-1E+10	1	-1E+10	1	-1E+10	1	-1E+10	1
4901784	40	C	08/08/2016	10:50	-132.514	44.973	0	1500.00	0	2.5450	0	34.5140	0	27.546	0	1482.492	0	27.4	4	8.4	4	-1E+10	1	-1E+10	1	-1E+10	1	-1E+10	1	-1E+10	1	-1E+10	1
4901784	40	C	08/08/2016	10:50	-132.514	44.973	0	1505.20	0	2.5380	0	34.5150	0	27.548	0	1487.613	0	27.7	4	8.4	4	-1E+10	1	-1E+10	1	-1E+10	1	-1E+10	1	-1E+10	1	-1E+10	1
4901784	40	C	08/08/2016	10:50	-132.514	44.973	0	1510.30	0	2.5280	0	34.5160	0	27.549	0	1492.636	0	27.9	4	8.5	4	-1E+10	1	-1E+10	1	-1E+10	1	-1E+10	1	-1E+10	1	-1E+10	1
4901784	40	C	08/08/2016	10:50	-132.514	44.973	0	1515.50	0	2.5200	0	34.5170	0	27.551	0	1497.757	0	28.1	4	8.6	4	-1E+10	1	-1E+10	1	-1E+10	1	-1E+10	1	-1E+10	1	-1E+10	1
4901784	40	C	08/08/2016	10:50	-132.514	44.973	0	1520.40	0	2.5130	0	34.5170	0	27.551	0	1502.582	0	28.5	4	8.7	4	-1E+10	1	-1E+10	1	-1E+10	1	-1E+10	1	-1E+10	1	-1E+10	1
4901784	40	C	08/08/2016	10:50	-132.514	44.973	0	1525.40	0	2.5020	0	34.5190	0	27.554	0	1507.505	0	28.8	4	8.8	4	-1E+10	1	-1E+10	1	-1E+10	1	-1E+10	1	-1E+10	1	-1E+10	1
4901784	40	C	08/08/2016	10:50	-132.514	44.973	0	1530.50	0	2.4940	0	34.5190	0	27.555	0	1512.527	0	29.0	4	8.8	4	-1E+10	1	-1E+10	1	-1E+10	1	-1E+10	1	-1E+10	1	-1E+10	1
4901784	40	C	08/08/2016	10:50	-132.514	44.973	0	1535.60	0	2.4840	0	34.5200	0	27.556	0	1517.549	0	29.2	4	8.9	4	-1E+10	1	-1E+10	1	-1E+10	1	-1E+10	1	-1E+10	1	-1E+10	1
4901784	40	C	08/08/2016	10:50	-132.514	44.973	0	1539.90	0	2.4770	0	34.5210	0	27.558	0	1521.783	0	29.3	4	8.9	4	-1E+10	1	-1E+10	1	-1E+10	1	-1E+10	1	-1E+10	1	-1E+10	1
4901784	40	C	08/08/2016	10:50	-132.514	44.973	0	1544.30	0	2.4690	0	34.5210	0	27.558	0	1526.116	0	29.5	4	9.0	4	-1E+10	1	-1E+10	1	-1E+10	1	-1E+10	1	-1E+10	1	-1E+10	1
4901784	40	C	08/08/2016	10:50	-132.514	44.973	0	1549.50	0	2.4580	0	34.5220	0	27.560	0	1531.235	0	29.7	4	9.0	4	-1E+10	1	-1E+10	1	-1E+10	1	-1E+10	1	-1E+10	1	-1E+10	1
4901784	40	C	08/08/2016	10:50	-132.514	44.973	0	1554.90	0	2.4490	0	34.5230	0	27.562	0	1536.552	0	29.9	4	9.1	4	-1E+10	1	-1E+10	1	-1E+10	1	-1E+10	1	-1E+10	1	-1E+10	1
4901784	40	C	08/08/2016	10:50	-132.514	44.973	0	1560.30	0	2.4340	0	34.5240	0	27.564	0	1541.869	0	30.2	4	9.2	4	-1E+10	1	-1E+10	1	-1E+10	1	-1E+10	1	-1E+10	1	-1E+10	1
4901784	40	C	08/08/2016	10:50	-132.514	44.973	0	1564.80	0	2.4250	0	34.5250	0	27.565	0	1546.299	0	30.3	4	9.2	4	-1E+10	1	-1E+10	1	-1E+10	1	-1E+10	1	-1E+10	1	-1E+10	1
4901784	40	C	08/08/2016	10:50	-132.514	44.973	0	1569.30	0	2.4180	0	34.5250	0	27.566	0	1550.730	0	30.4	4	9.3	4	-1E+10	1	-1E+10	1	-1E+10	1	-1E+10	1	-1E+10	1	-1E+10	1
4901784	40	C	08/08/2016	10:50	-132.514	44.973	0	1574.70	0	2.4100	0	34.5260	0	27.567	0	1556.046	0	30.6	4	9.3	4	-1E+10	1	-1E+10	1	-1E+10	1	-1E+10	1	-1E+10	1	-1E+10	1
4901784	40	C	08/08/2016	10:50	-132.514	44.973	0	1580.20	0	2.4010	0	34.5270	0	27.569	0	1561.460	0	30.9	4	9.4	4	-1E+10	1	-1E+10	1	-1E+10	1	-1E+10	1	-1E+10	1	-1E+10	1
4901784	40	C	08/08/2016	10:50	-132.514	44.973	0	1585.60	0	2.3950	0	34.5280	0	27.570	0	1566.776	0	31.2	4	9.5	4	-1E+10	1	-1E+10	1	-1E+10	1	-1E+10	1	-1E+10	1	-1E+10	1
4901784	40	C	08/08/2016	10:50	-132.514	44.973	0	1590.20	0	2.3910	0	34.5280	0	27.571	0	1571.305	0	31.4	4	9.6	4	-1E+10	1	-1E+10	1	-1E+10	1	-1E+10	1	-1E+10	1	-1E+10	1
4901784	40	C	08/08/2016	10:50	-132.514	44.973	0	1594.60	0	2.3870	0	34.5290	0	27.572	0	1575.636	0	31.6	4	9.6	4	-1E+10	1	-1E+10	1	-1E+10	1	-1E+10	1	-1E+10	1	-1E+10	1
4901784	40	C	08/08/2016	10:50	-132.514	44.973	0	1599.80	0	2.3820	0	34.5300	0	27.573	0	1580.755	0	31.9	4	9.7	4	-1E+10	1	-1E+10	1	-1E+10	1	-1E+10	1	-1E+10	1	-1E+10	1
4901784	40	C	08/08/2016	10:50	-132.514	44.973	0	1604.50	0	2.3780	0	34.5300	0	27.573	0	1585.381	0	32.1	4	9.8	4	-1E+10	1	-1E+10	1	-1E+10	1	-1E+10	1	-1E+10	1	-1E+10	1
4901784	40	C	08/08/2016	10:50	-132.514	44.973	0	1609.30	0	2.3750	0	34.5310	0	27.575	0	1590.106	0	32.3	4	9.8	4	-1E+10	1	-1E+10	1	-1E+10	1	-1E+10	1	-1E+10	1	-1E+10	1
4901784	40	C	08/08/2016	10:50	-132.514	44.973	0	1615.00	0	2.3640	0	34.5320	0	27.576	0	1595.717	0	32.9	4	10.0	4	-1E+10	1	-1E+10	1	-1E+10	1	-1E+10	1	-1E+10	1	-1E+10	1
4901784	40	C	08/08/2016	10:50	-132.514	44.973	0	1620.70	0	2.3520	0	34.5330	0	27.578	0	1601.327	0	33.4	4	10.2	4	-1E+10	1	-1E+10	1	-1E+10	1	-1E+10	1	-1E+10	1	-1E+10	1
4901784	40	C	08/08/2016	10:50	-132.514	44.973	0	1625.60	0	2.3400	0	34.5350	0	27.581	0	1606.150	0	33.9	4	10.3	4	-1E+10	1	-1E+10	1	-1E+10	1	-1E+10	1	-1E+10	1	-1E+10	1
4901784	40	C	08/08/2016	10:50	-132.514	44.973	0	1630.40	0	2.3220	0	34.5370	0	27.584	0	1610.874	0	34.4	4	10.4	4	-1E+10	1	-1E+10	1	-1E+10	1	-1E+10	1	-1E+10	1	-1E+10	1
4901784	40	C	08/08/2016	10:50	-132.514	44.973	0	1635.40	0	2.3130	0	34.5380	0	27.585	0	1615.795	0	34.6	4	10.5	4	-1E+10	1	-1E+10	1	-1E+10	1	-1E+10	1	-1E+10	1	-1E+10	1
4901784	40	C	08/08/2016	10:50	-132.514	44.973	0	1640.30	0	2.3110	0	34.5390	0	27.586	0	1620.618	0	34.7	4	10.6	4	-1E+10	1	-1E+10	1	-1E+10	1	-1E+10	1	-1E+10	1	-1E+10	1
4901784	40	C	08/08/2016	10:50	-132.514	44.973	0	1645.30	0	2.3090	0	34.5390	0	27.587	0	1625.539	0	34.9	4	10.6	4	-1E+10	1	-1E+10	1	-1E+10	1	-1E+10	1	-1E+10	1	-1E+10	1
4901784	40	C	08/08/2016	10:50	-132.514	44.973	0	1650.40	0	2.3040	0	34.5390	0	27.587	0	1630.558	0	35.3	4	10.7	4	-1E+10	1	-1E+10	1	-1E+10	1	-1E+10	1	-1E+10	1	-1E+10	1
4901784	40	C	08/08/2016	10:50	-132.514	44.973	0	1655.50	0	2.2960	0	34.5410	0	27.589	0	1635.577	0	35.7	4	10.8	4	-1E+10	1	-1E+10	1	-1E+10	1	-1E+10	1	-1E+10	1	-1E+10	1
4901784	40	C	08/08/2016	10:50	-132.514	44.973	0	1660.60	0	2.2900	0	34.5420	0	27.591	0	1640.596	0	36.0	4	10.9	4	-1E+10	1	-1E+10	1	-1E+10	1	-1E+10	1	-1E+10	1	-1E+10	1
4901784	40	C	08/08/2016	10:50	-132.514	44.973	0	1664.90	0	2.2820	0	34.5430	0	27.592	0	1644.827	0	36.3	4	11.0	4	-1E+10	1	-1E+10	1	-1E+10	1	-1E+10	1	-1E+10	1	-1E+10	1
4901784	40	C	08/08/2016	10:50	-132.514	44.973	0	1669.20	0	2.2770	0	34.5430	0	27.592	0	1649.058	0	36.6	4	11.1	4	-1E+10	1	-1E+10	1	-1E+10	1	-1E+10	1	-1E+10	1	-1E+10	1
4901784	40	C	08/08/2016	10:50	-132.514	44.973	0	1674.30	0	2.2680	0	34.5450	0	27.595	0	1654.077	0	36.9	4	11.2	4	-1E+10	1	-1E+10	1	-1E+10	1	-1E+10	1	-1E+10	1	-1E+10	1
4901784	40	C	08/08/2016	10:50	-132.514	44.973	0	1679.60	0	2.2630	0	34.5450	0	27.595	0	1659.292	0	37.1	4	11.3	4	-1E+10	1	-1E+10	1	-1E+10	1	-1E+10	1	-1E+10	1	-1E+10	1
4901784	40	C	08/08/2016	10:50	-132.514	44.973	0	1684.80	0	2.2610	0	34.5460	0	27.596	0	1664.409	0	37.4	4	11.3	4	-1E+10	1	-1E+10	1	-1E+10	1	-1E+10	1	-1E+10	1	-1E+10	1
4901784	40	C	08/08/2016	10:50	-132.514	44.973	0	1690.10	0	2.2530	0	34.5470	0	27.598	0	1669.624	0	37.7	4	11.4	4	-1E+10	1	-1E+10	1	-1E+10	1	-1E+10	1	-1E+10	1	-1E+10	1
4901784	40	C	08/08/2016	10:50	-132.514	44.973	0	1695.30	0	2.2460	0	34.5470	0	27.598	0	1674.741	0	37.9	4	11.5	4	-1E+10	1	-1E+10	1	-1E+10	1	-1E+10	1	-1E+10	1	-1E+10	1
4901784	40	C	08/08/2016	10:50	-132.514	44.973	0	1700.40	0	2.2430	0	34.5480	0	27.599	0	1679.759	0	38.2	4	11.6	4	-1E+10	1	-1E+10	1	-1E+10	1	-1E+10	1	-1E+10	1	-1E+10	1
4901784	40	C	08/08/2016	10:50	-132.514	44.973	0	1705.70	0	2.2350	0	34.5490	0	27.601	0	1684.973	0	38.5	4	11.7	4	-1E+10	1	-1E+10	1	-1E+10	1	-1E+10	1	-1E+10	1	-1E+10	1
4901784	40	C	08/08/2016	10:50	-132.514	44.973	0	1710.10	0	2.2290	0	34.5500	0	27.602	0	1689.302	0	38.8	4	11.8	4	-1E+10	1	-1E+10	1	-1E+10	1	-1E+10	1	-1E+10	1	-1E+10	1
4901784	40	C	08/08/2016	10:50	-132.514	44.973	0	1714.40	0	2.2270	0	34.5500	0	27.602	0	1693.533	0	38.9	4	11.8	4	-1E+10	1	-1E+10	1	-1E+10	1	-1E+10	1	-1E+10	1	-1E+10	1
4901784	40	C	08/08/2016	10:50	-132.514	44.973	0	1719.70	0	2.2240	0	34.5510	0	27.603	0	1698.747	0	39.2	4	11.9	4	-1E+10	1	-1E+10	1	-1E+10	1	-1E+10	1	-1E+10	1	-1E+10	1
4901784	40	C	08/08/2016	10:50	-132.514	44.973	0	1724.90	0	2.2190	0	34.5510	0	27.604	0	1703.863	0	39.4	4	11.9	4	-1E+10	1	-1E+10	1	-1E+10	1	-1E+10	1	-1E+10	1	-1E+10	1
4901784	40	C	08/08/2016	10:50	-132.514	44.973	0	1730.00	0	2.2140	0	34.5520	0	27.605	0	1708.880	0	39.7	4	12.0	4	-1E+10	1	-1E+10	1	-1E+10	1	-1E+10	1	-1E+10	1	-1E+10	1
4901784	40	C	08/08/2016	10:50	-132.514	44.973	0	1735.20	0	2.2070	0	34.5530	0	27.606	0	1713.996	0	40.1	4	12.1	4	-1E+10	1	-1E+10	1	-1E+10	1	-1E+10	1	-1E+10	1	-1E+10	1
4901784	40	C	08/08/2016	10:50	-132.514	44.973	0	1740.30	0	2.2020	0	34.5540	0	27.608	0	1719.013	0	40.3	4	12.2	4	-1E+10	1	-1E+10	1	-1E+10	1	-1E+10	1	-1E+10	1	-1E+10	1
4901784	40	C	08/08/2016	10:50	-132.514	44.973	0	1745.40	0	2.2000	0	34.5540	0	27.608	0	1724.030	0	40.6	4	12.3	4	-1E+10	1	-1E+10	1	-1E+10	1	-1E+10	1	-1E+10	1	-1E+10	1
4901784	40	C	08/08/2016	10:50	-132.514	44.973	0	1750.60	0	2.1950	0	34.5550	0	27.609	0	1729.145	0	40.8	4	12.4	4	-1E+10	1	-1E+10	1	-1E+10	1	-1E+10	1	-1E+10	1	-1E+10	1
4901784	40	C	08/08/2016	10:50	-132.514	44.973	0	1755.70	0	2.1880	0	34.5560	0	27.610	0	1734.161	0	41.2	4	12.5	4	-1E+10	1	-1E+10	1	-1E+10	1	-1E+10	1	-1E+10	1	-1E+10	1
4901784	40	C	08/08/2016	10:50	-132.514	44.973	0	1759.90	0	2.1830	0	34.5570	0	27.612	0	1738.293	0	41.5	4	12.6	4	-1E+10	1	-1E+10	1	-1E+10	1	-1E+10	1	-1E+10	1	-1E+10	1
4901784	40	C	08/08/2016	10:50	-132.514	44.973	0	1764.30	0	2.1770	0	34.5570	0	27.612	0	1742.621	0	41.8	4	12.7	4	-1E+10	1	-1E+10	1	-1E+10	1	-1E+10	1	-1E+10	1	-1E+10	1
4901784	40	C	08/08/2016	10:50	-132.514	44.973	0	1769.40	0	2.1680	0	34.5580	0	27.614	0	1747.637	0	42.2	4	12.8	4	-1E+10	1	-1E+10	1	-1E+10	1	-1E+10	1	-1E+10	1	-1E+10	1
4901784	40	C	08/08/2016	10:50	-132.514	44.973	0	1774.60	0	2.1610	0	34.5590	0	27.615	0	1752.751	0	42.6	4	12.9	4	-1E+10	1	-1E+10	1	-1E+10	1	-1E+10	1	-1E+10	1	-1E+10	1
4901784	40	C	08/08/2016	10:50	-132.514	44.973	0	1779.70	0	2.1530	0	34.5610	0	27.617	0	1757.768	0	43.0	4	13.0	4	-1E+10	1	-1E+10	1	-1E+10	1	-1E+10	1	-1E+10	1	-1E+10	1
4901784	40	C	08/08/2016	10:50	-132.514	44.973	0	1784.80	0	2.1490	0	34.5620	0	27.619	0	1762.784	0	43.3	4	13.1	4	-1E+10	1	-1E+10	1	-1E+10	1	-1E+10	1	-1E+10	1	-1E+10	1
4901784	40	C	08/08/2016	10:50	-132.514	44.973	0	1790.00	0	2.1430	0	34.5620	0	27.619	0	1767.898	0	43.6	4	13.2	4	-1E+10	1	-1E+10	1	-1E+10	1	-1E+10	1	-1E+10	1	-1E+10	1
4901784	40	C	08/08/2016	10:50	-132.514	44.973	0	1795.00	0	2.1380	0	34.5630	0	27.620	0	1772.815	0	44.0	4	13.3	4	-1E+10	1	-1E+10	1	-1E+10	1	-1E+10	1	-1E+10	1	-1E+10	1
4901784	40	C	08/08/2016	10:50	-132.514	44.973	0	1800.10	0	2.1290	0	34.5650	0	27.623	0	1777.831	0	44.3	4	13.4	4	-1E+10	1	-1E+10	1	-1E+10	1	-1E+10	1	-1E+10	1	-1E+10	1
4901784	40	C	08/08/2016	10:50	-132.514	44.973	0	1805.30	0	2.1250	0	34.5650	0	27.623	0	1782.945	0	44.7	4	13.5	4	-1E+10	1	-1E+10	1	-1E+10	1	-1E+10	1	-1E+10	1	-1E+10	1
4901784	40	C	08/08/2016	10:50	-132.514	44.973	0	1810.40	0	2.1200	0	34.5660	0	27.624	0	1787.960	0	45.1	4	13.6	4	-1E+10	1	-1E+10	1	-1E+10	1	-1E+10	1	-1E+10	1	-1E+10	1
4901784	40	C	08/08/2016	10:50	-132.514	44.973	0	1815.50	0	2.1160	0	34.5670	0	27.625	0	1792.975	0	45.6	4	13.8	4	-1E+10	1	-1E+10	1	-1E+10	1	-1E+10	1	-1E+10	1	-1E+10	1
4901784	40	C	08/08/2016	10:50	-132.514	44.973	0	1820.60	0	2.1100	0	34.5670	0	27.626	0	1797.991	0	46.1	4	13.9	4	-1E+10	1	-1E+10	1	-1E+10	1	-1E+10	1	-1E+10	1	-1E+10	1
4901784	40	C	08/08/2016	10:50	-132.514	44.973	0	1825.70	0	2.0990	0	34.5690	0	27.628	0	1803.006	0	46.6	4	14.1	4	-1E+10	1	-1E+10	1	-1E+10	1	-1E+10	1	-1E+10	1	-1E+10	1
4901784	40	C	08/08/2016	10:50	-132.514	44.973	0	1830.00	0	2.0920	0	34.5700	0	27.630	0	1807.234	0	46.8	4	14.2	4	-1E+10	1	-1E+10	1	-1E+10	1	-1E+10	1	-1E+10	1	-1E+10	1
4901784	40	C	08/08/2016	10:50	-132.514	44.973	0	1834.30	0	2.0870	0	34.5710	0	27.631	0	1811.462	0	47.2	4	14.3	4	-1E+10	1	-1E+10	1	-1E+10	1	-1E+10	1	-1E+10	1	-1E+10	1
4901784	40	C	08/08/2016	10:50	-132.514	44.973	0	1839.50	0	2.0800	0	34.5720	0	27.632	0	1816.575	0	47.7	4	14.4	4	-1E+10	1	-1E+10	1	-1E+10	1	-1E+10	1	-1E+10	1	-1E+10	1
4901784	40	C	08/08/2016	10:50	-132.514	44.973	0	1844.60	0	2.0760	0	34.5730	0	27.633	0	1821.590	0	48.1	4	14.5	4	-1E+10	1	-1E+10	1	-1E+10	1	-1E+10	1	-1E+10	1	-1E+10	1
4901784	40	C	08/08/2016	10:50	-132.514	44.973	0	1849.80	0	2.0720	0	34.5740	0	27.635	0	1826.703	0	48.3	4	14.6	4	-1E+10	1	-1E+10	1	-1E+10	1	-1E+10	1	-1E+10	1	-1E+10	1
4901784	40	C	08/08/2016	10:50	-132.514	44.973	0	1854.90	0	2.0680	0	34.5740	0	27.635	0	1831.717	0	48.6	4	14.7	4	-1E+10	1	-1E+10	1	-1E+10	1	-1E+10	1	-1E+10	1	-1E+10	1
4901784	40	C	08/08/2016	10:50	-132.514	44.973	0	1860.00	0	2.0620	0	34.5750	0	27.636	0	1836.731	0	49.0	4	14.8	4	-1E+10	1	-1E+10	1	-1E+10	1	-1E+10	1	-1E+10	1	-1E+10	1
4901784	40	C	08/08/2016	10:50	-132.514	44.973	0	1865.10	0	2.0550	0	34.5760	0	27.638	0	1841.745	0	49.4	4	14.9	4	-1E+10	1	-1E+10	1	-1E+10	1	-1E+10	1	-1E+10	1	-1E+10	1
4901784	40	C	08/08/2016	10:50	-132.514	44.973	0	1870.20	0	2.0500	0	34.5760	0	27.638	0	1846.759	0	49.8	4	15.0	4	-1E+10	1	-1E+10	1	-1E+10	1	-1E+10	1	-1E+10	1	-1E+10	1
4901784	40	C	08/08/2016	10:50	-132.514	44.973	0	1875.20	0	2.0430	0	34.5780	0	27.640	0	1851.675	0	50.3	4	15.2	4	-1E+10	1	-1E+10	1	-1E+10	1	-1E+10	1	-1E+10	1	-1E+10	1
4901784	40	C	08/08/2016	10:50	-132.514	44.973	0	1880.30	0	2.0350	0	34.5790	0	27.642	0	1856.689	0	50.6	4	15.3	4	-1E+10	1	-1E+10	1	-1E+10	1	-1E+10	1	-1E+10	1	-1E+10	1
4901784	40	C	08/08/2016	10:50	-132.514	44.973	0	1885.50	0	2.0330	0	34.5800	0	27.643	0	1861.801	0	50.8	4	15.3	4	-1E+10	1	-1E+10	1	-1E+10	1	-1E+10	1	-1E+10	1	-1E+10	1
4901784	40	C	08/08/2016	10:50	-132.514	44.973	0	1890.60	0	2.0310	0	34.5800	0	27.643	0	1866.814	0	51.0	4	15.4	4	-1E+10	1	-1E+10	1	-1E+10	1	-1E+10	1	-1E+10	1	-1E+10	1
4901784	40	C	08/08/2016	10:50	-132.514	44.973	0	1894.90	0	2.0300	0	34.5800	0	27.643	0	1871.041	0	51.2	4	15.4	4	-1E+10	1	-1E+10	1	-1E+10	1	-1E+10	1	-1E+10	1	-1E+10	1
4901784	40	C	08/08/2016	10:50	-132.514	44.973	0	1899.20	0	2.0260	0	34.5810	0	27.644	0	1875.268	0	51.4	4	15.5	4	-1E+10	1	-1E+10	1	-1E+10	1	-1E+10	1	-1E+10	1	-1E+10	1
4901784	40	C	08/08/2016	10:50	-132.514	44.973	0	1904.40	0	2.0250	0	34.5810	0	27.644	0	1880.380	0	51.7	4	15.6	4	-1E+10	1	-1E+10	1	-1E+10	1	-1E+10	1	-1E+10	1	-1E+10	1
4901784	40	C	08/08/2016	10:50	-132.514	44.973	0	1909.40	0	2.0210	0	34.5820	0	27.645	0	1885.294	0	52.1	4	15.7	4	-1E+10	1	-1E+10	1	-1E+10	1	-1E+10	1	-1E+10	1	-1E+10	1
4901784	40	C	08/08/2016	10:50	-132.514	44.973	0	1914.60	0	2.0170	0	34.5830	0	27.646	0	1890.406	0	52.4	4	15.8	4	-1E+10	1	-1E+10	1	-1E+10	1	-1E+10	1	-1E+10	1	-1E+10	1
4901784	40	C	08/08/2016	10:50	-132.514	44.973	0	1919.80	0	2.0120	0	34.5830	0	27.647	0	1895.517	0	52.9	4	15.9	4	-1E+10	1	-1E+10	1	-1E+10	1	-1E+10	1	-1E+10	1	-1E+10	1
4901784	40	C	08/08/2016	10:50	-132.514	44.973	0	1924.90	0	2.0050	0	34.5850	0	27.649	0	1900.530	0	53.4	4	16.1	4	-1E+10	1	-1E+10	1	-1E+10	1	-1E+10	1	-1E+10	1	-1E+10	1
4901784	40	C	08/08/2016	10:50	-132.514	44.973	0	1930.10	0	1.9980	0	34.5860	0	27.650	0	1905.640	0	53.8	4	16.2	4	-1E+10	1	-1E+10	1	-1E+10	1	-1E+10	1	-1E+10	1	-1E+10	1
4901784	40	C	08/08/2016	10:50	-132.514	44.973	0	1935.20	0	1.9940	0	34.5860	0	27.651	0	1910.653	0	54.1	4	16.3	4	-1E+10	1	-1E+10	1	-1E+10	1	-1E+10	1	-1E+10	1	-1E+10	1
4901784	40	C	08/08/2016	10:50	-132.514	44.973	0	1940.30	0	1.9890	0	34.5870	0	27.652	0	1915.665	0	54.5	4	16.4	4	-1E+10	1	-1E+10	1	-1E+10	1	-1E+10	1	-1E+10	1	-1E+10	1
4901784	40	C	08/08/2016	10:50	-132.514	44.973	0	1945.50	0	1.9840	0	34.5880	0	27.653	0	1920.776	0	54.9	4	16.5	4	-1E+10	1	-1E+10	1	-1E+10	1	-1E+10	1	-1E+10	1	-1E+10	1
4901784	40	C	08/08/2016	10:50	-132.514	44.973	0	1950.60	0	1.9790	0	34.5890	0	27.654	0	1925.788	0	55.3	4	16.7	4	-1E+10	1	-1E+10	1	-1E+10	1	-1E+10	1	-1E+10	1	-1E+10	1
4901784	40	C	08/08/2016	10:50	-132.514	44.973	0	1955.80	0	1.9750	0	34.5900	0	27.656	0	1930.898	0	55.6	4	16.8	4	-1E+10	1	-1E+10	1	-1E+10	1	-1E+10	1	-1E+10	1	-1E+10	1
4901784	40	C	08/08/2016	10:50	-132.514	44.973	0	1960.00	0	1.9730	0	34.5900	0	27.656	0	1935.026	0	55.9	4	16.8	4	-1E+10	1	-1E+10	1	-1E+10	1	-1E+10	1	-1E+10	1	-1E+10	1
4901784	40	C	08/08/2016	10:50	-132.514	44.973	0	1964.30	0	1.9690	0	34.5910	0	27.657	0	1939.251	0	56.3	4	17.0	4	-1E+10	1	-1E+10	1	-1E+10	1	-1E+10	1	-1E+10	1	-1E+10	1
4901784	40	C	08/08/2016	10:50	-132.514	44.973	0	1969.50	0	1.9660	0	34.5920	0	27.658	0	1944.361	0	56.7	4	17.1	4	-1E+10	1	-1E+10	1	-1E+10	1	-1E+10	1	-1E+10	1	-1E+10	1
4901784	40	C	08/08/2016	10:50	-132.514	44.973	0	1974.70	0	1.9570	0	34.5940	0	27.660	0	1949.471	0	57.3	4	17.2	4	-1E+10	1	-1E+10	1	-1E+10	1	-1E+10	1	-1E+10	1	-1E+10	1
4901784	40	C	08/08/2016	10:50	-132.514	44.973	0	1980.10	0	1.9520	0	34.5940	0	27.661	0	1954.777	0	57.5	4	17.3	4	-1E+10	1	-1E+10	1	-1E+10	1	-1E+10	1	-1E+10	1	-1E+10	1
4901784	40	C	08/08/2016	10:50	-132.514	44.973	0	1985.40	0	1.9510	0	34.5950	0	27.662	0	1959.985	0	57.7	4	17.4	4	-1E+10	1	-1E+10	1	-1E+10	1	-1E+10	1	-1E+10	1	-1E+10	1
4901784	40	C	08/08/2016	10:50	-132.514	44.973	0	1990.70	0	1.9480	0	34.5950	0	27.662	0	1965.193	0	58.0	4	17.5	4	-1E+10	1	-1E+10	1	-1E+10	1	-1E+10	1	-1E+10	1	-1E+10	1
4901784	40	C	08/08/2016	10:50	-132.514	44.973	0	1995.00	0	1.9460	0	34.5950	0	27.662	0	1969.418	0	58.3	4	17.6	4	-1E+10	1	-1E+10	1	-1E+10	1	-1E+10	1	-1E+10	1	-1E+10	1
4901784	40	C	08/08/2016	10:50	-132.514	44.973	0	1999.30	0	1.9390	0	34.5960	0	27.663	0	1973.643	0	58.7	4	17.7	4	-1E+10	1	-1E+10	1	-1E+10	1	-1E+10	1	-1E+10	1	-1E+10	1
4901784	40	C	08/08/2016	10:50	-132.514	44.973	0	2004.40	0	1.9360	0	34.5970	0	27.664	0	1978.654	0	58.9	4	17.7	4	-1E+10	1	-1E+10	1	-1E+10	1	-1E+10	1	-1E+10	1	-1E+10	1
4901784	40	C	08/08/2016	10:50	-132.514	44.973	0	2009.60	0	1.9340	0	34.5970	0	27.665	0	1983.763	0	59.0	4	17.8	4	-1E+10	1	-1E+10	1	-1E+10	1	-1E+10	1	-1E+10	1	-1E+10	1
4901784	40	C	08/08/2016	10:50	-132.514	44.973	0	2015.00	0	1.9340	0	34.5980	0	27.665	0	1989.068	0	59.1	4	17.8	4	-1E+10	1	-1E+10	1	-1E+10	1	-1E+10	1	-1E+10	1	-1E+10	1
4901784	40	C	08/08/2016	10:50	-132.514	44.973	0	2020.50	0	1.9330	0	34.5980	0	27.666	0	1994.472	0	59.3	4	17.8	4	-1E+10	1	-1E+10	1	-1E+10	1	-1E+10	1	-1E+10	1	-1E+10	1
4901784	40	C	08/08/2016	10:50	-132.514	44.973	0																										
4901784	41	C	08/18/2016	10:43	-132.540	45.047	0	2.20	0	17.2000	0	32.7580	0	23.748	0	2.182	0	236.2	4	97.9	4	-1E+10	1	-1E+10	1	-1E+10	1	-1E+10	1	-1E+10	1	-1E+10	1
4901784	41	C	08/18/2016	10:43	-132.540	45.047	0	3.60	0	17.2000	0	32.7580	0	23.748	0	3.571	0	236.1	4	97.9	4	-1E+10	1	-1E+10	1	-1E+10	1	-1E+10	1	-1E+10	1	-1E+10	1
4901784	41	C	08/18/2016	10:43	-132.540	45.047	0	4.90	0	17.2020	0	32.7570	0	23.747	0	4.860	0	235.8	4	97.8	4	-1E+10	1	-1E+10	1	-1E+10	1	-1E+10	1	-1E+10	1	-1E+10	1
4901784	41	C	08/18/2016	10:43	-132.540	45.047	0	6.30	0	17.2020	0	32.7570	0	23.747	0	6.249	0	235.8	4	97.8	4	-1E+10	1	-1E+10	1	-1E+10	1	-1E+10	1	-1E+10	1	-1E+10	1
4901784	41	C	08/18/2016	10:43	-132.540	45.047	0	7.70	0	17.2040	0	32.7570	0	23.747	0	7.637	0	235.7	4	97.7	4	-1E+10	1	-1E+10	1	-1E+10	1	-1E+10	1	-1E+10	1	-1E+10	1
4901784	41	C	08/18/2016	10:43	-132.540	45.047	0	9.20	0	17.2040	0	32.7560	0	23.746	0	9.125	0	235.5	4	97.7	4	-1E+10	1	-1E+10	1	-1E+10	1	-1E+10	1	-1E+10	1	-1E+10	1
4901784	41	C	08/18/2016	10:43	-132.540	45.047	0	11.30	0	17.2010	0	32.7560	0	23.747	0	11.208	0	235.3	4	97.6	4	-1E+10	1	-1E+10	1	-1E+10	1	-1E+10	1	-1E+10	1	-1E+10	1
4901784	41	C	08/18/2016	10:43	-132.540	45.047	0	12.90	0	17.1960	0	32.7550	0	23.747	0	12.795	0	235.3	4	97.6	4	-1E+10	1	-1E+10	1	-1E+10	1	-1E+10	1	-1E+10	1	-1E+10	1
4901784	41	C	08/18/2016	10:43	-132.540	45.047	0	14.20	0	17.2010	0	32.7540	0	23.745	0	14.084	0	235.3	4	97.6	4	-1E+10	1	-1E+10	1	-1E+10	1	-1E+10	1	-1E+10	1	-1E+10	1
4901784	41	C	08/18/2016	10:43	-132.540	45.047	0	15.60	0	17.1820	0	32.7530	0	23.749	0	15.473	0	235.2	4	97.5	4	-1E+10	1	-1E+10	1	-1E+10	1	-1E+10	1	-1E+10	1	-1E+10	1
4901784	41	C	08/18/2016	10:43	-132.540	45.047	0	16.90	0	17.1400	0	32.7530	0	23.759	0	16.762	0	235.4	4	97.5	4	-1E+10	1	-1E+10	1	-1E+10	1	-1E+10	1	-1E+10	1	-1E+10	1
4901784	41	C	08/18/2016	10:43	-132.540	45.047	0	18.20	0	17.0020	0	32.7720	0	23.806	0	18.051	0	236.1	4	97.5	4	-1E+10	1	-1E+10	1	-1E+10	1	-1E+10	1	-1E+10	1	-1E+10	1
4901784	41	C	08/18/2016	10:43	-132.540	45.047	0	20.00	0	16.8780	0	32.7640	0	23.829	0	19.837	0	237.5	4	97.9	4	-1E+10	1	-1E+10	1	-1E+10	1	-1E+10	1	-1E+10	1	-1E+10	1
4901784	41	C	08/18/2016	10:43	-132.540	45.047	0	21.30	0	16.8310	0	32.7620	0	23.838	0	21.126	0	238.9	4	98.4	4	-1E+10	1	-1E+10	1	-1E+10	1	-1E+10	1	-1E+10	1	-1E+10	1
4901784	41	C	08/18/2016	10:43	-132.540	45.047	0	22.40	0	16.7820	0	32.7510	0	23.841	0	22.217	0	240.7	4	99.0	4	-1E+10	1	-1E+10	1	-1E+10	1	-1E+10	1	-1E+10	1	-1E+10	1
4901784	41	C	08/18/2016	10:43	-132.540	45.047	0	23.40	0	16.5760	0	32.7490	0	23.887	0	23.209	0	243.5	4	99.8	4	-1E+10	1	-1E+10	1	-1E+10	1	-1E+10	1	-1E+10	1	-1E+10	1
4901784	41	C	08/18/2016	10:43	-132.540	45.047	0	24.60	0	16.2800	0	32.7530	0	23.958	0	24.399	0	247.2	4	100.7	4	-1E+10	1	-1E+10	1	-1E+10	1	-1E+10	1	-1E+10	1	-1E+10	1
4901784	41	C	08/18/2016	10:43	-132.540	45.047	0	26.00	0	15.4850	0	32.8020	0	24.174	0	25.787	0	252.1	4	101.1	4	-1E+10	1	-1E+10	1	-1E+10	1	-1E+10	1	-1E+10	1	-1E+10	1
4901784	41	C	08/18/2016	10:43	-132.540	45.047	0	27.30	0	14.7370	0	32.8080	0	24.341	0	27.076	0	259.0	4	102.4	4	-1E+10	1	-1E+10	1	-1E+10	1	-1E+10	1	-1E+10	1	-1E+10	1
4901784	41	C	08/18/2016	10:43	-132.540	45.047	0	28.60	0	14.5370	0	32.7960	0	24.374	0	28.366	0	261.3	4	102.9	4	-1E+10	1	-1E+10	1	-1E+10	1	-1E+10	1	-1E+10	1	-1E+10	1
4901784	41	C	08/18/2016	10:43	-132.540	45.047	0	30.00	0	14.1760	0	32.7950	0	24.449	0	29.754	0	263.8	4	103.1	4	-1E+10	1	-1E+10	1	-1E+10	1	-1E+10	1	-1E+10	1	-1E+10	1
4901784	41	C	08/18/2016	10:43	-132.540	45.047	0	31.50	0	13.5890	0	32.8100	0	24.581	0	31.242	0	267.9	4	103.5	4	-1E+10	1	-1E+10	1	-1E+10	1	-1E+10	1	-1E+10	1	-1E+10	1
4901784	41	C	08/18/2016	10:43	-132.540	45.047	0	33.10	0	13.1340	0	32.7420	0	24.619	0	32.829	0	271.3	4	103.8	4	-1E+10	1	-1E+10	1	-1E+10	1	-1E+10	1	-1E+10	1	-1E+10	1
4901784	41	C	08/18/2016	10:43	-132.540	45.047	0	34.60	0	12.9200	0	32.7390	0	24.659	0	34.316	0	272.7	4	103.9	4	-1E+10	1	-1E+10	1	-1E+10	1	-1E+10	1	-1E+10	1	-1E+10	1
4901784	41	C	08/18/2016	10:43	-132.540	45.047	0	36.10	0	12.6530	0	32.7360	0	24.709	0	35.804	0	273.7	4	103.7	4	-1E+10	1	-1E+10	1	-1E+10	1	-1E+10	1	-1E+10	1	-1E+10	1
4901784	41	C	08/18/2016	10:43	-132.540	45.047	0	37.60	0	12.2900	0	32.7390	0	24.780	0	37.291	0	275.0	4	103.4	4	-1E+10	1	-1E+10	1	-1E+10	1	-1E+10	1	-1E+10	1	-1E+10	1
4901784	41	C	08/18/2016	10:43	-132.540	45.047	0	39.20	0	12.0220	0	32.7560	0	24.844	0	38.878	0	275.1	4	102.9	4	-1E+10	1	-1E+10	1	-1E+10	1	-1E+10	1	-1E+10	1	-1E+10	1
4901784	41	C	08/18/2016	10:43	-132.540	45.047	0	40.90	0	11.7840	0	32.7820	0	24.908	0	40.564	0	275.0	4	102.4	4	-1E+10	1	-1E+10	1	-1E+10	1	-1E+10	1	-1E+10	1	-1E+10	1
4901784	41	C	08/18/2016	10:43	-132.540	45.047	0	42.50	0	11.6380	0	32.7930	0	24.944	0	42.150	0	274.1	4	101.7	4	-1E+10	1	-1E+10	1	-1E+10	1	-1E+10	1	-1E+10	1	-1E+10	1
4901784	41	C	08/18/2016	10:43	-132.540	45.047	0	44.20	0	11.6510	0	32.8130	0	24.957	0	43.836	0	272.0	4	101.0	4	-1E+10	1	-1E+10	1	-1E+10	1	-1E+10	1	-1E+10	1	-1E+10	1
4901784	41	C	08/18/2016	10:43	-132.540	45.047	0	45.90	0	11.5060	0	32.8010	0	24.974	0	45.522	0	270.2	4	100.0	4	-1E+10	1	-1E+10	1	-1E+10	1	-1E+10	1	-1E+10	1	-1E+10	1
4901784	41	C	08/18/2016	10:43	-132.540	45.047	0	47.60	0	11.3900	0	32.8000	0	24.995	0	47.208	0	267.7	4	98.8	4	-1E+10	1	-1E+10	1	-1E+10	1	-1E+10	1	-1E+10	1	-1E+10	1
4901784	41	C	08/18/2016	10:43	-132.540	45.047	0	49.30	0	11.1220	0	32.7930	0	25.037	0	48.894	0	265.1	4	97.3	4	-1E+10	1	-1E+10	1	-1E+10	1	-1E+10	1	-1E+10	1	-1E+10	1
4901784	41	C	08/18/2016	10:43	-132.540	45.047	0	51.00	0	10.7430	0	32.8150	0	25.121	0	50.580	0	263.7	4	96.1	4	-1E+10	1	-1E+10	1	-1E+10	1	-1E+10	1	-1E+10	1	-1E+10	1
4901784	41	C	08/18/2016	10:43	-132.540	45.047	0	52.80	0	10.5280	0	32.8170	0	25.160	0	52.364	0	264.0	4	95.7	4	-1E+10	1	-1E+10	1	-1E+10	1	-1E+10	1	-1E+10	1	-1E+10	1
4901784	41	C	08/18/2016	10:43	-132.540	45.047	0	54.60	0	10.4020	0	32.8190	0	25.183	0	54.149	0	262.9	4	95.1	4	-1E+10	1	-1E+10	1	-1E+10	1	-1E+10	1	-1E+10	1	-1E+10	1
4901784	41	C	08/18/2016	10:43	-132.540	45.047	0	56.90	0	10.2990	0	32.8160	0	25.198	0	56.430	0	262.5	4	94.7	4	-1E+10	1	-1E+10	1	-1E+10	1	-1E+10	1	-1E+10	1	-1E+10	1
4901784	41	C	08/18/2016	10:43	-132.540	45.047	0	58.60	0	10.2550	0	32.8250	0	25.213	0	58.116	0	260.6	4	93.9	4	-1E+10	1	-1E+10	1	-1E+10	1	-1E+10	1	-1E+10	1	-1E+10	1
4901784	41	C	08/18/2016	10:43	-132.540	45.047	0	60.10	0	10.1770	0	32.8250	0	25.226	0	59.603	0	260.0	4	93.6	4	-1E+10	1	-1E+10	1	-1E+10	1	-1E+10	1	-1E+10	1	-1E+10	1
4901784	41	C	08/18/2016	10:43	-132.540	45.047	0	61.50	0	10.0190	0	32.8250	0	25.252	0	60.991	0	259.4	4	93.0	4	-1E+10	1	-1E+10	1	-1E+10	1	-1E+10	1	-1E+10	1	-1E+10	1
4901784	41	C	08/18/2016	10:43	-132.540	45.047	0	63.00	0	9.9900	0	32.8420	0	25.270	0	62.479	0	258.8	4	92.8	4	-1E+10	1	-1E+10	1	-1E+10	1	-1E+10	1	-1E+10	1	-1E+10	1
4901784	41	C	08/18/2016	10:43	-132.540	45.047	0	64.40	0	9.9770	0	32.8400	0	25.271	0	63.867	0	258.6	4	92.7	4	-1E+10	1	-1E+10	1	-1E+10	1	-1E+10	1	-1E+10	1	-1E+10	1
4901784	41	C	08/18/2016	10:43	-132.540	45.047	0	65.90	0	9.9370	0	32.8390	0	25.277	0	65.354	0	258.1	4	92.4	4	-1E+10	1	-1E+10	1	-1E+10	1	-1E+10	1	-1E+10	1	-1E+10	1
4901784	41	C	08/18/2016	10:43	-132.540	45.047	0	67.60	0	9.8780	0	32.8390	0	25.287	0	67.040	0	258.0	4	92.2	4	-1E+10	1	-1E+10	1	-1E+10	1	-1E+10	1	-1E+10	1	-1E+10	1
4901784	41	C	08/18/2016	10:43	-132.540	45.047	0	69.10	0	9.7870	0	32.8280	0	25.293	0	68.527	0	257.6	4	91.9	4	-1E+10	1	-1E+10	1	-1E+10	1	-1E+10	1	-1E+10	1	-1E+10	1
4901784	41	C	08/18/2016	10:43	-132.540	45.047	0	70.70	0	9.7360	0	32.8340	0	25.306	0	70.114	0	257.4	4	91.8	4	-1E+10	1	-1E+10	1	-1E+10	1	-1E+10	1	-1E+10	1	-1E+10	1
4901784	41	C	08/18/2016	10:43	-132.540	45.047	0	72.30	0	9.7000	0	32.8460	0	25.322	0	71.700	0	256.3	4	91.3	4	-1E+10	1	-1E+10	1	-1E+10	1	-1E+10	1	-1E+10	1	-1E+10	1
4901784	41	C	08/18/2016	10:43	-132.540	45.047	0	73.90	0	9.7090	0	32.8680	0	25.337	0	73.287	0	256.0	4	91.2	4	-1E+10	1	-1E+10	1	-1E+10	1	-1E+10	1	-1E+10	1	-1E+10	1
4901784	41	C	08/18/2016	10:43	-132.540	45.047	0	75.50	0	9.6560	0	32.8620	0	25.341	0	74.873	0	255.5	4	90.9	4	-1E+10	1	-1E+10	1	-1E+10	1	-1E+10	1	-1E+10	1	-1E+10	1
4901784	41	C	08/18/2016	10:43	-132.540	45.047	0	77.20	0	9.6590	0	32.8660	0	25.344	0	76.559	0	255.2	4	90.9	4	-1E+10	1	-1E+10	1	-1E+10	1	-1E+10	1	-1E+10	1	-1E+10	1
4901784	41	C	08/18/2016	10:43	-132.540	45.047	0	78.90	0	9.7240	0	32.8880	0	25.351	0	78.244	0	254.2	4	90.6	4	-1E+10	1	-1E+10	1	-1E+10	1	-1E+10	1	-1E+10	1	-1E+10	1
4901784	41	C	08/18/2016	10:43	-132.540	45.047	0	80.60	0	9.7350	0	32.8910	0	25.351	0	79.930	0	253.1	4	90.3	4	-1E+10	1	-1E+10	1	-1E+10	1	-1E+10	1	-1E+10	1	-1E+10	1
4901784	41	C	08/18/2016	10:43	-132.540	45.047	0	82.30	0	9.7010	0	32.8970	0	25.361	0	81.615	0	252.3	4	89.9	4	-1E+10	1	-1E+10	1	-1E+10	1	-1E+10	1	-1E+10	1	-1E+10	1
4901784	41	C	08/18/2016	10:43	-132.540	45.047	0	84.00	0	9.6750	0	32.8950	0	25.364	0	83.301	0	251.6	4	89.6	4	-1E+10	1	-1E+10	1	-1E+10	1	-1E+10	1	-1E+10	1	-1E+10	1
4901784	41	C	08/18/2016	10:43	-132.540	45.047	0	85.60	0	9.6170	0	32.9090	0	25.385	0	84.887	0	250.7	4	89.2	4	-1E+10	1	-1E+10	1	-1E+10	1	-1E+10	1	-1E+10	1	-1E+10	1
4901784	41	C	08/18/2016	10:43	-132.540	45.047	0	87.30	0	9.5430	0	32.9050	0	25.393	0	86.573	0	250.0	4	88.8	4	-1E+10	1	-1E+10	1	-1E+10	1	-1E+10	1	-1E+10	1	-1E+10	1
4901784	41	C	08/18/2016	10:43	-132.540	45.047	0	88.90	0	9.4900	0	32.9090	0	25.405	0	88.159	0	248.9	4	88.3	4	-1E+10	1	-1E+10	1	-1E+10	1	-1E+10	1	-1E+10	1	-1E+10	1
4901784	41	C	08/18/2016	10:43	-132.540	45.047	0	90.50	0	9.4830	0	32.9300	0	25.423	0	89.745	0	247.7	4	87.9	4	-1E+10	1	-1E+10	1	-1E+10	1	-1E+10	1	-1E+10	1	-1E+10	1
4901784	41	C	08/18/2016	10:43	-132.540	45.047	0	92.20	0	9.4360	0	32.9270	0	25.428	0	91.431	0	246.4	4	87.3	4	-1E+10	1	-1E+10	1	-1E+10	1	-1E+10	1	-1E+10	1	-1E+10	1
4901784	41	C	08/18/2016	10:43	-132.540	45.047	0	93.80	0	9.4100	0	32.9310	0	25.435	0	93.017	0	244.9	4	86.7	4	-1E+10	1	-1E+10	1	-1E+10	1	-1E+10	1	-1E+10	1	-1E+10	1
4901784	41	C	08/18/2016	10:43	-132.540	45.047	0	95.40	0	9.3970	0	32.9590	0	25.459	0	94.603	0	243.0	4	86.1	4	-1E+10	1	-1E+10	1	-1E+10	1	-1E+10	1	-1E+10	1	-1E+10	1
4901784	41	C	08/18/2016	10:43	-132.540	45.047	0	97.10	0	9.3610	0	32.9780	0	25.480	0	96.289	0	241.3	4	85.4	4	-1E+10	1	-1E+10	1	-1E+10	1	-1E+10	1	-1E+10	1	-1E+10	1
4901784	41	C	08/18/2016	10:43	-132.540	45.047	0	98.70	0	9.4110	0	33.0120	0	25.499	0	97.875	0	239.0	4	84.7	4	-1E+10	1	-1E+10	1	-1E+10	1	-1E+10	1	-1E+10	1	-1E+10	1
4901784	41	C	08/18/2016	10:43	-132.540	45.047	0	100.40	0	9.4180	0	33.0440	0	25.522	0	99.560	0	236.3	4	83.8	4	-1E+10	1	-1E+10	1	-1E+10	1	-1E+10	1	-1E+10	1	-1E+10	1
4901784	41	C	08/18/2016	10:43	-132.540	45.047	0	102.20	0	9.4510	0	33.0790	0	25.545	0	101.345	0	233.0	4	82.7	4	-1E+10	1	-1E+10	1	-1E+10	1	-1E+10	1	-1E+10	1	-1E+10	1
4901784	41	C	08/18/2016	10:43	-132.540	45.047	0	104.70	0	9.4020	0	33.1190	0	25.584	0	103.823	0	228.7	4	81.1	4	-1E+10	1	-1E+10	1	-1E+10	1	-1E+10	1	-1E+10	1	-1E+10	1
4901784	41	C	08/18/2016	10:43	-132.540	45.047	0	107.20	0	9.3490	0	33.1460	0	25.613	0	106.302	0	224.4	4	79.5	4	-1E+10	1	-1E+10	1	-1E+10	1	-1E+10	1	-1E+10	1	-1E+10	1
4901784	41	C	08/18/2016	10:43	-132.540	45.047	0	109.80	0	9.3010	0	33.1860	0	25.652	0	108.879	0	219.6	4	77.7	4	-1E+10	1	-1E+10	1	-1E+10	1	-1E+10	1	-1E+10	1	-1E+10	1
4901784	41	C	08/18/2016	10:43	-132.540	45.047	0	112.40	0	9.1880	0	33.2270	0	25.702	0	111.457	0	215.7	4	76.2	4	-1E+10	1	-1E+10	1	-1E+10	1	-1E+10	1	-1E+10	1	-1E+10	1
4901784	41	C	08/18/2016	10:43	-132.540	45.047	0	115.00	0	9.1680	0	33.2670	0	25.737	0	114.034	0	211.5	4	74.7	4	-1E+10	1	-1E+10	1	-1E+10	1	-1E+10	1	-1E+10	1	-1E+10	1
4901784	41	C	08/18/2016	10:43	-132.540	45.047	0	117.10	0	9.2110	0	33.3290	0	25.779	0	116.116	0	206.9	4	73.2	4	-1E+10	1	-1E+10	1	-1E+10	1	-1E+10	1	-1E+10	1	-1E+10	1
4901784	41	C	08/18/2016	10:43	-132.540	45.047	0	120.00	0	9.2440	0	33.4370	0	25.858	0	118.991	0	201.6	4	71.4	4	-1E+10	1	-1E+10	1	-1E+10	1	-1E+10	1	-1E+10	1	-1E+10	1
4901784	41	C	08/18/2016	10:43	-132.540	45.047	0	122.30	0	9.2110	0	33.4670	0	25.887	0	121.271	0	199.1	4	70.5	4	-1E+10	1	-1E+10	1	-1E+10	1	-1E+10	1	-1E+10	1	-1E+10	1
4901784	41	C	08/18/2016	10:43	-132.540	45.047	0	124.60	0	9.1890	0	33.4860	0	25.905	0	123.551	0	196.3	4	69.5	4	-1E+10	1	-1E+10	1	-1E+10	1	-1E+10	1	-1E+10	1	-1E+10	1
4901784	41	C	08/18/2016	10:43	-132.540	45.047	0	127.70	0	9.0710	0	33.5340	0	25.962	0	126.624	0	192.3	4	67.9	4	-1E+10	1	-1E+10	1	-1E+10	1	-1E+10	1	-1E+10	1	-1E+10	1
4901784	41	C	08/18/2016	10:43	-132.540	45.047	0	130.20	0	8.9170	0	33.6020	0	26.039	0	129.102	0	189.6	4	66.8	4	-1E+10	1	-1E+10	1	-1E+10	1	-1E+10	1	-1E+10	1	-1E+10	1
4901784	41	C	08/18/2016	10:43	-132.540	45.047	0	132.80	0	8.9110	0	33.6640	0	26.089	0	131.679	0	187.2	4	65.9	4	-1E+10	1	-1E+10	1	-1E+10	1	-1E+10	1	-1E+10	1	-1E+10	1
4901784	41	C	08/18/2016	10:43	-132.540	45.047	0	135.50	0	8.8600	0	33.6870	0	26.115	0	134.355	0	186.6	4	65.7	4	-1E+10	1	-1E+10	1	-1E+10	1	-1E+10	1	-1E+10	1	-1E+10	1
4901784	41	C	08/18/2016	10:43	-132.540	45.047	0	137.40	0	8.7780	0	33.7180	0	26.152	0	136.239	0	187.1	4	65.7	4	-1E+10	1	-1E+10	1	-1E+10	1	-1E+10	1	-1E+10	1	-1E+10	1
4901784	41	C	08/18/2016	10:43	-132.540	45.047	0	139.30	0	8.7070	0	33.7530	0	26.190	0	138.122	0	188.7	4	66.2	4	-1E+10	1	-1E+10	1	-1E+10	1	-1E+10	1	-1E+10	1	-1E+10	1
4901784	41	C	08/18/2016	10:43	-132.540	45.047	0	142.20	0	8.7420	0	33.7850	0	26.210	0	140.997	0	189.3	4	66.5	4	-1E+10	1	-1E+10	1	-1E+10	1	-1E+10	1	-1E+10	1	-1E+10	1
4901784	41	C	08/18/2016	10:43	-132.540	45.047	0	145.10	0	8.7520	0	33.7940	0	26.215	0	143.871	0	188.6	4	66.3	4	-1E+10	1	-1E+10	1	-1E+10	1	-1E+10	1	-1E+10	1	-1E+10	1
4901784	41	C	08/18/2016	10:43	-132.540	45.047	0	147.10	0	8.7520	0	33.7940	0	26.215	0	145.853	0	187.8	4	66.0	4	-1E+10	1	-1E+10	1	-1E+10	1	-1E+10	1	-1E+10	1	-1E+10	1
4901784	41	C	08/18/2016	10:43	-132.540	45.047	0	150.00	0	8.7200	0	33.8050	0	26.229	0	148.728	0	186.2	4	65.4	4	-1E+10	1	-1E+10	1	-1E+10	1	-1E+10	1	-1E+10	1	-1E+10	1
4901784	41	C	08/18/2016	10:43	-132.540	45.047	0	153.00	0	8.6240	0	33.8080	0	26.246	0	151.701	0	185.4	4	65.0	4	-1E+10	1	-1E+10	1	-1E+10	1	-1E+10	1	-1E+10	1	-1E+10	1
4901784	41	C	08/18/2016	10:43	-132.540	45.047	0	155.10	0	8.6150	0	33.8090	0	26.248	0	153.783	0	185.0	4	64.8	4	-1E+10	1	-1E+10	1	-1E+10	1	-1E+10	1	-1E+10	1	-1E+10	1
4901784	41	C	08/18/2016	10:43	-132.540	45.047	0	157.10	0	8.6070	0	33.8160	0	26.255	0	155.765	0	184.6	4	64.7	4	-1E+10	1	-1E+10	1	-1E+10	1	-1E+10	1	-1E+10	1	-1E+10	1
4901784	41	C	08/18/2016	10:43	-132.540	45.047	0	159.20	0	8.6060	0	33.8190	0	26.258	0	157.846	0	184.4	4	64.6	4	-1E+10	1	-1E+10	1	-1E+10	1	-1E+10	1	-1E+10	1	-1E+10	1
4901784	41	C	08/18/2016	10:43	-132.540	45.047	0	162.30	0	8.5540	0	33.8410	0	26.283	0	160.919	0	184.3	4	64.5	4	-1E+10	1	-1E+10	1	-1E+10	1	-1E+10	1	-1E+10	1	-1E+10	1
4901784	41	C	08/18/2016	10:43	-132.540	45.047	0	165.40	0	8.5860	0	33.8610	0	26.294	0	163.991	0	184.4	4	64.6	4	-1E+10	1	-1E+10	1	-1E+10	1	-1E+10	1	-1E+10	1	-1E+10	1
4901784	41	C	08/18/2016	10:43	-132.540	45.047	0	167.50	0	8.5730	0	33.8660	0	26.300	0	166.072	0	184.1	4	64.4	4	-1E+10	1	-1E+10	1	-1E+10	1	-1E+10	1	-1E+10	1	-1E+10	1
4901784	41	C	08/18/2016	10:43	-132.540	45.047	0	169.50	0	8.5340	0	33.8730	0	26.311	0	168.054	0	184.0	4	64.4	4	-1E+10	1	-1E+10	1	-1E+10	1	-1E+10	1	-1E+10	1	-1E+10	1
4901784	41	C	08/18/2016	10:43	-132.540	45.047	0	172.60	0	8.5430	0	33.8800	0	26.315	0	171.127	0	183.5	4	64.2	4	-1E+10	1	-1E+10	1	-1E+10	1	-1E+10	1	-1E+10	1	-1E+10	1
4901784	41	C	08/18/2016	10:43	-132.540	45.047	0	175.70	0	8.5330	0	33.8830	0	26.319	0	174.199	0	182.6	4	63.9	4	-1E+10	1	-1E+10	1	-1E+10	1	-1E+10	1	-1E+10	1	-1E+10	1
4901784	41	C	08/18/2016	10:43	-132.540	45.047	0	177.80	0	8.5260	0	33.8860	0	26.323	0	176.280	0	181.8	4	63.6	4	-1E+10	1	-1E+10	1	-1E+10	1	-1E+10	1	-1E+10	1	-1E+10	1
4901784	41	C	08/18/2016	10:43	-132.540	45.047	0	179.80	0	8.4840	0	33.8910	0	26.333	0	178.262	0	180.9	4	63.2	4	-1E+10	1	-1E+10	1	-1E+10	1	-1E+10	1	-1E+10	1	-1E+10	1
4901784	41	C	08/18/2016	10:43	-132.540	45.047	0	181.80	0	8.4620	0	33.8910	0	26.337	0	180.244	0	179.9	4	62.8	4	-1E+10	1	-1E+10	1	-1E+10	1	-1E+10	1	-1E+10	1	-1E+10	1
4901784	41	C	08/18/2016	10:43	-132.540	45.047	0	184.90	0	8.3850	0	33.8910	0	26.348	0	183.316	0	178.6	4	62.3	4	-1E+10	1	-1E+10	1	-1E+10	1	-1E+10	1	-1E+10	1	-1E+10	1
4901784	41	C	08/18/2016	10:43	-132.540	45.047	0	187.90	0	8.3490	0	33.8880	0	26.351	0	186.289	0	177.4	4	61.8	4	-1E+10	1	-1E+10	1	-1E+10	1	-1E+10	1	-1E+10	1	-1E+10	1
4901784	41	C	08/18/2016	10:43	-132.540	45.047	0	189.90	0	8.3350	0	33.8850	0	26.351	0	188.271	0	176.4	4	61.5	4	-1E+10	1	-1E+10	1	-1E+10	1	-1E+10	1	-1E+10	1	-1E+10	1
4901784	41	C	08/18/2016	10:43	-132.540	45.047	0	191.80	0	8.2590	0	33.8850	0	26.363	0	190.154	0	175.6	4	61.1	4	-1E+10	1	-1E+10	1	-1E+10	1	-1E+10	1	-1E+10	1	-1E+10	1
4901784	41	C	08/18/2016	10:43	-132.540	45.047	0	194.70	0	8.1720	0	33.8860	0	26.377	0	193.028	0	174.4	4	60.5	4	-1E+10	1	-1E+10	1	-1E+10	1	-1E+10	1	-1E+10	1	-1E+10	1
4901784	41	C	08/18/2016	10:43	-132.540	45.047	0	197.60	0	8.0610	0	33.8910	0	26.397	0	195.901	0	173.6	4	60.1	4	-1E+10	1	-1E+10	1	-1E+10	1	-1E+10	1	-1E+10	1	-1E+10	1
4901784	41	C	08/18/2016	10:43	-132.540	45.047	0	199.50	0	8.0310	0	33.8920	0	26.402	0	197.784	0	173.0	4	59.9	4	-1E+10	1	-1E+10	1	-1E+10	1	-1E+10	1	-1E+10	1	-1E+10	1
4901784	41	C	08/18/2016	10:43	-132.540	45.047	0	202.50	0	7.9860	0	33.8960	0	26.412	0	200.757	0	171.8	4	59.4	4	-1E+10	1	-1E+10	1	-1E+10	1	-1E+10	1	-1E+10	1	-1E+10	1
4901784	41	C	08/18/2016	10:43	-132.540	45.047	0	205.40	0	7.9510	0	33.8990	0	26.420	0	203.631	0	170.7	4	59.0	4	-1E+10	1	-1E+10	1	-1E+10	1	-1E+10	1	-1E+10	1	-1E+10	1
4901784	41	C	08/18/2016	10:43	-132.540	45.047	0	207.30	0	7.9390	0	33.8990	0	26.421	0	205.513	0	169.6	4	58.5	4	-1E+10	1	-1E+10	1	-1E+10	1	-1E+10	1	-1E+10	1	-1E+10	1
4901784	41	C	08/18/2016	10:43	-132.540	45.047	0	210.20	0	7.8520	0	33.8990	0	26.434	0	208.387	0	168.1	4	57.9	4	-1E+10	1	-1E+10	1	-1E+10	1	-1E+10	1	-1E+10	1	-1E+10	1
4901784	41	C	08/18/2016	10:43	-132.540	45.047	0	213.10	0	7.7820	0	33.8990	0	26.444	0	211.260	0	166.8	4	57.4	4	-1E+10	1	-1E+10	1	-1E+10	1	-1E+10	1	-1E+10	1	-1E+10	1
4901784	41	C	08/18/2016	10:43	-132.540	45.047	0	215.10	0	7.7410	0	33.9000	0	26.451	0	213.242	0	165.9	4	57.0	4	-1E+10	1	-1E+10	1	-1E+10	1	-1E+10	1	-1E+10	1	-1E+10	1
4901784	41	C	08/18/2016	10:43	-132.540	45.047	0	217.00	0	7.6830	0	33.9020	0	26.461	0	215.125	0	164.6	4	56.5	4	-1E+10	1	-1E+10	1	-1E+10	1	-1E+10	1	-1E+10	1	-1E+10	1
4901784	41	C	08/18/2016	10:43	-132.540	45.047	0	219.80	0	7.5900	0	33.9030	0	26.475	0	217.899	0	163.2	4	55.9	4	-1E+10	1	-1E+10	1	-1E+10	1	-1E+10	1	-1E+10	1	-1E+10	1
4901784	41	C	08/18/2016	10:43	-132.540	45.047	0	222.70	0	7.5350	0	33.9040	0	26.484	0	220.772	0	161.8	4	55.4	4	-1E+10	1	-1E+10	1	-1E+10	1	-1E+10	1	-1E+10	1	-1E+10	1
4901784	41	C	08/18/2016	10:43	-132.540	45.047	0	224.60	0	7.4820	0	33.9050	0	26.492	0	222.655	0	161.0	4	55.0	4	-1E+10	1	-1E+10	1	-1E+10	1	-1E+10	1	-1E+10	1	-1E+10	1
4901784	41	C	08/18/2016	10:43	-132.540	45.047	0	227.40	0	7.4200	0	33.9070	0	26.503	0	225.429	0	160.0	4	54.6	4	-1E+10	1	-1E+10	1	-1E+10	1	-1E+10	1	-1E+10	1	-1E+10	1
4901784	41	C	08/18/2016	10:43	-132.540	45.047	0	230.80	0	7.3710	0	33.9070	0	26.510	0	228.798	0	159.3	4	54.3	4	-1E+10	1	-1E+10	1	-1E+10	1	-1E+10	1	-1E+10	1	-1E+10	1
4901784	41	C	08/18/2016	10:43	-132.540	45.047	0	232.70	0	7.3520	0	33.9080	0	26.513	0	230.680	0	158.7	4	54.1	4	-1E+10	1	-1E+10	1	-1E+10	1	-1E+10	1	-1E+10	1	-1E+10	1
4901784	41	C	08/18/2016	10:43	-132.540	45.047	0	235.10	0	7.3400	0	33.9080	0	26.515	0	233.058	0	158.0	4	53.8	4	-1E+10	1	-1E+10	1	-1E+10	1	-1E+10	1	-1E+10	1	-1E+10	1
4901784	41	C	08/18/2016	10:43	-132.540	45.047	0	237.50	0	7.3260	0	33.9070	0	26.516	0	235.436	0	157.0	4	53.5	4	-1E+10	1	-1E+10	1	-1E+10	1	-1E+10	1	-1E+10	1	-1E+10	1
4901784	41	C	08/18/2016	10:43	-132.540	45.047	0	239.90	0	7.2950	0	33.9060	0	26.520	0	237.813	0	155.7	4	53.0	4	-1E+10	1	-1E+10	1	-1E+10	1	-1E+10	1	-1E+10	1	-1E+10	1
4901784	41	C	08/18/2016	10:43	-132.540	45.047	0	242.20	0	7.2450	0	33.9060	0	26.527	0	240.092	0	154.4	4	52.5	4	-1E+10	1	-1E+10	1	-1E+10	1	-1E+10	1	-1E+10	1	-1E+10	1
4901784	41	C	08/18/2016	10:43	-132.540	45.047	0	244.70	0	7.2100	0	33.9070	0	26.532	0	242.569	0	153.0	4	52.0	4	-1E+10	1	-1E+10	1	-1E+10	1	-1E+10	1	-1E+10	1	-1E+10	1
4901784	41	C	08/18/2016	10:43	-132.540	45.047	0	247.90	0	7.1520	0	33.9050	0	26.539	0	245.739	0	151.0	4	51.2	4	-1E+10	1	-1E+10	1	-1E+10	1	-1E+10	1	-1E+10	1	-1E+10	1
4901784	41	C	08/18/2016	10:43	-132.540	45.047	0	250.40	0	7.0880	0	33.9050	0	26.548	0	248.216	0	149.2	4	50.5	4	-1E+10	1	-1E+10	1	-1E+10	1	-1E+10	1	-1E+10	1	-1E+10	1
4901784	41	C	08/18/2016	10:43	-132.540	45.047	0	252.80	0	7.0320	0	33.9070	0	26.557	0	250.593	0	147.6	4	49.9	4	-1E+10	1	-1E+10	1	-1E+10	1	-1E+10	1	-1E+10	1	-1E+10	1
4901784	41	C	08/18/2016	10:43	-132.540	45.047	0	255.30	0	6.9610	0	33.9080	0	26.567	0	253.070	0	146.0	4	49.3	4	-1E+10	1	-1E+10	1	-1E+10	1	-1E+10	1	-1E+10	1	-1E+10	1
4901784	41	C	08/18/2016	10:43	-132.540	45.047	0	257.80	0	6.9130	0	33.9080	0	26.574	0	255.547	0	144.8	4	48.9	4	-1E+10	1	-1E+10	1	-1E+10	1	-1E+10	1	-1E+10	1	-1E+10	1
4901784	41	C	08/18/2016	10:43	-132.540	45.047	0	260.30	0	6.8710	0	33.9080	0	26.580	0	258.023	0	143.7	4	48.4	4	-1E+10	1	-1E+10	1	-1E+10	1	-1E+10	1	-1E+10	1	-1E+10	1
4901784	41	C	08/18/2016	10:43	-132.540	45.047	0	262.80	0	6.8260	0	33.9090	0	26.586	0	260.500	0	142.7	4	48.1	4	-1E+10	1	-1E+10	1	-1E+10	1	-1E+10	1	-1E+10	1	-1E+10	1
4901784	41	C	08/18/2016	10:43	-132.540	45.047	0	265.30	0	6.7990	0	33.9090	0	26.590	0	262.976	0	141.9	4	47.8	4	-1E+10	1	-1E+10	1	-1E+10	1	-1E+10	1	-1E+10	1	-1E+10	1
4901784	41	C	08/18/2016	10:43	-132.540	45.047	0	267.90	0	6.7880	0	33.9090	0	26.592	0	265.552	0	140.8	4	47.4	4	-1E+10	1	-1E+10	1	-1E+10	1	-1E+10	1	-1E+10	1	-1E+10	1
4901784	41	C	08/18/2016	10:43	-132.540	45.047	0	270.40	0	6.7760	0	33.9070	0	26.592	0	268.028	0	139.4	4	46.9	4	-1E+10	1	-1E+10	1	-1E+10	1	-1E+10	1	-1E+10	1	-1E+10	1
4901784	41	C	08/18/2016	10:43	-132.540	45.047	0	272.10	0	6.7200	0	33.9090	0	26.601	0	269.712	0	138.5	4	46.5	4	-1E+10	1	-1E+10	1	-1E+10	1	-1E+10	1	-1E+10	1	-1E+10	1
4901784	41	C	08/18/2016	10:43	-132.540	45.047	0	274.80	0	6.6690	0	33.9100	0	26.608	0	272.387	0	137.3	4	46.1	4	-1E+10	1	-1E+10	1	-1E+10	1	-1E+10	1	-1E+10	1	-1E+10	1
4901784	41	C	08/18/2016	10:43	-132.540	45.047	0	277.50	0	6.6230	0	33.9100	0	26.614	0	275.061	0	136.2	4	45.6	4	-1E+10	1	-1E+10	1	-1E+10	1	-1E+10	1	-1E+10	1	-1E+10	1
4901784	41	C	08/18/2016	10:43	-132.540	45.047	0	280.20	0	6.5960	0	33.9120	0	26.620	0	277.736	0	135.4	4	45.4	4	-1E+10	1	-1E+10	1	-1E+10	1	-1E+10	1	-1E+10	1	-1E+10	1
4901784	41	C	08/18/2016	10:43	-132.540	45.047	0	282.90	0	6.5760	0	33.9120	0	26.622	0	280.410	0	134.6	4	45.1	4	-1E+10	1	-1E+10	1	-1E+10	1	-1E+10	1	-1E+10	1	-1E+10	1
4901784	41	C	08/18/2016	10:43	-132.540	45.047	0	284.80	0	6.5700	0	33.9110	0	26.622	0	282.292	0	134.0	4	44.9	4	-1E+10	1	-1E+10	1	-1E+10	1	-1E+10	1	-1E+10	1	-1E+10	1
4901784	41	C	08/18/2016	10:43	-132.540	45.047	0	287.50	0	6.5500	0	33.9120	0	26.626	0	284.967	0	133.2	4	44.6	4	-1E+10	1	-1E+10	1	-1E+10	1	-1E+10	1	-1E+10	1	-1E+10	1
4901784	41	C	08/18/2016	10:43	-132.540	45.047	0	290.20	0	6.5190	0	33.9110	0	26.629	0	287.641	0	132.3	4	44.2	4	-1E+10	1	-1E+10	1	-1E+10	1	-1E+10	1	-1E+10	1	-1E+10	1
4901784	41	C	08/18/2016	10:43	-132.540	45.047	0	292.00	0	6.4760	0	33.9120	0	26.635	0	289.424	0	131.6	4	44.0	4	-1E+10	1	-1E+10	1	-1E+10	1	-1E+10	1	-1E+10	1	-1E+10	1
4901784	41	C	08/18/2016	10:43	-132.540	45.047	0	294.70	0	6.4520	0	33.9110	0	26.638	0	292.098	0	130.5	4	43.6	4	-1E+10	1	-1E+10	1	-1E+10	1	-1E+10	1	-1E+10	1	-1E+10	1
4901784	41	C	08/18/2016	10:43	-132.540	45.047	0	297.40	0	6.4360	0	33.9100	0	26.639	0	294.772	0	129.3	4	43.2	4	-1E+10	1	-1E+10	1	-1E+10	1	-1E+10	1	-1E+10	1	-1E+10	1
4901784	41	C	08/18/2016	10:43	-132.540	45.047	0	300.10	0	6.4030	0	33.9100	0	26.643	0	297.447	0	127.7	4	42.6	4	-1E+10	1	-1E+10	1	-1E+10	1	-1E+10	1	-1E+10	1	-1E+10	1
4901784	41	C	08/18/2016	10:43	-132.540	45.047	0	302.90	0	6.3610	0	33.9100	0	26.649	0	300.220	0	125.9	4	42.0	4	-1E+10	1	-1E+10	1	-1E+10	1	-1E+10	1	-1E+10	1	-1E+10	1
4901784	41	C	08/18/2016	10:43	-132.540	45.047	0	304.80	0	6.3250	0	33.9120	0	26.655	0	302.102	0	124.8	4	41.5	4	-1E+10	1	-1E+10	1	-1E+10	1	-1E+10	1	-1E+10	1	-1E+10	1
4901784	41	C	08/18/2016	10:43	-132.540	45.047	0	307.60	0	6.2980	0	33.9130	0	26.659	0	304.875	0	123.1	4	41.0	4	-1E+10	1	-1E+10	1	-1E+10	1	-1E+10	1	-1E+10	1	-1E+10	1
4901784	41	C	08/18/2016	10:43	-132.540	45.047	0	310.40	0	6.2700	0	33.9140	0	26.664	0	307.648	0	121.8	4	40.5	4	-1E+10	1	-1E+10	1	-1E+10	1	-1E+10	1	-1E+10	1	-1E+10	1
4901784	41	C	08/18/2016	10:43	-132.540	45.047	0	312.30	0	6.2480	0	33.9130	0	26.666	0	309.530	0	120.9	4	40.2	4	-1E+10	1	-1E+10	1	-1E+10	1	-1E+10	1	-1E+10	1	-1E+10	1
4901784	41	C	08/18/2016	10:43	-132.540	45.047	0	315.10	0	6.2080	0	33.9130	0	26.671	0	312.303	0	119.6	4	39.7	4	-1E+10	1	-1E+10	1	-1E+10	1	-1E+10	1	-1E+10	1	-1E+10	1
4901784	41	C	08/18/2016	10:43	-132.540	45.047	0	317.90	0	6.1710	0	33.9130	0	26.676	0	315.076	0	118.3	4	39.2	4	-1E+10	1	-1E+10	1	-1E+10	1	-1E+10	1	-1E+10	1	-1E+10	1
4901784	41	C	08/18/2016	10:43	-132.540	45.047	0	319.70	0	6.1320	0	33.9130	0	26.681	0	316.858	0	117.3	4	38.9	4	-1E+10	1	-1E+10	1	-1E+10	1	-1E+10	1	-1E+10	1	-1E+10	1
4901784	41	C	08/18/2016	10:43	-132.540	45.047	0	322.50	0	6.1030	0	33.9130	0	26.684	0	319.631	0	116.1	4	38.5	4	-1E+10	1	-1E+10	1	-1E+10	1	-1E+10	1	-1E+10	1	-1E+10	1
4901784	41	C	08/18/2016	10:43	-132.540	45.047	0	325.20	0	6.0540	0	33.9130	0	26.691	0	322.305	0	114.6	4	37.9	4	-1E+10	1	-1E+10	1	-1E+10	1	-1E+10	1	-1E+10	1	-1E+10	1
4901784	41	C	08/18/2016	10:43	-132.540	45.047	0	327.10	0	6.0130	0	33.9120	0	26.695	0	324.187	0	113.6	4	37.5	4	-1E+10	1	-1E+10	1	-1E+10	1	-1E+10	1	-1E+10	1	-1E+10	1
4901784	41	C	08/18/2016	10:43	-132.540	45.047	0	329.80	0	5.9610	0	33.9140	0	26.703	0	326.861	0	112.6	4	37.2	4	-1E+10	1	-1E+10	1	-1E+10	1	-1E+10	1	-1E+10	1	-1E+10	1
4901784	41	C	08/18/2016	10:43	-132.540	45.047	0	332.60	0	5.9280	0	33.9150	0	26.708	0	329.633	0	112.0	4	36.9	4	-1E+10	1	-1E+10	1	-1E+10	1	-1E+10	1	-1E+10	1	-1E+10	1
4901784	41	C	08/18/2016	10:43	-132.540	45.047	0	334.50	0	5.9250	0	33.9140	0	26.708	0	331.515	0	111.6	4	36.8	4	-1E+10	1	-1E+10	1	-1E+10	1	-1E+10	1	-1E+10	1	-1E+10	1
4901784	41	C	08/18/2016	10:43	-132.540	45.047	0	337.30	0	5.9140	0	33.9140	0	26.709	0	334.288	0	110.8	4	36.5	4	-1E+10	1	-1E+10	1	-1E+10	1	-1E+10	1	-1E+10	1	-1E+10	1
4901784	41	C	08/18/2016	10:43	-132.540	45.047	0	340.10	0	5.8980	0	33.9130	0	26.710	0	337.060	0	109.9	4	36.2	4	-1E+10	1	-1E+10	1	-1E+10	1	-1E+10	1	-1E+10	1	-1E+10	1
4901784	41	C	08/18/2016	10:43	-132.540	45.047	0	341.90	0	5.8640	0	33.9130	0	26.714	0	338.843	0	109.2	4	36.0	4	-1E+10	1	-1E+10	1	-1E+10	1	-1E+10	1	-1E+10	1	-1E+10	1
4901784	41	C	08/18/2016	10:43	-132.540	45.047	0	344.80	0	5.8330	0	33.9140	0	26.719	0	341.715	0	108.6	4	35.7	4	-1E+10	1	-1E+10	1	-1E+10	1	-1E+10	1	-1E+10	1	-1E+10	1
4901784	41	C	08/18/2016	10:43	-132.540	45.047	0	347.60	0	5.8200	0	33.9140	0	26.721	0	344.487	0	107.9	4	35.5	4	-1E+10	1	-1E+10	1	-1E+10	1	-1E+10	1	-1E+10	1	-1E+10	1
4901784	41	C	08/18/2016	10:43	-132.540	45.047	0	349.40	0	5.8150	0	33.9130	0	26.721	0	346.270	0	107.2	4	35.3	4	-1E+10	1	-1E+10	1	-1E+10	1	-1E+10	1	-1E+10	1	-1E+10	1
4901784	41	C	08/18/2016	10:43	-132.540	45.047	0	352.30	0	5.7830	0	33.9140	0	26.725	0	349.141	0	106.1	4	34.9	4	-1E+10	1	-1E+10	1	-1E+10	1	-1E+10	1	-1E+10	1	-1E+10	1
4901784	41	C	08/18/2016	10:43	-132.540	45.047	0	355.10	0	5.7720	0	33.9130	0	26.726	0	351.914	0	104.9	4	34.5	4	-1E+10	1	-1E+10	1	-1E+10	1	-1E+10	1	-1E+10	1	-1E+10	1
4901784	41	C	08/18/2016	10:43	-132.540	45.047	0	357.00	0	5.7530	0	33.9130	0	26.728	0	353.795	0	103.7	4	34.1	4	-1E+10	1	-1E+10	1	-1E+10	1	-1E+10	1	-1E+10	1	-1E+10	1
4901784	41	C	08/18/2016	10:43	-132.540	45.047	0	359.90	0	5.6850	0	33.9160	0	26.739	0	356.666	0	102.3	4	33.5	4	-1E+10	1	-1E+10	1	-1E+10	1	-1E+10	1	-1E+10	1	-1E+10	1
4901784	41	C	08/18/2016	10:43	-132.540	45.047	0	362.70	0	5.6650	0	33.9140	0	26.740	0	359.439	0	101.0	4	33.1	4	-1E+10	1	-1E+10	1	-1E+10	1	-1E+10	1	-1E+10	1	-1E+10	1
4901784	41	C	08/18/2016	10:43	-132.540	45.047	0	364.60	0	5.6400	0	33.9140	0	26.743	0	361.320	0	99.7	4	32.7	4	-1E+10	1	-1E+10	1	-1E+10	1	-1E+10	1	-1E+10	1	-1E+10	1
4901784	41	C	08/18/2016	10:43	-132.540	45.047	0	367.50	0	5.5990	0	33.9160	0	26.749	0	364.192	0	97.7	4	32.0	4	-1E+10	1	-1E+10	1	-1E+10	1	-1E+10	1	-1E+10	1	-1E+10	1
4901784	41	C	08/18/2016	10:43	-132.540	45.047	0	370.30	0	5.5680	0	33.9180	0	26.755	0	366.964	0	95.9	4	31.4	4	-1E+10	1	-1E+10	1	-1E+10	1	-1E+10	1	-1E+10	1	-1E+10	1
4901784	41	C	08/18/2016	10:43	-132.540	45.047	0	372.20	0	5.5530	0	33.9190	0	26.757	0	368.845	0	94.3	4	30.8	4	-1E+10	1	-1E+10	1	-1E+10	1	-1E+10	1	-1E+10	1	-1E+10	1
4901784	41	C	08/18/2016	10:43	-132.540	45.047	0	375.00	0	5.5090	0	33.9210	0	26.764	0	371.617	0	91.5	4	29.9	4	-1E+10	1	-1E+10	1	-1E+10	1	-1E+10	1	-1E+10	1	-1E+10	1
4901784	41	C	08/18/2016	10:43	-132.540	45.047	0	377.90	0	5.4930	0	33.9250	0	26.769	0	374.488	0	89.1	4	29.1	4	-1E+10	1	-1E+10	1	-1E+10	1	-1E+10	1	-1E+10	1	-1E+10	1
4901784	41	C	08/18/2016	10:43	-132.540	45.047	0	379.80	0	5.4600	0	33.9280	0	26.776	0	376.370	0	88.0	4	28.7	4	-1E+10	1	-1E+10	1	-1E+10	1	-1E+10	1	-1E+10	1	-1E+10	1
4901784	41	C	08/18/2016	10:43	-132.540	45.047	0	382.60	0	5.4120	0	33.9290	0	26.782	0	379.142	0	86.2	4	28.1	4	-1E+10	1	-1E+10	1	-1E+10	1	-1E+10	1	-1E+10	1	-1E+10	1
4901784	41	C	08/18/2016	10:43	-132.540	45.047	0	385.40	0	5.3770	0	33.9310	0	26.788	0	381.914	0	83.7	4	27.3	4	-1E+10	1	-1E+10	1	-1E+10	1	-1E+10	1	-1E+10	1	-1E+10	1
4901784	41	C	08/18/2016	10:43	-132.540	45.047	0	387.30	0	5.3760	0	33.9380	0	26.793	0	383.795	0	82.0	4	26.7	4	-1E+10	1	-1E+10	1	-1E+10	1	-1E+10	1	-1E+10	1	-1E+10	1
4901784	41	C	08/18/2016	10:43	-132.540	45.047	0	390.30	0	5.3610	0	33.9420	0	26.798	0	386.765	0	80.3	4	26.1	4	-1E+10	1	-1E+10	1	-1E+10	1	-1E+10	1	-1E+10	1	-1E+10	1
4901784	41	C	08/18/2016	10:43	-132.540	45.047	0	393.40	0	5.2980	0	33.9390	0	26.803	0	389.834	0	79.5	4	25.8	4	-1E+10	1	-1E+10	1	-1E+10	1	-1E+10	1	-1E+10	1	-1E+10	1
4901784	41	C	08/18/2016	10:43	-132.540	45.047	0	394.80	0	5.2950	0	33.9400	0	26.805	0	391.220	0	78.2	4	25.4	4	-1E+10	1	-1E+10	1	-1E+10	1	-1E+10	1	-1E+10	1	-1E+10	1
4901784	41	C	08/18/2016	10:43	-132.540	45.047	0	397.20	0	5.2880	0	33.9460	0	26.810	0	393.596	0	76.4	4	24.8	4	-1E+10	1	-1E+10	1	-1E+10	1	-1E+10	1	-1E+10	1	-1E+10	1
4901784	41	C	08/18/2016	10:43	-132.540	45.047	0	399.70	0	5.2820	0	33.9500	0	26.814	0	396.071	0	74.7	4	24.3	4	-1E+10	1	-1E+10	1	-1E+10	1	-1E+10	1	-1E+10	1	-1E+10	1
4901784	41	C	08/18/2016	10:43	-132.540	45.047	0	402.20	0	5.3000	0	33.9530	0	26.814	0	398.546	0	73.4	4	23.9	4	-1E+10	1	-1E+10	1	-1E+10	1	-1E+10	1	-1E+10	1	-1E+10	1
4901784	41	C	08/18/2016	10:43	-132.540	45.047	0	404.60	0	5.2850	0	33.9580	0	26.820	0	400.922	0	73.3	4	23.8	4	-1E+10	1	-1E+10	1	-1E+10	1	-1E+10	1	-1E+10	1	-1E+10	1
4901784	41	C	08/18/2016	10:43	-132.540	45.047	0	407.90	0	5.2270	0	33.9550	0	26.825	0	404.188	0	73.1	4	23.7	4	-1E+10	1	-1E+10	1	-1E+10	1	-1E+10	1	-1E+10	1	-1E+10	1
4901784	41	C	08/18/2016	10:43	-132.540	45.047	0	410.40	0	5.1850	0	33.9530	0	26.828	0	406.663	0	71.9	4	23.3	4	-1E+10	1	-1E+10	1	-1E+10	1	-1E+10	1	-1E+10	1	-1E+10	1
4901784	41	C	08/18/2016	10:43	-132.540	45.047	0	412.80	0	5.1720	0	33.9570	0	26.832	0	409.039	0	69.8	4	22.6	4	-1E+10	1	-1E+10	1	-1E+10	1	-1E+10	1	-1E+10	1	-1E+10	1
4901784	41	C	08/18/2016	10:43	-132.540	45.047	0	415.40	0	5.1640	0	33.9600	0	26.836	0	411.613	0	67.3	4	21.8	4	-1E+10	1	-1E+10	1	-1E+10	1	-1E+10	1	-1E+10	1	-1E+10	1
4901784	41	C	08/18/2016	10:43	-132.540	45.047	0	417.10	0	5.1840	0	33.9660	0	26.838	0	413.296	0	65.6	4	21.3	4	-1E+10	1	-1E+10	1	-1E+10	1	-1E+10	1	-1E+10	1	-1E+10	1
4901784	41	C	08/18/2016	10:43	-132.540	45.047	0	419.60	0	5.1890	0	33.9740	0	26.844	0	415.770	0	63.3	4	20.5	4	-1E+10	1	-1E+10	1	-1E+10	1	-1E+10	1	-1E+10	1	-1E+10	1
4901784	41	C	08/18/2016	10:43	-132.540	45.047	0	422.20	0	5.2000	0	33.9810	0	26.848	0	418.344	0	61.8	4	20.1	4	-1E+10	1	-1E+10	1	-1E+10	1	-1E+10	1	-1E+10	1	-1E+10	1
4901784	41	C	08/18/2016	10:43	-132.540	45.047	0	424.70	0	5.1840	0	33.9820	0	26.851	0	420.819	0	61.2	4	19.8	4	-1E+10	1	-1E+10	1	-1E+10	1	-1E+10	1	-1E+10	1	-1E+10	1
4901784	41	C	08/18/2016	10:43	-132.540	45.047	0	427.30	0	5.1680	0	33.9810	0	26.852	0	423.392	0	60.2	4	19.5	4	-1E+10	1	-1E+10	1	-1E+10	1	-1E+10	1	-1E+10	1	-1E+10	1
4901784	41	C	08/18/2016	10:43	-132.540	45.047	0	429.80	0	5.1410	0	33.9810	0	26.855	0	425.867	0	58.4	4	18.9	4	-1E+10	1	-1E+10	1	-1E+10	1	-1E+10	1	-1E+10	1	-1E+10	1
4901784	41	C	08/18/2016	10:43	-132.540	45.047	0	432.40	0	5.1510	0	33.9860	0	26.858	0	428.440	0	55.4	4	18.0	4	-1E+10	1	-1E+10	1	-1E+10	1	-1E+10	1	-1E+10	1	-1E+10	1
4901784	41	C	08/18/2016	10:43	-132.540	45.047	0	435.00	0	5.1910	0	33.9990	0	26.864	0	431.014	0	53.4	4	17.3	4	-1E+10	1	-1E+10	1	-1E+10	1	-1E+10	1	-1E+10	1	-1E+10	1
4901784	41	C	08/18/2016	10:43	-132.540	45.047	0	437.60	0	5.1860	0	34.0020	0	26.867	0	433.587	0	52.4	4	17.0	4	-1E+10	1	-1E+10	1	-1E+10	1	-1E+10	1	-1E+10	1	-1E+10	1
4901784	41	C	08/18/2016	10:43	-132.540	45.047	0	440.20	0	5.1640	0	34.0060	0	26.873	0	436.161	0	51.5	4	16.7	4	-1E+10	1	-1E+10	1	-1E+10	1	-1E+10	1	-1E+10	1	-1E+10	1
4901784	41	C	08/18/2016	10:43	-132.540	45.047	0	442.80	0	5.1510	0	34.0080	0	26.876	0	438.734	0	50.8	4	16.5	4	-1E+10	1	-1E+10	1	-1E+10	1	-1E+10	1	-1E+10	1	-1E+10	1
4901784	41	C	08/18/2016	10:43	-132.540	45.047	0	445.40	0	5.1500	0	34.0100	0	26.877	0	441.307	0	50.0	4	16.2	4	-1E+10	1	-1E+10	1	-1E+10	1	-1E+10	1	-1E+10	1	-1E+10	1
4901784	41	C	08/18/2016	10:43	-132.540	45.047	0	447.90	0	5.1470	0	34.0110	0	26.879	0	443.782	0	48.9	4	15.9	4	-1E+10	1	-1E+10	1	-1E+10	1	-1E+10	1	-1E+10	1	-1E+10	1
4901784	41	C	08/18/2016	10:43	-132.540	45.047	0	449.70	0	5.1440	0	34.0120	0	26.880	0	445.563	0	48.2	4	15.6	4	-1E+10	1	-1E+10	1	-1E+10	1	-1E+10	1	-1E+10	1	-1E+10	1
4901784	41	C	08/18/2016	10:43	-132.540	45.047	0	452.30	0	5.1360	0	34.0180	0	26.885	0	448.137	0	47.2	4	15.3	4	-1E+10	1	-1E+10	1	-1E+10	1	-1E+10	1	-1E+10	1	-1E+10	1
4901784	41	C	08/18/2016	10:43	-132.540	45.047	0	454.90	0	5.1260	0	34.0200	0	26.888	0	450.710	0	46.5	4	15.1	4	-1E+10	1	-1E+10	1	-1E+10	1	-1E+10	1	-1E+10	1	-1E+10	1
4901784	41	C	08/18/2016	10:43	-132.540	45.047	0	457.50	0	5.1140	0	34.0230	0	26.892	0	453.283	0	46.0	4	14.9	4	-1E+10	1	-1E+10	1	-1E+10	1	-1E+10	1	-1E+10	1	-1E+10	1
4901784	41	C	08/18/2016	10:43	-132.540	45.047	0	460.10	0	5.0930	0	34.0240	0	26.895	0	455.856	0	45.4	4	14.7	4	-1E+10	1	-1E+10	1	-1E+10	1	-1E+10	1	-1E+10	1	-1E+10	1
4901784	41	C	08/18/2016	10:43	-132.540	45.047	0	462.80	0	5.0730	0	34.0280	0	26.901	0	458.528	0	44.7	4	14.5	4	-1E+10	1	-1E+10	1	-1E+10	1	-1E+10	1	-1E+10	1	-1E+10	1
4901784	41	C	08/18/2016	10:43	-132.540	45.047	0	465.50	0	5.0530	0	34.0300	0	26.905	0	461.200	0	44.3	4	14.3	4	-1E+10	1	-1E+10	1	-1E+10	1	-1E+10	1	-1E+10	1	-1E+10	1
4901784	41	C	08/18/2016	10:43	-132.540	45.047	0	467.30	0	5.0480	0	34.0290	0	26.904	0	462.982	0	44.1	4	14.2	4	-1E+10	1	-1E+10	1	-1E+10	1	-1E+10	1	-1E+10	1	-1E+10	1
4901784	41	C	08/18/2016	10:43	-132.540	45.047	0	469.90	0	5.0170	0	34.0320	0	26.910	0	465.555	0	43.7	4	14.1	4	-1E+10	1	-1E+10	1	-1E+10	1	-1E+10	1	-1E+10	1	-1E+10	1
4901784	41	C	08/18/2016	10:43	-132.540	45.047	0	472.50	0	5.0040	0	34.0330	0	26.913	0	468.128	0	43.4	4	14.0	4	-1E+10	1	-1E+10	1	-1E+10	1	-1E+10	1	-1E+10	1	-1E+10	1
4901784	41	C	08/18/2016	10:43	-132.540	45.047	0	475.10	0	4.9980	0	34.0320	0	26.912	0	470.701	0	42.9	4	13.9	4	-1E+10	1	-1E+10	1	-1E+10	1	-1E+10	1	-1E+10	1	-1E+10	1
4901784	41	C	08/18/2016	10:43	-132.540	45.047	0	477.70	0	4.9830	0	34.0340	0	26.916	0	473.274	0	42.2	4	13.6	4	-1E+10	1	-1E+10	1	-1E+10	1	-1E+10	1	-1E+10	1	-1E+10	1
4901784	41	C	08/18/2016	10:43	-132.540	45.047	0	480.30	0	4.9410	0	34.0390	0	26.924	0	475.847	0	41.7	4	13.5	4	-1E+10	1	-1E+10	1	-1E+10	1	-1E+10	1	-1E+10	1	-1E+10	1
4901784	41	C	08/18/2016	10:43	-132.540	45.047	0	483.00	0	4.9310	0	34.0400	0	26.926	0	478.519	0	41.3	4	13.3	4	-1E+10	1	-1E+10	1	-1E+10	1	-1E+10	1	-1E+10	1	-1E+10	1
4901784	41	C	08/18/2016	10:43	-132.540	45.047	0	484.80	0	4.9220	0	34.0400	0	26.927	0	480.300	0	41.1	4	13.2	4	-1E+10	1	-1E+10	1	-1E+10	1	-1E+10	1	-1E+10	1	-1E+10	1
4901784	41	C	08/18/2016	10:43	-132.540	45.047	0	487.50	0	4.9100	0	34.0420	0	26.930	0	482.972	0	40.6	4	13.1	4	-1E+10	1	-1E+10	1	-1E+10	1	-1E+10	1	-1E+10	1	-1E+10	1
4901784	41	C	08/18/2016	10:43	-132.540	45.047	0	490.20	0	4.8840	0	34.0450	0	26.936	0	485.643	0	40.3	4	13.0	4	-1E+10	1	-1E+10	1	-1E+10	1	-1E+10	1	-1E+10	1	-1E+10	1
4901784	41	C	08/18/2016	10:43	-132.540	45.047	0	492.00	0	4.8590	0	34.0460	0	26.939	0	487.425	0	40.1	4	12.9	4	-1E+10	1	-1E+10	1	-1E+10	1	-1E+10	1	-1E+10	1	-1E+10	1
4901784	41	C	08/18/2016	10:43	-132.540	45.047	0	494.70	0	4.8450	0	34.0470	0	26.942	0	490.096	0	39.9	4	12.8	4	-1E+10	1	-1E+10	1	-1E+10	1	-1E+10	1	-1E+10	1	-1E+10	1
4901784	41	C	08/18/2016	10:43	-132.540	45.047	0	497.40	0	4.8170	0	34.0480	0	26.946	0	492.768	0	39.5	4	12.7	4	-1E+10	1	-1E+10	1	-1E+10	1	-1E+10	1	-1E+10	1	-1E+10	1
4901784	41	C	08/18/2016	10:43	-132.540	45.047	0	500.00	0	4.8060	0	34.0490	0	26.948	0	495.341	0	39.2	4	12.6	4	-1E+10	1	-1E+10	1	-1E+10	1	-1E+10	1	-1E+10	1	-1E+10	1
4901784	41	C	08/18/2016	10:43	-132.540	45.047	0	504.50	0	4.7780	0	34.0520	0	26.953	0	499.793	0	38.7	4	12.4	4	-1E+10	1	-1E+10	1	-1E+10	1	-1E+10	1	-1E+10	1	-1E+10	1
4901784	41	C	08/18/2016	10:43	-132.540	45.047	0	509.80	0	4.7490	0	34.0540	0	26.958	0	505.037	0	38.2	4	12.3	4	-1E+10	1	-1E+10	1	-1E+10	1	-1E+10	1	-1E+10	1	-1E+10	1
4901784	41	C	08/18/2016	10:43	-132.540	45.047	0	515.20	0	4.6880	0	34.0560	0	26.966	0	510.380	0	37.6	4	12.0	4	-1E+10	1	-1E+10	1	-1E+10	1	-1E+10	1	-1E+10	1	-1E+10	1
4901784	41	C	08/18/2016	10:43	-132.540	45.047	0	520.60	0	4.6530	0	34.0620	0	26.975	0	515.723	0	36.2	4	11.6	4	-1E+10	1	-1E+10	1	-1E+10	1	-1E+10	1	-1E+10	1	-1E+10	1
4901784	41	C	08/18/2016	10:43	-132.540	45.047	0	525.00	0	4.6460	0	34.0670	0	26.980	0	520.076	0	35.1	4	11.3	4	-1E+10	1	-1E+10	1	-1E+10	1	-1E+10	1	-1E+10	1	-1E+10	1
4901784	41	C	08/18/2016	10:43	-132.540	45.047	0	529.60	0	4.6360	0	34.0710	0	26.984	0	524.627	0	34.3	4	11.0	4	-1E+10	1	-1E+10	1	-1E+10	1	-1E+10	1	-1E+10	1	-1E+10	1
4901784	41	C	08/18/2016	10:43	-132.540	45.047	0	535.10	0	4.6230	0	34.0750	0	26.989	0	530.069	0	33.3	4	10.6	4	-1E+10	1	-1E+10	1	-1E+10	1	-1E+10	1	-1E+10	1	-1E+10	1
4901784	41	C	08/18/2016	10:43	-132.540	45.047	0	540.60	0	4.6120	0	34.0800	0	26.994	0	535.510	0	32.3	4	10.3	4	-1E+10	1	-1E+10	1	-1E+10	1	-1E+10	1	-1E+10	1	-1E+10	1
4901784	41	C	08/18/2016	10:43	-132.540	45.047	0	545.20	0	4.6110	0	34.0820	0	26.996	0	540.061	0	31.6	4	10.1	4	-1E+10	1	-1E+10	1	-1E+10	1	-1E+10	1	-1E+10	1	-1E+10	1
4901784	41	C	08/18/2016	10:43	-132.540	45.047	0	550.50	0	4.5850	0	34.0870	0	27.003	0	545.304	0	30.9	4	9.9	4	-1E+10	1	-1E+10	1	-1E+10	1	-1E+10	1	-1E+10	1	-1E+10	1
4901784	41	C	08/18/2016	10:43	-132.540	45.047	0	555.60	0	4.5600	0	34.0920	0	27.009	0	550.349	0	30.5	4	9.7	4	-1E+10	1	-1E+10	1	-1E+10	1	-1E+10	1	-1E+10	1	-1E+10	1
4901784	41	C	08/18/2016	10:43	-132.540	45.047	0	560.30	0	4.5500	0	34.0920	0	27.010	0	554.998	0	30.0	4	9.6	4	-1E+10	1	-1E+10	1	-1E+10	1	-1E+10	1	-1E+10	1	-1E+10	1
4901784	41	C	08/18/2016	10:43	-132.540	45.047	0	564.90	0	4.5330	0	34.0950	0	27.015	0	559.549	0	29.3	4	9.3	4	-1E+10	1	-1E+10	1	-1E+10	1	-1E+10	1	-1E+10	1	-1E+10	1
4901784	41	C	08/18/2016	10:43	-132.540	45.047	0	569.70	0	4.5140	0	34.0990	0	27.020	0	564.297	0	28.3	4	9.1	4	-1E+10	1	-1E+10	1	-1E+10	1	-1E+10	1	-1E+10	1	-1E+10	1
4901784	41	C	08/18/2016	10:43	-132.540	45.047	0	574.50	0	4.5040	0	34.1040	0	27.025	0	569.044	0	27.4	4	8.8	4	-1E+10	1	-1E+10	1	-1E+10	1	-1E+10	1	-1E+10	1	-1E+10	1
4901784	41	C	08/18/2016	10:43	-132.540	45.047	0	579.40	0	4.4880	0	34.1090	0	27.031	0	573.891	0	26.5	4	8.4	4	-1E+10	1	-1E+10	1	-1E+10	1	-1E+10	1	-1E+10	1	-1E+10	1
4901784	41	C	08/18/2016	10:43	-132.540	45.047	0	584.20	0	4.4980	0	34.1140	0	27.034	0	578.639	0	25.7	4	8.2	4	-1E+10	1	-1E+10	1	-1E+10	1	-1E+10	1	-1E+10	1	-1E+10	1
4901784	41	C	08/18/2016	10:43	-132.540	45.047	0	589.20	0	4.4840	0	34.1170	0	27.038	0	583.584	0	25.3	4	8.1	4	-1E+10	1	-1E+10	1	-1E+10	1	-1E+10	1	-1E+10	1	-1E+10	1
4901784	41	C	08/18/2016	10:43	-132.540	45.047	0	594.20	0	4.4480	0	34.1210	0	27.045	0	588.530	0	24.9	4	7.9	4	-1E+10	1	-1E+10	1	-1E+10	1	-1E+10	1	-1E+10	1	-1E+10	1
4901784	41	C	08/18/2016	10:43	-132.540	45.047	0	599.30	0	4.4310	0	34.1230	0	27.048	0	593.574	0	24.4	4	7.8	4	-1E+10	1	-1E+10	1	-1E+10	1	-1E+10	1	-1E+10	1	-1E+10	1
4901784	41	C	08/18/2016	10:43	-132.540	45.047	0	604.40	0	4.4180	0	34.1270	0	27.053	0	598.618	0	23.8	4	7.6	4	-1E+10	1	-1E+10	1	-1E+10	1	-1E+10	1	-1E+10	1	-1E+10	1
4901784	41	C	08/18/2016	10:43	-132.540	45.047	0	609.60	0	4.4170	0	34.1300	0	27.055	0	603.760	0	23.1	4	7.4	4	-1E+10	1	-1E+10	1	-1E+10	1	-1E+10	1	-1E+10	1	-1E+10	1
4901784	41	C	08/18/2016	10:43	-132.540	45.047	0	614.70	0	4.4040	0	34.1360	0	27.061	0	608.804	0	22.4	4	7.1	4	-1E+10	1	-1E+10	1	-1E+10	1	-1E+10	1	-1E+10	1	-1E+10	1
4901784	41	C	08/18/2016	10:43	-132.540	45.047	0	619.80	0	4.3990	0	34.1420	0	27.067	0	613.847	0	21.9	4	7.0	4	-1E+10	1	-1E+10	1	-1E+10	1	-1E+10	1	-1E+10	1	-1E+10	1
4901784	41	C	08/18/2016	10:43	-132.540	45.047	0	624.90	0	4.3800	0	34.1430	0	27.070	0	618.891	0	21.8	4	6.9	4	-1E+10	1	-1E+10	1	-1E+10	1	-1E+10	1	-1E+10	1	-1E+10	1
4901784	41	C	08/18/2016	10:43	-132.540	45.047	0	630.00	0	4.3560	0	34.1440	0	27.073	0	623.934	0	21.5	4	6.9	4	-1E+10	1	-1E+10	1	-1E+10	1	-1E+10	1	-1E+10	1	-1E+10	1
4901784	41	C	08/18/2016	10:43	-132.540	45.047	0	635.20	0	4.3300	0	34.1480	0	27.079	0	629.076	0	21.1	4	6.7	4	-1E+10	1	-1E+10	1	-1E+10	1	-1E+10	1	-1E+10	1	-1E+10	1
4901784	41	C	08/18/2016	10:43	-132.540	45.047	0	640.40	0	4.3220	0	34.1520	0	27.083	0	634.218	0	20.5	4	6.5	4	-1E+10	1	-1E+10	1	-1E+10	1	-1E+10	1	-1E+10	1	-1E+10	1
4901784	41	C	08/18/2016	10:43	-132.540	45.047	0	644.80	0	4.3160	0	34.1570	0	27.088	0	638.569	0	20.0	4	6.4	4	-1E+10	1	-1E+10	1	-1E+10	1	-1E+10	1	-1E+10	1	-1E+10	1
4901784	41	C	08/18/2016	10:43	-132.540	45.047	0	649.30	0	4.2930	0	34.1600	0	27.093	0	643.019	0	19.7	4	6.3	4	-1E+10	1	-1E+10	1	-1E+10	1	-1E+10	1	-1E+10	1	-1E+10	1
4901784	41	C	08/18/2016	10:43	-132.540	45.047	0	654.60	0	4.2820	0	34.1620	0	27.095	0	648.259	0	19.3	4	6.1	4	-1E+10	1	-1E+10	1	-1E+10	1	-1E+10	1	-1E+10	1	-1E+10	1
4901784	41	C	08/18/2016	10:43	-132.540	45.047	0	660.10	0	4.2640	0	34.1660	0	27.100	0	653.697	0	18.9	4	6.0	4	-1E+10	1	-1E+10	1	-1E+10	1	-1E+10	1	-1E+10	1	-1E+10	1
4901784	41	C	08/18/2016	10:43	-132.540	45.047	0	665.50	0	4.2390	0	34.1730	0	27.109	0	659.036	0	18.3	4	5.8	4	-1E+10	1	-1E+10	1	-1E+10	1	-1E+10	1	-1E+10	1	-1E+10	1
4901784	41	C	08/18/2016	10:43	-132.540	45.047	0	670.00	0	4.2230	0	34.1770	0	27.114	0	663.485	0	18.0	4	5.7	4	-1E+10	1	-1E+10	1	-1E+10	1	-1E+10	1	-1E+10	1	-1E+10	1
4901784	41	C	08/18/2016	10:43	-132.540	45.047	0	674.50	0	4.2150	0	34.1800	0	27.117	0	667.934	0	17.7	4	5.6	4	-1E+10	1	-1E+10	1	-1E+10	1	-1E+10	1	-1E+10	1	-1E+10	1
4901784	41	C	08/18/2016	10:43	-132.540	45.047	0	680.00	0	4.1890	0	34.1850	0	27.124	0	673.372	0	17.5	4	5.5	4	-1E+10	1	-1E+10	1	-1E+10	1	-1E+10	1	-1E+10	1	-1E+10	1
4901784	41	C	08/18/2016	10:43	-132.540	45.047	0	685.40	0	4.1780	0	34.1870	0	27.126	0	678.711	0	17.1	4	5.4	4	-1E+10	1	-1E+10	1	-1E+10	1	-1E+10	1	-1E+10	1	-1E+10	1
4901784	41	C	08/18/2016	10:43	-132.540	45.047	0	689.90	0	4.1630	0	34.1910	0	27.131	0	683.159	0	16.8	4	5.3	4	-1E+10	1	-1E+10	1	-1E+10	1	-1E+10	1	-1E+10	1	-1E+10	1
4901784	41	C	08/18/2016	10:43	-132.540	45.047	0	694.40	0	4.1510	0	34.1950	0	27.136	0	687.608	0	16.4	4	5.2	4	-1E+10	1	-1E+10	1	-1E+10	1	-1E+10	1	-1E+10	1	-1E+10	1
4901784	41	C	08/18/2016	10:43	-132.540	45.047	0	699.80	0	4.1470	0	34.2010	0	27.141	0	692.946	0	15.9	4	5.1	4	-1E+10	1	-1E+10	1	-1E+10	1	-1E+10	1	-1E+10	1	-1E+10	1
4901784	41	C	08/18/2016	10:43	-132.540	45.047	0	705.30	0	4.1330	0	34.2030	0	27.144	0	698.383	0	15.6	4	5.0	4	-1E+10	1	-1E+10	1	-1E+10	1	-1E+10	1	-1E+10	1	-1E+10	1
4901784	41	C	08/18/2016	10:43	-132.540	45.047	0	709.90	0	4.1110	0	34.2100	0	27.152	0	702.930	0	15.3	4	4.9	4	-1E+10	1	-1E+10	1	-1E+10	1	-1E+10	1	-1E+10	1	-1E+10	1
4901784	41	C	08/18/2016	10:43	-132.540	45.047	0	714.40	0	4.0930	0	34.2130	0	27.156	0	707.378	0	15.2	4	4.8	4	-1E+10	1	-1E+10	1	-1E+10	1	-1E+10	1	-1E+10	1	-1E+10	1
4901784	41	C	08/18/2016	10:43	-132.540	45.047	0	719.80	0	4.0690	0	34.2180	0	27.163	0	712.716	0	14.8	4	4.7	4	-1E+10	1	-1E+10	1	-1E+10	1	-1E+10	1	-1E+10	1	-1E+10	1
4901784	41	C	08/18/2016	10:43	-132.540	45.047	0	725.20	0	4.0590	0	34.2230	0	27.168	0	718.054	0	14.5	4	4.6	4	-1E+10	1	-1E+10	1	-1E+10	1	-1E+10	1	-1E+10	1	-1E+10	1
4901784	41	C	08/18/2016	10:43	-132.540	45.047	0	729.80	0	4.0400	0	34.2280	0	27.174	0	722.600	0	14.2	4	4.5	4	-1E+10	1	-1E+10	1	-1E+10	1	-1E+10	1	-1E+10	1	-1E+10	1
4901784	41	C	08/18/2016	10:43	-132.540	45.047	0	734.40	0	4.0300	0	34.2310	0	27.177	0	727.147	0	14.0	4	4.4	4	-1E+10	1	-1E+10	1	-1E+10	1	-1E+10	1	-1E+10	1	-1E+10	1
4901784	41	C	08/18/2016	10:43	-132.540	45.047	0	740.00	0	4.0160	0	34.2360	0	27.182	0	732.682	0	13.8	4	4.4	4	-1E+10	1	-1E+10	1	-1E+10	1	-1E+10	1	-1E+10	1	-1E+10	1
4901784	41	C	08/18/2016	10:43	-132.540	45.047	0	745.60	0	4.0030	0	34.2410	0	27.188	0	738.217	0	13.5	4	4.3	4	-1E+10	1	-1E+10	1	-1E+10	1	-1E+10	1	-1E+10	1	-1E+10	1
4901784	41	C	08/18/2016	10:43	-132.540	45.047	0	750.90	0	3.9910	0	34.2460	0	27.193	0	743.455	0	13.3	4	4.2	4	-1E+10	1	-1E+10	1	-1E+10	1	-1E+10	1	-1E+10	1	-1E+10	1
4901784	41	C	08/18/2016	10:43	-132.540	45.047	0	755.20	0	3.9760	0	34.2510	0	27.199	0	747.704	0	13.2	4	4.2	4	-1E+10	1	-1E+10	1	-1E+10	1	-1E+10	1	-1E+10	1	-1E+10	1
4901784	41	C	08/18/2016	10:43	-132.540	45.047	0	760.00	0	3.9700	0	34.2520	0	27.200	0	752.448	0	13.2	4	4.2	4	-1E+10	1	-1E+10	1	-1E+10	1	-1E+10	1	-1E+10	1	-1E+10	1
4901784	41	C	08/18/2016	10:43	-132.540	45.047	0	764.80	0	3.9560	0	34.2530	0	27.202	0	757.192	0	13.1	4	4.1	4	-1E+10	1	-1E+10	1	-1E+10	1	-1E+10	1	-1E+10	1	-1E+10	1
4901784	41	C	08/18/2016	10:43	-132.540	45.047	0	769.70	0	3.9320	0	34.2580	0	27.209	0	762.034	0	13.0	4	4.1	4	-1E+10	1	-1E+10	1	-1E+10	1	-1E+10	1	-1E+10	1	-1E+10	1
4901784	41	C	08/18/2016	10:43	-132.540	45.047	0	774.70	0	3.9100	0	34.2610	0	27.213	0	766.975	0	13.0	4	4.1	4	-1E+10	1	-1E+10	1	-1E+10	1	-1E+10	1	-1E+10	1	-1E+10	1
4901784	41	C	08/18/2016	10:43	-132.540	45.047	0	779.70	0	3.8940	0	34.2650	0	27.218	0	771.916	0	12.9	4	4.1	4	-1E+10	1	-1E+10	1	-1E+10	1	-1E+10	1	-1E+10	1	-1E+10	1
4901784	41	C	08/18/2016	10:43	-132.540	45.047	0	784.70	0	3.8800	0	34.2690	0	27.223	0	776.857	0	12.8	4	4.0	4	-1E+10	1	-1E+10	1	-1E+10	1	-1E+10	1	-1E+10	1	-1E+10	1
4901784	41	C	08/18/2016	10:43	-132.540	45.047	0	789.70	0	3.8750	0	34.2700	0	27.224	0	781.797	0	12.7	4	4.0	4	-1E+10	1	-1E+10	1	-1E+10	1	-1E+10	1	-1E+10	1	-1E+10	1
4901784	41	C	08/18/2016	10:43	-132.540	45.047	0	794.80	0	3.8700	0	34.2710	0	27.225	0	786.837	0	12.7	4	4.0	4	-1E+10	1	-1E+10	1	-1E+10	1	-1E+10	1	-1E+10	1	-1E+10	1
4901784	41	C	08/18/2016	10:43	-132.540	45.047	0	799.90	0	3.8640	0	34.2730	0	27.228	0	791.876	0	12.5	4	3.9	4	-1E+10	1	-1E+10	1	-1E+10	1	-1E+10	1	-1E+10	1	-1E+10	1
4901784	41	C	08/18/2016	10:43	-132.540	45.047	0	805.10	0	3.8520	0	34.2770	0	27.232	0	797.014	0	12.3	4	3.9	4	-1E+10	1	-1E+10	1	-1E+10	1	-1E+10	1	-1E+10	1	-1E+10	1
4901784	41	C	08/18/2016	10:43	-132.540	45.047	0	810.40	0	3.8400	0	34.2810	0	27.237	0	802.251	0	12.2	4	3.8	4	-1E+10	1	-1E+10	1	-1E+10	1	-1E+10	1	-1E+10	1	-1E+10	1
4901784	41	C	08/18/2016	10:43	-132.540	45.047	0	814.90	0	3.8300	0	34.2850	0	27.241	0	806.697	0	12.0	4	3.8	4	-1E+10	1	-1E+10	1	-1E+10	1	-1E+10	1	-1E+10	1	-1E+10	1
4901784	41	C	08/18/2016	10:43	-132.540	45.047	0	819.30	0	3.8210	0	34.2890	0	27.245	0	811.044	0	11.9	4	3.7	4	-1E+10	1	-1E+10	1	-1E+10	1	-1E+10	1	-1E+10	1	-1E+10	1
4901784	41	C	08/18/2016	10:43	-132.540	45.047	0	824.60	0	3.8090	0	34.2940	0	27.250	0	816.280	0	11.8	4	3.7	4	-1E+10	1	-1E+10	1	-1E+10	1	-1E+10	1	-1E+10	1	-1E+10	1
4901784	41	C	08/18/2016	10:43	-132.540	45.047	0	829.90	0	3.8010	0	34.2960	0	27.253	0	821.516	0	11.7	4	3.7	4	-1E+10	1	-1E+10	1	-1E+10	1	-1E+10	1	-1E+10	1	-1E+10	1
4901784	41	C	08/18/2016	10:43	-132.540	45.047	0	835.30	0	3.7920	0	34.2990	0	27.256	0	826.851	0	11.6	4	3.7	4	-1E+10	1	-1E+10	1	-1E+10	1	-1E+10	1	-1E+10	1	-1E+10	1
4901784	41	C	08/18/2016	10:43	-132.540	45.047	0	839.80	0	3.7800	0	34.3030	0	27.260	0	831.296	0	11.5	4	3.6	4	-1E+10	1	-1E+10	1	-1E+10	1	-1E+10	1	-1E+10	1	-1E+10	1
4901784	41	C	08/18/2016	10:43	-132.540	45.047	0	844.40	0	3.7770	0	34.3060	0	27.263	0	835.841	0	11.4	4	3.6	4	-1E+10	1	-1E+10	1	-1E+10	1	-1E+10	1	-1E+10	1	-1E+10	1
4901784	41	C	08/18/2016	10:43	-132.540	45.047	0	849.90	0	3.7640	0	34.3100	0	27.267	0	841.274	0	11.4	4	3.6	4	-1E+10	1	-1E+10	1	-1E+10	1	-1E+10	1	-1E+10	1	-1E+10	1
4901784	41	C	08/18/2016	10:43	-132.540	45.047	0	855.30	0	3.7520	0	34.3130	0	27.271	0	846.608	0	11.4	4	3.6	4	-1E+10	1	-1E+10	1	-1E+10	1	-1E+10	1	-1E+10	1	-1E+10	1
4901784	41	C	08/18/2016	10:43	-132.540	45.047	0	860.00	0	3.7400	0	34.3140	0	27.273	0	851.251	0	11.5	4	3.6	4	-1E+10	1	-1E+10	1	-1E+10	1	-1E+10	1	-1E+10	1	-1E+10	1
4901784	41	C	08/18/2016	10:43	-132.540	45.047	0	865.40	0	3.7080	0	34.3160	0	27.278	0	856.585	0	11.6	4	3.6	4	-1E+10	1	-1E+10	1	-1E+10	1	-1E+10	1	-1E+10	1	-1E+10	1
4901784	41	C	08/18/2016	10:43	-132.540	45.047	0	870.40	0	3.6870	0	34.3190	0	27.282	0	861.524	0	11.6	4	3.6	4	-1E+10	1	-1E+10	1	-1E+10	1	-1E+10	1	-1E+10	1	-1E+10	1
4901784	41	C	08/18/2016	10:43	-132.540	45.047	0	875.30	0	3.6770	0	34.3220	0	27.286	0	866.363	0	11.5	4	3.6	4	-1E+10	1	-1E+10	1	-1E+10	1	-1E+10	1	-1E+10	1	-1E+10	1
4901784	41	C	08/18/2016	10:43	-132.540	45.047	0	880.10	0	3.6740	0	34.3230	0	27.287	0	871.104	0	11.5	4	3.6	4	-1E+10	1	-1E+10	1	-1E+10	1	-1E+10	1	-1E+10	1	-1E+10	1
4901784	41	C	08/18/2016	10:43	-132.540	45.047	0	885.00	0	3.6590	0	34.3260	0	27.291	0	875.944	0	11.5	4	3.6	4	-1E+10	1	-1E+10	1	-1E+10	1	-1E+10	1	-1E+10	1	-1E+10	1
4901784	41	C	08/18/2016	10:43	-132.540	45.047	0	890.00	0	3.6530	0	34.3280	0	27.293	0	880.882	0	11.5	4	3.6	4	-1E+10	1	-1E+10	1	-1E+10	1	-1E+10	1	-1E+10	1	-1E+10	1
4901784	41	C	08/18/2016	10:43	-132.540	45.047	0	895.00	0	3.6490	0	34.3310	0	27.296	0	885.821	0	11.4	4	3.6	4	-1E+10	1	-1E+10	1	-1E+10	1	-1E+10	1	-1E+10	1	-1E+10	1
4901784	41	C	08/18/2016	10:43	-132.540	45.047	0	899.90	0	3.6400	0	34.3350	0	27.300	0	890.660	0	11.4	4	3.6	4	-1E+10	1	-1E+10	1	-1E+10	1	-1E+10	1	-1E+10	1	-1E+10	1
4901784	41	C	08/18/2016	10:43	-132.540	45.047	0	904.90	0	3.6220	0	34.3350	0	27.302	0	895.598	0	11.5	4	3.6	4	-1E+10	1	-1E+10	1	-1E+10	1	-1E+10	1	-1E+10	1	-1E+10	1
4901784	41	C	08/18/2016	10:43	-132.540	45.047	0	909.90	0	3.6130	0	34.3360	0	27.303	0	900.536	0	11.5	4	3.6	4	-1E+10	1	-1E+10	1	-1E+10	1	-1E+10	1	-1E+10	1	-1E+10	1
4901784	41	C	08/18/2016	10:43	-132.540	45.047	0	915.00	0	3.6060	0	34.3360	0	27.304	0	905.572	0	11.5	4	3.6	4	-1E+10	1	-1E+10	1	-1E+10	1	-1E+10	1	-1E+10	1	-1E+10	1
4901784	41	C	08/18/2016	10:43	-132.540	45.047	0	920.20	0	3.5860	0	34.3390	0	27.309	0	910.707	0	11.5	4	3.6	4	-1E+10	1	-1E+10	1	-1E+10	1	-1E+10	1	-1E+10	1	-1E+10	1
4901784	41	C	08/18/2016	10:43	-132.540	45.047	0	925.40	0	3.5740	0	34.3420	0	27.312	0	915.842	0	11.5	4	3.6	4	-1E+10	1	-1E+10	1	-1E+10	1	-1E+10	1	-1E+10	1	-1E+10	1
4901784	41	C	08/18/2016	10:43	-132.540	45.047	0	929.90	0	3.5630	0	34.3450	0	27.316	0	920.286	0	11.5	4	3.6	4	-1E+10	1	-1E+10	1	-1E+10	1	-1E+10	1	-1E+10	1	-1E+10	1
4901784	41	C	08/18/2016	10:43	-132.540	45.047	0	934.30	0	3.5520	0	34.3480	0	27.319	0	924.631	0	11.5	4	3.6	4	-1E+10	1	-1E+10	1	-1E+10	1	-1E+10	1	-1E+10	1	-1E+10	1
4901784	41	C	08/18/2016	10:43	-132.540	45.047	0	939.60	0	3.5340	0	34.3550	0	27.326	0	929.864	0	11.6	4	3.6	4	-1E+10	1	-1E+10	1	-1E+10	1	-1E+10	1	-1E+10	1	-1E+10	1
4901784	41	C	08/18/2016	10:43	-132.540	45.047	0	944.90	0	3.5180	0	34.3580	0	27.330	0	935.097	0	11.6	4	3.6	4	-1E+10	1	-1E+10	1	-1E+10	1	-1E+10	1	-1E+10	1	-1E+10	1
4901784	41	C	08/18/2016	10:43	-132.540	45.047	0	950.30	0	3.5070	0	34.3600	0	27.333	0	940.429	0	11.6	4	3.6	4	-1E+10	1	-1E+10	1	-1E+10	1	-1E+10	1	-1E+10	1	-1E+10	1
4901784	41	C	08/18/2016	10:43	-132.540	45.047	0	954.90	0	3.5030	0	34.3610	0	27.334	0	944.971	0	11.6	4	3.6	4	-1E+10	1	-1E+10	1	-1E+10	1	-1E+10	1	-1E+10	1	-1E+10	1
4901784	41	C	08/18/2016	10:43	-132.540	45.047	0	959.30	0	3.4920	0	34.3640	0	27.338	0	949.315	0	11.7	4	3.6	4	-1E+10	1	-1E+10	1	-1E+10	1	-1E+10	1	-1E+10	1	-1E+10	1
4901784	41	C	08/18/2016	10:43	-132.540	45.047	0	964.70	0	3.4820	0	34.3660	0	27.340	0	954.647	0	11.8	4	3.7	4	-1E+10	1	-1E+10	1	-1E+10	1	-1E+10	1	-1E+10	1	-1E+10	1
4901784	41	C	08/18/2016	10:43	-132.540	45.047	0	970.10	0	3.4770	0	34.3710	0	27.345	0	959.978	0	11.8	4	3.7	4	-1E+10	1	-1E+10	1	-1E+10	1	-1E+10	1	-1E+10	1	-1E+10	1
4901784	41	C	08/18/2016	10:43	-132.540	45.047	0	975.60	0	3.4660	0	34.3730	0	27.348	0	965.408	0	11.8	4	3.7	4	-1E+10	1	-1E+10	1	-1E+10	1	-1E+10	1	-1E+10	1	-1E+10	1
4901784	41	C	08/18/2016	10:43	-132.540	45.047	0	980.10	0	3.4500	0	34.3740	0	27.350	0	969.851	0	11.9	4	3.7	4	-1E+10	1	-1E+10	1	-1E+10	1	-1E+10	1	-1E+10	1	-1E+10	1
4901784	41	C	08/18/2016	10:43	-132.540	45.047	0	984.80	0	3.4390	0	34.3770	0	27.353	0	974.491	0	12.0	4	3.7	4	-1E+10	1	-1E+10	1	-1E+10	1	-1E+10	1	-1E+10	1	-1E+10	1
4901784	41	C	08/18/2016	10:43	-132.540	45.047	0	990.40	0	3.4250	0	34.3810	0	27.358	0	980.019	0	12.1	4	3.8	4	-1E+10	1	-1E+10	1	-1E+10	1	-1E+10	1	-1E+10	1	-1E+10	1
4901784	41	C	08/18/2016	10:43	-132.540	45.047	0	995.00	0	3.4200	0	34.3840	0	27.361	0	984.560	0	12.3	4	3.8	4	-1E+10	1	-1E+10	1	-1E+10	1	-1E+10	1	-1E+10	1	-1E+10	1
4901784	41	C	08/18/2016	10:43	-132.540	45.047	0	999.70	0	3.4150	0	34.3870	0	27.364	0	989.199	0	12.5	4	3.9	4	-1E+10	1	-1E+10	1	-1E+10	1	-1E+10	1	-1E+10	1	-1E+10	1
4901784	41	C	08/18/2016	10:43	-132.540	45.047	0	1005.20	0	3.4140	0	34.3910	0	27.367	0	994.629	0	12.7	4	4.0	4	-1E+10	1	-1E+10	1	-1E+10	1	-1E+10	1	-1E+10	1	-1E+10	1
4901784	41	C	08/18/2016	10:43	-132.540	45.047	0	1010.60	0	3.4140	0	34.3940	0	27.370	0	999.959	0	12.8	4	4.0	4	-1E+10	1	-1E+10	1	-1E+10	1	-1E+10	1	-1E+10	1	-1E+10	1
4901784	41	C	08/18/2016	10:43	-132.540	45.047	0	1015.40	0	3.4030	0	34.3960	0	27.372	0	1004.697	0	12.7	4	4.0	4	-1E+10	1	-1E+10	1	-1E+10	1	-1E+10	1	-1E+10	1	-1E+10	1
4901784	41	C	08/18/2016	10:43	-132.540	45.047	0	1020.20	0	3.3930	0	34.3970	0	27.374	0	1009.435	0	12.7	4	4.0	4	-1E+10	1	-1E+10	1	-1E+10	1	-1E+10	1	-1E+10	1	-1E+10	1
4901784	41	C	08/18/2016	10:43	-132.540	45.047	0	1025.10	0	3.3860	0	34.3980	0	27.375	0	1014.271	0	12.6	4	3.9	4	-1E+10	1	-1E+10	1	-1E+10	1	-1E+10	1	-1E+10	1	-1E+10	1
4901784	41	C	08/18/2016	10:43	-132.540	45.047	0	1029.90	0	3.3730	0	34.3970	0	27.376	0	1019.009	0	12.5	4	3.9	4	-1E+10	1	-1E+10	1	-1E+10	1	-1E+10	1	-1E+10	1	-1E+10	1
4901784	41	C	08/18/2016	10:43	-132.540	45.047	0	1034.80	0	3.3570	0	34.3970	0	27.377	0	1023.845	0	12.5	4	3.9	4	-1E+10	1	-1E+10	1	-1E+10	1	-1E+10	1	-1E+10	1	-1E+10	1
4901784	41	C	08/18/2016	10:43	-132.540	45.047	0	1039.80	0	3.3570	0	34.3980	0	27.378	0	1028.780	0	12.6	4	3.9	4	-1E+10	1	-1E+10	1	-1E+10	1	-1E+10	1	-1E+10	1	-1E+10	1
4901784	41	C	08/18/2016	10:43	-132.540	45.047	0	1044.70	0	3.3550	0	34.4010	0	27.381	0	1033.616	0	12.7	4	4.0	4	-1E+10	1	-1E+10	1	-1E+10	1	-1E+10	1	-1E+10	1	-1E+10	1
4901784	41	C	08/18/2016	10:43	-132.540	45.047	0	1049.60	0	3.3340	0	34.4040	0	27.385	0	1038.452	0	12.6	4	3.9	4	-1E+10	1	-1E+10	1	-1E+10	1	-1E+10	1	-1E+10	1	-1E+10	1
4901784	41	C	08/18/2016	10:43	-132.540	45.047	0	1054.60	0	3.3190	0	34.4050	0	27.388	0	1043.386	0	12.6	4	3.9	4	-1E+10	1	-1E+10	1	-1E+10	1	-1E+10	1	-1E+10	1	-1E+10	1
4901784	41	C	08/18/2016	10:43	-132.540	45.047	0	1059.50	0	3.3110	0	34.4060	0	27.389	0	1048.222	0	12.6	4	3.9	4	-1E+10	1	-1E+10	1	-1E+10	1	-1E+10	1	-1E+10	1	-1E+10	1
4901784	41	C	08/18/2016	10:43	-132.540	45.047	0	1064.60	0	3.3060	0	34.4060	0	27.390	0	1053.255	0	12.6	4	3.9	4	-1E+10	1	-1E+10	1	-1E+10	1	-1E+10	1	-1E+10	1	-1E+10	1
4901784	41	C	08/18/2016	10:43	-132.540	45.047	0	1069.60	0	3.2980	0	34.4060	0	27.390	0	1058.189	0	12.6	4	3.9	4	-1E+10	1	-1E+10	1	-1E+10	1	-1E+10	1	-1E+10	1	-1E+10	1
4901784	41	C	08/18/2016	10:43	-132.540	45.047	0	1074.60	0	3.2740	0	34.4090	0	27.395	0	1063.123	0	12.7	4	3.9	4	-1E+10	1	-1E+10	1	-1E+10	1	-1E+10	1	-1E+10	1	-1E+10	1
4901784	41	C	08/18/2016	10:43	-132.540	45.047	0	1079.70	0	3.2590	0	34.4120	0	27.399	0	1068.155	0	12.8	4	4.0	4	-1E+10	1	-1E+10	1	-1E+10	1	-1E+10	1	-1E+10	1	-1E+10	1
4901784	41	C	08/18/2016	10:43	-132.540	45.047	0	1084.70	0	3.2490	0	34.4130	0	27.401	0	1073.089	0	12.9	4	4.0	4	-1E+10	1	-1E+10	1	-1E+10	1	-1E+10	1	-1E+10	1	-1E+10	1
4901784	41	C	08/18/2016	10:43	-132.540	45.047	0	1089.80	0	3.2380	0	34.4150	0	27.403	0	1078.122	0	13.0	4	4.0	4	-1E+10	1	-1E+10	1	-1E+10	1	-1E+10	1	-1E+10	1	-1E+10	1
4901784	41	C	08/18/2016	10:43	-132.540	45.047	0	1094.80	0	3.2280	0	34.4170	0	27.406	0	1083.055	0	13.1	4	4.1	4	-1E+10	1	-1E+10	1	-1E+10	1	-1E+10	1	-1E+10	1	-1E+10	1
4901784	41	C	08/18/2016	10:43	-132.540	45.047	0	1099.80	0	3.2120	0	34.4190	0	27.409	0	1087.989	0	13.2	4	4.1	4	-1E+10	1	-1E+10	1	-1E+10	1	-1E+10	1	-1E+10	1	-1E+10	1
4901784	41	C	08/18/2016	10:43	-132.540	45.047	0	1105.20	0	3.2000	0	34.4200	0	27.411	0	1093.316	0	13.3	4	4.1	4	-1E+10	1	-1E+10	1	-1E+10	1	-1E+10	1	-1E+10	1	-1E+10	1
4901784	41	C	08/18/2016	10:43	-132.540	45.047	0	1109.90	0	3.1880	0	34.4220	0	27.414	0	1097.954	0	13.4	4	4.1	4	-1E+10	1	-1E+10	1	-1E+10	1	-1E+10	1	-1E+10	1	-1E+10	1
4901784	41	C	08/18/2016	10:43	-132.540	45.047	0	1114.60	0	3.1740	0	34.4230	0	27.416	0	1102.591	0	13.5	4	4.2	4	-1E+10	1	-1E+10	1	-1E+10	1	-1E+10	1	-1E+10	1	-1E+10	1
4901784	41	C	08/18/2016	10:43	-132.540	45.047	0	1120.10	0	3.1610	0	34.4260	0	27.419	0	1108.017	0	13.7	4	4.3	4	-1E+10	1	-1E+10	1	-1E+10	1	-1E+10	1	-1E+10	1	-1E+10	1
4901784	41	C	08/18/2016	10:43	-132.540	45.047	0	1124.80	0	3.1610	0	34.4280	0	27.421	0	1112.654	0	13.8	4	4.3	4	-1E+10	1	-1E+10	1	-1E+10	1	-1E+10	1	-1E+10	1	-1E+10	1
4901784	41	C	08/18/2016	10:43	-132.540	45.047	0	1129.50	0	3.1560	0	34.4280	0	27.421	0	1117.291	0	13.9	4	4.3	4	-1E+10	1	-1E+10	1	-1E+10	1	-1E+10	1	-1E+10	1	-1E+10	1
4901784	41	C	08/18/2016	10:43	-132.540	45.047	0	1135.10	0	3.1430	0	34.4300	0	27.424	0	1122.815	0	14.0	4	4.3	4	-1E+10	1	-1E+10	1	-1E+10	1	-1E+10	1	-1E+10	1	-1E+10	1
4901784	41	C	08/18/2016	10:43	-132.540	45.047	0	1139.80	0	3.1360	0	34.4320	0	27.427	0	1127.452	0	14.1	4	4.4	4	-1E+10	1	-1E+10	1	-1E+10	1	-1E+10	1	-1E+10	1	-1E+10	1
4901784	41	C	08/18/2016	10:43	-132.540	45.047	0	1144.60	0	3.1270	0	34.4320	0	27.427	0	1132.187	0	14.1	4	4.4	4	-1E+10	1	-1E+10	1	-1E+10	1	-1E+10	1	-1E+10	1	-1E+10	1
4901784	41	C	08/18/2016	10:43	-132.540	45.047	0	1150.20	0	3.1150	0	34.4330	0	27.429	0	1137.711	0	14.2	4	4.4	4	-1E+10	1	-1E+10	1	-1E+10	1	-1E+10	1	-1E+10	1	-1E+10	1
4901784	41	C	08/18/2016	10:43	-132.540	45.047	0	1155.00	0	3.1070	0	34.4340	0	27.431	0	1142.446	0	14.3	4	4.4	4	-1E+10	1	-1E+10	1	-1E+10	1	-1E+10	1	-1E+10	1	-1E+10	1
4901784	41	C	08/18/2016	10:43	-132.540	45.047	0	1159.70	0	3.0970	0	34.4350	0	27.433	0	1147.082	0	14.4	4	4.5	4	-1E+10	1	-1E+10	1	-1E+10	1	-1E+10	1	-1E+10	1	-1E+10	1
4901784	41	C	08/18/2016	10:43	-132.540	45.047	0	1165.40	0	3.0860	0	34.4370	0	27.435	0	1152.704	0	14.5	4	4.5	4	-1E+10	1	-1E+10	1	-1E+10	1	-1E+10	1	-1E+10	1	-1E+10	1
4901784	41	C	08/18/2016	10:43	-132.540	45.047	0	1170.30	0	3.0740	0	34.4390	0	27.438	0	1157.537	0	14.7	4	4.6	4	-1E+10	1	-1E+10	1	-1E+10	1	-1E+10	1	-1E+10	1	-1E+10	1
4901784	41	C	08/18/2016	10:43	-132.540	45.047	0	1175.10	0	3.0650	0	34.4400	0	27.440	0	1162.272	0	14.9	4	4.6	4	-1E+10	1	-1E+10	1	-1E+10	1	-1E+10	1	-1E+10	1	-1E+10	1
4901784	41	C	08/18/2016	10:43	-132.540	45.047	0	1179.80	0	3.0570	0	34.4420	0	27.442	0	1166.907	0	15.0	4	4.6	4	-1E+10	1	-1E+10	1	-1E+10	1	-1E+10	1	-1E+10	1	-1E+10	1
4901784	41	C	08/18/2016	10:43	-132.540	45.047	0	1184.70	0	3.0530	0	34.4430	0	27.443	0	1171.740	0	15.1	4	4.7	4	-1E+10	1	-1E+10	1	-1E+10	1	-1E+10	1	-1E+10	1	-1E+10	1
4901784	41	C	08/18/2016	10:43	-132.540	45.047	0	1190.50	0	3.0490	0	34.4440	0	27.444	0	1177.460	0	15.1	4	4.7	4	-1E+10	1	-1E+10	1	-1E+10	1	-1E+10	1	-1E+10	1	-1E+10	1
4901784	41	C	08/18/2016	10:43	-132.540	45.047	0	1195.40	0	3.0440	0	34.4450	0	27.446	0	1182.293	0	15.2	4	4.7	4	-1E+10	1	-1E+10	1	-1E+10	1	-1E+10	1	-1E+10	1	-1E+10	1
4901784	41	C	08/18/2016	10:43	-132.540	45.047	0	1200.30	0	3.0380	0	34.4460	0	27.447	0	1187.125	0	15.4	4	4.7	4	-1E+10	1	-1E+10	1	-1E+10	1	-1E+10	1	-1E+10	1	-1E+10	1
4901784	41	C	08/18/2016	10:43	-132.540	45.047	0	1205.20	0	3.0290	0	34.4470	0	27.449	0	1191.958	0	15.5	4	4.8	4	-1E+10	1	-1E+10	1	-1E+10	1	-1E+10	1	-1E+10	1	-1E+10	1
4901784	41	C	08/18/2016	10:43	-132.540	45.047	0	1210.20	0	3.0190	0	34.4480	0	27.450	0	1196.888	0	15.7	4	4.9	4	-1E+10	1	-1E+10	1	-1E+10	1	-1E+10	1	-1E+10	1	-1E+10	1
4901784	41	C	08/18/2016	10:43	-132.540	45.047	0	1215.20	0	3.0080	0	34.4510	0	27.454	0	1201.819	0	15.9	4	4.9	4	-1E+10	1	-1E+10	1	-1E+10	1	-1E+10	1	-1E+10	1	-1E+10	1
4901784	41	C	08/18/2016	10:43	-132.540	45.047	0	1220.20	0	2.9990	0	34.4520	0	27.455	0	1206.750	0	16.0	4	5.0	4	-1E+10	1	-1E+10	1	-1E+10	1	-1E+10	1	-1E+10	1	-1E+10	1
4901784	41	C	08/18/2016	10:43	-132.540	45.047	0	1225.20	0	2.9870	0	34.4530	0	27.457	0	1211.680	0	16.2	4	5.0	4	-1E+10	1	-1E+10	1	-1E+10	1	-1E+10	1	-1E+10	1	-1E+10	1
4901784	41	C	08/18/2016	10:43	-132.540	45.047	0	1230.10	0	2.9770	0	34.4540	0	27.459	0	1216.512	0	16.4	4	5.0	4	-1E+10	1	-1E+10	1	-1E+10	1	-1E+10	1	-1E+10	1	-1E+10	1
4901784	41	C	08/18/2016	10:43	-132.540	45.047	0	1235.00	0	2.9640	0	34.4570	0	27.463	0	1221.344	0	16.6	4	5.1	4	-1E+10	1	-1E+10	1	-1E+10	1	-1E+10	1	-1E+10	1	-1E+10	1
4901784	41	C	08/18/2016	10:43	-132.540	45.047	0	1239.60	0	2.9510	0	34.4590	0	27.465	0	1225.880	0	16.8	4	5.2	4	-1E+10	1	-1E+10	1	-1E+10	1	-1E+10	1	-1E+10	1	-1E+10	1
4901784	41	C	08/18/2016	10:43	-132.540	45.047	0	1245.10	0	2.9400	0	34.4610	0	27.468	0	1231.303	0	17.1	4	5.3	4	-1E+10	1	-1E+10	1	-1E+10	1	-1E+10	1	-1E+10	1	-1E+10	1
4901784	41	C	08/18/2016	10:43	-132.540	45.047	0	1249.70	0	2.9300	0	34.4630	0	27.471	0	1235.838	0	17.4	4	5.3	4	-1E+10	1	-1E+10	1	-1E+10	1	-1E+10	1	-1E+10	1	-1E+10	1
4901784	41	C	08/18/2016	10:43	-132.540	45.047	0	1254.20	0	2.9270	0	34.4640	0	27.472	0	1240.275	0	17.6	4	5.4	4	-1E+10	1	-1E+10	1	-1E+10	1	-1E+10	1	-1E+10	1	-1E+10	1
4901784	41	C	08/18/2016	10:43	-132.540	45.047	0	1259.50	0	2.9160	0	34.4670	0	27.475	0	1245.500	0	17.9	4	5.5	4	-1E+10	1	-1E+10	1	-1E+10	1	-1E+10	1	-1E+10	1	-1E+10	1
4901784	41	C	08/18/2016	10:43	-132.540	45.047	0	1265.10	0	2.9080	0	34.4690	0	27.477	0	1251.022	0	18.1	4	5.6	4	-1E+10	1	-1E+10	1	-1E+10	1	-1E+10	1	-1E+10	1	-1E+10	1
4901784	41	C	08/18/2016	10:43	-132.540	45.047	0	1270.70	0	2.9050	0	34.4700	0	27.479	0	1256.542	0	18.4	4	5.7	4	-1E+10	1	-1E+10	1	-1E+10	1	-1E+10	1	-1E+10	1	-1E+10	1
4901784	41	C	08/18/2016	10:43	-132.540	45.047	0	1275.60	0	2.9040	0	34.4700	0	27.479	0	1261.373	0	18.7	4	5.8	4	-1E+10	1	-1E+10	1	-1E+10	1	-1E+10	1	-1E+10	1	-1E+10	1
4901784	41	C	08/18/2016	10:43	-132.540	45.047	0	1280.50	0	2.9050	0	34.4740	0	27.482	0	1266.204	0	19.3	4	5.9	4	-1E+10	1	-1E+10	1	-1E+10	1	-1E+10	1	-1E+10	1	-1E+10	1
4901784	41	C	08/18/2016	10:43	-132.540	45.047	0	1285.40	0	2.9030	0	34.4760	0	27.484	0	1271.034	0	19.4	4	6.0	4	-1E+10	1	-1E+10	1	-1E+10	1	-1E+10	1	-1E+10	1	-1E+10	1
4901784	41	C	08/18/2016	10:43	-132.540	45.047	0	1290.30	0	2.8960	0	34.4760	0	27.484	0	1275.865	0	19.7	4	6.1	4	-1E+10	1	-1E+10	1	-1E+10	1	-1E+10	1	-1E+10	1	-1E+10	1
4901784	41	C	08/18/2016	10:43	-132.540	45.047	0	1295.30	0	2.8860	0	34.4790	0	27.488	0	1280.794	0	19.9	4	6.1	4	-1E+10	1	-1E+10	1	-1E+10	1	-1E+10	1	-1E+10	1	-1E+10	1
4901784	41	C	08/18/2016	10:43	-132.540	45.047	0	1300.20	0	2.8880	0	34.4790	0	27.487	0	1285.624	0	20.1	4	6.2	4	-1E+10	1	-1E+10	1	-1E+10	1	-1E+10	1	-1E+10	1	-1E+10	1
4901784	41	C	08/18/2016	10:43	-132.540	45.047	0	1305.20	0	2.8760	0	34.4810	0	27.490	0	1290.552	0	20.1	4	6.2	4	-1E+10	1	-1E+10	1	-1E+10	1	-1E+10	1	-1E+10	1	-1E+10	1
4901784	41	C	08/18/2016	10:43	-132.540	45.047	0	1310.20	0	2.8530	0	34.4810	0	27.492	0	1295.481	0	20.4	4	6.3	4	-1E+10	1	-1E+10	1	-1E+10	1	-1E+10	1	-1E+10	1	-1E+10	1
4901784	41	C	08/18/2016	10:43	-132.540	45.047	0	1315.20	0	2.8620	0	34.4840	0	27.494	0	1300.409	0	21.0	4	6.5	4	-1E+10	1	-1E+10	1	-1E+10	1	-1E+10	1	-1E+10	1	-1E+10	1
4901784	41	C	08/18/2016	10:43	-132.540	45.047	0	1320.30	0	2.8590	0	34.4860	0	27.496	0	1305.436	0	21.2	4	6.5	4	-1E+10	1	-1E+10	1	-1E+10	1	-1E+10	1	-1E+10	1	-1E+10	1
4901784	41	C	08/18/2016	10:43	-132.540	45.047	0	1325.30	0	2.8510	0	34.4870	0	27.497	0	1310.364	0	21.4	4	6.6	4	-1E+10	1	-1E+10	1	-1E+10	1	-1E+10	1	-1E+10	1	-1E+10	1
4901784	41	C	08/18/2016	10:43	-132.540	45.047	0	1330.50	0	2.8400	0	34.4880	0	27.499	0	1315.490	0	21.7	4	6.7	4	-1E+10	1	-1E+10	1	-1E+10	1	-1E+10	1	-1E+10	1	-1E+10	1
4901784	41	C	08/18/2016	10:43	-132.540	45.047	0	1335.70	0	2.8340	0	34.4900	0	27.501	0	1320.615	0	22.0	4	6.8	4	-1E+10	1	-1E+10	1	-1E+10	1	-1E+10	1	-1E+10	1	-1E+10	1
4901784	41	C	08/18/2016	10:43	-132.540	45.047	0	1340.10	0	2.8300	0	34.4910	0	27.502	0	1324.951	0	22.3	4	6.9	4	-1E+10	1	-1E+10	1	-1E+10	1	-1E+10	1	-1E+10	1	-1E+10	1
4901784	41	C	08/18/2016	10:43	-132.540	45.047	0	1344.50	0	2.8200	0	34.4930	0	27.505	0	1329.288	0	22.6	4	7.0	4	-1E+10	1	-1E+10	1	-1E+10	1	-1E+10	1	-1E+10	1	-1E+10	1
4901784	41	C	08/18/2016	10:43	-132.540	45.047	0	1349.80	0	2.8100	0	34.4950	0	27.507	0	1334.511	0	22.8	4	7.0	4	-1E+10	1	-1E+10	1	-1E+10	1	-1E+10	1	-1E+10	1	-1E+10	1
4901784	41	C	08/18/2016	10:43	-132.540	45.047	0	1355.10	0	2.8020	0	34.4960	0	27.509	0	1339.734	0	23.0	4	7.1	4	-1E+10	1	-1E+10	1	-1E+10	1	-1E+10	1	-1E+10	1	-1E+10	1
4901784	41	C	08/18/2016	10:43	-132.540	45.047	0	1360.40	0	2.7930	0	34.4970	0	27.511	0	1344.957	0	23.3	4	7.2	4	-1E+10	1	-1E+10	1	-1E+10	1	-1E+10	1	-1E+10	1	-1E+10	1
4901784	41	C	08/18/2016	10:43	-132.540	45.047	0	1364.90	0	2.7780	0	34.4990	0	27.513	0	1349.391	0	23.4	4	7.2	4	-1E+10	1	-1E+10	1	-1E+10	1	-1E+10	1	-1E+10	1	-1E+10	1
4901784	41	C	08/18/2016	10:43	-132.540	45.047	0	1369.30	0	2.7730	0	34.4990	0	27.514	0	1353.727	0	23.6	4	7.2	4	-1E+10	1	-1E+10	1	-1E+10	1	-1E+10	1	-1E+10	1	-1E+10	1
4901784	41	C	08/18/2016	10:43	-132.540	45.047	0	1374.70	0	2.7650	0	34.5000	0	27.515	0	1359.049	0	23.8	4	7.3	4	-1E+10	1	-1E+10	1	-1E+10	1	-1E+10	1	-1E+10	1	-1E+10	1
4901784	41	C	08/18/2016	10:43	-132.540	45.047	0	1380.10	0	2.7580	0	34.5010	0	27.517	0	1364.370	0	24.0	4	7.4	4	-1E+10	1	-1E+10	1	-1E+10	1	-1E+10	1	-1E+10	1	-1E+10	1
4901784	41	C	08/18/2016	10:43	-132.540	45.047	0	1385.40	0	2.7490	0	34.5020	0	27.519	0	1369.592	0	24.3	4	7.5	4	-1E+10	1	-1E+10	1	-1E+10	1	-1E+10	1	-1E+10	1	-1E+10	1
4901784	41	C	08/18/2016	10:43	-132.540	45.047	0	1389.90	0	2.7390	0	34.5030	0	27.520	0	1374.026	0	24.4	4	7.5	4	-1E+10	1	-1E+10	1	-1E+10	1	-1E+10	1	-1E+10	1	-1E+10	1
4901784	41	C	08/18/2016	10:43	-132.540	45.047	0	1394.30	0	2.7220	0	34.5040	0	27.523	0	1378.361	0	24.5	4	7.5	4	-1E+10	1	-1E+10	1	-1E+10	1	-1E+10	1	-1E+10	1	-1E+10	1
4901784	41	C	08/18/2016	10:43	-132.540	45.047	0	1399.70	0	2.7100	0	34.5040	0	27.524	0	1383.682	0	24.5	4	7.5	4	-1E+10	1	-1E+10	1	-1E+10	1	-1E+10	1	-1E+10	1	-1E+10	1
4901784	41	C	08/18/2016	10:43	-132.540	45.047	0	1405.20	0	2.7000	0	34.5050	0	27.525	0	1389.101	0	24.5	4	7.5	4	-1E+10	1	-1E+10	1	-1E+10	1	-1E+10	1	-1E+10	1	-1E+10	1
4901784	41	C	08/18/2016	10:43	-132.540	45.047	0	1410.60	0	2.6830	0	34.5050	0	27.527	0	1394.421	0	24.5	4	7.5	4	-1E+10	1	-1E+10	1	-1E+10	1	-1E+10	1	-1E+10	1	-1E+10	1
4901784	41	C	08/18/2016	10:43	-132.540	45.047	0	1415.20	0	2.6770	0	34.5050	0	27.527	0	1398.953	0	24.5	4	7.5	4	-1E+10	1	-1E+10	1	-1E+10	1	-1E+10	1	-1E+10	1	-1E+10	1
4901784	41	C	08/18/2016	10:43	-132.540	45.047	0	1419.80	0	2.6620	0	34.5040	0	27.528	0	1403.485	0	24.5	4	7.5	4	-1E+10	1	-1E+10	1	-1E+10	1	-1E+10	1	-1E+10	1	-1E+10	1
4901784	41	C	08/18/2016	10:43	-132.540	45.047	0	1425.30	0	2.6450	0	34.5050	0	27.530	0	1408.904	0	24.7	4	7.6	4	-1E+10	1	-1E+10	1	-1E+10	1	-1E+10	1	-1E+10	1	-1E+10	1
4901784	41	C	08/18/2016	10:43	-132.540	45.047	0	1430.00	0	2.6390	0	34.5060	0	27.531	0	1413.534	0	25.0	4	7.6	4	-1E+10	1	-1E+10	1	-1E+10	1	-1E+10	1	-1E+10	1	-1E+10	1
4901784	41	C	08/18/2016	10:43	-132.540	45.047	0	1434.60	0	2.6340	0	34.5070	0	27.533	0	1418.065	0	25.2	4	7.7	4	-1E+10	1	-1E+10	1	-1E+10	1	-1E+10	1	-1E+10	1	-1E+10	1
4901784	41	C	08/18/2016	10:43	-132.540	45.047	0	1439.80	0	2.6270	0	34.5080	0	27.534	0	1423.188	0	25.4	4	7.8	4	-1E+10	1	-1E+10	1	-1E+10	1	-1E+10	1	-1E+10	1	-1E+10	1
4901784	41	C	08/18/2016	10:43	-132.540	45.047	0	1445.00	0	2.6160	0	34.5090	0	27.536	0	1428.310	0	25.6	4	7.8	4	-1E+10	1	-1E+10	1	-1E+10	1	-1E+10	1	-1E+10	1	-1E+10	1
4901784	41	C	08/18/2016	10:43	-132.540	45.047	0	1450.60	0	2.6040	0	34.5100	0	27.538	0	1433.827	0	26.0	4	8.0	4	-1E+10	1	-1E+10	1	-1E+10	1	-1E+10	1	-1E+10	1	-1E+10	1
4901784	41	C	08/18/2016	10:43	-132.540	45.047	0	1455.60	0	2.5960	0	34.5120	0	27.540	0	1438.752	0	26.4	4	8.1	4	-1E+10	1	-1E+10	1	-1E+10	1	-1E+10	1	-1E+10	1	-1E+10	1
4901784	41	C	08/18/2016	10:43	-132.540	45.047	0	1460.60	0	2.5880	0	34.5120	0	27.541	0	1443.677	0	26.5	4	8.1	4	-1E+10	1	-1E+10	1	-1E+10	1	-1E+10	1	-1E+10	1	-1E+10	1
4901784	41	C	08/18/2016	10:43	-132.540	45.047	0	1465.60	0	2.5790	0	34.5130	0	27.542	0	1448.602	0	26.7	4	8.2	4	-1E+10	1	-1E+10	1	-1E+10	1	-1E+10	1	-1E+10	1	-1E+10	1
4901784	41	C	08/18/2016	10:43	-132.540	45.047	0	1470.60	0	2.5620	0	34.5140	0	27.545	0	1453.527	0	26.9	4	8.2	4	-1E+10	1	-1E+10	1	-1E+10	1	-1E+10	1	-1E+10	1	-1E+10	1
4901784	41	C	08/18/2016	10:43	-132.540	45.047	0	1475.70	0	2.5510	0	34.5150	0	27.546	0	1458.550	0	27.1	4	8.3	4	-1E+10	1	-1E+10	1	-1E+10	1	-1E+10	1	-1E+10	1	-1E+10	1
4901784	41	C	08/18/2016	10:43	-132.540	45.047	0	1480.70	0	2.5330	0	34.5160	0	27.549	0	1463.474	0	27.2	4	8.3	4	-1E+10	1	-1E+10	1	-1E+10	1	-1E+10	1	-1E+10	1	-1E+10	1
4901784	41	C	08/18/2016	10:43	-132.540	45.047	0	1484.90	0	2.5230	0	34.5170	0	27.550	0	1467.611	0	27.3	4	8.3	4	-1E+10	1	-1E+10	1	-1E+10	1	-1E+10	1	-1E+10	1	-1E+10	1
4901784	41	C	08/18/2016	10:43	-132.540	45.047	0	1489.20	0	2.5190	0	34.5170	0	27.551	0	1471.846	0	27.4	4	8.4	4	-1E+10	1	-1E+10	1	-1E+10	1	-1E+10	1	-1E+10	1	-1E+10	1
4901784	41	C	08/18/2016	10:43	-132.540	45.047	0	1494.40	0	2.5100	0	34.5170	0	27.551	0	1476.967	0	27.6	4	8.4	4	-1E+10	1	-1E+10	1	-1E+10	1	-1E+10	1	-1E+10	1	-1E+10	1
4901784	41	C	08/18/2016	10:43	-132.540	45.047	0	1499.60	0	2.4980	0	34.5180	0	27.553	0	1482.088	0	27.8	4	8.5	4	-1E+10	1	-1E+10	1	-1E+10	1	-1E+10	1	-1E+10	1	-1E+10	1
4901784	41	C	08/18/2016	10:43	-132.540	45.047	0	1504.80	0	2.4890	0	34.5190	0	27.555	0	1487.209	0	28.1	4	8.6	4	-1E+10	1	-1E+10	1	-1E+10	1	-1E+10	1	-1E+10	1	-1E+10	1
4901784	41	C	08/18/2016	10:43	-132.540	45.047	0	1509.90	0	2.4810	0	34.5200	0	27.556	0	1492.232	0	28.3	4	8.6	4	-1E+10	1	-1E+10	1	-1E+10	1	-1E+10	1	-1E+10	1	-1E+10	1
4901784	41	C	08/18/2016	10:43	-132.540	45.047	0	1515.20	0	2.4740	0	34.5210	0	27.558	0	1497.451	0	28.5	4	8.7	4	-1E+10	1	-1E+10	1	-1E+10	1	-1E+10	1	-1E+10	1	-1E+10	1
4901784	41	C	08/18/2016	10:43	-132.540	45.047	0	1520.50	0	2.4630	0	34.5220	0	27.560	0	1502.670	0	28.7	4	8.8	4	-1E+10	1	-1E+10	1	-1E+10	1	-1E+10	1	-1E+10	1	-1E+10	1
4901784	41	C	08/18/2016	10:43	-132.540	45.047	0	1525.80	0	2.4590	0	34.5220	0	27.560	0	1507.889	0	29.0	4	8.8	4	-1E+10	1	-1E+10	1	-1E+10	1	-1E+10	1	-1E+10	1	-1E+10	1
4901784	41	C	08/18/2016	10:43	-132.540	45.047	0	1530.10	0	2.4560	0	34.5230	0	27.561	0	1512.123	0	29.2	4	8.9	4	-1E+10	1	-1E+10	1	-1E+10	1	-1E+10	1	-1E+10	1	-1E+10	1
4901784	41	C	08/18/2016	10:43	-132.540	45.047	0	1534.60	0	2.4420	0	34.5240	0	27.563	0	1516.554	0	29.6	4	9.0	4	-1E+10	1	-1E+10	1	-1E+10	1	-1E+10	1	-1E+10	1	-1E+10	1
4901784	41	C	08/18/2016	10:43	-132.540	45.047	0	1540.00	0	2.4360	0	34.5250	0	27.564	0	1521.871	0	29.9	4	9.1	4	-1E+10	1	-1E+10	1	-1E+10	1	-1E+10	1	-1E+10	1	-1E+10	1
4901784	41	C	08/18/2016	10:43	-132.540	45.047	0	1545.40	0	2.4250	0	34.5260	0	27.566	0	1527.188	0	30.2	4	9.2	4	-1E+10	1	-1E+10	1	-1E+10	1	-1E+10	1	-1E+10	1	-1E+10	1
4901784	41	C	08/18/2016	10:43	-132.540	45.047	0	1549.90	0	2.4150	0	34.5270	0	27.568	0	1531.619	0	30.4	4	9.3	4	-1E+10	1	-1E+10	1	-1E+10	1	-1E+10	1	-1E+10	1	-1E+10	1
4901784	41	C	08/18/2016	10:43	-132.540	45.047	0	1554.40	0	2.4050	0	34.5280	0	27.569	0	1536.049	0	30.6	4	9.3	4	-1E+10	1	-1E+10	1	-1E+10	1	-1E+10	1	-1E+10	1	-1E+10	1
4901784	41	C	08/18/2016	10:43	-132.540	45.047	0	1559.90	0	2.4020	0	34.5280	0	27.570	0	1541.464	0	30.8	4	9.4	4	-1E+10	1	-1E+10	1	-1E+10	1	-1E+10	1	-1E+10	1	-1E+10	1
4901784	41	C	08/18/2016	10:43	-132.540	45.047	0	1565.30	0	2.3960	0	34.5290	0	27.571	0	1546.781	0	31.2	4	9.5	4	-1E+10	1	-1E+10	1	-1E+10	1	-1E+10	1	-1E+10	1	-1E+10	1
4901784	41	C	08/18/2016	10:43	-132.540	45.047	0	1569.90	0	2.3910	0	34.5300	0	27.572	0	1551.310	0	31.5	4	9.6	4	-1E+10	1	-1E+10	1	-1E+10	1	-1E+10	1	-1E+10	1	-1E+10	1
4901784	41	C	08/18/2016	10:43	-132.540	45.047	0	1575.10	0	2.3840	0	34.5320	0	27.574	0	1556.429	0	32.1	4	9.8	4	-1E+10	1	-1E+10	1	-1E+10	1	-1E+10	1	-1E+10	1	-1E+10	1
4901784	41	C	08/18/2016	10:43	-132.540	45.047	0	1580.10	0	2.3770	0	34.5340	0	27.577	0	1561.351	0	32.4	4	9.9	4	-1E+10	1	-1E+10	1	-1E+10	1	-1E+10	1	-1E+10	1	-1E+10	1
4901784	41	C	08/18/2016	10:43	-132.540	45.047	0	1585.00	0	2.3700	0	34.5340	0	27.577	0	1566.175	0	32.6	4	9.9	4	-1E+10	1	-1E+10	1	-1E+10	1	-1E+10	1	-1E+10	1	-1E+10	1
4901784	41	C	08/18/2016	10:43	-132.540	45.047	0	1589.90	0	2.3610	0	34.5340	0	27.578	0	1570.999	0	32.8	4	10.0	4	-1E+10	1	-1E+10	1	-1E+10	1	-1E+10	1	-1E+10	1	-1E+10	1
4901784	41	C	08/18/2016	10:43	-132.540	45.047	0	1594.70	0	2.3580	0	34.5360	0	27.580	0	1575.724	0	33.1	4	10.1	4	-1E+10	1	-1E+10	1	-1E+10	1	-1E+10	1	-1E+10	1	-1E+10	1
4901784	41	C	08/18/2016	10:43	-132.540	45.047	0	1599.60	0	2.3530	0	34.5370	0	27.581	0	1580.547	0	33.3	4	10.1	4	-1E+10	1	-1E+10	1	-1E+10	1	-1E+10	1	-1E+10	1	-1E+10	1
4901784	41	C	08/18/2016	10:43	-132.540	45.047	0	1604.50	0	2.3460	0	34.5370	0	27.582	0	1585.370	0	33.5	4	10.2	4	-1E+10	1	-1E+10	1	-1E+10	1	-1E+10	1	-1E+10	1	-1E+10	1
4901784	41	C	08/18/2016	10:43	-132.540	45.047	0	1609.50	0	2.3440	0	34.5370	0	27.582	0	1590.292	0	33.7	4	10.2	4	-1E+10	1	-1E+10	1	-1E+10	1	-1E+10	1	-1E+10	1	-1E+10	1
4901784	41	C	08/18/2016	10:43	-132.540	45.047	0	1614.40	0	2.3360	0	34.5380	0	27.583	0	1595.115	0	33.9	4	10.3	4	-1E+10	1	-1E+10	1	-1E+10	1	-1E+10	1	-1E+10	1	-1E+10	1
4901784	41	C	08/18/2016	10:43	-132.540	45.047	0	1619.30	0	2.3270	0	34.5390	0	27.585	0	1599.938	0	34.2	4	10.4	4	-1E+10	1	-1E+10	1	-1E+10	1	-1E+10	1	-1E+10	1	-1E+10	1
4901784	41	C	08/18/2016	10:43	-132.540	45.047	0	1624.30	0	2.3220	0	34.5400	0	27.586	0	1604.859	0	34.6	4	10.5	4	-1E+10	1	-1E+10	1	-1E+10	1	-1E+10	1	-1E+10	1	-1E+10	1
4901784	41	C	08/18/2016	10:43	-132.540	45.047	0	1629.20	0	2.3160	0	34.5410	0	27.587	0	1609.682	0	34.9	4	10.6	4	-1E+10	1	-1E+10	1	-1E+10	1	-1E+10	1	-1E+10	1	-1E+10	1
4901784	41	C	08/18/2016	10:43	-132.540	45.047	0	1634.20	0	2.3100	0	34.5420	0	27.589	0	1614.603	0	35.2	4	10.7	4	-1E+10	1	-1E+10	1	-1E+10	1	-1E+10	1	-1E+10	1	-1E+10	1
4901784	41	C	08/18/2016	10:43	-132.540	45.047	0	1639.30	0	2.2980	0	34.5430	0	27.591	0	1619.623	0	35.5	4	10.8	4	-1E+10	1	-1E+10	1	-1E+10	1	-1E+10	1	-1E+10	1	-1E+10	1
4901784	41	C	08/18/2016	10:43	-132.540	45.047	0	1644.40	0	2.2890	0	34.5430	0	27.591	0	1624.642	0	35.8	4	10.9	4	-1E+10	1	-1E+10	1	-1E+10	1	-1E+10	1	-1E+10	1	-1E+10	1
4901784	41	C	08/18/2016	10:43	-132.540	45.047	0	1649.50	0	2.2810	0	34.5440	0	27.593	0	1629.661	0	36.2	4	11.0	4	-1E+10	1	-1E+10	1	-1E+10	1	-1E+10	1	-1E+10	1	-1E+10	1
4901784	41	C	08/18/2016	10:43	-132.540	45.047	0	1654.60	0	2.2710	0	34.5450	0	27.594	0	1634.680	0	36.5	4	11.1	4	-1E+10	1	-1E+10	1	-1E+10	1	-1E+10	1	-1E+10	1	-1E+10	1
4901784	41	C	08/18/2016	10:43	-132.540	45.047	0	1659.90	0	2.2630	0	34.5460	0	27.596	0	1639.896	0	36.8	4	11.2	4	-1E+10	1	-1E+10	1	-1E+10	1	-1E+10	1	-1E+10	1	-1E+10	1
4901784	41	C	08/18/2016	10:43	-132.540	45.047	0	1665.10	0	2.2540	0	34.5470	0	27.597	0	1645.013	0	37.2	4	11.3	4	-1E+10	1	-1E+10	1	-1E+10	1	-1E+10	1	-1E+10	1	-1E+10	1
4901784	41	C	08/18/2016	10:43	-132.540	45.047	0	1670.50	0	2.2480	0	34.5480	0	27.599	0	1650.327	0	37.5	4	11.4	4	-1E+10	1	-1E+10	1	-1E+10	1	-1E+10	1	-1E+10	1	-1E+10	1
4901784	41	C	08/18/2016	10:43	-132.540	45.047	0	1674.90	0	2.2440	0	34.5490	0	27.600	0	1654.656	0	37.7	4	11.4	4	-1E+10	1	-1E+10	1	-1E+10	1	-1E+10	1	-1E+10	1	-1E+10	1
4901784	41	C	08/18/2016	10:43	-132.540	45.047	0	1679.30	0	2.2410	0	34.5490	0	27.600	0	1658.986	0	37.9	4	11.5	4	-1E+10	1	-1E+10	1	-1E+10	1	-1E+10	1	-1E+10	1	-1E+10	1
4901784	41	C	08/18/2016	10:43	-132.540	45.047	0	1684.70	0	2.2350	0	34.5500	0	27.602	0	1664.299	0	38.4	4	11.6	4	-1E+10	1	-1E+10	1	-1E+10	1	-1E+10	1	-1E+10	1	-1E+10	1
4901784	41	C	08/18/2016	10:43	-132.540	45.047	0	1690.10	0	2.2300	0	34.5510	0	27.603	0	1669.613	0	38.9	4	11.8	4	-1E+10	1	-1E+10	1	-1E+10	1	-1E+10	1	-1E+10	1	-1E+10	1
4901784	41	C	08/18/2016	10:43	-132.540	45.047	0	1695.40	0	2.2190	0	34.5530	0	27.605	0	1674.828	0	39.4	4	11.9	4	-1E+10	1	-1E+10	1	-1E+10	1	-1E+10	1	-1E+10	1	-1E+10	1
4901784	41	C	08/18/2016	10:43	-132.540	45.047	0	1699.80	0	2.2130	0	34.5540	0	27.607	0	1679.157	0	39.7	4	12.0	4	-1E+10	1	-1E+10	1	-1E+10	1	-1E+10	1	-1E+10	1	-1E+10	1
4901784	41	C	08/18/2016	10:43	-132.540	45.047	0	1704.30	0	2.2090	0	34.5540	0	27.607	0	1683.584	0	40.0	4	12.1	4	-1E+10	1	-1E+10	1	-1E+10	1	-1E+10	1	-1E+10	1	-1E+10	1
4901784	41	C	08/18/2016	10:43	-132.540	45.047	0	1709.70	0	2.2020	0	34.5550	0	27.608	0	1688.897	0	40.5	4	12.3	4	-1E+10	1	-1E+10	1	-1E+10	1	-1E+10	1	-1E+10	1	-1E+10	1
4901784	41	C	08/18/2016	10:43	-132.540	45.047	0	1715.10	0	2.1900	0	34.5570	0	27.611	0	1694.210	0	40.9	4	12.4	4	-1E+10	1	-1E+10	1	-1E+10	1	-1E+10	1	-1E+10	1	-1E+10	1
4901784	41	C	08/18/2016	10:43	-132.540	45.047	0	1720.20	0	2.1850	0	34.5580	0	27.612	0	1699.227	0	41.2	4	12.5	4	-1E+10	1	-1E+10	1	-1E+10	1	-1E+10	1	-1E+10	1	-1E+10	1
4901784	41	C	08/18/2016	10:43	-132.540	45.047	0	1724.50	0	2.1790	0	34.5590	0	27.613	0	1703.458	0	41.5	4	12.6	4	-1E+10	1	-1E+10	1	-1E+10	1	-1E+10	1	-1E+10	1	-1E+10	1
4901784	41	C	08/18/2016	10:43	-132.540	45.047	0	1730.00	0	2.1720	0	34.5600	0	27.615	0	1708.868	0	41.8	4	12.7	4	-1E+10	1	-1E+10	1	-1E+10	1	-1E+10	1	-1E+10	1	-1E+10	1
4901784	41	C	08/18/2016	10:43	-132.540	45.047	0	1735.70	0	2.1690	0	34.5600	0	27.615	0	1714.476	0	42.1	4	12.7	4	-1E+10	1	-1E+10	1	-1E+10	1	-1E+10	1	-1E+10	1	-1E+10	1
4901784	41	C	08/18/2016	10:43	-132.540	45.047	0	1740.50	0	2.1660	0	34.5610	0	27.616	0	1719.198	0	42.3	4	12.8	4	-1E+10	1	-1E+10	1	-1E+10	1	-1E+10	1	-1E+10	1	-1E+10	1
4901784	41	C	08/18/2016	10:43	-132.540	45.047	0	1745.50	0	2.1600	0	34.5610	0	27.617	0	1724.116	0	42.7	4	12.9	4	-1E+10	1	-1E+10	1	-1E+10	1	-1E+10	1	-1E+10	1	-1E+10	1
4901784	41	C	08/18/2016	10:43	-132.540	45.047	0	1750.40	0	2.1530	0	34.5620	0	27.618	0	1728.936	0	42.9	4	13.0	4	-1E+10	1	-1E+10	1	-1E+10	1	-1E+10	1	-1E+10	1	-1E+10	1
4901784	41	C	08/18/2016	10:43	-132.540	45.047	0	1755.30	0	2.1490	0	34.5630	0	27.619	0	1733.756	0	43.3	4	13.1	4	-1E+10	1	-1E+10	1	-1E+10	1	-1E+10	1	-1E+10	1	-1E+10	1
4901784	41	C	08/18/2016	10:43	-132.540	45.047	0	1760.30	0	2.1430	0	34.5640	0	27.620	0	1738.674	0	43.6	4	13.2	4	-1E+10	1	-1E+10	1	-1E+10	1	-1E+10	1	-1E+10	1	-1E+10	1
4901784	41	C	08/18/2016	10:43	-132.540	45.047	0	1765.20	0	2.1370	0	34.5650	0	27.622	0	1743.494	0	44.0	4	13.3	4	-1E+10	1	-1E+10	1	-1E+10	1	-1E+10	1	-1E+10	1	-1E+10	1
4901784	41	C	08/18/2016	10:43	-132.540	45.047	0	1770.20	0	2.1310	0	34.5660	0	27.623	0	1748.412	0	44.4	4	13.4	4	-1E+10	1	-1E+10	1	-1E+10	1	-1E+10	1	-1E+10	1	-1E+10	1
4901784	41	C	08/18/2016	10:43	-132.540	45.047	0	1775.20	0	2.1230	0	34.5670	0	27.625	0	1753.330	0	44.8	4	13.5	4	-1E+10	1	-1E+10	1	-1E+10	1	-1E+10	1	-1E+10	1	-1E+10	1
4901784	41	C	08/18/2016	10:43	-132.540	45.047	0	1780.20	0	2.1180	0	34.5680	0	27.626	0	1758.247	0	45.1	4	13.6	4	-1E+10	1	-1E+10	1	-1E+10	1	-1E+10	1	-1E+10	1	-1E+10	1
4901784	41	C	08/18/2016	10:43	-132.540	45.047	0	1785.30	0	2.1130	0	34.5690	0	27.627	0	1763.263	0	45.4	4	13.7	4	-1E+10	1	-1E+10	1	-1E+10	1	-1E+10	1	-1E+10	1	-1E+10	1
4901784	41	C	08/18/2016	10:43	-132.540	45.047	0	1790.50	0	2.1080	0	34.5690	0	27.627	0	1768.378	0	45.8	4	13.8	4	-1E+10	1	-1E+10	1	-1E+10	1	-1E+10	1	-1E+10	1	-1E+10	1
4901784	41	C	08/18/2016	10:43	-132.540	45.047	0	1795.70	0	2.1020	0	34.5700	0	27.629	0	1773.492	0	46.1	4	13.9	4	-1E+10	1	-1E+10	1	-1E+10	1	-1E+10	1	-1E+10	1	-1E+10	1
4901784	41	C	08/18/2016	10:43	-132.540	45.047	0	1800.20	0	2.0990	0	34.5710	0	27.630	0	1777.917	0	46.3	4	14.0	4	-1E+10	1	-1E+10	1	-1E+10	1	-1E+10	1	-1E+10	1	-1E+10	1
4901784	41	C	08/18/2016	10:43	-132.540	45.047	0	1804.60	0	2.0940	0	34.5710	0	27.630	0	1782.244	0	46.7	4	14.1	4	-1E+10	1	-1E+10	1	-1E+10	1	-1E+10	1	-1E+10	1	-1E+10	1
4901784	41	C	08/18/2016	10:43	-132.540	45.047	0	1809.90	0	2.0890	0	34.5720	0	27.631	0	1787.456	0	47.0	4	14.2	4	-1E+10	1	-1E+10	1	-1E+10	1	-1E+10	1	-1E+10	1	-1E+10	1
4901784	41	C	08/18/2016	10:43	-132.540	45.047	0	1815.30	0	2.0860	0	34.5730	0	27.632	0	1792.767	0	47.1	4	14.2	4	-1E+10	1	-1E+10	1	-1E+10	1	-1E+10	1	-1E+10	1	-1E+10	1
4901784	41	C	08/18/2016	10:43	-132.540	45.047	0	1820.70	0	2.0820	0	34.5730	0	27.633	0	1798.077	0	47.4	4	14.3	4	-1E+10	1	-1E+10	1	-1E+10	1	-1E+10	1	-1E+10	1	-1E+10	1
4901784	41	C	08/18/2016	10:43	-132.540	45.047	0	1825.10	0	2.0790	0	34.5740	0	27.634	0	1802.403	0	47.6	4	14.4	4	-1E+10	1	-1E+10	1	-1E+10	1	-1E+10	1	-1E+10	1	-1E+10	1
4901784	41	C	08/18/2016	10:43	-132.540	45.047	0	1829.70	0	2.0730	0	34.5740	0	27.634	0	1806.927	0	47.9	4	14.5	4	-1E+10	1	-1E+10	1	-1E+10	1	-1E+10	1	-1E+10	1	-1E+10	1
4901784	41	C	08/18/2016	10:43	-132.540	45.047	0	1835.20	0	2.0680	0	34.5750	0	27.636	0	1812.335	0	48.2	4	14.5	4	-1E+10	1	-1E+10	1	-1E+10	1	-1E+10	1	-1E+10	1	-1E+10	1
4901784	41	C	08/18/2016	10:43	-132.540	45.047	0	1839.80	0	2.0670	0	34.5760	0	27.636	0	1816.858	0	48.3	4	14.6	4	-1E+10	1	-1E+10	1	-1E+10	1	-1E+10	1	-1E+10	1	-1E+10	1
4901784	41	C	08/18/2016	10:43	-132.540	45.047	0	1844.60	0	2.0640	0	34.5760	0	27.637	0	1821.577	0	48.5	4	14.6	4	-1E+10	1	-1E+10	1	-1E+10	1	-1E+10	1	-1E+10	1	-1E+10	1
4901784	41	C	08/18/2016	10:43	-132.540	45.047	0	1849.80	0	2.0610	0	34.5760	0	27.637	0	1826.690	0	48.8	4	14.7	4	-1E+10	1	-1E+10	1	-1E+10	1	-1E+10	1	-1E+10	1	-1E+10	1
4901784	41	C	08/18/2016	10:43	-132.540	45.047	0	1854.60	0	2.0580	0	34.5770	0	27.638	0	1831.409	0	49.0	4	14.8	4	-1E+10	1	-1E+10	1	-1E+10	1	-1E+10	1	-1E+10	1	-1E+10	1
4901784	41	C	08/18/2016	10:43	-132.540	45.047	0	1859.40	0	2.0520	0	34.5780	0	27.639	0	1836.129	0	49.3	4	14.9	4	-1E+10	1	-1E+10	1	-1E+10	1	-1E+10	1	-1E+10	1	-1E+10	1
4901784	41	C	08/18/2016	10:43	-132.540	45.047	0	1864.30	0	2.0500	0	34.5780	0	27.640	0	1840.946	0	49.5	4	14.9	4	-1E+10	1	-1E+10	1	-1E+10	1	-1E+10	1	-1E+10	1	-1E+10	1
4901784	41	C	08/18/2016	10:43	-132.540	45.047	0	1869.20	0	2.0480	0	34.5790	0	27.641	0	1845.764	0	49.7	4	15.0	4	-1E+10	1	-1E+10	1	-1E+10	1	-1E+10	1	-1E+10	1	-1E+10	1
4901784	41	C	08/18/2016	10:43	-132.540	45.047	0	1875.00	0	2.0430	0	34.5800	0	27.642	0	1851.466	0	50.1	4	15.1	4	-1E+10	1	-1E+10	1	-1E+10	1	-1E+10	1	-1E+10	1	-1E+10	1
4901784	41	C	08/18/2016	10:43	-132.540	45.047	0	1880.80	0	2.0390	0	34.5800	0	27.642	0	1857.168	0	50.4	4	15.2	4	-1E+10	1	-1E+10	1	-1E+10	1	-1E+10	1	-1E+10	1	-1E+10	1
4901784	41	C	08/18/2016	10:43	-132.540	45.047	0	1885.70	0	2.0350	0	34.5810	0	27.643	0	1861.984	0	50.7	4	15.3	4	-1E+10	1	-1E+10	1	-1E+10	1	-1E+10	1	-1E+10	1	-1E+10	1
4901784	41	C	08/18/2016	10:43	-132.540	45.047	0	1890.70	0	2.0300	0	34.5820	0	27.644	0	1866.900	0	51.0	4	15.4	4	-1E+10	1	-1E+10	1	-1E+10	1	-1E+10	1	-1E+10	1	-1E+10	1
4901784	41	C	08/18/2016	10:43	-132.540	45.047	0	1895.80	0	2.0270	0	34.5820	0	27.645	0	1871.913	0	51.2	4	15.4	4	-1E+10	1	-1E+10	1	-1E+10	1	-1E+10	1	-1E+10	1	-1E+10	1
4901784	41	C	08/18/2016	10:43	-132.540	45.047	0	1900.70	0	2.0250	0	34.5830	0	27.646	0	1876.730	0	51.4	4	15.5	4	-1E+10	1	-1E+10	1	-1E+10	1	-1E+10	1	-1E+10	1	-1E+10	1
4901784	41	C	08/18/2016	10:43	-132.540	45.047	0	1905.70	0	2.0230	0	34.5830	0	27.646	0	1881.645	0	51.6	4	15.6	4	-1E+10	1	-1E+10	1	-1E+10	1	-1E+10	1	-1E+10	1	-1E+10	1
4901784	41	C	08/18/2016	10:43	-132.540	45.047	0	1910.70	0	2.0200	0	34.5830	0	27.646	0	1886.559	0	52.0	4	15.7	4	-1E+10	1	-1E+10	1	-1E+10	1	-1E+10	1	-1E+10	1	-1E+10	1
4901784	41	C	08/18/2016	10:43	-132.540	45.047	0	1915.80	0	2.0140	0	34.5840	0	27.647	0	1891.572	0	52.5	4	15.8	4	-1E+10	1	-1E+10	1	-1E+10	1	-1E+10	1	-1E+10	1	-1E+10	1
4901784	41	C	08/18/2016	10:43	-132.540	45.047	0	1920.00	0	2.0070	0	34.5860	0	27.650	0	1895.700	0	52.8	4	15.9	4	-1E+10	1	-1E+10	1	-1E+10	1	-1E+10	1	-1E+10	1	-1E+10	1
4901784	41	C	08/18/2016	10:43	-132.540	45.047	0	1924.20	0	2.0050	0	34.5860	0	27.650	0	1899.828	0	52.9	4	16.0	4	-1E+10	1	-1E+10	1	-1E+10	1	-1E+10	1	-1E+10	1	-1E+10	1
4901784	41	C	08/18/2016	10:43	-132.540	45.047	0	1929.30	0	2.0020	0	34.5860	0	27.650	0	1904.841	0	53.1	4	16.0	4	-1E+10	1	-1E+10	1	-1E+10	1	-1E+10	1	-1E+10	1	-1E+10	1
4901784	41	C	08/18/2016	10:43	-132.540	45.047	0	1934.40	0	1.9970	0	34.5870	0	27.651	0	1909.854	0	53.4	4	16.1	4	-1E+10	1	-1E+10	1	-1E+10	1	-1E+10	1	-1E+10	1	-1E+10	1
4901784	41	C	08/18/2016	10:43	-132.540	45.047	0	1939.60	0	1.9970	0	34.5880	0	27.652	0	1914.964	0	53.5	4	16.1	4	-1E+10	1	-1E+10	1	-1E+10	1	-1E+10	1	-1E+10	1	-1E+10	1
4901784	41	C	08/18/2016	10:43	-132.540	45.047	0	1944.80	0	1.9940	0	34.5880	0	27.652	0	1920.075	0	53.8	4	16.2	4	-1E+10	1	-1E+10	1	-1E+10	1	-1E+10	1	-1E+10	1	-1E+10	1
4901784	41	C	08/18/2016	10:43	-132.540	45.047	0	1950.00	0	1.9900	0	34.5890	0	27.654	0	1925.185	0	54.1	4	16.3	4	-1E+10	1	-1E+10	1	-1E+10	1	-1E+10	1	-1E+10	1	-1E+10	1
4901784	41	C	08/18/2016	10:43	-132.540	45.047	0	1955.20	0	1.9860	0	34.5890	0	27.654	0	1930.295	0	54.4	4	16.4	4	-1E+10	1	-1E+10	1	-1E+10	1	-1E+10	1	-1E+10	1	-1E+10	1
4901784	41	C	08/18/2016	10:43	-132.540	45.047	0	1960.50	0	1.9840	0	34.5900	0	27.655	0	1935.504	0	54.6	4	16.5	4	-1E+10	1	-1E+10	1	-1E+10	1	-1E+10	1	-1E+10	1	-1E+10	1
4901784	41	C	08/18/2016	10:43	-132.540	45.047	0	1965.70	0	1.9800	0	34.5900	0	27.655	0	1940.614	0	55.0	4	16.6	4	-1E+10	1	-1E+10	1	-1E+10	1	-1E+10	1	-1E+10	1	-1E+10	1
4901784	41	C	08/18/2016	10:43	-132.540	45.047	0	1970.10	0	1.9790	0	34.5910	0	27.656	0	1944.938	0	55.2	4	16.6	4	-1E+10	1	-1E+10	1	-1E+10	1	-1E+10	1	-1E+10	1	-1E+10	1
4901784	41	C	08/18/2016	10:43	-132.540	45.047	0	1974.50	0	1.9750	0	34.5910	0	27.656	0	1949.261	0	55.5	4	16.7	4	-1E+10	1	-1E+10	1	-1E+10	1	-1E+10	1	-1E+10	1	-1E+10	1
4901784	41	C	08/18/2016	10:43	-132.540	45.047	0	1979.80	0	1.9700	0	34.5920	0	27.658	0	1954.469	0	56.0	4	16.9	4	-1E+10	1	-1E+10	1	-1E+10	1	-1E+10	1	-1E+10	1	-1E+10	1
4901784	41	C	08/18/2016	10:43	-132.540	45.047	0	1985.10	0	1.9650	0	34.5930	0	27.659	0	1959.677	0	56.3	4	17.0	4	-1E+10	1	-1E+10	1	-1E+10	1	-1E+10	1	-1E+10	1	-1E+10	1
4901784	41	C	08/18/2016	10:43	-132.540	45.047	0	1990.50	0	1.9630	0	34.5940	0	27.660	0	1964.983	0	56.5	4	17.0	4	-1E+10	1	-1E+10	1	-1E+10	1	-1E+10	1	-1E+10	1	-1E+10	1
4901784	41	C	08/18/2016	10:43	-132.540	45.047	0	1995.00	0	1.9600	0	34.5950	0	27.661	0	1969.405	0	56.8	4	17.1	4	-1E+10	1	-1E+10	1	-1E+10	1	-1E+10	1	-1E+10	1	-1E+10	1
4901784	41	C	08/18/2016	10:43	-132.540	45.047	0	1999.30	0	1.9560	0	34.5950	0	27.661	0	1973.630	0	57.1	4	17.2	4	-1E+10	1	-1E+10	1	-1E+10	1	-1E+10	1	-1E+10	1	-1E+10	1
4901784	41	C	08/18/2016	10:43	-132.540	45.047	0	2004.50	0	1.9520	0	34.5960	0	27.662	0	1978.739	0	57.3	4	17.3	4	-1E+10	1	-1E+10	1	-1E+10	1	-1E+10	1	-1E+10	1	-1E+10	1
4901784	41	C	08/18/2016	10:43	-132.540	45.047	0	2009.50	0	1.9510	0	34.5960	0	27.662	0	1983.651	0	57.4	4	17.3	4	-1E+10	1	-1E+10	1	-1E+10	1	-1E+10	1	-1E+10	1	-1E+10	1
4901784	41	C	08/18/2016	10:43	-132.540	45.047	0	2015.20	0	1.9480	0	34.5970	0	27.664	0	1989.251	0	57.7	4	17.4	4	-1E+10	1	-1E+10	1	-1E+10	1	-1E+10	1	-1E+10	1	-1E+10	1
4901784	41	C	08/18/2016	10:43	-132.540	45.047	0	2019.90	0	1.9440	0	34.5970	0	27.664	0	1993.869	0	56.1	8	16.9	8	-1E+10	1	-1E+10	1	-1E+10	1	-1E+10	1	-1E+10	1	-1E+10	1
4901784	41	C	08/18/2016	10:43	-132.540	45.047	0																										
4901784	42	C	08/28/2016	10:40	-132.370	44.923	0	2.20	0	17.4300	0	32.7700	0	23.703	0	2.182	0	235.4	4	98.1	4	-1E+10	1	-1E+10	1	-1E+10	1	-1E+10	1	-1E+10	1	-1E+10	1
4901784	42	C	08/28/2016	10:40	-132.370	44.923	0	3.90	0	17.4310	0	32.7700	0	23.703	0	3.868	0	235.2	4	98.0	4	-1E+10	1	-1E+10	1	-1E+10	1	-1E+10	1	-1E+10	1	-1E+10	1
4901784	42	C	08/28/2016	10:40	-132.370	44.923	0	5.50	0	17.4300	0	32.7660	0	23.700	0	5.455	0	235.2	4	97.9	4	-1E+10	1	-1E+10	1	-1E+10	1	-1E+10	1	-1E+10	1	-1E+10	1
4901784	42	C	08/28/2016	10:40	-132.370	44.923	0	7.30	0	17.2830	0	32.7730	0	23.740	0	7.241	0	235.4	4	97.8	4	-1E+10	1	-1E+10	1	-1E+10	1	-1E+10	1	-1E+10	1	-1E+10	1
4901784	42	C	08/28/2016	10:40	-132.370	44.923	0	9.20	0	17.2250	0	32.7740	0	23.755	0	9.125	0	235.6	4	97.8	4	-1E+10	1	-1E+10	1	-1E+10	1	-1E+10	1	-1E+10	1	-1E+10	1
4901784	42	C	08/28/2016	10:40	-132.370	44.923	0	11.10	0	17.2090	0	32.7740	0	23.759	0	11.010	0	235.5	4	97.7	4	-1E+10	1	-1E+10	1	-1E+10	1	-1E+10	1	-1E+10	1	-1E+10	1
4901784	42	C	08/28/2016	10:40	-132.370	44.923	0	13.00	0	17.2020	0	32.7740	0	23.760	0	12.894	0	235.6	4	97.7	4	-1E+10	1	-1E+10	1	-1E+10	1	-1E+10	1	-1E+10	1	-1E+10	1
4901784	42	C	08/28/2016	10:40	-132.370	44.923	0	14.90	0	17.1980	0	32.7740	0	23.761	0	14.779	0	235.2	4	97.5	4	-1E+10	1	-1E+10	1	-1E+10	1	-1E+10	1	-1E+10	1	-1E+10	1
4901784	42	C	08/28/2016	10:40	-132.370	44.923	0	16.80	0	17.1940	0	32.7740	0	23.762	0	16.663	0	235.3	4	97.6	4	-1E+10	1	-1E+10	1	-1E+10	1	-1E+10	1	-1E+10	1	-1E+10	1
4901784	42	C	08/28/2016	10:40	-132.370	44.923	0	19.20	0	17.1880	0	32.7740	0	23.764	0	19.043	0	235.0	4	97.4	4	-1E+10	1	-1E+10	1	-1E+10	1	-1E+10	1	-1E+10	1	-1E+10	1
4901784	42	C	08/28/2016	10:40	-132.370	44.923	0	21.00	0	17.1850	0	32.7740	0	23.765	0	20.829	0	234.8	4	97.3	4	-1E+10	1	-1E+10	1	-1E+10	1	-1E+10	1	-1E+10	1	-1E+10	1
4901784	42	C	08/28/2016	10:40	-132.370	44.923	0	22.60	0	17.1830	0	32.7730	0	23.765	0	22.415	0	234.6	4	97.3	4	-1E+10	1	-1E+10	1	-1E+10	1	-1E+10	1	-1E+10	1	-1E+10	1
4901784	42	C	08/28/2016	10:40	-132.370	44.923	0	24.20	0	17.1820	0	32.7720	0	23.764	0	24.002	0	234.4	4	97.2	4	-1E+10	1	-1E+10	1	-1E+10	1	-1E+10	1	-1E+10	1	-1E+10	1
4901784	42	C	08/28/2016	10:40	-132.370	44.923	0	25.70	0	17.1790	0	32.7720	0	23.765	0	25.490	0	234.3	4	97.1	4	-1E+10	1	-1E+10	1	-1E+10	1	-1E+10	1	-1E+10	1	-1E+10	1
4901784	42	C	08/28/2016	10:40	-132.370	44.923	0	27.20	0	17.1760	0	32.7720	0	23.766	0	26.978	0	234.5	4	97.2	4	-1E+10	1	-1E+10	1	-1E+10	1	-1E+10	1	-1E+10	1	-1E+10	1
4901784	42	C	08/28/2016	10:40	-132.370	44.923	0	29.00	0	17.1740	0	32.7690	0	23.764	0	28.763	0	234.6	4	97.2	4	-1E+10	1	-1E+10	1	-1E+10	1	-1E+10	1	-1E+10	1	-1E+10	1
4901784	42	C	08/28/2016	10:40	-132.370	44.923	0	30.30	0	17.1720	0	32.7660	0	23.762	0	30.052	0	234.8	4	97.3	4	-1E+10	1	-1E+10	1	-1E+10	1	-1E+10	1	-1E+10	1	-1E+10	1
4901784	42	C	08/28/2016	10:40	-132.370	44.923	0	31.30	0	17.1690	0	32.7620	0	23.760	0	31.044	0	235.9	4	97.8	4	-1E+10	1	-1E+10	1	-1E+10	1	-1E+10	1	-1E+10	1	-1E+10	1
4901784	42	C	08/28/2016	10:40	-132.370	44.923	0	32.30	0	17.1650	0	32.7560	0	23.756	0	32.036	0	236.7	4	98.1	4	-1E+10	1	-1E+10	1	-1E+10	1	-1E+10	1	-1E+10	1	-1E+10	1
4901784	42	C	08/28/2016	10:40	-132.370	44.923	0	33.30	0	17.1610	0	32.7480	4	23.751	0	33.027	0	238.5	4	98.8	4	-1E+10	1	-1E+10	1	-1E+10	1	-1E+10	1	-1E+10	1	-1E+10	1
4901784	42	C	08/28/2016	10:40	-132.370	44.923	0	34.30	0	17.1570	0	32.7320	4	23.740	0	34.019	0	241.0	4	99.8	4	-1E+10	1	-1E+10	1	-1E+10	1	-1E+10	1	-1E+10	1	-1E+10	1
4901784	42	C	08/28/2016	10:40	-132.370	44.923	0	35.40	0	16.8990	0	32.7240	4	23.794	0	35.110	0	244.6	4	100.8	4	-1E+10	1	-1E+10	1	-1E+10	1	-1E+10	1	-1E+10	1	-1E+10	1
4901784	42	C	08/28/2016	10:40	-132.370	44.923	0	36.70	0	15.6840	0	32.7550	0	24.094	0	36.399	0	253.3	4	102.0	4	-1E+10	1	-1E+10	1	-1E+10	1	-1E+10	1	-1E+10	1	-1E+10	1
4901784	42	C	08/28/2016	10:40	-132.370	44.923	0	38.00	0	14.7410	0	32.7540	0	24.298	0	37.688	0	260.9	4	103.1	4	-1E+10	1	-1E+10	1	-1E+10	1	-1E+10	1	-1E+10	1	-1E+10	1
4901784	42	C	08/28/2016	10:40	-132.370	44.923	0	39.50	0	13.8920	0	32.7560	0	24.477	0	39.176	0	267.1	4	103.8	4	-1E+10	1	-1E+10	1	-1E+10	1	-1E+10	1	-1E+10	1	-1E+10	1
4901784	42	C	08/28/2016	10:40	-132.370	44.923	0	41.10	0	12.6010	0	32.7590	0	24.737	0	40.763	0	274.3	4	103.8	4	-1E+10	1	-1E+10	1	-1E+10	1	-1E+10	1	-1E+10	1	-1E+10	1
4901784	42	C	08/28/2016	10:40	-132.370	44.923	0	42.80	0	12.3030	0	32.7680	0	24.801	0	42.448	0	275.4	4	103.6	4	-1E+10	1	-1E+10	1	-1E+10	1	-1E+10	1	-1E+10	1	-1E+10	1
4901784	42	C	08/28/2016	10:40	-132.370	44.923	0	44.60	0	11.9760	0	32.7750	0	24.867	0	44.233	0	275.5	4	103.0	4	-1E+10	1	-1E+10	1	-1E+10	1	-1E+10	1	-1E+10	1	-1E+10	1
4901784	42	C	08/28/2016	10:40	-132.370	44.923	0	46.50	0	11.7090	0	32.7960	0	24.933	0	46.118	0	274.4	4	102.0	4	-1E+10	1	-1E+10	1	-1E+10	1	-1E+10	1	-1E+10	1	-1E+10	1
4901784	42	C	08/28/2016	10:40	-132.370	44.923	0	48.40	0	11.4810	0	32.7950	0	24.974	0	48.002	0	273.8	4	101.3	4	-1E+10	1	-1E+10	1	-1E+10	1	-1E+10	1	-1E+10	1	-1E+10	1
4901784	42	C	08/28/2016	10:40	-132.370	44.923	0	50.50	0	11.3170	0	32.7920	0	25.002	0	50.084	0	272.0	4	100.3	4	-1E+10	1	-1E+10	1	-1E+10	1	-1E+10	1	-1E+10	1	-1E+10	1
4901784	42	C	08/28/2016	10:40	-132.370	44.923	0	52.50	0	11.2240	0	32.7990	0	25.024	0	52.068	0	269.1	4	99.0	4	-1E+10	1	-1E+10	1	-1E+10	1	-1E+10	1	-1E+10	1	-1E+10	1
4901784	42	C	08/28/2016	10:40	-132.370	44.923	0	54.50	0	11.1070	0	32.8080	0	25.052	0	54.051	0	265.8	4	97.6	4	-1E+10	1	-1E+10	1	-1E+10	1	-1E+10	1	-1E+10	1	-1E+10	1
4901784	42	C	08/28/2016	10:40	-132.370	44.923	0	56.70	0	10.7850	0	32.8190	0	25.117	0	56.232	0	264.2	4	96.3	4	-1E+10	1	-1E+10	1	-1E+10	1	-1E+10	1	-1E+10	1	-1E+10	1
4901784	42	C	08/28/2016	10:40	-132.370	44.923	0	58.80	0	10.6990	0	32.8160	0	25.130	0	58.315	0	263.0	4	95.7	4	-1E+10	1	-1E+10	1	-1E+10	1	-1E+10	1	-1E+10	1	-1E+10	1
4901784	42	C	08/28/2016	10:40	-132.370	44.923	0	61.00	0	10.5740	0	32.8180	0	25.153	0	60.496	0	261.5	4	94.9	4	-1E+10	1	-1E+10	1	-1E+10	1	-1E+10	1	-1E+10	1	-1E+10	1
4901784	42	C	08/28/2016	10:40	-132.370	44.923	0	63.20	0	10.3510	0	32.8180	0	25.191	0	62.678	0	260.4	4	94.0	4	-1E+10	1	-1E+10	1	-1E+10	1	-1E+10	1	-1E+10	1	-1E+10	1
4901784	42	C	08/28/2016	10:40	-132.370	44.923	0	65.40	0	10.2490	0	32.8050	0	25.198	0	64.859	0	260.3	4	93.8	4	-1E+10	1	-1E+10	1	-1E+10	1	-1E+10	1	-1E+10	1	-1E+10	1
4901784	42	C	08/28/2016	10:40	-132.370	44.923	0	67.50	0	10.2500	0	32.8110	0	25.203	0	66.942	0	259.0	4	93.4	4	-1E+10	1	-1E+10	1	-1E+10	1	-1E+10	1	-1E+10	1	-1E+10	1
4901784	42	C	08/28/2016	10:40	-132.370	44.923	0	69.60	0	10.1620	0	32.8200	0	25.225	0	69.024	0	258.0	4	92.8	4	-1E+10	1	-1E+10	1	-1E+10	1	-1E+10	1	-1E+10	1	-1E+10	1
4901784	42	C	08/28/2016	10:40	-132.370	44.923	0	71.60	0	10.0190	0	32.8040	0	25.236	0	71.007	0	257.6	4	92.4	4	-1E+10	1	-1E+10	1	-1E+10	1	-1E+10	1	-1E+10	1	-1E+10	1
4901784	42	C	08/28/2016	10:40	-132.370	44.923	0	73.80	0	9.9770	0	32.8090	0	25.247	0	73.188	0	256.5	4	91.9	4	-1E+10	1	-1E+10	1	-1E+10	1	-1E+10	1	-1E+10	1	-1E+10	1
4901784	42	C	08/28/2016	10:40	-132.370	44.923	0	75.90	0	9.9170	0	32.8120	0	25.259	0	75.271	0	255.6	4	91.5	4	-1E+10	1	-1E+10	1	-1E+10	1	-1E+10	1	-1E+10	1	-1E+10	1
4901784	42	C	08/28/2016	10:40	-132.370	44.923	0	78.10	0	9.8990	0	32.8350	0	25.280	0	77.452	0	254.5	4	91.0	4	-1E+10	1	-1E+10	1	-1E+10	1	-1E+10	1	-1E+10	1	-1E+10	1
4901784	42	C	08/28/2016	10:40	-132.370	44.923	0	80.20	0	9.8480	0	32.8500	0	25.301	0	79.534	0	253.7	4	90.7	4	-1E+10	1	-1E+10	1	-1E+10	1	-1E+10	1	-1E+10	1	-1E+10	1
4901784	42	C	08/28/2016	10:40	-132.370	44.923	0	82.40	0	9.8420	0	32.8560	0	25.306	0	81.715	0	252.9	4	90.4	4	-1E+10	1	-1E+10	1	-1E+10	1	-1E+10	1	-1E+10	1	-1E+10	1
4901784	42	C	08/28/2016	10:40	-132.370	44.923	0	84.40	0	9.8160	0	32.8720	0	25.323	0	83.698	0	251.6	4	89.9	4	-1E+10	1	-1E+10	1	-1E+10	1	-1E+10	1	-1E+10	1	-1E+10	1
4901784	42	C	08/28/2016	10:40	-132.370	44.923	0	86.40	0	9.7660	0	32.8780	0	25.336	0	85.681	0	250.8	4	89.5	4	-1E+10	1	-1E+10	1	-1E+10	1	-1E+10	1	-1E+10	1	-1E+10	1
4901784	42	C	08/28/2016	10:40	-132.370	44.923	0	88.40	0	9.7330	0	32.8830	0	25.345	0	87.664	0	249.9	4	89.1	4	-1E+10	1	-1E+10	1	-1E+10	1	-1E+10	1	-1E+10	1	-1E+10	1
4901784	42	C	08/28/2016	10:40	-132.370	44.923	0	90.40	0	9.6630	0	32.8970	0	25.368	0	89.647	0	248.8	4	88.6	4	-1E+10	1	-1E+10	1	-1E+10	1	-1E+10	1	-1E+10	1	-1E+10	1
4901784	42	C	08/28/2016	10:40	-132.370	44.923	0	92.40	0	9.6290	0	32.9150	0	25.387	0	91.630	0	247.5	4	88.1	4	-1E+10	1	-1E+10	1	-1E+10	1	-1E+10	1	-1E+10	1	-1E+10	1
4901784	42	C	08/28/2016	10:40	-132.370	44.923	0	95.00	0	9.6110	0	32.9390	0	25.409	0	94.208	0	245.8	4	87.4	4	-1E+10	1	-1E+10	1	-1E+10	1	-1E+10	1	-1E+10	1	-1E+10	1
4901784	42	C	08/28/2016	10:40	-132.370	44.923	0	96.90	0	9.5940	0	32.9590	0	25.428	0	96.092	0	243.8	4	86.7	4	-1E+10	1	-1E+10	1	-1E+10	1	-1E+10	1	-1E+10	1	-1E+10	1
4901784	42	C	08/28/2016	10:40	-132.370	44.923	0	98.60	0	9.5800	0	32.9770	0	25.444	0	97.777	0	242.0	4	86.1	4	-1E+10	1	-1E+10	1	-1E+10	1	-1E+10	1	-1E+10	1	-1E+10	1
4901784	42	C	08/28/2016	10:40	-132.370	44.923	0	100.10	0	9.5700	0	32.9860	0	25.453	0	99.264	0	239.7	4	85.2	4	-1E+10	1	-1E+10	1	-1E+10	1	-1E+10	1	-1E+10	1	-1E+10	1
4901784	42	C	08/28/2016	10:40	-132.370	44.923	0	102.50	0	9.5370	0	33.0140	0	25.480	0	101.643	0	235.7	4	83.8	4	-1E+10	1	-1E+10	1	-1E+10	1	-1E+10	1	-1E+10	1	-1E+10	1
4901784	42	C	08/28/2016	10:40	-132.370	44.923	0	104.90	0	9.4770	0	33.0810	0	25.542	0	104.023	0	231.7	4	82.3	4	-1E+10	1	-1E+10	1	-1E+10	1	-1E+10	1	-1E+10	1	-1E+10	1
4901784	42	C	08/28/2016	10:40	-132.370	44.923	0	107.30	0	9.4520	0	33.1050	0	25.565	0	106.402	0	228.7	4	81.2	4	-1E+10	1	-1E+10	1	-1E+10	1	-1E+10	1	-1E+10	1	-1E+10	1
4901784	42	C	08/28/2016	10:40	-132.370	44.923	0	109.70	0	9.4410	0	33.1180	0	25.577	0	108.781	0	225.3	4	79.9	4	-1E+10	1	-1E+10	1	-1E+10	1	-1E+10	1	-1E+10	1	-1E+10	1
4901784	42	C	08/28/2016	10:40	-132.370	44.923	0	112.10	0	9.4100	0	33.1710	0	25.623	0	111.161	0	221.3	4	78.5	4	-1E+10	1	-1E+10	1	-1E+10	1	-1E+10	1	-1E+10	1	-1E+10	1
4901784	42	C	08/28/2016	10:40	-132.370	44.923	0	115.00	0	9.3850	0	33.1990	0	25.649	0	114.036	0	216.6	4	76.8	4	-1E+10	1	-1E+10	1	-1E+10	1	-1E+10	1	-1E+10	1	-1E+10	1
4901784	42	C	08/28/2016	10:40	-132.370	44.923	0	117.10	0	9.3050	0	33.2920	0	25.735	0	116.117	0	211.9	4	75.1	4	-1E+10	1	-1E+10	1	-1E+10	1	-1E+10	1	-1E+10	1	-1E+10	1
4901784	42	C	08/28/2016	10:40	-132.370	44.923	0	119.70	0	9.2650	0	33.3300	0	25.771	0	118.695	0	207.5	4	73.5	4	-1E+10	1	-1E+10	1	-1E+10	1	-1E+10	1	-1E+10	1	-1E+10	1
4901784	42	C	08/28/2016	10:40	-132.370	44.923	0	122.50	0	9.1930	0	33.4000	0	25.837	0	121.470	0	203.1	4	71.9	4	-1E+10	1	-1E+10	1	-1E+10	1	-1E+10	1	-1E+10	1	-1E+10	1
4901784	42	C	08/28/2016	10:40	-132.370	44.923	0	125.30	0	9.1110	0	33.4690	0	25.904	0	124.246	0	199.7	4	70.6	4	-1E+10	1	-1E+10	1	-1E+10	1	-1E+10	1	-1E+10	1	-1E+10	1
4901784	42	C	08/28/2016	10:40	-132.370	44.923	0	127.50	0	9.0560	0	33.5230	0	25.955	0	126.427	0	197.7	4	69.8	4	-1E+10	1	-1E+10	1	-1E+10	1	-1E+10	1	-1E+10	1	-1E+10	1
4901784	42	C	08/28/2016	10:40	-132.370	44.923	0	129.90	0	8.9530	0	33.5940	0	26.027	0	128.806	0	196.1	4	69.1	4	-1E+10	1	-1E+10	1	-1E+10	1	-1E+10	1	-1E+10	1	-1E+10	1
4901784	42	C	08/28/2016	10:40	-132.370	44.923	0	132.60	0	8.9040	0	33.6190	0	26.054	0	131.482	0	195.5	4	68.8	4	-1E+10	1	-1E+10	1	-1E+10	1	-1E+10	1	-1E+10	1	-1E+10	1
4901784	42	C	08/28/2016	10:40	-132.370	44.923	0	134.90	0	8.8850	0	33.6400	0	26.074	0	133.762	0	194.7	4	68.5	4	-1E+10	1	-1E+10	1	-1E+10	1	-1E+10	1	-1E+10	1	-1E+10	1
4901784	42	C	08/28/2016	10:40	-132.370	44.923	0	137.50	0	8.8590	0	33.6590	0	26.093	0	136.339	0	193.6	4	68.1	4	-1E+10	1	-1E+10	1	-1E+10	1	-1E+10	1	-1E+10	1	-1E+10	1
4901784	42	C	08/28/2016	10:40	-132.370	44.923	0	140.30	0	8.8190	0	33.6920	0	26.125	0	139.115	0	192.4	4	67.7	4	-1E+10	1	-1E+10	1	-1E+10	1	-1E+10	1	-1E+10	1	-1E+10	1
4901784	42	C	08/28/2016	10:40	-132.370	44.923	0	142.60	0	8.7580	0	33.7350	0	26.168	0	141.395	0	191.8	4	67.4	4	-1E+10	1	-1E+10	1	-1E+10	1	-1E+10	1	-1E+10	1	-1E+10	1
4901784	42	C	08/28/2016	10:40	-132.370	44.923	0	145.00	0	8.7260	0	33.7640	0	26.196	0	143.773	0	191.4	4	67.2	4	-1E+10	1	-1E+10	1	-1E+10	1	-1E+10	1	-1E+10	1	-1E+10	1
4901784	42	C	08/28/2016	10:40	-132.370	44.923	0	147.20	0	8.7120	0	33.7810	0	26.211	0	145.954	0	191.2	4	67.1	4	-1E+10	1	-1E+10	1	-1E+10	1	-1E+10	1	-1E+10	1	-1E+10	1
4901784	42	C	08/28/2016	10:40	-132.370	44.923	0	149.60	0	8.7080	0	33.7840	0	26.214	0	148.333	0	191.1	4	67.1	4	-1E+10	1	-1E+10	1	-1E+10	1	-1E+10	1	-1E+10	1	-1E+10	1
4901784	42	C	08/28/2016	10:40	-132.370	44.923	0	152.80	0	8.6980	0	33.7940	0	26.224	0	151.505	0	190.6	4	66.9	4	-1E+10	1	-1E+10	1	-1E+10	1	-1E+10	1	-1E+10	1	-1E+10	1
4901784	42	C	08/28/2016	10:40	-132.370	44.923	0	155.20	0	8.6920	0	33.8050	0	26.233	0	153.883	0	190.1	4	66.7	4	-1E+10	1	-1E+10	1	-1E+10	1	-1E+10	1	-1E+10	1	-1E+10	1
4901784	42	C	08/28/2016	10:40	-132.370	44.923	0	157.80	0	8.6800	0	33.8140	0	26.242	0	156.460	0	189.8	4	66.6	4	-1E+10	1	-1E+10	1	-1E+10	1	-1E+10	1	-1E+10	1	-1E+10	1
4901784	42	C	08/28/2016	10:40	-132.370	44.923	0	160.20	0	8.6380	0	33.8270	0	26.259	0	158.839	0	189.2	4	66.3	4	-1E+10	1	-1E+10	1	-1E+10	1	-1E+10	1	-1E+10	1	-1E+10	1
4901784	42	C	08/28/2016	10:40	-132.370	44.923	0	162.80	0	8.6070	0	33.8340	0	26.269	0	161.416	0	188.8	4	66.1	4	-1E+10	1	-1E+10	1	-1E+10	1	-1E+10	1	-1E+10	1	-1E+10	1
4901784	42	C	08/28/2016	10:40	-132.370	44.923	0	165.30	0	8.6050	0	33.8650	0	26.294	0	163.894	0	188.5	4	66.1	4	-1E+10	1	-1E+10	1	-1E+10	1	-1E+10	1	-1E+10	1	-1E+10	1
4901784	42	C	08/28/2016	10:40	-132.370	44.923	0	167.80	0	8.5980	0	33.8690	0	26.298	0	166.371	0	188.2	4	65.9	4	-1E+10	1	-1E+10	1	-1E+10	1	-1E+10	1	-1E+10	1	-1E+10	1
4901784	42	C	08/28/2016	10:40	-132.370	44.923	0	170.40	0	8.5920	0	33.8710	0	26.301	0	168.948	0	187.8	4	65.8	4	-1E+10	1	-1E+10	1	-1E+10	1	-1E+10	1	-1E+10	1	-1E+10	1
4901784	42	C	08/28/2016	10:40	-132.370	44.923	0	172.10	0	8.5900	0	33.8710	0	26.301	0	170.633	0	187.5	4	65.7	4	-1E+10	1	-1E+10	1	-1E+10	1	-1E+10	1	-1E+10	1	-1E+10	1
4901784	42	C	08/28/2016	10:40	-132.370	44.923	0	174.70	0	8.5760	0	33.8760	0	26.307	0	173.210	0	186.8	4	65.4	4	-1E+10	1	-1E+10	1	-1E+10	1	-1E+10	1	-1E+10	1	-1E+10	1
4901784	42	C	08/28/2016	10:40	-132.370	44.923	0	177.40	0	8.5310	0	33.8890	0	26.324	0	175.886	0	186.0	4	65.1	4	-1E+10	1	-1E+10	1	-1E+10	1	-1E+10	1	-1E+10	1	-1E+10	1
4901784	42	C	08/28/2016	10:40	-132.370	44.923	0	180.10	0	8.4910	0	33.8990	0	26.338	0	178.561	0	185.6	4	64.9	4	-1E+10	1	-1E+10	1	-1E+10	1	-1E+10	1	-1E+10	1	-1E+10	1
4901784	42	C	08/28/2016	10:40	-132.370	44.923	0	182.70	0	8.4780	0	33.9030	0	26.344	0	181.138	0	185.0	4	64.7	4	-1E+10	1	-1E+10	1	-1E+10	1	-1E+10	1	-1E+10	1	-1E+10	1
4901784	42	C	08/28/2016	10:40	-132.370	44.923	0	184.50	0	8.4770	0	33.9030	0	26.344	0	182.922	0	184.7	4	64.5	4	-1E+10	1	-1E+10	1	-1E+10	1	-1E+10	1	-1E+10	1	-1E+10	1
4901784	42	C	08/28/2016	10:40	-132.370	44.923	0	187.20	0	8.4550	0	33.9070	0	26.350	0	185.598	0	183.6	4	64.1	4	-1E+10	1	-1E+10	1	-1E+10	1	-1E+10	1	-1E+10	1	-1E+10	1
4901784	42	C	08/28/2016	10:40	-132.370	44.923	0	189.90	0	8.4070	0	33.9100	0	26.360	0	188.273	0	182.6	4	63.7	4	-1E+10	1	-1E+10	1	-1E+10	1	-1E+10	1	-1E+10	1	-1E+10	1
4901784	42	C	08/28/2016	10:40	-132.370	44.923	0	192.60	0	8.3420	0	33.9160	0	26.375	0	190.949	0	181.7	4	63.3	4	-1E+10	1	-1E+10	1	-1E+10	1	-1E+10	1	-1E+10	1	-1E+10	1
4901784	42	C	08/28/2016	10:40	-132.370	44.923	0	195.20	0	8.2900	0	33.9160	0	26.382	0	193.525	0	181.2	4	63.1	4	-1E+10	1	-1E+10	1	-1E+10	1	-1E+10	1	-1E+10	1	-1E+10	1
4901784	42	C	08/28/2016	10:40	-132.370	44.923	0	197.80	0	8.2860	0	33.9160	0	26.383	0	196.102	0	180.5	4	62.8	4	-1E+10	1	-1E+10	1	-1E+10	1	-1E+10	1	-1E+10	1	-1E+10	1
4901784	42	C	08/28/2016	10:40	-132.370	44.923	0	200.50	0	8.2550	0	33.9210	0	26.392	0	198.777	0	179.4	4	62.4	4	-1E+10	1	-1E+10	1	-1E+10	1	-1E+10	1	-1E+10	1	-1E+10	1
4901784	42	C	08/28/2016	10:40	-132.370	44.923	0	202.30	0	8.2450	0	33.9210	0	26.393	0	200.561	0	179.0	4	62.2	4	-1E+10	1	-1E+10	1	-1E+10	1	-1E+10	1	-1E+10	1	-1E+10	1
4901784	42	C	08/28/2016	10:40	-132.370	44.923	0	204.90	0	8.1940	0	33.9230	0	26.403	0	203.137	0	177.9	4	61.8	4	-1E+10	1	-1E+10	1	-1E+10	1	-1E+10	1	-1E+10	1	-1E+10	1
4901784	42	C	08/28/2016	10:40	-132.370	44.923	0	207.50	0	8.1600	0	33.9230	0	26.408	0	205.714	0	176.9	4	61.4	4	-1E+10	1	-1E+10	1	-1E+10	1	-1E+10	1	-1E+10	1	-1E+10	1
4901784	42	C	08/28/2016	10:40	-132.370	44.923	0	210.10	0	8.1310	0	33.9220	0	26.411	0	208.290	0	175.9	4	61.0	4	-1E+10	1	-1E+10	1	-1E+10	1	-1E+10	1	-1E+10	1	-1E+10	1
4901784	42	C	08/28/2016	10:40	-132.370	44.923	0	212.60	0	8.1150	0	33.9210	0	26.413	0	210.767	0	174.7	4	60.6	4	-1E+10	1	-1E+10	1	-1E+10	1	-1E+10	1	-1E+10	1	-1E+10	1
4901784	42	C	08/28/2016	10:40	-132.370	44.923	0	215.20	0	8.0780	0	33.9200	0	26.418	0	213.343	0	173.4	4	60.1	4	-1E+10	1	-1E+10	1	-1E+10	1	-1E+10	1	-1E+10	1	-1E+10	1
4901784	42	C	08/28/2016	10:40	-132.370	44.923	0	217.70	0	8.0330	0	33.9190	0	26.423	0	215.821	0	171.6	4	59.4	4	-1E+10	1	-1E+10	1	-1E+10	1	-1E+10	1	-1E+10	1	-1E+10	1
4901784	42	C	08/28/2016	10:40	-132.370	44.923	0	220.20	0	7.9530	0	33.9190	0	26.435	0	218.298	0	169.5	4	58.6	4	-1E+10	1	-1E+10	1	-1E+10	1	-1E+10	1	-1E+10	1	-1E+10	1
4901784	42	C	08/28/2016	10:40	-132.370	44.923	0	222.70	0	7.8800	0	33.9160	0	26.444	0	220.775	0	167.6	4	57.8	4	-1E+10	1	-1E+10	1	-1E+10	1	-1E+10	1	-1E+10	1	-1E+10	1
4901784	42	C	08/28/2016	10:40	-132.370	44.923	0	225.20	0	7.7800	0	33.9150	0	26.457	0	223.252	0	166.0	4	57.1	4	-1E+10	1	-1E+10	1	-1E+10	1	-1E+10	1	-1E+10	1	-1E+10	1
4901784	42	C	08/28/2016	10:40	-132.370	44.923	0	227.70	0	7.7130	0	33.9150	0	26.467	0	225.729	0	164.5	4	56.5	4	-1E+10	1	-1E+10	1	-1E+10	1	-1E+10	1	-1E+10	1	-1E+10	1
4901784	42	C	08/28/2016	10:40	-132.370	44.923	0	230.20	0	7.6610	0	33.9140	0	26.474	0	228.206	0	162.6	4	55.8	4	-1E+10	1	-1E+10	1	-1E+10	1	-1E+10	1	-1E+10	1	-1E+10	1
4901784	42	C	08/28/2016	10:40	-132.370	44.923	0	232.70	0	7.5960	0	33.9120	0	26.482	0	230.683	0	161.0	4	55.2	4	-1E+10	1	-1E+10	1	-1E+10	1	-1E+10	1	-1E+10	1	-1E+10	1
4901784	42	C	08/28/2016	10:40	-132.370	44.923	0	235.20	0	7.5240	0	33.9120	0	26.492	0	233.160	0	159.4	4	54.5	4	-1E+10	1	-1E+10	1	-1E+10	1	-1E+10	1	-1E+10	1	-1E+10	1
4901784	42	C	08/28/2016	10:40	-132.370	44.923	0	237.70	0	7.4520	0	33.9130	0	26.503	0	235.637	0	158.1	4	54.0	4	-1E+10	1	-1E+10	1	-1E+10	1	-1E+10	1	-1E+10	1	-1E+10	1
4901784	42	C	08/28/2016	10:40	-132.370	44.923	0	240.20	0	7.4090	0	33.9130	0	26.509	0	238.113	0	157.1	4	53.6	4	-1E+10	1	-1E+10	1	-1E+10	1	-1E+10	1	-1E+10	1	-1E+10	1
4901784	42	C	08/28/2016	10:40	-132.370	44.923	0	242.70	0	7.3690	0	33.9130	0	26.515	0	240.590	0	156.0	4	53.2	4	-1E+10	1	-1E+10	1	-1E+10	1	-1E+10	1	-1E+10	1	-1E+10	1
4901784	42	C	08/28/2016	10:40	-132.370	44.923	0	245.20	0	7.3110	0	33.9100	0	26.521	0	243.067	0	155.0	4	52.8	4	-1E+10	1	-1E+10	1	-1E+10	1	-1E+10	1	-1E+10	1	-1E+10	1
4901784	42	C	08/28/2016	10:40	-132.370	44.923	0	247.80	0	7.2630	0	33.9090	0	26.526	0	245.643	0	153.9	4	52.4	4	-1E+10	1	-1E+10	1	-1E+10	1	-1E+10	1	-1E+10	1	-1E+10	1
4901784	42	C	08/28/2016	10:40	-132.370	44.923	0	250.30	0	7.2310	0	33.9100	0	26.532	0	248.120	0	152.6	4	51.9	4	-1E+10	1	-1E+10	1	-1E+10	1	-1E+10	1	-1E+10	1	-1E+10	1
4901784	42	C	08/28/2016	10:40	-132.370	44.923	0	252.70	0	7.2040	0	33.9090	0	26.535	0	250.497	0	151.3	4	51.4	4	-1E+10	1	-1E+10	1	-1E+10	1	-1E+10	1	-1E+10	1	-1E+10	1
4901784	42	C	08/28/2016	10:40	-132.370	44.923	0	255.20	0	7.1060	0	33.9130	0	26.551	0	252.974	0	150.5	4	51.0	4	-1E+10	1	-1E+10	1	-1E+10	1	-1E+10	1	-1E+10	1	-1E+10	1
4901784	42	C	08/28/2016	10:40	-132.370	44.923	0	257.60	0	7.0600	0	33.9130	0	26.558	0	255.352	0	149.9	4	50.8	4	-1E+10	1	-1E+10	1	-1E+10	1	-1E+10	1	-1E+10	1	-1E+10	1
4901784	42	C	08/28/2016	10:40	-132.370	44.923	0	260.10	0	7.0440	0	33.9130	0	26.560	0	257.828	0	149.1	4	50.4	4	-1E+10	1	-1E+10	1	-1E+10	1	-1E+10	1	-1E+10	1	-1E+10	1
4901784	42	C	08/28/2016	10:40	-132.370	44.923	0	262.60	0	7.0310	0	33.9100	0	26.559	0	260.305	0	148.1	4	50.1	4	-1E+10	1	-1E+10	1	-1E+10	1	-1E+10	1	-1E+10	1	-1E+10	1
4901784	42	C	08/28/2016	10:40	-132.370	44.923	0	265.00	0	6.9500	0	33.9130	0	26.573	0	262.682	0	147.0	4	49.6	4	-1E+10	1	-1E+10	1	-1E+10	1	-1E+10	1	-1E+10	1	-1E+10	1
4901784	42	C	08/28/2016	10:40	-132.370	44.923	0	267.50	0	6.9140	0	33.9130	0	26.578	0	265.159	0	146.2	4	49.3	4	-1E+10	1	-1E+10	1	-1E+10	1	-1E+10	1	-1E+10	1	-1E+10	1
4901784	42	C	08/28/2016	10:40	-132.370	44.923	0	270.00	0	6.8880	0	33.9140	0	26.582	0	267.635	0	145.2	4	49.0	4	-1E+10	1	-1E+10	1	-1E+10	1	-1E+10	1	-1E+10	1	-1E+10	1
4901784	42	C	08/28/2016	10:40	-132.370	44.923	0	272.40	0	6.8550	0	33.9130	0	26.586	0	270.013	0	144.2	4	48.6	4	-1E+10	1	-1E+10	1	-1E+10	1	-1E+10	1	-1E+10	1	-1E+10	1
4901784	42	C	08/28/2016	10:40	-132.370	44.923	0	275.00	0	6.8340	0	33.9120	0	26.588	0	272.588	0	143.1	4	48.2	4	-1E+10	1	-1E+10	1	-1E+10	1	-1E+10	1	-1E+10	1	-1E+10	1
4901784	42	C	08/28/2016	10:40	-132.370	44.923	0	277.40	0	6.7910	0	33.9130	0	26.594	0	274.966	0	141.7	4	47.7	4	-1E+10	1	-1E+10	1	-1E+10	1	-1E+10	1	-1E+10	1	-1E+10	1
4901784	42	C	08/28/2016	10:40	-132.370	44.923	0	280.00	0	6.7560	0	33.9120	0	26.598	0	277.541	0	140.3	4	47.2	4	-1E+10	1	-1E+10	1	-1E+10	1	-1E+10	1	-1E+10	1	-1E+10	1
4901784	42	C	08/28/2016	10:40	-132.370	44.923	0	282.50	0	6.7160	0	33.9120	0	26.604	0	280.017	0	138.7	4	46.6	4	-1E+10	1	-1E+10	1	-1E+10	1	-1E+10	1	-1E+10	1	-1E+10	1
4901784	42	C	08/28/2016	10:40	-132.370	44.923	0	285.00	0	6.6690	0	33.9120	0	26.610	0	282.494	0	137.1	4	46.0	4	-1E+10	1	-1E+10	1	-1E+10	1	-1E+10	1	-1E+10	1	-1E+10	1
4901784	42	C	08/28/2016	10:40	-132.370	44.923	0	287.50	0	6.6240	0	33.9110	0	26.615	0	284.970	0	135.4	4	45.4	4	-1E+10	1	-1E+10	1	-1E+10	1	-1E+10	1	-1E+10	1	-1E+10	1
4901784	42	C	08/28/2016	10:40	-132.370	44.923	0	290.00	0	6.5880	0	33.9100	0	26.619	0	287.446	0	133.3	4	44.6	4	-1E+10	1	-1E+10	1	-1E+10	1	-1E+10	1	-1E+10	1	-1E+10	1
4901784	42	C	08/28/2016	10:40	-132.370	44.923	0	292.60	0	6.5440	0	33.9090	0	26.624	0	290.022	0	130.9	4	43.8	4	-1E+10	1	-1E+10	1	-1E+10	1	-1E+10	1	-1E+10	1	-1E+10	1
4901784	42	C	08/28/2016	10:40	-132.370	44.923	0	295.00	0	6.4650	0	33.9070	0	26.633	0	292.399	0	128.4	4	42.9	4	-1E+10	1	-1E+10	1	-1E+10	1	-1E+10	1	-1E+10	1	-1E+10	1
4901784	42	C	08/28/2016	10:40	-132.370	44.923	0	297.50	0	6.3630	0	33.9090	0	26.648	0	294.875	0	125.9	4	42.0	4	-1E+10	1	-1E+10	1	-1E+10	1	-1E+10	1	-1E+10	1	-1E+10	1
4901784	42	C	08/28/2016	10:40	-132.370	44.923	0	300.00	0	6.2960	0	33.9110	0	26.658	0	297.351	0	124.6	4	41.5	4	-1E+10	1	-1E+10	1	-1E+10	1	-1E+10	1	-1E+10	1	-1E+10	1
4901784	42	C	08/28/2016	10:40	-132.370	44.923	0	302.60	0	6.2780	0	33.9100	0	26.660	0	299.926	0	123.1	4	40.9	4	-1E+10	1	-1E+10	1	-1E+10	1	-1E+10	1	-1E+10	1	-1E+10	1
4901784	42	C	08/28/2016	10:40	-132.370	44.923	0	305.10	0	6.2270	0	33.9110	0	26.667	0	302.402	0	121.2	4	40.3	4	-1E+10	1	-1E+10	1	-1E+10	1	-1E+10	1	-1E+10	1	-1E+10	1
4901784	42	C	08/28/2016	10:40	-132.370	44.923	0	307.70	0	6.1730	0	33.9110	0	26.674	0	304.977	0	119.5	4	39.6	4	-1E+10	1	-1E+10	1	-1E+10	1	-1E+10	1	-1E+10	1	-1E+10	1
4901784	42	C	08/28/2016	10:40	-132.370	44.923	0	310.20	0	6.1280	0	33.9120	0	26.680	0	307.453	0	117.7	4	39.0	4	-1E+10	1	-1E+10	1	-1E+10	1	-1E+10	1	-1E+10	1	-1E+10	1
4901784	42	C	08/28/2016	10:40	-132.370	44.923	0	312.80	0	6.0600	0	33.9100	0	26.687	0	310.028	0	116.1	4	38.4	4	-1E+10	1	-1E+10	1	-1E+10	1	-1E+10	1	-1E+10	1	-1E+10	1
4901784	42	C	08/28/2016	10:40	-132.370	44.923	0	314.50	0	6.0350	0	33.9110	0	26.691	0	311.712	0	115.1	4	38.1	4	-1E+10	1	-1E+10	1	-1E+10	1	-1E+10	1	-1E+10	1	-1E+10	1
4901784	42	C	08/28/2016	10:40	-132.370	44.923	0	317.30	0	5.9870	0	33.9140	0	26.700	0	314.485	0	113.7	4	37.6	4	-1E+10	1	-1E+10	1	-1E+10	1	-1E+10	1	-1E+10	1	-1E+10	1
4901784	42	C	08/28/2016	10:40	-132.370	44.923	0	319.90	0	5.9550	0	33.9150	0	26.704	0	317.060	0	112.5	4	37.1	4	-1E+10	1	-1E+10	1	-1E+10	1	-1E+10	1	-1E+10	1	-1E+10	1
4901784	42	C	08/28/2016	10:40	-132.370	44.923	0	322.60	0	5.9440	0	33.9140	0	26.705	0	319.734	0	111.2	4	36.7	4	-1E+10	1	-1E+10	1	-1E+10	1	-1E+10	1	-1E+10	1	-1E+10	1
4901784	42	C	08/28/2016	10:40	-132.370	44.923	0	325.20	0	5.9240	0	33.9130	0	26.707	0	322.309	0	109.4	4	36.1	4	-1E+10	1	-1E+10	1	-1E+10	1	-1E+10	1	-1E+10	1	-1E+10	1
4901784	42	C	08/28/2016	10:40	-132.370	44.923	0	327.80	0	5.8670	0	33.9160	0	26.716	0	324.884	0	107.7	4	35.5	4	-1E+10	1	-1E+10	1	-1E+10	1	-1E+10	1	-1E+10	1	-1E+10	1
4901784	42	C	08/28/2016	10:40	-132.370	44.923	0	330.50	0	5.8370	0	33.9130	0	26.718	0	327.558	0	106.1	4	34.9	4	-1E+10	1	-1E+10	1	-1E+10	1	-1E+10	1	-1E+10	1	-1E+10	1
4901784	42	C	08/28/2016	10:40	-132.370	44.923	0	332.30	0	5.7810	0	33.9170	0	26.728	0	329.340	0	105.0	4	34.5	4	-1E+10	1	-1E+10	1	-1E+10	1	-1E+10	1	-1E+10	1	-1E+10	1
4901784	42	C	08/28/2016	10:40	-132.370	44.923	0	334.90	0	5.7450	0	33.9160	0	26.731	0	331.915	0	103.6	4	34.0	4	-1E+10	1	-1E+10	1	-1E+10	1	-1E+10	1	-1E+10	1	-1E+10	1
4901784	42	C	08/28/2016	10:40	-132.370	44.923	0	337.60	0	5.7200	0	33.9150	0	26.734	0	334.589	0	102.0	4	33.5	4	-1E+10	1	-1E+10	1	-1E+10	1	-1E+10	1	-1E+10	1	-1E+10	1
4901784	42	C	08/28/2016	10:40	-132.370	44.923	0	340.30	0	5.6790	0	33.9170	0	26.740	0	337.262	0	100.0	4	32.8	4	-1E+10	1	-1E+10	1	-1E+10	1	-1E+10	1	-1E+10	1	-1E+10	1
4901784	42	C	08/28/2016	10:40	-132.370	44.923	0	342.90	0	5.6520	0	33.9150	0	26.742	0	339.837	0	97.9	4	32.1	4	-1E+10	1	-1E+10	1	-1E+10	1	-1E+10	1	-1E+10	1	-1E+10	1
4901784	42	C	08/28/2016	10:40	-132.370	44.923	0	344.70	0	5.5670	0	33.9200	0	26.756	0	341.619	0	96.4	4	31.5	4	-1E+10	1	-1E+10	1	-1E+10	1	-1E+10	1	-1E+10	1	-1E+10	1
4901784	42	C	08/28/2016	10:40	-132.370	44.923	0	347.40	0	5.5480	0	33.9210	0	26.759	0	344.293	0	94.9	4	31.0	4	-1E+10	1	-1E+10	1	-1E+10	1	-1E+10	1	-1E+10	1	-1E+10	1
4901784	42	C	08/28/2016	10:40	-132.370	44.923	0	350.00	0	5.5240	0	33.9210	0	26.762	0	346.868	0	93.3	4	30.5	4	-1E+10	1	-1E+10	1	-1E+10	1	-1E+10	1	-1E+10	1	-1E+10	1
4901784	42	C	08/28/2016	10:40	-132.370	44.923	0	352.70	0	5.4930	0	33.9240	0	26.768	0	349.541	0	91.0	4	29.7	4	-1E+10	1	-1E+10	1	-1E+10	1	-1E+10	1	-1E+10	1	-1E+10	1
4901784	42	C	08/28/2016	10:40	-132.370	44.923	0	355.40	0	5.4770	0	33.9270	0	26.772	0	352.215	0	88.5	4	28.9	4	-1E+10	1	-1E+10	1	-1E+10	1	-1E+10	1	-1E+10	1	-1E+10	1
4901784	42	C	08/28/2016	10:40	-132.370	44.923	0	357.20	0	5.4680	0	33.9300	0	26.776	0	353.997	0	86.8	4	28.3	4	-1E+10	1	-1E+10	1	-1E+10	1	-1E+10	1	-1E+10	1	-1E+10	1
4901784	42	C	08/28/2016	10:40	-132.370	44.923	0	360.00	0	5.4530	0	33.9330	0	26.780	0	356.770	0	84.6	4	27.6	4	-1E+10	1	-1E+10	1	-1E+10	1	-1E+10	1	-1E+10	1	-1E+10	1
4901784	42	C	08/28/2016	10:40	-132.370	44.923	0	362.70	0	5.4320	0	33.9350	0	26.784	0	359.443	0	82.3	4	26.8	4	-1E+10	1	-1E+10	1	-1E+10	1	-1E+10	1	-1E+10	1	-1E+10	1
4901784	42	C	08/28/2016	10:40	-132.370	44.923	0	364.50	0	5.4010	0	33.9400	0	26.792	0	361.225	0	80.4	4	26.2	4	-1E+10	1	-1E+10	1	-1E+10	1	-1E+10	1	-1E+10	1	-1E+10	1
4901784	42	C	08/28/2016	10:40	-132.370	44.923	0	367.30	0	5.3940	0	33.9470	0	26.798	0	363.998	0	78.2	4	25.5	4	-1E+10	1	-1E+10	1	-1E+10	1	-1E+10	1	-1E+10	1	-1E+10	1
4901784	42	C	08/28/2016	10:40	-132.370	44.923	0	370.00	0	5.3890	0	33.9510	0	26.802	0	366.671	0	77.1	4	25.1	4	-1E+10	1	-1E+10	1	-1E+10	1	-1E+10	1	-1E+10	1	-1E+10	1
4901784	42	C	08/28/2016	10:40	-132.370	44.923	0	371.90	0	5.3860	0	33.9520	0	26.803	0	368.552	0	76.6	4	24.9	4	-1E+10	1	-1E+10	1	-1E+10	1	-1E+10	1	-1E+10	1	-1E+10	1
4901784	42	C	08/28/2016	10:40	-132.370	44.923	0	374.70	0	5.3760	0	33.9530	0	26.805	0	371.325	0	75.6	4	24.6	4	-1E+10	1	-1E+10	1	-1E+10	1	-1E+10	1	-1E+10	1	-1E+10	1
4901784	42	C	08/28/2016	10:40	-132.370	44.923	0	378.10	0	5.3640	0	33.9550	0	26.808	0	374.691	0	74.2	4	24.2	4	-1E+10	1	-1E+10	1	-1E+10	1	-1E+10	1	-1E+10	1	-1E+10	1
4901784	42	C	08/28/2016	10:40	-132.370	44.923	0	380.00	0	5.3580	0	33.9570	0	26.811	0	376.572	0	73.0	4	23.8	4	-1E+10	1	-1E+10	1	-1E+10	1	-1E+10	1	-1E+10	1	-1E+10	1
4901784	42	C	08/28/2016	10:40	-132.370	44.923	0	382.40	0	5.3550	0	33.9580	0	26.812	0	378.948	0	71.2	4	23.2	4	-1E+10	1	-1E+10	1	-1E+10	1	-1E+10	1	-1E+10	1	-1E+10	1
4901784	42	C	08/28/2016	10:40	-132.370	44.923	0	384.70	0	5.3460	0	33.9630	0	26.817	0	381.225	0	68.9	4	22.4	4	-1E+10	1	-1E+10	1	-1E+10	1	-1E+10	1	-1E+10	1	-1E+10	1
4901784	42	C	08/28/2016	10:40	-132.370	44.923	0	387.10	0	5.3500	0	33.9670	0	26.819	0	383.601	0	66.6	4	21.7	4	-1E+10	1	-1E+10	1	-1E+10	1	-1E+10	1	-1E+10	1	-1E+10	1
4901784	42	C	08/28/2016	10:40	-132.370	44.923	0	390.30	0	5.3550	0	33.9740	0	26.824	0	386.769	0	63.4	4	20.6	4	-1E+10	1	-1E+10	1	-1E+10	1	-1E+10	1	-1E+10	1	-1E+10	1
4901784	42	C	08/28/2016	10:40	-132.370	44.923	0	392.80	0	5.3620	0	33.9790	0	26.828	0	389.244	0	61.4	4	20.0	4	-1E+10	1	-1E+10	1	-1E+10	1	-1E+10	1	-1E+10	1	-1E+10	1
4901784	42	C	08/28/2016	10:40	-132.370	44.923	0	395.20	0	5.3560	0	33.9840	0	26.832	0	391.620	0	59.8	4	19.5	4	-1E+10	1	-1E+10	1	-1E+10	1	-1E+10	1	-1E+10	1	-1E+10	1
4901784	42	C	08/28/2016	10:40	-132.370	44.923	0	397.60	0	5.3490	0	33.9880	0	26.836	0	393.996	0	58.6	4	19.1	4	-1E+10	1	-1E+10	1	-1E+10	1	-1E+10	1	-1E+10	1	-1E+10	1
4901784	42	C	08/28/2016	10:40	-132.370	44.923	0	400.10	0	5.3390	0	33.9910	0	26.840	0	396.471	0	57.7	4	18.8	4	-1E+10	1	-1E+10	1	-1E+10	1	-1E+10	1	-1E+10	1	-1E+10	1
4901784	42	C	08/28/2016	10:40	-132.370	44.923	0	402.60	0	5.3310	0	33.9930	0	26.842	0	398.946	0	56.9	4	18.5	4	-1E+10	1	-1E+10	1	-1E+10	1	-1E+10	1	-1E+10	1	-1E+10	1
4901784	42	C	08/28/2016	10:40	-132.370	44.923	0	405.20	0	5.3200	0	33.9940	0	26.845	0	401.520	0	55.9	4	18.2	4	-1E+10	1	-1E+10	1	-1E+10	1	-1E+10	1	-1E+10	1	-1E+10	1
4901784	42	C	08/28/2016	10:40	-132.370	44.923	0	407.70	0	5.3230	0	33.9960	0	26.846	0	403.995	0	54.6	4	17.8	4	-1E+10	1	-1E+10	1	-1E+10	1	-1E+10	1	-1E+10	1	-1E+10	1
4901784	42	C	08/28/2016	10:40	-132.370	44.923	0	410.20	0	5.3260	0	33.9990	0	26.848	0	406.470	0	53.0	4	17.3	4	-1E+10	1	-1E+10	1	-1E+10	1	-1E+10	1	-1E+10	1	-1E+10	1
4901784	42	C	08/28/2016	10:40	-132.370	44.923	0	412.90	0	5.3100	0	34.0040	0	26.854	0	409.143	0	51.6	4	16.8	4	-1E+10	1	-1E+10	1	-1E+10	1	-1E+10	1	-1E+10	1	-1E+10	1
4901784	42	C	08/28/2016	10:40	-132.370	44.923	0	414.60	0	5.3130	0	34.0070	0	26.856	0	410.826	0	50.7	4	16.5	4	-1E+10	1	-1E+10	1	-1E+10	1	-1E+10	1	-1E+10	1	-1E+10	1
4901784	42	C	08/28/2016	10:40	-132.370	44.923	0	417.20	0	5.3090	0	34.0130	0	26.861	0	413.399	0	49.8	4	16.2	4	-1E+10	1	-1E+10	1	-1E+10	1	-1E+10	1	-1E+10	1	-1E+10	1
4901784	42	C	08/28/2016	10:40	-132.370	44.923	0	419.80	0	5.3040	0	34.0140	0	26.862	0	415.973	0	49.3	4	16.0	4	-1E+10	1	-1E+10	1	-1E+10	1	-1E+10	1	-1E+10	1	-1E+10	1
4901784	42	C	08/28/2016	10:40	-132.370	44.923	0	422.40	0	5.2890	0	34.0160	0	26.866	0	418.547	0	48.8	4	15.9	4	-1E+10	1	-1E+10	1	-1E+10	1	-1E+10	1	-1E+10	1	-1E+10	1
4901784	42	C	08/28/2016	10:40	-132.370	44.923	0	424.90	0	5.2810	0	34.0170	0	26.868	0	421.021	0	48.2	4	15.7	4	-1E+10	1	-1E+10	1	-1E+10	1	-1E+10	1	-1E+10	1	-1E+10	1
4901784	42	C	08/28/2016	10:40	-132.370	44.923	0	427.60	0	5.2750	0	34.0190	0	26.870	0	423.694	0	47.8	4	15.5	4	-1E+10	1	-1E+10	1	-1E+10	1	-1E+10	1	-1E+10	1	-1E+10	1
4901784	42	C	08/28/2016	10:40	-132.370	44.923	0	430.20	0	5.2610	0	34.0200	0	26.872	0	426.268	0	47.3	4	15.4	4	-1E+10	1	-1E+10	1	-1E+10	1	-1E+10	1	-1E+10	1	-1E+10	1
4901784	42	C	08/28/2016	10:40	-132.370	44.923	0	432.80	0	5.2540	0	34.0220	0	26.875	0	428.841	0	46.8	4	15.2	4	-1E+10	1	-1E+10	1	-1E+10	1	-1E+10	1	-1E+10	1	-1E+10	1
4901784	42	C	08/28/2016	10:40	-132.370	44.923	0	435.40	0	5.2430	0	34.0230	0	26.877	0	431.415	0	46.3	4	15.0	4	-1E+10	1	-1E+10	1	-1E+10	1	-1E+10	1	-1E+10	1	-1E+10	1
4901784	42	C	08/28/2016	10:40	-132.370	44.923	0	437.20	0	5.2330	0	34.0240	0	26.879	0	433.196	0	46.0	4	14.9	4	-1E+10	1	-1E+10	1	-1E+10	1	-1E+10	1	-1E+10	1	-1E+10	1
4901784	42	C	08/28/2016	10:40	-132.370	44.923	0	439.90	0	5.2150	0	34.0270	0	26.883	0	435.869	0	45.5	4	14.8	4	-1E+10	1	-1E+10	1	-1E+10	1	-1E+10	1	-1E+10	1	-1E+10	1
4901784	42	C	08/28/2016	10:40	-132.370	44.923	0	442.60	0	5.2110	0	34.0270	0	26.884	0	438.541	0	45.2	4	14.7	4	-1E+10	1	-1E+10	1	-1E+10	1	-1E+10	1	-1E+10	1	-1E+10	1
4901784	42	C	08/28/2016	10:40	-132.370	44.923	0	445.30	0	5.1950	0	34.0300	0	26.888	0	441.213	0	44.8	4	14.5	4	-1E+10	1	-1E+10	1	-1E+10	1	-1E+10	1	-1E+10	1	-1E+10	1
4901784	42	C	08/28/2016	10:40	-132.370	44.923	0	448.00	0	5.1830	0	34.0300	0	26.889	0	443.886	0	44.4	4	14.4	4	-1E+10	1	-1E+10	1	-1E+10	1	-1E+10	1	-1E+10	1	-1E+10	1
4901784	42	C	08/28/2016	10:40	-132.370	44.923	0	449.90	0	5.1670	0	34.0320	0	26.893	0	445.766	0	44.2	4	14.3	4	-1E+10	1	-1E+10	1	-1E+10	1	-1E+10	1	-1E+10	1	-1E+10	1
4901784	42	C	08/28/2016	10:40	-132.370	44.923	0	452.60	0	5.1620	0	34.0320	0	26.893	0	448.439	0	43.9	4	14.2	4	-1E+10	1	-1E+10	1	-1E+10	1	-1E+10	1	-1E+10	1	-1E+10	1
4901784	42	C	08/28/2016	10:40	-132.370	44.923	0	455.30	0	5.1490	0	34.0340	0	26.897	0	451.111	0	43.5	4	14.1	4	-1E+10	1	-1E+10	1	-1E+10	1	-1E+10	1	-1E+10	1	-1E+10	1
4901784	42	C	08/28/2016	10:40	-132.370	44.923	0	457.10	0	5.1420	0	34.0350	0	26.898	0	452.892	0	43.3	4	14.0	4	-1E+10	1	-1E+10	1	-1E+10	1	-1E+10	1	-1E+10	1	-1E+10	1
4901784	42	C	08/28/2016	10:40	-132.370	44.923	0	459.90	0	5.1320	0	34.0370	0	26.901	0	455.663	0	43.1	4	14.0	4	-1E+10	1	-1E+10	1	-1E+10	1	-1E+10	1	-1E+10	1	-1E+10	1
4901784	42	C	08/28/2016	10:40	-132.370	44.923	0	462.60	0	5.1280	0	34.0370	0	26.901	0	458.336	0	42.7	4	13.8	4	-1E+10	1	-1E+10	1	-1E+10	1	-1E+10	1	-1E+10	1	-1E+10	1
4901784	42	C	08/28/2016	10:40	-132.370	44.923	0	465.30	0	5.1220	0	34.0380	0	26.903	0	461.008	0	42.3	4	13.7	4	-1E+10	1	-1E+10	1	-1E+10	1	-1E+10	1	-1E+10	1	-1E+10	1
4901784	42	C	08/28/2016	10:40	-132.370	44.923	0	468.00	0	5.1060	0	34.0390	0	26.906	0	463.680	0	41.9	4	13.6	4	-1E+10	1	-1E+10	1	-1E+10	1	-1E+10	1	-1E+10	1	-1E+10	1
4901784	42	C	08/28/2016	10:40	-132.370	44.923	0	469.80	0	5.0960	0	34.0400	0	26.908	0	465.461	0	41.7	4	13.5	4	-1E+10	1	-1E+10	1	-1E+10	1	-1E+10	1	-1E+10	1	-1E+10	1
4901784	42	C	08/28/2016	10:40	-132.370	44.923	0	472.50	0	5.0730	0	34.0430	0	26.913	0	468.133	0	41.4	4	13.4	4	-1E+10	1	-1E+10	1	-1E+10	1	-1E+10	1	-1E+10	1	-1E+10	1
4901784	42	C	08/28/2016	10:40	-132.370	44.923	0	475.30	0	5.0630	0	34.0440	0	26.915	0	470.904	0	41.1	4	13.3	4	-1E+10	1	-1E+10	1	-1E+10	1	-1E+10	1	-1E+10	1	-1E+10	1
4901784	42	C	08/28/2016	10:40	-132.370	44.923	0	477.20	0	5.0620	0	34.0430	0	26.914	0	472.784	0	41.0	4	13.3	4	-1E+10	1	-1E+10	1	-1E+10	1	-1E+10	1	-1E+10	1	-1E+10	1
4901784	42	C	08/28/2016	10:40	-132.370	44.923	0	480.00	0	5.0500	0	34.0440	0	26.916	0	475.555	0	40.7	4	13.1	4	-1E+10	1	-1E+10	1	-1E+10	1	-1E+10	1	-1E+10	1	-1E+10	1
4901784	42	C	08/28/2016	10:40	-132.370	44.923	0	482.80	0	5.0280	0	34.0460	0	26.920	0	478.326	0	40.4	4	13.1	4	-1E+10	1	-1E+10	1	-1E+10	1	-1E+10	1	-1E+10	1	-1E+10	1
4901784	42	C	08/28/2016	10:40	-132.370	44.923	0	484.60	0	5.0240	0	34.0470	0	26.921	0	480.107	0	40.2	4	13.0	4	-1E+10	1	-1E+10	1	-1E+10	1	-1E+10	1	-1E+10	1	-1E+10	1
4901784	42	C	08/28/2016	10:40	-132.370	44.923	0	487.40	0	5.0230	0	34.0470	0	26.922	0	482.878	0	40.0	4	12.9	4	-1E+10	1	-1E+10	1	-1E+10	1	-1E+10	1	-1E+10	1	-1E+10	1
4901784	42	C	08/28/2016	10:40	-132.370	44.923	0	490.20	0	5.0110	0	34.0480	0	26.924	0	485.649	0	39.5	4	12.8	4	-1E+10	1	-1E+10	1	-1E+10	1	-1E+10	1	-1E+10	1	-1E+10	1
4901784	42	C	08/28/2016	10:40	-132.370	44.923	0	492.10	0	5.0000	0	34.0490	0	26.926	0	487.529	0	39.3	4	12.7	4	-1E+10	1	-1E+10	1	-1E+10	1	-1E+10	1	-1E+10	1	-1E+10	1
4901784	42	C	08/28/2016	10:40	-132.370	44.923	0	494.90	0	4.9890	0	34.0490	0	26.927	0	490.300	0	38.9	4	12.6	4	-1E+10	1	-1E+10	1	-1E+10	1	-1E+10	1	-1E+10	1	-1E+10	1
4901784	42	C	08/28/2016	10:40	-132.370	44.923	0	497.80	0	4.9580	0	34.0530	0	26.934	0	493.169	0	38.5	4	12.4	4	-1E+10	1	-1E+10	1	-1E+10	1	-1E+10	1	-1E+10	1	-1E+10	1
4901784	42	C	08/28/2016	10:40	-132.370	44.923	0	499.70	0	4.9570	0	34.0530	0	26.934	0	495.049	0	38.4	4	12.4	4	-1E+10	1	-1E+10	1	-1E+10	1	-1E+10	1	-1E+10	1	-1E+10	1
4901784	42	C	08/28/2016	10:40	-132.370	44.923	0	505.10	0	4.9240	0	34.0560	0	26.940	0	500.393	0	37.8	4	12.2	4	-1E+10	1	-1E+10	1	-1E+10	1	-1E+10	1	-1E+10	1	-1E+10	1
4901784	42	C	08/28/2016	10:40	-132.370	44.923	0	509.40	0	4.9160	0	34.0570	0	26.942	0	504.647	0	37.5	4	12.1	4	-1E+10	1	-1E+10	1	-1E+10	1	-1E+10	1	-1E+10	1	-1E+10	1
4901784	42	C	08/28/2016	10:40	-132.370	44.923	0	515.00	0	4.9000	0	34.0580	0	26.944	0	510.188	0	37.0	4	11.9	4	-1E+10	1	-1E+10	1	-1E+10	1	-1E+10	1	-1E+10	1	-1E+10	1
4901784	42	C	08/28/2016	10:40	-132.370	44.923	0	520.60	0	4.8780	0	34.0600	0	26.949	0	515.729	0	36.2	4	11.7	4	-1E+10	1	-1E+10	1	-1E+10	1	-1E+10	1	-1E+10	1	-1E+10	1
4901784	42	C	08/28/2016	10:40	-132.370	44.923	0	525.50	0	4.8420	0	34.0640	0	26.956	0	520.577	0	35.6	4	11.5	4	-1E+10	1	-1E+10	1	-1E+10	1	-1E+10	1	-1E+10	1	-1E+10	1
4901784	42	C	08/28/2016	10:40	-132.370	44.923	0	530.40	0	4.8250	0	34.0660	0	26.959	0	525.425	0	35.1	4	11.3	4	-1E+10	1	-1E+10	1	-1E+10	1	-1E+10	1	-1E+10	1	-1E+10	1
4901784	42	C	08/28/2016	10:40	-132.370	44.923	0	535.40	0	4.8060	0	34.0670	0	26.962	0	530.372	0	34.3	4	11.0	4	-1E+10	1	-1E+10	1	-1E+10	1	-1E+10	1	-1E+10	1	-1E+10	1
4901784	42	C	08/28/2016	10:40	-132.370	44.923	0	540.50	0	4.7770	0	34.0720	0	26.970	0	535.417	0	33.7	4	10.8	4	-1E+10	1	-1E+10	1	-1E+10	1	-1E+10	1	-1E+10	1	-1E+10	1
4901784	42	C	08/28/2016	10:40	-132.370	44.923	0	545.60	0	4.7660	0	34.0730	0	26.972	0	540.463	0	33.1	4	10.6	4	-1E+10	1	-1E+10	1	-1E+10	1	-1E+10	1	-1E+10	1	-1E+10	1
4901784	42	C	08/28/2016	10:40	-132.370	44.923	0	550.80	0	4.7340	0	34.0770	0	26.978	0	545.607	0	32.4	4	10.4	4	-1E+10	1	-1E+10	1	-1E+10	1	-1E+10	1	-1E+10	1	-1E+10	1
4901784	42	C	08/28/2016	10:40	-132.370	44.923	0	555.80	0	4.7020	0	34.0800	0	26.984	0	550.553	0	31.8	4	10.2	4	-1E+10	1	-1E+10	1	-1E+10	1	-1E+10	1	-1E+10	1	-1E+10	1
4901784	42	C	08/28/2016	10:40	-132.370	44.923	0	560.10	0	4.6750	0	34.0830	0	26.990	0	554.807	0	31.4	4	10.1	4	-1E+10	1	-1E+10	1	-1E+10	1	-1E+10	1	-1E+10	1	-1E+10	1
4901784	42	C	08/28/2016	10:40	-132.370	44.923	0	564.30	0	4.6460	0	34.0860	0	26.995	0	558.961	0	31.1	4	10.0	4	-1E+10	1	-1E+10	1	-1E+10	1	-1E+10	1	-1E+10	1	-1E+10	1
4901784	42	C	08/28/2016	10:40	-132.370	44.923	0	569.40	0	4.6220	0	34.0880	0	26.999	0	564.006	0	30.6	4	9.8	4	-1E+10	1	-1E+10	1	-1E+10	1	-1E+10	1	-1E+10	1	-1E+10	1
4901784	42	C	08/28/2016	10:40	-132.370	44.923	0	574.60	0	4.6040	0	34.0910	0	27.004	0	569.150	0	30.0	4	9.6	4	-1E+10	1	-1E+10	1	-1E+10	1	-1E+10	1	-1E+10	1	-1E+10	1
4901784	42	C	08/28/2016	10:40	-132.370	44.923	0	579.90	0	4.5770	0	34.0940	0	27.009	0	574.392	0	29.2	4	9.3	4	-1E+10	1	-1E+10	1	-1E+10	1	-1E+10	1	-1E+10	1	-1E+10	1
4901784	42	C	08/28/2016	10:40	-132.370	44.923	0	585.10	0	4.5570	0	34.1000	0	27.016	0	579.536	0	28.3	4	9.0	4	-1E+10	1	-1E+10	1	-1E+10	1	-1E+10	1	-1E+10	1	-1E+10	1
4901784	42	C	08/28/2016	10:40	-132.370	44.923	0	590.40	0	4.5420	0	34.1030	0	27.020	0	584.778	0	27.6	4	8.8	4	-1E+10	1	-1E+10	1	-1E+10	1	-1E+10	1	-1E+10	1	-1E+10	1
4901784	42	C	08/28/2016	10:40	-132.370	44.923	0	595.70	0	4.5160	0	34.1090	0	27.028	0	590.020	0	26.9	4	8.6	4	-1E+10	1	-1E+10	1	-1E+10	1	-1E+10	1	-1E+10	1	-1E+10	1
4901784	42	C	08/28/2016	10:40	-132.370	44.923	0	600.20	0	4.5040	0	34.1120	0	27.032	0	594.471	0	26.6	4	8.5	4	-1E+10	1	-1E+10	1	-1E+10	1	-1E+10	1	-1E+10	1	-1E+10	1
4901784	42	C	08/28/2016	10:40	-132.370	44.923	0	604.60	0	4.5010	0	34.1130	0	27.033	0	598.822	0	26.4	4	8.4	4	-1E+10	1	-1E+10	1	-1E+10	1	-1E+10	1	-1E+10	1	-1E+10	1
4901784	42	C	08/28/2016	10:40	-132.370	44.923	0	610.10	0	4.4920	0	34.1140	0	27.035	0	604.262	0	26.0	4	8.3	4	-1E+10	1	-1E+10	1	-1E+10	1	-1E+10	1	-1E+10	1	-1E+10	1
4901784	42	C	08/28/2016	10:40	-132.370	44.923	0	615.50	0	4.4840	0	34.1150	0	27.036	0	609.602	0	25.4	4	8.1	4	-1E+10	1	-1E+10	1	-1E+10	1	-1E+10	1	-1E+10	1	-1E+10	1
4901784	42	C	08/28/2016	10:40	-132.370	44.923	0	620.00	0	4.4670	0	34.1190	0	27.041	0	614.052	0	24.5	4	7.8	4	-1E+10	1	-1E+10	1	-1E+10	1	-1E+10	1	-1E+10	1	-1E+10	1
4901784	42	C	08/28/2016	10:40	-132.370	44.923	0	624.60	0	4.4350	0	34.1280	0	27.052	0	618.601	0	23.8	4	7.6	4	-1E+10	1	-1E+10	1	-1E+10	1	-1E+10	1	-1E+10	1	-1E+10	1
4901784	42	C	08/28/2016	10:40	-132.370	44.923	0	630.10	0	4.4290	0	34.1310	0	27.055	0	624.040	0	23.3	4	7.4	4	-1E+10	1	-1E+10	1	-1E+10	1	-1E+10	1	-1E+10	1	-1E+10	1
4901784	42	C	08/28/2016	10:40	-132.370	44.923	0	635.50	0	4.4190	0	34.1340	0	27.058	0	629.380	0	22.7	4	7.2	4	-1E+10	1	-1E+10	1	-1E+10	1	-1E+10	1	-1E+10	1	-1E+10	1
4901784	42	C	08/28/2016	10:40	-132.370	44.923	0	640.00	0	4.4060	0	34.1380	0	27.063	0	633.830	0	22.0	4	7.0	4	-1E+10	1	-1E+10	1	-1E+10	1	-1E+10	1	-1E+10	1	-1E+10	1
4901784	42	C	08/28/2016	10:40	-132.370	44.923	0	644.60	0	4.3840	0	34.1430	0	27.069	0	638.379	0	21.4	4	6.8	4	-1E+10	1	-1E+10	1	-1E+10	1	-1E+10	1	-1E+10	1	-1E+10	1
4901784	42	C	08/28/2016	10:40	-132.370	44.923	0	650.10	0	4.3500	0	34.1500	0	27.079	0	643.817	0	20.8	4	6.6	4	-1E+10	1	-1E+10	1	-1E+10	1	-1E+10	1	-1E+10	1	-1E+10	1
4901784	42	C	08/28/2016	10:40	-132.370	44.923	0	655.60	0	4.3230	0	34.1550	0	27.086	0	649.255	0	20.3	4	6.5	4	-1E+10	1	-1E+10	1	-1E+10	1	-1E+10	1	-1E+10	1	-1E+10	1
4901784	42	C	08/28/2016	10:40	-132.370	44.923	0	660.10	0	4.3080	0	34.1590	0	27.090	0	653.705	0	20.0	4	6.3	4	-1E+10	1	-1E+10	1	-1E+10	1	-1E+10	1	-1E+10	1	-1E+10	1
4901784	42	C	08/28/2016	10:40	-132.370	44.923	0	664.80	0	4.2960	0	34.1620	0	27.094	0	658.352	0	19.7	4	6.3	4	-1E+10	1	-1E+10	1	-1E+10	1	-1E+10	1	-1E+10	1	-1E+10	1
4901784	42	C	08/28/2016	10:40	-132.370	44.923	0	670.40	0	4.2850	0	34.1640	0	27.097	0	663.889	0	19.5	4	6.2	4	-1E+10	1	-1E+10	1	-1E+10	1	-1E+10	1	-1E+10	1	-1E+10	1
4901784	42	C	08/28/2016	10:40	-132.370	44.923	0	675.10	0	4.2810	0	34.1650	0	27.098	0	668.535	0	19.2	4	6.1	4	-1E+10	1	-1E+10	1	-1E+10	1	-1E+10	1	-1E+10	1	-1E+10	1
4901784	42	C	08/28/2016	10:40	-132.370	44.923	0	679.80	0	4.2690	0	34.1670	0	27.101	0	673.182	0	18.8	4	6.0	4	-1E+10	1	-1E+10	1	-1E+10	1	-1E+10	1	-1E+10	1	-1E+10	1
4901784	42	C	08/28/2016	10:40	-132.370	44.923	0	685.50	0	4.2410	0	34.1740	0	27.109	0	678.817	0	18.3	4	5.8	4	-1E+10	1	-1E+10	1	-1E+10	1	-1E+10	1	-1E+10	1	-1E+10	1
4901784	42	C	08/28/2016	10:40	-132.370	44.923	0	690.10	0	4.2280	0	34.1780	0	27.114	0	683.365	0	18.1	4	5.7	4	-1E+10	1	-1E+10	1	-1E+10	1	-1E+10	1	-1E+10	1	-1E+10	1
4901784	42	C	08/28/2016	10:40	-132.370	44.923	0	694.70	0	4.2150	0	34.1800	0	27.117	0	687.912	0	17.7	4	5.6	4	-1E+10	1	-1E+10	1	-1E+10	1	-1E+10	1	-1E+10	1	-1E+10	1
4901784	42	C	08/28/2016	10:40	-132.370	44.923	0	700.30	0	4.1950	0	34.1850	0	27.123	0	693.448	0	17.3	4	5.5	4	-1E+10	1	-1E+10	1	-1E+10	1	-1E+10	1	-1E+10	1	-1E+10	1
4901784	42	C	08/28/2016	10:40	-132.370	44.923	0	704.90	0	4.1880	0	34.1870	0	27.125	0	697.996	0	17.0	4	5.4	4	-1E+10	1	-1E+10	1	-1E+10	1	-1E+10	1	-1E+10	1	-1E+10	1
4901784	42	C	08/28/2016	10:40	-132.370	44.923	0	709.40	0	4.1710	0	34.1920	0	27.131	0	702.444	0	16.6	4	5.3	4	-1E+10	1	-1E+10	1	-1E+10	1	-1E+10	1	-1E+10	1	-1E+10	1
4901784	42	C	08/28/2016	10:40	-132.370	44.923	0	714.90	0	4.1520	0	34.1980	0	27.138	0	707.881	0	16.3	4	5.2	4	-1E+10	1	-1E+10	1	-1E+10	1	-1E+10	1	-1E+10	1	-1E+10	1
4901784	42	C	08/28/2016	10:40	-132.370	44.923	0	720.30	0	4.1450	0	34.2010	0	27.141	0	713.219	0	16.0	4	5.1	4	-1E+10	1	-1E+10	1	-1E+10	1	-1E+10	1	-1E+10	1	-1E+10	1
4901784	42	C	08/28/2016	10:40	-132.370	44.923	0	724.80	0	4.1290	0	34.2050	0	27.146	0	717.667	0	15.6	4	5.0	4	-1E+10	1	-1E+10	1	-1E+10	1	-1E+10	1	-1E+10	1	-1E+10	1
4901784	42	C	08/28/2016	10:40	-132.370	44.923	0	729.40	0	4.1110	0	34.2110	0	27.153	0	722.213	0	15.4	4	4.9	4	-1E+10	1	-1E+10	1	-1E+10	1	-1E+10	1	-1E+10	1	-1E+10	1
4901784	42	C	08/28/2016	10:40	-132.370	44.923	0	735.00	0	4.1040	0	34.2130	0	27.155	0	727.748	0	15.1	4	4.8	4	-1E+10	1	-1E+10	1	-1E+10	1	-1E+10	1	-1E+10	1	-1E+10	1
4901784	42	C	08/28/2016	10:40	-132.370	44.923	0	740.50	0	4.0920	0	34.2170	0	27.160	0	733.184	0	14.8	4	4.7	4	-1E+10	1	-1E+10	1	-1E+10	1	-1E+10	1	-1E+10	1	-1E+10	1
4901784	42	C	08/28/2016	10:40	-132.370	44.923	0	745.00	0	4.0790	0	34.2210	0	27.164	0	737.632	0	14.5	4	4.6	4	-1E+10	1	-1E+10	1	-1E+10	1	-1E+10	1	-1E+10	1	-1E+10	1
4901784	42	C	08/28/2016	10:40	-132.370	44.923	0	749.50	0	4.0620	0	34.2270	0	27.171	0	742.080	0	14.2	4	4.5	4	-1E+10	1	-1E+10	1	-1E+10	1	-1E+10	1	-1E+10	1	-1E+10	1
4901784	42	C	08/28/2016	10:40	-132.370	44.923	0	755.00	0	4.0500	0	34.2320	0	27.176	0	747.515	0	13.9	4	4.4	4	-1E+10	1	-1E+10	1	-1E+10	1	-1E+10	1	-1E+10	1	-1E+10	1
4901784	42	C	08/28/2016	10:40	-132.370	44.923	0	760.50	0	4.0290	0	34.2370	0	27.182	0	752.951	0	13.6	4	4.3	4	-1E+10	1	-1E+10	1	-1E+10	1	-1E+10	1	-1E+10	1	-1E+10	1
4901784	42	C	08/28/2016	10:40	-132.370	44.923	0	765.10	0	4.0130	0	34.2410	0	27.187	0	757.497	0	13.3	4	4.2	4	-1E+10	1	-1E+10	1	-1E+10	1	-1E+10	1	-1E+10	1	-1E+10	1
4901784	42	C	08/28/2016	10:40	-132.370	44.923	0	769.70	0	3.9870	0	34.2480	0	27.195	0	762.043	0	13.0	4	4.1	4	-1E+10	1	-1E+10	1	-1E+10	1	-1E+10	1	-1E+10	1	-1E+10	1
4901784	42	C	08/28/2016	10:40	-132.370	44.923	0	775.30	0	3.9690	0	34.2560	0	27.203	0	767.577	0	12.6	4	4.0	4	-1E+10	1	-1E+10	1	-1E+10	1	-1E+10	1	-1E+10	1	-1E+10	1
4901784	42	C	08/28/2016	10:40	-132.370	44.923	0	780.60	0	3.9350	0	34.2670	0	27.216	0	772.814	0	12.3	4	3.9	4	-1E+10	1	-1E+10	1	-1E+10	1	-1E+10	1	-1E+10	1	-1E+10	1
4901784	42	C	08/28/2016	10:40	-132.370	44.923	0	785.30	0	3.9080	0	34.2750	0	27.225	0	777.458	0	12.1	4	3.8	4	-1E+10	1	-1E+10	1	-1E+10	1	-1E+10	1	-1E+10	1	-1E+10	1
4901784	42	C	08/28/2016	10:40	-132.370	44.923	0	790.10	0	3.8960	0	34.2780	0	27.228	0	782.202	0	12.1	4	3.8	4	-1E+10	1	-1E+10	1	-1E+10	1	-1E+10	1	-1E+10	1	-1E+10	1
4901784	42	C	08/28/2016	10:40	-132.370	44.923	0	794.90	0	3.8760	0	34.2810	0	27.233	0	786.945	0	12.0	4	3.8	4	-1E+10	1	-1E+10	1	-1E+10	1	-1E+10	1	-1E+10	1	-1E+10	1
4901784	42	C	08/28/2016	10:40	-132.370	44.923	0	799.80	0	3.8530	0	34.2840	0	27.238	0	791.786	0	12.0	4	3.8	4	-1E+10	1	-1E+10	1	-1E+10	1	-1E+10	1	-1E+10	1	-1E+10	1
4901784	42	C	08/28/2016	10:40	-132.370	44.923	0	804.80	0	3.8270	0	34.2890	0	27.244	0	796.727	0	12.0	4	3.8	4	-1E+10	1	-1E+10	1	-1E+10	1	-1E+10	1	-1E+10	1	-1E+10	1
4901784	42	C	08/28/2016	10:40	-132.370	44.923	0	809.70	0	3.8210	0	34.2900	0	27.246	0	801.568	0	11.9	4	3.7	4	-1E+10	1	-1E+10	1	-1E+10	1	-1E+10	1	-1E+10	1	-1E+10	1
4901784	42	C	08/28/2016	10:40	-132.370	44.923	0	814.70	0	3.8090	0	34.2920	0	27.248	0	806.508	0	11.8	4	3.7	4	-1E+10	1	-1E+10	1	-1E+10	1	-1E+10	1	-1E+10	1	-1E+10	1
4901784	42	C	08/28/2016	10:40	-132.370	44.923	0	819.80	0	3.7830	0	34.2980	0	27.256	0	811.547	0	11.7	4	3.7	4	-1E+10	1	-1E+10	1	-1E+10	1	-1E+10	1	-1E+10	1	-1E+10	1
4901784	42	C	08/28/2016	10:40	-132.370	44.923	0	824.90	0	3.7660	0	34.3040	0	27.262	0	816.586	0	11.6	4	3.7	4	-1E+10	1	-1E+10	1	-1E+10	1	-1E+10	1	-1E+10	1	-1E+10	1
4901784	42	C	08/28/2016	10:40	-132.370	44.923	0	830.10	0	3.7470	0	34.3090	0	27.268	0	821.723	0	11.6	4	3.6	4	-1E+10	1	-1E+10	1	-1E+10	1	-1E+10	1	-1E+10	1	-1E+10	1
4901784	42	C	08/28/2016	10:40	-132.370	44.923	0	835.40	0	3.7340	0	34.3120	0	27.272	0	826.959	0	11.5	4	3.6	4	-1E+10	1	-1E+10	1	-1E+10	1	-1E+10	1	-1E+10	1	-1E+10	1
4901784	42	C	08/28/2016	10:40	-132.370	44.923	0	840.60	0	3.7160	0	34.3170	0	27.278	0	832.096	0	11.5	4	3.6	4	-1E+10	1	-1E+10	1	-1E+10	1	-1E+10	1	-1E+10	1	-1E+10	1
4901784	42	C	08/28/2016	10:40	-132.370	44.923	0	845.00	0	3.7020	0	34.3190	0	27.281	0	836.443	0	11.5	4	3.6	4	-1E+10	1	-1E+10	1	-1E+10	1	-1E+10	1	-1E+10	1	-1E+10	1
4901784	42	C	08/28/2016	10:40	-132.370	44.923	0	849.50	0	3.6800	0	34.3230	0	27.286	0	840.888	0	11.5	4	3.6	4	-1E+10	1	-1E+10	1	-1E+10	1	-1E+10	1	-1E+10	1	-1E+10	1
4901784	42	C	08/28/2016	10:40	-132.370	44.923	0	854.80	0	3.6610	0	34.3270	0	27.291	0	846.124	0	11.5	4	3.6	4	-1E+10	1	-1E+10	1	-1E+10	1	-1E+10	1	-1E+10	1	-1E+10	1
4901784	42	C	08/28/2016	10:40	-132.370	44.923	0	860.20	0	3.6500	0	34.3310	0	27.295	0	851.458	0	11.4	4	3.6	4	-1E+10	1	-1E+10	1	-1E+10	1	-1E+10	1	-1E+10	1	-1E+10	1
4901784	42	C	08/28/2016	10:40	-132.370	44.923	0	865.60	0	3.6390	0	34.3340	0	27.299	0	856.792	0	11.4	4	3.6	4	-1E+10	1	-1E+10	1	-1E+10	1	-1E+10	1	-1E+10	1	-1E+10	1
4901784	42	C	08/28/2016	10:40	-132.370	44.923	0	870.20	0	3.6300	0	34.3370	0	27.302	0	861.336	0	11.4	4	3.6	4	-1E+10	1	-1E+10	1	-1E+10	1	-1E+10	1	-1E+10	1	-1E+10	1
4901784	42	C	08/28/2016	10:40	-132.370	44.923	0	874.70	0	3.6160	0	34.3410	0	27.307	0	865.781	0	11.4	4	3.6	4	-1E+10	1	-1E+10	1	-1E+10	1	-1E+10	1	-1E+10	1	-1E+10	1
4901784	42	C	08/28/2016	10:40	-132.370	44.923	0	880.20	0	3.6090	0	34.3430	0	27.309	0	871.213	0	11.5	4	3.6	4	-1E+10	1	-1E+10	1	-1E+10	1	-1E+10	1	-1E+10	1	-1E+10	1
4901784	42	C	08/28/2016	10:40	-132.370	44.923	0	885.60	0	3.6090	0	34.3430	0	27.309	0	876.547	0	11.5	4	3.6	4	-1E+10	1	-1E+10	1	-1E+10	1	-1E+10	1	-1E+10	1	-1E+10	1
4901784	42	C	08/28/2016	10:40	-132.370	44.923	0	890.20	0	3.6010	0	34.3460	0	27.312	0	881.090	0	11.5	4	3.6	4	-1E+10	1	-1E+10	1	-1E+10	1	-1E+10	1	-1E+10	1	-1E+10	1
4901784	42	C	08/28/2016	10:40	-132.370	44.923	0	894.70	0	3.5890	0	34.3500	0	27.317	0	885.534	0	11.5	4	3.6	4	-1E+10	1	-1E+10	1	-1E+10	1	-1E+10	1	-1E+10	1	-1E+10	1
4901784	42	C	08/28/2016	10:40	-132.370	44.923	0	900.20	0	3.5780	0	34.3520	0	27.320	0	890.966	0	11.6	4	3.6	4	-1E+10	1	-1E+10	1	-1E+10	1	-1E+10	1	-1E+10	1	-1E+10	1
4901784	42	C	08/28/2016	10:40	-132.370	44.923	0	905.40	0	3.5620	0	34.3540	0	27.323	0	896.102	0	11.7	4	3.7	4	-1E+10	1	-1E+10	1	-1E+10	1	-1E+10	1	-1E+10	1	-1E+10	1
4901784	42	C	08/28/2016	10:40	-132.370	44.923	0	910.20	0	3.5380	0	34.3590	0	27.329	0	900.842	0	11.8	4	3.7	4	-1E+10	1	-1E+10	1	-1E+10	1	-1E+10	1	-1E+10	1	-1E+10	1
4901784	42	C	08/28/2016	10:40	-132.370	44.923	0	915.00	0	3.5240	0	34.3650	0	27.335	0	905.583	0	11.9	4	3.7	4	-1E+10	1	-1E+10	1	-1E+10	1	-1E+10	1	-1E+10	1	-1E+10	1
4901784	42	C	08/28/2016	10:40	-132.370	44.923	0	919.90	0	3.5080	0	34.3700	0	27.341	0	910.421	0	12.1	4	3.8	4	-1E+10	1	-1E+10	1	-1E+10	1	-1E+10	1	-1E+10	1	-1E+10	1
4901784	42	C	08/28/2016	10:40	-132.370	44.923	0	924.80	0	3.4980	0	34.3740	0	27.345	0	915.260	0	12.2	4	3.8	4	-1E+10	1	-1E+10	1	-1E+10	1	-1E+10	1	-1E+10	1	-1E+10	1
4901784	42	C	08/28/2016	10:40	-132.370	44.923	0	929.70	0	3.4960	0	34.3740	0	27.345	0	920.099	0	12.2	4	3.8	4	-1E+10	1	-1E+10	1	-1E+10	1	-1E+10	1	-1E+10	1	-1E+10	1
4901784	42	C	08/28/2016	10:40	-132.370	44.923	0	934.70	0	3.4890	0	34.3760	0	27.347	0	925.036	0	12.3	4	3.8	4	-1E+10	1	-1E+10	1	-1E+10	1	-1E+10	1	-1E+10	1	-1E+10	1
4901784	42	C	08/28/2016	10:40	-132.370	44.923	0	939.70	0	3.4710	0	34.3790	0	27.352	0	929.973	0	12.3	4	3.9	4	-1E+10	1	-1E+10	1	-1E+10	1	-1E+10	1	-1E+10	1	-1E+10	1
4901784	42	C	08/28/2016	10:40	-132.370	44.923	0	944.60	0	3.4530	0	34.3830	0	27.357	0	934.812	0	12.4	4	3.9	4	-1E+10	1	-1E+10	1	-1E+10	1	-1E+10	1	-1E+10	1	-1E+10	1
4901784	42	C	08/28/2016	10:40	-132.370	44.923	0	949.60	0	3.4410	0	34.3850	0	27.359	0	939.749	0	12.3	4	3.8	4	-1E+10	1	-1E+10	1	-1E+10	1	-1E+10	1	-1E+10	1	-1E+10	1
4901784	42	C	08/28/2016	10:40	-132.370	44.923	0	954.70	0	3.4270	0	34.3860	0	27.361	0	944.784	0	12.3	4	3.8	4	-1E+10	1	-1E+10	1	-1E+10	1	-1E+10	1	-1E+10	1	-1E+10	1
4901784	42	C	08/28/2016	10:40	-132.370	44.923	0	959.60	0	3.4170	0	34.3870	0	27.363	0	949.622	0	12.2	4	3.8	4	-1E+10	1	-1E+10	1	-1E+10	1	-1E+10	1	-1E+10	1	-1E+10	1
4901784	42	C	08/28/2016	10:40	-132.370	44.923	0	964.60	0	3.4110	0	34.3870	0	27.364	0	954.559	0	12.2	4	3.8	4	-1E+10	1	-1E+10	1	-1E+10	1	-1E+10	1	-1E+10	1	-1E+10	1
4901784	42	C	08/28/2016	10:40	-132.370	44.923	0	969.60	0	3.4000	0	34.3890	0	27.367	0	959.495	0	12.3	4	3.8	4	-1E+10	1	-1E+10	1	-1E+10	1	-1E+10	1	-1E+10	1	-1E+10	1
4901784	42	C	08/28/2016	10:40	-132.370	44.923	0	974.80	0	3.3860	0	34.3920	0	27.370	0	964.629	0	12.4	4	3.9	4	-1E+10	1	-1E+10	1	-1E+10	1	-1E+10	1	-1E+10	1	-1E+10	1
4901784	42	C	08/28/2016	10:40	-132.370	44.923	0	979.90	0	3.3840	0	34.3950	0	27.373	0	969.664	0	12.4	4	3.9	4	-1E+10	1	-1E+10	1	-1E+10	1	-1E+10	1	-1E+10	1	-1E+10	1
4901784	42	C	08/28/2016	10:40	-132.370	44.923	0	985.10	0	3.3650	0	34.3970	0	27.376	0	974.798	0	12.5	4	3.9	4	-1E+10	1	-1E+10	1	-1E+10	1	-1E+10	1	-1E+10	1	-1E+10	1
4901784	42	C	08/28/2016	10:40	-132.370	44.923	0	990.40	0	3.3430	0	34.3990	0	27.380	0	980.030	0	12.7	4	3.9	4	-1E+10	1	-1E+10	1	-1E+10	1	-1E+10	1	-1E+10	1	-1E+10	1
4901784	42	C	08/28/2016	10:40	-132.370	44.923	0	994.90	0	3.3440	0	34.4030	0	27.383	0	984.472	0	13.0	4	4.0	4	-1E+10	1	-1E+10	1	-1E+10	1	-1E+10	1	-1E+10	1	-1E+10	1
4901784	42	C	08/28/2016	10:40	-132.370	44.923	0	999.40	0	3.3500	0	34.4070	0	27.386	0	988.915	0	13.3	4	4.1	4	-1E+10	1	-1E+10	1	-1E+10	1	-1E+10	1	-1E+10	1	-1E+10	1
4901784	42	C	08/28/2016	10:40	-132.370	44.923	0	1004.90	0	3.3540	0	34.4110	0	27.389	0	994.344	0	13.7	4	4.3	4	-1E+10	1	-1E+10	1	-1E+10	1	-1E+10	1	-1E+10	1	-1E+10	1
4901784	42	C	08/28/2016	10:40	-132.370	44.923	0	1010.30	0	3.3550	0	34.4140	0	27.391	0	999.674	0	13.9	4	4.3	4	-1E+10	1	-1E+10	1	-1E+10	1	-1E+10	1	-1E+10	1	-1E+10	1
4901784	42	C	08/28/2016	10:40	-132.370	44.923	0	1015.50	0	3.3500	0	34.4160	0	27.393	0	1004.807	0	14.2	4	4.4	4	-1E+10	1	-1E+10	1	-1E+10	1	-1E+10	1	-1E+10	1	-1E+10	1
4901784	42	C	08/28/2016	10:40	-132.370	44.923	0	1020.70	0	3.3430	0	34.4200	0	27.397	0	1009.940	0	14.5	4	4.5	4	-1E+10	1	-1E+10	1	-1E+10	1	-1E+10	1	-1E+10	1	-1E+10	1
4901784	42	C	08/28/2016	10:40	-132.370	44.923	0	1025.00	0	3.3380	0	34.4230	0	27.400	0	1014.184	0	14.7	4	4.6	4	-1E+10	1	-1E+10	1	-1E+10	1	-1E+10	1	-1E+10	1	-1E+10	1
4901784	42	C	08/28/2016	10:40	-132.370	44.923	0	1030.00	0	3.3370	0	34.4250	0	27.402	0	1019.119	0	14.9	4	4.6	4	-1E+10	1	-1E+10	1	-1E+10	1	-1E+10	1	-1E+10	1	-1E+10	1
4901784	42	C	08/28/2016	10:40	-132.370	44.923	0	1034.80	0	3.3360	0	34.4260	0	27.403	0	1023.857	0	15.1	4	4.7	4	-1E+10	1	-1E+10	1	-1E+10	1	-1E+10	1	-1E+10	1	-1E+10	1
4901784	42	C	08/28/2016	10:40	-132.370	44.923	0	1040.00	0	3.3340	0	34.4280	0	27.404	0	1028.989	0	15.3	4	4.7	4	-1E+10	1	-1E+10	1	-1E+10	1	-1E+10	1	-1E+10	1	-1E+10	1
4901784	42	C	08/28/2016	10:40	-132.370	44.923	0	1045.50	0	3.3310	0	34.4290	0	27.405	0	1034.417	0	15.4	4	4.8	4	-1E+10	1	-1E+10	1	-1E+10	1	-1E+10	1	-1E+10	1	-1E+10	1
4901784	42	C	08/28/2016	10:40	-132.370	44.923	0	1050.50	0	3.3310	0	34.4290	0	27.406	0	1039.352	0	15.5	4	4.8	4	-1E+10	1	-1E+10	1	-1E+10	1	-1E+10	1	-1E+10	1	-1E+10	1
4901784	42	C	08/28/2016	10:40	-132.370	44.923	0	1054.90	0	3.3280	0	34.4300	0	27.407	0	1043.694	0	15.7	4	4.9	4	-1E+10	1	-1E+10	1	-1E+10	1	-1E+10	1	-1E+10	1	-1E+10	1
4901784	42	C	08/28/2016	10:40	-132.370	44.923	0	1059.50	0	3.3240	0	34.4320	0	27.409	0	1048.234	0	16.0	4	5.0	4	-1E+10	1	-1E+10	1	-1E+10	1	-1E+10	1	-1E+10	1	-1E+10	1
4901784	42	C	08/28/2016	10:40	-132.370	44.923	0	1065.20	0	3.3200	0	34.4350	0	27.411	0	1053.859	0	16.2	4	5.1	4	-1E+10	1	-1E+10	1	-1E+10	1	-1E+10	1	-1E+10	1	-1E+10	1
4901784	42	C	08/28/2016	10:40	-132.370	44.923	0	1070.10	0	3.3100	0	34.4360	0	27.413	0	1058.694	0	16.4	4	5.1	4	-1E+10	1	-1E+10	1	-1E+10	1	-1E+10	1	-1E+10	1	-1E+10	1
4901784	42	C	08/28/2016	10:40	-132.370	44.923	0	1074.80	0	3.3080	0	34.4370	0	27.414	0	1063.333	0	16.7	4	5.2	4	-1E+10	1	-1E+10	1	-1E+10	1	-1E+10	1	-1E+10	1	-1E+10	1
4901784	42	C	08/28/2016	10:40	-132.370	44.923	0	1080.40	0	3.3090	0	34.4400	0	27.417	0	1068.858	0	17.1	4	5.3	4	-1E+10	1	-1E+10	1	-1E+10	1	-1E+10	1	-1E+10	1	-1E+10	1
4901784	42	C	08/28/2016	10:40	-132.370	44.923	0	1084.90	0	3.3000	0	34.4440	0	27.421	0	1073.299	0	17.2	4	5.4	4	-1E+10	1	-1E+10	1	-1E+10	1	-1E+10	1	-1E+10	1	-1E+10	1
4901784	42	C	08/28/2016	10:40	-132.370	44.923	0	1089.70	0	3.2930	0	34.4440	0	27.421	0	1078.035	0	17.3	4	5.4	4	-1E+10	1	-1E+10	1	-1E+10	1	-1E+10	1	-1E+10	1	-1E+10	1
4901784	42	C	08/28/2016	10:40	-132.370	44.923	0	1094.60	0	3.2770	0	34.4460	0	27.424	0	1082.870	0	17.3	4	5.4	4	-1E+10	1	-1E+10	1	-1E+10	1	-1E+10	1	-1E+10	1	-1E+10	1
4901784	42	C	08/28/2016	10:40	-132.370	44.923	0	1099.50	0	3.2710	0	34.4470	0	27.426	0	1087.705	0	17.5	4	5.4	4	-1E+10	1	-1E+10	1	-1E+10	1	-1E+10	1	-1E+10	1	-1E+10	1
4901784	42	C	08/28/2016	10:40	-132.370	44.923	0	1105.30	0	3.2680	0	34.4480	0	27.427	0	1093.428	0	17.8	4	5.5	4	-1E+10	1	-1E+10	1	-1E+10	1	-1E+10	1	-1E+10	1	-1E+10	1
4901784	42	C	08/28/2016	10:40	-132.370	44.923	0	1110.10	0	3.2680	0	34.4500	0	27.429	0	1098.164	0	18.1	4	5.6	4	-1E+10	1	-1E+10	1	-1E+10	1	-1E+10	1	-1E+10	1	-1E+10	1
4901784	42	C	08/28/2016	10:40	-132.370	44.923	0	1114.90	0	3.2700	0	34.4520	0	27.430	0	1102.899	0	18.4	4	5.7	4	-1E+10	1	-1E+10	1	-1E+10	1	-1E+10	1	-1E+10	1	-1E+10	1
4901784	42	C	08/28/2016	10:40	-132.370	44.923	0	1119.70	0	3.2730	0	34.4540	0	27.431	0	1107.635	0	18.5	4	5.7	4	-1E+10	1	-1E+10	1	-1E+10	1	-1E+10	1	-1E+10	1	-1E+10	1
4901784	42	C	08/28/2016	10:40	-132.370	44.923	0	1124.50	0	3.2620	0	34.4540	0	27.432	0	1112.371	0	18.5	4	5.7	4	-1E+10	1	-1E+10	1	-1E+10	1	-1E+10	1	-1E+10	1	-1E+10	1
4901784	42	C	08/28/2016	10:40	-132.370	44.923	0	1130.40	0	3.2520	0	34.4550	0	27.434	0	1118.191	0	18.8	4	5.8	4	-1E+10	1	-1E+10	1	-1E+10	1	-1E+10	1	-1E+10	1	-1E+10	1
4901784	42	C	08/28/2016	10:40	-132.370	44.923	0	1135.30	0	3.2490	0	34.4580	0	27.437	0	1123.025	0	19.0	4	5.9	4	-1E+10	1	-1E+10	1	-1E+10	1	-1E+10	1	-1E+10	1	-1E+10	1
4901784	42	C	08/28/2016	10:40	-132.370	44.923	0	1140.10	0	3.2430	0	34.4590	0	27.438	0	1127.760	0	19.3	4	6.0	4	-1E+10	1	-1E+10	1	-1E+10	1	-1E+10	1	-1E+10	1	-1E+10	1
4901784	42	C	08/28/2016	10:40	-132.370	44.923	0	1145.00	0	3.2390	0	34.4620	0	27.441	0	1132.594	0	19.7	4	6.1	4	-1E+10	1	-1E+10	1	-1E+10	1	-1E+10	1	-1E+10	1	-1E+10	1
4901784	42	C	08/28/2016	10:40	-132.370	44.923	0	1149.90	0	3.2470	0	34.4650	0	27.443	0	1137.428	0	20.1	4	6.2	4	-1E+10	1	-1E+10	1	-1E+10	1	-1E+10	1	-1E+10	1	-1E+10	1
4901784	42	C	08/28/2016	10:40	-132.370	44.923	0	1154.80	0	3.2440	0	34.4670	0	27.445	0	1142.261	0	20.2	4	6.3	4	-1E+10	1	-1E+10	1	-1E+10	1	-1E+10	1	-1E+10	1	-1E+10	1
4901784	42	C	08/28/2016	10:40	-132.370	44.923	0	1159.60	0	3.2390	0	34.4680	0	27.446	0	1146.996	0	20.3	4	6.3	4	-1E+10	1	-1E+10	1	-1E+10	1	-1E+10	1	-1E+10	1	-1E+10	1
4901784	42	C	08/28/2016	10:40	-132.370	44.923	0	1165.40	0	3.2320	0	34.4680	0	27.447	0	1152.717	0	20.2	4	6.3	4	-1E+10	1	-1E+10	1	-1E+10	1	-1E+10	1	-1E+10	1	-1E+10	1
4901784	42	C	08/28/2016	10:40	-132.370	44.923	0	1170.20	0	3.2240	0	34.4680	0	27.447	0	1157.452	0	20.2	4	6.3	4	-1E+10	1	-1E+10	1	-1E+10	1	-1E+10	1	-1E+10	1	-1E+10	1
4901784	42	C	08/28/2016	10:40	-132.370	44.923	0	1175.10	0	3.2100	0	34.4680	0	27.449	0	1162.285	0	20.1	4	6.2	4	-1E+10	1	-1E+10	1	-1E+10	1	-1E+10	1	-1E+10	1	-1E+10	1
4901784	42	C	08/28/2016	10:40	-132.370	44.923	0	1180.00	0	3.1980	0	34.4680	0	27.450	0	1167.118	0	20.0	4	6.2	4	-1E+10	1	-1E+10	1	-1E+10	1	-1E+10	1	-1E+10	1	-1E+10	1
4901784	42	C	08/28/2016	10:40	-132.370	44.923	0	1184.90	0	3.1880	0	34.4680	0	27.451	0	1171.951	0	19.9	4	6.2	4	-1E+10	1	-1E+10	1	-1E+10	1	-1E+10	1	-1E+10	1	-1E+10	1
4901784	42	C	08/28/2016	10:40	-132.370	44.923	0	1189.80	0	3.1770	0	34.4680	0	27.452	0	1176.783	0	20.0	4	6.2	4	-1E+10	1	-1E+10	1	-1E+10	1	-1E+10	1	-1E+10	1	-1E+10	1
4901784	42	C	08/28/2016	10:40	-132.370	44.923	0	1194.60	0	3.1700	0	34.4690	0	27.453	0	1181.517	0	20.4	4	6.3	4	-1E+10	1	-1E+10	1	-1E+10	1	-1E+10	1	-1E+10	1	-1E+10	1
4901784	42	C	08/28/2016	10:40	-132.370	44.923	0	1199.60	0	3.1830	0	34.4730	0	27.455	0	1186.449	0	21.1	4	6.6	4	-1E+10	1	-1E+10	1	-1E+10	1	-1E+10	1	-1E+10	1	-1E+10	1
4901784	42	C	08/28/2016	10:40	-132.370	44.923	0	1204.60	0	3.1940	0	34.4770	0	27.458	0	1191.380	0	21.6	4	6.7	4	-1E+10	1	-1E+10	1	-1E+10	1	-1E+10	1	-1E+10	1	-1E+10	1
4901784	42	C	08/28/2016	10:40	-132.370	44.923	0	1209.60	0	3.1990	0	34.4780	0	27.458	0	1196.310	0	21.9	4	6.8	4	-1E+10	1	-1E+10	1	-1E+10	1	-1E+10	1	-1E+10	1	-1E+10	1
4901784	42	C	08/28/2016	10:40	-132.370	44.923	0	1214.40	0	3.2050	0	34.4810	0	27.460	0	1201.044	0	22.1	4	6.9	4	-1E+10	1	-1E+10	1	-1E+10	1	-1E+10	1	-1E+10	1	-1E+10	1
4901784	42	C	08/28/2016	10:40	-132.370	44.923	0	1220.10	0	3.2050	0	34.4820	0	27.461	0	1206.665	0	22.3	4	6.9	4	-1E+10	1	-1E+10	1	-1E+10	1	-1E+10	1	-1E+10	1	-1E+10	1
4901784	42	C	08/28/2016	10:40	-132.370	44.923	0	1225.40	0	3.1950	0	34.4820	0	27.462	0	1211.891	0	22.3	4	6.9	4	-1E+10	1	-1E+10	1	-1E+10	1	-1E+10	1	-1E+10	1	-1E+10	1
4901784	42	C	08/28/2016	10:40	-132.370	44.923	0	1230.70	0	3.1800	0	34.4830	0	27.464	0	1217.118	0	22.2	4	6.9	4	-1E+10	1	-1E+10	1	-1E+10	1	-1E+10	1	-1E+10	1	-1E+10	1
4901784	42	C	08/28/2016	10:40	-132.370	44.923	0	1235.20	0	3.1660	0	34.4830	0	27.465	0	1221.555	0	22.2	4	6.9	4	-1E+10	1	-1E+10	1	-1E+10	1	-1E+10	1	-1E+10	1	-1E+10	1
4901784	42	C	08/28/2016	10:40	-132.370	44.923	0	1239.80	0	3.1490	0	34.4830	0	27.467	0	1226.091	0	22.3	4	6.9	4	-1E+10	1	-1E+10	1	-1E+10	1	-1E+10	1	-1E+10	1	-1E+10	1
4901784	42	C	08/28/2016	10:40	-132.370	44.923	0	1244.90	0	3.1440	0	34.4850	0	27.469	0	1231.119	0	22.6	4	7.0	4	-1E+10	1	-1E+10	1	-1E+10	1	-1E+10	1	-1E+10	1	-1E+10	1
4901784	42	C	08/28/2016	10:40	-132.370	44.923	0	1249.30	0	3.1460	0	34.4870	0	27.470	0	1235.458	0	22.7	4	7.0	4	-1E+10	1	-1E+10	1	-1E+10	1	-1E+10	1	-1E+10	1	-1E+10	1
4901784	42	C	08/28/2016	10:40	-132.370	44.923	0	1255.00	0	3.1200	0	34.4870	0	27.473	0	1241.078	0	22.4	4	7.0	4	-1E+10	1	-1E+10	1	-1E+10	1	-1E+10	1	-1E+10	1	-1E+10	1
4901784	42	C	08/28/2016	10:40	-132.370	44.923	0	1260.60	0	3.1010	0	34.4860	0	27.474	0	1246.599	0	22.5	4	7.0	4	-1E+10	1	-1E+10	1	-1E+10	1	-1E+10	1	-1E+10	1	-1E+10	1
4901784	42	C	08/28/2016	10:40	-132.370	44.923	0	1265.40	0	3.0890	0	34.4880	0	27.476	0	1251.332	0	22.9	4	7.1	4	-1E+10	1	-1E+10	1	-1E+10	1	-1E+10	1	-1E+10	1	-1E+10	1
4901784	42	C	08/28/2016	10:40	-132.370	44.923	0	1270.30	0	3.0980	0	34.4910	0	27.478	0	1256.163	0	23.0	4	7.1	4	-1E+10	1	-1E+10	1	-1E+10	1	-1E+10	1	-1E+10	1	-1E+10	1
4901784	42	C	08/28/2016	10:40	-132.370	44.923	0	1275.10	0	3.0690	0	34.4900	0	27.480	0	1260.895	0	22.9	4	7.1	4	-1E+10	1	-1E+10	1	-1E+10	1	-1E+10	1	-1E+10	1	-1E+10	1
4901784	42	C	08/28/2016	10:40	-132.370	44.923	0	1280.00	0	3.0550	0	34.4910	0	27.482	0	1265.725	0	23.0	4	7.1	4	-1E+10	1	-1E+10	1	-1E+10	1	-1E+10	1	-1E+10	1	-1E+10	1
4901784	42	C	08/28/2016	10:40	-132.370	44.923	0	1285.00	0	3.0560	0	34.4920	0	27.483	0	1270.655	0	23.1	4	7.1	4	-1E+10	1	-1E+10	1	-1E+10	1	-1E+10	1	-1E+10	1	-1E+10	1
4901784	42	C	08/28/2016	10:40	-132.370	44.923	0	1290.00	0	3.0350	0	34.4920	0	27.485	0	1275.584	0	23.0	4	7.1	4	-1E+10	1	-1E+10	1	-1E+10	1	-1E+10	1	-1E+10	1	-1E+10	1
4901784	42	C	08/28/2016	10:40	-132.370	44.923	0	1295.00	0	3.0310	0	34.4920	0	27.485	0	1280.513	0	23.1	4	7.1	4	-1E+10	1	-1E+10	1	-1E+10	1	-1E+10	1	-1E+10	1	-1E+10	1
4901784	42	C	08/28/2016	10:40	-132.370	44.923	0	1300.00	0	3.0250	0	34.4920	0	27.486	0	1285.441	0	23.3	4	7.2	4	-1E+10	1	-1E+10	1	-1E+10	1	-1E+10	1	-1E+10	1	-1E+10	1
4901784	42	C	08/28/2016	10:40	-132.370	44.923	0	1305.10	0	3.0120	0	34.4950	0	27.489	0	1290.469	0	23.6	4	7.3	4	-1E+10	1	-1E+10	1	-1E+10	1	-1E+10	1	-1E+10	1	-1E+10	1
4901784	42	C	08/28/2016	10:40	-132.370	44.923	0	1310.20	0	3.0100	0	34.4960	0	27.490	0	1295.496	0	23.7	4	7.3	4	-1E+10	1	-1E+10	1	-1E+10	1	-1E+10	1	-1E+10	1	-1E+10	1
4901784	42	C	08/28/2016	10:40	-132.370	44.923	0	1315.30	0	3.0040	0	34.4970	0	27.492	0	1300.523	0	23.9	4	7.4	4	-1E+10	1	-1E+10	1	-1E+10	1	-1E+10	1	-1E+10	1	-1E+10	1
4901784	42	C	08/28/2016	10:40	-132.370	44.923	0	1320.50	0	2.9960	0	34.4980	0	27.493	0	1305.648	0	24.0	4	7.4	4	-1E+10	1	-1E+10	1	-1E+10	1	-1E+10	1	-1E+10	1	-1E+10	1
4901784	42	C	08/28/2016	10:40	-132.370	44.923	0	1325.70	0	2.9690	0	34.4990	0	27.496	0	1310.774	0	24.1	4	7.4	4	-1E+10	1	-1E+10	1	-1E+10	1	-1E+10	1	-1E+10	1	-1E+10	1
4901784	42	C	08/28/2016	10:40	-132.370	44.923	0	1330.10	0	2.9640	0	34.5000	0	27.498	0	1315.110	0	24.2	4	7.5	4	-1E+10	1	-1E+10	1	-1E+10	1	-1E+10	1	-1E+10	1	-1E+10	1
4901784	42	C	08/28/2016	10:40	-132.370	44.923	0	1334.50	0	2.9620	0	34.5000	0	27.498	0	1319.447	0	24.3	4	7.5	4	-1E+10	1	-1E+10	1	-1E+10	1	-1E+10	1	-1E+10	1	-1E+10	1
4901784	42	C	08/28/2016	10:40	-132.370	44.923	0	1339.90	0	2.9570	0	34.5010	0	27.499	0	1324.769	0	24.4	4	7.5	4	-1E+10	1	-1E+10	1	-1E+10	1	-1E+10	1	-1E+10	1	-1E+10	1
4901784	42	C	08/28/2016	10:40	-132.370	44.923	0	1345.30	0	2.9510	0	34.5010	0	27.500	0	1330.091	0	24.6	4	7.6	4	-1E+10	1	-1E+10	1	-1E+10	1	-1E+10	1	-1E+10	1	-1E+10	1
4901784	42	C	08/28/2016	10:40	-132.370	44.923	0	1349.80	0	2.9380	0	34.5020	0	27.502	0	1334.526	0	24.8	4	7.7	4	-1E+10	1	-1E+10	1	-1E+10	1	-1E+10	1	-1E+10	1	-1E+10	1
4901784	42	C	08/28/2016	10:40	-132.370	44.923	0	1354.30	0	2.9240	0	34.5040	0	27.505	0	1338.961	0	25.0	4	7.7	4	-1E+10	1	-1E+10	1	-1E+10	1	-1E+10	1	-1E+10	1	-1E+10	1
4901784	42	C	08/28/2016	10:40	-132.370	44.923	0	1359.70	0	2.9170	0	34.5050	0	27.506	0	1344.282	0	25.3	4	7.8	4	-1E+10	1	-1E+10	1	-1E+10	1	-1E+10	1	-1E+10	1	-1E+10	1
4901784	42	C	08/28/2016	10:40	-132.370	44.923	0	1365.10	0	2.9010	0	34.5070	0	27.509	0	1349.604	0	25.5	4	7.8	4	-1E+10	1	-1E+10	1	-1E+10	1	-1E+10	1	-1E+10	1	-1E+10	1
4901784	42	C	08/28/2016	10:40	-132.370	44.923	0	1370.50	0	2.8970	0	34.5070	0	27.510	0	1354.925	0	25.6	4	7.9	4	-1E+10	1	-1E+10	1	-1E+10	1	-1E+10	1	-1E+10	1	-1E+10	1
4901784	42	C	08/28/2016	10:40	-132.370	44.923	0	1375.00	0	2.8950	0	34.5080	0	27.511	0	1359.360	0	25.8	4	7.9	4	-1E+10	1	-1E+10	1	-1E+10	1	-1E+10	1	-1E+10	1	-1E+10	1
4901784	42	C	08/28/2016	10:40	-132.370	44.923	0	1379.90	0	2.8900	0	34.5090	0	27.512	0	1364.188	0	25.9	4	8.0	4	-1E+10	1	-1E+10	1	-1E+10	1	-1E+10	1	-1E+10	1	-1E+10	1
4901784	42	C	08/28/2016	10:40	-132.370	44.923	0	1385.10	0	2.8810	0	34.5100	0	27.513	0	1369.312	0	26.0	4	8.0	4	-1E+10	1	-1E+10	1	-1E+10	1	-1E+10	1	-1E+10	1	-1E+10	1
4901784	42	C	08/28/2016	10:40	-132.370	44.923	0	1389.90	0	2.8760	0	34.5100	0	27.514	0	1374.042	0	26.1	4	8.0	4	-1E+10	1	-1E+10	1	-1E+10	1	-1E+10	1	-1E+10	1	-1E+10	1
4901784	42	C	08/28/2016	10:40	-132.370	44.923	0	1394.80	0	2.8700	0	34.5100	0	27.514	0	1378.870	0	26.1	4	8.0	4	-1E+10	1	-1E+10	1	-1E+10	1	-1E+10	1	-1E+10	1	-1E+10	1
4901784	42	C	08/28/2016	10:40	-132.370	44.923	0	1399.60	0	2.8540	0	34.5110	0	27.517	0	1383.599	0	26.1	4	8.0	4	-1E+10	1	-1E+10	1	-1E+10	1	-1E+10	1	-1E+10	1	-1E+10	1
4901784	42	C	08/28/2016	10:40	-132.370	44.923	0	1404.60	0	2.8440	0	34.5110	0	27.518	0	1388.526	0	26.0	4	8.0	4	-1E+10	1	-1E+10	1	-1E+10	1	-1E+10	1	-1E+10	1	-1E+10	1
4901784	42	C	08/28/2016	10:40	-132.370	44.923	0	1409.50	0	2.8310	0	34.5100	0	27.518	0	1393.353	0	25.9	4	8.0	4	-1E+10	1	-1E+10	1	-1E+10	1	-1E+10	1	-1E+10	1	-1E+10	1
4901784	42	C	08/28/2016	10:40	-132.370	44.923	0	1414.40	0	2.8140	0	34.5100	0	27.520	0	1398.181	0	25.8	4	7.9	4	-1E+10	1	-1E+10	1	-1E+10	1	-1E+10	1	-1E+10	1	-1E+10	1
4901784	42	C	08/28/2016	10:40	-132.370	44.923	0	1419.40	0	2.8000	0	34.5090	0	27.520	0	1403.107	0	25.8	4	7.9	4	-1E+10	1	-1E+10	1	-1E+10	1	-1E+10	1	-1E+10	1	-1E+10	1
4901784	42	C	08/28/2016	10:40	-132.370	44.923	0	1424.40	0	2.7850	0	34.5100	0	27.522	0	1408.033	0	25.8	4	7.9	4	-1E+10	1	-1E+10	1	-1E+10	1	-1E+10	1	-1E+10	1	-1E+10	1
4901784	42	C	08/28/2016	10:40	-132.370	44.923	0	1429.40	0	2.7750	0	34.5100	0	27.523	0	1412.959	0	25.8	4	7.9	4	-1E+10	1	-1E+10	1	-1E+10	1	-1E+10	1	-1E+10	1	-1E+10	1
4901784	42	C	08/28/2016	10:40	-132.370	44.923	0	1434.50	0	2.7650	0	34.5100	0	27.524	0	1417.983	0	25.9	4	8.0	4	-1E+10	1	-1E+10	1	-1E+10	1	-1E+10	1	-1E+10	1	-1E+10	1
4901784	42	C	08/28/2016	10:40	-132.370	44.923	0	1439.60	0	2.7570	0	34.5110	0	27.525	0	1423.007	0	26.1	4	8.0	4	-1E+10	1	-1E+10	1	-1E+10	1	-1E+10	1	-1E+10	1	-1E+10	1
4901784	42	C	08/28/2016	10:40	-132.370	44.923	0	1444.70	0	2.7580	0	34.5120	0	27.526	0	1428.031	0	26.3	4	8.1	4	-1E+10	1	-1E+10	1	-1E+10	1	-1E+10	1	-1E+10	1	-1E+10	1
4901784	42	C	08/28/2016	10:40	-132.370	44.923	0	1449.90	0	2.7490	0	34.5120	0	27.527	0	1433.154	0	26.3	4	8.1	4	-1E+10	1	-1E+10	1	-1E+10	1	-1E+10	1	-1E+10	1	-1E+10	1
4901784	42	C	08/28/2016	10:40	-132.370	44.923	0	1455.10	0	2.7360	0	34.5120	0	27.528	0	1438.276	0	26.4	4	8.1	4	-1E+10	1	-1E+10	1	-1E+10	1	-1E+10	1	-1E+10	1	-1E+10	1
4901784	42	C	08/28/2016	10:40	-132.370	44.923	0	1460.40	0	2.7220	0	34.5120	0	27.529	0	1443.496	0	26.3	4	8.1	4	-1E+10	1	-1E+10	1	-1E+10	1	-1E+10	1	-1E+10	1	-1E+10	1
4901784	42	C	08/28/2016	10:40	-132.370	44.923	0	1465.70	0	2.7080	0	34.5120	0	27.531	0	1448.717	0	26.3	4	8.1	4	-1E+10	1	-1E+10	1	-1E+10	1	-1E+10	1	-1E+10	1	-1E+10	1
4901784	42	C	08/28/2016	10:40	-132.370	44.923	0	1470.20	0	2.7030	0	34.5120	0	27.531	0	1453.149	0	26.3	4	8.1	4	-1E+10	1	-1E+10	1	-1E+10	1	-1E+10	1	-1E+10	1	-1E+10	1
4901784	42	C	08/28/2016	10:40	-132.370	44.923	0	1474.70	0	2.6950	0	34.5130	0	27.533	0	1457.582	0	26.3	4	8.1	4	-1E+10	1	-1E+10	1	-1E+10	1	-1E+10	1	-1E+10	1	-1E+10	1
4901784	42	C	08/28/2016	10:40	-132.370	44.923	0	1480.10	0	2.6810	0	34.5120	0	27.533	0	1462.900	0	26.1	4	8.0	4	-1E+10	1	-1E+10	1	-1E+10	1	-1E+10	1	-1E+10	1	-1E+10	1
4901784	42	C	08/28/2016	10:40	-132.370	44.923	0	1485.60	0	2.6590	0	34.5110	0	27.534	0	1468.317	0	26.1	4	8.0	4	-1E+10	1	-1E+10	1	-1E+10	1	-1E+10	1	-1E+10	1	-1E+10	1
4901784	42	C	08/28/2016	10:40	-132.370	44.923	0	1490.10	0	2.6430	0	34.5120	0	27.536	0	1472.749	0	26.1	4	8.0	4	-1E+10	1	-1E+10	1	-1E+10	1	-1E+10	1	-1E+10	1	-1E+10	1
4901784	42	C	08/28/2016	10:40	-132.370	44.923	0	1494.60	0	2.6300	0	34.5120	0	27.537	0	1477.181	0	26.2	4	8.0	4	-1E+10	1	-1E+10	1	-1E+10	1	-1E+10	1	-1E+10	1	-1E+10	1
4901784	42	C	08/28/2016	10:40	-132.370	44.923	0	1499.90	0	2.6180	0	34.5120	0	27.538	0	1482.401	0	26.2	4	8.0	4	-1E+10	1	-1E+10	1	-1E+10	1	-1E+10	1	-1E+10	1	-1E+10	1
4901784	42	C	08/28/2016	10:40	-132.370	44.923	0	1505.30	0	2.6100	0	34.5120	0	27.539	0	1487.719	0	26.3	4	8.0	4	-1E+10	1	-1E+10	1	-1E+10	1	-1E+10	1	-1E+10	1	-1E+10	1
4901784	42	C	08/28/2016	10:40	-132.370	44.923	0	1509.90	0	2.6040	0	34.5130	0	27.541	0	1492.249	0	26.5	4	8.1	4	-1E+10	1	-1E+10	1	-1E+10	1	-1E+10	1	-1E+10	1	-1E+10	1
4901784	42	C	08/28/2016	10:40	-132.370	44.923	0	1514.40	0	2.5950	0	34.5140	0	27.542	0	1496.680	0	26.9	4	8.2	4	-1E+10	1	-1E+10	1	-1E+10	1	-1E+10	1	-1E+10	1	-1E+10	1
4901784	42	C	08/28/2016	10:40	-132.370	44.923	0	1519.80	0	2.5850	0	34.5160	0	27.545	0	1501.998	0	27.3	4	8.3	4	-1E+10	1	-1E+10	1	-1E+10	1	-1E+10	1	-1E+10	1	-1E+10	1
4901784	42	C	08/28/2016	10:40	-132.370	44.923	0	1525.30	0	2.5730	0	34.5170	0	27.546	0	1507.414	0	27.4	4	8.4	4	-1E+10	1	-1E+10	1	-1E+10	1	-1E+10	1	-1E+10	1	-1E+10	1
4901784	42	C	08/28/2016	10:40	-132.370	44.923	0	1529.90	0	2.5640	0	34.5180	0	27.548	0	1511.943	0	27.5	4	8.4	4	-1E+10	1	-1E+10	1	-1E+10	1	-1E+10	1	-1E+10	1	-1E+10	1
4901784	42	C	08/28/2016	10:40	-132.370	44.923	0	1534.50	0	2.5560	0	34.5180	0	27.549	0	1516.473	0	27.6	4	8.4	4	-1E+10	1	-1E+10	1	-1E+10	1	-1E+10	1	-1E+10	1	-1E+10	1
4901784	42	C	08/28/2016	10:40	-132.370	44.923	0	1540.10	0	2.5490	0	34.5180	0	27.549	0	1521.987	0	27.7	4	8.4	4	-1E+10	1	-1E+10	1	-1E+10	1	-1E+10	1	-1E+10	1	-1E+10	1
4901784	42	C	08/28/2016	10:40	-132.370	44.923	0	1544.60	0	2.5470	0	34.5180	0	27.550	0	1526.418	0	27.7	4	8.5	4	-1E+10	1	-1E+10	1	-1E+10	1	-1E+10	1	-1E+10	1	-1E+10	1
4901784	42	C	08/28/2016	10:40	-132.370	44.923	0	1549.10	0	2.5400	0	34.5190	0	27.551	0	1530.849	0	27.9	4	8.5	4	-1E+10	1	-1E+10	1	-1E+10	1	-1E+10	1	-1E+10	1	-1E+10	1
4901784	42	C	08/28/2016	10:40	-132.370	44.923	0	1554.50	0	2.5340	0	34.5190	0	27.551	0	1536.165	0	28.2	4	8.6	4	-1E+10	1	-1E+10	1	-1E+10	1	-1E+10	1	-1E+10	1	-1E+10	1
4901784	42	C	08/28/2016	10:40	-132.370	44.923	0	1559.30	0	2.5210	0	34.5200	0	27.553	0	1540.891	0	28.6	4	8.7	4	-1E+10	1	-1E+10	1	-1E+10	1	-1E+10	1	-1E+10	1	-1E+10	1
4901784	42	C	08/28/2016	10:40	-132.370	44.923	0	1565.00	0	2.5020	0	34.5220	0	27.557	0	1546.503	0	28.9	4	8.8	4	-1E+10	1	-1E+10	1	-1E+10	1	-1E+10	1	-1E+10	1	-1E+10	1
4901784	42	C	08/28/2016	10:40	-132.370	44.923	0	1570.60	0	2.4910	0	34.5230	0	27.558	0	1552.016	0	29.2	4	8.9	4	-1E+10	1	-1E+10	1	-1E+10	1	-1E+10	1	-1E+10	1	-1E+10	1
4901784	42	C	08/28/2016	10:40	-132.370	44.923	0	1575.40	0	2.4770	0	34.5230	0	27.560	0	1556.742	0	29.5	4	9.0	4	-1E+10	1	-1E+10	1	-1E+10	1	-1E+10	1	-1E+10	1	-1E+10	1
4901784	42	C	08/28/2016	10:40	-132.370	44.923	0	1580.40	0	2.4590	0	34.5250	0	27.563	0	1561.664	0	29.8	4	9.1	4	-1E+10	1	-1E+10	1	-1E+10	1	-1E+10	1	-1E+10	1	-1E+10	1
4901784	42	C	08/28/2016	10:40	-132.370	44.923	0	1585.30	0	2.4460	0	34.5260	0	27.565	0	1566.488	0	30.2	4	9.2	4	-1E+10	1	-1E+10	1	-1E+10	1	-1E+10	1	-1E+10	1	-1E+10	1
4901784	42	C	08/28/2016	10:40	-132.370	44.923	0	1590.30	0	2.4360	0	34.5270	0	27.566	0	1571.410	0	30.7	4	9.4	4	-1E+10	1	-1E+10	1	-1E+10	1	-1E+10	1	-1E+10	1	-1E+10	1
4901784	42	C	08/28/2016	10:40	-132.370	44.923	0	1595.30	0	2.4220	0	34.5290	0	27.569	0	1576.332	0	31.1	4	9.5	4	-1E+10	1	-1E+10	1	-1E+10	1	-1E+10	1	-1E+10	1	-1E+10	1
4901784	42	C	08/28/2016	10:40	-132.370	44.923	0	1600.30	0	2.4080	0	34.5300	0	27.571	0	1581.254	0	31.4	4	9.6	4	-1E+10	1	-1E+10	1	-1E+10	1	-1E+10	1	-1E+10	1	-1E+10	1
4901784	42	C	08/28/2016	10:40	-132.370	44.923	0	1605.30	0	2.3940	0	34.5310	0	27.573	0	1586.176	0	31.6	4	9.6	4	-1E+10	1	-1E+10	1	-1E+10	1	-1E+10	1	-1E+10	1	-1E+10	1
4901784	42	C	08/28/2016	10:40	-132.370	44.923	0	1610.30	0	2.3880	0	34.5320	0	27.574	0	1591.098	0	31.9	4	9.7	4	-1E+10	1	-1E+10	1	-1E+10	1	-1E+10	1	-1E+10	1	-1E+10	1
4901784	42	C	08/28/2016	10:40	-132.370	44.923	0	1615.40	0	2.3790	0	34.5330	0	27.576	0	1596.118	0	32.3	4	9.8	4	-1E+10	1	-1E+10	1	-1E+10	1	-1E+10	1	-1E+10	1	-1E+10	1
4901784	42	C	08/28/2016	10:40	-132.370	44.923	0	1620.50	0	2.3650	0	34.5340	0	27.578	0	1601.137	0	32.8	4	10.0	4	-1E+10	1	-1E+10	1	-1E+10	1	-1E+10	1	-1E+10	1	-1E+10	1
4901784	42	C	08/28/2016	10:40	-132.370	44.923	0	1624.90	0	2.3540	0	34.5360	0	27.580	0	1605.468	0	33.2	4	10.1	4	-1E+10	1	-1E+10	1	-1E+10	1	-1E+10	1	-1E+10	1	-1E+10	1
4901784	42	C	08/28/2016	10:40	-132.370	44.923	0	1629.40	0	2.3440	0	34.5370	0	27.582	0	1609.897	0	33.4	4	10.2	4	-1E+10	1	-1E+10	1	-1E+10	1	-1E+10	1	-1E+10	1	-1E+10	1
4901784	42	C	08/28/2016	10:40	-132.370	44.923	0	1634.70	0	2.3400	0	34.5380	0	27.583	0	1615.114	0	33.7	4	10.2	4	-1E+10	1	-1E+10	1	-1E+10	1	-1E+10	1	-1E+10	1	-1E+10	1
4901784	42	C	08/28/2016	10:40	-132.370	44.923	0	1640.00	0	2.3340	0	34.5390	0	27.584	0	1620.330	0	34.0	4	10.3	4	-1E+10	1	-1E+10	1	-1E+10	1	-1E+10	1	-1E+10	1	-1E+10	1
4901784	42	C	08/28/2016	10:40	-132.370	44.923	0	1645.40	0	2.3310	0	34.5400	0	27.586	0	1625.644	0	34.1	4	10.4	4	-1E+10	1	-1E+10	1	-1E+10	1	-1E+10	1	-1E+10	1	-1E+10	1
4901784	42	C	08/28/2016	10:40	-132.370	44.923	0	1649.80	0	2.3310	0	34.5400	0	27.586	0	1629.975	0	34.3	4	10.4	4	-1E+10	1	-1E+10	1	-1E+10	1	-1E+10	1	-1E+10	1	-1E+10	1
4901784	42	C	08/28/2016	10:40	-132.370	44.923	0	1654.30	0	2.3290	0	34.5400	0	27.586	0	1634.403	0	34.6	4	10.5	4	-1E+10	1	-1E+10	1	-1E+10	1	-1E+10	1	-1E+10	1	-1E+10	1
4901784	42	C	08/28/2016	10:40	-132.370	44.923	0	1659.90	0	2.3190	0	34.5420	0	27.588	0	1639.914	0	35.0	4	10.6	4	-1E+10	1	-1E+10	1	-1E+10	1	-1E+10	1	-1E+10	1	-1E+10	1
4901784	42	C	08/28/2016	10:40	-132.370	44.923	0	1665.40	0	2.3120	0	34.5430	0	27.590	0	1645.327	0	35.3	4	10.7	4	-1E+10	1	-1E+10	1	-1E+10	1	-1E+10	1	-1E+10	1	-1E+10	1
4901784	42	C	08/28/2016	10:40	-132.370	44.923	0	1670.00	0	2.3050	0	34.5440	0	27.591	0	1649.853	0	35.7	4	10.8	4	-1E+10	1	-1E+10	1	-1E+10	1	-1E+10	1	-1E+10	1	-1E+10	1
4901784	42	C	08/28/2016	10:40	-132.370	44.923	0	1674.70	0	2.2990	0	34.5440	0	27.592	0	1654.478	0	36.0	4	10.9	4	-1E+10	1	-1E+10	1	-1E+10	1	-1E+10	1	-1E+10	1	-1E+10	1
4901784	42	C	08/28/2016	10:40	-132.370	44.923	0	1680.20	0	2.2900	0	34.5450	0	27.593	0	1659.890	0	36.3	4	11.0	4	-1E+10	1	-1E+10	1	-1E+10	1	-1E+10	1	-1E+10	1	-1E+10	1
4901784	42	C	08/28/2016	10:40	-132.370	44.923	0	1684.90	0	2.2800	0	34.5470	0	27.596	0	1664.515	0	36.6	4	11.1	4	-1E+10	1	-1E+10	1	-1E+10	1	-1E+10	1	-1E+10	1	-1E+10	1
4901784	42	C	08/28/2016	10:40	-132.370	44.923	0	1689.60	0	2.2770	0	34.5470	0	27.596	0	1669.140	0	36.9	4	11.2	4	-1E+10	1	-1E+10	1	-1E+10	1	-1E+10	1	-1E+10	1	-1E+10	1
4901784	42	C	08/28/2016	10:40	-132.370	44.923	0	1695.20	0	2.2680	0	34.5480	0	27.597	0	1674.650	0	37.3	4	11.3	4	-1E+10	1	-1E+10	1	-1E+10	1	-1E+10	1	-1E+10	1	-1E+10	1
4901784	42	C	08/28/2016	10:40	-132.370	44.923	0	1699.80	0	2.2600	0	34.5490	0	27.599	0	1679.176	0	37.7	4	11.4	4	-1E+10	1	-1E+10	1	-1E+10	1	-1E+10	1	-1E+10	1	-1E+10	1
4901784	42	C	08/28/2016	10:40	-132.370	44.923	0	1704.70	0	2.2520	0	34.5510	0	27.601	0	1683.997	0	38.0	4	11.5	4	-1E+10	1	-1E+10	1	-1E+10	1	-1E+10	1	-1E+10	1	-1E+10	1
4901784	42	C	08/28/2016	10:40	-132.370	44.923	0	1709.90	0	2.2460	0	34.5510	0	27.602	0	1689.113	0	38.3	4	11.6	4	-1E+10	1	-1E+10	1	-1E+10	1	-1E+10	1	-1E+10	1	-1E+10	1
4901784	42	C	08/28/2016	10:40	-132.370	44.923	0	1714.80	0	2.2420	0	34.5520	0	27.603	0	1693.934	0	38.5	4	11.7	4	-1E+10	1	-1E+10	1	-1E+10	1	-1E+10	1	-1E+10	1	-1E+10	1
4901784	42	C	08/28/2016	10:40	-132.370	44.923	0	1719.60	0	2.2350	0	34.5520	0	27.603	0	1698.656	0	38.6	4	11.7	4	-1E+10	1	-1E+10	1	-1E+10	1	-1E+10	1	-1E+10	1	-1E+10	1
4901784	42	C	08/28/2016	10:40	-132.370	44.923	0	1724.40	0	2.2300	0	34.5530	0	27.605	0	1703.379	0	38.9	4	11.8	4	-1E+10	1	-1E+10	1	-1E+10	1	-1E+10	1	-1E+10	1	-1E+10	1
4901784	42	C	08/28/2016	10:40	-132.370	44.923	0	1729.30	0	2.2260	0	34.5540	0	27.606	0	1708.199	0	39.3	4	11.9	4	-1E+10	1	-1E+10	1	-1E+10	1	-1E+10	1	-1E+10	1	-1E+10	1
4901784	42	C	08/28/2016	10:40	-132.370	44.923	0	1735.00	0	2.2180	0	34.5550	0	27.607	0	1713.807	0	39.7	4	12.0	4	-1E+10	1	-1E+10	1	-1E+10	1	-1E+10	1	-1E+10	1	-1E+10	1
4901784	42	C	08/28/2016	10:40	-132.370	44.923	0	1740.70	0	2.2140	0	34.5570	0	27.609	0	1719.414	0	40.2	4	12.2	4	-1E+10	1	-1E+10	1	-1E+10	1	-1E+10	1	-1E+10	1	-1E+10	1
4901784	42	C	08/28/2016	10:40	-132.370	44.923	0	1745.60	0	2.2110	0	34.5580	0	27.610	0	1724.234	0	40.4	4	12.3	4	-1E+10	1	-1E+10	1	-1E+10	1	-1E+10	1	-1E+10	1	-1E+10	1
4901784	42	C	08/28/2016	10:40	-132.370	44.923	0	1750.60	0	2.2100	0	34.5580	0	27.610	0	1729.153	0	40.5	4	12.3	4	-1E+10	1	-1E+10	1	-1E+10	1	-1E+10	1	-1E+10	1	-1E+10	1
4901784	42	C	08/28/2016	10:40	-132.370	44.923	0	1755.60	0	2.2070	0	34.5580	0	27.611	0	1734.071	0	40.9	4	12.4	4	-1E+10	1	-1E+10	1	-1E+10	1	-1E+10	1	-1E+10	1	-1E+10	1
4901784	42	C	08/28/2016	10:40	-132.370	44.923	0	1760.60	0	2.1950	0	34.5590	0	27.612	0	1738.989	0	41.2	4	12.5	4	-1E+10	1	-1E+10	1	-1E+10	1	-1E+10	1	-1E+10	1	-1E+10	1
4901784	42	C	08/28/2016	10:40	-132.370	44.923	0	1765.60	0	2.1930	0	34.5600	0	27.613	0	1743.907	0	41.5	4	12.6	4	-1E+10	1	-1E+10	1	-1E+10	1	-1E+10	1	-1E+10	1	-1E+10	1
4901784	42	C	08/28/2016	10:40	-132.370	44.923	0	1770.70	0	2.1910	0	34.5610	0	27.614	0	1748.924	0	41.8	4	12.7	4	-1E+10	1	-1E+10	1	-1E+10	1	-1E+10	1	-1E+10	1	-1E+10	1
4901784	42	C	08/28/2016	10:40	-132.370	44.923	0	1775.70	0	2.1850	0	34.5620	0	27.616	0	1753.841	0	42.2	4	12.8	4	-1E+10	1	-1E+10	1	-1E+10	1	-1E+10	1	-1E+10	1	-1E+10	1
4901784	42	C	08/28/2016	10:40	-132.370	44.923	0	1779.90	0	2.1770	0	34.5630	0	27.617	0	1757.972	0	42.6	4	12.9	4	-1E+10	1	-1E+10	1	-1E+10	1	-1E+10	1	-1E+10	1	-1E+10	1
4901784	42	C	08/28/2016	10:40	-132.370	44.923	0	1784.20	0	2.1670	0	34.5640	0	27.619	0	1762.202	0	42.9	4	13.0	4	-1E+10	1	-1E+10	1	-1E+10	1	-1E+10	1	-1E+10	1	-1E+10	1
4901784	42	C	08/28/2016	10:40	-132.370	44.923	0	1789.40	0	2.1640	0	34.5640	0	27.619	0	1767.316	0	43.1	4	13.1	4	-1E+10	1	-1E+10	1	-1E+10	1	-1E+10	1	-1E+10	1	-1E+10	1
4901784	42	C	08/28/2016	10:40	-132.370	44.923	0	1794.50	0	2.1600	0	34.5650	0	27.620	0	1772.332	0	43.4	4	13.2	4	-1E+10	1	-1E+10	1	-1E+10	1	-1E+10	1	-1E+10	1	-1E+10	1
4901784	42	C	08/28/2016	10:40	-132.370	44.923	0	1799.60	0	2.1550	0	34.5660	0	27.621	0	1777.347	0	43.8	4	13.3	4	-1E+10	1	-1E+10	1	-1E+10	1	-1E+10	1	-1E+10	1	-1E+10	1
4901784	42	C	08/28/2016	10:40	-132.370	44.923	0	1804.80	0	2.1470	0	34.5670	0	27.623	0	1782.461	0	44.2	4	13.4	4	-1E+10	1	-1E+10	1	-1E+10	1	-1E+10	1	-1E+10	1	-1E+10	1
4901784	42	C	08/28/2016	10:40	-132.370	44.923	0	1810.00	0	2.1400	0	34.5680	0	27.624	0	1787.575	0	44.5	4	13.5	4	-1E+10	1	-1E+10	1	-1E+10	1	-1E+10	1	-1E+10	1	-1E+10	1
4901784	42	C	08/28/2016	10:40	-132.370	44.923	0	1815.20	0	2.1360	0	34.5680	0	27.625	0	1792.689	0	44.8	4	13.5	4	-1E+10	1	-1E+10	1	-1E+10	1	-1E+10	1	-1E+10	1	-1E+10	1
4901784	42	C	08/28/2016	10:40	-132.370	44.923	0	1820.40	0	2.1350	0	34.5690	0	27.625	0	1797.802	0	44.9	4	13.6	4	-1E+10	1	-1E+10	1	-1E+10	1	-1E+10	1	-1E+10	1	-1E+10	1
4901784	42	C	08/28/2016	10:40	-132.370	44.923	0	1825.70	0	2.1310	0	34.5690	0	27.626	0	1803.014	0	45.3	4	13.7	4	-1E+10	1	-1E+10	1	-1E+10	1	-1E+10	1	-1E+10	1	-1E+10	1
4901784	42	C	08/28/2016	10:40	-132.370	44.923	0	1830.00	0	2.1250	0	34.5700	0	27.627	0	1807.242	0	45.6	4	13.8	4	-1E+10	1	-1E+10	1	-1E+10	1	-1E+10	1	-1E+10	1	-1E+10	1
4901784	42	C	08/28/2016	10:40	-132.370	44.923	0	1834.40	0	2.1200	0	34.5710	0	27.628	0	1811.569	0	46.0	4	13.9	4	-1E+10	1	-1E+10	1	-1E+10	1	-1E+10	1	-1E+10	1	-1E+10	1
4901784	42	C	08/28/2016	10:40	-132.370	44.923	0	1839.50	0	2.1130	0	34.5720	0	27.630	0	1816.584	0	46.4	4	14.0	4	-1E+10	1	-1E+10	1	-1E+10	1	-1E+10	1	-1E+10	1	-1E+10	1
4901784	42	C	08/28/2016	10:40	-132.370	44.923	0	1844.80	0	2.1070	0	34.5730	0	27.631	0	1821.795	0	46.7	4	14.1	4	-1E+10	1	-1E+10	1	-1E+10	1	-1E+10	1	-1E+10	1	-1E+10	1
4901784	42	C	08/28/2016	10:40	-132.370	44.923	0	1850.00	0	2.0990	0	34.5730	0	27.632	0	1826.908	0	47.1	4	14.2	4	-1E+10	1	-1E+10	1	-1E+10	1	-1E+10	1	-1E+10	1	-1E+10	1
4901784	42	C	08/28/2016	10:40	-132.370	44.923	0	1855.30	0	2.0930	0	34.5740	0	27.633	0	1832.119	0	47.4	4	14.3	4	-1E+10	1	-1E+10	1	-1E+10	1	-1E+10	1	-1E+10	1	-1E+10	1
4901784	42	C	08/28/2016	10:40	-132.370	44.923	0	1860.50	0	2.0880	0	34.5750	0	27.634	0	1837.231	0	47.7	4	14.4	4	-1E+10	1	-1E+10	1	-1E+10	1	-1E+10	1	-1E+10	1	-1E+10	1
4901784	42	C	08/28/2016	10:40	-132.370	44.923	0	1864.90	0	2.0860	0	34.5750	0	27.634	0	1841.557	0	48.0	4	14.5	4	-1E+10	1	-1E+10	1	-1E+10	1	-1E+10	1	-1E+10	1	-1E+10	1
4901784	42	C	08/28/2016	10:40	-132.370	44.923	0	1869.40	0	2.0800	0	34.5760	0	27.636	0	1845.981	0	48.4	4	14.6	4	-1E+10	1	-1E+10	1	-1E+10	1	-1E+10	1	-1E+10	1	-1E+10	1
4901784	42	C	08/28/2016	10:40	-132.370	44.923	0	1874.80	0	2.0730	0	34.5770	0	27.637	0	1851.290	0	48.7	4	14.7	4	-1E+10	1	-1E+10	1	-1E+10	1	-1E+10	1	-1E+10	1	-1E+10	1
4901784	42	C	08/28/2016	10:40	-132.370	44.923	0	1880.20	0	2.0650	0	34.5780	0	27.639	0	1856.599	0	49.1	4	14.8	4	-1E+10	1	-1E+10	1	-1E+10	1	-1E+10	1	-1E+10	1	-1E+10	1
4901784	42	C	08/28/2016	10:40	-132.370	44.923	0	1885.60	0	2.0590	0	34.5790	0	27.640	0	1861.907	0	49.4	4	14.9	4	-1E+10	1	-1E+10	1	-1E+10	1	-1E+10	1	-1E+10	1	-1E+10	1
4901784	42	C	08/28/2016	10:40	-132.370	44.923	0	1890.10	0	2.0560	0	34.5790	0	27.640	0	1866.331	0	49.6	4	15.0	4	-1E+10	1	-1E+10	1	-1E+10	1	-1E+10	1	-1E+10	1	-1E+10	1
4901784	42	C	08/28/2016	10:40	-132.370	44.923	0	1894.70	0	2.0530	0	34.5800	0	27.641	0	1870.853	0	49.9	4	15.1	4	-1E+10	1	-1E+10	1	-1E+10	1	-1E+10	1	-1E+10	1	-1E+10	1
4901784	42	C	08/28/2016	10:40	-132.370	44.923	0	1900.20	0	2.0480	0	34.5810	0	27.642	0	1876.260	0	50.1	4	15.1	4	-1E+10	1	-1E+10	1	-1E+10	1	-1E+10	1	-1E+10	1	-1E+10	1
4901784	42	C	08/28/2016	10:40	-132.370	44.923	0	1905.60	0	2.0460	0	34.5810	0	27.643	0	1881.568	0	50.4	4	15.2	4	-1E+10	1	-1E+10	1	-1E+10	1	-1E+10	1	-1E+10	1	-1E+10	1
4901784	42	C	08/28/2016	10:40	-132.370	44.923	0	1910.30	0	2.0410	0	34.5820	0	27.644	0	1886.188	0	50.6	4	15.3	4	-1E+10	1	-1E+10	1	-1E+10	1	-1E+10	1	-1E+10	1	-1E+10	1
4901784	42	C	08/28/2016	10:40	-132.370	44.923	0	1914.90	0	2.0360	0	34.5820	0	27.644	0	1890.709	0	50.8	4	15.3	4	-1E+10	1	-1E+10	1	-1E+10	1	-1E+10	1	-1E+10	1	-1E+10	1
4901784	42	C	08/28/2016	10:40	-132.370	44.923	0	1920.50	0	2.0330	0	34.5830	0	27.645	0	1896.214	0	51.0	4	15.4	4	-1E+10	1	-1E+10	1	-1E+10	1	-1E+10	1	-1E+10	1	-1E+10	1
4901784	42	C	08/28/2016	10:40	-132.370	44.923	0	1924.60	0	2.0310	0	34.5830	0	27.645	0	1900.243	0	51.3	4	15.5	4	-1E+10	1	-1E+10	1	-1E+10	1	-1E+10	1	-1E+10	1	-1E+10	1
4901784	42	C	08/28/2016	10:40	-132.370	44.923	0	1929.60	0	2.0270	0	34.5840	0	27.647	0	1905.158	0	51.5	4	15.5	4	-1E+10	1	-1E+10	1	-1E+10	1	-1E+10	1	-1E+10	1	-1E+10	1
4901784	42	C	08/28/2016	10:40	-132.370	44.923	0	1934.50	0	2.0240	0	34.5840	0	27.647	0	1909.974	0	51.7	4	15.6	4	-1E+10	1	-1E+10	1	-1E+10	1	-1E+10	1	-1E+10	1	-1E+10	1
4901784	42	C	08/28/2016	10:40	-132.370	44.923	0	1939.40	0	2.0230	0	34.5840	0	27.647	0	1914.790	0	52.0	4	15.7	4	-1E+10	1	-1E+10	1	-1E+10	1	-1E+10	1	-1E+10	1	-1E+10	1
4901784	42	C	08/28/2016	10:40	-132.370	44.923	0	1944.40	0	2.0180	0	34.5850	0	27.648	0	1919.704	0	52.3	4	15.8	4	-1E+10	1	-1E+10	1	-1E+10	1	-1E+10	1	-1E+10	1	-1E+10	1
4901784	42	C	08/28/2016	10:40	-132.370	44.923	0	1949.50	0	2.0150	0	34.5860	0	27.649	0	1924.716	0	52.7	4	15.9	4	-1E+10	1	-1E+10	1	-1E+10	1	-1E+10	1	-1E+10	1	-1E+10	1
4901784	42	C	08/28/2016	10:40	-132.370	44.923	0	1954.50	0	2.0130	0	34.5870	0	27.650	0	1929.630	0	53.0	4	16.0	4	-1E+10	1	-1E+10	1	-1E+10	1	-1E+10	1	-1E+10	1	-1E+10	1
4901784	42	C	08/28/2016	10:40	-132.370	44.923	0	1959.60	0	2.0090	0	34.5880	0	27.651	0	1934.642	0	53.3	4	16.1	4	-1E+10	1	-1E+10	1	-1E+10	1	-1E+10	1	-1E+10	1	-1E+10	1
4901784	42	C	08/28/2016	10:40	-132.370	44.923	0	1964.70	0	2.0040	0	34.5880	0	27.652	0	1939.653	0	53.6	4	16.2	4	-1E+10	1	-1E+10	1	-1E+10	1	-1E+10	1	-1E+10	1	-1E+10	1
4901784	42	C	08/28/2016	10:40	-132.370	44.923	0	1969.80	0	2.0000	0	34.5890	0	27.653	0	1944.665	0	54.0	4	16.3	4	-1E+10	1	-1E+10	1	-1E+10	1	-1E+10	1	-1E+10	1	-1E+10	1
4901784	42	C	08/28/2016	10:40	-132.370	44.923	0	1974.90	0	1.9950	0	34.5900	0	27.654	0	1949.677	0	54.3	4	16.4	4	-1E+10	1	-1E+10	1	-1E+10	1	-1E+10	1	-1E+10	1	-1E+10	1
4901784	42	C	08/28/2016	10:40	-132.370	44.923	0	1980.00	0	1.9920	0	34.5910	0	27.655	0	1954.688	0	54.6	4	16.5	4	-1E+10	1	-1E+10	1	-1E+10	1	-1E+10	1	-1E+10	1	-1E+10	1
4901784	42	C	08/28/2016	10:40	-132.370	44.923	0	1984.90	0	1.9910	0	34.5910	0	27.655	0	1959.503	0	54.8	4	16.5	4	-1E+10	1	-1E+10	1	-1E+10	1	-1E+10	1	-1E+10	1	-1E+10	1
4901784	42	C	08/28/2016	10:40	-132.370	44.923	0	1989.70	0	1.9880	0	34.5920	0	27.656	0	1964.219	0	55.0	4	16.6	4	-1E+10	1	-1E+10	1	-1E+10	1	-1E+10	1	-1E+10	1	-1E+10	1
4901784	42	C	08/28/2016	10:40	-132.370	44.923	0	1994.40	0	1.9850	0	34.5930	0	27.657	0	1968.838	0	55.2	4	16.6	4	-1E+10	1	-1E+10	1	-1E+10	1	-1E+10	1	-1E+10	1	-1E+10	1
4901784	42	C	08/28/2016	10:40	-132.370	44.923	0	2000.10	0	1.9830	0	34.5930	0	27.658	0	1974.438	0	55.3	4	16.7	4	-1E+10	1	-1E+10	1	-1E+10	1	-1E+10	1	-1E+10	1	-1E+10	1
4901784	42	C	08/28/2016	10:40	-132.370	44.923	0	2004.50	0	1.9810	0	34.5930	0	27.658	0	1978.761	0	55.2	4	16.6	4	-1E+10	1	-1E+10	1	-1E+10	1	-1E+10	1	-1E+10	1	-1E+10	1
4901784	42	C	08/28/2016	10:40	-132.370	44.923	0																										
4901784	43	C	09/07/2016	10:48	-132.318	44.858	0	2.50	0	17.8760	0	32.7920	0	23.613	0	2.480	0	232.5	4	97.7	4	-1E+10	1	-1E+10	1	-1E+10	1	-1E+10	1	-1E+10	1	-1E+10	1
4901784	43	C	09/07/2016	10:48	-132.318	44.858	0	3.90	0	17.8750	0	32.7930	0	23.614	0	3.868	0	232.5	4	97.7	4	-1E+10	1	-1E+10	1	-1E+10	1	-1E+10	1	-1E+10	1	-1E+10	1
4901784	43	C	09/07/2016	10:48	-132.318	44.858	0	5.40	0	17.8750	0	32.7920	0	23.613	0	5.356	0	232.3	4	97.6	4	-1E+10	1	-1E+10	1	-1E+10	1	-1E+10	1	-1E+10	1	-1E+10	1
4901784	43	C	09/07/2016	10:48	-132.318	44.858	0	7.00	0	17.8780	0	32.7930	0	23.613	0	6.943	0	232.1	4	97.5	4	-1E+10	1	-1E+10	1	-1E+10	1	-1E+10	1	-1E+10	1	-1E+10	1
4901784	43	C	09/07/2016	10:48	-132.318	44.858	0	8.60	0	17.8780	0	32.7920	0	23.613	0	8.530	0	232.2	4	97.5	4	-1E+10	1	-1E+10	1	-1E+10	1	-1E+10	1	-1E+10	1	-1E+10	1
4901784	43	C	09/07/2016	10:48	-132.318	44.858	0	10.30	0	17.8780	0	32.7920	0	23.613	0	10.216	0	232.1	4	97.5	4	-1E+10	1	-1E+10	1	-1E+10	1	-1E+10	1	-1E+10	1	-1E+10	1
4901784	43	C	09/07/2016	10:48	-132.318	44.858	0	11.80	0	17.8780	0	32.7920	0	23.613	0	11.704	0	231.8	4	97.4	4	-1E+10	1	-1E+10	1	-1E+10	1	-1E+10	1	-1E+10	1	-1E+10	1
4901784	43	C	09/07/2016	10:48	-132.318	44.858	0	13.50	0	17.8790	0	32.7920	0	23.613	0	13.390	0	231.7	4	97.3	4	-1E+10	1	-1E+10	1	-1E+10	1	-1E+10	1	-1E+10	1	-1E+10	1
4901784	43	C	09/07/2016	10:48	-132.318	44.858	0	15.20	0	17.8780	0	32.7920	0	23.613	0	15.076	0	231.6	4	97.3	4	-1E+10	1	-1E+10	1	-1E+10	1	-1E+10	1	-1E+10	1	-1E+10	1
4901784	43	C	09/07/2016	10:48	-132.318	44.858	0	16.90	0	17.8770	0	32.7930	0	23.614	0	16.762	0	231.3	4	97.2	4	-1E+10	1	-1E+10	1	-1E+10	1	-1E+10	1	-1E+10	1	-1E+10	1
4901784	43	C	09/07/2016	10:48	-132.318	44.858	0	18.50	0	17.8780	0	32.7920	0	23.613	0	18.349	0	231.3	4	97.2	4	-1E+10	1	-1E+10	1	-1E+10	1	-1E+10	1	-1E+10	1	-1E+10	1
4901784	43	C	09/07/2016	10:48	-132.318	44.858	0	20.30	0	17.8770	0	32.7920	0	23.613	0	20.134	0	231.2	4	97.1	4	-1E+10	1	-1E+10	1	-1E+10	1	-1E+10	1	-1E+10	1	-1E+10	1
4901784	43	C	09/07/2016	10:48	-132.318	44.858	0	22.10	0	17.8790	0	32.7920	0	23.613	0	21.920	0	230.8	4	97.0	4	-1E+10	1	-1E+10	1	-1E+10	1	-1E+10	1	-1E+10	1	-1E+10	1
4901784	43	C	09/07/2016	10:48	-132.318	44.858	0	23.90	0	17.8790	0	32.7920	0	23.613	0	23.705	0	230.9	4	97.0	4	-1E+10	1	-1E+10	1	-1E+10	1	-1E+10	1	-1E+10	1	-1E+10	1
4901784	43	C	09/07/2016	10:48	-132.318	44.858	0	25.70	0	17.8790	0	32.7910	0	23.612	0	25.490	0	230.8	4	97.0	4	-1E+10	1	-1E+10	1	-1E+10	1	-1E+10	1	-1E+10	1	-1E+10	1
4901784	43	C	09/07/2016	10:48	-132.318	44.858	0	27.50	0	17.8790	0	32.7910	0	23.612	0	27.275	0	230.7	4	96.9	4	-1E+10	1	-1E+10	1	-1E+10	1	-1E+10	1	-1E+10	1	-1E+10	1
4901784	43	C	09/07/2016	10:48	-132.318	44.858	0	29.80	0	17.8800	0	32.7890	0	23.611	0	29.556	0	230.9	4	97.0	4	-1E+10	1	-1E+10	1	-1E+10	1	-1E+10	1	-1E+10	1	-1E+10	1
4901784	43	C	09/07/2016	10:48	-132.318	44.858	0	31.60	0	17.8260	0	32.7860	0	23.622	0	31.342	0	231.2	4	97.0	4	-1E+10	1	-1E+10	1	-1E+10	1	-1E+10	1	-1E+10	1	-1E+10	1
4901784	43	C	09/07/2016	10:48	-132.318	44.858	0	33.10	0	17.7790	0	32.7890	0	23.635	0	32.829	0	231.6	4	97.1	4	-1E+10	1	-1E+10	1	-1E+10	1	-1E+10	1	-1E+10	1	-1E+10	1
4901784	43	C	09/07/2016	10:48	-132.318	44.858	0	34.70	0	17.7400	0	32.7830	0	23.640	0	34.416	0	232.2	4	97.3	4	-1E+10	1	-1E+10	1	-1E+10	1	-1E+10	1	-1E+10	1	-1E+10	1
4901784	43	C	09/07/2016	10:48	-132.318	44.858	0	36.20	0	17.6720	0	32.7810	0	23.655	0	35.903	0	232.9	4	97.4	4	-1E+10	1	-1E+10	1	-1E+10	1	-1E+10	1	-1E+10	1	-1E+10	1
4901784	43	C	09/07/2016	10:48	-132.318	44.858	0	37.60	0	17.6580	0	32.7760	0	23.655	0	37.292	0	233.8	4	97.8	4	-1E+10	1	-1E+10	1	-1E+10	1	-1E+10	1	-1E+10	1	-1E+10	1
4901784	43	C	09/07/2016	10:48	-132.318	44.858	0	39.20	0	17.5600	0	32.7680	0	23.672	0	38.879	0	235.1	4	98.2	4	-1E+10	1	-1E+10	1	-1E+10	1	-1E+10	1	-1E+10	1	-1E+10	1
4901784	43	C	09/07/2016	10:48	-132.318	44.858	0	39.50	0	17.5040	0	32.7660	0	23.684	0	39.176	0	235.8	4	98.4	4	-1E+10	1	-1E+10	1	-1E+10	1	-1E+10	1	-1E+10	1	-1E+10	1
4901784	43	C	09/07/2016	10:48	-132.318	44.858	0	40.50	0	17.2990	0	32.7610	0	23.729	0	40.168	0	238.1	4	98.9	4	-1E+10	1	-1E+10	1	-1E+10	1	-1E+10	1	-1E+10	1	-1E+10	1
4901784	43	C	09/07/2016	10:48	-132.318	44.858	0	41.60	0	17.0100	0	32.7550	0	23.792	0	41.259	0	240.9	4	99.5	4	-1E+10	1	-1E+10	1	-1E+10	1	-1E+10	1	-1E+10	1	-1E+10	1
4901784	43	C	09/07/2016	10:48	-132.318	44.858	0	42.60	0	16.7660	0	32.7530	0	23.847	0	42.250	0	243.5	4	100.1	4	-1E+10	1	-1E+10	1	-1E+10	1	-1E+10	1	-1E+10	1	-1E+10	1
4901784	43	C	09/07/2016	10:48	-132.318	44.858	0	43.80	0	16.4230	0	32.7470	0	23.922	0	43.440	0	247.0	4	100.9	4	-1E+10	1	-1E+10	1	-1E+10	1	-1E+10	1	-1E+10	1	-1E+10	1
4901784	43	C	09/07/2016	10:48	-132.318	44.858	0	45.00	0	15.7970	0	32.7530	0	24.068	0	44.630	0	251.5	4	101.5	4	-1E+10	1	-1E+10	1	-1E+10	1	-1E+10	1	-1E+10	1	-1E+10	1
4901784	43	C	09/07/2016	10:48	-132.318	44.858	0	46.20	0	15.5290	0	32.7480	0	24.123	0	45.820	0	254.5	4	102.2	4	-1E+10	1	-1E+10	1	-1E+10	1	-1E+10	1	-1E+10	1	-1E+10	1
4901784	43	C	09/07/2016	10:48	-132.318	44.858	0	47.50	0	15.1590	0	32.7430	0	24.200	0	47.110	0	257.5	4	102.6	4	-1E+10	1	-1E+10	1	-1E+10	1	-1E+10	1	-1E+10	1	-1E+10	1
4901784	43	C	09/07/2016	10:48	-132.318	44.858	0	48.90	0	14.6820	0	32.7450	0	24.304	0	48.498	0	261.3	4	103.1	4	-1E+10	1	-1E+10	1	-1E+10	1	-1E+10	1	-1E+10	1	-1E+10	1
4901784	43	C	09/07/2016	10:48	-132.318	44.858	0	50.50	0	14.1810	0	32.7500	0	24.414	0	50.085	0	264.5	4	103.4	4	-1E+10	1	-1E+10	1	-1E+10	1	-1E+10	1	-1E+10	1	-1E+10	1
4901784	43	C	09/07/2016	10:48	-132.318	44.858	0	52.10	0	13.4760	0	32.7810	0	24.582	0	51.671	0	268.3	4	103.4	4	-1E+10	1	-1E+10	1	-1E+10	1	-1E+10	1	-1E+10	1	-1E+10	1
4901784	43	C	09/07/2016	10:48	-132.318	44.858	0	53.90	0	12.5280	0	32.8090	0	24.790	0	53.456	0	273.8	4	103.6	4	-1E+10	1	-1E+10	1	-1E+10	1	-1E+10	1	-1E+10	1	-1E+10	1
4901784	43	C	09/07/2016	10:48	-132.318	44.858	0	55.80	0	12.1440	0	32.8200	0	24.871	0	55.340	0	276.3	4	103.6	4	-1E+10	1	-1E+10	1	-1E+10	1	-1E+10	1	-1E+10	1	-1E+10	1
4901784	43	C	09/07/2016	10:48	-132.318	44.858	0	57.50	0	12.0150	0	32.8200	0	24.895	0	57.026	0	275.8	4	103.2	4	-1E+10	1	-1E+10	1	-1E+10	1	-1E+10	1	-1E+10	1	-1E+10	1
4901784	43	C	09/07/2016	10:48	-132.318	44.858	0	59.40	0	11.7430	0	32.8280	0	24.952	0	58.910	0	276.1	4	102.7	4	-1E+10	1	-1E+10	1	-1E+10	1	-1E+10	1	-1E+10	1	-1E+10	1
4901784	43	C	09/07/2016	10:48	-132.318	44.858	0	61.30	0	11.5790	0	32.8280	0	24.982	0	60.794	0	275.2	4	102.1	4	-1E+10	1	-1E+10	1	-1E+10	1	-1E+10	1	-1E+10	1	-1E+10	1
4901784	43	C	09/07/2016	10:48	-132.318	44.858	0	63.20	0	11.3580	0	32.8380	0	25.030	0	62.678	0	274.0	4	101.1	4	-1E+10	1	-1E+10	1	-1E+10	1	-1E+10	1	-1E+10	1	-1E+10	1
4901784	43	C	09/07/2016	10:48	-132.318	44.858	0	65.10	0	11.2720	0	32.8410	0	25.048	0	64.562	0	272.3	4	100.3	4	-1E+10	1	-1E+10	1	-1E+10	1	-1E+10	1	-1E+10	1	-1E+10	1
4901784	43	C	09/07/2016	10:48	-132.318	44.858	0	66.90	0	11.1760	0	32.8500	0	25.072	0	66.347	0	269.8	4	99.2	4	-1E+10	1	-1E+10	1	-1E+10	1	-1E+10	1	-1E+10	1	-1E+10	1
4901784	43	C	09/07/2016	10:48	-132.318	44.858	0	68.80	0	11.0600	0	32.8430	0	25.087	0	68.231	0	267.8	4	98.2	4	-1E+10	1	-1E+10	1	-1E+10	1	-1E+10	1	-1E+10	1	-1E+10	1
4901784	43	C	09/07/2016	10:48	-132.318	44.858	0	70.50	0	10.9060	0	32.8510	0	25.121	0	69.917	0	265.3	4	97.0	4	-1E+10	1	-1E+10	1	-1E+10	1	-1E+10	1	-1E+10	1	-1E+10	1
4901784	43	C	09/07/2016	10:48	-132.318	44.858	0	72.20	0	10.8380	0	32.8400	0	25.124	0	71.602	0	263.2	4	96.1	4	-1E+10	1	-1E+10	1	-1E+10	1	-1E+10	1	-1E+10	1	-1E+10	1
4901784	43	C	09/07/2016	10:48	-132.318	44.858	0	74.00	0	10.5890	0	32.8480	0	25.174	0	73.387	0	260.3	4	94.5	4	-1E+10	1	-1E+10	1	-1E+10	1	-1E+10	1	-1E+10	1	-1E+10	1
4901784	43	C	09/07/2016	10:48	-132.318	44.858	0	75.90	0	10.3110	0	32.8460	0	25.220	0	75.271	0	259.9	4	93.8	4	-1E+10	1	-1E+10	1	-1E+10	1	-1E+10	1	-1E+10	1	-1E+10	1
4901784	43	C	09/07/2016	10:48	-132.318	44.858	0	77.70	0	10.1410	0	32.8460	0	25.249	0	77.056	0	259.7	4	93.4	4	-1E+10	1	-1E+10	1	-1E+10	1	-1E+10	1	-1E+10	1	-1E+10	1
4901784	43	C	09/07/2016	10:48	-132.318	44.858	0	79.50	0	10.1300	0	32.8440	0	25.249	0	78.841	0	259.1	4	93.2	4	-1E+10	1	-1E+10	1	-1E+10	1	-1E+10	1	-1E+10	1	-1E+10	1
4901784	43	C	09/07/2016	10:48	-132.318	44.858	0	81.30	0	10.0840	0	32.8440	0	25.257	0	80.625	0	258.1	4	92.7	4	-1E+10	1	-1E+10	1	-1E+10	1	-1E+10	1	-1E+10	1	-1E+10	1
4901784	43	C	09/07/2016	10:48	-132.318	44.858	0	83.00	0	10.0200	0	32.8440	0	25.267	0	82.311	0	257.5	4	92.4	4	-1E+10	1	-1E+10	1	-1E+10	1	-1E+10	1	-1E+10	1	-1E+10	1
4901784	43	C	09/07/2016	10:48	-132.318	44.858	0	84.80	0	9.9770	0	32.8470	0	25.277	0	84.095	0	256.6	4	92.0	4	-1E+10	1	-1E+10	1	-1E+10	1	-1E+10	1	-1E+10	1	-1E+10	1
4901784	43	C	09/07/2016	10:48	-132.318	44.858	0	86.50	0	9.9320	0	32.8540	0	25.290	0	85.781	0	255.9	4	91.6	4	-1E+10	1	-1E+10	1	-1E+10	1	-1E+10	1	-1E+10	1	-1E+10	1
4901784	43	C	09/07/2016	10:48	-132.318	44.858	0	88.20	0	9.9020	0	32.8540	0	25.295	0	87.466	0	255.4	4	91.4	4	-1E+10	1	-1E+10	1	-1E+10	1	-1E+10	1	-1E+10	1	-1E+10	1
4901784	43	C	09/07/2016	10:48	-132.318	44.858	0	90.00	0	9.8810	0	32.8520	0	25.297	0	89.251	0	254.8	4	91.1	4	-1E+10	1	-1E+10	1	-1E+10	1	-1E+10	1	-1E+10	1	-1E+10	1
4901784	43	C	09/07/2016	10:48	-132.318	44.858	0	91.80	0	9.8370	0	32.8530	0	25.305	0	91.036	0	254.0	4	90.8	4	-1E+10	1	-1E+10	1	-1E+10	1	-1E+10	1	-1E+10	1	-1E+10	1
4901784	43	C	09/07/2016	10:48	-132.318	44.858	0	93.60	0	9.7660	0	32.8610	0	25.323	0	92.820	0	253.4	4	90.4	4	-1E+10	1	-1E+10	1	-1E+10	1	-1E+10	1	-1E+10	1	-1E+10	1
4901784	43	C	09/07/2016	10:48	-132.318	44.858	0	95.50	0	9.7450	0	32.8720	0	25.335	0	94.704	0	252.6	4	90.1	4	-1E+10	1	-1E+10	1	-1E+10	1	-1E+10	1	-1E+10	1	-1E+10	1
4901784	43	C	09/07/2016	10:48	-132.318	44.858	0	97.20	0	9.7560	0	32.8950	0	25.351	0	96.390	0	251.8	4	89.8	4	-1E+10	1	-1E+10	1	-1E+10	1	-1E+10	1	-1E+10	1	-1E+10	1
4901784	43	C	09/07/2016	10:48	-132.318	44.858	0	99.30	0	9.7630	0	32.9110	0	25.362	0	98.472	0	250.7	4	89.5	4	-1E+10	1	-1E+10	1	-1E+10	1	-1E+10	1	-1E+10	1	-1E+10	1
4901784	43	C	09/07/2016	10:48	-132.318	44.858	0	99.80	0	9.7770	0	32.9110	0	25.360	0	98.967	0	250.6	4	89.5	4	-1E+10	1	-1E+10	1	-1E+10	1	-1E+10	1	-1E+10	1	-1E+10	1
4901784	43	C	09/07/2016	10:48	-132.318	44.858	0	102.10	0	9.7980	0	32.9320	0	25.373	0	101.247	0	249.3	4	89.1	4	-1E+10	1	-1E+10	1	-1E+10	1	-1E+10	1	-1E+10	1	-1E+10	1
4901784	43	C	09/07/2016	10:48	-132.318	44.858	0	105.10	0	9.7860	0	32.9550	0	25.393	0	104.222	0	247.7	4	88.5	4	-1E+10	1	-1E+10	1	-1E+10	1	-1E+10	1	-1E+10	1	-1E+10	1
4901784	43	C	09/07/2016	10:48	-132.318	44.858	0	107.40	0	9.7430	0	32.9710	0	25.413	0	106.502	0	246.3	4	87.9	4	-1E+10	1	-1E+10	1	-1E+10	1	-1E+10	1	-1E+10	1	-1E+10	1
4901784	43	C	09/07/2016	10:48	-132.318	44.858	0	109.70	0	9.7360	0	32.9780	0	25.419	0	108.782	0	244.7	4	87.3	4	-1E+10	1	-1E+10	1	-1E+10	1	-1E+10	1	-1E+10	1	-1E+10	1
4901784	43	C	09/07/2016	10:48	-132.318	44.858	0	112.70	0	9.6850	0	33.0030	0	25.447	0	111.756	0	241.5	4	86.1	4	-1E+10	1	-1E+10	1	-1E+10	1	-1E+10	1	-1E+10	1	-1E+10	1
4901784	43	C	09/07/2016	10:48	-132.318	44.858	0	115.10	0	9.5570	0	33.0330	0	25.492	0	114.135	0	238.7	4	84.9	4	-1E+10	1	-1E+10	1	-1E+10	1	-1E+10	1	-1E+10	1	-1E+10	1
4901784	43	C	09/07/2016	10:48	-132.318	44.858	0	117.50	0	9.5820	0	33.0420	0	25.495	0	116.515	0	236.1	4	84.0	4	-1E+10	1	-1E+10	1	-1E+10	1	-1E+10	1	-1E+10	1	-1E+10	1
4901784	43	C	09/07/2016	10:48	-132.318	44.858	0	119.80	0	9.5770	0	33.0440	0	25.497	0	118.795	0	232.2	4	82.6	4	-1E+10	1	-1E+10	1	-1E+10	1	-1E+10	1	-1E+10	1	-1E+10	1
4901784	43	C	09/07/2016	10:48	-132.318	44.858	0	122.40	0	9.5380	0	33.0770	0	25.529	0	121.372	0	226.3	4	80.5	4	-1E+10	1	-1E+10	1	-1E+10	1	-1E+10	1	-1E+10	1	-1E+10	1
4901784	43	C	09/07/2016	10:48	-132.318	44.858	0	124.90	0	9.4690	0	33.1310	0	25.583	0	123.850	0	220.1	4	78.2	4	-1E+10	1	-1E+10	1	-1E+10	1	-1E+10	1	-1E+10	1	-1E+10	1
4901784	43	C	09/07/2016	10:48	-132.318	44.858	0	127.60	0	9.4220	0	33.1970	0	25.642	0	126.527	0	213.3	4	75.7	4	-1E+10	1	-1E+10	1	-1E+10	1	-1E+10	1	-1E+10	1	-1E+10	1
4901784	43	C	09/07/2016	10:48	-132.318	44.858	0	129.90	0	9.3690	0	33.2680	0	25.706	0	128.807	0	207.4	4	73.6	4	-1E+10	1	-1E+10	1	-1E+10	1	-1E+10	1	-1E+10	1	-1E+10	1
4901784	43	C	09/07/2016	10:48	-132.318	44.858	0	132.30	0	9.2750	0	33.3950	0	25.820	0	131.186	0	201.1	4	71.3	4	-1E+10	1	-1E+10	1	-1E+10	1	-1E+10	1	-1E+10	1	-1E+10	1
4901784	43	C	09/07/2016	10:48	-132.318	44.858	0	134.70	0	9.1190	0	33.4620	0	25.898	0	133.565	0	197.4	4	69.7	4	-1E+10	1	-1E+10	1	-1E+10	1	-1E+10	1	-1E+10	1	-1E+10	1
4901784	43	C	09/07/2016	10:48	-132.318	44.858	0	137.10	0	9.0190	0	33.5610	0	25.991	0	135.944	0	194.7	4	68.7	4	-1E+10	1	-1E+10	1	-1E+10	1	-1E+10	1	-1E+10	1	-1E+10	1
4901784	43	C	09/07/2016	10:48	-132.318	44.858	0	139.60	0	8.8720	0	33.6690	0	26.099	0	138.422	0	193.3	4	68.0	4	-1E+10	1	-1E+10	1	-1E+10	1	-1E+10	1	-1E+10	1	-1E+10	1
4901784	43	C	09/07/2016	10:48	-132.318	44.858	0	142.10	0	8.8360	0	33.6970	0	26.126	0	140.900	0	192.6	4	67.7	4	-1E+10	1	-1E+10	1	-1E+10	1	-1E+10	1	-1E+10	1	-1E+10	1
4901784	43	C	09/07/2016	10:48	-132.318	44.858	0	144.60	0	8.8050	0	33.7270	0	26.155	0	143.378	0	191.9	4	67.5	4	-1E+10	1	-1E+10	1	-1E+10	1	-1E+10	1	-1E+10	1	-1E+10	1
4901784	43	C	09/07/2016	10:48	-132.318	44.858	0	147.20	0	8.7820	0	33.7620	0	26.186	0	145.955	0	191.4	4	67.3	4	-1E+10	1	-1E+10	1	-1E+10	1	-1E+10	1	-1E+10	1	-1E+10	1
4901784	43	C	09/07/2016	10:48	-132.318	44.858	0	149.90	0	8.7670	0	33.7970	0	26.215	0	148.631	0	190.8	4	67.1	4	-1E+10	1	-1E+10	1	-1E+10	1	-1E+10	1	-1E+10	1	-1E+10	1
4901784	43	C	09/07/2016	10:48	-132.318	44.858	0	152.50	0	8.7390	0	33.8210	0	26.239	0	151.208	0	190.7	4	67.0	4	-1E+10	1	-1E+10	1	-1E+10	1	-1E+10	1	-1E+10	1	-1E+10	1
4901784	43	C	09/07/2016	10:48	-132.318	44.858	0	155.20	0	8.7380	0	33.8260	0	26.243	0	153.884	0	190.0	4	66.8	4	-1E+10	1	-1E+10	1	-1E+10	1	-1E+10	1	-1E+10	1	-1E+10	1
4901784	43	C	09/07/2016	10:48	-132.318	44.858	0	157.80	0	8.7320	0	33.8380	0	26.253	0	156.461	0	189.3	4	66.5	4	-1E+10	1	-1E+10	1	-1E+10	1	-1E+10	1	-1E+10	1	-1E+10	1
4901784	43	C	09/07/2016	10:48	-132.318	44.858	0	160.40	0	8.7070	0	33.8600	0	26.274	0	159.038	0	188.8	4	66.3	4	-1E+10	1	-1E+10	1	-1E+10	1	-1E+10	1	-1E+10	1	-1E+10	1
4901784	43	C	09/07/2016	10:48	-132.318	44.858	0	163.00	0	8.6870	0	33.8690	0	26.285	0	161.615	0	188.2	4	66.1	4	-1E+10	1	-1E+10	1	-1E+10	1	-1E+10	1	-1E+10	1	-1E+10	1
4901784	43	C	09/07/2016	10:48	-132.318	44.858	0	164.80	0	8.6740	0	33.8740	0	26.290	0	163.399	0	187.8	4	65.9	4	-1E+10	1	-1E+10	1	-1E+10	1	-1E+10	1	-1E+10	1	-1E+10	1
4901784	43	C	09/07/2016	10:48	-132.318	44.858	0	167.60	0	8.6550	0	33.8800	0	26.298	0	166.174	0	187.2	4	65.7	4	-1E+10	1	-1E+10	1	-1E+10	1	-1E+10	1	-1E+10	1	-1E+10	1
4901784	43	C	09/07/2016	10:48	-132.318	44.858	0	170.30	0	8.6350	0	33.8820	0	26.303	0	168.850	0	186.5	4	65.4	4	-1E+10	1	-1E+10	1	-1E+10	1	-1E+10	1	-1E+10	1	-1E+10	1
4901784	43	C	09/07/2016	10:48	-132.318	44.858	0	172.10	0	8.6030	0	33.8890	0	26.313	0	170.634	0	186.4	4	65.3	4	-1E+10	1	-1E+10	1	-1E+10	1	-1E+10	1	-1E+10	1	-1E+10	1
4901784	43	C	09/07/2016	10:48	-132.318	44.858	0	174.90	0	8.5990	0	33.8900	0	26.315	0	173.409	0	185.9	4	65.1	4	-1E+10	1	-1E+10	1	-1E+10	1	-1E+10	1	-1E+10	1	-1E+10	1
4901784	43	C	09/07/2016	10:48	-132.318	44.858	0	177.50	0	8.5920	0	33.8920	0	26.317	0	175.986	0	185.5	4	65.0	4	-1E+10	1	-1E+10	1	-1E+10	1	-1E+10	1	-1E+10	1	-1E+10	1
4901784	43	C	09/07/2016	10:48	-132.318	44.858	0	179.30	0	8.5870	0	33.8930	0	26.319	0	177.770	0	185.0	4	64.8	4	-1E+10	1	-1E+10	1	-1E+10	1	-1E+10	1	-1E+10	1	-1E+10	1
4901784	43	C	09/07/2016	10:48	-132.318	44.858	0	182.40	0	8.5370	0	33.9000	0	26.332	0	180.842	0	184.0	4	64.4	4	-1E+10	1	-1E+10	1	-1E+10	1	-1E+10	1	-1E+10	1	-1E+10	1
4901784	43	C	09/07/2016	10:48	-132.318	44.858	0	185.20	0	8.5080	0	33.9000	0	26.337	0	183.617	0	183.3	4	64.1	4	-1E+10	1	-1E+10	1	-1E+10	1	-1E+10	1	-1E+10	1	-1E+10	1
4901784	43	C	09/07/2016	10:48	-132.318	44.858	0	187.60	0	8.4680	0	33.9020	0	26.344	0	185.995	0	182.5	4	63.8	4	-1E+10	1	-1E+10	1	-1E+10	1	-1E+10	1	-1E+10	1	-1E+10	1
4901784	43	C	09/07/2016	10:48	-132.318	44.858	0	189.90	0	8.4360	0	33.9030	0	26.350	0	188.274	0	181.9	4	63.5	4	-1E+10	1	-1E+10	1	-1E+10	1	-1E+10	1	-1E+10	1	-1E+10	1
4901784	43	C	09/07/2016	10:48	-132.318	44.858	0	192.30	0	8.4120	0	33.9040	0	26.355	0	190.653	0	181.4	4	63.3	4	-1E+10	1	-1E+10	1	-1E+10	1	-1E+10	1	-1E+10	1	-1E+10	1
4901784	43	C	09/07/2016	10:48	-132.318	44.858	0	194.70	0	8.3830	0	33.9040	0	26.359	0	193.031	0	180.9	4	63.1	4	-1E+10	1	-1E+10	1	-1E+10	1	-1E+10	1	-1E+10	1	-1E+10	1
4901784	43	C	09/07/2016	10:48	-132.318	44.858	0	197.20	0	8.3460	0	33.9090	0	26.369	0	195.508	0	180.4	4	62.8	4	-1E+10	1	-1E+10	1	-1E+10	1	-1E+10	1	-1E+10	1	-1E+10	1
4901784	43	C	09/07/2016	10:48	-132.318	44.858	0	199.70	0	8.3240	0	33.9110	0	26.373	0	197.986	0	179.5	4	62.5	4	-1E+10	1	-1E+10	1	-1E+10	1	-1E+10	1	-1E+10	1	-1E+10	1
4901784	43	C	09/07/2016	10:48	-132.318	44.858	0	202.20	0	8.2840	0	33.9140	0	26.382	0	200.463	0	178.5	4	62.1	4	-1E+10	1	-1E+10	1	-1E+10	1	-1E+10	1	-1E+10	1	-1E+10	1
4901784	43	C	09/07/2016	10:48	-132.318	44.858	0	204.60	0	8.2400	0	33.9170	0	26.391	0	202.841	0	177.3	4	61.6	4	-1E+10	1	-1E+10	1	-1E+10	1	-1E+10	1	-1E+10	1	-1E+10	1
4901784	43	C	09/07/2016	10:48	-132.318	44.858	0	207.10	0	8.2090	0	33.9150	0	26.394	0	205.319	0	176.0	4	61.1	4	-1E+10	1	-1E+10	1	-1E+10	1	-1E+10	1	-1E+10	1	-1E+10	1
4901784	43	C	09/07/2016	10:48	-132.318	44.858	0	209.60	0	8.1610	0	33.9150	0	26.401	0	207.796	0	174.3	4	60.5	4	-1E+10	1	-1E+10	1	-1E+10	1	-1E+10	1	-1E+10	1	-1E+10	1
4901784	43	C	09/07/2016	10:48	-132.318	44.858	0	212.20	0	8.0830	0	33.9160	0	26.414	0	210.372	0	172.9	4	59.9	4	-1E+10	1	-1E+10	1	-1E+10	1	-1E+10	1	-1E+10	1	-1E+10	1
4901784	43	C	09/07/2016	10:48	-132.318	44.858	0	214.70	0	8.0250	0	33.9140	0	26.421	0	212.849	0	171.9	4	59.5	4	-1E+10	1	-1E+10	1	-1E+10	1	-1E+10	1	-1E+10	1	-1E+10	1
4901784	43	C	09/07/2016	10:48	-132.318	44.858	0	217.30	0	8.0040	0	33.9140	0	26.424	0	215.426	0	170.8	4	59.1	4	-1E+10	1	-1E+10	1	-1E+10	1	-1E+10	1	-1E+10	1	-1E+10	1
4901784	43	C	09/07/2016	10:48	-132.318	44.858	0	219.80	0	7.9410	0	33.9140	0	26.433	0	217.903	0	169.5	4	58.5	4	-1E+10	1	-1E+10	1	-1E+10	1	-1E+10	1	-1E+10	1	-1E+10	1
4901784	43	C	09/07/2016	10:48	-132.318	44.858	0	222.30	0	7.8850	0	33.9150	0	26.442	0	220.380	0	168.7	4	58.2	4	-1E+10	1	-1E+10	1	-1E+10	1	-1E+10	1	-1E+10	1	-1E+10	1
4901784	43	C	09/07/2016	10:48	-132.318	44.858	0	224.90	0	7.8520	0	33.9200	0	26.451	0	222.956	0	167.6	4	57.8	4	-1E+10	1	-1E+10	1	-1E+10	1	-1E+10	1	-1E+10	1	-1E+10	1
4901784	43	C	09/07/2016	10:48	-132.318	44.858	0	227.40	0	7.7860	0	33.9170	0	26.458	0	225.433	0	166.4	4	57.3	4	-1E+10	1	-1E+10	1	-1E+10	1	-1E+10	1	-1E+10	1	-1E+10	1
4901784	43	C	09/07/2016	10:48	-132.318	44.858	0	230.00	0	7.7620	0	33.9160	0	26.461	0	228.009	0	165.3	4	56.9	4	-1E+10	1	-1E+10	1	-1E+10	1	-1E+10	1	-1E+10	1	-1E+10	1
4901784	43	C	09/07/2016	10:48	-132.318	44.858	0	232.70	0	7.7380	0	33.9150	0	26.464	0	230.684	0	163.8	4	56.3	4	-1E+10	1	-1E+10	1	-1E+10	1	-1E+10	1	-1E+10	1	-1E+10	1
4901784	43	C	09/07/2016	10:48	-132.318	44.858	0	235.20	0	7.6870	0	33.9130	0	26.469	0	233.161	0	162.2	4	55.7	4	-1E+10	1	-1E+10	1	-1E+10	1	-1E+10	1	-1E+10	1	-1E+10	1
4901784	43	C	09/07/2016	10:48	-132.318	44.858	0	237.90	0	7.5940	0	33.9150	0	26.484	0	235.836	0	160.3	4	54.9	4	-1E+10	1	-1E+10	1	-1E+10	1	-1E+10	1	-1E+10	1	-1E+10	1
4901784	43	C	09/07/2016	10:48	-132.318	44.858	0	240.50	0	7.4970	0	33.9170	0	26.500	0	238.412	0	159.3	4	54.5	4	-1E+10	1	-1E+10	1	-1E+10	1	-1E+10	1	-1E+10	1	-1E+10	1
4901784	43	C	09/07/2016	10:48	-132.318	44.858	0	242.30	0	7.4860	0	33.9170	0	26.501	0	240.195	0	158.8	4	54.3	4	-1E+10	1	-1E+10	1	-1E+10	1	-1E+10	1	-1E+10	1	-1E+10	1
4901784	43	C	09/07/2016	10:48	-132.318	44.858	0	244.90	0	7.4490	0	33.9170	0	26.507	0	242.771	0	158.0	4	54.0	4	-1E+10	1	-1E+10	1	-1E+10	1	-1E+10	1	-1E+10	1	-1E+10	1
4901784	43	C	09/07/2016	10:48	-132.318	44.858	0	247.50	0	7.4300	0	33.9140	0	26.507	0	245.347	0	156.9	4	53.6	4	-1E+10	1	-1E+10	1	-1E+10	1	-1E+10	1	-1E+10	1	-1E+10	1
4901784	43	C	09/07/2016	10:48	-132.318	44.858	0	250.10	0	7.3490	0	33.9160	0	26.520	0	247.923	0	155.7	4	53.1	4	-1E+10	1	-1E+10	1	-1E+10	1	-1E+10	1	-1E+10	1	-1E+10	1
4901784	43	C	09/07/2016	10:48	-132.318	44.858	0	252.60	0	7.2780	0	33.9170	0	26.531	0	250.400	0	154.9	4	52.7	4	-1E+10	1	-1E+10	1	-1E+10	1	-1E+10	1	-1E+10	1	-1E+10	1
4901784	43	C	09/07/2016	10:48	-132.318	44.858	0	255.10	0	7.2270	0	33.9160	0	26.537	0	252.876	0	154.2	4	52.4	4	-1E+10	1	-1E+10	1	-1E+10	1	-1E+10	1	-1E+10	1	-1E+10	1
4901784	43	C	09/07/2016	10:48	-132.318	44.858	0	257.70	0	7.2030	0	33.9160	0	26.540	0	255.452	0	153.5	4	52.1	4	-1E+10	1	-1E+10	1	-1E+10	1	-1E+10	1	-1E+10	1	-1E+10	1
4901784	43	C	09/07/2016	10:48	-132.318	44.858	0	260.20	0	7.1980	0	33.9150	0	26.540	0	257.929	0	152.5	4	51.8	4	-1E+10	1	-1E+10	1	-1E+10	1	-1E+10	1	-1E+10	1	-1E+10	1
4901784	43	C	09/07/2016	10:48	-132.318	44.858	0	262.80	0	7.1710	0	33.9140	0	26.543	0	260.504	0	151.1	4	51.3	4	-1E+10	1	-1E+10	1	-1E+10	1	-1E+10	1	-1E+10	1	-1E+10	1
4901784	43	C	09/07/2016	10:48	-132.318	44.858	0	264.50	0	7.1300	0	33.9180	0	26.552	0	262.189	0	150.2	4	50.9	4	-1E+10	1	-1E+10	1	-1E+10	1	-1E+10	1	-1E+10	1	-1E+10	1
4901784	43	C	09/07/2016	10:48	-132.318	44.858	0	267.20	0	7.1040	0	33.9170	0	26.555	0	264.863	0	149.2	4	50.5	4	-1E+10	1	-1E+10	1	-1E+10	1	-1E+10	1	-1E+10	1	-1E+10	1
4901784	43	C	09/07/2016	10:48	-132.318	44.858	0	269.70	0	7.0830	0	33.9170	0	26.558	0	267.340	0	147.6	4	50.0	4	-1E+10	1	-1E+10	1	-1E+10	1	-1E+10	1	-1E+10	1	-1E+10	1
4901784	43	C	09/07/2016	10:48	-132.318	44.858	0	272.20	0	7.0270	0	33.9170	0	26.566	0	269.816	0	146.3	4	49.5	4	-1E+10	1	-1E+10	1	-1E+10	1	-1E+10	1	-1E+10	1	-1E+10	1
4901784	43	C	09/07/2016	10:48	-132.318	44.858	0	274.90	0	6.9920	0	33.9170	0	26.570	0	272.491	0	145.1	4	49.0	4	-1E+10	1	-1E+10	1	-1E+10	1	-1E+10	1	-1E+10	1	-1E+10	1
4901784	43	C	09/07/2016	10:48	-132.318	44.858	0	277.50	0	6.9480	0	33.9180	0	26.577	0	275.066	0	144.2	4	48.7	4	-1E+10	1	-1E+10	1	-1E+10	1	-1E+10	1	-1E+10	1	-1E+10	1
4901784	43	C	09/07/2016	10:48	-132.318	44.858	0	280.10	0	6.9250	0	33.9170	0	26.580	0	277.642	0	143.1	4	48.3	4	-1E+10	1	-1E+10	1	-1E+10	1	-1E+10	1	-1E+10	1	-1E+10	1
4901784	43	C	09/07/2016	10:48	-132.318	44.858	0	282.80	0	6.9000	0	33.9170	0	26.583	0	280.316	0	141.4	4	47.7	4	-1E+10	1	-1E+10	1	-1E+10	1	-1E+10	1	-1E+10	1	-1E+10	1
4901784	43	C	09/07/2016	10:48	-132.318	44.858	0	285.50	0	6.7910	0	33.9160	0	26.597	0	282.991	0	139.6	4	47.0	4	-1E+10	1	-1E+10	1	-1E+10	1	-1E+10	1	-1E+10	1	-1E+10	1
4901784	43	C	09/07/2016	10:48	-132.318	44.858	0	287.20	0	6.7820	0	33.9140	0	26.597	0	284.675	0	138.7	4	46.7	4	-1E+10	1	-1E+10	1	-1E+10	1	-1E+10	1	-1E+10	1	-1E+10	1
4901784	43	C	09/07/2016	10:48	-132.318	44.858	0	289.80	0	6.7060	0	33.9130	0	26.606	0	287.250	0	137.5	4	46.2	4	-1E+10	1	-1E+10	1	-1E+10	1	-1E+10	1	-1E+10	1	-1E+10	1
4901784	43	C	09/07/2016	10:48	-132.318	44.858	0	292.50	0	6.6530	0	33.9130	0	26.613	0	289.924	0	135.8	4	45.5	4	-1E+10	1	-1E+10	1	-1E+10	1	-1E+10	1	-1E+10	1	-1E+10	1
4901784	43	C	09/07/2016	10:48	-132.318	44.858	0	295.20	0	6.6070	0	33.9130	0	26.619	0	292.599	0	134.0	4	44.9	4	-1E+10	1	-1E+10	1	-1E+10	1	-1E+10	1	-1E+10	1	-1E+10	1
4901784	43	C	09/07/2016	10:48	-132.318	44.858	0	297.80	0	6.5590	0	33.9150	0	26.627	0	295.174	0	132.2	4	44.3	4	-1E+10	1	-1E+10	1	-1E+10	1	-1E+10	1	-1E+10	1	-1E+10	1
4901784	43	C	09/07/2016	10:48	-132.318	44.858	0	299.60	0	6.5410	0	33.9140	0	26.629	0	296.957	0	131.0	4	43.8	4	-1E+10	1	-1E+10	1	-1E+10	1	-1E+10	1	-1E+10	1	-1E+10	1
4901784	43	C	09/07/2016	10:48	-132.318	44.858	0	302.40	0	6.5040	0	33.9140	0	26.634	0	299.730	0	129.0	4	43.1	4	-1E+10	1	-1E+10	1	-1E+10	1	-1E+10	1	-1E+10	1	-1E+10	1
4901784	43	C	09/07/2016	10:48	-132.318	44.858	0	305.10	0	6.4380	0	33.9120	0	26.641	0	302.404	0	126.6	4	42.3	4	-1E+10	1	-1E+10	1	-1E+10	1	-1E+10	1	-1E+10	1	-1E+10	1
4901784	43	C	09/07/2016	10:48	-132.318	44.858	0	307.80	0	6.3380	0	33.9150	0	26.656	0	305.078	0	125.0	4	41.6	4	-1E+10	1	-1E+10	1	-1E+10	1	-1E+10	1	-1E+10	1	-1E+10	1
4901784	43	C	09/07/2016	10:48	-132.318	44.858	0	310.40	0	6.3040	0	33.9150	0	26.660	0	307.653	0	123.4	4	41.0	4	-1E+10	1	-1E+10	1	-1E+10	1	-1E+10	1	-1E+10	1	-1E+10	1
4901784	43	C	09/07/2016	10:48	-132.318	44.858	0	312.10	0	6.2810	0	33.9160	0	26.664	0	309.337	0	122.2	4	40.6	4	-1E+10	1	-1E+10	1	-1E+10	1	-1E+10	1	-1E+10	1	-1E+10	1
4901784	43	C	09/07/2016	10:48	-132.318	44.858	0	314.80	0	6.2380	0	33.9170	0	26.670	0	312.011	0	120.4	4	40.0	4	-1E+10	1	-1E+10	1	-1E+10	1	-1E+10	1	-1E+10	1	-1E+10	1
4901784	43	C	09/07/2016	10:48	-132.318	44.858	0	317.50	0	6.1860	0	33.9160	0	26.676	0	314.685	0	118.5	4	39.3	4	-1E+10	1	-1E+10	1	-1E+10	1	-1E+10	1	-1E+10	1	-1E+10	1
4901784	43	C	09/07/2016	10:48	-132.318	44.858	0	320.30	0	6.1320	0	33.9160	0	26.683	0	317.458	0	116.5	4	38.6	4	-1E+10	1	-1E+10	1	-1E+10	1	-1E+10	1	-1E+10	1	-1E+10	1
4901784	43	C	09/07/2016	10:48	-132.318	44.858	0	323.00	0	6.0690	0	33.9190	0	26.693	0	320.132	0	114.8	4	38.0	4	-1E+10	1	-1E+10	1	-1E+10	1	-1E+10	1	-1E+10	1	-1E+10	1
4901784	43	C	09/07/2016	10:48	-132.318	44.858	0	324.90	0	6.0390	0	33.9180	0	26.696	0	322.014	0	113.9	4	37.7	4	-1E+10	1	-1E+10	1	-1E+10	1	-1E+10	1	-1E+10	1	-1E+10	1
4901784	43	C	09/07/2016	10:48	-132.318	44.858	0	327.60	0	6.0040	0	33.9180	0	26.701	0	324.688	0	112.9	4	37.3	4	-1E+10	1	-1E+10	1	-1E+10	1	-1E+10	1	-1E+10	1	-1E+10	1
4901784	43	C	09/07/2016	10:48	-132.318	44.858	0	330.30	0	5.9820	0	33.9180	0	26.704	0	327.361	0	111.7	4	36.9	4	-1E+10	1	-1E+10	1	-1E+10	1	-1E+10	1	-1E+10	1	-1E+10	1
4901784	43	C	09/07/2016	10:48	-132.318	44.858	0	332.20	0	5.9630	0	33.9170	0	26.705	0	329.243	0	110.8	4	36.6	4	-1E+10	1	-1E+10	1	-1E+10	1	-1E+10	1	-1E+10	1	-1E+10	1
4901784	43	C	09/07/2016	10:48	-132.318	44.858	0	334.90	0	5.9140	0	33.9180	0	26.712	0	331.917	0	109.7	4	36.2	4	-1E+10	1	-1E+10	1	-1E+10	1	-1E+10	1	-1E+10	1	-1E+10	1
4901784	43	C	09/07/2016	10:48	-132.318	44.858	0	338.20	0	5.8910	0	33.9200	0	26.717	0	335.185	0	108.8	4	35.8	4	-1E+10	1	-1E+10	1	-1E+10	1	-1E+10	1	-1E+10	1	-1E+10	1
4901784	43	C	09/07/2016	10:48	-132.318	44.858	0	340.10	0	5.8820	0	33.9190	0	26.717	0	337.066	0	108.0	4	35.6	4	-1E+10	1	-1E+10	1	-1E+10	1	-1E+10	1	-1E+10	1	-1E+10	1
4901784	43	C	09/07/2016	10:48	-132.318	44.858	0	342.50	0	5.8470	0	33.9180	0	26.720	0	339.443	0	106.8	4	35.1	4	-1E+10	1	-1E+10	1	-1E+10	1	-1E+10	1	-1E+10	1	-1E+10	1
4901784	43	C	09/07/2016	10:48	-132.318	44.858	0	344.80	0	5.8030	0	33.9200	0	26.727	0	341.721	0	105.4	4	34.7	4	-1E+10	1	-1E+10	1	-1E+10	1	-1E+10	1	-1E+10	1	-1E+10	1
4901784	43	C	09/07/2016	10:48	-132.318	44.858	0	347.10	0	5.7920	0	33.9190	0	26.728	0	343.998	0	103.9	4	34.2	4	-1E+10	1	-1E+10	1	-1E+10	1	-1E+10	1	-1E+10	1	-1E+10	1
4901784	43	C	09/07/2016	10:48	-132.318	44.858	0	350.30	0	5.7760	0	33.9220	0	26.732	0	347.167	0	101.1	4	33.2	4	-1E+10	1	-1E+10	1	-1E+10	1	-1E+10	1	-1E+10	1	-1E+10	1
4901784	43	C	09/07/2016	10:48	-132.318	44.858	0	352.70	0	5.7450	0	33.9260	0	26.739	0	349.543	0	98.8	4	32.4	4	-1E+10	1	-1E+10	1	-1E+10	1	-1E+10	1	-1E+10	1	-1E+10	1
4901784	43	C	09/07/2016	10:48	-132.318	44.858	0	355.20	0	5.7260	0	33.9270	0	26.743	0	352.019	0	96.8	4	31.8	4	-1E+10	1	-1E+10	1	-1E+10	1	-1E+10	1	-1E+10	1	-1E+10	1
4901784	43	C	09/07/2016	10:48	-132.318	44.858	0	357.70	0	5.7000	0	33.9280	0	26.747	0	354.494	0	94.8	4	31.1	4	-1E+10	1	-1E+10	1	-1E+10	1	-1E+10	1	-1E+10	1	-1E+10	1
4901784	43	C	09/07/2016	10:48	-132.318	44.858	0	360.10	0	5.6480	0	33.9340	0	26.758	0	356.871	0	94.0	4	30.8	4	-1E+10	1	-1E+10	1	-1E+10	1	-1E+10	1	-1E+10	1	-1E+10	1
4901784	43	C	09/07/2016	10:48	-132.318	44.858	0	362.50	0	5.6460	0	33.9330	0	26.757	0	359.247	0	93.9	4	30.8	4	-1E+10	1	-1E+10	1	-1E+10	1	-1E+10	1	-1E+10	1	-1E+10	1
4901784	43	C	09/07/2016	10:48	-132.318	44.858	0	365.00	0	5.6130	0	33.9310	0	26.759	0	361.723	0	93.9	4	30.8	4	-1E+10	1	-1E+10	1	-1E+10	1	-1E+10	1	-1E+10	1	-1E+10	1
4901784	43	C	09/07/2016	10:48	-132.318	44.858	0	367.50	0	5.5600	0	33.9340	0	26.768	0	364.198	0	93.0	4	30.4	4	-1E+10	1	-1E+10	1	-1E+10	1	-1E+10	1	-1E+10	1	-1E+10	1
4901784	43	C	09/07/2016	10:48	-132.318	44.858	0	369.90	0	5.5220	0	33.9310	0	26.770	0	366.574	0	92.4	4	30.2	4	-1E+10	1	-1E+10	1	-1E+10	1	-1E+10	1	-1E+10	1	-1E+10	1
4901784	43	C	09/07/2016	10:48	-132.318	44.858	0	372.30	0	5.4960	0	33.9310	0	26.774	0	368.950	0	90.8	4	29.7	4	-1E+10	1	-1E+10	1	-1E+10	1	-1E+10	1	-1E+10	1	-1E+10	1
4901784	43	C	09/07/2016	10:48	-132.318	44.858	0	374.80	0	5.4780	0	33.9320	0	26.777	0	371.426	0	88.4	4	28.8	4	-1E+10	1	-1E+10	1	-1E+10	1	-1E+10	1	-1E+10	1	-1E+10	1
4901784	43	C	09/07/2016	10:48	-132.318	44.858	0	377.20	0	5.4490	0	33.9360	0	26.783	0	373.802	0	85.7	4	28.0	4	-1E+10	1	-1E+10	1	-1E+10	1	-1E+10	1	-1E+10	1	-1E+10	1
4901784	43	C	09/07/2016	10:48	-132.318	44.858	0	379.80	0	5.4340	0	33.9410	0	26.789	0	376.376	0	83.5	4	27.2	4	-1E+10	1	-1E+10	1	-1E+10	1	-1E+10	1	-1E+10	1	-1E+10	1
4901784	43	C	09/07/2016	10:48	-132.318	44.858	0	382.20	0	5.4230	0	33.9440	0	26.793	0	378.752	0	81.8	4	26.7	4	-1E+10	1	-1E+10	1	-1E+10	1	-1E+10	1	-1E+10	1	-1E+10	1
4901784	43	C	09/07/2016	10:48	-132.318	44.858	0	384.70	0	5.3950	0	33.9460	0	26.798	0	381.228	0	80.0	4	26.1	4	-1E+10	1	-1E+10	1	-1E+10	1	-1E+10	1	-1E+10	1	-1E+10	1
4901784	43	C	09/07/2016	10:48	-132.318	44.858	0	387.20	0	5.4010	0	33.9520	0	26.802	0	383.703	0	78.3	4	25.5	4	-1E+10	1	-1E+10	1	-1E+10	1	-1E+10	1	-1E+10	1	-1E+10	1
4901784	43	C	09/07/2016	10:48	-132.318	44.858	0	389.70	0	5.3640	0	33.9510	0	26.805	0	386.178	0	77.9	4	25.4	4	-1E+10	1	-1E+10	1	-1E+10	1	-1E+10	1	-1E+10	1	-1E+10	1
4901784	43	C	09/07/2016	10:48	-132.318	44.858	0	392.10	0	5.3470	0	33.9520	0	26.808	0	388.554	0	76.9	4	25.0	4	-1E+10	1	-1E+10	1	-1E+10	1	-1E+10	1	-1E+10	1	-1E+10	1
4901784	43	C	09/07/2016	10:48	-132.318	44.858	0	394.70	0	5.3320	0	33.9540	0	26.811	0	391.128	0	75.7	4	24.6	4	-1E+10	1	-1E+10	1	-1E+10	1	-1E+10	1	-1E+10	1	-1E+10	1
4901784	43	C	09/07/2016	10:48	-132.318	44.858	0	397.20	0	5.2980	0	33.9550	0	26.816	0	393.603	0	74.6	4	24.3	4	-1E+10	1	-1E+10	1	-1E+10	1	-1E+10	1	-1E+10	1	-1E+10	1
4901784	43	C	09/07/2016	10:48	-132.318	44.858	0	399.80	0	5.2780	0	33.9570	0	26.820	0	396.177	0	72.9	4	23.7	4	-1E+10	1	-1E+10	1	-1E+10	1	-1E+10	1	-1E+10	1	-1E+10	1
4901784	43	C	09/07/2016	10:48	-132.318	44.858	0	402.40	0	5.2620	0	33.9610	0	26.825	0	398.751	0	71.2	4	23.1	4	-1E+10	1	-1E+10	1	-1E+10	1	-1E+10	1	-1E+10	1	-1E+10	1
4901784	43	C	09/07/2016	10:48	-132.318	44.858	0	404.90	0	5.2580	0	33.9640	0	26.828	0	401.226	0	69.4	4	22.5	4	-1E+10	1	-1E+10	1	-1E+10	1	-1E+10	1	-1E+10	1	-1E+10	1
4901784	43	C	09/07/2016	10:48	-132.318	44.858	0	407.40	0	5.2590	0	33.9660	0	26.830	0	403.701	0	67.4	4	21.9	4	-1E+10	1	-1E+10	1	-1E+10	1	-1E+10	1	-1E+10	1	-1E+10	1
4901784	43	C	09/07/2016	10:48	-132.318	44.858	0	410.00	0	5.2690	0	33.9720	0	26.833	0	406.274	0	65.6	4	21.3	4	-1E+10	1	-1E+10	1	-1E+10	1	-1E+10	1	-1E+10	1	-1E+10	1
4901784	43	C	09/07/2016	10:48	-132.318	44.858	0	412.60	0	5.2680	0	33.9740	0	26.835	0	408.848	0	64.1	4	20.8	4	-1E+10	1	-1E+10	1	-1E+10	1	-1E+10	1	-1E+10	1	-1E+10	1
4901784	43	C	09/07/2016	10:48	-132.318	44.858	0	415.10	0	5.2580	0	33.9790	0	26.840	0	411.323	0	62.6	4	20.3	4	-1E+10	1	-1E+10	1	-1E+10	1	-1E+10	1	-1E+10	1	-1E+10	1
4901784	43	C	09/07/2016	10:48	-132.318	44.858	0	417.60	0	5.2520	0	33.9800	0	26.842	0	413.798	0	61.5	4	20.0	4	-1E+10	1	-1E+10	1	-1E+10	1	-1E+10	1	-1E+10	1	-1E+10	1
4901784	43	C	09/07/2016	10:48	-132.318	44.858	0	420.20	0	5.2320	0	33.9850	0	26.848	0	416.371	0	60.6	4	19.7	4	-1E+10	1	-1E+10	1	-1E+10	1	-1E+10	1	-1E+10	1	-1E+10	1
4901784	43	C	09/07/2016	10:48	-132.318	44.858	0	422.80	0	5.2150	0	33.9850	0	26.850	0	418.945	0	60.2	4	19.5	4	-1E+10	1	-1E+10	1	-1E+10	1	-1E+10	1	-1E+10	1	-1E+10	1
4901784	43	C	09/07/2016	10:48	-132.318	44.858	0	425.30	0	5.2030	0	33.9880	0	26.854	0	421.420	0	59.5	4	19.3	4	-1E+10	1	-1E+10	1	-1E+10	1	-1E+10	1	-1E+10	1	-1E+10	1
4901784	43	C	09/07/2016	10:48	-132.318	44.858	0	427.90	0	5.1840	0	33.9910	0	26.858	0	423.993	0	59.2	4	19.2	4	-1E+10	1	-1E+10	1	-1E+10	1	-1E+10	1	-1E+10	1	-1E+10	1
4901784	43	C	09/07/2016	10:48	-132.318	44.858	0	429.60	0	5.1510	0	33.9910	0	26.862	0	425.676	0	59.0	4	19.1	4	-1E+10	1	-1E+10	1	-1E+10	1	-1E+10	1	-1E+10	1	-1E+10	1
4901784	43	C	09/07/2016	10:48	-132.318	44.858	0	432.20	0	5.1260	0	33.9900	0	26.864	0	428.250	0	58.8	4	19.0	4	-1E+10	1	-1E+10	1	-1E+10	1	-1E+10	1	-1E+10	1	-1E+10	1
4901784	43	C	09/07/2016	10:48	-132.318	44.858	0	434.80	0	5.1160	0	33.9890	0	26.865	0	430.823	0	58.1	4	18.8	4	-1E+10	1	-1E+10	1	-1E+10	1	-1E+10	1	-1E+10	1	-1E+10	1
4901784	43	C	09/07/2016	10:48	-132.318	44.858	0	437.40	0	5.0990	0	33.9910	0	26.868	0	433.397	0	57.1	4	18.5	4	-1E+10	1	-1E+10	1	-1E+10	1	-1E+10	1	-1E+10	1	-1E+10	1
4901784	43	C	09/07/2016	10:48	-132.318	44.858	0	439.90	0	5.0940	0	33.9940	0	26.871	0	435.871	0	55.8	4	18.1	4	-1E+10	1	-1E+10	1	-1E+10	1	-1E+10	1	-1E+10	1	-1E+10	1
4901784	43	C	09/07/2016	10:48	-132.318	44.858	0	442.30	0	5.0870	0	33.9960	0	26.873	0	438.247	0	54.7	4	17.7	4	-1E+10	1	-1E+10	1	-1E+10	1	-1E+10	1	-1E+10	1	-1E+10	1
4901784	43	C	09/07/2016	10:48	-132.318	44.858	0	444.80	0	5.0750	0	33.9990	0	26.877	0	440.721	0	53.1	4	17.2	4	-1E+10	1	-1E+10	1	-1E+10	1	-1E+10	1	-1E+10	1	-1E+10	1
4901784	43	C	09/07/2016	10:48	-132.318	44.858	0	447.40	0	5.0830	0	34.0080	0	26.883	0	443.295	0	51.3	4	16.6	4	-1E+10	1	-1E+10	1	-1E+10	1	-1E+10	1	-1E+10	1	-1E+10	1
4901784	43	C	09/07/2016	10:48	-132.318	44.858	0	450.00	0	5.0890	0	34.0120	0	26.886	0	445.868	0	49.9	4	16.1	4	-1E+10	1	-1E+10	1	-1E+10	1	-1E+10	1	-1E+10	1	-1E+10	1
4901784	43	C	09/07/2016	10:48	-132.318	44.858	0	452.50	0	5.0670	0	34.0140	0	26.890	0	448.342	0	49.2	4	15.9	4	-1E+10	1	-1E+10	1	-1E+10	1	-1E+10	1	-1E+10	1	-1E+10	1
4901784	43	C	09/07/2016	10:48	-132.318	44.858	0	455.10	0	5.0580	0	34.0210	0	26.897	0	450.916	0	48.7	4	15.7	4	-1E+10	1	-1E+10	1	-1E+10	1	-1E+10	1	-1E+10	1	-1E+10	1
4901784	43	C	09/07/2016	10:48	-132.318	44.858	0	457.60	0	4.9890	0	34.0180	0	26.902	0	453.390	0	48.8	4	15.8	4	-1E+10	1	-1E+10	1	-1E+10	1	-1E+10	1	-1E+10	1	-1E+10	1
4901784	43	C	09/07/2016	10:48	-132.318	44.858	0	460.20	0	4.9510	0	34.0180	0	26.907	0	455.963	0	48.3	4	15.6	4	-1E+10	1	-1E+10	1	-1E+10	1	-1E+10	1	-1E+10	1	-1E+10	1
4901784	43	C	09/07/2016	10:48	-132.318	44.858	0	462.70	0	4.9320	0	34.0200	0	26.910	0	458.437	0	47.1	4	15.2	4	-1E+10	1	-1E+10	1	-1E+10	1	-1E+10	1	-1E+10	1	-1E+10	1
4901784	43	C	09/07/2016	10:48	-132.318	44.858	0	465.30	0	4.9340	0	34.0200	0	26.910	0	461.010	0	45.1	4	14.6	4	-1E+10	1	-1E+10	1	-1E+10	1	-1E+10	1	-1E+10	1	-1E+10	1
4901784	43	C	09/07/2016	10:48	-132.318	44.858	0	467.00	0	4.9690	0	34.0300	0	26.914	0	462.693	0	44.1	4	14.2	4	-1E+10	1	-1E+10	1	-1E+10	1	-1E+10	1	-1E+10	1	-1E+10	1
4901784	43	C	09/07/2016	10:48	-132.318	44.858	0	469.60	0	4.9690	0	34.0320	0	26.916	0	465.266	0	43.1	4	13.9	4	-1E+10	1	-1E+10	1	-1E+10	1	-1E+10	1	-1E+10	1	-1E+10	1
4901784	43	C	09/07/2016	10:48	-132.318	44.858	0	472.20	0	4.9690	0	34.0390	0	26.921	0	467.839	0	42.2	4	13.6	4	-1E+10	1	-1E+10	1	-1E+10	1	-1E+10	1	-1E+10	1	-1E+10	1
4901784	43	C	09/07/2016	10:48	-132.318	44.858	0	474.90	0	4.9600	0	34.0410	0	26.924	0	470.511	0	41.6	4	13.4	4	-1E+10	1	-1E+10	1	-1E+10	1	-1E+10	1	-1E+10	1	-1E+10	1
4901784	43	C	09/07/2016	10:48	-132.318	44.858	0	477.50	0	4.9460	0	34.0430	0	26.927	0	473.084	0	41.1	4	13.2	4	-1E+10	1	-1E+10	1	-1E+10	1	-1E+10	1	-1E+10	1	-1E+10	1
4901784	43	C	09/07/2016	10:48	-132.318	44.858	0	480.10	0	4.9370	0	34.0450	0	26.930	0	475.657	0	40.6	4	13.1	4	-1E+10	1	-1E+10	1	-1E+10	1	-1E+10	1	-1E+10	1	-1E+10	1
4901784	43	C	09/07/2016	10:48	-132.318	44.858	0	482.70	0	4.9230	0	34.0470	0	26.933	0	478.230	0	40.2	4	13.0	4	-1E+10	1	-1E+10	1	-1E+10	1	-1E+10	1	-1E+10	1	-1E+10	1
4901784	43	C	09/07/2016	10:48	-132.318	44.858	0	485.30	0	4.9120	0	34.0480	0	26.935	0	480.803	0	39.8	4	12.8	4	-1E+10	1	-1E+10	1	-1E+10	1	-1E+10	1	-1E+10	1	-1E+10	1
4901784	43	C	09/07/2016	10:48	-132.318	44.858	0	487.90	0	4.9020	0	34.0490	0	26.937	0	483.376	0	39.4	4	12.7	4	-1E+10	1	-1E+10	1	-1E+10	1	-1E+10	1	-1E+10	1	-1E+10	1
4901784	43	C	09/07/2016	10:48	-132.318	44.858	0	489.60	0	4.8900	0	34.0500	0	26.939	0	485.058	0	39.1	4	12.6	4	-1E+10	1	-1E+10	1	-1E+10	1	-1E+10	1	-1E+10	1	-1E+10	1
4901784	43	C	09/07/2016	10:48	-132.318	44.858	0	492.20	0	4.8790	0	34.0520	0	26.942	0	487.631	0	38.8	4	12.5	4	-1E+10	1	-1E+10	1	-1E+10	1	-1E+10	1	-1E+10	1	-1E+10	1
4901784	43	C	09/07/2016	10:48	-132.318	44.858	0	494.80	0	4.8420	0	34.0560	0	26.949	0	490.204	0	38.6	4	12.4	4	-1E+10	1	-1E+10	1	-1E+10	1	-1E+10	1	-1E+10	1	-1E+10	1
4901784	43	C	09/07/2016	10:48	-132.318	44.858	0	497.50	0	4.8330	0	34.0560	0	26.950	0	492.875	0	38.7	4	12.4	4	-1E+10	1	-1E+10	1	-1E+10	1	-1E+10	1	-1E+10	1	-1E+10	1
4901784	43	C	09/07/2016	10:48	-132.318	44.858	0	500.10	0	4.8280	0	34.0550	0	26.950	0	495.448	0	38.7	4	12.4	4	-1E+10	1	-1E+10	1	-1E+10	1	-1E+10	1	-1E+10	1	-1E+10	1
4901784	43	C	09/07/2016	10:48	-132.318	44.858	0	505.30	0	4.7860	0	34.0540	0	26.954	0	500.594	0	38.7	4	12.4	4	-1E+10	1	-1E+10	1	-1E+10	1	-1E+10	1	-1E+10	1	-1E+10	1
4901784	43	C	09/07/2016	10:48	-132.318	44.858	0	510.60	0	4.7200	0	34.0570	0	26.964	0	505.838	0	38.2	4	12.3	4	-1E+10	1	-1E+10	1	-1E+10	1	-1E+10	1	-1E+10	1	-1E+10	1
4901784	43	C	09/07/2016	10:48	-132.318	44.858	0	514.90	0	4.6900	0	34.0580	0	26.968	0	510.092	0	37.5	4	12.0	4	-1E+10	1	-1E+10	1	-1E+10	1	-1E+10	1	-1E+10	1	-1E+10	1
4901784	43	C	09/07/2016	10:48	-132.318	44.858	0	519.30	0	4.6470	0	34.0630	0	26.976	0	514.446	0	36.5	4	11.7	4	-1E+10	1	-1E+10	1	-1E+10	1	-1E+10	1	-1E+10	1	-1E+10	1
4901784	43	C	09/07/2016	10:48	-132.318	44.858	0	524.60	0	4.6350	0	34.0670	0	26.981	0	519.690	0	35.5	4	11.4	4	-1E+10	1	-1E+10	1	-1E+10	1	-1E+10	1	-1E+10	1	-1E+10	1
4901784	43	C	09/07/2016	10:48	-132.318	44.858	0	530.00	0	4.6120	0	34.0720	0	26.988	0	525.032	0	33.9	4	10.9	4	-1E+10	1	-1E+10	1	-1E+10	1	-1E+10	1	-1E+10	1	-1E+10	1
4901784	43	C	09/07/2016	10:48	-132.318	44.858	0	535.40	0	4.5950	0	34.0810	0	26.997	0	530.375	0	32.4	4	10.4	4	-1E+10	1	-1E+10	1	-1E+10	1	-1E+10	1	-1E+10	1	-1E+10	1
4901784	43	C	09/07/2016	10:48	-132.318	44.858	0	539.90	0	4.5850	0	34.0860	0	27.002	0	534.827	0	31.4	4	10.0	4	-1E+10	1	-1E+10	1	-1E+10	1	-1E+10	1	-1E+10	1	-1E+10	1
4901784	43	C	09/07/2016	10:48	-132.318	44.858	0	544.50	0	4.5760	0	34.0890	0	27.005	0	539.378	0	30.3	4	9.7	4	-1E+10	1	-1E+10	1	-1E+10	1	-1E+10	1	-1E+10	1	-1E+10	1
4901784	43	C	09/07/2016	10:48	-132.318	44.858	0	549.70	0	4.5660	0	34.0980	0	27.013	0	544.522	0	28.6	4	9.1	4	-1E+10	1	-1E+10	1	-1E+10	1	-1E+10	1	-1E+10	1	-1E+10	1
4901784	43	C	09/07/2016	10:48	-132.318	44.858	0	554.40	0	4.5510	0	34.1040	0	27.020	0	549.171	0	27.7	4	8.9	4	-1E+10	1	-1E+10	1	-1E+10	1	-1E+10	1	-1E+10	1	-1E+10	1
4901784	43	C	09/07/2016	10:48	-132.318	44.858	0	560.00	0	4.5250	0	34.1090	0	27.027	0	554.711	0	26.6	4	8.5	4	-1E+10	1	-1E+10	1	-1E+10	1	-1E+10	1	-1E+10	1	-1E+10	1
4901784	43	C	09/07/2016	10:48	-132.318	44.858	0	565.70	0	4.4940	0	34.1180	0	27.037	0	560.350	0	25.6	4	8.2	4	-1E+10	1	-1E+10	1	-1E+10	1	-1E+10	1	-1E+10	1	-1E+10	1
4901784	43	C	09/07/2016	10:48	-132.318	44.858	0	570.60	0	4.4660	0	34.1210	0	27.043	0	565.197	0	25.1	4	8.0	4	-1E+10	1	-1E+10	1	-1E+10	1	-1E+10	1	-1E+10	1	-1E+10	1
4901784	43	C	09/07/2016	10:48	-132.318	44.858	0	575.50	0	4.4480	0	34.1240	0	27.047	0	570.044	0	24.5	4	7.8	4	-1E+10	1	-1E+10	1	-1E+10	1	-1E+10	1	-1E+10	1	-1E+10	1
4901784	43	C	09/07/2016	10:48	-132.318	44.858	0	580.60	0	4.4170	0	34.1280	0	27.053	0	575.088	0	24.1	4	7.7	4	-1E+10	1	-1E+10	1	-1E+10	1	-1E+10	1	-1E+10	1	-1E+10	1
4901784	43	C	09/07/2016	10:48	-132.318	44.858	0	585.00	0	4.3990	0	34.1320	0	27.059	0	579.440	0	23.5	4	7.5	4	-1E+10	1	-1E+10	1	-1E+10	1	-1E+10	1	-1E+10	1	-1E+10	1
4901784	43	C	09/07/2016	10:48	-132.318	44.858	0	589.30	0	4.3880	0	34.1370	0	27.064	0	583.693	0	22.7	4	7.2	4	-1E+10	1	-1E+10	1	-1E+10	1	-1E+10	1	-1E+10	1	-1E+10	1
4901784	43	C	09/07/2016	10:48	-132.318	44.858	0	594.50	0	4.3780	0	34.1420	0	27.069	0	588.837	0	22.3	4	7.1	4	-1E+10	1	-1E+10	1	-1E+10	1	-1E+10	1	-1E+10	1	-1E+10	1
4901784	43	C	09/07/2016	10:48	-132.318	44.858	0	599.80	0	4.3670	0	34.1440	0	27.072	0	594.078	0	22.0	4	7.0	4	-1E+10	1	-1E+10	1	-1E+10	1	-1E+10	1	-1E+10	1	-1E+10	1
4901784	43	C	09/07/2016	10:48	-132.318	44.858	0	605.20	0	4.3560	0	34.1470	0	27.075	0	599.419	0	21.5	4	6.8	4	-1E+10	1	-1E+10	1	-1E+10	1	-1E+10	1	-1E+10	1	-1E+10	1
4901784	43	C	09/07/2016	10:48	-132.318	44.858	0	610.60	0	4.3430	0	34.1520	0	27.081	0	604.760	0	20.9	4	6.6	4	-1E+10	1	-1E+10	1	-1E+10	1	-1E+10	1	-1E+10	1	-1E+10	1
4901784	43	C	09/07/2016	10:48	-132.318	44.858	0	615.20	0	4.3350	0	34.1550	0	27.084	0	609.309	0	20.5	4	6.5	4	-1E+10	1	-1E+10	1	-1E+10	1	-1E+10	1	-1E+10	1	-1E+10	1
4901784	43	C	09/07/2016	10:48	-132.318	44.858	0	619.70	0	4.3210	0	34.1580	0	27.088	0	613.759	0	20.1	4	6.4	4	-1E+10	1	-1E+10	1	-1E+10	1	-1E+10	1	-1E+10	1	-1E+10	1
4901784	43	C	09/07/2016	10:48	-132.318	44.858	0	625.20	0	4.3020	0	34.1630	0	27.094	0	619.198	0	19.6	4	6.2	4	-1E+10	1	-1E+10	1	-1E+10	1	-1E+10	1	-1E+10	1	-1E+10	1
4901784	43	C	09/07/2016	10:48	-132.318	44.858	0	629.90	0	4.2880	0	34.1670	0	27.099	0	623.846	0	19.3	4	6.1	4	-1E+10	1	-1E+10	1	-1E+10	1	-1E+10	1	-1E+10	1	-1E+10	1
4901784	43	C	09/07/2016	10:48	-132.318	44.858	0	635.20	0	4.2720	0	34.1690	0	27.102	0	629.087	0	19.0	4	6.0	4	-1E+10	1	-1E+10	1	-1E+10	1	-1E+10	1	-1E+10	1	-1E+10	1
4901784	43	C	09/07/2016	10:48	-132.318	44.858	0	640.20	0	4.2480	0	34.1750	0	27.109	0	634.032	0	18.6	4	5.9	4	-1E+10	1	-1E+10	1	-1E+10	1	-1E+10	1	-1E+10	1	-1E+10	1
4901784	43	C	09/07/2016	10:48	-132.318	44.858	0	644.80	0	4.2400	0	34.1770	0	27.112	0	638.580	0	18.4	4	5.9	4	-1E+10	1	-1E+10	1	-1E+10	1	-1E+10	1	-1E+10	1	-1E+10	1
4901784	43	C	09/07/2016	10:48	-132.318	44.858	0	649.50	0	4.2310	0	34.1790	0	27.114	0	643.228	0	18.3	4	5.8	4	-1E+10	1	-1E+10	1	-1E+10	1	-1E+10	1	-1E+10	1	-1E+10	1
4901784	43	C	09/07/2016	10:48	-132.318	44.858	0	654.30	0	4.2260	0	34.1810	0	27.116	0	647.974	0	18.1	4	5.7	4	-1E+10	1	-1E+10	1	-1E+10	1	-1E+10	1	-1E+10	1	-1E+10	1
4901784	43	C	09/07/2016	10:48	-132.318	44.858	0	659.30	0	4.2180	0	34.1820	0	27.118	0	652.918	0	17.9	4	5.7	4	-1E+10	1	-1E+10	1	-1E+10	1	-1E+10	1	-1E+10	1	-1E+10	1
4901784	43	C	09/07/2016	10:48	-132.318	44.858	0	664.30	0	4.2010	0	34.1840	0	27.121	0	657.861	0	17.7	4	5.6	4	-1E+10	1	-1E+10	1	-1E+10	1	-1E+10	1	-1E+10	1	-1E+10	1
4901784	43	C	09/07/2016	10:48	-132.318	44.858	0	669.20	0	4.1890	0	34.1880	0	27.126	0	662.706	0	17.4	4	5.5	4	-1E+10	1	-1E+10	1	-1E+10	1	-1E+10	1	-1E+10	1	-1E+10	1
4901784	43	C	09/07/2016	10:48	-132.318	44.858	0	674.30	0	4.1800	0	34.1910	0	27.129	0	667.748	0	17.2	4	5.4	4	-1E+10	1	-1E+10	1	-1E+10	1	-1E+10	1	-1E+10	1	-1E+10	1
4901784	43	C	09/07/2016	10:48	-132.318	44.858	0	679.40	0	4.1670	0	34.1930	0	27.132	0	672.791	0	16.9	4	5.4	4	-1E+10	1	-1E+10	1	-1E+10	1	-1E+10	1	-1E+10	1	-1E+10	1
4901784	43	C	09/07/2016	10:48	-132.318	44.858	0	684.50	0	4.1510	0	34.1970	0	27.137	0	677.833	0	16.7	4	5.3	4	-1E+10	1	-1E+10	1	-1E+10	1	-1E+10	1	-1E+10	1	-1E+10	1
4901784	43	C	09/07/2016	10:48	-132.318	44.858	0	689.70	0	4.1310	0	34.2010	0	27.142	0	682.974	0	16.4	4	5.2	4	-1E+10	1	-1E+10	1	-1E+10	1	-1E+10	1	-1E+10	1	-1E+10	1
4901784	43	C	09/07/2016	10:48	-132.318	44.858	0	694.80	0	4.1210	0	34.2040	0	27.146	0	688.015	0	16.1	4	5.1	4	-1E+10	1	-1E+10	1	-1E+10	1	-1E+10	1	-1E+10	1	-1E+10	1
4901784	43	C	09/07/2016	10:48	-132.318	44.858	0	699.90	0	4.1070	0	34.2080	0	27.151	0	693.057	0	15.8	4	5.0	4	-1E+10	1	-1E+10	1	-1E+10	1	-1E+10	1	-1E+10	1	-1E+10	1
4901784	43	C	09/07/2016	10:48	-132.318	44.858	0	705.00	0	4.0960	0	34.2110	0	27.154	0	698.099	0	15.6	4	4.9	4	-1E+10	1	-1E+10	1	-1E+10	1	-1E+10	1	-1E+10	1	-1E+10	1
4901784	43	C	09/07/2016	10:48	-132.318	44.858	0	710.00	0	4.0830	0	34.2150	0	27.159	0	703.041	0	15.3	4	4.8	4	-1E+10	1	-1E+10	1	-1E+10	1	-1E+10	1	-1E+10	1	-1E+10	1
4901784	43	C	09/07/2016	10:48	-132.318	44.858	0	715.10	0	4.0720	0	34.2190	0	27.163	0	708.083	0	15.1	4	4.8	4	-1E+10	1	-1E+10	1	-1E+10	1	-1E+10	1	-1E+10	1	-1E+10	1
4901784	43	C	09/07/2016	10:48	-132.318	44.858	0	720.20	0	4.0590	0	34.2210	0	27.166	0	713.124	0	14.9	4	4.7	4	-1E+10	1	-1E+10	1	-1E+10	1	-1E+10	1	-1E+10	1	-1E+10	1
4901784	43	C	09/07/2016	10:48	-132.318	44.858	0	725.30	0	4.0500	0	34.2260	0	27.171	0	718.165	0	14.7	4	4.7	4	-1E+10	1	-1E+10	1	-1E+10	1	-1E+10	1	-1E+10	1	-1E+10	1
4901784	43	C	09/07/2016	10:48	-132.318	44.858	0	730.40	0	4.0440	0	34.2270	0	27.172	0	723.206	0	14.6	4	4.6	4	-1E+10	1	-1E+10	1	-1E+10	1	-1E+10	1	-1E+10	1	-1E+10	1
4901784	43	C	09/07/2016	10:48	-132.318	44.858	0	735.50	0	4.0360	0	34.2290	0	27.175	0	728.247	0	14.3	4	4.5	4	-1E+10	1	-1E+10	1	-1E+10	1	-1E+10	1	-1E+10	1	-1E+10	1
4901784	43	C	09/07/2016	10:48	-132.318	44.858	0	740.60	0	4.0250	0	34.2340	0	27.180	0	733.288	0	14.0	4	4.4	4	-1E+10	1	-1E+10	1	-1E+10	1	-1E+10	1	-1E+10	1	-1E+10	1
4901784	43	C	09/07/2016	10:48	-132.318	44.858	0	745.60	0	4.0160	0	34.2390	0	27.185	0	738.229	0	13.8	4	4.4	4	-1E+10	1	-1E+10	1	-1E+10	1	-1E+10	1	-1E+10	1	-1E+10	1
4901784	43	C	09/07/2016	10:48	-132.318	44.858	0	750.70	0	4.0060	0	34.2430	0	27.189	0	743.270	0	13.5	4	4.3	4	-1E+10	1	-1E+10	1	-1E+10	1	-1E+10	1	-1E+10	1	-1E+10	1
4901784	43	C	09/07/2016	10:48	-132.318	44.858	0	754.90	0	3.9960	0	34.2470	0	27.193	0	747.421	0	13.4	4	4.2	4	-1E+10	1	-1E+10	1	-1E+10	1	-1E+10	1	-1E+10	1	-1E+10	1
4901784	43	C	09/07/2016	10:48	-132.318	44.858	0	759.20	0	3.9900	0	34.2480	0	27.195	0	751.671	0	13.3	4	4.2	4	-1E+10	1	-1E+10	1	-1E+10	1	-1E+10	1	-1E+10	1	-1E+10	1
4901784	43	C	09/07/2016	10:48	-132.318	44.858	0	764.40	0	3.9700	0	34.2540	0	27.202	0	756.810	0	13.1	4	4.1	4	-1E+10	1	-1E+10	1	-1E+10	1	-1E+10	1	-1E+10	1	-1E+10	1
4901784	43	C	09/07/2016	10:48	-132.318	44.858	0	769.60	0	3.9540	0	34.2580	0	27.206	0	761.948	0	12.9	4	4.1	4	-1E+10	1	-1E+10	1	-1E+10	1	-1E+10	1	-1E+10	1	-1E+10	1
4901784	43	C	09/07/2016	10:48	-132.318	44.858	0	774.80	0	3.9500	0	34.2600	0	27.208	0	767.087	0	12.8	4	4.0	4	-1E+10	1	-1E+10	1	-1E+10	1	-1E+10	1	-1E+10	1	-1E+10	1
4901784	43	C	09/07/2016	10:48	-132.318	44.858	0	779.90	0	3.9430	0	34.2630	0	27.212	0	772.127	0	12.7	4	4.0	4	-1E+10	1	-1E+10	1	-1E+10	1	-1E+10	1	-1E+10	1	-1E+10	1
4901784	43	C	09/07/2016	10:48	-132.318	44.858	0	785.10	0	3.9320	0	34.2660	0	27.215	0	777.265	0	12.6	4	4.0	4	-1E+10	1	-1E+10	1	-1E+10	1	-1E+10	1	-1E+10	1	-1E+10	1
4901784	43	C	09/07/2016	10:48	-132.318	44.858	0	790.30	0	3.9260	0	34.2690	0	27.218	0	782.404	0	12.4	4	3.9	4	-1E+10	1	-1E+10	1	-1E+10	1	-1E+10	1	-1E+10	1	-1E+10	1
4901784	43	C	09/07/2016	10:48	-132.318	44.858	0	795.50	0	3.9200	0	34.2710	0	27.220	0	787.542	0	12.3	4	3.9	4	-1E+10	1	-1E+10	1	-1E+10	1	-1E+10	1	-1E+10	1	-1E+10	1
4901784	43	C	09/07/2016	10:48	-132.318	44.858	0	800.60	0	3.9090	0	34.2750	0	27.225	0	792.581	0	12.2	4	3.8	4	-1E+10	1	-1E+10	1	-1E+10	1	-1E+10	1	-1E+10	1	-1E+10	1
4901784	43	C	09/07/2016	10:48	-132.318	44.858	0	805.80	0	3.8990	0	34.2790	0	27.229	0	797.719	0	12.0	4	3.8	4	-1E+10	1	-1E+10	1	-1E+10	1	-1E+10	1	-1E+10	1	-1E+10	1
4901784	43	C	09/07/2016	10:48	-132.318	44.858	0	810.80	0	3.8820	0	34.2820	0	27.233	0	802.660	0	12.0	4	3.8	4	-1E+10	1	-1E+10	1	-1E+10	1	-1E+10	1	-1E+10	1	-1E+10	1
4901784	43	C	09/07/2016	10:48	-132.318	44.858	0	815.10	0	3.8620	0	34.2850	0	27.238	0	806.908	0	12.0	4	3.8	4	-1E+10	1	-1E+10	1	-1E+10	1	-1E+10	1	-1E+10	1	-1E+10	1
4901784	43	C	09/07/2016	10:48	-132.318	44.858	0	819.30	0	3.8490	0	34.2860	0	27.240	0	811.058	0	12.0	4	3.8	4	-1E+10	1	-1E+10	1	-1E+10	1	-1E+10	1	-1E+10	1	-1E+10	1
4901784	43	C	09/07/2016	10:48	-132.318	44.858	0	824.40	0	3.8280	0	34.2880	0	27.243	0	816.097	0	12.1	4	3.8	4	-1E+10	1	-1E+10	1	-1E+10	1	-1E+10	1	-1E+10	1	-1E+10	1
4901784	43	C	09/07/2016	10:48	-132.318	44.858	0	829.60	0	3.8060	0	34.2910	0	27.248	0	821.234	0	12.0	4	3.8	4	-1E+10	1	-1E+10	1	-1E+10	1	-1E+10	1	-1E+10	1	-1E+10	1
4901784	43	C	09/07/2016	10:48	-132.318	44.858	0	834.70	0	3.8000	0	34.2930	0	27.250	0	826.273	0	11.9	4	3.7	4	-1E+10	1	-1E+10	1	-1E+10	1	-1E+10	1	-1E+10	1	-1E+10	1
4901784	43	C	09/07/2016	10:48	-132.318	44.858	0	839.90	0	3.7900	0	34.2970	0	27.254	0	831.410	0	11.8	4	3.7	4	-1E+10	1	-1E+10	1	-1E+10	1	-1E+10	1	-1E+10	1	-1E+10	1
4901784	43	C	09/07/2016	10:48	-132.318	44.858	0	845.00	0	3.7700	0	34.3010	0	27.260	0	836.448	0	11.8	4	3.7	4	-1E+10	1	-1E+10	1	-1E+10	1	-1E+10	1	-1E+10	1	-1E+10	1
4901784	43	C	09/07/2016	10:48	-132.318	44.858	0	850.20	0	3.7540	0	34.3040	0	27.264	0	841.585	0	11.7	4	3.7	4	-1E+10	1	-1E+10	1	-1E+10	1	-1E+10	1	-1E+10	1	-1E+10	1
4901784	43	C	09/07/2016	10:48	-132.318	44.858	0	855.20	0	3.7460	0	34.3050	0	27.265	0	846.524	0	11.7	4	3.7	4	-1E+10	1	-1E+10	1	-1E+10	1	-1E+10	1	-1E+10	1	-1E+10	1
4901784	43	C	09/07/2016	10:48	-132.318	44.858	0	860.20	0	3.7340	0	34.3090	0	27.270	0	851.463	0	11.6	4	3.6	4	-1E+10	1	-1E+10	1	-1E+10	1	-1E+10	1	-1E+10	1	-1E+10	1
4901784	43	C	09/07/2016	10:48	-132.318	44.858	0	865.30	0	3.7210	0	34.3130	0	27.274	0	856.501	0	11.5	4	3.6	4	-1E+10	1	-1E+10	1	-1E+10	1	-1E+10	1	-1E+10	1	-1E+10	1
4901784	43	C	09/07/2016	10:48	-132.318	44.858	0	870.40	0	3.7020	0	34.3180	0	27.280	0	861.539	0	11.4	4	3.6	4	-1E+10	1	-1E+10	1	-1E+10	1	-1E+10	1	-1E+10	1	-1E+10	1
4901784	43	C	09/07/2016	10:48	-132.318	44.858	0	875.50	0	3.6810	0	34.3220	0	27.285	0	866.576	0	11.4	4	3.6	4	-1E+10	1	-1E+10	1	-1E+10	1	-1E+10	1	-1E+10	1	-1E+10	1
4901784	43	C	09/07/2016	10:48	-132.318	44.858	0	880.70	0	3.6640	0	34.3260	0	27.290	0	871.712	0	11.4	4	3.6	4	-1E+10	1	-1E+10	1	-1E+10	1	-1E+10	1	-1E+10	1	-1E+10	1
4901784	43	C	09/07/2016	10:48	-132.318	44.858	0	885.00	0	3.6620	0	34.3280	0	27.292	0	875.959	0	11.3	4	3.6	4	-1E+10	1	-1E+10	1	-1E+10	1	-1E+10	1	-1E+10	1	-1E+10	1
4901784	43	C	09/07/2016	10:48	-132.318	44.858	0	889.30	0	3.6430	0	34.3320	0	27.297	0	880.206	0	11.4	4	3.6	4	-1E+10	1	-1E+10	1	-1E+10	1	-1E+10	1	-1E+10	1	-1E+10	1
4901784	43	C	09/07/2016	10:48	-132.318	44.858	0	894.50	0	3.6300	0	34.3330	0	27.299	0	885.342	0	11.4	4	3.6	4	-1E+10	1	-1E+10	1	-1E+10	1	-1E+10	1	-1E+10	1	-1E+10	1
4901784	43	C	09/07/2016	10:48	-132.318	44.858	0	899.70	0	3.6170	0	34.3360	0	27.303	0	890.478	0	11.5	4	3.6	4	-1E+10	1	-1E+10	1	-1E+10	1	-1E+10	1	-1E+10	1	-1E+10	1
4901784	43	C	09/07/2016	10:48	-132.318	44.858	0	905.00	0	3.6030	0	34.3380	0	27.306	0	895.712	0	11.5	4	3.6	4	-1E+10	1	-1E+10	1	-1E+10	1	-1E+10	1	-1E+10	1	-1E+10	1
4901784	43	C	09/07/2016	10:48	-132.318	44.858	0	910.20	0	3.5860	0	34.3420	0	27.311	0	900.848	0	11.5	4	3.6	4	-1E+10	1	-1E+10	1	-1E+10	1	-1E+10	1	-1E+10	1	-1E+10	1
4901784	43	C	09/07/2016	10:48	-132.318	44.858	0	915.50	0	3.5690	0	34.3460	0	27.316	0	906.082	0	11.5	4	3.6	4	-1E+10	1	-1E+10	1	-1E+10	1	-1E+10	1	-1E+10	1	-1E+10	1
4901784	43	C	09/07/2016	10:48	-132.318	44.858	0	920.00	0	3.5580	0	34.3490	0	27.319	0	910.526	0	11.5	4	3.6	4	-1E+10	1	-1E+10	1	-1E+10	1	-1E+10	1	-1E+10	1	-1E+10	1
4901784	43	C	09/07/2016	10:48	-132.318	44.858	0	924.40	0	3.5530	0	34.3500	0	27.321	0	914.871	0	11.5	4	3.6	4	-1E+10	1	-1E+10	1	-1E+10	1	-1E+10	1	-1E+10	1	-1E+10	1
4901784	43	C	09/07/2016	10:48	-132.318	44.858	0	929.90	0	3.5470	0	34.3520	0	27.323	0	920.302	0	11.5	4	3.6	4	-1E+10	1	-1E+10	1	-1E+10	1	-1E+10	1	-1E+10	1	-1E+10	1
4901784	43	C	09/07/2016	10:48	-132.318	44.858	0	935.40	0	3.5490	0	34.3550	0	27.325	0	925.733	0	11.5	4	3.6	4	-1E+10	1	-1E+10	1	-1E+10	1	-1E+10	1	-1E+10	1	-1E+10	1
4901784	43	C	09/07/2016	10:48	-132.318	44.858	0	940.60	0	3.5270	0	34.3600	0	27.331	0	930.868	0	11.6	4	3.6	4	-1E+10	1	-1E+10	1	-1E+10	1	-1E+10	1	-1E+10	1	-1E+10	1
4901784	43	C	09/07/2016	10:48	-132.318	44.858	0	945.40	0	3.5170	0	34.3620	0	27.334	0	935.607	0	11.6	4	3.6	4	-1E+10	1	-1E+10	1	-1E+10	1	-1E+10	1	-1E+10	1	-1E+10	1
4901784	43	C	09/07/2016	10:48	-132.318	44.858	0	950.10	0	3.5060	0	34.3660	0	27.338	0	940.248	0	11.7	4	3.7	4	-1E+10	1	-1E+10	1	-1E+10	1	-1E+10	1	-1E+10	1	-1E+10	1
4901784	43	C	09/07/2016	10:48	-132.318	44.858	0	954.80	0	3.4970	0	34.3690	0	27.341	0	944.889	0	11.9	4	3.7	4	-1E+10	1	-1E+10	1	-1E+10	1	-1E+10	1	-1E+10	1	-1E+10	1
4901784	43	C	09/07/2016	10:48	-132.318	44.858	0	959.70	0	3.4910	0	34.3730	0	27.345	0	949.727	0	12.0	4	3.7	4	-1E+10	1	-1E+10	1	-1E+10	1	-1E+10	1	-1E+10	1	-1E+10	1
4901784	43	C	09/07/2016	10:48	-132.318	44.858	0	964.60	0	3.4820	0	34.3750	0	27.348	0	954.565	0	12.0	4	3.7	4	-1E+10	1	-1E+10	1	-1E+10	1	-1E+10	1	-1E+10	1	-1E+10	1
4901784	43	C	09/07/2016	10:48	-132.318	44.858	0	969.60	0	3.4710	0	34.3770	0	27.350	0	959.501	0	12.1	4	3.8	4	-1E+10	1	-1E+10	1	-1E+10	1	-1E+10	1	-1E+10	1	-1E+10	1
4901784	43	C	09/07/2016	10:48	-132.318	44.858	0	974.70	0	3.4620	0	34.3790	0	27.353	0	964.536	0	12.2	4	3.8	4	-1E+10	1	-1E+10	1	-1E+10	1	-1E+10	1	-1E+10	1	-1E+10	1
4901784	43	C	09/07/2016	10:48	-132.318	44.858	0	979.80	0	3.4500	0	34.3840	0	27.358	0	969.571	0	12.4	4	3.9	4	-1E+10	1	-1E+10	1	-1E+10	1	-1E+10	1	-1E+10	1	-1E+10	1
4901784	43	C	09/07/2016	10:48	-132.318	44.858	0	985.00	0	3.4420	0	34.3870	0	27.361	0	974.705	0	12.4	4	3.9	4	-1E+10	1	-1E+10	1	-1E+10	1	-1E+10	1	-1E+10	1	-1E+10	1
4901784	43	C	09/07/2016	10:48	-132.318	44.858	0	990.20	0	3.4290	0	34.3890	0	27.364	0	979.839	0	12.3	4	3.8	4	-1E+10	1	-1E+10	1	-1E+10	1	-1E+10	1	-1E+10	1	-1E+10	1
4901784	43	C	09/07/2016	10:48	-132.318	44.858	0	995.50	0	3.4070	0	34.3910	0	27.368	0	985.071	0	12.2	4	3.8	4	-1E+10	1	-1E+10	1	-1E+10	1	-1E+10	1	-1E+10	1	-1E+10	1
4901784	43	C	09/07/2016	10:48	-132.318	44.858	0	1000.00	0	3.3900	0	34.3920	0	27.370	0	989.513	0	12.2	4	3.8	4	-1E+10	1	-1E+10	1	-1E+10	1	-1E+10	1	-1E+10	1	-1E+10	1
4901784	43	C	09/07/2016	10:48	-132.318	44.858	0	1004.50	0	3.3790	0	34.3930	0	27.372	0	993.955	0	12.2	4	3.8	4	-1E+10	1	-1E+10	1	-1E+10	1	-1E+10	1	-1E+10	1	-1E+10	1
4901784	43	C	09/07/2016	10:48	-132.318	44.858	0	1009.90	0	3.3670	0	34.3950	0	27.375	0	999.285	0	12.2	4	3.8	4	-1E+10	1	-1E+10	1	-1E+10	1	-1E+10	1	-1E+10	1	-1E+10	1
4901784	43	C	09/07/2016	10:48	-132.318	44.858	0	1015.10	0	3.3570	0	34.3960	0	27.376	0	1004.418	0	12.2	4	3.8	4	-1E+10	1	-1E+10	1	-1E+10	1	-1E+10	1	-1E+10	1	-1E+10	1
4901784	43	C	09/07/2016	10:48	-132.318	44.858	0	1019.40	0	3.3500	0	34.3980	0	27.379	0	1008.663	0	12.3	4	3.8	4	-1E+10	1	-1E+10	1	-1E+10	1	-1E+10	1	-1E+10	1	-1E+10	1
4901784	43	C	09/07/2016	10:48	-132.318	44.858	0	1024.90	0	3.3460	0	34.4000	0	27.381	0	1014.092	0	12.3	4	3.8	4	-1E+10	1	-1E+10	1	-1E+10	1	-1E+10	1	-1E+10	1	-1E+10	1
4901784	43	C	09/07/2016	10:48	-132.318	44.858	0	1030.50	0	3.3430	0	34.4010	0	27.382	0	1019.619	0	12.4	4	3.9	4	-1E+10	1	-1E+10	1	-1E+10	1	-1E+10	1	-1E+10	1	-1E+10	1
4901784	43	C	09/07/2016	10:48	-132.318	44.858	0	1035.20	0	3.3320	0	34.4040	0	27.385	0	1024.258	0	12.5	4	3.9	4	-1E+10	1	-1E+10	1	-1E+10	1	-1E+10	1	-1E+10	1	-1E+10	1
4901784	43	C	09/07/2016	10:48	-132.318	44.858	0	1040.00	0	3.3190	0	34.4050	0	27.387	0	1028.995	0	12.5	4	3.9	4	-1E+10	1	-1E+10	1	-1E+10	1	-1E+10	1	-1E+10	1	-1E+10	1
4901784	43	C	09/07/2016	10:48	-132.318	44.858	0	1045.00	0	3.3090	0	34.4070	0	27.390	0	1033.930	0	12.6	4	3.9	4	-1E+10	1	-1E+10	1	-1E+10	1	-1E+10	1	-1E+10	1	-1E+10	1
4901784	43	C	09/07/2016	10:48	-132.318	44.858	0	1050.00	0	3.3010	0	34.4070	0	27.391	0	1038.865	0	12.6	4	3.9	4	-1E+10	1	-1E+10	1	-1E+10	1	-1E+10	1	-1E+10	1	-1E+10	1
4901784	43	C	09/07/2016	10:48	-132.318	44.858	0	1055.10	0	3.2880	0	34.4100	0	27.394	0	1043.898	0	12.7	4	3.9	4	-1E+10	1	-1E+10	1	-1E+10	1	-1E+10	1	-1E+10	1	-1E+10	1
4901784	43	C	09/07/2016	10:48	-132.318	44.858	0	1060.20	0	3.2810	0	34.4110	0	27.396	0	1048.931	0	12.7	4	4.0	4	-1E+10	1	-1E+10	1	-1E+10	1	-1E+10	1	-1E+10	1	-1E+10	1
4901784	43	C	09/07/2016	10:48	-132.318	44.858	0	1065.50	0	3.2800	0	34.4110	0	27.396	0	1054.161	0	12.9	4	4.0	4	-1E+10	1	-1E+10	1	-1E+10	1	-1E+10	1	-1E+10	1	-1E+10	1
4901784	43	C	09/07/2016	10:48	-132.318	44.858	0	1070.70	0	3.2710	0	34.4140	0	27.399	0	1059.293	0	13.0	4	4.0	4	-1E+10	1	-1E+10	1	-1E+10	1	-1E+10	1	-1E+10	1	-1E+10	1
4901784	43	C	09/07/2016	10:48	-132.318	44.858	0	1075.00	0	3.2670	0	34.4160	0	27.401	0	1063.536	0	13.2	4	4.1	4	-1E+10	1	-1E+10	1	-1E+10	1	-1E+10	1	-1E+10	1	-1E+10	1
4901784	43	C	09/07/2016	10:48	-132.318	44.858	0	1079.40	0	3.2580	0	34.4180	0	27.404	0	1067.878	0	13.2	4	4.1	4	-1E+10	1	-1E+10	1	-1E+10	1	-1E+10	1	-1E+10	1	-1E+10	1
4901784	43	C	09/07/2016	10:48	-132.318	44.858	0	1084.60	0	3.2440	0	34.4190	0	27.406	0	1073.009	0	13.2	4	4.1	4	-1E+10	1	-1E+10	1	-1E+10	1	-1E+10	1	-1E+10	1	-1E+10	1
4901784	43	C	09/07/2016	10:48	-132.318	44.858	0	1089.90	0	3.2350	0	34.4190	0	27.407	0	1078.239	0	13.2	4	4.1	4	-1E+10	1	-1E+10	1	-1E+10	1	-1E+10	1	-1E+10	1	-1E+10	1
4901784	43	C	09/07/2016	10:48	-132.318	44.858	0	1095.30	0	3.2170	0	34.4210	0	27.410	0	1083.567	0	13.3	4	4.1	4	-1E+10	1	-1E+10	1	-1E+10	1	-1E+10	1	-1E+10	1	-1E+10	1
4901784	43	C	09/07/2016	10:48	-132.318	44.858	0	1099.80	0	3.2070	0	34.4230	0	27.413	0	1088.008	0	13.5	4	4.2	4	-1E+10	1	-1E+10	1	-1E+10	1	-1E+10	1	-1E+10	1	-1E+10	1
4901784	43	C	09/07/2016	10:48	-132.318	44.858	0	1104.40	0	3.2060	0	34.4250	0	27.414	0	1092.546	0	13.6	4	4.2	4	-1E+10	1	-1E+10	1	-1E+10	1	-1E+10	1	-1E+10	1	-1E+10	1
4901784	43	C	09/07/2016	10:48	-132.318	44.858	0	1109.90	0	3.2030	0	34.4260	0	27.415	0	1097.973	0	13.7	4	4.2	4	-1E+10	1	-1E+10	1	-1E+10	1	-1E+10	1	-1E+10	1	-1E+10	1
4901784	43	C	09/07/2016	10:48	-132.318	44.858	0	1115.50	0	3.1900	0	34.4270	0	27.417	0	1103.498	0	13.8	4	4.3	4	-1E+10	1	-1E+10	1	-1E+10	1	-1E+10	1	-1E+10	1	-1E+10	1
4901784	43	C	09/07/2016	10:48	-132.318	44.858	0	1120.10	0	3.1820	0	34.4290	0	27.420	0	1108.036	0	13.9	4	4.3	4	-1E+10	1	-1E+10	1	-1E+10	1	-1E+10	1	-1E+10	1	-1E+10	1
4901784	43	C	09/07/2016	10:48	-132.318	44.858	0	1124.90	0	3.1780	0	34.4300	0	27.421	0	1112.772	0	14.1	4	4.4	4	-1E+10	1	-1E+10	1	-1E+10	1	-1E+10	1	-1E+10	1	-1E+10	1
4901784	43	C	09/07/2016	10:48	-132.318	44.858	0	1130.50	0	3.1670	0	34.4320	0	27.424	0	1118.297	0	14.2	4	4.4	4	-1E+10	1	-1E+10	1	-1E+10	1	-1E+10	1	-1E+10	1	-1E+10	1
4901784	43	C	09/07/2016	10:48	-132.318	44.858	0	1135.20	0	3.1580	0	34.4330	0	27.425	0	1122.933	0	14.3	4	4.4	4	-1E+10	1	-1E+10	1	-1E+10	1	-1E+10	1	-1E+10	1	-1E+10	1
4901784	43	C	09/07/2016	10:48	-132.318	44.858	0	1139.90	0	3.1500	0	34.4340	0	27.427	0	1127.570	0	14.3	4	4.4	4	-1E+10	1	-1E+10	1	-1E+10	1	-1E+10	1	-1E+10	1	-1E+10	1
4901784	43	C	09/07/2016	10:48	-132.318	44.858	0	1144.70	0	3.1410	0	34.4350	0	27.429	0	1132.305	0	14.4	4	4.5	4	-1E+10	1	-1E+10	1	-1E+10	1	-1E+10	1	-1E+10	1	-1E+10	1
4901784	43	C	09/07/2016	10:48	-132.318	44.858	0	1149.50	0	3.1350	0	34.4360	0	27.430	0	1137.040	0	14.5	4	4.5	4	-1E+10	1	-1E+10	1	-1E+10	1	-1E+10	1	-1E+10	1	-1E+10	1
4901784	43	C	09/07/2016	10:48	-132.318	44.858	0	1155.20	0	3.1220	0	34.4370	0	27.432	0	1142.663	0	14.5	4	4.5	4	-1E+10	1	-1E+10	1	-1E+10	1	-1E+10	1	-1E+10	1	-1E+10	1
4901784	43	C	09/07/2016	10:48	-132.318	44.858	0	1160.50	0	3.1090	0	34.4390	0	27.435	0	1147.891	0	14.7	4	4.5	4	-1E+10	1	-1E+10	1	-1E+10	1	-1E+10	1	-1E+10	1	-1E+10	1
4901784	43	C	09/07/2016	10:48	-132.318	44.858	0	1165.50	0	3.1000	0	34.4400	0	27.436	0	1152.823	0	14.8	4	4.6	4	-1E+10	1	-1E+10	1	-1E+10	1	-1E+10	1	-1E+10	1	-1E+10	1
4901784	43	C	09/07/2016	10:48	-132.318	44.858	0	1170.40	0	3.0880	0	34.4420	0	27.439	0	1157.656	0	14.9	4	4.6	4	-1E+10	1	-1E+10	1	-1E+10	1	-1E+10	1	-1E+10	1	-1E+10	1
4901784	43	C	09/07/2016	10:48	-132.318	44.858	0	1175.50	0	3.0800	0	34.4430	0	27.441	0	1162.686	0	15.0	4	4.6	4	-1E+10	1	-1E+10	1	-1E+10	1	-1E+10	1	-1E+10	1	-1E+10	1
4901784	43	C	09/07/2016	10:48	-132.318	44.858	0	1180.50	0	3.0730	0	34.4440	0	27.442	0	1167.618	0	15.1	4	4.7	4	-1E+10	1	-1E+10	1	-1E+10	1	-1E+10	1	-1E+10	1	-1E+10	1
4901784	43	C	09/07/2016	10:48	-132.318	44.858	0	1185.60	0	3.0660	0	34.4460	0	27.444	0	1172.648	0	15.2	4	4.7	4	-1E+10	1	-1E+10	1	-1E+10	1	-1E+10	1	-1E+10	1	-1E+10	1
4901784	43	C	09/07/2016	10:48	-132.318	44.858	0	1189.90	0	3.0640	0	34.4460	0	27.445	0	1176.889	0	15.2	4	4.7	4	-1E+10	1	-1E+10	1	-1E+10	1	-1E+10	1	-1E+10	1	-1E+10	1
4901784	43	C	09/07/2016	10:48	-132.318	44.858	0	1194.20	0	3.0580	0	34.4460	0	27.445	0	1181.130	0	15.3	4	4.7	4	-1E+10	1	-1E+10	1	-1E+10	1	-1E+10	1	-1E+10	1	-1E+10	1
4901784	43	C	09/07/2016	10:48	-132.318	44.858	0	1199.40	0	3.0480	0	34.4480	0	27.448	0	1186.259	0	15.4	4	4.8	4	-1E+10	1	-1E+10	1	-1E+10	1	-1E+10	1	-1E+10	1	-1E+10	1
4901784	43	C	09/07/2016	10:48	-132.318	44.858	0	1204.60	0	3.0380	0	34.4490	0	27.449	0	1191.387	0	15.6	4	4.8	4	-1E+10	1	-1E+10	1	-1E+10	1	-1E+10	1	-1E+10	1	-1E+10	1
4901784	43	C	09/07/2016	10:48	-132.318	44.858	0	1209.80	0	3.0270	0	34.4510	0	27.452	0	1196.515	0	15.8	4	4.9	4	-1E+10	1	-1E+10	1	-1E+10	1	-1E+10	1	-1E+10	1	-1E+10	1
4901784	43	C	09/07/2016	10:48	-132.318	44.858	0	1215.00	0	3.0190	0	34.4530	0	27.454	0	1201.643	0	15.9	4	4.9	4	-1E+10	1	-1E+10	1	-1E+10	1	-1E+10	1	-1E+10	1	-1E+10	1
4901784	43	C	09/07/2016	10:48	-132.318	44.858	0	1220.20	0	3.0120	0	34.4540	0	27.456	0	1206.771	0	16.1	4	5.0	4	-1E+10	1	-1E+10	1	-1E+10	1	-1E+10	1	-1E+10	1	-1E+10	1
4901784	43	C	09/07/2016	10:48	-132.318	44.858	0	1225.20	0	3.0040	0	34.4550	0	27.457	0	1211.701	0	16.3	4	5.0	4	-1E+10	1	-1E+10	1	-1E+10	1	-1E+10	1	-1E+10	1	-1E+10	1
4901784	43	C	09/07/2016	10:48	-132.318	44.858	0	1230.30	0	2.9960	0	34.4570	0	27.460	0	1216.731	0	16.5	4	5.1	4	-1E+10	1	-1E+10	1	-1E+10	1	-1E+10	1	-1E+10	1	-1E+10	1
4901784	43	C	09/07/2016	10:48	-132.318	44.858	0	1235.50	0	2.9930	0	34.4580	0	27.461	0	1221.858	0	16.7	4	5.1	4	-1E+10	1	-1E+10	1	-1E+10	1	-1E+10	1	-1E+10	1	-1E+10	1
4901784	43	C	09/07/2016	10:48	-132.318	44.858	0	1240.60	0	2.9840	0	34.4600	0	27.463	0	1226.887	0	16.8	4	5.2	4	-1E+10	1	-1E+10	1	-1E+10	1	-1E+10	1	-1E+10	1	-1E+10	1
4901784	43	C	09/07/2016	10:48	-132.318	44.858	0	1245.00	0	2.9810	0	34.4610	0	27.464	0	1231.225	0	17.0	4	5.2	4	-1E+10	1	-1E+10	1	-1E+10	1	-1E+10	1	-1E+10	1	-1E+10	1
4901784	43	C	09/07/2016	10:48	-132.318	44.858	0	1249.30	0	2.9750	0	34.4620	0	27.466	0	1235.465	0	17.3	4	5.3	4	-1E+10	1	-1E+10	1	-1E+10	1	-1E+10	1	-1E+10	1	-1E+10	1
4901784	43	C	09/07/2016	10:48	-132.318	44.858	0	1254.60	0	2.9750	0	34.4640	0	27.467	0	1240.691	0	17.6	4	5.4	4	-1E+10	1	-1E+10	1	-1E+10	1	-1E+10	1	-1E+10	1	-1E+10	1
4901784	43	C	09/07/2016	10:48	-132.318	44.858	0	1259.90	0	2.9670	0	34.4660	0	27.470	0	1245.917	0	17.7	4	5.5	4	-1E+10	1	-1E+10	1	-1E+10	1	-1E+10	1	-1E+10	1	-1E+10	1
4901784	43	C	09/07/2016	10:48	-132.318	44.858	0	1265.20	0	2.9580	0	34.4670	0	27.471	0	1251.142	0	17.8	4	5.5	4	-1E+10	1	-1E+10	1	-1E+10	1	-1E+10	1	-1E+10	1	-1E+10	1
4901784	43	C	09/07/2016	10:48	-132.318	44.858	0	1270.40	0	2.9470	0	34.4680	0	27.473	0	1256.269	0	17.8	4	5.5	4	-1E+10	1	-1E+10	1	-1E+10	1	-1E+10	1	-1E+10	1	-1E+10	1
4901784	43	C	09/07/2016	10:48	-132.318	44.858	0	1275.70	0	2.9380	0	34.4690	0	27.475	0	1261.494	0	17.9	4	5.5	4	-1E+10	1	-1E+10	1	-1E+10	1	-1E+10	1	-1E+10	1	-1E+10	1
4901784	43	C	09/07/2016	10:48	-132.318	44.858	0	1280.10	0	2.9290	0	34.4690	0	27.476	0	1265.832	0	18.0	4	5.5	4	-1E+10	1	-1E+10	1	-1E+10	1	-1E+10	1	-1E+10	1	-1E+10	1
4901784	43	C	09/07/2016	10:48	-132.318	44.858	0	1284.60	0	2.9270	0	34.4700	0	27.477	0	1270.268	0	18.1	4	5.6	4	-1E+10	1	-1E+10	1	-1E+10	1	-1E+10	1	-1E+10	1	-1E+10	1
4901784	43	C	09/07/2016	10:48	-132.318	44.858	0	1289.90	0	2.9190	0	34.4710	0	27.478	0	1275.493	0	18.2	4	5.6	4	-1E+10	1	-1E+10	1	-1E+10	1	-1E+10	1	-1E+10	1	-1E+10	1
4901784	43	C	09/07/2016	10:48	-132.318	44.858	0	1295.30	0	2.9140	0	34.4720	0	27.480	0	1280.816	0	18.3	4	5.6	4	-1E+10	1	-1E+10	1	-1E+10	1	-1E+10	1	-1E+10	1	-1E+10	1
4901784	43	C	09/07/2016	10:48	-132.318	44.858	0	1300.70	0	2.9090	0	34.4730	0	27.481	0	1286.139	0	18.5	4	5.7	4	-1E+10	1	-1E+10	1	-1E+10	1	-1E+10	1	-1E+10	1	-1E+10	1
4901784	43	C	09/07/2016	10:48	-132.318	44.858	0	1305.10	0	2.9080	0	34.4740	0	27.482	0	1290.476	0	18.6	4	5.7	4	-1E+10	1	-1E+10	1	-1E+10	1	-1E+10	1	-1E+10	1	-1E+10	1
4901784	43	C	09/07/2016	10:48	-132.318	44.858	0	1309.50	0	2.9070	0	34.4740	0	27.482	0	1294.814	0	18.8	4	5.8	4	-1E+10	1	-1E+10	1	-1E+10	1	-1E+10	1	-1E+10	1	-1E+10	1
4901784	43	C	09/07/2016	10:48	-132.318	44.858	0	1314.90	0	2.9030	0	34.4750	0	27.483	0	1300.136	0	19.0	4	5.8	4	-1E+10	1	-1E+10	1	-1E+10	1	-1E+10	1	-1E+10	1	-1E+10	1
4901784	43	C	09/07/2016	10:48	-132.318	44.858	0	1320.20	0	2.8960	0	34.4760	0	27.484	0	1305.360	0	19.2	4	5.9	4	-1E+10	1	-1E+10	1	-1E+10	1	-1E+10	1	-1E+10	1	-1E+10	1
4901784	43	C	09/07/2016	10:48	-132.318	44.858	0	1325.50	0	2.8860	0	34.4790	0	27.488	0	1310.584	0	19.5	4	6.0	4	-1E+10	1	-1E+10	1	-1E+10	1	-1E+10	1	-1E+10	1	-1E+10	1
4901784	43	C	09/07/2016	10:48	-132.318	44.858	0	1329.90	0	2.8800	0	34.4800	0	27.489	0	1314.921	0	19.7	4	6.1	4	-1E+10	1	-1E+10	1	-1E+10	1	-1E+10	1	-1E+10	1	-1E+10	1
4901784	43	C	09/07/2016	10:48	-132.318	44.858	0	1334.40	0	2.8750	0	34.4810	0	27.490	0	1319.356	0	19.9	4	6.1	4	-1E+10	1	-1E+10	1	-1E+10	1	-1E+10	1	-1E+10	1	-1E+10	1
4901784	43	C	09/07/2016	10:48	-132.318	44.858	0	1339.70	0	2.8750	0	34.4830	0	27.492	0	1324.580	0	20.3	4	6.2	4	-1E+10	1	-1E+10	1	-1E+10	1	-1E+10	1	-1E+10	1	-1E+10	1
4901784	43	C	09/07/2016	10:48	-132.318	44.858	0	1344.90	0	2.8680	0	34.4840	0	27.494	0	1329.705	0	20.5	4	6.3	4	-1E+10	1	-1E+10	1	-1E+10	1	-1E+10	1	-1E+10	1	-1E+10	1
4901784	43	C	09/07/2016	10:48	-132.318	44.858	0	1350.20	0	2.8580	0	34.4850	0	27.495	0	1334.928	0	20.7	4	6.4	4	-1E+10	1	-1E+10	1	-1E+10	1	-1E+10	1	-1E+10	1	-1E+10	1
4901784	43	C	09/07/2016	10:48	-132.318	44.858	0	1354.90	0	2.8460	0	34.4880	0	27.499	0	1339.560	0	21.1	4	6.5	4	-1E+10	1	-1E+10	1	-1E+10	1	-1E+10	1	-1E+10	1	-1E+10	1
4901784	43	C	09/07/2016	10:48	-132.318	44.858	0	1359.70	0	2.8400	0	34.4890	0	27.500	0	1344.291	0	21.3	4	6.6	4	-1E+10	1	-1E+10	1	-1E+10	1	-1E+10	1	-1E+10	1	-1E+10	1
4901784	43	C	09/07/2016	10:48	-132.318	44.858	0	1365.60	0	2.8260	0	34.4910	0	27.503	0	1350.105	0	21.6	4	6.6	4	-1E+10	1	-1E+10	1	-1E+10	1	-1E+10	1	-1E+10	1	-1E+10	1
4901784	43	C	09/07/2016	10:48	-132.318	44.858	0	1370.40	0	2.8220	0	34.4920	0	27.504	0	1354.835	0	21.8	4	6.7	4	-1E+10	1	-1E+10	1	-1E+10	1	-1E+10	1	-1E+10	1	-1E+10	1
4901784	43	C	09/07/2016	10:48	-132.318	44.858	0	1375.30	0	2.8100	0	34.4930	0	27.506	0	1359.664	0	22.0	4	6.8	4	-1E+10	1	-1E+10	1	-1E+10	1	-1E+10	1	-1E+10	1	-1E+10	1
4901784	43	C	09/07/2016	10:48	-132.318	44.858	0	1380.20	0	2.8000	0	34.4950	0	27.508	0	1364.492	0	22.2	4	6.8	4	-1E+10	1	-1E+10	1	-1E+10	1	-1E+10	1	-1E+10	1	-1E+10	1
4901784	43	C	09/07/2016	10:48	-132.318	44.858	0	1385.20	0	2.7860	0	34.4950	0	27.510	0	1369.419	0	22.4	4	6.9	4	-1E+10	1	-1E+10	1	-1E+10	1	-1E+10	1	-1E+10	1	-1E+10	1
4901784	43	C	09/07/2016	10:48	-132.318	44.858	0	1390.10	0	2.7720	0	34.4970	0	27.513	0	1374.247	0	22.5	4	6.9	4	-1E+10	1	-1E+10	1	-1E+10	1	-1E+10	1	-1E+10	1	-1E+10	1
4901784	43	C	09/07/2016	10:48	-132.318	44.858	0	1395.00	0	2.7690	0	34.4970	0	27.513	0	1379.075	0	22.7	4	7.0	4	-1E+10	1	-1E+10	1	-1E+10	1	-1E+10	1	-1E+10	1	-1E+10	1
4901784	43	C	09/07/2016	10:48	-132.318	44.858	0	1399.90	0	2.7650	0	34.4970	0	27.513	0	1383.903	0	22.9	4	7.0	4	-1E+10	1	-1E+10	1	-1E+10	1	-1E+10	1	-1E+10	1	-1E+10	1
4901784	43	C	09/07/2016	10:48	-132.318	44.858	0	1404.80	0	2.7490	0	34.5000	0	27.517	0	1388.731	0	23.4	4	7.2	4	-1E+10	1	-1E+10	1	-1E+10	1	-1E+10	1	-1E+10	1	-1E+10	1
4901784	43	C	09/07/2016	10:48	-132.318	44.858	0	1409.80	0	2.7380	0	34.5020	0	27.520	0	1393.657	0	23.7	4	7.3	4	-1E+10	1	-1E+10	1	-1E+10	1	-1E+10	1	-1E+10	1	-1E+10	1
4901784	43	C	09/07/2016	10:48	-132.318	44.858	0	1414.70	0	2.7270	0	34.5040	0	27.522	0	1398.485	0	24.0	4	7.4	4	-1E+10	1	-1E+10	1	-1E+10	1	-1E+10	1	-1E+10	1	-1E+10	1
4901784	43	C	09/07/2016	10:48	-132.318	44.858	0	1419.70	0	2.7250	0	34.5040	0	27.522	0	1403.411	0	24.2	4	7.4	4	-1E+10	1	-1E+10	1	-1E+10	1	-1E+10	1	-1E+10	1	-1E+10	1
4901784	43	C	09/07/2016	10:48	-132.318	44.858	0	1424.60	0	2.7120	0	34.5050	0	27.524	0	1408.239	0	24.6	4	7.5	4	-1E+10	1	-1E+10	1	-1E+10	1	-1E+10	1	-1E+10	1	-1E+10	1
4901784	43	C	09/07/2016	10:48	-132.318	44.858	0	1429.50	0	2.6930	0	34.5080	0	27.528	0	1413.066	0	24.8	4	7.6	4	-1E+10	1	-1E+10	1	-1E+10	1	-1E+10	1	-1E+10	1	-1E+10	1
4901784	43	C	09/07/2016	10:48	-132.318	44.858	0	1434.50	0	2.6890	0	34.5090	0	27.530	0	1417.992	0	25.0	4	7.7	4	-1E+10	1	-1E+10	1	-1E+10	1	-1E+10	1	-1E+10	1	-1E+10	1
4901784	43	C	09/07/2016	10:48	-132.318	44.858	0	1440.30	0	2.6790	0	34.5090	0	27.530	0	1423.705	0	25.0	4	7.7	4	-1E+10	1	-1E+10	1	-1E+10	1	-1E+10	1	-1E+10	1	-1E+10	1
4901784	43	C	09/07/2016	10:48	-132.318	44.858	0	1445.20	0	2.6720	0	34.5090	0	27.531	0	1428.532	0	25.0	4	7.7	4	-1E+10	1	-1E+10	1	-1E+10	1	-1E+10	1	-1E+10	1	-1E+10	1
4901784	43	C	09/07/2016	10:48	-132.318	44.858	0	1450.20	0	2.6600	0	34.5090	0	27.532	0	1433.458	0	24.9	4	7.6	4	-1E+10	1	-1E+10	1	-1E+10	1	-1E+10	1	-1E+10	1	-1E+10	1
4901784	43	C	09/07/2016	10:48	-132.318	44.858	0	1455.10	0	2.6520	0	34.5090	0	27.533	0	1438.284	0	24.9	4	7.6	4	-1E+10	1	-1E+10	1	-1E+10	1	-1E+10	1	-1E+10	1	-1E+10	1
4901784	43	C	09/07/2016	10:48	-132.318	44.858	0	1460.10	0	2.6390	0	34.5090	0	27.534	0	1443.210	0	25.1	4	7.7	4	-1E+10	1	-1E+10	1	-1E+10	1	-1E+10	1	-1E+10	1	-1E+10	1
4901784	43	C	09/07/2016	10:48	-132.318	44.858	0	1465.10	0	2.6240	0	34.5100	0	27.536	0	1448.135	0	25.3	4	7.7	4	-1E+10	1	-1E+10	1	-1E+10	1	-1E+10	1	-1E+10	1	-1E+10	1
4901784	43	C	09/07/2016	10:48	-132.318	44.858	0	1470.10	0	2.6120	0	34.5110	0	27.538	0	1453.059	0	25.4	4	7.8	4	-1E+10	1	-1E+10	1	-1E+10	1	-1E+10	1	-1E+10	1	-1E+10	1
4901784	43	C	09/07/2016	10:48	-132.318	44.858	0	1475.30	0	2.6110	0	34.5110	0	27.538	0	1458.181	0	25.5	4	7.8	4	-1E+10	1	-1E+10	1	-1E+10	1	-1E+10	1	-1E+10	1	-1E+10	1
4901784	43	C	09/07/2016	10:48	-132.318	44.858	0	1480.40	0	2.6000	0	34.5120	0	27.540	0	1463.204	0	25.8	4	7.9	4	-1E+10	1	-1E+10	1	-1E+10	1	-1E+10	1	-1E+10	1	-1E+10	1
4901784	43	C	09/07/2016	10:48	-132.318	44.858	0	1484.60	0	2.5860	0	34.5130	0	27.542	0	1467.341	0	26.1	4	8.0	4	-1E+10	1	-1E+10	1	-1E+10	1	-1E+10	1	-1E+10	1	-1E+10	1
4901784	43	C	09/07/2016	10:48	-132.318	44.858	0	1489.50	0	2.5690	0	34.5150	0	27.545	0	1472.167	0	26.4	4	8.1	4	-1E+10	1	-1E+10	1	-1E+10	1	-1E+10	1	-1E+10	1	-1E+10	1
4901784	43	C	09/07/2016	10:48	-132.318	44.858	0	1495.00	0	2.5550	0	34.5160	0	27.547	0	1477.584	0	26.6	4	8.1	4	-1E+10	1	-1E+10	1	-1E+10	1	-1E+10	1	-1E+10	1	-1E+10	1
4901784	43	C	09/07/2016	10:48	-132.318	44.858	0	1500.60	0	2.5460	0	34.5170	0	27.549	0	1483.099	0	26.9	4	8.2	4	-1E+10	1	-1E+10	1	-1E+10	1	-1E+10	1	-1E+10	1	-1E+10	1
4901784	43	C	09/07/2016	10:48	-132.318	44.858	0	1505.50	0	2.5380	0	34.5180	0	27.550	0	1487.925	0	27.2	4	8.3	4	-1E+10	1	-1E+10	1	-1E+10	1	-1E+10	1	-1E+10	1	-1E+10	1
4901784	43	C	09/07/2016	10:48	-132.318	44.858	0	1510.50	0	2.5280	0	34.5180	0	27.551	0	1492.849	0	27.2	4	8.3	4	-1E+10	1	-1E+10	1	-1E+10	1	-1E+10	1	-1E+10	1	-1E+10	1
4901784	43	C	09/07/2016	10:48	-132.318	44.858	0	1515.50	0	2.5220	0	34.5190	0	27.552	0	1497.772	0	27.5	4	8.4	4	-1E+10	1	-1E+10	1	-1E+10	1	-1E+10	1	-1E+10	1	-1E+10	1
4901784	43	C	09/07/2016	10:48	-132.318	44.858	0	1520.50	0	2.5120	0	34.5200	0	27.554	0	1502.696	0	27.8	4	8.5	4	-1E+10	1	-1E+10	1	-1E+10	1	-1E+10	1	-1E+10	1	-1E+10	1
4901784	43	C	09/07/2016	10:48	-132.318	44.858	0	1525.50	0	2.5000	0	34.5210	0	27.556	0	1507.620	0	28.0	4	8.6	4	-1E+10	1	-1E+10	1	-1E+10	1	-1E+10	1	-1E+10	1	-1E+10	1
4901784	43	C	09/07/2016	10:48	-132.318	44.858	0	1530.40	0	2.4870	0	34.5220	0	27.558	0	1512.445	0	28.3	4	8.6	4	-1E+10	1	-1E+10	1	-1E+10	1	-1E+10	1	-1E+10	1	-1E+10	1
4901784	43	C	09/07/2016	10:48	-132.318	44.858	0	1535.40	0	2.4730	0	34.5230	0	27.560	0	1517.368	0	28.6	4	8.7	4	-1E+10	1	-1E+10	1	-1E+10	1	-1E+10	1	-1E+10	1	-1E+10	1
4901784	43	C	09/07/2016	10:48	-132.318	44.858	0	1540.50	0	2.4660	0	34.5230	0	27.560	0	1522.390	0	28.9	4	8.8	4	-1E+10	1	-1E+10	1	-1E+10	1	-1E+10	1	-1E+10	1	-1E+10	1
4901784	43	C	09/07/2016	10:48	-132.318	44.858	0	1545.60	0	2.4530	0	34.5250	0	27.563	0	1527.412	0	29.3	4	8.9	4	-1E+10	1	-1E+10	1	-1E+10	1	-1E+10	1	-1E+10	1	-1E+10	1
4901784	43	C	09/07/2016	10:48	-132.318	44.858	0	1550.70	0	2.4460	0	34.5260	0	27.564	0	1532.433	0	29.6	4	9.0	4	-1E+10	1	-1E+10	1	-1E+10	1	-1E+10	1	-1E+10	1	-1E+10	1
4901784	43	C	09/07/2016	10:48	-132.318	44.858	0	1555.80	0	2.4350	0	34.5270	0	27.566	0	1537.455	0	29.9	4	9.1	4	-1E+10	1	-1E+10	1	-1E+10	1	-1E+10	1	-1E+10	1	-1E+10	1
4901784	43	C	09/07/2016	10:48	-132.318	44.858	0	1560.00	0	2.4240	0	34.5280	0	27.568	0	1541.590	0	30.2	4	9.2	4	-1E+10	1	-1E+10	1	-1E+10	1	-1E+10	1	-1E+10	1	-1E+10	1
4901784	43	C	09/07/2016	10:48	-132.318	44.858	0	1564.40	0	2.4160	0	34.5290	0	27.569	0	1545.922	0	30.5	4	9.3	4	-1E+10	1	-1E+10	1	-1E+10	1	-1E+10	1	-1E+10	1	-1E+10	1
4901784	43	C	09/07/2016	10:48	-132.318	44.858	0	1569.60	0	2.4100	0	34.5300	0	27.571	0	1551.041	0	30.7	4	9.4	4	-1E+10	1	-1E+10	1	-1E+10	1	-1E+10	1	-1E+10	1	-1E+10	1
4901784	43	C	09/07/2016	10:48	-132.318	44.858	0	1574.90	0	2.4050	0	34.5300	0	27.571	0	1556.259	0	31.1	4	9.5	4	-1E+10	1	-1E+10	1	-1E+10	1	-1E+10	1	-1E+10	1	-1E+10	1
4901784	43	C	09/07/2016	10:48	-132.318	44.858	0	1580.30	0	2.3930	0	34.5320	0	27.574	0	1561.575	0	31.5	4	9.6	4	-1E+10	1	-1E+10	1	-1E+10	1	-1E+10	1	-1E+10	1	-1E+10	1
4901784	43	C	09/07/2016	10:48	-132.318	44.858	0	1585.70	0	2.3800	0	34.5330	0	27.576	0	1566.891	0	32.0	4	9.7	4	-1E+10	1	-1E+10	1	-1E+10	1	-1E+10	1	-1E+10	1	-1E+10	1
4901784	43	C	09/07/2016	10:48	-132.318	44.858	0	1590.20	0	2.3680	0	34.5350	0	27.578	0	1571.321	0	32.2	4	9.8	4	-1E+10	1	-1E+10	1	-1E+10	1	-1E+10	1	-1E+10	1	-1E+10	1
4901784	43	C	09/07/2016	10:48	-132.318	44.858	0	1595.00	0	2.3660	0	34.5350	0	27.578	0	1576.046	0	32.3	4	9.8	4	-1E+10	1	-1E+10	1	-1E+10	1	-1E+10	1	-1E+10	1	-1E+10	1
4901784	43	C	09/07/2016	10:48	-132.318	44.858	0	1600.10	0	2.3610	0	34.5360	0	27.580	0	1581.067	0	32.7	4	9.9	4	-1E+10	1	-1E+10	1	-1E+10	1	-1E+10	1	-1E+10	1	-1E+10	1
4901784	43	C	09/07/2016	10:48	-132.318	44.858	0	1604.90	0	2.3510	0	34.5370	0	27.581	0	1585.792	0	33.0	4	10.0	4	-1E+10	1	-1E+10	1	-1E+10	1	-1E+10	1	-1E+10	1	-1E+10	1
4901784	43	C	09/07/2016	10:48	-132.318	44.858	0	1609.80	0	2.3470	0	34.5370	0	27.582	0	1590.615	0	33.4	4	10.1	4	-1E+10	1	-1E+10	1	-1E+10	1	-1E+10	1	-1E+10	1	-1E+10	1
4901784	43	C	09/07/2016	10:48	-132.318	44.858	0	1614.70	0	2.3360	0	34.5390	0	27.584	0	1595.438	0	33.8	4	10.3	4	-1E+10	1	-1E+10	1	-1E+10	1	-1E+10	1	-1E+10	1	-1E+10	1
4901784	43	C	09/07/2016	10:48	-132.318	44.858	0	1619.60	0	2.3240	0	34.5410	0	27.587	0	1600.261	0	34.3	4	10.4	4	-1E+10	1	-1E+10	1	-1E+10	1	-1E+10	1	-1E+10	1	-1E+10	1
4901784	43	C	09/07/2016	10:48	-132.318	44.858	0	1624.60	0	2.3140	0	34.5420	0	27.588	0	1605.183	0	34.7	4	10.6	4	-1E+10	1	-1E+10	1	-1E+10	1	-1E+10	1	-1E+10	1	-1E+10	1
4901784	43	C	09/07/2016	10:48	-132.318	44.858	0	1629.70	0	2.3120	0	34.5440	0	27.590	0	1610.202	0	35.1	4	10.7	4	-1E+10	1	-1E+10	1	-1E+10	1	-1E+10	1	-1E+10	1	-1E+10	1
4901784	43	C	09/07/2016	10:48	-132.318	44.858	0	1634.80	0	2.3080	0	34.5450	0	27.591	0	1615.222	0	35.5	4	10.8	4	-1E+10	1	-1E+10	1	-1E+10	1	-1E+10	1	-1E+10	1	-1E+10	1
4901784	43	C	09/07/2016	10:48	-132.318	44.858	0	1639.90	0	2.3060	0	34.5460	0	27.592	0	1620.241	0	36.0	4	10.9	4	-1E+10	1	-1E+10	1	-1E+10	1	-1E+10	1	-1E+10	1	-1E+10	1
4901784	43	C	09/07/2016	10:48	-132.318	44.858	0	1645.10	0	2.2970	0	34.5480	0	27.595	0	1625.359	0	36.2	4	11.0	4	-1E+10	1	-1E+10	1	-1E+10	1	-1E+10	1	-1E+10	1	-1E+10	1
4901784	43	C	09/07/2016	10:48	-132.318	44.858	0	1650.30	0	2.2910	0	34.5480	0	27.595	0	1630.477	0	36.4	4	11.1	4	-1E+10	1	-1E+10	1	-1E+10	1	-1E+10	1	-1E+10	1	-1E+10	1
4901784	43	C	09/07/2016	10:48	-132.318	44.858	0	1655.60	0	2.2860	0	34.5480	0	27.596	0	1635.692	0	36.7	4	11.1	4	-1E+10	1	-1E+10	1	-1E+10	1	-1E+10	1	-1E+10	1	-1E+10	1
4901784	43	C	09/07/2016	10:48	-132.318	44.858	0	1660.00	0	2.2750	0	34.5490	0	27.597	0	1640.023	0	37.0	4	11.2	4	-1E+10	1	-1E+10	1	-1E+10	1	-1E+10	1	-1E+10	1	-1E+10	1
4901784	43	C	09/07/2016	10:48	-132.318	44.858	0	1664.50	0	2.2670	0	34.5510	0	27.600	0	1644.451	0	37.3	4	11.3	4	-1E+10	1	-1E+10	1	-1E+10	1	-1E+10	1	-1E+10	1	-1E+10	1
4901784	43	C	09/07/2016	10:48	-132.318	44.858	0	1669.80	0	2.2590	0	34.5510	0	27.600	0	1649.667	0	37.4	4	11.4	4	-1E+10	1	-1E+10	1	-1E+10	1	-1E+10	1	-1E+10	1	-1E+10	1
4901784	43	C	09/07/2016	10:48	-132.318	44.858	0	1675.20	0	2.2500	0	34.5520	0	27.602	0	1654.980	0	37.7	4	11.4	4	-1E+10	1	-1E+10	1	-1E+10	1	-1E+10	1	-1E+10	1	-1E+10	1
4901784	43	C	09/07/2016	10:48	-132.318	44.858	0	1680.60	0	2.2440	0	34.5540	0	27.604	0	1660.294	0	38.1	4	11.6	4	-1E+10	1	-1E+10	1	-1E+10	1	-1E+10	1	-1E+10	1	-1E+10	1
4901784	43	C	09/07/2016	10:48	-132.318	44.858	0	1685.10	0	2.2430	0	34.5540	0	27.604	0	1664.722	0	38.3	4	11.6	4	-1E+10	1	-1E+10	1	-1E+10	1	-1E+10	1	-1E+10	1	-1E+10	1
4901784	43	C	09/07/2016	10:48	-132.318	44.858	0	1689.60	0	2.2400	0	34.5540	0	27.604	0	1669.150	0	38.4	4	11.7	4	-1E+10	1	-1E+10	1	-1E+10	1	-1E+10	1	-1E+10	1	-1E+10	1
4901784	43	C	09/07/2016	10:48	-132.318	44.858	0	1695.00	0	2.2320	0	34.5560	0	27.607	0	1674.463	0	38.8	4	11.8	4	-1E+10	1	-1E+10	1	-1E+10	1	-1E+10	1	-1E+10	1	-1E+10	1
4901784	43	C	09/07/2016	10:48	-132.318	44.858	0	1700.50	0	2.2300	0	34.5560	0	27.607	0	1679.875	0	39.2	4	11.9	4	-1E+10	1	-1E+10	1	-1E+10	1	-1E+10	1	-1E+10	1	-1E+10	1
4901784	43	C	09/07/2016	10:48	-132.318	44.858	0	1705.00	0	2.2250	0	34.5570	0	27.608	0	1684.302	0	39.5	4	12.0	4	-1E+10	1	-1E+10	1	-1E+10	1	-1E+10	1	-1E+10	1	-1E+10	1
4901784	43	C	09/07/2016	10:48	-132.318	44.858	0	1709.80	0	2.2180	0	34.5580	0	27.609	0	1689.025	0	39.8	4	12.1	4	-1E+10	1	-1E+10	1	-1E+10	1	-1E+10	1	-1E+10	1	-1E+10	1
4901784	43	C	09/07/2016	10:48	-132.318	44.858	0	1715.00	0	2.2120	0	34.5590	0	27.611	0	1694.141	0	40.0	4	12.1	4	-1E+10	1	-1E+10	1	-1E+10	1	-1E+10	1	-1E+10	1	-1E+10	1
4901784	43	C	09/07/2016	10:48	-132.318	44.858	0	1719.80	0	2.2040	0	34.5590	0	27.611	0	1698.863	0	40.1	4	12.2	4	-1E+10	1	-1E+10	1	-1E+10	1	-1E+10	1	-1E+10	1	-1E+10	1
4901784	43	C	09/07/2016	10:48	-132.318	44.858	0	1724.60	0	2.1970	0	34.5600	0	27.613	0	1703.586	0	40.5	4	12.3	4	-1E+10	1	-1E+10	1	-1E+10	1	-1E+10	1	-1E+10	1	-1E+10	1
4901784	43	C	09/07/2016	10:48	-132.318	44.858	0	1729.60	0	2.1930	0	34.5610	0	27.614	0	1708.505	0	41.0	4	12.4	4	-1E+10	1	-1E+10	1	-1E+10	1	-1E+10	1	-1E+10	1	-1E+10	1
4901784	43	C	09/07/2016	10:48	-132.318	44.858	0	1734.60	0	2.1880	0	34.5620	0	27.615	0	1713.424	0	41.4	4	12.5	4	-1E+10	1	-1E+10	1	-1E+10	1	-1E+10	1	-1E+10	1	-1E+10	1
4901784	43	C	09/07/2016	10:48	-132.318	44.858	0	1739.60	0	2.1830	0	34.5630	0	27.616	0	1718.342	0	41.8	4	12.6	4	-1E+10	1	-1E+10	1	-1E+10	1	-1E+10	1	-1E+10	1	-1E+10	1
4901784	43	C	09/07/2016	10:48	-132.318	44.858	0	1744.60	0	2.1800	0	34.5630	0	27.617	0	1723.261	0	42.0	4	12.7	4	-1E+10	1	-1E+10	1	-1E+10	1	-1E+10	1	-1E+10	1	-1E+10	1
4901784	43	C	09/07/2016	10:48	-132.318	44.858	0	1749.60	0	2.1740	0	34.5640	0	27.618	0	1728.179	0	42.3	4	12.8	4	-1E+10	1	-1E+10	1	-1E+10	1	-1E+10	1	-1E+10	1	-1E+10	1
4901784	43	C	09/07/2016	10:48	-132.318	44.858	0	1754.60	0	2.1690	0	34.5650	0	27.619	0	1733.098	0	42.7	4	12.9	4	-1E+10	1	-1E+10	1	-1E+10	1	-1E+10	1	-1E+10	1	-1E+10	1
4901784	43	C	09/07/2016	10:48	-132.318	44.858	0	1759.70	0	2.1620	0	34.5660	0	27.621	0	1738.114	0	43.2	4	13.1	4	-1E+10	1	-1E+10	1	-1E+10	1	-1E+10	1	-1E+10	1	-1E+10	1
4901784	43	C	09/07/2016	10:48	-132.318	44.858	0	1764.90	0	2.1510	0	34.5680	0	27.623	0	1743.229	0	43.6	4	13.2	4	-1E+10	1	-1E+10	1	-1E+10	1	-1E+10	1	-1E+10	1	-1E+10	1
4901784	43	C	09/07/2016	10:48	-132.318	44.858	0	1770.10	0	2.1480	0	34.5680	0	27.623	0	1748.344	0	43.8	4	13.2	4	-1E+10	1	-1E+10	1	-1E+10	1	-1E+10	1	-1E+10	1	-1E+10	1
4901784	43	C	09/07/2016	10:48	-132.318	44.858	0	1775.40	0	2.1450	0	34.5690	0	27.624	0	1753.557	0	44.0	4	13.3	4	-1E+10	1	-1E+10	1	-1E+10	1	-1E+10	1	-1E+10	1	-1E+10	1
4901784	43	C	09/07/2016	10:48	-132.318	44.858	0	1780.60	0	2.1420	0	34.5690	0	27.625	0	1758.671	0	44.3	4	13.4	4	-1E+10	1	-1E+10	1	-1E+10	1	-1E+10	1	-1E+10	1	-1E+10	1
4901784	43	C	09/07/2016	10:48	-132.318	44.858	0	1785.10	0	2.1380	0	34.5700	0	27.626	0	1763.097	0	44.5	4	13.5	4	-1E+10	1	-1E+10	1	-1E+10	1	-1E+10	1	-1E+10	1	-1E+10	1
4901784	43	C	09/07/2016	10:48	-132.318	44.858	0	1789.50	0	2.1350	0	34.5700	0	27.626	0	1767.425	0	44.8	4	13.6	4	-1E+10	1	-1E+10	1	-1E+10	1	-1E+10	1	-1E+10	1	-1E+10	1
4901784	43	C	09/07/2016	10:48	-132.318	44.858	0	1794.80	0	2.1300	0	34.5710	0	27.627	0	1772.637	0	45.2	4	13.7	4	-1E+10	1	-1E+10	1	-1E+10	1	-1E+10	1	-1E+10	1	-1E+10	1
4901784	43	C	09/07/2016	10:48	-132.318	44.858	0	1800.20	0	2.1220	0	34.5720	0	27.629	0	1777.948	0	45.6	4	13.8	4	-1E+10	1	-1E+10	1	-1E+10	1	-1E+10	1	-1E+10	1	-1E+10	1
4901784	43	C	09/07/2016	10:48	-132.318	44.858	0	1805.70	0	2.1180	0	34.5730	0	27.630	0	1783.357	0	45.9	4	13.9	4	-1E+10	1	-1E+10	1	-1E+10	1	-1E+10	1	-1E+10	1	-1E+10	1
4901784	43	C	09/07/2016	10:48	-132.318	44.858	0	1810.20	0	2.1130	0	34.5740	0	27.631	0	1787.782	0	46.1	4	13.9	4	-1E+10	1	-1E+10	1	-1E+10	1	-1E+10	1	-1E+10	1	-1E+10	1
4901784	43	C	09/07/2016	10:48	-132.318	44.858	0	1814.80	0	2.1090	0	34.5740	0	27.631	0	1792.306	0	46.4	4	14.0	4	-1E+10	1	-1E+10	1	-1E+10	1	-1E+10	1	-1E+10	1	-1E+10	1
4901784	43	C	09/07/2016	10:48	-132.318	44.858	0	1820.30	0	2.1020	0	34.5750	0	27.633	0	1797.715	0	46.8	4	14.1	4	-1E+10	1	-1E+10	1	-1E+10	1	-1E+10	1	-1E+10	1	-1E+10	1
4901784	43	C	09/07/2016	10:48	-132.318	44.858	0	1824.90	0	2.0980	0	34.5760	0	27.634	0	1802.238	0	47.0	4	14.2	4	-1E+10	1	-1E+10	1	-1E+10	1	-1E+10	1	-1E+10	1	-1E+10	1
4901784	43	C	09/07/2016	10:48	-132.318	44.858	0	1829.50	0	2.0940	0	34.5760	0	27.634	0	1806.761	0	47.3	4	14.3	4	-1E+10	1	-1E+10	1	-1E+10	1	-1E+10	1	-1E+10	1	-1E+10	1
4901784	43	C	09/07/2016	10:48	-132.318	44.858	0	1835.00	0	2.0890	0	34.5770	0	27.636	0	1812.170	0	47.7	4	14.4	4	-1E+10	1	-1E+10	1	-1E+10	1	-1E+10	1	-1E+10	1	-1E+10	1
4901784	43	C	09/07/2016	10:48	-132.318	44.858	0	1840.60	0	2.0820	0	34.5780	0	27.637	0	1817.676	0	48.1	4	14.5	4	-1E+10	1	-1E+10	1	-1E+10	1	-1E+10	1	-1E+10	1	-1E+10	1
4901784	43	C	09/07/2016	10:48	-132.318	44.858	0	1845.20	0	2.0770	0	34.5790	0	27.638	0	1822.199	0	48.5	4	14.6	4	-1E+10	1	-1E+10	1	-1E+10	1	-1E+10	1	-1E+10	1	-1E+10	1
4901784	43	C	09/07/2016	10:48	-132.318	44.858	0	1849.90	0	2.0720	0	34.5800	0	27.639	0	1826.820	0	48.8	4	14.7	4	-1E+10	1	-1E+10	1	-1E+10	1	-1E+10	1	-1E+10	1	-1E+10	1
4901784	43	C	09/07/2016	10:48	-132.318	44.858	0	1855.50	0	2.0660	0	34.5800	0	27.640	0	1832.326	0	49.1	4	14.8	4	-1E+10	1	-1E+10	1	-1E+10	1	-1E+10	1	-1E+10	1	-1E+10	1
4901784	43	C	09/07/2016	10:48	-132.318	44.858	0	1860.20	0	2.0630	0	34.5810	0	27.641	0	1836.947	0	49.3	4	14.9	4	-1E+10	1	-1E+10	1	-1E+10	1	-1E+10	1	-1E+10	1	-1E+10	1
4901784	43	C	09/07/2016	10:48	-132.318	44.858	0	1864.90	0	2.0610	0	34.5810	0	27.641	0	1841.568	0	49.5	4	14.9	4	-1E+10	1	-1E+10	1	-1E+10	1	-1E+10	1	-1E+10	1	-1E+10	1
4901784	43	C	09/07/2016	10:48	-132.318	44.858	0	1870.50	0	2.0580	0	34.5820	0	27.642	0	1847.074	0	49.8	4	15.0	4	-1E+10	1	-1E+10	1	-1E+10	1	-1E+10	1	-1E+10	1	-1E+10	1
4901784	43	C	09/07/2016	10:48	-132.318	44.858	0	1875.20	0	2.0560	0	34.5820	0	27.642	0	1851.694	0	50.0	4	15.1	4	-1E+10	1	-1E+10	1	-1E+10	1	-1E+10	1	-1E+10	1	-1E+10	1
4901784	43	C	09/07/2016	10:48	-132.318	44.858	0	1880.00	0	2.0510	0	34.5830	0	27.644	0	1856.413	0	50.4	4	15.2	4	-1E+10	1	-1E+10	1	-1E+10	1	-1E+10	1	-1E+10	1	-1E+10	1
4901784	43	C	09/07/2016	10:48	-132.318	44.858	0	1885.60	0	2.0460	0	34.5840	0	27.645	0	1861.919	0	50.7	4	15.3	4	-1E+10	1	-1E+10	1	-1E+10	1	-1E+10	1	-1E+10	1	-1E+10	1
4901784	43	C	09/07/2016	10:48	-132.318	44.858	0	1890.80	0	2.0400	0	34.5850	0	27.646	0	1867.031	0	51.0	4	15.4	4	-1E+10	1	-1E+10	1	-1E+10	1	-1E+10	1	-1E+10	1	-1E+10	1
4901784	43	C	09/07/2016	10:48	-132.318	44.858	0	1895.10	0	2.0370	0	34.5850	0	27.646	0	1871.258	0	51.3	4	15.5	4	-1E+10	1	-1E+10	1	-1E+10	1	-1E+10	1	-1E+10	1	-1E+10	1
4901784	43	C	09/07/2016	10:48	-132.318	44.858	0	1900.00	0	2.0330	0	34.5860	0	27.648	0	1876.074	0	51.6	4	15.6	4	-1E+10	1	-1E+10	1	-1E+10	1	-1E+10	1	-1E+10	1	-1E+10	1
4901784	43	C	09/07/2016	10:48	-132.318	44.858	0	1904.90	0	2.0280	0	34.5870	0	27.649	0	1880.891	0	52.0	4	15.7	4	-1E+10	1	-1E+10	1	-1E+10	1	-1E+10	1	-1E+10	1	-1E+10	1
4901784	43	C	09/07/2016	10:48	-132.318	44.858	0	1909.90	0	2.0240	0	34.5880	0	27.650	0	1885.806	0	52.2	4	15.8	4	-1E+10	1	-1E+10	1	-1E+10	1	-1E+10	1	-1E+10	1	-1E+10	1
4901784	43	C	09/07/2016	10:48	-132.318	44.858	0	1914.90	0	2.0210	0	34.5880	0	27.650	0	1890.721	0	52.4	4	15.8	4	-1E+10	1	-1E+10	1	-1E+10	1	-1E+10	1	-1E+10	1	-1E+10	1
4901784	43	C	09/07/2016	10:48	-132.318	44.858	0	1919.90	0	2.0190	0	34.5890	0	27.651	0	1895.635	0	52.7	4	15.9	4	-1E+10	1	-1E+10	1	-1E+10	1	-1E+10	1	-1E+10	1	-1E+10	1
4901784	43	C	09/07/2016	10:48	-132.318	44.858	0	1925.00	0	2.0150	0	34.5890	0	27.651	0	1900.648	0	52.9	4	16.0	4	-1E+10	1	-1E+10	1	-1E+10	1	-1E+10	1	-1E+10	1	-1E+10	1
4901784	43	C	09/07/2016	10:48	-132.318	44.858	0	1930.10	0	2.0120	0	34.5900	0	27.653	0	1905.661	0	53.2	4	16.0	4	-1E+10	1	-1E+10	1	-1E+10	1	-1E+10	1	-1E+10	1	-1E+10	1
4901784	43	C	09/07/2016	10:48	-132.318	44.858	0	1935.10	0	2.0080	0	34.5900	0	27.653	0	1910.575	0	53.5	4	16.1	4	-1E+10	1	-1E+10	1	-1E+10	1	-1E+10	1	-1E+10	1	-1E+10	1
4901784	43	C	09/07/2016	10:48	-132.318	44.858	0	1940.20	0	2.0050	0	34.5910	0	27.654	0	1915.587	0	53.7	4	16.2	4	-1E+10	1	-1E+10	1	-1E+10	1	-1E+10	1	-1E+10	1	-1E+10	1
4901784	43	C	09/07/2016	10:48	-132.318	44.858	0	1945.30	0	2.0020	0	34.5910	0	27.654	0	1920.600	0	53.9	4	16.3	4	-1E+10	1	-1E+10	1	-1E+10	1	-1E+10	1	-1E+10	1	-1E+10	1
4901784	43	C	09/07/2016	10:48	-132.318	44.858	0	1950.50	0	1.9990	0	34.5920	0	27.655	0	1925.710	0	54.1	4	16.3	4	-1E+10	1	-1E+10	1	-1E+10	1	-1E+10	1	-1E+10	1	-1E+10	1
4901784	43	C	09/07/2016	10:48	-132.318	44.858	0	1955.50	0	1.9970	0	34.5920	0	27.655	0	1930.624	0	54.4	4	16.4	4	-1E+10	1	-1E+10	1	-1E+10	1	-1E+10	1	-1E+10	1	-1E+10	1
4901784	43	C	09/07/2016	10:48	-132.318	44.858	0	1960.70	0	1.9930	0	34.5930	0	27.657	0	1935.734	0	54.7	4	16.5	4	-1E+10	1	-1E+10	1	-1E+10	1	-1E+10	1	-1E+10	1	-1E+10	1
4901784	43	C	09/07/2016	10:48	-132.318	44.858	0	1965.00	0	1.9900	0	34.5940	0	27.658	0	1939.960	0	55.0	4	16.6	4	-1E+10	1	-1E+10	1	-1E+10	1	-1E+10	1	-1E+10	1	-1E+10	1
4901784	43	C	09/07/2016	10:48	-132.318	44.858	0	1969.30	0	1.9870	0	34.5940	0	27.658	0	1944.186	0	55.2	4	16.6	4	-1E+10	1	-1E+10	1	-1E+10	1	-1E+10	1	-1E+10	1	-1E+10	1
4901784	43	C	09/07/2016	10:48	-132.318	44.858	0	1974.50	0	1.9820	0	34.5950	0	27.659	0	1949.295	0	55.5	4	16.7	4	-1E+10	1	-1E+10	1	-1E+10	1	-1E+10	1	-1E+10	1	-1E+10	1
4901784	43	C	09/07/2016	10:48	-132.318	44.858	0	1979.70	0	1.9770	0	34.5950	0	27.660	0	1954.405	0	55.9	4	16.8	4	-1E+10	1	-1E+10	1	-1E+10	1	-1E+10	1	-1E+10	1	-1E+10	1
4901784	43	C	09/07/2016	10:48	-132.318	44.858	0	1984.90	0	1.9730	0	34.5960	0	27.661	0	1959.515	0	56.2	4	16.9	4	-1E+10	1	-1E+10	1	-1E+10	1	-1E+10	1	-1E+10	1	-1E+10	1
4901784	43	C	09/07/2016	10:48	-132.318	44.858	0	1990.10	0	1.9690	0	34.5960	0	27.661	0	1964.624	0	56.5	4	17.0	4	-1E+10	1	-1E+10	1	-1E+10	1	-1E+10	1	-1E+10	1	-1E+10	1
4901784	43	C	09/07/2016	10:48	-132.318	44.858	0	1995.20	0	1.9650	0	34.5970	0	27.662	0	1969.635	0	56.8	4	17.1	4	-1E+10	1	-1E+10	1	-1E+10	1	-1E+10	1	-1E+10	1	-1E+10	1
4901784	43	C	09/07/2016	10:48	-132.318	44.858	0	2000.40	0	1.9610	0	34.5980	0	27.663	0	1974.745	0	57.1	4	17.2	4	-1E+10	1	-1E+10	1	-1E+10	1	-1E+10	1	-1E+10	1	-1E+10	1
4901784	43	C	09/07/2016	10:48	-132.318	44.858	0	2005.50	0	1.9570	0	34.5990	0	27.664	0	1979.756	0	57.4	4	17.3	4	-1E+10	1	-1E+10	1	-1E+10	1	-1E+10	1	-1E+10	1	-1E+10	1
4901784	43	C	09/07/2016	10:48	-132.318	44.858	0	2010.50	0	1.9540	0	34.5990	0	27.665	0	1984.668	0	57.7	4	17.4	4	-1E+10	1	-1E+10	1	-1E+10	1	-1E+10	1	-1E+10	1	-1E+10	1
4901784	43	C	09/07/2016	10:48	-132.318	44.858	0	2014.80	0	1.9510	0	34.6000	0	27.666	0	1988.893	0	57.8	4	17.4	4	-1E+10	1	-1E+10	1	-1E+10	1	-1E+10	1	-1E+10	1	-1E+10	1
4901784	43	C	09/07/2016	10:48	-132.318	44.858	0	2020.00	0	1.9490	0	34.6000	0	27.666	0	1994.002	0	57.9	4	17.4	4	-1E+10	1	-1E+10	1	-1E+10	1	-1E+10	1	-1E+10	1	-1E+10	1
4901784	43	C	09/07/2016	10:48	-132.318	44.858	0																										
4901784	44	C	09/17/2016	10:42	-132.516	44.870	0	2.90	0	18.0970	0	32.7340	0	23.515	0	2.876	0	231.3	4	97.5	4	-1E+10	1	-1E+10	1	-1E+10	1	-1E+10	1	-1E+10	1	-1E+10	1
4901784	44	C	09/17/2016	10:42	-132.516	44.870	0	4.50	0	18.0970	0	32.7330	0	23.514	0	4.463	0	231.2	4	97.5	4	-1E+10	1	-1E+10	1	-1E+10	1	-1E+10	1	-1E+10	1	-1E+10	1
4901784	44	C	09/17/2016	10:42	-132.516	44.870	0	5.90	0	18.0970	0	32.7340	0	23.515	0	5.852	0	231.1	4	97.5	4	-1E+10	1	-1E+10	1	-1E+10	1	-1E+10	1	-1E+10	1	-1E+10	1
4901784	44	C	09/17/2016	10:42	-132.516	44.870	0	7.50	0	18.0980	0	32.7330	0	23.514	0	7.439	0	230.9	4	97.4	4	-1E+10	1	-1E+10	1	-1E+10	1	-1E+10	1	-1E+10	1	-1E+10	1
4901784	44	C	09/17/2016	10:42	-132.516	44.870	0	9.10	0	18.0970	0	32.7340	0	23.515	0	9.026	0	230.8	4	97.3	4	-1E+10	1	-1E+10	1	-1E+10	1	-1E+10	1	-1E+10	1	-1E+10	1
4901784	44	C	09/17/2016	10:42	-132.516	44.870	0	10.70	0	18.0980	0	32.7330	0	23.514	0	10.613	0	230.8	4	97.3	4	-1E+10	1	-1E+10	1	-1E+10	1	-1E+10	1	-1E+10	1	-1E+10	1
4901784	44	C	09/17/2016	10:42	-132.516	44.870	0	12.40	0	18.0980	0	32.7340	0	23.515	0	12.299	0	230.4	4	97.2	4	-1E+10	1	-1E+10	1	-1E+10	1	-1E+10	1	-1E+10	1	-1E+10	1
4901784	44	C	09/17/2016	10:42	-132.516	44.870	0	14.10	0	18.0980	0	32.7340	0	23.515	0	13.985	0	230.3	4	97.1	4	-1E+10	1	-1E+10	1	-1E+10	1	-1E+10	1	-1E+10	1	-1E+10	1
4901784	44	C	09/17/2016	10:42	-132.516	44.870	0	15.90	0	18.0990	0	32.7330	0	23.514	0	15.771	0	230.3	4	97.1	4	-1E+10	1	-1E+10	1	-1E+10	1	-1E+10	1	-1E+10	1	-1E+10	1
4901784	44	C	09/17/2016	10:42	-132.516	44.870	0	17.60	0	18.1000	0	32.7340	0	23.515	0	17.457	0	230.2	4	97.1	4	-1E+10	1	-1E+10	1	-1E+10	1	-1E+10	1	-1E+10	1	-1E+10	1
4901784	44	C	09/17/2016	10:42	-132.516	44.870	0	19.30	0	18.1000	0	32.7340	0	23.515	0	19.143	0	230.0	4	97.0	4	-1E+10	1	-1E+10	1	-1E+10	1	-1E+10	1	-1E+10	1	-1E+10	1
4901784	44	C	09/17/2016	10:42	-132.516	44.870	0	21.00	0	18.1000	0	32.7330	0	23.514	0	20.829	0	230.0	4	97.0	4	-1E+10	1	-1E+10	1	-1E+10	1	-1E+10	1	-1E+10	1	-1E+10	1
4901784	44	C	09/17/2016	10:42	-132.516	44.870	0	22.70	0	18.1030	0	32.7400	0	23.519	0	22.515	0	229.9	4	96.9	4	-1E+10	1	-1E+10	1	-1E+10	1	-1E+10	1	-1E+10	1	-1E+10	1
4901784	44	C	09/17/2016	10:42	-132.516	44.870	0	24.50	0	18.1260	0	32.7640	0	23.532	0	24.300	0	229.6	4	96.9	4	-1E+10	1	-1E+10	1	-1E+10	1	-1E+10	1	-1E+10	1	-1E+10	1
4901784	44	C	09/17/2016	10:42	-132.516	44.870	0	26.30	0	18.1590	0	32.7960	0	23.548	0	26.085	0	229.1	4	96.8	4	-1E+10	1	-1E+10	1	-1E+10	1	-1E+10	1	-1E+10	1	-1E+10	1
4901784	44	C	09/17/2016	10:42	-132.516	44.870	0	28.20	0	18.1660	0	32.8010	0	23.550	0	27.970	0	229.4	4	96.9	4	-1E+10	1	-1E+10	1	-1E+10	1	-1E+10	1	-1E+10	1	-1E+10	1
4901784	44	C	09/17/2016	10:42	-132.516	44.870	0	30.00	0	18.1690	0	32.8040	0	23.552	0	29.755	0	229.5	4	96.9	4	-1E+10	1	-1E+10	1	-1E+10	1	-1E+10	1	-1E+10	1	-1E+10	1
4901784	44	C	09/17/2016	10:42	-132.516	44.870	0	31.70	0	18.1700	0	32.8040	0	23.552	0	31.441	0	230.0	4	97.2	4	-1E+10	1	-1E+10	1	-1E+10	1	-1E+10	1	-1E+10	1	-1E+10	1
4901784	44	C	09/17/2016	10:42	-132.516	44.870	0	33.40	0	18.1650	0	32.8050	0	23.554	0	33.127	0	230.8	4	97.5	4	-1E+10	1	-1E+10	1	-1E+10	1	-1E+10	1	-1E+10	1	-1E+10	1
4901784	44	C	09/17/2016	10:42	-132.516	44.870	0	35.10	0	18.1240	0	32.8010	0	23.561	0	34.813	0	232.3	4	98.0	4	-1E+10	1	-1E+10	1	-1E+10	1	-1E+10	1	-1E+10	1	-1E+10	1
4901784	44	C	09/17/2016	10:42	-132.516	44.870	0	36.80	0	18.0500	0	32.7890	0	23.570	0	36.498	0	234.4	4	98.8	4	-1E+10	1	-1E+10	1	-1E+10	1	-1E+10	1	-1E+10	1	-1E+10	1
4901784	44	C	09/17/2016	10:42	-132.516	44.870	0	39.00	0	17.6100	0	32.7920	0	23.678	0	38.680	0	238.9	4	99.9	4	-1E+10	1	-1E+10	1	-1E+10	1	-1E+10	1	-1E+10	1	-1E+10	1
4901784	44	C	09/17/2016	10:42	-132.516	44.870	0	40.70	0	17.1490	0	32.8320	0	23.818	0	40.366	0	244.4	4	101.3	4	-1E+10	1	-1E+10	1	-1E+10	1	-1E+10	1	-1E+10	1	-1E+10	1
4901784	44	C	09/17/2016	10:42	-132.516	44.870	0	42.30	0	16.4130	0	32.8370	0	23.993	0	41.953	0	249.4	4	101.9	4	-1E+10	1	-1E+10	1	-1E+10	1	-1E+10	1	-1E+10	1	-1E+10	1
4901784	44	C	09/17/2016	10:42	-132.516	44.870	0	43.90	0	15.6650	0	32.8180	0	24.147	0	43.540	0	254.8	4	102.6	4	-1E+10	1	-1E+10	1	-1E+10	1	-1E+10	1	-1E+10	1	-1E+10	1
4901784	44	C	09/17/2016	10:42	-132.516	44.870	0	45.40	0	15.0220	0	32.8260	0	24.294	0	45.027	0	259.5	4	103.2	4	-1E+10	1	-1E+10	1	-1E+10	1	-1E+10	1	-1E+10	1	-1E+10	1
4901784	44	C	09/17/2016	10:42	-132.516	44.870	0	47.10	0	14.9550	0	32.8160	0	24.301	0	46.713	0	261.2	4	103.8	4	-1E+10	1	-1E+10	1	-1E+10	1	-1E+10	1	-1E+10	1	-1E+10	1
4901784	44	C	09/17/2016	10:42	-132.516	44.870	0	48.90	0	14.3610	0	32.8260	0	24.435	0	48.498	0	265.0	4	104.0	4	-1E+10	1	-1E+10	1	-1E+10	1	-1E+10	1	-1E+10	1	-1E+10	1
4901784	44	C	09/17/2016	10:42	-132.516	44.870	0	50.50	0	13.7390	0	32.8330	0	24.569	0	50.085	0	269.0	4	104.3	4	-1E+10	1	-1E+10	1	-1E+10	1	-1E+10	1	-1E+10	1	-1E+10	1
4901784	44	C	09/17/2016	10:42	-132.516	44.870	0	52.10	0	13.5240	0	32.8370	0	24.615	0	51.671	0	270.4	4	104.4	4	-1E+10	1	-1E+10	1	-1E+10	1	-1E+10	1	-1E+10	1	-1E+10	1
4901784	44	C	09/17/2016	10:42	-132.516	44.870	0	53.90	0	13.1780	0	32.8460	0	24.691	0	53.456	0	270.5	4	103.7	4	-1E+10	1	-1E+10	1	-1E+10	1	-1E+10	1	-1E+10	1	-1E+10	1
4901784	44	C	09/17/2016	10:42	-132.516	44.870	0	55.80	0	12.6970	0	32.8600	0	24.797	0	55.340	0	270.6	4	102.7	4	-1E+10	1	-1E+10	1	-1E+10	1	-1E+10	1	-1E+10	1	-1E+10	1
4901784	44	C	09/17/2016	10:42	-132.516	44.870	0	57.60	0	12.3390	0	32.8370	0	24.848	0	57.125	0	272.8	4	102.8	4	-1E+10	1	-1E+10	1	-1E+10	1	-1E+10	1	-1E+10	1	-1E+10	1
4901784	44	C	09/17/2016	10:42	-132.516	44.870	0	59.90	0	12.1470	0	32.8460	0	24.891	0	59.406	0	270.8	4	101.6	4	-1E+10	1	-1E+10	1	-1E+10	1	-1E+10	1	-1E+10	1	-1E+10	1
4901784	44	C	09/17/2016	10:42	-132.516	44.870	0	61.80	0	11.9290	0	32.8430	0	24.929	0	61.290	0	269.4	4	100.6	4	-1E+10	1	-1E+10	1	-1E+10	1	-1E+10	1	-1E+10	1	-1E+10	1
4901784	44	C	09/17/2016	10:42	-132.516	44.870	0	63.40	0	11.6930	0	32.8480	0	24.977	0	62.876	0	268.4	4	99.8	4	-1E+10	1	-1E+10	1	-1E+10	1	-1E+10	1	-1E+10	1	-1E+10	1
4901784	44	C	09/17/2016	10:42	-132.516	44.870	0	64.90	0	11.5280	0	32.8510	0	25.010	0	64.364	0	264.9	4	98.1	4	-1E+10	1	-1E+10	1	-1E+10	1	-1E+10	1	-1E+10	1	-1E+10	1
4901784	44	C	09/17/2016	10:42	-132.516	44.870	0	66.50	0	11.1030	0	32.8630	0	25.095	0	65.950	0	263.3	4	96.7	4	-1E+10	1	-1E+10	1	-1E+10	1	-1E+10	1	-1E+10	1	-1E+10	1
4901784	44	C	09/17/2016	10:42	-132.516	44.870	0	68.00	0	10.9780	0	32.8470	0	25.105	0	67.438	0	261.8	4	95.9	4	-1E+10	1	-1E+10	1	-1E+10	1	-1E+10	1	-1E+10	1	-1E+10	1
4901784	44	C	09/17/2016	10:42	-132.516	44.870	0	69.60	0	10.7200	0	32.8390	0	25.144	0	69.024	0	260.6	4	94.9	4	-1E+10	1	-1E+10	1	-1E+10	1	-1E+10	1	-1E+10	1	-1E+10	1
4901784	44	C	09/17/2016	10:42	-132.516	44.870	0	71.30	0	10.6150	0	32.8230	0	25.150	0	70.710	0	259.7	4	94.3	4	-1E+10	1	-1E+10	1	-1E+10	1	-1E+10	1	-1E+10	1	-1E+10	1
4901784	44	C	09/17/2016	10:42	-132.516	44.870	0	72.90	0	10.4010	0	32.8220	0	25.186	0	72.296	0	258.8	4	93.6	4	-1E+10	1	-1E+10	1	-1E+10	1	-1E+10	1	-1E+10	1	-1E+10	1
4901784	44	C	09/17/2016	10:42	-132.516	44.870	0	74.70	0	10.3290	0	32.8320	0	25.206	0	74.081	0	258.4	4	93.3	4	-1E+10	1	-1E+10	1	-1E+10	1	-1E+10	1	-1E+10	1	-1E+10	1
4901784	44	C	09/17/2016	10:42	-132.516	44.870	0	76.40	0	10.2140	0	32.8440	0	25.235	0	75.767	0	257.2	4	92.6	4	-1E+10	1	-1E+10	1	-1E+10	1	-1E+10	1	-1E+10	1	-1E+10	1
4901784	44	C	09/17/2016	10:42	-132.516	44.870	0	78.20	0	10.1400	0	32.8540	0	25.255	0	77.551	0	256.7	4	92.3	4	-1E+10	1	-1E+10	1	-1E+10	1	-1E+10	1	-1E+10	1	-1E+10	1
4901784	44	C	09/17/2016	10:42	-132.516	44.870	0	80.30	0	10.0720	0	32.8610	0	25.272	0	79.634	0	255.5	4	91.8	4	-1E+10	1	-1E+10	1	-1E+10	1	-1E+10	1	-1E+10	1	-1E+10	1
4901784	44	C	09/17/2016	10:42	-132.516	44.870	0	80.70	0	10.0360	0	32.8600	0	25.277	0	80.030	0	255.5	4	91.7	4	-1E+10	1	-1E+10	1	-1E+10	1	-1E+10	1	-1E+10	1	-1E+10	1
4901784	44	C	09/17/2016	10:42	-132.516	44.870	0	82.30	0	10.0110	0	32.8640	0	25.284	0	81.617	0	254.8	4	91.4	4	-1E+10	1	-1E+10	1	-1E+10	1	-1E+10	1	-1E+10	1	-1E+10	1
4901784	44	C	09/17/2016	10:42	-132.516	44.870	0	83.80	0	10.0510	0	32.8770	0	25.288	0	83.104	0	253.8	4	91.1	4	-1E+10	1	-1E+10	1	-1E+10	1	-1E+10	1	-1E+10	1	-1E+10	1
4901784	44	C	09/17/2016	10:42	-132.516	44.870	0	85.30	0	9.9860	0	32.8730	0	25.296	0	84.591	0	253.5	4	90.9	4	-1E+10	1	-1E+10	1	-1E+10	1	-1E+10	1	-1E+10	1	-1E+10	1
4901784	44	C	09/17/2016	10:42	-132.516	44.870	0	86.80	0	9.9070	0	32.8780	0	25.313	0	86.078	0	254.1	4	91.0	4	-1E+10	1	-1E+10	1	-1E+10	1	-1E+10	1	-1E+10	1	-1E+10	1
4901784	44	C	09/17/2016	10:42	-132.516	44.870	0	88.40	0	9.8480	0	32.8790	0	25.323	0	87.665	0	255.2	4	91.2	4	-1E+10	1	-1E+10	1	-1E+10	1	-1E+10	1	-1E+10	1	-1E+10	1
4901784	44	C	09/17/2016	10:42	-132.516	44.870	0	89.80	0	9.8450	0	32.9080	0	25.346	0	89.053	0	254.7	4	91.1	4	-1E+10	1	-1E+10	1	-1E+10	1	-1E+10	1	-1E+10	1	-1E+10	1
4901784	44	C	09/17/2016	10:42	-132.516	44.870	0	91.40	0	9.8560	0	32.9130	0	25.349	0	90.639	0	253.6	4	90.7	4	-1E+10	1	-1E+10	1	-1E+10	1	-1E+10	1	-1E+10	1	-1E+10	1
4901784	44	C	09/17/2016	10:42	-132.516	44.870	0	93.00	0	9.7580	0	32.9060	0	25.359	0	92.225	0	251.8	4	89.9	4	-1E+10	1	-1E+10	1	-1E+10	1	-1E+10	1	-1E+10	1	-1E+10	1
4901784	44	C	09/17/2016	10:42	-132.516	44.870	0	94.60	0	9.7460	0	32.9150	0	25.368	0	93.812	0	250.0	4	89.2	4	-1E+10	1	-1E+10	1	-1E+10	1	-1E+10	1	-1E+10	1	-1E+10	1
4901784	44	C	09/17/2016	10:42	-132.516	44.870	0	96.10	0	9.6760	0	32.9220	0	25.385	0	95.299	0	247.0	4	88.0	4	-1E+10	1	-1E+10	1	-1E+10	1	-1E+10	1	-1E+10	1	-1E+10	1
4901784	44	C	09/17/2016	10:42	-132.516	44.870	0	97.70	0	9.6620	0	32.9210	0	25.387	0	96.885	0	243.1	4	86.6	4	-1E+10	1	-1E+10	1	-1E+10	1	-1E+10	1	-1E+10	1	-1E+10	1
4901784	44	C	09/17/2016	10:42	-132.516	44.870	0	99.30	0	9.6490	0	32.9250	0	25.392	0	98.471	0	238.9	4	85.1	4	-1E+10	1	-1E+10	1	-1E+10	1	-1E+10	1	-1E+10	1	-1E+10	1
4901784	44	C	09/17/2016	10:42	-132.516	44.870	0	102.50	0	9.5720	0	32.9810	0	25.448	0	101.644	0	233.8	4	83.2	4	-1E+10	1	-1E+10	1	-1E+10	1	-1E+10	1	-1E+10	1	-1E+10	1
4901784	44	C	09/17/2016	10:42	-132.516	44.870	0	105.00	0	9.5370	0	33.0020	0	25.470	0	104.122	0	230.6	4	82.0	4	-1E+10	1	-1E+10	1	-1E+10	1	-1E+10	1	-1E+10	1	-1E+10	1
4901784	44	C	09/17/2016	10:42	-132.516	44.870	0	107.60	0	9.4900	0	33.0550	0	25.520	0	106.700	0	227.2	4	80.7	4	-1E+10	1	-1E+10	1	-1E+10	1	-1E+10	1	-1E+10	1	-1E+10	1
4901784	44	C	09/17/2016	10:42	-132.516	44.870	0	110.20	0	9.4600	0	33.0870	0	25.549	0	109.278	0	224.5	4	79.7	4	-1E+10	1	-1E+10	1	-1E+10	1	-1E+10	1	-1E+10	1	-1E+10	1
4901784	44	C	09/17/2016	10:42	-132.516	44.870	0	112.90	0	9.4310	0	33.1140	0	25.575	0	111.954	0	221.5	4	78.6	4	-1E+10	1	-1E+10	1	-1E+10	1	-1E+10	1	-1E+10	1	-1E+10	1
4901784	44	C	09/17/2016	10:42	-132.516	44.870	0	114.70	0	9.4040	0	33.1440	0	25.603	0	113.739	0	219.0	4	77.7	4	-1E+10	1	-1E+10	1	-1E+10	1	-1E+10	1	-1E+10	1	-1E+10	1
4901784	44	C	09/17/2016	10:42	-132.516	44.870	0	117.30	0	9.3500	0	33.1830	0	25.642	0	116.316	0	215.6	4	76.4	4	-1E+10	1	-1E+10	1	-1E+10	1	-1E+10	1	-1E+10	1	-1E+10	1
4901784	44	C	09/17/2016	10:42	-132.516	44.870	0	120.10	0	9.2840	0	33.2620	0	25.715	0	119.092	0	212.4	4	75.2	4	-1E+10	1	-1E+10	1	-1E+10	1	-1E+10	1	-1E+10	1	-1E+10	1
4901784	44	C	09/17/2016	10:42	-132.516	44.870	0	122.80	0	9.2500	0	33.2930	0	25.744	0	121.768	0	210.6	4	74.5	4	-1E+10	1	-1E+10	1	-1E+10	1	-1E+10	1	-1E+10	1	-1E+10	1
4901784	44	C	09/17/2016	10:42	-132.516	44.870	0	125.50	0	9.2350	0	33.3060	0	25.757	0	124.445	0	208.8	4	73.9	4	-1E+10	1	-1E+10	1	-1E+10	1	-1E+10	1	-1E+10	1	-1E+10	1
4901784	44	C	09/17/2016	10:42	-132.516	44.870	0	127.40	0	9.2090	0	33.3300	0	25.780	0	126.328	0	207.4	4	73.4	4	-1E+10	1	-1E+10	1	-1E+10	1	-1E+10	1	-1E+10	1	-1E+10	1
4901784	44	C	09/17/2016	10:42	-132.516	44.870	0	130.20	0	9.1890	0	33.3440	0	25.794	0	129.104	0	205.1	4	72.5	4	-1E+10	1	-1E+10	1	-1E+10	1	-1E+10	1	-1E+10	1	-1E+10	1
4901784	44	C	09/17/2016	10:42	-132.516	44.870	0	133.00	0	9.1530	0	33.3680	0	25.819	0	131.879	0	202.3	4	71.5	4	-1E+10	1	-1E+10	1	-1E+10	1	-1E+10	1	-1E+10	1	-1E+10	1
4901784	44	C	09/17/2016	10:42	-132.516	44.870	0	134.80	0	9.1370	0	33.3750	0	25.827	0	133.664	0	199.9	4	70.6	4	-1E+10	1	-1E+10	1	-1E+10	1	-1E+10	1	-1E+10	1	-1E+10	1
4901784	44	C	09/17/2016	10:42	-132.516	44.870	0	137.40	0	9.0050	0	33.4660	0	25.919	0	136.241	0	196.6	4	69.3	4	-1E+10	1	-1E+10	1	-1E+10	1	-1E+10	1	-1E+10	1	-1E+10	1
4901784	44	C	09/17/2016	10:42	-132.516	44.870	0	140.10	0	8.9000	0	33.5280	0	25.984	0	138.917	0	194.4	4	68.4	4	-1E+10	1	-1E+10	1	-1E+10	1	-1E+10	1	-1E+10	1	-1E+10	1
4901784	44	C	09/17/2016	10:42	-132.516	44.870	0	142.30	0	8.8350	0	33.5630	0	26.021	0	141.098	0	193.0	4	67.8	4	-1E+10	1	-1E+10	1	-1E+10	1	-1E+10	1	-1E+10	1	-1E+10	1
4901784	44	C	09/17/2016	10:42	-132.516	44.870	0	145.00	0	8.7390	0	33.6160	0	26.078	0	143.774	0	191.9	4	67.3	4	-1E+10	1	-1E+10	1	-1E+10	1	-1E+10	1	-1E+10	1	-1E+10	1
4901784	44	C	09/17/2016	10:42	-132.516	44.870	0	147.30	0	8.7120	0	33.6290	0	26.092	0	146.054	0	191.2	4	67.0	4	-1E+10	1	-1E+10	1	-1E+10	1	-1E+10	1	-1E+10	1	-1E+10	1
4901784	44	C	09/17/2016	10:42	-132.516	44.870	0	149.60	0	8.6990	0	33.6350	0	26.099	0	148.334	0	190.1	4	66.6	4	-1E+10	1	-1E+10	1	-1E+10	1	-1E+10	1	-1E+10	1	-1E+10	1
4901784	44	C	09/17/2016	10:42	-132.516	44.870	0	152.70	0	8.6440	0	33.6690	0	26.134	0	151.406	0	188.2	4	65.9	4	-1E+10	1	-1E+10	1	-1E+10	1	-1E+10	1	-1E+10	1	-1E+10	1
4901784	44	C	09/17/2016	10:42	-132.516	44.870	0	155.00	0	8.5920	0	33.7050	0	26.170	0	153.686	0	186.8	4	65.4	4	-1E+10	1	-1E+10	1	-1E+10	1	-1E+10	1	-1E+10	1	-1E+10	1
4901784	44	C	09/17/2016	10:42	-132.516	44.870	0	157.40	0	8.5410	0	33.7350	0	26.202	0	156.065	0	185.8	4	65.0	4	-1E+10	1	-1E+10	1	-1E+10	1	-1E+10	1	-1E+10	1	-1E+10	1
4901784	44	C	09/17/2016	10:42	-132.516	44.870	0	159.80	0	8.5130	0	33.7510	0	26.219	0	158.443	0	184.5	4	64.5	4	-1E+10	1	-1E+10	1	-1E+10	1	-1E+10	1	-1E+10	1	-1E+10	1
4901784	44	C	09/17/2016	10:42	-132.516	44.870	0	162.20	0	8.4710	0	33.7730	0	26.242	0	160.822	0	182.9	4	63.8	4	-1E+10	1	-1E+10	1	-1E+10	1	-1E+10	1	-1E+10	1	-1E+10	1
4901784	44	C	09/17/2016	10:42	-132.516	44.870	0	164.70	0	8.4170	0	33.7980	0	26.270	0	163.300	0	181.3	4	63.2	4	-1E+10	1	-1E+10	1	-1E+10	1	-1E+10	1	-1E+10	1	-1E+10	1
4901784	44	C	09/17/2016	10:42	-132.516	44.870	0	167.20	0	8.3530	0	33.8210	0	26.298	0	165.778	0	179.7	4	62.6	4	-1E+10	1	-1E+10	1	-1E+10	1	-1E+10	1	-1E+10	1	-1E+10	1
4901784	44	C	09/17/2016	10:42	-132.516	44.870	0	169.70	0	8.2920	0	33.8430	0	26.324	0	168.255	0	178.2	4	62.0	4	-1E+10	1	-1E+10	1	-1E+10	1	-1E+10	1	-1E+10	1	-1E+10	1
4901784	44	C	09/17/2016	10:42	-132.516	44.870	0	172.30	0	8.2630	0	33.8510	0	26.335	0	170.832	0	176.8	4	61.5	4	-1E+10	1	-1E+10	1	-1E+10	1	-1E+10	1	-1E+10	1	-1E+10	1
4901784	44	C	09/17/2016	10:42	-132.516	44.870	0	174.80	0	8.1940	0	33.8620	0	26.354	0	173.310	0	175.8	4	61.0	4	-1E+10	1	-1E+10	1	-1E+10	1	-1E+10	1	-1E+10	1	-1E+10	1
4901784	44	C	09/17/2016	10:42	-132.516	44.870	0	177.40	0	8.1240	0	33.8730	0	26.373	0	175.886	0	175.3	4	60.8	4	-1E+10	1	-1E+10	1	-1E+10	1	-1E+10	1	-1E+10	1	-1E+10	1
4901784	44	C	09/17/2016	10:42	-132.516	44.870	0	180.00	0	8.0930	0	33.8780	0	26.382	0	178.463	0	174.5	4	60.5	4	-1E+10	1	-1E+10	1	-1E+10	1	-1E+10	1	-1E+10	1	-1E+10	1
4901784	44	C	09/17/2016	10:42	-132.516	44.870	0	182.60	0	8.0730	0	33.8800	0	26.386	0	181.040	0	173.9	4	60.2	4	-1E+10	1	-1E+10	1	-1E+10	1	-1E+10	1	-1E+10	1	-1E+10	1
4901784	44	C	09/17/2016	10:42	-132.516	44.870	0	185.20	0	8.0370	0	33.8810	0	26.393	0	183.616	0	173.1	4	59.9	4	-1E+10	1	-1E+10	1	-1E+10	1	-1E+10	1	-1E+10	1	-1E+10	1
4901784	44	C	09/17/2016	10:42	-132.516	44.870	0	187.00	0	8.0260	0	33.8840	0	26.397	0	185.400	0	172.4	4	59.6	4	-1E+10	1	-1E+10	1	-1E+10	1	-1E+10	1	-1E+10	1	-1E+10	1
4901784	44	C	09/17/2016	10:42	-132.516	44.870	0	189.70	0	7.9750	0	33.8870	0	26.406	0	188.076	0	171.1	4	59.1	4	-1E+10	1	-1E+10	1	-1E+10	1	-1E+10	1	-1E+10	1	-1E+10	1
4901784	44	C	09/17/2016	10:42	-132.516	44.870	0	193.00	0	7.8300	0	33.8960	0	26.435	0	191.346	0	169.1	4	58.2	4	-1E+10	1	-1E+10	1	-1E+10	1	-1E+10	1	-1E+10	1	-1E+10	1
4901784	44	C	09/17/2016	10:42	-132.516	44.870	0	194.90	0	7.7860	0	33.8970	0	26.442	0	193.229	0	168.3	4	57.9	4	-1E+10	1	-1E+10	1	-1E+10	1	-1E+10	1	-1E+10	1	-1E+10	1
4901784	44	C	09/17/2016	10:42	-132.516	44.870	0	197.20	0	7.7150	0	33.9000	0	26.455	0	195.508	0	167.3	4	57.5	4	-1E+10	1	-1E+10	1	-1E+10	1	-1E+10	1	-1E+10	1	-1E+10	1
4901784	44	C	09/17/2016	10:42	-132.516	44.870	0	200.40	0	7.6330	0	33.9060	0	26.471	0	198.679	0	166.0	4	56.9	4	-1E+10	1	-1E+10	1	-1E+10	1	-1E+10	1	-1E+10	1	-1E+10	1
4901784	44	C	09/17/2016	10:42	-132.516	44.870	0	202.80	0	7.6260	0	33.9120	0	26.477	0	201.057	0	165.0	4	56.6	4	-1E+10	1	-1E+10	1	-1E+10	1	-1E+10	1	-1E+10	1	-1E+10	1
4901784	44	C	09/17/2016	10:42	-132.516	44.870	0	205.30	0	7.5900	0	33.9160	0	26.485	0	203.535	0	163.9	4	56.2	4	-1E+10	1	-1E+10	1	-1E+10	1	-1E+10	1	-1E+10	1	-1E+10	1
4901784	44	C	09/17/2016	10:42	-132.516	44.870	0	207.80	0	7.5230	0	33.9170	0	26.496	0	206.012	0	163.1	4	55.8	4	-1E+10	1	-1E+10	1	-1E+10	1	-1E+10	1	-1E+10	1	-1E+10	1
4901784	44	C	09/17/2016	10:42	-132.516	44.870	0	210.40	0	7.5070	0	33.9170	0	26.498	0	208.588	0	162.4	4	55.5	4	-1E+10	1	-1E+10	1	-1E+10	1	-1E+10	1	-1E+10	1	-1E+10	1
4901784	44	C	09/17/2016	10:42	-132.516	44.870	0	212.90	0	7.4920	0	33.9150	0	26.499	0	211.066	0	161.5	4	55.2	4	-1E+10	1	-1E+10	1	-1E+10	1	-1E+10	1	-1E+10	1	-1E+10	1
4901784	44	C	09/17/2016	10:42	-132.516	44.870	0	214.60	0	7.4620	0	33.9150	0	26.503	0	212.750	0	160.6	4	54.9	4	-1E+10	1	-1E+10	1	-1E+10	1	-1E+10	1	-1E+10	1	-1E+10	1
4901784	44	C	09/17/2016	10:42	-132.516	44.870	0	217.20	0	7.3970	0	33.9140	0	26.511	0	215.326	0	159.6	4	54.4	4	-1E+10	1	-1E+10	1	-1E+10	1	-1E+10	1	-1E+10	1	-1E+10	1
4901784	44	C	09/17/2016	10:42	-132.516	44.870	0	219.70	0	7.3500	0	33.9130	0	26.517	0	217.803	0	158.7	4	54.1	4	-1E+10	1	-1E+10	1	-1E+10	1	-1E+10	1	-1E+10	1	-1E+10	1
4901784	44	C	09/17/2016	10:42	-132.516	44.870	0	222.40	0	7.3320	0	33.9150	0	26.521	0	220.479	0	157.5	4	53.7	4	-1E+10	1	-1E+10	1	-1E+10	1	-1E+10	1	-1E+10	1	-1E+10	1
4901784	44	C	09/17/2016	10:42	-132.516	44.870	0	224.90	0	7.2970	0	33.9140	0	26.525	0	222.956	0	156.2	4	53.2	4	-1E+10	1	-1E+10	1	-1E+10	1	-1E+10	1	-1E+10	1	-1E+10	1
4901784	44	C	09/17/2016	10:42	-132.516	44.870	0	227.40	0	7.2350	0	33.9160	0	26.536	0	225.433	0	155.0	4	52.7	4	-1E+10	1	-1E+10	1	-1E+10	1	-1E+10	1	-1E+10	1	-1E+10	1
4901784	44	C	09/17/2016	10:42	-132.516	44.870	0	230.00	0	7.2160	0	33.9170	0	26.539	0	228.009	0	154.1	4	52.4	4	-1E+10	1	-1E+10	1	-1E+10	1	-1E+10	1	-1E+10	1	-1E+10	1
4901784	44	C	09/17/2016	10:42	-132.516	44.870	0	232.50	0	7.1900	0	33.9170	0	26.543	0	230.486	0	153.3	4	52.1	4	-1E+10	1	-1E+10	1	-1E+10	1	-1E+10	1	-1E+10	1	-1E+10	1
4901784	44	C	09/17/2016	10:42	-132.516	44.870	0	235.00	0	7.1270	0	33.9120	0	26.547	0	232.963	0	152.8	4	51.8	4	-1E+10	1	-1E+10	1	-1E+10	1	-1E+10	1	-1E+10	1	-1E+10	1
4901784	44	C	09/17/2016	10:42	-132.516	44.870	0	237.60	0	7.1010	0	33.9110	0	26.550	0	235.539	0	151.8	4	51.4	4	-1E+10	1	-1E+10	1	-1E+10	1	-1E+10	1	-1E+10	1	-1E+10	1
4901784	44	C	09/17/2016	10:42	-132.516	44.870	0	240.10	0	7.0490	0	33.9120	0	26.558	0	238.016	0	150.6	4	51.0	4	-1E+10	1	-1E+10	1	-1E+10	1	-1E+10	1	-1E+10	1	-1E+10	1
4901784	44	C	09/17/2016	10:42	-132.516	44.870	0	242.70	0	7.0320	0	33.9110	0	26.560	0	240.591	0	149.7	4	50.6	4	-1E+10	1	-1E+10	1	-1E+10	1	-1E+10	1	-1E+10	1	-1E+10	1
4901784	44	C	09/17/2016	10:42	-132.516	44.870	0	245.30	0	7.0110	0	33.9120	0	26.564	0	243.167	0	148.5	4	50.2	4	-1E+10	1	-1E+10	1	-1E+10	1	-1E+10	1	-1E+10	1	-1E+10	1
4901784	44	C	09/17/2016	10:42	-132.516	44.870	0	247.00	0	6.9450	0	33.9140	0	26.574	0	244.852	0	147.7	4	49.9	4	-1E+10	1	-1E+10	1	-1E+10	1	-1E+10	1	-1E+10	1	-1E+10	1
4901784	44	C	09/17/2016	10:42	-132.516	44.870	0	249.60	0	6.9350	0	33.9150	0	26.576	0	247.427	0	147.2	4	49.7	4	-1E+10	1	-1E+10	1	-1E+10	1	-1E+10	1	-1E+10	1	-1E+10	1
4901784	44	C	09/17/2016	10:42	-132.516	44.870	0	252.20	0	6.9290	0	33.9150	0	26.577	0	250.003	0	146.5	4	49.4	4	-1E+10	1	-1E+10	1	-1E+10	1	-1E+10	1	-1E+10	1	-1E+10	1
4901784	44	C	09/17/2016	10:42	-132.516	44.870	0	254.70	0	6.9260	0	33.9150	0	26.578	0	252.480	0	145.3	4	49.0	4	-1E+10	1	-1E+10	1	-1E+10	1	-1E+10	1	-1E+10	1	-1E+10	1
4901784	44	C	09/17/2016	10:42	-132.516	44.870	0	257.30	0	6.8920	0	33.9160	0	26.583	0	255.056	0	143.8	4	48.5	4	-1E+10	1	-1E+10	1	-1E+10	1	-1E+10	1	-1E+10	1	-1E+10	1
4901784	44	C	09/17/2016	10:42	-132.516	44.870	0	259.90	0	6.8370	0	33.9170	0	26.591	0	257.631	0	142.7	4	48.1	4	-1E+10	1	-1E+10	1	-1E+10	1	-1E+10	1	-1E+10	1	-1E+10	1
4901784	44	C	09/17/2016	10:42	-132.516	44.870	0	262.40	0	6.8040	0	33.9150	0	26.594	0	260.108	0	141.6	4	47.7	4	-1E+10	1	-1E+10	1	-1E+10	1	-1E+10	1	-1E+10	1	-1E+10	1
4901784	44	C	09/17/2016	10:42	-132.516	44.870	0	265.00	0	6.7720	0	33.9140	0	26.598	0	262.684	0	140.3	4	47.2	4	-1E+10	1	-1E+10	1	-1E+10	1	-1E+10	1	-1E+10	1	-1E+10	1
4901784	44	C	09/17/2016	10:42	-132.516	44.870	0	267.50	0	6.7360	0	33.9140	0	26.602	0	265.160	0	138.9	4	46.7	4	-1E+10	1	-1E+10	1	-1E+10	1	-1E+10	1	-1E+10	1	-1E+10	1
4901784	44	C	09/17/2016	10:42	-132.516	44.870	0	270.10	0	6.7100	0	33.9150	0	26.607	0	267.736	0	137.5	4	46.2	4	-1E+10	1	-1E+10	1	-1E+10	1	-1E+10	1	-1E+10	1	-1E+10	1
4901784	44	C	09/17/2016	10:42	-132.516	44.870	0	272.60	0	6.6860	0	33.9170	0	26.612	0	270.212	0	136.4	4	45.8	4	-1E+10	1	-1E+10	1	-1E+10	1	-1E+10	1	-1E+10	1	-1E+10	1
4901784	44	C	09/17/2016	10:42	-132.516	44.870	0	275.20	0	6.6620	0	33.9170	0	26.615	0	272.788	0	135.7	4	45.5	4	-1E+10	1	-1E+10	1	-1E+10	1	-1E+10	1	-1E+10	1	-1E+10	1
4901784	44	C	09/17/2016	10:42	-132.516	44.870	0	277.70	0	6.6300	0	33.9160	0	26.618	0	275.264	0	135.0	4	45.3	4	-1E+10	1	-1E+10	1	-1E+10	1	-1E+10	1	-1E+10	1	-1E+10	1
4901784	44	C	09/17/2016	10:42	-132.516	44.870	0	280.20	0	6.5930	0	33.9150	0	26.622	0	277.740	0	134.1	4	44.9	4	-1E+10	1	-1E+10	1	-1E+10	1	-1E+10	1	-1E+10	1	-1E+10	1
4901784	44	C	09/17/2016	10:42	-132.516	44.870	0	282.80	0	6.5360	0	33.9140	0	26.629	0	280.316	0	133.2	4	44.6	4	-1E+10	1	-1E+10	1	-1E+10	1	-1E+10	1	-1E+10	1	-1E+10	1
4901784	44	C	09/17/2016	10:42	-132.516	44.870	0	285.30	0	6.5160	0	33.9140	0	26.632	0	282.792	0	132.1	4	44.2	4	-1E+10	1	-1E+10	1	-1E+10	1	-1E+10	1	-1E+10	1	-1E+10	1
4901784	44	C	09/17/2016	10:42	-132.516	44.870	0	288.00	0	6.4710	0	33.9140	0	26.638	0	285.467	0	131.1	4	43.8	4	-1E+10	1	-1E+10	1	-1E+10	1	-1E+10	1	-1E+10	1	-1E+10	1
4901784	44	C	09/17/2016	10:42	-132.516	44.870	0	289.60	0	6.4610	0	33.9140	0	26.639	0	287.051	0	130.5	4	43.6	4	-1E+10	1	-1E+10	1	-1E+10	1	-1E+10	1	-1E+10	1	-1E+10	1
4901784	44	C	09/17/2016	10:42	-132.516	44.870	0	292.20	0	6.4280	0	33.9140	0	26.643	0	289.627	0	129.6	4	43.2	4	-1E+10	1	-1E+10	1	-1E+10	1	-1E+10	1	-1E+10	1	-1E+10	1
4901784	44	C	09/17/2016	10:42	-132.516	44.870	0	294.60	0	6.4020	0	33.9140	0	26.647	0	292.004	0	128.5	4	42.9	4	-1E+10	1	-1E+10	1	-1E+10	1	-1E+10	1	-1E+10	1	-1E+10	1
4901784	44	C	09/17/2016	10:42	-132.516	44.870	0	297.20	0	6.3840	0	33.9130	0	26.648	0	294.579	0	127.3	4	42.4	4	-1E+10	1	-1E+10	1	-1E+10	1	-1E+10	1	-1E+10	1	-1E+10	1
4901784	44	C	09/17/2016	10:42	-132.516	44.870	0	299.70	0	6.3480	0	33.9150	0	26.654	0	297.055	0	125.8	4	41.9	4	-1E+10	1	-1E+10	1	-1E+10	1	-1E+10	1	-1E+10	1	-1E+10	1
4901784	44	C	09/17/2016	10:42	-132.516	44.870	0	302.40	0	6.2970	0	33.9120	0	26.659	0	299.730	0	124.0	4	41.3	4	-1E+10	1	-1E+10	1	-1E+10	1	-1E+10	1	-1E+10	1	-1E+10	1
4901784	44	C	09/17/2016	10:42	-132.516	44.870	0	305.00	0	6.2350	0	33.9140	0	26.668	0	302.305	0	122.7	4	40.7	4	-1E+10	1	-1E+10	1	-1E+10	1	-1E+10	1	-1E+10	1	-1E+10	1
4901784	44	C	09/17/2016	10:42	-132.516	44.870	0	307.60	0	6.2120	0	33.9140	0	26.671	0	304.880	0	121.3	4	40.3	4	-1E+10	1	-1E+10	1	-1E+10	1	-1E+10	1	-1E+10	1	-1E+10	1
4901784	44	C	09/17/2016	10:42	-132.516	44.870	0	310.30	0	6.2010	0	33.9130	0	26.672	0	307.554	0	119.5	4	39.7	4	-1E+10	1	-1E+10	1	-1E+10	1	-1E+10	1	-1E+10	1	-1E+10	1
4901784	44	C	09/17/2016	10:42	-132.516	44.870	0	312.00	0	6.1420	0	33.9140	0	26.680	0	309.238	0	118.1	4	39.2	4	-1E+10	1	-1E+10	1	-1E+10	1	-1E+10	1	-1E+10	1	-1E+10	1
4901784	44	C	09/17/2016	10:42	-132.516	44.870	0	314.70	0	6.0830	0	33.9130	0	26.687	0	311.912	0	116.8	4	38.7	4	-1E+10	1	-1E+10	1	-1E+10	1	-1E+10	1	-1E+10	1	-1E+10	1
4901784	44	C	09/17/2016	10:42	-132.516	44.870	0	317.40	0	6.0370	0	33.9120	0	26.692	0	314.586	0	115.5	4	38.2	4	-1E+10	1	-1E+10	1	-1E+10	1	-1E+10	1	-1E+10	1	-1E+10	1
4901784	44	C	09/17/2016	10:42	-132.516	44.870	0	320.10	0	6.0070	0	33.9120	0	26.696	0	317.260	0	114.2	4	37.7	4	-1E+10	1	-1E+10	1	-1E+10	1	-1E+10	1	-1E+10	1	-1E+10	1
4901784	44	C	09/17/2016	10:42	-132.516	44.870	0	322.80	0	5.9760	0	33.9150	0	26.702	0	319.934	0	113.0	4	37.3	4	-1E+10	1	-1E+10	1	-1E+10	1	-1E+10	1	-1E+10	1	-1E+10	1
4901784	44	C	09/17/2016	10:42	-132.516	44.870	0	324.60	0	5.9560	0	33.9140	0	26.704	0	321.716	0	112.1	4	37.0	4	-1E+10	1	-1E+10	1	-1E+10	1	-1E+10	1	-1E+10	1	-1E+10	1
4901784	44	C	09/17/2016	10:42	-132.516	44.870	0	327.20	0	5.9180	0	33.9140	0	26.708	0	324.291	0	110.9	4	36.6	4	-1E+10	1	-1E+10	1	-1E+10	1	-1E+10	1	-1E+10	1	-1E+10	1
4901784	44	C	09/17/2016	10:42	-132.516	44.870	0	329.90	0	5.9080	0	33.9140	0	26.710	0	326.965	0	109.6	4	36.1	4	-1E+10	1	-1E+10	1	-1E+10	1	-1E+10	1	-1E+10	1	-1E+10	1
4901784	44	C	09/17/2016	10:42	-132.516	44.870	0	332.60	0	5.8520	0	33.9160	0	26.718	0	329.639	0	108.0	4	35.6	4	-1E+10	1	-1E+10	1	-1E+10	1	-1E+10	1	-1E+10	1	-1E+10	1
4901784	44	C	09/17/2016	10:42	-132.516	44.870	0	335.40	0	5.8210	0	33.9190	0	26.724	0	332.412	0	106.7	4	35.1	4	-1E+10	1	-1E+10	1	-1E+10	1	-1E+10	1	-1E+10	1	-1E+10	1
4901784	44	C	09/17/2016	10:42	-132.516	44.870	0	337.10	0	5.7990	0	33.9190	0	26.727	0	334.095	0	105.8	4	34.8	4	-1E+10	1	-1E+10	1	-1E+10	1	-1E+10	1	-1E+10	1	-1E+10	1
4901784	44	C	09/17/2016	10:42	-132.516	44.870	0	339.90	0	5.7680	0	33.9170	0	26.729	0	336.868	0	104.3	4	34.3	4	-1E+10	1	-1E+10	1	-1E+10	1	-1E+10	1	-1E+10	1	-1E+10	1
4901784	44	C	09/17/2016	10:42	-132.516	44.870	0	342.70	0	5.7310	0	33.9160	0	26.733	0	339.641	0	102.8	4	33.7	4	-1E+10	1	-1E+10	1	-1E+10	1	-1E+10	1	-1E+10	1	-1E+10	1
4901784	44	C	09/17/2016	10:42	-132.516	44.870	0	344.50	0	5.7150	0	33.9170	0	26.736	0	341.423	0	101.6	4	33.3	4	-1E+10	1	-1E+10	1	-1E+10	1	-1E+10	1	-1E+10	1	-1E+10	1
4901784	44	C	09/17/2016	10:42	-132.516	44.870	0	347.30	0	5.6670	0	33.9200	0	26.744	0	344.196	0	99.3	4	32.6	4	-1E+10	1	-1E+10	1	-1E+10	1	-1E+10	1	-1E+10	1	-1E+10	1
4901784	44	C	09/17/2016	10:42	-132.516	44.870	0	350.10	0	5.6090	0	33.9200	0	26.751	0	346.968	0	97.3	4	31.9	4	-1E+10	1	-1E+10	1	-1E+10	1	-1E+10	1	-1E+10	1	-1E+10	1
4901784	44	C	09/17/2016	10:42	-132.516	44.870	0	351.90	0	5.5970	0	33.9210	0	26.753	0	348.751	0	95.9	4	31.4	4	-1E+10	1	-1E+10	1	-1E+10	1	-1E+10	1	-1E+10	1	-1E+10	1
4901784	44	C	09/17/2016	10:42	-132.516	44.870	0	354.70	0	5.5310	0	33.9250	0	26.764	0	351.523	0	94.2	4	30.8	4	-1E+10	1	-1E+10	1	-1E+10	1	-1E+10	1	-1E+10	1	-1E+10	1
4901784	44	C	09/17/2016	10:42	-132.516	44.870	0	357.50	0	5.4920	0	33.9270	0	26.771	0	354.296	0	92.7	4	30.3	4	-1E+10	1	-1E+10	1	-1E+10	1	-1E+10	1	-1E+10	1	-1E+10	1
4901784	44	C	09/17/2016	10:42	-132.516	44.870	0	359.90	0	5.4600	0	33.9290	0	26.776	0	356.672	0	91.6	4	29.9	4	-1E+10	1	-1E+10	1	-1E+10	1	-1E+10	1	-1E+10	1	-1E+10	1
4901784	44	C	09/17/2016	10:42	-132.516	44.870	0	362.60	0	5.4200	0	33.9320	0	26.783	0	359.346	0	90.7	4	29.6	4	-1E+10	1	-1E+10	1	-1E+10	1	-1E+10	1	-1E+10	1	-1E+10	1
4901784	44	C	09/17/2016	10:42	-132.516	44.870	0	364.90	0	5.4000	0	33.9320	0	26.786	0	361.623	0	90.0	4	29.3	4	-1E+10	1	-1E+10	1	-1E+10	1	-1E+10	1	-1E+10	1	-1E+10	1
4901784	44	C	09/17/2016	10:42	-132.516	44.870	0	367.30	0	5.3800	0	33.9330	0	26.789	0	363.999	0	89.2	4	29.1	4	-1E+10	1	-1E+10	1	-1E+10	1	-1E+10	1	-1E+10	1	-1E+10	1
4901784	44	C	09/17/2016	10:42	-132.516	44.870	0	370.40	0	5.3580	0	33.9340	0	26.792	0	367.069	0	88.6	4	28.8	4	-1E+10	1	-1E+10	1	-1E+10	1	-1E+10	1	-1E+10	1	-1E+10	1
4901784	44	C	09/17/2016	10:42	-132.516	44.870	0	372.80	0	5.3210	0	33.9340	0	26.797	0	369.445	0	88.2	4	28.7	4	-1E+10	1	-1E+10	1	-1E+10	1	-1E+10	1	-1E+10	1	-1E+10	1
4901784	44	C	09/17/2016	10:42	-132.516	44.870	0	375.10	0	5.2900	0	33.9350	0	26.801	0	371.722	0	87.5	4	28.4	4	-1E+10	1	-1E+10	1	-1E+10	1	-1E+10	1	-1E+10	1	-1E+10	1
4901784	44	C	09/17/2016	10:42	-132.516	44.870	0	377.50	0	5.2610	0	33.9350	0	26.804	0	374.099	0	86.4	4	28.1	4	-1E+10	1	-1E+10	1	-1E+10	1	-1E+10	1	-1E+10	1	-1E+10	1
4901784	44	C	09/17/2016	10:42	-132.516	44.870	0	379.90	0	5.2470	0	33.9370	0	26.808	0	376.475	0	84.7	4	27.5	4	-1E+10	1	-1E+10	1	-1E+10	1	-1E+10	1	-1E+10	1	-1E+10	1
4901784	44	C	09/17/2016	10:42	-132.516	44.870	0	382.40	0	5.2290	0	33.9390	0	26.811	0	378.950	0	83.0	4	26.9	4	-1E+10	1	-1E+10	1	-1E+10	1	-1E+10	1	-1E+10	1	-1E+10	1
4901784	44	C	09/17/2016	10:42	-132.516	44.870	0	384.90	0	5.1900	0	33.9440	0	26.820	0	381.425	0	81.3	4	26.4	4	-1E+10	1	-1E+10	1	-1E+10	1	-1E+10	1	-1E+10	1	-1E+10	1
4901784	44	C	09/17/2016	10:42	-132.516	44.870	0	387.30	0	5.1580	0	33.9480	0	26.827	0	383.801	0	80.2	4	26.0	4	-1E+10	1	-1E+10	1	-1E+10	1	-1E+10	1	-1E+10	1	-1E+10	1
4901784	44	C	09/17/2016	10:42	-132.516	44.870	0	389.80	0	5.1460	0	33.9490	0	26.829	0	386.276	0	79.3	4	25.7	4	-1E+10	1	-1E+10	1	-1E+10	1	-1E+10	1	-1E+10	1	-1E+10	1
4901784	44	C	09/17/2016	10:42	-132.516	44.870	0	392.30	0	5.1290	0	33.9500	0	26.832	0	388.751	0	78.4	4	25.4	4	-1E+10	1	-1E+10	1	-1E+10	1	-1E+10	1	-1E+10	1	-1E+10	1
4901784	44	C	09/17/2016	10:42	-132.516	44.870	0	394.80	0	5.1090	0	33.9520	0	26.836	0	391.226	0	77.3	4	25.0	4	-1E+10	1	-1E+10	1	-1E+10	1	-1E+10	1	-1E+10	1	-1E+10	1
4901784	44	C	09/17/2016	10:42	-132.516	44.870	0	397.30	0	5.0930	0	33.9530	0	26.838	0	393.701	0	76.1	4	24.6	4	-1E+10	1	-1E+10	1	-1E+10	1	-1E+10	1	-1E+10	1	-1E+10	1
4901784	44	C	09/17/2016	10:42	-132.516	44.870	0	399.80	0	5.0850	0	33.9540	0	26.840	0	396.176	0	74.1	4	24.0	4	-1E+10	1	-1E+10	1	-1E+10	1	-1E+10	1	-1E+10	1	-1E+10	1
4901784	44	C	09/17/2016	10:42	-132.516	44.870	0	402.30	0	5.0590	0	33.9590	0	26.847	0	398.651	0	71.6	4	23.1	4	-1E+10	1	-1E+10	1	-1E+10	1	-1E+10	1	-1E+10	1	-1E+10	1
4901784	44	C	09/17/2016	10:42	-132.516	44.870	0	404.90	0	5.0640	0	33.9620	0	26.849	0	401.225	0	68.2	4	22.1	4	-1E+10	1	-1E+10	1	-1E+10	1	-1E+10	1	-1E+10	1	-1E+10	1
4901784	44	C	09/17/2016	10:42	-132.516	44.870	0	407.40	0	5.0930	0	33.9720	0	26.853	0	403.700	0	64.7	4	20.9	4	-1E+10	1	-1E+10	1	-1E+10	1	-1E+10	1	-1E+10	1	-1E+10	1
4901784	44	C	09/17/2016	10:42	-132.516	44.870	0	409.90	0	5.0940	0	33.9800	0	26.860	0	406.175	0	63.0	4	20.4	4	-1E+10	1	-1E+10	1	-1E+10	1	-1E+10	1	-1E+10	1	-1E+10	1
4901784	44	C	09/17/2016	10:42	-132.516	44.870	0	412.50	0	5.1020	0	33.9870	0	26.864	0	408.749	0	61.7	4	20.0	4	-1E+10	1	-1E+10	1	-1E+10	1	-1E+10	1	-1E+10	1	-1E+10	1
4901784	44	C	09/17/2016	10:42	-132.516	44.870	0	415.00	0	5.0930	0	33.9880	0	26.866	0	411.224	0	61.5	4	19.9	4	-1E+10	1	-1E+10	1	-1E+10	1	-1E+10	1	-1E+10	1	-1E+10	1
4901784	44	C	09/17/2016	10:42	-132.516	44.870	0	417.60	0	5.0850	0	33.9890	0	26.868	0	413.797	0	61.5	4	19.9	4	-1E+10	1	-1E+10	1	-1E+10	1	-1E+10	1	-1E+10	1	-1E+10	1
4901784	44	C	09/17/2016	10:42	-132.516	44.870	0	420.30	0	5.0560	0	33.9880	0	26.870	0	416.470	0	61.8	4	20.0	4	-1E+10	1	-1E+10	1	-1E+10	1	-1E+10	1	-1E+10	1	-1E+10	1
4901784	44	C	09/17/2016	10:42	-132.516	44.870	0	422.80	0	5.0360	0	33.9880	0	26.873	0	418.945	0	62.0	4	20.1	4	-1E+10	1	-1E+10	1	-1E+10	1	-1E+10	1	-1E+10	1	-1E+10	1
4901784	44	C	09/17/2016	10:42	-132.516	44.870	0	424.60	0	5.0100	0	33.9870	0	26.875	0	420.726	0	62.3	4	20.1	4	-1E+10	1	-1E+10	1	-1E+10	1	-1E+10	1	-1E+10	1	-1E+10	1
4901784	44	C	09/17/2016	10:42	-132.516	44.870	0	427.20	0	4.9520	0	33.9850	0	26.880	0	423.300	0	62.3	4	20.1	4	-1E+10	1	-1E+10	1	-1E+10	1	-1E+10	1	-1E+10	1	-1E+10	1
4901784	44	C	09/17/2016	10:42	-132.516	44.870	0	429.70	0	4.9320	0	33.9850	0	26.882	0	425.775	0	61.1	4	19.7	4	-1E+10	1	-1E+10	1	-1E+10	1	-1E+10	1	-1E+10	1	-1E+10	1
4901784	44	C	09/17/2016	10:42	-132.516	44.870	0	432.30	0	4.9200	0	33.9880	0	26.886	0	428.348	0	59.7	4	19.2	4	-1E+10	1	-1E+10	1	-1E+10	1	-1E+10	1	-1E+10	1	-1E+10	1
4901784	44	C	09/17/2016	10:42	-132.516	44.870	0	434.90	0	4.9070	0	33.9910	0	26.890	0	430.922	0	57.8	4	18.6	4	-1E+10	1	-1E+10	1	-1E+10	1	-1E+10	1	-1E+10	1	-1E+10	1
4901784	44	C	09/17/2016	10:42	-132.516	44.870	0	437.50	0	4.9460	0	33.9990	0	26.892	0	433.495	0	55.5	4	17.9	4	-1E+10	1	-1E+10	1	-1E+10	1	-1E+10	1	-1E+10	1	-1E+10	1
4901784	44	C	09/17/2016	10:42	-132.516	44.870	0	440.10	0	4.9610	0	34.0060	0	26.896	0	436.069	0	54.8	4	17.7	4	-1E+10	1	-1E+10	1	-1E+10	1	-1E+10	1	-1E+10	1	-1E+10	1
4901784	44	C	09/17/2016	10:42	-132.516	44.870	0	442.70	0	4.9500	0	34.0050	0	26.896	0	438.642	0	54.7	4	17.7	4	-1E+10	1	-1E+10	1	-1E+10	1	-1E+10	1	-1E+10	1	-1E+10	1
4901784	44	C	09/17/2016	10:42	-132.516	44.870	0	445.30	0	4.9320	0	34.0060	0	26.899	0	441.216	0	54.3	4	17.5	4	-1E+10	1	-1E+10	1	-1E+10	1	-1E+10	1	-1E+10	1	-1E+10	1
4901784	44	C	09/17/2016	10:42	-132.516	44.870	0	447.90	0	4.9250	0	34.0080	0	26.901	0	443.789	0	53.9	4	17.4	4	-1E+10	1	-1E+10	1	-1E+10	1	-1E+10	1	-1E+10	1	-1E+10	1
4901784	44	C	09/17/2016	10:42	-132.516	44.870	0	450.40	0	4.9260	0	34.0090	0	26.902	0	446.263	0	53.5	4	17.3	4	-1E+10	1	-1E+10	1	-1E+10	1	-1E+10	1	-1E+10	1	-1E+10	1
4901784	44	C	09/17/2016	10:42	-132.516	44.870	0	452.20	0	4.9150	0	34.0090	0	26.903	0	448.045	0	53.5	4	17.2	4	-1E+10	1	-1E+10	1	-1E+10	1	-1E+10	1	-1E+10	1	-1E+10	1
4901784	44	C	09/17/2016	10:42	-132.516	44.870	0	454.80	0	4.8780	0	34.0070	0	26.906	0	450.618	0	53.2	4	17.1	4	-1E+10	1	-1E+10	1	-1E+10	1	-1E+10	1	-1E+10	1	-1E+10	1
4901784	44	C	09/17/2016	10:42	-132.516	44.870	0	457.40	0	4.8400	0	34.0100	0	26.913	0	453.191	0	52.2	4	16.8	4	-1E+10	1	-1E+10	1	-1E+10	1	-1E+10	1	-1E+10	1	-1E+10	1
4901784	44	C	09/17/2016	10:42	-132.516	44.870	0	460.00	0	4.8330	0	34.0140	0	26.917	0	455.765	0	51.0	4	16.4	4	-1E+10	1	-1E+10	1	-1E+10	1	-1E+10	1	-1E+10	1	-1E+10	1
4901784	44	C	09/17/2016	10:42	-132.516	44.870	0	462.60	0	4.8190	0	34.0200	0	26.923	0	458.338	0	50.3	4	16.2	4	-1E+10	1	-1E+10	1	-1E+10	1	-1E+10	1	-1E+10	1	-1E+10	1
4901784	44	C	09/17/2016	10:42	-132.516	44.870	0	465.30	0	4.8040	0	34.0200	0	26.925	0	461.010	0	50.2	4	16.1	4	-1E+10	1	-1E+10	1	-1E+10	1	-1E+10	1	-1E+10	1	-1E+10	1
4901784	44	C	09/17/2016	10:42	-132.516	44.870	0	467.90	0	4.7770	0	34.0200	0	26.928	0	463.583	0	49.7	4	16.0	4	-1E+10	1	-1E+10	1	-1E+10	1	-1E+10	1	-1E+10	1	-1E+10	1
4901784	44	C	09/17/2016	10:42	-132.516	44.870	0	469.60	0	4.7720	0	34.0200	0	26.928	0	465.265	0	49.1	4	15.8	4	-1E+10	1	-1E+10	1	-1E+10	1	-1E+10	1	-1E+10	1	-1E+10	1
4901784	44	C	09/17/2016	10:42	-132.516	44.870	0	472.20	0	4.7700	0	34.0220	0	26.930	0	467.839	0	47.9	4	15.4	4	-1E+10	1	-1E+10	1	-1E+10	1	-1E+10	1	-1E+10	1	-1E+10	1
4901784	44	C	09/17/2016	10:42	-132.516	44.870	0	474.70	0	4.7410	0	34.0250	0	26.936	0	470.313	0	46.7	4	15.0	4	-1E+10	1	-1E+10	1	-1E+10	1	-1E+10	1	-1E+10	1	-1E+10	1
4901784	44	C	09/17/2016	10:42	-132.516	44.870	0	477.30	0	4.7280	0	34.0300	0	26.941	0	472.886	0	45.3	4	14.5	4	-1E+10	1	-1E+10	1	-1E+10	1	-1E+10	1	-1E+10	1	-1E+10	1
4901784	44	C	09/17/2016	10:42	-132.516	44.870	0	479.90	0	4.7180	0	34.0340	0	26.945	0	475.459	0	44.0	4	14.1	4	-1E+10	1	-1E+10	1	-1E+10	1	-1E+10	1	-1E+10	1	-1E+10	1
4901784	44	C	09/17/2016	10:42	-132.516	44.870	0	482.60	0	4.7100	0	34.0380	0	26.949	0	478.131	0	42.8	4	13.7	4	-1E+10	1	-1E+10	1	-1E+10	1	-1E+10	1	-1E+10	1	-1E+10	1
4901784	44	C	09/17/2016	10:42	-132.516	44.870	0	485.20	0	4.6890	0	34.0430	0	26.956	0	480.703	0	41.8	4	13.4	4	-1E+10	1	-1E+10	1	-1E+10	1	-1E+10	1	-1E+10	1	-1E+10	1
4901784	44	C	09/17/2016	10:42	-132.516	44.870	0	487.80	0	4.6740	0	34.0470	0	26.961	0	483.276	0	41.1	4	13.2	4	-1E+10	1	-1E+10	1	-1E+10	1	-1E+10	1	-1E+10	1	-1E+10	1
4901784	44	C	09/17/2016	10:42	-132.516	44.870	0	490.40	0	4.6700	0	34.0490	0	26.963	0	485.849	0	40.3	4	12.9	4	-1E+10	1	-1E+10	1	-1E+10	1	-1E+10	1	-1E+10	1	-1E+10	1
4901784	44	C	09/17/2016	10:42	-132.516	44.870	0	492.10	0	4.6680	0	34.0500	0	26.964	0	487.531	0	39.7	4	12.7	4	-1E+10	1	-1E+10	1	-1E+10	1	-1E+10	1	-1E+10	1	-1E+10	1
4901784	44	C	09/17/2016	10:42	-132.516	44.870	0	494.90	0	4.6560	0	34.0560	0	26.970	0	490.302	0	39.0	4	12.5	4	-1E+10	1	-1E+10	1	-1E+10	1	-1E+10	1	-1E+10	1	-1E+10	1
4901784	44	C	09/17/2016	10:42	-132.516	44.870	0	497.60	0	4.6430	0	34.0570	0	26.972	0	492.974	0	38.5	4	12.3	4	-1E+10	1	-1E+10	1	-1E+10	1	-1E+10	1	-1E+10	1	-1E+10	1
4901784	44	C	09/17/2016	10:42	-132.516	44.870	0	500.20	0	4.6130	0	34.0590	0	26.977	0	495.547	0	37.8	4	12.1	4	-1E+10	1	-1E+10	1	-1E+10	1	-1E+10	1	-1E+10	1	-1E+10	1
4901784	44	C	09/17/2016	10:42	-132.516	44.870	0	504.60	0	4.5970	0	34.0650	0	26.983	0	499.900	0	36.8	4	11.8	4	-1E+10	1	-1E+10	1	-1E+10	1	-1E+10	1	-1E+10	1	-1E+10	1
4901784	44	C	09/17/2016	10:42	-132.516	44.870	0	510.00	0	4.5800	0	34.0690	0	26.988	0	505.243	0	35.9	4	11.5	4	-1E+10	1	-1E+10	1	-1E+10	1	-1E+10	1	-1E+10	1	-1E+10	1
4901784	44	C	09/17/2016	10:42	-132.516	44.870	0	515.60	0	4.5610	0	34.0740	0	26.995	0	510.784	0	34.9	4	11.2	4	-1E+10	1	-1E+10	1	-1E+10	1	-1E+10	1	-1E+10	1	-1E+10	1
4901784	44	C	09/17/2016	10:42	-132.516	44.870	0	520.20	0	4.5460	0	34.0780	0	26.999	0	515.336	0	34.0	4	10.9	4	-1E+10	1	-1E+10	1	-1E+10	1	-1E+10	1	-1E+10	1	-1E+10	1
4901784	44	C	09/17/2016	10:42	-132.516	44.870	0	524.80	0	4.5260	0	34.0800	0	27.003	0	519.887	0	33.2	4	10.6	4	-1E+10	1	-1E+10	1	-1E+10	1	-1E+10	1	-1E+10	1	-1E+10	1
4901784	44	C	09/17/2016	10:42	-132.516	44.870	0	530.50	0	4.5030	0	34.0860	0	27.010	0	525.526	0	32.0	4	10.2	4	-1E+10	1	-1E+10	1	-1E+10	1	-1E+10	1	-1E+10	1	-1E+10	1
4901784	44	C	09/17/2016	10:42	-132.516	44.870	0	535.20	0	4.4930	0	34.0890	0	27.014	0	530.176	0	31.5	4	10.1	4	-1E+10	1	-1E+10	1	-1E+10	1	-1E+10	1	-1E+10	1	-1E+10	1
4901784	44	C	09/17/2016	10:42	-132.516	44.870	0	539.90	0	4.4930	0	34.0930	0	27.017	0	534.826	0	31.2	4	10.0	4	-1E+10	1	-1E+10	1	-1E+10	1	-1E+10	1	-1E+10	1	-1E+10	1
4901784	44	C	09/17/2016	10:42	-132.516	44.870	0	544.70	0	4.4480	0	34.0910	0	27.020	0	539.575	0	31.4	4	10.0	4	-1E+10	1	-1E+10	1	-1E+10	1	-1E+10	1	-1E+10	1	-1E+10	1
4901784	44	C	09/17/2016	10:42	-132.516	44.870	0	549.50	0	4.4260	0	34.0940	0	27.025	0	544.323	0	30.9	4	9.9	4	-1E+10	1	-1E+10	1	-1E+10	1	-1E+10	1	-1E+10	1	-1E+10	1
4901784	44	C	09/17/2016	10:42	-132.516	44.870	0	555.20	0	4.4160	0	34.0960	0	27.028	0	549.962	0	30.6	4	9.8	4	-1E+10	1	-1E+10	1	-1E+10	1	-1E+10	1	-1E+10	1	-1E+10	1
4901784	44	C	09/17/2016	10:42	-132.516	44.870	0	560.30	0	4.3820	0	34.0980	0	27.033	0	555.007	0	30.3	4	9.7	4	-1E+10	1	-1E+10	1	-1E+10	1	-1E+10	1	-1E+10	1	-1E+10	1
4901784	44	C	09/17/2016	10:42	-132.516	44.870	0	564.80	0	4.3620	0	34.1010	0	27.038	0	559.459	0	29.6	4	9.4	4	-1E+10	1	-1E+10	1	-1E+10	1	-1E+10	1	-1E+10	1	-1E+10	1
4901784	44	C	09/17/2016	10:42	-132.516	44.870	0	569.80	0	4.3490	0	34.1060	0	27.043	0	564.405	0	28.9	4	9.2	4	-1E+10	1	-1E+10	1	-1E+10	1	-1E+10	1	-1E+10	1	-1E+10	1
4901784	44	C	09/17/2016	10:42	-132.516	44.870	0	574.80	0	4.3430	0	34.1090	0	27.046	0	569.350	0	28.2	4	9.0	4	-1E+10	1	-1E+10	1	-1E+10	1	-1E+10	1	-1E+10	1	-1E+10	1
4901784	44	C	09/17/2016	10:42	-132.516	44.870	0	579.80	0	4.3370	0	34.1150	0	27.052	0	574.296	0	27.4	4	8.7	4	-1E+10	1	-1E+10	1	-1E+10	1	-1E+10	1	-1E+10	1	-1E+10	1
4901784	44	C	09/17/2016	10:42	-132.516	44.870	0	584.80	0	4.3120	0	34.1170	0	27.056	0	579.242	0	26.8	4	8.5	4	-1E+10	1	-1E+10	1	-1E+10	1	-1E+10	1	-1E+10	1	-1E+10	1
4901784	44	C	09/17/2016	10:42	-132.516	44.870	0	589.80	0	4.3030	0	34.1250	0	27.063	0	584.187	0	25.8	4	8.2	4	-1E+10	1	-1E+10	1	-1E+10	1	-1E+10	1	-1E+10	1	-1E+10	1
4901784	44	C	09/17/2016	10:42	-132.516	44.870	0	594.90	0	4.2880	0	34.1290	0	27.068	0	589.231	0	25.0	4	7.9	4	-1E+10	1	-1E+10	1	-1E+10	1	-1E+10	1	-1E+10	1	-1E+10	1
4901784	44	C	09/17/2016	10:42	-132.516	44.870	0	600.10	0	4.2640	0	34.1340	0	27.075	0	594.374	0	24.4	4	7.7	4	-1E+10	1	-1E+10	1	-1E+10	1	-1E+10	1	-1E+10	1	-1E+10	1
4901784	44	C	09/17/2016	10:42	-132.516	44.870	0	605.30	0	4.2460	0	34.1390	0	27.080	0	599.517	0	23.6	4	7.5	4	-1E+10	1	-1E+10	1	-1E+10	1	-1E+10	1	-1E+10	1	-1E+10	1
4901784	44	C	09/17/2016	10:42	-132.516	44.870	0	610.70	0	4.2440	0	34.1440	0	27.085	0	604.858	0	22.7	4	7.2	4	-1E+10	1	-1E+10	1	-1E+10	1	-1E+10	1	-1E+10	1	-1E+10	1
4901784	44	C	09/17/2016	10:42	-132.516	44.870	0	615.10	0	4.2430	0	34.1510	0	27.090	0	609.209	0	22.1	4	7.0	4	-1E+10	1	-1E+10	1	-1E+10	1	-1E+10	1	-1E+10	1	-1E+10	1
4901784	44	C	09/17/2016	10:42	-132.516	44.870	0	619.60	0	4.2320	0	34.1540	0	27.094	0	613.660	0	21.7	4	6.9	4	-1E+10	1	-1E+10	1	-1E+10	1	-1E+10	1	-1E+10	1	-1E+10	1
4901784	44	C	09/17/2016	10:42	-132.516	44.870	0	625.00	0	4.2310	0	34.1570	0	27.096	0	619.000	0	21.3	4	6.8	4	-1E+10	1	-1E+10	1	-1E+10	1	-1E+10	1	-1E+10	1	-1E+10	1
4901784	44	C	09/17/2016	10:42	-132.516	44.870	0	630.40	0	4.2350	0	34.1620	0	27.100	0	624.340	0	20.8	4	6.6	4	-1E+10	1	-1E+10	1	-1E+10	1	-1E+10	1	-1E+10	1	-1E+10	1
4901784	44	C	09/17/2016	10:42	-132.516	44.870	0	634.90	0	4.2350	0	34.1620	0	27.100	0	628.790	0	20.6	4	6.5	4	-1E+10	1	-1E+10	1	-1E+10	1	-1E+10	1	-1E+10	1	-1E+10	1
4901784	44	C	09/17/2016	10:42	-132.516	44.870	0	639.50	0	4.2180	0	34.1650	0	27.104	0	633.339	0	20.1	4	6.4	4	-1E+10	1	-1E+10	1	-1E+10	1	-1E+10	1	-1E+10	1	-1E+10	1
4901784	44	C	09/17/2016	10:42	-132.516	44.870	0	645.00	0	4.1940	0	34.1720	0	27.112	0	638.777	0	19.7	4	6.2	4	-1E+10	1	-1E+10	1	-1E+10	1	-1E+10	1	-1E+10	1	-1E+10	1
4901784	44	C	09/17/2016	10:42	-132.516	44.870	0	650.40	0	4.1870	0	34.1740	0	27.115	0	644.117	0	19.3	4	6.1	4	-1E+10	1	-1E+10	1	-1E+10	1	-1E+10	1	-1E+10	1	-1E+10	1
4901784	44	C	09/17/2016	10:42	-132.516	44.870	0	654.90	0	4.1880	0	34.1770	0	27.117	0	648.566	0	18.9	4	6.0	4	-1E+10	1	-1E+10	1	-1E+10	1	-1E+10	1	-1E+10	1	-1E+10	1
4901784	44	C	09/17/2016	10:42	-132.516	44.870	0	659.40	0	4.1890	0	34.1820	0	27.121	0	653.016	0	18.3	4	5.8	4	-1E+10	1	-1E+10	1	-1E+10	1	-1E+10	1	-1E+10	1	-1E+10	1
4901784	44	C	09/17/2016	10:42	-132.516	44.870	0	665.00	0	4.1920	0	34.1860	0	27.124	0	658.553	0	17.9	4	5.7	4	-1E+10	1	-1E+10	1	-1E+10	1	-1E+10	1	-1E+10	1	-1E+10	1
4901784	44	C	09/17/2016	10:42	-132.516	44.870	0	670.40	0	4.1850	0	34.1900	0	27.128	0	663.892	0	17.4	4	5.5	4	-1E+10	1	-1E+10	1	-1E+10	1	-1E+10	1	-1E+10	1	-1E+10	1
4901784	44	C	09/17/2016	10:42	-132.516	44.870	0	674.90	0	4.1770	0	34.1940	0	27.132	0	668.341	0	17.2	4	5.5	4	-1E+10	1	-1E+10	1	-1E+10	1	-1E+10	1	-1E+10	1	-1E+10	1
4901784	44	C	09/17/2016	10:42	-132.516	44.870	0	679.30	0	4.1590	0	34.1970	0	27.136	0	672.691	0	17.0	4	5.4	4	-1E+10	1	-1E+10	1	-1E+10	1	-1E+10	1	-1E+10	1	-1E+10	1
4901784	44	C	09/17/2016	10:42	-132.516	44.870	0	684.70	0	4.1540	0	34.1990	0	27.138	0	678.030	0	16.8	4	5.3	4	-1E+10	1	-1E+10	1	-1E+10	1	-1E+10	1	-1E+10	1	-1E+10	1
4901784	44	C	09/17/2016	10:42	-132.516	44.870	0	690.10	0	4.1470	0	34.2020	0	27.142	0	683.368	0	16.4	4	5.2	4	-1E+10	1	-1E+10	1	-1E+10	1	-1E+10	1	-1E+10	1	-1E+10	1
4901784	44	C	09/17/2016	10:42	-132.516	44.870	0	695.60	0	4.1430	0	34.2070	0	27.146	0	688.805	0	16.0	4	5.1	4	-1E+10	1	-1E+10	1	-1E+10	1	-1E+10	1	-1E+10	1	-1E+10	1
4901784	44	C	09/17/2016	10:42	-132.516	44.870	0	700.10	0	4.1320	0	34.2100	0	27.150	0	693.254	0	15.8	4	5.0	4	-1E+10	1	-1E+10	1	-1E+10	1	-1E+10	1	-1E+10	1	-1E+10	1
4901784	44	C	09/17/2016	10:42	-132.516	44.870	0	704.70	0	4.1110	0	34.2130	0	27.154	0	697.801	0	15.6	4	4.9	4	-1E+10	1	-1E+10	1	-1E+10	1	-1E+10	1	-1E+10	1	-1E+10	1
4901784	44	C	09/17/2016	10:42	-132.516	44.870	0	710.20	0	4.0960	0	34.2160	0	27.158	0	703.238	0	15.2	4	4.8	4	-1E+10	1	-1E+10	1	-1E+10	1	-1E+10	1	-1E+10	1	-1E+10	1
4901784	44	C	09/17/2016	10:42	-132.516	44.870	0	714.80	0	4.0860	0	34.2220	0	27.164	0	707.785	0	14.9	4	4.7	4	-1E+10	1	-1E+10	1	-1E+10	1	-1E+10	1	-1E+10	1	-1E+10	1
4901784	44	C	09/17/2016	10:42	-132.516	44.870	0	719.30	0	4.0870	0	34.2260	0	27.167	0	712.234	0	14.6	4	4.6	4	-1E+10	1	-1E+10	1	-1E+10	1	-1E+10	1	-1E+10	1	-1E+10	1
4901784	44	C	09/17/2016	10:42	-132.516	44.870	0	724.80	0	4.0750	0	34.2290	0	27.171	0	717.670	0	14.4	4	4.6	4	-1E+10	1	-1E+10	1	-1E+10	1	-1E+10	1	-1E+10	1	-1E+10	1
4901784	44	C	09/17/2016	10:42	-132.516	44.870	0	730.30	0	4.0540	0	34.2350	0	27.178	0	723.106	0	14.1	4	4.5	4	-1E+10	1	-1E+10	1	-1E+10	1	-1E+10	1	-1E+10	1	-1E+10	1
4901784	44	C	09/17/2016	10:42	-132.516	44.870	0	735.00	0	4.0390	0	34.2400	0	27.183	0	727.752	0	13.9	4	4.4	4	-1E+10	1	-1E+10	1	-1E+10	1	-1E+10	1	-1E+10	1	-1E+10	1
4901784	44	C	09/17/2016	10:42	-132.516	44.870	0	739.70	0	4.0250	0	34.2440	0	27.188	0	732.397	0	13.7	4	4.3	4	-1E+10	1	-1E+10	1	-1E+10	1	-1E+10	1	-1E+10	1	-1E+10	1
4901784	44	C	09/17/2016	10:42	-132.516	44.870	0	745.40	0	4.0160	0	34.2470	0	27.191	0	738.031	0	13.6	4	4.3	4	-1E+10	1	-1E+10	1	-1E+10	1	-1E+10	1	-1E+10	1	-1E+10	1
4901784	44	C	09/17/2016	10:42	-132.516	44.870	0	750.10	0	4.0130	0	34.2480	0	27.192	0	742.676	0	13.5	4	4.3	4	-1E+10	1	-1E+10	1	-1E+10	1	-1E+10	1	-1E+10	1	-1E+10	1
4901784	44	C	09/17/2016	10:42	-132.516	44.870	0	754.90	0	4.0040	0	34.2500	0	27.195	0	747.420	0	13.4	4	4.2	4	-1E+10	1	-1E+10	1	-1E+10	1	-1E+10	1	-1E+10	1	-1E+10	1
4901784	44	C	09/17/2016	10:42	-132.516	44.870	0	760.40	0	3.9870	0	34.2540	0	27.200	0	752.856	0	13.2	4	4.2	4	-1E+10	1	-1E+10	1	-1E+10	1	-1E+10	1	-1E+10	1	-1E+10	1
4901784	44	C	09/17/2016	10:42	-132.516	44.870	0	765.20	0	3.9770	0	34.2580	0	27.204	0	757.599	0	13.1	4	4.2	4	-1E+10	1	-1E+10	1	-1E+10	1	-1E+10	1	-1E+10	1	-1E+10	1
4901784	44	C	09/17/2016	10:42	-132.516	44.870	0	770.20	0	3.9670	0	34.2580	0	27.205	0	762.541	0	13.2	4	4.2	4	-1E+10	1	-1E+10	1	-1E+10	1	-1E+10	1	-1E+10	1	-1E+10	1
4901784	44	C	09/17/2016	10:42	-132.516	44.870	0	775.10	0	3.9250	0	34.2590	0	27.210	0	767.383	0	13.3	4	4.2	4	-1E+10	1	-1E+10	1	-1E+10	1	-1E+10	1	-1E+10	1	-1E+10	1
4901784	44	C	09/17/2016	10:42	-132.516	44.870	0	780.20	0	3.9100	0	34.2620	0	27.214	0	772.423	0	13.0	4	4.1	4	-1E+10	1	-1E+10	1	-1E+10	1	-1E+10	1	-1E+10	1	-1E+10	1
4901784	44	C	09/17/2016	10:42	-132.516	44.870	0	785.30	0	3.8880	0	34.2680	0	27.221	0	777.462	0	12.8	4	4.0	4	-1E+10	1	-1E+10	1	-1E+10	1	-1E+10	1	-1E+10	1	-1E+10	1
4901784	44	C	09/17/2016	10:42	-132.516	44.870	0	790.30	0	3.8750	0	34.2750	0	27.228	0	782.403	0	12.5	4	3.9	4	-1E+10	1	-1E+10	1	-1E+10	1	-1E+10	1	-1E+10	1	-1E+10	1
4901784	44	C	09/17/2016	10:42	-132.516	44.870	0	795.30	0	3.8590	0	34.2800	0	27.234	0	787.344	0	12.3	4	3.9	4	-1E+10	1	-1E+10	1	-1E+10	1	-1E+10	1	-1E+10	1	-1E+10	1
4901784	44	C	09/17/2016	10:42	-132.516	44.870	0	800.30	0	3.8420	0	34.2840	0	27.239	0	792.284	0	12.2	4	3.8	4	-1E+10	1	-1E+10	1	-1E+10	1	-1E+10	1	-1E+10	1	-1E+10	1
4901784	44	C	09/17/2016	10:42	-132.516	44.870	0	805.40	0	3.8260	0	34.2880	0	27.243	0	797.323	0	12.1	4	3.8	4	-1E+10	1	-1E+10	1	-1E+10	1	-1E+10	1	-1E+10	1	-1E+10	1
4901784	44	C	09/17/2016	10:42	-132.516	44.870	0	810.50	0	3.8130	0	34.2900	0	27.246	0	802.362	0	12.1	4	3.8	4	-1E+10	1	-1E+10	1	-1E+10	1	-1E+10	1	-1E+10	1	-1E+10	1
4901784	44	C	09/17/2016	10:42	-132.516	44.870	0	815.60	0	3.8010	0	34.2930	0	27.250	0	807.401	0	12.0	4	3.8	4	-1E+10	1	-1E+10	1	-1E+10	1	-1E+10	1	-1E+10	1	-1E+10	1
4901784	44	C	09/17/2016	10:42	-132.516	44.870	0	820.00	0	3.7970	0	34.2950	0	27.252	0	811.749	0	11.9	4	3.7	4	-1E+10	1	-1E+10	1	-1E+10	1	-1E+10	1	-1E+10	1	-1E+10	1
4901784	44	C	09/17/2016	10:42	-132.516	44.870	0	824.40	0	3.7850	0	34.2980	0	27.256	0	816.096	0	11.8	4	3.7	4	-1E+10	1	-1E+10	1	-1E+10	1	-1E+10	1	-1E+10	1	-1E+10	1
4901784	44	C	09/17/2016	10:42	-132.516	44.870	0	829.60	0	3.7660	0	34.3010	0	27.260	0	821.233	0	11.8	4	3.7	4	-1E+10	1	-1E+10	1	-1E+10	1	-1E+10	1	-1E+10	1	-1E+10	1
4901784	44	C	09/17/2016	10:42	-132.516	44.870	0	834.80	0	3.7520	0	34.3040	0	27.264	0	826.370	0	11.7	4	3.7	4	-1E+10	1	-1E+10	1	-1E+10	1	-1E+10	1	-1E+10	1	-1E+10	1
4901784	44	C	09/17/2016	10:42	-132.516	44.870	0	840.10	0	3.7570	0	34.3110	0	27.269	0	831.606	0	11.4	4	3.6	4	-1E+10	1	-1E+10	1	-1E+10	1	-1E+10	1	-1E+10	1	-1E+10	1
4901784	44	C	09/17/2016	10:42	-132.516	44.870	0	845.30	0	3.7530	0	34.3130	0	27.271	0	836.743	0	11.3	4	3.6	4	-1E+10	1	-1E+10	1	-1E+10	1	-1E+10	1	-1E+10	1	-1E+10	1
4901784	44	C	09/17/2016	10:42	-132.516	44.870	0	850.50	0	3.7480	0	34.3140	0	27.272	0	841.880	0	11.3	4	3.6	4	-1E+10	1	-1E+10	1	-1E+10	1	-1E+10	1	-1E+10	1	-1E+10	1
4901784	44	C	09/17/2016	10:42	-132.516	44.870	0	854.90	0	3.7330	0	34.3160	0	27.275	0	846.227	0	11.4	4	3.6	4	-1E+10	1	-1E+10	1	-1E+10	1	-1E+10	1	-1E+10	1	-1E+10	1
4901784	44	C	09/17/2016	10:42	-132.516	44.870	0	859.20	0	3.7170	0	34.3180	0	27.279	0	850.474	0	11.4	4	3.6	4	-1E+10	1	-1E+10	1	-1E+10	1	-1E+10	1	-1E+10	1	-1E+10	1
4901784	44	C	09/17/2016	10:42	-132.516	44.870	0	864.50	0	3.7110	0	34.3200	0	27.281	0	855.710	0	11.3	4	3.6	4	-1E+10	1	-1E+10	1	-1E+10	1	-1E+10	1	-1E+10	1	-1E+10	1
4901784	44	C	09/17/2016	10:42	-132.516	44.870	0	869.70	0	3.6990	0	34.3230	0	27.284	0	860.846	0	11.3	4	3.6	4	-1E+10	1	-1E+10	1	-1E+10	1	-1E+10	1	-1E+10	1	-1E+10	1
4901784	44	C	09/17/2016	10:42	-132.516	44.870	0	875.00	0	3.6950	0	34.3250	0	27.286	0	866.081	0	11.4	4	3.6	4	-1E+10	1	-1E+10	1	-1E+10	1	-1E+10	1	-1E+10	1	-1E+10	1
4901784	44	C	09/17/2016	10:42	-132.516	44.870	0	880.20	0	3.6860	0	34.3250	0	27.287	0	871.217	0	11.5	4	3.6	4	-1E+10	1	-1E+10	1	-1E+10	1	-1E+10	1	-1E+10	1	-1E+10	1
4901784	44	C	09/17/2016	10:42	-132.516	44.870	0	885.50	0	3.6710	0	34.3260	0	27.290	0	876.452	0	11.5	4	3.6	4	-1E+10	1	-1E+10	1	-1E+10	1	-1E+10	1	-1E+10	1	-1E+10	1
4901784	44	C	09/17/2016	10:42	-132.516	44.870	0	889.90	0	3.6420	0	34.3290	0	27.295	0	880.798	0	11.5	4	3.6	4	-1E+10	1	-1E+10	1	-1E+10	1	-1E+10	1	-1E+10	1	-1E+10	1
4901784	44	C	09/17/2016	10:42	-132.516	44.870	0	894.30	0	3.6250	0	34.3330	0	27.300	0	885.144	0	11.5	4	3.6	4	-1E+10	1	-1E+10	1	-1E+10	1	-1E+10	1	-1E+10	1	-1E+10	1
4901784	44	C	09/17/2016	10:42	-132.516	44.870	0	899.60	0	3.6120	0	34.3380	0	27.305	0	890.378	0	11.5	4	3.6	4	-1E+10	1	-1E+10	1	-1E+10	1	-1E+10	1	-1E+10	1	-1E+10	1
4901784	44	C	09/17/2016	10:42	-132.516	44.870	0	904.90	0	3.6040	0	34.3430	0	27.310	0	895.612	0	11.4	4	3.6	4	-1E+10	1	-1E+10	1	-1E+10	1	-1E+10	1	-1E+10	1	-1E+10	1
4901784	44	C	09/17/2016	10:42	-132.516	44.870	0	910.40	0	3.5900	0	34.3490	0	27.316	0	901.044	0	11.5	4	3.6	4	-1E+10	1	-1E+10	1	-1E+10	1	-1E+10	1	-1E+10	1	-1E+10	1
4901784	44	C	09/17/2016	10:42	-132.516	44.870	0	914.90	0	3.5730	0	34.3520	0	27.320	0	905.488	0	11.5	4	3.6	4	-1E+10	1	-1E+10	1	-1E+10	1	-1E+10	1	-1E+10	1	-1E+10	1
4901784	44	C	09/17/2016	10:42	-132.516	44.870	0	919.40	0	3.5550	0	34.3550	0	27.324	0	909.932	0	11.5	4	3.6	4	-1E+10	1	-1E+10	1	-1E+10	1	-1E+10	1	-1E+10	1	-1E+10	1
4901784	44	C	09/17/2016	10:42	-132.516	44.870	0	924.90	0	3.5430	0	34.3580	0	27.328	0	915.363	0	11.6	4	3.6	4	-1E+10	1	-1E+10	1	-1E+10	1	-1E+10	1	-1E+10	1	-1E+10	1
4901784	44	C	09/17/2016	10:42	-132.516	44.870	0	930.40	0	3.5270	0	34.3630	0	27.333	0	920.795	0	11.6	4	3.6	4	-1E+10	1	-1E+10	1	-1E+10	1	-1E+10	1	-1E+10	1	-1E+10	1
4901784	44	C	09/17/2016	10:42	-132.516	44.870	0	935.00	0	3.5230	0	34.3640	0	27.335	0	925.337	0	11.7	4	3.7	4	-1E+10	1	-1E+10	1	-1E+10	1	-1E+10	1	-1E+10	1	-1E+10	1
4901784	44	C	09/17/2016	10:42	-132.516	44.870	0	939.60	0	3.5140	0	34.3660	0	27.337	0	929.879	0	11.7	4	3.7	4	-1E+10	1	-1E+10	1	-1E+10	1	-1E+10	1	-1E+10	1	-1E+10	1
4901784	44	C	09/17/2016	10:42	-132.516	44.870	0	945.20	0	3.4950	0	34.3700	0	27.342	0	935.409	0	11.8	4	3.7	4	-1E+10	1	-1E+10	1	-1E+10	1	-1E+10	1	-1E+10	1	-1E+10	1
4901784	44	C	09/17/2016	10:42	-132.516	44.870	0	949.90	0	3.4820	0	34.3720	0	27.345	0	940.050	0	11.8	4	3.7	4	-1E+10	1	-1E+10	1	-1E+10	1	-1E+10	1	-1E+10	1	-1E+10	1
4901784	44	C	09/17/2016	10:42	-132.516	44.870	0	954.60	0	3.4740	0	34.3740	0	27.347	0	944.690	0	12.0	4	3.7	4	-1E+10	1	-1E+10	1	-1E+10	1	-1E+10	1	-1E+10	1	-1E+10	1
4901784	44	C	09/17/2016	10:42	-132.516	44.870	0	960.30	0	3.4680	0	34.3790	0	27.352	0	950.318	0	12.2	4	3.8	4	-1E+10	1	-1E+10	1	-1E+10	1	-1E+10	1	-1E+10	1	-1E+10	1
4901784	44	C	09/17/2016	10:42	-132.516	44.870	0	965.30	0	3.4570	0	34.3830	0	27.356	0	955.255	0	12.3	4	3.8	4	-1E+10	1	-1E+10	1	-1E+10	1	-1E+10	1	-1E+10	1	-1E+10	1
4901784	44	C	09/17/2016	10:42	-132.516	44.870	0	969.80	0	3.4490	0	34.3850	0	27.359	0	959.698	0	12.3	4	3.8	4	-1E+10	1	-1E+10	1	-1E+10	1	-1E+10	1	-1E+10	1	-1E+10	1
4901784	44	C	09/17/2016	10:42	-132.516	44.870	0	974.70	0	3.4340	0	34.3890	0	27.363	0	964.535	0	12.4	4	3.9	4	-1E+10	1	-1E+10	1	-1E+10	1	-1E+10	1	-1E+10	1	-1E+10	1
4901784	44	C	09/17/2016	10:42	-132.516	44.870	0	979.60	0	3.4160	0	34.3910	0	27.367	0	969.373	0	12.3	4	3.8	4	-1E+10	1	-1E+10	1	-1E+10	1	-1E+10	1	-1E+10	1	-1E+10	1
4901784	44	C	09/17/2016	10:42	-132.516	44.870	0	984.60	0	3.4010	0	34.3930	0	27.370	0	974.309	0	12.3	4	3.8	4	-1E+10	1	-1E+10	1	-1E+10	1	-1E+10	1	-1E+10	1	-1E+10	1
4901784	44	C	09/17/2016	10:42	-132.516	44.870	0	989.50	0	3.3860	0	34.3960	0	27.374	0	979.146	0	12.4	4	3.9	4	-1E+10	1	-1E+10	1	-1E+10	1	-1E+10	1	-1E+10	1	-1E+10	1
4901784	44	C	09/17/2016	10:42	-132.516	44.870	0	994.50	0	3.3740	0	34.3980	0	27.376	0	984.082	0	12.4	4	3.9	4	-1E+10	1	-1E+10	1	-1E+10	1	-1E+10	1	-1E+10	1	-1E+10	1
4901784	44	C	09/17/2016	10:42	-132.516	44.870	0	999.50	0	3.3600	0	34.4000	0	27.379	0	989.018	0	12.4	4	3.9	4	-1E+10	1	-1E+10	1	-1E+10	1	-1E+10	1	-1E+10	1	-1E+10	1
4901784	44	C	09/17/2016	10:42	-132.516	44.870	0	1004.60	0	3.3460	0	34.4020	0	27.382	0	994.053	0	12.4	4	3.9	4	-1E+10	1	-1E+10	1	-1E+10	1	-1E+10	1	-1E+10	1	-1E+10	1
4901784	44	C	09/17/2016	10:42	-132.516	44.870	0	1009.70	0	3.3380	0	34.4040	0	27.385	0	999.087	0	12.5	4	3.9	4	-1E+10	1	-1E+10	1	-1E+10	1	-1E+10	1	-1E+10	1	-1E+10	1
4901784	44	C	09/17/2016	10:42	-132.516	44.870	0	1014.90	0	3.3350	0	34.4050	0	27.386	0	1004.220	0	12.7	4	3.9	4	-1E+10	1	-1E+10	1	-1E+10	1	-1E+10	1	-1E+10	1	-1E+10	1
4901784	44	C	09/17/2016	10:42	-132.516	44.870	0	1020.10	0	3.3220	0	34.4080	0	27.389	0	1009.352	0	12.8	4	4.0	4	-1E+10	1	-1E+10	1	-1E+10	1	-1E+10	1	-1E+10	1	-1E+10	1
4901784	44	C	09/17/2016	10:42	-132.516	44.870	0	1025.40	0	3.3150	0	34.4110	0	27.392	0	1014.584	0	13.0	4	4.0	4	-1E+10	1	-1E+10	1	-1E+10	1	-1E+10	1	-1E+10	1	-1E+10	1
4901784	44	C	09/17/2016	10:42	-132.516	44.870	0	1030.60	0	3.3060	0	34.4130	0	27.395	0	1019.716	0	13.2	4	4.1	4	-1E+10	1	-1E+10	1	-1E+10	1	-1E+10	1	-1E+10	1	-1E+10	1
4901784	44	C	09/17/2016	10:42	-132.516	44.870	0	1035.00	0	3.3060	0	34.4160	0	27.397	0	1024.059	0	13.3	4	4.1	4	-1E+10	1	-1E+10	1	-1E+10	1	-1E+10	1	-1E+10	1	-1E+10	1
4901784	44	C	09/17/2016	10:42	-132.516	44.870	0	1039.40	0	3.2960	0	34.4160	0	27.398	0	1028.402	0	13.4	4	4.2	4	-1E+10	1	-1E+10	1	-1E+10	1	-1E+10	1	-1E+10	1	-1E+10	1
4901784	44	C	09/17/2016	10:42	-132.516	44.870	0	1044.80	0	3.2810	0	34.4190	0	27.402	0	1033.731	0	13.6	4	4.2	4	-1E+10	1	-1E+10	1	-1E+10	1	-1E+10	1	-1E+10	1	-1E+10	1
4901784	44	C	09/17/2016	10:42	-132.516	44.870	0	1050.20	0	3.2770	0	34.4210	0	27.404	0	1039.061	0	14.0	4	4.4	4	-1E+10	1	-1E+10	1	-1E+10	1	-1E+10	1	-1E+10	1	-1E+10	1
4901784	44	C	09/17/2016	10:42	-132.516	44.870	0	1054.80	0	3.2870	0	34.4240	0	27.406	0	1043.601	0	14.6	4	4.5	4	-1E+10	1	-1E+10	1	-1E+10	1	-1E+10	1	-1E+10	1	-1E+10	1
4901784	44	C	09/17/2016	10:42	-132.516	44.870	0	1059.40	0	3.3080	0	34.4290	0	27.408	0	1048.140	0	15.0	4	4.7	4	-1E+10	1	-1E+10	1	-1E+10	1	-1E+10	1	-1E+10	1	-1E+10	1
4901784	44	C	09/17/2016	10:42	-132.516	44.870	0	1064.80	0	3.3110	0	34.4310	0	27.409	0	1053.469	0	15.1	4	4.7	4	-1E+10	1	-1E+10	1	-1E+10	1	-1E+10	1	-1E+10	1	-1E+10	1
4901784	44	C	09/17/2016	10:42	-132.516	44.870	0	1070.20	0	3.2960	0	34.4320	0	27.411	0	1058.798	0	15.2	4	4.7	4	-1E+10	1	-1E+10	1	-1E+10	1	-1E+10	1	-1E+10	1	-1E+10	1
4901784	44	C	09/17/2016	10:42	-132.516	44.870	0	1075.50	0	3.2860	0	34.4330	0	27.413	0	1064.028	0	15.2	4	4.7	4	-1E+10	1	-1E+10	1	-1E+10	1	-1E+10	1	-1E+10	1	-1E+10	1
4901784	44	C	09/17/2016	10:42	-132.516	44.870	0	1080.30	0	3.2710	0	34.4330	0	27.415	0	1068.765	0	15.2	4	4.7	4	-1E+10	1	-1E+10	1	-1E+10	1	-1E+10	1	-1E+10	1	-1E+10	1
4901784	44	C	09/17/2016	10:42	-132.516	44.870	0	1085.20	0	3.2600	0	34.4350	0	27.417	0	1073.600	0	15.3	4	4.7	4	-1E+10	1	-1E+10	1	-1E+10	1	-1E+10	1	-1E+10	1	-1E+10	1
4901784	44	C	09/17/2016	10:42	-132.516	44.870	0	1090.00	0	3.2500	0	34.4360	0	27.419	0	1078.336	0	15.4	4	4.8	4	-1E+10	1	-1E+10	1	-1E+10	1	-1E+10	1	-1E+10	1	-1E+10	1
4901784	44	C	09/17/2016	10:42	-132.516	44.870	0	1094.90	0	3.2440	0	34.4370	0	27.420	0	1083.171	0	15.5	4	4.8	4	-1E+10	1	-1E+10	1	-1E+10	1	-1E+10	1	-1E+10	1	-1E+10	1
4901784	44	C	09/17/2016	10:42	-132.516	44.870	0	1099.80	0	3.2370	0	34.4390	0	27.423	0	1088.006	0	15.9	4	4.9	4	-1E+10	1	-1E+10	1	-1E+10	1	-1E+10	1	-1E+10	1	-1E+10	1
4901784	44	C	09/17/2016	10:42	-132.516	44.870	0	1104.80	0	3.2500	0	34.4420	0	27.424	0	1092.940	0	16.2	4	5.0	4	-1E+10	1	-1E+10	1	-1E+10	1	-1E+10	1	-1E+10	1	-1E+10	1
4901784	44	C	09/17/2016	10:42	-132.516	44.870	0	1109.70	0	3.2470	0	34.4430	0	27.425	0	1097.774	0	16.3	4	5.1	4	-1E+10	1	-1E+10	1	-1E+10	1	-1E+10	1	-1E+10	1	-1E+10	1
4901784	44	C	09/17/2016	10:42	-132.516	44.870	0	1114.70	0	3.2400	0	34.4440	0	27.426	0	1102.707	0	16.4	4	5.1	4	-1E+10	1	-1E+10	1	-1E+10	1	-1E+10	1	-1E+10	1	-1E+10	1
4901784	44	C	09/17/2016	10:42	-132.516	44.870	0	1119.60	0	3.2310	0	34.4450	0	27.428	0	1107.542	0	16.4	4	5.1	4	-1E+10	1	-1E+10	1	-1E+10	1	-1E+10	1	-1E+10	1	-1E+10	1
4901784	44	C	09/17/2016	10:42	-132.516	44.870	0	1124.70	0	3.2170	0	34.4460	0	27.430	0	1112.573	0	16.5	4	5.1	4	-1E+10	1	-1E+10	1	-1E+10	1	-1E+10	1	-1E+10	1	-1E+10	1
4901784	44	C	09/17/2016	10:42	-132.516	44.870	0	1129.70	0	3.2070	0	34.4470	0	27.432	0	1117.506	0	16.6	4	5.2	4	-1E+10	1	-1E+10	1	-1E+10	1	-1E+10	1	-1E+10	1	-1E+10	1
4901784	44	C	09/17/2016	10:42	-132.516	44.870	0	1134.80	0	3.1960	0	34.4490	0	27.435	0	1122.537	0	16.7	4	5.2	4	-1E+10	1	-1E+10	1	-1E+10	1	-1E+10	1	-1E+10	1	-1E+10	1
4901784	44	C	09/17/2016	10:42	-132.516	44.870	0	1139.90	0	3.1830	0	34.4490	0	27.436	0	1127.569	0	16.8	4	5.2	4	-1E+10	1	-1E+10	1	-1E+10	1	-1E+10	1	-1E+10	1	-1E+10	1
4901784	44	C	09/17/2016	10:42	-132.516	44.870	0	1145.10	0	3.1740	0	34.4520	0	27.439	0	1132.698	0	17.0	4	5.3	4	-1E+10	1	-1E+10	1	-1E+10	1	-1E+10	1	-1E+10	1	-1E+10	1
4901784	44	C	09/17/2016	10:42	-132.516	44.870	0	1150.20	0	3.1580	0	34.4530	0	27.441	0	1137.729	0	17.0	4	5.3	4	-1E+10	1	-1E+10	1	-1E+10	1	-1E+10	1	-1E+10	1	-1E+10	1
4901784	44	C	09/17/2016	10:42	-132.516	44.870	0	1155.40	0	3.1470	0	34.4540	0	27.443	0	1142.859	0	17.2	4	5.3	4	-1E+10	1	-1E+10	1	-1E+10	1	-1E+10	1	-1E+10	1	-1E+10	1
4901784	44	C	09/17/2016	10:42	-132.516	44.870	0	1160.60	0	3.1490	0	34.4560	0	27.445	0	1147.988	0	17.5	4	5.4	4	-1E+10	1	-1E+10	1	-1E+10	1	-1E+10	1	-1E+10	1	-1E+10	1
4901784	44	C	09/17/2016	10:42	-132.516	44.870	0	1165.00	0	3.1530	0	34.4570	0	27.445	0	1152.328	0	17.6	4	5.4	4	-1E+10	1	-1E+10	1	-1E+10	1	-1E+10	1	-1E+10	1	-1E+10	1
4901784	44	C	09/17/2016	10:42	-132.516	44.870	0	1169.40	0	3.1410	0	34.4580	0	27.447	0	1156.668	0	17.6	4	5.5	4	-1E+10	1	-1E+10	1	-1E+10	1	-1E+10	1	-1E+10	1	-1E+10	1
4901784	44	C	09/17/2016	10:42	-132.516	44.870	0	1174.80	0	3.1360	0	34.4590	0	27.448	0	1161.995	0	17.7	4	5.5	4	-1E+10	1	-1E+10	1	-1E+10	1	-1E+10	1	-1E+10	1	-1E+10	1
4901784	44	C	09/17/2016	10:42	-132.516	44.870	0	1180.30	0	3.1280	0	34.4600	0	27.450	0	1167.419	0	17.8	4	5.5	4	-1E+10	1	-1E+10	1	-1E+10	1	-1E+10	1	-1E+10	1	-1E+10	1
4901784	44	C	09/17/2016	10:42	-132.516	44.870	0	1184.80	0	3.1190	0	34.4600	0	27.451	0	1171.858	0	17.8	4	5.5	4	-1E+10	1	-1E+10	1	-1E+10	1	-1E+10	1	-1E+10	1	-1E+10	1
4901784	44	C	09/17/2016	10:42	-132.516	44.870	0	1189.30	0	3.1140	0	34.4610	0	27.452	0	1176.296	0	17.9	4	5.5	4	-1E+10	1	-1E+10	1	-1E+10	1	-1E+10	1	-1E+10	1	-1E+10	1
4901784	44	C	09/17/2016	10:42	-132.516	44.870	0	1194.70	0	3.1040	0	34.4620	0	27.454	0	1181.622	0	18.0	4	5.6	4	-1E+10	1	-1E+10	1	-1E+10	1	-1E+10	1	-1E+10	1	-1E+10	1
4901784	44	C	09/17/2016	10:42	-132.516	44.870	0	1200.00	0	3.0920	0	34.4640	0	27.457	0	1186.849	0	18.2	4	5.6	4	-1E+10	1	-1E+10	1	-1E+10	1	-1E+10	1	-1E+10	1	-1E+10	1
4901784	44	C	09/17/2016	10:42	-132.516	44.870	0	1205.50	0	3.0880	0	34.4640	0	27.457	0	1192.273	0	18.2	4	5.6	4	-1E+10	1	-1E+10	1	-1E+10	1	-1E+10	1	-1E+10	1	-1E+10	1
4901784	44	C	09/17/2016	10:42	-132.516	44.870	0	1210.00	0	3.0840	0	34.4650	0	27.458	0	1196.711	0	18.4	4	5.7	4	-1E+10	1	-1E+10	1	-1E+10	1	-1E+10	1	-1E+10	1	-1E+10	1
4901784	44	C	09/17/2016	10:42	-132.516	44.870	0	1214.50	0	3.0790	0	34.4660	0	27.459	0	1201.149	0	18.6	4	5.7	4	-1E+10	1	-1E+10	1	-1E+10	1	-1E+10	1	-1E+10	1	-1E+10	1
4901784	44	C	09/17/2016	10:42	-132.516	44.870	0	1220.00	0	3.0630	0	34.4680	0	27.463	0	1206.572	0	18.8	4	5.8	4	-1E+10	1	-1E+10	1	-1E+10	1	-1E+10	1	-1E+10	1	-1E+10	1
4901784	44	C	09/17/2016	10:42	-132.516	44.870	0	1225.50	0	3.0530	0	34.4700	0	27.465	0	1211.996	0	18.9	4	5.9	4	-1E+10	1	-1E+10	1	-1E+10	1	-1E+10	1	-1E+10	1	-1E+10	1
4901784	44	C	09/17/2016	10:42	-132.516	44.870	0	1230.20	0	3.0410	0	34.4710	0	27.467	0	1216.630	0	19.1	4	5.9	4	-1E+10	1	-1E+10	1	-1E+10	1	-1E+10	1	-1E+10	1	-1E+10	1
4901784	44	C	09/17/2016	10:42	-132.516	44.870	0	1235.00	0	3.0290	0	34.4730	0	27.470	0	1221.364	0	19.3	4	6.0	4	-1E+10	1	-1E+10	1	-1E+10	1	-1E+10	1	-1E+10	1	-1E+10	1
4901784	44	C	09/17/2016	10:42	-132.516	44.870	0	1240.10	0	3.0200	0	34.4750	0	27.472	0	1226.392	0	19.6	4	6.1	4	-1E+10	1	-1E+10	1	-1E+10	1	-1E+10	1	-1E+10	1	-1E+10	1
4901784	44	C	09/17/2016	10:42	-132.516	44.870	0	1244.80	0	3.0110	0	34.4770	0	27.475	0	1231.027	0	19.8	4	6.1	4	-1E+10	1	-1E+10	1	-1E+10	1	-1E+10	1	-1E+10	1	-1E+10	1
4901784	44	C	09/17/2016	10:42	-132.516	44.870	0	1249.60	0	3.0020	0	34.4780	0	27.476	0	1235.760	0	20.0	4	6.2	4	-1E+10	1	-1E+10	1	-1E+10	1	-1E+10	1	-1E+10	1	-1E+10	1
4901784	44	C	09/17/2016	10:42	-132.516	44.870	0	1254.50	0	2.9960	0	34.4790	0	27.478	0	1240.591	0	20.1	4	6.2	4	-1E+10	1	-1E+10	1	-1E+10	1	-1E+10	1	-1E+10	1	-1E+10	1
4901784	44	C	09/17/2016	10:42	-132.516	44.870	0	1259.40	0	2.9890	0	34.4800	0	27.479	0	1245.422	0	20.3	4	6.3	4	-1E+10	1	-1E+10	1	-1E+10	1	-1E+10	1	-1E+10	1	-1E+10	1
4901784	44	C	09/17/2016	10:42	-132.516	44.870	0	1264.40	0	2.9850	0	34.4820	0	27.481	0	1250.352	0	20.5	4	6.3	4	-1E+10	1	-1E+10	1	-1E+10	1	-1E+10	1	-1E+10	1	-1E+10	1
4901784	44	C	09/17/2016	10:42	-132.516	44.870	0	1269.40	0	2.9800	0	34.4830	0	27.482	0	1255.281	0	20.7	4	6.4	4	-1E+10	1	-1E+10	1	-1E+10	1	-1E+10	1	-1E+10	1	-1E+10	1
4901784	44	C	09/17/2016	10:42	-132.516	44.870	0	1274.40	0	2.9750	0	34.4840	0	27.484	0	1260.211	0	20.9	4	6.5	4	-1E+10	1	-1E+10	1	-1E+10	1	-1E+10	1	-1E+10	1	-1E+10	1
4901784	44	C	09/17/2016	10:42	-132.516	44.870	0	1279.50	0	2.9690	0	34.4850	0	27.485	0	1265.239	0	21.2	4	6.5	4	-1E+10	1	-1E+10	1	-1E+10	1	-1E+10	1	-1E+10	1	-1E+10	1
4901784	44	C	09/17/2016	10:42	-132.516	44.870	0	1284.50	0	2.9620	0	34.4880	0	27.488	0	1270.168	0	21.3	4	6.6	4	-1E+10	1	-1E+10	1	-1E+10	1	-1E+10	1	-1E+10	1	-1E+10	1
4901784	44	C	09/17/2016	10:42	-132.516	44.870	0	1289.50	0	2.9570	0	34.4880	0	27.488	0	1275.097	0	21.5	4	6.6	4	-1E+10	1	-1E+10	1	-1E+10	1	-1E+10	1	-1E+10	1	-1E+10	1
4901784	44	C	09/17/2016	10:42	-132.516	44.870	0	1294.60	0	2.9520	0	34.4890	0	27.490	0	1280.124	0	21.7	4	6.7	4	-1E+10	1	-1E+10	1	-1E+10	1	-1E+10	1	-1E+10	1	-1E+10	1
4901784	44	C	09/17/2016	10:42	-132.516	44.870	0	1299.70	0	2.9490	0	34.4900	0	27.491	0	1285.152	0	21.9	4	6.7	4	-1E+10	1	-1E+10	1	-1E+10	1	-1E+10	1	-1E+10	1	-1E+10	1
4901784	44	C	09/17/2016	10:42	-132.516	44.870	0	1304.90	0	2.9390	0	34.4910	0	27.493	0	1290.278	0	22.1	4	6.8	4	-1E+10	1	-1E+10	1	-1E+10	1	-1E+10	1	-1E+10	1	-1E+10	1
4901784	44	C	09/17/2016	10:42	-132.516	44.870	0	1310.20	0	2.9340	0	34.4930	0	27.495	0	1295.502	0	22.4	4	6.9	4	-1E+10	1	-1E+10	1	-1E+10	1	-1E+10	1	-1E+10	1	-1E+10	1
4901784	44	C	09/17/2016	10:42	-132.516	44.870	0	1315.40	0	2.9250	0	34.4950	0	27.497	0	1300.628	0	22.6	4	7.0	4	-1E+10	1	-1E+10	1	-1E+10	1	-1E+10	1	-1E+10	1	-1E+10	1
4901784	44	C	09/17/2016	10:42	-132.516	44.870	0	1320.70	0	2.9200	0	34.4960	0	27.498	0	1305.852	0	22.8	4	7.0	4	-1E+10	1	-1E+10	1	-1E+10	1	-1E+10	1	-1E+10	1	-1E+10	1
4901784	44	C	09/17/2016	10:42	-132.516	44.870	0	1325.10	0	2.9180	0	34.4970	0	27.499	0	1310.189	0	22.9	4	7.1	4	-1E+10	1	-1E+10	1	-1E+10	1	-1E+10	1	-1E+10	1	-1E+10	1
4901784	44	C	09/17/2016	10:42	-132.516	44.870	0	1329.40	0	2.9120	0	34.4970	0	27.500	0	1314.427	0	23.0	4	7.1	4	-1E+10	1	-1E+10	1	-1E+10	1	-1E+10	1	-1E+10	1	-1E+10	1
4901784	44	C	09/17/2016	10:42	-132.516	44.870	0	1334.70	0	2.9070	0	34.4980	0	27.501	0	1319.651	0	23.1	4	7.1	4	-1E+10	1	-1E+10	1	-1E+10	1	-1E+10	1	-1E+10	1	-1E+10	1
4901784	44	C	09/17/2016	10:42	-132.516	44.870	0	1340.10	0	2.8970	0	34.4990	0	27.503	0	1324.973	0	23.4	4	7.2	4	-1E+10	1	-1E+10	1	-1E+10	1	-1E+10	1	-1E+10	1	-1E+10	1
4901784	44	C	09/17/2016	10:42	-132.516	44.870	0	1345.40	0	2.8870	0	34.5000	0	27.505	0	1330.196	0	23.6	4	7.3	4	-1E+10	1	-1E+10	1	-1E+10	1	-1E+10	1	-1E+10	1	-1E+10	1
4901784	44	C	09/17/2016	10:42	-132.516	44.870	0	1349.80	0	2.8810	0	34.5020	0	27.507	0	1334.533	0	23.7	4	7.3	4	-1E+10	1	-1E+10	1	-1E+10	1	-1E+10	1	-1E+10	1	-1E+10	1
4901784	44	C	09/17/2016	10:42	-132.516	44.870	0	1354.30	0	2.8770	0	34.5020	0	27.507	0	1338.967	0	23.9	4	7.4	4	-1E+10	1	-1E+10	1	-1E+10	1	-1E+10	1	-1E+10	1	-1E+10	1
4901784	44	C	09/17/2016	10:42	-132.516	44.870	0	1359.70	0	2.8720	0	34.5030	0	27.508	0	1344.289	0	24.1	4	7.4	4	-1E+10	1	-1E+10	1	-1E+10	1	-1E+10	1	-1E+10	1	-1E+10	1
4901784	44	C	09/17/2016	10:42	-132.516	44.870	0	1365.50	0	2.8640	0	34.5040	0	27.510	0	1350.005	0	24.2	4	7.5	4	-1E+10	1	-1E+10	1	-1E+10	1	-1E+10	1	-1E+10	1	-1E+10	1
4901784	44	C	09/17/2016	10:42	-132.516	44.870	0	1370.30	0	2.8520	0	34.5050	0	27.512	0	1354.735	0	24.1	4	7.4	4	-1E+10	1	-1E+10	1	-1E+10	1	-1E+10	1	-1E+10	1	-1E+10	1
4901784	44	C	09/17/2016	10:42	-132.516	44.870	0	1375.20	0	2.8470	0	34.5050	0	27.512	0	1359.563	0	24.0	4	7.4	4	-1E+10	1	-1E+10	1	-1E+10	1	-1E+10	1	-1E+10	1	-1E+10	1
4901784	44	C	09/17/2016	10:42	-132.516	44.870	0	1380.00	0	2.8380	0	34.5040	0	27.512	0	1364.293	0	23.9	4	7.4	4	-1E+10	1	-1E+10	1	-1E+10	1	-1E+10	1	-1E+10	1	-1E+10	1
4901784	44	C	09/17/2016	10:42	-132.516	44.870	0	1384.90	0	2.8310	0	34.5030	0	27.512	0	1369.122	0	23.8	4	7.3	4	-1E+10	1	-1E+10	1	-1E+10	1	-1E+10	1	-1E+10	1	-1E+10	1
4901784	44	C	09/17/2016	10:42	-132.516	44.870	0	1389.80	0	2.7980	0	34.5030	0	27.515	0	1373.950	0	23.6	4	7.3	4	-1E+10	1	-1E+10	1	-1E+10	1	-1E+10	1	-1E+10	1	-1E+10	1
4901784	44	C	09/17/2016	10:42	-132.516	44.870	0	1394.70	0	2.7880	0	34.5020	0	27.515	0	1378.778	0	23.8	4	7.3	4	-1E+10	1	-1E+10	1	-1E+10	1	-1E+10	1	-1E+10	1	-1E+10	1
4901784	44	C	09/17/2016	10:42	-132.516	44.870	0	1399.70	0	2.7930	0	34.5040	0	27.516	0	1383.704	0	24.0	4	7.4	4	-1E+10	1	-1E+10	1	-1E+10	1	-1E+10	1	-1E+10	1	-1E+10	1
4901784	44	C	09/17/2016	10:42	-132.516	44.870	0	1404.70	0	2.7730	0	34.5050	0	27.519	0	1388.631	0	24.2	4	7.4	4	-1E+10	1	-1E+10	1	-1E+10	1	-1E+10	1	-1E+10	1	-1E+10	1
4901784	44	C	09/17/2016	10:42	-132.516	44.870	0	1409.60	0	2.7650	0	34.5060	0	27.521	0	1393.459	0	24.5	4	7.5	4	-1E+10	1	-1E+10	1	-1E+10	1	-1E+10	1	-1E+10	1	-1E+10	1
4901784	44	C	09/17/2016	10:42	-132.516	44.870	0	1414.60	0	2.7550	0	34.5070	0	27.522	0	1398.385	0	24.7	4	7.6	4	-1E+10	1	-1E+10	1	-1E+10	1	-1E+10	1	-1E+10	1	-1E+10	1
4901784	44	C	09/17/2016	10:42	-132.516	44.870	0	1420.50	0	2.7380	0	34.5090	0	27.525	0	1404.198	0	24.7	4	7.6	4	-1E+10	1	-1E+10	1	-1E+10	1	-1E+10	1	-1E+10	1	-1E+10	1
4901784	44	C	09/17/2016	10:42	-132.516	44.870	0	1425.40	0	2.7280	0	34.5080	0	27.525	0	1409.025	0	24.5	4	7.5	4	-1E+10	1	-1E+10	1	-1E+10	1	-1E+10	1	-1E+10	1	-1E+10	1
4901784	44	C	09/17/2016	10:42	-132.516	44.870	0	1430.40	0	2.7070	0	34.5070	0	27.526	0	1413.951	0	24.4	4	7.5	4	-1E+10	1	-1E+10	1	-1E+10	1	-1E+10	1	-1E+10	1	-1E+10	1
4901784	44	C	09/17/2016	10:42	-132.516	44.870	0	1435.30	0	2.6960	0	34.5080	0	27.528	0	1418.778	0	24.5	4	7.5	4	-1E+10	1	-1E+10	1	-1E+10	1	-1E+10	1	-1E+10	1	-1E+10	1
4901784	44	C	09/17/2016	10:42	-132.516	44.870	0	1440.20	0	2.6900	0	34.5080	0	27.529	0	1423.605	0	24.6	4	7.5	4	-1E+10	1	-1E+10	1	-1E+10	1	-1E+10	1	-1E+10	1	-1E+10	1
4901784	44	C	09/17/2016	10:42	-132.516	44.870	0	1445.20	0	2.6810	0	34.5090	0	27.530	0	1428.531	0	24.7	4	7.6	4	-1E+10	1	-1E+10	1	-1E+10	1	-1E+10	1	-1E+10	1	-1E+10	1
4901784	44	C	09/17/2016	10:42	-132.516	44.870	0	1450.20	0	2.6730	0	34.5090	0	27.531	0	1433.456	0	24.9	4	7.6	4	-1E+10	1	-1E+10	1	-1E+10	1	-1E+10	1	-1E+10	1	-1E+10	1
4901784	44	C	09/17/2016	10:42	-132.516	44.870	0	1455.20	0	2.6630	0	34.5100	0	27.533	0	1438.381	0	25.0	4	7.7	4	-1E+10	1	-1E+10	1	-1E+10	1	-1E+10	1	-1E+10	1	-1E+10	1
4901784	44	C	09/17/2016	10:42	-132.516	44.870	0	1460.30	0	2.6560	0	34.5100	0	27.533	0	1443.405	0	25.2	4	7.7	4	-1E+10	1	-1E+10	1	-1E+10	1	-1E+10	1	-1E+10	1	-1E+10	1
4901784	44	C	09/17/2016	10:42	-132.516	44.870	0	1465.30	0	2.6450	0	34.5110	0	27.535	0	1448.330	0	25.3	4	7.8	4	-1E+10	1	-1E+10	1	-1E+10	1	-1E+10	1	-1E+10	1	-1E+10	1
4901784	44	C	09/17/2016	10:42	-132.516	44.870	0	1470.40	0	2.6370	0	34.5120	0	27.537	0	1453.353	0	25.4	4	7.8	4	-1E+10	1	-1E+10	1	-1E+10	1	-1E+10	1	-1E+10	1	-1E+10	1
4901784	44	C	09/17/2016	10:42	-132.516	44.870	0	1475.40	0	2.6330	0	34.5120	0	27.537	0	1458.278	0	25.5	4	7.8	4	-1E+10	1	-1E+10	1	-1E+10	1	-1E+10	1	-1E+10	1	-1E+10	1
4901784	44	C	09/17/2016	10:42	-132.516	44.870	0	1479.50	0	2.6290	0	34.5130	0	27.538	0	1462.316	0	25.6	4	7.8	4	-1E+10	1	-1E+10	1	-1E+10	1	-1E+10	1	-1E+10	1	-1E+10	1
4901784	44	C	09/17/2016	10:42	-132.516	44.870	0	1484.60	0	2.6220	0	34.5130	0	27.539	0	1467.339	0	25.8	4	7.9	4	-1E+10	1	-1E+10	1	-1E+10	1	-1E+10	1	-1E+10	1	-1E+10	1
4901784	44	C	09/17/2016	10:42	-132.516	44.870	0	1490.50	0	2.6150	0	34.5140	0	27.540	0	1473.150	0	26.0	4	8.0	4	-1E+10	1	-1E+10	1	-1E+10	1	-1E+10	1	-1E+10	1	-1E+10	1
4901784	44	C	09/17/2016	10:42	-132.516	44.870	0	1495.20	0	2.6120	0	34.5150	0	27.541	0	1477.779	0	26.2	4	8.0	4	-1E+10	1	-1E+10	1	-1E+10	1	-1E+10	1	-1E+10	1	-1E+10	1
4901784	44	C	09/17/2016	10:42	-132.516	44.870	0	1500.00	0	2.5990	0	34.5150	0	27.542	0	1482.506	0	26.5	4	8.1	4	-1E+10	1	-1E+10	1	-1E+10	1	-1E+10	1	-1E+10	1	-1E+10	1
4901784	44	C	09/17/2016	10:42	-132.516	44.870	0	1505.60	0	2.5780	0	34.5170	0	27.546	0	1488.021	0	26.7	4	8.2	4	-1E+10	1	-1E+10	1	-1E+10	1	-1E+10	1	-1E+10	1	-1E+10	1
4901784	44	C	09/17/2016	10:42	-132.516	44.870	0	1510.80	0	2.5760	0	34.5170	0	27.546	0	1493.142	0	26.9	4	8.2	4	-1E+10	1	-1E+10	1	-1E+10	1	-1E+10	1	-1E+10	1	-1E+10	1
4901784	44	C	09/17/2016	10:42	-132.516	44.870	0	1515.20	0	2.5670	0	34.5180	0	27.548	0	1497.475	0	27.1	4	8.3	4	-1E+10	1	-1E+10	1	-1E+10	1	-1E+10	1	-1E+10	1	-1E+10	1
4901784	44	C	09/17/2016	10:42	-132.516	44.870	0	1520.20	0	2.5510	0	34.5190	0	27.550	0	1502.399	0	27.5	4	8.4	4	-1E+10	1	-1E+10	1	-1E+10	1	-1E+10	1	-1E+10	1	-1E+10	1
4901784	44	C	09/17/2016	10:42	-132.516	44.870	0	1525.10	0	2.5380	0	34.5200	0	27.552	0	1507.224	0	27.9	4	8.5	4	-1E+10	1	-1E+10	1	-1E+10	1	-1E+10	1	-1E+10	1	-1E+10	1
4901784	44	C	09/17/2016	10:42	-132.516	44.870	0	1529.90	0	2.5250	0	34.5220	0	27.554	0	1511.951	0	28.3	4	8.6	4	-1E+10	1	-1E+10	1	-1E+10	1	-1E+10	1	-1E+10	1	-1E+10	1
4901784	44	C	09/17/2016	10:42	-132.516	44.870	0	1534.80	0	2.5070	0	34.5240	0	27.558	0	1516.776	0	28.7	4	8.8	4	-1E+10	1	-1E+10	1	-1E+10	1	-1E+10	1	-1E+10	1	-1E+10	1
4901784	44	C	09/17/2016	10:42	-132.516	44.870	0	1539.80	0	2.4970	0	34.5250	0	27.559	0	1521.699	0	28.9	4	8.8	4	-1E+10	1	-1E+10	1	-1E+10	1	-1E+10	1	-1E+10	1	-1E+10	1
4901784	44	C	09/17/2016	10:42	-132.516	44.870	0	1544.80	0	2.4870	0	34.5260	0	27.561	0	1526.622	0	29.2	4	8.9	4	-1E+10	1	-1E+10	1	-1E+10	1	-1E+10	1	-1E+10	1	-1E+10	1
4901784	44	C	09/17/2016	10:42	-132.516	44.870	0	1549.90	0	2.4770	0	34.5260	0	27.562	0	1531.644	0	29.4	4	9.0	4	-1E+10	1	-1E+10	1	-1E+10	1	-1E+10	1	-1E+10	1	-1E+10	1
4901784	44	C	09/17/2016	10:42	-132.516	44.870	0	1554.90	0	2.4700	0	34.5270	0	27.563	0	1536.567	0	29.6	4	9.0	4	-1E+10	1	-1E+10	1	-1E+10	1	-1E+10	1	-1E+10	1	-1E+10	1
4901784	44	C	09/17/2016	10:42	-132.516	44.870	0	1560.00	0	2.4590	0	34.5270	0	27.564	0	1541.588	0	29.8	4	9.1	4	-1E+10	1	-1E+10	1	-1E+10	1	-1E+10	1	-1E+10	1	-1E+10	1
4901784	44	C	09/17/2016	10:42	-132.516	44.870	0	1565.00	0	2.4450	0	34.5290	0	27.567	0	1546.511	0	30.2	4	9.2	4	-1E+10	1	-1E+10	1	-1E+10	1	-1E+10	1	-1E+10	1	-1E+10	1
4901784	44	C	09/17/2016	10:42	-132.516	44.870	0	1570.10	0	2.4280	0	34.5300	0	27.569	0	1551.532	0	30.6	4	9.3	4	-1E+10	1	-1E+10	1	-1E+10	1	-1E+10	1	-1E+10	1	-1E+10	1
4901784	44	C	09/17/2016	10:42	-132.516	44.870	0	1575.30	0	2.4170	0	34.5320	0	27.572	0	1556.651	0	31.0	4	9.4	4	-1E+10	1	-1E+10	1	-1E+10	1	-1E+10	1	-1E+10	1	-1E+10	1
4901784	44	C	09/17/2016	10:42	-132.516	44.870	0	1580.50	0	2.4070	0	34.5330	0	27.573	0	1561.770	0	31.3	4	9.5	4	-1E+10	1	-1E+10	1	-1E+10	1	-1E+10	1	-1E+10	1	-1E+10	1
4901784	44	C	09/17/2016	10:42	-132.516	44.870	0	1584.90	0	2.4030	0	34.5330	0	27.574	0	1566.102	0	31.5	4	9.6	4	-1E+10	1	-1E+10	1	-1E+10	1	-1E+10	1	-1E+10	1	-1E+10	1
4901784	44	C	09/17/2016	10:42	-132.516	44.870	0	1589.40	0	2.3910	0	34.5340	0	27.576	0	1570.532	0	31.9	4	9.7	4	-1E+10	1	-1E+10	1	-1E+10	1	-1E+10	1	-1E+10	1	-1E+10	1
4901784	44	C	09/17/2016	10:42	-132.516	44.870	0	1594.80	0	2.3720	0	34.5360	0	27.579	0	1575.848	0	32.3	4	9.8	4	-1E+10	1	-1E+10	1	-1E+10	1	-1E+10	1	-1E+10	1	-1E+10	1
4901784	44	C	09/17/2016	10:42	-132.516	44.870	0	1600.20	0	2.3640	0	34.5370	0	27.580	0	1581.163	0	32.6	4	9.9	4	-1E+10	1	-1E+10	1	-1E+10	1	-1E+10	1	-1E+10	1	-1E+10	1
4901784	44	C	09/17/2016	10:42	-132.516	44.870	0	1605.50	0	2.3590	0	34.5380	0	27.581	0	1586.381	0	32.9	4	10.0	4	-1E+10	1	-1E+10	1	-1E+10	1	-1E+10	1	-1E+10	1	-1E+10	1
4901784	44	C	09/17/2016	10:42	-132.516	44.870	0	1610.00	0	2.3530	0	34.5390	0	27.583	0	1590.810	0	33.2	4	10.1	4	-1E+10	1	-1E+10	1	-1E+10	1	-1E+10	1	-1E+10	1	-1E+10	1
4901784	44	C	09/17/2016	10:42	-132.516	44.870	0	1614.50	0	2.3430	0	34.5390	0	27.584	0	1595.239	0	33.6	4	10.2	4	-1E+10	1	-1E+10	1	-1E+10	1	-1E+10	1	-1E+10	1	-1E+10	1
4901784	44	C	09/17/2016	10:42	-132.516	44.870	0	1620.00	0	2.3330	0	34.5410	0	27.586	0	1600.653	0	33.9	4	10.3	4	-1E+10	1	-1E+10	1	-1E+10	1	-1E+10	1	-1E+10	1	-1E+10	1
4901784	44	C	09/17/2016	10:42	-132.516	44.870	0	1625.50	0	2.3260	0	34.5420	0	27.587	0	1606.067	0	34.3	4	10.4	4	-1E+10	1	-1E+10	1	-1E+10	1	-1E+10	1	-1E+10	1	-1E+10	1
4901784	44	C	09/17/2016	10:42	-132.516	44.870	0	1630.00	0	2.3190	0	34.5420	0	27.588	0	1610.496	0	34.6	4	10.5	4	-1E+10	1	-1E+10	1	-1E+10	1	-1E+10	1	-1E+10	1	-1E+10	1
4901784	44	C	09/17/2016	10:42	-132.516	44.870	0	1635.20	0	2.3090	0	34.5440	0	27.590	0	1615.614	0	35.1	4	10.7	4	-1E+10	1	-1E+10	1	-1E+10	1	-1E+10	1	-1E+10	1	-1E+10	1
4901784	44	C	09/17/2016	10:42	-132.516	44.870	0	1640.40	0	2.2980	0	34.5450	0	27.592	0	1620.731	0	35.6	4	10.8	4	-1E+10	1	-1E+10	1	-1E+10	1	-1E+10	1	-1E+10	1	-1E+10	1
4901784	44	C	09/17/2016	10:42	-132.516	44.870	0	1645.20	0	2.2910	0	34.5460	0	27.594	0	1625.455	0	36.0	4	10.9	4	-1E+10	1	-1E+10	1	-1E+10	1	-1E+10	1	-1E+10	1	-1E+10	1
4901784	44	C	09/17/2016	10:42	-132.516	44.870	0	1650.00	0	2.2790	0	34.5470	0	27.595	0	1630.179	0	36.4	4	11.0	4	-1E+10	1	-1E+10	1	-1E+10	1	-1E+10	1	-1E+10	1	-1E+10	1
4901784	44	C	09/17/2016	10:42	-132.516	44.870	0	1654.90	0	2.2700	0	34.5490	0	27.598	0	1635.002	0	36.7	4	11.2	4	-1E+10	1	-1E+10	1	-1E+10	1	-1E+10	1	-1E+10	1	-1E+10	1
4901784	44	C	09/17/2016	10:42	-132.516	44.870	0	1659.90	0	2.2620	0	34.5500	0	27.599	0	1639.922	0	37.1	4	11.3	4	-1E+10	1	-1E+10	1	-1E+10	1	-1E+10	1	-1E+10	1	-1E+10	1
4901784	44	C	09/17/2016	10:42	-132.516	44.870	0	1664.90	0	2.2540	0	34.5510	0	27.601	0	1644.843	0	37.5	4	11.4	4	-1E+10	1	-1E+10	1	-1E+10	1	-1E+10	1	-1E+10	1	-1E+10	1
4901784	44	C	09/17/2016	10:42	-132.516	44.870	0	1669.90	0	2.2490	0	34.5520	0	27.602	0	1649.763	0	37.8	4	11.5	4	-1E+10	1	-1E+10	1	-1E+10	1	-1E+10	1	-1E+10	1	-1E+10	1
4901784	44	C	09/17/2016	10:42	-132.516	44.870	0	1674.90	0	2.2390	0	34.5530	0	27.604	0	1654.683	0	38.2	4	11.6	4	-1E+10	1	-1E+10	1	-1E+10	1	-1E+10	1	-1E+10	1	-1E+10	1
4901784	44	C	09/17/2016	10:42	-132.516	44.870	0	1680.00	0	2.2350	0	34.5530	0	27.604	0	1659.702	0	38.4	4	11.7	4	-1E+10	1	-1E+10	1	-1E+10	1	-1E+10	1	-1E+10	1	-1E+10	1
4901784	44	C	09/17/2016	10:42	-132.516	44.870	0	1685.00	0	2.2290	0	34.5540	0	27.605	0	1664.622	0	38.8	4	11.8	4	-1E+10	1	-1E+10	1	-1E+10	1	-1E+10	1	-1E+10	1	-1E+10	1
4901784	44	C	09/17/2016	10:42	-132.516	44.870	0	1690.30	0	2.2240	0	34.5550	0	27.606	0	1669.837	0	39.2	4	11.9	4	-1E+10	1	-1E+10	1	-1E+10	1	-1E+10	1	-1E+10	1	-1E+10	1
4901784	44	C	09/17/2016	10:42	-132.516	44.870	0	1695.50	0	2.2160	0	34.5570	0	27.609	0	1674.953	0	39.5	4	12.0	4	-1E+10	1	-1E+10	1	-1E+10	1	-1E+10	1	-1E+10	1	-1E+10	1
4901784	44	C	09/17/2016	10:42	-132.516	44.870	0	1699.90	0	2.2110	0	34.5570	0	27.609	0	1679.282	0	39.9	4	12.1	4	-1E+10	1	-1E+10	1	-1E+10	1	-1E+10	1	-1E+10	1	-1E+10	1
4901784	44	C	09/17/2016	10:42	-132.516	44.870	0	1704.40	0	2.2040	0	34.5580	0	27.610	0	1683.710	0	40.2	4	12.2	4	-1E+10	1	-1E+10	1	-1E+10	1	-1E+10	1	-1E+10	1	-1E+10	1
4901784	44	C	09/17/2016	10:42	-132.516	44.870	0	1709.70	0	2.1960	0	34.5590	0	27.612	0	1688.925	0	40.7	4	12.3	4	-1E+10	1	-1E+10	1	-1E+10	1	-1E+10	1	-1E+10	1	-1E+10	1
4901784	44	C	09/17/2016	10:42	-132.516	44.870	0	1715.00	0	2.1880	0	34.5610	0	27.614	0	1694.139	0	41.0	4	12.4	4	-1E+10	1	-1E+10	1	-1E+10	1	-1E+10	1	-1E+10	1	-1E+10	1
4901784	44	C	09/17/2016	10:42	-132.516	44.870	0	1720.30	0	2.1810	0	34.5620	0	27.616	0	1699.353	0	41.4	4	12.5	4	-1E+10	1	-1E+10	1	-1E+10	1	-1E+10	1	-1E+10	1	-1E+10	1
4901784	44	C	09/17/2016	10:42	-132.516	44.870	0	1725.50	0	2.1760	0	34.5630	0	27.617	0	1704.469	0	41.8	4	12.7	4	-1E+10	1	-1E+10	1	-1E+10	1	-1E+10	1	-1E+10	1	-1E+10	1
4901784	44	C	09/17/2016	10:42	-132.516	44.870	0	1730.30	0	2.1680	0	34.5640	0	27.618	0	1709.191	0	42.2	4	12.8	4	-1E+10	1	-1E+10	1	-1E+10	1	-1E+10	1	-1E+10	1	-1E+10	1
4901784	44	C	09/17/2016	10:42	-132.516	44.870	0	1735.10	0	2.1630	0	34.5650	0	27.620	0	1713.913	0	42.5	4	12.9	4	-1E+10	1	-1E+10	1	-1E+10	1	-1E+10	1	-1E+10	1	-1E+10	1
4901784	44	C	09/17/2016	10:42	-132.516	44.870	0	1739.90	0	2.1570	0	34.5660	0	27.621	0	1718.635	0	42.8	4	13.0	4	-1E+10	1	-1E+10	1	-1E+10	1	-1E+10	1	-1E+10	1	-1E+10	1
4901784	44	C	09/17/2016	10:42	-132.516	44.870	0	1744.70	0	2.1520	0	34.5660	0	27.621	0	1723.357	0	43.2	4	13.1	4	-1E+10	1	-1E+10	1	-1E+10	1	-1E+10	1	-1E+10	1	-1E+10	1
4901784	44	C	09/17/2016	10:42	-132.516	44.870	0	1749.60	0	2.1440	0	34.5670	0	27.623	0	1728.177	0	43.6	4	13.2	4	-1E+10	1	-1E+10	1	-1E+10	1	-1E+10	1	-1E+10	1	-1E+10	1
4901784	44	C	09/17/2016	10:42	-132.516	44.870	0	1754.60	0	2.1390	0	34.5690	0	27.625	0	1733.096	0	43.8	4	13.2	4	-1E+10	1	-1E+10	1	-1E+10	1	-1E+10	1	-1E+10	1	-1E+10	1
4901784	44	C	09/17/2016	10:42	-132.516	44.870	0	1759.50	0	2.1370	0	34.5690	0	27.625	0	1737.916	0	44.0	4	13.3	4	-1E+10	1	-1E+10	1	-1E+10	1	-1E+10	1	-1E+10	1	-1E+10	1
4901784	44	C	09/17/2016	10:42	-132.516	44.870	0	1764.50	0	2.1310	0	34.5690	0	27.625	0	1742.834	0	44.3	4	13.4	4	-1E+10	1	-1E+10	1	-1E+10	1	-1E+10	1	-1E+10	1	-1E+10	1
4901784	44	C	09/17/2016	10:42	-132.516	44.870	0	1769.60	0	2.1260	0	34.5700	0	27.627	0	1747.850	0	44.5	4	13.5	4	-1E+10	1	-1E+10	1	-1E+10	1	-1E+10	1	-1E+10	1	-1E+10	1
4901784	44	C	09/17/2016	10:42	-132.516	44.870	0	1774.70	0	2.1240	0	34.5710	0	27.628	0	1752.866	0	44.7	4	13.5	4	-1E+10	1	-1E+10	1	-1E+10	1	-1E+10	1	-1E+10	1	-1E+10	1
4901784	44	C	09/17/2016	10:42	-132.516	44.870	0	1779.90	0	2.1220	0	34.5710	0	27.628	0	1757.981	0	45.0	4	13.6	4	-1E+10	1	-1E+10	1	-1E+10	1	-1E+10	1	-1E+10	1	-1E+10	1
4901784	44	C	09/17/2016	10:42	-132.516	44.870	0	1785.00	0	2.1170	0	34.5710	0	27.628	0	1762.997	0	45.4	4	13.7	4	-1E+10	1	-1E+10	1	-1E+10	1	-1E+10	1	-1E+10	1	-1E+10	1
4901784	44	C	09/17/2016	10:42	-132.516	44.870	0	1790.20	0	2.1110	0	34.5730	0	27.630	0	1768.111	0	45.8	4	13.8	4	-1E+10	1	-1E+10	1	-1E+10	1	-1E+10	1	-1E+10	1	-1E+10	1
4901784	44	C	09/17/2016	10:42	-132.516	44.870	0	1795.40	0	2.1060	0	34.5740	0	27.632	0	1773.225	0	46.1	4	13.9	4	-1E+10	1	-1E+10	1	-1E+10	1	-1E+10	1	-1E+10	1	-1E+10	1
4901784	44	C	09/17/2016	10:42	-132.516	44.870	0	1800.60	0	2.1020	0	34.5750	0	27.633	0	1778.339	0	46.4	4	14.0	4	-1E+10	1	-1E+10	1	-1E+10	1	-1E+10	1	-1E+10	1	-1E+10	1
4901784	44	C	09/17/2016	10:42	-132.516	44.870	0	1805.00	0	2.0970	0	34.5750	0	27.633	0	1782.667	0	46.6	4	14.1	4	-1E+10	1	-1E+10	1	-1E+10	1	-1E+10	1	-1E+10	1	-1E+10	1
4901784	44	C	09/17/2016	10:42	-132.516	44.870	0	1809.40	0	2.0920	0	34.5760	0	27.634	0	1786.994	0	46.8	4	14.1	4	-1E+10	1	-1E+10	1	-1E+10	1	-1E+10	1	-1E+10	1	-1E+10	1
4901784	44	C	09/17/2016	10:42	-132.516	44.870	0	1814.70	0	2.0920	0	34.5760	0	27.634	0	1792.206	0	46.9	4	14.2	4	-1E+10	1	-1E+10	1	-1E+10	1	-1E+10	1	-1E+10	1	-1E+10	1
4901784	44	C	09/17/2016	10:42	-132.516	44.870	0	1820.00	0	2.0910	0	34.5760	0	27.635	0	1797.418	0	47.2	4	14.3	4	-1E+10	1	-1E+10	1	-1E+10	1	-1E+10	1	-1E+10	1	-1E+10	1
4901784	44	C	09/17/2016	10:42	-132.516	44.870	0	1825.40	0	2.0850	0	34.5770	0	27.636	0	1802.728	0	47.5	4	14.4	4	-1E+10	1	-1E+10	1	-1E+10	1	-1E+10	1	-1E+10	1	-1E+10	1
4901784	44	C	09/17/2016	10:42	-132.516	44.870	0	1830.70	0	2.0810	0	34.5780	0	27.637	0	1807.939	0	47.8	4	14.4	4	-1E+10	1	-1E+10	1	-1E+10	1	-1E+10	1	-1E+10	1	-1E+10	1
4901784	44	C	09/17/2016	10:42	-132.516	44.870	0	1835.20	0	2.0790	0	34.5780	0	27.637	0	1812.364	0	48.0	4	14.5	4	-1E+10	1	-1E+10	1	-1E+10	1	-1E+10	1	-1E+10	1	-1E+10	1
4901784	44	C	09/17/2016	10:42	-132.516	44.870	0	1839.60	0	2.0720	0	34.5790	0	27.639	0	1816.691	0	48.4	4	14.6	4	-1E+10	1	-1E+10	1	-1E+10	1	-1E+10	1	-1E+10	1	-1E+10	1
4901784	44	C	09/17/2016	10:42	-132.516	44.870	0	1845.10	0	2.0660	0	34.5800	0	27.640	0	1822.099	0	48.8	4	14.7	4	-1E+10	1	-1E+10	1	-1E+10	1	-1E+10	1	-1E+10	1	-1E+10	1
4901784	44	C	09/17/2016	10:42	-132.516	44.870	0	1849.70	0	2.0610	0	34.5810	0	27.641	0	1826.621	0	49.0	4	14.8	4	-1E+10	1	-1E+10	1	-1E+10	1	-1E+10	1	-1E+10	1	-1E+10	1
4901784	44	C	09/17/2016	10:42	-132.516	44.870	0	1854.10	0	2.0560	0	34.5810	0	27.641	0	1830.948	0	49.2	4	14.9	4	-1E+10	1	-1E+10	1	-1E+10	1	-1E+10	1	-1E+10	1	-1E+10	1
4901784	44	C	09/17/2016	10:42	-132.516	44.870	0	1859.50	0	2.0530	0	34.5820	0	27.643	0	1836.257	0	49.4	4	14.9	4	-1E+10	1	-1E+10	1	-1E+10	1	-1E+10	1	-1E+10	1	-1E+10	1
4901784	44	C	09/17/2016	10:42	-132.516	44.870	0	1864.30	0	2.0500	0	34.5820	0	27.643	0	1840.976	0	49.7	4	15.0	4	-1E+10	1	-1E+10	1	-1E+10	1	-1E+10	1	-1E+10	1	-1E+10	1
4901784	44	C	09/17/2016	10:42	-132.516	44.870	0	1870.00	0	2.0460	0	34.5830	0	27.644	0	1846.580	0	50.1	4	15.1	4	-1E+10	1	-1E+10	1	-1E+10	1	-1E+10	1	-1E+10	1	-1E+10	1
4901784	44	C	09/17/2016	10:42	-132.516	44.870	0	1875.70	0	2.0390	0	34.5840	0	27.645	0	1852.184	0	50.4	4	15.2	4	-1E+10	1	-1E+10	1	-1E+10	1	-1E+10	1	-1E+10	1	-1E+10	1
4901784	44	C	09/17/2016	10:42	-132.516	44.870	0	1880.60	0	2.0350	0	34.5850	0	27.646	0	1857.001	0	50.6	4	15.3	4	-1E+10	1	-1E+10	1	-1E+10	1	-1E+10	1	-1E+10	1	-1E+10	1
4901784	44	C	09/17/2016	10:42	-132.516	44.870	0	1885.50	0	2.0330	0	34.5850	0	27.647	0	1861.818	0	50.9	4	15.4	4	-1E+10	1	-1E+10	1	-1E+10	1	-1E+10	1	-1E+10	1	-1E+10	1
4901784	44	C	09/17/2016	10:42	-132.516	44.870	0	1890.40	0	2.0290	0	34.5850	0	27.647	0	1866.635	0	51.1	4	15.4	4	-1E+10	1	-1E+10	1	-1E+10	1	-1E+10	1	-1E+10	1	-1E+10	1
4901784	44	C	09/17/2016	10:42	-132.516	44.870	0	1895.30	0	2.0270	0	34.5860	0	27.648	0	1871.452	0	51.4	4	15.5	4	-1E+10	1	-1E+10	1	-1E+10	1	-1E+10	1	-1E+10	1	-1E+10	1
4901784	44	C	09/17/2016	10:42	-132.516	44.870	0	1900.20	0	2.0200	0	34.5870	0	27.649	0	1876.269	0	51.7	4	15.6	4	-1E+10	1	-1E+10	1	-1E+10	1	-1E+10	1	-1E+10	1	-1E+10	1
4901784	44	C	09/17/2016	10:42	-132.516	44.870	0	1905.20	0	2.0180	0	34.5870	0	27.649	0	1881.184	0	51.9	4	15.6	4	-1E+10	1	-1E+10	1	-1E+10	1	-1E+10	1	-1E+10	1	-1E+10	1
4901784	44	C	09/17/2016	10:42	-132.516	44.870	0	1910.30	0	2.0160	0	34.5870	0	27.650	0	1886.197	0	52.1	4	15.7	4	-1E+10	1	-1E+10	1	-1E+10	1	-1E+10	1	-1E+10	1	-1E+10	1
4901784	44	C	09/17/2016	10:42	-132.516	44.870	0	1915.30	0	2.0110	0	34.5880	0	27.651	0	1891.112	0	52.4	4	15.8	4	-1E+10	1	-1E+10	1	-1E+10	1	-1E+10	1	-1E+10	1	-1E+10	1
4901784	44	C	09/17/2016	10:42	-132.516	44.870	0	1920.40	0	2.0100	0	34.5890	0	27.652	0	1896.124	0	52.5	4	15.8	4	-1E+10	1	-1E+10	1	-1E+10	1	-1E+10	1	-1E+10	1	-1E+10	1
4901784	44	C	09/17/2016	10:42	-132.516	44.870	0	1925.40	0	2.0080	0	34.5890	0	27.652	0	1901.039	0	52.7	4	15.9	4	-1E+10	1	-1E+10	1	-1E+10	1	-1E+10	1	-1E+10	1	-1E+10	1
4901784	44	C	09/17/2016	10:42	-132.516	44.870	0	1930.50	0	2.0060	0	34.5890	0	27.652	0	1906.052	0	52.9	4	15.9	4	-1E+10	1	-1E+10	1	-1E+10	1	-1E+10	1	-1E+10	1	-1E+10	1
4901784	44	C	09/17/2016	10:42	-132.516	44.870	0	1935.50	0	2.0040	0	34.5900	0	27.653	0	1910.966	0	53.2	4	16.0	4	-1E+10	1	-1E+10	1	-1E+10	1	-1E+10	1	-1E+10	1	-1E+10	1
4901784	44	C	09/17/2016	10:42	-132.516	44.870	0	1940.60	0	1.9990	0	34.5900	0	27.654	0	1915.978	0	53.5	4	16.1	4	-1E+10	1	-1E+10	1	-1E+10	1	-1E+10	1	-1E+10	1	-1E+10	1
4901784	44	C	09/17/2016	10:42	-132.516	44.870	0	1945.80	0	1.9960	0	34.5910	0	27.655	0	1921.089	0	53.9	4	16.2	4	-1E+10	1	-1E+10	1	-1E+10	1	-1E+10	1	-1E+10	1	-1E+10	1
4901784	44	C	09/17/2016	10:42	-132.516	44.870	0	1950.00	0	1.9920	0	34.5920	0	27.656	0	1925.217	0	54.1	4	16.3	4	-1E+10	1	-1E+10	1	-1E+10	1	-1E+10	1	-1E+10	1	-1E+10	1
4901784	44	C	09/17/2016	10:42	-132.516	44.870	0	1954.40	0	1.9900	0	34.5920	0	27.656	0	1929.541	0	54.3	4	16.4	4	-1E+10	1	-1E+10	1	-1E+10	1	-1E+10	1	-1E+10	1	-1E+10	1
4901784	44	C	09/17/2016	10:42	-132.516	44.870	0	1959.60	0	1.9880	0	34.5930	0	27.657	0	1934.651	0	54.6	4	16.5	4	-1E+10	1	-1E+10	1	-1E+10	1	-1E+10	1	-1E+10	1	-1E+10	1
4901784	44	C	09/17/2016	10:42	-132.516	44.870	0	1964.80	0	1.9870	0	34.5940	0	27.658	0	1939.761	0	54.9	4	16.5	4	-1E+10	1	-1E+10	1	-1E+10	1	-1E+10	1	-1E+10	1	-1E+10	1
4901784	44	C	09/17/2016	10:42	-132.516	44.870	0	1970.00	0	1.9860	0	34.5950	0	27.659	0	1944.871	0	55.2	4	16.6	4	-1E+10	1	-1E+10	1	-1E+10	1	-1E+10	1	-1E+10	1	-1E+10	1
4901784	44	C	09/17/2016	10:42	-132.516	44.870	0	1975.30	0	1.9840	0	34.5950	0	27.659	0	1950.079	0	55.4	4	16.7	4	-1E+10	1	-1E+10	1	-1E+10	1	-1E+10	1	-1E+10	1	-1E+10	1
4901784	44	C	09/17/2016	10:42	-132.516	44.870	0	1980.70	0	1.9790	0	34.5960	0	27.660	0	1955.385	0	55.7	4	16.8	4	-1E+10	1	-1E+10	1	-1E+10	1	-1E+10	1	-1E+10	1	-1E+10	1
4901784	44	C	09/17/2016	10:42	-132.516	44.870	0	1985.20	0	1.9750	0	34.5970	0	27.661	0	1959.807	0	56.0	4	16.9	4	-1E+10	1	-1E+10	1	-1E+10	1	-1E+10	1	-1E+10	1	-1E+10	1
4901784	44	C	09/17/2016	10:42	-132.516	44.870	0	1989.60	0	1.9720	0	34.5970	0	27.662	0	1964.131	0	56.2	4	16.9	4	-1E+10	1	-1E+10	1	-1E+10	1	-1E+10	1	-1E+10	1	-1E+10	1
4901784	44	C	09/17/2016	10:42	-132.516	44.870	0	1995.00	0	1.9710	0	34.5980	0	27.662	0	1969.437	0	56.3	4	17.0	4	-1E+10	1	-1E+10	1	-1E+10	1	-1E+10	1	-1E+10	1	-1E+10	1
4901784	44	C	09/17/2016	10:42	-132.516	44.870	0	2000.40	0	1.9690	0	34.5980	0	27.663	0	1974.743	0	56.5	4	17.0	4	-1E+10	1	-1E+10	1	-1E+10	1	-1E+10	1	-1E+10	1	-1E+10	1
4901784	44	C	09/17/2016	10:42	-132.516	44.870	0	2005.30	0	1.9670	0	34.5980	0	27.663	0	1979.557	0	56.8	4	17.1	4	-1E+10	1	-1E+10	1	-1E+10	1	-1E+10	1	-1E+10	1	-1E+10	1
4901784	44	C	09/17/2016	10:42	-132.516	44.870	0	2009.40	0	1.9620	0	34.5990	0	27.664	0	1983.585	0	57.0	4	17.2	4	-1E+10	1	-1E+10	1	-1E+10	1	-1E+10	1	-1E+10	1	-1E+10	1
4901784	44	C	09/17/2016	10:42	-132.516	44.870	0	2015.20	0	1.9610	0	34.5990	0	27.664	0	1989.284	0	57.1	4	17.2	4	-1E+10	1	-1E+10	1	-1E+10	1	-1E+10	1	-1E+10	1	-1E+10	1
4901784	44	C	09/17/2016	10:42	-132.516	44.870	0	2020.00	0	1.9600	0	34.5990	0	27.664	0	1993.999	0	57.2	4	17.2	4	-1E+10	1	-1E+10	1	-1E+10	1	-1E+10	1	-1E+10	1	-1E+10	1
4901784	44	C	09/17/2016	10:42	-132.516	44.870	0																										
4901784	45	C	09/27/2016	10:49	-132.381	44.869	0	2.40	0	17.9730	0	32.7720	0	23.574	0	2.381	0	230.6	4	97.0	4	-1E+10	1	-1E+10	1	-1E+10	1	-1E+10	1	-1E+10	1	-1E+10	1
4901784	45	C	09/27/2016	10:49	-132.381	44.869	0	4.20	0	17.9740	0	32.7720	0	23.574	0	4.166	0	230.6	4	97.1	4	-1E+10	1	-1E+10	1	-1E+10	1	-1E+10	1	-1E+10	1	-1E+10	1
4901784	45	C	09/27/2016	10:49	-132.381	44.869	0	6.30	0	17.9730	0	32.7720	0	23.574	0	6.249	0	230.4	4	97.0	4	-1E+10	1	-1E+10	1	-1E+10	1	-1E+10	1	-1E+10	1	-1E+10	1
4901784	45	C	09/27/2016	10:49	-132.381	44.869	0	8.50	0	17.9730	0	32.7720	0	23.574	0	8.431	0	230.2	4	96.9	4	-1E+10	1	-1E+10	1	-1E+10	1	-1E+10	1	-1E+10	1	-1E+10	1
4901784	45	C	09/27/2016	10:49	-132.381	44.869	0	9.10	0	17.9730	0	32.7720	0	23.574	0	9.026	0	230.2	4	96.9	4	-1E+10	1	-1E+10	1	-1E+10	1	-1E+10	1	-1E+10	1	-1E+10	1
4901784	45	C	09/27/2016	10:49	-132.381	44.869	0	10.60	0	17.9730	0	32.7720	0	23.574	0	10.514	0	230.1	4	96.8	4	-1E+10	1	-1E+10	1	-1E+10	1	-1E+10	1	-1E+10	1	-1E+10	1
4901784	45	C	09/27/2016	10:49	-132.381	44.869	0	12.20	0	17.9730	0	32.7720	0	23.575	0	12.101	0	230.0	4	96.8	4	-1E+10	1	-1E+10	1	-1E+10	1	-1E+10	1	-1E+10	1	-1E+10	1
4901784	45	C	09/27/2016	10:49	-132.381	44.869	0	13.70	0	17.9730	0	32.7710	0	23.574	0	13.589	0	230.0	4	96.8	4	-1E+10	1	-1E+10	1	-1E+10	1	-1E+10	1	-1E+10	1	-1E+10	1
4901784	45	C	09/27/2016	10:49	-132.381	44.869	0	15.10	0	17.9700	0	32.7720	0	23.575	0	14.977	0	229.6	4	96.6	4	-1E+10	1	-1E+10	1	-1E+10	1	-1E+10	1	-1E+10	1	-1E+10	1
4901784	45	C	09/27/2016	10:49	-132.381	44.869	0	16.70	0	17.9750	0	32.7710	0	23.573	0	16.564	0	229.5	4	96.6	4	-1E+10	1	-1E+10	1	-1E+10	1	-1E+10	1	-1E+10	1	-1E+10	1
4901784	45	C	09/27/2016	10:49	-132.381	44.869	0	18.30	0	17.9750	0	32.7710	0	23.574	0	18.151	0	229.5	4	96.6	4	-1E+10	1	-1E+10	1	-1E+10	1	-1E+10	1	-1E+10	1	-1E+10	1
4901784	45	C	09/27/2016	10:49	-132.381	44.869	0	20.00	0	17.9770	0	32.7710	0	23.573	0	19.837	0	229.3	4	96.5	4	-1E+10	1	-1E+10	1	-1E+10	1	-1E+10	1	-1E+10	1	-1E+10	1
4901784	45	C	09/27/2016	10:49	-132.381	44.869	0	21.60	0	17.9770	0	32.7700	0	23.572	0	21.424	0	229.1	4	96.4	4	-1E+10	1	-1E+10	1	-1E+10	1	-1E+10	1	-1E+10	1	-1E+10	1
4901784	45	C	09/27/2016	10:49	-132.381	44.869	0	23.30	0	17.9760	0	32.7690	0	23.572	0	23.110	0	229.2	4	96.5	4	-1E+10	1	-1E+10	1	-1E+10	1	-1E+10	1	-1E+10	1	-1E+10	1
4901784	45	C	09/27/2016	10:49	-132.381	44.869	0	24.90	0	17.9760	0	32.7680	0	23.571	0	24.697	0	229.1	4	96.4	4	-1E+10	1	-1E+10	1	-1E+10	1	-1E+10	1	-1E+10	1	-1E+10	1
4901784	45	C	09/27/2016	10:49	-132.381	44.869	0	26.50	0	17.9770	0	32.7670	0	23.570	0	26.284	0	229.3	4	96.5	4	-1E+10	1	-1E+10	1	-1E+10	1	-1E+10	1	-1E+10	1	-1E+10	1
4901784	45	C	09/27/2016	10:49	-132.381	44.869	0	28.40	0	17.9760	0	32.7650	0	23.569	0	28.168	0	229.8	4	96.7	4	-1E+10	1	-1E+10	1	-1E+10	1	-1E+10	1	-1E+10	1	-1E+10	1
4901784	45	C	09/27/2016	10:49	-132.381	44.869	0	28.80	0	17.9770	0	32.7640	0	23.568	0	28.565	0	230.1	4	96.8	4	-1E+10	1	-1E+10	1	-1E+10	1	-1E+10	1	-1E+10	1	-1E+10	1
4901784	45	C	09/27/2016	10:49	-132.381	44.869	0	30.10	0	17.9770	0	32.7610	0	23.566	0	29.854	0	230.9	4	97.2	4	-1E+10	1	-1E+10	1	-1E+10	1	-1E+10	1	-1E+10	1	-1E+10	1
4901784	45	C	09/27/2016	10:49	-132.381	44.869	0	31.40	0	17.9210	0	32.7570	0	23.576	0	31.143	0	231.9	4	97.5	4	-1E+10	1	-1E+10	1	-1E+10	1	-1E+10	1	-1E+10	1	-1E+10	1
4901784	45	C	09/27/2016	10:49	-132.381	44.869	0	32.60	0	17.9240	0	32.7500	0	23.570	0	32.333	0	234.2	4	98.4	4	-1E+10	1	-1E+10	1	-1E+10	1	-1E+10	1	-1E+10	1	-1E+10	1
4901784	45	C	09/27/2016	10:49	-132.381	44.869	0	34.00	0	17.7540	0	32.7410	0	23.605	0	33.722	0	237.3	4	99.4	4	-1E+10	1	-1E+10	1	-1E+10	1	-1E+10	1	-1E+10	1	-1E+10	1
4901784	45	C	09/27/2016	10:49	-132.381	44.869	0	35.40	0	17.4350	0	32.7240	0	23.668	0	35.110	0	242.7	4	101.1	4	-1E+10	1	-1E+10	1	-1E+10	1	-1E+10	1	-1E+10	1	-1E+10	1
4901784	45	C	09/27/2016	10:49	-132.381	44.869	0	36.90	0	16.1890	0	32.8090	0	24.022	0	36.598	0	250.1	4	101.7	4	-1E+10	1	-1E+10	1	-1E+10	1	-1E+10	1	-1E+10	1	-1E+10	1
4901784	45	C	09/27/2016	10:49	-132.381	44.869	0	38.60	0	15.8010	0	32.8050	0	24.107	0	38.284	0	255.1	4	103.0	4	-1E+10	1	-1E+10	1	-1E+10	1	-1E+10	1	-1E+10	1	-1E+10	1
4901784	45	C	09/27/2016	10:49	-132.381	44.869	0	40.30	0	14.5580	0	32.8510	0	24.412	0	39.969	0	262.4	4	103.4	4	-1E+10	1	-1E+10	1	-1E+10	1	-1E+10	1	-1E+10	1	-1E+10	1
4901784	45	C	09/27/2016	10:49	-132.381	44.869	0	42.20	0	14.2990	0	32.8450	0	24.462	0	41.854	0	265.0	4	103.9	4	-1E+10	1	-1E+10	1	-1E+10	1	-1E+10	1	-1E+10	1	-1E+10	1
4901784	45	C	09/27/2016	10:49	-132.381	44.869	0	43.90	0	13.8570	0	32.8490	0	24.557	0	43.540	0	267.5	4	104.0	4	-1E+10	1	-1E+10	1	-1E+10	1	-1E+10	1	-1E+10	1	-1E+10	1
4901784	45	C	09/27/2016	10:49	-132.381	44.869	0	45.70	0	13.3850	0	32.8510	0	24.654	0	45.325	0	268.9	4	103.5	4	-1E+10	1	-1E+10	1	-1E+10	1	-1E+10	1	-1E+10	1	-1E+10	1
4901784	45	C	09/27/2016	10:49	-132.381	44.869	0	48.00	0	12.7370	0	32.8350	0	24.769	0	47.605	0	272.3	4	103.4	4	-1E+10	1	-1E+10	1	-1E+10	1	-1E+10	1	-1E+10	1	-1E+10	1
4901784	45	C	09/27/2016	10:49	-132.381	44.869	0	49.90	0	12.2540	0	32.8210	0	24.851	0	49.490	0	274.9	4	103.4	4	-1E+10	1	-1E+10	1	-1E+10	1	-1E+10	1	-1E+10	1	-1E+10	1
4901784	45	C	09/27/2016	10:49	-132.381	44.869	0	51.40	0	12.0550	0	32.8230	0	24.890	0	50.977	0	275.3	4	103.1	4	-1E+10	1	-1E+10	1	-1E+10	1	-1E+10	1	-1E+10	1	-1E+10	1
4901784	45	C	09/27/2016	10:49	-132.381	44.869	0	53.00	0	11.7060	0	32.8110	0	24.946	0	52.564	0	275.5	4	102.4	4	-1E+10	1	-1E+10	1	-1E+10	1	-1E+10	1	-1E+10	1	-1E+10	1
4901784	45	C	09/27/2016	10:49	-132.381	44.869	0	54.60	0	11.5160	0	32.8090	0	24.979	0	54.150	0	275.2	4	101.9	4	-1E+10	1	-1E+10	1	-1E+10	1	-1E+10	1	-1E+10	1	-1E+10	1
4901784	45	C	09/27/2016	10:49	-132.381	44.869	0	56.30	0	11.4430	0	32.8070	0	24.991	0	55.836	0	273.1	4	101.0	4	-1E+10	1	-1E+10	1	-1E+10	1	-1E+10	1	-1E+10	1	-1E+10	1
4901784	45	C	09/27/2016	10:49	-132.381	44.869	0	57.90	0	11.1810	0	32.8360	0	25.060	0	57.423	0	271.4	4	99.8	4	-1E+10	1	-1E+10	1	-1E+10	1	-1E+10	1	-1E+10	1	-1E+10	1
4901784	45	C	09/27/2016	10:49	-132.381	44.869	0	59.60	0	11.0710	0	32.8550	0	25.095	0	59.108	0	268.8	4	98.6	4	-1E+10	1	-1E+10	1	-1E+10	1	-1E+10	1	-1E+10	1	-1E+10	1
4901784	45	C	09/27/2016	10:49	-132.381	44.869	0	61.20	0	10.8450	0	32.8620	0	25.140	0	60.695	0	267.1	4	97.5	4	-1E+10	1	-1E+10	1	-1E+10	1	-1E+10	1	-1E+10	1	-1E+10	1
4901784	45	C	09/27/2016	10:49	-132.381	44.869	0	62.90	0	10.8150	0	32.8590	0	25.143	0	62.381	0	265.9	4	97.0	4	-1E+10	1	-1E+10	1	-1E+10	1	-1E+10	1	-1E+10	1	-1E+10	1
4901784	45	C	09/27/2016	10:49	-132.381	44.869	0	64.60	0	10.7080	0	32.8580	0	25.161	0	64.066	0	263.3	4	95.9	4	-1E+10	1	-1E+10	1	-1E+10	1	-1E+10	1	-1E+10	1	-1E+10	1
4901784	45	C	09/27/2016	10:49	-132.381	44.869	0	66.30	0	10.5730	0	32.8540	0	25.181	0	65.752	0	261.0	4	94.8	4	-1E+10	1	-1E+10	1	-1E+10	1	-1E+10	1	-1E+10	1	-1E+10	1
4901784	45	C	09/27/2016	10:49	-132.381	44.869	0	68.00	0	10.3820	0	32.8630	0	25.221	0	67.438	0	259.0	4	93.6	4	-1E+10	1	-1E+10	1	-1E+10	1	-1E+10	1	-1E+10	1	-1E+10	1
4901784	45	C	09/27/2016	10:49	-132.381	44.869	0	69.80	0	10.2610	0	32.8590	0	25.238	0	69.223	0	257.2	4	92.8	4	-1E+10	1	-1E+10	1	-1E+10	1	-1E+10	1	-1E+10	1	-1E+10	1
4901784	45	C	09/27/2016	10:49	-132.381	44.869	0	71.50	0	10.0930	0	32.8510	0	25.260	0	70.908	0	255.7	4	91.9	4	-1E+10	1	-1E+10	1	-1E+10	1	-1E+10	1	-1E+10	1	-1E+10	1
4901784	45	C	09/27/2016	10:49	-132.381	44.869	0	73.30	0	10.0670	0	32.8600	0	25.272	0	72.693	0	253.3	4	91.0	4	-1E+10	1	-1E+10	1	-1E+10	1	-1E+10	1	-1E+10	1	-1E+10	1
4901784	45	C	09/27/2016	10:49	-132.381	44.869	0	75.10	0	10.0390	0	32.8640	0	25.280	0	74.478	0	251.6	4	90.3	4	-1E+10	1	-1E+10	1	-1E+10	1	-1E+10	1	-1E+10	1	-1E+10	1
4901784	45	C	09/27/2016	10:49	-132.381	44.869	0	76.90	0	9.9770	0	32.8710	0	25.296	0	76.262	0	250.6	4	89.8	4	-1E+10	1	-1E+10	1	-1E+10	1	-1E+10	1	-1E+10	1	-1E+10	1
4901784	45	C	09/27/2016	10:49	-132.381	44.869	0	79.20	0	10.0820	0	32.9320	0	25.326	0	78.543	0	249.7	4	89.8	4	-1E+10	1	-1E+10	1	-1E+10	1	-1E+10	1	-1E+10	1	-1E+10	1
4901784	45	C	09/27/2016	10:49	-132.381	44.869	0	81.00	0	10.0210	0	32.9320	0	25.336	0	80.328	0	249.5	4	89.6	4	-1E+10	1	-1E+10	1	-1E+10	1	-1E+10	1	-1E+10	1	-1E+10	1
4901784	45	C	09/27/2016	10:49	-132.381	44.869	0	82.50	0	9.8650	0	32.9180	0	25.351	0	81.815	0	249.8	4	89.3	4	-1E+10	1	-1E+10	1	-1E+10	1	-1E+10	1	-1E+10	1	-1E+10	1
4901784	45	C	09/27/2016	10:49	-132.381	44.869	0	84.10	0	9.8980	0	32.9290	0	25.354	0	83.401	0	248.7	4	89.0	4	-1E+10	1	-1E+10	1	-1E+10	1	-1E+10	1	-1E+10	1	-1E+10	1
4901784	45	C	09/27/2016	10:49	-132.381	44.869	0	85.60	0	9.9800	0	32.9530	0	25.359	0	84.889	0	247.1	4	88.6	4	-1E+10	1	-1E+10	1	-1E+10	1	-1E+10	1	-1E+10	1	-1E+10	1
4901784	45	C	09/27/2016	10:49	-132.381	44.869	0	87.20	0	9.9320	0	32.9510	0	25.366	0	86.475	0	246.5	4	88.3	4	-1E+10	1	-1E+10	1	-1E+10	1	-1E+10	1	-1E+10	1	-1E+10	1
4901784	45	C	09/27/2016	10:49	-132.381	44.869	0	88.70	0	9.9020	0	32.9510	0	25.371	0	87.962	0	246.0	4	88.1	4	-1E+10	1	-1E+10	1	-1E+10	1	-1E+10	1	-1E+10	1	-1E+10	1
4901784	45	C	09/27/2016	10:49	-132.381	44.869	0	90.30	0	9.6300	0	32.9390	0	25.406	0	89.548	0	246.6	4	87.8	4	-1E+10	1	-1E+10	1	-1E+10	1	-1E+10	1	-1E+10	1	-1E+10	1
4901784	45	C	09/27/2016	10:49	-132.381	44.869	0	91.80	0	9.5940	0	32.9440	0	25.416	0	91.036	0	244.5	4	87.0	4	-1E+10	1	-1E+10	1	-1E+10	1	-1E+10	1	-1E+10	1	-1E+10	1
4901784	45	C	09/27/2016	10:49	-132.381	44.869	0	93.40	0	9.5210	0	32.9510	0	25.433	0	92.622	0	242.2	4	86.0	4	-1E+10	1	-1E+10	1	-1E+10	1	-1E+10	1	-1E+10	1	-1E+10	1
4901784	45	C	09/27/2016	10:49	-132.381	44.869	0	95.00	0	9.4740	0	32.9720	0	25.457	0	94.208	0	239.2	4	84.9	4	-1E+10	1	-1E+10	1	-1E+10	1	-1E+10	1	-1E+10	1	-1E+10	1
4901784	45	C	09/27/2016	10:49	-132.381	44.869	0	96.60	0	9.4870	0	32.9930	0	25.471	0	95.795	0	235.8	4	83.7	4	-1E+10	1	-1E+10	1	-1E+10	1	-1E+10	1	-1E+10	1	-1E+10	1
4901784	45	C	09/27/2016	10:49	-132.381	44.869	0	98.30	0	9.5420	0	33.0220	0	25.485	0	97.480	0	232.4	4	82.6	4	-1E+10	1	-1E+10	1	-1E+10	1	-1E+10	1	-1E+10	1	-1E+10	1
4901784	45	C	09/27/2016	10:49	-132.381	44.869	0	100.00	0	9.5240	0	33.0560	0	25.515	0	99.165	0	230.5	4	81.9	4	-1E+10	1	-1E+10	1	-1E+10	1	-1E+10	1	-1E+10	1	-1E+10	1
4901784	45	C	09/27/2016	10:49	-132.381	44.869	0	102.60	0	9.4730	0	33.0690	0	25.533	0	101.743	0	228.0	4	81.0	4	-1E+10	1	-1E+10	1	-1E+10	1	-1E+10	1	-1E+10	1	-1E+10	1
4901784	45	C	09/27/2016	10:49	-132.381	44.869	0	105.30	0	9.3970	0	33.0900	0	25.562	0	104.420	0	224.7	4	79.7	4	-1E+10	1	-1E+10	1	-1E+10	1	-1E+10	1	-1E+10	1	-1E+10	1
4901784	45	C	09/27/2016	10:49	-132.381	44.869	0	107.80	0	9.3770	0	33.1110	0	25.582	0	106.898	0	219.9	4	77.9	4	-1E+10	1	-1E+10	1	-1E+10	1	-1E+10	1	-1E+10	1	-1E+10	1
4901784	45	C	09/27/2016	10:49	-132.381	44.869	0	110.40	0	9.3200	0	33.2050	0	25.664	0	109.476	0	214.6	4	76.0	4	-1E+10	1	-1E+10	1	-1E+10	1	-1E+10	1	-1E+10	1	-1E+10	1
4901784	45	C	09/27/2016	10:49	-132.381	44.869	0	112.30	0	9.3000	0	33.2290	0	25.686	0	111.359	0	211.8	4	75.0	4	-1E+10	1	-1E+10	1	-1E+10	1	-1E+10	1	-1E+10	1	-1E+10	1
4901784	45	C	09/27/2016	10:49	-132.381	44.869	0	115.00	0	9.2420	0	33.3020	0	25.753	0	114.036	0	208.4	4	73.7	4	-1E+10	1	-1E+10	1	-1E+10	1	-1E+10	1	-1E+10	1	-1E+10	1
4901784	45	C	09/27/2016	10:49	-132.381	44.869	0	117.80	0	9.2030	0	33.3360	0	25.785	0	116.812	0	205.9	4	72.8	4	-1E+10	1	-1E+10	1	-1E+10	1	-1E+10	1	-1E+10	1	-1E+10	1
4901784	45	C	09/27/2016	10:49	-132.381	44.869	0	119.60	0	9.1690	0	33.3610	0	25.810	0	118.596	0	204.0	4	72.1	4	-1E+10	1	-1E+10	1	-1E+10	1	-1E+10	1	-1E+10	1	-1E+10	1
4901784	45	C	09/27/2016	10:49	-132.381	44.869	0	122.40	0	9.1130	0	33.4070	0	25.855	0	121.372	0	202.2	4	71.4	4	-1E+10	1	-1E+10	1	-1E+10	1	-1E+10	1	-1E+10	1	-1E+10	1
4901784	45	C	09/27/2016	10:49	-132.381	44.869	0	125.20	0	9.0610	0	33.4390	0	25.889	0	124.148	0	200.1	4	70.6	4	-1E+10	1	-1E+10	1	-1E+10	1	-1E+10	1	-1E+10	1	-1E+10	1
4901784	45	C	09/27/2016	10:49	-132.381	44.869	0	127.10	0	9.0350	0	33.4630	0	25.912	0	126.031	0	199.0	4	70.2	4	-1E+10	1	-1E+10	1	-1E+10	1	-1E+10	1	-1E+10	1	-1E+10	1
4901784	45	C	09/27/2016	10:49	-132.381	44.869	0	129.90	0	8.9860	0	33.4900	0	25.941	0	128.807	0	197.2	4	69.5	4	-1E+10	1	-1E+10	1	-1E+10	1	-1E+10	1	-1E+10	1	-1E+10	1
4901784	45	C	09/27/2016	10:49	-132.381	44.869	0	132.20	0	8.9210	0	33.5290	0	25.981	0	131.086	0	195.5	4	68.8	4	-1E+10	1	-1E+10	1	-1E+10	1	-1E+10	1	-1E+10	1	-1E+10	1
4901784	45	C	09/27/2016	10:49	-132.381	44.869	0	135.20	0	8.8480	0	33.5680	0	26.023	0	134.060	0	193.7	4	68.1	4	-1E+10	1	-1E+10	1	-1E+10	1	-1E+10	1	-1E+10	1	-1E+10	1
4901784	45	C	09/27/2016	10:49	-132.381	44.869	0	137.50	0	8.8310	0	33.5920	0	26.045	0	136.340	0	192.1	4	67.5	4	-1E+10	1	-1E+10	1	-1E+10	1	-1E+10	1	-1E+10	1	-1E+10	1
4901784	45	C	09/27/2016	10:49	-132.381	44.869	0	139.80	0	8.7750	0	33.6160	0	26.072	0	138.620	0	190.5	4	66.9	4	-1E+10	1	-1E+10	1	-1E+10	1	-1E+10	1	-1E+10	1	-1E+10	1
4901784	45	C	09/27/2016	10:49	-132.381	44.869	0	142.20	0	8.6910	0	33.6520	0	26.114	0	140.999	0	189.0	4	66.2	4	-1E+10	1	-1E+10	1	-1E+10	1	-1E+10	1	-1E+10	1	-1E+10	1
4901784	45	C	09/27/2016	10:49	-132.381	44.869	0	144.70	0	8.6010	0	33.7010	0	26.166	0	143.477	0	187.9	4	65.7	4	-1E+10	1	-1E+10	1	-1E+10	1	-1E+10	1	-1E+10	1	-1E+10	1
4901784	45	C	09/27/2016	10:49	-132.381	44.869	0	147.10	0	8.5500	0	33.7300	0	26.196	0	145.856	0	187.2	4	65.5	4	-1E+10	1	-1E+10	1	-1E+10	1	-1E+10	1	-1E+10	1	-1E+10	1
4901784	45	C	09/27/2016	10:49	-132.381	44.869	0	149.60	0	8.4970	0	33.7580	0	26.226	0	148.334	0	186.5	4	65.1	4	-1E+10	1	-1E+10	1	-1E+10	1	-1E+10	1	-1E+10	1	-1E+10	1
4901784	45	C	09/27/2016	10:49	-132.381	44.869	0	152.10	0	8.4760	0	33.7730	0	26.241	0	150.812	0	185.9	4	64.9	4	-1E+10	1	-1E+10	1	-1E+10	1	-1E+10	1	-1E+10	1	-1E+10	1
4901784	45	C	09/27/2016	10:49	-132.381	44.869	0	154.70	0	8.4340	0	33.7930	0	26.264	0	153.389	0	185.1	4	64.6	4	-1E+10	1	-1E+10	1	-1E+10	1	-1E+10	1	-1E+10	1	-1E+10	1
4901784	45	C	09/27/2016	10:49	-132.381	44.869	0	157.30	0	8.4020	0	33.8130	0	26.284	0	155.966	0	184.6	4	64.4	4	-1E+10	1	-1E+10	1	-1E+10	1	-1E+10	1	-1E+10	1	-1E+10	1
4901784	45	C	09/27/2016	10:49	-132.381	44.869	0	159.90	0	8.3790	0	33.8360	0	26.306	0	158.543	0	183.9	4	64.1	4	-1E+10	1	-1E+10	1	-1E+10	1	-1E+10	1	-1E+10	1	-1E+10	1
4901784	45	C	09/27/2016	10:49	-132.381	44.869	0	162.50	0	8.3700	0	33.8430	0	26.313	0	161.119	0	183.1	4	63.8	4	-1E+10	1	-1E+10	1	-1E+10	1	-1E+10	1	-1E+10	1	-1E+10	1
4901784	45	C	09/27/2016	10:49	-132.381	44.869	0	165.10	0	8.3460	0	33.8500	0	26.322	0	163.696	0	182.2	4	63.5	4	-1E+10	1	-1E+10	1	-1E+10	1	-1E+10	1	-1E+10	1	-1E+10	1
4901784	45	C	09/27/2016	10:49	-132.381	44.869	0	167.80	0	8.3250	0	33.8540	0	26.328	0	166.372	0	181.1	4	63.1	4	-1E+10	1	-1E+10	1	-1E+10	1	-1E+10	1	-1E+10	1	-1E+10	1
4901784	45	C	09/27/2016	10:49	-132.381	44.869	0	169.50	0	8.2790	0	33.8590	0	26.339	0	168.057	0	180.4	4	62.8	4	-1E+10	1	-1E+10	1	-1E+10	1	-1E+10	1	-1E+10	1	-1E+10	1
4901784	45	C	09/27/2016	10:49	-132.381	44.869	0	172.20	0	8.2150	0	33.8620	0	26.351	0	170.733	0	179.5	4	62.4	4	-1E+10	1	-1E+10	1	-1E+10	1	-1E+10	1	-1E+10	1	-1E+10	1
4901784	45	C	09/27/2016	10:49	-132.381	44.869	0	174.80	0	8.1600	0	33.8690	0	26.365	0	173.310	0	178.8	4	62.0	4	-1E+10	1	-1E+10	1	-1E+10	1	-1E+10	1	-1E+10	1	-1E+10	1
4901784	45	C	09/27/2016	10:49	-132.381	44.869	0	177.50	0	8.1250	0	33.8700	0	26.371	0	175.986	0	178.1	4	61.7	4	-1E+10	1	-1E+10	1	-1E+10	1	-1E+10	1	-1E+10	1	-1E+10	1
4901784	45	C	09/27/2016	10:49	-132.381	44.869	0	180.20	0	8.0810	0	33.8720	0	26.379	0	178.661	0	177.5	4	61.5	4	-1E+10	1	-1E+10	1	-1E+10	1	-1E+10	1	-1E+10	1	-1E+10	1
4901784	45	C	09/27/2016	10:49	-132.381	44.869	0	182.10	0	8.0710	0	33.8720	0	26.380	0	180.544	0	177.0	4	61.3	4	-1E+10	1	-1E+10	1	-1E+10	1	-1E+10	1	-1E+10	1	-1E+10	1
4901784	45	C	09/27/2016	10:49	-132.381	44.869	0	184.90	0	8.0480	0	33.8740	0	26.385	0	183.319	0	175.8	4	60.8	4	-1E+10	1	-1E+10	1	-1E+10	1	-1E+10	1	-1E+10	1	-1E+10	1
4901784	45	C	09/27/2016	10:49	-132.381	44.869	0	187.70	0	8.0090	0	33.8780	0	26.394	0	186.094	0	174.5	4	60.3	4	-1E+10	1	-1E+10	1	-1E+10	1	-1E+10	1	-1E+10	1	-1E+10	1
4901784	45	C	09/27/2016	10:49	-132.381	44.869	0	189.60	0	7.9940	0	33.8780	0	26.397	0	187.977	0	173.6	4	60.0	4	-1E+10	1	-1E+10	1	-1E+10	1	-1E+10	1	-1E+10	1	-1E+10	1
4901784	45	C	09/27/2016	10:49	-132.381	44.869	0	192.40	0	7.9390	0	33.8830	0	26.409	0	190.752	0	172.0	4	59.4	4	-1E+10	1	-1E+10	1	-1E+10	1	-1E+10	1	-1E+10	1	-1E+10	1
4901784	45	C	09/27/2016	10:49	-132.381	44.869	0	195.20	0	7.9290	0	33.8870	0	26.413	0	193.526	0	170.3	4	58.8	4	-1E+10	1	-1E+10	1	-1E+10	1	-1E+10	1	-1E+10	1	-1E+10	1
4901784	45	C	09/27/2016	10:49	-132.381	44.869	0	197.00	0	7.8820	0	33.8900	0	26.423	0	195.310	0	169.7	4	58.5	4	-1E+10	1	-1E+10	1	-1E+10	1	-1E+10	1	-1E+10	1	-1E+10	1
4901784	45	C	09/27/2016	10:49	-132.381	44.869	0	199.90	0	7.8380	0	33.8880	0	26.427	0	198.184	0	168.8	4	58.1	4	-1E+10	1	-1E+10	1	-1E+10	1	-1E+10	1	-1E+10	1	-1E+10	1
4901784	45	C	09/27/2016	10:49	-132.381	44.869	0	202.70	0	7.8090	0	33.8900	0	26.433	0	200.958	0	167.7	4	57.7	4	-1E+10	1	-1E+10	1	-1E+10	1	-1E+10	1	-1E+10	1	-1E+10	1
4901784	45	C	09/27/2016	10:49	-132.381	44.869	0	205.00	0	7.7710	0	33.8890	0	26.438	0	203.237	0	166.6	4	57.3	4	-1E+10	1	-1E+10	1	-1E+10	1	-1E+10	1	-1E+10	1	-1E+10	1
4901784	45	C	09/27/2016	10:49	-132.381	44.869	0	207.70	0	7.6970	0	33.8940	0	26.453	0	205.913	0	165.4	4	56.8	4	-1E+10	1	-1E+10	1	-1E+10	1	-1E+10	1	-1E+10	1	-1E+10	1
4901784	45	C	09/27/2016	10:49	-132.381	44.869	0	210.00	0	7.6650	0	33.8970	0	26.460	0	208.192	0	164.8	4	56.6	4	-1E+10	1	-1E+10	1	-1E+10	1	-1E+10	1	-1E+10	1	-1E+10	1
4901784	45	C	09/27/2016	10:49	-132.381	44.869	0	212.30	0	7.6390	0	33.8990	0	26.465	0	210.471	0	164.4	4	56.4	4	-1E+10	1	-1E+10	1	-1E+10	1	-1E+10	1	-1E+10	1	-1E+10	1
4901784	45	C	09/27/2016	10:49	-132.381	44.869	0	214.70	0	7.6150	0	33.9010	0	26.470	0	212.849	0	163.6	4	56.1	4	-1E+10	1	-1E+10	1	-1E+10	1	-1E+10	1	-1E+10	1	-1E+10	1
4901784	45	C	09/27/2016	10:49	-132.381	44.869	0	217.10	0	7.5390	0	33.9030	0	26.483	0	215.227	0	162.7	4	55.7	4	-1E+10	1	-1E+10	1	-1E+10	1	-1E+10	1	-1E+10	1	-1E+10	1
4901784	45	C	09/27/2016	10:49	-132.381	44.869	0	220.30	0	7.4940	0	33.9040	0	26.490	0	218.398	0	161.5	4	55.2	4	-1E+10	1	-1E+10	1	-1E+10	1	-1E+10	1	-1E+10	1	-1E+10	1
4901784	45	C	09/27/2016	10:49	-132.381	44.869	0	222.70	0	7.4480	0	33.9070	0	26.499	0	220.776	0	160.2	4	54.7	4	-1E+10	1	-1E+10	1	-1E+10	1	-1E+10	1	-1E+10	1	-1E+10	1
4901784	45	C	09/27/2016	10:49	-132.381	44.869	0	225.20	0	7.4220	0	33.9040	0	26.500	0	223.253	0	158.9	4	54.2	4	-1E+10	1	-1E+10	1	-1E+10	1	-1E+10	1	-1E+10	1	-1E+10	1
4901784	45	C	09/27/2016	10:49	-132.381	44.869	0	227.70	0	7.3650	0	33.9050	0	26.509	0	225.730	0	157.3	4	53.6	4	-1E+10	1	-1E+10	1	-1E+10	1	-1E+10	1	-1E+10	1	-1E+10	1
4901784	45	C	09/27/2016	10:49	-132.381	44.869	0	230.10	0	7.3300	0	33.9040	0	26.513	0	228.108	0	155.9	4	53.1	4	-1E+10	1	-1E+10	1	-1E+10	1	-1E+10	1	-1E+10	1	-1E+10	1
4901784	45	C	09/27/2016	10:49	-132.381	44.869	0	232.60	0	7.2790	0	33.9050	0	26.521	0	230.585	0	154.9	4	52.7	4	-1E+10	1	-1E+10	1	-1E+10	1	-1E+10	1	-1E+10	1	-1E+10	1
4901784	45	C	09/27/2016	10:49	-132.381	44.869	0	235.20	0	7.2380	0	33.9050	0	26.527	0	233.161	0	153.4	4	52.1	4	-1E+10	1	-1E+10	1	-1E+10	1	-1E+10	1	-1E+10	1	-1E+10	1
4901784	45	C	09/27/2016	10:49	-132.381	44.869	0	237.70	0	7.1850	0	33.9050	0	26.534	0	235.638	0	152.1	4	51.6	4	-1E+10	1	-1E+10	1	-1E+10	1	-1E+10	1	-1E+10	1	-1E+10	1
4901784	45	C	09/27/2016	10:49	-132.381	44.869	0	240.30	0	7.1370	0	33.9060	0	26.541	0	238.214	0	150.9	4	51.2	4	-1E+10	1	-1E+10	1	-1E+10	1	-1E+10	1	-1E+10	1	-1E+10	1
4901784	45	C	09/27/2016	10:49	-132.381	44.869	0	242.90	0	7.0880	0	33.9090	0	26.551	0	240.790	0	149.7	4	50.7	4	-1E+10	1	-1E+10	1	-1E+10	1	-1E+10	1	-1E+10	1	-1E+10	1
4901784	45	C	09/27/2016	10:49	-132.381	44.869	0	244.60	0	7.0520	0	33.9100	0	26.556	0	242.474	0	149.2	4	50.5	4	-1E+10	1	-1E+10	1	-1E+10	1	-1E+10	1	-1E+10	1	-1E+10	1
4901784	45	C	09/27/2016	10:49	-132.381	44.869	0	247.20	0	7.0270	0	33.9090	0	26.559	0	245.050	0	148.3	4	50.2	4	-1E+10	1	-1E+10	1	-1E+10	1	-1E+10	1	-1E+10	1	-1E+10	1
4901784	45	C	09/27/2016	10:49	-132.381	44.869	0	249.80	0	6.9970	0	33.9070	0	26.562	0	247.626	0	147.6	4	49.9	4	-1E+10	1	-1E+10	1	-1E+10	1	-1E+10	1	-1E+10	1	-1E+10	1
4901784	45	C	09/27/2016	10:49	-132.381	44.869	0	252.40	0	6.9630	0	33.9080	0	26.567	0	250.201	0	146.5	4	49.5	4	-1E+10	1	-1E+10	1	-1E+10	1	-1E+10	1	-1E+10	1	-1E+10	1
4901784	45	C	09/27/2016	10:49	-132.381	44.869	0	255.00	0	6.9320	0	33.9080	0	26.571	0	252.777	0	145.3	4	49.0	4	-1E+10	1	-1E+10	1	-1E+10	1	-1E+10	1	-1E+10	1	-1E+10	1
4901784	45	C	09/27/2016	10:49	-132.381	44.869	0	257.60	0	6.8610	0	33.9090	0	26.582	0	255.353	0	144.1	4	48.5	4	-1E+10	1	-1E+10	1	-1E+10	1	-1E+10	1	-1E+10	1	-1E+10	1
4901784	45	C	09/27/2016	10:49	-132.381	44.869	0	260.20	0	6.8090	0	33.9080	0	26.588	0	257.929	0	143.1	4	48.2	4	-1E+10	1	-1E+10	1	-1E+10	1	-1E+10	1	-1E+10	1	-1E+10	1
4901784	45	C	09/27/2016	10:49	-132.381	44.869	0	262.80	0	6.7850	0	33.9080	0	26.591	0	260.504	0	141.9	4	47.7	4	-1E+10	1	-1E+10	1	-1E+10	1	-1E+10	1	-1E+10	1	-1E+10	1
4901784	45	C	09/27/2016	10:49	-132.381	44.869	0	265.40	0	6.7580	0	33.9080	0	26.595	0	263.080	0	140.4	4	47.2	4	-1E+10	1	-1E+10	1	-1E+10	1	-1E+10	1	-1E+10	1	-1E+10	1
4901784	45	C	09/27/2016	10:49	-132.381	44.869	0	267.10	0	6.7080	0	33.9080	0	26.601	0	264.764	0	139.1	4	46.7	4	-1E+10	1	-1E+10	1	-1E+10	1	-1E+10	1	-1E+10	1	-1E+10	1
4901784	45	C	09/27/2016	10:49	-132.381	44.869	0	269.80	0	6.6500	0	33.9100	0	26.611	0	267.438	0	137.5	4	46.1	4	-1E+10	1	-1E+10	1	-1E+10	1	-1E+10	1	-1E+10	1	-1E+10	1
4901784	45	C	09/27/2016	10:49	-132.381	44.869	0	272.50	0	6.6170	0	33.9110	0	26.616	0	270.113	0	136.2	4	45.7	4	-1E+10	1	-1E+10	1	-1E+10	1	-1E+10	1	-1E+10	1	-1E+10	1
4901784	45	C	09/27/2016	10:49	-132.381	44.869	0	275.10	0	6.5770	0	33.9100	0	26.620	0	272.689	0	134.7	4	45.1	4	-1E+10	1	-1E+10	1	-1E+10	1	-1E+10	1	-1E+10	1	-1E+10	1
4901784	45	C	09/27/2016	10:49	-132.381	44.869	0	277.80	0	6.5430	0	33.9110	0	26.626	0	275.363	0	133.1	4	44.5	4	-1E+10	1	-1E+10	1	-1E+10	1	-1E+10	1	-1E+10	1	-1E+10	1
4901784	45	C	09/27/2016	10:49	-132.381	44.869	0	279.60	0	6.5110	0	33.9110	0	26.630	0	277.146	0	131.9	4	44.1	4	-1E+10	1	-1E+10	1	-1E+10	1	-1E+10	1	-1E+10	1	-1E+10	1
4901784	45	C	09/27/2016	10:49	-132.381	44.869	0	282.30	0	6.4770	0	33.9120	0	26.635	0	279.821	0	130.0	4	43.4	4	-1E+10	1	-1E+10	1	-1E+10	1	-1E+10	1	-1E+10	1	-1E+10	1
4901784	45	C	09/27/2016	10:49	-132.381	44.869	0	285.10	0	6.4440	0	33.9120	0	26.640	0	282.594	0	128.2	4	42.8	4	-1E+10	1	-1E+10	1	-1E+10	1	-1E+10	1	-1E+10	1	-1E+10	1
4901784	45	C	09/27/2016	10:49	-132.381	44.869	0	287.80	0	6.4020	0	33.9140	0	26.647	0	285.269	0	126.4	4	42.1	4	-1E+10	1	-1E+10	1	-1E+10	1	-1E+10	1	-1E+10	1	-1E+10	1
4901784	45	C	09/27/2016	10:49	-132.381	44.869	0	290.50	0	6.3670	0	33.9150	0	26.652	0	287.943	0	125.1	4	41.7	4	-1E+10	1	-1E+10	1	-1E+10	1	-1E+10	1	-1E+10	1	-1E+10	1
4901784	45	C	09/27/2016	10:49	-132.381	44.869	0	292.30	0	6.3230	0	33.9170	0	26.659	0	289.726	0	124.3	4	41.4	4	-1E+10	1	-1E+10	1	-1E+10	1	-1E+10	1	-1E+10	1	-1E+10	1
4901784	45	C	09/27/2016	10:49	-132.381	44.869	0	295.10	0	6.2760	0	33.9150	0	26.664	0	292.499	0	123.3	4	41.0	4	-1E+10	1	-1E+10	1	-1E+10	1	-1E+10	1	-1E+10	1	-1E+10	1
4901784	45	C	09/27/2016	10:49	-132.381	44.869	0	297.80	0	6.2610	0	33.9160	0	26.666	0	295.173	0	122.2	4	40.6	4	-1E+10	1	-1E+10	1	-1E+10	1	-1E+10	1	-1E+10	1	-1E+10	1
4901784	45	C	09/27/2016	10:49	-132.381	44.869	0	299.70	0	6.2550	0	33.9150	0	26.666	0	297.055	0	121.5	4	40.4	4	-1E+10	1	-1E+10	1	-1E+10	1	-1E+10	1	-1E+10	1	-1E+10	1
4901784	45	C	09/27/2016	10:49	-132.381	44.869	0	302.50	0	6.2120	0	33.9140	0	26.671	0	299.829	0	120.0	4	39.8	4	-1E+10	1	-1E+10	1	-1E+10	1	-1E+10	1	-1E+10	1	-1E+10	1
4901784	45	C	09/27/2016	10:49	-132.381	44.869	0	305.30	0	6.1610	0	33.9130	0	26.677	0	302.602	0	118.5	4	39.3	4	-1E+10	1	-1E+10	1	-1E+10	1	-1E+10	1	-1E+10	1	-1E+10	1
4901784	45	C	09/27/2016	10:49	-132.381	44.869	0	307.20	0	6.1300	0	33.9150	0	26.682	0	304.484	0	117.4	4	38.9	4	-1E+10	1	-1E+10	1	-1E+10	1	-1E+10	1	-1E+10	1	-1E+10	1
4901784	45	C	09/27/2016	10:49	-132.381	44.869	0	309.90	0	6.0810	0	33.9150	0	26.689	0	307.158	0	116.2	4	38.5	4	-1E+10	1	-1E+10	1	-1E+10	1	-1E+10	1	-1E+10	1	-1E+10	1
4901784	45	C	09/27/2016	10:49	-132.381	44.869	0	312.60	0	6.0590	0	33.9130	0	26.690	0	309.832	0	114.8	4	38.0	4	-1E+10	1	-1E+10	1	-1E+10	1	-1E+10	1	-1E+10	1	-1E+10	1
4901784	45	C	09/27/2016	10:49	-132.381	44.869	0	315.30	0	6.0020	0	33.9150	0	26.699	0	312.506	0	113.0	4	37.3	4	-1E+10	1	-1E+10	1	-1E+10	1	-1E+10	1	-1E+10	1	-1E+10	1
4901784	45	C	09/27/2016	10:49	-132.381	44.869	0	318.00	0	5.9690	0	33.9150	0	26.703	0	315.180	0	111.6	4	36.8	4	-1E+10	1	-1E+10	1	-1E+10	1	-1E+10	1	-1E+10	1	-1E+10	1
4901784	45	C	09/27/2016	10:49	-132.381	44.869	0	319.80	0	5.9420	0	33.9150	0	26.706	0	316.963	0	110.5	4	36.5	4	-1E+10	1	-1E+10	1	-1E+10	1	-1E+10	1	-1E+10	1	-1E+10	1
4901784	45	C	09/27/2016	10:49	-132.381	44.869	0	322.60	0	5.8990	0	33.9160	0	26.712	0	319.736	0	108.9	4	35.9	4	-1E+10	1	-1E+10	1	-1E+10	1	-1E+10	1	-1E+10	1	-1E+10	1
4901784	45	C	09/27/2016	10:49	-132.381	44.869	0	325.30	0	5.8480	0	33.9190	0	26.721	0	322.410	0	107.5	4	35.4	4	-1E+10	1	-1E+10	1	-1E+10	1	-1E+10	1	-1E+10	1	-1E+10	1
4901784	45	C	09/27/2016	10:49	-132.381	44.869	0	327.20	0	5.8350	0	33.9180	0	26.722	0	324.291	0	106.6	4	35.1	4	-1E+10	1	-1E+10	1	-1E+10	1	-1E+10	1	-1E+10	1	-1E+10	1
4901784	45	C	09/27/2016	10:49	-132.381	44.869	0	330.00	0	5.8250	0	33.9180	0	26.723	0	327.064	0	105.1	4	34.6	4	-1E+10	1	-1E+10	1	-1E+10	1	-1E+10	1	-1E+10	1	-1E+10	1
4901784	45	C	09/27/2016	10:49	-132.381	44.869	0	332.80	0	5.8180	0	33.9170	0	26.723	0	329.837	0	103.1	4	33.9	4	-1E+10	1	-1E+10	1	-1E+10	1	-1E+10	1	-1E+10	1	-1E+10	1
4901784	45	C	09/27/2016	10:49	-132.381	44.869	0	334.70	0	5.7980	0	33.9170	0	26.726	0	331.718	0	101.3	4	33.3	4	-1E+10	1	-1E+10	1	-1E+10	1	-1E+10	1	-1E+10	1	-1E+10	1
4901784	45	C	09/27/2016	10:49	-132.381	44.869	0	337.50	0	5.7190	0	33.9230	0	26.740	0	334.491	0	99.1	4	32.5	4	-1E+10	1	-1E+10	1	-1E+10	1	-1E+10	1	-1E+10	1	-1E+10	1
4901784	45	C	09/27/2016	10:49	-132.381	44.869	0	340.20	0	5.6960	0	33.9260	0	26.745	0	337.165	0	97.7	4	32.1	4	-1E+10	1	-1E+10	1	-1E+10	1	-1E+10	1	-1E+10	1	-1E+10	1
4901784	45	C	09/27/2016	10:49	-132.381	44.869	0	342.10	0	5.6770	0	33.9250	0	26.747	0	339.047	0	96.7	4	31.7	4	-1E+10	1	-1E+10	1	-1E+10	1	-1E+10	1	-1E+10	1	-1E+10	1
4901784	45	C	09/27/2016	10:49	-132.381	44.869	0	344.80	0	5.6450	0	33.9270	0	26.752	0	341.720	0	95.4	4	31.3	4	-1E+10	1	-1E+10	1	-1E+10	1	-1E+10	1	-1E+10	1	-1E+10	1
4901784	45	C	09/27/2016	10:49	-132.381	44.869	0	347.60	0	5.6090	0	33.9290	0	26.758	0	344.493	0	94.0	4	30.8	4	-1E+10	1	-1E+10	1	-1E+10	1	-1E+10	1	-1E+10	1	-1E+10	1
4901784	45	C	09/27/2016	10:49	-132.381	44.869	0	349.50	0	5.5930	0	33.9280	0	26.759	0	346.374	0	93.3	4	30.5	4	-1E+10	1	-1E+10	1	-1E+10	1	-1E+10	1	-1E+10	1	-1E+10	1
4901784	45	C	09/27/2016	10:49	-132.381	44.869	0	352.30	0	5.5590	0	33.9310	0	26.766	0	349.147	0	92.4	4	30.2	4	-1E+10	1	-1E+10	1	-1E+10	1	-1E+10	1	-1E+10	1	-1E+10	1
4901784	45	C	09/27/2016	10:49	-132.381	44.869	0	355.20	0	5.5390	0	33.9310	0	26.768	0	352.018	0	91.8	4	30.0	4	-1E+10	1	-1E+10	1	-1E+10	1	-1E+10	1	-1E+10	1	-1E+10	1
4901784	45	C	09/27/2016	10:49	-132.381	44.869	0	357.00	0	5.5290	0	33.9310	0	26.769	0	353.801	0	91.6	4	29.9	4	-1E+10	1	-1E+10	1	-1E+10	1	-1E+10	1	-1E+10	1	-1E+10	1
4901784	45	C	09/27/2016	10:49	-132.381	44.869	0	359.90	0	5.5040	0	33.9320	0	26.773	0	356.672	0	91.2	4	29.8	4	-1E+10	1	-1E+10	1	-1E+10	1	-1E+10	1	-1E+10	1	-1E+10	1
4901784	45	C	09/27/2016	10:49	-132.381	44.869	0	362.60	0	5.4760	0	33.9320	0	26.777	0	359.346	0	90.7	4	29.6	4	-1E+10	1	-1E+10	1	-1E+10	1	-1E+10	1	-1E+10	1	-1E+10	1
4901784	45	C	09/27/2016	10:49	-132.381	44.869	0	365.10	0	5.4540	0	33.9330	0	26.780	0	361.821	0	90.2	4	29.4	4	-1E+10	1	-1E+10	1	-1E+10	1	-1E+10	1	-1E+10	1	-1E+10	1
4901784	45	C	09/27/2016	10:49	-132.381	44.869	0	367.70	0	5.4340	0	33.9320	0	26.782	0	364.396	0	89.5	4	29.2	4	-1E+10	1	-1E+10	1	-1E+10	1	-1E+10	1	-1E+10	1	-1E+10	1
4901784	45	C	09/27/2016	10:49	-132.381	44.869	0	370.10	0	5.4110	0	33.9320	0	26.784	0	366.772	0	88.5	4	28.8	4	-1E+10	1	-1E+10	1	-1E+10	1	-1E+10	1	-1E+10	1	-1E+10	1
4901784	45	C	09/27/2016	10:49	-132.381	44.869	0	372.50	0	5.3960	0	33.9320	0	26.786	0	369.148	0	86.7	4	28.2	4	-1E+10	1	-1E+10	1	-1E+10	1	-1E+10	1	-1E+10	1	-1E+10	1
4901784	45	C	09/27/2016	10:49	-132.381	44.869	0	374.90	0	5.3430	0	33.9360	0	26.796	0	371.524	0	84.3	4	27.4	4	-1E+10	1	-1E+10	1	-1E+10	1	-1E+10	1	-1E+10	1	-1E+10	1
4901784	45	C	09/27/2016	10:49	-132.381	44.869	0	377.40	0	5.3470	0	33.9430	0	26.801	0	374.000	0	83.0	4	27.0	4	-1E+10	1	-1E+10	1	-1E+10	1	-1E+10	1	-1E+10	1	-1E+10	1
4901784	45	C	09/27/2016	10:49	-132.381	44.869	0	379.80	0	5.2880	0	33.9400	0	26.805	0	376.376	0	83.2	4	27.0	4	-1E+10	1	-1E+10	1	-1E+10	1	-1E+10	1	-1E+10	1	-1E+10	1
4901784	45	C	09/27/2016	10:49	-132.381	44.869	0	382.20	0	5.2430	0	33.9420	0	26.812	0	378.752	0	82.1	4	26.7	4	-1E+10	1	-1E+10	1	-1E+10	1	-1E+10	1	-1E+10	1	-1E+10	1
4901784	45	C	09/27/2016	10:49	-132.381	44.869	0	385.40	0	5.2050	0	33.9420	0	26.817	0	381.920	0	80.7	4	26.2	4	-1E+10	1	-1E+10	1	-1E+10	1	-1E+10	1	-1E+10	1	-1E+10	1
4901784	45	C	09/27/2016	10:49	-132.381	44.869	0	387.80	0	5.1820	0	33.9460	0	26.822	0	384.296	0	79.1	4	25.7	4	-1E+10	1	-1E+10	1	-1E+10	1	-1E+10	1	-1E+10	1	-1E+10	1
4901784	45	C	09/27/2016	10:49	-132.381	44.869	0	390.20	0	5.1590	0	33.9480	0	26.827	0	386.672	0	77.2	4	25.0	4	-1E+10	1	-1E+10	1	-1E+10	1	-1E+10	1	-1E+10	1	-1E+10	1
4901784	45	C	09/27/2016	10:49	-132.381	44.869	0	392.60	0	5.1530	0	33.9500	0	26.829	0	389.048	0	75.2	4	24.4	4	-1E+10	1	-1E+10	1	-1E+10	1	-1E+10	1	-1E+10	1	-1E+10	1
4901784	45	C	09/27/2016	10:49	-132.381	44.869	0	395.10	0	5.1640	0	33.9550	0	26.832	0	391.523	0	73.4	4	23.8	4	-1E+10	1	-1E+10	1	-1E+10	1	-1E+10	1	-1E+10	1	-1E+10	1
4901784	45	C	09/27/2016	10:49	-132.381	44.869	0	397.50	0	5.1530	0	33.9570	0	26.835	0	393.899	0	71.9	4	23.3	4	-1E+10	1	-1E+10	1	-1E+10	1	-1E+10	1	-1E+10	1	-1E+10	1
4901784	45	C	09/27/2016	10:49	-132.381	44.869	0	400.00	0	5.1430	0	33.9620	0	26.840	0	396.374	0	70.3	4	22.8	4	-1E+10	1	-1E+10	1	-1E+10	1	-1E+10	1	-1E+10	1	-1E+10	1
4901784	45	C	09/27/2016	10:49	-132.381	44.869	0	402.50	0	5.1240	0	33.9660	0	26.845	0	398.849	0	69.5	4	22.5	4	-1E+10	1	-1E+10	1	-1E+10	1	-1E+10	1	-1E+10	1	-1E+10	1
4901784	45	C	09/27/2016	10:49	-132.381	44.869	0	405.00	0	5.1310	0	33.9680	0	26.846	0	401.324	0	69.2	4	22.4	4	-1E+10	1	-1E+10	1	-1E+10	1	-1E+10	1	-1E+10	1	-1E+10	1
4901784	45	C	09/27/2016	10:49	-132.381	44.869	0	407.50	0	5.1300	0	33.9710	0	26.848	0	403.799	0	69.3	4	22.4	4	-1E+10	1	-1E+10	1	-1E+10	1	-1E+10	1	-1E+10	1	-1E+10	1
4901784	45	C	09/27/2016	10:49	-132.381	44.869	0	409.90	0	5.0990	0	33.9690	0	26.850	0	406.175	0	69.7	4	22.5	4	-1E+10	1	-1E+10	1	-1E+10	1	-1E+10	1	-1E+10	1	-1E+10	1
4901784	45	C	09/27/2016	10:49	-132.381	44.869	0	412.40	0	5.0630	0	33.9690	0	26.855	0	408.650	0	69.6	4	22.5	4	-1E+10	1	-1E+10	1	-1E+10	1	-1E+10	1	-1E+10	1	-1E+10	1
4901784	45	C	09/27/2016	10:49	-132.381	44.869	0	415.00	0	5.0520	0	33.9710	0	26.857	0	411.224	0	69.0	4	22.3	4	-1E+10	1	-1E+10	1	-1E+10	1	-1E+10	1	-1E+10	1	-1E+10	1
4901784	45	C	09/27/2016	10:49	-132.381	44.869	0	417.50	0	5.0150	0	33.9700	0	26.861	0	413.698	0	68.5	4	22.1	4	-1E+10	1	-1E+10	1	-1E+10	1	-1E+10	1	-1E+10	1	-1E+10	1
4901784	45	C	09/27/2016	10:49	-132.381	44.869	0	420.00	0	5.0030	0	33.9730	0	26.865	0	416.173	0	66.9	4	21.6	4	-1E+10	1	-1E+10	1	-1E+10	1	-1E+10	1	-1E+10	1	-1E+10	1
4901784	45	C	09/27/2016	10:49	-132.381	44.869	0	422.60	0	5.0070	0	33.9770	0	26.867	0	418.747	0	65.2	4	21.0	4	-1E+10	1	-1E+10	1	-1E+10	1	-1E+10	1	-1E+10	1	-1E+10	1
4901784	45	C	09/27/2016	10:49	-132.381	44.869	0	425.20	0	5.0050	0	33.9810	0	26.871	0	421.320	0	64.4	4	20.8	4	-1E+10	1	-1E+10	1	-1E+10	1	-1E+10	1	-1E+10	1	-1E+10	1
4901784	45	C	09/27/2016	10:49	-132.381	44.869	0	427.80	0	4.9810	0	33.9810	0	26.873	0	423.894	0	63.9	4	20.6	4	-1E+10	1	-1E+10	1	-1E+10	1	-1E+10	1	-1E+10	1	-1E+10	1
4901784	45	C	09/27/2016	10:49	-132.381	44.869	0	429.50	0	4.9730	0	33.9830	0	26.876	0	425.577	0	63.1	4	20.4	4	-1E+10	1	-1E+10	1	-1E+10	1	-1E+10	1	-1E+10	1	-1E+10	1
4901784	45	C	09/27/2016	10:49	-132.381	44.869	0	432.10	0	4.9670	0	33.9840	0	26.877	0	428.150	0	62.3	4	20.1	4	-1E+10	1	-1E+10	1	-1E+10	1	-1E+10	1	-1E+10	1	-1E+10	1
4901784	45	C	09/27/2016	10:49	-132.381	44.869	0	434.80	0	4.9440	0	33.9860	0	26.882	0	430.823	0	61.3	4	19.8	4	-1E+10	1	-1E+10	1	-1E+10	1	-1E+10	1	-1E+10	1	-1E+10	1
4901784	45	C	09/27/2016	10:49	-132.381	44.869	0	437.40	0	4.9390	0	33.9890	0	26.885	0	433.396	0	60.2	4	19.4	4	-1E+10	1	-1E+10	1	-1E+10	1	-1E+10	1	-1E+10	1	-1E+10	1
4901784	45	C	09/27/2016	10:49	-132.381	44.869	0	440.00	0	4.9270	0	33.9920	0	26.888	0	435.970	0	59.1	4	19.1	4	-1E+10	1	-1E+10	1	-1E+10	1	-1E+10	1	-1E+10	1	-1E+10	1
4901784	45	C	09/27/2016	10:49	-132.381	44.869	0	442.60	0	4.9230	0	33.9950	0	26.891	0	438.543	0	58.0	4	18.7	4	-1E+10	1	-1E+10	1	-1E+10	1	-1E+10	1	-1E+10	1	-1E+10	1
4901784	45	C	09/27/2016	10:49	-132.381	44.869	0	445.20	0	4.9140	0	33.9970	0	26.894	0	441.117	0	57.0	4	18.4	4	-1E+10	1	-1E+10	1	-1E+10	1	-1E+10	1	-1E+10	1	-1E+10	1
4901784	45	C	09/27/2016	10:49	-132.381	44.869	0	447.80	0	4.9060	0	34.0020	0	26.899	0	443.690	0	56.2	4	18.1	4	-1E+10	1	-1E+10	1	-1E+10	1	-1E+10	1	-1E+10	1	-1E+10	1
4901784	45	C	09/27/2016	10:49	-132.381	44.869	0	450.40	0	4.8730	0	34.0030	0	26.903	0	446.263	0	55.8	4	18.0	4	-1E+10	1	-1E+10	1	-1E+10	1	-1E+10	1	-1E+10	1	-1E+10	1
4901784	45	C	09/27/2016	10:49	-132.381	44.869	0	452.20	0	4.8580	0	34.0040	0	26.906	0	448.045	0	55.4	4	17.8	4	-1E+10	1	-1E+10	1	-1E+10	1	-1E+10	1	-1E+10	1	-1E+10	1
4901784	45	C	09/27/2016	10:49	-132.381	44.869	0	454.80	0	4.8270	0	34.0060	0	26.911	0	450.618	0	54.9	4	17.7	4	-1E+10	1	-1E+10	1	-1E+10	1	-1E+10	1	-1E+10	1	-1E+10	1
4901784	45	C	09/27/2016	10:49	-132.381	44.869	0	457.50	0	4.7990	0	34.0080	0	26.916	0	453.290	0	54.3	4	17.4	4	-1E+10	1	-1E+10	1	-1E+10	1	-1E+10	1	-1E+10	1	-1E+10	1
4901784	45	C	09/27/2016	10:49	-132.381	44.869	0	460.30	0	4.7940	0	34.0100	0	26.918	0	456.062	0	53.5	4	17.2	4	-1E+10	1	-1E+10	1	-1E+10	1	-1E+10	1	-1E+10	1	-1E+10	1
4901784	45	C	09/27/2016	10:49	-132.381	44.869	0	463.00	0	4.7890	0	34.0120	0	26.920	0	458.734	0	52.8	4	17.0	4	-1E+10	1	-1E+10	1	-1E+10	1	-1E+10	1	-1E+10	1	-1E+10	1
4901784	45	C	09/27/2016	10:49	-132.381	44.869	0	464.80	0	4.7770	0	34.0130	0	26.922	0	460.515	0	52.3	4	16.8	4	-1E+10	1	-1E+10	1	-1E+10	1	-1E+10	1	-1E+10	1	-1E+10	1
4901784	45	C	09/27/2016	10:49	-132.381	44.869	0	467.50	0	4.7710	0	34.0160	0	26.925	0	463.187	0	51.3	4	16.5	4	-1E+10	1	-1E+10	1	-1E+10	1	-1E+10	1	-1E+10	1	-1E+10	1
4901784	45	C	09/27/2016	10:49	-132.381	44.869	0	470.30	0	4.7770	0	34.0190	0	26.927	0	465.958	0	50.6	4	16.3	4	-1E+10	1	-1E+10	1	-1E+10	1	-1E+10	1	-1E+10	1	-1E+10	1
4901784	45	C	09/27/2016	10:49	-132.381	44.869	0	472.20	0	4.7730	0	34.0200	0	26.928	0	467.839	0	50.3	4	16.2	4	-1E+10	1	-1E+10	1	-1E+10	1	-1E+10	1	-1E+10	1	-1E+10	1
4901784	45	C	09/27/2016	10:49	-132.381	44.869	0	475.00	0	4.7590	0	34.0210	0	26.930	0	470.610	0	49.9	4	16.0	4	-1E+10	1	-1E+10	1	-1E+10	1	-1E+10	1	-1E+10	1	-1E+10	1
4901784	45	C	09/27/2016	10:49	-132.381	44.869	0	477.70	0	4.7370	0	34.0220	0	26.934	0	473.282	0	49.1	4	15.8	4	-1E+10	1	-1E+10	1	-1E+10	1	-1E+10	1	-1E+10	1	-1E+10	1
4901784	45	C	09/27/2016	10:49	-132.381	44.869	0	479.60	0	4.7330	0	34.0240	0	26.936	0	475.162	0	48.4	4	15.5	4	-1E+10	1	-1E+10	1	-1E+10	1	-1E+10	1	-1E+10	1	-1E+10	1
4901784	45	C	09/27/2016	10:49	-132.381	44.869	0	482.30	0	4.7190	0	34.0300	0	26.942	0	477.834	0	47.5	4	15.2	4	-1E+10	1	-1E+10	1	-1E+10	1	-1E+10	1	-1E+10	1	-1E+10	1
4901784	45	C	09/27/2016	10:49	-132.381	44.869	0	485.00	0	4.7000	0	34.0320	0	26.946	0	480.506	0	47.1	4	15.1	4	-1E+10	1	-1E+10	1	-1E+10	1	-1E+10	1	-1E+10	1	-1E+10	1
4901784	45	C	09/27/2016	10:49	-132.381	44.869	0	487.70	0	4.6930	0	34.0350	0	26.949	0	483.177	0	46.5	4	14.9	4	-1E+10	1	-1E+10	1	-1E+10	1	-1E+10	1	-1E+10	1	-1E+10	1
4901784	45	C	09/27/2016	10:49	-132.381	44.869	0	490.40	0	4.6810	0	34.0370	0	26.952	0	485.849	0	45.8	4	14.7	4	-1E+10	1	-1E+10	1	-1E+10	1	-1E+10	1	-1E+10	1	-1E+10	1
4901784	45	C	09/27/2016	10:49	-132.381	44.869	0	492.30	0	4.6800	0	34.0380	0	26.953	0	487.729	0	45.3	4	14.5	4	-1E+10	1	-1E+10	1	-1E+10	1	-1E+10	1	-1E+10	1	-1E+10	1
4901784	45	C	09/27/2016	10:49	-132.381	44.869	0	495.00	0	4.6710	0	34.0400	0	26.955	0	490.401	0	44.2	4	14.2	4	-1E+10	1	-1E+10	1	-1E+10	1	-1E+10	1	-1E+10	1	-1E+10	1
4901784	45	C	09/27/2016	10:49	-132.381	44.869	0	497.80	0	4.6630	0	34.0450	0	26.960	0	493.172	0	43.0	4	13.8	4	-1E+10	1	-1E+10	1	-1E+10	1	-1E+10	1	-1E+10	1	-1E+10	1
4901784	45	C	09/27/2016	10:49	-132.381	44.869	0	499.70	0	4.6630	0	34.0460	0	26.961	0	495.052	0	42.3	4	13.6	4	-1E+10	1	-1E+10	1	-1E+10	1	-1E+10	1	-1E+10	1	-1E+10	1
4901784	45	C	09/27/2016	10:49	-132.381	44.869	0	505.30	0	4.6610	0	34.0530	0	26.967	0	500.593	0	40.1	4	12.9	4	-1E+10	1	-1E+10	1	-1E+10	1	-1E+10	1	-1E+10	1	-1E+10	1
4901784	45	C	09/27/2016	10:49	-132.381	44.869	0	509.90	0	4.6550	0	34.0580	0	26.972	0	505.145	0	39.0	4	12.5	4	-1E+10	1	-1E+10	1	-1E+10	1	-1E+10	1	-1E+10	1	-1E+10	1
4901784	45	C	09/27/2016	10:49	-132.381	44.869	0	514.40	0	4.6420	0	34.0610	0	26.975	0	509.597	0	37.8	4	12.1	4	-1E+10	1	-1E+10	1	-1E+10	1	-1E+10	1	-1E+10	1	-1E+10	1
4901784	45	C	09/27/2016	10:49	-132.381	44.869	0	520.00	0	4.6260	0	34.0670	0	26.982	0	515.138	0	36.6	4	11.7	4	-1E+10	1	-1E+10	1	-1E+10	1	-1E+10	1	-1E+10	1	-1E+10	1
4901784	45	C	09/27/2016	10:49	-132.381	44.869	0	525.00	0	4.6130	0	34.0710	0	26.987	0	520.085	0	35.3	4	11.3	4	-1E+10	1	-1E+10	1	-1E+10	1	-1E+10	1	-1E+10	1	-1E+10	1
4901784	45	C	09/27/2016	10:49	-132.381	44.869	0	530.40	0	4.5900	0	34.0780	0	26.995	0	525.428	0	33.9	4	10.8	4	-1E+10	1	-1E+10	1	-1E+10	1	-1E+10	1	-1E+10	1	-1E+10	1
4901784	45	C	09/27/2016	10:49	-132.381	44.869	0	535.10	0	4.5670	0	34.0800	0	26.999	0	530.077	0	32.9	4	10.5	4	-1E+10	1	-1E+10	1	-1E+10	1	-1E+10	1	-1E+10	1	-1E+10	1
4901784	45	C	09/27/2016	10:49	-132.381	44.869	0	539.80	0	4.5340	0	34.0850	0	27.006	0	534.727	0	31.9	4	10.2	4	-1E+10	1	-1E+10	1	-1E+10	1	-1E+10	1	-1E+10	1	-1E+10	1
4901784	45	C	09/27/2016	10:49	-132.381	44.869	0	544.70	0	4.5090	0	34.0930	0	27.015	0	539.575	0	30.9	4	9.9	4	-1E+10	1	-1E+10	1	-1E+10	1	-1E+10	1	-1E+10	1	-1E+10	1
4901784	45	C	09/27/2016	10:49	-132.381	44.869	0	549.50	0	4.5040	0	34.0980	0	27.020	0	544.323	0	30.3	4	9.7	4	-1E+10	1	-1E+10	1	-1E+10	1	-1E+10	1	-1E+10	1	-1E+10	1
4901784	45	C	09/27/2016	10:49	-132.381	44.869	0	554.40	0	4.4890	0	34.1000	0	27.023	0	549.171	0	29.7	4	9.5	4	-1E+10	1	-1E+10	1	-1E+10	1	-1E+10	1	-1E+10	1	-1E+10	1
4901784	45	C	09/27/2016	10:49	-132.381	44.869	0	559.40	0	4.4670	0	34.1030	0	27.028	0	554.117	0	29.1	4	9.3	4	-1E+10	1	-1E+10	1	-1E+10	1	-1E+10	1	-1E+10	1	-1E+10	1
4901784	45	C	09/27/2016	10:49	-132.381	44.869	0	564.50	0	4.4430	0	34.1050	0	27.032	0	559.162	0	28.6	4	9.1	4	-1E+10	1	-1E+10	1	-1E+10	1	-1E+10	1	-1E+10	1	-1E+10	1
4901784	45	C	09/27/2016	10:49	-132.381	44.869	0	569.50	0	4.4120	0	34.1100	0	27.040	0	564.108	0	28.2	4	9.0	4	-1E+10	1	-1E+10	1	-1E+10	1	-1E+10	1	-1E+10	1	-1E+10	1
4901784	45	C	09/27/2016	10:49	-132.381	44.869	0	574.50	0	4.3730	0	34.1110	0	27.045	0	569.054	0	27.7	4	8.8	4	-1E+10	1	-1E+10	1	-1E+10	1	-1E+10	1	-1E+10	1	-1E+10	1
4901784	45	C	09/27/2016	10:49	-132.381	44.869	0	579.50	0	4.3580	0	34.1160	0	27.050	0	573.999	0	27.0	4	8.6	4	-1E+10	1	-1E+10	1	-1E+10	1	-1E+10	1	-1E+10	1	-1E+10	1
4901784	45	C	09/27/2016	10:49	-132.381	44.869	0	584.70	0	4.3490	0	34.1200	0	27.054	0	579.143	0	26.3	4	8.4	4	-1E+10	1	-1E+10	1	-1E+10	1	-1E+10	1	-1E+10	1	-1E+10	1
4901784	45	C	09/27/2016	10:49	-132.381	44.869	0	589.70	0	4.3180	0	34.1240	0	27.061	0	584.088	0	25.8	4	8.2	4	-1E+10	1	-1E+10	1	-1E+10	1	-1E+10	1	-1E+10	1	-1E+10	1
4901784	45	C	09/27/2016	10:49	-132.381	44.869	0	594.90	0	4.3020	0	34.1270	0	27.065	0	589.232	0	25.0	4	7.9	4	-1E+10	1	-1E+10	1	-1E+10	1	-1E+10	1	-1E+10	1	-1E+10	1
4901784	45	C	09/27/2016	10:49	-132.381	44.869	0	600.20	0	4.2840	0	34.1360	0	27.074	0	594.473	0	24.0	4	7.6	4	-1E+10	1	-1E+10	1	-1E+10	1	-1E+10	1	-1E+10	1	-1E+10	1
4901784	45	C	09/27/2016	10:49	-132.381	44.869	0	605.50	0	4.2710	0	34.1410	0	27.079	0	599.715	0	23.2	4	7.4	4	-1E+10	1	-1E+10	1	-1E+10	1	-1E+10	1	-1E+10	1	-1E+10	1
4901784	45	C	09/27/2016	10:49	-132.381	44.869	0	609.90	0	4.2630	0	34.1460	0	27.084	0	604.067	0	22.7	4	7.2	4	-1E+10	1	-1E+10	1	-1E+10	1	-1E+10	1	-1E+10	1	-1E+10	1
4901784	45	C	09/27/2016	10:49	-132.381	44.869	0	614.40	0	4.2580	0	34.1480	0	27.086	0	608.517	0	22.1	4	7.0	4	-1E+10	1	-1E+10	1	-1E+10	1	-1E+10	1	-1E+10	1	-1E+10	1
4901784	45	C	09/27/2016	10:49	-132.381	44.869	0	619.90	0	4.2420	0	34.1550	0	27.094	0	613.956	0	21.3	4	6.8	4	-1E+10	1	-1E+10	1	-1E+10	1	-1E+10	1	-1E+10	1	-1E+10	1
4901784	45	C	09/27/2016	10:49	-132.381	44.869	0	625.30	0	4.2310	0	34.1600	0	27.099	0	619.297	0	20.8	4	6.6	4	-1E+10	1	-1E+10	1	-1E+10	1	-1E+10	1	-1E+10	1	-1E+10	1
4901784	45	C	09/27/2016	10:49	-132.381	44.869	0	629.90	0	4.2210	0	34.1630	0	27.102	0	623.846	0	20.5	4	6.5	4	-1E+10	1	-1E+10	1	-1E+10	1	-1E+10	1	-1E+10	1	-1E+10	1
4901784	45	C	09/27/2016	10:49	-132.381	44.869	0	634.50	0	4.1950	0	34.1670	0	27.108	0	628.394	0	20.0	4	6.3	4	-1E+10	1	-1E+10	1	-1E+10	1	-1E+10	1	-1E+10	1	-1E+10	1
4901784	45	C	09/27/2016	10:49	-132.381	44.869	0	639.90	0	4.1880	0	34.1730	0	27.114	0	633.734	0	19.4	4	6.2	4	-1E+10	1	-1E+10	1	-1E+10	1	-1E+10	1	-1E+10	1	-1E+10	1
4901784	45	C	09/27/2016	10:49	-132.381	44.869	0	645.50	0	4.1670	0	34.1790	0	27.121	0	639.272	0	18.9	4	6.0	4	-1E+10	1	-1E+10	1	-1E+10	1	-1E+10	1	-1E+10	1	-1E+10	1
4901784	45	C	09/27/2016	10:49	-132.381	44.869	0	650.30	0	4.1560	0	34.1830	0	27.125	0	644.018	0	18.6	4	5.9	4	-1E+10	1	-1E+10	1	-1E+10	1	-1E+10	1	-1E+10	1	-1E+10	1
4901784	45	C	09/27/2016	10:49	-132.381	44.869	0	655.10	0	4.1600	0	34.1860	0	27.127	0	648.764	0	18.2	4	5.8	4	-1E+10	1	-1E+10	1	-1E+10	1	-1E+10	1	-1E+10	1	-1E+10	1
4901784	45	C	09/27/2016	10:49	-132.381	44.869	0	659.90	0	4.1580	0	34.1890	0	27.130	0	653.510	0	18.1	4	5.7	4	-1E+10	1	-1E+10	1	-1E+10	1	-1E+10	1	-1E+10	1	-1E+10	1
4901784	45	C	09/27/2016	10:49	-132.381	44.869	0	664.60	0	4.1410	0	34.1900	0	27.132	0	658.157	0	18.0	4	5.7	4	-1E+10	1	-1E+10	1	-1E+10	1	-1E+10	1	-1E+10	1	-1E+10	1
4901784	45	C	09/27/2016	10:49	-132.381	44.869	0	670.30	0	4.1310	0	34.1920	0	27.135	0	663.793	0	17.9	4	5.7	4	-1E+10	1	-1E+10	1	-1E+10	1	-1E+10	1	-1E+10	1	-1E+10	1
4901784	45	C	09/27/2016	10:49	-132.381	44.869	0	675.60	0	4.1140	0	34.1950	0	27.139	0	669.033	0	17.6	4	5.6	4	-1E+10	1	-1E+10	1	-1E+10	1	-1E+10	1	-1E+10	1	-1E+10	1
4901784	45	C	09/27/2016	10:49	-132.381	44.869	0	680.40	0	4.1030	0	34.1980	0	27.143	0	673.779	0	17.3	4	5.5	4	-1E+10	1	-1E+10	1	-1E+10	1	-1E+10	1	-1E+10	1	-1E+10	1
4901784	45	C	09/27/2016	10:49	-132.381	44.869	0	685.40	0	4.0940	0	34.2020	0	27.147	0	678.722	0	17.0	4	5.4	4	-1E+10	1	-1E+10	1	-1E+10	1	-1E+10	1	-1E+10	1	-1E+10	1
4901784	45	C	09/27/2016	10:49	-132.381	44.869	0	690.30	0	4.0720	0	34.2070	0	27.153	0	683.566	0	16.7	4	5.3	4	-1E+10	1	-1E+10	1	-1E+10	1	-1E+10	1	-1E+10	1	-1E+10	1
4901784	45	C	09/27/2016	10:49	-132.381	44.869	0	695.20	0	4.0640	0	34.2100	0	27.156	0	688.410	0	16.5	4	5.2	4	-1E+10	1	-1E+10	1	-1E+10	1	-1E+10	1	-1E+10	1	-1E+10	1
4901784	45	C	09/27/2016	10:49	-132.381	44.869	0	700.30	0	4.0630	0	34.2120	0	27.158	0	693.452	0	16.3	4	5.1	4	-1E+10	1	-1E+10	1	-1E+10	1	-1E+10	1	-1E+10	1	-1E+10	1
4901784	45	C	09/27/2016	10:49	-132.381	44.869	0	705.30	0	4.0620	0	34.2160	0	27.162	0	698.395	0	15.9	4	5.0	4	-1E+10	1	-1E+10	1	-1E+10	1	-1E+10	1	-1E+10	1	-1E+10	1
4901784	45	C	09/27/2016	10:49	-132.381	44.869	0	710.30	0	4.0560	0	34.2200	0	27.165	0	703.337	0	15.8	4	5.0	4	-1E+10	1	-1E+10	1	-1E+10	1	-1E+10	1	-1E+10	1	-1E+10	1
4901784	45	C	09/27/2016	10:49	-132.381	44.869	0	715.40	0	4.0470	0	34.2210	0	27.167	0	708.379	0	15.7	4	5.0	4	-1E+10	1	-1E+10	1	-1E+10	1	-1E+10	1	-1E+10	1	-1E+10	1
4901784	45	C	09/27/2016	10:49	-132.381	44.869	0	720.50	0	4.0390	0	34.2230	0	27.170	0	713.420	0	15.4	4	4.9	4	-1E+10	1	-1E+10	1	-1E+10	1	-1E+10	1	-1E+10	1	-1E+10	1
4901784	45	C	09/27/2016	10:49	-132.381	44.869	0	725.60	0	4.0280	0	34.2260	0	27.173	0	718.461	0	15.0	4	4.7	4	-1E+10	1	-1E+10	1	-1E+10	1	-1E+10	1	-1E+10	1	-1E+10	1
4901784	45	C	09/27/2016	10:49	-132.381	44.869	0	729.90	0	4.0230	0	34.2330	0	27.179	0	722.711	0	14.4	4	4.5	4	-1E+10	1	-1E+10	1	-1E+10	1	-1E+10	1	-1E+10	1	-1E+10	1
4901784	45	C	09/27/2016	10:49	-132.381	44.869	0	734.30	0	4.0300	0	34.2390	0	27.183	0	727.060	0	13.8	4	4.4	4	-1E+10	1	-1E+10	1	-1E+10	1	-1E+10	1	-1E+10	1	-1E+10	1
4901784	45	C	09/27/2016	10:49	-132.381	44.869	0	739.70	0	4.0190	0	34.2470	0	27.191	0	732.397	0	13.4	4	4.2	4	-1E+10	1	-1E+10	1	-1E+10	1	-1E+10	1	-1E+10	1	-1E+10	1
4901784	45	C	09/27/2016	10:49	-132.381	44.869	0	745.00	0	4.0020	0	34.2510	0	27.196	0	737.636	0	13.4	4	4.2	4	-1E+10	1	-1E+10	1	-1E+10	1	-1E+10	1	-1E+10	1	-1E+10	1
4901784	45	C	09/27/2016	10:49	-132.381	44.869	0	750.30	0	3.9860	0	34.2540	0	27.200	0	742.874	0	13.3	4	4.2	4	-1E+10	1	-1E+10	1	-1E+10	1	-1E+10	1	-1E+10	1	-1E+10	1
4901784	45	C	09/27/2016	10:49	-132.381	44.869	0	755.50	0	3.9550	0	34.2550	0	27.204	0	748.013	0	13.2	4	4.2	4	-1E+10	1	-1E+10	1	-1E+10	1	-1E+10	1	-1E+10	1	-1E+10	1
4901784	45	C	09/27/2016	10:49	-132.381	44.869	0	760.00	0	3.9490	0	34.2590	0	27.208	0	752.460	0	13.0	4	4.1	4	-1E+10	1	-1E+10	1	-1E+10	1	-1E+10	1	-1E+10	1	-1E+10	1
4901784	45	C	09/27/2016	10:49	-132.381	44.869	0	764.50	0	3.9390	0	34.2640	0	27.213	0	756.908	0	12.9	4	4.1	4	-1E+10	1	-1E+10	1	-1E+10	1	-1E+10	1	-1E+10	1	-1E+10	1
4901784	45	C	09/27/2016	10:49	-132.381	44.869	0	769.70	0	3.9300	0	34.2660	0	27.215	0	762.046	0	12.9	4	4.1	4	-1E+10	1	-1E+10	1	-1E+10	1	-1E+10	1	-1E+10	1	-1E+10	1
4901784	45	C	09/27/2016	10:49	-132.381	44.869	0	775.00	0	3.9120	0	34.2680	0	27.219	0	767.284	0	12.9	4	4.1	4	-1E+10	1	-1E+10	1	-1E+10	1	-1E+10	1	-1E+10	1	-1E+10	1
4901784	45	C	09/27/2016	10:49	-132.381	44.869	0	780.40	0	3.8970	0	34.2700	0	27.222	0	772.620	0	12.8	4	4.0	4	-1E+10	1	-1E+10	1	-1E+10	1	-1E+10	1	-1E+10	1	-1E+10	1
4901784	45	C	09/27/2016	10:49	-132.381	44.869	0	784.90	0	3.8890	0	34.2710	0	27.223	0	777.067	0	12.7	4	4.0	4	-1E+10	1	-1E+10	1	-1E+10	1	-1E+10	1	-1E+10	1	-1E+10	1
4901784	45	C	09/27/2016	10:49	-132.381	44.869	0	789.40	0	3.8780	0	34.2750	0	27.228	0	781.514	0	12.5	4	3.9	4	-1E+10	1	-1E+10	1	-1E+10	1	-1E+10	1	-1E+10	1	-1E+10	1
4901784	45	C	09/27/2016	10:49	-132.381	44.869	0	794.80	0	3.8730	0	34.2790	0	27.232	0	786.850	0	12.4	4	3.9	4	-1E+10	1	-1E+10	1	-1E+10	1	-1E+10	1	-1E+10	1	-1E+10	1
4901784	45	C	09/27/2016	10:49	-132.381	44.869	0	800.30	0	3.8620	0	34.2800	0	27.233	0	792.284	0	12.4	4	3.9	4	-1E+10	1	-1E+10	1	-1E+10	1	-1E+10	1	-1E+10	1	-1E+10	1
4901784	45	C	09/27/2016	10:49	-132.381	44.869	0	805.70	0	3.8490	0	34.2830	0	27.237	0	797.620	0	12.3	4	3.9	4	-1E+10	1	-1E+10	1	-1E+10	1	-1E+10	1	-1E+10	1	-1E+10	1
4901784	45	C	09/27/2016	10:49	-132.381	44.869	0	810.30	0	3.8370	0	34.2870	0	27.242	0	802.165	0	12.2	4	3.8	4	-1E+10	1	-1E+10	1	-1E+10	1	-1E+10	1	-1E+10	1	-1E+10	1
4901784	45	C	09/27/2016	10:49	-132.381	44.869	0	814.80	0	3.8310	0	34.2880	0	27.243	0	806.611	0	12.1	4	3.8	4	-1E+10	1	-1E+10	1	-1E+10	1	-1E+10	1	-1E+10	1	-1E+10	1
4901784	45	C	09/27/2016	10:49	-132.381	44.869	0	820.30	0	3.8230	0	34.2900	0	27.245	0	812.045	0	12.0	4	3.8	4	-1E+10	1	-1E+10	1	-1E+10	1	-1E+10	1	-1E+10	1	-1E+10	1
4901784	45	C	09/27/2016	10:49	-132.381	44.869	0	824.80	0	3.8130	0	34.2940	0	27.250	0	816.491	0	11.9	4	3.7	4	-1E+10	1	-1E+10	1	-1E+10	1	-1E+10	1	-1E+10	1	-1E+10	1
4901784	45	C	09/27/2016	10:49	-132.381	44.869	0	829.40	0	3.8010	0	34.2970	0	27.253	0	821.036	0	11.8	4	3.7	4	-1E+10	1	-1E+10	1	-1E+10	1	-1E+10	1	-1E+10	1	-1E+10	1
4901784	45	C	09/27/2016	10:49	-132.381	44.869	0	835.00	0	3.7870	0	34.3020	0	27.259	0	826.568	0	11.7	4	3.7	4	-1E+10	1	-1E+10	1	-1E+10	1	-1E+10	1	-1E+10	1	-1E+10	1
4901784	45	C	09/27/2016	10:49	-132.381	44.869	0	840.40	0	3.7720	0	34.3050	0	27.263	0	831.903	0	11.7	4	3.7	4	-1E+10	1	-1E+10	1	-1E+10	1	-1E+10	1	-1E+10	1	-1E+10	1
4901784	45	C	09/27/2016	10:49	-132.381	44.869	0	845.00	0	3.7630	0	34.3080	0	27.266	0	836.447	0	11.6	4	3.6	4	-1E+10	1	-1E+10	1	-1E+10	1	-1E+10	1	-1E+10	1	-1E+10	1
4901784	45	C	09/27/2016	10:49	-132.381	44.869	0	849.60	0	3.7520	0	34.3100	0	27.269	0	840.991	0	11.6	4	3.6	4	-1E+10	1	-1E+10	1	-1E+10	1	-1E+10	1	-1E+10	1	-1E+10	1
4901784	45	C	09/27/2016	10:49	-132.381	44.869	0	855.00	0	3.7310	0	34.3160	0	27.276	0	846.326	0	11.5	4	3.6	4	-1E+10	1	-1E+10	1	-1E+10	1	-1E+10	1	-1E+10	1	-1E+10	1
4901784	45	C	09/27/2016	10:49	-132.381	44.869	0	860.60	0	3.7090	0	34.3220	0	27.283	0	851.857	0	11.5	4	3.6	4	-1E+10	1	-1E+10	1	-1E+10	1	-1E+10	1	-1E+10	1	-1E+10	1
4901784	45	C	09/27/2016	10:49	-132.381	44.869	0	865.20	0	3.6940	0	34.3250	0	27.286	0	856.401	0	11.4	4	3.6	4	-1E+10	1	-1E+10	1	-1E+10	1	-1E+10	1	-1E+10	1	-1E+10	1
4901784	45	C	09/27/2016	10:49	-132.381	44.869	0	869.90	0	3.6870	0	34.3270	0	27.289	0	861.044	0	11.4	4	3.6	4	-1E+10	1	-1E+10	1	-1E+10	1	-1E+10	1	-1E+10	1	-1E+10	1
4901784	45	C	09/27/2016	10:49	-132.381	44.869	0	875.50	0	3.6710	0	34.3310	0	27.294	0	866.575	0	11.4	4	3.6	4	-1E+10	1	-1E+10	1	-1E+10	1	-1E+10	1	-1E+10	1	-1E+10	1
4901784	45	C	09/27/2016	10:49	-132.381	44.869	0	880.20	0	3.6590	0	34.3320	0	27.296	0	871.217	0	11.4	4	3.6	4	-1E+10	1	-1E+10	1	-1E+10	1	-1E+10	1	-1E+10	1	-1E+10	1
4901784	45	C	09/27/2016	10:49	-132.381	44.869	0	884.90	0	3.6430	0	34.3360	0	27.300	0	875.860	0	11.4	4	3.6	4	-1E+10	1	-1E+10	1	-1E+10	1	-1E+10	1	-1E+10	1	-1E+10	1
4901784	45	C	09/27/2016	10:49	-132.381	44.869	0	890.40	0	3.6380	0	34.3390	0	27.303	0	881.292	0	11.4	4	3.6	4	-1E+10	1	-1E+10	1	-1E+10	1	-1E+10	1	-1E+10	1	-1E+10	1
4901784	45	C	09/27/2016	10:49	-132.381	44.869	0	895.10	0	3.6260	0	34.3420	0	27.307	0	885.934	0	11.4	4	3.6	4	-1E+10	1	-1E+10	1	-1E+10	1	-1E+10	1	-1E+10	1	-1E+10	1
4901784	45	C	09/27/2016	10:49	-132.381	44.869	0	899.80	0	3.6130	0	34.3450	0	27.311	0	890.576	0	11.4	4	3.6	4	-1E+10	1	-1E+10	1	-1E+10	1	-1E+10	1	-1E+10	1	-1E+10	1
4901784	45	C	09/27/2016	10:49	-132.381	44.869	0	905.50	0	3.5990	0	34.3480	0	27.314	0	896.205	0	11.5	4	3.6	4	-1E+10	1	-1E+10	1	-1E+10	1	-1E+10	1	-1E+10	1	-1E+10	1
4901784	45	C	09/27/2016	10:49	-132.381	44.869	0	910.10	0	3.5840	0	34.3510	0	27.318	0	900.748	0	11.5	4	3.6	4	-1E+10	1	-1E+10	1	-1E+10	1	-1E+10	1	-1E+10	1	-1E+10	1
4901784	45	C	09/27/2016	10:49	-132.381	44.869	0	914.80	0	3.5590	0	34.3540	0	27.323	0	905.389	0	11.5	4	3.6	4	-1E+10	1	-1E+10	1	-1E+10	1	-1E+10	1	-1E+10	1	-1E+10	1
4901784	45	C	09/27/2016	10:49	-132.381	44.869	0	920.30	0	3.5510	0	34.3580	0	27.327	0	910.821	0	11.6	4	3.6	4	-1E+10	1	-1E+10	1	-1E+10	1	-1E+10	1	-1E+10	1	-1E+10	1
4901784	45	C	09/27/2016	10:49	-132.381	44.869	0	925.00	0	3.5450	0	34.3610	0	27.330	0	915.462	0	11.6	4	3.6	4	-1E+10	1	-1E+10	1	-1E+10	1	-1E+10	1	-1E+10	1	-1E+10	1
4901784	45	C	09/27/2016	10:49	-132.381	44.869	0	929.70	0	3.5410	0	34.3620	0	27.331	0	920.103	0	11.7	4	3.7	4	-1E+10	1	-1E+10	1	-1E+10	1	-1E+10	1	-1E+10	1	-1E+10	1
4901784	45	C	09/27/2016	10:49	-132.381	44.869	0	935.20	0	3.5260	0	34.3650	0	27.335	0	925.535	0	11.8	4	3.7	4	-1E+10	1	-1E+10	1	-1E+10	1	-1E+10	1	-1E+10	1	-1E+10	1
4901784	45	C	09/27/2016	10:49	-132.381	44.869	0	939.90	0	3.5050	0	34.3690	0	27.340	0	930.176	0	11.8	4	3.7	4	-1E+10	1	-1E+10	1	-1E+10	1	-1E+10	1	-1E+10	1	-1E+10	1
4901784	45	C	09/27/2016	10:49	-132.381	44.869	0	944.60	0	3.4930	0	34.3730	0	27.345	0	934.816	0	11.9	4	3.7	4	-1E+10	1	-1E+10	1	-1E+10	1	-1E+10	1	-1E+10	1	-1E+10	1
4901784	45	C	09/27/2016	10:49	-132.381	44.869	0	950.00	0	3.4780	0	34.3770	0	27.349	0	940.148	0	12.1	4	3.8	4	-1E+10	1	-1E+10	1	-1E+10	1	-1E+10	1	-1E+10	1	-1E+10	1
4901784	45	C	09/27/2016	10:49	-132.381	44.869	0	955.50	0	3.4640	0	34.3820	0	27.355	0	945.579	0	12.2	4	3.8	4	-1E+10	1	-1E+10	1	-1E+10	1	-1E+10	1	-1E+10	1	-1E+10	1
4901784	45	C	09/27/2016	10:49	-132.381	44.869	0	960.30	0	3.4500	0	34.3860	0	27.359	0	950.318	0	12.3	4	3.8	4	-1E+10	1	-1E+10	1	-1E+10	1	-1E+10	1	-1E+10	1	-1E+10	1
4901784	45	C	09/27/2016	10:49	-132.381	44.869	0	965.20	0	3.4410	0	34.3880	0	27.362	0	955.156	0	12.3	4	3.8	4	-1E+10	1	-1E+10	1	-1E+10	1	-1E+10	1	-1E+10	1	-1E+10	1
4901784	45	C	09/27/2016	10:49	-132.381	44.869	0	970.10	0	3.4340	0	34.3890	0	27.363	0	959.994	0	12.3	4	3.9	4	-1E+10	1	-1E+10	1	-1E+10	1	-1E+10	1	-1E+10	1	-1E+10	1
4901784	45	C	09/27/2016	10:49	-132.381	44.869	0	974.90	0	3.4210	0	34.3910	0	27.366	0	964.733	0	12.3	4	3.8	4	-1E+10	1	-1E+10	1	-1E+10	1	-1E+10	1	-1E+10	1	-1E+10	1
4901784	45	C	09/27/2016	10:49	-132.381	44.869	0	979.80	0	3.3960	0	34.3950	0	27.372	0	969.570	0	12.3	4	3.8	4	-1E+10	1	-1E+10	1	-1E+10	1	-1E+10	1	-1E+10	1	-1E+10	1
4901784	45	C	09/27/2016	10:49	-132.381	44.869	0	984.70	0	3.3830	0	34.3970	0	27.375	0	974.408	0	12.4	4	3.9	4	-1E+10	1	-1E+10	1	-1E+10	1	-1E+10	1	-1E+10	1	-1E+10	1
4901784	45	C	09/27/2016	10:49	-132.381	44.869	0	989.80	0	3.3720	0	34.3990	0	27.377	0	979.443	0	12.5	4	3.9	4	-1E+10	1	-1E+10	1	-1E+10	1	-1E+10	1	-1E+10	1	-1E+10	1
4901784	45	C	09/27/2016	10:49	-132.381	44.869	0	994.80	0	3.3600	0	34.4030	0	27.382	0	984.379	0	12.7	4	4.0	4	-1E+10	1	-1E+10	1	-1E+10	1	-1E+10	1	-1E+10	1	-1E+10	1
4901784	45	C	09/27/2016	10:49	-132.381	44.869	0	999.80	0	3.3560	0	34.4060	0	27.384	0	989.314	0	13.0	4	4.0	4	-1E+10	1	-1E+10	1	-1E+10	1	-1E+10	1	-1E+10	1	-1E+10	1
4901784	45	C	09/27/2016	10:49	-132.381	44.869	0	1005.00	0	3.3520	0	34.4110	0	27.389	0	994.448	0	13.3	4	4.1	4	-1E+10	1	-1E+10	1	-1E+10	1	-1E+10	1	-1E+10	1	-1E+10	1
4901784	45	C	09/27/2016	10:49	-132.381	44.869	0	1010.00	0	3.3510	0	34.4140	0	27.391	0	999.383	0	13.5	4	4.2	4	-1E+10	1	-1E+10	1	-1E+10	1	-1E+10	1	-1E+10	1	-1E+10	1
4901784	45	C	09/27/2016	10:49	-132.381	44.869	0	1015.00	0	3.3450	0	34.4170	0	27.394	0	1004.319	0	13.7	4	4.3	4	-1E+10	1	-1E+10	1	-1E+10	1	-1E+10	1	-1E+10	1	-1E+10	1
4901784	45	C	09/27/2016	10:49	-132.381	44.869	0	1020.10	0	3.3370	0	34.4190	0	27.397	0	1009.353	0	13.9	4	4.3	4	-1E+10	1	-1E+10	1	-1E+10	1	-1E+10	1	-1E+10	1	-1E+10	1
4901784	45	C	09/27/2016	10:49	-132.381	44.869	0	1025.30	0	3.3310	0	34.4210	0	27.399	0	1014.485	0	14.1	4	4.4	4	-1E+10	1	-1E+10	1	-1E+10	1	-1E+10	1	-1E+10	1	-1E+10	1
4901784	45	C	09/27/2016	10:49	-132.381	44.869	0	1030.40	0	3.3210	0	34.4240	0	27.402	0	1019.519	0	14.3	4	4.4	4	-1E+10	1	-1E+10	1	-1E+10	1	-1E+10	1	-1E+10	1	-1E+10	1
4901784	45	C	09/27/2016	10:49	-132.381	44.869	0	1035.70	0	3.3140	0	34.4260	0	27.405	0	1024.750	0	14.5	4	4.5	4	-1E+10	1	-1E+10	1	-1E+10	1	-1E+10	1	-1E+10	1	-1E+10	1
4901784	45	C	09/27/2016	10:49	-132.381	44.869	0	1040.00	0	3.3120	0	34.4270	0	27.406	0	1028.994	0	14.8	4	4.6	4	-1E+10	1	-1E+10	1	-1E+10	1	-1E+10	1	-1E+10	1	-1E+10	1
4901784	45	C	09/27/2016	10:49	-132.381	44.869	0	1044.50	0	3.3140	0	34.4300	0	27.408	0	1033.435	0	15.1	4	4.7	4	-1E+10	1	-1E+10	1	-1E+10	1	-1E+10	1	-1E+10	1	-1E+10	1
4901784	45	C	09/27/2016	10:49	-132.381	44.869	0	1049.80	0	3.3190	0	34.4320	0	27.409	0	1038.666	0	15.4	4	4.8	4	-1E+10	1	-1E+10	1	-1E+10	1	-1E+10	1	-1E+10	1	-1E+10	1
4901784	45	C	09/27/2016	10:49	-132.381	44.869	0	1055.10	0	3.3180	0	34.4340	0	27.411	0	1043.897	0	15.7	4	4.9	4	-1E+10	1	-1E+10	1	-1E+10	1	-1E+10	1	-1E+10	1	-1E+10	1
4901784	45	C	09/27/2016	10:49	-132.381	44.869	0	1060.50	0	3.3110	0	34.4370	0	27.414	0	1049.226	0	16.0	4	5.0	4	-1E+10	1	-1E+10	1	-1E+10	1	-1E+10	1	-1E+10	1	-1E+10	1
4901784	45	C	09/27/2016	10:49	-132.381	44.869	0	1065.00	0	3.3060	0	34.4390	0	27.416	0	1053.667	0	16.1	4	5.0	4	-1E+10	1	-1E+10	1	-1E+10	1	-1E+10	1	-1E+10	1	-1E+10	1
4901784	45	C	09/27/2016	10:49	-132.381	44.869	0	1070.30	0	3.3000	0	34.4390	0	27.417	0	1058.897	0	16.2	4	5.1	4	-1E+10	1	-1E+10	1	-1E+10	1	-1E+10	1	-1E+10	1	-1E+10	1
4901784	45	C	09/27/2016	10:49	-132.381	44.869	0	1075.40	0	3.2920	0	34.4410	0	27.419	0	1063.930	0	16.4	4	5.1	4	-1E+10	1	-1E+10	1	-1E+10	1	-1E+10	1	-1E+10	1	-1E+10	1
4901784	45	C	09/27/2016	10:49	-132.381	44.869	0	1080.20	0	3.2780	0	34.4430	0	27.422	0	1068.666	0	16.5	4	5.1	4	-1E+10	1	-1E+10	1	-1E+10	1	-1E+10	1	-1E+10	1	-1E+10	1
4901784	45	C	09/27/2016	10:49	-132.381	44.869	0	1085.00	0	3.2680	0	34.4450	0	27.424	0	1073.403	0	16.7	4	5.2	4	-1E+10	1	-1E+10	1	-1E+10	1	-1E+10	1	-1E+10	1	-1E+10	1
4901784	45	C	09/27/2016	10:49	-132.381	44.869	0	1089.80	0	3.2610	0	34.4460	0	27.426	0	1078.139	0	16.8	4	5.2	4	-1E+10	1	-1E+10	1	-1E+10	1	-1E+10	1	-1E+10	1	-1E+10	1
4901784	45	C	09/27/2016	10:49	-132.381	44.869	0	1094.70	0	3.2590	0	34.4480	0	27.428	0	1082.974	0	17.0	4	5.3	4	-1E+10	1	-1E+10	1	-1E+10	1	-1E+10	1	-1E+10	1	-1E+10	1
4901784	45	C	09/27/2016	10:49	-132.381	44.869	0	1099.60	0	3.2370	0	34.4490	0	27.431	0	1087.809	0	17.1	4	5.3	4	-1E+10	1	-1E+10	1	-1E+10	1	-1E+10	1	-1E+10	1	-1E+10	1
4901784	45	C	09/27/2016	10:49	-132.381	44.869	0	1104.60	0	3.2260	0	34.4510	0	27.433	0	1092.742	0	17.4	4	5.4	4	-1E+10	1	-1E+10	1	-1E+10	1	-1E+10	1	-1E+10	1	-1E+10	1
4901784	45	C	09/27/2016	10:49	-132.381	44.869	0	1109.60	0	3.2330	0	34.4550	0	27.436	0	1097.676	0	18.0	4	5.6	4	-1E+10	1	-1E+10	1	-1E+10	1	-1E+10	1	-1E+10	1	-1E+10	1
4901784	45	C	09/27/2016	10:49	-132.381	44.869	0	1114.60	0	3.2350	0	34.4570	0	27.437	0	1102.609	0	18.2	4	5.6	4	-1E+10	1	-1E+10	1	-1E+10	1	-1E+10	1	-1E+10	1	-1E+10	1
4901784	45	C	09/27/2016	10:49	-132.381	44.869	0	1119.60	0	3.2320	0	34.4580	0	27.438	0	1107.542	0	18.5	4	5.7	4	-1E+10	1	-1E+10	1	-1E+10	1	-1E+10	1	-1E+10	1	-1E+10	1
4901784	45	C	09/27/2016	10:49	-132.381	44.869	0	1125.10	0	3.2390	0	34.4610	0	27.440	0	1112.968	0	18.9	4	5.9	4	-1E+10	1	-1E+10	1	-1E+10	1	-1E+10	1	-1E+10	1	-1E+10	1
4901784	45	C	09/27/2016	10:49	-132.381	44.869	0	1129.70	0	3.2400	0	34.4630	0	27.442	0	1117.506	0	19.2	4	6.0	4	-1E+10	1	-1E+10	1	-1E+10	1	-1E+10	1	-1E+10	1	-1E+10	1
4901784	45	C	09/27/2016	10:49	-132.381	44.869	0	1134.40	0	3.2280	0	34.4660	0	27.445	0	1122.143	0	19.3	4	6.0	4	-1E+10	1	-1E+10	1	-1E+10	1	-1E+10	1	-1E+10	1	-1E+10	1
4901784	45	C	09/27/2016	10:49	-132.381	44.869	0	1140.10	0	3.2170	0	34.4660	0	27.446	0	1127.766	0	19.4	4	6.0	4	-1E+10	1	-1E+10	1	-1E+10	1	-1E+10	1	-1E+10	1	-1E+10	1
4901784	45	C	09/27/2016	10:49	-132.381	44.869	0	1145.40	0	3.2110	0	34.4670	0	27.448	0	1132.994	0	19.6	4	6.1	4	-1E+10	1	-1E+10	1	-1E+10	1	-1E+10	1	-1E+10	1	-1E+10	1
4901784	45	C	09/27/2016	10:49	-132.381	44.869	0	1150.60	0	3.2150	0	34.4690	0	27.449	0	1138.124	0	19.8	4	6.1	4	-1E+10	1	-1E+10	1	-1E+10	1	-1E+10	1	-1E+10	1	-1E+10	1
4901784	45	C	09/27/2016	10:49	-132.381	44.869	0	1155.50	0	3.2040	0	34.4700	0	27.451	0	1142.958	0	19.7	4	6.1	4	-1E+10	1	-1E+10	1	-1E+10	1	-1E+10	1	-1E+10	1	-1E+10	1
4901784	45	C	09/27/2016	10:49	-132.381	44.869	0	1160.30	0	3.1970	0	34.4700	0	27.451	0	1147.692	0	19.8	4	6.1	4	-1E+10	1	-1E+10	1	-1E+10	1	-1E+10	1	-1E+10	1	-1E+10	1
4901784	45	C	09/27/2016	10:49	-132.381	44.869	0	1165.30	0	3.1930	0	34.4710	0	27.453	0	1152.624	0	19.8	4	6.1	4	-1E+10	1	-1E+10	1	-1E+10	1	-1E+10	1	-1E+10	1	-1E+10	1
4901784	45	C	09/27/2016	10:49	-132.381	44.869	0	1170.30	0	3.1850	0	34.4710	0	27.453	0	1157.556	0	19.7	4	6.1	4	-1E+10	1	-1E+10	1	-1E+10	1	-1E+10	1	-1E+10	1	-1E+10	1
4901784	45	C	09/27/2016	10:49	-132.381	44.869	0	1175.50	0	3.1750	0	34.4700	0	27.454	0	1162.685	0	19.6	4	6.1	4	-1E+10	1	-1E+10	1	-1E+10	1	-1E+10	1	-1E+10	1	-1E+10	1
4901784	45	C	09/27/2016	10:49	-132.381	44.869	0	1180.50	0	3.1560	0	34.4710	0	27.456	0	1167.617	0	19.8	4	6.1	4	-1E+10	1	-1E+10	1	-1E+10	1	-1E+10	1	-1E+10	1	-1E+10	1
4901784	45	C	09/27/2016	10:49	-132.381	44.869	0	1185.50	0	3.1490	0	34.4740	0	27.459	0	1172.548	0	20.1	4	6.2	4	-1E+10	1	-1E+10	1	-1E+10	1	-1E+10	1	-1E+10	1	-1E+10	1
4901784	45	C	09/27/2016	10:49	-132.381	44.869	0	1190.60	0	3.1470	0	34.4750	0	27.460	0	1177.578	0	20.2	4	6.3	4	-1E+10	1	-1E+10	1	-1E+10	1	-1E+10	1	-1E+10	1	-1E+10	1
4901784	45	C	09/27/2016	10:49	-132.381	44.869	0	1195.00	0	3.1350	0	34.4760	0	27.462	0	1181.918	0	20.3	4	6.3	4	-1E+10	1	-1E+10	1	-1E+10	1	-1E+10	1	-1E+10	1	-1E+10	1
4901784	45	C	09/27/2016	10:49	-132.381	44.869	0	1199.40	0	3.1330	0	34.4760	0	27.462	0	1186.257	0	20.4	4	6.3	4	-1E+10	1	-1E+10	1	-1E+10	1	-1E+10	1	-1E+10	1	-1E+10	1
4901784	45	C	09/27/2016	10:49	-132.381	44.869	0	1204.70	0	3.1190	0	34.4780	0	27.465	0	1191.484	0	20.7	4	6.4	4	-1E+10	1	-1E+10	1	-1E+10	1	-1E+10	1	-1E+10	1	-1E+10	1
4901784	45	C	09/27/2016	10:49	-132.381	44.869	0	1210.10	0	3.1210	0	34.4810	0	27.468	0	1196.810	0	21.3	4	6.6	4	-1E+10	1	-1E+10	1	-1E+10	1	-1E+10	1	-1E+10	1	-1E+10	1
4901784	45	C	09/27/2016	10:49	-132.381	44.869	0	1215.50	0	3.1350	0	34.4840	0	27.469	0	1202.135	0	21.6	4	6.7	4	-1E+10	1	-1E+10	1	-1E+10	1	-1E+10	1	-1E+10	1	-1E+10	1
4901784	45	C	09/27/2016	10:49	-132.381	44.869	0	1219.90	0	3.1310	0	34.4850	0	27.470	0	1206.474	0	21.7	4	6.7	4	-1E+10	1	-1E+10	1	-1E+10	1	-1E+10	1	-1E+10	1	-1E+10	1
4901784	45	C	09/27/2016	10:49	-132.381	44.869	0	1224.40	0	3.1190	0	34.4850	0	27.471	0	1210.911	0	21.7	4	6.7	4	-1E+10	1	-1E+10	1	-1E+10	1	-1E+10	1	-1E+10	1	-1E+10	1
4901784	45	C	09/27/2016	10:49	-132.381	44.869	0	1229.90	0	3.1080	0	34.4840	0	27.471	0	1216.335	0	21.7	4	6.7	4	-1E+10	1	-1E+10	1	-1E+10	1	-1E+10	1	-1E+10	1	-1E+10	1
4901784	45	C	09/27/2016	10:49	-132.381	44.869	0	1235.30	0	3.1030	0	34.4870	0	27.474	0	1221.660	0	22.0	4	6.8	4	-1E+10	1	-1E+10	1	-1E+10	1	-1E+10	1	-1E+10	1	-1E+10	1
4901784	45	C	09/27/2016	10:49	-132.381	44.869	0	1239.80	0	3.1040	0	34.4880	0	27.475	0	1226.097	0	22.3	4	6.9	4	-1E+10	1	-1E+10	1	-1E+10	1	-1E+10	1	-1E+10	1	-1E+10	1
4901784	45	C	09/27/2016	10:49	-132.381	44.869	0	1244.30	0	3.1010	0	34.4900	0	27.477	0	1230.534	0	22.4	4	6.9	4	-1E+10	1	-1E+10	1	-1E+10	1	-1E+10	1	-1E+10	1	-1E+10	1
4901784	45	C	09/27/2016	10:49	-132.381	44.869	0	1249.40	0	3.0970	0	34.4900	0	27.477	0	1235.563	0	22.5	4	7.0	4	-1E+10	1	-1E+10	1	-1E+10	1	-1E+10	1	-1E+10	1	-1E+10	1
4901784	45	C	09/27/2016	10:49	-132.381	44.869	0	1254.60	0	3.0860	0	34.4920	0	27.480	0	1240.690	0	22.6	4	7.0	4	-1E+10	1	-1E+10	1	-1E+10	1	-1E+10	1	-1E+10	1	-1E+10	1
4901784	45	C	09/27/2016	10:49	-132.381	44.869	0	1259.80	0	3.0740	0	34.4920	0	27.481	0	1245.817	0	22.7	4	7.0	4	-1E+10	1	-1E+10	1	-1E+10	1	-1E+10	1	-1E+10	1	-1E+10	1
4901784	45	C	09/27/2016	10:49	-132.381	44.869	0	1265.00	0	3.0680	0	34.4930	0	27.482	0	1250.943	0	22.8	4	7.0	4	-1E+10	1	-1E+10	1	-1E+10	1	-1E+10	1	-1E+10	1	-1E+10	1
4901784	45	C	09/27/2016	10:49	-132.381	44.869	0	1270.30	0	3.0540	0	34.4940	0	27.484	0	1256.169	0	22.7	4	7.0	4	-1E+10	1	-1E+10	1	-1E+10	1	-1E+10	1	-1E+10	1	-1E+10	1
4901784	45	C	09/27/2016	10:49	-132.381	44.869	0	1275.60	0	3.0440	0	34.4930	0	27.485	0	1261.394	0	22.7	4	7.0	4	-1E+10	1	-1E+10	1	-1E+10	1	-1E+10	1	-1E+10	1	-1E+10	1
4901784	45	C	09/27/2016	10:49	-132.381	44.869	0	1280.10	0	3.0240	0	34.4930	0	27.486	0	1265.830	0	22.8	4	7.0	4	-1E+10	1	-1E+10	1	-1E+10	1	-1E+10	1	-1E+10	1	-1E+10	1
4901784	45	C	09/27/2016	10:49	-132.381	44.869	0	1284.50	0	3.0190	0	34.4950	0	27.488	0	1270.168	0	23.1	4	7.1	4	-1E+10	1	-1E+10	1	-1E+10	1	-1E+10	1	-1E+10	1	-1E+10	1
4901784	45	C	09/27/2016	10:49	-132.381	44.869	0	1289.80	0	3.0250	0	34.4970	0	27.490	0	1275.393	0	23.4	4	7.2	4	-1E+10	1	-1E+10	1	-1E+10	1	-1E+10	1	-1E+10	1	-1E+10	1
4901784	45	C	09/27/2016	10:49	-132.381	44.869	0	1295.10	0	3.0150	0	34.4990	0	27.492	0	1280.617	0	23.5	4	7.3	4	-1E+10	1	-1E+10	1	-1E+10	1	-1E+10	1	-1E+10	1	-1E+10	1
4901784	45	C	09/27/2016	10:49	-132.381	44.869	0	1300.40	0	3.0060	0	34.4990	0	27.493	0	1285.842	0	23.5	4	7.3	4	-1E+10	1	-1E+10	1	-1E+10	1	-1E+10	1	-1E+10	1	-1E+10	1
4901784	45	C	09/27/2016	10:49	-132.381	44.869	0	1305.70	0	2.9980	0	34.4990	0	27.494	0	1291.066	0	23.6	4	7.3	4	-1E+10	1	-1E+10	1	-1E+10	1	-1E+10	1	-1E+10	1	-1E+10	1
4901784	45	C	09/27/2016	10:49	-132.381	44.869	0	1310.10	0	2.9940	0	34.4990	0	27.494	0	1295.404	0	23.7	4	7.3	4	-1E+10	1	-1E+10	1	-1E+10	1	-1E+10	1	-1E+10	1	-1E+10	1
4901784	45	C	09/27/2016	10:49	-132.381	44.869	0	1314.60	0	2.9850	0	34.5010	0	27.497	0	1299.839	0	23.9	4	7.4	4	-1E+10	1	-1E+10	1	-1E+10	1	-1E+10	1	-1E+10	1	-1E+10	1
4901784	45	C	09/27/2016	10:49	-132.381	44.869	0	1319.90	0	2.9800	0	34.5020	0	27.498	0	1305.063	0	24.1	4	7.4	4	-1E+10	1	-1E+10	1	-1E+10	1	-1E+10	1	-1E+10	1	-1E+10	1
4901784	45	C	09/27/2016	10:49	-132.381	44.869	0	1325.30	0	2.9720	0	34.5030	0	27.499	0	1310.386	0	24.3	4	7.5	4	-1E+10	1	-1E+10	1	-1E+10	1	-1E+10	1	-1E+10	1	-1E+10	1
4901784	45	C	09/27/2016	10:49	-132.381	44.869	0	1329.90	0	2.9650	0	34.5040	0	27.501	0	1314.920	0	24.4	4	7.5	4	-1E+10	1	-1E+10	1	-1E+10	1	-1E+10	1	-1E+10	1	-1E+10	1
4901784	45	C	09/27/2016	10:49	-132.381	44.869	0	1334.40	0	2.9490	0	34.5050	0	27.503	0	1319.355	0	24.6	4	7.6	4	-1E+10	1	-1E+10	1	-1E+10	1	-1E+10	1	-1E+10	1	-1E+10	1
4901784	45	C	09/27/2016	10:49	-132.381	44.869	0	1339.90	0	2.9390	0	34.5070	0	27.506	0	1324.776	0	24.8	4	7.6	4	-1E+10	1	-1E+10	1	-1E+10	1	-1E+10	1	-1E+10	1	-1E+10	1
4901784	45	C	09/27/2016	10:49	-132.381	44.869	0	1345.40	0	2.9280	0	34.5070	0	27.507	0	1330.196	0	24.9	4	7.7	4	-1E+10	1	-1E+10	1	-1E+10	1	-1E+10	1	-1E+10	1	-1E+10	1
4901784	45	C	09/27/2016	10:49	-132.381	44.869	0	1350.00	0	2.9190	0	34.5080	0	27.508	0	1334.730	0	24.9	4	7.7	4	-1E+10	1	-1E+10	1	-1E+10	1	-1E+10	1	-1E+10	1	-1E+10	1
4901784	45	C	09/27/2016	10:49	-132.381	44.869	0	1354.90	0	2.9080	0	34.5080	0	27.509	0	1339.559	0	25.0	4	7.7	4	-1E+10	1	-1E+10	1	-1E+10	1	-1E+10	1	-1E+10	1	-1E+10	1
4901784	45	C	09/27/2016	10:49	-132.381	44.869	0	1360.10	0	2.8990	0	34.5090	0	27.511	0	1344.683	0	25.0	4	7.7	4	-1E+10	1	-1E+10	1	-1E+10	1	-1E+10	1	-1E+10	1	-1E+10	1
4901784	45	C	09/27/2016	10:49	-132.381	44.869	0	1364.90	0	2.8950	0	34.5090	0	27.511	0	1349.414	0	25.0	4	7.7	4	-1E+10	1	-1E+10	1	-1E+10	1	-1E+10	1	-1E+10	1	-1E+10	1
4901784	45	C	09/27/2016	10:49	-132.381	44.869	0	1369.70	0	2.8890	0	34.5080	0	27.511	0	1354.144	0	25.1	4	7.7	4	-1E+10	1	-1E+10	1	-1E+10	1	-1E+10	1	-1E+10	1	-1E+10	1
4901784	45	C	09/27/2016	10:49	-132.381	44.869	0	1374.60	0	2.8630	0	34.5100	0	27.515	0	1358.972	0	25.3	4	7.8	4	-1E+10	1	-1E+10	1	-1E+10	1	-1E+10	1	-1E+10	1	-1E+10	1
4901784	45	C	09/27/2016	10:49	-132.381	44.869	0	1379.40	0	2.8540	0	34.5110	0	27.517	0	1363.702	0	25.5	4	7.8	4	-1E+10	1	-1E+10	1	-1E+10	1	-1E+10	1	-1E+10	1	-1E+10	1
4901784	45	C	09/27/2016	10:49	-132.381	44.869	0	1384.40	0	2.8540	0	34.5120	0	27.517	0	1368.629	0	25.7	4	7.9	4	-1E+10	1	-1E+10	1	-1E+10	1	-1E+10	1	-1E+10	1	-1E+10	1
4901784	45	C	09/27/2016	10:49	-132.381	44.869	0	1389.30	0	2.8470	0	34.5130	0	27.519	0	1373.457	0	25.7	4	7.9	4	-1E+10	1	-1E+10	1	-1E+10	1	-1E+10	1	-1E+10	1	-1E+10	1
4901784	45	C	09/27/2016	10:49	-132.381	44.869	0	1395.00	0	2.8260	0	34.5130	0	27.521	0	1379.074	0	25.7	4	7.9	4	-1E+10	1	-1E+10	1	-1E+10	1	-1E+10	1	-1E+10	1	-1E+10	1
4901784	45	C	09/27/2016	10:49	-132.381	44.869	0	1400.00	0	2.8240	0	34.5120	0	27.520	0	1384.000	0	25.7	4	7.9	4	-1E+10	1	-1E+10	1	-1E+10	1	-1E+10	1	-1E+10	1	-1E+10	1
4901784	45	C	09/27/2016	10:49	-132.381	44.869	0	1405.00	0	2.8140	0	34.5130	0	27.522	0	1388.927	0	25.8	4	7.9	4	-1E+10	1	-1E+10	1	-1E+10	1	-1E+10	1	-1E+10	1	-1E+10	1
4901784	45	C	09/27/2016	10:49	-132.381	44.869	0	1410.80	0	2.7990	0	34.5130	0	27.523	0	1394.641	0	25.9	4	8.0	4	-1E+10	1	-1E+10	1	-1E+10	1	-1E+10	1	-1E+10	1	-1E+10	1
4901784	45	C	09/27/2016	10:49	-132.381	44.869	0	1415.00	0	2.7880	0	34.5140	0	27.525	0	1398.779	0	26.0	4	8.0	4	-1E+10	1	-1E+10	1	-1E+10	1	-1E+10	1	-1E+10	1	-1E+10	1
4901784	45	C	09/27/2016	10:49	-132.381	44.869	0	1419.20	0	2.7790	0	34.5140	0	27.526	0	1402.917	0	26.1	4	8.0	4	-1E+10	1	-1E+10	1	-1E+10	1	-1E+10	1	-1E+10	1	-1E+10	1
4901784	45	C	09/27/2016	10:49	-132.381	44.869	0	1424.30	0	2.7720	0	34.5150	0	27.527	0	1407.942	0	26.2	4	8.0	4	-1E+10	1	-1E+10	1	-1E+10	1	-1E+10	1	-1E+10	1	-1E+10	1
4901784	45	C	09/27/2016	10:49	-132.381	44.869	0	1429.40	0	2.7660	0	34.5150	0	27.528	0	1412.966	0	26.2	4	8.1	4	-1E+10	1	-1E+10	1	-1E+10	1	-1E+10	1	-1E+10	1	-1E+10	1
4901784	45	C	09/27/2016	10:49	-132.381	44.869	0	1434.50	0	2.7570	0	34.5160	0	27.529	0	1417.990	0	26.3	4	8.1	4	-1E+10	1	-1E+10	1	-1E+10	1	-1E+10	1	-1E+10	1	-1E+10	1
4901784	45	C	09/27/2016	10:49	-132.381	44.869	0	1439.70	0	2.7490	0	34.5160	0	27.530	0	1423.113	0	26.3	4	8.1	4	-1E+10	1	-1E+10	1	-1E+10	1	-1E+10	1	-1E+10	1	-1E+10	1
4901784	45	C	09/27/2016	10:49	-132.381	44.869	0	1444.90	0	2.7390	0	34.5160	0	27.531	0	1428.235	0	26.4	4	8.1	4	-1E+10	1	-1E+10	1	-1E+10	1	-1E+10	1	-1E+10	1	-1E+10	1
4901784	45	C	09/27/2016	10:49	-132.381	44.869	0	1450.10	0	2.7290	0	34.5170	0	27.533	0	1433.358	0	26.6	4	8.2	4	-1E+10	1	-1E+10	1	-1E+10	1	-1E+10	1	-1E+10	1	-1E+10	1
4901784	45	C	09/27/2016	10:49	-132.381	44.869	0	1455.20	0	2.7180	0	34.5170	0	27.534	0	1438.381	0	26.6	4	8.2	4	-1E+10	1	-1E+10	1	-1E+10	1	-1E+10	1	-1E+10	1	-1E+10	1
4901784	45	C	09/27/2016	10:49	-132.381	44.869	0	1460.40	0	2.7100	0	34.5170	0	27.534	0	1443.504	0	26.5	4	8.1	4	-1E+10	1	-1E+10	1	-1E+10	1	-1E+10	1	-1E+10	1	-1E+10	1
4901784	45	C	09/27/2016	10:49	-132.381	44.869	0	1465.60	0	2.6980	0	34.5160	0	27.535	0	1448.626	0	26.4	4	8.1	4	-1E+10	1	-1E+10	1	-1E+10	1	-1E+10	1	-1E+10	1	-1E+10	1
4901784	45	C	09/27/2016	10:49	-132.381	44.869	0	1470.00	0	2.6810	0	34.5160	0	27.536	0	1452.959	0	26.3	4	8.1	4	-1E+10	1	-1E+10	1	-1E+10	1	-1E+10	1	-1E+10	1	-1E+10	1
4901784	45	C	09/27/2016	10:49	-132.381	44.869	0	1474.50	0	2.6740	0	34.5160	0	27.537	0	1457.392	0	26.4	4	8.1	4	-1E+10	1	-1E+10	1	-1E+10	1	-1E+10	1	-1E+10	1	-1E+10	1
4901784	45	C	09/27/2016	10:49	-132.381	44.869	0	1479.80	0	2.6570	0	34.5170	0	27.539	0	1462.612	0	26.5	4	8.1	4	-1E+10	1	-1E+10	1	-1E+10	1	-1E+10	1	-1E+10	1	-1E+10	1
4901784	45	C	09/27/2016	10:49	-132.381	44.869	0	1485.10	0	2.6490	0	34.5170	0	27.540	0	1467.832	0	26.6	4	8.1	4	-1E+10	1	-1E+10	1	-1E+10	1	-1E+10	1	-1E+10	1	-1E+10	1
4901784	45	C	09/27/2016	10:49	-132.381	44.869	0	1490.50	0	2.6360	0	34.5170	0	27.541	0	1473.150	0	26.8	4	8.2	4	-1E+10	1	-1E+10	1	-1E+10	1	-1E+10	1	-1E+10	1	-1E+10	1
4901784	45	C	09/27/2016	10:49	-132.381	44.869	0	1495.00	0	2.6250	0	34.5180	0	27.543	0	1477.582	0	26.9	4	8.2	4	-1E+10	1	-1E+10	1	-1E+10	1	-1E+10	1	-1E+10	1	-1E+10	1
4901784	45	C	09/27/2016	10:49	-132.381	44.869	0	1499.50	0	2.6120	0	34.5190	0	27.545	0	1482.014	0	27.1	4	8.3	4	-1E+10	1	-1E+10	1	-1E+10	1	-1E+10	1	-1E+10	1	-1E+10	1
4901784	45	C	09/27/2016	10:49	-132.381	44.869	0	1505.00	0	2.5990	0	34.5200	0	27.547	0	1487.431	0	27.3	4	8.3	4	-1E+10	1	-1E+10	1	-1E+10	1	-1E+10	1	-1E+10	1	-1E+10	1
4901784	45	C	09/27/2016	10:49	-132.381	44.869	0	1510.40	0	2.5810	0	34.5200	0	27.548	0	1492.749	0	27.2	4	8.3	4	-1E+10	1	-1E+10	1	-1E+10	1	-1E+10	1	-1E+10	1	-1E+10	1
4901784	45	C	09/27/2016	10:49	-132.381	44.869	0	1514.90	0	2.5670	0	34.5200	0	27.549	0	1497.180	0	27.3	4	8.3	4	-1E+10	1	-1E+10	1	-1E+10	1	-1E+10	1	-1E+10	1	-1E+10	1
4901784	45	C	09/27/2016	10:49	-132.381	44.869	0	1519.40	0	2.5610	0	34.5200	0	27.550	0	1501.611	0	27.5	4	8.4	4	-1E+10	1	-1E+10	1	-1E+10	1	-1E+10	1	-1E+10	1	-1E+10	1
4901784	45	C	09/27/2016	10:49	-132.381	44.869	0	1524.70	0	2.5460	0	34.5220	0	27.553	0	1506.830	0	27.8	4	8.5	4	-1E+10	1	-1E+10	1	-1E+10	1	-1E+10	1	-1E+10	1	-1E+10	1
4901784	45	C	09/27/2016	10:49	-132.381	44.869	0	1530.10	0	2.5290	0	34.5230	0	27.555	0	1512.148	0	28.0	4	8.6	4	-1E+10	1	-1E+10	1	-1E+10	1	-1E+10	1	-1E+10	1	-1E+10	1
4901784	45	C	09/27/2016	10:49	-132.381	44.869	0	1535.50	0	2.5220	0	34.5230	0	27.556	0	1517.465	0	28.2	4	8.6	4	-1E+10	1	-1E+10	1	-1E+10	1	-1E+10	1	-1E+10	1	-1E+10	1
4901784	45	C	09/27/2016	10:49	-132.381	44.869	0	1540.00	0	2.5150	0	34.5240	0	27.557	0	1521.896	0	28.4	4	8.7	4	-1E+10	1	-1E+10	1	-1E+10	1	-1E+10	1	-1E+10	1	-1E+10	1
4901784	45	C	09/27/2016	10:49	-132.381	44.869	0	1544.60	0	2.5020	0	34.5250	0	27.559	0	1526.425	0	28.7	4	8.8	4	-1E+10	1	-1E+10	1	-1E+10	1	-1E+10	1	-1E+10	1	-1E+10	1
4901784	45	C	09/27/2016	10:49	-132.381	44.869	0	1550.20	0	2.4950	0	34.5260	0	27.560	0	1531.939	0	29.0	4	8.8	4	-1E+10	1	-1E+10	1	-1E+10	1	-1E+10	1	-1E+10	1	-1E+10	1
4901784	45	C	09/27/2016	10:49	-132.381	44.869	0	1554.70	0	2.4920	0	34.5260	0	27.561	0	1536.370	0	29.2	4	8.9	4	-1E+10	1	-1E+10	1	-1E+10	1	-1E+10	1	-1E+10	1	-1E+10	1
4901784	45	C	09/27/2016	10:49	-132.381	44.869	0	1559.40	0	2.4800	0	34.5270	0	27.562	0	1540.997	0	29.6	4	9.0	4	-1E+10	1	-1E+10	1	-1E+10	1	-1E+10	1	-1E+10	1	-1E+10	1
4901784	45	C	09/27/2016	10:49	-132.381	44.869	0	1565.00	0	2.4650	0	34.5290	0	27.565	0	1546.511	0	29.8	4	9.1	4	-1E+10	1	-1E+10	1	-1E+10	1	-1E+10	1	-1E+10	1	-1E+10	1
4901784	45	C	09/27/2016	10:49	-132.381	44.869	0	1570.60	0	2.4540	0	34.5290	0	27.566	0	1552.024	0	30.2	4	9.2	4	-1E+10	1	-1E+10	1	-1E+10	1	-1E+10	1	-1E+10	1	-1E+10	1
4901784	45	C	09/27/2016	10:49	-132.381	44.869	0	1575.40	0	2.4380	0	34.5310	0	27.569	0	1556.750	0	30.5	4	9.3	4	-1E+10	1	-1E+10	1	-1E+10	1	-1E+10	1	-1E+10	1	-1E+10	1
4901784	45	C	09/27/2016	10:49	-132.381	44.869	0	1579.90	0	2.4260	0	34.5320	0	27.571	0	1561.180	0	30.8	4	9.4	4	-1E+10	1	-1E+10	1	-1E+10	1	-1E+10	1	-1E+10	1	-1E+10	1
4901784	45	C	09/27/2016	10:49	-132.381	44.869	0	1584.80	0	2.4170	0	34.5330	0	27.573	0	1566.004	0	31.0	4	9.4	4	-1E+10	1	-1E+10	1	-1E+10	1	-1E+10	1	-1E+10	1	-1E+10	1
4901784	45	C	09/27/2016	10:49	-132.381	44.869	0	1589.70	0	2.4070	0	34.5340	0	27.574	0	1570.827	0	31.2	4	9.5	4	-1E+10	1	-1E+10	1	-1E+10	1	-1E+10	1	-1E+10	1	-1E+10	1
4901784	45	C	09/27/2016	10:49	-132.381	44.869	0	1594.70	0	2.4000	0	34.5340	0	27.575	0	1575.749	0	31.4	4	9.6	4	-1E+10	1	-1E+10	1	-1E+10	1	-1E+10	1	-1E+10	1	-1E+10	1
4901784	45	C	09/27/2016	10:49	-132.381	44.869	0	1599.70	0	2.3910	0	34.5350	0	27.576	0	1580.671	0	31.7	4	9.7	4	-1E+10	1	-1E+10	1	-1E+10	1	-1E+10	1	-1E+10	1	-1E+10	1
4901784	45	C	09/27/2016	10:49	-132.381	44.869	0	1604.80	0	2.3830	0	34.5360	0	27.578	0	1585.692	0	32.1	4	9.8	4	-1E+10	1	-1E+10	1	-1E+10	1	-1E+10	1	-1E+10	1	-1E+10	1
4901784	45	C	09/27/2016	10:49	-132.381	44.869	0	1609.80	0	2.3730	0	34.5370	0	27.580	0	1590.613	0	32.5	4	9.9	4	-1E+10	1	-1E+10	1	-1E+10	1	-1E+10	1	-1E+10	1	-1E+10	1
4901784	45	C	09/27/2016	10:49	-132.381	44.869	0	1615.00	0	2.3640	0	34.5380	0	27.581	0	1595.732	0	32.9	4	10.0	4	-1E+10	1	-1E+10	1	-1E+10	1	-1E+10	1	-1E+10	1	-1E+10	1
4901784	45	C	09/27/2016	10:49	-132.381	44.869	0	1620.00	0	2.3550	0	34.5400	0	27.583	0	1600.653	0	33.2	4	10.1	4	-1E+10	1	-1E+10	1	-1E+10	1	-1E+10	1	-1E+10	1	-1E+10	1
4901784	45	C	09/27/2016	10:49	-132.381	44.869	0	1625.00	0	2.3480	0	34.5410	0	27.585	0	1605.575	0	33.4	4	10.2	4	-1E+10	1	-1E+10	1	-1E+10	1	-1E+10	1	-1E+10	1	-1E+10	1
4901784	45	C	09/27/2016	10:49	-132.381	44.869	0	1630.20	0	2.3410	0	34.5420	0	27.586	0	1610.693	0	33.8	4	10.3	4	-1E+10	1	-1E+10	1	-1E+10	1	-1E+10	1	-1E+10	1	-1E+10	1
4901784	45	C	09/27/2016	10:49	-132.381	44.869	0	1635.40	0	2.3320	0	34.5430	0	27.588	0	1615.811	0	34.3	4	10.4	4	-1E+10	1	-1E+10	1	-1E+10	1	-1E+10	1	-1E+10	1	-1E+10	1
4901784	45	C	09/27/2016	10:49	-132.381	44.869	0	1640.60	0	2.3230	0	34.5440	0	27.589	0	1620.928	0	34.7	4	10.5	4	-1E+10	1	-1E+10	1	-1E+10	1	-1E+10	1	-1E+10	1	-1E+10	1
4901784	45	C	09/27/2016	10:49	-132.381	44.869	0	1645.70	0	2.3130	0	34.5450	0	27.591	0	1625.948	0	35.1	4	10.7	4	-1E+10	1	-1E+10	1	-1E+10	1	-1E+10	1	-1E+10	1	-1E+10	1
4901784	45	C	09/27/2016	10:49	-132.381	44.869	0	1650.00	0	2.3080	0	34.5460	0	27.592	0	1630.180	0	35.3	4	10.7	4	-1E+10	1	-1E+10	1	-1E+10	1	-1E+10	1	-1E+10	1	-1E+10	1
4901784	45	C	09/27/2016	10:49	-132.381	44.869	0	1654.40	0	2.2970	0	34.5470	0	27.594	0	1634.510	0	35.6	4	10.8	4	-1E+10	1	-1E+10	1	-1E+10	1	-1E+10	1	-1E+10	1	-1E+10	1
4901784	45	C	09/27/2016	10:49	-132.381	44.869	0	1659.60	0	2.2930	0	34.5480	0	27.595	0	1639.627	0	35.9	4	10.9	4	-1E+10	1	-1E+10	1	-1E+10	1	-1E+10	1	-1E+10	1	-1E+10	1
4901784	45	C	09/27/2016	10:49	-132.381	44.869	0	1665.00	0	2.2860	0	34.5490	0	27.597	0	1644.941	0	36.2	4	11.0	4	-1E+10	1	-1E+10	1	-1E+10	1	-1E+10	1	-1E+10	1	-1E+10	1
4901784	45	C	09/27/2016	10:49	-132.381	44.869	0	1670.30	0	2.2820	0	34.5500	0	27.598	0	1650.157	0	36.4	4	11.1	4	-1E+10	1	-1E+10	1	-1E+10	1	-1E+10	1	-1E+10	1	-1E+10	1
4901784	45	C	09/27/2016	10:49	-132.381	44.869	0	1675.70	0	2.2770	0	34.5500	0	27.598	0	1655.471	0	36.7	4	11.1	4	-1E+10	1	-1E+10	1	-1E+10	1	-1E+10	1	-1E+10	1	-1E+10	1
4901784	45	C	09/27/2016	10:49	-132.381	44.869	0	1680.10	0	2.2680	0	34.5510	0	27.600	0	1659.800	0	36.9	4	11.2	4	-1E+10	1	-1E+10	1	-1E+10	1	-1E+10	1	-1E+10	1	-1E+10	1
4901784	45	C	09/27/2016	10:49	-132.381	44.869	0	1684.70	0	2.2660	0	34.5510	0	27.600	0	1664.327	0	37.1	4	11.3	4	-1E+10	1	-1E+10	1	-1E+10	1	-1E+10	1	-1E+10	1	-1E+10	1
4901784	45	C	09/27/2016	10:49	-132.381	44.869	0	1690.00	0	2.2620	0	34.5520	0	27.601	0	1669.542	0	37.5	4	11.4	4	-1E+10	1	-1E+10	1	-1E+10	1	-1E+10	1	-1E+10	1	-1E+10	1
4901784	45	C	09/27/2016	10:49	-132.381	44.869	0	1695.40	0	2.2470	0	34.5540	0	27.604	0	1674.855	0	38.0	4	11.5	4	-1E+10	1	-1E+10	1	-1E+10	1	-1E+10	1	-1E+10	1	-1E+10	1
4901784	45	C	09/27/2016	10:49	-132.381	44.869	0	1700.00	0	2.2410	0	34.5550	0	27.605	0	1679.381	0	38.1	4	11.6	4	-1E+10	1	-1E+10	1	-1E+10	1	-1E+10	1	-1E+10	1	-1E+10	1
4901784	45	C	09/27/2016	10:49	-132.381	44.869	0	1704.50	0	2.2390	0	34.5550	0	27.605	0	1683.809	0	38.3	4	11.6	4	-1E+10	1	-1E+10	1	-1E+10	1	-1E+10	1	-1E+10	1	-1E+10	1
4901784	45	C	09/27/2016	10:49	-132.381	44.869	0	1709.90	0	2.2360	0	34.5550	0	27.606	0	1689.122	0	38.4	4	11.6	4	-1E+10	1	-1E+10	1	-1E+10	1	-1E+10	1	-1E+10	1	-1E+10	1
4901784	45	C	09/27/2016	10:49	-132.381	44.869	0	1715.40	0	2.2340	0	34.5560	0	27.607	0	1694.533	0	38.4	4	11.7	4	-1E+10	1	-1E+10	1	-1E+10	1	-1E+10	1	-1E+10	1	-1E+10	1
4901784	45	C	09/27/2016	10:49	-132.381	44.869	0	1720.40	0	2.2340	0	34.5560	0	27.607	0	1699.452	0	38.5	4	11.7	4	-1E+10	1	-1E+10	1	-1E+10	1	-1E+10	1	-1E+10	1	-1E+10	1
4901784	45	C	09/27/2016	10:49	-132.381	44.869	0	1724.60	0	2.2340	0	34.5550	0	27.606	0	1703.584	0	38.7	4	11.7	4	-1E+10	1	-1E+10	1	-1E+10	1	-1E+10	1	-1E+10	1	-1E+10	1
4901784	45	C	09/27/2016	10:49	-132.381	44.869	0	1730.10	0	2.2270	0	34.5570	0	27.608	0	1708.995	0	39.1	4	11.9	4	-1E+10	1	-1E+10	1	-1E+10	1	-1E+10	1	-1E+10	1	-1E+10	1
4901784	45	C	09/27/2016	10:49	-132.381	44.869	0	1735.60	0	2.2200	0	34.5570	0	27.609	0	1714.405	0	39.6	4	12.0	4	-1E+10	1	-1E+10	1	-1E+10	1	-1E+10	1	-1E+10	1	-1E+10	1
4901784	45	C	09/27/2016	10:49	-132.381	44.869	0	1740.50	0	2.2110	0	34.5590	0	27.611	0	1719.226	0	40.0	4	12.1	4	-1E+10	1	-1E+10	1	-1E+10	1	-1E+10	1	-1E+10	1	-1E+10	1
4901784	45	C	09/27/2016	10:49	-132.381	44.869	0	1745.40	0	2.2020	0	34.5600	0	27.613	0	1724.046	0	40.5	4	12.3	4	-1E+10	1	-1E+10	1	-1E+10	1	-1E+10	1	-1E+10	1	-1E+10	1
4901784	45	C	09/27/2016	10:49	-132.381	44.869	0	1750.30	0	2.1960	0	34.5610	0	27.614	0	1728.866	0	40.8	4	12.4	4	-1E+10	1	-1E+10	1	-1E+10	1	-1E+10	1	-1E+10	1	-1E+10	1
4901784	45	C	09/27/2016	10:49	-132.381	44.869	0	1755.30	0	2.1900	0	34.5620	0	27.615	0	1733.785	0	41.0	4	12.4	4	-1E+10	1	-1E+10	1	-1E+10	1	-1E+10	1	-1E+10	1	-1E+10	1
4901784	45	C	09/27/2016	10:49	-132.381	44.869	0	1760.30	0	2.1890	0	34.5620	0	27.615	0	1738.703	0	41.4	4	12.5	4	-1E+10	1	-1E+10	1	-1E+10	1	-1E+10	1	-1E+10	1	-1E+10	1
4901784	45	C	09/27/2016	10:49	-132.381	44.869	0	1765.40	0	2.1790	0	34.5640	0	27.618	0	1743.719	0	41.9	4	12.7	4	-1E+10	1	-1E+10	1	-1E+10	1	-1E+10	1	-1E+10	1	-1E+10	1
4901784	45	C	09/27/2016	10:49	-132.381	44.869	0	1770.40	0	2.1690	0	34.5650	0	27.619	0	1748.637	0	42.5	4	12.9	4	-1E+10	1	-1E+10	1	-1E+10	1	-1E+10	1	-1E+10	1	-1E+10	1
4901784	45	C	09/27/2016	10:49	-132.381	44.869	0	1775.50	0	2.1600	0	34.5670	0	27.622	0	1753.653	0	42.9	4	13.0	4	-1E+10	1	-1E+10	1	-1E+10	1	-1E+10	1	-1E+10	1	-1E+10	1
4901784	45	C	09/27/2016	10:49	-132.381	44.869	0	1780.50	0	2.1530	0	34.5680	0	27.623	0	1758.571	0	43.3	4	13.1	4	-1E+10	1	-1E+10	1	-1E+10	1	-1E+10	1	-1E+10	1	-1E+10	1
4901784	45	C	09/27/2016	10:49	-132.381	44.869	0	1785.60	0	2.1470	0	34.5690	0	27.624	0	1763.587	0	43.6	4	13.2	4	-1E+10	1	-1E+10	1	-1E+10	1	-1E+10	1	-1E+10	1	-1E+10	1
4901784	45	C	09/27/2016	10:49	-132.381	44.869	0	1790.70	0	2.1440	0	34.5690	0	27.625	0	1768.603	0	43.9	4	13.3	4	-1E+10	1	-1E+10	1	-1E+10	1	-1E+10	1	-1E+10	1	-1E+10	1
4901784	45	C	09/27/2016	10:49	-132.381	44.869	0	1795.00	0	2.1380	0	34.5700	0	27.626	0	1772.832	0	44.2	4	13.4	4	-1E+10	1	-1E+10	1	-1E+10	1	-1E+10	1	-1E+10	1	-1E+10	1
4901784	45	C	09/27/2016	10:49	-132.381	44.869	0	1799.30	0	2.1330	0	34.5710	0	27.627	0	1777.061	0	44.4	4	13.4	4	-1E+10	1	-1E+10	1	-1E+10	1	-1E+10	1	-1E+10	1	-1E+10	1
4901784	45	C	09/27/2016	10:49	-132.381	44.869	0	1804.50	0	2.1280	0	34.5710	0	27.628	0	1782.175	0	44.8	4	13.5	4	-1E+10	1	-1E+10	1	-1E+10	1	-1E+10	1	-1E+10	1	-1E+10	1
4901784	45	C	09/27/2016	10:49	-132.381	44.869	0	1809.60	0	2.1230	0	34.5720	0	27.629	0	1787.191	0	45.1	4	13.6	4	-1E+10	1	-1E+10	1	-1E+10	1	-1E+10	1	-1E+10	1	-1E+10	1
4901784	45	C	09/27/2016	10:49	-132.381	44.869	0	1814.90	0	2.1170	0	34.5730	0	27.630	0	1792.403	0	45.5	4	13.8	4	-1E+10	1	-1E+10	1	-1E+10	1	-1E+10	1	-1E+10	1	-1E+10	1
4901784	45	C	09/27/2016	10:49	-132.381	44.869	0	1820.20	0	2.1110	0	34.5740	0	27.631	0	1797.614	0	45.9	4	13.9	4	-1E+10	1	-1E+10	1	-1E+10	1	-1E+10	1	-1E+10	1	-1E+10	1
4901784	45	C	09/27/2016	10:49	-132.381	44.869	0	1825.40	0	2.1040	0	34.5750	0	27.633	0	1802.728	0	46.3	4	14.0	4	-1E+10	1	-1E+10	1	-1E+10	1	-1E+10	1	-1E+10	1	-1E+10	1
4901784	45	C	09/27/2016	10:49	-132.381	44.869	0	1829.90	0	2.0990	0	34.5760	0	27.634	0	1807.153	0	46.6	4	14.1	4	-1E+10	1	-1E+10	1	-1E+10	1	-1E+10	1	-1E+10	1	-1E+10	1
4901784	45	C	09/27/2016	10:49	-132.381	44.869	0	1834.40	0	2.0940	0	34.5760	0	27.634	0	1811.578	0	46.8	4	14.1	4	-1E+10	1	-1E+10	1	-1E+10	1	-1E+10	1	-1E+10	1	-1E+10	1
4901784	45	C	09/27/2016	10:49	-132.381	44.869	0	1839.80	0	2.0930	0	34.5770	0	27.635	0	1816.888	0	47.0	4	14.2	4	-1E+10	1	-1E+10	1	-1E+10	1	-1E+10	1	-1E+10	1	-1E+10	1
4901784	45	C	09/27/2016	10:49	-132.381	44.869	0	1845.30	0	2.0860	0	34.5770	0	27.636	0	1822.295	0	47.3	4	14.3	4	-1E+10	1	-1E+10	1	-1E+10	1	-1E+10	1	-1E+10	1	-1E+10	1
4901784	45	C	09/27/2016	10:49	-132.381	44.869	0	1849.90	0	2.0820	0	34.5780	0	27.637	0	1826.818	0	47.6	4	14.4	4	-1E+10	1	-1E+10	1	-1E+10	1	-1E+10	1	-1E+10	1	-1E+10	1
4901784	45	C	09/27/2016	10:49	-132.381	44.869	0	1854.50	0	2.0800	0	34.5790	0	27.638	0	1831.341	0	47.8	4	14.4	4	-1E+10	1	-1E+10	1	-1E+10	1	-1E+10	1	-1E+10	1	-1E+10	1
4901784	45	C	09/27/2016	10:49	-132.381	44.869	0	1860.00	0	2.0750	0	34.5790	0	27.638	0	1836.749	0	48.0	4	14.5	4	-1E+10	1	-1E+10	1	-1E+10	1	-1E+10	1	-1E+10	1	-1E+10	1
4901784	45	C	09/27/2016	10:49	-132.381	44.869	0	1865.20	0	2.0700	0	34.5800	0	27.640	0	1841.861	0	48.3	4	14.6	4	-1E+10	1	-1E+10	1	-1E+10	1	-1E+10	1	-1E+10	1	-1E+10	1
4901784	45	C	09/27/2016	10:49	-132.381	44.869	0	1869.40	0	2.0660	0	34.5800	0	27.640	0	1845.990	0	48.5	4	14.7	4	-1E+10	1	-1E+10	1	-1E+10	1	-1E+10	1	-1E+10	1	-1E+10	1
4901784	45	C	09/27/2016	10:49	-132.381	44.869	0	1874.30	0	2.0630	0	34.5810	0	27.641	0	1850.808	0	48.7	4	14.7	4	-1E+10	1	-1E+10	1	-1E+10	1	-1E+10	1	-1E+10	1	-1E+10	1
4901784	45	C	09/27/2016	10:49	-132.381	44.869	0	1880.00	0	2.0600	0	34.5810	0	27.641	0	1856.411	0	49.0	4	14.8	4	-1E+10	1	-1E+10	1	-1E+10	1	-1E+10	1	-1E+10	1	-1E+10	1
4901784	45	C	09/27/2016	10:49	-132.381	44.869	0	1885.70	0	2.0560	0	34.5820	0	27.642	0	1862.015	0	49.3	4	14.9	4	-1E+10	1	-1E+10	1	-1E+10	1	-1E+10	1	-1E+10	1	-1E+10	1
4901784	45	C	09/27/2016	10:49	-132.381	44.869	0	1890.60	0	2.0530	0	34.5820	0	27.643	0	1866.832	0	49.6	4	15.0	4	-1E+10	1	-1E+10	1	-1E+10	1	-1E+10	1	-1E+10	1	-1E+10	1
4901784	45	C	09/27/2016	10:49	-132.381	44.869	0	1895.50	0	2.0470	0	34.5830	0	27.644	0	1871.649	0	49.9	4	15.1	4	-1E+10	1	-1E+10	1	-1E+10	1	-1E+10	1	-1E+10	1	-1E+10	1
4901784	45	C	09/27/2016	10:49	-132.381	44.869	0	1900.40	0	2.0450	0	34.5840	0	27.645	0	1876.466	0	50.0	4	15.1	4	-1E+10	1	-1E+10	1	-1E+10	1	-1E+10	1	-1E+10	1	-1E+10	1
4901784	45	C	09/27/2016	10:49	-132.381	44.869	0	1905.40	0	2.0420	0	34.5840	0	27.645	0	1881.381	0	50.2	4	15.2	4	-1E+10	1	-1E+10	1	-1E+10	1	-1E+10	1	-1E+10	1	-1E+10	1
4901784	45	C	09/27/2016	10:49	-132.381	44.869	0	1910.40	0	2.0410	0	34.5850	0	27.646	0	1886.295	0	50.4	4	15.2	4	-1E+10	1	-1E+10	1	-1E+10	1	-1E+10	1	-1E+10	1	-1E+10	1
4901784	45	C	09/27/2016	10:49	-132.381	44.869	0	1915.50	0	2.0380	0	34.5850	0	27.646	0	1891.308	0	50.7	4	15.3	4	-1E+10	1	-1E+10	1	-1E+10	1	-1E+10	1	-1E+10	1	-1E+10	1
4901784	45	C	09/27/2016	10:49	-132.381	44.869	0	1920.50	0	2.0340	0	34.5860	0	27.648	0	1896.223	0	50.9	4	15.3	4	-1E+10	1	-1E+10	1	-1E+10	1	-1E+10	1	-1E+10	1	-1E+10	1
4901784	45	C	09/27/2016	10:49	-132.381	44.869	0	1925.60	0	2.0320	0	34.5860	0	27.648	0	1901.236	0	51.2	4	15.4	4	-1E+10	1	-1E+10	1	-1E+10	1	-1E+10	1	-1E+10	1	-1E+10	1
4901784	45	C	09/27/2016	10:49	-132.381	44.869	0	1930.70	0	2.0250	0	34.5870	0	27.649	0	1906.248	0	51.5	4	15.5	4	-1E+10	1	-1E+10	1	-1E+10	1	-1E+10	1	-1E+10	1	-1E+10	1
4901784	45	C	09/27/2016	10:49	-132.381	44.869	0	1935.80	0	2.0220	0	34.5880	0	27.650	0	1911.261	0	51.7	4	15.6	4	-1E+10	1	-1E+10	1	-1E+10	1	-1E+10	1	-1E+10	1	-1E+10	1
4901784	45	C	09/27/2016	10:49	-132.381	44.869	0	1939.90	0	2.0210	0	34.5880	0	27.650	0	1915.291	0	51.7	4	15.6	4	-1E+10	1	-1E+10	1	-1E+10	1	-1E+10	1	-1E+10	1	-1E+10	1
4901784	45	C	09/27/2016	10:49	-132.381	44.869	0	1944.20	0	2.0210	0	34.5880	0	27.650	0	1919.517	0	51.9	4	15.7	4	-1E+10	1	-1E+10	1	-1E+10	1	-1E+10	1	-1E+10	1	-1E+10	1
4901784	45	C	09/27/2016	10:49	-132.381	44.869	0	1949.20	0	2.0210	0	34.5890	0	27.651	0	1924.430	0	52.1	4	15.7	4	-1E+10	1	-1E+10	1	-1E+10	1	-1E+10	1	-1E+10	1	-1E+10	1
4901784	45	C	09/27/2016	10:49	-132.381	44.869	0	1954.20	0	2.0170	0	34.5900	0	27.652	0	1929.344	0	52.4	4	15.8	4	-1E+10	1	-1E+10	1	-1E+10	1	-1E+10	1	-1E+10	1	-1E+10	1
4901784	45	C	09/27/2016	10:49	-132.381	44.869	0	1959.30	0	2.0150	0	34.5900	0	27.652	0	1934.356	0	52.5	4	15.8	4	-1E+10	1	-1E+10	1	-1E+10	1	-1E+10	1	-1E+10	1	-1E+10	1
4901784	45	C	09/27/2016	10:49	-132.381	44.869	0	1964.50	0	2.0110	0	34.5900	0	27.653	0	1939.466	0	52.7	4	15.9	4	-1E+10	1	-1E+10	1	-1E+10	1	-1E+10	1	-1E+10	1	-1E+10	1
4901784	45	C	09/27/2016	10:49	-132.381	44.869	0	1969.60	0	2.0080	0	34.5900	0	27.653	0	1944.478	0	53.0	4	16.0	4	-1E+10	1	-1E+10	1	-1E+10	1	-1E+10	1	-1E+10	1	-1E+10	1
4901784	45	C	09/27/2016	10:49	-132.381	44.869	0	1974.80	0	2.0030	0	34.5910	0	27.654	0	1949.588	0	53.4	4	16.1	4	-1E+10	1	-1E+10	1	-1E+10	1	-1E+10	1	-1E+10	1	-1E+10	1
4901784	45	C	09/27/2016	10:49	-132.381	44.869	0	1980.00	0	1.9980	0	34.5920	0	27.656	0	1954.698	0	53.8	4	16.2	4	-1E+10	1	-1E+10	1	-1E+10	1	-1E+10	1	-1E+10	1	-1E+10	1
4901784	45	C	09/27/2016	10:49	-132.381	44.869	0	1985.30	0	1.9960	0	34.5930	0	27.657	0	1959.906	0	54.3	4	16.4	4	-1E+10	1	-1E+10	1	-1E+10	1	-1E+10	1	-1E+10	1	-1E+10	1
4901784	45	C	09/27/2016	10:49	-132.381	44.869	0	1990.50	0	1.9930	0	34.5940	0	27.658	0	1965.015	0	54.6	4	16.5	4	-1E+10	1	-1E+10	1	-1E+10	1	-1E+10	1	-1E+10	1	-1E+10	1
4901784	45	C	09/27/2016	10:49	-132.381	44.869	0	1994.90	0	1.9890	0	34.5950	0	27.659	0	1969.339	0	54.8	4	16.5	4	-1E+10	1	-1E+10	1	-1E+10	1	-1E+10	1	-1E+10	1	-1E+10	1
4901784	45	C	09/27/2016	10:49	-132.381	44.869	0	1999.30	0	1.9860	0	34.5950	0	27.659	0	1973.662	0	55.0	4	16.6	4	-1E+10	1	-1E+10	1	-1E+10	1	-1E+10	1	-1E+10	1	-1E+10	1
4901784	45	C	09/27/2016	10:49	-132.381	44.869	0	2004.60	0	1.9840	0	34.5950	0	27.659	0	1978.869	0	55.1	4	16.6	4	-1E+10	1	-1E+10	1	-1E+10	1	-1E+10	1	-1E+10	1	-1E+10	1
4901784	45	C	09/27/2016	10:49	-132.381	44.869	0	2009.70	0	1.9820	0	34.5960	0	27.660	0	1983.880	0	55.4	4	16.7	4	-1E+10	1	-1E+10	1	-1E+10	1	-1E+10	1	-1E+10	1	-1E+10	1
4901784	45	C	09/27/2016	10:49	-132.381	44.869	0	2014.90	0	1.9790	0	34.5960	0	27.660	0	1988.989	0	55.6	4	16.8	4	-1E+10	1	-1E+10	1	-1E+10	1	-1E+10	1	-1E+10	1	-1E+10	1
4901784	45	C	09/27/2016	10:49	-132.381	44.869	0	2019.80	0	1.9730	0	34.5970	0	27.662	0	1993.803	0	55.9	4	16.8	4	-1E+10	1	-1E+10	1	-1E+10	1	-1E+10	1	-1E+10	1	-1E+10	1
4901784	45	C	09/27/2016	10:49	-132.381	44.869	0																										
4901784	46	C	10/07/2016	10:44	-132.308	44.917	0	2.40	0	16.7070	0	32.7080	0	23.825	0	2.381	0	235.4	4	96.7	4	-1E+10	1	-1E+10	1	-1E+10	1	-1E+10	1	-1E+10	1	-1E+10	1
4901784	46	C	10/07/2016	10:44	-132.308	44.917	0	4.00	0	16.7090	0	32.7080	0	23.825	0	3.968	0	235.3	4	96.6	4	-1E+10	1	-1E+10	1	-1E+10	1	-1E+10	1	-1E+10	1	-1E+10	1
4901784	46	C	10/07/2016	10:44	-132.308	44.917	0	5.60	0	16.7190	0	32.7080	0	23.822	0	5.555	0	235.4	4	96.7	4	-1E+10	1	-1E+10	1	-1E+10	1	-1E+10	1	-1E+10	1	-1E+10	1
4901784	46	C	10/07/2016	10:44	-132.308	44.917	0	7.30	0	16.7200	0	32.7080	0	23.822	0	7.241	0	235.3	4	96.7	4	-1E+10	1	-1E+10	1	-1E+10	1	-1E+10	1	-1E+10	1	-1E+10	1
4901784	46	C	10/07/2016	10:44	-132.308	44.917	0	9.20	0	16.7220	0	32.7080	0	23.822	0	9.125	0	235.1	4	96.6	4	-1E+10	1	-1E+10	1	-1E+10	1	-1E+10	1	-1E+10	1	-1E+10	1
4901784	46	C	10/07/2016	10:44	-132.308	44.917	0	11.00	0	16.7220	0	32.7080	0	23.822	0	10.911	0	234.9	4	96.5	4	-1E+10	1	-1E+10	1	-1E+10	1	-1E+10	1	-1E+10	1	-1E+10	1
4901784	46	C	10/07/2016	10:44	-132.308	44.917	0	12.90	0	16.7230	0	32.7080	0	23.822	0	12.795	0	235.0	4	96.5	4	-1E+10	1	-1E+10	1	-1E+10	1	-1E+10	1	-1E+10	1	-1E+10	1
4901784	46	C	10/07/2016	10:44	-132.308	44.917	0	14.80	0	16.7220	0	32.7080	0	23.822	0	14.679	0	234.9	4	96.5	4	-1E+10	1	-1E+10	1	-1E+10	1	-1E+10	1	-1E+10	1	-1E+10	1
4901784	46	C	10/07/2016	10:44	-132.308	44.917	0	16.70	0	16.7220	0	32.7080	0	23.822	0	16.564	0	234.7	4	96.4	4	-1E+10	1	-1E+10	1	-1E+10	1	-1E+10	1	-1E+10	1	-1E+10	1
4901784	46	C	10/07/2016	10:44	-132.308	44.917	0	18.60	0	16.7200	0	32.7080	0	23.823	0	18.448	0	234.6	4	96.3	4	-1E+10	1	-1E+10	1	-1E+10	1	-1E+10	1	-1E+10	1	-1E+10	1
4901784	46	C	10/07/2016	10:44	-132.308	44.917	0	20.50	0	16.7200	0	32.7080	0	23.823	0	20.333	0	234.4	4	96.3	4	-1E+10	1	-1E+10	1	-1E+10	1	-1E+10	1	-1E+10	1	-1E+10	1
4901784	46	C	10/07/2016	10:44	-132.308	44.917	0	22.40	0	16.7210	0	32.7080	0	23.823	0	22.217	0	234.3	4	96.2	4	-1E+10	1	-1E+10	1	-1E+10	1	-1E+10	1	-1E+10	1	-1E+10	1
4901784	46	C	10/07/2016	10:44	-132.308	44.917	0	24.40	0	16.7220	0	32.7080	0	23.822	0	24.201	0	234.1	4	96.2	4	-1E+10	1	-1E+10	1	-1E+10	1	-1E+10	1	-1E+10	1	-1E+10	1
4901784	46	C	10/07/2016	10:44	-132.308	44.917	0	26.30	0	16.7250	0	32.7080	0	23.822	0	26.085	0	234.2	4	96.2	4	-1E+10	1	-1E+10	1	-1E+10	1	-1E+10	1	-1E+10	1	-1E+10	1
4901784	46	C	10/07/2016	10:44	-132.308	44.917	0	28.20	0	16.7280	0	32.7090	0	23.822	0	27.969	0	233.9	4	96.1	4	-1E+10	1	-1E+10	1	-1E+10	1	-1E+10	1	-1E+10	1	-1E+10	1
4901784	46	C	10/07/2016	10:44	-132.308	44.917	0	30.10	0	16.7270	0	32.7090	0	23.822	0	29.854	0	233.8	4	96.0	4	-1E+10	1	-1E+10	1	-1E+10	1	-1E+10	1	-1E+10	1	-1E+10	1
4901784	46	C	10/07/2016	10:44	-132.308	44.917	0	32.00	0	16.7300	0	32.7100	0	23.822	0	31.738	0	233.7	4	96.0	4	-1E+10	1	-1E+10	1	-1E+10	1	-1E+10	1	-1E+10	1	-1E+10	1
4901784	46	C	10/07/2016	10:44	-132.308	44.917	0	34.20	0	16.7270	0	32.7090	0	23.822	0	33.920	0	233.6	4	96.0	4	-1E+10	1	-1E+10	1	-1E+10	1	-1E+10	1	-1E+10	1	-1E+10	1
4901784	46	C	10/07/2016	10:44	-132.308	44.917	0	34.70	0	16.7270	0	32.7090	0	23.822	0	34.416	0	233.3	4	95.8	4	-1E+10	1	-1E+10	1	-1E+10	1	-1E+10	1	-1E+10	1	-1E+10	1
4901784	46	C	10/07/2016	10:44	-132.308	44.917	0	36.30	0	16.7280	0	32.7090	0	23.822	0	36.002	0	233.4	4	95.9	4	-1E+10	1	-1E+10	1	-1E+10	1	-1E+10	1	-1E+10	1	-1E+10	1
4901784	46	C	10/07/2016	10:44	-132.308	44.917	0	37.90	0	16.7290	0	32.7080	0	23.821	0	37.589	0	233.4	4	95.9	4	-1E+10	1	-1E+10	1	-1E+10	1	-1E+10	1	-1E+10	1	-1E+10	1
4901784	46	C	10/07/2016	10:44	-132.308	44.917	0	39.40	0	16.7290	0	32.7080	0	23.821	0	39.077	0	233.5	4	95.9	4	-1E+10	1	-1E+10	1	-1E+10	1	-1E+10	1	-1E+10	1	-1E+10	1
4901784	46	C	10/07/2016	10:44	-132.308	44.917	0	40.90	0	16.7290	0	32.7060	0	23.820	0	40.564	0	233.7	4	96.0	4	-1E+10	1	-1E+10	1	-1E+10	1	-1E+10	1	-1E+10	1	-1E+10	1
4901784	46	C	10/07/2016	10:44	-132.308	44.917	0	42.40	0	16.7290	0	32.7050	0	23.819	0	42.052	0	234.2	4	96.2	4	-1E+10	1	-1E+10	1	-1E+10	1	-1E+10	1	-1E+10	1	-1E+10	1
4901784	46	C	10/07/2016	10:44	-132.308	44.917	0	44.20	0	16.7260	0	32.7020	0	23.818	0	43.837	0	235.0	4	96.5	4	-1E+10	1	-1E+10	1	-1E+10	1	-1E+10	1	-1E+10	1	-1E+10	1
4901784	46	C	10/07/2016	10:44	-132.308	44.917	0	45.50	0	16.7250	0	32.6960	0	23.813	0	45.126	0	236.4	4	97.1	4	-1E+10	1	-1E+10	1	-1E+10	1	-1E+10	1	-1E+10	1	-1E+10	1
4901784	46	C	10/07/2016	10:44	-132.308	44.917	0	46.50	0	16.7200	0	32.6890	0	23.809	0	46.118	0	238.2	4	97.8	4	-1E+10	1	-1E+10	1	-1E+10	1	-1E+10	1	-1E+10	1	-1E+10	1
4901784	46	C	10/07/2016	10:44	-132.308	44.917	0	47.50	0	16.6850	0	32.6800	0	23.810	0	47.109	0	241.1	4	98.9	4	-1E+10	1	-1E+10	1	-1E+10	1	-1E+10	1	-1E+10	1	-1E+10	1
4901784	46	C	10/07/2016	10:44	-132.308	44.917	0	48.60	0	16.5410	0	32.6760	0	23.840	0	48.200	0	245.1	4	100.3	4	-1E+10	1	-1E+10	1	-1E+10	1	-1E+10	1	-1E+10	1	-1E+10	1
4901784	46	C	10/07/2016	10:44	-132.308	44.917	0	50.00	0	16.0270	0	32.6680	0	23.951	0	49.589	0	251.2	4	101.8	4	-1E+10	1	-1E+10	1	-1E+10	1	-1E+10	1	-1E+10	1	-1E+10	1
4901784	46	C	10/07/2016	10:44	-132.308	44.917	0	51.50	0	14.2050	0	32.8030	0	24.449	0	51.076	0	263.2	4	103.0	4	-1E+10	1	-1E+10	1	-1E+10	1	-1E+10	1	-1E+10	1	-1E+10	1
4901784	46	C	10/07/2016	10:44	-132.308	44.917	0	53.20	0	13.2220	0	32.8360	0	24.675	0	52.762	0	270.0	4	103.6	4	-1E+10	1	-1E+10	1	-1E+10	1	-1E+10	1	-1E+10	1	-1E+10	1
4901784	46	C	10/07/2016	10:44	-132.308	44.917	0	54.80	0	13.0810	0	32.8250	0	24.694	0	54.348	0	271.3	4	103.8	4	-1E+10	1	-1E+10	1	-1E+10	1	-1E+10	1	-1E+10	1	-1E+10	1
4901784	46	C	10/07/2016	10:44	-132.308	44.917	0	56.50	0	12.7280	0	32.8370	0	24.773	0	56.034	0	272.0	4	103.3	4	-1E+10	1	-1E+10	1	-1E+10	1	-1E+10	1	-1E+10	1	-1E+10	1
4901784	46	C	10/07/2016	10:44	-132.308	44.917	0	58.00	0	12.4720	0	32.8400	0	24.825	0	57.522	0	272.6	4	103.0	4	-1E+10	1	-1E+10	1	-1E+10	1	-1E+10	1	-1E+10	1	-1E+10	1
4901784	46	C	10/07/2016	10:44	-132.308	44.917	0	59.70	0	11.8910	0	32.8420	0	24.936	0	59.207	0	275.8	4	103.0	4	-1E+10	1	-1E+10	1	-1E+10	1	-1E+10	1	-1E+10	1	-1E+10	1
4901784	46	C	10/07/2016	10:44	-132.308	44.917	0	61.90	0	11.6660	0	32.8410	0	24.976	0	61.389	0	276.1	4	102.6	4	-1E+10	1	-1E+10	1	-1E+10	1	-1E+10	1	-1E+10	1	-1E+10	1
4901784	46	C	10/07/2016	10:44	-132.308	44.917	0	63.60	0	11.5920	0	32.8330	0	24.984	0	63.074	0	275.0	4	102.0	4	-1E+10	1	-1E+10	1	-1E+10	1	-1E+10	1	-1E+10	1	-1E+10	1
4901784	46	C	10/07/2016	10:44	-132.308	44.917	0	65.00	0	11.4070	0	32.8290	0	25.014	0	64.463	0	274.1	4	101.3	4	-1E+10	1	-1E+10	1	-1E+10	1	-1E+10	1	-1E+10	1	-1E+10	1
4901784	46	C	10/07/2016	10:44	-132.308	44.917	0	66.40	0	11.3060	0	32.8220	0	25.027	0	65.851	0	272.9	4	100.6	4	-1E+10	1	-1E+10	1	-1E+10	1	-1E+10	1	-1E+10	1	-1E+10	1
4901784	46	C	10/07/2016	10:44	-132.308	44.917	0	67.80	0	11.0800	0	32.8010	0	25.051	0	67.239	0	271.7	4	99.7	4	-1E+10	1	-1E+10	1	-1E+10	1	-1E+10	1	-1E+10	1	-1E+10	1
4901784	46	C	10/07/2016	10:44	-132.308	44.917	0	69.20	0	10.7150	0	32.8260	0	25.135	0	68.627	0	270.7	4	98.6	4	-1E+10	1	-1E+10	1	-1E+10	1	-1E+10	1	-1E+10	1	-1E+10	1
4901784	46	C	10/07/2016	10:44	-132.308	44.917	0	70.70	0	10.5080	0	32.8330	0	25.176	0	70.115	0	271.7	4	98.5	4	-1E+10	1	-1E+10	1	-1E+10	1	-1E+10	1	-1E+10	1	-1E+10	1
4901784	46	C	10/07/2016	10:44	-132.308	44.917	0	72.20	0	10.4700	0	32.8400	0	25.188	0	71.602	0	271.5	4	98.3	4	-1E+10	1	-1E+10	1	-1E+10	1	-1E+10	1	-1E+10	1	-1E+10	1
4901784	46	C	10/07/2016	10:44	-132.308	44.917	0	73.80	0	10.4510	0	32.8400	0	25.191	0	73.188	0	270.5	4	97.9	4	-1E+10	1	-1E+10	1	-1E+10	1	-1E+10	1	-1E+10	1	-1E+10	1
4901784	46	C	10/07/2016	10:44	-132.308	44.917	0	75.40	0	10.3660	0	32.8550	0	25.218	0	74.775	0	269.2	4	97.3	4	-1E+10	1	-1E+10	1	-1E+10	1	-1E+10	1	-1E+10	1	-1E+10	1
4901784	46	C	10/07/2016	10:44	-132.308	44.917	0	77.00	0	10.2140	0	32.8540	0	25.243	0	76.361	0	269.1	4	97.0	4	-1E+10	1	-1E+10	1	-1E+10	1	-1E+10	1	-1E+10	1	-1E+10	1
4901784	46	C	10/07/2016	10:44	-132.308	44.917	0	78.70	0	10.1850	0	32.8520	0	25.246	0	78.047	0	268.2	4	96.6	4	-1E+10	1	-1E+10	1	-1E+10	1	-1E+10	1	-1E+10	1	-1E+10	1
4901784	46	C	10/07/2016	10:44	-132.308	44.917	0	80.30	0	10.1290	0	32.8590	0	25.261	0	79.633	0	267.0	4	96.0	4	-1E+10	1	-1E+10	1	-1E+10	1	-1E+10	1	-1E+10	1	-1E+10	1
4901784	46	C	10/07/2016	10:44	-132.308	44.917	0	81.90	0	10.0890	0	32.8600	0	25.268	0	81.220	0	265.7	4	95.5	4	-1E+10	1	-1E+10	1	-1E+10	1	-1E+10	1	-1E+10	1	-1E+10	1
4901784	46	C	10/07/2016	10:44	-132.308	44.917	0	83.60	0	10.0740	0	32.8810	0	25.287	0	82.905	0	264.5	4	95.0	4	-1E+10	1	-1E+10	1	-1E+10	1	-1E+10	1	-1E+10	1	-1E+10	1
4901784	46	C	10/07/2016	10:44	-132.308	44.917	0	85.30	0	10.0260	0	32.8760	0	25.291	0	84.591	0	263.1	4	94.4	4	-1E+10	1	-1E+10	1	-1E+10	1	-1E+10	1	-1E+10	1	-1E+10	1
4901784	46	C	10/07/2016	10:44	-132.308	44.917	0	87.00	0	9.9540	0	32.8820	0	25.308	0	86.276	0	262.0	4	93.9	4	-1E+10	1	-1E+10	1	-1E+10	1	-1E+10	1	-1E+10	1	-1E+10	1
4901784	46	C	10/07/2016	10:44	-132.308	44.917	0	88.60	0	9.9630	0	32.8940	0	25.316	0	87.863	0	259.9	4	93.1	4	-1E+10	1	-1E+10	1	-1E+10	1	-1E+10	1	-1E+10	1	-1E+10	1
4901784	46	C	10/07/2016	10:44	-132.308	44.917	0	90.30	0	9.9330	0	32.9000	0	25.326	0	89.548	0	257.9	4	92.4	4	-1E+10	1	-1E+10	1	-1E+10	1	-1E+10	1	-1E+10	1	-1E+10	1
4901784	46	C	10/07/2016	10:44	-132.308	44.917	0	91.90	0	9.7710	0	32.9040	0	25.356	0	91.134	0	256.2	4	91.5	4	-1E+10	1	-1E+10	1	-1E+10	1	-1E+10	1	-1E+10	1	-1E+10	1
4901784	46	C	10/07/2016	10:44	-132.308	44.917	0	93.60	0	9.6940	0	32.9080	0	25.371	0	92.820	0	254.8	4	90.8	4	-1E+10	1	-1E+10	1	-1E+10	1	-1E+10	1	-1E+10	1	-1E+10	1
4901784	46	C	10/07/2016	10:44	-132.308	44.917	0	95.40	0	9.6330	0	32.9120	0	25.384	0	94.604	0	253.7	4	90.3	4	-1E+10	1	-1E+10	1	-1E+10	1	-1E+10	1	-1E+10	1	-1E+10	1
4901784	46	C	10/07/2016	10:44	-132.308	44.917	0	97.10	0	9.5440	0	32.9260	0	25.410	0	96.290	0	252.9	4	89.8	4	-1E+10	1	-1E+10	1	-1E+10	1	-1E+10	1	-1E+10	1	-1E+10	1
4901784	46	C	10/07/2016	10:44	-132.308	44.917	0	98.80	0	9.5210	0	32.9280	0	25.415	0	97.975	0	251.9	4	89.4	4	-1E+10	1	-1E+10	1	-1E+10	1	-1E+10	1	-1E+10	1	-1E+10	1
4901784	46	C	10/07/2016	10:44	-132.308	44.917	0	100.50	0	9.5090	0	32.9310	0	25.419	0	99.661	0	250.2	4	88.8	4	-1E+10	1	-1E+10	1	-1E+10	1	-1E+10	1	-1E+10	1	-1E+10	1
4901784	46	C	10/07/2016	10:44	-132.308	44.917	0	102.20	0	9.5200	0	32.9390	0	25.424	0	101.346	0	248.3	4	88.2	4	-1E+10	1	-1E+10	1	-1E+10	1	-1E+10	1	-1E+10	1	-1E+10	1
4901784	46	C	10/07/2016	10:44	-132.308	44.917	0	104.70	0	9.4640	0	32.9690	0	25.456	0	103.825	0	245.3	4	87.0	4	-1E+10	1	-1E+10	1	-1E+10	1	-1E+10	1	-1E+10	1	-1E+10	1
4901784	46	C	10/07/2016	10:44	-132.308	44.917	0	107.20	0	9.4350	0	33.0070	0	25.491	0	106.303	0	242.1	4	85.8	4	-1E+10	1	-1E+10	1	-1E+10	1	-1E+10	1	-1E+10	1	-1E+10	1
4901784	46	C	10/07/2016	10:44	-132.308	44.917	0	109.80	0	9.3780	0	33.0310	0	25.519	0	108.881	0	238.6	4	84.5	4	-1E+10	1	-1E+10	1	-1E+10	1	-1E+10	1	-1E+10	1	-1E+10	1
4901784	46	C	10/07/2016	10:44	-132.308	44.917	0	112.00	0	9.3120	0	33.0450	0	25.540	0	111.062	0	235.3	4	83.2	4	-1E+10	1	-1E+10	1	-1E+10	1	-1E+10	1	-1E+10	1	-1E+10	1
4901784	46	C	10/07/2016	10:44	-132.308	44.917	0	114.90	0	9.2220	0	33.0930	0	25.592	0	113.936	0	228.3	4	80.6	4	-1E+10	1	-1E+10	1	-1E+10	1	-1E+10	1	-1E+10	1	-1E+10	1
4901784	46	C	10/07/2016	10:44	-132.308	44.917	0	117.80	0	9.1840	0	33.1640	0	25.654	0	116.811	0	219.6	4	77.5	4	-1E+10	1	-1E+10	1	-1E+10	1	-1E+10	1	-1E+10	1	-1E+10	1
4901784	46	C	10/07/2016	10:44	-132.308	44.917	0	120.00	0	9.2350	0	33.2380	0	25.704	0	118.992	0	213.4	4	75.5	4	-1E+10	1	-1E+10	1	-1E+10	1	-1E+10	1	-1E+10	1	-1E+10	1
4901784	46	C	10/07/2016	10:44	-132.308	44.917	0	122.20	0	9.2170	0	33.2660	0	25.729	0	121.173	0	209.1	4	73.9	4	-1E+10	1	-1E+10	1	-1E+10	1	-1E+10	1	-1E+10	1	-1E+10	1
4901784	46	C	10/07/2016	10:44	-132.308	44.917	0	124.60	0	9.1460	0	33.3540	0	25.809	0	123.552	0	204.4	4	72.2	4	-1E+10	1	-1E+10	1	-1E+10	1	-1E+10	1	-1E+10	1	-1E+10	1
4901784	46	C	10/07/2016	10:44	-132.308	44.917	0	127.10	0	9.1000	0	33.4150	0	25.864	0	126.030	0	202.3	4	71.4	4	-1E+10	1	-1E+10	1	-1E+10	1	-1E+10	1	-1E+10	1	-1E+10	1
4901784	46	C	10/07/2016	10:44	-132.308	44.917	0	130.40	0	9.0870	0	33.4330	0	25.880	0	129.302	0	198.9	4	70.2	4	-1E+10	1	-1E+10	1	-1E+10	1	-1E+10	1	-1E+10	1	-1E+10	1
4901784	46	C	10/07/2016	10:44	-132.308	44.917	0	132.70	0	9.0360	0	33.4830	0	25.927	0	131.582	0	196.1	4	69.2	4	-1E+10	1	-1E+10	1	-1E+10	1	-1E+10	1	-1E+10	1	-1E+10	1
4901784	46	C	10/07/2016	10:44	-132.308	44.917	0	135.30	0	8.9290	0	33.5510	0	25.997	0	134.159	0	193.7	4	68.2	4	-1E+10	1	-1E+10	1	-1E+10	1	-1E+10	1	-1E+10	1	-1E+10	1
4901784	46	C	10/07/2016	10:44	-132.308	44.917	0	138.00	0	8.8240	0	33.6100	0	26.060	0	136.835	0	191.9	4	67.4	4	-1E+10	1	-1E+10	1	-1E+10	1	-1E+10	1	-1E+10	1	-1E+10	1
4901784	46	C	10/07/2016	10:44	-132.308	44.917	0	139.80	0	8.8020	0	33.6230	0	26.074	0	138.619	0	191.0	4	67.1	4	-1E+10	1	-1E+10	1	-1E+10	1	-1E+10	1	-1E+10	1	-1E+10	1
4901784	46	C	10/07/2016	10:44	-132.308	44.917	0	142.40	0	8.7220	0	33.6570	0	26.113	0	141.196	0	190.0	4	66.6	4	-1E+10	1	-1E+10	1	-1E+10	1	-1E+10	1	-1E+10	1	-1E+10	1
4901784	46	C	10/07/2016	10:44	-132.308	44.917	0	145.10	0	8.6430	0	33.6920	0	26.152	0	143.873	0	189.1	4	66.2	4	-1E+10	1	-1E+10	1	-1E+10	1	-1E+10	1	-1E+10	1	-1E+10	1
4901784	46	C	10/07/2016	10:44	-132.308	44.917	0	147.80	0	8.6120	0	33.7090	0	26.170	0	146.549	0	188.4	4	66.0	4	-1E+10	1	-1E+10	1	-1E+10	1	-1E+10	1	-1E+10	1	-1E+10	1
4901784	46	C	10/07/2016	10:44	-132.308	44.917	0	150.50	0	8.5810	0	33.7240	0	26.187	0	149.225	0	187.6	4	65.6	4	-1E+10	1	-1E+10	1	-1E+10	1	-1E+10	1	-1E+10	1	-1E+10	1
4901784	46	C	10/07/2016	10:44	-132.308	44.917	0	152.30	0	8.5330	0	33.7420	0	26.208	0	151.009	0	187.1	4	65.4	4	-1E+10	1	-1E+10	1	-1E+10	1	-1E+10	1	-1E+10	1	-1E+10	1
4901784	46	C	10/07/2016	10:44	-132.308	44.917	0	155.00	0	8.4940	0	33.7560	0	26.225	0	153.685	0	186.6	4	65.2	4	-1E+10	1	-1E+10	1	-1E+10	1	-1E+10	1	-1E+10	1	-1E+10	1
4901784	46	C	10/07/2016	10:44	-132.308	44.917	0	157.70	0	8.4780	0	33.7770	0	26.244	0	156.361	0	186.0	4	65.0	4	-1E+10	1	-1E+10	1	-1E+10	1	-1E+10	1	-1E+10	1	-1E+10	1
4901784	46	C	10/07/2016	10:44	-132.308	44.917	0	159.60	0	8.4600	0	33.7890	0	26.257	0	158.244	0	185.4	4	64.7	4	-1E+10	1	-1E+10	1	-1E+10	1	-1E+10	1	-1E+10	1	-1E+10	1
4901784	46	C	10/07/2016	10:44	-132.308	44.917	0	162.40	0	8.4250	0	33.8060	0	26.275	0	161.020	0	184.7	4	64.4	4	-1E+10	1	-1E+10	1	-1E+10	1	-1E+10	1	-1E+10	1	-1E+10	1
4901784	46	C	10/07/2016	10:44	-132.308	44.917	0	165.20	0	8.4010	0	33.8150	0	26.286	0	163.795	0	183.9	4	64.1	4	-1E+10	1	-1E+10	1	-1E+10	1	-1E+10	1	-1E+10	1	-1E+10	1
4901784	46	C	10/07/2016	10:44	-132.308	44.917	0	167.00	0	8.3630	0	33.8210	0	26.296	0	165.579	0	183.2	4	63.8	4	-1E+10	1	-1E+10	1	-1E+10	1	-1E+10	1	-1E+10	1	-1E+10	1
4901784	46	C	10/07/2016	10:44	-132.308	44.917	0	169.70	0	8.3330	0	33.8340	0	26.311	0	168.255	0	182.2	4	63.4	4	-1E+10	1	-1E+10	1	-1E+10	1	-1E+10	1	-1E+10	1	-1E+10	1
4901784	46	C	10/07/2016	10:44	-132.308	44.917	0	172.50	0	8.2910	0	33.8520	0	26.332	0	171.030	0	181.2	4	63.0	4	-1E+10	1	-1E+10	1	-1E+10	1	-1E+10	1	-1E+10	1	-1E+10	1
4901784	46	C	10/07/2016	10:44	-132.308	44.917	0	174.40	0	8.2570	0	33.8540	0	26.338	0	172.913	0	180.5	4	62.7	4	-1E+10	1	-1E+10	1	-1E+10	1	-1E+10	1	-1E+10	1	-1E+10	1
4901784	46	C	10/07/2016	10:44	-132.308	44.917	0	177.20	0	8.2200	0	33.8590	0	26.348	0	175.688	0	179.5	4	62.4	4	-1E+10	1	-1E+10	1	-1E+10	1	-1E+10	1	-1E+10	1	-1E+10	1
4901784	46	C	10/07/2016	10:44	-132.308	44.917	0	180.00	0	8.1760	0	33.8650	0	26.359	0	178.462	0	178.3	4	61.9	4	-1E+10	1	-1E+10	1	-1E+10	1	-1E+10	1	-1E+10	1	-1E+10	1
4901784	46	C	10/07/2016	10:44	-132.308	44.917	0	181.90	0	8.1410	0	33.8660	0	26.365	0	180.345	0	177.8	4	61.7	4	-1E+10	1	-1E+10	1	-1E+10	1	-1E+10	1	-1E+10	1	-1E+10	1
4901784	46	C	10/07/2016	10:44	-132.308	44.917	0	184.70	0	8.0600	0	33.8700	0	26.381	0	183.120	0	176.8	4	61.2	4	-1E+10	1	-1E+10	1	-1E+10	1	-1E+10	1	-1E+10	1	-1E+10	1
4901784	46	C	10/07/2016	10:44	-132.308	44.917	0	187.70	0	7.9970	0	33.8710	0	26.391	0	186.093	0	176.0	4	60.8	4	-1E+10	1	-1E+10	1	-1E+10	1	-1E+10	1	-1E+10	1	-1E+10	1
4901784	46	C	10/07/2016	10:44	-132.308	44.917	0	189.60	0	7.9850	0	33.8720	0	26.393	0	187.976	0	175.3	4	60.6	4	-1E+10	1	-1E+10	1	-1E+10	1	-1E+10	1	-1E+10	1	-1E+10	1
4901784	46	C	10/07/2016	10:44	-132.308	44.917	0	192.40	0	7.9160	0	33.8770	0	26.407	0	190.751	0	174.3	4	60.2	4	-1E+10	1	-1E+10	1	-1E+10	1	-1E+10	1	-1E+10	1	-1E+10	1
4901784	46	C	10/07/2016	10:44	-132.308	44.917	0	195.90	0	7.8500	0	33.8810	0	26.420	0	194.219	0	173.1	4	59.6	4	-1E+10	1	-1E+10	1	-1E+10	1	-1E+10	1	-1E+10	1	-1E+10	1
4901784	46	C	10/07/2016	10:44	-132.308	44.917	0	197.80	0	7.7950	0	33.8860	0	26.432	0	196.102	0	172.5	4	59.4	4	-1E+10	1	-1E+10	1	-1E+10	1	-1E+10	1	-1E+10	1	-1E+10	1
4901784	46	C	10/07/2016	10:44	-132.308	44.917	0	200.20	0	7.7650	0	33.8870	0	26.437	0	198.480	0	171.4	4	59.0	4	-1E+10	1	-1E+10	1	-1E+10	1	-1E+10	1	-1E+10	1	-1E+10	1
4901784	46	C	10/07/2016	10:44	-132.308	44.917	0	202.60	0	7.7030	0	33.8940	0	26.452	0	200.858	0	170.4	4	58.5	4	-1E+10	1	-1E+10	1	-1E+10	1	-1E+10	1	-1E+10	1	-1E+10	1
4901784	46	C	10/07/2016	10:44	-132.308	44.917	0	205.00	0	7.6710	0	33.8960	0	26.458	0	203.237	0	169.6	4	58.2	4	-1E+10	1	-1E+10	1	-1E+10	1	-1E+10	1	-1E+10	1	-1E+10	1
4901784	46	C	10/07/2016	10:44	-132.308	44.917	0	207.40	0	7.6430	0	33.8950	0	26.461	0	205.615	0	168.8	4	57.9	4	-1E+10	1	-1E+10	1	-1E+10	1	-1E+10	1	-1E+10	1	-1E+10	1
4901784	46	C	10/07/2016	10:44	-132.308	44.917	0	209.90	0	7.6110	0	33.8960	0	26.467	0	208.092	0	167.4	4	57.4	4	-1E+10	1	-1E+10	1	-1E+10	1	-1E+10	1	-1E+10	1	-1E+10	1
4901784	46	C	10/07/2016	10:44	-132.308	44.917	0	212.30	0	7.5550	0	33.9020	0	26.479	0	210.470	0	166.2	4	56.9	4	-1E+10	1	-1E+10	1	-1E+10	1	-1E+10	1	-1E+10	1	-1E+10	1
4901784	46	C	10/07/2016	10:44	-132.308	44.917	0	214.80	0	7.5250	0	33.9010	0	26.483	0	212.947	0	165.3	4	56.6	4	-1E+10	1	-1E+10	1	-1E+10	1	-1E+10	1	-1E+10	1	-1E+10	1
4901784	46	C	10/07/2016	10:44	-132.308	44.917	0	217.20	0	7.4850	0	33.9020	0	26.489	0	215.325	0	164.4	4	56.2	4	-1E+10	1	-1E+10	1	-1E+10	1	-1E+10	1	-1E+10	1	-1E+10	1
4901784	46	C	10/07/2016	10:44	-132.308	44.917	0	219.70	0	7.4530	0	33.9020	0	26.494	0	217.802	0	163.5	4	55.8	4	-1E+10	1	-1E+10	1	-1E+10	1	-1E+10	1	-1E+10	1	-1E+10	1
4901784	46	C	10/07/2016	10:44	-132.308	44.917	0	222.20	0	7.4320	0	33.9010	0	26.496	0	220.279	0	162.2	4	55.4	4	-1E+10	1	-1E+10	1	-1E+10	1	-1E+10	1	-1E+10	1	-1E+10	1
4901784	46	C	10/07/2016	10:44	-132.308	44.917	0	224.70	0	7.3760	0	33.9030	0	26.506	0	222.757	0	161.0	4	54.9	4	-1E+10	1	-1E+10	1	-1E+10	1	-1E+10	1	-1E+10	1	-1E+10	1
4901784	46	C	10/07/2016	10:44	-132.308	44.917	0	227.20	0	7.3410	0	33.9010	0	26.509	0	225.234	0	160.3	4	54.6	4	-1E+10	1	-1E+10	1	-1E+10	1	-1E+10	1	-1E+10	1	-1E+10	1
4901784	46	C	10/07/2016	10:44	-132.308	44.917	0	229.70	0	7.3160	0	33.9040	0	26.515	0	227.711	0	159.2	4	54.2	4	-1E+10	1	-1E+10	1	-1E+10	1	-1E+10	1	-1E+10	1	-1E+10	1
4901784	46	C	10/07/2016	10:44	-132.308	44.917	0	232.20	0	7.2990	0	33.9030	0	26.517	0	230.187	0	158.1	4	53.8	4	-1E+10	1	-1E+10	1	-1E+10	1	-1E+10	1	-1E+10	1	-1E+10	1
4901784	46	C	10/07/2016	10:44	-132.308	44.917	0	234.60	0	7.2660	0	33.9040	0	26.522	0	232.565	0	156.6	4	53.3	4	-1E+10	1	-1E+10	1	-1E+10	1	-1E+10	1	-1E+10	1	-1E+10	1
4901784	46	C	10/07/2016	10:44	-132.308	44.917	0	237.90	0	7.1930	0	33.9060	0	26.534	0	235.835	0	154.9	4	52.6	4	-1E+10	1	-1E+10	1	-1E+10	1	-1E+10	1	-1E+10	1	-1E+10	1
4901784	46	C	10/07/2016	10:44	-132.308	44.917	0	240.40	0	7.1600	0	33.9050	0	26.538	0	238.312	0	153.9	4	52.2	4	-1E+10	1	-1E+10	1	-1E+10	1	-1E+10	1	-1E+10	1	-1E+10	1
4901784	46	C	10/07/2016	10:44	-132.308	44.917	0	242.80	0	7.1230	0	33.9060	0	26.543	0	240.689	0	152.6	4	51.7	4	-1E+10	1	-1E+10	1	-1E+10	1	-1E+10	1	-1E+10	1	-1E+10	1
4901784	46	C	10/07/2016	10:44	-132.308	44.917	0	245.40	0	7.0850	0	33.9070	0	26.549	0	243.265	0	151.5	4	51.3	4	-1E+10	1	-1E+10	1	-1E+10	1	-1E+10	1	-1E+10	1	-1E+10	1
4901784	46	C	10/07/2016	10:44	-132.308	44.917	0	247.90	0	7.0580	0	33.9100	0	26.556	0	245.742	0	150.0	4	50.8	4	-1E+10	1	-1E+10	1	-1E+10	1	-1E+10	1	-1E+10	1	-1E+10	1
4901784	46	C	10/07/2016	10:44	-132.308	44.917	0	250.40	0	7.0470	0	33.9100	0	26.557	0	248.219	0	148.5	4	50.3	4	-1E+10	1	-1E+10	1	-1E+10	1	-1E+10	1	-1E+10	1	-1E+10	1
4901784	46	C	10/07/2016	10:44	-132.308	44.917	0	252.10	0	7.0060	0	33.9120	0	26.564	0	249.903	0	147.6	4	49.9	4	-1E+10	1	-1E+10	1	-1E+10	1	-1E+10	1	-1E+10	1	-1E+10	1
4901784	46	C	10/07/2016	10:44	-132.308	44.917	0	254.70	0	6.9710	0	33.9110	0	26.568	0	252.479	0	146.5	4	49.5	4	-1E+10	1	-1E+10	1	-1E+10	1	-1E+10	1	-1E+10	1	-1E+10	1
4901784	46	C	10/07/2016	10:44	-132.308	44.917	0	257.30	0	6.9540	0	33.9100	0	26.570	0	255.054	0	144.9	4	48.9	4	-1E+10	1	-1E+10	1	-1E+10	1	-1E+10	1	-1E+10	1	-1E+10	1
4901784	46	C	10/07/2016	10:44	-132.308	44.917	0	259.90	0	6.8800	0	33.9130	0	26.582	0	257.630	0	143.2	4	48.3	4	-1E+10	1	-1E+10	1	-1E+10	1	-1E+10	1	-1E+10	1	-1E+10	1
4901784	46	C	10/07/2016	10:44	-132.308	44.917	0	262.40	0	6.8580	0	33.9130	0	26.585	0	260.107	0	142.1	4	47.9	4	-1E+10	1	-1E+10	1	-1E+10	1	-1E+10	1	-1E+10	1	-1E+10	1
4901784	46	C	10/07/2016	10:44	-132.308	44.917	0	265.10	0	6.8320	0	33.9130	0	26.589	0	262.781	0	140.4	4	47.3	4	-1E+10	1	-1E+10	1	-1E+10	1	-1E+10	1	-1E+10	1	-1E+10	1
4901784	46	C	10/07/2016	10:44	-132.308	44.917	0	267.70	0	6.7910	0	33.9150	0	26.596	0	265.357	0	138.8	4	46.7	4	-1E+10	1	-1E+10	1	-1E+10	1	-1E+10	1	-1E+10	1	-1E+10	1
4901784	46	C	10/07/2016	10:44	-132.308	44.917	0	270.20	0	6.7610	0	33.9160	0	26.601	0	267.834	0	136.5	4	45.9	4	-1E+10	1	-1E+10	1	-1E+10	1	-1E+10	1	-1E+10	1	-1E+10	1
4901784	46	C	10/07/2016	10:44	-132.308	44.917	0	272.80	0	6.7060	0	33.9180	0	26.610	0	270.409	0	133.9	4	45.0	4	-1E+10	1	-1E+10	1	-1E+10	1	-1E+10	1	-1E+10	1	-1E+10	1
4901784	46	C	10/07/2016	10:44	-132.308	44.917	0	275.40	0	6.6520	0	33.9200	0	26.618	0	272.985	0	132.3	4	44.4	4	-1E+10	1	-1E+10	1	-1E+10	1	-1E+10	1	-1E+10	1	-1E+10	1
4901784	46	C	10/07/2016	10:44	-132.308	44.917	0	277.90	0	6.6120	0	33.9210	0	26.625	0	275.461	0	131.2	4	44.0	4	-1E+10	1	-1E+10	1	-1E+10	1	-1E+10	1	-1E+10	1	-1E+10	1
4901784	46	C	10/07/2016	10:44	-132.308	44.917	0	279.60	0	6.5970	0	33.9210	0	26.627	0	277.145	0	130.6	4	43.7	4	-1E+10	1	-1E+10	1	-1E+10	1	-1E+10	1	-1E+10	1	-1E+10	1
4901784	46	C	10/07/2016	10:44	-132.308	44.917	0	282.20	0	6.5710	0	33.9210	0	26.630	0	279.720	0	130.0	4	43.5	4	-1E+10	1	-1E+10	1	-1E+10	1	-1E+10	1	-1E+10	1	-1E+10	1
4901784	46	C	10/07/2016	10:44	-132.308	44.917	0	284.80	0	6.5360	0	33.9200	0	26.634	0	282.296	0	129.6	4	43.4	4	-1E+10	1	-1E+10	1	-1E+10	1	-1E+10	1	-1E+10	1	-1E+10	1
4901784	46	C	10/07/2016	10:44	-132.308	44.917	0	287.40	0	6.4780	0	33.9180	0	26.640	0	284.871	0	129.0	4	43.1	4	-1E+10	1	-1E+10	1	-1E+10	1	-1E+10	1	-1E+10	1	-1E+10	1
4901784	46	C	10/07/2016	10:44	-132.308	44.917	0	290.00	0	6.4660	0	33.9190	0	26.642	0	287.446	0	127.9	4	42.7	4	-1E+10	1	-1E+10	1	-1E+10	1	-1E+10	1	-1E+10	1	-1E+10	1
4901784	46	C	10/07/2016	10:44	-132.308	44.917	0	292.50	0	6.4320	0	33.9190	0	26.647	0	289.923	0	126.8	4	42.3	4	-1E+10	1	-1E+10	1	-1E+10	1	-1E+10	1	-1E+10	1	-1E+10	1
4901784	46	C	10/07/2016	10:44	-132.308	44.917	0	295.10	0	6.3930	0	33.9170	0	26.650	0	292.498	0	125.3	4	41.8	4	-1E+10	1	-1E+10	1	-1E+10	1	-1E+10	1	-1E+10	1	-1E+10	1
4901784	46	C	10/07/2016	10:44	-132.308	44.917	0	297.70	0	6.3800	0	33.9190	0	26.654	0	295.073	0	123.1	4	41.0	4	-1E+10	1	-1E+10	1	-1E+10	1	-1E+10	1	-1E+10	1	-1E+10	1
4901784	46	C	10/07/2016	10:44	-132.308	44.917	0	300.20	0	6.3220	0	33.9200	0	26.662	0	297.549	0	121.1	4	40.3	4	-1E+10	1	-1E+10	1	-1E+10	1	-1E+10	1	-1E+10	1	-1E+10	1
4901784	46	C	10/07/2016	10:44	-132.308	44.917	0	302.80	0	6.2540	0	33.9210	0	26.671	0	300.124	0	118.9	4	39.5	4	-1E+10	1	-1E+10	1	-1E+10	1	-1E+10	1	-1E+10	1	-1E+10	1
4901784	46	C	10/07/2016	10:44	-132.308	44.917	0	305.30	0	6.2010	0	33.9200	0	26.677	0	302.600	0	117.2	4	38.9	4	-1E+10	1	-1E+10	1	-1E+10	1	-1E+10	1	-1E+10	1	-1E+10	1
4901784	46	C	10/07/2016	10:44	-132.308	44.917	0	307.10	0	6.1480	0	33.9230	0	26.686	0	304.383	0	116.2	4	38.5	4	-1E+10	1	-1E+10	1	-1E+10	1	-1E+10	1	-1E+10	1	-1E+10	1
4901784	46	C	10/07/2016	10:44	-132.308	44.917	0	309.70	0	6.1170	0	33.9240	0	26.691	0	306.958	0	115.0	4	38.1	4	-1E+10	1	-1E+10	1	-1E+10	1	-1E+10	1	-1E+10	1	-1E+10	1
4901784	46	C	10/07/2016	10:44	-132.308	44.917	0	312.20	0	6.0890	0	33.9240	0	26.695	0	309.434	0	113.8	4	37.7	4	-1E+10	1	-1E+10	1	-1E+10	1	-1E+10	1	-1E+10	1	-1E+10	1
4901784	46	C	10/07/2016	10:44	-132.308	44.917	0	314.80	0	6.0580	0	33.9240	0	26.699	0	312.009	0	112.5	4	37.2	4	-1E+10	1	-1E+10	1	-1E+10	1	-1E+10	1	-1E+10	1	-1E+10	1
4901784	46	C	10/07/2016	10:44	-132.308	44.917	0	317.40	0	6.0330	0	33.9220	0	26.700	0	314.584	0	111.1	4	36.7	4	-1E+10	1	-1E+10	1	-1E+10	1	-1E+10	1	-1E+10	1	-1E+10	1
4901784	46	C	10/07/2016	10:44	-132.308	44.917	0	320.00	0	5.9830	0	33.9230	0	26.707	0	317.159	0	109.7	4	36.2	4	-1E+10	1	-1E+10	1	-1E+10	1	-1E+10	1	-1E+10	1	-1E+10	1
4901784	46	C	10/07/2016	10:44	-132.308	44.917	0	322.60	0	5.9580	0	33.9230	0	26.710	0	319.734	0	108.1	4	35.7	4	-1E+10	1	-1E+10	1	-1E+10	1	-1E+10	1	-1E+10	1	-1E+10	1
4901784	46	C	10/07/2016	10:44	-132.308	44.917	0	325.30	0	5.9130	0	33.9240	0	26.717	0	322.408	0	106.4	4	35.1	4	-1E+10	1	-1E+10	1	-1E+10	1	-1E+10	1	-1E+10	1	-1E+10	1
4901784	46	C	10/07/2016	10:44	-132.308	44.917	0	327.90	0	5.8640	0	33.9260	0	26.725	0	324.983	0	104.8	4	34.5	4	-1E+10	1	-1E+10	1	-1E+10	1	-1E+10	1	-1E+10	1	-1E+10	1
4901784	46	C	10/07/2016	10:44	-132.308	44.917	0	329.60	0	5.8390	0	33.9270	0	26.728	0	326.666	0	103.6	4	34.1	4	-1E+10	1	-1E+10	1	-1E+10	1	-1E+10	1	-1E+10	1	-1E+10	1
4901784	46	C	10/07/2016	10:44	-132.308	44.917	0	332.20	0	5.8030	0	33.9260	0	26.732	0	329.241	0	101.8	4	33.5	4	-1E+10	1	-1E+10	1	-1E+10	1	-1E+10	1	-1E+10	1	-1E+10	1
4901784	46	C	10/07/2016	10:44	-132.308	44.917	0	334.90	0	5.7640	0	33.9260	0	26.737	0	331.915	0	100.2	4	32.9	4	-1E+10	1	-1E+10	1	-1E+10	1	-1E+10	1	-1E+10	1	-1E+10	1
4901784	46	C	10/07/2016	10:44	-132.308	44.917	0	337.50	0	5.7330	0	33.9260	0	26.741	0	334.490	0	98.5	4	32.4	4	-1E+10	1	-1E+10	1	-1E+10	1	-1E+10	1	-1E+10	1	-1E+10	1
4901784	46	C	10/07/2016	10:44	-132.308	44.917	0	340.20	0	5.6810	0	33.9280	0	26.749	0	337.164	0	96.8	4	31.7	4	-1E+10	1	-1E+10	1	-1E+10	1	-1E+10	1	-1E+10	1	-1E+10	1
4901784	46	C	10/07/2016	10:44	-132.308	44.917	0	342.00	0	5.6560	0	33.9290	0	26.752	0	338.946	0	95.8	4	31.4	4	-1E+10	1	-1E+10	1	-1E+10	1	-1E+10	1	-1E+10	1	-1E+10	1
4901784	46	C	10/07/2016	10:44	-132.308	44.917	0	344.70	0	5.6310	0	33.9290	0	26.756	0	341.620	0	94.1	4	30.8	4	-1E+10	1	-1E+10	1	-1E+10	1	-1E+10	1	-1E+10	1	-1E+10	1
4901784	46	C	10/07/2016	10:44	-132.308	44.917	0	347.30	0	5.5770	0	33.9310	0	26.764	0	344.194	0	92.3	4	30.2	4	-1E+10	1	-1E+10	1	-1E+10	1	-1E+10	1	-1E+10	1	-1E+10	1
4901784	46	C	10/07/2016	10:44	-132.308	44.917	0	350.10	0	5.5430	0	33.9330	0	26.769	0	346.967	0	90.7	4	29.7	4	-1E+10	1	-1E+10	1	-1E+10	1	-1E+10	1	-1E+10	1	-1E+10	1
4901784	46	C	10/07/2016	10:44	-132.308	44.917	0	352.80	0	5.5140	0	33.9350	0	26.774	0	349.640	0	89.3	4	29.2	4	-1E+10	1	-1E+10	1	-1E+10	1	-1E+10	1	-1E+10	1	-1E+10	1
4901784	46	C	10/07/2016	10:44	-132.308	44.917	0	354.70	0	5.5060	0	33.9350	0	26.775	0	351.522	0	88.2	4	28.8	4	-1E+10	1	-1E+10	1	-1E+10	1	-1E+10	1	-1E+10	1	-1E+10	1
4901784	46	C	10/07/2016	10:44	-132.308	44.917	0	357.40	0	5.4820	0	33.9350	0	26.778	0	354.195	0	86.4	4	28.2	4	-1E+10	1	-1E+10	1	-1E+10	1	-1E+10	1	-1E+10	1	-1E+10	1
4901784	46	C	10/07/2016	10:44	-132.308	44.917	0	360.10	0	5.4410	0	33.9360	0	26.784	0	356.869	0	84.5	4	27.6	4	-1E+10	1	-1E+10	1	-1E+10	1	-1E+10	1	-1E+10	1	-1E+10	1
4901784	46	C	10/07/2016	10:44	-132.308	44.917	0	362.00	0	5.3980	0	33.9390	0	26.791	0	358.750	0	83.3	4	27.1	4	-1E+10	1	-1E+10	1	-1E+10	1	-1E+10	1	-1E+10	1	-1E+10	1
4901784	46	C	10/07/2016	10:44	-132.308	44.917	0	364.70	0	5.3670	0	33.9400	0	26.796	0	361.423	0	81.4	4	26.5	4	-1E+10	1	-1E+10	1	-1E+10	1	-1E+10	1	-1E+10	1	-1E+10	1
4901784	46	C	10/07/2016	10:44	-132.308	44.917	0	367.40	0	5.3240	0	33.9440	0	26.804	0	364.097	0	79.6	4	25.9	4	-1E+10	1	-1E+10	1	-1E+10	1	-1E+10	1	-1E+10	1	-1E+10	1
4901784	46	C	10/07/2016	10:44	-132.308	44.917	0	370.20	0	5.2940	0	33.9470	0	26.810	0	366.869	0	77.7	4	25.3	4	-1E+10	1	-1E+10	1	-1E+10	1	-1E+10	1	-1E+10	1	-1E+10	1
4901784	46	C	10/07/2016	10:44	-132.308	44.917	0	373.10	0	5.2700	0	33.9520	0	26.817	0	369.741	0	76.0	4	24.7	4	-1E+10	1	-1E+10	1	-1E+10	1	-1E+10	1	-1E+10	1	-1E+10	1
4901784	46	C	10/07/2016	10:44	-132.308	44.917	0	375.00	0	5.2480	0	33.9570	0	26.823	0	371.622	0	75.1	4	24.4	4	-1E+10	1	-1E+10	1	-1E+10	1	-1E+10	1	-1E+10	1	-1E+10	1
4901784	46	C	10/07/2016	10:44	-132.308	44.917	0	377.80	0	5.2320	0	33.9580	0	26.826	0	374.394	0	74.3	4	24.1	4	-1E+10	1	-1E+10	1	-1E+10	1	-1E+10	1	-1E+10	1	-1E+10	1
4901784	46	C	10/07/2016	10:44	-132.308	44.917	0	380.60	0	5.2160	0	33.9580	0	26.828	0	377.166	0	73.4	4	23.8	4	-1E+10	1	-1E+10	1	-1E+10	1	-1E+10	1	-1E+10	1	-1E+10	1
4901784	46	C	10/07/2016	10:44	-132.308	44.917	0	382.50	0	5.2030	0	33.9590	0	26.830	0	379.047	0	72.8	4	23.6	4	-1E+10	1	-1E+10	1	-1E+10	1	-1E+10	1	-1E+10	1	-1E+10	1
4901784	46	C	10/07/2016	10:44	-132.308	44.917	0	384.40	0	5.1800	0	33.9630	0	26.836	0	380.928	0	72.2	4	23.4	4	-1E+10	1	-1E+10	1	-1E+10	1	-1E+10	1	-1E+10	1	-1E+10	1
4901784	46	C	10/07/2016	10:44	-132.308	44.917	0	387.40	0	5.1720	0	33.9620	0	26.836	0	383.899	0	71.3	4	23.1	4	-1E+10	1	-1E+10	1	-1E+10	1	-1E+10	1	-1E+10	1	-1E+10	1
4901784	46	C	10/07/2016	10:44	-132.308	44.917	0	390.30	0	5.1500	0	33.9650	0	26.841	0	386.770	0	70.4	4	22.8	4	-1E+10	1	-1E+10	1	-1E+10	1	-1E+10	1	-1E+10	1	-1E+10	1
4901784	46	C	10/07/2016	10:44	-132.308	44.917	0	392.30	0	5.1410	0	33.9650	0	26.842	0	388.750	0	69.7	4	22.6	4	-1E+10	1	-1E+10	1	-1E+10	1	-1E+10	1	-1E+10	1	-1E+10	1
4901784	46	C	10/07/2016	10:44	-132.308	44.917	0	395.20	0	5.1340	0	33.9680	0	26.845	0	391.621	0	68.5	4	22.2	4	-1E+10	1	-1E+10	1	-1E+10	1	-1E+10	1	-1E+10	1	-1E+10	1
4901784	46	C	10/07/2016	10:44	-132.308	44.917	0	398.10	0	5.1020	0	33.9680	0	26.849	0	394.492	0	67.4	4	21.8	4	-1E+10	1	-1E+10	1	-1E+10	1	-1E+10	1	-1E+10	1	-1E+10	1
4901784	46	C	10/07/2016	10:44	-132.308	44.917	0	400.10	0	5.0930	0	33.9730	0	26.854	0	396.472	0	66.5	4	21.5	4	-1E+10	1	-1E+10	1	-1E+10	1	-1E+10	1	-1E+10	1	-1E+10	1
4901784	46	C	10/07/2016	10:44	-132.308	44.917	0	402.00	0	5.0720	0	33.9760	0	26.859	0	398.353	0	66.0	4	21.3	4	-1E+10	1	-1E+10	1	-1E+10	1	-1E+10	1	-1E+10	1	-1E+10	1
4901784	46	C	10/07/2016	10:44	-132.308	44.917	0	405.10	0	5.0690	0	33.9760	0	26.859	0	401.421	0	65.2	4	21.1	4	-1E+10	1	-1E+10	1	-1E+10	1	-1E+10	1	-1E+10	1	-1E+10	1
4901784	46	C	10/07/2016	10:44	-132.308	44.917	0	407.70	0	5.0640	0	33.9780	0	26.861	0	403.995	0	64.1	4	20.7	4	-1E+10	1	-1E+10	1	-1E+10	1	-1E+10	1	-1E+10	1	-1E+10	1
4901784	46	C	10/07/2016	10:44	-132.308	44.917	0	410.20	0	5.0490	0	33.9830	0	26.867	0	406.470	0	62.9	4	20.3	4	-1E+10	1	-1E+10	1	-1E+10	1	-1E+10	1	-1E+10	1	-1E+10	1
4901784	46	C	10/07/2016	10:44	-132.308	44.917	0	412.70	0	5.0380	0	33.9850	0	26.870	0	408.945	0	62.3	4	20.1	4	-1E+10	1	-1E+10	1	-1E+10	1	-1E+10	1	-1E+10	1	-1E+10	1
4901784	46	C	10/07/2016	10:44	-132.308	44.917	0	415.20	0	5.0240	0	33.9860	0	26.872	0	411.420	0	61.6	4	19.9	4	-1E+10	1	-1E+10	1	-1E+10	1	-1E+10	1	-1E+10	1	-1E+10	1
4901784	46	C	10/07/2016	10:44	-132.308	44.917	0	417.60	0	5.0070	0	33.9880	0	26.876	0	413.795	0	60.8	4	19.6	4	-1E+10	1	-1E+10	1	-1E+10	1	-1E+10	1	-1E+10	1	-1E+10	1
4901784	46	C	10/07/2016	10:44	-132.308	44.917	0	420.10	0	4.9790	0	33.9920	0	26.882	0	416.270	0	59.9	4	19.3	4	-1E+10	1	-1E+10	1	-1E+10	1	-1E+10	1	-1E+10	1	-1E+10	1
4901784	46	C	10/07/2016	10:44	-132.308	44.917	0	422.60	0	4.9660	0	33.9940	0	26.885	0	418.745	0	59.2	4	19.1	4	-1E+10	1	-1E+10	1	-1E+10	1	-1E+10	1	-1E+10	1	-1E+10	1
4901784	46	C	10/07/2016	10:44	-132.308	44.917	0	425.20	0	4.9600	0	33.9950	0	26.887	0	421.319	0	58.6	4	18.9	4	-1E+10	1	-1E+10	1	-1E+10	1	-1E+10	1	-1E+10	1	-1E+10	1
4901784	46	C	10/07/2016	10:44	-132.308	44.917	0	427.70	0	4.9470	0	33.9970	0	26.890	0	423.793	0	57.8	4	18.7	4	-1E+10	1	-1E+10	1	-1E+10	1	-1E+10	1	-1E+10	1	-1E+10	1
4901784	46	C	10/07/2016	10:44	-132.308	44.917	0	430.20	0	4.9340	0	34.0000	0	26.894	0	426.268	0	57.1	4	18.4	4	-1E+10	1	-1E+10	1	-1E+10	1	-1E+10	1	-1E+10	1	-1E+10	1
4901784	46	C	10/07/2016	10:44	-132.308	44.917	0	432.70	0	4.9270	0	34.0020	0	26.896	0	428.742	0	56.5	4	18.2	4	-1E+10	1	-1E+10	1	-1E+10	1	-1E+10	1	-1E+10	1	-1E+10	1
4901784	46	C	10/07/2016	10:44	-132.308	44.917	0	435.20	0	4.9220	0	34.0020	0	26.897	0	431.217	0	55.9	4	18.0	4	-1E+10	1	-1E+10	1	-1E+10	1	-1E+10	1	-1E+10	1	-1E+10	1
4901784	46	C	10/07/2016	10:44	-132.308	44.917	0	437.70	0	4.9110	0	34.0040	0	26.900	0	433.691	0	55.1	4	17.8	4	-1E+10	1	-1E+10	1	-1E+10	1	-1E+10	1	-1E+10	1	-1E+10	1
4901784	46	C	10/07/2016	10:44	-132.308	44.917	0	440.30	0	4.8950	0	34.0080	0	26.905	0	436.265	0	54.3	4	17.5	4	-1E+10	1	-1E+10	1	-1E+10	1	-1E+10	1	-1E+10	1	-1E+10	1
4901784	46	C	10/07/2016	10:44	-132.308	44.917	0	442.80	0	4.8820	0	34.0100	0	26.908	0	438.739	0	53.8	4	17.3	4	-1E+10	1	-1E+10	1	-1E+10	1	-1E+10	1	-1E+10	1	-1E+10	1
4901784	46	C	10/07/2016	10:44	-132.308	44.917	0	445.40	0	4.8750	0	34.0110	0	26.909	0	441.313	0	53.5	4	17.2	4	-1E+10	1	-1E+10	1	-1E+10	1	-1E+10	1	-1E+10	1	-1E+10	1
4901784	46	C	10/07/2016	10:44	-132.308	44.917	0	447.00	0	4.8650	0	34.0110	0	26.910	0	442.896	0	53.3	4	17.2	4	-1E+10	1	-1E+10	1	-1E+10	1	-1E+10	1	-1E+10	1	-1E+10	1
4901784	46	C	10/07/2016	10:44	-132.308	44.917	0	449.60	0	4.8510	0	34.0130	0	26.914	0	445.470	0	52.8	4	17.0	4	-1E+10	1	-1E+10	1	-1E+10	1	-1E+10	1	-1E+10	1	-1E+10	1
4901784	46	C	10/07/2016	10:44	-132.308	44.917	0	452.20	0	4.8450	0	34.0130	0	26.914	0	448.043	0	52.2	4	16.8	4	-1E+10	1	-1E+10	1	-1E+10	1	-1E+10	1	-1E+10	1	-1E+10	1
4901784	46	C	10/07/2016	10:44	-132.308	44.917	0	454.80	0	4.8330	0	34.0170	0	26.919	0	450.616	0	51.5	4	16.6	4	-1E+10	1	-1E+10	1	-1E+10	1	-1E+10	1	-1E+10	1	-1E+10	1
4901784	46	C	10/07/2016	10:44	-132.308	44.917	0	457.40	0	4.8280	0	34.0180	0	26.920	0	453.189	0	50.8	4	16.3	4	-1E+10	1	-1E+10	1	-1E+10	1	-1E+10	1	-1E+10	1	-1E+10	1
4901784	46	C	10/07/2016	10:44	-132.308	44.917	0	460.00	0	4.8230	0	34.0190	0	26.922	0	455.763	0	50.1	4	16.1	4	-1E+10	1	-1E+10	1	-1E+10	1	-1E+10	1	-1E+10	1	-1E+10	1
4901784	46	C	10/07/2016	10:44	-132.308	44.917	0	462.50	0	4.8050	0	34.0230	0	26.927	0	458.237	0	49.3	4	15.9	4	-1E+10	1	-1E+10	1	-1E+10	1	-1E+10	1	-1E+10	1	-1E+10	1
4901784	46	C	10/07/2016	10:44	-132.308	44.917	0	465.10	0	4.7950	0	34.0260	0	26.930	0	460.810	0	48.5	4	15.6	4	-1E+10	1	-1E+10	1	-1E+10	1	-1E+10	1	-1E+10	1	-1E+10	1
4901784	46	C	10/07/2016	10:44	-132.308	44.917	0	467.70	0	4.7860	0	34.0290	0	26.934	0	463.383	0	47.8	4	15.3	4	-1E+10	1	-1E+10	1	-1E+10	1	-1E+10	1	-1E+10	1	-1E+10	1
4901784	46	C	10/07/2016	10:44	-132.308	44.917	0	470.30	0	4.7750	0	34.0320	0	26.937	0	465.956	0	47.0	4	15.1	4	-1E+10	1	-1E+10	1	-1E+10	1	-1E+10	1	-1E+10	1	-1E+10	1
4901784	46	C	10/07/2016	10:44	-132.308	44.917	0	472.90	0	4.7730	0	34.0340	0	26.939	0	468.529	0	46.4	4	14.9	4	-1E+10	1	-1E+10	1	-1E+10	1	-1E+10	1	-1E+10	1	-1E+10	1
4901784	46	C	10/07/2016	10:44	-132.308	44.917	0	474.60	0	4.7690	0	34.0360	0	26.941	0	470.212	0	45.9	4	14.7	4	-1E+10	1	-1E+10	1	-1E+10	1	-1E+10	1	-1E+10	1	-1E+10	1
4901784	46	C	10/07/2016	10:44	-132.308	44.917	0	477.20	0	4.7670	0	34.0370	0	26.942	0	472.785	0	45.4	4	14.6	4	-1E+10	1	-1E+10	1	-1E+10	1	-1E+10	1	-1E+10	1	-1E+10	1
4901784	46	C	10/07/2016	10:44	-132.308	44.917	0	479.80	0	4.7650	0	34.0380	0	26.943	0	475.358	0	44.7	4	14.4	4	-1E+10	1	-1E+10	1	-1E+10	1	-1E+10	1	-1E+10	1	-1E+10	1
4901784	46	C	10/07/2016	10:44	-132.308	44.917	0	482.50	0	4.7640	0	34.0400	0	26.945	0	478.030	0	43.9	4	14.1	4	-1E+10	1	-1E+10	1	-1E+10	1	-1E+10	1	-1E+10	1	-1E+10	1
4901784	46	C	10/07/2016	10:44	-132.308	44.917	0	485.10	0	4.7550	0	34.0440	0	26.949	0	480.602	0	43.1	4	13.8	4	-1E+10	1	-1E+10	1	-1E+10	1	-1E+10	1	-1E+10	1	-1E+10	1
4901784	46	C	10/07/2016	10:44	-132.308	44.917	0	487.80	0	4.7440	0	34.0460	0	26.952	0	483.274	0	42.4	4	13.6	4	-1E+10	1	-1E+10	1	-1E+10	1	-1E+10	1	-1E+10	1	-1E+10	1
4901784	46	C	10/07/2016	10:44	-132.308	44.917	0	490.60	0	4.7310	0	34.0480	0	26.955	0	486.045	0	41.8	4	13.4	4	-1E+10	1	-1E+10	1	-1E+10	1	-1E+10	1	-1E+10	1	-1E+10	1
4901784	46	C	10/07/2016	10:44	-132.308	44.917	0	492.40	0	4.7100	0	34.0510	0	26.960	0	487.826	0	41.4	4	13.3	4	-1E+10	1	-1E+10	1	-1E+10	1	-1E+10	1	-1E+10	1	-1E+10	1
4901784	46	C	10/07/2016	10:44	-132.308	44.917	0	495.10	0	4.7050	0	34.0530	0	26.962	0	490.498	0	40.8	4	13.1	4	-1E+10	1	-1E+10	1	-1E+10	1	-1E+10	1	-1E+10	1	-1E+10	1
4901784	46	C	10/07/2016	10:44	-132.308	44.917	0	497.80	0	4.6890	0	34.0550	0	26.965	0	493.170	0	40.2	4	12.9	4	-1E+10	1	-1E+10	1	-1E+10	1	-1E+10	1	-1E+10	1	-1E+10	1
4901784	46	C	10/07/2016	10:44	-132.308	44.917	0	499.70	0	4.6840	0	34.0570	0	26.967	0	495.050	0	39.7	4	12.7	4	-1E+10	1	-1E+10	1	-1E+10	1	-1E+10	1	-1E+10	1	-1E+10	1
4901784	46	C	10/07/2016	10:44	-132.308	44.917	0	505.10	0	4.6630	0	34.0610	0	26.973	0	500.393	0	38.3	4	12.3	4	-1E+10	1	-1E+10	1	-1E+10	1	-1E+10	1	-1E+10	1	-1E+10	1
4901784	46	C	10/07/2016	10:44	-132.308	44.917	0	510.40	0	4.6820	0	34.0690	0	26.977	0	505.637	0	36.4	4	11.7	4	-1E+10	1	-1E+10	1	-1E+10	1	-1E+10	1	-1E+10	1	-1E+10	1
4901784	46	C	10/07/2016	10:44	-132.308	44.917	0	514.60	0	4.6400	0	34.0730	0	26.985	0	509.793	0	35.2	4	11.3	4	-1E+10	1	-1E+10	1	-1E+10	1	-1E+10	1	-1E+10	1	-1E+10	1
4901784	46	C	10/07/2016	10:44	-132.308	44.917	0	520.00	0	4.6370	0	34.0840	0	26.994	0	515.136	0	33.6	4	10.8	4	-1E+10	1	-1E+10	1	-1E+10	1	-1E+10	1	-1E+10	1	-1E+10	1
4901784	46	C	10/07/2016	10:44	-132.308	44.917	0	525.60	0	4.6020	0	34.0900	0	27.003	0	520.676	0	32.8	4	10.5	4	-1E+10	1	-1E+10	1	-1E+10	1	-1E+10	1	-1E+10	1	-1E+10	1
4901784	46	C	10/07/2016	10:44	-132.308	44.917	0	530.40	0	4.5720	0	34.0900	0	27.006	0	525.425	0	32.1	4	10.3	4	-1E+10	1	-1E+10	1	-1E+10	1	-1E+10	1	-1E+10	1	-1E+10	1
4901784	46	C	10/07/2016	10:44	-132.308	44.917	0	535.20	0	4.5510	0	34.0950	0	27.012	0	530.174	0	31.2	4	10.0	4	-1E+10	1	-1E+10	1	-1E+10	1	-1E+10	1	-1E+10	1	-1E+10	1
4901784	46	C	10/07/2016	10:44	-132.308	44.917	0	540.10	0	4.5300	0	34.1000	0	27.019	0	535.022	0	30.4	4	9.7	4	-1E+10	1	-1E+10	1	-1E+10	1	-1E+10	1	-1E+10	1	-1E+10	1
4901784	46	C	10/07/2016	10:44	-132.308	44.917	0	545.00	0	4.5260	0	34.1060	0	27.024	0	539.869	0	29.4	4	9.4	4	-1E+10	1	-1E+10	1	-1E+10	1	-1E+10	1	-1E+10	1	-1E+10	1
4901784	46	C	10/07/2016	10:44	-132.308	44.917	0	550.00	0	4.4950	0	34.1100	0	27.031	0	544.816	0	28.9	4	9.2	4	-1E+10	1	-1E+10	1	-1E+10	1	-1E+10	1	-1E+10	1	-1E+10	1
4901784	46	C	10/07/2016	10:44	-132.308	44.917	0	555.00	0	4.4810	0	34.1110	0	27.033	0	549.762	0	28.3	4	9.0	4	-1E+10	1	-1E+10	1	-1E+10	1	-1E+10	1	-1E+10	1	-1E+10	1
4901784	46	C	10/07/2016	10:44	-132.308	44.917	0	560.00	0	4.4540	0	34.1160	0	27.040	0	554.708	0	27.2	4	8.7	4	-1E+10	1	-1E+10	1	-1E+10	1	-1E+10	1	-1E+10	1	-1E+10	1
4901784	46	C	10/07/2016	10:44	-132.308	44.917	0	565.00	0	4.4540	0	34.1250	0	27.047	0	559.654	0	26.1	4	8.3	4	-1E+10	1	-1E+10	1	-1E+10	1	-1E+10	1	-1E+10	1	-1E+10	1
4901784	46	C	10/07/2016	10:44	-132.308	44.917	0	570.10	0	4.4340	0	34.1280	0	27.052	0	564.699	0	25.5	4	8.1	4	-1E+10	1	-1E+10	1	-1E+10	1	-1E+10	1	-1E+10	1	-1E+10	1
4901784	46	C	10/07/2016	10:44	-132.308	44.917	0	575.30	0	4.4100	0	34.1330	0	27.058	0	569.843	0	24.8	4	7.9	4	-1E+10	1	-1E+10	1	-1E+10	1	-1E+10	1	-1E+10	1	-1E+10	1
4901784	46	C	10/07/2016	10:44	-132.308	44.917	0	580.50	0	4.3950	0	34.1380	0	27.064	0	574.986	0	24.3	4	7.7	4	-1E+10	1	-1E+10	1	-1E+10	1	-1E+10	1	-1E+10	1	-1E+10	1
4901784	46	C	10/07/2016	10:44	-132.308	44.917	0	585.70	0	4.3810	0	34.1410	0	27.068	0	580.129	0	24.0	4	7.7	4	-1E+10	1	-1E+10	1	-1E+10	1	-1E+10	1	-1E+10	1	-1E+10	1
4901784	46	C	10/07/2016	10:44	-132.308	44.917	0	590.00	0	4.3670	0	34.1420	0	27.070	0	584.382	0	23.8	4	7.6	4	-1E+10	1	-1E+10	1	-1E+10	1	-1E+10	1	-1E+10	1	-1E+10	1
4901784	46	C	10/07/2016	10:44	-132.308	44.917	0	594.40	0	4.3370	0	34.1430	0	27.074	0	588.734	0	23.6	4	7.5	4	-1E+10	1	-1E+10	1	-1E+10	1	-1E+10	1	-1E+10	1	-1E+10	1
4901784	46	C	10/07/2016	10:44	-132.308	44.917	0	599.70	0	4.3130	0	34.1450	0	27.078	0	593.976	0	22.9	4	7.3	4	-1E+10	1	-1E+10	1	-1E+10	1	-1E+10	1	-1E+10	1	-1E+10	1
4901784	46	C	10/07/2016	10:44	-132.308	44.917	0	604.90	0	4.3080	0	34.1520	0	27.084	0	599.119	0	22.2	4	7.1	4	-1E+10	1	-1E+10	1	-1E+10	1	-1E+10	1	-1E+10	1	-1E+10	1
4901784	46	C	10/07/2016	10:44	-132.308	44.917	0	610.10	0	4.2980	0	34.1560	0	27.089	0	604.262	0	21.8	4	6.9	4	-1E+10	1	-1E+10	1	-1E+10	1	-1E+10	1	-1E+10	1	-1E+10	1
4901784	46	C	10/07/2016	10:44	-132.308	44.917	0	615.50	0	4.2810	0	34.1580	0	27.092	0	609.602	0	21.4	4	6.8	4	-1E+10	1	-1E+10	1	-1E+10	1	-1E+10	1	-1E+10	1	-1E+10	1
4901784	46	C	10/07/2016	10:44	-132.308	44.917	0	620.00	0	4.2580	0	34.1610	0	27.097	0	614.053	0	21.1	4	6.7	4	-1E+10	1	-1E+10	1	-1E+10	1	-1E+10	1	-1E+10	1	-1E+10	1
4901784	46	C	10/07/2016	10:44	-132.308	44.917	0	624.40	0	4.2410	0	34.1630	0	27.100	0	618.404	0	20.8	4	6.6	4	-1E+10	1	-1E+10	1	-1E+10	1	-1E+10	1	-1E+10	1	-1E+10	1
4901784	46	C	10/07/2016	10:44	-132.308	44.917	0	629.80	0	4.2310	0	34.1680	0	27.105	0	623.744	0	20.2	4	6.4	4	-1E+10	1	-1E+10	1	-1E+10	1	-1E+10	1	-1E+10	1	-1E+10	1
4901784	46	C	10/07/2016	10:44	-132.308	44.917	0	635.20	0	4.2120	0	34.1730	0	27.111	0	629.084	0	19.7	4	6.3	4	-1E+10	1	-1E+10	1	-1E+10	1	-1E+10	1	-1E+10	1	-1E+10	1
4901784	46	C	10/07/2016	10:44	-132.308	44.917	0	640.60	0	4.1990	0	34.1770	0	27.116	0	634.424	0	19.3	4	6.1	4	-1E+10	1	-1E+10	1	-1E+10	1	-1E+10	1	-1E+10	1	-1E+10	1
4901784	46	C	10/07/2016	10:44	-132.308	44.917	0	645.10	0	4.1920	0	34.1800	0	27.119	0	638.873	0	18.9	4	6.0	4	-1E+10	1	-1E+10	1	-1E+10	1	-1E+10	1	-1E+10	1	-1E+10	1
4901784	46	C	10/07/2016	10:44	-132.308	44.917	0	649.50	0	4.1810	0	34.1840	0	27.123	0	643.224	0	18.6	4	5.9	4	-1E+10	1	-1E+10	1	-1E+10	1	-1E+10	1	-1E+10	1	-1E+10	1
4901784	46	C	10/07/2016	10:44	-132.308	44.917	0	654.90	0	4.1710	0	34.1870	0	27.127	0	648.564	0	18.3	4	5.8	4	-1E+10	1	-1E+10	1	-1E+10	1	-1E+10	1	-1E+10	1	-1E+10	1
4901784	46	C	10/07/2016	10:44	-132.308	44.917	0	660.30	0	4.1610	0	34.1910	0	27.131	0	653.903	0	17.8	4	5.7	4	-1E+10	1	-1E+10	1	-1E+10	1	-1E+10	1	-1E+10	1	-1E+10	1
4901784	46	C	10/07/2016	10:44	-132.308	44.917	0	664.90	0	4.1540	0	34.1960	0	27.136	0	658.451	0	17.4	4	5.5	4	-1E+10	1	-1E+10	1	-1E+10	1	-1E+10	1	-1E+10	1	-1E+10	1
4901784	46	C	10/07/2016	10:44	-132.308	44.917	0	669.50	0	4.1550	0	34.1990	0	27.138	0	662.999	0	17.0	4	5.4	4	-1E+10	1	-1E+10	1	-1E+10	1	-1E+10	1	-1E+10	1	-1E+10	1
4901784	46	C	10/07/2016	10:44	-132.308	44.917	0	674.80	0	4.1390	0	34.2040	0	27.144	0	668.239	0	16.6	4	5.3	4	-1E+10	1	-1E+10	1	-1E+10	1	-1E+10	1	-1E+10	1	-1E+10	1
4901784	46	C	10/07/2016	10:44	-132.308	44.917	0	680.30	0	4.1300	0	34.2080	0	27.148	0	673.677	0	16.3	4	5.2	4	-1E+10	1	-1E+10	1	-1E+10	1	-1E+10	1	-1E+10	1	-1E+10	1
4901784	46	C	10/07/2016	10:44	-132.308	44.917	0	685.70	0	4.1170	0	34.2110	0	27.152	0	679.015	0	16.0	4	5.1	4	-1E+10	1	-1E+10	1	-1E+10	1	-1E+10	1	-1E+10	1	-1E+10	1
4901784	46	C	10/07/2016	10:44	-132.308	44.917	0	690.20	0	4.0990	0	34.2150	0	27.157	0	683.464	0	15.9	4	5.0	4	-1E+10	1	-1E+10	1	-1E+10	1	-1E+10	1	-1E+10	1	-1E+10	1
4901784	46	C	10/07/2016	10:44	-132.308	44.917	0	694.80	0	4.0790	0	34.2180	0	27.161	0	688.012	0	15.7	4	5.0	4	-1E+10	1	-1E+10	1	-1E+10	1	-1E+10	1	-1E+10	1	-1E+10	1
4901784	46	C	10/07/2016	10:44	-132.308	44.917	0	700.30	0	4.0550	0	34.2230	0	27.168	0	693.449	0	15.6	4	4.9	4	-1E+10	1	-1E+10	1	-1E+10	1	-1E+10	1	-1E+10	1	-1E+10	1
4901784	46	C	10/07/2016	10:44	-132.308	44.917	0	705.70	0	4.0240	0	34.2270	0	27.174	0	698.787	0	15.6	4	4.9	4	-1E+10	1	-1E+10	1	-1E+10	1	-1E+10	1	-1E+10	1	-1E+10	1
4901784	46	C	10/07/2016	10:44	-132.308	44.917	0	710.20	0	3.9960	0	34.2280	0	27.178	0	703.235	0	15.4	4	4.9	4	-1E+10	1	-1E+10	1	-1E+10	1	-1E+10	1	-1E+10	1	-1E+10	1
4901784	46	C	10/07/2016	10:44	-132.308	44.917	0	714.80	0	3.9810	0	34.2340	0	27.184	0	707.782	0	15.1	4	4.8	4	-1E+10	1	-1E+10	1	-1E+10	1	-1E+10	1	-1E+10	1	-1E+10	1
4901784	46	C	10/07/2016	10:44	-132.308	44.917	0	720.40	0	3.9710	0	34.2370	0	27.188	0	713.318	0	14.7	4	4.6	4	-1E+10	1	-1E+10	1	-1E+10	1	-1E+10	1	-1E+10	1	-1E+10	1
4901784	46	C	10/07/2016	10:44	-132.308	44.917	0	724.90	0	3.9550	0	34.2440	0	27.195	0	717.766	0	14.3	4	4.5	4	-1E+10	1	-1E+10	1	-1E+10	1	-1E+10	1	-1E+10	1	-1E+10	1
4901784	46	C	10/07/2016	10:44	-132.308	44.917	0	729.50	0	3.9560	0	34.2510	0	27.200	0	722.313	0	13.7	4	4.3	4	-1E+10	1	-1E+10	1	-1E+10	1	-1E+10	1	-1E+10	1	-1E+10	1
4901784	46	C	10/07/2016	10:44	-132.308	44.917	0	735.00	0	3.9510	0	34.2600	0	27.208	0	727.749	0	13.3	4	4.2	4	-1E+10	1	-1E+10	1	-1E+10	1	-1E+10	1	-1E+10	1	-1E+10	1
4901784	46	C	10/07/2016	10:44	-132.308	44.917	0	739.70	0	3.9320	0	34.2640	0	27.213	0	732.394	0	13.2	4	4.1	4	-1E+10	1	-1E+10	1	-1E+10	1	-1E+10	1	-1E+10	1	-1E+10	1
4901784	46	C	10/07/2016	10:44	-132.308	44.917	0	744.30	0	3.9260	0	34.2660	0	27.215	0	736.941	0	13.0	4	4.1	4	-1E+10	1	-1E+10	1	-1E+10	1	-1E+10	1	-1E+10	1	-1E+10	1
4901784	46	C	10/07/2016	10:44	-132.308	44.917	0	749.80	0	3.9260	0	34.2700	0	27.219	0	742.376	0	12.8	4	4.0	4	-1E+10	1	-1E+10	1	-1E+10	1	-1E+10	1	-1E+10	1	-1E+10	1
4901784	46	C	10/07/2016	10:44	-132.308	44.917	0	754.50	0	3.9170	0	34.2730	0	27.222	0	747.021	0	12.8	4	4.0	4	-1E+10	1	-1E+10	1	-1E+10	1	-1E+10	1	-1E+10	1	-1E+10	1
4901784	46	C	10/07/2016	10:44	-132.308	44.917	0	759.30	0	3.8770	0	34.2730	0	27.226	0	751.765	0	13.0	4	4.1	4	-1E+10	1	-1E+10	1	-1E+10	1	-1E+10	1	-1E+10	1	-1E+10	1
4901784	46	C	10/07/2016	10:44	-132.308	44.917	0	765.00	0	3.8510	0	34.2760	0	27.231	0	757.398	0	12.8	4	4.0	4	-1E+10	1	-1E+10	1	-1E+10	1	-1E+10	1	-1E+10	1	-1E+10	1
4901784	46	C	10/07/2016	10:44	-132.308	44.917	0	770.70	0	3.8550	0	34.2830	0	27.236	0	763.031	0	12.4	4	3.9	4	-1E+10	1	-1E+10	1	-1E+10	1	-1E+10	1	-1E+10	1	-1E+10	1
4901784	46	C	10/07/2016	10:44	-132.308	44.917	0	775.60	0	3.8450	0	34.2880	0	27.241	0	767.874	0	12.2	4	3.8	4	-1E+10	1	-1E+10	1	-1E+10	1	-1E+10	1	-1E+10	1	-1E+10	1
4901784	46	C	10/07/2016	10:44	-132.308	44.917	0	780.50	0	3.8370	0	34.2910	0	27.245	0	772.716	0	12.1	4	3.8	4	-1E+10	1	-1E+10	1	-1E+10	1	-1E+10	1	-1E+10	1	-1E+10	1
4901784	46	C	10/07/2016	10:44	-132.308	44.917	0	785.40	0	3.8290	0	34.2940	0	27.248	0	777.558	0	12.0	4	3.8	4	-1E+10	1	-1E+10	1	-1E+10	1	-1E+10	1	-1E+10	1	-1E+10	1
4901784	46	C	10/07/2016	10:44	-132.308	44.917	0	790.40	0	3.8120	0	34.2980	0	27.253	0	782.498	0	11.9	4	3.7	4	-1E+10	1	-1E+10	1	-1E+10	1	-1E+10	1	-1E+10	1	-1E+10	1
4901784	46	C	10/07/2016	10:44	-132.308	44.917	0	795.40	0	3.8040	0	34.3000	0	27.255	0	787.439	0	11.8	4	3.7	4	-1E+10	1	-1E+10	1	-1E+10	1	-1E+10	1	-1E+10	1	-1E+10	1
4901784	46	C	10/07/2016	10:44	-132.308	44.917	0	800.30	0	3.7950	0	34.3020	0	27.258	0	792.281	0	11.8	4	3.7	4	-1E+10	1	-1E+10	1	-1E+10	1	-1E+10	1	-1E+10	1	-1E+10	1
4901784	46	C	10/07/2016	10:44	-132.308	44.917	0	805.40	0	3.7760	0	34.3070	0	27.264	0	797.320	0	11.7	4	3.7	4	-1E+10	1	-1E+10	1	-1E+10	1	-1E+10	1	-1E+10	1	-1E+10	1
4901784	46	C	10/07/2016	10:44	-132.308	44.917	0	810.50	0	3.7620	0	34.3110	0	27.268	0	802.359	0	11.6	4	3.7	4	-1E+10	1	-1E+10	1	-1E+10	1	-1E+10	1	-1E+10	1	-1E+10	1
4901784	46	C	10/07/2016	10:44	-132.308	44.917	0	815.60	0	3.7440	0	34.3150	0	27.273	0	807.398	0	11.6	4	3.6	4	-1E+10	1	-1E+10	1	-1E+10	1	-1E+10	1	-1E+10	1	-1E+10	1
4901784	46	C	10/07/2016	10:44	-132.308	44.917	0	820.00	0	3.7300	0	34.3190	0	27.278	0	811.745	0	11.6	4	3.6	4	-1E+10	1	-1E+10	1	-1E+10	1	-1E+10	1	-1E+10	1	-1E+10	1
4901784	46	C	10/07/2016	10:44	-132.308	44.917	0	824.30	0	3.7120	0	34.3210	0	27.281	0	815.993	0	11.5	4	3.6	4	-1E+10	1	-1E+10	1	-1E+10	1	-1E+10	1	-1E+10	1	-1E+10	1
4901784	46	C	10/07/2016	10:44	-132.308	44.917	0	829.60	0	3.6940	0	34.3240	0	27.285	0	821.229	0	11.5	4	3.6	4	-1E+10	1	-1E+10	1	-1E+10	1	-1E+10	1	-1E+10	1	-1E+10	1
4901784	46	C	10/07/2016	10:44	-132.308	44.917	0	834.90	0	3.6840	0	34.3270	0	27.289	0	826.466	0	11.4	4	3.6	4	-1E+10	1	-1E+10	1	-1E+10	1	-1E+10	1	-1E+10	1	-1E+10	1
4901784	46	C	10/07/2016	10:44	-132.308	44.917	0	840.30	0	3.6740	0	34.3300	0	27.292	0	831.800	0	11.4	4	3.6	4	-1E+10	1	-1E+10	1	-1E+10	1	-1E+10	1	-1E+10	1	-1E+10	1
4901784	46	C	10/07/2016	10:44	-132.308	44.917	0	845.60	0	3.6660	0	34.3320	0	27.295	0	837.036	0	11.4	4	3.6	4	-1E+10	1	-1E+10	1	-1E+10	1	-1E+10	1	-1E+10	1	-1E+10	1
4901784	46	C	10/07/2016	10:44	-132.308	44.917	0	850.00	0	3.6570	0	34.3350	0	27.298	0	841.383	0	11.4	4	3.6	4	-1E+10	1	-1E+10	1	-1E+10	1	-1E+10	1	-1E+10	1	-1E+10	1
4901784	46	C	10/07/2016	10:44	-132.308	44.917	0	854.50	0	3.6490	0	34.3370	0	27.300	0	845.828	0	11.4	4	3.6	4	-1E+10	1	-1E+10	1	-1E+10	1	-1E+10	1	-1E+10	1	-1E+10	1
4901784	46	C	10/07/2016	10:44	-132.308	44.917	0	860.00	0	3.6420	0	34.3390	0	27.303	0	851.261	0	11.4	4	3.6	4	-1E+10	1	-1E+10	1	-1E+10	1	-1E+10	1	-1E+10	1	-1E+10	1
4901784	46	C	10/07/2016	10:44	-132.308	44.917	0	865.50	0	3.6360	0	34.3410	0	27.305	0	856.694	0	11.4	4	3.6	4	-1E+10	1	-1E+10	1	-1E+10	1	-1E+10	1	-1E+10	1	-1E+10	1
4901784	46	C	10/07/2016	10:44	-132.308	44.917	0	870.10	0	3.6090	0	34.3460	0	27.311	0	861.237	0	11.4	4	3.6	4	-1E+10	1	-1E+10	1	-1E+10	1	-1E+10	1	-1E+10	1	-1E+10	1
4901784	46	C	10/07/2016	10:44	-132.308	44.917	0	874.80	0	3.6020	0	34.3470	0	27.313	0	865.880	0	11.5	4	3.6	4	-1E+10	1	-1E+10	1	-1E+10	1	-1E+10	1	-1E+10	1	-1E+10	1
4901784	46	C	10/07/2016	10:44	-132.308	44.917	0	880.40	0	3.5920	0	34.3490	0	27.316	0	871.411	0	11.5	4	3.6	4	-1E+10	1	-1E+10	1	-1E+10	1	-1E+10	1	-1E+10	1	-1E+10	1
4901784	46	C	10/07/2016	10:44	-132.308	44.917	0	885.00	0	3.5790	0	34.3540	0	27.321	0	875.955	0	11.5	4	3.6	4	-1E+10	1	-1E+10	1	-1E+10	1	-1E+10	1	-1E+10	1	-1E+10	1
4901784	46	C	10/07/2016	10:44	-132.308	44.917	0	889.70	0	3.5720	0	34.3570	0	27.324	0	880.597	0	11.5	4	3.6	4	-1E+10	1	-1E+10	1	-1E+10	1	-1E+10	1	-1E+10	1	-1E+10	1
4901784	46	C	10/07/2016	10:44	-132.308	44.917	0	895.40	0	3.5620	0	34.3580	0	27.326	0	886.226	0	11.5	4	3.6	4	-1E+10	1	-1E+10	1	-1E+10	1	-1E+10	1	-1E+10	1	-1E+10	1
4901784	46	C	10/07/2016	10:44	-132.308	44.917	0	900.30	0	3.5480	0	34.3610	0	27.330	0	891.066	0	11.6	4	3.6	4	-1E+10	1	-1E+10	1	-1E+10	1	-1E+10	1	-1E+10	1	-1E+10	1
4901784	46	C	10/07/2016	10:44	-132.308	44.917	0	904.90	0	3.5380	0	34.3640	0	27.333	0	895.609	0	11.6	4	3.6	4	-1E+10	1	-1E+10	1	-1E+10	1	-1E+10	1	-1E+10	1	-1E+10	1
4901784	46	C	10/07/2016	10:44	-132.308	44.917	0	909.90	0	3.5290	0	34.3660	0	27.335	0	900.546	0	11.6	4	3.6	4	-1E+10	1	-1E+10	1	-1E+10	1	-1E+10	1	-1E+10	1	-1E+10	1
4901784	46	C	10/07/2016	10:44	-132.308	44.917	0	914.80	0	3.5260	0	34.3670	0	27.337	0	905.385	0	11.7	4	3.7	4	-1E+10	1	-1E+10	1	-1E+10	1	-1E+10	1	-1E+10	1	-1E+10	1
4901784	46	C	10/07/2016	10:44	-132.308	44.917	0	919.80	0	3.5160	0	34.3710	0	27.341	0	910.323	0	11.8	4	3.7	4	-1E+10	1	-1E+10	1	-1E+10	1	-1E+10	1	-1E+10	1	-1E+10	1
4901784	46	C	10/07/2016	10:44	-132.308	44.917	0	924.80	0	3.5120	0	34.3730	0	27.343	0	915.261	0	11.8	4	3.7	4	-1E+10	1	-1E+10	1	-1E+10	1	-1E+10	1	-1E+10	1	-1E+10	1
4901784	46	C	10/07/2016	10:44	-132.308	44.917	0	929.80	0	3.5000	0	34.3750	0	27.346	0	920.198	0	11.9	4	3.7	4	-1E+10	1	-1E+10	1	-1E+10	1	-1E+10	1	-1E+10	1	-1E+10	1
4901784	46	C	10/07/2016	10:44	-132.308	44.917	0	934.90	0	3.4880	0	34.3790	0	27.350	0	925.234	0	12.0	4	3.7	4	-1E+10	1	-1E+10	1	-1E+10	1	-1E+10	1	-1E+10	1	-1E+10	1
4901784	46	C	10/07/2016	10:44	-132.308	44.917	0	940.00	0	3.4700	0	34.3820	0	27.354	0	930.270	0	12.0	4	3.8	4	-1E+10	1	-1E+10	1	-1E+10	1	-1E+10	1	-1E+10	1	-1E+10	1
4901784	46	C	10/07/2016	10:44	-132.308	44.917	0	945.10	0	3.4600	0	34.3830	0	27.356	0	935.306	0	12.1	4	3.8	4	-1E+10	1	-1E+10	1	-1E+10	1	-1E+10	1	-1E+10	1	-1E+10	1
4901784	46	C	10/07/2016	10:44	-132.308	44.917	0	950.20	0	3.4490	0	34.3880	0	27.361	0	940.342	0	12.3	4	3.8	4	-1E+10	1	-1E+10	1	-1E+10	1	-1E+10	1	-1E+10	1	-1E+10	1
4901784	46	C	10/07/2016	10:44	-132.308	44.917	0	955.30	0	3.4430	0	34.3900	0	27.363	0	945.377	0	12.3	4	3.8	4	-1E+10	1	-1E+10	1	-1E+10	1	-1E+10	1	-1E+10	1	-1E+10	1
4901784	46	C	10/07/2016	10:44	-132.308	44.917	0	960.50	0	3.4400	0	34.3910	0	27.364	0	950.511	0	12.3	4	3.9	4	-1E+10	1	-1E+10	1	-1E+10	1	-1E+10	1	-1E+10	1	-1E+10	1
4901784	46	C	10/07/2016	10:44	-132.308	44.917	0	965.70	0	3.4300	0	34.3940	0	27.368	0	955.646	0	12.4	4	3.9	4	-1E+10	1	-1E+10	1	-1E+10	1	-1E+10	1	-1E+10	1	-1E+10	1
4901784	46	C	10/07/2016	10:44	-132.308	44.917	0	970.00	0	3.4220	0	34.3960	0	27.370	0	959.891	0	12.4	4	3.9	4	-1E+10	1	-1E+10	1	-1E+10	1	-1E+10	1	-1E+10	1	-1E+10	1
4901784	46	C	10/07/2016	10:44	-132.308	44.917	0	974.40	0	3.4130	0	34.3970	0	27.372	0	964.235	0	12.5	4	3.9	4	-1E+10	1	-1E+10	1	-1E+10	1	-1E+10	1	-1E+10	1	-1E+10	1
4901784	46	C	10/07/2016	10:44	-132.308	44.917	0	979.70	0	3.4050	0	34.3990	0	27.374	0	969.467	0	12.6	4	3.9	4	-1E+10	1	-1E+10	1	-1E+10	1	-1E+10	1	-1E+10	1	-1E+10	1
4901784	46	C	10/07/2016	10:44	-132.308	44.917	0	985.00	0	3.3980	0	34.4010	0	27.376	0	974.700	0	12.7	4	3.9	4	-1E+10	1	-1E+10	1	-1E+10	1	-1E+10	1	-1E+10	1	-1E+10	1
4901784	46	C	10/07/2016	10:44	-132.308	44.917	0	990.30	0	3.3880	0	34.4040	0	27.380	0	979.932	0	12.7	4	4.0	4	-1E+10	1	-1E+10	1	-1E+10	1	-1E+10	1	-1E+10	1	-1E+10	1
4901784	46	C	10/07/2016	10:44	-132.308	44.917	0	995.70	0	3.3790	0	34.4070	0	27.383	0	985.263	0	12.9	4	4.0	4	-1E+10	1	-1E+10	1	-1E+10	1	-1E+10	1	-1E+10	1	-1E+10	1
4901784	46	C	10/07/2016	10:44	-132.308	44.917	0	1000.10	0	3.3740	0	34.4100	0	27.386	0	989.606	0	13.0	4	4.0	4	-1E+10	1	-1E+10	1	-1E+10	1	-1E+10	1	-1E+10	1	-1E+10	1
4901784	46	C	10/07/2016	10:44	-132.308	44.917	0	1004.70	0	3.3670	0	34.4110	0	27.387	0	994.147	0	13.0	4	4.1	4	-1E+10	1	-1E+10	1	-1E+10	1	-1E+10	1	-1E+10	1	-1E+10	1
4901784	46	C	10/07/2016	10:44	-132.308	44.917	0	1010.20	0	3.3610	0	34.4130	0	27.390	0	999.576	0	13.2	4	4.1	4	-1E+10	1	-1E+10	1	-1E+10	1	-1E+10	1	-1E+10	1	-1E+10	1
4901784	46	C	10/07/2016	10:44	-132.308	44.917	0	1015.60	0	3.3540	0	34.4160	0	27.393	0	1004.906	0	13.4	4	4.2	4	-1E+10	1	-1E+10	1	-1E+10	1	-1E+10	1	-1E+10	1	-1E+10	1
4901784	46	C	10/07/2016	10:44	-132.308	44.917	0	1020.20	0	3.3510	0	34.4180	0	27.395	0	1009.447	0	13.6	4	4.2	4	-1E+10	1	-1E+10	1	-1E+10	1	-1E+10	1	-1E+10	1	-1E+10	1
4901784	46	C	10/07/2016	10:44	-132.308	44.917	0	1024.70	0	3.3500	0	34.4190	0	27.396	0	1013.889	0	13.8	4	4.3	4	-1E+10	1	-1E+10	1	-1E+10	1	-1E+10	1	-1E+10	1	-1E+10	1
4901784	46	C	10/07/2016	10:44	-132.308	44.917	0	1030.10	0	3.3440	0	34.4230	0	27.399	0	1019.218	0	14.0	4	4.4	4	-1E+10	1	-1E+10	1	-1E+10	1	-1E+10	1	-1E+10	1	-1E+10	1
4901784	46	C	10/07/2016	10:44	-132.308	44.917	0	1035.60	0	3.3380	0	34.4260	0	27.402	0	1024.647	0	14.2	4	4.4	4	-1E+10	1	-1E+10	1	-1E+10	1	-1E+10	1	-1E+10	1	-1E+10	1
4901784	46	C	10/07/2016	10:44	-132.308	44.917	0	1040.20	0	3.3340	0	34.4270	0	27.404	0	1029.187	0	14.3	4	4.5	4	-1E+10	1	-1E+10	1	-1E+10	1	-1E+10	1	-1E+10	1	-1E+10	1
4901784	46	C	10/07/2016	10:44	-132.308	44.917	0	1045.40	0	3.3280	0	34.4280	0	27.405	0	1034.319	0	14.5	4	4.5	4	-1E+10	1	-1E+10	1	-1E+10	1	-1E+10	1	-1E+10	1	-1E+10	1
4901784	46	C	10/07/2016	10:44	-132.308	44.917	0	1050.40	0	3.3220	0	34.4300	0	27.407	0	1039.254	0	14.6	4	4.5	4	-1E+10	1	-1E+10	1	-1E+10	1	-1E+10	1	-1E+10	1	-1E+10	1
4901784	46	C	10/07/2016	10:44	-132.308	44.917	0	1055.10	0	3.3180	0	34.4310	0	27.408	0	1043.892	0	14.7	4	4.6	4	-1E+10	1	-1E+10	1	-1E+10	1	-1E+10	1	-1E+10	1	-1E+10	1
4901784	46	C	10/07/2016	10:44	-132.308	44.917	0	1059.90	0	3.3120	0	34.4320	0	27.410	0	1048.629	0	14.8	4	4.6	4	-1E+10	1	-1E+10	1	-1E+10	1	-1E+10	1	-1E+10	1	-1E+10	1
4901784	46	C	10/07/2016	10:44	-132.308	44.917	0	1064.80	0	3.3090	0	34.4330	0	27.411	0	1053.465	0	15.0	4	4.7	4	-1E+10	1	-1E+10	1	-1E+10	1	-1E+10	1	-1E+10	1	-1E+10	1
4901784	46	C	10/07/2016	10:44	-132.308	44.917	0	1069.70	0	3.2980	0	34.4360	0	27.414	0	1058.300	0	15.2	4	4.7	4	-1E+10	1	-1E+10	1	-1E+10	1	-1E+10	1	-1E+10	1	-1E+10	1
4901784	46	C	10/07/2016	10:44	-132.308	44.917	0	1074.70	0	3.2870	0	34.4370	0	27.416	0	1063.234	0	15.4	4	4.8	4	-1E+10	1	-1E+10	1	-1E+10	1	-1E+10	1	-1E+10	1	-1E+10	1
4901784	46	C	10/07/2016	10:44	-132.308	44.917	0	1079.60	0	3.2810	0	34.4390	0	27.418	0	1068.070	0	15.6	4	4.9	4	-1E+10	1	-1E+10	1	-1E+10	1	-1E+10	1	-1E+10	1	-1E+10	1
4901784	46	C	10/07/2016	10:44	-132.308	44.917	0	1084.50	0	3.2780	0	34.4420	0	27.421	0	1072.905	0	16.0	4	5.0	4	-1E+10	1	-1E+10	1	-1E+10	1	-1E+10	1	-1E+10	1	-1E+10	1
4901784	46	C	10/07/2016	10:44	-132.308	44.917	0	1089.50	0	3.2780	0	34.4440	0	27.423	0	1077.838	0	16.2	4	5.0	4	-1E+10	1	-1E+10	1	-1E+10	1	-1E+10	1	-1E+10	1	-1E+10	1
4901784	46	C	10/07/2016	10:44	-132.308	44.917	0	1094.60	0	3.2740	0	34.4450	0	27.424	0	1082.871	0	16.4	4	5.1	4	-1E+10	1	-1E+10	1	-1E+10	1	-1E+10	1	-1E+10	1	-1E+10	1
4901784	46	C	10/07/2016	10:44	-132.308	44.917	0	1100.10	0	3.2740	0	34.4480	0	27.426	0	1088.298	0	16.6	4	5.2	4	-1E+10	1	-1E+10	1	-1E+10	1	-1E+10	1	-1E+10	1	-1E+10	1
4901784	46	C	10/07/2016	10:44	-132.308	44.917	0	1105.60	0	3.2660	0	34.4480	0	27.427	0	1093.724	0	16.6	4	5.2	4	-1E+10	1	-1E+10	1	-1E+10	1	-1E+10	1	-1E+10	1	-1E+10	1
4901784	46	C	10/07/2016	10:44	-132.308	44.917	0	1110.20	0	3.2570	0	34.4490	0	27.429	0	1098.263	0	16.7	4	5.2	4	-1E+10	1	-1E+10	1	-1E+10	1	-1E+10	1	-1E+10	1	-1E+10	1
4901784	46	C	10/07/2016	10:44	-132.308	44.917	0	1114.90	0	3.2450	0	34.4510	0	27.432	0	1102.900	0	16.8	4	5.2	4	-1E+10	1	-1E+10	1	-1E+10	1	-1E+10	1	-1E+10	1	-1E+10	1
4901784	46	C	10/07/2016	10:44	-132.308	44.917	0	1120.50	0	3.2350	0	34.4520	0	27.433	0	1108.425	0	17.0	4	5.3	4	-1E+10	1	-1E+10	1	-1E+10	1	-1E+10	1	-1E+10	1	-1E+10	1
4901784	46	C	10/07/2016	10:44	-132.308	44.917	0	1125.20	0	3.2260	0	34.4540	0	27.436	0	1113.062	0	17.0	4	5.3	4	-1E+10	1	-1E+10	1	-1E+10	1	-1E+10	1	-1E+10	1	-1E+10	1
4901784	46	C	10/07/2016	10:44	-132.308	44.917	0	1130.00	0	3.2150	0	34.4540	0	27.437	0	1117.797	0	17.1	4	5.3	4	-1E+10	1	-1E+10	1	-1E+10	1	-1E+10	1	-1E+10	1	-1E+10	1
4901784	46	C	10/07/2016	10:44	-132.308	44.917	0	1134.70	0	3.2000	0	34.4560	0	27.440	0	1122.434	0	17.2	4	5.3	4	-1E+10	1	-1E+10	1	-1E+10	1	-1E+10	1	-1E+10	1	-1E+10	1
4901784	46	C	10/07/2016	10:44	-132.308	44.917	0	1139.50	0	3.1890	0	34.4570	0	27.442	0	1127.169	0	17.3	4	5.4	4	-1E+10	1	-1E+10	1	-1E+10	1	-1E+10	1	-1E+10	1	-1E+10	1
4901784	46	C	10/07/2016	10:44	-132.308	44.917	0	1145.30	0	3.1770	0	34.4600	0	27.445	0	1132.891	0	17.7	4	5.5	4	-1E+10	1	-1E+10	1	-1E+10	1	-1E+10	1	-1E+10	1	-1E+10	1
4901784	46	C	10/07/2016	10:44	-132.308	44.917	0	1150.10	0	3.1790	0	34.4620	0	27.447	0	1137.626	0	18.0	4	5.6	4	-1E+10	1	-1E+10	1	-1E+10	1	-1E+10	1	-1E+10	1	-1E+10	1
4901784	46	C	10/07/2016	10:44	-132.308	44.917	0	1154.90	0	3.1830	0	34.4630	0	27.447	0	1142.361	0	18.2	4	5.6	4	-1E+10	1	-1E+10	1	-1E+10	1	-1E+10	1	-1E+10	1	-1E+10	1
4901784	46	C	10/07/2016	10:44	-132.308	44.917	0	1159.80	0	3.1800	0	34.4640	0	27.448	0	1147.194	0	18.2	4	5.7	4	-1E+10	1	-1E+10	1	-1E+10	1	-1E+10	1	-1E+10	1	-1E+10	1
4901784	46	C	10/07/2016	10:44	-132.308	44.917	0	1164.80	0	3.1710	0	34.4650	0	27.450	0	1152.126	0	18.2	4	5.7	4	-1E+10	1	-1E+10	1	-1E+10	1	-1E+10	1	-1E+10	1	-1E+10	1
4901784	46	C	10/07/2016	10:44	-132.308	44.917	0	1169.80	0	3.1630	0	34.4660	0	27.451	0	1157.058	0	18.3	4	5.7	4	-1E+10	1	-1E+10	1	-1E+10	1	-1E+10	1	-1E+10	1	-1E+10	1
4901784	46	C	10/07/2016	10:44	-132.308	44.917	0	1174.70	0	3.1570	0	34.4660	0	27.452	0	1161.891	0	18.4	4	5.7	4	-1E+10	1	-1E+10	1	-1E+10	1	-1E+10	1	-1E+10	1	-1E+10	1
4901784	46	C	10/07/2016	10:44	-132.308	44.917	0	1179.60	0	3.1530	0	34.4670	0	27.453	0	1166.724	0	18.6	4	5.8	4	-1E+10	1	-1E+10	1	-1E+10	1	-1E+10	1	-1E+10	1	-1E+10	1
4901784	46	C	10/07/2016	10:44	-132.308	44.917	0	1184.50	0	3.1540	0	34.4680	0	27.454	0	1171.557	0	18.8	4	5.8	4	-1E+10	1	-1E+10	1	-1E+10	1	-1E+10	1	-1E+10	1	-1E+10	1
4901784	46	C	10/07/2016	10:44	-132.308	44.917	0	1190.50	0	3.1570	0	34.4700	0	27.455	0	1177.474	0	19.1	4	5.9	4	-1E+10	1	-1E+10	1	-1E+10	1	-1E+10	1	-1E+10	1	-1E+10	1
4901784	46	C	10/07/2016	10:44	-132.308	44.917	0	1195.50	0	3.1490	0	34.4730	0	27.459	0	1182.406	0	19.3	4	6.0	4	-1E+10	1	-1E+10	1	-1E+10	1	-1E+10	1	-1E+10	1	-1E+10	1
4901784	46	C	10/07/2016	10:44	-132.308	44.917	0	1199.50	0	3.1430	0	34.4730	0	27.459	0	1186.351	0	19.3	4	6.0	4	-1E+10	1	-1E+10	1	-1E+10	1	-1E+10	1	-1E+10	1	-1E+10	1
4901784	46	C	10/07/2016	10:44	-132.308	44.917	0	1204.60	0	3.1370	0	34.4740	0	27.460	0	1191.380	0	19.5	4	6.0	4	-1E+10	1	-1E+10	1	-1E+10	1	-1E+10	1	-1E+10	1	-1E+10	1
4901784	46	C	10/07/2016	10:44	-132.308	44.917	0	1209.70	0	3.1360	0	34.4750	0	27.461	0	1196.410	0	19.6	4	6.1	4	-1E+10	1	-1E+10	1	-1E+10	1	-1E+10	1	-1E+10	1	-1E+10	1
4901784	46	C	10/07/2016	10:44	-132.308	44.917	0	1214.80	0	3.1340	0	34.4760	0	27.462	0	1201.439	0	19.7	4	6.1	4	-1E+10	1	-1E+10	1	-1E+10	1	-1E+10	1	-1E+10	1	-1E+10	1
4901784	46	C	10/07/2016	10:44	-132.308	44.917	0	1220.00	0	3.1260	0	34.4770	0	27.464	0	1206.567	0	19.8	4	6.1	4	-1E+10	1	-1E+10	1	-1E+10	1	-1E+10	1	-1E+10	1	-1E+10	1
4901784	46	C	10/07/2016	10:44	-132.308	44.917	0	1225.00	0	3.1210	0	34.4770	0	27.464	0	1211.498	0	19.9	4	6.2	4	-1E+10	1	-1E+10	1	-1E+10	1	-1E+10	1	-1E+10	1	-1E+10	1
4901784	46	C	10/07/2016	10:44	-132.308	44.917	0	1230.00	0	3.1180	0	34.4790	0	27.466	0	1216.428	0	20.0	4	6.2	4	-1E+10	1	-1E+10	1	-1E+10	1	-1E+10	1	-1E+10	1	-1E+10	1
4901784	46	C	10/07/2016	10:44	-132.308	44.917	0	1234.60	0	3.1040	0	34.4790	0	27.468	0	1220.964	0	20.1	4	6.2	4	-1E+10	1	-1E+10	1	-1E+10	1	-1E+10	1	-1E+10	1	-1E+10	1
4901784	46	C	10/07/2016	10:44	-132.308	44.917	0	1240.20	0	3.0890	0	34.4810	0	27.471	0	1226.486	0	20.2	4	6.3	4	-1E+10	1	-1E+10	1	-1E+10	1	-1E+10	1	-1E+10	1	-1E+10	1
4901784	46	C	10/07/2016	10:44	-132.308	44.917	0	1244.90	0	3.0790	0	34.4820	0	27.472	0	1231.120	0	20.4	4	6.3	4	-1E+10	1	-1E+10	1	-1E+10	1	-1E+10	1	-1E+10	1	-1E+10	1
4901784	46	C	10/07/2016	10:44	-132.308	44.917	0	1249.50	0	3.0680	0	34.4840	0	27.475	0	1235.656	0	20.6	4	6.4	4	-1E+10	1	-1E+10	1	-1E+10	1	-1E+10	1	-1E+10	1	-1E+10	1
4901784	46	C	10/07/2016	10:44	-132.308	44.917	0	1255.10	0	3.0610	0	34.4850	0	27.477	0	1241.177	0	20.8	4	6.4	4	-1E+10	1	-1E+10	1	-1E+10	1	-1E+10	1	-1E+10	1	-1E+10	1
4901784	46	C	10/07/2016	10:44	-132.308	44.917	0	1259.70	0	3.0510	0	34.4860	0	27.478	0	1245.712	0	20.9	4	6.5	4	-1E+10	1	-1E+10	1	-1E+10	1	-1E+10	1	-1E+10	1	-1E+10	1
4901784	46	C	10/07/2016	10:44	-132.308	44.917	0	1264.30	0	3.0470	0	34.4870	0	27.479	0	1250.248	0	21.1	4	6.5	4	-1E+10	1	-1E+10	1	-1E+10	1	-1E+10	1	-1E+10	1	-1E+10	1
4901784	46	C	10/07/2016	10:44	-132.308	44.917	0	1269.80	0	3.0420	0	34.4880	0	27.481	0	1255.670	0	21.2	4	6.6	4	-1E+10	1	-1E+10	1	-1E+10	1	-1E+10	1	-1E+10	1	-1E+10	1
4901784	46	C	10/07/2016	10:44	-132.308	44.917	0	1275.30	0	3.0280	0	34.4890	0	27.483	0	1261.093	0	21.5	4	6.6	4	-1E+10	1	-1E+10	1	-1E+10	1	-1E+10	1	-1E+10	1	-1E+10	1
4901784	46	C	10/07/2016	10:44	-132.308	44.917	0	1279.80	0	3.0240	0	34.4910	0	27.485	0	1265.529	0	21.7	4	6.7	4	-1E+10	1	-1E+10	1	-1E+10	1	-1E+10	1	-1E+10	1	-1E+10	1
4901784	46	C	10/07/2016	10:44	-132.308	44.917	0	1284.40	0	3.0280	0	34.4930	0	27.486	0	1270.064	0	21.9	4	6.8	4	-1E+10	1	-1E+10	1	-1E+10	1	-1E+10	1	-1E+10	1	-1E+10	1
4901784	46	C	10/07/2016	10:44	-132.308	44.917	0	1290.00	0	3.0190	0	34.4930	0	27.487	0	1275.584	0	21.8	4	6.7	4	-1E+10	1	-1E+10	1	-1E+10	1	-1E+10	1	-1E+10	1	-1E+10	1
4901784	46	C	10/07/2016	10:44	-132.308	44.917	0	1295.60	0	3.0080	0	34.4930	0	27.488	0	1281.105	0	21.8	4	6.7	4	-1E+10	1	-1E+10	1	-1E+10	1	-1E+10	1	-1E+10	1	-1E+10	1
4901784	46	C	10/07/2016	10:44	-132.308	44.917	0	1300.30	0	3.0020	0	34.4940	0	27.489	0	1285.738	0	21.9	4	6.8	4	-1E+10	1	-1E+10	1	-1E+10	1	-1E+10	1	-1E+10	1	-1E+10	1
4901784	46	C	10/07/2016	10:44	-132.308	44.917	0	1304.90	0	2.9940	0	34.4940	0	27.490	0	1290.272	0	22.0	4	6.8	4	-1E+10	1	-1E+10	1	-1E+10	1	-1E+10	1	-1E+10	1	-1E+10	1
4901784	46	C	10/07/2016	10:44	-132.308	44.917	0	1310.50	0	2.9830	0	34.4940	0	27.491	0	1295.792	0	22.0	4	6.8	4	-1E+10	1	-1E+10	1	-1E+10	1	-1E+10	1	-1E+10	1	-1E+10	1
4901784	46	C	10/07/2016	10:44	-132.308	44.917	0	1315.30	0	2.9760	0	34.4960	0	27.493	0	1300.524	0	22.3	4	6.9	4	-1E+10	1	-1E+10	1	-1E+10	1	-1E+10	1	-1E+10	1	-1E+10	1
4901784	46	C	10/07/2016	10:44	-132.308	44.917	0	1319.90	0	2.9650	0	34.4970	0	27.495	0	1305.058	0	22.4	4	6.9	4	-1E+10	1	-1E+10	1	-1E+10	1	-1E+10	1	-1E+10	1	-1E+10	1
4901784	46	C	10/07/2016	10:44	-132.308	44.917	0	1324.80	0	2.9590	0	34.4980	0	27.497	0	1309.887	0	22.7	4	7.0	4	-1E+10	1	-1E+10	1	-1E+10	1	-1E+10	1	-1E+10	1	-1E+10	1
4901784	46	C	10/07/2016	10:44	-132.308	44.917	0	1329.60	0	2.9580	0	34.5000	0	27.498	0	1314.618	0	23.1	4	7.1	4	-1E+10	1	-1E+10	1	-1E+10	1	-1E+10	1	-1E+10	1	-1E+10	1
4901784	46	C	10/07/2016	10:44	-132.308	44.917	0	1334.60	0	2.9470	0	34.5030	0	27.502	0	1319.546	0	23.4	4	7.2	4	-1E+10	1	-1E+10	1	-1E+10	1	-1E+10	1	-1E+10	1	-1E+10	1
4901784	46	C	10/07/2016	10:44	-132.308	44.917	0	1339.70	0	2.9390	0	34.5040	0	27.503	0	1324.573	0	23.6	4	7.3	4	-1E+10	1	-1E+10	1	-1E+10	1	-1E+10	1	-1E+10	1	-1E+10	1
4901784	46	C	10/07/2016	10:44	-132.308	44.917	0	1344.70	0	2.9260	0	34.5040	0	27.504	0	1329.500	0	23.5	4	7.3	4	-1E+10	1	-1E+10	1	-1E+10	1	-1E+10	1	-1E+10	1	-1E+10	1
4901784	46	C	10/07/2016	10:44	-132.308	44.917	0	1349.60	0	2.9150	0	34.5040	0	27.505	0	1334.330	0	23.6	4	7.3	4	-1E+10	1	-1E+10	1	-1E+10	1	-1E+10	1	-1E+10	1	-1E+10	1
4901784	46	C	10/07/2016	10:44	-132.308	44.917	0	1354.60	0	2.9090	0	34.5050	0	27.507	0	1339.257	0	23.8	4	7.3	4	-1E+10	1	-1E+10	1	-1E+10	1	-1E+10	1	-1E+10	1	-1E+10	1
4901784	46	C	10/07/2016	10:44	-132.308	44.917	0	1359.60	0	2.8940	0	34.5070	0	27.510	0	1344.185	0	24.1	4	7.4	4	-1E+10	1	-1E+10	1	-1E+10	1	-1E+10	1	-1E+10	1	-1E+10	1
4901784	46	C	10/07/2016	10:44	-132.308	44.917	0	1364.50	0	2.8860	0	34.5090	0	27.512	0	1349.013	0	24.3	4	7.5	4	-1E+10	1	-1E+10	1	-1E+10	1	-1E+10	1	-1E+10	1	-1E+10	1
4901784	46	C	10/07/2016	10:44	-132.308	44.917	0	1369.50	0	2.8760	0	34.5100	0	27.514	0	1353.941	0	24.3	4	7.5	4	-1E+10	1	-1E+10	1	-1E+10	1	-1E+10	1	-1E+10	1	-1E+10	1
4901784	46	C	10/07/2016	10:44	-132.308	44.917	0	1374.50	0	2.8680	0	34.5080	0	27.513	0	1358.868	0	24.1	4	7.4	4	-1E+10	1	-1E+10	1	-1E+10	1	-1E+10	1	-1E+10	1	-1E+10	1
4901784	46	C	10/07/2016	10:44	-132.308	44.917	0	1379.60	0	2.8500	0	34.5080	0	27.515	0	1363.893	0	24.1	4	7.4	4	-1E+10	1	-1E+10	1	-1E+10	1	-1E+10	1	-1E+10	1	-1E+10	1
4901784	46	C	10/07/2016	10:44	-132.308	44.917	0	1384.70	0	2.8430	0	34.5090	0	27.516	0	1368.919	0	24.4	4	7.5	4	-1E+10	1	-1E+10	1	-1E+10	1	-1E+10	1	-1E+10	1	-1E+10	1
4901784	46	C	10/07/2016	10:44	-132.308	44.917	0	1389.80	0	2.8410	0	34.5110	0	27.518	0	1373.944	0	24.5	4	7.6	4	-1E+10	1	-1E+10	1	-1E+10	1	-1E+10	1	-1E+10	1	-1E+10	1
4901784	46	C	10/07/2016	10:44	-132.308	44.917	0	1395.00	0	2.8290	0	34.5100	0	27.518	0	1379.068	0	24.5	4	7.5	4	-1E+10	1	-1E+10	1	-1E+10	1	-1E+10	1	-1E+10	1	-1E+10	1
4901784	46	C	10/07/2016	10:44	-132.308	44.917	0	1400.20	0	2.8060	0	34.5100	0	27.520	0	1384.191	0	24.4	4	7.5	4	-1E+10	1	-1E+10	1	-1E+10	1	-1E+10	1	-1E+10	1	-1E+10	1
4901784	46	C	10/07/2016	10:44	-132.308	44.917	0	1405.40	0	2.7880	0	34.5100	0	27.522	0	1389.315	0	24.6	4	7.6	4	-1E+10	1	-1E+10	1	-1E+10	1	-1E+10	1	-1E+10	1	-1E+10	1
4901784	46	C	10/07/2016	10:44	-132.308	44.917	0	1410.50	0	2.7780	0	34.5120	0	27.524	0	1394.339	0	24.9	4	7.6	4	-1E+10	1	-1E+10	1	-1E+10	1	-1E+10	1	-1E+10	1	-1E+10	1
4901784	46	C	10/07/2016	10:44	-132.308	44.917	0	1415.70	0	2.7680	0	34.5130	0	27.526	0	1399.463	0	25.0	4	7.7	4	-1E+10	1	-1E+10	1	-1E+10	1	-1E+10	1	-1E+10	1	-1E+10	1
4901784	46	C	10/07/2016	10:44	-132.308	44.917	0	1420.00	0	2.7600	0	34.5130	0	27.527	0	1403.699	0	24.8	4	7.6	4	-1E+10	1	-1E+10	1	-1E+10	1	-1E+10	1	-1E+10	1	-1E+10	1
4901784	46	C	10/07/2016	10:44	-132.308	44.917	0	1424.30	0	2.7420	0	34.5130	0	27.528	0	1407.935	0	24.7	4	7.6	4	-1E+10	1	-1E+10	1	-1E+10	1	-1E+10	1	-1E+10	1	-1E+10	1
4901784	46	C	10/07/2016	10:44	-132.308	44.917	0	1429.50	0	2.7330	0	34.5130	0	27.529	0	1413.058	0	24.7	4	7.6	4	-1E+10	1	-1E+10	1	-1E+10	1	-1E+10	1	-1E+10	1	-1E+10	1
4901784	46	C	10/07/2016	10:44	-132.308	44.917	0	1434.80	0	2.7190	0	34.5120	0	27.529	0	1418.279	0	24.7	4	7.6	4	-1E+10	1	-1E+10	1	-1E+10	1	-1E+10	1	-1E+10	1	-1E+10	1
4901784	46	C	10/07/2016	10:44	-132.308	44.917	0	1440.20	0	2.6990	0	34.5130	0	27.532	0	1423.599	0	24.8	4	7.6	4	-1E+10	1	-1E+10	1	-1E+10	1	-1E+10	1	-1E+10	1	-1E+10	1
4901784	46	C	10/07/2016	10:44	-132.308	44.917	0	1445.60	0	2.6880	0	34.5140	0	27.534	0	1428.918	0	24.9	4	7.6	4	-1E+10	1	-1E+10	1	-1E+10	1	-1E+10	1	-1E+10	1	-1E+10	1
4901784	46	C	10/07/2016	10:44	-132.308	44.917	0	1450.20	0	2.6790	0	34.5140	0	27.535	0	1433.450	0	24.9	4	7.6	4	-1E+10	1	-1E+10	1	-1E+10	1	-1E+10	1	-1E+10	1	-1E+10	1
4901784	46	C	10/07/2016	10:44	-132.308	44.917	0	1454.80	0	2.6680	0	34.5140	0	27.536	0	1437.981	0	25.1	4	7.7	4	-1E+10	1	-1E+10	1	-1E+10	1	-1E+10	1	-1E+10	1	-1E+10	1
4901784	46	C	10/07/2016	10:44	-132.308	44.917	0	1460.30	0	2.6550	0	34.5150	0	27.537	0	1443.399	0	25.2	4	7.7	4	-1E+10	1	-1E+10	1	-1E+10	1	-1E+10	1	-1E+10	1	-1E+10	1
4901784	46	C	10/07/2016	10:44	-132.308	44.917	0	1464.90	0	2.6410	0	34.5160	0	27.539	0	1447.930	0	25.4	4	7.8	4	-1E+10	1	-1E+10	1	-1E+10	1	-1E+10	1	-1E+10	1	-1E+10	1
4901784	46	C	10/07/2016	10:44	-132.308	44.917	0	1469.70	0	2.6330	0	34.5160	0	27.540	0	1452.657	0	25.6	4	7.8	4	-1E+10	1	-1E+10	1	-1E+10	1	-1E+10	1	-1E+10	1	-1E+10	1
4901784	46	C	10/07/2016	10:44	-132.308	44.917	0	1474.90	0	2.6230	0	34.5170	0	27.542	0	1457.779	0	25.9	4	7.9	4	-1E+10	1	-1E+10	1	-1E+10	1	-1E+10	1	-1E+10	1	-1E+10	1
4901784	46	C	10/07/2016	10:44	-132.308	44.917	0	1479.80	0	2.6040	0	34.5190	0	27.545	0	1462.606	0	26.1	4	8.0	4	-1E+10	1	-1E+10	1	-1E+10	1	-1E+10	1	-1E+10	1	-1E+10	1
4901784	46	C	10/07/2016	10:44	-132.308	44.917	0	1484.60	0	2.5960	0	34.5200	0	27.547	0	1467.333	0	26.3	4	8.0	4	-1E+10	1	-1E+10	1	-1E+10	1	-1E+10	1	-1E+10	1	-1E+10	1
4901784	46	C	10/07/2016	10:44	-132.308	44.917	0	1489.50	0	2.5930	0	34.5200	0	27.547	0	1472.159	0	26.4	4	8.1	4	-1E+10	1	-1E+10	1	-1E+10	1	-1E+10	1	-1E+10	1	-1E+10	1
4901784	46	C	10/07/2016	10:44	-132.308	44.917	0	1494.40	0	2.5870	0	34.5200	0	27.547	0	1476.985	0	26.6	4	8.1	4	-1E+10	1	-1E+10	1	-1E+10	1	-1E+10	1	-1E+10	1	-1E+10	1
4901784	46	C	10/07/2016	10:44	-132.308	44.917	0	1499.40	0	2.5690	0	34.5220	0	27.551	0	1481.909	0	26.9	4	8.2	4	-1E+10	1	-1E+10	1	-1E+10	1	-1E+10	1	-1E+10	1	-1E+10	1
4901784	46	C	10/07/2016	10:44	-132.308	44.917	0	1504.40	0	2.5630	0	34.5220	0	27.551	0	1486.833	0	27.1	4	8.3	4	-1E+10	1	-1E+10	1	-1E+10	1	-1E+10	1	-1E+10	1	-1E+10	1
4901784	46	C	10/07/2016	10:44	-132.308	44.917	0	1509.40	0	2.5510	0	34.5230	0	27.553	0	1491.757	0	27.4	4	8.4	4	-1E+10	1	-1E+10	1	-1E+10	1	-1E+10	1	-1E+10	1	-1E+10	1
4901784	46	C	10/07/2016	10:44	-132.308	44.917	0	1514.40	0	2.5360	0	34.5250	0	27.556	0	1496.681	0	27.8	4	8.5	4	-1E+10	1	-1E+10	1	-1E+10	1	-1E+10	1	-1E+10	1	-1E+10	1
4901784	46	C	10/07/2016	10:44	-132.308	44.917	0	1519.50	0	2.5240	0	34.5260	0	27.558	0	1501.703	0	28.2	4	8.6	4	-1E+10	1	-1E+10	1	-1E+10	1	-1E+10	1	-1E+10	1	-1E+10	1
4901784	46	C	10/07/2016	10:44	-132.308	44.917	0	1524.60	0	2.5130	0	34.5270	0	27.559	0	1506.725	0	28.5	4	8.7	4	-1E+10	1	-1E+10	1	-1E+10	1	-1E+10	1	-1E+10	1	-1E+10	1
4901784	46	C	10/07/2016	10:44	-132.308	44.917	0	1529.70	0	2.4990	0	34.5290	0	27.562	0	1511.747	0	28.7	4	8.8	4	-1E+10	1	-1E+10	1	-1E+10	1	-1E+10	1	-1E+10	1	-1E+10	1
4901784	46	C	10/07/2016	10:44	-132.308	44.917	0	1534.90	0	2.4890	0	34.5290	0	27.563	0	1516.868	0	28.9	4	8.8	4	-1E+10	1	-1E+10	1	-1E+10	1	-1E+10	1	-1E+10	1	-1E+10	1
4901784	46	C	10/07/2016	10:44	-132.308	44.917	0	1540.00	0	2.4780	0	34.5300	0	27.565	0	1521.889	0	29.2	4	8.9	4	-1E+10	1	-1E+10	1	-1E+10	1	-1E+10	1	-1E+10	1	-1E+10	1
4901784	46	C	10/07/2016	10:44	-132.308	44.917	0	1545.20	0	2.4640	0	34.5310	0	27.567	0	1527.009	0	29.5	4	9.0	4	-1E+10	1	-1E+10	1	-1E+10	1	-1E+10	1	-1E+10	1	-1E+10	1
4901784	46	C	10/07/2016	10:44	-132.308	44.917	0	1550.50	0	2.4510	0	34.5320	0	27.569	0	1532.228	0	29.6	4	9.0	4	-1E+10	1	-1E+10	1	-1E+10	1	-1E+10	1	-1E+10	1	-1E+10	1
4901784	46	C	10/07/2016	10:44	-132.308	44.917	0	1554.90	0	2.4460	0	34.5320	0	27.569	0	1536.560	0	29.8	4	9.1	4	-1E+10	1	-1E+10	1	-1E+10	1	-1E+10	1	-1E+10	1	-1E+10	1
4901784	46	C	10/07/2016	10:44	-132.308	44.917	0	1559.40	0	2.4390	0	34.5330	0	27.571	0	1540.991	0	30.2	4	9.2	4	-1E+10	1	-1E+10	1	-1E+10	1	-1E+10	1	-1E+10	1	-1E+10	1
4901784	46	C	10/07/2016	10:44	-132.308	44.917	0	1564.80	0	2.4280	0	34.5340	0	27.572	0	1546.307	0	30.5	4	9.3	4	-1E+10	1	-1E+10	1	-1E+10	1	-1E+10	1	-1E+10	1	-1E+10	1
4901784	46	C	10/07/2016	10:44	-132.308	44.917	0	1570.20	0	2.4160	0	34.5350	0	27.574	0	1551.623	0	30.9	4	9.4	4	-1E+10	1	-1E+10	1	-1E+10	1	-1E+10	1	-1E+10	1	-1E+10	1
4901784	46	C	10/07/2016	10:44	-132.308	44.917	0	1574.80	0	2.4020	0	34.5370	0	27.577	0	1556.152	0	31.2	4	9.5	4	-1E+10	1	-1E+10	1	-1E+10	1	-1E+10	1	-1E+10	1	-1E+10	1
4901784	46	C	10/07/2016	10:44	-132.308	44.917	0	1579.40	0	2.3940	0	34.5370	0	27.578	0	1560.681	0	31.6	4	9.6	4	-1E+10	1	-1E+10	1	-1E+10	1	-1E+10	1	-1E+10	1	-1E+10	1
4901784	46	C	10/07/2016	10:44	-132.308	44.917	0	1585.00	0	2.3800	0	34.5390	0	27.580	0	1566.194	0	32.1	4	9.8	4	-1E+10	1	-1E+10	1	-1E+10	1	-1E+10	1	-1E+10	1	-1E+10	1
4901784	46	C	10/07/2016	10:44	-132.308	44.917	0	1590.60	0	2.3670	0	34.5410	0	27.583	0	1571.706	0	32.5	4	9.9	4	-1E+10	1	-1E+10	1	-1E+10	1	-1E+10	1	-1E+10	1	-1E+10	1
4901784	46	C	10/07/2016	10:44	-132.308	44.917	0	1595.30	0	2.3620	0	34.5410	0	27.584	0	1576.333	0	32.7	4	10.0	4	-1E+10	1	-1E+10	1	-1E+10	1	-1E+10	1	-1E+10	1	-1E+10	1
4901784	46	C	10/07/2016	10:44	-132.308	44.917	0	1599.90	0	2.3540	0	34.5420	0	27.585	0	1580.861	0	33.0	4	10.0	4	-1E+10	1	-1E+10	1	-1E+10	1	-1E+10	1	-1E+10	1	-1E+10	1
4901784	46	C	10/07/2016	10:44	-132.308	44.917	0	1604.80	0	2.3470	0	34.5430	0	27.586	0	1585.685	0	33.3	4	10.1	4	-1E+10	1	-1E+10	1	-1E+10	1	-1E+10	1	-1E+10	1	-1E+10	1
4901784	46	C	10/07/2016	10:44	-132.308	44.917	0	1609.70	0	2.3410	0	34.5440	0	27.588	0	1590.508	0	33.7	4	10.2	4	-1E+10	1	-1E+10	1	-1E+10	1	-1E+10	1	-1E+10	1	-1E+10	1
4901784	46	C	10/07/2016	10:44	-132.308	44.917	0	1614.80	0	2.3330	0	34.5450	0	27.589	0	1595.528	0	34.0	4	10.3	4	-1E+10	1	-1E+10	1	-1E+10	1	-1E+10	1	-1E+10	1	-1E+10	1
4901784	46	C	10/07/2016	10:44	-132.308	44.917	0	1619.80	0	2.3250	0	34.5460	0	27.591	0	1600.449	0	34.3	4	10.4	4	-1E+10	1	-1E+10	1	-1E+10	1	-1E+10	1	-1E+10	1	-1E+10	1
4901784	46	C	10/07/2016	10:44	-132.308	44.917	0	1624.90	0	2.3190	0	34.5470	0	27.592	0	1605.469	0	34.5	4	10.5	4	-1E+10	1	-1E+10	1	-1E+10	1	-1E+10	1	-1E+10	1	-1E+10	1
4901784	46	C	10/07/2016	10:44	-132.308	44.917	0	1630.00	0	2.3140	0	34.5470	0	27.592	0	1610.489	0	34.8	4	10.6	4	-1E+10	1	-1E+10	1	-1E+10	1	-1E+10	1	-1E+10	1	-1E+10	1
4901784	46	C	10/07/2016	10:44	-132.308	44.917	0	1635.20	0	2.3030	0	34.5490	0	27.595	0	1615.607	0	35.2	4	10.7	4	-1E+10	1	-1E+10	1	-1E+10	1	-1E+10	1	-1E+10	1	-1E+10	1
4901784	46	C	10/07/2016	10:44	-132.308	44.917	0	1640.40	0	2.2990	0	34.5500	0	27.596	0	1620.724	0	35.4	4	10.7	4	-1E+10	1	-1E+10	1	-1E+10	1	-1E+10	1	-1E+10	1	-1E+10	1
4901784	46	C	10/07/2016	10:44	-132.308	44.917	0	1644.80	0	2.2960	0	34.5500	0	27.596	0	1625.055	0	35.6	4	10.8	4	-1E+10	1	-1E+10	1	-1E+10	1	-1E+10	1	-1E+10	1	-1E+10	1
4901784	46	C	10/07/2016	10:44	-132.308	44.917	0	1649.20	0	2.2890	0	34.5510	0	27.598	0	1629.385	0	35.9	4	10.9	4	-1E+10	1	-1E+10	1	-1E+10	1	-1E+10	1	-1E+10	1	-1E+10	1
4901784	46	C	10/07/2016	10:44	-132.308	44.917	0	1654.60	0	2.2830	0	34.5520	0	27.599	0	1634.699	0	36.3	4	11.0	4	-1E+10	1	-1E+10	1	-1E+10	1	-1E+10	1	-1E+10	1	-1E+10	1
4901784	46	C	10/07/2016	10:44	-132.308	44.917	0	1659.90	0	2.2730	0	34.5530	0	27.601	0	1639.915	0	36.7	4	11.1	4	-1E+10	1	-1E+10	1	-1E+10	1	-1E+10	1	-1E+10	1	-1E+10	1
4901784	46	C	10/07/2016	10:44	-132.308	44.917	0	1665.40	0	2.2670	0	34.5540	0	27.602	0	1645.328	0	37.1	4	11.2	4	-1E+10	1	-1E+10	1	-1E+10	1	-1E+10	1	-1E+10	1	-1E+10	1
4901784	46	C	10/07/2016	10:44	-132.308	44.917	0	1670.00	0	2.2620	0	34.5550	0	27.603	0	1649.854	0	37.4	4	11.3	4	-1E+10	1	-1E+10	1	-1E+10	1	-1E+10	1	-1E+10	1	-1E+10	1
4901784	46	C	10/07/2016	10:44	-132.308	44.917	0	1674.50	0	2.2530	0	34.5560	0	27.605	0	1654.282	0	37.7	4	11.4	4	-1E+10	1	-1E+10	1	-1E+10	1	-1E+10	1	-1E+10	1	-1E+10	1
4901784	46	C	10/07/2016	10:44	-132.308	44.917	0	1680.00	0	2.2490	0	34.5570	0	27.606	0	1659.694	0	38.1	4	11.5	4	-1E+10	1	-1E+10	1	-1E+10	1	-1E+10	1	-1E+10	1	-1E+10	1
4901784	46	C	10/07/2016	10:44	-132.308	44.917	0	1685.60	0	2.2420	0	34.5580	0	27.607	0	1665.205	0	38.5	4	11.7	4	-1E+10	1	-1E+10	1	-1E+10	1	-1E+10	1	-1E+10	1	-1E+10	1
4901784	46	C	10/07/2016	10:44	-132.308	44.917	0	1690.20	0	2.2320	0	34.5590	0	27.609	0	1669.731	0	38.9	4	11.8	4	-1E+10	1	-1E+10	1	-1E+10	1	-1E+10	1	-1E+10	1	-1E+10	1
4901784	46	C	10/07/2016	10:44	-132.308	44.917	0	1694.80	0	2.2240	0	34.5600	0	27.610	0	1674.257	0	39.2	4	11.9	4	-1E+10	1	-1E+10	1	-1E+10	1	-1E+10	1	-1E+10	1	-1E+10	1
4901784	46	C	10/07/2016	10:44	-132.308	44.917	0	1700.00	0	2.2150	0	34.5610	0	27.612	0	1679.374	0	39.5	4	12.0	4	-1E+10	1	-1E+10	1	-1E+10	1	-1E+10	1	-1E+10	1	-1E+10	1
4901784	46	C	10/07/2016	10:44	-132.308	44.917	0	1704.30	0	2.2120	0	34.5620	0	27.613	0	1683.604	0	39.7	4	12.0	4	-1E+10	1	-1E+10	1	-1E+10	1	-1E+10	1	-1E+10	1	-1E+10	1
4901784	46	C	10/07/2016	10:44	-132.308	44.917	0	1709.20	0	2.2080	0	34.5620	0	27.613	0	1688.425	0	39.9	4	12.1	4	-1E+10	1	-1E+10	1	-1E+10	1	-1E+10	1	-1E+10	1	-1E+10	1
4901784	46	C	10/07/2016	10:44	-132.308	44.917	0	1715.00	0	2.2040	0	34.5630	0	27.615	0	1694.132	0	40.1	4	12.2	4	-1E+10	1	-1E+10	1	-1E+10	1	-1E+10	1	-1E+10	1	-1E+10	1
4901784	46	C	10/07/2016	10:44	-132.308	44.917	0	1720.70	0	2.1990	0	34.5640	0	27.616	0	1699.739	0	40.4	4	12.2	4	-1E+10	1	-1E+10	1	-1E+10	1	-1E+10	1	-1E+10	1	-1E+10	1
4901784	46	C	10/07/2016	10:44	-132.308	44.917	0	1725.60	0	2.1940	0	34.5640	0	27.616	0	1704.560	0	40.6	4	12.3	4	-1E+10	1	-1E+10	1	-1E+10	1	-1E+10	1	-1E+10	1	-1E+10	1
4901784	46	C	10/07/2016	10:44	-132.308	44.917	0	1730.60	0	2.1930	0	34.5650	0	27.617	0	1709.479	0	40.7	4	12.3	4	-1E+10	1	-1E+10	1	-1E+10	1	-1E+10	1	-1E+10	1	-1E+10	1
4901784	46	C	10/07/2016	10:44	-132.308	44.917	0	1735.70	0	2.1900	0	34.5650	0	27.617	0	1714.496	0	40.9	4	12.4	4	-1E+10	1	-1E+10	1	-1E+10	1	-1E+10	1	-1E+10	1	-1E+10	1
4901784	46	C	10/07/2016	10:44	-132.308	44.917	0	1740.80	0	2.1870	0	34.5650	0	27.618	0	1719.513	0	41.2	4	12.5	4	-1E+10	1	-1E+10	1	-1E+10	1	-1E+10	1	-1E+10	1	-1E+10	1
4901784	46	C	10/07/2016	10:44	-132.308	44.917	0	1745.10	0	2.1810	0	34.5660	0	27.619	0	1723.743	0	41.5	4	12.6	4	-1E+10	1	-1E+10	1	-1E+10	1	-1E+10	1	-1E+10	1	-1E+10	1
4901784	46	C	10/07/2016	10:44	-132.308	44.917	0	1749.40	0	2.1780	0	34.5660	0	27.619	0	1727.973	0	41.7	4	12.6	4	-1E+10	1	-1E+10	1	-1E+10	1	-1E+10	1	-1E+10	1	-1E+10	1
4901784	46	C	10/07/2016	10:44	-132.308	44.917	0	1754.50	0	2.1720	0	34.5670	0	27.621	0	1732.990	0	42.1	4	12.7	4	-1E+10	1	-1E+10	1	-1E+10	1	-1E+10	1	-1E+10	1	-1E+10	1
4901784	46	C	10/07/2016	10:44	-132.308	44.917	0	1759.70	0	2.1660	0	34.5680	0	27.622	0	1738.105	0	42.4	4	12.8	4	-1E+10	1	-1E+10	1	-1E+10	1	-1E+10	1	-1E+10	1	-1E+10	1
4901784	46	C	10/07/2016	10:44	-132.308	44.917	0	1765.00	0	2.1590	0	34.5700	0	27.624	0	1743.318	0	42.8	4	13.0	4	-1E+10	1	-1E+10	1	-1E+10	1	-1E+10	1	-1E+10	1	-1E+10	1
4901784	46	C	10/07/2016	10:44	-132.308	44.917	0	1770.10	0	2.1540	0	34.5700	0	27.624	0	1748.334	0	43.1	4	13.0	4	-1E+10	1	-1E+10	1	-1E+10	1	-1E+10	1	-1E+10	1	-1E+10	1
4901784	46	C	10/07/2016	10:44	-132.308	44.917	0	1775.40	0	2.1510	0	34.5710	0	27.626	0	1753.547	0	43.4	4	13.1	4	-1E+10	1	-1E+10	1	-1E+10	1	-1E+10	1	-1E+10	1	-1E+10	1
4901784	46	C	10/07/2016	10:44	-132.308	44.917	0	1780.60	0	2.1460	0	34.5720	0	27.627	0	1758.662	0	43.8	4	13.2	4	-1E+10	1	-1E+10	1	-1E+10	1	-1E+10	1	-1E+10	1	-1E+10	1
4901784	46	C	10/07/2016	10:44	-132.308	44.917	0	1785.10	0	2.1400	0	34.5730	0	27.628	0	1763.088	0	44.1	4	13.4	4	-1E+10	1	-1E+10	1	-1E+10	1	-1E+10	1	-1E+10	1	-1E+10	1
4901784	46	C	10/07/2016	10:44	-132.308	44.917	0	1789.50	0	2.1350	0	34.5730	0	27.628	0	1767.415	0	44.5	4	13.5	4	-1E+10	1	-1E+10	1	-1E+10	1	-1E+10	1	-1E+10	1	-1E+10	1
4901784	46	C	10/07/2016	10:44	-132.308	44.917	0	1794.80	0	2.1270	0	34.5750	0	27.631	0	1772.628	0	45.0	4	13.6	4	-1E+10	1	-1E+10	1	-1E+10	1	-1E+10	1	-1E+10	1	-1E+10	1
4901784	46	C	10/07/2016	10:44	-132.308	44.917	0	1800.10	0	2.1190	0	34.5760	0	27.632	0	1777.840	0	45.5	4	13.8	4	-1E+10	1	-1E+10	1	-1E+10	1	-1E+10	1	-1E+10	1	-1E+10	1
4901784	46	C	10/07/2016	10:44	-132.308	44.917	0	1805.40	0	2.1100	0	34.5770	0	27.634	0	1783.052	0	45.9	4	13.9	4	-1E+10	1	-1E+10	1	-1E+10	1	-1E+10	1	-1E+10	1	-1E+10	1
4901784	46	C	10/07/2016	10:44	-132.308	44.917	0	1809.90	0	2.1050	0	34.5780	0	27.635	0	1787.478	0	46.2	4	14.0	4	-1E+10	1	-1E+10	1	-1E+10	1	-1E+10	1	-1E+10	1	-1E+10	1
4901784	46	C	10/07/2016	10:44	-132.308	44.917	0	1814.30	0	2.0990	0	34.5790	0	27.636	0	1791.805	0	46.5	4	14.1	4	-1E+10	1	-1E+10	1	-1E+10	1	-1E+10	1	-1E+10	1	-1E+10	1
4901784	46	C	10/07/2016	10:44	-132.308	44.917	0	1819.60	0	2.0950	0	34.5800	0	27.637	0	1797.016	0	46.8	4	14.2	4	-1E+10	1	-1E+10	1	-1E+10	1	-1E+10	1	-1E+10	1	-1E+10	1
4901784	46	C	10/07/2016	10:44	-132.308	44.917	0	1825.00	0	2.0910	0	34.5800	0	27.638	0	1802.327	0	47.2	4	14.3	4	-1E+10	1	-1E+10	1	-1E+10	1	-1E+10	1	-1E+10	1	-1E+10	1
4901784	46	C	10/07/2016	10:44	-132.308	44.917	0	1830.40	0	2.0860	0	34.5810	0	27.639	0	1807.637	0	47.5	4	14.4	4	-1E+10	1	-1E+10	1	-1E+10	1	-1E+10	1	-1E+10	1	-1E+10	1
4901784	46	C	10/07/2016	10:44	-132.308	44.917	0	1835.70	0	2.0800	0	34.5820	0	27.640	0	1812.848	0	48.0	4	14.5	4	-1E+10	1	-1E+10	1	-1E+10	1	-1E+10	1	-1E+10	1	-1E+10	1
4901784	46	C	10/07/2016	10:44	-132.308	44.917	0	1840.20	0	2.0740	0	34.5830	0	27.642	0	1817.273	0	48.3	4	14.6	4	-1E+10	1	-1E+10	1	-1E+10	1	-1E+10	1	-1E+10	1	-1E+10	1
4901784	46	C	10/07/2016	10:44	-132.308	44.917	0	1844.60	0	2.0680	0	34.5840	0	27.643	0	1821.599	0	48.6	4	14.7	4	-1E+10	1	-1E+10	1	-1E+10	1	-1E+10	1	-1E+10	1	-1E+10	1
4901784	46	C	10/07/2016	10:44	-132.308	44.917	0	1850.00	0	2.0640	0	34.5840	0	27.643	0	1826.909	0	49.0	4	14.8	4	-1E+10	1	-1E+10	1	-1E+10	1	-1E+10	1	-1E+10	1	-1E+10	1
4901784	46	C	10/07/2016	10:44	-132.308	44.917	0	1855.50	0	2.0600	0	34.5850	0	27.644	0	1832.316	0	49.3	4	14.9	4	-1E+10	1	-1E+10	1	-1E+10	1	-1E+10	1	-1E+10	1	-1E+10	1
4901784	46	C	10/07/2016	10:44	-132.308	44.917	0	1860.00	0	2.0570	0	34.5860	0	27.645	0	1836.741	0	49.6	4	15.0	4	-1E+10	1	-1E+10	1	-1E+10	1	-1E+10	1	-1E+10	1	-1E+10	1
4901784	46	C	10/07/2016	10:44	-132.308	44.917	0	1864.60	0	2.0520	0	34.5870	0	27.647	0	1841.263	0	49.8	4	15.0	4	-1E+10	1	-1E+10	1	-1E+10	1	-1E+10	1	-1E+10	1	-1E+10	1
4901784	46	C	10/07/2016	10:44	-132.308	44.917	0	1870.00	0	2.0470	0	34.5870	0	27.647	0	1846.572	0	50.1	4	15.1	4	-1E+10	1	-1E+10	1	-1E+10	1	-1E+10	1	-1E+10	1	-1E+10	1
4901784	46	C	10/07/2016	10:44	-132.308	44.917	0	1875.50	0	2.0430	0	34.5880	0	27.648	0	1851.979	0	50.5	4	15.2	4	-1E+10	1	-1E+10	1	-1E+10	1	-1E+10	1	-1E+10	1	-1E+10	1
4901784	46	C	10/07/2016	10:44	-132.308	44.917	0	1880.10	0	2.0380	0	34.5890	0	27.649	0	1856.502	0	50.8	4	15.3	4	-1E+10	1	-1E+10	1	-1E+10	1	-1E+10	1	-1E+10	1	-1E+10	1
4901784	46	C	10/07/2016	10:44	-132.308	44.917	0	1884.70	0	2.0330	0	34.5890	0	27.650	0	1861.024	0	51.0	4	15.4	4	-1E+10	1	-1E+10	1	-1E+10	1	-1E+10	1	-1E+10	1	-1E+10	1
4901784	46	C	10/07/2016	10:44	-132.308	44.917	0	1890.20	0	2.0290	0	34.5900	0	27.651	0	1866.430	0	51.3	4	15.5	4	-1E+10	1	-1E+10	1	-1E+10	1	-1E+10	1	-1E+10	1	-1E+10	1
4901784	46	C	10/07/2016	10:44	-132.308	44.917	0	1894.90	0	2.0270	0	34.5910	0	27.652	0	1871.051	0	51.5	4	15.5	4	-1E+10	1	-1E+10	1	-1E+10	1	-1E+10	1	-1E+10	1	-1E+10	1
4901784	46	C	10/07/2016	10:44	-132.308	44.917	0	1900.20	0	2.0250	0	34.5910	0	27.652	0	1876.261	0	51.7	4	15.6	4	-1E+10	1	-1E+10	1	-1E+10	1	-1E+10	1	-1E+10	1	-1E+10	1
4901784	46	C	10/07/2016	10:44	-132.308	44.917	0	1905.30	0	2.0200	0	34.5920	0	27.653	0	1881.274	0	52.0	4	15.7	4	-1E+10	1	-1E+10	1	-1E+10	1	-1E+10	1	-1E+10	1	-1E+10	1
4901784	46	C	10/07/2016	10:44	-132.308	44.917	0	1910.20	0	2.0180	0	34.5920	0	27.654	0	1886.090	0	52.2	4	15.7	4	-1E+10	1	-1E+10	1	-1E+10	1	-1E+10	1	-1E+10	1	-1E+10	1
4901784	46	C	10/07/2016	10:44	-132.308	44.917	0	1915.10	0	2.0140	0	34.5930	0	27.655	0	1890.907	0	52.5	4	15.8	4	-1E+10	1	-1E+10	1	-1E+10	1	-1E+10	1	-1E+10	1	-1E+10	1
4901784	46	C	10/07/2016	10:44	-132.308	44.917	0	1920.00	0	2.0100	0	34.5930	0	27.655	0	1895.723	0	52.7	4	15.9	4	-1E+10	1	-1E+10	1	-1E+10	1	-1E+10	1	-1E+10	1	-1E+10	1
4901784	46	C	10/07/2016	10:44	-132.308	44.917	0	1924.90	0	2.0080	0	34.5940	0	27.656	0	1900.539	0	52.9	4	16.0	4	-1E+10	1	-1E+10	1	-1E+10	1	-1E+10	1	-1E+10	1	-1E+10	1
4901784	46	C	10/07/2016	10:44	-132.308	44.917	0	1929.80	0	2.0050	0	34.5940	0	27.656	0	1905.355	0	53.3	4	16.1	4	-1E+10	1	-1E+10	1	-1E+10	1	-1E+10	1	-1E+10	1	-1E+10	1
4901784	46	C	10/07/2016	10:44	-132.308	44.917	0	1934.80	0	2.0010	0	34.5950	0	27.657	0	1910.270	0	53.6	4	16.2	4	-1E+10	1	-1E+10	1	-1E+10	1	-1E+10	1	-1E+10	1	-1E+10	1
4901784	46	C	10/07/2016	10:44	-132.308	44.917	0	1939.80	0	1.9980	0	34.5960	0	27.658	0	1915.184	0	53.9	4	16.2	4	-1E+10	1	-1E+10	1	-1E+10	1	-1E+10	1	-1E+10	1	-1E+10	1
4901784	46	C	10/07/2016	10:44	-132.308	44.917	0	1944.70	0	1.9930	0	34.5960	0	27.659	0	1919.999	0	54.2	4	16.3	4	-1E+10	1	-1E+10	1	-1E+10	1	-1E+10	1	-1E+10	1	-1E+10	1
4901784	46	C	10/07/2016	10:44	-132.308	44.917	0	1949.70	0	1.9870	0	34.5970	0	27.660	0	1924.913	0	54.5	4	16.4	4	-1E+10	1	-1E+10	1	-1E+10	1	-1E+10	1	-1E+10	1	-1E+10	1
4901784	46	C	10/07/2016	10:44	-132.308	44.917	0	1954.70	0	1.9830	0	34.5980	0	27.661	0	1929.827	0	54.8	4	16.5	4	-1E+10	1	-1E+10	1	-1E+10	1	-1E+10	1	-1E+10	1	-1E+10	1
4901784	46	C	10/07/2016	10:44	-132.308	44.917	0	1959.80	0	1.9790	0	34.5980	0	27.662	0	1934.839	0	55.1	4	16.6	4	-1E+10	1	-1E+10	1	-1E+10	1	-1E+10	1	-1E+10	1	-1E+10	1
4901784	46	C	10/07/2016	10:44	-132.308	44.917	0	1964.90	0	1.9770	0	34.5990	0	27.663	0	1939.851	0	55.6	4	16.8	4	-1E+10	1	-1E+10	1	-1E+10	1	-1E+10	1	-1E+10	1	-1E+10	1
4901784	46	C	10/07/2016	10:44	-132.308	44.917	0	1969.90	0	1.9730	0	34.6000	0	27.664	0	1944.764	0	55.9	4	16.9	4	-1E+10	1	-1E+10	1	-1E+10	1	-1E+10	1	-1E+10	1	-1E+10	1
4901784	46	C	10/07/2016	10:44	-132.308	44.917	0	1975.00	0	1.9690	0	34.6000	0	27.664	0	1949.776	0	56.1	4	16.9	4	-1E+10	1	-1E+10	1	-1E+10	1	-1E+10	1	-1E+10	1	-1E+10	1
4901784	46	C	10/07/2016	10:44	-132.308	44.917	0	1980.20	0	1.9650	0	34.6010	0	27.665	0	1954.886	0	56.4	4	17.0	4	-1E+10	1	-1E+10	1	-1E+10	1	-1E+10	1	-1E+10	1	-1E+10	1
4901784	46	C	10/07/2016	10:44	-132.308	44.917	0	1985.30	0	1.9640	0	34.6020	0	27.666	0	1959.897	0	56.7	4	17.1	4	-1E+10	1	-1E+10	1	-1E+10	1	-1E+10	1	-1E+10	1	-1E+10	1
4901784	46	C	10/07/2016	10:44	-132.308	44.917	0	1990.50	0	1.9620	0	34.6020	0	27.666	0	1965.007	0	56.8	4	17.1	4	-1E+10	1	-1E+10	1	-1E+10	1	-1E+10	1	-1E+10	1	-1E+10	1
4901784	46	C	10/07/2016	10:44	-132.308	44.917	0	1995.70	0	1.9590	0	34.6020	0	27.667	0	1970.116	0	57.1	4	17.2	4	-1E+10	1	-1E+10	1	-1E+10	1	-1E+10	1	-1E+10	1	-1E+10	1
4901784	46	C	10/07/2016	10:44	-132.308	44.917	0	2000.10	0	1.9580	0	34.6030	0	27.668	0	1974.439	0	57.3	4	17.2	4	-1E+10	1	-1E+10	1	-1E+10	1	-1E+10	1	-1E+10	1	-1E+10	1
4901784	46	C	10/07/2016	10:44	-132.308	44.917	0	2004.30	0	1.9550	0	34.6030	0	27.668	0	1978.566	0	57.4	4	17.3	4	-1E+10	1	-1E+10	1	-1E+10	1	-1E+10	1	-1E+10	1	-1E+10	1
4901784	46	C	10/07/2016	10:44	-132.308	44.917	0	2010.00	0	1.9520	0	34.6040	0	27.669	0	1984.166	0	57.7	4	17.4	4	-1E+10	1	-1E+10	1	-1E+10	1	-1E+10	1	-1E+10	1	-1E+10	1
4901784	46	C	10/07/2016	10:44	-132.308	44.917	0	2015.10	0	1.9490	0	34.6040	0	27.669	0	1989.177	0	57.9	4	17.5	4	-1E+10	1	-1E+10	1	-1E+10	1	-1E+10	1	-1E+10	1	-1E+10	1
4901784	46	C	10/07/2016	10:44	-132.308	44.917	0	2020.30	0	1.9450	0	34.6050	0	27.670	0	1994.286	0	58.2	4	17.5	4	-1E+10	1	-1E+10	1	-1E+10	1	-1E+10	1	-1E+10	1	-1E+10	1
4901784	46	C	10/07/2016	10:44	-132.308	44.917	0																										
4901784	47	C	10/17/2016	10:47	-132.116	44.806	0	2.60	0	15.7950	0	32.6080	0	23.955	0	2.579	0	236.0	4	95.2	4	-1E+10	1	-1E+10	1	-1E+10	1	-1E+10	1	-1E+10	1	-1E+10	1
4901784	47	C	10/17/2016	10:47	-132.116	44.806	0	4.30	0	15.7960	0	32.6080	0	23.955	0	4.265	0	236.0	4	95.1	4	-1E+10	1	-1E+10	1	-1E+10	1	-1E+10	1	-1E+10	1	-1E+10	1
4901784	47	C	10/17/2016	10:47	-132.116	44.806	0	6.20	0	15.7960	0	32.6080	0	23.955	0	6.150	0	236.0	4	95.1	4	-1E+10	1	-1E+10	1	-1E+10	1	-1E+10	1	-1E+10	1	-1E+10	1
4901784	47	C	10/17/2016	10:47	-132.116	44.806	0	8.10	0	15.7960	0	32.6090	0	23.956	0	8.034	0	235.7	4	95.0	4	-1E+10	1	-1E+10	1	-1E+10	1	-1E+10	1	-1E+10	1	-1E+10	1
4901784	47	C	10/17/2016	10:47	-132.116	44.806	0	10.00	0	15.7950	0	32.6090	0	23.956	0	9.919	0	235.7	4	95.0	4	-1E+10	1	-1E+10	1	-1E+10	1	-1E+10	1	-1E+10	1	-1E+10	1
4901784	47	C	10/17/2016	10:47	-132.116	44.806	0	11.90	0	15.7970	0	32.6080	0	23.955	0	11.803	0	235.4	4	94.9	4	-1E+10	1	-1E+10	1	-1E+10	1	-1E+10	1	-1E+10	1	-1E+10	1
4901784	47	C	10/17/2016	10:47	-132.116	44.806	0	13.90	0	15.7970	0	32.6080	0	23.955	0	13.787	0	235.4	4	94.9	4	-1E+10	1	-1E+10	1	-1E+10	1	-1E+10	1	-1E+10	1	-1E+10	1
4901784	47	C	10/17/2016	10:47	-132.116	44.806	0	15.90	0	15.7970	0	32.6080	0	23.955	0	15.771	0	235.2	4	94.8	4	-1E+10	1	-1E+10	1	-1E+10	1	-1E+10	1	-1E+10	1	-1E+10	1
4901784	47	C	10/17/2016	10:47	-132.116	44.806	0	18.10	0	15.7980	0	32.6080	0	23.955	0	17.953	0	234.9	4	94.7	4	-1E+10	1	-1E+10	1	-1E+10	1	-1E+10	1	-1E+10	1	-1E+10	1
4901784	47	C	10/17/2016	10:47	-132.116	44.806	0	20.20	0	15.7980	0	32.6070	0	23.954	0	20.035	0	234.9	4	94.7	4	-1E+10	1	-1E+10	1	-1E+10	1	-1E+10	1	-1E+10	1	-1E+10	1
4901784	47	C	10/17/2016	10:47	-132.116	44.806	0	22.20	0	15.7990	0	32.6070	0	23.954	0	22.019	0	234.9	4	94.7	4	-1E+10	1	-1E+10	1	-1E+10	1	-1E+10	1	-1E+10	1	-1E+10	1
4901784	47	C	10/17/2016	10:47	-132.116	44.806	0	24.30	0	15.8000	0	32.6060	0	23.953	0	24.102	0	234.7	4	94.6	4	-1E+10	1	-1E+10	1	-1E+10	1	-1E+10	1	-1E+10	1	-1E+10	1
4901784	47	C	10/17/2016	10:47	-132.116	44.806	0	26.40	0	15.8000	0	32.6060	0	23.953	0	26.184	0	234.8	4	94.7	4	-1E+10	1	-1E+10	1	-1E+10	1	-1E+10	1	-1E+10	1	-1E+10	1
4901784	47	C	10/17/2016	10:47	-132.116	44.806	0	28.40	0	15.8020	0	32.6060	0	23.953	0	28.168	0	234.9	4	94.7	4	-1E+10	1	-1E+10	1	-1E+10	1	-1E+10	1	-1E+10	1	-1E+10	1
4901784	47	C	10/17/2016	10:47	-132.116	44.806	0	31.00	0	15.8020	0	32.6050	0	23.952	0	30.747	0	234.9	4	94.7	4	-1E+10	1	-1E+10	1	-1E+10	1	-1E+10	1	-1E+10	1	-1E+10	1
4901784	47	C	10/17/2016	10:47	-132.116	44.806	0	32.90	0	15.8010	0	32.6030	0	23.951	0	32.631	0	235.6	4	95.0	4	-1E+10	1	-1E+10	1	-1E+10	1	-1E+10	1	-1E+10	1	-1E+10	1
4901784	47	C	10/17/2016	10:47	-132.116	44.806	0	34.50	0	15.8010	0	32.6010	0	23.950	0	34.218	0	236.2	4	95.3	4	-1E+10	1	-1E+10	1	-1E+10	1	-1E+10	1	-1E+10	1	-1E+10	1
4901784	47	C	10/17/2016	10:47	-132.116	44.806	0	36.10	0	15.8010	0	32.5980	0	23.947	0	35.804	0	237.3	4	95.7	4	-1E+10	1	-1E+10	1	-1E+10	1	-1E+10	1	-1E+10	1	-1E+10	1
4901784	47	C	10/17/2016	10:47	-132.116	44.806	0	37.70	0	15.8010	0	32.5920	0	23.943	0	37.391	0	238.9	4	96.3	4	-1E+10	1	-1E+10	1	-1E+10	1	-1E+10	1	-1E+10	1	-1E+10	1
4901784	47	C	10/17/2016	10:47	-132.116	44.806	0	39.10	0	15.7200	0	32.6030	0	23.969	0	38.780	0	241.5	4	97.2	4	-1E+10	1	-1E+10	1	-1E+10	1	-1E+10	1	-1E+10	1	-1E+10	1
4901784	47	C	10/17/2016	10:47	-132.116	44.806	0	40.80	0	15.6180	0	32.6030	0	23.992	0	40.466	0	246.3	4	98.9	4	-1E+10	1	-1E+10	1	-1E+10	1	-1E+10	1	-1E+10	1	-1E+10	1
4901784	47	C	10/17/2016	10:47	-132.116	44.806	0	42.10	0	15.2510	0	32.6410	0	24.102	0	41.755	0	252.4	4	100.7	4	-1E+10	1	-1E+10	1	-1E+10	1	-1E+10	1	-1E+10	1	-1E+10	1
4901784	47	C	10/17/2016	10:47	-132.116	44.806	0	43.20	0	14.3030	0	32.7350	0	24.376	0	42.846	0	260.6	4	102.1	4	-1E+10	1	-1E+10	1	-1E+10	1	-1E+10	1	-1E+10	1	-1E+10	1
4901784	47	C	10/17/2016	10:47	-132.116	44.806	0	44.70	0	12.9010	0	32.8810	0	24.773	0	44.333	0	268.0	4	102.2	4	-1E+10	1	-1E+10	1	-1E+10	1	-1E+10	1	-1E+10	1	-1E+10	1
4901784	47	C	10/17/2016	10:47	-132.116	44.806	0	46.20	0	12.1700	0	32.8670	0	24.903	0	45.821	0	273.3	4	102.6	4	-1E+10	1	-1E+10	1	-1E+10	1	-1E+10	1	-1E+10	1	-1E+10	1
4901784	47	C	10/17/2016	10:47	-132.116	44.806	0	47.80	0	12.0090	0	32.8560	0	24.924	0	47.407	0	273.6	4	102.4	4	-1E+10	1	-1E+10	1	-1E+10	1	-1E+10	1	-1E+10	1	-1E+10	1
4901784	47	C	10/17/2016	10:47	-132.116	44.806	0	49.50	0	11.7770	0	32.8510	0	24.964	0	49.093	0	274.2	4	102.1	4	-1E+10	1	-1E+10	1	-1E+10	1	-1E+10	1	-1E+10	1	-1E+10	1
4901784	47	C	10/17/2016	10:47	-132.116	44.806	0	51.10	0	11.5380	0	32.8410	0	25.000	0	50.680	0	274.4	4	101.7	4	-1E+10	1	-1E+10	1	-1E+10	1	-1E+10	1	-1E+10	1	-1E+10	1
4901784	47	C	10/17/2016	10:47	-132.116	44.806	0	52.80	0	11.4480	0	32.8350	0	25.011	0	52.366	0	273.9	4	101.3	4	-1E+10	1	-1E+10	1	-1E+10	1	-1E+10	1	-1E+10	1	-1E+10	1
4901784	47	C	10/17/2016	10:47	-132.116	44.806	0	54.50	0	11.3100	0	32.8310	0	25.033	0	54.051	0	273.1	4	100.7	4	-1E+10	1	-1E+10	1	-1E+10	1	-1E+10	1	-1E+10	1	-1E+10	1
4901784	47	C	10/17/2016	10:47	-132.116	44.806	0	56.00	0	11.1640	0	32.8280	0	25.057	0	55.539	0	272.8	4	100.3	4	-1E+10	1	-1E+10	1	-1E+10	1	-1E+10	1	-1E+10	1	-1E+10	1
4901784	47	C	10/17/2016	10:47	-132.116	44.806	0	57.70	0	11.0030	0	32.8240	0	25.083	0	57.225	0	271.9	4	99.6	4	-1E+10	1	-1E+10	1	-1E+10	1	-1E+10	1	-1E+10	1	-1E+10	1
4901784	47	C	10/17/2016	10:47	-132.116	44.806	0	59.50	0	10.8030	0	32.8290	0	25.122	0	59.010	0	271.0	4	98.9	4	-1E+10	1	-1E+10	1	-1E+10	1	-1E+10	1	-1E+10	1	-1E+10	1
4901784	47	C	10/17/2016	10:47	-132.116	44.806	0	59.90	0	10.6990	0	32.8370	0	25.146	0	59.406	0	270.8	4	98.5	4	-1E+10	1	-1E+10	1	-1E+10	1	-1E+10	1	-1E+10	1	-1E+10	1
4901784	47	C	10/17/2016	10:47	-132.116	44.806	0	61.30	0	10.5570	0	32.8380	0	25.171	0	60.794	0	271.0	4	98.3	4	-1E+10	1	-1E+10	1	-1E+10	1	-1E+10	1	-1E+10	1	-1E+10	1
4901784	47	C	10/17/2016	10:47	-132.116	44.806	0	62.60	0	10.5080	0	32.8360	0	25.178	0	62.084	0	270.5	4	98.0	4	-1E+10	1	-1E+10	1	-1E+10	1	-1E+10	1	-1E+10	1	-1E+10	1
4901784	47	C	10/17/2016	10:47	-132.116	44.806	0	64.00	0	10.3840	0	32.8450	0	25.206	0	63.472	0	269.8	4	97.5	4	-1E+10	1	-1E+10	1	-1E+10	1	-1E+10	1	-1E+10	1	-1E+10	1
4901784	47	C	10/17/2016	10:47	-132.116	44.806	0	65.40	0	10.3380	0	32.8420	0	25.212	0	64.860	0	269.3	4	97.3	4	-1E+10	1	-1E+10	1	-1E+10	1	-1E+10	1	-1E+10	1	-1E+10	1
4901784	47	C	10/17/2016	10:47	-132.116	44.806	0	66.80	0	10.2230	0	32.8450	0	25.234	0	66.248	0	268.3	4	96.7	4	-1E+10	1	-1E+10	1	-1E+10	1	-1E+10	1	-1E+10	1	-1E+10	1
4901784	47	C	10/17/2016	10:47	-132.116	44.806	0	68.20	0	10.1500	0	32.8520	0	25.252	0	67.636	0	267.3	4	96.1	4	-1E+10	1	-1E+10	1	-1E+10	1	-1E+10	1	-1E+10	1	-1E+10	1
4901784	47	C	10/17/2016	10:47	-132.116	44.806	0	69.60	0	10.0750	0	32.8520	0	25.264	0	69.025	0	266.2	4	95.6	4	-1E+10	1	-1E+10	1	-1E+10	1	-1E+10	1	-1E+10	1	-1E+10	1
4901784	47	C	10/17/2016	10:47	-132.116	44.806	0	71.10	0	9.9620	0	32.8560	0	25.286	0	70.512	0	265.2	4	95.0	4	-1E+10	1	-1E+10	1	-1E+10	1	-1E+10	1	-1E+10	1	-1E+10	1
4901784	47	C	10/17/2016	10:47	-132.116	44.806	0	72.80	0	9.7600	0	32.8470	0	25.313	0	72.198	0	264.6	4	94.4	4	-1E+10	1	-1E+10	1	-1E+10	1	-1E+10	1	-1E+10	1	-1E+10	1
4901784	47	C	10/17/2016	10:47	-132.116	44.806	0	74.20	0	9.7250	0	32.8640	0	25.332	0	73.586	0	263.6	4	94.0	4	-1E+10	1	-1E+10	1	-1E+10	1	-1E+10	1	-1E+10	1	-1E+10	1
4901784	47	C	10/17/2016	10:47	-132.116	44.806	0	75.80	0	9.5910	0	32.8610	0	25.351	0	75.172	0	263.0	4	93.5	4	-1E+10	1	-1E+10	1	-1E+10	1	-1E+10	1	-1E+10	1	-1E+10	1
4901784	47	C	10/17/2016	10:47	-132.116	44.806	0	77.30	0	9.5430	0	32.8570	0	25.356	0	76.660	0	262.5	4	93.2	4	-1E+10	1	-1E+10	1	-1E+10	1	-1E+10	1	-1E+10	1	-1E+10	1
4901784	47	C	10/17/2016	10:47	-132.116	44.806	0	78.90	0	9.4980	0	32.8590	0	25.365	0	78.246	0	261.4	4	92.7	4	-1E+10	1	-1E+10	1	-1E+10	1	-1E+10	1	-1E+10	1	-1E+10	1
4901784	47	C	10/17/2016	10:47	-132.116	44.806	0	80.40	0	9.4090	0	32.8630	0	25.382	0	79.733	0	260.7	4	92.3	4	-1E+10	1	-1E+10	1	-1E+10	1	-1E+10	1	-1E+10	1	-1E+10	1
4901784	47	C	10/17/2016	10:47	-132.116	44.806	0	82.00	0	9.4130	0	32.8750	0	25.391	0	81.320	0	259.2	4	91.8	4	-1E+10	1	-1E+10	1	-1E+10	1	-1E+10	1	-1E+10	1	-1E+10	1
4901784	47	C	10/17/2016	10:47	-132.116	44.806	0	83.70	0	9.4060	0	32.8890	0	25.403	0	83.005	0	258.2	4	91.4	4	-1E+10	1	-1E+10	1	-1E+10	1	-1E+10	1	-1E+10	1	-1E+10	1
4901784	47	C	10/17/2016	10:47	-132.116	44.806	0	85.30	0	9.3460	0	32.8910	0	25.414	0	84.592	0	258.0	4	91.2	4	-1E+10	1	-1E+10	1	-1E+10	1	-1E+10	1	-1E+10	1	-1E+10	1
4901784	47	C	10/17/2016	10:47	-132.116	44.806	0	86.90	0	9.3680	0	32.8990	0	25.417	0	86.178	0	257.2	4	91.0	4	-1E+10	1	-1E+10	1	-1E+10	1	-1E+10	1	-1E+10	1	-1E+10	1
4901784	47	C	10/17/2016	10:47	-132.116	44.806	0	88.50	0	9.3150	0	32.9020	0	25.428	0	87.764	0	256.4	4	90.6	4	-1E+10	1	-1E+10	1	-1E+10	1	-1E+10	1	-1E+10	1	-1E+10	1
4901784	47	C	10/17/2016	10:47	-132.116	44.806	0	90.10	0	9.2370	0	32.9000	0	25.439	0	89.351	0	256.1	4	90.3	4	-1E+10	1	-1E+10	1	-1E+10	1	-1E+10	1	-1E+10	1	-1E+10	1
4901784	47	C	10/17/2016	10:47	-132.116	44.806	0	91.80	0	9.1950	0	32.8960	0	25.442	0	91.036	0	255.5	4	90.1	4	-1E+10	1	-1E+10	1	-1E+10	1	-1E+10	1	-1E+10	1	-1E+10	1
4901784	47	C	10/17/2016	10:47	-132.116	44.806	0	93.60	0	9.2160	0	32.9160	0	25.454	0	92.821	0	253.8	4	89.5	4	-1E+10	1	-1E+10	1	-1E+10	1	-1E+10	1	-1E+10	1	-1E+10	1
4901784	47	C	10/17/2016	10:47	-132.116	44.806	0	95.30	0	9.2360	0	32.9270	0	25.460	0	94.506	0	252.5	4	89.1	4	-1E+10	1	-1E+10	1	-1E+10	1	-1E+10	1	-1E+10	1	-1E+10	1
4901784	47	C	10/17/2016	10:47	-132.116	44.806	0	97.00	0	9.1860	0	32.9420	0	25.480	0	96.192	0	251.2	4	88.6	4	-1E+10	1	-1E+10	1	-1E+10	1	-1E+10	1	-1E+10	1	-1E+10	1
4901784	47	C	10/17/2016	10:47	-132.116	44.806	0	98.70	0	9.1500	0	32.9620	0	25.501	0	97.877	0	249.4	4	87.9	4	-1E+10	1	-1E+10	1	-1E+10	1	-1E+10	1	-1E+10	1	-1E+10	1
4901784	47	C	10/17/2016	10:47	-132.116	44.806	0	100.40	0	9.1650	0	32.9710	0	25.506	0	99.563	0	248.0	4	87.4	4	-1E+10	1	-1E+10	1	-1E+10	1	-1E+10	1	-1E+10	1	-1E+10	1
4901784	47	C	10/17/2016	10:47	-132.116	44.806	0	102.20	0	9.1740	0	32.9850	0	25.515	0	101.347	0	246.1	4	86.8	4	-1E+10	1	-1E+10	1	-1E+10	1	-1E+10	1	-1E+10	1	-1E+10	1
4901784	47	C	10/17/2016	10:47	-132.116	44.806	0	104.80	0	9.1850	0	33.0230	0	25.543	0	103.925	0	241.9	4	85.3	4	-1E+10	1	-1E+10	1	-1E+10	1	-1E+10	1	-1E+10	1	-1E+10	1
4901784	47	C	10/17/2016	10:47	-132.116	44.806	0	107.70	0	9.1770	0	33.0470	0	25.563	0	106.800	0	237.1	4	83.6	4	-1E+10	1	-1E+10	1	-1E+10	1	-1E+10	1	-1E+10	1	-1E+10	1
4901784	47	C	10/17/2016	10:47	-132.116	44.806	0	110.20	0	9.1520	0	33.1050	0	25.613	0	109.278	0	230.7	4	81.4	4	-1E+10	1	-1E+10	1	-1E+10	1	-1E+10	1	-1E+10	1	-1E+10	1
4901784	47	C	10/17/2016	10:47	-132.116	44.806	0	112.30	0	9.1360	0	33.1650	0	25.662	0	111.360	0	225.0	4	79.4	4	-1E+10	1	-1E+10	1	-1E+10	1	-1E+10	1	-1E+10	1	-1E+10	1
4901784	47	C	10/17/2016	10:47	-132.116	44.806	0	114.50	0	9.0900	0	33.2070	0	25.702	0	113.541	0	219.8	4	77.5	4	-1E+10	1	-1E+10	1	-1E+10	1	-1E+10	1	-1E+10	1	-1E+10	1
4901784	47	C	10/17/2016	10:47	-132.116	44.806	0	117.50	0	9.0190	0	33.2790	0	25.770	0	116.515	0	213.6	4	75.2	4	-1E+10	1	-1E+10	1	-1E+10	1	-1E+10	1	-1E+10	1	-1E+10	1
4901784	47	C	10/17/2016	10:47	-132.116	44.806	0	119.80	0	8.9800	0	33.3440	0	25.827	0	118.795	0	209.6	4	73.8	4	-1E+10	1	-1E+10	1	-1E+10	1	-1E+10	1	-1E+10	1	-1E+10	1
4901784	47	C	10/17/2016	10:47	-132.116	44.806	0	122.20	0	8.9110	0	33.4380	0	25.911	0	121.174	0	206.1	4	72.5	4	-1E+10	1	-1E+10	1	-1E+10	1	-1E+10	1	-1E+10	1	-1E+10	1
4901784	47	C	10/17/2016	10:47	-132.116	44.806	0	124.70	0	8.8770	0	33.5010	0	25.966	0	123.653	0	204.1	4	71.7	4	-1E+10	1	-1E+10	1	-1E+10	1	-1E+10	1	-1E+10	1	-1E+10	1
4901784	47	C	10/17/2016	10:47	-132.116	44.806	0	127.20	0	8.8660	0	33.5240	0	25.986	0	126.131	0	202.0	4	71.0	4	-1E+10	1	-1E+10	1	-1E+10	1	-1E+10	1	-1E+10	1	-1E+10	1
4901784	47	C	10/17/2016	10:47	-132.116	44.806	0	129.80	0	8.8160	0	33.6730	0	26.110	0	128.708	0	198.9	4	69.9	4	-1E+10	1	-1E+10	1	-1E+10	1	-1E+10	1	-1E+10	1	-1E+10	1
4901784	47	C	10/17/2016	10:47	-132.116	44.806	0	132.40	0	8.8460	0	33.7120	0	26.136	0	131.285	0	197.3	4	69.4	4	-1E+10	1	-1E+10	1	-1E+10	1	-1E+10	1	-1E+10	1	-1E+10	1
4901784	47	C	10/17/2016	10:47	-132.116	44.806	0	135.00	0	8.8440	0	33.7550	0	26.170	0	133.863	0	194.9	4	68.6	4	-1E+10	1	-1E+10	1	-1E+10	1	-1E+10	1	-1E+10	1	-1E+10	1
4901784	47	C	10/17/2016	10:47	-132.116	44.806	0	137.60	0	8.8120	0	33.7710	0	26.188	0	136.440	0	192.2	4	67.6	4	-1E+10	1	-1E+10	1	-1E+10	1	-1E+10	1	-1E+10	1	-1E+10	1
4901784	47	C	10/17/2016	10:47	-132.116	44.806	0	140.30	0	8.7620	0	33.7760	0	26.200	0	139.116	0	189.0	4	66.4	4	-1E+10	1	-1E+10	1	-1E+10	1	-1E+10	1	-1E+10	1	-1E+10	1
4901784	47	C	10/17/2016	10:47	-132.116	44.806	0	142.10	0	8.6480	0	33.7870	0	26.226	0	140.901	0	187.4	4	65.7	4	-1E+10	1	-1E+10	1	-1E+10	1	-1E+10	1	-1E+10	1	-1E+10	1
4901784	47	C	10/17/2016	10:47	-132.116	44.806	0	144.80	0	8.5010	0	33.7900	0	26.251	0	143.577	0	185.6	4	64.8	4	-1E+10	1	-1E+10	1	-1E+10	1	-1E+10	1	-1E+10	1	-1E+10	1
4901784	47	C	10/17/2016	10:47	-132.116	44.806	0	148.10	0	8.3910	0	33.8080	0	26.282	0	146.848	0	184.4	4	64.3	4	-1E+10	1	-1E+10	1	-1E+10	1	-1E+10	1	-1E+10	1	-1E+10	1
4901784	47	C	10/17/2016	10:47	-132.116	44.806	0	149.90	0	8.3460	0	33.8090	0	26.289	0	148.632	0	183.7	4	64.0	4	-1E+10	1	-1E+10	1	-1E+10	1	-1E+10	1	-1E+10	1	-1E+10	1
4901784	47	C	10/17/2016	10:47	-132.116	44.806	0	152.10	0	8.2790	0	33.8230	0	26.310	0	150.812	0	182.9	4	63.6	4	-1E+10	1	-1E+10	1	-1E+10	1	-1E+10	1	-1E+10	1	-1E+10	1
4901784	47	C	10/17/2016	10:47	-132.116	44.806	0	155.20	0	8.2190	0	33.8360	0	26.330	0	153.885	0	182.1	4	63.2	4	-1E+10	1	-1E+10	1	-1E+10	1	-1E+10	1	-1E+10	1	-1E+10	1
4901784	47	C	10/17/2016	10:47	-132.116	44.806	0	157.60	0	8.1840	0	33.8400	0	26.338	0	156.264	0	181.6	4	63.0	4	-1E+10	1	-1E+10	1	-1E+10	1	-1E+10	1	-1E+10	1	-1E+10	1
4901784	47	C	10/17/2016	10:47	-132.116	44.806	0	160.00	0	8.1650	0	33.8450	0	26.345	0	158.643	0	181.0	4	62.8	4	-1E+10	1	-1E+10	1	-1E+10	1	-1E+10	1	-1E+10	1	-1E+10	1
4901784	47	C	10/17/2016	10:47	-132.116	44.806	0	162.40	0	8.1520	0	33.8500	0	26.351	0	161.021	0	180.4	4	62.6	4	-1E+10	1	-1E+10	1	-1E+10	1	-1E+10	1	-1E+10	1	-1E+10	1
4901784	47	C	10/17/2016	10:47	-132.116	44.806	0	164.90	0	8.1310	0	33.8570	0	26.359	0	163.499	0	179.7	4	62.3	4	-1E+10	1	-1E+10	1	-1E+10	1	-1E+10	1	-1E+10	1	-1E+10	1
4901784	47	C	10/17/2016	10:47	-132.116	44.806	0	167.30	0	8.1230	0	33.8580	0	26.361	0	165.878	0	179.0	4	62.0	4	-1E+10	1	-1E+10	1	-1E+10	1	-1E+10	1	-1E+10	1	-1E+10	1
4901784	47	C	10/17/2016	10:47	-132.116	44.806	0	169.70	0	8.0910	0	33.8640	0	26.371	0	168.256	0	177.9	4	61.6	4	-1E+10	1	-1E+10	1	-1E+10	1	-1E+10	1	-1E+10	1	-1E+10	1
4901784	47	C	10/17/2016	10:47	-132.116	44.806	0	172.20	0	8.0410	0	33.8690	0	26.382	0	170.734	0	177.1	4	61.3	4	-1E+10	1	-1E+10	1	-1E+10	1	-1E+10	1	-1E+10	1	-1E+10	1
4901784	47	C	10/17/2016	10:47	-132.116	44.806	0	174.70	0	8.0060	0	33.8720	0	26.390	0	173.212	0	176.1	4	60.9	4	-1E+10	1	-1E+10	1	-1E+10	1	-1E+10	1	-1E+10	1	-1E+10	1
4901784	47	C	10/17/2016	10:47	-132.116	44.806	0	177.20	0	7.9860	0	33.8730	0	26.394	0	175.689	0	174.9	4	60.5	4	-1E+10	1	-1E+10	1	-1E+10	1	-1E+10	1	-1E+10	1	-1E+10	1
4901784	47	C	10/17/2016	10:47	-132.116	44.806	0	179.70	0	7.9530	0	33.8790	0	26.403	0	178.167	0	173.3	4	59.8	4	-1E+10	1	-1E+10	1	-1E+10	1	-1E+10	1	-1E+10	1	-1E+10	1
4901784	47	C	10/17/2016	10:47	-132.116	44.806	0	182.30	0	7.8780	0	33.8850	0	26.419	0	180.744	0	171.8	4	59.2	4	-1E+10	1	-1E+10	1	-1E+10	1	-1E+10	1	-1E+10	1	-1E+10	1
4901784	47	C	10/17/2016	10:47	-132.116	44.806	0	184.90	0	7.8210	0	33.8910	0	26.432	0	183.320	0	171.0	4	58.9	4	-1E+10	1	-1E+10	1	-1E+10	1	-1E+10	1	-1E+10	1	-1E+10	1
4901784	47	C	10/17/2016	10:47	-132.116	44.806	0	187.50	0	7.7970	0	33.8940	0	26.438	0	185.897	0	170.0	4	58.5	4	-1E+10	1	-1E+10	1	-1E+10	1	-1E+10	1	-1E+10	1	-1E+10	1
4901784	47	C	10/17/2016	10:47	-132.116	44.806	0	190.10	0	7.7660	0	33.8960	0	26.444	0	188.473	0	168.9	4	58.1	4	-1E+10	1	-1E+10	1	-1E+10	1	-1E+10	1	-1E+10	1	-1E+10	1
4901784	47	C	10/17/2016	10:47	-132.116	44.806	0	192.70	0	7.7240	0	33.8970	0	26.451	0	191.050	0	168.0	4	57.7	4	-1E+10	1	-1E+10	1	-1E+10	1	-1E+10	1	-1E+10	1	-1E+10	1
4901784	47	C	10/17/2016	10:47	-132.116	44.806	0	195.30	0	7.6750	0	33.9000	0	26.460	0	193.627	0	167.2	4	57.4	4	-1E+10	1	-1E+10	1	-1E+10	1	-1E+10	1	-1E+10	1	-1E+10	1
4901784	47	C	10/17/2016	10:47	-132.116	44.806	0	197.80	0	7.6260	0	33.9040	0	26.471	0	196.104	0	166.3	4	57.0	4	-1E+10	1	-1E+10	1	-1E+10	1	-1E+10	1	-1E+10	1	-1E+10	1
4901784	47	C	10/17/2016	10:47	-132.116	44.806	0	200.40	0	7.5870	0	33.9010	0	26.474	0	198.680	0	165.7	4	56.8	4	-1E+10	1	-1E+10	1	-1E+10	1	-1E+10	1	-1E+10	1	-1E+10	1
4901784	47	C	10/17/2016	10:47	-132.116	44.806	0	203.00	0	7.5690	0	33.9020	0	26.477	0	201.257	0	164.7	4	56.4	4	-1E+10	1	-1E+10	1	-1E+10	1	-1E+10	1	-1E+10	1	-1E+10	1
4901784	47	C	10/17/2016	10:47	-132.116	44.806	0	204.70	0	7.5500	0	33.9010	0	26.479	0	202.941	0	164.1	4	56.2	4	-1E+10	1	-1E+10	1	-1E+10	1	-1E+10	1	-1E+10	1	-1E+10	1
4901784	47	C	10/17/2016	10:47	-132.116	44.806	0	207.30	0	7.5080	0	33.9040	0	26.488	0	205.518	0	163.0	4	55.7	4	-1E+10	1	-1E+10	1	-1E+10	1	-1E+10	1	-1E+10	1	-1E+10	1
4901784	47	C	10/17/2016	10:47	-132.116	44.806	0	209.90	0	7.4810	0	33.9070	0	26.494	0	208.094	0	162.0	4	55.4	4	-1E+10	1	-1E+10	1	-1E+10	1	-1E+10	1	-1E+10	1	-1E+10	1
4901784	47	C	10/17/2016	10:47	-132.116	44.806	0	212.50	0	7.4470	0	33.9130	0	26.503	0	210.670	0	161.1	4	55.0	4	-1E+10	1	-1E+10	1	-1E+10	1	-1E+10	1	-1E+10	1	-1E+10	1
4901784	47	C	10/17/2016	10:47	-132.116	44.806	0	215.10	0	7.4330	0	33.9150	0	26.507	0	213.247	0	160.3	4	54.7	4	-1E+10	1	-1E+10	1	-1E+10	1	-1E+10	1	-1E+10	1	-1E+10	1
4901784	47	C	10/17/2016	10:47	-132.116	44.806	0	217.70	0	7.4070	0	33.9150	0	26.511	0	215.823	0	159.1	4	54.3	4	-1E+10	1	-1E+10	1	-1E+10	1	-1E+10	1	-1E+10	1	-1E+10	1
4901784	47	C	10/17/2016	10:47	-132.116	44.806	0	220.40	0	7.3300	0	33.9120	0	26.519	0	218.498	0	158.0	4	53.8	4	-1E+10	1	-1E+10	1	-1E+10	1	-1E+10	1	-1E+10	1	-1E+10	1
4901784	47	C	10/17/2016	10:47	-132.116	44.806	0	222.00	0	7.3150	0	33.9160	0	26.524	0	220.084	0	157.4	4	53.6	4	-1E+10	1	-1E+10	1	-1E+10	1	-1E+10	1	-1E+10	1	-1E+10	1
4901784	47	C	10/17/2016	10:47	-132.116	44.806	0	224.60	0	7.2990	0	33.9180	0	26.528	0	222.660	0	156.1	4	53.1	4	-1E+10	1	-1E+10	1	-1E+10	1	-1E+10	1	-1E+10	1	-1E+10	1
4901784	47	C	10/17/2016	10:47	-132.116	44.806	0	227.30	0	7.2570	0	33.9180	0	26.534	0	225.335	0	155.0	4	52.7	4	-1E+10	1	-1E+10	1	-1E+10	1	-1E+10	1	-1E+10	1	-1E+10	1
4901784	47	C	10/17/2016	10:47	-132.116	44.806	0	229.80	0	7.1860	0	33.9180	0	26.544	0	227.812	0	154.2	4	52.3	4	-1E+10	1	-1E+10	1	-1E+10	1	-1E+10	1	-1E+10	1	-1E+10	1
4901784	47	C	10/17/2016	10:47	-132.116	44.806	0	232.40	0	7.1670	0	33.9170	0	26.546	0	230.388	0	153.3	4	52.0	4	-1E+10	1	-1E+10	1	-1E+10	1	-1E+10	1	-1E+10	1	-1E+10	1
4901784	47	C	10/17/2016	10:47	-132.116	44.806	0	235.00	0	7.1410	0	33.9160	0	26.549	0	232.964	0	152.1	4	51.6	4	-1E+10	1	-1E+10	1	-1E+10	1	-1E+10	1	-1E+10	1	-1E+10	1
4901784	47	C	10/17/2016	10:47	-132.116	44.806	0	237.60	0	7.1070	0	33.9150	0	26.553	0	235.540	0	151.0	4	51.2	4	-1E+10	1	-1E+10	1	-1E+10	1	-1E+10	1	-1E+10	1	-1E+10	1
4901784	47	C	10/17/2016	10:47	-132.116	44.806	0	240.20	0	7.0620	0	33.9160	0	26.560	0	238.116	0	149.7	4	50.7	4	-1E+10	1	-1E+10	1	-1E+10	1	-1E+10	1	-1E+10	1	-1E+10	1
4901784	47	C	10/17/2016	10:47	-132.116	44.806	0	242.80	0	7.0360	0	33.9160	0	26.563	0	240.692	0	148.3	4	50.2	4	-1E+10	1	-1E+10	1	-1E+10	1	-1E+10	1	-1E+10	1	-1E+10	1
4901784	47	C	10/17/2016	10:47	-132.116	44.806	0	244.60	0	7.0100	0	33.9160	0	26.567	0	242.475	0	147.3	4	49.8	4	-1E+10	1	-1E+10	1	-1E+10	1	-1E+10	1	-1E+10	1	-1E+10	1
4901784	47	C	10/17/2016	10:47	-132.116	44.806	0	247.20	0	6.9790	0	33.9160	0	26.571	0	245.051	0	145.6	4	49.2	4	-1E+10	1	-1E+10	1	-1E+10	1	-1E+10	1	-1E+10	1	-1E+10	1
4901784	47	C	10/17/2016	10:47	-132.116	44.806	0	249.80	0	6.9230	0	33.9180	0	26.580	0	247.627	0	144.0	4	48.6	4	-1E+10	1	-1E+10	1	-1E+10	1	-1E+10	1	-1E+10	1	-1E+10	1
4901784	47	C	10/17/2016	10:47	-132.116	44.806	0	252.30	0	6.8880	0	33.9180	0	26.585	0	250.104	0	142.4	4	48.0	4	-1E+10	1	-1E+10	1	-1E+10	1	-1E+10	1	-1E+10	1	-1E+10	1
4901784	47	C	10/17/2016	10:47	-132.116	44.806	0	254.80	0	6.8320	0	33.9170	0	26.592	0	252.580	0	140.9	4	47.5	4	-1E+10	1	-1E+10	1	-1E+10	1	-1E+10	1	-1E+10	1	-1E+10	1
4901784	47	C	10/17/2016	10:47	-132.116	44.806	0	257.40	0	6.7920	0	33.9190	0	26.599	0	255.156	0	139.6	4	47.0	4	-1E+10	1	-1E+10	1	-1E+10	1	-1E+10	1	-1E+10	1	-1E+10	1
4901784	47	C	10/17/2016	10:47	-132.116	44.806	0	260.00	0	6.7520	0	33.9180	0	26.603	0	257.732	0	138.2	4	46.5	4	-1E+10	1	-1E+10	1	-1E+10	1	-1E+10	1	-1E+10	1	-1E+10	1
4901784	47	C	10/17/2016	10:47	-132.116	44.806	0	262.60	0	6.6820	0	33.9190	0	26.614	0	260.308	0	137.1	4	46.0	4	-1E+10	1	-1E+10	1	-1E+10	1	-1E+10	1	-1E+10	1	-1E+10	1
4901784	47	C	10/17/2016	10:47	-132.116	44.806	0	265.30	0	6.6590	0	33.9200	0	26.617	0	262.982	0	135.8	4	45.5	4	-1E+10	1	-1E+10	1	-1E+10	1	-1E+10	1	-1E+10	1	-1E+10	1
4901784	47	C	10/17/2016	10:47	-132.116	44.806	0	267.80	0	6.6450	0	33.9200	0	26.619	0	265.459	0	134.7	4	45.2	4	-1E+10	1	-1E+10	1	-1E+10	1	-1E+10	1	-1E+10	1	-1E+10	1
4901784	47	C	10/17/2016	10:47	-132.116	44.806	0	270.40	0	6.6250	0	33.9190	0	26.621	0	268.034	0	133.3	4	44.7	4	-1E+10	1	-1E+10	1	-1E+10	1	-1E+10	1	-1E+10	1	-1E+10	1
4901784	47	C	10/17/2016	10:47	-132.116	44.806	0	272.20	0	6.5920	0	33.9230	0	26.629	0	269.818	0	132.0	4	44.2	4	-1E+10	1	-1E+10	1	-1E+10	1	-1E+10	1	-1E+10	1	-1E+10	1
4901784	47	C	10/17/2016	10:47	-132.116	44.806	0	274.80	0	6.5690	0	33.9210	0	26.630	0	272.393	0	130.5	4	43.7	4	-1E+10	1	-1E+10	1	-1E+10	1	-1E+10	1	-1E+10	1	-1E+10	1
4901784	47	C	10/17/2016	10:47	-132.116	44.806	0	277.40	0	6.5450	0	33.9230	0	26.635	0	274.969	0	129.1	4	43.2	4	-1E+10	1	-1E+10	1	-1E+10	1	-1E+10	1	-1E+10	1	-1E+10	1
4901784	47	C	10/17/2016	10:47	-132.116	44.806	0	280.10	0	6.4930	0	33.9230	0	26.642	0	277.643	0	127.3	4	42.5	4	-1E+10	1	-1E+10	1	-1E+10	1	-1E+10	1	-1E+10	1	-1E+10	1
4901784	47	C	10/17/2016	10:47	-132.116	44.806	0	282.80	0	6.4680	0	33.9230	0	26.645	0	280.318	0	125.7	4	42.0	4	-1E+10	1	-1E+10	1	-1E+10	1	-1E+10	1	-1E+10	1	-1E+10	1
4901784	47	C	10/17/2016	10:47	-132.116	44.806	0	284.50	0	6.4120	0	33.9250	0	26.654	0	282.001	0	125.1	4	41.7	4	-1E+10	1	-1E+10	1	-1E+10	1	-1E+10	1	-1E+10	1	-1E+10	1
4901784	47	C	10/17/2016	10:47	-132.116	44.806	0	287.20	0	6.3740	0	33.9230	0	26.657	0	284.676	0	124.0	4	41.3	4	-1E+10	1	-1E+10	1	-1E+10	1	-1E+10	1	-1E+10	1	-1E+10	1
4901784	47	C	10/17/2016	10:47	-132.116	44.806	0	289.90	0	6.3180	0	33.9240	0	26.665	0	287.350	0	122.9	4	40.9	4	-1E+10	1	-1E+10	1	-1E+10	1	-1E+10	1	-1E+10	1	-1E+10	1
4901784	47	C	10/17/2016	10:47	-132.116	44.806	0	292.60	0	6.2710	0	33.9250	0	26.672	0	290.025	0	122.0	4	40.6	4	-1E+10	1	-1E+10	1	-1E+10	1	-1E+10	1	-1E+10	1	-1E+10	1
4901784	47	C	10/17/2016	10:47	-132.116	44.806	0	295.30	0	6.2350	0	33.9250	0	26.677	0	292.699	0	121.1	4	40.2	4	-1E+10	1	-1E+10	1	-1E+10	1	-1E+10	1	-1E+10	1	-1E+10	1
4901784	47	C	10/17/2016	10:47	-132.116	44.806	0	297.10	0	6.2290	0	33.9240	0	26.677	0	294.482	0	120.5	4	40.0	4	-1E+10	1	-1E+10	1	-1E+10	1	-1E+10	1	-1E+10	1	-1E+10	1
4901784	47	C	10/17/2016	10:47	-132.116	44.806	0	299.80	0	6.1960	0	33.9240	0	26.681	0	297.156	0	119.3	4	39.6	4	-1E+10	1	-1E+10	1	-1E+10	1	-1E+10	1	-1E+10	1	-1E+10	1
4901784	47	C	10/17/2016	10:47	-132.116	44.806	0	302.40	0	6.1540	0	33.9240	0	26.686	0	299.731	0	118.0	4	39.1	4	-1E+10	1	-1E+10	1	-1E+10	1	-1E+10	1	-1E+10	1	-1E+10	1
4901784	47	C	10/17/2016	10:47	-132.116	44.806	0	305.20	0	6.1120	0	33.9240	0	26.692	0	302.505	0	116.8	4	38.7	4	-1E+10	1	-1E+10	1	-1E+10	1	-1E+10	1	-1E+10	1	-1E+10	1
4901784	47	C	10/17/2016	10:47	-132.116	44.806	0	307.90	0	6.0860	0	33.9240	0	26.695	0	305.179	0	115.6	4	38.3	4	-1E+10	1	-1E+10	1	-1E+10	1	-1E+10	1	-1E+10	1	-1E+10	1
4901784	47	C	10/17/2016	10:47	-132.116	44.806	0	309.80	0	6.0550	0	33.9250	0	26.700	0	307.061	0	114.9	4	38.0	4	-1E+10	1	-1E+10	1	-1E+10	1	-1E+10	1	-1E+10	1	-1E+10	1
4901784	47	C	10/17/2016	10:47	-132.116	44.806	0	312.60	0	6.0320	0	33.9250	0	26.703	0	309.834	0	113.8	4	37.6	4	-1E+10	1	-1E+10	1	-1E+10	1	-1E+10	1	-1E+10	1	-1E+10	1
4901784	47	C	10/17/2016	10:47	-132.116	44.806	0	315.30	0	6.0010	0	33.9250	0	26.707	0	312.508	0	112.2	4	37.1	4	-1E+10	1	-1E+10	1	-1E+10	1	-1E+10	1	-1E+10	1	-1E+10	1
4901784	47	C	10/17/2016	10:47	-132.116	44.806	0	317.20	0	5.9770	0	33.9250	0	26.710	0	314.389	0	111.2	4	36.7	4	-1E+10	1	-1E+10	1	-1E+10	1	-1E+10	1	-1E+10	1	-1E+10	1
4901784	47	C	10/17/2016	10:47	-132.116	44.806	0	320.10	0	5.9250	0	33.9260	0	26.717	0	317.262	0	109.8	4	36.2	4	-1E+10	1	-1E+10	1	-1E+10	1	-1E+10	1	-1E+10	1	-1E+10	1
4901784	47	C	10/17/2016	10:47	-132.116	44.806	0	322.90	0	5.8940	0	33.9270	0	26.722	0	320.035	0	108.5	4	35.8	4	-1E+10	1	-1E+10	1	-1E+10	1	-1E+10	1	-1E+10	1	-1E+10	1
4901784	47	C	10/17/2016	10:47	-132.116	44.806	0	324.70	0	5.8760	0	33.9270	0	26.724	0	321.817	0	107.5	4	35.4	4	-1E+10	1	-1E+10	1	-1E+10	1	-1E+10	1	-1E+10	1	-1E+10	1
4901784	47	C	10/17/2016	10:47	-132.116	44.806	0	327.60	0	5.8430	0	33.9300	0	26.730	0	324.689	0	106.2	4	35.0	4	-1E+10	1	-1E+10	1	-1E+10	1	-1E+10	1	-1E+10	1	-1E+10	1
4901784	47	C	10/17/2016	10:47	-132.116	44.806	0	330.40	0	5.8090	0	33.9300	0	26.734	0	327.462	0	105.2	4	34.6	4	-1E+10	1	-1E+10	1	-1E+10	1	-1E+10	1	-1E+10	1	-1E+10	1
4901784	47	C	10/17/2016	10:47	-132.116	44.806	0	332.30	0	5.7950	0	33.9300	0	26.736	0	329.344	0	104.6	4	34.4	4	-1E+10	1	-1E+10	1	-1E+10	1	-1E+10	1	-1E+10	1	-1E+10	1
4901784	47	C	10/17/2016	10:47	-132.116	44.806	0	334.20	0	5.7840	0	33.9300	0	26.738	0	331.225	0	104.0	4	34.2	4	-1E+10	1	-1E+10	1	-1E+10	1	-1E+10	1	-1E+10	1	-1E+10	1
4901784	47	C	10/17/2016	10:47	-132.116	44.806	0	337.30	0	5.7560	0	33.9310	0	26.742	0	334.295	0	102.8	4	33.8	4	-1E+10	1	-1E+10	1	-1E+10	1	-1E+10	1	-1E+10	1	-1E+10	1
4901784	47	C	10/17/2016	10:47	-132.116	44.806	0	340.20	0	5.7290	0	33.9320	0	26.746	0	337.167	0	101.4	4	33.3	4	-1E+10	1	-1E+10	1	-1E+10	1	-1E+10	1	-1E+10	1	-1E+10	1
4901784	47	C	10/17/2016	10:47	-132.116	44.806	0	342.70	0	5.7130	0	33.9320	0	26.748	0	339.643	0	100.2	4	32.9	4	-1E+10	1	-1E+10	1	-1E+10	1	-1E+10	1	-1E+10	1	-1E+10	1
4901784	47	C	10/17/2016	10:47	-132.116	44.806	0	345.20	0	5.6900	0	33.9330	0	26.752	0	342.118	0	98.7	4	32.4	4	-1E+10	1	-1E+10	1	-1E+10	1	-1E+10	1	-1E+10	1	-1E+10	1
4901784	47	C	10/17/2016	10:47	-132.116	44.806	0	347.60	0	5.6500	0	33.9350	0	26.758	0	344.495	0	97.5	4	32.0	4	-1E+10	1	-1E+10	1	-1E+10	1	-1E+10	1	-1E+10	1	-1E+10	1
4901784	47	C	10/17/2016	10:47	-132.116	44.806	0	350.10	0	5.5980	0	33.9330	0	26.763	0	346.970	0	96.5	4	31.6	4	-1E+10	1	-1E+10	1	-1E+10	1	-1E+10	1	-1E+10	1	-1E+10	1
4901784	47	C	10/17/2016	10:47	-132.116	44.806	0	352.60	0	5.5690	0	33.9360	0	26.769	0	349.446	0	94.9	4	31.1	4	-1E+10	1	-1E+10	1	-1E+10	1	-1E+10	1	-1E+10	1	-1E+10	1
4901784	47	C	10/17/2016	10:47	-132.116	44.806	0	355.10	0	5.5530	0	33.9370	0	26.771	0	351.922	0	93.4	4	30.5	4	-1E+10	1	-1E+10	1	-1E+10	1	-1E+10	1	-1E+10	1	-1E+10	1
4901784	47	C	10/17/2016	10:47	-132.116	44.806	0	357.70	0	5.5510	0	33.9380	0	26.772	0	354.496	0	91.1	4	29.8	4	-1E+10	1	-1E+10	1	-1E+10	1	-1E+10	1	-1E+10	1	-1E+10	1
4901784	47	C	10/17/2016	10:47	-132.116	44.806	0	360.20	0	5.5520	0	33.9420	0	26.775	0	356.971	0	88.5	4	28.9	4	-1E+10	1	-1E+10	1	-1E+10	1	-1E+10	1	-1E+10	1	-1E+10	1
4901784	47	C	10/17/2016	10:47	-132.116	44.806	0	362.80	0	5.5250	0	33.9480	0	26.783	0	359.546	0	86.3	4	28.2	4	-1E+10	1	-1E+10	1	-1E+10	1	-1E+10	1	-1E+10	1	-1E+10	1
4901784	47	C	10/17/2016	10:47	-132.116	44.806	0	365.40	0	5.5110	0	33.9510	0	26.788	0	362.120	0	84.5	4	27.6	4	-1E+10	1	-1E+10	1	-1E+10	1	-1E+10	1	-1E+10	1	-1E+10	1
4901784	47	C	10/17/2016	10:47	-132.116	44.806	0	367.10	0	5.5070	0	33.9520	0	26.789	0	363.804	0	83.6	4	27.3	4	-1E+10	1	-1E+10	1	-1E+10	1	-1E+10	1	-1E+10	1	-1E+10	1
4901784	47	C	10/17/2016	10:47	-132.116	44.806	0	369.70	0	5.5040	0	33.9520	0	26.789	0	366.378	0	82.2	4	26.8	4	-1E+10	1	-1E+10	1	-1E+10	1	-1E+10	1	-1E+10	1	-1E+10	1
4901784	47	C	10/17/2016	10:47	-132.116	44.806	0	372.30	0	5.4860	0	33.9540	0	26.793	0	368.952	0	80.3	4	26.2	4	-1E+10	1	-1E+10	1	-1E+10	1	-1E+10	1	-1E+10	1	-1E+10	1
4901784	47	C	10/17/2016	10:47	-132.116	44.806	0	374.90	0	5.4440	0	33.9610	0	26.804	0	371.527	0	78.8	4	25.7	4	-1E+10	1	-1E+10	1	-1E+10	1	-1E+10	1	-1E+10	1	-1E+10	1
4901784	47	C	10/17/2016	10:47	-132.116	44.806	0	377.50	0	5.4390	0	33.9620	0	26.805	0	374.101	0	77.8	4	25.4	4	-1E+10	1	-1E+10	1	-1E+10	1	-1E+10	1	-1E+10	1	-1E+10	1
4901784	47	C	10/17/2016	10:47	-132.116	44.806	0	380.10	0	5.4280	0	33.9640	0	26.808	0	376.675	0	76.9	4	25.1	4	-1E+10	1	-1E+10	1	-1E+10	1	-1E+10	1	-1E+10	1	-1E+10	1
4901784	47	C	10/17/2016	10:47	-132.116	44.806	0	382.70	0	5.4150	0	33.9660	0	26.811	0	379.249	0	76.3	4	24.9	4	-1E+10	1	-1E+10	1	-1E+10	1	-1E+10	1	-1E+10	1	-1E+10	1
4901784	47	C	10/17/2016	10:47	-132.116	44.806	0	385.30	0	5.4060	0	33.9670	0	26.813	0	381.823	0	76.1	4	24.8	4	-1E+10	1	-1E+10	1	-1E+10	1	-1E+10	1	-1E+10	1	-1E+10	1
4901784	47	C	10/17/2016	10:47	-132.116	44.806	0	387.90	0	5.3970	0	33.9660	0	26.813	0	384.398	0	76.0	4	24.8	4	-1E+10	1	-1E+10	1	-1E+10	1	-1E+10	1	-1E+10	1	-1E+10	1
4901784	47	C	10/17/2016	10:47	-132.116	44.806	0	389.70	0	5.3740	0	33.9670	0	26.817	0	386.180	0	75.9	4	24.7	4	-1E+10	1	-1E+10	1	-1E+10	1	-1E+10	1	-1E+10	1	-1E+10	1
4901784	47	C	10/17/2016	10:47	-132.116	44.806	0	392.30	0	5.3410	0	33.9670	0	26.821	0	388.754	0	75.3	4	24.5	4	-1E+10	1	-1E+10	1	-1E+10	1	-1E+10	1	-1E+10	1	-1E+10	1
4901784	47	C	10/17/2016	10:47	-132.116	44.806	0	394.90	0	5.3330	0	33.9680	0	26.822	0	391.328	0	74.4	4	24.2	4	-1E+10	1	-1E+10	1	-1E+10	1	-1E+10	1	-1E+10	1	-1E+10	1
4901784	47	C	10/17/2016	10:47	-132.116	44.806	0	397.50	0	5.3260	0	33.9690	0	26.824	0	393.902	0	73.5	4	23.9	4	-1E+10	1	-1E+10	1	-1E+10	1	-1E+10	1	-1E+10	1	-1E+10	1
4901784	47	C	10/17/2016	10:47	-132.116	44.806	0	400.20	0	5.3230	0	33.9700	0	26.825	0	396.575	0	72.4	4	23.6	4	-1E+10	1	-1E+10	1	-1E+10	1	-1E+10	1	-1E+10	1	-1E+10	1
4901784	47	C	10/17/2016	10:47	-132.116	44.806	0	402.80	0	5.3280	0	33.9720	0	26.826	0	399.149	0	71.2	4	23.2	4	-1E+10	1	-1E+10	1	-1E+10	1	-1E+10	1	-1E+10	1	-1E+10	1
4901784	47	C	10/17/2016	10:47	-132.116	44.806	0	405.50	0	5.3100	0	33.9730	0	26.829	0	401.822	0	69.8	4	22.7	4	-1E+10	1	-1E+10	1	-1E+10	1	-1E+10	1	-1E+10	1	-1E+10	1
4901784	47	C	10/17/2016	10:47	-132.116	44.806	0	407.20	0	5.2870	0	33.9740	0	26.833	0	403.504	0	68.8	4	22.4	4	-1E+10	1	-1E+10	1	-1E+10	1	-1E+10	1	-1E+10	1	-1E+10	1
4901784	47	C	10/17/2016	10:47	-132.116	44.806	0	409.90	0	5.2730	0	33.9790	0	26.838	0	406.177	0	67.2	4	21.9	4	-1E+10	1	-1E+10	1	-1E+10	1	-1E+10	1	-1E+10	1	-1E+10	1
4901784	47	C	10/17/2016	10:47	-132.116	44.806	0	412.60	0	5.2680	0	33.9810	0	26.840	0	408.850	0	66.0	4	21.5	4	-1E+10	1	-1E+10	1	-1E+10	1	-1E+10	1	-1E+10	1	-1E+10	1
4901784	47	C	10/17/2016	10:47	-132.116	44.806	0	415.30	0	5.2480	0	33.9840	0	26.845	0	411.523	0	65.1	4	21.1	4	-1E+10	1	-1E+10	1	-1E+10	1	-1E+10	1	-1E+10	1	-1E+10	1
4901784	47	C	10/17/2016	10:47	-132.116	44.806	0	418.00	0	5.2070	0	33.9870	0	26.852	0	414.196	0	64.5	4	20.9	4	-1E+10	1	-1E+10	1	-1E+10	1	-1E+10	1	-1E+10	1	-1E+10	1
4901784	47	C	10/17/2016	10:47	-132.116	44.806	0	419.80	0	5.1900	0	33.9880	0	26.855	0	415.977	0	64.1	4	20.8	4	-1E+10	1	-1E+10	1	-1E+10	1	-1E+10	1	-1E+10	1	-1E+10	1
4901784	47	C	10/17/2016	10:47	-132.116	44.806	0	422.60	0	5.1790	0	33.9880	0	26.856	0	418.749	0	63.5	4	20.6	4	-1E+10	1	-1E+10	1	-1E+10	1	-1E+10	1	-1E+10	1	-1E+10	1
4901784	47	C	10/17/2016	10:47	-132.116	44.806	0	425.30	0	5.1620	0	33.9910	0	26.861	0	421.422	0	63.0	4	20.4	4	-1E+10	1	-1E+10	1	-1E+10	1	-1E+10	1	-1E+10	1	-1E+10	1
4901784	47	C	10/17/2016	10:47	-132.116	44.806	0	427.10	0	5.1240	0	33.9940	0	26.867	0	423.204	0	63.4	4	20.5	4	-1E+10	1	-1E+10	1	-1E+10	1	-1E+10	1	-1E+10	1	-1E+10	1
4901784	47	C	10/17/2016	10:47	-132.116	44.806	0	429.80	0	5.0740	0	33.9900	0	26.870	0	425.876	0	63.4	4	20.5	4	-1E+10	1	-1E+10	1	-1E+10	1	-1E+10	1	-1E+10	1	-1E+10	1
4901784	47	C	10/17/2016	10:47	-132.116	44.806	0	432.50	0	5.0670	0	33.9930	0	26.873	0	428.549	0	62.5	4	20.2	4	-1E+10	1	-1E+10	1	-1E+10	1	-1E+10	1	-1E+10	1	-1E+10	1
4901784	47	C	10/17/2016	10:47	-132.116	44.806	0	435.20	0	5.0690	0	33.9950	0	26.875	0	431.221	0	61.8	4	20.0	4	-1E+10	1	-1E+10	1	-1E+10	1	-1E+10	1	-1E+10	1	-1E+10	1
4901784	47	C	10/17/2016	10:47	-132.116	44.806	0	437.80	0	5.0600	0	33.9960	0	26.876	0	433.795	0	60.9	4	19.7	4	-1E+10	1	-1E+10	1	-1E+10	1	-1E+10	1	-1E+10	1	-1E+10	1
4901784	47	C	10/17/2016	10:47	-132.116	44.806	0	439.60	0	5.0550	0	33.9980	0	26.879	0	435.576	0	60.1	4	19.4	4	-1E+10	1	-1E+10	1	-1E+10	1	-1E+10	1	-1E+10	1	-1E+10	1
4901784	47	C	10/17/2016	10:47	-132.116	44.806	0	442.30	0	5.0450	0	34.0020	0	26.883	0	438.249	0	59.0	4	19.1	4	-1E+10	1	-1E+10	1	-1E+10	1	-1E+10	1	-1E+10	1	-1E+10	1
4901784	47	C	10/17/2016	10:47	-132.116	44.806	0	445.00	0	5.0220	0	34.0040	0	26.887	0	440.921	0	58.1	4	18.8	4	-1E+10	1	-1E+10	1	-1E+10	1	-1E+10	1	-1E+10	1	-1E+10	1
4901784	47	C	10/17/2016	10:47	-132.116	44.806	0	447.70	0	5.0150	0	34.0100	0	26.893	0	443.594	0	57.4	4	18.6	4	-1E+10	1	-1E+10	1	-1E+10	1	-1E+10	1	-1E+10	1	-1E+10	1
4901784	47	C	10/17/2016	10:47	-132.116	44.806	0	450.50	0	5.0050	0	34.0120	0	26.896	0	446.365	0	57.2	4	18.5	4	-1E+10	1	-1E+10	1	-1E+10	1	-1E+10	1	-1E+10	1	-1E+10	1
4901784	47	C	10/17/2016	10:47	-132.116	44.806	0	452.30	0	5.0020	0	34.0120	0	26.896	0	448.146	0	57.3	4	18.5	4	-1E+10	1	-1E+10	1	-1E+10	1	-1E+10	1	-1E+10	1	-1E+10	1
4901784	47	C	10/17/2016	10:47	-132.116	44.806	0	455.10	0	4.9940	0	34.0110	0	26.896	0	450.918	0	57.2	4	18.5	4	-1E+10	1	-1E+10	1	-1E+10	1	-1E+10	1	-1E+10	1	-1E+10	1
4901784	47	C	10/17/2016	10:47	-132.116	44.806	0	457.80	0	4.9600	0	34.0090	0	26.898	0	453.590	0	57.1	4	18.4	4	-1E+10	1	-1E+10	1	-1E+10	1	-1E+10	1	-1E+10	1	-1E+10	1
4901784	47	C	10/17/2016	10:47	-132.116	44.806	0	459.60	0	4.9430	0	34.0090	0	26.900	0	455.371	0	56.9	4	18.3	4	-1E+10	1	-1E+10	1	-1E+10	1	-1E+10	1	-1E+10	1	-1E+10	1
4901784	47	C	10/17/2016	10:47	-132.116	44.806	0	462.40	0	4.9080	0	34.0100	0	26.905	0	458.143	0	56.1	4	18.1	4	-1E+10	1	-1E+10	1	-1E+10	1	-1E+10	1	-1E+10	1	-1E+10	1
4901784	47	C	10/17/2016	10:47	-132.116	44.806	0	465.10	0	4.9070	0	34.0120	0	26.907	0	460.815	0	54.8	4	17.7	4	-1E+10	1	-1E+10	1	-1E+10	1	-1E+10	1	-1E+10	1	-1E+10	1
4901784	47	C	10/17/2016	10:47	-132.116	44.806	0	467.80	0	4.8940	0	34.0160	0	26.911	0	463.487	0	54.1	4	17.4	4	-1E+10	1	-1E+10	1	-1E+10	1	-1E+10	1	-1E+10	1	-1E+10	1
4901784	47	C	10/17/2016	10:47	-132.116	44.806	0	470.60	0	4.8620	0	34.0170	0	26.916	0	466.258	0	53.3	4	17.2	4	-1E+10	1	-1E+10	1	-1E+10	1	-1E+10	1	-1E+10	1	-1E+10	1
4901784	47	C	10/17/2016	10:47	-132.116	44.806	0	472.40	0	4.8750	0	34.0200	0	26.917	0	468.039	0	52.3	4	16.8	4	-1E+10	1	-1E+10	1	-1E+10	1	-1E+10	1	-1E+10	1	-1E+10	1
4901784	47	C	10/17/2016	10:47	-132.116	44.806	0	475.20	0	4.8590	0	34.0230	0	26.921	0	470.810	0	50.9	4	16.4	4	-1E+10	1	-1E+10	1	-1E+10	1	-1E+10	1	-1E+10	1	-1E+10	1
4901784	47	C	10/17/2016	10:47	-132.116	44.806	0	477.90	0	4.8710	0	34.0290	0	26.924	0	473.482	0	49.3	4	15.9	4	-1E+10	1	-1E+10	1	-1E+10	1	-1E+10	1	-1E+10	1	-1E+10	1
4901784	47	C	10/17/2016	10:47	-132.116	44.806	0	479.80	0	4.8610	0	34.0290	0	26.926	0	475.363	0	48.7	4	15.7	4	-1E+10	1	-1E+10	1	-1E+10	1	-1E+10	1	-1E+10	1	-1E+10	1
4901784	47	C	10/17/2016	10:47	-132.116	44.806	0	482.50	0	4.8390	0	34.0340	0	26.932	0	478.034	0	47.8	4	15.4	4	-1E+10	1	-1E+10	1	-1E+10	1	-1E+10	1	-1E+10	1	-1E+10	1
4901784	47	C	10/17/2016	10:47	-132.116	44.806	0	485.30	0	4.8170	0	34.0370	0	26.937	0	480.805	0	47.4	4	15.2	4	-1E+10	1	-1E+10	1	-1E+10	1	-1E+10	1	-1E+10	1	-1E+10	1
4901784	47	C	10/17/2016	10:47	-132.116	44.806	0	487.10	0	4.8020	0	34.0380	0	26.939	0	482.587	0	47.2	4	15.2	4	-1E+10	1	-1E+10	1	-1E+10	1	-1E+10	1	-1E+10	1	-1E+10	1
4901784	47	C	10/17/2016	10:47	-132.116	44.806	0	489.90	0	4.7870	0	34.0380	0	26.941	0	485.357	0	46.9	4	15.1	4	-1E+10	1	-1E+10	1	-1E+10	1	-1E+10	1	-1E+10	1	-1E+10	1
4901784	47	C	10/17/2016	10:47	-132.116	44.806	0	492.60	0	4.7630	0	34.0380	0	26.944	0	488.029	0	46.4	4	14.9	4	-1E+10	1	-1E+10	1	-1E+10	1	-1E+10	1	-1E+10	1	-1E+10	1
4901784	47	C	10/17/2016	10:47	-132.116	44.806	0	494.40	0	4.7410	0	34.0400	0	26.948	0	489.810	0	45.6	4	14.6	4	-1E+10	1	-1E+10	1	-1E+10	1	-1E+10	1	-1E+10	1	-1E+10	1
4901784	47	C	10/17/2016	10:47	-132.116	44.806	0	497.20	0	4.7480	0	34.0460	0	26.952	0	492.581	0	44.0	4	14.1	4	-1E+10	1	-1E+10	1	-1E+10	1	-1E+10	1	-1E+10	1	-1E+10	1
4901784	47	C	10/17/2016	10:47	-132.116	44.806	0	500.00	0	4.7450	0	34.0500	0	26.955	0	495.352	0	43.0	4	13.8	4	-1E+10	1	-1E+10	1	-1E+10	1	-1E+10	1	-1E+10	1	-1E+10	1
4901784	47	C	10/17/2016	10:47	-132.116	44.806	0	505.60	0	4.7550	0	34.0570	0	26.960	0	500.893	0	41.3	4	13.3	4	-1E+10	1	-1E+10	1	-1E+10	1	-1E+10	1	-1E+10	1	-1E+10	1
4901784	47	C	10/17/2016	10:47	-132.116	44.806	0	510.30	0	4.7430	0	34.0600	0	26.963	0	505.543	0	40.5	4	13.0	4	-1E+10	1	-1E+10	1	-1E+10	1	-1E+10	1	-1E+10	1	-1E+10	1
4901784	47	C	10/17/2016	10:47	-132.116	44.806	0	515.00	0	4.7210	0	34.0630	0	26.968	0	510.194	0	39.6	4	12.7	4	-1E+10	1	-1E+10	1	-1E+10	1	-1E+10	1	-1E+10	1	-1E+10	1
4901784	47	C	10/17/2016	10:47	-132.116	44.806	0	520.60	0	4.7090	0	34.0690	0	26.974	0	515.735	0	37.9	4	12.2	4	-1E+10	1	-1E+10	1	-1E+10	1	-1E+10	1	-1E+10	1	-1E+10	1
4901784	47	C	10/17/2016	10:47	-132.116	44.806	0	525.30	0	4.6930	0	34.0740	0	26.980	0	520.385	0	36.9	4	11.8	4	-1E+10	1	-1E+10	1	-1E+10	1	-1E+10	1	-1E+10	1	-1E+10	1
4901784	47	C	10/17/2016	10:47	-132.116	44.806	0	530.00	0	4.6680	0	34.0780	0	26.986	0	525.035	0	35.8	4	11.5	4	-1E+10	1	-1E+10	1	-1E+10	1	-1E+10	1	-1E+10	1	-1E+10	1
4901784	47	C	10/17/2016	10:47	-132.116	44.806	0	534.80	0	4.6280	0	34.0830	0	26.995	0	529.784	0	34.7	4	11.1	4	-1E+10	1	-1E+10	1	-1E+10	1	-1E+10	1	-1E+10	1	-1E+10	1
4901784	47	C	10/17/2016	10:47	-132.116	44.806	0	539.50	0	4.6170	0	34.0890	0	27.001	0	534.434	0	33.6	4	10.8	4	-1E+10	1	-1E+10	1	-1E+10	1	-1E+10	1	-1E+10	1	-1E+10	1
4901784	47	C	10/17/2016	10:47	-132.116	44.806	0	545.30	0	4.6000	0	34.0930	0	27.006	0	540.172	0	32.6	4	10.4	4	-1E+10	1	-1E+10	1	-1E+10	1	-1E+10	1	-1E+10	1	-1E+10	1
4901784	47	C	10/17/2016	10:47	-132.116	44.806	0	550.20	0	4.5800	0	34.0970	0	27.011	0	545.019	0	31.2	4	10.0	4	-1E+10	1	-1E+10	1	-1E+10	1	-1E+10	1	-1E+10	1	-1E+10	1
4901784	47	C	10/17/2016	10:47	-132.116	44.806	0	555.00	0	4.5470	0	34.1050	0	27.021	0	549.768	0	30.5	4	9.8	4	-1E+10	1	-1E+10	1	-1E+10	1	-1E+10	1	-1E+10	1	-1E+10	1
4901784	47	C	10/17/2016	10:47	-132.116	44.806	0	559.80	0	4.5350	0	34.1080	0	27.025	0	554.516	0	30.0	4	9.6	4	-1E+10	1	-1E+10	1	-1E+10	1	-1E+10	1	-1E+10	1	-1E+10	1
4901784	47	C	10/17/2016	10:47	-132.116	44.806	0	564.60	0	4.5270	0	34.1090	0	27.026	0	559.264	0	29.4	4	9.4	4	-1E+10	1	-1E+10	1	-1E+10	1	-1E+10	1	-1E+10	1	-1E+10	1
4901784	47	C	10/17/2016	10:47	-132.116	44.806	0	570.40	0	4.5080	0	34.1140	0	27.032	0	565.002	0	28.3	4	9.0	4	-1E+10	1	-1E+10	1	-1E+10	1	-1E+10	1	-1E+10	1	-1E+10	1
4901784	47	C	10/17/2016	10:47	-132.116	44.806	0	575.90	0	4.4760	0	34.1210	0	27.042	0	570.442	0	27.5	4	8.8	4	-1E+10	1	-1E+10	1	-1E+10	1	-1E+10	1	-1E+10	1	-1E+10	1
4901784	47	C	10/17/2016	10:47	-132.116	44.806	0	580.20	0	4.4630	0	34.1250	0	27.046	0	574.695	0	26.9	4	8.6	4	-1E+10	1	-1E+10	1	-1E+10	1	-1E+10	1	-1E+10	1	-1E+10	1
4901784	47	C	10/17/2016	10:47	-132.116	44.806	0	585.10	0	4.4430	0	34.1280	0	27.051	0	579.542	0	26.3	4	8.4	4	-1E+10	1	-1E+10	1	-1E+10	1	-1E+10	1	-1E+10	1	-1E+10	1
4901784	47	C	10/17/2016	10:47	-132.116	44.806	0	590.00	0	4.4330	0	34.1310	0	27.054	0	584.388	0	25.7	4	8.2	4	-1E+10	1	-1E+10	1	-1E+10	1	-1E+10	1	-1E+10	1	-1E+10	1
4901784	47	C	10/17/2016	10:47	-132.116	44.806	0	595.00	0	4.4180	0	34.1350	0	27.059	0	589.334	0	25.3	4	8.1	4	-1E+10	1	-1E+10	1	-1E+10	1	-1E+10	1	-1E+10	1	-1E+10	1
4901784	47	C	10/17/2016	10:47	-132.116	44.806	0	600.00	0	4.4010	0	34.1370	0	27.062	0	594.279	0	24.8	4	7.9	4	-1E+10	1	-1E+10	1	-1E+10	1	-1E+10	1	-1E+10	1	-1E+10	1
4901784	47	C	10/17/2016	10:47	-132.116	44.806	0	605.00	0	4.3850	0	34.1400	0	27.067	0	599.224	0	24.2	4	7.7	4	-1E+10	1	-1E+10	1	-1E+10	1	-1E+10	1	-1E+10	1	-1E+10	1
4901784	47	C	10/17/2016	10:47	-132.116	44.806	0	609.90	0	4.3570	0	34.1450	0	27.074	0	604.070	0	23.3	4	7.4	4	-1E+10	1	-1E+10	1	-1E+10	1	-1E+10	1	-1E+10	1	-1E+10	1
4901784	47	C	10/17/2016	10:47	-132.116	44.806	0	614.90	0	4.3400	0	34.1500	0	27.079	0	609.015	0	22.5	4	7.2	4	-1E+10	1	-1E+10	1	-1E+10	1	-1E+10	1	-1E+10	1	-1E+10	1
4901784	47	C	10/17/2016	10:47	-132.116	44.806	0	619.90	0	4.3240	0	34.1550	0	27.085	0	613.960	0	21.9	4	7.0	4	-1E+10	1	-1E+10	1	-1E+10	1	-1E+10	1	-1E+10	1	-1E+10	1
4901784	47	C	10/17/2016	10:47	-132.116	44.806	0	625.00	0	4.3020	0	34.1600	0	27.091	0	619.004	0	21.5	4	6.8	4	-1E+10	1	-1E+10	1	-1E+10	1	-1E+10	1	-1E+10	1	-1E+10	1
4901784	47	C	10/17/2016	10:47	-132.116	44.806	0	630.20	0	4.2840	0	34.1630	0	27.096	0	624.146	0	21.2	4	6.7	4	-1E+10	1	-1E+10	1	-1E+10	1	-1E+10	1	-1E+10	1	-1E+10	1
4901784	47	C	10/17/2016	10:47	-132.116	44.806	0	635.30	0	4.2600	0	34.1670	0	27.101	0	629.189	0	20.7	4	6.6	4	-1E+10	1	-1E+10	1	-1E+10	1	-1E+10	1	-1E+10	1	-1E+10	1
4901784	47	C	10/17/2016	10:47	-132.116	44.806	0	640.40	0	4.2280	0	34.1720	0	27.109	0	634.232	0	20.4	4	6.5	4	-1E+10	1	-1E+10	1	-1E+10	1	-1E+10	1	-1E+10	1	-1E+10	1
4901784	47	C	10/17/2016	10:47	-132.116	44.806	0	645.40	0	4.2010	0	34.1770	0	27.116	0	639.177	0	20.0	4	6.3	4	-1E+10	1	-1E+10	1	-1E+10	1	-1E+10	1	-1E+10	1	-1E+10	1
4901784	47	C	10/17/2016	10:47	-132.116	44.806	0	650.50	0	4.1970	0	34.1810	0	27.119	0	644.220	0	19.5	4	6.2	4	-1E+10	1	-1E+10	1	-1E+10	1	-1E+10	1	-1E+10	1	-1E+10	1
4901784	47	C	10/17/2016	10:47	-132.116	44.806	0	655.60	0	4.1830	0	34.1840	0	27.123	0	649.262	0	19.0	4	6.0	4	-1E+10	1	-1E+10	1	-1E+10	1	-1E+10	1	-1E+10	1	-1E+10	1
4901784	47	C	10/17/2016	10:47	-132.116	44.806	0	660.70	0	4.1640	0	34.1910	0	27.131	0	654.305	0	18.4	4	5.8	4	-1E+10	1	-1E+10	1	-1E+10	1	-1E+10	1	-1E+10	1	-1E+10	1
4901784	47	C	10/17/2016	10:47	-132.116	44.806	0	665.10	0	4.1580	0	34.1960	0	27.135	0	658.655	0	17.8	4	5.6	4	-1E+10	1	-1E+10	1	-1E+10	1	-1E+10	1	-1E+10	1	-1E+10	1
4901784	47	C	10/17/2016	10:47	-132.116	44.806	0	669.40	0	4.1540	0	34.2030	0	27.141	0	662.907	0	17.4	4	5.5	4	-1E+10	1	-1E+10	1	-1E+10	1	-1E+10	1	-1E+10	1	-1E+10	1
4901784	47	C	10/17/2016	10:47	-132.116	44.806	0	674.80	0	4.1490	0	34.2040	0	27.143	0	668.246	0	17.2	4	5.5	4	-1E+10	1	-1E+10	1	-1E+10	1	-1E+10	1	-1E+10	1	-1E+10	1
4901784	47	C	10/17/2016	10:47	-132.116	44.806	0	680.10	0	4.1350	0	34.2070	0	27.147	0	673.486	0	16.8	4	5.3	4	-1E+10	1	-1E+10	1	-1E+10	1	-1E+10	1	-1E+10	1	-1E+10	1
4901784	47	C	10/17/2016	10:47	-132.116	44.806	0	685.50	0	4.1220	0	34.2120	0	27.152	0	678.825	0	16.5	4	5.2	4	-1E+10	1	-1E+10	1	-1E+10	1	-1E+10	1	-1E+10	1	-1E+10	1
4901784	47	C	10/17/2016	10:47	-132.116	44.806	0	690.00	0	4.1060	0	34.2150	0	27.156	0	683.273	0	16.3	4	5.1	4	-1E+10	1	-1E+10	1	-1E+10	1	-1E+10	1	-1E+10	1	-1E+10	1
4901784	47	C	10/17/2016	10:47	-132.116	44.806	0	694.50	0	4.0950	0	34.2180	0	27.160	0	687.722	0	16.1	4	5.1	4	-1E+10	1	-1E+10	1	-1E+10	1	-1E+10	1	-1E+10	1	-1E+10	1
4901784	47	C	10/17/2016	10:47	-132.116	44.806	0	700.00	0	4.0690	0	34.2220	0	27.166	0	693.159	0	15.8	4	5.0	4	-1E+10	1	-1E+10	1	-1E+10	1	-1E+10	1	-1E+10	1	-1E+10	1
4901784	47	C	10/17/2016	10:47	-132.116	44.806	0	705.40	0	4.0600	0	34.2290	0	27.172	0	698.498	0	15.3	4	4.8	4	-1E+10	1	-1E+10	1	-1E+10	1	-1E+10	1	-1E+10	1	-1E+10	1
4901784	47	C	10/17/2016	10:47	-132.116	44.806	0	710.70	0	4.0440	0	34.2330	0	27.177	0	703.737	0	15.2	4	4.8	4	-1E+10	1	-1E+10	1	-1E+10	1	-1E+10	1	-1E+10	1	-1E+10	1
4901784	47	C	10/17/2016	10:47	-132.116	44.806	0	714.80	0	4.0280	0	34.2350	0	27.180	0	707.790	0	15.1	4	4.8	4	-1E+10	1	-1E+10	1	-1E+10	1	-1E+10	1	-1E+10	1	-1E+10	1
4901784	47	C	10/17/2016	10:47	-132.116	44.806	0	719.40	0	4.0030	0	34.2380	0	27.185	0	712.337	0	15.1	4	4.8	4	-1E+10	1	-1E+10	1	-1E+10	1	-1E+10	1	-1E+10	1	-1E+10	1
4901784	47	C	10/17/2016	10:47	-132.116	44.806	0	725.00	0	3.9860	0	34.2420	0	27.190	0	717.872	0	14.9	4	4.7	4	-1E+10	1	-1E+10	1	-1E+10	1	-1E+10	1	-1E+10	1	-1E+10	1
4901784	47	C	10/17/2016	10:47	-132.116	44.806	0	730.60	0	3.9760	0	34.2460	0	27.194	0	723.407	0	14.6	4	4.6	4	-1E+10	1	-1E+10	1	-1E+10	1	-1E+10	1	-1E+10	1	-1E+10	1
4901784	47	C	10/17/2016	10:47	-132.116	44.806	0	735.40	0	3.9690	0	34.2490	0	27.198	0	728.152	0	14.4	4	4.5	4	-1E+10	1	-1E+10	1	-1E+10	1	-1E+10	1	-1E+10	1	-1E+10	1
4901784	47	C	10/17/2016	10:47	-132.116	44.806	0	740.30	0	3.9530	0	34.2530	0	27.202	0	732.995	0	14.1	4	4.5	4	-1E+10	1	-1E+10	1	-1E+10	1	-1E+10	1	-1E+10	1	-1E+10	1
4901784	47	C	10/17/2016	10:47	-132.116	44.806	0	745.10	0	3.9450	0	34.2600	0	27.209	0	737.739	0	13.8	4	4.4	4	-1E+10	1	-1E+10	1	-1E+10	1	-1E+10	1	-1E+10	1	-1E+10	1
4901784	47	C	10/17/2016	10:47	-132.116	44.806	0	750.10	0	3.9440	0	34.2620	0	27.210	0	742.681	0	13.6	4	4.3	4	-1E+10	1	-1E+10	1	-1E+10	1	-1E+10	1	-1E+10	1	-1E+10	1
4901784	47	C	10/17/2016	10:47	-132.116	44.806	0	755.10	0	3.9440	0	34.2650	0	27.213	0	747.622	0	13.4	4	4.2	4	-1E+10	1	-1E+10	1	-1E+10	1	-1E+10	1	-1E+10	1	-1E+10	1
4901784	47	C	10/17/2016	10:47	-132.116	44.806	0	760.10	0	3.9370	0	34.2680	0	27.216	0	752.564	0	13.2	4	4.2	4	-1E+10	1	-1E+10	1	-1E+10	1	-1E+10	1	-1E+10	1	-1E+10	1
4901784	47	C	10/17/2016	10:47	-132.116	44.806	0	765.10	0	3.9270	0	34.2700	0	27.219	0	757.505	0	13.1	4	4.1	4	-1E+10	1	-1E+10	1	-1E+10	1	-1E+10	1	-1E+10	1	-1E+10	1
4901784	47	C	10/17/2016	10:47	-132.116	44.806	0	770.20	0	3.9020	0	34.2750	0	27.225	0	762.545	0	13.0	4	4.1	4	-1E+10	1	-1E+10	1	-1E+10	1	-1E+10	1	-1E+10	1	-1E+10	1
4901784	47	C	10/17/2016	10:47	-132.116	44.806	0	775.40	0	3.8850	0	34.2780	0	27.229	0	767.684	0	12.9	4	4.1	4	-1E+10	1	-1E+10	1	-1E+10	1	-1E+10	1	-1E+10	1	-1E+10	1
4901784	47	C	10/17/2016	10:47	-132.116	44.806	0	780.60	0	3.8620	0	34.2790	0	27.233	0	772.822	0	12.9	4	4.0	4	-1E+10	1	-1E+10	1	-1E+10	1	-1E+10	1	-1E+10	1	-1E+10	1
4901784	47	C	10/17/2016	10:47	-132.116	44.806	0	784.90	0	3.8550	0	34.2820	0	27.236	0	777.072	0	12.7	4	4.0	4	-1E+10	1	-1E+10	1	-1E+10	1	-1E+10	1	-1E+10	1	-1E+10	1
4901784	47	C	10/17/2016	10:47	-132.116	44.806	0	789.30	0	3.8400	0	34.2870	0	27.241	0	781.419	0	12.5	4	3.9	4	-1E+10	1	-1E+10	1	-1E+10	1	-1E+10	1	-1E+10	1	-1E+10	1
4901784	47	C	10/17/2016	10:47	-132.116	44.806	0	794.60	0	3.8330	0	34.2930	0	27.247	0	786.657	0	12.2	4	3.9	4	-1E+10	1	-1E+10	1	-1E+10	1	-1E+10	1	-1E+10	1	-1E+10	1
4901784	47	C	10/17/2016	10:47	-132.116	44.806	0	800.00	0	3.8240	0	34.2970	0	27.251	0	791.992	0	12.1	4	3.8	4	-1E+10	1	-1E+10	1	-1E+10	1	-1E+10	1	-1E+10	1	-1E+10	1
4901784	47	C	10/17/2016	10:47	-132.116	44.806	0	805.40	0	3.8140	0	34.2990	0	27.253	0	797.328	0	12.0	4	3.8	4	-1E+10	1	-1E+10	1	-1E+10	1	-1E+10	1	-1E+10	1	-1E+10	1
4901784	47	C	10/17/2016	10:47	-132.116	44.806	0	810.00	0	3.8100	0	34.3030	0	27.257	0	801.873	0	11.9	4	3.7	4	-1E+10	1	-1E+10	1	-1E+10	1	-1E+10	1	-1E+10	1	-1E+10	1
4901784	47	C	10/17/2016	10:47	-132.116	44.806	0	814.50	0	3.7970	0	34.3070	0	27.262	0	806.319	0	11.8	4	3.7	4	-1E+10	1	-1E+10	1	-1E+10	1	-1E+10	1	-1E+10	1	-1E+10	1
4901784	47	C	10/17/2016	10:47	-132.116	44.806	0	820.00	0	3.7900	0	34.3090	0	27.264	0	811.753	0	11.8	4	3.7	4	-1E+10	1	-1E+10	1	-1E+10	1	-1E+10	1	-1E+10	1	-1E+10	1
4901784	47	C	10/17/2016	10:47	-132.116	44.806	0	825.40	0	3.7810	0	34.3110	0	27.266	0	817.089	0	11.7	4	3.7	4	-1E+10	1	-1E+10	1	-1E+10	1	-1E+10	1	-1E+10	1	-1E+10	1
4901784	47	C	10/17/2016	10:47	-132.116	44.806	0	830.60	0	3.7630	0	34.3160	0	27.272	0	822.226	0	11.6	4	3.6	4	-1E+10	1	-1E+10	1	-1E+10	1	-1E+10	1	-1E+10	1	-1E+10	1
4901784	47	C	10/17/2016	10:47	-132.116	44.806	0	835.40	0	3.7480	0	34.3200	0	27.277	0	826.968	0	11.5	4	3.6	4	-1E+10	1	-1E+10	1	-1E+10	1	-1E+10	1	-1E+10	1	-1E+10	1
4901784	47	C	10/17/2016	10:47	-132.116	44.806	0	840.30	0	3.7370	0	34.3230	0	27.280	0	831.809	0	11.5	4	3.6	4	-1E+10	1	-1E+10	1	-1E+10	1	-1E+10	1	-1E+10	1	-1E+10	1
4901784	47	C	10/17/2016	10:47	-132.116	44.806	0	845.10	0	3.7230	0	34.3260	0	27.284	0	836.551	0	11.4	4	3.6	4	-1E+10	1	-1E+10	1	-1E+10	1	-1E+10	1	-1E+10	1	-1E+10	1
4901784	47	C	10/17/2016	10:47	-132.116	44.806	0	850.00	0	3.7000	0	34.3320	0	27.291	0	841.391	0	11.4	4	3.6	4	-1E+10	1	-1E+10	1	-1E+10	1	-1E+10	1	-1E+10	1	-1E+10	1
4901784	47	C	10/17/2016	10:47	-132.116	44.806	0	854.90	0	3.6790	0	34.3370	0	27.297	0	846.232	0	11.4	4	3.6	4	-1E+10	1	-1E+10	1	-1E+10	1	-1E+10	1	-1E+10	1	-1E+10	1
4901784	47	C	10/17/2016	10:47	-132.116	44.806	0	859.80	0	3.6590	0	34.3410	0	27.303	0	851.072	0	11.4	4	3.6	4	-1E+10	1	-1E+10	1	-1E+10	1	-1E+10	1	-1E+10	1	-1E+10	1
4901784	47	C	10/17/2016	10:47	-132.116	44.806	0	864.80	0	3.6480	0	34.3440	0	27.306	0	856.011	0	11.4	4	3.6	4	-1E+10	1	-1E+10	1	-1E+10	1	-1E+10	1	-1E+10	1	-1E+10	1
4901784	47	C	10/17/2016	10:47	-132.116	44.806	0	869.90	0	3.6410	0	34.3460	0	27.308	0	861.049	0	11.4	4	3.6	4	-1E+10	1	-1E+10	1	-1E+10	1	-1E+10	1	-1E+10	1	-1E+10	1
4901784	47	C	10/17/2016	10:47	-132.116	44.806	0	875.00	0	3.6280	0	34.3490	0	27.312	0	866.086	0	11.4	4	3.6	4	-1E+10	1	-1E+10	1	-1E+10	1	-1E+10	1	-1E+10	1	-1E+10	1
4901784	47	C	10/17/2016	10:47	-132.116	44.806	0	880.20	0	3.6180	0	34.3510	0	27.315	0	871.223	0	11.4	4	3.6	4	-1E+10	1	-1E+10	1	-1E+10	1	-1E+10	1	-1E+10	1	-1E+10	1
4901784	47	C	10/17/2016	10:47	-132.116	44.806	0	885.40	0	3.6050	0	34.3550	0	27.319	0	876.359	0	11.4	4	3.6	4	-1E+10	1	-1E+10	1	-1E+10	1	-1E+10	1	-1E+10	1	-1E+10	1
4901784	47	C	10/17/2016	10:47	-132.116	44.806	0	890.50	0	3.5930	0	34.3580	0	27.323	0	881.396	0	11.5	4	3.6	4	-1E+10	1	-1E+10	1	-1E+10	1	-1E+10	1	-1E+10	1	-1E+10	1
4901784	47	C	10/17/2016	10:47	-132.116	44.806	0	895.70	0	3.5770	0	34.3610	0	27.327	0	886.532	0	11.5	4	3.6	4	-1E+10	1	-1E+10	1	-1E+10	1	-1E+10	1	-1E+10	1	-1E+10	1
4901784	47	C	10/17/2016	10:47	-132.116	44.806	0	900.10	0	3.5660	0	34.3640	0	27.330	0	890.877	0	11.5	4	3.6	4	-1E+10	1	-1E+10	1	-1E+10	1	-1E+10	1	-1E+10	1	-1E+10	1
4901784	47	C	10/17/2016	10:47	-132.116	44.806	0	904.50	0	3.5530	0	34.3660	0	27.333	0	895.223	0	11.6	4	3.6	4	-1E+10	1	-1E+10	1	-1E+10	1	-1E+10	1	-1E+10	1	-1E+10	1
4901784	47	C	10/17/2016	10:47	-132.116	44.806	0	909.70	0	3.5490	0	34.3680	0	27.335	0	900.358	0	11.6	4	3.6	4	-1E+10	1	-1E+10	1	-1E+10	1	-1E+10	1	-1E+10	1	-1E+10	1
4901784	47	C	10/17/2016	10:47	-132.116	44.806	0	915.00	0	3.5420	0	34.3700	0	27.337	0	905.592	0	11.6	4	3.6	4	-1E+10	1	-1E+10	1	-1E+10	1	-1E+10	1	-1E+10	1	-1E+10	1
4901784	47	C	10/17/2016	10:47	-132.116	44.806	0	920.40	0	3.5350	0	34.3710	0	27.339	0	910.925	0	11.7	4	3.6	4	-1E+10	1	-1E+10	1	-1E+10	1	-1E+10	1	-1E+10	1	-1E+10	1
4901784	47	C	10/17/2016	10:47	-132.116	44.806	0	925.60	0	3.5280	0	34.3730	0	27.341	0	916.060	0	11.7	4	3.7	4	-1E+10	1	-1E+10	1	-1E+10	1	-1E+10	1	-1E+10	1	-1E+10	1
4901784	47	C	10/17/2016	10:47	-132.116	44.806	0	930.00	0	3.5140	0	34.3760	0	27.345	0	920.405	0	11.8	4	3.7	4	-1E+10	1	-1E+10	1	-1E+10	1	-1E+10	1	-1E+10	1	-1E+10	1
4901784	47	C	10/17/2016	10:47	-132.116	44.806	0	934.40	0	3.5000	0	34.3790	0	27.349	0	924.750	0	11.8	4	3.7	4	-1E+10	1	-1E+10	1	-1E+10	1	-1E+10	1	-1E+10	1	-1E+10	1
4901784	47	C	10/17/2016	10:47	-132.116	44.806	0	939.70	0	3.4880	0	34.3830	0	27.353	0	929.984	0	11.9	4	3.7	4	-1E+10	1	-1E+10	1	-1E+10	1	-1E+10	1	-1E+10	1	-1E+10	1
4901784	47	C	10/17/2016	10:47	-132.116	44.806	0	945.10	0	3.4820	0	34.3850	0	27.355	0	935.316	0	12.0	4	3.8	4	-1E+10	1	-1E+10	1	-1E+10	1	-1E+10	1	-1E+10	1	-1E+10	1
4901784	47	C	10/17/2016	10:47	-132.116	44.806	0	950.40	0	3.4740	0	34.3870	0	27.358	0	940.549	0	12.1	4	3.8	4	-1E+10	1	-1E+10	1	-1E+10	1	-1E+10	1	-1E+10	1	-1E+10	1
4901784	47	C	10/17/2016	10:47	-132.116	44.806	0	954.90	0	3.4630	0	34.3900	0	27.361	0	944.992	0	12.2	4	3.8	4	-1E+10	1	-1E+10	1	-1E+10	1	-1E+10	1	-1E+10	1	-1E+10	1
4901784	47	C	10/17/2016	10:47	-132.116	44.806	0	959.30	0	3.4530	0	34.3930	0	27.365	0	949.336	0	12.3	4	3.8	4	-1E+10	1	-1E+10	1	-1E+10	1	-1E+10	1	-1E+10	1	-1E+10	1
4901784	47	C	10/17/2016	10:47	-132.116	44.806	0	964.70	0	3.4410	0	34.3960	0	27.368	0	954.668	0	12.3	4	3.9	4	-1E+10	1	-1E+10	1	-1E+10	1	-1E+10	1	-1E+10	1	-1E+10	1
4901784	47	C	10/17/2016	10:47	-132.116	44.806	0	970.20	0	3.4260	0	34.3990	0	27.372	0	960.098	0	12.4	4	3.9	4	-1E+10	1	-1E+10	1	-1E+10	1	-1E+10	1	-1E+10	1	-1E+10	1
4901784	47	C	10/17/2016	10:47	-132.116	44.806	0	975.60	0	3.4170	0	34.4020	0	27.375	0	965.430	0	12.5	4	3.9	4	-1E+10	1	-1E+10	1	-1E+10	1	-1E+10	1	-1E+10	1	-1E+10	1
4901784	47	C	10/17/2016	10:47	-132.116	44.806	0	980.10	0	3.4140	0	34.4030	0	27.376	0	969.872	0	12.6	4	3.9	4	-1E+10	1	-1E+10	1	-1E+10	1	-1E+10	1	-1E+10	1	-1E+10	1
4901784	47	C	10/17/2016	10:47	-132.116	44.806	0	984.60	0	3.4010	0	34.4060	0	27.380	0	974.315	0	12.7	4	4.0	4	-1E+10	1	-1E+10	1	-1E+10	1	-1E+10	1	-1E+10	1	-1E+10	1
4901784	47	C	10/17/2016	10:47	-132.116	44.806	0	990.10	0	3.3960	0	34.4090	0	27.383	0	979.744	0	12.9	4	4.0	4	-1E+10	1	-1E+10	1	-1E+10	1	-1E+10	1	-1E+10	1	-1E+10	1
4901784	47	C	10/17/2016	10:47	-132.116	44.806	0	995.60	0	3.3960	0	34.4110	0	27.385	0	985.174	0	13.0	4	4.0	4	-1E+10	1	-1E+10	1	-1E+10	1	-1E+10	1	-1E+10	1	-1E+10	1
4901784	47	C	10/17/2016	10:47	-132.116	44.806	0	1000.20	0	3.3910	0	34.4120	0	27.386	0	989.715	0	13.0	4	4.1	4	-1E+10	1	-1E+10	1	-1E+10	1	-1E+10	1	-1E+10	1	-1E+10	1
4901784	47	C	10/17/2016	10:47	-132.116	44.806	0	1004.70	0	3.3780	0	34.4150	0	27.390	0	994.157	0	13.1	4	4.1	4	-1E+10	1	-1E+10	1	-1E+10	1	-1E+10	1	-1E+10	1	-1E+10	1
4901784	47	C	10/17/2016	10:47	-132.116	44.806	0	1010.30	0	3.3620	0	34.4180	0	27.394	0	999.685	0	13.2	4	4.1	4	-1E+10	1	-1E+10	1	-1E+10	1	-1E+10	1	-1E+10	1	-1E+10	1
4901784	47	C	10/17/2016	10:47	-132.116	44.806	0	1014.90	0	3.3530	0	34.4210	0	27.397	0	1004.226	0	13.4	4	4.2	4	-1E+10	1	-1E+10	1	-1E+10	1	-1E+10	1	-1E+10	1	-1E+10	1
4901784	47	C	10/17/2016	10:47	-132.116	44.806	0	1019.60	0	3.3540	0	34.4210	0	27.397	0	1008.865	0	13.5	4	4.2	4	-1E+10	1	-1E+10	1	-1E+10	1	-1E+10	1	-1E+10	1	-1E+10	1
4901784	47	C	10/17/2016	10:47	-132.116	44.806	0	1025.10	0	3.3530	0	34.4250	0	27.400	0	1014.294	0	13.8	4	4.3	4	-1E+10	1	-1E+10	1	-1E+10	1	-1E+10	1	-1E+10	1	-1E+10	1
4901784	47	C	10/17/2016	10:47	-132.116	44.806	0	1030.60	0	3.3500	0	34.4270	0	27.402	0	1019.722	0	14.0	4	4.4	4	-1E+10	1	-1E+10	1	-1E+10	1	-1E+10	1	-1E+10	1	-1E+10	1
4901784	47	C	10/17/2016	10:47	-132.116	44.806	0	1035.40	0	3.3410	0	34.4300	0	27.405	0	1024.460	0	14.2	4	4.4	4	-1E+10	1	-1E+10	1	-1E+10	1	-1E+10	1	-1E+10	1	-1E+10	1
4901784	47	C	10/17/2016	10:47	-132.116	44.806	0	1039.90	0	3.3360	0	34.4310	0	27.407	0	1028.902	0	14.3	4	4.5	4	-1E+10	1	-1E+10	1	-1E+10	1	-1E+10	1	-1E+10	1	-1E+10	1
4901784	47	C	10/17/2016	10:47	-132.116	44.806	0	1044.80	0	3.3300	0	34.4330	0	27.409	0	1033.738	0	14.5	4	4.5	4	-1E+10	1	-1E+10	1	-1E+10	1	-1E+10	1	-1E+10	1	-1E+10	1
4901784	47	C	10/17/2016	10:47	-132.116	44.806	0	1049.70	0	3.3320	0	34.4360	0	27.411	0	1038.574	0	14.9	4	4.6	4	-1E+10	1	-1E+10	1	-1E+10	1	-1E+10	1	-1E+10	1	-1E+10	1
4901784	47	C	10/17/2016	10:47	-132.116	44.806	0	1054.70	0	3.3350	0	34.4380	0	27.412	0	1043.508	0	15.1	4	4.7	4	-1E+10	1	-1E+10	1	-1E+10	1	-1E+10	1	-1E+10	1	-1E+10	1
4901784	47	C	10/17/2016	10:47	-132.116	44.806	0	1059.70	0	3.3310	0	34.4400	0	27.414	0	1048.443	0	15.3	4	4.8	4	-1E+10	1	-1E+10	1	-1E+10	1	-1E+10	1	-1E+10	1	-1E+10	1
4901784	47	C	10/17/2016	10:47	-132.116	44.806	0	1064.80	0	3.3290	0	34.4400	0	27.415	0	1053.476	0	15.4	4	4.8	4	-1E+10	1	-1E+10	1	-1E+10	1	-1E+10	1	-1E+10	1	-1E+10	1
4901784	47	C	10/17/2016	10:47	-132.116	44.806	0	1069.80	0	3.3250	0	34.4420	0	27.417	0	1058.410	0	15.6	4	4.9	4	-1E+10	1	-1E+10	1	-1E+10	1	-1E+10	1	-1E+10	1	-1E+10	1
4901784	47	C	10/17/2016	10:47	-132.116	44.806	0	1075.00	0	3.3200	0	34.4440	0	27.419	0	1063.541	0	15.9	4	4.9	4	-1E+10	1	-1E+10	1	-1E+10	1	-1E+10	1	-1E+10	1	-1E+10	1
4901784	47	C	10/17/2016	10:47	-132.116	44.806	0	1080.10	0	3.3130	0	34.4460	0	27.421	0	1068.574	0	16.1	4	5.0	4	-1E+10	1	-1E+10	1	-1E+10	1	-1E+10	1	-1E+10	1	-1E+10	1
4901784	47	C	10/17/2016	10:47	-132.116	44.806	0	1085.10	0	3.3070	0	34.4480	0	27.423	0	1073.508	0	16.3	4	5.1	4	-1E+10	1	-1E+10	1	-1E+10	1	-1E+10	1	-1E+10	1	-1E+10	1
4901784	47	C	10/17/2016	10:47	-132.116	44.806	0	1090.20	0	3.3040	0	34.4500	0	27.425	0	1078.540	0	16.6	4	5.2	4	-1E+10	1	-1E+10	1	-1E+10	1	-1E+10	1	-1E+10	1	-1E+10	1
4901784	47	C	10/17/2016	10:47	-132.116	44.806	0	1095.30	0	3.2990	0	34.4520	0	27.427	0	1083.573	0	16.9	4	5.2	4	-1E+10	1	-1E+10	1	-1E+10	1	-1E+10	1	-1E+10	1	-1E+10	1
4901784	47	C	10/17/2016	10:47	-132.116	44.806	0	1100.60	0	3.2970	0	34.4540	0	27.429	0	1088.802	0	17.1	4	5.3	4	-1E+10	1	-1E+10	1	-1E+10	1	-1E+10	1	-1E+10	1	-1E+10	1
4901784	47	C	10/17/2016	10:47	-132.116	44.806	0	1105.80	0	3.2930	0	34.4560	0	27.431	0	1093.933	0	17.3	4	5.4	4	-1E+10	1	-1E+10	1	-1E+10	1	-1E+10	1	-1E+10	1	-1E+10	1
4901784	47	C	10/17/2016	10:47	-132.116	44.806	0	1110.30	0	3.2870	0	34.4580	0	27.433	0	1098.373	0	17.5	4	5.4	4	-1E+10	1	-1E+10	1	-1E+10	1	-1E+10	1	-1E+10	1	-1E+10	1
4901784	47	C	10/17/2016	10:47	-132.116	44.806	0	1115.60	0	3.2810	0	34.4590	0	27.435	0	1103.602	0	17.6	4	5.5	4	-1E+10	1	-1E+10	1	-1E+10	1	-1E+10	1	-1E+10	1	-1E+10	1
4901784	47	C	10/17/2016	10:47	-132.116	44.806	0	1120.40	0	3.2770	0	34.4600	0	27.436	0	1108.338	0	17.7	4	5.5	4	-1E+10	1	-1E+10	1	-1E+10	1	-1E+10	1	-1E+10	1	-1E+10	1
4901784	47	C	10/17/2016	10:47	-132.116	44.806	0	1125.20	0	3.2690	0	34.4610	0	27.437	0	1113.073	0	17.8	4	5.5	4	-1E+10	1	-1E+10	1	-1E+10	1	-1E+10	1	-1E+10	1	-1E+10	1
4901784	47	C	10/17/2016	10:47	-132.116	44.806	0	1130.00	0	3.2610	0	34.4620	0	27.439	0	1117.809	0	17.8	4	5.5	4	-1E+10	1	-1E+10	1	-1E+10	1	-1E+10	1	-1E+10	1	-1E+10	1
4901784	47	C	10/17/2016	10:47	-132.116	44.806	0	1134.80	0	3.2540	0	34.4630	0	27.440	0	1122.544	0	18.0	4	5.6	4	-1E+10	1	-1E+10	1	-1E+10	1	-1E+10	1	-1E+10	1	-1E+10	1
4901784	47	C	10/17/2016	10:47	-132.116	44.806	0	1139.70	0	3.2470	0	34.4640	0	27.442	0	1127.378	0	18.0	4	5.6	4	-1E+10	1	-1E+10	1	-1E+10	1	-1E+10	1	-1E+10	1	-1E+10	1
4901784	47	C	10/17/2016	10:47	-132.116	44.806	0	1144.60	0	3.2390	0	34.4650	0	27.444	0	1132.212	0	18.1	4	5.6	4	-1E+10	1	-1E+10	1	-1E+10	1	-1E+10	1	-1E+10	1	-1E+10	1
4901784	47	C	10/17/2016	10:47	-132.116	44.806	0	1149.60	0	3.2280	0	34.4660	0	27.445	0	1137.144	0	18.2	4	5.6	4	-1E+10	1	-1E+10	1	-1E+10	1	-1E+10	1	-1E+10	1	-1E+10	1
4901784	47	C	10/17/2016	10:47	-132.116	44.806	0	1154.60	0	3.2240	0	34.4670	0	27.447	0	1142.076	0	18.2	4	5.7	4	-1E+10	1	-1E+10	1	-1E+10	1	-1E+10	1	-1E+10	1	-1E+10	1
4901784	47	C	10/17/2016	10:47	-132.116	44.806	0	1159.60	0	3.2190	0	34.4670	0	27.447	0	1147.009	0	18.3	4	5.7	4	-1E+10	1	-1E+10	1	-1E+10	1	-1E+10	1	-1E+10	1	-1E+10	1
4901784	47	C	10/17/2016	10:47	-132.116	44.806	0	1164.60	0	3.2120	0	34.4680	0	27.449	0	1151.941	0	18.4	4	5.7	4	-1E+10	1	-1E+10	1	-1E+10	1	-1E+10	1	-1E+10	1	-1E+10	1
4901784	47	C	10/17/2016	10:47	-132.116	44.806	0	1169.70	0	3.2000	0	34.4690	0	27.450	0	1156.971	0	18.4	4	5.7	4	-1E+10	1	-1E+10	1	-1E+10	1	-1E+10	1	-1E+10	1	-1E+10	1
4901784	47	C	10/17/2016	10:47	-132.116	44.806	0	1174.80	0	3.1910	0	34.4700	0	27.452	0	1162.002	0	18.4	4	5.7	4	-1E+10	1	-1E+10	1	-1E+10	1	-1E+10	1	-1E+10	1	-1E+10	1
4901784	47	C	10/17/2016	10:47	-132.116	44.806	0	1180.00	0	3.1790	0	34.4720	0	27.455	0	1167.130	0	18.5	4	5.7	4	-1E+10	1	-1E+10	1	-1E+10	1	-1E+10	1	-1E+10	1	-1E+10	1
4901784	47	C	10/17/2016	10:47	-132.116	44.806	0	1185.20	0	3.1760	0	34.4720	0	27.455	0	1172.259	0	18.6	4	5.8	4	-1E+10	1	-1E+10	1	-1E+10	1	-1E+10	1	-1E+10	1	-1E+10	1
4901784	47	C	10/17/2016	10:47	-132.116	44.806	0	1190.40	0	3.1690	0	34.4720	0	27.456	0	1177.388	0	18.7	4	5.8	4	-1E+10	1	-1E+10	1	-1E+10	1	-1E+10	1	-1E+10	1	-1E+10	1
4901784	47	C	10/17/2016	10:47	-132.116	44.806	0	1195.60	0	3.1670	0	34.4730	0	27.457	0	1182.516	0	18.8	4	5.8	4	-1E+10	1	-1E+10	1	-1E+10	1	-1E+10	1	-1E+10	1	-1E+10	1
4901784	47	C	10/17/2016	10:47	-132.116	44.806	0	1200.00	0	3.1640	0	34.4740	0	27.458	0	1186.856	0	18.8	4	5.8	4	-1E+10	1	-1E+10	1	-1E+10	1	-1E+10	1	-1E+10	1	-1E+10	1
4901784	47	C	10/17/2016	10:47	-132.116	44.806	0	1204.40	0	3.1490	0	34.4750	0	27.460	0	1191.195	0	18.9	4	5.9	4	-1E+10	1	-1E+10	1	-1E+10	1	-1E+10	1	-1E+10	1	-1E+10	1
4901784	47	C	10/17/2016	10:47	-132.116	44.806	0	1209.70	0	3.1330	0	34.4760	0	27.462	0	1196.422	0	19.0	4	5.9	4	-1E+10	1	-1E+10	1	-1E+10	1	-1E+10	1	-1E+10	1	-1E+10	1
4901784	47	C	10/17/2016	10:47	-132.116	44.806	0	1215.00	0	3.1180	0	34.4780	0	27.465	0	1201.649	0	19.2	4	5.9	4	-1E+10	1	-1E+10	1	-1E+10	1	-1E+10	1	-1E+10	1	-1E+10	1
4901784	47	C	10/17/2016	10:47	-132.116	44.806	0	1220.40	0	3.1090	0	34.4790	0	27.467	0	1206.974	0	19.4	4	6.0	4	-1E+10	1	-1E+10	1	-1E+10	1	-1E+10	1	-1E+10	1	-1E+10	1
4901784	47	C	10/17/2016	10:47	-132.116	44.806	0	1224.90	0	3.1070	0	34.4810	0	27.469	0	1211.412	0	19.6	4	6.1	4	-1E+10	1	-1E+10	1	-1E+10	1	-1E+10	1	-1E+10	1	-1E+10	1
4901784	47	C	10/17/2016	10:47	-132.116	44.806	0	1230.00	0	3.0960	0	34.4820	0	27.471	0	1216.441	0	19.8	4	6.1	4	-1E+10	1	-1E+10	1	-1E+10	1	-1E+10	1	-1E+10	1	-1E+10	1
4901784	47	C	10/17/2016	10:47	-132.116	44.806	0	1235.70	0	3.0880	0	34.4850	0	27.474	0	1222.061	0	20.2	4	6.2	4	-1E+10	1	-1E+10	1	-1E+10	1	-1E+10	1	-1E+10	1	-1E+10	1
4901784	47	C	10/17/2016	10:47	-132.116	44.806	0	1240.70	0	3.0860	0	34.4870	0	27.476	0	1226.991	0	20.3	4	6.3	4	-1E+10	1	-1E+10	1	-1E+10	1	-1E+10	1	-1E+10	1	-1E+10	1
4901784	47	C	10/17/2016	10:47	-132.116	44.806	0	1245.70	0	3.0820	0	34.4870	0	27.476	0	1231.922	0	20.4	4	6.3	4	-1E+10	1	-1E+10	1	-1E+10	1	-1E+10	1	-1E+10	1	-1E+10	1
4901784	47	C	10/17/2016	10:47	-132.116	44.806	0	1250.80	0	3.0810	0	34.4880	0	27.477	0	1236.950	0	20.5	4	6.4	4	-1E+10	1	-1E+10	1	-1E+10	1	-1E+10	1	-1E+10	1	-1E+10	1
4901784	47	C	10/17/2016	10:47	-132.116	44.806	0	1255.00	0	3.0780	0	34.4880	0	27.477	0	1241.091	0	20.7	4	6.4	4	-1E+10	1	-1E+10	1	-1E+10	1	-1E+10	1	-1E+10	1	-1E+10	1
4901784	47	C	10/17/2016	10:47	-132.116	44.806	0	1259.20	0	3.0680	0	34.4900	0	27.480	0	1245.232	0	20.9	4	6.5	4	-1E+10	1	-1E+10	1	-1E+10	1	-1E+10	1	-1E+10	1	-1E+10	1
4901784	47	C	10/17/2016	10:47	-132.116	44.806	0	1264.30	0	3.0590	0	34.4910	0	27.482	0	1250.261	0	21.1	4	6.5	4	-1E+10	1	-1E+10	1	-1E+10	1	-1E+10	1	-1E+10	1	-1E+10	1
4901784	47	C	10/17/2016	10:47	-132.116	44.806	0	1269.50	0	3.0440	0	34.4940	0	27.485	0	1255.387	0	21.3	4	6.6	4	-1E+10	1	-1E+10	1	-1E+10	1	-1E+10	1	-1E+10	1	-1E+10	1
4901784	47	C	10/17/2016	10:47	-132.116	44.806	0	1274.70	0	3.0360	0	34.4940	0	27.486	0	1260.514	0	21.5	4	6.6	4	-1E+10	1	-1E+10	1	-1E+10	1	-1E+10	1	-1E+10	1	-1E+10	1
4901784	47	C	10/17/2016	10:47	-132.116	44.806	0	1279.90	0	3.0320	0	34.4960	0	27.488	0	1265.641	0	21.7	4	6.7	4	-1E+10	1	-1E+10	1	-1E+10	1	-1E+10	1	-1E+10	1	-1E+10	1
4901784	47	C	10/17/2016	10:47	-132.116	44.806	0	1285.20	0	3.0260	0	34.4970	0	27.489	0	1270.865	0	21.9	4	6.8	4	-1E+10	1	-1E+10	1	-1E+10	1	-1E+10	1	-1E+10	1	-1E+10	1
4901784	47	C	10/17/2016	10:47	-132.116	44.806	0	1290.50	0	3.0160	0	34.4980	0	27.491	0	1276.090	0	22.1	4	6.8	4	-1E+10	1	-1E+10	1	-1E+10	1	-1E+10	1	-1E+10	1	-1E+10	1
4901784	47	C	10/17/2016	10:47	-132.116	44.806	0	1294.90	0	3.0120	0	34.5000	0	27.493	0	1280.428	0	22.2	4	6.9	4	-1E+10	1	-1E+10	1	-1E+10	1	-1E+10	1	-1E+10	1	-1E+10	1
4901784	47	C	10/17/2016	10:47	-132.116	44.806	0	1299.30	0	3.0100	0	34.5000	0	27.493	0	1284.765	0	22.4	4	6.9	4	-1E+10	1	-1E+10	1	-1E+10	1	-1E+10	1	-1E+10	1	-1E+10	1
4901784	47	C	10/17/2016	10:47	-132.116	44.806	0	1304.60	0	3.0060	0	34.5020	0	27.495	0	1289.990	0	22.5	4	6.9	4	-1E+10	1	-1E+10	1	-1E+10	1	-1E+10	1	-1E+10	1	-1E+10	1
4901784	47	C	10/17/2016	10:47	-132.116	44.806	0	1309.90	0	2.9950	0	34.5020	0	27.496	0	1295.214	0	22.5	4	7.0	4	-1E+10	1	-1E+10	1	-1E+10	1	-1E+10	1	-1E+10	1	-1E+10	1
4901784	47	C	10/17/2016	10:47	-132.116	44.806	0	1315.20	0	2.9920	0	34.5030	0	27.498	0	1300.438	0	22.6	4	7.0	4	-1E+10	1	-1E+10	1	-1E+10	1	-1E+10	1	-1E+10	1	-1E+10	1
4901784	47	C	10/17/2016	10:47	-132.116	44.806	0	1320.60	0	2.9860	0	34.5030	0	27.498	0	1305.761	0	22.7	4	7.0	4	-1E+10	1	-1E+10	1	-1E+10	1	-1E+10	1	-1E+10	1	-1E+10	1
4901784	47	C	10/17/2016	10:47	-132.116	44.806	0	1325.00	0	2.9800	0	34.5030	0	27.499	0	1310.098	0	22.8	4	7.0	4	-1E+10	1	-1E+10	1	-1E+10	1	-1E+10	1	-1E+10	1	-1E+10	1
4901784	47	C	10/17/2016	10:47	-132.116	44.806	0	1329.50	0	2.9770	0	34.5040	0	27.500	0	1314.533	0	23.0	4	7.1	4	-1E+10	1	-1E+10	1	-1E+10	1	-1E+10	1	-1E+10	1	-1E+10	1
4901784	47	C	10/17/2016	10:47	-132.116	44.806	0	1334.80	0	2.9650	0	34.5060	0	27.502	0	1319.757	0	23.4	4	7.2	4	-1E+10	1	-1E+10	1	-1E+10	1	-1E+10	1	-1E+10	1	-1E+10	1
4901784	47	C	10/17/2016	10:47	-132.116	44.806	0	1340.20	0	2.9570	0	34.5080	0	27.505	0	1325.079	0	23.7	4	7.3	4	-1E+10	1	-1E+10	1	-1E+10	1	-1E+10	1	-1E+10	1	-1E+10	1
4901784	47	C	10/17/2016	10:47	-132.116	44.806	0	1345.60	0	2.9490	0	34.5100	0	27.507	0	1330.401	0	24.0	4	7.4	4	-1E+10	1	-1E+10	1	-1E+10	1	-1E+10	1	-1E+10	1	-1E+10	1
4901784	47	C	10/17/2016	10:47	-132.116	44.806	0	1350.10	0	2.9410	0	34.5110	0	27.509	0	1334.836	0	24.2	4	7.5	4	-1E+10	1	-1E+10	1	-1E+10	1	-1E+10	1	-1E+10	1	-1E+10	1
4901784	47	C	10/17/2016	10:47	-132.116	44.806	0	1354.60	0	2.9310	0	34.5130	0	27.511	0	1339.271	0	24.4	4	7.5	4	-1E+10	1	-1E+10	1	-1E+10	1	-1E+10	1	-1E+10	1	-1E+10	1
4901784	47	C	10/17/2016	10:47	-132.116	44.806	0	1360.00	0	2.9230	0	34.5140	0	27.513	0	1344.593	0	24.5	4	7.6	4	-1E+10	1	-1E+10	1	-1E+10	1	-1E+10	1	-1E+10	1	-1E+10	1
4901784	47	C	10/17/2016	10:47	-132.116	44.806	0	1365.40	0	2.9170	0	34.5150	0	27.514	0	1349.914	0	24.6	4	7.6	4	-1E+10	1	-1E+10	1	-1E+10	1	-1E+10	1	-1E+10	1	-1E+10	1
4901784	47	C	10/17/2016	10:47	-132.116	44.806	0	1370.00	0	2.9140	0	34.5140	0	27.514	0	1354.447	0	24.8	4	7.6	4	-1E+10	1	-1E+10	1	-1E+10	1	-1E+10	1	-1E+10	1	-1E+10	1
4901784	47	C	10/17/2016	10:47	-132.116	44.806	0	1374.60	0	2.9100	0	34.5160	0	27.516	0	1358.980	0	24.8	4	7.7	4	-1E+10	1	-1E+10	1	-1E+10	1	-1E+10	1	-1E+10	1	-1E+10	1
4901784	47	C	10/17/2016	10:47	-132.116	44.806	0	1380.10	0	2.9000	0	34.5160	0	27.517	0	1364.400	0	24.9	4	7.7	4	-1E+10	1	-1E+10	1	-1E+10	1	-1E+10	1	-1E+10	1	-1E+10	1
4901784	47	C	10/17/2016	10:47	-132.116	44.806	0	1385.60	0	2.8830	0	34.5160	0	27.518	0	1369.820	0	25.0	4	7.7	4	-1E+10	1	-1E+10	1	-1E+10	1	-1E+10	1	-1E+10	1	-1E+10	1
4901784	47	C	10/17/2016	10:47	-132.116	44.806	0	1390.20	0	2.8770	0	34.5170	0	27.519	0	1374.352	0	25.1	4	7.7	4	-1E+10	1	-1E+10	1	-1E+10	1	-1E+10	1	-1E+10	1	-1E+10	1
4901784	47	C	10/17/2016	10:47	-132.116	44.806	0	1394.80	0	2.8650	0	34.5180	0	27.521	0	1378.885	0	25.2	4	7.8	4	-1E+10	1	-1E+10	1	-1E+10	1	-1E+10	1	-1E+10	1	-1E+10	1
4901784	47	C	10/17/2016	10:47	-132.116	44.806	0	1400.50	0	2.8510	0	34.5180	0	27.523	0	1384.501	0	25.2	4	7.8	4	-1E+10	1	-1E+10	1	-1E+10	1	-1E+10	1	-1E+10	1	-1E+10	1
4901784	47	C	10/17/2016	10:47	-132.116	44.806	0	1405.10	0	2.8240	0	34.5190	0	27.526	0	1389.033	0	25.0	4	7.7	4	-1E+10	1	-1E+10	1	-1E+10	1	-1E+10	1	-1E+10	1	-1E+10	1
4901784	47	C	10/17/2016	10:47	-132.116	44.806	0	1410.00	0	2.8050	0	34.5170	0	27.526	0	1393.861	0	24.8	4	7.6	4	-1E+10	1	-1E+10	1	-1E+10	1	-1E+10	1	-1E+10	1	-1E+10	1
4901784	47	C	10/17/2016	10:47	-132.116	44.806	0	1415.10	0	2.7800	0	34.5160	0	27.527	0	1398.886	0	24.6	4	7.6	4	-1E+10	1	-1E+10	1	-1E+10	1	-1E+10	1	-1E+10	1	-1E+10	1
4901784	47	C	10/17/2016	10:47	-132.116	44.806	0	1419.90	0	2.7610	0	34.5170	0	27.530	0	1403.615	0	24.7	4	7.6	4	-1E+10	1	-1E+10	1	-1E+10	1	-1E+10	1	-1E+10	1	-1E+10	1
4901784	47	C	10/17/2016	10:47	-132.116	44.806	0	1424.80	0	2.7490	0	34.5170	0	27.531	0	1408.442	0	24.7	4	7.6	4	-1E+10	1	-1E+10	1	-1E+10	1	-1E+10	1	-1E+10	1	-1E+10	1
4901784	47	C	10/17/2016	10:47	-132.116	44.806	0	1429.60	0	2.7320	0	34.5170	0	27.532	0	1413.171	0	24.6	4	7.6	4	-1E+10	1	-1E+10	1	-1E+10	1	-1E+10	1	-1E+10	1	-1E+10	1
4901784	47	C	10/17/2016	10:47	-132.116	44.806	0	1434.50	0	2.7270	0	34.5170	0	27.533	0	1417.998	0	24.8	4	7.6	4	-1E+10	1	-1E+10	1	-1E+10	1	-1E+10	1	-1E+10	1	-1E+10	1
4901784	47	C	10/17/2016	10:47	-132.116	44.806	0	1439.40	0	2.7190	0	34.5180	0	27.534	0	1422.826	0	25.0	4	7.7	4	-1E+10	1	-1E+10	1	-1E+10	1	-1E+10	1	-1E+10	1	-1E+10	1
4901784	47	C	10/17/2016	10:47	-132.116	44.806	0	1444.30	0	2.7070	0	34.5190	0	27.536	0	1427.653	0	25.3	4	7.7	4	-1E+10	1	-1E+10	1	-1E+10	1	-1E+10	1	-1E+10	1	-1E+10	1
4901784	47	C	10/17/2016	10:47	-132.116	44.806	0	1450.00	0	2.6940	0	34.5200	0	27.538	0	1433.268	0	25.4	4	7.8	4	-1E+10	1	-1E+10	1	-1E+10	1	-1E+10	1	-1E+10	1	-1E+10	1
4901784	47	C	10/17/2016	10:47	-132.116	44.806	0	1455.80	0	2.6830	0	34.5210	0	27.540	0	1438.981	0	25.5	4	7.8	4	-1E+10	1	-1E+10	1	-1E+10	1	-1E+10	1	-1E+10	1	-1E+10	1
4901784	47	C	10/17/2016	10:47	-132.116	44.806	0	1460.80	0	2.6740	0	34.5210	0	27.541	0	1443.906	0	25.6	4	7.8	4	-1E+10	1	-1E+10	1	-1E+10	1	-1E+10	1	-1E+10	1	-1E+10	1
4901784	47	C	10/17/2016	10:47	-132.116	44.806	0	1465.80	0	2.6640	0	34.5220	0	27.542	0	1448.831	0	25.7	4	7.9	4	-1E+10	1	-1E+10	1	-1E+10	1	-1E+10	1	-1E+10	1	-1E+10	1
4901784	47	C	10/17/2016	10:47	-132.116	44.806	0	1470.70	0	2.6540	0	34.5220	0	27.543	0	1453.657	0	25.9	4	7.9	4	-1E+10	1	-1E+10	1	-1E+10	1	-1E+10	1	-1E+10	1	-1E+10	1
4901784	47	C	10/17/2016	10:47	-132.116	44.806	0	1475.70	0	2.6400	0	34.5230	0	27.545	0	1458.582	0	26.1	4	8.0	4	-1E+10	1	-1E+10	1	-1E+10	1	-1E+10	1	-1E+10	1	-1E+10	1
4901784	47	C	10/17/2016	10:47	-132.116	44.806	0	1480.70	0	2.6270	0	34.5240	0	27.547	0	1463.507	0	26.2	4	8.0	4	-1E+10	1	-1E+10	1	-1E+10	1	-1E+10	1	-1E+10	1	-1E+10	1
4901784	47	C	10/17/2016	10:47	-132.116	44.806	0	1485.60	0	2.6150	0	34.5240	0	27.548	0	1468.333	0	26.4	4	8.1	4	-1E+10	1	-1E+10	1	-1E+10	1	-1E+10	1	-1E+10	1	-1E+10	1
4901784	47	C	10/17/2016	10:47	-132.116	44.806	0	1490.60	0	2.6050	0	34.5250	0	27.550	0	1473.257	0	26.4	4	8.1	4	-1E+10	1	-1E+10	1	-1E+10	1	-1E+10	1	-1E+10	1	-1E+10	1
4901784	47	C	10/17/2016	10:47	-132.116	44.806	0	1495.60	0	2.5880	0	34.5250	0	27.551	0	1478.182	0	26.5	4	8.1	4	-1E+10	1	-1E+10	1	-1E+10	1	-1E+10	1	-1E+10	1	-1E+10	1
4901784	47	C	10/17/2016	10:47	-132.116	44.806	0	1500.70	0	2.5720	0	34.5260	0	27.554	0	1483.205	0	26.9	4	8.2	4	-1E+10	1	-1E+10	1	-1E+10	1	-1E+10	1	-1E+10	1	-1E+10	1
4901784	47	C	10/17/2016	10:47	-132.116	44.806	0	1504.90	0	2.5560	0	34.5270	0	27.556	0	1487.341	0	27.1	4	8.3	4	-1E+10	1	-1E+10	1	-1E+10	1	-1E+10	1	-1E+10	1	-1E+10	1
4901784	47	C	10/17/2016	10:47	-132.116	44.806	0	1509.20	0	2.5490	0	34.5280	0	27.557	0	1491.575	0	27.3	4	8.3	4	-1E+10	1	-1E+10	1	-1E+10	1	-1E+10	1	-1E+10	1	-1E+10	1
4901784	47	C	10/17/2016	10:47	-132.116	44.806	0	1514.40	0	2.5420	0	34.5290	0	27.559	0	1496.696	0	27.6	4	8.4	4	-1E+10	1	-1E+10	1	-1E+10	1	-1E+10	1	-1E+10	1	-1E+10	1
4901784	47	C	10/17/2016	10:47	-132.116	44.806	0	1519.60	0	2.5280	0	34.5300	0	27.561	0	1501.817	0	27.8	4	8.5	4	-1E+10	1	-1E+10	1	-1E+10	1	-1E+10	1	-1E+10	1	-1E+10	1
4901784	47	C	10/17/2016	10:47	-132.116	44.806	0	1524.90	0	2.5210	0	34.5310	0	27.562	0	1507.036	0	28.0	4	8.6	4	-1E+10	1	-1E+10	1	-1E+10	1	-1E+10	1	-1E+10	1	-1E+10	1
4901784	47	C	10/17/2016	10:47	-132.116	44.806	0	1530.20	0	2.5150	0	34.5310	0	27.563	0	1512.255	0	28.3	4	8.6	4	-1E+10	1	-1E+10	1	-1E+10	1	-1E+10	1	-1E+10	1	-1E+10	1
4901784	47	C	10/17/2016	10:47	-132.116	44.806	0	1535.50	0	2.5030	0	34.5330	0	27.565	0	1517.474	0	28.6	4	8.7	4	-1E+10	1	-1E+10	1	-1E+10	1	-1E+10	1	-1E+10	1	-1E+10	1
4901784	47	C	10/17/2016	10:47	-132.116	44.806	0	1540.00	0	2.4960	0	34.5330	0	27.566	0	1521.905	0	28.9	4	8.8	4	-1E+10	1	-1E+10	1	-1E+10	1	-1E+10	1	-1E+10	1	-1E+10	1
4901784	47	C	10/17/2016	10:47	-132.116	44.806	0	1544.50	0	2.4850	0	34.5340	0	27.567	0	1526.336	0	29.1	4	8.9	4	-1E+10	1	-1E+10	1	-1E+10	1	-1E+10	1	-1E+10	1	-1E+10	1
4901784	47	C	10/17/2016	10:47	-132.116	44.806	0	1549.90	0	2.4780	0	34.5350	0	27.569	0	1531.653	0	29.3	4	8.9	4	-1E+10	1	-1E+10	1	-1E+10	1	-1E+10	1	-1E+10	1	-1E+10	1
4901784	47	C	10/17/2016	10:47	-132.116	44.806	0	1555.30	0	2.4670	0	34.5360	0	27.571	0	1536.970	0	29.6	4	9.0	4	-1E+10	1	-1E+10	1	-1E+10	1	-1E+10	1	-1E+10	1	-1E+10	1
4901784	47	C	10/17/2016	10:47	-132.116	44.806	0	1559.80	0	2.4620	0	34.5370	0	27.572	0	1541.400	0	29.7	4	9.0	4	-1E+10	1	-1E+10	1	-1E+10	1	-1E+10	1	-1E+10	1	-1E+10	1
4901784	47	C	10/17/2016	10:47	-132.116	44.806	0	1564.30	0	2.4510	0	34.5370	0	27.573	0	1545.831	0	29.9	4	9.1	4	-1E+10	1	-1E+10	1	-1E+10	1	-1E+10	1	-1E+10	1	-1E+10	1
4901784	47	C	10/17/2016	10:47	-132.116	44.806	0	1569.70	0	2.4390	0	34.5380	0	27.575	0	1551.147	0	30.1	4	9.2	4	-1E+10	1	-1E+10	1	-1E+10	1	-1E+10	1	-1E+10	1	-1E+10	1
4901784	47	C	10/17/2016	10:47	-132.116	44.806	0	1575.20	0	2.4300	0	34.5390	0	27.576	0	1556.562	0	30.4	4	9.3	4	-1E+10	1	-1E+10	1	-1E+10	1	-1E+10	1	-1E+10	1	-1E+10	1
4901784	47	C	10/17/2016	10:47	-132.116	44.806	0	1579.80	0	2.4230	0	34.5400	0	27.578	0	1561.091	0	30.7	4	9.3	4	-1E+10	1	-1E+10	1	-1E+10	1	-1E+10	1	-1E+10	1	-1E+10	1
4901784	47	C	10/17/2016	10:47	-132.116	44.806	0	1584.70	0	2.4090	0	34.5410	0	27.580	0	1565.914	0	31.1	4	9.5	4	-1E+10	1	-1E+10	1	-1E+10	1	-1E+10	1	-1E+10	1	-1E+10	1
4901784	47	C	10/17/2016	10:47	-132.116	44.806	0	1590.00	0	2.3980	0	34.5420	0	27.581	0	1571.132	0	31.4	4	9.6	4	-1E+10	1	-1E+10	1	-1E+10	1	-1E+10	1	-1E+10	1	-1E+10	1
4901784	47	C	10/17/2016	10:47	-132.116	44.806	0	1594.80	0	2.3870	0	34.5430	0	27.583	0	1575.857	0	31.8	4	9.7	4	-1E+10	1	-1E+10	1	-1E+10	1	-1E+10	1	-1E+10	1	-1E+10	1
4901784	47	C	10/17/2016	10:47	-132.116	44.806	0	1599.70	0	2.3810	0	34.5440	0	27.584	0	1580.681	0	32.1	4	9.8	4	-1E+10	1	-1E+10	1	-1E+10	1	-1E+10	1	-1E+10	1	-1E+10	1
4901784	47	C	10/17/2016	10:47	-132.116	44.806	0	1604.50	0	2.3760	0	34.5450	0	27.586	0	1585.406	0	32.4	4	9.9	4	-1E+10	1	-1E+10	1	-1E+10	1	-1E+10	1	-1E+10	1	-1E+10	1
4901784	47	C	10/17/2016	10:47	-132.116	44.806	0	1609.40	0	2.3640	0	34.5460	0	27.587	0	1590.229	0	32.8	4	10.0	4	-1E+10	1	-1E+10	1	-1E+10	1	-1E+10	1	-1E+10	1	-1E+10	1
4901784	47	C	10/17/2016	10:47	-132.116	44.806	0	1614.30	0	2.3560	0	34.5470	0	27.589	0	1595.052	0	33.2	4	10.1	4	-1E+10	1	-1E+10	1	-1E+10	1	-1E+10	1	-1E+10	1	-1E+10	1
4901784	47	C	10/17/2016	10:47	-132.116	44.806	0	1619.30	0	2.3440	0	34.5490	0	27.592	0	1599.974	0	33.5	4	10.2	4	-1E+10	1	-1E+10	1	-1E+10	1	-1E+10	1	-1E+10	1	-1E+10	1
4901784	47	C	10/17/2016	10:47	-132.116	44.806	0	1624.30	0	2.3380	0	34.5490	0	27.592	0	1604.895	0	34.0	4	10.3	4	-1E+10	1	-1E+10	1	-1E+10	1	-1E+10	1	-1E+10	1	-1E+10	1
4901784	47	C	10/17/2016	10:47	-132.116	44.806	0	1629.40	0	2.3230	0	34.5510	0	27.595	0	1609.915	0	34.7	4	10.6	4	-1E+10	1	-1E+10	1	-1E+10	1	-1E+10	1	-1E+10	1	-1E+10	1
4901784	47	C	10/17/2016	10:47	-132.116	44.806	0	1634.50	0	2.3090	0	34.5540	0	27.598	0	1614.934	0	35.3	4	10.7	4	-1E+10	1	-1E+10	1	-1E+10	1	-1E+10	1	-1E+10	1	-1E+10	1
4901784	47	C	10/17/2016	10:47	-132.116	44.806	0	1639.60	0	2.2980	0	34.5550	0	27.600	0	1619.954	0	35.8	4	10.9	4	-1E+10	1	-1E+10	1	-1E+10	1	-1E+10	1	-1E+10	1	-1E+10	1
4901784	47	C	10/17/2016	10:47	-132.116	44.806	0	1644.80	0	2.2840	0	34.5560	0	27.602	0	1625.072	0	36.3	4	11.0	4	-1E+10	1	-1E+10	1	-1E+10	1	-1E+10	1	-1E+10	1	-1E+10	1
4901784	47	C	10/17/2016	10:47	-132.116	44.806	0	1649.90	0	2.2680	0	34.5580	0	27.605	0	1630.091	0	36.8	4	11.2	4	-1E+10	1	-1E+10	1	-1E+10	1	-1E+10	1	-1E+10	1	-1E+10	1
4901784	47	C	10/17/2016	10:47	-132.116	44.806	0	1655.20	0	2.2610	0	34.5590	0	27.606	0	1635.307	0	37.3	4	11.3	4	-1E+10	1	-1E+10	1	-1E+10	1	-1E+10	1	-1E+10	1	-1E+10	1
4901784	47	C	10/17/2016	10:47	-132.116	44.806	0	1660.40	0	2.2470	0	34.5610	0	27.609	0	1640.424	0	37.9	4	11.5	4	-1E+10	1	-1E+10	1	-1E+10	1	-1E+10	1	-1E+10	1	-1E+10	1
4901784	47	C	10/17/2016	10:47	-132.116	44.806	0	1665.70	0	2.2390	0	34.5620	0	27.611	0	1645.640	0	38.3	4	11.6	4	-1E+10	1	-1E+10	1	-1E+10	1	-1E+10	1	-1E+10	1	-1E+10	1
4901784	47	C	10/17/2016	10:47	-132.116	44.806	0	1670.10	0	2.2330	0	34.5630	0	27.612	0	1649.970	0	38.6	4	11.7	4	-1E+10	1	-1E+10	1	-1E+10	1	-1E+10	1	-1E+10	1	-1E+10	1
4901784	47	C	10/17/2016	10:47	-132.116	44.806	0	1674.50	0	2.2280	0	34.5640	0	27.613	0	1654.299	0	38.8	4	11.8	4	-1E+10	1	-1E+10	1	-1E+10	1	-1E+10	1	-1E+10	1	-1E+10	1
4901784	47	C	10/17/2016	10:47	-132.116	44.806	0	1679.80	0	2.2240	0	34.5650	0	27.614	0	1659.515	0	39.2	4	11.9	4	-1E+10	1	-1E+10	1	-1E+10	1	-1E+10	1	-1E+10	1	-1E+10	1
4901784	47	C	10/17/2016	10:47	-132.116	44.806	0	1685.20	0	2.2180	0	34.5660	0	27.616	0	1664.828	0	39.6	4	12.0	4	-1E+10	1	-1E+10	1	-1E+10	1	-1E+10	1	-1E+10	1	-1E+10	1
4901784	47	C	10/17/2016	10:47	-132.116	44.806	0	1689.90	0	2.2080	0	34.5670	0	27.617	0	1669.453	0	39.9	4	12.1	4	-1E+10	1	-1E+10	1	-1E+10	1	-1E+10	1	-1E+10	1	-1E+10	1
4901784	47	C	10/17/2016	10:47	-132.116	44.806	0	1695.40	0	2.2010	0	34.5680	0	27.619	0	1674.865	0	40.2	4	12.2	4	-1E+10	1	-1E+10	1	-1E+10	1	-1E+10	1	-1E+10	1	-1E+10	1
4901784	47	C	10/17/2016	10:47	-132.116	44.806	0	1700.10	0	2.1970	0	34.5690	0	27.620	0	1679.489	0	40.4	4	12.2	4	-1E+10	1	-1E+10	1	-1E+10	1	-1E+10	1	-1E+10	1	-1E+10	1
4901784	47	C	10/17/2016	10:47	-132.116	44.806	0	1704.90	0	2.1960	0	34.5690	0	27.620	0	1684.212	0	40.6	4	12.3	4	-1E+10	1	-1E+10	1	-1E+10	1	-1E+10	1	-1E+10	1	-1E+10	1
4901784	47	C	10/17/2016	10:47	-132.116	44.806	0	1709.70	0	2.1910	0	34.5700	0	27.621	0	1688.935	0	40.9	4	12.4	4	-1E+10	1	-1E+10	1	-1E+10	1	-1E+10	1	-1E+10	1	-1E+10	1
4901784	47	C	10/17/2016	10:47	-132.116	44.806	0	1714.50	0	2.1870	0	34.5710	0	27.622	0	1693.657	0	41.1	4	12.4	4	-1E+10	1	-1E+10	1	-1E+10	1	-1E+10	1	-1E+10	1	-1E+10	1
4901784	47	C	10/17/2016	10:47	-132.116	44.806	0	1719.40	0	2.1830	0	34.5710	0	27.623	0	1698.478	0	41.5	4	12.6	4	-1E+10	1	-1E+10	1	-1E+10	1	-1E+10	1	-1E+10	1	-1E+10	1
4901784	47	C	10/17/2016	10:47	-132.116	44.806	0	1724.30	0	2.1750	0	34.5720	0	27.624	0	1703.299	0	41.9	4	12.7	4	-1E+10	1	-1E+10	1	-1E+10	1	-1E+10	1	-1E+10	1	-1E+10	1
4901784	47	C	10/17/2016	10:47	-132.116	44.806	0	1729.20	0	2.1660	0	34.5730	0	27.626	0	1708.119	0	42.3	4	12.8	4	-1E+10	1	-1E+10	1	-1E+10	1	-1E+10	1	-1E+10	1	-1E+10	1
4901784	47	C	10/17/2016	10:47	-132.116	44.806	0	1735.00	0	2.1590	0	34.5740	0	27.627	0	1713.825	0	42.6	4	12.9	4	-1E+10	1	-1E+10	1	-1E+10	1	-1E+10	1	-1E+10	1	-1E+10	1
4901784	47	C	10/17/2016	10:47	-132.116	44.806	0	1740.00	0	2.1550	0	34.5750	0	27.628	0	1718.744	0	42.9	4	13.0	4	-1E+10	1	-1E+10	1	-1E+10	1	-1E+10	1	-1E+10	1	-1E+10	1
4901784	47	C	10/17/2016	10:47	-132.116	44.806	0	1744.20	0	2.1530	0	34.5750	0	27.628	0	1722.876	0	43.1	4	13.0	4	-1E+10	1	-1E+10	1	-1E+10	1	-1E+10	1	-1E+10	1	-1E+10	1
4901784	47	C	10/17/2016	10:47	-132.116	44.806	0	1749.30	0	2.1480	0	34.5760	0	27.630	0	1727.893	0	43.4	4	13.1	4	-1E+10	1	-1E+10	1	-1E+10	1	-1E+10	1	-1E+10	1	-1E+10	1
4901784	47	C	10/17/2016	10:47	-132.116	44.806	0	1754.50	0	2.1410	0	34.5770	0	27.631	0	1733.008	0	43.9	4	13.3	4	-1E+10	1	-1E+10	1	-1E+10	1	-1E+10	1	-1E+10	1	-1E+10	1
4901784	47	C	10/17/2016	10:47	-132.116	44.806	0	1759.70	0	2.1360	0	34.5780	0	27.632	0	1738.123	0	44.3	4	13.4	4	-1E+10	1	-1E+10	1	-1E+10	1	-1E+10	1	-1E+10	1	-1E+10	1
4901784	47	C	10/17/2016	10:47	-132.116	44.806	0	1764.90	0	2.1290	0	34.5790	0	27.634	0	1743.238	0	44.6	4	13.5	4	-1E+10	1	-1E+10	1	-1E+10	1	-1E+10	1	-1E+10	1	-1E+10	1
4901784	47	C	10/17/2016	10:47	-132.116	44.806	0	1770.10	0	2.1240	0	34.5800	0	27.635	0	1748.352	0	45.0	4	13.6	4	-1E+10	1	-1E+10	1	-1E+10	1	-1E+10	1	-1E+10	1	-1E+10	1
4901784	47	C	10/17/2016	10:47	-132.116	44.806	0	1775.40	0	2.1160	0	34.5810	0	27.636	0	1753.565	0	45.5	4	13.7	4	-1E+10	1	-1E+10	1	-1E+10	1	-1E+10	1	-1E+10	1	-1E+10	1
4901784	47	C	10/17/2016	10:47	-132.116	44.806	0	1779.90	0	2.1090	0	34.5820	0	27.638	0	1757.991	0	45.7	4	13.8	4	-1E+10	1	-1E+10	1	-1E+10	1	-1E+10	1	-1E+10	1	-1E+10	1
4901784	47	C	10/17/2016	10:47	-132.116	44.806	0	1784.30	0	2.1060	0	34.5820	0	27.638	0	1762.319	0	46.0	4	13.9	4	-1E+10	1	-1E+10	1	-1E+10	1	-1E+10	1	-1E+10	1	-1E+10	1
4901784	47	C	10/17/2016	10:47	-132.116	44.806	0	1789.70	0	2.1010	0	34.5830	0	27.639	0	1767.630	0	46.4	4	14.0	4	-1E+10	1	-1E+10	1	-1E+10	1	-1E+10	1	-1E+10	1	-1E+10	1
4901784	47	C	10/17/2016	10:47	-132.116	44.806	0	1795.00	0	2.0950	0	34.5840	0	27.640	0	1772.843	0	46.8	4	14.1	4	-1E+10	1	-1E+10	1	-1E+10	1	-1E+10	1	-1E+10	1	-1E+10	1
4901784	47	C	10/17/2016	10:47	-132.116	44.806	0	1800.40	0	2.0880	0	34.5850	0	27.642	0	1778.153	0	47.2	4	14.3	4	-1E+10	1	-1E+10	1	-1E+10	1	-1E+10	1	-1E+10	1	-1E+10	1
4901784	47	C	10/17/2016	10:47	-132.116	44.806	0	1804.90	0	2.0820	0	34.5860	0	27.643	0	1782.579	0	47.6	4	14.4	4	-1E+10	1	-1E+10	1	-1E+10	1	-1E+10	1	-1E+10	1	-1E+10	1
4901784	47	C	10/17/2016	10:47	-132.116	44.806	0	1809.50	0	2.0760	0	34.5870	0	27.644	0	1787.103	0	48.0	4	14.5	4	-1E+10	1	-1E+10	1	-1E+10	1	-1E+10	1	-1E+10	1	-1E+10	1
4901784	47	C	10/17/2016	10:47	-132.116	44.806	0	1815.00	0	2.0700	0	34.5880	0	27.646	0	1792.511	0	48.3	4	14.6	4	-1E+10	1	-1E+10	1	-1E+10	1	-1E+10	1	-1E+10	1	-1E+10	1
4901784	47	C	10/17/2016	10:47	-132.116	44.806	0	1820.10	0	2.0690	0	34.5880	0	27.646	0	1797.527	0	48.5	4	14.6	4	-1E+10	1	-1E+10	1	-1E+10	1	-1E+10	1	-1E+10	1	-1E+10	1
4901784	47	C	10/17/2016	10:47	-132.116	44.806	0	1824.40	0	2.0620	0	34.5890	0	27.647	0	1801.755	0	48.7	4	14.7	4	-1E+10	1	-1E+10	1	-1E+10	1	-1E+10	1	-1E+10	1	-1E+10	1
4901784	47	C	10/17/2016	10:47	-132.116	44.806	0	1829.30	0	2.0580	0	34.5890	0	27.648	0	1806.573	0	49.0	4	14.8	4	-1E+10	1	-1E+10	1	-1E+10	1	-1E+10	1	-1E+10	1	-1E+10	1
4901784	47	C	10/17/2016	10:47	-132.116	44.806	0	1834.90	0	2.0520	0	34.5900	0	27.649	0	1812.080	0	49.3	4	14.9	4	-1E+10	1	-1E+10	1	-1E+10	1	-1E+10	1	-1E+10	1	-1E+10	1
4901784	47	C	10/17/2016	10:47	-132.116	44.806	0	1840.60	0	2.0470	0	34.5910	0	27.650	0	1817.685	0	49.6	4	15.0	4	-1E+10	1	-1E+10	1	-1E+10	1	-1E+10	1	-1E+10	1	-1E+10	1
4901784	47	C	10/17/2016	10:47	-132.116	44.806	0	1845.50	0	2.0460	0	34.5910	0	27.650	0	1822.503	0	49.8	4	15.0	4	-1E+10	1	-1E+10	1	-1E+10	1	-1E+10	1	-1E+10	1	-1E+10	1
4901784	47	C	10/17/2016	10:47	-132.116	44.806	0	1850.40	0	2.0420	0	34.5920	0	27.651	0	1827.321	0	50.1	4	15.1	4	-1E+10	1	-1E+10	1	-1E+10	1	-1E+10	1	-1E+10	1	-1E+10	1
4901784	47	C	10/17/2016	10:47	-132.116	44.806	0	1855.40	0	2.0360	0	34.5930	0	27.653	0	1832.237	0	50.4	4	15.2	4	-1E+10	1	-1E+10	1	-1E+10	1	-1E+10	1	-1E+10	1	-1E+10	1
4901784	47	C	10/17/2016	10:47	-132.116	44.806	0	1860.50	0	2.0340	0	34.5930	0	27.653	0	1837.251	0	50.6	4	15.3	4	-1E+10	1	-1E+10	1	-1E+10	1	-1E+10	1	-1E+10	1	-1E+10	1
4901784	47	C	10/17/2016	10:47	-132.116	44.806	0	1865.60	0	2.0300	0	34.5940	0	27.654	0	1842.265	0	50.8	4	15.3	4	-1E+10	1	-1E+10	1	-1E+10	1	-1E+10	1	-1E+10	1	-1E+10	1
4901784	47	C	10/17/2016	10:47	-132.116	44.806	0	1870.70	0	2.0270	0	34.5940	0	27.654	0	1847.279	0	51.1	4	15.4	4	-1E+10	1	-1E+10	1	-1E+10	1	-1E+10	1	-1E+10	1	-1E+10	1
4901784	47	C	10/17/2016	10:47	-132.116	44.806	0	1875.00	0	2.0240	0	34.5950	0	27.655	0	1851.507	0	51.3	4	15.5	4	-1E+10	1	-1E+10	1	-1E+10	1	-1E+10	1	-1E+10	1	-1E+10	1
4901784	47	C	10/17/2016	10:47	-132.116	44.806	0	1879.30	0	2.0210	0	34.5950	0	27.656	0	1855.734	0	51.5	4	15.5	4	-1E+10	1	-1E+10	1	-1E+10	1	-1E+10	1	-1E+10	1	-1E+10	1
4901784	47	C	10/17/2016	10:47	-132.116	44.806	0	1884.50	0	2.0170	0	34.5960	0	27.657	0	1860.846	0	51.8	4	15.6	4	-1E+10	1	-1E+10	1	-1E+10	1	-1E+10	1	-1E+10	1	-1E+10	1
4901784	47	C	10/17/2016	10:47	-132.116	44.806	0	1889.70	0	2.0140	0	34.5970	0	27.658	0	1865.958	0	52.0	4	15.7	4	-1E+10	1	-1E+10	1	-1E+10	1	-1E+10	1	-1E+10	1	-1E+10	1
4901784	47	C	10/17/2016	10:47	-132.116	44.806	0	1894.90	0	2.0130	0	34.5970	0	27.658	0	1871.070	0	52.2	4	15.7	4	-1E+10	1	-1E+10	1	-1E+10	1	-1E+10	1	-1E+10	1	-1E+10	1
4901784	47	C	10/17/2016	10:47	-132.116	44.806	0	1900.10	0	2.0080	0	34.5970	0	27.658	0	1876.182	0	52.5	4	15.8	4	-1E+10	1	-1E+10	1	-1E+10	1	-1E+10	1	-1E+10	1	-1E+10	1
4901784	47	C	10/17/2016	10:47	-132.116	44.806	0	1905.40	0	2.0050	0	34.5980	0	27.659	0	1881.392	0	52.8	4	15.9	4	-1E+10	1	-1E+10	1	-1E+10	1	-1E+10	1	-1E+10	1	-1E+10	1
4901784	47	C	10/17/2016	10:47	-132.116	44.806	0	1909.80	0	2.0010	0	34.5990	0	27.660	0	1885.717	0	53.0	4	16.0	4	-1E+10	1	-1E+10	1	-1E+10	1	-1E+10	1	-1E+10	1	-1E+10	1
4901784	47	C	10/17/2016	10:47	-132.116	44.806	0	1914.30	0	1.9960	0	34.5990	0	27.661	0	1890.140	0	53.3	4	16.1	4	-1E+10	1	-1E+10	1	-1E+10	1	-1E+10	1	-1E+10	1	-1E+10	1
4901784	47	C	10/17/2016	10:47	-132.116	44.806	0	1919.70	0	1.9930	0	34.6000	0	27.662	0	1895.448	0	53.6	4	16.1	4	-1E+10	1	-1E+10	1	-1E+10	1	-1E+10	1	-1E+10	1	-1E+10	1
4901784	47	C	10/17/2016	10:47	-132.116	44.806	0	1925.00	0	1.9900	0	34.6000	0	27.662	0	1900.657	0	53.8	4	16.2	4	-1E+10	1	-1E+10	1	-1E+10	1	-1E+10	1	-1E+10	1	-1E+10	1
4901784	47	C	10/17/2016	10:47	-132.116	44.806	0	1930.50	0	1.9880	0	34.6010	0	27.663	0	1906.063	0	54.0	4	16.3	4	-1E+10	1	-1E+10	1	-1E+10	1	-1E+10	1	-1E+10	1	-1E+10	1
4901784	47	C	10/17/2016	10:47	-132.116	44.806	0	1935.00	0	1.9850	0	34.6010	0	27.663	0	1910.486	0	54.3	4	16.4	4	-1E+10	1	-1E+10	1	-1E+10	1	-1E+10	1	-1E+10	1	-1E+10	1
4901784	47	C	10/17/2016	10:47	-132.116	44.806	0	1939.50	0	1.9800	0	34.6020	0	27.665	0	1914.909	0	54.6	4	16.5	4	-1E+10	1	-1E+10	1	-1E+10	1	-1E+10	1	-1E+10	1	-1E+10	1
4901784	47	C	10/17/2016	10:47	-132.116	44.806	0	1945.00	0	1.9770	0	34.6030	0	27.666	0	1920.314	0	54.9	4	16.5	4	-1E+10	1	-1E+10	1	-1E+10	1	-1E+10	1	-1E+10	1	-1E+10	1
4901784	47	C	10/17/2016	10:47	-132.116	44.806	0	1950.50	0	1.9750	0	34.6030	0	27.666	0	1925.719	0	55.1	4	16.6	4	-1E+10	1	-1E+10	1	-1E+10	1	-1E+10	1	-1E+10	1	-1E+10	1
4901784	47	C	10/17/2016	10:47	-132.116	44.806	0	1955.10	0	1.9730	0	34.6030	0	27.666	0	1930.240	0	55.2	4	16.6	4	-1E+10	1	-1E+10	1	-1E+10	1	-1E+10	1	-1E+10	1	-1E+10	1
4901784	47	C	10/17/2016	10:47	-132.116	44.806	0	1959.70	0	1.9700	0	34.6040	0	27.667	0	1934.761	0	55.4	4	16.7	4	-1E+10	1	-1E+10	1	-1E+10	1	-1E+10	1	-1E+10	1	-1E+10	1
4901784	47	C	10/17/2016	10:47	-132.116	44.806	0	1965.20	0	1.9690	0	34.6040	0	27.667	0	1940.166	0	55.6	4	16.8	4	-1E+10	1	-1E+10	1	-1E+10	1	-1E+10	1	-1E+10	1	-1E+10	1
4901784	47	C	10/17/2016	10:47	-132.116	44.806	0	1969.90	0	1.9660	0	34.6050	0	27.668	0	1944.784	0	55.9	4	16.8	4	-1E+10	1	-1E+10	1	-1E+10	1	-1E+10	1	-1E+10	1	-1E+10	1
4901784	47	C	10/17/2016	10:47	-132.116	44.806	0	1974.50	0	1.9620	0	34.6050	0	27.669	0	1949.305	0	56.2	4	16.9	4	-1E+10	1	-1E+10	1	-1E+10	1	-1E+10	1	-1E+10	1	-1E+10	1
4901784	47	C	10/17/2016	10:47	-132.116	44.806	0	1980.00	0	1.9580	0	34.6060	0	27.670	0	1954.709	0	56.5	4	17.0	4	-1E+10	1	-1E+10	1	-1E+10	1	-1E+10	1	-1E+10	1	-1E+10	1
4901784	47	C	10/17/2016	10:47	-132.116	44.806	0	1985.40	0	1.9550	0	34.6070	0	27.671	0	1960.016	0	56.7	4	17.1	4	-1E+10	1	-1E+10	1	-1E+10	1	-1E+10	1	-1E+10	1	-1E+10	1
4901784	47	C	10/17/2016	10:47	-132.116	44.806	0	1990.30	0	1.9520	0	34.6070	0	27.671	0	1964.830	0	57.0	4	17.2	4	-1E+10	1	-1E+10	1	-1E+10	1	-1E+10	1	-1E+10	1	-1E+10	1
4901784	47	C	10/17/2016	10:47	-132.116	44.806	0	1995.20	0	1.9490	0	34.6080	0	27.672	0	1969.645	0	57.2	4	17.2	4	-1E+10	1	-1E+10	1	-1E+10	1	-1E+10	1	-1E+10	1	-1E+10	1
4901784	47	C	10/17/2016	10:47	-132.116	44.806	0	1999.90	0	1.9480	0	34.6080	0	27.672	0	1974.263	0	57.3	4	17.3	4	-1E+10	1	-1E+10	1	-1E+10	1	-1E+10	1	-1E+10	1	-1E+10	1
4901784	47	C	10/17/2016	10:47	-132.116	44.806	0	2005.20	0	1.9470	0	34.6090	0	27.673	0	1979.470	0	57.5	4	17.3	4	-1E+10	1	-1E+10	1	-1E+10	1	-1E+10	1	-1E+10	1	-1E+10	1
4901784	47	C	10/17/2016	10:47	-132.116	44.806	0	2011.30	0	1.9470	0	34.6090	0	27.673	0	1985.464	0	56.8	8	17.1	8	-1E+10	1	-1E+10	1	-1E+10	1	-1E+10	1	-1E+10	1	-1E+10	1
4901784	47	C	10/17/2016	10:47	-132.116	44.806	0																										
4901784	48	C	10/27/2016	10:46	-132.105	44.739	0	1.90	0	15.2070	0	32.5980	0	24.077	0	1.885	0	237.7	4	94.7	4	-1E+10	1	-1E+10	1	-1E+10	1	-1E+10	1	-1E+10	1	-1E+10	1
4901784	48	C	10/27/2016	10:46	-132.105	44.739	0	3.40	0	15.2090	0	32.5970	0	24.076	0	3.372	0	237.4	4	94.6	4	-1E+10	1	-1E+10	1	-1E+10	1	-1E+10	1	-1E+10	1	-1E+10	1
4901784	48	C	10/27/2016	10:46	-132.105	44.739	0	5.00	0	15.2100	0	32.5980	0	24.076	0	4.959	0	237.3	4	94.6	4	-1E+10	1	-1E+10	1	-1E+10	1	-1E+10	1	-1E+10	1	-1E+10	1
4901784	48	C	10/27/2016	10:46	-132.105	44.739	0	6.70	0	15.2090	0	32.5970	0	24.076	0	6.646	0	237.3	4	94.6	4	-1E+10	1	-1E+10	1	-1E+10	1	-1E+10	1	-1E+10	1	-1E+10	1
4901784	48	C	10/27/2016	10:46	-132.105	44.739	0	8.60	0	15.2100	0	32.5970	0	24.076	0	8.530	0	237.2	4	94.5	4	-1E+10	1	-1E+10	1	-1E+10	1	-1E+10	1	-1E+10	1	-1E+10	1
4901784	48	C	10/27/2016	10:46	-132.105	44.739	0	10.60	0	15.2140	0	32.5970	0	24.075	0	10.514	0	237.0	4	94.5	4	-1E+10	1	-1E+10	1	-1E+10	1	-1E+10	1	-1E+10	1	-1E+10	1
4901784	48	C	10/27/2016	10:46	-132.105	44.739	0	12.60	0	15.2140	0	32.5970	0	24.075	0	12.498	0	236.7	4	94.3	4	-1E+10	1	-1E+10	1	-1E+10	1	-1E+10	1	-1E+10	1	-1E+10	1
4901784	48	C	10/27/2016	10:46	-132.105	44.739	0	14.50	0	15.2150	0	32.5970	0	24.075	0	14.382	0	236.7	4	94.4	4	-1E+10	1	-1E+10	1	-1E+10	1	-1E+10	1	-1E+10	1	-1E+10	1
4901784	48	C	10/27/2016	10:46	-132.105	44.739	0	16.50	0	15.2150	0	32.5970	0	24.075	0	16.366	0	236.3	4	94.2	4	-1E+10	1	-1E+10	1	-1E+10	1	-1E+10	1	-1E+10	1	-1E+10	1
4901784	48	C	10/27/2016	10:46	-132.105	44.739	0	19.10	0	15.2150	0	32.5970	0	24.075	0	18.945	0	236.3	4	94.2	4	-1E+10	1	-1E+10	1	-1E+10	1	-1E+10	1	-1E+10	1	-1E+10	1
4901784	48	C	10/27/2016	10:46	-132.105	44.739	0	21.10	0	15.2160	0	32.5970	0	24.075	0	20.928	0	236.4	4	94.2	4	-1E+10	1	-1E+10	1	-1E+10	1	-1E+10	1	-1E+10	1	-1E+10	1
4901784	48	C	10/27/2016	10:46	-132.105	44.739	0	22.70	0	15.2140	0	32.5970	0	24.075	0	22.515	0	236.3	4	94.2	4	-1E+10	1	-1E+10	1	-1E+10	1	-1E+10	1	-1E+10	1	-1E+10	1
4901784	48	C	10/27/2016	10:46	-132.105	44.739	0	24.30	0	15.2110	0	32.5970	0	24.076	0	24.102	0	236.2	4	94.1	4	-1E+10	1	-1E+10	1	-1E+10	1	-1E+10	1	-1E+10	1	-1E+10	1
4901784	48	C	10/27/2016	10:46	-132.105	44.739	0	25.80	0	15.2120	0	32.5960	0	24.075	0	25.590	0	236.2	4	94.1	4	-1E+10	1	-1E+10	1	-1E+10	1	-1E+10	1	-1E+10	1	-1E+10	1
4901784	48	C	10/27/2016	10:46	-132.105	44.739	0	27.40	0	15.2140	0	32.5950	0	24.074	0	27.176	0	236.3	4	94.2	4	-1E+10	1	-1E+10	1	-1E+10	1	-1E+10	1	-1E+10	1	-1E+10	1
4901784	48	C	10/27/2016	10:46	-132.105	44.739	0	29.30	0	15.2140	0	32.5930	0	24.072	0	29.061	0	236.8	4	94.4	4	-1E+10	1	-1E+10	1	-1E+10	1	-1E+10	1	-1E+10	1	-1E+10	1
4901784	48	C	10/27/2016	10:46	-132.105	44.739	0	30.60	0	15.2130	0	32.5900	0	24.070	0	30.350	0	237.6	4	94.7	4	-1E+10	1	-1E+10	1	-1E+10	1	-1E+10	1	-1E+10	1	-1E+10	1
4901784	48	C	10/27/2016	10:46	-132.105	44.739	0	31.60	0	15.2120	0	32.5860	0	24.067	0	31.342	0	238.9	4	95.2	4	-1E+10	1	-1E+10	1	-1E+10	1	-1E+10	1	-1E+10	1	-1E+10	1
4901784	48	C	10/27/2016	10:46	-132.105	44.739	0	32.50	0	15.1990	0	32.5840	0	24.069	0	32.234	0	240.5	4	95.8	4	-1E+10	1	-1E+10	1	-1E+10	1	-1E+10	1	-1E+10	1	-1E+10	1
4901784	48	C	10/27/2016	10:46	-132.105	44.739	0	34.00	0	15.1500	0	32.5650	4	24.065	0	33.722	0	244.6	4	97.4	4	-1E+10	1	-1E+10	1	-1E+10	1	-1E+10	1	-1E+10	1	-1E+10	1
4901784	48	C	10/27/2016	10:46	-132.105	44.739	0	35.60	0	14.4590	0	32.6130	0	24.249	0	35.309	0	252.7	4	99.2	4	-1E+10	1	-1E+10	1	-1E+10	1	-1E+10	1	-1E+10	1	-1E+10	1
4901784	48	C	10/27/2016	10:46	-132.105	44.739	0	36.90	0	13.3800	0	32.7270	0	24.559	0	36.598	0	259.5	4	99.8	4	-1E+10	1	-1E+10	1	-1E+10	1	-1E+10	1	-1E+10	1	-1E+10	1
4901784	48	C	10/27/2016	10:46	-132.105	44.739	0	38.40	0	12.7000	0	32.7750	0	24.730	0	38.086	0	263.1	4	99.8	4	-1E+10	1	-1E+10	1	-1E+10	1	-1E+10	1	-1E+10	1	-1E+10	1
4901784	48	C	10/27/2016	10:46	-132.105	44.739	0	40.00	0	11.9660	0	32.8000	0	24.889	0	39.672	0	266.1	4	99.4	4	-1E+10	1	-1E+10	1	-1E+10	1	-1E+10	1	-1E+10	1	-1E+10	1
4901784	48	C	10/27/2016	10:46	-132.105	44.739	0	41.50	0	10.9530	0	32.8440	0	25.107	0	41.160	0	268.3	4	98.2	4	-1E+10	1	-1E+10	1	-1E+10	1	-1E+10	1	-1E+10	1	-1E+10	1
4901784	48	C	10/27/2016	10:46	-132.105	44.739	0	43.20	0	10.7420	0	32.8380	0	25.139	0	42.846	0	268.3	4	97.8	4	-1E+10	1	-1E+10	1	-1E+10	1	-1E+10	1	-1E+10	1	-1E+10	1
4901784	48	C	10/27/2016	10:46	-132.105	44.739	0	45.10	0	10.2820	0	32.8680	0	25.241	0	44.730	0	268.6	4	96.9	4	-1E+10	1	-1E+10	1	-1E+10	1	-1E+10	1	-1E+10	1	-1E+10	1
4901784	48	C	10/27/2016	10:46	-132.105	44.739	0	45.60	0	10.2340	0	32.8710	0	25.252	0	45.226	0	268.7	4	96.9	4	-1E+10	1	-1E+10	1	-1E+10	1	-1E+10	1	-1E+10	1	-1E+10	1
4901784	48	C	10/27/2016	10:46	-132.105	44.739	0	47.10	0	10.1210	0	32.8700	0	25.270	0	46.713	0	268.4	4	96.5	4	-1E+10	1	-1E+10	1	-1E+10	1	-1E+10	1	-1E+10	1	-1E+10	1
4901784	48	C	10/27/2016	10:46	-132.105	44.739	0	48.70	0	10.0990	0	32.8720	0	25.275	0	48.300	0	267.4	4	96.1	4	-1E+10	1	-1E+10	1	-1E+10	1	-1E+10	1	-1E+10	1	-1E+10	1
4901784	48	C	10/27/2016	10:46	-132.105	44.739	0	50.10	0	10.0910	0	32.8740	0	25.278	0	49.688	0	266.1	4	95.6	4	-1E+10	1	-1E+10	1	-1E+10	1	-1E+10	1	-1E+10	1	-1E+10	1
4901784	48	C	10/27/2016	10:46	-132.105	44.739	0	51.60	0	10.0090	0	32.8760	0	25.294	0	51.176	0	265.0	4	95.1	4	-1E+10	1	-1E+10	1	-1E+10	1	-1E+10	1	-1E+10	1	-1E+10	1
4901784	48	C	10/27/2016	10:46	-132.105	44.739	0	53.20	0	9.8610	0	32.8810	0	25.322	0	52.763	0	264.3	4	94.5	4	-1E+10	1	-1E+10	1	-1E+10	1	-1E+10	1	-1E+10	1	-1E+10	1
4901784	48	C	10/27/2016	10:46	-132.105	44.739	0	54.70	0	9.7810	0	32.8810	0	25.335	0	54.250	0	263.6	4	94.1	4	-1E+10	1	-1E+10	1	-1E+10	1	-1E+10	1	-1E+10	1	-1E+10	1
4901784	48	C	10/27/2016	10:46	-132.105	44.739	0	56.30	0	9.7080	0	32.8820	0	25.348	0	55.837	0	263.2	4	93.8	4	-1E+10	1	-1E+10	1	-1E+10	1	-1E+10	1	-1E+10	1	-1E+10	1
4901784	48	C	10/27/2016	10:46	-132.105	44.739	0	57.80	0	9.6380	0	32.8830	0	25.360	0	57.324	0	262.7	4	93.5	4	-1E+10	1	-1E+10	1	-1E+10	1	-1E+10	1	-1E+10	1	-1E+10	1
4901784	48	C	10/27/2016	10:46	-132.105	44.739	0	59.40	0	9.6080	0	32.8860	0	25.368	0	58.911	0	262.0	4	93.2	4	-1E+10	1	-1E+10	1	-1E+10	1	-1E+10	1	-1E+10	1	-1E+10	1
4901784	48	C	10/27/2016	10:46	-132.105	44.739	0	61.00	0	9.5760	0	32.8910	0	25.377	0	60.497	0	261.3	4	92.9	4	-1E+10	1	-1E+10	1	-1E+10	1	-1E+10	1	-1E+10	1	-1E+10	1
4901784	48	C	10/27/2016	10:46	-132.105	44.739	0	62.60	0	9.5600	0	32.8890	0	25.378	0	62.084	0	260.9	4	92.7	4	-1E+10	1	-1E+10	1	-1E+10	1	-1E+10	1	-1E+10	1	-1E+10	1
4901784	48	C	10/27/2016	10:46	-132.105	44.739	0	64.20	0	9.5500	0	32.8870	0	25.378	0	63.670	0	259.9	4	92.3	4	-1E+10	1	-1E+10	1	-1E+10	1	-1E+10	1	-1E+10	1	-1E+10	1
4901784	48	C	10/27/2016	10:46	-132.105	44.739	0	65.90	0	9.3880	0	32.8840	0	25.402	0	65.356	0	259.5	4	91.8	4	-1E+10	1	-1E+10	1	-1E+10	1	-1E+10	1	-1E+10	1	-1E+10	1
4901784	48	C	10/27/2016	10:46	-132.105	44.739	0	67.50	0	9.3730	0	32.8910	0	25.409	0	66.943	0	258.6	4	91.5	4	-1E+10	1	-1E+10	1	-1E+10	1	-1E+10	1	-1E+10	1	-1E+10	1
4901784	48	C	10/27/2016	10:46	-132.105	44.739	0	69.10	0	9.3430	0	32.8940	0	25.417	0	68.529	0	258.3	4	91.3	4	-1E+10	1	-1E+10	1	-1E+10	1	-1E+10	1	-1E+10	1	-1E+10	1
4901784	48	C	10/27/2016	10:46	-132.105	44.739	0	70.90	0	9.3020	0	32.9000	0	25.428	0	70.314	0	257.2	4	90.9	4	-1E+10	1	-1E+10	1	-1E+10	1	-1E+10	1	-1E+10	1	-1E+10	1
4901784	48	C	10/27/2016	10:46	-132.105	44.739	0	72.60	0	9.2880	0	32.9110	0	25.439	0	72.000	0	256.5	4	90.6	4	-1E+10	1	-1E+10	1	-1E+10	1	-1E+10	1	-1E+10	1	-1E+10	1
4901784	48	C	10/27/2016	10:46	-132.105	44.739	0	74.20	0	9.2050	0	32.9120	0	25.453	0	73.586	0	255.9	4	90.2	4	-1E+10	1	-1E+10	1	-1E+10	1	-1E+10	1	-1E+10	1	-1E+10	1
4901784	48	C	10/27/2016	10:46	-132.105	44.739	0	75.90	0	9.1710	0	32.9170	0	25.462	0	75.272	0	255.5	4	90.0	4	-1E+10	1	-1E+10	1	-1E+10	1	-1E+10	1	-1E+10	1	-1E+10	1
4901784	48	C	10/27/2016	10:46	-132.105	44.739	0	77.60	0	9.1210	0	32.9160	0	25.469	0	76.957	0	254.7	4	89.7	4	-1E+10	1	-1E+10	1	-1E+10	1	-1E+10	1	-1E+10	1	-1E+10	1
4901784	48	C	10/27/2016	10:46	-132.105	44.739	0	79.20	0	9.0800	0	32.9230	0	25.481	0	78.544	0	254.2	4	89.4	4	-1E+10	1	-1E+10	1	-1E+10	1	-1E+10	1	-1E+10	1	-1E+10	1
4901784	48	C	10/27/2016	10:46	-132.105	44.739	0	80.80	0	9.0360	0	32.9330	0	25.496	0	80.130	0	253.1	4	88.9	4	-1E+10	1	-1E+10	1	-1E+10	1	-1E+10	1	-1E+10	1	-1E+10	1
4901784	48	C	10/27/2016	10:46	-132.105	44.739	0	82.50	0	9.0200	0	32.9370	0	25.502	0	81.816	0	252.1	4	88.5	4	-1E+10	1	-1E+10	1	-1E+10	1	-1E+10	1	-1E+10	1	-1E+10	1
4901784	48	C	10/27/2016	10:46	-132.105	44.739	0	84.20	0	9.0270	0	32.9400	0	25.503	0	83.501	0	250.3	4	87.9	4	-1E+10	1	-1E+10	1	-1E+10	1	-1E+10	1	-1E+10	1	-1E+10	1
4901784	48	C	10/27/2016	10:46	-132.105	44.739	0	85.80	0	9.0040	0	32.9550	0	25.518	0	85.088	0	248.3	4	87.2	4	-1E+10	1	-1E+10	1	-1E+10	1	-1E+10	1	-1E+10	1	-1E+10	1
4901784	48	C	10/27/2016	10:46	-132.105	44.739	0	87.50	0	9.0250	0	33.0000	0	25.550	0	86.773	0	245.9	4	86.4	4	-1E+10	1	-1E+10	1	-1E+10	1	-1E+10	1	-1E+10	1	-1E+10	1
4901784	48	C	10/27/2016	10:46	-132.105	44.739	0	89.30	0	9.0010	0	33.0120	0	25.563	0	88.558	0	244.1	4	85.7	4	-1E+10	1	-1E+10	1	-1E+10	1	-1E+10	1	-1E+10	1	-1E+10	1
4901784	48	C	10/27/2016	10:46	-132.105	44.739	0	91.10	0	9.0450	0	33.0350	0	25.574	0	90.343	0	241.5	4	84.9	4	-1E+10	1	-1E+10	1	-1E+10	1	-1E+10	1	-1E+10	1	-1E+10	1
4901784	48	C	10/27/2016	10:46	-132.105	44.739	0	92.90	0	9.0600	0	33.0490	0	25.583	0	92.127	0	239.1	4	84.1	4	-1E+10	1	-1E+10	1	-1E+10	1	-1E+10	1	-1E+10	1	-1E+10	1
4901784	48	C	10/27/2016	10:46	-132.105	44.739	0	95.20	0	9.0420	0	33.0990	0	25.625	0	94.408	0	236.0	4	83.0	4	-1E+10	1	-1E+10	1	-1E+10	1	-1E+10	1	-1E+10	1	-1E+10	1
4901784	48	C	10/27/2016	10:46	-132.105	44.739	0	96.90	0	9.0320	0	33.1090	0	25.634	0	96.093	0	233.4	4	82.1	4	-1E+10	1	-1E+10	1	-1E+10	1	-1E+10	1	-1E+10	1	-1E+10	1
4901784	48	C	10/27/2016	10:46	-132.105	44.739	0	98.30	0	9.0060	0	33.1310	0	25.656	0	97.481	0	230.7	4	81.1	4	-1E+10	1	-1E+10	1	-1E+10	1	-1E+10	1	-1E+10	1	-1E+10	1
4901784	48	C	10/27/2016	10:46	-132.105	44.739	0	99.80	0	8.9880	0	33.2000	0	25.713	0	98.968	0	228.0	4	80.2	4	-1E+10	1	-1E+10	1	-1E+10	1	-1E+10	1	-1E+10	1	-1E+10	1
4901784	48	C	10/27/2016	10:46	-132.105	44.739	0	102.70	0	8.9740	0	33.2200	0	25.731	0	101.843	0	223.2	4	78.5	4	-1E+10	1	-1E+10	1	-1E+10	1	-1E+10	1	-1E+10	1	-1E+10	1
4901784	48	C	10/27/2016	10:46	-132.105	44.739	0	104.90	0	8.9690	0	33.2870	0	25.784	0	104.025	0	218.3	4	76.8	4	-1E+10	1	-1E+10	1	-1E+10	1	-1E+10	1	-1E+10	1	-1E+10	1
4901784	48	C	10/27/2016	10:46	-132.105	44.739	0	107.90	0	8.9860	0	33.3890	0	25.861	0	106.999	0	211.0	4	74.3	4	-1E+10	1	-1E+10	1	-1E+10	1	-1E+10	1	-1E+10	1	-1E+10	1
4901784	48	C	10/27/2016	10:46	-132.105	44.739	0	110.20	0	8.9910	0	33.4830	0	25.934	0	109.279	0	207.5	4	73.1	4	-1E+10	1	-1E+10	1	-1E+10	1	-1E+10	1	-1E+10	1	-1E+10	1
4901784	48	C	10/27/2016	10:46	-132.105	44.739	0	112.50	0	8.9510	0	33.5280	0	25.975	0	111.559	0	205.6	4	72.4	4	-1E+10	1	-1E+10	1	-1E+10	1	-1E+10	1	-1E+10	1	-1E+10	1
4901784	48	C	10/27/2016	10:46	-132.105	44.739	0	115.00	0	8.9220	0	33.5650	0	26.009	0	114.037	0	203.3	4	71.6	4	-1E+10	1	-1E+10	1	-1E+10	1	-1E+10	1	-1E+10	1	-1E+10	1
4901784	48	C	10/27/2016	10:46	-132.105	44.739	0	117.60	0	8.9060	0	33.5900	0	26.031	0	116.615	0	200.5	4	70.6	4	-1E+10	1	-1E+10	1	-1E+10	1	-1E+10	1	-1E+10	1	-1E+10	1
4901784	48	C	10/27/2016	10:46	-132.105	44.739	0	120.00	0	8.8710	0	33.6240	0	26.063	0	118.994	0	197.5	4	69.5	4	-1E+10	1	-1E+10	1	-1E+10	1	-1E+10	1	-1E+10	1	-1E+10	1
4901784	48	C	10/27/2016	10:46	-132.105	44.739	0	122.40	0	8.8250	0	33.6740	0	26.110	0	121.373	0	194.7	4	68.4	4	-1E+10	1	-1E+10	1	-1E+10	1	-1E+10	1	-1E+10	1	-1E+10	1
4901784	48	C	10/27/2016	10:46	-132.105	44.739	0	124.90	0	8.7830	0	33.7140	0	26.148	0	123.852	0	193.2	4	67.9	4	-1E+10	1	-1E+10	1	-1E+10	1	-1E+10	1	-1E+10	1	-1E+10	1
4901784	48	C	10/27/2016	10:46	-132.105	44.739	0	127.50	0	8.7180	0	33.7730	0	26.204	0	126.429	0	191.6	4	67.2	4	-1E+10	1	-1E+10	1	-1E+10	1	-1E+10	1	-1E+10	1	-1E+10	1
4901784	48	C	10/27/2016	10:46	-132.105	44.739	0	130.10	0	8.6980	0	33.7930	0	26.223	0	129.006	0	190.5	4	66.9	4	-1E+10	1	-1E+10	1	-1E+10	1	-1E+10	1	-1E+10	1	-1E+10	1
4901784	48	C	10/27/2016	10:46	-132.105	44.739	0	132.70	0	8.6840	0	33.8010	0	26.231	0	131.584	0	188.9	4	66.3	4	-1E+10	1	-1E+10	1	-1E+10	1	-1E+10	1	-1E+10	1	-1E+10	1
4901784	48	C	10/27/2016	10:46	-132.105	44.739	0	135.20	0	8.6270	0	33.8150	0	26.251	0	134.062	0	187.1	4	65.6	4	-1E+10	1	-1E+10	1	-1E+10	1	-1E+10	1	-1E+10	1	-1E+10	1
4901784	48	C	10/27/2016	10:46	-132.105	44.739	0	137.00	0	8.5780	0	33.8250	0	26.266	0	135.846	0	186.5	4	65.3	4	-1E+10	1	-1E+10	1	-1E+10	1	-1E+10	1	-1E+10	1	-1E+10	1
4901784	48	C	10/27/2016	10:46	-132.105	44.739	0	139.70	0	8.5530	0	33.8290	0	26.273	0	138.522	0	185.8	4	65.0	4	-1E+10	1	-1E+10	1	-1E+10	1	-1E+10	1	-1E+10	1	-1E+10	1
4901784	48	C	10/27/2016	10:46	-132.105	44.739	0	142.40	0	8.5140	0	33.8340	0	26.283	0	141.199	0	184.7	4	64.6	4	-1E+10	1	-1E+10	1	-1E+10	1	-1E+10	1	-1E+10	1	-1E+10	1
4901784	48	C	10/27/2016	10:46	-132.105	44.739	0	145.30	0	8.4010	0	33.8450	0	26.309	0	144.073	0	184.4	4	64.3	4	-1E+10	1	-1E+10	1	-1E+10	1	-1E+10	1	-1E+10	1	-1E+10	1
4901784	48	C	10/27/2016	10:46	-132.105	44.739	0	148.00	0	8.3490	0	33.8580	0	26.327	0	146.750	0	184.3	4	64.2	4	-1E+10	1	-1E+10	1	-1E+10	1	-1E+10	1	-1E+10	1	-1E+10	1
4901784	48	C	10/27/2016	10:46	-132.105	44.739	0	149.80	0	8.3660	0	33.8590	0	26.326	0	148.534	0	184.2	4	64.2	4	-1E+10	1	-1E+10	1	-1E+10	1	-1E+10	1	-1E+10	1	-1E+10	1
4901784	48	C	10/27/2016	10:46	-132.105	44.739	0	152.50	0	8.3360	0	33.8720	0	26.340	0	151.210	0	183.1	4	63.8	4	-1E+10	1	-1E+10	1	-1E+10	1	-1E+10	1	-1E+10	1	-1E+10	1
4901784	48	C	10/27/2016	10:46	-132.105	44.739	0	155.30	0	8.2840	0	33.8800	0	26.355	0	153.985	0	183.4	4	63.8	4	-1E+10	1	-1E+10	1	-1E+10	1	-1E+10	1	-1E+10	1	-1E+10	1
4901784	48	C	10/27/2016	10:46	-132.105	44.739	0	157.10	0	8.3300	0	33.8980	0	26.362	0	155.769	0	183.0	4	63.7	4	-1E+10	1	-1E+10	1	-1E+10	1	-1E+10	1	-1E+10	1	-1E+10	1
4901784	48	C	10/27/2016	10:46	-132.105	44.739	0	159.90	0	8.3090	0	33.9070	0	26.372	0	158.544	0	181.0	4	63.0	4	-1E+10	1	-1E+10	1	-1E+10	1	-1E+10	1	-1E+10	1	-1E+10	1
4901784	48	C	10/27/2016	10:46	-132.105	44.739	0	162.80	0	8.2250	0	33.9050	0	26.383	0	161.419	0	179.4	4	62.3	4	-1E+10	1	-1E+10	1	-1E+10	1	-1E+10	1	-1E+10	1	-1E+10	1
4901784	48	C	10/27/2016	10:46	-132.105	44.739	0	164.60	0	8.2070	0	33.9040	0	26.385	0	163.203	0	178.2	4	61.9	4	-1E+10	1	-1E+10	1	-1E+10	1	-1E+10	1	-1E+10	1	-1E+10	1
4901784	48	C	10/27/2016	10:46	-132.105	44.739	0	167.50	0	8.1150	0	33.9010	0	26.396	0	166.077	0	176.8	4	61.3	4	-1E+10	1	-1E+10	1	-1E+10	1	-1E+10	1	-1E+10	1	-1E+10	1
4901784	48	C	10/27/2016	10:46	-132.105	44.739	0	170.30	0	8.0720	0	33.9070	0	26.408	0	168.852	0	175.7	4	60.8	4	-1E+10	1	-1E+10	1	-1E+10	1	-1E+10	1	-1E+10	1	-1E+10	1
4901784	48	C	10/27/2016	10:46	-132.105	44.739	0	172.20	0	8.0320	0	33.9060	0	26.413	0	170.735	0	174.9	4	60.5	4	-1E+10	1	-1E+10	1	-1E+10	1	-1E+10	1	-1E+10	1	-1E+10	1
4901784	48	C	10/27/2016	10:46	-132.105	44.739	0	175.00	0	8.0100	0	33.9040	0	26.414	0	173.510	0	173.7	4	60.1	4	-1E+10	1	-1E+10	1	-1E+10	1	-1E+10	1	-1E+10	1	-1E+10	1
4901784	48	C	10/27/2016	10:46	-132.105	44.739	0	177.80	0	7.9480	0	33.9060	0	26.425	0	176.285	0	172.5	4	59.6	4	-1E+10	1	-1E+10	1	-1E+10	1	-1E+10	1	-1E+10	1	-1E+10	1
4901784	48	C	10/27/2016	10:46	-132.105	44.739	0	179.70	0	7.9690	0	33.9080	0	26.424	0	178.168	0	171.4	4	59.2	4	-1E+10	1	-1E+10	1	-1E+10	1	-1E+10	1	-1E+10	1	-1E+10	1
4901784	48	C	10/27/2016	10:46	-132.105	44.739	0	182.60	0	7.8770	0	33.9200	0	26.447	0	181.042	0	170.1	4	58.6	4	-1E+10	1	-1E+10	1	-1E+10	1	-1E+10	1	-1E+10	1	-1E+10	1
4901784	48	C	10/27/2016	10:46	-132.105	44.739	0	185.40	0	7.8560	0	33.9190	0	26.449	0	183.817	0	168.7	4	58.2	4	-1E+10	1	-1E+10	1	-1E+10	1	-1E+10	1	-1E+10	1	-1E+10	1
4901784	48	C	10/27/2016	10:46	-132.105	44.739	0	187.30	0	7.8160	0	33.9180	0	26.454	0	185.700	0	167.7	4	57.8	4	-1E+10	1	-1E+10	1	-1E+10	1	-1E+10	1	-1E+10	1	-1E+10	1
4901784	48	C	10/27/2016	10:46	-132.105	44.739	0	190.20	0	7.7250	0	33.9150	0	26.465	0	188.574	0	166.1	4	57.1	4	-1E+10	1	-1E+10	1	-1E+10	1	-1E+10	1	-1E+10	1	-1E+10	1
4901784	48	C	10/27/2016	10:46	-132.105	44.739	0	193.00	0	7.6350	0	33.9100	0	26.474	0	191.349	0	164.9	4	56.5	4	-1E+10	1	-1E+10	1	-1E+10	1	-1E+10	1	-1E+10	1	-1E+10	1
4901784	48	C	10/27/2016	10:46	-132.105	44.739	0	194.90	0	7.5800	0	33.9130	0	26.484	0	193.231	0	163.9	4	56.1	4	-1E+10	1	-1E+10	1	-1E+10	1	-1E+10	1	-1E+10	1	-1E+10	1
4901784	48	C	10/27/2016	10:46	-132.105	44.739	0	196.90	0	7.5510	0	33.9120	0	26.488	0	195.213	0	163.0	4	55.8	4	-1E+10	1	-1E+10	1	-1E+10	1	-1E+10	1	-1E+10	1	-1E+10	1
4901784	48	C	10/27/2016	10:46	-132.105	44.739	0	199.70	0	7.4900	0	33.9140	0	26.498	0	197.988	0	161.5	4	55.2	4	-1E+10	1	-1E+10	1	-1E+10	1	-1E+10	1	-1E+10	1	-1E+10	1
4901784	48	C	10/27/2016	10:46	-132.105	44.739	0	202.60	0	7.4360	0	33.9140	0	26.506	0	200.862	0	159.8	4	54.6	4	-1E+10	1	-1E+10	1	-1E+10	1	-1E+10	1	-1E+10	1	-1E+10	1
4901784	48	C	10/27/2016	10:46	-132.105	44.739	0	204.60	0	7.4090	0	33.9140	0	26.509	0	202.844	0	158.7	4	54.1	4	-1E+10	1	-1E+10	1	-1E+10	1	-1E+10	1	-1E+10	1	-1E+10	1
4901784	48	C	10/27/2016	10:46	-132.105	44.739	0	207.50	0	7.3200	0	33.9160	0	26.523	0	205.717	0	156.9	4	53.4	4	-1E+10	1	-1E+10	1	-1E+10	1	-1E+10	1	-1E+10	1	-1E+10	1
4901784	48	C	10/27/2016	10:46	-132.105	44.739	0	210.30	0	7.2460	0	33.9200	0	26.537	0	208.492	0	155.6	4	52.9	4	-1E+10	1	-1E+10	1	-1E+10	1	-1E+10	1	-1E+10	1	-1E+10	1
4901784	48	C	10/27/2016	10:46	-132.105	44.739	0	212.20	0	7.2220	0	33.9200	0	26.540	0	210.374	0	155.0	4	52.7	4	-1E+10	1	-1E+10	1	-1E+10	1	-1E+10	1	-1E+10	1	-1E+10	1
4901784	48	C	10/27/2016	10:46	-132.105	44.739	0	215.10	0	7.1850	0	33.9220	0	26.547	0	213.248	0	153.8	4	52.2	4	-1E+10	1	-1E+10	1	-1E+10	1	-1E+10	1	-1E+10	1	-1E+10	1
4901784	48	C	10/27/2016	10:46	-132.105	44.739	0	218.00	0	7.1530	0	33.9250	0	26.554	0	216.122	0	153.0	4	51.9	4	-1E+10	1	-1E+10	1	-1E+10	1	-1E+10	1	-1E+10	1	-1E+10	1
4901784	48	C	10/27/2016	10:46	-132.105	44.739	0	219.80	0	7.1470	0	33.9240	0	26.554	0	217.905	0	152.3	4	51.6	4	-1E+10	1	-1E+10	1	-1E+10	1	-1E+10	1	-1E+10	1	-1E+10	1
4901784	48	C	10/27/2016	10:46	-132.105	44.739	0	221.70	0	7.1380	0	33.9240	0	26.555	0	219.788	0	151.6	4	51.4	4	-1E+10	1	-1E+10	1	-1E+10	1	-1E+10	1	-1E+10	1	-1E+10	1
4901784	48	C	10/27/2016	10:46	-132.105	44.739	0	224.70	0	7.0980	0	33.9250	0	26.562	0	222.760	0	150.7	4	51.1	4	-1E+10	1	-1E+10	1	-1E+10	1	-1E+10	1	-1E+10	1	-1E+10	1
4901784	48	C	10/27/2016	10:46	-132.105	44.739	0	227.50	0	7.0450	0	33.9250	0	26.569	0	225.534	0	149.7	4	50.7	4	-1E+10	1	-1E+10	1	-1E+10	1	-1E+10	1	-1E+10	1	-1E+10	1
4901784	48	C	10/27/2016	10:46	-132.105	44.739	0	229.90	0	7.0340	0	33.9240	0	26.570	0	227.912	0	148.9	4	50.4	4	-1E+10	1	-1E+10	1	-1E+10	1	-1E+10	1	-1E+10	1	-1E+10	1
4901784	48	C	10/27/2016	10:46	-132.105	44.739	0	232.20	0	7.0130	0	33.9230	0	26.572	0	230.191	0	147.7	4	49.9	4	-1E+10	1	-1E+10	1	-1E+10	1	-1E+10	1	-1E+10	1	-1E+10	1
4901784	48	C	10/27/2016	10:46	-132.105	44.739	0	234.50	0	6.9780	0	33.9230	0	26.577	0	232.470	0	146.3	4	49.4	4	-1E+10	1	-1E+10	1	-1E+10	1	-1E+10	1	-1E+10	1	-1E+10	1
4901784	48	C	10/27/2016	10:46	-132.105	44.739	0	237.70	0	6.8990	0	33.9250	0	26.589	0	235.641	0	144.2	4	48.6	4	-1E+10	1	-1E+10	1	-1E+10	1	-1E+10	1	-1E+10	1	-1E+10	1
4901784	48	C	10/27/2016	10:46	-132.105	44.739	0	240.20	0	6.8720	0	33.9230	0	26.591	0	238.117	0	142.9	4	48.2	4	-1E+10	1	-1E+10	1	-1E+10	1	-1E+10	1	-1E+10	1	-1E+10	1
4901784	48	C	10/27/2016	10:46	-132.105	44.739	0	242.50	0	6.8150	0	33.9250	0	26.600	0	240.396	0	141.2	4	47.5	4	-1E+10	1	-1E+10	1	-1E+10	1	-1E+10	1	-1E+10	1	-1E+10	1
4901784	48	C	10/27/2016	10:46	-132.105	44.739	0	245.00	0	6.7730	0	33.9270	0	26.607	0	242.873	0	139.8	4	47.0	4	-1E+10	1	-1E+10	1	-1E+10	1	-1E+10	1	-1E+10	1	-1E+10	1
4901784	48	C	10/27/2016	10:46	-132.105	44.739	0	247.40	0	6.7440	0	33.9270	0	26.611	0	245.251	0	138.6	4	46.6	4	-1E+10	1	-1E+10	1	-1E+10	1	-1E+10	1	-1E+10	1	-1E+10	1
4901784	48	C	10/27/2016	10:46	-132.105	44.739	0	249.80	0	6.7260	0	33.9270	0	26.614	0	247.628	0	137.1	4	46.1	4	-1E+10	1	-1E+10	1	-1E+10	1	-1E+10	1	-1E+10	1	-1E+10	1
4901784	48	C	10/27/2016	10:46	-132.105	44.739	0	252.20	0	6.6870	0	33.9280	0	26.620	0	250.006	0	135.3	4	45.4	4	-1E+10	1	-1E+10	1	-1E+10	1	-1E+10	1	-1E+10	1	-1E+10	1
4901784	48	C	10/27/2016	10:46	-132.105	44.739	0	254.70	0	6.6240	0	33.9320	0	26.631	0	252.483	0	134.0	4	44.9	4	-1E+10	1	-1E+10	1	-1E+10	1	-1E+10	1	-1E+10	1	-1E+10	1
4901784	48	C	10/27/2016	10:46	-132.105	44.739	0	257.20	0	6.6090	0	33.9330	0	26.634	0	254.960	0	133.2	4	44.6	4	-1E+10	1	-1E+10	1	-1E+10	1	-1E+10	1	-1E+10	1	-1E+10	1
4901784	48	C	10/27/2016	10:46	-132.105	44.739	0	259.80	0	6.5860	0	33.9320	0	26.636	0	257.535	0	132.3	4	44.3	4	-1E+10	1	-1E+10	1	-1E+10	1	-1E+10	1	-1E+10	1	-1E+10	1
4901784	48	C	10/27/2016	10:46	-132.105	44.739	0	262.30	0	6.5690	0	33.9310	0	26.638	0	260.012	0	131.2	4	43.9	4	-1E+10	1	-1E+10	1	-1E+10	1	-1E+10	1	-1E+10	1	-1E+10	1
4901784	48	C	10/27/2016	10:46	-132.105	44.739	0	264.90	0	6.5640	0	33.9300	0	26.638	0	262.588	0	129.7	4	43.4	4	-1E+10	1	-1E+10	1	-1E+10	1	-1E+10	1	-1E+10	1	-1E+10	1
4901784	48	C	10/27/2016	10:46	-132.105	44.739	0	267.40	0	6.5390	0	33.9300	0	26.641	0	265.064	0	127.6	4	42.7	4	-1E+10	1	-1E+10	1	-1E+10	1	-1E+10	1	-1E+10	1	-1E+10	1
4901784	48	C	10/27/2016	10:46	-132.105	44.739	0	270.00	0	6.4760	0	33.9320	0	26.651	0	267.640	0	125.5	4	41.9	4	-1E+10	1	-1E+10	1	-1E+10	1	-1E+10	1	-1E+10	1	-1E+10	1
4901784	48	C	10/27/2016	10:46	-132.105	44.739	0	272.50	0	6.4300	0	33.9330	0	26.658	0	270.116	0	123.5	4	41.2	4	-1E+10	1	-1E+10	1	-1E+10	1	-1E+10	1	-1E+10	1	-1E+10	1
4901784	48	C	10/27/2016	10:46	-132.105	44.739	0	275.00	0	6.4090	0	33.9310	0	26.659	0	272.593	0	121.9	4	40.7	4	-1E+10	1	-1E+10	1	-1E+10	1	-1E+10	1	-1E+10	1	-1E+10	1
4901784	48	C	10/27/2016	10:46	-132.105	44.739	0	277.60	0	6.3560	0	33.9330	0	26.667	0	275.168	0	120.2	4	40.1	4	-1E+10	1	-1E+10	1	-1E+10	1	-1E+10	1	-1E+10	1	-1E+10	1
4901784	48	C	10/27/2016	10:46	-132.105	44.739	0	280.10	0	6.3100	0	33.9340	0	26.674	0	277.645	0	118.8	4	39.5	4	-1E+10	1	-1E+10	1	-1E+10	1	-1E+10	1	-1E+10	1	-1E+10	1
4901784	48	C	10/27/2016	10:46	-132.105	44.739	0	282.70	0	6.2830	0	33.9350	0	26.678	0	280.220	0	117.8	4	39.2	4	-1E+10	1	-1E+10	1	-1E+10	1	-1E+10	1	-1E+10	1	-1E+10	1
4901784	48	C	10/27/2016	10:46	-132.105	44.739	0	285.20	0	6.2640	0	33.9340	0	26.680	0	282.697	0	116.8	4	38.8	4	-1E+10	1	-1E+10	1	-1E+10	1	-1E+10	1	-1E+10	1	-1E+10	1
4901784	48	C	10/27/2016	10:46	-132.105	44.739	0	287.80	0	6.2420	0	33.9340	0	26.683	0	285.272	0	115.5	4	38.4	4	-1E+10	1	-1E+10	1	-1E+10	1	-1E+10	1	-1E+10	1	-1E+10	1
4901784	48	C	10/27/2016	10:46	-132.105	44.739	0	290.40	0	6.2010	0	33.9340	0	26.688	0	287.847	0	114.3	4	37.9	4	-1E+10	1	-1E+10	1	-1E+10	1	-1E+10	1	-1E+10	1	-1E+10	1
4901784	48	C	10/27/2016	10:46	-132.105	44.739	0	292.90	0	6.1650	0	33.9350	0	26.694	0	290.324	0	113.2	4	37.6	4	-1E+10	1	-1E+10	1	-1E+10	1	-1E+10	1	-1E+10	1	-1E+10	1
4901784	48	C	10/27/2016	10:46	-132.105	44.739	0	295.50	0	6.1300	0	33.9360	0	26.699	0	292.899	0	112.4	4	37.3	4	-1E+10	1	-1E+10	1	-1E+10	1	-1E+10	1	-1E+10	1	-1E+10	1
4901784	48	C	10/27/2016	10:46	-132.105	44.739	0	297.20	0	6.1200	0	33.9350	0	26.699	0	294.583	0	111.7	4	37.0	4	-1E+10	1	-1E+10	1	-1E+10	1	-1E+10	1	-1E+10	1	-1E+10	1
4901784	48	C	10/27/2016	10:46	-132.105	44.739	0	299.80	0	6.0960	0	33.9330	0	26.701	0	297.158	0	110.3	4	36.5	4	-1E+10	1	-1E+10	1	-1E+10	1	-1E+10	1	-1E+10	1	-1E+10	1
4901784	48	C	10/27/2016	10:46	-132.105	44.739	0	302.40	0	6.0500	0	33.9350	0	26.708	0	299.733	0	108.9	4	36.0	4	-1E+10	1	-1E+10	1	-1E+10	1	-1E+10	1	-1E+10	1	-1E+10	1
4901784	48	C	10/27/2016	10:46	-132.105	44.739	0	305.10	0	6.0050	0	33.9350	0	26.714	0	302.407	0	107.7	4	35.6	4	-1E+10	1	-1E+10	1	-1E+10	1	-1E+10	1	-1E+10	1	-1E+10	1
4901784	48	C	10/27/2016	10:46	-132.105	44.739	0	307.80	0	5.9430	0	33.9340	0	26.721	0	305.082	0	106.9	4	35.3	4	-1E+10	1	-1E+10	1	-1E+10	1	-1E+10	1	-1E+10	1	-1E+10	1
4901784	48	C	10/27/2016	10:46	-132.105	44.739	0	309.60	0	5.9340	0	33.9340	0	26.722	0	306.864	0	106.1	4	35.0	4	-1E+10	1	-1E+10	1	-1E+10	1	-1E+10	1	-1E+10	1	-1E+10	1
4901784	48	C	10/27/2016	10:46	-132.105	44.739	0	312.20	0	5.9140	0	33.9340	0	26.725	0	309.439	0	104.6	4	34.5	4	-1E+10	1	-1E+10	1	-1E+10	1	-1E+10	1	-1E+10	1	-1E+10	1
4901784	48	C	10/27/2016	10:46	-132.105	44.739	0	314.80	0	5.8370	0	33.9350	0	26.735	0	312.014	0	103.1	4	33.9	4	-1E+10	1	-1E+10	1	-1E+10	1	-1E+10	1	-1E+10	1	-1E+10	1
4901784	48	C	10/27/2016	10:46	-132.105	44.739	0	317.40	0	5.7780	0	33.9360	0	26.743	0	314.589	0	102.0	4	33.5	4	-1E+10	1	-1E+10	1	-1E+10	1	-1E+10	1	-1E+10	1	-1E+10	1
4901784	48	C	10/27/2016	10:46	-132.105	44.739	0	320.10	0	5.7270	0	33.9400	0	26.752	0	317.264	0	101.1	4	33.2	4	-1E+10	1	-1E+10	1	-1E+10	1	-1E+10	1	-1E+10	1	-1E+10	1
4901784	48	C	10/27/2016	10:46	-132.105	44.739	0	322.80	0	5.7180	0	33.9400	0	26.753	0	319.937	0	100.6	4	33.0	4	-1E+10	1	-1E+10	1	-1E+10	1	-1E+10	1	-1E+10	1	-1E+10	1
4901784	48	C	10/27/2016	10:46	-132.105	44.739	0	325.40	0	5.7160	0	33.9400	0	26.754	0	322.512	0	99.9	4	32.8	4	-1E+10	1	-1E+10	1	-1E+10	1	-1E+10	1	-1E+10	1	-1E+10	1
4901784	48	C	10/27/2016	10:46	-132.105	44.739	0	327.20	0	5.7110	0	33.9400	0	26.754	0	324.295	0	99.3	4	32.6	4	-1E+10	1	-1E+10	1	-1E+10	1	-1E+10	1	-1E+10	1	-1E+10	1
4901784	48	C	10/27/2016	10:46	-132.105	44.739	0	329.80	0	5.6950	0	33.9400	0	26.756	0	326.870	0	98.2	4	32.2	4	-1E+10	1	-1E+10	1	-1E+10	1	-1E+10	1	-1E+10	1	-1E+10	1
4901784	48	C	10/27/2016	10:46	-132.105	44.739	0	332.50	0	5.6730	0	33.9410	0	26.760	0	329.544	0	97.0	4	31.8	4	-1E+10	1	-1E+10	1	-1E+10	1	-1E+10	1	-1E+10	1	-1E+10	1
4901784	48	C	10/27/2016	10:46	-132.105	44.739	0	335.20	0	5.6490	0	33.9420	0	26.764	0	332.218	0	95.5	4	31.3	4	-1E+10	1	-1E+10	1	-1E+10	1	-1E+10	1	-1E+10	1	-1E+10	1
4901784	48	C	10/27/2016	10:46	-132.105	44.739	0	337.90	0	5.6320	0	33.9410	0	26.765	0	334.891	0	94.0	4	30.8	4	-1E+10	1	-1E+10	1	-1E+10	1	-1E+10	1	-1E+10	1	-1E+10	1
4901784	48	C	10/27/2016	10:46	-132.105	44.739	0	339.70	0	5.5690	0	33.9440	0	26.775	0	336.674	0	92.9	4	30.4	4	-1E+10	1	-1E+10	1	-1E+10	1	-1E+10	1	-1E+10	1	-1E+10	1
4901784	48	C	10/27/2016	10:46	-132.105	44.739	0	342.50	0	5.5540	0	33.9470	0	26.779	0	339.447	0	91.6	4	30.0	4	-1E+10	1	-1E+10	1	-1E+10	1	-1E+10	1	-1E+10	1	-1E+10	1
4901784	48	C	10/27/2016	10:46	-132.105	44.739	0	345.40	0	5.5330	0	33.9480	0	26.782	0	342.318	0	90.6	4	29.6	4	-1E+10	1	-1E+10	1	-1E+10	1	-1E+10	1	-1E+10	1	-1E+10	1
4901784	48	C	10/27/2016	10:46	-132.105	44.739	0	347.80	0	5.5070	0	33.9490	0	26.786	0	344.695	0	89.7	4	29.3	4	-1E+10	1	-1E+10	1	-1E+10	1	-1E+10	1	-1E+10	1	-1E+10	1
4901784	48	C	10/27/2016	10:46	-132.105	44.739	0	349.70	0	5.4790	0	33.9480	0	26.789	0	346.576	0	88.9	4	29.0	4	-1E+10	1	-1E+10	1	-1E+10	1	-1E+10	1	-1E+10	1	-1E+10	1
4901784	48	C	10/27/2016	10:46	-132.105	44.739	0	352.10	0	5.4340	0	33.9460	0	26.793	0	348.953	0	87.3	4	28.5	4	-1E+10	1	-1E+10	1	-1E+10	1	-1E+10	1	-1E+10	1	-1E+10	1
4901784	48	C	10/27/2016	10:46	-132.105	44.739	0	355.30	0	5.4030	0	33.9530	0	26.802	0	352.122	0	85.1	4	27.7	4	-1E+10	1	-1E+10	1	-1E+10	1	-1E+10	1	-1E+10	1	-1E+10	1
4901784	48	C	10/27/2016	10:46	-132.105	44.739	0	357.70	0	5.3560	0	33.9540	0	26.808	0	354.498	0	83.7	4	27.3	4	-1E+10	1	-1E+10	1	-1E+10	1	-1E+10	1	-1E+10	1	-1E+10	1
4901784	48	C	10/27/2016	10:46	-132.105	44.739	0	360.20	0	5.3520	0	33.9560	0	26.810	0	356.974	0	82.2	4	26.8	4	-1E+10	1	-1E+10	1	-1E+10	1	-1E+10	1	-1E+10	1	-1E+10	1
4901784	48	C	10/27/2016	10:46	-132.105	44.739	0	362.60	0	5.3470	0	33.9580	0	26.812	0	359.350	0	80.7	4	26.3	4	-1E+10	1	-1E+10	1	-1E+10	1	-1E+10	1	-1E+10	1	-1E+10	1
4901784	48	C	10/27/2016	10:46	-132.105	44.739	0	365.10	0	5.3100	0	33.9600	0	26.818	0	361.825	0	79.1	4	25.7	4	-1E+10	1	-1E+10	1	-1E+10	1	-1E+10	1	-1E+10	1	-1E+10	1
4901784	48	C	10/27/2016	10:46	-132.105	44.739	0	367.50	0	5.3060	0	33.9650	0	26.823	0	364.202	0	76.8	4	25.0	4	-1E+10	1	-1E+10	1	-1E+10	1	-1E+10	1	-1E+10	1	-1E+10	1
4901784	48	C	10/27/2016	10:46	-132.105	44.739	0	370.00	0	5.3150	0	33.9700	0	26.826	0	366.677	0	75.3	4	24.5	4	-1E+10	1	-1E+10	1	-1E+10	1	-1E+10	1	-1E+10	1	-1E+10	1
4901784	48	C	10/27/2016	10:46	-132.105	44.739	0	372.60	0	5.3080	0	33.9710	0	26.827	0	369.252	0	74.1	4	24.1	4	-1E+10	1	-1E+10	1	-1E+10	1	-1E+10	1	-1E+10	1	-1E+10	1
4901784	48	C	10/27/2016	10:46	-132.105	44.739	0	375.10	0	5.2840	0	33.9720	0	26.831	0	371.727	0	72.3	4	23.5	4	-1E+10	1	-1E+10	1	-1E+10	1	-1E+10	1	-1E+10	1	-1E+10	1
4901784	48	C	10/27/2016	10:46	-132.105	44.739	0	377.70	0	5.2930	0	33.9760	0	26.833	0	374.301	0	70.5	4	22.9	4	-1E+10	1	-1E+10	1	-1E+10	1	-1E+10	1	-1E+10	1	-1E+10	1
4901784	48	C	10/27/2016	10:46	-132.105	44.739	0	380.20	0	5.2750	0	33.9800	0	26.838	0	376.776	0	69.0	4	22.4	4	-1E+10	1	-1E+10	1	-1E+10	1	-1E+10	1	-1E+10	1	-1E+10	1
4901784	48	C	10/27/2016	10:46	-132.105	44.739	0	382.70	0	5.2670	0	33.9840	0	26.843	0	379.252	0	67.6	4	22.0	4	-1E+10	1	-1E+10	1	-1E+10	1	-1E+10	1	-1E+10	1	-1E+10	1
4901784	48	C	10/27/2016	10:46	-132.105	44.739	0	385.20	0	5.2590	0	33.9850	0	26.844	0	381.727	0	66.7	4	21.7	4	-1E+10	1	-1E+10	1	-1E+10	1	-1E+10	1	-1E+10	1	-1E+10	1
4901784	48	C	10/27/2016	10:46	-132.105	44.739	0	387.80	0	5.2340	0	33.9870	0	26.849	0	384.301	0	65.2	4	21.2	4	-1E+10	1	-1E+10	1	-1E+10	1	-1E+10	1	-1E+10	1	-1E+10	1
4901784	48	C	10/27/2016	10:46	-132.105	44.739	0	389.50	0	5.2330	0	33.9890	0	26.851	0	385.984	0	64.1	4	20.8	4	-1E+10	1	-1E+10	1	-1E+10	1	-1E+10	1	-1E+10	1	-1E+10	1
4901784	48	C	10/27/2016	10:46	-132.105	44.739	0	392.20	0	5.2220	0	33.9930	0	26.855	0	388.657	0	62.6	4	20.3	4	-1E+10	1	-1E+10	1	-1E+10	1	-1E+10	1	-1E+10	1	-1E+10	1
4901784	48	C	10/27/2016	10:46	-132.105	44.739	0	394.80	0	5.2130	0	33.9970	0	26.859	0	391.231	0	61.7	4	20.0	4	-1E+10	1	-1E+10	1	-1E+10	1	-1E+10	1	-1E+10	1	-1E+10	1
4901784	48	C	10/27/2016	10:46	-132.105	44.739	0	397.40	0	5.1970	0	33.9980	0	26.862	0	393.805	0	61.3	4	19.9	4	-1E+10	1	-1E+10	1	-1E+10	1	-1E+10	1	-1E+10	1	-1E+10	1
4901784	48	C	10/27/2016	10:46	-132.105	44.739	0	400.00	0	5.1720	0	33.9990	0	26.866	0	396.379	0	60.9	4	19.7	4	-1E+10	1	-1E+10	1	-1E+10	1	-1E+10	1	-1E+10	1	-1E+10	1
4901784	48	C	10/27/2016	10:46	-132.105	44.739	0	402.70	0	5.1360	0	34.0000	0	26.871	0	399.052	0	60.8	4	19.7	4	-1E+10	1	-1E+10	1	-1E+10	1	-1E+10	1	-1E+10	1	-1E+10	1
4901784	48	C	10/27/2016	10:46	-132.105	44.739	0	405.30	0	5.1020	0	34.0010	0	26.875	0	401.626	0	60.5	4	19.6	4	-1E+10	1	-1E+10	1	-1E+10	1	-1E+10	1	-1E+10	1	-1E+10	1
4901784	48	C	10/27/2016	10:46	-132.105	44.739	0	407.10	0	5.0930	0	34.0000	0	26.876	0	403.408	0	60.0	4	19.4	4	-1E+10	1	-1E+10	1	-1E+10	1	-1E+10	1	-1E+10	1	-1E+10	1
4901784	48	C	10/27/2016	10:46	-132.105	44.739	0	409.80	0	5.0640	0	34.0030	0	26.881	0	406.081	0	59.2	4	19.2	4	-1E+10	1	-1E+10	1	-1E+10	1	-1E+10	1	-1E+10	1	-1E+10	1
4901784	48	C	10/27/2016	10:46	-132.105	44.739	0	412.50	0	5.0230	0	34.0060	0	26.888	0	408.754	0	58.4	4	18.9	4	-1E+10	1	-1E+10	1	-1E+10	1	-1E+10	1	-1E+10	1	-1E+10	1
4901784	48	C	10/27/2016	10:46	-132.105	44.739	0	415.30	0	5.0290	0	34.0090	0	26.890	0	411.525	0	57.6	4	18.6	4	-1E+10	1	-1E+10	1	-1E+10	1	-1E+10	1	-1E+10	1	-1E+10	1
4901784	48	C	10/27/2016	10:46	-132.105	44.739	0	418.00	0	5.0190	0	34.0090	0	26.891	0	414.198	0	57.1	4	18.4	4	-1E+10	1	-1E+10	1	-1E+10	1	-1E+10	1	-1E+10	1	-1E+10	1
4901784	48	C	10/27/2016	10:46	-132.105	44.739	0	419.80	0	5.0030	0	34.0080	0	26.892	0	415.980	0	56.6	4	18.3	4	-1E+10	1	-1E+10	1	-1E+10	1	-1E+10	1	-1E+10	1	-1E+10	1
4901784	48	C	10/27/2016	10:46	-132.105	44.739	0	422.60	0	4.9840	0	34.0140	0	26.899	0	418.752	0	56.1	4	18.1	4	-1E+10	1	-1E+10	1	-1E+10	1	-1E+10	1	-1E+10	1	-1E+10	1
4901784	48	C	10/27/2016	10:46	-132.105	44.739	0	425.30	0	4.9540	0	34.0150	0	26.903	0	421.424	0	55.7	4	18.0	4	-1E+10	1	-1E+10	1	-1E+10	1	-1E+10	1	-1E+10	1	-1E+10	1
4901784	48	C	10/27/2016	10:46	-132.105	44.739	0	427.10	0	4.9300	0	34.0180	0	26.909	0	423.206	0	55.5	4	17.9	4	-1E+10	1	-1E+10	1	-1E+10	1	-1E+10	1	-1E+10	1	-1E+10	1
4901784	48	C	10/27/2016	10:46	-132.105	44.739	0	429.90	0	4.9170	0	34.0180	0	26.910	0	425.978	0	55.3	4	17.8	4	-1E+10	1	-1E+10	1	-1E+10	1	-1E+10	1	-1E+10	1	-1E+10	1
4901784	48	C	10/27/2016	10:46	-132.105	44.739	0	432.70	0	4.9040	0	34.0190	0	26.912	0	428.749	0	55.1	4	17.7	4	-1E+10	1	-1E+10	1	-1E+10	1	-1E+10	1	-1E+10	1	-1E+10	1
4901784	48	C	10/27/2016	10:46	-132.105	44.739	0	434.60	0	4.9030	0	34.0190	0	26.912	0	430.630	0	54.8	4	17.7	4	-1E+10	1	-1E+10	1	-1E+10	1	-1E+10	1	-1E+10	1	-1E+10	1
4901784	48	C	10/27/2016	10:46	-132.105	44.739	0	437.40	0	4.8920	0	34.0200	0	26.915	0	433.402	0	54.3	4	17.5	4	-1E+10	1	-1E+10	1	-1E+10	1	-1E+10	1	-1E+10	1	-1E+10	1
4901784	48	C	10/27/2016	10:46	-132.105	44.739	0	440.20	0	4.8730	0	34.0220	0	26.918	0	436.173	0	53.6	4	17.2	4	-1E+10	1	-1E+10	1	-1E+10	1	-1E+10	1	-1E+10	1	-1E+10	1
4901784	48	C	10/27/2016	10:46	-132.105	44.739	0	442.10	0	4.8660	0	34.0240	0	26.921	0	438.054	0	53.2	4	17.1	4	-1E+10	1	-1E+10	1	-1E+10	1	-1E+10	1	-1E+10	1	-1E+10	1
4901784	48	C	10/27/2016	10:46	-132.105	44.739	0	444.90	0	4.8580	0	34.0250	0	26.922	0	440.825	0	52.4	4	16.9	4	-1E+10	1	-1E+10	1	-1E+10	1	-1E+10	1	-1E+10	1	-1E+10	1
4901784	48	C	10/27/2016	10:46	-132.105	44.739	0	447.80	0	4.8500	0	34.0250	0	26.923	0	443.695	0	51.8	4	16.7	4	-1E+10	1	-1E+10	1	-1E+10	1	-1E+10	1	-1E+10	1	-1E+10	1
4901784	48	C	10/27/2016	10:46	-132.105	44.739	0	449.70	0	4.8480	0	34.0270	0	26.925	0	445.576	0	51.3	4	16.5	4	-1E+10	1	-1E+10	1	-1E+10	1	-1E+10	1	-1E+10	1	-1E+10	1
4901784	48	C	10/27/2016	10:46	-132.105	44.739	0	452.60	0	4.8330	0	34.0300	0	26.929	0	448.446	0	50.5	4	16.2	4	-1E+10	1	-1E+10	1	-1E+10	1	-1E+10	1	-1E+10	1	-1E+10	1
4901784	48	C	10/27/2016	10:46	-132.105	44.739	0	455.50	0	4.8200	0	34.0330	0	26.933	0	451.316	0	49.9	4	16.0	4	-1E+10	1	-1E+10	1	-1E+10	1	-1E+10	1	-1E+10	1	-1E+10	1
4901784	48	C	10/27/2016	10:46	-132.105	44.739	0	457.40	0	4.8190	0	34.0340	0	26.934	0	453.197	0	49.5	4	15.9	4	-1E+10	1	-1E+10	1	-1E+10	1	-1E+10	1	-1E+10	1	-1E+10	1
4901784	48	C	10/27/2016	10:46	-132.105	44.739	0	460.20	0	4.8140	0	34.0360	0	26.936	0	455.968	0	48.8	4	15.7	4	-1E+10	1	-1E+10	1	-1E+10	1	-1E+10	1	-1E+10	1	-1E+10	1
4901784	48	C	10/27/2016	10:46	-132.105	44.739	0	463.10	0	4.8100	0	34.0380	0	26.938	0	458.838	0	48.1	4	15.5	4	-1E+10	1	-1E+10	1	-1E+10	1	-1E+10	1	-1E+10	1	-1E+10	1
4901784	48	C	10/27/2016	10:46	-132.105	44.739	0	464.90	0	4.7940	0	34.0410	0	26.942	0	460.620	0	47.7	4	15.3	4	-1E+10	1	-1E+10	1	-1E+10	1	-1E+10	1	-1E+10	1	-1E+10	1
4901784	48	C	10/27/2016	10:46	-132.105	44.739	0	467.80	0	4.7740	0	34.0430	0	26.946	0	463.490	0	47.3	4	15.2	4	-1E+10	1	-1E+10	1	-1E+10	1	-1E+10	1	-1E+10	1	-1E+10	1
4901784	48	C	10/27/2016	10:46	-132.105	44.739	0	470.60	0	4.7590	0	34.0440	0	26.949	0	466.261	0	46.8	4	15.0	4	-1E+10	1	-1E+10	1	-1E+10	1	-1E+10	1	-1E+10	1	-1E+10	1
4901784	48	C	10/27/2016	10:46	-132.105	44.739	0	472.50	0	4.7720	0	34.0450	0	26.948	0	468.141	0	46.4	4	14.9	4	-1E+10	1	-1E+10	1	-1E+10	1	-1E+10	1	-1E+10	1	-1E+10	1
4901784	48	C	10/27/2016	10:46	-132.105	44.739	0	474.40	0	4.7630	0	34.0460	0	26.950	0	470.021	0	46.1	4	14.8	4	-1E+10	1	-1E+10	1	-1E+10	1	-1E+10	1	-1E+10	1	-1E+10	1
4901784	48	C	10/27/2016	10:46	-132.105	44.739	0	477.30	0	4.7470	0	34.0480	0	26.953	0	472.891	0	45.7	4	14.7	4	-1E+10	1	-1E+10	1	-1E+10	1	-1E+10	1	-1E+10	1	-1E+10	1
4901784	48	C	10/27/2016	10:46	-132.105	44.739	0	480.20	0	4.7400	0	34.0490	0	26.955	0	475.761	0	45.2	4	14.5	4	-1E+10	1	-1E+10	1	-1E+10	1	-1E+10	1	-1E+10	1	-1E+10	1
4901784	48	C	10/27/2016	10:46	-132.105	44.739	0	482.10	0	4.7330	0	34.0500	0	26.956	0	477.642	0	44.8	4	14.4	4	-1E+10	1	-1E+10	1	-1E+10	1	-1E+10	1	-1E+10	1	-1E+10	1
4901784	48	C	10/27/2016	10:46	-132.105	44.739	0	485.00	0	4.7250	0	34.0520	0	26.959	0	480.511	0	44.2	4	14.2	4	-1E+10	1	-1E+10	1	-1E+10	1	-1E+10	1	-1E+10	1	-1E+10	1
4901784	48	C	10/27/2016	10:46	-132.105	44.739	0	487.90	0	4.7190	0	34.0530	0	26.960	0	483.381	0	43.5	4	13.9	4	-1E+10	1	-1E+10	1	-1E+10	1	-1E+10	1	-1E+10	1	-1E+10	1
4901784	48	C	10/27/2016	10:46	-132.105	44.739	0	489.90	0	4.7130	0	34.0540	0	26.962	0	485.360	0	42.9	4	13.8	4	-1E+10	1	-1E+10	1	-1E+10	1	-1E+10	1	-1E+10	1	-1E+10	1
4901784	48	C	10/27/2016	10:46	-132.105	44.739	0	492.80	0	4.7010	0	34.0560	0	26.965	0	488.230	0	42.1	4	13.5	4	-1E+10	1	-1E+10	1	-1E+10	1	-1E+10	1	-1E+10	1	-1E+10	1
4901784	48	C	10/27/2016	10:46	-132.105	44.739	0	495.60	0	4.6850	0	34.0590	0	26.969	0	491.001	0	41.2	4	13.2	4	-1E+10	1	-1E+10	1	-1E+10	1	-1E+10	1	-1E+10	1	-1E+10	1
4901784	48	C	10/27/2016	10:46	-132.105	44.739	0	497.60	0	4.6910	0	34.0610	0	26.970	0	492.980	0	40.5	4	13.0	4	-1E+10	1	-1E+10	1	-1E+10	1	-1E+10	1	-1E+10	1	-1E+10	1
4901784	48	C	10/27/2016	10:46	-132.105	44.739	0	499.50	0	4.6810	0	34.0660	0	26.975	0	494.860	0	39.8	4	12.8	4	-1E+10	1	-1E+10	1	-1E+10	1	-1E+10	1	-1E+10	1	-1E+10	1
4901784	48	C	10/27/2016	10:46	-132.105	44.739	0	505.30	0	4.6670	0	34.0720	0	26.981	0	500.599	0	38.7	4	12.4	4	-1E+10	1	-1E+10	1	-1E+10	1	-1E+10	1	-1E+10	1	-1E+10	1
4901784	48	C	10/27/2016	10:46	-132.105	44.739	0	510.00	0	4.6490	0	34.0750	0	26.986	0	505.250	0	37.9	4	12.1	4	-1E+10	1	-1E+10	1	-1E+10	1	-1E+10	1	-1E+10	1	-1E+10	1
4901784	48	C	10/27/2016	10:46	-132.105	44.739	0	514.80	0	4.6240	0	34.0780	0	26.991	0	509.999	0	37.2	4	11.9	4	-1E+10	1	-1E+10	1	-1E+10	1	-1E+10	1	-1E+10	1	-1E+10	1
4901784	48	C	10/27/2016	10:46	-132.105	44.739	0	520.40	0	4.6090	0	34.0800	0	26.994	0	515.540	0	36.3	4	11.6	4	-1E+10	1	-1E+10	1	-1E+10	1	-1E+10	1	-1E+10	1	-1E+10	1
4901784	48	C	10/27/2016	10:46	-132.105	44.739	0	525.10	0	4.5660	0	34.0850	0	27.003	0	520.190	0	35.6	4	11.4	4	-1E+10	1	-1E+10	1	-1E+10	1	-1E+10	1	-1E+10	1	-1E+10	1
4901784	48	C	10/27/2016	10:46	-132.105	44.739	0	529.90	0	4.5560	0	34.0870	0	27.006	0	524.939	0	34.9	4	11.2	4	-1E+10	1	-1E+10	1	-1E+10	1	-1E+10	1	-1E+10	1	-1E+10	1
4901784	48	C	10/27/2016	10:46	-132.105	44.739	0	534.70	0	4.5550	0	34.0900	0	27.008	0	529.688	0	34.1	4	10.9	4	-1E+10	1	-1E+10	1	-1E+10	1	-1E+10	1	-1E+10	1	-1E+10	1
4901784	48	C	10/27/2016	10:46	-132.105	44.739	0	539.60	0	4.5370	0	34.0930	0	27.012	0	534.536	0	33.4	4	10.7	4	-1E+10	1	-1E+10	1	-1E+10	1	-1E+10	1	-1E+10	1	-1E+10	1
4901784	48	C	10/27/2016	10:46	-132.105	44.739	0	545.40	0	4.5310	0	34.0990	0	27.018	0	540.274	0	32.0	4	10.2	4	-1E+10	1	-1E+10	1	-1E+10	1	-1E+10	1	-1E+10	1	-1E+10	1
4901784	48	C	10/27/2016	10:46	-132.105	44.739	0	550.20	0	4.5180	0	34.1060	0	27.025	0	545.022	0	30.9	4	9.9	4	-1E+10	1	-1E+10	1	-1E+10	1	-1E+10	1	-1E+10	1	-1E+10	1
4901784	48	C	10/27/2016	10:46	-132.105	44.739	0	555.00	0	4.5150	0	34.1090	0	27.028	0	549.771	0	30.0	4	9.6	4	-1E+10	1	-1E+10	1	-1E+10	1	-1E+10	1	-1E+10	1	-1E+10	1
4901784	48	C	10/27/2016	10:46	-132.105	44.739	0	559.80	0	4.4950	0	34.1120	0	27.032	0	554.519	0	28.8	4	9.2	4	-1E+10	1	-1E+10	1	-1E+10	1	-1E+10	1	-1E+10	1	-1E+10	1
4901784	48	C	10/27/2016	10:46	-132.105	44.739	0	564.70	0	4.4780	0	34.1210	0	27.041	0	559.367	0	27.7	4	8.8	4	-1E+10	1	-1E+10	1	-1E+10	1	-1E+10	1	-1E+10	1	-1E+10	1
4901784	48	C	10/27/2016	10:46	-132.105	44.739	0	570.40	0	4.4520	0	34.1280	0	27.050	0	565.005	0	26.6	4	8.5	4	-1E+10	1	-1E+10	1	-1E+10	1	-1E+10	1	-1E+10	1	-1E+10	1
4901784	48	C	10/27/2016	10:46	-132.105	44.739	0	575.10	0	4.4280	0	34.1330	0	27.056	0	569.654	0	25.9	4	8.3	4	-1E+10	1	-1E+10	1	-1E+10	1	-1E+10	1	-1E+10	1	-1E+10	1
4901784	48	C	10/27/2016	10:46	-132.105	44.739	0	579.90	0	4.4190	0	34.1380	0	27.061	0	574.402	0	25.4	4	8.1	4	-1E+10	1	-1E+10	1	-1E+10	1	-1E+10	1	-1E+10	1	-1E+10	1
4901784	48	C	10/27/2016	10:46	-132.105	44.739	0	584.70	0	4.3930	0	34.1400	0	27.066	0	579.150	0	25.2	4	8.0	4	-1E+10	1	-1E+10	1	-1E+10	1	-1E+10	1	-1E+10	1	-1E+10	1
4901784	48	C	10/27/2016	10:46	-132.105	44.739	0	589.50	0	4.3550	0	34.1420	0	27.071	0	583.898	0	24.8	4	7.9	4	-1E+10	1	-1E+10	1	-1E+10	1	-1E+10	1	-1E+10	1	-1E+10	1
4901784	48	C	10/27/2016	10:46	-132.105	44.739	0	595.30	0	4.3410	0	34.1470	0	27.077	0	589.634	0	24.3	4	7.7	4	-1E+10	1	-1E+10	1	-1E+10	1	-1E+10	1	-1E+10	1	-1E+10	1
4901784	48	C	10/27/2016	10:46	-132.105	44.739	0	600.20	0	4.3260	0	34.1480	0	27.079	0	594.481	0	24.0	4	7.6	4	-1E+10	1	-1E+10	1	-1E+10	1	-1E+10	1	-1E+10	1	-1E+10	1
4901784	48	C	10/27/2016	10:46	-132.105	44.739	0	605.00	0	4.3160	0	34.1510	0	27.083	0	599.228	0	23.5	4	7.5	4	-1E+10	1	-1E+10	1	-1E+10	1	-1E+10	1	-1E+10	1	-1E+10	1
4901784	48	C	10/27/2016	10:46	-132.105	44.739	0	610.50	0	4.3080	0	34.1550	0	27.087	0	604.667	0	22.7	4	7.2	4	-1E+10	1	-1E+10	1	-1E+10	1	-1E+10	1	-1E+10	1	-1E+10	1
4901784	48	C	10/27/2016	10:46	-132.105	44.739	0	615.50	0	4.2920	0	34.1600	0	27.092	0	609.612	0	22.1	4	7.0	4	-1E+10	1	-1E+10	1	-1E+10	1	-1E+10	1	-1E+10	1	-1E+10	1
4901784	48	C	10/27/2016	10:46	-132.105	44.739	0	620.50	0	4.2760	0	34.1660	0	27.099	0	614.557	0	21.4	4	6.8	4	-1E+10	1	-1E+10	1	-1E+10	1	-1E+10	1	-1E+10	1	-1E+10	1
4901784	48	C	10/27/2016	10:46	-132.105	44.739	0	625.50	0	4.2570	0	34.1710	0	27.105	0	619.502	0	21.0	4	6.7	4	-1E+10	1	-1E+10	1	-1E+10	1	-1E+10	1	-1E+10	1	-1E+10	1
4901784	48	C	10/27/2016	10:46	-132.105	44.739	0	630.60	0	4.2400	0	34.1740	0	27.109	0	624.545	0	20.8	4	6.6	4	-1E+10	1	-1E+10	1	-1E+10	1	-1E+10	1	-1E+10	1	-1E+10	1
4901784	48	C	10/27/2016	10:46	-132.105	44.739	0	635.70	0	4.2290	0	34.1750	0	27.111	0	629.589	0	20.3	4	6.4	4	-1E+10	1	-1E+10	1	-1E+10	1	-1E+10	1	-1E+10	1	-1E+10	1
4901784	48	C	10/27/2016	10:46	-132.105	44.739	0	640.00	0	4.2260	0	34.1820	0	27.117	0	633.841	0	19.7	4	6.3	4	-1E+10	1	-1E+10	1	-1E+10	1	-1E+10	1	-1E+10	1	-1E+10	1
4901784	48	C	10/27/2016	10:46	-132.105	44.739	0	644.30	0	4.2100	0	34.1850	0	27.121	0	638.093	0	19.3	4	6.1	4	-1E+10	1	-1E+10	1	-1E+10	1	-1E+10	1	-1E+10	1	-1E+10	1
4901784	48	C	10/27/2016	10:46	-132.105	44.739	0	649.50	0	4.1940	0	34.1910	0	27.128	0	643.235	0	18.8	4	6.0	4	-1E+10	1	-1E+10	1	-1E+10	1	-1E+10	1	-1E+10	1	-1E+10	1
4901784	48	C	10/27/2016	10:46	-132.105	44.739	0	654.70	0	4.1910	0	34.1960	0	27.132	0	648.376	0	18.5	4	5.9	4	-1E+10	1	-1E+10	1	-1E+10	1	-1E+10	1	-1E+10	1	-1E+10	1
4901784	48	C	10/27/2016	10:46	-132.105	44.739	0	660.00	0	4.1690	0	34.1980	0	27.136	0	653.617	0	18.2	4	5.8	4	-1E+10	1	-1E+10	1	-1E+10	1	-1E+10	1	-1E+10	1	-1E+10	1
4901784	48	C	10/27/2016	10:46	-132.105	44.739	0	665.10	0	4.1550	0	34.2020	0	27.140	0	658.659	0	17.9	4	5.7	4	-1E+10	1	-1E+10	1	-1E+10	1	-1E+10	1	-1E+10	1	-1E+10	1
4901784	48	C	10/27/2016	10:46	-132.105	44.739	0	670.40	0	4.1520	0	34.2040	0	27.142	0	663.900	0	17.6	4	5.6	4	-1E+10	1	-1E+10	1	-1E+10	1	-1E+10	1	-1E+10	1	-1E+10	1
4901784	48	C	10/27/2016	10:46	-132.105	44.739	0	675.70	0	4.1440	0	34.2070	0	27.146	0	669.140	0	17.2	4	5.5	4	-1E+10	1	-1E+10	1	-1E+10	1	-1E+10	1	-1E+10	1	-1E+10	1
4901784	48	C	10/27/2016	10:46	-132.105	44.739	0	680.20	0	4.1400	0	34.2110	0	27.149	0	673.589	0	16.9	4	5.4	4	-1E+10	1	-1E+10	1	-1E+10	1	-1E+10	1	-1E+10	1	-1E+10	1
4901784	48	C	10/27/2016	10:46	-132.105	44.739	0	684.70	0	4.1360	0	34.2140	0	27.152	0	678.038	0	16.5	4	5.2	4	-1E+10	1	-1E+10	1	-1E+10	1	-1E+10	1	-1E+10	1	-1E+10	1
4901784	48	C	10/27/2016	10:46	-132.105	44.739	0	690.10	0	4.1320	0	34.2190	0	27.157	0	683.376	0	16.1	4	5.1	4	-1E+10	1	-1E+10	1	-1E+10	1	-1E+10	1	-1E+10	1	-1E+10	1
4901784	48	C	10/27/2016	10:46	-132.105	44.739	0	695.50	0	4.1150	0	34.2240	0	27.162	0	688.715	0	15.8	4	5.0	4	-1E+10	1	-1E+10	1	-1E+10	1	-1E+10	1	-1E+10	1	-1E+10	1
4901784	48	C	10/27/2016	10:46	-132.105	44.739	0	700.10	0	4.0950	0	34.2290	0	27.168	0	693.262	0	15.6	4	5.0	4	-1E+10	1	-1E+10	1	-1E+10	1	-1E+10	1	-1E+10	1	-1E+10	1
4901784	48	C	10/27/2016	10:46	-132.105	44.739	0	704.60	0	4.0830	0	34.2300	0	27.171	0	697.711	0	15.5	4	4.9	4	-1E+10	1	-1E+10	1	-1E+10	1	-1E+10	1	-1E+10	1	-1E+10	1
4901784	48	C	10/27/2016	10:46	-132.105	44.739	0	709.90	0	4.0700	0	34.2340	0	27.175	0	702.950	0	15.1	4	4.8	4	-1E+10	1	-1E+10	1	-1E+10	1	-1E+10	1	-1E+10	1	-1E+10	1
4901784	48	C	10/27/2016	10:46	-132.105	44.739	0	715.30	0	4.0580	0	34.2400	0	27.181	0	708.288	0	14.8	4	4.7	4	-1E+10	1	-1E+10	1	-1E+10	1	-1E+10	1	-1E+10	1	-1E+10	1
4901784	48	C	10/27/2016	10:46	-132.105	44.739	0	719.90	0	4.0580	0	34.2450	0	27.185	0	712.835	0	14.4	4	4.6	4	-1E+10	1	-1E+10	1	-1E+10	1	-1E+10	1	-1E+10	1	-1E+10	1
4901784	48	C	10/27/2016	10:46	-132.105	44.739	0	724.40	0	4.0500	0	34.2480	0	27.188	0	717.283	0	14.3	4	4.5	4	-1E+10	1	-1E+10	1	-1E+10	1	-1E+10	1	-1E+10	1	-1E+10	1
4901784	48	C	10/27/2016	10:46	-132.105	44.739	0	730.00	0	4.0310	0	34.2510	0	27.193	0	722.819	0	14.1	4	4.5	4	-1E+10	1	-1E+10	1	-1E+10	1	-1E+10	1	-1E+10	1	-1E+10	1
4901784	48	C	10/27/2016	10:46	-132.105	44.739	0	735.60	0	4.0190	0	34.2540	0	27.196	0	728.354	0	14.0	4	4.4	4	-1E+10	1	-1E+10	1	-1E+10	1	-1E+10	1	-1E+10	1	-1E+10	1
4901784	48	C	10/27/2016	10:46	-132.105	44.739	0	740.30	0	4.0030	0	34.2580	0	27.201	0	732.999	0	13.9	4	4.4	4	-1E+10	1	-1E+10	1	-1E+10	1	-1E+10	1	-1E+10	1	-1E+10	1
4901784	48	C	10/27/2016	10:46	-132.105	44.739	0	745.00	0	3.9860	0	34.2590	0	27.204	0	737.645	0	13.8	4	4.4	4	-1E+10	1	-1E+10	1	-1E+10	1	-1E+10	1	-1E+10	1	-1E+10	1
4901784	48	C	10/27/2016	10:46	-132.105	44.739	0	749.70	0	3.9680	0	34.2640	0	27.210	0	742.290	0	13.6	4	4.3	4	-1E+10	1	-1E+10	1	-1E+10	1	-1E+10	1	-1E+10	1	-1E+10	1
4901784	48	C	10/27/2016	10:46	-132.105	44.739	0	754.40	0	3.9640	0	34.2660	0	27.212	0	746.935	0	13.5	4	4.3	4	-1E+10	1	-1E+10	1	-1E+10	1	-1E+10	1	-1E+10	1	-1E+10	1
4901784	48	C	10/27/2016	10:46	-132.105	44.739	0	759.70	0	3.9590	0	34.2690	0	27.215	0	752.173	0	13.3	4	4.2	4	-1E+10	1	-1E+10	1	-1E+10	1	-1E+10	1	-1E+10	1	-1E+10	1
4901784	48	C	10/27/2016	10:46	-132.105	44.739	0	764.50	0	3.9520	0	34.2710	0	27.217	0	756.917	0	13.1	4	4.1	4	-1E+10	1	-1E+10	1	-1E+10	1	-1E+10	1	-1E+10	1	-1E+10	1
4901784	48	C	10/27/2016	10:46	-132.105	44.739	0	769.40	0	3.9340	0	34.2750	0	27.222	0	761.759	0	12.9	4	4.1	4	-1E+10	1	-1E+10	1	-1E+10	1	-1E+10	1	-1E+10	1	-1E+10	1
4901784	48	C	10/27/2016	10:46	-132.105	44.739	0	774.30	0	3.9200	0	34.2780	0	27.226	0	766.601	0	12.8	4	4.1	4	-1E+10	1	-1E+10	1	-1E+10	1	-1E+10	1	-1E+10	1	-1E+10	1
4901784	48	C	10/27/2016	10:46	-132.105	44.739	0	779.30	0	3.9030	0	34.2820	0	27.231	0	771.543	0	12.7	4	4.0	4	-1E+10	1	-1E+10	1	-1E+10	1	-1E+10	1	-1E+10	1	-1E+10	1
4901784	48	C	10/27/2016	10:46	-132.105	44.739	0	784.30	0	3.8850	0	34.2860	0	27.236	0	776.483	0	12.6	4	4.0	4	-1E+10	1	-1E+10	1	-1E+10	1	-1E+10	1	-1E+10	1	-1E+10	1
4901784	48	C	10/27/2016	10:46	-132.105	44.739	0	789.30	0	3.8690	0	34.2890	0	27.240	0	781.424	0	12.5	4	3.9	4	-1E+10	1	-1E+10	1	-1E+10	1	-1E+10	1	-1E+10	1	-1E+10	1
4901784	48	C	10/27/2016	10:46	-132.105	44.739	0	794.40	0	3.8510	0	34.2940	0	27.246	0	786.464	0	12.3	4	3.9	4	-1E+10	1	-1E+10	1	-1E+10	1	-1E+10	1	-1E+10	1	-1E+10	1
4901784	48	C	10/27/2016	10:46	-132.105	44.739	0	799.50	0	3.8430	0	34.2980	0	27.250	0	791.503	0	12.1	4	3.8	4	-1E+10	1	-1E+10	1	-1E+10	1	-1E+10	1	-1E+10	1	-1E+10	1
4901784	48	C	10/27/2016	10:46	-132.105	44.739	0	804.50	0	3.8390	0	34.3030	0	27.254	0	796.444	0	11.9	4	3.7	4	-1E+10	1	-1E+10	1	-1E+10	1	-1E+10	1	-1E+10	1	-1E+10	1
4901784	48	C	10/27/2016	10:46	-132.105	44.739	0	809.70	0	3.8210	0	34.3080	0	27.260	0	801.582	0	11.8	4	3.7	4	-1E+10	1	-1E+10	1	-1E+10	1	-1E+10	1	-1E+10	1	-1E+10	1
4901784	48	C	10/27/2016	10:46	-132.105	44.739	0	814.90	0	3.7970	0	34.3130	0	27.266	0	806.719	0	11.8	4	3.7	4	-1E+10	1	-1E+10	1	-1E+10	1	-1E+10	1	-1E+10	1	-1E+10	1
4901784	48	C	10/27/2016	10:46	-132.105	44.739	0	820.20	0	3.7690	0	34.3160	0	27.272	0	811.956	0	11.7	4	3.7	4	-1E+10	1	-1E+10	1	-1E+10	1	-1E+10	1	-1E+10	1	-1E+10	1
4901784	48	C	10/27/2016	10:46	-132.105	44.739	0	825.50	0	3.7470	0	34.3210	0	27.278	0	817.192	0	11.7	4	3.7	4	-1E+10	1	-1E+10	1	-1E+10	1	-1E+10	1	-1E+10	1	-1E+10	1
4901784	48	C	10/27/2016	10:46	-132.105	44.739	0	830.00	0	3.7280	0	34.3220	0	27.280	0	821.638	0	11.7	4	3.7	4	-1E+10	1	-1E+10	1	-1E+10	1	-1E+10	1	-1E+10	1	-1E+10	1
4901784	48	C	10/27/2016	10:46	-132.105	44.739	0	834.50	0	3.7240	0	34.3230	0	27.282	0	826.084	0	11.6	4	3.7	4	-1E+10	1	-1E+10	1	-1E+10	1	-1E+10	1	-1E+10	1	-1E+10	1
4901784	48	C	10/27/2016	10:46	-132.105	44.739	0	840.10	0	3.7110	0	34.3290	0	27.288	0	831.616	0	11.5	4	3.6	4	-1E+10	1	-1E+10	1	-1E+10	1	-1E+10	1	-1E+10	1	-1E+10	1
4901784	48	C	10/27/2016	10:46	-132.105	44.739	0	845.60	0	3.7050	0	34.3320	0	27.291	0	837.050	0	11.4	4	3.6	4	-1E+10	1	-1E+10	1	-1E+10	1	-1E+10	1	-1E+10	1	-1E+10	1
4901784	48	C	10/27/2016	10:46	-132.105	44.739	0	850.20	0	3.7000	0	34.3340	0	27.293	0	841.594	0	11.4	4	3.6	4	-1E+10	1	-1E+10	1	-1E+10	1	-1E+10	1	-1E+10	1	-1E+10	1
4901784	48	C	10/27/2016	10:46	-132.105	44.739	0	854.70	0	3.6900	0	34.3370	0	27.296	0	846.039	0	11.3	4	3.6	4	-1E+10	1	-1E+10	1	-1E+10	1	-1E+10	1	-1E+10	1	-1E+10	1
4901784	48	C	10/27/2016	10:46	-132.105	44.739	0	860.00	0	3.6770	0	34.3410	0	27.301	0	851.275	0	11.3	4	3.5	4	-1E+10	1	-1E+10	1	-1E+10	1	-1E+10	1	-1E+10	1	-1E+10	1
4901784	48	C	10/27/2016	10:46	-132.105	44.739	0	864.60	0	3.6700	0	34.3420	0	27.302	0	855.819	0	11.3	4	3.5	4	-1E+10	1	-1E+10	1	-1E+10	1	-1E+10	1	-1E+10	1	-1E+10	1
4901784	48	C	10/27/2016	10:46	-132.105	44.739	0	869.10	0	3.6610	0	34.3440	0	27.305	0	860.264	0	11.3	4	3.5	4	-1E+10	1	-1E+10	1	-1E+10	1	-1E+10	1	-1E+10	1	-1E+10	1
4901784	48	C	10/27/2016	10:46	-132.105	44.739	0	874.40	0	3.6530	0	34.3460	0	27.307	0	865.499	0	11.2	4	3.5	4	-1E+10	1	-1E+10	1	-1E+10	1	-1E+10	1	-1E+10	1	-1E+10	1
4901784	48	C	10/27/2016	10:46	-132.105	44.739	0	880.00	0	3.6380	0	34.3500	0	27.312	0	871.030	0	11.2	4	3.5	4	-1E+10	1	-1E+10	1	-1E+10	1	-1E+10	1	-1E+10	1	-1E+10	1
4901784	48	C	10/27/2016	10:46	-132.105	44.739	0	885.60	0	3.6230	0	34.3520	0	27.315	0	876.561	0	11.2	4	3.5	4	-1E+10	1	-1E+10	1	-1E+10	1	-1E+10	1	-1E+10	1	-1E+10	1
4901784	48	C	10/27/2016	10:46	-132.105	44.739	0	890.50	0	3.6140	0	34.3540	0	27.318	0	881.401	0	11.3	4	3.5	4	-1E+10	1	-1E+10	1	-1E+10	1	-1E+10	1	-1E+10	1	-1E+10	1
4901784	48	C	10/27/2016	10:46	-132.105	44.739	0	895.40	0	3.5950	0	34.3580	0	27.323	0	886.241	0	11.4	4	3.6	4	-1E+10	1	-1E+10	1	-1E+10	1	-1E+10	1	-1E+10	1	-1E+10	1
4901784	48	C	10/27/2016	10:46	-132.105	44.739	0	900.30	0	3.5860	0	34.3600	0	27.325	0	891.080	0	11.4	4	3.6	4	-1E+10	1	-1E+10	1	-1E+10	1	-1E+10	1	-1E+10	1	-1E+10	1
4901784	48	C	10/27/2016	10:46	-132.105	44.739	0	905.30	0	3.5740	0	34.3630	0	27.329	0	896.018	0	11.4	4	3.6	4	-1E+10	1	-1E+10	1	-1E+10	1	-1E+10	1	-1E+10	1	-1E+10	1
4901784	48	C	10/27/2016	10:46	-132.105	44.739	0	910.30	0	3.5620	0	34.3660	0	27.332	0	900.956	0	11.4	4	3.6	4	-1E+10	1	-1E+10	1	-1E+10	1	-1E+10	1	-1E+10	1	-1E+10	1
4901784	48	C	10/27/2016	10:46	-132.105	44.739	0	915.30	0	3.5480	0	34.3690	0	27.336	0	905.894	0	11.5	4	3.6	4	-1E+10	1	-1E+10	1	-1E+10	1	-1E+10	1	-1E+10	1	-1E+10	1
4901784	48	C	10/27/2016	10:46	-132.105	44.739	0	920.40	0	3.5400	0	34.3710	0	27.338	0	910.931	0	11.5	4	3.6	4	-1E+10	1	-1E+10	1	-1E+10	1	-1E+10	1	-1E+10	1	-1E+10	1
4901784	48	C	10/27/2016	10:46	-132.105	44.739	0	925.50	0	3.5340	0	34.3720	0	27.340	0	915.967	0	11.5	4	3.6	4	-1E+10	1	-1E+10	1	-1E+10	1	-1E+10	1	-1E+10	1	-1E+10	1
4901784	48	C	10/27/2016	10:46	-132.105	44.739	0	930.70	0	3.5240	0	34.3740	0	27.342	0	921.102	0	11.5	4	3.6	4	-1E+10	1	-1E+10	1	-1E+10	1	-1E+10	1	-1E+10	1	-1E+10	1
4901784	48	C	10/27/2016	10:46	-132.105	44.739	0	935.00	0	3.5160	0	34.3770	0	27.346	0	925.348	0	11.6	4	3.6	4	-1E+10	1	-1E+10	1	-1E+10	1	-1E+10	1	-1E+10	1	-1E+10	1
4901784	48	C	10/27/2016	10:46	-132.105	44.739	0	939.40	0	3.5080	0	34.3790	0	27.348	0	929.693	0	11.7	4	3.6	4	-1E+10	1	-1E+10	1	-1E+10	1	-1E+10	1	-1E+10	1	-1E+10	1
4901784	48	C	10/27/2016	10:46	-132.105	44.739	0	944.60	0	3.5010	0	34.3830	0	27.352	0	934.828	0	11.7	4	3.7	4	-1E+10	1	-1E+10	1	-1E+10	1	-1E+10	1	-1E+10	1	-1E+10	1
4901784	48	C	10/27/2016	10:46	-132.105	44.739	0	949.80	0	3.4890	0	34.3860	0	27.356	0	939.962	0	11.8	4	3.7	4	-1E+10	1	-1E+10	1	-1E+10	1	-1E+10	1	-1E+10	1	-1E+10	1
4901784	48	C	10/27/2016	10:46	-132.105	44.739	0	955.00	0	3.4800	0	34.3870	0	27.357	0	945.097	0	11.8	4	3.7	4	-1E+10	1	-1E+10	1	-1E+10	1	-1E+10	1	-1E+10	1	-1E+10	1
4901784	48	C	10/27/2016	10:46	-132.105	44.739	0	960.30	0	3.4660	0	34.3910	0	27.362	0	950.330	0	11.9	4	3.7	4	-1E+10	1	-1E+10	1	-1E+10	1	-1E+10	1	-1E+10	1	-1E+10	1
4901784	48	C	10/27/2016	10:46	-132.105	44.739	0	965.60	0	3.4530	0	34.3940	0	27.365	0	955.562	0	12.0	4	3.7	4	-1E+10	1	-1E+10	1	-1E+10	1	-1E+10	1	-1E+10	1	-1E+10	1
4901784	48	C	10/27/2016	10:46	-132.105	44.739	0	970.10	0	3.4480	0	34.3960	0	27.368	0	960.005	0	12.1	4	3.8	4	-1E+10	1	-1E+10	1	-1E+10	1	-1E+10	1	-1E+10	1	-1E+10	1
4901784	48	C	10/27/2016	10:46	-132.105	44.739	0	974.60	0	3.4400	0	34.3980	0	27.370	0	964.448	0	12.2	4	3.8	4	-1E+10	1	-1E+10	1	-1E+10	1	-1E+10	1	-1E+10	1	-1E+10	1
4901784	48	C	10/27/2016	10:46	-132.105	44.739	0	980.00	0	3.4300	0	34.4020	0	27.374	0	969.779	0	12.4	4	3.9	4	-1E+10	1	-1E+10	1	-1E+10	1	-1E+10	1	-1E+10	1	-1E+10	1
4901784	48	C	10/27/2016	10:46	-132.105	44.739	0	985.40	0	3.4210	0	34.4060	0	27.378	0	975.111	0	12.4	4	3.9	4	-1E+10	1	-1E+10	1	-1E+10	1	-1E+10	1	-1E+10	1	-1E+10	1
4901784	48	C	10/27/2016	10:46	-132.105	44.739	0	989.90	0	3.4140	0	34.4070	0	27.380	0	979.553	0	12.4	4	3.9	4	-1E+10	1	-1E+10	1	-1E+10	1	-1E+10	1	-1E+10	1	-1E+10	1
4901784	48	C	10/27/2016	10:46	-132.105	44.739	0	994.50	0	3.4050	0	34.4090	0	27.382	0	984.094	0	12.4	4	3.9	4	-1E+10	1	-1E+10	1	-1E+10	1	-1E+10	1	-1E+10	1	-1E+10	1
4901784	48	C	10/27/2016	10:46	-132.105	44.739	0	999.90	0	3.3950	0	34.4100	0	27.384	0	989.425	0	12.5	4	3.9	4	-1E+10	1	-1E+10	1	-1E+10	1	-1E+10	1	-1E+10	1	-1E+10	1
4901784	48	C	10/27/2016	10:46	-132.105	44.739	0	1005.40	0	3.3860	0	34.4130	0	27.387	0	994.854	0	12.6	4	3.9	4	-1E+10	1	-1E+10	1	-1E+10	1	-1E+10	1	-1E+10	1	-1E+10	1
4901784	48	C	10/27/2016	10:46	-132.105	44.739	0	1010.00	0	3.3830	0	34.4140	0	27.388	0	999.395	0	12.7	4	3.9	4	-1E+10	1	-1E+10	1	-1E+10	1	-1E+10	1	-1E+10	1	-1E+10	1
4901784	48	C	10/27/2016	10:46	-132.105	44.739	0	1014.50	0	3.3710	0	34.4170	0	27.392	0	1003.837	0	12.7	4	4.0	4	-1E+10	1	-1E+10	1	-1E+10	1	-1E+10	1	-1E+10	1	-1E+10	1
4901784	48	C	10/27/2016	10:46	-132.105	44.739	0	1020.10	0	3.3620	0	34.4190	0	27.394	0	1009.365	0	12.7	4	4.0	4	-1E+10	1	-1E+10	1	-1E+10	1	-1E+10	1	-1E+10	1	-1E+10	1
4901784	48	C	10/27/2016	10:46	-132.105	44.739	0	1024.70	0	3.3580	0	34.4190	0	27.395	0	1013.905	0	12.8	4	4.0	4	-1E+10	1	-1E+10	1	-1E+10	1	-1E+10	1	-1E+10	1	-1E+10	1
4901784	48	C	10/27/2016	10:46	-132.105	44.739	0	1029.40	0	3.3410	0	34.4210	0	27.398	0	1018.544	0	12.8	4	4.0	4	-1E+10	1	-1E+10	1	-1E+10	1	-1E+10	1	-1E+10	1	-1E+10	1
4901784	48	C	10/27/2016	10:46	-132.105	44.739	0	1035.00	0	3.3260	0	34.4230	0	27.401	0	1024.072	0	12.9	4	4.0	4	-1E+10	1	-1E+10	1	-1E+10	1	-1E+10	1	-1E+10	1	-1E+10	1
4901784	48	C	10/27/2016	10:46	-132.105	44.739	0	1039.70	0	3.3110	0	34.4260	0	27.405	0	1028.710	0	13.0	4	4.0	4	-1E+10	1	-1E+10	1	-1E+10	1	-1E+10	1	-1E+10	1	-1E+10	1
4901784	48	C	10/27/2016	10:46	-132.105	44.739	0	1045.10	0	3.2970	0	34.4280	0	27.408	0	1034.040	0	13.0	4	4.1	4	-1E+10	1	-1E+10	1	-1E+10	1	-1E+10	1	-1E+10	1	-1E+10	1
4901784	48	C	10/27/2016	10:46	-132.105	44.739	0	1050.20	0	3.2820	0	34.4290	0	27.410	0	1039.073	0	13.1	4	4.1	4	-1E+10	1	-1E+10	1	-1E+10	1	-1E+10	1	-1E+10	1	-1E+10	1
4901784	48	C	10/27/2016	10:46	-132.105	44.739	0	1055.00	0	3.2730	0	34.4310	0	27.413	0	1043.811	0	13.3	4	4.1	4	-1E+10	1	-1E+10	1	-1E+10	1	-1E+10	1	-1E+10	1	-1E+10	1
4901784	48	C	10/27/2016	10:46	-132.105	44.739	0	1059.90	0	3.2660	0	34.4340	0	27.416	0	1048.646	0	13.5	4	4.2	4	-1E+10	1	-1E+10	1	-1E+10	1	-1E+10	1	-1E+10	1	-1E+10	1
4901784	48	C	10/27/2016	10:46	-132.105	44.739	0	1064.80	0	3.2610	0	34.4360	0	27.418	0	1053.482	0	13.6	4	4.2	4	-1E+10	1	-1E+10	1	-1E+10	1	-1E+10	1	-1E+10	1	-1E+10	1
4901784	48	C	10/27/2016	10:46	-132.105	44.739	0	1069.70	0	3.2550	0	34.4360	0	27.418	0	1058.318	0	13.7	4	4.2	4	-1E+10	1	-1E+10	1	-1E+10	1	-1E+10	1	-1E+10	1	-1E+10	1
4901784	48	C	10/27/2016	10:46	-132.105	44.739	0	1074.70	0	3.2470	0	34.4380	0	27.421	0	1063.252	0	13.7	4	4.3	4	-1E+10	1	-1E+10	1	-1E+10	1	-1E+10	1	-1E+10	1	-1E+10	1
4901784	48	C	10/27/2016	10:46	-132.105	44.739	0	1079.70	0	3.2380	0	34.4390	0	27.422	0	1068.186	0	13.9	4	4.3	4	-1E+10	1	-1E+10	1	-1E+10	1	-1E+10	1	-1E+10	1	-1E+10	1
4901784	48	C	10/27/2016	10:46	-132.105	44.739	0	1084.70	0	3.2310	0	34.4410	0	27.425	0	1073.120	0	14.0	4	4.3	4	-1E+10	1	-1E+10	1	-1E+10	1	-1E+10	1	-1E+10	1	-1E+10	1
4901784	48	C	10/27/2016	10:46	-132.105	44.739	0	1089.70	0	3.2250	0	34.4420	0	27.426	0	1078.053	0	14.0	4	4.4	4	-1E+10	1	-1E+10	1	-1E+10	1	-1E+10	1	-1E+10	1	-1E+10	1
4901784	48	C	10/27/2016	10:46	-132.105	44.739	0	1094.80	0	3.2190	0	34.4430	0	27.427	0	1083.086	0	14.1	4	4.4	4	-1E+10	1	-1E+10	1	-1E+10	1	-1E+10	1	-1E+10	1	-1E+10	1
4901784	48	C	10/27/2016	10:46	-132.105	44.739	0	1099.80	0	3.2130	0	34.4440	0	27.429	0	1088.019	0	14.2	4	4.4	4	-1E+10	1	-1E+10	1	-1E+10	1	-1E+10	1	-1E+10	1	-1E+10	1
4901784	48	C	10/27/2016	10:46	-132.105	44.739	0	1104.90	0	3.1970	0	34.4450	0	27.431	0	1093.051	0	14.3	4	4.4	4	-1E+10	1	-1E+10	1	-1E+10	1	-1E+10	1	-1E+10	1	-1E+10	1
4901784	48	C	10/27/2016	10:46	-132.105	44.739	0	1110.10	0	3.1850	0	34.4470	0	27.434	0	1098.182	0	14.3	4	4.4	4	-1E+10	1	-1E+10	1	-1E+10	1	-1E+10	1	-1E+10	1	-1E+10	1
4901784	48	C	10/27/2016	10:46	-132.105	44.739	0	1115.60	0	3.1770	0	34.4480	0	27.435	0	1103.609	0	14.5	4	4.5	4	-1E+10	1	-1E+10	1	-1E+10	1	-1E+10	1	-1E+10	1	-1E+10	1
4901784	48	C	10/27/2016	10:46	-132.105	44.739	0	1120.30	0	3.1700	0	34.4490	0	27.437	0	1108.246	0	14.6	4	4.5	4	-1E+10	1	-1E+10	1	-1E+10	1	-1E+10	1	-1E+10	1	-1E+10	1
4901784	48	C	10/27/2016	10:46	-132.105	44.739	0	1125.00	0	3.1610	0	34.4510	0	27.439	0	1112.883	0	14.7	4	4.5	4	-1E+10	1	-1E+10	1	-1E+10	1	-1E+10	1	-1E+10	1	-1E+10	1
4901784	48	C	10/27/2016	10:46	-132.105	44.739	0	1129.80	0	3.1530	0	34.4520	0	27.441	0	1117.618	0	14.7	4	4.6	4	-1E+10	1	-1E+10	1	-1E+10	1	-1E+10	1	-1E+10	1	-1E+10	1
4901784	48	C	10/27/2016	10:46	-132.105	44.739	0	1134.60	0	3.1420	0	34.4530	0	27.443	0	1122.354	0	14.8	4	4.6	4	-1E+10	1	-1E+10	1	-1E+10	1	-1E+10	1	-1E+10	1	-1E+10	1
4901784	48	C	10/27/2016	10:46	-132.105	44.739	0	1140.30	0	3.1330	0	34.4540	0	27.444	0	1127.977	0	14.9	4	4.6	4	-1E+10	1	-1E+10	1	-1E+10	1	-1E+10	1	-1E+10	1	-1E+10	1
4901784	48	C	10/27/2016	10:46	-132.105	44.739	0	1145.10	0	3.1250	0	34.4550	0	27.446	0	1132.712	0	15.0	4	4.6	4	-1E+10	1	-1E+10	1	-1E+10	1	-1E+10	1	-1E+10	1	-1E+10	1
4901784	48	C	10/27/2016	10:46	-132.105	44.739	0	1150.00	0	3.1150	0	34.4570	0	27.449	0	1137.546	0	15.1	4	4.7	4	-1E+10	1	-1E+10	1	-1E+10	1	-1E+10	1	-1E+10	1	-1E+10	1
4901784	48	C	10/27/2016	10:46	-132.105	44.739	0	1154.90	0	3.1070	0	34.4580	0	27.450	0	1142.379	0	15.1	4	4.7	4	-1E+10	1	-1E+10	1	-1E+10	1	-1E+10	1	-1E+10	1	-1E+10	1
4901784	48	C	10/27/2016	10:46	-132.105	44.739	0	1159.80	0	3.1050	0	34.4580	0	27.450	0	1147.213	0	15.2	4	4.7	4	-1E+10	1	-1E+10	1	-1E+10	1	-1E+10	1	-1E+10	1	-1E+10	1
4901784	48	C	10/27/2016	10:46	-132.105	44.739	0	1164.70	0	3.0970	0	34.4590	0	27.452	0	1152.046	0	15.3	4	4.7	4	-1E+10	1	-1E+10	1	-1E+10	1	-1E+10	1	-1E+10	1	-1E+10	1
4901784	48	C	10/27/2016	10:46	-132.105	44.739	0	1169.50	0	3.0880	0	34.4610	0	27.454	0	1156.781	0	15.5	4	4.8	4	-1E+10	1	-1E+10	1	-1E+10	1	-1E+10	1	-1E+10	1	-1E+10	1
4901784	48	C	10/27/2016	10:46	-132.105	44.739	0	1175.30	0	3.0760	0	34.4630	0	27.457	0	1162.502	0	15.6	4	4.8	4	-1E+10	1	-1E+10	1	-1E+10	1	-1E+10	1	-1E+10	1	-1E+10	1
4901784	48	C	10/27/2016	10:46	-132.105	44.739	0	1180.20	0	3.0670	0	34.4640	0	27.459	0	1167.335	0	15.7	4	4.9	4	-1E+10	1	-1E+10	1	-1E+10	1	-1E+10	1	-1E+10	1	-1E+10	1
4901784	48	C	10/27/2016	10:46	-132.105	44.739	0	1185.20	0	3.0640	0	34.4640	0	27.459	0	1172.266	0	15.8	4	4.9	4	-1E+10	1	-1E+10	1	-1E+10	1	-1E+10	1	-1E+10	1	-1E+10	1
4901784	48	C	10/27/2016	10:46	-132.105	44.739	0	1190.20	0	3.0610	0	34.4650	0	27.460	0	1177.198	0	15.9	4	4.9	4	-1E+10	1	-1E+10	1	-1E+10	1	-1E+10	1	-1E+10	1	-1E+10	1
4901784	48	C	10/27/2016	10:46	-132.105	44.739	0	1195.20	0	3.0560	0	34.4660	0	27.461	0	1182.129	0	16.0	4	4.9	4	-1E+10	1	-1E+10	1	-1E+10	1	-1E+10	1	-1E+10	1	-1E+10	1
4901784	48	C	10/27/2016	10:46	-132.105	44.739	0	1200.20	0	3.0490	0	34.4670	0	27.463	0	1187.060	0	16.1	4	5.0	4	-1E+10	1	-1E+10	1	-1E+10	1	-1E+10	1	-1E+10	1	-1E+10	1
4901784	48	C	10/27/2016	10:46	-132.105	44.739	0	1205.20	0	3.0360	0	34.4680	0	27.465	0	1191.991	0	16.2	4	5.0	4	-1E+10	1	-1E+10	1	-1E+10	1	-1E+10	1	-1E+10	1	-1E+10	1
4901784	48	C	10/27/2016	10:46	-132.105	44.739	0	1210.20	0	3.0270	0	34.4700	0	27.467	0	1196.922	0	16.3	4	5.0	4	-1E+10	1	-1E+10	1	-1E+10	1	-1E+10	1	-1E+10	1	-1E+10	1
4901784	48	C	10/27/2016	10:46	-132.105	44.739	0	1215.30	0	3.0150	0	34.4710	0	27.469	0	1201.952	0	16.5	4	5.1	4	-1E+10	1	-1E+10	1	-1E+10	1	-1E+10	1	-1E+10	1	-1E+10	1
4901784	48	C	10/27/2016	10:46	-132.105	44.739	0	1220.50	0	2.9990	0	34.4730	0	27.472	0	1207.080	0	16.6	4	5.1	4	-1E+10	1	-1E+10	1	-1E+10	1	-1E+10	1	-1E+10	1	-1E+10	1
4901784	48	C	10/27/2016	10:46	-132.105	44.739	0	1224.50	0	2.9940	0	34.4740	0	27.474	0	1211.024	0	16.7	4	5.2	4	-1E+10	1	-1E+10	1	-1E+10	1	-1E+10	1	-1E+10	1	-1E+10	1
4901784	48	C	10/27/2016	10:46	-132.105	44.739	0	1229.60	0	2.9890	0	34.4750	0	27.475	0	1216.054	0	16.9	4	5.2	4	-1E+10	1	-1E+10	1	-1E+10	1	-1E+10	1	-1E+10	1	-1E+10	1
4901784	48	C	10/27/2016	10:46	-132.105	44.739	0	1234.70	0	2.9830	0	34.4770	0	27.477	0	1221.083	0	17.0	4	5.3	4	-1E+10	1	-1E+10	1	-1E+10	1	-1E+10	1	-1E+10	1	-1E+10	1
4901784	48	C	10/27/2016	10:46	-132.105	44.739	0	1239.90	0	2.9710	0	34.4770	0	27.478	0	1226.210	0	17.2	4	5.3	4	-1E+10	1	-1E+10	1	-1E+10	1	-1E+10	1	-1E+10	1	-1E+10	1
4901784	48	C	10/27/2016	10:46	-132.105	44.739	0	1245.00	0	2.9640	0	34.4790	0	27.480	0	1231.239	0	17.3	4	5.3	4	-1E+10	1	-1E+10	1	-1E+10	1	-1E+10	1	-1E+10	1	-1E+10	1
4901784	48	C	10/27/2016	10:46	-132.105	44.739	0	1249.70	0	2.9550	0	34.4800	0	27.482	0	1235.873	0	17.5	4	5.4	4	-1E+10	1	-1E+10	1	-1E+10	1	-1E+10	1	-1E+10	1	-1E+10	1
4901784	48	C	10/27/2016	10:46	-132.105	44.739	0	1255.40	0	2.9460	0	34.4820	0	27.484	0	1241.493	0	17.7	4	5.5	4	-1E+10	1	-1E+10	1	-1E+10	1	-1E+10	1	-1E+10	1	-1E+10	1
4901784	48	C	10/27/2016	10:46	-132.105	44.739	0	1260.20	0	2.9390	0	34.4830	0	27.486	0	1246.226	0	17.9	4	5.5	4	-1E+10	1	-1E+10	1	-1E+10	1	-1E+10	1	-1E+10	1	-1E+10	1
4901784	48	C	10/27/2016	10:46	-132.105	44.739	0	1264.80	0	2.9300	0	34.4850	0	27.488	0	1250.761	0	18.1	4	5.6	4	-1E+10	1	-1E+10	1	-1E+10	1	-1E+10	1	-1E+10	1	-1E+10	1
4901784	48	C	10/27/2016	10:46	-132.105	44.739	0	1269.80	0	2.9260	0	34.4860	0	27.489	0	1255.691	0	18.3	4	5.6	4	-1E+10	1	-1E+10	1	-1E+10	1	-1E+10	1	-1E+10	1	-1E+10	1
4901784	48	C	10/27/2016	10:46	-132.105	44.739	0	1274.70	0	2.9210	0	34.4870	0	27.491	0	1260.522	0	18.5	4	5.7	4	-1E+10	1	-1E+10	1	-1E+10	1	-1E+10	1	-1E+10	1	-1E+10	1
4901784	48	C	10/27/2016	10:46	-132.105	44.739	0	1279.70	0	2.9160	0	34.4880	0	27.492	0	1265.451	0	18.7	4	5.8	4	-1E+10	1	-1E+10	1	-1E+10	1	-1E+10	1	-1E+10	1	-1E+10	1
4901784	48	C	10/27/2016	10:46	-132.105	44.739	0	1284.70	0	2.9090	0	34.4900	0	27.494	0	1270.380	0	18.9	4	5.8	4	-1E+10	1	-1E+10	1	-1E+10	1	-1E+10	1	-1E+10	1	-1E+10	1
4901784	48	C	10/27/2016	10:46	-132.105	44.739	0	1289.80	0	2.9010	0	34.4910	0	27.496	0	1275.408	0	19.1	4	5.9	4	-1E+10	1	-1E+10	1	-1E+10	1	-1E+10	1	-1E+10	1	-1E+10	1
4901784	48	C	10/27/2016	10:46	-132.105	44.739	0	1294.90	0	2.8970	0	34.4920	0	27.497	0	1280.436	0	19.3	4	5.9	4	-1E+10	1	-1E+10	1	-1E+10	1	-1E+10	1	-1E+10	1	-1E+10	1
4901784	48	C	10/27/2016	10:46	-132.105	44.739	0	1300.00	0	2.8900	0	34.4940	0	27.499	0	1285.463	0	19.6	4	6.0	4	-1E+10	1	-1E+10	1	-1E+10	1	-1E+10	1	-1E+10	1	-1E+10	1
4901784	48	C	10/27/2016	10:46	-132.105	44.739	0	1305.10	0	2.8830	0	34.4950	0	27.501	0	1290.490	0	19.8	4	6.1	4	-1E+10	1	-1E+10	1	-1E+10	1	-1E+10	1	-1E+10	1	-1E+10	1
4901784	48	C	10/27/2016	10:46	-132.105	44.739	0	1310.30	0	2.8790	0	34.4960	0	27.502	0	1295.616	0	20.0	4	6.1	4	-1E+10	1	-1E+10	1	-1E+10	1	-1E+10	1	-1E+10	1	-1E+10	1
4901784	48	C	10/27/2016	10:46	-132.105	44.739	0	1315.50	0	2.8730	0	34.4970	0	27.503	0	1300.742	0	20.2	4	6.2	4	-1E+10	1	-1E+10	1	-1E+10	1	-1E+10	1	-1E+10	1	-1E+10	1
4901784	48	C	10/27/2016	10:46	-132.105	44.739	0	1319.90	0	2.8660	0	34.4990	0	27.506	0	1305.079	0	20.5	4	6.3	4	-1E+10	1	-1E+10	1	-1E+10	1	-1E+10	1	-1E+10	1	-1E+10	1
4901784	48	C	10/27/2016	10:46	-132.105	44.739	0	1324.30	0	2.8570	0	34.5000	0	27.507	0	1309.416	0	20.7	4	6.4	4	-1E+10	1	-1E+10	1	-1E+10	1	-1E+10	1	-1E+10	1	-1E+10	1
4901784	48	C	10/27/2016	10:46	-132.105	44.739	0	1329.60	0	2.8470	0	34.5020	0	27.510	0	1314.640	0	20.9	4	6.4	4	-1E+10	1	-1E+10	1	-1E+10	1	-1E+10	1	-1E+10	1	-1E+10	1
4901784	48	C	10/27/2016	10:46	-132.105	44.739	0	1335.00	0	2.8350	0	34.5040	0	27.512	0	1319.962	0	21.1	4	6.5	4	-1E+10	1	-1E+10	1	-1E+10	1	-1E+10	1	-1E+10	1	-1E+10	1
4901784	48	C	10/27/2016	10:46	-132.105	44.739	0	1340.30	0	2.8240	0	34.5040	0	27.513	0	1325.186	0	21.3	4	6.5	4	-1E+10	1	-1E+10	1	-1E+10	1	-1E+10	1	-1E+10	1	-1E+10	1
4901784	48	C	10/27/2016	10:46	-132.105	44.739	0	1345.70	0	2.8110	0	34.5060	0	27.516	0	1330.508	0	21.5	4	6.6	4	-1E+10	1	-1E+10	1	-1E+10	1	-1E+10	1	-1E+10	1	-1E+10	1
4901784	48	C	10/27/2016	10:46	-132.105	44.739	0	1350.10	0	2.8100	0	34.5070	0	27.517	0	1334.844	0	21.7	4	6.7	4	-1E+10	1	-1E+10	1	-1E+10	1	-1E+10	1	-1E+10	1	-1E+10	1
4901784	48	C	10/27/2016	10:46	-132.105	44.739	0	1354.60	0	2.8010	0	34.5080	0	27.519	0	1339.279	0	21.9	4	6.7	4	-1E+10	1	-1E+10	1	-1E+10	1	-1E+10	1	-1E+10	1	-1E+10	1
4901784	48	C	10/27/2016	10:46	-132.105	44.739	0	1360.00	0	2.8000	0	34.5080	0	27.519	0	1344.601	0	22.0	4	6.8	4	-1E+10	1	-1E+10	1	-1E+10	1	-1E+10	1	-1E+10	1	-1E+10	1
4901784	48	C	10/27/2016	10:46	-132.105	44.739	0	1365.40	0	2.7890	0	34.5100	0	27.521	0	1349.922	0	22.3	4	6.9	4	-1E+10	1	-1E+10	1	-1E+10	1	-1E+10	1	-1E+10	1	-1E+10	1
4901784	48	C	10/27/2016	10:46	-132.105	44.739	0	1369.90	0	2.7790	0	34.5120	0	27.524	0	1354.357	0	22.6	4	7.0	4	-1E+10	1	-1E+10	1	-1E+10	1	-1E+10	1	-1E+10	1	-1E+10	1
4901784	48	C	10/27/2016	10:46	-132.105	44.739	0	1374.40	0	2.7680	0	34.5130	0	27.526	0	1358.791	0	22.8	4	7.0	4	-1E+10	1	-1E+10	1	-1E+10	1	-1E+10	1	-1E+10	1	-1E+10	1
4901784	48	C	10/27/2016	10:46	-132.105	44.739	0	1379.90	0	2.7600	0	34.5140	0	27.527	0	1364.211	0	23.1	4	7.1	4	-1E+10	1	-1E+10	1	-1E+10	1	-1E+10	1	-1E+10	1	-1E+10	1
4901784	48	C	10/27/2016	10:46	-132.105	44.739	0	1385.00	0	2.7590	0	34.5150	0	27.528	0	1369.237	0	23.3	4	7.2	4	-1E+10	1	-1E+10	1	-1E+10	1	-1E+10	1	-1E+10	1	-1E+10	1
4901784	48	C	10/27/2016	10:46	-132.105	44.739	0	1390.00	0	2.7470	0	34.5170	0	27.531	0	1374.163	0	23.5	4	7.2	4	-1E+10	1	-1E+10	1	-1E+10	1	-1E+10	1	-1E+10	1	-1E+10	1
4901784	48	C	10/27/2016	10:46	-132.105	44.739	0	1395.60	0	2.7330	0	34.5170	0	27.532	0	1379.681	0	23.7	4	7.3	4	-1E+10	1	-1E+10	1	-1E+10	1	-1E+10	1	-1E+10	1	-1E+10	1
4901784	48	C	10/27/2016	10:46	-132.105	44.739	0	1400.50	0	2.7220	0	34.5190	0	27.535	0	1384.509	0	24.0	4	7.4	4	-1E+10	1	-1E+10	1	-1E+10	1	-1E+10	1	-1E+10	1	-1E+10	1
4901784	48	C	10/27/2016	10:46	-132.105	44.739	0	1405.30	0	2.7110	0	34.5190	0	27.536	0	1389.239	0	24.1	4	7.4	4	-1E+10	1	-1E+10	1	-1E+10	1	-1E+10	1	-1E+10	1	-1E+10	1
4901784	48	C	10/27/2016	10:46	-132.105	44.739	0	1410.10	0	2.7000	0	34.5200	0	27.537	0	1393.968	0	24.3	4	7.5	4	-1E+10	1	-1E+10	1	-1E+10	1	-1E+10	1	-1E+10	1	-1E+10	1
4901784	48	C	10/27/2016	10:46	-132.105	44.739	0	1415.00	0	2.6880	0	34.5220	0	27.540	0	1398.796	0	24.5	4	7.5	4	-1E+10	1	-1E+10	1	-1E+10	1	-1E+10	1	-1E+10	1	-1E+10	1
4901784	48	C	10/27/2016	10:46	-132.105	44.739	0	1419.90	0	2.6810	0	34.5220	0	27.541	0	1403.623	0	24.7	4	7.6	4	-1E+10	1	-1E+10	1	-1E+10	1	-1E+10	1	-1E+10	1	-1E+10	1
4901784	48	C	10/27/2016	10:46	-132.105	44.739	0	1425.00	0	2.6750	0	34.5230	0	27.542	0	1408.648	0	24.9	4	7.6	4	-1E+10	1	-1E+10	1	-1E+10	1	-1E+10	1	-1E+10	1	-1E+10	1
4901784	48	C	10/27/2016	10:46	-132.105	44.739	0	1430.00	0	2.6630	0	34.5240	0	27.544	0	1413.574	0	25.1	4	7.7	4	-1E+10	1	-1E+10	1	-1E+10	1	-1E+10	1	-1E+10	1	-1E+10	1
4901784	48	C	10/27/2016	10:46	-132.105	44.739	0	1435.00	0	2.6530	0	34.5250	0	27.545	0	1418.500	0	25.2	4	7.7	4	-1E+10	1	-1E+10	1	-1E+10	1	-1E+10	1	-1E+10	1	-1E+10	1
4901784	48	C	10/27/2016	10:46	-132.105	44.739	0	1440.10	0	2.6430	0	34.5250	0	27.546	0	1423.524	0	25.4	4	7.8	4	-1E+10	1	-1E+10	1	-1E+10	1	-1E+10	1	-1E+10	1	-1E+10	1
4901784	48	C	10/27/2016	10:46	-132.105	44.739	0	1445.20	0	2.6320	0	34.5260	0	27.548	0	1428.548	0	25.6	4	7.8	4	-1E+10	1	-1E+10	1	-1E+10	1	-1E+10	1	-1E+10	1	-1E+10	1
4901784	48	C	10/27/2016	10:46	-132.105	44.739	0	1450.30	0	2.6240	0	34.5270	0	27.550	0	1433.572	0	25.7	4	7.9	4	-1E+10	1	-1E+10	1	-1E+10	1	-1E+10	1	-1E+10	1	-1E+10	1
4901784	48	C	10/27/2016	10:46	-132.105	44.739	0	1455.50	0	2.6080	0	34.5270	0	27.551	0	1438.694	0	25.7	4	7.9	4	-1E+10	1	-1E+10	1	-1E+10	1	-1E+10	1	-1E+10	1	-1E+10	1
4901784	48	C	10/27/2016	10:46	-132.105	44.739	0	1460.70	0	2.5950	0	34.5280	0	27.553	0	1443.816	0	25.9	4	7.9	4	-1E+10	1	-1E+10	1	-1E+10	1	-1E+10	1	-1E+10	1	-1E+10	1
4901784	48	C	10/27/2016	10:46	-132.105	44.739	0	1465.00	0	2.5910	0	34.5280	0	27.553	0	1448.052	0	25.9	4	7.9	4	-1E+10	1	-1E+10	1	-1E+10	1	-1E+10	1	-1E+10	1	-1E+10	1
4901784	48	C	10/27/2016	10:46	-132.105	44.739	0	1469.50	0	2.5830	0	34.5280	0	27.554	0	1452.484	0	26.0	4	8.0	4	-1E+10	1	-1E+10	1	-1E+10	1	-1E+10	1	-1E+10	1	-1E+10	1
4901784	48	C	10/27/2016	10:46	-132.105	44.739	0	1474.80	0	2.5720	0	34.5290	0	27.556	0	1457.705	0	26.2	4	8.0	4	-1E+10	1	-1E+10	1	-1E+10	1	-1E+10	1	-1E+10	1	-1E+10	1
4901784	48	C	10/27/2016	10:46	-132.105	44.739	0	1480.30	0	2.5640	0	34.5300	0	27.557	0	1463.122	0	26.3	4	8.0	4	-1E+10	1	-1E+10	1	-1E+10	1	-1E+10	1	-1E+10	1	-1E+10	1
4901784	48	C	10/27/2016	10:46	-132.105	44.739	0	1484.80	0	2.5610	0	34.5300	0	27.558	0	1467.554	0	26.5	4	8.1	4	-1E+10	1	-1E+10	1	-1E+10	1	-1E+10	1	-1E+10	1	-1E+10	1
4901784	48	C	10/27/2016	10:46	-132.105	44.739	0	1489.30	0	2.5510	0	34.5310	0	27.559	0	1471.986	0	26.7	4	8.1	4	-1E+10	1	-1E+10	1	-1E+10	1	-1E+10	1	-1E+10	1	-1E+10	1
4901784	48	C	10/27/2016	10:46	-132.105	44.739	0	1494.80	0	2.5430	0	34.5310	0	27.560	0	1477.403	0	26.9	4	8.2	4	-1E+10	1	-1E+10	1	-1E+10	1	-1E+10	1	-1E+10	1	-1E+10	1
4901784	48	C	10/27/2016	10:46	-132.105	44.739	0	1500.30	0	2.5320	0	34.5330	0	27.562	0	1482.820	0	27.1	4	8.3	4	-1E+10	1	-1E+10	1	-1E+10	1	-1E+10	1	-1E+10	1	-1E+10	1
4901784	48	C	10/27/2016	10:46	-132.105	44.739	0	1504.90	0	2.5270	0	34.5330	0	27.563	0	1487.350	0	27.4	4	8.4	4	-1E+10	1	-1E+10	1	-1E+10	1	-1E+10	1	-1E+10	1	-1E+10	1
4901784	48	C	10/27/2016	10:46	-132.105	44.739	0	1509.50	0	2.5150	0	34.5340	0	27.565	0	1491.880	0	27.6	4	8.4	4	-1E+10	1	-1E+10	1	-1E+10	1	-1E+10	1	-1E+10	1	-1E+10	1
4901784	48	C	10/27/2016	10:46	-132.105	44.739	0	1515.10	0	2.5080	0	34.5350	0	27.566	0	1497.395	0	27.9	4	8.5	4	-1E+10	1	-1E+10	1	-1E+10	1	-1E+10	1	-1E+10	1	-1E+10	1
4901784	48	C	10/27/2016	10:46	-132.105	44.739	0	1520.20	0	2.4980	0	34.5360	0	27.568	0	1502.417	0	28.1	4	8.6	4	-1E+10	1	-1E+10	1	-1E+10	1	-1E+10	1	-1E+10	1	-1E+10	1
4901784	48	C	10/27/2016	10:46	-132.105	44.739	0	1524.50	0	2.4930	0	34.5370	0	27.569	0	1506.652	0	28.3	4	8.6	4	-1E+10	1	-1E+10	1	-1E+10	1	-1E+10	1	-1E+10	1	-1E+10	1
4901784	48	C	10/27/2016	10:46	-132.105	44.739	0	1529.30	0	2.4850	0	34.5380	0	27.571	0	1511.378	0	28.7	4	8.8	4	-1E+10	1	-1E+10	1	-1E+10	1	-1E+10	1	-1E+10	1	-1E+10	1
4901784	48	C	10/27/2016	10:46	-132.105	44.739	0	1534.90	0	2.4690	0	34.5390	0	27.573	0	1516.893	0	29.1	4	8.9	4	-1E+10	1	-1E+10	1	-1E+10	1	-1E+10	1	-1E+10	1	-1E+10	1
4901784	48	C	10/27/2016	10:46	-132.105	44.739	0	1540.60	0	2.4580	0	34.5410	0	27.575	0	1522.505	0	29.4	4	9.0	4	-1E+10	1	-1E+10	1	-1E+10	1	-1E+10	1	-1E+10	1	-1E+10	1
4901784	48	C	10/27/2016	10:46	-132.105	44.739	0	1545.50	0	2.4510	0	34.5410	0	27.576	0	1527.330	0	29.7	4	9.0	4	-1E+10	1	-1E+10	1	-1E+10	1	-1E+10	1	-1E+10	1	-1E+10	1
4901784	48	C	10/27/2016	10:46	-132.105	44.739	0	1550.40	0	2.4400	0	34.5420	0	27.578	0	1532.155	0	30.0	4	9.2	4	-1E+10	1	-1E+10	1	-1E+10	1	-1E+10	1	-1E+10	1	-1E+10	1
4901784	48	C	10/27/2016	10:46	-132.105	44.739	0	1555.30	0	2.4290	0	34.5440	0	27.580	0	1536.979	0	30.4	4	9.3	4	-1E+10	1	-1E+10	1	-1E+10	1	-1E+10	1	-1E+10	1	-1E+10	1
4901784	48	C	10/27/2016	10:46	-132.105	44.739	0	1560.30	0	2.4180	0	34.5450	0	27.582	0	1541.902	0	30.8	4	9.4	4	-1E+10	1	-1E+10	1	-1E+10	1	-1E+10	1	-1E+10	1	-1E+10	1
4901784	48	C	10/27/2016	10:46	-132.105	44.739	0	1565.20	0	2.4080	0	34.5460	0	27.584	0	1546.726	0	31.1	4	9.5	4	-1E+10	1	-1E+10	1	-1E+10	1	-1E+10	1	-1E+10	1	-1E+10	1
4901784	48	C	10/27/2016	10:46	-132.105	44.739	0	1570.20	0	2.3980	0	34.5470	0	27.585	0	1551.649	0	31.4	4	9.6	4	-1E+10	1	-1E+10	1	-1E+10	1	-1E+10	1	-1E+10	1	-1E+10	1
4901784	48	C	10/27/2016	10:46	-132.105	44.739	0	1575.20	0	2.3920	0	34.5480	0	27.587	0	1556.571	0	31.7	4	9.6	4	-1E+10	1	-1E+10	1	-1E+10	1	-1E+10	1	-1E+10	1	-1E+10	1
4901784	48	C	10/27/2016	10:46	-132.105	44.739	0	1580.20	0	2.3820	0	34.5490	0	27.588	0	1561.494	0	31.9	4	9.7	4	-1E+10	1	-1E+10	1	-1E+10	1	-1E+10	1	-1E+10	1	-1E+10	1
4901784	48	C	10/27/2016	10:46	-132.105	44.739	0	1585.20	0	2.3770	0	34.5490	0	27.589	0	1566.416	0	32.2	4	9.8	4	-1E+10	1	-1E+10	1	-1E+10	1	-1E+10	1	-1E+10	1	-1E+10	1
4901784	48	C	10/27/2016	10:46	-132.105	44.739	0	1590.30	0	2.3700	0	34.5500	0	27.590	0	1571.437	0	32.5	4	9.9	4	-1E+10	1	-1E+10	1	-1E+10	1	-1E+10	1	-1E+10	1	-1E+10	1
4901784	48	C	10/27/2016	10:46	-132.105	44.739	0	1595.30	0	2.3620	0	34.5520	0	27.592	0	1576.359	0	32.7	4	10.0	4	-1E+10	1	-1E+10	1	-1E+10	1	-1E+10	1	-1E+10	1	-1E+10	1
4901784	48	C	10/27/2016	10:46	-132.105	44.739	0	1600.40	0	2.3560	0	34.5520	0	27.593	0	1581.379	0	33.0	4	10.0	4	-1E+10	1	-1E+10	1	-1E+10	1	-1E+10	1	-1E+10	1	-1E+10	1
4901784	48	C	10/27/2016	10:46	-132.105	44.739	0	1605.50	0	2.3520	0	34.5530	0	27.594	0	1586.400	0	33.3	4	10.1	4	-1E+10	1	-1E+10	1	-1E+10	1	-1E+10	1	-1E+10	1	-1E+10	1
4901784	48	C	10/27/2016	10:46	-132.105	44.739	0	1610.60	0	2.3450	0	34.5540	0	27.595	0	1591.420	0	33.6	4	10.2	4	-1E+10	1	-1E+10	1	-1E+10	1	-1E+10	1	-1E+10	1	-1E+10	1
4901784	48	C	10/27/2016	10:46	-132.105	44.739	0	1614.90	0	2.3410	0	34.5550	0	27.597	0	1595.652	0	33.9	4	10.3	4	-1E+10	1	-1E+10	1	-1E+10	1	-1E+10	1	-1E+10	1	-1E+10	1
4901784	48	C	10/27/2016	10:46	-132.105	44.739	0	1619.20	0	2.3350	0	34.5560	0	27.598	0	1599.885	0	34.2	4	10.4	4	-1E+10	1	-1E+10	1	-1E+10	1	-1E+10	1	-1E+10	1	-1E+10	1
4901784	48	C	10/27/2016	10:46	-132.105	44.739	0	1624.30	0	2.3240	0	34.5570	0	27.600	0	1604.905	0	34.5	4	10.5	4	-1E+10	1	-1E+10	1	-1E+10	1	-1E+10	1	-1E+10	1	-1E+10	1
4901784	48	C	10/27/2016	10:46	-132.105	44.739	0	1629.40	0	2.3200	0	34.5580	0	27.601	0	1609.925	0	34.8	4	10.6	4	-1E+10	1	-1E+10	1	-1E+10	1	-1E+10	1	-1E+10	1	-1E+10	1
4901784	48	C	10/27/2016	10:46	-132.105	44.739	0	1634.60	0	2.3140	0	34.5590	0	27.602	0	1615.043	0	35.1	4	10.7	4	-1E+10	1	-1E+10	1	-1E+10	1	-1E+10	1	-1E+10	1	-1E+10	1
4901784	48	C	10/27/2016	10:46	-132.105	44.739	0	1639.80	0	2.3080	0	34.5590	0	27.603	0	1620.161	0	35.3	4	10.7	4	-1E+10	1	-1E+10	1	-1E+10	1	-1E+10	1	-1E+10	1	-1E+10	1
4901784	48	C	10/27/2016	10:46	-132.105	44.739	0	1644.90	0	2.3010	0	34.5600	0	27.604	0	1625.180	0	35.6	4	10.8	4	-1E+10	1	-1E+10	1	-1E+10	1	-1E+10	1	-1E+10	1	-1E+10	1
4901784	48	C	10/27/2016	10:46	-132.105	44.739	0	1650.10	0	2.2900	0	34.5610	0	27.606	0	1630.297	0	35.9	4	10.9	4	-1E+10	1	-1E+10	1	-1E+10	1	-1E+10	1	-1E+10	1	-1E+10	1
4901784	48	C	10/27/2016	10:46	-132.105	44.739	0	1655.30	0	2.2800	0	34.5620	0	27.607	0	1635.415	0	36.2	4	11.0	4	-1E+10	1	-1E+10	1	-1E+10	1	-1E+10	1	-1E+10	1	-1E+10	1
4901784	48	C	10/27/2016	10:46	-132.105	44.739	0	1660.50	0	2.2720	0	34.5630	0	27.609	0	1640.532	0	36.6	4	11.1	4	-1E+10	1	-1E+10	1	-1E+10	1	-1E+10	1	-1E+10	1	-1E+10	1
4901784	48	C	10/27/2016	10:46	-132.105	44.739	0	1664.90	0	2.2680	0	34.5640	0	27.610	0	1644.863	0	36.9	4	11.2	4	-1E+10	1	-1E+10	1	-1E+10	1	-1E+10	1	-1E+10	1	-1E+10	1
4901784	48	C	10/27/2016	10:46	-132.105	44.739	0	1669.20	0	2.2620	0	34.5640	0	27.610	0	1649.094	0	37.1	4	11.3	4	-1E+10	1	-1E+10	1	-1E+10	1	-1E+10	1	-1E+10	1	-1E+10	1
4901784	48	C	10/27/2016	10:46	-132.105	44.739	0	1674.50	0	2.2580	0	34.5650	0	27.612	0	1654.310	0	37.6	4	11.4	4	-1E+10	1	-1E+10	1	-1E+10	1	-1E+10	1	-1E+10	1	-1E+10	1
4901784	48	C	10/27/2016	10:46	-132.105	44.739	0	1679.80	0	2.2470	0	34.5660	0	27.613	0	1659.525	0	38.0	4	11.5	4	-1E+10	1	-1E+10	1	-1E+10	1	-1E+10	1	-1E+10	1	-1E+10	1
4901784	48	C	10/27/2016	10:46	-132.105	44.739	0	1685.10	0	2.2400	0	34.5680	0	27.616	0	1664.740	0	38.4	4	11.7	4	-1E+10	1	-1E+10	1	-1E+10	1	-1E+10	1	-1E+10	1	-1E+10	1
4901784	48	C	10/27/2016	10:46	-132.105	44.739	0	1690.40	0	2.2350	0	34.5690	0	27.617	0	1669.955	0	38.9	4	11.8	4	-1E+10	1	-1E+10	1	-1E+10	1	-1E+10	1	-1E+10	1	-1E+10	1
4901784	48	C	10/27/2016	10:46	-132.105	44.739	0	1695.70	0	2.2280	0	34.5710	0	27.619	0	1675.170	0	39.2	4	11.9	4	-1E+10	1	-1E+10	1	-1E+10	1	-1E+10	1	-1E+10	1	-1E+10	1
4901784	48	C	10/27/2016	10:46	-132.105	44.739	0	1700.10	0	2.2240	0	34.5710	0	27.619	0	1679.499	0	39.5	4	12.0	4	-1E+10	1	-1E+10	1	-1E+10	1	-1E+10	1	-1E+10	1	-1E+10	1
4901784	48	C	10/27/2016	10:46	-132.105	44.739	0	1704.50	0	2.2200	0	34.5720	0	27.620	0	1683.829	0	39.8	4	12.1	4	-1E+10	1	-1E+10	1	-1E+10	1	-1E+10	1	-1E+10	1	-1E+10	1
4901784	48	C	10/27/2016	10:46	-132.105	44.739	0	1709.80	0	2.2140	0	34.5730	0	27.622	0	1689.043	0	40.2	4	12.2	4	-1E+10	1	-1E+10	1	-1E+10	1	-1E+10	1	-1E+10	1	-1E+10	1
4901784	48	C	10/27/2016	10:46	-132.105	44.739	0	1715.10	0	2.2080	0	34.5740	0	27.623	0	1694.258	0	40.5	4	12.3	4	-1E+10	1	-1E+10	1	-1E+10	1	-1E+10	1	-1E+10	1	-1E+10	1
4901784	48	C	10/27/2016	10:46	-132.105	44.739	0	1720.40	0	2.2020	0	34.5740	0	27.624	0	1699.472	0	40.9	4	12.4	4	-1E+10	1	-1E+10	1	-1E+10	1	-1E+10	1	-1E+10	1	-1E+10	1
4901784	48	C	10/27/2016	10:46	-132.105	44.739	0	1724.80	0	2.1960	0	34.5750	0	27.625	0	1703.801	0	41.2	4	12.5	4	-1E+10	1	-1E+10	1	-1E+10	1	-1E+10	1	-1E+10	1	-1E+10	1
4901784	48	C	10/27/2016	10:46	-132.105	44.739	0	1729.30	0	2.1900	0	34.5760	0	27.626	0	1708.228	0	41.6	4	12.6	4	-1E+10	1	-1E+10	1	-1E+10	1	-1E+10	1	-1E+10	1	-1E+10	1
4901784	48	C	10/27/2016	10:46	-132.105	44.739	0	1734.60	0	2.1830	0	34.5770	0	27.628	0	1713.442	0	42.0	4	12.7	4	-1E+10	1	-1E+10	1	-1E+10	1	-1E+10	1	-1E+10	1	-1E+10	1
4901784	48	C	10/27/2016	10:46	-132.105	44.739	0	1740.00	0	2.1730	0	34.5780	0	27.629	0	1718.754	0	42.4	4	12.8	4	-1E+10	1	-1E+10	1	-1E+10	1	-1E+10	1	-1E+10	1	-1E+10	1
4901784	48	C	10/27/2016	10:46	-132.105	44.739	0	1745.40	0	2.1620	0	34.5800	0	27.632	0	1724.067	0	42.9	4	13.0	4	-1E+10	1	-1E+10	1	-1E+10	1	-1E+10	1	-1E+10	1	-1E+10	1
4901784	48	C	10/27/2016	10:46	-132.105	44.739	0	1749.90	0	2.1540	0	34.5800	0	27.632	0	1728.493	0	43.1	4	13.0	4	-1E+10	1	-1E+10	1	-1E+10	1	-1E+10	1	-1E+10	1	-1E+10	1
4901784	48	C	10/27/2016	10:46	-132.105	44.739	0	1754.40	0	2.1480	0	34.5810	0	27.634	0	1732.920	0	43.2	4	13.1	4	-1E+10	1	-1E+10	1	-1E+10	1	-1E+10	1	-1E+10	1	-1E+10	1
4901784	48	C	10/27/2016	10:46	-132.105	44.739	0	1759.70	0	2.1450	0	34.5810	0	27.634	0	1738.133	0	43.5	4	13.2	4	-1E+10	1	-1E+10	1	-1E+10	1	-1E+10	1	-1E+10	1	-1E+10	1
4901784	48	C	10/27/2016	10:46	-132.105	44.739	0	1765.20	0	2.1410	0	34.5820	0	27.635	0	1743.543	0	43.7	4	13.2	4	-1E+10	1	-1E+10	1	-1E+10	1	-1E+10	1	-1E+10	1	-1E+10	1
4901784	48	C	10/27/2016	10:46	-132.105	44.739	0	1770.60	0	2.1350	0	34.5830	0	27.636	0	1748.855	0	44.1	4	13.3	4	-1E+10	1	-1E+10	1	-1E+10	1	-1E+10	1	-1E+10	1	-1E+10	1
4901784	48	C	10/27/2016	10:46	-132.105	44.739	0	1775.10	0	2.1300	0	34.5830	0	27.637	0	1753.281	0	44.5	4	13.5	4	-1E+10	1	-1E+10	1	-1E+10	1	-1E+10	1	-1E+10	1	-1E+10	1
4901784	48	C	10/27/2016	10:46	-132.105	44.739	0	1779.70	0	2.1230	0	34.5840	0	27.638	0	1757.805	0	44.9	4	13.6	4	-1E+10	1	-1E+10	1	-1E+10	1	-1E+10	1	-1E+10	1	-1E+10	1
4901784	48	C	10/27/2016	10:46	-132.105	44.739	0	1785.20	0	2.1140	0	34.5850	0	27.640	0	1763.215	0	45.3	4	13.7	4	-1E+10	1	-1E+10	1	-1E+10	1	-1E+10	1	-1E+10	1	-1E+10	1
4901784	48	C	10/27/2016	10:46	-132.105	44.739	0	1790.60	0	2.1070	0	34.5870	0	27.642	0	1768.526	0	45.7	4	13.8	4	-1E+10	1	-1E+10	1	-1E+10	1	-1E+10	1	-1E+10	1	-1E+10	1
4901784	48	C	10/27/2016	10:46	-132.105	44.739	0	1795.20	0	2.1030	0	34.5870	0	27.642	0	1773.050	0	45.9	4	13.9	4	-1E+10	1	-1E+10	1	-1E+10	1	-1E+10	1	-1E+10	1	-1E+10	1
4901784	48	C	10/27/2016	10:46	-132.105	44.739	0	1799.80	0	2.1000	0	34.5870	0	27.643	0	1777.574	0	46.2	4	14.0	4	-1E+10	1	-1E+10	1	-1E+10	1	-1E+10	1	-1E+10	1	-1E+10	1
4901784	48	C	10/27/2016	10:46	-132.105	44.739	0	1805.30	0	2.0930	0	34.5890	0	27.645	0	1782.983	0	46.6	4	14.1	4	-1E+10	1	-1E+10	1	-1E+10	1	-1E+10	1	-1E+10	1	-1E+10	1
4901784	48	C	10/27/2016	10:46	-132.105	44.739	0	1809.80	0	2.0910	0	34.5890	0	27.645	0	1787.409	0	46.9	4	14.2	4	-1E+10	1	-1E+10	1	-1E+10	1	-1E+10	1	-1E+10	1	-1E+10	1
4901784	48	C	10/27/2016	10:46	-132.105	44.739	0	1814.20	0	2.0880	0	34.5900	0	27.646	0	1791.736	0	47.1	4	14.2	4	-1E+10	1	-1E+10	1	-1E+10	1	-1E+10	1	-1E+10	1	-1E+10	1
4901784	48	C	10/27/2016	10:46	-132.105	44.739	0	1819.60	0	2.0830	0	34.5910	0	27.647	0	1797.046	0	47.5	4	14.4	4	-1E+10	1	-1E+10	1	-1E+10	1	-1E+10	1	-1E+10	1	-1E+10	1
4901784	48	C	10/27/2016	10:46	-132.105	44.739	0	1824.40	0	2.0800	0	34.5910	0	27.647	0	1801.766	0	47.8	4	14.5	4	-1E+10	1	-1E+10	1	-1E+10	1	-1E+10	1	-1E+10	1	-1E+10	1
4901784	48	C	10/27/2016	10:46	-132.105	44.739	0	1830.00	0	2.0710	0	34.5920	0	27.649	0	1807.273	0	48.2	4	14.6	4	-1E+10	1	-1E+10	1	-1E+10	1	-1E+10	1	-1E+10	1	-1E+10	1
4901784	48	C	10/27/2016	10:46	-132.105	44.739	0	1835.70	0	2.0670	0	34.5930	0	27.650	0	1812.878	0	48.6	4	14.7	4	-1E+10	1	-1E+10	1	-1E+10	1	-1E+10	1	-1E+10	1	-1E+10	1
4901784	48	C	10/27/2016	10:46	-132.105	44.739	0	1840.60	0	2.0620	0	34.5930	0	27.651	0	1817.696	0	48.9	4	14.8	4	-1E+10	1	-1E+10	1	-1E+10	1	-1E+10	1	-1E+10	1	-1E+10	1
4901784	48	C	10/27/2016	10:46	-132.105	44.739	0	1845.50	0	2.0580	0	34.5950	0	27.652	0	1822.514	0	49.2	4	14.9	4	-1E+10	1	-1E+10	1	-1E+10	1	-1E+10	1	-1E+10	1	-1E+10	1
4901784	48	C	10/27/2016	10:46	-132.105	44.739	0	1850.50	0	2.0550	0	34.5950	0	27.653	0	1827.430	0	49.5	4	15.0	4	-1E+10	1	-1E+10	1	-1E+10	1	-1E+10	1	-1E+10	1	-1E+10	1
4901784	48	C	10/27/2016	10:46	-132.105	44.739	0	1855.40	0	2.0510	0	34.5960	0	27.654	0	1832.248	0	49.9	4	15.1	4	-1E+10	1	-1E+10	1	-1E+10	1	-1E+10	1	-1E+10	1	-1E+10	1
4901784	48	C	10/27/2016	10:46	-132.105	44.739	0	1860.30	0	2.0470	0	34.5970	0	27.655	0	1837.066	0	50.1	4	15.1	4	-1E+10	1	-1E+10	1	-1E+10	1	-1E+10	1	-1E+10	1	-1E+10	1
4901784	48	C	10/27/2016	10:46	-132.105	44.739	0	1865.30	0	2.0430	0	34.5970	0	27.655	0	1841.982	0	50.4	4	15.2	4	-1E+10	1	-1E+10	1	-1E+10	1	-1E+10	1	-1E+10	1	-1E+10	1
4901784	48	C	10/27/2016	10:46	-132.105	44.739	0	1870.40	0	2.0370	0	34.5980	0	27.657	0	1846.996	0	50.8	4	15.3	4	-1E+10	1	-1E+10	1	-1E+10	1	-1E+10	1	-1E+10	1	-1E+10	1
4901784	48	C	10/27/2016	10:46	-132.105	44.739	0	1875.40	0	2.0340	0	34.5990	0	27.658	0	1851.911	0	51.1	4	15.4	4	-1E+10	1	-1E+10	1	-1E+10	1	-1E+10	1	-1E+10	1	-1E+10	1
4901784	48	C	10/27/2016	10:46	-132.105	44.739	0	1880.50	0	2.0290	0	34.6000	0	27.659	0	1856.925	0	51.4	4	15.5	4	-1E+10	1	-1E+10	1	-1E+10	1	-1E+10	1	-1E+10	1	-1E+10	1
4901784	48	C	10/27/2016	10:46	-132.105	44.739	0	1885.70	0	2.0230	0	34.6000	0	27.659	0	1862.037	0	51.7	4	15.6	4	-1E+10	1	-1E+10	1	-1E+10	1	-1E+10	1	-1E+10	1	-1E+10	1
4901784	48	C	10/27/2016	10:46	-132.105	44.739	0	1890.00	0	2.0190	0	34.6010	0	27.661	0	1866.264	0	52.0	4	15.7	4	-1E+10	1	-1E+10	1	-1E+10	1	-1E+10	1	-1E+10	1	-1E+10	1
4901784	48	C	10/27/2016	10:46	-132.105	44.739	0	1894.40	0	2.0160	0	34.6020	0	27.662	0	1870.590	0	52.2	4	15.8	4	-1E+10	1	-1E+10	1	-1E+10	1	-1E+10	1	-1E+10	1	-1E+10	1
4901784	48	C	10/27/2016	10:46	-132.105	44.739	0	1899.60	0	2.0120	0	34.6020	0	27.662	0	1875.702	0	52.5	4	15.8	4	-1E+10	1	-1E+10	1	-1E+10	1	-1E+10	1	-1E+10	1	-1E+10	1
4901784	48	C	10/27/2016	10:46	-132.105	44.739	0	1904.90	0	2.0080	0	34.6030	0	27.663	0	1880.912	0	52.8	4	15.9	4	-1E+10	1	-1E+10	1	-1E+10	1	-1E+10	1	-1E+10	1	-1E+10	1
4901784	48	C	10/27/2016	10:46	-132.105	44.739	0	1910.30	0	2.0060	0	34.6030	0	27.663	0	1886.220	0	53.1	4	16.0	4	-1E+10	1	-1E+10	1	-1E+10	1	-1E+10	1	-1E+10	1	-1E+10	1
4901784	48	C	10/27/2016	10:46	-132.105	44.739	0	1915.60	0	2.0020	0	34.6040	0	27.664	0	1891.429	0	53.4	4	16.1	4	-1E+10	1	-1E+10	1	-1E+10	1	-1E+10	1	-1E+10	1	-1E+10	1
4901784	48	C	10/27/2016	10:46	-132.105	44.739	0	1920.10	0	1.9980	0	34.6050	0	27.666	0	1895.852	0	53.7	4	16.2	4	-1E+10	1	-1E+10	1	-1E+10	1	-1E+10	1	-1E+10	1	-1E+10	1
4901784	48	C	10/27/2016	10:46	-132.105	44.739	0	1924.60	0	1.9950	0	34.6050	0	27.666	0	1900.276	0	54.0	4	16.3	4	-1E+10	1	-1E+10	1	-1E+10	1	-1E+10	1	-1E+10	1	-1E+10	1
4901784	48	C	10/27/2016	10:46	-132.105	44.739	0	1930.00	0	1.9900	0	34.6060	0	27.667	0	1905.583	0	54.3	4	16.4	4	-1E+10	1	-1E+10	1	-1E+10	1	-1E+10	1	-1E+10	1	-1E+10	1
4901784	48	C	10/27/2016	10:46	-132.105	44.739	0	1935.40	0	1.9880	0	34.6070	0	27.668	0	1910.891	0	54.5	4	16.4	4	-1E+10	1	-1E+10	1	-1E+10	1	-1E+10	1	-1E+10	1	-1E+10	1
4901784	48	C	10/27/2016	10:46	-132.105	44.739	0	1939.90	0	1.9860	0	34.6070	0	27.668	0	1915.313	0	54.7	4	16.5	4	-1E+10	1	-1E+10	1	-1E+10	1	-1E+10	1	-1E+10	1	-1E+10	1
4901784	48	C	10/27/2016	10:46	-132.105	44.739	0	1944.40	0	1.9820	0	34.6070	0	27.669	0	1919.736	0	54.9	4	16.6	4	-1E+10	1	-1E+10	1	-1E+10	1	-1E+10	1	-1E+10	1	-1E+10	1
4901784	48	C	10/27/2016	10:46	-132.105	44.739	0	1949.80	0	1.9790	0	34.6080	0	27.670	0	1925.043	0	55.1	4	16.6	4	-1E+10	1	-1E+10	1	-1E+10	1	-1E+10	1	-1E+10	1	-1E+10	1
4901784	48	C	10/27/2016	10:46	-132.105	44.739	0	1955.30	0	1.9750	0	34.6080	0	27.670	0	1930.448	0	55.4	4	16.7	4	-1E+10	1	-1E+10	1	-1E+10	1	-1E+10	1	-1E+10	1	-1E+10	1
4901784	48	C	10/27/2016	10:46	-132.105	44.739	0	1959.80	0	1.9720	0	34.6090	0	27.671	0	1934.871	0	55.5	4	16.7	4	-1E+10	1	-1E+10	1	-1E+10	1	-1E+10	1	-1E+10	1	-1E+10	1
4901784	48	C	10/27/2016	10:46	-132.105	44.739	0	1964.40	0	1.9700	0	34.6090	0	27.671	0	1939.391	0	55.7	4	16.8	4	-1E+10	1	-1E+10	1	-1E+10	1	-1E+10	1	-1E+10	1	-1E+10	1
4901784	48	C	10/27/2016	10:46	-132.105	44.739	0	1970.00	0	1.9680	0	34.6090	0	27.671	0	1944.895	0	56.0	4	16.9	4	-1E+10	1	-1E+10	1	-1E+10	1	-1E+10	1	-1E+10	1	-1E+10	1
4901784	48	C	10/27/2016	10:46	-132.105	44.739	0	1975.50	0	1.9650	0	34.6100	0	27.672	0	1950.299	0	56.2	4	16.9	4	-1E+10	1	-1E+10	1	-1E+10	1	-1E+10	1	-1E+10	1	-1E+10	1
4901784	48	C	10/27/2016	10:46	-132.105	44.739	0	1980.20	0	1.9620	0	34.6110	0	27.673	0	1954.918	0	56.5	4	17.0	4	-1E+10	1	-1E+10	1	-1E+10	1	-1E+10	1	-1E+10	1	-1E+10	1
4901784	48	C	10/27/2016	10:46	-132.105	44.739	0	1984.80	0	1.9590	0	34.6110	0	27.674	0	1959.438	0	56.8	4	17.1	4	-1E+10	1	-1E+10	1	-1E+10	1	-1E+10	1	-1E+10	1	-1E+10	1
4901784	48	C	10/27/2016	10:46	-132.105	44.739	0	1989.80	0	1.9550	0	34.6120	0	27.675	0	1964.351	0	57.1	4	17.2	4	-1E+10	1	-1E+10	1	-1E+10	1	-1E+10	1	-1E+10	1	-1E+10	1
4901784	48	C	10/27/2016	10:46	-132.105	44.739	0	1994.80	0	1.9510	0	34.6130	0	27.676	0	1969.264	0	57.3	4	17.3	4	-1E+10	1	-1E+10	1	-1E+10	1	-1E+10	1	-1E+10	1	-1E+10	1
4901784	48	C	10/27/2016	10:46	-132.105	44.739	0	1999.90	0	1.9490	0	34.6130	0	27.676	0	1974.275	0	57.5	4	17.3	4	-1E+10	1	-1E+10	1	-1E+10	1	-1E+10	1	-1E+10	1	-1E+10	1
4901784	48	C	10/27/2016	10:46	-132.105	44.739	0	2005.00	0	1.9460	0	34.6140	0	27.677	0	1979.286	0	57.8	4	17.4	4	-1E+10	1	-1E+10	1	-1E+10	1	-1E+10	1	-1E+10	1	-1E+10	1
4901784	48	C	10/27/2016	10:46	-132.105	44.739	0	2010.30	0	1.9440	0	34.6140	0	27.677	0	1984.493	0	58.1	4	17.5	4	-1E+10	1	-1E+10	1	-1E+10	1	-1E+10	1	-1E+10	1	-1E+10	1
4901784	48	C	10/27/2016	10:46	-132.105	44.739	0	2015.10	0	1.9410	0	34.6150	0	27.679	0	1989.209	0	58.4	4	17.6	4	-1E+10	1	-1E+10	1	-1E+10	1	-1E+10	1	-1E+10	1	-1E+10	1
4901784	48	C	10/27/2016	10:46	-132.105	44.739	0	2020.30	0	1.9380	0	34.6160	0	27.680	0	1994.318	0	58.6	4	17.7	4	-1E+10	1	-1E+10	1	-1E+10	1	-1E+10	1	-1E+10	1	-1E+10	1
4901784	48	C	10/27/2016	10:46	-132.105	44.739	0																										
4901784	49	C	11/06/2016	10:49	-132.318	44.801	0	2.40	0	14.0610	0	32.6910	0	24.391	0	2.381	0	246.6	4	96.1	4	-1E+10	1	-1E+10	1	-1E+10	1	-1E+10	1	-1E+10	1	-1E+10	1
4901784	49	C	11/06/2016	10:49	-132.318	44.801	0	3.80	0	14.0650	0	32.6910	0	24.391	0	3.769	0	246.3	4	96.0	4	-1E+10	1	-1E+10	1	-1E+10	1	-1E+10	1	-1E+10	1	-1E+10	1
4901784	49	C	11/06/2016	10:49	-132.318	44.801	0	5.20	0	14.0660	0	32.6910	0	24.390	0	5.158	0	246.4	4	96.1	4	-1E+10	1	-1E+10	1	-1E+10	1	-1E+10	1	-1E+10	1	-1E+10	1
4901784	49	C	11/06/2016	10:49	-132.318	44.801	0	6.80	0	14.0630	0	32.6910	0	24.391	0	6.745	0	246.4	4	96.0	4	-1E+10	1	-1E+10	1	-1E+10	1	-1E+10	1	-1E+10	1	-1E+10	1
4901784	49	C	11/06/2016	10:49	-132.318	44.801	0	8.40	0	14.0640	0	32.6910	0	24.391	0	8.332	0	246.2	4	96.0	4	-1E+10	1	-1E+10	1	-1E+10	1	-1E+10	1	-1E+10	1	-1E+10	1
4901784	49	C	11/06/2016	10:49	-132.318	44.801	0	10.10	0	14.0640	0	32.6910	0	24.391	0	10.018	0	246.0	4	95.9	4	-1E+10	1	-1E+10	1	-1E+10	1	-1E+10	1	-1E+10	1	-1E+10	1
4901784	49	C	11/06/2016	10:49	-132.318	44.801	0	11.80	0	14.0640	0	32.6910	0	24.391	0	11.704	0	246.0	4	95.9	4	-1E+10	1	-1E+10	1	-1E+10	1	-1E+10	1	-1E+10	1	-1E+10	1
4901784	49	C	11/06/2016	10:49	-132.318	44.801	0	13.30	0	14.0620	0	32.6910	0	24.392	0	13.192	0	246.0	4	95.9	4	-1E+10	1	-1E+10	1	-1E+10	1	-1E+10	1	-1E+10	1	-1E+10	1
4901784	49	C	11/06/2016	10:49	-132.318	44.801	0	15.20	0	14.0630	0	32.6910	0	24.391	0	15.076	0	245.7	4	95.8	4	-1E+10	1	-1E+10	1	-1E+10	1	-1E+10	1	-1E+10	1	-1E+10	1
4901784	49	C	11/06/2016	10:49	-132.318	44.801	0	15.60	0	14.0630	0	32.6910	0	24.391	0	15.473	0	245.8	4	95.8	4	-1E+10	1	-1E+10	1	-1E+10	1	-1E+10	1	-1E+10	1	-1E+10	1
4901784	49	C	11/06/2016	10:49	-132.318	44.801	0	17.20	0	14.0630	0	32.6910	0	24.391	0	17.060	0	245.8	4	95.8	4	-1E+10	1	-1E+10	1	-1E+10	1	-1E+10	1	-1E+10	1	-1E+10	1
4901784	49	C	11/06/2016	10:49	-132.318	44.801	0	18.50	0	14.0630	0	32.6910	0	24.391	0	18.349	0	245.7	4	95.8	4	-1E+10	1	-1E+10	1	-1E+10	1	-1E+10	1	-1E+10	1	-1E+10	1
4901784	49	C	11/06/2016	10:49	-132.318	44.801	0	19.80	0	14.0650	0	32.6910	0	24.391	0	19.639	0	245.6	4	95.7	4	-1E+10	1	-1E+10	1	-1E+10	1	-1E+10	1	-1E+10	1	-1E+10	1
4901784	49	C	11/06/2016	10:49	-132.318	44.801	0	21.20	0	14.0650	0	32.6900	0	24.390	0	21.027	0	245.6	4	95.7	4	-1E+10	1	-1E+10	1	-1E+10	1	-1E+10	1	-1E+10	1	-1E+10	1
4901784	49	C	11/06/2016	10:49	-132.318	44.801	0	22.70	0	14.0640	0	32.6910	0	24.391	0	22.515	0	245.3	4	95.6	4	-1E+10	1	-1E+10	1	-1E+10	1	-1E+10	1	-1E+10	1	-1E+10	1
4901784	49	C	11/06/2016	10:49	-132.318	44.801	0	24.30	0	14.0650	0	32.6900	0	24.390	0	24.102	0	245.3	4	95.6	4	-1E+10	1	-1E+10	1	-1E+10	1	-1E+10	1	-1E+10	1	-1E+10	1
4901784	49	C	11/06/2016	10:49	-132.318	44.801	0	25.80	0	14.0650	0	32.6910	0	24.391	0	25.589	0	245.1	4	95.6	4	-1E+10	1	-1E+10	1	-1E+10	1	-1E+10	1	-1E+10	1	-1E+10	1
4901784	49	C	11/06/2016	10:49	-132.318	44.801	0	27.40	0	14.0650	0	32.6910	0	24.391	0	27.176	0	244.9	4	95.5	4	-1E+10	1	-1E+10	1	-1E+10	1	-1E+10	1	-1E+10	1	-1E+10	1
4901784	49	C	11/06/2016	10:49	-132.318	44.801	0	29.10	0	14.0670	0	32.6910	0	24.391	0	28.862	0	245.0	4	95.5	4	-1E+10	1	-1E+10	1	-1E+10	1	-1E+10	1	-1E+10	1	-1E+10	1
4901784	49	C	11/06/2016	10:49	-132.318	44.801	0	30.80	0	14.0680	0	32.6900	0	24.390	0	30.548	0	244.8	4	95.4	4	-1E+10	1	-1E+10	1	-1E+10	1	-1E+10	1	-1E+10	1	-1E+10	1
4901784	49	C	11/06/2016	10:49	-132.318	44.801	0	32.60	0	14.0690	0	32.6900	0	24.390	0	32.333	0	244.7	4	95.4	4	-1E+10	1	-1E+10	1	-1E+10	1	-1E+10	1	-1E+10	1	-1E+10	1
4901784	49	C	11/06/2016	10:49	-132.318	44.801	0	34.30	0	14.0690	0	32.6890	0	24.389	0	34.019	0	244.5	4	95.3	4	-1E+10	1	-1E+10	1	-1E+10	1	-1E+10	1	-1E+10	1	-1E+10	1
4901784	49	C	11/06/2016	10:49	-132.318	44.801	0	36.10	0	14.0680	0	32.6900	0	24.390	0	35.804	0	244.4	4	95.3	4	-1E+10	1	-1E+10	1	-1E+10	1	-1E+10	1	-1E+10	1	-1E+10	1
4901784	49	C	11/06/2016	10:49	-132.318	44.801	0	37.90	0	14.0690	0	32.6890	0	24.389	0	37.590	0	244.2	4	95.2	4	-1E+10	1	-1E+10	1	-1E+10	1	-1E+10	1	-1E+10	1	-1E+10	1
4901784	49	C	11/06/2016	10:49	-132.318	44.801	0	39.70	0	14.0690	0	32.6890	0	24.389	0	39.375	0	244.0	4	95.1	4	-1E+10	1	-1E+10	1	-1E+10	1	-1E+10	1	-1E+10	1	-1E+10	1
4901784	49	C	11/06/2016	10:49	-132.318	44.801	0	41.40	0	14.0690	0	32.6880	0	24.389	0	41.061	0	244.0	4	95.1	4	-1E+10	1	-1E+10	1	-1E+10	1	-1E+10	1	-1E+10	1	-1E+10	1
4901784	49	C	11/06/2016	10:49	-132.318	44.801	0	43.10	0	14.0700	0	32.6860	0	24.387	0	42.746	0	243.9	4	95.1	4	-1E+10	1	-1E+10	1	-1E+10	1	-1E+10	1	-1E+10	1	-1E+10	1
4901784	49	C	11/06/2016	10:49	-132.318	44.801	0	45.30	0	14.0710	0	32.6850	0	24.386	0	44.928	0	244.0	4	95.1	4	-1E+10	1	-1E+10	1	-1E+10	1	-1E+10	1	-1E+10	1	-1E+10	1
4901784	49	C	11/06/2016	10:49	-132.318	44.801	0	46.80	0	14.0730	0	32.6810	4	24.383	0	46.416	0	244.1	4	95.2	4	-1E+10	1	-1E+10	1	-1E+10	1	-1E+10	1	-1E+10	1	-1E+10	1
4901784	49	C	11/06/2016	10:49	-132.318	44.801	0	48.20	0	14.0690	0	32.6770	4	24.380	0	47.804	0	244.6	4	95.4	4	-1E+10	1	-1E+10	1	-1E+10	1	-1E+10	1	-1E+10	1	-1E+10	1
4901784	49	C	11/06/2016	10:49	-132.318	44.801	0	49.30	0	14.0660	0	32.6700	4	24.376	0	48.895	0	245.0	4	95.5	4	-1E+10	1	-1E+10	1	-1E+10	1	-1E+10	1	-1E+10	1	-1E+10	1
4901784	49	C	11/06/2016	10:49	-132.318	44.801	0	50.60	0	14.0650	0	32.6590	4	24.367	0	50.184	0	246.1	4	95.9	4	-1E+10	1	-1E+10	1	-1E+10	1	-1E+10	1	-1E+10	1	-1E+10	1
4901784	49	C	11/06/2016	10:49	-132.318	44.801	0	51.90	0	14.0540	0	32.6390	4	24.354	0	51.473	0	247.3	4	96.3	4	-1E+10	1	-1E+10	1	-1E+10	1	-1E+10	1	-1E+10	1	-1E+10	1
4901784	49	C	11/06/2016	10:49	-132.318	44.801	0	53.50	0	12.7750	0	32.7230	0	24.675	0	53.060	0	249.4	4	94.7	4	-1E+10	1	-1E+10	1	-1E+10	1	-1E+10	1	-1E+10	1	-1E+10	1
4901784	49	C	11/06/2016	10:49	-132.318	44.801	0	53.90	0	12.1330	0	32.7690	0	24.834	0	53.456	0	256.7	4	96.3	4	-1E+10	1	-1E+10	1	-1E+10	1	-1E+10	1	-1E+10	1	-1E+10	1
4901784	49	C	11/06/2016	10:49	-132.318	44.801	0	55.30	0	11.5100	0	32.7730	0	24.952	0	54.845	0	261.4	4	96.7	4	-1E+10	1	-1E+10	1	-1E+10	1	-1E+10	1	-1E+10	1	-1E+10	1
4901784	49	C	11/06/2016	10:49	-132.318	44.801	0	56.80	0	10.6280	0	32.8560	0	25.173	0	56.332	0	265.4	4	96.5	4	-1E+10	1	-1E+10	1	-1E+10	1	-1E+10	1	-1E+10	1	-1E+10	1
4901784	49	C	11/06/2016	10:49	-132.318	44.801	0	58.20	0	10.3670	0	32.8580	0	25.219	0	57.720	0	265.5	4	96.0	4	-1E+10	1	-1E+10	1	-1E+10	1	-1E+10	1	-1E+10	1	-1E+10	1
4901784	49	C	11/06/2016	10:49	-132.318	44.801	0	59.70	0	10.1300	0	32.8620	0	25.263	0	59.208	0	265.2	4	95.4	4	-1E+10	1	-1E+10	1	-1E+10	1	-1E+10	1	-1E+10	1	-1E+10	1
4901784	49	C	11/06/2016	10:49	-132.318	44.801	0	61.30	0	10.0810	0	32.8620	0	25.271	0	60.794	0	265.0	4	95.2	4	-1E+10	1	-1E+10	1	-1E+10	1	-1E+10	1	-1E+10	1	-1E+10	1
4901784	49	C	11/06/2016	10:49	-132.318	44.801	0	62.70	0	10.0550	0	32.8620	0	25.275	0	62.183	0	264.1	4	94.8	4	-1E+10	1	-1E+10	1	-1E+10	1	-1E+10	1	-1E+10	1	-1E+10	1
4901784	49	C	11/06/2016	10:49	-132.318	44.801	0	64.40	0	9.9700	0	32.8660	0	25.293	0	63.868	0	263.7	4	94.5	4	-1E+10	1	-1E+10	1	-1E+10	1	-1E+10	1	-1E+10	1	-1E+10	1
4901784	49	C	11/06/2016	10:49	-132.318	44.801	0	66.00	0	9.8640	0	32.8770	0	25.319	0	65.455	0	263.4	4	94.2	4	-1E+10	1	-1E+10	1	-1E+10	1	-1E+10	1	-1E+10	1	-1E+10	1
4901784	49	C	11/06/2016	10:49	-132.318	44.801	0	67.70	0	9.8300	0	32.8740	0	25.322	0	67.141	0	263.6	4	94.2	4	-1E+10	1	-1E+10	1	-1E+10	1	-1E+10	1	-1E+10	1	-1E+10	1
4901784	49	C	11/06/2016	10:49	-132.318	44.801	0	69.20	0	9.8120	0	32.8740	0	25.325	0	68.628	0	263.2	4	94.0	4	-1E+10	1	-1E+10	1	-1E+10	1	-1E+10	1	-1E+10	1	-1E+10	1
4901784	49	C	11/06/2016	10:49	-132.318	44.801	0	70.80	0	9.8100	0	32.8720	0	25.324	0	70.215	0	262.6	4	93.8	4	-1E+10	1	-1E+10	1	-1E+10	1	-1E+10	1	-1E+10	1	-1E+10	1
4901784	49	C	11/06/2016	10:49	-132.318	44.801	0	72.40	0	9.7540	0	32.8810	0	25.340	0	71.801	0	261.8	4	93.4	4	-1E+10	1	-1E+10	1	-1E+10	1	-1E+10	1	-1E+10	1	-1E+10	1
4901784	49	C	11/06/2016	10:49	-132.318	44.801	0	74.10	0	9.6840	0	32.8760	0	25.348	0	73.487	0	261.4	4	93.1	4	-1E+10	1	-1E+10	1	-1E+10	1	-1E+10	1	-1E+10	1	-1E+10	1
4901784	49	C	11/06/2016	10:49	-132.318	44.801	0	75.70	0	9.5270	0	32.8770	0	25.374	0	75.073	0	261.6	4	92.9	4	-1E+10	1	-1E+10	1	-1E+10	1	-1E+10	1	-1E+10	1	-1E+10	1
4901784	49	C	11/06/2016	10:49	-132.318	44.801	0	77.30	0	9.4950	0	32.8830	0	25.384	0	76.660	0	261.0	4	92.6	4	-1E+10	1	-1E+10	1	-1E+10	1	-1E+10	1	-1E+10	1	-1E+10	1
4901784	49	C	11/06/2016	10:49	-132.318	44.801	0	78.90	0	9.4760	0	32.8810	0	25.385	0	78.246	0	260.2	4	92.3	4	-1E+10	1	-1E+10	1	-1E+10	1	-1E+10	1	-1E+10	1	-1E+10	1
4901784	49	C	11/06/2016	10:49	-132.318	44.801	0	80.60	0	9.4620	0	32.8930	0	25.397	0	79.932	0	259.1	4	91.9	4	-1E+10	1	-1E+10	1	-1E+10	1	-1E+10	1	-1E+10	1	-1E+10	1
4901784	49	C	11/06/2016	10:49	-132.318	44.801	0	82.30	0	9.4510	0	32.8990	0	25.403	0	81.617	0	258.4	4	91.6	4	-1E+10	1	-1E+10	1	-1E+10	1	-1E+10	1	-1E+10	1	-1E+10	1
4901784	49	C	11/06/2016	10:49	-132.318	44.801	0	84.00	0	9.4510	0	32.9000	0	25.404	0	83.303	0	257.6	4	91.3	4	-1E+10	1	-1E+10	1	-1E+10	1	-1E+10	1	-1E+10	1	-1E+10	1
4901784	49	C	11/06/2016	10:49	-132.318	44.801	0	85.60	0	9.4410	0	32.9140	0	25.417	0	84.889	0	256.9	4	91.1	4	-1E+10	1	-1E+10	1	-1E+10	1	-1E+10	1	-1E+10	1	-1E+10	1
4901784	49	C	11/06/2016	10:49	-132.318	44.801	0	87.20	0	9.4460	0	32.9200	0	25.421	0	86.475	0	256.3	4	90.8	4	-1E+10	1	-1E+10	1	-1E+10	1	-1E+10	1	-1E+10	1	-1E+10	1
4901784	49	C	11/06/2016	10:49	-132.318	44.801	0	88.90	0	9.4390	0	32.9240	0	25.425	0	88.161	0	255.3	4	90.5	4	-1E+10	1	-1E+10	1	-1E+10	1	-1E+10	1	-1E+10	1	-1E+10	1
4901784	49	C	11/06/2016	10:49	-132.318	44.801	0	90.50	0	9.3870	0	32.9280	0	25.437	0	89.747	0	255.0	4	90.3	4	-1E+10	1	-1E+10	1	-1E+10	1	-1E+10	1	-1E+10	1	-1E+10	1
4901784	49	C	11/06/2016	10:49	-132.318	44.801	0	92.20	0	9.3580	0	32.9330	0	25.445	0	91.433	0	254.2	4	89.9	4	-1E+10	1	-1E+10	1	-1E+10	1	-1E+10	1	-1E+10	1	-1E+10	1
4901784	49	C	11/06/2016	10:49	-132.318	44.801	0	93.80	0	9.3390	0	32.9420	0	25.455	0	93.019	0	253.6	4	89.7	4	-1E+10	1	-1E+10	1	-1E+10	1	-1E+10	1	-1E+10	1	-1E+10	1
4901784	49	C	11/06/2016	10:49	-132.318	44.801	0	95.40	0	9.3070	0	32.9550	0	25.471	0	94.605	0	252.7	4	89.3	4	-1E+10	1	-1E+10	1	-1E+10	1	-1E+10	1	-1E+10	1	-1E+10	1
4901784	49	C	11/06/2016	10:49	-132.318	44.801	0	97.00	0	9.2820	0	32.9610	0	25.479	0	96.192	0	251.6	4	88.9	4	-1E+10	1	-1E+10	1	-1E+10	1	-1E+10	1	-1E+10	1	-1E+10	1
4901784	49	C	11/06/2016	10:49	-132.318	44.801	0	98.60	0	9.2420	0	32.9710	0	25.493	0	97.778	0	250.6	4	88.5	4	-1E+10	1	-1E+10	1	-1E+10	1	-1E+10	1	-1E+10	1	-1E+10	1
4901784	49	C	11/06/2016	10:49	-132.318	44.801	0	100.30	0	9.1510	0	32.9750	0	25.511	0	99.463	0	249.9	4	88.0	4	-1E+10	1	-1E+10	1	-1E+10	1	-1E+10	1	-1E+10	1	-1E+10	1
4901784	49	C	11/06/2016	10:49	-132.318	44.801	0	102.90	0	9.1470	0	32.9840	0	25.519	0	102.041	0	247.9	4	87.3	4	-1E+10	1	-1E+10	1	-1E+10	1	-1E+10	1	-1E+10	1	-1E+10	1
4901784	49	C	11/06/2016	10:49	-132.318	44.801	0	105.40	0	9.1370	0	32.9860	0	25.522	0	104.520	0	245.3	4	86.4	4	-1E+10	1	-1E+10	1	-1E+10	1	-1E+10	1	-1E+10	1	-1E+10	1
4901784	49	C	11/06/2016	10:49	-132.318	44.801	0	107.90	0	9.0570	0	32.9990	0	25.545	0	106.998	0	241.7	4	85.0	4	-1E+10	1	-1E+10	1	-1E+10	1	-1E+10	1	-1E+10	1	-1E+10	1
4901784	49	C	11/06/2016	10:49	-132.318	44.801	0	110.30	0	8.9820	0	33.0380	0	25.587	0	109.377	0	237.3	4	83.3	4	-1E+10	1	-1E+10	1	-1E+10	1	-1E+10	1	-1E+10	1	-1E+10	1
4901784	49	C	11/06/2016	10:49	-132.318	44.801	0	112.40	0	8.9580	0	33.0890	0	25.631	0	111.459	0	232.5	4	81.7	4	-1E+10	1	-1E+10	1	-1E+10	1	-1E+10	1	-1E+10	1	-1E+10	1
4901784	49	C	11/06/2016	10:49	-132.318	44.801	0	114.70	0	9.0070	0	33.1670	0	25.684	0	113.739	0	226.0	4	79.5	4	-1E+10	1	-1E+10	1	-1E+10	1	-1E+10	1	-1E+10	1	-1E+10	1
4901784	49	C	11/06/2016	10:49	-132.318	44.801	0	117.30	0	9.0090	0	33.2550	0	25.753	0	116.317	0	219.4	4	77.2	4	-1E+10	1	-1E+10	1	-1E+10	1	-1E+10	1	-1E+10	1	-1E+10	1
4901784	49	C	11/06/2016	10:49	-132.318	44.801	0	120.20	0	8.9700	0	33.3580	0	25.840	0	119.192	0	211.8	4	74.5	4	-1E+10	1	-1E+10	1	-1E+10	1	-1E+10	1	-1E+10	1	-1E+10	1
4901784	49	C	11/06/2016	10:49	-132.318	44.801	0	122.40	0	8.9210	0	33.4870	0	25.948	0	121.373	0	206.9	4	72.8	4	-1E+10	1	-1E+10	1	-1E+10	1	-1E+10	1	-1E+10	1	-1E+10	1
4901784	49	C	11/06/2016	10:49	-132.318	44.801	0	124.70	0	8.8940	0	33.5450	0	25.998	0	123.653	0	203.3	4	71.5	4	-1E+10	1	-1E+10	1	-1E+10	1	-1E+10	1	-1E+10	1	-1E+10	1
4901784	49	C	11/06/2016	10:49	-132.318	44.801	0	127.80	0	8.8610	0	33.6240	0	26.065	0	126.726	0	198.9	4	70.0	4	-1E+10	1	-1E+10	1	-1E+10	1	-1E+10	1	-1E+10	1	-1E+10	1
4901784	49	C	11/06/2016	10:49	-132.318	44.801	0	130.20	0	8.8190	0	33.7110	0	26.140	0	129.105	0	196.3	4	69.0	4	-1E+10	1	-1E+10	1	-1E+10	1	-1E+10	1	-1E+10	1	-1E+10	1
4901784	49	C	11/06/2016	10:49	-132.318	44.801	0	132.60	0	8.7940	0	33.7370	0	26.164	0	131.484	0	194.5	4	68.4	4	-1E+10	1	-1E+10	1	-1E+10	1	-1E+10	1	-1E+10	1	-1E+10	1
4901784	49	C	11/06/2016	10:49	-132.318	44.801	0	135.20	0	8.7450	0	33.7720	0	26.199	0	134.061	0	193.0	4	67.8	4	-1E+10	1	-1E+10	1	-1E+10	1	-1E+10	1	-1E+10	1	-1E+10	1
4901784	49	C	11/06/2016	10:49	-132.318	44.801	0	137.00	0	8.7170	0	33.7840	0	26.213	0	135.845	0	192.4	4	67.5	4	-1E+10	1	-1E+10	1	-1E+10	1	-1E+10	1	-1E+10	1	-1E+10	1
4901784	49	C	11/06/2016	10:49	-132.318	44.801	0	139.70	0	8.6840	0	33.8080	0	26.237	0	138.522	0	191.4	4	67.2	4	-1E+10	1	-1E+10	1	-1E+10	1	-1E+10	1	-1E+10	1	-1E+10	1
4901784	49	C	11/06/2016	10:49	-132.318	44.801	0	142.30	0	8.6460	0	33.8270	0	26.258	0	141.099	0	190.6	4	66.8	4	-1E+10	1	-1E+10	1	-1E+10	1	-1E+10	1	-1E+10	1	-1E+10	1
4901784	49	C	11/06/2016	10:49	-132.318	44.801	0	144.90	0	8.6110	0	33.8270	0	26.263	0	143.676	0	190.1	4	66.6	4	-1E+10	1	-1E+10	1	-1E+10	1	-1E+10	1	-1E+10	1	-1E+10	1
4901784	49	C	11/06/2016	10:49	-132.318	44.801	0	147.60	0	8.6020	0	33.8590	0	26.290	0	146.352	0	190.5	4	66.7	4	-1E+10	1	-1E+10	1	-1E+10	1	-1E+10	1	-1E+10	1	-1E+10	1
4901784	49	C	11/06/2016	10:49	-132.318	44.801	0	149.40	0	8.5970	0	33.8750	0	26.303	0	148.136	0	190.1	4	66.6	4	-1E+10	1	-1E+10	1	-1E+10	1	-1E+10	1	-1E+10	1	-1E+10	1
4901784	49	C	11/06/2016	10:49	-132.318	44.801	0	152.20	0	8.5870	0	33.8850	0	26.312	0	150.912	0	189.3	4	66.3	4	-1E+10	1	-1E+10	1	-1E+10	1	-1E+10	1	-1E+10	1	-1E+10	1
4901784	49	C	11/06/2016	10:49	-132.318	44.801	0	154.90	0	8.5500	0	33.8980	0	26.328	0	153.588	0	188.1	4	65.8	4	-1E+10	1	-1E+10	1	-1E+10	1	-1E+10	1	-1E+10	1	-1E+10	1
4901784	49	C	11/06/2016	10:49	-132.318	44.801	0	157.70	0	8.5050	0	33.9100	0	26.345	0	156.363	0	186.6	4	65.3	4	-1E+10	1	-1E+10	1	-1E+10	1	-1E+10	1	-1E+10	1	-1E+10	1
4901784	49	C	11/06/2016	10:49	-132.318	44.801	0	160.60	0	8.4530	0	33.9130	0	26.355	0	159.237	0	184.8	4	64.6	4	-1E+10	1	-1E+10	1	-1E+10	1	-1E+10	1	-1E+10	1	-1E+10	1
4901784	49	C	11/06/2016	10:49	-132.318	44.801	0	162.50	0	8.4410	0	33.9160	0	26.359	0	161.120	0	183.5	4	64.1	4	-1E+10	1	-1E+10	1	-1E+10	1	-1E+10	1	-1E+10	1	-1E+10	1
4901784	49	C	11/06/2016	10:49	-132.318	44.801	0	164.30	0	8.3310	0	33.9150	0	26.375	0	162.904	0	181.9	4	63.4	4	-1E+10	1	-1E+10	1	-1E+10	1	-1E+10	1	-1E+10	1	-1E+10	1
4901784	49	C	11/06/2016	10:49	-132.318	44.801	0	167.30	0	8.2770	0	33.9140	0	26.382	0	165.878	0	180.3	4	62.7	4	-1E+10	1	-1E+10	1	-1E+10	1	-1E+10	1	-1E+10	1	-1E+10	1
4901784	49	C	11/06/2016	10:49	-132.318	44.801	0	170.20	0	8.1300	0	33.9060	0	26.398	0	168.752	0	179.2	4	62.2	4	-1E+10	1	-1E+10	1	-1E+10	1	-1E+10	1	-1E+10	1	-1E+10	1
4901784	49	C	11/06/2016	10:49	-132.318	44.801	0	172.20	0	8.1240	0	33.9100	0	26.402	0	170.734	0	178.9	4	62.0	4	-1E+10	1	-1E+10	1	-1E+10	1	-1E+10	1	-1E+10	1	-1E+10	1
4901784	49	C	11/06/2016	10:49	-132.318	44.801	0	174.70	0	8.0780	0	33.9070	0	26.407	0	173.212	0	178.8	4	61.9	4	-1E+10	1	-1E+10	1	-1E+10	1	-1E+10	1	-1E+10	1	-1E+10	1
4901784	49	C	11/06/2016	10:49	-132.318	44.801	0	177.50	0	8.1040	0	33.9240	0	26.416	0	175.987	0	179.0	4	62.0	4	-1E+10	1	-1E+10	1	-1E+10	1	-1E+10	1	-1E+10	1	-1E+10	1
4901784	49	C	11/06/2016	10:49	-132.318	44.801	0	179.90	0	8.1430	0	33.9370	0	26.421	0	178.365	0	178.0	4	61.8	4	-1E+10	1	-1E+10	1	-1E+10	1	-1E+10	1	-1E+10	1	-1E+10	1
4901784	49	C	11/06/2016	10:49	-132.318	44.801	0	182.30	0	8.0430	0	33.9380	0	26.436	0	180.744	0	176.9	4	61.2	4	-1E+10	1	-1E+10	1	-1E+10	1	-1E+10	1	-1E+10	1	-1E+10	1
4901784	49	C	11/06/2016	10:49	-132.318	44.801	0	184.70	0	8.0150	0	33.9480	0	26.448	0	183.122	0	175.7	4	60.8	4	-1E+10	1	-1E+10	1	-1E+10	1	-1E+10	1	-1E+10	1	-1E+10	1
4901784	49	C	11/06/2016	10:49	-132.318	44.801	0	187.10	0	7.9720	0	33.9490	0	26.456	0	185.501	0	174.4	4	60.3	4	-1E+10	1	-1E+10	1	-1E+10	1	-1E+10	1	-1E+10	1	-1E+10	1
4901784	49	C	11/06/2016	10:49	-132.318	44.801	0	190.40	0	7.9310	0	33.9480	0	26.461	0	188.771	0	172.1	4	59.4	4	-1E+10	1	-1E+10	1	-1E+10	1	-1E+10	1	-1E+10	1	-1E+10	1
4901784	49	C	11/06/2016	10:49	-132.318	44.801	0	192.80	0	7.8710	0	33.9430	0	26.466	0	191.149	0	170.2	4	58.7	4	-1E+10	1	-1E+10	1	-1E+10	1	-1E+10	1	-1E+10	1	-1E+10	1
4901784	49	C	11/06/2016	10:49	-132.318	44.801	0	195.30	0	7.8050	0	33.9380	0	26.471	0	193.627	0	168.1	4	57.9	4	-1E+10	1	-1E+10	1	-1E+10	1	-1E+10	1	-1E+10	1	-1E+10	1
4901784	49	C	11/06/2016	10:49	-132.318	44.801	0	197.80	0	7.7370	0	33.9340	0	26.478	0	196.104	0	166.0	4	57.1	4	-1E+10	1	-1E+10	1	-1E+10	1	-1E+10	1	-1E+10	1	-1E+10	1
4901784	49	C	11/06/2016	10:49	-132.318	44.801	0	200.30	0	7.5990	0	33.9260	0	26.492	0	198.581	0	164.0	4	56.2	4	-1E+10	1	-1E+10	1	-1E+10	1	-1E+10	1	-1E+10	1	-1E+10	1
4901784	49	C	11/06/2016	10:49	-132.318	44.801	0	202.80	0	7.5470	0	33.9250	0	26.498	0	201.059	0	162.7	4	55.7	4	-1E+10	1	-1E+10	1	-1E+10	1	-1E+10	1	-1E+10	1	-1E+10	1
4901784	49	C	11/06/2016	10:49	-132.318	44.801	0	205.30	0	7.4830	0	33.9310	0	26.512	0	203.536	0	161.8	4	55.3	4	-1E+10	1	-1E+10	1	-1E+10	1	-1E+10	1	-1E+10	1	-1E+10	1
4901784	49	C	11/06/2016	10:49	-132.318	44.801	0	207.70	0	7.4460	0	33.9340	0	26.520	0	205.914	0	160.7	4	54.9	4	-1E+10	1	-1E+10	1	-1E+10	1	-1E+10	1	-1E+10	1	-1E+10	1
4901784	49	C	11/06/2016	10:49	-132.318	44.801	0	210.30	0	7.4250	0	33.9310	0	26.521	0	208.491	0	159.5	4	54.4	4	-1E+10	1	-1E+10	1	-1E+10	1	-1E+10	1	-1E+10	1	-1E+10	1
4901784	49	C	11/06/2016	10:49	-132.318	44.801	0	212.80	0	7.4070	0	33.9280	0	26.521	0	210.968	0	157.8	4	53.8	4	-1E+10	1	-1E+10	1	-1E+10	1	-1E+10	1	-1E+10	1	-1E+10	1
4901784	49	C	11/06/2016	10:49	-132.318	44.801	0	214.60	0	7.3620	0	33.9260	0	26.526	0	212.751	0	156.3	4	53.3	4	-1E+10	1	-1E+10	1	-1E+10	1	-1E+10	1	-1E+10	1	-1E+10	1
4901784	49	C	11/06/2016	10:49	-132.318	44.801	0	217.20	0	7.2540	0	33.9270	0	26.541	0	215.328	0	154.7	4	52.6	4	-1E+10	1	-1E+10	1	-1E+10	1	-1E+10	1	-1E+10	1	-1E+10	1
4901784	49	C	11/06/2016	10:49	-132.318	44.801	0	219.60	0	7.1710	0	33.9270	0	26.553	0	217.706	0	153.7	4	52.2	4	-1E+10	1	-1E+10	1	-1E+10	1	-1E+10	1	-1E+10	1	-1E+10	1
4901784	49	C	11/06/2016	10:49	-132.318	44.801	0	222.20	0	7.1420	0	33.9290	0	26.559	0	220.282	0	152.5	4	51.7	4	-1E+10	1	-1E+10	1	-1E+10	1	-1E+10	1	-1E+10	1	-1E+10	1
4901784	49	C	11/06/2016	10:49	-132.318	44.801	0	224.80	0	7.0790	0	33.9280	0	26.567	0	222.858	0	151.7	4	51.4	4	-1E+10	1	-1E+10	1	-1E+10	1	-1E+10	1	-1E+10	1	-1E+10	1
4901784	49	C	11/06/2016	10:49	-132.318	44.801	0	227.50	0	7.0540	0	33.9280	0	26.570	0	225.533	0	151.2	4	51.2	4	-1E+10	1	-1E+10	1	-1E+10	1	-1E+10	1	-1E+10	1	-1E+10	1
4901784	49	C	11/06/2016	10:49	-132.318	44.801	0	230.20	0	7.0410	0	33.9280	0	26.572	0	228.208	0	150.6	4	51.0	4	-1E+10	1	-1E+10	1	-1E+10	1	-1E+10	1	-1E+10	1	-1E+10	1
4901784	49	C	11/06/2016	10:49	-132.318	44.801	0	232.80	0	7.0340	0	33.9270	0	26.572	0	230.784	0	149.7	4	50.6	4	-1E+10	1	-1E+10	1	-1E+10	1	-1E+10	1	-1E+10	1	-1E+10	1
4901784	49	C	11/06/2016	10:49	-132.318	44.801	0	235.50	0	7.0250	0	33.9260	0	26.573	0	233.460	0	148.4	4	50.2	4	-1E+10	1	-1E+10	1	-1E+10	1	-1E+10	1	-1E+10	1	-1E+10	1
4901784	49	C	11/06/2016	10:49	-132.318	44.801	0	237.20	0	7.0020	0	33.9260	0	26.576	0	235.144	0	147.4	4	49.8	4	-1E+10	1	-1E+10	1	-1E+10	1	-1E+10	1	-1E+10	1	-1E+10	1
4901784	49	C	11/06/2016	10:49	-132.318	44.801	0	239.90	0	6.9520	0	33.9270	0	26.583	0	237.819	0	145.5	4	49.2	4	-1E+10	1	-1E+10	1	-1E+10	1	-1E+10	1	-1E+10	1	-1E+10	1
4901784	49	C	11/06/2016	10:49	-132.318	44.801	0	242.50	0	6.8630	0	33.9270	0	26.595	0	240.395	0	143.9	4	48.5	4	-1E+10	1	-1E+10	1	-1E+10	1	-1E+10	1	-1E+10	1	-1E+10	1
4901784	49	C	11/06/2016	10:49	-132.318	44.801	0	245.20	0	6.8160	0	33.9310	0	26.605	0	243.070	0	142.7	4	48.0	4	-1E+10	1	-1E+10	1	-1E+10	1	-1E+10	1	-1E+10	1	-1E+10	1
4901784	49	C	11/06/2016	10:49	-132.318	44.801	0	247.80	0	6.7960	0	33.9320	0	26.608	0	245.646	0	141.5	4	47.6	4	-1E+10	1	-1E+10	1	-1E+10	1	-1E+10	1	-1E+10	1	-1E+10	1
4901784	49	C	11/06/2016	10:49	-132.318	44.801	0	249.60	0	6.7910	0	33.9330	0	26.610	0	247.429	0	140.9	4	47.4	4	-1E+10	1	-1E+10	1	-1E+10	1	-1E+10	1	-1E+10	1	-1E+10	1
4901784	49	C	11/06/2016	10:49	-132.318	44.801	0	252.30	0	6.7780	0	33.9360	0	26.614	0	250.104	0	139.7	4	47.0	4	-1E+10	1	-1E+10	1	-1E+10	1	-1E+10	1	-1E+10	1	-1E+10	1
4901784	49	C	11/06/2016	10:49	-132.318	44.801	0	255.00	0	6.7730	0	33.9340	0	26.613	0	252.779	0	138.8	4	46.7	4	-1E+10	1	-1E+10	1	-1E+10	1	-1E+10	1	-1E+10	1	-1E+10	1
4901784	49	C	11/06/2016	10:49	-132.318	44.801	0	257.80	0	6.7330	0	33.9350	0	26.619	0	255.553	0	137.6	4	46.2	4	-1E+10	1	-1E+10	1	-1E+10	1	-1E+10	1	-1E+10	1	-1E+10	1
4901784	49	C	11/06/2016	10:49	-132.318	44.801	0	260.40	0	6.6820	0	33.9340	0	26.625	0	258.128	0	136.6	4	45.9	4	-1E+10	1	-1E+10	1	-1E+10	1	-1E+10	1	-1E+10	1	-1E+10	1
4901784	49	C	11/06/2016	10:49	-132.318	44.801	0	262.20	0	6.6730	0	33.9350	0	26.627	0	259.911	0	135.8	4	45.6	4	-1E+10	1	-1E+10	1	-1E+10	1	-1E+10	1	-1E+10	1	-1E+10	1
4901784	49	C	11/06/2016	10:49	-132.318	44.801	0	264.90	0	6.6460	0	33.9340	0	26.630	0	262.586	0	134.8	4	45.2	4	-1E+10	1	-1E+10	1	-1E+10	1	-1E+10	1	-1E+10	1	-1E+10	1
4901784	49	C	11/06/2016	10:49	-132.318	44.801	0	267.70	0	6.6230	0	33.9310	0	26.631	0	265.360	0	133.3	4	44.7	4	-1E+10	1	-1E+10	1	-1E+10	1	-1E+10	1	-1E+10	1	-1E+10	1
4901784	49	C	11/06/2016	10:49	-132.318	44.801	0	269.50	0	6.5870	0	33.9340	0	26.638	0	267.143	0	131.9	4	44.2	4	-1E+10	1	-1E+10	1	-1E+10	1	-1E+10	1	-1E+10	1	-1E+10	1
4901784	49	C	11/06/2016	10:49	-132.318	44.801	0	272.30	0	6.5500	0	33.9350	0	26.644	0	269.917	0	130.2	4	43.6	4	-1E+10	1	-1E+10	1	-1E+10	1	-1E+10	1	-1E+10	1	-1E+10	1
4901784	49	C	11/06/2016	10:49	-132.318	44.801	0	275.00	0	6.4960	0	33.9360	0	26.652	0	272.591	0	128.5	4	42.9	4	-1E+10	1	-1E+10	1	-1E+10	1	-1E+10	1	-1E+10	1	-1E+10	1
4901784	49	C	11/06/2016	10:49	-132.318	44.801	0	277.80	0	6.4520	0	33.9360	0	26.657	0	275.365	0	127.1	4	42.4	4	-1E+10	1	-1E+10	1	-1E+10	1	-1E+10	1	-1E+10	1	-1E+10	1
4901784	49	C	11/06/2016	10:49	-132.318	44.801	0	280.60	0	6.4220	0	33.9360	0	26.661	0	278.138	0	125.8	4	42.0	4	-1E+10	1	-1E+10	1	-1E+10	1	-1E+10	1	-1E+10	1	-1E+10	1
4901784	49	C	11/06/2016	10:49	-132.318	44.801	0	282.40	0	6.4000	0	33.9360	0	26.664	0	279.921	0	125.0	4	41.7	4	-1E+10	1	-1E+10	1	-1E+10	1	-1E+10	1	-1E+10	1	-1E+10	1
4901784	49	C	11/06/2016	10:49	-132.318	44.801	0	285.20	0	6.3310	0	33.9360	0	26.673	0	282.695	0	123.9	4	41.3	4	-1E+10	1	-1E+10	1	-1E+10	1	-1E+10	1	-1E+10	1	-1E+10	1
4901784	49	C	11/06/2016	10:49	-132.318	44.801	0	288.10	0	6.2940	0	33.9350	0	26.677	0	285.568	0	123.0	4	40.9	4	-1E+10	1	-1E+10	1	-1E+10	1	-1E+10	1	-1E+10	1	-1E+10	1
4901784	49	C	11/06/2016	10:49	-132.318	44.801	0	290.00	0	6.2910	0	33.9340	0	26.677	0	287.449	0	122.0	4	40.6	4	-1E+10	1	-1E+10	1	-1E+10	1	-1E+10	1	-1E+10	1	-1E+10	1
4901784	49	C	11/06/2016	10:49	-132.318	44.801	0	292.80	0	6.2660	0	33.9380	0	26.683	0	290.223	0	120.3	4	40.0	4	-1E+10	1	-1E+10	1	-1E+10	1	-1E+10	1	-1E+10	1	-1E+10	1
4901784	49	C	11/06/2016	10:49	-132.318	44.801	0	295.60	0	6.2460	0	33.9370	0	26.685	0	292.996	0	119.0	4	39.6	4	-1E+10	1	-1E+10	1	-1E+10	1	-1E+10	1	-1E+10	1	-1E+10	1
4901784	49	C	11/06/2016	10:49	-132.318	44.801	0	297.50	0	6.2360	0	33.9360	0	26.685	0	294.878	0	118.1	4	39.2	4	-1E+10	1	-1E+10	1	-1E+10	1	-1E+10	1	-1E+10	1	-1E+10	1
4901784	49	C	11/06/2016	10:49	-132.318	44.801	0	299.40	0	6.1890	0	33.9380	0	26.693	0	296.760	0	117.4	4	39.0	4	-1E+10	1	-1E+10	1	-1E+10	1	-1E+10	1	-1E+10	1	-1E+10	1
4901784	49	C	11/06/2016	10:49	-132.318	44.801	0	302.20	0	6.1550	0	33.9380	0	26.697	0	299.533	0	116.3	4	38.6	4	-1E+10	1	-1E+10	1	-1E+10	1	-1E+10	1	-1E+10	1	-1E+10	1
4901784	49	C	11/06/2016	10:49	-132.318	44.801	0	305.00	0	6.1080	0	33.9390	0	26.704	0	302.307	0	115.2	4	38.2	4	-1E+10	1	-1E+10	1	-1E+10	1	-1E+10	1	-1E+10	1	-1E+10	1
4901784	49	C	11/06/2016	10:49	-132.318	44.801	0	306.90	0	6.0990	0	33.9380	0	26.704	0	304.188	0	114.5	4	37.9	4	-1E+10	1	-1E+10	1	-1E+10	1	-1E+10	1	-1E+10	1	-1E+10	1
4901784	49	C	11/06/2016	10:49	-132.318	44.801	0	309.80	0	6.0840	0	33.9380	0	26.706	0	307.061	0	113.1	4	37.5	4	-1E+10	1	-1E+10	1	-1E+10	1	-1E+10	1	-1E+10	1	-1E+10	1
4901784	49	C	11/06/2016	10:49	-132.318	44.801	0	312.60	0	6.0070	0	33.9390	0	26.717	0	309.834	0	111.7	4	36.9	4	-1E+10	1	-1E+10	1	-1E+10	1	-1E+10	1	-1E+10	1	-1E+10	1
4901784	49	C	11/06/2016	10:49	-132.318	44.801	0	314.50	0	5.9890	0	33.9390	0	26.719	0	311.716	0	110.9	4	36.6	4	-1E+10	1	-1E+10	1	-1E+10	1	-1E+10	1	-1E+10	1	-1E+10	1
4901784	49	C	11/06/2016	10:49	-132.318	44.801	0	317.40	0	5.9670	0	33.9370	0	26.720	0	314.588	0	109.6	4	36.2	4	-1E+10	1	-1E+10	1	-1E+10	1	-1E+10	1	-1E+10	1	-1E+10	1
4901784	49	C	11/06/2016	10:49	-132.318	44.801	0	320.20	0	5.9370	0	33.9370	0	26.724	0	317.361	0	107.8	4	35.6	4	-1E+10	1	-1E+10	1	-1E+10	1	-1E+10	1	-1E+10	1	-1E+10	1
4901784	49	C	11/06/2016	10:49	-132.318	44.801	0	322.10	0	5.9020	0	33.9370	0	26.728	0	319.242	0	106.8	4	35.2	4	-1E+10	1	-1E+10	1	-1E+10	1	-1E+10	1	-1E+10	1	-1E+10	1
4901784	49	C	11/06/2016	10:49	-132.318	44.801	0	325.00	0	5.8570	0	33.9390	0	26.736	0	322.114	0	105.2	4	34.6	4	-1E+10	1	-1E+10	1	-1E+10	1	-1E+10	1	-1E+10	1	-1E+10	1
4901784	49	C	11/06/2016	10:49	-132.318	44.801	0	327.80	0	5.8200	0	33.9390	0	26.740	0	324.887	0	103.5	4	34.1	4	-1E+10	1	-1E+10	1	-1E+10	1	-1E+10	1	-1E+10	1	-1E+10	1
4901784	49	C	11/06/2016	10:49	-132.318	44.801	0	329.70	0	5.8040	0	33.9400	0	26.743	0	326.769	0	102.3	4	33.6	4	-1E+10	1	-1E+10	1	-1E+10	1	-1E+10	1	-1E+10	1	-1E+10	1
4901784	49	C	11/06/2016	10:49	-132.318	44.801	0	332.60	0	5.7490	0	33.9440	0	26.753	0	329.641	0	100.8	4	33.1	4	-1E+10	1	-1E+10	1	-1E+10	1	-1E+10	1	-1E+10	1	-1E+10	1
4901784	49	C	11/06/2016	10:49	-132.318	44.801	0	335.30	0	5.7300	0	33.9450	0	26.756	0	332.315	0	99.4	4	32.7	4	-1E+10	1	-1E+10	1	-1E+10	1	-1E+10	1	-1E+10	1	-1E+10	1
4901784	49	C	11/06/2016	10:49	-132.318	44.801	0	337.20	0	5.7310	0	33.9450	0	26.756	0	334.196	0	98.7	4	32.4	4	-1E+10	1	-1E+10	1	-1E+10	1	-1E+10	1	-1E+10	1	-1E+10	1
4901784	49	C	11/06/2016	10:49	-132.318	44.801	0	340.00	0	5.7020	0	33.9450	0	26.760	0	336.969	0	97.7	4	32.1	4	-1E+10	1	-1E+10	1	-1E+10	1	-1E+10	1	-1E+10	1	-1E+10	1
4901784	49	C	11/06/2016	10:49	-132.318	44.801	0	342.80	0	5.6780	0	33.9450	0	26.762	0	339.742	0	96.8	4	31.8	4	-1E+10	1	-1E+10	1	-1E+10	1	-1E+10	1	-1E+10	1	-1E+10	1
4901784	49	C	11/06/2016	10:49	-132.318	44.801	0	344.80	0	5.6480	0	33.9450	0	26.766	0	341.722	0	96.2	4	31.5	4	-1E+10	1	-1E+10	1	-1E+10	1	-1E+10	1	-1E+10	1	-1E+10	1
4901784	49	C	11/06/2016	10:49	-132.318	44.801	0	347.70	0	5.6190	0	33.9450	0	26.770	0	344.594	0	95.2	4	31.2	4	-1E+10	1	-1E+10	1	-1E+10	1	-1E+10	1	-1E+10	1	-1E+10	1
4901784	49	C	11/06/2016	10:49	-132.318	44.801	0	350.60	0	5.5910	0	33.9460	0	26.774	0	347.466	0	94.1	4	30.8	4	-1E+10	1	-1E+10	1	-1E+10	1	-1E+10	1	-1E+10	1	-1E+10	1
4901784	49	C	11/06/2016	10:49	-132.318	44.801	0	352.50	0	5.5680	0	33.9460	0	26.777	0	349.347	0	93.2	4	30.5	4	-1E+10	1	-1E+10	1	-1E+10	1	-1E+10	1	-1E+10	1	-1E+10	1
4901784	49	C	11/06/2016	10:49	-132.318	44.801	0	354.50	0	5.5460	0	33.9470	0	26.780	0	351.328	0	92.4	4	30.2	4	-1E+10	1	-1E+10	1	-1E+10	1	-1E+10	1	-1E+10	1	-1E+10	1
4901784	49	C	11/06/2016	10:49	-132.318	44.801	0	357.40	0	5.5110	0	33.9480	0	26.785	0	354.199	0	91.0	4	29.7	4	-1E+10	1	-1E+10	1	-1E+10	1	-1E+10	1	-1E+10	1	-1E+10	1
4901784	49	C	11/06/2016	10:49	-132.318	44.801	0	360.30	0	5.4880	0	33.9510	0	26.790	0	357.071	0	89.6	4	29.3	4	-1E+10	1	-1E+10	1	-1E+10	1	-1E+10	1	-1E+10	1	-1E+10	1
4901784	49	C	11/06/2016	10:49	-132.318	44.801	0	362.20	0	5.4570	0	33.9520	0	26.795	0	358.952	0	89.0	4	29.1	4	-1E+10	1	-1E+10	1	-1E+10	1	-1E+10	1	-1E+10	1	-1E+10	1
4901784	49	C	11/06/2016	10:49	-132.318	44.801	0	365.20	0	5.4380	0	33.9540	0	26.799	0	361.922	0	87.8	4	28.6	4	-1E+10	1	-1E+10	1	-1E+10	1	-1E+10	1	-1E+10	1	-1E+10	1
4901784	49	C	11/06/2016	10:49	-132.318	44.801	0	368.00	0	5.3950	0	33.9560	0	26.805	0	364.695	0	86.6	4	28.2	4	-1E+10	1	-1E+10	1	-1E+10	1	-1E+10	1	-1E+10	1	-1E+10	1
4901784	49	C	11/06/2016	10:49	-132.318	44.801	0	370.00	0	5.3770	0	33.9570	0	26.808	0	366.675	0	85.7	4	27.9	4	-1E+10	1	-1E+10	1	-1E+10	1	-1E+10	1	-1E+10	1	-1E+10	1
4901784	49	C	11/06/2016	10:49	-132.318	44.801	0	371.90	0	5.3730	0	33.9600	0	26.811	0	368.556	0	84.7	4	27.6	4	-1E+10	1	-1E+10	1	-1E+10	1	-1E+10	1	-1E+10	1	-1E+10	1
4901784	49	C	11/06/2016	10:49	-132.318	44.801	0	374.80	0	5.3490	0	33.9620	0	26.816	0	371.428	0	83.3	4	27.1	4	-1E+10	1	-1E+10	1	-1E+10	1	-1E+10	1	-1E+10	1	-1E+10	1
4901784	49	C	11/06/2016	10:49	-132.318	44.801	0	377.80	0	5.3330	0	33.9630	0	26.818	0	374.398	0	82.0	4	26.7	4	-1E+10	1	-1E+10	1	-1E+10	1	-1E+10	1	-1E+10	1	-1E+10	1
4901784	49	C	11/06/2016	10:49	-132.318	44.801	0	379.70	0	5.3080	0	33.9650	0	26.823	0	376.279	0	81.1	4	26.4	4	-1E+10	1	-1E+10	1	-1E+10	1	-1E+10	1	-1E+10	1	-1E+10	1
4901784	49	C	11/06/2016	10:49	-132.318	44.801	0	382.50	0	5.2910	0	33.9670	0	26.826	0	379.051	0	79.8	4	25.9	4	-1E+10	1	-1E+10	1	-1E+10	1	-1E+10	1	-1E+10	1	-1E+10	1
4901784	49	C	11/06/2016	10:49	-132.318	44.801	0	385.30	0	5.2770	0	33.9710	0	26.831	0	381.824	0	78.1	4	25.4	4	-1E+10	1	-1E+10	1	-1E+10	1	-1E+10	1	-1E+10	1	-1E+10	1
4901784	49	C	11/06/2016	10:49	-132.318	44.801	0	387.20	0	5.2770	0	33.9740	0	26.834	0	383.705	0	76.9	4	25.0	4	-1E+10	1	-1E+10	1	-1E+10	1	-1E+10	1	-1E+10	1	-1E+10	1
4901784	49	C	11/06/2016	10:49	-132.318	44.801	0	390.00	0	5.2710	0	33.9750	0	26.835	0	386.477	0	75.5	4	24.5	4	-1E+10	1	-1E+10	1	-1E+10	1	-1E+10	1	-1E+10	1	-1E+10	1
4901784	49	C	11/06/2016	10:49	-132.318	44.801	0	392.80	0	5.2580	0	33.9780	0	26.839	0	389.249	0	73.4	4	23.9	4	-1E+10	1	-1E+10	1	-1E+10	1	-1E+10	1	-1E+10	1	-1E+10	1
4901784	49	C	11/06/2016	10:49	-132.318	44.801	0	394.70	0	5.2530	0	33.9810	0	26.842	0	391.130	0	72.0	4	23.4	4	-1E+10	1	-1E+10	1	-1E+10	1	-1E+10	1	-1E+10	1	-1E+10	1
4901784	49	C	11/06/2016	10:49	-132.318	44.801	0	397.50	0	5.2490	0	33.9850	0	26.846	0	393.902	0	70.1	4	22.8	4	-1E+10	1	-1E+10	1	-1E+10	1	-1E+10	1	-1E+10	1	-1E+10	1
4901784	49	C	11/06/2016	10:49	-132.318	44.801	0	400.40	0	5.2120	0	33.9920	0	26.855	0	396.773	0	68.0	4	22.1	4	-1E+10	1	-1E+10	1	-1E+10	1	-1E+10	1	-1E+10	1	-1E+10	1
4901784	49	C	11/06/2016	10:49	-132.318	44.801	0	402.30	0	5.2100	0	33.9950	0	26.858	0	398.654	0	66.9	4	21.7	4	-1E+10	1	-1E+10	1	-1E+10	1	-1E+10	1	-1E+10	1	-1E+10	1
4901784	49	C	11/06/2016	10:49	-132.318	44.801	0	405.20	0	5.1980	0	33.9980	0	26.862	0	401.525	0	65.4	4	21.2	4	-1E+10	1	-1E+10	1	-1E+10	1	-1E+10	1	-1E+10	1	-1E+10	1
4901784	49	C	11/06/2016	10:49	-132.318	44.801	0	408.00	0	5.1780	0	34.0010	0	26.867	0	404.297	0	64.2	4	20.8	4	-1E+10	1	-1E+10	1	-1E+10	1	-1E+10	1	-1E+10	1	-1E+10	1
4901784	49	C	11/06/2016	10:49	-132.318	44.801	0	409.90	0	5.1690	0	34.0020	0	26.868	0	406.178	0	63.4	4	20.5	4	-1E+10	1	-1E+10	1	-1E+10	1	-1E+10	1	-1E+10	1	-1E+10	1
4901784	49	C	11/06/2016	10:49	-132.318	44.801	0	412.70	0	5.1590	0	34.0070	0	26.874	0	408.949	0	62.1	4	20.1	4	-1E+10	1	-1E+10	1	-1E+10	1	-1E+10	1	-1E+10	1	-1E+10	1
4901784	49	C	11/06/2016	10:49	-132.318	44.801	0	415.60	0	5.1440	0	34.0110	0	26.879	0	411.820	0	60.9	4	19.7	4	-1E+10	1	-1E+10	1	-1E+10	1	-1E+10	1	-1E+10	1	-1E+10	1
4901784	49	C	11/06/2016	10:49	-132.318	44.801	0	417.50	0	5.1390	0	34.0110	0	26.879	0	413.701	0	60.3	4	19.5	4	-1E+10	1	-1E+10	1	-1E+10	1	-1E+10	1	-1E+10	1	-1E+10	1
4901784	49	C	11/06/2016	10:49	-132.318	44.801	0	419.50	0	5.1230	0	34.0140	0	26.883	0	415.681	0	59.7	4	19.3	4	-1E+10	1	-1E+10	1	-1E+10	1	-1E+10	1	-1E+10	1	-1E+10	1
4901784	49	C	11/06/2016	10:49	-132.318	44.801	0	422.40	0	5.1160	0	34.0170	0	26.887	0	418.551	0	59.1	4	19.1	4	-1E+10	1	-1E+10	1	-1E+10	1	-1E+10	1	-1E+10	1	-1E+10	1
4901784	49	C	11/06/2016	10:49	-132.318	44.801	0	425.20	0	5.0950	0	34.0170	0	26.889	0	421.323	0	58.6	4	19.0	4	-1E+10	1	-1E+10	1	-1E+10	1	-1E+10	1	-1E+10	1	-1E+10	1
4901784	49	C	11/06/2016	10:49	-132.318	44.801	0	427.10	0	5.0880	0	34.0170	0	26.890	0	423.204	0	58.1	4	18.8	4	-1E+10	1	-1E+10	1	-1E+10	1	-1E+10	1	-1E+10	1	-1E+10	1
4901784	49	C	11/06/2016	10:49	-132.318	44.801	0	429.90	0	5.0760	0	34.0200	0	26.894	0	425.975	0	57.1	4	18.5	4	-1E+10	1	-1E+10	1	-1E+10	1	-1E+10	1	-1E+10	1	-1E+10	1
4901784	49	C	11/06/2016	10:49	-132.318	44.801	0	432.90	0	5.0600	0	34.0210	0	26.896	0	428.945	0	56.3	4	18.2	4	-1E+10	1	-1E+10	1	-1E+10	1	-1E+10	1	-1E+10	1	-1E+10	1
4901784	49	C	11/06/2016	10:49	-132.318	44.801	0	434.80	0	5.0270	0	34.0240	0	26.902	0	430.826	0	55.8	4	18.0	4	-1E+10	1	-1E+10	1	-1E+10	1	-1E+10	1	-1E+10	1	-1E+10	1
4901784	49	C	11/06/2016	10:49	-132.318	44.801	0	437.70	0	4.9960	0	34.0270	0	26.908	0	433.696	0	55.3	4	17.9	4	-1E+10	1	-1E+10	1	-1E+10	1	-1E+10	1	-1E+10	1	-1E+10	1
4901784	49	C	11/06/2016	10:49	-132.318	44.801	0	440.60	0	4.9830	0	34.0290	0	26.911	0	436.566	0	55.0	4	17.7	4	-1E+10	1	-1E+10	1	-1E+10	1	-1E+10	1	-1E+10	1	-1E+10	1
4901784	49	C	11/06/2016	10:49	-132.318	44.801	0	442.60	0	4.9720	0	34.0300	0	26.913	0	438.546	0	54.9	4	17.7	4	-1E+10	1	-1E+10	1	-1E+10	1	-1E+10	1	-1E+10	1	-1E+10	1
4901784	49	C	11/06/2016	10:49	-132.318	44.801	0	444.60	0	4.9700	0	34.0300	0	26.914	0	440.526	0	55.0	4	17.7	4	-1E+10	1	-1E+10	1	-1E+10	1	-1E+10	1	-1E+10	1	-1E+10	1
4901784	49	C	11/06/2016	10:49	-132.318	44.801	0	447.50	0	4.9530	0	34.0270	0	26.913	0	443.396	0	55.0	4	17.7	4	-1E+10	1	-1E+10	1	-1E+10	1	-1E+10	1	-1E+10	1	-1E+10	1
4901784	49	C	11/06/2016	10:49	-132.318	44.801	0	450.40	0	4.9130	0	34.0280	0	26.919	0	446.266	0	54.6	4	17.6	4	-1E+10	1	-1E+10	1	-1E+10	1	-1E+10	1	-1E+10	1	-1E+10	1
4901784	49	C	11/06/2016	10:49	-132.318	44.801	0	452.30	0	4.9030	0	34.0270	0	26.919	0	448.147	0	54.0	4	17.4	4	-1E+10	1	-1E+10	1	-1E+10	1	-1E+10	1	-1E+10	1	-1E+10	1
4901784	49	C	11/06/2016	10:49	-132.318	44.801	0	455.20	0	4.8990	0	34.0310	0	26.923	0	451.017	0	53.2	4	17.2	4	-1E+10	1	-1E+10	1	-1E+10	1	-1E+10	1	-1E+10	1	-1E+10	1
4901784	49	C	11/06/2016	10:49	-132.318	44.801	0	458.10	0	4.8810	0	34.0330	0	26.926	0	453.887	0	52.7	4	17.0	4	-1E+10	1	-1E+10	1	-1E+10	1	-1E+10	1	-1E+10	1	-1E+10	1
4901784	49	C	11/06/2016	10:49	-132.318	44.801	0	460.10	0	4.8770	0	34.0330	0	26.927	0	455.867	0	52.2	4	16.8	4	-1E+10	1	-1E+10	1	-1E+10	1	-1E+10	1	-1E+10	1	-1E+10	1
4901784	49	C	11/06/2016	10:49	-132.318	44.801	0	462.50	0	4.8490	0	34.0340	0	26.931	0	458.242	0	51.5	4	16.6	4	-1E+10	1	-1E+10	1	-1E+10	1	-1E+10	1	-1E+10	1	-1E+10	1
4901784	49	C	11/06/2016	10:49	-132.318	44.801	0	465.30	0	4.8340	0	34.0390	0	26.936	0	461.013	0	50.3	4	16.2	4	-1E+10	1	-1E+10	1	-1E+10	1	-1E+10	1	-1E+10	1	-1E+10	1
4901784	49	C	11/06/2016	10:49	-132.318	44.801	0	467.80	0	4.8430	0	34.0410	0	26.937	0	463.487	0	49.4	4	15.9	4	-1E+10	1	-1E+10	1	-1E+10	1	-1E+10	1	-1E+10	1	-1E+10	1
4901784	49	C	11/06/2016	10:49	-132.318	44.801	0	470.30	0	4.8010	0	34.0430	0	26.943	0	465.961	0	48.9	4	15.7	4	-1E+10	1	-1E+10	1	-1E+10	1	-1E+10	1	-1E+10	1	-1E+10	1
4901784	49	C	11/06/2016	10:49	-132.318	44.801	0	472.80	0	4.7550	0	34.0470	0	26.952	0	468.435	0	48.3	4	15.5	4	-1E+10	1	-1E+10	1	-1E+10	1	-1E+10	1	-1E+10	1	-1E+10	1
4901784	49	C	11/06/2016	10:49	-132.318	44.801	0	475.40	0	4.7450	0	34.0470	0	26.953	0	471.008	0	47.9	4	15.4	4	-1E+10	1	-1E+10	1	-1E+10	1	-1E+10	1	-1E+10	1	-1E+10	1
4901784	49	C	11/06/2016	10:49	-132.318	44.801	0	477.90	0	4.7430	0	34.0480	0	26.954	0	473.482	0	47.4	4	15.2	4	-1E+10	1	-1E+10	1	-1E+10	1	-1E+10	1	-1E+10	1	-1E+10	1
4901784	49	C	11/06/2016	10:49	-132.318	44.801	0	480.40	0	4.7410	0	34.0480	0	26.954	0	475.956	0	46.6	4	15.0	4	-1E+10	1	-1E+10	1	-1E+10	1	-1E+10	1	-1E+10	1	-1E+10	1
4901784	49	C	11/06/2016	10:49	-132.318	44.801	0	482.90	0	4.7310	0	34.0490	0	26.956	0	478.430	0	45.6	4	14.6	4	-1E+10	1	-1E+10	1	-1E+10	1	-1E+10	1	-1E+10	1	-1E+10	1
4901784	49	C	11/06/2016	10:49	-132.318	44.801	0	484.60	0	4.7130	0	34.0530	0	26.961	0	480.113	0	44.9	4	14.4	4	-1E+10	1	-1E+10	1	-1E+10	1	-1E+10	1	-1E+10	1	-1E+10	1
4901784	49	C	11/06/2016	10:49	-132.318	44.801	0	487.10	0	4.6970	0	34.0560	0	26.965	0	482.587	0	44.3	4	14.2	4	-1E+10	1	-1E+10	1	-1E+10	1	-1E+10	1	-1E+10	1	-1E+10	1
4901784	49	C	11/06/2016	10:49	-132.318	44.801	0	489.60	0	4.6810	0	34.0580	0	26.969	0	485.061	0	43.7	4	14.0	4	-1E+10	1	-1E+10	1	-1E+10	1	-1E+10	1	-1E+10	1	-1E+10	1
4901784	49	C	11/06/2016	10:49	-132.318	44.801	0	492.10	0	4.6630	0	34.0610	0	26.973	0	487.535	0	43.0	4	13.8	4	-1E+10	1	-1E+10	1	-1E+10	1	-1E+10	1	-1E+10	1	-1E+10	1
4901784	49	C	11/06/2016	10:49	-132.318	44.801	0	494.60	0	4.6490	0	34.0640	0	26.977	0	490.008	0	42.4	4	13.6	4	-1E+10	1	-1E+10	1	-1E+10	1	-1E+10	1	-1E+10	1	-1E+10	1
4901784	49	C	11/06/2016	10:49	-132.318	44.801	0	497.20	0	4.6420	0	34.0650	0	26.978	0	492.581	0	41.8	4	13.4	4	-1E+10	1	-1E+10	1	-1E+10	1	-1E+10	1	-1E+10	1	-1E+10	1
4901784	49	C	11/06/2016	10:49	-132.318	44.801	0	499.70	0	4.6320	0	34.0670	0	26.981	0	495.055	0	41.2	4	13.2	4	-1E+10	1	-1E+10	1	-1E+10	1	-1E+10	1	-1E+10	1	-1E+10	1
4901784	49	C	11/06/2016	10:49	-132.318	44.801	0	504.90	0	4.6040	0	34.0720	0	26.988	0	500.200	0	40.1	4	12.8	4	-1E+10	1	-1E+10	1	-1E+10	1	-1E+10	1	-1E+10	1	-1E+10	1
4901784	49	C	11/06/2016	10:49	-132.318	44.801	0	510.00	0	4.5920	0	34.0740	0	26.991	0	505.247	0	38.9	4	12.4	4	-1E+10	1	-1E+10	1	-1E+10	1	-1E+10	1	-1E+10	1	-1E+10	1
4901784	49	C	11/06/2016	10:49	-132.318	44.801	0	515.10	0	4.5650	0	34.0820	0	27.000	0	510.293	0	37.1	4	11.9	4	-1E+10	1	-1E+10	1	-1E+10	1	-1E+10	1	-1E+10	1	-1E+10	1
4901784	49	C	11/06/2016	10:49	-132.318	44.801	0	520.20	0	4.5500	0	34.0890	0	27.008	0	515.339	0	35.7	4	11.4	4	-1E+10	1	-1E+10	1	-1E+10	1	-1E+10	1	-1E+10	1	-1E+10	1
4901784	49	C	11/06/2016	10:49	-132.318	44.801	0	525.40	0	4.5370	0	34.0950	0	27.014	0	520.484	0	34.4	4	11.0	4	-1E+10	1	-1E+10	1	-1E+10	1	-1E+10	1	-1E+10	1	-1E+10	1
4901784	49	C	11/06/2016	10:49	-132.318	44.801	0	530.50	0	4.5270	0	34.1010	0	27.020	0	525.530	0	33.2	4	10.6	4	-1E+10	1	-1E+10	1	-1E+10	1	-1E+10	1	-1E+10	1	-1E+10	1
4901784	49	C	11/06/2016	10:49	-132.318	44.801	0	534.90	0	4.5150	0	34.1060	0	27.025	0	529.883	0	32.4	4	10.3	4	-1E+10	1	-1E+10	1	-1E+10	1	-1E+10	1	-1E+10	1	-1E+10	1
4901784	49	C	11/06/2016	10:49	-132.318	44.801	0	539.40	0	4.5070	0	34.1090	0	27.028	0	534.335	0	31.8	4	10.2	4	-1E+10	1	-1E+10	1	-1E+10	1	-1E+10	1	-1E+10	1	-1E+10	1
4901784	49	C	11/06/2016	10:49	-132.318	44.801	0	544.80	0	4.4830	0	34.1120	0	27.033	0	539.677	0	31.2	4	10.0	4	-1E+10	1	-1E+10	1	-1E+10	1	-1E+10	1	-1E+10	1	-1E+10	1
4901784	49	C	11/06/2016	10:49	-132.318	44.801	0	550.10	0	4.4610	0	34.1160	0	27.039	0	544.920	0	30.2	4	9.6	4	-1E+10	1	-1E+10	1	-1E+10	1	-1E+10	1	-1E+10	1	-1E+10	1
4901784	49	C	11/06/2016	10:49	-132.318	44.801	0	555.50	0	4.4520	0	34.1200	0	27.043	0	550.262	0	28.8	4	9.2	4	-1E+10	1	-1E+10	1	-1E+10	1	-1E+10	1	-1E+10	1	-1E+10	1
4901784	49	C	11/06/2016	10:49	-132.318	44.801	0	560.00	0	4.4490	0	34.1280	0	27.050	0	554.714	0	27.3	4	8.7	4	-1E+10	1	-1E+10	1	-1E+10	1	-1E+10	1	-1E+10	1	-1E+10	1
4901784	49	C	11/06/2016	10:49	-132.318	44.801	0	565.40	0	4.4440	0	34.1370	0	27.058	0	560.056	0	25.9	4	8.3	4	-1E+10	1	-1E+10	1	-1E+10	1	-1E+10	1	-1E+10	1	-1E+10	1
4901784	49	C	11/06/2016	10:49	-132.318	44.801	0	570.50	0	4.4300	0	34.1430	0	27.064	0	565.101	0	25.2	4	8.0	4	-1E+10	1	-1E+10	1	-1E+10	1	-1E+10	1	-1E+10	1	-1E+10	1
4901784	49	C	11/06/2016	10:49	-132.318	44.801	0	575.30	0	4.4150	0	34.1460	0	27.068	0	569.849	0	24.6	4	7.9	4	-1E+10	1	-1E+10	1	-1E+10	1	-1E+10	1	-1E+10	1	-1E+10	1
4901784	49	C	11/06/2016	10:49	-132.318	44.801	0	580.10	0	4.3950	0	34.1500	0	27.073	0	574.597	0	24.0	4	7.6	4	-1E+10	1	-1E+10	1	-1E+10	1	-1E+10	1	-1E+10	1	-1E+10	1
4901784	49	C	11/06/2016	10:49	-132.318	44.801	0	585.10	0	4.3730	0	34.1550	0	27.080	0	579.542	0	23.3	4	7.4	4	-1E+10	1	-1E+10	1	-1E+10	1	-1E+10	1	-1E+10	1	-1E+10	1
4901784	49	C	11/06/2016	10:49	-132.318	44.801	0	590.10	0	4.3530	0	34.1600	0	27.086	0	584.488	0	22.7	4	7.2	4	-1E+10	1	-1E+10	1	-1E+10	1	-1E+10	1	-1E+10	1	-1E+10	1
4901784	49	C	11/06/2016	10:49	-132.318	44.801	0	595.20	0	4.3390	0	34.1650	0	27.091	0	589.532	0	22.1	4	7.0	4	-1E+10	1	-1E+10	1	-1E+10	1	-1E+10	1	-1E+10	1	-1E+10	1
4901784	49	C	11/06/2016	10:49	-132.318	44.801	0	600.20	0	4.3310	0	34.1680	0	27.095	0	594.477	0	21.5	4	6.9	4	-1E+10	1	-1E+10	1	-1E+10	1	-1E+10	1	-1E+10	1	-1E+10	1
4901784	49	C	11/06/2016	10:49	-132.318	44.801	0	605.30	0	4.3280	0	34.1710	0	27.097	0	599.521	0	20.9	4	6.6	4	-1E+10	1	-1E+10	1	-1E+10	1	-1E+10	1	-1E+10	1	-1E+10	1
4901784	49	C	11/06/2016	10:49	-132.318	44.801	0	610.50	0	4.3130	0	34.1770	0	27.104	0	604.664	0	20.0	4	6.4	4	-1E+10	1	-1E+10	1	-1E+10	1	-1E+10	1	-1E+10	1	-1E+10	1
4901784	49	C	11/06/2016	10:49	-132.318	44.801	0	615.60	0	4.2820	0	34.1850	0	27.113	0	609.708	0	19.3	4	6.1	4	-1E+10	1	-1E+10	1	-1E+10	1	-1E+10	1	-1E+10	1	-1E+10	1
4901784	49	C	11/06/2016	10:49	-132.318	44.801	0	620.70	0	4.2660	0	34.1910	0	27.120	0	614.751	0	18.8	4	6.0	4	-1E+10	1	-1E+10	1	-1E+10	1	-1E+10	1	-1E+10	1	-1E+10	1
4901784	49	C	11/06/2016	10:49	-132.318	44.801	0	625.00	0	4.2490	0	34.1950	0	27.125	0	619.004	0	18.5	4	5.9	4	-1E+10	1	-1E+10	1	-1E+10	1	-1E+10	1	-1E+10	1	-1E+10	1
4901784	49	C	11/06/2016	10:49	-132.318	44.801	0	629.30	0	4.2270	0	34.1990	0	27.130	0	623.256	0	18.1	4	5.8	4	-1E+10	1	-1E+10	1	-1E+10	1	-1E+10	1	-1E+10	1	-1E+10	1
4901784	49	C	11/06/2016	10:49	-132.318	44.801	0	634.60	0	4.2100	0	34.2040	0	27.136	0	628.497	0	17.7	4	5.6	4	-1E+10	1	-1E+10	1	-1E+10	1	-1E+10	1	-1E+10	1	-1E+10	1
4901784	49	C	11/06/2016	10:49	-132.318	44.801	0	639.80	0	4.1950	0	34.2080	0	27.141	0	633.639	0	17.4	4	5.5	4	-1E+10	1	-1E+10	1	-1E+10	1	-1E+10	1	-1E+10	1	-1E+10	1
4901784	49	C	11/06/2016	10:49	-132.318	44.801	0	645.20	0	4.1790	0	34.2120	0	27.146	0	638.979	0	17.2	4	5.4	4	-1E+10	1	-1E+10	1	-1E+10	1	-1E+10	1	-1E+10	1	-1E+10	1
4901784	49	C	11/06/2016	10:49	-132.318	44.801	0	650.70	0	4.1700	0	34.2140	0	27.148	0	644.418	0	17.0	4	5.4	4	-1E+10	1	-1E+10	1	-1E+10	1	-1E+10	1	-1E+10	1	-1E+10	1
4901784	49	C	11/06/2016	10:49	-132.318	44.801	0	655.20	0	4.1640	0	34.2160	0	27.151	0	648.867	0	16.9	4	5.4	4	-1E+10	1	-1E+10	1	-1E+10	1	-1E+10	1	-1E+10	1	-1E+10	1
4901784	49	C	11/06/2016	10:49	-132.318	44.801	0	659.70	0	4.1550	0	34.2170	0	27.152	0	653.317	0	16.9	4	5.3	4	-1E+10	1	-1E+10	1	-1E+10	1	-1E+10	1	-1E+10	1	-1E+10	1
4901784	49	C	11/06/2016	10:49	-132.318	44.801	0	665.20	0	4.1320	0	34.2210	0	27.158	0	658.755	0	16.7	4	5.3	4	-1E+10	1	-1E+10	1	-1E+10	1	-1E+10	1	-1E+10	1	-1E+10	1
4901784	49	C	11/06/2016	10:49	-132.318	44.801	0	670.70	0	4.1250	0	34.2250	0	27.162	0	664.193	0	16.5	4	5.2	4	-1E+10	1	-1E+10	1	-1E+10	1	-1E+10	1	-1E+10	1	-1E+10	1
4901784	49	C	11/06/2016	10:49	-132.318	44.801	0	675.30	0	4.1240	0	34.2250	0	27.162	0	668.741	0	16.4	4	5.2	4	-1E+10	1	-1E+10	1	-1E+10	1	-1E+10	1	-1E+10	1	-1E+10	1
4901784	49	C	11/06/2016	10:49	-132.318	44.801	0	680.60	0	4.1150	0	34.2270	0	27.165	0	673.981	0	16.2	4	5.1	4	-1E+10	1	-1E+10	1	-1E+10	1	-1E+10	1	-1E+10	1	-1E+10	1
4901784	49	C	11/06/2016	10:49	-132.318	44.801	0	685.60	0	4.0950	0	34.2320	0	27.171	0	678.924	0	15.9	4	5.0	4	-1E+10	1	-1E+10	1	-1E+10	1	-1E+10	1	-1E+10	1	-1E+10	1
4901784	49	C	11/06/2016	10:49	-132.318	44.801	0	690.30	0	4.0880	0	34.2350	0	27.174	0	683.570	0	15.5	4	4.9	4	-1E+10	1	-1E+10	1	-1E+10	1	-1E+10	1	-1E+10	1	-1E+10	1
4901784	49	C	11/06/2016	10:49	-132.318	44.801	0	695.00	0	4.0740	0	34.2390	0	27.179	0	688.217	0	15.2	4	4.8	4	-1E+10	1	-1E+10	1	-1E+10	1	-1E+10	1	-1E+10	1	-1E+10	1
4901784	49	C	11/06/2016	10:49	-132.318	44.801	0	699.80	0	4.0550	0	34.2430	0	27.184	0	692.962	0	15.1	4	4.8	4	-1E+10	1	-1E+10	1	-1E+10	1	-1E+10	1	-1E+10	1	-1E+10	1
4901784	49	C	11/06/2016	10:49	-132.318	44.801	0	704.60	0	4.0510	0	34.2440	0	27.185	0	697.707	0	14.9	4	4.7	4	-1E+10	1	-1E+10	1	-1E+10	1	-1E+10	1	-1E+10	1	-1E+10	1
4901784	49	C	11/06/2016	10:49	-132.318	44.801	0	709.40	0	4.0350	0	34.2490	0	27.191	0	702.452	0	14.6	4	4.6	4	-1E+10	1	-1E+10	1	-1E+10	1	-1E+10	1	-1E+10	1	-1E+10	1
4901784	49	C	11/06/2016	10:49	-132.318	44.801	0	714.40	0	4.0270	0	34.2510	0	27.193	0	707.395	0	14.4	4	4.6	4	-1E+10	1	-1E+10	1	-1E+10	1	-1E+10	1	-1E+10	1	-1E+10	1
4901784	49	C	11/06/2016	10:49	-132.318	44.801	0	719.30	0	4.0100	0	34.2550	0	27.198	0	712.238	0	14.2	4	4.5	4	-1E+10	1	-1E+10	1	-1E+10	1	-1E+10	1	-1E+10	1	-1E+10	1
4901784	49	C	11/06/2016	10:49	-132.318	44.801	0	724.30	0	3.9860	0	34.2620	0	27.206	0	717.180	0	13.9	4	4.4	4	-1E+10	1	-1E+10	1	-1E+10	1	-1E+10	1	-1E+10	1	-1E+10	1
4901784	49	C	11/06/2016	10:49	-132.318	44.801	0	729.30	0	3.9690	0	34.2670	0	27.212	0	722.123	0	13.7	4	4.3	4	-1E+10	1	-1E+10	1	-1E+10	1	-1E+10	1	-1E+10	1	-1E+10	1
4901784	49	C	11/06/2016	10:49	-132.318	44.801	0	734.30	0	3.9640	0	34.2690	0	27.214	0	727.065	0	13.5	4	4.3	4	-1E+10	1	-1E+10	1	-1E+10	1	-1E+10	1	-1E+10	1	-1E+10	1
4901784	49	C	11/06/2016	10:49	-132.318	44.801	0	739.40	0	3.9510	0	34.2730	0	27.218	0	732.106	0	13.3	4	4.2	4	-1E+10	1	-1E+10	1	-1E+10	1	-1E+10	1	-1E+10	1	-1E+10	1
4901784	49	C	11/06/2016	10:49	-132.318	44.801	0	744.50	0	3.9350	0	34.2780	0	27.224	0	737.146	0	13.1	4	4.1	4	-1E+10	1	-1E+10	1	-1E+10	1	-1E+10	1	-1E+10	1	-1E+10	1
4901784	49	C	11/06/2016	10:49	-132.318	44.801	0	749.60	0	3.9180	0	34.2820	0	27.229	0	742.187	0	13.0	4	4.1	4	-1E+10	1	-1E+10	1	-1E+10	1	-1E+10	1	-1E+10	1	-1E+10	1
4901784	49	C	11/06/2016	10:49	-132.318	44.801	0	754.70	0	3.9100	0	34.2850	0	27.232	0	747.227	0	12.9	4	4.1	4	-1E+10	1	-1E+10	1	-1E+10	1	-1E+10	1	-1E+10	1	-1E+10	1
4901784	49	C	11/06/2016	10:49	-132.318	44.801	0	759.80	0	3.9060	0	34.2860	0	27.234	0	752.267	0	12.7	4	4.0	4	-1E+10	1	-1E+10	1	-1E+10	1	-1E+10	1	-1E+10	1	-1E+10	1
4901784	49	C	11/06/2016	10:49	-132.318	44.801	0	764.90	0	3.8860	0	34.2910	0	27.240	0	757.308	0	12.6	4	4.0	4	-1E+10	1	-1E+10	1	-1E+10	1	-1E+10	1	-1E+10	1	-1E+10	1
4901784	49	C	11/06/2016	10:49	-132.318	44.801	0	770.00	0	3.8690	0	34.2960	0	27.245	0	762.348	0	12.4	4	3.9	4	-1E+10	1	-1E+10	1	-1E+10	1	-1E+10	1	-1E+10	1	-1E+10	1
4901784	49	C	11/06/2016	10:49	-132.318	44.801	0	775.20	0	3.8620	0	34.3000	0	27.249	0	767.487	0	12.3	4	3.9	4	-1E+10	1	-1E+10	1	-1E+10	1	-1E+10	1	-1E+10	1	-1E+10	1
4901784	49	C	11/06/2016	10:49	-132.318	44.801	0	780.30	0	3.8530	0	34.3030	0	27.253	0	772.526	0	12.2	4	3.8	4	-1E+10	1	-1E+10	1	-1E+10	1	-1E+10	1	-1E+10	1	-1E+10	1
4901784	49	C	11/06/2016	10:49	-132.318	44.801	0	785.50	0	3.8400	0	34.3080	0	27.258	0	777.665	0	12.0	4	3.8	4	-1E+10	1	-1E+10	1	-1E+10	1	-1E+10	1	-1E+10	1	-1E+10	1
4901784	49	C	11/06/2016	10:49	-132.318	44.801	0	790.70	0	3.8300	0	34.3110	0	27.261	0	782.803	0	11.9	4	3.8	4	-1E+10	1	-1E+10	1	-1E+10	1	-1E+10	1	-1E+10	1	-1E+10	1
4901784	49	C	11/06/2016	10:49	-132.318	44.801	0	795.00	0	3.8230	0	34.3140	0	27.264	0	787.052	0	11.8	4	3.7	4	-1E+10	1	-1E+10	1	-1E+10	1	-1E+10	1	-1E+10	1	-1E+10	1
4901784	49	C	11/06/2016	10:49	-132.318	44.801	0	799.40	0	3.8150	0	34.3160	0	27.267	0	791.400	0	11.8	4	3.7	4	-1E+10	1	-1E+10	1	-1E+10	1	-1E+10	1	-1E+10	1	-1E+10	1
4901784	49	C	11/06/2016	10:49	-132.318	44.801	0	804.60	0	3.8030	0	34.3190	0	27.270	0	796.538	0	11.8	4	3.7	4	-1E+10	1	-1E+10	1	-1E+10	1	-1E+10	1	-1E+10	1	-1E+10	1
4901784	49	C	11/06/2016	10:49	-132.318	44.801	0	809.80	0	3.7950	0	34.3200	0	27.272	0	801.676	0	11.7	4	3.7	4	-1E+10	1	-1E+10	1	-1E+10	1	-1E+10	1	-1E+10	1	-1E+10	1
4901784	49	C	11/06/2016	10:49	-132.318	44.801	0	815.00	0	3.7770	0	34.3230	0	27.276	0	806.814	0	11.7	4	3.7	4	-1E+10	1	-1E+10	1	-1E+10	1	-1E+10	1	-1E+10	1	-1E+10	1
4901784	49	C	11/06/2016	10:49	-132.318	44.801	0	820.30	0	3.7700	0	34.3240	0	27.278	0	812.050	0	11.6	4	3.7	4	-1E+10	1	-1E+10	1	-1E+10	1	-1E+10	1	-1E+10	1	-1E+10	1
4901784	49	C	11/06/2016	10:49	-132.318	44.801	0	825.60	0	3.7580	0	34.3280	0	27.282	0	817.286	0	11.6	4	3.6	4	-1E+10	1	-1E+10	1	-1E+10	1	-1E+10	1	-1E+10	1	-1E+10	1
4901784	49	C	11/06/2016	10:49	-132.318	44.801	0	829.90	0	3.7490	0	34.3300	0	27.285	0	821.535	0	11.6	4	3.6	4	-1E+10	1	-1E+10	1	-1E+10	1	-1E+10	1	-1E+10	1	-1E+10	1
4901784	49	C	11/06/2016	10:49	-132.318	44.801	0	834.20	0	3.7380	0	34.3320	0	27.287	0	825.783	0	11.5	4	3.6	4	-1E+10	1	-1E+10	1	-1E+10	1	-1E+10	1	-1E+10	1	-1E+10	1
4901784	49	C	11/06/2016	10:49	-132.318	44.801	0	839.50	0	3.7240	0	34.3350	0	27.291	0	831.019	0	11.5	4	3.6	4	-1E+10	1	-1E+10	1	-1E+10	1	-1E+10	1	-1E+10	1	-1E+10	1
4901784	49	C	11/06/2016	10:49	-132.318	44.801	0	844.80	0	3.7110	0	34.3400	0	27.297	0	836.255	0	11.4	4	3.6	4	-1E+10	1	-1E+10	1	-1E+10	1	-1E+10	1	-1E+10	1	-1E+10	1
4901784	49	C	11/06/2016	10:49	-132.318	44.801	0	850.20	0	3.6960	0	34.3430	0	27.300	0	841.589	0	11.4	4	3.6	4	-1E+10	1	-1E+10	1	-1E+10	1	-1E+10	1	-1E+10	1	-1E+10	1
4901784	49	C	11/06/2016	10:49	-132.318	44.801	0	855.40	0	3.6860	0	34.3450	0	27.303	0	846.726	0	11.4	4	3.6	4	-1E+10	1	-1E+10	1	-1E+10	1	-1E+10	1	-1E+10	1	-1E+10	1
4901784	49	C	11/06/2016	10:49	-132.318	44.801	0	860.70	0	3.6730	0	34.3480	0	27.307	0	851.961	0	11.4	4	3.6	4	-1E+10	1	-1E+10	1	-1E+10	1	-1E+10	1	-1E+10	1	-1E+10	1
4901784	49	C	11/06/2016	10:49	-132.318	44.801	0	865.10	0	3.6600	0	34.3520	0	27.311	0	856.308	0	11.4	4	3.6	4	-1E+10	1	-1E+10	1	-1E+10	1	-1E+10	1	-1E+10	1	-1E+10	1
4901784	49	C	11/06/2016	10:49	-132.318	44.801	0	869.50	0	3.6470	0	34.3550	0	27.315	0	860.654	0	11.4	4	3.6	4	-1E+10	1	-1E+10	1	-1E+10	1	-1E+10	1	-1E+10	1	-1E+10	1
4901784	49	C	11/06/2016	10:49	-132.318	44.801	0	874.90	0	3.6330	0	34.3570	0	27.318	0	865.988	0	11.4	4	3.6	4	-1E+10	1	-1E+10	1	-1E+10	1	-1E+10	1	-1E+10	1	-1E+10	1
4901784	49	C	11/06/2016	10:49	-132.318	44.801	0	880.10	0	3.6140	0	34.3610	0	27.323	0	871.124	0	11.4	4	3.6	4	-1E+10	1	-1E+10	1	-1E+10	1	-1E+10	1	-1E+10	1	-1E+10	1
4901784	49	C	11/06/2016	10:49	-132.318	44.801	0	885.40	0	3.6120	0	34.3620	0	27.324	0	876.359	0	11.4	4	3.6	4	-1E+10	1	-1E+10	1	-1E+10	1	-1E+10	1	-1E+10	1	-1E+10	1
4901784	49	C	11/06/2016	10:49	-132.318	44.801	0	889.90	0	3.6060	0	34.3650	0	27.327	0	880.804	0	11.4	4	3.6	4	-1E+10	1	-1E+10	1	-1E+10	1	-1E+10	1	-1E+10	1	-1E+10	1
4901784	49	C	11/06/2016	10:49	-132.318	44.801	0	894.30	0	3.5900	0	34.3690	0	27.332	0	885.149	0	11.5	4	3.6	4	-1E+10	1	-1E+10	1	-1E+10	1	-1E+10	1	-1E+10	1	-1E+10	1
4901784	49	C	11/06/2016	10:49	-132.318	44.801	0	899.70	0	3.5730	0	34.3730	0	27.337	0	890.483	0	11.5	4	3.6	4	-1E+10	1	-1E+10	1	-1E+10	1	-1E+10	1	-1E+10	1	-1E+10	1
4901784	49	C	11/06/2016	10:49	-132.318	44.801	0	905.00	0	3.5590	0	34.3750	0	27.340	0	895.717	0	11.5	4	3.6	4	-1E+10	1	-1E+10	1	-1E+10	1	-1E+10	1	-1E+10	1	-1E+10	1
4901784	49	C	11/06/2016	10:49	-132.318	44.801	0	910.40	0	3.5450	0	34.3780	0	27.343	0	901.050	0	11.6	4	3.6	4	-1E+10	1	-1E+10	1	-1E+10	1	-1E+10	1	-1E+10	1	-1E+10	1
4901784	49	C	11/06/2016	10:49	-132.318	44.801	0	914.90	0	3.5370	0	34.3800	0	27.346	0	905.494	0	11.6	4	3.6	4	-1E+10	1	-1E+10	1	-1E+10	1	-1E+10	1	-1E+10	1	-1E+10	1
4901784	49	C	11/06/2016	10:49	-132.318	44.801	0	919.50	0	3.5260	0	34.3830	0	27.349	0	910.037	0	11.7	4	3.6	4	-1E+10	1	-1E+10	1	-1E+10	1	-1E+10	1	-1E+10	1	-1E+10	1
4901784	49	C	11/06/2016	10:49	-132.318	44.801	0	925.00	0	3.5170	0	34.3850	0	27.352	0	915.468	0	11.7	4	3.7	4	-1E+10	1	-1E+10	1	-1E+10	1	-1E+10	1	-1E+10	1	-1E+10	1
4901784	49	C	11/06/2016	10:49	-132.318	44.801	0	930.50	0	3.5080	0	34.3890	0	27.356	0	920.899	0	11.8	4	3.7	4	-1E+10	1	-1E+10	1	-1E+10	1	-1E+10	1	-1E+10	1	-1E+10	1
4901784	49	C	11/06/2016	10:49	-132.318	44.801	0	935.20	0	3.4980	0	34.3910	0	27.359	0	925.540	0	11.9	4	3.7	4	-1E+10	1	-1E+10	1	-1E+10	1	-1E+10	1	-1E+10	1	-1E+10	1
4901784	49	C	11/06/2016	10:49	-132.318	44.801	0	940.40	0	3.4810	0	34.3960	0	27.364	0	930.675	0	12.0	4	3.7	4	-1E+10	1	-1E+10	1	-1E+10	1	-1E+10	1	-1E+10	1	-1E+10	1
4901784	49	C	11/06/2016	10:49	-132.318	44.801	0	945.60	0	3.4710	0	34.3980	0	27.367	0	935.810	0	12.1	4	3.8	4	-1E+10	1	-1E+10	1	-1E+10	1	-1E+10	1	-1E+10	1	-1E+10	1
4901784	49	C	11/06/2016	10:49	-132.318	44.801	0	950.30	0	3.4610	0	34.4010	0	27.370	0	940.450	0	12.1	4	3.8	4	-1E+10	1	-1E+10	1	-1E+10	1	-1E+10	1	-1E+10	1	-1E+10	1
4901784	49	C	11/06/2016	10:49	-132.318	44.801	0	955.10	0	3.4510	0	34.4030	0	27.373	0	945.190	0	12.1	4	3.8	4	-1E+10	1	-1E+10	1	-1E+10	1	-1E+10	1	-1E+10	1	-1E+10	1
4901784	49	C	11/06/2016	10:49	-132.318	44.801	0	960.00	0	3.4390	0	34.4050	0	27.376	0	950.028	0	12.2	4	3.8	4	-1E+10	1	-1E+10	1	-1E+10	1	-1E+10	1	-1E+10	1	-1E+10	1
4901784	49	C	11/06/2016	10:49	-132.318	44.801	0	964.90	0	3.4310	0	34.4070	0	27.378	0	954.866	0	12.2	4	3.8	4	-1E+10	1	-1E+10	1	-1E+10	1	-1E+10	1	-1E+10	1	-1E+10	1
4901784	49	C	11/06/2016	10:49	-132.318	44.801	0	969.80	0	3.4260	0	34.4090	0	27.380	0	959.704	0	12.4	4	3.9	4	-1E+10	1	-1E+10	1	-1E+10	1	-1E+10	1	-1E+10	1	-1E+10	1
4901784	49	C	11/06/2016	10:49	-132.318	44.801	0	974.70	0	3.4190	0	34.4130	0	27.384	0	964.541	0	12.6	4	3.9	4	-1E+10	1	-1E+10	1	-1E+10	1	-1E+10	1	-1E+10	1	-1E+10	1
4901784	49	C	11/06/2016	10:49	-132.318	44.801	0	979.60	0	3.4130	0	34.4160	0	27.387	0	969.379	0	12.8	4	4.0	4	-1E+10	1	-1E+10	1	-1E+10	1	-1E+10	1	-1E+10	1	-1E+10	1
4901784	49	C	11/06/2016	10:49	-132.318	44.801	0	984.70	0	3.4040	0	34.4180	0	27.389	0	974.414	0	12.8	4	4.0	4	-1E+10	1	-1E+10	1	-1E+10	1	-1E+10	1	-1E+10	1	-1E+10	1
4901784	49	C	11/06/2016	10:49	-132.318	44.801	0	989.80	0	3.3880	0	34.4220	0	27.394	0	979.449	0	12.8	4	4.0	4	-1E+10	1	-1E+10	1	-1E+10	1	-1E+10	1	-1E+10	1	-1E+10	1
4901784	49	C	11/06/2016	10:49	-132.318	44.801	0	994.90	0	3.3790	0	34.4230	0	27.396	0	984.483	0	12.9	4	4.0	4	-1E+10	1	-1E+10	1	-1E+10	1	-1E+10	1	-1E+10	1	-1E+10	1
4901784	49	C	11/06/2016	10:49	-132.318	44.801	0	999.90	0	3.3630	0	34.4270	0	27.401	0	989.419	0	12.9	4	4.0	4	-1E+10	1	-1E+10	1	-1E+10	1	-1E+10	1	-1E+10	1	-1E+10	1
4901784	49	C	11/06/2016	10:49	-132.318	44.801	0	1005.00	0	3.3580	0	34.4280	0	27.402	0	994.454	0	13.1	4	4.1	4	-1E+10	1	-1E+10	1	-1E+10	1	-1E+10	1	-1E+10	1	-1E+10	1
4901784	49	C	11/06/2016	10:49	-132.318	44.801	0	1010.10	0	3.3510	0	34.4300	0	27.404	0	999.488	0	13.2	4	4.1	4	-1E+10	1	-1E+10	1	-1E+10	1	-1E+10	1	-1E+10	1	-1E+10	1
4901784	49	C	11/06/2016	10:49	-132.318	44.801	0	1015.30	0	3.3390	0	34.4320	0	27.407	0	1004.621	0	13.4	4	4.2	4	-1E+10	1	-1E+10	1	-1E+10	1	-1E+10	1	-1E+10	1	-1E+10	1
4901784	49	C	11/06/2016	10:49	-132.318	44.801	0	1020.60	0	3.3280	0	34.4350	0	27.410	0	1009.852	0	13.7	4	4.3	4	-1E+10	1	-1E+10	1	-1E+10	1	-1E+10	1	-1E+10	1	-1E+10	1
4901784	49	C	11/06/2016	10:49	-132.318	44.801	0	1025.00	0	3.3270	0	34.4390	0	27.414	0	1014.196	0	14.1	4	4.4	4	-1E+10	1	-1E+10	1	-1E+10	1	-1E+10	1	-1E+10	1	-1E+10	1
4901784	49	C	11/06/2016	10:49	-132.318	44.801	0	1029.40	0	3.3240	0	34.4410	0	27.416	0	1018.539	0	14.4	4	4.5	4	-1E+10	1	-1E+10	1	-1E+10	1	-1E+10	1	-1E+10	1	-1E+10	1
4901784	49	C	11/06/2016	10:49	-132.318	44.801	0	1034.80	0	3.3280	0	34.4460	0	27.419	0	1023.868	0	14.8	4	4.6	4	-1E+10	1	-1E+10	1	-1E+10	1	-1E+10	1	-1E+10	1	-1E+10	1
4901784	49	C	11/06/2016	10:49	-132.318	44.801	0	1040.10	0	3.3230	0	34.4480	0	27.421	0	1029.099	0	14.9	4	4.7	4	-1E+10	1	-1E+10	1	-1E+10	1	-1E+10	1	-1E+10	1	-1E+10	1
4901784	49	C	11/06/2016	10:49	-132.318	44.801	0	1045.50	0	3.3170	0	34.4500	0	27.424	0	1034.429	0	15.0	4	4.7	4	-1E+10	1	-1E+10	1	-1E+10	1	-1E+10	1	-1E+10	1	-1E+10	1
4901784	49	C	11/06/2016	10:49	-132.318	44.801	0	1050.10	0	3.3120	0	34.4510	0	27.425	0	1038.969	0	15.1	4	4.7	4	-1E+10	1	-1E+10	1	-1E+10	1	-1E+10	1	-1E+10	1	-1E+10	1
4901784	49	C	11/06/2016	10:49	-132.318	44.801	0	1054.70	0	3.3090	0	34.4510	0	27.425	0	1043.509	0	15.3	4	4.7	4	-1E+10	1	-1E+10	1	-1E+10	1	-1E+10	1	-1E+10	1	-1E+10	1
4901784	49	C	11/06/2016	10:49	-132.318	44.801	0	1060.10	0	3.3070	0	34.4530	0	27.427	0	1048.838	0	15.4	4	4.8	4	-1E+10	1	-1E+10	1	-1E+10	1	-1E+10	1	-1E+10	1	-1E+10	1
4901784	49	C	11/06/2016	10:49	-132.318	44.801	0	1065.30	0	3.2830	0	34.4530	0	27.429	0	1053.970	0	15.4	4	4.8	4	-1E+10	1	-1E+10	1	-1E+10	1	-1E+10	1	-1E+10	1	-1E+10	1
4901784	49	C	11/06/2016	10:49	-132.318	44.801	0	1069.50	0	3.2790	0	34.4550	0	27.431	0	1058.114	0	15.8	4	4.9	4	-1E+10	1	-1E+10	1	-1E+10	1	-1E+10	1	-1E+10	1	-1E+10	1
4901784	49	C	11/06/2016	10:49	-132.318	44.801	0	1074.30	0	3.2870	0	34.4580	0	27.433	0	1062.851	0	16.2	4	5.0	4	-1E+10	1	-1E+10	1	-1E+10	1	-1E+10	1	-1E+10	1	-1E+10	1
4901784	49	C	11/06/2016	10:49	-132.318	44.801	0	1080.00	0	3.2870	0	34.4610	0	27.435	0	1068.476	0	16.5	4	5.1	4	-1E+10	1	-1E+10	1	-1E+10	1	-1E+10	1	-1E+10	1	-1E+10	1
4901784	49	C	11/06/2016	10:49	-132.318	44.801	0	1085.70	0	3.2860	0	34.4620	0	27.436	0	1074.100	0	16.6	4	5.2	4	-1E+10	1	-1E+10	1	-1E+10	1	-1E+10	1	-1E+10	1	-1E+10	1
4901784	49	C	11/06/2016	10:49	-132.318	44.801	0	1090.70	0	3.2820	0	34.4630	0	27.438	0	1079.034	0	16.8	4	5.2	4	-1E+10	1	-1E+10	1	-1E+10	1	-1E+10	1	-1E+10	1	-1E+10	1
4901784	49	C	11/06/2016	10:49	-132.318	44.801	0	1095.70	0	3.2750	0	34.4650	0	27.440	0	1083.968	0	16.9	4	5.3	4	-1E+10	1	-1E+10	1	-1E+10	1	-1E+10	1	-1E+10	1	-1E+10	1
4901784	49	C	11/06/2016	10:49	-132.318	44.801	0	1100.70	0	3.2720	0	34.4660	0	27.441	0	1088.901	0	17.0	4	5.3	4	-1E+10	1	-1E+10	1	-1E+10	1	-1E+10	1	-1E+10	1	-1E+10	1
4901784	49	C	11/06/2016	10:49	-132.318	44.801	0	1105.70	0	3.2670	0	34.4670	0	27.442	0	1093.835	0	17.1	4	5.3	4	-1E+10	1	-1E+10	1	-1E+10	1	-1E+10	1	-1E+10	1	-1E+10	1
4901784	49	C	11/06/2016	10:49	-132.318	44.801	0	1110.70	0	3.2600	0	34.4690	0	27.445	0	1098.768	0	17.3	4	5.4	4	-1E+10	1	-1E+10	1	-1E+10	1	-1E+10	1	-1E+10	1	-1E+10	1
4901784	49	C	11/06/2016	10:49	-132.318	44.801	0	1115.00	0	3.2530	0	34.4700	0	27.446	0	1103.010	0	17.4	4	5.4	4	-1E+10	1	-1E+10	1	-1E+10	1	-1E+10	1	-1E+10	1	-1E+10	1
4901784	49	C	11/06/2016	10:49	-132.318	44.801	0	1119.30	0	3.2490	0	34.4710	0	27.447	0	1107.253	0	17.5	4	5.4	4	-1E+10	1	-1E+10	1	-1E+10	1	-1E+10	1	-1E+10	1	-1E+10	1
4901784	49	C	11/06/2016	10:49	-132.318	44.801	0	1124.50	0	3.2480	0	34.4720	0	27.448	0	1112.383	0	17.8	4	5.5	4	-1E+10	1	-1E+10	1	-1E+10	1	-1E+10	1	-1E+10	1	-1E+10	1
4901784	49	C	11/06/2016	10:49	-132.318	44.801	0	1129.70	0	3.2380	0	34.4740	0	27.451	0	1117.513	0	18.0	4	5.6	4	-1E+10	1	-1E+10	1	-1E+10	1	-1E+10	1	-1E+10	1	-1E+10	1
4901784	49	C	11/06/2016	10:49	-132.318	44.801	0	1134.90	0	3.2360	0	34.4770	0	27.453	0	1122.643	0	18.3	4	5.7	4	-1E+10	1	-1E+10	1	-1E+10	1	-1E+10	1	-1E+10	1	-1E+10	1
4901784	49	C	11/06/2016	10:49	-132.318	44.801	0	1140.10	0	3.2370	0	34.4780	0	27.454	0	1127.773	0	18.5	4	5.8	4	-1E+10	1	-1E+10	1	-1E+10	1	-1E+10	1	-1E+10	1	-1E+10	1
4901784	49	C	11/06/2016	10:49	-132.318	44.801	0	1145.30	0	3.2350	0	34.4800	0	27.456	0	1132.903	0	18.8	4	5.8	4	-1E+10	1	-1E+10	1	-1E+10	1	-1E+10	1	-1E+10	1	-1E+10	1
4901784	49	C	11/06/2016	10:49	-132.318	44.801	0	1150.60	0	3.2360	0	34.4820	0	27.457	0	1138.131	0	19.2	4	6.0	4	-1E+10	1	-1E+10	1	-1E+10	1	-1E+10	1	-1E+10	1	-1E+10	1
4901784	49	C	11/06/2016	10:49	-132.318	44.801	0	1155.10	0	3.2430	0	34.4850	0	27.459	0	1142.570	0	19.4	4	6.0	4	-1E+10	1	-1E+10	1	-1E+10	1	-1E+10	1	-1E+10	1	-1E+10	1
4901784	49	C	11/06/2016	10:49	-132.318	44.801	0	1159.40	0	3.2370	0	34.4850	0	27.460	0	1146.812	0	19.5	4	6.1	4	-1E+10	1	-1E+10	1	-1E+10	1	-1E+10	1	-1E+10	1	-1E+10	1
4901784	49	C	11/06/2016	10:49	-132.318	44.801	0	1164.70	0	3.2310	0	34.4860	0	27.461	0	1152.040	0	19.6	4	6.1	4	-1E+10	1	-1E+10	1	-1E+10	1	-1E+10	1	-1E+10	1	-1E+10	1
4901784	49	C	11/06/2016	10:49	-132.318	44.801	0	1170.10	0	3.2230	0	34.4880	0	27.464	0	1157.366	0	19.8	4	6.1	4	-1E+10	1	-1E+10	1	-1E+10	1	-1E+10	1	-1E+10	1	-1E+10	1
4901784	49	C	11/06/2016	10:49	-132.318	44.801	0	1175.50	0	3.2150	0	34.4890	0	27.465	0	1162.692	0	19.9	4	6.2	4	-1E+10	1	-1E+10	1	-1E+10	1	-1E+10	1	-1E+10	1	-1E+10	1
4901784	49	C	11/06/2016	10:49	-132.318	44.801	0	1179.90	0	3.2130	0	34.4900	0	27.466	0	1167.032	0	19.9	4	6.2	4	-1E+10	1	-1E+10	1	-1E+10	1	-1E+10	1	-1E+10	1	-1E+10	1
4901784	49	C	11/06/2016	10:49	-132.318	44.801	0	1184.40	0	3.2080	0	34.4900	0	27.467	0	1171.471	0	20.1	4	6.2	4	-1E+10	1	-1E+10	1	-1E+10	1	-1E+10	1	-1E+10	1	-1E+10	1
4901784	49	C	11/06/2016	10:49	-132.318	44.801	0	1189.80	0	3.1970	0	34.4920	0	27.469	0	1176.797	0	20.2	4	6.3	4	-1E+10	1	-1E+10	1	-1E+10	1	-1E+10	1	-1E+10	1	-1E+10	1
4901784	49	C	11/06/2016	10:49	-132.318	44.801	0	1195.10	0	3.1830	0	34.4930	0	27.471	0	1182.024	0	20.2	4	6.3	4	-1E+10	1	-1E+10	1	-1E+10	1	-1E+10	1	-1E+10	1	-1E+10	1
4901784	49	C	11/06/2016	10:49	-132.318	44.801	0	1200.50	0	3.1760	0	34.4930	0	27.472	0	1187.350	0	20.2	4	6.3	4	-1E+10	1	-1E+10	1	-1E+10	1	-1E+10	1	-1E+10	1	-1E+10	1
4901784	49	C	11/06/2016	10:49	-132.318	44.801	0	1205.00	0	3.1660	0	34.4940	0	27.474	0	1191.787	0	20.3	4	6.3	4	-1E+10	1	-1E+10	1	-1E+10	1	-1E+10	1	-1E+10	1	-1E+10	1
4901784	49	C	11/06/2016	10:49	-132.318	44.801	0	1209.50	0	3.1610	0	34.4950	0	27.475	0	1196.225	0	20.4	4	6.3	4	-1E+10	1	-1E+10	1	-1E+10	1	-1E+10	1	-1E+10	1	-1E+10	1
4901784	49	C	11/06/2016	10:49	-132.318	44.801	0	1214.90	0	3.1560	0	34.4960	0	27.476	0	1201.551	0	20.5	4	6.4	4	-1E+10	1	-1E+10	1	-1E+10	1	-1E+10	1	-1E+10	1	-1E+10	1
4901784	49	C	11/06/2016	10:49	-132.318	44.801	0	1220.40	0	3.1420	0	34.4970	0	27.479	0	1206.974	0	20.6	4	6.4	4	-1E+10	1	-1E+10	1	-1E+10	1	-1E+10	1	-1E+10	1	-1E+10	1
4901784	49	C	11/06/2016	10:49	-132.318	44.801	0	1225.00	0	3.1340	0	34.4970	0	27.479	0	1211.511	0	20.6	4	6.4	4	-1E+10	1	-1E+10	1	-1E+10	1	-1E+10	1	-1E+10	1	-1E+10	1
4901784	49	C	11/06/2016	10:49	-132.318	44.801	0	1229.60	0	3.1230	0	34.4980	0	27.481	0	1216.047	0	20.7	4	6.4	4	-1E+10	1	-1E+10	1	-1E+10	1	-1E+10	1	-1E+10	1	-1E+10	1
4901784	49	C	11/06/2016	10:49	-132.318	44.801	0	1235.10	0	3.1210	0	34.5000	0	27.483	0	1221.470	0	21.0	4	6.5	4	-1E+10	1	-1E+10	1	-1E+10	1	-1E+10	1	-1E+10	1	-1E+10	1
4901784	49	C	11/06/2016	10:49	-132.318	44.801	0	1240.60	0	3.1060	0	34.5020	0	27.486	0	1226.893	0	21.1	4	6.5	4	-1E+10	1	-1E+10	1	-1E+10	1	-1E+10	1	-1E+10	1	-1E+10	1
4901784	49	C	11/06/2016	10:49	-132.318	44.801	0	1245.40	0	3.0950	0	34.5030	0	27.488	0	1231.626	0	21.2	4	6.6	4	-1E+10	1	-1E+10	1	-1E+10	1	-1E+10	1	-1E+10	1	-1E+10	1
4901784	49	C	11/06/2016	10:49	-132.318	44.801	0	1249.90	0	3.0930	0	34.5030	0	27.488	0	1236.063	0	21.3	4	6.6	4	-1E+10	1	-1E+10	1	-1E+10	1	-1E+10	1	-1E+10	1	-1E+10	1
4901784	49	C	11/06/2016	10:49	-132.318	44.801	0	1254.70	0	3.0860	0	34.5040	0	27.489	0	1240.796	0	21.5	4	6.6	4	-1E+10	1	-1E+10	1	-1E+10	1	-1E+10	1	-1E+10	1	-1E+10	1
4901784	49	C	11/06/2016	10:49	-132.318	44.801	0	1259.60	0	3.0650	0	34.5050	0	27.492	0	1245.627	0	21.4	4	6.6	4	-1E+10	1	-1E+10	1	-1E+10	1	-1E+10	1	-1E+10	1	-1E+10	1
4901784	49	C	11/06/2016	10:49	-132.318	44.801	0	1264.50	0	3.0580	0	34.5060	0	27.494	0	1250.458	0	21.5	4	6.7	4	-1E+10	1	-1E+10	1	-1E+10	1	-1E+10	1	-1E+10	1	-1E+10	1
4901784	49	C	11/06/2016	10:49	-132.318	44.801	0	1269.50	0	3.0420	0	34.5060	0	27.495	0	1255.388	0	21.7	4	6.7	4	-1E+10	1	-1E+10	1	-1E+10	1	-1E+10	1	-1E+10	1	-1E+10	1
4901784	49	C	11/06/2016	10:49	-132.318	44.801	0	1274.40	0	3.0450	0	34.5080	0	27.496	0	1260.219	0	22.0	4	6.8	4	-1E+10	1	-1E+10	1	-1E+10	1	-1E+10	1	-1E+10	1	-1E+10	1
4901784	49	C	11/06/2016	10:49	-132.318	44.801	0	1279.40	0	3.0340	0	34.5080	0	27.497	0	1265.148	0	21.9	4	6.8	4	-1E+10	1	-1E+10	1	-1E+10	1	-1E+10	1	-1E+10	1	-1E+10	1
4901784	49	C	11/06/2016	10:49	-132.318	44.801	0	1284.40	0	3.0200	0	34.5090	0	27.500	0	1270.077	0	22.1	4	6.8	4	-1E+10	1	-1E+10	1	-1E+10	1	-1E+10	1	-1E+10	1	-1E+10	1
4901784	49	C	11/06/2016	10:49	-132.318	44.801	0	1289.50	0	3.0140	0	34.5110	0	27.502	0	1275.105	0	22.3	4	6.9	4	-1E+10	1	-1E+10	1	-1E+10	1	-1E+10	1	-1E+10	1	-1E+10	1
4901784	49	C	11/06/2016	10:49	-132.318	44.801	0	1294.60	0	3.0090	0	34.5120	0	27.503	0	1280.133	0	22.6	4	7.0	4	-1E+10	1	-1E+10	1	-1E+10	1	-1E+10	1	-1E+10	1	-1E+10	1
4901784	49	C	11/06/2016	10:49	-132.318	44.801	0	1299.60	0	3.0040	0	34.5140	0	27.505	0	1285.062	0	22.8	4	7.0	4	-1E+10	1	-1E+10	1	-1E+10	1	-1E+10	1	-1E+10	1	-1E+10	1
4901784	49	C	11/06/2016	10:49	-132.318	44.801	0	1304.70	0	3.0010	0	34.5150	0	27.506	0	1290.089	0	23.0	4	7.1	4	-1E+10	1	-1E+10	1	-1E+10	1	-1E+10	1	-1E+10	1	-1E+10	1
4901784	49	C	11/06/2016	10:49	-132.318	44.801	0	1309.90	0	2.9920	0	34.5160	0	27.508	0	1295.215	0	23.1	4	7.1	4	-1E+10	1	-1E+10	1	-1E+10	1	-1E+10	1	-1E+10	1	-1E+10	1
4901784	49	C	11/06/2016	10:49	-132.318	44.801	0	1315.00	0	2.9870	0	34.5170	0	27.509	0	1300.242	0	23.2	4	7.2	4	-1E+10	1	-1E+10	1	-1E+10	1	-1E+10	1	-1E+10	1	-1E+10	1
4901784	49	C	11/06/2016	10:49	-132.318	44.801	0	1320.10	0	2.9820	0	34.5180	0	27.510	0	1305.269	0	23.3	4	7.2	4	-1E+10	1	-1E+10	1	-1E+10	1	-1E+10	1	-1E+10	1	-1E+10	1
4901784	49	C	11/06/2016	10:49	-132.318	44.801	0	1325.20	0	2.9570	0	34.5170	0	27.512	0	1310.296	0	23.1	4	7.1	4	-1E+10	1	-1E+10	1	-1E+10	1	-1E+10	1	-1E+10	1	-1E+10	1
4901784	49	C	11/06/2016	10:49	-132.318	44.801	0	1330.40	0	2.9410	0	34.5170	0	27.513	0	1315.421	0	23.2	4	7.1	4	-1E+10	1	-1E+10	1	-1E+10	1	-1E+10	1	-1E+10	1	-1E+10	1
4901784	49	C	11/06/2016	10:49	-132.318	44.801	0	1335.50	0	2.9280	0	34.5190	0	27.516	0	1320.447	0	23.5	4	7.2	4	-1E+10	1	-1E+10	1	-1E+10	1	-1E+10	1	-1E+10	1	-1E+10	1
4901784	49	C	11/06/2016	10:49	-132.318	44.801	0	1340.70	0	2.9240	0	34.5210	0	27.518	0	1325.572	0	23.9	4	7.4	4	-1E+10	1	-1E+10	1	-1E+10	1	-1E+10	1	-1E+10	1	-1E+10	1
4901784	49	C	11/06/2016	10:49	-132.318	44.801	0	1345.00	0	2.9220	0	34.5230	0	27.520	0	1329.810	0	24.2	4	7.5	4	-1E+10	1	-1E+10	1	-1E+10	1	-1E+10	1	-1E+10	1	-1E+10	1
4901784	49	C	11/06/2016	10:49	-132.318	44.801	0	1349.30	0	2.9150	0	34.5230	0	27.521	0	1334.048	0	24.3	4	7.5	4	-1E+10	1	-1E+10	1	-1E+10	1	-1E+10	1	-1E+10	1	-1E+10	1
4901784	49	C	11/06/2016	10:49	-132.318	44.801	0	1354.60	0	2.9020	0	34.5240	0	27.523	0	1339.272	0	24.2	4	7.5	4	-1E+10	1	-1E+10	1	-1E+10	1	-1E+10	1	-1E+10	1	-1E+10	1
4901784	49	C	11/06/2016	10:49	-132.318	44.801	0	1359.80	0	2.8820	0	34.5240	0	27.524	0	1344.396	0	24.2	4	7.5	4	-1E+10	1	-1E+10	1	-1E+10	1	-1E+10	1	-1E+10	1	-1E+10	1
4901784	49	C	11/06/2016	10:49	-132.318	44.801	0	1365.80	0	2.8700	0	34.5250	0	27.526	0	1350.309	0	24.4	4	7.5	4	-1E+10	1	-1E+10	1	-1E+10	1	-1E+10	1	-1E+10	1	-1E+10	1
4901784	49	C	11/06/2016	10:49	-132.318	44.801	0	1370.50	0	2.8620	0	34.5260	0	27.528	0	1354.941	0	24.5	4	7.5	4	-1E+10	1	-1E+10	1	-1E+10	1	-1E+10	1	-1E+10	1	-1E+10	1
4901784	49	C	11/06/2016	10:49	-132.318	44.801	0	1375.10	0	2.8620	0	34.5260	0	27.528	0	1359.474	0	24.7	4	7.6	4	-1E+10	1	-1E+10	1	-1E+10	1	-1E+10	1	-1E+10	1	-1E+10	1
4901784	49	C	11/06/2016	10:49	-132.318	44.801	0	1380.10	0	2.8540	0	34.5270	0	27.529	0	1364.401	0	24.9	4	7.7	4	-1E+10	1	-1E+10	1	-1E+10	1	-1E+10	1	-1E+10	1	-1E+10	1
4901784	49	C	11/06/2016	10:49	-132.318	44.801	0	1385.30	0	2.8400	0	34.5290	0	27.532	0	1369.525	0	25.2	4	7.7	4	-1E+10	1	-1E+10	1	-1E+10	1	-1E+10	1	-1E+10	1	-1E+10	1
4901784	49	C	11/06/2016	10:49	-132.318	44.801	0	1390.50	0	2.8290	0	34.5300	0	27.534	0	1374.648	0	25.4	4	7.8	4	-1E+10	1	-1E+10	1	-1E+10	1	-1E+10	1	-1E+10	1	-1E+10	1
4901784	49	C	11/06/2016	10:49	-132.318	44.801	0	1395.70	0	2.8230	0	34.5300	0	27.535	0	1379.772	0	25.6	4	7.9	4	-1E+10	1	-1E+10	1	-1E+10	1	-1E+10	1	-1E+10	1	-1E+10	1
4901784	49	C	11/06/2016	10:49	-132.318	44.801	0	1400.00	0	2.8130	0	34.5320	0	27.537	0	1384.009	0	25.8	4	7.9	4	-1E+10	1	-1E+10	1	-1E+10	1	-1E+10	1	-1E+10	1	-1E+10	1
4901784	49	C	11/06/2016	10:49	-132.318	44.801	0	1404.40	0	2.8000	0	34.5320	0	27.538	0	1388.344	0	25.9	4	8.0	4	-1E+10	1	-1E+10	1	-1E+10	1	-1E+10	1	-1E+10	1	-1E+10	1
4901784	49	C	11/06/2016	10:49	-132.318	44.801	0	1409.60	0	2.7880	0	34.5330	0	27.540	0	1393.468	0	26.0	4	8.0	4	-1E+10	1	-1E+10	1	-1E+10	1	-1E+10	1	-1E+10	1	-1E+10	1
4901784	49	C	11/06/2016	10:49	-132.318	44.801	0	1414.90	0	2.7730	0	34.5330	0	27.541	0	1398.689	0	26.1	4	8.0	4	-1E+10	1	-1E+10	1	-1E+10	1	-1E+10	1	-1E+10	1	-1E+10	1
4901784	49	C	11/06/2016	10:49	-132.318	44.801	0	1420.20	0	2.7620	0	34.5330	0	27.542	0	1403.911	0	26.2	4	8.1	4	-1E+10	1	-1E+10	1	-1E+10	1	-1E+10	1	-1E+10	1	-1E+10	1
4901784	49	C	11/06/2016	10:49	-132.318	44.801	0	1425.50	0	2.7460	0	34.5350	0	27.545	0	1409.133	0	26.4	4	8.1	4	-1E+10	1	-1E+10	1	-1E+10	1	-1E+10	1	-1E+10	1	-1E+10	1
4901784	49	C	11/06/2016	10:49	-132.318	44.801	0	1429.90	0	2.7330	0	34.5360	0	27.547	0	1413.467	0	26.5	4	8.1	4	-1E+10	1	-1E+10	1	-1E+10	1	-1E+10	1	-1E+10	1	-1E+10	1
4901784	49	C	11/06/2016	10:49	-132.318	44.801	0	1434.40	0	2.7270	0	34.5360	0	27.548	0	1417.901	0	26.5	4	8.1	4	-1E+10	1	-1E+10	1	-1E+10	1	-1E+10	1	-1E+10	1	-1E+10	1
4901784	49	C	11/06/2016	10:49	-132.318	44.801	0	1439.90	0	2.7210	0	34.5360	0	27.548	0	1423.319	0	26.6	4	8.2	4	-1E+10	1	-1E+10	1	-1E+10	1	-1E+10	1	-1E+10	1	-1E+10	1
4901784	49	C	11/06/2016	10:49	-132.318	44.801	0	1445.30	0	2.7100	0	34.5360	0	27.549	0	1428.638	0	26.7	4	8.2	4	-1E+10	1	-1E+10	1	-1E+10	1	-1E+10	1	-1E+10	1	-1E+10	1
4901784	49	C	11/06/2016	10:49	-132.318	44.801	0	1449.90	0	2.6950	0	34.5370	0	27.552	0	1433.170	0	26.8	4	8.2	4	-1E+10	1	-1E+10	1	-1E+10	1	-1E+10	1	-1E+10	1	-1E+10	1
4901784	49	C	11/06/2016	10:49	-132.318	44.801	0	1454.50	0	2.6830	0	34.5370	0	27.553	0	1437.701	0	27.0	4	8.3	4	-1E+10	1	-1E+10	1	-1E+10	1	-1E+10	1	-1E+10	1	-1E+10	1
4901784	49	C	11/06/2016	10:49	-132.318	44.801	0	1460.00	0	2.6760	0	34.5380	0	27.554	0	1443.119	0	27.1	4	8.3	4	-1E+10	1	-1E+10	1	-1E+10	1	-1E+10	1	-1E+10	1	-1E+10	1
4901784	49	C	11/06/2016	10:49	-132.318	44.801	0	1464.70	0	2.6670	0	34.5380	0	27.555	0	1447.748	0	27.2	4	8.3	4	-1E+10	1	-1E+10	1	-1E+10	1	-1E+10	1	-1E+10	1	-1E+10	1
4901784	49	C	11/06/2016	10:49	-132.318	44.801	0	1469.40	0	2.6570	0	34.5380	0	27.556	0	1452.378	0	27.3	4	8.4	4	-1E+10	1	-1E+10	1	-1E+10	1	-1E+10	1	-1E+10	1	-1E+10	1
4901784	49	C	11/06/2016	10:49	-132.318	44.801	0	1475.00	0	2.6440	0	34.5390	0	27.558	0	1457.893	0	27.4	4	8.4	4	-1E+10	1	-1E+10	1	-1E+10	1	-1E+10	1	-1E+10	1	-1E+10	1
4901784	49	C	11/06/2016	10:49	-132.318	44.801	0	1479.70	0	2.6320	0	34.5390	0	27.559	0	1462.523	0	27.5	4	8.4	4	-1E+10	1	-1E+10	1	-1E+10	1	-1E+10	1	-1E+10	1	-1E+10	1
4901784	49	C	11/06/2016	10:49	-132.318	44.801	0	1484.40	0	2.6150	0	34.5390	0	27.560	0	1467.152	0	27.6	4	8.5	4	-1E+10	1	-1E+10	1	-1E+10	1	-1E+10	1	-1E+10	1	-1E+10	1
4901784	49	C	11/06/2016	10:49	-132.318	44.801	0	1490.20	0	2.6020	0	34.5400	0	27.562	0	1472.864	0	27.8	4	8.5	4	-1E+10	1	-1E+10	1	-1E+10	1	-1E+10	1	-1E+10	1	-1E+10	1
4901784	49	C	11/06/2016	10:49	-132.318	44.801	0	1495.00	0	2.5840	0	34.5410	0	27.565	0	1477.592	0	27.9	4	8.5	4	-1E+10	1	-1E+10	1	-1E+10	1	-1E+10	1	-1E+10	1	-1E+10	1
4901784	49	C	11/06/2016	10:49	-132.318	44.801	0	1499.80	0	2.5690	0	34.5410	0	27.566	0	1482.319	0	27.9	4	8.5	4	-1E+10	1	-1E+10	1	-1E+10	1	-1E+10	1	-1E+10	1	-1E+10	1
4901784	49	C	11/06/2016	10:49	-132.318	44.801	0	1505.50	0	2.5500	0	34.5410	0	27.567	0	1487.932	0	28.0	4	8.6	4	-1E+10	1	-1E+10	1	-1E+10	1	-1E+10	1	-1E+10	1	-1E+10	1
4901784	49	C	11/06/2016	10:49	-132.318	44.801	0	1510.00	0	2.5390	0	34.5410	0	27.568	0	1492.364	0	28.2	4	8.6	4	-1E+10	1	-1E+10	1	-1E+10	1	-1E+10	1	-1E+10	1	-1E+10	1
4901784	49	C	11/06/2016	10:49	-132.318	44.801	0	1514.40	0	2.5260	0	34.5420	0	27.570	0	1496.697	0	28.4	4	8.7	4	-1E+10	1	-1E+10	1	-1E+10	1	-1E+10	1	-1E+10	1	-1E+10	1
4901784	49	C	11/06/2016	10:49	-132.318	44.801	0	1519.70	0	2.5150	0	34.5430	0	27.572	0	1501.916	0	28.8	4	8.8	4	-1E+10	1	-1E+10	1	-1E+10	1	-1E+10	1	-1E+10	1	-1E+10	1
4901784	49	C	11/06/2016	10:49	-132.318	44.801	0	1525.00	0	2.5000	0	34.5450	0	27.575	0	1507.135	0	29.1	4	8.9	4	-1E+10	1	-1E+10	1	-1E+10	1	-1E+10	1	-1E+10	1	-1E+10	1
4901784	49	C	11/06/2016	10:49	-132.318	44.801	0	1530.40	0	2.4890	0	34.5460	0	27.577	0	1512.453	0	29.3	4	8.9	4	-1E+10	1	-1E+10	1	-1E+10	1	-1E+10	1	-1E+10	1	-1E+10	1
4901784	49	C	11/06/2016	10:49	-132.318	44.801	0	1534.90	0	2.4850	0	34.5460	0	27.577	0	1516.884	0	29.5	4	9.0	4	-1E+10	1	-1E+10	1	-1E+10	1	-1E+10	1	-1E+10	1	-1E+10	1
4901784	49	C	11/06/2016	10:49	-132.318	44.801	0	1539.30	0	2.4710	0	34.5460	0	27.578	0	1521.216	0	29.7	4	9.1	4	-1E+10	1	-1E+10	1	-1E+10	1	-1E+10	1	-1E+10	1	-1E+10	1
4901784	49	C	11/06/2016	10:49	-132.318	44.801	0	1544.80	0	2.4550	0	34.5480	0	27.581	0	1526.632	0	30.0	4	9.2	4	-1E+10	1	-1E+10	1	-1E+10	1	-1E+10	1	-1E+10	1	-1E+10	1
4901784	49	C	11/06/2016	10:49	-132.318	44.801	0	1550.30	0	2.4430	0	34.5490	0	27.583	0	1532.047	0	30.3	4	9.2	4	-1E+10	1	-1E+10	1	-1E+10	1	-1E+10	1	-1E+10	1	-1E+10	1
4901784	49	C	11/06/2016	10:49	-132.318	44.801	0	1554.90	0	2.4400	0	34.5490	0	27.583	0	1536.577	0	30.5	4	9.3	4	-1E+10	1	-1E+10	1	-1E+10	1	-1E+10	1	-1E+10	1	-1E+10	1
4901784	49	C	11/06/2016	10:49	-132.318	44.801	0	1559.50	0	2.4250	0	34.5510	0	27.586	0	1541.106	0	31.0	4	9.4	4	-1E+10	1	-1E+10	1	-1E+10	1	-1E+10	1	-1E+10	1	-1E+10	1
4901784	49	C	11/06/2016	10:49	-132.318	44.801	0	1565.00	0	2.4100	0	34.5520	0	27.588	0	1546.521	0	31.5	4	9.6	4	-1E+10	1	-1E+10	1	-1E+10	1	-1E+10	1	-1E+10	1	-1E+10	1
4901784	49	C	11/06/2016	10:49	-132.318	44.801	0	1569.60	0	2.3970	0	34.5540	0	27.591	0	1551.049	0	31.8	4	9.7	4	-1E+10	1	-1E+10	1	-1E+10	1	-1E+10	1	-1E+10	1	-1E+10	1
4901784	49	C	11/06/2016	10:49	-132.318	44.801	0	1574.20	0	2.3910	0	34.5540	0	27.591	0	1555.578	0	32.1	4	9.8	4	-1E+10	1	-1E+10	1	-1E+10	1	-1E+10	1	-1E+10	1	-1E+10	1
4901784	49	C	11/06/2016	10:49	-132.318	44.801	0	1579.60	0	2.3800	0	34.5550	0	27.593	0	1560.894	0	32.5	4	9.9	4	-1E+10	1	-1E+10	1	-1E+10	1	-1E+10	1	-1E+10	1	-1E+10	1
4901784	49	C	11/06/2016	10:49	-132.318	44.801	0	1584.50	0	2.3690	0	34.5570	0	27.596	0	1565.718	0	33.0	4	10.0	4	-1E+10	1	-1E+10	1	-1E+10	1	-1E+10	1	-1E+10	1	-1E+10	1
4901784	49	C	11/06/2016	10:49	-132.318	44.801	0	1589.30	0	2.3580	0	34.5580	0	27.597	0	1570.444	0	33.4	4	10.1	4	-1E+10	1	-1E+10	1	-1E+10	1	-1E+10	1	-1E+10	1	-1E+10	1
4901784	49	C	11/06/2016	10:49	-132.318	44.801	0	1594.30	0	2.3460	0	34.5590	0	27.599	0	1575.366	0	33.8	4	10.3	4	-1E+10	1	-1E+10	1	-1E+10	1	-1E+10	1	-1E+10	1	-1E+10	1
4901784	49	C	11/06/2016	10:49	-132.318	44.801	0	1600.00	0	2.3290	0	34.5610	0	27.602	0	1580.977	0	34.3	4	10.4	4	-1E+10	1	-1E+10	1	-1E+10	1	-1E+10	1	-1E+10	1	-1E+10	1
4901784	49	C	11/06/2016	10:49	-132.318	44.801	0	1605.70	0	2.3180	0	34.5620	0	27.604	0	1586.588	0	34.7	4	10.5	4	-1E+10	1	-1E+10	1	-1E+10	1	-1E+10	1	-1E+10	1	-1E+10	1
4901784	49	C	11/06/2016	10:49	-132.318	44.801	0	1610.70	0	2.3110	0	34.5630	0	27.605	0	1591.509	0	34.9	4	10.6	4	-1E+10	1	-1E+10	1	-1E+10	1	-1E+10	1	-1E+10	1	-1E+10	1
4901784	49	C	11/06/2016	10:49	-132.318	44.801	0	1615.60	0	2.3050	0	34.5640	0	27.607	0	1596.332	0	35.1	4	10.7	4	-1E+10	1	-1E+10	1	-1E+10	1	-1E+10	1	-1E+10	1	-1E+10	1
4901784	49	C	11/06/2016	10:49	-132.318	44.801	0	1620.60	0	2.2990	0	34.5650	0	27.608	0	1601.254	0	35.4	4	10.7	4	-1E+10	1	-1E+10	1	-1E+10	1	-1E+10	1	-1E+10	1	-1E+10	1
4901784	49	C	11/06/2016	10:49	-132.318	44.801	0	1625.50	0	2.2970	0	34.5650	0	27.608	0	1606.077	0	35.6	4	10.8	4	-1E+10	1	-1E+10	1	-1E+10	1	-1E+10	1	-1E+10	1	-1E+10	1
4901784	49	C	11/06/2016	10:49	-132.318	44.801	0	1630.60	0	2.2890	0	34.5660	0	27.610	0	1611.096	0	36.2	4	11.0	4	-1E+10	1	-1E+10	1	-1E+10	1	-1E+10	1	-1E+10	1	-1E+10	1
4901784	49	C	11/06/2016	10:49	-132.318	44.801	0	1635.60	0	2.2680	0	34.5690	0	27.614	0	1616.018	0	36.8	4	11.2	4	-1E+10	1	-1E+10	1	-1E+10	1	-1E+10	1	-1E+10	1	-1E+10	1
4901784	49	C	11/06/2016	10:49	-132.318	44.801	0	1640.60	0	2.2590	0	34.5700	0	27.615	0	1620.939	0	37.0	4	11.2	4	-1E+10	1	-1E+10	1	-1E+10	1	-1E+10	1	-1E+10	1	-1E+10	1
4901784	49	C	11/06/2016	10:49	-132.318	44.801	0	1645.70	0	2.2580	0	34.5700	0	27.615	0	1625.958	0	37.2	4	11.3	4	-1E+10	1	-1E+10	1	-1E+10	1	-1E+10	1	-1E+10	1	-1E+10	1
4901784	49	C	11/06/2016	10:49	-132.318	44.801	0	1650.00	0	2.2570	0	34.5700	0	27.616	0	1630.190	0	37.4	4	11.4	4	-1E+10	1	-1E+10	1	-1E+10	1	-1E+10	1	-1E+10	1	-1E+10	1
4901784	49	C	11/06/2016	10:49	-132.318	44.801	0	1654.20	0	2.2480	0	34.5710	0	27.617	0	1634.323	0	37.8	4	11.5	4	-1E+10	1	-1E+10	1	-1E+10	1	-1E+10	1	-1E+10	1	-1E+10	1
4901784	49	C	11/06/2016	10:49	-132.318	44.801	0	1659.20	0	2.2410	0	34.5720	0	27.618	0	1639.244	0	38.1	4	11.6	4	-1E+10	1	-1E+10	1	-1E+10	1	-1E+10	1	-1E+10	1	-1E+10	1
4901784	49	C	11/06/2016	10:49	-132.318	44.801	0	1664.30	0	2.2370	0	34.5730	0	27.620	0	1644.263	0	38.5	4	11.7	4	-1E+10	1	-1E+10	1	-1E+10	1	-1E+10	1	-1E+10	1	-1E+10	1
4901784	49	C	11/06/2016	10:49	-132.318	44.801	0	1669.50	0	2.2250	0	34.5740	0	27.621	0	1649.380	0	39.1	4	11.8	4	-1E+10	1	-1E+10	1	-1E+10	1	-1E+10	1	-1E+10	1	-1E+10	1
4901784	49	C	11/06/2016	10:49	-132.318	44.801	0	1674.70	0	2.2170	0	34.5750	0	27.623	0	1654.497	0	39.5	4	12.0	4	-1E+10	1	-1E+10	1	-1E+10	1	-1E+10	1	-1E+10	1	-1E+10	1
4901784	49	C	11/06/2016	10:49	-132.318	44.801	0	1679.90	0	2.2040	0	34.5770	0	27.626	0	1659.614	0	40.0	4	12.1	4	-1E+10	1	-1E+10	1	-1E+10	1	-1E+10	1	-1E+10	1	-1E+10	1
4901784	49	C	11/06/2016	10:49	-132.318	44.801	0	1685.10	0	2.1980	0	34.5780	0	27.627	0	1664.731	0	40.3	4	12.2	4	-1E+10	1	-1E+10	1	-1E+10	1	-1E+10	1	-1E+10	1	-1E+10	1
4901784	49	C	11/06/2016	10:49	-132.318	44.801	0	1690.30	0	2.1960	0	34.5780	0	27.627	0	1669.847	0	40.6	4	12.3	4	-1E+10	1	-1E+10	1	-1E+10	1	-1E+10	1	-1E+10	1	-1E+10	1
4901784	49	C	11/06/2016	10:49	-132.318	44.801	0	1695.60	0	2.1870	0	34.5800	0	27.629	0	1675.062	0	41.1	4	12.5	4	-1E+10	1	-1E+10	1	-1E+10	1	-1E+10	1	-1E+10	1	-1E+10	1
4901784	49	C	11/06/2016	10:49	-132.318	44.801	0	1700.00	0	2.1780	0	34.5810	0	27.631	0	1679.392	0	41.5	4	12.6	4	-1E+10	1	-1E+10	1	-1E+10	1	-1E+10	1	-1E+10	1	-1E+10	1
4901784	49	C	11/06/2016	10:49	-132.318	44.801	0	1704.40	0	2.1730	0	34.5820	0	27.632	0	1683.721	0	41.7	4	12.6	4	-1E+10	1	-1E+10	1	-1E+10	1	-1E+10	1	-1E+10	1	-1E+10	1
4901784	49	C	11/06/2016	10:49	-132.318	44.801	0	1709.70	0	2.1700	0	34.5820	0	27.632	0	1688.935	0	42.0	4	12.7	4	-1E+10	1	-1E+10	1	-1E+10	1	-1E+10	1	-1E+10	1	-1E+10	1
4901784	49	C	11/06/2016	10:49	-132.318	44.801	0	1715.10	0	2.1610	0	34.5830	0	27.634	0	1694.248	0	42.4	4	12.8	4	-1E+10	1	-1E+10	1	-1E+10	1	-1E+10	1	-1E+10	1	-1E+10	1
4901784	49	C	11/06/2016	10:49	-132.318	44.801	0	1720.50	0	2.1560	0	34.5840	0	27.635	0	1699.561	0	42.8	4	13.0	4	-1E+10	1	-1E+10	1	-1E+10	1	-1E+10	1	-1E+10	1	-1E+10	1
4901784	49	C	11/06/2016	10:49	-132.318	44.801	0	1725.00	0	2.1500	0	34.5850	0	27.637	0	1703.988	0	43.2	4	13.1	4	-1E+10	1	-1E+10	1	-1E+10	1	-1E+10	1	-1E+10	1	-1E+10	1
4901784	49	C	11/06/2016	10:49	-132.318	44.801	0	1729.40	0	2.1410	0	34.5860	0	27.638	0	1708.317	0	43.7	4	13.2	4	-1E+10	1	-1E+10	1	-1E+10	1	-1E+10	1	-1E+10	1	-1E+10	1
4901784	49	C	11/06/2016	10:49	-132.318	44.801	0	1734.90	0	2.1330	0	34.5870	0	27.640	0	1713.728	0	44.1	4	13.3	4	-1E+10	1	-1E+10	1	-1E+10	1	-1E+10	1	-1E+10	1	-1E+10	1
4901784	49	C	11/06/2016	10:49	-132.318	44.801	0	1740.30	0	2.1260	0	34.5880	0	27.641	0	1719.040	0	44.5	4	13.5	4	-1E+10	1	-1E+10	1	-1E+10	1	-1E+10	1	-1E+10	1	-1E+10	1
4901784	49	C	11/06/2016	10:49	-132.318	44.801	0	1744.80	0	2.1230	0	34.5890	0	27.642	0	1723.467	0	44.8	4	13.6	4	-1E+10	1	-1E+10	1	-1E+10	1	-1E+10	1	-1E+10	1	-1E+10	1
4901784	49	C	11/06/2016	10:49	-132.318	44.801	0	1749.30	0	2.1150	0	34.5900	0	27.643	0	1727.893	0	45.2	4	13.7	4	-1E+10	1	-1E+10	1	-1E+10	1	-1E+10	1	-1E+10	1	-1E+10	1
4901784	49	C	11/06/2016	10:49	-132.318	44.801	0	1754.80	0	2.1100	0	34.5910	0	27.645	0	1733.304	0	45.4	4	13.7	4	-1E+10	1	-1E+10	1	-1E+10	1	-1E+10	1	-1E+10	1	-1E+10	1
4901784	49	C	11/06/2016	10:49	-132.318	44.801	0	1760.40	0	2.1070	0	34.5910	0	27.645	0	1738.812	0	45.7	4	13.8	4	-1E+10	1	-1E+10	1	-1E+10	1	-1E+10	1	-1E+10	1	-1E+10	1
4901784	49	C	11/06/2016	10:49	-132.318	44.801	0	1765.00	0	2.1030	0	34.5920	0	27.646	0	1743.337	0	45.9	4	13.9	4	-1E+10	1	-1E+10	1	-1E+10	1	-1E+10	1	-1E+10	1	-1E+10	1
4901784	49	C	11/06/2016	10:49	-132.318	44.801	0	1769.90	0	2.1020	0	34.5920	0	27.646	0	1748.156	0	46.1	4	13.9	4	-1E+10	1	-1E+10	1	-1E+10	1	-1E+10	1	-1E+10	1	-1E+10	1
4901784	49	C	11/06/2016	10:49	-132.318	44.801	0	1775.10	0	2.0950	0	34.5930	0	27.648	0	1753.271	0	46.4	4	14.0	4	-1E+10	1	-1E+10	1	-1E+10	1	-1E+10	1	-1E+10	1	-1E+10	1
4901784	49	C	11/06/2016	10:49	-132.318	44.801	0	1779.90	0	2.0930	0	34.5940	0	27.649	0	1757.992	0	46.7	4	14.1	4	-1E+10	1	-1E+10	1	-1E+10	1	-1E+10	1	-1E+10	1	-1E+10	1
4901784	49	C	11/06/2016	10:49	-132.318	44.801	0	1784.80	0	2.0870	0	34.5950	0	27.650	0	1762.812	0	47.0	4	14.2	4	-1E+10	1	-1E+10	1	-1E+10	1	-1E+10	1	-1E+10	1	-1E+10	1
4901784	49	C	11/06/2016	10:49	-132.318	44.801	0	1789.70	0	2.0830	0	34.5950	0	27.650	0	1767.631	0	47.3	4	14.3	4	-1E+10	1	-1E+10	1	-1E+10	1	-1E+10	1	-1E+10	1	-1E+10	1
4901784	49	C	11/06/2016	10:49	-132.318	44.801	0	1794.70	0	2.0780	0	34.5960	0	27.651	0	1772.548	0	47.6	4	14.4	4	-1E+10	1	-1E+10	1	-1E+10	1	-1E+10	1	-1E+10	1	-1E+10	1
4901784	49	C	11/06/2016	10:49	-132.318	44.801	0	1799.70	0	2.0750	0	34.5960	0	27.652	0	1777.466	0	47.7	4	14.4	4	-1E+10	1	-1E+10	1	-1E+10	1	-1E+10	1	-1E+10	1	-1E+10	1
4901784	49	C	11/06/2016	10:49	-132.318	44.801	0	1804.80	0	2.0730	0	34.5970	0	27.653	0	1782.481	0	47.9	4	14.5	4	-1E+10	1	-1E+10	1	-1E+10	1	-1E+10	1	-1E+10	1	-1E+10	1
4901784	49	C	11/06/2016	10:49	-132.318	44.801	0	1809.80	0	2.0690	0	34.5970	0	27.653	0	1787.398	0	48.1	4	14.5	4	-1E+10	1	-1E+10	1	-1E+10	1	-1E+10	1	-1E+10	1	-1E+10	1
4901784	49	C	11/06/2016	10:49	-132.318	44.801	0	1814.90	0	2.0670	0	34.5980	0	27.654	0	1792.414	0	48.3	4	14.6	4	-1E+10	1	-1E+10	1	-1E+10	1	-1E+10	1	-1E+10	1	-1E+10	1
4901784	49	C	11/06/2016	10:49	-132.318	44.801	0	1820.00	0	2.0660	0	34.5980	0	27.654	0	1797.429	0	48.4	4	14.6	4	-1E+10	1	-1E+10	1	-1E+10	1	-1E+10	1	-1E+10	1	-1E+10	1
4901784	49	C	11/06/2016	10:49	-132.318	44.801	0	1825.10	0	2.0630	0	34.5990	0	27.655	0	1802.444	0	48.6	4	14.7	4	-1E+10	1	-1E+10	1	-1E+10	1	-1E+10	1	-1E+10	1	-1E+10	1
4901784	49	C	11/06/2016	10:49	-132.318	44.801	0	1830.20	0	2.0600	0	34.5990	0	27.655	0	1807.459	0	48.8	4	14.7	4	-1E+10	1	-1E+10	1	-1E+10	1	-1E+10	1	-1E+10	1	-1E+10	1
4901784	49	C	11/06/2016	10:49	-132.318	44.801	0	1835.40	0	2.0580	0	34.5990	0	27.656	0	1812.572	0	48.9	4	14.8	4	-1E+10	1	-1E+10	1	-1E+10	1	-1E+10	1	-1E+10	1	-1E+10	1
4901784	49	C	11/06/2016	10:49	-132.318	44.801	0	1840.60	0	2.0560	0	34.6000	0	27.657	0	1817.686	0	49.1	4	14.8	4	-1E+10	1	-1E+10	1	-1E+10	1	-1E+10	1	-1E+10	1	-1E+10	1
4901784	49	C	11/06/2016	10:49	-132.318	44.801	0	1844.90	0	2.0550	0	34.6000	0	27.657	0	1821.914	0	49.2	4	14.9	4	-1E+10	1	-1E+10	1	-1E+10	1	-1E+10	1	-1E+10	1	-1E+10	1
4901784	49	C	11/06/2016	10:49	-132.318	44.801	0	1849.30	0	2.0530	0	34.6000	0	27.657	0	1826.240	0	49.4	4	14.9	4	-1E+10	1	-1E+10	1	-1E+10	1	-1E+10	1	-1E+10	1	-1E+10	1
4901784	49	C	11/06/2016	10:49	-132.318	44.801	0	1854.60	0	2.0490	0	34.6010	0	27.658	0	1831.451	0	49.6	4	15.0	4	-1E+10	1	-1E+10	1	-1E+10	1	-1E+10	1	-1E+10	1	-1E+10	1
4901784	49	C	11/06/2016	10:49	-132.318	44.801	0	1860.00	0	2.0470	0	34.6010	0	27.658	0	1836.760	0	49.8	4	15.0	4	-1E+10	1	-1E+10	1	-1E+10	1	-1E+10	1	-1E+10	1	-1E+10	1
4901784	49	C	11/06/2016	10:49	-132.318	44.801	0	1865.30	0	2.0440	0	34.6020	0	27.659	0	1841.971	0	49.9	4	15.1	4	-1E+10	1	-1E+10	1	-1E+10	1	-1E+10	1	-1E+10	1	-1E+10	1
4901784	49	C	11/06/2016	10:49	-132.318	44.801	0	1869.80	0	2.0430	0	34.6020	0	27.659	0	1846.395	0	50.1	4	15.1	4	-1E+10	1	-1E+10	1	-1E+10	1	-1E+10	1	-1E+10	1	-1E+10	1
4901784	49	C	11/06/2016	10:49	-132.318	44.801	0	1874.30	0	2.0410	0	34.6020	0	27.660	0	1850.819	0	50.2	4	15.2	4	-1E+10	1	-1E+10	1	-1E+10	1	-1E+10	1	-1E+10	1	-1E+10	1
4901784	49	C	11/06/2016	10:49	-132.318	44.801	0	1879.70	0	2.0400	0	34.6020	0	27.660	0	1856.128	0	50.4	4	15.2	4	-1E+10	1	-1E+10	1	-1E+10	1	-1E+10	1	-1E+10	1	-1E+10	1
4901784	49	C	11/06/2016	10:49	-132.318	44.801	0	1885.10	0	2.0370	0	34.6030	0	27.661	0	1861.437	0	50.6	4	15.3	4	-1E+10	1	-1E+10	1	-1E+10	1	-1E+10	1	-1E+10	1	-1E+10	1
4901784	49	C	11/06/2016	10:49	-132.318	44.801	0	1890.50	0	2.0330	0	34.6040	0	27.662	0	1866.745	0	50.8	4	15.3	4	-1E+10	1	-1E+10	1	-1E+10	1	-1E+10	1	-1E+10	1	-1E+10	1
4901784	49	C	11/06/2016	10:49	-132.318	44.801	0	1895.40	0	2.0300	0	34.6040	0	27.662	0	1871.562	0	51.0	4	15.4	4	-1E+10	1	-1E+10	1	-1E+10	1	-1E+10	1	-1E+10	1	-1E+10	1
4901784	49	C	11/06/2016	10:49	-132.318	44.801	0	1900.40	0	2.0290	0	34.6040	0	27.662	0	1876.477	0	51.1	4	15.4	4	-1E+10	1	-1E+10	1	-1E+10	1	-1E+10	1	-1E+10	1	-1E+10	1
4901784	49	C	11/06/2016	10:49	-132.318	44.801	0	1905.30	0	2.0280	0	34.6040	0	27.662	0	1881.294	0	51.1	4	15.4	4	-1E+10	1	-1E+10	1	-1E+10	1	-1E+10	1	-1E+10	1	-1E+10	1
4901784	49	C	11/06/2016	10:49	-132.318	44.801	0	1910.30	0	2.0270	0	34.6050	0	27.663	0	1886.209	0	51.3	4	15.5	4	-1E+10	1	-1E+10	1	-1E+10	1	-1E+10	1	-1E+10	1	-1E+10	1
4901784	49	C	11/06/2016	10:49	-132.318	44.801	0	1915.20	0	2.0260	0	34.6050	0	27.663	0	1891.025	0	51.4	4	15.5	4	-1E+10	1	-1E+10	1	-1E+10	1	-1E+10	1	-1E+10	1	-1E+10	1
4901784	49	C	11/06/2016	10:49	-132.318	44.801	0	1920.20	0	2.0240	0	34.6050	0	27.664	0	1895.940	0	51.5	4	15.5	4	-1E+10	1	-1E+10	1	-1E+10	1	-1E+10	1	-1E+10	1	-1E+10	1
4901784	49	C	11/06/2016	10:49	-132.318	44.801	0	1925.20	0	2.0240	0	34.6050	0	27.664	0	1900.854	0	51.6	4	15.6	4	-1E+10	1	-1E+10	1	-1E+10	1	-1E+10	1	-1E+10	1	-1E+10	1
4901784	49	C	11/06/2016	10:49	-132.318	44.801	0	1930.20	0	2.0210	0	34.6060	0	27.665	0	1905.769	0	51.8	4	15.6	4	-1E+10	1	-1E+10	1	-1E+10	1	-1E+10	1	-1E+10	1	-1E+10	1
4901784	49	C	11/06/2016	10:49	-132.318	44.801	0	1935.20	0	2.0190	0	34.6060	0	27.665	0	1910.683	0	52.0	4	15.7	4	-1E+10	1	-1E+10	1	-1E+10	1	-1E+10	1	-1E+10	1	-1E+10	1
4901784	49	C	11/06/2016	10:49	-132.318	44.801	0	1940.30	0	2.0180	0	34.6070	0	27.666	0	1915.696	0	52.0	4	15.7	4	-1E+10	1	-1E+10	1	-1E+10	1	-1E+10	1	-1E+10	1	-1E+10	1
4901784	49	C	11/06/2016	10:49	-132.318	44.801	0	1945.40	0	2.0160	0	34.6070	0	27.666	0	1920.708	0	52.2	4	15.7	4	-1E+10	1	-1E+10	1	-1E+10	1	-1E+10	1	-1E+10	1	-1E+10	1
4901784	49	C	11/06/2016	10:49	-132.318	44.801	0	1950.50	0	2.0140	0	34.6070	0	27.666	0	1925.720	0	52.3	4	15.8	4	-1E+10	1	-1E+10	1	-1E+10	1	-1E+10	1	-1E+10	1	-1E+10	1
4901784	49	C	11/06/2016	10:49	-132.318	44.801	0	1955.70	0	2.0120	0	34.6070	0	27.666	0	1930.831	0	52.5	4	15.8	4	-1E+10	1	-1E+10	1	-1E+10	1	-1E+10	1	-1E+10	1	-1E+10	1
4901784	49	C	11/06/2016	10:49	-132.318	44.801	0	1960.00	0	2.0110	0	34.6080	0	27.667	0	1935.056	0	52.6	4	15.9	4	-1E+10	1	-1E+10	1	-1E+10	1	-1E+10	1	-1E+10	1	-1E+10	1
4901784	49	C	11/06/2016	10:49	-132.318	44.801	0	1964.40	0	2.0090	0	34.6080	0	27.667	0	1939.380	0	52.7	4	15.9	4	-1E+10	1	-1E+10	1	-1E+10	1	-1E+10	1	-1E+10	1	-1E+10	1
4901784	49	C	11/06/2016	10:49	-132.318	44.801	0	1969.50	0	2.0070	0	34.6080	0	27.668	0	1944.392	0	52.9	4	16.0	4	-1E+10	1	-1E+10	1	-1E+10	1	-1E+10	1	-1E+10	1	-1E+10	1
4901784	49	C	11/06/2016	10:49	-132.318	44.801	0	1974.70	0	2.0050	0	34.6090	0	27.669	0	1949.502	0	53.1	4	16.0	4	-1E+10	1	-1E+10	1	-1E+10	1	-1E+10	1	-1E+10	1	-1E+10	1
4901784	49	C	11/06/2016	10:49	-132.318	44.801	0	1979.90	0	2.0030	0	34.6090	0	27.669	0	1954.612	0	53.2	4	16.0	4	-1E+10	1	-1E+10	1	-1E+10	1	-1E+10	1	-1E+10	1	-1E+10	1
4901784	49	C	11/06/2016	10:49	-132.318	44.801	0	1985.10	0	2.0030	0	34.6090	0	27.669	0	1959.722	0	53.3	4	16.1	4	-1E+10	1	-1E+10	1	-1E+10	1	-1E+10	1	-1E+10	1	-1E+10	1
4901784	49	C	11/06/2016	10:49	-132.318	44.801	0	1990.40	0	2.0010	0	34.6100	0	27.670	0	1964.929	0	53.5	4	16.1	4	-1E+10	1	-1E+10	1	-1E+10	1	-1E+10	1	-1E+10	1	-1E+10	1
4901784	49	C	11/06/2016	10:49	-132.318	44.801	0	1995.60	0	1.9990	0	34.6100	0	27.670	0	1970.039	0	53.7	4	16.2	4	-1E+10	1	-1E+10	1	-1E+10	1	-1E+10	1	-1E+10	1	-1E+10	1
4901784	49	C	11/06/2016	10:49	-132.318	44.801	0	1999.90	0	1.9970	0	34.6100	0	27.670	0	1974.264	0	53.9	4	16.3	4	-1E+10	1	-1E+10	1	-1E+10	1	-1E+10	1	-1E+10	1	-1E+10	1
4901784	49	C	11/06/2016	10:49	-132.318	44.801	0	2004.20	0	1.9920	0	34.6110	0	27.671	0	1978.489	0	54.2	4	16.3	4	-1E+10	1	-1E+10	1	-1E+10	1	-1E+10	1	-1E+10	1	-1E+10	1
4901784	49	C	11/06/2016	10:49	-132.318	44.801	0	2009.50	0	1.9900	0	34.6120	0	27.672	0	1983.696	0	54.4	4	16.4	4	-1E+10	1	-1E+10	1	-1E+10	1	-1E+10	1	-1E+10	1	-1E+10	1
4901784	49	C	11/06/2016	10:49	-132.318	44.801	0	2015.40	0	1.9860	0	34.6120	0	27.673	0	1989.493	0	54.7	4	16.5	4	-1E+10	1	-1E+10	1	-1E+10	1	-1E+10	1	-1E+10	1	-1E+10	1
4901784	49	C	11/06/2016	10:49	-132.318	44.801	0	2020.20	0	1.9820	0	34.6130	0	27.674	0	1994.209	0	54.9	4	16.6	4	-1E+10	1	-1E+10	1	-1E+10	1	-1E+10	1	-1E+10	1	-1E+10	1
4901784	49	C	11/06/2016	10:49	-132.318	44.801	0																										
4901784	50	C	11/16/2016	10:47	-132.490	44.762	0	2.40	0	13.4670	0	32.7800	0	24.581	0	2.381	0	248.6	4	95.8	4	-1E+10	1	-1E+10	1	-1E+10	1	-1E+10	1	-1E+10	1	-1E+10	1
4901784	50	C	11/16/2016	10:47	-132.490	44.762	0	3.50	0	13.4690	0	32.7790	0	24.580	0	3.472	0	248.5	4	95.8	4	-1E+10	1	-1E+10	1	-1E+10	1	-1E+10	1	-1E+10	1	-1E+10	1
4901784	50	C	11/16/2016	10:47	-132.490	44.762	0	4.80	0	13.4640	0	32.7800	0	24.582	0	4.761	0	248.4	4	95.7	4	-1E+10	1	-1E+10	1	-1E+10	1	-1E+10	1	-1E+10	1	-1E+10	1
4901784	50	C	11/16/2016	10:47	-132.490	44.762	0	6.20	0	13.4630	0	32.7790	0	24.581	0	6.150	0	248.4	4	95.7	4	-1E+10	1	-1E+10	1	-1E+10	1	-1E+10	1	-1E+10	1	-1E+10	1
4901784	50	C	11/16/2016	10:47	-132.490	44.762	0	7.60	0	13.4590	0	32.7800	0	24.583	0	7.538	0	248.3	4	95.7	4	-1E+10	1	-1E+10	1	-1E+10	1	-1E+10	1	-1E+10	1	-1E+10	1
4901784	50	C	11/16/2016	10:47	-132.490	44.762	0	8.90	0	13.4580	0	32.7800	0	24.583	0	8.828	0	248.4	4	95.7	4	-1E+10	1	-1E+10	1	-1E+10	1	-1E+10	1	-1E+10	1	-1E+10	1
4901784	50	C	11/16/2016	10:47	-132.490	44.762	0	10.20	0	13.4590	0	32.7800	0	24.583	0	10.117	0	248.4	4	95.7	4	-1E+10	1	-1E+10	1	-1E+10	1	-1E+10	1	-1E+10	1	-1E+10	1
4901784	50	C	11/16/2016	10:47	-132.490	44.762	0	11.70	0	13.4620	0	32.7800	0	24.583	0	11.605	0	248.4	4	95.7	4	-1E+10	1	-1E+10	1	-1E+10	1	-1E+10	1	-1E+10	1	-1E+10	1
4901784	50	C	11/16/2016	10:47	-132.490	44.762	0	13.10	0	13.4680	0	32.7800	0	24.581	0	12.994	0	248.2	4	95.7	4	-1E+10	1	-1E+10	1	-1E+10	1	-1E+10	1	-1E+10	1	-1E+10	1
4901784	50	C	11/16/2016	10:47	-132.490	44.762	0	14.80	0	13.4680	0	32.7800	0	24.581	0	14.680	0	248.3	4	95.7	4	-1E+10	1	-1E+10	1	-1E+10	1	-1E+10	1	-1E+10	1	-1E+10	1
4901784	50	C	11/16/2016	10:47	-132.490	44.762	0	16.40	0	13.4660	0	32.7800	0	24.582	0	16.267	0	248.2	4	95.7	4	-1E+10	1	-1E+10	1	-1E+10	1	-1E+10	1	-1E+10	1	-1E+10	1
4901784	50	C	11/16/2016	10:47	-132.490	44.762	0	18.00	0	13.4680	0	32.7800	0	24.582	0	17.854	0	248.1	4	95.6	4	-1E+10	1	-1E+10	1	-1E+10	1	-1E+10	1	-1E+10	1	-1E+10	1
4901784	50	C	11/16/2016	10:47	-132.490	44.762	0	19.60	0	13.4680	0	32.7800	0	24.582	0	19.440	0	248.1	4	95.6	4	-1E+10	1	-1E+10	1	-1E+10	1	-1E+10	1	-1E+10	1	-1E+10	1
4901784	50	C	11/16/2016	10:47	-132.490	44.762	0	21.40	0	13.4660	0	32.7800	0	24.582	0	21.226	0	247.9	4	95.6	4	-1E+10	1	-1E+10	1	-1E+10	1	-1E+10	1	-1E+10	1	-1E+10	1
4901784	50	C	11/16/2016	10:47	-132.490	44.762	0	23.20	0	13.4700	0	32.7800	0	24.581	0	23.011	0	248.1	4	95.6	4	-1E+10	1	-1E+10	1	-1E+10	1	-1E+10	1	-1E+10	1	-1E+10	1
4901784	50	C	11/16/2016	10:47	-132.490	44.762	0	25.00	0	13.4740	0	32.7800	0	24.581	0	24.796	0	247.7	4	95.5	4	-1E+10	1	-1E+10	1	-1E+10	1	-1E+10	1	-1E+10	1	-1E+10	1
4901784	50	C	11/16/2016	10:47	-132.490	44.762	0	27.00	0	13.4750	0	32.7790	0	24.580	0	26.780	0	247.7	4	95.5	4	-1E+10	1	-1E+10	1	-1E+10	1	-1E+10	1	-1E+10	1	-1E+10	1
4901784	50	C	11/16/2016	10:47	-132.490	44.762	0	29.00	0	13.4750	0	32.7800	0	24.580	0	28.763	0	247.8	4	95.5	4	-1E+10	1	-1E+10	1	-1E+10	1	-1E+10	1	-1E+10	1	-1E+10	1
4901784	50	C	11/16/2016	10:47	-132.490	44.762	0	30.90	0	13.4760	0	32.7800	0	24.580	0	30.648	0	247.6	4	95.5	4	-1E+10	1	-1E+10	1	-1E+10	1	-1E+10	1	-1E+10	1	-1E+10	1
4901784	50	C	11/16/2016	10:47	-132.490	44.762	0	32.70	0	13.4760	0	32.7800	0	24.580	0	32.433	0	247.5	4	95.4	4	-1E+10	1	-1E+10	1	-1E+10	1	-1E+10	1	-1E+10	1	-1E+10	1
4901784	50	C	11/16/2016	10:47	-132.490	44.762	0	34.70	0	13.4780	0	32.7800	0	24.580	0	34.416	0	247.3	4	95.3	4	-1E+10	1	-1E+10	1	-1E+10	1	-1E+10	1	-1E+10	1	-1E+10	1
4901784	50	C	11/16/2016	10:47	-132.490	44.762	0	36.60	0	13.4770	0	32.7800	0	24.580	0	36.300	0	247.3	4	95.3	4	-1E+10	1	-1E+10	1	-1E+10	1	-1E+10	1	-1E+10	1	-1E+10	1
4901784	50	C	11/16/2016	10:47	-132.490	44.762	0	38.40	0	13.4770	0	32.7800	0	24.580	0	38.086	0	246.9	4	95.2	4	-1E+10	1	-1E+10	1	-1E+10	1	-1E+10	1	-1E+10	1	-1E+10	1
4901784	50	C	11/16/2016	10:47	-132.490	44.762	0	40.20	0	13.4790	0	32.7800	0	24.580	0	39.871	0	247.0	4	95.2	4	-1E+10	1	-1E+10	1	-1E+10	1	-1E+10	1	-1E+10	1	-1E+10	1
4901784	50	C	11/16/2016	10:47	-132.490	44.762	0	42.10	0	13.4790	0	32.7800	0	24.580	0	41.755	0	246.9	4	95.2	4	-1E+10	1	-1E+10	1	-1E+10	1	-1E+10	1	-1E+10	1	-1E+10	1
4901784	50	C	11/16/2016	10:47	-132.490	44.762	0	43.80	0	13.4780	0	32.7790	0	24.579	0	43.441	0	246.8	4	95.1	4	-1E+10	1	-1E+10	1	-1E+10	1	-1E+10	1	-1E+10	1	-1E+10	1
4901784	50	C	11/16/2016	10:47	-132.490	44.762	0	45.60	0	13.4780	0	32.7800	0	24.580	0	45.226	0	246.8	4	95.1	4	-1E+10	1	-1E+10	1	-1E+10	1	-1E+10	1	-1E+10	1	-1E+10	1
4901784	50	C	11/16/2016	10:47	-132.490	44.762	0	47.30	0	13.4760	0	32.7800	0	24.581	0	46.912	0	246.5	4	95.0	4	-1E+10	1	-1E+10	1	-1E+10	1	-1E+10	1	-1E+10	1	-1E+10	1
4901784	50	C	11/16/2016	10:47	-132.490	44.762	0	49.00	0	13.4760	0	32.7790	0	24.580	0	48.598	0	246.2	4	94.9	4	-1E+10	1	-1E+10	1	-1E+10	1	-1E+10	1	-1E+10	1	-1E+10	1
4901784	50	C	11/16/2016	10:47	-132.490	44.762	0	50.60	0	13.4750	0	32.7790	0	24.580	0	50.184	0	246.0	4	94.8	4	-1E+10	1	-1E+10	1	-1E+10	1	-1E+10	1	-1E+10	1	-1E+10	1
4901784	50	C	11/16/2016	10:47	-132.490	44.762	0	52.30	0	13.4740	0	32.7780	0	24.580	0	51.870	0	246.1	4	94.8	4	-1E+10	1	-1E+10	1	-1E+10	1	-1E+10	1	-1E+10	1	-1E+10	1
4901784	50	C	11/16/2016	10:47	-132.490	44.762	0	54.00	0	13.4740	0	32.7770	0	24.579	0	53.556	0	245.6	4	94.7	4	-1E+10	1	-1E+10	1	-1E+10	1	-1E+10	1	-1E+10	1	-1E+10	1
4901784	50	C	11/16/2016	10:47	-132.490	44.762	0	55.70	0	13.4750	0	32.7760	0	24.578	0	55.242	0	245.6	4	94.7	4	-1E+10	1	-1E+10	1	-1E+10	1	-1E+10	1	-1E+10	1	-1E+10	1
4901784	50	C	11/16/2016	10:47	-132.490	44.762	0	57.50	0	13.4740	0	32.7740	0	24.577	0	57.027	0	245.4	4	94.6	4	-1E+10	1	-1E+10	1	-1E+10	1	-1E+10	1	-1E+10	1	-1E+10	1
4901784	50	C	11/16/2016	10:47	-132.490	44.762	0	59.30	0	13.4720	0	32.7720	0	24.576	0	58.811	0	245.3	4	94.5	4	-1E+10	1	-1E+10	1	-1E+10	1	-1E+10	1	-1E+10	1	-1E+10	1
4901784	50	C	11/16/2016	10:47	-132.490	44.762	0	61.30	0	13.4570	0	32.7690	0	24.576	0	60.795	0	245.2	4	94.5	4	-1E+10	1	-1E+10	1	-1E+10	1	-1E+10	1	-1E+10	1	-1E+10	1
4901784	50	C	11/16/2016	10:47	-132.490	44.762	0	61.70	0	13.4120	4	32.7710	4	24.587	0	61.191	0	245.4	4	94.5	4	-1E+10	1	-1E+10	1	-1E+10	1	-1E+10	1	-1E+10	1	-1E+10	1
4901784	50	C	11/16/2016	10:47	-132.490	44.762	0	63.10	0	13.4650	0	32.7590	4	24.567	0	62.580	0	245.3	4	94.5	4	-1E+10	1	-1E+10	1	-1E+10	1	-1E+10	1	-1E+10	1	-1E+10	1
4901784	50	C	11/16/2016	10:47	-132.490	44.762	0	64.30	0	13.3830	0	32.7530	0	24.579	0	63.770	0	245.5	4	94.5	4	-1E+10	1	-1E+10	1	-1E+10	1	-1E+10	1	-1E+10	1	-1E+10	1
4901784	50	C	11/16/2016	10:47	-132.490	44.762	0	65.50	0	13.2980	0	32.7400	0	24.586	0	64.959	0	246.2	4	94.5	4	-1E+10	1	-1E+10	1	-1E+10	1	-1E+10	1	-1E+10	1	-1E+10	1
4901784	50	C	11/16/2016	10:47	-132.490	44.762	0	66.80	0	12.8070	0	32.7370	0	24.680	0	66.248	0	248.4	4	94.4	4	-1E+10	1	-1E+10	1	-1E+10	1	-1E+10	1	-1E+10	1	-1E+10	1
4901784	50	C	11/16/2016	10:47	-132.490	44.762	0	68.30	0	11.7510	0	32.7640	0	24.901	0	67.736	0	252.5	4	93.9	4	-1E+10	1	-1E+10	1	-1E+10	1	-1E+10	1	-1E+10	1	-1E+10	1
4901784	50	C	11/16/2016	10:47	-132.490	44.762	0	69.90	0	10.3270	0	32.8540	0	25.223	0	69.322	0	259.7	4	93.8	4	-1E+10	1	-1E+10	1	-1E+10	1	-1E+10	1	-1E+10	1	-1E+10	1
4901784	50	C	11/16/2016	10:47	-132.490	44.762	0	71.70	0	9.8720	0	32.8860	0	25.325	0	71.107	0	261.0	4	93.3	4	-1E+10	1	-1E+10	1	-1E+10	1	-1E+10	1	-1E+10	1	-1E+10	1
4901784	50	C	11/16/2016	10:47	-132.490	44.762	0	73.50	0	9.7350	0	32.8840	0	25.346	0	72.892	0	261.0	4	93.1	4	-1E+10	1	-1E+10	1	-1E+10	1	-1E+10	1	-1E+10	1	-1E+10	1
4901784	50	C	11/16/2016	10:47	-132.490	44.762	0	75.30	0	9.6180	0	32.8870	0	25.367	0	74.677	0	260.4	4	92.6	4	-1E+10	1	-1E+10	1	-1E+10	1	-1E+10	1	-1E+10	1	-1E+10	1
4901784	50	C	11/16/2016	10:47	-132.490	44.762	0	77.10	0	9.5730	0	32.8830	0	25.371	0	76.462	0	259.8	4	92.3	4	-1E+10	1	-1E+10	1	-1E+10	1	-1E+10	1	-1E+10	1	-1E+10	1
4901784	50	C	11/16/2016	10:47	-132.490	44.762	0	78.90	0	9.5320	0	32.8900	0	25.383	0	78.246	0	258.8	4	91.9	4	-1E+10	1	-1E+10	1	-1E+10	1	-1E+10	1	-1E+10	1	-1E+10	1
4901784	50	C	11/16/2016	10:47	-132.490	44.762	0	81.20	0	9.4930	0	32.9020	0	25.399	0	80.527	0	258.0	4	91.5	4	-1E+10	1	-1E+10	1	-1E+10	1	-1E+10	1	-1E+10	1	-1E+10	1
4901784	50	C	11/16/2016	10:47	-132.490	44.762	0	83.00	0	9.4430	0	32.9060	0	25.410	0	82.312	0	257.6	4	91.3	4	-1E+10	1	-1E+10	1	-1E+10	1	-1E+10	1	-1E+10	1	-1E+10	1
4901784	50	C	11/16/2016	10:47	-132.490	44.762	0	84.50	0	9.4420	0	32.9050	0	25.410	0	83.799	0	257.1	4	91.1	4	-1E+10	1	-1E+10	1	-1E+10	1	-1E+10	1	-1E+10	1	-1E+10	1
4901784	50	C	11/16/2016	10:47	-132.490	44.762	0	86.10	0	9.4050	0	32.9100	0	25.420	0	85.385	0	256.5	4	90.8	4	-1E+10	1	-1E+10	1	-1E+10	1	-1E+10	1	-1E+10	1	-1E+10	1
4901784	50	C	11/16/2016	10:47	-132.490	44.762	0	87.60	0	9.3080	0	32.9160	0	25.440	0	86.872	0	256.4	4	90.6	4	-1E+10	1	-1E+10	1	-1E+10	1	-1E+10	1	-1E+10	1	-1E+10	1
4901784	50	C	11/16/2016	10:47	-132.490	44.762	0	89.10	0	9.2780	0	32.9150	0	25.444	0	88.360	0	255.9	4	90.4	4	-1E+10	1	-1E+10	1	-1E+10	1	-1E+10	1	-1E+10	1	-1E+10	1
4901784	50	C	11/16/2016	10:47	-132.490	44.762	0	90.60	0	9.2130	0	32.9130	0	25.453	0	89.847	0	255.7	4	90.2	4	-1E+10	1	-1E+10	1	-1E+10	1	-1E+10	1	-1E+10	1	-1E+10	1
4901784	50	C	11/16/2016	10:47	-132.490	44.762	0	92.20	0	9.1400	0	32.9150	0	25.466	0	91.433	0	255.6	4	90.0	4	-1E+10	1	-1E+10	1	-1E+10	1	-1E+10	1	-1E+10	1	-1E+10	1
4901784	50	C	11/16/2016	10:47	-132.490	44.762	0	93.80	0	9.1040	0	32.9140	0	25.471	0	93.019	0	254.9	4	89.7	4	-1E+10	1	-1E+10	1	-1E+10	1	-1E+10	1	-1E+10	1	-1E+10	1
4901784	50	C	11/16/2016	10:47	-132.490	44.762	0	95.40	0	9.0710	0	32.9170	0	25.478	0	94.606	0	254.0	4	89.3	4	-1E+10	1	-1E+10	1	-1E+10	1	-1E+10	1	-1E+10	1	-1E+10	1
4901784	50	C	11/16/2016	10:47	-132.490	44.762	0	97.00	0	8.9940	0	32.9310	0	25.501	0	96.192	0	253.1	4	88.8	4	-1E+10	1	-1E+10	1	-1E+10	1	-1E+10	1	-1E+10	1	-1E+10	1
4901784	50	C	11/16/2016	10:47	-132.490	44.762	0	98.70	0	8.9540	0	32.9390	0	25.514	0	97.878	0	251.8	4	88.3	4	-1E+10	1	-1E+10	1	-1E+10	1	-1E+10	1	-1E+10	1	-1E+10	1
4901784	50	C	11/16/2016	10:47	-132.490	44.762	0	100.40	0	8.9340	0	32.9500	0	25.525	0	99.563	0	249.9	4	87.6	4	-1E+10	1	-1E+10	1	-1E+10	1	-1E+10	1	-1E+10	1	-1E+10	1
4901784	50	C	11/16/2016	10:47	-132.490	44.762	0	102.90	0	9.0070	0	32.9830	0	25.540	0	102.042	0	246.0	4	86.4	4	-1E+10	1	-1E+10	1	-1E+10	1	-1E+10	1	-1E+10	1	-1E+10	1
4901784	50	C	11/16/2016	10:47	-132.490	44.762	0	105.30	0	9.1130	0	33.0370	0	25.566	0	104.421	0	242.5	4	85.4	4	-1E+10	1	-1E+10	1	-1E+10	1	-1E+10	1	-1E+10	1	-1E+10	1
4901784	50	C	11/16/2016	10:47	-132.490	44.762	0	107.10	0	9.1150	0	33.0490	0	25.575	0	106.205	0	240.9	4	84.8	4	-1E+10	1	-1E+10	1	-1E+10	1	-1E+10	1	-1E+10	1	-1E+10	1
4901784	50	C	11/16/2016	10:47	-132.490	44.762	0	110.20	0	9.0830	0	33.0630	0	25.591	0	109.279	0	237.7	4	83.7	4	-1E+10	1	-1E+10	1	-1E+10	1	-1E+10	1	-1E+10	1	-1E+10	1
4901784	50	C	11/16/2016	10:47	-132.490	44.762	0	112.60	0	9.0500	0	33.0960	0	25.622	0	111.658	0	234.1	4	82.4	4	-1E+10	1	-1E+10	1	-1E+10	1	-1E+10	1	-1E+10	1	-1E+10	1
4901784	50	C	11/16/2016	10:47	-132.490	44.762	0	114.70	0	9.0450	0	33.1220	0	25.643	0	113.740	0	230.0	4	80.9	4	-1E+10	1	-1E+10	1	-1E+10	1	-1E+10	1	-1E+10	1	-1E+10	1
4901784	50	C	11/16/2016	10:47	-132.490	44.762	0	117.70	0	9.0400	0	33.2050	0	25.709	0	116.714	0	223.8	4	78.8	4	-1E+10	1	-1E+10	1	-1E+10	1	-1E+10	1	-1E+10	1	-1E+10	1
4901784	50	C	11/16/2016	10:47	-132.490	44.762	0	119.80	0	9.0240	0	33.2530	0	25.749	0	118.796	0	219.2	4	77.2	4	-1E+10	1	-1E+10	1	-1E+10	1	-1E+10	1	-1E+10	1	-1E+10	1
4901784	50	C	11/16/2016	10:47	-132.490	44.762	0	122.20	0	9.0160	0	33.3040	0	25.790	0	121.175	0	214.0	4	75.3	4	-1E+10	1	-1E+10	1	-1E+10	1	-1E+10	1	-1E+10	1	-1E+10	1
4901784	50	C	11/16/2016	10:47	-132.490	44.762	0	125.40	0	8.9880	0	33.3930	0	25.864	0	124.347	0	208.0	4	73.2	4	-1E+10	1	-1E+10	1	-1E+10	1	-1E+10	1	-1E+10	1	-1E+10	1
4901784	50	C	11/16/2016	10:47	-132.490	44.762	0	127.90	0	8.9170	0	33.4750	0	25.940	0	126.825	0	204.6	4	72.0	4	-1E+10	1	-1E+10	1	-1E+10	1	-1E+10	1	-1E+10	1	-1E+10	1
4901784	50	C	11/16/2016	10:47	-132.490	44.762	0	130.30	0	8.8930	0	33.5040	0	25.966	0	129.204	0	202.2	4	71.1	4	-1E+10	1	-1E+10	1	-1E+10	1	-1E+10	1	-1E+10	1	-1E+10	1
4901784	50	C	11/16/2016	10:47	-132.490	44.762	0	132.90	0	8.8700	0	33.5350	0	25.994	0	131.782	0	199.6	4	70.2	4	-1E+10	1	-1E+10	1	-1E+10	1	-1E+10	1	-1E+10	1	-1E+10	1
4901784	50	C	11/16/2016	10:47	-132.490	44.762	0	134.70	0	8.8350	0	33.5680	0	26.025	0	133.566	0	197.8	4	69.5	4	-1E+10	1	-1E+10	1	-1E+10	1	-1E+10	1	-1E+10	1	-1E+10	1
4901784	50	C	11/16/2016	10:47	-132.490	44.762	0	137.30	0	8.7800	0	33.6240	0	26.078	0	136.143	0	195.3	4	68.6	4	-1E+10	1	-1E+10	1	-1E+10	1	-1E+10	1	-1E+10	1	-1E+10	1
4901784	50	C	11/16/2016	10:47	-132.490	44.762	0	139.90	0	8.7310	0	33.6700	0	26.121	0	138.720	0	193.7	4	68.0	4	-1E+10	1	-1E+10	1	-1E+10	1	-1E+10	1	-1E+10	1	-1E+10	1
4901784	50	C	11/16/2016	10:47	-132.490	44.762	0	142.50	0	8.7070	0	33.6950	0	26.145	0	141.298	0	191.7	4	67.2	4	-1E+10	1	-1E+10	1	-1E+10	1	-1E+10	1	-1E+10	1	-1E+10	1
4901784	50	C	11/16/2016	10:47	-132.490	44.762	0	145.10	0	8.6280	0	33.7310	0	26.185	0	143.875	0	190.1	4	66.6	4	-1E+10	1	-1E+10	1	-1E+10	1	-1E+10	1	-1E+10	1	-1E+10	1
4901784	50	C	11/16/2016	10:47	-132.490	44.762	0	147.70	0	8.5620	0	33.7580	0	26.217	0	146.452	0	189.0	4	66.1	4	-1E+10	1	-1E+10	1	-1E+10	1	-1E+10	1	-1E+10	1	-1E+10	1
4901784	50	C	11/16/2016	10:47	-132.490	44.762	0	150.40	0	8.5100	0	33.7830	0	26.244	0	149.128	0	188.3	4	65.8	4	-1E+10	1	-1E+10	1	-1E+10	1	-1E+10	1	-1E+10	1	-1E+10	1
4901784	50	C	11/16/2016	10:47	-132.490	44.762	0	152.20	0	8.4950	0	33.7960	0	26.257	0	150.912	0	187.6	4	65.6	4	-1E+10	1	-1E+10	1	-1E+10	1	-1E+10	1	-1E+10	1	-1E+10	1
4901784	50	C	11/16/2016	10:47	-132.490	44.762	0	154.80	0	8.4640	0	33.8130	0	26.275	0	153.489	0	186.8	4	65.2	4	-1E+10	1	-1E+10	1	-1E+10	1	-1E+10	1	-1E+10	1	-1E+10	1
4901784	50	C	11/16/2016	10:47	-132.490	44.762	0	157.50	0	8.4250	0	33.8270	0	26.292	0	156.165	0	186.1	4	64.9	4	-1E+10	1	-1E+10	1	-1E+10	1	-1E+10	1	-1E+10	1	-1E+10	1
4901784	50	C	11/16/2016	10:47	-132.490	44.762	0	160.10	0	8.4050	0	33.8320	0	26.299	0	158.742	0	185.2	4	64.6	4	-1E+10	1	-1E+10	1	-1E+10	1	-1E+10	1	-1E+10	1	-1E+10	1
4901784	50	C	11/16/2016	10:47	-132.490	44.762	0	162.80	0	8.3670	0	33.8390	0	26.310	0	161.418	0	184.3	4	64.2	4	-1E+10	1	-1E+10	1	-1E+10	1	-1E+10	1	-1E+10	1	-1E+10	1
4901784	50	C	11/16/2016	10:47	-132.490	44.762	0	164.50	0	8.3250	0	33.8450	0	26.321	0	163.103	0	183.7	4	64.0	4	-1E+10	1	-1E+10	1	-1E+10	1	-1E+10	1	-1E+10	1	-1E+10	1
4901784	50	C	11/16/2016	10:47	-132.490	44.762	0	167.20	0	8.2890	0	33.8500	0	26.330	0	165.779	0	182.8	4	63.6	4	-1E+10	1	-1E+10	1	-1E+10	1	-1E+10	1	-1E+10	1	-1E+10	1
4901784	50	C	11/16/2016	10:47	-132.490	44.762	0	169.90	0	8.2570	0	33.8630	0	26.345	0	168.455	0	181.7	4	63.2	4	-1E+10	1	-1E+10	1	-1E+10	1	-1E+10	1	-1E+10	1	-1E+10	1
4901784	50	C	11/16/2016	10:47	-132.490	44.762	0	172.60	0	8.2070	0	33.8690	0	26.358	0	171.131	0	180.4	4	62.7	4	-1E+10	1	-1E+10	1	-1E+10	1	-1E+10	1	-1E+10	1	-1E+10	1
4901784	50	C	11/16/2016	10:47	-132.490	44.762	0	175.20	0	8.1190	0	33.8800	0	26.379	0	173.708	0	179.4	4	62.2	4	-1E+10	1	-1E+10	1	-1E+10	1	-1E+10	1	-1E+10	1	-1E+10	1
4901784	50	C	11/16/2016	10:47	-132.490	44.762	0	177.00	0	8.1000	0	33.8810	0	26.383	0	175.492	0	178.9	4	62.0	4	-1E+10	1	-1E+10	1	-1E+10	1	-1E+10	1	-1E+10	1	-1E+10	1
4901784	50	C	11/16/2016	10:47	-132.490	44.762	0	179.70	0	8.0720	0	33.8850	0	26.390	0	178.168	0	177.8	4	61.6	4	-1E+10	1	-1E+10	1	-1E+10	1	-1E+10	1	-1E+10	1	-1E+10	1
4901784	50	C	11/16/2016	10:47	-132.490	44.762	0	182.40	0	8.0590	0	33.8850	0	26.392	0	180.843	0	176.6	4	61.1	4	-1E+10	1	-1E+10	1	-1E+10	1	-1E+10	1	-1E+10	1	-1E+10	1
4901784	50	C	11/16/2016	10:47	-132.490	44.762	0	185.00	0	8.0010	0	33.8910	0	26.406	0	183.420	0	174.7	4	60.4	4	-1E+10	1	-1E+10	1	-1E+10	1	-1E+10	1	-1E+10	1	-1E+10	1
4901784	50	C	11/16/2016	10:47	-132.490	44.762	0	187.70	0	7.8980	0	33.9010	0	26.429	0	186.096	0	173.3	4	59.8	4	-1E+10	1	-1E+10	1	-1E+10	1	-1E+10	1	-1E+10	1	-1E+10	1
4901784	50	C	11/16/2016	10:47	-132.490	44.762	0	189.50	0	7.8660	0	33.9020	0	26.434	0	187.880	0	172.6	4	59.5	4	-1E+10	1	-1E+10	1	-1E+10	1	-1E+10	1	-1E+10	1	-1E+10	1
4901784	50	C	11/16/2016	10:47	-132.490	44.762	0	192.20	0	7.8060	0	33.9070	0	26.447	0	190.555	0	171.0	4	58.9	4	-1E+10	1	-1E+10	1	-1E+10	1	-1E+10	1	-1E+10	1	-1E+10	1
4901784	50	C	11/16/2016	10:47	-132.490	44.762	0	195.00	0	7.7470	0	33.9110	0	26.459	0	193.330	0	169.7	4	58.4	4	-1E+10	1	-1E+10	1	-1E+10	1	-1E+10	1	-1E+10	1	-1E+10	1
4901784	50	C	11/16/2016	10:47	-132.490	44.762	0	197.70	0	7.7110	0	33.9140	0	26.466	0	196.006	0	168.4	4	57.9	4	-1E+10	1	-1E+10	1	-1E+10	1	-1E+10	1	-1E+10	1	-1E+10	1
4901784	50	C	11/16/2016	10:47	-132.490	44.762	0	200.50	0	7.6800	0	33.9130	0	26.470	0	198.780	0	166.9	4	57.3	4	-1E+10	1	-1E+10	1	-1E+10	1	-1E+10	1	-1E+10	1	-1E+10	1
4901784	50	C	11/16/2016	10:47	-132.490	44.762	0	202.40	0	7.6340	0	33.9160	0	26.479	0	200.663	0	166.0	4	56.9	4	-1E+10	1	-1E+10	1	-1E+10	1	-1E+10	1	-1E+10	1	-1E+10	1
4901784	50	C	11/16/2016	10:47	-132.490	44.762	0	205.20	0	7.5710	0	33.9160	0	26.488	0	203.438	0	165.0	4	56.5	4	-1E+10	1	-1E+10	1	-1E+10	1	-1E+10	1	-1E+10	1	-1E+10	1
4901784	50	C	11/16/2016	10:47	-132.490	44.762	0	208.10	0	7.5290	0	33.9160	0	26.494	0	206.311	0	164.0	4	56.1	4	-1E+10	1	-1E+10	1	-1E+10	1	-1E+10	1	-1E+10	1	-1E+10	1
4901784	50	C	11/16/2016	10:47	-132.490	44.762	0	210.00	0	7.5110	0	33.9190	0	26.499	0	208.194	0	163.3	4	55.8	4	-1E+10	1	-1E+10	1	-1E+10	1	-1E+10	1	-1E+10	1	-1E+10	1
4901784	50	C	11/16/2016	10:47	-132.490	44.762	0	211.90	0	7.5140	0	33.9200	0	26.499	0	210.077	0	162.6	4	55.6	4	-1E+10	1	-1E+10	1	-1E+10	1	-1E+10	1	-1E+10	1	-1E+10	1
4901784	50	C	11/16/2016	10:47	-132.490	44.762	0	214.80	0	7.4770	0	33.9230	0	26.507	0	212.950	0	161.6	4	55.2	4	-1E+10	1	-1E+10	1	-1E+10	1	-1E+10	1	-1E+10	1	-1E+10	1
4901784	50	C	11/16/2016	10:47	-132.490	44.762	0	217.50	0	7.4440	0	33.9250	0	26.513	0	215.626	0	160.3	4	54.8	4	-1E+10	1	-1E+10	1	-1E+10	1	-1E+10	1	-1E+10	1	-1E+10	1
4901784	50	C	11/16/2016	10:47	-132.490	44.762	0	219.40	0	7.4080	0	33.9240	0	26.518	0	217.508	0	159.7	4	54.5	4	-1E+10	1	-1E+10	1	-1E+10	1	-1E+10	1	-1E+10	1	-1E+10	1
4901784	50	C	11/16/2016	10:47	-132.490	44.762	0	222.30	0	7.3850	0	33.9230	0	26.520	0	220.382	0	158.6	4	54.1	4	-1E+10	1	-1E+10	1	-1E+10	1	-1E+10	1	-1E+10	1	-1E+10	1
4901784	50	C	11/16/2016	10:47	-132.490	44.762	0	225.10	0	7.3270	0	33.9260	0	26.531	0	223.156	0	157.4	4	53.6	4	-1E+10	1	-1E+10	1	-1E+10	1	-1E+10	1	-1E+10	1	-1E+10	1
4901784	50	C	11/16/2016	10:47	-132.490	44.762	0	227.00	0	7.3050	0	33.9260	0	26.534	0	225.039	0	156.9	4	53.4	4	-1E+10	1	-1E+10	1	-1E+10	1	-1E+10	1	-1E+10	1	-1E+10	1
4901784	50	C	11/16/2016	10:47	-132.490	44.762	0	229.90	0	7.2650	0	33.9280	0	26.541	0	227.912	0	156.0	4	53.0	4	-1E+10	1	-1E+10	1	-1E+10	1	-1E+10	1	-1E+10	1	-1E+10	1
4901784	50	C	11/16/2016	10:47	-132.490	44.762	0	232.80	0	7.2420	0	33.9280	0	26.544	0	230.785	0	154.9	4	52.7	4	-1E+10	1	-1E+10	1	-1E+10	1	-1E+10	1	-1E+10	1	-1E+10	1
4901784	50	C	11/16/2016	10:47	-132.490	44.762	0	234.70	0	7.2040	0	33.9300	0	26.551	0	232.668	0	154.3	4	52.4	4	-1E+10	1	-1E+10	1	-1E+10	1	-1E+10	1	-1E+10	1	-1E+10	1
4901784	50	C	11/16/2016	10:47	-132.490	44.762	0	237.60	0	7.1630	0	33.9310	0	26.558	0	235.541	0	152.8	4	51.9	4	-1E+10	1	-1E+10	1	-1E+10	1	-1E+10	1	-1E+10	1	-1E+10	1
4901784	50	C	11/16/2016	10:47	-132.490	44.762	0	240.50	0	7.1100	0	33.9300	0	26.564	0	238.414	0	151.7	4	51.4	4	-1E+10	1	-1E+10	1	-1E+10	1	-1E+10	1	-1E+10	1	-1E+10	1
4901784	50	C	11/16/2016	10:47	-132.490	44.762	0	242.40	0	7.0820	0	33.9320	0	26.570	0	240.297	0	151.0	4	51.1	4	-1E+10	1	-1E+10	1	-1E+10	1	-1E+10	1	-1E+10	1	-1E+10	1
4901784	50	C	11/16/2016	10:47	-132.490	44.762	0	245.20	0	7.0330	0	33.9320	0	26.576	0	243.071	0	149.7	4	50.6	4	-1E+10	1	-1E+10	1	-1E+10	1	-1E+10	1	-1E+10	1	-1E+10	1
4901784	50	C	11/16/2016	10:47	-132.490	44.762	0	248.10	0	7.0020	0	33.9310	0	26.580	0	245.944	0	148.4	4	50.2	4	-1E+10	1	-1E+10	1	-1E+10	1	-1E+10	1	-1E+10	1	-1E+10	1
4901784	50	C	11/16/2016	10:47	-132.490	44.762	0	250.60	0	6.9500	0	33.9310	0	26.587	0	248.421	0	147.4	4	49.8	4	-1E+10	1	-1E+10	1	-1E+10	1	-1E+10	1	-1E+10	1	-1E+10	1
4901784	50	C	11/16/2016	10:47	-132.490	44.762	0	252.50	0	6.9140	0	33.9300	0	26.591	0	250.303	0	146.4	4	49.4	4	-1E+10	1	-1E+10	1	-1E+10	1	-1E+10	1	-1E+10	1	-1E+10	1
4901784	50	C	11/16/2016	10:47	-132.490	44.762	0	255.00	0	6.8760	0	33.9310	0	26.597	0	252.780	0	145.4	4	49.0	4	-1E+10	1	-1E+10	1	-1E+10	1	-1E+10	1	-1E+10	1	-1E+10	1
4901784	50	C	11/16/2016	10:47	-132.490	44.762	0	257.40	0	6.8670	0	33.9290	0	26.597	0	255.157	0	144.1	4	48.6	4	-1E+10	1	-1E+10	1	-1E+10	1	-1E+10	1	-1E+10	1	-1E+10	1
4901784	50	C	11/16/2016	10:47	-132.490	44.762	0	259.80	0	6.8050	0	33.9300	0	26.606	0	257.535	0	142.3	4	47.9	4	-1E+10	1	-1E+10	1	-1E+10	1	-1E+10	1	-1E+10	1	-1E+10	1
4901784	50	C	11/16/2016	10:47	-132.490	44.762	0	262.30	0	6.7480	0	33.9290	0	26.613	0	260.011	0	141.0	4	47.4	4	-1E+10	1	-1E+10	1	-1E+10	1	-1E+10	1	-1E+10	1	-1E+10	1
4901784	50	C	11/16/2016	10:47	-132.490	44.762	0	264.80	0	6.7310	0	33.9300	0	26.616	0	262.488	0	139.6	4	46.9	4	-1E+10	1	-1E+10	1	-1E+10	1	-1E+10	1	-1E+10	1	-1E+10	1
4901784	50	C	11/16/2016	10:47	-132.490	44.762	0	267.20	0	6.7140	0	33.9290	0	26.617	0	264.866	0	137.6	4	46.2	4	-1E+10	1	-1E+10	1	-1E+10	1	-1E+10	1	-1E+10	1	-1E+10	1
4901784	50	C	11/16/2016	10:47	-132.490	44.762	0	269.60	0	6.6430	0	33.9280	0	26.626	0	267.243	0	135.9	4	45.6	4	-1E+10	1	-1E+10	1	-1E+10	1	-1E+10	1	-1E+10	1	-1E+10	1
4901784	50	C	11/16/2016	10:47	-132.490	44.762	0	272.80	0	6.5770	0	33.9290	0	26.635	0	270.413	0	133.8	4	44.8	4	-1E+10	1	-1E+10	1	-1E+10	1	-1E+10	1	-1E+10	1	-1E+10	1
4901784	50	C	11/16/2016	10:47	-132.490	44.762	0	275.30	0	6.5300	0	33.9300	0	26.642	0	272.889	0	132.6	4	44.4	4	-1E+10	1	-1E+10	1	-1E+10	1	-1E+10	1	-1E+10	1	-1E+10	1
4901784	50	C	11/16/2016	10:47	-132.490	44.762	0	277.80	0	6.5010	0	33.9290	0	26.645	0	275.366	0	131.5	4	44.0	4	-1E+10	1	-1E+10	1	-1E+10	1	-1E+10	1	-1E+10	1	-1E+10	1
4901784	50	C	11/16/2016	10:47	-132.490	44.762	0	280.30	0	6.4630	0	33.9290	0	26.650	0	277.842	0	130.1	4	43.4	4	-1E+10	1	-1E+10	1	-1E+10	1	-1E+10	1	-1E+10	1	-1E+10	1
4901784	50	C	11/16/2016	10:47	-132.490	44.762	0	282.80	0	6.4060	0	33.9300	0	26.659	0	280.319	0	129.2	4	43.1	4	-1E+10	1	-1E+10	1	-1E+10	1	-1E+10	1	-1E+10	1	-1E+10	1
4901784	50	C	11/16/2016	10:47	-132.490	44.762	0	285.30	0	6.3730	0	33.9310	0	26.664	0	282.795	0	128.4	4	42.8	4	-1E+10	1	-1E+10	1	-1E+10	1	-1E+10	1	-1E+10	1	-1E+10	1
4901784	50	C	11/16/2016	10:47	-132.490	44.762	0	287.80	0	6.3570	0	33.9310	0	26.666	0	285.271	0	127.6	4	42.5	4	-1E+10	1	-1E+10	1	-1E+10	1	-1E+10	1	-1E+10	1	-1E+10	1
4901784	50	C	11/16/2016	10:47	-132.490	44.762	0	290.30	0	6.3250	0	33.9300	0	26.669	0	287.748	0	126.4	4	42.1	4	-1E+10	1	-1E+10	1	-1E+10	1	-1E+10	1	-1E+10	1	-1E+10	1
4901784	50	C	11/16/2016	10:47	-132.490	44.762	0	292.00	0	6.3100	0	33.9290	0	26.670	0	289.432	0	125.8	4	41.9	4	-1E+10	1	-1E+10	1	-1E+10	1	-1E+10	1	-1E+10	1	-1E+10	1
4901784	50	C	11/16/2016	10:47	-132.490	44.762	0	294.70	0	6.2830	0	33.9300	0	26.675	0	292.106	0	124.8	4	41.5	4	-1E+10	1	-1E+10	1	-1E+10	1	-1E+10	1	-1E+10	1	-1E+10	1
4901784	50	C	11/16/2016	10:47	-132.490	44.762	0	297.30	0	6.2440	0	33.9300	0	26.680	0	294.681	0	123.8	4	41.1	4	-1E+10	1	-1E+10	1	-1E+10	1	-1E+10	1	-1E+10	1	-1E+10	1
4901784	50	C	11/16/2016	10:47	-132.490	44.762	0	299.90	0	6.2230	0	33.9300	0	26.682	0	297.256	0	122.8	4	40.8	4	-1E+10	1	-1E+10	1	-1E+10	1	-1E+10	1	-1E+10	1	-1E+10	1
4901784	50	C	11/16/2016	10:47	-132.490	44.762	0	302.60	0	6.1970	0	33.9290	0	26.685	0	299.931	0	121.8	4	40.4	4	-1E+10	1	-1E+10	1	-1E+10	1	-1E+10	1	-1E+10	1	-1E+10	1
4901784	50	C	11/16/2016	10:47	-132.490	44.762	0	305.20	0	6.1500	0	33.9290	0	26.691	0	302.506	0	120.7	4	40.0	4	-1E+10	1	-1E+10	1	-1E+10	1	-1E+10	1	-1E+10	1	-1E+10	1
4901784	50	C	11/16/2016	10:47	-132.490	44.762	0	307.80	0	6.1170	0	33.9300	0	26.696	0	305.081	0	119.7	4	39.7	4	-1E+10	1	-1E+10	1	-1E+10	1	-1E+10	1	-1E+10	1	-1E+10	1
4901784	50	C	11/16/2016	10:47	-132.490	44.762	0	309.50	0	6.1000	0	33.9320	0	26.700	0	306.765	0	119.0	4	39.4	4	-1E+10	1	-1E+10	1	-1E+10	1	-1E+10	1	-1E+10	1	-1E+10	1
4901784	50	C	11/16/2016	10:47	-132.490	44.762	0	312.20	0	6.0890	0	33.9320	0	26.701	0	309.439	0	118.0	4	39.1	4	-1E+10	1	-1E+10	1	-1E+10	1	-1E+10	1	-1E+10	1	-1E+10	1
4901784	50	C	11/16/2016	10:47	-132.490	44.762	0	314.80	0	6.0730	0	33.9310	0	26.702	0	312.014	0	116.8	4	38.7	4	-1E+10	1	-1E+10	1	-1E+10	1	-1E+10	1	-1E+10	1	-1E+10	1
4901784	50	C	11/16/2016	10:47	-132.490	44.762	0	317.50	0	6.0300	0	33.9300	0	26.707	0	314.688	0	115.3	4	38.1	4	-1E+10	1	-1E+10	1	-1E+10	1	-1E+10	1	-1E+10	1	-1E+10	1
4901784	50	C	11/16/2016	10:47	-132.490	44.762	0	320.20	0	6.0150	0	33.9330	0	26.711	0	317.362	0	113.5	4	37.5	4	-1E+10	1	-1E+10	1	-1E+10	1	-1E+10	1	-1E+10	1	-1E+10	1
4901784	50	C	11/16/2016	10:47	-132.490	44.762	0	322.00	0	5.9780	0	33.9340	0	26.717	0	319.145	0	112.4	4	37.1	4	-1E+10	1	-1E+10	1	-1E+10	1	-1E+10	1	-1E+10	1	-1E+10	1
4901784	50	C	11/16/2016	10:47	-132.490	44.762	0	324.70	0	5.9430	0	33.9350	0	26.722	0	321.819	0	110.8	4	36.6	4	-1E+10	1	-1E+10	1	-1E+10	1	-1E+10	1	-1E+10	1	-1E+10	1
4901784	50	C	11/16/2016	10:47	-132.490	44.762	0	327.40	0	5.9080	0	33.9360	0	26.727	0	324.492	0	109.1	4	36.0	4	-1E+10	1	-1E+10	1	-1E+10	1	-1E+10	1	-1E+10	1	-1E+10	1
4901784	50	C	11/16/2016	10:47	-132.490	44.762	0	330.10	0	5.8750	0	33.9380	0	26.733	0	327.166	0	107.0	4	35.3	4	-1E+10	1	-1E+10	1	-1E+10	1	-1E+10	1	-1E+10	1	-1E+10	1
4901784	50	C	11/16/2016	10:47	-132.490	44.762	0	332.70	0	5.8460	0	33.9420	0	26.739	0	329.741	0	104.9	4	34.6	4	-1E+10	1	-1E+10	1	-1E+10	1	-1E+10	1	-1E+10	1	-1E+10	1
4901784	50	C	11/16/2016	10:47	-132.490	44.762	0	334.60	0	5.8430	0	33.9440	0	26.741	0	331.623	0	103.7	4	34.2	4	-1E+10	1	-1E+10	1	-1E+10	1	-1E+10	1	-1E+10	1	-1E+10	1
4901784	50	C	11/16/2016	10:47	-132.490	44.762	0	337.30	0	5.8040	0	33.9460	0	26.748	0	334.297	0	102.2	4	33.6	4	-1E+10	1	-1E+10	1	-1E+10	1	-1E+10	1	-1E+10	1	-1E+10	1
4901784	50	C	11/16/2016	10:47	-132.490	44.762	0	340.00	0	5.7820	0	33.9480	0	26.752	0	336.970	0	101.2	4	33.3	4	-1E+10	1	-1E+10	1	-1E+10	1	-1E+10	1	-1E+10	1	-1E+10	1
4901784	50	C	11/16/2016	10:47	-132.490	44.762	0	342.80	0	5.7740	0	33.9480	0	26.753	0	339.743	0	99.9	4	32.9	4	-1E+10	1	-1E+10	1	-1E+10	1	-1E+10	1	-1E+10	1	-1E+10	1
4901784	50	C	11/16/2016	10:47	-132.490	44.762	0	345.50	0	5.7470	0	33.9490	0	26.757	0	342.417	0	98.5	4	32.4	4	-1E+10	1	-1E+10	1	-1E+10	1	-1E+10	1	-1E+10	1	-1E+10	1
4901784	50	C	11/16/2016	10:47	-132.490	44.762	0	347.30	0	5.7180	0	33.9510	0	26.762	0	344.199	0	97.6	4	32.0	4	-1E+10	1	-1E+10	1	-1E+10	1	-1E+10	1	-1E+10	1	-1E+10	1
4901784	50	C	11/16/2016	10:47	-132.490	44.762	0	350.00	0	5.6920	0	33.9520	0	26.766	0	346.873	0	96.5	4	31.6	4	-1E+10	1	-1E+10	1	-1E+10	1	-1E+10	1	-1E+10	1	-1E+10	1
4901784	50	C	11/16/2016	10:47	-132.490	44.762	0	352.80	0	5.6730	0	33.9520	0	26.769	0	349.645	0	95.2	4	31.2	4	-1E+10	1	-1E+10	1	-1E+10	1	-1E+10	1	-1E+10	1	-1E+10	1
4901784	50	C	11/16/2016	10:47	-132.490	44.762	0	354.60	0	5.6600	0	33.9540	0	26.772	0	351.428	0	94.1	4	30.8	4	-1E+10	1	-1E+10	1	-1E+10	1	-1E+10	1	-1E+10	1	-1E+10	1
4901784	50	C	11/16/2016	10:47	-132.490	44.762	0	357.50	0	5.6450	0	33.9540	0	26.774	0	354.299	0	93.0	4	30.5	4	-1E+10	1	-1E+10	1	-1E+10	1	-1E+10	1	-1E+10	1	-1E+10	1
4901784	50	C	11/16/2016	10:47	-132.490	44.762	0	360.30	0	5.6000	0	33.9580	0	26.782	0	357.072	0	91.9	4	30.1	4	-1E+10	1	-1E+10	1	-1E+10	1	-1E+10	1	-1E+10	1	-1E+10	1
4901784	50	C	11/16/2016	10:47	-132.490	44.762	0	362.30	0	5.5790	0	33.9570	0	26.784	0	359.052	0	91.7	4	30.0	4	-1E+10	1	-1E+10	1	-1E+10	1	-1E+10	1	-1E+10	1	-1E+10	1
4901784	50	C	11/16/2016	10:47	-132.490	44.762	0	365.10	0	5.5370	0	33.9560	0	26.788	0	361.825	0	91.3	4	29.8	4	-1E+10	1	-1E+10	1	-1E+10	1	-1E+10	1	-1E+10	1	-1E+10	1
4901784	50	C	11/16/2016	10:47	-132.490	44.762	0	367.90	0	5.5000	0	33.9550	0	26.792	0	364.597	0	90.2	4	29.5	4	-1E+10	1	-1E+10	1	-1E+10	1	-1E+10	1	-1E+10	1	-1E+10	1
4901784	50	C	11/16/2016	10:47	-132.490	44.762	0	369.70	0	5.4790	0	33.9550	0	26.795	0	366.379	0	89.1	4	29.1	4	-1E+10	1	-1E+10	1	-1E+10	1	-1E+10	1	-1E+10	1	-1E+10	1
4901784	50	C	11/16/2016	10:47	-132.490	44.762	0	372.60	0	5.4300	0	33.9580	0	26.803	0	369.251	0	87.5	4	28.5	4	-1E+10	1	-1E+10	1	-1E+10	1	-1E+10	1	-1E+10	1	-1E+10	1
4901784	50	C	11/16/2016	10:47	-132.490	44.762	0	375.30	0	5.4030	0	33.9610	0	26.808	0	371.924	0	86.2	4	28.1	4	-1E+10	1	-1E+10	1	-1E+10	1	-1E+10	1	-1E+10	1	-1E+10	1
4901784	50	C	11/16/2016	10:47	-132.490	44.762	0	377.20	0	5.4030	0	33.9630	0	26.810	0	373.805	0	85.4	4	27.8	4	-1E+10	1	-1E+10	1	-1E+10	1	-1E+10	1	-1E+10	1	-1E+10	1
4901784	50	C	11/16/2016	10:47	-132.490	44.762	0	380.00	0	5.3840	0	33.9650	0	26.814	0	376.578	0	83.9	4	27.3	4	-1E+10	1	-1E+10	1	-1E+10	1	-1E+10	1	-1E+10	1	-1E+10	1
4901784	50	C	11/16/2016	10:47	-132.490	44.762	0	382.90	0	5.3610	0	33.9660	0	26.817	0	379.449	0	82.7	4	26.9	4	-1E+10	1	-1E+10	1	-1E+10	1	-1E+10	1	-1E+10	1	-1E+10	1
4901784	50	C	11/16/2016	10:47	-132.490	44.762	0	384.80	0	5.3510	0	33.9650	0	26.818	0	381.330	0	81.7	4	26.6	4	-1E+10	1	-1E+10	1	-1E+10	1	-1E+10	1	-1E+10	1	-1E+10	1
4901784	50	C	11/16/2016	10:47	-132.490	44.762	0	387.60	0	5.2960	0	33.9670	0	26.826	0	384.102	0	80.1	4	26.0	4	-1E+10	1	-1E+10	1	-1E+10	1	-1E+10	1	-1E+10	1	-1E+10	1
4901784	50	C	11/16/2016	10:47	-132.490	44.762	0	390.50	0	5.2690	0	33.9710	0	26.832	0	386.973	0	78.2	4	25.4	4	-1E+10	1	-1E+10	1	-1E+10	1	-1E+10	1	-1E+10	1	-1E+10	1
4901784	50	C	11/16/2016	10:47	-132.490	44.762	0	392.40	0	5.2570	0	33.9750	0	26.837	0	388.854	0	77.0	4	25.0	4	-1E+10	1	-1E+10	1	-1E+10	1	-1E+10	1	-1E+10	1	-1E+10	1
4901784	50	C	11/16/2016	10:47	-132.490	44.762	0	395.30	0	5.2440	0	33.9780	0	26.841	0	391.725	0	75.2	4	24.4	4	-1E+10	1	-1E+10	1	-1E+10	1	-1E+10	1	-1E+10	1	-1E+10	1
4901784	50	C	11/16/2016	10:47	-132.490	44.762	0	398.10	0	5.2490	0	33.9830	0	26.844	0	394.497	0	73.3	4	23.8	4	-1E+10	1	-1E+10	1	-1E+10	1	-1E+10	1	-1E+10	1	-1E+10	1
4901784	50	C	11/16/2016	10:47	-132.490	44.762	0	400.60	0	5.2360	0	33.9840	0	26.846	0	396.972	0	71.9	4	23.3	4	-1E+10	1	-1E+10	1	-1E+10	1	-1E+10	1	-1E+10	1	-1E+10	1
4901784	50	C	11/16/2016	10:47	-132.490	44.762	0	402.50	0	5.2120	0	33.9880	0	26.852	0	398.853	0	70.6	4	22.9	4	-1E+10	1	-1E+10	1	-1E+10	1	-1E+10	1	-1E+10	1	-1E+10	1
4901784	50	C	11/16/2016	10:47	-132.490	44.762	0	405.00	0	5.2030	0	33.9900	0	26.855	0	401.328	0	69.1	4	22.4	4	-1E+10	1	-1E+10	1	-1E+10	1	-1E+10	1	-1E+10	1	-1E+10	1
4901784	50	C	11/16/2016	10:47	-132.490	44.762	0	407.50	0	5.1930	0	33.9950	0	26.860	0	403.803	0	67.4	4	21.9	4	-1E+10	1	-1E+10	1	-1E+10	1	-1E+10	1	-1E+10	1	-1E+10	1
4901784	50	C	11/16/2016	10:47	-132.490	44.762	0	410.00	0	5.1900	0	34.0010	0	26.865	0	406.278	0	65.8	4	21.3	4	-1E+10	1	-1E+10	1	-1E+10	1	-1E+10	1	-1E+10	1	-1E+10	1
4901784	50	C	11/16/2016	10:47	-132.490	44.762	0	412.50	0	5.1730	0	34.0040	0	26.870	0	408.753	0	64.2	4	20.8	4	-1E+10	1	-1E+10	1	-1E+10	1	-1E+10	1	-1E+10	1	-1E+10	1
4901784	50	C	11/16/2016	10:47	-132.490	44.762	0	414.90	0	5.1630	0	34.0100	0	26.876	0	411.129	0	62.6	4	20.3	4	-1E+10	1	-1E+10	1	-1E+10	1	-1E+10	1	-1E+10	1	-1E+10	1
4901784	50	C	11/16/2016	10:47	-132.490	44.762	0	417.40	0	5.1560	0	34.0140	0	26.880	0	413.603	0	61.6	4	20.0	4	-1E+10	1	-1E+10	1	-1E+10	1	-1E+10	1	-1E+10	1	-1E+10	1
4901784	50	C	11/16/2016	10:47	-132.490	44.762	0	419.90	0	5.1390	0	34.0170	0	26.884	0	416.078	0	60.8	4	19.7	4	-1E+10	1	-1E+10	1	-1E+10	1	-1E+10	1	-1E+10	1	-1E+10	1
4901784	50	C	11/16/2016	10:47	-132.490	44.762	0	422.40	0	5.1320	0	34.0180	0	26.886	0	418.553	0	60.0	4	19.4	4	-1E+10	1	-1E+10	1	-1E+10	1	-1E+10	1	-1E+10	1	-1E+10	1
4901784	50	C	11/16/2016	10:47	-132.490	44.762	0	425.00	0	5.1230	0	34.0200	0	26.888	0	421.127	0	59.2	4	19.2	4	-1E+10	1	-1E+10	1	-1E+10	1	-1E+10	1	-1E+10	1	-1E+10	1
4901784	50	C	11/16/2016	10:47	-132.490	44.762	0	427.50	0	5.1100	0	34.0210	0	26.890	0	423.601	0	58.3	4	18.9	4	-1E+10	1	-1E+10	1	-1E+10	1	-1E+10	1	-1E+10	1	-1E+10	1
4901784	50	C	11/16/2016	10:47	-132.490	44.762	0	430.00	0	5.0960	0	34.0250	0	26.895	0	426.076	0	57.3	4	18.5	4	-1E+10	1	-1E+10	1	-1E+10	1	-1E+10	1	-1E+10	1	-1E+10	1
4901784	50	C	11/16/2016	10:47	-132.490	44.762	0	432.50	0	5.0820	0	34.0280	0	26.899	0	428.550	0	56.6	4	18.3	4	-1E+10	1	-1E+10	1	-1E+10	1	-1E+10	1	-1E+10	1	-1E+10	1
4901784	50	C	11/16/2016	10:47	-132.490	44.762	0	435.00	0	5.0700	0	34.0290	0	26.901	0	431.025	0	55.9	4	18.1	4	-1E+10	1	-1E+10	1	-1E+10	1	-1E+10	1	-1E+10	1	-1E+10	1
4901784	50	C	11/16/2016	10:47	-132.490	44.762	0	437.50	0	5.0510	0	34.0290	0	26.904	0	433.500	0	55.1	4	17.8	4	-1E+10	1	-1E+10	1	-1E+10	1	-1E+10	1	-1E+10	1	-1E+10	1
4901784	50	C	11/16/2016	10:47	-132.490	44.762	0	440.10	0	5.0180	0	34.0310	0	26.909	0	436.073	0	54.4	4	17.6	4	-1E+10	1	-1E+10	1	-1E+10	1	-1E+10	1	-1E+10	1	-1E+10	1
4901784	50	C	11/16/2016	10:47	-132.490	44.762	0	442.60	0	4.9980	0	34.0330	0	26.913	0	438.548	0	53.6	4	17.3	4	-1E+10	1	-1E+10	1	-1E+10	1	-1E+10	1	-1E+10	1	-1E+10	1
4901784	50	C	11/16/2016	10:47	-132.490	44.762	0	445.10	0	4.9810	0	34.0350	0	26.916	0	441.022	0	52.5	4	17.0	4	-1E+10	1	-1E+10	1	-1E+10	1	-1E+10	1	-1E+10	1	-1E+10	1
4901784	50	C	11/16/2016	10:47	-132.490	44.762	0	447.70	0	4.9760	0	34.0370	0	26.919	0	443.595	0	51.0	4	16.5	4	-1E+10	1	-1E+10	1	-1E+10	1	-1E+10	1	-1E+10	1	-1E+10	1
4901784	50	C	11/16/2016	10:47	-132.490	44.762	0	450.20	0	4.9820	0	34.0430	0	26.923	0	446.070	0	49.4	4	16.0	4	-1E+10	1	-1E+10	1	-1E+10	1	-1E+10	1	-1E+10	1	-1E+10	1
4901784	50	C	11/16/2016	10:47	-132.490	44.762	0	452.80	0	4.9770	0	34.0490	0	26.928	0	448.643	0	48.3	4	15.6	4	-1E+10	1	-1E+10	1	-1E+10	1	-1E+10	1	-1E+10	1	-1E+10	1
4901784	50	C	11/16/2016	10:47	-132.490	44.762	0	455.40	0	4.9690	0	34.0510	0	26.931	0	451.216	0	47.5	4	15.3	4	-1E+10	1	-1E+10	1	-1E+10	1	-1E+10	1	-1E+10	1	-1E+10	1
4901784	50	C	11/16/2016	10:47	-132.490	44.762	0	458.00	0	4.9600	0	34.0540	0	26.934	0	453.790	0	46.8	4	15.1	4	-1E+10	1	-1E+10	1	-1E+10	1	-1E+10	1	-1E+10	1	-1E+10	1
4901784	50	C	11/16/2016	10:47	-132.490	44.762	0	459.70	0	4.9490	0	34.0570	0	26.938	0	455.472	0	46.3	4	14.9	4	-1E+10	1	-1E+10	1	-1E+10	1	-1E+10	1	-1E+10	1	-1E+10	1
4901784	50	C	11/16/2016	10:47	-132.490	44.762	0	462.30	0	4.9240	0	34.0580	0	26.941	0	458.045	0	45.9	4	14.8	4	-1E+10	1	-1E+10	1	-1E+10	1	-1E+10	1	-1E+10	1	-1E+10	1
4901784	50	C	11/16/2016	10:47	-132.490	44.762	0	464.90	0	4.9140	0	34.0590	0	26.943	0	460.619	0	45.5	4	14.7	4	-1E+10	1	-1E+10	1	-1E+10	1	-1E+10	1	-1E+10	1	-1E+10	1
4901784	50	C	11/16/2016	10:47	-132.490	44.762	0	467.50	0	4.8990	0	34.0600	0	26.946	0	463.192	0	45.0	4	14.5	4	-1E+10	1	-1E+10	1	-1E+10	1	-1E+10	1	-1E+10	1	-1E+10	1
4901784	50	C	11/16/2016	10:47	-132.490	44.762	0	470.10	0	4.8910	0	34.0600	0	26.947	0	465.765	0	44.4	4	14.3	4	-1E+10	1	-1E+10	1	-1E+10	1	-1E+10	1	-1E+10	1	-1E+10	1
4901784	50	C	11/16/2016	10:47	-132.490	44.762	0	472.70	0	4.8630	0	34.0620	0	26.951	0	468.338	0	43.6	4	14.0	4	-1E+10	1	-1E+10	1	-1E+10	1	-1E+10	1	-1E+10	1	-1E+10	1
4901784	50	C	11/16/2016	10:47	-132.490	44.762	0	475.30	0	4.8460	0	34.0640	0	26.955	0	470.911	0	42.7	4	13.7	4	-1E+10	1	-1E+10	1	-1E+10	1	-1E+10	1	-1E+10	1	-1E+10	1
4901784	50	C	11/16/2016	10:47	-132.490	44.762	0	477.10	0	4.8530	0	34.0660	0	26.956	0	472.692	0	41.9	4	13.5	4	-1E+10	1	-1E+10	1	-1E+10	1	-1E+10	1	-1E+10	1	-1E+10	1
4901784	50	C	11/16/2016	10:47	-132.490	44.762	0	479.70	0	4.8190	0	34.0700	0	26.963	0	475.265	0	41.0	4	13.2	4	-1E+10	1	-1E+10	1	-1E+10	1	-1E+10	1	-1E+10	1	-1E+10	1
4901784	50	C	11/16/2016	10:47	-132.490	44.762	0	482.30	0	4.8340	0	34.0790	0	26.968	0	477.838	0	39.9	4	12.8	4	-1E+10	1	-1E+10	1	-1E+10	1	-1E+10	1	-1E+10	1	-1E+10	1
4901784	50	C	11/16/2016	10:47	-132.490	44.762	0	485.00	0	4.8180	0	34.0810	0	26.972	0	480.510	0	39.7	4	12.8	4	-1E+10	1	-1E+10	1	-1E+10	1	-1E+10	1	-1E+10	1	-1E+10	1
4901784	50	C	11/16/2016	10:47	-132.490	44.762	0	487.70	0	4.8100	0	34.0800	0	26.972	0	483.182	0	39.4	4	12.7	4	-1E+10	1	-1E+10	1	-1E+10	1	-1E+10	1	-1E+10	1	-1E+10	1
4901784	50	C	11/16/2016	10:47	-132.490	44.762	0	490.30	0	4.7840	0	34.0800	0	26.975	0	485.755	0	39.2	4	12.6	4	-1E+10	1	-1E+10	1	-1E+10	1	-1E+10	1	-1E+10	1	-1E+10	1
4901784	50	C	11/16/2016	10:47	-132.490	44.762	0	493.00	0	4.7710	0	34.0830	0	26.978	0	488.427	0	38.8	4	12.5	4	-1E+10	1	-1E+10	1	-1E+10	1	-1E+10	1	-1E+10	1	-1E+10	1
4901784	50	C	11/16/2016	10:47	-132.490	44.762	0	494.80	0	4.7650	0	34.0830	0	26.979	0	490.208	0	38.6	4	12.4	4	-1E+10	1	-1E+10	1	-1E+10	1	-1E+10	1	-1E+10	1	-1E+10	1
4901784	50	C	11/16/2016	10:47	-132.490	44.762	0	497.50	0	4.7450	0	34.0840	0	26.982	0	492.880	0	38.1	4	12.2	4	-1E+10	1	-1E+10	1	-1E+10	1	-1E+10	1	-1E+10	1	-1E+10	1
4901784	50	C	11/16/2016	10:47	-132.490	44.762	0	500.20	0	4.7330	0	34.0860	0	26.985	0	495.552	0	37.6	4	12.1	4	-1E+10	1	-1E+10	1	-1E+10	1	-1E+10	1	-1E+10	1	-1E+10	1
4901784	50	C	11/16/2016	10:47	-132.490	44.762	0	504.80	0	4.6930	0	34.0890	0	26.992	0	500.103	0	37.2	4	11.9	4	-1E+10	1	-1E+10	1	-1E+10	1	-1E+10	1	-1E+10	1	-1E+10	1
4901784	50	C	11/16/2016	10:47	-132.490	44.762	0	509.40	0	4.6680	0	34.0890	0	26.995	0	504.655	0	36.8	4	11.8	4	-1E+10	1	-1E+10	1	-1E+10	1	-1E+10	1	-1E+10	1	-1E+10	1
4901784	50	C	11/16/2016	10:47	-132.490	44.762	0	515.00	0	4.6460	0	34.0910	0	26.999	0	510.196	0	36.0	4	11.5	4	-1E+10	1	-1E+10	1	-1E+10	1	-1E+10	1	-1E+10	1	-1E+10	1
4901784	50	C	11/16/2016	10:47	-132.490	44.762	0	520.60	0	4.6080	0	34.0960	0	27.007	0	515.737	0	35.1	4	11.2	4	-1E+10	1	-1E+10	1	-1E+10	1	-1E+10	1	-1E+10	1	-1E+10	1
4901784	50	C	11/16/2016	10:47	-132.490	44.762	0	525.30	0	4.5920	0	34.0990	0	27.011	0	520.387	0	34.3	4	11.0	4	-1E+10	1	-1E+10	1	-1E+10	1	-1E+10	1	-1E+10	1	-1E+10	1
4901784	50	C	11/16/2016	10:47	-132.490	44.762	0	529.90	0	4.5740	0	34.1030	0	27.016	0	524.938	0	33.7	4	10.8	4	-1E+10	1	-1E+10	1	-1E+10	1	-1E+10	1	-1E+10	1	-1E+10	1
4901784	50	C	11/16/2016	10:47	-132.490	44.762	0	534.50	0	4.5640	0	34.1050	0	27.019	0	529.489	0	33.0	4	10.5	4	-1E+10	1	-1E+10	1	-1E+10	1	-1E+10	1	-1E+10	1	-1E+10	1
4901784	50	C	11/16/2016	10:47	-132.490	44.762	0	539.20	0	4.5510	0	34.1090	0	27.024	0	534.139	0	32.1	4	10.3	4	-1E+10	1	-1E+10	1	-1E+10	1	-1E+10	1	-1E+10	1	-1E+10	1
4901784	50	C	11/16/2016	10:47	-132.490	44.762	0	544.60	0	4.5340	0	34.1140	0	27.029	0	539.481	0	30.9	4	9.9	4	-1E+10	1	-1E+10	1	-1E+10	1	-1E+10	1	-1E+10	1	-1E+10	1
4901784	50	C	11/16/2016	10:47	-132.490	44.762	0	549.40	0	4.5090	0	34.1200	0	27.037	0	544.230	0	30.1	4	9.6	4	-1E+10	1	-1E+10	1	-1E+10	1	-1E+10	1	-1E+10	1	-1E+10	1
4901784	50	C	11/16/2016	10:47	-132.490	44.762	0	554.40	0	4.4800	0	34.1230	0	27.043	0	549.176	0	29.7	4	9.5	4	-1E+10	1	-1E+10	1	-1E+10	1	-1E+10	1	-1E+10	1	-1E+10	1
4901784	50	C	11/16/2016	10:47	-132.490	44.762	0	560.00	0	4.4720	0	34.1270	0	27.047	0	554.716	0	29.0	4	9.3	4	-1E+10	1	-1E+10	1	-1E+10	1	-1E+10	1	-1E+10	1	-1E+10	1
4901784	50	C	11/16/2016	10:47	-132.490	44.762	0	565.80	0	4.4550	0	34.1290	0	27.050	0	560.453	0	28.4	4	9.1	4	-1E+10	1	-1E+10	1	-1E+10	1	-1E+10	1	-1E+10	1	-1E+10	1
4901784	50	C	11/16/2016	10:47	-132.490	44.762	0	570.80	0	4.4250	0	34.1330	0	27.056	0	565.399	0	27.8	4	8.9	4	-1E+10	1	-1E+10	1	-1E+10	1	-1E+10	1	-1E+10	1	-1E+10	1
4901784	50	C	11/16/2016	10:47	-132.490	44.762	0	575.80	0	4.4030	0	34.1370	0	27.062	0	570.345	0	26.8	4	8.5	4	-1E+10	1	-1E+10	1	-1E+10	1	-1E+10	1	-1E+10	1	-1E+10	1
4901784	50	C	11/16/2016	10:47	-132.490	44.762	0	580.00	0	4.3930	0	34.1420	0	27.067	0	574.500	0	25.8	4	8.2	4	-1E+10	1	-1E+10	1	-1E+10	1	-1E+10	1	-1E+10	1	-1E+10	1
4901784	50	C	11/16/2016	10:47	-132.490	44.762	0	584.20	0	4.3780	0	34.1490	0	27.074	0	578.654	0	25.0	4	8.0	4	-1E+10	1	-1E+10	1	-1E+10	1	-1E+10	1	-1E+10	1	-1E+10	1
4901784	50	C	11/16/2016	10:47	-132.490	44.762	0	589.20	0	4.3570	0	34.1550	0	27.081	0	583.600	0	24.3	4	7.7	4	-1E+10	1	-1E+10	1	-1E+10	1	-1E+10	1	-1E+10	1	-1E+10	1
4901784	50	C	11/16/2016	10:47	-132.490	44.762	0	594.30	0	4.3470	0	34.1570	0	27.084	0	588.644	0	23.8	4	7.6	4	-1E+10	1	-1E+10	1	-1E+10	1	-1E+10	1	-1E+10	1	-1E+10	1
4901784	50	C	11/16/2016	10:47	-132.490	44.762	0	599.40	0	4.3330	0	34.1620	0	27.090	0	593.688	0	22.8	4	7.2	4	-1E+10	1	-1E+10	1	-1E+10	1	-1E+10	1	-1E+10	1	-1E+10	1
4901784	50	C	11/16/2016	10:47	-132.490	44.762	0	604.40	0	4.3350	0	34.1700	0	27.096	0	598.633	0	22.1	4	7.0	4	-1E+10	1	-1E+10	1	-1E+10	1	-1E+10	1	-1E+10	1	-1E+10	1
4901784	50	C	11/16/2016	10:47	-132.490	44.762	0	609.50	0	4.3220	0	34.1720	0	27.099	0	603.677	0	21.9	4	7.0	4	-1E+10	1	-1E+10	1	-1E+10	1	-1E+10	1	-1E+10	1	-1E+10	1
4901784	50	C	11/16/2016	10:47	-132.490	44.762	0	614.70	0	4.3110	0	34.1730	0	27.101	0	608.820	0	21.6	4	6.9	4	-1E+10	1	-1E+10	1	-1E+10	1	-1E+10	1	-1E+10	1	-1E+10	1
4901784	50	C	11/16/2016	10:47	-132.490	44.762	0	619.90	0	4.2910	0	34.1760	0	27.105	0	613.963	0	21.2	4	6.7	4	-1E+10	1	-1E+10	1	-1E+10	1	-1E+10	1	-1E+10	1	-1E+10	1
4901784	50	C	11/16/2016	10:47	-132.490	44.762	0	625.20	0	4.2700	0	34.1800	0	27.111	0	619.204	0	20.8	4	6.6	4	-1E+10	1	-1E+10	1	-1E+10	1	-1E+10	1	-1E+10	1	-1E+10	1
4901784	50	C	11/16/2016	10:47	-132.490	44.762	0	630.40	0	4.2410	0	34.1860	0	27.119	0	624.346	0	20.3	4	6.4	4	-1E+10	1	-1E+10	1	-1E+10	1	-1E+10	1	-1E+10	1	-1E+10	1
4901784	50	C	11/16/2016	10:47	-132.490	44.762	0	635.60	0	4.2190	0	34.1910	0	27.125	0	629.488	0	19.9	4	6.3	4	-1E+10	1	-1E+10	1	-1E+10	1	-1E+10	1	-1E+10	1	-1E+10	1
4901784	50	C	11/16/2016	10:47	-132.490	44.762	0	640.10	0	4.2140	0	34.1930	0	27.127	0	633.938	0	19.5	4	6.2	4	-1E+10	1	-1E+10	1	-1E+10	1	-1E+10	1	-1E+10	1	-1E+10	1
4901784	50	C	11/16/2016	10:47	-132.490	44.762	0	644.50	0	4.2010	0	34.1970	0	27.132	0	638.289	0	19.1	4	6.1	4	-1E+10	1	-1E+10	1	-1E+10	1	-1E+10	1	-1E+10	1	-1E+10	1
4901784	50	C	11/16/2016	10:47	-132.490	44.762	0	649.80	0	4.1860	0	34.2030	0	27.138	0	643.530	0	18.6	4	5.9	4	-1E+10	1	-1E+10	1	-1E+10	1	-1E+10	1	-1E+10	1	-1E+10	1
4901784	50	C	11/16/2016	10:47	-132.490	44.762	0	655.10	0	4.1800	0	34.2060	0	27.141	0	648.771	0	18.2	4	5.8	4	-1E+10	1	-1E+10	1	-1E+10	1	-1E+10	1	-1E+10	1	-1E+10	1
4901784	50	C	11/16/2016	10:47	-132.490	44.762	0	660.40	0	4.1680	0	34.2110	0	27.146	0	654.011	0	17.8	4	5.6	4	-1E+10	1	-1E+10	1	-1E+10	1	-1E+10	1	-1E+10	1	-1E+10	1
4901784	50	C	11/16/2016	10:47	-132.490	44.762	0	664.90	0	4.1560	0	34.2140	0	27.150	0	658.460	0	17.6	4	5.6	4	-1E+10	1	-1E+10	1	-1E+10	1	-1E+10	1	-1E+10	1	-1E+10	1
4901784	50	C	11/16/2016	10:47	-132.490	44.762	0	669.40	0	4.1480	0	34.2150	0	27.152	0	662.910	0	17.4	4	5.5	4	-1E+10	1	-1E+10	1	-1E+10	1	-1E+10	1	-1E+10	1	-1E+10	1
4901784	50	C	11/16/2016	10:47	-132.490	44.762	0	674.80	0	4.1350	0	34.2200	0	27.157	0	668.249	0	17.0	4	5.4	4	-1E+10	1	-1E+10	1	-1E+10	1	-1E+10	1	-1E+10	1	-1E+10	1
4901784	50	C	11/16/2016	10:47	-132.490	44.762	0	680.30	0	4.1250	0	34.2240	0	27.161	0	673.686	0	16.6	4	5.3	4	-1E+10	1	-1E+10	1	-1E+10	1	-1E+10	1	-1E+10	1	-1E+10	1
4901784	50	C	11/16/2016	10:47	-132.490	44.762	0	684.80	0	4.1140	0	34.2280	0	27.166	0	678.135	0	16.2	4	5.1	4	-1E+10	1	-1E+10	1	-1E+10	1	-1E+10	1	-1E+10	1	-1E+10	1
4901784	50	C	11/16/2016	10:47	-132.490	44.762	0	689.40	0	4.0910	0	34.2350	0	27.174	0	682.683	0	15.9	4	5.0	4	-1E+10	1	-1E+10	1	-1E+10	1	-1E+10	1	-1E+10	1	-1E+10	1
4901784	50	C	11/16/2016	10:47	-132.490	44.762	0	695.00	0	4.0750	0	34.2390	0	27.178	0	688.219	0	15.7	4	5.0	4	-1E+10	1	-1E+10	1	-1E+10	1	-1E+10	1	-1E+10	1	-1E+10	1
4901784	50	C	11/16/2016	10:47	-132.490	44.762	0	700.50	0	4.0600	0	34.2420	0	27.182	0	693.656	0	15.5	4	4.9	4	-1E+10	1	-1E+10	1	-1E+10	1	-1E+10	1	-1E+10	1	-1E+10	1
4901784	50	C	11/16/2016	10:47	-132.490	44.762	0	705.20	0	4.0510	0	34.2450	0	27.186	0	698.303	0	15.2	4	4.8	4	-1E+10	1	-1E+10	1	-1E+10	1	-1E+10	1	-1E+10	1	-1E+10	1
4901784	50	C	11/16/2016	10:47	-132.490	44.762	0	709.80	0	4.0430	0	34.2480	0	27.189	0	702.850	0	15.0	4	4.7	4	-1E+10	1	-1E+10	1	-1E+10	1	-1E+10	1	-1E+10	1	-1E+10	1
4901784	50	C	11/16/2016	10:47	-132.490	44.762	0	715.10	0	4.0270	0	34.2530	0	27.195	0	708.089	0	14.7	4	4.6	4	-1E+10	1	-1E+10	1	-1E+10	1	-1E+10	1	-1E+10	1	-1E+10	1
4901784	50	C	11/16/2016	10:47	-132.490	44.762	0	719.40	0	4.0150	0	34.2570	0	27.199	0	712.340	0	14.4	4	4.5	4	-1E+10	1	-1E+10	1	-1E+10	1	-1E+10	1	-1E+10	1	-1E+10	1
4901784	50	C	11/16/2016	10:47	-132.490	44.762	0	724.90	0	3.9980	0	34.2630	0	27.206	0	717.776	0	14.1	4	4.4	4	-1E+10	1	-1E+10	1	-1E+10	1	-1E+10	1	-1E+10	1	-1E+10	1
4901784	50	C	11/16/2016	10:47	-132.490	44.762	0	730.60	0	3.9780	0	34.2680	0	27.212	0	723.410	0	13.9	4	4.4	4	-1E+10	1	-1E+10	1	-1E+10	1	-1E+10	1	-1E+10	1	-1E+10	1
4901784	50	C	11/16/2016	10:47	-132.490	44.762	0	735.50	0	3.9650	0	34.2720	0	27.216	0	728.253	0	13.7	4	4.3	4	-1E+10	1	-1E+10	1	-1E+10	1	-1E+10	1	-1E+10	1	-1E+10	1
4901784	50	C	11/16/2016	10:47	-132.490	44.762	0	740.50	0	3.9540	0	34.2750	0	27.220	0	733.195	0	13.5	4	4.3	4	-1E+10	1	-1E+10	1	-1E+10	1	-1E+10	1	-1E+10	1	-1E+10	1
4901784	50	C	11/16/2016	10:47	-132.490	44.762	0	745.50	0	3.9400	0	34.2790	0	27.224	0	738.137	0	13.4	4	4.2	4	-1E+10	1	-1E+10	1	-1E+10	1	-1E+10	1	-1E+10	1	-1E+10	1
4901784	50	C	11/16/2016	10:47	-132.490	44.762	0	750.40	0	3.9300	0	34.2800	0	27.226	0	742.980	0	13.3	4	4.2	4	-1E+10	1	-1E+10	1	-1E+10	1	-1E+10	1	-1E+10	1	-1E+10	1
4901784	50	C	11/16/2016	10:47	-132.490	44.762	0	755.40	0	3.9060	0	34.2860	0	27.233	0	747.922	0	13.1	4	4.1	4	-1E+10	1	-1E+10	1	-1E+10	1	-1E+10	1	-1E+10	1	-1E+10	1
4901784	50	C	11/16/2016	10:47	-132.490	44.762	0	760.40	0	3.8980	0	34.2880	0	27.236	0	752.863	0	13.0	4	4.1	4	-1E+10	1	-1E+10	1	-1E+10	1	-1E+10	1	-1E+10	1	-1E+10	1
4901784	50	C	11/16/2016	10:47	-132.490	44.762	0	765.50	0	3.8820	0	34.2930	0	27.242	0	757.903	0	12.8	4	4.0	4	-1E+10	1	-1E+10	1	-1E+10	1	-1E+10	1	-1E+10	1	-1E+10	1
4901784	50	C	11/16/2016	10:47	-132.490	44.762	0	770.60	0	3.8710	0	34.2970	0	27.246	0	762.943	0	12.7	4	4.0	4	-1E+10	1	-1E+10	1	-1E+10	1	-1E+10	1	-1E+10	1	-1E+10	1
4901784	50	C	11/16/2016	10:47	-132.490	44.762	0	775.70	0	3.8540	0	34.2990	0	27.249	0	767.983	0	12.7	4	4.0	4	-1E+10	1	-1E+10	1	-1E+10	1	-1E+10	1	-1E+10	1	-1E+10	1
4901784	50	C	11/16/2016	10:47	-132.490	44.762	0	780.70	0	3.8420	0	34.3020	0	27.253	0	772.924	0	12.6	4	4.0	4	-1E+10	1	-1E+10	1	-1E+10	1	-1E+10	1	-1E+10	1	-1E+10	1
4901784	50	C	11/16/2016	10:47	-132.490	44.762	0	785.80	0	3.8300	0	34.3040	0	27.256	0	777.964	0	12.4	4	3.9	4	-1E+10	1	-1E+10	1	-1E+10	1	-1E+10	1	-1E+10	1	-1E+10	1
4901784	50	C	11/16/2016	10:47	-132.490	44.762	0	790.10	0	3.8200	0	34.3080	0	27.260	0	782.213	0	12.3	4	3.9	4	-1E+10	1	-1E+10	1	-1E+10	1	-1E+10	1	-1E+10	1	-1E+10	1
4901784	50	C	11/16/2016	10:47	-132.490	44.762	0	794.40	0	3.8050	0	34.3110	0	27.264	0	786.462	0	12.2	4	3.9	4	-1E+10	1	-1E+10	1	-1E+10	1	-1E+10	1	-1E+10	1	-1E+10	1
4901784	50	C	11/16/2016	10:47	-132.490	44.762	0	799.50	0	3.7860	0	34.3160	0	27.270	0	791.502	0	12.2	4	3.8	4	-1E+10	1	-1E+10	1	-1E+10	1	-1E+10	1	-1E+10	1	-1E+10	1
4901784	50	C	11/16/2016	10:47	-132.490	44.762	0	804.70	0	3.7770	0	34.3190	0	27.273	0	796.640	0	12.1	4	3.8	4	-1E+10	1	-1E+10	1	-1E+10	1	-1E+10	1	-1E+10	1	-1E+10	1
4901784	50	C	11/16/2016	10:47	-132.490	44.762	0	809.90	0	3.7660	0	34.3220	0	27.277	0	801.778	0	11.9	4	3.7	4	-1E+10	1	-1E+10	1	-1E+10	1	-1E+10	1	-1E+10	1	-1E+10	1
4901784	50	C	11/16/2016	10:47	-132.490	44.762	0	815.10	0	3.7580	0	34.3260	0	27.281	0	806.915	0	11.7	4	3.7	4	-1E+10	1	-1E+10	1	-1E+10	1	-1E+10	1	-1E+10	1	-1E+10	1
4901784	50	C	11/16/2016	10:47	-132.490	44.762	0	820.30	0	3.7510	0	34.3310	0	27.285	0	812.053	0	11.6	4	3.7	4	-1E+10	1	-1E+10	1	-1E+10	1	-1E+10	1	-1E+10	1	-1E+10	1
4901784	50	C	11/16/2016	10:47	-132.490	44.762	0	825.40	0	3.7410	0	34.3340	0	27.289	0	817.092	0	11.6	4	3.6	4	-1E+10	1	-1E+10	1	-1E+10	1	-1E+10	1	-1E+10	1	-1E+10	1
4901784	50	C	11/16/2016	10:47	-132.490	44.762	0	830.50	0	3.7360	0	34.3360	0	27.291	0	822.130	0	11.5	4	3.6	4	-1E+10	1	-1E+10	1	-1E+10	1	-1E+10	1	-1E+10	1	-1E+10	1
4901784	50	C	11/16/2016	10:47	-132.490	44.762	0	835.70	0	3.7280	0	34.3400	0	27.295	0	827.268	0	11.5	4	3.6	4	-1E+10	1	-1E+10	1	-1E+10	1	-1E+10	1	-1E+10	1	-1E+10	1
4901784	50	C	11/16/2016	10:47	-132.490	44.762	0	840.00	0	3.7220	0	34.3410	0	27.296	0	831.516	0	11.4	4	3.6	4	-1E+10	1	-1E+10	1	-1E+10	1	-1E+10	1	-1E+10	1	-1E+10	1
4901784	50	C	11/16/2016	10:47	-132.490	44.762	0	844.40	0	3.7050	0	34.3440	0	27.300	0	835.863	0	11.4	4	3.6	4	-1E+10	1	-1E+10	1	-1E+10	1	-1E+10	1	-1E+10	1	-1E+10	1
4901784	50	C	11/16/2016	10:47	-132.490	44.762	0	849.70	0	3.6780	0	34.3490	0	27.307	0	841.098	0	11.4	4	3.6	4	-1E+10	1	-1E+10	1	-1E+10	1	-1E+10	1	-1E+10	1	-1E+10	1
4901784	50	C	11/16/2016	10:47	-132.490	44.762	0	855.00	0	3.6650	0	34.3520	0	27.311	0	846.334	0	11.3	4	3.6	4	-1E+10	1	-1E+10	1	-1E+10	1	-1E+10	1	-1E+10	1	-1E+10	1
4901784	50	C	11/16/2016	10:47	-132.490	44.762	0	860.40	0	3.6520	0	34.3550	0	27.314	0	851.668	0	11.3	4	3.6	4	-1E+10	1	-1E+10	1	-1E+10	1	-1E+10	1	-1E+10	1	-1E+10	1
4901784	50	C	11/16/2016	10:47	-132.490	44.762	0	864.90	0	3.6450	0	34.3570	0	27.317	0	856.113	0	11.3	4	3.5	4	-1E+10	1	-1E+10	1	-1E+10	1	-1E+10	1	-1E+10	1	-1E+10	1
4901784	50	C	11/16/2016	10:47	-132.490	44.762	0	869.40	0	3.6310	0	34.3600	0	27.321	0	860.558	0	11.3	4	3.5	4	-1E+10	1	-1E+10	1	-1E+10	1	-1E+10	1	-1E+10	1	-1E+10	1
4901784	50	C	11/16/2016	10:47	-132.490	44.762	0	874.90	0	3.6180	0	34.3630	0	27.324	0	865.991	0	11.3	4	3.6	4	-1E+10	1	-1E+10	1	-1E+10	1	-1E+10	1	-1E+10	1	-1E+10	1
4901784	50	C	11/16/2016	10:47	-132.490	44.762	0	880.40	0	3.6100	0	34.3660	0	27.327	0	871.424	0	11.4	4	3.6	4	-1E+10	1	-1E+10	1	-1E+10	1	-1E+10	1	-1E+10	1	-1E+10	1
4901784	50	C	11/16/2016	10:47	-132.490	44.762	0	885.00	0	3.5940	0	34.3680	0	27.331	0	875.967	0	11.3	4	3.5	4	-1E+10	1	-1E+10	1	-1E+10	1	-1E+10	1	-1E+10	1	-1E+10	1
4901784	50	C	11/16/2016	10:47	-132.490	44.762	0	890.30	0	3.5730	0	34.3710	0	27.335	0	881.202	0	11.3	4	3.5	4	-1E+10	1	-1E+10	1	-1E+10	1	-1E+10	1	-1E+10	1	-1E+10	1
4901784	50	C	11/16/2016	10:47	-132.490	44.762	0	895.40	0	3.5620	0	34.3740	0	27.339	0	886.239	0	11.4	4	3.6	4	-1E+10	1	-1E+10	1	-1E+10	1	-1E+10	1	-1E+10	1	-1E+10	1
4901784	50	C	11/16/2016	10:47	-132.490	44.762	0	900.20	0	3.5580	0	34.3770	0	27.341	0	890.980	0	11.4	4	3.6	4	-1E+10	1	-1E+10	1	-1E+10	1	-1E+10	1	-1E+10	1	-1E+10	1
4901784	50	C	11/16/2016	10:47	-132.490	44.762	0	905.20	0	3.5540	0	34.3780	0	27.343	0	895.918	0	11.5	4	3.6	4	-1E+10	1	-1E+10	1	-1E+10	1	-1E+10	1	-1E+10	1	-1E+10	1
4901784	50	C	11/16/2016	10:47	-132.490	44.762	0	910.20	0	3.5440	0	34.3830	0	27.348	0	900.856	0	11.6	4	3.6	4	-1E+10	1	-1E+10	1	-1E+10	1	-1E+10	1	-1E+10	1	-1E+10	1
4901784	50	C	11/16/2016	10:47	-132.490	44.762	0	915.20	0	3.5280	0	34.3860	0	27.352	0	905.793	0	11.6	4	3.6	4	-1E+10	1	-1E+10	1	-1E+10	1	-1E+10	1	-1E+10	1	-1E+10	1
4901784	50	C	11/16/2016	10:47	-132.490	44.762	0	920.20	0	3.5180	0	34.3890	0	27.355	0	910.731	0	11.7	4	3.7	4	-1E+10	1	-1E+10	1	-1E+10	1	-1E+10	1	-1E+10	1	-1E+10	1
4901784	50	C	11/16/2016	10:47	-132.490	44.762	0	925.20	0	3.5120	0	34.3910	0	27.357	0	915.669	0	11.7	4	3.7	4	-1E+10	1	-1E+10	1	-1E+10	1	-1E+10	1	-1E+10	1	-1E+10	1
4901784	50	C	11/16/2016	10:47	-132.490	44.762	0	930.40	0	3.5010	0	34.3940	0	27.361	0	920.804	0	11.8	4	3.7	4	-1E+10	1	-1E+10	1	-1E+10	1	-1E+10	1	-1E+10	1	-1E+10	1
4901784	50	C	11/16/2016	10:47	-132.490	44.762	0	935.60	0	3.4900	0	34.3960	0	27.363	0	925.939	0	11.8	4	3.7	4	-1E+10	1	-1E+10	1	-1E+10	1	-1E+10	1	-1E+10	1	-1E+10	1
4901784	50	C	11/16/2016	10:47	-132.490	44.762	0	939.90	0	3.4780	0	34.3990	0	27.367	0	930.185	0	11.9	4	3.7	4	-1E+10	1	-1E+10	1	-1E+10	1	-1E+10	1	-1E+10	1	-1E+10	1
4901784	50	C	11/16/2016	10:47	-132.490	44.762	0	944.30	0	3.4710	0	34.4000	0	27.368	0	934.529	0	11.9	4	3.7	4	-1E+10	1	-1E+10	1	-1E+10	1	-1E+10	1	-1E+10	1	-1E+10	1
4901784	50	C	11/16/2016	10:47	-132.490	44.762	0	949.60	0	3.4630	0	34.4020	0	27.371	0	939.763	0	11.9	4	3.7	4	-1E+10	1	-1E+10	1	-1E+10	1	-1E+10	1	-1E+10	1	-1E+10	1
4901784	50	C	11/16/2016	10:47	-132.490	44.762	0	954.90	0	3.4580	0	34.4030	0	27.372	0	944.996	0	12.0	4	3.8	4	-1E+10	1	-1E+10	1	-1E+10	1	-1E+10	1	-1E+10	1	-1E+10	1
4901784	50	C	11/16/2016	10:47	-132.490	44.762	0	960.20	0	3.4470	0	34.4070	0	27.376	0	950.229	0	12.2	4	3.8	4	-1E+10	1	-1E+10	1	-1E+10	1	-1E+10	1	-1E+10	1	-1E+10	1
4901784	50	C	11/16/2016	10:47	-132.490	44.762	0	965.50	0	3.4350	0	34.4110	0	27.381	0	955.462	0	12.3	4	3.8	4	-1E+10	1	-1E+10	1	-1E+10	1	-1E+10	1	-1E+10	1	-1E+10	1
4901784	50	C	11/16/2016	10:47	-132.490	44.762	0	969.90	0	3.4300	0	34.4120	0	27.382	0	959.806	0	12.4	4	3.9	4	-1E+10	1	-1E+10	1	-1E+10	1	-1E+10	1	-1E+10	1	-1E+10	1
4901784	50	C	11/16/2016	10:47	-132.490	44.762	0	974.40	0	3.4230	0	34.4150	0	27.385	0	964.249	0	12.5	4	3.9	4	-1E+10	1	-1E+10	1	-1E+10	1	-1E+10	1	-1E+10	1	-1E+10	1
4901784	50	C	11/16/2016	10:47	-132.490	44.762	0	979.90	0	3.4190	0	34.4170	0	27.387	0	969.679	0	12.5	4	3.9	4	-1E+10	1	-1E+10	1	-1E+10	1	-1E+10	1	-1E+10	1	-1E+10	1
4901784	50	C	11/16/2016	10:47	-132.490	44.762	0	985.30	0	3.4130	0	34.4180	0	27.389	0	975.010	0	12.6	4	3.9	4	-1E+10	1	-1E+10	1	-1E+10	1	-1E+10	1	-1E+10	1	-1E+10	1
4901784	50	C	11/16/2016	10:47	-132.490	44.762	0	989.90	0	3.4080	0	34.4200	0	27.391	0	979.551	0	12.6	4	3.9	4	-1E+10	1	-1E+10	1	-1E+10	1	-1E+10	1	-1E+10	1	-1E+10	1
4901784	50	C	11/16/2016	10:47	-132.490	44.762	0	994.50	0	3.3980	0	34.4210	0	27.392	0	984.092	0	12.7	4	4.0	4	-1E+10	1	-1E+10	1	-1E+10	1	-1E+10	1	-1E+10	1	-1E+10	1
4901784	50	C	11/16/2016	10:47	-132.490	44.762	0	999.90	0	3.3860	0	34.4250	0	27.397	0	989.423	0	12.8	4	4.0	4	-1E+10	1	-1E+10	1	-1E+10	1	-1E+10	1	-1E+10	1	-1E+10	1
4901784	50	C	11/16/2016	10:47	-132.490	44.762	0	1005.50	0	3.3750	0	34.4280	0	27.400	0	994.951	0	12.9	4	4.0	4	-1E+10	1	-1E+10	1	-1E+10	1	-1E+10	1	-1E+10	1	-1E+10	1
4901784	50	C	11/16/2016	10:47	-132.490	44.762	0	1010.10	0	3.3710	0	34.4290	0	27.401	0	999.492	0	13.0	4	4.0	4	-1E+10	1	-1E+10	1	-1E+10	1	-1E+10	1	-1E+10	1	-1E+10	1
4901784	50	C	11/16/2016	10:47	-132.490	44.762	0	1014.80	0	3.3630	0	34.4310	0	27.404	0	1004.131	0	13.0	4	4.1	4	-1E+10	1	-1E+10	1	-1E+10	1	-1E+10	1	-1E+10	1	-1E+10	1
4901784	50	C	11/16/2016	10:47	-132.490	44.762	0	1020.40	0	3.3560	0	34.4330	0	27.406	0	1009.659	0	13.0	4	4.1	4	-1E+10	1	-1E+10	1	-1E+10	1	-1E+10	1	-1E+10	1	-1E+10	1
4901784	50	C	11/16/2016	10:47	-132.490	44.762	0	1025.10	0	3.3530	0	34.4340	0	27.407	0	1014.298	0	13.1	4	4.1	4	-1E+10	1	-1E+10	1	-1E+10	1	-1E+10	1	-1E+10	1	-1E+10	1
4901784	50	C	11/16/2016	10:47	-132.490	44.762	0	1029.80	0	3.3500	0	34.4340	0	27.408	0	1018.937	0	13.1	4	4.1	4	-1E+10	1	-1E+10	1	-1E+10	1	-1E+10	1	-1E+10	1	-1E+10	1
4901784	50	C	11/16/2016	10:47	-132.490	44.762	0	1035.50	0	3.3440	0	34.4350	0	27.409	0	1024.563	0	13.2	4	4.1	4	-1E+10	1	-1E+10	1	-1E+10	1	-1E+10	1	-1E+10	1	-1E+10	1
4901784	50	C	11/16/2016	10:47	-132.490	44.762	0	1040.30	0	3.3350	0	34.4370	0	27.411	0	1029.300	0	13.2	4	4.1	4	-1E+10	1	-1E+10	1	-1E+10	1	-1E+10	1	-1E+10	1	-1E+10	1
4901784	50	C	11/16/2016	10:47	-132.490	44.762	0	1045.10	0	3.3290	0	34.4380	0	27.413	0	1034.038	0	13.3	4	4.1	4	-1E+10	1	-1E+10	1	-1E+10	1	-1E+10	1	-1E+10	1	-1E+10	1
4901784	50	C	11/16/2016	10:47	-132.490	44.762	0	1049.80	0	3.3220	0	34.4390	0	27.414	0	1038.677	0	13.4	4	4.2	4	-1E+10	1	-1E+10	1	-1E+10	1	-1E+10	1	-1E+10	1	-1E+10	1
4901784	50	C	11/16/2016	10:47	-132.490	44.762	0	1054.50	0	3.3110	0	34.4420	0	27.418	0	1043.315	0	13.6	4	4.2	4	-1E+10	1	-1E+10	1	-1E+10	1	-1E+10	1	-1E+10	1	-1E+10	1
4901784	50	C	11/16/2016	10:47	-132.490	44.762	0	1060.20	0	3.3050	0	34.4430	0	27.419	0	1048.940	0	13.8	4	4.3	4	-1E+10	1	-1E+10	1	-1E+10	1	-1E+10	1	-1E+10	1	-1E+10	1
4901784	50	C	11/16/2016	10:47	-132.490	44.762	0	1065.20	0	3.3020	0	34.4450	0	27.421	0	1053.875	0	14.0	4	4.4	4	-1E+10	1	-1E+10	1	-1E+10	1	-1E+10	1	-1E+10	1	-1E+10	1
4901784	50	C	11/16/2016	10:47	-132.490	44.762	0	1069.80	0	3.2980	0	34.4470	0	27.423	0	1058.414	0	14.1	4	4.4	4	-1E+10	1	-1E+10	1	-1E+10	1	-1E+10	1	-1E+10	1	-1E+10	1
4901784	50	C	11/16/2016	10:47	-132.490	44.762	0	1074.80	0	3.2930	0	34.4490	0	27.425	0	1063.348	0	14.3	4	4.4	4	-1E+10	1	-1E+10	1	-1E+10	1	-1E+10	1	-1E+10	1	-1E+10	1
4901784	50	C	11/16/2016	10:47	-132.490	44.762	0	1079.70	0	3.2880	0	34.4500	0	27.427	0	1068.184	0	14.4	4	4.5	4	-1E+10	1	-1E+10	1	-1E+10	1	-1E+10	1	-1E+10	1	-1E+10	1
4901784	50	C	11/16/2016	10:47	-132.490	44.762	0	1084.70	0	3.2830	0	34.4510	0	27.428	0	1073.117	0	14.5	4	4.5	4	-1E+10	1	-1E+10	1	-1E+10	1	-1E+10	1	-1E+10	1	-1E+10	1
4901784	50	C	11/16/2016	10:47	-132.490	44.762	0	1089.70	0	3.2840	0	34.4520	0	27.429	0	1078.051	0	14.6	4	4.5	4	-1E+10	1	-1E+10	1	-1E+10	1	-1E+10	1	-1E+10	1	-1E+10	1
4901784	50	C	11/16/2016	10:47	-132.490	44.762	0	1094.70	0	3.2830	0	34.4530	0	27.429	0	1082.985	0	14.8	4	4.6	4	-1E+10	1	-1E+10	1	-1E+10	1	-1E+10	1	-1E+10	1	-1E+10	1
4901784	50	C	11/16/2016	10:47	-132.490	44.762	0	1099.70	0	3.2770	0	34.4550	0	27.432	0	1087.918	0	15.0	4	4.6	4	-1E+10	1	-1E+10	1	-1E+10	1	-1E+10	1	-1E+10	1	-1E+10	1
4901784	50	C	11/16/2016	10:47	-132.490	44.762	0	1104.60	0	3.2740	0	34.4560	0	27.433	0	1092.753	0	15.2	4	4.7	4	-1E+10	1	-1E+10	1	-1E+10	1	-1E+10	1	-1E+10	1	-1E+10	1
4901784	50	C	11/16/2016	10:47	-132.490	44.762	0	1110.00	0	3.2720	0	34.4580	0	27.435	0	1098.081	0	15.4	4	4.8	4	-1E+10	1	-1E+10	1	-1E+10	1	-1E+10	1	-1E+10	1	-1E+10	1
4901784	50	C	11/16/2016	10:47	-132.490	44.762	0	1115.60	0	3.2630	0	34.4600	0	27.437	0	1103.606	0	15.6	4	4.8	4	-1E+10	1	-1E+10	1	-1E+10	1	-1E+10	1	-1E+10	1	-1E+10	1
4901784	50	C	11/16/2016	10:47	-132.490	44.762	0	1120.30	0	3.2600	0	34.4610	0	27.438	0	1108.243	0	15.7	4	4.9	4	-1E+10	1	-1E+10	1	-1E+10	1	-1E+10	1	-1E+10	1	-1E+10	1
4901784	50	C	11/16/2016	10:47	-132.490	44.762	0	1124.90	0	3.2560	0	34.4630	0	27.440	0	1112.782	0	15.8	4	4.9	4	-1E+10	1	-1E+10	1	-1E+10	1	-1E+10	1	-1E+10	1	-1E+10	1
4901784	50	C	11/16/2016	10:47	-132.490	44.762	0	1130.60	0	3.2460	0	34.4630	0	27.441	0	1118.405	0	15.8	4	4.9	4	-1E+10	1	-1E+10	1	-1E+10	1	-1E+10	1	-1E+10	1	-1E+10	1
4901784	50	C	11/16/2016	10:47	-132.490	44.762	0	1135.20	0	3.2380	0	34.4650	0	27.444	0	1122.943	0	16.0	4	5.0	4	-1E+10	1	-1E+10	1	-1E+10	1	-1E+10	1	-1E+10	1	-1E+10	1
4901784	50	C	11/16/2016	10:47	-132.490	44.762	0	1139.80	0	3.2300	0	34.4660	0	27.445	0	1127.481	0	16.1	4	5.0	4	-1E+10	1	-1E+10	1	-1E+10	1	-1E+10	1	-1E+10	1	-1E+10	1
4901784	50	C	11/16/2016	10:47	-132.490	44.762	0	1145.40	0	3.2120	0	34.4680	0	27.448	0	1133.006	0	16.2	4	5.0	4	-1E+10	1	-1E+10	1	-1E+10	1	-1E+10	1	-1E+10	1	-1E+10	1
4901784	50	C	11/16/2016	10:47	-132.490	44.762	0	1150.00	0	3.1980	0	34.4690	0	27.451	0	1137.543	0	16.3	4	5.1	4	-1E+10	1	-1E+10	1	-1E+10	1	-1E+10	1	-1E+10	1	-1E+10	1
4901784	50	C	11/16/2016	10:47	-132.490	44.762	0	1154.80	0	3.1930	0	34.4710	0	27.453	0	1142.278	0	16.4	4	5.1	4	-1E+10	1	-1E+10	1	-1E+10	1	-1E+10	1	-1E+10	1	-1E+10	1
4901784	50	C	11/16/2016	10:47	-132.490	44.762	0	1160.40	0	3.1830	0	34.4720	0	27.454	0	1147.802	0	16.5	4	5.1	4	-1E+10	1	-1E+10	1	-1E+10	1	-1E+10	1	-1E+10	1	-1E+10	1
4901784	50	C	11/16/2016	10:47	-132.490	44.762	0	1165.10	0	3.1680	0	34.4730	0	27.457	0	1152.438	0	16.5	4	5.1	4	-1E+10	1	-1E+10	1	-1E+10	1	-1E+10	1	-1E+10	1	-1E+10	1
4901784	50	C	11/16/2016	10:47	-132.490	44.762	0	1169.70	0	3.1620	0	34.4740	0	27.458	0	1156.976	0	16.5	4	5.1	4	-1E+10	1	-1E+10	1	-1E+10	1	-1E+10	1	-1E+10	1	-1E+10	1
4901784	50	C	11/16/2016	10:47	-132.490	44.762	0	1175.20	0	3.1500	0	34.4740	0	27.459	0	1162.401	0	16.6	4	5.1	4	-1E+10	1	-1E+10	1	-1E+10	1	-1E+10	1	-1E+10	1	-1E+10	1
4901784	50	C	11/16/2016	10:47	-132.490	44.762	0	1179.90	0	3.1470	0	34.4760	0	27.461	0	1167.037	0	16.8	4	5.2	4	-1E+10	1	-1E+10	1	-1E+10	1	-1E+10	1	-1E+10	1	-1E+10	1
4901784	50	C	11/16/2016	10:47	-132.490	44.762	0	1184.60	0	3.1430	0	34.4770	0	27.462	0	1171.672	0	17.0	4	5.3	4	-1E+10	1	-1E+10	1	-1E+10	1	-1E+10	1	-1E+10	1	-1E+10	1
4901784	50	C	11/16/2016	10:47	-132.490	44.762	0	1190.20	0	3.1340	0	34.4790	0	27.465	0	1177.195	0	17.1	4	5.3	4	-1E+10	1	-1E+10	1	-1E+10	1	-1E+10	1	-1E+10	1	-1E+10	1
4901784	50	C	11/16/2016	10:47	-132.490	44.762	0	1194.80	0	3.1230	0	34.4790	0	27.466	0	1181.732	0	17.1	4	5.3	4	-1E+10	1	-1E+10	1	-1E+10	1	-1E+10	1	-1E+10	1	-1E+10	1
4901784	50	C	11/16/2016	10:47	-132.490	44.762	0	1199.50	0	3.1080	0	34.4800	0	27.468	0	1186.368	0	17.2	4	5.3	4	-1E+10	1	-1E+10	1	-1E+10	1	-1E+10	1	-1E+10	1	-1E+10	1
4901784	50	C	11/16/2016	10:47	-132.490	44.762	0	1205.10	0	3.0980	0	34.4820	0	27.470	0	1191.890	0	17.3	4	5.4	4	-1E+10	1	-1E+10	1	-1E+10	1	-1E+10	1	-1E+10	1	-1E+10	1
4901784	50	C	11/16/2016	10:47	-132.490	44.762	0	1209.80	0	3.0900	0	34.4830	0	27.472	0	1196.526	0	17.4	4	5.4	4	-1E+10	1	-1E+10	1	-1E+10	1	-1E+10	1	-1E+10	1	-1E+10	1
4901784	50	C	11/16/2016	10:47	-132.490	44.762	0	1214.50	0	3.0830	0	34.4850	0	27.474	0	1201.161	0	17.6	4	5.5	4	-1E+10	1	-1E+10	1	-1E+10	1	-1E+10	1	-1E+10	1	-1E+10	1
4901784	50	C	11/16/2016	10:47	-132.490	44.762	0	1220.20	0	3.0760	0	34.4860	0	27.476	0	1206.782	0	17.7	4	5.5	4	-1E+10	1	-1E+10	1	-1E+10	1	-1E+10	1	-1E+10	1	-1E+10	1
4901784	50	C	11/16/2016	10:47	-132.490	44.762	0	1224.90	0	3.0560	0	34.4860	0	27.478	0	1211.416	0	17.6	4	5.4	4	-1E+10	1	-1E+10	1	-1E+10	1	-1E+10	1	-1E+10	1	-1E+10	1
4901784	50	C	11/16/2016	10:47	-132.490	44.762	0	1229.70	0	3.0470	0	34.4870	0	27.479	0	1216.150	0	17.8	4	5.5	4	-1E+10	1	-1E+10	1	-1E+10	1	-1E+10	1	-1E+10	1	-1E+10	1
4901784	50	C	11/16/2016	10:47	-132.490	44.762	0	1235.30	0	3.0440	0	34.4890	0	27.481	0	1221.672	0	18.0	4	5.6	4	-1E+10	1	-1E+10	1	-1E+10	1	-1E+10	1	-1E+10	1	-1E+10	1
4901784	50	C	11/16/2016	10:47	-132.490	44.762	0	1240.50	0	3.0320	0	34.4900	0	27.483	0	1226.799	0	18.1	4	5.6	4	-1E+10	1	-1E+10	1	-1E+10	1	-1E+10	1	-1E+10	1	-1E+10	1
4901784	50	C	11/16/2016	10:47	-132.490	44.762	0	1245.70	0	3.0210	0	34.4910	0	27.485	0	1231.926	0	18.2	4	5.6	4	-1E+10	1	-1E+10	1	-1E+10	1	-1E+10	1	-1E+10	1	-1E+10	1
4901784	50	C	11/16/2016	10:47	-132.490	44.762	0	1250.10	0	3.0100	0	34.4920	0	27.487	0	1236.265	0	18.3	4	5.7	4	-1E+10	1	-1E+10	1	-1E+10	1	-1E+10	1	-1E+10	1	-1E+10	1
4901784	50	C	11/16/2016	10:47	-132.490	44.762	0	1254.50	0	3.0030	0	34.4930	0	27.488	0	1240.603	0	18.5	4	5.7	4	-1E+10	1	-1E+10	1	-1E+10	1	-1E+10	1	-1E+10	1	-1E+10	1
4901784	50	C	11/16/2016	10:47	-132.490	44.762	0	1259.80	0	2.9950	0	34.4950	0	27.490	0	1245.829	0	18.5	4	5.7	4	-1E+10	1	-1E+10	1	-1E+10	1	-1E+10	1	-1E+10	1	-1E+10	1
4901784	50	C	11/16/2016	10:47	-132.490	44.762	0	1265.10	0	2.9840	0	34.4940	0	27.491	0	1251.054	0	18.4	4	5.7	4	-1E+10	1	-1E+10	1	-1E+10	1	-1E+10	1	-1E+10	1	-1E+10	1
4901784	50	C	11/16/2016	10:47	-132.490	44.762	0	1270.50	0	2.9570	0	34.4950	0	27.494	0	1256.378	0	18.5	4	5.7	4	-1E+10	1	-1E+10	1	-1E+10	1	-1E+10	1	-1E+10	1	-1E+10	1
4901784	50	C	11/16/2016	10:47	-132.490	44.762	0	1274.90	0	2.9510	0	34.4970	0	27.496	0	1260.716	0	18.7	4	5.8	4	-1E+10	1	-1E+10	1	-1E+10	1	-1E+10	1	-1E+10	1	-1E+10	1
4901784	50	C	11/16/2016	10:47	-132.490	44.762	0	1279.40	0	2.9440	0	34.4980	0	27.498	0	1265.153	0	18.9	4	5.8	4	-1E+10	1	-1E+10	1	-1E+10	1	-1E+10	1	-1E+10	1	-1E+10	1
4901784	50	C	11/16/2016	10:47	-132.490	44.762	0	1284.90	0	2.9370	0	34.5000	0	27.500	0	1270.575	0	19.1	4	5.9	4	-1E+10	1	-1E+10	1	-1E+10	1	-1E+10	1	-1E+10	1	-1E+10	1
4901784	50	C	11/16/2016	10:47	-132.490	44.762	0	1290.30	0	2.9270	0	34.5010	0	27.502	0	1275.898	0	19.4	4	6.0	4	-1E+10	1	-1E+10	1	-1E+10	1	-1E+10	1	-1E+10	1	-1E+10	1
4901784	50	C	11/16/2016	10:47	-132.490	44.762	0	1294.80	0	2.9180	0	34.5030	0	27.504	0	1280.334	0	19.7	4	6.1	4	-1E+10	1	-1E+10	1	-1E+10	1	-1E+10	1	-1E+10	1	-1E+10	1
4901784	50	C	11/16/2016	10:47	-132.490	44.762	0	1299.40	0	2.9140	0	34.5050	0	27.506	0	1284.869	0	20.0	4	6.2	4	-1E+10	1	-1E+10	1	-1E+10	1	-1E+10	1	-1E+10	1	-1E+10	1
4901784	50	C	11/16/2016	10:47	-132.490	44.762	0	1304.80	0	2.9030	0	34.5070	0	27.509	0	1290.192	0	20.3	4	6.3	4	-1E+10	1	-1E+10	1	-1E+10	1	-1E+10	1	-1E+10	1	-1E+10	1
4901784	50	C	11/16/2016	10:47	-132.490	44.762	0	1310.30	0	2.8950	0	34.5090	0	27.511	0	1295.614	0	20.5	4	6.3	4	-1E+10	1	-1E+10	1	-1E+10	1	-1E+10	1	-1E+10	1	-1E+10	1
4901784	50	C	11/16/2016	10:47	-132.490	44.762	0	1314.90	0	2.8840	0	34.5100	0	27.513	0	1300.148	0	20.6	4	6.4	4	-1E+10	1	-1E+10	1	-1E+10	1	-1E+10	1	-1E+10	1	-1E+10	1
4901784	50	C	11/16/2016	10:47	-132.490	44.762	0	1319.50	0	2.8730	0	34.5100	0	27.514	0	1304.682	0	20.8	4	6.4	4	-1E+10	1	-1E+10	1	-1E+10	1	-1E+10	1	-1E+10	1	-1E+10	1
4901784	50	C	11/16/2016	10:47	-132.490	44.762	0	1325.00	0	2.8680	0	34.5120	0	27.516	0	1310.103	0	21.0	4	6.5	4	-1E+10	1	-1E+10	1	-1E+10	1	-1E+10	1	-1E+10	1	-1E+10	1
4901784	50	C	11/16/2016	10:47	-132.490	44.762	0	1330.50	0	2.8570	0	34.5130	0	27.518	0	1315.524	0	21.3	4	6.6	4	-1E+10	1	-1E+10	1	-1E+10	1	-1E+10	1	-1E+10	1	-1E+10	1
4901784	50	C	11/16/2016	10:47	-132.490	44.762	0	1335.10	0	2.8550	0	34.5150	0	27.519	0	1320.058	0	21.5	4	6.6	4	-1E+10	1	-1E+10	1	-1E+10	1	-1E+10	1	-1E+10	1	-1E+10	1
4901784	50	C	11/16/2016	10:47	-132.490	44.762	0	1339.80	0	2.8580	0	34.5150	0	27.519	0	1324.690	0	21.7	4	6.7	4	-1E+10	1	-1E+10	1	-1E+10	1	-1E+10	1	-1E+10	1	-1E+10	1
4901784	50	C	11/16/2016	10:47	-132.490	44.762	0	1345.40	0	2.8470	0	34.5160	0	27.521	0	1330.209	0	21.7	4	6.7	4	-1E+10	1	-1E+10	1	-1E+10	1	-1E+10	1	-1E+10	1	-1E+10	1
4901784	50	C	11/16/2016	10:47	-132.490	44.762	0	1349.60	0	2.8330	0	34.5170	0	27.523	0	1334.349	0	21.8	4	6.7	4	-1E+10	1	-1E+10	1	-1E+10	1	-1E+10	1	-1E+10	1	-1E+10	1
4901784	50	C	11/16/2016	10:47	-132.490	44.762	0	1354.50	0	2.8160	0	34.5180	0	27.525	0	1339.178	0	21.8	4	6.7	4	-1E+10	1	-1E+10	1	-1E+10	1	-1E+10	1	-1E+10	1	-1E+10	1
4901784	50	C	11/16/2016	10:47	-132.490	44.762	0	1359.40	0	2.8060	0	34.5180	0	27.526	0	1344.007	0	21.8	4	6.7	4	-1E+10	1	-1E+10	1	-1E+10	1	-1E+10	1	-1E+10	1	-1E+10	1
4901784	50	C	11/16/2016	10:47	-132.490	44.762	0	1364.40	0	2.7990	0	34.5180	0	27.527	0	1348.934	0	22.0	4	6.8	4	-1E+10	1	-1E+10	1	-1E+10	1	-1E+10	1	-1E+10	1	-1E+10	1
4901784	50	C	11/16/2016	10:47	-132.490	44.762	0	1369.30	0	2.7900	0	34.5200	0	27.529	0	1353.763	0	22.2	4	6.8	4	-1E+10	1	-1E+10	1	-1E+10	1	-1E+10	1	-1E+10	1	-1E+10	1
4901784	50	C	11/16/2016	10:47	-132.490	44.762	0	1374.30	0	2.7820	0	34.5200	0	27.530	0	1358.690	0	22.5	4	6.9	4	-1E+10	1	-1E+10	1	-1E+10	1	-1E+10	1	-1E+10	1	-1E+10	1
4901784	50	C	11/16/2016	10:47	-132.490	44.762	0	1379.30	0	2.7680	0	34.5220	0	27.533	0	1363.617	0	22.8	4	7.0	4	-1E+10	1	-1E+10	1	-1E+10	1	-1E+10	1	-1E+10	1	-1E+10	1
4901784	50	C	11/16/2016	10:47	-132.490	44.762	0	1384.30	0	2.7540	0	34.5240	0	27.536	0	1368.544	0	23.1	4	7.1	4	-1E+10	1	-1E+10	1	-1E+10	1	-1E+10	1	-1E+10	1	-1E+10	1
4901784	50	C	11/16/2016	10:47	-132.490	44.762	0	1389.40	0	2.7450	0	34.5250	0	27.537	0	1373.569	0	23.3	4	7.1	4	-1E+10	1	-1E+10	1	-1E+10	1	-1E+10	1	-1E+10	1	-1E+10	1
4901784	50	C	11/16/2016	10:47	-132.490	44.762	0	1394.60	0	2.7370	0	34.5260	0	27.539	0	1378.693	0	23.5	4	7.2	4	-1E+10	1	-1E+10	1	-1E+10	1	-1E+10	1	-1E+10	1	-1E+10	1
4901784	50	C	11/16/2016	10:47	-132.490	44.762	0	1399.70	0	2.7290	0	34.5270	0	27.540	0	1383.718	0	23.7	4	7.3	4	-1E+10	1	-1E+10	1	-1E+10	1	-1E+10	1	-1E+10	1	-1E+10	1
4901784	50	C	11/16/2016	10:47	-132.490	44.762	0	1405.00	0	2.7190	0	34.5280	0	27.542	0	1388.940	0	24.0	4	7.4	4	-1E+10	1	-1E+10	1	-1E+10	1	-1E+10	1	-1E+10	1	-1E+10	1
4901784	50	C	11/16/2016	10:47	-132.490	44.762	0	1410.20	0	2.7070	0	34.5300	0	27.545	0	1394.064	0	24.3	4	7.4	4	-1E+10	1	-1E+10	1	-1E+10	1	-1E+10	1	-1E+10	1	-1E+10	1
4901784	50	C	11/16/2016	10:47	-132.490	44.762	0	1415.50	0	2.6980	0	34.5310	0	27.546	0	1399.286	0	24.5	4	7.5	4	-1E+10	1	-1E+10	1	-1E+10	1	-1E+10	1	-1E+10	1	-1E+10	1
4901784	50	C	11/16/2016	10:47	-132.490	44.762	0	1420.00	0	2.6940	0	34.5310	0	27.547	0	1403.719	0	24.6	4	7.5	4	-1E+10	1	-1E+10	1	-1E+10	1	-1E+10	1	-1E+10	1	-1E+10	1
4901784	50	C	11/16/2016	10:47	-132.490	44.762	0	1424.40	0	2.6890	0	34.5320	0	27.548	0	1408.054	0	24.7	4	7.6	4	-1E+10	1	-1E+10	1	-1E+10	1	-1E+10	1	-1E+10	1	-1E+10	1
4901784	50	C	11/16/2016	10:47	-132.490	44.762	0	1429.70	0	2.6790	0	34.5320	0	27.549	0	1413.275	0	24.9	4	7.6	4	-1E+10	1	-1E+10	1	-1E+10	1	-1E+10	1	-1E+10	1	-1E+10	1
4901784	50	C	11/16/2016	10:47	-132.490	44.762	0	1435.00	0	2.6670	0	34.5330	0	27.551	0	1418.497	0	25.1	4	7.7	4	-1E+10	1	-1E+10	1	-1E+10	1	-1E+10	1	-1E+10	1	-1E+10	1
4901784	50	C	11/16/2016	10:47	-132.490	44.762	0	1440.40	0	2.6510	0	34.5350	0	27.554	0	1423.816	0	25.2	4	7.7	4	-1E+10	1	-1E+10	1	-1E+10	1	-1E+10	1	-1E+10	1	-1E+10	1
4901784	50	C	11/16/2016	10:47	-132.490	44.762	0	1444.90	0	2.6420	0	34.5350	0	27.554	0	1428.249	0	25.3	4	7.7	4	-1E+10	1	-1E+10	1	-1E+10	1	-1E+10	1	-1E+10	1	-1E+10	1
4901784	50	C	11/16/2016	10:47	-132.490	44.762	0	1449.40	0	2.6390	0	34.5350	0	27.555	0	1432.682	0	25.4	4	7.8	4	-1E+10	1	-1E+10	1	-1E+10	1	-1E+10	1	-1E+10	1	-1E+10	1
4901784	50	C	11/16/2016	10:47	-132.490	44.762	0	1454.90	0	2.6330	0	34.5350	0	27.555	0	1438.100	0	25.6	4	7.8	4	-1E+10	1	-1E+10	1	-1E+10	1	-1E+10	1	-1E+10	1	-1E+10	1
4901784	50	C	11/16/2016	10:47	-132.490	44.762	0	1460.40	0	2.6250	0	34.5360	0	27.557	0	1443.518	0	25.8	4	7.9	4	-1E+10	1	-1E+10	1	-1E+10	1	-1E+10	1	-1E+10	1	-1E+10	1
4901784	50	C	11/16/2016	10:47	-132.490	44.762	0	1465.00	0	2.6180	0	34.5370	0	27.558	0	1448.049	0	26.1	4	8.0	4	-1E+10	1	-1E+10	1	-1E+10	1	-1E+10	1	-1E+10	1	-1E+10	1
4901784	50	C	11/16/2016	10:47	-132.490	44.762	0	1469.60	0	2.6040	0	34.5390	0	27.561	0	1452.580	0	26.4	4	8.1	4	-1E+10	1	-1E+10	1	-1E+10	1	-1E+10	1	-1E+10	1	-1E+10	1
4901784	50	C	11/16/2016	10:47	-132.490	44.762	0	1475.10	0	2.6030	0	34.5400	0	27.562	0	1457.997	0	26.8	4	8.2	4	-1E+10	1	-1E+10	1	-1E+10	1	-1E+10	1	-1E+10	1	-1E+10	1
4901784	50	C	11/16/2016	10:47	-132.490	44.762	0	1479.70	0	2.6010	0	34.5410	0	27.563	0	1462.528	0	26.9	4	8.2	4	-1E+10	1	-1E+10	1	-1E+10	1	-1E+10	1	-1E+10	1	-1E+10	1
4901784	50	C	11/16/2016	10:47	-132.490	44.762	0	1484.60	0	2.5820	0	34.5410	0	27.565	0	1467.354	0	26.9	4	8.2	4	-1E+10	1	-1E+10	1	-1E+10	1	-1E+10	1	-1E+10	1	-1E+10	1
4901784	50	C	11/16/2016	10:47	-132.490	44.762	0	1489.80	0	2.5660	0	34.5410	0	27.566	0	1472.476	0	26.9	4	8.2	4	-1E+10	1	-1E+10	1	-1E+10	1	-1E+10	1	-1E+10	1	-1E+10	1
4901784	50	C	11/16/2016	10:47	-132.490	44.762	0	1494.70	0	2.5530	0	34.5420	0	27.568	0	1477.301	0	26.9	4	8.2	4	-1E+10	1	-1E+10	1	-1E+10	1	-1E+10	1	-1E+10	1	-1E+10	1
4901784	50	C	11/16/2016	10:47	-132.490	44.762	0	1499.60	0	2.5470	0	34.5420	0	27.568	0	1482.127	0	27.0	4	8.3	4	-1E+10	1	-1E+10	1	-1E+10	1	-1E+10	1	-1E+10	1	-1E+10	1
4901784	50	C	11/16/2016	10:47	-132.490	44.762	0	1504.50	0	2.5400	0	34.5420	0	27.569	0	1486.953	0	27.1	4	8.3	4	-1E+10	1	-1E+10	1	-1E+10	1	-1E+10	1	-1E+10	1	-1E+10	1
4901784	50	C	11/16/2016	10:47	-132.490	44.762	0	1509.50	0	2.5340	0	34.5430	0	27.570	0	1491.877	0	27.3	4	8.3	4	-1E+10	1	-1E+10	1	-1E+10	1	-1E+10	1	-1E+10	1	-1E+10	1
4901784	50	C	11/16/2016	10:47	-132.490	44.762	0	1514.50	0	2.5220	0	34.5440	0	27.572	0	1496.801	0	27.5	4	8.4	4	-1E+10	1	-1E+10	1	-1E+10	1	-1E+10	1	-1E+10	1	-1E+10	1
4901784	50	C	11/16/2016	10:47	-132.490	44.762	0	1519.60	0	2.5120	0	34.5450	0	27.574	0	1501.823	0	27.9	4	8.5	4	-1E+10	1	-1E+10	1	-1E+10	1	-1E+10	1	-1E+10	1	-1E+10	1
4901784	50	C	11/16/2016	10:47	-132.490	44.762	0	1524.70	0	2.5000	0	34.5460	0	27.576	0	1506.845	0	28.2	4	8.6	4	-1E+10	1	-1E+10	1	-1E+10	1	-1E+10	1	-1E+10	1	-1E+10	1
4901784	50	C	11/16/2016	10:47	-132.490	44.762	0	1529.80	0	2.4890	0	34.5470	0	27.577	0	1511.867	0	28.5	4	8.7	4	-1E+10	1	-1E+10	1	-1E+10	1	-1E+10	1	-1E+10	1	-1E+10	1
4901784	50	C	11/16/2016	10:47	-132.490	44.762	0	1534.90	0	2.4780	0	34.5480	0	27.579	0	1516.889	0	28.9	4	8.8	4	-1E+10	1	-1E+10	1	-1E+10	1	-1E+10	1	-1E+10	1	-1E+10	1
4901784	50	C	11/16/2016	10:47	-132.490	44.762	0	1540.10	0	2.4670	0	34.5490	0	27.581	0	1522.010	0	29.2	4	8.9	4	-1E+10	1	-1E+10	1	-1E+10	1	-1E+10	1	-1E+10	1	-1E+10	1
4901784	50	C	11/16/2016	10:47	-132.490	44.762	0	1545.30	0	2.4600	0	34.5500	0	27.582	0	1527.130	0	29.4	4	9.0	4	-1E+10	1	-1E+10	1	-1E+10	1	-1E+10	1	-1E+10	1	-1E+10	1
4901784	50	C	11/16/2016	10:47	-132.490	44.762	0	1550.50	0	2.4490	0	34.5510	0	27.584	0	1532.250	0	29.8	4	9.1	4	-1E+10	1	-1E+10	1	-1E+10	1	-1E+10	1	-1E+10	1	-1E+10	1
4901784	50	C	11/16/2016	10:47	-132.490	44.762	0	1554.90	0	2.4380	0	34.5530	0	27.587	0	1536.582	0	30.0	4	9.1	4	-1E+10	1	-1E+10	1	-1E+10	1	-1E+10	1	-1E+10	1	-1E+10	1
4901784	50	C	11/16/2016	10:47	-132.490	44.762	0	1559.20	0	2.4330	0	34.5530	0	27.587	0	1540.816	0	30.2	4	9.2	4	-1E+10	1	-1E+10	1	-1E+10	1	-1E+10	1	-1E+10	1	-1E+10	1
4901784	50	C	11/16/2016	10:47	-132.490	44.762	0	1564.50	0	2.4260	0	34.5540	0	27.588	0	1546.034	0	30.4	4	9.3	4	-1E+10	1	-1E+10	1	-1E+10	1	-1E+10	1	-1E+10	1	-1E+10	1
4901784	50	C	11/16/2016	10:47	-132.490	44.762	0	1569.70	0	2.4190	0	34.5540	0	27.589	0	1551.153	0	30.6	4	9.3	4	-1E+10	1	-1E+10	1	-1E+10	1	-1E+10	1	-1E+10	1	-1E+10	1
4901784	50	C	11/16/2016	10:47	-132.490	44.762	0	1575.00	0	2.4140	0	34.5550	0	27.590	0	1556.371	0	30.8	4	9.4	4	-1E+10	1	-1E+10	1	-1E+10	1	-1E+10	1	-1E+10	1	-1E+10	1
4901784	50	C	11/16/2016	10:47	-132.490	44.762	0	1580.40	0	2.4100	0	34.5550	0	27.591	0	1561.688	0	31.0	4	9.5	4	-1E+10	1	-1E+10	1	-1E+10	1	-1E+10	1	-1E+10	1	-1E+10	1
4901784	50	C	11/16/2016	10:47	-132.490	44.762	0	1584.80	0	2.4010	0	34.5560	0	27.592	0	1566.019	0	31.3	4	9.5	4	-1E+10	1	-1E+10	1	-1E+10	1	-1E+10	1	-1E+10	1	-1E+10	1
4901784	50	C	11/16/2016	10:47	-132.490	44.762	0	1589.30	0	2.3930	0	34.5570	0	27.594	0	1570.449	0	31.6	4	9.6	4	-1E+10	1	-1E+10	1	-1E+10	1	-1E+10	1	-1E+10	1	-1E+10	1
4901784	50	C	11/16/2016	10:47	-132.490	44.762	0	1594.70	0	2.3820	0	34.5590	0	27.596	0	1575.765	0	32.0	4	9.7	4	-1E+10	1	-1E+10	1	-1E+10	1	-1E+10	1	-1E+10	1	-1E+10	1
4901784	50	C	11/16/2016	10:47	-132.490	44.762	0	1600.10	0	2.3760	0	34.5600	0	27.598	0	1581.081	0	32.4	4	9.8	4	-1E+10	1	-1E+10	1	-1E+10	1	-1E+10	1	-1E+10	1	-1E+10	1
4901784	50	C	11/16/2016	10:47	-132.490	44.762	0	1605.40	0	2.3650	0	34.5610	0	27.599	0	1586.298	0	32.8	4	10.0	4	-1E+10	1	-1E+10	1	-1E+10	1	-1E+10	1	-1E+10	1	-1E+10	1
4901784	50	C	11/16/2016	10:47	-132.490	44.762	0	1610.20	0	2.3540	0	34.5620	0	27.601	0	1591.023	0	33.1	4	10.1	4	-1E+10	1	-1E+10	1	-1E+10	1	-1E+10	1	-1E+10	1	-1E+10	1
4901784	50	C	11/16/2016	10:47	-132.490	44.762	0	1615.10	0	2.3490	0	34.5630	0	27.602	0	1595.846	0	33.3	4	10.1	4	-1E+10	1	-1E+10	1	-1E+10	1	-1E+10	1	-1E+10	1	-1E+10	1
4901784	50	C	11/16/2016	10:47	-132.490	44.762	0	1620.00	0	2.3470	0	34.5630	0	27.603	0	1600.669	0	33.5	4	10.2	4	-1E+10	1	-1E+10	1	-1E+10	1	-1E+10	1	-1E+10	1	-1E+10	1
4901784	50	C	11/16/2016	10:47	-132.490	44.762	0	1624.90	0	2.3390	0	34.5640	0	27.604	0	1605.492	0	33.9	4	10.3	4	-1E+10	1	-1E+10	1	-1E+10	1	-1E+10	1	-1E+10	1	-1E+10	1
4901784	50	C	11/16/2016	10:47	-132.490	44.762	0	1630.00	0	2.3300	0	34.5660	0	27.606	0	1610.512	0	34.2	4	10.4	4	-1E+10	1	-1E+10	1	-1E+10	1	-1E+10	1	-1E+10	1	-1E+10	1
4901784	50	C	11/16/2016	10:47	-132.490	44.762	0	1635.00	0	2.3250	0	34.5660	0	27.607	0	1615.433	0	34.6	4	10.5	4	-1E+10	1	-1E+10	1	-1E+10	1	-1E+10	1	-1E+10	1	-1E+10	1
4901784	50	C	11/16/2016	10:47	-132.490	44.762	0	1640.00	0	2.3160	0	34.5680	0	27.609	0	1620.354	0	35.0	4	10.6	4	-1E+10	1	-1E+10	1	-1E+10	1	-1E+10	1	-1E+10	1	-1E+10	1
4901784	50	C	11/16/2016	10:47	-132.490	44.762	0	1645.10	0	2.3060	0	34.5690	0	27.611	0	1625.373	0	35.4	4	10.8	4	-1E+10	1	-1E+10	1	-1E+10	1	-1E+10	1	-1E+10	1	-1E+10	1
4901784	50	C	11/16/2016	10:47	-132.490	44.762	0	1650.10	0	2.2970	0	34.5700	0	27.612	0	1630.294	0	35.8	4	10.9	4	-1E+10	1	-1E+10	1	-1E+10	1	-1E+10	1	-1E+10	1	-1E+10	1
4901784	50	C	11/16/2016	10:47	-132.490	44.762	0	1655.30	0	2.2910	0	34.5710	0	27.614	0	1635.412	0	36.1	4	11.0	4	-1E+10	1	-1E+10	1	-1E+10	1	-1E+10	1	-1E+10	1	-1E+10	1
4901784	50	C	11/16/2016	10:47	-132.490	44.762	0	1660.50	0	2.2800	0	34.5720	0	27.615	0	1640.529	0	36.5	4	11.1	4	-1E+10	1	-1E+10	1	-1E+10	1	-1E+10	1	-1E+10	1	-1E+10	1
4901784	50	C	11/16/2016	10:47	-132.490	44.762	0	1665.60	0	2.2740	0	34.5730	0	27.617	0	1645.548	0	36.8	4	11.2	4	-1E+10	1	-1E+10	1	-1E+10	1	-1E+10	1	-1E+10	1	-1E+10	1
4901784	50	C	11/16/2016	10:47	-132.490	44.762	0	1670.00	0	2.2680	0	34.5740	0	27.618	0	1649.878	0	37.1	4	11.3	4	-1E+10	1	-1E+10	1	-1E+10	1	-1E+10	1	-1E+10	1	-1E+10	1
4901784	50	C	11/16/2016	10:47	-132.490	44.762	0	1674.40	0	2.2620	0	34.5750	0	27.619	0	1654.208	0	37.4	4	11.3	4	-1E+10	1	-1E+10	1	-1E+10	1	-1E+10	1	-1E+10	1	-1E+10	1
4901784	50	C	11/16/2016	10:47	-132.490	44.762	0	1679.60	0	2.2550	0	34.5760	0	27.621	0	1659.325	0	37.7	4	11.4	4	-1E+10	1	-1E+10	1	-1E+10	1	-1E+10	1	-1E+10	1	-1E+10	1
4901784	50	C	11/16/2016	10:47	-132.490	44.762	0	1684.90	0	2.2480	0	34.5770	0	27.622	0	1664.540	0	38.0	4	11.5	4	-1E+10	1	-1E+10	1	-1E+10	1	-1E+10	1	-1E+10	1	-1E+10	1
4901784	50	C	11/16/2016	10:47	-132.490	44.762	0	1690.20	0	2.2410	0	34.5770	0	27.623	0	1669.755	0	38.3	4	11.6	4	-1E+10	1	-1E+10	1	-1E+10	1	-1E+10	1	-1E+10	1	-1E+10	1
4901784	50	C	11/16/2016	10:47	-132.490	44.762	0	1695.60	0	2.2360	0	34.5780	0	27.624	0	1675.068	0	38.6	4	11.7	4	-1E+10	1	-1E+10	1	-1E+10	1	-1E+10	1	-1E+10	1	-1E+10	1
4901784	50	C	11/16/2016	10:47	-132.490	44.762	0	1700.10	0	2.2310	0	34.5790	0	27.625	0	1679.496	0	38.9	4	11.8	4	-1E+10	1	-1E+10	1	-1E+10	1	-1E+10	1	-1E+10	1	-1E+10	1
4901784	50	C	11/16/2016	10:47	-132.490	44.762	0	1704.70	0	2.2280	0	34.5800	0	27.626	0	1684.022	0	39.2	4	11.9	4	-1E+10	1	-1E+10	1	-1E+10	1	-1E+10	1	-1E+10	1	-1E+10	1
4901784	50	C	11/16/2016	10:47	-132.490	44.762	0	1710.10	0	2.2230	0	34.5800	0	27.627	0	1689.335	0	39.6	4	12.0	4	-1E+10	1	-1E+10	1	-1E+10	1	-1E+10	1	-1E+10	1	-1E+10	1
4901784	50	C	11/16/2016	10:47	-132.490	44.762	0	1715.60	0	2.2150	0	34.5810	0	27.628	0	1694.746	0	40.0	4	12.1	4	-1E+10	1	-1E+10	1	-1E+10	1	-1E+10	1	-1E+10	1	-1E+10	1
4901784	50	C	11/16/2016	10:47	-132.490	44.762	0	1720.30	0	2.2080	0	34.5830	0	27.630	0	1699.370	0	40.3	4	12.2	4	-1E+10	1	-1E+10	1	-1E+10	1	-1E+10	1	-1E+10	1	-1E+10	1
4901784	50	C	11/16/2016	10:47	-132.490	44.762	0	1724.90	0	2.2040	0	34.5830	0	27.631	0	1703.896	0	40.5	4	12.3	4	-1E+10	1	-1E+10	1	-1E+10	1	-1E+10	1	-1E+10	1	-1E+10	1
4901784	50	C	11/16/2016	10:47	-132.490	44.762	0	1730.60	0	2.1970	0	34.5840	0	27.632	0	1709.504	0	40.9	4	12.4	4	-1E+10	1	-1E+10	1	-1E+10	1	-1E+10	1	-1E+10	1	-1E+10	1
4901784	50	C	11/16/2016	10:47	-132.490	44.762	0	1735.30	0	2.1900	0	34.5850	0	27.633	0	1714.127	0	41.2	4	12.5	4	-1E+10	1	-1E+10	1	-1E+10	1	-1E+10	1	-1E+10	1	-1E+10	1
4901784	50	C	11/16/2016	10:47	-132.490	44.762	0	1739.90	0	2.1860	0	34.5860	0	27.635	0	1718.653	0	41.4	4	12.5	4	-1E+10	1	-1E+10	1	-1E+10	1	-1E+10	1	-1E+10	1	-1E+10	1
4901784	50	C	11/16/2016	10:47	-132.490	44.762	0	1744.80	0	2.1840	0	34.5860	0	27.635	0	1723.473	0	41.7	4	12.6	4	-1E+10	1	-1E+10	1	-1E+10	1	-1E+10	1	-1E+10	1	-1E+10	1
4901784	50	C	11/16/2016	10:47	-132.490	44.762	0	1749.80	0	2.1770	0	34.5870	0	27.636	0	1728.391	0	42.0	4	12.7	4	-1E+10	1	-1E+10	1	-1E+10	1	-1E+10	1	-1E+10	1	-1E+10	1
4901784	50	C	11/16/2016	10:47	-132.490	44.762	0	1754.70	0	2.1730	0	34.5880	0	27.637	0	1733.211	0	42.2	4	12.8	4	-1E+10	1	-1E+10	1	-1E+10	1	-1E+10	1	-1E+10	1	-1E+10	1
4901784	50	C	11/16/2016	10:47	-132.490	44.762	0	1759.50	0	2.1690	0	34.5880	0	27.638	0	1737.933	0	42.5	4	12.9	4	-1E+10	1	-1E+10	1	-1E+10	1	-1E+10	1	-1E+10	1	-1E+10	1
4901784	50	C	11/16/2016	10:47	-132.490	44.762	0	1764.50	0	2.1620	0	34.5890	0	27.639	0	1742.851	0	42.9	4	13.0	4	-1E+10	1	-1E+10	1	-1E+10	1	-1E+10	1	-1E+10	1	-1E+10	1
4901784	50	C	11/16/2016	10:47	-132.490	44.762	0	1769.40	0	2.1560	0	34.5900	0	27.640	0	1747.671	0	43.3	4	13.1	4	-1E+10	1	-1E+10	1	-1E+10	1	-1E+10	1	-1E+10	1	-1E+10	1
4901784	50	C	11/16/2016	10:47	-132.490	44.762	0	1774.50	0	2.1510	0	34.5910	0	27.642	0	1752.687	0	43.6	4	13.2	4	-1E+10	1	-1E+10	1	-1E+10	1	-1E+10	1	-1E+10	1	-1E+10	1
4901784	50	C	11/16/2016	10:47	-132.490	44.762	0	1779.50	0	2.1440	0	34.5920	0	27.643	0	1757.605	0	44.0	4	13.3	4	-1E+10	1	-1E+10	1	-1E+10	1	-1E+10	1	-1E+10	1	-1E+10	1
4901784	50	C	11/16/2016	10:47	-132.490	44.762	0	1784.60	0	2.1370	0	34.5930	0	27.644	0	1762.621	0	44.3	4	13.4	4	-1E+10	1	-1E+10	1	-1E+10	1	-1E+10	1	-1E+10	1	-1E+10	1
4901784	50	C	11/16/2016	10:47	-132.490	44.762	0	1789.70	0	2.1320	0	34.5930	0	27.645	0	1767.637	0	44.6	4	13.5	4	-1E+10	1	-1E+10	1	-1E+10	1	-1E+10	1	-1E+10	1	-1E+10	1
4901784	50	C	11/16/2016	10:47	-132.490	44.762	0	1794.80	0	2.1250	0	34.5940	0	27.646	0	1772.653	0	44.9	4	13.6	4	-1E+10	1	-1E+10	1	-1E+10	1	-1E+10	1	-1E+10	1	-1E+10	1
4901784	50	C	11/16/2016	10:47	-132.490	44.762	0	1799.90	0	2.1210	0	34.5950	0	27.647	0	1777.669	0	45.3	4	13.7	4	-1E+10	1	-1E+10	1	-1E+10	1	-1E+10	1	-1E+10	1	-1E+10	1
4901784	50	C	11/16/2016	10:47	-132.490	44.762	0	1805.10	0	2.1160	0	34.5960	0	27.649	0	1782.783	0	45.7	4	13.8	4	-1E+10	1	-1E+10	1	-1E+10	1	-1E+10	1	-1E+10	1	-1E+10	1
4901784	50	C	11/16/2016	10:47	-132.490	44.762	0	1810.30	0	2.1100	0	34.5970	0	27.650	0	1787.897	0	46.1	4	13.9	4	-1E+10	1	-1E+10	1	-1E+10	1	-1E+10	1	-1E+10	1	-1E+10	1
4901784	50	C	11/16/2016	10:47	-132.490	44.762	0	1815.60	0	2.1040	0	34.5980	0	27.651	0	1793.109	0	46.6	4	14.1	4	-1E+10	1	-1E+10	1	-1E+10	1	-1E+10	1	-1E+10	1	-1E+10	1
4901784	50	C	11/16/2016	10:47	-132.490	44.762	0	1820.00	0	2.0950	0	34.5990	0	27.653	0	1797.436	0	46.9	4	14.2	4	-1E+10	1	-1E+10	1	-1E+10	1	-1E+10	1	-1E+10	1	-1E+10	1
4901784	50	C	11/16/2016	10:47	-132.490	44.762	0	1824.30	0	2.0890	0	34.5990	0	27.653	0	1801.664	0	47.2	4	14.3	4	-1E+10	1	-1E+10	1	-1E+10	1	-1E+10	1	-1E+10	1	-1E+10	1
4901784	50	C	11/16/2016	10:47	-132.490	44.762	0	1829.50	0	2.0840	0	34.6000	0	27.654	0	1806.777	0	47.5	4	14.4	4	-1E+10	1	-1E+10	1	-1E+10	1	-1E+10	1	-1E+10	1	-1E+10	1
4901784	50	C	11/16/2016	10:47	-132.490	44.762	0	1834.80	0	2.0810	0	34.6010	0	27.655	0	1811.989	0	47.8	4	14.4	4	-1E+10	1	-1E+10	1	-1E+10	1	-1E+10	1	-1E+10	1	-1E+10	1
4901784	50	C	11/16/2016	10:47	-132.490	44.762	0	1840.20	0	2.0770	0	34.6020	0	27.657	0	1817.299	0	48.1	4	14.5	4	-1E+10	1	-1E+10	1	-1E+10	1	-1E+10	1	-1E+10	1	-1E+10	1
4901784	50	C	11/16/2016	10:47	-132.490	44.762	0	1845.50	0	2.0710	0	34.6030	0	27.658	0	1822.510	0	48.5	4	14.7	4	-1E+10	1	-1E+10	1	-1E+10	1	-1E+10	1	-1E+10	1	-1E+10	1
4901784	50	C	11/16/2016	10:47	-132.490	44.762	0	1849.90	0	2.0690	0	34.6030	0	27.658	0	1826.836	0	48.9	4	14.8	4	-1E+10	1	-1E+10	1	-1E+10	1	-1E+10	1	-1E+10	1	-1E+10	1
4901784	50	C	11/16/2016	10:47	-132.490	44.762	0	1854.40	0	2.0620	0	34.6040	0	27.659	0	1831.261	0	49.3	4	14.9	4	-1E+10	1	-1E+10	1	-1E+10	1	-1E+10	1	-1E+10	1	-1E+10	1
4901784	50	C	11/16/2016	10:47	-132.490	44.762	0	1859.80	0	2.0570	0	34.6050	0	27.661	0	1836.570	0	49.6	4	15.0	4	-1E+10	1	-1E+10	1	-1E+10	1	-1E+10	1	-1E+10	1	-1E+10	1
4901784	50	C	11/16/2016	10:47	-132.490	44.762	0	1865.20	0	2.0540	0	34.6060	0	27.662	0	1841.879	0	49.8	4	15.0	4	-1E+10	1	-1E+10	1	-1E+10	1	-1E+10	1	-1E+10	1	-1E+10	1
4901784	50	C	11/16/2016	10:47	-132.490	44.762	0	1870.70	0	2.0510	0	34.6060	0	27.662	0	1847.287	0	50.0	4	15.1	4	-1E+10	1	-1E+10	1	-1E+10	1	-1E+10	1	-1E+10	1	-1E+10	1
4901784	50	C	11/16/2016	10:47	-132.490	44.762	0	1875.20	0	2.0490	0	34.6070	0	27.663	0	1851.711	0	50.2	4	15.2	4	-1E+10	1	-1E+10	1	-1E+10	1	-1E+10	1	-1E+10	1	-1E+10	1
4901784	50	C	11/16/2016	10:47	-132.490	44.762	0	1879.70	0	2.0420	0	34.6070	0	27.664	0	1856.135	0	50.5	4	15.3	4	-1E+10	1	-1E+10	1	-1E+10	1	-1E+10	1	-1E+10	1	-1E+10	1
4901784	50	C	11/16/2016	10:47	-132.490	44.762	0	1885.10	0	2.0370	0	34.6080	0	27.665	0	1861.444	0	50.9	4	15.4	4	-1E+10	1	-1E+10	1	-1E+10	1	-1E+10	1	-1E+10	1	-1E+10	1
4901784	50	C	11/16/2016	10:47	-132.490	44.762	0	1890.60	0	2.0300	0	34.6090	0	27.666	0	1866.850	0	51.3	4	15.5	4	-1E+10	1	-1E+10	1	-1E+10	1	-1E+10	1	-1E+10	1	-1E+10	1
4901784	50	C	11/16/2016	10:47	-132.490	44.762	0	1895.20	0	2.0250	0	34.6100	0	27.667	0	1871.372	0	51.6	4	15.6	4	-1E+10	1	-1E+10	1	-1E+10	1	-1E+10	1	-1E+10	1	-1E+10	1
4901784	50	C	11/16/2016	10:47	-132.490	44.762	0	1899.70	0	2.0210	0	34.6100	0	27.668	0	1875.796	0	51.9	4	15.7	4	-1E+10	1	-1E+10	1	-1E+10	1	-1E+10	1	-1E+10	1	-1E+10	1
4901784	50	C	11/16/2016	10:47	-132.490	44.762	0	1905.20	0	2.0170	0	34.6110	0	27.669	0	1881.202	0	52.2	4	15.8	4	-1E+10	1	-1E+10	1	-1E+10	1	-1E+10	1	-1E+10	1	-1E+10	1
4901784	50	C	11/16/2016	10:47	-132.490	44.762	0	1910.70	0	2.0140	0	34.6110	0	27.669	0	1886.609	0	52.5	4	15.8	4	-1E+10	1	-1E+10	1	-1E+10	1	-1E+10	1	-1E+10	1	-1E+10	1
4901784	50	C	11/16/2016	10:47	-132.490	44.762	0	1915.20	0	2.0100	0	34.6120	0	27.670	0	1891.032	0	52.8	4	15.9	4	-1E+10	1	-1E+10	1	-1E+10	1	-1E+10	1	-1E+10	1	-1E+10	1
4901784	50	C	11/16/2016	10:47	-132.490	44.762	0	1919.80	0	2.0070	0	34.6120	0	27.670	0	1895.554	0	53.0	4	16.0	4	-1E+10	1	-1E+10	1	-1E+10	1	-1E+10	1	-1E+10	1	-1E+10	1
4901784	50	C	11/16/2016	10:47	-132.490	44.762	0	1925.20	0	2.0020	0	34.6130	0	27.672	0	1900.861	0	53.4	4	16.1	4	-1E+10	1	-1E+10	1	-1E+10	1	-1E+10	1	-1E+10	1	-1E+10	1
4901784	50	C	11/16/2016	10:47	-132.490	44.762	0	1930.60	0	1.9960	0	34.6140	0	27.673	0	1906.169	0	53.7	4	16.2	4	-1E+10	1	-1E+10	1	-1E+10	1	-1E+10	1	-1E+10	1	-1E+10	1
4901784	50	C	11/16/2016	10:47	-132.490	44.762	0	1935.50	0	1.9950	0	34.6140	0	27.673	0	1910.985	0	53.9	4	16.2	4	-1E+10	1	-1E+10	1	-1E+10	1	-1E+10	1	-1E+10	1	-1E+10	1
4901784	50	C	11/16/2016	10:47	-132.490	44.762	0	1940.30	0	1.9910	0	34.6150	0	27.674	0	1915.703	0	54.2	4	16.3	4	-1E+10	1	-1E+10	1	-1E+10	1	-1E+10	1	-1E+10	1	-1E+10	1
4901784	50	C	11/16/2016	10:47	-132.490	44.762	0	1945.20	0	1.9880	0	34.6160	0	27.675	0	1920.518	0	54.4	4	16.4	4	-1E+10	1	-1E+10	1	-1E+10	1	-1E+10	1	-1E+10	1	-1E+10	1
4901784	50	C	11/16/2016	10:47	-132.490	44.762	0	1950.10	0	1.9850	0	34.6160	0	27.676	0	1925.334	0	54.7	4	16.5	4	-1E+10	1	-1E+10	1	-1E+10	1	-1E+10	1	-1E+10	1	-1E+10	1
4901784	50	C	11/16/2016	10:47	-132.490	44.762	0	1955.00	0	1.9800	0	34.6170	0	27.677	0	1930.150	0	55.0	4	16.6	4	-1E+10	1	-1E+10	1	-1E+10	1	-1E+10	1	-1E+10	1	-1E+10	1
4901784	50	C	11/16/2016	10:47	-132.490	44.762	0	1959.90	0	1.9760	0	34.6180	0	27.678	0	1934.965	0	55.3	4	16.7	4	-1E+10	1	-1E+10	1	-1E+10	1	-1E+10	1	-1E+10	1	-1E+10	1
4901784	50	C	11/16/2016	10:47	-132.490	44.762	0	1964.90	0	1.9730	0	34.6180	0	27.678	0	1939.879	0	55.6	4	16.7	4	-1E+10	1	-1E+10	1	-1E+10	1	-1E+10	1	-1E+10	1	-1E+10	1
4901784	50	C	11/16/2016	10:47	-132.490	44.762	0	1969.90	0	1.9690	0	34.6190	0	27.679	0	1944.792	0	55.9	4	16.8	4	-1E+10	1	-1E+10	1	-1E+10	1	-1E+10	1	-1E+10	1	-1E+10	1
4901784	50	C	11/16/2016	10:47	-132.490	44.762	0	1974.90	0	1.9650	0	34.6190	0	27.680	0	1949.706	0	56.2	4	16.9	4	-1E+10	1	-1E+10	1	-1E+10	1	-1E+10	1	-1E+10	1	-1E+10	1
4901784	50	C	11/16/2016	10:47	-132.490	44.762	0	1979.90	0	1.9620	0	34.6200	0	27.681	0	1954.619	0	56.4	4	17.0	4	-1E+10	1	-1E+10	1	-1E+10	1	-1E+10	1	-1E+10	1	-1E+10	1
4901784	50	C	11/16/2016	10:47	-132.490	44.762	0	1984.90	0	1.9610	0	34.6200	0	27.681	0	1959.532	0	56.6	4	17.1	4	-1E+10	1	-1E+10	1	-1E+10	1	-1E+10	1	-1E+10	1	-1E+10	1
4901784	50	C	11/16/2016	10:47	-132.490	44.762	0	1989.90	0	1.9560	0	34.6210	0	27.682	0	1964.445	0	57.0	4	17.2	4	-1E+10	1	-1E+10	1	-1E+10	1	-1E+10	1	-1E+10	1	-1E+10	1
4901784	50	C	11/16/2016	10:47	-132.490	44.762	0	1995.00	0	1.9520	0	34.6220	0	27.683	0	1969.456	0	57.3	4	17.3	4	-1E+10	1	-1E+10	1	-1E+10	1	-1E+10	1	-1E+10	1	-1E+10	1
4901784	50	C	11/16/2016	10:47	-132.490	44.762	0	2000.10	0	1.9490	0	34.6220	0	27.683	0	1974.467	0	57.6	4	17.3	4	-1E+10	1	-1E+10	1	-1E+10	1	-1E+10	1	-1E+10	1	-1E+10	1
4901784	50	C	11/16/2016	10:47	-132.490	44.762	0	2005.00	0	1.9450	0	34.6230	0	27.685	0	1979.282	0	57.8	4	17.4	4	-1E+10	1	-1E+10	1	-1E+10	1	-1E+10	1	-1E+10	1	-1E+10	1
4901784	50	C	11/16/2016	10:47	-132.490	44.762	0	2009.90	0	1.9430	0	34.6230	0	27.685	0	1984.096	0	58.0	4	17.5	4	-1E+10	1	-1E+10	1	-1E+10	1	-1E+10	1	-1E+10	1	-1E+10	1
4901784	50	C	11/16/2016	10:47	-132.490	44.762	0	2014.60	0	1.9410	0	34.6240	0	27.686	0	1988.714	0	58.1	4	17.5	4	-1E+10	1	-1E+10	1	-1E+10	1	-1E+10	1	-1E+10	1	-1E+10	1
4901784	50	C	11/16/2016	10:47	-132.490	44.762	0	2020.30	0	1.9390	0	34.6240	0	27.686	0	1994.314	0	58.2	4	17.5	4	-1E+10	1	-1E+10	1	-1E+10	1	-1E+10	1	-1E+10	1	-1E+10	1
4901784	50	C	11/16/2016	10:47	-132.490	44.762	0																										
4901784	51	C	11/26/2016	10:43	-132.452	44.782	0	2.20	0	12.2500	0	32.6750	0	24.737	0	2.182	0	252.7	4	94.9	4	-1E+10	1	-1E+10	1	-1E+10	1	-1E+10	1	-1E+10	1	-1E+10	1
4901784	51	C	11/26/2016	10:43	-132.452	44.782	0	3.50	0	12.2490	0	32.6750	0	24.738	0	3.472	0	252.8	4	94.9	4	-1E+10	1	-1E+10	1	-1E+10	1	-1E+10	1	-1E+10	1	-1E+10	1
4901784	51	C	11/26/2016	10:43	-132.452	44.782	0	4.90	0	12.2480	0	32.6750	0	24.738	0	4.860	0	252.9	4	95.0	4	-1E+10	1	-1E+10	1	-1E+10	1	-1E+10	1	-1E+10	1	-1E+10	1
4901784	51	C	11/26/2016	10:43	-132.452	44.782	0	6.40	0	12.2480	0	32.6750	0	24.738	0	6.348	0	252.7	4	94.9	4	-1E+10	1	-1E+10	1	-1E+10	1	-1E+10	1	-1E+10	1	-1E+10	1
4901784	51	C	11/26/2016	10:43	-132.452	44.782	0	7.90	0	12.2450	0	32.6740	0	24.738	0	7.836	0	252.5	4	94.8	4	-1E+10	1	-1E+10	1	-1E+10	1	-1E+10	1	-1E+10	1	-1E+10	1
4901784	51	C	11/26/2016	10:43	-132.452	44.782	0	9.70	0	12.2450	0	32.6740	0	24.738	0	9.621	0	252.5	4	94.8	4	-1E+10	1	-1E+10	1	-1E+10	1	-1E+10	1	-1E+10	1	-1E+10	1
4901784	51	C	11/26/2016	10:43	-132.452	44.782	0	11.40	0	12.2450	0	32.6740	0	24.738	0	11.307	0	252.6	4	94.9	4	-1E+10	1	-1E+10	1	-1E+10	1	-1E+10	1	-1E+10	1	-1E+10	1
4901784	51	C	11/26/2016	10:43	-132.452	44.782	0	13.20	0	12.2450	0	32.6740	0	24.738	0	13.093	0	252.4	4	94.8	4	-1E+10	1	-1E+10	1	-1E+10	1	-1E+10	1	-1E+10	1	-1E+10	1
4901784	51	C	11/26/2016	10:43	-132.452	44.782	0	14.90	0	12.2450	0	32.6740	0	24.738	0	14.779	0	252.4	4	94.8	4	-1E+10	1	-1E+10	1	-1E+10	1	-1E+10	1	-1E+10	1	-1E+10	1
4901784	51	C	11/26/2016	10:43	-132.452	44.782	0	16.70	0	12.2450	0	32.6750	0	24.739	0	16.564	0	252.3	4	94.8	4	-1E+10	1	-1E+10	1	-1E+10	1	-1E+10	1	-1E+10	1	-1E+10	1
4901784	51	C	11/26/2016	10:43	-132.452	44.782	0	18.50	0	12.2470	0	32.6740	0	24.738	0	18.349	0	252.3	4	94.7	4	-1E+10	1	-1E+10	1	-1E+10	1	-1E+10	1	-1E+10	1	-1E+10	1
4901784	51	C	11/26/2016	10:43	-132.452	44.782	0	20.30	0	12.2470	0	32.6750	0	24.738	0	20.135	0	252.1	4	94.7	4	-1E+10	1	-1E+10	1	-1E+10	1	-1E+10	1	-1E+10	1	-1E+10	1
4901784	51	C	11/26/2016	10:43	-132.452	44.782	0	22.00	0	12.2470	0	32.6750	0	24.738	0	21.821	0	252.1	4	94.7	4	-1E+10	1	-1E+10	1	-1E+10	1	-1E+10	1	-1E+10	1	-1E+10	1
4901784	51	C	11/26/2016	10:43	-132.452	44.782	0	23.70	0	12.2460	0	32.6750	0	24.739	0	23.507	0	252.1	4	94.7	4	-1E+10	1	-1E+10	1	-1E+10	1	-1E+10	1	-1E+10	1	-1E+10	1
4901784	51	C	11/26/2016	10:43	-132.452	44.782	0	25.60	0	12.2480	0	32.6750	0	24.738	0	25.391	0	252.0	4	94.7	4	-1E+10	1	-1E+10	1	-1E+10	1	-1E+10	1	-1E+10	1	-1E+10	1
4901784	51	C	11/26/2016	10:43	-132.452	44.782	0	27.70	0	12.2530	0	32.6760	0	24.738	0	27.474	0	252.0	4	94.6	4	-1E+10	1	-1E+10	1	-1E+10	1	-1E+10	1	-1E+10	1	-1E+10	1
4901784	51	C	11/26/2016	10:43	-132.452	44.782	0	29.80	0	12.2660	0	32.6800	0	24.739	0	29.557	0	251.7	4	94.6	4	-1E+10	1	-1E+10	1	-1E+10	1	-1E+10	1	-1E+10	1	-1E+10	1
4901784	51	C	11/26/2016	10:43	-132.452	44.782	0	31.90	0	12.2640	0	32.6780	0	24.738	0	31.639	0	251.6	4	94.5	4	-1E+10	1	-1E+10	1	-1E+10	1	-1E+10	1	-1E+10	1	-1E+10	1
4901784	51	C	11/26/2016	10:43	-132.452	44.782	0	34.10	0	12.2740	0	32.6810	0	24.738	0	33.821	0	251.7	4	94.6	4	-1E+10	1	-1E+10	1	-1E+10	1	-1E+10	1	-1E+10	1	-1E+10	1
4901784	51	C	11/26/2016	10:43	-132.452	44.782	0	36.20	0	12.2600	0	32.6770	0	24.738	0	35.904	0	251.4	4	94.4	4	-1E+10	1	-1E+10	1	-1E+10	1	-1E+10	1	-1E+10	1	-1E+10	1
4901784	51	C	11/26/2016	10:43	-132.452	44.782	0	38.20	0	12.2600	0	32.6760	0	24.737	0	37.887	0	251.1	4	94.3	4	-1E+10	1	-1E+10	1	-1E+10	1	-1E+10	1	-1E+10	1	-1E+10	1
4901784	51	C	11/26/2016	10:43	-132.452	44.782	0	40.20	0	12.2640	0	32.6770	0	24.737	0	39.871	0	251.3	4	94.4	4	-1E+10	1	-1E+10	1	-1E+10	1	-1E+10	1	-1E+10	1	-1E+10	1
4901784	51	C	11/26/2016	10:43	-132.452	44.782	0	42.10	0	12.2660	0	32.6770	0	24.737	0	41.755	0	251.1	4	94.3	4	-1E+10	1	-1E+10	1	-1E+10	1	-1E+10	1	-1E+10	1	-1E+10	1
4901784	51	C	11/26/2016	10:43	-132.452	44.782	0	44.30	0	12.2850	0	32.6800	0	24.736	0	43.937	0	250.9	4	94.3	4	-1E+10	1	-1E+10	1	-1E+10	1	-1E+10	1	-1E+10	1	-1E+10	1
4901784	51	C	11/26/2016	10:43	-132.452	44.782	0	44.90	0	12.2880	0	32.6840	0	24.738	0	44.532	0	250.7	4	94.2	4	-1E+10	1	-1E+10	1	-1E+10	1	-1E+10	1	-1E+10	1	-1E+10	1
4901784	51	C	11/26/2016	10:43	-132.452	44.782	0	46.70	0	12.2910	0	32.6830	0	24.737	0	46.317	0	250.5	4	94.2	4	-1E+10	1	-1E+10	1	-1E+10	1	-1E+10	1	-1E+10	1	-1E+10	1
4901784	51	C	11/26/2016	10:43	-132.452	44.782	0	48.40	0	12.2910	0	32.6820	0	24.736	0	48.002	0	250.5	4	94.2	4	-1E+10	1	-1E+10	1	-1E+10	1	-1E+10	1	-1E+10	1	-1E+10	1
4901784	51	C	11/26/2016	10:43	-132.452	44.782	0	50.10	0	12.2920	0	32.6810	0	24.735	0	49.688	0	250.2	4	94.1	4	-1E+10	1	-1E+10	1	-1E+10	1	-1E+10	1	-1E+10	1	-1E+10	1
4901784	51	C	11/26/2016	10:43	-132.452	44.782	0	51.60	0	12.2920	0	32.6760	0	24.731	0	51.176	0	250.3	4	94.1	4	-1E+10	1	-1E+10	1	-1E+10	1	-1E+10	1	-1E+10	1	-1E+10	1
4901784	51	C	11/26/2016	10:43	-132.452	44.782	0	53.10	0	12.2870	0	32.6830	0	24.738	0	52.663	0	250.1	4	94.0	4	-1E+10	1	-1E+10	1	-1E+10	1	-1E+10	1	-1E+10	1	-1E+10	1
4901784	51	C	11/26/2016	10:43	-132.452	44.782	0	54.70	0	12.2780	0	32.6790	0	24.737	0	54.250	0	250.1	4	94.0	4	-1E+10	1	-1E+10	1	-1E+10	1	-1E+10	1	-1E+10	1	-1E+10	1
4901784	51	C	11/26/2016	10:43	-132.452	44.782	0	56.20	0	12.2820	0	32.6710	0	24.730	0	55.737	0	250.1	4	94.0	4	-1E+10	1	-1E+10	1	-1E+10	1	-1E+10	1	-1E+10	1	-1E+10	1
4901784	51	C	11/26/2016	10:43	-132.452	44.782	0	57.70	0	12.2550	0	32.6650	0	24.730	0	57.225	0	249.8	4	93.8	4	-1E+10	1	-1E+10	1	-1E+10	1	-1E+10	1	-1E+10	1	-1E+10	1
4901784	51	C	11/26/2016	10:43	-132.452	44.782	0	59.20	0	12.1640	0	32.6560	0	24.740	0	58.712	0	250.0	4	93.7	4	-1E+10	1	-1E+10	1	-1E+10	1	-1E+10	1	-1E+10	1	-1E+10	1
4901784	51	C	11/26/2016	10:43	-132.452	44.782	0	60.90	0	11.4630	0	32.7240	0	24.923	0	60.398	0	252.4	4	93.3	4	-1E+10	1	-1E+10	1	-1E+10	1	-1E+10	1	-1E+10	1	-1E+10	1
4901784	51	C	11/26/2016	10:43	-132.452	44.782	0	62.50	0	10.7720	0	32.8060	0	25.109	0	61.985	0	255.3	4	93.0	4	-1E+10	1	-1E+10	1	-1E+10	1	-1E+10	1	-1E+10	1	-1E+10	1
4901784	51	C	11/26/2016	10:43	-132.452	44.782	0	64.80	0	10.1200	0	32.8610	0	25.264	0	64.265	0	257.6	4	92.6	4	-1E+10	1	-1E+10	1	-1E+10	1	-1E+10	1	-1E+10	1	-1E+10	1
4901784	51	C	11/26/2016	10:43	-132.452	44.782	0	66.60	0	9.7260	0	32.8860	0	25.348	0	66.050	0	258.7	4	92.3	4	-1E+10	1	-1E+10	1	-1E+10	1	-1E+10	1	-1E+10	1	-1E+10	1
4901784	51	C	11/26/2016	10:43	-132.452	44.782	0	68.20	0	9.6380	0	32.8930	0	25.368	0	67.637	0	258.3	4	91.9	4	-1E+10	1	-1E+10	1	-1E+10	1	-1E+10	1	-1E+10	1	-1E+10	1
4901784	51	C	11/26/2016	10:43	-132.452	44.782	0	69.80	0	9.5270	0	32.9010	0	25.393	0	69.223	0	258.1	4	91.6	4	-1E+10	1	-1E+10	1	-1E+10	1	-1E+10	1	-1E+10	1	-1E+10	1
4901784	51	C	11/26/2016	10:43	-132.452	44.782	0	71.40	0	9.4600	0	32.8980	0	25.401	0	70.810	0	257.7	4	91.4	4	-1E+10	1	-1E+10	1	-1E+10	1	-1E+10	1	-1E+10	1	-1E+10	1
4901784	51	C	11/26/2016	10:43	-132.452	44.782	0	73.00	0	9.4360	0	32.9060	0	25.411	0	72.396	0	257.3	4	91.2	4	-1E+10	1	-1E+10	1	-1E+10	1	-1E+10	1	-1E+10	1	-1E+10	1
4901784	51	C	11/26/2016	10:43	-132.452	44.782	0	74.70	0	9.3710	0	32.9070	0	25.422	0	74.082	0	256.9	4	90.9	4	-1E+10	1	-1E+10	1	-1E+10	1	-1E+10	1	-1E+10	1	-1E+10	1
4901784	51	C	11/26/2016	10:43	-132.452	44.782	0	76.30	0	9.3470	0	32.9090	0	25.428	0	75.668	0	256.5	4	90.7	4	-1E+10	1	-1E+10	1	-1E+10	1	-1E+10	1	-1E+10	1	-1E+10	1
4901784	51	C	11/26/2016	10:43	-132.452	44.782	0	77.90	0	9.3600	0	32.9120	0	25.428	0	77.255	0	256.0	4	90.6	4	-1E+10	1	-1E+10	1	-1E+10	1	-1E+10	1	-1E+10	1	-1E+10	1
4901784	51	C	11/26/2016	10:43	-132.452	44.782	0	79.70	0	9.3480	0	32.9250	0	25.440	0	79.039	0	255.6	4	90.4	4	-1E+10	1	-1E+10	1	-1E+10	1	-1E+10	1	-1E+10	1	-1E+10	1
4901784	51	C	11/26/2016	10:43	-132.452	44.782	0	81.30	0	9.3360	0	32.9240	0	25.441	0	80.626	0	255.1	4	90.2	4	-1E+10	1	-1E+10	1	-1E+10	1	-1E+10	1	-1E+10	1	-1E+10	1
4901784	51	C	11/26/2016	10:43	-132.452	44.782	0	83.00	0	9.2860	0	32.9310	0	25.455	0	82.311	0	254.8	4	90.0	4	-1E+10	1	-1E+10	1	-1E+10	1	-1E+10	1	-1E+10	1	-1E+10	1
4901784	51	C	11/26/2016	10:43	-132.452	44.782	0	84.70	0	9.2720	0	32.9340	0	25.459	0	83.997	0	254.5	4	89.9	4	-1E+10	1	-1E+10	1	-1E+10	1	-1E+10	1	-1E+10	1	-1E+10	1
4901784	51	C	11/26/2016	10:43	-132.452	44.782	0	86.30	0	9.0970	0	32.9350	0	25.488	0	85.583	0	254.9	4	89.7	4	-1E+10	1	-1E+10	1	-1E+10	1	-1E+10	1	-1E+10	1	-1E+10	1
4901784	51	C	11/26/2016	10:43	-132.452	44.782	0	88.10	0	8.9720	0	32.9300	0	25.504	0	87.368	0	254.9	4	89.4	4	-1E+10	1	-1E+10	1	-1E+10	1	-1E+10	1	-1E+10	1	-1E+10	1
4901784	51	C	11/26/2016	10:43	-132.452	44.782	0	89.80	0	9.0330	0	32.9480	0	25.508	0	89.053	0	254.0	4	89.2	4	-1E+10	1	-1E+10	1	-1E+10	1	-1E+10	1	-1E+10	1	-1E+10	1
4901784	51	C	11/26/2016	10:43	-132.452	44.782	0	91.50	0	9.0820	0	32.9750	0	25.522	0	90.739	0	252.7	4	88.9	4	-1E+10	1	-1E+10	1	-1E+10	1	-1E+10	1	-1E+10	1	-1E+10	1
4901784	51	C	11/26/2016	10:43	-132.452	44.782	0	93.20	0	8.9230	0	32.9520	0	25.529	0	92.424	0	253.2	4	88.8	4	-1E+10	1	-1E+10	1	-1E+10	1	-1E+10	1	-1E+10	1	-1E+10	1
4901784	51	C	11/26/2016	10:43	-132.452	44.782	0	95.00	0	8.8740	0	32.9540	0	25.538	0	94.209	0	252.7	4	88.5	4	-1E+10	1	-1E+10	1	-1E+10	1	-1E+10	1	-1E+10	1	-1E+10	1
4901784	51	C	11/26/2016	10:43	-132.452	44.782	0	96.70	0	8.8600	0	32.9570	0	25.542	0	95.895	0	251.3	4	88.0	4	-1E+10	1	-1E+10	1	-1E+10	1	-1E+10	1	-1E+10	1	-1E+10	1
4901784	51	C	11/26/2016	10:43	-132.452	44.782	0	98.50	0	8.8260	0	32.9640	0	25.553	0	97.679	0	249.5	4	87.3	4	-1E+10	1	-1E+10	1	-1E+10	1	-1E+10	1	-1E+10	1	-1E+10	1
4901784	51	C	11/26/2016	10:43	-132.452	44.782	0	100.10	0	8.8280	0	32.9760	0	25.562	0	99.265	0	247.4	4	86.6	4	-1E+10	1	-1E+10	1	-1E+10	1	-1E+10	1	-1E+10	1	-1E+10	1
4901784	51	C	11/26/2016	10:43	-132.452	44.782	0	102.80	0	8.7500	0	33.0050	0	25.597	0	101.942	0	244.0	4	85.2	4	-1E+10	1	-1E+10	1	-1E+10	1	-1E+10	1	-1E+10	1	-1E+10	1
4901784	51	C	11/26/2016	10:43	-132.452	44.782	0	105.50	0	8.7340	0	33.0310	0	25.620	0	104.619	0	239.6	4	83.7	4	-1E+10	1	-1E+10	1	-1E+10	1	-1E+10	1	-1E+10	1	-1E+10	1
4901784	51	C	11/26/2016	10:43	-132.452	44.782	0	107.30	0	8.7200	0	33.0640	0	25.648	0	106.403	0	236.3	4	82.5	4	-1E+10	1	-1E+10	1	-1E+10	1	-1E+10	1	-1E+10	1	-1E+10	1
4901784	51	C	11/26/2016	10:43	-132.452	44.782	0	110.10	0	8.8060	0	33.1180	0	25.677	0	109.179	0	230.4	4	80.6	4	-1E+10	1	-1E+10	1	-1E+10	1	-1E+10	1	-1E+10	1	-1E+10	1
4901784	51	C	11/26/2016	10:43	-132.452	44.782	0	112.80	0	8.9090	0	33.2010	0	25.726	0	111.856	0	224.9	4	78.9	4	-1E+10	1	-1E+10	1	-1E+10	1	-1E+10	1	-1E+10	1	-1E+10	1
4901784	51	C	11/26/2016	10:43	-132.452	44.782	0	114.60	0	8.8760	0	33.2570	0	25.775	0	113.640	0	222.1	4	78.0	4	-1E+10	1	-1E+10	1	-1E+10	1	-1E+10	1	-1E+10	1	-1E+10	1
4901784	51	C	11/26/2016	10:43	-132.452	44.782	0	117.50	0	8.7050	0	33.2920	0	25.829	0	116.515	0	219.0	4	76.6	4	-1E+10	1	-1E+10	1	-1E+10	1	-1E+10	1	-1E+10	1	-1E+10	1
4901784	51	C	11/26/2016	10:43	-132.452	44.782	0	120.20	0	8.7020	0	33.3540	0	25.878	0	119.192	0	214.3	4	75.0	4	-1E+10	1	-1E+10	1	-1E+10	1	-1E+10	1	-1E+10	1	-1E+10	1
4901784	51	C	11/26/2016	10:43	-132.452	44.782	0	122.60	0	8.7280	0	33.4160	0	25.923	0	121.571	0	210.1	4	73.6	4	-1E+10	1	-1E+10	1	-1E+10	1	-1E+10	1	-1E+10	1	-1E+10	1
4901784	51	C	11/26/2016	10:43	-132.452	44.782	0	125.00	0	8.8000	0	33.4920	0	25.971	0	123.950	0	205.6	4	72.1	4	-1E+10	1	-1E+10	1	-1E+10	1	-1E+10	1	-1E+10	1	-1E+10	1
4901784	51	C	11/26/2016	10:43	-132.452	44.782	0	127.50	0	8.8120	0	33.5290	0	25.998	0	126.429	0	202.3	4	71.0	4	-1E+10	1	-1E+10	1	-1E+10	1	-1E+10	1	-1E+10	1	-1E+10	1
4901784	51	C	11/26/2016	10:43	-132.452	44.782	0	129.90	0	8.7970	0	33.6060	0	26.061	0	128.808	0	198.8	4	69.8	4	-1E+10	1	-1E+10	1	-1E+10	1	-1E+10	1	-1E+10	1	-1E+10	1
4901784	51	C	11/26/2016	10:43	-132.452	44.782	0	132.40	0	8.7910	0	33.6480	0	26.095	0	131.286	0	197.0	4	69.2	4	-1E+10	1	-1E+10	1	-1E+10	1	-1E+10	1	-1E+10	1	-1E+10	1
4901784	51	C	11/26/2016	10:43	-132.452	44.782	0	134.80	0	8.7830	0	33.6680	0	26.112	0	133.665	0	195.2	4	68.6	4	-1E+10	1	-1E+10	1	-1E+10	1	-1E+10	1	-1E+10	1	-1E+10	1
4901784	51	C	11/26/2016	10:43	-132.452	44.782	0	137.30	0	8.7320	0	33.7250	0	26.164	0	136.143	0	193.5	4	67.9	4	-1E+10	1	-1E+10	1	-1E+10	1	-1E+10	1	-1E+10	1	-1E+10	1
4901784	51	C	11/26/2016	10:43	-132.452	44.782	0	139.70	0	8.7130	0	33.7390	0	26.178	0	138.522	0	192.2	4	67.4	4	-1E+10	1	-1E+10	1	-1E+10	1	-1E+10	1	-1E+10	1	-1E+10	1
4901784	51	C	11/26/2016	10:43	-132.452	44.782	0	142.30	0	8.6850	0	33.7630	0	26.201	0	141.099	0	190.9	4	67.0	4	-1E+10	1	-1E+10	1	-1E+10	1	-1E+10	1	-1E+10	1	-1E+10	1
4901784	51	C	11/26/2016	10:43	-132.452	44.782	0	144.90	0	8.6220	0	33.7960	0	26.237	0	143.676	0	190.1	4	66.6	4	-1E+10	1	-1E+10	1	-1E+10	1	-1E+10	1	-1E+10	1	-1E+10	1
4901784	51	C	11/26/2016	10:43	-132.452	44.782	0	147.60	0	8.6320	0	33.8150	0	26.250	0	146.352	0	189.2	4	66.3	4	-1E+10	1	-1E+10	1	-1E+10	1	-1E+10	1	-1E+10	1	-1E+10	1
4901784	51	C	11/26/2016	10:43	-132.452	44.782	0	150.30	0	8.6280	0	33.8340	0	26.266	0	149.029	0	187.7	4	65.8	4	-1E+10	1	-1E+10	1	-1E+10	1	-1E+10	1	-1E+10	1	-1E+10	1
4901784	51	C	11/26/2016	10:43	-132.452	44.782	0	152.10	0	8.5880	0	33.8570	0	26.290	0	150.813	0	186.6	4	65.3	4	-1E+10	1	-1E+10	1	-1E+10	1	-1E+10	1	-1E+10	1	-1E+10	1
4901784	51	C	11/26/2016	10:43	-132.452	44.782	0	154.90	0	8.5190	0	33.8710	0	26.312	0	153.588	0	185.2	4	64.8	4	-1E+10	1	-1E+10	1	-1E+10	1	-1E+10	1	-1E+10	1	-1E+10	1
4901784	51	C	11/26/2016	10:43	-132.452	44.782	0	158.10	0	8.4470	0	33.8810	0	26.331	0	156.760	0	183.6	4	64.1	4	-1E+10	1	-1E+10	1	-1E+10	1	-1E+10	1	-1E+10	1	-1E+10	1
4901784	51	C	11/26/2016	10:43	-132.452	44.782	0	159.90	0	8.3940	0	33.8840	0	26.341	0	158.544	0	182.7	4	63.7	4	-1E+10	1	-1E+10	1	-1E+10	1	-1E+10	1	-1E+10	1	-1E+10	1
4901784	51	C	11/26/2016	10:43	-132.452	44.782	0	162.10	0	8.3330	0	33.8910	0	26.356	0	160.724	0	182.0	4	63.4	4	-1E+10	1	-1E+10	1	-1E+10	1	-1E+10	1	-1E+10	1	-1E+10	1
4901784	51	C	11/26/2016	10:43	-132.452	44.782	0	165.20	0	8.2990	0	33.8960	0	26.365	0	163.797	0	181.0	4	63.0	4	-1E+10	1	-1E+10	1	-1E+10	1	-1E+10	1	-1E+10	1	-1E+10	1
4901784	51	C	11/26/2016	10:43	-132.452	44.782	0	167.60	0	8.2600	0	33.9010	0	26.375	0	166.175	0	179.8	4	62.5	4	-1E+10	1	-1E+10	1	-1E+10	1	-1E+10	1	-1E+10	1	-1E+10	1
4901784	51	C	11/26/2016	10:43	-132.452	44.782	0	170.10	0	8.1790	0	33.9060	0	26.391	0	168.653	0	178.4	4	61.9	4	-1E+10	1	-1E+10	1	-1E+10	1	-1E+10	1	-1E+10	1	-1E+10	1
4901784	51	C	11/26/2016	10:43	-132.452	44.782	0	172.50	0	8.1410	0	33.9020	0	26.393	0	171.032	0	176.8	4	61.3	4	-1E+10	1	-1E+10	1	-1E+10	1	-1E+10	1	-1E+10	1	-1E+10	1
4901784	51	C	11/26/2016	10:43	-132.452	44.782	0	174.80	0	8.0840	0	33.9150	0	26.412	0	173.311	0	175.4	4	60.8	4	-1E+10	1	-1E+10	1	-1E+10	1	-1E+10	1	-1E+10	1	-1E+10	1
4901784	51	C	11/26/2016	10:43	-132.452	44.782	0	177.20	0	8.0410	0	33.9200	0	26.422	0	175.690	0	174.3	4	60.3	4	-1E+10	1	-1E+10	1	-1E+10	1	-1E+10	1	-1E+10	1	-1E+10	1
4901784	51	C	11/26/2016	10:43	-132.452	44.782	0	179.60	0	8.0090	0	33.9220	0	26.429	0	178.068	0	172.9	4	59.8	4	-1E+10	1	-1E+10	1	-1E+10	1	-1E+10	1	-1E+10	1	-1E+10	1
4901784	51	C	11/26/2016	10:43	-132.452	44.782	0	182.90	0	7.9260	0	33.9250	0	26.443	0	181.339	0	170.8	4	59.0	4	-1E+10	1	-1E+10	1	-1E+10	1	-1E+10	1	-1E+10	1	-1E+10	1
4901784	51	C	11/26/2016	10:43	-132.452	44.782	0	185.30	0	7.8420	0	33.9260	0	26.457	0	183.717	0	169.4	4	58.4	4	-1E+10	1	-1E+10	1	-1E+10	1	-1E+10	1	-1E+10	1	-1E+10	1
4901784	51	C	11/26/2016	10:43	-132.452	44.782	0	187.70	0	7.7920	0	33.9270	0	26.465	0	186.096	0	168.4	4	58.0	4	-1E+10	1	-1E+10	1	-1E+10	1	-1E+10	1	-1E+10	1	-1E+10	1
4901784	51	C	11/26/2016	10:43	-132.452	44.782	0	190.20	0	7.7480	0	33.9270	0	26.471	0	188.573	0	167.6	4	57.6	4	-1E+10	1	-1E+10	1	-1E+10	1	-1E+10	1	-1E+10	1	-1E+10	1
4901784	51	C	11/26/2016	10:43	-132.452	44.782	0	192.70	0	7.7050	0	33.9300	0	26.480	0	191.050	0	166.6	4	57.2	4	-1E+10	1	-1E+10	1	-1E+10	1	-1E+10	1	-1E+10	1	-1E+10	1
4901784	51	C	11/26/2016	10:43	-132.452	44.782	0	195.20	0	7.6630	0	33.9300	0	26.486	0	193.528	0	165.7	4	56.9	4	-1E+10	1	-1E+10	1	-1E+10	1	-1E+10	1	-1E+10	1	-1E+10	1
4901784	51	C	11/26/2016	10:43	-132.452	44.782	0	197.70	0	7.6170	0	33.9320	0	26.494	0	196.005	0	164.7	4	56.5	4	-1E+10	1	-1E+10	1	-1E+10	1	-1E+10	1	-1E+10	1	-1E+10	1
4901784	51	C	11/26/2016	10:43	-132.452	44.782	0	200.30	0	7.5890	0	33.9310	0	26.497	0	198.582	0	163.6	4	56.1	4	-1E+10	1	-1E+10	1	-1E+10	1	-1E+10	1	-1E+10	1	-1E+10	1
4901784	51	C	11/26/2016	10:43	-132.452	44.782	0	202.80	0	7.5520	0	33.9310	0	26.502	0	201.059	0	162.6	4	55.7	4	-1E+10	1	-1E+10	1	-1E+10	1	-1E+10	1	-1E+10	1	-1E+10	1
4901784	51	C	11/26/2016	10:43	-132.452	44.782	0	205.40	0	7.5320	0	33.9300	0	26.505	0	203.635	0	161.4	4	55.2	4	-1E+10	1	-1E+10	1	-1E+10	1	-1E+10	1	-1E+10	1	-1E+10	1
4901784	51	C	11/26/2016	10:43	-132.452	44.782	0	207.10	0	7.4740	0	33.9350	0	26.517	0	205.320	0	160.2	4	54.7	4	-1E+10	1	-1E+10	1	-1E+10	1	-1E+10	1	-1E+10	1	-1E+10	1
4901784	51	C	11/26/2016	10:43	-132.452	44.782	0	209.70	0	7.3950	0	33.9340	0	26.527	0	207.896	0	159.3	4	54.3	4	-1E+10	1	-1E+10	1	-1E+10	1	-1E+10	1	-1E+10	1	-1E+10	1
4901784	51	C	11/26/2016	10:43	-132.452	44.782	0	212.30	0	7.3690	0	33.9330	0	26.530	0	210.473	0	158.1	4	53.9	4	-1E+10	1	-1E+10	1	-1E+10	1	-1E+10	1	-1E+10	1	-1E+10	1
4901784	51	C	11/26/2016	10:43	-132.452	44.782	0	214.90	0	7.3110	0	33.9340	0	26.539	0	213.049	0	156.9	4	53.4	4	-1E+10	1	-1E+10	1	-1E+10	1	-1E+10	1	-1E+10	1	-1E+10	1
4901784	51	C	11/26/2016	10:43	-132.452	44.782	0	217.50	0	7.2540	0	33.9350	0	26.548	0	215.625	0	155.8	4	53.0	4	-1E+10	1	-1E+10	1	-1E+10	1	-1E+10	1	-1E+10	1	-1E+10	1
4901784	51	C	11/26/2016	10:43	-132.452	44.782	0	220.10	0	7.2170	0	33.9370	0	26.555	0	218.201	0	154.8	4	52.6	4	-1E+10	1	-1E+10	1	-1E+10	1	-1E+10	1	-1E+10	1	-1E+10	1
4901784	51	C	11/26/2016	10:43	-132.452	44.782	0	222.80	0	7.2030	0	33.9360	0	26.556	0	220.877	0	153.5	4	52.2	4	-1E+10	1	-1E+10	1	-1E+10	1	-1E+10	1	-1E+10	1	-1E+10	1
4901784	51	C	11/26/2016	10:43	-132.452	44.782	0	224.60	0	7.1930	0	33.9330	0	26.555	0	222.660	0	152.4	4	51.8	4	-1E+10	1	-1E+10	1	-1E+10	1	-1E+10	1	-1E+10	1	-1E+10	1
4901784	51	C	11/26/2016	10:43	-132.452	44.782	0	227.30	0	7.0930	0	33.9360	0	26.571	0	225.335	0	151.1	4	51.2	4	-1E+10	1	-1E+10	1	-1E+10	1	-1E+10	1	-1E+10	1	-1E+10	1
4901784	51	C	11/26/2016	10:43	-132.452	44.782	0	230.00	0	7.0390	0	33.9400	0	26.582	0	228.011	0	150.1	4	50.8	4	-1E+10	1	-1E+10	1	-1E+10	1	-1E+10	1	-1E+10	1	-1E+10	1
4901784	51	C	11/26/2016	10:43	-132.452	44.782	0	232.80	0	7.0280	0	33.9400	0	26.583	0	230.785	0	148.8	4	50.3	4	-1E+10	1	-1E+10	1	-1E+10	1	-1E+10	1	-1E+10	1	-1E+10	1
4901784	51	C	11/26/2016	10:43	-132.452	44.782	0	235.40	0	7.0030	0	33.9380	0	26.585	0	233.361	0	147.2	4	49.8	4	-1E+10	1	-1E+10	1	-1E+10	1	-1E+10	1	-1E+10	1	-1E+10	1
4901784	51	C	11/26/2016	10:43	-132.452	44.782	0	237.20	0	6.9630	0	33.9390	0	26.591	0	235.144	0	145.8	4	49.2	4	-1E+10	1	-1E+10	1	-1E+10	1	-1E+10	1	-1E+10	1	-1E+10	1
4901784	51	C	11/26/2016	10:43	-132.452	44.782	0	240.00	0	6.9240	0	33.9390	0	26.597	0	237.918	0	144.2	4	48.7	4	-1E+10	1	-1E+10	1	-1E+10	1	-1E+10	1	-1E+10	1	-1E+10	1
4901784	51	C	11/26/2016	10:43	-132.452	44.782	0	242.60	0	6.8600	0	33.9420	0	26.608	0	240.494	0	142.5	4	48.0	4	-1E+10	1	-1E+10	1	-1E+10	1	-1E+10	1	-1E+10	1	-1E+10	1
4901784	51	C	11/26/2016	10:43	-132.452	44.782	0	244.40	0	6.8170	0	33.9410	0	26.613	0	242.278	0	141.9	4	47.8	4	-1E+10	1	-1E+10	1	-1E+10	1	-1E+10	1	-1E+10	1	-1E+10	1
4901784	51	C	11/26/2016	10:43	-132.452	44.782	0	247.20	0	6.8060	0	33.9410	0	26.614	0	245.052	0	141.0	4	47.5	4	-1E+10	1	-1E+10	1	-1E+10	1	-1E+10	1	-1E+10	1	-1E+10	1
4901784	51	C	11/26/2016	10:43	-132.452	44.782	0	250.00	0	6.7770	0	33.9400	0	26.617	0	247.826	0	139.9	4	47.1	4	-1E+10	1	-1E+10	1	-1E+10	1	-1E+10	1	-1E+10	1	-1E+10	1
4901784	51	C	11/26/2016	10:43	-132.452	44.782	0	252.80	0	6.7570	0	33.9390	0	26.619	0	250.600	0	138.6	4	46.6	4	-1E+10	1	-1E+10	1	-1E+10	1	-1E+10	1	-1E+10	1	-1E+10	1
4901784	51	C	11/26/2016	10:43	-132.452	44.782	0	255.60	0	6.7270	0	33.9380	0	26.622	0	253.374	0	137.2	4	46.1	4	-1E+10	1	-1E+10	1	-1E+10	1	-1E+10	1	-1E+10	1	-1E+10	1
4901784	51	C	11/26/2016	10:43	-132.452	44.782	0	257.40	0	6.6600	0	33.9400	0	26.633	0	255.157	0	136.2	4	45.7	4	-1E+10	1	-1E+10	1	-1E+10	1	-1E+10	1	-1E+10	1	-1E+10	1
4901784	51	C	11/26/2016	10:43	-132.452	44.782	0	260.20	0	6.6300	0	33.9400	0	26.637	0	257.931	0	135.1	4	45.3	4	-1E+10	1	-1E+10	1	-1E+10	1	-1E+10	1	-1E+10	1	-1E+10	1
4901784	51	C	11/26/2016	10:43	-132.452	44.782	0	263.00	0	6.5710	0	33.9410	0	26.646	0	260.704	0	133.7	4	44.8	4	-1E+10	1	-1E+10	1	-1E+10	1	-1E+10	1	-1E+10	1	-1E+10	1
4901784	51	C	11/26/2016	10:43	-132.452	44.782	0	264.90	0	6.5680	0	33.9390	0	26.644	0	262.587	0	132.8	4	44.5	4	-1E+10	1	-1E+10	1	-1E+10	1	-1E+10	1	-1E+10	1	-1E+10	1
4901784	51	C	11/26/2016	10:43	-132.452	44.782	0	267.60	0	6.5240	0	33.9380	0	26.649	0	265.261	0	131.4	4	43.9	4	-1E+10	1	-1E+10	1	-1E+10	1	-1E+10	1	-1E+10	1	-1E+10	1
4901784	51	C	11/26/2016	10:43	-132.452	44.782	0	270.40	0	6.4780	0	33.9350	0	26.653	0	268.035	0	129.8	4	43.4	4	-1E+10	1	-1E+10	1	-1E+10	1	-1E+10	1	-1E+10	1	-1E+10	1
4901784	51	C	11/26/2016	10:43	-132.452	44.782	0	272.30	0	6.4470	0	33.9340	0	26.656	0	269.917	0	128.9	4	43.0	4	-1E+10	1	-1E+10	1	-1E+10	1	-1E+10	1	-1E+10	1	-1E+10	1
4901784	51	C	11/26/2016	10:43	-132.452	44.782	0	275.20	0	6.4110	0	33.9330	0	26.660	0	272.790	0	127.1	4	42.4	4	-1E+10	1	-1E+10	1	-1E+10	1	-1E+10	1	-1E+10	1	-1E+10	1
4901784	51	C	11/26/2016	10:43	-132.452	44.782	0	278.00	0	6.3660	0	33.9320	0	26.665	0	275.563	0	125.2	4	41.7	4	-1E+10	1	-1E+10	1	-1E+10	1	-1E+10	1	-1E+10	1	-1E+10	1
4901784	51	C	11/26/2016	10:43	-132.452	44.782	0	279.90	0	6.3160	0	33.9320	0	26.672	0	277.446	0	124.0	4	41.3	4	-1E+10	1	-1E+10	1	-1E+10	1	-1E+10	1	-1E+10	1	-1E+10	1
4901784	51	C	11/26/2016	10:43	-132.452	44.782	0	282.70	0	6.2480	0	33.9350	0	26.683	0	280.219	0	122.4	4	40.7	4	-1E+10	1	-1E+10	1	-1E+10	1	-1E+10	1	-1E+10	1	-1E+10	1
4901784	51	C	11/26/2016	10:43	-132.452	44.782	0	285.50	0	6.1940	0	33.9330	0	26.688	0	282.993	0	120.9	4	40.1	4	-1E+10	1	-1E+10	1	-1E+10	1	-1E+10	1	-1E+10	1	-1E+10	1
4901784	51	C	11/26/2016	10:43	-132.452	44.782	0	287.30	0	6.1670	0	33.9320	0	26.691	0	284.776	0	120.0	4	39.8	4	-1E+10	1	-1E+10	1	-1E+10	1	-1E+10	1	-1E+10	1	-1E+10	1
4901784	51	C	11/26/2016	10:43	-132.452	44.782	0	290.20	0	6.1070	0	33.9360	0	26.702	0	287.648	0	118.8	4	39.3	4	-1E+10	1	-1E+10	1	-1E+10	1	-1E+10	1	-1E+10	1	-1E+10	1
4901784	51	C	11/26/2016	10:43	-132.452	44.782	0	293.00	0	6.0770	0	33.9340	0	26.704	0	290.421	0	117.9	4	39.0	4	-1E+10	1	-1E+10	1	-1E+10	1	-1E+10	1	-1E+10	1	-1E+10	1
4901784	51	C	11/26/2016	10:43	-132.452	44.782	0	294.90	0	6.0570	0	33.9340	0	26.706	0	292.303	0	117.2	4	38.8	4	-1E+10	1	-1E+10	1	-1E+10	1	-1E+10	1	-1E+10	1	-1E+10	1
4901784	51	C	11/26/2016	10:43	-132.452	44.782	0	297.70	0	6.0160	0	33.9330	0	26.711	0	295.077	0	115.8	4	38.3	4	-1E+10	1	-1E+10	1	-1E+10	1	-1E+10	1	-1E+10	1	-1E+10	1
4901784	51	C	11/26/2016	10:43	-132.452	44.782	0	300.60	0	5.9780	0	33.9350	0	26.717	0	297.949	0	114.5	4	37.8	4	-1E+10	1	-1E+10	1	-1E+10	1	-1E+10	1	-1E+10	1	-1E+10	1
4901784	51	C	11/26/2016	10:43	-132.452	44.782	0	302.50	0	5.9690	0	33.9360	0	26.719	0	299.831	0	113.8	4	37.6	4	-1E+10	1	-1E+10	1	-1E+10	1	-1E+10	1	-1E+10	1	-1E+10	1
4901784	51	C	11/26/2016	10:43	-132.452	44.782	0	305.30	0	5.9540	0	33.9360	0	26.721	0	302.604	0	112.2	4	37.1	4	-1E+10	1	-1E+10	1	-1E+10	1	-1E+10	1	-1E+10	1	-1E+10	1
4901784	51	C	11/26/2016	10:43	-132.452	44.782	0	308.10	0	5.9300	0	33.9350	0	26.723	0	305.377	0	110.5	4	36.4	4	-1E+10	1	-1E+10	1	-1E+10	1	-1E+10	1	-1E+10	1	-1E+10	1
4901784	51	C	11/26/2016	10:43	-132.452	44.782	0	309.90	0	5.9000	0	33.9370	0	26.729	0	307.160	0	109.1	4	36.0	4	-1E+10	1	-1E+10	1	-1E+10	1	-1E+10	1	-1E+10	1	-1E+10	1
4901784	51	C	11/26/2016	10:43	-132.452	44.782	0	312.80	0	5.8710	0	33.9380	0	26.733	0	310.032	0	107.1	4	35.3	4	-1E+10	1	-1E+10	1	-1E+10	1	-1E+10	1	-1E+10	1	-1E+10	1
4901784	51	C	11/26/2016	10:43	-132.452	44.782	0	315.60	0	5.8470	0	33.9410	0	26.738	0	312.806	0	104.8	4	34.5	4	-1E+10	1	-1E+10	1	-1E+10	1	-1E+10	1	-1E+10	1	-1E+10	1
4901784	51	C	11/26/2016	10:43	-132.452	44.782	0	317.50	0	5.8450	0	33.9470	0	26.743	0	314.687	0	103.4	4	34.1	4	-1E+10	1	-1E+10	1	-1E+10	1	-1E+10	1	-1E+10	1	-1E+10	1
4901784	51	C	11/26/2016	10:43	-132.452	44.782	0	320.30	0	5.7970	0	33.9470	0	26.749	0	317.460	0	102.2	4	33.6	4	-1E+10	1	-1E+10	1	-1E+10	1	-1E+10	1	-1E+10	1	-1E+10	1
4901784	51	C	11/26/2016	10:43	-132.452	44.782	0	323.10	0	5.7540	0	33.9460	0	26.754	0	320.233	0	101.1	4	33.2	4	-1E+10	1	-1E+10	1	-1E+10	1	-1E+10	1	-1E+10	1	-1E+10	1
4901784	51	C	11/26/2016	10:43	-132.452	44.782	0	324.90	0	5.7170	0	33.9490	0	26.761	0	322.016	0	100.4	4	32.9	4	-1E+10	1	-1E+10	1	-1E+10	1	-1E+10	1	-1E+10	1	-1E+10	1
4901784	51	C	11/26/2016	10:43	-132.452	44.782	0	327.70	0	5.6910	0	33.9470	0	26.762	0	324.789	0	99.3	4	32.6	4	-1E+10	1	-1E+10	1	-1E+10	1	-1E+10	1	-1E+10	1	-1E+10	1
4901784	51	C	11/26/2016	10:43	-132.452	44.782	0	330.40	0	5.6580	0	33.9460	0	26.766	0	327.463	0	98.0	4	32.1	4	-1E+10	1	-1E+10	1	-1E+10	1	-1E+10	1	-1E+10	1	-1E+10	1
4901784	51	C	11/26/2016	10:43	-132.452	44.782	0	332.30	0	5.6300	0	33.9500	0	26.772	0	329.344	0	97.0	4	31.8	4	-1E+10	1	-1E+10	1	-1E+10	1	-1E+10	1	-1E+10	1	-1E+10	1
4901784	51	C	11/26/2016	10:43	-132.452	44.782	0	335.00	0	5.5910	0	33.9500	0	26.777	0	332.018	0	96.0	4	31.4	4	-1E+10	1	-1E+10	1	-1E+10	1	-1E+10	1	-1E+10	1	-1E+10	1
4901784	51	C	11/26/2016	10:43	-132.452	44.782	0	337.90	0	5.5800	0	33.9510	0	26.779	0	334.890	0	95.0	4	31.1	4	-1E+10	1	-1E+10	1	-1E+10	1	-1E+10	1	-1E+10	1	-1E+10	1
4901784	51	C	11/26/2016	10:43	-132.452	44.782	0	339.70	0	5.5710	0	33.9510	0	26.780	0	336.673	0	94.0	4	30.8	4	-1E+10	1	-1E+10	1	-1E+10	1	-1E+10	1	-1E+10	1	-1E+10	1
4901784	51	C	11/26/2016	10:43	-132.452	44.782	0	342.50	0	5.5460	0	33.9550	0	26.786	0	339.445	0	92.7	4	30.3	4	-1E+10	1	-1E+10	1	-1E+10	1	-1E+10	1	-1E+10	1	-1E+10	1
4901784	51	C	11/26/2016	10:43	-132.452	44.782	0	345.20	0	5.5250	0	33.9570	0	26.790	0	342.119	0	91.6	4	29.9	4	-1E+10	1	-1E+10	1	-1E+10	1	-1E+10	1	-1E+10	1	-1E+10	1
4901784	51	C	11/26/2016	10:43	-132.452	44.782	0	347.10	0	5.5200	0	33.9570	0	26.791	0	344.000	0	90.8	4	29.7	4	-1E+10	1	-1E+10	1	-1E+10	1	-1E+10	1	-1E+10	1	-1E+10	1
4901784	51	C	11/26/2016	10:43	-132.452	44.782	0	349.90	0	5.5110	0	33.9600	0	26.794	0	346.773	0	89.4	4	29.2	4	-1E+10	1	-1E+10	1	-1E+10	1	-1E+10	1	-1E+10	1	-1E+10	1
4901784	51	C	11/26/2016	10:43	-132.452	44.782	0	352.70	0	5.4850	0	33.9630	0	26.800	0	349.546	0	88.5	4	28.9	4	-1E+10	1	-1E+10	1	-1E+10	1	-1E+10	1	-1E+10	1	-1E+10	1
4901784	51	C	11/26/2016	10:43	-132.452	44.782	0	354.50	0	5.4840	0	33.9610	0	26.799	0	351.328	0	87.9	4	28.7	4	-1E+10	1	-1E+10	1	-1E+10	1	-1E+10	1	-1E+10	1	-1E+10	1
4901784	51	C	11/26/2016	10:43	-132.452	44.782	0	357.30	0	5.4330	0	33.9610	0	26.805	0	354.101	0	86.9	4	28.3	4	-1E+10	1	-1E+10	1	-1E+10	1	-1E+10	1	-1E+10	1	-1E+10	1
4901784	51	C	11/26/2016	10:43	-132.452	44.782	0	360.00	0	5.4000	0	33.9610	0	26.809	0	356.774	0	85.5	4	27.9	4	-1E+10	1	-1E+10	1	-1E+10	1	-1E+10	1	-1E+10	1	-1E+10	1
4901784	51	C	11/26/2016	10:43	-132.452	44.782	0	362.80	0	5.4120	0	33.9670	0	26.812	0	359.547	0	83.8	4	27.3	4	-1E+10	1	-1E+10	1	-1E+10	1	-1E+10	1	-1E+10	1	-1E+10	1
4901784	51	C	11/26/2016	10:43	-132.452	44.782	0	365.50	0	5.4010	0	33.9690	0	26.815	0	362.220	0	82.5	4	26.9	4	-1E+10	1	-1E+10	1	-1E+10	1	-1E+10	1	-1E+10	1	-1E+10	1
4901784	51	C	11/26/2016	10:43	-132.452	44.782	0	367.30	0	5.3970	0	33.9730	0	26.818	0	364.002	0	81.3	4	26.5	4	-1E+10	1	-1E+10	1	-1E+10	1	-1E+10	1	-1E+10	1	-1E+10	1
4901784	51	C	11/26/2016	10:43	-132.452	44.782	0	370.10	0	5.3770	0	33.9740	0	26.822	0	366.775	0	80.4	4	26.2	4	-1E+10	1	-1E+10	1	-1E+10	1	-1E+10	1	-1E+10	1	-1E+10	1
4901784	51	C	11/26/2016	10:43	-132.452	44.782	0	372.90	0	5.3570	0	33.9740	0	26.824	0	369.547	0	79.5	4	25.9	4	-1E+10	1	-1E+10	1	-1E+10	1	-1E+10	1	-1E+10	1	-1E+10	1
4901784	51	C	11/26/2016	10:43	-132.452	44.782	0	374.70	0	5.3440	0	33.9740	0	26.826	0	371.329	0	78.9	4	25.7	4	-1E+10	1	-1E+10	1	-1E+10	1	-1E+10	1	-1E+10	1	-1E+10	1
4901784	51	C	11/26/2016	10:43	-132.452	44.782	0	377.50	0	5.3190	0	33.9760	0	26.830	0	374.102	0	77.7	4	25.3	4	-1E+10	1	-1E+10	1	-1E+10	1	-1E+10	1	-1E+10	1	-1E+10	1
4901784	51	C	11/26/2016	10:43	-132.452	44.782	0	380.20	0	5.2850	0	33.9790	0	26.837	0	376.775	0	76.5	4	24.9	4	-1E+10	1	-1E+10	1	-1E+10	1	-1E+10	1	-1E+10	1	-1E+10	1
4901784	51	C	11/26/2016	10:43	-132.452	44.782	0	382.00	0	5.2800	0	33.9790	0	26.837	0	378.557	0	75.8	4	24.6	4	-1E+10	1	-1E+10	1	-1E+10	1	-1E+10	1	-1E+10	1	-1E+10	1
4901784	51	C	11/26/2016	10:43	-132.452	44.782	0	384.80	0	5.2580	0	33.9810	0	26.841	0	381.329	0	74.8	4	24.3	4	-1E+10	1	-1E+10	1	-1E+10	1	-1E+10	1	-1E+10	1	-1E+10	1
4901784	51	C	11/26/2016	10:43	-132.452	44.782	0	387.60	0	5.2400	0	33.9820	0	26.844	0	384.101	0	73.8	4	24.0	4	-1E+10	1	-1E+10	1	-1E+10	1	-1E+10	1	-1E+10	1	-1E+10	1
4901784	51	C	11/26/2016	10:43	-132.452	44.782	0	390.30	0	5.2140	0	33.9840	0	26.849	0	386.774	0	72.7	4	23.6	4	-1E+10	1	-1E+10	1	-1E+10	1	-1E+10	1	-1E+10	1	-1E+10	1
4901784	51	C	11/26/2016	10:43	-132.452	44.782	0	393.00	0	5.1900	0	33.9860	0	26.853	0	389.448	0	71.8	4	23.3	4	-1E+10	1	-1E+10	1	-1E+10	1	-1E+10	1	-1E+10	1	-1E+10	1
4901784	51	C	11/26/2016	10:43	-132.452	44.782	0	394.90	0	5.1750	0	33.9870	0	26.856	0	391.329	0	71.1	4	23.1	4	-1E+10	1	-1E+10	1	-1E+10	1	-1E+10	1	-1E+10	1	-1E+10	1
4901784	51	C	11/26/2016	10:43	-132.452	44.782	0	397.70	0	5.1580	0	33.9880	0	26.859	0	394.101	0	69.9	4	22.7	4	-1E+10	1	-1E+10	1	-1E+10	1	-1E+10	1	-1E+10	1	-1E+10	1
4901784	51	C	11/26/2016	10:43	-132.452	44.782	0	400.50	0	5.1390	0	33.9920	0	26.864	0	396.873	0	68.6	4	22.2	4	-1E+10	1	-1E+10	1	-1E+10	1	-1E+10	1	-1E+10	1	-1E+10	1
4901784	51	C	11/26/2016	10:43	-132.452	44.782	0	402.30	0	5.1340	0	33.9930	0	26.865	0	398.655	0	67.7	4	21.9	4	-1E+10	1	-1E+10	1	-1E+10	1	-1E+10	1	-1E+10	1	-1E+10	1
4901784	51	C	11/26/2016	10:43	-132.452	44.782	0	405.10	0	5.1300	0	33.9980	0	26.870	0	401.426	0	66.2	4	21.4	4	-1E+10	1	-1E+10	1	-1E+10	1	-1E+10	1	-1E+10	1	-1E+10	1
4901784	51	C	11/26/2016	10:43	-132.452	44.782	0	407.90	0	5.1380	0	34.0020	0	26.872	0	404.198	0	64.8	4	21.0	4	-1E+10	1	-1E+10	1	-1E+10	1	-1E+10	1	-1E+10	1	-1E+10	1
4901784	51	C	11/26/2016	10:43	-132.452	44.782	0	409.80	0	5.1390	0	34.0030	0	26.873	0	406.079	0	63.9	4	20.7	4	-1E+10	1	-1E+10	1	-1E+10	1	-1E+10	1	-1E+10	1	-1E+10	1
4901784	51	C	11/26/2016	10:43	-132.452	44.782	0	412.70	0	5.1200	0	34.0070	0	26.878	0	408.950	0	61.9	4	20.1	4	-1E+10	1	-1E+10	1	-1E+10	1	-1E+10	1	-1E+10	1	-1E+10	1
4901784	51	C	11/26/2016	10:43	-132.452	44.782	0	415.50	0	5.1260	0	34.0170	0	26.885	0	411.722	0	60.2	4	19.5	4	-1E+10	1	-1E+10	1	-1E+10	1	-1E+10	1	-1E+10	1	-1E+10	1
4901784	51	C	11/26/2016	10:43	-132.452	44.782	0	417.90	0	5.1230	0	34.0200	0	26.888	0	414.098	0	59.1	4	19.1	4	-1E+10	1	-1E+10	1	-1E+10	1	-1E+10	1	-1E+10	1	-1E+10	1
4901784	51	C	11/26/2016	10:43	-132.452	44.782	0	419.70	0	5.1170	0	34.0230	0	26.891	0	415.879	0	58.1	4	18.8	4	-1E+10	1	-1E+10	1	-1E+10	1	-1E+10	1	-1E+10	1	-1E+10	1
4901784	51	C	11/26/2016	10:43	-132.452	44.782	0	422.10	0	5.0950	0	34.0260	0	26.896	0	418.255	0	57.0	4	18.4	4	-1E+10	1	-1E+10	1	-1E+10	1	-1E+10	1	-1E+10	1	-1E+10	1
4901784	51	C	11/26/2016	10:43	-132.452	44.782	0	425.40	0	5.0820	0	34.0300	0	26.901	0	421.522	0	55.5	4	17.9	4	-1E+10	1	-1E+10	1	-1E+10	1	-1E+10	1	-1E+10	1	-1E+10	1
4901784	51	C	11/26/2016	10:43	-132.452	44.782	0	427.80	0	5.0660	0	34.0340	0	26.906	0	423.897	0	54.5	4	17.6	4	-1E+10	1	-1E+10	1	-1E+10	1	-1E+10	1	-1E+10	1	-1E+10	1
4901784	51	C	11/26/2016	10:43	-132.452	44.782	0	430.30	0	5.0550	0	34.0360	0	26.909	0	426.372	0	53.6	4	17.3	4	-1E+10	1	-1E+10	1	-1E+10	1	-1E+10	1	-1E+10	1	-1E+10	1
4901784	51	C	11/26/2016	10:43	-132.452	44.782	0	432.70	0	5.0320	0	34.0390	0	26.914	0	428.748	0	52.9	4	17.1	4	-1E+10	1	-1E+10	1	-1E+10	1	-1E+10	1	-1E+10	1	-1E+10	1
4901784	51	C	11/26/2016	10:43	-132.452	44.782	0	435.20	0	5.0250	0	34.0400	0	26.915	0	431.222	0	52.1	4	16.9	4	-1E+10	1	-1E+10	1	-1E+10	1	-1E+10	1	-1E+10	1	-1E+10	1
4901784	51	C	11/26/2016	10:43	-132.452	44.782	0	437.60	0	5.0030	0	34.0450	0	26.922	0	433.598	0	51.2	4	16.5	4	-1E+10	1	-1E+10	1	-1E+10	1	-1E+10	1	-1E+10	1	-1E+10	1
4901784	51	C	11/26/2016	10:43	-132.452	44.782	0	440.10	0	4.9980	0	34.0460	0	26.923	0	436.072	0	50.5	4	16.3	4	-1E+10	1	-1E+10	1	-1E+10	1	-1E+10	1	-1E+10	1	-1E+10	1
4901784	51	C	11/26/2016	10:43	-132.452	44.782	0	442.60	0	4.9940	0	34.0460	0	26.924	0	438.547	0	49.7	4	16.1	4	-1E+10	1	-1E+10	1	-1E+10	1	-1E+10	1	-1E+10	1	-1E+10	1
4901784	51	C	11/26/2016	10:43	-132.452	44.782	0	445.10	0	4.9710	0	34.0490	0	26.929	0	441.021	0	48.5	4	15.7	4	-1E+10	1	-1E+10	1	-1E+10	1	-1E+10	1	-1E+10	1	-1E+10	1
4901784	51	C	11/26/2016	10:43	-132.452	44.782	0	447.60	0	4.9420	0	34.0530	0	26.935	0	443.496	0	47.4	4	15.3	4	-1E+10	1	-1E+10	1	-1E+10	1	-1E+10	1	-1E+10	1	-1E+10	1
4901784	51	C	11/26/2016	10:43	-132.452	44.782	0	450.10	0	4.9310	0	34.0570	0	26.940	0	445.970	0	46.3	4	14.9	4	-1E+10	1	-1E+10	1	-1E+10	1	-1E+10	1	-1E+10	1	-1E+10	1
4901784	51	C	11/26/2016	10:43	-132.452	44.782	0	452.70	0	4.9210	0	34.0610	0	26.944	0	448.543	0	45.4	4	14.7	4	-1E+10	1	-1E+10	1	-1E+10	1	-1E+10	1	-1E+10	1	-1E+10	1
4901784	51	C	11/26/2016	10:43	-132.452	44.782	0	455.30	0	4.9010	0	34.0650	0	26.949	0	451.117	0	44.7	4	14.4	4	-1E+10	1	-1E+10	1	-1E+10	1	-1E+10	1	-1E+10	1	-1E+10	1
4901784	51	C	11/26/2016	10:43	-132.452	44.782	0	457.80	0	4.8940	0	34.0660	0	26.951	0	453.591	0	44.0	4	14.2	4	-1E+10	1	-1E+10	1	-1E+10	1	-1E+10	1	-1E+10	1	-1E+10	1
4901784	51	C	11/26/2016	10:43	-132.452	44.782	0	459.60	0	4.8820	0	34.0680	0	26.954	0	455.372	0	43.6	4	14.1	4	-1E+10	1	-1E+10	1	-1E+10	1	-1E+10	1	-1E+10	1	-1E+10	1
4901784	51	C	11/26/2016	10:43	-132.452	44.782	0	462.20	0	4.8650	0	34.0700	0	26.957	0	457.946	0	43.2	4	13.9	4	-1E+10	1	-1E+10	1	-1E+10	1	-1E+10	1	-1E+10	1	-1E+10	1
4901784	51	C	11/26/2016	10:43	-132.452	44.782	0	464.80	0	4.8600	0	34.0710	0	26.959	0	460.519	0	42.7	4	13.7	4	-1E+10	1	-1E+10	1	-1E+10	1	-1E+10	1	-1E+10	1	-1E+10	1
4901784	51	C	11/26/2016	10:43	-132.452	44.782	0	467.40	0	4.8440	0	34.0720	0	26.961	0	463.092	0	42.1	4	13.6	4	-1E+10	1	-1E+10	1	-1E+10	1	-1E+10	1	-1E+10	1	-1E+10	1
4901784	51	C	11/26/2016	10:43	-132.452	44.782	0	470.00	0	4.8350	0	34.0740	0	26.964	0	465.665	0	41.4	4	13.3	4	-1E+10	1	-1E+10	1	-1E+10	1	-1E+10	1	-1E+10	1	-1E+10	1
4901784	51	C	11/26/2016	10:43	-132.452	44.782	0	472.60	0	4.8150	0	34.0790	0	26.970	0	468.238	0	40.8	4	13.1	4	-1E+10	1	-1E+10	1	-1E+10	1	-1E+10	1	-1E+10	1	-1E+10	1
4901784	51	C	11/26/2016	10:43	-132.452	44.782	0	475.30	0	4.8150	0	34.0790	0	26.970	0	470.910	0	40.3	4	13.0	4	-1E+10	1	-1E+10	1	-1E+10	1	-1E+10	1	-1E+10	1	-1E+10	1
4901784	51	C	11/26/2016	10:43	-132.452	44.782	0	477.80	0	4.7870	0	34.0810	0	26.975	0	473.384	0	39.7	4	12.8	4	-1E+10	1	-1E+10	1	-1E+10	1	-1E+10	1	-1E+10	1	-1E+10	1
4901784	51	C	11/26/2016	10:43	-132.452	44.782	0	480.40	0	4.7590	0	34.0840	0	26.980	0	475.957	0	39.2	4	12.6	4	-1E+10	1	-1E+10	1	-1E+10	1	-1E+10	1	-1E+10	1	-1E+10	1
4901784	51	C	11/26/2016	10:43	-132.452	44.782	0	482.20	0	4.7520	0	34.0850	0	26.982	0	477.739	0	38.8	4	12.5	4	-1E+10	1	-1E+10	1	-1E+10	1	-1E+10	1	-1E+10	1	-1E+10	1
4901784	51	C	11/26/2016	10:43	-132.452	44.782	0	484.80	0	4.7500	0	34.0860	0	26.983	0	480.312	0	38.3	4	12.3	4	-1E+10	1	-1E+10	1	-1E+10	1	-1E+10	1	-1E+10	1	-1E+10	1
4901784	51	C	11/26/2016	10:43	-132.452	44.782	0	487.50	0	4.7450	0	34.0870	0	26.984	0	482.983	0	37.6	4	12.1	4	-1E+10	1	-1E+10	1	-1E+10	1	-1E+10	1	-1E+10	1	-1E+10	1
4901784	51	C	11/26/2016	10:43	-132.452	44.782	0	490.20	0	4.7330	0	34.0920	0	26.990	0	485.655	0	36.9	4	11.9	4	-1E+10	1	-1E+10	1	-1E+10	1	-1E+10	1	-1E+10	1	-1E+10	1
4901784	51	C	11/26/2016	10:43	-132.452	44.782	0	492.90	0	4.7090	0	34.0950	0	26.995	0	488.327	0	36.5	4	11.7	4	-1E+10	1	-1E+10	1	-1E+10	1	-1E+10	1	-1E+10	1	-1E+10	1
4901784	51	C	11/26/2016	10:43	-132.452	44.782	0	494.70	0	4.6890	0	34.0970	0	26.999	0	490.108	0	36.4	4	11.7	4	-1E+10	1	-1E+10	1	-1E+10	1	-1E+10	1	-1E+10	1	-1E+10	1
4901784	51	C	11/26/2016	10:43	-132.452	44.782	0	497.40	0	4.6690	0	34.0970	0	27.001	0	492.780	0	36.2	4	11.6	4	-1E+10	1	-1E+10	1	-1E+10	1	-1E+10	1	-1E+10	1	-1E+10	1
4901784	51	C	11/26/2016	10:43	-132.452	44.782	0	500.20	0	4.6600	0	34.0970	0	27.002	0	495.551	0	35.8	4	11.5	4	-1E+10	1	-1E+10	1	-1E+10	1	-1E+10	1	-1E+10	1	-1E+10	1
4901784	51	C	11/26/2016	10:43	-132.452	44.782	0	505.60	0	4.6320	0	34.1010	0	27.008	0	500.894	0	34.6	4	11.1	4	-1E+10	1	-1E+10	1	-1E+10	1	-1E+10	1	-1E+10	1	-1E+10	1
4901784	51	C	11/26/2016	10:43	-132.452	44.782	0	510.20	0	4.6410	0	34.1070	0	27.012	0	505.445	0	33.7	4	10.8	4	-1E+10	1	-1E+10	1	-1E+10	1	-1E+10	1	-1E+10	1	-1E+10	1
4901784	51	C	11/26/2016	10:43	-132.452	44.782	0	514.80	0	4.5890	0	34.1080	0	27.018	0	509.997	0	33.0	4	10.6	4	-1E+10	1	-1E+10	1	-1E+10	1	-1E+10	1	-1E+10	1	-1E+10	1
4901784	51	C	11/26/2016	10:43	-132.452	44.782	0	520.40	0	4.5860	0	34.1150	0	27.024	0	515.538	0	31.6	4	10.1	4	-1E+10	1	-1E+10	1	-1E+10	1	-1E+10	1	-1E+10	1	-1E+10	1
4901784	51	C	11/26/2016	10:43	-132.452	44.782	0	525.10	0	4.5830	0	34.1230	0	27.031	0	520.188	0	30.7	4	9.8	4	-1E+10	1	-1E+10	1	-1E+10	1	-1E+10	1	-1E+10	1	-1E+10	1
4901784	51	C	11/26/2016	10:43	-132.452	44.782	0	529.80	0	4.5620	0	34.1250	0	27.035	0	524.838	0	30.5	4	9.8	4	-1E+10	1	-1E+10	1	-1E+10	1	-1E+10	1	-1E+10	1	-1E+10	1
4901784	51	C	11/26/2016	10:43	-132.452	44.782	0	535.50	0	4.5230	0	34.1250	0	27.039	0	530.477	0	30.2	4	9.7	4	-1E+10	1	-1E+10	1	-1E+10	1	-1E+10	1	-1E+10	1	-1E+10	1
4901784	51	C	11/26/2016	10:43	-132.452	44.782	0	540.30	0	4.5090	0	34.1270	0	27.042	0	535.226	0	29.7	4	9.5	4	-1E+10	1	-1E+10	1	-1E+10	1	-1E+10	1	-1E+10	1	-1E+10	1
4901784	51	C	11/26/2016	10:43	-132.452	44.782	0	544.90	0	4.4900	0	34.1300	0	27.047	0	539.777	0	29.1	4	9.3	4	-1E+10	1	-1E+10	1	-1E+10	1	-1E+10	1	-1E+10	1	-1E+10	1
4901784	51	C	11/26/2016	10:43	-132.452	44.782	0	550.00	0	4.4650	0	34.1340	0	27.053	0	544.822	0	28.3	4	9.0	4	-1E+10	1	-1E+10	1	-1E+10	1	-1E+10	1	-1E+10	1	-1E+10	1
4901784	51	C	11/26/2016	10:43	-132.452	44.782	0	555.70	0	4.4360	0	34.1380	0	27.059	0	550.461	0	27.3	4	8.7	4	-1E+10	1	-1E+10	1	-1E+10	1	-1E+10	1	-1E+10	1	-1E+10	1
4901784	51	C	11/26/2016	10:43	-132.452	44.782	0	560.60	0	4.4290	0	34.1430	0	27.064	0	555.309	0	26.3	4	8.4	4	-1E+10	1	-1E+10	1	-1E+10	1	-1E+10	1	-1E+10	1	-1E+10	1
4901784	51	C	11/26/2016	10:43	-132.452	44.782	0	565.70	0	4.4160	0	34.1480	0	27.069	0	560.354	0	25.5	4	8.1	4	-1E+10	1	-1E+10	1	-1E+10	1	-1E+10	1	-1E+10	1	-1E+10	1
4901784	51	C	11/26/2016	10:43	-132.452	44.782	0	570.00	0	4.3990	0	34.1520	0	27.074	0	564.607	0	24.9	4	7.9	4	-1E+10	1	-1E+10	1	-1E+10	1	-1E+10	1	-1E+10	1	-1E+10	1
4901784	51	C	11/26/2016	10:43	-132.452	44.782	0	574.30	0	4.3900	0	34.1570	0	27.079	0	568.860	0	24.4	4	7.8	4	-1E+10	1	-1E+10	1	-1E+10	1	-1E+10	1	-1E+10	1	-1E+10	1
4901784	51	C	11/26/2016	10:43	-132.452	44.782	0	579.40	0	4.3620	0	34.1600	0	27.085	0	573.905	0	24.0	4	7.7	4	-1E+10	1	-1E+10	1	-1E+10	1	-1E+10	1	-1E+10	1	-1E+10	1
4901784	51	C	11/26/2016	10:43	-132.452	44.782	0	584.50	0	4.3520	0	34.1630	0	27.088	0	578.950	0	23.4	4	7.5	4	-1E+10	1	-1E+10	1	-1E+10	1	-1E+10	1	-1E+10	1	-1E+10	1
4901784	51	C	11/26/2016	10:43	-132.452	44.782	0	589.80	0	4.3420	0	34.1660	0	27.092	0	584.192	0	22.7	4	7.2	4	-1E+10	1	-1E+10	1	-1E+10	1	-1E+10	1	-1E+10	1	-1E+10	1
4901784	51	C	11/26/2016	10:43	-132.452	44.782	0	595.10	0	4.3260	0	34.1720	0	27.098	0	589.434	0	21.6	4	6.9	4	-1E+10	1	-1E+10	1	-1E+10	1	-1E+10	1	-1E+10	1	-1E+10	1
4901784	51	C	11/26/2016	10:43	-132.452	44.782	0	600.50	0	4.3110	0	34.1820	0	27.108	0	594.775	0	20.6	4	6.5	4	-1E+10	1	-1E+10	1	-1E+10	1	-1E+10	1	-1E+10	1	-1E+10	1
4901784	51	C	11/26/2016	10:43	-132.452	44.782	0	605.00	0	4.2920	0	34.1860	0	27.113	0	599.226	0	20.1	4	6.4	4	-1E+10	1	-1E+10	1	-1E+10	1	-1E+10	1	-1E+10	1	-1E+10	1
4901784	51	C	11/26/2016	10:43	-132.452	44.782	0	609.50	0	4.2860	0	34.1910	0	27.118	0	603.676	0	19.6	4	6.2	4	-1E+10	1	-1E+10	1	-1E+10	1	-1E+10	1	-1E+10	1	-1E+10	1
4901784	51	C	11/26/2016	10:43	-132.452	44.782	0	615.00	0	4.2680	0	34.1960	0	27.124	0	609.115	0	19.2	4	6.1	4	-1E+10	1	-1E+10	1	-1E+10	1	-1E+10	1	-1E+10	1	-1E+10	1
4901784	51	C	11/26/2016	10:43	-132.452	44.782	0	620.40	0	4.2570	0	34.1990	0	27.127	0	614.456	0	18.7	4	6.0	4	-1E+10	1	-1E+10	1	-1E+10	1	-1E+10	1	-1E+10	1	-1E+10	1
4901784	51	C	11/26/2016	10:43	-132.452	44.782	0	625.10	0	4.2430	0	34.2020	0	27.131	0	619.104	0	18.4	4	5.8	4	-1E+10	1	-1E+10	1	-1E+10	1	-1E+10	1	-1E+10	1	-1E+10	1
4901784	51	C	11/26/2016	10:43	-132.452	44.782	0	629.60	0	4.2260	0	34.2070	0	27.137	0	623.554	0	18.0	4	5.7	4	-1E+10	1	-1E+10	1	-1E+10	1	-1E+10	1	-1E+10	1	-1E+10	1
4901784	51	C	11/26/2016	10:43	-132.452	44.782	0	635.20	0	4.2060	0	34.2120	0	27.143	0	629.092	0	17.5	4	5.6	4	-1E+10	1	-1E+10	1	-1E+10	1	-1E+10	1	-1E+10	1	-1E+10	1
4901784	51	C	11/26/2016	10:43	-132.452	44.782	0	639.80	0	4.1930	0	34.2150	0	27.147	0	633.640	0	17.2	4	5.5	4	-1E+10	1	-1E+10	1	-1E+10	1	-1E+10	1	-1E+10	1	-1E+10	1
4901784	51	C	11/26/2016	10:43	-132.452	44.782	0	644.50	0	4.1740	0	34.2200	0	27.153	0	638.288	0	16.9	4	5.3	4	-1E+10	1	-1E+10	1	-1E+10	1	-1E+10	1	-1E+10	1	-1E+10	1
4901784	51	C	11/26/2016	10:43	-132.452	44.782	0	650.20	0	4.1560	0	34.2250	0	27.159	0	643.924	0	16.7	4	5.3	4	-1E+10	1	-1E+10	1	-1E+10	1	-1E+10	1	-1E+10	1	-1E+10	1
4901784	51	C	11/26/2016	10:43	-132.452	44.782	0	654.90	0	4.1480	0	34.2260	0	27.160	0	648.572	0	16.5	4	5.2	4	-1E+10	1	-1E+10	1	-1E+10	1	-1E+10	1	-1E+10	1	-1E+10	1
4901784	51	C	11/26/2016	10:43	-132.452	44.782	0	659.50	0	4.1280	0	34.2310	0	27.166	0	653.120	0	16.3	4	5.2	4	-1E+10	1	-1E+10	1	-1E+10	1	-1E+10	1	-1E+10	1	-1E+10	1
4901784	51	C	11/26/2016	10:43	-132.452	44.782	0	665.20	0	4.1190	0	34.2330	0	27.169	0	658.756	0	16.2	4	5.1	4	-1E+10	1	-1E+10	1	-1E+10	1	-1E+10	1	-1E+10	1	-1E+10	1
4901784	51	C	11/26/2016	10:43	-132.452	44.782	0	670.60	0	4.1110	0	34.2340	0	27.171	0	664.095	0	16.2	4	5.1	4	-1E+10	1	-1E+10	1	-1E+10	1	-1E+10	1	-1E+10	1	-1E+10	1
4901784	51	C	11/26/2016	10:43	-132.452	44.782	0	675.50	0	4.0960	0	34.2370	0	27.175	0	668.939	0	16.0	4	5.1	4	-1E+10	1	-1E+10	1	-1E+10	1	-1E+10	1	-1E+10	1	-1E+10	1
4901784	51	C	11/26/2016	10:43	-132.452	44.782	0	680.20	0	4.0730	0	34.2430	0	27.182	0	673.586	0	15.8	4	5.0	4	-1E+10	1	-1E+10	1	-1E+10	1	-1E+10	1	-1E+10	1	-1E+10	1
4901784	51	C	11/26/2016	10:43	-132.452	44.782	0	685.00	0	4.0690	0	34.2440	0	27.183	0	678.332	0	15.6	4	4.9	4	-1E+10	1	-1E+10	1	-1E+10	1	-1E+10	1	-1E+10	1	-1E+10	1
4901784	51	C	11/26/2016	10:43	-132.452	44.782	0	689.90	0	4.0580	0	34.2480	0	27.187	0	683.176	0	15.3	4	4.8	4	-1E+10	1	-1E+10	1	-1E+10	1	-1E+10	1	-1E+10	1	-1E+10	1
4901784	51	C	11/26/2016	10:43	-132.452	44.782	0	694.70	0	4.0390	0	34.2540	0	27.194	0	687.921	0	15.0	4	4.8	4	-1E+10	1	-1E+10	1	-1E+10	1	-1E+10	1	-1E+10	1	-1E+10	1
4901784	51	C	11/26/2016	10:43	-132.452	44.782	0	699.60	0	4.0290	0	34.2570	0	27.197	0	692.765	0	14.9	4	4.7	4	-1E+10	1	-1E+10	1	-1E+10	1	-1E+10	1	-1E+10	1	-1E+10	1
4901784	51	C	11/26/2016	10:43	-132.452	44.782	0	704.60	0	4.0260	0	34.2570	0	27.198	0	697.708	0	14.8	4	4.7	4	-1E+10	1	-1E+10	1	-1E+10	1	-1E+10	1	-1E+10	1	-1E+10	1
4901784	51	C	11/26/2016	10:43	-132.452	44.782	0	709.60	0	4.0130	0	34.2610	0	27.202	0	702.651	0	14.5	4	4.6	4	-1E+10	1	-1E+10	1	-1E+10	1	-1E+10	1	-1E+10	1	-1E+10	1
4901784	51	C	11/26/2016	10:43	-132.452	44.782	0	714.60	0	4.0000	0	34.2640	0	27.206	0	707.593	0	14.3	4	4.5	4	-1E+10	1	-1E+10	1	-1E+10	1	-1E+10	1	-1E+10	1	-1E+10	1
4901784	51	C	11/26/2016	10:43	-132.452	44.782	0	719.60	0	3.9840	0	34.2690	0	27.212	0	712.536	0	14.1	4	4.4	4	-1E+10	1	-1E+10	1	-1E+10	1	-1E+10	1	-1E+10	1	-1E+10	1
4901784	51	C	11/26/2016	10:43	-132.452	44.782	0	724.70	0	3.9760	0	34.2720	0	27.215	0	717.577	0	13.9	4	4.4	4	-1E+10	1	-1E+10	1	-1E+10	1	-1E+10	1	-1E+10	1	-1E+10	1
4901784	51	C	11/26/2016	10:43	-132.452	44.782	0	729.80	0	3.9680	0	34.2740	0	27.217	0	722.618	0	13.8	4	4.4	4	-1E+10	1	-1E+10	1	-1E+10	1	-1E+10	1	-1E+10	1	-1E+10	1
4901784	51	C	11/26/2016	10:43	-132.452	44.782	0	734.90	0	3.9570	0	34.2770	0	27.221	0	727.659	0	13.6	4	4.3	4	-1E+10	1	-1E+10	1	-1E+10	1	-1E+10	1	-1E+10	1	-1E+10	1
4901784	51	C	11/26/2016	10:43	-132.452	44.782	0	740.10	0	3.9440	0	34.2810	0	27.226	0	732.799	0	13.5	4	4.3	4	-1E+10	1	-1E+10	1	-1E+10	1	-1E+10	1	-1E+10	1	-1E+10	1
4901784	51	C	11/26/2016	10:43	-132.452	44.782	0	745.20	0	3.9380	0	34.2820	0	27.227	0	737.839	0	13.4	4	4.2	4	-1E+10	1	-1E+10	1	-1E+10	1	-1E+10	1	-1E+10	1	-1E+10	1
4901784	51	C	11/26/2016	10:43	-132.452	44.782	0	750.30	0	3.9260	0	34.2850	0	27.231	0	742.880	0	13.3	4	4.2	4	-1E+10	1	-1E+10	1	-1E+10	1	-1E+10	1	-1E+10	1	-1E+10	1
4901784	51	C	11/26/2016	10:43	-132.452	44.782	0	755.50	0	3.9110	0	34.2880	0	27.235	0	748.019	0	13.2	4	4.2	4	-1E+10	1	-1E+10	1	-1E+10	1	-1E+10	1	-1E+10	1	-1E+10	1
4901784	51	C	11/26/2016	10:43	-132.452	44.782	0	760.70	0	3.9060	0	34.2900	0	27.237	0	753.158	0	13.1	4	4.1	4	-1E+10	1	-1E+10	1	-1E+10	1	-1E+10	1	-1E+10	1	-1E+10	1
4901784	51	C	11/26/2016	10:43	-132.452	44.782	0	765.00	0	3.8990	0	34.2920	0	27.239	0	757.408	0	13.0	4	4.1	4	-1E+10	1	-1E+10	1	-1E+10	1	-1E+10	1	-1E+10	1	-1E+10	1
4901784	51	C	11/26/2016	10:43	-132.452	44.782	0	769.40	0	3.8930	0	34.2940	0	27.241	0	761.756	0	12.9	4	4.1	4	-1E+10	1	-1E+10	1	-1E+10	1	-1E+10	1	-1E+10	1	-1E+10	1
4901784	51	C	11/26/2016	10:43	-132.452	44.782	0	774.60	0	3.8790	0	34.2970	0	27.245	0	766.895	0	12.8	4	4.0	4	-1E+10	1	-1E+10	1	-1E+10	1	-1E+10	1	-1E+10	1	-1E+10	1
4901784	51	C	11/26/2016	10:43	-132.452	44.782	0	779.80	0	3.8570	0	34.3020	0	27.251	0	772.034	0	12.7	4	4.0	4	-1E+10	1	-1E+10	1	-1E+10	1	-1E+10	1	-1E+10	1	-1E+10	1
4901784	51	C	11/26/2016	10:43	-132.452	44.782	0	785.00	0	3.8410	0	34.3070	0	27.257	0	777.172	0	12.5	4	3.9	4	-1E+10	1	-1E+10	1	-1E+10	1	-1E+10	1	-1E+10	1	-1E+10	1
4901784	51	C	11/26/2016	10:43	-132.452	44.782	0	790.20	0	3.8290	0	34.3110	0	27.261	0	782.311	0	12.3	4	3.9	4	-1E+10	1	-1E+10	1	-1E+10	1	-1E+10	1	-1E+10	1	-1E+10	1
4901784	51	C	11/26/2016	10:43	-132.452	44.782	0	795.40	0	3.8210	0	34.3160	0	27.266	0	787.449	0	12.1	4	3.8	4	-1E+10	1	-1E+10	1	-1E+10	1	-1E+10	1	-1E+10	1	-1E+10	1
4901784	51	C	11/26/2016	10:43	-132.452	44.782	0	800.50	0	3.8160	0	34.3190	0	27.269	0	792.488	0	11.9	4	3.8	4	-1E+10	1	-1E+10	1	-1E+10	1	-1E+10	1	-1E+10	1	-1E+10	1
4901784	51	C	11/26/2016	10:43	-132.452	44.782	0	805.70	0	3.8070	0	34.3220	0	27.272	0	797.626	0	11.9	4	3.7	4	-1E+10	1	-1E+10	1	-1E+10	1	-1E+10	1	-1E+10	1	-1E+10	1
4901784	51	C	11/26/2016	10:43	-132.452	44.782	0	810.10	0	3.8000	0	34.3240	0	27.275	0	801.974	0	11.8	4	3.7	4	-1E+10	1	-1E+10	1	-1E+10	1	-1E+10	1	-1E+10	1	-1E+10	1
4901784	51	C	11/26/2016	10:43	-132.452	44.782	0	814.40	0	3.7930	0	34.3260	0	27.277	0	806.222	0	11.8	4	3.7	4	-1E+10	1	-1E+10	1	-1E+10	1	-1E+10	1	-1E+10	1	-1E+10	1
4901784	51	C	11/26/2016	10:43	-132.452	44.782	0	819.70	0	3.7860	0	34.3280	0	27.279	0	811.459	0	11.7	4	3.7	4	-1E+10	1	-1E+10	1	-1E+10	1	-1E+10	1	-1E+10	1	-1E+10	1
4901784	51	C	11/26/2016	10:43	-132.452	44.782	0	824.90	0	3.7740	0	34.3310	0	27.283	0	816.596	0	11.6	4	3.7	4	-1E+10	1	-1E+10	1	-1E+10	1	-1E+10	1	-1E+10	1	-1E+10	1
4901784	51	C	11/26/2016	10:43	-132.452	44.782	0	830.20	0	3.7640	0	34.3340	0	27.286	0	821.832	0	11.6	4	3.6	4	-1E+10	1	-1E+10	1	-1E+10	1	-1E+10	1	-1E+10	1	-1E+10	1
4901784	51	C	11/26/2016	10:43	-132.452	44.782	0	835.40	0	3.7480	0	34.3370	0	27.290	0	826.970	0	11.5	4	3.6	4	-1E+10	1	-1E+10	1	-1E+10	1	-1E+10	1	-1E+10	1	-1E+10	1
4901784	51	C	11/26/2016	10:43	-132.452	44.782	0	840.70	0	3.7360	0	34.3400	0	27.294	0	832.206	0	11.5	4	3.6	4	-1E+10	1	-1E+10	1	-1E+10	1	-1E+10	1	-1E+10	1	-1E+10	1
4901784	51	C	11/26/2016	10:43	-132.452	44.782	0	845.00	0	3.7270	0	34.3430	0	27.297	0	836.454	0	11.5	4	3.6	4	-1E+10	1	-1E+10	1	-1E+10	1	-1E+10	1	-1E+10	1	-1E+10	1
4901784	51	C	11/26/2016	10:43	-132.452	44.782	0	849.50	0	3.7110	0	34.3460	0	27.301	0	840.899	0	11.4	4	3.6	4	-1E+10	1	-1E+10	1	-1E+10	1	-1E+10	1	-1E+10	1	-1E+10	1
4901784	51	C	11/26/2016	10:43	-132.452	44.782	0	854.80	0	3.6980	0	34.3490	0	27.305	0	846.135	0	11.4	4	3.6	4	-1E+10	1	-1E+10	1	-1E+10	1	-1E+10	1	-1E+10	1	-1E+10	1
4901784	51	C	11/26/2016	10:43	-132.452	44.782	0	860.20	0	3.6890	0	34.3520	0	27.308	0	851.469	0	11.4	4	3.6	4	-1E+10	1	-1E+10	1	-1E+10	1	-1E+10	1	-1E+10	1	-1E+10	1
4901784	51	C	11/26/2016	10:43	-132.452	44.782	0	865.60	0	3.6700	0	34.3550	0	27.313	0	856.803	0	11.4	4	3.6	4	-1E+10	1	-1E+10	1	-1E+10	1	-1E+10	1	-1E+10	1	-1E+10	1
4901784	51	C	11/26/2016	10:43	-132.452	44.782	0	870.10	0	3.6590	0	34.3590	0	27.317	0	861.248	0	11.4	4	3.6	4	-1E+10	1	-1E+10	1	-1E+10	1	-1E+10	1	-1E+10	1	-1E+10	1
4901784	51	C	11/26/2016	10:43	-132.452	44.782	0	874.60	0	3.6440	0	34.3630	0	27.322	0	865.693	0	11.4	4	3.6	4	-1E+10	1	-1E+10	1	-1E+10	1	-1E+10	1	-1E+10	1	-1E+10	1
4901784	51	C	11/26/2016	10:43	-132.452	44.782	0	880.10	0	3.6270	0	34.3670	0	27.327	0	871.126	0	11.4	4	3.6	4	-1E+10	1	-1E+10	1	-1E+10	1	-1E+10	1	-1E+10	1	-1E+10	1
4901784	51	C	11/26/2016	10:43	-132.452	44.782	0	885.60	0	3.6130	0	34.3700	0	27.330	0	876.558	0	11.4	4	3.6	4	-1E+10	1	-1E+10	1	-1E+10	1	-1E+10	1	-1E+10	1	-1E+10	1
4901784	51	C	11/26/2016	10:43	-132.452	44.782	0	890.10	0	3.5940	0	34.3750	0	27.336	0	881.003	0	11.4	4	3.6	4	-1E+10	1	-1E+10	1	-1E+10	1	-1E+10	1	-1E+10	1	-1E+10	1
4901784	51	C	11/26/2016	10:43	-132.452	44.782	0	894.80	0	3.5870	0	34.3760	0	27.338	0	885.645	0	11.5	4	3.6	4	-1E+10	1	-1E+10	1	-1E+10	1	-1E+10	1	-1E+10	1	-1E+10	1
4901784	51	C	11/26/2016	10:43	-132.452	44.782	0	900.30	0	3.5660	0	34.3810	0	27.344	0	891.077	0	11.5	4	3.6	4	-1E+10	1	-1E+10	1	-1E+10	1	-1E+10	1	-1E+10	1	-1E+10	1
4901784	51	C	11/26/2016	10:43	-132.452	44.782	0	904.90	0	3.5600	0	34.3830	0	27.346	0	895.620	0	11.5	4	3.6	4	-1E+10	1	-1E+10	1	-1E+10	1	-1E+10	1	-1E+10	1	-1E+10	1
4901784	51	C	11/26/2016	10:43	-132.452	44.782	0	909.60	0	3.5520	0	34.3850	0	27.348	0	900.261	0	11.5	4	3.6	4	-1E+10	1	-1E+10	1	-1E+10	1	-1E+10	1	-1E+10	1	-1E+10	1
4901784	51	C	11/26/2016	10:43	-132.452	44.782	0	915.20	0	3.5390	0	34.3880	0	27.352	0	905.792	0	11.6	4	3.6	4	-1E+10	1	-1E+10	1	-1E+10	1	-1E+10	1	-1E+10	1	-1E+10	1
4901784	51	C	11/26/2016	10:43	-132.452	44.782	0	919.70	0	3.5320	0	34.3900	0	27.354	0	910.236	0	11.7	4	3.6	4	-1E+10	1	-1E+10	1	-1E+10	1	-1E+10	1	-1E+10	1	-1E+10	1
4901784	51	C	11/26/2016	10:43	-132.452	44.782	0	924.40	0	3.5200	0	34.3930	0	27.358	0	914.877	0	11.7	4	3.7	4	-1E+10	1	-1E+10	1	-1E+10	1	-1E+10	1	-1E+10	1	-1E+10	1
4901784	51	C	11/26/2016	10:43	-132.452	44.782	0	929.90	0	3.5050	0	34.3970	0	27.363	0	920.308	0	11.8	4	3.7	4	-1E+10	1	-1E+10	1	-1E+10	1	-1E+10	1	-1E+10	1	-1E+10	1
4901784	51	C	11/26/2016	10:43	-132.452	44.782	0	935.20	0	3.4950	0	34.4000	0	27.366	0	925.542	0	11.9	4	3.7	4	-1E+10	1	-1E+10	1	-1E+10	1	-1E+10	1	-1E+10	1	-1E+10	1
4901784	51	C	11/26/2016	10:43	-132.452	44.782	0	939.40	0	3.4850	0	34.4030	0	27.369	0	929.689	0	12.0	4	3.7	4	-1E+10	1	-1E+10	1	-1E+10	1	-1E+10	1	-1E+10	1	-1E+10	1
4901784	51	C	11/26/2016	10:43	-132.452	44.782	0	944.30	0	3.4740	0	34.4050	0	27.372	0	934.528	0	12.0	4	3.8	4	-1E+10	1	-1E+10	1	-1E+10	1	-1E+10	1	-1E+10	1	-1E+10	1
4901784	51	C	11/26/2016	10:43	-132.452	44.782	0	949.90	0	3.4620	0	34.4080	0	27.376	0	940.057	0	12.2	4	3.8	4	-1E+10	1	-1E+10	1	-1E+10	1	-1E+10	1	-1E+10	1	-1E+10	1
4901784	51	C	11/26/2016	10:43	-132.452	44.782	0	955.60	0	3.4500	0	34.4120	0	27.380	0	945.685	0	12.3	4	3.8	4	-1E+10	1	-1E+10	1	-1E+10	1	-1E+10	1	-1E+10	1	-1E+10	1
4901784	51	C	11/26/2016	10:43	-132.452	44.782	0	960.50	0	3.4420	0	34.4140	0	27.382	0	950.523	0	12.3	4	3.9	4	-1E+10	1	-1E+10	1	-1E+10	1	-1E+10	1	-1E+10	1	-1E+10	1
4901784	51	C	11/26/2016	10:43	-132.452	44.782	0	965.50	0	3.4330	0	34.4170	0	27.386	0	955.460	0	12.4	4	3.9	4	-1E+10	1	-1E+10	1	-1E+10	1	-1E+10	1	-1E+10	1	-1E+10	1
4901784	51	C	11/26/2016	10:43	-132.452	44.782	0	970.50	0	3.4230	0	34.4190	0	27.388	0	960.396	0	12.5	4	3.9	4	-1E+10	1	-1E+10	1	-1E+10	1	-1E+10	1	-1E+10	1	-1E+10	1
4901784	51	C	11/26/2016	10:43	-132.452	44.782	0	975.50	0	3.4140	0	34.4220	0	27.392	0	965.333	0	12.6	4	3.9	4	-1E+10	1	-1E+10	1	-1E+10	1	-1E+10	1	-1E+10	1	-1E+10	1
4901784	51	C	11/26/2016	10:43	-132.452	44.782	0	980.50	0	3.4060	0	34.4240	0	27.394	0	970.269	0	12.7	4	4.0	4	-1E+10	1	-1E+10	1	-1E+10	1	-1E+10	1	-1E+10	1	-1E+10	1
4901784	51	C	11/26/2016	10:43	-132.452	44.782	0	985.60	0	3.3940	0	34.4270	0	27.398	0	975.304	0	12.8	4	4.0	4	-1E+10	1	-1E+10	1	-1E+10	1	-1E+10	1	-1E+10	1	-1E+10	1
4901784	51	C	11/26/2016	10:43	-132.452	44.782	0	990.70	0	3.3830	0	34.4300	0	27.401	0	980.339	0	12.8	4	4.0	4	-1E+10	1	-1E+10	1	-1E+10	1	-1E+10	1	-1E+10	1	-1E+10	1
4901784	51	C	11/26/2016	10:43	-132.452	44.782	0	995.00	0	3.3750	0	34.4320	0	27.403	0	984.584	0	12.9	4	4.0	4	-1E+10	1	-1E+10	1	-1E+10	1	-1E+10	1	-1E+10	1	-1E+10	1
4901784	51	C	11/26/2016	10:43	-132.452	44.782	0	999.30	0	3.3660	0	34.4340	0	27.406	0	988.829	0	13.0	4	4.0	4	-1E+10	1	-1E+10	1	-1E+10	1	-1E+10	1	-1E+10	1	-1E+10	1
4901784	51	C	11/26/2016	10:43	-132.452	44.782	0	1004.50	0	3.3600	0	34.4360	0	27.408	0	993.962	0	13.1	4	4.1	4	-1E+10	1	-1E+10	1	-1E+10	1	-1E+10	1	-1E+10	1	-1E+10	1
4901784	51	C	11/26/2016	10:43	-132.452	44.782	0	1009.70	0	3.3540	0	34.4370	0	27.409	0	999.095	0	13.2	4	4.1	4	-1E+10	1	-1E+10	1	-1E+10	1	-1E+10	1	-1E+10	1	-1E+10	1
4901784	51	C	11/26/2016	10:43	-132.452	44.782	0	1015.00	0	3.3450	0	34.4400	0	27.413	0	1004.327	0	13.4	4	4.2	4	-1E+10	1	-1E+10	1	-1E+10	1	-1E+10	1	-1E+10	1	-1E+10	1
4901784	51	C	11/26/2016	10:43	-132.452	44.782	0	1020.30	0	3.3340	0	34.4440	0	27.417	0	1009.558	0	13.7	4	4.3	4	-1E+10	1	-1E+10	1	-1E+10	1	-1E+10	1	-1E+10	1	-1E+10	1
4901784	51	C	11/26/2016	10:43	-132.452	44.782	0	1025.60	0	3.3270	0	34.4470	0	27.420	0	1014.789	0	13.9	4	4.3	4	-1E+10	1	-1E+10	1	-1E+10	1	-1E+10	1	-1E+10	1	-1E+10	1
4901784	51	C	11/26/2016	10:43	-132.452	44.782	0	1030.00	0	3.3250	0	34.4470	0	27.420	0	1019.132	0	14.0	4	4.4	4	-1E+10	1	-1E+10	1	-1E+10	1	-1E+10	1	-1E+10	1	-1E+10	1
4901784	51	C	11/26/2016	10:43	-132.452	44.782	0	1034.50	0	3.3170	0	34.4490	0	27.423	0	1023.574	0	14.1	4	4.4	4	-1E+10	1	-1E+10	1	-1E+10	1	-1E+10	1	-1E+10	1	-1E+10	1
4901784	51	C	11/26/2016	10:43	-132.452	44.782	0	1039.90	0	3.3100	0	34.4510	0	27.425	0	1028.904	0	14.3	4	4.5	4	-1E+10	1	-1E+10	1	-1E+10	1	-1E+10	1	-1E+10	1	-1E+10	1
4901784	51	C	11/26/2016	10:43	-132.452	44.782	0	1045.30	0	3.3060	0	34.4530	0	27.427	0	1034.233	0	14.5	4	4.5	4	-1E+10	1	-1E+10	1	-1E+10	1	-1E+10	1	-1E+10	1	-1E+10	1
4901784	51	C	11/26/2016	10:43	-132.452	44.782	0	1049.90	0	3.3060	0	34.4550	0	27.429	0	1038.773	0	14.7	4	4.6	4	-1E+10	1	-1E+10	1	-1E+10	1	-1E+10	1	-1E+10	1	-1E+10	1
4901784	51	C	11/26/2016	10:43	-132.452	44.782	0	1055.00	0	3.2980	0	34.4560	0	27.430	0	1043.806	0	14.8	4	4.6	4	-1E+10	1	-1E+10	1	-1E+10	1	-1E+10	1	-1E+10	1	-1E+10	1
4901784	51	C	11/26/2016	10:43	-132.452	44.782	0	1060.40	0	3.2850	0	34.4570	0	27.432	0	1049.136	0	15.1	4	4.7	4	-1E+10	1	-1E+10	1	-1E+10	1	-1E+10	1	-1E+10	1	-1E+10	1
4901784	51	C	11/26/2016	10:43	-132.452	44.782	0	1065.10	0	3.2880	0	34.4610	0	27.435	0	1053.774	0	15.4	4	4.8	4	-1E+10	1	-1E+10	1	-1E+10	1	-1E+10	1	-1E+10	1	-1E+10	1
4901784	51	C	11/26/2016	10:43	-132.452	44.782	0	1069.90	0	3.2850	0	34.4620	0	27.436	0	1058.511	0	15.5	4	4.8	4	-1E+10	1	-1E+10	1	-1E+10	1	-1E+10	1	-1E+10	1	-1E+10	1
4901784	51	C	11/26/2016	10:43	-132.452	44.782	0	1074.80	0	3.2810	0	34.4630	0	27.437	0	1063.346	0	15.7	4	4.9	4	-1E+10	1	-1E+10	1	-1E+10	1	-1E+10	1	-1E+10	1	-1E+10	1
4901784	51	C	11/26/2016	10:43	-132.452	44.782	0	1079.70	0	3.2740	0	34.4650	0	27.440	0	1068.182	0	16.1	4	5.0	4	-1E+10	1	-1E+10	1	-1E+10	1	-1E+10	1	-1E+10	1	-1E+10	1
4901784	51	C	11/26/2016	10:43	-132.452	44.782	0	1084.70	0	3.2810	0	34.4690	0	27.442	0	1073.115	0	16.5	4	5.1	4	-1E+10	1	-1E+10	1	-1E+10	1	-1E+10	1	-1E+10	1	-1E+10	1
4901784	51	C	11/26/2016	10:43	-132.452	44.782	0	1089.70	0	3.2760	0	34.4710	0	27.444	0	1078.049	0	16.7	4	5.2	4	-1E+10	1	-1E+10	1	-1E+10	1	-1E+10	1	-1E+10	1	-1E+10	1
4901784	51	C	11/26/2016	10:43	-132.452	44.782	0	1094.70	0	3.2690	0	34.4730	0	27.447	0	1082.983	0	16.8	4	5.2	4	-1E+10	1	-1E+10	1	-1E+10	1	-1E+10	1	-1E+10	1	-1E+10	1
4901784	51	C	11/26/2016	10:43	-132.452	44.782	0	1099.70	0	3.2570	0	34.4740	0	27.449	0	1087.916	0	16.8	4	5.2	4	-1E+10	1	-1E+10	1	-1E+10	1	-1E+10	1	-1E+10	1	-1E+10	1
4901784	51	C	11/26/2016	10:43	-132.452	44.782	0	1104.70	0	3.2480	0	34.4740	0	27.450	0	1092.850	0	16.7	4	5.2	4	-1E+10	1	-1E+10	1	-1E+10	1	-1E+10	1	-1E+10	1	-1E+10	1
4901784	51	C	11/26/2016	10:43	-132.452	44.782	0	1109.80	0	3.2350	0	34.4750	0	27.452	0	1097.882	0	16.7	4	5.2	4	-1E+10	1	-1E+10	1	-1E+10	1	-1E+10	1	-1E+10	1	-1E+10	1
4901784	51	C	11/26/2016	10:43	-132.452	44.782	0	1114.90	0	3.2210	0	34.4750	0	27.453	0	1102.914	0	16.7	4	5.2	4	-1E+10	1	-1E+10	1	-1E+10	1	-1E+10	1	-1E+10	1	-1E+10	1
4901784	51	C	11/26/2016	10:43	-132.452	44.782	0	1120.10	0	3.2090	0	34.4760	0	27.455	0	1108.044	0	16.7	4	5.2	4	-1E+10	1	-1E+10	1	-1E+10	1	-1E+10	1	-1E+10	1	-1E+10	1
4901784	51	C	11/26/2016	10:43	-132.452	44.782	0	1124.80	0	3.2040	0	34.4770	0	27.456	0	1112.681	0	16.8	4	5.2	4	-1E+10	1	-1E+10	1	-1E+10	1	-1E+10	1	-1E+10	1	-1E+10	1
4901784	51	C	11/26/2016	10:43	-132.452	44.782	0	1129.50	0	3.1980	0	34.4780	0	27.458	0	1117.318	0	16.9	4	5.3	4	-1E+10	1	-1E+10	1	-1E+10	1	-1E+10	1	-1E+10	1	-1E+10	1
4901784	51	C	11/26/2016	10:43	-132.452	44.782	0	1135.30	0	3.1910	0	34.4790	0	27.459	0	1123.040	0	17.1	4	5.3	4	-1E+10	1	-1E+10	1	-1E+10	1	-1E+10	1	-1E+10	1	-1E+10	1
4901784	51	C	11/26/2016	10:43	-132.452	44.782	0	1140.40	0	3.1820	0	34.4800	0	27.461	0	1128.071	0	17.2	4	5.3	4	-1E+10	1	-1E+10	1	-1E+10	1	-1E+10	1	-1E+10	1	-1E+10	1
4901784	51	C	11/26/2016	10:43	-132.452	44.782	0	1144.30	0	3.1720	0	34.4820	0	27.463	0	1131.918	0	17.3	4	5.4	4	-1E+10	1	-1E+10	1	-1E+10	1	-1E+10	1	-1E+10	1	-1E+10	1
4901784	51	C	11/26/2016	10:43	-132.452	44.782	0	1149.90	0	3.1620	0	34.4830	0	27.465	0	1137.443	0	17.4	4	5.4	4	-1E+10	1	-1E+10	1	-1E+10	1	-1E+10	1	-1E+10	1	-1E+10	1
4901784	51	C	11/26/2016	10:43	-132.452	44.782	0	1155.60	0	3.1510	0	34.4850	0	27.468	0	1143.065	0	17.6	4	5.4	4	-1E+10	1	-1E+10	1	-1E+10	1	-1E+10	1	-1E+10	1	-1E+10	1
4901784	51	C	11/26/2016	10:43	-132.452	44.782	0	1160.50	0	3.1440	0	34.4860	0	27.469	0	1147.899	0	17.7	4	5.5	4	-1E+10	1	-1E+10	1	-1E+10	1	-1E+10	1	-1E+10	1	-1E+10	1
4901784	51	C	11/26/2016	10:43	-132.452	44.782	0	1165.50	0	3.1390	0	34.4870	0	27.470	0	1152.831	0	17.7	4	5.5	4	-1E+10	1	-1E+10	1	-1E+10	1	-1E+10	1	-1E+10	1	-1E+10	1
4901784	51	C	11/26/2016	10:43	-132.452	44.782	0	1170.60	0	3.1330	0	34.4870	0	27.471	0	1157.861	0	17.8	4	5.5	4	-1E+10	1	-1E+10	1	-1E+10	1	-1E+10	1	-1E+10	1	-1E+10	1
4901784	51	C	11/26/2016	10:43	-132.452	44.782	0	1175.70	0	3.1250	0	34.4880	0	27.473	0	1162.892	0	18.0	4	5.6	4	-1E+10	1	-1E+10	1	-1E+10	1	-1E+10	1	-1E+10	1	-1E+10	1
4901784	51	C	11/26/2016	10:43	-132.452	44.782	0	1179.90	0	3.1180	0	34.4900	0	27.475	0	1167.034	0	18.1	4	5.6	4	-1E+10	1	-1E+10	1	-1E+10	1	-1E+10	1	-1E+10	1	-1E+10	1
4901784	51	C	11/26/2016	10:43	-132.452	44.782	0	1184.30	0	3.1090	0	34.4910	0	27.476	0	1171.374	0	18.2	4	5.6	4	-1E+10	1	-1E+10	1	-1E+10	1	-1E+10	1	-1E+10	1	-1E+10	1
4901784	51	C	11/26/2016	10:43	-132.452	44.782	0	1189.50	0	3.0920	0	34.4920	0	27.479	0	1176.503	0	18.3	4	5.7	4	-1E+10	1	-1E+10	1	-1E+10	1	-1E+10	1	-1E+10	1	-1E+10	1
4901784	51	C	11/26/2016	10:43	-132.452	44.782	0	1194.80	0	3.0800	0	34.4930	0	27.481	0	1181.730	0	18.4	4	5.7	4	-1E+10	1	-1E+10	1	-1E+10	1	-1E+10	1	-1E+10	1	-1E+10	1
4901784	51	C	11/26/2016	10:43	-132.452	44.782	0	1200.00	0	3.0740	0	34.4940	0	27.482	0	1186.858	0	18.5	4	5.7	4	-1E+10	1	-1E+10	1	-1E+10	1	-1E+10	1	-1E+10	1	-1E+10	1
4901784	51	C	11/26/2016	10:43	-132.452	44.782	0	1205.30	0	3.0640	0	34.4960	0	27.485	0	1192.085	0	18.6	4	5.8	4	-1E+10	1	-1E+10	1	-1E+10	1	-1E+10	1	-1E+10	1	-1E+10	1
4901784	51	C	11/26/2016	10:43	-132.452	44.782	0	1210.70	0	3.0570	0	34.4970	0	27.486	0	1197.411	0	18.7	4	5.8	4	-1E+10	1	-1E+10	1	-1E+10	1	-1E+10	1	-1E+10	1	-1E+10	1
4901784	51	C	11/26/2016	10:43	-132.452	44.782	0	1215.20	0	3.0550	0	34.4970	0	27.486	0	1201.849	0	18.8	4	5.8	4	-1E+10	1	-1E+10	1	-1E+10	1	-1E+10	1	-1E+10	1	-1E+10	1
4901784	51	C	11/26/2016	10:43	-132.452	44.782	0	1219.70	0	3.0490	0	34.4980	0	27.488	0	1206.286	0	18.9	4	5.8	4	-1E+10	1	-1E+10	1	-1E+10	1	-1E+10	1	-1E+10	1	-1E+10	1
4901784	51	C	11/26/2016	10:43	-132.452	44.782	0	1225.20	0	3.0410	0	34.4990	0	27.489	0	1211.710	0	19.0	4	5.9	4	-1E+10	1	-1E+10	1	-1E+10	1	-1E+10	1	-1E+10	1	-1E+10	1
4901784	51	C	11/26/2016	10:43	-132.452	44.782	0	1229.90	0	3.0370	0	34.5000	0	27.490	0	1216.345	0	19.2	4	5.9	4	-1E+10	1	-1E+10	1	-1E+10	1	-1E+10	1	-1E+10	1	-1E+10	1
4901784	51	C	11/26/2016	10:43	-132.452	44.782	0	1234.40	0	3.0350	0	34.5010	0	27.491	0	1220.782	0	19.3	4	6.0	4	-1E+10	1	-1E+10	1	-1E+10	1	-1E+10	1	-1E+10	1	-1E+10	1
4901784	51	C	11/26/2016	10:43	-132.452	44.782	0	1239.90	0	3.0290	0	34.5020	0	27.493	0	1226.205	0	19.6	4	6.1	4	-1E+10	1	-1E+10	1	-1E+10	1	-1E+10	1	-1E+10	1	-1E+10	1
4901784	51	C	11/26/2016	10:43	-132.452	44.782	0	1245.20	0	3.0220	0	34.5040	0	27.495	0	1231.431	0	19.9	4	6.1	4	-1E+10	1	-1E+10	1	-1E+10	1	-1E+10	1	-1E+10	1	-1E+10	1
4901784	51	C	11/26/2016	10:43	-132.452	44.782	0	1250.40	0	3.0140	0	34.5060	0	27.497	0	1236.558	0	20.1	4	6.2	4	-1E+10	1	-1E+10	1	-1E+10	1	-1E+10	1	-1E+10	1	-1E+10	1
4901784	51	C	11/26/2016	10:43	-132.452	44.782	0	1255.50	0	3.0060	0	34.5070	0	27.499	0	1241.587	0	20.4	4	6.3	4	-1E+10	1	-1E+10	1	-1E+10	1	-1E+10	1	-1E+10	1	-1E+10	1
4901784	51	C	11/26/2016	10:43	-132.452	44.782	0	1260.70	0	2.9970	0	34.5090	0	27.501	0	1246.714	0	20.7	4	6.4	4	-1E+10	1	-1E+10	1	-1E+10	1	-1E+10	1	-1E+10	1	-1E+10	1
4901784	51	C	11/26/2016	10:43	-132.452	44.782	0	1265.00	0	2.9880	0	34.5110	0	27.504	0	1250.953	0	20.9	4	6.4	4	-1E+10	1	-1E+10	1	-1E+10	1	-1E+10	1	-1E+10	1	-1E+10	1
4901784	51	C	11/26/2016	10:43	-132.452	44.782	0	1269.40	0	2.9860	0	34.5120	0	27.505	0	1255.292	0	21.1	4	6.5	4	-1E+10	1	-1E+10	1	-1E+10	1	-1E+10	1	-1E+10	1	-1E+10	1
4901784	51	C	11/26/2016	10:43	-132.452	44.782	0	1274.70	0	2.9800	0	34.5140	0	27.507	0	1260.517	0	21.3	4	6.6	4	-1E+10	1	-1E+10	1	-1E+10	1	-1E+10	1	-1E+10	1	-1E+10	1
4901784	51	C	11/26/2016	10:43	-132.452	44.782	0	1280.00	0	2.9770	0	34.5140	0	27.507	0	1265.742	0	21.4	4	6.6	4	-1E+10	1	-1E+10	1	-1E+10	1	-1E+10	1	-1E+10	1	-1E+10	1
4901784	51	C	11/26/2016	10:43	-132.452	44.782	0	1285.30	0	2.9720	0	34.5160	0	27.509	0	1270.967	0	21.7	4	6.7	4	-1E+10	1	-1E+10	1	-1E+10	1	-1E+10	1	-1E+10	1	-1E+10	1
4901784	51	C	11/26/2016	10:43	-132.452	44.782	0	1289.80	0	2.9640	0	34.5180	0	27.512	0	1275.403	0	22.0	4	6.8	4	-1E+10	1	-1E+10	1	-1E+10	1	-1E+10	1	-1E+10	1	-1E+10	1
4901784	51	C	11/26/2016	10:43	-132.452	44.782	0	1294.30	0	2.9580	0	34.5190	0	27.513	0	1279.839	0	22.2	4	6.8	4	-1E+10	1	-1E+10	1	-1E+10	1	-1E+10	1	-1E+10	1	-1E+10	1
4901784	51	C	11/26/2016	10:43	-132.452	44.782	0	1299.70	0	2.9500	0	34.5200	0	27.515	0	1285.162	0	22.4	4	6.9	4	-1E+10	1	-1E+10	1	-1E+10	1	-1E+10	1	-1E+10	1	-1E+10	1
4901784	51	C	11/26/2016	10:43	-132.452	44.782	0	1305.10	0	2.9460	0	34.5210	0	27.516	0	1290.485	0	22.6	4	7.0	4	-1E+10	1	-1E+10	1	-1E+10	1	-1E+10	1	-1E+10	1	-1E+10	1
4901784	51	C	11/26/2016	10:43	-132.452	44.782	0	1310.60	0	2.9400	0	34.5230	0	27.518	0	1295.907	0	22.7	4	7.0	4	-1E+10	1	-1E+10	1	-1E+10	1	-1E+10	1	-1E+10	1	-1E+10	1
4901784	51	C	11/26/2016	10:43	-132.452	44.782	0	1315.20	0	2.9350	0	34.5240	0	27.519	0	1300.441	0	22.8	4	7.0	4	-1E+10	1	-1E+10	1	-1E+10	1	-1E+10	1	-1E+10	1	-1E+10	1
4901784	51	C	11/26/2016	10:43	-132.452	44.782	0	1319.80	0	2.9310	0	34.5230	0	27.519	0	1304.975	0	22.9	4	7.1	4	-1E+10	1	-1E+10	1	-1E+10	1	-1E+10	1	-1E+10	1	-1E+10	1
4901784	51	C	11/26/2016	10:43	-132.452	44.782	0	1325.40	0	2.9130	0	34.5250	0	27.522	0	1310.495	0	23.0	4	7.1	4	-1E+10	1	-1E+10	1	-1E+10	1	-1E+10	1	-1E+10	1	-1E+10	1
4901784	51	C	11/26/2016	10:43	-132.452	44.782	0	1330.00	0	2.9120	0	34.5260	0	27.523	0	1315.029	0	23.2	4	7.2	4	-1E+10	1	-1E+10	1	-1E+10	1	-1E+10	1	-1E+10	1	-1E+10	1
4901784	51	C	11/26/2016	10:43	-132.452	44.782	0	1334.70	0	2.9130	0	34.5260	0	27.523	0	1319.661	0	23.3	4	7.2	4	-1E+10	1	-1E+10	1	-1E+10	1	-1E+10	1	-1E+10	1	-1E+10	1
4901784	51	C	11/26/2016	10:43	-132.452	44.782	0	1340.30	0	2.8960	0	34.5270	0	27.525	0	1325.181	0	23.5	4	7.2	4	-1E+10	1	-1E+10	1	-1E+10	1	-1E+10	1	-1E+10	1	-1E+10	1
4901784	51	C	11/26/2016	10:43	-132.452	44.782	0	1345.00	0	2.8900	0	34.5280	0	27.527	0	1329.813	0	23.7	4	7.3	4	-1E+10	1	-1E+10	1	-1E+10	1	-1E+10	1	-1E+10	1	-1E+10	1
4901784	51	C	11/26/2016	10:43	-132.452	44.782	0	1349.70	0	2.8820	0	34.5300	0	27.529	0	1334.445	0	23.9	4	7.4	4	-1E+10	1	-1E+10	1	-1E+10	1	-1E+10	1	-1E+10	1	-1E+10	1
4901784	51	C	11/26/2016	10:43	-132.452	44.782	0	1355.10	0	2.8740	0	34.5310	0	27.531	0	1339.767	0	24.0	4	7.4	4	-1E+10	1	-1E+10	1	-1E+10	1	-1E+10	1	-1E+10	1	-1E+10	1
4901784	51	C	11/26/2016	10:43	-132.452	44.782	0	1360.40	0	2.8680	0	34.5310	0	27.531	0	1344.990	0	24.0	4	7.4	4	-1E+10	1	-1E+10	1	-1E+10	1	-1E+10	1	-1E+10	1	-1E+10	1
4901784	51	C	11/26/2016	10:43	-132.452	44.782	0	1365.20	0	2.8660	0	34.5310	0	27.531	0	1349.720	0	24.0	4	7.4	4	-1E+10	1	-1E+10	1	-1E+10	1	-1E+10	1	-1E+10	1	-1E+10	1
4901784	51	C	11/26/2016	10:43	-132.452	44.782	0	1370.10	0	2.8560	0	34.5310	0	27.532	0	1354.549	0	24.0	4	7.4	4	-1E+10	1	-1E+10	1	-1E+10	1	-1E+10	1	-1E+10	1	-1E+10	1
4901784	51	C	11/26/2016	10:43	-132.452	44.782	0	1374.90	0	2.8360	0	34.5310	0	27.534	0	1359.279	0	24.0	4	7.4	4	-1E+10	1	-1E+10	1	-1E+10	1	-1E+10	1	-1E+10	1	-1E+10	1
4901784	51	C	11/26/2016	10:43	-132.452	44.782	0	1379.80	0	2.8300	0	34.5320	0	27.535	0	1364.107	0	24.1	4	7.4	4	-1E+10	1	-1E+10	1	-1E+10	1	-1E+10	1	-1E+10	1	-1E+10	1
4901784	51	C	11/26/2016	10:43	-132.452	44.782	0	1384.70	0	2.8220	0	34.5320	0	27.536	0	1368.936	0	24.2	4	7.4	4	-1E+10	1	-1E+10	1	-1E+10	1	-1E+10	1	-1E+10	1	-1E+10	1
4901784	51	C	11/26/2016	10:43	-132.452	44.782	0	1389.70	0	2.8050	0	34.5330	0	27.538	0	1373.862	0	24.4	4	7.5	4	-1E+10	1	-1E+10	1	-1E+10	1	-1E+10	1	-1E+10	1	-1E+10	1
4901784	51	C	11/26/2016	10:43	-132.452	44.782	0	1394.80	0	2.8090	0	34.5340	0	27.539	0	1378.888	0	24.7	4	7.6	4	-1E+10	1	-1E+10	1	-1E+10	1	-1E+10	1	-1E+10	1	-1E+10	1
4901784	51	C	11/26/2016	10:43	-132.452	44.782	0	1399.80	0	2.8110	0	34.5350	0	27.540	0	1383.814	0	24.9	4	7.7	4	-1E+10	1	-1E+10	1	-1E+10	1	-1E+10	1	-1E+10	1	-1E+10	1
4901784	51	C	11/26/2016	10:43	-132.452	44.782	0	1404.90	0	2.7960	0	34.5360	0	27.542	0	1388.839	0	25.1	4	7.7	4	-1E+10	1	-1E+10	1	-1E+10	1	-1E+10	1	-1E+10	1	-1E+10	1
4901784	51	C	11/26/2016	10:43	-132.452	44.782	0	1410.00	0	2.7830	0	34.5380	0	27.545	0	1393.864	0	25.0	4	7.7	4	-1E+10	1	-1E+10	1	-1E+10	1	-1E+10	1	-1E+10	1	-1E+10	1
4901784	51	C	11/26/2016	10:43	-132.452	44.782	0	1415.20	0	2.7530	0	34.5350	0	27.545	0	1398.987	0	24.6	4	7.6	4	-1E+10	1	-1E+10	1	-1E+10	1	-1E+10	1	-1E+10	1	-1E+10	1
4901784	51	C	11/26/2016	10:43	-132.452	44.782	0	1420.30	0	2.7300	0	34.5350	0	27.547	0	1404.012	0	24.6	4	7.6	4	-1E+10	1	-1E+10	1	-1E+10	1	-1E+10	1	-1E+10	1	-1E+10	1
4901784	51	C	11/26/2016	10:43	-132.452	44.782	0	1425.40	0	2.7190	0	34.5360	0	27.549	0	1409.036	0	24.8	4	7.6	4	-1E+10	1	-1E+10	1	-1E+10	1	-1E+10	1	-1E+10	1	-1E+10	1
4901784	51	C	11/26/2016	10:43	-132.452	44.782	0	1430.60	0	2.7070	0	34.5370	0	27.550	0	1414.159	0	25.1	4	7.7	4	-1E+10	1	-1E+10	1	-1E+10	1	-1E+10	1	-1E+10	1	-1E+10	1
4901784	51	C	11/26/2016	10:43	-132.452	44.782	0	1435.70	0	2.6990	0	34.5380	0	27.552	0	1419.184	0	25.3	4	7.8	4	-1E+10	1	-1E+10	1	-1E+10	1	-1E+10	1	-1E+10	1	-1E+10	1
4901784	51	C	11/26/2016	10:43	-132.452	44.782	0	1440.00	0	2.6940	0	34.5390	0	27.553	0	1423.420	0	25.4	4	7.8	4	-1E+10	1	-1E+10	1	-1E+10	1	-1E+10	1	-1E+10	1	-1E+10	1
4901784	51	C	11/26/2016	10:43	-132.452	44.782	0	1444.30	0	2.6930	0	34.5390	0	27.553	0	1427.656	0	25.5	4	7.8	4	-1E+10	1	-1E+10	1	-1E+10	1	-1E+10	1	-1E+10	1	-1E+10	1
4901784	51	C	11/26/2016	10:43	-132.452	44.782	0	1449.40	0	2.6890	0	34.5400	0	27.555	0	1432.680	0	25.5	4	7.8	4	-1E+10	1	-1E+10	1	-1E+10	1	-1E+10	1	-1E+10	1	-1E+10	1
4901784	51	C	11/26/2016	10:43	-132.452	44.782	0	1454.60	0	2.6750	0	34.5390	0	27.555	0	1437.802	0	25.4	4	7.8	4	-1E+10	1	-1E+10	1	-1E+10	1	-1E+10	1	-1E+10	1	-1E+10	1
4901784	51	C	11/26/2016	10:43	-132.452	44.782	0	1459.90	0	2.6620	0	34.5390	0	27.556	0	1443.023	0	25.5	4	7.8	4	-1E+10	1	-1E+10	1	-1E+10	1	-1E+10	1	-1E+10	1	-1E+10	1
4901784	51	C	11/26/2016	10:43	-132.452	44.782	0	1465.10	0	2.6470	0	34.5400	0	27.558	0	1448.145	0	25.6	4	7.8	4	-1E+10	1	-1E+10	1	-1E+10	1	-1E+10	1	-1E+10	1	-1E+10	1
4901784	51	C	11/26/2016	10:43	-132.452	44.782	0	1470.30	0	2.6350	0	34.5400	0	27.559	0	1453.267	0	25.6	4	7.8	4	-1E+10	1	-1E+10	1	-1E+10	1	-1E+10	1	-1E+10	1	-1E+10	1
4901784	51	C	11/26/2016	10:43	-132.452	44.782	0	1475.50	0	2.6280	0	34.5400	0	27.560	0	1458.388	0	25.8	4	7.9	4	-1E+10	1	-1E+10	1	-1E+10	1	-1E+10	1	-1E+10	1	-1E+10	1
4901784	51	C	11/26/2016	10:43	-132.452	44.782	0	1480.70	0	2.6180	0	34.5410	0	27.562	0	1463.510	0	26.0	4	8.0	4	-1E+10	1	-1E+10	1	-1E+10	1	-1E+10	1	-1E+10	1	-1E+10	1
4901784	51	C	11/26/2016	10:43	-132.452	44.782	0	1485.00	0	2.6110	0	34.5420	0	27.563	0	1467.745	0	26.1	4	8.0	4	-1E+10	1	-1E+10	1	-1E+10	1	-1E+10	1	-1E+10	1	-1E+10	1
4901784	51	C	11/26/2016	10:43	-132.452	44.782	0	1489.30	0	2.6050	0	34.5420	0	27.564	0	1471.980	0	26.3	4	8.1	4	-1E+10	1	-1E+10	1	-1E+10	1	-1E+10	1	-1E+10	1	-1E+10	1
4901784	51	C	11/26/2016	10:43	-132.452	44.782	0	1494.50	0	2.5900	0	34.5430	0	27.566	0	1477.102	0	26.6	4	8.1	4	-1E+10	1	-1E+10	1	-1E+10	1	-1E+10	1	-1E+10	1	-1E+10	1
4901784	51	C	11/26/2016	10:43	-132.452	44.782	0	1499.70	0	2.5760	0	34.5440	0	27.568	0	1482.223	0	26.8	4	8.2	4	-1E+10	1	-1E+10	1	-1E+10	1	-1E+10	1	-1E+10	1	-1E+10	1
4901784	51	C	11/26/2016	10:43	-132.452	44.782	0	1504.90	0	2.5700	0	34.5450	0	27.569	0	1487.344	0	27.0	4	8.3	4	-1E+10	1	-1E+10	1	-1E+10	1	-1E+10	1	-1E+10	1	-1E+10	1
4901784	51	C	11/26/2016	10:43	-132.452	44.782	0	1510.20	0	2.5540	0	34.5460	0	27.571	0	1492.563	0	27.3	4	8.3	4	-1E+10	1	-1E+10	1	-1E+10	1	-1E+10	1	-1E+10	1	-1E+10	1
4901784	51	C	11/26/2016	10:43	-132.452	44.782	0	1515.50	0	2.5450	0	34.5470	0	27.573	0	1497.783	0	27.5	4	8.4	4	-1E+10	1	-1E+10	1	-1E+10	1	-1E+10	1	-1E+10	1	-1E+10	1
4901784	51	C	11/26/2016	10:43	-132.452	44.782	0	1520.60	0	2.5350	0	34.5480	0	27.574	0	1502.805	0	27.7	4	8.5	4	-1E+10	1	-1E+10	1	-1E+10	1	-1E+10	1	-1E+10	1	-1E+10	1
4901784	51	C	11/26/2016	10:43	-132.452	44.782	0	1525.00	0	2.5300	0	34.5490	0	27.576	0	1507.138	0	27.9	4	8.5	4	-1E+10	1	-1E+10	1	-1E+10	1	-1E+10	1	-1E+10	1	-1E+10	1
4901784	51	C	11/26/2016	10:43	-132.452	44.782	0	1529.40	0	2.5270	0	34.5490	0	27.576	0	1511.471	0	28.1	4	8.6	4	-1E+10	1	-1E+10	1	-1E+10	1	-1E+10	1	-1E+10	1	-1E+10	1
4901784	51	C	11/26/2016	10:43	-132.452	44.782	0	1534.70	0	2.5160	0	34.5500	0	27.578	0	1516.690	0	28.4	4	8.7	4	-1E+10	1	-1E+10	1	-1E+10	1	-1E+10	1	-1E+10	1	-1E+10	1
4901784	51	C	11/26/2016	10:43	-132.452	44.782	0	1540.10	0	2.5050	0	34.5500	0	27.579	0	1522.007	0	28.8	4	8.8	4	-1E+10	1	-1E+10	1	-1E+10	1	-1E+10	1	-1E+10	1	-1E+10	1
4901784	51	C	11/26/2016	10:43	-132.452	44.782	0	1545.50	0	2.4790	0	34.5530	0	27.583	0	1527.324	0	29.2	4	8.9	4	-1E+10	1	-1E+10	1	-1E+10	1	-1E+10	1	-1E+10	1	-1E+10	1
4901784	51	C	11/26/2016	10:43	-132.452	44.782	0	1550.00	0	2.4660	0	34.5540	0	27.585	0	1531.755	0	29.6	4	9.0	4	-1E+10	1	-1E+10	1	-1E+10	1	-1E+10	1	-1E+10	1	-1E+10	1
4901784	51	C	11/26/2016	10:43	-132.452	44.782	0	1554.50	0	2.4530	0	34.5550	0	27.587	0	1536.185	0	29.9	4	9.1	4	-1E+10	1	-1E+10	1	-1E+10	1	-1E+10	1	-1E+10	1	-1E+10	1
4901784	51	C	11/26/2016	10:43	-132.452	44.782	0	1559.80	0	2.4400	0	34.5560	0	27.589	0	1541.404	0	30.2	4	9.2	4	-1E+10	1	-1E+10	1	-1E+10	1	-1E+10	1	-1E+10	1	-1E+10	1
4901784	51	C	11/26/2016	10:43	-132.452	44.782	0	1565.10	0	2.4300	0	34.5580	0	27.591	0	1546.622	0	30.4	4	9.3	4	-1E+10	1	-1E+10	1	-1E+10	1	-1E+10	1	-1E+10	1	-1E+10	1
4901784	51	C	11/26/2016	10:43	-132.452	44.782	0	1570.50	0	2.4250	0	34.5580	0	27.592	0	1551.938	0	30.7	4	9.3	4	-1E+10	1	-1E+10	1	-1E+10	1	-1E+10	1	-1E+10	1	-1E+10	1
4901784	51	C	11/26/2016	10:43	-132.452	44.782	0	1575.00	0	2.4130	0	34.5590	0	27.594	0	1556.368	0	30.9	4	9.4	4	-1E+10	1	-1E+10	1	-1E+10	1	-1E+10	1	-1E+10	1	-1E+10	1
4901784	51	C	11/26/2016	10:43	-132.452	44.782	0	1579.60	0	2.4050	0	34.5600	0	27.595	0	1560.897	0	31.2	4	9.5	4	-1E+10	1	-1E+10	1	-1E+10	1	-1E+10	1	-1E+10	1	-1E+10	1
4901784	51	C	11/26/2016	10:43	-132.452	44.782	0	1585.10	0	2.3970	0	34.5610	0	27.597	0	1566.312	0	31.5	4	9.6	4	-1E+10	1	-1E+10	1	-1E+10	1	-1E+10	1	-1E+10	1	-1E+10	1
4901784	51	C	11/26/2016	10:43	-132.452	44.782	0	1589.70	0	2.3900	0	34.5620	0	27.598	0	1570.840	0	31.8	4	9.7	4	-1E+10	1	-1E+10	1	-1E+10	1	-1E+10	1	-1E+10	1	-1E+10	1
4901784	51	C	11/26/2016	10:43	-132.452	44.782	0	1594.30	0	2.3800	0	34.5630	0	27.600	0	1575.368	0	32.1	4	9.8	4	-1E+10	1	-1E+10	1	-1E+10	1	-1E+10	1	-1E+10	1	-1E+10	1
4901784	51	C	11/26/2016	10:43	-132.452	44.782	0	1599.80	0	2.3730	0	34.5630	0	27.600	0	1580.783	0	32.4	4	9.8	4	-1E+10	1	-1E+10	1	-1E+10	1	-1E+10	1	-1E+10	1	-1E+10	1
4901784	51	C	11/26/2016	10:43	-132.452	44.782	0	1605.30	0	2.3640	0	34.5650	0	27.603	0	1586.197	0	32.7	4	9.9	4	-1E+10	1	-1E+10	1	-1E+10	1	-1E+10	1	-1E+10	1	-1E+10	1
4901784	51	C	11/26/2016	10:43	-132.452	44.782	0	1609.90	0	2.3600	0	34.5650	0	27.603	0	1590.725	0	33.0	4	10.0	4	-1E+10	1	-1E+10	1	-1E+10	1	-1E+10	1	-1E+10	1	-1E+10	1
4901784	51	C	11/26/2016	10:43	-132.452	44.782	0	1614.40	0	2.3510	0	34.5670	0	27.605	0	1595.154	0	33.3	4	10.1	4	-1E+10	1	-1E+10	1	-1E+10	1	-1E+10	1	-1E+10	1	-1E+10	1
4901784	51	C	11/26/2016	10:43	-132.452	44.782	0	1620.00	0	2.3470	0	34.5670	0	27.606	0	1600.666	0	33.6	4	10.2	4	-1E+10	1	-1E+10	1	-1E+10	1	-1E+10	1	-1E+10	1	-1E+10	1
4901784	51	C	11/26/2016	10:43	-132.452	44.782	0	1625.10	0	2.3350	0	34.5690	0	27.608	0	1605.686	0	34.1	4	10.4	4	-1E+10	1	-1E+10	1	-1E+10	1	-1E+10	1	-1E+10	1	-1E+10	1
4901784	51	C	11/26/2016	10:43	-132.452	44.782	0	1629.40	0	2.3270	0	34.5700	0	27.610	0	1609.918	0	34.4	4	10.5	4	-1E+10	1	-1E+10	1	-1E+10	1	-1E+10	1	-1E+10	1	-1E+10	1
4901784	51	C	11/26/2016	10:43	-132.452	44.782	0	1635.00	0	2.3160	0	34.5710	0	27.612	0	1615.430	0	35.0	4	10.6	4	-1E+10	1	-1E+10	1	-1E+10	1	-1E+10	1	-1E+10	1	-1E+10	1
4901784	51	C	11/26/2016	10:43	-132.452	44.782	0	1640.70	0	2.2990	0	34.5730	0	27.615	0	1621.040	0	35.6	4	10.8	4	-1E+10	1	-1E+10	1	-1E+10	1	-1E+10	1	-1E+10	1	-1E+10	1
4901784	51	C	11/26/2016	10:43	-132.452	44.782	0	1645.60	0	2.2920	0	34.5740	0	27.616	0	1625.862	0	35.9	4	10.9	4	-1E+10	1	-1E+10	1	-1E+10	1	-1E+10	1	-1E+10	1	-1E+10	1
4901784	51	C	11/26/2016	10:43	-132.452	44.782	0	1650.50	0	2.2850	0	34.5750	0	27.617	0	1630.685	0	36.2	4	11.0	4	-1E+10	1	-1E+10	1	-1E+10	1	-1E+10	1	-1E+10	1	-1E+10	1
4901784	51	C	11/26/2016	10:43	-132.452	44.782	0	1655.50	0	2.2780	0	34.5760	0	27.619	0	1635.605	0	36.5	4	11.1	4	-1E+10	1	-1E+10	1	-1E+10	1	-1E+10	1	-1E+10	1	-1E+10	1
4901784	51	C	11/26/2016	10:43	-132.452	44.782	0	1660.40	0	2.2720	0	34.5760	0	27.619	0	1640.428	0	36.9	4	11.2	4	-1E+10	1	-1E+10	1	-1E+10	1	-1E+10	1	-1E+10	1	-1E+10	1
4901784	51	C	11/26/2016	10:43	-132.452	44.782	0	1665.40	0	2.2620	0	34.5780	0	27.622	0	1645.348	0	37.3	4	11.3	4	-1E+10	1	-1E+10	1	-1E+10	1	-1E+10	1	-1E+10	1	-1E+10	1
4901784	51	C	11/26/2016	10:43	-132.452	44.782	0	1670.50	0	2.2550	0	34.5790	0	27.623	0	1650.367	0	37.6	4	11.4	4	-1E+10	1	-1E+10	1	-1E+10	1	-1E+10	1	-1E+10	1	-1E+10	1
4901784	51	C	11/26/2016	10:43	-132.452	44.782	0	1675.60	0	2.2490	0	34.5790	0	27.624	0	1655.385	0	37.9	4	11.5	4	-1E+10	1	-1E+10	1	-1E+10	1	-1E+10	1	-1E+10	1	-1E+10	1
4901784	51	C	11/26/2016	10:43	-132.452	44.782	0	1680.70	0	2.2390	0	34.5810	0	27.626	0	1660.404	0	38.4	4	11.6	4	-1E+10	1	-1E+10	1	-1E+10	1	-1E+10	1	-1E+10	1	-1E+10	1
4901784	51	C	11/26/2016	10:43	-132.452	44.782	0	1685.80	0	2.2320	0	34.5820	0	27.627	0	1665.422	0	38.7	4	11.7	4	-1E+10	1	-1E+10	1	-1E+10	1	-1E+10	1	-1E+10	1	-1E+10	1
4901784	51	C	11/26/2016	10:43	-132.452	44.782	0	1690.00	0	2.2270	0	34.5830	0	27.629	0	1669.555	0	39.1	4	11.8	4	-1E+10	1	-1E+10	1	-1E+10	1	-1E+10	1	-1E+10	1	-1E+10	1
4901784	51	C	11/26/2016	10:43	-132.452	44.782	0	1694.20	0	2.2200	0	34.5840	0	27.630	0	1673.688	0	39.4	4	11.9	4	-1E+10	1	-1E+10	1	-1E+10	1	-1E+10	1	-1E+10	1	-1E+10	1
4901784	51	C	11/26/2016	10:43	-132.452	44.782	0	1699.30	0	2.2140	0	34.5850	0	27.631	0	1678.706	0	39.7	4	12.0	4	-1E+10	1	-1E+10	1	-1E+10	1	-1E+10	1	-1E+10	1	-1E+10	1
4901784	51	C	11/26/2016	10:43	-132.452	44.782	0	1704.40	0	2.2110	0	34.5860	0	27.632	0	1683.724	0	40.1	4	12.1	4	-1E+10	1	-1E+10	1	-1E+10	1	-1E+10	1	-1E+10	1	-1E+10	1
4901784	51	C	11/26/2016	10:43	-132.452	44.782	0	1709.50	0	2.2070	0	34.5870	0	27.634	0	1688.742	0	40.4	4	12.2	4	-1E+10	1	-1E+10	1	-1E+10	1	-1E+10	1	-1E+10	1	-1E+10	1
4901784	51	C	11/26/2016	10:43	-132.452	44.782	0	1714.70	0	2.2010	0	34.5880	0	27.635	0	1693.858	0	40.7	4	12.3	4	-1E+10	1	-1E+10	1	-1E+10	1	-1E+10	1	-1E+10	1	-1E+10	1
4901784	51	C	11/26/2016	10:43	-132.452	44.782	0	1719.80	0	2.1940	0	34.5890	0	27.636	0	1698.875	0	41.1	4	12.5	4	-1E+10	1	-1E+10	1	-1E+10	1	-1E+10	1	-1E+10	1	-1E+10	1
4901784	51	C	11/26/2016	10:43	-132.452	44.782	0	1724.90	0	2.1860	0	34.5900	0	27.638	0	1703.893	0	41.5	4	12.6	4	-1E+10	1	-1E+10	1	-1E+10	1	-1E+10	1	-1E+10	1	-1E+10	1
4901784	51	C	11/26/2016	10:43	-132.452	44.782	0	1730.20	0	2.1800	0	34.5910	0	27.639	0	1709.107	0	41.7	4	12.6	4	-1E+10	1	-1E+10	1	-1E+10	1	-1E+10	1	-1E+10	1	-1E+10	1
4901784	51	C	11/26/2016	10:43	-132.452	44.782	0	1735.30	0	2.1770	0	34.5910	0	27.639	0	1714.124	0	42.0	4	12.7	4	-1E+10	1	-1E+10	1	-1E+10	1	-1E+10	1	-1E+10	1	-1E+10	1
4901784	51	C	11/26/2016	10:43	-132.452	44.782	0	1740.50	0	2.1710	0	34.5920	0	27.641	0	1719.240	0	42.4	4	12.8	4	-1E+10	1	-1E+10	1	-1E+10	1	-1E+10	1	-1E+10	1	-1E+10	1
4901784	51	C	11/26/2016	10:43	-132.452	44.782	0	1744.90	0	2.1640	0	34.5930	0	27.642	0	1723.568	0	42.8	4	13.0	4	-1E+10	1	-1E+10	1	-1E+10	1	-1E+10	1	-1E+10	1	-1E+10	1
4901784	51	C	11/26/2016	10:43	-132.452	44.782	0	1749.40	0	2.1590	0	34.5940	0	27.643	0	1727.995	0	43.1	4	13.0	4	-1E+10	1	-1E+10	1	-1E+10	1	-1E+10	1	-1E+10	1	-1E+10	1
4901784	51	C	11/26/2016	10:43	-132.452	44.782	0	1754.70	0	2.1510	0	34.5950	0	27.645	0	1733.208	0	43.4	4	13.1	4	-1E+10	1	-1E+10	1	-1E+10	1	-1E+10	1	-1E+10	1	-1E+10	1
4901784	51	C	11/26/2016	10:43	-132.452	44.782	0	1760.00	0	2.1470	0	34.5950	0	27.645	0	1738.422	0	43.7	4	13.2	4	-1E+10	1	-1E+10	1	-1E+10	1	-1E+10	1	-1E+10	1	-1E+10	1
4901784	51	C	11/26/2016	10:43	-132.452	44.782	0	1765.40	0	2.1430	0	34.5960	0	27.646	0	1743.733	0	44.0	4	13.3	4	-1E+10	1	-1E+10	1	-1E+10	1	-1E+10	1	-1E+10	1	-1E+10	1
4901784	51	C	11/26/2016	10:43	-132.452	44.782	0	1769.80	0	2.1370	0	34.5960	0	27.647	0	1748.061	0	44.4	4	13.4	4	-1E+10	1	-1E+10	1	-1E+10	1	-1E+10	1	-1E+10	1	-1E+10	1
4901784	51	C	11/26/2016	10:43	-132.452	44.782	0	1774.30	0	2.1270	0	34.5980	0	27.649	0	1752.487	0	44.8	4	13.6	4	-1E+10	1	-1E+10	1	-1E+10	1	-1E+10	1	-1E+10	1	-1E+10	1
4901784	51	C	11/26/2016	10:43	-132.452	44.782	0	1779.80	0	2.1200	0	34.5980	0	27.650	0	1757.897	0	45.2	4	13.7	4	-1E+10	1	-1E+10	1	-1E+10	1	-1E+10	1	-1E+10	1	-1E+10	1
4901784	51	C	11/26/2016	10:43	-132.452	44.782	0	1785.20	0	2.1130	0	34.5990	0	27.651	0	1763.208	0	45.7	4	13.8	4	-1E+10	1	-1E+10	1	-1E+10	1	-1E+10	1	-1E+10	1	-1E+10	1
4901784	51	C	11/26/2016	10:43	-132.452	44.782	0	1790.30	0	2.1070	0	34.6010	0	27.653	0	1768.224	0	46.1	4	13.9	4	-1E+10	1	-1E+10	1	-1E+10	1	-1E+10	1	-1E+10	1	-1E+10	1
4901784	51	C	11/26/2016	10:43	-132.452	44.782	0	1794.40	0	2.1020	0	34.6020	0	27.654	0	1772.256	0	46.4	4	14.0	4	-1E+10	1	-1E+10	1	-1E+10	1	-1E+10	1	-1E+10	1	-1E+10	1
4901784	51	C	11/26/2016	10:43	-132.452	44.782	0	1799.20	0	2.0980	0	34.6020	0	27.655	0	1776.977	0	46.8	4	14.2	4	-1E+10	1	-1E+10	1	-1E+10	1	-1E+10	1	-1E+10	1	-1E+10	1
4901784	51	C	11/26/2016	10:43	-132.452	44.782	0	1804.90	0	2.0900	0	34.6040	0	27.657	0	1782.583	0	47.3	4	14.3	4	-1E+10	1	-1E+10	1	-1E+10	1	-1E+10	1	-1E+10	1	-1E+10	1
4901784	51	C	11/26/2016	10:43	-132.452	44.782	0	1810.60	0	2.0820	0	34.6050	0	27.658	0	1788.188	0	47.7	4	14.4	4	-1E+10	1	-1E+10	1	-1E+10	1	-1E+10	1	-1E+10	1	-1E+10	1
4901784	51	C	11/26/2016	10:43	-132.452	44.782	0	1815.50	0	2.0770	0	34.6050	0	27.659	0	1793.007	0	48.0	4	14.5	4	-1E+10	1	-1E+10	1	-1E+10	1	-1E+10	1	-1E+10	1	-1E+10	1
4901784	51	C	11/26/2016	10:43	-132.452	44.782	0	1820.40	0	2.0700	0	34.6070	0	27.661	0	1797.826	0	48.3	4	14.6	4	-1E+10	1	-1E+10	1	-1E+10	1	-1E+10	1	-1E+10	1	-1E+10	1
4901784	51	C	11/26/2016	10:43	-132.452	44.782	0	1825.30	0	2.0660	0	34.6070	0	27.661	0	1802.644	0	48.5	4	14.7	4	-1E+10	1	-1E+10	1	-1E+10	1	-1E+10	1	-1E+10	1	-1E+10	1
4901784	51	C	11/26/2016	10:43	-132.452	44.782	0	1830.20	0	2.0640	0	34.6070	0	27.662	0	1807.462	0	48.7	4	14.7	4	-1E+10	1	-1E+10	1	-1E+10	1	-1E+10	1	-1E+10	1	-1E+10	1
4901784	51	C	11/26/2016	10:43	-132.452	44.782	0	1835.20	0	2.0600	0	34.6080	0	27.663	0	1812.379	0	48.9	4	14.8	4	-1E+10	1	-1E+10	1	-1E+10	1	-1E+10	1	-1E+10	1	-1E+10	1
4901784	51	C	11/26/2016	10:43	-132.452	44.782	0	1840.20	0	2.0590	0	34.6080	0	27.663	0	1817.295	0	49.2	4	14.9	4	-1E+10	1	-1E+10	1	-1E+10	1	-1E+10	1	-1E+10	1	-1E+10	1
4901784	51	C	11/26/2016	10:43	-132.452	44.782	0	1845.20	0	2.0540	0	34.6090	0	27.664	0	1822.212	0	49.6	4	15.0	4	-1E+10	1	-1E+10	1	-1E+10	1	-1E+10	1	-1E+10	1	-1E+10	1
4901784	51	C	11/26/2016	10:43	-132.452	44.782	0	1850.30	0	2.0480	0	34.6100	0	27.665	0	1827.226	0	50.1	4	15.1	4	-1E+10	1	-1E+10	1	-1E+10	1	-1E+10	1	-1E+10	1	-1E+10	1
4901784	51	C	11/26/2016	10:43	-132.452	44.782	0	1855.30	0	2.0410	0	34.6110	0	27.667	0	1832.142	0	50.6	4	15.3	4	-1E+10	1	-1E+10	1	-1E+10	1	-1E+10	1	-1E+10	1	-1E+10	1
4901784	51	C	11/26/2016	10:43	-132.452	44.782	0	1860.40	0	2.0310	0	34.6120	0	27.668	0	1837.157	0	51.1	4	15.4	4	-1E+10	1	-1E+10	1	-1E+10	1	-1E+10	1	-1E+10	1	-1E+10	1
4901784	51	C	11/26/2016	10:43	-132.452	44.782	0	1865.50	0	2.0240	0	34.6130	0	27.670	0	1842.171	0	51.5	4	15.5	4	-1E+10	1	-1E+10	1	-1E+10	1	-1E+10	1	-1E+10	1	-1E+10	1
4901784	51	C	11/26/2016	10:43	-132.452	44.782	0	1870.60	0	2.0210	0	34.6130	0	27.670	0	1847.185	0	51.8	4	15.6	4	-1E+10	1	-1E+10	1	-1E+10	1	-1E+10	1	-1E+10	1	-1E+10	1
4901784	51	C	11/26/2016	10:43	-132.452	44.782	0	1875.70	0	2.0150	0	34.6140	0	27.671	0	1852.199	0	52.3	4	15.8	4	-1E+10	1	-1E+10	1	-1E+10	1	-1E+10	1	-1E+10	1	-1E+10	1
4901784	51	C	11/26/2016	10:43	-132.452	44.782	0	1880.00	0	2.0090	0	34.6150	0	27.672	0	1856.426	0	52.6	4	15.9	4	-1E+10	1	-1E+10	1	-1E+10	1	-1E+10	1	-1E+10	1	-1E+10	1
4901784	51	C	11/26/2016	10:43	-132.452	44.782	0	1884.40	0	2.0050	0	34.6160	0	27.674	0	1860.752	0	52.8	4	15.9	4	-1E+10	1	-1E+10	1	-1E+10	1	-1E+10	1	-1E+10	1	-1E+10	1
4901784	51	C	11/26/2016	10:43	-132.452	44.782	0	1889.60	0	2.0020	0	34.6170	0	27.675	0	1865.864	0	53.1	4	16.0	4	-1E+10	1	-1E+10	1	-1E+10	1	-1E+10	1	-1E+10	1	-1E+10	1
4901784	51	C	11/26/2016	10:43	-132.452	44.782	0	1894.80	0	1.9980	0	34.6170	0	27.675	0	1870.976	0	53.5	4	16.1	4	-1E+10	1	-1E+10	1	-1E+10	1	-1E+10	1	-1E+10	1	-1E+10	1
4901784	51	C	11/26/2016	10:43	-132.452	44.782	0	1900.10	0	1.9930	0	34.6180	0	27.676	0	1876.186	0	53.9	4	16.3	4	-1E+10	1	-1E+10	1	-1E+10	1	-1E+10	1	-1E+10	1	-1E+10	1
4901784	51	C	11/26/2016	10:43	-132.452	44.782	0	1905.50	0	1.9860	0	34.6190	0	27.678	0	1881.494	0	54.4	4	16.4	4	-1E+10	1	-1E+10	1	-1E+10	1	-1E+10	1	-1E+10	1	-1E+10	1
4901784	51	C	11/26/2016	10:43	-132.452	44.782	0	1909.90	0	1.9830	0	34.6200	0	27.679	0	1885.819	0	54.6	4	16.5	4	-1E+10	1	-1E+10	1	-1E+10	1	-1E+10	1	-1E+10	1	-1E+10	1
4901784	51	C	11/26/2016	10:43	-132.452	44.782	0	1914.50	0	1.9790	0	34.6210	0	27.680	0	1890.341	0	54.9	4	16.5	4	-1E+10	1	-1E+10	1	-1E+10	1	-1E+10	1	-1E+10	1	-1E+10	1
4901784	51	C	11/26/2016	10:43	-132.452	44.782	0	1919.90	0	1.9750	0	34.6210	0	27.680	0	1895.648	0	55.2	4	16.6	4	-1E+10	1	-1E+10	1	-1E+10	1	-1E+10	1	-1E+10	1	-1E+10	1
4901784	51	C	11/26/2016	10:43	-132.452	44.782	0	1925.20	0	1.9700	0	34.6220	0	27.681	0	1900.858	0	55.6	4	16.7	4	-1E+10	1	-1E+10	1	-1E+10	1	-1E+10	1	-1E+10	1	-1E+10	1
4901784	51	C	11/26/2016	10:43	-132.452	44.782	0	1929.80	0	1.9670	0	34.6230	0	27.682	0	1905.379	0	55.8	4	16.8	4	-1E+10	1	-1E+10	1	-1E+10	1	-1E+10	1	-1E+10	1	-1E+10	1
4901784	51	C	11/26/2016	10:43	-132.452	44.782	0	1934.40	0	1.9640	0	34.6230	0	27.683	0	1909.900	0	56.0	4	16.9	4	-1E+10	1	-1E+10	1	-1E+10	1	-1E+10	1	-1E+10	1	-1E+10	1
4901784	51	C	11/26/2016	10:43	-132.452	44.782	0	1939.80	0	1.9600	0	34.6240	0	27.684	0	1915.208	0	56.2	4	16.9	4	-1E+10	1	-1E+10	1	-1E+10	1	-1E+10	1	-1E+10	1	-1E+10	1
4901784	51	C	11/26/2016	10:43	-132.452	44.782	0	1945.00	0	1.9580	0	34.6240	0	27.684	0	1920.318	0	56.4	4	17.0	4	-1E+10	1	-1E+10	1	-1E+10	1	-1E+10	1	-1E+10	1	-1E+10	1
4901784	51	C	11/26/2016	10:43	-132.452	44.782	0	1949.30	0	1.9580	0	34.6240	0	27.684	0	1924.544	0	56.5	4	17.0	4	-1E+10	1	-1E+10	1	-1E+10	1	-1E+10	1	-1E+10	1	-1E+10	1
4901784	51	C	11/26/2016	10:43	-132.452	44.782	0	1955.00	0	1.9540	0	34.6250	0	27.685	0	1930.146	0	56.8	4	17.1	4	-1E+10	1	-1E+10	1	-1E+10	1	-1E+10	1	-1E+10	1	-1E+10	1
4901784	51	C	11/26/2016	10:43	-132.452	44.782	0	1960.80	0	1.9520	0	34.6250	0	27.685	0	1935.846	0	57.0	4	17.2	4	-1E+10	1	-1E+10	1	-1E+10	1	-1E+10	1	-1E+10	1	-1E+10	1
4901784	51	C	11/26/2016	10:43	-132.452	44.782	0	1965.00	0	1.9510	0	34.6260	0	27.686	0	1939.973	0	57.2	4	17.2	4	-1E+10	1	-1E+10	1	-1E+10	1	-1E+10	1	-1E+10	1	-1E+10	1
4901784	51	C	11/26/2016	10:43	-132.452	44.782	0	1969.20	0	1.9470	0	34.6260	0	27.687	0	1944.101	0	57.4	4	17.3	4	-1E+10	1	-1E+10	1	-1E+10	1	-1E+10	1	-1E+10	1	-1E+10	1
4901784	51	C	11/26/2016	10:43	-132.452	44.782	0	1974.30	0	1.9450	0	34.6270	0	27.688	0	1949.112	0	57.7	4	17.4	4	-1E+10	1	-1E+10	1	-1E+10	1	-1E+10	1	-1E+10	1	-1E+10	1
4901784	51	C	11/26/2016	10:43	-132.452	44.782	0	1979.40	0	1.9410	0	34.6270	0	27.688	0	1954.124	0	58.0	4	17.5	4	-1E+10	1	-1E+10	1	-1E+10	1	-1E+10	1	-1E+10	1	-1E+10	1
4901784	51	C	11/26/2016	10:43	-132.452	44.782	0	1984.50	0	1.9400	0	34.6280	0	27.689	0	1959.135	0	58.1	4	17.5	4	-1E+10	1	-1E+10	1	-1E+10	1	-1E+10	1	-1E+10	1	-1E+10	1
4901784	51	C	11/26/2016	10:43	-132.452	44.782	0	1989.70	0	1.9380	0	34.6280	0	27.689	0	1964.245	0	58.3	4	17.6	4	-1E+10	1	-1E+10	1	-1E+10	1	-1E+10	1	-1E+10	1	-1E+10	1
4901784	51	C	11/26/2016	10:43	-132.452	44.782	0	1994.90	0	1.9360	0	34.6280	0	27.689	0	1969.354	0	58.6	4	17.6	4	-1E+10	1	-1E+10	1	-1E+10	1	-1E+10	1	-1E+10	1	-1E+10	1
4901784	51	C	11/26/2016	10:43	-132.452	44.782	0	2000.20	0	1.9330	0	34.6290	0	27.690	0	1974.562	0	58.9	4	17.7	4	-1E+10	1	-1E+10	1	-1E+10	1	-1E+10	1	-1E+10	1	-1E+10	1
4901784	51	C	11/26/2016	10:43	-132.452	44.782	0	2005.50	0	1.9290	0	34.6300	0	27.691	0	1979.769	0	59.1	4	17.8	4	-1E+10	1	-1E+10	1	-1E+10	1	-1E+10	1	-1E+10	1	-1E+10	1
4901784	51	C	11/26/2016	10:43	-132.452	44.782	0	2010.10	0	1.9260	0	34.6300	0	27.692	0	1984.289	0	59.3	4	17.9	4	-1E+10	1	-1E+10	1	-1E+10	1	-1E+10	1	-1E+10	1	-1E+10	1
4901784	51	C	11/26/2016	10:43	-132.452	44.782	0	2015.90	0	1.9240	0	34.6310	0	27.693	0	1989.988	0	59.5	4	17.9	4	-1E+10	1	-1E+10	1	-1E+10	1	-1E+10	1	-1E+10	1	-1E+10	1
4901784	51	C	11/26/2016	10:43	-132.452	44.782	0	2020.50	0	1.9230	0	34.6310	0	27.693	0	1994.507	0	59.6	4	18.0	4	-1E+10	1	-1E+10	1	-1E+10	1	-1E+10	1	-1E+10	1	-1E+10	1
4901784	51	C	11/26/2016	10:43	-132.452	44.782	0																										
4901784	52	C	12/06/2016	10:43	-132.434	44.632	0	3.10	0	11.5830	0	32.7160	0	24.893	0	3.075	0	259.0	4	96.0	4	-1E+10	1	-1E+10	1	-1E+10	1	-1E+10	1	-1E+10	1	-1E+10	1
4901784	52	C	12/06/2016	10:43	-132.434	44.632	0	5.30	0	11.5880	0	32.7150	0	24.892	0	5.257	0	259.0	4	96.0	4	-1E+10	1	-1E+10	1	-1E+10	1	-1E+10	1	-1E+10	1	-1E+10	1
4901784	52	C	12/06/2016	10:43	-132.434	44.632	0	6.90	0	11.5860	0	32.7180	0	24.894	0	6.844	0	258.9	4	95.9	4	-1E+10	1	-1E+10	1	-1E+10	1	-1E+10	1	-1E+10	1	-1E+10	1
4901784	52	C	12/06/2016	10:43	-132.434	44.632	0	8.30	0	11.5830	0	32.7160	0	24.893	0	8.233	0	258.8	4	95.9	4	-1E+10	1	-1E+10	1	-1E+10	1	-1E+10	1	-1E+10	1	-1E+10	1
4901784	52	C	12/06/2016	10:43	-132.434	44.632	0	9.80	0	11.5820	0	32.7160	0	24.894	0	9.721	0	258.8	4	95.9	4	-1E+10	1	-1E+10	1	-1E+10	1	-1E+10	1	-1E+10	1	-1E+10	1
4901784	52	C	12/06/2016	10:43	-132.434	44.632	0	11.30	0	11.5830	0	32.7160	0	24.893	0	11.208	0	258.8	4	95.9	4	-1E+10	1	-1E+10	1	-1E+10	1	-1E+10	1	-1E+10	1	-1E+10	1
4901784	52	C	12/06/2016	10:43	-132.434	44.632	0	12.90	0	11.5820	0	32.7160	0	24.894	0	12.795	0	258.8	4	95.9	4	-1E+10	1	-1E+10	1	-1E+10	1	-1E+10	1	-1E+10	1	-1E+10	1
4901784	52	C	12/06/2016	10:43	-132.434	44.632	0	14.50	0	11.5810	0	32.7160	0	24.894	0	14.382	0	258.8	4	95.9	4	-1E+10	1	-1E+10	1	-1E+10	1	-1E+10	1	-1E+10	1	-1E+10	1
4901784	52	C	12/06/2016	10:43	-132.434	44.632	0	15.90	0	11.5800	0	32.7170	0	24.895	0	15.771	0	258.7	4	95.9	4	-1E+10	1	-1E+10	1	-1E+10	1	-1E+10	1	-1E+10	1	-1E+10	1
4901784	52	C	12/06/2016	10:43	-132.434	44.632	0	17.60	0	11.5830	0	32.7130	0	24.891	0	17.457	0	258.6	4	95.8	4	-1E+10	1	-1E+10	1	-1E+10	1	-1E+10	1	-1E+10	1	-1E+10	1
4901784	52	C	12/06/2016	10:43	-132.434	44.632	0	19.40	0	11.5920	0	32.7150	0	24.891	0	19.242	0	258.5	4	95.8	4	-1E+10	1	-1E+10	1	-1E+10	1	-1E+10	1	-1E+10	1	-1E+10	1
4901784	52	C	12/06/2016	10:43	-132.434	44.632	0	21.30	0	11.5930	0	32.7160	0	24.892	0	21.127	0	258.5	4	95.8	4	-1E+10	1	-1E+10	1	-1E+10	1	-1E+10	1	-1E+10	1	-1E+10	1
4901784	52	C	12/06/2016	10:43	-132.434	44.632	0	23.20	0	11.5920	0	32.7160	0	24.892	0	23.011	0	258.4	4	95.8	4	-1E+10	1	-1E+10	1	-1E+10	1	-1E+10	1	-1E+10	1	-1E+10	1
4901784	52	C	12/06/2016	10:43	-132.434	44.632	0	25.20	0	11.5910	0	32.7160	0	24.892	0	24.995	0	258.4	4	95.7	4	-1E+10	1	-1E+10	1	-1E+10	1	-1E+10	1	-1E+10	1	-1E+10	1
4901784	52	C	12/06/2016	10:43	-132.434	44.632	0	27.20	0	11.5880	0	32.7170	0	24.894	0	26.978	0	258.3	4	95.7	4	-1E+10	1	-1E+10	1	-1E+10	1	-1E+10	1	-1E+10	1	-1E+10	1
4901784	52	C	12/06/2016	10:43	-132.434	44.632	0	29.40	0	11.5880	0	32.7160	0	24.893	0	29.160	0	258.3	4	95.7	4	-1E+10	1	-1E+10	1	-1E+10	1	-1E+10	1	-1E+10	1	-1E+10	1
4901784	52	C	12/06/2016	10:43	-132.434	44.632	0	31.50	0	11.5890	0	32.7160	0	24.893	0	31.243	0	258.3	4	95.7	4	-1E+10	1	-1E+10	1	-1E+10	1	-1E+10	1	-1E+10	1	-1E+10	1
4901784	52	C	12/06/2016	10:43	-132.434	44.632	0	33.60	0	11.5890	0	32.7160	0	24.893	0	33.326	0	258.3	4	95.7	4	-1E+10	1	-1E+10	1	-1E+10	1	-1E+10	1	-1E+10	1	-1E+10	1
4901784	52	C	12/06/2016	10:43	-132.434	44.632	0	35.70	0	11.5900	0	32.7160	0	24.893	0	35.408	0	258.2	4	95.7	4	-1E+10	1	-1E+10	1	-1E+10	1	-1E+10	1	-1E+10	1	-1E+10	1
4901784	52	C	12/06/2016	10:43	-132.434	44.632	0	37.70	0	11.5870	0	32.7160	0	24.893	0	37.392	0	258.1	4	95.6	4	-1E+10	1	-1E+10	1	-1E+10	1	-1E+10	1	-1E+10	1	-1E+10	1
4901784	52	C	12/06/2016	10:43	-132.434	44.632	0	39.70	0	11.5870	0	32.7160	0	24.893	0	39.375	0	258.1	4	95.7	4	-1E+10	1	-1E+10	1	-1E+10	1	-1E+10	1	-1E+10	1	-1E+10	1
4901784	52	C	12/06/2016	10:43	-132.434	44.632	0	41.80	0	11.5860	0	32.7150	0	24.893	0	41.458	0	257.9	4	95.6	4	-1E+10	1	-1E+10	1	-1E+10	1	-1E+10	1	-1E+10	1	-1E+10	1
4901784	52	C	12/06/2016	10:43	-132.434	44.632	0	44.00	0	11.5880	0	32.7150	0	24.892	0	43.640	0	258.0	4	95.6	4	-1E+10	1	-1E+10	1	-1E+10	1	-1E+10	1	-1E+10	1	-1E+10	1
4901784	52	C	12/06/2016	10:43	-132.434	44.632	0	46.30	0	11.5920	0	32.7180	0	24.894	0	45.921	0	257.8	4	95.6	4	-1E+10	1	-1E+10	1	-1E+10	1	-1E+10	1	-1E+10	1	-1E+10	1
4901784	52	C	12/06/2016	10:43	-132.434	44.632	0	48.60	0	11.5940	0	32.7180	0	24.894	0	48.201	0	257.7	4	95.5	4	-1E+10	1	-1E+10	1	-1E+10	1	-1E+10	1	-1E+10	1	-1E+10	1
4901784	52	C	12/06/2016	10:43	-132.434	44.632	0	50.90	0	11.5920	0	32.7160	0	24.893	0	50.482	0	257.5	4	95.4	4	-1E+10	1	-1E+10	1	-1E+10	1	-1E+10	1	-1E+10	1	-1E+10	1
4901784	52	C	12/06/2016	10:43	-132.434	44.632	0	53.10	0	11.5960	0	32.7170	0	24.893	0	52.664	0	257.4	4	95.4	4	-1E+10	1	-1E+10	1	-1E+10	1	-1E+10	1	-1E+10	1	-1E+10	1
4901784	52	C	12/06/2016	10:43	-132.434	44.632	0	55.30	0	11.5940	0	32.7170	0	24.893	0	54.846	0	257.3	4	95.4	4	-1E+10	1	-1E+10	1	-1E+10	1	-1E+10	1	-1E+10	1	-1E+10	1
4901784	52	C	12/06/2016	10:43	-132.434	44.632	0	57.40	0	11.5960	0	32.7170	0	24.893	0	56.928	0	257.1	4	95.3	4	-1E+10	1	-1E+10	1	-1E+10	1	-1E+10	1	-1E+10	1	-1E+10	1
4901784	52	C	12/06/2016	10:43	-132.434	44.632	0	59.50	0	11.5940	0	32.7170	0	24.893	0	59.011	0	257.1	4	95.3	4	-1E+10	1	-1E+10	1	-1E+10	1	-1E+10	1	-1E+10	1	-1E+10	1
4901784	52	C	12/06/2016	10:43	-132.434	44.632	0	61.60	0	11.5940	0	32.7160	0	24.893	0	61.093	0	257.0	4	95.2	4	-1E+10	1	-1E+10	1	-1E+10	1	-1E+10	1	-1E+10	1	-1E+10	1
4901784	52	C	12/06/2016	10:43	-132.434	44.632	0	64.10	0	11.5980	0	32.7160	0	24.892	0	63.572	0	256.7	4	95.2	4	-1E+10	1	-1E+10	1	-1E+10	1	-1E+10	1	-1E+10	1	-1E+10	1
4901784	52	C	12/06/2016	10:43	-132.434	44.632	0	64.70	0	11.6010	0	32.7170	0	24.892	0	64.167	0	256.5	4	95.1	4	-1E+10	1	-1E+10	1	-1E+10	1	-1E+10	1	-1E+10	1	-1E+10	1
4901784	52	C	12/06/2016	10:43	-132.434	44.632	0	66.60	0	11.6010	0	32.7170	0	24.892	0	66.051	0	256.3	4	95.0	4	-1E+10	1	-1E+10	1	-1E+10	1	-1E+10	1	-1E+10	1	-1E+10	1
4901784	52	C	12/06/2016	10:43	-132.434	44.632	0	68.40	0	11.6010	0	32.7150	0	24.891	0	67.836	0	256.1	4	94.9	4	-1E+10	1	-1E+10	1	-1E+10	1	-1E+10	1	-1E+10	1	-1E+10	1
4901784	52	C	12/06/2016	10:43	-132.434	44.632	0	70.00	0	11.6000	0	32.7150	0	24.891	0	69.422	0	255.7	4	94.8	4	-1E+10	1	-1E+10	1	-1E+10	1	-1E+10	1	-1E+10	1	-1E+10	1
4901784	52	C	12/06/2016	10:43	-132.434	44.632	0	71.80	0	11.5980	0	32.7130	0	24.890	0	71.207	0	255.2	4	94.6	4	-1E+10	1	-1E+10	1	-1E+10	1	-1E+10	1	-1E+10	1	-1E+10	1
4901784	52	C	12/06/2016	10:43	-132.434	44.632	0	73.30	0	11.5940	0	32.7100	0	24.888	0	72.695	0	254.6	4	94.3	4	-1E+10	1	-1E+10	1	-1E+10	1	-1E+10	1	-1E+10	1	-1E+10	1
4901784	52	C	12/06/2016	10:43	-132.434	44.632	0	75.10	0	11.5830	0	32.7060	0	24.887	0	74.479	0	253.9	4	94.1	4	-1E+10	1	-1E+10	1	-1E+10	1	-1E+10	1	-1E+10	1	-1E+10	1
4901784	52	C	12/06/2016	10:43	-132.434	44.632	0	75.50	0	11.5810	0	32.7050	0	24.887	0	74.876	0	253.6	4	94.0	4	-1E+10	1	-1E+10	1	-1E+10	1	-1E+10	1	-1E+10	1	-1E+10	1
4901784	52	C	12/06/2016	10:43	-132.434	44.632	0	76.80	0	11.5110	0	32.7030	0	24.898	0	76.165	0	252.4	4	93.4	4	-1E+10	1	-1E+10	1	-1E+10	1	-1E+10	1	-1E+10	1	-1E+10	1
4901784	52	C	12/06/2016	10:43	-132.434	44.632	0	78.10	0	11.3600	0	32.7080	0	24.929	0	77.454	0	251.6	4	92.8	4	-1E+10	1	-1E+10	1	-1E+10	1	-1E+10	1	-1E+10	1	-1E+10	1
4901784	52	C	12/06/2016	10:43	-132.434	44.632	0	79.40	0	10.7880	0	32.7570	0	25.069	0	78.743	0	253.1	4	92.3	4	-1E+10	1	-1E+10	1	-1E+10	1	-1E+10	1	-1E+10	1	-1E+10	1
4901784	52	C	12/06/2016	10:43	-132.434	44.632	0	80.70	0	10.5550	0	32.7600	0	25.111	0	80.032	0	253.5	4	91.9	4	-1E+10	1	-1E+10	1	-1E+10	1	-1E+10	1	-1E+10	1	-1E+10	1
4901784	52	C	12/06/2016	10:43	-132.434	44.632	0	82.30	0	9.9570	0	32.8280	0	25.265	0	81.618	0	255.0	4	91.3	4	-1E+10	1	-1E+10	1	-1E+10	1	-1E+10	1	-1E+10	1	-1E+10	1
4901784	52	C	12/06/2016	10:43	-132.434	44.632	0	83.70	0	9.4900	0	32.8870	0	25.388	0	83.007	0	255.7	4	90.7	4	-1E+10	1	-1E+10	1	-1E+10	1	-1E+10	1	-1E+10	1	-1E+10	1
4901784	52	C	12/06/2016	10:43	-132.434	44.632	0	85.40	0	9.2880	0	32.9000	0	25.430	0	84.692	0	256.9	4	90.8	4	-1E+10	1	-1E+10	1	-1E+10	1	-1E+10	1	-1E+10	1	-1E+10	1
4901784	52	C	12/06/2016	10:43	-132.434	44.632	0	86.90	0	9.2610	0	32.9020	0	25.436	0	86.179	0	256.6	4	90.6	4	-1E+10	1	-1E+10	1	-1E+10	1	-1E+10	1	-1E+10	1	-1E+10	1
4901784	52	C	12/06/2016	10:43	-132.434	44.632	0	88.60	0	9.2310	0	32.9040	0	25.443	0	87.865	0	256.0	4	90.3	4	-1E+10	1	-1E+10	1	-1E+10	1	-1E+10	1	-1E+10	1	-1E+10	1
4901784	52	C	12/06/2016	10:43	-132.434	44.632	0	90.20	0	9.1660	0	32.9190	0	25.465	0	89.451	0	255.7	4	90.1	4	-1E+10	1	-1E+10	1	-1E+10	1	-1E+10	1	-1E+10	1	-1E+10	1
4901784	52	C	12/06/2016	10:43	-132.434	44.632	0	91.80	0	9.1530	0	32.9240	0	25.471	0	91.038	0	255.4	4	90.0	4	-1E+10	1	-1E+10	1	-1E+10	1	-1E+10	1	-1E+10	1	-1E+10	1
4901784	52	C	12/06/2016	10:43	-132.434	44.632	0	93.50	0	9.1460	0	32.9260	0	25.473	0	92.723	0	255.0	4	89.8	4	-1E+10	1	-1E+10	1	-1E+10	1	-1E+10	1	-1E+10	1	-1E+10	1
4901784	52	C	12/06/2016	10:43	-132.434	44.632	0	95.10	0	9.1400	0	32.9280	0	25.476	0	94.310	0	254.2	4	89.5	4	-1E+10	1	-1E+10	1	-1E+10	1	-1E+10	1	-1E+10	1	-1E+10	1
4901784	52	C	12/06/2016	10:43	-132.434	44.632	0	96.80	0	9.1230	0	32.9330	0	25.482	0	95.995	0	253.5	4	89.2	4	-1E+10	1	-1E+10	1	-1E+10	1	-1E+10	1	-1E+10	1	-1E+10	1
4901784	52	C	12/06/2016	10:43	-132.434	44.632	0	98.50	0	9.1090	0	32.9360	0	25.487	0	97.680	0	252.8	4	89.0	4	-1E+10	1	-1E+10	1	-1E+10	1	-1E+10	1	-1E+10	1	-1E+10	1
4901784	52	C	12/06/2016	10:43	-132.434	44.632	0	100.10	0	9.0800	0	32.9410	0	25.496	0	99.267	0	251.9	4	88.6	4	-1E+10	1	-1E+10	1	-1E+10	1	-1E+10	1	-1E+10	1	-1E+10	1
4901784	52	C	12/06/2016	10:43	-132.434	44.632	0	102.70	0	9.0130	0	32.9530	0	25.515	0	101.844	0	249.9	4	87.8	4	-1E+10	1	-1E+10	1	-1E+10	1	-1E+10	1	-1E+10	1	-1E+10	1
4901784	52	C	12/06/2016	10:43	-132.434	44.632	0	105.30	0	8.9590	0	32.9640	0	25.533	0	104.422	0	247.5	4	86.8	4	-1E+10	1	-1E+10	1	-1E+10	1	-1E+10	1	-1E+10	1	-1E+10	1
4901784	52	C	12/06/2016	10:43	-132.434	44.632	0	107.90	0	8.9610	0	33.0030	0	25.563	0	107.000	0	243.7	4	85.5	4	-1E+10	1	-1E+10	1	-1E+10	1	-1E+10	1	-1E+10	1	-1E+10	1
4901784	52	C	12/06/2016	10:43	-132.434	44.632	0	110.40	0	9.0310	0	33.0480	0	25.587	0	109.478	0	239.2	4	84.1	4	-1E+10	1	-1E+10	1	-1E+10	1	-1E+10	1	-1E+10	1	-1E+10	1
4901784	52	C	12/06/2016	10:43	-132.434	44.632	0	112.10	0	9.0510	0	33.1030	0	25.627	0	111.164	0	236.1	4	83.1	4	-1E+10	1	-1E+10	1	-1E+10	1	-1E+10	1	-1E+10	1	-1E+10	1
4901784	52	C	12/06/2016	10:43	-132.434	44.632	0	114.60	0	9.0390	0	33.1210	0	25.643	0	113.642	0	232.2	4	81.7	4	-1E+10	1	-1E+10	1	-1E+10	1	-1E+10	1	-1E+10	1	-1E+10	1
4901784	52	C	12/06/2016	10:43	-132.434	44.632	0	117.30	0	9.0140	0	33.1810	0	25.694	0	116.319	0	227.5	4	80.0	4	-1E+10	1	-1E+10	1	-1E+10	1	-1E+10	1	-1E+10	1	-1E+10	1
4901784	52	C	12/06/2016	10:43	-132.434	44.632	0	119.80	0	9.0000	0	33.2300	0	25.735	0	118.797	0	223.5	4	78.6	4	-1E+10	1	-1E+10	1	-1E+10	1	-1E+10	1	-1E+10	1	-1E+10	1
4901784	52	C	12/06/2016	10:43	-132.434	44.632	0	122.40	0	8.9890	0	33.2560	0	25.757	0	121.375	0	219.8	4	77.3	4	-1E+10	1	-1E+10	1	-1E+10	1	-1E+10	1	-1E+10	1	-1E+10	1
4901784	52	C	12/06/2016	10:43	-132.434	44.632	0	124.70	0	8.9790	0	33.3250	0	25.812	0	123.655	0	216.1	4	76.0	4	-1E+10	1	-1E+10	1	-1E+10	1	-1E+10	1	-1E+10	1	-1E+10	1
4901784	52	C	12/06/2016	10:43	-132.434	44.632	0	127.30	0	8.9600	0	33.3870	0	25.864	0	126.232	0	213.1	4	75.0	4	-1E+10	1	-1E+10	1	-1E+10	1	-1E+10	1	-1E+10	1	-1E+10	1
4901784	52	C	12/06/2016	10:43	-132.434	44.632	0	130.20	0	8.9510	0	33.4480	0	25.913	0	129.107	0	209.6	4	73.8	4	-1E+10	1	-1E+10	1	-1E+10	1	-1E+10	1	-1E+10	1	-1E+10	1
4901784	52	C	12/06/2016	10:43	-132.434	44.632	0	132.40	0	8.9320	0	33.4810	0	25.942	0	131.288	0	206.9	4	72.8	4	-1E+10	1	-1E+10	1	-1E+10	1	-1E+10	1	-1E+10	1	-1E+10	1
4901784	52	C	12/06/2016	10:43	-132.434	44.632	0	134.70	0	8.8950	0	33.5570	0	26.007	0	133.568	0	203.6	4	71.6	4	-1E+10	1	-1E+10	1	-1E+10	1	-1E+10	1	-1E+10	1	-1E+10	1
4901784	52	C	12/06/2016	10:43	-132.434	44.632	0	137.10	0	8.8810	0	33.6130	0	26.053	0	135.947	0	201.0	4	70.7	4	-1E+10	1	-1E+10	1	-1E+10	1	-1E+10	1	-1E+10	1	-1E+10	1
4901784	52	C	12/06/2016	10:43	-132.434	44.632	0	139.60	0	8.8690	0	33.6620	0	26.094	0	138.425	0	198.6	4	69.9	4	-1E+10	1	-1E+10	1	-1E+10	1	-1E+10	1	-1E+10	1	-1E+10	1
4901784	52	C	12/06/2016	10:43	-132.434	44.632	0	142.10	0	8.8460	0	33.7220	0	26.144	0	140.903	0	196.3	4	69.1	4	-1E+10	1	-1E+10	1	-1E+10	1	-1E+10	1	-1E+10	1	-1E+10	1
4901784	52	C	12/06/2016	10:43	-132.434	44.632	0	144.70	0	8.8280	0	33.7470	0	26.167	0	143.480	0	194.2	4	68.3	4	-1E+10	1	-1E+10	1	-1E+10	1	-1E+10	1	-1E+10	1	-1E+10	1
4901784	52	C	12/06/2016	10:43	-132.434	44.632	0	147.30	0	8.7950	0	33.7770	0	26.195	0	146.057	0	192.1	4	67.5	4	-1E+10	1	-1E+10	1	-1E+10	1	-1E+10	1	-1E+10	1	-1E+10	1
4901784	52	C	12/06/2016	10:43	-132.434	44.632	0	149.90	0	8.7610	0	33.7960	0	26.216	0	148.634	0	190.5	4	66.9	4	-1E+10	1	-1E+10	1	-1E+10	1	-1E+10	1	-1E+10	1	-1E+10	1
4901784	52	C	12/06/2016	10:43	-132.434	44.632	0	152.50	0	8.7110	0	33.8180	0	26.241	0	151.211	0	189.2	4	66.4	4	-1E+10	1	-1E+10	1	-1E+10	1	-1E+10	1	-1E+10	1	-1E+10	1
4901784	52	C	12/06/2016	10:43	-132.434	44.632	0	155.20	0	8.6430	0	33.8410	0	26.269	0	153.888	0	188.3	4	66.0	4	-1E+10	1	-1E+10	1	-1E+10	1	-1E+10	1	-1E+10	1	-1E+10	1
4901784	52	C	12/06/2016	10:43	-132.434	44.632	0	157.90	0	8.6160	0	33.8510	0	26.281	0	156.564	0	187.8	4	65.8	4	-1E+10	1	-1E+10	1	-1E+10	1	-1E+10	1	-1E+10	1	-1E+10	1
4901784	52	C	12/06/2016	10:43	-132.434	44.632	0	159.80	0	8.5780	0	33.8650	0	26.298	0	158.447	0	187.2	4	65.6	4	-1E+10	1	-1E+10	1	-1E+10	1	-1E+10	1	-1E+10	1	-1E+10	1
4901784	52	C	12/06/2016	10:43	-132.434	44.632	0	162.50	0	8.5280	0	33.8790	0	26.317	0	161.123	0	186.3	4	65.2	4	-1E+10	1	-1E+10	1	-1E+10	1	-1E+10	1	-1E+10	1	-1E+10	1
4901784	52	C	12/06/2016	10:43	-132.434	44.632	0	165.20	0	8.4880	0	33.8940	0	26.335	0	163.799	0	184.8	4	64.6	4	-1E+10	1	-1E+10	1	-1E+10	1	-1E+10	1	-1E+10	1	-1E+10	1
4901784	52	C	12/06/2016	10:43	-132.434	44.632	0	167.00	0	8.4570	0	33.8960	0	26.341	0	165.583	0	183.2	4	64.0	4	-1E+10	1	-1E+10	1	-1E+10	1	-1E+10	1	-1E+10	1	-1E+10	1
4901784	52	C	12/06/2016	10:43	-132.434	44.632	0	169.80	0	8.3770	0	33.9000	0	26.356	0	168.358	0	181.1	4	63.1	4	-1E+10	1	-1E+10	1	-1E+10	1	-1E+10	1	-1E+10	1	-1E+10	1
4901784	52	C	12/06/2016	10:43	-132.434	44.632	0	172.60	0	8.2530	0	33.9020	0	26.377	0	171.133	0	179.5	4	62.4	4	-1E+10	1	-1E+10	1	-1E+10	1	-1E+10	1	-1E+10	1	-1E+10	1
4901784	52	C	12/06/2016	10:43	-132.434	44.632	0	175.30	0	8.1750	0	33.9150	0	26.399	0	173.809	0	178.5	4	62.0	4	-1E+10	1	-1E+10	1	-1E+10	1	-1E+10	1	-1E+10	1	-1E+10	1
4901784	52	C	12/06/2016	10:43	-132.434	44.632	0	178.20	0	8.1540	0	33.9190	0	26.405	0	176.683	0	177.4	4	61.6	4	-1E+10	1	-1E+10	1	-1E+10	1	-1E+10	1	-1E+10	1	-1E+10	1
4901784	52	C	12/06/2016	10:43	-132.434	44.632	0	180.00	0	8.1050	0	33.9210	0	26.414	0	178.467	0	176.5	4	61.2	4	-1E+10	1	-1E+10	1	-1E+10	1	-1E+10	1	-1E+10	1	-1E+10	1
4901784	52	C	12/06/2016	10:43	-132.434	44.632	0	182.80	0	8.0550	0	33.9200	0	26.420	0	181.242	0	174.8	4	60.5	4	-1E+10	1	-1E+10	1	-1E+10	1	-1E+10	1	-1E+10	1	-1E+10	1
4901784	52	C	12/06/2016	10:43	-132.434	44.632	0	185.60	0	8.0450	0	33.9190	0	26.421	0	184.017	0	172.6	4	59.8	4	-1E+10	1	-1E+10	1	-1E+10	1	-1E+10	1	-1E+10	1	-1E+10	1
4901784	52	C	12/06/2016	10:43	-132.434	44.632	0	187.40	0	7.9980	0	33.9190	0	26.428	0	185.801	0	170.8	4	59.1	4	-1E+10	1	-1E+10	1	-1E+10	1	-1E+10	1	-1E+10	1	-1E+10	1
4901784	52	C	12/06/2016	10:43	-132.434	44.632	0	190.20	0	7.8480	0	33.9240	0	26.454	0	188.576	0	168.9	4	58.2	4	-1E+10	1	-1E+10	1	-1E+10	1	-1E+10	1	-1E+10	1	-1E+10	1
4901784	52	C	12/06/2016	10:43	-132.434	44.632	0	193.10	0	7.7550	0	33.9280	0	26.471	0	191.450	0	167.6	4	57.6	4	-1E+10	1	-1E+10	1	-1E+10	1	-1E+10	1	-1E+10	1	-1E+10	1
4901784	52	C	12/06/2016	10:43	-132.434	44.632	0	195.00	0	7.7410	0	33.9270	0	26.472	0	193.332	0	167.0	4	57.4	4	-1E+10	1	-1E+10	1	-1E+10	1	-1E+10	1	-1E+10	1	-1E+10	1
4901784	52	C	12/06/2016	10:43	-132.434	44.632	0	197.00	0	7.6930	0	33.9290	0	26.481	0	195.314	0	166.3	4	57.1	4	-1E+10	1	-1E+10	1	-1E+10	1	-1E+10	1	-1E+10	1	-1E+10	1
4901784	52	C	12/06/2016	10:43	-132.434	44.632	0	199.60	0	7.6400	0	33.9330	0	26.491	0	197.891	0	166.0	4	57.0	4	-1E+10	1	-1E+10	1	-1E+10	1	-1E+10	1	-1E+10	1	-1E+10	1
4901784	52	C	12/06/2016	10:43	-132.434	44.632	0	202.30	0	7.6280	0	33.9330	0	26.493	0	200.566	0	165.2	4	56.7	4	-1E+10	1	-1E+10	1	-1E+10	1	-1E+10	1	-1E+10	1	-1E+10	1
4901784	52	C	12/06/2016	10:43	-132.434	44.632	0	204.80	0	7.6080	0	33.9350	0	26.498	0	203.044	0	164.2	4	56.3	4	-1E+10	1	-1E+10	1	-1E+10	1	-1E+10	1	-1E+10	1	-1E+10	1
4901784	52	C	12/06/2016	10:43	-132.434	44.632	0	207.20	0	7.5570	0	33.9350	0	26.505	0	205.422	0	163.3	4	55.9	4	-1E+10	1	-1E+10	1	-1E+10	1	-1E+10	1	-1E+10	1	-1E+10	1
4901784	52	C	12/06/2016	10:43	-132.434	44.632	0	209.70	0	7.5130	0	33.9370	0	26.513	0	207.899	0	162.4	4	55.5	4	-1E+10	1	-1E+10	1	-1E+10	1	-1E+10	1	-1E+10	1	-1E+10	1
4901784	52	C	12/06/2016	10:43	-132.434	44.632	0	212.10	0	7.4770	0	33.9370	0	26.518	0	210.277	0	161.7	4	55.3	4	-1E+10	1	-1E+10	1	-1E+10	1	-1E+10	1	-1E+10	1	-1E+10	1
4901784	52	C	12/06/2016	10:43	-132.434	44.632	0	214.60	0	7.4700	0	33.9360	0	26.518	0	212.755	0	160.7	4	54.9	4	-1E+10	1	-1E+10	1	-1E+10	1	-1E+10	1	-1E+10	1	-1E+10	1
4901784	52	C	12/06/2016	10:43	-132.434	44.632	0	217.10	0	7.4340	0	33.9350	0	26.523	0	215.232	0	159.4	4	54.4	4	-1E+10	1	-1E+10	1	-1E+10	1	-1E+10	1	-1E+10	1	-1E+10	1
4901784	52	C	12/06/2016	10:43	-132.434	44.632	0	219.60	0	7.3850	0	33.9350	0	26.529	0	217.709	0	158.2	4	54.0	4	-1E+10	1	-1E+10	1	-1E+10	1	-1E+10	1	-1E+10	1	-1E+10	1
4901784	52	C	12/06/2016	10:43	-132.434	44.632	0	222.10	0	7.3560	0	33.9350	0	26.534	0	220.186	0	156.9	4	53.5	4	-1E+10	1	-1E+10	1	-1E+10	1	-1E+10	1	-1E+10	1	-1E+10	1
4901784	52	C	12/06/2016	10:43	-132.434	44.632	0	225.30	0	7.3080	0	33.9330	0	26.539	0	223.357	0	155.2	4	52.8	4	-1E+10	1	-1E+10	1	-1E+10	1	-1E+10	1	-1E+10	1	-1E+10	1
4901784	52	C	12/06/2016	10:43	-132.434	44.632	0	227.80	0	7.2290	0	33.9350	0	26.551	0	225.834	0	154.0	4	52.3	4	-1E+10	1	-1E+10	1	-1E+10	1	-1E+10	1	-1E+10	1	-1E+10	1
4901784	52	C	12/06/2016	10:43	-132.434	44.632	0	230.30	0	7.1830	0	33.9360	0	26.559	0	228.311	0	152.8	4	51.9	4	-1E+10	1	-1E+10	1	-1E+10	1	-1E+10	1	-1E+10	1	-1E+10	1
4901784	52	C	12/06/2016	10:43	-132.434	44.632	0	232.80	0	7.1530	0	33.9350	0	26.562	0	230.788	0	151.7	4	51.5	4	-1E+10	1	-1E+10	1	-1E+10	1	-1E+10	1	-1E+10	1	-1E+10	1
4901784	52	C	12/06/2016	10:43	-132.434	44.632	0	235.40	0	7.0830	0	33.9370	0	26.573	0	233.364	0	150.4	4	51.0	4	-1E+10	1	-1E+10	1	-1E+10	1	-1E+10	1	-1E+10	1	-1E+10	1
4901784	52	C	12/06/2016	10:43	-132.434	44.632	0	237.90	0	7.0500	0	33.9360	0	26.577	0	235.841	0	149.6	4	50.7	4	-1E+10	1	-1E+10	1	-1E+10	1	-1E+10	1	-1E+10	1	-1E+10	1
4901784	52	C	12/06/2016	10:43	-132.434	44.632	0	239.60	0	7.0320	0	33.9350	0	26.579	0	237.525	0	148.9	4	50.4	4	-1E+10	1	-1E+10	1	-1E+10	1	-1E+10	1	-1E+10	1	-1E+10	1
4901784	52	C	12/06/2016	10:43	-132.434	44.632	0	242.20	0	6.9880	0	33.9370	0	26.586	0	240.101	0	147.9	4	50.0	4	-1E+10	1	-1E+10	1	-1E+10	1	-1E+10	1	-1E+10	1	-1E+10	1
4901784	52	C	12/06/2016	10:43	-132.434	44.632	0	244.70	0	6.9580	0	33.9370	0	26.590	0	242.578	0	146.8	4	49.6	4	-1E+10	1	-1E+10	1	-1E+10	1	-1E+10	1	-1E+10	1	-1E+10	1
4901784	52	C	12/06/2016	10:43	-132.434	44.632	0	247.30	0	6.9320	0	33.9360	0	26.593	0	245.154	0	145.3	4	49.1	4	-1E+10	1	-1E+10	1	-1E+10	1	-1E+10	1	-1E+10	1	-1E+10	1
4901784	52	C	12/06/2016	10:43	-132.434	44.632	0	250.00	0	6.8890	0	33.9360	0	26.599	0	247.829	0	143.8	4	48.5	4	-1E+10	1	-1E+10	1	-1E+10	1	-1E+10	1	-1E+10	1	-1E+10	1
4901784	52	C	12/06/2016	10:43	-132.434	44.632	0	252.60	0	6.8280	0	33.9370	0	26.608	0	250.405	0	142.2	4	47.9	4	-1E+10	1	-1E+10	1	-1E+10	1	-1E+10	1	-1E+10	1	-1E+10	1
4901784	52	C	12/06/2016	10:43	-132.434	44.632	0	255.20	0	6.7750	0	33.9380	0	26.616	0	252.981	0	140.7	4	47.3	4	-1E+10	1	-1E+10	1	-1E+10	1	-1E+10	1	-1E+10	1	-1E+10	1
4901784	52	C	12/06/2016	10:43	-132.434	44.632	0	257.80	0	6.7550	0	33.9380	0	26.619	0	255.557	0	139.3	4	46.8	4	-1E+10	1	-1E+10	1	-1E+10	1	-1E+10	1	-1E+10	1	-1E+10	1
4901784	52	C	12/06/2016	10:43	-132.434	44.632	0	260.50	0	6.7350	0	33.9380	0	26.621	0	258.231	0	137.7	4	46.3	4	-1E+10	1	-1E+10	1	-1E+10	1	-1E+10	1	-1E+10	1	-1E+10	1
4901784	52	C	12/06/2016	10:43	-132.434	44.632	0	262.30	0	6.7120	0	33.9390	0	26.625	0	260.015	0	136.5	4	45.9	4	-1E+10	1	-1E+10	1	-1E+10	1	-1E+10	1	-1E+10	1	-1E+10	1
4901784	52	C	12/06/2016	10:43	-132.434	44.632	0	264.90	0	6.6680	0	33.9370	0	26.630	0	262.590	0	134.6	4	45.2	4	-1E+10	1	-1E+10	1	-1E+10	1	-1E+10	1	-1E+10	1	-1E+10	1
4901784	52	C	12/06/2016	10:43	-132.434	44.632	0	267.70	0	6.5850	0	33.9390	0	26.642	0	265.364	0	132.9	4	44.5	4	-1E+10	1	-1E+10	1	-1E+10	1	-1E+10	1	-1E+10	1	-1E+10	1
4901784	52	C	12/06/2016	10:43	-132.434	44.632	0	269.40	0	6.5530	0	33.9400	0	26.647	0	267.048	0	131.9	4	44.2	4	-1E+10	1	-1E+10	1	-1E+10	1	-1E+10	1	-1E+10	1	-1E+10	1
4901784	52	C	12/06/2016	10:43	-132.434	44.632	0	272.20	0	6.5160	0	33.9400	0	26.652	0	269.822	0	130.5	4	43.7	4	-1E+10	1	-1E+10	1	-1E+10	1	-1E+10	1	-1E+10	1	-1E+10	1
4901784	52	C	12/06/2016	10:43	-132.434	44.632	0	274.90	0	6.4840	0	33.9410	0	26.657	0	272.496	0	129.0	4	43.1	4	-1E+10	1	-1E+10	1	-1E+10	1	-1E+10	1	-1E+10	1	-1E+10	1
4901784	52	C	12/06/2016	10:43	-132.434	44.632	0	277.60	0	6.4510	0	33.9390	0	26.660	0	275.171	0	127.3	4	42.5	4	-1E+10	1	-1E+10	1	-1E+10	1	-1E+10	1	-1E+10	1	-1E+10	1
4901784	52	C	12/06/2016	10:43	-132.434	44.632	0	280.40	0	6.4000	0	33.9390	0	26.666	0	277.945	0	125.2	4	41.8	4	-1E+10	1	-1E+10	1	-1E+10	1	-1E+10	1	-1E+10	1	-1E+10	1
4901784	52	C	12/06/2016	10:43	-132.434	44.632	0	282.20	0	6.3390	0	33.9410	0	26.676	0	279.728	0	124.1	4	41.3	4	-1E+10	1	-1E+10	1	-1E+10	1	-1E+10	1	-1E+10	1	-1E+10	1
4901784	52	C	12/06/2016	10:43	-132.434	44.632	0	285.00	0	6.2760	0	33.9430	0	26.686	0	282.501	0	122.7	4	40.8	4	-1E+10	1	-1E+10	1	-1E+10	1	-1E+10	1	-1E+10	1	-1E+10	1
4901784	52	C	12/06/2016	10:43	-132.434	44.632	0	287.70	0	6.2420	0	33.9410	0	26.688	0	285.176	0	121.7	4	40.5	4	-1E+10	1	-1E+10	1	-1E+10	1	-1E+10	1	-1E+10	1	-1E+10	1
4901784	52	C	12/06/2016	10:43	-132.434	44.632	0	289.50	0	6.2280	0	33.9420	0	26.691	0	286.959	0	121.0	4	40.2	4	-1E+10	1	-1E+10	1	-1E+10	1	-1E+10	1	-1E+10	1	-1E+10	1
4901784	52	C	12/06/2016	10:43	-132.434	44.632	0	292.20	0	6.2040	0	33.9420	0	26.694	0	289.633	0	119.7	4	39.8	4	-1E+10	1	-1E+10	1	-1E+10	1	-1E+10	1	-1E+10	1	-1E+10	1
4901784	52	C	12/06/2016	10:43	-132.434	44.632	0	294.80	0	6.1790	0	33.9420	0	26.697	0	292.208	0	118.4	4	39.3	4	-1E+10	1	-1E+10	1	-1E+10	1	-1E+10	1	-1E+10	1	-1E+10	1
4901784	52	C	12/06/2016	10:43	-132.434	44.632	0	297.50	0	6.1400	0	33.9420	0	26.702	0	294.883	0	116.7	4	38.7	4	-1E+10	1	-1E+10	1	-1E+10	1	-1E+10	1	-1E+10	1	-1E+10	1
4901784	52	C	12/06/2016	10:43	-132.434	44.632	0	300.20	0	6.1100	0	33.9420	0	26.706	0	297.557	0	115.0	4	38.1	4	-1E+10	1	-1E+10	1	-1E+10	1	-1E+10	1	-1E+10	1	-1E+10	1
4901784	52	C	12/06/2016	10:43	-132.434	44.632	0	302.10	0	6.0930	0	33.9420	0	26.708	0	299.439	0	113.7	4	37.7	4	-1E+10	1	-1E+10	1	-1E+10	1	-1E+10	1	-1E+10	1	-1E+10	1
4901784	52	C	12/06/2016	10:43	-132.434	44.632	0	304.90	0	6.0600	0	33.9440	0	26.714	0	302.212	0	111.5	4	36.9	4	-1E+10	1	-1E+10	1	-1E+10	1	-1E+10	1	-1E+10	1	-1E+10	1
4901784	52	C	12/06/2016	10:43	-132.434	44.632	0	307.70	0	6.0030	0	33.9460	0	26.723	0	304.986	0	109.5	4	36.2	4	-1E+10	1	-1E+10	1	-1E+10	1	-1E+10	1	-1E+10	1	-1E+10	1
4901784	52	C	12/06/2016	10:43	-132.434	44.632	0	309.60	0	5.9730	0	33.9490	0	26.729	0	306.867	0	108.4	4	35.8	4	-1E+10	1	-1E+10	1	-1E+10	1	-1E+10	1	-1E+10	1	-1E+10	1
4901784	52	C	12/06/2016	10:43	-132.434	44.632	0	312.40	0	5.9540	0	33.9500	0	26.732	0	309.641	0	107.1	4	35.3	4	-1E+10	1	-1E+10	1	-1E+10	1	-1E+10	1	-1E+10	1	-1E+10	1
4901784	52	C	12/06/2016	10:43	-132.434	44.632	0	315.20	0	5.9230	0	33.9520	0	26.738	0	312.414	0	105.8	4	34.9	4	-1E+10	1	-1E+10	1	-1E+10	1	-1E+10	1	-1E+10	1	-1E+10	1
4901784	52	C	12/06/2016	10:43	-132.434	44.632	0	317.00	0	5.8900	0	33.9530	0	26.743	0	314.196	0	105.1	4	34.6	4	-1E+10	1	-1E+10	1	-1E+10	1	-1E+10	1	-1E+10	1	-1E+10	1
4901784	52	C	12/06/2016	10:43	-132.434	44.632	0	319.80	0	5.8640	0	33.9530	0	26.746	0	316.970	0	104.3	4	34.4	4	-1E+10	1	-1E+10	1	-1E+10	1	-1E+10	1	-1E+10	1	-1E+10	1
4901784	52	C	12/06/2016	10:43	-132.434	44.632	0	322.70	0	5.8450	0	33.9540	0	26.749	0	319.842	0	103.8	4	34.2	4	-1E+10	1	-1E+10	1	-1E+10	1	-1E+10	1	-1E+10	1	-1E+10	1
4901784	52	C	12/06/2016	10:43	-132.434	44.632	0	324.60	0	5.8400	0	33.9540	0	26.750	0	321.723	0	103.4	4	34.1	4	-1E+10	1	-1E+10	1	-1E+10	1	-1E+10	1	-1E+10	1	-1E+10	1
4901784	52	C	12/06/2016	10:43	-132.434	44.632	0	327.50	0	5.8360	0	33.9540	0	26.750	0	324.595	0	102.8	4	33.9	4	-1E+10	1	-1E+10	1	-1E+10	1	-1E+10	1	-1E+10	1	-1E+10	1
4901784	52	C	12/06/2016	10:43	-132.434	44.632	0	330.40	0	5.8330	0	33.9540	0	26.751	0	327.467	0	102.1	4	33.6	4	-1E+10	1	-1E+10	1	-1E+10	1	-1E+10	1	-1E+10	1	-1E+10	1
4901784	52	C	12/06/2016	10:43	-132.434	44.632	0	332.30	0	5.8230	0	33.9530	0	26.751	0	329.349	0	101.4	4	33.4	4	-1E+10	1	-1E+10	1	-1E+10	1	-1E+10	1	-1E+10	1	-1E+10	1
4901784	52	C	12/06/2016	10:43	-132.434	44.632	0	335.20	0	5.8010	0	33.9540	0	26.755	0	332.221	0	100.1	4	32.9	4	-1E+10	1	-1E+10	1	-1E+10	1	-1E+10	1	-1E+10	1	-1E+10	1
4901784	52	C	12/06/2016	10:43	-132.434	44.632	0	338.10	0	5.7790	0	33.9540	0	26.757	0	335.093	0	99.0	4	32.6	4	-1E+10	1	-1E+10	1	-1E+10	1	-1E+10	1	-1E+10	1	-1E+10	1
4901784	52	C	12/06/2016	10:43	-132.434	44.632	0	340.00	0	5.7650	0	33.9530	0	26.758	0	336.974	0	98.2	4	32.3	4	-1E+10	1	-1E+10	1	-1E+10	1	-1E+10	1	-1E+10	1	-1E+10	1
4901784	52	C	12/06/2016	10:43	-132.434	44.632	0	342.80	0	5.7160	0	33.9560	0	26.767	0	339.747	0	96.8	4	31.8	4	-1E+10	1	-1E+10	1	-1E+10	1	-1E+10	1	-1E+10	1	-1E+10	1
4901784	52	C	12/06/2016	10:43	-132.434	44.632	0	345.60	0	5.6760	0	33.9570	0	26.772	0	342.520	0	96.1	4	31.5	4	-1E+10	1	-1E+10	1	-1E+10	1	-1E+10	1	-1E+10	1	-1E+10	1
4901784	52	C	12/06/2016	10:43	-132.434	44.632	0	347.50	0	5.6680	0	33.9570	0	26.773	0	344.401	0	95.4	4	31.3	4	-1E+10	1	-1E+10	1	-1E+10	1	-1E+10	1	-1E+10	1	-1E+10	1
4901784	52	C	12/06/2016	10:43	-132.434	44.632	0	349.50	0	5.6610	0	33.9570	0	26.774	0	346.382	0	94.6	4	31.0	4	-1E+10	1	-1E+10	1	-1E+10	1	-1E+10	1	-1E+10	1	-1E+10	1
4901784	52	C	12/06/2016	10:43	-132.434	44.632	0	352.40	0	5.6250	0	33.9600	0	26.781	0	349.254	0	93.3	4	30.6	4	-1E+10	1	-1E+10	1	-1E+10	1	-1E+10	1	-1E+10	1	-1E+10	1
4901784	52	C	12/06/2016	10:43	-132.434	44.632	0	355.20	0	5.6060	0	33.9600	0	26.783	0	352.026	0	92.5	4	30.3	4	-1E+10	1	-1E+10	1	-1E+10	1	-1E+10	1	-1E+10	1	-1E+10	1
4901784	52	C	12/06/2016	10:43	-132.434	44.632	0	357.20	0	5.6010	0	33.9610	0	26.785	0	354.007	0	91.8	4	30.1	4	-1E+10	1	-1E+10	1	-1E+10	1	-1E+10	1	-1E+10	1	-1E+10	1
4901784	52	C	12/06/2016	10:43	-132.434	44.632	0	360.00	0	5.5750	0	33.9620	0	26.789	0	356.779	0	90.6	4	29.6	4	-1E+10	1	-1E+10	1	-1E+10	1	-1E+10	1	-1E+10	1	-1E+10	1
4901784	52	C	12/06/2016	10:43	-132.434	44.632	0	362.90	0	5.5500	0	33.9630	0	26.792	0	359.651	0	89.6	4	29.3	4	-1E+10	1	-1E+10	1	-1E+10	1	-1E+10	1	-1E+10	1	-1E+10	1
4901784	52	C	12/06/2016	10:43	-132.434	44.632	0	364.80	0	5.5420	0	33.9650	0	26.795	0	361.532	0	88.9	4	29.1	4	-1E+10	1	-1E+10	1	-1E+10	1	-1E+10	1	-1E+10	1	-1E+10	1
4901784	52	C	12/06/2016	10:43	-132.434	44.632	0	367.70	0	5.5250	0	33.9660	0	26.798	0	364.403	0	88.0	4	28.8	4	-1E+10	1	-1E+10	1	-1E+10	1	-1E+10	1	-1E+10	1	-1E+10	1
4901784	52	C	12/06/2016	10:43	-132.434	44.632	0	370.50	0	5.5060	0	33.9670	0	26.801	0	367.176	0	87.0	4	28.4	4	-1E+10	1	-1E+10	1	-1E+10	1	-1E+10	1	-1E+10	1	-1E+10	1
4901784	52	C	12/06/2016	10:43	-132.434	44.632	0	372.90	0	5.4830	0	33.9680	0	26.804	0	369.552	0	86.2	4	28.2	4	-1E+10	1	-1E+10	1	-1E+10	1	-1E+10	1	-1E+10	1	-1E+10	1
4901784	52	C	12/06/2016	10:43	-132.434	44.632	0	374.80	0	5.4720	0	33.9680	0	26.806	0	371.433	0	85.5	4	27.9	4	-1E+10	1	-1E+10	1	-1E+10	1	-1E+10	1	-1E+10	1	-1E+10	1
4901784	52	C	12/06/2016	10:43	-132.434	44.632	0	377.20	0	5.4500	0	33.9680	0	26.808	0	373.810	0	84.3	4	27.5	4	-1E+10	1	-1E+10	1	-1E+10	1	-1E+10	1	-1E+10	1	-1E+10	1
4901784	52	C	12/06/2016	10:43	-132.434	44.632	0	379.70	0	5.4120	0	33.9710	0	26.815	0	376.285	0	82.9	4	27.0	4	-1E+10	1	-1E+10	1	-1E+10	1	-1E+10	1	-1E+10	1	-1E+10	1
4901784	52	C	12/06/2016	10:43	-132.434	44.632	0	382.10	0	5.3720	0	33.9740	0	26.822	0	378.661	0	82.0	4	26.7	4	-1E+10	1	-1E+10	1	-1E+10	1	-1E+10	1	-1E+10	1	-1E+10	1
4901784	52	C	12/06/2016	10:43	-132.434	44.632	0	385.30	0	5.3490	0	33.9750	0	26.826	0	381.829	0	81.0	4	26.4	4	-1E+10	1	-1E+10	1	-1E+10	1	-1E+10	1	-1E+10	1	-1E+10	1
4901784	52	C	12/06/2016	10:43	-132.434	44.632	0	387.70	0	5.3390	0	33.9750	0	26.827	0	384.206	0	80.1	4	26.1	4	-1E+10	1	-1E+10	1	-1E+10	1	-1E+10	1	-1E+10	1	-1E+10	1
4901784	52	C	12/06/2016	10:43	-132.434	44.632	0	390.20	0	5.3120	0	33.9760	0	26.831	0	386.681	0	79.0	4	25.7	4	-1E+10	1	-1E+10	1	-1E+10	1	-1E+10	1	-1E+10	1	-1E+10	1
4901784	52	C	12/06/2016	10:43	-132.434	44.632	0	392.60	0	5.2790	0	33.9770	0	26.836	0	389.057	0	78.0	4	25.4	4	-1E+10	1	-1E+10	1	-1E+10	1	-1E+10	1	-1E+10	1	-1E+10	1
4901784	52	C	12/06/2016	10:43	-132.434	44.632	0	395.00	0	5.2560	0	33.9790	0	26.840	0	391.433	0	76.8	4	24.9	4	-1E+10	1	-1E+10	1	-1E+10	1	-1E+10	1	-1E+10	1	-1E+10	1
4901784	52	C	12/06/2016	10:43	-132.434	44.632	0	397.50	0	5.2280	0	33.9830	0	26.846	0	393.908	0	75.9	4	24.6	4	-1E+10	1	-1E+10	1	-1E+10	1	-1E+10	1	-1E+10	1	-1E+10	1
4901784	52	C	12/06/2016	10:43	-132.434	44.632	0	400.00	0	5.2230	0	33.9830	0	26.847	0	396.383	0	75.1	4	24.4	4	-1E+10	1	-1E+10	1	-1E+10	1	-1E+10	1	-1E+10	1	-1E+10	1
4901784	52	C	12/06/2016	10:43	-132.434	44.632	0	402.40	0	5.2170	0	33.9830	0	26.848	0	398.759	0	74.0	4	24.0	4	-1E+10	1	-1E+10	1	-1E+10	1	-1E+10	1	-1E+10	1	-1E+10	1
4901784	52	C	12/06/2016	10:43	-132.434	44.632	0	404.90	0	5.2210	0	33.9870	0	26.851	0	401.234	0	72.3	4	23.5	4	-1E+10	1	-1E+10	1	-1E+10	1	-1E+10	1	-1E+10	1	-1E+10	1
4901784	52	C	12/06/2016	10:43	-132.434	44.632	0	407.40	0	5.2280	0	33.9950	0	26.856	0	403.709	0	70.6	4	22.9	4	-1E+10	1	-1E+10	1	-1E+10	1	-1E+10	1	-1E+10	1	-1E+10	1
4901784	52	C	12/06/2016	10:43	-132.434	44.632	0	409.80	0	5.2120	0	33.9980	0	26.860	0	406.085	0	69.6	4	22.6	4	-1E+10	1	-1E+10	1	-1E+10	1	-1E+10	1	-1E+10	1	-1E+10	1
4901784	52	C	12/06/2016	10:43	-132.434	44.632	0	412.30	0	5.1910	0	34.0000	0	26.864	0	408.560	0	68.8	4	22.3	4	-1E+10	1	-1E+10	1	-1E+10	1	-1E+10	1	-1E+10	1	-1E+10	1
4901784	52	C	12/06/2016	10:43	-132.434	44.632	0	414.80	0	5.1680	0	33.9980	0	26.865	0	411.035	0	67.9	4	22.0	4	-1E+10	1	-1E+10	1	-1E+10	1	-1E+10	1	-1E+10	1	-1E+10	1
4901784	52	C	12/06/2016	10:43	-132.434	44.632	0	417.30	0	5.1350	0	33.9990	0	26.870	0	413.509	0	66.5	4	21.6	4	-1E+10	1	-1E+10	1	-1E+10	1	-1E+10	1	-1E+10	1	-1E+10	1
4901784	52	C	12/06/2016	10:43	-132.434	44.632	0	419.90	0	5.1140	0	34.0050	0	26.877	0	416.083	0	65.5	4	21.2	4	-1E+10	1	-1E+10	1	-1E+10	1	-1E+10	1	-1E+10	1	-1E+10	1
4901784	52	C	12/06/2016	10:43	-132.434	44.632	0	422.40	0	5.1020	0	34.0070	0	26.880	0	418.558	0	64.8	4	21.0	4	-1E+10	1	-1E+10	1	-1E+10	1	-1E+10	1	-1E+10	1	-1E+10	1
4901784	52	C	12/06/2016	10:43	-132.434	44.632	0	425.00	0	5.0960	0	34.0080	0	26.882	0	421.132	0	64.0	4	20.7	4	-1E+10	1	-1E+10	1	-1E+10	1	-1E+10	1	-1E+10	1	-1E+10	1
4901784	52	C	12/06/2016	10:43	-132.434	44.632	0	427.50	0	5.0910	0	34.0100	0	26.884	0	423.606	0	63.4	4	20.5	4	-1E+10	1	-1E+10	1	-1E+10	1	-1E+10	1	-1E+10	1	-1E+10	1
4901784	52	C	12/06/2016	10:43	-132.434	44.632	0	430.10	0	5.0660	0	34.0120	0	26.888	0	426.180	0	62.7	4	20.3	4	-1E+10	1	-1E+10	1	-1E+10	1	-1E+10	1	-1E+10	1	-1E+10	1
4901784	52	C	12/06/2016	10:43	-132.434	44.632	0	432.70	0	5.0620	0	34.0170	0	26.893	0	428.754	0	61.4	4	19.9	4	-1E+10	1	-1E+10	1	-1E+10	1	-1E+10	1	-1E+10	1	-1E+10	1
4901784	52	C	12/06/2016	10:43	-132.434	44.632	0	435.40	0	5.0470	0	34.0190	0	26.896	0	431.426	0	60.9	4	19.7	4	-1E+10	1	-1E+10	1	-1E+10	1	-1E+10	1	-1E+10	1	-1E+10	1
4901784	52	C	12/06/2016	10:43	-132.434	44.632	0	438.00	0	5.0230	0	34.0190	0	26.899	0	434.000	0	60.2	4	19.5	4	-1E+10	1	-1E+10	1	-1E+10	1	-1E+10	1	-1E+10	1	-1E+10	1
4901784	52	C	12/06/2016	10:43	-132.434	44.632	0	439.70	0	5.0150	0	34.0210	0	26.901	0	435.682	0	59.6	4	19.3	4	-1E+10	1	-1E+10	1	-1E+10	1	-1E+10	1	-1E+10	1	-1E+10	1
4901784	52	C	12/06/2016	10:43	-132.434	44.632	0	442.30	0	4.9820	0	34.0230	0	26.907	0	438.256	0	58.8	4	19.0	4	-1E+10	1	-1E+10	1	-1E+10	1	-1E+10	1	-1E+10	1	-1E+10	1
4901784	52	C	12/06/2016	10:43	-132.434	44.632	0	445.00	0	4.9730	0	34.0250	0	26.909	0	440.928	0	57.6	4	18.6	4	-1E+10	1	-1E+10	1	-1E+10	1	-1E+10	1	-1E+10	1	-1E+10	1
4901784	52	C	12/06/2016	10:43	-132.434	44.632	0	447.60	0	4.9540	0	34.0290	0	26.915	0	443.502	0	56.0	4	18.1	4	-1E+10	1	-1E+10	1	-1E+10	1	-1E+10	1	-1E+10	1	-1E+10	1
4901784	52	C	12/06/2016	10:43	-132.434	44.632	0	450.30	0	4.9760	0	34.0360	0	26.918	0	446.174	0	53.7	4	17.4	4	-1E+10	1	-1E+10	1	-1E+10	1	-1E+10	1	-1E+10	1	-1E+10	1
4901784	52	C	12/06/2016	10:43	-132.434	44.632	0	452.10	0	5.0020	0	34.0420	0	26.920	0	447.956	0	53.1	4	17.2	4	-1E+10	1	-1E+10	1	-1E+10	1	-1E+10	1	-1E+10	1	-1E+10	1
4901784	52	C	12/06/2016	10:43	-132.434	44.632	0	454.70	0	4.9880	0	34.0430	0	26.922	0	450.529	0	52.9	4	17.1	4	-1E+10	1	-1E+10	1	-1E+10	1	-1E+10	1	-1E+10	1	-1E+10	1
4901784	52	C	12/06/2016	10:43	-132.434	44.632	0	457.40	0	4.9780	0	34.0430	0	26.923	0	453.201	0	52.3	4	16.9	4	-1E+10	1	-1E+10	1	-1E+10	1	-1E+10	1	-1E+10	1	-1E+10	1
4901784	52	C	12/06/2016	10:43	-132.434	44.632	0	460.10	0	4.9680	0	34.0460	0	26.927	0	455.874	0	51.8	4	16.7	4	-1E+10	1	-1E+10	1	-1E+10	1	-1E+10	1	-1E+10	1	-1E+10	1
4901784	52	C	12/06/2016	10:43	-132.434	44.632	0	462.70	0	4.9600	0	34.0460	0	26.928	0	458.447	0	51.3	4	16.6	4	-1E+10	1	-1E+10	1	-1E+10	1	-1E+10	1	-1E+10	1	-1E+10	1
4901784	52	C	12/06/2016	10:43	-132.434	44.632	0	464.50	0	4.9570	0	34.0470	0	26.929	0	460.228	0	50.9	4	16.4	4	-1E+10	1	-1E+10	1	-1E+10	1	-1E+10	1	-1E+10	1	-1E+10	1
4901784	52	C	12/06/2016	10:43	-132.434	44.632	0	467.30	0	4.9550	0	34.0500	0	26.931	0	462.999	0	50.1	4	16.2	4	-1E+10	1	-1E+10	1	-1E+10	1	-1E+10	1	-1E+10	1	-1E+10	1
4901784	52	C	12/06/2016	10:43	-132.434	44.632	0	470.00	0	4.9450	0	34.0510	0	26.933	0	465.672	0	49.4	4	15.9	4	-1E+10	1	-1E+10	1	-1E+10	1	-1E+10	1	-1E+10	1	-1E+10	1
4901784	52	C	12/06/2016	10:43	-132.434	44.632	0	472.70	0	4.9400	0	34.0530	0	26.936	0	468.344	0	48.7	4	15.7	4	-1E+10	1	-1E+10	1	-1E+10	1	-1E+10	1	-1E+10	1	-1E+10	1
4901784	52	C	12/06/2016	10:43	-132.434	44.632	0	475.50	0	4.9380	0	34.0550	0	26.937	0	471.115	0	48.0	4	15.5	4	-1E+10	1	-1E+10	1	-1E+10	1	-1E+10	1	-1E+10	1	-1E+10	1
4901784	52	C	12/06/2016	10:43	-132.434	44.632	0	477.20	0	4.9150	0	34.0600	0	26.944	0	472.797	0	47.8	4	15.4	4	-1E+10	1	-1E+10	1	-1E+10	1	-1E+10	1	-1E+10	1	-1E+10	1
4901784	52	C	12/06/2016	10:43	-132.434	44.632	0	479.90	0	4.8940	0	34.0590	0	26.946	0	475.469	0	47.7	4	15.4	4	-1E+10	1	-1E+10	1	-1E+10	1	-1E+10	1	-1E+10	1	-1E+10	1
4901784	52	C	12/06/2016	10:43	-132.434	44.632	0	482.70	0	4.8800	0	34.0580	0	26.946	0	478.240	0	47.3	4	15.2	4	-1E+10	1	-1E+10	1	-1E+10	1	-1E+10	1	-1E+10	1	-1E+10	1
4901784	52	C	12/06/2016	10:43	-132.434	44.632	0	484.50	0	4.8750	0	34.0600	0	26.949	0	480.021	0	46.9	4	15.1	4	-1E+10	1	-1E+10	1	-1E+10	1	-1E+10	1	-1E+10	1	-1E+10	1
4901784	52	C	12/06/2016	10:43	-132.434	44.632	0	487.30	0	4.8720	0	34.0620	0	26.951	0	482.792	0	46.4	4	14.9	4	-1E+10	1	-1E+10	1	-1E+10	1	-1E+10	1	-1E+10	1	-1E+10	1
4901784	52	C	12/06/2016	10:43	-132.434	44.632	0	489.90	0	4.8580	0	34.0630	0	26.953	0	485.365	0	46.0	4	14.8	4	-1E+10	1	-1E+10	1	-1E+10	1	-1E+10	1	-1E+10	1	-1E+10	1
4901784	52	C	12/06/2016	10:43	-132.434	44.632	0	492.70	0	4.8460	0	34.0640	0	26.955	0	488.136	0	45.7	4	14.7	4	-1E+10	1	-1E+10	1	-1E+10	1	-1E+10	1	-1E+10	1	-1E+10	1
4901784	52	C	12/06/2016	10:43	-132.434	44.632	0	495.50	0	4.8310	0	34.0650	0	26.958	0	490.907	0	45.4	4	14.6	4	-1E+10	1	-1E+10	1	-1E+10	1	-1E+10	1	-1E+10	1	-1E+10	1
4901784	52	C	12/06/2016	10:43	-132.434	44.632	0	497.30	0	4.8260	0	34.0650	0	26.958	0	492.688	0	45.1	4	14.5	4	-1E+10	1	-1E+10	1	-1E+10	1	-1E+10	1	-1E+10	1	-1E+10	1
4901784	52	C	12/06/2016	10:43	-132.434	44.632	0	500.10	0	4.8050	0	34.0660	0	26.961	0	495.459	0	44.8	4	14.4	4	-1E+10	1	-1E+10	1	-1E+10	1	-1E+10	1	-1E+10	1	-1E+10	1
4901784	52	C	12/06/2016	10:43	-132.434	44.632	0	504.70	0	4.7700	0	34.0680	0	26.967	0	500.010	0	44.1	4	14.2	4	-1E+10	1	-1E+10	1	-1E+10	1	-1E+10	1	-1E+10	1	-1E+10	1
4901784	52	C	12/06/2016	10:43	-132.434	44.632	0	510.30	0	4.7120	0	34.0700	0	26.975	0	505.551	0	42.7	4	13.7	4	-1E+10	1	-1E+10	1	-1E+10	1	-1E+10	1	-1E+10	1	-1E+10	1
4901784	52	C	12/06/2016	10:43	-132.434	44.632	0	515.00	0	4.6860	0	34.0760	0	26.982	0	510.202	0	41.1	4	13.2	4	-1E+10	1	-1E+10	1	-1E+10	1	-1E+10	1	-1E+10	1	-1E+10	1
4901784	52	C	12/06/2016	10:43	-132.434	44.632	0	519.70	0	4.6620	0	34.0820	0	26.990	0	514.852	0	39.7	4	12.7	4	-1E+10	1	-1E+10	1	-1E+10	1	-1E+10	1	-1E+10	1	-1E+10	1
4901784	52	C	12/06/2016	10:43	-132.434	44.632	0	525.50	0	4.6350	0	34.0870	0	26.997	0	520.591	0	38.4	4	12.3	4	-1E+10	1	-1E+10	1	-1E+10	1	-1E+10	1	-1E+10	1	-1E+10	1
4901784	52	C	12/06/2016	10:43	-132.434	44.632	0	530.30	0	4.6120	0	34.0910	0	27.003	0	525.340	0	37.5	4	12.0	4	-1E+10	1	-1E+10	1	-1E+10	1	-1E+10	1	-1E+10	1	-1E+10	1
4901784	52	C	12/06/2016	10:43	-132.434	44.632	0	535.10	0	4.5870	0	34.0950	0	27.009	0	530.089	0	36.5	4	11.7	4	-1E+10	1	-1E+10	1	-1E+10	1	-1E+10	1	-1E+10	1	-1E+10	1
4901784	52	C	12/06/2016	10:43	-132.434	44.632	0	540.00	0	4.5590	0	34.1000	0	27.016	0	534.937	0	35.6	4	11.4	4	-1E+10	1	-1E+10	1	-1E+10	1	-1E+10	1	-1E+10	1	-1E+10	1
4901784	52	C	12/06/2016	10:43	-132.434	44.632	0	544.90	0	4.5480	0	34.1030	0	27.019	0	539.785	0	34.7	4	11.1	4	-1E+10	1	-1E+10	1	-1E+10	1	-1E+10	1	-1E+10	1	-1E+10	1
4901784	52	C	12/06/2016	10:43	-132.434	44.632	0	550.50	0	4.5200	0	34.1080	0	27.026	0	545.325	0	33.1	4	10.6	4	-1E+10	1	-1E+10	1	-1E+10	1	-1E+10	1	-1E+10	1	-1E+10	1
4901784	52	C	12/06/2016	10:43	-132.434	44.632	0	555.50	0	4.4950	0	34.1160	0	27.035	0	550.271	0	31.8	4	10.1	4	-1E+10	1	-1E+10	1	-1E+10	1	-1E+10	1	-1E+10	1	-1E+10	1
4901784	52	C	12/06/2016	10:43	-132.434	44.632	0	560.50	0	4.4770	0	34.1220	0	27.042	0	555.217	0	30.9	4	9.9	4	-1E+10	1	-1E+10	1	-1E+10	1	-1E+10	1	-1E+10	1	-1E+10	1
4901784	52	C	12/06/2016	10:43	-132.434	44.632	0	565.60	0	4.4650	0	34.1260	0	27.047	0	560.262	0	30.1	4	9.6	4	-1E+10	1	-1E+10	1	-1E+10	1	-1E+10	1	-1E+10	1	-1E+10	1
4901784	52	C	12/06/2016	10:43	-132.434	44.632	0	570.70	0	4.4430	0	34.1300	0	27.052	0	565.307	0	29.1	4	9.3	4	-1E+10	1	-1E+10	1	-1E+10	1	-1E+10	1	-1E+10	1	-1E+10	1
4901784	52	C	12/06/2016	10:43	-132.434	44.632	0	575.00	0	4.4270	0	34.1350	0	27.058	0	569.561	0	28.2	4	9.0	4	-1E+10	1	-1E+10	1	-1E+10	1	-1E+10	1	-1E+10	1	-1E+10	1
4901784	52	C	12/06/2016	10:43	-132.434	44.632	0	579.20	0	4.4210	0	34.1390	0	27.062	0	573.715	0	27.2	4	8.7	4	-1E+10	1	-1E+10	1	-1E+10	1	-1E+10	1	-1E+10	1	-1E+10	1
4901784	52	C	12/06/2016	10:43	-132.434	44.632	0	584.40	0	4.4100	0	34.1460	0	27.069	0	578.859	0	26.1	4	8.3	4	-1E+10	1	-1E+10	1	-1E+10	1	-1E+10	1	-1E+10	1	-1E+10	1
4901784	52	C	12/06/2016	10:43	-132.434	44.632	0	589.60	0	4.3960	0	34.1520	0	27.075	0	584.002	0	25.2	4	8.0	4	-1E+10	1	-1E+10	1	-1E+10	1	-1E+10	1	-1E+10	1	-1E+10	1
4901784	52	C	12/06/2016	10:43	-132.434	44.632	0	594.80	0	4.3830	0	34.1570	0	27.080	0	589.145	0	24.5	4	7.8	4	-1E+10	1	-1E+10	1	-1E+10	1	-1E+10	1	-1E+10	1	-1E+10	1
4901784	52	C	12/06/2016	10:43	-132.434	44.632	0	599.90	0	4.3600	0	34.1620	0	27.087	0	594.190	0	23.8	4	7.6	4	-1E+10	1	-1E+10	1	-1E+10	1	-1E+10	1	-1E+10	1	-1E+10	1
4901784	52	C	12/06/2016	10:43	-132.434	44.632	0	605.20	0	4.3360	0	34.1680	0	27.094	0	599.432	0	23.2	4	7.4	4	-1E+10	1	-1E+10	1	-1E+10	1	-1E+10	1	-1E+10	1	-1E+10	1
4901784	52	C	12/06/2016	10:43	-132.434	44.632	0	610.50	0	4.3340	0	34.1700	0	27.096	0	604.673	0	22.7	4	7.2	4	-1E+10	1	-1E+10	1	-1E+10	1	-1E+10	1	-1E+10	1	-1E+10	1
4901784	52	C	12/06/2016	10:43	-132.434	44.632	0	614.80	0	4.3350	0	34.1730	0	27.098	0	608.926	0	22.2	4	7.1	4	-1E+10	1	-1E+10	1	-1E+10	1	-1E+10	1	-1E+10	1	-1E+10	1
4901784	52	C	12/06/2016	10:43	-132.434	44.632	0	619.30	0	4.3290	0	34.1770	0	27.102	0	613.376	0	21.8	4	6.9	4	-1E+10	1	-1E+10	1	-1E+10	1	-1E+10	1	-1E+10	1	-1E+10	1
4901784	52	C	12/06/2016	10:43	-132.434	44.632	0	624.60	0	4.3250	0	34.1800	0	27.105	0	618.618	0	21.3	4	6.8	4	-1E+10	1	-1E+10	1	-1E+10	1	-1E+10	1	-1E+10	1	-1E+10	1
4901784	52	C	12/06/2016	10:43	-132.434	44.632	0	629.90	0	4.3160	0	34.1830	0	27.108	0	623.859	0	20.9	4	6.7	4	-1E+10	1	-1E+10	1	-1E+10	1	-1E+10	1	-1E+10	1	-1E+10	1
4901784	52	C	12/06/2016	10:43	-132.434	44.632	0	635.20	0	4.3070	0	34.1860	0	27.112	0	629.100	0	20.5	4	6.5	4	-1E+10	1	-1E+10	1	-1E+10	1	-1E+10	1	-1E+10	1	-1E+10	1
4901784	52	C	12/06/2016	10:43	-132.434	44.632	0	640.50	0	4.2890	0	34.1900	0	27.117	0	634.341	0	20.2	4	6.4	4	-1E+10	1	-1E+10	1	-1E+10	1	-1E+10	1	-1E+10	1	-1E+10	1
4901784	52	C	12/06/2016	10:43	-132.434	44.632	0	644.90	0	4.2700	0	34.1920	0	27.120	0	638.692	0	20.0	4	6.3	4	-1E+10	1	-1E+10	1	-1E+10	1	-1E+10	1	-1E+10	1	-1E+10	1
4901784	52	C	12/06/2016	10:43	-132.434	44.632	0	649.40	0	4.2450	0	34.1960	0	27.126	0	643.142	0	19.7	4	6.3	4	-1E+10	1	-1E+10	1	-1E+10	1	-1E+10	1	-1E+10	1	-1E+10	1
4901784	52	C	12/06/2016	10:43	-132.434	44.632	0	654.80	0	4.2160	0	34.2000	0	27.132	0	648.482	0	19.3	4	6.1	4	-1E+10	1	-1E+10	1	-1E+10	1	-1E+10	1	-1E+10	1	-1E+10	1
4901784	52	C	12/06/2016	10:43	-132.434	44.632	0	660.10	0	4.2010	0	34.2040	0	27.137	0	653.722	0	18.9	4	6.0	4	-1E+10	1	-1E+10	1	-1E+10	1	-1E+10	1	-1E+10	1	-1E+10	1
4901784	52	C	12/06/2016	10:43	-132.434	44.632	0	665.30	0	4.1880	0	34.2090	0	27.143	0	658.864	0	18.3	4	5.8	4	-1E+10	1	-1E+10	1	-1E+10	1	-1E+10	1	-1E+10	1	-1E+10	1
4901784	52	C	12/06/2016	10:43	-132.434	44.632	0	670.50	0	4.1750	0	34.2150	0	27.149	0	664.005	0	17.6	4	5.6	4	-1E+10	1	-1E+10	1	-1E+10	1	-1E+10	1	-1E+10	1	-1E+10	1
4901784	52	C	12/06/2016	10:43	-132.434	44.632	0	674.90	0	4.1610	0	34.2230	0	27.157	0	668.356	0	17.1	4	5.4	4	-1E+10	1	-1E+10	1	-1E+10	1	-1E+10	1	-1E+10	1	-1E+10	1
4901784	52	C	12/06/2016	10:43	-132.434	44.632	0	679.30	0	4.1500	0	34.2270	0	27.161	0	672.706	0	16.8	4	5.3	4	-1E+10	1	-1E+10	1	-1E+10	1	-1E+10	1	-1E+10	1	-1E+10	1
4901784	52	C	12/06/2016	10:43	-132.434	44.632	0	684.60	0	4.1370	0	34.2320	0	27.166	0	677.946	0	16.5	4	5.2	4	-1E+10	1	-1E+10	1	-1E+10	1	-1E+10	1	-1E+10	1	-1E+10	1
4901784	52	C	12/06/2016	10:43	-132.434	44.632	0	689.90	0	4.1280	0	34.2340	0	27.169	0	683.186	0	16.3	4	5.2	4	-1E+10	1	-1E+10	1	-1E+10	1	-1E+10	1	-1E+10	1	-1E+10	1
4901784	52	C	12/06/2016	10:43	-132.434	44.632	0	695.10	0	4.1050	0	34.2370	0	27.174	0	688.326	0	16.1	4	5.1	4	-1E+10	1	-1E+10	1	-1E+10	1	-1E+10	1	-1E+10	1	-1E+10	1
4901784	52	C	12/06/2016	10:43	-132.434	44.632	0	700.40	0	4.0860	0	34.2430	0	27.181	0	693.566	0	15.8	4	5.0	4	-1E+10	1	-1E+10	1	-1E+10	1	-1E+10	1	-1E+10	1	-1E+10	1
4901784	52	C	12/06/2016	10:43	-132.434	44.632	0	704.80	0	4.0770	0	34.2460	0	27.184	0	697.916	0	15.6	4	4.9	4	-1E+10	1	-1E+10	1	-1E+10	1	-1E+10	1	-1E+10	1	-1E+10	1
4901784	52	C	12/06/2016	10:43	-132.434	44.632	0	709.30	0	4.0700	0	34.2480	0	27.186	0	702.364	0	15.4	4	4.9	4	-1E+10	1	-1E+10	1	-1E+10	1	-1E+10	1	-1E+10	1	-1E+10	1
4901784	52	C	12/06/2016	10:43	-132.434	44.632	0	714.60	0	4.0620	0	34.2500	0	27.189	0	707.603	0	15.1	4	4.8	4	-1E+10	1	-1E+10	1	-1E+10	1	-1E+10	1	-1E+10	1	-1E+10	1
4901784	52	C	12/06/2016	10:43	-132.434	44.632	0	719.90	0	4.0520	0	34.2550	0	27.194	0	712.842	0	14.7	4	4.7	4	-1E+10	1	-1E+10	1	-1E+10	1	-1E+10	1	-1E+10	1	-1E+10	1
4901784	52	C	12/06/2016	10:43	-132.434	44.632	0	725.20	0	4.0300	0	34.2610	0	27.201	0	718.081	0	14.4	4	4.6	4	-1E+10	1	-1E+10	1	-1E+10	1	-1E+10	1	-1E+10	1	-1E+10	1
4901784	52	C	12/06/2016	10:43	-132.434	44.632	0	730.60	0	4.0090	0	34.2660	0	27.207	0	723.419	0	14.1	4	4.4	4	-1E+10	1	-1E+10	1	-1E+10	1	-1E+10	1	-1E+10	1	-1E+10	1
4901784	52	C	12/06/2016	10:43	-132.434	44.632	0	735.10	0	3.9830	0	34.2740	0	27.216	0	727.867	0	13.7	4	4.3	4	-1E+10	1	-1E+10	1	-1E+10	1	-1E+10	1	-1E+10	1	-1E+10	1
4901784	52	C	12/06/2016	10:43	-132.434	44.632	0	739.70	0	3.9700	0	34.2790	0	27.221	0	732.413	0	13.6	4	4.3	4	-1E+10	1	-1E+10	1	-1E+10	1	-1E+10	1	-1E+10	1	-1E+10	1
4901784	52	C	12/06/2016	10:43	-132.434	44.632	0	745.10	0	3.9580	0	34.2810	0	27.224	0	737.751	0	13.4	4	4.2	4	-1E+10	1	-1E+10	1	-1E+10	1	-1E+10	1	-1E+10	1	-1E+10	1
4901784	52	C	12/06/2016	10:43	-132.434	44.632	0	750.60	0	3.9430	0	34.2850	0	27.229	0	743.187	0	13.2	4	4.2	4	-1E+10	1	-1E+10	1	-1E+10	1	-1E+10	1	-1E+10	1	-1E+10	1
4901784	52	C	12/06/2016	10:43	-132.434	44.632	0	755.50	0	3.9260	0	34.2920	0	27.236	0	748.029	0	12.9	4	4.1	4	-1E+10	1	-1E+10	1	-1E+10	1	-1E+10	1	-1E+10	1	-1E+10	1
4901784	52	C	12/06/2016	10:43	-132.434	44.632	0	759.80	0	3.9110	0	34.2950	0	27.240	0	752.279	0	12.8	4	4.0	4	-1E+10	1	-1E+10	1	-1E+10	1	-1E+10	1	-1E+10	1	-1E+10	1
4901784	52	C	12/06/2016	10:43	-132.434	44.632	0	764.60	0	3.8940	0	34.2990	0	27.245	0	757.023	0	12.6	4	4.0	4	-1E+10	1	-1E+10	1	-1E+10	1	-1E+10	1	-1E+10	1	-1E+10	1
4901784	52	C	12/06/2016	10:43	-132.434	44.632	0	769.40	0	3.8770	0	34.3050	0	27.252	0	761.767	0	12.5	4	3.9	4	-1E+10	1	-1E+10	1	-1E+10	1	-1E+10	1	-1E+10	1	-1E+10	1
4901784	52	C	12/06/2016	10:43	-132.434	44.632	0	774.30	0	3.8620	0	34.3100	0	27.257	0	766.609	0	12.4	4	3.9	4	-1E+10	1	-1E+10	1	-1E+10	1	-1E+10	1	-1E+10	1	-1E+10	1
4901784	52	C	12/06/2016	10:43	-132.434	44.632	0	779.20	0	3.8540	0	34.3110	0	27.259	0	771.451	0	12.3	4	3.9	4	-1E+10	1	-1E+10	1	-1E+10	1	-1E+10	1	-1E+10	1	-1E+10	1
4901784	52	C	12/06/2016	10:43	-132.434	44.632	0	784.20	0	3.8480	0	34.3130	0	27.261	0	776.392	0	12.2	4	3.8	4	-1E+10	1	-1E+10	1	-1E+10	1	-1E+10	1	-1E+10	1	-1E+10	1
4901784	52	C	12/06/2016	10:43	-132.434	44.632	0	790.00	0	3.8330	0	34.3160	0	27.265	0	782.124	0	12.1	4	3.8	4	-1E+10	1	-1E+10	1	-1E+10	1	-1E+10	1	-1E+10	1	-1E+10	1
4901784	52	C	12/06/2016	10:43	-132.434	44.632	0	795.00	0	3.8180	0	34.3180	0	27.268	0	787.064	0	12.0	4	3.8	4	-1E+10	1	-1E+10	1	-1E+10	1	-1E+10	1	-1E+10	1	-1E+10	1
4901784	52	C	12/06/2016	10:43	-132.434	44.632	0	799.20	0	3.8050	0	34.3220	0	27.273	0	791.215	0	11.9	4	3.8	4	-1E+10	1	-1E+10	1	-1E+10	1	-1E+10	1	-1E+10	1	-1E+10	1
4901784	52	C	12/06/2016	10:43	-132.434	44.632	0	804.30	0	3.7920	0	34.3260	0	27.277	0	796.254	0	11.9	4	3.7	4	-1E+10	1	-1E+10	1	-1E+10	1	-1E+10	1	-1E+10	1	-1E+10	1
4901784	52	C	12/06/2016	10:43	-132.434	44.632	0	809.50	0	3.7610	0	34.3310	0	27.284	0	801.392	0	11.8	4	3.7	4	-1E+10	1	-1E+10	1	-1E+10	1	-1E+10	1	-1E+10	1	-1E+10	1
4901784	52	C	12/06/2016	10:43	-132.434	44.632	0	814.70	0	3.7410	0	34.3360	0	27.290	0	806.530	0	11.7	4	3.7	4	-1E+10	1	-1E+10	1	-1E+10	1	-1E+10	1	-1E+10	1	-1E+10	1
4901784	52	C	12/06/2016	10:43	-132.434	44.632	0	819.90	0	3.7360	0	34.3370	0	27.292	0	811.668	0	11.7	4	3.7	4	-1E+10	1	-1E+10	1	-1E+10	1	-1E+10	1	-1E+10	1	-1E+10	1
4901784	52	C	12/06/2016	10:43	-132.434	44.632	0	825.30	0	3.7250	0	34.3400	0	27.295	0	817.003	0	11.6	4	3.7	4	-1E+10	1	-1E+10	1	-1E+10	1	-1E+10	1	-1E+10	1	-1E+10	1
4901784	52	C	12/06/2016	10:43	-132.434	44.632	0	829.80	0	3.7200	0	34.3410	0	27.296	0	821.449	0	11.6	4	3.6	4	-1E+10	1	-1E+10	1	-1E+10	1	-1E+10	1	-1E+10	1	-1E+10	1
4901784	52	C	12/06/2016	10:43	-132.434	44.632	0	834.30	0	3.7100	0	34.3440	0	27.300	0	825.894	0	11.5	4	3.6	4	-1E+10	1	-1E+10	1	-1E+10	1	-1E+10	1	-1E+10	1	-1E+10	1
4901784	52	C	12/06/2016	10:43	-132.434	44.632	0	839.80	0	3.7000	0	34.3470	0	27.303	0	831.328	0	11.5	4	3.6	4	-1E+10	1	-1E+10	1	-1E+10	1	-1E+10	1	-1E+10	1	-1E+10	1
4901784	52	C	12/06/2016	10:43	-132.434	44.632	0	845.40	0	3.6830	0	34.3520	0	27.309	0	836.860	0	11.4	4	3.6	4	-1E+10	1	-1E+10	1	-1E+10	1	-1E+10	1	-1E+10	1	-1E+10	1
4901784	52	C	12/06/2016	10:43	-132.434	44.632	0	850.00	0	3.6790	0	34.3540	0	27.311	0	841.405	0	11.4	4	3.6	4	-1E+10	1	-1E+10	1	-1E+10	1	-1E+10	1	-1E+10	1	-1E+10	1
4901784	52	C	12/06/2016	10:43	-132.434	44.632	0	854.60	0	3.6740	0	34.3560	0	27.313	0	845.949	0	11.4	4	3.6	4	-1E+10	1	-1E+10	1	-1E+10	1	-1E+10	1	-1E+10	1	-1E+10	1
4901784	52	C	12/06/2016	10:43	-132.434	44.632	0	860.20	0	3.6620	0	34.3600	0	27.317	0	851.481	0	11.4	4	3.6	4	-1E+10	1	-1E+10	1	-1E+10	1	-1E+10	1	-1E+10	1	-1E+10	1
4901784	52	C	12/06/2016	10:43	-132.434	44.632	0	865.60	0	3.6470	0	34.3630	0	27.321	0	856.815	0	11.4	4	3.6	4	-1E+10	1	-1E+10	1	-1E+10	1	-1E+10	1	-1E+10	1	-1E+10	1
4901784	52	C	12/06/2016	10:43	-132.434	44.632	0	870.50	0	3.6240	0	34.3690	0	27.328	0	861.655	0	11.3	4	3.6	4	-1E+10	1	-1E+10	1	-1E+10	1	-1E+10	1	-1E+10	1	-1E+10	1
4901784	52	C	12/06/2016	10:43	-132.434	44.632	0	875.40	0	3.6070	0	34.3720	0	27.332	0	866.495	0	11.4	4	3.6	4	-1E+10	1	-1E+10	1	-1E+10	1	-1E+10	1	-1E+10	1	-1E+10	1
4901784	52	C	12/06/2016	10:43	-132.434	44.632	0	880.50	0	3.6000	0	34.3730	0	27.334	0	871.533	0	11.4	4	3.6	4	-1E+10	1	-1E+10	1	-1E+10	1	-1E+10	1	-1E+10	1	-1E+10	1
4901784	52	C	12/06/2016	10:43	-132.434	44.632	0	885.60	0	3.5920	0	34.3730	0	27.335	0	876.570	0	11.4	4	3.6	4	-1E+10	1	-1E+10	1	-1E+10	1	-1E+10	1	-1E+10	1	-1E+10	1
4901784	52	C	12/06/2016	10:43	-132.434	44.632	0	890.60	0	3.5890	0	34.3750	0	27.337	0	881.509	0	11.4	4	3.6	4	-1E+10	1	-1E+10	1	-1E+10	1	-1E+10	1	-1E+10	1	-1E+10	1
4901784	52	C	12/06/2016	10:43	-132.434	44.632	0	894.90	0	3.5860	0	34.3770	0	27.339	0	885.756	0	11.4	4	3.6	4	-1E+10	1	-1E+10	1	-1E+10	1	-1E+10	1	-1E+10	1	-1E+10	1
4901784	52	C	12/06/2016	10:43	-132.434	44.632	0	899.30	0	3.5680	0	34.3820	0	27.344	0	890.101	0	11.4	4	3.6	4	-1E+10	1	-1E+10	1	-1E+10	1	-1E+10	1	-1E+10	1	-1E+10	1
4901784	52	C	12/06/2016	10:43	-132.434	44.632	0	904.40	0	3.5630	0	34.3840	0	27.346	0	895.138	0	11.5	4	3.6	4	-1E+10	1	-1E+10	1	-1E+10	1	-1E+10	1	-1E+10	1	-1E+10	1
4901784	52	C	12/06/2016	10:43	-132.434	44.632	0	909.70	0	3.5570	0	34.3850	0	27.348	0	900.373	0	11.5	4	3.6	4	-1E+10	1	-1E+10	1	-1E+10	1	-1E+10	1	-1E+10	1	-1E+10	1
4901784	52	C	12/06/2016	10:43	-132.434	44.632	0	915.00	0	3.5360	0	34.3890	0	27.353	0	905.607	0	11.6	4	3.6	4	-1E+10	1	-1E+10	1	-1E+10	1	-1E+10	1	-1E+10	1	-1E+10	1
4901784	52	C	12/06/2016	10:43	-132.434	44.632	0	920.30	0	3.5290	0	34.3920	0	27.356	0	910.841	0	11.6	4	3.6	4	-1E+10	1	-1E+10	1	-1E+10	1	-1E+10	1	-1E+10	1	-1E+10	1
4901784	52	C	12/06/2016	10:43	-132.434	44.632	0	925.70	0	3.5180	0	34.3950	0	27.360	0	916.174	0	11.7	4	3.6	4	-1E+10	1	-1E+10	1	-1E+10	1	-1E+10	1	-1E+10	1	-1E+10	1
4901784	52	C	12/06/2016	10:43	-132.434	44.632	0	930.10	0	3.5140	0	34.3970	0	27.362	0	920.519	0	11.7	4	3.7	4	-1E+10	1	-1E+10	1	-1E+10	1	-1E+10	1	-1E+10	1	-1E+10	1
4901784	52	C	12/06/2016	10:43	-132.434	44.632	0	934.60	0	3.5070	0	34.3980	0	27.363	0	924.962	0	11.7	4	3.7	4	-1E+10	1	-1E+10	1	-1E+10	1	-1E+10	1	-1E+10	1	-1E+10	1
4901784	52	C	12/06/2016	10:43	-132.434	44.632	0	940.10	0	3.4990	0	34.3990	0	27.365	0	930.393	0	11.8	4	3.7	4	-1E+10	1	-1E+10	1	-1E+10	1	-1E+10	1	-1E+10	1	-1E+10	1
4901784	52	C	12/06/2016	10:43	-132.434	44.632	0	944.70	0	3.4850	0	34.4030	0	27.369	0	934.936	0	11.8	4	3.7	4	-1E+10	1	-1E+10	1	-1E+10	1	-1E+10	1	-1E+10	1	-1E+10	1
4901784	52	C	12/06/2016	10:43	-132.434	44.632	0	949.40	0	3.4750	0	34.4060	0	27.373	0	939.577	0	11.9	4	3.7	4	-1E+10	1	-1E+10	1	-1E+10	1	-1E+10	1	-1E+10	1	-1E+10	1
4901784	52	C	12/06/2016	10:43	-132.434	44.632	0	955.10	0	3.4650	0	34.4080	0	27.375	0	945.205	0	12.0	4	3.7	4	-1E+10	1	-1E+10	1	-1E+10	1	-1E+10	1	-1E+10	1	-1E+10	1
4901784	52	C	12/06/2016	10:43	-132.434	44.632	0	959.80	0	3.4550	0	34.4110	0	27.379	0	949.845	0	12.0	4	3.8	4	-1E+10	1	-1E+10	1	-1E+10	1	-1E+10	1	-1E+10	1	-1E+10	1
4901784	52	C	12/06/2016	10:43	-132.434	44.632	0	964.50	0	3.4410	0	34.4140	0	27.383	0	954.486	0	12.1	4	3.8	4	-1E+10	1	-1E+10	1	-1E+10	1	-1E+10	1	-1E+10	1	-1E+10	1
4901784	52	C	12/06/2016	10:43	-132.434	44.632	0	970.10	0	3.4330	0	34.4160	0	27.385	0	960.015	0	12.2	4	3.8	4	-1E+10	1	-1E+10	1	-1E+10	1	-1E+10	1	-1E+10	1	-1E+10	1
4901784	52	C	12/06/2016	10:43	-132.434	44.632	0	974.80	0	3.4290	0	34.4170	0	27.386	0	964.655	0	12.3	4	3.8	4	-1E+10	1	-1E+10	1	-1E+10	1	-1E+10	1	-1E+10	1	-1E+10	1
4901784	52	C	12/06/2016	10:43	-132.434	44.632	0	979.50	0	3.4210	0	34.4200	0	27.389	0	969.295	0	12.4	4	3.9	4	-1E+10	1	-1E+10	1	-1E+10	1	-1E+10	1	-1E+10	1	-1E+10	1
4901784	52	C	12/06/2016	10:43	-132.434	44.632	0	985.20	0	3.4140	0	34.4220	0	27.392	0	974.923	0	12.4	4	3.9	4	-1E+10	1	-1E+10	1	-1E+10	1	-1E+10	1	-1E+10	1	-1E+10	1
4901784	52	C	12/06/2016	10:43	-132.434	44.632	0	990.00	0	3.4030	0	34.4250	0	27.395	0	979.661	0	12.6	4	3.9	4	-1E+10	1	-1E+10	1	-1E+10	1	-1E+10	1	-1E+10	1	-1E+10	1
4901784	52	C	12/06/2016	10:43	-132.434	44.632	0	994.60	0	3.3970	0	34.4280	0	27.398	0	984.203	0	12.6	4	3.9	4	-1E+10	1	-1E+10	1	-1E+10	1	-1E+10	1	-1E+10	1	-1E+10	1
4901784	52	C	12/06/2016	10:43	-132.434	44.632	0	1000.30	0	3.3900	0	34.4300	0	27.400	0	989.830	0	12.7	4	4.0	4	-1E+10	1	-1E+10	1	-1E+10	1	-1E+10	1	-1E+10	1	-1E+10	1
4901784	52	C	12/06/2016	10:43	-132.434	44.632	0	1005.10	0	3.3850	0	34.4320	0	27.403	0	994.568	0	12.8	4	4.0	4	-1E+10	1	-1E+10	1	-1E+10	1	-1E+10	1	-1E+10	1	-1E+10	1
4901784	52	C	12/06/2016	10:43	-132.434	44.632	0	1009.90	0	3.3770	0	34.4340	0	27.405	0	999.306	0	12.9	4	4.0	4	-1E+10	1	-1E+10	1	-1E+10	1	-1E+10	1	-1E+10	1	-1E+10	1
4901784	52	C	12/06/2016	10:43	-132.434	44.632	0	1014.80	0	3.3640	0	34.4360	0	27.408	0	1004.143	0	12.9	4	4.0	4	-1E+10	1	-1E+10	1	-1E+10	1	-1E+10	1	-1E+10	1	-1E+10	1
4901784	52	C	12/06/2016	10:43	-132.434	44.632	0	1019.60	0	3.3600	0	34.4370	0	27.409	0	1008.881	0	13.1	4	4.1	4	-1E+10	1	-1E+10	1	-1E+10	1	-1E+10	1	-1E+10	1	-1E+10	1
4901784	52	C	12/06/2016	10:43	-132.434	44.632	0	1025.50	0	3.3520	0	34.4400	0	27.412	0	1014.705	0	13.4	4	4.2	4	-1E+10	1	-1E+10	1	-1E+10	1	-1E+10	1	-1E+10	1	-1E+10	1
4901784	52	C	12/06/2016	10:43	-132.434	44.632	0	1030.30	0	3.3490	0	34.4440	0	27.416	0	1019.443	0	13.5	4	4.2	4	-1E+10	1	-1E+10	1	-1E+10	1	-1E+10	1	-1E+10	1	-1E+10	1
4901784	52	C	12/06/2016	10:43	-132.434	44.632	0	1035.10	0	3.3400	0	34.4450	0	27.417	0	1024.180	0	13.5	4	4.2	4	-1E+10	1	-1E+10	1	-1E+10	1	-1E+10	1	-1E+10	1	-1E+10	1
4901784	52	C	12/06/2016	10:43	-132.434	44.632	0	1039.90	0	3.3340	0	34.4460	0	27.419	0	1028.918	0	13.6	4	4.2	4	-1E+10	1	-1E+10	1	-1E+10	1	-1E+10	1	-1E+10	1	-1E+10	1
4901784	52	C	12/06/2016	10:43	-132.434	44.632	0	1044.70	0	3.3340	0	34.4460	0	27.419	0	1033.655	0	13.6	4	4.2	4	-1E+10	1	-1E+10	1	-1E+10	1	-1E+10	1	-1E+10	1	-1E+10	1
4901784	52	C	12/06/2016	10:43	-132.434	44.632	0	1050.50	0	3.3200	0	34.4480	0	27.422	0	1039.380	0	13.8	4	4.3	4	-1E+10	1	-1E+10	1	-1E+10	1	-1E+10	1	-1E+10	1	-1E+10	1
4901784	52	C	12/06/2016	10:43	-132.434	44.632	0	1055.30	0	3.3150	0	34.4500	0	27.424	0	1044.117	0	14.1	4	4.4	4	-1E+10	1	-1E+10	1	-1E+10	1	-1E+10	1	-1E+10	1	-1E+10	1
4901784	52	C	12/06/2016	10:43	-132.434	44.632	0	1060.20	0	3.3130	0	34.4530	0	27.426	0	1048.953	0	14.3	4	4.4	4	-1E+10	1	-1E+10	1	-1E+10	1	-1E+10	1	-1E+10	1	-1E+10	1
4901784	52	C	12/06/2016	10:43	-132.434	44.632	0	1065.10	0	3.3060	0	34.4550	0	27.429	0	1053.789	0	14.4	4	4.5	4	-1E+10	1	-1E+10	1	-1E+10	1	-1E+10	1	-1E+10	1	-1E+10	1
4901784	52	C	12/06/2016	10:43	-132.434	44.632	0	1069.90	0	3.2920	0	34.4560	0	27.431	0	1058.526	0	14.6	4	4.5	4	-1E+10	1	-1E+10	1	-1E+10	1	-1E+10	1	-1E+10	1	-1E+10	1
4901784	52	C	12/06/2016	10:43	-132.434	44.632	0	1075.50	0	3.2910	0	34.4590	0	27.433	0	1064.052	0	15.0	4	4.7	4	-1E+10	1	-1E+10	1	-1E+10	1	-1E+10	1	-1E+10	1	-1E+10	1
4901784	52	C	12/06/2016	10:43	-132.434	44.632	0	1080.50	0	3.3000	0	34.4620	0	27.435	0	1068.986	0	15.3	4	4.8	4	-1E+10	1	-1E+10	1	-1E+10	1	-1E+10	1	-1E+10	1	-1E+10	1
4901784	52	C	12/06/2016	10:43	-132.434	44.632	0	1085.50	0	3.2950	0	34.4640	0	27.437	0	1073.920	0	15.6	4	4.8	4	-1E+10	1	-1E+10	1	-1E+10	1	-1E+10	1	-1E+10	1	-1E+10	1
4901784	52	C	12/06/2016	10:43	-132.434	44.632	0	1090.60	0	3.2930	0	34.4660	0	27.439	0	1078.952	0	15.7	4	4.9	4	-1E+10	1	-1E+10	1	-1E+10	1	-1E+10	1	-1E+10	1	-1E+10	1
4901784	52	C	12/06/2016	10:43	-132.434	44.632	0	1095.70	0	3.2840	0	34.4670	0	27.441	0	1083.985	0	15.7	4	4.9	4	-1E+10	1	-1E+10	1	-1E+10	1	-1E+10	1	-1E+10	1	-1E+10	1
4901784	52	C	12/06/2016	10:43	-132.434	44.632	0	1100.00	0	3.2760	0	34.4670	0	27.441	0	1088.227	0	15.8	4	4.9	4	-1E+10	1	-1E+10	1	-1E+10	1	-1E+10	1	-1E+10	1	-1E+10	1
4901784	52	C	12/06/2016	10:43	-132.434	44.632	0	1104.20	0	3.2690	0	34.4680	0	27.443	0	1092.372	0	15.9	4	4.9	4	-1E+10	1	-1E+10	1	-1E+10	1	-1E+10	1	-1E+10	1	-1E+10	1
4901784	52	C	12/06/2016	10:43	-132.434	44.632	0	1109.30	0	3.2610	0	34.4700	0	27.445	0	1097.404	0	16.1	4	5.0	4	-1E+10	1	-1E+10	1	-1E+10	1	-1E+10	1	-1E+10	1	-1E+10	1
4901784	52	C	12/06/2016	10:43	-132.434	44.632	0	1114.40	0	3.2600	0	34.4720	0	27.447	0	1102.436	0	16.4	4	5.1	4	-1E+10	1	-1E+10	1	-1E+10	1	-1E+10	1	-1E+10	1	-1E+10	1
4901784	52	C	12/06/2016	10:43	-132.434	44.632	0	1119.40	0	3.2490	0	34.4730	0	27.449	0	1107.369	0	16.7	4	5.2	4	-1E+10	1	-1E+10	1	-1E+10	1	-1E+10	1	-1E+10	1	-1E+10	1
4901784	52	C	12/06/2016	10:43	-132.434	44.632	0	1124.50	0	3.2660	0	34.4770	0	27.450	0	1112.400	0	17.3	4	5.4	4	-1E+10	1	-1E+10	1	-1E+10	1	-1E+10	1	-1E+10	1	-1E+10	1
4901784	52	C	12/06/2016	10:43	-132.434	44.632	0	1129.40	0	3.2730	0	34.4790	0	27.451	0	1117.235	0	17.5	4	5.4	4	-1E+10	1	-1E+10	1	-1E+10	1	-1E+10	1	-1E+10	1	-1E+10	1
4901784	52	C	12/06/2016	10:43	-132.434	44.632	0	1134.40	0	3.2610	0	34.4800	0	27.453	0	1122.167	0	17.5	4	5.4	4	-1E+10	1	-1E+10	1	-1E+10	1	-1E+10	1	-1E+10	1	-1E+10	1
4901784	52	C	12/06/2016	10:43	-132.434	44.632	0	1139.60	0	3.2480	0	34.4820	0	27.456	0	1127.297	0	17.6	4	5.5	4	-1E+10	1	-1E+10	1	-1E+10	1	-1E+10	1	-1E+10	1	-1E+10	1
4901784	52	C	12/06/2016	10:43	-132.434	44.632	0	1144.70	0	3.2390	0	34.4830	0	27.458	0	1132.329	0	17.7	4	5.5	4	-1E+10	1	-1E+10	1	-1E+10	1	-1E+10	1	-1E+10	1	-1E+10	1
4901784	52	C	12/06/2016	10:43	-132.434	44.632	0	1149.80	0	3.2330	0	34.4840	0	27.459	0	1137.360	0	17.7	4	5.5	4	-1E+10	1	-1E+10	1	-1E+10	1	-1E+10	1	-1E+10	1	-1E+10	1
4901784	52	C	12/06/2016	10:43	-132.434	44.632	0	1155.00	0	3.2240	0	34.4840	0	27.460	0	1142.489	0	17.8	4	5.5	4	-1E+10	1	-1E+10	1	-1E+10	1	-1E+10	1	-1E+10	1	-1E+10	1
4901784	52	C	12/06/2016	10:43	-132.434	44.632	0	1160.00	0	3.2160	0	34.4860	0	27.462	0	1147.422	0	18.0	4	5.6	4	-1E+10	1	-1E+10	1	-1E+10	1	-1E+10	1	-1E+10	1	-1E+10	1
4901784	52	C	12/06/2016	10:43	-132.434	44.632	0	1165.10	0	3.2060	0	34.4880	0	27.465	0	1152.452	0	18.1	4	5.6	4	-1E+10	1	-1E+10	1	-1E+10	1	-1E+10	1	-1E+10	1	-1E+10	1
4901784	52	C	12/06/2016	10:43	-132.434	44.632	0	1170.30	0	3.1950	0	34.4880	0	27.466	0	1157.582	0	18.2	4	5.6	4	-1E+10	1	-1E+10	1	-1E+10	1	-1E+10	1	-1E+10	1	-1E+10	1
4901784	52	C	12/06/2016	10:43	-132.434	44.632	0	1175.40	0	3.1790	0	34.4900	0	27.469	0	1162.612	0	18.3	4	5.7	4	-1E+10	1	-1E+10	1	-1E+10	1	-1E+10	1	-1E+10	1	-1E+10	1
4901784	52	C	12/06/2016	10:43	-132.434	44.632	0	1180.60	0	3.1640	0	34.4920	0	27.472	0	1167.741	0	18.4	4	5.7	4	-1E+10	1	-1E+10	1	-1E+10	1	-1E+10	1	-1E+10	1	-1E+10	1
4901784	52	C	12/06/2016	10:43	-132.434	44.632	0	1184.90	0	3.1600	0	34.4920	0	27.473	0	1171.982	0	18.4	4	5.7	4	-1E+10	1	-1E+10	1	-1E+10	1	-1E+10	1	-1E+10	1	-1E+10	1
4901784	52	C	12/06/2016	10:43	-132.434	44.632	0	1189.30	0	3.1530	0	34.4930	0	27.474	0	1176.322	0	18.5	4	5.7	4	-1E+10	1	-1E+10	1	-1E+10	1	-1E+10	1	-1E+10	1	-1E+10	1
4901784	52	C	12/06/2016	10:43	-132.434	44.632	0	1194.50	0	3.1440	0	34.4940	0	27.476	0	1181.450	0	18.5	4	5.7	4	-1E+10	1	-1E+10	1	-1E+10	1	-1E+10	1	-1E+10	1	-1E+10	1
4901784	52	C	12/06/2016	10:43	-132.434	44.632	0	1199.70	0	3.1420	0	34.4950	0	27.477	0	1186.579	0	18.6	4	5.8	4	-1E+10	1	-1E+10	1	-1E+10	1	-1E+10	1	-1E+10	1	-1E+10	1
4901784	52	C	12/06/2016	10:43	-132.434	44.632	0	1204.80	0	3.1380	0	34.4950	0	27.477	0	1191.609	0	18.6	4	5.8	4	-1E+10	1	-1E+10	1	-1E+10	1	-1E+10	1	-1E+10	1	-1E+10	1
4901784	52	C	12/06/2016	10:43	-132.434	44.632	0	1210.10	0	3.1250	0	34.4950	0	27.478	0	1196.836	0	18.7	4	5.8	4	-1E+10	1	-1E+10	1	-1E+10	1	-1E+10	1	-1E+10	1	-1E+10	1
4901784	52	C	12/06/2016	10:43	-132.434	44.632	0	1215.30	0	3.1130	0	34.4960	0	27.480	0	1201.964	0	18.9	4	5.8	4	-1E+10	1	-1E+10	1	-1E+10	1	-1E+10	1	-1E+10	1	-1E+10	1
4901784	52	C	12/06/2016	10:43	-132.434	44.632	0	1220.60	0	3.0910	0	34.4990	0	27.485	0	1207.190	0	19.1	4	5.9	4	-1E+10	1	-1E+10	1	-1E+10	1	-1E+10	1	-1E+10	1	-1E+10	1
4901784	52	C	12/06/2016	10:43	-132.434	44.632	0	1225.00	0	3.0800	0	34.5010	0	27.487	0	1211.529	0	19.3	4	6.0	4	-1E+10	1	-1E+10	1	-1E+10	1	-1E+10	1	-1E+10	1	-1E+10	1
4901784	52	C	12/06/2016	10:43	-132.434	44.632	0	1229.50	0	3.0720	0	34.5020	0	27.489	0	1215.967	0	19.4	4	6.0	4	-1E+10	1	-1E+10	1	-1E+10	1	-1E+10	1	-1E+10	1	-1E+10	1
4901784	52	C	12/06/2016	10:43	-132.434	44.632	0	1234.70	0	3.0690	0	34.5030	0	27.490	0	1221.095	0	19.5	4	6.0	4	-1E+10	1	-1E+10	1	-1E+10	1	-1E+10	1	-1E+10	1	-1E+10	1
4901784	52	C	12/06/2016	10:43	-132.434	44.632	0	1240.00	0	3.0590	0	34.5040	0	27.492	0	1226.321	0	19.8	4	6.1	4	-1E+10	1	-1E+10	1	-1E+10	1	-1E+10	1	-1E+10	1	-1E+10	1
4901784	52	C	12/06/2016	10:43	-132.434	44.632	0	1245.30	0	3.0490	0	34.5060	0	27.494	0	1231.547	0	20.0	4	6.2	4	-1E+10	1	-1E+10	1	-1E+10	1	-1E+10	1	-1E+10	1	-1E+10	1
4901784	52	C	12/06/2016	10:43	-132.434	44.632	0	1250.70	0	3.0480	0	34.5070	0	27.495	0	1236.871	0	20.3	4	6.3	4	-1E+10	1	-1E+10	1	-1E+10	1	-1E+10	1	-1E+10	1	-1E+10	1
4901784	52	C	12/06/2016	10:43	-132.434	44.632	0	1255.10	0	3.0430	0	34.5090	0	27.497	0	1241.210	0	20.5	4	6.3	4	-1E+10	1	-1E+10	1	-1E+10	1	-1E+10	1	-1E+10	1	-1E+10	1
4901784	52	C	12/06/2016	10:43	-132.434	44.632	0	1259.50	0	3.0340	0	34.5100	0	27.499	0	1245.548	0	20.8	4	6.4	4	-1E+10	1	-1E+10	1	-1E+10	1	-1E+10	1	-1E+10	1	-1E+10	1
4901784	52	C	12/06/2016	10:43	-132.434	44.632	0	1264.90	0	3.0220	0	34.5130	0	27.502	0	1250.872	0	21.2	4	6.6	4	-1E+10	1	-1E+10	1	-1E+10	1	-1E+10	1	-1E+10	1	-1E+10	1
4901784	52	C	12/06/2016	10:43	-132.434	44.632	0	1270.40	0	3.0080	0	34.5160	0	27.506	0	1256.295	0	21.4	4	6.6	4	-1E+10	1	-1E+10	1	-1E+10	1	-1E+10	1	-1E+10	1	-1E+10	1
4901784	52	C	12/06/2016	10:43	-132.434	44.632	0	1274.80	0	2.9880	0	34.5170	0	27.509	0	1260.633	0	21.7	4	6.7	4	-1E+10	1	-1E+10	1	-1E+10	1	-1E+10	1	-1E+10	1	-1E+10	1
4901784	52	C	12/06/2016	10:43	-132.434	44.632	0	1279.40	0	2.9900	0	34.5190	0	27.510	0	1265.168	0	22.1	4	6.8	4	-1E+10	1	-1E+10	1	-1E+10	1	-1E+10	1	-1E+10	1	-1E+10	1
4901784	52	C	12/06/2016	10:43	-132.434	44.632	0	1285.50	0	2.9850	0	34.5220	0	27.513	0	1271.182	0	22.4	4	6.9	4	-1E+10	1	-1E+10	1	-1E+10	1	-1E+10	1	-1E+10	1	-1E+10	1
4901784	52	C	12/06/2016	10:43	-132.434	44.632	0	1290.50	0	2.9660	0	34.5240	0	27.516	0	1276.111	0	22.2	4	6.9	4	-1E+10	1	-1E+10	1	-1E+10	1	-1E+10	1	-1E+10	1	-1E+10	1
4901784	52	C	12/06/2016	10:43	-132.434	44.632	0	1295.30	0	2.9500	0	34.5230	0	27.517	0	1280.843	0	21.9	4	6.8	4	-1E+10	1	-1E+10	1	-1E+10	1	-1E+10	1	-1E+10	1	-1E+10	1
4901784	52	C	12/06/2016	10:43	-132.434	44.632	0	1300.10	0	2.9300	0	34.5210	0	27.517	0	1285.574	0	22.0	4	6.8	4	-1E+10	1	-1E+10	1	-1E+10	1	-1E+10	1	-1E+10	1	-1E+10	1
4901784	52	C	12/06/2016	10:43	-132.434	44.632	0	1305.00	0	2.9350	0	34.5230	0	27.518	0	1290.405	0	22.3	4	6.9	4	-1E+10	1	-1E+10	1	-1E+10	1	-1E+10	1	-1E+10	1	-1E+10	1
4901784	52	C	12/06/2016	10:43	-132.434	44.632	0	1310.00	0	2.9280	0	34.5240	0	27.520	0	1295.333	0	22.3	4	6.9	4	-1E+10	1	-1E+10	1	-1E+10	1	-1E+10	1	-1E+10	1	-1E+10	1
4901784	52	C	12/06/2016	10:43	-132.434	44.632	0	1314.80	0	2.9150	0	34.5240	0	27.521	0	1300.065	0	22.4	4	6.9	4	-1E+10	1	-1E+10	1	-1E+10	1	-1E+10	1	-1E+10	1	-1E+10	1
4901784	52	C	12/06/2016	10:43	-132.434	44.632	0	1319.80	0	2.9020	0	34.5250	0	27.523	0	1304.993	0	22.6	4	7.0	4	-1E+10	1	-1E+10	1	-1E+10	1	-1E+10	1	-1E+10	1	-1E+10	1
4901784	52	C	12/06/2016	10:43	-132.434	44.632	0	1324.80	0	2.8930	0	34.5270	0	27.526	0	1309.922	0	22.8	4	7.0	4	-1E+10	1	-1E+10	1	-1E+10	1	-1E+10	1	-1E+10	1	-1E+10	1
4901784	52	C	12/06/2016	10:43	-132.434	44.632	0	1329.90	0	2.8890	0	34.5270	0	27.526	0	1314.949	0	22.9	4	7.1	4	-1E+10	1	-1E+10	1	-1E+10	1	-1E+10	1	-1E+10	1	-1E+10	1
4901784	52	C	12/06/2016	10:43	-132.434	44.632	0	1335.00	0	2.8740	0	34.5280	0	27.528	0	1319.975	0	23.0	4	7.1	4	-1E+10	1	-1E+10	1	-1E+10	1	-1E+10	1	-1E+10	1	-1E+10	1
4901784	52	C	12/06/2016	10:43	-132.434	44.632	0	1340.20	0	2.8530	0	34.5290	0	27.531	0	1325.100	0	23.2	4	7.1	4	-1E+10	1	-1E+10	1	-1E+10	1	-1E+10	1	-1E+10	1	-1E+10	1
4901784	52	C	12/06/2016	10:43	-132.434	44.632	0	1345.40	0	2.8470	0	34.5300	0	27.532	0	1330.225	0	23.4	4	7.2	4	-1E+10	1	-1E+10	1	-1E+10	1	-1E+10	1	-1E+10	1	-1E+10	1
4901784	52	C	12/06/2016	10:43	-132.434	44.632	0	1350.60	0	2.8450	0	34.5310	0	27.533	0	1335.350	0	23.7	4	7.3	4	-1E+10	1	-1E+10	1	-1E+10	1	-1E+10	1	-1E+10	1	-1E+10	1
4901784	52	C	12/06/2016	10:43	-132.434	44.632	0	1354.90	0	2.8350	0	34.5330	0	27.536	0	1339.588	0	23.8	4	7.3	4	-1E+10	1	-1E+10	1	-1E+10	1	-1E+10	1	-1E+10	1	-1E+10	1
4901784	52	C	12/06/2016	10:43	-132.434	44.632	0	1359.10	0	2.8310	0	34.5330	0	27.536	0	1343.727	0	23.8	4	7.3	4	-1E+10	1	-1E+10	1	-1E+10	1	-1E+10	1	-1E+10	1	-1E+10	1
4901784	52	C	12/06/2016	10:43	-132.434	44.632	0	1364.70	0	2.8230	0	34.5330	0	27.537	0	1349.246	0	23.7	4	7.3	4	-1E+10	1	-1E+10	1	-1E+10	1	-1E+10	1	-1E+10	1	-1E+10	1
4901784	52	C	12/06/2016	10:43	-132.434	44.632	0	1369.90	0	2.7930	0	34.5330	0	27.539	0	1354.370	0	23.6	4	7.3	4	-1E+10	1	-1E+10	1	-1E+10	1	-1E+10	1	-1E+10	1	-1E+10	1
4901784	52	C	12/06/2016	10:43	-132.434	44.632	0	1374.70	0	2.7730	0	34.5330	0	27.541	0	1359.100	0	23.7	4	7.3	4	-1E+10	1	-1E+10	1	-1E+10	1	-1E+10	1	-1E+10	1	-1E+10	1
4901784	52	C	12/06/2016	10:43	-132.434	44.632	0	1379.60	0	2.7670	0	34.5340	0	27.543	0	1363.929	0	23.8	4	7.3	4	-1E+10	1	-1E+10	1	-1E+10	1	-1E+10	1	-1E+10	1	-1E+10	1
4901784	52	C	12/06/2016	10:43	-132.434	44.632	0	1384.60	0	2.7620	0	34.5340	0	27.543	0	1368.856	0	24.0	4	7.4	4	-1E+10	1	-1E+10	1	-1E+10	1	-1E+10	1	-1E+10	1	-1E+10	1
4901784	52	C	12/06/2016	10:43	-132.434	44.632	0	1389.70	0	2.7450	0	34.5360	0	27.546	0	1373.881	0	24.2	4	7.4	4	-1E+10	1	-1E+10	1	-1E+10	1	-1E+10	1	-1E+10	1	-1E+10	1
4901784	52	C	12/06/2016	10:43	-132.434	44.632	0	1394.80	0	2.7380	0	34.5360	0	27.547	0	1378.907	0	24.4	4	7.5	4	-1E+10	1	-1E+10	1	-1E+10	1	-1E+10	1	-1E+10	1	-1E+10	1
4901784	52	C	12/06/2016	10:43	-132.434	44.632	0	1399.90	0	2.7340	0	34.5370	0	27.548	0	1383.932	0	24.6	4	7.5	4	-1E+10	1	-1E+10	1	-1E+10	1	-1E+10	1	-1E+10	1	-1E+10	1
4901784	52	C	12/06/2016	10:43	-132.434	44.632	0	1405.10	0	2.7320	0	34.5380	0	27.549	0	1389.056	0	24.7	4	7.6	4	-1E+10	1	-1E+10	1	-1E+10	1	-1E+10	1	-1E+10	1	-1E+10	1
4901784	52	C	12/06/2016	10:43	-132.434	44.632	0	1410.40	0	2.7260	0	34.5380	0	27.549	0	1394.278	0	24.7	4	7.6	4	-1E+10	1	-1E+10	1	-1E+10	1	-1E+10	1	-1E+10	1	-1E+10	1
4901784	52	C	12/06/2016	10:43	-132.434	44.632	0	1415.60	0	2.7080	0	34.5380	0	27.551	0	1399.401	0	24.7	4	7.6	4	-1E+10	1	-1E+10	1	-1E+10	1	-1E+10	1	-1E+10	1	-1E+10	1
4901784	52	C	12/06/2016	10:43	-132.434	44.632	0	1420.00	0	2.6880	0	34.5390	0	27.554	0	1403.736	0	24.7	4	7.6	4	-1E+10	1	-1E+10	1	-1E+10	1	-1E+10	1	-1E+10	1	-1E+10	1
4901784	52	C	12/06/2016	10:43	-132.434	44.632	0	1424.50	0	2.6740	0	34.5390	0	27.555	0	1408.169	0	24.8	4	7.6	4	-1E+10	1	-1E+10	1	-1E+10	1	-1E+10	1	-1E+10	1	-1E+10	1
4901784	52	C	12/06/2016	10:43	-132.434	44.632	0	1429.80	0	2.6680	0	34.5400	0	27.556	0	1413.391	0	24.9	4	7.6	4	-1E+10	1	-1E+10	1	-1E+10	1	-1E+10	1	-1E+10	1	-1E+10	1
4901784	52	C	12/06/2016	10:43	-132.434	44.632	0	1435.20	0	2.6640	0	34.5400	0	27.557	0	1418.711	0	25.1	4	7.7	4	-1E+10	1	-1E+10	1	-1E+10	1	-1E+10	1	-1E+10	1	-1E+10	1
4901784	52	C	12/06/2016	10:43	-132.434	44.632	0	1440.60	0	2.6560	0	34.5410	0	27.558	0	1424.030	0	25.2	4	7.7	4	-1E+10	1	-1E+10	1	-1E+10	1	-1E+10	1	-1E+10	1	-1E+10	1
4901784	52	C	12/06/2016	10:43	-132.434	44.632	0	1445.10	0	2.6540	0	34.5410	0	27.558	0	1428.463	0	25.3	4	7.8	4	-1E+10	1	-1E+10	1	-1E+10	1	-1E+10	1	-1E+10	1	-1E+10	1
4901784	52	C	12/06/2016	10:43	-132.434	44.632	0	1449.60	0	2.6470	0	34.5420	0	27.560	0	1432.896	0	25.4	4	7.8	4	-1E+10	1	-1E+10	1	-1E+10	1	-1E+10	1	-1E+10	1	-1E+10	1
4901784	52	C	12/06/2016	10:43	-132.434	44.632	0	1455.10	0	2.6400	0	34.5420	0	27.560	0	1438.314	0	25.5	4	7.8	4	-1E+10	1	-1E+10	1	-1E+10	1	-1E+10	1	-1E+10	1	-1E+10	1
4901784	52	C	12/06/2016	10:43	-132.434	44.632	0	1460.50	0	2.6300	0	34.5430	0	27.562	0	1443.634	0	25.7	4	7.9	4	-1E+10	1	-1E+10	1	-1E+10	1	-1E+10	1	-1E+10	1	-1E+10	1
4901784	52	C	12/06/2016	10:43	-132.434	44.632	0	1464.90	0	2.6250	0	34.5430	0	27.562	0	1447.968	0	25.8	4	7.9	4	-1E+10	1	-1E+10	1	-1E+10	1	-1E+10	1	-1E+10	1	-1E+10	1
4901784	52	C	12/06/2016	10:43	-132.434	44.632	0	1469.40	0	2.6190	0	34.5430	0	27.563	0	1452.400	0	26.0	4	7.9	4	-1E+10	1	-1E+10	1	-1E+10	1	-1E+10	1	-1E+10	1	-1E+10	1
4901784	52	C	12/06/2016	10:43	-132.434	44.632	0	1474.80	0	2.6040	0	34.5450	0	27.566	0	1457.719	0	26.2	4	8.0	4	-1E+10	1	-1E+10	1	-1E+10	1	-1E+10	1	-1E+10	1	-1E+10	1
4901784	52	C	12/06/2016	10:43	-132.434	44.632	0	1480.30	0	2.5950	0	34.5450	0	27.567	0	1463.136	0	26.3	4	8.1	4	-1E+10	1	-1E+10	1	-1E+10	1	-1E+10	1	-1E+10	1	-1E+10	1
4901784	52	C	12/06/2016	10:43	-132.434	44.632	0	1484.80	0	2.5900	0	34.5460	0	27.568	0	1467.569	0	26.4	4	8.1	4	-1E+10	1	-1E+10	1	-1E+10	1	-1E+10	1	-1E+10	1	-1E+10	1
4901784	52	C	12/06/2016	10:43	-132.434	44.632	0	1489.40	0	2.5880	0	34.5460	0	27.568	0	1472.099	0	26.6	4	8.1	4	-1E+10	1	-1E+10	1	-1E+10	1	-1E+10	1	-1E+10	1	-1E+10	1
4901784	52	C	12/06/2016	10:43	-132.434	44.632	0	1494.70	0	2.5780	0	34.5470	0	27.570	0	1477.319	0	26.8	4	8.2	4	-1E+10	1	-1E+10	1	-1E+10	1	-1E+10	1	-1E+10	1	-1E+10	1
4901784	52	C	12/06/2016	10:43	-132.434	44.632	0	1499.90	0	2.5610	0	34.5480	0	27.572	0	1482.440	0	27.2	4	8.3	4	-1E+10	1	-1E+10	1	-1E+10	1	-1E+10	1	-1E+10	1	-1E+10	1
4901784	52	C	12/06/2016	10:43	-132.434	44.632	0	1505.00	0	2.5480	0	34.5490	0	27.574	0	1487.463	0	27.5	4	8.4	4	-1E+10	1	-1E+10	1	-1E+10	1	-1E+10	1	-1E+10	1	-1E+10	1
4901784	52	C	12/06/2016	10:43	-132.434	44.632	0	1510.10	0	2.5280	0	34.5510	0	27.577	0	1492.486	0	27.8	4	8.5	4	-1E+10	1	-1E+10	1	-1E+10	1	-1E+10	1	-1E+10	1	-1E+10	1
4901784	52	C	12/06/2016	10:43	-132.434	44.632	0	1515.30	0	2.5180	0	34.5520	0	27.579	0	1497.607	0	28.0	4	8.5	4	-1E+10	1	-1E+10	1	-1E+10	1	-1E+10	1	-1E+10	1	-1E+10	1
4901784	52	C	12/06/2016	10:43	-132.434	44.632	0	1520.50	0	2.5120	0	34.5520	0	27.579	0	1502.727	0	28.1	4	8.6	4	-1E+10	1	-1E+10	1	-1E+10	1	-1E+10	1	-1E+10	1	-1E+10	1
4901784	52	C	12/06/2016	10:43	-132.434	44.632	0	1525.60	0	2.5050	0	34.5530	0	27.581	0	1507.750	0	28.3	4	8.6	4	-1E+10	1	-1E+10	1	-1E+10	1	-1E+10	1	-1E+10	1	-1E+10	1
4901784	52	C	12/06/2016	10:43	-132.434	44.632	0	1530.00	0	2.5020	0	34.5530	0	27.581	0	1512.082	0	28.4	4	8.7	4	-1E+10	1	-1E+10	1	-1E+10	1	-1E+10	1	-1E+10	1	-1E+10	1
4901784	52	C	12/06/2016	10:43	-132.434	44.632	0	1534.40	0	2.4960	0	34.5530	0	27.582	0	1516.415	0	28.7	4	8.8	4	-1E+10	1	-1E+10	1	-1E+10	1	-1E+10	1	-1E+10	1	-1E+10	1
4901784	52	C	12/06/2016	10:43	-132.434	44.632	0	1539.70	0	2.4810	0	34.5550	0	27.585	0	1521.634	0	29.0	4	8.8	4	-1E+10	1	-1E+10	1	-1E+10	1	-1E+10	1	-1E+10	1	-1E+10	1
4901784	52	C	12/06/2016	10:43	-132.434	44.632	0	1545.00	0	2.4730	0	34.5560	0	27.586	0	1526.853	0	29.2	4	8.9	4	-1E+10	1	-1E+10	1	-1E+10	1	-1E+10	1	-1E+10	1	-1E+10	1
4901784	52	C	12/06/2016	10:43	-132.434	44.632	0	1550.30	0	2.4630	0	34.5570	0	27.588	0	1532.071	0	29.5	4	9.0	4	-1E+10	1	-1E+10	1	-1E+10	1	-1E+10	1	-1E+10	1	-1E+10	1
4901784	52	C	12/06/2016	10:43	-132.434	44.632	0	1555.60	0	2.4530	0	34.5570	0	27.589	0	1537.290	0	29.8	4	9.1	4	-1E+10	1	-1E+10	1	-1E+10	1	-1E+10	1	-1E+10	1	-1E+10	1
4901784	52	C	12/06/2016	10:43	-132.434	44.632	0	1560.10	0	2.4380	0	34.5590	0	27.591	0	1541.720	0	30.0	4	9.2	4	-1E+10	1	-1E+10	1	-1E+10	1	-1E+10	1	-1E+10	1	-1E+10	1
4901784	52	C	12/06/2016	10:43	-132.434	44.632	0	1564.60	0	2.4350	0	34.5590	0	27.592	0	1546.151	0	30.2	4	9.2	4	-1E+10	1	-1E+10	1	-1E+10	1	-1E+10	1	-1E+10	1	-1E+10	1
4901784	52	C	12/06/2016	10:43	-132.434	44.632	0	1570.10	0	2.4300	0	34.5600	0	27.593	0	1551.566	0	30.4	4	9.3	4	-1E+10	1	-1E+10	1	-1E+10	1	-1E+10	1	-1E+10	1	-1E+10	1
4901784	52	C	12/06/2016	10:43	-132.434	44.632	0	1575.50	0	2.4220	0	34.5600	0	27.594	0	1556.882	0	30.7	4	9.4	4	-1E+10	1	-1E+10	1	-1E+10	1	-1E+10	1	-1E+10	1	-1E+10	1
4901784	52	C	12/06/2016	10:43	-132.434	44.632	0	1580.10	0	2.4140	0	34.5610	0	27.595	0	1561.411	0	31.0	4	9.4	4	-1E+10	1	-1E+10	1	-1E+10	1	-1E+10	1	-1E+10	1	-1E+10	1
4901784	52	C	12/06/2016	10:43	-132.434	44.632	0	1584.70	0	2.4010	0	34.5630	0	27.598	0	1565.939	0	31.4	4	9.6	4	-1E+10	1	-1E+10	1	-1E+10	1	-1E+10	1	-1E+10	1	-1E+10	1
4901784	52	C	12/06/2016	10:43	-132.434	44.632	0	1590.20	0	2.3890	0	34.5640	0	27.600	0	1571.354	0	31.8	4	9.7	4	-1E+10	1	-1E+10	1	-1E+10	1	-1E+10	1	-1E+10	1	-1E+10	1
4901784	52	C	12/06/2016	10:43	-132.434	44.632	0	1594.80	0	2.3820	0	34.5650	0	27.601	0	1575.882	0	32.1	4	9.8	4	-1E+10	1	-1E+10	1	-1E+10	1	-1E+10	1	-1E+10	1	-1E+10	1
4901784	52	C	12/06/2016	10:43	-132.434	44.632	0	1599.70	0	2.3740	0	34.5660	0	27.603	0	1580.706	0	32.4	4	9.9	4	-1E+10	1	-1E+10	1	-1E+10	1	-1E+10	1	-1E+10	1	-1E+10	1
4901784	52	C	12/06/2016	10:43	-132.434	44.632	0	1605.00	0	2.3640	0	34.5670	0	27.604	0	1585.923	0	32.8	4	10.0	4	-1E+10	1	-1E+10	1	-1E+10	1	-1E+10	1	-1E+10	1	-1E+10	1
4901784	52	C	12/06/2016	10:43	-132.434	44.632	0	1609.90	0	2.3560	0	34.5680	0	27.606	0	1590.747	0	33.2	4	10.1	4	-1E+10	1	-1E+10	1	-1E+10	1	-1E+10	1	-1E+10	1	-1E+10	1
4901784	52	C	12/06/2016	10:43	-132.434	44.632	0	1614.80	0	2.3450	0	34.5700	0	27.608	0	1595.570	0	33.6	4	10.2	4	-1E+10	1	-1E+10	1	-1E+10	1	-1E+10	1	-1E+10	1	-1E+10	1
4901784	52	C	12/06/2016	10:43	-132.434	44.632	0	1619.70	0	2.3360	0	34.5710	0	27.610	0	1600.393	0	33.9	4	10.3	4	-1E+10	1	-1E+10	1	-1E+10	1	-1E+10	1	-1E+10	1	-1E+10	1
4901784	52	C	12/06/2016	10:43	-132.434	44.632	0	1624.60	0	2.3300	0	34.5720	0	27.611	0	1605.216	0	34.1	4	10.4	4	-1E+10	1	-1E+10	1	-1E+10	1	-1E+10	1	-1E+10	1	-1E+10	1
4901784	52	C	12/06/2016	10:43	-132.434	44.632	0	1629.50	0	2.3260	0	34.5730	0	27.612	0	1610.039	0	34.4	4	10.4	4	-1E+10	1	-1E+10	1	-1E+10	1	-1E+10	1	-1E+10	1	-1E+10	1
4901784	52	C	12/06/2016	10:43	-132.434	44.632	0	1634.50	0	2.3210	0	34.5740	0	27.614	0	1614.960	0	34.7	4	10.5	4	-1E+10	1	-1E+10	1	-1E+10	1	-1E+10	1	-1E+10	1	-1E+10	1
4901784	52	C	12/06/2016	10:43	-132.434	44.632	0	1639.50	0	2.3130	0	34.5750	0	27.615	0	1619.881	0	34.9	4	10.6	4	-1E+10	1	-1E+10	1	-1E+10	1	-1E+10	1	-1E+10	1	-1E+10	1
4901784	52	C	12/06/2016	10:43	-132.434	44.632	0	1644.50	0	2.3060	0	34.5750	0	27.616	0	1624.802	0	35.1	4	10.7	4	-1E+10	1	-1E+10	1	-1E+10	1	-1E+10	1	-1E+10	1	-1E+10	1
4901784	52	C	12/06/2016	10:43	-132.434	44.632	0	1649.60	0	2.3030	0	34.5760	0	27.617	0	1629.822	0	35.3	4	10.7	4	-1E+10	1	-1E+10	1	-1E+10	1	-1E+10	1	-1E+10	1	-1E+10	1
4901784	52	C	12/06/2016	10:43	-132.434	44.632	0	1654.70	0	2.2970	0	34.5770	0	27.618	0	1634.841	0	35.6	4	10.8	4	-1E+10	1	-1E+10	1	-1E+10	1	-1E+10	1	-1E+10	1	-1E+10	1
4901784	52	C	12/06/2016	10:43	-132.434	44.632	0	1659.80	0	2.2910	0	34.5770	0	27.618	0	1639.860	0	35.9	4	10.9	4	-1E+10	1	-1E+10	1	-1E+10	1	-1E+10	1	-1E+10	1	-1E+10	1
4901784	52	C	12/06/2016	10:43	-132.434	44.632	0	1664.90	0	2.2830	0	34.5790	0	27.621	0	1644.879	0	36.4	4	11.1	4	-1E+10	1	-1E+10	1	-1E+10	1	-1E+10	1	-1E+10	1	-1E+10	1
4901784	52	C	12/06/2016	10:43	-132.434	44.632	0	1670.00	0	2.2790	0	34.5800	0	27.622	0	1649.898	0	36.7	4	11.2	4	-1E+10	1	-1E+10	1	-1E+10	1	-1E+10	1	-1E+10	1	-1E+10	1
4901784	52	C	12/06/2016	10:43	-132.434	44.632	0	1675.10	0	2.2750	0	34.5800	0	27.622	0	1654.916	0	37.0	4	11.2	4	-1E+10	1	-1E+10	1	-1E+10	1	-1E+10	1	-1E+10	1	-1E+10	1
4901784	52	C	12/06/2016	10:43	-132.434	44.632	0	1680.20	0	2.2680	0	34.5810	0	27.624	0	1659.935	0	37.3	4	11.3	4	-1E+10	1	-1E+10	1	-1E+10	1	-1E+10	1	-1E+10	1	-1E+10	1
4901784	52	C	12/06/2016	10:43	-132.434	44.632	0	1685.40	0	2.2620	0	34.5820	0	27.625	0	1665.052	0	37.7	4	11.4	4	-1E+10	1	-1E+10	1	-1E+10	1	-1E+10	1	-1E+10	1	-1E+10	1
4901784	52	C	12/06/2016	10:43	-132.434	44.632	0	1690.60	0	2.2560	0	34.5830	0	27.626	0	1670.169	0	38.0	4	11.5	4	-1E+10	1	-1E+10	1	-1E+10	1	-1E+10	1	-1E+10	1	-1E+10	1
4901784	52	C	12/06/2016	10:43	-132.434	44.632	0	1694.90	0	2.2500	0	34.5840	0	27.628	0	1674.400	0	38.4	4	11.6	4	-1E+10	1	-1E+10	1	-1E+10	1	-1E+10	1	-1E+10	1	-1E+10	1
4901784	52	C	12/06/2016	10:43	-132.434	44.632	0	1699.30	0	2.2420	0	34.5850	0	27.629	0	1678.729	0	38.8	4	11.8	4	-1E+10	1	-1E+10	1	-1E+10	1	-1E+10	1	-1E+10	1	-1E+10	1
4901784	52	C	12/06/2016	10:43	-132.434	44.632	0	1704.60	0	2.2350	0	34.5860	0	27.630	0	1683.944	0	39.2	4	11.9	4	-1E+10	1	-1E+10	1	-1E+10	1	-1E+10	1	-1E+10	1	-1E+10	1
4901784	52	C	12/06/2016	10:43	-132.434	44.632	0	1709.90	0	2.2240	0	34.5870	0	27.632	0	1689.158	0	39.6	4	12.0	4	-1E+10	1	-1E+10	1	-1E+10	1	-1E+10	1	-1E+10	1	-1E+10	1
4901784	52	C	12/06/2016	10:43	-132.434	44.632	0	1715.20	0	2.2180	0	34.5880	0	27.633	0	1694.373	0	39.9	4	12.1	4	-1E+10	1	-1E+10	1	-1E+10	1	-1E+10	1	-1E+10	1	-1E+10	1
4901784	52	C	12/06/2016	10:43	-132.434	44.632	0	1720.60	0	2.2110	0	34.5890	0	27.635	0	1699.686	0	40.3	4	12.2	4	-1E+10	1	-1E+10	1	-1E+10	1	-1E+10	1	-1E+10	1	-1E+10	1
4901784	52	C	12/06/2016	10:43	-132.434	44.632	0	1725.10	0	2.2060	0	34.5890	0	27.635	0	1704.113	0	40.6	4	12.3	4	-1E+10	1	-1E+10	1	-1E+10	1	-1E+10	1	-1E+10	1	-1E+10	1
4901784	52	C	12/06/2016	10:43	-132.434	44.632	0	1729.60	0	2.1970	0	34.5910	0	27.638	0	1708.540	0	41.0	4	12.4	4	-1E+10	1	-1E+10	1	-1E+10	1	-1E+10	1	-1E+10	1	-1E+10	1
4901784	52	C	12/06/2016	10:43	-132.434	44.632	0	1735.10	0	2.1880	0	34.5920	0	27.639	0	1713.951	0	41.3	4	12.5	4	-1E+10	1	-1E+10	1	-1E+10	1	-1E+10	1	-1E+10	1	-1E+10	1
4901784	52	C	12/06/2016	10:43	-132.434	44.632	0	1740.60	0	2.1820	0	34.5920	0	27.640	0	1719.362	0	41.7	4	12.6	4	-1E+10	1	-1E+10	1	-1E+10	1	-1E+10	1	-1E+10	1	-1E+10	1
4901784	52	C	12/06/2016	10:43	-132.434	44.632	0	1745.20	0	2.1740	0	34.5930	0	27.641	0	1723.887	0	42.1	4	12.8	4	-1E+10	1	-1E+10	1	-1E+10	1	-1E+10	1	-1E+10	1	-1E+10	1
4901784	52	C	12/06/2016	10:43	-132.434	44.632	0	1749.80	0	2.1650	0	34.5950	0	27.644	0	1728.412	0	42.5	4	12.9	4	-1E+10	1	-1E+10	1	-1E+10	1	-1E+10	1	-1E+10	1	-1E+10	1
4901784	52	C	12/06/2016	10:43	-132.434	44.632	0	1755.00	0	2.1570	0	34.5960	0	27.645	0	1733.527	0	42.9	4	13.0	4	-1E+10	1	-1E+10	1	-1E+10	1	-1E+10	1	-1E+10	1	-1E+10	1
4901784	52	C	12/06/2016	10:43	-132.434	44.632	0	1759.30	0	2.1510	0	34.5970	0	27.646	0	1737.757	0	43.1	4	13.0	4	-1E+10	1	-1E+10	1	-1E+10	1	-1E+10	1	-1E+10	1	-1E+10	1
4901784	52	C	12/06/2016	10:43	-132.434	44.632	0	1764.90	0	2.1460	0	34.5980	0	27.648	0	1743.266	0	43.4	4	13.1	4	-1E+10	1	-1E+10	1	-1E+10	1	-1E+10	1	-1E+10	1	-1E+10	1
4901784	52	C	12/06/2016	10:43	-132.434	44.632	0	1770.60	0	2.1410	0	34.5980	0	27.648	0	1748.872	0	43.7	4	13.2	4	-1E+10	1	-1E+10	1	-1E+10	1	-1E+10	1	-1E+10	1	-1E+10	1
4901784	52	C	12/06/2016	10:43	-132.434	44.632	0	1775.50	0	2.1350	0	34.5990	0	27.649	0	1753.692	0	44.1	4	13.4	4	-1E+10	1	-1E+10	1	-1E+10	1	-1E+10	1	-1E+10	1	-1E+10	1
4901784	52	C	12/06/2016	10:43	-132.434	44.632	0	1780.40	0	2.1300	0	34.6000	0	27.650	0	1758.511	0	44.3	4	13.4	4	-1E+10	1	-1E+10	1	-1E+10	1	-1E+10	1	-1E+10	1	-1E+10	1
4901784	52	C	12/06/2016	10:43	-132.434	44.632	0	1785.30	0	2.1260	0	34.6010	0	27.652	0	1763.331	0	44.6	4	13.5	4	-1E+10	1	-1E+10	1	-1E+10	1	-1E+10	1	-1E+10	1	-1E+10	1
4901784	52	C	12/06/2016	10:43	-132.434	44.632	0	1790.30	0	2.1230	0	34.6010	0	27.652	0	1768.248	0	44.8	4	13.6	4	-1E+10	1	-1E+10	1	-1E+10	1	-1E+10	1	-1E+10	1	-1E+10	1
4901784	52	C	12/06/2016	10:43	-132.434	44.632	0	1795.20	0	2.1190	0	34.6020	0	27.653	0	1773.068	0	45.1	4	13.6	4	-1E+10	1	-1E+10	1	-1E+10	1	-1E+10	1	-1E+10	1	-1E+10	1
4901784	52	C	12/06/2016	10:43	-132.434	44.632	0	1800.10	0	2.1130	0	34.6030	0	27.654	0	1777.887	0	45.5	4	13.7	4	-1E+10	1	-1E+10	1	-1E+10	1	-1E+10	1	-1E+10	1	-1E+10	1
4901784	52	C	12/06/2016	10:43	-132.434	44.632	0	1805.00	0	2.1100	0	34.6030	0	27.655	0	1782.706	0	45.7	4	13.8	4	-1E+10	1	-1E+10	1	-1E+10	1	-1E+10	1	-1E+10	1	-1E+10	1
4901784	52	C	12/06/2016	10:43	-132.434	44.632	0	1810.00	0	2.1060	0	34.6030	0	27.655	0	1787.623	0	46.0	4	13.9	4	-1E+10	1	-1E+10	1	-1E+10	1	-1E+10	1	-1E+10	1	-1E+10	1
4901784	52	C	12/06/2016	10:43	-132.434	44.632	0	1815.00	0	2.0970	0	34.6050	0	27.657	0	1792.540	0	46.4	4	14.0	4	-1E+10	1	-1E+10	1	-1E+10	1	-1E+10	1	-1E+10	1	-1E+10	1
4901784	52	C	12/06/2016	10:43	-132.434	44.632	0	1820.00	0	2.0900	0	34.6060	0	27.659	0	1797.457	0	46.8	4	14.1	4	-1E+10	1	-1E+10	1	-1E+10	1	-1E+10	1	-1E+10	1	-1E+10	1
4901784	52	C	12/06/2016	10:43	-132.434	44.632	0	1825.00	0	2.0870	0	34.6070	0	27.660	0	1802.374	0	47.1	4	14.2	4	-1E+10	1	-1E+10	1	-1E+10	1	-1E+10	1	-1E+10	1	-1E+10	1
4901784	52	C	12/06/2016	10:43	-132.434	44.632	0	1830.00	0	2.0810	0	34.6080	0	27.661	0	1807.291	0	47.5	4	14.4	4	-1E+10	1	-1E+10	1	-1E+10	1	-1E+10	1	-1E+10	1	-1E+10	1
4901784	52	C	12/06/2016	10:43	-132.434	44.632	0	1835.10	0	2.0780	0	34.6080	0	27.661	0	1812.306	0	47.8	4	14.5	4	-1E+10	1	-1E+10	1	-1E+10	1	-1E+10	1	-1E+10	1	-1E+10	1
4901784	52	C	12/06/2016	10:43	-132.434	44.632	0	1840.30	0	2.0700	0	34.6100	0	27.664	0	1817.419	0	48.3	4	14.6	4	-1E+10	1	-1E+10	1	-1E+10	1	-1E+10	1	-1E+10	1	-1E+10	1
4901784	52	C	12/06/2016	10:43	-132.434	44.632	0	1845.40	0	2.0650	0	34.6100	0	27.664	0	1822.434	0	48.6	4	14.7	4	-1E+10	1	-1E+10	1	-1E+10	1	-1E+10	1	-1E+10	1	-1E+10	1
4901784	52	C	12/06/2016	10:43	-132.434	44.632	0	1850.50	0	2.0600	0	34.6110	0	27.665	0	1827.448	0	49.0	4	14.8	4	-1E+10	1	-1E+10	1	-1E+10	1	-1E+10	1	-1E+10	1	-1E+10	1
4901784	52	C	12/06/2016	10:43	-132.434	44.632	0	1855.60	0	2.0550	0	34.6110	0	27.666	0	1832.463	0	49.3	4	14.9	4	-1E+10	1	-1E+10	1	-1E+10	1	-1E+10	1	-1E+10	1	-1E+10	1
4901784	52	C	12/06/2016	10:43	-132.434	44.632	0	1859.90	0	2.0510	0	34.6120	0	27.667	0	1836.691	0	49.6	4	15.0	4	-1E+10	1	-1E+10	1	-1E+10	1	-1E+10	1	-1E+10	1	-1E+10	1
4901784	52	C	12/06/2016	10:43	-132.434	44.632	0	1864.20	0	2.0480	0	34.6120	0	27.667	0	1840.918	0	49.9	4	15.1	4	-1E+10	1	-1E+10	1	-1E+10	1	-1E+10	1	-1E+10	1	-1E+10	1
4901784	52	C	12/06/2016	10:43	-132.434	44.632	0	1869.30	0	2.0440	0	34.6130	0	27.668	0	1845.933	0	50.2	4	15.2	4	-1E+10	1	-1E+10	1	-1E+10	1	-1E+10	1	-1E+10	1	-1E+10	1
4901784	52	C	12/06/2016	10:43	-132.434	44.632	0	1874.60	0	2.0380	0	34.6140	0	27.669	0	1851.143	0	50.7	4	15.3	4	-1E+10	1	-1E+10	1	-1E+10	1	-1E+10	1	-1E+10	1	-1E+10	1
4901784	52	C	12/06/2016	10:43	-132.434	44.632	0	1879.80	0	2.0330	0	34.6150	0	27.671	0	1856.255	0	51.0	4	15.4	4	-1E+10	1	-1E+10	1	-1E+10	1	-1E+10	1	-1E+10	1	-1E+10	1
4901784	52	C	12/06/2016	10:43	-132.434	44.632	0	1885.00	0	2.0290	0	34.6160	0	27.672	0	1861.368	0	51.4	4	15.5	4	-1E+10	1	-1E+10	1	-1E+10	1	-1E+10	1	-1E+10	1	-1E+10	1
4901784	52	C	12/06/2016	10:43	-132.434	44.632	0	1890.30	0	2.0230	0	34.6170	0	27.673	0	1866.578	0	51.8	4	15.6	4	-1E+10	1	-1E+10	1	-1E+10	1	-1E+10	1	-1E+10	1	-1E+10	1
4901784	52	C	12/06/2016	10:43	-132.434	44.632	0	1895.50	0	2.0190	0	34.6180	0	27.674	0	1871.690	0	52.0	4	15.7	4	-1E+10	1	-1E+10	1	-1E+10	1	-1E+10	1	-1E+10	1	-1E+10	1
4901784	52	C	12/06/2016	10:43	-132.434	44.632	0	1900.00	0	2.0160	0	34.6180	0	27.674	0	1876.113	0	52.2	4	15.7	4	-1E+10	1	-1E+10	1	-1E+10	1	-1E+10	1	-1E+10	1	-1E+10	1
4901784	52	C	12/06/2016	10:43	-132.434	44.632	0	1904.50	0	2.0140	0	34.6190	0	27.675	0	1880.537	0	52.3	4	15.8	4	-1E+10	1	-1E+10	1	-1E+10	1	-1E+10	1	-1E+10	1	-1E+10	1
4901784	52	C	12/06/2016	10:43	-132.434	44.632	0	1909.80	0	2.0090	0	34.6190	0	27.676	0	1885.747	0	52.5	4	15.8	4	-1E+10	1	-1E+10	1	-1E+10	1	-1E+10	1	-1E+10	1	-1E+10	1
4901784	52	C	12/06/2016	10:43	-132.434	44.632	0	1915.10	0	2.0060	0	34.6200	0	27.677	0	1890.956	0	52.8	4	15.9	4	-1E+10	1	-1E+10	1	-1E+10	1	-1E+10	1	-1E+10	1	-1E+10	1
4901784	52	C	12/06/2016	10:43	-132.434	44.632	0	1920.60	0	2.0010	0	34.6200	0	27.677	0	1896.363	0	53.2	4	16.0	4	-1E+10	1	-1E+10	1	-1E+10	1	-1E+10	1	-1E+10	1	-1E+10	1
4901784	52	C	12/06/2016	10:43	-132.434	44.632	0	1925.10	0	1.9970	0	34.6210	0	27.678	0	1900.786	0	53.4	4	16.1	4	-1E+10	1	-1E+10	1	-1E+10	1	-1E+10	1	-1E+10	1	-1E+10	1
4901784	52	C	12/06/2016	10:43	-132.434	44.632	0	1929.70	0	1.9950	0	34.6210	0	27.679	0	1905.307	0	53.6	4	16.2	4	-1E+10	1	-1E+10	1	-1E+10	1	-1E+10	1	-1E+10	1	-1E+10	1
4901784	52	C	12/06/2016	10:43	-132.434	44.632	0	1935.10	0	1.9900	0	34.6220	0	27.680	0	1910.615	0	53.9	4	16.3	4	-1E+10	1	-1E+10	1	-1E+10	1	-1E+10	1	-1E+10	1	-1E+10	1
4901784	52	C	12/06/2016	10:43	-132.434	44.632	0	1940.20	0	1.9880	0	34.6220	0	27.680	0	1915.627	0	54.1	4	16.3	4	-1E+10	1	-1E+10	1	-1E+10	1	-1E+10	1	-1E+10	1	-1E+10	1
4901784	52	C	12/06/2016	10:43	-132.434	44.632	0	1944.50	0	1.9850	0	34.6230	0	27.681	0	1919.853	0	54.3	4	16.4	4	-1E+10	1	-1E+10	1	-1E+10	1	-1E+10	1	-1E+10	1	-1E+10	1
4901784	52	C	12/06/2016	10:43	-132.434	44.632	0	1949.30	0	1.9830	0	34.6230	0	27.681	0	1924.571	0	54.6	4	16.4	4	-1E+10	1	-1E+10	1	-1E+10	1	-1E+10	1	-1E+10	1	-1E+10	1
4901784	52	C	12/06/2016	10:43	-132.434	44.632	0	1955.00	0	1.9810	0	34.6240	0	27.682	0	1930.173	0	54.9	4	16.6	4	-1E+10	1	-1E+10	1	-1E+10	1	-1E+10	1	-1E+10	1	-1E+10	1
4901784	52	C	12/06/2016	10:43	-132.434	44.632	0	1960.70	0	1.9760	0	34.6250	0	27.684	0	1935.774	0	55.3	4	16.7	4	-1E+10	1	-1E+10	1	-1E+10	1	-1E+10	1	-1E+10	1	-1E+10	1
4901784	52	C	12/06/2016	10:43	-132.434	44.632	0	1965.70	0	1.9720	0	34.6250	0	27.684	0	1940.688	0	55.6	4	16.8	4	-1E+10	1	-1E+10	1	-1E+10	1	-1E+10	1	-1E+10	1	-1E+10	1
4901784	52	C	12/06/2016	10:43	-132.434	44.632	0	1970.60	0	1.9670	0	34.6260	0	27.685	0	1945.503	0	56.0	4	16.9	4	-1E+10	1	-1E+10	1	-1E+10	1	-1E+10	1	-1E+10	1	-1E+10	1
4901784	52	C	12/06/2016	10:43	-132.434	44.632	0	1975.60	0	1.9620	0	34.6260	0	27.685	0	1950.417	0	56.2	4	16.9	4	-1E+10	1	-1E+10	1	-1E+10	1	-1E+10	1	-1E+10	1	-1E+10	1
4901784	52	C	12/06/2016	10:43	-132.434	44.632	0	1980.60	0	1.9600	0	34.6270	0	27.686	0	1955.330	0	56.4	4	17.0	4	-1E+10	1	-1E+10	1	-1E+10	1	-1E+10	1	-1E+10	1	-1E+10	1
4901784	52	C	12/06/2016	10:43	-132.434	44.632	0	1985.70	0	1.9570	0	34.6270	0	27.687	0	1960.342	0	56.7	4	17.1	4	-1E+10	1	-1E+10	1	-1E+10	1	-1E+10	1	-1E+10	1	-1E+10	1
4901784	52	C	12/06/2016	10:43	-132.434	44.632	0	1990.70	0	1.9540	0	34.6280	0	27.688	0	1965.255	0	56.8	4	17.1	4	-1E+10	1	-1E+10	1	-1E+10	1	-1E+10	1	-1E+10	1	-1E+10	1
4901784	52	C	12/06/2016	10:43	-132.434	44.632	0	1995.00	0	1.9540	0	34.6280	0	27.688	0	1969.480	0	56.9	4	17.2	4	-1E+10	1	-1E+10	1	-1E+10	1	-1E+10	1	-1E+10	1	-1E+10	1
4901784	52	C	12/06/2016	10:43	-132.434	44.632	0	1999.20	0	1.9520	0	34.6280	0	27.688	0	1973.607	0	57.1	4	17.2	4	-1E+10	1	-1E+10	1	-1E+10	1	-1E+10	1	-1E+10	1	-1E+10	1
4901784	52	C	12/06/2016	10:43	-132.434	44.632	0	2004.30	0	1.9500	0	34.6290	0	27.689	0	1978.618	0	57.2	4	17.2	4	-1E+10	1	-1E+10	1	-1E+10	1	-1E+10	1	-1E+10	1	-1E+10	1
4901784	52	C	12/06/2016	10:43	-132.434	44.632	0	2010.00	0	1.9480	0	34.6290	0	27.689	0	1984.218	0	57.4	4	17.3	4	-1E+10	1	-1E+10	1	-1E+10	1	-1E+10	1	-1E+10	1	-1E+10	1
4901784	52	C	12/06/2016	10:43	-132.434	44.632	0	2014.80	0	1.9470	0	34.6290	0	27.689	0	1988.934	0	57.6	4	17.4	4	-1E+10	1	-1E+10	1	-1E+10	1	-1E+10	1	-1E+10	1	-1E+10	1
4901784	52	C	12/06/2016	10:43	-132.434	44.632	0	2020.20	0	1.9460	0	34.6300	0	27.690	0	1994.240	0	57.9	4	17.4	4	-1E+10	1	-1E+10	1	-1E+10	1	-1E+10	1	-1E+10	1	-1E+10	1
4901784	52	C	12/06/2016	10:43	-132.434	44.632	0																										
4901784	53	C	12/16/2016	10:42	-132.410	44.551	0	2.70	0	10.8960	0	32.7600	0	25.050	0	2.678	0	261.4	4	95.5	4	-1E+10	1	-1E+10	1	-1E+10	1	-1E+10	1	-1E+10	1	-1E+10	1
4901784	53	C	12/16/2016	10:42	-132.410	44.551	0	4.10	0	10.9000	0	32.7610	0	25.051	0	4.067	0	261.5	4	95.5	4	-1E+10	1	-1E+10	1	-1E+10	1	-1E+10	1	-1E+10	1	-1E+10	1
4901784	53	C	12/16/2016	10:42	-132.410	44.551	0	5.60	0	10.9000	0	32.7610	0	25.051	0	5.555	0	261.4	4	95.5	4	-1E+10	1	-1E+10	1	-1E+10	1	-1E+10	1	-1E+10	1	-1E+10	1
4901784	53	C	12/16/2016	10:42	-132.410	44.551	0	7.10	0	10.9010	0	32.7610	0	25.050	0	7.043	0	261.3	4	95.5	4	-1E+10	1	-1E+10	1	-1E+10	1	-1E+10	1	-1E+10	1	-1E+10	1
4901784	53	C	12/16/2016	10:42	-132.410	44.551	0	8.70	0	10.8980	0	32.7610	0	25.051	0	8.630	0	261.4	4	95.5	4	-1E+10	1	-1E+10	1	-1E+10	1	-1E+10	1	-1E+10	1	-1E+10	1
4901784	53	C	12/16/2016	10:42	-132.410	44.551	0	10.40	0	10.8990	0	32.7600	0	25.050	0	10.316	0	261.2	4	95.4	4	-1E+10	1	-1E+10	1	-1E+10	1	-1E+10	1	-1E+10	1	-1E+10	1
4901784	53	C	12/16/2016	10:42	-132.410	44.551	0	12.10	0	10.8960	0	32.7610	0	25.051	0	12.002	0	261.5	4	95.5	4	-1E+10	1	-1E+10	1	-1E+10	1	-1E+10	1	-1E+10	1	-1E+10	1
4901784	53	C	12/16/2016	10:42	-132.410	44.551	0	13.70	0	10.8950	0	32.7600	0	25.051	0	13.589	0	261.3	4	95.5	4	-1E+10	1	-1E+10	1	-1E+10	1	-1E+10	1	-1E+10	1	-1E+10	1
4901784	53	C	12/16/2016	10:42	-132.410	44.551	0	15.50	0	10.8990	0	32.7610	0	25.051	0	15.374	0	261.2	4	95.4	4	-1E+10	1	-1E+10	1	-1E+10	1	-1E+10	1	-1E+10	1	-1E+10	1
4901784	53	C	12/16/2016	10:42	-132.410	44.551	0	17.30	0	10.9010	0	32.7610	0	25.051	0	17.160	0	261.3	4	95.5	4	-1E+10	1	-1E+10	1	-1E+10	1	-1E+10	1	-1E+10	1	-1E+10	1
4901784	53	C	12/16/2016	10:42	-132.410	44.551	0	19.20	0	10.8990	0	32.7600	0	25.050	0	19.044	0	261.2	4	95.4	4	-1E+10	1	-1E+10	1	-1E+10	1	-1E+10	1	-1E+10	1	-1E+10	1
4901784	53	C	12/16/2016	10:42	-132.410	44.551	0	20.90	0	10.9030	0	32.7610	0	25.050	0	20.730	0	261.2	4	95.4	4	-1E+10	1	-1E+10	1	-1E+10	1	-1E+10	1	-1E+10	1	-1E+10	1
4901784	53	C	12/16/2016	10:42	-132.410	44.551	0	22.80	0	10.8980	0	32.7600	0	25.050	0	22.615	0	261.2	4	95.4	4	-1E+10	1	-1E+10	1	-1E+10	1	-1E+10	1	-1E+10	1	-1E+10	1
4901784	53	C	12/16/2016	10:42	-132.410	44.551	0	24.70	0	10.8980	0	32.7590	0	25.050	0	24.499	0	261.1	4	95.4	4	-1E+10	1	-1E+10	1	-1E+10	1	-1E+10	1	-1E+10	1	-1E+10	1
4901784	53	C	12/16/2016	10:42	-132.410	44.551	0	26.60	0	10.8990	0	32.7600	0	25.050	0	26.383	0	261.4	4	95.5	4	-1E+10	1	-1E+10	1	-1E+10	1	-1E+10	1	-1E+10	1	-1E+10	1
4901784	53	C	12/16/2016	10:42	-132.410	44.551	0	28.60	0	10.9010	0	32.7600	0	25.050	0	28.367	0	261.1	4	95.4	4	-1E+10	1	-1E+10	1	-1E+10	1	-1E+10	1	-1E+10	1	-1E+10	1
4901784	53	C	12/16/2016	10:42	-132.410	44.551	0	30.60	0	10.9000	0	32.7600	0	25.050	0	30.351	0	261.1	4	95.4	4	-1E+10	1	-1E+10	1	-1E+10	1	-1E+10	1	-1E+10	1	-1E+10	1
4901784	53	C	12/16/2016	10:42	-132.410	44.551	0	32.50	0	10.9020	0	32.7610	0	25.051	0	32.235	0	260.9	4	95.3	4	-1E+10	1	-1E+10	1	-1E+10	1	-1E+10	1	-1E+10	1	-1E+10	1
4901784	53	C	12/16/2016	10:42	-132.410	44.551	0	34.50	0	10.9060	0	32.7630	0	25.052	0	34.219	0	261.1	4	95.4	4	-1E+10	1	-1E+10	1	-1E+10	1	-1E+10	1	-1E+10	1	-1E+10	1
4901784	53	C	12/16/2016	10:42	-132.410	44.551	0	36.20	0	10.9080	0	32.7640	0	25.052	0	35.904	0	260.9	4	95.3	4	-1E+10	1	-1E+10	1	-1E+10	1	-1E+10	1	-1E+10	1	-1E+10	1
4901784	53	C	12/16/2016	10:42	-132.410	44.551	0	38.10	0	10.9010	0	32.7590	0	25.050	0	37.789	0	261.1	4	95.4	4	-1E+10	1	-1E+10	1	-1E+10	1	-1E+10	1	-1E+10	1	-1E+10	1
4901784	53	C	12/16/2016	10:42	-132.410	44.551	0	40.00	0	10.9140	0	32.7630	0	25.050	0	39.673	0	260.8	4	95.3	4	-1E+10	1	-1E+10	1	-1E+10	1	-1E+10	1	-1E+10	1	-1E+10	1
4901784	53	C	12/16/2016	10:42	-132.410	44.551	0	41.80	0	10.9040	0	32.7610	0	25.051	0	41.458	0	260.8	4	95.3	4	-1E+10	1	-1E+10	1	-1E+10	1	-1E+10	1	-1E+10	1	-1E+10	1
4901784	53	C	12/16/2016	10:42	-132.410	44.551	0	43.70	0	10.9020	0	32.7600	0	25.050	0	43.342	0	260.9	4	95.3	4	-1E+10	1	-1E+10	1	-1E+10	1	-1E+10	1	-1E+10	1	-1E+10	1
4901784	53	C	12/16/2016	10:42	-132.410	44.551	0	45.50	0	10.9010	0	32.7600	0	25.050	0	45.128	0	260.8	4	95.3	4	-1E+10	1	-1E+10	1	-1E+10	1	-1E+10	1	-1E+10	1	-1E+10	1
4901784	53	C	12/16/2016	10:42	-132.410	44.551	0	47.30	0	10.9090	0	32.7630	0	25.051	0	46.913	0	260.7	4	95.3	4	-1E+10	1	-1E+10	1	-1E+10	1	-1E+10	1	-1E+10	1	-1E+10	1
4901784	53	C	12/16/2016	10:42	-132.410	44.551	0	49.10	0	10.9140	0	32.7640	0	25.051	0	48.698	0	260.6	4	95.2	4	-1E+10	1	-1E+10	1	-1E+10	1	-1E+10	1	-1E+10	1	-1E+10	1
4901784	53	C	12/16/2016	10:42	-132.410	44.551	0	50.90	0	10.9080	0	32.7620	0	25.051	0	50.483	0	260.5	4	95.2	4	-1E+10	1	-1E+10	1	-1E+10	1	-1E+10	1	-1E+10	1	-1E+10	1
4901784	53	C	12/16/2016	10:42	-132.410	44.551	0	52.70	0	10.9100	0	32.7620	0	25.051	0	52.268	0	260.7	4	95.2	4	-1E+10	1	-1E+10	1	-1E+10	1	-1E+10	1	-1E+10	1	-1E+10	1
4901784	53	C	12/16/2016	10:42	-132.410	44.551	0	54.50	0	10.9190	0	32.7650	0	25.051	0	54.053	0	260.3	4	95.1	4	-1E+10	1	-1E+10	1	-1E+10	1	-1E+10	1	-1E+10	1	-1E+10	1
4901784	53	C	12/16/2016	10:42	-132.410	44.551	0	56.40	0	10.9280	0	32.7670	0	25.051	0	55.937	0	260.3	4	95.2	4	-1E+10	1	-1E+10	1	-1E+10	1	-1E+10	1	-1E+10	1	-1E+10	1
4901784	53	C	12/16/2016	10:42	-132.410	44.551	0	58.10	0	10.9300	0	32.7690	0	25.053	0	57.623	0	260.1	4	95.1	4	-1E+10	1	-1E+10	1	-1E+10	1	-1E+10	1	-1E+10	1	-1E+10	1
4901784	53	C	12/16/2016	10:42	-132.410	44.551	0	60.00	0	10.9300	0	32.7700	0	25.053	0	59.507	0	259.9	4	95.0	4	-1E+10	1	-1E+10	1	-1E+10	1	-1E+10	1	-1E+10	1	-1E+10	1
4901784	53	C	12/16/2016	10:42	-132.410	44.551	0	61.70	0	10.9330	0	32.7710	0	25.054	0	61.193	0	260.0	4	95.0	4	-1E+10	1	-1E+10	1	-1E+10	1	-1E+10	1	-1E+10	1	-1E+10	1
4901784	53	C	12/16/2016	10:42	-132.410	44.551	0	63.60	0	10.9490	0	32.7750	0	25.054	0	63.077	0	259.7	4	95.0	4	-1E+10	1	-1E+10	1	-1E+10	1	-1E+10	1	-1E+10	1	-1E+10	1
4901784	53	C	12/16/2016	10:42	-132.410	44.551	0	65.30	0	10.9460	0	32.7770	0	25.056	0	64.762	0	259.4	4	94.9	4	-1E+10	1	-1E+10	1	-1E+10	1	-1E+10	1	-1E+10	1	-1E+10	1
4901784	53	C	12/16/2016	10:42	-132.410	44.551	0	67.30	0	10.9450	0	32.7760	0	25.056	0	66.746	0	259.3	4	94.8	4	-1E+10	1	-1E+10	1	-1E+10	1	-1E+10	1	-1E+10	1	-1E+10	1
4901784	53	C	12/16/2016	10:42	-132.410	44.551	0	69.10	0	10.9440	0	32.7760	0	25.056	0	68.530	0	259.0	4	94.7	4	-1E+10	1	-1E+10	1	-1E+10	1	-1E+10	1	-1E+10	1	-1E+10	1
4901784	53	C	12/16/2016	10:42	-132.410	44.551	0	71.00	0	10.9540	0	32.7770	0	25.055	0	70.414	0	258.8	4	94.7	4	-1E+10	1	-1E+10	1	-1E+10	1	-1E+10	1	-1E+10	1	-1E+10	1
4901784	53	C	12/16/2016	10:42	-132.410	44.551	0	72.80	0	10.9640	0	32.7820	0	25.057	0	72.199	0	258.2	4	94.5	4	-1E+10	1	-1E+10	1	-1E+10	1	-1E+10	1	-1E+10	1	-1E+10	1
4901784	53	C	12/16/2016	10:42	-132.410	44.551	0	75.20	0	10.9630	0	32.7820	0	25.057	0	74.579	0	257.8	4	94.3	4	-1E+10	1	-1E+10	1	-1E+10	1	-1E+10	1	-1E+10	1	-1E+10	1
4901784	53	C	12/16/2016	10:42	-132.410	44.551	0	77.00	0	10.9630	0	32.7830	0	25.058	0	76.364	0	257.2	4	94.1	4	-1E+10	1	-1E+10	1	-1E+10	1	-1E+10	1	-1E+10	1	-1E+10	1
4901784	53	C	12/16/2016	10:42	-132.410	44.551	0	78.50	0	10.9640	0	32.7840	0	25.059	0	77.851	0	256.5	4	93.9	4	-1E+10	1	-1E+10	1	-1E+10	1	-1E+10	1	-1E+10	1	-1E+10	1
4901784	53	C	12/16/2016	10:42	-132.410	44.551	0	80.00	0	10.9660	0	32.7830	0	25.058	0	79.339	0	255.4	4	93.5	4	-1E+10	1	-1E+10	1	-1E+10	1	-1E+10	1	-1E+10	1	-1E+10	1
4901784	53	C	12/16/2016	10:42	-132.410	44.551	0	81.50	0	10.9590	0	32.7810	0	25.057	0	80.826	0	254.1	4	93.0	4	-1E+10	1	-1E+10	1	-1E+10	1	-1E+10	1	-1E+10	1	-1E+10	1
4901784	53	C	12/16/2016	10:42	-132.410	44.551	0	82.90	0	10.9560	0	32.7840	0	25.060	0	82.214	0	252.7	4	92.4	4	-1E+10	1	-1E+10	1	-1E+10	1	-1E+10	1	-1E+10	1	-1E+10	1
4901784	53	C	12/16/2016	10:42	-132.410	44.551	0	84.40	0	10.9050	0	32.7910	0	25.075	0	83.701	0	250.8	4	91.7	4	-1E+10	1	-1E+10	1	-1E+10	1	-1E+10	1	-1E+10	1	-1E+10	1
4901784	53	C	12/16/2016	10:42	-132.410	44.551	0	85.90	0	10.6770	0	32.8100	0	25.129	0	85.189	0	249.4	4	90.7	4	-1E+10	1	-1E+10	1	-1E+10	1	-1E+10	1	-1E+10	1	-1E+10	1
4901784	53	C	12/16/2016	10:42	-132.410	44.551	0	87.40	0	10.3000	0	32.8460	0	25.222	0	86.676	0	248.6	4	89.7	4	-1E+10	1	-1E+10	1	-1E+10	1	-1E+10	1	-1E+10	1	-1E+10	1
4901784	53	C	12/16/2016	10:42	-132.410	44.551	0	89.00	0	9.4100	0	32.9500	0	25.450	0	88.262	0	252.1	4	89.3	4	-1E+10	1	-1E+10	1	-1E+10	1	-1E+10	1	-1E+10	1	-1E+10	1
4901784	53	C	12/16/2016	10:42	-132.410	44.551	0	90.70	0	9.3120	0	32.9610	0	25.474	0	89.948	0	251.6	4	88.9	4	-1E+10	1	-1E+10	1	-1E+10	1	-1E+10	1	-1E+10	1	-1E+10	1
4901784	53	C	12/16/2016	10:42	-132.410	44.551	0	92.40	0	9.2470	0	32.9710	0	25.493	0	91.633	0	251.4	4	88.8	4	-1E+10	1	-1E+10	1	-1E+10	1	-1E+10	1	-1E+10	1	-1E+10	1
4901784	53	C	12/16/2016	10:42	-132.410	44.551	0	94.10	0	9.1890	0	32.9800	0	25.509	0	93.319	0	250.9	4	88.5	4	-1E+10	1	-1E+10	1	-1E+10	1	-1E+10	1	-1E+10	1	-1E+10	1
4901784	53	C	12/16/2016	10:42	-132.410	44.551	0	95.90	0	9.1520	0	32.9860	0	25.519	0	95.103	0	250.5	4	88.3	4	-1E+10	1	-1E+10	1	-1E+10	1	-1E+10	1	-1E+10	1	-1E+10	1
4901784	53	C	12/16/2016	10:42	-132.410	44.551	0	97.50	0	9.1390	0	32.9860	0	25.521	0	96.690	0	249.7	4	88.0	4	-1E+10	1	-1E+10	1	-1E+10	1	-1E+10	1	-1E+10	1	-1E+10	1
4901784	53	C	12/16/2016	10:42	-132.410	44.551	0	99.20	0	9.1120	0	32.9960	0	25.534	0	98.375	0	248.8	4	87.6	4	-1E+10	1	-1E+10	1	-1E+10	1	-1E+10	1	-1E+10	1	-1E+10	1
4901784	53	C	12/16/2016	10:42	-132.410	44.551	0	102.50	0	9.0550	0	33.0200	0	25.561	0	101.647	0	246.5	4	86.7	4	-1E+10	1	-1E+10	1	-1E+10	1	-1E+10	1	-1E+10	1	-1E+10	1
4901784	53	C	12/16/2016	10:42	-132.410	44.551	0	104.70	0	9.0200	0	33.0250	0	25.571	0	103.828	0	245.0	4	86.1	4	-1E+10	1	-1E+10	1	-1E+10	1	-1E+10	1	-1E+10	1	-1E+10	1
4901784	53	C	12/16/2016	10:42	-132.410	44.551	0	107.00	0	9.0000	0	33.0320	0	25.579	0	106.108	0	242.0	4	85.0	4	-1E+10	1	-1E+10	1	-1E+10	1	-1E+10	1	-1E+10	1	-1E+10	1
4901784	53	C	12/16/2016	10:42	-132.410	44.551	0	109.70	0	8.9750	0	33.0580	0	25.604	0	108.785	0	236.6	4	83.1	4	-1E+10	1	-1E+10	1	-1E+10	1	-1E+10	1	-1E+10	1	-1E+10	1
4901784	53	C	12/16/2016	10:42	-132.410	44.551	0	112.50	0	8.9320	0	33.1350	0	25.671	0	111.561	0	230.5	4	80.9	4	-1E+10	1	-1E+10	1	-1E+10	1	-1E+10	1	-1E+10	1	-1E+10	1
4901784	53	C	12/16/2016	10:42	-132.410	44.551	0	115.40	0	8.9330	0	33.1900	0	25.714	0	114.436	0	223.1	4	78.4	4	-1E+10	1	-1E+10	1	-1E+10	1	-1E+10	1	-1E+10	1	-1E+10	1
4901784	53	C	12/16/2016	10:42	-132.410	44.551	0	117.80	0	8.9370	0	33.2980	0	25.798	0	116.815	0	217.4	4	76.4	4	-1E+10	1	-1E+10	1	-1E+10	1	-1E+10	1	-1E+10	1	-1E+10	1
4901784	53	C	12/16/2016	10:42	-132.410	44.551	0	120.20	0	8.9390	0	33.3330	0	25.825	0	119.195	0	212.9	4	74.8	4	-1E+10	1	-1E+10	1	-1E+10	1	-1E+10	1	-1E+10	1	-1E+10	1
4901784	53	C	12/16/2016	10:42	-132.410	44.551	0	122.70	0	8.9330	0	33.4180	0	25.892	0	121.673	0	207.8	4	73.1	4	-1E+10	1	-1E+10	1	-1E+10	1	-1E+10	1	-1E+10	1	-1E+10	1
4901784	53	C	12/16/2016	10:42	-132.410	44.551	0	125.20	0	8.9140	0	33.5110	0	25.968	0	124.151	0	203.1	4	71.5	4	-1E+10	1	-1E+10	1	-1E+10	1	-1E+10	1	-1E+10	1	-1E+10	1
4901784	53	C	12/16/2016	10:42	-132.410	44.551	0	127.80	0	8.8870	0	33.6020	0	26.044	0	126.729	0	199.2	4	70.1	4	-1E+10	1	-1E+10	1	-1E+10	1	-1E+10	1	-1E+10	1	-1E+10	1
4901784	53	C	12/16/2016	10:42	-132.410	44.551	0	129.70	0	8.8630	0	33.6600	0	26.093	0	128.612	0	197.3	4	69.4	4	-1E+10	1	-1E+10	1	-1E+10	1	-1E+10	1	-1E+10	1	-1E+10	1
4901784	53	C	12/16/2016	10:42	-132.410	44.551	0	132.40	0	8.8460	0	33.7030	0	26.129	0	131.289	0	195.0	4	68.6	4	-1E+10	1	-1E+10	1	-1E+10	1	-1E+10	1	-1E+10	1	-1E+10	1
4901784	53	C	12/16/2016	10:42	-132.410	44.551	0	135.00	0	8.8180	0	33.7540	0	26.174	0	133.866	0	192.9	4	67.9	4	-1E+10	1	-1E+10	1	-1E+10	1	-1E+10	1	-1E+10	1	-1E+10	1
4901784	53	C	12/16/2016	10:42	-132.410	44.551	0	137.70	0	8.7760	0	33.7970	0	26.214	0	136.542	0	191.5	4	67.3	4	-1E+10	1	-1E+10	1	-1E+10	1	-1E+10	1	-1E+10	1	-1E+10	1
4901784	53	C	12/16/2016	10:42	-132.410	44.551	0	140.40	0	8.7400	0	33.8240	0	26.241	0	139.219	0	190.4	4	66.9	4	-1E+10	1	-1E+10	1	-1E+10	1	-1E+10	1	-1E+10	1	-1E+10	1
4901784	53	C	12/16/2016	10:42	-132.410	44.551	0	142.10	0	8.7150	0	33.8380	0	26.256	0	140.904	0	189.4	4	66.5	4	-1E+10	1	-1E+10	1	-1E+10	1	-1E+10	1	-1E+10	1	-1E+10	1
4901784	53	C	12/16/2016	10:42	-132.410	44.551	0	144.90	0	8.6400	0	33.8540	0	26.280	0	143.679	0	188.3	4	66.0	4	-1E+10	1	-1E+10	1	-1E+10	1	-1E+10	1	-1E+10	1	-1E+10	1
4901784	53	C	12/16/2016	10:42	-132.410	44.551	0	147.70	0	8.5830	0	33.8630	0	26.296	0	146.455	0	187.3	4	65.6	4	-1E+10	1	-1E+10	1	-1E+10	1	-1E+10	1	-1E+10	1	-1E+10	1
4901784	53	C	12/16/2016	10:42	-132.410	44.551	0	149.50	0	8.5670	0	33.8660	0	26.300	0	148.239	0	186.7	4	65.4	4	-1E+10	1	-1E+10	1	-1E+10	1	-1E+10	1	-1E+10	1	-1E+10	1
4901784	53	C	12/16/2016	10:42	-132.410	44.551	0	152.40	0	8.5060	0	33.8860	0	26.326	0	151.113	0	186.1	4	65.1	4	-1E+10	1	-1E+10	1	-1E+10	1	-1E+10	1	-1E+10	1	-1E+10	1
4901784	53	C	12/16/2016	10:42	-132.410	44.551	0	155.80	0	8.4370	0	33.8960	0	26.344	0	154.483	0	185.4	4	64.7	4	-1E+10	1	-1E+10	1	-1E+10	1	-1E+10	1	-1E+10	1	-1E+10	1
4901784	53	C	12/16/2016	10:42	-132.410	44.551	0	157.70	0	8.4380	0	33.9020	0	26.349	0	156.367	0	185.0	4	64.6	4	-1E+10	1	-1E+10	1	-1E+10	1	-1E+10	1	-1E+10	1	-1E+10	1
4901784	53	C	12/16/2016	10:42	-132.410	44.551	0	160.00	0	8.4070	0	33.9050	0	26.356	0	158.646	0	183.5	4	64.0	4	-1E+10	1	-1E+10	1	-1E+10	1	-1E+10	1	-1E+10	1	-1E+10	1
4901784	53	C	12/16/2016	10:42	-132.410	44.551	0	162.40	0	8.3710	0	33.9080	0	26.363	0	161.025	0	181.6	4	63.3	4	-1E+10	1	-1E+10	1	-1E+10	1	-1E+10	1	-1E+10	1	-1E+10	1
4901784	53	C	12/16/2016	10:42	-132.410	44.551	0	164.70	0	8.2820	0	33.9080	0	26.377	0	163.305	0	180.2	4	62.7	4	-1E+10	1	-1E+10	1	-1E+10	1	-1E+10	1	-1E+10	1	-1E+10	1
4901784	53	C	12/16/2016	10:42	-132.410	44.551	0	167.90	0	8.1800	0	33.9140	0	26.397	0	166.476	0	178.6	4	62.0	4	-1E+10	1	-1E+10	1	-1E+10	1	-1E+10	1	-1E+10	1	-1E+10	1
4901784	53	C	12/16/2016	10:42	-132.410	44.551	0	170.20	0	8.1470	0	33.9160	0	26.404	0	168.756	0	178.0	4	61.8	4	-1E+10	1	-1E+10	1	-1E+10	1	-1E+10	1	-1E+10	1	-1E+10	1
4901784	53	C	12/16/2016	10:42	-132.410	44.551	0	172.60	0	8.0910	0	33.9190	0	26.414	0	171.134	0	177.3	4	61.4	4	-1E+10	1	-1E+10	1	-1E+10	1	-1E+10	1	-1E+10	1	-1E+10	1
4901784	53	C	12/16/2016	10:42	-132.410	44.551	0	175.00	0	8.0290	0	33.9230	0	26.427	0	173.513	0	176.5	4	61.1	4	-1E+10	1	-1E+10	1	-1E+10	1	-1E+10	1	-1E+10	1	-1E+10	1
4901784	53	C	12/16/2016	10:42	-132.410	44.551	0	177.50	0	8.0070	0	33.9240	0	26.431	0	175.991	0	175.2	4	60.6	4	-1E+10	1	-1E+10	1	-1E+10	1	-1E+10	1	-1E+10	1	-1E+10	1
4901784	53	C	12/16/2016	10:42	-132.410	44.551	0	179.90	0	7.9730	0	33.9260	0	26.437	0	178.369	0	173.8	4	60.1	4	-1E+10	1	-1E+10	1	-1E+10	1	-1E+10	1	-1E+10	1	-1E+10	1
4901784	53	C	12/16/2016	10:42	-132.410	44.551	0	182.50	0	7.9620	0	33.9290	0	26.441	0	180.946	0	172.6	4	59.6	4	-1E+10	1	-1E+10	1	-1E+10	1	-1E+10	1	-1E+10	1	-1E+10	1
4901784	53	C	12/16/2016	10:42	-132.410	44.551	0	185.00	0	7.8980	0	33.9300	0	26.451	0	183.424	0	171.2	4	59.1	4	-1E+10	1	-1E+10	1	-1E+10	1	-1E+10	1	-1E+10	1	-1E+10	1
4901784	53	C	12/16/2016	10:42	-132.410	44.551	0	187.50	0	7.8630	0	33.9300	0	26.457	0	185.901	0	170.3	4	58.7	4	-1E+10	1	-1E+10	1	-1E+10	1	-1E+10	1	-1E+10	1	-1E+10	1
4901784	53	C	12/16/2016	10:42	-132.410	44.551	0	190.00	0	7.8190	0	33.9310	0	26.464	0	188.379	0	169.3	4	58.3	4	-1E+10	1	-1E+10	1	-1E+10	1	-1E+10	1	-1E+10	1	-1E+10	1
4901784	53	C	12/16/2016	10:42	-132.410	44.551	0	192.50	0	7.7830	0	33.9330	0	26.471	0	190.856	0	168.3	4	57.9	4	-1E+10	1	-1E+10	1	-1E+10	1	-1E+10	1	-1E+10	1	-1E+10	1
4901784	53	C	12/16/2016	10:42	-132.410	44.551	0	194.90	0	7.7440	0	33.9350	0	26.478	0	193.235	0	167.4	4	57.6	4	-1E+10	1	-1E+10	1	-1E+10	1	-1E+10	1	-1E+10	1	-1E+10	1
4901784	53	C	12/16/2016	10:42	-132.410	44.551	0	197.50	0	7.7000	0	33.9400	0	26.488	0	195.811	0	166.4	4	57.2	4	-1E+10	1	-1E+10	1	-1E+10	1	-1E+10	1	-1E+10	1	-1E+10	1
4901784	53	C	12/16/2016	10:42	-132.410	44.551	0	200.10	0	7.6590	0	33.9420	0	26.496	0	198.388	0	165.6	4	56.8	4	-1E+10	1	-1E+10	1	-1E+10	1	-1E+10	1	-1E+10	1	-1E+10	1
4901784	53	C	12/16/2016	10:42	-132.410	44.551	0	202.60	0	7.6440	0	33.9410	0	26.497	0	200.865	0	164.2	4	56.3	4	-1E+10	1	-1E+10	1	-1E+10	1	-1E+10	1	-1E+10	1	-1E+10	1
4901784	53	C	12/16/2016	10:42	-132.410	44.551	0	205.00	0	7.5960	0	33.9420	0	26.505	0	203.243	0	162.8	4	55.8	4	-1E+10	1	-1E+10	1	-1E+10	1	-1E+10	1	-1E+10	1	-1E+10	1
4901784	53	C	12/16/2016	10:42	-132.410	44.551	0	207.50	0	7.5420	0	33.9430	0	26.513	0	205.721	0	161.2	4	55.2	4	-1E+10	1	-1E+10	1	-1E+10	1	-1E+10	1	-1E+10	1	-1E+10	1
4901784	53	C	12/16/2016	10:42	-132.410	44.551	0	210.10	0	7.5020	0	33.9420	0	26.518	0	208.297	0	160.3	4	54.8	4	-1E+10	1	-1E+10	1	-1E+10	1	-1E+10	1	-1E+10	1	-1E+10	1
4901784	53	C	12/16/2016	10:42	-132.410	44.551	0	212.70	0	7.4870	0	33.9420	0	26.521	0	210.874	0	159.3	4	54.4	4	-1E+10	1	-1E+10	1	-1E+10	1	-1E+10	1	-1E+10	1	-1E+10	1
4901784	53	C	12/16/2016	10:42	-132.410	44.551	0	215.30	0	7.4560	0	33.9410	0	26.524	0	213.450	0	158.1	4	54.0	4	-1E+10	1	-1E+10	1	-1E+10	1	-1E+10	1	-1E+10	1	-1E+10	1
4901784	53	C	12/16/2016	10:42	-132.410	44.551	0	217.10	0	7.4120	0	33.9410	0	26.530	0	215.233	0	157.2	4	53.6	4	-1E+10	1	-1E+10	1	-1E+10	1	-1E+10	1	-1E+10	1	-1E+10	1
4901784	53	C	12/16/2016	10:42	-132.410	44.551	0	219.80	0	7.3460	0	33.9410	0	26.540	0	217.909	0	155.9	4	53.1	4	-1E+10	1	-1E+10	1	-1E+10	1	-1E+10	1	-1E+10	1	-1E+10	1
4901784	53	C	12/16/2016	10:42	-132.410	44.551	0	222.40	0	7.2850	0	33.9420	0	26.549	0	220.485	0	154.8	4	52.7	4	-1E+10	1	-1E+10	1	-1E+10	1	-1E+10	1	-1E+10	1	-1E+10	1
4901784	53	C	12/16/2016	10:42	-132.410	44.551	0	225.10	0	7.2370	0	33.9440	0	26.557	0	223.160	0	153.6	4	52.2	4	-1E+10	1	-1E+10	1	-1E+10	1	-1E+10	1	-1E+10	1	-1E+10	1
4901784	53	C	12/16/2016	10:42	-132.410	44.551	0	227.60	0	7.1910	0	33.9440	0	26.564	0	225.637	0	152.4	4	51.8	4	-1E+10	1	-1E+10	1	-1E+10	1	-1E+10	1	-1E+10	1	-1E+10	1
4901784	53	C	12/16/2016	10:42	-132.410	44.551	0	230.30	0	7.1720	0	33.9430	0	26.566	0	228.313	0	151.0	4	51.3	4	-1E+10	1	-1E+10	1	-1E+10	1	-1E+10	1	-1E+10	1	-1E+10	1
4901784	53	C	12/16/2016	10:42	-132.410	44.551	0	232.90	0	7.1510	0	33.9430	0	26.569	0	230.889	0	149.5	4	50.7	4	-1E+10	1	-1E+10	1	-1E+10	1	-1E+10	1	-1E+10	1	-1E+10	1
4901784	53	C	12/16/2016	10:42	-132.410	44.551	0	234.50	0	7.1360	0	33.9420	0	26.570	0	232.474	0	148.6	4	50.4	4	-1E+10	1	-1E+10	1	-1E+10	1	-1E+10	1	-1E+10	1	-1E+10	1
4901784	53	C	12/16/2016	10:42	-132.410	44.551	0	237.20	0	7.0540	0	33.9450	0	26.584	0	235.149	0	147.7	4	50.0	4	-1E+10	1	-1E+10	1	-1E+10	1	-1E+10	1	-1E+10	1	-1E+10	1
4901784	53	C	12/16/2016	10:42	-132.410	44.551	0	239.80	0	7.0130	0	33.9450	0	26.589	0	237.725	0	146.9	4	49.7	4	-1E+10	1	-1E+10	1	-1E+10	1	-1E+10	1	-1E+10	1	-1E+10	1
4901784	53	C	12/16/2016	10:42	-132.410	44.551	0	242.50	0	6.9940	0	33.9450	0	26.592	0	240.400	0	145.8	4	49.3	4	-1E+10	1	-1E+10	1	-1E+10	1	-1E+10	1	-1E+10	1	-1E+10	1
4901784	53	C	12/16/2016	10:42	-132.410	44.551	0	245.10	0	6.9700	0	33.9440	0	26.594	0	242.976	0	144.8	4	48.9	4	-1E+10	1	-1E+10	1	-1E+10	1	-1E+10	1	-1E+10	1	-1E+10	1
4901784	53	C	12/16/2016	10:42	-132.410	44.551	0	247.90	0	6.9480	0	33.9440	0	26.597	0	245.750	0	143.6	4	48.5	4	-1E+10	1	-1E+10	1	-1E+10	1	-1E+10	1	-1E+10	1	-1E+10	1
4901784	53	C	12/16/2016	10:42	-132.410	44.551	0	250.50	0	6.9130	0	33.9420	0	26.601	0	248.326	0	142.1	4	48.0	4	-1E+10	1	-1E+10	1	-1E+10	1	-1E+10	1	-1E+10	1	-1E+10	1
4901784	53	C	12/16/2016	10:42	-132.410	44.551	0	252.20	0	6.8510	0	33.9450	0	26.611	0	250.011	0	141.4	4	47.6	4	-1E+10	1	-1E+10	1	-1E+10	1	-1E+10	1	-1E+10	1	-1E+10	1
4901784	53	C	12/16/2016	10:42	-132.410	44.551	0	254.80	0	6.8140	0	33.9440	0	26.616	0	252.586	0	140.0	4	47.2	4	-1E+10	1	-1E+10	1	-1E+10	1	-1E+10	1	-1E+10	1	-1E+10	1
4901784	53	C	12/16/2016	10:42	-132.410	44.551	0	257.50	0	6.7430	0	33.9460	0	26.627	0	255.261	0	138.9	4	46.7	4	-1E+10	1	-1E+10	1	-1E+10	1	-1E+10	1	-1E+10	1	-1E+10	1
4901784	53	C	12/16/2016	10:42	-132.410	44.551	0	260.20	0	6.7070	0	33.9450	0	26.631	0	257.936	0	137.7	4	46.2	4	-1E+10	1	-1E+10	1	-1E+10	1	-1E+10	1	-1E+10	1	-1E+10	1
4901784	53	C	12/16/2016	10:42	-132.410	44.551	0	263.00	0	6.6600	0	33.9460	0	26.638	0	260.710	0	136.4	4	45.8	4	-1E+10	1	-1E+10	1	-1E+10	1	-1E+10	1	-1E+10	1	-1E+10	1
4901784	53	C	12/16/2016	10:42	-132.410	44.551	0	264.70	0	6.6460	0	33.9460	0	26.640	0	262.394	0	135.6	4	45.5	4	-1E+10	1	-1E+10	1	-1E+10	1	-1E+10	1	-1E+10	1	-1E+10	1
4901784	53	C	12/16/2016	10:42	-132.410	44.551	0	267.40	0	6.6060	0	33.9480	0	26.647	0	265.069	0	134.7	4	45.1	4	-1E+10	1	-1E+10	1	-1E+10	1	-1E+10	1	-1E+10	1	-1E+10	1
4901784	53	C	12/16/2016	10:42	-132.410	44.551	0	270.10	0	6.5850	0	33.9470	0	26.649	0	267.744	0	133.6	4	44.7	4	-1E+10	1	-1E+10	1	-1E+10	1	-1E+10	1	-1E+10	1	-1E+10	1
4901784	53	C	12/16/2016	10:42	-132.410	44.551	0	272.80	0	6.5690	0	33.9470	0	26.651	0	270.418	0	132.1	4	44.2	4	-1E+10	1	-1E+10	1	-1E+10	1	-1E+10	1	-1E+10	1	-1E+10	1
4901784	53	C	12/16/2016	10:42	-132.410	44.551	0	275.50	0	6.5470	0	33.9470	0	26.654	0	273.093	0	130.0	4	43.5	4	-1E+10	1	-1E+10	1	-1E+10	1	-1E+10	1	-1E+10	1	-1E+10	1
4901784	53	C	12/16/2016	10:42	-132.410	44.551	0	277.30	0	6.5090	0	33.9490	0	26.660	0	274.876	0	128.7	4	43.0	4	-1E+10	1	-1E+10	1	-1E+10	1	-1E+10	1	-1E+10	1	-1E+10	1
4901784	53	C	12/16/2016	10:42	-132.410	44.551	0	280.00	0	6.4660	0	33.9510	0	26.667	0	277.551	0	126.8	4	42.4	4	-1E+10	1	-1E+10	1	-1E+10	1	-1E+10	1	-1E+10	1	-1E+10	1
4901784	53	C	12/16/2016	10:42	-132.410	44.551	0	282.70	0	6.4310	0	33.9520	0	26.673	0	280.225	0	125.0	4	41.7	4	-1E+10	1	-1E+10	1	-1E+10	1	-1E+10	1	-1E+10	1	-1E+10	1
4901784	53	C	12/16/2016	10:42	-132.410	44.551	0	284.50	0	6.4070	0	33.9520	0	26.676	0	282.008	0	123.6	4	41.2	4	-1E+10	1	-1E+10	1	-1E+10	1	-1E+10	1	-1E+10	1	-1E+10	1
4901784	53	C	12/16/2016	10:42	-132.410	44.551	0	287.30	0	6.3800	0	33.9550	0	26.682	0	284.782	0	121.7	4	40.6	4	-1E+10	1	-1E+10	1	-1E+10	1	-1E+10	1	-1E+10	1	-1E+10	1
4901784	53	C	12/16/2016	10:42	-132.410	44.551	0	290.00	0	6.3370	0	33.9540	0	26.687	0	287.456	0	119.9	4	39.9	4	-1E+10	1	-1E+10	1	-1E+10	1	-1E+10	1	-1E+10	1	-1E+10	1
4901784	53	C	12/16/2016	10:42	-132.410	44.551	0	292.80	0	6.3080	0	33.9550	0	26.691	0	290.230	0	118.0	4	39.3	4	-1E+10	1	-1E+10	1	-1E+10	1	-1E+10	1	-1E+10	1	-1E+10	1
4901784	53	C	12/16/2016	10:42	-132.410	44.551	0	295.50	0	6.2450	0	33.9560	0	26.700	0	292.904	0	116.0	4	38.6	4	-1E+10	1	-1E+10	1	-1E+10	1	-1E+10	1	-1E+10	1	-1E+10	1
4901784	53	C	12/16/2016	10:42	-132.410	44.551	0	297.40	0	6.2070	0	33.9580	0	26.706	0	294.786	0	115.0	4	38.2	4	-1E+10	1	-1E+10	1	-1E+10	1	-1E+10	1	-1E+10	1	-1E+10	1
4901784	53	C	12/16/2016	10:42	-132.410	44.551	0	300.20	0	6.1670	0	33.9580	0	26.712	0	297.559	0	113.7	4	37.7	4	-1E+10	1	-1E+10	1	-1E+10	1	-1E+10	1	-1E+10	1	-1E+10	1
4901784	53	C	12/16/2016	10:42	-132.410	44.551	0	303.10	0	6.1380	0	33.9570	0	26.715	0	300.432	0	112.6	4	37.3	4	-1E+10	1	-1E+10	1	-1E+10	1	-1E+10	1	-1E+10	1	-1E+10	1
4901784	53	C	12/16/2016	10:42	-132.410	44.551	0	305.00	0	6.1100	0	33.9580	0	26.719	0	302.314	0	111.9	4	37.1	4	-1E+10	1	-1E+10	1	-1E+10	1	-1E+10	1	-1E+10	1	-1E+10	1
4901784	53	C	12/16/2016	10:42	-132.410	44.551	0	306.90	0	6.0870	0	33.9590	0	26.723	0	304.195	0	111.4	4	36.9	4	-1E+10	1	-1E+10	1	-1E+10	1	-1E+10	1	-1E+10	1	-1E+10	1
4901784	53	C	12/16/2016	10:42	-132.410	44.551	0	309.70	0	6.0770	0	33.9590	0	26.724	0	306.969	0	110.7	4	36.7	4	-1E+10	1	-1E+10	1	-1E+10	1	-1E+10	1	-1E+10	1	-1E+10	1
4901784	53	C	12/16/2016	10:42	-132.410	44.551	0	312.50	0	6.0740	0	33.9580	0	26.723	0	309.742	0	109.8	4	36.4	4	-1E+10	1	-1E+10	1	-1E+10	1	-1E+10	1	-1E+10	1	-1E+10	1
4901784	53	C	12/16/2016	10:42	-132.410	44.551	0	314.40	0	6.0390	0	33.9590	0	26.729	0	311.624	0	109.1	4	36.1	4	-1E+10	1	-1E+10	1	-1E+10	1	-1E+10	1	-1E+10	1	-1E+10	1
4901784	53	C	12/16/2016	10:42	-132.410	44.551	0	317.30	0	6.0150	0	33.9590	0	26.732	0	314.496	0	108.3	4	35.8	4	-1E+10	1	-1E+10	1	-1E+10	1	-1E+10	1	-1E+10	1	-1E+10	1
4901784	53	C	12/16/2016	10:42	-132.410	44.551	0	320.10	0	5.9880	0	33.9600	0	26.736	0	317.269	0	107.4	4	35.5	4	-1E+10	1	-1E+10	1	-1E+10	1	-1E+10	1	-1E+10	1	-1E+10	1
4901784	53	C	12/16/2016	10:42	-132.410	44.551	0	322.00	0	5.9730	0	33.9600	0	26.738	0	319.151	0	106.9	4	35.3	4	-1E+10	1	-1E+10	1	-1E+10	1	-1E+10	1	-1E+10	1	-1E+10	1
4901784	53	C	12/16/2016	10:42	-132.410	44.551	0	324.80	0	5.9660	0	33.9600	0	26.739	0	321.924	0	106.2	4	35.1	4	-1E+10	1	-1E+10	1	-1E+10	1	-1E+10	1	-1E+10	1	-1E+10	1
4901784	53	C	12/16/2016	10:42	-132.410	44.551	0	327.70	0	5.9590	0	33.9600	0	26.740	0	324.796	0	105.3	4	34.8	4	-1E+10	1	-1E+10	1	-1E+10	1	-1E+10	1	-1E+10	1	-1E+10	1
4901784	53	C	12/16/2016	10:42	-132.410	44.551	0	329.60	0	5.9540	0	33.9590	0	26.739	0	326.678	0	104.4	4	34.5	4	-1E+10	1	-1E+10	1	-1E+10	1	-1E+10	1	-1E+10	1	-1E+10	1
4901784	53	C	12/16/2016	10:42	-132.410	44.551	0	332.50	0	5.9120	0	33.9610	0	26.746	0	329.550	0	103.3	4	34.1	4	-1E+10	1	-1E+10	1	-1E+10	1	-1E+10	1	-1E+10	1	-1E+10	1
4901784	53	C	12/16/2016	10:42	-132.410	44.551	0	335.30	0	5.8840	0	33.9620	0	26.751	0	332.322	0	102.3	4	33.7	4	-1E+10	1	-1E+10	1	-1E+10	1	-1E+10	1	-1E+10	1	-1E+10	1
4901784	53	C	12/16/2016	10:42	-132.410	44.551	0	337.20	0	5.8720	0	33.9600	0	26.751	0	334.204	0	101.6	4	33.5	4	-1E+10	1	-1E+10	1	-1E+10	1	-1E+10	1	-1E+10	1	-1E+10	1
4901784	53	C	12/16/2016	10:42	-132.410	44.551	0	340.00	0	5.8330	0	33.9620	0	26.757	0	336.977	0	100.7	4	33.1	4	-1E+10	1	-1E+10	1	-1E+10	1	-1E+10	1	-1E+10	1	-1E+10	1
4901784	53	C	12/16/2016	10:42	-132.410	44.551	0	342.80	0	5.8140	0	33.9610	0	26.759	0	339.750	0	99.7	4	32.8	4	-1E+10	1	-1E+10	1	-1E+10	1	-1E+10	1	-1E+10	1	-1E+10	1
4901784	53	C	12/16/2016	10:42	-132.410	44.551	0	344.70	0	5.7960	0	33.9620	0	26.762	0	341.631	0	98.9	4	32.5	4	-1E+10	1	-1E+10	1	-1E+10	1	-1E+10	1	-1E+10	1	-1E+10	1
4901784	53	C	12/16/2016	10:42	-132.410	44.551	0	347.50	0	5.7730	0	33.9630	0	26.765	0	344.404	0	98.1	4	32.2	4	-1E+10	1	-1E+10	1	-1E+10	1	-1E+10	1	-1E+10	1	-1E+10	1
4901784	53	C	12/16/2016	10:42	-132.410	44.551	0	350.40	0	5.7450	0	33.9630	0	26.769	0	347.276	0	97.3	4	32.0	4	-1E+10	1	-1E+10	1	-1E+10	1	-1E+10	1	-1E+10	1	-1E+10	1
4901784	53	C	12/16/2016	10:42	-132.410	44.551	0	352.20	0	5.7320	0	33.9650	0	26.772	0	349.058	0	96.7	4	31.8	4	-1E+10	1	-1E+10	1	-1E+10	1	-1E+10	1	-1E+10	1	-1E+10	1
4901784	53	C	12/16/2016	10:42	-132.410	44.551	0	355.20	0	5.7120	0	33.9630	0	26.773	0	352.029	0	95.9	4	31.5	4	-1E+10	1	-1E+10	1	-1E+10	1	-1E+10	1	-1E+10	1	-1E+10	1
4901784	53	C	12/16/2016	10:42	-132.410	44.551	0	358.30	0	5.6860	0	33.9640	0	26.777	0	355.098	0	95.0	4	31.2	4	-1E+10	1	-1E+10	1	-1E+10	1	-1E+10	1	-1E+10	1	-1E+10	1
4901784	53	C	12/16/2016	10:42	-132.410	44.551	0	359.70	0	5.6670	0	33.9640	0	26.779	0	356.485	0	94.4	4	31.0	4	-1E+10	1	-1E+10	1	-1E+10	1	-1E+10	1	-1E+10	1	-1E+10	1
4901784	53	C	12/16/2016	10:42	-132.410	44.551	0	362.20	0	5.6400	0	33.9650	0	26.783	0	358.960	0	93.5	4	30.6	4	-1E+10	1	-1E+10	1	-1E+10	1	-1E+10	1	-1E+10	1	-1E+10	1
4901784	53	C	12/16/2016	10:42	-132.410	44.551	0	364.60	0	5.6130	0	33.9650	0	26.786	0	361.337	0	92.5	4	30.3	4	-1E+10	1	-1E+10	1	-1E+10	1	-1E+10	1	-1E+10	1	-1E+10	1
4901784	53	C	12/16/2016	10:42	-132.410	44.551	0	367.90	0	5.5730	0	33.9670	0	26.793	0	364.604	0	91.3	4	29.9	4	-1E+10	1	-1E+10	1	-1E+10	1	-1E+10	1	-1E+10	1	-1E+10	1
4901784	53	C	12/16/2016	10:42	-132.410	44.551	0	370.30	0	5.5520	0	33.9670	0	26.795	0	366.981	0	90.5	4	29.6	4	-1E+10	1	-1E+10	1	-1E+10	1	-1E+10	1	-1E+10	1	-1E+10	1
4901784	53	C	12/16/2016	10:42	-132.410	44.551	0	372.80	0	5.5330	0	33.9680	0	26.798	0	369.456	0	89.5	4	29.3	4	-1E+10	1	-1E+10	1	-1E+10	1	-1E+10	1	-1E+10	1	-1E+10	1
4901784	53	C	12/16/2016	10:42	-132.410	44.551	0	375.20	0	5.5100	0	33.9680	0	26.801	0	371.832	0	88.5	4	28.9	4	-1E+10	1	-1E+10	1	-1E+10	1	-1E+10	1	-1E+10	1	-1E+10	1
4901784	53	C	12/16/2016	10:42	-132.410	44.551	0	377.60	0	5.4800	0	33.9710	0	26.807	0	374.209	0	87.6	4	28.6	4	-1E+10	1	-1E+10	1	-1E+10	1	-1E+10	1	-1E+10	1	-1E+10	1
4901784	53	C	12/16/2016	10:42	-132.410	44.551	0	380.00	0	5.4610	0	33.9710	0	26.809	0	376.585	0	86.7	4	28.3	4	-1E+10	1	-1E+10	1	-1E+10	1	-1E+10	1	-1E+10	1	-1E+10	1
4901784	53	C	12/16/2016	10:42	-132.410	44.551	0	382.50	0	5.4430	0	33.9730	0	26.813	0	379.060	0	85.6	4	27.9	4	-1E+10	1	-1E+10	1	-1E+10	1	-1E+10	1	-1E+10	1	-1E+10	1
4901784	53	C	12/16/2016	10:42	-132.410	44.551	0	384.90	0	5.4230	0	33.9730	0	26.816	0	381.436	0	84.3	4	27.5	4	-1E+10	1	-1E+10	1	-1E+10	1	-1E+10	1	-1E+10	1	-1E+10	1
4901784	53	C	12/16/2016	10:42	-132.410	44.551	0	387.40	0	5.3970	0	33.9770	0	26.822	0	383.912	0	82.9	4	27.0	4	-1E+10	1	-1E+10	1	-1E+10	1	-1E+10	1	-1E+10	1	-1E+10	1
4901784	53	C	12/16/2016	10:42	-132.410	44.551	0	389.80	0	5.3730	0	33.9790	0	26.826	0	386.288	0	81.6	4	26.6	4	-1E+10	1	-1E+10	1	-1E+10	1	-1E+10	1	-1E+10	1	-1E+10	1
4901784	53	C	12/16/2016	10:42	-132.410	44.551	0	392.40	0	5.3490	0	33.9830	0	26.832	0	388.862	0	80.5	4	26.2	4	-1E+10	1	-1E+10	1	-1E+10	1	-1E+10	1	-1E+10	1	-1E+10	1
4901784	53	C	12/16/2016	10:42	-132.410	44.551	0	394.80	0	5.3310	0	33.9840	0	26.835	0	391.238	0	79.4	4	25.8	4	-1E+10	1	-1E+10	1	-1E+10	1	-1E+10	1	-1E+10	1	-1E+10	1
4901784	53	C	12/16/2016	10:42	-132.410	44.551	0	397.30	0	5.3110	0	33.9850	0	26.838	0	393.713	0	78.2	4	25.4	4	-1E+10	1	-1E+10	1	-1E+10	1	-1E+10	1	-1E+10	1	-1E+10	1
4901784	53	C	12/16/2016	10:42	-132.410	44.551	0	399.80	0	5.3000	0	33.9870	0	26.841	0	396.188	0	76.7	4	25.0	4	-1E+10	1	-1E+10	1	-1E+10	1	-1E+10	1	-1E+10	1	-1E+10	1
4901784	53	C	12/16/2016	10:42	-132.410	44.551	0	402.30	0	5.2760	0	33.9920	0	26.848	0	398.663	0	75.1	4	24.4	4	-1E+10	1	-1E+10	1	-1E+10	1	-1E+10	1	-1E+10	1	-1E+10	1
4901784	53	C	12/16/2016	10:42	-132.410	44.551	0	404.80	0	5.2620	0	33.9950	0	26.852	0	401.138	0	73.7	4	23.9	4	-1E+10	1	-1E+10	1	-1E+10	1	-1E+10	1	-1E+10	1	-1E+10	1
4901784	53	C	12/16/2016	10:42	-132.410	44.551	0	407.30	0	5.2540	0	33.9960	0	26.854	0	403.613	0	72.2	4	23.5	4	-1E+10	1	-1E+10	1	-1E+10	1	-1E+10	1	-1E+10	1	-1E+10	1
4901784	53	C	12/16/2016	10:42	-132.410	44.551	0	409.80	0	5.2330	0	34.0010	0	26.860	0	406.088	0	70.8	4	23.0	4	-1E+10	1	-1E+10	1	-1E+10	1	-1E+10	1	-1E+10	1	-1E+10	1
4901784	53	C	12/16/2016	10:42	-132.410	44.551	0	412.40	0	5.2210	0	34.0040	0	26.864	0	408.662	0	69.6	4	22.6	4	-1E+10	1	-1E+10	1	-1E+10	1	-1E+10	1	-1E+10	1	-1E+10	1
4901784	53	C	12/16/2016	10:42	-132.410	44.551	0	414.90	0	5.2040	0	34.0060	0	26.868	0	411.137	0	68.3	4	22.2	4	-1E+10	1	-1E+10	1	-1E+10	1	-1E+10	1	-1E+10	1	-1E+10	1
4901784	53	C	12/16/2016	10:42	-132.410	44.551	0	417.50	0	5.1790	0	34.0090	0	26.873	0	413.710	0	67.4	4	21.8	4	-1E+10	1	-1E+10	1	-1E+10	1	-1E+10	1	-1E+10	1	-1E+10	1
4901784	53	C	12/16/2016	10:42	-132.410	44.551	0	420.00	0	5.1560	0	34.0110	0	26.877	0	416.185	0	66.5	4	21.6	4	-1E+10	1	-1E+10	1	-1E+10	1	-1E+10	1	-1E+10	1	-1E+10	1
4901784	53	C	12/16/2016	10:42	-132.410	44.551	0	422.70	0	5.1380	0	34.0130	0	26.881	0	418.858	0	65.8	4	21.3	4	-1E+10	1	-1E+10	1	-1E+10	1	-1E+10	1	-1E+10	1	-1E+10	1
4901784	53	C	12/16/2016	10:42	-132.410	44.551	0	425.30	0	5.1060	0	34.0150	0	26.886	0	421.432	0	65.1	4	21.1	4	-1E+10	1	-1E+10	1	-1E+10	1	-1E+10	1	-1E+10	1	-1E+10	1
4901784	53	C	12/16/2016	10:42	-132.410	44.551	0	427.00	0	5.1000	0	34.0160	0	26.888	0	423.115	0	64.7	4	20.9	4	-1E+10	1	-1E+10	1	-1E+10	1	-1E+10	1	-1E+10	1	-1E+10	1
4901784	53	C	12/16/2016	10:42	-132.410	44.551	0	429.70	0	5.0840	0	34.0170	0	26.890	0	425.787	0	63.9	4	20.7	4	-1E+10	1	-1E+10	1	-1E+10	1	-1E+10	1	-1E+10	1	-1E+10	1
4901784	53	C	12/16/2016	10:42	-132.410	44.551	0	432.30	0	5.0580	0	34.0180	0	26.894	0	428.361	0	63.1	4	20.4	4	-1E+10	1	-1E+10	1	-1E+10	1	-1E+10	1	-1E+10	1	-1E+10	1
4901784	53	C	12/16/2016	10:42	-132.410	44.551	0	434.90	0	5.0380	0	34.0200	0	26.898	0	430.934	0	62.3	4	20.1	4	-1E+10	1	-1E+10	1	-1E+10	1	-1E+10	1	-1E+10	1	-1E+10	1
4901784	53	C	12/16/2016	10:42	-132.410	44.551	0	437.60	0	5.0220	0	34.0220	0	26.901	0	433.607	0	61.2	4	19.8	4	-1E+10	1	-1E+10	1	-1E+10	1	-1E+10	1	-1E+10	1	-1E+10	1
4901784	53	C	12/16/2016	10:42	-132.410	44.551	0	440.20	0	4.9880	0	34.0260	0	26.908	0	436.181	0	60.3	4	19.5	4	-1E+10	1	-1E+10	1	-1E+10	1	-1E+10	1	-1E+10	1	-1E+10	1
4901784	53	C	12/16/2016	10:42	-132.410	44.551	0	442.90	0	4.9720	0	34.0280	0	26.912	0	438.853	0	59.5	4	19.2	4	-1E+10	1	-1E+10	1	-1E+10	1	-1E+10	1	-1E+10	1	-1E+10	1
4901784	53	C	12/16/2016	10:42	-132.410	44.551	0	444.60	0	4.9510	0	34.0280	0	26.914	0	440.536	0	59.0	4	19.0	4	-1E+10	1	-1E+10	1	-1E+10	1	-1E+10	1	-1E+10	1	-1E+10	1
4901784	53	C	12/16/2016	10:42	-132.410	44.551	0	447.20	0	4.9290	0	34.0300	0	26.918	0	443.109	0	58.3	4	18.8	4	-1E+10	1	-1E+10	1	-1E+10	1	-1E+10	1	-1E+10	1	-1E+10	1
4901784	53	C	12/16/2016	10:42	-132.410	44.551	0	449.90	0	4.9070	0	34.0320	0	26.922	0	445.782	0	57.2	4	18.4	4	-1E+10	1	-1E+10	1	-1E+10	1	-1E+10	1	-1E+10	1	-1E+10	1
4901784	53	C	12/16/2016	10:42	-132.410	44.551	0	452.60	0	4.8830	0	34.0340	0	26.927	0	448.454	0	56.2	4	18.1	4	-1E+10	1	-1E+10	1	-1E+10	1	-1E+10	1	-1E+10	1	-1E+10	1
4901784	53	C	12/16/2016	10:42	-132.410	44.551	0	455.20	0	4.8690	0	34.0370	0	26.931	0	451.027	0	55.1	4	17.7	4	-1E+10	1	-1E+10	1	-1E+10	1	-1E+10	1	-1E+10	1	-1E+10	1
4901784	53	C	12/16/2016	10:42	-132.410	44.551	0	457.00	0	4.8580	0	34.0430	0	26.937	0	452.809	0	54.2	4	17.5	4	-1E+10	1	-1E+10	1	-1E+10	1	-1E+10	1	-1E+10	1	-1E+10	1
4901784	53	C	12/16/2016	10:42	-132.410	44.551	0	459.60	0	4.8570	0	34.0450	0	26.938	0	455.382	0	53.7	4	17.3	4	-1E+10	1	-1E+10	1	-1E+10	1	-1E+10	1	-1E+10	1	-1E+10	1
4901784	53	C	12/16/2016	10:42	-132.410	44.551	0	462.30	0	4.8320	0	34.0460	0	26.942	0	458.054	0	53.2	4	17.1	4	-1E+10	1	-1E+10	1	-1E+10	1	-1E+10	1	-1E+10	1	-1E+10	1
4901784	53	C	12/16/2016	10:42	-132.410	44.551	0	465.10	0	4.8240	0	34.0470	0	26.944	0	460.826	0	52.5	4	16.9	4	-1E+10	1	-1E+10	1	-1E+10	1	-1E+10	1	-1E+10	1	-1E+10	1
4901784	53	C	12/16/2016	10:42	-132.410	44.551	0	467.80	0	4.8090	0	34.0490	0	26.947	0	463.498	0	51.6	4	16.6	4	-1E+10	1	-1E+10	1	-1E+10	1	-1E+10	1	-1E+10	1	-1E+10	1
4901784	53	C	12/16/2016	10:42	-132.410	44.551	0	469.60	0	4.8030	0	34.0500	0	26.949	0	465.279	0	50.9	4	16.4	4	-1E+10	1	-1E+10	1	-1E+10	1	-1E+10	1	-1E+10	1	-1E+10	1
4901784	53	C	12/16/2016	10:42	-132.410	44.551	0	472.40	0	4.7920	0	34.0530	0	26.952	0	468.050	0	49.8	4	16.0	4	-1E+10	1	-1E+10	1	-1E+10	1	-1E+10	1	-1E+10	1	-1E+10	1
4901784	53	C	12/16/2016	10:42	-132.410	44.551	0	475.10	0	4.7780	0	34.0570	0	26.957	0	470.722	0	48.8	4	15.7	4	-1E+10	1	-1E+10	1	-1E+10	1	-1E+10	1	-1E+10	1	-1E+10	1
4901784	53	C	12/16/2016	10:42	-132.410	44.551	0	477.90	0	4.7570	0	34.0600	0	26.962	0	473.493	0	47.7	4	15.3	4	-1E+10	1	-1E+10	1	-1E+10	1	-1E+10	1	-1E+10	1	-1E+10	1
4901784	53	C	12/16/2016	10:42	-132.410	44.551	0	480.50	0	4.7430	0	34.0630	0	26.966	0	476.066	0	46.7	4	15.0	4	-1E+10	1	-1E+10	1	-1E+10	1	-1E+10	1	-1E+10	1	-1E+10	1
4901784	53	C	12/16/2016	10:42	-132.410	44.551	0	482.40	0	4.7340	0	34.0660	0	26.969	0	477.947	0	46.1	4	14.8	4	-1E+10	1	-1E+10	1	-1E+10	1	-1E+10	1	-1E+10	1	-1E+10	1
4901784	53	C	12/16/2016	10:42	-132.410	44.551	0	485.10	0	4.7220	0	34.0690	0	26.973	0	480.619	0	45.3	4	14.5	4	-1E+10	1	-1E+10	1	-1E+10	1	-1E+10	1	-1E+10	1	-1E+10	1
4901784	53	C	12/16/2016	10:42	-132.410	44.551	0	487.80	0	4.7130	0	34.0710	0	26.975	0	483.291	0	44.5	4	14.3	4	-1E+10	1	-1E+10	1	-1E+10	1	-1E+10	1	-1E+10	1	-1E+10	1
4901784	53	C	12/16/2016	10:42	-132.410	44.551	0	489.60	0	4.7120	0	34.0710	0	26.975	0	485.072	0	44.0	4	14.1	4	-1E+10	1	-1E+10	1	-1E+10	1	-1E+10	1	-1E+10	1	-1E+10	1
4901784	53	C	12/16/2016	10:42	-132.410	44.551	0	492.30	0	4.7060	0	34.0740	0	26.979	0	487.744	0	43.1	4	13.8	4	-1E+10	1	-1E+10	1	-1E+10	1	-1E+10	1	-1E+10	1	-1E+10	1
4901784	53	C	12/16/2016	10:42	-132.410	44.551	0	495.20	0	4.6980	0	34.0770	0	26.982	0	490.613	0	42.2	4	13.5	4	-1E+10	1	-1E+10	1	-1E+10	1	-1E+10	1	-1E+10	1	-1E+10	1
4901784	53	C	12/16/2016	10:42	-132.410	44.551	0	497.00	0	4.6850	0	34.0790	0	26.985	0	492.395	0	41.5	4	13.3	4	-1E+10	1	-1E+10	1	-1E+10	1	-1E+10	1	-1E+10	1	-1E+10	1
4901784	53	C	12/16/2016	10:42	-132.410	44.551	0	499.80	0	4.6590	0	34.0840	0	26.992	0	495.165	0	40.7	4	13.0	4	-1E+10	1	-1E+10	1	-1E+10	1	-1E+10	1	-1E+10	1	-1E+10	1
4901784	53	C	12/16/2016	10:42	-132.410	44.551	0	504.40	0	4.6460	0	34.0880	0	26.996	0	499.717	0	39.5	4	12.7	4	-1E+10	1	-1E+10	1	-1E+10	1	-1E+10	1	-1E+10	1	-1E+10	1
4901784	53	C	12/16/2016	10:42	-132.410	44.551	0	510.10	0	4.6190	0	34.0940	0	27.004	0	505.357	0	38.4	4	12.3	4	-1E+10	1	-1E+10	1	-1E+10	1	-1E+10	1	-1E+10	1	-1E+10	1
4901784	53	C	12/16/2016	10:42	-132.410	44.551	0	514.80	0	4.5960	0	34.0960	0	27.008	0	510.008	0	37.6	4	12.0	4	-1E+10	1	-1E+10	1	-1E+10	1	-1E+10	1	-1E+10	1	-1E+10	1
4901784	53	C	12/16/2016	10:42	-132.410	44.551	0	519.60	0	4.5750	0	34.1010	0	27.014	0	514.757	0	36.6	4	11.7	4	-1E+10	1	-1E+10	1	-1E+10	1	-1E+10	1	-1E+10	1	-1E+10	1
4901784	53	C	12/16/2016	10:42	-132.410	44.551	0	525.40	0	4.5700	0	34.1060	0	27.019	0	520.496	0	35.3	4	11.3	4	-1E+10	1	-1E+10	1	-1E+10	1	-1E+10	1	-1E+10	1	-1E+10	1
4901784	53	C	12/16/2016	10:42	-132.410	44.551	0	530.20	0	4.5680	0	34.1100	0	27.022	0	525.245	0	34.3	4	11.0	4	-1E+10	1	-1E+10	1	-1E+10	1	-1E+10	1	-1E+10	1	-1E+10	1
4901784	53	C	12/16/2016	10:42	-132.410	44.551	0	534.90	0	4.5440	0	34.1140	0	27.028	0	529.895	0	33.4	4	10.7	4	-1E+10	1	-1E+10	1	-1E+10	1	-1E+10	1	-1E+10	1	-1E+10	1
4901784	53	C	12/16/2016	10:42	-132.410	44.551	0	539.80	0	4.5250	0	34.1170	0	27.033	0	534.743	0	32.4	4	10.4	4	-1E+10	1	-1E+10	1	-1E+10	1	-1E+10	1	-1E+10	1	-1E+10	1
4901784	53	C	12/16/2016	10:42	-132.410	44.551	0	544.60	0	4.5120	0	34.1220	0	27.038	0	539.492	0	31.2	4	10.0	4	-1E+10	1	-1E+10	1	-1E+10	1	-1E+10	1	-1E+10	1	-1E+10	1
4901784	53	C	12/16/2016	10:42	-132.410	44.551	0	550.50	0	4.4890	0	34.1310	0	27.048	0	545.329	0	29.8	4	9.5	4	-1E+10	1	-1E+10	1	-1E+10	1	-1E+10	1	-1E+10	1	-1E+10	1
4901784	53	C	12/16/2016	10:42	-132.410	44.551	0	555.40	0	4.4750	0	34.1360	0	27.053	0	550.176	0	29.0	4	9.3	4	-1E+10	1	-1E+10	1	-1E+10	1	-1E+10	1	-1E+10	1	-1E+10	1
4901784	53	C	12/16/2016	10:42	-132.410	44.551	0	559.30	0	4.4710	0	34.1380	0	27.055	0	554.034	0	28.5	4	9.1	4	-1E+10	1	-1E+10	1	-1E+10	1	-1E+10	1	-1E+10	1	-1E+10	1
4901784	53	C	12/16/2016	10:42	-132.410	44.551	0	564.20	0	4.4550	0	34.1440	0	27.062	0	558.882	0	27.7	4	8.9	4	-1E+10	1	-1E+10	1	-1E+10	1	-1E+10	1	-1E+10	1	-1E+10	1
4901784	53	C	12/16/2016	10:42	-132.410	44.551	0	569.70	0	4.4400	0	34.1480	0	27.067	0	564.322	0	27.0	4	8.6	4	-1E+10	1	-1E+10	1	-1E+10	1	-1E+10	1	-1E+10	1	-1E+10	1
4901784	53	C	12/16/2016	10:42	-132.410	44.551	0	574.50	0	4.4270	0	34.1520	0	27.071	0	569.070	0	26.1	4	8.3	4	-1E+10	1	-1E+10	1	-1E+10	1	-1E+10	1	-1E+10	1	-1E+10	1
4901784	53	C	12/16/2016	10:42	-132.410	44.551	0	579.50	0	4.4090	0	34.1580	0	27.078	0	574.016	0	25.3	4	8.1	4	-1E+10	1	-1E+10	1	-1E+10	1	-1E+10	1	-1E+10	1	-1E+10	1
4901784	53	C	12/16/2016	10:42	-132.410	44.551	0	584.40	0	4.3930	0	34.1620	0	27.083	0	578.863	0	24.6	4	7.8	4	-1E+10	1	-1E+10	1	-1E+10	1	-1E+10	1	-1E+10	1	-1E+10	1
4901784	53	C	12/16/2016	10:42	-132.410	44.551	0	589.30	0	4.3830	0	34.1660	0	27.087	0	583.710	0	23.8	4	7.6	4	-1E+10	1	-1E+10	1	-1E+10	1	-1E+10	1	-1E+10	1	-1E+10	1
4901784	53	C	12/16/2016	10:42	-132.410	44.551	0	594.30	0	4.3550	0	34.1720	0	27.095	0	588.655	0	22.8	4	7.3	4	-1E+10	1	-1E+10	1	-1E+10	1	-1E+10	1	-1E+10	1	-1E+10	1
4901784	53	C	12/16/2016	10:42	-132.410	44.551	0	599.30	0	4.3520	0	34.1790	0	27.101	0	593.601	0	21.9	4	7.0	4	-1E+10	1	-1E+10	1	-1E+10	1	-1E+10	1	-1E+10	1	-1E+10	1
4901784	53	C	12/16/2016	10:42	-132.410	44.551	0	604.40	0	4.3380	0	34.1840	0	27.107	0	598.645	0	21.3	4	6.8	4	-1E+10	1	-1E+10	1	-1E+10	1	-1E+10	1	-1E+10	1	-1E+10	1
4901784	53	C	12/16/2016	10:42	-132.410	44.551	0	609.40	0	4.3180	0	34.1890	0	27.113	0	603.590	0	20.7	4	6.6	4	-1E+10	1	-1E+10	1	-1E+10	1	-1E+10	1	-1E+10	1	-1E+10	1
4901784	53	C	12/16/2016	10:42	-132.410	44.551	0	614.40	0	4.2970	0	34.1940	0	27.119	0	608.535	0	20.1	4	6.4	4	-1E+10	1	-1E+10	1	-1E+10	1	-1E+10	1	-1E+10	1	-1E+10	1
4901784	53	C	12/16/2016	10:42	-132.410	44.551	0	619.50	0	4.2780	0	34.1990	0	27.125	0	613.579	0	19.5	4	6.2	4	-1E+10	1	-1E+10	1	-1E+10	1	-1E+10	1	-1E+10	1	-1E+10	1
4901784	53	C	12/16/2016	10:42	-132.410	44.551	0	624.70	0	4.2520	0	34.2060	0	27.133	0	618.721	0	18.9	4	6.0	4	-1E+10	1	-1E+10	1	-1E+10	1	-1E+10	1	-1E+10	1	-1E+10	1
4901784	53	C	12/16/2016	10:42	-132.410	44.551	0	629.80	0	4.2320	0	34.2110	0	27.139	0	623.765	0	18.3	4	5.8	4	-1E+10	1	-1E+10	1	-1E+10	1	-1E+10	1	-1E+10	1	-1E+10	1
4901784	53	C	12/16/2016	10:42	-132.410	44.551	0	635.00	0	4.2120	0	34.2170	0	27.146	0	628.907	0	18.0	4	5.7	4	-1E+10	1	-1E+10	1	-1E+10	1	-1E+10	1	-1E+10	1	-1E+10	1
4901784	53	C	12/16/2016	10:42	-132.410	44.551	0	640.20	0	4.2030	0	34.2190	0	27.149	0	634.050	0	17.8	4	5.6	4	-1E+10	1	-1E+10	1	-1E+10	1	-1E+10	1	-1E+10	1	-1E+10	1
4901784	53	C	12/16/2016	10:42	-132.410	44.551	0	645.40	0	4.1910	0	34.2220	0	27.153	0	639.192	0	17.5	4	5.5	4	-1E+10	1	-1E+10	1	-1E+10	1	-1E+10	1	-1E+10	1	-1E+10	1
4901784	53	C	12/16/2016	10:42	-132.410	44.551	0	650.70	0	4.1810	0	34.2260	0	27.157	0	644.432	0	17.2	4	5.5	4	-1E+10	1	-1E+10	1	-1E+10	1	-1E+10	1	-1E+10	1	-1E+10	1
4901784	53	C	12/16/2016	10:42	-132.410	44.551	0	655.10	0	4.1770	0	34.2270	0	27.158	0	648.783	0	17.0	4	5.4	4	-1E+10	1	-1E+10	1	-1E+10	1	-1E+10	1	-1E+10	1	-1E+10	1
4901784	53	C	12/16/2016	10:42	-132.410	44.551	0	659.50	0	4.1710	0	34.2290	0	27.160	0	653.134	0	16.8	4	5.3	4	-1E+10	1	-1E+10	1	-1E+10	1	-1E+10	1	-1E+10	1	-1E+10	1
4901784	53	C	12/16/2016	10:42	-132.410	44.551	0	664.90	0	4.1550	0	34.2340	0	27.166	0	658.473	0	16.6	4	5.3	4	-1E+10	1	-1E+10	1	-1E+10	1	-1E+10	1	-1E+10	1	-1E+10	1
4901784	53	C	12/16/2016	10:42	-132.410	44.551	0	670.30	0	4.1480	0	34.2360	0	27.168	0	663.812	0	16.4	4	5.2	4	-1E+10	1	-1E+10	1	-1E+10	1	-1E+10	1	-1E+10	1	-1E+10	1
4901784	53	C	12/16/2016	10:42	-132.410	44.551	0	674.90	0	4.1420	0	34.2370	0	27.170	0	668.361	0	16.2	4	5.1	4	-1E+10	1	-1E+10	1	-1E+10	1	-1E+10	1	-1E+10	1	-1E+10	1
4901784	53	C	12/16/2016	10:42	-132.410	44.551	0	679.50	0	4.1290	0	34.2410	0	27.174	0	672.909	0	15.9	4	5.0	4	-1E+10	1	-1E+10	1	-1E+10	1	-1E+10	1	-1E+10	1	-1E+10	1
4901784	53	C	12/16/2016	10:42	-132.410	44.551	0	685.00	0	4.1150	0	34.2450	0	27.179	0	678.346	0	15.7	4	5.0	4	-1E+10	1	-1E+10	1	-1E+10	1	-1E+10	1	-1E+10	1	-1E+10	1
4901784	53	C	12/16/2016	10:42	-132.410	44.551	0	690.50	0	4.1050	0	34.2480	0	27.182	0	683.784	0	15.4	4	4.9	4	-1E+10	1	-1E+10	1	-1E+10	1	-1E+10	1	-1E+10	1	-1E+10	1
4901784	53	C	12/16/2016	10:42	-132.410	44.551	0	695.00	0	4.0860	0	34.2530	0	27.188	0	688.233	0	15.1	4	4.8	4	-1E+10	1	-1E+10	1	-1E+10	1	-1E+10	1	-1E+10	1	-1E+10	1
4901784	53	C	12/16/2016	10:42	-132.410	44.551	0	699.50	0	4.0760	0	34.2560	0	27.192	0	692.681	0	14.9	4	4.7	4	-1E+10	1	-1E+10	1	-1E+10	1	-1E+10	1	-1E+10	1	-1E+10	1
4901784	53	C	12/16/2016	10:42	-132.410	44.551	0	704.90	0	4.0610	0	34.2590	0	27.196	0	698.020	0	14.6	4	4.6	4	-1E+10	1	-1E+10	1	-1E+10	1	-1E+10	1	-1E+10	1	-1E+10	1
4901784	53	C	12/16/2016	10:42	-132.410	44.551	0	709.70	0	4.0450	0	34.2640	0	27.201	0	702.765	0	14.4	4	4.5	4	-1E+10	1	-1E+10	1	-1E+10	1	-1E+10	1	-1E+10	1	-1E+10	1
4901784	53	C	12/16/2016	10:42	-132.410	44.551	0	715.00	0	4.0250	0	34.2710	0	27.209	0	708.004	0	14.1	4	4.5	4	-1E+10	1	-1E+10	1	-1E+10	1	-1E+10	1	-1E+10	1	-1E+10	1
4901784	53	C	12/16/2016	10:42	-132.410	44.551	0	720.60	0	4.0110	0	34.2750	0	27.214	0	713.540	0	13.8	4	4.4	4	-1E+10	1	-1E+10	1	-1E+10	1	-1E+10	1	-1E+10	1	-1E+10	1
4901784	53	C	12/16/2016	10:42	-132.410	44.551	0	725.40	0	3.9970	0	34.2790	0	27.218	0	718.284	0	13.7	4	4.3	4	-1E+10	1	-1E+10	1	-1E+10	1	-1E+10	1	-1E+10	1	-1E+10	1
4901784	53	C	12/16/2016	10:42	-132.410	44.551	0	730.20	0	3.9920	0	34.2800	0	27.220	0	723.029	0	13.5	4	4.3	4	-1E+10	1	-1E+10	1	-1E+10	1	-1E+10	1	-1E+10	1	-1E+10	1
4901784	53	C	12/16/2016	10:42	-132.410	44.551	0	735.10	0	3.9700	0	34.2860	0	27.227	0	727.872	0	13.2	4	4.2	4	-1E+10	1	-1E+10	1	-1E+10	1	-1E+10	1	-1E+10	1	-1E+10	1
4901784	53	C	12/16/2016	10:42	-132.410	44.551	0	740.00	0	3.9500	0	34.2920	0	27.234	0	732.715	0	13.0	4	4.1	4	-1E+10	1	-1E+10	1	-1E+10	1	-1E+10	1	-1E+10	1	-1E+10	1
4901784	53	C	12/16/2016	10:42	-132.410	44.551	0	745.00	0	3.9340	0	34.2960	0	27.239	0	737.657	0	12.9	4	4.1	4	-1E+10	1	-1E+10	1	-1E+10	1	-1E+10	1	-1E+10	1	-1E+10	1
4901784	53	C	12/16/2016	10:42	-132.410	44.551	0	750.00	0	3.9250	0	34.2990	0	27.242	0	742.599	0	12.8	4	4.0	4	-1E+10	1	-1E+10	1	-1E+10	1	-1E+10	1	-1E+10	1	-1E+10	1
4901784	53	C	12/16/2016	10:42	-132.410	44.551	0	755.10	0	3.9170	0	34.3020	0	27.245	0	747.640	0	12.7	4	4.0	4	-1E+10	1	-1E+10	1	-1E+10	1	-1E+10	1	-1E+10	1	-1E+10	1
4901784	53	C	12/16/2016	10:42	-132.410	44.551	0	760.20	0	3.9130	0	34.3030	0	27.246	0	752.680	0	12.7	4	4.0	4	-1E+10	1	-1E+10	1	-1E+10	1	-1E+10	1	-1E+10	1	-1E+10	1
4901784	53	C	12/16/2016	10:42	-132.410	44.551	0	765.30	0	3.9050	0	34.3050	0	27.249	0	757.720	0	12.6	4	4.0	4	-1E+10	1	-1E+10	1	-1E+10	1	-1E+10	1	-1E+10	1	-1E+10	1
4901784	53	C	12/16/2016	10:42	-132.410	44.551	0	770.50	0	3.8960	0	34.3060	0	27.251	0	762.859	0	12.5	4	3.9	4	-1E+10	1	-1E+10	1	-1E+10	1	-1E+10	1	-1E+10	1	-1E+10	1
4901784	53	C	12/16/2016	10:42	-132.410	44.551	0	774.90	0	3.8830	0	34.3090	0	27.254	0	767.208	0	12.4	4	3.9	4	-1E+10	1	-1E+10	1	-1E+10	1	-1E+10	1	-1E+10	1	-1E+10	1
4901784	53	C	12/16/2016	10:42	-132.410	44.551	0	779.30	0	3.8660	0	34.3140	0	27.260	0	771.556	0	12.3	4	3.9	4	-1E+10	1	-1E+10	1	-1E+10	1	-1E+10	1	-1E+10	1	-1E+10	1
4901784	53	C	12/16/2016	10:42	-132.410	44.551	0	784.50	0	3.8550	0	34.3170	0	27.264	0	776.695	0	12.2	4	3.9	4	-1E+10	1	-1E+10	1	-1E+10	1	-1E+10	1	-1E+10	1	-1E+10	1
4901784	53	C	12/16/2016	10:42	-132.410	44.551	0	789.90	0	3.8520	0	34.3170	0	27.264	0	782.031	0	12.1	4	3.8	4	-1E+10	1	-1E+10	1	-1E+10	1	-1E+10	1	-1E+10	1	-1E+10	1
4901784	53	C	12/16/2016	10:42	-132.410	44.551	0	795.20	0	3.8380	0	34.3210	0	27.268	0	787.268	0	12.0	4	3.8	4	-1E+10	1	-1E+10	1	-1E+10	1	-1E+10	1	-1E+10	1	-1E+10	1
4901784	53	C	12/16/2016	10:42	-132.410	44.551	0	800.60	0	3.8220	0	34.3260	0	27.274	0	792.604	0	11.9	4	3.7	4	-1E+10	1	-1E+10	1	-1E+10	1	-1E+10	1	-1E+10	1	-1E+10	1
4901784	53	C	12/16/2016	10:42	-132.410	44.551	0	805.20	0	3.8130	0	34.3290	0	27.277	0	797.149	0	11.8	4	3.7	4	-1E+10	1	-1E+10	1	-1E+10	1	-1E+10	1	-1E+10	1	-1E+10	1
4901784	53	C	12/16/2016	10:42	-132.410	44.551	0	809.80	0	3.8070	0	34.3310	0	27.280	0	801.694	0	11.8	4	3.7	4	-1E+10	1	-1E+10	1	-1E+10	1	-1E+10	1	-1E+10	1	-1E+10	1
4901784	53	C	12/16/2016	10:42	-132.410	44.551	0	815.40	0	3.7950	0	34.3330	0	27.282	0	807.228	0	11.7	4	3.7	4	-1E+10	1	-1E+10	1	-1E+10	1	-1E+10	1	-1E+10	1	-1E+10	1
4901784	53	C	12/16/2016	10:42	-132.410	44.551	0	820.10	0	3.7800	0	34.3370	0	27.287	0	811.871	0	11.7	4	3.7	4	-1E+10	1	-1E+10	1	-1E+10	1	-1E+10	1	-1E+10	1	-1E+10	1
4901784	53	C	12/16/2016	10:42	-132.410	44.551	0	824.70	0	3.7740	0	34.3380	0	27.289	0	816.416	0	11.6	4	3.7	4	-1E+10	1	-1E+10	1	-1E+10	1	-1E+10	1	-1E+10	1	-1E+10	1
4901784	53	C	12/16/2016	10:42	-132.410	44.551	0	830.20	0	3.7530	0	34.3420	0	27.294	0	821.850	0	11.6	4	3.7	4	-1E+10	1	-1E+10	1	-1E+10	1	-1E+10	1	-1E+10	1	-1E+10	1
4901784	53	C	12/16/2016	10:42	-132.410	44.551	0	834.90	0	3.7420	0	34.3440	0	27.297	0	826.494	0	11.6	4	3.6	4	-1E+10	1	-1E+10	1	-1E+10	1	-1E+10	1	-1E+10	1	-1E+10	1
4901784	53	C	12/16/2016	10:42	-132.410	44.551	0	839.60	0	3.7340	0	34.3450	0	27.298	0	831.137	0	11.6	4	3.6	4	-1E+10	1	-1E+10	1	-1E+10	1	-1E+10	1	-1E+10	1	-1E+10	1
4901784	53	C	12/16/2016	10:42	-132.410	44.551	0	845.00	0	3.7280	0	34.3470	0	27.300	0	836.472	0	11.5	4	3.6	4	-1E+10	1	-1E+10	1	-1E+10	1	-1E+10	1	-1E+10	1	-1E+10	1
4901784	53	C	12/16/2016	10:42	-132.410	44.551	0	849.30	0	3.7250	0	34.3480	0	27.302	0	840.720	0	11.5	4	3.6	4	-1E+10	1	-1E+10	1	-1E+10	1	-1E+10	1	-1E+10	1	-1E+10	1
4901784	53	C	12/16/2016	10:42	-132.410	44.551	0	854.90	0	3.7190	0	34.3490	0	27.303	0	846.252	0	11.5	4	3.6	4	-1E+10	1	-1E+10	1	-1E+10	1	-1E+10	1	-1E+10	1	-1E+10	1
4901784	53	C	12/16/2016	10:42	-132.410	44.551	0	860.60	0	3.7080	0	34.3520	0	27.307	0	851.882	0	11.4	4	3.6	4	-1E+10	1	-1E+10	1	-1E+10	1	-1E+10	1	-1E+10	1	-1E+10	1
4901784	53	C	12/16/2016	10:42	-132.410	44.551	0	865.60	0	3.6920	0	34.3570	0	27.312	0	856.821	0	11.4	4	3.6	4	-1E+10	1	-1E+10	1	-1E+10	1	-1E+10	1	-1E+10	1	-1E+10	1
4901784	53	C	12/16/2016	10:42	-132.410	44.551	0	870.60	0	3.6810	0	34.3600	0	27.316	0	861.760	0	11.3	4	3.5	4	-1E+10	1	-1E+10	1	-1E+10	1	-1E+10	1	-1E+10	1	-1E+10	1
4901784	53	C	12/16/2016	10:42	-132.410	44.551	0	875.60	0	3.6710	0	34.3620	0	27.318	0	866.699	0	11.3	4	3.5	4	-1E+10	1	-1E+10	1	-1E+10	1	-1E+10	1	-1E+10	1	-1E+10	1
4901784	53	C	12/16/2016	10:42	-132.410	44.551	0	880.70	0	3.6660	0	34.3630	0	27.320	0	871.737	0	11.3	4	3.5	4	-1E+10	1	-1E+10	1	-1E+10	1	-1E+10	1	-1E+10	1	-1E+10	1
4901784	53	C	12/16/2016	10:42	-132.410	44.551	0	884.90	0	3.6580	0	34.3650	0	27.322	0	875.885	0	11.3	4	3.5	4	-1E+10	1	-1E+10	1	-1E+10	1	-1E+10	1	-1E+10	1	-1E+10	1
4901784	53	C	12/16/2016	10:42	-132.410	44.551	0	889.20	0	3.6420	0	34.3680	0	27.326	0	880.133	0	11.3	4	3.5	4	-1E+10	1	-1E+10	1	-1E+10	1	-1E+10	1	-1E+10	1	-1E+10	1
4901784	53	C	12/16/2016	10:42	-132.410	44.551	0	894.30	0	3.6260	0	34.3720	0	27.331	0	885.170	0	11.3	4	3.5	4	-1E+10	1	-1E+10	1	-1E+10	1	-1E+10	1	-1E+10	1	-1E+10	1
4901784	53	C	12/16/2016	10:42	-132.410	44.551	0	899.30	0	3.6160	0	34.3760	0	27.335	0	890.108	0	11.3	4	3.6	4	-1E+10	1	-1E+10	1	-1E+10	1	-1E+10	1	-1E+10	1	-1E+10	1
4901784	53	C	12/16/2016	10:42	-132.410	44.551	0	904.40	0	3.6090	0	34.3780	0	27.337	0	895.145	0	11.4	4	3.6	4	-1E+10	1	-1E+10	1	-1E+10	1	-1E+10	1	-1E+10	1	-1E+10	1
4901784	53	C	12/16/2016	10:42	-132.410	44.551	0	909.50	0	3.6010	0	34.3810	0	27.340	0	900.182	0	11.4	4	3.6	4	-1E+10	1	-1E+10	1	-1E+10	1	-1E+10	1	-1E+10	1	-1E+10	1
4901784	53	C	12/16/2016	10:42	-132.410	44.551	0	914.50	0	3.5910	0	34.3840	0	27.344	0	905.120	0	11.4	4	3.6	4	-1E+10	1	-1E+10	1	-1E+10	1	-1E+10	1	-1E+10	1	-1E+10	1
4901784	53	C	12/16/2016	10:42	-132.410	44.551	0	919.60	0	3.5740	0	34.3870	0	27.348	0	910.156	0	11.4	4	3.6	4	-1E+10	1	-1E+10	1	-1E+10	1	-1E+10	1	-1E+10	1	-1E+10	1
4901784	53	C	12/16/2016	10:42	-132.410	44.551	0	924.70	0	3.5610	0	34.3900	0	27.352	0	915.193	0	11.4	4	3.6	4	-1E+10	1	-1E+10	1	-1E+10	1	-1E+10	1	-1E+10	1	-1E+10	1
4901784	53	C	12/16/2016	10:42	-132.410	44.551	0	929.80	0	3.5550	0	34.3910	0	27.353	0	920.229	0	11.5	4	3.6	4	-1E+10	1	-1E+10	1	-1E+10	1	-1E+10	1	-1E+10	1	-1E+10	1
4901784	53	C	12/16/2016	10:42	-132.410	44.551	0	934.90	0	3.5440	0	34.3940	0	27.357	0	925.266	0	11.5	4	3.6	4	-1E+10	1	-1E+10	1	-1E+10	1	-1E+10	1	-1E+10	1	-1E+10	1
4901784	53	C	12/16/2016	10:42	-132.410	44.551	0	940.00	0	3.5360	0	34.3960	0	27.359	0	930.302	0	11.6	4	3.6	4	-1E+10	1	-1E+10	1	-1E+10	1	-1E+10	1	-1E+10	1	-1E+10	1
4901784	53	C	12/16/2016	10:42	-132.410	44.551	0	945.10	0	3.5220	0	34.4000	0	27.364	0	935.338	0	11.7	4	3.6	4	-1E+10	1	-1E+10	1	-1E+10	1	-1E+10	1	-1E+10	1	-1E+10	1
4901784	53	C	12/16/2016	10:42	-132.410	44.551	0	950.30	0	3.5020	0	34.4050	0	27.369	0	940.472	0	11.8	4	3.7	4	-1E+10	1	-1E+10	1	-1E+10	1	-1E+10	1	-1E+10	1	-1E+10	1
4901784	53	C	12/16/2016	10:42	-132.410	44.551	0	955.40	0	3.4870	0	34.4090	0	27.374	0	945.508	0	11.9	4	3.7	4	-1E+10	1	-1E+10	1	-1E+10	1	-1E+10	1	-1E+10	1	-1E+10	1
4901784	53	C	12/16/2016	10:42	-132.410	44.551	0	960.50	0	3.4740	0	34.4120	0	27.378	0	950.544	0	11.9	4	3.7	4	-1E+10	1	-1E+10	1	-1E+10	1	-1E+10	1	-1E+10	1	-1E+10	1
4901784	53	C	12/16/2016	10:42	-132.410	44.551	0	965.70	0	3.4640	0	34.4150	0	27.381	0	955.678	0	12.0	4	3.8	4	-1E+10	1	-1E+10	1	-1E+10	1	-1E+10	1	-1E+10	1	-1E+10	1
4901784	53	C	12/16/2016	10:42	-132.410	44.551	0	970.00	0	3.4540	0	34.4180	0	27.385	0	959.923	0	12.2	4	3.8	4	-1E+10	1	-1E+10	1	-1E+10	1	-1E+10	1	-1E+10	1	-1E+10	1
4901784	53	C	12/16/2016	10:42	-132.410	44.551	0	974.30	0	3.4440	0	34.4210	0	27.388	0	964.169	0	12.3	4	3.8	4	-1E+10	1	-1E+10	1	-1E+10	1	-1E+10	1	-1E+10	1	-1E+10	1
4901784	53	C	12/16/2016	10:42	-132.410	44.551	0	979.40	0	3.4370	0	34.4240	0	27.391	0	969.204	0	12.4	4	3.9	4	-1E+10	1	-1E+10	1	-1E+10	1	-1E+10	1	-1E+10	1	-1E+10	1
4901784	53	C	12/16/2016	10:42	-132.410	44.551	0	984.50	0	3.4180	0	34.4280	0	27.396	0	974.239	0	12.5	4	3.9	4	-1E+10	1	-1E+10	1	-1E+10	1	-1E+10	1	-1E+10	1	-1E+10	1
4901784	53	C	12/16/2016	10:42	-132.410	44.551	0	989.60	0	3.4040	0	34.4320	0	27.401	0	979.274	0	12.6	4	3.9	4	-1E+10	1	-1E+10	1	-1E+10	1	-1E+10	1	-1E+10	1	-1E+10	1
4901784	53	C	12/16/2016	10:42	-132.410	44.551	0	994.70	0	3.3950	0	34.4340	0	27.403	0	984.309	0	12.7	4	3.9	4	-1E+10	1	-1E+10	1	-1E+10	1	-1E+10	1	-1E+10	1	-1E+10	1
4901784	53	C	12/16/2016	10:42	-132.410	44.551	0	999.90	0	3.3830	0	34.4370	0	27.407	0	989.442	0	12.8	4	4.0	4	-1E+10	1	-1E+10	1	-1E+10	1	-1E+10	1	-1E+10	1	-1E+10	1
4901784	53	C	12/16/2016	10:42	-132.410	44.551	0	1005.10	0	3.3770	0	34.4400	0	27.410	0	994.575	0	12.9	4	4.0	4	-1E+10	1	-1E+10	1	-1E+10	1	-1E+10	1	-1E+10	1	-1E+10	1
4901784	53	C	12/16/2016	10:42	-132.410	44.551	0	1010.40	0	3.3700	0	34.4420	0	27.412	0	999.807	0	13.1	4	4.1	4	-1E+10	1	-1E+10	1	-1E+10	1	-1E+10	1	-1E+10	1	-1E+10	1
4901784	53	C	12/16/2016	10:42	-132.410	44.551	0	1015.70	0	3.3630	0	34.4450	0	27.415	0	1005.039	0	13.3	4	4.1	4	-1E+10	1	-1E+10	1	-1E+10	1	-1E+10	1	-1E+10	1	-1E+10	1
4901784	53	C	12/16/2016	10:42	-132.410	44.551	0	1020.10	0	3.3520	0	34.4480	0	27.418	0	1009.382	0	13.4	4	4.2	4	-1E+10	1	-1E+10	1	-1E+10	1	-1E+10	1	-1E+10	1	-1E+10	1
4901784	53	C	12/16/2016	10:42	-132.410	44.551	0	1024.50	0	3.3470	0	34.4490	0	27.420	0	1013.725	0	13.5	4	4.2	4	-1E+10	1	-1E+10	1	-1E+10	1	-1E+10	1	-1E+10	1	-1E+10	1
4901784	53	C	12/16/2016	10:42	-132.410	44.551	0	1029.90	0	3.3310	0	34.4530	0	27.425	0	1019.056	0	13.8	4	4.3	4	-1E+10	1	-1E+10	1	-1E+10	1	-1E+10	1	-1E+10	1	-1E+10	1
4901784	53	C	12/16/2016	10:42	-132.410	44.551	0	1035.20	0	3.3220	0	34.4550	0	27.427	0	1024.287	0	14.0	4	4.3	4	-1E+10	1	-1E+10	1	-1E+10	1	-1E+10	1	-1E+10	1	-1E+10	1
4901784	53	C	12/16/2016	10:42	-132.410	44.551	0	1040.60	0	3.3120	0	34.4570	0	27.430	0	1029.617	0	14.2	4	4.4	4	-1E+10	1	-1E+10	1	-1E+10	1	-1E+10	1	-1E+10	1	-1E+10	1
4901784	53	C	12/16/2016	10:42	-132.410	44.551	0	1045.10	0	3.2990	0	34.4590	0	27.432	0	1034.058	0	14.5	4	4.5	4	-1E+10	1	-1E+10	1	-1E+10	1	-1E+10	1	-1E+10	1	-1E+10	1
4901784	53	C	12/16/2016	10:42	-132.410	44.551	0	1049.70	0	3.2960	0	34.4630	0	27.436	0	1038.598	0	15.1	4	4.7	4	-1E+10	1	-1E+10	1	-1E+10	1	-1E+10	1	-1E+10	1	-1E+10	1
4901784	53	C	12/16/2016	10:42	-132.410	44.551	0	1055.20	0	3.3040	0	34.4680	0	27.439	0	1044.026	0	15.6	4	4.9	4	-1E+10	1	-1E+10	1	-1E+10	1	-1E+10	1	-1E+10	1	-1E+10	1
4901784	53	C	12/16/2016	10:42	-132.410	44.551	0	1059.80	0	3.3080	0	34.4710	0	27.441	0	1048.566	0	16.0	4	5.0	4	-1E+10	1	-1E+10	1	-1E+10	1	-1E+10	1	-1E+10	1	-1E+10	1
4901784	53	C	12/16/2016	10:42	-132.410	44.551	0	1064.30	0	3.3110	0	34.4740	0	27.443	0	1053.007	0	16.2	4	5.0	4	-1E+10	1	-1E+10	1	-1E+10	1	-1E+10	1	-1E+10	1	-1E+10	1
4901784	53	C	12/16/2016	10:42	-132.410	44.551	0	1069.60	0	3.3070	0	34.4760	0	27.445	0	1058.237	0	16.4	4	5.1	4	-1E+10	1	-1E+10	1	-1E+10	1	-1E+10	1	-1E+10	1	-1E+10	1
4901784	53	C	12/16/2016	10:42	-132.410	44.551	0	1074.50	0	3.3020	0	34.4770	0	27.447	0	1063.073	0	16.5	4	5.1	4	-1E+10	1	-1E+10	1	-1E+10	1	-1E+10	1	-1E+10	1	-1E+10	1
4901784	53	C	12/16/2016	10:42	-132.410	44.551	0	1079.40	0	3.2980	0	34.4780	0	27.448	0	1067.908	0	16.6	4	5.2	4	-1E+10	1	-1E+10	1	-1E+10	1	-1E+10	1	-1E+10	1	-1E+10	1
4901784	53	C	12/16/2016	10:42	-132.410	44.551	0	1084.30	0	3.2930	0	34.4790	0	27.449	0	1072.744	0	16.8	4	5.2	4	-1E+10	1	-1E+10	1	-1E+10	1	-1E+10	1	-1E+10	1	-1E+10	1
4901784	53	C	12/16/2016	10:42	-132.410	44.551	0	1089.20	0	3.2850	0	34.4810	0	27.452	0	1077.579	0	17.0	4	5.3	4	-1E+10	1	-1E+10	1	-1E+10	1	-1E+10	1	-1E+10	1	-1E+10	1
4901784	53	C	12/16/2016	10:42	-132.410	44.551	0	1094.20	0	3.2740	0	34.4830	0	27.454	0	1082.513	0	17.2	4	5.3	4	-1E+10	1	-1E+10	1	-1E+10	1	-1E+10	1	-1E+10	1	-1E+10	1
4901784	53	C	12/16/2016	10:42	-132.410	44.551	0	1099.30	0	3.2600	0	34.4850	0	27.457	0	1087.545	0	17.3	4	5.4	4	-1E+10	1	-1E+10	1	-1E+10	1	-1E+10	1	-1E+10	1	-1E+10	1
4901784	53	C	12/16/2016	10:42	-132.410	44.551	0	1104.40	0	3.2460	0	34.4860	0	27.459	0	1092.577	0	17.4	4	5.4	4	-1E+10	1	-1E+10	1	-1E+10	1	-1E+10	1	-1E+10	1	-1E+10	1
4901784	53	C	12/16/2016	10:42	-132.410	44.551	0	1109.50	0	3.2390	0	34.4880	0	27.462	0	1097.609	0	17.5	4	5.4	4	-1E+10	1	-1E+10	1	-1E+10	1	-1E+10	1	-1E+10	1	-1E+10	1
4901784	53	C	12/16/2016	10:42	-132.410	44.551	0	1114.60	0	3.2360	0	34.4880	0	27.462	0	1102.641	0	17.6	4	5.5	4	-1E+10	1	-1E+10	1	-1E+10	1	-1E+10	1	-1E+10	1	-1E+10	1
4901784	53	C	12/16/2016	10:42	-132.410	44.551	0	1119.80	0	3.2360	0	34.4890	0	27.463	0	1107.772	0	17.7	4	5.5	4	-1E+10	1	-1E+10	1	-1E+10	1	-1E+10	1	-1E+10	1	-1E+10	1
4901784	53	C	12/16/2016	10:42	-132.410	44.551	0	1125.10	0	3.2310	0	34.4900	0	27.464	0	1113.001	0	17.7	4	5.5	4	-1E+10	1	-1E+10	1	-1E+10	1	-1E+10	1	-1E+10	1	-1E+10	1
4901784	53	C	12/16/2016	10:42	-132.410	44.551	0	1130.40	0	3.2190	0	34.4910	0	27.466	0	1118.230	0	17.8	4	5.5	4	-1E+10	1	-1E+10	1	-1E+10	1	-1E+10	1	-1E+10	1	-1E+10	1
4901784	53	C	12/16/2016	10:42	-132.410	44.551	0	1135.00	0	3.2110	0	34.4920	0	27.468	0	1122.768	0	17.9	4	5.6	4	-1E+10	1	-1E+10	1	-1E+10	1	-1E+10	1	-1E+10	1	-1E+10	1
4901784	53	C	12/16/2016	10:42	-132.410	44.551	0	1139.50	0	3.2030	0	34.4920	0	27.468	0	1127.207	0	18.0	4	5.6	4	-1E+10	1	-1E+10	1	-1E+10	1	-1E+10	1	-1E+10	1	-1E+10	1
4901784	53	C	12/16/2016	10:42	-132.410	44.551	0	1144.80	0	3.1960	0	34.4940	0	27.471	0	1132.436	0	18.3	4	5.7	4	-1E+10	1	-1E+10	1	-1E+10	1	-1E+10	1	-1E+10	1	-1E+10	1
4901784	53	C	12/16/2016	10:42	-132.410	44.551	0	1150.20	0	3.1920	0	34.4960	0	27.473	0	1137.763	0	18.6	4	5.8	4	-1E+10	1	-1E+10	1	-1E+10	1	-1E+10	1	-1E+10	1	-1E+10	1
4901784	53	C	12/16/2016	10:42	-132.410	44.551	0	1155.70	0	3.2010	0	34.4990	0	27.474	0	1143.188	0	18.9	4	5.9	4	-1E+10	1	-1E+10	1	-1E+10	1	-1E+10	1	-1E+10	1	-1E+10	1
4901784	53	C	12/16/2016	10:42	-132.410	44.551	0	1160.20	0	3.2000	0	34.5010	0	27.476	0	1147.627	0	18.9	4	5.9	4	-1E+10	1	-1E+10	1	-1E+10	1	-1E+10	1	-1E+10	1	-1E+10	1
4901784	53	C	12/16/2016	10:42	-132.410	44.551	0	1164.70	0	3.1870	0	34.5010	0	27.477	0	1152.066	0	18.7	4	5.8	4	-1E+10	1	-1E+10	1	-1E+10	1	-1E+10	1	-1E+10	1	-1E+10	1
4901784	53	C	12/16/2016	10:42	-132.410	44.551	0	1170.20	0	3.1690	0	34.5000	0	27.478	0	1157.491	0	18.7	4	5.8	4	-1E+10	1	-1E+10	1	-1E+10	1	-1E+10	1	-1E+10	1	-1E+10	1
4901784	53	C	12/16/2016	10:42	-132.410	44.551	0	1174.80	0	3.1590	0	34.5000	0	27.479	0	1162.029	0	18.7	4	5.8	4	-1E+10	1	-1E+10	1	-1E+10	1	-1E+10	1	-1E+10	1	-1E+10	1
4901784	53	C	12/16/2016	10:42	-132.410	44.551	0	1179.30	0	3.1470	0	34.5010	0	27.481	0	1166.468	0	18.9	4	5.9	4	-1E+10	1	-1E+10	1	-1E+10	1	-1E+10	1	-1E+10	1	-1E+10	1
4901784	53	C	12/16/2016	10:42	-132.410	44.551	0	1184.60	0	3.1480	0	34.5030	0	27.482	0	1171.695	0	19.1	4	5.9	4	-1E+10	1	-1E+10	1	-1E+10	1	-1E+10	1	-1E+10	1	-1E+10	1
4901784	53	C	12/16/2016	10:42	-132.410	44.551	0	1189.30	0	3.1500	0	34.5030	0	27.482	0	1176.331	0	19.4	4	6.0	4	-1E+10	1	-1E+10	1	-1E+10	1	-1E+10	1	-1E+10	1	-1E+10	1
4901784	53	C	12/16/2016	10:42	-132.410	44.551	0	1194.20	0	3.1640	0	34.5070	0	27.484	0	1181.163	0	19.7	4	6.1	4	-1E+10	1	-1E+10	1	-1E+10	1	-1E+10	1	-1E+10	1	-1E+10	1
4901784	53	C	12/16/2016	10:42	-132.410	44.551	0	1200.00	0	3.1640	0	34.5070	0	27.484	0	1186.884	0	19.8	4	6.1	4	-1E+10	1	-1E+10	1	-1E+10	1	-1E+10	1	-1E+10	1	-1E+10	1
4901784	53	C	12/16/2016	10:42	-132.410	44.551	0	1205.80	0	3.1650	0	34.5070	0	27.484	0	1192.604	0	19.9	4	6.2	4	-1E+10	1	-1E+10	1	-1E+10	1	-1E+10	1	-1E+10	1	-1E+10	1
4901784	53	C	12/16/2016	10:42	-132.410	44.551	0	1210.70	0	3.1560	0	34.5080	0	27.486	0	1197.436	0	20.0	4	6.2	4	-1E+10	1	-1E+10	1	-1E+10	1	-1E+10	1	-1E+10	1	-1E+10	1
4901784	53	C	12/16/2016	10:42	-132.410	44.551	0	1215.80	0	3.1440	0	34.5090	0	27.488	0	1202.466	0	20.1	4	6.2	4	-1E+10	1	-1E+10	1	-1E+10	1	-1E+10	1	-1E+10	1	-1E+10	1
4901784	53	C	12/16/2016	10:42	-132.410	44.551	0	1220.00	0	3.1410	0	34.5100	0	27.489	0	1206.608	0	20.1	4	6.2	4	-1E+10	1	-1E+10	1	-1E+10	1	-1E+10	1	-1E+10	1	-1E+10	1
4901784	53	C	12/16/2016	10:42	-132.410	44.551	0	1224.30	0	3.1340	0	34.5110	0	27.490	0	1210.848	0	20.2	4	6.3	4	-1E+10	1	-1E+10	1	-1E+10	1	-1E+10	1	-1E+10	1	-1E+10	1
4901784	53	C	12/16/2016	10:42	-132.410	44.551	0	1229.50	0	3.1260	0	34.5120	0	27.492	0	1215.976	0	20.4	4	6.3	4	-1E+10	1	-1E+10	1	-1E+10	1	-1E+10	1	-1E+10	1	-1E+10	1
4901784	53	C	12/16/2016	10:42	-132.410	44.551	0	1234.70	0	3.1200	0	34.5130	0	27.493	0	1221.104	0	20.4	4	6.3	4	-1E+10	1	-1E+10	1	-1E+10	1	-1E+10	1	-1E+10	1	-1E+10	1
4901784	53	C	12/16/2016	10:42	-132.410	44.551	0	1239.90	0	3.1120	0	34.5140	0	27.495	0	1226.231	0	20.5	4	6.4	4	-1E+10	1	-1E+10	1	-1E+10	1	-1E+10	1	-1E+10	1	-1E+10	1
4901784	53	C	12/16/2016	10:42	-132.410	44.551	0	1245.20	0	3.1060	0	34.5140	0	27.496	0	1231.457	0	20.6	4	6.4	4	-1E+10	1	-1E+10	1	-1E+10	1	-1E+10	1	-1E+10	1	-1E+10	1
4901784	53	C	12/16/2016	10:42	-132.410	44.551	0	1250.40	0	3.0970	0	34.5140	0	27.496	0	1236.585	0	20.7	4	6.4	4	-1E+10	1	-1E+10	1	-1E+10	1	-1E+10	1	-1E+10	1	-1E+10	1
4901784	53	C	12/16/2016	10:42	-132.410	44.551	0	1255.60	0	3.0920	0	34.5160	0	27.498	0	1241.712	0	20.9	4	6.5	4	-1E+10	1	-1E+10	1	-1E+10	1	-1E+10	1	-1E+10	1	-1E+10	1
4901784	53	C	12/16/2016	10:42	-132.410	44.551	0	1260.00	0	3.0920	0	34.5170	0	27.499	0	1246.050	0	21.1	4	6.5	4	-1E+10	1	-1E+10	1	-1E+10	1	-1E+10	1	-1E+10	1	-1E+10	1
4901784	53	C	12/16/2016	10:42	-132.410	44.551	0	1264.50	0	3.0850	0	34.5190	0	27.502	0	1250.487	0	21.3	4	6.6	4	-1E+10	1	-1E+10	1	-1E+10	1	-1E+10	1	-1E+10	1	-1E+10	1
4901784	53	C	12/16/2016	10:42	-132.410	44.551	0	1269.90	0	3.0820	0	34.5190	0	27.502	0	1255.811	0	21.4	4	6.6	4	-1E+10	1	-1E+10	1	-1E+10	1	-1E+10	1	-1E+10	1	-1E+10	1
4901784	53	C	12/16/2016	10:42	-132.410	44.551	0	1275.30	0	3.0770	0	34.5210	0	27.504	0	1261.135	0	21.7	4	6.7	4	-1E+10	1	-1E+10	1	-1E+10	1	-1E+10	1	-1E+10	1	-1E+10	1
4901784	53	C	12/16/2016	10:42	-132.410	44.551	0	1279.80	0	3.0750	0	34.5220	0	27.505	0	1265.572	0	21.7	4	6.7	4	-1E+10	1	-1E+10	1	-1E+10	1	-1E+10	1	-1E+10	1	-1E+10	1
4901784	53	C	12/16/2016	10:42	-132.410	44.551	0	1284.40	0	3.0660	0	34.5230	0	27.507	0	1270.107	0	21.8	4	6.7	4	-1E+10	1	-1E+10	1	-1E+10	1	-1E+10	1	-1E+10	1	-1E+10	1
4901784	53	C	12/16/2016	10:42	-132.410	44.551	0	1289.90	0	3.0630	0	34.5230	0	27.507	0	1275.529	0	21.9	4	6.8	4	-1E+10	1	-1E+10	1	-1E+10	1	-1E+10	1	-1E+10	1	-1E+10	1
4901784	53	C	12/16/2016	10:42	-132.410	44.551	0	1295.40	0	3.0620	0	34.5240	0	27.508	0	1280.951	0	22.0	4	6.8	4	-1E+10	1	-1E+10	1	-1E+10	1	-1E+10	1	-1E+10	1	-1E+10	1
4901784	53	C	12/16/2016	10:42	-132.410	44.551	0	1300.00	0	3.0450	0	34.5250	0	27.510	0	1285.486	0	22.2	4	6.9	4	-1E+10	1	-1E+10	1	-1E+10	1	-1E+10	1	-1E+10	1	-1E+10	1
4901784	53	C	12/16/2016	10:42	-132.410	44.551	0	1304.50	0	3.0370	0	34.5260	0	27.512	0	1289.922	0	22.4	4	6.9	4	-1E+10	1	-1E+10	1	-1E+10	1	-1E+10	1	-1E+10	1	-1E+10	1
4901784	53	C	12/16/2016	10:42	-132.410	44.551	0	1310.10	0	3.0280	0	34.5280	0	27.514	0	1295.442	0	22.7	4	7.0	4	-1E+10	1	-1E+10	1	-1E+10	1	-1E+10	1	-1E+10	1	-1E+10	1
4901784	53	C	12/16/2016	10:42	-132.410	44.551	0	1315.60	0	3.0190	0	34.5300	0	27.517	0	1300.863	0	22.9	4	7.1	4	-1E+10	1	-1E+10	1	-1E+10	1	-1E+10	1	-1E+10	1	-1E+10	1
4901784	53	C	12/16/2016	10:42	-132.410	44.551	0	1320.10	0	3.0130	0	34.5310	0	27.518	0	1305.299	0	23.1	4	7.1	4	-1E+10	1	-1E+10	1	-1E+10	1	-1E+10	1	-1E+10	1	-1E+10	1
4901784	53	C	12/16/2016	10:42	-132.410	44.551	0	1325.00	0	3.0080	0	34.5320	0	27.519	0	1310.129	0	23.2	4	7.2	4	-1E+10	1	-1E+10	1	-1E+10	1	-1E+10	1	-1E+10	1	-1E+10	1
4901784	53	C	12/16/2016	10:42	-132.410	44.551	0	1330.00	0	2.9880	0	34.5330	0	27.522	0	1315.057	0	23.2	4	7.2	4	-1E+10	1	-1E+10	1	-1E+10	1	-1E+10	1	-1E+10	1	-1E+10	1
4901784	53	C	12/16/2016	10:42	-132.410	44.551	0	1334.80	0	2.9830	0	34.5330	0	27.522	0	1319.788	0	23.4	4	7.2	4	-1E+10	1	-1E+10	1	-1E+10	1	-1E+10	1	-1E+10	1	-1E+10	1
4901784	53	C	12/16/2016	10:42	-132.410	44.551	0	1339.60	0	2.9860	0	34.5350	0	27.524	0	1324.519	0	23.6	4	7.3	4	-1E+10	1	-1E+10	1	-1E+10	1	-1E+10	1	-1E+10	1	-1E+10	1
4901784	53	C	12/16/2016	10:42	-132.410	44.551	0	1344.40	0	2.9870	0	34.5350	0	27.524	0	1329.250	0	23.7	4	7.3	4	-1E+10	1	-1E+10	1	-1E+10	1	-1E+10	1	-1E+10	1	-1E+10	1
4901784	53	C	12/16/2016	10:42	-132.410	44.551	0	1349.40	0	2.9780	0	34.5360	0	27.525	0	1334.178	0	23.7	4	7.3	4	-1E+10	1	-1E+10	1	-1E+10	1	-1E+10	1	-1E+10	1	-1E+10	1
4901784	53	C	12/16/2016	10:42	-132.410	44.551	0	1354.50	0	2.9670	0	34.5360	0	27.526	0	1339.204	0	23.8	4	7.4	4	-1E+10	1	-1E+10	1	-1E+10	1	-1E+10	1	-1E+10	1	-1E+10	1
4901784	53	C	12/16/2016	10:42	-132.410	44.551	0	1359.80	0	2.9570	0	34.5370	0	27.528	0	1344.427	0	23.9	4	7.4	4	-1E+10	1	-1E+10	1	-1E+10	1	-1E+10	1	-1E+10	1	-1E+10	1
4901784	53	C	12/16/2016	10:42	-132.410	44.551	0	1365.10	0	2.9400	0	34.5370	0	27.530	0	1349.650	0	24.0	4	7.4	4	-1E+10	1	-1E+10	1	-1E+10	1	-1E+10	1	-1E+10	1	-1E+10	1
4901784	53	C	12/16/2016	10:42	-132.410	44.551	0	1370.20	0	2.9320	0	34.5380	0	27.531	0	1354.676	0	24.2	4	7.5	4	-1E+10	1	-1E+10	1	-1E+10	1	-1E+10	1	-1E+10	1	-1E+10	1
4901784	53	C	12/16/2016	10:42	-132.410	44.551	0	1375.60	0	2.9240	0	34.5390	0	27.533	0	1359.998	0	24.5	4	7.6	4	-1E+10	1	-1E+10	1	-1E+10	1	-1E+10	1	-1E+10	1	-1E+10	1
4901784	53	C	12/16/2016	10:42	-132.410	44.551	0	1380.00	0	2.9210	0	34.5420	0	27.535	0	1364.334	0	24.7	4	7.6	4	-1E+10	1	-1E+10	1	-1E+10	1	-1E+10	1	-1E+10	1	-1E+10	1
4901784	53	C	12/16/2016	10:42	-132.410	44.551	0	1384.40	0	2.9000	0	34.5420	0	27.537	0	1368.669	0	24.6	4	7.6	4	-1E+10	1	-1E+10	1	-1E+10	1	-1E+10	1	-1E+10	1	-1E+10	1
4901784	53	C	12/16/2016	10:42	-132.410	44.551	0	1389.80	0	2.8880	0	34.5420	0	27.538	0	1373.990	0	24.7	4	7.6	4	-1E+10	1	-1E+10	1	-1E+10	1	-1E+10	1	-1E+10	1	-1E+10	1
4901784	53	C	12/16/2016	10:42	-132.410	44.551	0	1395.10	0	2.8800	0	34.5430	0	27.540	0	1379.213	0	24.9	4	7.7	4	-1E+10	1	-1E+10	1	-1E+10	1	-1E+10	1	-1E+10	1	-1E+10	1
4901784	53	C	12/16/2016	10:42	-132.410	44.551	0	1400.50	0	2.8670	0	34.5440	0	27.542	0	1384.534	0	25.0	4	7.7	4	-1E+10	1	-1E+10	1	-1E+10	1	-1E+10	1	-1E+10	1	-1E+10	1
4901784	53	C	12/16/2016	10:42	-132.410	44.551	0	1405.10	0	2.8580	0	34.5440	0	27.543	0	1389.066	0	25.1	4	7.7	4	-1E+10	1	-1E+10	1	-1E+10	1	-1E+10	1	-1E+10	1	-1E+10	1
4901784	53	C	12/16/2016	10:42	-132.410	44.551	0	1409.50	0	2.8540	0	34.5450	0	27.544	0	1393.401	0	25.1	4	7.7	4	-1E+10	1	-1E+10	1	-1E+10	1	-1E+10	1	-1E+10	1	-1E+10	1
4901784	53	C	12/16/2016	10:42	-132.410	44.551	0	1414.90	0	2.8370	0	34.5450	0	27.545	0	1398.722	0	25.2	4	7.8	4	-1E+10	1	-1E+10	1	-1E+10	1	-1E+10	1	-1E+10	1	-1E+10	1
4901784	53	C	12/16/2016	10:42	-132.410	44.551	0	1420.30	0	2.8300	0	34.5460	0	27.547	0	1404.042	0	25.3	4	7.8	4	-1E+10	1	-1E+10	1	-1E+10	1	-1E+10	1	-1E+10	1	-1E+10	1
4901784	53	C	12/16/2016	10:42	-132.410	44.551	0	1425.70	0	2.8240	0	34.5460	0	27.547	0	1409.362	0	25.2	4	7.8	4	-1E+10	1	-1E+10	1	-1E+10	1	-1E+10	1	-1E+10	1	-1E+10	1
4901784	53	C	12/16/2016	10:42	-132.410	44.551	0	1430.10	0	2.8170	0	34.5460	0	27.548	0	1413.697	0	25.0	4	7.7	4	-1E+10	1	-1E+10	1	-1E+10	1	-1E+10	1	-1E+10	1	-1E+10	1
4901784	53	C	12/16/2016	10:42	-132.410	44.551	0	1434.70	0	2.7870	0	34.5440	0	27.549	0	1418.229	0	24.8	4	7.6	4	-1E+10	1	-1E+10	1	-1E+10	1	-1E+10	1	-1E+10	1	-1E+10	1
4901784	53	C	12/16/2016	10:42	-132.410	44.551	0	1440.10	0	2.7760	0	34.5450	0	27.551	0	1423.549	0	24.9	4	7.7	4	-1E+10	1	-1E+10	1	-1E+10	1	-1E+10	1	-1E+10	1	-1E+10	1
4901784	53	C	12/16/2016	10:42	-132.410	44.551	0	1445.60	0	2.7530	0	34.5440	0	27.552	0	1428.967	0	24.8	4	7.6	4	-1E+10	1	-1E+10	1	-1E+10	1	-1E+10	1	-1E+10	1	-1E+10	1
4901784	53	C	12/16/2016	10:42	-132.410	44.551	0	1450.20	0	2.7370	0	34.5450	0	27.554	0	1433.498	0	24.9	4	7.6	4	-1E+10	1	-1E+10	1	-1E+10	1	-1E+10	1	-1E+10	1	-1E+10	1
4901784	53	C	12/16/2016	10:42	-132.410	44.551	0	1454.80	0	2.7340	0	34.5450	0	27.555	0	1438.030	0	25.1	4	7.7	4	-1E+10	1	-1E+10	1	-1E+10	1	-1E+10	1	-1E+10	1	-1E+10	1
4901784	53	C	12/16/2016	10:42	-132.410	44.551	0	1460.40	0	2.7320	0	34.5460	0	27.556	0	1443.546	0	25.3	4	7.8	4	-1E+10	1	-1E+10	1	-1E+10	1	-1E+10	1	-1E+10	1	-1E+10	1
4901784	53	C	12/16/2016	10:42	-132.410	44.551	0	1465.10	0	2.7230	0	34.5470	0	27.557	0	1448.176	0	25.4	4	7.8	4	-1E+10	1	-1E+10	1	-1E+10	1	-1E+10	1	-1E+10	1	-1E+10	1
4901784	53	C	12/16/2016	10:42	-132.410	44.551	0	1469.80	0	2.7130	0	34.5470	0	27.558	0	1452.805	0	25.5	4	7.8	4	-1E+10	1	-1E+10	1	-1E+10	1	-1E+10	1	-1E+10	1	-1E+10	1
4901784	53	C	12/16/2016	10:42	-132.410	44.551	0	1475.20	0	2.6960	0	34.5480	0	27.560	0	1458.124	0	25.6	4	7.9	4	-1E+10	1	-1E+10	1	-1E+10	1	-1E+10	1	-1E+10	1	-1E+10	1
4901784	53	C	12/16/2016	10:42	-132.410	44.551	0	1480.30	0	2.6760	0	34.5480	0	27.562	0	1463.147	0	25.7	4	7.9	4	-1E+10	1	-1E+10	1	-1E+10	1	-1E+10	1	-1E+10	1	-1E+10	1
4901784	53	C	12/16/2016	10:42	-132.410	44.551	0	1485.40	0	2.6650	0	34.5490	0	27.564	0	1468.171	0	25.8	4	7.9	4	-1E+10	1	-1E+10	1	-1E+10	1	-1E+10	1	-1E+10	1	-1E+10	1
4901784	53	C	12/16/2016	10:42	-132.410	44.551	0	1490.40	0	2.6590	0	34.5490	0	27.565	0	1473.095	0	25.9	4	7.9	4	-1E+10	1	-1E+10	1	-1E+10	1	-1E+10	1	-1E+10	1	-1E+10	1
4901784	53	C	12/16/2016	10:42	-132.410	44.551	0	1495.50	0	2.6360	0	34.5490	0	27.567	0	1478.118	0	26.0	4	7.9	4	-1E+10	1	-1E+10	1	-1E+10	1	-1E+10	1	-1E+10	1	-1E+10	1
4901784	53	C	12/16/2016	10:42	-132.410	44.551	0	1500.60	0	2.6130	0	34.5500	0	27.569	0	1483.141	0	26.0	4	8.0	4	-1E+10	1	-1E+10	1	-1E+10	1	-1E+10	1	-1E+10	1	-1E+10	1
4901784	53	C	12/16/2016	10:42	-132.410	44.551	0	1504.90	0	2.6020	0	34.5500	0	27.570	0	1487.376	0	26.1	4	8.0	4	-1E+10	1	-1E+10	1	-1E+10	1	-1E+10	1	-1E+10	1	-1E+10	1
4901784	53	C	12/16/2016	10:42	-132.410	44.551	0	1509.20	0	2.5940	0	34.5510	0	27.572	0	1491.611	0	26.3	4	8.1	4	-1E+10	1	-1E+10	1	-1E+10	1	-1E+10	1	-1E+10	1	-1E+10	1
4901784	53	C	12/16/2016	10:42	-132.410	44.551	0	1514.30	0	2.5840	0	34.5520	0	27.573	0	1496.633	0	26.6	4	8.1	4	-1E+10	1	-1E+10	1	-1E+10	1	-1E+10	1	-1E+10	1	-1E+10	1
4901784	53	C	12/16/2016	10:42	-132.410	44.551	0	1519.50	0	2.5750	0	34.5520	0	27.574	0	1501.754	0	26.8	4	8.2	4	-1E+10	1	-1E+10	1	-1E+10	1	-1E+10	1	-1E+10	1	-1E+10	1
4901784	53	C	12/16/2016	10:42	-132.410	44.551	0	1524.60	0	2.5620	0	34.5540	0	27.577	0	1506.776	0	27.2	4	8.3	4	-1E+10	1	-1E+10	1	-1E+10	1	-1E+10	1	-1E+10	1	-1E+10	1
4901784	53	C	12/16/2016	10:42	-132.410	44.551	0	1529.90	0	2.5510	0	34.5550	0	27.579	0	1511.995	0	27.6	4	8.4	4	-1E+10	1	-1E+10	1	-1E+10	1	-1E+10	1	-1E+10	1	-1E+10	1
4901784	53	C	12/16/2016	10:42	-132.410	44.551	0	1535.10	0	2.5340	0	34.5560	0	27.581	0	1517.116	0	27.9	4	8.5	4	-1E+10	1	-1E+10	1	-1E+10	1	-1E+10	1	-1E+10	1	-1E+10	1
4901784	53	C	12/16/2016	10:42	-132.410	44.551	0	1540.40	0	2.5240	0	34.5570	0	27.583	0	1522.335	0	28.1	4	8.6	4	-1E+10	1	-1E+10	1	-1E+10	1	-1E+10	1	-1E+10	1	-1E+10	1
4901784	53	C	12/16/2016	10:42	-132.410	44.551	0	1545.60	0	2.5120	0	34.5580	0	27.584	0	1527.455	0	28.4	4	8.7	4	-1E+10	1	-1E+10	1	-1E+10	1	-1E+10	1	-1E+10	1	-1E+10	1
4901784	53	C	12/16/2016	10:42	-132.410	44.551	0	1550.00	0	2.5050	0	34.5590	0	27.586	0	1531.787	0	28.6	4	8.7	4	-1E+10	1	-1E+10	1	-1E+10	1	-1E+10	1	-1E+10	1	-1E+10	1
4901784	53	C	12/16/2016	10:42	-132.410	44.551	0	1554.40	0	2.4950	0	34.5600	0	27.588	0	1536.120	0	28.7	4	8.8	4	-1E+10	1	-1E+10	1	-1E+10	1	-1E+10	1	-1E+10	1	-1E+10	1
4901784	53	C	12/16/2016	10:42	-132.410	44.551	0	1559.70	0	2.4870	0	34.5600	0	27.588	0	1541.338	0	28.9	4	8.8	4	-1E+10	1	-1E+10	1	-1E+10	1	-1E+10	1	-1E+10	1	-1E+10	1
4901784	53	C	12/16/2016	10:42	-132.410	44.551	0	1564.90	0	2.4760	0	34.5610	0	27.590	0	1546.458	0	29.2	4	8.9	4	-1E+10	1	-1E+10	1	-1E+10	1	-1E+10	1	-1E+10	1	-1E+10	1
4901784	53	C	12/16/2016	10:42	-132.410	44.551	0	1570.30	0	2.4650	0	34.5620	0	27.592	0	1551.774	0	29.5	4	9.0	4	-1E+10	1	-1E+10	1	-1E+10	1	-1E+10	1	-1E+10	1	-1E+10	1
4901784	53	C	12/16/2016	10:42	-132.410	44.551	0	1575.60	0	2.4550	0	34.5630	0	27.593	0	1556.992	0	29.7	4	9.1	4	-1E+10	1	-1E+10	1	-1E+10	1	-1E+10	1	-1E+10	1	-1E+10	1
4901784	53	C	12/16/2016	10:42	-132.410	44.551	0	1580.10	0	2.4490	0	34.5630	0	27.594	0	1561.423	0	30.0	4	9.1	4	-1E+10	1	-1E+10	1	-1E+10	1	-1E+10	1	-1E+10	1	-1E+10	1
4901784	53	C	12/16/2016	10:42	-132.410	44.551	0	1584.60	0	2.4390	0	34.5650	0	27.596	0	1565.853	0	30.3	4	9.2	4	-1E+10	1	-1E+10	1	-1E+10	1	-1E+10	1	-1E+10	1	-1E+10	1
4901784	53	C	12/16/2016	10:42	-132.410	44.551	0	1590.10	0	2.4280	0	34.5660	0	27.598	0	1571.267	0	30.7	4	9.4	4	-1E+10	1	-1E+10	1	-1E+10	1	-1E+10	1	-1E+10	1	-1E+10	1
4901784	53	C	12/16/2016	10:42	-132.410	44.551	0	1595.60	0	2.4150	0	34.5670	0	27.600	0	1576.682	0	31.0	4	9.4	4	-1E+10	1	-1E+10	1	-1E+10	1	-1E+10	1	-1E+10	1	-1E+10	1
4901784	53	C	12/16/2016	10:42	-132.410	44.551	0	1600.20	0	2.4100	0	34.5680	0	27.601	0	1581.210	0	31.3	4	9.5	4	-1E+10	1	-1E+10	1	-1E+10	1	-1E+10	1	-1E+10	1	-1E+10	1
4901784	53	C	12/16/2016	10:42	-132.410	44.551	0	1604.70	0	2.4010	0	34.5690	0	27.603	0	1585.640	0	31.6	4	9.6	4	-1E+10	1	-1E+10	1	-1E+10	1	-1E+10	1	-1E+10	1	-1E+10	1
4901784	53	C	12/16/2016	10:42	-132.410	44.551	0	1610.20	0	2.3920	0	34.5690	0	27.604	0	1591.054	0	32.0	4	9.7	4	-1E+10	1	-1E+10	1	-1E+10	1	-1E+10	1	-1E+10	1	-1E+10	1
4901784	53	C	12/16/2016	10:42	-132.410	44.551	0	1614.80	0	2.3750	0	34.5720	0	27.607	0	1595.582	0	32.4	4	9.8	4	-1E+10	1	-1E+10	1	-1E+10	1	-1E+10	1	-1E+10	1	-1E+10	1
4901784	53	C	12/16/2016	10:42	-132.410	44.551	0	1619.40	0	2.3710	0	34.5720	0	27.608	0	1600.110	0	32.7	4	9.9	4	-1E+10	1	-1E+10	1	-1E+10	1	-1E+10	1	-1E+10	1	-1E+10	1
4901784	53	C	12/16/2016	10:42	-132.410	44.551	0	1624.90	0	2.3550	0	34.5740	0	27.611	0	1605.523	0	33.0	4	10.1	4	-1E+10	1	-1E+10	1	-1E+10	1	-1E+10	1	-1E+10	1	-1E+10	1
4901784	53	C	12/16/2016	10:42	-132.410	44.551	0	1630.50	0	2.3490	0	34.5750	0	27.612	0	1611.035	0	33.3	4	10.1	4	-1E+10	1	-1E+10	1	-1E+10	1	-1E+10	1	-1E+10	1	-1E+10	1
4901784	53	C	12/16/2016	10:42	-132.410	44.551	0	1634.60	0	2.3450	0	34.5750	0	27.612	0	1615.071	0	33.6	4	10.2	4	-1E+10	1	-1E+10	1	-1E+10	1	-1E+10	1	-1E+10	1	-1E+10	1
4901784	53	C	12/16/2016	10:42	-132.410	44.551	0	1639.50	0	2.3360	0	34.5770	0	27.615	0	1619.893	0	33.9	4	10.3	4	-1E+10	1	-1E+10	1	-1E+10	1	-1E+10	1	-1E+10	1	-1E+10	1
4901784	53	C	12/16/2016	10:42	-132.410	44.551	0	1644.50	0	2.3290	0	34.5770	0	27.615	0	1624.814	0	34.3	4	10.4	4	-1E+10	1	-1E+10	1	-1E+10	1	-1E+10	1	-1E+10	1	-1E+10	1
4901784	53	C	12/16/2016	10:42	-132.410	44.551	0	1649.50	0	2.3210	0	34.5780	0	27.617	0	1629.735	0	34.6	4	10.5	4	-1E+10	1	-1E+10	1	-1E+10	1	-1E+10	1	-1E+10	1	-1E+10	1
4901784	53	C	12/16/2016	10:42	-132.410	44.551	0	1654.50	0	2.3140	0	34.5790	0	27.618	0	1634.656	0	35.0	4	10.6	4	-1E+10	1	-1E+10	1	-1E+10	1	-1E+10	1	-1E+10	1	-1E+10	1
4901784	53	C	12/16/2016	10:42	-132.410	44.551	0	1659.60	0	2.3050	0	34.5800	0	27.620	0	1639.675	0	35.4	4	10.8	4	-1E+10	1	-1E+10	1	-1E+10	1	-1E+10	1	-1E+10	1	-1E+10	1
4901784	53	C	12/16/2016	10:42	-132.410	44.551	0	1664.60	0	2.2970	0	34.5820	0	27.622	0	1644.596	0	35.8	4	10.9	4	-1E+10	1	-1E+10	1	-1E+10	1	-1E+10	1	-1E+10	1	-1E+10	1
4901784	53	C	12/16/2016	10:42	-132.410	44.551	0	1669.80	0	2.2910	0	34.5830	0	27.623	0	1649.713	0	36.2	4	11.0	4	-1E+10	1	-1E+10	1	-1E+10	1	-1E+10	1	-1E+10	1	-1E+10	1
4901784	53	C	12/16/2016	10:42	-132.410	44.551	0	1674.80	0	2.2850	0	34.5850	0	27.625	0	1654.634	0	36.6	4	11.1	4	-1E+10	1	-1E+10	1	-1E+10	1	-1E+10	1	-1E+10	1	-1E+10	1
4901784	53	C	12/16/2016	10:42	-132.410	44.551	0	1680.00	0	2.2770	0	34.5850	0	27.626	0	1659.751	0	37.0	4	11.2	4	-1E+10	1	-1E+10	1	-1E+10	1	-1E+10	1	-1E+10	1	-1E+10	1
4901784	53	C	12/16/2016	10:42	-132.410	44.551	0	1685.20	0	2.2650	0	34.5870	0	27.629	0	1664.867	0	37.4	4	11.4	4	-1E+10	1	-1E+10	1	-1E+10	1	-1E+10	1	-1E+10	1	-1E+10	1
4901784	53	C	12/16/2016	10:42	-132.410	44.551	0	1690.40	0	2.2570	0	34.5880	0	27.630	0	1669.984	0	37.8	4	11.5	4	-1E+10	1	-1E+10	1	-1E+10	1	-1E+10	1	-1E+10	1	-1E+10	1
4901784	53	C	12/16/2016	10:42	-132.410	44.551	0	1695.60	0	2.2500	0	34.5890	0	27.632	0	1675.101	0	38.2	4	11.6	4	-1E+10	1	-1E+10	1	-1E+10	1	-1E+10	1	-1E+10	1	-1E+10	1
4901784	53	C	12/16/2016	10:42	-132.410	44.551	0	1700.00	0	2.2430	0	34.5900	0	27.633	0	1679.430	0	38.4	4	11.7	4	-1E+10	1	-1E+10	1	-1E+10	1	-1E+10	1	-1E+10	1	-1E+10	1
4901784	53	C	12/16/2016	10:42	-132.410	44.551	0	1704.50	0	2.2370	0	34.5900	0	27.634	0	1683.858	0	38.8	4	11.8	4	-1E+10	1	-1E+10	1	-1E+10	1	-1E+10	1	-1E+10	1	-1E+10	1
4901784	53	C	12/16/2016	10:42	-132.410	44.551	0	1709.80	0	2.2290	0	34.5910	0	27.635	0	1689.073	0	39.2	4	11.9	4	-1E+10	1	-1E+10	1	-1E+10	1	-1E+10	1	-1E+10	1	-1E+10	1
4901784	53	C	12/16/2016	10:42	-132.410	44.551	0	1715.10	0	2.2210	0	34.5920	0	27.636	0	1694.287	0	39.6	4	12.0	4	-1E+10	1	-1E+10	1	-1E+10	1	-1E+10	1	-1E+10	1	-1E+10	1
4901784	53	C	12/16/2016	10:42	-132.410	44.551	0	1720.50	0	2.2130	0	34.5940	0	27.639	0	1699.600	0	40.0	4	12.1	4	-1E+10	1	-1E+10	1	-1E+10	1	-1E+10	1	-1E+10	1	-1E+10	1
4901784	53	C	12/16/2016	10:42	-132.410	44.551	0	1725.00	0	2.2080	0	34.5940	0	27.639	0	1704.028	0	40.2	4	12.2	4	-1E+10	1	-1E+10	1	-1E+10	1	-1E+10	1	-1E+10	1	-1E+10	1
4901784	53	C	12/16/2016	10:42	-132.410	44.551	0	1729.50	0	2.2020	0	34.5950	0	27.640	0	1708.455	0	40.5	4	12.3	4	-1E+10	1	-1E+10	1	-1E+10	1	-1E+10	1	-1E+10	1	-1E+10	1
4901784	53	C	12/16/2016	10:42	-132.410	44.551	0	1734.90	0	2.1980	0	34.5960	0	27.642	0	1713.767	0	40.9	4	12.4	4	-1E+10	1	-1E+10	1	-1E+10	1	-1E+10	1	-1E+10	1	-1E+10	1
4901784	53	C	12/16/2016	10:42	-132.410	44.551	0	1740.30	0	2.1910	0	34.5970	0	27.643	0	1719.080	0	41.3	4	12.5	4	-1E+10	1	-1E+10	1	-1E+10	1	-1E+10	1	-1E+10	1	-1E+10	1
4901784	53	C	12/16/2016	10:42	-132.410	44.551	0	1745.60	0	2.1830	0	34.5980	0	27.644	0	1724.293	0	41.8	4	12.6	4	-1E+10	1	-1E+10	1	-1E+10	1	-1E+10	1	-1E+10	1	-1E+10	1
4901784	53	C	12/16/2016	10:42	-132.410	44.551	0	1750.20	0	2.1760	0	34.5990	0	27.646	0	1728.818	0	42.1	4	12.8	4	-1E+10	1	-1E+10	1	-1E+10	1	-1E+10	1	-1E+10	1	-1E+10	1
4901784	53	C	12/16/2016	10:42	-132.410	44.551	0	1754.70	0	2.1700	0	34.6000	0	27.647	0	1733.245	0	42.5	4	12.9	4	-1E+10	1	-1E+10	1	-1E+10	1	-1E+10	1	-1E+10	1	-1E+10	1
4901784	53	C	12/16/2016	10:42	-132.410	44.551	0	1760.20	0	2.1610	0	34.6010	0	27.649	0	1738.655	0	43.0	4	13.0	4	-1E+10	1	-1E+10	1	-1E+10	1	-1E+10	1	-1E+10	1	-1E+10	1
4901784	53	C	12/16/2016	10:42	-132.410	44.551	0	1764.80	0	2.1530	0	34.6030	0	27.651	0	1743.180	0	43.4	4	13.1	4	-1E+10	1	-1E+10	1	-1E+10	1	-1E+10	1	-1E+10	1	-1E+10	1
4901784	53	C	12/16/2016	10:42	-132.410	44.551	0	1769.40	0	2.1480	0	34.6030	0	27.651	0	1747.705	0	43.7	4	13.2	4	-1E+10	1	-1E+10	1	-1E+10	1	-1E+10	1	-1E+10	1	-1E+10	1
4901784	53	C	12/16/2016	10:42	-132.410	44.551	0	1774.90	0	2.1400	0	34.6040	0	27.653	0	1753.115	0	44.1	4	13.3	4	-1E+10	1	-1E+10	1	-1E+10	1	-1E+10	1	-1E+10	1	-1E+10	1
4901784	53	C	12/16/2016	10:42	-132.410	44.551	0	1780.10	0	2.1350	0	34.6050	0	27.654	0	1758.229	0	44.4	4	13.4	4	-1E+10	1	-1E+10	1	-1E+10	1	-1E+10	1	-1E+10	1	-1E+10	1
4901784	53	C	12/16/2016	10:42	-132.410	44.551	0	1784.40	0	2.1290	0	34.6060	0	27.655	0	1762.459	0	44.7	4	13.5	4	-1E+10	1	-1E+10	1	-1E+10	1	-1E+10	1	-1E+10	1	-1E+10	1
4901784	53	C	12/16/2016	10:42	-132.410	44.551	0	1789.20	0	2.1240	0	34.6070	0	27.657	0	1767.180	0	45.0	4	13.6	4	-1E+10	1	-1E+10	1	-1E+10	1	-1E+10	1	-1E+10	1	-1E+10	1
4901784	53	C	12/16/2016	10:42	-132.410	44.551	0	1795.00	0	2.1200	0	34.6080	0	27.658	0	1772.884	0	45.3	4	13.7	4	-1E+10	1	-1E+10	1	-1E+10	1	-1E+10	1	-1E+10	1	-1E+10	1
4901784	53	C	12/16/2016	10:42	-132.410	44.551	0	1800.70	0	2.1150	0	34.6080	0	27.658	0	1778.490	0	45.7	4	13.8	4	-1E+10	1	-1E+10	1	-1E+10	1	-1E+10	1	-1E+10	1	-1E+10	1
4901784	53	C	12/16/2016	10:42	-132.410	44.551	0	1805.60	0	2.1080	0	34.6090	0	27.660	0	1783.309	0	46.0	4	13.9	4	-1E+10	1	-1E+10	1	-1E+10	1	-1E+10	1	-1E+10	1	-1E+10	1
4901784	53	C	12/16/2016	10:42	-132.410	44.551	0	1810.60	0	2.1040	0	34.6100	0	27.661	0	1788.226	0	46.3	4	14.0	4	-1E+10	1	-1E+10	1	-1E+10	1	-1E+10	1	-1E+10	1	-1E+10	1
4901784	53	C	12/16/2016	10:42	-132.410	44.551	0	1815.70	0	2.0990	0	34.6100	0	27.661	0	1793.242	0	46.6	4	14.1	4	-1E+10	1	-1E+10	1	-1E+10	1	-1E+10	1	-1E+10	1	-1E+10	1
4901784	53	C	12/16/2016	10:42	-132.410	44.551	0	1820.70	0	2.0940	0	34.6110	0	27.662	0	1798.159	0	46.9	4	14.2	4	-1E+10	1	-1E+10	1	-1E+10	1	-1E+10	1	-1E+10	1	-1E+10	1
4901784	53	C	12/16/2016	10:42	-132.410	44.551	0	1824.90	0	2.0900	0	34.6120	0	27.663	0	1802.289	0	47.2	4	14.3	4	-1E+10	1	-1E+10	1	-1E+10	1	-1E+10	1	-1E+10	1	-1E+10	1
4901784	53	C	12/16/2016	10:42	-132.410	44.551	0	1829.20	0	2.0830	0	34.6130	0	27.665	0	1806.518	0	47.6	4	14.4	4	-1E+10	1	-1E+10	1	-1E+10	1	-1E+10	1	-1E+10	1	-1E+10	1
4901784	53	C	12/16/2016	10:42	-132.410	44.551	0	1834.20	0	2.0780	0	34.6130	0	27.665	0	1811.434	0	47.9	4	14.5	4	-1E+10	1	-1E+10	1	-1E+10	1	-1E+10	1	-1E+10	1	-1E+10	1
4901784	53	C	12/16/2016	10:42	-132.410	44.551	0	1839.30	0	2.0740	0	34.6140	0	27.666	0	1816.449	0	48.2	4	14.6	4	-1E+10	1	-1E+10	1	-1E+10	1	-1E+10	1	-1E+10	1	-1E+10	1
4901784	53	C	12/16/2016	10:42	-132.410	44.551	0	1844.40	0	2.0690	0	34.6150	0	27.668	0	1821.464	0	48.6	4	14.7	4	-1E+10	1	-1E+10	1	-1E+10	1	-1E+10	1	-1E+10	1	-1E+10	1
4901784	53	C	12/16/2016	10:42	-132.410	44.551	0	1849.50	0	2.0610	0	34.6160	0	27.669	0	1826.479	0	49.1	4	14.8	4	-1E+10	1	-1E+10	1	-1E+10	1	-1E+10	1	-1E+10	1	-1E+10	1
4901784	53	C	12/16/2016	10:42	-132.410	44.551	0	1854.50	0	2.0560	0	34.6170	0	27.670	0	1831.395	0	49.4	4	14.9	4	-1E+10	1	-1E+10	1	-1E+10	1	-1E+10	1	-1E+10	1	-1E+10	1
4901784	53	C	12/16/2016	10:42	-132.410	44.551	0	1859.70	0	2.0490	0	34.6170	0	27.671	0	1836.508	0	49.8	4	15.0	4	-1E+10	1	-1E+10	1	-1E+10	1	-1E+10	1	-1E+10	1	-1E+10	1
4901784	53	C	12/16/2016	10:42	-132.410	44.551	0	1864.80	0	2.0450	0	34.6180	0	27.672	0	1841.522	0	50.0	4	15.1	4	-1E+10	1	-1E+10	1	-1E+10	1	-1E+10	1	-1E+10	1	-1E+10	1
4901784	53	C	12/16/2016	10:42	-132.410	44.551	0	1870.00	0	2.0410	0	34.6190	0	27.673	0	1846.635	0	50.3	4	15.2	4	-1E+10	1	-1E+10	1	-1E+10	1	-1E+10	1	-1E+10	1	-1E+10	1
4901784	53	C	12/16/2016	10:42	-132.410	44.551	0	1875.20	0	2.0370	0	34.6190	0	27.674	0	1851.747	0	50.5	4	15.2	4	-1E+10	1	-1E+10	1	-1E+10	1	-1E+10	1	-1E+10	1	-1E+10	1
4901784	53	C	12/16/2016	10:42	-132.410	44.551	0	1880.50	0	2.0350	0	34.6200	0	27.674	0	1856.958	0	50.7	4	15.3	4	-1E+10	1	-1E+10	1	-1E+10	1	-1E+10	1	-1E+10	1	-1E+10	1
4901784	53	C	12/16/2016	10:42	-132.410	44.551	0	1885.70	0	2.0320	0	34.6200	0	27.675	0	1862.070	0	51.1	4	15.4	4	-1E+10	1	-1E+10	1	-1E+10	1	-1E+10	1	-1E+10	1	-1E+10	1
4901784	53	C	12/16/2016	10:42	-132.410	44.551	0	1890.10	0	2.0270	0	34.6210	0	27.676	0	1866.395	0	51.4	4	15.5	4	-1E+10	1	-1E+10	1	-1E+10	1	-1E+10	1	-1E+10	1	-1E+10	1
4901784	53	C	12/16/2016	10:42	-132.410	44.551	0	1894.50	0	2.0240	0	34.6220	0	27.677	0	1870.721	0	51.6	4	15.6	4	-1E+10	1	-1E+10	1	-1E+10	1	-1E+10	1	-1E+10	1	-1E+10	1
4901784	53	C	12/16/2016	10:42	-132.410	44.551	0	1899.80	0	2.0200	0	34.6220	0	27.677	0	1875.931	0	52.0	4	15.7	4	-1E+10	1	-1E+10	1	-1E+10	1	-1E+10	1	-1E+10	1	-1E+10	1
4901784	53	C	12/16/2016	10:42	-132.410	44.551	0	1905.10	0	2.0150	0	34.6230	0	27.679	0	1881.141	0	52.4	4	15.8	4	-1E+10	1	-1E+10	1	-1E+10	1	-1E+10	1	-1E+10	1	-1E+10	1
4901784	53	C	12/16/2016	10:42	-132.410	44.551	0	1910.40	0	2.0100	0	34.6240	0	27.680	0	1886.351	0	52.9	4	15.9	4	-1E+10	1	-1E+10	1	-1E+10	1	-1E+10	1	-1E+10	1	-1E+10	1
4901784	53	C	12/16/2016	10:42	-132.410	44.551	0	1914.90	0	2.0050	0	34.6250	0	27.681	0	1890.774	0	53.2	4	16.0	4	-1E+10	1	-1E+10	1	-1E+10	1	-1E+10	1	-1E+10	1	-1E+10	1
4901784	53	C	12/16/2016	10:42	-132.410	44.551	0	1919.40	0	2.0020	0	34.6260	0	27.682	0	1895.197	0	53.5	4	16.1	4	-1E+10	1	-1E+10	1	-1E+10	1	-1E+10	1	-1E+10	1	-1E+10	1
4901784	53	C	12/16/2016	10:42	-132.410	44.551	0	1924.70	0	1.9940	0	34.6270	0	27.684	0	1900.407	0	53.9	4	16.3	4	-1E+10	1	-1E+10	1	-1E+10	1	-1E+10	1	-1E+10	1	-1E+10	1
4901784	53	C	12/16/2016	10:42	-132.410	44.551	0	1930.10	0	1.9900	0	34.6270	0	27.684	0	1905.715	0	54.3	4	16.4	4	-1E+10	1	-1E+10	1	-1E+10	1	-1E+10	1	-1E+10	1	-1E+10	1
4901784	53	C	12/16/2016	10:42	-132.410	44.551	0	1935.50	0	1.9860	0	34.6280	0	27.685	0	1911.022	0	54.6	4	16.5	4	-1E+10	1	-1E+10	1	-1E+10	1	-1E+10	1	-1E+10	1	-1E+10	1
4901784	53	C	12/16/2016	10:42	-132.410	44.551	0	1940.10	0	1.9830	0	34.6290	0	27.686	0	1915.543	0	54.8	4	16.5	4	-1E+10	1	-1E+10	1	-1E+10	1	-1E+10	1	-1E+10	1	-1E+10	1
4901784	53	C	12/16/2016	10:42	-132.410	44.551	0	1945.30	0	1.9790	0	34.6300	0	27.687	0	1920.654	0	55.1	4	16.6	4	-1E+10	1	-1E+10	1	-1E+10	1	-1E+10	1	-1E+10	1	-1E+10	1
4901784	53	C	12/16/2016	10:42	-132.410	44.551	0	1950.40	0	1.9770	0	34.6300	0	27.687	0	1925.666	0	55.3	4	16.7	4	-1E+10	1	-1E+10	1	-1E+10	1	-1E+10	1	-1E+10	1	-1E+10	1
4901784	53	C	12/16/2016	10:42	-132.410	44.551	0	1955.20	0	1.9730	0	34.6300	0	27.688	0	1930.384	0	55.6	4	16.8	4	-1E+10	1	-1E+10	1	-1E+10	1	-1E+10	1	-1E+10	1	-1E+10	1
4901784	53	C	12/16/2016	10:42	-132.410	44.551	0	1960.10	0	1.9690	0	34.6310	0	27.689	0	1935.199	0	56.0	4	16.9	4	-1E+10	1	-1E+10	1	-1E+10	1	-1E+10	1	-1E+10	1	-1E+10	1
4901784	53	C	12/16/2016	10:42	-132.410	44.551	0	1965.00	0	1.9640	0	34.6320	0	27.690	0	1940.015	0	56.2	4	16.9	4	-1E+10	1	-1E+10	1	-1E+10	1	-1E+10	1	-1E+10	1	-1E+10	1
4901784	53	C	12/16/2016	10:42	-132.410	44.551	0	1969.90	0	1.9620	0	34.6320	0	27.690	0	1944.830	0	56.5	4	17.0	4	-1E+10	1	-1E+10	1	-1E+10	1	-1E+10	1	-1E+10	1	-1E+10	1
4901784	53	C	12/16/2016	10:42	-132.410	44.551	0	1974.90	0	1.9580	0	34.6330	0	27.691	0	1949.744	0	56.9	4	17.1	4	-1E+10	1	-1E+10	1	-1E+10	1	-1E+10	1	-1E+10	1	-1E+10	1
4901784	53	C	12/16/2016	10:42	-132.410	44.551	0	1979.90	0	1.9520	0	34.6340	0	27.693	0	1954.657	0	57.2	4	17.2	4	-1E+10	1	-1E+10	1	-1E+10	1	-1E+10	1	-1E+10	1	-1E+10	1
4901784	53	C	12/16/2016	10:42	-132.410	44.551	0	1984.90	0	1.9480	0	34.6340	0	27.693	0	1959.570	0	57.6	4	17.3	4	-1E+10	1	-1E+10	1	-1E+10	1	-1E+10	1	-1E+10	1	-1E+10	1
4901784	53	C	12/16/2016	10:42	-132.410	44.551	0	1989.90	0	1.9430	0	34.6350	0	27.694	0	1964.483	0	57.9	4	17.4	4	-1E+10	1	-1E+10	1	-1E+10	1	-1E+10	1	-1E+10	1	-1E+10	1
4901784	53	C	12/16/2016	10:42	-132.410	44.551	0	1995.40	0	1.9390	0	34.6360	0	27.695	0	1969.888	0	58.2	4	17.5	4	-1E+10	1	-1E+10	1	-1E+10	1	-1E+10	1	-1E+10	1	-1E+10	1
4901784	53	C	12/16/2016	10:42	-132.410	44.551	0	2000.00	0	1.9360	0	34.6360	0	27.696	0	1974.408	0	58.4	4	17.6	4	-1E+10	1	-1E+10	1	-1E+10	1	-1E+10	1	-1E+10	1	-1E+10	1
4901784	53	C	12/16/2016	10:42	-132.410	44.551	0	2005.20	0	1.9340	0	34.6370	0	27.697	0	1979.517	0	58.8	4	17.7	4	-1E+10	1	-1E+10	1	-1E+10	1	-1E+10	1	-1E+10	1	-1E+10	1
4901784	53	C	12/16/2016	10:42	-132.410	44.551	0	2010.20	0	1.9290	0	34.6380	0	27.698	0	1984.430	0	59.1	4	17.8	4	-1E+10	1	-1E+10	1	-1E+10	1	-1E+10	1	-1E+10	1	-1E+10	1
4901784	53	C	12/16/2016	10:42	-132.410	44.551	0	2016.30	0	1.9250	0	34.6390	0	27.699	0	1990.423	0	55.0	8	16.5	8	-1E+10	1	-1E+10	1	-1E+10	1	-1E+10	1	-1E+10	1	-1E+10	1
4901784	53	C	12/16/2016	10:42	-132.410	44.551	0																										
4901784	54	C	12/26/2016	10:47	-132.363	44.492	0	2.80	0	10.7870	0	32.9190	0	25.193	0	2.777	0	261.2	4	95.3	4	-1E+10	1	-1E+10	1	-1E+10	1	-1E+10	1	-1E+10	1	-1E+10	1
4901784	54	C	12/26/2016	10:47	-132.363	44.492	0	3.90	0	10.7890	0	32.9180	0	25.192	0	3.868	0	261.0	4	95.2	4	-1E+10	1	-1E+10	1	-1E+10	1	-1E+10	1	-1E+10	1	-1E+10	1
4901784	54	C	12/26/2016	10:47	-132.363	44.492	0	5.40	0	10.7890	0	32.9190	0	25.193	0	5.356	0	261.1	4	95.3	4	-1E+10	1	-1E+10	1	-1E+10	1	-1E+10	1	-1E+10	1	-1E+10	1
4901784	54	C	12/26/2016	10:47	-132.363	44.492	0	7.20	0	10.7910	0	32.9190	0	25.193	0	7.142	0	261.0	4	95.2	4	-1E+10	1	-1E+10	1	-1E+10	1	-1E+10	1	-1E+10	1	-1E+10	1
4901784	54	C	12/26/2016	10:47	-132.363	44.492	0	8.90	0	10.7900	0	32.9190	0	25.193	0	8.828	0	260.8	4	95.2	4	-1E+10	1	-1E+10	1	-1E+10	1	-1E+10	1	-1E+10	1	-1E+10	1
4901784	54	C	12/26/2016	10:47	-132.363	44.492	0	10.70	0	10.7880	0	32.9180	0	25.193	0	10.613	0	260.9	4	95.2	4	-1E+10	1	-1E+10	1	-1E+10	1	-1E+10	1	-1E+10	1	-1E+10	1
4901784	54	C	12/26/2016	10:47	-132.363	44.492	0	12.50	0	10.7900	0	32.9180	0	25.192	0	12.399	0	261.1	4	95.3	4	-1E+10	1	-1E+10	1	-1E+10	1	-1E+10	1	-1E+10	1	-1E+10	1
4901784	54	C	12/26/2016	10:47	-132.363	44.492	0	14.30	0	10.7910	0	32.9180	0	25.192	0	14.184	0	261.1	4	95.3	4	-1E+10	1	-1E+10	1	-1E+10	1	-1E+10	1	-1E+10	1	-1E+10	1
4901784	54	C	12/26/2016	10:47	-132.363	44.492	0	16.20	0	10.7880	0	32.9180	0	25.193	0	16.069	0	260.9	4	95.2	4	-1E+10	1	-1E+10	1	-1E+10	1	-1E+10	1	-1E+10	1	-1E+10	1
4901784	54	C	12/26/2016	10:47	-132.363	44.492	0	18.00	0	10.7890	0	32.9180	0	25.193	0	17.854	0	261.0	4	95.2	4	-1E+10	1	-1E+10	1	-1E+10	1	-1E+10	1	-1E+10	1	-1E+10	1
4901784	54	C	12/26/2016	10:47	-132.363	44.492	0	19.80	0	10.7900	0	32.9180	0	25.192	0	19.639	0	260.8	4	95.2	4	-1E+10	1	-1E+10	1	-1E+10	1	-1E+10	1	-1E+10	1	-1E+10	1
4901784	54	C	12/26/2016	10:47	-132.363	44.492	0	21.50	0	10.7890	0	32.9190	0	25.193	0	21.325	0	260.8	4	95.2	4	-1E+10	1	-1E+10	1	-1E+10	1	-1E+10	1	-1E+10	1	-1E+10	1
4901784	54	C	12/26/2016	10:47	-132.363	44.492	0	23.30	0	10.7890	0	32.9180	0	25.193	0	23.111	0	261.0	4	95.2	4	-1E+10	1	-1E+10	1	-1E+10	1	-1E+10	1	-1E+10	1	-1E+10	1
4901784	54	C	12/26/2016	10:47	-132.363	44.492	0	25.00	0	10.7890	0	32.9180	0	25.193	0	24.797	0	260.8	4	95.2	4	-1E+10	1	-1E+10	1	-1E+10	1	-1E+10	1	-1E+10	1	-1E+10	1
4901784	54	C	12/26/2016	10:47	-132.363	44.492	0	26.80	0	10.7890	0	32.9180	0	25.193	0	26.582	0	260.8	4	95.2	4	-1E+10	1	-1E+10	1	-1E+10	1	-1E+10	1	-1E+10	1	-1E+10	1
4901784	54	C	12/26/2016	10:47	-132.363	44.492	0	28.70	0	10.7900	0	32.9180	0	25.193	0	28.466	0	260.8	4	95.2	4	-1E+10	1	-1E+10	1	-1E+10	1	-1E+10	1	-1E+10	1	-1E+10	1
4901784	54	C	12/26/2016	10:47	-132.363	44.492	0	30.70	0	10.7910	0	32.9180	0	25.192	0	30.450	0	260.8	4	95.2	4	-1E+10	1	-1E+10	1	-1E+10	1	-1E+10	1	-1E+10	1	-1E+10	1
4901784	54	C	12/26/2016	10:47	-132.363	44.492	0	32.60	0	10.7940	0	32.9190	0	25.193	0	32.334	0	260.8	4	95.2	4	-1E+10	1	-1E+10	1	-1E+10	1	-1E+10	1	-1E+10	1	-1E+10	1
4901784	54	C	12/26/2016	10:47	-132.363	44.492	0	34.60	0	10.7950	0	32.9190	0	25.193	0	34.318	0	260.8	4	95.2	4	-1E+10	1	-1E+10	1	-1E+10	1	-1E+10	1	-1E+10	1	-1E+10	1
4901784	54	C	12/26/2016	10:47	-132.363	44.492	0	36.50	0	10.7950	0	32.9190	0	25.193	0	36.202	0	260.7	4	95.1	4	-1E+10	1	-1E+10	1	-1E+10	1	-1E+10	1	-1E+10	1	-1E+10	1
4901784	54	C	12/26/2016	10:47	-132.363	44.492	0	38.30	0	10.7950	0	32.9190	0	25.193	0	37.987	0	260.5	4	95.1	4	-1E+10	1	-1E+10	1	-1E+10	1	-1E+10	1	-1E+10	1	-1E+10	1
4901784	54	C	12/26/2016	10:47	-132.363	44.492	0	40.20	0	10.7960	0	32.9190	0	25.193	0	39.872	0	260.6	4	95.1	4	-1E+10	1	-1E+10	1	-1E+10	1	-1E+10	1	-1E+10	1	-1E+10	1
4901784	54	C	12/26/2016	10:47	-132.363	44.492	0	42.10	0	10.7950	0	32.9190	0	25.193	0	41.756	0	260.6	4	95.1	4	-1E+10	1	-1E+10	1	-1E+10	1	-1E+10	1	-1E+10	1	-1E+10	1
4901784	54	C	12/26/2016	10:47	-132.363	44.492	0	44.10	0	10.7960	0	32.9190	0	25.193	0	43.739	0	260.6	4	95.1	4	-1E+10	1	-1E+10	1	-1E+10	1	-1E+10	1	-1E+10	1	-1E+10	1
4901784	54	C	12/26/2016	10:47	-132.363	44.492	0	45.90	0	10.7960	0	32.9190	0	25.193	0	45.524	0	260.5	4	95.1	4	-1E+10	1	-1E+10	1	-1E+10	1	-1E+10	1	-1E+10	1	-1E+10	1
4901784	54	C	12/26/2016	10:47	-132.363	44.492	0	47.80	0	10.7940	0	32.9190	0	25.193	0	47.409	0	260.6	4	95.1	4	-1E+10	1	-1E+10	1	-1E+10	1	-1E+10	1	-1E+10	1	-1E+10	1
4901784	54	C	12/26/2016	10:47	-132.363	44.492	0	49.60	0	10.7960	0	32.9190	0	25.193	0	49.194	0	260.5	4	95.1	4	-1E+10	1	-1E+10	1	-1E+10	1	-1E+10	1	-1E+10	1	-1E+10	1
4901784	54	C	12/26/2016	10:47	-132.363	44.492	0	51.40	0	10.7930	0	32.9180	0	25.193	0	50.979	0	260.5	4	95.0	4	-1E+10	1	-1E+10	1	-1E+10	1	-1E+10	1	-1E+10	1	-1E+10	1
4901784	54	C	12/26/2016	10:47	-132.363	44.492	0	53.30	0	10.7960	0	32.9180	0	25.192	0	52.863	0	260.5	4	95.1	4	-1E+10	1	-1E+10	1	-1E+10	1	-1E+10	1	-1E+10	1	-1E+10	1
4901784	54	C	12/26/2016	10:47	-132.363	44.492	0	55.10	0	10.7940	0	32.9180	0	25.192	0	54.648	0	260.4	4	95.0	4	-1E+10	1	-1E+10	1	-1E+10	1	-1E+10	1	-1E+10	1	-1E+10	1
4901784	54	C	12/26/2016	10:47	-132.363	44.492	0	57.00	0	10.7950	0	32.9190	0	25.193	0	56.532	0	260.4	4	95.0	4	-1E+10	1	-1E+10	1	-1E+10	1	-1E+10	1	-1E+10	1	-1E+10	1
4901784	54	C	12/26/2016	10:47	-132.363	44.492	0	58.90	0	10.7960	0	32.9180	0	25.192	0	58.416	0	260.1	4	94.9	4	-1E+10	1	-1E+10	1	-1E+10	1	-1E+10	1	-1E+10	1	-1E+10	1
4901784	54	C	12/26/2016	10:47	-132.363	44.492	0	60.70	0	10.7980	0	32.9190	0	25.193	0	60.201	0	260.2	4	95.0	4	-1E+10	1	-1E+10	1	-1E+10	1	-1E+10	1	-1E+10	1	-1E+10	1
4901784	54	C	12/26/2016	10:47	-132.363	44.492	0	62.60	0	10.7980	0	32.9190	0	25.193	0	62.085	0	260.3	4	95.0	4	-1E+10	1	-1E+10	1	-1E+10	1	-1E+10	1	-1E+10	1	-1E+10	1
4901784	54	C	12/26/2016	10:47	-132.363	44.492	0	64.50	0	10.7970	0	32.9180	0	25.192	0	63.969	0	260.1	4	94.9	4	-1E+10	1	-1E+10	1	-1E+10	1	-1E+10	1	-1E+10	1	-1E+10	1
4901784	54	C	12/26/2016	10:47	-132.363	44.492	0	66.50	0	10.7950	0	32.9180	0	25.192	0	65.953	0	260.1	4	94.9	4	-1E+10	1	-1E+10	1	-1E+10	1	-1E+10	1	-1E+10	1	-1E+10	1
4901784	54	C	12/26/2016	10:47	-132.363	44.492	0	68.30	0	10.7990	0	32.9180	0	25.192	0	67.738	0	260.0	4	94.9	4	-1E+10	1	-1E+10	1	-1E+10	1	-1E+10	1	-1E+10	1	-1E+10	1
4901784	54	C	12/26/2016	10:47	-132.363	44.492	0	70.30	0	10.7990	0	32.9180	0	25.192	0	69.721	0	259.8	4	94.8	4	-1E+10	1	-1E+10	1	-1E+10	1	-1E+10	1	-1E+10	1	-1E+10	1
4901784	54	C	12/26/2016	10:47	-132.363	44.492	0	72.10	0	10.7970	0	32.9180	0	25.192	0	71.506	0	259.6	4	94.7	4	-1E+10	1	-1E+10	1	-1E+10	1	-1E+10	1	-1E+10	1	-1E+10	1
4901784	54	C	12/26/2016	10:47	-132.363	44.492	0	74.00	0	10.7960	0	32.9180	0	25.192	0	73.390	0	259.8	4	94.8	4	-1E+10	1	-1E+10	1	-1E+10	1	-1E+10	1	-1E+10	1	-1E+10	1
4901784	54	C	12/26/2016	10:47	-132.363	44.492	0	76.00	0	10.7960	0	32.9170	0	25.192	0	75.373	0	259.7	4	94.8	4	-1E+10	1	-1E+10	1	-1E+10	1	-1E+10	1	-1E+10	1	-1E+10	1
4901784	54	C	12/26/2016	10:47	-132.363	44.492	0	77.80	0	10.7960	0	32.9170	0	25.192	0	77.158	0	259.4	4	94.7	4	-1E+10	1	-1E+10	1	-1E+10	1	-1E+10	1	-1E+10	1	-1E+10	1
4901784	54	C	12/26/2016	10:47	-132.363	44.492	0	79.70	0	10.7960	0	32.9170	0	25.192	0	79.041	0	259.1	4	94.6	4	-1E+10	1	-1E+10	1	-1E+10	1	-1E+10	1	-1E+10	1	-1E+10	1
4901784	54	C	12/26/2016	10:47	-132.363	44.492	0	81.50	0	10.7960	0	32.9180	0	25.193	0	80.826	0	259.0	4	94.5	4	-1E+10	1	-1E+10	1	-1E+10	1	-1E+10	1	-1E+10	1	-1E+10	1
4901784	54	C	12/26/2016	10:47	-132.363	44.492	0	84.00	0	10.7960	0	32.9170	0	25.192	0	83.305	0	258.7	4	94.4	4	-1E+10	1	-1E+10	1	-1E+10	1	-1E+10	1	-1E+10	1	-1E+10	1
4901784	54	C	12/26/2016	10:47	-132.363	44.492	0	85.90	0	10.7960	0	32.9170	0	25.192	0	85.189	0	258.2	4	94.2	4	-1E+10	1	-1E+10	1	-1E+10	1	-1E+10	1	-1E+10	1	-1E+10	1
4901784	54	C	12/26/2016	10:47	-132.363	44.492	0	87.50	0	10.7940	0	32.9170	0	25.192	0	86.775	0	257.6	4	94.0	4	-1E+10	1	-1E+10	1	-1E+10	1	-1E+10	1	-1E+10	1	-1E+10	1
4901784	54	C	12/26/2016	10:47	-132.363	44.492	0	89.00	0	10.7950	0	32.9160	0	25.191	0	88.263	0	256.8	4	93.7	4	-1E+10	1	-1E+10	1	-1E+10	1	-1E+10	1	-1E+10	1	-1E+10	1
4901784	54	C	12/26/2016	10:47	-132.363	44.492	0	90.50	0	10.7930	0	32.9160	0	25.192	0	89.750	0	255.9	4	93.4	4	-1E+10	1	-1E+10	1	-1E+10	1	-1E+10	1	-1E+10	1	-1E+10	1
4901784	54	C	12/26/2016	10:47	-132.363	44.492	0	92.10	0	10.7870	0	32.9170	0	25.194	0	91.336	0	254.6	4	92.9	4	-1E+10	1	-1E+10	1	-1E+10	1	-1E+10	1	-1E+10	1	-1E+10	1
4901784	54	C	12/26/2016	10:47	-132.363	44.492	0	93.70	0	10.7840	0	32.9160	0	25.193	0	92.923	0	252.9	4	92.3	4	-1E+10	1	-1E+10	1	-1E+10	1	-1E+10	1	-1E+10	1	-1E+10	1
4901784	54	C	12/26/2016	10:47	-132.363	44.492	0	95.20	0	10.7820	0	32.9120	0	25.191	0	94.410	0	250.7	4	91.5	4	-1E+10	1	-1E+10	1	-1E+10	1	-1E+10	1	-1E+10	1	-1E+10	1
4901784	54	C	12/26/2016	10:47	-132.363	44.492	0	96.80	0	10.7460	0	32.9220	0	25.205	0	95.996	0	247.4	4	90.2	4	-1E+10	1	-1E+10	1	-1E+10	1	-1E+10	1	-1E+10	1	-1E+10	1
4901784	54	C	12/26/2016	10:47	-132.363	44.492	0	98.30	0	10.5340	0	32.9650	0	25.275	0	97.483	0	245.3	4	89.1	4	-1E+10	1	-1E+10	1	-1E+10	1	-1E+10	1	-1E+10	1	-1E+10	1
4901784	54	C	12/26/2016	10:47	-132.363	44.492	0	99.80	0	10.3120	0	33.0120	0	25.350	0	98.971	0	243.7	4	88.1	4	-1E+10	1	-1E+10	1	-1E+10	1	-1E+10	1	-1E+10	1	-1E+10	1
4901784	54	C	12/26/2016	10:47	-132.363	44.492	0	102.10	0	10.0570	0	33.0590	0	25.429	0	101.251	0	241.6	4	86.9	4	-1E+10	1	-1E+10	1	-1E+10	1	-1E+10	1	-1E+10	1	-1E+10	1
4901784	54	C	12/26/2016	10:47	-132.363	44.492	0	104.50	0	9.7720	0	33.1180	0	25.523	0	103.630	0	239.8	4	85.7	4	-1E+10	1	-1E+10	1	-1E+10	1	-1E+10	1	-1E+10	1	-1E+10	1
4901784	54	C	12/26/2016	10:47	-132.363	44.492	0	107.20	0	9.7050	0	33.1430	0	25.553	0	106.307	0	238.2	4	85.0	4	-1E+10	1	-1E+10	1	-1E+10	1	-1E+10	1	-1E+10	1	-1E+10	1
4901784	54	C	12/26/2016	10:47	-132.363	44.492	0	109.80	0	9.6630	0	33.1560	0	25.570	0	108.885	0	236.0	4	84.2	4	-1E+10	1	-1E+10	1	-1E+10	1	-1E+10	1	-1E+10	1	-1E+10	1
4901784	54	C	12/26/2016	10:47	-132.363	44.492	0	112.60	0	9.4110	0	33.1540	0	25.610	0	111.661	0	234.1	4	83.1	4	-1E+10	1	-1E+10	1	-1E+10	1	-1E+10	1	-1E+10	1	-1E+10	1
4901784	54	C	12/26/2016	10:47	-132.363	44.492	0	114.80	0	9.1310	0	33.1500	0	25.651	0	113.842	0	232.5	4	82.0	4	-1E+10	1	-1E+10	1	-1E+10	1	-1E+10	1	-1E+10	1	-1E+10	1
4901784	54	C	12/26/2016	10:47	-132.363	44.492	0	117.90	0	8.9770	0	33.1700	0	25.691	0	116.915	0	228.5	4	80.3	4	-1E+10	1	-1E+10	1	-1E+10	1	-1E+10	1	-1E+10	1	-1E+10	1
4901784	54	C	12/26/2016	10:47	-132.363	44.492	0	120.10	0	8.9050	0	33.1780	0	25.709	0	119.096	0	224.0	4	78.6	4	-1E+10	1	-1E+10	1	-1E+10	1	-1E+10	1	-1E+10	1	-1E+10	1
4901784	54	C	12/26/2016	10:47	-132.363	44.492	0	122.40	0	8.8180	0	33.2620	0	25.788	0	121.376	0	218.8	4	76.7	4	-1E+10	1	-1E+10	1	-1E+10	1	-1E+10	1	-1E+10	1	-1E+10	1
4901784	54	C	12/26/2016	10:47	-132.363	44.492	0	125.40	0	8.8120	0	33.3180	0	25.833	0	124.350	0	211.9	4	74.3	4	-1E+10	1	-1E+10	1	-1E+10	1	-1E+10	1	-1E+10	1	-1E+10	1
4901784	54	C	12/26/2016	10:47	-132.363	44.492	0	127.70	0	8.8080	0	33.4490	0	25.936	0	126.630	0	206.0	4	72.3	4	-1E+10	1	-1E+10	1	-1E+10	1	-1E+10	1	-1E+10	1	-1E+10	1
4901784	54	C	12/26/2016	10:47	-132.363	44.492	0	130.20	0	8.8060	0	33.5330	0	26.002	0	129.108	0	201.6	4	70.8	4	-1E+10	1	-1E+10	1	-1E+10	1	-1E+10	1	-1E+10	1	-1E+10	1
4901784	54	C	12/26/2016	10:47	-132.363	44.492	0	132.70	0	8.7830	0	33.6040	0	26.062	0	131.587	0	197.6	4	69.4	4	-1E+10	1	-1E+10	1	-1E+10	1	-1E+10	1	-1E+10	1	-1E+10	1
4901784	54	C	12/26/2016	10:47	-132.363	44.492	0	135.20	0	8.7440	0	33.6870	0	26.133	0	134.065	0	194.6	4	68.3	4	-1E+10	1	-1E+10	1	-1E+10	1	-1E+10	1	-1E+10	1	-1E+10	1
4901784	54	C	12/26/2016	10:47	-132.363	44.492	0	137.80	0	8.7250	0	33.7160	0	26.158	0	136.642	0	192.6	4	67.6	4	-1E+10	1	-1E+10	1	-1E+10	1	-1E+10	1	-1E+10	1	-1E+10	1
4901784	54	C	12/26/2016	10:47	-132.363	44.492	0	140.20	0	8.6960	0	33.7580	0	26.196	0	139.021	0	190.7	4	66.9	4	-1E+10	1	-1E+10	1	-1E+10	1	-1E+10	1	-1E+10	1	-1E+10	1
4901784	54	C	12/26/2016	10:47	-132.363	44.492	0	142.70	0	8.6380	0	33.8150	0	26.249	0	141.499	0	189.0	4	66.2	4	-1E+10	1	-1E+10	1	-1E+10	1	-1E+10	1	-1E+10	1	-1E+10	1
4901784	54	C	12/26/2016	10:47	-132.363	44.492	0	144.50	0	8.5890	0	33.8390	0	26.276	0	143.284	0	188.2	4	65.9	4	-1E+10	1	-1E+10	1	-1E+10	1	-1E+10	1	-1E+10	1	-1E+10	1
4901784	54	C	12/26/2016	10:47	-132.363	44.492	0	147.20	0	8.5590	0	33.8540	0	26.292	0	145.960	0	186.9	4	65.4	4	-1E+10	1	-1E+10	1	-1E+10	1	-1E+10	1	-1E+10	1	-1E+10	1
4901784	54	C	12/26/2016	10:47	-132.363	44.492	0	149.80	0	8.5410	0	33.8740	0	26.311	0	148.537	0	185.3	4	64.8	4	-1E+10	1	-1E+10	1	-1E+10	1	-1E+10	1	-1E+10	1	-1E+10	1
4901784	54	C	12/26/2016	10:47	-132.363	44.492	0	152.30	0	8.4910	0	33.8970	0	26.336	0	151.015	0	184.0	4	64.3	4	-1E+10	1	-1E+10	1	-1E+10	1	-1E+10	1	-1E+10	1	-1E+10	1
4901784	54	C	12/26/2016	10:47	-132.363	44.492	0	154.90	0	8.4680	0	33.9010	0	26.343	0	153.592	0	183.2	4	64.0	4	-1E+10	1	-1E+10	1	-1E+10	1	-1E+10	1	-1E+10	1	-1E+10	1
4901784	54	C	12/26/2016	10:47	-132.363	44.492	0	157.60	0	8.4490	0	33.9040	0	26.348	0	156.268	0	182.5	4	63.7	4	-1E+10	1	-1E+10	1	-1E+10	1	-1E+10	1	-1E+10	1	-1E+10	1
4901784	54	C	12/26/2016	10:47	-132.363	44.492	0	160.20	0	8.4220	0	33.9080	0	26.356	0	158.845	0	181.2	4	63.2	4	-1E+10	1	-1E+10	1	-1E+10	1	-1E+10	1	-1E+10	1	-1E+10	1
4901784	54	C	12/26/2016	10:47	-132.363	44.492	0	162.00	0	8.3950	0	33.9120	0	26.363	0	160.629	0	180.0	4	62.8	4	-1E+10	1	-1E+10	1	-1E+10	1	-1E+10	1	-1E+10	1	-1E+10	1
4901784	54	C	12/26/2016	10:47	-132.363	44.492	0	164.70	0	8.3170	0	33.9210	0	26.382	0	163.306	0	179.2	4	62.4	4	-1E+10	1	-1E+10	1	-1E+10	1	-1E+10	1	-1E+10	1	-1E+10	1
4901784	54	C	12/26/2016	10:47	-132.363	44.492	0	167.30	0	8.1960	0	33.9250	0	26.403	0	165.883	0	178.9	4	62.1	4	-1E+10	1	-1E+10	1	-1E+10	1	-1E+10	1	-1E+10	1	-1E+10	1
4901784	54	C	12/26/2016	10:47	-132.363	44.492	0	170.10	0	8.1070	0	33.9240	0	26.416	0	168.658	0	177.9	4	61.7	4	-1E+10	1	-1E+10	1	-1E+10	1	-1E+10	1	-1E+10	1	-1E+10	1
4901784	54	C	12/26/2016	10:47	-132.363	44.492	0	172.90	0	8.1180	0	33.9340	0	26.422	0	171.433	0	176.1	4	61.1	4	-1E+10	1	-1E+10	1	-1E+10	1	-1E+10	1	-1E+10	1	-1E+10	1
4901784	54	C	12/26/2016	10:47	-132.363	44.492	0	174.70	0	8.1050	0	33.9330	0	26.423	0	173.217	0	174.6	4	60.5	4	-1E+10	1	-1E+10	1	-1E+10	1	-1E+10	1	-1E+10	1	-1E+10	1
4901784	54	C	12/26/2016	10:47	-132.363	44.492	0	177.60	0	7.9660	0	33.9360	0	26.446	0	176.091	0	173.7	4	60.0	4	-1E+10	1	-1E+10	1	-1E+10	1	-1E+10	1	-1E+10	1	-1E+10	1
4901784	54	C	12/26/2016	10:47	-132.363	44.492	0	180.60	0	7.9110	0	33.9400	0	26.457	0	179.064	0	172.8	4	59.6	4	-1E+10	1	-1E+10	1	-1E+10	1	-1E+10	1	-1E+10	1	-1E+10	1
4901784	54	C	12/26/2016	10:47	-132.363	44.492	0	182.40	0	7.8890	0	33.9400	0	26.461	0	180.848	0	172.6	4	59.5	4	-1E+10	1	-1E+10	1	-1E+10	1	-1E+10	1	-1E+10	1	-1E+10	1
4901784	54	C	12/26/2016	10:47	-132.363	44.492	0	184.40	0	7.8740	0	33.9380	0	26.461	0	182.830	0	172.1	4	59.4	4	-1E+10	1	-1E+10	1	-1E+10	1	-1E+10	1	-1E+10	1	-1E+10	1
4901784	54	C	12/26/2016	10:47	-132.363	44.492	0	187.50	0	7.8790	0	33.9430	0	26.465	0	185.902	0	170.8	4	58.9	4	-1E+10	1	-1E+10	1	-1E+10	1	-1E+10	1	-1E+10	1	-1E+10	1
4901784	54	C	12/26/2016	10:47	-132.363	44.492	0	190.40	0	7.8880	0	33.9470	0	26.466	0	188.776	0	169.2	4	58.4	4	-1E+10	1	-1E+10	1	-1E+10	1	-1E+10	1	-1E+10	1	-1E+10	1
4901784	54	C	12/26/2016	10:47	-132.363	44.492	0	192.80	0	7.7820	0	33.9440	0	26.479	0	191.155	0	167.9	4	57.8	4	-1E+10	1	-1E+10	1	-1E+10	1	-1E+10	1	-1E+10	1	-1E+10	1
4901784	54	C	12/26/2016	10:47	-132.363	44.492	0	195.30	0	7.7250	0	33.9450	0	26.489	0	193.632	0	166.4	4	57.2	4	-1E+10	1	-1E+10	1	-1E+10	1	-1E+10	1	-1E+10	1	-1E+10	1
4901784	54	C	12/26/2016	10:47	-132.363	44.492	0	197.70	0	7.6780	0	33.9450	0	26.495	0	196.011	0	165.0	4	56.7	4	-1E+10	1	-1E+10	1	-1E+10	1	-1E+10	1	-1E+10	1	-1E+10	1
4901784	54	C	12/26/2016	10:47	-132.363	44.492	0	200.10	0	7.6180	0	33.9460	0	26.505	0	198.389	0	163.2	4	56.0	4	-1E+10	1	-1E+10	1	-1E+10	1	-1E+10	1	-1E+10	1	-1E+10	1
4901784	54	C	12/26/2016	10:47	-132.363	44.492	0	202.60	0	7.5210	0	33.9510	0	26.523	0	200.866	0	161.5	4	55.3	4	-1E+10	1	-1E+10	1	-1E+10	1	-1E+10	1	-1E+10	1	-1E+10	1
4901784	54	C	12/26/2016	10:47	-132.363	44.492	0	205.10	0	7.4890	0	33.9510	0	26.527	0	203.344	0	159.9	4	54.7	4	-1E+10	1	-1E+10	1	-1E+10	1	-1E+10	1	-1E+10	1	-1E+10	1
4901784	54	C	12/26/2016	10:47	-132.363	44.492	0	207.70	0	7.4450	0	33.9490	0	26.532	0	205.920	0	158.4	4	54.1	4	-1E+10	1	-1E+10	1	-1E+10	1	-1E+10	1	-1E+10	1	-1E+10	1
4901784	54	C	12/26/2016	10:47	-132.363	44.492	0	210.40	0	7.4040	0	33.9480	0	26.537	0	208.596	0	156.9	4	53.5	4	-1E+10	1	-1E+10	1	-1E+10	1	-1E+10	1	-1E+10	1	-1E+10	1
4901784	54	C	12/26/2016	10:47	-132.363	44.492	0	212.10	0	7.3930	0	33.9460	0	26.537	0	210.280	0	155.9	4	53.2	4	-1E+10	1	-1E+10	1	-1E+10	1	-1E+10	1	-1E+10	1	-1E+10	1
4901784	54	C	12/26/2016	10:47	-132.363	44.492	0	214.80	0	7.3110	0	33.9460	0	26.548	0	212.956	0	154.5	4	52.6	4	-1E+10	1	-1E+10	1	-1E+10	1	-1E+10	1	-1E+10	1	-1E+10	1
4901784	54	C	12/26/2016	10:47	-132.363	44.492	0	217.40	0	7.2420	0	33.9470	0	26.559	0	215.532	0	153.5	4	52.2	4	-1E+10	1	-1E+10	1	-1E+10	1	-1E+10	1	-1E+10	1	-1E+10	1
4901784	54	C	12/26/2016	10:47	-132.363	44.492	0	220.00	0	7.1950	0	33.9510	0	26.569	0	218.108	0	152.5	4	51.8	4	-1E+10	1	-1E+10	1	-1E+10	1	-1E+10	1	-1E+10	1	-1E+10	1
4901784	54	C	12/26/2016	10:47	-132.363	44.492	0	222.60	0	7.1060	0	33.9500	0	26.580	0	220.684	0	150.5	4	51.0	4	-1E+10	1	-1E+10	1	-1E+10	1	-1E+10	1	-1E+10	1	-1E+10	1
4901784	54	C	12/26/2016	10:47	-132.363	44.492	0	225.30	0	7.0750	0	33.9470	0	26.582	0	223.360	0	149.4	4	50.6	4	-1E+10	1	-1E+10	1	-1E+10	1	-1E+10	1	-1E+10	1	-1E+10	1
4901784	54	C	12/26/2016	10:47	-132.363	44.492	0	228.00	0	7.0250	0	33.9470	0	26.589	0	226.035	0	148.1	4	50.1	4	-1E+10	1	-1E+10	1	-1E+10	1	-1E+10	1	-1E+10	1	-1E+10	1
4901784	54	C	12/26/2016	10:47	-132.363	44.492	0	229.80	0	7.0050	0	33.9460	0	26.591	0	227.819	0	147.1	4	49.8	4	-1E+10	1	-1E+10	1	-1E+10	1	-1E+10	1	-1E+10	1	-1E+10	1
4901784	54	C	12/26/2016	10:47	-132.363	44.492	0	232.50	0	6.9570	0	33.9460	0	26.598	0	230.494	0	145.7	4	49.2	4	-1E+10	1	-1E+10	1	-1E+10	1	-1E+10	1	-1E+10	1	-1E+10	1
4901784	54	C	12/26/2016	10:47	-132.363	44.492	0	235.20	0	6.9180	0	33.9460	0	26.603	0	233.169	0	144.3	4	48.7	4	-1E+10	1	-1E+10	1	-1E+10	1	-1E+10	1	-1E+10	1	-1E+10	1
4901784	54	C	12/26/2016	10:47	-132.363	44.492	0	237.10	0	6.9000	0	33.9470	0	26.606	0	235.051	0	143.5	4	48.4	4	-1E+10	1	-1E+10	1	-1E+10	1	-1E+10	1	-1E+10	1	-1E+10	1
4901784	54	C	12/26/2016	10:47	-132.363	44.492	0	239.80	0	6.8780	0	33.9480	0	26.610	0	237.727	0	142.0	4	47.9	4	-1E+10	1	-1E+10	1	-1E+10	1	-1E+10	1	-1E+10	1	-1E+10	1
4901784	54	C	12/26/2016	10:47	-132.363	44.492	0	242.50	0	6.8410	0	33.9470	0	26.614	0	240.402	0	140.1	4	47.2	4	-1E+10	1	-1E+10	1	-1E+10	1	-1E+10	1	-1E+10	1	-1E+10	1
4901784	54	C	12/26/2016	10:47	-132.363	44.492	0	245.30	0	6.7630	0	33.9500	0	26.627	0	243.176	0	138.4	4	46.6	4	-1E+10	1	-1E+10	1	-1E+10	1	-1E+10	1	-1E+10	1	-1E+10	1
4901784	54	C	12/26/2016	10:47	-132.363	44.492	0	248.10	0	6.7270	0	33.9490	0	26.631	0	245.950	0	136.9	4	46.0	4	-1E+10	1	-1E+10	1	-1E+10	1	-1E+10	1	-1E+10	1	-1E+10	1
4901784	54	C	12/26/2016	10:47	-132.363	44.492	0	249.90	0	6.7140	0	33.9480	0	26.632	0	247.733	0	135.6	4	45.6	4	-1E+10	1	-1E+10	1	-1E+10	1	-1E+10	1	-1E+10	1	-1E+10	1
4901784	54	C	12/26/2016	10:47	-132.363	44.492	0	252.60	0	6.6450	0	33.9500	0	26.643	0	250.408	0	133.6	4	44.8	4	-1E+10	1	-1E+10	1	-1E+10	1	-1E+10	1	-1E+10	1	-1E+10	1
4901784	54	C	12/26/2016	10:47	-132.363	44.492	0	255.40	0	6.6100	0	33.9500	0	26.647	0	253.182	0	131.5	4	44.1	4	-1E+10	1	-1E+10	1	-1E+10	1	-1E+10	1	-1E+10	1	-1E+10	1
4901784	54	C	12/26/2016	10:47	-132.363	44.492	0	257.20	0	6.5490	0	33.9510	0	26.656	0	254.965	0	130.2	4	43.6	4	-1E+10	1	-1E+10	1	-1E+10	1	-1E+10	1	-1E+10	1	-1E+10	1
4901784	54	C	12/26/2016	10:47	-132.363	44.492	0	260.00	0	6.5030	0	33.9540	0	26.665	0	257.739	0	128.8	4	43.1	4	-1E+10	1	-1E+10	1	-1E+10	1	-1E+10	1	-1E+10	1	-1E+10	1
4901784	54	C	12/26/2016	10:47	-132.363	44.492	0	262.80	0	6.4780	0	33.9550	0	26.669	0	260.513	0	127.4	4	42.6	4	-1E+10	1	-1E+10	1	-1E+10	1	-1E+10	1	-1E+10	1	-1E+10	1
4901784	54	C	12/26/2016	10:47	-132.363	44.492	0	264.70	0	6.4620	0	33.9540	0	26.670	0	262.396	0	126.5	4	42.3	4	-1E+10	1	-1E+10	1	-1E+10	1	-1E+10	1	-1E+10	1	-1E+10	1
4901784	54	C	12/26/2016	10:47	-132.363	44.492	0	267.50	0	6.4260	0	33.9550	0	26.676	0	265.169	0	125.0	4	41.7	4	-1E+10	1	-1E+10	1	-1E+10	1	-1E+10	1	-1E+10	1	-1E+10	1
4901784	54	C	12/26/2016	10:47	-132.363	44.492	0	270.20	0	6.3960	0	33.9560	0	26.680	0	267.844	0	123.5	4	41.2	4	-1E+10	1	-1E+10	1	-1E+10	1	-1E+10	1	-1E+10	1	-1E+10	1
4901784	54	C	12/26/2016	10:47	-132.363	44.492	0	272.20	0	6.3920	0	33.9550	0	26.680	0	269.825	0	122.4	4	40.8	4	-1E+10	1	-1E+10	1	-1E+10	1	-1E+10	1	-1E+10	1	-1E+10	1
4901784	54	C	12/26/2016	10:47	-132.363	44.492	0	274.90	0	6.3250	0	33.9570	0	26.690	0	272.500	0	120.3	4	40.1	4	-1E+10	1	-1E+10	1	-1E+10	1	-1E+10	1	-1E+10	1	-1E+10	1
4901784	54	C	12/26/2016	10:47	-132.363	44.492	0	277.70	0	6.2660	0	33.9560	0	26.697	0	275.274	0	118.8	4	39.5	4	-1E+10	1	-1E+10	1	-1E+10	1	-1E+10	1	-1E+10	1	-1E+10	1
4901784	54	C	12/26/2016	10:47	-132.363	44.492	0	279.50	0	6.2460	0	33.9570	0	26.701	0	277.057	0	118.0	4	39.2	4	-1E+10	1	-1E+10	1	-1E+10	1	-1E+10	1	-1E+10	1	-1E+10	1
4901784	54	C	12/26/2016	10:47	-132.363	44.492	0	282.40	0	6.2230	0	33.9580	0	26.704	0	279.929	0	116.8	4	38.8	4	-1E+10	1	-1E+10	1	-1E+10	1	-1E+10	1	-1E+10	1	-1E+10	1
4901784	54	C	12/26/2016	10:47	-132.363	44.492	0	285.10	0	6.2050	0	33.9580	0	26.707	0	282.604	0	115.5	4	38.4	4	-1E+10	1	-1E+10	1	-1E+10	1	-1E+10	1	-1E+10	1	-1E+10	1
4901784	54	C	12/26/2016	10:47	-132.363	44.492	0	287.00	0	6.1860	0	33.9590	0	26.710	0	284.486	0	114.5	4	38.0	4	-1E+10	1	-1E+10	1	-1E+10	1	-1E+10	1	-1E+10	1	-1E+10	1
4901784	54	C	12/26/2016	10:47	-132.363	44.492	0	289.80	0	6.1640	0	33.9580	0	26.712	0	287.260	0	113.1	4	37.5	4	-1E+10	1	-1E+10	1	-1E+10	1	-1E+10	1	-1E+10	1	-1E+10	1
4901784	54	C	12/26/2016	10:47	-132.363	44.492	0	292.60	0	6.1470	0	33.9570	0	26.713	0	290.033	0	111.3	4	36.9	4	-1E+10	1	-1E+10	1	-1E+10	1	-1E+10	1	-1E+10	1	-1E+10	1
4901784	54	C	12/26/2016	10:47	-132.363	44.492	0	295.30	0	6.0760	0	33.9590	0	26.724	0	292.707	0	109.5	4	36.3	4	-1E+10	1	-1E+10	1	-1E+10	1	-1E+10	1	-1E+10	1	-1E+10	1
4901784	54	C	12/26/2016	10:47	-132.363	44.492	0	298.10	0	6.0240	0	33.9600	0	26.731	0	295.481	0	108.3	4	35.8	4	-1E+10	1	-1E+10	1	-1E+10	1	-1E+10	1	-1E+10	1	-1E+10	1
4901784	54	C	12/26/2016	10:47	-132.363	44.492	0	299.90	0	6.0100	0	33.9600	0	26.733	0	297.264	0	107.6	4	35.6	4	-1E+10	1	-1E+10	1	-1E+10	1	-1E+10	1	-1E+10	1	-1E+10	1
4901784	54	C	12/26/2016	10:47	-132.363	44.492	0	302.60	0	5.9840	0	33.9600	0	26.736	0	299.938	0	106.5	4	35.2	4	-1E+10	1	-1E+10	1	-1E+10	1	-1E+10	1	-1E+10	1	-1E+10	1
4901784	54	C	12/26/2016	10:47	-132.363	44.492	0	305.30	0	5.9640	0	33.9590	0	26.738	0	302.612	0	105.3	4	34.8	4	-1E+10	1	-1E+10	1	-1E+10	1	-1E+10	1	-1E+10	1	-1E+10	1
4901784	54	C	12/26/2016	10:47	-132.363	44.492	0	307.10	0	5.9530	0	33.9560	0	26.737	0	304.395	0	104.3	4	34.4	4	-1E+10	1	-1E+10	1	-1E+10	1	-1E+10	1	-1E+10	1	-1E+10	1
4901784	54	C	12/26/2016	10:47	-132.363	44.492	0	309.70	0	5.8650	0	33.9600	0	26.751	0	306.970	0	103.0	4	33.9	4	-1E+10	1	-1E+10	1	-1E+10	1	-1E+10	1	-1E+10	1	-1E+10	1
4901784	54	C	12/26/2016	10:47	-132.363	44.492	0	312.40	0	5.8250	0	33.9600	0	26.756	0	309.645	0	102.1	4	33.6	4	-1E+10	1	-1E+10	1	-1E+10	1	-1E+10	1	-1E+10	1	-1E+10	1
4901784	54	C	12/26/2016	10:47	-132.363	44.492	0	315.20	0	5.7960	0	33.9610	0	26.760	0	312.418	0	101.3	4	33.3	4	-1E+10	1	-1E+10	1	-1E+10	1	-1E+10	1	-1E+10	1	-1E+10	1
4901784	54	C	12/26/2016	10:47	-132.363	44.492	0	317.90	0	5.7690	0	33.9610	0	26.764	0	315.092	0	100.5	4	33.0	4	-1E+10	1	-1E+10	1	-1E+10	1	-1E+10	1	-1E+10	1	-1E+10	1
4901784	54	C	12/26/2016	10:47	-132.363	44.492	0	319.80	0	5.7510	0	33.9610	0	26.766	0	316.974	0	99.9	4	32.8	4	-1E+10	1	-1E+10	1	-1E+10	1	-1E+10	1	-1E+10	1	-1E+10	1
4901784	54	C	12/26/2016	10:47	-132.363	44.492	0	322.60	0	5.7270	0	33.9620	0	26.770	0	319.747	0	99.1	4	32.5	4	-1E+10	1	-1E+10	1	-1E+10	1	-1E+10	1	-1E+10	1	-1E+10	1
4901784	54	C	12/26/2016	10:47	-132.363	44.492	0	325.40	0	5.7090	0	33.9620	0	26.772	0	322.520	0	98.3	4	32.3	4	-1E+10	1	-1E+10	1	-1E+10	1	-1E+10	1	-1E+10	1	-1E+10	1
4901784	54	C	12/26/2016	10:47	-132.363	44.492	0	327.30	0	5.6890	0	33.9630	0	26.775	0	324.401	0	97.7	4	32.1	4	-1E+10	1	-1E+10	1	-1E+10	1	-1E+10	1	-1E+10	1	-1E+10	1
4901784	54	C	12/26/2016	10:47	-132.363	44.492	0	330.00	0	5.6760	0	33.9630	0	26.777	0	327.075	0	96.8	4	31.8	4	-1E+10	1	-1E+10	1	-1E+10	1	-1E+10	1	-1E+10	1	-1E+10	1
4901784	54	C	12/26/2016	10:47	-132.363	44.492	0	332.80	0	5.6520	0	33.9630	0	26.780	0	329.848	0	95.6	4	31.4	4	-1E+10	1	-1E+10	1	-1E+10	1	-1E+10	1	-1E+10	1	-1E+10	1
4901784	54	C	12/26/2016	10:47	-132.363	44.492	0	334.60	0	5.6340	0	33.9630	0	26.782	0	331.631	0	94.7	4	31.0	4	-1E+10	1	-1E+10	1	-1E+10	1	-1E+10	1	-1E+10	1	-1E+10	1
4901784	54	C	12/26/2016	10:47	-132.363	44.492	0	337.40	0	5.5960	0	33.9650	0	26.788	0	334.404	0	93.5	4	30.6	4	-1E+10	1	-1E+10	1	-1E+10	1	-1E+10	1	-1E+10	1	-1E+10	1
4901784	54	C	12/26/2016	10:47	-132.363	44.492	0	340.20	0	5.5620	0	33.9670	0	26.794	0	337.177	0	92.5	4	30.3	4	-1E+10	1	-1E+10	1	-1E+10	1	-1E+10	1	-1E+10	1	-1E+10	1
4901784	54	C	12/26/2016	10:47	-132.363	44.492	0	342.00	0	5.5590	0	33.9660	0	26.793	0	338.959	0	91.8	4	30.0	4	-1E+10	1	-1E+10	1	-1E+10	1	-1E+10	1	-1E+10	1	-1E+10	1
4901784	54	C	12/26/2016	10:47	-132.363	44.492	0	344.80	0	5.5460	0	33.9670	0	26.796	0	341.732	0	90.5	4	29.6	4	-1E+10	1	-1E+10	1	-1E+10	1	-1E+10	1	-1E+10	1	-1E+10	1
4901784	54	C	12/26/2016	10:47	-132.363	44.492	0	347.50	0	5.5160	0	33.9670	0	26.799	0	344.406	0	89.1	4	29.1	4	-1E+10	1	-1E+10	1	-1E+10	1	-1E+10	1	-1E+10	1	-1E+10	1
4901784	54	C	12/26/2016	10:47	-132.363	44.492	0	350.30	0	5.4730	0	33.9710	0	26.808	0	347.179	0	87.9	4	28.7	4	-1E+10	1	-1E+10	1	-1E+10	1	-1E+10	1	-1E+10	1	-1E+10	1
4901784	54	C	12/26/2016	10:47	-132.363	44.492	0	352.90	0	5.4530	0	33.9710	0	26.810	0	349.753	0	86.7	4	28.3	4	-1E+10	1	-1E+10	1	-1E+10	1	-1E+10	1	-1E+10	1	-1E+10	1
4901784	54	C	12/26/2016	10:47	-132.363	44.492	0	354.80	0	5.4400	0	33.9720	0	26.812	0	351.635	0	85.7	4	27.9	4	-1E+10	1	-1E+10	1	-1E+10	1	-1E+10	1	-1E+10	1	-1E+10	1
4901784	54	C	12/26/2016	10:47	-132.363	44.492	0	357.60	0	5.3940	0	33.9770	0	26.822	0	354.407	0	84.5	4	27.5	4	-1E+10	1	-1E+10	1	-1E+10	1	-1E+10	1	-1E+10	1	-1E+10	1
4901784	54	C	12/26/2016	10:47	-132.363	44.492	0	360.40	0	5.3820	0	33.9790	0	26.825	0	357.180	0	83.7	4	27.3	4	-1E+10	1	-1E+10	1	-1E+10	1	-1E+10	1	-1E+10	1	-1E+10	1
4901784	54	C	12/26/2016	10:47	-132.363	44.492	0	362.30	0	5.3760	0	33.9790	0	26.826	0	359.061	0	83.1	4	27.1	4	-1E+10	1	-1E+10	1	-1E+10	1	-1E+10	1	-1E+10	1	-1E+10	1
4901784	54	C	12/26/2016	10:47	-132.363	44.492	0	365.10	0	5.3720	0	33.9790	0	26.826	0	361.834	0	81.8	4	26.6	4	-1E+10	1	-1E+10	1	-1E+10	1	-1E+10	1	-1E+10	1	-1E+10	1
4901784	54	C	12/26/2016	10:47	-132.363	44.492	0	367.90	0	5.3420	0	33.9810	0	26.831	0	364.606	0	80.2	4	26.1	4	-1E+10	1	-1E+10	1	-1E+10	1	-1E+10	1	-1E+10	1	-1E+10	1
4901784	54	C	12/26/2016	10:47	-132.363	44.492	0	369.80	0	5.3320	0	33.9850	0	26.836	0	366.488	0	79.1	4	25.7	4	-1E+10	1	-1E+10	1	-1E+10	1	-1E+10	1	-1E+10	1	-1E+10	1
4901784	54	C	12/26/2016	10:47	-132.363	44.492	0	372.70	0	5.3250	0	33.9850	0	26.837	0	369.359	0	77.5	4	25.2	4	-1E+10	1	-1E+10	1	-1E+10	1	-1E+10	1	-1E+10	1	-1E+10	1
4901784	54	C	12/26/2016	10:47	-132.363	44.492	0	375.60	0	5.2900	0	33.9920	0	26.846	0	372.230	0	75.5	4	24.5	4	-1E+10	1	-1E+10	1	-1E+10	1	-1E+10	1	-1E+10	1	-1E+10	1
4901784	54	C	12/26/2016	10:47	-132.363	44.492	0	377.50	0	5.2820	0	33.9910	0	26.846	0	374.112	0	74.5	4	24.2	4	-1E+10	1	-1E+10	1	-1E+10	1	-1E+10	1	-1E+10	1	-1E+10	1
4901784	54	C	12/26/2016	10:47	-132.363	44.492	0	379.40	0	5.2640	0	33.9960	0	26.852	0	375.993	0	73.5	4	23.9	4	-1E+10	1	-1E+10	1	-1E+10	1	-1E+10	1	-1E+10	1	-1E+10	1
4901784	54	C	12/26/2016	10:47	-132.363	44.492	0	382.40	0	5.2450	0	33.9980	0	26.856	0	378.963	0	72.0	4	23.4	4	-1E+10	1	-1E+10	1	-1E+10	1	-1E+10	1	-1E+10	1	-1E+10	1
4901784	54	C	12/26/2016	10:47	-132.363	44.492	0	385.30	0	5.2190	0	34.0020	0	26.862	0	381.834	0	70.8	4	23.0	4	-1E+10	1	-1E+10	1	-1E+10	1	-1E+10	1	-1E+10	1	-1E+10	1
4901784	54	C	12/26/2016	10:47	-132.363	44.492	0	387.20	0	5.2170	0	34.0030	0	26.863	0	383.716	0	70.1	4	22.7	4	-1E+10	1	-1E+10	1	-1E+10	1	-1E+10	1	-1E+10	1	-1E+10	1
4901784	54	C	12/26/2016	10:47	-132.363	44.492	0	390.10	0	5.2010	0	34.0050	0	26.867	0	386.587	0	68.7	4	22.3	4	-1E+10	1	-1E+10	1	-1E+10	1	-1E+10	1	-1E+10	1	-1E+10	1
4901784	54	C	12/26/2016	10:47	-132.363	44.492	0	392.80	0	5.1730	0	34.0080	0	26.873	0	389.260	0	67.4	4	21.8	4	-1E+10	1	-1E+10	1	-1E+10	1	-1E+10	1	-1E+10	1	-1E+10	1
4901784	54	C	12/26/2016	10:47	-132.363	44.492	0	394.70	0	5.1560	0	34.0090	0	26.875	0	391.141	0	66.5	4	21.6	4	-1E+10	1	-1E+10	1	-1E+10	1	-1E+10	1	-1E+10	1	-1E+10	1
4901784	54	C	12/26/2016	10:47	-132.363	44.492	0	397.60	0	5.1220	0	34.0130	0	26.882	0	394.012	0	65.2	4	21.1	4	-1E+10	1	-1E+10	1	-1E+10	1	-1E+10	1	-1E+10	1	-1E+10	1
4901784	54	C	12/26/2016	10:47	-132.363	44.492	0	400.40	0	5.1230	0	34.0190	0	26.887	0	396.784	0	63.9	4	20.7	4	-1E+10	1	-1E+10	1	-1E+10	1	-1E+10	1	-1E+10	1	-1E+10	1
4901784	54	C	12/26/2016	10:47	-132.363	44.492	0	402.30	0	5.1160	0	34.0210	0	26.890	0	398.665	0	63.5	4	20.6	4	-1E+10	1	-1E+10	1	-1E+10	1	-1E+10	1	-1E+10	1	-1E+10	1
4901784	54	C	12/26/2016	10:47	-132.363	44.492	0	404.20	0	5.1100	0	34.0210	0	26.890	0	400.546	0	63.0	4	20.4	4	-1E+10	1	-1E+10	1	-1E+10	1	-1E+10	1	-1E+10	1	-1E+10	1
4901784	54	C	12/26/2016	10:47	-132.363	44.492	0	407.30	0	5.0960	0	34.0230	0	26.893	0	403.615	0	62.2	4	20.2	4	-1E+10	1	-1E+10	1	-1E+10	1	-1E+10	1	-1E+10	1	-1E+10	1
4901784	54	C	12/26/2016	10:47	-132.363	44.492	0	410.20	0	5.0840	0	34.0230	0	26.895	0	406.486	0	61.4	4	19.9	4	-1E+10	1	-1E+10	1	-1E+10	1	-1E+10	1	-1E+10	1	-1E+10	1
4901784	54	C	12/26/2016	10:47	-132.363	44.492	0	412.70	0	5.0550	0	34.0270	0	26.901	0	408.961	0	60.7	4	19.6	4	-1E+10	1	-1E+10	1	-1E+10	1	-1E+10	1	-1E+10	1	-1E+10	1
4901784	54	C	12/26/2016	10:47	-132.363	44.492	0	415.10	0	5.0250	0	34.0280	0	26.906	0	411.337	0	59.9	4	19.4	4	-1E+10	1	-1E+10	1	-1E+10	1	-1E+10	1	-1E+10	1	-1E+10	1
4901784	54	C	12/26/2016	10:47	-132.363	44.492	0	417.50	0	4.9900	0	34.0300	0	26.911	0	413.713	0	59.3	4	19.1	4	-1E+10	1	-1E+10	1	-1E+10	1	-1E+10	1	-1E+10	1	-1E+10	1
4901784	54	C	12/26/2016	10:47	-132.363	44.492	0	419.90	0	4.9720	0	34.0310	0	26.914	0	416.089	0	58.7	4	19.0	4	-1E+10	1	-1E+10	1	-1E+10	1	-1E+10	1	-1E+10	1	-1E+10	1
4901784	54	C	12/26/2016	10:47	-132.363	44.492	0	422.40	0	4.9650	0	34.0340	0	26.917	0	418.563	0	58.0	4	18.7	4	-1E+10	1	-1E+10	1	-1E+10	1	-1E+10	1	-1E+10	1	-1E+10	1
4901784	54	C	12/26/2016	10:47	-132.363	44.492	0	424.80	0	4.9590	0	34.0360	0	26.920	0	420.939	0	57.4	4	18.5	4	-1E+10	1	-1E+10	1	-1E+10	1	-1E+10	1	-1E+10	1	-1E+10	1
4901784	54	C	12/26/2016	10:47	-132.363	44.492	0	427.40	0	4.9390	0	34.0340	0	26.920	0	423.513	0	56.9	4	18.4	4	-1E+10	1	-1E+10	1	-1E+10	1	-1E+10	1	-1E+10	1	-1E+10	1
4901784	54	C	12/26/2016	10:47	-132.363	44.492	0	429.90	0	4.9130	0	34.0390	0	26.927	0	425.988	0	55.9	4	18.0	4	-1E+10	1	-1E+10	1	-1E+10	1	-1E+10	1	-1E+10	1	-1E+10	1
4901784	54	C	12/26/2016	10:47	-132.363	44.492	0	432.40	0	4.9170	0	34.0410	0	26.928	0	428.462	0	55.2	4	17.8	4	-1E+10	1	-1E+10	1	-1E+10	1	-1E+10	1	-1E+10	1	-1E+10	1
4901784	54	C	12/26/2016	10:47	-132.363	44.492	0	434.90	0	4.9210	0	34.0410	0	26.928	0	430.937	0	54.4	4	17.6	4	-1E+10	1	-1E+10	1	-1E+10	1	-1E+10	1	-1E+10	1	-1E+10	1
4901784	54	C	12/26/2016	10:47	-132.363	44.492	0	437.40	0	4.9000	0	34.0440	0	26.933	0	433.411	0	53.6	4	17.3	4	-1E+10	1	-1E+10	1	-1E+10	1	-1E+10	1	-1E+10	1	-1E+10	1
4901784	54	C	12/26/2016	10:47	-132.363	44.492	0	439.90	0	4.8800	0	34.0460	0	26.937	0	435.886	0	52.8	4	17.0	4	-1E+10	1	-1E+10	1	-1E+10	1	-1E+10	1	-1E+10	1	-1E+10	1
4901784	54	C	12/26/2016	10:47	-132.363	44.492	0	442.50	0	4.8690	0	34.0480	0	26.939	0	438.460	0	51.9	4	16.7	4	-1E+10	1	-1E+10	1	-1E+10	1	-1E+10	1	-1E+10	1	-1E+10	1
4901784	54	C	12/26/2016	10:47	-132.363	44.492	0	445.10	0	4.8490	0	34.0530	0	26.946	0	441.033	0	51.0	4	16.4	4	-1E+10	1	-1E+10	1	-1E+10	1	-1E+10	1	-1E+10	1	-1E+10	1
4901784	54	C	12/26/2016	10:47	-132.363	44.492	0	447.60	0	4.8400	0	34.0560	0	26.949	0	443.508	0	50.3	4	16.2	4	-1E+10	1	-1E+10	1	-1E+10	1	-1E+10	1	-1E+10	1	-1E+10	1
4901784	54	C	12/26/2016	10:47	-132.363	44.492	0	450.20	0	4.8370	0	34.0570	0	26.950	0	446.081	0	49.7	4	16.0	4	-1E+10	1	-1E+10	1	-1E+10	1	-1E+10	1	-1E+10	1	-1E+10	1
4901784	54	C	12/26/2016	10:47	-132.363	44.492	0	452.70	0	4.8280	0	34.0580	0	26.952	0	448.555	0	49.0	4	15.8	4	-1E+10	1	-1E+10	1	-1E+10	1	-1E+10	1	-1E+10	1	-1E+10	1
4901784	54	C	12/26/2016	10:47	-132.363	44.492	0	455.30	0	4.8100	0	34.0610	0	26.956	0	451.129	0	48.3	4	15.5	4	-1E+10	1	-1E+10	1	-1E+10	1	-1E+10	1	-1E+10	1	-1E+10	1
4901784	54	C	12/26/2016	10:47	-132.363	44.492	0	457.90	0	4.7920	0	34.0650	0	26.962	0	453.702	0	47.7	4	15.3	4	-1E+10	1	-1E+10	1	-1E+10	1	-1E+10	1	-1E+10	1	-1E+10	1
4901784	54	C	12/26/2016	10:47	-132.363	44.492	0	460.50	0	4.7770	0	34.0660	0	26.964	0	456.275	0	47.3	4	15.2	4	-1E+10	1	-1E+10	1	-1E+10	1	-1E+10	1	-1E+10	1	-1E+10	1
4901784	54	C	12/26/2016	10:47	-132.363	44.492	0	462.20	0	4.7760	0	34.0660	0	26.964	0	457.958	0	46.9	4	15.1	4	-1E+10	1	-1E+10	1	-1E+10	1	-1E+10	1	-1E+10	1	-1E+10	1
4901784	54	C	12/26/2016	10:47	-132.363	44.492	0	464.70	0	4.7640	0	34.0670	0	26.966	0	460.432	0	46.2	4	14.8	4	-1E+10	1	-1E+10	1	-1E+10	1	-1E+10	1	-1E+10	1	-1E+10	1
4901784	54	C	12/26/2016	10:47	-132.363	44.492	0	467.30	0	4.7500	0	34.0690	0	26.969	0	463.005	0	45.4	4	14.6	4	-1E+10	1	-1E+10	1	-1E+10	1	-1E+10	1	-1E+10	1	-1E+10	1
4901784	54	C	12/26/2016	10:47	-132.363	44.492	0	469.80	0	4.7430	0	34.0710	0	26.972	0	465.480	0	44.4	4	14.2	4	-1E+10	1	-1E+10	1	-1E+10	1	-1E+10	1	-1E+10	1	-1E+10	1
4901784	54	C	12/26/2016	10:47	-132.363	44.492	0	472.40	0	4.7430	0	34.0750	0	26.975	0	468.053	0	43.2	4	13.9	4	-1E+10	1	-1E+10	1	-1E+10	1	-1E+10	1	-1E+10	1	-1E+10	1
4901784	54	C	12/26/2016	10:47	-132.363	44.492	0	474.90	0	4.7210	0	34.0800	0	26.981	0	470.527	0	42.3	4	13.6	4	-1E+10	1	-1E+10	1	-1E+10	1	-1E+10	1	-1E+10	1	-1E+10	1
4901784	54	C	12/26/2016	10:47	-132.363	44.492	0	477.50	0	4.6920	0	34.0840	0	26.988	0	473.100	0	41.5	4	13.3	4	-1E+10	1	-1E+10	1	-1E+10	1	-1E+10	1	-1E+10	1	-1E+10	1
4901784	54	C	12/26/2016	10:47	-132.363	44.492	0	480.10	0	4.6830	0	34.0860	0	26.990	0	475.673	0	41.0	4	13.1	4	-1E+10	1	-1E+10	1	-1E+10	1	-1E+10	1	-1E+10	1	-1E+10	1
4901784	54	C	12/26/2016	10:47	-132.363	44.492	0	482.60	0	4.6740	0	34.0890	0	26.994	0	478.147	0	40.5	4	13.0	4	-1E+10	1	-1E+10	1	-1E+10	1	-1E+10	1	-1E+10	1	-1E+10	1
4901784	54	C	12/26/2016	10:47	-132.363	44.492	0	485.30	0	4.6660	0	34.0900	0	26.996	0	480.819	0	40.2	4	12.9	4	-1E+10	1	-1E+10	1	-1E+10	1	-1E+10	1	-1E+10	1	-1E+10	1
4901784	54	C	12/26/2016	10:47	-132.363	44.492	0	487.90	0	4.6600	0	34.0910	0	26.997	0	483.392	0	39.8	4	12.8	4	-1E+10	1	-1E+10	1	-1E+10	1	-1E+10	1	-1E+10	1	-1E+10	1
4901784	54	C	12/26/2016	10:47	-132.363	44.492	0	489.60	0	4.6580	0	34.0910	0	26.997	0	485.074	0	39.5	4	12.7	4	-1E+10	1	-1E+10	1	-1E+10	1	-1E+10	1	-1E+10	1	-1E+10	1
4901784	54	C	12/26/2016	10:47	-132.363	44.492	0	492.30	0	4.6530	0	34.0920	0	26.999	0	487.746	0	38.9	4	12.5	4	-1E+10	1	-1E+10	1	-1E+10	1	-1E+10	1	-1E+10	1	-1E+10	1
4901784	54	C	12/26/2016	10:47	-132.363	44.492	0	494.90	0	4.6390	0	34.0960	0	27.003	0	490.319	0	38.3	4	12.3	4	-1E+10	1	-1E+10	1	-1E+10	1	-1E+10	1	-1E+10	1	-1E+10	1
4901784	54	C	12/26/2016	10:47	-132.363	44.492	0	497.60	0	4.6240	0	34.0970	0	27.006	0	492.991	0	37.7	4	12.1	4	-1E+10	1	-1E+10	1	-1E+10	1	-1E+10	1	-1E+10	1	-1E+10	1
4901784	54	C	12/26/2016	10:47	-132.363	44.492	0	500.20	0	4.6140	0	34.1000	0	27.009	0	495.564	0	37.1	4	11.9	4	-1E+10	1	-1E+10	1	-1E+10	1	-1E+10	1	-1E+10	1	-1E+10	1
4901784	54	C	12/26/2016	10:47	-132.363	44.492	0	505.50	0	4.5940	0	34.1040	0	27.015	0	500.808	0	35.9	4	11.5	4	-1E+10	1	-1E+10	1	-1E+10	1	-1E+10	1	-1E+10	1	-1E+10	1
4901784	54	C	12/26/2016	10:47	-132.363	44.492	0	510.10	0	4.5830	0	34.1080	0	27.019	0	505.360	0	34.7	4	11.1	4	-1E+10	1	-1E+10	1	-1E+10	1	-1E+10	1	-1E+10	1	-1E+10	1
4901784	54	C	12/26/2016	10:47	-132.363	44.492	0	514.70	0	4.5730	0	34.1140	0	27.025	0	509.912	0	33.9	4	10.8	4	-1E+10	1	-1E+10	1	-1E+10	1	-1E+10	1	-1E+10	1	-1E+10	1
4901784	54	C	12/26/2016	10:47	-132.363	44.492	0	520.10	0	4.5630	0	34.1180	0	27.029	0	515.255	0	32.8	4	10.5	4	-1E+10	1	-1E+10	1	-1E+10	1	-1E+10	1	-1E+10	1	-1E+10	1
4901784	54	C	12/26/2016	10:47	-132.363	44.492	0	525.60	0	4.5370	0	34.1240	0	27.037	0	520.697	0	31.9	4	10.2	4	-1E+10	1	-1E+10	1	-1E+10	1	-1E+10	1	-1E+10	1	-1E+10	1
4901784	54	C	12/26/2016	10:47	-132.363	44.492	0	530.20	0	4.5160	0	34.1270	0	27.042	0	525.248	0	31.2	4	10.0	4	-1E+10	1	-1E+10	1	-1E+10	1	-1E+10	1	-1E+10	1	-1E+10	1
4901784	54	C	12/26/2016	10:47	-132.363	44.492	0	534.80	0	4.4980	0	34.1300	0	27.046	0	529.799	0	30.3	4	9.7	4	-1E+10	1	-1E+10	1	-1E+10	1	-1E+10	1	-1E+10	1	-1E+10	1
4901784	54	C	12/26/2016	10:47	-132.363	44.492	0	539.50	0	4.4790	0	34.1350	0	27.052	0	534.449	0	29.4	4	9.4	4	-1E+10	1	-1E+10	1	-1E+10	1	-1E+10	1	-1E+10	1	-1E+10	1
4901784	54	C	12/26/2016	10:47	-132.363	44.492	0	544.30	0	4.4660	0	34.1400	0	27.057	0	539.198	0	28.7	4	9.2	4	-1E+10	1	-1E+10	1	-1E+10	1	-1E+10	1	-1E+10	1	-1E+10	1
4901784	54	C	12/26/2016	10:47	-132.363	44.492	0	549.70	0	4.4510	0	34.1450	0	27.063	0	544.540	0	27.8	4	8.9	4	-1E+10	1	-1E+10	1	-1E+10	1	-1E+10	1	-1E+10	1	-1E+10	1
4901784	54	C	12/26/2016	10:47	-132.363	44.492	0	554.50	0	4.4360	0	34.1490	0	27.068	0	549.289	0	27.1	4	8.6	4	-1E+10	1	-1E+10	1	-1E+10	1	-1E+10	1	-1E+10	1	-1E+10	1
4901784	54	C	12/26/2016	10:47	-132.363	44.492	0	559.40	0	4.4280	0	34.1520	0	27.071	0	554.136	0	26.4	4	8.4	4	-1E+10	1	-1E+10	1	-1E+10	1	-1E+10	1	-1E+10	1	-1E+10	1
4901784	54	C	12/26/2016	10:47	-132.363	44.492	0	564.40	0	4.4140	0	34.1560	0	27.076	0	559.083	0	25.5	4	8.1	4	-1E+10	1	-1E+10	1	-1E+10	1	-1E+10	1	-1E+10	1	-1E+10	1
4901784	54	C	12/26/2016	10:47	-132.363	44.492	0	569.40	0	4.3950	0	34.1620	0	27.083	0	564.029	0	24.6	4	7.8	4	-1E+10	1	-1E+10	1	-1E+10	1	-1E+10	1	-1E+10	1	-1E+10	1
4901784	54	C	12/26/2016	10:47	-132.363	44.492	0	574.40	0	4.3800	0	34.1680	0	27.089	0	568.975	0	23.9	4	7.6	4	-1E+10	1	-1E+10	1	-1E+10	1	-1E+10	1	-1E+10	1	-1E+10	1
4901784	54	C	12/26/2016	10:47	-132.363	44.492	0	579.50	0	4.3710	0	34.1710	0	27.093	0	574.019	0	23.1	4	7.4	4	-1E+10	1	-1E+10	1	-1E+10	1	-1E+10	1	-1E+10	1	-1E+10	1
4901784	54	C	12/26/2016	10:47	-132.363	44.492	0	584.50	0	4.3500	0	34.1780	0	27.100	0	578.965	0	22.4	4	7.1	4	-1E+10	1	-1E+10	1	-1E+10	1	-1E+10	1	-1E+10	1	-1E+10	1
4901784	54	C	12/26/2016	10:47	-132.363	44.492	0	589.60	0	4.3420	0	34.1820	0	27.104	0	584.010	0	21.9	4	7.0	4	-1E+10	1	-1E+10	1	-1E+10	1	-1E+10	1	-1E+10	1	-1E+10	1
4901784	54	C	12/26/2016	10:47	-132.363	44.492	0	594.60	0	4.3240	0	34.1860	0	27.110	0	588.955	0	21.4	4	6.8	4	-1E+10	1	-1E+10	1	-1E+10	1	-1E+10	1	-1E+10	1	-1E+10	1
4901784	54	C	12/26/2016	10:47	-132.363	44.492	0	599.70	0	4.3090	0	34.1900	0	27.114	0	594.000	0	21.0	4	6.7	4	-1E+10	1	-1E+10	1	-1E+10	1	-1E+10	1	-1E+10	1	-1E+10	1
4901784	54	C	12/26/2016	10:47	-132.363	44.492	0	604.70	0	4.3050	0	34.1920	0	27.116	0	598.945	0	20.7	4	6.6	4	-1E+10	1	-1E+10	1	-1E+10	1	-1E+10	1	-1E+10	1	-1E+10	1
4901784	54	C	12/26/2016	10:47	-132.363	44.492	0	609.80	0	4.2960	0	34.1960	0	27.121	0	603.989	0	20.3	4	6.4	4	-1E+10	1	-1E+10	1	-1E+10	1	-1E+10	1	-1E+10	1	-1E+10	1
4901784	54	C	12/26/2016	10:47	-132.363	44.492	0	615.00	0	4.2860	0	34.1990	0	27.124	0	609.132	0	19.9	4	6.3	4	-1E+10	1	-1E+10	1	-1E+10	1	-1E+10	1	-1E+10	1	-1E+10	1
4901784	54	C	12/26/2016	10:47	-132.363	44.492	0	620.20	0	4.2760	0	34.2010	0	27.127	0	614.275	0	19.4	4	6.2	4	-1E+10	1	-1E+10	1	-1E+10	1	-1E+10	1	-1E+10	1	-1E+10	1
4901784	54	C	12/26/2016	10:47	-132.363	44.492	0	625.50	0	4.2570	0	34.2070	0	27.134	0	619.516	0	18.9	4	6.0	4	-1E+10	1	-1E+10	1	-1E+10	1	-1E+10	1	-1E+10	1	-1E+10	1
4901784	54	C	12/26/2016	10:47	-132.363	44.492	0	630.00	0	4.2410	0	34.2100	0	27.138	0	623.966	0	18.5	4	5.9	4	-1E+10	1	-1E+10	1	-1E+10	1	-1E+10	1	-1E+10	1	-1E+10	1
4901784	54	C	12/26/2016	10:47	-132.363	44.492	0	634.50	0	4.2230	0	34.2150	0	27.144	0	628.416	0	18.1	4	5.8	4	-1E+10	1	-1E+10	1	-1E+10	1	-1E+10	1	-1E+10	1	-1E+10	1
4901784	54	C	12/26/2016	10:47	-132.363	44.492	0	640.00	0	4.2070	0	34.2190	0	27.148	0	633.855	0	17.7	4	5.6	4	-1E+10	1	-1E+10	1	-1E+10	1	-1E+10	1	-1E+10	1	-1E+10	1
4901784	54	C	12/26/2016	10:47	-132.363	44.492	0	645.40	0	4.1930	0	34.2240	0	27.154	0	639.195	0	17.3	4	5.5	4	-1E+10	1	-1E+10	1	-1E+10	1	-1E+10	1	-1E+10	1	-1E+10	1
4901784	54	C	12/26/2016	10:47	-132.363	44.492	0	649.90	0	4.1780	0	34.2280	0	27.159	0	643.645	0	17.0	4	5.4	4	-1E+10	1	-1E+10	1	-1E+10	1	-1E+10	1	-1E+10	1	-1E+10	1
4901784	54	C	12/26/2016	10:47	-132.363	44.492	0	654.50	0	4.1700	0	34.2310	0	27.162	0	648.193	0	16.8	4	5.3	4	-1E+10	1	-1E+10	1	-1E+10	1	-1E+10	1	-1E+10	1	-1E+10	1
4901784	54	C	12/26/2016	10:47	-132.363	44.492	0	660.10	0	4.1580	0	34.2340	0	27.166	0	653.731	0	16.6	4	5.3	4	-1E+10	1	-1E+10	1	-1E+10	1	-1E+10	1	-1E+10	1	-1E+10	1
4901784	54	C	12/26/2016	10:47	-132.363	44.492	0	664.70	0	4.1490	0	34.2370	0	27.169	0	658.279	0	16.4	4	5.2	4	-1E+10	1	-1E+10	1	-1E+10	1	-1E+10	1	-1E+10	1	-1E+10	1
4901784	54	C	12/26/2016	10:47	-132.363	44.492	0	669.30	0	4.1370	0	34.2400	0	27.173	0	662.827	0	16.1	4	5.1	4	-1E+10	1	-1E+10	1	-1E+10	1	-1E+10	1	-1E+10	1	-1E+10	1
4901784	54	C	12/26/2016	10:47	-132.363	44.492	0	674.90	0	4.1250	0	34.2440	0	27.177	0	668.364	0	15.8	4	5.0	4	-1E+10	1	-1E+10	1	-1E+10	1	-1E+10	1	-1E+10	1	-1E+10	1
4901784	54	C	12/26/2016	10:47	-132.363	44.492	0	680.50	0	4.1120	0	34.2470	0	27.181	0	673.901	0	15.6	4	4.9	4	-1E+10	1	-1E+10	1	-1E+10	1	-1E+10	1	-1E+10	1	-1E+10	1
4901784	54	C	12/26/2016	10:47	-132.363	44.492	0	685.20	0	4.1010	0	34.2500	0	27.184	0	678.548	0	15.4	4	4.9	4	-1E+10	1	-1E+10	1	-1E+10	1	-1E+10	1	-1E+10	1	-1E+10	1
4901784	54	C	12/26/2016	10:47	-132.363	44.492	0	690.00	0	4.0890	0	34.2530	0	27.188	0	683.293	0	15.2	4	4.8	4	-1E+10	1	-1E+10	1	-1E+10	1	-1E+10	1	-1E+10	1	-1E+10	1
4901784	54	C	12/26/2016	10:47	-132.363	44.492	0	694.70	0	4.0750	0	34.2580	0	27.194	0	687.940	0	14.9	4	4.7	4	-1E+10	1	-1E+10	1	-1E+10	1	-1E+10	1	-1E+10	1	-1E+10	1
4901784	54	C	12/26/2016	10:47	-132.363	44.492	0	699.50	0	4.0610	0	34.2610	0	27.197	0	692.685	0	14.8	4	4.7	4	-1E+10	1	-1E+10	1	-1E+10	1	-1E+10	1	-1E+10	1	-1E+10	1
4901784	54	C	12/26/2016	10:47	-132.363	44.492	0	705.30	0	4.0520	0	34.2640	0	27.201	0	698.419	0	14.6	4	4.6	4	-1E+10	1	-1E+10	1	-1E+10	1	-1E+10	1	-1E+10	1	-1E+10	1
4901784	54	C	12/26/2016	10:47	-132.363	44.492	0	710.10	0	4.0520	0	34.2640	0	27.201	0	703.164	0	14.5	4	4.6	4	-1E+10	1	-1E+10	1	-1E+10	1	-1E+10	1	-1E+10	1	-1E+10	1
4901784	54	C	12/26/2016	10:47	-132.363	44.492	0	715.00	0	4.0340	0	34.2670	0	27.205	0	708.008	0	14.4	4	4.5	4	-1E+10	1	-1E+10	1	-1E+10	1	-1E+10	1	-1E+10	1	-1E+10	1
4901784	54	C	12/26/2016	10:47	-132.363	44.492	0	720.50	0	4.0060	0	34.2750	0	27.214	0	713.445	0	14.2	4	4.5	4	-1E+10	1	-1E+10	1	-1E+10	1	-1E+10	1	-1E+10	1	-1E+10	1
4901784	54	C	12/26/2016	10:47	-132.363	44.492	0	725.40	0	4.0030	0	34.2750	0	27.215	0	718.288	0	14.0	4	4.4	4	-1E+10	1	-1E+10	1	-1E+10	1	-1E+10	1	-1E+10	1	-1E+10	1
4901784	54	C	12/26/2016	10:47	-132.363	44.492	0	730.30	0	3.9950	0	34.2780	0	27.218	0	723.132	0	13.8	4	4.4	4	-1E+10	1	-1E+10	1	-1E+10	1	-1E+10	1	-1E+10	1	-1E+10	1
4901784	54	C	12/26/2016	10:47	-132.363	44.492	0	735.30	0	3.9840	0	34.2820	0	27.222	0	728.074	0	13.6	4	4.3	4	-1E+10	1	-1E+10	1	-1E+10	1	-1E+10	1	-1E+10	1	-1E+10	1
4901784	54	C	12/26/2016	10:47	-132.363	44.492	0	740.30	0	3.9710	0	34.2860	0	27.227	0	733.016	0	13.4	4	4.2	4	-1E+10	1	-1E+10	1	-1E+10	1	-1E+10	1	-1E+10	1	-1E+10	1
4901784	54	C	12/26/2016	10:47	-132.363	44.492	0	745.30	0	3.9570	0	34.2910	0	27.232	0	737.958	0	13.2	4	4.2	4	-1E+10	1	-1E+10	1	-1E+10	1	-1E+10	1	-1E+10	1	-1E+10	1
4901784	54	C	12/26/2016	10:47	-132.363	44.492	0	750.40	0	3.9420	0	34.2950	0	27.237	0	742.999	0	13.0	4	4.1	4	-1E+10	1	-1E+10	1	-1E+10	1	-1E+10	1	-1E+10	1	-1E+10	1
4901784	54	C	12/26/2016	10:47	-132.363	44.492	0	755.20	0	3.9250	0	34.3000	0	27.243	0	747.743	0	12.8	4	4.0	4	-1E+10	1	-1E+10	1	-1E+10	1	-1E+10	1	-1E+10	1	-1E+10	1
4901784	54	C	12/26/2016	10:47	-132.363	44.492	0	760.20	0	3.9050	0	34.3050	0	27.249	0	752.684	0	12.7	4	4.0	4	-1E+10	1	-1E+10	1	-1E+10	1	-1E+10	1	-1E+10	1	-1E+10	1
4901784	54	C	12/26/2016	10:47	-132.363	44.492	0	765.20	0	3.8980	0	34.3070	0	27.251	0	757.626	0	12.5	4	4.0	4	-1E+10	1	-1E+10	1	-1E+10	1	-1E+10	1	-1E+10	1	-1E+10	1
4901784	54	C	12/26/2016	10:47	-132.363	44.492	0	770.10	0	3.8840	0	34.3110	0	27.256	0	762.468	0	12.4	4	3.9	4	-1E+10	1	-1E+10	1	-1E+10	1	-1E+10	1	-1E+10	1	-1E+10	1
4901784	54	C	12/26/2016	10:47	-132.363	44.492	0	775.10	0	3.8590	0	34.3170	0	27.263	0	767.410	0	12.2	4	3.8	4	-1E+10	1	-1E+10	1	-1E+10	1	-1E+10	1	-1E+10	1	-1E+10	1
4901784	54	C	12/26/2016	10:47	-132.363	44.492	0	780.10	0	3.8420	0	34.3210	0	27.268	0	772.351	0	12.1	4	3.8	4	-1E+10	1	-1E+10	1	-1E+10	1	-1E+10	1	-1E+10	1	-1E+10	1
4901784	54	C	12/26/2016	10:47	-132.363	44.492	0	785.10	0	3.8200	0	34.3270	0	27.275	0	777.292	0	12.0	4	3.8	4	-1E+10	1	-1E+10	1	-1E+10	1	-1E+10	1	-1E+10	1	-1E+10	1
4901784	54	C	12/26/2016	10:47	-132.363	44.492	0	790.20	0	3.8050	0	34.3300	0	27.279	0	782.331	0	11.9	4	3.7	4	-1E+10	1	-1E+10	1	-1E+10	1	-1E+10	1	-1E+10	1	-1E+10	1
4901784	54	C	12/26/2016	10:47	-132.363	44.492	0	795.30	0	3.7940	0	34.3330	0	27.282	0	787.371	0	11.8	4	3.7	4	-1E+10	1	-1E+10	1	-1E+10	1	-1E+10	1	-1E+10	1	-1E+10	1
4901784	54	C	12/26/2016	10:47	-132.363	44.492	0	800.40	0	3.7850	0	34.3350	0	27.285	0	792.411	0	11.8	4	3.7	4	-1E+10	1	-1E+10	1	-1E+10	1	-1E+10	1	-1E+10	1	-1E+10	1
4901784	54	C	12/26/2016	10:47	-132.363	44.492	0	805.50	0	3.7780	0	34.3380	0	27.288	0	797.450	0	11.7	4	3.7	4	-1E+10	1	-1E+10	1	-1E+10	1	-1E+10	1	-1E+10	1	-1E+10	1
4901784	54	C	12/26/2016	10:47	-132.363	44.492	0	810.70	0	3.7660	0	34.3400	0	27.291	0	802.588	0	11.6	4	3.6	4	-1E+10	1	-1E+10	1	-1E+10	1	-1E+10	1	-1E+10	1	-1E+10	1
4901784	54	C	12/26/2016	10:47	-132.363	44.492	0	815.00	0	3.7520	0	34.3440	0	27.295	0	806.837	0	11.6	4	3.6	4	-1E+10	1	-1E+10	1	-1E+10	1	-1E+10	1	-1E+10	1	-1E+10	1
4901784	54	C	12/26/2016	10:47	-132.363	44.492	0	819.30	0	3.7330	0	34.3480	0	27.301	0	811.085	0	11.5	4	3.6	4	-1E+10	1	-1E+10	1	-1E+10	1	-1E+10	1	-1E+10	1	-1E+10	1
4901784	54	C	12/26/2016	10:47	-132.363	44.492	0	824.50	0	3.7190	0	34.3510	0	27.304	0	816.223	0	11.5	4	3.6	4	-1E+10	1	-1E+10	1	-1E+10	1	-1E+10	1	-1E+10	1	-1E+10	1
4901784	54	C	12/26/2016	10:47	-132.363	44.492	0	829.80	0	3.7080	0	34.3540	0	27.308	0	821.459	0	11.4	4	3.6	4	-1E+10	1	-1E+10	1	-1E+10	1	-1E+10	1	-1E+10	1	-1E+10	1
4901784	54	C	12/26/2016	10:47	-132.363	44.492	0	835.20	0	3.6870	0	34.3590	0	27.314	0	826.794	0	11.4	4	3.6	4	-1E+10	1	-1E+10	1	-1E+10	1	-1E+10	1	-1E+10	1	-1E+10	1
4901784	54	C	12/26/2016	10:47	-132.363	44.492	0	840.50	0	3.6790	0	34.3610	0	27.316	0	832.030	0	11.3	4	3.6	4	-1E+10	1	-1E+10	1	-1E+10	1	-1E+10	1	-1E+10	1	-1E+10	1
4901784	54	C	12/26/2016	10:47	-132.363	44.492	0	845.00	0	3.6770	0	34.3620	0	27.317	0	836.476	0	11.4	4	3.6	4	-1E+10	1	-1E+10	1	-1E+10	1	-1E+10	1	-1E+10	1	-1E+10	1
4901784	54	C	12/26/2016	10:47	-132.363	44.492	0	849.50	0	3.6690	0	34.3630	0	27.319	0	840.922	0	11.3	4	3.6	4	-1E+10	1	-1E+10	1	-1E+10	1	-1E+10	1	-1E+10	1	-1E+10	1
4901784	54	C	12/26/2016	10:47	-132.363	44.492	0	855.00	0	3.6480	0	34.3670	0	27.324	0	846.355	0	11.3	4	3.5	4	-1E+10	1	-1E+10	1	-1E+10	1	-1E+10	1	-1E+10	1	-1E+10	1
4901784	54	C	12/26/2016	10:47	-132.363	44.492	0	860.40	0	3.6410	0	34.3700	0	27.327	0	851.689	0	11.3	4	3.5	4	-1E+10	1	-1E+10	1	-1E+10	1	-1E+10	1	-1E+10	1	-1E+10	1
4901784	54	C	12/26/2016	10:47	-132.363	44.492	0	865.00	0	3.6330	0	34.3730	0	27.331	0	856.233	0	11.3	4	3.6	4	-1E+10	1	-1E+10	1	-1E+10	1	-1E+10	1	-1E+10	1	-1E+10	1
4901784	54	C	12/26/2016	10:47	-132.363	44.492	0	869.50	0	3.6280	0	34.3750	0	27.333	0	860.679	0	11.3	4	3.6	4	-1E+10	1	-1E+10	1	-1E+10	1	-1E+10	1	-1E+10	1	-1E+10	1
4901784	54	C	12/26/2016	10:47	-132.363	44.492	0	875.00	0	3.6120	0	34.3790	0	27.338	0	866.111	0	11.4	4	3.6	4	-1E+10	1	-1E+10	1	-1E+10	1	-1E+10	1	-1E+10	1	-1E+10	1
4901784	54	C	12/26/2016	10:47	-132.363	44.492	0	880.50	0	3.5870	0	34.3850	0	27.345	0	871.544	0	11.4	4	3.6	4	-1E+10	1	-1E+10	1	-1E+10	1	-1E+10	1	-1E+10	1	-1E+10	1
4901784	54	C	12/26/2016	10:47	-132.363	44.492	0	885.20	0	3.5790	0	34.3880	0	27.348	0	876.186	0	11.4	4	3.6	4	-1E+10	1	-1E+10	1	-1E+10	1	-1E+10	1	-1E+10	1	-1E+10	1
4901784	54	C	12/26/2016	10:47	-132.363	44.492	0	889.90	0	3.5700	0	34.3900	0	27.350	0	880.829	0	11.4	4	3.6	4	-1E+10	1	-1E+10	1	-1E+10	1	-1E+10	1	-1E+10	1	-1E+10	1
4901784	54	C	12/26/2016	10:47	-132.363	44.492	0	894.70	0	3.5520	0	34.3940	0	27.355	0	885.570	0	11.4	4	3.6	4	-1E+10	1	-1E+10	1	-1E+10	1	-1E+10	1	-1E+10	1	-1E+10	1
4901784	54	C	12/26/2016	10:47	-132.363	44.492	0	900.20	0	3.5340	0	34.3960	0	27.359	0	891.002	0	11.4	4	3.6	4	-1E+10	1	-1E+10	1	-1E+10	1	-1E+10	1	-1E+10	1	-1E+10	1
4901784	54	C	12/26/2016	10:47	-132.363	44.492	0	905.30	0	3.5230	0	34.3980	0	27.362	0	896.039	0	11.5	4	3.6	4	-1E+10	1	-1E+10	1	-1E+10	1	-1E+10	1	-1E+10	1	-1E+10	1
4901784	54	C	12/26/2016	10:47	-132.363	44.492	0	910.10	0	3.5200	0	34.3990	0	27.363	0	900.779	0	11.5	4	3.6	4	-1E+10	1	-1E+10	1	-1E+10	1	-1E+10	1	-1E+10	1	-1E+10	1
4901784	54	C	12/26/2016	10:47	-132.363	44.492	0	915.00	0	3.5130	0	34.4010	0	27.365	0	905.619	0	11.5	4	3.6	4	-1E+10	1	-1E+10	1	-1E+10	1	-1E+10	1	-1E+10	1	-1E+10	1
4901784	54	C	12/26/2016	10:47	-132.363	44.492	0	919.90	0	3.5010	0	34.4040	0	27.369	0	910.458	0	11.7	4	3.7	4	-1E+10	1	-1E+10	1	-1E+10	1	-1E+10	1	-1E+10	1	-1E+10	1
4901784	54	C	12/26/2016	10:47	-132.363	44.492	0	924.80	0	3.4860	0	34.4090	0	27.374	0	915.297	0	11.8	4	3.7	4	-1E+10	1	-1E+10	1	-1E+10	1	-1E+10	1	-1E+10	1	-1E+10	1
4901784	54	C	12/26/2016	10:47	-132.363	44.492	0	929.80	0	3.4680	0	34.4150	0	27.381	0	920.234	0	12.0	4	3.7	4	-1E+10	1	-1E+10	1	-1E+10	1	-1E+10	1	-1E+10	1	-1E+10	1
4901784	54	C	12/26/2016	10:47	-132.363	44.492	0	934.80	0	3.4540	0	34.4190	0	27.385	0	925.172	0	12.0	4	3.8	4	-1E+10	1	-1E+10	1	-1E+10	1	-1E+10	1	-1E+10	1	-1E+10	1
4901784	54	C	12/26/2016	10:47	-132.363	44.492	0	939.90	0	3.4410	0	34.4220	0	27.389	0	930.208	0	12.1	4	3.8	4	-1E+10	1	-1E+10	1	-1E+10	1	-1E+10	1	-1E+10	1	-1E+10	1
4901784	54	C	12/26/2016	10:47	-132.363	44.492	0	945.00	0	3.4370	0	34.4230	0	27.390	0	935.244	0	12.1	4	3.8	4	-1E+10	1	-1E+10	1	-1E+10	1	-1E+10	1	-1E+10	1	-1E+10	1
4901784	54	C	12/26/2016	10:47	-132.363	44.492	0	950.10	0	3.4370	0	34.4230	0	27.390	0	940.280	0	12.2	4	3.8	4	-1E+10	1	-1E+10	1	-1E+10	1	-1E+10	1	-1E+10	1	-1E+10	1
4901784	54	C	12/26/2016	10:47	-132.363	44.492	0	955.20	0	3.4320	0	34.4250	0	27.392	0	945.316	0	12.3	4	3.8	4	-1E+10	1	-1E+10	1	-1E+10	1	-1E+10	1	-1E+10	1	-1E+10	1
4901784	54	C	12/26/2016	10:47	-132.363	44.492	0	960.40	0	3.4240	0	34.4270	0	27.394	0	950.450	0	12.4	4	3.9	4	-1E+10	1	-1E+10	1	-1E+10	1	-1E+10	1	-1E+10	1	-1E+10	1
4901784	54	C	12/26/2016	10:47	-132.363	44.492	0	965.70	0	3.4100	0	34.4320	0	27.400	0	955.683	0	12.6	4	3.9	4	-1E+10	1	-1E+10	1	-1E+10	1	-1E+10	1	-1E+10	1	-1E+10	1
4901784	54	C	12/26/2016	10:47	-132.363	44.492	0	970.10	0	3.3970	0	34.4360	0	27.404	0	960.027	0	12.6	4	3.9	4	-1E+10	1	-1E+10	1	-1E+10	1	-1E+10	1	-1E+10	1	-1E+10	1
4901784	54	C	12/26/2016	10:47	-132.363	44.492	0	974.50	0	3.3900	0	34.4370	0	27.406	0	964.371	0	12.7	4	4.0	4	-1E+10	1	-1E+10	1	-1E+10	1	-1E+10	1	-1E+10	1	-1E+10	1
4901784	54	C	12/26/2016	10:47	-132.363	44.492	0	979.80	0	3.3810	0	34.4390	0	27.408	0	969.604	0	12.8	4	4.0	4	-1E+10	1	-1E+10	1	-1E+10	1	-1E+10	1	-1E+10	1	-1E+10	1
4901784	54	C	12/26/2016	10:47	-132.363	44.492	0	985.30	0	3.3740	0	34.4410	0	27.411	0	975.034	0	12.9	4	4.0	4	-1E+10	1	-1E+10	1	-1E+10	1	-1E+10	1	-1E+10	1	-1E+10	1
4901784	54	C	12/26/2016	10:47	-132.363	44.492	0	989.90	0	3.3650	0	34.4440	0	27.414	0	979.575	0	13.0	4	4.0	4	-1E+10	1	-1E+10	1	-1E+10	1	-1E+10	1	-1E+10	1	-1E+10	1
4901784	54	C	12/26/2016	10:47	-132.363	44.492	0	994.40	0	3.3540	0	34.4460	0	27.417	0	984.018	0	13.1	4	4.1	4	-1E+10	1	-1E+10	1	-1E+10	1	-1E+10	1	-1E+10	1	-1E+10	1
4901784	54	C	12/26/2016	10:47	-132.363	44.492	0	999.90	0	3.3430	0	34.4490	0	27.420	0	989.448	0	13.2	4	4.1	4	-1E+10	1	-1E+10	1	-1E+10	1	-1E+10	1	-1E+10	1	-1E+10	1
4901784	54	C	12/26/2016	10:47	-132.363	44.492	0	1005.10	0	3.3370	0	34.4500	0	27.421	0	994.581	0	13.3	4	4.1	4	-1E+10	1	-1E+10	1	-1E+10	1	-1E+10	1	-1E+10	1	-1E+10	1
4901784	54	C	12/26/2016	10:47	-132.363	44.492	0	1009.30	0	3.3320	0	34.4510	0	27.423	0	998.727	0	13.4	4	4.2	4	-1E+10	1	-1E+10	1	-1E+10	1	-1E+10	1	-1E+10	1	-1E+10	1
4901784	54	C	12/26/2016	10:47	-132.363	44.492	0	1015.00	0	3.3250	0	34.4530	0	27.425	0	1004.354	0	13.5	4	4.2	4	-1E+10	1	-1E+10	1	-1E+10	1	-1E+10	1	-1E+10	1	-1E+10	1
4901784	54	C	12/26/2016	10:47	-132.363	44.492	0	1020.70	0	3.3100	0	34.4560	0	27.429	0	1009.980	0	13.6	4	4.2	4	-1E+10	1	-1E+10	1	-1E+10	1	-1E+10	1	-1E+10	1	-1E+10	1
4901784	54	C	12/26/2016	10:47	-132.363	44.492	0	1025.00	0	3.3050	0	34.4560	0	27.429	0	1014.224	0	13.7	4	4.2	4	-1E+10	1	-1E+10	1	-1E+10	1	-1E+10	1	-1E+10	1	-1E+10	1
4901784	54	C	12/26/2016	10:47	-132.363	44.492	0	1029.30	0	3.2940	0	34.4580	0	27.432	0	1018.469	0	13.8	4	4.3	4	-1E+10	1	-1E+10	1	-1E+10	1	-1E+10	1	-1E+10	1	-1E+10	1
4901784	54	C	12/26/2016	10:47	-132.363	44.492	0	1034.40	0	3.2890	0	34.4590	0	27.433	0	1023.503	0	13.8	4	4.3	4	-1E+10	1	-1E+10	1	-1E+10	1	-1E+10	1	-1E+10	1	-1E+10	1
4901784	54	C	12/26/2016	10:47	-132.363	44.492	0	1039.60	0	3.2880	0	34.4600	0	27.434	0	1028.635	0	14.0	4	4.4	4	-1E+10	1	-1E+10	1	-1E+10	1	-1E+10	1	-1E+10	1	-1E+10	1
4901784	54	C	12/26/2016	10:47	-132.363	44.492	0	1044.80	0	3.2840	0	34.4610	0	27.435	0	1033.768	0	14.3	4	4.5	4	-1E+10	1	-1E+10	1	-1E+10	1	-1E+10	1	-1E+10	1	-1E+10	1
4901784	54	C	12/26/2016	10:47	-132.363	44.492	0	1050.20	0	3.2850	0	34.4650	0	27.439	0	1039.097	0	14.8	4	4.6	4	-1E+10	1	-1E+10	1	-1E+10	1	-1E+10	1	-1E+10	1	-1E+10	1
4901784	54	C	12/26/2016	10:47	-132.363	44.492	0	1055.50	0	3.2850	0	34.4680	0	27.441	0	1044.328	0	14.9	4	4.6	4	-1E+10	1	-1E+10	1	-1E+10	1	-1E+10	1	-1E+10	1	-1E+10	1
4901784	54	C	12/26/2016	10:47	-132.363	44.492	0	1059.90	0	3.2800	0	34.4690	0	27.442	0	1048.670	0	15.0	4	4.7	4	-1E+10	1	-1E+10	1	-1E+10	1	-1E+10	1	-1E+10	1	-1E+10	1
4901784	54	C	12/26/2016	10:47	-132.363	44.492	0	1064.30	0	3.2700	0	34.4700	0	27.444	0	1053.013	0	15.1	4	4.7	4	-1E+10	1	-1E+10	1	-1E+10	1	-1E+10	1	-1E+10	1	-1E+10	1
4901784	54	C	12/26/2016	10:47	-132.363	44.492	0	1069.70	0	3.2610	0	34.4720	0	27.446	0	1058.342	0	15.4	4	4.8	4	-1E+10	1	-1E+10	1	-1E+10	1	-1E+10	1	-1E+10	1	-1E+10	1
4901784	54	C	12/26/2016	10:47	-132.363	44.492	0	1075.20	0	3.2590	0	34.4740	0	27.448	0	1063.769	0	15.6	4	4.8	4	-1E+10	1	-1E+10	1	-1E+10	1	-1E+10	1	-1E+10	1	-1E+10	1
4901784	54	C	12/26/2016	10:47	-132.363	44.492	0	1079.80	0	3.2510	0	34.4760	0	27.451	0	1068.309	0	15.7	4	4.9	4	-1E+10	1	-1E+10	1	-1E+10	1	-1E+10	1	-1E+10	1	-1E+10	1
4901784	54	C	12/26/2016	10:47	-132.363	44.492	0	1084.30	0	3.2450	0	34.4780	0	27.453	0	1072.750	0	15.8	4	4.9	4	-1E+10	1	-1E+10	1	-1E+10	1	-1E+10	1	-1E+10	1	-1E+10	1
4901784	54	C	12/26/2016	10:47	-132.363	44.492	0	1090.10	0	3.2370	0	34.4780	0	27.454	0	1078.473	0	16.0	4	5.0	4	-1E+10	1	-1E+10	1	-1E+10	1	-1E+10	1	-1E+10	1	-1E+10	1
4901784	54	C	12/26/2016	10:47	-132.363	44.492	0	1095.00	0	3.2330	0	34.4800	0	27.456	0	1083.308	0	16.4	4	5.1	4	-1E+10	1	-1E+10	1	-1E+10	1	-1E+10	1	-1E+10	1	-1E+10	1
4901784	54	C	12/26/2016	10:47	-132.363	44.492	0	1099.60	0	3.2540	0	34.4840	0	27.457	0	1087.847	0	16.9	4	5.3	4	-1E+10	1	-1E+10	1	-1E+10	1	-1E+10	1	-1E+10	1	-1E+10	1
4901784	54	C	12/26/2016	10:47	-132.363	44.492	0	1105.10	0	3.2550	0	34.4850	0	27.458	0	1093.274	0	16.9	4	5.3	4	-1E+10	1	-1E+10	1	-1E+10	1	-1E+10	1	-1E+10	1	-1E+10	1
4901784	54	C	12/26/2016	10:47	-132.363	44.492	0	1110.70	0	3.2400	0	34.4850	0	27.459	0	1098.799	0	16.9	4	5.2	4	-1E+10	1	-1E+10	1	-1E+10	1	-1E+10	1	-1E+10	1	-1E+10	1
4901784	54	C	12/26/2016	10:47	-132.363	44.492	0	1115.10	0	3.2270	0	34.4860	0	27.461	0	1103.140	0	16.9	4	5.3	4	-1E+10	1	-1E+10	1	-1E+10	1	-1E+10	1	-1E+10	1	-1E+10	1
4901784	54	C	12/26/2016	10:47	-132.363	44.492	0	1119.60	0	3.2250	0	34.4870	0	27.462	0	1107.580	0	17.1	4	5.3	4	-1E+10	1	-1E+10	1	-1E+10	1	-1E+10	1	-1E+10	1	-1E+10	1
4901784	54	C	12/26/2016	10:47	-132.363	44.492	0	1124.90	0	3.2270	0	34.4880	0	27.463	0	1112.809	0	17.2	4	5.3	4	-1E+10	1	-1E+10	1	-1E+10	1	-1E+10	1	-1E+10	1	-1E+10	1
4901784	54	C	12/26/2016	10:47	-132.363	44.492	0	1130.20	0	3.2240	0	34.4890	0	27.464	0	1118.038	0	17.3	4	5.4	4	-1E+10	1	-1E+10	1	-1E+10	1	-1E+10	1	-1E+10	1	-1E+10	1
4901784	54	C	12/26/2016	10:47	-132.363	44.492	0	1135.70	0	3.2140	0	34.4910	0	27.466	0	1123.464	0	17.4	4	5.4	4	-1E+10	1	-1E+10	1	-1E+10	1	-1E+10	1	-1E+10	1	-1E+10	1
4901784	54	C	12/26/2016	10:47	-132.363	44.492	0	1140.10	0	3.2070	0	34.4910	0	27.467	0	1127.805	0	17.4	4	5.4	4	-1E+10	1	-1E+10	1	-1E+10	1	-1E+10	1	-1E+10	1	-1E+10	1
4901784	54	C	12/26/2016	10:47	-132.363	44.492	0	1144.70	0	3.2000	0	34.4920	0	27.469	0	1132.343	0	17.5	4	5.4	4	-1E+10	1	-1E+10	1	-1E+10	1	-1E+10	1	-1E+10	1	-1E+10	1
4901784	54	C	12/26/2016	10:47	-132.363	44.492	0	1150.10	0	3.1920	0	34.4930	0	27.470	0	1137.670	0	17.6	4	5.4	4	-1E+10	1	-1E+10	1	-1E+10	1	-1E+10	1	-1E+10	1	-1E+10	1
4901784	54	C	12/26/2016	10:47	-132.363	44.492	0	1155.60	0	3.1770	0	34.4940	0	27.472	0	1143.096	0	17.7	4	5.5	4	-1E+10	1	-1E+10	1	-1E+10	1	-1E+10	1	-1E+10	1	-1E+10	1
4901784	54	C	12/26/2016	10:47	-132.363	44.492	0	1160.10	0	3.1690	0	34.4950	0	27.474	0	1147.535	0	17.7	4	5.5	4	-1E+10	1	-1E+10	1	-1E+10	1	-1E+10	1	-1E+10	1	-1E+10	1
4901784	54	C	12/26/2016	10:47	-132.363	44.492	0	1164.60	0	3.1610	0	34.4960	0	27.476	0	1151.974	0	17.8	4	5.5	4	-1E+10	1	-1E+10	1	-1E+10	1	-1E+10	1	-1E+10	1	-1E+10	1
4901784	54	C	12/26/2016	10:47	-132.363	44.492	0	1170.10	0	3.1550	0	34.4970	0	27.477	0	1157.399	0	18.0	4	5.6	4	-1E+10	1	-1E+10	1	-1E+10	1	-1E+10	1	-1E+10	1	-1E+10	1
4901784	54	C	12/26/2016	10:47	-132.363	44.492	0	1175.60	0	3.1510	0	34.4980	0	27.478	0	1162.824	0	18.1	4	5.6	4	-1E+10	1	-1E+10	1	-1E+10	1	-1E+10	1	-1E+10	1	-1E+10	1
4901784	54	C	12/26/2016	10:47	-132.363	44.492	0	1180.10	0	3.1420	0	34.4990	0	27.480	0	1167.263	0	18.2	4	5.6	4	-1E+10	1	-1E+10	1	-1E+10	1	-1E+10	1	-1E+10	1	-1E+10	1
4901784	54	C	12/26/2016	10:47	-132.363	44.492	0	1184.60	0	3.1360	0	34.5000	0	27.481	0	1171.701	0	18.3	4	5.7	4	-1E+10	1	-1E+10	1	-1E+10	1	-1E+10	1	-1E+10	1	-1E+10	1
4901784	54	C	12/26/2016	10:47	-132.363	44.492	0	1190.10	0	3.1280	0	34.5020	0	27.484	0	1177.126	0	18.4	4	5.7	4	-1E+10	1	-1E+10	1	-1E+10	1	-1E+10	1	-1E+10	1	-1E+10	1
4901784	54	C	12/26/2016	10:47	-132.363	44.492	0	1195.50	0	3.1250	0	34.5020	0	27.484	0	1182.452	0	18.5	4	5.7	4	-1E+10	1	-1E+10	1	-1E+10	1	-1E+10	1	-1E+10	1	-1E+10	1
4901784	54	C	12/26/2016	10:47	-132.363	44.492	0	1200.20	0	3.1100	0	34.5030	0	27.486	0	1187.087	0	18.5	4	5.7	4	-1E+10	1	-1E+10	1	-1E+10	1	-1E+10	1	-1E+10	1	-1E+10	1
4901784	54	C	12/26/2016	10:47	-132.363	44.492	0	1204.80	0	3.1050	0	34.5040	0	27.487	0	1191.624	0	18.7	4	5.8	4	-1E+10	1	-1E+10	1	-1E+10	1	-1E+10	1	-1E+10	1	-1E+10	1
4901784	54	C	12/26/2016	10:47	-132.363	44.492	0	1210.30	0	3.0950	0	34.5060	0	27.490	0	1197.048	0	18.8	4	5.8	4	-1E+10	1	-1E+10	1	-1E+10	1	-1E+10	1	-1E+10	1	-1E+10	1
4901784	54	C	12/26/2016	10:47	-132.363	44.492	0	1214.90	0	3.0840	0	34.5060	0	27.491	0	1201.585	0	18.8	4	5.8	4	-1E+10	1	-1E+10	1	-1E+10	1	-1E+10	1	-1E+10	1	-1E+10	1
4901784	54	C	12/26/2016	10:47	-132.363	44.492	0	1219.50	0	3.0690	0	34.5080	0	27.494	0	1206.121	0	18.9	4	5.8	4	-1E+10	1	-1E+10	1	-1E+10	1	-1E+10	1	-1E+10	1	-1E+10	1
4901784	54	C	12/26/2016	10:47	-132.363	44.492	0	1225.00	0	3.0600	0	34.5090	0	27.496	0	1211.545	0	19.0	4	5.9	4	-1E+10	1	-1E+10	1	-1E+10	1	-1E+10	1	-1E+10	1	-1E+10	1
4901784	54	C	12/26/2016	10:47	-132.363	44.492	0	1230.40	0	3.0540	0	34.5090	0	27.496	0	1216.870	0	19.1	4	5.9	4	-1E+10	1	-1E+10	1	-1E+10	1	-1E+10	1	-1E+10	1	-1E+10	1
4901784	54	C	12/26/2016	10:47	-132.363	44.492	0	1235.70	0	3.0470	0	34.5100	0	27.498	0	1222.097	0	19.3	4	6.0	4	-1E+10	1	-1E+10	1	-1E+10	1	-1E+10	1	-1E+10	1	-1E+10	1
4901784	54	C	12/26/2016	10:47	-132.363	44.492	0	1240.70	0	3.0380	0	34.5120	0	27.500	0	1227.027	0	19.4	4	6.0	4	-1E+10	1	-1E+10	1	-1E+10	1	-1E+10	1	-1E+10	1	-1E+10	1
4901784	54	C	12/26/2016	10:47	-132.363	44.492	0	1245.70	0	3.0370	0	34.5120	0	27.500	0	1231.957	0	19.6	4	6.1	4	-1E+10	1	-1E+10	1	-1E+10	1	-1E+10	1	-1E+10	1	-1E+10	1
4901784	54	C	12/26/2016	10:47	-132.363	44.492	0	1250.00	0	3.0340	0	34.5140	0	27.502	0	1236.197	0	19.8	4	6.1	4	-1E+10	1	-1E+10	1	-1E+10	1	-1E+10	1	-1E+10	1	-1E+10	1
4901784	54	C	12/26/2016	10:47	-132.363	44.492	0	1254.20	0	3.0210	0	34.5150	0	27.504	0	1240.338	0	20.0	4	6.2	4	-1E+10	1	-1E+10	1	-1E+10	1	-1E+10	1	-1E+10	1	-1E+10	1
4901784	54	C	12/26/2016	10:47	-132.363	44.492	0	1259.20	0	3.0080	0	34.5170	0	27.507	0	1245.268	0	20.3	4	6.3	4	-1E+10	1	-1E+10	1	-1E+10	1	-1E+10	1	-1E+10	1	-1E+10	1
4901784	54	C	12/26/2016	10:47	-132.363	44.492	0	1264.30	0	3.0010	0	34.5190	0	27.509	0	1250.297	0	20.6	4	6.4	4	-1E+10	1	-1E+10	1	-1E+10	1	-1E+10	1	-1E+10	1	-1E+10	1
4901784	54	C	12/26/2016	10:47	-132.363	44.492	0	1269.50	0	2.9910	0	34.5210	0	27.512	0	1255.424	0	20.8	4	6.4	4	-1E+10	1	-1E+10	1	-1E+10	1	-1E+10	1	-1E+10	1	-1E+10	1
4901784	54	C	12/26/2016	10:47	-132.363	44.492	0	1274.60	0	2.9860	0	34.5220	0	27.513	0	1260.452	0	21.0	4	6.5	4	-1E+10	1	-1E+10	1	-1E+10	1	-1E+10	1	-1E+10	1	-1E+10	1
4901784	54	C	12/26/2016	10:47	-132.363	44.492	0	1279.60	0	2.9790	0	34.5240	0	27.515	0	1265.381	0	21.2	4	6.5	4	-1E+10	1	-1E+10	1	-1E+10	1	-1E+10	1	-1E+10	1	-1E+10	1
4901784	54	C	12/26/2016	10:47	-132.363	44.492	0	1284.70	0	2.9760	0	34.5240	0	27.516	0	1270.409	0	21.3	4	6.6	4	-1E+10	1	-1E+10	1	-1E+10	1	-1E+10	1	-1E+10	1	-1E+10	1
4901784	54	C	12/26/2016	10:47	-132.363	44.492	0	1289.80	0	2.9720	0	34.5250	0	27.517	0	1275.437	0	21.4	4	6.6	4	-1E+10	1	-1E+10	1	-1E+10	1	-1E+10	1	-1E+10	1	-1E+10	1
4901784	54	C	12/26/2016	10:47	-132.363	44.492	0	1294.80	0	2.9660	0	34.5260	0	27.518	0	1280.366	0	21.6	4	6.7	4	-1E+10	1	-1E+10	1	-1E+10	1	-1E+10	1	-1E+10	1	-1E+10	1
4901784	54	C	12/26/2016	10:47	-132.363	44.492	0	1300.00	0	2.9600	0	34.5270	0	27.519	0	1285.492	0	21.9	4	6.7	4	-1E+10	1	-1E+10	1	-1E+10	1	-1E+10	1	-1E+10	1	-1E+10	1
4901784	54	C	12/26/2016	10:47	-132.363	44.492	0	1305.10	0	2.9570	0	34.5290	0	27.521	0	1290.520	0	22.1	4	6.8	4	-1E+10	1	-1E+10	1	-1E+10	1	-1E+10	1	-1E+10	1	-1E+10	1
4901784	54	C	12/26/2016	10:47	-132.363	44.492	0	1310.10	0	2.9510	0	34.5300	0	27.523	0	1295.449	0	22.2	4	6.9	4	-1E+10	1	-1E+10	1	-1E+10	1	-1E+10	1	-1E+10	1	-1E+10	1
4901784	54	C	12/26/2016	10:47	-132.363	44.492	0	1315.20	0	2.9460	0	34.5310	0	27.524	0	1300.476	0	22.4	4	6.9	4	-1E+10	1	-1E+10	1	-1E+10	1	-1E+10	1	-1E+10	1	-1E+10	1
4901784	54	C	12/26/2016	10:47	-132.363	44.492	0	1320.40	0	2.9390	0	34.5320	0	27.525	0	1305.602	0	22.7	4	7.0	4	-1E+10	1	-1E+10	1	-1E+10	1	-1E+10	1	-1E+10	1	-1E+10	1
4901784	54	C	12/26/2016	10:47	-132.363	44.492	0	1325.50	0	2.9320	0	34.5330	0	27.527	0	1310.629	0	22.8	4	7.0	4	-1E+10	1	-1E+10	1	-1E+10	1	-1E+10	1	-1E+10	1	-1E+10	1
4901784	54	C	12/26/2016	10:47	-132.363	44.492	0	1330.50	0	2.9200	0	34.5350	0	27.530	0	1315.557	0	23.0	4	7.1	4	-1E+10	1	-1E+10	1	-1E+10	1	-1E+10	1	-1E+10	1	-1E+10	1
4901784	54	C	12/26/2016	10:47	-132.363	44.492	0	1335.70	0	2.9160	0	34.5360	0	27.531	0	1320.682	0	23.1	4	7.1	4	-1E+10	1	-1E+10	1	-1E+10	1	-1E+10	1	-1E+10	1	-1E+10	1
4901784	54	C	12/26/2016	10:47	-132.363	44.492	0	1340.80	0	2.9110	0	34.5360	0	27.531	0	1325.709	0	23.2	4	7.2	4	-1E+10	1	-1E+10	1	-1E+10	1	-1E+10	1	-1E+10	1	-1E+10	1
4901784	54	C	12/26/2016	10:47	-132.363	44.492	0	1345.00	0	2.9070	0	34.5370	0	27.532	0	1329.848	0	23.4	4	7.2	4	-1E+10	1	-1E+10	1	-1E+10	1	-1E+10	1	-1E+10	1	-1E+10	1
4901784	54	C	12/26/2016	10:47	-132.363	44.492	0	1349.40	0	2.8980	0	34.5380	0	27.534	0	1334.185	0	23.5	4	7.2	4	-1E+10	1	-1E+10	1	-1E+10	1	-1E+10	1	-1E+10	1	-1E+10	1
4901784	54	C	12/26/2016	10:47	-132.363	44.492	0	1354.40	0	2.8830	0	34.5390	0	27.536	0	1339.113	0	23.6	4	7.3	4	-1E+10	1	-1E+10	1	-1E+10	1	-1E+10	1	-1E+10	1	-1E+10	1
4901784	54	C	12/26/2016	10:47	-132.363	44.492	0	1359.60	0	2.8720	0	34.5390	0	27.537	0	1344.237	0	23.8	4	7.3	4	-1E+10	1	-1E+10	1	-1E+10	1	-1E+10	1	-1E+10	1	-1E+10	1
4901784	54	C	12/26/2016	10:47	-132.363	44.492	0	1364.70	0	2.8610	0	34.5410	0	27.540	0	1349.263	0	24.1	4	7.4	4	-1E+10	1	-1E+10	1	-1E+10	1	-1E+10	1	-1E+10	1	-1E+10	1
4901784	54	C	12/26/2016	10:47	-132.363	44.492	0	1369.90	0	2.8610	0	34.5420	0	27.541	0	1354.388	0	24.2	4	7.5	4	-1E+10	1	-1E+10	1	-1E+10	1	-1E+10	1	-1E+10	1	-1E+10	1
4901784	54	C	12/26/2016	10:47	-132.363	44.492	0	1375.10	0	2.8510	0	34.5430	0	27.542	0	1359.512	0	24.2	4	7.4	4	-1E+10	1	-1E+10	1	-1E+10	1	-1E+10	1	-1E+10	1	-1E+10	1
4901784	54	C	12/26/2016	10:47	-132.363	44.492	0	1380.30	0	2.8360	0	34.5420	0	27.543	0	1364.637	0	23.9	4	7.4	4	-1E+10	1	-1E+10	1	-1E+10	1	-1E+10	1	-1E+10	1	-1E+10	1
4901784	54	C	12/26/2016	10:47	-132.363	44.492	0	1385.60	0	2.8140	0	34.5410	0	27.544	0	1369.859	0	23.8	4	7.3	4	-1E+10	1	-1E+10	1	-1E+10	1	-1E+10	1	-1E+10	1	-1E+10	1
4901784	54	C	12/26/2016	10:47	-132.363	44.492	0	1390.00	0	2.8030	0	34.5420	0	27.546	0	1374.195	0	23.9	4	7.3	4	-1E+10	1	-1E+10	1	-1E+10	1	-1E+10	1	-1E+10	1	-1E+10	1
4901784	54	C	12/26/2016	10:47	-132.363	44.492	0	1394.40	0	2.8020	0	34.5420	0	27.546	0	1378.531	0	23.9	4	7.4	4	-1E+10	1	-1E+10	1	-1E+10	1	-1E+10	1	-1E+10	1	-1E+10	1
4901784	54	C	12/26/2016	10:47	-132.363	44.492	0	1399.80	0	2.7960	0	34.5420	0	27.547	0	1383.851	0	23.9	4	7.4	4	-1E+10	1	-1E+10	1	-1E+10	1	-1E+10	1	-1E+10	1	-1E+10	1
4901784	54	C	12/26/2016	10:47	-132.363	44.492	0	1405.20	0	2.7890	0	34.5430	0	27.548	0	1389.172	0	23.9	4	7.4	4	-1E+10	1	-1E+10	1	-1E+10	1	-1E+10	1	-1E+10	1	-1E+10	1
4901784	54	C	12/26/2016	10:47	-132.363	44.492	0	1410.60	0	2.7800	0	34.5420	0	27.548	0	1394.493	0	24.0	4	7.4	4	-1E+10	1	-1E+10	1	-1E+10	1	-1E+10	1	-1E+10	1	-1E+10	1
4901784	54	C	12/26/2016	10:47	-132.363	44.492	0	1415.00	0	2.7740	0	34.5420	0	27.549	0	1398.828	0	24.2	4	7.4	4	-1E+10	1	-1E+10	1	-1E+10	1	-1E+10	1	-1E+10	1	-1E+10	1
4901784	54	C	12/26/2016	10:47	-132.363	44.492	0	1419.50	0	2.7640	0	34.5440	0	27.551	0	1403.261	0	24.4	4	7.5	4	-1E+10	1	-1E+10	1	-1E+10	1	-1E+10	1	-1E+10	1	-1E+10	1
4901784	54	C	12/26/2016	10:47	-132.363	44.492	0	1425.00	0	2.7570	0	34.5450	0	27.552	0	1408.680	0	24.6	4	7.5	4	-1E+10	1	-1E+10	1	-1E+10	1	-1E+10	1	-1E+10	1	-1E+10	1
4901784	54	C	12/26/2016	10:47	-132.363	44.492	0	1430.30	0	2.7490	0	34.5450	0	27.553	0	1413.902	0	24.7	4	7.6	4	-1E+10	1	-1E+10	1	-1E+10	1	-1E+10	1	-1E+10	1	-1E+10	1
4901784	54	C	12/26/2016	10:47	-132.363	44.492	0	1434.90	0	2.7420	0	34.5460	0	27.555	0	1418.434	0	24.9	4	7.6	4	-1E+10	1	-1E+10	1	-1E+10	1	-1E+10	1	-1E+10	1	-1E+10	1
4901784	54	C	12/26/2016	10:47	-132.363	44.492	0	1439.50	0	2.7310	0	34.5470	0	27.556	0	1422.965	0	24.9	4	7.7	4	-1E+10	1	-1E+10	1	-1E+10	1	-1E+10	1	-1E+10	1	-1E+10	1
4901784	54	C	12/26/2016	10:47	-132.363	44.492	0	1445.50	0	2.7110	0	34.5470	0	27.558	0	1428.876	0	24.7	4	7.6	4	-1E+10	1	-1E+10	1	-1E+10	1	-1E+10	1	-1E+10	1	-1E+10	1
4901784	54	C	12/26/2016	10:47	-132.363	44.492	0	1450.40	0	2.6950	0	34.5460	0	27.559	0	1433.703	0	24.7	4	7.6	4	-1E+10	1	-1E+10	1	-1E+10	1	-1E+10	1	-1E+10	1	-1E+10	1
4901784	54	C	12/26/2016	10:47	-132.363	44.492	0	1455.30	0	2.6860	0	34.5470	0	27.560	0	1438.530	0	24.9	4	7.6	4	-1E+10	1	-1E+10	1	-1E+10	1	-1E+10	1	-1E+10	1	-1E+10	1
4901784	54	C	12/26/2016	10:47	-132.363	44.492	0	1460.10	0	2.6800	0	34.5480	0	27.562	0	1443.258	0	25.1	4	7.7	4	-1E+10	1	-1E+10	1	-1E+10	1	-1E+10	1	-1E+10	1	-1E+10	1
4901784	54	C	12/26/2016	10:47	-132.363	44.492	0	1465.00	0	2.6690	0	34.5480	0	27.563	0	1448.085	0	25.2	4	7.7	4	-1E+10	1	-1E+10	1	-1E+10	1	-1E+10	1	-1E+10	1	-1E+10	1
4901784	54	C	12/26/2016	10:47	-132.363	44.492	0	1469.90	0	2.6610	0	34.5480	0	27.563	0	1452.912	0	25.3	4	7.8	4	-1E+10	1	-1E+10	1	-1E+10	1	-1E+10	1	-1E+10	1	-1E+10	1
4901784	54	C	12/26/2016	10:47	-132.363	44.492	0	1474.70	0	2.6440	0	34.5500	0	27.567	0	1457.639	0	25.6	4	7.8	4	-1E+10	1	-1E+10	1	-1E+10	1	-1E+10	1	-1E+10	1	-1E+10	1
4901784	54	C	12/26/2016	10:47	-132.363	44.492	0	1479.70	0	2.6410	0	34.5500	0	27.567	0	1462.564	0	25.8	4	7.9	4	-1E+10	1	-1E+10	1	-1E+10	1	-1E+10	1	-1E+10	1	-1E+10	1
4901784	54	C	12/26/2016	10:47	-132.363	44.492	0	1484.50	0	2.6320	0	34.5510	0	27.568	0	1467.292	0	26.0	4	8.0	4	-1E+10	1	-1E+10	1	-1E+10	1	-1E+10	1	-1E+10	1	-1E+10	1
4901784	54	C	12/26/2016	10:47	-132.363	44.492	0	1489.40	0	2.6140	0	34.5520	0	27.571	0	1472.118	0	26.2	4	8.0	4	-1E+10	1	-1E+10	1	-1E+10	1	-1E+10	1	-1E+10	1	-1E+10	1
4901784	54	C	12/26/2016	10:47	-132.363	44.492	0	1494.40	0	2.6050	0	34.5530	0	27.572	0	1477.043	0	26.4	4	8.1	4	-1E+10	1	-1E+10	1	-1E+10	1	-1E+10	1	-1E+10	1	-1E+10	1
4901784	54	C	12/26/2016	10:47	-132.363	44.492	0	1499.30	0	2.5950	0	34.5530	0	27.573	0	1481.869	0	26.6	4	8.1	4	-1E+10	1	-1E+10	1	-1E+10	1	-1E+10	1	-1E+10	1	-1E+10	1
4901784	54	C	12/26/2016	10:47	-132.363	44.492	0	1504.30	0	2.5780	0	34.5550	0	27.576	0	1486.793	0	26.8	4	8.2	4	-1E+10	1	-1E+10	1	-1E+10	1	-1E+10	1	-1E+10	1	-1E+10	1
4901784	54	C	12/26/2016	10:47	-132.363	44.492	0	1509.30	0	2.5750	0	34.5550	0	27.577	0	1491.717	0	26.9	4	8.2	4	-1E+10	1	-1E+10	1	-1E+10	1	-1E+10	1	-1E+10	1	-1E+10	1
4901784	54	C	12/26/2016	10:47	-132.363	44.492	0	1514.40	0	2.5710	0	34.5550	0	27.577	0	1496.740	0	27.1	4	8.3	4	-1E+10	1	-1E+10	1	-1E+10	1	-1E+10	1	-1E+10	1	-1E+10	1
4901784	54	C	12/26/2016	10:47	-132.363	44.492	0	1519.50	0	2.5550	0	34.5570	0	27.580	0	1501.762	0	27.4	4	8.4	4	-1E+10	1	-1E+10	1	-1E+10	1	-1E+10	1	-1E+10	1	-1E+10	1
4901784	54	C	12/26/2016	10:47	-132.363	44.492	0	1524.70	0	2.5440	0	34.5570	0	27.581	0	1506.883	0	27.7	4	8.5	4	-1E+10	1	-1E+10	1	-1E+10	1	-1E+10	1	-1E+10	1	-1E+10	1
4901784	54	C	12/26/2016	10:47	-132.363	44.492	0	1529.90	0	2.5270	0	34.5590	0	27.584	0	1512.004	0	28.0	4	8.6	4	-1E+10	1	-1E+10	1	-1E+10	1	-1E+10	1	-1E+10	1	-1E+10	1
4901784	54	C	12/26/2016	10:47	-132.363	44.492	0	1535.10	0	2.5170	0	34.5600	0	27.586	0	1517.124	0	28.3	4	8.6	4	-1E+10	1	-1E+10	1	-1E+10	1	-1E+10	1	-1E+10	1	-1E+10	1
4901784	54	C	12/26/2016	10:47	-132.363	44.492	0	1540.50	0	2.5040	0	34.5610	0	27.588	0	1522.441	0	28.6	4	8.7	4	-1E+10	1	-1E+10	1	-1E+10	1	-1E+10	1	-1E+10	1	-1E+10	1
4901784	54	C	12/26/2016	10:47	-132.363	44.492	0	1544.80	0	2.4930	0	34.5620	0	27.589	0	1526.676	0	28.8	4	8.8	4	-1E+10	1	-1E+10	1	-1E+10	1	-1E+10	1	-1E+10	1	-1E+10	1
4901784	54	C	12/26/2016	10:47	-132.363	44.492	0	1549.20	0	2.4840	0	34.5630	0	27.591	0	1531.008	0	29.0	4	8.9	4	-1E+10	1	-1E+10	1	-1E+10	1	-1E+10	1	-1E+10	1	-1E+10	1
4901784	54	C	12/26/2016	10:47	-132.363	44.492	0	1554.50	0	2.4760	0	34.5630	0	27.592	0	1536.226	0	29.2	4	8.9	4	-1E+10	1	-1E+10	1	-1E+10	1	-1E+10	1	-1E+10	1	-1E+10	1
4901784	54	C	12/26/2016	10:47	-132.363	44.492	0	1559.80	0	2.4670	0	34.5640	0	27.593	0	1541.445	0	29.4	4	9.0	4	-1E+10	1	-1E+10	1	-1E+10	1	-1E+10	1	-1E+10	1	-1E+10	1
4901784	54	C	12/26/2016	10:47	-132.363	44.492	0	1565.20	0	2.4590	0	34.5650	0	27.595	0	1546.762	0	29.7	4	9.1	4	-1E+10	1	-1E+10	1	-1E+10	1	-1E+10	1	-1E+10	1	-1E+10	1
4901784	54	C	12/26/2016	10:47	-132.363	44.492	0	1570.60	0	2.4460	0	34.5660	0	27.597	0	1552.078	0	30.0	4	9.2	4	-1E+10	1	-1E+10	1	-1E+10	1	-1E+10	1	-1E+10	1	-1E+10	1
4901784	54	C	12/26/2016	10:47	-132.363	44.492	0	1575.00	0	2.4390	0	34.5670	0	27.598	0	1556.410	0	30.3	4	9.2	4	-1E+10	1	-1E+10	1	-1E+10	1	-1E+10	1	-1E+10	1	-1E+10	1
4901784	54	C	12/26/2016	10:47	-132.363	44.492	0	1579.60	0	2.4270	0	34.5680	0	27.600	0	1560.939	0	30.6	4	9.3	4	-1E+10	1	-1E+10	1	-1E+10	1	-1E+10	1	-1E+10	1	-1E+10	1
4901784	54	C	12/26/2016	10:47	-132.363	44.492	0	1585.10	0	2.4180	0	34.5690	0	27.601	0	1566.354	0	30.9	4	9.4	4	-1E+10	1	-1E+10	1	-1E+10	1	-1E+10	1	-1E+10	1	-1E+10	1
4901784	54	C	12/26/2016	10:47	-132.363	44.492	0	1590.50	0	2.4030	0	34.5710	0	27.604	0	1571.670	0	31.3	4	9.5	4	-1E+10	1	-1E+10	1	-1E+10	1	-1E+10	1	-1E+10	1	-1E+10	1
4901784	54	C	12/26/2016	10:47	-132.363	44.492	0	1595.10	0	2.3970	0	34.5710	0	27.605	0	1576.198	0	31.5	4	9.6	4	-1E+10	1	-1E+10	1	-1E+10	1	-1E+10	1	-1E+10	1	-1E+10	1
4901784	54	C	12/26/2016	10:47	-132.363	44.492	0	1599.70	0	2.3940	0	34.5720	0	27.606	0	1580.726	0	31.6	4	9.6	4	-1E+10	1	-1E+10	1	-1E+10	1	-1E+10	1	-1E+10	1	-1E+10	1
4901784	54	C	12/26/2016	10:47	-132.363	44.492	0	1605.20	0	2.3880	0	34.5720	0	27.606	0	1586.141	0	32.0	4	9.7	4	-1E+10	1	-1E+10	1	-1E+10	1	-1E+10	1	-1E+10	1	-1E+10	1
4901784	54	C	12/26/2016	10:47	-132.363	44.492	0	1609.80	0	2.3780	0	34.5730	0	27.608	0	1590.669	0	32.4	4	9.8	4	-1E+10	1	-1E+10	1	-1E+10	1	-1E+10	1	-1E+10	1	-1E+10	1
4901784	54	C	12/26/2016	10:47	-132.363	44.492	0	1614.50	0	2.3640	0	34.5750	0	27.611	0	1595.295	0	32.7	4	10.0	4	-1E+10	1	-1E+10	1	-1E+10	1	-1E+10	1	-1E+10	1	-1E+10	1
4901784	54	C	12/26/2016	10:47	-132.363	44.492	0	1620.10	0	2.3540	0	34.5760	0	27.612	0	1600.807	0	33.1	4	10.1	4	-1E+10	1	-1E+10	1	-1E+10	1	-1E+10	1	-1E+10	1	-1E+10	1
4901784	54	C	12/26/2016	10:47	-132.363	44.492	0	1625.60	0	2.3460	0	34.5770	0	27.614	0	1606.221	0	33.5	4	10.2	4	-1E+10	1	-1E+10	1	-1E+10	1	-1E+10	1	-1E+10	1	-1E+10	1
4901784	54	C	12/26/2016	10:47	-132.363	44.492	0	1630.30	0	2.3410	0	34.5770	0	27.614	0	1610.847	0	33.9	4	10.3	4	-1E+10	1	-1E+10	1	-1E+10	1	-1E+10	1	-1E+10	1	-1E+10	1
4901784	54	C	12/26/2016	10:47	-132.363	44.492	0	1635.00	0	2.3260	0	34.5790	0	27.617	0	1615.473	0	34.3	4	10.4	4	-1E+10	1	-1E+10	1	-1E+10	1	-1E+10	1	-1E+10	1	-1E+10	1
4901784	54	C	12/26/2016	10:47	-132.363	44.492	0	1640.60	0	2.3160	0	34.5800	0	27.619	0	1620.985	0	34.7	4	10.6	4	-1E+10	1	-1E+10	1	-1E+10	1	-1E+10	1	-1E+10	1	-1E+10	1
4901784	54	C	12/26/2016	10:47	-132.363	44.492	0	1645.80	0	2.3060	0	34.5820	0	27.621	0	1626.103	0	35.1	4	10.7	4	-1E+10	1	-1E+10	1	-1E+10	1	-1E+10	1	-1E+10	1	-1E+10	1
4901784	54	C	12/26/2016	10:47	-132.363	44.492	0	1650.10	0	2.3020	0	34.5820	0	27.622	0	1630.335	0	35.4	4	10.7	4	-1E+10	1	-1E+10	1	-1E+10	1	-1E+10	1	-1E+10	1	-1E+10	1
4901784	54	C	12/26/2016	10:47	-132.363	44.492	0	1655.10	0	2.2950	0	34.5840	0	27.624	0	1635.256	0	35.7	4	10.9	4	-1E+10	1	-1E+10	1	-1E+10	1	-1E+10	1	-1E+10	1	-1E+10	1
4901784	54	C	12/26/2016	10:47	-132.363	44.492	0	1660.00	0	2.2870	0	34.5850	0	27.625	0	1640.078	0	36.2	4	11.0	4	-1E+10	1	-1E+10	1	-1E+10	1	-1E+10	1	-1E+10	1	-1E+10	1
4901784	54	C	12/26/2016	10:47	-132.363	44.492	0	1665.10	0	2.2800	0	34.5860	0	27.627	0	1645.097	0	36.7	4	11.1	4	-1E+10	1	-1E+10	1	-1E+10	1	-1E+10	1	-1E+10	1	-1E+10	1
4901784	54	C	12/26/2016	10:47	-132.363	44.492	0	1670.00	0	2.2710	0	34.5880	0	27.629	0	1649.919	0	37.1	4	11.3	4	-1E+10	1	-1E+10	1	-1E+10	1	-1E+10	1	-1E+10	1	-1E+10	1
4901784	54	C	12/26/2016	10:47	-132.363	44.492	0	1675.00	0	2.2600	0	34.5890	0	27.631	0	1654.839	0	37.5	4	11.4	4	-1E+10	1	-1E+10	1	-1E+10	1	-1E+10	1	-1E+10	1	-1E+10	1
4901784	54	C	12/26/2016	10:47	-132.363	44.492	0	1680.00	0	2.2520	0	34.5900	0	27.632	0	1659.760	0	37.9	4	11.5	4	-1E+10	1	-1E+10	1	-1E+10	1	-1E+10	1	-1E+10	1	-1E+10	1
4901784	54	C	12/26/2016	10:47	-132.363	44.492	0	1685.10	0	2.2440	0	34.5910	0	27.634	0	1664.778	0	38.3	4	11.6	4	-1E+10	1	-1E+10	1	-1E+10	1	-1E+10	1	-1E+10	1	-1E+10	1
4901784	54	C	12/26/2016	10:47	-132.363	44.492	0	1690.10	0	2.2370	0	34.5930	0	27.636	0	1669.698	0	38.6	4	11.7	4	-1E+10	1	-1E+10	1	-1E+10	1	-1E+10	1	-1E+10	1	-1E+10	1
4901784	54	C	12/26/2016	10:47	-132.363	44.492	0	1695.20	0	2.2300	0	34.5930	0	27.636	0	1674.716	0	38.9	4	11.8	4	-1E+10	1	-1E+10	1	-1E+10	1	-1E+10	1	-1E+10	1	-1E+10	1
4901784	54	C	12/26/2016	10:47	-132.363	44.492	0	1700.20	0	2.2260	0	34.5940	0	27.638	0	1679.636	0	39.1	4	11.9	4	-1E+10	1	-1E+10	1	-1E+10	1	-1E+10	1	-1E+10	1	-1E+10	1
4901784	54	C	12/26/2016	10:47	-132.363	44.492	0	1705.20	0	2.2230	0	34.5940	0	27.638	0	1684.556	0	39.4	4	11.9	4	-1E+10	1	-1E+10	1	-1E+10	1	-1E+10	1	-1E+10	1	-1E+10	1
4901784	54	C	12/26/2016	10:47	-132.363	44.492	0	1710.20	0	2.2150	0	34.5950	0	27.639	0	1689.475	0	39.8	4	12.1	4	-1E+10	1	-1E+10	1	-1E+10	1	-1E+10	1	-1E+10	1	-1E+10	1
4901784	54	C	12/26/2016	10:47	-132.363	44.492	0	1715.30	0	2.2080	0	34.5960	0	27.641	0	1694.493	0	40.1	4	12.1	4	-1E+10	1	-1E+10	1	-1E+10	1	-1E+10	1	-1E+10	1	-1E+10	1
4901784	54	C	12/26/2016	10:47	-132.363	44.492	0	1720.40	0	2.2060	0	34.5970	0	27.642	0	1699.511	0	40.4	4	12.2	4	-1E+10	1	-1E+10	1	-1E+10	1	-1E+10	1	-1E+10	1	-1E+10	1
4901784	54	C	12/26/2016	10:47	-132.363	44.492	0	1725.50	0	2.1980	0	34.5980	0	27.643	0	1704.529	0	40.8	4	12.3	4	-1E+10	1	-1E+10	1	-1E+10	1	-1E+10	1	-1E+10	1	-1E+10	1
4901784	54	C	12/26/2016	10:47	-132.363	44.492	0	1730.70	0	2.1910	0	34.5990	0	27.645	0	1709.644	0	41.2	4	12.5	4	-1E+10	1	-1E+10	1	-1E+10	1	-1E+10	1	-1E+10	1	-1E+10	1
4901784	54	C	12/26/2016	10:47	-132.363	44.492	0	1735.00	0	2.1900	0	34.6000	0	27.645	0	1713.875	0	41.6	4	12.6	4	-1E+10	1	-1E+10	1	-1E+10	1	-1E+10	1	-1E+10	1	-1E+10	1
4901784	54	C	12/26/2016	10:47	-132.363	44.492	0	1739.20	0	2.1840	0	34.6010	0	27.647	0	1718.007	0	42.2	4	12.8	4	-1E+10	1	-1E+10	1	-1E+10	1	-1E+10	1	-1E+10	1	-1E+10	1
4901784	54	C	12/26/2016	10:47	-132.363	44.492	0	1744.40	0	2.1790	0	34.6030	0	27.649	0	1723.122	0	42.6	4	12.9	4	-1E+10	1	-1E+10	1	-1E+10	1	-1E+10	1	-1E+10	1	-1E+10	1
4901784	54	C	12/26/2016	10:47	-132.363	44.492	0	1749.60	0	2.1740	0	34.6040	0	27.650	0	1728.238	0	42.9	4	13.0	4	-1E+10	1	-1E+10	1	-1E+10	1	-1E+10	1	-1E+10	1	-1E+10	1
4901784	54	C	12/26/2016	10:47	-132.363	44.492	0	1754.70	0	2.1690	0	34.6050	0	27.651	0	1733.255	0	43.3	4	13.1	4	-1E+10	1	-1E+10	1	-1E+10	1	-1E+10	1	-1E+10	1	-1E+10	1
4901784	54	C	12/26/2016	10:47	-132.363	44.492	0	1760.00	0	2.1620	0	34.6060	0	27.653	0	1738.468	0	43.8	4	13.3	4	-1E+10	1	-1E+10	1	-1E+10	1	-1E+10	1	-1E+10	1	-1E+10	1
4901784	54	C	12/26/2016	10:47	-132.363	44.492	0	1765.20	0	2.1520	0	34.6070	0	27.654	0	1743.583	0	44.2	4	13.4	4	-1E+10	1	-1E+10	1	-1E+10	1	-1E+10	1	-1E+10	1	-1E+10	1
4901784	54	C	12/26/2016	10:47	-132.363	44.492	0	1770.50	0	2.1450	0	34.6080	0	27.656	0	1748.796	0	44.6	4	13.5	4	-1E+10	1	-1E+10	1	-1E+10	1	-1E+10	1	-1E+10	1	-1E+10	1
4901784	54	C	12/26/2016	10:47	-132.363	44.492	0	1774.90	0	2.1390	0	34.6100	0	27.658	0	1753.124	0	44.8	4	13.6	4	-1E+10	1	-1E+10	1	-1E+10	1	-1E+10	1	-1E+10	1	-1E+10	1
4901784	54	C	12/26/2016	10:47	-132.363	44.492	0	1779.40	0	2.1380	0	34.6090	0	27.657	0	1757.551	0	45.0	4	13.6	4	-1E+10	1	-1E+10	1	-1E+10	1	-1E+10	1	-1E+10	1	-1E+10	1
4901784	54	C	12/26/2016	10:47	-132.363	44.492	0	1784.80	0	2.1350	0	34.6100	0	27.658	0	1762.862	0	45.3	4	13.7	4	-1E+10	1	-1E+10	1	-1E+10	1	-1E+10	1	-1E+10	1	-1E+10	1
4901784	54	C	12/26/2016	10:47	-132.363	44.492	0	1790.20	0	2.1260	0	34.6110	0	27.660	0	1768.173	0	45.8	4	13.9	4	-1E+10	1	-1E+10	1	-1E+10	1	-1E+10	1	-1E+10	1	-1E+10	1
4901784	54	C	12/26/2016	10:47	-132.363	44.492	0	1795.70	0	2.1160	0	34.6120	0	27.661	0	1773.582	0	46.3	4	14.0	4	-1E+10	1	-1E+10	1	-1E+10	1	-1E+10	1	-1E+10	1	-1E+10	1
4901784	54	C	12/26/2016	10:47	-132.363	44.492	0	1800.30	0	2.1120	0	34.6130	0	27.662	0	1778.106	0	46.6	4	14.1	4	-1E+10	1	-1E+10	1	-1E+10	1	-1E+10	1	-1E+10	1	-1E+10	1
4901784	54	C	12/26/2016	10:47	-132.363	44.492	0	1804.80	0	2.1050	0	34.6140	0	27.664	0	1782.532	0	47.0	4	14.2	4	-1E+10	1	-1E+10	1	-1E+10	1	-1E+10	1	-1E+10	1	-1E+10	1
4901784	54	C	12/26/2016	10:47	-132.363	44.492	0	1810.40	0	2.1000	0	34.6150	0	27.665	0	1788.039	0	47.3	4	14.3	4	-1E+10	1	-1E+10	1	-1E+10	1	-1E+10	1	-1E+10	1	-1E+10	1
4901784	54	C	12/26/2016	10:47	-132.363	44.492	0	1814.60	0	2.0960	0	34.6150	0	27.665	0	1792.170	0	47.5	4	14.4	4	-1E+10	1	-1E+10	1	-1E+10	1	-1E+10	1	-1E+10	1	-1E+10	1
4901784	54	C	12/26/2016	10:47	-132.363	44.492	0	1819.50	0	2.0890	0	34.6160	0	27.667	0	1796.989	0	47.9	4	14.5	4	-1E+10	1	-1E+10	1	-1E+10	1	-1E+10	1	-1E+10	1	-1E+10	1
4901784	54	C	12/26/2016	10:47	-132.363	44.492	0	1824.50	0	2.0820	0	34.6170	0	27.668	0	1801.906	0	48.3	4	14.6	4	-1E+10	1	-1E+10	1	-1E+10	1	-1E+10	1	-1E+10	1	-1E+10	1
4901784	54	C	12/26/2016	10:47	-132.363	44.492	0	1829.50	0	2.0780	0	34.6170	0	27.668	0	1806.822	0	48.6	4	14.7	4	-1E+10	1	-1E+10	1	-1E+10	1	-1E+10	1	-1E+10	1	-1E+10	1
4901784	54	C	12/26/2016	10:47	-132.363	44.492	0	1834.60	0	2.0720	0	34.6180	0	27.670	0	1811.837	0	48.9	4	14.8	4	-1E+10	1	-1E+10	1	-1E+10	1	-1E+10	1	-1E+10	1	-1E+10	1
4901784	54	C	12/26/2016	10:47	-132.363	44.492	0	1839.60	0	2.0680	0	34.6190	0	27.671	0	1816.754	0	49.1	4	14.8	4	-1E+10	1	-1E+10	1	-1E+10	1	-1E+10	1	-1E+10	1	-1E+10	1
4901784	54	C	12/26/2016	10:47	-132.363	44.492	0	1844.70	0	2.0640	0	34.6190	0	27.671	0	1821.769	0	49.4	4	14.9	4	-1E+10	1	-1E+10	1	-1E+10	1	-1E+10	1	-1E+10	1	-1E+10	1
4901784	54	C	12/26/2016	10:47	-132.363	44.492	0	1849.80	0	2.0600	0	34.6200	0	27.672	0	1826.784	0	49.6	4	15.0	4	-1E+10	1	-1E+10	1	-1E+10	1	-1E+10	1	-1E+10	1	-1E+10	1
4901784	54	C	12/26/2016	10:47	-132.363	44.492	0	1854.90	0	2.0580	0	34.6200	0	27.673	0	1831.798	0	49.7	4	15.0	4	-1E+10	1	-1E+10	1	-1E+10	1	-1E+10	1	-1E+10	1	-1E+10	1
4901784	54	C	12/26/2016	10:47	-132.363	44.492	0	1860.10	0	2.0560	0	34.6210	0	27.674	0	1836.911	0	50.1	4	15.1	4	-1E+10	1	-1E+10	1	-1E+10	1	-1E+10	1	-1E+10	1	-1E+10	1
4901784	54	C	12/26/2016	10:47	-132.363	44.492	0	1865.20	0	2.0480	0	34.6220	0	27.675	0	1841.925	0	50.4	4	15.2	4	-1E+10	1	-1E+10	1	-1E+10	1	-1E+10	1	-1E+10	1	-1E+10	1
4901784	54	C	12/26/2016	10:47	-132.363	44.492	0	1870.40	0	2.0450	0	34.6220	0	27.675	0	1847.038	0	50.6	4	15.3	4	-1E+10	1	-1E+10	1	-1E+10	1	-1E+10	1	-1E+10	1	-1E+10	1
4901784	54	C	12/26/2016	10:47	-132.363	44.492	0	1875.60	0	2.0400	0	34.6230	0	27.676	0	1852.150	0	50.9	4	15.4	4	-1E+10	1	-1E+10	1	-1E+10	1	-1E+10	1	-1E+10	1	-1E+10	1
4901784	54	C	12/26/2016	10:47	-132.363	44.492	0	1880.00	0	2.0360	0	34.6230	0	27.677	0	1856.476	0	51.1	4	15.4	4	-1E+10	1	-1E+10	1	-1E+10	1	-1E+10	1	-1E+10	1	-1E+10	1
4901784	54	C	12/26/2016	10:47	-132.363	44.492	0	1884.40	0	2.0320	0	34.6240	0	27.678	0	1860.802	0	51.4	4	15.5	4	-1E+10	1	-1E+10	1	-1E+10	1	-1E+10	1	-1E+10	1	-1E+10	1
4901784	54	C	12/26/2016	10:47	-132.363	44.492	0	1889.70	0	2.0290	0	34.6240	0	27.678	0	1866.012	0	51.6	4	15.6	4	-1E+10	1	-1E+10	1	-1E+10	1	-1E+10	1	-1E+10	1	-1E+10	1
4901784	54	C	12/26/2016	10:47	-132.363	44.492	0	1895.00	0	2.0260	0	34.6250	0	27.679	0	1871.222	0	51.9	4	15.7	4	-1E+10	1	-1E+10	1	-1E+10	1	-1E+10	1	-1E+10	1	-1E+10	1
4901784	54	C	12/26/2016	10:47	-132.363	44.492	0	1900.30	0	2.0190	0	34.6260	0	27.681	0	1876.433	0	52.3	4	15.8	4	-1E+10	1	-1E+10	1	-1E+10	1	-1E+10	1	-1E+10	1	-1E+10	1
4901784	54	C	12/26/2016	10:47	-132.363	44.492	0	1905.70	0	2.0140	0	34.6260	0	27.681	0	1881.741	0	52.6	4	15.9	4	-1E+10	1	-1E+10	1	-1E+10	1	-1E+10	1	-1E+10	1	-1E+10	1
4901784	54	C	12/26/2016	10:47	-132.363	44.492	0	1910.20	0	2.0110	0	34.6270	0	27.682	0	1886.164	0	52.9	4	16.0	4	-1E+10	1	-1E+10	1	-1E+10	1	-1E+10	1	-1E+10	1	-1E+10	1
4901784	54	C	12/26/2016	10:47	-132.363	44.492	0	1914.70	0	2.0080	0	34.6270	0	27.682	0	1890.588	0	53.2	4	16.1	4	-1E+10	1	-1E+10	1	-1E+10	1	-1E+10	1	-1E+10	1	-1E+10	1
4901784	54	C	12/26/2016	10:47	-132.363	44.492	0	1920.20	0	2.0030	0	34.6290	0	27.684	0	1895.994	0	53.6	4	16.2	4	-1E+10	1	-1E+10	1	-1E+10	1	-1E+10	1	-1E+10	1	-1E+10	1
4901784	54	C	12/26/2016	10:47	-132.363	44.492	0	1924.70	0	2.0010	0	34.6290	0	27.685	0	1900.417	0	53.8	4	16.2	4	-1E+10	1	-1E+10	1	-1E+10	1	-1E+10	1	-1E+10	1	-1E+10	1
4901784	54	C	12/26/2016	10:47	-132.363	44.492	0	1929.20	0	1.9950	0	34.6300	0	27.686	0	1904.840	0	53.9	4	16.3	4	-1E+10	1	-1E+10	1	-1E+10	1	-1E+10	1	-1E+10	1	-1E+10	1
4901784	54	C	12/26/2016	10:47	-132.363	44.492	0	1934.50	0	1.9940	0	34.6300	0	27.686	0	1910.050	0	54.1	4	16.3	4	-1E+10	1	-1E+10	1	-1E+10	1	-1E+10	1	-1E+10	1	-1E+10	1
4901784	54	C	12/26/2016	10:47	-132.363	44.492	0	1939.40	0	1.9920	0	34.6300	0	27.686	0	1914.866	0	54.3	4	16.4	4	-1E+10	1	-1E+10	1	-1E+10	1	-1E+10	1	-1E+10	1	-1E+10	1
4901784	54	C	12/26/2016	10:47	-132.363	44.492	0	1944.40	0	1.9900	0	34.6300	0	27.686	0	1919.780	0	54.6	4	16.5	4	-1E+10	1	-1E+10	1	-1E+10	1	-1E+10	1	-1E+10	1	-1E+10	1
4901784	54	C	12/26/2016	10:47	-132.363	44.492	0	1949.40	0	1.9810	0	34.6310	0	27.688	0	1924.694	0	55.1	4	16.6	4	-1E+10	1	-1E+10	1	-1E+10	1	-1E+10	1	-1E+10	1	-1E+10	1
4901784	54	C	12/26/2016	10:47	-132.363	44.492	0	1954.40	0	1.9760	0	34.6330	0	27.690	0	1929.608	0	55.5	4	16.7	4	-1E+10	1	-1E+10	1	-1E+10	1	-1E+10	1	-1E+10	1	-1E+10	1
4901784	54	C	12/26/2016	10:47	-132.363	44.492	0	1959.50	0	1.9740	0	34.6330	0	27.690	0	1934.620	0	55.9	4	16.8	4	-1E+10	1	-1E+10	1	-1E+10	1	-1E+10	1	-1E+10	1	-1E+10	1
4901784	54	C	12/26/2016	10:47	-132.363	44.492	0	1964.50	0	1.9670	0	34.6340	0	27.691	0	1939.534	0	56.3	4	17.0	4	-1E+10	1	-1E+10	1	-1E+10	1	-1E+10	1	-1E+10	1	-1E+10	1
4901784	54	C	12/26/2016	10:47	-132.363	44.492	0	1969.70	0	1.9610	0	34.6350	0	27.693	0	1944.644	0	56.7	4	17.1	4	-1E+10	1	-1E+10	1	-1E+10	1	-1E+10	1	-1E+10	1	-1E+10	1
4901784	54	C	12/26/2016	10:47	-132.363	44.492	0	1974.80	0	1.9540	0	34.6360	0	27.694	0	1949.656	0	57.2	4	17.2	4	-1E+10	1	-1E+10	1	-1E+10	1	-1E+10	1	-1E+10	1	-1E+10	1
4901784	54	C	12/26/2016	10:47	-132.363	44.492	0	1980.00	0	1.9510	0	34.6360	0	27.694	0	1954.766	0	57.4	4	17.3	4	-1E+10	1	-1E+10	1	-1E+10	1	-1E+10	1	-1E+10	1	-1E+10	1
4901784	54	C	12/26/2016	10:47	-132.363	44.492	0	1985.10	0	1.9450	0	34.6370	0	27.696	0	1959.777	0	57.8	4	17.4	4	-1E+10	1	-1E+10	1	-1E+10	1	-1E+10	1	-1E+10	1	-1E+10	1
4901784	54	C	12/26/2016	10:47	-132.363	44.492	0	1990.30	0	1.9430	0	34.6380	0	27.697	0	1964.887	0	58.1	4	17.5	4	-1E+10	1	-1E+10	1	-1E+10	1	-1E+10	1	-1E+10	1	-1E+10	1
4901784	54	C	12/26/2016	10:47	-132.363	44.492	0	1995.50	0	1.9430	0	34.6390	0	27.697	0	1969.997	0	58.3	4	17.6	4	-1E+10	1	-1E+10	1	-1E+10	1	-1E+10	1	-1E+10	1	-1E+10	1
4901784	54	C	12/26/2016	10:47	-132.363	44.492	0	2000.00	0	1.9400	0	34.6390	0	27.698	0	1974.418	0	58.5	4	17.6	4	-1E+10	1	-1E+10	1	-1E+10	1	-1E+10	1	-1E+10	1	-1E+10	1
4901784	54	C	12/26/2016	10:47	-132.363	44.492	0	2005.10	0	1.9380	0	34.6400	0	27.699	0	1979.429	0	58.6	4	17.7	4	-1E+10	1	-1E+10	1	-1E+10	1	-1E+10	1	-1E+10	1	-1E+10	1
4901784	54	C	12/26/2016	10:47	-132.363	44.492	0	2010.20	0	1.9360	0	34.6400	0	27.699	0	1984.440	0	58.9	4	17.7	4	-1E+10	1	-1E+10	1	-1E+10	1	-1E+10	1	-1E+10	1	-1E+10	1
4901784	54	C	12/26/2016	10:47	-132.363	44.492	0	2015.50	0	1.9330	0	34.6410	0	27.700	0	1989.648	0	59.2	4	17.8	4	-1E+10	1	-1E+10	1	-1E+10	1	-1E+10	1	-1E+10	1	-1E+10	1
4901784	54	C	12/26/2016	10:47	-132.363	44.492	0	2020.80	0	1.9300	0	34.6420	0	27.701	0	1994.855	0	57.6	8	17.3	8	-1E+10	1	-1E+10	1	-1E+10	1	-1E+10	1	-1E+10	1	-1E+10	1
4901784	54	C	12/26/2016	10:47	-132.363	44.492	0																										
4901784	55	C	01/05/2017	10:42	-132.432	44.359	0	2.00	0	10.0440	0	32.8720	0	25.284	0	1.984	0	265.8	4	95.4	4	-1E+10	1	-1E+10	1	-1E+10	1	-1E+10	1	-1E+10	1	-1E+10	1
4901784	55	C	01/05/2017	10:42	-132.432	44.359	0	3.50	0	10.0440	0	32.8720	0	25.284	0	3.472	0	265.8	4	95.4	4	-1E+10	1	-1E+10	1	-1E+10	1	-1E+10	1	-1E+10	1	-1E+10	1
4901784	55	C	01/05/2017	10:42	-132.432	44.359	0	5.00	0	10.0440	0	32.8720	0	25.284	0	4.960	0	265.6	4	95.4	4	-1E+10	1	-1E+10	1	-1E+10	1	-1E+10	1	-1E+10	1	-1E+10	1
4901784	55	C	01/05/2017	10:42	-132.432	44.359	0	6.60	0	10.0430	0	32.8720	0	25.284	0	6.547	0	265.6	4	95.4	4	-1E+10	1	-1E+10	1	-1E+10	1	-1E+10	1	-1E+10	1	-1E+10	1
4901784	55	C	01/05/2017	10:42	-132.432	44.359	0	8.40	0	10.0440	0	32.8720	0	25.284	0	8.332	0	265.5	4	95.3	4	-1E+10	1	-1E+10	1	-1E+10	1	-1E+10	1	-1E+10	1	-1E+10	1
4901784	55	C	01/05/2017	10:42	-132.432	44.359	0	10.20	0	10.0440	0	32.8720	0	25.284	0	10.118	0	265.7	4	95.4	4	-1E+10	1	-1E+10	1	-1E+10	1	-1E+10	1	-1E+10	1	-1E+10	1
4901784	55	C	01/05/2017	10:42	-132.432	44.359	0	12.10	0	10.0450	0	32.8720	0	25.284	0	12.002	0	265.8	4	95.4	4	-1E+10	1	-1E+10	1	-1E+10	1	-1E+10	1	-1E+10	1	-1E+10	1
4901784	55	C	01/05/2017	10:42	-132.432	44.359	0	14.00	0	10.0450	0	32.8720	0	25.284	0	13.887	0	265.4	4	95.3	4	-1E+10	1	-1E+10	1	-1E+10	1	-1E+10	1	-1E+10	1	-1E+10	1
4901784	55	C	01/05/2017	10:42	-132.432	44.359	0	15.90	0	10.0450	0	32.8720	0	25.284	0	15.771	0	265.6	4	95.3	4	-1E+10	1	-1E+10	1	-1E+10	1	-1E+10	1	-1E+10	1	-1E+10	1
4901784	55	C	01/05/2017	10:42	-132.432	44.359	0	17.90	0	10.0460	0	32.8720	0	25.284	0	17.755	0	265.4	4	95.3	4	-1E+10	1	-1E+10	1	-1E+10	1	-1E+10	1	-1E+10	1	-1E+10	1
4901784	55	C	01/05/2017	10:42	-132.432	44.359	0	20.00	0	10.0460	0	32.8720	0	25.284	0	19.838	0	265.6	4	95.3	4	-1E+10	1	-1E+10	1	-1E+10	1	-1E+10	1	-1E+10	1	-1E+10	1
4901784	55	C	01/05/2017	10:42	-132.432	44.359	0	21.90	0	10.0460	0	32.8720	0	25.284	0	21.722	0	265.6	4	95.3	4	-1E+10	1	-1E+10	1	-1E+10	1	-1E+10	1	-1E+10	1	-1E+10	1
4901784	55	C	01/05/2017	10:42	-132.432	44.359	0	24.00	0	10.0460	0	32.8720	0	25.284	0	23.805	0	265.4	4	95.3	4	-1E+10	1	-1E+10	1	-1E+10	1	-1E+10	1	-1E+10	1	-1E+10	1
4901784	55	C	01/05/2017	10:42	-132.432	44.359	0	26.00	0	10.0470	0	32.8720	0	25.284	0	25.789	0	265.4	4	95.3	4	-1E+10	1	-1E+10	1	-1E+10	1	-1E+10	1	-1E+10	1	-1E+10	1
4901784	55	C	01/05/2017	10:42	-132.432	44.359	0	27.90	0	10.0470	0	32.8720	0	25.284	0	27.673	0	265.4	4	95.3	4	-1E+10	1	-1E+10	1	-1E+10	1	-1E+10	1	-1E+10	1	-1E+10	1
4901784	55	C	01/05/2017	10:42	-132.432	44.359	0	29.90	0	10.0470	0	32.8720	0	25.284	0	29.657	0	265.5	4	95.3	4	-1E+10	1	-1E+10	1	-1E+10	1	-1E+10	1	-1E+10	1	-1E+10	1
4901784	55	C	01/05/2017	10:42	-132.432	44.359	0	32.00	0	10.0470	0	32.8720	0	25.284	0	31.740	0	265.5	4	95.3	4	-1E+10	1	-1E+10	1	-1E+10	1	-1E+10	1	-1E+10	1	-1E+10	1
4901784	55	C	01/05/2017	10:42	-132.432	44.359	0	34.00	0	10.0480	0	32.8720	0	25.284	0	33.723	0	265.5	4	95.3	4	-1E+10	1	-1E+10	1	-1E+10	1	-1E+10	1	-1E+10	1	-1E+10	1
4901784	55	C	01/05/2017	10:42	-132.432	44.359	0	36.00	0	10.0480	0	32.8720	0	25.284	0	35.707	0	265.5	4	95.3	4	-1E+10	1	-1E+10	1	-1E+10	1	-1E+10	1	-1E+10	1	-1E+10	1
4901784	55	C	01/05/2017	10:42	-132.432	44.359	0	37.90	0	10.0480	0	32.8720	0	25.284	0	37.591	0	265.4	4	95.3	4	-1E+10	1	-1E+10	1	-1E+10	1	-1E+10	1	-1E+10	1	-1E+10	1
4901784	55	C	01/05/2017	10:42	-132.432	44.359	0	39.90	0	10.0480	0	32.8720	0	25.284	0	39.575	0	265.5	4	95.3	4	-1E+10	1	-1E+10	1	-1E+10	1	-1E+10	1	-1E+10	1	-1E+10	1
4901784	55	C	01/05/2017	10:42	-132.432	44.359	0	41.80	0	10.0480	0	32.8720	0	25.284	0	41.459	0	265.4	4	95.3	4	-1E+10	1	-1E+10	1	-1E+10	1	-1E+10	1	-1E+10	1	-1E+10	1
4901784	55	C	01/05/2017	10:42	-132.432	44.359	0	43.60	0	10.0490	0	32.8720	0	25.284	0	43.244	0	265.2	4	95.2	4	-1E+10	1	-1E+10	1	-1E+10	1	-1E+10	1	-1E+10	1	-1E+10	1
4901784	55	C	01/05/2017	10:42	-132.432	44.359	0	45.50	0	10.0480	0	32.8730	0	25.285	0	45.128	0	265.3	4	95.2	4	-1E+10	1	-1E+10	1	-1E+10	1	-1E+10	1	-1E+10	1	-1E+10	1
4901784	55	C	01/05/2017	10:42	-132.432	44.359	0	47.20	0	10.0490	0	32.8720	0	25.284	0	46.814	0	265.4	4	95.3	4	-1E+10	1	-1E+10	1	-1E+10	1	-1E+10	1	-1E+10	1	-1E+10	1
4901784	55	C	01/05/2017	10:42	-132.432	44.359	0	49.10	0	10.0490	0	32.8720	0	25.284	0	48.699	0	265.2	4	95.2	4	-1E+10	1	-1E+10	1	-1E+10	1	-1E+10	1	-1E+10	1	-1E+10	1
4901784	55	C	01/05/2017	10:42	-132.432	44.359	0	50.90	0	10.0500	0	32.8720	0	25.284	0	50.484	0	265.2	4	95.2	4	-1E+10	1	-1E+10	1	-1E+10	1	-1E+10	1	-1E+10	1	-1E+10	1
4901784	55	C	01/05/2017	10:42	-132.432	44.359	0	52.90	0	10.0490	0	32.8720	0	25.284	0	52.467	0	265.3	4	95.3	4	-1E+10	1	-1E+10	1	-1E+10	1	-1E+10	1	-1E+10	1	-1E+10	1
4901784	55	C	01/05/2017	10:42	-132.432	44.359	0	54.80	0	10.0490	0	32.8720	0	25.284	0	54.351	0	265.1	4	95.2	4	-1E+10	1	-1E+10	1	-1E+10	1	-1E+10	1	-1E+10	1	-1E+10	1
4901784	55	C	01/05/2017	10:42	-132.432	44.359	0	56.80	0	10.0490	0	32.8720	0	25.284	0	56.335	0	265.2	4	95.2	4	-1E+10	1	-1E+10	1	-1E+10	1	-1E+10	1	-1E+10	1	-1E+10	1
4901784	55	C	01/05/2017	10:42	-132.432	44.359	0	58.60	0	10.0490	0	32.8720	0	25.284	0	58.120	0	265.2	4	95.2	4	-1E+10	1	-1E+10	1	-1E+10	1	-1E+10	1	-1E+10	1	-1E+10	1
4901784	55	C	01/05/2017	10:42	-132.432	44.359	0	60.40	0	10.0500	0	32.8720	0	25.284	0	59.904	0	265.1	4	95.2	4	-1E+10	1	-1E+10	1	-1E+10	1	-1E+10	1	-1E+10	1	-1E+10	1
4901784	55	C	01/05/2017	10:42	-132.432	44.359	0	62.30	0	10.0500	0	32.8720	0	25.284	0	61.789	0	265.2	4	95.2	4	-1E+10	1	-1E+10	1	-1E+10	1	-1E+10	1	-1E+10	1	-1E+10	1
4901784	55	C	01/05/2017	10:42	-132.432	44.359	0	64.20	0	10.0500	0	32.8720	0	25.284	0	63.673	0	264.9	4	95.1	4	-1E+10	1	-1E+10	1	-1E+10	1	-1E+10	1	-1E+10	1	-1E+10	1
4901784	55	C	01/05/2017	10:42	-132.432	44.359	0	66.00	0	10.0510	0	32.8720	0	25.284	0	65.458	0	265.0	4	95.1	4	-1E+10	1	-1E+10	1	-1E+10	1	-1E+10	1	-1E+10	1	-1E+10	1
4901784	55	C	01/05/2017	10:42	-132.432	44.359	0	67.80	0	10.0500	0	32.8720	0	25.284	0	67.243	0	264.9	4	95.1	4	-1E+10	1	-1E+10	1	-1E+10	1	-1E+10	1	-1E+10	1	-1E+10	1
4901784	55	C	01/05/2017	10:42	-132.432	44.359	0	69.60	0	10.0510	0	32.8720	0	25.284	0	69.027	0	264.9	4	95.1	4	-1E+10	1	-1E+10	1	-1E+10	1	-1E+10	1	-1E+10	1	-1E+10	1
4901784	55	C	01/05/2017	10:42	-132.432	44.359	0	71.40	0	10.0510	0	32.8720	0	25.284	0	70.812	0	264.8	4	95.1	4	-1E+10	1	-1E+10	1	-1E+10	1	-1E+10	1	-1E+10	1	-1E+10	1
4901784	55	C	01/05/2017	10:42	-132.432	44.359	0	73.20	0	10.0510	0	32.8720	0	25.284	0	72.597	0	264.6	4	95.0	4	-1E+10	1	-1E+10	1	-1E+10	1	-1E+10	1	-1E+10	1	-1E+10	1
4901784	55	C	01/05/2017	10:42	-132.432	44.359	0	75.00	0	10.0510	0	32.8720	0	25.284	0	74.382	0	264.7	4	95.0	4	-1E+10	1	-1E+10	1	-1E+10	1	-1E+10	1	-1E+10	1	-1E+10	1
4901784	55	C	01/05/2017	10:42	-132.432	44.359	0	76.80	0	10.0510	0	32.8720	0	25.284	0	76.167	0	264.4	4	94.9	4	-1E+10	1	-1E+10	1	-1E+10	1	-1E+10	1	-1E+10	1	-1E+10	1
4901784	55	C	01/05/2017	10:42	-132.432	44.359	0	78.60	0	10.0510	0	32.8710	0	25.283	0	77.952	0	264.1	4	94.8	4	-1E+10	1	-1E+10	1	-1E+10	1	-1E+10	1	-1E+10	1	-1E+10	1
4901784	55	C	01/05/2017	10:42	-132.432	44.359	0	80.50	0	10.0510	0	32.8710	0	25.283	0	79.836	0	264.0	4	94.8	4	-1E+10	1	-1E+10	1	-1E+10	1	-1E+10	1	-1E+10	1	-1E+10	1
4901784	55	C	01/05/2017	10:42	-132.432	44.359	0	82.30	0	10.0510	0	32.8720	0	25.284	0	81.620	0	263.4	4	94.6	4	-1E+10	1	-1E+10	1	-1E+10	1	-1E+10	1	-1E+10	1	-1E+10	1
4901784	55	C	01/05/2017	10:42	-132.432	44.359	0	84.50	0	10.0520	0	32.8710	0	25.283	0	83.802	0	263.0	4	94.4	4	-1E+10	1	-1E+10	1	-1E+10	1	-1E+10	1	-1E+10	1	-1E+10	1
4901784	55	C	01/05/2017	10:42	-132.432	44.359	0	85.00	0	10.0520	0	32.8710	0	25.283	0	84.298	0	262.9	4	94.4	4	-1E+10	1	-1E+10	1	-1E+10	1	-1E+10	1	-1E+10	1	-1E+10	1
4901784	55	C	01/05/2017	10:42	-132.432	44.359	0	86.60	0	10.0520	0	32.8700	0	25.282	0	85.884	0	262.0	4	94.1	4	-1E+10	1	-1E+10	1	-1E+10	1	-1E+10	1	-1E+10	1	-1E+10	1
4901784	55	C	01/05/2017	10:42	-132.432	44.359	0	88.20	0	10.0510	0	32.8700	0	25.283	0	87.471	0	261.2	4	93.8	4	-1E+10	1	-1E+10	1	-1E+10	1	-1E+10	1	-1E+10	1	-1E+10	1
4901784	55	C	01/05/2017	10:42	-132.432	44.359	0	89.80	0	10.0410	0	32.8720	0	25.286	0	89.057	0	260.0	4	93.3	4	-1E+10	1	-1E+10	1	-1E+10	1	-1E+10	1	-1E+10	1	-1E+10	1
4901784	55	C	01/05/2017	10:42	-132.432	44.359	0	91.40	0	10.0390	0	32.8710	0	25.285	0	90.643	0	258.5	4	92.8	4	-1E+10	1	-1E+10	1	-1E+10	1	-1E+10	1	-1E+10	1	-1E+10	1
4901784	55	C	01/05/2017	10:42	-132.432	44.359	0	93.00	0	10.0370	0	32.8680	0	25.283	0	92.230	0	256.5	4	92.0	4	-1E+10	1	-1E+10	1	-1E+10	1	-1E+10	1	-1E+10	1	-1E+10	1
4901784	55	C	01/05/2017	10:42	-132.432	44.359	0	94.40	0	9.9970	0	32.8820	0	25.301	0	93.618	0	253.7	4	91.0	4	-1E+10	1	-1E+10	1	-1E+10	1	-1E+10	1	-1E+10	1	-1E+10	1
4901784	55	C	01/05/2017	10:42	-132.432	44.359	0	96.00	0	9.9690	0	32.8850	0	25.308	0	95.204	0	250.5	4	89.8	4	-1E+10	1	-1E+10	1	-1E+10	1	-1E+10	1	-1E+10	1	-1E+10	1
4901784	55	C	01/05/2017	10:42	-132.432	44.359	0	97.50	0	9.9280	0	32.8880	0	25.317	0	96.691	0	246.2	4	88.2	4	-1E+10	1	-1E+10	1	-1E+10	1	-1E+10	1	-1E+10	1	-1E+10	1
4901784	55	C	01/05/2017	10:42	-132.432	44.359	0	99.20	0	9.3960	0	33.0830	0	25.556	0	98.377	0	244.6	4	86.7	4	-1E+10	1	-1E+10	1	-1E+10	1	-1E+10	1	-1E+10	1	-1E+10	1
4901784	55	C	01/05/2017	10:42	-132.432	44.359	0	102.70	0	9.1290	0	33.1130	0	25.622	0	101.847	0	245.2	4	86.4	4	-1E+10	1	-1E+10	1	-1E+10	1	-1E+10	1	-1E+10	1	-1E+10	1
4901784	55	C	01/05/2017	10:42	-132.432	44.359	0	104.90	0	9.1100	0	33.1280	0	25.637	0	104.028	0	243.8	4	85.9	4	-1E+10	1	-1E+10	1	-1E+10	1	-1E+10	1	-1E+10	1	-1E+10	1
4901784	55	C	01/05/2017	10:42	-132.432	44.359	0	107.20	0	9.0950	0	33.1370	0	25.647	0	106.308	0	242.6	4	85.5	4	-1E+10	1	-1E+10	1	-1E+10	1	-1E+10	1	-1E+10	1	-1E+10	1
4901784	55	C	01/05/2017	10:42	-132.432	44.359	0	110.10	0	8.9650	0	33.1520	0	25.679	0	109.184	0	241.1	4	84.7	4	-1E+10	1	-1E+10	1	-1E+10	1	-1E+10	1	-1E+10	1	-1E+10	1
4901784	55	C	01/05/2017	10:42	-132.432	44.359	0	112.90	0	8.9010	0	33.1660	0	25.700	0	111.960	0	235.5	4	82.6	4	-1E+10	1	-1E+10	1	-1E+10	1	-1E+10	1	-1E+10	1	-1E+10	1
4901784	55	C	01/05/2017	10:42	-132.432	44.359	0	115.20	0	8.9000	0	33.2160	0	25.739	0	114.240	0	229.4	4	80.5	4	-1E+10	1	-1E+10	1	-1E+10	1	-1E+10	1	-1E+10	1	-1E+10	1
4901784	55	C	01/05/2017	10:42	-132.432	44.359	0	117.50	0	8.9030	0	33.2480	0	25.764	0	116.520	0	224.3	4	78.7	4	-1E+10	1	-1E+10	1	-1E+10	1	-1E+10	1	-1E+10	1	-1E+10	1
4901784	55	C	01/05/2017	10:42	-132.432	44.359	0	119.80	0	8.9010	0	33.2670	0	25.779	0	118.800	0	218.1	4	76.6	4	-1E+10	1	-1E+10	1	-1E+10	1	-1E+10	1	-1E+10	1	-1E+10	1
4901784	55	C	01/05/2017	10:42	-132.432	44.359	0	122.10	0	8.9000	0	33.3880	0	25.874	0	121.080	0	210.5	4	74.0	4	-1E+10	1	-1E+10	1	-1E+10	1	-1E+10	1	-1E+10	1	-1E+10	1
4901784	55	C	01/05/2017	10:42	-132.432	44.359	0	125.40	0	8.8710	0	33.4990	0	25.965	0	124.352	0	204.8	4	72.0	4	-1E+10	1	-1E+10	1	-1E+10	1	-1E+10	1	-1E+10	1	-1E+10	1
4901784	55	C	01/05/2017	10:42	-132.432	44.359	0	127.90	0	8.8450	0	33.5460	0	26.006	0	126.830	0	201.7	4	70.9	4	-1E+10	1	-1E+10	1	-1E+10	1	-1E+10	1	-1E+10	1	-1E+10	1
4901784	55	C	01/05/2017	10:42	-132.432	44.359	0	129.70	0	8.8090	0	33.6230	0	26.072	0	128.614	0	200.2	4	70.3	4	-1E+10	1	-1E+10	1	-1E+10	1	-1E+10	1	-1E+10	1	-1E+10	1
4901784	55	C	01/05/2017	10:42	-132.432	44.359	0	132.40	0	8.8020	0	33.6380	0	26.085	0	131.291	0	198.9	4	69.9	4	-1E+10	1	-1E+10	1	-1E+10	1	-1E+10	1	-1E+10	1	-1E+10	1
4901784	55	C	01/05/2017	10:42	-132.432	44.359	0	135.00	0	8.7980	0	33.6590	0	26.102	0	133.868	0	197.4	4	69.3	4	-1E+10	1	-1E+10	1	-1E+10	1	-1E+10	1	-1E+10	1	-1E+10	1
4901784	55	C	01/05/2017	10:42	-132.432	44.359	0	136.90	0	8.7990	0	33.6640	0	26.106	0	135.752	0	196.4	4	69.0	4	-1E+10	1	-1E+10	1	-1E+10	1	-1E+10	1	-1E+10	1	-1E+10	1
4901784	55	C	01/05/2017	10:42	-132.432	44.359	0	139.70	0	8.7800	0	33.6980	0	26.136	0	138.527	0	194.3	4	68.3	4	-1E+10	1	-1E+10	1	-1E+10	1	-1E+10	1	-1E+10	1	-1E+10	1
4901784	55	C	01/05/2017	10:42	-132.432	44.359	0	142.60	0	8.7460	0	33.7230	0	26.161	0	141.402	0	192.5	4	67.6	4	-1E+10	1	-1E+10	1	-1E+10	1	-1E+10	1	-1E+10	1	-1E+10	1
4901784	55	C	01/05/2017	10:42	-132.432	44.359	0	144.40	0	8.7190	0	33.7440	0	26.181	0	143.186	0	191.0	4	67.0	4	-1E+10	1	-1E+10	1	-1E+10	1	-1E+10	1	-1E+10	1	-1E+10	1
4901784	55	C	01/05/2017	10:42	-132.432	44.359	0	147.20	0	8.6380	0	33.7930	0	26.232	0	145.962	0	189.4	4	66.4	4	-1E+10	1	-1E+10	1	-1E+10	1	-1E+10	1	-1E+10	1	-1E+10	1
4901784	55	C	01/05/2017	10:42	-132.432	44.359	0	150.10	0	8.5720	0	33.8260	0	26.268	0	148.836	0	188.7	4	66.0	4	-1E+10	1	-1E+10	1	-1E+10	1	-1E+10	1	-1E+10	1	-1E+10	1
4901784	55	C	01/05/2017	10:42	-132.432	44.359	0	152.10	0	8.5290	0	33.8400	0	26.286	0	150.819	0	188.3	4	65.9	4	-1E+10	1	-1E+10	1	-1E+10	1	-1E+10	1	-1E+10	1	-1E+10	1
4901784	55	C	01/05/2017	10:42	-132.432	44.359	0	155.00	0	8.5110	0	33.8450	0	26.293	0	153.693	0	187.9	4	65.7	4	-1E+10	1	-1E+10	1	-1E+10	1	-1E+10	1	-1E+10	1	-1E+10	1
4901784	55	C	01/05/2017	10:42	-132.432	44.359	0	157.90	0	8.4970	0	33.8490	0	26.298	0	156.568	0	187.3	4	65.5	4	-1E+10	1	-1E+10	1	-1E+10	1	-1E+10	1	-1E+10	1	-1E+10	1
4901784	55	C	01/05/2017	10:42	-132.432	44.359	0	159.90	0	8.4910	0	33.8610	0	26.308	0	158.550	0	186.7	4	65.3	4	-1E+10	1	-1E+10	1	-1E+10	1	-1E+10	1	-1E+10	1	-1E+10	1
4901784	55	C	01/05/2017	10:42	-132.432	44.359	0	162.70	0	8.4950	0	33.8680	0	26.313	0	161.325	0	185.6	4	64.9	4	-1E+10	1	-1E+10	1	-1E+10	1	-1E+10	1	-1E+10	1	-1E+10	1
4901784	55	C	01/05/2017	10:42	-132.432	44.359	0	165.60	0	8.4320	0	33.8780	0	26.331	0	164.200	0	184.0	4	64.2	4	-1E+10	1	-1E+10	1	-1E+10	1	-1E+10	1	-1E+10	1	-1E+10	1
4901784	55	C	01/05/2017	10:42	-132.432	44.359	0	167.50	0	8.4020	0	33.8810	0	26.338	0	166.083	0	183.2	4	63.9	4	-1E+10	1	-1E+10	1	-1E+10	1	-1E+10	1	-1E+10	1	-1E+10	1
4901784	55	C	01/05/2017	10:42	-132.432	44.359	0	169.40	0	8.3340	0	33.8910	0	26.356	0	167.966	0	182.3	4	63.5	4	-1E+10	1	-1E+10	1	-1E+10	1	-1E+10	1	-1E+10	1	-1E+10	1
4901784	55	C	01/05/2017	10:42	-132.432	44.359	0	172.30	0	8.2590	0	33.8930	0	26.369	0	170.840	0	181.3	4	63.1	4	-1E+10	1	-1E+10	1	-1E+10	1	-1E+10	1	-1E+10	1	-1E+10	1
4901784	55	C	01/05/2017	10:42	-132.432	44.359	0	175.30	0	8.2100	0	33.8970	0	26.379	0	173.813	0	180.3	4	62.6	4	-1E+10	1	-1E+10	1	-1E+10	1	-1E+10	1	-1E+10	1	-1E+10	1
4901784	55	C	01/05/2017	10:42	-132.432	44.359	0	177.20	0	8.1810	0	33.8980	0	26.384	0	175.697	0	179.6	4	62.3	4	-1E+10	1	-1E+10	1	-1E+10	1	-1E+10	1	-1E+10	1	-1E+10	1
4901784	55	C	01/05/2017	10:42	-132.432	44.359	0	180.10	0	8.1320	0	33.9040	0	26.396	0	178.571	0	178.3	4	61.8	4	-1E+10	1	-1E+10	1	-1E+10	1	-1E+10	1	-1E+10	1	-1E+10	1
4901784	55	C	01/05/2017	10:42	-132.432	44.359	0	182.90	0	8.0630	0	33.9130	0	26.414	0	181.346	0	177.0	4	61.3	4	-1E+10	1	-1E+10	1	-1E+10	1	-1E+10	1	-1E+10	1	-1E+10	1
4901784	55	C	01/05/2017	10:42	-132.432	44.359	0	184.80	0	8.0420	0	33.9110	0	26.415	0	183.229	0	176.2	4	61.0	4	-1E+10	1	-1E+10	1	-1E+10	1	-1E+10	1	-1E+10	1	-1E+10	1
4901784	55	C	01/05/2017	10:42	-132.432	44.359	0	187.70	0	7.9670	0	33.9170	0	26.431	0	186.103	0	174.5	4	60.3	4	-1E+10	1	-1E+10	1	-1E+10	1	-1E+10	1	-1E+10	1	-1E+10	1
4901784	55	C	01/05/2017	10:42	-132.432	44.359	0	190.70	0	7.9040	0	33.9230	0	26.445	0	189.076	0	173.3	4	59.8	4	-1E+10	1	-1E+10	1	-1E+10	1	-1E+10	1	-1E+10	1	-1E+10	1
4901784	55	C	01/05/2017	10:42	-132.432	44.359	0	192.60	0	7.8880	0	33.9230	0	26.448	0	190.959	0	172.3	4	59.4	4	-1E+10	1	-1E+10	1	-1E+10	1	-1E+10	1	-1E+10	1	-1E+10	1
4901784	55	C	01/05/2017	10:42	-132.432	44.359	0	194.50	0	7.8840	0	33.9280	0	26.452	0	192.842	0	171.0	4	59.0	4	-1E+10	1	-1E+10	1	-1E+10	1	-1E+10	1	-1E+10	1	-1E+10	1
4901784	55	C	01/05/2017	10:42	-132.432	44.359	0	197.40	0	7.8220	0	33.9340	0	26.466	0	195.716	0	169.0	4	58.2	4	-1E+10	1	-1E+10	1	-1E+10	1	-1E+10	1	-1E+10	1	-1E+10	1
4901784	55	C	01/05/2017	10:42	-132.432	44.359	0	200.30	0	7.7400	0	33.9370	0	26.480	0	198.589	0	166.9	4	57.4	4	-1E+10	1	-1E+10	1	-1E+10	1	-1E+10	1	-1E+10	1	-1E+10	1
4901784	55	C	01/05/2017	10:42	-132.432	44.359	0	202.70	0	7.7200	0	33.9480	0	26.492	0	200.968	0	165.4	4	56.9	4	-1E+10	1	-1E+10	1	-1E+10	1	-1E+10	1	-1E+10	1	-1E+10	1
4901784	55	C	01/05/2017	10:42	-132.432	44.359	0	204.60	0	7.6570	0	33.9540	0	26.506	0	202.851	0	164.9	4	56.6	4	-1E+10	1	-1E+10	1	-1E+10	1	-1E+10	1	-1E+10	1	-1E+10	1
4901784	55	C	01/05/2017	10:42	-132.432	44.359	0	207.10	0	7.6370	0	33.9570	0	26.511	0	205.328	0	163.9	4	56.2	4	-1E+10	1	-1E+10	1	-1E+10	1	-1E+10	1	-1E+10	1	-1E+10	1
4901784	55	C	01/05/2017	10:42	-132.432	44.359	0	210.30	0	7.5800	0	33.9570	0	26.519	0	208.499	0	162.1	4	55.5	4	-1E+10	1	-1E+10	1	-1E+10	1	-1E+10	1	-1E+10	1	-1E+10	1
4901784	55	C	01/05/2017	10:42	-132.432	44.359	0	212.80	0	7.5130	0	33.9550	0	26.527	0	210.976	0	160.9	4	55.1	4	-1E+10	1	-1E+10	1	-1E+10	1	-1E+10	1	-1E+10	1	-1E+10	1
4901784	55	C	01/05/2017	10:42	-132.432	44.359	0	215.20	0	7.4950	0	33.9530	0	26.528	0	213.355	0	159.4	4	54.5	4	-1E+10	1	-1E+10	1	-1E+10	1	-1E+10	1	-1E+10	1	-1E+10	1
4901784	55	C	01/05/2017	10:42	-132.432	44.359	0	217.70	0	7.4060	0	33.9540	0	26.541	0	215.832	0	158.0	4	53.9	4	-1E+10	1	-1E+10	1	-1E+10	1	-1E+10	1	-1E+10	1	-1E+10	1
4901784	55	C	01/05/2017	10:42	-132.432	44.359	0	220.20	0	7.3670	0	33.9520	0	26.545	0	218.309	0	157.1	4	53.6	4	-1E+10	1	-1E+10	1	-1E+10	1	-1E+10	1	-1E+10	1	-1E+10	1
4901784	55	C	01/05/2017	10:42	-132.432	44.359	0	222.60	0	7.3370	0	33.9510	0	26.549	0	220.687	0	156.0	4	53.2	4	-1E+10	1	-1E+10	1	-1E+10	1	-1E+10	1	-1E+10	1	-1E+10	1
4901784	55	C	01/05/2017	10:42	-132.432	44.359	0	225.10	0	7.2690	0	33.9500	0	26.558	0	223.164	0	155.0	4	52.7	4	-1E+10	1	-1E+10	1	-1E+10	1	-1E+10	1	-1E+10	1	-1E+10	1
4901784	55	C	01/05/2017	10:42	-132.432	44.359	0	227.50	0	7.2290	0	33.9510	0	26.564	0	225.542	0	154.2	4	52.4	4	-1E+10	1	-1E+10	1	-1E+10	1	-1E+10	1	-1E+10	1	-1E+10	1
4901784	55	C	01/05/2017	10:42	-132.432	44.359	0	230.00	0	7.1950	0	33.9530	0	26.570	0	228.019	0	153.2	4	52.1	4	-1E+10	1	-1E+10	1	-1E+10	1	-1E+10	1	-1E+10	1	-1E+10	1
4901784	55	C	01/05/2017	10:42	-132.432	44.359	0	232.50	0	7.1450	0	33.9560	0	26.580	0	230.497	0	151.9	4	51.5	4	-1E+10	1	-1E+10	1	-1E+10	1	-1E+10	1	-1E+10	1	-1E+10	1
4901784	55	C	01/05/2017	10:42	-132.432	44.359	0	235.10	0	7.0950	0	33.9560	0	26.587	0	233.073	0	150.3	4	50.9	4	-1E+10	1	-1E+10	1	-1E+10	1	-1E+10	1	-1E+10	1	-1E+10	1
4901784	55	C	01/05/2017	10:42	-132.432	44.359	0	237.70	0	7.0420	0	33.9560	0	26.594	0	235.649	0	149.0	4	50.4	4	-1E+10	1	-1E+10	1	-1E+10	1	-1E+10	1	-1E+10	1	-1E+10	1
4901784	55	C	01/05/2017	10:42	-132.432	44.359	0	240.20	0	7.0260	0	33.9550	0	26.595	0	238.126	0	147.6	4	49.9	4	-1E+10	1	-1E+10	1	-1E+10	1	-1E+10	1	-1E+10	1	-1E+10	1
4901784	55	C	01/05/2017	10:42	-132.432	44.359	0	242.70	0	6.9370	0	33.9590	0	26.611	0	240.603	0	145.9	4	49.3	4	-1E+10	1	-1E+10	1	-1E+10	1	-1E+10	1	-1E+10	1	-1E+10	1
4901784	55	C	01/05/2017	10:42	-132.432	44.359	0	245.20	0	6.8770	0	33.9560	0	26.616	0	243.080	0	144.9	4	48.9	4	-1E+10	1	-1E+10	1	-1E+10	1	-1E+10	1	-1E+10	1	-1E+10	1
4901784	55	C	01/05/2017	10:42	-132.432	44.359	0	247.70	0	6.8380	0	33.9550	0	26.621	0	245.557	0	144.1	4	48.6	4	-1E+10	1	-1E+10	1	-1E+10	1	-1E+10	1	-1E+10	1	-1E+10	1
4901784	55	C	01/05/2017	10:42	-132.432	44.359	0	250.30	0	6.8240	0	33.9550	0	26.623	0	248.133	0	143.3	4	48.3	4	-1E+10	1	-1E+10	1	-1E+10	1	-1E+10	1	-1E+10	1	-1E+10	1
4901784	55	C	01/05/2017	10:42	-132.432	44.359	0	252.90	0	6.7960	0	33.9540	0	26.626	0	250.708	0	142.2	4	47.9	4	-1E+10	1	-1E+10	1	-1E+10	1	-1E+10	1	-1E+10	1	-1E+10	1
4901784	55	C	01/05/2017	10:42	-132.432	44.359	0	254.60	0	6.7840	0	33.9530	0	26.627	0	252.393	0	141.5	4	47.6	4	-1E+10	1	-1E+10	1	-1E+10	1	-1E+10	1	-1E+10	1	-1E+10	1
4901784	55	C	01/05/2017	10:42	-132.432	44.359	0	257.20	0	6.7400	0	33.9530	0	26.633	0	254.969	0	140.3	4	47.2	4	-1E+10	1	-1E+10	1	-1E+10	1	-1E+10	1	-1E+10	1	-1E+10	1
4901784	55	C	01/05/2017	10:42	-132.432	44.359	0	259.80	0	6.6950	0	33.9530	0	26.639	0	257.544	0	139.3	4	46.8	4	-1E+10	1	-1E+10	1	-1E+10	1	-1E+10	1	-1E+10	1	-1E+10	1
4901784	55	C	01/05/2017	10:42	-132.432	44.359	0	262.40	0	6.6830	0	33.9530	0	26.640	0	260.120	0	138.4	4	46.5	4	-1E+10	1	-1E+10	1	-1E+10	1	-1E+10	1	-1E+10	1	-1E+10	1
4901784	55	C	01/05/2017	10:42	-132.432	44.359	0	265.10	0	6.6750	0	33.9510	0	26.640	0	262.795	0	137.2	4	46.0	4	-1E+10	1	-1E+10	1	-1E+10	1	-1E+10	1	-1E+10	1	-1E+10	1
4901784	55	C	01/05/2017	10:42	-132.432	44.359	0	267.80	0	6.6280	0	33.9530	0	26.648	0	265.470	0	135.3	4	45.4	4	-1E+10	1	-1E+10	1	-1E+10	1	-1E+10	1	-1E+10	1	-1E+10	1
4901784	55	C	01/05/2017	10:42	-132.432	44.359	0	270.50	0	6.5660	0	33.9510	0	26.654	0	268.145	0	133.6	4	44.7	4	-1E+10	1	-1E+10	1	-1E+10	1	-1E+10	1	-1E+10	1	-1E+10	1
4901784	55	C	01/05/2017	10:42	-132.432	44.359	0	272.30	0	6.5320	0	33.9520	0	26.659	0	269.928	0	132.6	4	44.4	4	-1E+10	1	-1E+10	1	-1E+10	1	-1E+10	1	-1E+10	1	-1E+10	1
4901784	55	C	01/05/2017	10:42	-132.432	44.359	0	275.00	0	6.4950	0	33.9500	0	26.663	0	272.602	0	130.7	4	43.7	4	-1E+10	1	-1E+10	1	-1E+10	1	-1E+10	1	-1E+10	1	-1E+10	1
4901784	55	C	01/05/2017	10:42	-132.432	44.359	0	277.70	0	6.4290	0	33.9510	0	26.672	0	275.277	0	128.8	4	43.0	4	-1E+10	1	-1E+10	1	-1E+10	1	-1E+10	1	-1E+10	1	-1E+10	1
4901784	55	C	01/05/2017	10:42	-132.432	44.359	0	279.50	0	6.4210	0	33.9500	0	26.672	0	277.060	0	127.3	4	42.5	4	-1E+10	1	-1E+10	1	-1E+10	1	-1E+10	1	-1E+10	1	-1E+10	1
4901784	55	C	01/05/2017	10:42	-132.432	44.359	0	282.20	0	6.3300	0	33.9510	0	26.685	0	279.735	0	124.8	4	41.6	4	-1E+10	1	-1E+10	1	-1E+10	1	-1E+10	1	-1E+10	1	-1E+10	1
4901784	55	C	01/05/2017	10:42	-132.432	44.359	0	284.90	0	6.2650	0	33.9500	0	26.693	0	282.409	0	123.1	4	40.9	4	-1E+10	1	-1E+10	1	-1E+10	1	-1E+10	1	-1E+10	1	-1E+10	1
4901784	55	C	01/05/2017	10:42	-132.432	44.359	0	287.60	0	6.2180	0	33.9520	0	26.700	0	285.084	0	121.5	4	40.4	4	-1E+10	1	-1E+10	1	-1E+10	1	-1E+10	1	-1E+10	1	-1E+10	1
4901784	55	C	01/05/2017	10:42	-132.432	44.359	0	290.30	0	6.1820	0	33.9550	0	26.707	0	287.758	0	120.2	4	39.9	4	-1E+10	1	-1E+10	1	-1E+10	1	-1E+10	1	-1E+10	1	-1E+10	1
4901784	55	C	01/05/2017	10:42	-132.432	44.359	0	292.10	0	6.1760	0	33.9540	0	26.707	0	289.541	0	119.4	4	39.6	4	-1E+10	1	-1E+10	1	-1E+10	1	-1E+10	1	-1E+10	1	-1E+10	1
4901784	55	C	01/05/2017	10:42	-132.432	44.359	0	294.80	0	6.1470	0	33.9530	0	26.710	0	292.216	0	117.9	4	39.1	4	-1E+10	1	-1E+10	1	-1E+10	1	-1E+10	1	-1E+10	1	-1E+10	1
4901784	55	C	01/05/2017	10:42	-132.432	44.359	0	297.60	0	6.1110	0	33.9530	0	26.715	0	294.989	0	116.2	4	38.5	4	-1E+10	1	-1E+10	1	-1E+10	1	-1E+10	1	-1E+10	1	-1E+10	1
4901784	55	C	01/05/2017	10:42	-132.432	44.359	0	299.40	0	6.0860	0	33.9540	0	26.719	0	296.772	0	114.7	4	38.0	4	-1E+10	1	-1E+10	1	-1E+10	1	-1E+10	1	-1E+10	1	-1E+10	1
4901784	55	C	01/05/2017	10:42	-132.432	44.359	0	302.20	0	6.0210	0	33.9560	0	26.728	0	299.546	0	113.1	4	37.4	4	-1E+10	1	-1E+10	1	-1E+10	1	-1E+10	1	-1E+10	1	-1E+10	1
4901784	55	C	01/05/2017	10:42	-132.432	44.359	0	305.00	0	5.9840	0	33.9570	0	26.734	0	302.319	0	111.8	4	36.9	4	-1E+10	1	-1E+10	1	-1E+10	1	-1E+10	1	-1E+10	1	-1E+10	1
4901784	55	C	01/05/2017	10:42	-132.432	44.359	0	307.80	0	5.9470	0	33.9580	0	26.739	0	305.092	0	110.7	4	36.5	4	-1E+10	1	-1E+10	1	-1E+10	1	-1E+10	1	-1E+10	1	-1E+10	1
4901784	55	C	01/05/2017	10:42	-132.432	44.359	0	310.50	0	5.9330	0	33.9570	0	26.740	0	307.766	0	109.6	4	36.2	4	-1E+10	1	-1E+10	1	-1E+10	1	-1E+10	1	-1E+10	1	-1E+10	1
4901784	55	C	01/05/2017	10:42	-132.432	44.359	0	312.40	0	5.9130	0	33.9580	0	26.744	0	309.648	0	108.9	4	35.9	4	-1E+10	1	-1E+10	1	-1E+10	1	-1E+10	1	-1E+10	1	-1E+10	1
4901784	55	C	01/05/2017	10:42	-132.432	44.359	0	315.20	0	5.8880	0	33.9570	0	26.746	0	312.422	0	107.5	4	35.4	4	-1E+10	1	-1E+10	1	-1E+10	1	-1E+10	1	-1E+10	1	-1E+10	1
4901784	55	C	01/05/2017	10:42	-132.432	44.359	0	318.10	0	5.8540	0	33.9570	0	26.750	0	315.294	0	105.9	4	34.9	4	-1E+10	1	-1E+10	1	-1E+10	1	-1E+10	1	-1E+10	1	-1E+10	1
4901784	55	C	01/05/2017	10:42	-132.432	44.359	0	320.00	0	5.8280	0	33.9570	0	26.753	0	317.176	0	104.9	4	34.5	4	-1E+10	1	-1E+10	1	-1E+10	1	-1E+10	1	-1E+10	1	-1E+10	1
4901784	55	C	01/05/2017	10:42	-132.432	44.359	0	321.90	0	5.7930	0	33.9580	0	26.759	0	319.057	0	103.8	4	34.1	4	-1E+10	1	-1E+10	1	-1E+10	1	-1E+10	1	-1E+10	1	-1E+10	1
4901784	55	C	01/05/2017	10:42	-132.432	44.359	0	324.80	0	5.7550	0	33.9600	0	26.765	0	321.929	0	102.2	4	33.6	4	-1E+10	1	-1E+10	1	-1E+10	1	-1E+10	1	-1E+10	1	-1E+10	1
4901784	55	C	01/05/2017	10:42	-132.432	44.359	0	327.60	0	5.7210	0	33.9600	0	26.769	0	324.703	0	100.9	4	33.1	4	-1E+10	1	-1E+10	1	-1E+10	1	-1E+10	1	-1E+10	1	-1E+10	1
4901784	55	C	01/05/2017	10:42	-132.432	44.359	0	329.50	0	5.7160	0	33.9600	0	26.770	0	326.584	0	99.9	4	32.8	4	-1E+10	1	-1E+10	1	-1E+10	1	-1E+10	1	-1E+10	1	-1E+10	1
4901784	55	C	01/05/2017	10:42	-132.432	44.359	0	332.40	0	5.6880	0	33.9610	0	26.774	0	329.456	0	98.1	4	32.2	4	-1E+10	1	-1E+10	1	-1E+10	1	-1E+10	1	-1E+10	1	-1E+10	1
4901784	55	C	01/05/2017	10:42	-132.432	44.359	0	335.20	0	5.6510	0	33.9630	0	26.780	0	332.229	0	96.2	4	31.5	4	-1E+10	1	-1E+10	1	-1E+10	1	-1E+10	1	-1E+10	1	-1E+10	1
4901784	55	C	01/05/2017	10:42	-132.432	44.359	0	337.20	0	5.6320	0	33.9630	0	26.782	0	334.210	0	94.9	4	31.1	4	-1E+10	1	-1E+10	1	-1E+10	1	-1E+10	1	-1E+10	1	-1E+10	1
4901784	55	C	01/05/2017	10:42	-132.432	44.359	0	340.10	0	5.5770	0	33.9680	0	26.793	0	337.082	0	93.2	4	30.5	4	-1E+10	1	-1E+10	1	-1E+10	1	-1E+10	1	-1E+10	1	-1E+10	1
4901784	55	C	01/05/2017	10:42	-132.432	44.359	0	343.00	0	5.5380	0	33.9700	0	26.799	0	339.954	0	92.0	4	30.1	4	-1E+10	1	-1E+10	1	-1E+10	1	-1E+10	1	-1E+10	1	-1E+10	1
4901784	55	C	01/05/2017	10:42	-132.432	44.359	0	344.90	0	5.5190	0	33.9710	0	26.802	0	341.835	0	91.2	4	29.8	4	-1E+10	1	-1E+10	1	-1E+10	1	-1E+10	1	-1E+10	1	-1E+10	1
4901784	55	C	01/05/2017	10:42	-132.432	44.359	0	346.90	0	5.5070	0	33.9720	0	26.804	0	343.816	0	90.6	4	29.6	4	-1E+10	1	-1E+10	1	-1E+10	1	-1E+10	1	-1E+10	1	-1E+10	1
4901784	55	C	01/05/2017	10:42	-132.432	44.359	0	349.90	0	5.4970	0	33.9740	0	26.807	0	346.787	0	89.7	4	29.3	4	-1E+10	1	-1E+10	1	-1E+10	1	-1E+10	1	-1E+10	1	-1E+10	1
4901784	55	C	01/05/2017	10:42	-132.432	44.359	0	352.80	0	5.4710	0	33.9750	0	26.811	0	349.658	0	88.8	4	29.0	4	-1E+10	1	-1E+10	1	-1E+10	1	-1E+10	1	-1E+10	1	-1E+10	1
4901784	55	C	01/05/2017	10:42	-132.432	44.359	0	354.70	0	5.4600	0	33.9750	0	26.812	0	351.540	0	88.2	4	28.8	4	-1E+10	1	-1E+10	1	-1E+10	1	-1E+10	1	-1E+10	1	-1E+10	1
4901784	55	C	01/05/2017	10:42	-132.432	44.359	0	357.60	0	5.4540	0	33.9750	0	26.813	0	354.412	0	87.1	4	28.4	4	-1E+10	1	-1E+10	1	-1E+10	1	-1E+10	1	-1E+10	1	-1E+10	1
4901784	55	C	01/05/2017	10:42	-132.432	44.359	0	360.50	0	5.4260	0	33.9740	0	26.816	0	357.283	0	85.6	4	27.9	4	-1E+10	1	-1E+10	1	-1E+10	1	-1E+10	1	-1E+10	1	-1E+10	1
4901784	55	C	01/05/2017	10:42	-132.432	44.359	0	362.50	0	5.4100	0	33.9790	0	26.822	0	359.264	0	84.5	4	27.5	4	-1E+10	1	-1E+10	1	-1E+10	1	-1E+10	1	-1E+10	1	-1E+10	1
4901784	55	C	01/05/2017	10:42	-132.432	44.359	0	364.40	0	5.3900	0	33.9820	0	26.826	0	361.145	0	83.7	4	27.3	4	-1E+10	1	-1E+10	1	-1E+10	1	-1E+10	1	-1E+10	1	-1E+10	1
4901784	55	C	01/05/2017	10:42	-132.432	44.359	0	367.30	0	5.3630	0	33.9840	0	26.831	0	364.017	0	82.8	4	27.0	4	-1E+10	1	-1E+10	1	-1E+10	1	-1E+10	1	-1E+10	1	-1E+10	1
4901784	55	C	01/05/2017	10:42	-132.432	44.359	0	370.20	0	5.3480	0	33.9860	0	26.835	0	366.888	0	82.0	4	26.7	4	-1E+10	1	-1E+10	1	-1E+10	1	-1E+10	1	-1E+10	1	-1E+10	1
4901784	55	C	01/05/2017	10:42	-132.432	44.359	0	372.10	0	5.3470	0	33.9860	0	26.835	0	368.769	0	81.6	4	26.5	4	-1E+10	1	-1E+10	1	-1E+10	1	-1E+10	1	-1E+10	1	-1E+10	1
4901784	55	C	01/05/2017	10:42	-132.432	44.359	0	375.10	0	5.3420	0	33.9880	0	26.837	0	371.740	0	80.6	4	26.2	4	-1E+10	1	-1E+10	1	-1E+10	1	-1E+10	1	-1E+10	1	-1E+10	1
4901784	55	C	01/05/2017	10:42	-132.432	44.359	0	377.90	0	5.3370	0	33.9900	0	26.839	0	374.512	0	79.6	4	25.9	4	-1E+10	1	-1E+10	1	-1E+10	1	-1E+10	1	-1E+10	1	-1E+10	1
4901784	55	C	01/05/2017	10:42	-132.432	44.359	0	379.90	0	5.3340	0	33.9910	0	26.840	0	376.493	0	78.8	4	25.6	4	-1E+10	1	-1E+10	1	-1E+10	1	-1E+10	1	-1E+10	1	-1E+10	1
4901784	55	C	01/05/2017	10:42	-132.432	44.359	0	381.90	0	5.3320	0	33.9910	0	26.841	0	378.473	0	77.8	4	25.3	4	-1E+10	1	-1E+10	1	-1E+10	1	-1E+10	1	-1E+10	1	-1E+10	1
4901784	55	C	01/05/2017	10:42	-132.432	44.359	0	384.80	0	5.3180	0	33.9950	0	26.845	0	381.344	0	76.0	4	24.7	4	-1E+10	1	-1E+10	1	-1E+10	1	-1E+10	1	-1E+10	1	-1E+10	1
4901784	55	C	01/05/2017	10:42	-132.432	44.359	0	387.80	0	5.2980	0	33.9980	0	26.850	0	384.314	0	74.6	4	24.3	4	-1E+10	1	-1E+10	1	-1E+10	1	-1E+10	1	-1E+10	1	-1E+10	1
4901784	55	C	01/05/2017	10:42	-132.432	44.359	0	389.80	0	5.2790	0	34.0020	0	26.856	0	386.294	0	73.7	4	24.0	4	-1E+10	1	-1E+10	1	-1E+10	1	-1E+10	1	-1E+10	1	-1E+10	1
4901784	55	C	01/05/2017	10:42	-132.432	44.359	0	392.70	0	5.2640	0	34.0040	0	26.859	0	389.166	0	72.6	4	23.6	4	-1E+10	1	-1E+10	1	-1E+10	1	-1E+10	1	-1E+10	1	-1E+10	1
4901784	55	C	01/05/2017	10:42	-132.432	44.359	0	395.60	0	5.2470	0	34.0070	0	26.863	0	392.037	0	71.6	4	23.3	4	-1E+10	1	-1E+10	1	-1E+10	1	-1E+10	1	-1E+10	1	-1E+10	1
4901784	55	C	01/05/2017	10:42	-132.432	44.359	0	397.70	0	5.2340	0	34.0080	0	26.866	0	394.116	0	70.9	4	23.0	4	-1E+10	1	-1E+10	1	-1E+10	1	-1E+10	1	-1E+10	1	-1E+10	1
4901784	55	C	01/05/2017	10:42	-132.432	44.359	0	399.60	0	5.2130	0	34.0110	0	26.870	0	395.997	0	70.3	4	22.8	4	-1E+10	1	-1E+10	1	-1E+10	1	-1E+10	1	-1E+10	1	-1E+10	1
4901784	55	C	01/05/2017	10:42	-132.432	44.359	0	402.60	0	5.1960	0	34.0120	0	26.873	0	398.967	0	69.7	4	22.6	4	-1E+10	1	-1E+10	1	-1E+10	1	-1E+10	1	-1E+10	1	-1E+10	1
4901784	55	C	01/05/2017	10:42	-132.432	44.359	0	405.50	0	5.1830	0	34.0140	0	26.876	0	401.838	0	69.1	4	22.4	4	-1E+10	1	-1E+10	1	-1E+10	1	-1E+10	1	-1E+10	1	-1E+10	1
4901784	55	C	01/05/2017	10:42	-132.432	44.359	0	407.50	0	5.1720	0	34.0150	0	26.878	0	403.818	0	68.7	4	22.3	4	-1E+10	1	-1E+10	1	-1E+10	1	-1E+10	1	-1E+10	1	-1E+10	1
4901784	55	C	01/05/2017	10:42	-132.432	44.359	0	409.40	0	5.1610	0	34.0150	0	26.880	0	405.699	0	68.3	4	22.1	4	-1E+10	1	-1E+10	1	-1E+10	1	-1E+10	1	-1E+10	1	-1E+10	1
4901784	55	C	01/05/2017	10:42	-132.432	44.359	0	412.40	0	5.1480	0	34.0170	0	26.883	0	408.669	0	67.7	4	21.9	4	-1E+10	1	-1E+10	1	-1E+10	1	-1E+10	1	-1E+10	1	-1E+10	1
4901784	55	C	01/05/2017	10:42	-132.432	44.359	0	415.30	0	5.1420	0	34.0170	0	26.884	0	411.540	0	67.1	4	21.8	4	-1E+10	1	-1E+10	1	-1E+10	1	-1E+10	1	-1E+10	1	-1E+10	1
4901784	55	C	01/05/2017	10:42	-132.432	44.359	0	417.30	0	5.1280	0	34.0180	0	26.886	0	413.520	0	66.7	4	21.6	4	-1E+10	1	-1E+10	1	-1E+10	1	-1E+10	1	-1E+10	1	-1E+10	1
4901784	55	C	01/05/2017	10:42	-132.432	44.359	0	420.20	0	5.1120	0	34.0190	0	26.889	0	416.391	0	66.1	4	21.4	4	-1E+10	1	-1E+10	1	-1E+10	1	-1E+10	1	-1E+10	1	-1E+10	1
4901784	55	C	01/05/2017	10:42	-132.432	44.359	0	423.40	0	5.0830	0	34.0220	0	26.894	0	419.558	0	65.4	4	21.2	4	-1E+10	1	-1E+10	1	-1E+10	1	-1E+10	1	-1E+10	1	-1E+10	1
4901784	55	C	01/05/2017	10:42	-132.432	44.359	0	424.70	0	5.0790	0	34.0220	0	26.895	0	420.845	0	65.0	4	21.0	4	-1E+10	1	-1E+10	1	-1E+10	1	-1E+10	1	-1E+10	1	-1E+10	1
4901784	55	C	01/05/2017	10:42	-132.432	44.359	0	427.20	0	5.0650	0	34.0230	0	26.897	0	423.320	0	64.4	4	20.8	4	-1E+10	1	-1E+10	1	-1E+10	1	-1E+10	1	-1E+10	1	-1E+10	1
4901784	55	C	01/05/2017	10:42	-132.432	44.359	0	429.70	0	5.0520	0	34.0250	0	26.900	0	425.795	0	63.7	4	20.6	4	-1E+10	1	-1E+10	1	-1E+10	1	-1E+10	1	-1E+10	1	-1E+10	1
4901784	55	C	01/05/2017	10:42	-132.432	44.359	0	432.20	0	5.0450	0	34.0250	0	26.901	0	428.269	0	62.7	4	20.3	4	-1E+10	1	-1E+10	1	-1E+10	1	-1E+10	1	-1E+10	1	-1E+10	1
4901784	55	C	01/05/2017	10:42	-132.432	44.359	0	434.70	0	5.0250	0	34.0270	0	26.905	0	430.744	0	61.5	4	19.9	4	-1E+10	1	-1E+10	1	-1E+10	1	-1E+10	1	-1E+10	1	-1E+10	1
4901784	55	C	01/05/2017	10:42	-132.432	44.359	0	437.10	0	5.0050	0	34.0310	0	26.910	0	433.120	0	60.0	4	19.4	4	-1E+10	1	-1E+10	1	-1E+10	1	-1E+10	1	-1E+10	1	-1E+10	1
4901784	55	C	01/05/2017	10:42	-132.432	44.359	0	439.60	0	4.9790	0	34.0350	0	26.917	0	435.594	0	59.2	4	19.1	4	-1E+10	1	-1E+10	1	-1E+10	1	-1E+10	1	-1E+10	1	-1E+10	1
4901784	55	C	01/05/2017	10:42	-132.432	44.359	0	442.10	0	4.9490	0	34.0380	0	26.922	0	438.069	0	58.6	4	18.9	4	-1E+10	1	-1E+10	1	-1E+10	1	-1E+10	1	-1E+10	1	-1E+10	1
4901784	55	C	01/05/2017	10:42	-132.432	44.359	0	444.70	0	4.9340	0	34.0390	0	26.925	0	440.643	0	58.3	4	18.8	4	-1E+10	1	-1E+10	1	-1E+10	1	-1E+10	1	-1E+10	1	-1E+10	1
4901784	55	C	01/05/2017	10:42	-132.432	44.359	0	447.20	0	4.9230	0	34.0400	0	26.927	0	443.117	0	57.8	4	18.6	4	-1E+10	1	-1E+10	1	-1E+10	1	-1E+10	1	-1E+10	1	-1E+10	1
4901784	55	C	01/05/2017	10:42	-132.432	44.359	0	449.70	0	4.9060	0	34.0410	0	26.930	0	445.592	0	57.2	4	18.4	4	-1E+10	1	-1E+10	1	-1E+10	1	-1E+10	1	-1E+10	1	-1E+10	1
4901784	55	C	01/05/2017	10:42	-132.432	44.359	0	452.30	0	4.9080	0	34.0430	0	26.931	0	448.165	0	56.4	4	18.2	4	-1E+10	1	-1E+10	1	-1E+10	1	-1E+10	1	-1E+10	1	-1E+10	1
4901784	55	C	01/05/2017	10:42	-132.432	44.359	0	454.70	0	4.8910	0	34.0440	0	26.934	0	450.540	0	55.7	4	18.0	4	-1E+10	1	-1E+10	1	-1E+10	1	-1E+10	1	-1E+10	1	-1E+10	1
4901784	55	C	01/05/2017	10:42	-132.432	44.359	0	457.20	0	4.8820	0	34.0460	0	26.936	0	453.015	0	54.9	4	17.7	4	-1E+10	1	-1E+10	1	-1E+10	1	-1E+10	1	-1E+10	1	-1E+10	1
4901784	55	C	01/05/2017	10:42	-132.432	44.359	0	459.70	0	4.8720	0	34.0470	0	26.938	0	455.489	0	53.9	4	17.4	4	-1E+10	1	-1E+10	1	-1E+10	1	-1E+10	1	-1E+10	1	-1E+10	1
4901784	55	C	01/05/2017	10:42	-132.432	44.359	0	462.30	0	4.8510	0	34.0530	0	26.946	0	458.063	0	53.0	4	17.1	4	-1E+10	1	-1E+10	1	-1E+10	1	-1E+10	1	-1E+10	1	-1E+10	1
4901784	55	C	01/05/2017	10:42	-132.432	44.359	0	464.80	0	4.8360	0	34.0550	0	26.949	0	460.537	0	52.4	4	16.9	4	-1E+10	1	-1E+10	1	-1E+10	1	-1E+10	1	-1E+10	1	-1E+10	1
4901784	55	C	01/05/2017	10:42	-132.432	44.359	0	467.30	0	4.8110	0	34.0570	0	26.953	0	463.011	0	51.8	4	16.7	4	-1E+10	1	-1E+10	1	-1E+10	1	-1E+10	1	-1E+10	1	-1E+10	1
4901784	55	C	01/05/2017	10:42	-132.432	44.359	0	469.80	0	4.8030	0	34.0580	0	26.955	0	465.485	0	51.1	4	16.4	4	-1E+10	1	-1E+10	1	-1E+10	1	-1E+10	1	-1E+10	1	-1E+10	1
4901784	55	C	01/05/2017	10:42	-132.432	44.359	0	472.30	0	4.7960	0	34.0590	0	26.956	0	467.960	0	50.3	4	16.2	4	-1E+10	1	-1E+10	1	-1E+10	1	-1E+10	1	-1E+10	1	-1E+10	1
4901784	55	C	01/05/2017	10:42	-132.432	44.359	0	474.90	0	4.7790	0	34.0620	0	26.961	0	470.533	0	49.2	4	15.8	4	-1E+10	1	-1E+10	1	-1E+10	1	-1E+10	1	-1E+10	1	-1E+10	1
4901784	55	C	01/05/2017	10:42	-132.432	44.359	0	477.40	0	4.7610	0	34.0650	0	26.965	0	473.007	0	48.0	4	15.4	4	-1E+10	1	-1E+10	1	-1E+10	1	-1E+10	1	-1E+10	1	-1E+10	1
4901784	55	C	01/05/2017	10:42	-132.432	44.359	0	480.00	0	4.7520	0	34.0700	0	26.970	0	475.580	0	46.8	4	15.0	4	-1E+10	1	-1E+10	1	-1E+10	1	-1E+10	1	-1E+10	1	-1E+10	1
4901784	55	C	01/05/2017	10:42	-132.432	44.359	0	482.70	0	4.7460	0	34.0740	0	26.974	0	478.252	0	45.8	4	14.7	4	-1E+10	1	-1E+10	1	-1E+10	1	-1E+10	1	-1E+10	1	-1E+10	1
4901784	55	C	01/05/2017	10:42	-132.432	44.359	0	485.30	0	4.7480	0	34.0770	0	26.976	0	480.825	0	44.7	4	14.4	4	-1E+10	1	-1E+10	1	-1E+10	1	-1E+10	1	-1E+10	1	-1E+10	1
4901784	55	C	01/05/2017	10:42	-132.432	44.359	0	487.90	0	4.7480	0	34.0810	0	26.979	0	483.398	0	43.9	4	14.1	4	-1E+10	1	-1E+10	1	-1E+10	1	-1E+10	1	-1E+10	1	-1E+10	1
4901784	55	C	01/05/2017	10:42	-132.432	44.359	0	489.70	0	4.7480	0	34.0830	0	26.981	0	485.179	0	43.5	4	14.0	4	-1E+10	1	-1E+10	1	-1E+10	1	-1E+10	1	-1E+10	1	-1E+10	1
4901784	55	C	01/05/2017	10:42	-132.432	44.359	0	492.40	0	4.7450	0	34.0840	0	26.982	0	487.851	0	43.0	4	13.8	4	-1E+10	1	-1E+10	1	-1E+10	1	-1E+10	1	-1E+10	1	-1E+10	1
4901784	55	C	01/05/2017	10:42	-132.432	44.359	0	495.10	0	4.7350	0	34.0850	0	26.984	0	490.523	0	42.3	4	13.6	4	-1E+10	1	-1E+10	1	-1E+10	1	-1E+10	1	-1E+10	1	-1E+10	1
4901784	55	C	01/05/2017	10:42	-132.432	44.359	0	497.70	0	4.7180	0	34.0870	0	26.988	0	493.096	0	41.6	4	13.3	4	-1E+10	1	-1E+10	1	-1E+10	1	-1E+10	1	-1E+10	1	-1E+10	1
4901784	55	C	01/05/2017	10:42	-132.432	44.359	0	500.30	0	4.7020	0	34.0920	0	26.993	0	495.669	0	40.9	4	13.1	4	-1E+10	1	-1E+10	1	-1E+10	1	-1E+10	1	-1E+10	1	-1E+10	1
4901784	55	C	01/05/2017	10:42	-132.432	44.359	0	505.60	0	4.6900	0	34.0950	0	26.997	0	500.913	0	39.9	4	12.8	4	-1E+10	1	-1E+10	1	-1E+10	1	-1E+10	1	-1E+10	1	-1E+10	1
4901784	55	C	01/05/2017	10:42	-132.432	44.359	0	510.10	0	4.6740	0	34.0980	0	27.001	0	505.366	0	38.9	4	12.5	4	-1E+10	1	-1E+10	1	-1E+10	1	-1E+10	1	-1E+10	1	-1E+10	1
4901784	55	C	01/05/2017	10:42	-132.432	44.359	0	514.60	0	4.6510	0	34.1030	0	27.008	0	509.819	0	37.9	4	12.2	4	-1E+10	1	-1E+10	1	-1E+10	1	-1E+10	1	-1E+10	1	-1E+10	1
4901784	55	C	01/05/2017	10:42	-132.432	44.359	0	520.00	0	4.6350	0	34.1070	0	27.013	0	515.162	0	37.2	4	11.9	4	-1E+10	1	-1E+10	1	-1E+10	1	-1E+10	1	-1E+10	1	-1E+10	1
4901784	55	C	01/05/2017	10:42	-132.432	44.359	0	525.40	0	4.6240	0	34.1090	0	27.016	0	520.505	0	36.4	4	11.7	4	-1E+10	1	-1E+10	1	-1E+10	1	-1E+10	1	-1E+10	1	-1E+10	1
4901784	55	C	01/05/2017	10:42	-132.432	44.359	0	529.90	0	4.6070	0	34.1130	0	27.021	0	524.958	0	35.5	4	11.4	4	-1E+10	1	-1E+10	1	-1E+10	1	-1E+10	1	-1E+10	1	-1E+10	1
4901784	55	C	01/05/2017	10:42	-132.432	44.359	0	534.30	0	4.5920	0	34.1170	0	27.025	0	529.311	0	34.8	4	11.1	4	-1E+10	1	-1E+10	1	-1E+10	1	-1E+10	1	-1E+10	1	-1E+10	1
4901784	55	C	01/05/2017	10:42	-132.432	44.359	0	539.80	0	4.5870	0	34.1180	0	27.027	0	534.752	0	33.8	4	10.8	4	-1E+10	1	-1E+10	1	-1E+10	1	-1E+10	1	-1E+10	1	-1E+10	1
4901784	55	C	01/05/2017	10:42	-132.432	44.359	0	545.40	0	4.5640	0	34.1250	0	27.035	0	540.293	0	32.0	4	10.2	4	-1E+10	1	-1E+10	1	-1E+10	1	-1E+10	1	-1E+10	1	-1E+10	1
4901784	55	C	01/05/2017	10:42	-132.432	44.359	0	550.10	0	4.5370	0	34.1320	0	27.043	0	544.943	0	30.9	4	9.9	4	-1E+10	1	-1E+10	1	-1E+10	1	-1E+10	1	-1E+10	1	-1E+10	1
4901784	55	C	01/05/2017	10:42	-132.432	44.359	0	554.80	0	4.5030	0	34.1370	0	27.051	0	549.592	0	29.9	4	9.6	4	-1E+10	1	-1E+10	1	-1E+10	1	-1E+10	1	-1E+10	1	-1E+10	1
4901784	55	C	01/05/2017	10:42	-132.432	44.359	0	560.20	0	4.4750	0	34.1450	0	27.061	0	554.935	0	28.9	4	9.2	4	-1E+10	1	-1E+10	1	-1E+10	1	-1E+10	1	-1E+10	1	-1E+10	1
4901784	55	C	01/05/2017	10:42	-132.432	44.359	0	564.40	0	4.4600	0	34.1480	0	27.065	0	559.089	0	28.1	4	9.0	4	-1E+10	1	-1E+10	1	-1E+10	1	-1E+10	1	-1E+10	1	-1E+10	1
4901784	55	C	01/05/2017	10:42	-132.432	44.359	0	569.90	0	4.4420	0	34.1540	0	27.071	0	564.530	0	27.1	4	8.6	4	-1E+10	1	-1E+10	1	-1E+10	1	-1E+10	1	-1E+10	1	-1E+10	1
4901784	55	C	01/05/2017	10:42	-132.432	44.359	0	575.50	0	4.4140	0	34.1620	0	27.081	0	570.070	0	26.3	4	8.4	4	-1E+10	1	-1E+10	1	-1E+10	1	-1E+10	1	-1E+10	1	-1E+10	1
4901784	55	C	01/05/2017	10:42	-132.432	44.359	0	580.30	0	4.4110	0	34.1630	0	27.082	0	574.818	0	26.0	4	8.3	4	-1E+10	1	-1E+10	1	-1E+10	1	-1E+10	1	-1E+10	1	-1E+10	1
4901784	55	C	01/05/2017	10:42	-132.432	44.359	0	585.10	0	4.4040	0	34.1650	0	27.084	0	579.566	0	25.4	4	8.1	4	-1E+10	1	-1E+10	1	-1E+10	1	-1E+10	1	-1E+10	1	-1E+10	1
4901784	55	C	01/05/2017	10:42	-132.432	44.359	0	589.90	0	4.3880	0	34.1700	0	27.090	0	584.314	0	24.8	4	7.9	4	-1E+10	1	-1E+10	1	-1E+10	1	-1E+10	1	-1E+10	1	-1E+10	1
4901784	55	C	01/05/2017	10:42	-132.432	44.359	0	595.00	0	4.3770	0	34.1730	0	27.094	0	589.358	0	24.3	4	7.7	4	-1E+10	1	-1E+10	1	-1E+10	1	-1E+10	1	-1E+10	1	-1E+10	1
4901784	55	C	01/05/2017	10:42	-132.432	44.359	0	600.00	0	4.3710	0	34.1750	0	27.096	0	594.304	0	23.6	4	7.5	4	-1E+10	1	-1E+10	1	-1E+10	1	-1E+10	1	-1E+10	1	-1E+10	1
4901784	55	C	01/05/2017	10:42	-132.432	44.359	0	604.90	0	4.3430	0	34.1820	0	27.104	0	599.150	0	22.7	4	7.2	4	-1E+10	1	-1E+10	1	-1E+10	1	-1E+10	1	-1E+10	1	-1E+10	1
4901784	55	C	01/05/2017	10:42	-132.432	44.359	0	609.90	0	4.3140	0	34.1890	0	27.113	0	604.095	0	22.1	4	7.0	4	-1E+10	1	-1E+10	1	-1E+10	1	-1E+10	1	-1E+10	1	-1E+10	1
4901784	55	C	01/05/2017	10:42	-132.432	44.359	0	615.00	0	4.2900	0	34.1950	0	27.120	0	609.139	0	21.7	4	6.9	4	-1E+10	1	-1E+10	1	-1E+10	1	-1E+10	1	-1E+10	1	-1E+10	1
4901784	55	C	01/05/2017	10:42	-132.432	44.359	0	620.10	0	4.2830	0	34.1970	0	27.123	0	614.183	0	21.4	4	6.8	4	-1E+10	1	-1E+10	1	-1E+10	1	-1E+10	1	-1E+10	1	-1E+10	1
4901784	55	C	01/05/2017	10:42	-132.432	44.359	0	625.30	0	4.2830	0	34.1980	0	27.124	0	619.326	0	21.0	4	6.7	4	-1E+10	1	-1E+10	1	-1E+10	1	-1E+10	1	-1E+10	1	-1E+10	1
4901784	55	C	01/05/2017	10:42	-132.432	44.359	0	630.50	0	4.2640	0	34.2020	0	27.129	0	624.468	0	20.8	4	6.6	4	-1E+10	1	-1E+10	1	-1E+10	1	-1E+10	1	-1E+10	1	-1E+10	1
4901784	55	C	01/05/2017	10:42	-132.432	44.359	0	635.50	0	4.2510	0	34.2040	0	27.132	0	629.413	0	20.5	4	6.5	4	-1E+10	1	-1E+10	1	-1E+10	1	-1E+10	1	-1E+10	1	-1E+10	1
4901784	55	C	01/05/2017	10:42	-132.432	44.359	0	640.40	0	4.2410	0	34.2070	0	27.135	0	634.259	0	20.1	4	6.4	4	-1E+10	1	-1E+10	1	-1E+10	1	-1E+10	1	-1E+10	1	-1E+10	1
4901784	55	C	01/05/2017	10:42	-132.432	44.359	0	645.40	0	4.2240	0	34.2100	0	27.140	0	639.203	0	19.6	4	6.2	4	-1E+10	1	-1E+10	1	-1E+10	1	-1E+10	1	-1E+10	1	-1E+10	1
4901784	55	C	01/05/2017	10:42	-132.432	44.359	0	650.40	0	4.2080	0	34.2160	0	27.146	0	644.147	0	19.0	4	6.0	4	-1E+10	1	-1E+10	1	-1E+10	1	-1E+10	1	-1E+10	1	-1E+10	1
4901784	55	C	01/05/2017	10:42	-132.432	44.359	0	655.50	0	4.2050	0	34.2200	0	27.150	0	649.190	0	18.4	4	5.8	4	-1E+10	1	-1E+10	1	-1E+10	1	-1E+10	1	-1E+10	1	-1E+10	1
4901784	55	C	01/05/2017	10:42	-132.432	44.359	0	660.50	0	4.1880	0	34.2270	0	27.157	0	654.134	0	17.8	4	5.6	4	-1E+10	1	-1E+10	1	-1E+10	1	-1E+10	1	-1E+10	1	-1E+10	1
4901784	55	C	01/05/2017	10:42	-132.432	44.359	0	665.60	0	4.1760	0	34.2310	0	27.161	0	659.177	0	17.3	4	5.5	4	-1E+10	1	-1E+10	1	-1E+10	1	-1E+10	1	-1E+10	1	-1E+10	1
4901784	55	C	01/05/2017	10:42	-132.432	44.359	0	670.70	0	4.1560	0	34.2380	0	27.169	0	664.220	0	16.6	4	5.3	4	-1E+10	1	-1E+10	1	-1E+10	1	-1E+10	1	-1E+10	1	-1E+10	1
4901784	55	C	01/05/2017	10:42	-132.432	44.359	0	675.00	0	4.1290	0	34.2470	0	27.179	0	668.471	0	16.1	4	5.1	4	-1E+10	1	-1E+10	1	-1E+10	1	-1E+10	1	-1E+10	1	-1E+10	1
4901784	55	C	01/05/2017	10:42	-132.432	44.359	0	679.30	0	4.1060	0	34.2540	0	27.187	0	672.723	0	15.8	4	5.0	4	-1E+10	1	-1E+10	1	-1E+10	1	-1E+10	1	-1E+10	1	-1E+10	1
4901784	55	C	01/05/2017	10:42	-132.432	44.359	0	684.50	0	4.0970	0	34.2560	0	27.190	0	677.864	0	15.7	4	5.0	4	-1E+10	1	-1E+10	1	-1E+10	1	-1E+10	1	-1E+10	1	-1E+10	1
4901784	55	C	01/05/2017	10:42	-132.432	44.359	0	689.70	0	4.0890	0	34.2580	0	27.192	0	683.005	0	15.4	4	4.9	4	-1E+10	1	-1E+10	1	-1E+10	1	-1E+10	1	-1E+10	1	-1E+10	1
4901784	55	C	01/05/2017	10:42	-132.432	44.359	0	695.00	0	4.0670	0	34.2640	0	27.199	0	688.245	0	15.1	4	4.8	4	-1E+10	1	-1E+10	1	-1E+10	1	-1E+10	1	-1E+10	1	-1E+10	1
4901784	55	C	01/05/2017	10:42	-132.432	44.359	0	700.10	0	4.0460	0	34.2690	0	27.205	0	693.287	0	14.8	4	4.7	4	-1E+10	1	-1E+10	1	-1E+10	1	-1E+10	1	-1E+10	1	-1E+10	1
4901784	55	C	01/05/2017	10:42	-132.432	44.359	0	705.30	0	4.0310	0	34.2730	0	27.210	0	698.427	0	14.6	4	4.6	4	-1E+10	1	-1E+10	1	-1E+10	1	-1E+10	1	-1E+10	1	-1E+10	1
4901784	55	C	01/05/2017	10:42	-132.432	44.359	0	710.60	0	4.0160	0	34.2760	0	27.214	0	703.667	0	14.3	4	4.5	4	-1E+10	1	-1E+10	1	-1E+10	1	-1E+10	1	-1E+10	1	-1E+10	1
4901784	55	C	01/05/2017	10:42	-132.432	44.359	0	715.00	0	4.0010	0	34.2810	0	27.220	0	708.016	0	14.1	4	4.5	4	-1E+10	1	-1E+10	1	-1E+10	1	-1E+10	1	-1E+10	1	-1E+10	1
4901784	55	C	01/05/2017	10:42	-132.432	44.359	0	719.40	0	3.9870	0	34.2840	0	27.223	0	712.366	0	14.0	4	4.4	4	-1E+10	1	-1E+10	1	-1E+10	1	-1E+10	1	-1E+10	1	-1E+10	1
4901784	55	C	01/05/2017	10:42	-132.432	44.359	0	724.70	0	3.9640	0	34.2880	0	27.229	0	717.605	0	14.0	4	4.4	4	-1E+10	1	-1E+10	1	-1E+10	1	-1E+10	1	-1E+10	1	-1E+10	1
4901784	55	C	01/05/2017	10:42	-132.432	44.359	0	730.10	0	3.9430	0	34.2900	0	27.233	0	722.943	0	14.0	4	4.4	4	-1E+10	1	-1E+10	1	-1E+10	1	-1E+10	1	-1E+10	1	-1E+10	1
4901784	55	C	01/05/2017	10:42	-132.432	44.359	0	735.50	0	3.9260	0	34.2920	0	27.236	0	728.280	0	13.9	4	4.4	4	-1E+10	1	-1E+10	1	-1E+10	1	-1E+10	1	-1E+10	1	-1E+10	1
4901784	55	C	01/05/2017	10:42	-132.432	44.359	0	740.00	0	3.9170	0	34.2940	0	27.239	0	732.728	0	13.8	4	4.3	4	-1E+10	1	-1E+10	1	-1E+10	1	-1E+10	1	-1E+10	1	-1E+10	1
4901784	55	C	01/05/2017	10:42	-132.432	44.359	0	745.00	0	3.9040	0	34.2970	0	27.242	0	737.670	0	13.6	4	4.3	4	-1E+10	1	-1E+10	1	-1E+10	1	-1E+10	1	-1E+10	1	-1E+10	1
4901784	55	C	01/05/2017	10:42	-132.432	44.359	0	749.90	0	3.9000	0	34.3020	0	27.247	0	742.513	0	13.3	4	4.2	4	-1E+10	1	-1E+10	1	-1E+10	1	-1E+10	1	-1E+10	1	-1E+10	1
4901784	55	C	01/05/2017	10:42	-132.432	44.359	0	754.50	0	3.8900	0	34.3060	0	27.251	0	747.060	0	13.0	4	4.1	4	-1E+10	1	-1E+10	1	-1E+10	1	-1E+10	1	-1E+10	1	-1E+10	1
4901784	55	C	01/05/2017	10:42	-132.432	44.359	0	759.30	0	3.8830	0	34.3110	0	27.256	0	751.804	0	12.8	4	4.0	4	-1E+10	1	-1E+10	1	-1E+10	1	-1E+10	1	-1E+10	1	-1E+10	1
4901784	55	C	01/05/2017	10:42	-132.432	44.359	0	765.00	0	3.8810	0	34.3140	0	27.258	0	757.437	0	12.7	4	4.0	4	-1E+10	1	-1E+10	1	-1E+10	1	-1E+10	1	-1E+10	1	-1E+10	1
4901784	55	C	01/05/2017	10:42	-132.432	44.359	0	770.70	0	3.8720	0	34.3180	0	27.262	0	763.071	0	12.5	4	3.9	4	-1E+10	1	-1E+10	1	-1E+10	1	-1E+10	1	-1E+10	1	-1E+10	1
4901784	55	C	01/05/2017	10:42	-132.432	44.359	0	775.70	0	3.8660	0	34.3200	0	27.265	0	768.012	0	12.4	4	3.9	4	-1E+10	1	-1E+10	1	-1E+10	1	-1E+10	1	-1E+10	1	-1E+10	1
4901784	55	C	01/05/2017	10:42	-132.432	44.359	0	780.60	0	3.8530	0	34.3230	0	27.268	0	772.854	0	12.4	4	3.9	4	-1E+10	1	-1E+10	1	-1E+10	1	-1E+10	1	-1E+10	1	-1E+10	1
4901784	55	C	01/05/2017	10:42	-132.432	44.359	0	785.60	0	3.8440	0	34.3250	0	27.271	0	777.795	0	12.3	4	3.9	4	-1E+10	1	-1E+10	1	-1E+10	1	-1E+10	1	-1E+10	1	-1E+10	1
4901784	55	C	01/05/2017	10:42	-132.432	44.359	0	790.50	0	3.8320	0	34.3280	0	27.275	0	782.637	0	12.2	4	3.8	4	-1E+10	1	-1E+10	1	-1E+10	1	-1E+10	1	-1E+10	1	-1E+10	1
4901784	55	C	01/05/2017	10:42	-132.432	44.359	0	795.50	0	3.8090	0	34.3330	0	27.281	0	787.578	0	12.0	4	3.8	4	-1E+10	1	-1E+10	1	-1E+10	1	-1E+10	1	-1E+10	1	-1E+10	1
4901784	55	C	01/05/2017	10:42	-132.432	44.359	0	800.60	0	3.7980	0	34.3360	0	27.284	0	792.618	0	12.0	4	3.8	4	-1E+10	1	-1E+10	1	-1E+10	1	-1E+10	1	-1E+10	1	-1E+10	1
4901784	55	C	01/05/2017	10:42	-132.432	44.359	0	805.70	0	3.7930	0	34.3370	0	27.286	0	797.657	0	11.9	4	3.7	4	-1E+10	1	-1E+10	1	-1E+10	1	-1E+10	1	-1E+10	1	-1E+10	1
4901784	55	C	01/05/2017	10:42	-132.432	44.359	0	810.70	0	3.7820	0	34.3440	0	27.292	0	802.598	0	11.7	4	3.7	4	-1E+10	1	-1E+10	1	-1E+10	1	-1E+10	1	-1E+10	1	-1E+10	1
4901784	55	C	01/05/2017	10:42	-132.432	44.359	0	815.00	0	3.7740	0	34.3470	0	27.296	0	806.847	0	11.6	4	3.6	4	-1E+10	1	-1E+10	1	-1E+10	1	-1E+10	1	-1E+10	1	-1E+10	1
4901784	55	C	01/05/2017	10:42	-132.432	44.359	0	819.40	0	3.7590	0	34.3510	0	27.300	0	811.194	0	11.5	4	3.6	4	-1E+10	1	-1E+10	1	-1E+10	1	-1E+10	1	-1E+10	1	-1E+10	1
4901784	55	C	01/05/2017	10:42	-132.432	44.359	0	824.70	0	3.7460	0	34.3540	0	27.304	0	816.431	0	11.5	4	3.6	4	-1E+10	1	-1E+10	1	-1E+10	1	-1E+10	1	-1E+10	1	-1E+10	1
4901784	55	C	01/05/2017	10:42	-132.432	44.359	0	830.10	0	3.7370	0	34.3560	0	27.307	0	821.766	0	11.5	4	3.6	4	-1E+10	1	-1E+10	1	-1E+10	1	-1E+10	1	-1E+10	1	-1E+10	1
4901784	55	C	01/05/2017	10:42	-132.432	44.359	0	835.50	0	3.7270	0	34.3580	0	27.309	0	827.101	0	11.5	4	3.6	4	-1E+10	1	-1E+10	1	-1E+10	1	-1E+10	1	-1E+10	1	-1E+10	1
4901784	55	C	01/05/2017	10:42	-132.432	44.359	0	840.00	0	3.7190	0	34.3600	0	27.312	0	831.547	0	11.4	4	3.6	4	-1E+10	1	-1E+10	1	-1E+10	1	-1E+10	1	-1E+10	1	-1E+10	1
4901784	55	C	01/05/2017	10:42	-132.432	44.359	0	844.60	0	3.7060	0	34.3630	0	27.315	0	836.091	0	11.4	4	3.6	4	-1E+10	1	-1E+10	1	-1E+10	1	-1E+10	1	-1E+10	1	-1E+10	1
4901784	55	C	01/05/2017	10:42	-132.432	44.359	0	850.10	0	3.6960	0	34.3660	0	27.319	0	841.525	0	11.4	4	3.6	4	-1E+10	1	-1E+10	1	-1E+10	1	-1E+10	1	-1E+10	1	-1E+10	1
4901784	55	C	01/05/2017	10:42	-132.432	44.359	0	855.60	0	3.6810	0	34.3700	0	27.323	0	846.958	0	11.4	4	3.6	4	-1E+10	1	-1E+10	1	-1E+10	1	-1E+10	1	-1E+10	1	-1E+10	1
4901784	55	C	01/05/2017	10:42	-132.432	44.359	0	860.20	0	3.6680	0	34.3730	0	27.327	0	851.502	0	11.4	4	3.6	4	-1E+10	1	-1E+10	1	-1E+10	1	-1E+10	1	-1E+10	1	-1E+10	1
4901784	55	C	01/05/2017	10:42	-132.432	44.359	0	864.90	0	3.6610	0	34.3750	0	27.330	0	856.145	0	11.3	4	3.6	4	-1E+10	1	-1E+10	1	-1E+10	1	-1E+10	1	-1E+10	1	-1E+10	1
4901784	55	C	01/05/2017	10:42	-132.432	44.359	0	870.50	0	3.6470	0	34.3780	0	27.333	0	861.677	0	11.3	4	3.6	4	-1E+10	1	-1E+10	1	-1E+10	1	-1E+10	1	-1E+10	1	-1E+10	1
4901784	55	C	01/05/2017	10:42	-132.432	44.359	0	875.10	0	3.6350	0	34.3810	0	27.337	0	866.221	0	11.3	4	3.6	4	-1E+10	1	-1E+10	1	-1E+10	1	-1E+10	1	-1E+10	1	-1E+10	1
4901784	55	C	01/05/2017	10:42	-132.432	44.359	0	879.80	0	3.6160	0	34.3850	0	27.342	0	870.863	0	11.3	4	3.6	4	-1E+10	1	-1E+10	1	-1E+10	1	-1E+10	1	-1E+10	1	-1E+10	1
4901784	55	C	01/05/2017	10:42	-132.432	44.359	0	885.50	0	3.6010	0	34.3880	0	27.346	0	876.493	0	11.4	4	3.6	4	-1E+10	1	-1E+10	1	-1E+10	1	-1E+10	1	-1E+10	1	-1E+10	1
4901784	55	C	01/05/2017	10:42	-132.432	44.359	0	890.30	0	3.5940	0	34.3900	0	27.348	0	881.235	0	11.4	4	3.6	4	-1E+10	1	-1E+10	1	-1E+10	1	-1E+10	1	-1E+10	1	-1E+10	1
4901784	55	C	01/05/2017	10:42	-132.432	44.359	0	895.00	0	3.5840	0	34.3930	0	27.352	0	885.877	0	11.4	4	3.6	4	-1E+10	1	-1E+10	1	-1E+10	1	-1E+10	1	-1E+10	1	-1E+10	1
4901784	55	C	01/05/2017	10:42	-132.432	44.359	0	899.70	0	3.5740	0	34.3960	0	27.355	0	890.519	0	11.4	4	3.6	4	-1E+10	1	-1E+10	1	-1E+10	1	-1E+10	1	-1E+10	1	-1E+10	1
4901784	55	C	01/05/2017	10:42	-132.432	44.359	0	904.20	0	3.5620	0	34.3990	0	27.359	0	894.963	0	11.5	4	3.6	4	-1E+10	1	-1E+10	1	-1E+10	1	-1E+10	1	-1E+10	1	-1E+10	1
4901784	55	C	01/05/2017	10:42	-132.432	44.359	0	909.60	0	3.5470	0	34.4020	0	27.362	0	900.296	0	11.6	4	3.6	4	-1E+10	1	-1E+10	1	-1E+10	1	-1E+10	1	-1E+10	1	-1E+10	1
4901784	55	C	01/05/2017	10:42	-132.432	44.359	0	914.50	0	3.5320	0	34.4070	0	27.368	0	905.136	0	11.6	4	3.6	4	-1E+10	1	-1E+10	1	-1E+10	1	-1E+10	1	-1E+10	1	-1E+10	1
4901784	55	C	01/05/2017	10:42	-132.432	44.359	0	919.40	0	3.5230	0	34.4090	0	27.370	0	909.975	0	11.7	4	3.7	4	-1E+10	1	-1E+10	1	-1E+10	1	-1E+10	1	-1E+10	1	-1E+10	1
4901784	55	C	01/05/2017	10:42	-132.432	44.359	0	924.30	0	3.5120	0	34.4120	0	27.374	0	914.814	0	11.8	4	3.7	4	-1E+10	1	-1E+10	1	-1E+10	1	-1E+10	1	-1E+10	1	-1E+10	1
4901784	55	C	01/05/2017	10:42	-132.432	44.359	0	929.40	0	3.4960	0	34.4160	0	27.379	0	919.851	0	11.9	4	3.7	4	-1E+10	1	-1E+10	1	-1E+10	1	-1E+10	1	-1E+10	1	-1E+10	1
4901784	55	C	01/05/2017	10:42	-132.432	44.359	0	934.50	0	3.4900	0	34.4170	0	27.380	0	924.887	0	11.9	4	3.7	4	-1E+10	1	-1E+10	1	-1E+10	1	-1E+10	1	-1E+10	1	-1E+10	1
4901784	55	C	01/05/2017	10:42	-132.432	44.359	0	939.40	0	3.4710	0	34.4230	0	27.387	0	929.726	0	12.1	4	3.8	4	-1E+10	1	-1E+10	1	-1E+10	1	-1E+10	1	-1E+10	1	-1E+10	1
4901784	55	C	01/05/2017	10:42	-132.432	44.359	0	944.60	0	3.4610	0	34.4250	0	27.389	0	934.860	0	12.2	4	3.8	4	-1E+10	1	-1E+10	1	-1E+10	1	-1E+10	1	-1E+10	1	-1E+10	1
4901784	55	C	01/05/2017	10:42	-132.432	44.359	0	949.70	0	3.4430	0	34.4290	0	27.394	0	939.896	0	12.2	4	3.8	4	-1E+10	1	-1E+10	1	-1E+10	1	-1E+10	1	-1E+10	1	-1E+10	1
4901784	55	C	01/05/2017	10:42	-132.432	44.359	0	954.70	0	3.4330	0	34.4320	0	27.398	0	944.833	0	12.3	4	3.8	4	-1E+10	1	-1E+10	1	-1E+10	1	-1E+10	1	-1E+10	1	-1E+10	1
4901784	55	C	01/05/2017	10:42	-132.432	44.359	0	959.90	0	3.4250	0	34.4350	0	27.401	0	949.968	0	12.4	4	3.9	4	-1E+10	1	-1E+10	1	-1E+10	1	-1E+10	1	-1E+10	1	-1E+10	1
4901784	55	C	01/05/2017	10:42	-132.432	44.359	0	965.20	0	3.4210	0	34.4360	0	27.402	0	955.201	0	12.5	4	3.9	4	-1E+10	1	-1E+10	1	-1E+10	1	-1E+10	1	-1E+10	1	-1E+10	1
4901784	55	C	01/05/2017	10:42	-132.432	44.359	0	970.40	0	3.4140	0	34.4370	0	27.403	0	960.335	0	12.6	4	3.9	4	-1E+10	1	-1E+10	1	-1E+10	1	-1E+10	1	-1E+10	1	-1E+10	1
4901784	55	C	01/05/2017	10:42	-132.432	44.359	0	975.60	0	3.3990	0	34.4420	0	27.409	0	965.469	0	12.8	4	4.0	4	-1E+10	1	-1E+10	1	-1E+10	1	-1E+10	1	-1E+10	1	-1E+10	1
4901784	55	C	01/05/2017	10:42	-132.432	44.359	0	980.70	0	3.3890	0	34.4460	0	27.413	0	970.505	0	13.0	4	4.0	4	-1E+10	1	-1E+10	1	-1E+10	1	-1E+10	1	-1E+10	1	-1E+10	1
4901784	55	C	01/05/2017	10:42	-132.432	44.359	0	985.10	0	3.3830	0	34.4470	0	27.415	0	974.849	0	13.1	4	4.1	4	-1E+10	1	-1E+10	1	-1E+10	1	-1E+10	1	-1E+10	1	-1E+10	1
4901784	55	C	01/05/2017	10:42	-132.432	44.359	0	989.50	0	3.3720	0	34.4510	0	27.419	0	979.193	0	13.3	4	4.2	4	-1E+10	1	-1E+10	1	-1E+10	1	-1E+10	1	-1E+10	1	-1E+10	1
4901784	55	C	01/05/2017	10:42	-132.432	44.359	0	994.80	0	3.3610	0	34.4550	0	27.423	0	984.425	0	13.6	4	4.2	4	-1E+10	1	-1E+10	1	-1E+10	1	-1E+10	1	-1E+10	1	-1E+10	1
4901784	55	C	01/05/2017	10:42	-132.432	44.359	0	1000.20	0	3.3460	0	34.4590	0	27.428	0	989.756	0	14.0	4	4.4	4	-1E+10	1	-1E+10	1	-1E+10	1	-1E+10	1	-1E+10	1	-1E+10	1
4901784	55	C	01/05/2017	10:42	-132.432	44.359	0	1005.60	0	3.3430	0	34.4650	0	27.433	0	995.087	0	14.4	4	4.5	4	-1E+10	1	-1E+10	1	-1E+10	1	-1E+10	1	-1E+10	1	-1E+10	1
4901784	55	C	01/05/2017	10:42	-132.432	44.359	0	1010.00	0	3.3420	0	34.4660	0	27.434	0	999.430	0	14.6	4	4.5	4	-1E+10	1	-1E+10	1	-1E+10	1	-1E+10	1	-1E+10	1	-1E+10	1
4901784	55	C	01/05/2017	10:42	-132.432	44.359	0	1014.50	0	3.3420	0	34.4670	0	27.435	0	1003.872	0	14.7	4	4.6	4	-1E+10	1	-1E+10	1	-1E+10	1	-1E+10	1	-1E+10	1	-1E+10	1
4901784	55	C	01/05/2017	10:42	-132.432	44.359	0	1019.90	0	3.3370	0	34.4700	0	27.437	0	1009.203	0	15.1	4	4.7	4	-1E+10	1	-1E+10	1	-1E+10	1	-1E+10	1	-1E+10	1	-1E+10	1
4901784	55	C	01/05/2017	10:42	-132.432	44.359	0	1025.20	0	3.3310	0	34.4740	0	27.441	0	1014.434	0	15.3	4	4.8	4	-1E+10	1	-1E+10	1	-1E+10	1	-1E+10	1	-1E+10	1	-1E+10	1
4901784	55	C	01/05/2017	10:42	-132.432	44.359	0	1030.60	0	3.3270	0	34.4750	0	27.442	0	1019.764	0	15.5	4	4.8	4	-1E+10	1	-1E+10	1	-1E+10	1	-1E+10	1	-1E+10	1	-1E+10	1
4901784	55	C	01/05/2017	10:42	-132.432	44.359	0	1035.00	0	3.3210	0	34.4770	0	27.445	0	1024.107	0	15.8	4	4.9	4	-1E+10	1	-1E+10	1	-1E+10	1	-1E+10	1	-1E+10	1	-1E+10	1
4901784	55	C	01/05/2017	10:42	-132.432	44.359	0	1039.50	0	3.3130	0	34.4800	0	27.448	0	1028.549	0	16.0	4	5.0	4	-1E+10	1	-1E+10	1	-1E+10	1	-1E+10	1	-1E+10	1	-1E+10	1
4901784	55	C	01/05/2017	10:42	-132.432	44.359	0	1044.80	0	3.3090	0	34.4810	0	27.449	0	1033.780	0	16.2	4	5.1	4	-1E+10	1	-1E+10	1	-1E+10	1	-1E+10	1	-1E+10	1	-1E+10	1
4901784	55	C	01/05/2017	10:42	-132.432	44.359	0	1050.20	0	3.2980	0	34.4840	0	27.452	0	1039.110	0	16.5	4	5.1	4	-1E+10	1	-1E+10	1	-1E+10	1	-1E+10	1	-1E+10	1	-1E+10	1
4901784	55	C	01/05/2017	10:42	-132.432	44.359	0	1055.60	0	3.2910	0	34.4860	0	27.455	0	1044.439	0	17.0	4	5.3	4	-1E+10	1	-1E+10	1	-1E+10	1	-1E+10	1	-1E+10	1	-1E+10	1
4901784	55	C	01/05/2017	10:42	-132.432	44.359	0	1060.10	0	3.2880	0	34.4900	0	27.458	0	1048.881	0	17.6	4	5.5	4	-1E+10	1	-1E+10	1	-1E+10	1	-1E+10	1	-1E+10	1	-1E+10	1
4901784	55	C	01/05/2017	10:42	-132.432	44.359	0	1064.60	0	3.2930	0	34.4940	0	27.461	0	1053.322	0	18.1	4	5.6	4	-1E+10	1	-1E+10	1	-1E+10	1	-1E+10	1	-1E+10	1	-1E+10	1
4901784	55	C	01/05/2017	10:42	-132.432	44.359	0	1070.30	0	3.2970	0	34.4990	0	27.465	0	1058.947	0	18.6	4	5.8	4	-1E+10	1	-1E+10	1	-1E+10	1	-1E+10	1	-1E+10	1	-1E+10	1
4901784	55	C	01/05/2017	10:42	-132.432	44.359	0	1075.30	0	3.3030	0	34.5020	0	27.467	0	1063.881	0	19.0	4	5.9	4	-1E+10	1	-1E+10	1	-1E+10	1	-1E+10	1	-1E+10	1	-1E+10	1
4901784	55	C	01/05/2017	10:42	-132.432	44.359	0	1080.00	0	3.2990	0	34.5030	0	27.468	0	1068.519	0	19.1	4	6.0	4	-1E+10	1	-1E+10	1	-1E+10	1	-1E+10	1	-1E+10	1	-1E+10	1
4901784	55	C	01/05/2017	10:42	-132.432	44.359	0	1084.70	0	3.2890	0	34.5040	0	27.470	0	1073.157	0	19.4	4	6.0	4	-1E+10	1	-1E+10	1	-1E+10	1	-1E+10	1	-1E+10	1	-1E+10	1
4901784	55	C	01/05/2017	10:42	-132.432	44.359	0	1089.40	0	3.2870	0	34.5080	0	27.473	0	1077.795	0	19.8	4	6.1	4	-1E+10	1	-1E+10	1	-1E+10	1	-1E+10	1	-1E+10	1	-1E+10	1
4901784	55	C	01/05/2017	10:42	-132.432	44.359	0	1094.90	0	3.2870	0	34.5100	0	27.475	0	1083.222	0	19.9	4	6.2	4	-1E+10	1	-1E+10	1	-1E+10	1	-1E+10	1	-1E+10	1	-1E+10	1
4901784	55	C	01/05/2017	10:42	-132.432	44.359	0	1100.60	0	3.2780	0	34.5100	0	27.475	0	1088.847	0	20.2	4	6.3	4	-1E+10	1	-1E+10	1	-1E+10	1	-1E+10	1	-1E+10	1	-1E+10	1
4901784	55	C	01/05/2017	10:42	-132.432	44.359	0	1105.40	0	3.2720	0	34.5130	0	27.478	0	1093.583	0	20.4	4	6.3	4	-1E+10	1	-1E+10	1	-1E+10	1	-1E+10	1	-1E+10	1	-1E+10	1
4901784	55	C	01/05/2017	10:42	-132.432	44.359	0	1110.50	0	3.2660	0	34.5150	0	27.481	0	1098.615	0	20.7	4	6.4	4	-1E+10	1	-1E+10	1	-1E+10	1	-1E+10	1	-1E+10	1	-1E+10	1
4901784	55	C	01/05/2017	10:42	-132.432	44.359	0	1115.10	0	3.2740	0	34.5170	0	27.482	0	1103.154	0	21.0	4	6.5	4	-1E+10	1	-1E+10	1	-1E+10	1	-1E+10	1	-1E+10	1	-1E+10	1
4901784	55	C	01/05/2017	10:42	-132.432	44.359	0	1119.50	0	3.2770	0	34.5190	0	27.483	0	1107.495	0	21.2	4	6.6	4	-1E+10	1	-1E+10	1	-1E+10	1	-1E+10	1	-1E+10	1	-1E+10	1
4901784	55	C	01/05/2017	10:42	-132.432	44.359	0	1124.90	0	3.2640	0	34.5190	0	27.484	0	1112.823	0	21.1	4	6.6	4	-1E+10	1	-1E+10	1	-1E+10	1	-1E+10	1	-1E+10	1	-1E+10	1
4901784	55	C	01/05/2017	10:42	-132.432	44.359	0	1130.30	0	3.2570	0	34.5190	0	27.485	0	1118.151	0	21.2	4	6.6	4	-1E+10	1	-1E+10	1	-1E+10	1	-1E+10	1	-1E+10	1	-1E+10	1
4901784	55	C	01/05/2017	10:42	-132.432	44.359	0	1134.90	0	3.2530	0	34.5210	0	27.487	0	1122.689	0	21.5	4	6.7	4	-1E+10	1	-1E+10	1	-1E+10	1	-1E+10	1	-1E+10	1	-1E+10	1
4901784	55	C	01/05/2017	10:42	-132.432	44.359	0	1139.40	0	3.2440	0	34.5230	0	27.489	0	1127.128	0	21.8	4	6.8	4	-1E+10	1	-1E+10	1	-1E+10	1	-1E+10	1	-1E+10	1	-1E+10	1
4901784	55	C	01/05/2017	10:42	-132.432	44.359	0	1144.90	0	3.2400	0	34.5250	0	27.491	0	1132.554	0	22.1	4	6.9	4	-1E+10	1	-1E+10	1	-1E+10	1	-1E+10	1	-1E+10	1	-1E+10	1
4901784	55	C	01/05/2017	10:42	-132.432	44.359	0	1150.40	0	3.2380	0	34.5280	0	27.494	0	1137.980	0	22.6	4	7.0	4	-1E+10	1	-1E+10	1	-1E+10	1	-1E+10	1	-1E+10	1	-1E+10	1
4901784	55	C	01/05/2017	10:42	-132.432	44.359	0	1155.00	0	3.2430	0	34.5310	0	27.496	0	1142.518	0	22.8	4	7.1	4	-1E+10	1	-1E+10	1	-1E+10	1	-1E+10	1	-1E+10	1	-1E+10	1
4901784	55	C	01/05/2017	10:42	-132.432	44.359	0	1159.60	0	3.2390	0	34.5310	0	27.496	0	1147.056	0	22.7	4	7.1	4	-1E+10	1	-1E+10	1	-1E+10	1	-1E+10	1	-1E+10	1	-1E+10	1
4901784	55	C	01/05/2017	10:42	-132.432	44.359	0	1165.20	0	3.2180	0	34.5300	0	27.497	0	1152.580	0	22.8	4	7.1	4	-1E+10	1	-1E+10	1	-1E+10	1	-1E+10	1	-1E+10	1	-1E+10	1
4901784	55	C	01/05/2017	10:42	-132.432	44.359	0	1169.90	0	3.2180	0	34.5320	0	27.499	0	1157.216	0	23.3	4	7.2	4	-1E+10	1	-1E+10	1	-1E+10	1	-1E+10	1	-1E+10	1	-1E+10	1
4901784	55	C	01/05/2017	10:42	-132.432	44.359	0	1174.60	0	3.2350	0	34.5360	0	27.501	0	1161.852	0	23.8	4	7.4	4	-1E+10	1	-1E+10	1	-1E+10	1	-1E+10	1	-1E+10	1	-1E+10	1
4901784	55	C	01/05/2017	10:42	-132.432	44.359	0	1180.40	0	3.2270	0	34.5380	0	27.503	0	1167.573	0	24.0	4	7.5	4	-1E+10	1	-1E+10	1	-1E+10	1	-1E+10	1	-1E+10	1	-1E+10	1
4901784	55	C	01/05/2017	10:42	-132.432	44.359	0	1185.20	0	3.2200	0	34.5390	0	27.505	0	1172.307	0	24.1	4	7.5	4	-1E+10	1	-1E+10	1	-1E+10	1	-1E+10	1	-1E+10	1	-1E+10	1
4901784	55	C	01/05/2017	10:42	-132.432	44.359	0	1190.00	0	3.2150	0	34.5390	0	27.505	0	1177.042	0	24.3	4	7.5	4	-1E+10	1	-1E+10	1	-1E+10	1	-1E+10	1	-1E+10	1	-1E+10	1
4901784	55	C	01/05/2017	10:42	-132.432	44.359	0	1194.80	0	3.2030	0	34.5420	0	27.509	0	1181.776	0	24.4	4	7.6	4	-1E+10	1	-1E+10	1	-1E+10	1	-1E+10	1	-1E+10	1	-1E+10	1
4901784	55	C	01/05/2017	10:42	-132.432	44.359	0	1199.60	0	3.1910	0	34.5420	0	27.510	0	1186.510	0	24.4	4	7.6	4	-1E+10	1	-1E+10	1	-1E+10	1	-1E+10	1	-1E+10	1	-1E+10	1
4901784	55	C	01/05/2017	10:42	-132.432	44.359	0	1205.30	0	3.1790	0	34.5420	0	27.511	0	1192.132	0	24.5	4	7.6	4	-1E+10	1	-1E+10	1	-1E+10	1	-1E+10	1	-1E+10	1	-1E+10	1
4901784	55	C	01/05/2017	10:42	-132.432	44.359	0	1210.20	0	3.1780	0	34.5440	0	27.513	0	1196.964	0	24.7	4	7.7	4	-1E+10	1	-1E+10	1	-1E+10	1	-1E+10	1	-1E+10	1	-1E+10	1
4901784	55	C	01/05/2017	10:42	-132.432	44.359	0	1215.10	0	3.1690	0	34.5450	0	27.514	0	1201.797	0	24.8	4	7.7	4	-1E+10	1	-1E+10	1	-1E+10	1	-1E+10	1	-1E+10	1	-1E+10	1
4901784	55	C	01/05/2017	10:42	-132.432	44.359	0	1220.10	0	3.1640	0	34.5460	0	27.516	0	1206.728	0	24.9	4	7.7	4	-1E+10	1	-1E+10	1	-1E+10	1	-1E+10	1	-1E+10	1	-1E+10	1
4901784	55	C	01/05/2017	10:42	-132.432	44.359	0	1225.00	0	3.1550	0	34.5460	0	27.516	0	1211.560	0	25.0	4	7.8	4	-1E+10	1	-1E+10	1	-1E+10	1	-1E+10	1	-1E+10	1	-1E+10	1
4901784	55	C	01/05/2017	10:42	-132.432	44.359	0	1230.00	0	3.1520	0	34.5470	0	27.518	0	1216.491	0	25.1	4	7.8	4	-1E+10	1	-1E+10	1	-1E+10	1	-1E+10	1	-1E+10	1	-1E+10	1
4901784	55	C	01/05/2017	10:42	-132.432	44.359	0	1234.80	0	3.1410	0	34.5480	0	27.519	0	1221.224	0	25.1	4	7.8	4	-1E+10	1	-1E+10	1	-1E+10	1	-1E+10	1	-1E+10	1	-1E+10	1
4901784	55	C	01/05/2017	10:42	-132.432	44.359	0	1240.60	0	3.1370	0	34.5480	0	27.520	0	1226.943	0	25.2	4	7.8	4	-1E+10	1	-1E+10	1	-1E+10	1	-1E+10	1	-1E+10	1	-1E+10	1
4901784	55	C	01/05/2017	10:42	-132.432	44.359	0	1245.10	0	3.1320	0	34.5480	0	27.520	0	1231.381	0	25.2	4	7.8	4	-1E+10	1	-1E+10	1	-1E+10	1	-1E+10	1	-1E+10	1	-1E+10	1
4901784	55	C	01/05/2017	10:42	-132.432	44.359	0	1249.70	0	3.1300	0	34.5490	0	27.521	0	1235.916	0	25.4	4	7.9	4	-1E+10	1	-1E+10	1	-1E+10	1	-1E+10	1	-1E+10	1	-1E+10	1
4901784	55	C	01/05/2017	10:42	-132.432	44.359	0	1255.10	0	3.1290	0	34.5500	0	27.522	0	1241.241	0	25.6	4	7.9	4	-1E+10	1	-1E+10	1	-1E+10	1	-1E+10	1	-1E+10	1	-1E+10	1
4901784	55	C	01/05/2017	10:42	-132.432	44.359	0	1260.60	0	3.1200	0	34.5510	0	27.524	0	1246.664	0	25.6	4	7.9	4	-1E+10	1	-1E+10	1	-1E+10	1	-1E+10	1	-1E+10	1	-1E+10	1
4901784	55	C	01/05/2017	10:42	-132.432	44.359	0	1265.20	0	3.1120	0	34.5510	0	27.525	0	1251.199	0	25.7	4	8.0	4	-1E+10	1	-1E+10	1	-1E+10	1	-1E+10	1	-1E+10	1	-1E+10	1
4901784	55	C	01/05/2017	10:42	-132.432	44.359	0	1269.70	0	3.1110	0	34.5520	0	27.526	0	1255.636	0	25.8	4	8.0	4	-1E+10	1	-1E+10	1	-1E+10	1	-1E+10	1	-1E+10	1	-1E+10	1
4901784	55	C	01/05/2017	10:42	-132.432	44.359	0	1275.20	0	3.0960	0	34.5540	0	27.529	0	1261.059	0	26.0	4	8.0	4	-1E+10	1	-1E+10	1	-1E+10	1	-1E+10	1	-1E+10	1	-1E+10	1
4901784	55	C	01/05/2017	10:42	-132.432	44.359	0	1279.90	0	3.0850	0	34.5540	0	27.530	0	1265.693	0	25.8	4	8.0	4	-1E+10	1	-1E+10	1	-1E+10	1	-1E+10	1	-1E+10	1	-1E+10	1
4901784	55	C	01/05/2017	10:42	-132.432	44.359	0	1285.40	0	3.0650	0	34.5520	0	27.530	0	1271.115	0	25.5	4	7.9	4	-1E+10	1	-1E+10	1	-1E+10	1	-1E+10	1	-1E+10	1	-1E+10	1
4901784	55	C	01/05/2017	10:42	-132.432	44.359	0	1290.20	0	3.0440	0	34.5520	0	27.532	0	1275.847	0	25.5	4	7.9	4	-1E+10	1	-1E+10	1	-1E+10	1	-1E+10	1	-1E+10	1	-1E+10	1
4901784	55	C	01/05/2017	10:42	-132.432	44.359	0	1295.00	0	3.0390	0	34.5520	0	27.532	0	1280.579	0	25.6	4	7.9	4	-1E+10	1	-1E+10	1	-1E+10	1	-1E+10	1	-1E+10	1	-1E+10	1
4901784	55	C	01/05/2017	10:42	-132.432	44.359	0	1299.80	0	3.0330	0	34.5530	0	27.534	0	1285.311	0	25.7	4	8.0	4	-1E+10	1	-1E+10	1	-1E+10	1	-1E+10	1	-1E+10	1	-1E+10	1
4901784	55	C	01/05/2017	10:42	-132.432	44.359	0	1304.60	0	3.0230	0	34.5530	0	27.535	0	1290.043	0	25.8	4	8.0	4	-1E+10	1	-1E+10	1	-1E+10	1	-1E+10	1	-1E+10	1	-1E+10	1
4901784	55	C	01/05/2017	10:42	-132.432	44.359	0	1309.50	0	3.0090	0	34.5550	0	27.538	0	1294.873	0	25.9	4	8.0	4	-1E+10	1	-1E+10	1	-1E+10	1	-1E+10	1	-1E+10	1	-1E+10	1
4901784	55	C	01/05/2017	10:42	-132.432	44.359	0	1314.30	0	2.9970	0	34.5560	0	27.539	0	1299.605	0	26.1	4	8.0	4	-1E+10	1	-1E+10	1	-1E+10	1	-1E+10	1	-1E+10	1	-1E+10	1
4901784	55	C	01/05/2017	10:42	-132.432	44.359	0	1319.30	0	2.9880	0	34.5560	0	27.540	0	1304.533	0	26.2	4	8.1	4	-1E+10	1	-1E+10	1	-1E+10	1	-1E+10	1	-1E+10	1	-1E+10	1
4901784	55	C	01/05/2017	10:42	-132.432	44.359	0	1324.30	0	2.9800	0	34.5570	0	27.542	0	1309.462	0	26.4	4	8.1	4	-1E+10	1	-1E+10	1	-1E+10	1	-1E+10	1	-1E+10	1	-1E+10	1
4901784	55	C	01/05/2017	10:42	-132.432	44.359	0	1329.30	0	2.9690	0	34.5580	0	27.544	0	1314.390	0	26.4	4	8.2	4	-1E+10	1	-1E+10	1	-1E+10	1	-1E+10	1	-1E+10	1	-1E+10	1
4901784	55	C	01/05/2017	10:42	-132.432	44.359	0	1334.20	0	2.9610	0	34.5580	0	27.544	0	1319.220	0	26.4	4	8.2	4	-1E+10	1	-1E+10	1	-1E+10	1	-1E+10	1	-1E+10	1	-1E+10	1
4901784	55	C	01/05/2017	10:42	-132.432	44.359	0	1339.30	0	2.9470	0	34.5590	0	27.546	0	1324.247	0	26.5	4	8.2	4	-1E+10	1	-1E+10	1	-1E+10	1	-1E+10	1	-1E+10	1	-1E+10	1
4901784	55	C	01/05/2017	10:42	-132.432	44.359	0	1344.30	0	2.9400	0	34.5590	0	27.547	0	1329.175	0	26.5	4	8.2	4	-1E+10	1	-1E+10	1	-1E+10	1	-1E+10	1	-1E+10	1	-1E+10	1
4901784	55	C	01/05/2017	10:42	-132.432	44.359	0	1349.40	0	2.9300	0	34.5590	0	27.548	0	1334.201	0	26.5	4	8.2	4	-1E+10	1	-1E+10	1	-1E+10	1	-1E+10	1	-1E+10	1	-1E+10	1
4901784	55	C	01/05/2017	10:42	-132.432	44.359	0	1354.50	0	2.9170	0	34.5590	0	27.549	0	1339.228	0	26.5	4	8.2	4	-1E+10	1	-1E+10	1	-1E+10	1	-1E+10	1	-1E+10	1	-1E+10	1
4901784	55	C	01/05/2017	10:42	-132.432	44.359	0	1359.70	0	2.8980	0	34.5590	0	27.551	0	1344.352	0	26.5	4	8.2	4	-1E+10	1	-1E+10	1	-1E+10	1	-1E+10	1	-1E+10	1	-1E+10	1
4901784	55	C	01/05/2017	10:42	-132.432	44.359	0	1364.90	0	2.8900	0	34.5590	0	27.552	0	1349.477	0	26.4	4	8.1	4	-1E+10	1	-1E+10	1	-1E+10	1	-1E+10	1	-1E+10	1	-1E+10	1
4901784	55	C	01/05/2017	10:42	-132.432	44.359	0	1370.20	0	2.8800	0	34.5590	0	27.553	0	1354.700	0	26.3	4	8.1	4	-1E+10	1	-1E+10	1	-1E+10	1	-1E+10	1	-1E+10	1	-1E+10	1
4901784	55	C	01/05/2017	10:42	-132.432	44.359	0	1375.40	0	2.8740	0	34.5580	0	27.552	0	1359.825	0	26.3	4	8.1	4	-1E+10	1	-1E+10	1	-1E+10	1	-1E+10	1	-1E+10	1	-1E+10	1
4901784	55	C	01/05/2017	10:42	-132.432	44.359	0	1380.70	0	2.8620	0	34.5580	0	27.553	0	1365.047	0	26.3	4	8.1	4	-1E+10	1	-1E+10	1	-1E+10	1	-1E+10	1	-1E+10	1	-1E+10	1
4901784	55	C	01/05/2017	10:42	-132.432	44.359	0	1385.20	0	2.8530	0	34.5590	0	27.555	0	1369.482	0	26.4	4	8.1	4	-1E+10	1	-1E+10	1	-1E+10	1	-1E+10	1	-1E+10	1	-1E+10	1
4901784	55	C	01/05/2017	10:42	-132.432	44.359	0	1389.60	0	2.8430	0	34.5590	0	27.556	0	1373.817	0	26.4	4	8.1	4	-1E+10	1	-1E+10	1	-1E+10	1	-1E+10	1	-1E+10	1	-1E+10	1
4901784	55	C	01/05/2017	10:42	-132.432	44.359	0	1395.00	0	2.8350	0	34.5590	0	27.557	0	1379.139	0	26.4	4	8.1	4	-1E+10	1	-1E+10	1	-1E+10	1	-1E+10	1	-1E+10	1	-1E+10	1
4901784	55	C	01/05/2017	10:42	-132.432	44.359	0	1400.20	0	2.8300	0	34.5590	0	27.557	0	1384.262	0	26.4	4	8.1	4	-1E+10	1	-1E+10	1	-1E+10	1	-1E+10	1	-1E+10	1	-1E+10	1
4901784	55	C	01/05/2017	10:42	-132.432	44.359	0	1405.60	0	2.8170	0	34.5590	0	27.558	0	1389.583	0	26.4	4	8.1	4	-1E+10	1	-1E+10	1	-1E+10	1	-1E+10	1	-1E+10	1	-1E+10	1
4901784	55	C	01/05/2017	10:42	-132.432	44.359	0	1410.50	0	2.8000	0	34.5590	0	27.560	0	1394.411	0	26.4	4	8.1	4	-1E+10	1	-1E+10	1	-1E+10	1	-1E+10	1	-1E+10	1	-1E+10	1
4901784	55	C	01/05/2017	10:42	-132.432	44.359	0	1415.30	0	2.7820	0	34.5590	0	27.561	0	1399.141	0	26.3	4	8.1	4	-1E+10	1	-1E+10	1	-1E+10	1	-1E+10	1	-1E+10	1	-1E+10	1
4901784	55	C	01/05/2017	10:42	-132.432	44.359	0	1420.20	0	2.7710	0	34.5590	0	27.562	0	1403.968	0	26.4	4	8.1	4	-1E+10	1	-1E+10	1	-1E+10	1	-1E+10	1	-1E+10	1	-1E+10	1
4901784	55	C	01/05/2017	10:42	-132.432	44.359	0	1425.10	0	2.7510	0	34.5590	0	27.564	0	1408.796	0	26.4	4	8.1	4	-1E+10	1	-1E+10	1	-1E+10	1	-1E+10	1	-1E+10	1	-1E+10	1
4901784	55	C	01/05/2017	10:42	-132.432	44.359	0	1430.10	0	2.7330	0	34.5590	0	27.566	0	1413.722	0	26.3	4	8.1	4	-1E+10	1	-1E+10	1	-1E+10	1	-1E+10	1	-1E+10	1	-1E+10	1
4901784	55	C	01/05/2017	10:42	-132.432	44.359	0	1435.10	0	2.7130	0	34.5590	0	27.568	0	1418.648	0	26.3	4	8.1	4	-1E+10	1	-1E+10	1	-1E+10	1	-1E+10	1	-1E+10	1	-1E+10	1
4901784	55	C	01/05/2017	10:42	-132.432	44.359	0	1440.10	0	2.7100	0	34.5590	0	27.568	0	1423.574	0	26.4	4	8.1	4	-1E+10	1	-1E+10	1	-1E+10	1	-1E+10	1	-1E+10	1	-1E+10	1
4901784	55	C	01/05/2017	10:42	-132.432	44.359	0	1445.20	0	2.7010	0	34.5590	0	27.569	0	1428.598	0	26.5	4	8.1	4	-1E+10	1	-1E+10	1	-1E+10	1	-1E+10	1	-1E+10	1	-1E+10	1
4901784	55	C	01/05/2017	10:42	-132.432	44.359	0	1450.30	0	2.6820	0	34.5610	0	27.572	0	1433.622	0	26.6	4	8.2	4	-1E+10	1	-1E+10	1	-1E+10	1	-1E+10	1	-1E+10	1	-1E+10	1
4901784	55	C	01/05/2017	10:42	-132.432	44.359	0	1455.30	0	2.6750	0	34.5610	0	27.573	0	1438.548	0	26.7	4	8.2	4	-1E+10	1	-1E+10	1	-1E+10	1	-1E+10	1	-1E+10	1	-1E+10	1
4901784	55	C	01/05/2017	10:42	-132.432	44.359	0	1460.40	0	2.6640	0	34.5610	0	27.574	0	1443.571	0	26.7	4	8.2	4	-1E+10	1	-1E+10	1	-1E+10	1	-1E+10	1	-1E+10	1	-1E+10	1
4901784	55	C	01/05/2017	10:42	-132.432	44.359	0	1465.60	0	2.6530	0	34.5610	0	27.574	0	1448.694	0	26.6	4	8.2	4	-1E+10	1	-1E+10	1	-1E+10	1	-1E+10	1	-1E+10	1	-1E+10	1
4901784	55	C	01/05/2017	10:42	-132.432	44.359	0	1470.00	0	2.6360	0	34.5610	0	27.576	0	1453.028	0	26.6	4	8.2	4	-1E+10	1	-1E+10	1	-1E+10	1	-1E+10	1	-1E+10	1	-1E+10	1
4901784	55	C	01/05/2017	10:42	-132.432	44.359	0	1474.40	0	2.6310	0	34.5610	0	27.576	0	1457.362	0	26.6	4	8.2	4	-1E+10	1	-1E+10	1	-1E+10	1	-1E+10	1	-1E+10	1	-1E+10	1
4901784	55	C	01/05/2017	10:42	-132.432	44.359	0	1479.70	0	2.6130	0	34.5600	0	27.577	0	1462.582	0	26.7	4	8.2	4	-1E+10	1	-1E+10	1	-1E+10	1	-1E+10	1	-1E+10	1	-1E+10	1
4901784	55	C	01/05/2017	10:42	-132.432	44.359	0	1485.20	0	2.5930	0	34.5610	0	27.580	0	1467.999	0	27.0	4	8.3	4	-1E+10	1	-1E+10	1	-1E+10	1	-1E+10	1	-1E+10	1	-1E+10	1
4901784	55	C	01/05/2017	10:42	-132.432	44.359	0	1490.60	0	2.5750	0	34.5630	0	27.583	0	1473.318	0	27.3	4	8.4	4	-1E+10	1	-1E+10	1	-1E+10	1	-1E+10	1	-1E+10	1	-1E+10	1
4901784	55	C	01/05/2017	10:42	-132.432	44.359	0	1495.20	0	2.5640	0	34.5640	0	27.585	0	1477.849	0	27.5	4	8.4	4	-1E+10	1	-1E+10	1	-1E+10	1	-1E+10	1	-1E+10	1	-1E+10	1
4901784	55	C	01/05/2017	10:42	-132.432	44.359	0	1500.40	0	2.5590	0	34.5640	0	27.585	0	1482.970	0	27.7	4	8.5	4	-1E+10	1	-1E+10	1	-1E+10	1	-1E+10	1	-1E+10	1	-1E+10	1
4901784	55	C	01/05/2017	10:42	-132.432	44.359	0	1505.40	0	2.5450	0	34.5650	0	27.587	0	1487.895	0	27.8	4	8.5	4	-1E+10	1	-1E+10	1	-1E+10	1	-1E+10	1	-1E+10	1	-1E+10	1
4901784	55	C	01/05/2017	10:42	-132.432	44.359	0	1510.20	0	2.5350	0	34.5650	0	27.588	0	1492.622	0	27.9	4	8.5	4	-1E+10	1	-1E+10	1	-1E+10	1	-1E+10	1	-1E+10	1	-1E+10	1
4901784	55	C	01/05/2017	10:42	-132.432	44.359	0	1515.10	0	2.5200	0	34.5660	0	27.590	0	1497.447	0	28.1	4	8.6	4	-1E+10	1	-1E+10	1	-1E+10	1	-1E+10	1	-1E+10	1	-1E+10	1
4901784	55	C	01/05/2017	10:42	-132.432	44.359	0	1520.10	0	2.5090	0	34.5670	0	27.592	0	1502.371	0	28.4	4	8.7	4	-1E+10	1	-1E+10	1	-1E+10	1	-1E+10	1	-1E+10	1	-1E+10	1
4901784	55	C	01/05/2017	10:42	-132.432	44.359	0	1525.00	0	2.4930	0	34.5680	0	27.594	0	1507.197	0	28.8	4	8.8	4	-1E+10	1	-1E+10	1	-1E+10	1	-1E+10	1	-1E+10	1	-1E+10	1
4901784	55	C	01/05/2017	10:42	-132.432	44.359	0	1529.90	0	2.4820	0	34.5690	0	27.596	0	1512.022	0	29.1	4	8.9	4	-1E+10	1	-1E+10	1	-1E+10	1	-1E+10	1	-1E+10	1	-1E+10	1
4901784	55	C	01/05/2017	10:42	-132.432	44.359	0	1534.90	0	2.4710	0	34.5700	0	27.597	0	1516.946	0	29.4	4	9.0	4	-1E+10	1	-1E+10	1	-1E+10	1	-1E+10	1	-1E+10	1	-1E+10	1
4901784	55	C	01/05/2017	10:42	-132.432	44.359	0	1539.90	0	2.4610	0	34.5710	0	27.599	0	1521.869	0	29.7	4	9.0	4	-1E+10	1	-1E+10	1	-1E+10	1	-1E+10	1	-1E+10	1	-1E+10	1
4901784	55	C	01/05/2017	10:42	-132.432	44.359	0	1544.80	0	2.4510	0	34.5720	0	27.601	0	1526.694	0	29.9	4	9.1	4	-1E+10	1	-1E+10	1	-1E+10	1	-1E+10	1	-1E+10	1	-1E+10	1
4901784	55	C	01/05/2017	10:42	-132.432	44.359	0	1549.80	0	2.4410	0	34.5730	0	27.602	0	1531.618	0	30.2	4	9.2	4	-1E+10	1	-1E+10	1	-1E+10	1	-1E+10	1	-1E+10	1	-1E+10	1
4901784	55	C	01/05/2017	10:42	-132.432	44.359	0	1554.80	0	2.4310	0	34.5740	0	27.604	0	1536.541	0	30.5	4	9.3	4	-1E+10	1	-1E+10	1	-1E+10	1	-1E+10	1	-1E+10	1	-1E+10	1
4901784	55	C	01/05/2017	10:42	-132.432	44.359	0	1559.90	0	2.4260	0	34.5740	0	27.604	0	1541.562	0	30.8	4	9.4	4	-1E+10	1	-1E+10	1	-1E+10	1	-1E+10	1	-1E+10	1	-1E+10	1
4901784	55	C	01/05/2017	10:42	-132.432	44.359	0	1565.00	0	2.4100	0	34.5770	0	27.608	0	1546.584	0	31.2	4	9.5	4	-1E+10	1	-1E+10	1	-1E+10	1	-1E+10	1	-1E+10	1	-1E+10	1
4901784	55	C	01/05/2017	10:42	-132.432	44.359	0	1570.10	0	2.4040	0	34.5770	0	27.609	0	1551.605	0	31.5	4	9.6	4	-1E+10	1	-1E+10	1	-1E+10	1	-1E+10	1	-1E+10	1	-1E+10	1
4901784	55	C	01/05/2017	10:42	-132.432	44.359	0	1575.10	0	2.3940	0	34.5780	0	27.610	0	1556.528	0	31.9	4	9.7	4	-1E+10	1	-1E+10	1	-1E+10	1	-1E+10	1	-1E+10	1	-1E+10	1
4901784	55	C	01/05/2017	10:42	-132.432	44.359	0	1580.20	0	2.3800	0	34.5790	0	27.612	0	1561.549	0	32.3	4	9.8	4	-1E+10	1	-1E+10	1	-1E+10	1	-1E+10	1	-1E+10	1	-1E+10	1
4901784	55	C	01/05/2017	10:42	-132.432	44.359	0	1585.30	0	2.3690	0	34.5810	0	27.615	0	1566.570	0	32.7	4	10.0	4	-1E+10	1	-1E+10	1	-1E+10	1	-1E+10	1	-1E+10	1	-1E+10	1
4901784	55	C	01/05/2017	10:42	-132.432	44.359	0	1590.50	0	2.3570	0	34.5820	0	27.617	0	1571.689	0	33.1	4	10.1	4	-1E+10	1	-1E+10	1	-1E+10	1	-1E+10	1	-1E+10	1	-1E+10	1
4901784	55	C	01/05/2017	10:42	-132.432	44.359	0	1594.90	0	2.3510	0	34.5830	0	27.618	0	1576.020	0	33.3	4	10.1	4	-1E+10	1	-1E+10	1	-1E+10	1	-1E+10	1	-1E+10	1	-1E+10	1
4901784	55	C	01/05/2017	10:42	-132.432	44.359	0	1599.40	0	2.3460	0	34.5830	0	27.618	0	1580.450	0	33.6	4	10.2	4	-1E+10	1	-1E+10	1	-1E+10	1	-1E+10	1	-1E+10	1	-1E+10	1
4901784	55	C	01/05/2017	10:42	-132.432	44.359	0	1604.70	0	2.3310	0	34.5850	0	27.621	0	1585.668	0	34.1	4	10.4	4	-1E+10	1	-1E+10	1	-1E+10	1	-1E+10	1	-1E+10	1	-1E+10	1
4901784	55	C	01/05/2017	10:42	-132.432	44.359	0	1610.00	0	2.3210	0	34.5860	0	27.623	0	1590.885	0	34.4	4	10.4	4	-1E+10	1	-1E+10	1	-1E+10	1	-1E+10	1	-1E+10	1	-1E+10	1
4901784	55	C	01/05/2017	10:42	-132.432	44.359	0	1615.30	0	2.3140	0	34.5870	0	27.624	0	1596.102	0	34.7	4	10.5	4	-1E+10	1	-1E+10	1	-1E+10	1	-1E+10	1	-1E+10	1	-1E+10	1
4901784	55	C	01/05/2017	10:42	-132.432	44.359	0	1620.70	0	2.3080	0	34.5880	0	27.626	0	1601.418	0	35.0	4	10.6	4	-1E+10	1	-1E+10	1	-1E+10	1	-1E+10	1	-1E+10	1	-1E+10	1
4901784	55	C	01/05/2017	10:42	-132.432	44.359	0	1625.10	0	2.3020	0	34.5890	0	27.627	0	1605.749	0	35.4	4	10.7	4	-1E+10	1	-1E+10	1	-1E+10	1	-1E+10	1	-1E+10	1	-1E+10	1
4901784	55	C	01/05/2017	10:42	-132.432	44.359	0	1629.60	0	2.2900	0	34.5900	0	27.629	0	1610.178	0	35.7	4	10.8	4	-1E+10	1	-1E+10	1	-1E+10	1	-1E+10	1	-1E+10	1	-1E+10	1
4901784	55	C	01/05/2017	10:42	-132.432	44.359	0	1635.10	0	2.2830	0	34.5910	0	27.630	0	1615.591	0	36.0	4	10.9	4	-1E+10	1	-1E+10	1	-1E+10	1	-1E+10	1	-1E+10	1	-1E+10	1
4901784	55	C	01/05/2017	10:42	-132.432	44.359	0	1640.50	0	2.2760	0	34.5920	0	27.632	0	1620.906	0	36.4	4	11.0	4	-1E+10	1	-1E+10	1	-1E+10	1	-1E+10	1	-1E+10	1	-1E+10	1
4901784	55	C	01/05/2017	10:42	-132.432	44.359	0	1645.10	0	2.2710	0	34.5920	0	27.632	0	1625.434	0	36.6	4	11.1	4	-1E+10	1	-1E+10	1	-1E+10	1	-1E+10	1	-1E+10	1	-1E+10	1
4901784	55	C	01/05/2017	10:42	-132.432	44.359	0	1649.60	0	2.2630	0	34.5940	0	27.634	0	1629.863	0	36.9	4	11.2	4	-1E+10	1	-1E+10	1	-1E+10	1	-1E+10	1	-1E+10	1	-1E+10	1
4901784	55	C	01/05/2017	10:42	-132.432	44.359	0	1655.10	0	2.2590	0	34.5940	0	27.635	0	1635.276	0	37.2	4	11.3	4	-1E+10	1	-1E+10	1	-1E+10	1	-1E+10	1	-1E+10	1	-1E+10	1
4901784	55	C	01/05/2017	10:42	-132.432	44.359	0	1660.70	0	2.2540	0	34.5950	0	27.636	0	1640.787	0	37.5	4	11.4	4	-1E+10	1	-1E+10	1	-1E+10	1	-1E+10	1	-1E+10	1	-1E+10	1
4901784	55	C	01/05/2017	10:42	-132.432	44.359	0	1665.30	0	2.2500	0	34.5960	0	27.637	0	1645.314	0	37.8	4	11.5	4	-1E+10	1	-1E+10	1	-1E+10	1	-1E+10	1	-1E+10	1	-1E+10	1
4901784	55	C	01/05/2017	10:42	-132.432	44.359	0	1669.90	0	2.2420	0	34.5970	0	27.639	0	1649.841	0	38.1	4	11.5	4	-1E+10	1	-1E+10	1	-1E+10	1	-1E+10	1	-1E+10	1	-1E+10	1
4901784	55	C	01/05/2017	10:42	-132.432	44.359	0	1675.40	0	2.2340	0	34.5980	0	27.640	0	1655.253	0	38.4	4	11.6	4	-1E+10	1	-1E+10	1	-1E+10	1	-1E+10	1	-1E+10	1	-1E+10	1
4901784	55	C	01/05/2017	10:42	-132.432	44.359	0	1680.00	0	2.2310	0	34.5980	0	27.640	0	1659.780	0	38.5	4	11.7	4	-1E+10	1	-1E+10	1	-1E+10	1	-1E+10	1	-1E+10	1	-1E+10	1
4901784	55	C	01/05/2017	10:42	-132.432	44.359	0	1684.50	0	2.2300	0	34.5990	0	27.641	0	1664.208	0	38.7	4	11.7	4	-1E+10	1	-1E+10	1	-1E+10	1	-1E+10	1	-1E+10	1	-1E+10	1
4901784	55	C	01/05/2017	10:42	-132.432	44.359	0	1690.00	0	2.2250	0	34.6000	0	27.642	0	1669.620	0	39.1	4	11.9	4	-1E+10	1	-1E+10	1	-1E+10	1	-1E+10	1	-1E+10	1	-1E+10	1
4901784	55	C	01/05/2017	10:42	-132.432	44.359	0	1695.50	0	2.2190	0	34.6010	0	27.644	0	1675.032	0	39.5	4	12.0	4	-1E+10	1	-1E+10	1	-1E+10	1	-1E+10	1	-1E+10	1	-1E+10	1
4901784	55	C	01/05/2017	10:42	-132.432	44.359	0	1700.10	0	2.2110	0	34.6020	0	27.645	0	1679.558	0	39.8	4	12.1	4	-1E+10	1	-1E+10	1	-1E+10	1	-1E+10	1	-1E+10	1	-1E+10	1
4901784	55	C	01/05/2017	10:42	-132.432	44.359	0	1704.70	0	2.2080	0	34.6030	0	27.646	0	1684.085	0	40.0	4	12.1	4	-1E+10	1	-1E+10	1	-1E+10	1	-1E+10	1	-1E+10	1	-1E+10	1
4901784	55	C	01/05/2017	10:42	-132.432	44.359	0	1710.20	0	2.2040	0	34.6030	0	27.647	0	1689.496	0	40.2	4	12.2	4	-1E+10	1	-1E+10	1	-1E+10	1	-1E+10	1	-1E+10	1	-1E+10	1
4901784	55	C	01/05/2017	10:42	-132.432	44.359	0	1714.90	0	2.2020	0	34.6040	0	27.648	0	1694.121	0	40.3	4	12.2	4	-1E+10	1	-1E+10	1	-1E+10	1	-1E+10	1	-1E+10	1	-1E+10	1
4901784	55	C	01/05/2017	10:42	-132.432	44.359	0	1719.60	0	2.2010	0	34.6040	0	27.648	0	1698.745	0	40.5	4	12.3	4	-1E+10	1	-1E+10	1	-1E+10	1	-1E+10	1	-1E+10	1	-1E+10	1
4901784	55	C	01/05/2017	10:42	-132.432	44.359	0	1725.20	0	2.1960	0	34.6050	0	27.649	0	1704.254	0	40.8	4	12.4	4	-1E+10	1	-1E+10	1	-1E+10	1	-1E+10	1	-1E+10	1	-1E+10	1
4901784	55	C	01/05/2017	10:42	-132.432	44.359	0	1729.80	0	2.1910	0	34.6060	0	27.650	0	1708.780	0	41.0	4	12.4	4	-1E+10	1	-1E+10	1	-1E+10	1	-1E+10	1	-1E+10	1	-1E+10	1
4901784	55	C	01/05/2017	10:42	-132.432	44.359	0	1734.50	0	2.1880	0	34.6060	0	27.650	0	1713.404	0	41.1	4	12.5	4	-1E+10	1	-1E+10	1	-1E+10	1	-1E+10	1	-1E+10	1	-1E+10	1
4901784	55	C	01/05/2017	10:42	-132.432	44.359	0	1740.10	0	2.1870	0	34.6060	0	27.651	0	1718.913	0	41.4	4	12.6	4	-1E+10	1	-1E+10	1	-1E+10	1	-1E+10	1	-1E+10	1	-1E+10	1
4901784	55	C	01/05/2017	10:42	-132.432	44.359	0	1744.80	0	2.1830	0	34.6070	0	27.652	0	1723.537	0	41.7	4	12.6	4	-1E+10	1	-1E+10	1	-1E+10	1	-1E+10	1	-1E+10	1	-1E+10	1
4901784	55	C	01/05/2017	10:42	-132.432	44.359	0	1749.50	0	2.1760	0	34.6080	0	27.653	0	1728.160	0	42.2	4	12.8	4	-1E+10	1	-1E+10	1	-1E+10	1	-1E+10	1	-1E+10	1	-1E+10	1
4901784	55	C	01/05/2017	10:42	-132.432	44.359	0	1755.10	0	2.1670	0	34.6090	0	27.655	0	1733.669	0	42.6	4	12.9	4	-1E+10	1	-1E+10	1	-1E+10	1	-1E+10	1	-1E+10	1	-1E+10	1
4901784	55	C	01/05/2017	10:42	-132.432	44.359	0	1759.80	0	2.1600	0	34.6100	0	27.656	0	1738.293	0	43.0	4	13.0	4	-1E+10	1	-1E+10	1	-1E+10	1	-1E+10	1	-1E+10	1	-1E+10	1
4901784	55	C	01/05/2017	10:42	-132.432	44.359	0	1764.50	0	2.1530	0	34.6110	0	27.657	0	1742.916	0	43.4	4	13.1	4	-1E+10	1	-1E+10	1	-1E+10	1	-1E+10	1	-1E+10	1	-1E+10	1
4901784	55	C	01/05/2017	10:42	-132.432	44.359	0	1770.10	0	2.1450	0	34.6120	0	27.659	0	1748.424	0	43.9	4	13.3	4	-1E+10	1	-1E+10	1	-1E+10	1	-1E+10	1	-1E+10	1	-1E+10	1
4901784	55	C	01/05/2017	10:42	-132.432	44.359	0	1774.70	0	2.1350	0	34.6130	0	27.660	0	1752.949	0	44.4	4	13.4	4	-1E+10	1	-1E+10	1	-1E+10	1	-1E+10	1	-1E+10	1	-1E+10	1
4901784	55	C	01/05/2017	10:42	-132.432	44.359	0	1779.40	0	2.1260	0	34.6150	0	27.663	0	1757.572	0	44.7	4	13.5	4	-1E+10	1	-1E+10	1	-1E+10	1	-1E+10	1	-1E+10	1	-1E+10	1
4901784	55	C	01/05/2017	10:42	-132.432	44.359	0	1785.00	0	2.1220	0	34.6150	0	27.663	0	1763.080	0	44.9	4	13.6	4	-1E+10	1	-1E+10	1	-1E+10	1	-1E+10	1	-1E+10	1	-1E+10	1
4901784	55	C	01/05/2017	10:42	-132.432	44.359	0	1790.60	0	2.1200	0	34.6150	0	27.663	0	1768.588	0	45.2	4	13.7	4	-1E+10	1	-1E+10	1	-1E+10	1	-1E+10	1	-1E+10	1	-1E+10	1
4901784	55	C	01/05/2017	10:42	-132.432	44.359	0	1795.40	0	2.1150	0	34.6170	0	27.665	0	1773.309	0	45.4	4	13.7	4	-1E+10	1	-1E+10	1	-1E+10	1	-1E+10	1	-1E+10	1	-1E+10	1
4901784	55	C	01/05/2017	10:42	-132.432	44.359	0	1800.10	0	2.1110	0	34.6170	0	27.666	0	1777.931	0	45.6	4	13.8	4	-1E+10	1	-1E+10	1	-1E+10	1	-1E+10	1	-1E+10	1	-1E+10	1
4901784	55	C	01/05/2017	10:42	-132.432	44.359	0	1804.90	0	2.1090	0	34.6170	0	27.666	0	1782.652	0	45.8	4	13.9	4	-1E+10	1	-1E+10	1	-1E+10	1	-1E+10	1	-1E+10	1	-1E+10	1
4901784	55	C	01/05/2017	10:42	-132.432	44.359	0	1809.50	0	2.1050	0	34.6180	0	27.667	0	1787.176	0	46.1	4	13.9	4	-1E+10	1	-1E+10	1	-1E+10	1	-1E+10	1	-1E+10	1	-1E+10	1
4901784	55	C	01/05/2017	10:42	-132.432	44.359	0	1815.00	0	2.0980	0	34.6190	0	27.668	0	1792.585	0	46.4	4	14.0	4	-1E+10	1	-1E+10	1	-1E+10	1	-1E+10	1	-1E+10	1	-1E+10	1
4901784	55	C	01/05/2017	10:42	-132.432	44.359	0	1820.50	0	2.0970	0	34.6190	0	27.669	0	1797.994	0	46.6	4	14.1	4	-1E+10	1	-1E+10	1	-1E+10	1	-1E+10	1	-1E+10	1	-1E+10	1
4901784	55	C	01/05/2017	10:42	-132.432	44.359	0	1825.50	0	2.0930	0	34.6200	0	27.670	0	1802.911	0	46.9	4	14.2	4	-1E+10	1	-1E+10	1	-1E+10	1	-1E+10	1	-1E+10	1	-1E+10	1
4901784	55	C	01/05/2017	10:42	-132.432	44.359	0	1830.50	0	2.0900	0	34.6200	0	27.670	0	1807.828	0	47.1	4	14.2	4	-1E+10	1	-1E+10	1	-1E+10	1	-1E+10	1	-1E+10	1	-1E+10	1
4901784	55	C	01/05/2017	10:42	-132.432	44.359	0	1835.50	0	2.0850	0	34.6210	0	27.671	0	1812.745	0	47.5	4	14.4	4	-1E+10	1	-1E+10	1	-1E+10	1	-1E+10	1	-1E+10	1	-1E+10	1
4901784	55	C	01/05/2017	10:42	-132.432	44.359	0	1840.50	0	2.0790	0	34.6220	0	27.672	0	1817.661	0	47.9	4	14.5	4	-1E+10	1	-1E+10	1	-1E+10	1	-1E+10	1	-1E+10	1	-1E+10	1
4901784	55	C	01/05/2017	10:42	-132.432	44.359	0	1845.50	0	2.0730	0	34.6230	0	27.674	0	1822.578	0	48.3	4	14.6	4	-1E+10	1	-1E+10	1	-1E+10	1	-1E+10	1	-1E+10	1	-1E+10	1
4901784	55	C	01/05/2017	10:42	-132.432	44.359	0	1850.60	0	2.0710	0	34.6240	0	27.675	0	1827.592	0	48.6	4	14.7	4	-1E+10	1	-1E+10	1	-1E+10	1	-1E+10	1	-1E+10	1	-1E+10	1
4901784	55	C	01/05/2017	10:42	-132.432	44.359	0	1855.70	0	2.0690	0	34.6250	0	27.676	0	1832.607	0	49.1	4	14.8	4	-1E+10	1	-1E+10	1	-1E+10	1	-1E+10	1	-1E+10	1	-1E+10	1
4901784	55	C	01/05/2017	10:42	-132.432	44.359	0	1860.70	0	2.0660	0	34.6260	0	27.677	0	1837.523	0	49.6	4	15.0	4	-1E+10	1	-1E+10	1	-1E+10	1	-1E+10	1	-1E+10	1	-1E+10	1
4901784	55	C	01/05/2017	10:42	-132.432	44.359	0	1865.80	0	2.0590	0	34.6270	0	27.678	0	1842.538	0	50.1	4	15.1	4	-1E+10	1	-1E+10	1	-1E+10	1	-1E+10	1	-1E+10	1	-1E+10	1
4901784	55	C	01/05/2017	10:42	-132.432	44.359	0	1870.80	0	2.0550	0	34.6280	0	27.679	0	1847.454	0	50.6	4	15.3	4	-1E+10	1	-1E+10	1	-1E+10	1	-1E+10	1	-1E+10	1	-1E+10	1
4901784	55	C	01/05/2017	10:42	-132.432	44.359	0	1875.80	0	2.0480	0	34.6290	0	27.681	0	1852.370	0	51.2	4	15.4	4	-1E+10	1	-1E+10	1	-1E+10	1	-1E+10	1	-1E+10	1	-1E+10	1
4901784	55	C	01/05/2017	10:42	-132.432	44.359	0	1880.10	0	2.0420	0	34.6300	0	27.682	0	1856.597	0	51.5	4	15.5	4	-1E+10	1	-1E+10	1	-1E+10	1	-1E+10	1	-1E+10	1	-1E+10	1
4901784	55	C	01/05/2017	10:42	-132.432	44.359	0	1884.30	0	2.0380	0	34.6310	0	27.683	0	1860.726	0	51.8	4	15.6	4	-1E+10	1	-1E+10	1	-1E+10	1	-1E+10	1	-1E+10	1	-1E+10	1
4901784	55	C	01/05/2017	10:42	-132.432	44.359	0	1889.40	0	2.0300	0	34.6320	0	27.685	0	1865.740	0	52.2	4	15.8	4	-1E+10	1	-1E+10	1	-1E+10	1	-1E+10	1	-1E+10	1	-1E+10	1
4901784	55	C	01/05/2017	10:42	-132.432	44.359	0	1894.50	0	2.0240	0	34.6330	0	27.686	0	1870.754	0	52.6	4	15.9	4	-1E+10	1	-1E+10	1	-1E+10	1	-1E+10	1	-1E+10	1	-1E+10	1
4901784	55	C	01/05/2017	10:42	-132.432	44.359	0	1899.60	0	2.0190	0	34.6330	0	27.686	0	1875.767	0	52.9	4	16.0	4	-1E+10	1	-1E+10	1	-1E+10	1	-1E+10	1	-1E+10	1	-1E+10	1
4901784	55	C	01/05/2017	10:42	-132.432	44.359	0	1904.80	0	2.0140	0	34.6340	0	27.687	0	1880.879	0	53.2	4	16.1	4	-1E+10	1	-1E+10	1	-1E+10	1	-1E+10	1	-1E+10	1	-1E+10	1
4901784	55	C	01/05/2017	10:42	-132.432	44.359	0	1909.90	0	2.0070	0	34.6350	0	27.689	0	1885.893	0	53.6	4	16.2	4	-1E+10	1	-1E+10	1	-1E+10	1	-1E+10	1	-1E+10	1	-1E+10	1
4901784	55	C	01/05/2017	10:42	-132.432	44.359	0	1915.10	0	2.0010	0	34.6350	0	27.689	0	1891.004	0	53.8	4	16.2	4	-1E+10	1	-1E+10	1	-1E+10	1	-1E+10	1	-1E+10	1	-1E+10	1
4901784	55	C	01/05/2017	10:42	-132.432	44.359	0	1920.20	0	1.9960	0	34.6360	0	27.691	0	1896.017	0	54.3	4	16.4	4	-1E+10	1	-1E+10	1	-1E+10	1	-1E+10	1	-1E+10	1	-1E+10	1
4901784	55	C	01/05/2017	10:42	-132.432	44.359	0	1925.40	0	1.9870	0	34.6370	0	27.692	0	1901.129	0	54.7	4	16.5	4	-1E+10	1	-1E+10	1	-1E+10	1	-1E+10	1	-1E+10	1	-1E+10	1
4901784	55	C	01/05/2017	10:42	-132.432	44.359	0	1930.60	0	1.9800	0	34.6380	0	27.693	0	1906.240	0	55.1	4	16.6	4	-1E+10	1	-1E+10	1	-1E+10	1	-1E+10	1	-1E+10	1	-1E+10	1
4901784	55	C	01/05/2017	10:42	-132.432	44.359	0	1935.00	0	1.9770	0	34.6390	0	27.695	0	1910.564	0	55.4	4	16.7	4	-1E+10	1	-1E+10	1	-1E+10	1	-1E+10	1	-1E+10	1	-1E+10	1
4901784	55	C	01/05/2017	10:42	-132.432	44.359	0	1939.40	0	1.9740	0	34.6390	0	27.695	0	1914.889	0	55.7	4	16.8	4	-1E+10	1	-1E+10	1	-1E+10	1	-1E+10	1	-1E+10	1	-1E+10	1
4901784	55	C	01/05/2017	10:42	-132.432	44.359	0	1944.60	0	1.9710	0	34.6400	0	27.696	0	1920.000	0	56.1	4	16.9	4	-1E+10	1	-1E+10	1	-1E+10	1	-1E+10	1	-1E+10	1	-1E+10	1
4901784	55	C	01/05/2017	10:42	-132.432	44.359	0	1949.90	0	1.9680	0	34.6410	0	27.697	0	1925.209	0	56.4	4	17.0	4	-1E+10	1	-1E+10	1	-1E+10	1	-1E+10	1	-1E+10	1	-1E+10	1
4901784	55	C	01/05/2017	10:42	-132.432	44.359	0	1955.20	0	1.9640	0	34.6420	0	27.698	0	1930.418	0	56.7	4	17.1	4	-1E+10	1	-1E+10	1	-1E+10	1	-1E+10	1	-1E+10	1	-1E+10	1
4901784	55	C	01/05/2017	10:42	-132.432	44.359	0	1960.50	0	1.9610	0	34.6420	0	27.698	0	1935.627	0	57.0	4	17.2	4	-1E+10	1	-1E+10	1	-1E+10	1	-1E+10	1	-1E+10	1	-1E+10	1
4901784	55	C	01/05/2017	10:42	-132.432	44.359	0	1964.90	0	1.9570	0	34.6430	0	27.699	0	1939.951	0	57.3	4	17.3	4	-1E+10	1	-1E+10	1	-1E+10	1	-1E+10	1	-1E+10	1	-1E+10	1
4901784	55	C	01/05/2017	10:42	-132.432	44.359	0	1969.30	0	1.9550	0	34.6430	0	27.700	0	1944.275	0	57.5	4	17.3	4	-1E+10	1	-1E+10	1	-1E+10	1	-1E+10	1	-1E+10	1	-1E+10	1
4901784	55	C	01/05/2017	10:42	-132.432	44.359	0	1974.60	0	1.9520	0	34.6440	0	27.701	0	1949.483	0	57.7	4	17.4	4	-1E+10	1	-1E+10	1	-1E+10	1	-1E+10	1	-1E+10	1	-1E+10	1
4901784	55	C	01/05/2017	10:42	-132.432	44.359	0	1979.40	0	1.9470	0	34.6450	0	27.702	0	1954.200	0	58.0	4	17.5	4	-1E+10	1	-1E+10	1	-1E+10	1	-1E+10	1	-1E+10	1	-1E+10	1
4901784	55	C	01/05/2017	10:42	-132.432	44.359	0	1985.00	0	1.9440	0	34.6450	0	27.702	0	1959.703	0	58.3	4	17.6	4	-1E+10	1	-1E+10	1	-1E+10	1	-1E+10	1	-1E+10	1	-1E+10	1
4901784	55	C	01/05/2017	10:42	-132.432	44.359	0	1990.60	0	1.9420	0	34.6460	0	27.703	0	1965.206	0	58.4	4	17.6	4	-1E+10	1	-1E+10	1	-1E+10	1	-1E+10	1	-1E+10	1	-1E+10	1
4901784	55	C	01/05/2017	10:42	-132.432	44.359	0	1995.50	0	1.9390	0	34.6460	0	27.703	0	1970.021	0	58.5	4	17.6	4	-1E+10	1	-1E+10	1	-1E+10	1	-1E+10	1	-1E+10	1	-1E+10	1
4901784	55	C	01/05/2017	10:42	-132.432	44.359	0	2000.40	0	1.9380	0	34.6460	0	27.704	0	1974.836	0	58.8	4	17.7	4	-1E+10	1	-1E+10	1	-1E+10	1	-1E+10	1	-1E+10	1	-1E+10	1
4901784	55	C	01/05/2017	10:42	-132.432	44.359	0	2005.30	0	1.9330	0	34.6460	0	27.704	0	1979.650	0	58.9	4	17.7	4	-1E+10	1	-1E+10	1	-1E+10	1	-1E+10	1	-1E+10	1	-1E+10	1
4901784	55	C	01/05/2017	10:42	-132.432	44.359	0	2009.70	0	1.9290	0	34.6470	0	27.705	0	1983.973	0	59.1	4	17.8	4	-1E+10	1	-1E+10	1	-1E+10	1	-1E+10	1	-1E+10	1	-1E+10	1
4901784	55	C	01/05/2017	10:42	-132.432	44.359	0	2015.10	0	1.9260	0	34.6480	0	27.706	0	1989.279	0	59.4	4	17.9	4	-1E+10	1	-1E+10	1	-1E+10	1	-1E+10	1	-1E+10	1	-1E+10	1
4901784	55	C	01/05/2017	10:42	-132.432	44.359	0	2019.90	0	1.9250	0	34.6480	0	27.706	0	1993.995	0	59.5	4	17.9	4	-1E+10	1	-1E+10	1	-1E+10	1	-1E+10	1	-1E+10	1	-1E+10	1
4901784	55	C	01/05/2017	10:42	-132.432	44.359	0																										
4901784	56	C	01/15/2017	10:46	-132.441	44.341	0	2.90	0	9.9950	0	32.9300	0	25.337	0	2.877	0	265.3	4	95.2	4	-1E+10	1	-1E+10	1	-1E+10	1	-1E+10	1	-1E+10	1	-1E+10	1
4901784	56	C	01/15/2017	10:46	-132.441	44.341	0	4.50	0	9.9950	0	32.9300	0	25.337	0	4.464	0	265.3	4	95.2	4	-1E+10	1	-1E+10	1	-1E+10	1	-1E+10	1	-1E+10	1	-1E+10	1
4901784	56	C	01/15/2017	10:46	-132.441	44.341	0	6.00	0	9.9960	0	32.9290	0	25.336	0	5.952	0	265.5	4	95.3	4	-1E+10	1	-1E+10	1	-1E+10	1	-1E+10	1	-1E+10	1	-1E+10	1
4901784	56	C	01/15/2017	10:46	-132.441	44.341	0	7.70	0	9.9960	0	32.9300	0	25.337	0	7.638	0	265.4	4	95.2	4	-1E+10	1	-1E+10	1	-1E+10	1	-1E+10	1	-1E+10	1	-1E+10	1
4901784	56	C	01/15/2017	10:46	-132.441	44.341	0	9.40	0	9.9980	0	32.9300	0	25.337	0	9.324	0	265.2	4	95.1	4	-1E+10	1	-1E+10	1	-1E+10	1	-1E+10	1	-1E+10	1	-1E+10	1
4901784	56	C	01/15/2017	10:46	-132.441	44.341	0	11.10	0	9.9980	0	32.9300	0	25.337	0	11.010	0	265.3	4	95.2	4	-1E+10	1	-1E+10	1	-1E+10	1	-1E+10	1	-1E+10	1	-1E+10	1
4901784	56	C	01/15/2017	10:46	-132.441	44.341	0	12.90	0	9.9980	0	32.9300	0	25.337	0	12.796	0	265.3	4	95.2	4	-1E+10	1	-1E+10	1	-1E+10	1	-1E+10	1	-1E+10	1	-1E+10	1
4901784	56	C	01/15/2017	10:46	-132.441	44.341	0	14.60	0	9.9980	0	32.9300	0	25.337	0	14.482	0	265.4	4	95.2	4	-1E+10	1	-1E+10	1	-1E+10	1	-1E+10	1	-1E+10	1	-1E+10	1
4901784	56	C	01/15/2017	10:46	-132.441	44.341	0	16.40	0	9.9980	0	32.9290	0	25.336	0	16.267	0	265.2	4	95.1	4	-1E+10	1	-1E+10	1	-1E+10	1	-1E+10	1	-1E+10	1	-1E+10	1
4901784	56	C	01/15/2017	10:46	-132.441	44.341	0	18.20	0	9.9970	0	32.9290	0	25.336	0	18.053	0	265.2	4	95.1	4	-1E+10	1	-1E+10	1	-1E+10	1	-1E+10	1	-1E+10	1	-1E+10	1
4901784	56	C	01/15/2017	10:46	-132.441	44.341	0	20.10	0	9.9990	0	32.9290	0	25.336	0	19.937	0	265.0	4	95.1	4	-1E+10	1	-1E+10	1	-1E+10	1	-1E+10	1	-1E+10	1	-1E+10	1
4901784	56	C	01/15/2017	10:46	-132.441	44.341	0	22.00	0	9.9990	0	32.9300	0	25.337	0	21.822	0	265.0	4	95.1	4	-1E+10	1	-1E+10	1	-1E+10	1	-1E+10	1	-1E+10	1	-1E+10	1
4901784	56	C	01/15/2017	10:46	-132.441	44.341	0	23.80	0	10.0000	0	32.9300	0	25.337	0	23.607	0	264.9	4	95.0	4	-1E+10	1	-1E+10	1	-1E+10	1	-1E+10	1	-1E+10	1	-1E+10	1
4901784	56	C	01/15/2017	10:46	-132.441	44.341	0	25.70	0	10.0050	0	32.9310	0	25.337	0	25.491	0	264.7	4	95.0	4	-1E+10	1	-1E+10	1	-1E+10	1	-1E+10	1	-1E+10	1	-1E+10	1
4901784	56	C	01/15/2017	10:46	-132.441	44.341	0	27.60	0	9.9990	0	32.9320	0	25.339	0	27.376	0	264.4	4	94.9	4	-1E+10	1	-1E+10	1	-1E+10	1	-1E+10	1	-1E+10	1	-1E+10	1
4901784	56	C	01/15/2017	10:46	-132.441	44.341	0	29.40	0	9.9690	0	32.9290	0	25.341	0	29.161	0	264.4	4	94.8	4	-1E+10	1	-1E+10	1	-1E+10	1	-1E+10	1	-1E+10	1	-1E+10	1
4901784	56	C	01/15/2017	10:46	-132.441	44.341	0	31.30	0	9.9140	0	32.9270	0	25.349	0	31.045	0	265.0	4	94.9	4	-1E+10	1	-1E+10	1	-1E+10	1	-1E+10	1	-1E+10	1	-1E+10	1
4901784	56	C	01/15/2017	10:46	-132.441	44.341	0	33.10	0	9.9080	0	32.9280	0	25.351	0	32.831	0	264.9	4	94.9	4	-1E+10	1	-1E+10	1	-1E+10	1	-1E+10	1	-1E+10	1	-1E+10	1
4901784	56	C	01/15/2017	10:46	-132.441	44.341	0	35.00	0	9.9340	0	32.9330	0	25.350	0	34.715	0	264.8	4	94.9	4	-1E+10	1	-1E+10	1	-1E+10	1	-1E+10	1	-1E+10	1	-1E+10	1
4901784	56	C	01/15/2017	10:46	-132.441	44.341	0	36.80	0	9.9530	0	32.9370	0	25.350	0	36.500	0	264.5	4	94.8	4	-1E+10	1	-1E+10	1	-1E+10	1	-1E+10	1	-1E+10	1	-1E+10	1
4901784	56	C	01/15/2017	10:46	-132.441	44.341	0	38.70	0	9.9800	0	32.9420	0	25.350	0	38.385	0	264.3	4	94.8	4	-1E+10	1	-1E+10	1	-1E+10	1	-1E+10	1	-1E+10	1	-1E+10	1
4901784	56	C	01/15/2017	10:46	-132.441	44.341	0	40.60	0	9.9980	0	32.9470	0	25.351	0	40.269	0	264.2	4	94.8	4	-1E+10	1	-1E+10	1	-1E+10	1	-1E+10	1	-1E+10	1	-1E+10	1
4901784	56	C	01/15/2017	10:46	-132.441	44.341	0	42.50	0	10.0170	0	32.9510	0	25.351	0	42.153	0	263.9	4	94.7	4	-1E+10	1	-1E+10	1	-1E+10	1	-1E+10	1	-1E+10	1	-1E+10	1
4901784	56	C	01/15/2017	10:46	-132.441	44.341	0	44.30	0	10.0200	0	32.9530	0	25.352	0	43.938	0	263.9	4	94.7	4	-1E+10	1	-1E+10	1	-1E+10	1	-1E+10	1	-1E+10	1	-1E+10	1
4901784	56	C	01/15/2017	10:46	-132.441	44.341	0	46.20	0	10.0290	0	32.9550	0	25.352	0	45.823	0	263.9	4	94.8	4	-1E+10	1	-1E+10	1	-1E+10	1	-1E+10	1	-1E+10	1	-1E+10	1
4901784	56	C	01/15/2017	10:46	-132.441	44.341	0	48.10	0	10.0320	0	32.9560	0	25.352	0	47.707	0	263.6	4	94.7	4	-1E+10	1	-1E+10	1	-1E+10	1	-1E+10	1	-1E+10	1	-1E+10	1
4901784	56	C	01/15/2017	10:46	-132.441	44.341	0	50.00	0	10.0340	0	32.9570	0	25.353	0	49.591	0	263.5	4	94.6	4	-1E+10	1	-1E+10	1	-1E+10	1	-1E+10	1	-1E+10	1	-1E+10	1
4901784	56	C	01/15/2017	10:46	-132.441	44.341	0	51.80	0	10.0320	0	32.9580	0	25.354	0	51.376	0	263.6	4	94.7	4	-1E+10	1	-1E+10	1	-1E+10	1	-1E+10	1	-1E+10	1	-1E+10	1
4901784	56	C	01/15/2017	10:46	-132.441	44.341	0	53.70	0	10.0310	0	32.9570	0	25.353	0	53.260	0	263.5	4	94.6	4	-1E+10	1	-1E+10	1	-1E+10	1	-1E+10	1	-1E+10	1	-1E+10	1
4901784	56	C	01/15/2017	10:46	-132.441	44.341	0	55.60	0	10.0280	0	32.9570	0	25.354	0	55.145	0	263.5	4	94.6	4	-1E+10	1	-1E+10	1	-1E+10	1	-1E+10	1	-1E+10	1	-1E+10	1
4901784	56	C	01/15/2017	10:46	-132.441	44.341	0	57.50	0	10.0260	0	32.9570	0	25.354	0	57.029	0	263.3	4	94.5	4	-1E+10	1	-1E+10	1	-1E+10	1	-1E+10	1	-1E+10	1	-1E+10	1
4901784	56	C	01/15/2017	10:46	-132.441	44.341	0	59.30	0	10.0270	0	32.9560	0	25.353	0	58.814	0	263.3	4	94.5	4	-1E+10	1	-1E+10	1	-1E+10	1	-1E+10	1	-1E+10	1	-1E+10	1
4901784	56	C	01/15/2017	10:46	-132.441	44.341	0	61.20	0	10.0300	0	32.9580	0	25.354	0	60.698	0	263.1	4	94.5	4	-1E+10	1	-1E+10	1	-1E+10	1	-1E+10	1	-1E+10	1	-1E+10	1
4901784	56	C	01/15/2017	10:46	-132.441	44.341	0	63.10	0	10.0280	0	32.9570	0	25.354	0	62.582	0	263.0	4	94.4	4	-1E+10	1	-1E+10	1	-1E+10	1	-1E+10	1	-1E+10	1	-1E+10	1
4901784	56	C	01/15/2017	10:46	-132.441	44.341	0	65.00	0	10.0350	0	32.9590	0	25.354	0	64.466	0	262.9	4	94.4	4	-1E+10	1	-1E+10	1	-1E+10	1	-1E+10	1	-1E+10	1	-1E+10	1
4901784	56	C	01/15/2017	10:46	-132.441	44.341	0	66.80	0	10.0380	0	32.9600	0	25.355	0	66.251	0	262.9	4	94.4	4	-1E+10	1	-1E+10	1	-1E+10	1	-1E+10	1	-1E+10	1	-1E+10	1
4901784	56	C	01/15/2017	10:46	-132.441	44.341	0	68.70	0	10.0370	0	32.9600	0	25.355	0	68.135	0	262.7	4	94.3	4	-1E+10	1	-1E+10	1	-1E+10	1	-1E+10	1	-1E+10	1	-1E+10	1
4901784	56	C	01/15/2017	10:46	-132.441	44.341	0	70.60	0	10.0360	0	32.9600	0	25.355	0	70.019	0	262.5	4	94.3	4	-1E+10	1	-1E+10	1	-1E+10	1	-1E+10	1	-1E+10	1	-1E+10	1
4901784	56	C	01/15/2017	10:46	-132.441	44.341	0	72.50	0	10.0360	0	32.9600	0	25.355	0	71.903	0	262.4	4	94.2	4	-1E+10	1	-1E+10	1	-1E+10	1	-1E+10	1	-1E+10	1	-1E+10	1
4901784	56	C	01/15/2017	10:46	-132.441	44.341	0	74.40	0	10.0330	0	32.9600	0	25.356	0	73.787	0	262.3	4	94.2	4	-1E+10	1	-1E+10	1	-1E+10	1	-1E+10	1	-1E+10	1	-1E+10	1
4901784	56	C	01/15/2017	10:46	-132.441	44.341	0	76.30	0	10.0290	0	32.9590	0	25.356	0	75.671	0	262.1	4	94.1	4	-1E+10	1	-1E+10	1	-1E+10	1	-1E+10	1	-1E+10	1	-1E+10	1
4901784	56	C	01/15/2017	10:46	-132.441	44.341	0	78.20	0	10.0120	0	32.9570	0	25.357	0	77.555	0	262.1	4	94.1	4	-1E+10	1	-1E+10	1	-1E+10	1	-1E+10	1	-1E+10	1	-1E+10	1
4901784	56	C	01/15/2017	10:46	-132.441	44.341	0	80.00	0	10.0040	0	32.9560	0	25.357	0	79.340	0	261.9	4	94.0	4	-1E+10	1	-1E+10	1	-1E+10	1	-1E+10	1	-1E+10	1	-1E+10	1
4901784	56	C	01/15/2017	10:46	-132.441	44.341	0	82.10	0	9.9980	0	32.9540	0	25.357	0	81.422	0	261.2	4	93.7	4	-1E+10	1	-1E+10	1	-1E+10	1	-1E+10	1	-1E+10	1	-1E+10	1
4901784	56	C	01/15/2017	10:46	-132.441	44.341	0	82.60	0	9.9980	0	32.9540	0	25.357	0	81.918	0	260.9	4	93.6	4	-1E+10	1	-1E+10	1	-1E+10	1	-1E+10	1	-1E+10	1	-1E+10	1
4901784	56	C	01/15/2017	10:46	-132.441	44.341	0	84.20	0	9.9960	0	32.9540	0	25.357	0	83.505	0	260.3	4	93.4	4	-1E+10	1	-1E+10	1	-1E+10	1	-1E+10	1	-1E+10	1	-1E+10	1
4901784	56	C	01/15/2017	10:46	-132.441	44.341	0	85.80	0	9.9960	0	32.9540	0	25.357	0	85.091	0	259.2	4	93.0	4	-1E+10	1	-1E+10	1	-1E+10	1	-1E+10	1	-1E+10	1	-1E+10	1
4901784	56	C	01/15/2017	10:46	-132.441	44.341	0	87.40	0	9.9920	0	32.9540	0	25.358	0	86.677	0	257.8	4	92.5	4	-1E+10	1	-1E+10	1	-1E+10	1	-1E+10	1	-1E+10	1	-1E+10	1
4901784	56	C	01/15/2017	10:46	-132.441	44.341	0	88.90	0	9.9830	0	32.9560	0	25.361	0	88.165	0	256.2	4	91.9	4	-1E+10	1	-1E+10	1	-1E+10	1	-1E+10	1	-1E+10	1	-1E+10	1
4901784	56	C	01/15/2017	10:46	-132.441	44.341	0	90.40	0	9.9880	0	32.9580	0	25.362	0	89.652	0	253.7	4	91.0	4	-1E+10	1	-1E+10	1	-1E+10	1	-1E+10	1	-1E+10	1	-1E+10	1
4901784	56	C	01/15/2017	10:46	-132.441	44.341	0	91.90	0	9.9730	0	32.9640	0	25.369	0	91.139	0	250.8	4	89.9	4	-1E+10	1	-1E+10	1	-1E+10	1	-1E+10	1	-1E+10	1	-1E+10	1
4901784	56	C	01/15/2017	10:46	-132.441	44.341	0	93.50	0	9.8770	0	32.9940	0	25.408	0	92.726	0	247.6	4	88.6	4	-1E+10	1	-1E+10	1	-1E+10	1	-1E+10	1	-1E+10	1	-1E+10	1
4901784	56	C	01/15/2017	10:46	-132.441	44.341	0	95.00	0	9.8500	0	33.0000	0	25.418	0	94.213	0	244.4	4	87.4	4	-1E+10	1	-1E+10	1	-1E+10	1	-1E+10	1	-1E+10	1	-1E+10	1
4901784	56	C	01/15/2017	10:46	-132.441	44.341	0	96.50	0	9.7260	0	33.0670	0	25.490	0	95.700	0	240.4	4	85.8	4	-1E+10	1	-1E+10	1	-1E+10	1	-1E+10	1	-1E+10	1	-1E+10	1
4901784	56	C	01/15/2017	10:46	-132.441	44.341	0	98.10	0	9.6380	0	33.1140	0	25.541	0	97.286	0	237.7	4	84.7	4	-1E+10	1	-1E+10	1	-1E+10	1	-1E+10	1	-1E+10	1	-1E+10	1
4901784	56	C	01/15/2017	10:46	-132.441	44.341	0	99.70	0	9.5510	0	33.1500	0	25.584	0	98.873	0	235.8	4	83.9	4	-1E+10	1	-1E+10	1	-1E+10	1	-1E+10	1	-1E+10	1	-1E+10	1
4901784	56	C	01/15/2017	10:46	-132.441	44.341	0	102.20	0	9.4390	0	33.1790	0	25.625	0	101.351	0	233.7	4	83.0	4	-1E+10	1	-1E+10	1	-1E+10	1	-1E+10	1	-1E+10	1	-1E+10	1
4901784	56	C	01/15/2017	10:46	-132.441	44.341	0	105.40	0	9.1630	0	33.1850	0	25.673	0	104.524	0	231.6	4	81.7	4	-1E+10	1	-1E+10	1	-1E+10	1	-1E+10	1	-1E+10	1	-1E+10	1
4901784	56	C	01/15/2017	10:46	-132.441	44.341	0	107.90	0	9.0300	0	33.1970	0	25.704	0	107.003	0	230.2	4	81.0	4	-1E+10	1	-1E+10	1	-1E+10	1	-1E+10	1	-1E+10	1	-1E+10	1
4901784	56	C	01/15/2017	10:46	-132.441	44.341	0	110.30	0	9.0270	0	33.2030	0	25.709	0	109.382	0	227.8	4	80.2	4	-1E+10	1	-1E+10	1	-1E+10	1	-1E+10	1	-1E+10	1	-1E+10	1
4901784	56	C	01/15/2017	10:46	-132.441	44.341	0	112.80	0	8.9980	0	33.2280	0	25.733	0	111.861	0	224.3	4	78.9	4	-1E+10	1	-1E+10	1	-1E+10	1	-1E+10	1	-1E+10	1	-1E+10	1
4901784	56	C	01/15/2017	10:46	-132.441	44.341	0	115.30	0	8.9790	0	33.2580	0	25.760	0	114.339	0	220.7	4	77.6	4	-1E+10	1	-1E+10	1	-1E+10	1	-1E+10	1	-1E+10	1	-1E+10	1
4901784	56	C	01/15/2017	10:46	-132.441	44.341	0	117.90	0	8.9540	0	33.3180	0	25.811	0	116.917	0	216.8	4	76.2	4	-1E+10	1	-1E+10	1	-1E+10	1	-1E+10	1	-1E+10	1	-1E+10	1
4901784	56	C	01/15/2017	10:46	-132.441	44.341	0	119.60	0	8.9420	0	33.3540	0	25.841	0	118.602	0	214.6	4	75.5	4	-1E+10	1	-1E+10	1	-1E+10	1	-1E+10	1	-1E+10	1	-1E+10	1
4901784	56	C	01/15/2017	10:46	-132.441	44.341	0	122.40	0	8.9360	0	33.4270	0	25.899	0	121.378	0	211.5	4	74.4	4	-1E+10	1	-1E+10	1	-1E+10	1	-1E+10	1	-1E+10	1	-1E+10	1
4901784	56	C	01/15/2017	10:46	-132.441	44.341	0	125.20	0	8.9320	0	33.4640	0	25.929	0	124.154	0	209.3	4	73.6	4	-1E+10	1	-1E+10	1	-1E+10	1	-1E+10	1	-1E+10	1	-1E+10	1
4901784	56	C	01/15/2017	10:46	-132.441	44.341	0	127.40	0	8.9270	0	33.4900	0	25.950	0	126.335	0	207.2	4	72.9	4	-1E+10	1	-1E+10	1	-1E+10	1	-1E+10	1	-1E+10	1	-1E+10	1
4901784	56	C	01/15/2017	10:46	-132.441	44.341	0	130.40	0	8.9240	0	33.5200	0	25.974	0	129.309	0	204.3	4	71.9	4	-1E+10	1	-1E+10	1	-1E+10	1	-1E+10	1	-1E+10	1	-1E+10	1
4901784	56	C	01/15/2017	10:46	-132.441	44.341	0	132.70	0	8.8990	0	33.5650	0	26.013	0	131.589	0	202.1	4	71.1	4	-1E+10	1	-1E+10	1	-1E+10	1	-1E+10	1	-1E+10	1	-1E+10	1
4901784	56	C	01/15/2017	10:46	-132.441	44.341	0	135.10	0	8.8760	0	33.5920	0	26.038	0	133.968	0	200.3	4	70.4	4	-1E+10	1	-1E+10	1	-1E+10	1	-1E+10	1	-1E+10	1	-1E+10	1
4901784	56	C	01/15/2017	10:46	-132.441	44.341	0	137.60	0	8.8300	0	33.6310	0	26.075	0	136.446	0	198.5	4	69.8	4	-1E+10	1	-1E+10	1	-1E+10	1	-1E+10	1	-1E+10	1	-1E+10	1
4901784	56	C	01/15/2017	10:46	-132.441	44.341	0	140.10	0	8.8110	0	33.6660	0	26.106	0	138.924	0	196.9	4	69.2	4	-1E+10	1	-1E+10	1	-1E+10	1	-1E+10	1	-1E+10	1	-1E+10	1
4901784	56	C	01/15/2017	10:46	-132.441	44.341	0	142.70	0	8.8130	0	33.6860	0	26.121	0	141.501	0	195.0	4	68.6	4	-1E+10	1	-1E+10	1	-1E+10	1	-1E+10	1	-1E+10	1	-1E+10	1
4901784	56	C	01/15/2017	10:46	-132.441	44.341	0	144.50	0	8.7880	0	33.7300	0	26.160	0	143.286	0	193.8	4	68.1	4	-1E+10	1	-1E+10	1	-1E+10	1	-1E+10	1	-1E+10	1	-1E+10	1
4901784	56	C	01/15/2017	10:46	-132.441	44.341	0	147.20	0	8.7520	0	33.7580	0	26.187	0	145.962	0	192.8	4	67.7	4	-1E+10	1	-1E+10	1	-1E+10	1	-1E+10	1	-1E+10	1	-1E+10	1
4901784	56	C	01/15/2017	10:46	-132.441	44.341	0	149.80	0	8.7010	0	33.7890	0	26.219	0	148.539	0	191.6	4	67.2	4	-1E+10	1	-1E+10	1	-1E+10	1	-1E+10	1	-1E+10	1	-1E+10	1
4901784	56	C	01/15/2017	10:46	-132.441	44.341	0	152.60	0	8.6790	0	33.8090	0	26.239	0	151.315	0	190.6	4	66.9	4	-1E+10	1	-1E+10	1	-1E+10	1	-1E+10	1	-1E+10	1	-1E+10	1
4901784	56	C	01/15/2017	10:46	-132.441	44.341	0	155.30	0	8.6440	0	33.8250	0	26.257	0	153.991	0	189.6	4	66.5	4	-1E+10	1	-1E+10	1	-1E+10	1	-1E+10	1	-1E+10	1	-1E+10	1
4901784	56	C	01/15/2017	10:46	-132.441	44.341	0	157.10	0	8.6220	0	33.8440	0	26.275	0	155.775	0	188.8	4	66.2	4	-1E+10	1	-1E+10	1	-1E+10	1	-1E+10	1	-1E+10	1	-1E+10	1
4901784	56	C	01/15/2017	10:46	-132.441	44.341	0	159.80	0	8.5760	0	33.8620	0	26.296	0	158.451	0	188.1	4	65.9	4	-1E+10	1	-1E+10	1	-1E+10	1	-1E+10	1	-1E+10	1	-1E+10	1
4901784	56	C	01/15/2017	10:46	-132.441	44.341	0	162.50	0	8.5230	0	33.8710	0	26.311	0	161.127	0	187.4	4	65.5	4	-1E+10	1	-1E+10	1	-1E+10	1	-1E+10	1	-1E+10	1	-1E+10	1
4901784	56	C	01/15/2017	10:46	-132.441	44.341	0	165.20	0	8.4860	0	33.8860	0	26.329	0	163.803	0	186.8	4	65.3	4	-1E+10	1	-1E+10	1	-1E+10	1	-1E+10	1	-1E+10	1	-1E+10	1
4901784	56	C	01/15/2017	10:46	-132.441	44.341	0	168.00	0	8.4640	0	33.8960	0	26.340	0	166.579	0	186.2	4	65.1	4	-1E+10	1	-1E+10	1	-1E+10	1	-1E+10	1	-1E+10	1	-1E+10	1
4901784	56	C	01/15/2017	10:46	-132.441	44.341	0	169.80	0	8.4420	0	33.9010	0	26.347	0	168.363	0	185.8	4	64.9	4	-1E+10	1	-1E+10	1	-1E+10	1	-1E+10	1	-1E+10	1	-1E+10	1
4901784	56	C	01/15/2017	10:46	-132.441	44.341	0	172.60	0	8.4350	0	33.9030	0	26.350	0	171.138	0	185.1	4	64.6	4	-1E+10	1	-1E+10	1	-1E+10	1	-1E+10	1	-1E+10	1	-1E+10	1
4901784	56	C	01/15/2017	10:46	-132.441	44.341	0	175.40	0	8.3910	0	33.9070	0	26.360	0	173.913	0	184.4	4	64.3	4	-1E+10	1	-1E+10	1	-1E+10	1	-1E+10	1	-1E+10	1	-1E+10	1
4901784	56	C	01/15/2017	10:46	-132.441	44.341	0	177.20	0	8.3750	0	33.9080	0	26.363	0	175.697	0	183.8	4	64.1	4	-1E+10	1	-1E+10	1	-1E+10	1	-1E+10	1	-1E+10	1	-1E+10	1
4901784	56	C	01/15/2017	10:46	-132.441	44.341	0	179.90	0	8.3580	0	33.9210	0	26.376	0	178.373	0	182.7	4	63.7	4	-1E+10	1	-1E+10	1	-1E+10	1	-1E+10	1	-1E+10	1	-1E+10	1
4901784	56	C	01/15/2017	10:46	-132.441	44.341	0	182.70	0	8.3120	0	33.9270	0	26.388	0	181.148	0	181.5	4	63.2	4	-1E+10	1	-1E+10	1	-1E+10	1	-1E+10	1	-1E+10	1	-1E+10	1
4901784	56	C	01/15/2017	10:46	-132.441	44.341	0	184.60	0	8.2710	0	33.9300	0	26.396	0	183.031	0	180.8	4	62.9	4	-1E+10	1	-1E+10	1	-1E+10	1	-1E+10	1	-1E+10	1	-1E+10	1
4901784	56	C	01/15/2017	10:46	-132.441	44.341	0	187.40	0	8.2370	0	33.9310	0	26.402	0	185.806	0	179.6	4	62.4	4	-1E+10	1	-1E+10	1	-1E+10	1	-1E+10	1	-1E+10	1	-1E+10	1
4901784	56	C	01/15/2017	10:46	-132.441	44.341	0	190.30	0	8.1970	0	33.9340	0	26.410	0	188.680	0	178.4	4	62.0	4	-1E+10	1	-1E+10	1	-1E+10	1	-1E+10	1	-1E+10	1	-1E+10	1
4901784	56	C	01/15/2017	10:46	-132.441	44.341	0	192.20	0	8.1540	0	33.9390	0	26.421	0	190.563	0	177.5	4	61.6	4	-1E+10	1	-1E+10	1	-1E+10	1	-1E+10	1	-1E+10	1	-1E+10	1
4901784	56	C	01/15/2017	10:46	-132.441	44.341	0	195.00	0	8.1210	0	33.9400	0	26.427	0	193.338	0	176.4	4	61.2	4	-1E+10	1	-1E+10	1	-1E+10	1	-1E+10	1	-1E+10	1	-1E+10	1
4901784	56	C	01/15/2017	10:46	-132.441	44.341	0	197.80	0	8.1020	0	33.9410	0	26.430	0	196.112	0	175.3	4	60.8	4	-1E+10	1	-1E+10	1	-1E+10	1	-1E+10	1	-1E+10	1	-1E+10	1
4901784	56	C	01/15/2017	10:46	-132.441	44.341	0	199.70	0	8.0730	0	33.9440	0	26.437	0	197.995	0	174.4	4	60.4	4	-1E+10	1	-1E+10	1	-1E+10	1	-1E+10	1	-1E+10	1	-1E+10	1
4901784	56	C	01/15/2017	10:46	-132.441	44.341	0	202.60	0	8.0480	0	33.9460	0	26.442	0	200.869	0	173.1	4	59.9	4	-1E+10	1	-1E+10	1	-1E+10	1	-1E+10	1	-1E+10	1	-1E+10	1
4901784	56	C	01/15/2017	10:46	-132.441	44.341	0	205.40	0	7.9780	0	33.9490	0	26.455	0	203.644	0	172.0	4	59.5	4	-1E+10	1	-1E+10	1	-1E+10	1	-1E+10	1	-1E+10	1	-1E+10	1
4901784	56	C	01/15/2017	10:46	-132.441	44.341	0	207.80	0	7.9110	0	33.9510	0	26.466	0	206.022	0	171.2	4	59.1	4	-1E+10	1	-1E+10	1	-1E+10	1	-1E+10	1	-1E+10	1	-1E+10	1
4901784	56	C	01/15/2017	10:46	-132.441	44.341	0	209.70	0	7.8870	0	33.9520	0	26.471	0	207.905	0	170.5	4	58.8	4	-1E+10	1	-1E+10	1	-1E+10	1	-1E+10	1	-1E+10	1	-1E+10	1
4901784	56	C	01/15/2017	10:46	-132.441	44.341	0	212.10	0	7.8410	0	33.9570	0	26.481	0	210.283	0	169.2	4	58.3	4	-1E+10	1	-1E+10	1	-1E+10	1	-1E+10	1	-1E+10	1	-1E+10	1
4901784	56	C	01/15/2017	10:46	-132.441	44.341	0	215.30	0	7.7690	0	33.9610	0	26.495	0	213.454	0	168.1	4	57.8	4	-1E+10	1	-1E+10	1	-1E+10	1	-1E+10	1	-1E+10	1	-1E+10	1
4901784	56	C	01/15/2017	10:46	-132.441	44.341	0	217.70	0	7.7520	0	33.9620	0	26.498	0	215.832	0	167.3	4	57.6	4	-1E+10	1	-1E+10	1	-1E+10	1	-1E+10	1	-1E+10	1	-1E+10	1
4901784	56	C	01/15/2017	10:46	-132.441	44.341	0	220.20	0	7.7210	0	33.9650	0	26.505	0	218.309	0	165.8	4	57.0	4	-1E+10	1	-1E+10	1	-1E+10	1	-1E+10	1	-1E+10	1	-1E+10	1
4901784	56	C	01/15/2017	10:46	-132.441	44.341	0	222.60	0	7.6600	0	33.9620	0	26.512	0	220.688	0	164.1	4	56.3	4	-1E+10	1	-1E+10	1	-1E+10	1	-1E+10	1	-1E+10	1	-1E+10	1
4901784	56	C	01/15/2017	10:46	-132.441	44.341	0	225.00	0	7.6020	0	33.9610	0	26.519	0	223.066	0	162.5	4	55.7	4	-1E+10	1	-1E+10	1	-1E+10	1	-1E+10	1	-1E+10	1	-1E+10	1
4901784	56	C	01/15/2017	10:46	-132.441	44.341	0	227.50	0	7.5360	0	33.9640	0	26.531	0	225.543	0	161.7	4	55.4	4	-1E+10	1	-1E+10	1	-1E+10	1	-1E+10	1	-1E+10	1	-1E+10	1
4901784	56	C	01/15/2017	10:46	-132.441	44.341	0	229.90	0	7.4950	0	33.9650	0	26.538	0	227.921	0	160.9	4	55.0	4	-1E+10	1	-1E+10	1	-1E+10	1	-1E+10	1	-1E+10	1	-1E+10	1
4901784	56	C	01/15/2017	10:46	-132.441	44.341	0	232.30	0	7.4350	0	33.9640	0	26.545	0	230.299	0	159.8	4	54.6	4	-1E+10	1	-1E+10	1	-1E+10	1	-1E+10	1	-1E+10	1	-1E+10	1
4901784	56	C	01/15/2017	10:46	-132.441	44.341	0	234.80	0	7.3800	0	33.9650	0	26.554	0	232.776	0	158.3	4	54.0	4	-1E+10	1	-1E+10	1	-1E+10	1	-1E+10	1	-1E+10	1	-1E+10	1
4901784	56	C	01/15/2017	10:46	-132.441	44.341	0	237.20	0	7.3350	0	33.9630	0	26.559	0	235.154	0	156.5	4	53.3	4	-1E+10	1	-1E+10	1	-1E+10	1	-1E+10	1	-1E+10	1	-1E+10	1
4901784	56	C	01/15/2017	10:46	-132.441	44.341	0	239.70	0	7.2500	0	33.9640	0	26.571	0	237.631	0	154.9	4	52.7	4	-1E+10	1	-1E+10	1	-1E+10	1	-1E+10	1	-1E+10	1	-1E+10	1
4901784	56	C	01/15/2017	10:46	-132.441	44.341	0	242.10	0	7.1900	0	33.9630	0	26.579	0	240.009	0	153.4	4	52.1	4	-1E+10	1	-1E+10	1	-1E+10	1	-1E+10	1	-1E+10	1	-1E+10	1
4901784	56	C	01/15/2017	10:46	-132.441	44.341	0	244.60	0	7.1510	0	33.9620	0	26.584	0	242.486	0	151.8	4	51.5	4	-1E+10	1	-1E+10	1	-1E+10	1	-1E+10	1	-1E+10	1	-1E+10	1
4901784	56	C	01/15/2017	10:46	-132.441	44.341	0	247.90	0	7.0730	0	33.9610	0	26.594	0	245.755	0	149.7	4	50.7	4	-1E+10	1	-1E+10	1	-1E+10	1	-1E+10	1	-1E+10	1	-1E+10	1
4901784	56	C	01/15/2017	10:46	-132.441	44.341	0	250.40	0	7.0380	0	33.9600	0	26.598	0	248.232	0	148.0	4	50.1	4	-1E+10	1	-1E+10	1	-1E+10	1	-1E+10	1	-1E+10	1	-1E+10	1
4901784	56	C	01/15/2017	10:46	-132.441	44.341	0	252.80	0	6.9710	0	33.9600	0	26.607	0	250.610	0	146.0	4	49.4	4	-1E+10	1	-1E+10	1	-1E+10	1	-1E+10	1	-1E+10	1	-1E+10	1
4901784	56	C	01/15/2017	10:46	-132.441	44.341	0	255.20	0	6.9180	0	33.9600	0	26.614	0	252.988	0	144.4	4	48.8	4	-1E+10	1	-1E+10	1	-1E+10	1	-1E+10	1	-1E+10	1	-1E+10	1
4901784	56	C	01/15/2017	10:46	-132.441	44.341	0	257.80	0	6.8640	0	33.9610	0	26.622	0	255.563	0	142.9	4	48.2	4	-1E+10	1	-1E+10	1	-1E+10	1	-1E+10	1	-1E+10	1	-1E+10	1
4901784	56	C	01/15/2017	10:46	-132.441	44.341	0	260.20	0	6.8320	0	33.9590	0	26.625	0	257.941	0	141.7	4	47.7	4	-1E+10	1	-1E+10	1	-1E+10	1	-1E+10	1	-1E+10	1	-1E+10	1
4901784	56	C	01/15/2017	10:46	-132.441	44.341	0	262.80	0	6.7970	0	33.9600	0	26.631	0	260.517	0	140.3	4	47.2	4	-1E+10	1	-1E+10	1	-1E+10	1	-1E+10	1	-1E+10	1	-1E+10	1
4901784	56	C	01/15/2017	10:46	-132.441	44.341	0	265.30	0	6.7630	0	33.9610	0	26.636	0	262.994	0	138.8	4	46.7	4	-1E+10	1	-1E+10	1	-1E+10	1	-1E+10	1	-1E+10	1	-1E+10	1
4901784	56	C	01/15/2017	10:46	-132.441	44.341	0	267.80	0	6.7230	0	33.9600	0	26.640	0	265.470	0	137.3	4	46.1	4	-1E+10	1	-1E+10	1	-1E+10	1	-1E+10	1	-1E+10	1	-1E+10	1
4901784	56	C	01/15/2017	10:46	-132.441	44.341	0	270.30	0	6.6920	0	33.9600	0	26.645	0	267.947	0	136.2	4	45.7	4	-1E+10	1	-1E+10	1	-1E+10	1	-1E+10	1	-1E+10	1	-1E+10	1
4901784	56	C	01/15/2017	10:46	-132.441	44.341	0	272.90	0	6.6690	0	33.9600	0	26.648	0	270.523	0	134.7	4	45.2	4	-1E+10	1	-1E+10	1	-1E+10	1	-1E+10	1	-1E+10	1	-1E+10	1
4901784	56	C	01/15/2017	10:46	-132.441	44.341	0	275.40	0	6.6520	0	33.9590	0	26.649	0	272.999	0	133.0	4	44.6	4	-1E+10	1	-1E+10	1	-1E+10	1	-1E+10	1	-1E+10	1	-1E+10	1
4901784	56	C	01/15/2017	10:46	-132.441	44.341	0	277.20	0	6.6180	0	33.9580	0	26.653	0	274.782	0	131.6	4	44.1	4	-1E+10	1	-1E+10	1	-1E+10	1	-1E+10	1	-1E+10	1	-1E+10	1
4901784	56	C	01/15/2017	10:46	-132.441	44.341	0	279.70	0	6.5370	0	33.9610	0	26.666	0	277.259	0	129.8	4	43.4	4	-1E+10	1	-1E+10	1	-1E+10	1	-1E+10	1	-1E+10	1	-1E+10	1
4901784	56	C	01/15/2017	10:46	-132.441	44.341	0	282.30	0	6.4970	0	33.9620	0	26.672	0	279.834	0	128.3	4	42.9	4	-1E+10	1	-1E+10	1	-1E+10	1	-1E+10	1	-1E+10	1	-1E+10	1
4901784	56	C	01/15/2017	10:46	-132.441	44.341	0	284.90	0	6.4640	0	33.9630	0	26.677	0	282.410	0	127.1	4	42.4	4	-1E+10	1	-1E+10	1	-1E+10	1	-1E+10	1	-1E+10	1	-1E+10	1
4901784	56	C	01/15/2017	10:46	-132.441	44.341	0	287.50	0	6.4490	0	33.9620	0	26.678	0	284.985	0	125.8	4	42.0	4	-1E+10	1	-1E+10	1	-1E+10	1	-1E+10	1	-1E+10	1	-1E+10	1
4901784	56	C	01/15/2017	10:46	-132.441	44.341	0	290.10	0	6.4270	0	33.9610	0	26.680	0	287.561	0	123.9	4	41.4	4	-1E+10	1	-1E+10	1	-1E+10	1	-1E+10	1	-1E+10	1	-1E+10	1
4901784	56	C	01/15/2017	10:46	-132.441	44.341	0	292.70	0	6.3560	0	33.9640	0	26.692	0	290.136	0	121.9	4	40.6	4	-1E+10	1	-1E+10	1	-1E+10	1	-1E+10	1	-1E+10	1	-1E+10	1
4901784	56	C	01/15/2017	10:46	-132.441	44.341	0	294.50	0	6.3220	0	33.9660	0	26.698	0	291.919	0	120.6	4	40.1	4	-1E+10	1	-1E+10	1	-1E+10	1	-1E+10	1	-1E+10	1	-1E+10	1
4901784	56	C	01/15/2017	10:46	-132.441	44.341	0	297.10	0	6.2630	0	33.9640	0	26.704	0	294.495	0	118.9	4	39.5	4	-1E+10	1	-1E+10	1	-1E+10	1	-1E+10	1	-1E+10	1	-1E+10	1
4901784	56	C	01/15/2017	10:46	-132.441	44.341	0	299.80	0	6.2330	0	33.9650	0	26.709	0	297.169	0	117.3	4	39.0	4	-1E+10	1	-1E+10	1	-1E+10	1	-1E+10	1	-1E+10	1	-1E+10	1
4901784	56	C	01/15/2017	10:46	-132.441	44.341	0	302.40	0	6.2220	0	33.9670	0	26.712	0	299.744	0	115.4	4	38.3	4	-1E+10	1	-1E+10	1	-1E+10	1	-1E+10	1	-1E+10	1	-1E+10	1
4901784	56	C	01/15/2017	10:46	-132.441	44.341	0	305.20	0	6.1770	0	33.9670	0	26.717	0	302.518	0	113.4	4	37.6	4	-1E+10	1	-1E+10	1	-1E+10	1	-1E+10	1	-1E+10	1	-1E+10	1
4901784	56	C	01/15/2017	10:46	-132.441	44.341	0	307.80	0	6.1080	0	33.9680	0	26.727	0	305.093	0	111.6	4	37.0	4	-1E+10	1	-1E+10	1	-1E+10	1	-1E+10	1	-1E+10	1	-1E+10	1
4901784	56	C	01/15/2017	10:46	-132.441	44.341	0	310.50	0	6.0750	0	33.9690	0	26.732	0	307.767	0	110.0	4	36.4	4	-1E+10	1	-1E+10	1	-1E+10	1	-1E+10	1	-1E+10	1	-1E+10	1
4901784	56	C	01/15/2017	10:46	-132.441	44.341	0	312.30	0	6.0470	0	33.9690	0	26.736	0	309.550	0	109.1	4	36.1	4	-1E+10	1	-1E+10	1	-1E+10	1	-1E+10	1	-1E+10	1	-1E+10	1
4901784	56	C	01/15/2017	10:46	-132.441	44.341	0	315.10	0	6.0230	0	33.9690	0	26.739	0	312.323	0	107.4	4	35.5	4	-1E+10	1	-1E+10	1	-1E+10	1	-1E+10	1	-1E+10	1	-1E+10	1
4901784	56	C	01/15/2017	10:46	-132.441	44.341	0	317.90	0	5.9780	0	33.9710	0	26.746	0	315.096	0	105.8	4	34.9	4	-1E+10	1	-1E+10	1	-1E+10	1	-1E+10	1	-1E+10	1	-1E+10	1
4901784	56	C	01/15/2017	10:46	-132.441	44.341	0	319.60	0	5.9460	0	33.9710	0	26.750	0	316.780	0	104.9	4	34.6	4	-1E+10	1	-1E+10	1	-1E+10	1	-1E+10	1	-1E+10	1	-1E+10	1
4901784	56	C	01/15/2017	10:46	-132.441	44.341	0	322.40	0	5.9070	0	33.9720	0	26.756	0	319.553	0	103.6	4	34.2	4	-1E+10	1	-1E+10	1	-1E+10	1	-1E+10	1	-1E+10	1	-1E+10	1
4901784	56	C	01/15/2017	10:46	-132.441	44.341	0	325.20	0	5.8700	0	33.9720	0	26.760	0	322.326	0	102.5	4	33.8	4	-1E+10	1	-1E+10	1	-1E+10	1	-1E+10	1	-1E+10	1	-1E+10	1
4901784	56	C	01/15/2017	10:46	-132.441	44.341	0	327.20	0	5.8550	0	33.9730	0	26.763	0	324.307	0	101.9	4	33.6	4	-1E+10	1	-1E+10	1	-1E+10	1	-1E+10	1	-1E+10	1	-1E+10	1
4901784	56	C	01/15/2017	10:46	-132.441	44.341	0	329.90	0	5.8370	0	33.9730	0	26.765	0	326.981	0	100.8	4	33.2	4	-1E+10	1	-1E+10	1	-1E+10	1	-1E+10	1	-1E+10	1	-1E+10	1
4901784	56	C	01/15/2017	10:46	-132.441	44.341	0	332.70	0	5.8190	0	33.9720	0	26.767	0	329.754	0	99.4	4	32.7	4	-1E+10	1	-1E+10	1	-1E+10	1	-1E+10	1	-1E+10	1	-1E+10	1
4901784	56	C	01/15/2017	10:46	-132.441	44.341	0	334.60	0	5.7910	0	33.9730	0	26.771	0	331.636	0	98.2	4	32.3	4	-1E+10	1	-1E+10	1	-1E+10	1	-1E+10	1	-1E+10	1	-1E+10	1
4901784	56	C	01/15/2017	10:46	-132.441	44.341	0	337.40	0	5.7360	0	33.9740	0	26.778	0	334.409	0	97.0	4	31.9	4	-1E+10	1	-1E+10	1	-1E+10	1	-1E+10	1	-1E+10	1	-1E+10	1
4901784	56	C	01/15/2017	10:46	-132.441	44.341	0	340.30	0	5.6810	0	33.9730	0	26.784	0	337.280	0	95.6	4	31.4	4	-1E+10	1	-1E+10	1	-1E+10	1	-1E+10	1	-1E+10	1	-1E+10	1
4901784	56	C	01/15/2017	10:46	-132.441	44.341	0	342.20	0	5.6540	0	33.9740	0	26.788	0	339.162	0	94.7	4	31.1	4	-1E+10	1	-1E+10	1	-1E+10	1	-1E+10	1	-1E+10	1	-1E+10	1
4901784	56	C	01/15/2017	10:46	-132.441	44.341	0	345.10	0	5.6150	0	33.9780	0	26.796	0	342.034	0	94.0	4	30.8	4	-1E+10	1	-1E+10	1	-1E+10	1	-1E+10	1	-1E+10	1	-1E+10	1
4901784	56	C	01/15/2017	10:46	-132.441	44.341	0	348.00	0	5.5990	0	33.9780	0	26.798	0	344.906	0	93.4	4	30.6	4	-1E+10	1	-1E+10	1	-1E+10	1	-1E+10	1	-1E+10	1	-1E+10	1
4901784	56	C	01/15/2017	10:46	-132.441	44.341	0	349.90	0	5.5970	0	33.9780	0	26.798	0	346.787	0	92.9	4	30.4	4	-1E+10	1	-1E+10	1	-1E+10	1	-1E+10	1	-1E+10	1	-1E+10	1
4901784	56	C	01/15/2017	10:46	-132.441	44.341	0	351.80	0	5.5870	0	33.9780	0	26.800	0	348.669	0	92.3	4	30.2	4	-1E+10	1	-1E+10	1	-1E+10	1	-1E+10	1	-1E+10	1	-1E+10	1
4901784	56	C	01/15/2017	10:46	-132.441	44.341	0	354.70	0	5.5740	0	33.9780	0	26.801	0	351.541	0	91.4	4	29.9	4	-1E+10	1	-1E+10	1	-1E+10	1	-1E+10	1	-1E+10	1	-1E+10	1
4901784	56	C	01/15/2017	10:46	-132.441	44.341	0	357.50	0	5.5610	0	33.9770	0	26.802	0	354.313	0	90.1	4	29.5	4	-1E+10	1	-1E+10	1	-1E+10	1	-1E+10	1	-1E+10	1	-1E+10	1
4901784	56	C	01/15/2017	10:46	-132.441	44.341	0	359.50	0	5.5370	0	33.9800	0	26.807	0	356.294	0	89.2	4	29.2	4	-1E+10	1	-1E+10	1	-1E+10	1	-1E+10	1	-1E+10	1	-1E+10	1
4901784	56	C	01/15/2017	10:46	-132.441	44.341	0	362.30	0	5.5000	0	33.9830	0	26.814	0	359.066	0	88.1	4	28.8	4	-1E+10	1	-1E+10	1	-1E+10	1	-1E+10	1	-1E+10	1	-1E+10	1
4901784	56	C	01/15/2017	10:46	-132.441	44.341	0	365.70	0	5.4310	0	33.9810	0	26.821	0	362.433	0	87.3	4	28.5	4	-1E+10	1	-1E+10	1	-1E+10	1	-1E+10	1	-1E+10	1	-1E+10	1
4901784	56	C	01/15/2017	10:46	-132.441	44.341	0	367.70	0	5.4220	0	33.9810	0	26.822	0	364.413	0	86.7	4	28.3	4	-1E+10	1	-1E+10	1	-1E+10	1	-1E+10	1	-1E+10	1	-1E+10	1
4901784	56	C	01/15/2017	10:46	-132.441	44.341	0	370.10	0	5.4090	0	33.9820	0	26.824	0	366.790	0	85.7	4	27.9	4	-1E+10	1	-1E+10	1	-1E+10	1	-1E+10	1	-1E+10	1	-1E+10	1
4901784	56	C	01/15/2017	10:46	-132.441	44.341	0	372.50	0	5.3880	0	33.9810	0	26.826	0	369.166	0	84.6	4	27.6	4	-1E+10	1	-1E+10	1	-1E+10	1	-1E+10	1	-1E+10	1	-1E+10	1
4901784	56	C	01/15/2017	10:46	-132.441	44.341	0	375.00	0	5.3680	0	33.9860	0	26.832	0	371.641	0	83.4	4	27.2	4	-1E+10	1	-1E+10	1	-1E+10	1	-1E+10	1	-1E+10	1	-1E+10	1
4901784	56	C	01/15/2017	10:46	-132.441	44.341	0	377.50	0	5.3610	0	33.9880	0	26.835	0	374.117	0	82.4	4	26.8	4	-1E+10	1	-1E+10	1	-1E+10	1	-1E+10	1	-1E+10	1	-1E+10	1
4901784	56	C	01/15/2017	10:46	-132.441	44.341	0	379.90	0	5.3510	0	33.9910	0	26.838	0	376.493	0	81.2	4	26.5	4	-1E+10	1	-1E+10	1	-1E+10	1	-1E+10	1	-1E+10	1	-1E+10	1
4901784	56	C	01/15/2017	10:46	-132.441	44.341	0	382.30	0	5.3380	0	33.9910	0	26.840	0	378.869	0	80.1	4	26.1	4	-1E+10	1	-1E+10	1	-1E+10	1	-1E+10	1	-1E+10	1	-1E+10	1
4901784	56	C	01/15/2017	10:46	-132.441	44.341	0	384.80	0	5.3280	0	33.9950	0	26.844	0	381.345	0	78.9	4	25.7	4	-1E+10	1	-1E+10	1	-1E+10	1	-1E+10	1	-1E+10	1	-1E+10	1
4901784	56	C	01/15/2017	10:46	-132.441	44.341	0	387.20	0	5.3170	0	33.9980	0	26.848	0	383.721	0	77.6	4	25.3	4	-1E+10	1	-1E+10	1	-1E+10	1	-1E+10	1	-1E+10	1	-1E+10	1
4901784	56	C	01/15/2017	10:46	-132.441	44.341	0	389.70	0	5.3030	0	34.0020	0	26.853	0	386.196	0	76.7	4	25.0	4	-1E+10	1	-1E+10	1	-1E+10	1	-1E+10	1	-1E+10	1	-1E+10	1
4901784	56	C	01/15/2017	10:46	-132.441	44.341	0	392.10	0	5.2940	0	34.0040	0	26.855	0	388.572	0	75.8	4	24.7	4	-1E+10	1	-1E+10	1	-1E+10	1	-1E+10	1	-1E+10	1	-1E+10	1
4901784	56	C	01/15/2017	10:46	-132.441	44.341	0	394.70	0	5.2890	0	34.0050	0	26.857	0	391.147	0	74.9	4	24.4	4	-1E+10	1	-1E+10	1	-1E+10	1	-1E+10	1	-1E+10	1	-1E+10	1
4901784	56	C	01/15/2017	10:46	-132.441	44.341	0	397.20	0	5.2760	0	34.0080	0	26.861	0	393.622	0	73.8	4	24.0	4	-1E+10	1	-1E+10	1	-1E+10	1	-1E+10	1	-1E+10	1	-1E+10	1
4901784	56	C	01/15/2017	10:46	-132.441	44.341	0	399.80	0	5.2690	0	34.0100	0	26.863	0	396.196	0	72.9	4	23.7	4	-1E+10	1	-1E+10	1	-1E+10	1	-1E+10	1	-1E+10	1	-1E+10	1
4901784	56	C	01/15/2017	10:46	-132.441	44.341	0	402.40	0	5.2660	0	34.0100	0	26.863	0	398.770	0	72.0	4	23.4	4	-1E+10	1	-1E+10	1	-1E+10	1	-1E+10	1	-1E+10	1	-1E+10	1
4901784	56	C	01/15/2017	10:46	-132.441	44.341	0	405.00	0	5.2500	0	34.0150	0	26.869	0	401.344	0	71.0	4	23.1	4	-1E+10	1	-1E+10	1	-1E+10	1	-1E+10	1	-1E+10	1	-1E+10	1
4901784	56	C	01/15/2017	10:46	-132.441	44.341	0	407.60	0	5.2390	0	34.0170	0	26.872	0	403.918	0	70.3	4	22.8	4	-1E+10	1	-1E+10	1	-1E+10	1	-1E+10	1	-1E+10	1	-1E+10	1
4901784	56	C	01/15/2017	10:46	-132.441	44.341	0	410.20	0	5.2270	0	34.0190	0	26.875	0	406.492	0	69.8	4	22.7	4	-1E+10	1	-1E+10	1	-1E+10	1	-1E+10	1	-1E+10	1	-1E+10	1
4901784	56	C	01/15/2017	10:46	-132.441	44.341	0	412.70	0	5.2210	0	34.0200	0	26.877	0	408.967	0	69.4	4	22.5	4	-1E+10	1	-1E+10	1	-1E+10	1	-1E+10	1	-1E+10	1	-1E+10	1
4901784	56	C	01/15/2017	10:46	-132.441	44.341	0	415.30	0	5.2210	0	34.0200	0	26.877	0	411.541	0	69.0	4	22.4	4	-1E+10	1	-1E+10	1	-1E+10	1	-1E+10	1	-1E+10	1	-1E+10	1
4901784	56	C	01/15/2017	10:46	-132.441	44.341	0	417.80	0	5.2110	0	34.0210	0	26.879	0	414.015	0	68.4	4	22.2	4	-1E+10	1	-1E+10	1	-1E+10	1	-1E+10	1	-1E+10	1	-1E+10	1
4901784	56	C	01/15/2017	10:46	-132.441	44.341	0	419.60	0	5.2070	0	34.0210	0	26.879	0	415.797	0	68.1	4	22.1	4	-1E+10	1	-1E+10	1	-1E+10	1	-1E+10	1	-1E+10	1	-1E+10	1
4901784	56	C	01/15/2017	10:46	-132.441	44.341	0	422.20	0	5.1980	0	34.0210	0	26.880	0	418.371	0	67.3	4	21.8	4	-1E+10	1	-1E+10	1	-1E+10	1	-1E+10	1	-1E+10	1	-1E+10	1
4901784	56	C	01/15/2017	10:46	-132.441	44.341	0	424.80	0	5.1930	0	34.0210	0	26.881	0	420.945	0	66.3	4	21.5	4	-1E+10	1	-1E+10	1	-1E+10	1	-1E+10	1	-1E+10	1	-1E+10	1
4901784	56	C	01/15/2017	10:46	-132.441	44.341	0	427.30	0	5.1720	0	34.0250	0	26.887	0	423.420	0	65.0	4	21.1	4	-1E+10	1	-1E+10	1	-1E+10	1	-1E+10	1	-1E+10	1	-1E+10	1
4901784	56	C	01/15/2017	10:46	-132.441	44.341	0	429.90	0	5.1530	0	34.0290	0	26.892	0	425.993	0	64.2	4	20.8	4	-1E+10	1	-1E+10	1	-1E+10	1	-1E+10	1	-1E+10	1	-1E+10	1
4901784	56	C	01/15/2017	10:46	-132.441	44.341	0	432.60	0	5.1330	0	34.0310	0	26.896	0	428.666	0	63.4	4	20.5	4	-1E+10	1	-1E+10	1	-1E+10	1	-1E+10	1	-1E+10	1	-1E+10	1
4901784	56	C	01/15/2017	10:46	-132.441	44.341	0	435.20	0	5.1140	0	34.0320	0	26.899	0	431.240	0	62.6	4	20.3	4	-1E+10	1	-1E+10	1	-1E+10	1	-1E+10	1	-1E+10	1	-1E+10	1
4901784	56	C	01/15/2017	10:46	-132.441	44.341	0	437.00	0	5.0930	0	34.0330	0	26.902	0	433.022	0	62.0	4	20.1	4	-1E+10	1	-1E+10	1	-1E+10	1	-1E+10	1	-1E+10	1	-1E+10	1
4901784	56	C	01/15/2017	10:46	-132.441	44.341	0	439.70	0	5.0810	0	34.0360	0	26.906	0	435.694	0	61.2	4	19.8	4	-1E+10	1	-1E+10	1	-1E+10	1	-1E+10	1	-1E+10	1	-1E+10	1
4901784	56	C	01/15/2017	10:46	-132.441	44.341	0	442.40	0	5.0530	0	34.0370	0	26.910	0	438.367	0	60.6	4	19.6	4	-1E+10	1	-1E+10	1	-1E+10	1	-1E+10	1	-1E+10	1	-1E+10	1
4901784	56	C	01/15/2017	10:46	-132.441	44.341	0	445.20	0	5.0450	0	34.0390	0	26.912	0	441.138	0	59.9	4	19.4	4	-1E+10	1	-1E+10	1	-1E+10	1	-1E+10	1	-1E+10	1	-1E+10	1
4901784	56	C	01/15/2017	10:46	-132.441	44.341	0	447.90	0	5.0270	0	34.0410	0	26.916	0	443.811	0	59.1	4	19.1	4	-1E+10	1	-1E+10	1	-1E+10	1	-1E+10	1	-1E+10	1	-1E+10	1
4901784	56	C	01/15/2017	10:46	-132.441	44.341	0	449.70	0	5.0260	0	34.0420	0	26.917	0	445.592	0	58.8	4	19.0	4	-1E+10	1	-1E+10	1	-1E+10	1	-1E+10	1	-1E+10	1	-1E+10	1
4901784	56	C	01/15/2017	10:46	-132.441	44.341	0	452.40	0	5.0080	0	34.0430	0	26.920	0	448.265	0	58.2	4	18.8	4	-1E+10	1	-1E+10	1	-1E+10	1	-1E+10	1	-1E+10	1	-1E+10	1
4901784	56	C	01/15/2017	10:46	-132.441	44.341	0	455.10	0	4.9920	0	34.0440	0	26.922	0	450.937	0	57.6	4	18.6	4	-1E+10	1	-1E+10	1	-1E+10	1	-1E+10	1	-1E+10	1	-1E+10	1
4901784	56	C	01/15/2017	10:46	-132.441	44.341	0	457.00	0	4.9800	0	34.0460	0	26.925	0	452.818	0	57.2	4	18.5	4	-1E+10	1	-1E+10	1	-1E+10	1	-1E+10	1	-1E+10	1	-1E+10	1
4901784	56	C	01/15/2017	10:46	-132.441	44.341	0	459.70	0	4.9590	0	34.0450	0	26.927	0	455.490	0	56.3	4	18.2	4	-1E+10	1	-1E+10	1	-1E+10	1	-1E+10	1	-1E+10	1	-1E+10	1
4901784	56	C	01/15/2017	10:46	-132.441	44.341	0	462.40	0	4.9270	0	34.0490	0	26.934	0	458.162	0	55.5	4	17.9	4	-1E+10	1	-1E+10	1	-1E+10	1	-1E+10	1	-1E+10	1	-1E+10	1
4901784	56	C	01/15/2017	10:46	-132.441	44.341	0	465.30	0	4.9120	0	34.0500	0	26.936	0	461.032	0	54.5	4	17.6	4	-1E+10	1	-1E+10	1	-1E+10	1	-1E+10	1	-1E+10	1	-1E+10	1
4901784	56	C	01/15/2017	10:46	-132.441	44.341	0	468.10	0	4.9090	0	34.0510	0	26.937	0	463.804	0	53.5	4	17.3	4	-1E+10	1	-1E+10	1	-1E+10	1	-1E+10	1	-1E+10	1	-1E+10	1
4901784	56	C	01/15/2017	10:46	-132.441	44.341	0	470.00	0	4.8740	0	34.0540	0	26.944	0	465.684	0	52.9	4	17.1	4	-1E+10	1	-1E+10	1	-1E+10	1	-1E+10	1	-1E+10	1	-1E+10	1
4901784	56	C	01/15/2017	10:46	-132.441	44.341	0	471.90	0	4.8520	0	34.0570	0	26.949	0	467.565	0	52.3	4	16.8	4	-1E+10	1	-1E+10	1	-1E+10	1	-1E+10	1	-1E+10	1	-1E+10	1
4901784	56	C	01/15/2017	10:46	-132.441	44.341	0	474.70	0	4.8300	0	34.0590	0	26.953	0	470.336	0	51.4	4	16.5	4	-1E+10	1	-1E+10	1	-1E+10	1	-1E+10	1	-1E+10	1	-1E+10	1
4901784	56	C	01/15/2017	10:46	-132.441	44.341	0	477.60	0	4.8060	0	34.0630	0	26.959	0	473.206	0	50.4	4	16.2	4	-1E+10	1	-1E+10	1	-1E+10	1	-1E+10	1	-1E+10	1	-1E+10	1
4901784	56	C	01/15/2017	10:46	-132.441	44.341	0	479.40	0	4.7960	0	34.0650	0	26.961	0	474.987	0	49.8	4	16.0	4	-1E+10	1	-1E+10	1	-1E+10	1	-1E+10	1	-1E+10	1	-1E+10	1
4901784	56	C	01/15/2017	10:46	-132.441	44.341	0	482.40	0	4.7810	0	34.0680	0	26.965	0	477.956	0	49.0	4	15.7	4	-1E+10	1	-1E+10	1	-1E+10	1	-1E+10	1	-1E+10	1	-1E+10	1
4901784	56	C	01/15/2017	10:46	-132.441	44.341	0	485.30	0	4.7560	0	34.0710	0	26.971	0	480.826	0	48.1	4	15.4	4	-1E+10	1	-1E+10	1	-1E+10	1	-1E+10	1	-1E+10	1	-1E+10	1
4901784	56	C	01/15/2017	10:46	-132.441	44.341	0	487.20	0	4.7350	0	34.0750	0	26.976	0	482.706	0	47.6	4	15.3	4	-1E+10	1	-1E+10	1	-1E+10	1	-1E+10	1	-1E+10	1	-1E+10	1
4901784	56	C	01/15/2017	10:46	-132.441	44.341	0	490.10	0	4.7290	0	34.0760	0	26.978	0	485.576	0	47.0	4	15.1	4	-1E+10	1	-1E+10	1	-1E+10	1	-1E+10	1	-1E+10	1	-1E+10	1
4901784	56	C	01/15/2017	10:46	-132.441	44.341	0	493.10	0	4.7240	0	34.0770	0	26.979	0	488.545	0	46.3	4	14.9	4	-1E+10	1	-1E+10	1	-1E+10	1	-1E+10	1	-1E+10	1	-1E+10	1
4901784	56	C	01/15/2017	10:46	-132.441	44.341	0	495.00	0	4.7200	0	34.0780	0	26.980	0	490.425	0	45.7	4	14.7	4	-1E+10	1	-1E+10	1	-1E+10	1	-1E+10	1	-1E+10	1	-1E+10	1
4901784	56	C	01/15/2017	10:46	-132.441	44.341	0	496.90	0	4.7090	0	34.0800	0	26.983	0	492.305	0	45.0	4	14.4	4	-1E+10	1	-1E+10	1	-1E+10	1	-1E+10	1	-1E+10	1	-1E+10	1
4901784	56	C	01/15/2017	10:46	-132.441	44.341	0	499.90	0	4.6910	0	34.0840	0	26.988	0	495.274	0	44.2	4	14.2	4	-1E+10	1	-1E+10	1	-1E+10	1	-1E+10	1	-1E+10	1	-1E+10	1
4901784	56	C	01/15/2017	10:46	-132.441	44.341	0	504.80	0	4.6710	0	34.0890	0	26.994	0	500.123	0	42.9	4	13.8	4	-1E+10	1	-1E+10	1	-1E+10	1	-1E+10	1	-1E+10	1	-1E+10	1
4901784	56	C	01/15/2017	10:46	-132.441	44.341	0	509.70	0	4.6630	0	34.0930	0	26.998	0	504.971	0	41.8	4	13.4	4	-1E+10	1	-1E+10	1	-1E+10	1	-1E+10	1	-1E+10	1	-1E+10	1
4901784	56	C	01/15/2017	10:46	-132.441	44.341	0	514.50	0	4.6500	0	34.0960	0	27.002	0	509.721	0	40.5	4	13.0	4	-1E+10	1	-1E+10	1	-1E+10	1	-1E+10	1	-1E+10	1	-1E+10	1
4901784	56	C	01/15/2017	10:46	-132.441	44.341	0	520.40	0	4.6280	0	34.1020	0	27.010	0	515.559	0	38.9	4	12.5	4	-1E+10	1	-1E+10	1	-1E+10	1	-1E+10	1	-1E+10	1	-1E+10	1
4901784	56	C	01/15/2017	10:46	-132.441	44.341	0	525.20	0	4.6110	0	34.1070	0	27.015	0	520.308	0	37.8	4	12.1	4	-1E+10	1	-1E+10	1	-1E+10	1	-1E+10	1	-1E+10	1	-1E+10	1
4901784	56	C	01/15/2017	10:46	-132.441	44.341	0	530.00	0	4.6000	0	34.1110	0	27.020	0	525.057	0	36.7	4	11.8	4	-1E+10	1	-1E+10	1	-1E+10	1	-1E+10	1	-1E+10	1	-1E+10	1
4901784	56	C	01/15/2017	10:46	-132.441	44.341	0	534.90	0	4.5950	0	34.1130	0	27.022	0	529.905	0	35.3	4	11.3	4	-1E+10	1	-1E+10	1	-1E+10	1	-1E+10	1	-1E+10	1	-1E+10	1
4901784	56	C	01/15/2017	10:46	-132.441	44.341	0	539.60	0	4.5710	0	34.1240	0	27.033	0	534.555	0	33.6	4	10.8	4	-1E+10	1	-1E+10	1	-1E+10	1	-1E+10	1	-1E+10	1	-1E+10	1
4901784	56	C	01/15/2017	10:46	-132.441	44.341	0	545.50	0	4.5570	0	34.1300	0	27.040	0	540.393	0	32.6	4	10.4	4	-1E+10	1	-1E+10	1	-1E+10	1	-1E+10	1	-1E+10	1	-1E+10	1
4901784	56	C	01/15/2017	10:46	-132.441	44.341	0	550.30	0	4.5510	0	34.1330	0	27.043	0	545.141	0	31.5	4	10.1	4	-1E+10	1	-1E+10	1	-1E+10	1	-1E+10	1	-1E+10	1	-1E+10	1
4901784	56	C	01/15/2017	10:46	-132.441	44.341	0	555.10	0	4.5340	0	34.1390	0	27.049	0	549.890	0	30.6	4	9.8	4	-1E+10	1	-1E+10	1	-1E+10	1	-1E+10	1	-1E+10	1	-1E+10	1
4901784	56	C	01/15/2017	10:46	-132.441	44.341	0	559.90	0	4.5290	0	34.1410	0	27.052	0	554.639	0	29.8	4	9.5	4	-1E+10	1	-1E+10	1	-1E+10	1	-1E+10	1	-1E+10	1	-1E+10	1
4901784	56	C	01/15/2017	10:46	-132.441	44.341	0	564.70	0	4.5140	0	34.1460	0	27.057	0	559.387	0	28.9	4	9.2	4	-1E+10	1	-1E+10	1	-1E+10	1	-1E+10	1	-1E+10	1	-1E+10	1
4901784	56	C	01/15/2017	10:46	-132.441	44.341	0	570.40	0	4.5000	0	34.1530	0	27.064	0	565.026	0	28.0	4	8.9	4	-1E+10	1	-1E+10	1	-1E+10	1	-1E+10	1	-1E+10	1	-1E+10	1
4901784	56	C	01/15/2017	10:46	-132.441	44.341	0	575.10	0	4.4860	0	34.1560	0	27.068	0	569.675	0	27.6	4	8.8	4	-1E+10	1	-1E+10	1	-1E+10	1	-1E+10	1	-1E+10	1	-1E+10	1
4901784	56	C	01/15/2017	10:46	-132.441	44.341	0	579.80	0	4.4750	0	34.1570	0	27.070	0	574.324	0	27.0	4	8.6	4	-1E+10	1	-1E+10	1	-1E+10	1	-1E+10	1	-1E+10	1	-1E+10	1
4901784	56	C	01/15/2017	10:46	-132.441	44.341	0	585.30	0	4.4460	0	34.1620	0	27.077	0	579.765	0	26.3	4	8.4	4	-1E+10	1	-1E+10	1	-1E+10	1	-1E+10	1	-1E+10	1	-1E+10	1
4901784	56	C	01/15/2017	10:46	-132.441	44.341	0	589.70	0	4.4200	0	34.1680	0	27.085	0	584.117	0	25.7	4	8.2	4	-1E+10	1	-1E+10	1	-1E+10	1	-1E+10	1	-1E+10	1	-1E+10	1
4901784	56	C	01/15/2017	10:46	-132.441	44.341	0	595.20	0	4.4050	0	34.1710	0	27.089	0	589.557	0	24.9	4	8.0	4	-1E+10	1	-1E+10	1	-1E+10	1	-1E+10	1	-1E+10	1	-1E+10	1
4901784	56	C	01/15/2017	10:46	-132.441	44.341	0	600.70	0	4.3860	0	34.1760	0	27.095	0	594.997	0	24.1	4	7.7	4	-1E+10	1	-1E+10	1	-1E+10	1	-1E+10	1	-1E+10	1	-1E+10	1
4901784	56	C	01/15/2017	10:46	-132.441	44.341	0	605.50	0	4.3700	0	34.1810	0	27.101	0	599.744	0	23.5	4	7.5	4	-1E+10	1	-1E+10	1	-1E+10	1	-1E+10	1	-1E+10	1	-1E+10	1
4901784	56	C	01/15/2017	10:46	-132.441	44.341	0	610.40	0	4.3580	0	34.1850	0	27.105	0	604.591	0	22.9	4	7.3	4	-1E+10	1	-1E+10	1	-1E+10	1	-1E+10	1	-1E+10	1	-1E+10	1
4901784	56	C	01/15/2017	10:46	-132.441	44.341	0	615.30	0	4.3380	0	34.1910	0	27.112	0	609.437	0	22.3	4	7.1	4	-1E+10	1	-1E+10	1	-1E+10	1	-1E+10	1	-1E+10	1	-1E+10	1
4901784	56	C	01/15/2017	10:46	-132.441	44.341	0	620.30	0	4.3220	0	34.1950	0	27.117	0	614.382	0	21.7	4	6.9	4	-1E+10	1	-1E+10	1	-1E+10	1	-1E+10	1	-1E+10	1	-1E+10	1
4901784	56	C	01/15/2017	10:46	-132.441	44.341	0	625.40	0	4.3100	0	34.1980	0	27.121	0	619.426	0	21.2	4	6.7	4	-1E+10	1	-1E+10	1	-1E+10	1	-1E+10	1	-1E+10	1	-1E+10	1
4901784	56	C	01/15/2017	10:46	-132.441	44.341	0	630.50	0	4.2910	0	34.2030	0	27.127	0	624.469	0	20.7	4	6.6	4	-1E+10	1	-1E+10	1	-1E+10	1	-1E+10	1	-1E+10	1	-1E+10	1
4901784	56	C	01/15/2017	10:46	-132.441	44.341	0	635.70	0	4.2780	0	34.2070	0	27.131	0	629.612	0	20.2	4	6.4	4	-1E+10	1	-1E+10	1	-1E+10	1	-1E+10	1	-1E+10	1	-1E+10	1
4901784	56	C	01/15/2017	10:46	-132.441	44.341	0	640.70	0	4.2630	0	34.2110	0	27.136	0	634.556	0	19.7	4	6.3	4	-1E+10	1	-1E+10	1	-1E+10	1	-1E+10	1	-1E+10	1	-1E+10	1
4901784	56	C	01/15/2017	10:46	-132.441	44.341	0	645.00	0	4.2350	0	34.2180	0	27.145	0	638.808	0	19.4	4	6.1	4	-1E+10	1	-1E+10	1	-1E+10	1	-1E+10	1	-1E+10	1	-1E+10	1
4901784	56	C	01/15/2017	10:46	-132.441	44.341	0	649.40	0	4.2210	0	34.2200	0	27.148	0	643.159	0	19.2	4	6.1	4	-1E+10	1	-1E+10	1	-1E+10	1	-1E+10	1	-1E+10	1	-1E+10	1
4901784	56	C	01/15/2017	10:46	-132.441	44.341	0	654.50	0	4.2130	0	34.2230	0	27.151	0	648.203	0	18.9	4	6.0	4	-1E+10	1	-1E+10	1	-1E+10	1	-1E+10	1	-1E+10	1	-1E+10	1
4901784	56	C	01/15/2017	10:46	-132.441	44.341	0	659.80	0	4.2080	0	34.2250	0	27.153	0	653.443	0	18.7	4	5.9	4	-1E+10	1	-1E+10	1	-1E+10	1	-1E+10	1	-1E+10	1	-1E+10	1
4901784	56	C	01/15/2017	10:46	-132.441	44.341	0	665.10	0	4.2020	0	34.2260	0	27.155	0	658.684	0	18.3	4	5.8	4	-1E+10	1	-1E+10	1	-1E+10	1	-1E+10	1	-1E+10	1	-1E+10	1
4901784	56	C	01/15/2017	10:46	-132.441	44.341	0	670.30	0	4.1820	0	34.2310	0	27.161	0	663.825	0	17.8	4	5.7	4	-1E+10	1	-1E+10	1	-1E+10	1	-1E+10	1	-1E+10	1	-1E+10	1
4901784	56	C	01/15/2017	10:46	-132.441	44.341	0	675.70	0	4.1520	0	34.2370	0	27.169	0	669.165	0	17.3	4	5.5	4	-1E+10	1	-1E+10	1	-1E+10	1	-1E+10	1	-1E+10	1	-1E+10	1
4901784	56	C	01/15/2017	10:46	-132.441	44.341	0	680.20	0	4.1360	0	34.2410	0	27.174	0	673.614	0	16.8	4	5.3	4	-1E+10	1	-1E+10	1	-1E+10	1	-1E+10	1	-1E+10	1	-1E+10	1
4901784	56	C	01/15/2017	10:46	-132.441	44.341	0	684.70	0	4.1100	0	34.2490	0	27.183	0	678.063	0	16.4	4	5.2	4	-1E+10	1	-1E+10	1	-1E+10	1	-1E+10	1	-1E+10	1	-1E+10	1
4901784	56	C	01/15/2017	10:46	-132.441	44.341	0	690.20	0	4.0960	0	34.2540	0	27.188	0	683.500	0	16.0	4	5.1	4	-1E+10	1	-1E+10	1	-1E+10	1	-1E+10	1	-1E+10	1	-1E+10	1
4901784	56	C	01/15/2017	10:46	-132.441	44.341	0	695.60	0	4.0870	0	34.2580	0	27.192	0	688.839	0	15.6	4	4.9	4	-1E+10	1	-1E+10	1	-1E+10	1	-1E+10	1	-1E+10	1	-1E+10	1
4901784	56	C	01/15/2017	10:46	-132.441	44.341	0	700.20	0	4.0660	0	34.2650	0	27.200	0	693.387	0	15.2	4	4.8	4	-1E+10	1	-1E+10	1	-1E+10	1	-1E+10	1	-1E+10	1	-1E+10	1
4901784	56	C	01/15/2017	10:46	-132.441	44.341	0	704.90	0	4.0500	0	34.2700	0	27.206	0	698.033	0	14.8	4	4.7	4	-1E+10	1	-1E+10	1	-1E+10	1	-1E+10	1	-1E+10	1	-1E+10	1
4901784	56	C	01/15/2017	10:46	-132.441	44.341	0	709.60	0	4.0330	0	34.2760	0	27.212	0	702.679	0	14.5	4	4.6	4	-1E+10	1	-1E+10	1	-1E+10	1	-1E+10	1	-1E+10	1	-1E+10	1
4901784	56	C	01/15/2017	10:46	-132.441	44.341	0	714.40	0	4.0130	0	34.2820	0	27.219	0	707.425	0	14.3	4	4.5	4	-1E+10	1	-1E+10	1	-1E+10	1	-1E+10	1	-1E+10	1	-1E+10	1
4901784	56	C	01/15/2017	10:46	-132.441	44.341	0	720.20	0	3.9890	0	34.2870	0	27.226	0	713.158	0	14.1	4	4.5	4	-1E+10	1	-1E+10	1	-1E+10	1	-1E+10	1	-1E+10	1	-1E+10	1
4901784	56	C	01/15/2017	10:46	-132.441	44.341	0	724.60	0	3.9830	0	34.2890	0	27.228	0	717.507	0	14.1	4	4.4	4	-1E+10	1	-1E+10	1	-1E+10	1	-1E+10	1	-1E+10	1	-1E+10	1
4901784	56	C	01/15/2017	10:46	-132.441	44.341	0	729.60	0	3.9820	0	34.2890	0	27.228	0	722.450	0	13.9	4	4.4	4	-1E+10	1	-1E+10	1	-1E+10	1	-1E+10	1	-1E+10	1	-1E+10	1
4901784	56	C	01/15/2017	10:46	-132.441	44.341	0	734.50	0	3.9710	0	34.2930	0	27.232	0	727.293	0	13.8	4	4.4	4	-1E+10	1	-1E+10	1	-1E+10	1	-1E+10	1	-1E+10	1	-1E+10	1
4901784	56	C	01/15/2017	10:46	-132.441	44.341	0	739.40	0	3.9540	0	34.2960	0	27.236	0	732.137	0	13.7	4	4.3	4	-1E+10	1	-1E+10	1	-1E+10	1	-1E+10	1	-1E+10	1	-1E+10	1
4901784	56	C	01/15/2017	10:46	-132.441	44.341	0	744.40	0	3.9450	0	34.3000	0	27.241	0	737.079	0	13.5	4	4.3	4	-1E+10	1	-1E+10	1	-1E+10	1	-1E+10	1	-1E+10	1	-1E+10	1
4901784	56	C	01/15/2017	10:46	-132.441	44.341	0	749.40	0	3.9200	0	34.3040	0	27.246	0	742.021	0	13.5	4	4.3	4	-1E+10	1	-1E+10	1	-1E+10	1	-1E+10	1	-1E+10	1	-1E+10	1
4901784	56	C	01/15/2017	10:46	-132.441	44.341	0	754.40	0	3.9020	0	34.3040	0	27.248	0	746.962	0	13.6	4	4.3	4	-1E+10	1	-1E+10	1	-1E+10	1	-1E+10	1	-1E+10	1	-1E+10	1
4901784	56	C	01/15/2017	10:46	-132.441	44.341	0	759.50	0	3.8890	0	34.3060	0	27.251	0	752.003	0	13.5	4	4.3	4	-1E+10	1	-1E+10	1	-1E+10	1	-1E+10	1	-1E+10	1	-1E+10	1
4901784	56	C	01/15/2017	10:46	-132.441	44.341	0	764.60	0	3.8550	0	34.3100	0	27.258	0	757.043	0	13.5	4	4.3	4	-1E+10	1	-1E+10	1	-1E+10	1	-1E+10	1	-1E+10	1	-1E+10	1
4901784	56	C	01/15/2017	10:46	-132.441	44.341	0	769.70	0	3.8370	0	34.3110	0	27.260	0	762.084	0	13.5	4	4.3	4	-1E+10	1	-1E+10	1	-1E+10	1	-1E+10	1	-1E+10	1	-1E+10	1
4901784	56	C	01/15/2017	10:46	-132.441	44.341	0	774.80	0	3.8270	0	34.3120	0	27.262	0	767.124	0	13.4	4	4.2	4	-1E+10	1	-1E+10	1	-1E+10	1	-1E+10	1	-1E+10	1	-1E+10	1
4901784	56	C	01/15/2017	10:46	-132.441	44.341	0	780.00	0	3.8210	0	34.3150	0	27.265	0	772.263	0	13.1	4	4.1	4	-1E+10	1	-1E+10	1	-1E+10	1	-1E+10	1	-1E+10	1	-1E+10	1
4901784	56	C	01/15/2017	10:46	-132.441	44.341	0	785.20	0	3.8260	0	34.3220	0	27.270	0	777.401	0	13.0	4	4.1	4	-1E+10	1	-1E+10	1	-1E+10	1	-1E+10	1	-1E+10	1	-1E+10	1
4901784	56	C	01/15/2017	10:46	-132.441	44.341	0	790.40	0	3.7940	0	34.3230	0	27.274	0	782.540	0	13.0	4	4.1	4	-1E+10	1	-1E+10	1	-1E+10	1	-1E+10	1	-1E+10	1	-1E+10	1
4901784	56	C	01/15/2017	10:46	-132.441	44.341	0	795.60	0	3.7600	0	34.3260	0	27.280	0	787.679	0	12.9	4	4.1	4	-1E+10	1	-1E+10	1	-1E+10	1	-1E+10	1	-1E+10	1	-1E+10	1
4901784	56	C	01/15/2017	10:46	-132.441	44.341	0	800.70	0	3.7610	0	34.3320	0	27.285	0	792.718	0	12.7	4	4.0	4	-1E+10	1	-1E+10	1	-1E+10	1	-1E+10	1	-1E+10	1	-1E+10	1
4901784	56	C	01/15/2017	10:46	-132.441	44.341	0	805.00	0	3.7330	0	34.3340	0	27.289	0	796.967	0	12.6	4	3.9	4	-1E+10	1	-1E+10	1	-1E+10	1	-1E+10	1	-1E+10	1	-1E+10	1
4901784	56	C	01/15/2017	10:46	-132.441	44.341	0	809.40	0	3.7350	0	34.3400	0	27.294	0	801.315	0	12.2	4	3.8	4	-1E+10	1	-1E+10	1	-1E+10	1	-1E+10	1	-1E+10	1	-1E+10	1
4901784	56	C	01/15/2017	10:46	-132.441	44.341	0	814.50	0	3.7360	0	34.3460	0	27.299	0	806.354	0	11.9	4	3.7	4	-1E+10	1	-1E+10	1	-1E+10	1	-1E+10	1	-1E+10	1	-1E+10	1
4901784	56	C	01/15/2017	10:46	-132.441	44.341	0	819.70	0	3.7380	0	34.3520	0	27.303	0	811.492	0	11.6	4	3.7	4	-1E+10	1	-1E+10	1	-1E+10	1	-1E+10	1	-1E+10	1	-1E+10	1
4901784	56	C	01/15/2017	10:46	-132.441	44.341	0	825.00	0	3.7270	0	34.3600	0	27.311	0	816.728	0	11.5	4	3.6	4	-1E+10	1	-1E+10	1	-1E+10	1	-1E+10	1	-1E+10	1	-1E+10	1
4901784	56	C	01/15/2017	10:46	-132.441	44.341	0	830.20	0	3.7220	0	34.3610	0	27.312	0	821.866	0	11.5	4	3.6	4	-1E+10	1	-1E+10	1	-1E+10	1	-1E+10	1	-1E+10	1	-1E+10	1
4901784	56	C	01/15/2017	10:46	-132.441	44.341	0	835.50	0	3.7190	0	34.3620	0	27.313	0	827.102	0	11.5	4	3.6	4	-1E+10	1	-1E+10	1	-1E+10	1	-1E+10	1	-1E+10	1	-1E+10	1
4901784	56	C	01/15/2017	10:46	-132.441	44.341	0	839.90	0	3.7020	0	34.3650	0	27.317	0	831.449	0	11.5	4	3.6	4	-1E+10	1	-1E+10	1	-1E+10	1	-1E+10	1	-1E+10	1	-1E+10	1
4901784	56	C	01/15/2017	10:46	-132.441	44.341	0	844.40	0	3.6930	0	34.3660	0	27.319	0	835.895	0	11.4	4	3.6	4	-1E+10	1	-1E+10	1	-1E+10	1	-1E+10	1	-1E+10	1	-1E+10	1
4901784	56	C	01/15/2017	10:46	-132.441	44.341	0	849.80	0	3.6820	0	34.3700	0	27.323	0	841.230	0	11.4	4	3.6	4	-1E+10	1	-1E+10	1	-1E+10	1	-1E+10	1	-1E+10	1	-1E+10	1
4901784	56	C	01/15/2017	10:46	-132.441	44.341	0	855.20	0	3.6760	0	34.3730	0	27.326	0	846.564	0	11.4	4	3.6	4	-1E+10	1	-1E+10	1	-1E+10	1	-1E+10	1	-1E+10	1	-1E+10	1
4901784	56	C	01/15/2017	10:46	-132.441	44.341	0	860.50	0	3.6750	0	34.3730	0	27.327	0	851.800	0	11.3	4	3.6	4	-1E+10	1	-1E+10	1	-1E+10	1	-1E+10	1	-1E+10	1	-1E+10	1
4901784	56	C	01/15/2017	10:46	-132.441	44.341	0	864.90	0	3.6670	0	34.3750	0	27.329	0	856.147	0	11.3	4	3.5	4	-1E+10	1	-1E+10	1	-1E+10	1	-1E+10	1	-1E+10	1	-1E+10	1
4901784	56	C	01/15/2017	10:46	-132.441	44.341	0	869.50	0	3.6550	0	34.3780	0	27.333	0	860.691	0	11.3	4	3.5	4	-1E+10	1	-1E+10	1	-1E+10	1	-1E+10	1	-1E+10	1	-1E+10	1
4901784	56	C	01/15/2017	10:46	-132.441	44.341	0	874.80	0	3.6450	0	34.3810	0	27.336	0	865.926	0	11.3	4	3.5	4	-1E+10	1	-1E+10	1	-1E+10	1	-1E+10	1	-1E+10	1	-1E+10	1
4901784	56	C	01/15/2017	10:46	-132.441	44.341	0	880.30	0	3.6310	0	34.3840	0	27.340	0	871.359	0	11.3	4	3.5	4	-1E+10	1	-1E+10	1	-1E+10	1	-1E+10	1	-1E+10	1	-1E+10	1
4901784	56	C	01/15/2017	10:46	-132.441	44.341	0	884.80	0	3.6200	0	34.3870	0	27.343	0	875.804	0	11.3	4	3.5	4	-1E+10	1	-1E+10	1	-1E+10	1	-1E+10	1	-1E+10	1	-1E+10	1
4901784	56	C	01/15/2017	10:46	-132.441	44.341	0	889.30	0	3.6100	0	34.3890	0	27.346	0	880.248	0	11.3	4	3.5	4	-1E+10	1	-1E+10	1	-1E+10	1	-1E+10	1	-1E+10	1	-1E+10	1
4901784	56	C	01/15/2017	10:46	-132.441	44.341	0	894.70	0	3.5910	0	34.3940	0	27.352	0	885.582	0	11.4	4	3.6	4	-1E+10	1	-1E+10	1	-1E+10	1	-1E+10	1	-1E+10	1	-1E+10	1
4901784	56	C	01/15/2017	10:46	-132.441	44.341	0	900.10	0	3.5730	0	34.3980	0	27.357	0	890.915	0	11.4	4	3.6	4	-1E+10	1	-1E+10	1	-1E+10	1	-1E+10	1	-1E+10	1	-1E+10	1
4901784	56	C	01/15/2017	10:46	-132.441	44.341	0	905.60	0	3.5530	0	34.4040	0	27.363	0	896.348	0	11.4	4	3.6	4	-1E+10	1	-1E+10	1	-1E+10	1	-1E+10	1	-1E+10	1	-1E+10	1
4901784	56	C	01/15/2017	10:46	-132.441	44.341	0	910.10	0	3.5410	0	34.4060	0	27.366	0	900.792	0	11.5	4	3.6	4	-1E+10	1	-1E+10	1	-1E+10	1	-1E+10	1	-1E+10	1	-1E+10	1
4901784	56	C	01/15/2017	10:46	-132.441	44.341	0	914.80	0	3.5320	0	34.4080	0	27.369	0	905.434	0	11.5	4	3.6	4	-1E+10	1	-1E+10	1	-1E+10	1	-1E+10	1	-1E+10	1	-1E+10	1
4901784	56	C	01/15/2017	10:46	-132.441	44.341	0	919.40	0	3.5220	0	34.4110	0	27.372	0	909.977	0	11.6	4	3.6	4	-1E+10	1	-1E+10	1	-1E+10	1	-1E+10	1	-1E+10	1	-1E+10	1
4901784	56	C	01/15/2017	10:46	-132.441	44.341	0	924.20	0	3.5120	0	34.4140	0	27.375	0	914.717	0	11.6	4	3.6	4	-1E+10	1	-1E+10	1	-1E+10	1	-1E+10	1	-1E+10	1	-1E+10	1
4901784	56	C	01/15/2017	10:46	-132.441	44.341	0	929.60	0	3.4960	0	34.4180	0	27.380	0	920.050	0	11.7	4	3.7	4	-1E+10	1	-1E+10	1	-1E+10	1	-1E+10	1	-1E+10	1	-1E+10	1
4901784	56	C	01/15/2017	10:46	-132.441	44.341	0	934.40	0	3.4810	0	34.4220	0	27.385	0	924.790	0	11.8	4	3.7	4	-1E+10	1	-1E+10	1	-1E+10	1	-1E+10	1	-1E+10	1	-1E+10	1
4901784	56	C	01/15/2017	10:46	-132.441	44.341	0	939.30	0	3.4720	0	34.4250	0	27.388	0	929.628	0	11.9	4	3.7	4	-1E+10	1	-1E+10	1	-1E+10	1	-1E+10	1	-1E+10	1	-1E+10	1
4901784	56	C	01/15/2017	10:46	-132.441	44.341	0	945.00	0	3.4690	0	34.4250	0	27.389	0	935.257	0	11.9	4	3.7	4	-1E+10	1	-1E+10	1	-1E+10	1	-1E+10	1	-1E+10	1	-1E+10	1
4901784	56	C	01/15/2017	10:46	-132.441	44.341	0	950.70	0	3.4610	0	34.4270	0	27.391	0	940.885	0	12.0	4	3.7	4	-1E+10	1	-1E+10	1	-1E+10	1	-1E+10	1	-1E+10	1	-1E+10	1
4901784	56	C	01/15/2017	10:46	-132.441	44.341	0	955.70	0	3.4520	0	34.4300	0	27.394	0	945.823	0	12.1	4	3.8	4	-1E+10	1	-1E+10	1	-1E+10	1	-1E+10	1	-1E+10	1	-1E+10	1
4901784	56	C	01/15/2017	10:46	-132.441	44.341	0	960.70	0	3.4450	0	34.4330	0	27.397	0	950.760	0	12.3	4	3.8	4	-1E+10	1	-1E+10	1	-1E+10	1	-1E+10	1	-1E+10	1	-1E+10	1
4901784	56	C	01/15/2017	10:46	-132.441	44.341	0	965.60	0	3.4330	0	34.4370	0	27.402	0	955.598	0	12.4	4	3.9	4	-1E+10	1	-1E+10	1	-1E+10	1	-1E+10	1	-1E+10	1	-1E+10	1
4901784	56	C	01/15/2017	10:46	-132.441	44.341	0	970.70	0	3.4280	0	34.4390	0	27.404	0	960.633	0	12.5	4	3.9	4	-1E+10	1	-1E+10	1	-1E+10	1	-1E+10	1	-1E+10	1	-1E+10	1
4901784	56	C	01/15/2017	10:46	-132.441	44.341	0	975.80	0	3.4170	0	34.4420	0	27.407	0	965.668	0	12.6	4	3.9	4	-1E+10	1	-1E+10	1	-1E+10	1	-1E+10	1	-1E+10	1	-1E+10	1
4901784	56	C	01/15/2017	10:46	-132.441	44.341	0	980.10	0	3.4100	0	34.4440	0	27.410	0	969.914	0	12.6	4	3.9	4	-1E+10	1	-1E+10	1	-1E+10	1	-1E+10	1	-1E+10	1	-1E+10	1
4901784	56	C	01/15/2017	10:46	-132.441	44.341	0	984.40	0	3.3970	0	34.4470	0	27.413	0	974.159	0	12.7	4	4.0	4	-1E+10	1	-1E+10	1	-1E+10	1	-1E+10	1	-1E+10	1	-1E+10	1
4901784	56	C	01/15/2017	10:46	-132.441	44.341	0	989.60	0	3.3870	0	34.4490	0	27.416	0	979.293	0	12.8	4	4.0	4	-1E+10	1	-1E+10	1	-1E+10	1	-1E+10	1	-1E+10	1	-1E+10	1
4901784	56	C	01/15/2017	10:46	-132.441	44.341	0	994.80	0	3.3790	0	34.4510	0	27.418	0	984.427	0	12.8	4	4.0	4	-1E+10	1	-1E+10	1	-1E+10	1	-1E+10	1	-1E+10	1	-1E+10	1
4901784	56	C	01/15/2017	10:46	-132.441	44.341	0	1000.00	0	3.3680	0	34.4530	0	27.421	0	989.560	0	12.9	4	4.0	4	-1E+10	1	-1E+10	1	-1E+10	1	-1E+10	1	-1E+10	1	-1E+10	1
4901784	56	C	01/15/2017	10:46	-132.441	44.341	0	1005.20	0	3.3610	0	34.4550	0	27.423	0	994.693	0	13.0	4	4.1	4	-1E+10	1	-1E+10	1	-1E+10	1	-1E+10	1	-1E+10	1	-1E+10	1
4901784	56	C	01/15/2017	10:46	-132.441	44.341	0	1010.50	0	3.3590	0	34.4560	0	27.424	0	999.925	0	13.2	4	4.1	4	-1E+10	1	-1E+10	1	-1E+10	1	-1E+10	1	-1E+10	1	-1E+10	1
4901784	56	C	01/15/2017	10:46	-132.441	44.341	0	1014.90	0	3.3530	0	34.4590	0	27.427	0	1004.269	0	13.5	4	4.2	4	-1E+10	1	-1E+10	1	-1E+10	1	-1E+10	1	-1E+10	1	-1E+10	1
4901784	56	C	01/15/2017	10:46	-132.441	44.341	0	1019.40	0	3.3500	0	34.4630	0	27.431	0	1008.711	0	13.7	4	4.3	4	-1E+10	1	-1E+10	1	-1E+10	1	-1E+10	1	-1E+10	1	-1E+10	1
4901784	56	C	01/15/2017	10:46	-132.441	44.341	0	1024.80	0	3.3360	0	34.4650	0	27.434	0	1014.041	0	14.0	4	4.4	4	-1E+10	1	-1E+10	1	-1E+10	1	-1E+10	1	-1E+10	1	-1E+10	1
4901784	56	C	01/15/2017	10:46	-132.441	44.341	0	1030.30	0	3.3250	0	34.4710	0	27.439	0	1019.470	0	14.5	4	4.5	4	-1E+10	1	-1E+10	1	-1E+10	1	-1E+10	1	-1E+10	1	-1E+10	1
4901784	56	C	01/15/2017	10:46	-132.441	44.341	0	1034.90	0	3.3270	0	34.4730	0	27.441	0	1024.011	0	14.7	4	4.6	4	-1E+10	1	-1E+10	1	-1E+10	1	-1E+10	1	-1E+10	1	-1E+10	1
4901784	56	C	01/15/2017	10:46	-132.441	44.341	0	1039.50	0	3.3270	0	34.4750	0	27.443	0	1028.551	0	14.9	4	4.6	4	-1E+10	1	-1E+10	1	-1E+10	1	-1E+10	1	-1E+10	1	-1E+10	1
4901784	56	C	01/15/2017	10:46	-132.441	44.341	0	1045.10	0	3.3260	0	34.4760	0	27.443	0	1034.078	0	15.1	4	4.7	4	-1E+10	1	-1E+10	1	-1E+10	1	-1E+10	1	-1E+10	1	-1E+10	1
4901784	56	C	01/15/2017	10:46	-132.441	44.341	0	1049.80	0	3.3240	0	34.4780	0	27.445	0	1038.717	0	15.4	4	4.8	4	-1E+10	1	-1E+10	1	-1E+10	1	-1E+10	1	-1E+10	1	-1E+10	1
4901784	56	C	01/15/2017	10:46	-132.441	44.341	0	1054.60	0	3.3160	0	34.4810	0	27.448	0	1043.454	0	15.7	4	4.9	4	-1E+10	1	-1E+10	1	-1E+10	1	-1E+10	1	-1E+10	1	-1E+10	1
4901784	56	C	01/15/2017	10:46	-132.441	44.341	0	1060.00	0	3.3130	0	34.4840	0	27.451	0	1048.784	0	16.1	4	5.0	4	-1E+10	1	-1E+10	1	-1E+10	1	-1E+10	1	-1E+10	1	-1E+10	1
4901784	56	C	01/15/2017	10:46	-132.441	44.341	0	1065.40	0	3.3060	0	34.4880	0	27.455	0	1054.113	0	16.4	4	5.1	4	-1E+10	1	-1E+10	1	-1E+10	1	-1E+10	1	-1E+10	1	-1E+10	1
4901784	56	C	01/15/2017	10:46	-132.441	44.341	0	1070.20	0	3.3050	0	34.4890	0	27.456	0	1058.850	0	16.5	4	5.1	4	-1E+10	1	-1E+10	1	-1E+10	1	-1E+10	1	-1E+10	1	-1E+10	1
4901784	56	C	01/15/2017	10:46	-132.441	44.341	0	1075.20	0	3.3000	0	34.4910	0	27.458	0	1063.784	0	16.7	4	5.2	4	-1E+10	1	-1E+10	1	-1E+10	1	-1E+10	1	-1E+10	1	-1E+10	1
4901784	56	C	01/15/2017	10:46	-132.441	44.341	0	1080.10	0	3.2950	0	34.4920	0	27.459	0	1068.620	0	16.8	4	5.2	4	-1E+10	1	-1E+10	1	-1E+10	1	-1E+10	1	-1E+10	1	-1E+10	1
4901784	56	C	01/15/2017	10:46	-132.441	44.341	0	1085.00	0	3.2900	0	34.4930	0	27.461	0	1073.455	0	16.8	4	5.2	4	-1E+10	1	-1E+10	1	-1E+10	1	-1E+10	1	-1E+10	1	-1E+10	1
4901784	56	C	01/15/2017	10:46	-132.441	44.341	0	1089.90	0	3.2880	0	34.4930	0	27.461	0	1078.291	0	16.8	4	5.2	4	-1E+10	1	-1E+10	1	-1E+10	1	-1E+10	1	-1E+10	1	-1E+10	1
4901784	56	C	01/15/2017	10:46	-132.441	44.341	0	1095.00	0	3.2800	0	34.4930	0	27.462	0	1083.323	0	16.8	4	5.2	4	-1E+10	1	-1E+10	1	-1E+10	1	-1E+10	1	-1E+10	1	-1E+10	1
4901784	56	C	01/15/2017	10:46	-132.441	44.341	0	1100.10	0	3.2730	0	34.4940	0	27.463	0	1088.355	0	16.8	4	5.2	4	-1E+10	1	-1E+10	1	-1E+10	1	-1E+10	1	-1E+10	1	-1E+10	1
4901784	56	C	01/15/2017	10:46	-132.441	44.341	0	1105.10	0	3.2600	0	34.4940	0	27.464	0	1093.289	0	16.8	4	5.2	4	-1E+10	1	-1E+10	1	-1E+10	1	-1E+10	1	-1E+10	1	-1E+10	1
4901784	56	C	01/15/2017	10:46	-132.441	44.341	0	1110.10	0	3.2440	0	34.4960	0	27.468	0	1098.223	0	16.9	4	5.3	4	-1E+10	1	-1E+10	1	-1E+10	1	-1E+10	1	-1E+10	1	-1E+10	1
4901784	56	C	01/15/2017	10:46	-132.441	44.341	0	1115.10	0	3.2370	0	34.4970	0	27.469	0	1103.156	0	17.0	4	5.3	4	-1E+10	1	-1E+10	1	-1E+10	1	-1E+10	1	-1E+10	1	-1E+10	1
4901784	56	C	01/15/2017	10:46	-132.441	44.341	0	1120.10	0	3.2350	0	34.4980	0	27.470	0	1108.089	0	17.2	4	5.3	4	-1E+10	1	-1E+10	1	-1E+10	1	-1E+10	1	-1E+10	1	-1E+10	1
4901784	56	C	01/15/2017	10:46	-132.441	44.341	0	1125.30	0	3.2320	0	34.4990	0	27.471	0	1113.220	0	17.3	4	5.4	4	-1E+10	1	-1E+10	1	-1E+10	1	-1E+10	1	-1E+10	1	-1E+10	1
4901784	56	C	01/15/2017	10:46	-132.441	44.341	0	1130.40	0	3.2290	0	34.5010	0	27.473	0	1118.251	0	17.5	4	5.4	4	-1E+10	1	-1E+10	1	-1E+10	1	-1E+10	1	-1E+10	1	-1E+10	1
4901784	56	C	01/15/2017	10:46	-132.441	44.341	0	1135.50	0	3.2220	0	34.5020	0	27.475	0	1123.283	0	17.6	4	5.5	4	-1E+10	1	-1E+10	1	-1E+10	1	-1E+10	1	-1E+10	1	-1E+10	1
4901784	56	C	01/15/2017	10:46	-132.441	44.341	0	1140.60	0	3.2140	0	34.5030	0	27.476	0	1128.314	0	17.6	4	5.5	4	-1E+10	1	-1E+10	1	-1E+10	1	-1E+10	1	-1E+10	1	-1E+10	1
4901784	56	C	01/15/2017	10:46	-132.441	44.341	0	1145.70	0	3.2090	0	34.5030	0	27.477	0	1133.346	0	17.7	4	5.5	4	-1E+10	1	-1E+10	1	-1E+10	1	-1E+10	1	-1E+10	1	-1E+10	1
4901784	56	C	01/15/2017	10:46	-132.441	44.341	0	1150.00	0	3.2000	0	34.5040	0	27.478	0	1137.588	0	17.8	4	5.5	4	-1E+10	1	-1E+10	1	-1E+10	1	-1E+10	1	-1E+10	1	-1E+10	1
4901784	56	C	01/15/2017	10:46	-132.441	44.341	0	1154.20	0	3.1910	0	34.5050	0	27.480	0	1141.731	0	17.8	4	5.5	4	-1E+10	1	-1E+10	1	-1E+10	1	-1E+10	1	-1E+10	1	-1E+10	1
4901784	56	C	01/15/2017	10:46	-132.441	44.341	0	1159.40	0	3.1820	0	34.5060	0	27.482	0	1146.861	0	17.9	4	5.6	4	-1E+10	1	-1E+10	1	-1E+10	1	-1E+10	1	-1E+10	1	-1E+10	1
4901784	56	C	01/15/2017	10:46	-132.441	44.341	0	1164.50	0	3.1720	0	34.5070	0	27.483	0	1151.891	0	18.0	4	5.6	4	-1E+10	1	-1E+10	1	-1E+10	1	-1E+10	1	-1E+10	1	-1E+10	1
4901784	56	C	01/15/2017	10:46	-132.441	44.341	0	1169.70	0	3.1630	0	34.5090	0	27.486	0	1157.021	0	18.1	4	5.6	4	-1E+10	1	-1E+10	1	-1E+10	1	-1E+10	1	-1E+10	1	-1E+10	1
4901784	56	C	01/15/2017	10:46	-132.441	44.341	0	1175.00	0	3.1520	0	34.5100	0	27.488	0	1162.249	0	18.2	4	5.6	4	-1E+10	1	-1E+10	1	-1E+10	1	-1E+10	1	-1E+10	1	-1E+10	1
4901784	56	C	01/15/2017	10:46	-132.441	44.341	0	1180.30	0	3.1440	0	34.5110	0	27.489	0	1167.477	0	18.2	4	5.7	4	-1E+10	1	-1E+10	1	-1E+10	1	-1E+10	1	-1E+10	1	-1E+10	1
4901784	56	C	01/15/2017	10:46	-132.441	44.341	0	1185.60	0	3.1370	0	34.5110	0	27.490	0	1172.704	0	18.3	4	5.7	4	-1E+10	1	-1E+10	1	-1E+10	1	-1E+10	1	-1E+10	1	-1E+10	1
4901784	56	C	01/15/2017	10:46	-132.441	44.341	0	1190.20	0	3.1250	0	34.5120	0	27.492	0	1177.241	0	18.4	4	5.7	4	-1E+10	1	-1E+10	1	-1E+10	1	-1E+10	1	-1E+10	1	-1E+10	1
4901784	56	C	01/15/2017	10:46	-132.441	44.341	0	1194.70	0	3.1190	0	34.5130	0	27.493	0	1181.680	0	18.4	4	5.7	4	-1E+10	1	-1E+10	1	-1E+10	1	-1E+10	1	-1E+10	1	-1E+10	1
4901784	56	C	01/15/2017	10:46	-132.441	44.341	0	1200.00	0	3.1120	0	34.5140	0	27.495	0	1186.907	0	18.5	4	5.7	4	-1E+10	1	-1E+10	1	-1E+10	1	-1E+10	1	-1E+10	1	-1E+10	1
4901784	56	C	01/15/2017	10:46	-132.441	44.341	0	1205.50	0	3.1070	0	34.5150	0	27.496	0	1192.331	0	18.6	4	5.8	4	-1E+10	1	-1E+10	1	-1E+10	1	-1E+10	1	-1E+10	1	-1E+10	1
4901784	56	C	01/15/2017	10:46	-132.441	44.341	0	1210.10	0	3.1060	0	34.5150	0	27.496	0	1196.868	0	18.6	4	5.8	4	-1E+10	1	-1E+10	1	-1E+10	1	-1E+10	1	-1E+10	1	-1E+10	1
4901784	56	C	01/15/2017	10:46	-132.441	44.341	0	1214.60	0	3.1030	0	34.5150	0	27.496	0	1201.306	0	18.6	4	5.8	4	-1E+10	1	-1E+10	1	-1E+10	1	-1E+10	1	-1E+10	1	-1E+10	1
4901784	56	C	01/15/2017	10:46	-132.441	44.341	0	1220.00	0	3.0970	0	34.5160	0	27.498	0	1206.631	0	18.7	4	5.8	4	-1E+10	1	-1E+10	1	-1E+10	1	-1E+10	1	-1E+10	1	-1E+10	1
4901784	56	C	01/15/2017	10:46	-132.441	44.341	0	1225.50	0	3.0930	0	34.5170	0	27.499	0	1212.055	0	18.8	4	5.8	4	-1E+10	1	-1E+10	1	-1E+10	1	-1E+10	1	-1E+10	1	-1E+10	1
4901784	56	C	01/15/2017	10:46	-132.441	44.341	0	1230.20	0	3.0940	0	34.5170	0	27.499	0	1216.690	0	18.8	4	5.8	4	-1E+10	1	-1E+10	1	-1E+10	1	-1E+10	1	-1E+10	1	-1E+10	1
4901784	56	C	01/15/2017	10:46	-132.441	44.341	0	1234.80	0	3.0910	0	34.5170	0	27.499	0	1221.226	0	19.0	4	5.9	4	-1E+10	1	-1E+10	1	-1E+10	1	-1E+10	1	-1E+10	1	-1E+10	1
4901784	56	C	01/15/2017	10:46	-132.441	44.341	0	1240.30	0	3.0830	0	34.5180	0	27.501	0	1226.650	0	19.2	4	5.9	4	-1E+10	1	-1E+10	1	-1E+10	1	-1E+10	1	-1E+10	1	-1E+10	1
4901784	56	C	01/15/2017	10:46	-132.441	44.341	0	1245.00	0	3.0720	0	34.5200	0	27.503	0	1231.284	0	19.4	4	6.0	4	-1E+10	1	-1E+10	1	-1E+10	1	-1E+10	1	-1E+10	1	-1E+10	1
4901784	56	C	01/15/2017	10:46	-132.441	44.341	0	1249.60	0	3.0630	0	34.5220	0	27.506	0	1235.820	0	19.5	4	6.0	4	-1E+10	1	-1E+10	1	-1E+10	1	-1E+10	1	-1E+10	1	-1E+10	1
4901784	56	C	01/15/2017	10:46	-132.441	44.341	0	1255.20	0	3.0540	0	34.5230	0	27.508	0	1241.342	0	19.7	4	6.1	4	-1E+10	1	-1E+10	1	-1E+10	1	-1E+10	1	-1E+10	1	-1E+10	1
4901784	56	C	01/15/2017	10:46	-132.441	44.341	0	1259.90	0	3.0460	0	34.5250	0	27.510	0	1245.976	0	19.8	4	6.1	4	-1E+10	1	-1E+10	1	-1E+10	1	-1E+10	1	-1E+10	1	-1E+10	1
4901784	56	C	01/15/2017	10:46	-132.441	44.341	0	1264.60	0	3.0390	0	34.5250	0	27.511	0	1250.610	0	20.0	4	6.2	4	-1E+10	1	-1E+10	1	-1E+10	1	-1E+10	1	-1E+10	1	-1E+10	1
4901784	56	C	01/15/2017	10:46	-132.441	44.341	0	1270.20	0	3.0250	0	34.5270	0	27.513	0	1256.131	0	20.2	4	6.2	4	-1E+10	1	-1E+10	1	-1E+10	1	-1E+10	1	-1E+10	1	-1E+10	1
4901784	56	C	01/15/2017	10:46	-132.441	44.341	0	1275.00	0	3.0200	0	34.5290	0	27.515	0	1260.864	0	20.4	4	6.3	4	-1E+10	1	-1E+10	1	-1E+10	1	-1E+10	1	-1E+10	1	-1E+10	1
4901784	56	C	01/15/2017	10:46	-132.441	44.341	0	1279.60	0	3.0160	0	34.5300	0	27.517	0	1265.399	0	20.6	4	6.4	4	-1E+10	1	-1E+10	1	-1E+10	1	-1E+10	1	-1E+10	1	-1E+10	1
4901784	56	C	01/15/2017	10:46	-132.441	44.341	0	1285.20	0	3.0090	0	34.5310	0	27.518	0	1270.920	0	20.7	4	6.4	4	-1E+10	1	-1E+10	1	-1E+10	1	-1E+10	1	-1E+10	1	-1E+10	1
4901784	56	C	01/15/2017	10:46	-132.441	44.341	0	1289.90	0	3.0010	0	34.5310	0	27.519	0	1275.554	0	20.7	4	6.4	4	-1E+10	1	-1E+10	1	-1E+10	1	-1E+10	1	-1E+10	1	-1E+10	1
4901784	56	C	01/15/2017	10:46	-132.441	44.341	0	1294.60	0	2.9900	0	34.5320	0	27.521	0	1280.187	0	20.9	4	6.5	4	-1E+10	1	-1E+10	1	-1E+10	1	-1E+10	1	-1E+10	1	-1E+10	1
4901784	56	C	01/15/2017	10:46	-132.441	44.341	0	1300.30	0	2.9840	0	34.5330	0	27.522	0	1285.806	0	21.1	4	6.5	4	-1E+10	1	-1E+10	1	-1E+10	1	-1E+10	1	-1E+10	1	-1E+10	1
4901784	56	C	01/15/2017	10:46	-132.441	44.341	0	1304.90	0	2.9750	0	34.5350	0	27.525	0	1290.341	0	21.3	4	6.6	4	-1E+10	1	-1E+10	1	-1E+10	1	-1E+10	1	-1E+10	1	-1E+10	1
4901784	56	C	01/15/2017	10:46	-132.441	44.341	0	1309.60	0	2.9750	0	34.5360	0	27.525	0	1294.974	0	21.5	4	6.6	4	-1E+10	1	-1E+10	1	-1E+10	1	-1E+10	1	-1E+10	1	-1E+10	1
4901784	56	C	01/15/2017	10:46	-132.441	44.341	0	1315.10	0	2.9710	0	34.5370	0	27.527	0	1300.396	0	21.7	4	6.7	4	-1E+10	1	-1E+10	1	-1E+10	1	-1E+10	1	-1E+10	1	-1E+10	1
4901784	56	C	01/15/2017	10:46	-132.441	44.341	0	1319.80	0	2.9670	0	34.5380	0	27.528	0	1305.029	0	21.8	4	6.7	4	-1E+10	1	-1E+10	1	-1E+10	1	-1E+10	1	-1E+10	1	-1E+10	1
4901784	56	C	01/15/2017	10:46	-132.441	44.341	0	1324.70	0	2.9630	0	34.5390	0	27.529	0	1309.858	0	21.9	4	6.8	4	-1E+10	1	-1E+10	1	-1E+10	1	-1E+10	1	-1E+10	1	-1E+10	1
4901784	56	C	01/15/2017	10:46	-132.441	44.341	0	1329.90	0	2.9560	0	34.5400	0	27.530	0	1314.984	0	22.0	4	6.8	4	-1E+10	1	-1E+10	1	-1E+10	1	-1E+10	1	-1E+10	1	-1E+10	1
4901784	56	C	01/15/2017	10:46	-132.441	44.341	0	1334.80	0	2.9480	0	34.5400	0	27.531	0	1319.814	0	22.1	4	6.8	4	-1E+10	1	-1E+10	1	-1E+10	1	-1E+10	1	-1E+10	1	-1E+10	1
4901784	56	C	01/15/2017	10:46	-132.441	44.341	0	1339.70	0	2.9430	0	34.5410	0	27.532	0	1324.643	0	22.2	4	6.8	4	-1E+10	1	-1E+10	1	-1E+10	1	-1E+10	1	-1E+10	1	-1E+10	1
4901784	56	C	01/15/2017	10:46	-132.441	44.341	0	1344.70	0	2.9270	0	34.5420	0	27.535	0	1329.571	0	22.1	4	6.8	4	-1E+10	1	-1E+10	1	-1E+10	1	-1E+10	1	-1E+10	1	-1E+10	1
4901784	56	C	01/15/2017	10:46	-132.441	44.341	0	1349.90	0	2.9040	0	34.5420	0	27.537	0	1334.696	0	22.0	4	6.8	4	-1E+10	1	-1E+10	1	-1E+10	1	-1E+10	1	-1E+10	1	-1E+10	1
4901784	56	C	01/15/2017	10:46	-132.441	44.341	0	1355.00	0	2.8930	0	34.5420	0	27.538	0	1339.723	0	22.1	4	6.8	4	-1E+10	1	-1E+10	1	-1E+10	1	-1E+10	1	-1E+10	1	-1E+10	1
4901784	56	C	01/15/2017	10:46	-132.441	44.341	0	1360.30	0	2.8900	0	34.5420	0	27.538	0	1344.946	0	22.4	4	6.9	4	-1E+10	1	-1E+10	1	-1E+10	1	-1E+10	1	-1E+10	1	-1E+10	1
4901784	56	C	01/15/2017	10:46	-132.441	44.341	0	1364.90	0	2.8830	0	34.5440	0	27.540	0	1349.479	0	22.6	4	7.0	4	-1E+10	1	-1E+10	1	-1E+10	1	-1E+10	1	-1E+10	1	-1E+10	1
4901784	56	C	01/15/2017	10:46	-132.441	44.341	0	1369.40	0	2.8770	0	34.5450	0	27.542	0	1353.914	0	22.8	4	7.0	4	-1E+10	1	-1E+10	1	-1E+10	1	-1E+10	1	-1E+10	1	-1E+10	1
4901784	56	C	01/15/2017	10:46	-132.441	44.341	0	1375.00	0	2.8660	0	34.5460	0	27.543	0	1359.433	0	23.0	4	7.1	4	-1E+10	1	-1E+10	1	-1E+10	1	-1E+10	1	-1E+10	1	-1E+10	1
4901784	56	C	01/15/2017	10:46	-132.441	44.341	0	1380.60	0	2.8560	0	34.5480	0	27.546	0	1364.951	0	23.2	4	7.2	4	-1E+10	1	-1E+10	1	-1E+10	1	-1E+10	1	-1E+10	1	-1E+10	1
4901784	56	C	01/15/2017	10:46	-132.441	44.341	0	1385.20	0	2.8480	0	34.5490	0	27.548	0	1369.484	0	23.4	4	7.2	4	-1E+10	1	-1E+10	1	-1E+10	1	-1E+10	1	-1E+10	1	-1E+10	1
4901784	56	C	01/15/2017	10:46	-132.441	44.341	0	1389.90	0	2.8420	0	34.5500	0	27.549	0	1374.116	0	23.6	4	7.3	4	-1E+10	1	-1E+10	1	-1E+10	1	-1E+10	1	-1E+10	1	-1E+10	1
4901784	56	C	01/15/2017	10:46	-132.441	44.341	0	1395.40	0	2.8320	0	34.5510	0	27.551	0	1379.535	0	23.8	4	7.3	4	-1E+10	1	-1E+10	1	-1E+10	1	-1E+10	1	-1E+10	1	-1E+10	1
4901784	56	C	01/15/2017	10:46	-132.441	44.341	0	1400.10	0	2.8270	0	34.5520	0	27.552	0	1384.166	0	23.9	4	7.4	4	-1E+10	1	-1E+10	1	-1E+10	1	-1E+10	1	-1E+10	1	-1E+10	1
4901784	56	C	01/15/2017	10:46	-132.441	44.341	0	1404.80	0	2.8210	0	34.5520	0	27.552	0	1388.797	0	23.9	4	7.4	4	-1E+10	1	-1E+10	1	-1E+10	1	-1E+10	1	-1E+10	1	-1E+10	1
4901784	56	C	01/15/2017	10:46	-132.441	44.341	0	1410.30	0	2.8010	0	34.5520	0	27.554	0	1394.217	0	23.9	4	7.4	4	-1E+10	1	-1E+10	1	-1E+10	1	-1E+10	1	-1E+10	1	-1E+10	1
4901784	56	C	01/15/2017	10:46	-132.441	44.341	0	1415.10	0	2.7890	0	34.5530	0	27.556	0	1398.946	0	24.0	4	7.4	4	-1E+10	1	-1E+10	1	-1E+10	1	-1E+10	1	-1E+10	1	-1E+10	1
4901784	56	C	01/15/2017	10:46	-132.441	44.341	0	1419.90	0	2.7820	0	34.5530	0	27.557	0	1403.675	0	23.9	4	7.4	4	-1E+10	1	-1E+10	1	-1E+10	1	-1E+10	1	-1E+10	1	-1E+10	1
4901784	56	C	01/15/2017	10:46	-132.441	44.341	0	1424.70	0	2.7600	0	34.5530	0	27.559	0	1408.404	0	23.8	4	7.3	4	-1E+10	1	-1E+10	1	-1E+10	1	-1E+10	1	-1E+10	1	-1E+10	1
4901784	56	C	01/15/2017	10:46	-132.441	44.341	0	1429.50	0	2.7390	0	34.5520	0	27.560	0	1413.133	0	23.8	4	7.3	4	-1E+10	1	-1E+10	1	-1E+10	1	-1E+10	1	-1E+10	1	-1E+10	1
4901784	56	C	01/15/2017	10:46	-132.441	44.341	0	1435.20	0	2.7220	0	34.5540	0	27.563	0	1418.749	0	24.0	4	7.4	4	-1E+10	1	-1E+10	1	-1E+10	1	-1E+10	1	-1E+10	1	-1E+10	1
4901784	56	C	01/15/2017	10:46	-132.441	44.341	0	1440.00	0	2.7170	0	34.5540	0	27.563	0	1423.478	0	24.2	4	7.4	4	-1E+10	1	-1E+10	1	-1E+10	1	-1E+10	1	-1E+10	1	-1E+10	1
4901784	56	C	01/15/2017	10:46	-132.441	44.341	0	1444.90	0	2.7110	0	34.5540	0	27.564	0	1428.305	0	24.3	4	7.5	4	-1E+10	1	-1E+10	1	-1E+10	1	-1E+10	1	-1E+10	1	-1E+10	1
4901784	56	C	01/15/2017	10:46	-132.441	44.341	0	1449.70	0	2.7030	0	34.5550	0	27.565	0	1433.033	0	24.6	4	7.6	4	-1E+10	1	-1E+10	1	-1E+10	1	-1E+10	1	-1E+10	1	-1E+10	1
4901784	56	C	01/15/2017	10:46	-132.441	44.341	0	1454.50	0	2.6880	0	34.5570	0	27.568	0	1437.762	0	24.9	4	7.6	4	-1E+10	1	-1E+10	1	-1E+10	1	-1E+10	1	-1E+10	1	-1E+10	1
4901784	56	C	01/15/2017	10:46	-132.441	44.341	0	1460.40	0	2.6800	0	34.5580	0	27.570	0	1443.574	0	25.3	4	7.8	4	-1E+10	1	-1E+10	1	-1E+10	1	-1E+10	1	-1E+10	1	-1E+10	1
4901784	56	C	01/15/2017	10:46	-132.441	44.341	0	1465.20	0	2.6670	0	34.5610	0	27.573	0	1448.302	0	25.5	4	7.8	4	-1E+10	1	-1E+10	1	-1E+10	1	-1E+10	1	-1E+10	1	-1E+10	1
4901784	56	C	01/15/2017	10:46	-132.441	44.341	0	1470.10	0	2.6570	0	34.5610	0	27.574	0	1453.129	0	25.7	4	7.9	4	-1E+10	1	-1E+10	1	-1E+10	1	-1E+10	1	-1E+10	1	-1E+10	1
4901784	56	C	01/15/2017	10:46	-132.441	44.341	0	1475.00	0	2.6390	0	34.5620	0	27.577	0	1457.955	0	25.7	4	7.9	4	-1E+10	1	-1E+10	1	-1E+10	1	-1E+10	1	-1E+10	1	-1E+10	1
4901784	56	C	01/15/2017	10:46	-132.441	44.341	0	1479.90	0	2.6280	0	34.5620	0	27.577	0	1462.782	0	25.8	4	7.9	4	-1E+10	1	-1E+10	1	-1E+10	1	-1E+10	1	-1E+10	1	-1E+10	1
4901784	56	C	01/15/2017	10:46	-132.441	44.341	0	1484.90	0	2.6200	0	34.5620	0	27.578	0	1467.707	0	25.9	4	7.9	4	-1E+10	1	-1E+10	1	-1E+10	1	-1E+10	1	-1E+10	1	-1E+10	1
4901784	56	C	01/15/2017	10:46	-132.441	44.341	0	1489.70	0	2.6140	0	34.5620	0	27.579	0	1472.434	0	26.0	4	8.0	4	-1E+10	1	-1E+10	1	-1E+10	1	-1E+10	1	-1E+10	1	-1E+10	1
4901784	56	C	01/15/2017	10:46	-132.441	44.341	0	1495.20	0	2.6060	0	34.5630	0	27.580	0	1477.851	0	26.2	4	8.0	4	-1E+10	1	-1E+10	1	-1E+10	1	-1E+10	1	-1E+10	1	-1E+10	1
4901784	56	C	01/15/2017	10:46	-132.441	44.341	0	1500.70	0	2.5960	0	34.5640	0	27.582	0	1483.268	0	26.5	4	8.1	4	-1E+10	1	-1E+10	1	-1E+10	1	-1E+10	1	-1E+10	1	-1E+10	1
4901784	56	C	01/15/2017	10:46	-132.441	44.341	0	1505.20	0	2.5900	0	34.5650	0	27.583	0	1487.700	0	26.7	4	8.2	4	-1E+10	1	-1E+10	1	-1E+10	1	-1E+10	1	-1E+10	1	-1E+10	1
4901784	56	C	01/15/2017	10:46	-132.441	44.341	0	1509.80	0	2.5830	0	34.5650	0	27.584	0	1492.230	0	26.9	4	8.2	4	-1E+10	1	-1E+10	1	-1E+10	1	-1E+10	1	-1E+10	1	-1E+10	1
4901784	56	C	01/15/2017	10:46	-132.441	44.341	0	1515.20	0	2.5690	0	34.5670	0	27.587	0	1497.548	0	27.1	4	8.3	4	-1E+10	1	-1E+10	1	-1E+10	1	-1E+10	1	-1E+10	1	-1E+10	1
4901784	56	C	01/15/2017	10:46	-132.441	44.341	0	1520.70	0	2.5650	0	34.5660	0	27.586	0	1502.965	0	27.3	4	8.4	4	-1E+10	1	-1E+10	1	-1E+10	1	-1E+10	1	-1E+10	1	-1E+10	1
4901784	56	C	01/15/2017	10:46	-132.441	44.341	0	1525.30	0	2.5500	0	34.5680	0	27.589	0	1507.495	0	27.6	4	8.4	4	-1E+10	1	-1E+10	1	-1E+10	1	-1E+10	1	-1E+10	1	-1E+10	1
4901784	56	C	01/15/2017	10:46	-132.441	44.341	0	1529.80	0	2.5380	0	34.5690	0	27.591	0	1511.926	0	28.0	4	8.5	4	-1E+10	1	-1E+10	1	-1E+10	1	-1E+10	1	-1E+10	1	-1E+10	1
4901784	56	C	01/15/2017	10:46	-132.441	44.341	0	1534.70	0	2.5220	0	34.5710	0	27.594	0	1516.751	0	28.3	4	8.6	4	-1E+10	1	-1E+10	1	-1E+10	1	-1E+10	1	-1E+10	1	-1E+10	1
4901784	56	C	01/15/2017	10:46	-132.441	44.341	0	1539.70	0	2.5150	0	34.5710	0	27.595	0	1521.675	0	28.5	4	8.7	4	-1E+10	1	-1E+10	1	-1E+10	1	-1E+10	1	-1E+10	1	-1E+10	1
4901784	56	C	01/15/2017	10:46	-132.441	44.341	0	1544.60	0	2.4930	0	34.5730	0	27.598	0	1526.500	0	28.8	4	8.8	4	-1E+10	1	-1E+10	1	-1E+10	1	-1E+10	1	-1E+10	1	-1E+10	1
4901784	56	C	01/15/2017	10:46	-132.441	44.341	0	1549.50	0	2.4830	0	34.5730	0	27.599	0	1531.325	0	29.0	4	8.9	4	-1E+10	1	-1E+10	1	-1E+10	1	-1E+10	1	-1E+10	1	-1E+10	1
4901784	56	C	01/15/2017	10:46	-132.441	44.341	0	1554.50	0	2.4740	0	34.5740	0	27.600	0	1536.248	0	29.3	4	8.9	4	-1E+10	1	-1E+10	1	-1E+10	1	-1E+10	1	-1E+10	1	-1E+10	1
4901784	56	C	01/15/2017	10:46	-132.441	44.341	0	1559.40	0	2.4610	0	34.5750	0	27.602	0	1541.073	0	29.5	4	9.0	4	-1E+10	1	-1E+10	1	-1E+10	1	-1E+10	1	-1E+10	1	-1E+10	1
4901784	56	C	01/15/2017	10:46	-132.441	44.341	0	1564.30	0	2.4550	0	34.5760	0	27.604	0	1545.897	0	29.7	4	9.1	4	-1E+10	1	-1E+10	1	-1E+10	1	-1E+10	1	-1E+10	1	-1E+10	1
4901784	56	C	01/15/2017	10:46	-132.441	44.341	0	1569.30	0	2.4480	0	34.5760	0	27.604	0	1550.820	0	30.0	4	9.1	4	-1E+10	1	-1E+10	1	-1E+10	1	-1E+10	1	-1E+10	1	-1E+10	1
4901784	56	C	01/15/2017	10:46	-132.441	44.341	0	1574.30	0	2.4370	0	34.5770	0	27.606	0	1555.743	0	30.3	4	9.2	4	-1E+10	1	-1E+10	1	-1E+10	1	-1E+10	1	-1E+10	1	-1E+10	1
4901784	56	C	01/15/2017	10:46	-132.441	44.341	0	1579.30	0	2.4280	0	34.5780	0	27.608	0	1560.665	0	30.6	4	9.3	4	-1E+10	1	-1E+10	1	-1E+10	1	-1E+10	1	-1E+10	1	-1E+10	1
4901784	56	C	01/15/2017	10:46	-132.441	44.341	0	1584.30	0	2.4160	0	34.5800	0	27.610	0	1565.588	0	31.0	4	9.4	4	-1E+10	1	-1E+10	1	-1E+10	1	-1E+10	1	-1E+10	1	-1E+10	1
4901784	56	C	01/15/2017	10:46	-132.441	44.341	0	1589.40	0	2.4050	0	34.5810	0	27.612	0	1570.609	0	31.3	4	9.5	4	-1E+10	1	-1E+10	1	-1E+10	1	-1E+10	1	-1E+10	1	-1E+10	1
4901784	56	C	01/15/2017	10:46	-132.441	44.341	0	1594.40	0	2.3970	0	34.5820	0	27.613	0	1575.531	0	31.6	4	9.6	4	-1E+10	1	-1E+10	1	-1E+10	1	-1E+10	1	-1E+10	1	-1E+10	1
4901784	56	C	01/15/2017	10:46	-132.441	44.341	0	1599.50	0	2.3880	0	34.5830	0	27.615	0	1580.552	0	31.8	4	9.7	4	-1E+10	1	-1E+10	1	-1E+10	1	-1E+10	1	-1E+10	1	-1E+10	1
4901784	56	C	01/15/2017	10:46	-132.441	44.341	0	1604.50	0	2.3820	0	34.5830	0	27.616	0	1585.474	0	32.1	4	9.8	4	-1E+10	1	-1E+10	1	-1E+10	1	-1E+10	1	-1E+10	1	-1E+10	1
4901784	56	C	01/15/2017	10:46	-132.441	44.341	0	1609.70	0	2.3740	0	34.5840	0	27.617	0	1590.592	0	32.4	4	9.9	4	-1E+10	1	-1E+10	1	-1E+10	1	-1E+10	1	-1E+10	1	-1E+10	1
4901784	56	C	01/15/2017	10:46	-132.441	44.341	0	1614.80	0	2.3650	0	34.5850	0	27.619	0	1595.613	0	32.7	4	9.9	4	-1E+10	1	-1E+10	1	-1E+10	1	-1E+10	1	-1E+10	1	-1E+10	1
4901784	56	C	01/15/2017	10:46	-132.441	44.341	0	1620.00	0	2.3600	0	34.5860	0	27.620	0	1600.731	0	32.9	4	10.0	4	-1E+10	1	-1E+10	1	-1E+10	1	-1E+10	1	-1E+10	1	-1E+10	1
4901784	56	C	01/15/2017	10:46	-132.441	44.341	0	1625.20	0	2.3550	0	34.5860	0	27.620	0	1605.850	0	33.2	4	10.1	4	-1E+10	1	-1E+10	1	-1E+10	1	-1E+10	1	-1E+10	1	-1E+10	1
4901784	56	C	01/15/2017	10:46	-132.441	44.341	0	1630.50	0	2.3420	0	34.5880	0	27.623	0	1611.067	0	33.7	4	10.2	4	-1E+10	1	-1E+10	1	-1E+10	1	-1E+10	1	-1E+10	1	-1E+10	1
4901784	56	C	01/15/2017	10:46	-132.441	44.341	0	1635.50	0	2.3320	0	34.5890	0	27.625	0	1615.988	0	34.0	4	10.3	4	-1E+10	1	-1E+10	1	-1E+10	1	-1E+10	1	-1E+10	1	-1E+10	1
4901784	56	C	01/15/2017	10:46	-132.441	44.341	0	1639.50	0	2.3290	0	34.5900	0	27.626	0	1619.925	0	34.2	4	10.4	4	-1E+10	1	-1E+10	1	-1E+10	1	-1E+10	1	-1E+10	1	-1E+10	1
4901784	56	C	01/15/2017	10:46	-132.441	44.341	0	1645.10	0	2.3200	0	34.5910	0	27.627	0	1625.437	0	34.7	4	10.5	4	-1E+10	1	-1E+10	1	-1E+10	1	-1E+10	1	-1E+10	1	-1E+10	1
4901784	56	C	01/15/2017	10:46	-132.441	44.341	0	1650.60	0	2.3080	0	34.5920	0	27.629	0	1630.850	0	35.2	4	10.7	4	-1E+10	1	-1E+10	1	-1E+10	1	-1E+10	1	-1E+10	1	-1E+10	1
4901784	56	C	01/15/2017	10:46	-132.441	44.341	0	1655.50	0	2.2950	0	34.5940	0	27.632	0	1635.672	0	35.6	4	10.8	4	-1E+10	1	-1E+10	1	-1E+10	1	-1E+10	1	-1E+10	1	-1E+10	1
4901784	56	C	01/15/2017	10:46	-132.441	44.341	0	1660.50	0	2.2910	0	34.5940	0	27.632	0	1640.593	0	35.9	4	10.9	4	-1E+10	1	-1E+10	1	-1E+10	1	-1E+10	1	-1E+10	1	-1E+10	1
4901784	56	C	01/15/2017	10:46	-132.441	44.341	0	1665.40	0	2.2830	0	34.5960	0	27.634	0	1645.415	0	36.4	4	11.1	4	-1E+10	1	-1E+10	1	-1E+10	1	-1E+10	1	-1E+10	1	-1E+10	1
4901784	56	C	01/15/2017	10:46	-132.441	44.341	0	1670.40	0	2.2740	0	34.5970	0	27.636	0	1650.336	0	36.9	4	11.2	4	-1E+10	1	-1E+10	1	-1E+10	1	-1E+10	1	-1E+10	1	-1E+10	1
4901784	56	C	01/15/2017	10:46	-132.441	44.341	0	1675.50	0	2.2590	0	34.5980	0	27.638	0	1655.354	0	37.5	4	11.4	4	-1E+10	1	-1E+10	1	-1E+10	1	-1E+10	1	-1E+10	1	-1E+10	1
4901784	56	C	01/15/2017	10:46	-132.441	44.341	0	1680.60	0	2.2500	0	34.6000	0	27.640	0	1660.373	0	37.9	4	11.5	4	-1E+10	1	-1E+10	1	-1E+10	1	-1E+10	1	-1E+10	1	-1E+10	1
4901784	56	C	01/15/2017	10:46	-132.441	44.341	0	1685.70	0	2.2410	0	34.6010	0	27.642	0	1665.392	0	38.3	4	11.6	4	-1E+10	1	-1E+10	1	-1E+10	1	-1E+10	1	-1E+10	1	-1E+10	1
4901784	56	C	01/15/2017	10:46	-132.441	44.341	0	1690.00	0	2.2370	0	34.6020	0	27.643	0	1669.623	0	38.5	4	11.7	4	-1E+10	1	-1E+10	1	-1E+10	1	-1E+10	1	-1E+10	1	-1E+10	1
4901784	56	C	01/15/2017	10:46	-132.441	44.341	0	1694.30	0	2.2300	0	34.6030	0	27.644	0	1673.854	0	38.8	4	11.8	4	-1E+10	1	-1E+10	1	-1E+10	1	-1E+10	1	-1E+10	1	-1E+10	1
4901784	56	C	01/15/2017	10:46	-132.441	44.341	0	1699.50	0	2.2250	0	34.6030	0	27.645	0	1678.971	0	39.1	4	11.9	4	-1E+10	1	-1E+10	1	-1E+10	1	-1E+10	1	-1E+10	1	-1E+10	1
4901784	56	C	01/15/2017	10:46	-132.441	44.341	0	1704.80	0	2.2210	0	34.6050	0	27.647	0	1684.186	0	39.4	4	12.0	4	-1E+10	1	-1E+10	1	-1E+10	1	-1E+10	1	-1E+10	1	-1E+10	1
4901784	56	C	01/15/2017	10:46	-132.441	44.341	0	1710.00	0	2.2150	0	34.6060	0	27.648	0	1689.302	0	39.8	4	12.1	4	-1E+10	1	-1E+10	1	-1E+10	1	-1E+10	1	-1E+10	1	-1E+10	1
4901784	56	C	01/15/2017	10:46	-132.441	44.341	0	1715.20	0	2.2090	0	34.6070	0	27.649	0	1694.419	0	40.2	4	12.2	4	-1E+10	1	-1E+10	1	-1E+10	1	-1E+10	1	-1E+10	1	-1E+10	1
4901784	56	C	01/15/2017	10:46	-132.441	44.341	0	1720.60	0	2.2060	0	34.6080	0	27.651	0	1699.732	0	40.5	4	12.3	4	-1E+10	1	-1E+10	1	-1E+10	1	-1E+10	1	-1E+10	1	-1E+10	1
4901784	56	C	01/15/2017	10:46	-132.441	44.341	0	1725.00	0	2.2010	0	34.6090	0	27.652	0	1704.061	0	40.8	4	12.4	4	-1E+10	1	-1E+10	1	-1E+10	1	-1E+10	1	-1E+10	1	-1E+10	1
4901784	56	C	01/15/2017	10:46	-132.441	44.341	0	1729.50	0	2.1970	0	34.6090	0	27.652	0	1708.488	0	41.0	4	12.4	4	-1E+10	1	-1E+10	1	-1E+10	1	-1E+10	1	-1E+10	1	-1E+10	1
4901784	56	C	01/15/2017	10:46	-132.441	44.341	0	1734.80	0	2.1940	0	34.6100	0	27.653	0	1713.702	0	41.3	4	12.5	4	-1E+10	1	-1E+10	1	-1E+10	1	-1E+10	1	-1E+10	1	-1E+10	1
4901784	56	C	01/15/2017	10:46	-132.441	44.341	0	1740.20	0	2.1840	0	34.6110	0	27.655	0	1719.014	0	41.6	4	12.6	4	-1E+10	1	-1E+10	1	-1E+10	1	-1E+10	1	-1E+10	1	-1E+10	1
4901784	56	C	01/15/2017	10:46	-132.441	44.341	0	1745.70	0	2.1770	0	34.6110	0	27.655	0	1724.425	0	41.9	4	12.7	4	-1E+10	1	-1E+10	1	-1E+10	1	-1E+10	1	-1E+10	1	-1E+10	1
4901784	56	C	01/15/2017	10:46	-132.441	44.341	0	1750.20	0	2.1730	0	34.6120	0	27.657	0	1728.852	0	42.1	4	12.7	4	-1E+10	1	-1E+10	1	-1E+10	1	-1E+10	1	-1E+10	1	-1E+10	1
4901784	56	C	01/15/2017	10:46	-132.441	44.341	0	1754.80	0	2.1680	0	34.6120	0	27.657	0	1733.377	0	42.3	4	12.8	4	-1E+10	1	-1E+10	1	-1E+10	1	-1E+10	1	-1E+10	1	-1E+10	1
4901784	56	C	01/15/2017	10:46	-132.441	44.341	0	1759.90	0	2.1620	0	34.6130	0	27.658	0	1738.394	0	42.5	4	12.9	4	-1E+10	1	-1E+10	1	-1E+10	1	-1E+10	1	-1E+10	1	-1E+10	1
4901784	56	C	01/15/2017	10:46	-132.441	44.341	0	1765.00	0	2.1580	0	34.6140	0	27.659	0	1743.411	0	42.7	4	12.9	4	-1E+10	1	-1E+10	1	-1E+10	1	-1E+10	1	-1E+10	1	-1E+10	1
4901784	56	C	01/15/2017	10:46	-132.441	44.341	0	1770.70	0	2.1550	0	34.6140	0	27.660	0	1749.018	0	42.9	4	13.0	4	-1E+10	1	-1E+10	1	-1E+10	1	-1E+10	1	-1E+10	1	-1E+10	1
4901784	56	C	01/15/2017	10:46	-132.441	44.341	0	1775.70	0	2.1520	0	34.6150	0	27.661	0	1753.936	0	43.2	4	13.1	4	-1E+10	1	-1E+10	1	-1E+10	1	-1E+10	1	-1E+10	1	-1E+10	1
4901784	56	C	01/15/2017	10:46	-132.441	44.341	0	1780.50	0	2.1500	0	34.6150	0	27.661	0	1758.657	0	43.5	4	13.2	4	-1E+10	1	-1E+10	1	-1E+10	1	-1E+10	1	-1E+10	1	-1E+10	1
4901784	56	C	01/15/2017	10:46	-132.441	44.341	0	1785.40	0	2.1430	0	34.6160	0	27.662	0	1763.477	0	43.9	4	13.3	4	-1E+10	1	-1E+10	1	-1E+10	1	-1E+10	1	-1E+10	1	-1E+10	1
4901784	56	C	01/15/2017	10:46	-132.441	44.341	0	1790.40	0	2.1380	0	34.6170	0	27.664	0	1768.394	0	44.2	4	13.4	4	-1E+10	1	-1E+10	1	-1E+10	1	-1E+10	1	-1E+10	1	-1E+10	1
4901784	56	C	01/15/2017	10:46	-132.441	44.341	0	1795.40	0	2.1310	0	34.6180	0	27.665	0	1773.312	0	44.7	4	13.5	4	-1E+10	1	-1E+10	1	-1E+10	1	-1E+10	1	-1E+10	1	-1E+10	1
4901784	56	C	01/15/2017	10:46	-132.441	44.341	0	1800.50	0	2.1240	0	34.6190	0	27.666	0	1778.328	0	45.1	4	13.6	4	-1E+10	1	-1E+10	1	-1E+10	1	-1E+10	1	-1E+10	1	-1E+10	1
4901784	56	C	01/15/2017	10:46	-132.441	44.341	0	1805.60	0	2.1170	0	34.6200	0	27.668	0	1783.344	0	45.4	4	13.7	4	-1E+10	1	-1E+10	1	-1E+10	1	-1E+10	1	-1E+10	1	-1E+10	1
4901784	56	C	01/15/2017	10:46	-132.441	44.341	0	1810.70	0	2.1130	0	34.6200	0	27.668	0	1788.359	0	45.7	4	13.8	4	-1E+10	1	-1E+10	1	-1E+10	1	-1E+10	1	-1E+10	1	-1E+10	1
4901784	56	C	01/15/2017	10:46	-132.441	44.341	0	1815.00	0	2.1080	0	34.6210	0	27.669	0	1792.588	0	46.1	4	13.9	4	-1E+10	1	-1E+10	1	-1E+10	1	-1E+10	1	-1E+10	1	-1E+10	1
4901784	56	C	01/15/2017	10:46	-132.441	44.341	0	1819.40	0	2.1020	0	34.6220	0	27.671	0	1796.915	0	46.4	4	14.0	4	-1E+10	1	-1E+10	1	-1E+10	1	-1E+10	1	-1E+10	1	-1E+10	1
4901784	56	C	01/15/2017	10:46	-132.441	44.341	0	1824.70	0	2.0960	0	34.6230	0	27.672	0	1802.127	0	46.7	4	14.1	4	-1E+10	1	-1E+10	1	-1E+10	1	-1E+10	1	-1E+10	1	-1E+10	1
4901784	56	C	01/15/2017	10:46	-132.441	44.341	0	1830.00	0	2.0930	0	34.6240	0	27.673	0	1807.339	0	47.0	4	14.2	4	-1E+10	1	-1E+10	1	-1E+10	1	-1E+10	1	-1E+10	1	-1E+10	1
4901784	56	C	01/15/2017	10:46	-132.441	44.341	0	1835.20	0	2.0870	0	34.6250	0	27.674	0	1812.453	0	47.4	4	14.3	4	-1E+10	1	-1E+10	1	-1E+10	1	-1E+10	1	-1E+10	1	-1E+10	1
4901784	56	C	01/15/2017	10:46	-132.441	44.341	0	1840.50	0	2.0820	0	34.6260	0	27.675	0	1817.664	0	47.7	4	14.4	4	-1E+10	1	-1E+10	1	-1E+10	1	-1E+10	1	-1E+10	1	-1E+10	1
4901784	56	C	01/15/2017	10:46	-132.441	44.341	0	1844.90	0	2.0780	0	34.6260	0	27.676	0	1821.991	0	47.9	4	14.5	4	-1E+10	1	-1E+10	1	-1E+10	1	-1E+10	1	-1E+10	1	-1E+10	1
4901784	56	C	01/15/2017	10:46	-132.441	44.341	0	1849.30	0	2.0750	0	34.6270	0	27.677	0	1826.318	0	48.1	4	14.5	4	-1E+10	1	-1E+10	1	-1E+10	1	-1E+10	1	-1E+10	1	-1E+10	1
4901784	56	C	01/15/2017	10:46	-132.441	44.341	0	1854.70	0	2.0720	0	34.6270	0	27.677	0	1831.627	0	48.3	4	14.6	4	-1E+10	1	-1E+10	1	-1E+10	1	-1E+10	1	-1E+10	1	-1E+10	1
4901784	56	C	01/15/2017	10:46	-132.441	44.341	0	1860.00	0	2.0680	0	34.6280	0	27.678	0	1836.838	0	48.6	4	14.7	4	-1E+10	1	-1E+10	1	-1E+10	1	-1E+10	1	-1E+10	1	-1E+10	1
4901784	56	C	01/15/2017	10:46	-132.441	44.341	0	1865.40	0	2.0640	0	34.6280	0	27.679	0	1842.148	0	48.9	4	14.8	4	-1E+10	1	-1E+10	1	-1E+10	1	-1E+10	1	-1E+10	1	-1E+10	1
4901784	56	C	01/15/2017	10:46	-132.441	44.341	0	1870.00	0	2.0610	0	34.6290	0	27.680	0	1846.670	0	49.1	4	14.8	4	-1E+10	1	-1E+10	1	-1E+10	1	-1E+10	1	-1E+10	1	-1E+10	1
4901784	56	C	01/15/2017	10:46	-132.441	44.341	0	1874.50	0	2.0580	0	34.6290	0	27.680	0	1851.095	0	49.3	4	14.9	4	-1E+10	1	-1E+10	1	-1E+10	1	-1E+10	1	-1E+10	1	-1E+10	1
4901784	56	C	01/15/2017	10:46	-132.441	44.341	0	1880.00	0	2.0560	0	34.6300	0	27.681	0	1856.502	0	49.5	4	15.0	4	-1E+10	1	-1E+10	1	-1E+10	1	-1E+10	1	-1E+10	1	-1E+10	1
4901784	56	C	01/15/2017	10:46	-132.441	44.341	0	1885.00	0	2.0530	0	34.6300	0	27.681	0	1861.418	0	49.8	4	15.0	4	-1E+10	1	-1E+10	1	-1E+10	1	-1E+10	1	-1E+10	1	-1E+10	1
4901784	56	C	01/15/2017	10:46	-132.441	44.341	0	1889.30	0	2.0490	0	34.6310	0	27.682	0	1865.645	0	50.1	4	15.1	4	-1E+10	1	-1E+10	1	-1E+10	1	-1E+10	1	-1E+10	1	-1E+10	1
4901784	56	C	01/15/2017	10:46	-132.441	44.341	0	1894.90	0	2.0410	0	34.6320	0	27.684	0	1871.150	0	50.6	4	15.3	4	-1E+10	1	-1E+10	1	-1E+10	1	-1E+10	1	-1E+10	1	-1E+10	1
4901784	56	C	01/15/2017	10:46	-132.441	44.341	0	1900.60	0	2.0340	0	34.6330	0	27.685	0	1876.754	0	51.0	4	15.4	4	-1E+10	1	-1E+10	1	-1E+10	1	-1E+10	1	-1E+10	1	-1E+10	1
4901784	56	C	01/15/2017	10:46	-132.441	44.341	0	1905.50	0	2.0280	0	34.6340	0	27.686	0	1881.571	0	51.4	4	15.5	4	-1E+10	1	-1E+10	1	-1E+10	1	-1E+10	1	-1E+10	1	-1E+10	1
4901784	56	C	01/15/2017	10:46	-132.441	44.341	0	1910.40	0	2.0250	0	34.6340	0	27.687	0	1886.387	0	51.9	4	15.7	4	-1E+10	1	-1E+10	1	-1E+10	1	-1E+10	1	-1E+10	1	-1E+10	1
4901784	56	C	01/15/2017	10:46	-132.441	44.341	0	1915.30	0	2.0210	0	34.6350	0	27.688	0	1891.204	0	52.3	4	15.8	4	-1E+10	1	-1E+10	1	-1E+10	1	-1E+10	1	-1E+10	1	-1E+10	1
4901784	56	C	01/15/2017	10:46	-132.441	44.341	0	1920.30	0	2.0200	0	34.6370	0	27.690	0	1896.119	0	52.8	4	15.9	4	-1E+10	1	-1E+10	1	-1E+10	1	-1E+10	1	-1E+10	1	-1E+10	1
4901784	56	C	01/15/2017	10:46	-132.441	44.341	0	1925.30	0	2.0140	0	34.6380	0	27.691	0	1901.034	0	53.1	4	16.0	4	-1E+10	1	-1E+10	1	-1E+10	1	-1E+10	1	-1E+10	1	-1E+10	1
4901784	56	C	01/15/2017	10:46	-132.441	44.341	0	1930.30	0	2.0120	0	34.6380	0	27.691	0	1905.948	0	53.3	4	16.1	4	-1E+10	1	-1E+10	1	-1E+10	1	-1E+10	1	-1E+10	1	-1E+10	1
4901784	56	C	01/15/2017	10:46	-132.441	44.341	0	1935.40	0	2.0100	0	34.6390	0	27.692	0	1910.961	0	53.7	4	16.2	4	-1E+10	1	-1E+10	1	-1E+10	1	-1E+10	1	-1E+10	1	-1E+10	1
4901784	56	C	01/15/2017	10:46	-132.441	44.341	0	1940.50	0	2.0080	0	34.6390	0	27.692	0	1915.974	0	54.0	4	16.3	4	-1E+10	1	-1E+10	1	-1E+10	1	-1E+10	1	-1E+10	1	-1E+10	1
4901784	56	C	01/15/2017	10:46	-132.441	44.341	0	1945.50	0	2.0020	0	34.6400	0	27.693	0	1920.888	0	54.5	4	16.4	4	-1E+10	1	-1E+10	1	-1E+10	1	-1E+10	1	-1E+10	1	-1E+10	1
4901784	56	C	01/15/2017	10:46	-132.441	44.341	0	1950.60	0	1.9970	0	34.6410	0	27.695	0	1925.900	0	54.8	4	16.5	4	-1E+10	1	-1E+10	1	-1E+10	1	-1E+10	1	-1E+10	1	-1E+10	1
4901784	56	C	01/15/2017	10:46	-132.441	44.341	0	1955.70	0	1.9930	0	34.6410	0	27.695	0	1930.913	0	55.1	4	16.6	4	-1E+10	1	-1E+10	1	-1E+10	1	-1E+10	1	-1E+10	1	-1E+10	1
4901784	56	C	01/15/2017	10:46	-132.441	44.341	0	1960.00	0	1.9880	0	34.6420	0	27.696	0	1935.139	0	55.4	4	16.7	4	-1E+10	1	-1E+10	1	-1E+10	1	-1E+10	1	-1E+10	1	-1E+10	1
4901784	56	C	01/15/2017	10:46	-132.441	44.341	0	1964.30	0	1.9850	0	34.6430	0	27.697	0	1939.365	0	55.7	4	16.8	4	-1E+10	1	-1E+10	1	-1E+10	1	-1E+10	1	-1E+10	1	-1E+10	1
4901784	56	C	01/15/2017	10:46	-132.441	44.341	0	1969.50	0	1.9820	0	34.6430	0	27.698	0	1944.475	0	56.0	4	16.9	4	-1E+10	1	-1E+10	1	-1E+10	1	-1E+10	1	-1E+10	1	-1E+10	1
4901784	56	C	01/15/2017	10:46	-132.441	44.341	0	1974.70	0	1.9780	0	34.6440	0	27.699	0	1949.585	0	56.3	4	17.0	4	-1E+10	1	-1E+10	1	-1E+10	1	-1E+10	1	-1E+10	1	-1E+10	1
4901784	56	C	01/15/2017	10:46	-132.441	44.341	0	1979.80	0	1.9720	0	34.6450	0	27.700	0	1954.597	0	56.7	4	17.1	4	-1E+10	1	-1E+10	1	-1E+10	1	-1E+10	1	-1E+10	1	-1E+10	1
4901784	56	C	01/15/2017	10:46	-132.441	44.341	0	1985.00	0	1.9690	0	34.6460	0	27.701	0	1959.707	0	57.0	4	17.2	4	-1E+10	1	-1E+10	1	-1E+10	1	-1E+10	1	-1E+10	1	-1E+10	1
4901784	56	C	01/15/2017	10:46	-132.441	44.341	0	1990.30	0	1.9630	0	34.6460	0	27.702	0	1964.915	0	57.4	4	17.3	4	-1E+10	1	-1E+10	1	-1E+10	1	-1E+10	1	-1E+10	1	-1E+10	1
4901784	56	C	01/15/2017	10:46	-132.441	44.341	0	1995.50	0	1.9580	0	34.6470	0	27.703	0	1970.024	0	57.8	4	17.4	4	-1E+10	1	-1E+10	1	-1E+10	1	-1E+10	1	-1E+10	1	-1E+10	1
4901784	56	C	01/15/2017	10:46	-132.441	44.341	0	2000.10	0	1.9540	0	34.6480	0	27.704	0	1974.544	0	58.0	4	17.5	4	-1E+10	1	-1E+10	1	-1E+10	1	-1E+10	1	-1E+10	1	-1E+10	1
4901784	56	C	01/15/2017	10:46	-132.441	44.341	0	2006.00	0	1.9500	0	34.6490	0	27.705	0	1980.341	0	58.1	4	17.5	4	-1E+10	1	-1E+10	1	-1E+10	1	-1E+10	1	-1E+10	1	-1E+10	1
4901784	56	C	01/15/2017	10:46	-132.441	44.341	0	2010.60	0	1.9490	0	34.6490	0	27.705	0	1984.861	0	58.2	4	17.5	4	-1E+10	1	-1E+10	1	-1E+10	1	-1E+10	1	-1E+10	1	-1E+10	1
4901784	56	C	01/15/2017	10:46	-132.441	44.341	0	2015.30	0	1.9480	0	34.6490	0	27.705	0	1989.479	0	58.4	4	17.6	4	-1E+10	1	-1E+10	1	-1E+10	1	-1E+10	1	-1E+10	1	-1E+10	1
4901784	56	C	01/15/2017	10:46	-132.441	44.341	0	2019.20	0	1.9440	0	34.6500	0	27.706	0	1993.311	0	57.1	8	17.2	8	-1E+10	1	-1E+10	1	-1E+10	1	-1E+10	1	-1E+10	1	-1E+10	1
4901784	56	C	01/15/2017	10:46	-132.441	44.341	0																										
4901784	57	C	01/25/2017	10:46	-132.467	44.212	0	2.70	0	9.5160	0	32.8200	0	25.330	0	2.678	0	266.3	4	94.5	4	-1E+10	1	-1E+10	1	-1E+10	1	-1E+10	1	-1E+10	1	-1E+10	1
4901784	57	C	01/25/2017	10:46	-132.467	44.212	0	4.40	0	9.5150	0	32.8200	0	25.330	0	4.365	0	266.4	4	94.5	4	-1E+10	1	-1E+10	1	-1E+10	1	-1E+10	1	-1E+10	1	-1E+10	1
4901784	57	C	01/25/2017	10:46	-132.467	44.212	0	6.10	0	9.5140	0	32.8200	0	25.330	0	6.051	0	266.3	4	94.5	4	-1E+10	1	-1E+10	1	-1E+10	1	-1E+10	1	-1E+10	1	-1E+10	1
4901784	57	C	01/25/2017	10:46	-132.467	44.212	0	8.00	0	9.5150	0	32.8200	0	25.330	0	7.935	0	266.3	4	94.5	4	-1E+10	1	-1E+10	1	-1E+10	1	-1E+10	1	-1E+10	1	-1E+10	1
4901784	57	C	01/25/2017	10:46	-132.467	44.212	0	9.80	0	9.5160	0	32.8200	0	25.330	0	9.721	0	266.4	4	94.5	4	-1E+10	1	-1E+10	1	-1E+10	1	-1E+10	1	-1E+10	1	-1E+10	1
4901784	57	C	01/25/2017	10:46	-132.467	44.212	0	11.70	0	9.5160	0	32.8200	0	25.330	0	11.606	0	266.2	4	94.4	4	-1E+10	1	-1E+10	1	-1E+10	1	-1E+10	1	-1E+10	1	-1E+10	1
4901784	57	C	01/25/2017	10:46	-132.467	44.212	0	13.60	0	9.5160	0	32.8200	0	25.330	0	13.490	0	266.2	4	94.4	4	-1E+10	1	-1E+10	1	-1E+10	1	-1E+10	1	-1E+10	1	-1E+10	1
4901784	57	C	01/25/2017	10:46	-132.467	44.212	0	15.40	0	9.5160	0	32.8200	0	25.330	0	15.276	0	266.2	4	94.4	4	-1E+10	1	-1E+10	1	-1E+10	1	-1E+10	1	-1E+10	1	-1E+10	1
4901784	57	C	01/25/2017	10:46	-132.467	44.212	0	17.30	0	9.5160	0	32.8200	0	25.330	0	17.160	0	266.2	4	94.4	4	-1E+10	1	-1E+10	1	-1E+10	1	-1E+10	1	-1E+10	1	-1E+10	1
4901784	57	C	01/25/2017	10:46	-132.467	44.212	0	19.10	0	9.5160	0	32.8210	0	25.331	0	18.945	0	266.1	4	94.4	4	-1E+10	1	-1E+10	1	-1E+10	1	-1E+10	1	-1E+10	1	-1E+10	1
4901784	57	C	01/25/2017	10:46	-132.467	44.212	0	21.00	0	9.5160	0	32.8200	0	25.330	0	20.830	0	266.0	4	94.4	4	-1E+10	1	-1E+10	1	-1E+10	1	-1E+10	1	-1E+10	1	-1E+10	1
4901784	57	C	01/25/2017	10:46	-132.467	44.212	0	22.80	0	9.5170	0	32.8200	0	25.330	0	22.615	0	266.0	4	94.4	4	-1E+10	1	-1E+10	1	-1E+10	1	-1E+10	1	-1E+10	1	-1E+10	1
4901784	57	C	01/25/2017	10:46	-132.467	44.212	0	24.70	0	9.5160	0	32.8210	0	25.331	0	24.500	0	266.1	4	94.4	4	-1E+10	1	-1E+10	1	-1E+10	1	-1E+10	1	-1E+10	1	-1E+10	1
4901784	57	C	01/25/2017	10:46	-132.467	44.212	0	26.40	0	9.5170	0	32.8210	0	25.331	0	26.186	0	266.0	4	94.4	4	-1E+10	1	-1E+10	1	-1E+10	1	-1E+10	1	-1E+10	1	-1E+10	1
4901784	57	C	01/25/2017	10:46	-132.467	44.212	0	28.30	0	9.5170	0	32.8210	0	25.331	0	28.070	0	266.2	4	94.4	4	-1E+10	1	-1E+10	1	-1E+10	1	-1E+10	1	-1E+10	1	-1E+10	1
4901784	57	C	01/25/2017	10:46	-132.467	44.212	0	30.10	0	9.5170	0	32.8230	0	25.333	0	29.856	0	266.0	4	94.4	4	-1E+10	1	-1E+10	1	-1E+10	1	-1E+10	1	-1E+10	1	-1E+10	1
4901784	57	C	01/25/2017	10:46	-132.467	44.212	0	32.00	0	9.5170	0	32.8230	0	25.333	0	31.740	0	266.2	4	94.4	4	-1E+10	1	-1E+10	1	-1E+10	1	-1E+10	1	-1E+10	1	-1E+10	1
4901784	57	C	01/25/2017	10:46	-132.467	44.212	0	33.80	0	9.5160	0	32.8230	0	25.333	0	33.525	0	266.1	4	94.4	4	-1E+10	1	-1E+10	1	-1E+10	1	-1E+10	1	-1E+10	1	-1E+10	1
4901784	57	C	01/25/2017	10:46	-132.467	44.212	0	35.70	0	9.5160	0	32.8230	0	25.333	0	35.410	0	266.1	4	94.4	4	-1E+10	1	-1E+10	1	-1E+10	1	-1E+10	1	-1E+10	1	-1E+10	1
4901784	57	C	01/25/2017	10:46	-132.467	44.212	0	37.60	0	9.5170	0	32.8230	0	25.333	0	37.294	0	266.0	4	94.4	4	-1E+10	1	-1E+10	1	-1E+10	1	-1E+10	1	-1E+10	1	-1E+10	1
4901784	57	C	01/25/2017	10:46	-132.467	44.212	0	39.50	0	9.5180	0	32.8230	0	25.333	0	39.178	0	266.1	4	94.4	4	-1E+10	1	-1E+10	1	-1E+10	1	-1E+10	1	-1E+10	1	-1E+10	1
4901784	57	C	01/25/2017	10:46	-132.467	44.212	0	41.30	0	9.5160	0	32.8230	0	25.333	0	40.964	0	265.9	4	94.3	4	-1E+10	1	-1E+10	1	-1E+10	1	-1E+10	1	-1E+10	1	-1E+10	1
4901784	57	C	01/25/2017	10:46	-132.467	44.212	0	43.20	0	9.5150	0	32.8230	0	25.333	0	42.848	0	266.1	4	94.4	4	-1E+10	1	-1E+10	1	-1E+10	1	-1E+10	1	-1E+10	1	-1E+10	1
4901784	57	C	01/25/2017	10:46	-132.467	44.212	0	45.10	0	9.5150	0	32.8230	0	25.333	0	44.732	0	265.9	4	94.3	4	-1E+10	1	-1E+10	1	-1E+10	1	-1E+10	1	-1E+10	1	-1E+10	1
4901784	57	C	01/25/2017	10:46	-132.467	44.212	0	47.00	0	9.5160	0	32.8230	0	25.333	0	46.617	0	266.1	4	94.4	4	-1E+10	1	-1E+10	1	-1E+10	1	-1E+10	1	-1E+10	1	-1E+10	1
4901784	57	C	01/25/2017	10:46	-132.467	44.212	0	48.90	0	9.5140	0	32.8230	0	25.333	0	48.501	0	266.0	4	94.4	4	-1E+10	1	-1E+10	1	-1E+10	1	-1E+10	1	-1E+10	1	-1E+10	1
4901784	57	C	01/25/2017	10:46	-132.467	44.212	0	50.70	0	9.5130	0	32.8230	0	25.334	0	50.286	0	266.0	4	94.4	4	-1E+10	1	-1E+10	1	-1E+10	1	-1E+10	1	-1E+10	1	-1E+10	1
4901784	57	C	01/25/2017	10:46	-132.467	44.212	0	52.60	0	9.5130	0	32.8230	0	25.334	0	52.170	0	265.9	4	94.3	4	-1E+10	1	-1E+10	1	-1E+10	1	-1E+10	1	-1E+10	1	-1E+10	1
4901784	57	C	01/25/2017	10:46	-132.467	44.212	0	54.40	0	9.5120	0	32.8230	0	25.334	0	53.955	0	265.9	4	94.3	4	-1E+10	1	-1E+10	1	-1E+10	1	-1E+10	1	-1E+10	1	-1E+10	1
4901784	57	C	01/25/2017	10:46	-132.467	44.212	0	56.20	0	9.5110	0	32.8240	0	25.335	0	55.740	0	265.9	4	94.3	4	-1E+10	1	-1E+10	1	-1E+10	1	-1E+10	1	-1E+10	1	-1E+10	1
4901784	57	C	01/25/2017	10:46	-132.467	44.212	0	58.10	0	9.5110	0	32.8240	0	25.335	0	57.624	0	265.9	4	94.3	4	-1E+10	1	-1E+10	1	-1E+10	1	-1E+10	1	-1E+10	1	-1E+10	1
4901784	57	C	01/25/2017	10:46	-132.467	44.212	0	59.90	0	9.5110	0	32.8240	0	25.335	0	59.409	0	265.8	4	94.3	4	-1E+10	1	-1E+10	1	-1E+10	1	-1E+10	1	-1E+10	1	-1E+10	1
4901784	57	C	01/25/2017	10:46	-132.467	44.212	0	61.80	0	9.5110	0	32.8240	0	25.335	0	61.294	0	265.7	4	94.3	4	-1E+10	1	-1E+10	1	-1E+10	1	-1E+10	1	-1E+10	1	-1E+10	1
4901784	57	C	01/25/2017	10:46	-132.467	44.212	0	63.70	0	9.5110	0	32.8240	0	25.335	0	63.178	0	265.6	4	94.2	4	-1E+10	1	-1E+10	1	-1E+10	1	-1E+10	1	-1E+10	1	-1E+10	1
4901784	57	C	01/25/2017	10:46	-132.467	44.212	0	65.50	0	9.5110	0	32.8240	0	25.335	0	64.963	0	265.6	4	94.2	4	-1E+10	1	-1E+10	1	-1E+10	1	-1E+10	1	-1E+10	1	-1E+10	1
4901784	57	C	01/25/2017	10:46	-132.467	44.212	0	67.40	0	9.5120	0	32.8240	0	25.335	0	66.847	0	265.3	4	94.1	4	-1E+10	1	-1E+10	1	-1E+10	1	-1E+10	1	-1E+10	1	-1E+10	1
4901784	57	C	01/25/2017	10:46	-132.467	44.212	0	69.30	0	9.5110	0	32.8240	0	25.335	0	68.731	0	265.1	4	94.0	4	-1E+10	1	-1E+10	1	-1E+10	1	-1E+10	1	-1E+10	1	-1E+10	1
4901784	57	C	01/25/2017	10:46	-132.467	44.212	0	71.10	0	9.5100	0	32.8240	0	25.335	0	70.516	0	264.9	4	94.0	4	-1E+10	1	-1E+10	1	-1E+10	1	-1E+10	1	-1E+10	1	-1E+10	1
4901784	57	C	01/25/2017	10:46	-132.467	44.212	0	73.00	0	9.5100	0	32.8240	0	25.335	0	72.400	0	264.5	4	93.8	4	-1E+10	1	-1E+10	1	-1E+10	1	-1E+10	1	-1E+10	1	-1E+10	1
4901784	57	C	01/25/2017	10:46	-132.467	44.212	0	75.10	0	9.5120	0	32.8240	0	25.335	0	74.482	0	263.9	4	93.6	4	-1E+10	1	-1E+10	1	-1E+10	1	-1E+10	1	-1E+10	1	-1E+10	1
4901784	57	C	01/25/2017	10:46	-132.467	44.212	0	75.60	0	9.5110	0	32.8240	0	25.335	0	74.978	0	263.7	4	93.6	4	-1E+10	1	-1E+10	1	-1E+10	1	-1E+10	1	-1E+10	1	-1E+10	1
4901784	57	C	01/25/2017	10:46	-132.467	44.212	0	77.20	0	9.5110	0	32.8240	0	25.335	0	76.565	0	263.2	4	93.4	4	-1E+10	1	-1E+10	1	-1E+10	1	-1E+10	1	-1E+10	1	-1E+10	1
4901784	57	C	01/25/2017	10:46	-132.467	44.212	0	78.70	0	9.5090	0	32.8240	0	25.335	0	78.052	0	262.1	4	93.0	4	-1E+10	1	-1E+10	1	-1E+10	1	-1E+10	1	-1E+10	1	-1E+10	1
4901784	57	C	01/25/2017	10:46	-132.467	44.212	0	80.30	0	9.5090	0	32.8240	0	25.335	0	79.638	0	260.9	4	92.6	4	-1E+10	1	-1E+10	1	-1E+10	1	-1E+10	1	-1E+10	1	-1E+10	1
4901784	57	C	01/25/2017	10:46	-132.467	44.212	0	81.80	0	9.5100	0	32.8240	0	25.335	0	81.126	0	259.0	4	91.9	4	-1E+10	1	-1E+10	1	-1E+10	1	-1E+10	1	-1E+10	1	-1E+10	1
4901784	57	C	01/25/2017	10:46	-132.467	44.212	0	83.30	0	9.5080	0	32.8290	0	25.340	0	82.613	0	256.4	4	90.9	4	-1E+10	1	-1E+10	1	-1E+10	1	-1E+10	1	-1E+10	1	-1E+10	1
4901784	57	C	01/25/2017	10:46	-132.467	44.212	0	84.70	0	9.4980	0	32.8400	0	25.350	0	84.001	0	253.2	4	89.8	4	-1E+10	1	-1E+10	1	-1E+10	1	-1E+10	1	-1E+10	1	-1E+10	1
4901784	57	C	01/25/2017	10:46	-132.467	44.212	0	86.20	0	9.4860	0	32.8590	0	25.367	0	85.489	0	249.7	4	88.5	4	-1E+10	1	-1E+10	1	-1E+10	1	-1E+10	1	-1E+10	1	-1E+10	1
4901784	57	C	01/25/2017	10:46	-132.467	44.212	0	87.80	0	9.4590	0	32.9020	0	25.405	0	87.075	0	245.4	4	87.0	4	-1E+10	1	-1E+10	1	-1E+10	1	-1E+10	1	-1E+10	1	-1E+10	1
4901784	57	C	01/25/2017	10:46	-132.467	44.212	0	89.30	0	9.4200	0	32.9660	0	25.461	0	88.562	0	241.1	4	85.4	4	-1E+10	1	-1E+10	1	-1E+10	1	-1E+10	1	-1E+10	1	-1E+10	1
4901784	57	C	01/25/2017	10:46	-132.467	44.212	0	90.80	0	9.3880	0	33.0100	0	25.501	0	90.050	0	236.9	4	83.9	4	-1E+10	1	-1E+10	1	-1E+10	1	-1E+10	1	-1E+10	1	-1E+10	1
4901784	57	C	01/25/2017	10:46	-132.467	44.212	0	92.40	0	9.3600	0	33.0460	0	25.533	0	91.636	0	232.3	4	82.3	4	-1E+10	1	-1E+10	1	-1E+10	1	-1E+10	1	-1E+10	1	-1E+10	1
4901784	57	C	01/25/2017	10:46	-132.467	44.212	0	94.40	0	9.1920	0	33.2090	0	25.687	0	93.619	0	226.4	4	80.0	4	-1E+10	1	-1E+10	1	-1E+10	1	-1E+10	1	-1E+10	1	-1E+10	1
4901784	57	C	01/25/2017	10:46	-132.467	44.212	0	94.80	0	9.1760	0	33.2280	0	25.705	0	94.016	0	225.4	4	79.6	4	-1E+10	1	-1E+10	1	-1E+10	1	-1E+10	1	-1E+10	1	-1E+10	1
4901784	57	C	01/25/2017	10:46	-132.467	44.212	0	96.30	0	9.1250	0	33.3020	0	25.771	0	95.503	0	223.4	4	78.9	4	-1E+10	1	-1E+10	1	-1E+10	1	-1E+10	1	-1E+10	1	-1E+10	1
4901784	57	C	01/25/2017	10:46	-132.467	44.212	0	97.90	0	9.1050	0	33.3090	0	25.780	0	97.089	0	221.8	4	78.3	4	-1E+10	1	-1E+10	1	-1E+10	1	-1E+10	1	-1E+10	1	-1E+10	1
4901784	57	C	01/25/2017	10:46	-132.467	44.212	0	99.40	0	9.0970	0	33.3100	0	25.782	0	98.577	0	219.8	4	77.5	4	-1E+10	1	-1E+10	1	-1E+10	1	-1E+10	1	-1E+10	1	-1E+10	1
4901784	57	C	01/25/2017	10:46	-132.467	44.212	0	102.40	0	8.9930	0	33.3420	0	25.823	0	101.551	0	215.6	4	75.9	4	-1E+10	1	-1E+10	1	-1E+10	1	-1E+10	1	-1E+10	1	-1E+10	1
4901784	57	C	01/25/2017	10:46	-132.467	44.212	0	104.70	0	8.9540	0	33.3980	0	25.873	0	103.831	0	211.9	4	74.6	4	-1E+10	1	-1E+10	1	-1E+10	1	-1E+10	1	-1E+10	1	-1E+10	1
4901784	57	C	01/25/2017	10:46	-132.467	44.212	0	107.20	0	8.9400	0	33.4510	0	25.917	0	106.310	0	208.4	4	73.3	4	-1E+10	1	-1E+10	1	-1E+10	1	-1E+10	1	-1E+10	1	-1E+10	1
4901784	57	C	01/25/2017	10:46	-132.467	44.212	0	109.60	0	8.9100	0	33.5020	0	25.961	0	108.689	0	204.8	4	72.1	4	-1E+10	1	-1E+10	1	-1E+10	1	-1E+10	1	-1E+10	1	-1E+10	1
4901784	57	C	01/25/2017	10:46	-132.467	44.212	0	112.80	0	8.8800	0	33.5550	0	26.008	0	111.862	0	201.1	4	70.7	4	-1E+10	1	-1E+10	1	-1E+10	1	-1E+10	1	-1E+10	1	-1E+10	1
4901784	57	C	01/25/2017	10:46	-132.467	44.212	0	115.40	0	8.8740	0	33.5660	0	26.017	0	114.440	0	198.0	4	69.6	4	-1E+10	1	-1E+10	1	-1E+10	1	-1E+10	1	-1E+10	1	-1E+10	1
4901784	57	C	01/25/2017	10:46	-132.467	44.212	0	117.10	0	8.8290	0	33.6260	0	26.071	0	116.125	0	195.3	4	68.7	4	-1E+10	1	-1E+10	1	-1E+10	1	-1E+10	1	-1E+10	1	-1E+10	1
4901784	57	C	01/25/2017	10:46	-132.467	44.212	0	119.70	0	8.7590	0	33.7140	0	26.151	0	118.703	0	192.4	4	67.6	4	-1E+10	1	-1E+10	1	-1E+10	1	-1E+10	1	-1E+10	1	-1E+10	1
4901784	57	C	01/25/2017	10:46	-132.467	44.212	0	122.40	0	8.6760	0	33.8060	0	26.236	0	121.379	0	190.7	4	66.9	4	-1E+10	1	-1E+10	1	-1E+10	1	-1E+10	1	-1E+10	1	-1E+10	1
4901784	57	C	01/25/2017	10:46	-132.467	44.212	0	125.10	0	8.6230	0	33.8470	0	26.277	0	124.056	0	190.0	4	66.6	4	-1E+10	1	-1E+10	1	-1E+10	1	-1E+10	1	-1E+10	1	-1E+10	1
4901784	57	C	01/25/2017	10:46	-132.467	44.212	0	127.90	0	8.6030	0	33.8700	0	26.298	0	126.832	0	189.6	4	66.4	4	-1E+10	1	-1E+10	1	-1E+10	1	-1E+10	1	-1E+10	1	-1E+10	1
4901784	57	C	01/25/2017	10:46	-132.467	44.212	0	129.70	0	8.6000	0	33.8740	0	26.301	0	128.616	0	189.3	4	66.3	4	-1E+10	1	-1E+10	1	-1E+10	1	-1E+10	1	-1E+10	1	-1E+10	1
4901784	57	C	01/25/2017	10:46	-132.467	44.212	0	132.50	0	8.5830	0	33.8860	0	26.313	0	131.392	0	188.8	4	66.1	4	-1E+10	1	-1E+10	1	-1E+10	1	-1E+10	1	-1E+10	1	-1E+10	1
4901784	57	C	01/25/2017	10:46	-132.467	44.212	0	135.30	0	8.5730	0	33.8920	0	26.320	0	134.167	0	188.4	4	66.0	4	-1E+10	1	-1E+10	1	-1E+10	1	-1E+10	1	-1E+10	1	-1E+10	1
4901784	57	C	01/25/2017	10:46	-132.467	44.212	0	137.20	0	8.5610	0	33.8950	0	26.324	0	136.051	0	187.8	4	65.8	4	-1E+10	1	-1E+10	1	-1E+10	1	-1E+10	1	-1E+10	1	-1E+10	1
4901784	57	C	01/25/2017	10:46	-132.467	44.212	0	140.00	0	8.5230	0	33.9160	0	26.346	0	138.827	0	187.0	4	65.4	4	-1E+10	1	-1E+10	1	-1E+10	1	-1E+10	1	-1E+10	1	-1E+10	1
4901784	57	C	01/25/2017	10:46	-132.467	44.212	0	142.90	0	8.4810	0	33.9350	0	26.368	0	141.701	0	186.5	4	65.2	4	-1E+10	1	-1E+10	1	-1E+10	1	-1E+10	1	-1E+10	1	-1E+10	1
4901784	57	C	01/25/2017	10:46	-132.467	44.212	0	144.70	0	8.4630	0	33.9330	0	26.369	0	143.486	0	186.2	4	65.1	4	-1E+10	1	-1E+10	1	-1E+10	1	-1E+10	1	-1E+10	1	-1E+10	1
4901784	57	C	01/25/2017	10:46	-132.467	44.212	0	147.60	0	8.4500	0	33.9350	0	26.372	0	146.360	0	185.9	4	64.9	4	-1E+10	1	-1E+10	1	-1E+10	1	-1E+10	1	-1E+10	1	-1E+10	1
4901784	57	C	01/25/2017	10:46	-132.467	44.212	0	150.50	0	8.4340	0	33.9410	0	26.380	0	149.235	0	185.3	4	64.7	4	-1E+10	1	-1E+10	1	-1E+10	1	-1E+10	1	-1E+10	1	-1E+10	1
4901784	57	C	01/25/2017	10:46	-132.467	44.212	0	152.40	0	8.4250	0	33.9420	0	26.382	0	151.118	0	184.9	4	64.6	4	-1E+10	1	-1E+10	1	-1E+10	1	-1E+10	1	-1E+10	1	-1E+10	1
4901784	57	C	01/25/2017	10:46	-132.467	44.212	0	155.20	0	8.4180	0	33.9440	0	26.384	0	153.894	0	184.4	4	64.4	4	-1E+10	1	-1E+10	1	-1E+10	1	-1E+10	1	-1E+10	1	-1E+10	1
4901784	57	C	01/25/2017	10:46	-132.467	44.212	0	158.10	0	8.3960	0	33.9460	0	26.389	0	156.768	0	183.6	4	64.1	4	-1E+10	1	-1E+10	1	-1E+10	1	-1E+10	1	-1E+10	1	-1E+10	1
4901784	57	C	01/25/2017	10:46	-132.467	44.212	0	159.90	0	8.3630	0	33.9510	0	26.398	0	158.552	0	183.1	4	63.9	4	-1E+10	1	-1E+10	1	-1E+10	1	-1E+10	1	-1E+10	1	-1E+10	1
4901784	57	C	01/25/2017	10:46	-132.467	44.212	0	161.90	0	8.3530	0	33.9530	0	26.401	0	160.535	0	182.6	4	63.7	4	-1E+10	1	-1E+10	1	-1E+10	1	-1E+10	1	-1E+10	1	-1E+10	1
4901784	57	C	01/25/2017	10:46	-132.467	44.212	0	164.80	0	8.2710	0	33.9520	0	26.413	0	163.409	0	182.0	4	63.3	4	-1E+10	1	-1E+10	1	-1E+10	1	-1E+10	1	-1E+10	1	-1E+10	1
4901784	57	C	01/25/2017	10:46	-132.467	44.212	0	167.70	0	8.2790	0	33.9560	0	26.415	0	166.283	0	180.7	4	62.9	4	-1E+10	1	-1E+10	1	-1E+10	1	-1E+10	1	-1E+10	1	-1E+10	1
4901784	57	C	01/25/2017	10:46	-132.467	44.212	0	169.70	0	8.2370	0	33.9560	0	26.421	0	168.266	0	180.0	4	62.6	4	-1E+10	1	-1E+10	1	-1E+10	1	-1E+10	1	-1E+10	1	-1E+10	1
4901784	57	C	01/25/2017	10:46	-132.467	44.212	0	172.50	0	8.1730	0	33.9570	0	26.432	0	171.041	0	179.3	4	62.3	4	-1E+10	1	-1E+10	1	-1E+10	1	-1E+10	1	-1E+10	1	-1E+10	1
4901784	57	C	01/25/2017	10:46	-132.467	44.212	0	175.40	0	8.1340	0	33.9570	0	26.438	0	173.915	0	178.5	4	61.9	4	-1E+10	1	-1E+10	1	-1E+10	1	-1E+10	1	-1E+10	1	-1E+10	1
4901784	57	C	01/25/2017	10:46	-132.467	44.212	0	177.40	0	8.1240	0	33.9570	0	26.439	0	175.897	0	177.9	4	61.7	4	-1E+10	1	-1E+10	1	-1E+10	1	-1E+10	1	-1E+10	1	-1E+10	1
4901784	57	C	01/25/2017	10:46	-132.467	44.212	0	179.30	0	8.1080	0	33.9560	0	26.441	0	177.780	0	176.9	4	61.3	4	-1E+10	1	-1E+10	1	-1E+10	1	-1E+10	1	-1E+10	1	-1E+10	1
4901784	57	C	01/25/2017	10:46	-132.467	44.212	0	181.80	0	8.0740	0	33.9580	0	26.447	0	180.258	0	175.8	4	60.9	4	-1E+10	1	-1E+10	1	-1E+10	1	-1E+10	1	-1E+10	1	-1E+10	1
4901784	57	C	01/25/2017	10:46	-132.467	44.212	0	184.60	0	8.0020	0	33.9600	0	26.460	0	183.033	0	174.6	4	60.4	4	-1E+10	1	-1E+10	1	-1E+10	1	-1E+10	1	-1E+10	1	-1E+10	1
4901784	57	C	01/25/2017	10:46	-132.467	44.212	0	187.90	0	7.9160	0	33.9640	0	26.476	0	186.304	0	173.3	4	59.8	4	-1E+10	1	-1E+10	1	-1E+10	1	-1E+10	1	-1E+10	1	-1E+10	1
4901784	57	C	01/25/2017	10:46	-132.467	44.212	0	190.30	0	7.8730	0	33.9660	0	26.483	0	188.682	0	172.7	4	59.6	4	-1E+10	1	-1E+10	1	-1E+10	1	-1E+10	1	-1E+10	1	-1E+10	1
4901784	57	C	01/25/2017	10:46	-132.467	44.212	0	192.70	0	7.8240	0	33.9640	0	26.489	0	191.061	0	172.2	4	59.3	4	-1E+10	1	-1E+10	1	-1E+10	1	-1E+10	1	-1E+10	1	-1E+10	1
4901784	57	C	01/25/2017	10:46	-132.467	44.212	0	195.10	0	7.7720	0	33.9580	0	26.492	0	193.439	0	171.8	4	59.1	4	-1E+10	1	-1E+10	1	-1E+10	1	-1E+10	1	-1E+10	1	-1E+10	1
4901784	57	C	01/25/2017	10:46	-132.467	44.212	0	197.70	0	7.7450	0	33.9610	0	26.498	0	196.016	0	171.2	4	58.9	4	-1E+10	1	-1E+10	1	-1E+10	1	-1E+10	1	-1E+10	1	-1E+10	1
4901784	57	C	01/25/2017	10:46	-132.467	44.212	0	200.20	0	7.7330	0	33.9610	0	26.500	0	198.493	0	170.5	4	58.6	4	-1E+10	1	-1E+10	1	-1E+10	1	-1E+10	1	-1E+10	1	-1E+10	1
4901784	57	C	01/25/2017	10:46	-132.467	44.212	0	202.70	0	7.7220	0	33.9610	0	26.502	0	200.971	0	169.3	4	58.2	4	-1E+10	1	-1E+10	1	-1E+10	1	-1E+10	1	-1E+10	1	-1E+10	1
4901784	57	C	01/25/2017	10:46	-132.467	44.212	0	205.30	0	7.6570	0	33.9660	0	26.515	0	203.547	0	168.3	4	57.8	4	-1E+10	1	-1E+10	1	-1E+10	1	-1E+10	1	-1E+10	1	-1E+10	1
4901784	57	C	01/25/2017	10:46	-132.467	44.212	0	207.70	0	7.6320	0	33.9660	0	26.519	0	205.925	0	167.5	4	57.5	4	-1E+10	1	-1E+10	1	-1E+10	1	-1E+10	1	-1E+10	1	-1E+10	1
4901784	57	C	01/25/2017	10:46	-132.467	44.212	0	210.20	0	7.6140	0	33.9660	0	26.521	0	208.403	0	166.9	4	57.2	4	-1E+10	1	-1E+10	1	-1E+10	1	-1E+10	1	-1E+10	1	-1E+10	1
4901784	57	C	01/25/2017	10:46	-132.467	44.212	0	212.80	0	7.5880	0	33.9680	0	26.527	0	210.979	0	165.9	4	56.8	4	-1E+10	1	-1E+10	1	-1E+10	1	-1E+10	1	-1E+10	1	-1E+10	1
4901784	57	C	01/25/2017	10:46	-132.467	44.212	0	215.20	0	7.5690	0	33.9670	0	26.529	0	213.357	0	164.8	4	56.5	4	-1E+10	1	-1E+10	1	-1E+10	1	-1E+10	1	-1E+10	1	-1E+10	1
4901784	57	C	01/25/2017	10:46	-132.467	44.212	0	217.80	0	7.5460	0	33.9670	0	26.532	0	215.934	0	163.5	4	56.0	4	-1E+10	1	-1E+10	1	-1E+10	1	-1E+10	1	-1E+10	1	-1E+10	1
4901784	57	C	01/25/2017	10:46	-132.467	44.212	0	220.30	0	7.5080	0	33.9660	0	26.537	0	218.411	0	161.7	4	55.3	4	-1E+10	1	-1E+10	1	-1E+10	1	-1E+10	1	-1E+10	1	-1E+10	1
4901784	57	C	01/25/2017	10:46	-132.467	44.212	0	222.80	0	7.4550	0	33.9660	0	26.544	0	220.888	0	159.9	4	54.6	4	-1E+10	1	-1E+10	1	-1E+10	1	-1E+10	1	-1E+10	1	-1E+10	1
4901784	57	C	01/25/2017	10:46	-132.467	44.212	0	225.40	0	7.4060	0	33.9640	0	26.549	0	223.465	0	157.7	4	53.8	4	-1E+10	1	-1E+10	1	-1E+10	1	-1E+10	1	-1E+10	1	-1E+10	1
4901784	57	C	01/25/2017	10:46	-132.467	44.212	0	227.20	0	7.3390	0	33.9640	0	26.559	0	225.248	0	156.3	4	53.3	4	-1E+10	1	-1E+10	1	-1E+10	1	-1E+10	1	-1E+10	1	-1E+10	1
4901784	57	C	01/25/2017	10:46	-132.467	44.212	0	229.70	0	7.2330	0	33.9640	0	26.574	0	227.725	0	155.0	4	52.7	4	-1E+10	1	-1E+10	1	-1E+10	1	-1E+10	1	-1E+10	1	-1E+10	1
4901784	57	C	01/25/2017	10:46	-132.467	44.212	0	232.30	0	7.1900	0	33.9630	0	26.579	0	230.302	0	154.2	4	52.4	4	-1E+10	1	-1E+10	1	-1E+10	1	-1E+10	1	-1E+10	1	-1E+10	1
4901784	57	C	01/25/2017	10:46	-132.467	44.212	0	234.90	0	7.1620	0	33.9640	0	26.584	0	232.878	0	153.2	4	52.0	4	-1E+10	1	-1E+10	1	-1E+10	1	-1E+10	1	-1E+10	1	-1E+10	1
4901784	57	C	01/25/2017	10:46	-132.467	44.212	0	237.40	0	7.1340	0	33.9640	0	26.588	0	235.355	0	152.2	4	51.6	4	-1E+10	1	-1E+10	1	-1E+10	1	-1E+10	1	-1E+10	1	-1E+10	1
4901784	57	C	01/25/2017	10:46	-132.467	44.212	0	240.10	0	7.1090	0	33.9620	0	26.589	0	238.030	0	150.9	4	51.2	4	-1E+10	1	-1E+10	1	-1E+10	1	-1E+10	1	-1E+10	1	-1E+10	1
4901784	57	C	01/25/2017	10:46	-132.467	44.212	0	242.70	0	7.0720	0	33.9620	0	26.595	0	240.606	0	149.6	4	50.7	4	-1E+10	1	-1E+10	1	-1E+10	1	-1E+10	1	-1E+10	1	-1E+10	1
4901784	57	C	01/25/2017	10:46	-132.467	44.212	0	244.50	0	7.0490	0	33.9610	0	26.597	0	242.389	0	148.6	4	50.3	4	-1E+10	1	-1E+10	1	-1E+10	1	-1E+10	1	-1E+10	1	-1E+10	1
4901784	57	C	01/25/2017	10:46	-132.467	44.212	0	247.20	0	6.9930	0	33.9620	0	26.605	0	245.065	0	147.2	4	49.8	4	-1E+10	1	-1E+10	1	-1E+10	1	-1E+10	1	-1E+10	1	-1E+10	1
4901784	57	C	01/25/2017	10:46	-132.467	44.212	0	249.90	0	6.9420	0	33.9610	0	26.612	0	247.740	0	145.8	4	49.3	4	-1E+10	1	-1E+10	1	-1E+10	1	-1E+10	1	-1E+10	1	-1E+10	1
4901784	57	C	01/25/2017	10:46	-132.467	44.212	0	252.60	0	6.8900	0	33.9630	0	26.620	0	250.415	0	144.8	4	48.9	4	-1E+10	1	-1E+10	1	-1E+10	1	-1E+10	1	-1E+10	1	-1E+10	1
4901784	57	C	01/25/2017	10:46	-132.467	44.212	0	255.30	0	6.8750	0	33.9620	0	26.622	0	253.090	0	143.7	4	48.5	4	-1E+10	1	-1E+10	1	-1E+10	1	-1E+10	1	-1E+10	1	-1E+10	1
4901784	57	C	01/25/2017	10:46	-132.467	44.212	0	257.10	0	6.8660	0	33.9620	0	26.623	0	254.873	0	142.7	4	48.1	4	-1E+10	1	-1E+10	1	-1E+10	1	-1E+10	1	-1E+10	1	-1E+10	1
4901784	57	C	01/25/2017	10:46	-132.467	44.212	0	259.80	0	6.8320	0	33.9610	0	26.627	0	257.548	0	140.9	4	47.5	4	-1E+10	1	-1E+10	1	-1E+10	1	-1E+10	1	-1E+10	1	-1E+10	1
4901784	57	C	01/25/2017	10:46	-132.467	44.212	0	262.40	0	6.7670	0	33.9620	0	26.636	0	260.124	0	139.1	4	46.8	4	-1E+10	1	-1E+10	1	-1E+10	1	-1E+10	1	-1E+10	1	-1E+10	1
4901784	57	C	01/25/2017	10:46	-132.467	44.212	0	265.10	0	6.7200	0	33.9610	0	26.642	0	262.799	0	137.9	4	46.4	4	-1E+10	1	-1E+10	1	-1E+10	1	-1E+10	1	-1E+10	1	-1E+10	1
4901784	57	C	01/25/2017	10:46	-132.467	44.212	0	267.90	0	6.6800	0	33.9620	0	26.648	0	265.572	0	136.8	4	45.9	4	-1E+10	1	-1E+10	1	-1E+10	1	-1E+10	1	-1E+10	1	-1E+10	1
4901784	57	C	01/25/2017	10:46	-132.467	44.212	0	269.60	0	6.6610	0	33.9610	0	26.650	0	267.257	0	136.2	4	45.7	4	-1E+10	1	-1E+10	1	-1E+10	1	-1E+10	1	-1E+10	1	-1E+10	1
4901784	57	C	01/25/2017	10:46	-132.467	44.212	0	272.40	0	6.6270	0	33.9620	0	26.655	0	270.030	0	135.3	4	45.4	4	-1E+10	1	-1E+10	1	-1E+10	1	-1E+10	1	-1E+10	1	-1E+10	1
4901784	57	C	01/25/2017	10:46	-132.467	44.212	0	275.00	0	6.6060	0	33.9610	0	26.657	0	272.606	0	134.5	4	45.1	4	-1E+10	1	-1E+10	1	-1E+10	1	-1E+10	1	-1E+10	1	-1E+10	1
4901784	57	C	01/25/2017	10:46	-132.467	44.212	0	277.70	0	6.5990	0	33.9600	0	26.657	0	275.281	0	133.2	4	44.6	4	-1E+10	1	-1E+10	1	-1E+10	1	-1E+10	1	-1E+10	1	-1E+10	1
4901784	57	C	01/25/2017	10:46	-132.467	44.212	0	280.50	0	6.5730	0	33.9580	0	26.659	0	278.055	0	131.6	4	44.1	4	-1E+10	1	-1E+10	1	-1E+10	1	-1E+10	1	-1E+10	1	-1E+10	1
4901784	57	C	01/25/2017	10:46	-132.467	44.212	0	282.40	0	6.5170	0	33.9600	0	26.668	0	279.937	0	130.3	4	43.6	4	-1E+10	1	-1E+10	1	-1E+10	1	-1E+10	1	-1E+10	1	-1E+10	1
4901784	57	C	01/25/2017	10:46	-132.467	44.212	0	285.10	0	6.4570	0	33.9610	0	26.677	0	282.611	0	128.9	4	43.1	4	-1E+10	1	-1E+10	1	-1E+10	1	-1E+10	1	-1E+10	1	-1E+10	1
4901784	57	C	01/25/2017	10:46	-132.467	44.212	0	288.00	0	6.4410	0	33.9600	0	26.678	0	285.484	0	127.5	4	42.6	4	-1E+10	1	-1E+10	1	-1E+10	1	-1E+10	1	-1E+10	1	-1E+10	1
4901784	57	C	01/25/2017	10:46	-132.467	44.212	0	289.80	0	6.4220	0	33.9600	0	26.680	0	287.267	0	126.3	4	42.2	4	-1E+10	1	-1E+10	1	-1E+10	1	-1E+10	1	-1E+10	1	-1E+10	1
4901784	57	C	01/25/2017	10:46	-132.467	44.212	0	292.60	0	6.3750	0	33.9600	0	26.686	0	290.041	0	124.3	4	41.4	4	-1E+10	1	-1E+10	1	-1E+10	1	-1E+10	1	-1E+10	1	-1E+10	1
4901784	57	C	01/25/2017	10:46	-132.467	44.212	0	295.20	0	6.3240	0	33.9610	0	26.694	0	292.616	0	122.6	4	40.8	4	-1E+10	1	-1E+10	1	-1E+10	1	-1E+10	1	-1E+10	1	-1E+10	1
4901784	57	C	01/25/2017	10:46	-132.467	44.212	0	297.00	0	6.2930	0	33.9620	0	26.699	0	294.399	0	121.5	4	40.4	4	-1E+10	1	-1E+10	1	-1E+10	1	-1E+10	1	-1E+10	1	-1E+10	1
4901784	57	C	01/25/2017	10:46	-132.467	44.212	0	299.70	0	6.2470	0	33.9610	0	26.704	0	297.073	0	119.7	4	39.8	4	-1E+10	1	-1E+10	1	-1E+10	1	-1E+10	1	-1E+10	1	-1E+10	1
4901784	57	C	01/25/2017	10:46	-132.467	44.212	0	302.50	0	6.1780	0	33.9630	0	26.714	0	299.847	0	118.3	4	39.2	4	-1E+10	1	-1E+10	1	-1E+10	1	-1E+10	1	-1E+10	1	-1E+10	1
4901784	57	C	01/25/2017	10:46	-132.467	44.212	0	305.20	0	6.1430	0	33.9630	0	26.719	0	302.521	0	117.1	4	38.8	4	-1E+10	1	-1E+10	1	-1E+10	1	-1E+10	1	-1E+10	1	-1E+10	1
4901784	57	C	01/25/2017	10:46	-132.467	44.212	0	308.10	0	6.1070	0	33.9630	0	26.723	0	305.394	0	115.8	4	38.4	4	-1E+10	1	-1E+10	1	-1E+10	1	-1E+10	1	-1E+10	1	-1E+10	1
4901784	57	C	01/25/2017	10:46	-132.467	44.212	0	309.90	0	6.0870	0	33.9620	0	26.725	0	307.176	0	114.7	4	38.0	4	-1E+10	1	-1E+10	1	-1E+10	1	-1E+10	1	-1E+10	1	-1E+10	1
4901784	57	C	01/25/2017	10:46	-132.467	44.212	0	312.80	0	6.0510	0	33.9640	0	26.731	0	310.049	0	112.9	4	37.4	4	-1E+10	1	-1E+10	1	-1E+10	1	-1E+10	1	-1E+10	1	-1E+10	1
4901784	57	C	01/25/2017	10:46	-132.467	44.212	0	315.50	0	6.0050	0	33.9650	0	26.738	0	312.723	0	111.4	4	36.8	4	-1E+10	1	-1E+10	1	-1E+10	1	-1E+10	1	-1E+10	1	-1E+10	1
4901784	57	C	01/25/2017	10:46	-132.467	44.212	0	317.40	0	5.9900	0	33.9650	0	26.740	0	314.605	0	110.4	4	36.5	4	-1E+10	1	-1E+10	1	-1E+10	1	-1E+10	1	-1E+10	1	-1E+10	1
4901784	57	C	01/25/2017	10:46	-132.467	44.212	0	320.20	0	5.9680	0	33.9670	0	26.744	0	317.378	0	108.8	4	35.9	4	-1E+10	1	-1E+10	1	-1E+10	1	-1E+10	1	-1E+10	1	-1E+10	1
4901784	57	C	01/25/2017	10:46	-132.467	44.212	0	323.10	0	5.9320	0	33.9690	0	26.750	0	320.250	0	107.1	4	35.4	4	-1E+10	1	-1E+10	1	-1E+10	1	-1E+10	1	-1E+10	1	-1E+10	1
4901784	57	C	01/25/2017	10:46	-132.467	44.212	0	324.90	0	5.9190	0	33.9680	0	26.751	0	322.033	0	106.3	4	35.1	4	-1E+10	1	-1E+10	1	-1E+10	1	-1E+10	1	-1E+10	1	-1E+10	1
4901784	57	C	01/25/2017	10:46	-132.467	44.212	0	327.70	0	5.8910	0	33.9690	0	26.755	0	324.806	0	105.0	4	34.6	4	-1E+10	1	-1E+10	1	-1E+10	1	-1E+10	1	-1E+10	1	-1E+10	1
4901784	57	C	01/25/2017	10:46	-132.467	44.212	0	330.60	0	5.8530	0	33.9690	0	26.760	0	327.678	0	103.7	4	34.2	4	-1E+10	1	-1E+10	1	-1E+10	1	-1E+10	1	-1E+10	1	-1E+10	1
4901784	57	C	01/25/2017	10:46	-132.467	44.212	0	332.40	0	5.8270	0	33.9700	0	26.764	0	329.461	0	102.9	4	33.9	4	-1E+10	1	-1E+10	1	-1E+10	1	-1E+10	1	-1E+10	1	-1E+10	1
4901784	57	C	01/25/2017	10:46	-132.467	44.212	0	334.30	0	5.8020	0	33.9690	0	26.766	0	331.342	0	102.1	4	33.6	4	-1E+10	1	-1E+10	1	-1E+10	1	-1E+10	1	-1E+10	1	-1E+10	1
4901784	57	C	01/25/2017	10:46	-132.467	44.212	0	337.20	0	5.7460	0	33.9700	0	26.774	0	334.214	0	101.2	4	33.2	4	-1E+10	1	-1E+10	1	-1E+10	1	-1E+10	1	-1E+10	1	-1E+10	1
4901784	57	C	01/25/2017	10:46	-132.467	44.212	0	340.00	0	5.7390	0	33.9700	0	26.775	0	336.987	0	100.1	4	32.9	4	-1E+10	1	-1E+10	1	-1E+10	1	-1E+10	1	-1E+10	1	-1E+10	1
4901784	57	C	01/25/2017	10:46	-132.467	44.212	0	341.90	0	5.7390	0	33.9690	0	26.774	0	338.869	0	99.2	4	32.6	4	-1E+10	1	-1E+10	1	-1E+10	1	-1E+10	1	-1E+10	1	-1E+10	1
4901784	57	C	01/25/2017	10:46	-132.467	44.212	0	344.70	0	5.6810	0	33.9720	0	26.783	0	341.642	0	97.9	4	32.1	4	-1E+10	1	-1E+10	1	-1E+10	1	-1E+10	1	-1E+10	1	-1E+10	1
4901784	57	C	01/25/2017	10:46	-132.467	44.212	0	347.50	0	5.6710	0	33.9730	0	26.786	0	344.415	0	96.5	4	31.7	4	-1E+10	1	-1E+10	1	-1E+10	1	-1E+10	1	-1E+10	1	-1E+10	1
4901784	57	C	01/25/2017	10:46	-132.467	44.212	0	350.30	0	5.6380	0	33.9760	0	26.792	0	347.187	0	95.4	4	31.3	4	-1E+10	1	-1E+10	1	-1E+10	1	-1E+10	1	-1E+10	1	-1E+10	1
4901784	57	C	01/25/2017	10:46	-132.467	44.212	0	353.50	0	5.6080	0	33.9780	0	26.797	0	350.356	0	94.4	4	30.9	4	-1E+10	1	-1E+10	1	-1E+10	1	-1E+10	1	-1E+10	1	-1E+10	1
4901784	57	C	01/25/2017	10:46	-132.467	44.212	0	354.80	0	5.6040	0	33.9780	0	26.798	0	351.644	0	94.0	4	30.8	4	-1E+10	1	-1E+10	1	-1E+10	1	-1E+10	1	-1E+10	1	-1E+10	1
4901784	57	C	01/25/2017	10:46	-132.467	44.212	0	357.30	0	5.5870	0	33.9790	0	26.801	0	354.119	0	93.2	4	30.5	4	-1E+10	1	-1E+10	1	-1E+10	1	-1E+10	1	-1E+10	1	-1E+10	1
4901784	57	C	01/25/2017	10:46	-132.467	44.212	0	359.60	0	5.5750	0	33.9790	0	26.802	0	356.397	0	92.3	4	30.2	4	-1E+10	1	-1E+10	1	-1E+10	1	-1E+10	1	-1E+10	1	-1E+10	1
4901784	57	C	01/25/2017	10:46	-132.467	44.212	0	362.70	0	5.5510	0	33.9790	0	26.805	0	359.467	0	91.0	4	29.8	4	-1E+10	1	-1E+10	1	-1E+10	1	-1E+10	1	-1E+10	1	-1E+10	1
4901784	57	C	01/25/2017	10:46	-132.467	44.212	0	365.10	0	5.5250	0	33.9800	0	26.809	0	361.843	0	90.1	4	29.4	4	-1E+10	1	-1E+10	1	-1E+10	1	-1E+10	1	-1E+10	1	-1E+10	1
4901784	57	C	01/25/2017	10:46	-132.467	44.212	0	367.50	0	5.5040	0	33.9800	0	26.811	0	364.220	0	89.1	4	29.1	4	-1E+10	1	-1E+10	1	-1E+10	1	-1E+10	1	-1E+10	1	-1E+10	1
4901784	57	C	01/25/2017	10:46	-132.467	44.212	0	369.90	0	5.4870	0	33.9800	0	26.813	0	366.596	0	88.0	4	28.7	4	-1E+10	1	-1E+10	1	-1E+10	1	-1E+10	1	-1E+10	1	-1E+10	1
4901784	57	C	01/25/2017	10:46	-132.467	44.212	0	372.40	0	5.4370	0	33.9820	0	26.821	0	369.071	0	86.8	4	28.3	4	-1E+10	1	-1E+10	1	-1E+10	1	-1E+10	1	-1E+10	1	-1E+10	1
4901784	57	C	01/25/2017	10:46	-132.467	44.212	0	374.80	0	5.4130	0	33.9820	0	26.824	0	371.448	0	85.8	4	28.0	4	-1E+10	1	-1E+10	1	-1E+10	1	-1E+10	1	-1E+10	1	-1E+10	1
4901784	57	C	01/25/2017	10:46	-132.467	44.212	0	377.30	0	5.3880	0	33.9840	0	26.828	0	373.923	0	84.7	4	27.6	4	-1E+10	1	-1E+10	1	-1E+10	1	-1E+10	1	-1E+10	1	-1E+10	1
4901784	57	C	01/25/2017	10:46	-132.467	44.212	0	379.70	0	5.3620	0	33.9850	0	26.832	0	376.300	0	83.8	4	27.3	4	-1E+10	1	-1E+10	1	-1E+10	1	-1E+10	1	-1E+10	1	-1E+10	1
4901784	57	C	01/25/2017	10:46	-132.467	44.212	0	382.20	0	5.3420	0	33.9860	0	26.835	0	378.775	0	82.9	4	27.0	4	-1E+10	1	-1E+10	1	-1E+10	1	-1E+10	1	-1E+10	1	-1E+10	1
4901784	57	C	01/25/2017	10:46	-132.467	44.212	0	384.60	0	5.3090	0	33.9850	0	26.839	0	381.151	0	82.1	4	26.7	4	-1E+10	1	-1E+10	1	-1E+10	1	-1E+10	1	-1E+10	1	-1E+10	1
4901784	57	C	01/25/2017	10:46	-132.467	44.212	0	387.10	0	5.2980	0	33.9870	0	26.841	0	383.626	0	81.0	4	26.3	4	-1E+10	1	-1E+10	1	-1E+10	1	-1E+10	1	-1E+10	1	-1E+10	1
4901784	57	C	01/25/2017	10:46	-132.467	44.212	0	390.40	0	5.2780	0	33.9890	0	26.845	0	386.894	0	79.6	4	25.9	4	-1E+10	1	-1E+10	1	-1E+10	1	-1E+10	1	-1E+10	1	-1E+10	1
4901784	57	C	01/25/2017	10:46	-132.467	44.212	0	392.90	0	5.2660	0	33.9900	0	26.848	0	389.369	0	78.2	4	25.4	4	-1E+10	1	-1E+10	1	-1E+10	1	-1E+10	1	-1E+10	1	-1E+10	1
4901784	57	C	01/25/2017	10:46	-132.467	44.212	0	395.40	0	5.2400	0	33.9930	0	26.853	0	391.844	0	76.6	4	24.9	4	-1E+10	1	-1E+10	1	-1E+10	1	-1E+10	1	-1E+10	1	-1E+10	1
4901784	57	C	01/25/2017	10:46	-132.467	44.212	0	397.90	0	5.2080	0	33.9980	0	26.861	0	394.319	0	75.2	4	24.4	4	-1E+10	1	-1E+10	1	-1E+10	1	-1E+10	1	-1E+10	1	-1E+10	1
4901784	57	C	01/25/2017	10:46	-132.467	44.212	0	400.40	0	5.1910	0	34.0010	0	26.865	0	396.794	0	74.2	4	24.1	4	-1E+10	1	-1E+10	1	-1E+10	1	-1E+10	1	-1E+10	1	-1E+10	1
4901784	57	C	01/25/2017	10:46	-132.467	44.212	0	402.90	0	5.1780	0	34.0020	0	26.867	0	399.270	0	73.2	4	23.7	4	-1E+10	1	-1E+10	1	-1E+10	1	-1E+10	1	-1E+10	1	-1E+10	1
4901784	57	C	01/25/2017	10:46	-132.467	44.212	0	404.60	0	5.1660	0	34.0050	0	26.871	0	400.953	0	72.6	4	23.5	4	-1E+10	1	-1E+10	1	-1E+10	1	-1E+10	1	-1E+10	1	-1E+10	1
4901784	57	C	01/25/2017	10:46	-132.467	44.212	0	407.10	0	5.1550	0	34.0080	0	26.875	0	403.428	0	71.7	4	23.3	4	-1E+10	1	-1E+10	1	-1E+10	1	-1E+10	1	-1E+10	1	-1E+10	1
4901784	57	C	01/25/2017	10:46	-132.467	44.212	0	409.70	0	5.1500	0	34.0080	0	26.875	0	406.002	0	71.0	4	23.0	4	-1E+10	1	-1E+10	1	-1E+10	1	-1E+10	1	-1E+10	1	-1E+10	1
4901784	57	C	01/25/2017	10:46	-132.467	44.212	0	412.20	0	5.1370	0	34.0100	0	26.879	0	408.477	0	70.1	4	22.7	4	-1E+10	1	-1E+10	1	-1E+10	1	-1E+10	1	-1E+10	1	-1E+10	1
4901784	57	C	01/25/2017	10:46	-132.467	44.212	0	414.80	0	5.1170	0	34.0110	0	26.882	0	411.050	0	69.0	4	22.3	4	-1E+10	1	-1E+10	1	-1E+10	1	-1E+10	1	-1E+10	1	-1E+10	1
4901784	57	C	01/25/2017	10:46	-132.467	44.212	0	417.30	0	5.0910	0	34.0150	0	26.888	0	413.525	0	67.7	4	21.9	4	-1E+10	1	-1E+10	1	-1E+10	1	-1E+10	1	-1E+10	1	-1E+10	1
4901784	57	C	01/25/2017	10:46	-132.467	44.212	0	419.70	0	5.0750	0	34.0160	0	26.890	0	415.901	0	66.6	4	21.5	4	-1E+10	1	-1E+10	1	-1E+10	1	-1E+10	1	-1E+10	1	-1E+10	1
4901784	57	C	01/25/2017	10:46	-132.467	44.212	0	422.20	0	5.0620	0	34.0200	0	26.895	0	418.376	0	65.2	4	21.1	4	-1E+10	1	-1E+10	1	-1E+10	1	-1E+10	1	-1E+10	1	-1E+10	1
4901784	57	C	01/25/2017	10:46	-132.467	44.212	0	424.70	0	5.0470	0	34.0240	0	26.900	0	420.851	0	64.0	4	20.7	4	-1E+10	1	-1E+10	1	-1E+10	1	-1E+10	1	-1E+10	1	-1E+10	1
4901784	57	C	01/25/2017	10:46	-132.467	44.212	0	427.20	0	5.0370	0	34.0270	0	26.904	0	423.326	0	62.9	4	20.3	4	-1E+10	1	-1E+10	1	-1E+10	1	-1E+10	1	-1E+10	1	-1E+10	1
4901784	57	C	01/25/2017	10:46	-132.467	44.212	0	429.70	0	5.0290	0	34.0290	0	26.906	0	425.801	0	61.8	4	20.0	4	-1E+10	1	-1E+10	1	-1E+10	1	-1E+10	1	-1E+10	1	-1E+10	1
4901784	57	C	01/25/2017	10:46	-132.467	44.212	0	432.20	0	5.0160	0	34.0330	0	26.911	0	428.275	0	60.5	4	19.5	4	-1E+10	1	-1E+10	1	-1E+10	1	-1E+10	1	-1E+10	1	-1E+10	1
4901784	57	C	01/25/2017	10:46	-132.467	44.212	0	434.80	0	5.0050	0	34.0350	0	26.914	0	430.849	0	59.2	4	19.1	4	-1E+10	1	-1E+10	1	-1E+10	1	-1E+10	1	-1E+10	1	-1E+10	1
4901784	57	C	01/25/2017	10:46	-132.467	44.212	0	437.30	0	4.9960	0	34.0370	0	26.916	0	433.324	0	57.7	4	18.6	4	-1E+10	1	-1E+10	1	-1E+10	1	-1E+10	1	-1E+10	1	-1E+10	1
4901784	57	C	01/25/2017	10:46	-132.467	44.212	0	439.90	0	4.9670	0	34.0450	0	26.926	0	435.897	0	55.9	4	18.0	4	-1E+10	1	-1E+10	1	-1E+10	1	-1E+10	1	-1E+10	1	-1E+10	1
4901784	57	C	01/25/2017	10:46	-132.467	44.212	0	442.50	0	4.9480	0	34.0490	0	26.931	0	438.471	0	54.6	4	17.6	4	-1E+10	1	-1E+10	1	-1E+10	1	-1E+10	1	-1E+10	1	-1E+10	1
4901784	57	C	01/25/2017	10:46	-132.467	44.212	0	445.10	0	4.9300	0	34.0540	0	26.937	0	441.044	0	53.5	4	17.3	4	-1E+10	1	-1E+10	1	-1E+10	1	-1E+10	1	-1E+10	1	-1E+10	1
4901784	57	C	01/25/2017	10:46	-132.467	44.212	0	447.60	0	4.9250	0	34.0560	0	26.939	0	443.519	0	52.6	4	16.9	4	-1E+10	1	-1E+10	1	-1E+10	1	-1E+10	1	-1E+10	1	-1E+10	1
4901784	57	C	01/25/2017	10:46	-132.467	44.212	0	450.20	0	4.9220	0	34.0570	0	26.941	0	446.092	0	51.4	4	16.6	4	-1E+10	1	-1E+10	1	-1E+10	1	-1E+10	1	-1E+10	1	-1E+10	1
4901784	57	C	01/25/2017	10:46	-132.467	44.212	0	452.80	0	4.8850	0	34.0630	0	26.950	0	448.666	0	50.3	4	16.2	4	-1E+10	1	-1E+10	1	-1E+10	1	-1E+10	1	-1E+10	1	-1E+10	1
4901784	57	C	01/25/2017	10:46	-132.467	44.212	0	455.40	0	4.8660	0	34.0670	0	26.955	0	451.239	0	49.2	4	15.9	4	-1E+10	1	-1E+10	1	-1E+10	1	-1E+10	1	-1E+10	1	-1E+10	1
4901784	57	C	01/25/2017	10:46	-132.467	44.212	0	457.20	0	4.8590	0	34.0670	0	26.956	0	453.021	0	48.5	4	15.6	4	-1E+10	1	-1E+10	1	-1E+10	1	-1E+10	1	-1E+10	1	-1E+10	1
4901784	57	C	01/25/2017	10:46	-132.467	44.212	0	459.90	0	4.8410	0	34.0750	0	26.964	0	455.693	0	47.6	4	15.3	4	-1E+10	1	-1E+10	1	-1E+10	1	-1E+10	1	-1E+10	1	-1E+10	1
4901784	57	C	01/25/2017	10:46	-132.467	44.212	0	462.50	0	4.8350	0	34.0780	0	26.967	0	458.267	0	47.0	4	15.1	4	-1E+10	1	-1E+10	1	-1E+10	1	-1E+10	1	-1E+10	1	-1E+10	1
4901784	57	C	01/25/2017	10:46	-132.467	44.212	0	465.20	0	4.8300	0	34.0790	0	26.969	0	460.939	0	46.5	4	15.0	4	-1E+10	1	-1E+10	1	-1E+10	1	-1E+10	1	-1E+10	1	-1E+10	1
4901784	57	C	01/25/2017	10:46	-132.467	44.212	0	467.80	0	4.8200	0	34.0810	0	26.971	0	463.512	0	46.0	4	14.8	4	-1E+10	1	-1E+10	1	-1E+10	1	-1E+10	1	-1E+10	1	-1E+10	1
4901784	57	C	01/25/2017	10:46	-132.467	44.212	0	469.60	0	4.8120	0	34.0820	0	26.973	0	465.294	0	45.7	4	14.7	4	-1E+10	1	-1E+10	1	-1E+10	1	-1E+10	1	-1E+10	1	-1E+10	1
4901784	57	C	01/25/2017	10:46	-132.467	44.212	0	472.30	0	4.8020	0	34.0840	0	26.976	0	467.966	0	45.3	4	14.6	4	-1E+10	1	-1E+10	1	-1E+10	1	-1E+10	1	-1E+10	1	-1E+10	1
4901784	57	C	01/25/2017	10:46	-132.467	44.212	0	475.00	0	4.7880	0	34.0840	0	26.977	0	470.638	0	44.7	4	14.4	4	-1E+10	1	-1E+10	1	-1E+10	1	-1E+10	1	-1E+10	1	-1E+10	1
4901784	57	C	01/25/2017	10:46	-132.467	44.212	0	477.70	0	4.7800	0	34.0850	0	26.979	0	473.310	0	43.7	4	14.0	4	-1E+10	1	-1E+10	1	-1E+10	1	-1E+10	1	-1E+10	1	-1E+10	1
4901784	57	C	01/25/2017	10:46	-132.467	44.212	0	480.50	0	4.7810	0	34.0890	0	26.982	0	476.081	0	42.5	4	13.7	4	-1E+10	1	-1E+10	1	-1E+10	1	-1E+10	1	-1E+10	1	-1E+10	1
4901784	57	C	01/25/2017	10:46	-132.467	44.212	0	482.20	0	4.7880	0	34.0890	0	26.981	0	477.764	0	41.6	4	13.4	4	-1E+10	1	-1E+10	1	-1E+10	1	-1E+10	1	-1E+10	1	-1E+10	1
4901784	57	C	01/25/2017	10:46	-132.467	44.212	0	484.90	0	4.7770	0	34.0970	0	26.989	0	480.436	0	40.5	4	13.0	4	-1E+10	1	-1E+10	1	-1E+10	1	-1E+10	1	-1E+10	1	-1E+10	1
4901784	57	C	01/25/2017	10:46	-132.467	44.212	0	487.50	0	4.7770	0	34.1030	0	26.994	0	483.009	0	39.5	4	12.7	4	-1E+10	1	-1E+10	1	-1E+10	1	-1E+10	1	-1E+10	1	-1E+10	1
4901784	57	C	01/25/2017	10:46	-132.467	44.212	0	490.30	0	4.7710	0	34.1040	0	26.995	0	485.780	0	38.8	4	12.5	4	-1E+10	1	-1E+10	1	-1E+10	1	-1E+10	1	-1E+10	1	-1E+10	1
4901784	57	C	01/25/2017	10:46	-132.467	44.212	0	493.00	0	4.7540	0	34.1100	0	27.002	0	488.452	0	38.2	4	12.3	4	-1E+10	1	-1E+10	1	-1E+10	1	-1E+10	1	-1E+10	1	-1E+10	1
4901784	57	C	01/25/2017	10:46	-132.467	44.212	0	494.90	0	4.7480	0	34.1110	0	27.003	0	490.332	0	37.9	4	12.2	4	-1E+10	1	-1E+10	1	-1E+10	1	-1E+10	1	-1E+10	1	-1E+10	1
4901784	57	C	01/25/2017	10:46	-132.467	44.212	0	497.60	0	4.7210	0	34.1110	0	27.006	0	493.004	0	37.5	4	12.0	4	-1E+10	1	-1E+10	1	-1E+10	1	-1E+10	1	-1E+10	1	-1E+10	1
4901784	57	C	01/25/2017	10:46	-132.467	44.212	0	500.30	0	4.7050	0	34.1150	0	27.011	0	495.676	0	36.9	4	11.8	4	-1E+10	1	-1E+10	1	-1E+10	1	-1E+10	1	-1E+10	1	-1E+10	1
4901784	57	C	01/25/2017	10:46	-132.467	44.212	0	504.90	0	4.6840	0	34.1180	0	27.016	0	500.228	0	36.1	4	11.6	4	-1E+10	1	-1E+10	1	-1E+10	1	-1E+10	1	-1E+10	1	-1E+10	1
4901784	57	C	01/25/2017	10:46	-132.467	44.212	0	509.50	0	4.6420	0	34.1210	0	27.023	0	504.779	0	35.4	4	11.3	4	-1E+10	1	-1E+10	1	-1E+10	1	-1E+10	1	-1E+10	1	-1E+10	1
4901784	57	C	01/25/2017	10:46	-132.467	44.212	0	515.20	0	4.6130	0	34.1250	0	27.029	0	510.420	0	34.6	4	11.1	4	-1E+10	1	-1E+10	1	-1E+10	1	-1E+10	1	-1E+10	1	-1E+10	1
4901784	57	C	01/25/2017	10:46	-132.467	44.212	0	520.00	0	4.6050	0	34.1280	0	27.033	0	515.169	0	34.0	4	10.9	4	-1E+10	1	-1E+10	1	-1E+10	1	-1E+10	1	-1E+10	1	-1E+10	1
4901784	57	C	01/25/2017	10:46	-132.467	44.212	0	524.80	0	4.5940	0	34.1300	0	27.036	0	519.919	0	33.2	4	10.6	4	-1E+10	1	-1E+10	1	-1E+10	1	-1E+10	1	-1E+10	1	-1E+10	1
4901784	57	C	01/25/2017	10:46	-132.467	44.212	0	530.60	0	4.5750	0	34.1330	0	27.040	0	525.657	0	32.2	4	10.3	4	-1E+10	1	-1E+10	1	-1E+10	1	-1E+10	1	-1E+10	1	-1E+10	1
4901784	57	C	01/25/2017	10:46	-132.467	44.212	0	535.40	0	4.5410	0	34.1380	0	27.048	0	530.406	0	31.2	4	10.0	4	-1E+10	1	-1E+10	1	-1E+10	1	-1E+10	1	-1E+10	1	-1E+10	1
4901784	57	C	01/25/2017	10:46	-132.467	44.212	0	540.30	0	4.5250	0	34.1430	0	27.053	0	535.254	0	30.3	4	9.7	4	-1E+10	1	-1E+10	1	-1E+10	1	-1E+10	1	-1E+10	1	-1E+10	1
4901784	57	C	01/25/2017	10:46	-132.467	44.212	0	544.60	0	4.5180	0	34.1480	0	27.058	0	539.509	0	29.6	4	9.5	4	-1E+10	1	-1E+10	1	-1E+10	1	-1E+10	1	-1E+10	1	-1E+10	1
4901784	57	C	01/25/2017	10:46	-132.467	44.212	0	549.50	0	4.5090	0	34.1500	0	27.061	0	544.356	0	29.0	4	9.3	4	-1E+10	1	-1E+10	1	-1E+10	1	-1E+10	1	-1E+10	1	-1E+10	1
4901784	57	C	01/25/2017	10:46	-132.467	44.212	0	554.30	0	4.4890	0	34.1540	0	27.066	0	549.105	0	28.2	4	9.0	4	-1E+10	1	-1E+10	1	-1E+10	1	-1E+10	1	-1E+10	1	-1E+10	1
4901784	57	C	01/25/2017	10:46	-132.467	44.212	0	560.00	0	4.4680	0	34.1590	0	27.072	0	554.744	0	27.4	4	8.7	4	-1E+10	1	-1E+10	1	-1E+10	1	-1E+10	1	-1E+10	1	-1E+10	1
4901784	57	C	01/25/2017	10:46	-132.467	44.212	0	565.80	0	4.4500	0	34.1630	0	27.078	0	560.482	0	26.6	4	8.5	4	-1E+10	1	-1E+10	1	-1E+10	1	-1E+10	1	-1E+10	1	-1E+10	1
4901784	57	C	01/25/2017	10:46	-132.467	44.212	0	570.80	0	4.4340	0	34.1670	0	27.083	0	565.428	0	26.0	4	8.3	4	-1E+10	1	-1E+10	1	-1E+10	1	-1E+10	1	-1E+10	1	-1E+10	1
4901784	57	C	01/25/2017	10:46	-132.467	44.212	0	575.00	0	4.4260	0	34.1690	0	27.085	0	569.583	0	25.4	4	8.1	4	-1E+10	1	-1E+10	1	-1E+10	1	-1E+10	1	-1E+10	1	-1E+10	1
4901784	57	C	01/25/2017	10:46	-132.467	44.212	0	579.20	0	4.4110	0	34.1730	0	27.090	0	573.738	0	24.9	4	7.9	4	-1E+10	1	-1E+10	1	-1E+10	1	-1E+10	1	-1E+10	1	-1E+10	1
4901784	57	C	01/25/2017	10:46	-132.467	44.212	0	584.40	0	4.3940	0	34.1770	0	27.095	0	578.881	0	24.3	4	7.7	4	-1E+10	1	-1E+10	1	-1E+10	1	-1E+10	1	-1E+10	1	-1E+10	1
4901784	57	C	01/25/2017	10:46	-132.467	44.212	0	589.50	0	4.3790	0	34.1810	0	27.100	0	583.926	0	23.8	4	7.6	4	-1E+10	1	-1E+10	1	-1E+10	1	-1E+10	1	-1E+10	1	-1E+10	1
4901784	57	C	01/25/2017	10:46	-132.467	44.212	0	594.60	0	4.3610	0	34.1850	0	27.105	0	588.970	0	23.4	4	7.4	4	-1E+10	1	-1E+10	1	-1E+10	1	-1E+10	1	-1E+10	1	-1E+10	1
4901784	57	C	01/25/2017	10:46	-132.467	44.212	0	599.80	0	4.3490	0	34.1880	0	27.109	0	594.114	0	23.0	4	7.3	4	-1E+10	1	-1E+10	1	-1E+10	1	-1E+10	1	-1E+10	1	-1E+10	1
4901784	57	C	01/25/2017	10:46	-132.467	44.212	0	605.00	0	4.3410	0	34.1900	0	27.111	0	599.257	0	22.6	4	7.2	4	-1E+10	1	-1E+10	1	-1E+10	1	-1E+10	1	-1E+10	1	-1E+10	1
4901784	57	C	01/25/2017	10:46	-132.467	44.212	0	610.10	0	4.3280	0	34.1930	0	27.115	0	604.301	0	22.1	4	7.0	4	-1E+10	1	-1E+10	1	-1E+10	1	-1E+10	1	-1E+10	1	-1E+10	1
4901784	57	C	01/25/2017	10:46	-132.467	44.212	0	615.30	0	4.3120	0	34.1970	0	27.120	0	609.444	0	21.6	4	6.9	4	-1E+10	1	-1E+10	1	-1E+10	1	-1E+10	1	-1E+10	1	-1E+10	1
4901784	57	C	01/25/2017	10:46	-132.467	44.212	0	620.50	0	4.2930	0	34.2020	0	27.126	0	614.587	0	21.0	4	6.7	4	-1E+10	1	-1E+10	1	-1E+10	1	-1E+10	1	-1E+10	1	-1E+10	1
4901784	57	C	01/25/2017	10:46	-132.467	44.212	0	625.70	0	4.2750	0	34.2070	0	27.132	0	619.730	0	20.6	4	6.6	4	-1E+10	1	-1E+10	1	-1E+10	1	-1E+10	1	-1E+10	1	-1E+10	1
4901784	57	C	01/25/2017	10:46	-132.467	44.212	0	630.10	0	4.2710	0	34.2070	0	27.132	0	624.081	0	20.3	4	6.5	4	-1E+10	1	-1E+10	1	-1E+10	1	-1E+10	1	-1E+10	1	-1E+10	1
4901784	57	C	01/25/2017	10:46	-132.467	44.212	0	634.50	0	4.2550	0	34.2110	0	27.137	0	628.433	0	20.0	4	6.3	4	-1E+10	1	-1E+10	1	-1E+10	1	-1E+10	1	-1E+10	1	-1E+10	1
4901784	57	C	01/25/2017	10:46	-132.467	44.212	0	639.80	0	4.2360	0	34.2160	0	27.143	0	633.674	0	19.6	4	6.2	4	-1E+10	1	-1E+10	1	-1E+10	1	-1E+10	1	-1E+10	1	-1E+10	1
4901784	57	C	01/25/2017	10:46	-132.467	44.212	0	645.00	0	4.2280	0	34.2180	0	27.145	0	638.816	0	19.2	4	6.1	4	-1E+10	1	-1E+10	1	-1E+10	1	-1E+10	1	-1E+10	1	-1E+10	1
4901784	57	C	01/25/2017	10:46	-132.467	44.212	0	650.30	0	4.2090	0	34.2230	0	27.151	0	644.057	0	18.7	4	5.9	4	-1E+10	1	-1E+10	1	-1E+10	1	-1E+10	1	-1E+10	1	-1E+10	1
4901784	57	C	01/25/2017	10:46	-132.467	44.212	0	655.60	0	4.1930	0	34.2290	0	27.158	0	649.298	0	18.2	4	5.8	4	-1E+10	1	-1E+10	1	-1E+10	1	-1E+10	1	-1E+10	1	-1E+10	1
4901784	57	C	01/25/2017	10:46	-132.467	44.212	0	660.00	0	4.1780	0	34.2340	0	27.164	0	653.649	0	17.9	4	5.7	4	-1E+10	1	-1E+10	1	-1E+10	1	-1E+10	1	-1E+10	1	-1E+10	1
4901784	57	C	01/25/2017	10:46	-132.467	44.212	0	664.50	0	4.1690	0	34.2360	0	27.166	0	658.098	0	17.7	4	5.6	4	-1E+10	1	-1E+10	1	-1E+10	1	-1E+10	1	-1E+10	1	-1E+10	1
4901784	57	C	01/25/2017	10:46	-132.467	44.212	0	669.90	0	4.1460	0	34.2400	0	27.172	0	663.438	0	17.6	4	5.6	4	-1E+10	1	-1E+10	1	-1E+10	1	-1E+10	1	-1E+10	1	-1E+10	1
4901784	57	C	01/25/2017	10:46	-132.467	44.212	0	675.20	0	4.1220	0	34.2420	0	27.176	0	668.678	0	17.4	4	5.5	4	-1E+10	1	-1E+10	1	-1E+10	1	-1E+10	1	-1E+10	1	-1E+10	1
4901784	57	C	01/25/2017	10:46	-132.467	44.212	0	680.60	0	4.1120	0	34.2440	0	27.178	0	674.017	0	17.1	4	5.4	4	-1E+10	1	-1E+10	1	-1E+10	1	-1E+10	1	-1E+10	1	-1E+10	1
4901784	57	C	01/25/2017	10:46	-132.467	44.212	0	685.10	0	4.1020	0	34.2480	0	27.183	0	678.466	0	16.9	4	5.4	4	-1E+10	1	-1E+10	1	-1E+10	1	-1E+10	1	-1E+10	1	-1E+10	1
4901784	57	C	01/25/2017	10:46	-132.467	44.212	0	689.60	0	4.0920	0	34.2510	0	27.186	0	682.915	0	16.7	4	5.3	4	-1E+10	1	-1E+10	1	-1E+10	1	-1E+10	1	-1E+10	1	-1E+10	1
4901784	57	C	01/25/2017	10:46	-132.467	44.212	0	695.00	0	4.0730	0	34.2550	0	27.191	0	688.254	0	16.5	4	5.2	4	-1E+10	1	-1E+10	1	-1E+10	1	-1E+10	1	-1E+10	1	-1E+10	1
4901784	57	C	01/25/2017	10:46	-132.467	44.212	0	700.50	0	4.0490	0	34.2580	0	27.196	0	693.692	0	16.3	4	5.1	4	-1E+10	1	-1E+10	1	-1E+10	1	-1E+10	1	-1E+10	1	-1E+10	1
4901784	57	C	01/25/2017	10:46	-132.467	44.212	0	705.20	0	4.0260	0	34.2620	0	27.202	0	698.338	0	16.0	4	5.1	4	-1E+10	1	-1E+10	1	-1E+10	1	-1E+10	1	-1E+10	1	-1E+10	1
4901784	57	C	01/25/2017	10:46	-132.467	44.212	0	709.80	0	4.0110	0	34.2670	0	27.207	0	702.886	0	15.7	4	5.0	4	-1E+10	1	-1E+10	1	-1E+10	1	-1E+10	1	-1E+10	1	-1E+10	1
4901784	57	C	01/25/2017	10:46	-132.467	44.212	0	715.50	0	3.9920	0	34.2720	0	27.213	0	708.520	0	15.3	4	4.8	4	-1E+10	1	-1E+10	1	-1E+10	1	-1E+10	1	-1E+10	1	-1E+10	1
4901784	57	C	01/25/2017	10:46	-132.467	44.212	0	720.20	0	3.9930	0	34.2770	0	27.217	0	713.166	0	15.0	4	4.7	4	-1E+10	1	-1E+10	1	-1E+10	1	-1E+10	1	-1E+10	1	-1E+10	1
4901784	57	C	01/25/2017	10:46	-132.467	44.212	0	724.90	0	3.9840	0	34.2800	0	27.221	0	717.812	0	14.8	4	4.7	4	-1E+10	1	-1E+10	1	-1E+10	1	-1E+10	1	-1E+10	1	-1E+10	1
4901784	57	C	01/25/2017	10:46	-132.467	44.212	0	729.50	0	3.9650	0	34.2840	0	27.226	0	722.360	0	14.8	4	4.7	4	-1E+10	1	-1E+10	1	-1E+10	1	-1E+10	1	-1E+10	1	-1E+10	1
4901784	57	C	01/25/2017	10:46	-132.467	44.212	0	734.20	0	3.9240	0	34.2870	0	27.232	0	727.005	0	14.8	4	4.7	4	-1E+10	1	-1E+10	1	-1E+10	1	-1E+10	1	-1E+10	1	-1E+10	1
4901784	57	C	01/25/2017	10:46	-132.467	44.212	0	739.50	0	3.9130	0	34.2910	0	27.237	0	732.244	0	14.5	4	4.6	4	-1E+10	1	-1E+10	1	-1E+10	1	-1E+10	1	-1E+10	1	-1E+10	1
4901784	57	C	01/25/2017	10:46	-132.467	44.212	0	744.30	0	3.9090	0	34.2950	0	27.240	0	736.989	0	14.4	4	4.5	4	-1E+10	1	-1E+10	1	-1E+10	1	-1E+10	1	-1E+10	1	-1E+10	1
4901784	57	C	01/25/2017	10:46	-132.467	44.212	0	749.30	0	3.8670	0	34.2960	0	27.245	0	741.931	0	14.4	4	4.5	4	-1E+10	1	-1E+10	1	-1E+10	1	-1E+10	1	-1E+10	1	-1E+10	1
4901784	57	C	01/25/2017	10:46	-132.467	44.212	0	754.20	0	3.8420	0	34.3000	0	27.251	0	746.774	0	14.0	4	4.4	4	-1E+10	1	-1E+10	1	-1E+10	1	-1E+10	1	-1E+10	1	-1E+10	1
4901784	57	C	01/25/2017	10:46	-132.467	44.212	0	760.00	0	3.8650	0	34.3090	0	27.256	0	752.506	0	13.4	4	4.2	4	-1E+10	1	-1E+10	1	-1E+10	1	-1E+10	1	-1E+10	1	-1E+10	1
4901784	57	C	01/25/2017	10:46	-132.467	44.212	0	765.80	0	3.8740	0	34.3130	0	27.258	0	758.238	0	13.0	4	4.1	4	-1E+10	1	-1E+10	1	-1E+10	1	-1E+10	1	-1E+10	1	-1E+10	1
4901784	57	C	01/25/2017	10:46	-132.467	44.212	0	770.00	0	3.8820	0	34.3170	0	27.261	0	762.389	0	12.7	4	4.0	4	-1E+10	1	-1E+10	1	-1E+10	1	-1E+10	1	-1E+10	1	-1E+10	1
4901784	57	C	01/25/2017	10:46	-132.467	44.212	0	774.20	0	3.8770	0	34.3220	0	27.265	0	766.540	0	12.6	4	4.0	4	-1E+10	1	-1E+10	1	-1E+10	1	-1E+10	1	-1E+10	1	-1E+10	1
4901784	57	C	01/25/2017	10:46	-132.467	44.212	0	779.20	0	3.8700	0	34.3240	0	27.268	0	771.481	0	12.4	4	3.9	4	-1E+10	1	-1E+10	1	-1E+10	1	-1E+10	1	-1E+10	1	-1E+10	1
4901784	57	C	01/25/2017	10:46	-132.467	44.212	0	784.30	0	3.8570	0	34.3290	0	27.273	0	776.521	0	12.2	4	3.8	4	-1E+10	1	-1E+10	1	-1E+10	1	-1E+10	1	-1E+10	1	-1E+10	1
4901784	57	C	01/25/2017	10:46	-132.467	44.212	0	789.30	0	3.8360	0	34.3350	0	27.280	0	781.462	0	12.1	4	3.8	4	-1E+10	1	-1E+10	1	-1E+10	1	-1E+10	1	-1E+10	1	-1E+10	1
4901784	57	C	01/25/2017	10:46	-132.467	44.212	0	794.40	0	3.8140	0	34.3400	0	27.286	0	786.502	0	11.9	4	3.8	4	-1E+10	1	-1E+10	1	-1E+10	1	-1E+10	1	-1E+10	1	-1E+10	1
4901784	57	C	01/25/2017	10:46	-132.467	44.212	0	799.40	0	3.8010	0	34.3430	0	27.290	0	791.443	0	11.8	4	3.7	4	-1E+10	1	-1E+10	1	-1E+10	1	-1E+10	1	-1E+10	1	-1E+10	1
4901784	57	C	01/25/2017	10:46	-132.467	44.212	0	804.50	0	3.7810	0	34.3490	0	27.297	0	796.482	0	11.7	4	3.7	4	-1E+10	1	-1E+10	1	-1E+10	1	-1E+10	1	-1E+10	1	-1E+10	1
4901784	57	C	01/25/2017	10:46	-132.467	44.212	0	809.60	0	3.7710	0	34.3510	0	27.299	0	801.522	0	11.7	4	3.7	4	-1E+10	1	-1E+10	1	-1E+10	1	-1E+10	1	-1E+10	1	-1E+10	1
4901784	57	C	01/25/2017	10:46	-132.467	44.212	0	814.70	0	3.7590	0	34.3540	0	27.303	0	806.561	0	11.6	4	3.7	4	-1E+10	1	-1E+10	1	-1E+10	1	-1E+10	1	-1E+10	1	-1E+10	1
4901784	57	C	01/25/2017	10:46	-132.467	44.212	0	820.00	0	3.7460	0	34.3570	0	27.306	0	811.798	0	11.6	4	3.6	4	-1E+10	1	-1E+10	1	-1E+10	1	-1E+10	1	-1E+10	1	-1E+10	1
4901784	57	C	01/25/2017	10:46	-132.467	44.212	0	825.30	0	3.7380	0	34.3590	0	27.309	0	817.034	0	11.6	4	3.6	4	-1E+10	1	-1E+10	1	-1E+10	1	-1E+10	1	-1E+10	1	-1E+10	1
4901784	57	C	01/25/2017	10:46	-132.467	44.212	0	830.60	0	3.7300	0	34.3620	0	27.312	0	822.271	0	11.5	4	3.6	4	-1E+10	1	-1E+10	1	-1E+10	1	-1E+10	1	-1E+10	1	-1E+10	1
4901784	57	C	01/25/2017	10:46	-132.467	44.212	0	835.00	0	3.7240	0	34.3630	0	27.314	0	826.618	0	11.4	4	3.6	4	-1E+10	1	-1E+10	1	-1E+10	1	-1E+10	1	-1E+10	1	-1E+10	1
4901784	57	C	01/25/2017	10:46	-132.467	44.212	0	839.40	0	3.7110	0	34.3670	0	27.318	0	830.965	0	11.4	4	3.6	4	-1E+10	1	-1E+10	1	-1E+10	1	-1E+10	1	-1E+10	1	-1E+10	1
4901784	57	C	01/25/2017	10:46	-132.467	44.212	0	844.80	0	3.7020	0	34.3690	0	27.321	0	836.300	0	11.4	4	3.6	4	-1E+10	1	-1E+10	1	-1E+10	1	-1E+10	1	-1E+10	1	-1E+10	1
4901784	57	C	01/25/2017	10:46	-132.467	44.212	0	850.30	0	3.6930	0	34.3720	0	27.324	0	841.734	0	11.4	4	3.6	4	-1E+10	1	-1E+10	1	-1E+10	1	-1E+10	1	-1E+10	1	-1E+10	1
4901784	57	C	01/25/2017	10:46	-132.467	44.212	0	854.80	0	3.6840	0	34.3740	0	27.326	0	846.179	0	11.3	4	3.6	4	-1E+10	1	-1E+10	1	-1E+10	1	-1E+10	1	-1E+10	1	-1E+10	1
4901784	57	C	01/25/2017	10:46	-132.467	44.212	0	859.40	0	3.6660	0	34.3770	0	27.331	0	850.724	0	11.3	4	3.6	4	-1E+10	1	-1E+10	1	-1E+10	1	-1E+10	1	-1E+10	1	-1E+10	1
4901784	57	C	01/25/2017	10:46	-132.467	44.212	0	864.90	0	3.6390	0	34.3850	0	27.340	0	856.157	0	11.3	4	3.5	4	-1E+10	1	-1E+10	1	-1E+10	1	-1E+10	1	-1E+10	1	-1E+10	1
4901784	57	C	01/25/2017	10:46	-132.467	44.212	0	870.30	0	3.6300	0	34.3860	0	27.341	0	861.491	0	11.3	4	3.5	4	-1E+10	1	-1E+10	1	-1E+10	1	-1E+10	1	-1E+10	1	-1E+10	1
4901784	57	C	01/25/2017	10:46	-132.467	44.212	0	874.90	0	3.6220	0	34.3890	0	27.345	0	866.035	0	11.3	4	3.5	4	-1E+10	1	-1E+10	1	-1E+10	1	-1E+10	1	-1E+10	1	-1E+10	1
4901784	57	C	01/25/2017	10:46	-132.467	44.212	0	879.50	0	3.6100	0	34.3910	0	27.347	0	870.579	0	11.3	4	3.5	4	-1E+10	1	-1E+10	1	-1E+10	1	-1E+10	1	-1E+10	1	-1E+10	1
4901784	57	C	01/25/2017	10:46	-132.467	44.212	0	885.10	0	3.5960	0	34.3950	0	27.352	0	876.110	0	11.4	4	3.6	4	-1E+10	1	-1E+10	1	-1E+10	1	-1E+10	1	-1E+10	1	-1E+10	1
4901784	57	C	01/25/2017	10:46	-132.467	44.212	0	889.90	0	3.5860	0	34.3970	0	27.355	0	880.851	0	11.4	4	3.6	4	-1E+10	1	-1E+10	1	-1E+10	1	-1E+10	1	-1E+10	1	-1E+10	1
4901784	57	C	01/25/2017	10:46	-132.467	44.212	0	894.60	0	3.5700	0	34.4020	0	27.360	0	885.494	0	11.4	4	3.6	4	-1E+10	1	-1E+10	1	-1E+10	1	-1E+10	1	-1E+10	1	-1E+10	1
4901784	57	C	01/25/2017	10:46	-132.467	44.212	0	900.00	0	3.5670	0	34.4020	0	27.360	0	890.827	0	11.4	4	3.6	4	-1E+10	1	-1E+10	1	-1E+10	1	-1E+10	1	-1E+10	1	-1E+10	1
4901784	57	C	01/25/2017	10:46	-132.467	44.212	0	904.20	0	3.5480	0	34.4070	0	27.366	0	894.975	0	11.5	4	3.6	4	-1E+10	1	-1E+10	1	-1E+10	1	-1E+10	1	-1E+10	1	-1E+10	1
4901784	57	C	01/25/2017	10:46	-132.467	44.212	0	910.00	0	3.5350	0	34.4100	0	27.370	0	900.704	0	11.5	4	3.6	4	-1E+10	1	-1E+10	1	-1E+10	1	-1E+10	1	-1E+10	1	-1E+10	1
4901784	57	C	01/25/2017	10:46	-132.467	44.212	0	915.80	0	3.5200	0	34.4130	0	27.374	0	906.432	0	11.6	4	3.6	4	-1E+10	1	-1E+10	1	-1E+10	1	-1E+10	1	-1E+10	1	-1E+10	1
4901784	57	C	01/25/2017	10:46	-132.467	44.212	0	920.00	0	3.5150	0	34.4150	0	27.376	0	910.580	0	11.7	4	3.6	4	-1E+10	1	-1E+10	1	-1E+10	1	-1E+10	1	-1E+10	1	-1E+10	1
4901784	57	C	01/25/2017	10:46	-132.467	44.212	0	924.20	0	3.5060	0	34.4180	0	27.379	0	914.728	0	11.8	4	3.7	4	-1E+10	1	-1E+10	1	-1E+10	1	-1E+10	1	-1E+10	1	-1E+10	1
4901784	57	C	01/25/2017	10:46	-132.467	44.212	0	929.40	0	3.4910	0	34.4220	0	27.384	0	919.863	0	11.9	4	3.7	4	-1E+10	1	-1E+10	1	-1E+10	1	-1E+10	1	-1E+10	1	-1E+10	1
4901784	57	C	01/25/2017	10:46	-132.467	44.212	0	934.50	0	3.4750	0	34.4270	0	27.389	0	924.899	0	11.9	4	3.7	4	-1E+10	1	-1E+10	1	-1E+10	1	-1E+10	1	-1E+10	1	-1E+10	1
4901784	57	C	01/25/2017	10:46	-132.467	44.212	0	939.70	0	3.4630	0	34.4290	0	27.392	0	930.034	0	12.0	4	3.7	4	-1E+10	1	-1E+10	1	-1E+10	1	-1E+10	1	-1E+10	1	-1E+10	1
4901784	57	C	01/25/2017	10:46	-132.467	44.212	0	944.80	0	3.4530	0	34.4310	0	27.395	0	935.071	0	12.1	4	3.8	4	-1E+10	1	-1E+10	1	-1E+10	1	-1E+10	1	-1E+10	1	-1E+10	1
4901784	57	C	01/25/2017	10:46	-132.467	44.212	0	950.10	0	3.4430	0	34.4340	0	27.398	0	940.304	0	12.2	4	3.8	4	-1E+10	1	-1E+10	1	-1E+10	1	-1E+10	1	-1E+10	1	-1E+10	1
4901784	57	C	01/25/2017	10:46	-132.467	44.212	0	955.50	0	3.4330	0	34.4380	0	27.402	0	945.636	0	12.3	4	3.8	4	-1E+10	1	-1E+10	1	-1E+10	1	-1E+10	1	-1E+10	1	-1E+10	1
4901784	57	C	01/25/2017	10:46	-132.467	44.212	0	959.90	0	3.4280	0	34.4400	0	27.404	0	949.981	0	12.4	4	3.9	4	-1E+10	1	-1E+10	1	-1E+10	1	-1E+10	1	-1E+10	1	-1E+10	1
4901784	57	C	01/25/2017	10:46	-132.467	44.212	0	964.40	0	3.4210	0	34.4420	0	27.407	0	954.424	0	12.4	4	3.9	4	-1E+10	1	-1E+10	1	-1E+10	1	-1E+10	1	-1E+10	1	-1E+10	1
4901784	57	C	01/25/2017	10:46	-132.467	44.212	0	969.80	0	3.4190	0	34.4420	0	27.407	0	959.756	0	12.5	4	3.9	4	-1E+10	1	-1E+10	1	-1E+10	1	-1E+10	1	-1E+10	1	-1E+10	1
4901784	57	C	01/25/2017	10:46	-132.467	44.212	0	975.30	0	3.4120	0	34.4440	0	27.409	0	965.186	0	12.5	4	3.9	4	-1E+10	1	-1E+10	1	-1E+10	1	-1E+10	1	-1E+10	1	-1E+10	1
4901784	57	C	01/25/2017	10:46	-132.467	44.212	0	980.00	0	3.3990	0	34.4470	0	27.413	0	969.827	0	12.6	4	3.9	4	-1E+10	1	-1E+10	1	-1E+10	1	-1E+10	1	-1E+10	1	-1E+10	1
4901784	57	C	01/25/2017	10:46	-132.467	44.212	0	984.70	0	3.3910	0	34.4490	0	27.415	0	974.467	0	12.7	4	4.0	4	-1E+10	1	-1E+10	1	-1E+10	1	-1E+10	1	-1E+10	1	-1E+10	1
4901784	57	C	01/25/2017	10:46	-132.467	44.212	0	990.20	0	3.3850	0	34.4510	0	27.418	0	979.897	0	12.8	4	4.0	4	-1E+10	1	-1E+10	1	-1E+10	1	-1E+10	1	-1E+10	1	-1E+10	1
4901784	57	C	01/25/2017	10:46	-132.467	44.212	0	994.90	0	3.3770	0	34.4530	0	27.420	0	984.537	0	12.8	4	4.0	4	-1E+10	1	-1E+10	1	-1E+10	1	-1E+10	1	-1E+10	1	-1E+10	1
4901784	57	C	01/25/2017	10:46	-132.467	44.212	0	999.50	0	3.3670	0	34.4550	0	27.423	0	989.078	0	12.9	4	4.0	4	-1E+10	1	-1E+10	1	-1E+10	1	-1E+10	1	-1E+10	1	-1E+10	1
4901784	57	C	01/25/2017	10:46	-132.467	44.212	0	1005.20	0	3.3600	0	34.4570	0	27.425	0	994.705	0	13.1	4	4.1	4	-1E+10	1	-1E+10	1	-1E+10	1	-1E+10	1	-1E+10	1	-1E+10	1
4901784	57	C	01/25/2017	10:46	-132.467	44.212	0	1009.90	0	3.3510	0	34.4590	0	27.427	0	999.345	0	13.2	4	4.1	4	-1E+10	1	-1E+10	1	-1E+10	1	-1E+10	1	-1E+10	1	-1E+10	1
4901784	57	C	01/25/2017	10:46	-132.467	44.212	0	1014.60	0	3.3380	0	34.4630	0	27.432	0	1003.985	0	13.4	4	4.2	4	-1E+10	1	-1E+10	1	-1E+10	1	-1E+10	1	-1E+10	1	-1E+10	1
4901784	57	C	01/25/2017	10:46	-132.467	44.212	0	1020.20	0	3.3350	0	34.4650	0	27.434	0	1009.513	0	13.5	4	4.2	4	-1E+10	1	-1E+10	1	-1E+10	1	-1E+10	1	-1E+10	1	-1E+10	1
4901784	57	C	01/25/2017	10:46	-132.467	44.212	0	1025.50	0	3.3280	0	34.4670	0	27.436	0	1014.744	0	13.7	4	4.3	4	-1E+10	1	-1E+10	1	-1E+10	1	-1E+10	1	-1E+10	1	-1E+10	1
4901784	57	C	01/25/2017	10:46	-132.467	44.212	0	1030.40	0	3.3260	0	34.4680	0	27.437	0	1019.581	0	13.9	4	4.3	4	-1E+10	1	-1E+10	1	-1E+10	1	-1E+10	1	-1E+10	1	-1E+10	1
4901784	57	C	01/25/2017	10:46	-132.467	44.212	0	1035.30	0	3.3180	0	34.4710	0	27.440	0	1024.418	0	14.2	4	4.4	4	-1E+10	1	-1E+10	1	-1E+10	1	-1E+10	1	-1E+10	1	-1E+10	1
4901784	57	C	01/25/2017	10:46	-132.467	44.212	0	1040.20	0	3.3100	0	34.4740	0	27.443	0	1029.254	0	14.3	4	4.4	4	-1E+10	1	-1E+10	1	-1E+10	1	-1E+10	1	-1E+10	1	-1E+10	1
4901784	57	C	01/25/2017	10:46	-132.467	44.212	0	1045.20	0	3.3090	0	34.4740	0	27.443	0	1034.189	0	14.5	4	4.5	4	-1E+10	1	-1E+10	1	-1E+10	1	-1E+10	1	-1E+10	1	-1E+10	1
4901784	57	C	01/25/2017	10:46	-132.467	44.212	0	1050.10	0	3.3040	0	34.4770	0	27.446	0	1039.025	0	14.7	4	4.6	4	-1E+10	1	-1E+10	1	-1E+10	1	-1E+10	1	-1E+10	1	-1E+10	1
4901784	57	C	01/25/2017	10:46	-132.467	44.212	0	1055.00	0	3.2950	0	34.4790	0	27.449	0	1043.861	0	14.9	4	4.6	4	-1E+10	1	-1E+10	1	-1E+10	1	-1E+10	1	-1E+10	1	-1E+10	1
4901784	57	C	01/25/2017	10:46	-132.467	44.212	0	1059.90	0	3.2890	0	34.4810	0	27.451	0	1048.697	0	15.3	4	4.7	4	-1E+10	1	-1E+10	1	-1E+10	1	-1E+10	1	-1E+10	1	-1E+10	1
4901784	57	C	01/25/2017	10:46	-132.467	44.212	0	1064.80	0	3.2900	0	34.4830	0	27.453	0	1053.533	0	15.6	4	4.9	4	-1E+10	1	-1E+10	1	-1E+10	1	-1E+10	1	-1E+10	1	-1E+10	1
4901784	57	C	01/25/2017	10:46	-132.467	44.212	0	1069.90	0	3.2880	0	34.4870	0	27.456	0	1058.567	0	15.9	4	5.0	4	-1E+10	1	-1E+10	1	-1E+10	1	-1E+10	1	-1E+10	1	-1E+10	1
4901784	57	C	01/25/2017	10:46	-132.467	44.212	0	1074.90	0	3.2800	0	34.4900	0	27.459	0	1063.501	0	16.2	4	5.0	4	-1E+10	1	-1E+10	1	-1E+10	1	-1E+10	1	-1E+10	1	-1E+10	1
4901784	57	C	01/25/2017	10:46	-132.467	44.212	0	1080.00	0	3.2760	0	34.4910	0	27.460	0	1068.534	0	16.4	4	5.1	4	-1E+10	1	-1E+10	1	-1E+10	1	-1E+10	1	-1E+10	1	-1E+10	1
4901784	57	C	01/25/2017	10:46	-132.467	44.212	0	1085.00	0	3.2720	0	34.4930	0	27.462	0	1073.468	0	16.5	4	5.1	4	-1E+10	1	-1E+10	1	-1E+10	1	-1E+10	1	-1E+10	1	-1E+10	1
4901784	57	C	01/25/2017	10:46	-132.467	44.212	0	1090.10	0	3.2680	0	34.4940	0	27.464	0	1078.501	0	16.7	4	5.2	4	-1E+10	1	-1E+10	1	-1E+10	1	-1E+10	1	-1E+10	1	-1E+10	1
4901784	57	C	01/25/2017	10:46	-132.467	44.212	0	1095.40	0	3.2640	0	34.4950	0	27.465	0	1083.731	0	16.8	4	5.2	4	-1E+10	1	-1E+10	1	-1E+10	1	-1E+10	1	-1E+10	1	-1E+10	1
4901784	57	C	01/25/2017	10:46	-132.467	44.212	0	1100.20	0	3.2540	0	34.4970	0	27.467	0	1088.467	0	17.0	4	5.3	4	-1E+10	1	-1E+10	1	-1E+10	1	-1E+10	1	-1E+10	1	-1E+10	1
4901784	57	C	01/25/2017	10:46	-132.467	44.212	0	1105.00	0	3.2400	0	34.4980	0	27.469	0	1093.203	0	17.1	4	5.3	4	-1E+10	1	-1E+10	1	-1E+10	1	-1E+10	1	-1E+10	1	-1E+10	1
4901784	57	C	01/25/2017	10:46	-132.467	44.212	0	1109.80	0	3.2300	0	34.5000	0	27.472	0	1097.940	0	17.3	4	5.4	4	-1E+10	1	-1E+10	1	-1E+10	1	-1E+10	1	-1E+10	1	-1E+10	1
4901784	57	C	01/25/2017	10:46	-132.467	44.212	0	1114.70	0	3.2270	0	34.5020	0	27.474	0	1102.774	0	17.6	4	5.5	4	-1E+10	1	-1E+10	1	-1E+10	1	-1E+10	1	-1E+10	1	-1E+10	1
4901784	57	C	01/25/2017	10:46	-132.467	44.212	0	1120.50	0	3.2200	0	34.5050	0	27.477	0	1108.497	0	17.8	4	5.5	4	-1E+10	1	-1E+10	1	-1E+10	1	-1E+10	1	-1E+10	1	-1E+10	1
4901784	57	C	01/25/2017	10:46	-132.467	44.212	0	1125.40	0	3.2140	0	34.5060	0	27.478	0	1113.332	0	17.9	4	5.6	4	-1E+10	1	-1E+10	1	-1E+10	1	-1E+10	1	-1E+10	1	-1E+10	1
4901784	57	C	01/25/2017	10:46	-132.467	44.212	0	1130.30	0	3.2120	0	34.5060	0	27.479	0	1118.166	0	18.2	4	5.7	4	-1E+10	1	-1E+10	1	-1E+10	1	-1E+10	1	-1E+10	1	-1E+10	1
4901784	57	C	01/25/2017	10:46	-132.467	44.212	0	1135.20	0	3.2160	0	34.5090	0	27.481	0	1123.000	0	18.7	4	5.8	4	-1E+10	1	-1E+10	1	-1E+10	1	-1E+10	1	-1E+10	1	-1E+10	1
4901784	57	C	01/25/2017	10:46	-132.467	44.212	0	1140.20	0	3.2160	0	34.5130	0	27.484	0	1127.933	0	19.0	4	5.9	4	-1E+10	1	-1E+10	1	-1E+10	1	-1E+10	1	-1E+10	1	-1E+10	1
4901784	57	C	01/25/2017	10:46	-132.467	44.212	0	1145.10	0	3.2150	0	34.5140	0	27.485	0	1132.767	0	19.1	4	5.9	4	-1E+10	1	-1E+10	1	-1E+10	1	-1E+10	1	-1E+10	1	-1E+10	1
4901784	57	C	01/25/2017	10:46	-132.467	44.212	0	1150.10	0	3.2040	0	34.5150	0	27.487	0	1137.700	0	19.1	4	5.9	4	-1E+10	1	-1E+10	1	-1E+10	1	-1E+10	1	-1E+10	1	-1E+10	1
4901784	57	C	01/25/2017	10:46	-132.467	44.212	0	1155.10	0	3.1960	0	34.5150	0	27.487	0	1142.632	0	19.1	4	5.9	4	-1E+10	1	-1E+10	1	-1E+10	1	-1E+10	1	-1E+10	1	-1E+10	1
4901784	57	C	01/25/2017	10:46	-132.467	44.212	0	1160.10	0	3.1830	0	34.5160	0	27.489	0	1147.565	0	19.1	4	5.9	4	-1E+10	1	-1E+10	1	-1E+10	1	-1E+10	1	-1E+10	1	-1E+10	1
4901784	57	C	01/25/2017	10:46	-132.467	44.212	0	1165.10	0	3.1760	0	34.5170	0	27.491	0	1152.497	0	19.2	4	6.0	4	-1E+10	1	-1E+10	1	-1E+10	1	-1E+10	1	-1E+10	1	-1E+10	1
4901784	57	C	01/25/2017	10:46	-132.467	44.212	0	1170.10	0	3.1770	0	34.5170	0	27.491	0	1157.429	0	19.3	4	6.0	4	-1E+10	1	-1E+10	1	-1E+10	1	-1E+10	1	-1E+10	1	-1E+10	1
4901784	57	C	01/25/2017	10:46	-132.467	44.212	0	1175.20	0	3.1760	0	34.5180	0	27.492	0	1162.460	0	19.3	4	6.0	4	-1E+10	1	-1E+10	1	-1E+10	1	-1E+10	1	-1E+10	1	-1E+10	1
4901784	57	C	01/25/2017	10:46	-132.467	44.212	0	1180.20	0	3.1690	0	34.5180	0	27.493	0	1167.392	0	19.3	4	6.0	4	-1E+10	1	-1E+10	1	-1E+10	1	-1E+10	1	-1E+10	1	-1E+10	1
4901784	57	C	01/25/2017	10:46	-132.467	44.212	0	1185.30	0	3.1660	0	34.5180	0	27.493	0	1172.422	0	19.3	4	6.0	4	-1E+10	1	-1E+10	1	-1E+10	1	-1E+10	1	-1E+10	1	-1E+10	1
4901784	57	C	01/25/2017	10:46	-132.467	44.212	0	1190.30	0	3.1560	0	34.5190	0	27.495	0	1177.354	0	19.4	4	6.0	4	-1E+10	1	-1E+10	1	-1E+10	1	-1E+10	1	-1E+10	1	-1E+10	1
4901784	57	C	01/25/2017	10:46	-132.467	44.212	0	1195.40	0	3.1470	0	34.5200	0	27.496	0	1182.384	0	19.4	4	6.0	4	-1E+10	1	-1E+10	1	-1E+10	1	-1E+10	1	-1E+10	1	-1E+10	1
4901784	57	C	01/25/2017	10:46	-132.467	44.212	0	1200.40	0	3.1350	0	34.5200	0	27.497	0	1187.315	0	19.5	4	6.1	4	-1E+10	1	-1E+10	1	-1E+10	1	-1E+10	1	-1E+10	1	-1E+10	1
4901784	57	C	01/25/2017	10:46	-132.467	44.212	0	1205.60	0	3.1260	0	34.5210	0	27.499	0	1192.444	0	19.7	4	6.1	4	-1E+10	1	-1E+10	1	-1E+10	1	-1E+10	1	-1E+10	1	-1E+10	1
4901784	57	C	01/25/2017	10:46	-132.467	44.212	0	1209.70	0	3.1080	0	34.5240	0	27.503	0	1196.488	0	19.8	4	6.1	4	-1E+10	1	-1E+10	1	-1E+10	1	-1E+10	1	-1E+10	1	-1E+10	1
4901784	57	C	01/25/2017	10:46	-132.467	44.212	0	1214.90	0	3.0970	0	34.5250	0	27.505	0	1201.616	0	19.9	4	6.2	4	-1E+10	1	-1E+10	1	-1E+10	1	-1E+10	1	-1E+10	1	-1E+10	1
4901784	57	C	01/25/2017	10:46	-132.467	44.212	0	1220.00	0	3.0920	0	34.5260	0	27.506	0	1206.646	0	20.0	4	6.2	4	-1E+10	1	-1E+10	1	-1E+10	1	-1E+10	1	-1E+10	1	-1E+10	1
4901784	57	C	01/25/2017	10:46	-132.467	44.212	0	1225.30	0	3.0880	0	34.5260	0	27.507	0	1211.872	0	20.1	4	6.2	4	-1E+10	1	-1E+10	1	-1E+10	1	-1E+10	1	-1E+10	1	-1E+10	1
4901784	57	C	01/25/2017	10:46	-132.467	44.212	0	1230.90	0	3.0840	0	34.5270	0	27.508	0	1217.395	0	20.2	4	6.3	4	-1E+10	1	-1E+10	1	-1E+10	1	-1E+10	1	-1E+10	1	-1E+10	1
4901784	57	C	01/25/2017	10:46	-132.467	44.212	0	1235.20	0	3.0750	0	34.5280	0	27.509	0	1221.635	0	20.4	4	6.3	4	-1E+10	1	-1E+10	1	-1E+10	1	-1E+10	1	-1E+10	1	-1E+10	1
4901784	57	C	01/25/2017	10:46	-132.467	44.212	0	1240.10	0	3.0670	0	34.5290	0	27.511	0	1226.467	0	20.7	4	6.4	4	-1E+10	1	-1E+10	1	-1E+10	1	-1E+10	1	-1E+10	1	-1E+10	1
4901784	57	C	01/25/2017	10:46	-132.467	44.212	0	1245.10	0	3.0590	0	34.5310	0	27.513	0	1231.397	0	20.9	4	6.5	4	-1E+10	1	-1E+10	1	-1E+10	1	-1E+10	1	-1E+10	1	-1E+10	1
4901784	57	C	01/25/2017	10:46	-132.467	44.212	0	1250.10	0	3.0390	0	34.5340	0	27.518	0	1236.328	0	21.1	4	6.5	4	-1E+10	1	-1E+10	1	-1E+10	1	-1E+10	1	-1E+10	1	-1E+10	1
4901784	57	C	01/25/2017	10:46	-132.467	44.212	0	1255.10	0	3.0360	0	34.5340	0	27.518	0	1241.258	0	21.2	4	6.5	4	-1E+10	1	-1E+10	1	-1E+10	1	-1E+10	1	-1E+10	1	-1E+10	1
4901784	57	C	01/25/2017	10:46	-132.467	44.212	0	1260.00	0	3.0330	0	34.5350	0	27.519	0	1246.089	0	21.4	4	6.6	4	-1E+10	1	-1E+10	1	-1E+10	1	-1E+10	1	-1E+10	1	-1E+10	1
4901784	57	C	01/25/2017	10:46	-132.467	44.212	0	1264.90	0	3.0260	0	34.5370	0	27.521	0	1250.921	0	21.6	4	6.7	4	-1E+10	1	-1E+10	1	-1E+10	1	-1E+10	1	-1E+10	1	-1E+10	1
4901784	57	C	01/25/2017	10:46	-132.467	44.212	0	1269.90	0	3.0210	0	34.5380	0	27.523	0	1255.851	0	21.8	4	6.7	4	-1E+10	1	-1E+10	1	-1E+10	1	-1E+10	1	-1E+10	1	-1E+10	1
4901784	57	C	01/25/2017	10:46	-132.467	44.212	0	1274.90	0	3.0150	0	34.5390	0	27.524	0	1260.780	0	21.9	4	6.8	4	-1E+10	1	-1E+10	1	-1E+10	1	-1E+10	1	-1E+10	1	-1E+10	1
4901784	57	C	01/25/2017	10:46	-132.467	44.212	0	1279.90	0	3.0110	0	34.5400	0	27.525	0	1265.710	0	22.0	4	6.8	4	-1E+10	1	-1E+10	1	-1E+10	1	-1E+10	1	-1E+10	1	-1E+10	1
4901784	57	C	01/25/2017	10:46	-132.467	44.212	0	1285.00	0	3.0080	0	34.5400	0	27.525	0	1270.738	0	22.2	4	6.8	4	-1E+10	1	-1E+10	1	-1E+10	1	-1E+10	1	-1E+10	1	-1E+10	1
4901784	57	C	01/25/2017	10:46	-132.467	44.212	0	1290.10	0	3.0010	0	34.5420	0	27.528	0	1275.766	0	22.3	4	6.9	4	-1E+10	1	-1E+10	1	-1E+10	1	-1E+10	1	-1E+10	1	-1E+10	1
4901784	57	C	01/25/2017	10:46	-132.467	44.212	0	1295.20	0	2.9970	0	34.5420	0	27.528	0	1280.794	0	22.4	4	6.9	4	-1E+10	1	-1E+10	1	-1E+10	1	-1E+10	1	-1E+10	1	-1E+10	1
4901784	57	C	01/25/2017	10:46	-132.467	44.212	0	1300.30	0	2.9910	0	34.5430	0	27.529	0	1285.821	0	22.5	4	7.0	4	-1E+10	1	-1E+10	1	-1E+10	1	-1E+10	1	-1E+10	1	-1E+10	1
4901784	57	C	01/25/2017	10:46	-132.467	44.212	0	1305.50	0	2.9880	0	34.5430	0	27.530	0	1290.948	0	22.7	4	7.0	4	-1E+10	1	-1E+10	1	-1E+10	1	-1E+10	1	-1E+10	1	-1E+10	1
4901784	57	C	01/25/2017	10:46	-132.467	44.212	0	1310.60	0	2.9770	0	34.5460	0	27.533	0	1295.975	0	23.0	4	7.1	4	-1E+10	1	-1E+10	1	-1E+10	1	-1E+10	1	-1E+10	1	-1E+10	1
4901784	57	C	01/25/2017	10:46	-132.467	44.212	0	1315.00	0	2.9750	0	34.5470	0	27.534	0	1300.312	0	23.0	4	7.1	4	-1E+10	1	-1E+10	1	-1E+10	1	-1E+10	1	-1E+10	1	-1E+10	1
4901784	57	C	01/25/2017	10:46	-132.467	44.212	0	1319.20	0	2.9720	0	34.5470	0	27.534	0	1304.452	0	23.1	4	7.1	4	-1E+10	1	-1E+10	1	-1E+10	1	-1E+10	1	-1E+10	1	-1E+10	1
4901784	57	C	01/25/2017	10:46	-132.467	44.212	0	1324.40	0	2.9640	0	34.5480	0	27.536	0	1309.578	0	23.2	4	7.2	4	-1E+10	1	-1E+10	1	-1E+10	1	-1E+10	1	-1E+10	1	-1E+10	1
4901784	57	C	01/25/2017	10:46	-132.467	44.212	0	1329.60	0	2.9480	0	34.5480	0	27.537	0	1314.704	0	23.3	4	7.2	4	-1E+10	1	-1E+10	1	-1E+10	1	-1E+10	1	-1E+10	1	-1E+10	1
4901784	57	C	01/25/2017	10:46	-132.467	44.212	0	1334.80	0	2.9450	0	34.5490	0	27.539	0	1319.829	0	23.5	4	7.3	4	-1E+10	1	-1E+10	1	-1E+10	1	-1E+10	1	-1E+10	1	-1E+10	1
4901784	57	C	01/25/2017	10:46	-132.467	44.212	0	1340.10	0	2.9330	0	34.5500	0	27.540	0	1325.053	0	23.7	4	7.3	4	-1E+10	1	-1E+10	1	-1E+10	1	-1E+10	1	-1E+10	1	-1E+10	1
4901784	57	C	01/25/2017	10:46	-132.467	44.212	0	1345.40	0	2.9200	0	34.5510	0	27.542	0	1330.277	0	23.8	4	7.3	4	-1E+10	1	-1E+10	1	-1E+10	1	-1E+10	1	-1E+10	1	-1E+10	1
4901784	57	C	01/25/2017	10:46	-132.467	44.212	0	1350.00	0	2.9110	0	34.5520	0	27.544	0	1334.811	0	23.9	4	7.4	4	-1E+10	1	-1E+10	1	-1E+10	1	-1E+10	1	-1E+10	1	-1E+10	1
4901784	57	C	01/25/2017	10:46	-132.467	44.212	0	1354.50	0	2.9050	0	34.5530	0	27.545	0	1339.246	0	24.0	4	7.4	4	-1E+10	1	-1E+10	1	-1E+10	1	-1E+10	1	-1E+10	1	-1E+10	1
4901784	57	C	01/25/2017	10:46	-132.467	44.212	0	1360.00	0	2.9020	0	34.5530	0	27.546	0	1344.666	0	24.1	4	7.4	4	-1E+10	1	-1E+10	1	-1E+10	1	-1E+10	1	-1E+10	1	-1E+10	1
4901784	57	C	01/25/2017	10:46	-132.467	44.212	0	1365.40	0	2.8950	0	34.5540	0	27.547	0	1349.988	0	24.3	4	7.5	4	-1E+10	1	-1E+10	1	-1E+10	1	-1E+10	1	-1E+10	1	-1E+10	1
4901784	57	C	01/25/2017	10:46	-132.467	44.212	0	1369.90	0	2.8910	0	34.5550	0	27.548	0	1354.423	0	24.5	4	7.5	4	-1E+10	1	-1E+10	1	-1E+10	1	-1E+10	1	-1E+10	1	-1E+10	1
4901784	57	C	01/25/2017	10:46	-132.467	44.212	0	1374.50	0	2.8800	0	34.5560	0	27.550	0	1358.956	0	24.7	4	7.6	4	-1E+10	1	-1E+10	1	-1E+10	1	-1E+10	1	-1E+10	1	-1E+10	1
4901784	57	C	01/25/2017	10:46	-132.467	44.212	0	1380.00	0	2.8650	0	34.5570	0	27.552	0	1364.376	0	24.9	4	7.7	4	-1E+10	1	-1E+10	1	-1E+10	1	-1E+10	1	-1E+10	1	-1E+10	1
4901784	57	C	01/25/2017	10:46	-132.467	44.212	0	1385.50	0	2.8510	0	34.5590	0	27.555	0	1369.796	0	25.1	4	7.7	4	-1E+10	1	-1E+10	1	-1E+10	1	-1E+10	1	-1E+10	1	-1E+10	1
4901784	57	C	01/25/2017	10:46	-132.467	44.212	0	1390.10	0	2.8480	0	34.5590	0	27.556	0	1374.329	0	25.2	4	7.8	4	-1E+10	1	-1E+10	1	-1E+10	1	-1E+10	1	-1E+10	1	-1E+10	1
4901784	57	C	01/25/2017	10:46	-132.467	44.212	0	1394.70	0	2.8430	0	34.5590	0	27.556	0	1378.862	0	25.3	4	7.8	4	-1E+10	1	-1E+10	1	-1E+10	1	-1E+10	1	-1E+10	1	-1E+10	1
4901784	57	C	01/25/2017	10:46	-132.467	44.212	0	1400.10	0	2.8320	0	34.5600	0	27.558	0	1384.183	0	25.5	4	7.8	4	-1E+10	1	-1E+10	1	-1E+10	1	-1E+10	1	-1E+10	1	-1E+10	1
4901784	57	C	01/25/2017	10:46	-132.467	44.212	0	1405.60	0	2.8150	0	34.5610	0	27.560	0	1389.602	0	25.6	4	7.9	4	-1E+10	1	-1E+10	1	-1E+10	1	-1E+10	1	-1E+10	1	-1E+10	1
4901784	57	C	01/25/2017	10:46	-132.467	44.212	0	1410.30	0	2.8030	0	34.5620	0	27.562	0	1394.233	0	25.7	4	7.9	4	-1E+10	1	-1E+10	1	-1E+10	1	-1E+10	1	-1E+10	1	-1E+10	1
4901784	57	C	01/25/2017	10:46	-132.467	44.212	0	1414.80	0	2.7950	0	34.5630	0	27.564	0	1398.667	0	25.8	4	7.9	4	-1E+10	1	-1E+10	1	-1E+10	1	-1E+10	1	-1E+10	1	-1E+10	1
4901784	57	C	01/25/2017	10:46	-132.467	44.212	0	1419.70	0	2.7880	0	34.5630	0	27.564	0	1403.495	0	25.8	4	7.9	4	-1E+10	1	-1E+10	1	-1E+10	1	-1E+10	1	-1E+10	1	-1E+10	1
4901784	57	C	01/25/2017	10:46	-132.467	44.212	0	1424.70	0	2.7860	0	34.5630	0	27.564	0	1408.421	0	25.9	4	8.0	4	-1E+10	1	-1E+10	1	-1E+10	1	-1E+10	1	-1E+10	1	-1E+10	1
4901784	57	C	01/25/2017	10:46	-132.467	44.212	0	1429.60	0	2.7810	0	34.5630	0	27.565	0	1413.249	0	26.0	4	8.0	4	-1E+10	1	-1E+10	1	-1E+10	1	-1E+10	1	-1E+10	1	-1E+10	1
4901784	57	C	01/25/2017	10:46	-132.467	44.212	0	1434.50	0	2.7720	0	34.5640	0	27.566	0	1418.076	0	26.0	4	8.0	4	-1E+10	1	-1E+10	1	-1E+10	1	-1E+10	1	-1E+10	1	-1E+10	1
4901784	57	C	01/25/2017	10:46	-132.467	44.212	0	1439.40	0	2.7580	0	34.5640	0	27.568	0	1422.903	0	26.0	4	8.0	4	-1E+10	1	-1E+10	1	-1E+10	1	-1E+10	1	-1E+10	1	-1E+10	1
4901784	57	C	01/25/2017	10:46	-132.467	44.212	0	1444.30	0	2.7370	0	34.5630	0	27.569	0	1427.731	0	25.9	4	8.0	4	-1E+10	1	-1E+10	1	-1E+10	1	-1E+10	1	-1E+10	1	-1E+10	1
4901784	57	C	01/25/2017	10:46	-132.467	44.212	0	1449.30	0	2.7180	0	34.5630	0	27.570	0	1432.656	0	26.0	4	8.0	4	-1E+10	1	-1E+10	1	-1E+10	1	-1E+10	1	-1E+10	1	-1E+10	1
4901784	57	C	01/25/2017	10:46	-132.467	44.212	0	1454.30	0	2.7090	0	34.5640	0	27.572	0	1437.582	0	26.1	4	8.0	4	-1E+10	1	-1E+10	1	-1E+10	1	-1E+10	1	-1E+10	1	-1E+10	1
4901784	57	C	01/25/2017	10:46	-132.467	44.212	0	1459.30	0	2.6990	0	34.5640	0	27.573	0	1442.508	0	26.2	4	8.0	4	-1E+10	1	-1E+10	1	-1E+10	1	-1E+10	1	-1E+10	1	-1E+10	1
4901784	57	C	01/25/2017	10:46	-132.467	44.212	0	1464.30	0	2.6820	0	34.5650	0	27.575	0	1447.433	0	26.3	4	8.1	4	-1E+10	1	-1E+10	1	-1E+10	1	-1E+10	1	-1E+10	1	-1E+10	1
4901784	57	C	01/25/2017	10:46	-132.467	44.212	0	1469.40	0	2.6700	0	34.5650	0	27.576	0	1452.457	0	26.3	4	8.1	4	-1E+10	1	-1E+10	1	-1E+10	1	-1E+10	1	-1E+10	1	-1E+10	1
4901784	57	C	01/25/2017	10:46	-132.467	44.212	0	1474.40	0	2.6570	0	34.5660	0	27.578	0	1457.382	0	26.4	4	8.1	4	-1E+10	1	-1E+10	1	-1E+10	1	-1E+10	1	-1E+10	1	-1E+10	1
4901784	57	C	01/25/2017	10:46	-132.467	44.212	0	1479.40	0	2.6540	0	34.5660	0	27.578	0	1462.307	0	26.5	4	8.1	4	-1E+10	1	-1E+10	1	-1E+10	1	-1E+10	1	-1E+10	1	-1E+10	1
4901784	57	C	01/25/2017	10:46	-132.467	44.212	0	1484.60	0	2.6390	0	34.5660	0	27.580	0	1467.428	0	26.5	4	8.1	4	-1E+10	1	-1E+10	1	-1E+10	1	-1E+10	1	-1E+10	1	-1E+10	1
4901784	57	C	01/25/2017	10:46	-132.467	44.212	0	1489.70	0	2.6230	0	34.5670	0	27.582	0	1472.452	0	26.5	4	8.1	4	-1E+10	1	-1E+10	1	-1E+10	1	-1E+10	1	-1E+10	1	-1E+10	1
4901784	57	C	01/25/2017	10:46	-132.467	44.212	0	1494.90	0	2.6110	0	34.5660	0	27.582	0	1477.573	0	26.4	4	8.1	4	-1E+10	1	-1E+10	1	-1E+10	1	-1E+10	1	-1E+10	1	-1E+10	1
4901784	57	C	01/25/2017	10:46	-132.467	44.212	0	1500.00	0	2.5940	0	34.5660	0	27.584	0	1482.596	0	26.6	4	8.1	4	-1E+10	1	-1E+10	1	-1E+10	1	-1E+10	1	-1E+10	1	-1E+10	1
4901784	57	C	01/25/2017	10:46	-132.467	44.212	0	1505.30	0	2.5800	0	34.5670	0	27.586	0	1487.816	0	26.7	4	8.2	4	-1E+10	1	-1E+10	1	-1E+10	1	-1E+10	1	-1E+10	1	-1E+10	1
4901784	57	C	01/25/2017	10:46	-132.467	44.212	0	1510.50	0	2.5710	0	34.5680	0	27.587	0	1492.937	0	27.0	4	8.2	4	-1E+10	1	-1E+10	1	-1E+10	1	-1E+10	1	-1E+10	1	-1E+10	1
4901784	57	C	01/25/2017	10:46	-132.467	44.212	0	1515.00	0	2.5640	0	34.5690	0	27.589	0	1497.369	0	27.1	4	8.3	4	-1E+10	1	-1E+10	1	-1E+10	1	-1E+10	1	-1E+10	1	-1E+10	1
4901784	57	C	01/25/2017	10:46	-132.467	44.212	0	1519.30	0	2.5560	0	34.5690	0	27.589	0	1501.604	0	27.4	4	8.4	4	-1E+10	1	-1E+10	1	-1E+10	1	-1E+10	1	-1E+10	1	-1E+10	1
4901784	57	C	01/25/2017	10:46	-132.467	44.212	0	1524.60	0	2.5430	0	34.5700	0	27.591	0	1506.823	0	27.7	4	8.5	4	-1E+10	1	-1E+10	1	-1E+10	1	-1E+10	1	-1E+10	1	-1E+10	1
4901784	57	C	01/25/2017	10:46	-132.467	44.212	0	1530.00	0	2.5310	0	34.5710	0	27.593	0	1512.141	0	28.0	4	8.6	4	-1E+10	1	-1E+10	1	-1E+10	1	-1E+10	1	-1E+10	1	-1E+10	1
4901784	57	C	01/25/2017	10:46	-132.467	44.212	0	1535.40	0	2.5170	0	34.5730	0	27.596	0	1517.459	0	28.3	4	8.6	4	-1E+10	1	-1E+10	1	-1E+10	1	-1E+10	1	-1E+10	1	-1E+10	1
4901784	57	C	01/25/2017	10:46	-132.467	44.212	0	1539.90	0	2.5080	0	34.5730	0	27.597	0	1521.890	0	28.6	4	8.7	4	-1E+10	1	-1E+10	1	-1E+10	1	-1E+10	1	-1E+10	1	-1E+10	1
4901784	57	C	01/25/2017	10:46	-132.467	44.212	0	1544.40	0	2.4950	0	34.5740	0	27.599	0	1526.321	0	28.9	4	8.8	4	-1E+10	1	-1E+10	1	-1E+10	1	-1E+10	1	-1E+10	1	-1E+10	1
4901784	57	C	01/25/2017	10:46	-132.467	44.212	0	1549.70	0	2.4810	0	34.5750	0	27.601	0	1531.540	0	29.3	4	8.9	4	-1E+10	1	-1E+10	1	-1E+10	1	-1E+10	1	-1E+10	1	-1E+10	1
4901784	57	C	01/25/2017	10:46	-132.467	44.212	0	1555.10	0	2.4640	0	34.5770	0	27.604	0	1536.857	0	29.7	4	9.1	4	-1E+10	1	-1E+10	1	-1E+10	1	-1E+10	1	-1E+10	1	-1E+10	1
4901784	57	C	01/25/2017	10:46	-132.467	44.212	0	1560.70	0	2.4530	0	34.5780	0	27.605	0	1542.371	0	30.1	4	9.2	4	-1E+10	1	-1E+10	1	-1E+10	1	-1E+10	1	-1E+10	1	-1E+10	1
4901784	57	C	01/25/2017	10:46	-132.467	44.212	0	1565.30	0	2.4380	0	34.5800	0	27.608	0	1546.900	0	30.5	4	9.3	4	-1E+10	1	-1E+10	1	-1E+10	1	-1E+10	1	-1E+10	1	-1E+10	1
4901784	57	C	01/25/2017	10:46	-132.467	44.212	0	1569.90	0	2.4260	0	34.5800	0	27.609	0	1551.429	0	30.7	4	9.4	4	-1E+10	1	-1E+10	1	-1E+10	1	-1E+10	1	-1E+10	1	-1E+10	1
4901784	57	C	01/25/2017	10:46	-132.467	44.212	0	1575.00	0	2.4190	0	34.5810	0	27.611	0	1556.450	0	31.0	4	9.5	4	-1E+10	1	-1E+10	1	-1E+10	1	-1E+10	1	-1E+10	1	-1E+10	1
4901784	57	C	01/25/2017	10:46	-132.467	44.212	0	1580.10	0	2.4030	0	34.5830	0	27.614	0	1561.471	0	31.4	4	9.6	4	-1E+10	1	-1E+10	1	-1E+10	1	-1E+10	1	-1E+10	1	-1E+10	1
4901784	57	C	01/25/2017	10:46	-132.467	44.212	0	1585.70	0	2.3960	0	34.5840	0	27.615	0	1566.985	0	31.6	4	9.6	4	-1E+10	1	-1E+10	1	-1E+10	1	-1E+10	1	-1E+10	1	-1E+10	1
4901784	57	C	01/25/2017	10:46	-132.467	44.212	0	1590.50	0	2.3880	0	34.5850	0	27.617	0	1571.710	0	32.0	4	9.7	4	-1E+10	1	-1E+10	1	-1E+10	1	-1E+10	1	-1E+10	1	-1E+10	1
4901784	57	C	01/25/2017	10:46	-132.467	44.212	0	1595.30	0	2.3760	0	34.5860	0	27.618	0	1576.436	0	32.4	4	9.9	4	-1E+10	1	-1E+10	1	-1E+10	1	-1E+10	1	-1E+10	1	-1E+10	1
4901784	57	C	01/25/2017	10:46	-132.467	44.212	0	1600.20	0	2.3670	0	34.5870	0	27.620	0	1581.259	0	32.7	4	10.0	4	-1E+10	1	-1E+10	1	-1E+10	1	-1E+10	1	-1E+10	1	-1E+10	1
4901784	57	C	01/25/2017	10:46	-132.467	44.212	0	1605.10	0	2.3580	0	34.5880	0	27.622	0	1586.083	0	33.2	4	10.1	4	-1E+10	1	-1E+10	1	-1E+10	1	-1E+10	1	-1E+10	1	-1E+10	1
4901784	57	C	01/25/2017	10:46	-132.467	44.212	0	1610.10	0	2.3430	0	34.5900	0	27.624	0	1591.005	0	33.6	4	10.2	4	-1E+10	1	-1E+10	1	-1E+10	1	-1E+10	1	-1E+10	1	-1E+10	1
4901784	57	C	01/25/2017	10:46	-132.467	44.212	0	1615.10	0	2.3350	0	34.5910	0	27.626	0	1595.927	0	33.9	4	10.3	4	-1E+10	1	-1E+10	1	-1E+10	1	-1E+10	1	-1E+10	1	-1E+10	1
4901784	57	C	01/25/2017	10:46	-132.467	44.212	0	1620.10	0	2.3290	0	34.5920	0	27.627	0	1600.849	0	34.2	4	10.4	4	-1E+10	1	-1E+10	1	-1E+10	1	-1E+10	1	-1E+10	1	-1E+10	1
4901784	57	C	01/25/2017	10:46	-132.467	44.212	0	1625.20	0	2.3230	0	34.5930	0	27.629	0	1605.869	0	34.5	4	10.5	4	-1E+10	1	-1E+10	1	-1E+10	1	-1E+10	1	-1E+10	1	-1E+10	1
4901784	57	C	01/25/2017	10:46	-132.467	44.212	0	1630.20	0	2.3160	0	34.5930	0	27.629	0	1610.790	0	35.0	4	10.6	4	-1E+10	1	-1E+10	1	-1E+10	1	-1E+10	1	-1E+10	1	-1E+10	1
4901784	57	C	01/25/2017	10:46	-132.467	44.212	0	1635.20	0	2.3000	0	34.5960	0	27.633	0	1615.712	0	35.5	4	10.8	4	-1E+10	1	-1E+10	1	-1E+10	1	-1E+10	1	-1E+10	1	-1E+10	1
4901784	57	C	01/25/2017	10:46	-132.467	44.212	0	1640.30	0	2.2910	0	34.5970	0	27.634	0	1620.732	0	35.9	4	10.9	4	-1E+10	1	-1E+10	1	-1E+10	1	-1E+10	1	-1E+10	1	-1E+10	1
4901784	57	C	01/25/2017	10:46	-132.467	44.212	0	1645.40	0	2.2860	0	34.5970	0	27.635	0	1625.751	0	36.3	4	11.0	4	-1E+10	1	-1E+10	1	-1E+10	1	-1E+10	1	-1E+10	1	-1E+10	1
4901784	57	C	01/25/2017	10:46	-132.467	44.212	0	1650.50	0	2.2720	0	34.5990	0	27.638	0	1630.771	0	36.8	4	11.2	4	-1E+10	1	-1E+10	1	-1E+10	1	-1E+10	1	-1E+10	1	-1E+10	1
4901784	57	C	01/25/2017	10:46	-132.467	44.212	0	1655.70	0	2.2610	0	34.6010	0	27.640	0	1635.888	0	37.2	4	11.3	4	-1E+10	1	-1E+10	1	-1E+10	1	-1E+10	1	-1E+10	1	-1E+10	1
4901784	57	C	01/25/2017	10:46	-132.467	44.212	0	1660.00	0	2.2560	0	34.6020	0	27.641	0	1640.120	0	37.4	4	11.3	4	-1E+10	1	-1E+10	1	-1E+10	1	-1E+10	1	-1E+10	1	-1E+10	1
4901784	57	C	01/25/2017	10:46	-132.467	44.212	0	1664.40	0	2.2510	0	34.6020	0	27.642	0	1644.451	0	37.6	4	11.4	4	-1E+10	1	-1E+10	1	-1E+10	1	-1E+10	1	-1E+10	1	-1E+10	1
4901784	57	C	01/25/2017	10:46	-132.467	44.212	0	1669.60	0	2.2490	0	34.6020	0	27.642	0	1649.568	0	37.8	4	11.5	4	-1E+10	1	-1E+10	1	-1E+10	1	-1E+10	1	-1E+10	1	-1E+10	1
4901784	57	C	01/25/2017	10:46	-132.467	44.212	0	1674.90	0	2.2440	0	34.6030	0	27.643	0	1654.784	0	38.2	4	11.6	4	-1E+10	1	-1E+10	1	-1E+10	1	-1E+10	1	-1E+10	1	-1E+10	1
4901784	57	C	01/25/2017	10:46	-132.467	44.212	0	1680.20	0	2.2370	0	34.6050	0	27.645	0	1659.999	0	38.6	4	11.7	4	-1E+10	1	-1E+10	1	-1E+10	1	-1E+10	1	-1E+10	1	-1E+10	1
4901784	57	C	01/25/2017	10:46	-132.467	44.212	0	1685.50	0	2.2290	0	34.6060	0	27.647	0	1665.215	0	39.0	4	11.8	4	-1E+10	1	-1E+10	1	-1E+10	1	-1E+10	1	-1E+10	1	-1E+10	1
4901784	57	C	01/25/2017	10:46	-132.467	44.212	0	1689.90	0	2.2250	0	34.6060	0	27.647	0	1669.544	0	39.3	4	11.9	4	-1E+10	1	-1E+10	1	-1E+10	1	-1E+10	1	-1E+10	1	-1E+10	1
4901784	57	C	01/25/2017	10:46	-132.467	44.212	0	1694.40	0	2.2180	0	34.6070	0	27.649	0	1673.973	0	39.6	4	12.0	4	-1E+10	1	-1E+10	1	-1E+10	1	-1E+10	1	-1E+10	1	-1E+10	1
4901784	57	C	01/25/2017	10:46	-132.467	44.212	0	1699.90	0	2.2110	0	34.6080	0	27.650	0	1679.384	0	39.9	4	12.1	4	-1E+10	1	-1E+10	1	-1E+10	1	-1E+10	1	-1E+10	1	-1E+10	1
4901784	57	C	01/25/2017	10:46	-132.467	44.212	0	1705.30	0	2.2050	0	34.6090	0	27.651	0	1684.698	0	40.2	4	12.2	4	-1E+10	1	-1E+10	1	-1E+10	1	-1E+10	1	-1E+10	1	-1E+10	1
4901784	57	C	01/25/2017	10:46	-132.467	44.212	0	1710.00	0	2.2010	0	34.6100	0	27.652	0	1689.322	0	40.4	4	12.3	4	-1E+10	1	-1E+10	1	-1E+10	1	-1E+10	1	-1E+10	1	-1E+10	1
4901784	57	C	01/25/2017	10:46	-132.467	44.212	0	1714.60	0	2.1970	0	34.6100	0	27.653	0	1693.848	0	40.7	4	12.3	4	-1E+10	1	-1E+10	1	-1E+10	1	-1E+10	1	-1E+10	1	-1E+10	1
4901784	57	C	01/25/2017	10:46	-132.467	44.212	0	1720.10	0	2.1900	0	34.6110	0	27.654	0	1699.260	0	41.0	4	12.4	4	-1E+10	1	-1E+10	1	-1E+10	1	-1E+10	1	-1E+10	1	-1E+10	1
4901784	57	C	01/25/2017	10:46	-132.467	44.212	0	1724.70	0	2.1870	0	34.6120	0	27.655	0	1703.786	0	41.2	4	12.5	4	-1E+10	1	-1E+10	1	-1E+10	1	-1E+10	1	-1E+10	1	-1E+10	1
4901784	57	C	01/25/2017	10:46	-132.467	44.212	0	1730.10	0	2.1840	0	34.6120	0	27.656	0	1709.098	0	41.5	4	12.6	4	-1E+10	1	-1E+10	1	-1E+10	1	-1E+10	1	-1E+10	1	-1E+10	1
4901784	57	C	01/25/2017	10:46	-132.467	44.212	0	1735.20	0	2.1800	0	34.6140	0	27.657	0	1714.116	0	41.9	4	12.7	4	-1E+10	1	-1E+10	1	-1E+10	1	-1E+10	1	-1E+10	1	-1E+10	1
4901784	57	C	01/25/2017	10:46	-132.467	44.212	0	1740.20	0	2.1740	0	34.6140	0	27.658	0	1719.035	0	42.2	4	12.8	4	-1E+10	1	-1E+10	1	-1E+10	1	-1E+10	1	-1E+10	1	-1E+10	1
4901784	57	C	01/25/2017	10:46	-132.467	44.212	0	1745.10	0	2.1650	0	34.6150	0	27.660	0	1723.855	0	42.5	4	12.9	4	-1E+10	1	-1E+10	1	-1E+10	1	-1E+10	1	-1E+10	1	-1E+10	1
4901784	57	C	01/25/2017	10:46	-132.467	44.212	0	1750.10	0	2.1610	0	34.6160	0	27.661	0	1728.774	0	42.9	4	13.0	4	-1E+10	1	-1E+10	1	-1E+10	1	-1E+10	1	-1E+10	1	-1E+10	1
4901784	57	C	01/25/2017	10:46	-132.467	44.212	0	1755.20	0	2.1550	0	34.6170	0	27.662	0	1733.791	0	43.2	4	13.1	4	-1E+10	1	-1E+10	1	-1E+10	1	-1E+10	1	-1E+10	1	-1E+10	1
4901784	57	C	01/25/2017	10:46	-132.467	44.212	0	1760.20	0	2.1510	0	34.6180	0	27.663	0	1738.710	0	43.5	4	13.2	4	-1E+10	1	-1E+10	1	-1E+10	1	-1E+10	1	-1E+10	1	-1E+10	1
4901784	57	C	01/25/2017	10:46	-132.467	44.212	0	1765.30	0	2.1460	0	34.6180	0	27.664	0	1743.727	0	43.8	4	13.3	4	-1E+10	1	-1E+10	1	-1E+10	1	-1E+10	1	-1E+10	1	-1E+10	1
4901784	57	C	01/25/2017	10:46	-132.467	44.212	0	1770.50	0	2.1420	0	34.6190	0	27.665	0	1748.842	0	44.1	4	13.3	4	-1E+10	1	-1E+10	1	-1E+10	1	-1E+10	1	-1E+10	1	-1E+10	1
4901784	57	C	01/25/2017	10:46	-132.467	44.212	0	1775.60	0	2.1380	0	34.6200	0	27.666	0	1753.858	0	44.3	4	13.4	4	-1E+10	1	-1E+10	1	-1E+10	1	-1E+10	1	-1E+10	1	-1E+10	1
4901784	57	C	01/25/2017	10:46	-132.467	44.212	0	1780.70	0	2.1350	0	34.6200	0	27.666	0	1758.875	0	44.5	4	13.5	4	-1E+10	1	-1E+10	1	-1E+10	1	-1E+10	1	-1E+10	1	-1E+10	1
4901784	57	C	01/25/2017	10:46	-132.467	44.212	0	1785.70	0	2.1320	0	34.6210	0	27.667	0	1763.793	0	44.7	4	13.5	4	-1E+10	1	-1E+10	1	-1E+10	1	-1E+10	1	-1E+10	1	-1E+10	1
4901784	57	C	01/25/2017	10:46	-132.467	44.212	0	1790.70	0	2.1280	0	34.6210	0	27.668	0	1768.710	0	44.9	4	13.6	4	-1E+10	1	-1E+10	1	-1E+10	1	-1E+10	1	-1E+10	1	-1E+10	1
4901784	57	C	01/25/2017	10:46	-132.467	44.212	0	1795.80	0	2.1250	0	34.6220	0	27.669	0	1773.727	0	45.2	4	13.7	4	-1E+10	1	-1E+10	1	-1E+10	1	-1E+10	1	-1E+10	1	-1E+10	1
4901784	57	C	01/25/2017	10:46	-132.467	44.212	0	1800.80	0	2.1230	0	34.6220	0	27.669	0	1778.644	0	45.4	4	13.7	4	-1E+10	1	-1E+10	1	-1E+10	1	-1E+10	1	-1E+10	1	-1E+10	1
4901784	57	C	01/25/2017	10:46	-132.467	44.212	0	1805.00	0	2.1180	0	34.6230	0	27.670	0	1782.775	0	45.8	4	13.8	4	-1E+10	1	-1E+10	1	-1E+10	1	-1E+10	1	-1E+10	1	-1E+10	1
4901784	57	C	01/25/2017	10:46	-132.467	44.212	0	1809.30	0	2.1110	0	34.6230	0	27.671	0	1787.004	0	46.0	4	13.9	4	-1E+10	1	-1E+10	1	-1E+10	1	-1E+10	1	-1E+10	1	-1E+10	1
4901784	57	C	01/25/2017	10:46	-132.467	44.212	0	1814.50	0	2.1010	0	34.6240	0	27.672	0	1792.118	0	46.4	4	14.0	4	-1E+10	1	-1E+10	1	-1E+10	1	-1E+10	1	-1E+10	1	-1E+10	1
4901784	57	C	01/25/2017	10:46	-132.467	44.212	0	1819.70	0	2.0950	0	34.6250	0	27.673	0	1797.232	0	46.7	4	14.1	4	-1E+10	1	-1E+10	1	-1E+10	1	-1E+10	1	-1E+10	1	-1E+10	1
4901784	57	C	01/25/2017	10:46	-132.467	44.212	0	1824.90	0	2.0880	0	34.6260	0	27.675	0	1802.345	0	47.1	4	14.3	4	-1E+10	1	-1E+10	1	-1E+10	1	-1E+10	1	-1E+10	1	-1E+10	1
4901784	57	C	01/25/2017	10:46	-132.467	44.212	0	1830.10	0	2.0840	0	34.6270	0	27.676	0	1807.459	0	47.5	4	14.4	4	-1E+10	1	-1E+10	1	-1E+10	1	-1E+10	1	-1E+10	1	-1E+10	1
4901784	57	C	01/25/2017	10:46	-132.467	44.212	0	1835.40	0	2.0790	0	34.6280	0	27.677	0	1812.671	0	47.9	4	14.5	4	-1E+10	1	-1E+10	1	-1E+10	1	-1E+10	1	-1E+10	1	-1E+10	1
4901784	57	C	01/25/2017	10:46	-132.467	44.212	0	1840.60	0	2.0720	0	34.6290	0	27.679	0	1817.784	0	48.5	4	14.6	4	-1E+10	1	-1E+10	1	-1E+10	1	-1E+10	1	-1E+10	1	-1E+10	1
4901784	57	C	01/25/2017	10:46	-132.467	44.212	0	1845.00	0	2.0640	0	34.6300	0	27.680	0	1822.111	0	48.8	4	14.8	4	-1E+10	1	-1E+10	1	-1E+10	1	-1E+10	1	-1E+10	1	-1E+10	1
4901784	57	C	01/25/2017	10:46	-132.467	44.212	0	1849.40	0	2.0580	0	34.6310	0	27.681	0	1826.437	0	49.1	4	14.8	4	-1E+10	1	-1E+10	1	-1E+10	1	-1E+10	1	-1E+10	1	-1E+10	1
4901784	57	C	01/25/2017	10:46	-132.467	44.212	0	1854.80	0	2.0540	0	34.6320	0	27.682	0	1831.747	0	49.4	4	14.9	4	-1E+10	1	-1E+10	1	-1E+10	1	-1E+10	1	-1E+10	1	-1E+10	1
4901784	57	C	01/25/2017	10:46	-132.467	44.212	0	1860.20	0	2.0520	0	34.6320	0	27.683	0	1837.057	0	49.6	4	15.0	4	-1E+10	1	-1E+10	1	-1E+10	1	-1E+10	1	-1E+10	1	-1E+10	1
4901784	57	C	01/25/2017	10:46	-132.467	44.212	0	1865.50	0	2.0450	0	34.6330	0	27.684	0	1842.268	0	50.0	4	15.1	4	-1E+10	1	-1E+10	1	-1E+10	1	-1E+10	1	-1E+10	1	-1E+10	1
4901784	57	C	01/25/2017	10:46	-132.467	44.212	0	1870.10	0	2.0440	0	34.6330	0	27.684	0	1846.791	0	50.2	4	15.2	4	-1E+10	1	-1E+10	1	-1E+10	1	-1E+10	1	-1E+10	1	-1E+10	1
4901784	57	C	01/25/2017	10:46	-132.467	44.212	0	1874.60	0	2.0400	0	34.6340	0	27.685	0	1851.215	0	50.5	4	15.2	4	-1E+10	1	-1E+10	1	-1E+10	1	-1E+10	1	-1E+10	1	-1E+10	1
4901784	57	C	01/25/2017	10:46	-132.467	44.212	0	1880.00	0	2.0350	0	34.6350	0	27.687	0	1856.524	0	50.8	4	15.3	4	-1E+10	1	-1E+10	1	-1E+10	1	-1E+10	1	-1E+10	1	-1E+10	1
4901784	57	C	01/25/2017	10:46	-132.467	44.212	0	1885.50	0	2.0310	0	34.6350	0	27.687	0	1861.931	0	51.1	4	15.4	4	-1E+10	1	-1E+10	1	-1E+10	1	-1E+10	1	-1E+10	1	-1E+10	1
4901784	57	C	01/25/2017	10:46	-132.467	44.212	0	1890.10	0	2.0270	0	34.6360	0	27.688	0	1866.454	0	51.4	4	15.5	4	-1E+10	1	-1E+10	1	-1E+10	1	-1E+10	1	-1E+10	1	-1E+10	1
4901784	57	C	01/25/2017	10:46	-132.467	44.212	0	1894.70	0	2.0240	0	34.6370	0	27.689	0	1870.976	0	51.7	4	15.6	4	-1E+10	1	-1E+10	1	-1E+10	1	-1E+10	1	-1E+10	1	-1E+10	1
4901784	57	C	01/25/2017	10:46	-132.467	44.212	0	1900.20	0	2.0200	0	34.6370	0	27.689	0	1876.383	0	52.1	4	15.7	4	-1E+10	1	-1E+10	1	-1E+10	1	-1E+10	1	-1E+10	1	-1E+10	1
4901784	57	C	01/25/2017	10:46	-132.467	44.212	0	1904.70	0	2.0140	0	34.6380	0	27.691	0	1880.806	0	52.4	4	15.8	4	-1E+10	1	-1E+10	1	-1E+10	1	-1E+10	1	-1E+10	1	-1E+10	1
4901784	57	C	01/25/2017	10:46	-132.467	44.212	0	1909.60	0	2.0080	0	34.6390	0	27.692	0	1885.623	0	52.8	4	15.9	4	-1E+10	1	-1E+10	1	-1E+10	1	-1E+10	1	-1E+10	1	-1E+10	1
4901784	57	C	01/25/2017	10:46	-132.467	44.212	0	1914.80	0	2.0040	0	34.6400	0	27.693	0	1890.735	0	53.2	4	16.0	4	-1E+10	1	-1E+10	1	-1E+10	1	-1E+10	1	-1E+10	1	-1E+10	1
4901784	57	C	01/25/2017	10:46	-132.467	44.212	0	1919.70	0	1.9990	0	34.6410	0	27.694	0	1895.551	0	53.5	4	16.1	4	-1E+10	1	-1E+10	1	-1E+10	1	-1E+10	1	-1E+10	1	-1E+10	1
4901784	57	C	01/25/2017	10:46	-132.467	44.212	0	1924.60	0	1.9950	0	34.6410	0	27.695	0	1900.368	0	53.9	4	16.3	4	-1E+10	1	-1E+10	1	-1E+10	1	-1E+10	1	-1E+10	1	-1E+10	1
4901784	57	C	01/25/2017	10:46	-132.467	44.212	0	1929.50	0	1.9870	0	34.6420	0	27.696	0	1905.184	0	54.4	4	16.4	4	-1E+10	1	-1E+10	1	-1E+10	1	-1E+10	1	-1E+10	1	-1E+10	1
4901784	57	C	01/25/2017	10:46	-132.467	44.212	0	1934.50	0	1.9830	0	34.6430	0	27.697	0	1910.099	0	54.7	4	16.5	4	-1E+10	1	-1E+10	1	-1E+10	1	-1E+10	1	-1E+10	1	-1E+10	1
4901784	57	C	01/25/2017	10:46	-132.467	44.212	0	1939.40	0	1.9770	0	34.6440	0	27.699	0	1914.915	0	55.0	4	16.6	4	-1E+10	1	-1E+10	1	-1E+10	1	-1E+10	1	-1E+10	1	-1E+10	1
4901784	57	C	01/25/2017	10:46	-132.467	44.212	0	1944.30	0	1.9750	0	34.6450	0	27.700	0	1919.731	0	55.2	4	16.6	4	-1E+10	1	-1E+10	1	-1E+10	1	-1E+10	1	-1E+10	1	-1E+10	1
4901784	57	C	01/25/2017	10:46	-132.467	44.212	0	1949.30	0	1.9730	0	34.6450	0	27.700	0	1924.645	0	55.5	4	16.7	4	-1E+10	1	-1E+10	1	-1E+10	1	-1E+10	1	-1E+10	1	-1E+10	1
4901784	57	C	01/25/2017	10:46	-132.467	44.212	0	1954.30	0	1.9680	0	34.6460	0	27.701	0	1929.560	0	55.8	4	16.8	4	-1E+10	1	-1E+10	1	-1E+10	1	-1E+10	1	-1E+10	1	-1E+10	1
4901784	57	C	01/25/2017	10:46	-132.467	44.212	0	1959.40	0	1.9650	0	34.6460	0	27.701	0	1934.572	0	55.9	4	16.9	4	-1E+10	1	-1E+10	1	-1E+10	1	-1E+10	1	-1E+10	1	-1E+10	1
4901784	57	C	01/25/2017	10:46	-132.467	44.212	0	1964.40	0	1.9630	0	34.6470	0	27.702	0	1939.486	0	56.1	4	16.9	4	-1E+10	1	-1E+10	1	-1E+10	1	-1E+10	1	-1E+10	1	-1E+10	1
4901784	57	C	01/25/2017	10:46	-132.467	44.212	0	1969.50	0	1.9620	0	34.6470	0	27.702	0	1944.498	0	56.3	4	17.0	4	-1E+10	1	-1E+10	1	-1E+10	1	-1E+10	1	-1E+10	1	-1E+10	1
4901784	57	C	01/25/2017	10:46	-132.467	44.212	0	1974.60	0	1.9590	0	34.6470	0	27.703	0	1949.510	0	56.6	4	17.1	4	-1E+10	1	-1E+10	1	-1E+10	1	-1E+10	1	-1E+10	1	-1E+10	1
4901784	57	C	01/25/2017	10:46	-132.467	44.212	0	1979.70	0	1.9550	0	34.6480	0	27.704	0	1954.522	0	56.9	4	17.2	4	-1E+10	1	-1E+10	1	-1E+10	1	-1E+10	1	-1E+10	1	-1E+10	1
4901784	57	C	01/25/2017	10:46	-132.467	44.212	0	1984.80	0	1.9500	0	34.6490	0	27.705	0	1959.533	0	57.2	4	17.2	4	-1E+10	1	-1E+10	1	-1E+10	1	-1E+10	1	-1E+10	1	-1E+10	1
4901784	57	C	01/25/2017	10:46	-132.467	44.212	0	1989.90	0	1.9460	0	34.6490	0	27.705	0	1964.545	0	57.5	4	17.3	4	-1E+10	1	-1E+10	1	-1E+10	1	-1E+10	1	-1E+10	1	-1E+10	1
4901784	57	C	01/25/2017	10:46	-132.467	44.212	0	1995.10	0	1.9440	0	34.6500	0	27.706	0	1969.655	0	57.7	4	17.4	4	-1E+10	1	-1E+10	1	-1E+10	1	-1E+10	1	-1E+10	1	-1E+10	1
4901784	57	C	01/25/2017	10:46	-132.467	44.212	0	2000.60	0	1.9410	0	34.6500	0	27.706	0	1975.059	0	57.9	4	17.4	4	-1E+10	1	-1E+10	1	-1E+10	1	-1E+10	1	-1E+10	1	-1E+10	1
4901784	57	C	01/25/2017	10:46	-132.467	44.212	0	2005.50	0	1.9390	0	34.6510	0	27.707	0	1979.874	0	58.1	4	17.5	4	-1E+10	1	-1E+10	1	-1E+10	1	-1E+10	1	-1E+10	1	-1E+10	1
4901784	57	C	01/25/2017	10:46	-132.467	44.212	0	2010.10	0	1.9350	0	34.6510	0	27.708	0	1984.393	0	58.3	4	17.6	4	-1E+10	1	-1E+10	1	-1E+10	1	-1E+10	1	-1E+10	1	-1E+10	1
4901784	57	C	01/25/2017	10:46	-132.467	44.212	0	2015.10	0	1.9350	0	34.6520	0	27.709	0	1989.306	0	58.4	4	17.6	4	-1E+10	1	-1E+10	1	-1E+10	1	-1E+10	1	-1E+10	1	-1E+10	1
4901784	57	C	01/25/2017	10:46	-132.467	44.212	0	2021.20	0	1.9340	0	34.6520	0	27.709	0	1995.300	0	57.0	8	17.2	8	-1E+10	1	-1E+10	1	-1E+10	1	-1E+10	1	-1E+10	1	-1E+10	1
4901784	57	C	01/25/2017	10:46	-132.467	44.212	0																										
4901784	58	C	02/04/2017	10:44	-132.455	44.187	0	2.50	0	9.4830	0	32.9160	0	25.410	0	2.480	0	268.6	4	95.3	4	-1E+10	1	-1E+10	1	-1E+10	1	-1E+10	1	-1E+10	1	-1E+10	1
4901784	58	C	02/04/2017	10:44	-132.455	44.187	0	3.60	0	9.4840	0	32.9160	0	25.410	0	3.571	0	268.5	4	95.3	4	-1E+10	1	-1E+10	1	-1E+10	1	-1E+10	1	-1E+10	1	-1E+10	1
4901784	58	C	02/04/2017	10:44	-132.455	44.187	0	4.90	0	9.4840	0	32.9160	0	25.410	0	4.861	0	268.7	4	95.3	4	-1E+10	1	-1E+10	1	-1E+10	1	-1E+10	1	-1E+10	1	-1E+10	1
4901784	58	C	02/04/2017	10:44	-132.455	44.187	0	6.20	0	9.4840	0	32.9160	0	25.410	0	6.150	0	268.6	4	95.3	4	-1E+10	1	-1E+10	1	-1E+10	1	-1E+10	1	-1E+10	1	-1E+10	1
4901784	58	C	02/04/2017	10:44	-132.455	44.187	0	7.90	0	9.4830	0	32.9160	0	25.410	0	7.836	0	268.6	4	95.3	4	-1E+10	1	-1E+10	1	-1E+10	1	-1E+10	1	-1E+10	1	-1E+10	1
4901784	58	C	02/04/2017	10:44	-132.455	44.187	0	9.70	0	9.4880	0	32.9160	0	25.410	0	9.622	0	268.5	4	95.3	4	-1E+10	1	-1E+10	1	-1E+10	1	-1E+10	1	-1E+10	1	-1E+10	1
4901784	58	C	02/04/2017	10:44	-132.455	44.187	0	11.30	0	9.4900	0	32.9160	0	25.409	0	11.209	0	268.5	4	95.3	4	-1E+10	1	-1E+10	1	-1E+10	1	-1E+10	1	-1E+10	1	-1E+10	1
4901784	58	C	02/04/2017	10:44	-132.455	44.187	0	13.10	0	9.4890	0	32.9160	0	25.409	0	12.994	0	268.4	4	95.2	4	-1E+10	1	-1E+10	1	-1E+10	1	-1E+10	1	-1E+10	1	-1E+10	1
4901784	58	C	02/04/2017	10:44	-132.455	44.187	0	14.90	0	9.4900	0	32.9160	0	25.409	0	14.780	0	268.4	4	95.2	4	-1E+10	1	-1E+10	1	-1E+10	1	-1E+10	1	-1E+10	1	-1E+10	1
4901784	58	C	02/04/2017	10:44	-132.455	44.187	0	16.70	0	9.4990	0	32.9160	0	25.408	0	16.565	0	268.5	4	95.3	4	-1E+10	1	-1E+10	1	-1E+10	1	-1E+10	1	-1E+10	1	-1E+10	1
4901784	58	C	02/04/2017	10:44	-132.455	44.187	0	18.60	0	9.4900	0	32.9160	0	25.409	0	18.450	0	268.5	4	95.3	4	-1E+10	1	-1E+10	1	-1E+10	1	-1E+10	1	-1E+10	1	-1E+10	1
4901784	58	C	02/04/2017	10:44	-132.455	44.187	0	20.30	0	9.4910	0	32.9160	0	25.409	0	20.136	0	268.5	4	95.3	4	-1E+10	1	-1E+10	1	-1E+10	1	-1E+10	1	-1E+10	1	-1E+10	1
4901784	58	C	02/04/2017	10:44	-132.455	44.187	0	22.20	0	9.4990	0	32.9180	0	25.410	0	22.020	0	268.4	4	95.2	4	-1E+10	1	-1E+10	1	-1E+10	1	-1E+10	1	-1E+10	1	-1E+10	1
4901784	58	C	02/04/2017	10:44	-132.455	44.187	0	24.10	0	9.5020	0	32.9170	0	25.408	0	23.905	0	268.3	4	95.2	4	-1E+10	1	-1E+10	1	-1E+10	1	-1E+10	1	-1E+10	1	-1E+10	1
4901784	58	C	02/04/2017	10:44	-132.455	44.187	0	26.10	0	9.5020	0	32.9160	0	25.408	0	25.888	0	268.5	4	95.3	4	-1E+10	1	-1E+10	1	-1E+10	1	-1E+10	1	-1E+10	1	-1E+10	1
4901784	58	C	02/04/2017	10:44	-132.455	44.187	0	28.00	0	9.5050	0	32.9170	0	25.408	0	27.773	0	268.5	4	95.3	4	-1E+10	1	-1E+10	1	-1E+10	1	-1E+10	1	-1E+10	1	-1E+10	1
4901784	58	C	02/04/2017	10:44	-132.455	44.187	0	29.90	0	9.5050	0	32.9170	0	25.408	0	29.657	0	268.5	4	95.3	4	-1E+10	1	-1E+10	1	-1E+10	1	-1E+10	1	-1E+10	1	-1E+10	1
4901784	58	C	02/04/2017	10:44	-132.455	44.187	0	32.00	0	9.5030	0	32.9160	0	25.407	0	31.740	0	268.4	4	95.2	4	-1E+10	1	-1E+10	1	-1E+10	1	-1E+10	1	-1E+10	1	-1E+10	1
4901784	58	C	02/04/2017	10:44	-132.455	44.187	0	34.00	0	9.5040	0	32.9160	0	25.407	0	33.724	0	268.3	4	95.2	4	-1E+10	1	-1E+10	1	-1E+10	1	-1E+10	1	-1E+10	1	-1E+10	1
4901784	58	C	02/04/2017	10:44	-132.455	44.187	0	36.00	0	9.5050	0	32.9170	0	25.408	0	35.707	0	268.3	4	95.2	4	-1E+10	1	-1E+10	1	-1E+10	1	-1E+10	1	-1E+10	1	-1E+10	1
4901784	58	C	02/04/2017	10:44	-132.455	44.187	0	37.90	0	9.5010	0	32.9160	0	25.408	0	37.592	0	268.3	4	95.2	4	-1E+10	1	-1E+10	1	-1E+10	1	-1E+10	1	-1E+10	1	-1E+10	1
4901784	58	C	02/04/2017	10:44	-132.455	44.187	0	39.90	0	9.5030	0	32.9160	0	25.408	0	39.575	0	268.1	4	95.1	4	-1E+10	1	-1E+10	1	-1E+10	1	-1E+10	1	-1E+10	1	-1E+10	1
4901784	58	C	02/04/2017	10:44	-132.455	44.187	0	41.80	0	9.5030	0	32.9160	0	25.408	0	41.460	0	268.2	4	95.2	4	-1E+10	1	-1E+10	1	-1E+10	1	-1E+10	1	-1E+10	1	-1E+10	1
4901784	58	C	02/04/2017	10:44	-132.455	44.187	0	43.70	0	9.5050	0	32.9150	0	25.407	0	43.344	0	268.0	4	95.1	4	-1E+10	1	-1E+10	1	-1E+10	1	-1E+10	1	-1E+10	1	-1E+10	1
4901784	58	C	02/04/2017	10:44	-132.455	44.187	0	45.60	0	9.4890	0	32.9140	0	25.408	0	45.228	0	268.2	4	95.1	4	-1E+10	1	-1E+10	1	-1E+10	1	-1E+10	1	-1E+10	1	-1E+10	1
4901784	58	C	02/04/2017	10:44	-132.455	44.187	0	47.60	0	9.4870	0	32.9110	0	25.406	0	47.212	0	268.3	4	95.2	4	-1E+10	1	-1E+10	1	-1E+10	1	-1E+10	1	-1E+10	1	-1E+10	1
4901784	58	C	02/04/2017	10:44	-132.455	44.187	0	49.50	0	9.4850	0	32.9110	0	25.407	0	49.096	0	268.3	4	95.2	4	-1E+10	1	-1E+10	1	-1E+10	1	-1E+10	1	-1E+10	1	-1E+10	1
4901784	58	C	02/04/2017	10:44	-132.455	44.187	0	51.50	0	9.5010	0	32.9150	0	25.407	0	51.079	0	268.1	4	95.1	4	-1E+10	1	-1E+10	1	-1E+10	1	-1E+10	1	-1E+10	1	-1E+10	1
4901784	58	C	02/04/2017	10:44	-132.455	44.187	0	53.50	0	9.5010	0	32.9150	0	25.407	0	53.063	0	268.0	4	95.1	4	-1E+10	1	-1E+10	1	-1E+10	1	-1E+10	1	-1E+10	1	-1E+10	1
4901784	58	C	02/04/2017	10:44	-132.455	44.187	0	55.50	0	9.4800	0	32.9140	0	25.410	0	55.046	0	268.2	4	95.1	4	-1E+10	1	-1E+10	1	-1E+10	1	-1E+10	1	-1E+10	1	-1E+10	1
4901784	58	C	02/04/2017	10:44	-132.455	44.187	0	57.40	0	9.4980	0	32.9150	0	25.408	0	56.930	0	268.0	4	95.1	4	-1E+10	1	-1E+10	1	-1E+10	1	-1E+10	1	-1E+10	1	-1E+10	1
4901784	58	C	02/04/2017	10:44	-132.455	44.187	0	59.30	0	9.4990	0	32.9150	0	25.408	0	58.815	0	267.9	4	95.1	4	-1E+10	1	-1E+10	1	-1E+10	1	-1E+10	1	-1E+10	1	-1E+10	1
4901784	58	C	02/04/2017	10:44	-132.455	44.187	0	61.20	0	9.4790	0	32.9130	0	25.410	0	60.699	0	267.9	4	95.0	4	-1E+10	1	-1E+10	1	-1E+10	1	-1E+10	1	-1E+10	1	-1E+10	1
4901784	58	C	02/04/2017	10:44	-132.455	44.187	0	63.10	0	9.4780	0	32.9120	0	25.409	0	62.583	0	267.9	4	95.0	4	-1E+10	1	-1E+10	1	-1E+10	1	-1E+10	1	-1E+10	1	-1E+10	1
4901784	58	C	02/04/2017	10:44	-132.455	44.187	0	65.00	0	9.4790	0	32.9110	0	25.408	0	64.467	0	267.7	4	95.0	4	-1E+10	1	-1E+10	1	-1E+10	1	-1E+10	1	-1E+10	1	-1E+10	1
4901784	58	C	02/04/2017	10:44	-132.455	44.187	0	66.90	0	9.4760	0	32.9130	0	25.410	0	66.351	0	267.5	4	94.9	4	-1E+10	1	-1E+10	1	-1E+10	1	-1E+10	1	-1E+10	1	-1E+10	1
4901784	58	C	02/04/2017	10:44	-132.455	44.187	0	68.80	0	9.4620	0	32.9120	0	25.412	0	68.235	0	267.5	4	94.8	4	-1E+10	1	-1E+10	1	-1E+10	1	-1E+10	1	-1E+10	1	-1E+10	1
4901784	58	C	02/04/2017	10:44	-132.455	44.187	0	70.80	0	9.4630	0	32.9090	0	25.409	0	70.219	0	267.2	4	94.8	4	-1E+10	1	-1E+10	1	-1E+10	1	-1E+10	1	-1E+10	1	-1E+10	1
4901784	58	C	02/04/2017	10:44	-132.455	44.187	0	72.80	0	9.4540	0	32.9090	0	25.411	0	72.202	0	266.9	4	94.6	4	-1E+10	1	-1E+10	1	-1E+10	1	-1E+10	1	-1E+10	1	-1E+10	1
4901784	58	C	02/04/2017	10:44	-132.455	44.187	0	74.70	0	9.4540	0	32.9080	0	25.410	0	74.086	0	266.7	4	94.5	4	-1E+10	1	-1E+10	1	-1E+10	1	-1E+10	1	-1E+10	1	-1E+10	1
4901784	58	C	02/04/2017	10:44	-132.455	44.187	0	77.20	0	9.4470	0	32.9080	0	25.411	0	76.565	0	266.1	4	94.3	4	-1E+10	1	-1E+10	1	-1E+10	1	-1E+10	1	-1E+10	1	-1E+10	1
4901784	58	C	02/04/2017	10:44	-132.455	44.187	0	79.10	0	9.4430	0	32.9080	0	25.412	0	78.449	0	265.2	4	94.0	4	-1E+10	1	-1E+10	1	-1E+10	1	-1E+10	1	-1E+10	1	-1E+10	1
4901784	58	C	02/04/2017	10:44	-132.455	44.187	0	80.70	0	9.4430	0	32.9080	0	25.412	0	80.035	0	264.0	4	93.6	4	-1E+10	1	-1E+10	1	-1E+10	1	-1E+10	1	-1E+10	1	-1E+10	1
4901784	58	C	02/04/2017	10:44	-132.455	44.187	0	82.30	0	9.4420	0	32.9080	0	25.412	0	81.622	0	262.6	4	93.1	4	-1E+10	1	-1E+10	1	-1E+10	1	-1E+10	1	-1E+10	1	-1E+10	1
4901784	58	C	02/04/2017	10:44	-132.455	44.187	0	83.90	0	9.4410	0	32.9070	0	25.411	0	83.208	0	260.2	4	92.2	4	-1E+10	1	-1E+10	1	-1E+10	1	-1E+10	1	-1E+10	1	-1E+10	1
4901784	58	C	02/04/2017	10:44	-132.455	44.187	0	85.40	0	9.4330	0	32.9070	0	25.413	0	84.696	0	257.5	4	91.3	4	-1E+10	1	-1E+10	1	-1E+10	1	-1E+10	1	-1E+10	1	-1E+10	1
4901784	58	C	02/04/2017	10:44	-132.455	44.187	0	87.10	0	9.4280	0	32.9080	0	25.414	0	86.381	0	253.3	4	89.8	4	-1E+10	1	-1E+10	1	-1E+10	1	-1E+10	1	-1E+10	1	-1E+10	1
4901784	58	C	02/04/2017	10:44	-132.455	44.187	0	87.50	0	9.4250	0	32.9080	0	25.415	0	86.778	0	251.2	4	89.0	4	-1E+10	1	-1E+10	1	-1E+10	1	-1E+10	1	-1E+10	1	-1E+10	1
4901784	58	C	02/04/2017	10:44	-132.455	44.187	0	88.80	0	9.4120	0	32.9140	0	25.422	0	88.067	0	245.0	4	86.8	4	-1E+10	1	-1E+10	1	-1E+10	1	-1E+10	1	-1E+10	1	-1E+10	1
4901784	58	C	02/04/2017	10:44	-132.455	44.187	0	90.10	0	9.3820	0	32.9560	0	25.459	0	89.356	0	236.7	4	83.8	4	-1E+10	1	-1E+10	1	-1E+10	1	-1E+10	1	-1E+10	1	-1E+10	1
4901784	58	C	02/04/2017	10:44	-132.455	44.187	0	91.50	0	9.3120	0	33.0810	0	25.568	0	90.744	0	227.6	4	80.5	4	-1E+10	1	-1E+10	1	-1E+10	1	-1E+10	1	-1E+10	1	-1E+10	1
4901784	58	C	02/04/2017	10:44	-132.455	44.187	0	92.90	0	9.2250	0	33.2130	0	25.685	0	92.132	0	221.7	4	78.4	4	-1E+10	1	-1E+10	1	-1E+10	1	-1E+10	1	-1E+10	1	-1E+10	1
4901784	58	C	02/04/2017	10:44	-132.455	44.187	0	94.40	0	9.0690	0	33.3290	0	25.801	0	93.619	0	218.2	4	76.9	4	-1E+10	1	-1E+10	1	-1E+10	1	-1E+10	1	-1E+10	1	-1E+10	1
4901784	58	C	02/04/2017	10:44	-132.455	44.187	0	96.00	0	9.0550	0	33.3600	0	25.827	0	95.206	0	215.8	4	76.1	4	-1E+10	1	-1E+10	1	-1E+10	1	-1E+10	1	-1E+10	1	-1E+10	1
4901784	58	C	02/04/2017	10:44	-132.455	44.187	0	97.40	0	9.0340	0	33.3900	0	25.854	0	96.594	0	213.7	4	75.3	4	-1E+10	1	-1E+10	1	-1E+10	1	-1E+10	1	-1E+10	1	-1E+10	1
4901784	58	C	02/04/2017	10:44	-132.455	44.187	0	98.80	0	8.9850	0	33.4170	0	25.883	0	97.982	0	212.1	4	74.7	4	-1E+10	1	-1E+10	1	-1E+10	1	-1E+10	1	-1E+10	1	-1E+10	1
4901784	58	C	02/04/2017	10:44	-132.455	44.187	0	100.30	0	8.9370	0	33.4250	0	25.897	0	99.469	0	210.3	4	74.0	4	-1E+10	1	-1E+10	1	-1E+10	1	-1E+10	1	-1E+10	1	-1E+10	1
4901784	58	C	02/04/2017	10:44	-132.455	44.187	0	102.60	0	8.9120	0	33.4650	0	25.932	0	101.749	0	207.2	4	72.9	4	-1E+10	1	-1E+10	1	-1E+10	1	-1E+10	1	-1E+10	1	-1E+10	1
4901784	58	C	02/04/2017	10:44	-132.455	44.187	0	104.90	0	8.9130	0	33.5050	0	25.963	0	104.030	0	203.6	4	71.6	4	-1E+10	1	-1E+10	1	-1E+10	1	-1E+10	1	-1E+10	1	-1E+10	1
4901784	58	C	02/04/2017	10:44	-132.455	44.187	0	107.40	0	8.8950	0	33.5700	0	26.017	0	106.508	0	200.4	4	70.5	4	-1E+10	1	-1E+10	1	-1E+10	1	-1E+10	1	-1E+10	1	-1E+10	1
4901784	58	C	02/04/2017	10:44	-132.455	44.187	0	109.80	0	8.8680	0	33.6250	0	26.064	0	108.888	0	197.9	4	69.6	4	-1E+10	1	-1E+10	1	-1E+10	1	-1E+10	1	-1E+10	1	-1E+10	1
4901784	58	C	02/04/2017	10:44	-132.455	44.187	0	112.40	0	8.8370	0	33.6650	0	26.101	0	111.466	0	196.0	4	68.9	4	-1E+10	1	-1E+10	1	-1E+10	1	-1E+10	1	-1E+10	1	-1E+10	1
4901784	58	C	02/04/2017	10:44	-132.455	44.187	0	115.00	0	8.7950	0	33.7090	0	26.142	0	114.043	0	194.4	4	68.3	4	-1E+10	1	-1E+10	1	-1E+10	1	-1E+10	1	-1E+10	1	-1E+10	1
4901784	58	C	02/04/2017	10:44	-132.455	44.187	0	117.50	0	8.7780	0	33.7560	0	26.181	0	116.522	0	192.9	4	67.8	4	-1E+10	1	-1E+10	1	-1E+10	1	-1E+10	1	-1E+10	1	-1E+10	1
4901784	58	C	02/04/2017	10:44	-132.455	44.187	0	120.10	0	8.7370	0	33.8120	0	26.231	0	119.099	0	191.8	4	67.4	4	-1E+10	1	-1E+10	1	-1E+10	1	-1E+10	1	-1E+10	1	-1E+10	1
4901784	58	C	02/04/2017	10:44	-132.455	44.187	0	122.60	0	8.7310	0	33.8260	0	26.243	0	121.578	0	191.0	4	67.1	4	-1E+10	1	-1E+10	1	-1E+10	1	-1E+10	1	-1E+10	1	-1E+10	1
4901784	58	C	02/04/2017	10:44	-132.455	44.187	0	125.30	0	8.6670	0	33.8470	0	26.270	0	124.254	0	190.3	4	66.8	4	-1E+10	1	-1E+10	1	-1E+10	1	-1E+10	1	-1E+10	1	-1E+10	1
4901784	58	C	02/04/2017	10:44	-132.455	44.187	0	127.00	0	8.6740	0	33.8640	0	26.282	0	125.940	0	190.5	4	66.8	4	-1E+10	1	-1E+10	1	-1E+10	1	-1E+10	1	-1E+10	1	-1E+10	1
4901784	58	C	02/04/2017	10:44	-132.455	44.187	0	129.70	0	8.6960	0	33.8830	0	26.294	0	128.616	0	189.5	4	66.5	4	-1E+10	1	-1E+10	1	-1E+10	1	-1E+10	1	-1E+10	1	-1E+10	1
4901784	58	C	02/04/2017	10:44	-132.455	44.187	0	132.50	0	8.6660	0	33.8870	0	26.301	0	131.392	0	188.5	4	66.2	4	-1E+10	1	-1E+10	1	-1E+10	1	-1E+10	1	-1E+10	1	-1E+10	1
4901784	58	C	02/04/2017	10:44	-132.455	44.187	0	135.20	0	8.6290	0	33.8970	0	26.315	0	134.069	0	187.8	4	65.8	4	-1E+10	1	-1E+10	1	-1E+10	1	-1E+10	1	-1E+10	1	-1E+10	1
4901784	58	C	02/04/2017	10:44	-132.455	44.187	0	137.80	0	8.5610	0	33.9060	0	26.333	0	136.646	0	187.3	4	65.6	4	-1E+10	1	-1E+10	1	-1E+10	1	-1E+10	1	-1E+10	1	-1E+10	1
4901784	58	C	02/04/2017	10:44	-132.455	44.187	0	139.50	0	8.5510	0	33.9110	0	26.338	0	138.331	0	187.1	4	65.5	4	-1E+10	1	-1E+10	1	-1E+10	1	-1E+10	1	-1E+10	1	-1E+10	1
4901784	58	C	02/04/2017	10:44	-132.455	44.187	0	142.40	0	8.5680	0	33.9300	0	26.350	0	141.206	0	185.8	4	65.1	4	-1E+10	1	-1E+10	1	-1E+10	1	-1E+10	1	-1E+10	1	-1E+10	1
4901784	58	C	02/04/2017	10:44	-132.455	44.187	0	145.10	0	8.4680	0	33.9300	0	26.366	0	143.882	0	184.8	4	64.6	4	-1E+10	1	-1E+10	1	-1E+10	1	-1E+10	1	-1E+10	1	-1E+10	1
4901784	58	C	02/04/2017	10:44	-132.455	44.187	0	147.00	0	8.4120	0	33.9310	0	26.375	0	145.766	0	184.3	4	64.3	4	-1E+10	1	-1E+10	1	-1E+10	1	-1E+10	1	-1E+10	1	-1E+10	1
4901784	58	C	02/04/2017	10:44	-132.455	44.187	0	149.80	0	8.3810	0	33.9360	0	26.384	0	148.541	0	183.9	4	64.1	4	-1E+10	1	-1E+10	1	-1E+10	1	-1E+10	1	-1E+10	1	-1E+10	1
4901784	58	C	02/04/2017	10:44	-132.455	44.187	0	152.60	0	8.3380	0	33.9420	0	26.395	0	151.317	0	183.0	4	63.8	4	-1E+10	1	-1E+10	1	-1E+10	1	-1E+10	1	-1E+10	1	-1E+10	1
4901784	58	C	02/04/2017	10:44	-132.455	44.187	0	155.30	0	8.2840	0	33.9480	0	26.408	0	153.993	0	182.4	4	63.5	4	-1E+10	1	-1E+10	1	-1E+10	1	-1E+10	1	-1E+10	1	-1E+10	1
4901784	58	C	02/04/2017	10:44	-132.455	44.187	0	158.00	0	8.2550	0	33.9490	0	26.413	0	156.669	0	181.8	4	63.2	4	-1E+10	1	-1E+10	1	-1E+10	1	-1E+10	1	-1E+10	1	-1E+10	1
4901784	58	C	02/04/2017	10:44	-132.455	44.187	0	159.80	0	8.2260	0	33.9510	0	26.419	0	158.453	0	181.5	4	63.1	4	-1E+10	1	-1E+10	1	-1E+10	1	-1E+10	1	-1E+10	1	-1E+10	1
4901784	58	C	02/04/2017	10:44	-132.455	44.187	0	162.60	0	8.1900	0	33.9500	0	26.424	0	161.229	0	181.1	4	62.9	4	-1E+10	1	-1E+10	1	-1E+10	1	-1E+10	1	-1E+10	1	-1E+10	1
4901784	58	C	02/04/2017	10:44	-132.455	44.187	0	165.30	0	8.1020	0	33.9550	0	26.441	0	163.905	0	180.5	4	62.6	4	-1E+10	1	-1E+10	1	-1E+10	1	-1E+10	1	-1E+10	1	-1E+10	1
4901784	58	C	02/04/2017	10:44	-132.455	44.187	0	167.10	0	8.0910	0	33.9520	0	26.440	0	165.689	0	180.6	4	62.6	4	-1E+10	1	-1E+10	1	-1E+10	1	-1E+10	1	-1E+10	1	-1E+10	1
4901784	58	C	02/04/2017	10:44	-132.455	44.187	0	170.00	0	8.0430	0	33.9520	0	26.447	0	168.563	0	180.0	4	62.3	4	-1E+10	1	-1E+10	1	-1E+10	1	-1E+10	1	-1E+10	1	-1E+10	1
4901784	58	C	02/04/2017	10:44	-132.455	44.187	0	172.70	0	7.9980	0	33.9540	0	26.455	0	171.239	0	179.1	4	61.9	4	-1E+10	1	-1E+10	1	-1E+10	1	-1E+10	1	-1E+10	1	-1E+10	1
4901784	58	C	02/04/2017	10:44	-132.455	44.187	0	174.60	0	7.9910	0	33.9540	0	26.457	0	173.122	0	178.9	4	61.9	4	-1E+10	1	-1E+10	1	-1E+10	1	-1E+10	1	-1E+10	1	-1E+10	1
4901784	58	C	02/04/2017	10:44	-132.455	44.187	0	177.50	0	7.9770	0	33.9540	0	26.459	0	175.997	0	177.9	4	61.5	4	-1E+10	1	-1E+10	1	-1E+10	1	-1E+10	1	-1E+10	1	-1E+10	1
4901784	58	C	02/04/2017	10:44	-132.455	44.187	0	180.30	0	7.9380	0	33.9540	0	26.464	0	178.772	0	177.0	4	61.1	4	-1E+10	1	-1E+10	1	-1E+10	1	-1E+10	1	-1E+10	1	-1E+10	1
4901784	58	C	02/04/2017	10:44	-132.455	44.187	0	182.10	0	7.9170	0	33.9540	0	26.468	0	180.556	0	176.2	4	60.8	4	-1E+10	1	-1E+10	1	-1E+10	1	-1E+10	1	-1E+10	1	-1E+10	1
4901784	58	C	02/04/2017	10:44	-132.455	44.187	0	184.90	0	7.8850	0	33.9550	0	26.473	0	183.331	0	174.9	4	60.4	4	-1E+10	1	-1E+10	1	-1E+10	1	-1E+10	1	-1E+10	1	-1E+10	1
4901784	58	C	02/04/2017	10:44	-132.455	44.187	0	187.80	0	7.8180	0	33.9560	0	26.484	0	186.205	0	173.8	4	59.9	4	-1E+10	1	-1E+10	1	-1E+10	1	-1E+10	1	-1E+10	1	-1E+10	1
4901784	58	C	02/04/2017	10:44	-132.455	44.187	0	189.70	0	7.7910	0	33.9560	0	26.488	0	188.088	0	172.9	4	59.5	4	-1E+10	1	-1E+10	1	-1E+10	1	-1E+10	1	-1E+10	1	-1E+10	1
4901784	58	C	02/04/2017	10:44	-132.455	44.187	0	192.50	0	7.7510	0	33.9570	0	26.494	0	190.863	0	171.6	4	59.0	4	-1E+10	1	-1E+10	1	-1E+10	1	-1E+10	1	-1E+10	1	-1E+10	1
4901784	58	C	02/04/2017	10:44	-132.455	44.187	0	195.30	0	7.7190	0	33.9580	0	26.500	0	193.638	0	170.0	4	58.4	4	-1E+10	1	-1E+10	1	-1E+10	1	-1E+10	1	-1E+10	1	-1E+10	1
4901784	58	C	02/04/2017	10:44	-132.455	44.187	0	197.20	0	7.7020	0	33.9550	0	26.500	0	195.521	0	168.7	4	58.0	4	-1E+10	1	-1E+10	1	-1E+10	1	-1E+10	1	-1E+10	1	-1E+10	1
4901784	58	C	02/04/2017	10:44	-132.455	44.187	0	200.10	0	7.5980	0	33.9610	0	26.519	0	198.394	0	166.7	4	57.2	4	-1E+10	1	-1E+10	1	-1E+10	1	-1E+10	1	-1E+10	1	-1E+10	1
4901784	58	C	02/04/2017	10:44	-132.455	44.187	0	203.00	0	7.5490	0	33.9590	0	26.525	0	201.268	0	165.2	4	56.6	4	-1E+10	1	-1E+10	1	-1E+10	1	-1E+10	1	-1E+10	1	-1E+10	1
4901784	58	C	02/04/2017	10:44	-132.455	44.187	0	204.90	0	7.4970	0	33.9610	0	26.534	0	203.151	0	164.1	4	56.1	4	-1E+10	1	-1E+10	1	-1E+10	1	-1E+10	1	-1E+10	1	-1E+10	1
4901784	58	C	02/04/2017	10:44	-132.455	44.187	0	207.80	0	7.4540	0	33.9630	0	26.542	0	206.025	0	162.5	4	55.5	4	-1E+10	1	-1E+10	1	-1E+10	1	-1E+10	1	-1E+10	1	-1E+10	1
4901784	58	C	02/04/2017	10:44	-132.455	44.187	0	210.70	0	7.4150	0	33.9640	0	26.548	0	208.899	0	161.1	4	55.0	4	-1E+10	1	-1E+10	1	-1E+10	1	-1E+10	1	-1E+10	1	-1E+10	1
4901784	58	C	02/04/2017	10:44	-132.455	44.187	0	212.50	0	7.3880	0	33.9640	0	26.552	0	210.682	0	159.8	4	54.5	4	-1E+10	1	-1E+10	1	-1E+10	1	-1E+10	1	-1E+10	1	-1E+10	1
4901784	58	C	02/04/2017	10:44	-132.455	44.187	0	214.50	0	7.3670	0	33.9650	0	26.556	0	212.664	0	158.9	4	54.2	4	-1E+10	1	-1E+10	1	-1E+10	1	-1E+10	1	-1E+10	1	-1E+10	1
4901784	58	C	02/04/2017	10:44	-132.455	44.187	0	217.30	0	7.3220	0	33.9640	0	26.561	0	215.439	0	157.7	4	53.7	4	-1E+10	1	-1E+10	1	-1E+10	1	-1E+10	1	-1E+10	1	-1E+10	1
4901784	58	C	02/04/2017	10:44	-132.455	44.187	0	220.10	0	7.2560	0	33.9660	0	26.572	0	218.213	0	156.9	4	53.4	4	-1E+10	1	-1E+10	1	-1E+10	1	-1E+10	1	-1E+10	1	-1E+10	1
4901784	58	C	02/04/2017	10:44	-132.455	44.187	0	222.10	0	7.2290	0	33.9650	0	26.575	0	220.195	0	156.4	4	53.2	4	-1E+10	1	-1E+10	1	-1E+10	1	-1E+10	1	-1E+10	1	-1E+10	1
4901784	58	C	02/04/2017	10:44	-132.455	44.187	0	224.00	0	7.2190	0	33.9640	0	26.576	0	222.078	0	155.6	4	52.9	4	-1E+10	1	-1E+10	1	-1E+10	1	-1E+10	1	-1E+10	1	-1E+10	1
4901784	58	C	02/04/2017	10:44	-132.455	44.187	0	227.20	0	7.1800	0	33.9640	0	26.581	0	225.249	0	153.5	4	52.1	4	-1E+10	1	-1E+10	1	-1E+10	1	-1E+10	1	-1E+10	1	-1E+10	1
4901784	58	C	02/04/2017	10:44	-132.455	44.187	0	230.10	0	7.1160	0	33.9690	0	26.594	0	228.122	0	151.0	4	51.2	4	-1E+10	1	-1E+10	1	-1E+10	1	-1E+10	1	-1E+10	1	-1E+10	1
4901784	58	C	02/04/2017	10:44	-132.455	44.187	0	232.60	0	7.0490	0	33.9640	0	26.599	0	230.599	0	149.3	4	50.5	4	-1E+10	1	-1E+10	1	-1E+10	1	-1E+10	1	-1E+10	1	-1E+10	1
4901784	58	C	02/04/2017	10:44	-132.455	44.187	0	235.10	0	6.9910	0	33.9650	0	26.608	0	233.076	0	147.6	4	49.9	4	-1E+10	1	-1E+10	1	-1E+10	1	-1E+10	1	-1E+10	1	-1E+10	1
4901784	58	C	02/04/2017	10:44	-132.455	44.187	0	237.60	0	6.9170	0	33.9660	0	26.619	0	235.553	0	145.9	4	49.3	4	-1E+10	1	-1E+10	1	-1E+10	1	-1E+10	1	-1E+10	1	-1E+10	1
4901784	58	C	02/04/2017	10:44	-132.455	44.187	0	240.00	0	6.8660	0	33.9660	0	26.626	0	237.931	0	144.4	4	48.7	4	-1E+10	1	-1E+10	1	-1E+10	1	-1E+10	1	-1E+10	1	-1E+10	1
4901784	58	C	02/04/2017	10:44	-132.455	44.187	0	242.50	0	6.8200	0	33.9660	0	26.632	0	240.408	0	142.9	4	48.1	4	-1E+10	1	-1E+10	1	-1E+10	1	-1E+10	1	-1E+10	1	-1E+10	1
4901784	58	C	02/04/2017	10:44	-132.455	44.187	0	245.00	0	6.7450	0	33.9650	0	26.641	0	242.885	0	141.6	4	47.6	4	-1E+10	1	-1E+10	1	-1E+10	1	-1E+10	1	-1E+10	1	-1E+10	1
4901784	58	C	02/04/2017	10:44	-132.455	44.187	0	247.50	0	6.7320	0	33.9640	0	26.642	0	245.362	0	140.2	4	47.1	4	-1E+10	1	-1E+10	1	-1E+10	1	-1E+10	1	-1E+10	1	-1E+10	1
4901784	58	C	02/04/2017	10:44	-132.455	44.187	0	250.00	0	6.6750	0	33.9640	0	26.650	0	247.839	0	138.6	4	46.5	4	-1E+10	1	-1E+10	1	-1E+10	1	-1E+10	1	-1E+10	1	-1E+10	1
4901784	58	C	02/04/2017	10:44	-132.455	44.187	0	252.50	0	6.6360	0	33.9640	0	26.655	0	250.316	0	137.4	4	46.1	4	-1E+10	1	-1E+10	1	-1E+10	1	-1E+10	1	-1E+10	1	-1E+10	1
4901784	58	C	02/04/2017	10:44	-132.455	44.187	0	255.00	0	6.6260	0	33.9630	0	26.656	0	252.793	0	135.9	4	45.6	4	-1E+10	1	-1E+10	1	-1E+10	1	-1E+10	1	-1E+10	1	-1E+10	1
4901784	58	C	02/04/2017	10:44	-132.455	44.187	0	257.40	0	6.5760	0	33.9630	0	26.662	0	255.171	0	133.8	4	44.8	4	-1E+10	1	-1E+10	1	-1E+10	1	-1E+10	1	-1E+10	1	-1E+10	1
4901784	58	C	02/04/2017	10:44	-132.455	44.187	0	259.90	0	6.5350	0	33.9610	0	26.666	0	257.648	0	131.2	4	43.9	4	-1E+10	1	-1E+10	1	-1E+10	1	-1E+10	1	-1E+10	1	-1E+10	1
4901784	58	C	02/04/2017	10:44	-132.455	44.187	0	262.40	0	6.4440	0	33.9620	0	26.679	0	260.124	0	129.2	4	43.1	4	-1E+10	1	-1E+10	1	-1E+10	1	-1E+10	1	-1E+10	1	-1E+10	1
4901784	58	C	02/04/2017	10:44	-132.455	44.187	0	264.90	0	6.3940	0	33.9620	0	26.685	0	262.601	0	127.6	4	42.5	4	-1E+10	1	-1E+10	1	-1E+10	1	-1E+10	1	-1E+10	1	-1E+10	1
4901784	58	C	02/04/2017	10:44	-132.455	44.187	0	267.30	0	6.3440	0	33.9620	0	26.692	0	264.979	0	125.8	4	41.9	4	-1E+10	1	-1E+10	1	-1E+10	1	-1E+10	1	-1E+10	1	-1E+10	1
4901784	58	C	02/04/2017	10:44	-132.455	44.187	0	269.80	0	6.2940	0	33.9630	0	26.699	0	267.455	0	124.4	4	41.4	4	-1E+10	1	-1E+10	1	-1E+10	1	-1E+10	1	-1E+10	1	-1E+10	1
4901784	58	C	02/04/2017	10:44	-132.455	44.187	0	272.40	0	6.2590	0	33.9630	0	26.704	0	270.031	0	122.7	4	40.8	4	-1E+10	1	-1E+10	1	-1E+10	1	-1E+10	1	-1E+10	1	-1E+10	1
4901784	58	C	02/04/2017	10:44	-132.455	44.187	0	275.00	0	6.2240	0	33.9630	0	26.708	0	272.607	0	120.8	4	40.1	4	-1E+10	1	-1E+10	1	-1E+10	1	-1E+10	1	-1E+10	1	-1E+10	1
4901784	58	C	02/04/2017	10:44	-132.455	44.187	0	277.60	0	6.1840	0	33.9650	0	26.715	0	275.182	0	119.2	4	39.6	4	-1E+10	1	-1E+10	1	-1E+10	1	-1E+10	1	-1E+10	1	-1E+10	1
4901784	58	C	02/04/2017	10:44	-132.455	44.187	0	280.20	0	6.1630	0	33.9660	0	26.718	0	277.758	0	118.0	4	39.1	4	-1E+10	1	-1E+10	1	-1E+10	1	-1E+10	1	-1E+10	1	-1E+10	1
4901784	58	C	02/04/2017	10:44	-132.455	44.187	0	282.80	0	6.1100	0	33.9640	0	26.723	0	280.334	0	117.5	4	38.9	4	-1E+10	1	-1E+10	1	-1E+10	1	-1E+10	1	-1E+10	1	-1E+10	1
4901784	58	C	02/04/2017	10:44	-132.455	44.187	0	285.30	0	6.0680	0	33.9600	0	26.726	0	282.810	0	116.5	4	38.6	4	-1E+10	1	-1E+10	1	-1E+10	1	-1E+10	1	-1E+10	1	-1E+10	1
4901784	58	C	02/04/2017	10:44	-132.455	44.187	0	287.00	0	6.0120	0	33.9620	0	26.734	0	284.494	0	115.2	4	38.1	4	-1E+10	1	-1E+10	1	-1E+10	1	-1E+10	1	-1E+10	1	-1E+10	1
4901784	58	C	02/04/2017	10:44	-132.455	44.187	0	289.60	0	5.9710	0	33.9620	0	26.739	0	287.070	0	113.5	4	37.5	4	-1E+10	1	-1E+10	1	-1E+10	1	-1E+10	1	-1E+10	1	-1E+10	1
4901784	58	C	02/04/2017	10:44	-132.455	44.187	0	292.30	0	5.9290	0	33.9640	0	26.746	0	289.744	0	111.5	4	36.8	4	-1E+10	1	-1E+10	1	-1E+10	1	-1E+10	1	-1E+10	1	-1E+10	1
4901784	58	C	02/04/2017	10:44	-132.455	44.187	0	294.90	0	5.9020	0	33.9650	0	26.750	0	292.319	0	109.4	4	36.1	4	-1E+10	1	-1E+10	1	-1E+10	1	-1E+10	1	-1E+10	1	-1E+10	1
4901784	58	C	02/04/2017	10:44	-132.455	44.187	0	297.50	0	5.8510	0	33.9660	0	26.757	0	294.895	0	108.6	4	35.8	4	-1E+10	1	-1E+10	1	-1E+10	1	-1E+10	1	-1E+10	1	-1E+10	1
4901784	58	C	02/04/2017	10:44	-132.455	44.187	0	300.20	0	5.7960	0	33.9640	0	26.763	0	297.569	0	107.2	4	35.3	4	-1E+10	1	-1E+10	1	-1E+10	1	-1E+10	1	-1E+10	1	-1E+10	1
4901784	58	C	02/04/2017	10:44	-132.455	44.187	0	302.80	0	5.7660	0	33.9650	0	26.767	0	300.145	0	105.3	4	34.6	4	-1E+10	1	-1E+10	1	-1E+10	1	-1E+10	1	-1E+10	1	-1E+10	1
4901784	58	C	02/04/2017	10:44	-132.455	44.187	0	304.70	0	5.7480	0	33.9670	0	26.771	0	302.027	0	103.8	4	34.1	4	-1E+10	1	-1E+10	1	-1E+10	1	-1E+10	1	-1E+10	1	-1E+10	1
4901784	58	C	02/04/2017	10:44	-132.455	44.187	0	307.40	0	5.7200	0	33.9670	0	26.774	0	304.701	0	102.0	4	33.5	4	-1E+10	1	-1E+10	1	-1E+10	1	-1E+10	1	-1E+10	1	-1E+10	1
4901784	58	C	02/04/2017	10:44	-132.455	44.187	0	310.10	0	5.6660	0	33.9670	0	26.781	0	307.375	0	99.8	4	32.7	4	-1E+10	1	-1E+10	1	-1E+10	1	-1E+10	1	-1E+10	1	-1E+10	1
4901784	58	C	02/04/2017	10:44	-132.455	44.187	0	311.90	0	5.6420	0	33.9690	0	26.785	0	309.158	0	97.7	4	32.0	4	-1E+10	1	-1E+10	1	-1E+10	1	-1E+10	1	-1E+10	1	-1E+10	1
4901784	58	C	02/04/2017	10:44	-132.455	44.187	0	314.70	0	5.6470	0	33.9760	0	26.790	0	311.931	0	96.2	4	31.5	4	-1E+10	1	-1E+10	1	-1E+10	1	-1E+10	1	-1E+10	1	-1E+10	1
4901784	58	C	02/04/2017	10:44	-132.455	44.187	0	317.50	0	5.6330	0	33.9770	0	26.793	0	314.705	0	95.3	4	31.2	4	-1E+10	1	-1E+10	1	-1E+10	1	-1E+10	1	-1E+10	1	-1E+10	1
4901784	58	C	02/04/2017	10:44	-132.455	44.187	0	320.20	0	5.6100	0	33.9790	0	26.797	0	317.379	0	94.4	4	30.9	4	-1E+10	1	-1E+10	1	-1E+10	1	-1E+10	1	-1E+10	1	-1E+10	1
4901784	58	C	02/04/2017	10:44	-132.455	44.187	0	322.90	0	5.5890	0	33.9790	0	26.800	0	320.053	0	93.7	4	30.7	4	-1E+10	1	-1E+10	1	-1E+10	1	-1E+10	1	-1E+10	1	-1E+10	1
4901784	58	C	02/04/2017	10:44	-132.455	44.187	0	324.70	0	5.5820	0	33.9800	0	26.802	0	321.836	0	93.3	4	30.5	4	-1E+10	1	-1E+10	1	-1E+10	1	-1E+10	1	-1E+10	1	-1E+10	1
4901784	58	C	02/04/2017	10:44	-132.455	44.187	0	327.50	0	5.5690	0	33.9800	0	26.803	0	324.609	0	92.4	4	30.3	4	-1E+10	1	-1E+10	1	-1E+10	1	-1E+10	1	-1E+10	1	-1E+10	1
4901784	58	C	02/04/2017	10:44	-132.455	44.187	0	330.80	0	5.5470	0	33.9820	0	26.807	0	327.877	0	91.6	4	30.0	4	-1E+10	1	-1E+10	1	-1E+10	1	-1E+10	1	-1E+10	1	-1E+10	1
4901784	58	C	02/04/2017	10:44	-132.455	44.187	0	332.70	0	5.5340	0	33.9810	0	26.808	0	329.759	0	91.1	4	29.8	4	-1E+10	1	-1E+10	1	-1E+10	1	-1E+10	1	-1E+10	1	-1E+10	1
4901784	58	C	02/04/2017	10:44	-132.455	44.187	0	335.10	0	5.5150	0	33.9830	0	26.812	0	332.136	0	90.5	4	29.6	4	-1E+10	1	-1E+10	1	-1E+10	1	-1E+10	1	-1E+10	1	-1E+10	1
4901784	58	C	02/04/2017	10:44	-132.455	44.187	0	337.40	0	5.5010	0	33.9830	0	26.814	0	334.413	0	89.9	4	29.4	4	-1E+10	1	-1E+10	1	-1E+10	1	-1E+10	1	-1E+10	1	-1E+10	1
4901784	58	C	02/04/2017	10:44	-132.455	44.187	0	339.80	0	5.4910	0	33.9830	0	26.815	0	336.790	0	89.2	4	29.1	4	-1E+10	1	-1E+10	1	-1E+10	1	-1E+10	1	-1E+10	1	-1E+10	1
4901784	58	C	02/04/2017	10:44	-132.455	44.187	0	342.20	0	5.4740	0	33.9840	0	26.818	0	339.167	0	88.3	4	28.8	4	-1E+10	1	-1E+10	1	-1E+10	1	-1E+10	1	-1E+10	1	-1E+10	1
4901784	58	C	02/04/2017	10:44	-132.455	44.187	0	344.60	0	5.4480	0	33.9860	0	26.823	0	341.544	0	87.4	4	28.5	4	-1E+10	1	-1E+10	1	-1E+10	1	-1E+10	1	-1E+10	1	-1E+10	1
4901784	58	C	02/04/2017	10:44	-132.455	44.187	0	347.80	0	5.4310	0	33.9860	0	26.825	0	344.713	0	86.4	4	28.2	4	-1E+10	1	-1E+10	1	-1E+10	1	-1E+10	1	-1E+10	1	-1E+10	1
4901784	58	C	02/04/2017	10:44	-132.455	44.187	0	350.30	0	5.4130	0	33.9870	0	26.828	0	347.188	0	85.5	4	27.9	4	-1E+10	1	-1E+10	1	-1E+10	1	-1E+10	1	-1E+10	1	-1E+10	1
4901784	58	C	02/04/2017	10:44	-132.455	44.187	0	352.70	0	5.4000	0	33.9880	0	26.830	0	349.565	0	84.3	4	27.5	4	-1E+10	1	-1E+10	1	-1E+10	1	-1E+10	1	-1E+10	1	-1E+10	1
4901784	58	C	02/04/2017	10:44	-132.455	44.187	0	355.10	0	5.3850	0	33.9910	0	26.834	0	351.942	0	83.2	4	27.1	4	-1E+10	1	-1E+10	1	-1E+10	1	-1E+10	1	-1E+10	1	-1E+10	1
4901784	58	C	02/04/2017	10:44	-132.455	44.187	0	357.60	0	5.3620	0	33.9930	0	26.838	0	354.417	0	82.5	4	26.9	4	-1E+10	1	-1E+10	1	-1E+10	1	-1E+10	1	-1E+10	1	-1E+10	1
4901784	58	C	02/04/2017	10:44	-132.455	44.187	0	360.10	0	5.3460	0	33.9930	0	26.840	0	356.893	0	81.8	4	26.6	4	-1E+10	1	-1E+10	1	-1E+10	1	-1E+10	1	-1E+10	1	-1E+10	1
4901784	58	C	02/04/2017	10:44	-132.455	44.187	0	362.60	0	5.3340	0	33.9940	0	26.842	0	359.368	0	81.0	4	26.4	4	-1E+10	1	-1E+10	1	-1E+10	1	-1E+10	1	-1E+10	1	-1E+10	1
4901784	58	C	02/04/2017	10:44	-132.455	44.187	0	365.10	0	5.3260	0	33.9960	0	26.845	0	361.844	0	80.2	4	26.1	4	-1E+10	1	-1E+10	1	-1E+10	1	-1E+10	1	-1E+10	1	-1E+10	1
4901784	58	C	02/04/2017	10:44	-132.455	44.187	0	367.60	0	5.3120	0	33.9970	0	26.847	0	364.319	0	79.4	4	25.8	4	-1E+10	1	-1E+10	1	-1E+10	1	-1E+10	1	-1E+10	1	-1E+10	1
4901784	58	C	02/04/2017	10:44	-132.455	44.187	0	370.00	0	5.2990	0	33.9970	0	26.849	0	366.696	0	78.5	4	25.5	4	-1E+10	1	-1E+10	1	-1E+10	1	-1E+10	1	-1E+10	1	-1E+10	1
4901784	58	C	02/04/2017	10:44	-132.455	44.187	0	372.50	0	5.2740	0	33.9980	0	26.853	0	369.171	0	77.6	4	25.2	4	-1E+10	1	-1E+10	1	-1E+10	1	-1E+10	1	-1E+10	1	-1E+10	1
4901784	58	C	02/04/2017	10:44	-132.455	44.187	0	375.10	0	5.2580	0	34.0000	0	26.856	0	371.746	0	76.7	4	24.9	4	-1E+10	1	-1E+10	1	-1E+10	1	-1E+10	1	-1E+10	1	-1E+10	1
4901784	58	C	02/04/2017	10:44	-132.455	44.187	0	377.60	0	5.2390	0	34.0000	0	26.858	0	374.221	0	75.7	4	24.6	4	-1E+10	1	-1E+10	1	-1E+10	1	-1E+10	1	-1E+10	1	-1E+10	1
4901784	58	C	02/04/2017	10:44	-132.455	44.187	0	380.20	0	5.2130	0	34.0000	0	26.862	0	376.796	0	74.7	4	24.2	4	-1E+10	1	-1E+10	1	-1E+10	1	-1E+10	1	-1E+10	1	-1E+10	1
4901784	58	C	02/04/2017	10:44	-132.455	44.187	0	382.80	0	5.1790	0	34.0040	0	26.869	0	379.370	0	73.6	4	23.9	4	-1E+10	1	-1E+10	1	-1E+10	1	-1E+10	1	-1E+10	1	-1E+10	1
4901784	58	C	02/04/2017	10:44	-132.455	44.187	0	385.40	0	5.1520	0	34.0050	0	26.873	0	381.944	0	72.9	4	23.6	4	-1E+10	1	-1E+10	1	-1E+10	1	-1E+10	1	-1E+10	1	-1E+10	1
4901784	58	C	02/04/2017	10:44	-132.455	44.187	0	387.10	0	5.1510	0	34.0060	0	26.874	0	383.627	0	72.4	4	23.5	4	-1E+10	1	-1E+10	1	-1E+10	1	-1E+10	1	-1E+10	1	-1E+10	1
4901784	58	C	02/04/2017	10:44	-132.455	44.187	0	389.70	0	5.1460	0	34.0070	0	26.875	0	386.202	0	71.6	4	23.2	4	-1E+10	1	-1E+10	1	-1E+10	1	-1E+10	1	-1E+10	1	-1E+10	1
4901784	58	C	02/04/2017	10:44	-132.455	44.187	0	392.30	0	5.1440	0	34.0090	0	26.877	0	388.776	0	70.6	4	22.9	4	-1E+10	1	-1E+10	1	-1E+10	1	-1E+10	1	-1E+10	1	-1E+10	1
4901784	58	C	02/04/2017	10:44	-132.455	44.187	0	394.80	0	5.1460	0	34.0140	0	26.880	0	391.251	0	69.3	4	22.5	4	-1E+10	1	-1E+10	1	-1E+10	1	-1E+10	1	-1E+10	1	-1E+10	1
4901784	58	C	02/04/2017	10:44	-132.455	44.187	0	397.30	0	5.1290	0	34.0180	0	26.886	0	393.726	0	68.5	4	22.2	4	-1E+10	1	-1E+10	1	-1E+10	1	-1E+10	1	-1E+10	1	-1E+10	1
4901784	58	C	02/04/2017	10:44	-132.455	44.187	0	399.90	0	5.1150	0	34.0190	0	26.888	0	396.300	0	67.8	4	22.0	4	-1E+10	1	-1E+10	1	-1E+10	1	-1E+10	1	-1E+10	1	-1E+10	1
4901784	58	C	02/04/2017	10:44	-132.455	44.187	0	402.40	0	5.1130	0	34.0210	0	26.890	0	398.775	0	67.0	4	21.7	4	-1E+10	1	-1E+10	1	-1E+10	1	-1E+10	1	-1E+10	1	-1E+10	1
4901784	58	C	02/04/2017	10:44	-132.455	44.187	0	405.00	0	5.1140	0	34.0240	0	26.892	0	401.349	0	66.3	4	21.5	4	-1E+10	1	-1E+10	1	-1E+10	1	-1E+10	1	-1E+10	1	-1E+10	1
4901784	58	C	02/04/2017	10:44	-132.455	44.187	0	407.60	0	5.1180	0	34.0250	0	26.893	0	403.924	0	65.6	4	21.2	4	-1E+10	1	-1E+10	1	-1E+10	1	-1E+10	1	-1E+10	1	-1E+10	1
4901784	58	C	02/04/2017	10:44	-132.455	44.187	0	410.20	0	5.0940	0	34.0280	0	26.898	0	406.498	0	65.0	4	21.1	4	-1E+10	1	-1E+10	1	-1E+10	1	-1E+10	1	-1E+10	1	-1E+10	1
4901784	58	C	02/04/2017	10:44	-132.455	44.187	0	412.80	0	5.0870	0	34.0280	0	26.899	0	409.071	0	64.5	4	20.9	4	-1E+10	1	-1E+10	1	-1E+10	1	-1E+10	1	-1E+10	1	-1E+10	1
4901784	58	C	02/04/2017	10:44	-132.455	44.187	0	414.60	0	5.0790	0	34.0280	0	26.899	0	410.853	0	64.0	4	20.7	4	-1E+10	1	-1E+10	1	-1E+10	1	-1E+10	1	-1E+10	1	-1E+10	1
4901784	58	C	02/04/2017	10:44	-132.455	44.187	0	417.10	0	5.0490	0	34.0290	0	26.904	0	413.328	0	63.1	4	20.4	4	-1E+10	1	-1E+10	1	-1E+10	1	-1E+10	1	-1E+10	1	-1E+10	1
4901784	58	C	02/04/2017	10:44	-132.455	44.187	0	419.80	0	5.0510	0	34.0320	0	26.906	0	416.001	0	62.3	4	20.1	4	-1E+10	1	-1E+10	1	-1E+10	1	-1E+10	1	-1E+10	1	-1E+10	1
4901784	58	C	02/04/2017	10:44	-132.455	44.187	0	422.40	0	5.0420	0	34.0350	0	26.909	0	418.575	0	61.5	4	19.9	4	-1E+10	1	-1E+10	1	-1E+10	1	-1E+10	1	-1E+10	1	-1E+10	1
4901784	58	C	02/04/2017	10:44	-132.455	44.187	0	425.00	0	5.0400	0	34.0370	0	26.911	0	421.149	0	60.8	4	19.7	4	-1E+10	1	-1E+10	1	-1E+10	1	-1E+10	1	-1E+10	1	-1E+10	1
4901784	58	C	02/04/2017	10:44	-132.455	44.187	0	427.60	0	5.0270	0	34.0390	0	26.914	0	423.723	0	60.3	4	19.5	4	-1E+10	1	-1E+10	1	-1E+10	1	-1E+10	1	-1E+10	1	-1E+10	1
4901784	58	C	02/04/2017	10:44	-132.455	44.187	0	430.30	0	5.0170	0	34.0400	0	26.916	0	426.395	0	59.7	4	19.3	4	-1E+10	1	-1E+10	1	-1E+10	1	-1E+10	1	-1E+10	1	-1E+10	1
4901784	58	C	02/04/2017	10:44	-132.455	44.187	0	432.00	0	5.0160	0	34.0410	0	26.917	0	428.078	0	59.3	4	19.2	4	-1E+10	1	-1E+10	1	-1E+10	1	-1E+10	1	-1E+10	1	-1E+10	1
4901784	58	C	02/04/2017	10:44	-132.455	44.187	0	434.70	0	5.0010	0	34.0410	0	26.919	0	430.751	0	58.7	4	19.0	4	-1E+10	1	-1E+10	1	-1E+10	1	-1E+10	1	-1E+10	1	-1E+10	1
4901784	58	C	02/04/2017	10:44	-132.455	44.187	0	437.40	0	4.9910	0	34.0420	0	26.921	0	433.424	0	57.8	4	18.7	4	-1E+10	1	-1E+10	1	-1E+10	1	-1E+10	1	-1E+10	1	-1E+10	1
4901784	58	C	02/04/2017	10:44	-132.455	44.187	0	440.00	0	4.9640	0	34.0450	0	26.926	0	435.997	0	56.7	4	18.3	4	-1E+10	1	-1E+10	1	-1E+10	1	-1E+10	1	-1E+10	1	-1E+10	1
4901784	58	C	02/04/2017	10:44	-132.455	44.187	0	442.70	0	4.9410	0	34.0510	0	26.934	0	438.670	0	55.9	4	18.0	4	-1E+10	1	-1E+10	1	-1E+10	1	-1E+10	1	-1E+10	1	-1E+10	1
4901784	58	C	02/04/2017	10:44	-132.455	44.187	0	445.30	0	4.9260	0	34.0520	0	26.936	0	441.243	0	55.1	4	17.8	4	-1E+10	1	-1E+10	1	-1E+10	1	-1E+10	1	-1E+10	1	-1E+10	1
4901784	58	C	02/04/2017	10:44	-132.455	44.187	0	448.00	0	4.9210	0	34.0530	0	26.938	0	443.916	0	54.4	4	17.5	4	-1E+10	1	-1E+10	1	-1E+10	1	-1E+10	1	-1E+10	1	-1E+10	1
4901784	58	C	02/04/2017	10:44	-132.455	44.187	0	449.80	0	4.9180	0	34.0550	0	26.939	0	445.698	0	53.8	4	17.3	4	-1E+10	1	-1E+10	1	-1E+10	1	-1E+10	1	-1E+10	1	-1E+10	1
4901784	58	C	02/04/2017	10:44	-132.455	44.187	0	452.40	0	4.8960	0	34.0590	0	26.945	0	448.271	0	53.1	4	17.1	4	-1E+10	1	-1E+10	1	-1E+10	1	-1E+10	1	-1E+10	1	-1E+10	1
4901784	58	C	02/04/2017	10:44	-132.455	44.187	0	455.10	0	4.8840	0	34.0580	0	26.946	0	450.944	0	52.4	4	16.9	4	-1E+10	1	-1E+10	1	-1E+10	1	-1E+10	1	-1E+10	1	-1E+10	1
4901784	58	C	02/04/2017	10:44	-132.455	44.187	0	457.80	0	4.8650	0	34.0630	0	26.952	0	453.616	0	51.6	4	16.6	4	-1E+10	1	-1E+10	1	-1E+10	1	-1E+10	1	-1E+10	1	-1E+10	1
4901784	58	C	02/04/2017	10:44	-132.455	44.187	0	460.50	0	4.8610	0	34.0640	0	26.953	0	456.288	0	50.6	4	16.3	4	-1E+10	1	-1E+10	1	-1E+10	1	-1E+10	1	-1E+10	1	-1E+10	1
4901784	58	C	02/04/2017	10:44	-132.455	44.187	0	462.30	0	4.8580	0	34.0650	0	26.954	0	458.070	0	50.0	4	16.1	4	-1E+10	1	-1E+10	1	-1E+10	1	-1E+10	1	-1E+10	1	-1E+10	1
4901784	58	C	02/04/2017	10:44	-132.455	44.187	0	465.00	0	4.8510	0	34.0670	0	26.957	0	460.742	0	48.9	4	15.7	4	-1E+10	1	-1E+10	1	-1E+10	1	-1E+10	1	-1E+10	1	-1E+10	1
4901784	58	C	02/04/2017	10:44	-132.455	44.187	0	467.70	0	4.8300	0	34.0710	0	26.962	0	463.414	0	47.4	4	15.3	4	-1E+10	1	-1E+10	1	-1E+10	1	-1E+10	1	-1E+10	1	-1E+10	1
4901784	58	C	02/04/2017	10:44	-132.455	44.187	0	470.30	0	4.7980	0	34.0780	0	26.971	0	465.988	0	46.3	4	14.9	4	-1E+10	1	-1E+10	1	-1E+10	1	-1E+10	1	-1E+10	1	-1E+10	1
4901784	58	C	02/04/2017	10:44	-132.455	44.187	0	473.00	0	4.7720	0	34.0830	0	26.978	0	468.660	0	45.5	4	14.6	4	-1E+10	1	-1E+10	1	-1E+10	1	-1E+10	1	-1E+10	1	-1E+10	1
4901784	58	C	02/04/2017	10:44	-132.455	44.187	0	474.70	0	4.7680	0	34.0840	0	26.979	0	470.342	0	45.0	4	14.5	4	-1E+10	1	-1E+10	1	-1E+10	1	-1E+10	1	-1E+10	1	-1E+10	1
4901784	58	C	02/04/2017	10:44	-132.455	44.187	0	477.40	0	4.7530	0	34.0870	0	26.984	0	473.014	0	44.4	4	14.3	4	-1E+10	1	-1E+10	1	-1E+10	1	-1E+10	1	-1E+10	1	-1E+10	1
4901784	58	C	02/04/2017	10:44	-132.455	44.187	0	480.10	0	4.7520	0	34.0900	0	26.986	0	475.687	0	43.8	4	14.1	4	-1E+10	1	-1E+10	1	-1E+10	1	-1E+10	1	-1E+10	1	-1E+10	1
4901784	58	C	02/04/2017	10:44	-132.455	44.187	0	482.80	0	4.7300	0	34.0910	0	26.989	0	478.359	0	43.2	4	13.9	4	-1E+10	1	-1E+10	1	-1E+10	1	-1E+10	1	-1E+10	1	-1E+10	1
4901784	58	C	02/04/2017	10:44	-132.455	44.187	0	485.40	0	4.7190	0	34.0920	0	26.991	0	480.932	0	42.6	4	13.7	4	-1E+10	1	-1E+10	1	-1E+10	1	-1E+10	1	-1E+10	1	-1E+10	1
4901784	58	C	02/04/2017	10:44	-132.455	44.187	0	487.20	0	4.7070	0	34.0940	0	26.994	0	482.713	0	42.1	4	13.5	4	-1E+10	1	-1E+10	1	-1E+10	1	-1E+10	1	-1E+10	1	-1E+10	1
4901784	58	C	02/04/2017	10:44	-132.455	44.187	0	489.90	0	4.6970	0	34.0960	0	26.997	0	485.385	0	41.4	4	13.3	4	-1E+10	1	-1E+10	1	-1E+10	1	-1E+10	1	-1E+10	1	-1E+10	1
4901784	58	C	02/04/2017	10:44	-132.455	44.187	0	492.50	0	4.6880	0	34.0980	0	27.000	0	487.958	0	40.5	4	13.0	4	-1E+10	1	-1E+10	1	-1E+10	1	-1E+10	1	-1E+10	1	-1E+10	1
4901784	58	C	02/04/2017	10:44	-132.455	44.187	0	495.20	0	4.6780	0	34.1010	0	27.003	0	490.630	0	39.4	4	12.7	4	-1E+10	1	-1E+10	1	-1E+10	1	-1E+10	1	-1E+10	1	-1E+10	1
4901784	58	C	02/04/2017	10:44	-132.455	44.187	0	497.90	0	4.6580	0	34.1060	0	27.009	0	493.302	0	38.4	4	12.3	4	-1E+10	1	-1E+10	1	-1E+10	1	-1E+10	1	-1E+10	1	-1E+10	1
4901784	58	C	02/04/2017	10:44	-132.455	44.187	0	499.70	0	4.6510	0	34.1090	0	27.012	0	495.083	0	37.7	4	12.1	4	-1E+10	1	-1E+10	1	-1E+10	1	-1E+10	1	-1E+10	1	-1E+10	1
4901784	58	C	02/04/2017	10:44	-132.455	44.187	0	505.10	0	4.6350	0	34.1170	0	27.021	0	500.427	0	36.3	4	11.6	4	-1E+10	1	-1E+10	1	-1E+10	1	-1E+10	1	-1E+10	1	-1E+10	1
4901784	58	C	02/04/2017	10:44	-132.455	44.187	0	510.50	0	4.6190	0	34.1220	0	27.026	0	505.770	0	35.0	4	11.2	4	-1E+10	1	-1E+10	1	-1E+10	1	-1E+10	1	-1E+10	1	-1E+10	1
4901784	58	C	02/04/2017	10:44	-132.455	44.187	0	515.00	0	4.6140	0	34.1250	0	27.029	0	510.223	0	33.8	4	10.8	4	-1E+10	1	-1E+10	1	-1E+10	1	-1E+10	1	-1E+10	1	-1E+10	1
4901784	58	C	02/04/2017	10:44	-132.455	44.187	0	519.60	0	4.5930	0	34.1330	0	27.038	0	514.775	0	32.5	4	10.4	4	-1E+10	1	-1E+10	1	-1E+10	1	-1E+10	1	-1E+10	1	-1E+10	1
4901784	58	C	02/04/2017	10:44	-132.455	44.187	0	525.00	0	4.5890	0	34.1390	0	27.043	0	520.118	0	31.2	4	10.0	4	-1E+10	1	-1E+10	1	-1E+10	1	-1E+10	1	-1E+10	1	-1E+10	1
4901784	58	C	02/04/2017	10:44	-132.455	44.187	0	530.60	0	4.5970	0	34.1470	0	27.049	0	525.658	0	30.2	4	9.7	4	-1E+10	1	-1E+10	1	-1E+10	1	-1E+10	1	-1E+10	1	-1E+10	1
4901784	58	C	02/04/2017	10:44	-132.455	44.187	0	535.30	0	4.5960	0	34.1500	0	27.051	0	530.309	0	29.7	4	9.5	4	-1E+10	1	-1E+10	1	-1E+10	1	-1E+10	1	-1E+10	1	-1E+10	1
4901784	58	C	02/04/2017	10:44	-132.455	44.187	0	539.90	0	4.5770	0	34.1520	0	27.055	0	534.860	0	29.1	4	9.3	4	-1E+10	1	-1E+10	1	-1E+10	1	-1E+10	1	-1E+10	1	-1E+10	1
4901784	58	C	02/04/2017	10:44	-132.455	44.187	0	544.70	0	4.5590	0	34.1540	0	27.059	0	539.609	0	28.5	4	9.1	4	-1E+10	1	-1E+10	1	-1E+10	1	-1E+10	1	-1E+10	1	-1E+10	1
4901784	58	C	02/04/2017	10:44	-132.455	44.187	0	549.30	0	4.5380	0	34.1580	0	27.064	0	544.160	0	27.9	4	8.9	4	-1E+10	1	-1E+10	1	-1E+10	1	-1E+10	1	-1E+10	1	-1E+10	1
4901784	58	C	02/04/2017	10:44	-132.455	44.187	0	555.00	0	4.5180	0	34.1620	0	27.069	0	549.799	0	27.0	4	8.6	4	-1E+10	1	-1E+10	1	-1E+10	1	-1E+10	1	-1E+10	1	-1E+10	1
4901784	58	C	02/04/2017	10:44	-132.455	44.187	0	559.70	0	4.4870	0	34.1670	0	27.077	0	554.449	0	26.3	4	8.4	4	-1E+10	1	-1E+10	1	-1E+10	1	-1E+10	1	-1E+10	1	-1E+10	1
4901784	58	C	02/04/2017	10:44	-132.455	44.187	0	564.60	0	4.4620	0	34.1710	0	27.083	0	559.296	0	25.9	4	8.3	4	-1E+10	1	-1E+10	1	-1E+10	1	-1E+10	1	-1E+10	1	-1E+10	1
4901784	58	C	02/04/2017	10:44	-132.455	44.187	0	570.30	0	4.4490	0	34.1730	0	27.086	0	564.935	0	25.4	4	8.1	4	-1E+10	1	-1E+10	1	-1E+10	1	-1E+10	1	-1E+10	1	-1E+10	1
4901784	58	C	02/04/2017	10:44	-132.455	44.187	0	575.10	0	4.4390	0	34.1750	0	27.088	0	569.683	0	24.8	4	7.9	4	-1E+10	1	-1E+10	1	-1E+10	1	-1E+10	1	-1E+10	1	-1E+10	1
4901784	58	C	02/04/2017	10:44	-132.455	44.187	0	579.80	0	4.4200	0	34.1790	0	27.094	0	574.332	0	24.2	4	7.7	4	-1E+10	1	-1E+10	1	-1E+10	1	-1E+10	1	-1E+10	1	-1E+10	1
4901784	58	C	02/04/2017	10:44	-132.455	44.187	0	585.40	0	4.3990	0	34.1840	0	27.100	0	579.872	0	23.6	4	7.5	4	-1E+10	1	-1E+10	1	-1E+10	1	-1E+10	1	-1E+10	1	-1E+10	1
4901784	58	C	02/04/2017	10:44	-132.455	44.187	0	590.00	0	4.3860	0	34.1870	0	27.104	0	584.422	0	23.0	4	7.3	4	-1E+10	1	-1E+10	1	-1E+10	1	-1E+10	1	-1E+10	1	-1E+10	1
4901784	58	C	02/04/2017	10:44	-132.455	44.187	0	594.70	0	4.3700	0	34.1910	0	27.109	0	589.071	0	22.4	4	7.1	4	-1E+10	1	-1E+10	1	-1E+10	1	-1E+10	1	-1E+10	1	-1E+10	1
4901784	58	C	02/04/2017	10:44	-132.455	44.187	0	600.30	0	4.3510	0	34.1950	0	27.114	0	594.610	0	21.7	4	6.9	4	-1E+10	1	-1E+10	1	-1E+10	1	-1E+10	1	-1E+10	1	-1E+10	1
4901784	58	C	02/04/2017	10:44	-132.455	44.187	0	605.10	0	4.3230	0	34.2010	0	27.122	0	599.357	0	21.1	4	6.7	4	-1E+10	1	-1E+10	1	-1E+10	1	-1E+10	1	-1E+10	1	-1E+10	1
4901784	58	C	02/04/2017	10:44	-132.455	44.187	0	610.00	0	4.3010	0	34.2050	0	27.127	0	604.204	0	20.6	4	6.6	4	-1E+10	1	-1E+10	1	-1E+10	1	-1E+10	1	-1E+10	1	-1E+10	1
4901784	58	C	02/04/2017	10:44	-132.455	44.187	0	615.50	0	4.2740	0	34.2120	0	27.136	0	609.643	0	20.0	4	6.4	4	-1E+10	1	-1E+10	1	-1E+10	1	-1E+10	1	-1E+10	1	-1E+10	1
4901784	58	C	02/04/2017	10:44	-132.455	44.187	0	620.40	0	4.2570	0	34.2160	0	27.141	0	614.490	0	19.7	4	6.3	4	-1E+10	1	-1E+10	1	-1E+10	1	-1E+10	1	-1E+10	1	-1E+10	1
4901784	58	C	02/04/2017	10:44	-132.455	44.187	0	625.40	0	4.2460	0	34.2190	0	27.144	0	619.435	0	19.4	4	6.2	4	-1E+10	1	-1E+10	1	-1E+10	1	-1E+10	1	-1E+10	1	-1E+10	1
4901784	58	C	02/04/2017	10:44	-132.455	44.187	0	630.60	0	4.2270	0	34.2220	0	27.149	0	624.577	0	19.2	4	6.1	4	-1E+10	1	-1E+10	1	-1E+10	1	-1E+10	1	-1E+10	1	-1E+10	1
4901784	58	C	02/04/2017	10:44	-132.455	44.187	0	635.60	0	4.2130	0	34.2250	0	27.153	0	629.522	0	19.0	4	6.0	4	-1E+10	1	-1E+10	1	-1E+10	1	-1E+10	1	-1E+10	1	-1E+10	1
4901784	58	C	02/04/2017	10:44	-132.455	44.187	0	640.00	0	4.2100	0	34.2260	0	27.154	0	633.873	0	18.7	4	5.9	4	-1E+10	1	-1E+10	1	-1E+10	1	-1E+10	1	-1E+10	1	-1E+10	1
4901784	58	C	02/04/2017	10:44	-132.455	44.187	0	644.20	0	4.2050	0	34.2280	0	27.156	0	638.026	0	18.4	4	5.8	4	-1E+10	1	-1E+10	1	-1E+10	1	-1E+10	1	-1E+10	1	-1E+10	1
4901784	58	C	02/04/2017	10:44	-132.455	44.187	0	649.40	0	4.1860	0	34.2320	0	27.161	0	643.169	0	18.0	4	5.7	4	-1E+10	1	-1E+10	1	-1E+10	1	-1E+10	1	-1E+10	1	-1E+10	1
4901784	58	C	02/04/2017	10:44	-132.455	44.187	0	654.50	0	4.1650	0	34.2380	0	27.168	0	648.212	0	17.6	4	5.6	4	-1E+10	1	-1E+10	1	-1E+10	1	-1E+10	1	-1E+10	1	-1E+10	1
4901784	58	C	02/04/2017	10:44	-132.455	44.187	0	659.70	0	4.1550	0	34.2410	0	27.171	0	653.354	0	17.3	4	5.5	4	-1E+10	1	-1E+10	1	-1E+10	1	-1E+10	1	-1E+10	1	-1E+10	1
4901784	58	C	02/04/2017	10:44	-132.455	44.187	0	664.90	0	4.1390	0	34.2460	0	27.177	0	658.495	0	16.9	4	5.4	4	-1E+10	1	-1E+10	1	-1E+10	1	-1E+10	1	-1E+10	1	-1E+10	1
4901784	58	C	02/04/2017	10:44	-132.455	44.187	0	670.30	0	4.1280	0	34.2500	0	27.182	0	663.835	0	16.6	4	5.3	4	-1E+10	1	-1E+10	1	-1E+10	1	-1E+10	1	-1E+10	1	-1E+10	1
4901784	58	C	02/04/2017	10:44	-132.455	44.187	0	675.60	0	4.1110	0	34.2550	0	27.187	0	669.075	0	16.4	4	5.2	4	-1E+10	1	-1E+10	1	-1E+10	1	-1E+10	1	-1E+10	1	-1E+10	1
4901784	58	C	02/04/2017	10:44	-132.455	44.187	0	680.20	0	4.1070	0	34.2570	0	27.189	0	673.623	0	16.2	4	5.1	4	-1E+10	1	-1E+10	1	-1E+10	1	-1E+10	1	-1E+10	1	-1E+10	1
4901784	58	C	02/04/2017	10:44	-132.455	44.187	0	684.70	0	4.0980	0	34.2590	0	27.192	0	678.072	0	15.9	4	5.0	4	-1E+10	1	-1E+10	1	-1E+10	1	-1E+10	1	-1E+10	1	-1E+10	1
4901784	58	C	02/04/2017	10:44	-132.455	44.187	0	690.00	0	4.0870	0	34.2620	0	27.195	0	683.312	0	15.6	4	4.9	4	-1E+10	1	-1E+10	1	-1E+10	1	-1E+10	1	-1E+10	1	-1E+10	1
4901784	58	C	02/04/2017	10:44	-132.455	44.187	0	695.20	0	4.0560	0	34.2690	0	27.204	0	688.453	0	15.3	4	4.8	4	-1E+10	1	-1E+10	1	-1E+10	1	-1E+10	1	-1E+10	1	-1E+10	1
4901784	58	C	02/04/2017	10:44	-132.455	44.187	0	700.50	0	4.0320	0	34.2750	0	27.212	0	693.693	0	15.1	4	4.8	4	-1E+10	1	-1E+10	1	-1E+10	1	-1E+10	1	-1E+10	1	-1E+10	1
4901784	58	C	02/04/2017	10:44	-132.455	44.187	0	705.00	0	4.0220	0	34.2770	0	27.214	0	698.142	0	15.0	4	4.8	4	-1E+10	1	-1E+10	1	-1E+10	1	-1E+10	1	-1E+10	1	-1E+10	1
4901784	58	C	02/04/2017	10:44	-132.455	44.187	0	709.50	0	4.0150	0	34.2780	0	27.216	0	702.591	0	14.9	4	4.7	4	-1E+10	1	-1E+10	1	-1E+10	1	-1E+10	1	-1E+10	1	-1E+10	1
4901784	58	C	02/04/2017	10:44	-132.455	44.187	0	714.80	0	4.0050	0	34.2800	0	27.218	0	707.830	0	14.7	4	4.6	4	-1E+10	1	-1E+10	1	-1E+10	1	-1E+10	1	-1E+10	1	-1E+10	1
4901784	58	C	02/04/2017	10:44	-132.455	44.187	0	720.30	0	3.9860	0	34.2850	0	27.224	0	713.267	0	14.3	4	4.5	4	-1E+10	1	-1E+10	1	-1E+10	1	-1E+10	1	-1E+10	1	-1E+10	1
4901784	58	C	02/04/2017	10:44	-132.455	44.187	0	724.90	0	3.9670	0	34.2910	0	27.231	0	717.814	0	14.0	4	4.4	4	-1E+10	1	-1E+10	1	-1E+10	1	-1E+10	1	-1E+10	1	-1E+10	1
4901784	58	C	02/04/2017	10:44	-132.455	44.187	0	729.60	0	3.9410	0	34.2980	0	27.239	0	722.460	0	13.7	4	4.3	4	-1E+10	1	-1E+10	1	-1E+10	1	-1E+10	1	-1E+10	1	-1E+10	1
4901784	58	C	02/04/2017	10:44	-132.455	44.187	0	735.10	0	3.9230	0	34.3030	0	27.245	0	727.897	0	13.4	4	4.2	4	-1E+10	1	-1E+10	1	-1E+10	1	-1E+10	1	-1E+10	1	-1E+10	1
4901784	58	C	02/04/2017	10:44	-132.455	44.187	0	739.80	0	3.8970	0	34.3090	0	27.253	0	732.542	0	13.3	4	4.2	4	-1E+10	1	-1E+10	1	-1E+10	1	-1E+10	1	-1E+10	1	-1E+10	1
4901784	58	C	02/04/2017	10:44	-132.455	44.187	0	745.20	0	3.8820	0	34.3140	0	27.258	0	737.880	0	13.1	4	4.1	4	-1E+10	1	-1E+10	1	-1E+10	1	-1E+10	1	-1E+10	1	-1E+10	1
4901784	58	C	02/04/2017	10:44	-132.455	44.187	0	750.40	0	3.8710	0	34.3180	0	27.262	0	743.020	0	12.8	4	4.0	4	-1E+10	1	-1E+10	1	-1E+10	1	-1E+10	1	-1E+10	1	-1E+10	1
4901784	58	C	02/04/2017	10:44	-132.455	44.187	0	755.20	0	3.8600	0	34.3240	0	27.268	0	747.764	0	12.6	4	4.0	4	-1E+10	1	-1E+10	1	-1E+10	1	-1E+10	1	-1E+10	1	-1E+10	1
4901784	58	C	02/04/2017	10:44	-132.455	44.187	0	760.10	0	3.8510	0	34.3300	0	27.274	0	752.607	0	12.4	4	3.9	4	-1E+10	1	-1E+10	1	-1E+10	1	-1E+10	1	-1E+10	1	-1E+10	1
4901784	58	C	02/04/2017	10:44	-132.455	44.187	0	765.10	0	3.8470	0	34.3330	0	27.277	0	757.548	0	12.3	4	3.9	4	-1E+10	1	-1E+10	1	-1E+10	1	-1E+10	1	-1E+10	1	-1E+10	1
4901784	58	C	02/04/2017	10:44	-132.455	44.187	0	770.00	0	3.8420	0	34.3340	0	27.278	0	762.391	0	12.2	4	3.8	4	-1E+10	1	-1E+10	1	-1E+10	1	-1E+10	1	-1E+10	1	-1E+10	1
4901784	58	C	02/04/2017	10:44	-132.455	44.187	0	775.10	0	3.8320	0	34.3370	0	27.282	0	767.431	0	12.0	4	3.8	4	-1E+10	1	-1E+10	1	-1E+10	1	-1E+10	1	-1E+10	1	-1E+10	1
4901784	58	C	02/04/2017	10:44	-132.455	44.187	0	780.10	0	3.8120	0	34.3430	0	27.288	0	772.372	0	11.9	4	3.7	4	-1E+10	1	-1E+10	1	-1E+10	1	-1E+10	1	-1E+10	1	-1E+10	1
4901784	58	C	02/04/2017	10:44	-132.455	44.187	0	785.30	0	3.8010	0	34.3450	0	27.291	0	777.511	0	11.8	4	3.7	4	-1E+10	1	-1E+10	1	-1E+10	1	-1E+10	1	-1E+10	1	-1E+10	1
4901784	58	C	02/04/2017	10:44	-132.455	44.187	0	790.60	0	3.7840	0	34.3490	0	27.296	0	782.749	0	11.7	4	3.7	4	-1E+10	1	-1E+10	1	-1E+10	1	-1E+10	1	-1E+10	1	-1E+10	1
4901784	58	C	02/04/2017	10:44	-132.455	44.187	0	795.00	0	3.7590	0	34.3560	0	27.304	0	787.097	0	11.6	4	3.7	4	-1E+10	1	-1E+10	1	-1E+10	1	-1E+10	1	-1E+10	1	-1E+10	1
4901784	58	C	02/04/2017	10:44	-132.455	44.187	0	799.50	0	3.7450	0	34.3590	0	27.308	0	791.544	0	11.5	4	3.6	4	-1E+10	1	-1E+10	1	-1E+10	1	-1E+10	1	-1E+10	1	-1E+10	1
4901784	58	C	02/04/2017	10:44	-132.455	44.187	0	804.80	0	3.7300	0	34.3630	0	27.313	0	796.781	0	11.5	4	3.6	4	-1E+10	1	-1E+10	1	-1E+10	1	-1E+10	1	-1E+10	1	-1E+10	1
4901784	58	C	02/04/2017	10:44	-132.455	44.187	0	810.10	0	3.7230	0	34.3650	0	27.315	0	802.018	0	11.4	4	3.6	4	-1E+10	1	-1E+10	1	-1E+10	1	-1E+10	1	-1E+10	1	-1E+10	1
4901784	58	C	02/04/2017	10:44	-132.455	44.187	0	815.40	0	3.7040	0	34.3700	0	27.321	0	807.255	0	11.4	4	3.6	4	-1E+10	1	-1E+10	1	-1E+10	1	-1E+10	1	-1E+10	1	-1E+10	1
4901784	58	C	02/04/2017	10:44	-132.455	44.187	0	820.00	0	3.6850	0	34.3750	0	27.327	0	811.800	0	11.3	4	3.6	4	-1E+10	1	-1E+10	1	-1E+10	1	-1E+10	1	-1E+10	1	-1E+10	1
4901784	58	C	02/04/2017	10:44	-132.455	44.187	0	824.60	0	3.6780	0	34.3770	0	27.329	0	816.345	0	11.3	4	3.6	4	-1E+10	1	-1E+10	1	-1E+10	1	-1E+10	1	-1E+10	1	-1E+10	1
4901784	58	C	02/04/2017	10:44	-132.455	44.187	0	830.10	0	3.6640	0	34.3800	0	27.333	0	821.779	0	11.3	4	3.5	4	-1E+10	1	-1E+10	1	-1E+10	1	-1E+10	1	-1E+10	1	-1E+10	1
4901784	58	C	02/04/2017	10:44	-132.455	44.187	0	834.80	0	3.6550	0	34.3820	0	27.335	0	826.422	0	11.3	4	3.5	4	-1E+10	1	-1E+10	1	-1E+10	1	-1E+10	1	-1E+10	1	-1E+10	1
4901784	58	C	02/04/2017	10:44	-132.455	44.187	0	839.40	0	3.6330	0	34.3870	0	27.342	0	830.967	0	11.3	4	3.5	4	-1E+10	1	-1E+10	1	-1E+10	1	-1E+10	1	-1E+10	1	-1E+10	1
4901784	58	C	02/04/2017	10:44	-132.455	44.187	0	844.90	0	3.6270	0	34.3880	0	27.343	0	836.401	0	11.3	4	3.5	4	-1E+10	1	-1E+10	1	-1E+10	1	-1E+10	1	-1E+10	1	-1E+10	1
4901784	58	C	02/04/2017	10:44	-132.455	44.187	0	850.40	0	3.6190	0	34.3900	0	27.345	0	841.835	0	11.3	4	3.5	4	-1E+10	1	-1E+10	1	-1E+10	1	-1E+10	1	-1E+10	1	-1E+10	1
4901784	58	C	02/04/2017	10:44	-132.455	44.187	0	855.00	0	3.6050	0	34.3930	0	27.349	0	846.379	0	11.3	4	3.5	4	-1E+10	1	-1E+10	1	-1E+10	1	-1E+10	1	-1E+10	1	-1E+10	1
4901784	58	C	02/04/2017	10:44	-132.455	44.187	0	859.60	0	3.5980	0	34.3950	0	27.352	0	850.923	0	11.3	4	3.5	4	-1E+10	1	-1E+10	1	-1E+10	1	-1E+10	1	-1E+10	1	-1E+10	1
4901784	58	C	02/04/2017	10:44	-132.455	44.187	0	865.20	0	3.5820	0	34.4000	0	27.357	0	856.455	0	11.4	4	3.6	4	-1E+10	1	-1E+10	1	-1E+10	1	-1E+10	1	-1E+10	1	-1E+10	1
4901784	58	C	02/04/2017	10:44	-132.455	44.187	0	870.60	0	3.5700	0	34.4030	0	27.361	0	861.789	0	11.4	4	3.6	4	-1E+10	1	-1E+10	1	-1E+10	1	-1E+10	1	-1E+10	1	-1E+10	1
4901784	58	C	02/04/2017	10:44	-132.455	44.187	0	875.50	0	3.5620	0	34.4050	0	27.363	0	866.630	0	11.4	4	3.6	4	-1E+10	1	-1E+10	1	-1E+10	1	-1E+10	1	-1E+10	1	-1E+10	1
4901784	58	C	02/04/2017	10:44	-132.455	44.187	0	880.40	0	3.5540	0	34.4070	0	27.366	0	871.470	0	11.5	4	3.6	4	-1E+10	1	-1E+10	1	-1E+10	1	-1E+10	1	-1E+10	1	-1E+10	1
4901784	58	C	02/04/2017	10:44	-132.455	44.187	0	885.30	0	3.5440	0	34.4100	0	27.369	0	876.310	0	11.5	4	3.6	4	-1E+10	1	-1E+10	1	-1E+10	1	-1E+10	1	-1E+10	1	-1E+10	1
4901784	58	C	02/04/2017	10:44	-132.455	44.187	0	890.20	0	3.5300	0	34.4130	0	27.373	0	881.150	0	11.6	4	3.6	4	-1E+10	1	-1E+10	1	-1E+10	1	-1E+10	1	-1E+10	1	-1E+10	1
4901784	58	C	02/04/2017	10:44	-132.455	44.187	0	895.20	0	3.5210	0	34.4160	0	27.376	0	886.088	0	11.7	4	3.6	4	-1E+10	1	-1E+10	1	-1E+10	1	-1E+10	1	-1E+10	1	-1E+10	1
4901784	58	C	02/04/2017	10:44	-132.455	44.187	0	900.20	0	3.5110	0	34.4180	0	27.379	0	891.027	0	11.7	4	3.7	4	-1E+10	1	-1E+10	1	-1E+10	1	-1E+10	1	-1E+10	1	-1E+10	1
4901784	58	C	02/04/2017	10:44	-132.455	44.187	0	905.40	0	3.4970	0	34.4220	0	27.383	0	896.163	0	11.8	4	3.7	4	-1E+10	1	-1E+10	1	-1E+10	1	-1E+10	1	-1E+10	1	-1E+10	1
4901784	58	C	02/04/2017	10:44	-132.455	44.187	0	910.40	0	3.4770	0	34.4280	0	27.390	0	901.101	0	12.0	4	3.7	4	-1E+10	1	-1E+10	1	-1E+10	1	-1E+10	1	-1E+10	1	-1E+10	1
4901784	58	C	02/04/2017	10:44	-132.455	44.187	0	915.50	0	3.4640	0	34.4310	0	27.394	0	906.138	0	12.0	4	3.8	4	-1E+10	1	-1E+10	1	-1E+10	1	-1E+10	1	-1E+10	1	-1E+10	1
4901784	58	C	02/04/2017	10:44	-132.455	44.187	0	920.50	0	3.4580	0	34.4320	0	27.395	0	911.076	0	12.1	4	3.8	4	-1E+10	1	-1E+10	1	-1E+10	1	-1E+10	1	-1E+10	1	-1E+10	1
4901784	58	C	02/04/2017	10:44	-132.455	44.187	0	925.60	0	3.4540	0	34.4330	0	27.396	0	916.112	0	12.1	4	3.8	4	-1E+10	1	-1E+10	1	-1E+10	1	-1E+10	1	-1E+10	1	-1E+10	1
4901784	58	C	02/04/2017	10:44	-132.455	44.187	0	930.70	0	3.4440	0	34.4360	0	27.400	0	921.149	0	12.2	4	3.8	4	-1E+10	1	-1E+10	1	-1E+10	1	-1E+10	1	-1E+10	1	-1E+10	1
4901784	58	C	02/04/2017	10:44	-132.455	44.187	0	935.00	0	3.4370	0	34.4390	0	27.403	0	925.395	0	12.3	4	3.8	4	-1E+10	1	-1E+10	1	-1E+10	1	-1E+10	1	-1E+10	1	-1E+10	1
4901784	58	C	02/04/2017	10:44	-132.455	44.187	0	939.30	0	3.4320	0	34.4400	0	27.404	0	929.642	0	12.3	4	3.8	4	-1E+10	1	-1E+10	1	-1E+10	1	-1E+10	1	-1E+10	1	-1E+10	1
4901784	58	C	02/04/2017	10:44	-132.455	44.187	0	944.60	0	3.4240	0	34.4420	0	27.406	0	934.875	0	12.4	4	3.9	4	-1E+10	1	-1E+10	1	-1E+10	1	-1E+10	1	-1E+10	1	-1E+10	1
4901784	58	C	02/04/2017	10:44	-132.455	44.187	0	949.90	0	3.4160	0	34.4440	0	27.409	0	940.109	0	12.5	4	3.9	4	-1E+10	1	-1E+10	1	-1E+10	1	-1E+10	1	-1E+10	1	-1E+10	1
4901784	58	C	02/04/2017	10:44	-132.455	44.187	0	955.20	0	3.4110	0	34.4450	0	27.410	0	945.342	0	12.6	4	3.9	4	-1E+10	1	-1E+10	1	-1E+10	1	-1E+10	1	-1E+10	1	-1E+10	1
4901784	58	C	02/04/2017	10:44	-132.455	44.187	0	960.50	0	3.3910	0	34.4510	0	27.417	0	950.575	0	12.7	4	4.0	4	-1E+10	1	-1E+10	1	-1E+10	1	-1E+10	1	-1E+10	1	-1E+10	1
4901784	58	C	02/04/2017	10:44	-132.455	44.187	0	965.00	0	3.3780	0	34.4540	0	27.420	0	955.019	0	12.8	4	4.0	4	-1E+10	1	-1E+10	1	-1E+10	1	-1E+10	1	-1E+10	1	-1E+10	1
4901784	58	C	02/04/2017	10:44	-132.455	44.187	0	969.40	0	3.3690	0	34.4560	0	27.423	0	959.363	0	12.9	4	4.0	4	-1E+10	1	-1E+10	1	-1E+10	1	-1E+10	1	-1E+10	1	-1E+10	1
4901784	58	C	02/04/2017	10:44	-132.455	44.187	0	974.80	0	3.3640	0	34.4580	0	27.425	0	964.695	0	13.0	4	4.0	4	-1E+10	1	-1E+10	1	-1E+10	1	-1E+10	1	-1E+10	1	-1E+10	1
4901784	58	C	02/04/2017	10:44	-132.455	44.187	0	980.10	0	3.3580	0	34.4590	0	27.426	0	969.928	0	13.1	4	4.1	4	-1E+10	1	-1E+10	1	-1E+10	1	-1E+10	1	-1E+10	1	-1E+10	1
4901784	58	C	02/04/2017	10:44	-132.455	44.187	0	985.50	0	3.3460	0	34.4620	0	27.430	0	975.259	0	13.3	4	4.1	4	-1E+10	1	-1E+10	1	-1E+10	1	-1E+10	1	-1E+10	1	-1E+10	1
4901784	58	C	02/04/2017	10:44	-132.455	44.187	0	990.10	0	3.3390	0	34.4650	0	27.433	0	979.800	0	13.5	4	4.2	4	-1E+10	1	-1E+10	1	-1E+10	1	-1E+10	1	-1E+10	1	-1E+10	1
4901784	58	C	02/04/2017	10:44	-132.455	44.187	0	994.60	0	3.3320	0	34.4670	0	27.435	0	984.243	0	13.7	4	4.3	4	-1E+10	1	-1E+10	1	-1E+10	1	-1E+10	1	-1E+10	1	-1E+10	1
4901784	58	C	02/04/2017	10:44	-132.455	44.187	0	1000.10	0	3.3320	0	34.4700	0	27.438	0	989.673	0	14.1	4	4.4	4	-1E+10	1	-1E+10	1	-1E+10	1	-1E+10	1	-1E+10	1	-1E+10	1
4901784	58	C	02/04/2017	10:44	-132.455	44.187	0	1005.60	0	3.3290	0	34.4740	0	27.441	0	995.102	0	14.3	4	4.4	4	-1E+10	1	-1E+10	1	-1E+10	1	-1E+10	1	-1E+10	1	-1E+10	1
4901784	58	C	02/04/2017	10:44	-132.455	44.187	0	1010.40	0	3.3280	0	34.4740	0	27.441	0	999.841	0	14.4	4	4.5	4	-1E+10	1	-1E+10	1	-1E+10	1	-1E+10	1	-1E+10	1	-1E+10	1
4901784	58	C	02/04/2017	10:44	-132.455	44.187	0	1014.80	0	3.3220	0	34.4760	0	27.444	0	1004.184	0	14.6	4	4.6	4	-1E+10	1	-1E+10	1	-1E+10	1	-1E+10	1	-1E+10	1	-1E+10	1
4901784	58	C	02/04/2017	10:44	-132.455	44.187	0	1019.60	0	3.3150	0	34.4790	0	27.447	0	1008.923	0	14.9	4	4.6	4	-1E+10	1	-1E+10	1	-1E+10	1	-1E+10	1	-1E+10	1	-1E+10	1
4901784	58	C	02/04/2017	10:44	-132.455	44.187	0	1024.40	0	3.3110	0	34.4800	0	27.448	0	1013.661	0	15.0	4	4.7	4	-1E+10	1	-1E+10	1	-1E+10	1	-1E+10	1	-1E+10	1	-1E+10	1
4901784	58	C	02/04/2017	10:44	-132.455	44.187	0	1029.30	0	3.3030	0	34.4830	0	27.451	0	1018.498	0	15.2	4	4.7	4	-1E+10	1	-1E+10	1	-1E+10	1	-1E+10	1	-1E+10	1	-1E+10	1
4901784	58	C	02/04/2017	10:44	-132.455	44.187	0	1034.30	0	3.2980	0	34.4840	0	27.452	0	1023.433	0	15.3	4	4.8	4	-1E+10	1	-1E+10	1	-1E+10	1	-1E+10	1	-1E+10	1	-1E+10	1
4901784	58	C	02/04/2017	10:44	-132.455	44.187	0	1039.30	0	3.2940	0	34.4860	0	27.454	0	1028.368	0	15.4	4	4.8	4	-1E+10	1	-1E+10	1	-1E+10	1	-1E+10	1	-1E+10	1	-1E+10	1
4901784	58	C	02/04/2017	10:44	-132.455	44.187	0	1044.20	0	3.2940	0	34.4850	0	27.454	0	1033.204	0	15.4	4	4.8	4	-1E+10	1	-1E+10	1	-1E+10	1	-1E+10	1	-1E+10	1	-1E+10	1
4901784	58	C	02/04/2017	10:44	-132.455	44.187	0	1049.30	0	3.2880	0	34.4860	0	27.455	0	1038.238	0	15.6	4	4.9	4	-1E+10	1	-1E+10	1	-1E+10	1	-1E+10	1	-1E+10	1	-1E+10	1
4901784	58	C	02/04/2017	10:44	-132.455	44.187	0	1054.40	0	3.2780	0	34.4890	0	27.458	0	1043.272	0	15.9	4	4.9	4	-1E+10	1	-1E+10	1	-1E+10	1	-1E+10	1	-1E+10	1	-1E+10	1
4901784	58	C	02/04/2017	10:44	-132.455	44.187	0	1059.60	0	3.2780	0	34.4910	0	27.460	0	1048.404	0	16.1	4	5.0	4	-1E+10	1	-1E+10	1	-1E+10	1	-1E+10	1	-1E+10	1	-1E+10	1
4901784	58	C	02/04/2017	10:44	-132.455	44.187	0	1064.70	0	3.2800	0	34.4920	0	27.461	0	1053.437	0	16.5	4	5.1	4	-1E+10	1	-1E+10	1	-1E+10	1	-1E+10	1	-1E+10	1	-1E+10	1
4901784	58	C	02/04/2017	10:44	-132.455	44.187	0	1069.90	0	3.2850	0	34.4950	0	27.463	0	1058.569	0	16.8	4	5.2	4	-1E+10	1	-1E+10	1	-1E+10	1	-1E+10	1	-1E+10	1	-1E+10	1
4901784	58	C	02/04/2017	10:44	-132.455	44.187	0	1075.00	0	3.2800	0	34.4970	0	27.465	0	1063.602	0	16.9	4	5.3	4	-1E+10	1	-1E+10	1	-1E+10	1	-1E+10	1	-1E+10	1	-1E+10	1
4901784	58	C	02/04/2017	10:44	-132.455	44.187	0	1080.10	0	3.2760	0	34.4980	0	27.466	0	1068.635	0	17.0	4	5.3	4	-1E+10	1	-1E+10	1	-1E+10	1	-1E+10	1	-1E+10	1	-1E+10	1
4901784	58	C	02/04/2017	10:44	-132.455	44.187	0	1085.20	0	3.2700	0	34.4990	0	27.467	0	1073.668	0	17.1	4	5.3	4	-1E+10	1	-1E+10	1	-1E+10	1	-1E+10	1	-1E+10	1	-1E+10	1
4901784	58	C	02/04/2017	10:44	-132.455	44.187	0	1090.50	0	3.2600	0	34.5000	0	27.469	0	1078.898	0	17.1	4	5.3	4	-1E+10	1	-1E+10	1	-1E+10	1	-1E+10	1	-1E+10	1	-1E+10	1
4901784	58	C	02/04/2017	10:44	-132.455	44.187	0	1094.90	0	3.2510	0	34.5010	0	27.471	0	1083.240	0	17.2	4	5.4	4	-1E+10	1	-1E+10	1	-1E+10	1	-1E+10	1	-1E+10	1	-1E+10	1
4901784	58	C	02/04/2017	10:44	-132.455	44.187	0	1099.30	0	3.2470	0	34.5020	0	27.472	0	1087.582	0	17.3	4	5.4	4	-1E+10	1	-1E+10	1	-1E+10	1	-1E+10	1	-1E+10	1	-1E+10	1
4901784	58	C	02/04/2017	10:44	-132.455	44.187	0	1104.60	0	3.2340	0	34.5030	0	27.474	0	1092.811	0	17.4	4	5.4	4	-1E+10	1	-1E+10	1	-1E+10	1	-1E+10	1	-1E+10	1	-1E+10	1
4901784	58	C	02/04/2017	10:44	-132.455	44.187	0	1110.60	0	3.2260	0	34.5040	0	27.476	0	1098.731	0	17.4	4	5.4	4	-1E+10	1	-1E+10	1	-1E+10	1	-1E+10	1	-1E+10	1	-1E+10	1
4901784	58	C	02/04/2017	10:44	-132.455	44.187	0	1115.20	0	3.2210	0	34.5050	0	27.477	0	1103.270	0	17.5	4	5.4	4	-1E+10	1	-1E+10	1	-1E+10	1	-1E+10	1	-1E+10	1	-1E+10	1
4901784	58	C	02/04/2017	10:44	-132.455	44.187	0	1119.80	0	3.2150	0	34.5060	0	27.478	0	1107.809	0	17.5	4	5.4	4	-1E+10	1	-1E+10	1	-1E+10	1	-1E+10	1	-1E+10	1	-1E+10	1
4901784	58	C	02/04/2017	10:44	-132.455	44.187	0	1124.70	0	3.2110	0	34.5060	0	27.479	0	1112.643	0	17.6	4	5.5	4	-1E+10	1	-1E+10	1	-1E+10	1	-1E+10	1	-1E+10	1	-1E+10	1
4901784	58	C	02/04/2017	10:44	-132.455	44.187	0	1129.60	0	3.2090	0	34.5060	0	27.479	0	1117.478	0	17.6	4	5.5	4	-1E+10	1	-1E+10	1	-1E+10	1	-1E+10	1	-1E+10	1	-1E+10	1
4901784	58	C	02/04/2017	10:44	-132.455	44.187	0	1134.60	0	3.2040	0	34.5070	0	27.480	0	1122.411	0	17.7	4	5.5	4	-1E+10	1	-1E+10	1	-1E+10	1	-1E+10	1	-1E+10	1	-1E+10	1
4901784	58	C	02/04/2017	10:44	-132.455	44.187	0	1139.60	0	3.1930	0	34.5080	0	27.482	0	1127.344	0	17.7	4	5.5	4	-1E+10	1	-1E+10	1	-1E+10	1	-1E+10	1	-1E+10	1	-1E+10	1
4901784	58	C	02/04/2017	10:44	-132.455	44.187	0	1144.60	0	3.1860	0	34.5090	0	27.484	0	1132.276	0	17.8	4	5.5	4	-1E+10	1	-1E+10	1	-1E+10	1	-1E+10	1	-1E+10	1	-1E+10	1
4901784	58	C	02/04/2017	10:44	-132.455	44.187	0	1149.60	0	3.1780	0	34.5100	0	27.485	0	1137.209	0	17.9	4	5.6	4	-1E+10	1	-1E+10	1	-1E+10	1	-1E+10	1	-1E+10	1	-1E+10	1
4901784	58	C	02/04/2017	10:44	-132.455	44.187	0	1154.60	0	3.1720	0	34.5110	0	27.486	0	1142.142	0	18.0	4	5.6	4	-1E+10	1	-1E+10	1	-1E+10	1	-1E+10	1	-1E+10	1	-1E+10	1
4901784	58	C	02/04/2017	10:44	-132.455	44.187	0	1159.70	0	3.1610	0	34.5120	0	27.488	0	1147.173	0	18.1	4	5.6	4	-1E+10	1	-1E+10	1	-1E+10	1	-1E+10	1	-1E+10	1	-1E+10	1
4901784	58	C	02/04/2017	10:44	-132.455	44.187	0	1164.80	0	3.1580	0	34.5130	0	27.489	0	1152.204	0	18.1	4	5.6	4	-1E+10	1	-1E+10	1	-1E+10	1	-1E+10	1	-1E+10	1	-1E+10	1
4901784	58	C	02/04/2017	10:44	-132.455	44.187	0	1169.90	0	3.1540	0	34.5120	0	27.489	0	1157.234	0	18.1	4	5.6	4	-1E+10	1	-1E+10	1	-1E+10	1	-1E+10	1	-1E+10	1	-1E+10	1
4901784	58	C	02/04/2017	10:44	-132.455	44.187	0	1175.10	0	3.1460	0	34.5130	0	27.491	0	1162.364	0	18.2	4	5.6	4	-1E+10	1	-1E+10	1	-1E+10	1	-1E+10	1	-1E+10	1	-1E+10	1
4901784	58	C	02/04/2017	10:44	-132.455	44.187	0	1180.20	0	3.1410	0	34.5140	0	27.492	0	1167.394	0	18.4	4	5.7	4	-1E+10	1	-1E+10	1	-1E+10	1	-1E+10	1	-1E+10	1	-1E+10	1
4901784	58	C	02/04/2017	10:44	-132.455	44.187	0	1185.50	0	3.1380	0	34.5160	0	27.494	0	1172.622	0	18.5	4	5.7	4	-1E+10	1	-1E+10	1	-1E+10	1	-1E+10	1	-1E+10	1	-1E+10	1
4901784	58	C	02/04/2017	10:44	-132.455	44.187	0	1190.60	0	3.1260	0	34.5170	0	27.496	0	1177.652	0	18.5	4	5.7	4	-1E+10	1	-1E+10	1	-1E+10	1	-1E+10	1	-1E+10	1	-1E+10	1
4901784	58	C	02/04/2017	10:44	-132.455	44.187	0	1195.80	0	3.1170	0	34.5180	0	27.497	0	1182.781	0	18.6	4	5.8	4	-1E+10	1	-1E+10	1	-1E+10	1	-1E+10	1	-1E+10	1	-1E+10	1
4901784	58	C	02/04/2017	10:44	-132.455	44.187	0	1200.00	0	3.1150	0	34.5190	0	27.498	0	1186.924	0	18.7	4	5.8	4	-1E+10	1	-1E+10	1	-1E+10	1	-1E+10	1	-1E+10	1	-1E+10	1
4901784	58	C	02/04/2017	10:44	-132.455	44.187	0	1204.40	0	3.1150	0	34.5180	0	27.498	0	1191.263	0	18.7	4	5.8	4	-1E+10	1	-1E+10	1	-1E+10	1	-1E+10	1	-1E+10	1	-1E+10	1
4901784	58	C	02/04/2017	10:44	-132.455	44.187	0	1209.60	0	3.1060	0	34.5190	0	27.499	0	1196.392	0	18.8	4	5.8	4	-1E+10	1	-1E+10	1	-1E+10	1	-1E+10	1	-1E+10	1	-1E+10	1
4901784	58	C	02/04/2017	10:44	-132.455	44.187	0	1214.80	0	3.0940	0	34.5200	0	27.501	0	1201.520	0	19.0	4	5.9	4	-1E+10	1	-1E+10	1	-1E+10	1	-1E+10	1	-1E+10	1	-1E+10	1
4901784	58	C	02/04/2017	10:44	-132.455	44.187	0	1220.00	0	3.0840	0	34.5220	0	27.504	0	1206.648	0	19.2	4	5.9	4	-1E+10	1	-1E+10	1	-1E+10	1	-1E+10	1	-1E+10	1	-1E+10	1
4901784	58	C	02/04/2017	10:44	-132.455	44.187	0	1225.40	0	3.0790	0	34.5240	0	27.506	0	1211.974	0	19.4	4	6.0	4	-1E+10	1	-1E+10	1	-1E+10	1	-1E+10	1	-1E+10	1	-1E+10	1
4901784	58	C	02/04/2017	10:44	-132.455	44.187	0	1230.70	0	3.0720	0	34.5250	0	27.507	0	1217.200	0	19.4	4	6.0	4	-1E+10	1	-1E+10	1	-1E+10	1	-1E+10	1	-1E+10	1	-1E+10	1
4901784	58	C	02/04/2017	10:44	-132.455	44.187	0	1235.00	0	3.0700	0	34.5240	0	27.507	0	1221.441	0	19.5	4	6.0	4	-1E+10	1	-1E+10	1	-1E+10	1	-1E+10	1	-1E+10	1	-1E+10	1
4901784	58	C	02/04/2017	10:44	-132.455	44.187	0	1239.40	0	3.0620	0	34.5260	0	27.509	0	1225.780	0	19.7	4	6.1	4	-1E+10	1	-1E+10	1	-1E+10	1	-1E+10	1	-1E+10	1	-1E+10	1
4901784	58	C	02/04/2017	10:44	-132.455	44.187	0	1244.30	0	3.0540	0	34.5280	0	27.511	0	1230.611	0	19.9	4	6.1	4	-1E+10	1	-1E+10	1	-1E+10	1	-1E+10	1	-1E+10	1	-1E+10	1
4901784	58	C	02/04/2017	10:44	-132.455	44.187	0	1249.30	0	3.0500	0	34.5280	0	27.512	0	1235.542	0	20.0	4	6.2	4	-1E+10	1	-1E+10	1	-1E+10	1	-1E+10	1	-1E+10	1	-1E+10	1
4901784	58	C	02/04/2017	10:44	-132.455	44.187	0	1254.20	0	3.0410	0	34.5290	0	27.513	0	1240.373	0	20.2	4	6.3	4	-1E+10	1	-1E+10	1	-1E+10	1	-1E+10	1	-1E+10	1	-1E+10	1
4901784	58	C	02/04/2017	10:44	-132.455	44.187	0	1260.00	0	3.0230	0	34.5320	0	27.518	0	1246.092	0	20.5	4	6.3	4	-1E+10	1	-1E+10	1	-1E+10	1	-1E+10	1	-1E+10	1	-1E+10	1
4901784	58	C	02/04/2017	10:44	-132.455	44.187	0	1265.70	0	3.0180	0	34.5330	0	27.519	0	1251.712	0	20.7	4	6.4	4	-1E+10	1	-1E+10	1	-1E+10	1	-1E+10	1	-1E+10	1	-1E+10	1
4901784	58	C	02/04/2017	10:44	-132.455	44.187	0	1270.70	0	3.0120	0	34.5340	0	27.520	0	1256.642	0	21.0	4	6.5	4	-1E+10	1	-1E+10	1	-1E+10	1	-1E+10	1	-1E+10	1	-1E+10	1
4901784	58	C	02/04/2017	10:44	-132.455	44.187	0	1275.70	0	3.0060	0	34.5360	0	27.522	0	1261.572	0	21.2	4	6.6	4	-1E+10	1	-1E+10	1	-1E+10	1	-1E+10	1	-1E+10	1	-1E+10	1
4901784	58	C	02/04/2017	10:44	-132.455	44.187	0	1280.70	0	2.9930	0	34.5390	0	27.526	0	1266.501	0	21.5	4	6.6	4	-1E+10	1	-1E+10	1	-1E+10	1	-1E+10	1	-1E+10	1	-1E+10	1
4901784	58	C	02/04/2017	10:44	-132.455	44.187	0	1285.70	0	2.9860	0	34.5400	0	27.527	0	1271.431	0	21.6	4	6.7	4	-1E+10	1	-1E+10	1	-1E+10	1	-1E+10	1	-1E+10	1	-1E+10	1
4901784	58	C	02/04/2017	10:44	-132.455	44.187	0	1290.80	0	2.9810	0	34.5410	0	27.529	0	1276.459	0	21.8	4	6.7	4	-1E+10	1	-1E+10	1	-1E+10	1	-1E+10	1	-1E+10	1	-1E+10	1
4901784	58	C	02/04/2017	10:44	-132.455	44.187	0	1295.10	0	2.9770	0	34.5420	0	27.530	0	1280.698	0	22.0	4	6.8	4	-1E+10	1	-1E+10	1	-1E+10	1	-1E+10	1	-1E+10	1	-1E+10	1
4901784	58	C	02/04/2017	10:44	-132.455	44.187	0	1299.30	0	2.9730	0	34.5420	0	27.530	0	1284.839	0	22.1	4	6.8	4	-1E+10	1	-1E+10	1	-1E+10	1	-1E+10	1	-1E+10	1	-1E+10	1
4901784	58	C	02/04/2017	10:44	-132.455	44.187	0	1304.40	0	2.9670	0	34.5440	0	27.532	0	1289.866	0	22.4	4	6.9	4	-1E+10	1	-1E+10	1	-1E+10	1	-1E+10	1	-1E+10	1	-1E+10	1
4901784	58	C	02/04/2017	10:44	-132.455	44.187	0	1309.50	0	2.9590	0	34.5450	0	27.534	0	1294.894	0	22.7	4	7.0	4	-1E+10	1	-1E+10	1	-1E+10	1	-1E+10	1	-1E+10	1	-1E+10	1
4901784	58	C	02/04/2017	10:44	-132.455	44.187	0	1314.70	0	2.9610	0	34.5460	0	27.535	0	1300.020	0	23.0	4	7.1	4	-1E+10	1	-1E+10	1	-1E+10	1	-1E+10	1	-1E+10	1	-1E+10	1
4901784	58	C	02/04/2017	10:44	-132.455	44.187	0	1319.90	0	2.9520	0	34.5490	0	27.538	0	1305.146	0	23.3	4	7.2	4	-1E+10	1	-1E+10	1	-1E+10	1	-1E+10	1	-1E+10	1	-1E+10	1
4901784	58	C	02/04/2017	10:44	-132.455	44.187	0	1325.10	0	2.9440	0	34.5500	0	27.539	0	1310.271	0	23.5	4	7.2	4	-1E+10	1	-1E+10	1	-1E+10	1	-1E+10	1	-1E+10	1	-1E+10	1
4901784	58	C	02/04/2017	10:44	-132.455	44.187	0	1330.30	0	2.9390	0	34.5520	0	27.541	0	1315.397	0	23.6	4	7.3	4	-1E+10	1	-1E+10	1	-1E+10	1	-1E+10	1	-1E+10	1	-1E+10	1
4901784	58	C	02/04/2017	10:44	-132.455	44.187	0	1335.60	0	2.9340	0	34.5520	0	27.542	0	1320.621	0	23.7	4	7.3	4	-1E+10	1	-1E+10	1	-1E+10	1	-1E+10	1	-1E+10	1	-1E+10	1
4901784	58	C	02/04/2017	10:44	-132.455	44.187	0	1339.90	0	2.9250	0	34.5530	0	27.544	0	1324.859	0	23.9	4	7.4	4	-1E+10	1	-1E+10	1	-1E+10	1	-1E+10	1	-1E+10	1	-1E+10	1
4901784	58	C	02/04/2017	10:44	-132.455	44.187	0	1344.40	0	2.9220	0	34.5540	0	27.545	0	1329.294	0	24.1	4	7.4	4	-1E+10	1	-1E+10	1	-1E+10	1	-1E+10	1	-1E+10	1	-1E+10	1
4901784	58	C	02/04/2017	10:44	-132.455	44.187	0	1349.80	0	2.9130	0	34.5550	0	27.546	0	1334.617	0	24.3	4	7.5	4	-1E+10	1	-1E+10	1	-1E+10	1	-1E+10	1	-1E+10	1	-1E+10	1
4901784	58	C	02/04/2017	10:44	-132.455	44.187	0	1355.10	0	2.9070	0	34.5560	0	27.548	0	1339.840	0	24.5	4	7.5	4	-1E+10	1	-1E+10	1	-1E+10	1	-1E+10	1	-1E+10	1	-1E+10	1
4901784	58	C	02/04/2017	10:44	-132.455	44.187	0	1360.40	0	2.8980	0	34.5570	0	27.549	0	1345.064	0	24.7	4	7.6	4	-1E+10	1	-1E+10	1	-1E+10	1	-1E+10	1	-1E+10	1	-1E+10	1
4901784	58	C	02/04/2017	10:44	-132.455	44.187	0	1365.70	0	2.8850	0	34.5580	0	27.551	0	1350.287	0	24.8	4	7.7	4	-1E+10	1	-1E+10	1	-1E+10	1	-1E+10	1	-1E+10	1	-1E+10	1
4901784	58	C	02/04/2017	10:44	-132.455	44.187	0	1370.20	0	2.8820	0	34.5590	0	27.552	0	1354.722	0	24.9	4	7.7	4	-1E+10	1	-1E+10	1	-1E+10	1	-1E+10	1	-1E+10	1	-1E+10	1
4901784	58	C	02/04/2017	10:44	-132.455	44.187	0	1374.70	0	2.8720	0	34.5590	0	27.553	0	1359.156	0	25.0	4	7.7	4	-1E+10	1	-1E+10	1	-1E+10	1	-1E+10	1	-1E+10	1	-1E+10	1
4901784	58	C	02/04/2017	10:44	-132.455	44.187	0	1380.30	0	2.8580	0	34.5600	0	27.555	0	1364.675	0	25.1	4	7.7	4	-1E+10	1	-1E+10	1	-1E+10	1	-1E+10	1	-1E+10	1	-1E+10	1
4901784	58	C	02/04/2017	10:44	-132.455	44.187	0	1384.80	0	2.8510	0	34.5600	0	27.556	0	1369.109	0	25.1	4	7.7	4	-1E+10	1	-1E+10	1	-1E+10	1	-1E+10	1	-1E+10	1	-1E+10	1
4901784	58	C	02/04/2017	10:44	-132.455	44.187	0	1389.40	0	2.8450	0	34.5600	0	27.557	0	1373.642	0	25.2	4	7.8	4	-1E+10	1	-1E+10	1	-1E+10	1	-1E+10	1	-1E+10	1	-1E+10	1
4901784	58	C	02/04/2017	10:44	-132.455	44.187	0	1394.90	0	2.8350	0	34.5610	0	27.558	0	1379.062	0	25.3	4	7.8	4	-1E+10	1	-1E+10	1	-1E+10	1	-1E+10	1	-1E+10	1	-1E+10	1
4901784	58	C	02/04/2017	10:44	-132.455	44.187	0	1400.40	0	2.8240	0	34.5610	0	27.559	0	1384.482	0	25.4	4	7.8	4	-1E+10	1	-1E+10	1	-1E+10	1	-1E+10	1	-1E+10	1	-1E+10	1
4901784	58	C	02/04/2017	10:44	-132.455	44.187	0	1405.00	0	2.8120	0	34.5620	0	27.561	0	1389.014	0	25.4	4	7.8	4	-1E+10	1	-1E+10	1	-1E+10	1	-1E+10	1	-1E+10	1	-1E+10	1
4901784	58	C	02/04/2017	10:44	-132.455	44.187	0	1409.60	0	2.7990	0	34.5620	0	27.562	0	1393.547	0	25.1	4	7.7	4	-1E+10	1	-1E+10	1	-1E+10	1	-1E+10	1	-1E+10	1	-1E+10	1
4901784	58	C	02/04/2017	10:44	-132.455	44.187	0	1415.20	0	2.7750	0	34.5600	0	27.563	0	1399.064	0	25.0	4	7.7	4	-1E+10	1	-1E+10	1	-1E+10	1	-1E+10	1	-1E+10	1	-1E+10	1
4901784	58	C	02/04/2017	10:44	-132.455	44.187	0	1419.80	0	2.7630	0	34.5600	0	27.564	0	1403.597	0	24.9	4	7.7	4	-1E+10	1	-1E+10	1	-1E+10	1	-1E+10	1	-1E+10	1	-1E+10	1
4901784	58	C	02/04/2017	10:44	-132.455	44.187	0	1424.30	0	2.7460	0	34.5610	0	27.566	0	1408.030	0	25.0	4	7.7	4	-1E+10	1	-1E+10	1	-1E+10	1	-1E+10	1	-1E+10	1	-1E+10	1
4901784	58	C	02/04/2017	10:44	-132.455	44.187	0	1429.60	0	2.7220	0	34.5610	0	27.568	0	1413.252	0	25.1	4	7.7	4	-1E+10	1	-1E+10	1	-1E+10	1	-1E+10	1	-1E+10	1	-1E+10	1
4901784	58	C	02/04/2017	10:44	-132.455	44.187	0	1434.50	0	2.7110	0	34.5620	0	27.570	0	1418.079	0	25.2	4	7.7	4	-1E+10	1	-1E+10	1	-1E+10	1	-1E+10	1	-1E+10	1	-1E+10	1
4901784	58	C	02/04/2017	10:44	-132.455	44.187	0	1440.10	0	2.6970	0	34.5620	0	27.571	0	1423.596	0	25.3	4	7.8	4	-1E+10	1	-1E+10	1	-1E+10	1	-1E+10	1	-1E+10	1	-1E+10	1
4901784	58	C	02/04/2017	10:44	-132.455	44.187	0	1445.70	0	2.6880	0	34.5620	0	27.572	0	1429.113	0	25.4	4	7.8	4	-1E+10	1	-1E+10	1	-1E+10	1	-1E+10	1	-1E+10	1	-1E+10	1
4901784	58	C	02/04/2017	10:44	-132.455	44.187	0	1450.60	0	2.6630	0	34.5630	0	27.575	0	1433.940	0	25.5	4	7.8	4	-1E+10	1	-1E+10	1	-1E+10	1	-1E+10	1	-1E+10	1	-1E+10	1
4901784	58	C	02/04/2017	10:44	-132.455	44.187	0	1455.50	0	2.6450	0	34.5640	0	27.577	0	1438.767	0	25.5	4	7.8	4	-1E+10	1	-1E+10	1	-1E+10	1	-1E+10	1	-1E+10	1	-1E+10	1
4901784	58	C	02/04/2017	10:44	-132.455	44.187	0	1460.60	0	2.6410	0	34.5640	0	27.578	0	1443.791	0	25.6	4	7.8	4	-1E+10	1	-1E+10	1	-1E+10	1	-1E+10	1	-1E+10	1	-1E+10	1
4901784	58	C	02/04/2017	10:44	-132.455	44.187	0	1465.70	0	2.6370	0	34.5640	0	27.578	0	1448.815	0	25.7	4	7.9	4	-1E+10	1	-1E+10	1	-1E+10	1	-1E+10	1	-1E+10	1	-1E+10	1
4901784	58	C	02/04/2017	10:44	-132.455	44.187	0	1470.10	0	2.6350	0	34.5650	0	27.579	0	1453.149	0	25.8	4	7.9	4	-1E+10	1	-1E+10	1	-1E+10	1	-1E+10	1	-1E+10	1	-1E+10	1
4901784	58	C	02/04/2017	10:44	-132.455	44.187	0	1474.40	0	2.6280	0	34.5650	0	27.580	0	1457.385	0	26.0	4	8.0	4	-1E+10	1	-1E+10	1	-1E+10	1	-1E+10	1	-1E+10	1	-1E+10	1
4901784	58	C	02/04/2017	10:44	-132.455	44.187	0	1479.60	0	2.6140	0	34.5650	0	27.581	0	1462.507	0	26.3	4	8.0	4	-1E+10	1	-1E+10	1	-1E+10	1	-1E+10	1	-1E+10	1	-1E+10	1
4901784	58	C	02/04/2017	10:44	-132.455	44.187	0	1484.80	0	2.5920	0	34.5670	0	27.585	0	1467.629	0	26.6	4	8.1	4	-1E+10	1	-1E+10	1	-1E+10	1	-1E+10	1	-1E+10	1	-1E+10	1
4901784	58	C	02/04/2017	10:44	-132.455	44.187	0	1490.00	0	2.5810	0	34.5680	0	27.586	0	1472.751	0	26.8	4	8.2	4	-1E+10	1	-1E+10	1	-1E+10	1	-1E+10	1	-1E+10	1	-1E+10	1
4901784	58	C	02/04/2017	10:44	-132.455	44.187	0	1495.30	0	2.5730	0	34.5680	0	27.587	0	1477.971	0	27.1	4	8.3	4	-1E+10	1	-1E+10	1	-1E+10	1	-1E+10	1	-1E+10	1	-1E+10	1
4901784	58	C	02/04/2017	10:44	-132.455	44.187	0	1500.50	0	2.5550	0	34.5700	0	27.590	0	1483.092	0	27.4	4	8.4	4	-1E+10	1	-1E+10	1	-1E+10	1	-1E+10	1	-1E+10	1	-1E+10	1
4901784	58	C	02/04/2017	10:44	-132.455	44.187	0	1504.90	0	2.5390	0	34.5710	0	27.592	0	1487.426	0	27.7	4	8.5	4	-1E+10	1	-1E+10	1	-1E+10	1	-1E+10	1	-1E+10	1	-1E+10	1
4901784	58	C	02/04/2017	10:44	-132.455	44.187	0	1509.30	0	2.5290	0	34.5720	0	27.594	0	1491.759	0	27.9	4	8.5	4	-1E+10	1	-1E+10	1	-1E+10	1	-1E+10	1	-1E+10	1	-1E+10	1
4901784	58	C	02/04/2017	10:44	-132.455	44.187	0	1514.60	0	2.5140	0	34.5740	0	27.597	0	1496.979	0	28.2	4	8.6	4	-1E+10	1	-1E+10	1	-1E+10	1	-1E+10	1	-1E+10	1	-1E+10	1
4901784	58	C	02/04/2017	10:44	-132.455	44.187	0	1519.90	0	2.5110	0	34.5740	0	27.597	0	1502.198	0	28.3	4	8.6	4	-1E+10	1	-1E+10	1	-1E+10	1	-1E+10	1	-1E+10	1	-1E+10	1
4901784	58	C	02/04/2017	10:44	-132.455	44.187	0	1525.30	0	2.5060	0	34.5740	0	27.598	0	1507.516	0	28.5	4	8.7	4	-1E+10	1	-1E+10	1	-1E+10	1	-1E+10	1	-1E+10	1	-1E+10	1
4901784	58	C	02/04/2017	10:44	-132.455	44.187	0	1529.80	0	2.4980	0	34.5750	0	27.599	0	1511.948	0	28.8	4	8.8	4	-1E+10	1	-1E+10	1	-1E+10	1	-1E+10	1	-1E+10	1	-1E+10	1
4901784	58	C	02/04/2017	10:44	-132.455	44.187	0	1534.30	0	2.4920	0	34.5750	0	27.600	0	1516.379	0	29.1	4	8.9	4	-1E+10	1	-1E+10	1	-1E+10	1	-1E+10	1	-1E+10	1	-1E+10	1
4901784	58	C	02/04/2017	10:44	-132.455	44.187	0	1539.70	0	2.4710	0	34.5770	0	27.603	0	1521.696	0	29.5	4	9.0	4	-1E+10	1	-1E+10	1	-1E+10	1	-1E+10	1	-1E+10	1	-1E+10	1
4901784	58	C	02/04/2017	10:44	-132.455	44.187	0	1545.10	0	2.4540	0	34.5790	0	27.606	0	1527.014	0	29.7	4	9.1	4	-1E+10	1	-1E+10	1	-1E+10	1	-1E+10	1	-1E+10	1	-1E+10	1
4901784	58	C	02/04/2017	10:44	-132.455	44.187	0	1550.50	0	2.4510	0	34.5790	0	27.606	0	1532.331	0	29.9	4	9.1	4	-1E+10	1	-1E+10	1	-1E+10	1	-1E+10	1	-1E+10	1	-1E+10	1
4901784	58	C	02/04/2017	10:44	-132.455	44.187	0	1555.00	0	2.4470	0	34.5790	0	27.607	0	1536.762	0	30.1	4	9.2	4	-1E+10	1	-1E+10	1	-1E+10	1	-1E+10	1	-1E+10	1	-1E+10	1
4901784	58	C	02/04/2017	10:44	-132.455	44.187	0	1559.50	0	2.4360	0	34.5800	0	27.608	0	1541.193	0	30.5	4	9.3	4	-1E+10	1	-1E+10	1	-1E+10	1	-1E+10	1	-1E+10	1	-1E+10	1
4901784	58	C	02/04/2017	10:44	-132.455	44.187	0	1565.10	0	2.4200	0	34.5820	0	27.611	0	1546.707	0	30.9	4	9.4	4	-1E+10	1	-1E+10	1	-1E+10	1	-1E+10	1	-1E+10	1	-1E+10	1
4901784	58	C	02/04/2017	10:44	-132.455	44.187	0	1570.60	0	2.4100	0	34.5830	0	27.613	0	1552.122	0	31.3	4	9.5	4	-1E+10	1	-1E+10	1	-1E+10	1	-1E+10	1	-1E+10	1	-1E+10	1
4901784	58	C	02/04/2017	10:44	-132.455	44.187	0	1575.20	0	2.4010	0	34.5840	0	27.615	0	1556.651	0	31.6	4	9.6	4	-1E+10	1	-1E+10	1	-1E+10	1	-1E+10	1	-1E+10	1	-1E+10	1
4901784	58	C	02/04/2017	10:44	-132.455	44.187	0	1579.80	0	2.3870	0	34.5850	0	27.617	0	1561.180	0	32.0	4	9.7	4	-1E+10	1	-1E+10	1	-1E+10	1	-1E+10	1	-1E+10	1	-1E+10	1
4901784	58	C	02/04/2017	10:44	-132.455	44.187	0	1585.40	0	2.3720	0	34.5870	0	27.619	0	1566.693	0	32.4	4	9.8	4	-1E+10	1	-1E+10	1	-1E+10	1	-1E+10	1	-1E+10	1	-1E+10	1
4901784	58	C	02/04/2017	10:44	-132.455	44.187	0	1590.10	0	2.3700	0	34.5870	0	27.620	0	1571.320	0	32.6	4	9.9	4	-1E+10	1	-1E+10	1	-1E+10	1	-1E+10	1	-1E+10	1	-1E+10	1
4901784	58	C	02/04/2017	10:44	-132.455	44.187	0	1594.80	0	2.3640	0	34.5880	0	27.621	0	1575.947	0	32.9	4	10.0	4	-1E+10	1	-1E+10	1	-1E+10	1	-1E+10	1	-1E+10	1	-1E+10	1
4901784	58	C	02/04/2017	10:44	-132.455	44.187	0	1600.50	0	2.3520	0	34.5890	0	27.623	0	1581.558	0	33.3	4	10.1	4	-1E+10	1	-1E+10	1	-1E+10	1	-1E+10	1	-1E+10	1	-1E+10	1
4901784	58	C	02/04/2017	10:44	-132.455	44.187	0	1604.60	0	2.3410	0	34.5910	0	27.625	0	1585.595	0	33.6	4	10.2	4	-1E+10	1	-1E+10	1	-1E+10	1	-1E+10	1	-1E+10	1	-1E+10	1
4901784	58	C	02/04/2017	10:44	-132.455	44.187	0	1609.50	0	2.3340	0	34.5920	0	27.627	0	1590.418	0	33.9	4	10.3	4	-1E+10	1	-1E+10	1	-1E+10	1	-1E+10	1	-1E+10	1	-1E+10	1
4901784	58	C	02/04/2017	10:44	-132.455	44.187	0	1614.40	0	2.3260	0	34.5920	0	27.627	0	1595.242	0	34.3	4	10.4	4	-1E+10	1	-1E+10	1	-1E+10	1	-1E+10	1	-1E+10	1	-1E+10	1
4901784	58	C	02/04/2017	10:44	-132.455	44.187	0	1619.30	0	2.3170	0	34.5940	0	27.630	0	1600.065	0	34.7	4	10.5	4	-1E+10	1	-1E+10	1	-1E+10	1	-1E+10	1	-1E+10	1	-1E+10	1
4901784	58	C	02/04/2017	10:44	-132.455	44.187	0	1625.00	0	2.3080	0	34.5950	0	27.631	0	1605.676	0	35.1	4	10.7	4	-1E+10	1	-1E+10	1	-1E+10	1	-1E+10	1	-1E+10	1	-1E+10	1
4901784	58	C	02/04/2017	10:44	-132.455	44.187	0	1630.70	0	2.3000	0	34.5960	0	27.633	0	1611.286	0	35.5	4	10.8	4	-1E+10	1	-1E+10	1	-1E+10	1	-1E+10	1	-1E+10	1	-1E+10	1
4901784	58	C	02/04/2017	10:44	-132.455	44.187	0	1635.70	0	2.2890	0	34.5970	0	27.635	0	1616.208	0	36.0	4	10.9	4	-1E+10	1	-1E+10	1	-1E+10	1	-1E+10	1	-1E+10	1	-1E+10	1
4901784	58	C	02/04/2017	10:44	-132.455	44.187	0	1640.60	0	2.2800	0	34.5990	0	27.637	0	1621.030	0	36.4	4	11.1	4	-1E+10	1	-1E+10	1	-1E+10	1	-1E+10	1	-1E+10	1	-1E+10	1
4901784	58	C	02/04/2017	10:44	-132.455	44.187	0	1645.60	0	2.2780	0	34.6010	0	27.639	0	1625.952	0	36.7	4	11.2	4	-1E+10	1	-1E+10	1	-1E+10	1	-1E+10	1	-1E+10	1	-1E+10	1
4901784	58	C	02/04/2017	10:44	-132.455	44.187	0	1650.60	0	2.2760	0	34.6020	0	27.640	0	1630.873	0	37.0	4	11.2	4	-1E+10	1	-1E+10	1	-1E+10	1	-1E+10	1	-1E+10	1	-1E+10	1
4901784	58	C	02/04/2017	10:44	-132.455	44.187	0	1655.70	0	2.2720	0	34.6020	0	27.640	0	1635.892	0	37.5	4	11.4	4	-1E+10	1	-1E+10	1	-1E+10	1	-1E+10	1	-1E+10	1	-1E+10	1
4901784	58	C	02/04/2017	10:44	-132.455	44.187	0	1660.00	0	2.2640	0	34.6040	0	27.642	0	1640.124	0	37.9	4	11.5	4	-1E+10	1	-1E+10	1	-1E+10	1	-1E+10	1	-1E+10	1	-1E+10	1
4901784	58	C	02/04/2017	10:44	-132.455	44.187	0	1664.30	0	2.2570	0	34.6060	0	27.644	0	1644.356	0	38.1	4	11.6	4	-1E+10	1	-1E+10	1	-1E+10	1	-1E+10	1	-1E+10	1	-1E+10	1
4901784	58	C	02/04/2017	10:44	-132.455	44.187	0	1669.40	0	2.2510	0	34.6060	0	27.645	0	1649.375	0	38.4	4	11.7	4	-1E+10	1	-1E+10	1	-1E+10	1	-1E+10	1	-1E+10	1	-1E+10	1
4901784	58	C	02/04/2017	10:44	-132.455	44.187	0	1674.60	0	2.2440	0	34.6070	0	27.646	0	1654.492	0	38.6	4	11.7	4	-1E+10	1	-1E+10	1	-1E+10	1	-1E+10	1	-1E+10	1	-1E+10	1
4901784	58	C	02/04/2017	10:44	-132.455	44.187	0	1679.80	0	2.2410	0	34.6070	0	27.647	0	1659.610	0	38.9	4	11.8	4	-1E+10	1	-1E+10	1	-1E+10	1	-1E+10	1	-1E+10	1	-1E+10	1
4901784	58	C	02/04/2017	10:44	-132.455	44.187	0	1685.10	0	2.2360	0	34.6080	0	27.648	0	1664.825	0	39.1	4	11.9	4	-1E+10	1	-1E+10	1	-1E+10	1	-1E+10	1	-1E+10	1	-1E+10	1
4901784	58	C	02/04/2017	10:44	-132.455	44.187	0	1690.40	0	2.2310	0	34.6080	0	27.648	0	1670.040	0	39.4	4	11.9	4	-1E+10	1	-1E+10	1	-1E+10	1	-1E+10	1	-1E+10	1	-1E+10	1
4901784	58	C	02/04/2017	10:44	-132.455	44.187	0	1695.60	0	2.2260	0	34.6080	0	27.649	0	1675.157	0	39.9	4	12.1	4	-1E+10	1	-1E+10	1	-1E+10	1	-1E+10	1	-1E+10	1	-1E+10	1
4901784	58	C	02/04/2017	10:44	-132.455	44.187	0	1700.00	0	2.2120	0	34.6100	0	27.651	0	1679.487	0	40.3	4	12.2	4	-1E+10	1	-1E+10	1	-1E+10	1	-1E+10	1	-1E+10	1	-1E+10	1
4901784	58	C	02/04/2017	10:44	-132.455	44.187	0	1704.40	0	2.2070	0	34.6110	0	27.653	0	1683.816	0	40.5	4	12.3	4	-1E+10	1	-1E+10	1	-1E+10	1	-1E+10	1	-1E+10	1	-1E+10	1
4901784	58	C	02/04/2017	10:44	-132.455	44.187	0	1709.70	0	2.2000	0	34.6120	0	27.654	0	1689.031	0	41.0	4	12.4	4	-1E+10	1	-1E+10	1	-1E+10	1	-1E+10	1	-1E+10	1	-1E+10	1
4901784	58	C	02/04/2017	10:44	-132.455	44.187	0	1715.00	0	2.1890	0	34.6130	0	27.656	0	1694.246	0	41.4	4	12.5	4	-1E+10	1	-1E+10	1	-1E+10	1	-1E+10	1	-1E+10	1	-1E+10	1
4901784	58	C	02/04/2017	10:44	-132.455	44.187	0	1720.40	0	2.1810	0	34.6140	0	27.657	0	1699.559	0	41.7	4	12.6	4	-1E+10	1	-1E+10	1	-1E+10	1	-1E+10	1	-1E+10	1	-1E+10	1
4901784	58	C	02/04/2017	10:44	-132.455	44.187	0	1724.80	0	2.1750	0	34.6140	0	27.658	0	1703.888	0	42.0	4	12.7	4	-1E+10	1	-1E+10	1	-1E+10	1	-1E+10	1	-1E+10	1	-1E+10	1
4901784	58	C	02/04/2017	10:44	-132.455	44.187	0	1729.40	0	2.1700	0	34.6150	0	27.659	0	1708.414	0	42.3	4	12.8	4	-1E+10	1	-1E+10	1	-1E+10	1	-1E+10	1	-1E+10	1	-1E+10	1
4901784	58	C	02/04/2017	10:44	-132.455	44.187	0	1734.80	0	2.1670	0	34.6160	0	27.660	0	1713.726	0	42.6	4	12.9	4	-1E+10	1	-1E+10	1	-1E+10	1	-1E+10	1	-1E+10	1	-1E+10	1
4901784	58	C	02/04/2017	10:44	-132.455	44.187	0	1740.30	0	2.1620	0	34.6170	0	27.661	0	1719.137	0	43.1	4	13.0	4	-1E+10	1	-1E+10	1	-1E+10	1	-1E+10	1	-1E+10	1	-1E+10	1
4901784	58	C	02/04/2017	10:44	-132.455	44.187	0	1744.80	0	2.1570	0	34.6180	0	27.663	0	1723.564	0	43.4	4	13.1	4	-1E+10	1	-1E+10	1	-1E+10	1	-1E+10	1	-1E+10	1	-1E+10	1
4901784	58	C	02/04/2017	10:44	-132.455	44.187	0	1749.20	0	2.1470	0	34.6190	0	27.664	0	1727.893	0	43.8	4	13.3	4	-1E+10	1	-1E+10	1	-1E+10	1	-1E+10	1	-1E+10	1	-1E+10	1
4901784	58	C	02/04/2017	10:44	-132.455	44.187	0	1754.50	0	2.1420	0	34.6200	0	27.665	0	1733.107	0	44.1	4	13.3	4	-1E+10	1	-1E+10	1	-1E+10	1	-1E+10	1	-1E+10	1	-1E+10	1
4901784	58	C	02/04/2017	10:44	-132.455	44.187	0	1759.30	0	2.1390	0	34.6210	0	27.666	0	1737.828	0	44.5	4	13.5	4	-1E+10	1	-1E+10	1	-1E+10	1	-1E+10	1	-1E+10	1	-1E+10	1
4901784	58	C	02/04/2017	10:44	-132.455	44.187	0	1764.90	0	2.1310	0	34.6220	0	27.668	0	1743.337	0	45.0	4	13.6	4	-1E+10	1	-1E+10	1	-1E+10	1	-1E+10	1	-1E+10	1	-1E+10	1
4901784	58	C	02/04/2017	10:44	-132.455	44.187	0	1770.60	0	2.1240	0	34.6230	0	27.669	0	1748.944	0	45.4	4	13.7	4	-1E+10	1	-1E+10	1	-1E+10	1	-1E+10	1	-1E+10	1	-1E+10	1
4901784	58	C	02/04/2017	10:44	-132.455	44.187	0	1775.50	0	2.1200	0	34.6240	0	27.670	0	1753.764	0	45.8	4	13.9	4	-1E+10	1	-1E+10	1	-1E+10	1	-1E+10	1	-1E+10	1	-1E+10	1
4901784	58	C	02/04/2017	10:44	-132.455	44.187	0	1780.40	0	2.1160	0	34.6250	0	27.672	0	1758.584	0	46.2	4	14.0	4	-1E+10	1	-1E+10	1	-1E+10	1	-1E+10	1	-1E+10	1	-1E+10	1
4901784	58	C	02/04/2017	10:44	-132.455	44.187	0	1785.40	0	2.1110	0	34.6260	0	27.673	0	1763.502	0	46.5	4	14.1	4	-1E+10	1	-1E+10	1	-1E+10	1	-1E+10	1	-1E+10	1	-1E+10	1
4901784	58	C	02/04/2017	10:44	-132.455	44.187	0	1790.30	0	2.1060	0	34.6270	0	27.674	0	1768.321	0	46.8	4	14.1	4	-1E+10	1	-1E+10	1	-1E+10	1	-1E+10	1	-1E+10	1	-1E+10	1
4901784	58	C	02/04/2017	10:44	-132.455	44.187	0	1795.30	0	2.1000	0	34.6270	0	27.675	0	1773.239	0	46.9	4	14.2	4	-1E+10	1	-1E+10	1	-1E+10	1	-1E+10	1	-1E+10	1	-1E+10	1
4901784	58	C	02/04/2017	10:44	-132.455	44.187	0	1800.30	0	2.0930	0	34.6270	0	27.675	0	1778.157	0	47.0	4	14.2	4	-1E+10	1	-1E+10	1	-1E+10	1	-1E+10	1	-1E+10	1	-1E+10	1
4901784	58	C	02/04/2017	10:44	-132.455	44.187	0	1805.40	0	2.0880	0	34.6280	0	27.676	0	1783.172	0	47.3	4	14.3	4	-1E+10	1	-1E+10	1	-1E+10	1	-1E+10	1	-1E+10	1	-1E+10	1
4901784	58	C	02/04/2017	10:44	-132.455	44.187	0	1810.50	0	2.0820	0	34.6280	0	27.677	0	1788.188	0	47.5	4	14.4	4	-1E+10	1	-1E+10	1	-1E+10	1	-1E+10	1	-1E+10	1	-1E+10	1
4901784	58	C	02/04/2017	10:44	-132.455	44.187	0	1815.70	0	2.0780	0	34.6290	0	27.678	0	1793.302	0	47.8	4	14.4	4	-1E+10	1	-1E+10	1	-1E+10	1	-1E+10	1	-1E+10	1	-1E+10	1
4901784	58	C	02/04/2017	10:44	-132.455	44.187	0	1820.00	0	2.0740	0	34.6290	0	27.678	0	1797.531	0	48.0	4	14.5	4	-1E+10	1	-1E+10	1	-1E+10	1	-1E+10	1	-1E+10	1	-1E+10	1
4901784	58	C	02/04/2017	10:44	-132.455	44.187	0	1824.20	0	2.0730	0	34.6300	0	27.679	0	1801.661	0	48.2	4	14.6	4	-1E+10	1	-1E+10	1	-1E+10	1	-1E+10	1	-1E+10	1	-1E+10	1
4901784	58	C	02/04/2017	10:44	-132.455	44.187	0	1829.40	0	2.0680	0	34.6300	0	27.680	0	1806.775	0	48.5	4	14.7	4	-1E+10	1	-1E+10	1	-1E+10	1	-1E+10	1	-1E+10	1	-1E+10	1
4901784	58	C	02/04/2017	10:44	-132.455	44.187	0	1834.50	0	2.0620	0	34.6310	0	27.681	0	1811.790	0	48.9	4	14.8	4	-1E+10	1	-1E+10	1	-1E+10	1	-1E+10	1	-1E+10	1	-1E+10	1
4901784	58	C	02/04/2017	10:44	-132.455	44.187	0	1839.70	0	2.0580	0	34.6320	0	27.682	0	1816.903	0	49.1	4	14.8	4	-1E+10	1	-1E+10	1	-1E+10	1	-1E+10	1	-1E+10	1	-1E+10	1
4901784	58	C	02/04/2017	10:44	-132.455	44.187	0	1844.90	0	2.0530	0	34.6320	0	27.683	0	1822.017	0	49.5	4	14.9	4	-1E+10	1	-1E+10	1	-1E+10	1	-1E+10	1	-1E+10	1	-1E+10	1
4901784	58	C	02/04/2017	10:44	-132.455	44.187	0	1850.10	0	2.0480	0	34.6330	0	27.684	0	1827.130	0	49.7	4	15.0	4	-1E+10	1	-1E+10	1	-1E+10	1	-1E+10	1	-1E+10	1	-1E+10	1
4901784	58	C	02/04/2017	10:44	-132.455	44.187	0	1855.30	0	2.0470	0	34.6340	0	27.685	0	1832.243	0	49.9	4	15.1	4	-1E+10	1	-1E+10	1	-1E+10	1	-1E+10	1	-1E+10	1	-1E+10	1
4901784	58	C	02/04/2017	10:44	-132.455	44.187	0	1860.60	0	2.0420	0	34.6340	0	27.685	0	1837.454	0	50.2	4	15.2	4	-1E+10	1	-1E+10	1	-1E+10	1	-1E+10	1	-1E+10	1	-1E+10	1
4901784	58	C	02/04/2017	10:44	-132.455	44.187	0	1865.00	0	2.0380	0	34.6350	0	27.686	0	1841.780	0	50.5	4	15.3	4	-1E+10	1	-1E+10	1	-1E+10	1	-1E+10	1	-1E+10	1	-1E+10	1
4901784	58	C	02/04/2017	10:44	-132.455	44.187	0	1869.40	0	2.0320	0	34.6360	0	27.687	0	1846.107	0	50.8	4	15.3	4	-1E+10	1	-1E+10	1	-1E+10	1	-1E+10	1	-1E+10	1	-1E+10	1
4901784	58	C	02/04/2017	10:44	-132.455	44.187	0	1874.80	0	2.0290	0	34.6360	0	27.688	0	1851.416	0	51.2	4	15.5	4	-1E+10	1	-1E+10	1	-1E+10	1	-1E+10	1	-1E+10	1	-1E+10	1
4901784	58	C	02/04/2017	10:44	-132.455	44.187	0	1880.10	0	2.0270	0	34.6380	0	27.690	0	1856.627	0	51.5	4	15.6	4	-1E+10	1	-1E+10	1	-1E+10	1	-1E+10	1	-1E+10	1	-1E+10	1
4901784	58	C	02/04/2017	10:44	-132.455	44.187	0	1885.40	0	2.0220	0	34.6380	0	27.690	0	1861.837	0	51.9	4	15.7	4	-1E+10	1	-1E+10	1	-1E+10	1	-1E+10	1	-1E+10	1	-1E+10	1
4901784	58	C	02/04/2017	10:44	-132.455	44.187	0	1890.70	0	2.0180	0	34.6390	0	27.691	0	1867.048	0	52.2	4	15.7	4	-1E+10	1	-1E+10	1	-1E+10	1	-1E+10	1	-1E+10	1	-1E+10	1
4901784	58	C	02/04/2017	10:44	-132.455	44.187	0	1895.10	0	2.0140	0	34.6400	0	27.692	0	1871.373	0	52.5	4	15.8	4	-1E+10	1	-1E+10	1	-1E+10	1	-1E+10	1	-1E+10	1	-1E+10	1
4901784	58	C	02/04/2017	10:44	-132.455	44.187	0	1899.50	0	2.0120	0	34.6400	0	27.692	0	1875.699	0	52.7	4	15.9	4	-1E+10	1	-1E+10	1	-1E+10	1	-1E+10	1	-1E+10	1	-1E+10	1
4901784	58	C	02/04/2017	10:44	-132.455	44.187	0	1904.80	0	2.0060	0	34.6410	0	27.694	0	1880.909	0	53.0	4	16.0	4	-1E+10	1	-1E+10	1	-1E+10	1	-1E+10	1	-1E+10	1	-1E+10	1
4901784	58	C	02/04/2017	10:44	-132.455	44.187	0	1910.10	0	2.0020	0	34.6420	0	27.695	0	1886.119	0	53.2	4	16.1	4	-1E+10	1	-1E+10	1	-1E+10	1	-1E+10	1	-1E+10	1	-1E+10	1
4901784	58	C	02/04/2017	10:44	-132.455	44.187	0	1915.40	0	2.0000	0	34.6420	0	27.695	0	1891.329	0	53.4	4	16.1	4	-1E+10	1	-1E+10	1	-1E+10	1	-1E+10	1	-1E+10	1	-1E+10	1
4901784	58	C	02/04/2017	10:44	-132.455	44.187	0	1919.90	0	1.9990	0	34.6420	0	27.695	0	1895.753	0	53.7	4	16.2	4	-1E+10	1	-1E+10	1	-1E+10	1	-1E+10	1	-1E+10	1	-1E+10	1
4901784	58	C	02/04/2017	10:44	-132.455	44.187	0	1924.40	0	1.9940	0	34.6430	0	27.696	0	1900.176	0	54.0	4	16.3	4	-1E+10	1	-1E+10	1	-1E+10	1	-1E+10	1	-1E+10	1	-1E+10	1
4901784	58	C	02/04/2017	10:44	-132.455	44.187	0	1929.80	0	1.9880	0	34.6440	0	27.698	0	1905.484	0	54.4	4	16.4	4	-1E+10	1	-1E+10	1	-1E+10	1	-1E+10	1	-1E+10	1	-1E+10	1
4901784	58	C	02/04/2017	10:44	-132.455	44.187	0	1935.10	0	1.9830	0	34.6450	0	27.699	0	1910.693	0	54.7	4	16.5	4	-1E+10	1	-1E+10	1	-1E+10	1	-1E+10	1	-1E+10	1	-1E+10	1
4901784	58	C	02/04/2017	10:44	-132.455	44.187	0	1940.40	0	1.9820	0	34.6450	0	27.699	0	1915.902	0	55.0	4	16.6	4	-1E+10	1	-1E+10	1	-1E+10	1	-1E+10	1	-1E+10	1	-1E+10	1
4901784	58	C	02/04/2017	10:44	-132.455	44.187	0	1945.20	0	1.9800	0	34.6460	0	27.700	0	1920.620	0	55.4	4	16.7	4	-1E+10	1	-1E+10	1	-1E+10	1	-1E+10	1	-1E+10	1	-1E+10	1
4901784	58	C	02/04/2017	10:44	-132.455	44.187	0	1950.10	0	1.9710	0	34.6470	0	27.701	0	1925.436	0	55.8	4	16.8	4	-1E+10	1	-1E+10	1	-1E+10	1	-1E+10	1	-1E+10	1	-1E+10	1
4901784	58	C	02/04/2017	10:44	-132.455	44.187	0	1955.00	0	1.9670	0	34.6480	0	27.703	0	1930.252	0	56.2	4	16.9	4	-1E+10	1	-1E+10	1	-1E+10	1	-1E+10	1	-1E+10	1	-1E+10	1
4901784	58	C	02/04/2017	10:44	-132.455	44.187	0	1959.80	0	1.9630	0	34.6480	0	27.703	0	1934.970	0	56.5	4	17.0	4	-1E+10	1	-1E+10	1	-1E+10	1	-1E+10	1	-1E+10	1	-1E+10	1
4901784	58	C	02/04/2017	10:44	-132.455	44.187	0	1964.80	0	1.9610	0	34.6490	0	27.704	0	1939.883	0	56.8	4	17.1	4	-1E+10	1	-1E+10	1	-1E+10	1	-1E+10	1	-1E+10	1	-1E+10	1
4901784	58	C	02/04/2017	10:44	-132.455	44.187	0	1969.80	0	1.9570	0	34.6500	0	27.705	0	1944.797	0	57.1	4	17.2	4	-1E+10	1	-1E+10	1	-1E+10	1	-1E+10	1	-1E+10	1	-1E+10	1
4901784	58	C	02/04/2017	10:44	-132.455	44.187	0	1974.80	0	1.9530	0	34.6510	0	27.706	0	1949.711	0	57.3	4	17.3	4	-1E+10	1	-1E+10	1	-1E+10	1	-1E+10	1	-1E+10	1	-1E+10	1
4901784	58	C	02/04/2017	10:44	-132.455	44.187	0	1979.70	0	1.9510	0	34.6510	0	27.706	0	1954.526	0	57.5	4	17.3	4	-1E+10	1	-1E+10	1	-1E+10	1	-1E+10	1	-1E+10	1	-1E+10	1
4901784	58	C	02/04/2017	10:44	-132.455	44.187	0	1984.70	0	1.9480	0	34.6510	0	27.707	0	1959.439	0	57.7	4	17.4	4	-1E+10	1	-1E+10	1	-1E+10	1	-1E+10	1	-1E+10	1	-1E+10	1
4901784	58	C	02/04/2017	10:44	-132.455	44.187	0	1989.70	0	1.9480	0	34.6520	0	27.707	0	1964.353	0	58.0	4	17.5	4	-1E+10	1	-1E+10	1	-1E+10	1	-1E+10	1	-1E+10	1	-1E+10	1
4901784	58	C	02/04/2017	10:44	-132.455	44.187	0	1994.60	0	1.9450	0	34.6530	0	27.709	0	1969.168	0	58.2	4	17.5	4	-1E+10	1	-1E+10	1	-1E+10	1	-1E+10	1	-1E+10	1	-1E+10	1
4901784	58	C	02/04/2017	10:44	-132.455	44.187	0	1999.60	0	1.9430	0	34.6530	0	27.709	0	1974.081	0	58.3	4	17.6	4	-1E+10	1	-1E+10	1	-1E+10	1	-1E+10	1	-1E+10	1	-1E+10	1
4901784	58	C	02/04/2017	10:44	-132.455	44.187	0	2004.50	0	1.9420	0	34.6530	0	27.709	0	1978.896	0	58.5	4	17.6	4	-1E+10	1	-1E+10	1	-1E+10	1	-1E+10	1	-1E+10	1	-1E+10	1
4901784	58	C	02/04/2017	10:44	-132.455	44.187	0	2010.00	0	1.9400	0	34.6540	0	27.710	0	1984.300	0	58.7	4	17.7	4	-1E+10	1	-1E+10	1	-1E+10	1	-1E+10	1	-1E+10	1	-1E+10	1
4901784	58	C	02/04/2017	10:44	-132.455	44.187	0	2015.00	0	1.9380	0	34.6540	0	27.710	0	1989.213	0	58.9	4	17.7	4	-1E+10	1	-1E+10	1	-1E+10	1	-1E+10	1	-1E+10	1	-1E+10	1
4901784	58	C	02/04/2017	10:44	-132.455	44.187	0	2020.30	0	1.9340	0	34.6550	0	27.711	0	1994.420	0	59.1	4	17.8	4	-1E+10	1	-1E+10	1	-1E+10	1	-1E+10	1	-1E+10	1	-1E+10	1
4901784	58	C	02/04/2017	10:44	-132.455	44.187	0																										
4901784	59	C	02/14/2017	10:50	-132.430	44.112	0	2.80	0	9.1470	0	32.8790	4	25.435	0	2.777	0	270.9	4	95.4	4	-1E+10	1	-1E+10	1	-1E+10	1	-1E+10	1	-1E+10	1	-1E+10	1
4901784	59	C	02/14/2017	10:50	-132.430	44.112	0	3.90	0	9.1480	0	32.8790	4	25.435	0	3.869	0	270.7	4	95.3	4	-1E+10	1	-1E+10	1	-1E+10	1	-1E+10	1	-1E+10	1	-1E+10	1
4901784	59	C	02/14/2017	10:50	-132.430	44.112	0	5.10	0	9.1470	0	32.8790	4	25.435	0	5.059	0	270.7	4	95.3	4	-1E+10	1	-1E+10	1	-1E+10	1	-1E+10	1	-1E+10	1	-1E+10	1
4901784	59	C	02/14/2017	10:50	-132.430	44.112	0	6.20	0	9.1460	0	32.8800	4	25.436	0	6.150	0	270.9	4	95.4	4	-1E+10	1	-1E+10	1	-1E+10	1	-1E+10	1	-1E+10	1	-1E+10	1
4901784	59	C	02/14/2017	10:50	-132.430	44.112	0	7.60	0	9.1470	0	32.8790	4	25.435	0	7.539	0	270.8	4	95.3	4	-1E+10	1	-1E+10	1	-1E+10	1	-1E+10	1	-1E+10	1	-1E+10	1
4901784	59	C	02/14/2017	10:50	-132.430	44.112	0	9.20	0	9.1480	0	32.8790	4	25.435	0	9.126	0	270.7	4	95.3	4	-1E+10	1	-1E+10	1	-1E+10	1	-1E+10	1	-1E+10	1	-1E+10	1
4901784	59	C	02/14/2017	10:50	-132.430	44.112	0	10.80	0	9.1500	0	32.8790	4	25.435	0	10.713	0	270.8	4	95.3	4	-1E+10	1	-1E+10	1	-1E+10	1	-1E+10	1	-1E+10	1	-1E+10	1
4901784	59	C	02/14/2017	10:50	-132.430	44.112	0	12.30	0	9.1500	0	32.8780	4	25.434	0	12.201	0	270.7	4	95.3	4	-1E+10	1	-1E+10	1	-1E+10	1	-1E+10	1	-1E+10	1	-1E+10	1
4901784	59	C	02/14/2017	10:50	-132.430	44.112	0	13.90	0	9.1500	0	32.8780	4	25.434	0	13.788	0	270.9	4	95.4	4	-1E+10	1	-1E+10	1	-1E+10	1	-1E+10	1	-1E+10	1	-1E+10	1
4901784	59	C	02/14/2017	10:50	-132.430	44.112	0	15.50	0	9.1480	0	32.8790	4	25.435	0	15.375	0	270.9	4	95.4	4	-1E+10	1	-1E+10	1	-1E+10	1	-1E+10	1	-1E+10	1	-1E+10	1
4901784	59	C	02/14/2017	10:50	-132.430	44.112	0	17.40	0	9.1480	0	32.8790	4	25.435	0	17.259	0	270.7	4	95.3	4	-1E+10	1	-1E+10	1	-1E+10	1	-1E+10	1	-1E+10	1	-1E+10	1
4901784	59	C	02/14/2017	10:50	-132.430	44.112	0	19.40	0	9.1480	0	32.8790	4	25.435	0	19.243	0	270.7	4	95.3	4	-1E+10	1	-1E+10	1	-1E+10	1	-1E+10	1	-1E+10	1	-1E+10	1
4901784	59	C	02/14/2017	10:50	-132.430	44.112	0	21.30	0	9.1490	0	32.8790	4	25.435	0	21.128	0	270.9	4	95.4	4	-1E+10	1	-1E+10	1	-1E+10	1	-1E+10	1	-1E+10	1	-1E+10	1
4901784	59	C	02/14/2017	10:50	-132.430	44.112	0	23.30	0	9.1480	0	32.8800	4	25.436	0	23.111	0	270.6	4	95.3	4	-1E+10	1	-1E+10	1	-1E+10	1	-1E+10	1	-1E+10	1	-1E+10	1
4901784	59	C	02/14/2017	10:50	-132.430	44.112	0	25.20	0	9.1480	0	32.8800	4	25.436	0	24.996	0	270.8	4	95.3	4	-1E+10	1	-1E+10	1	-1E+10	1	-1E+10	1	-1E+10	1	-1E+10	1
4901784	59	C	02/14/2017	10:50	-132.430	44.112	0	27.20	0	9.1490	0	32.8790	4	25.435	0	26.980	0	270.7	4	95.3	4	-1E+10	1	-1E+10	1	-1E+10	1	-1E+10	1	-1E+10	1	-1E+10	1
4901784	59	C	02/14/2017	10:50	-132.430	44.112	0	29.10	0	9.1490	0	32.8790	4	25.435	0	28.864	0	270.9	4	95.4	4	-1E+10	1	-1E+10	1	-1E+10	1	-1E+10	1	-1E+10	1	-1E+10	1
4901784	59	C	02/14/2017	10:50	-132.430	44.112	0	31.10	0	9.1500	0	32.8790	4	25.435	0	30.848	0	270.8	4	95.4	4	-1E+10	1	-1E+10	1	-1E+10	1	-1E+10	1	-1E+10	1	-1E+10	1
4901784	59	C	02/14/2017	10:50	-132.430	44.112	0	33.10	0	9.1500	0	32.8790	4	25.435	0	32.831	0	270.6	4	95.3	4	-1E+10	1	-1E+10	1	-1E+10	1	-1E+10	1	-1E+10	1	-1E+10	1
4901784	59	C	02/14/2017	10:50	-132.430	44.112	0	35.10	0	9.1500	0	32.8790	4	25.435	0	34.815	0	270.6	4	95.3	4	-1E+10	1	-1E+10	1	-1E+10	1	-1E+10	1	-1E+10	1	-1E+10	1
4901784	59	C	02/14/2017	10:50	-132.430	44.112	0	37.20	0	9.1500	0	32.8790	4	25.435	0	36.898	0	270.5	4	95.3	4	-1E+10	1	-1E+10	1	-1E+10	1	-1E+10	1	-1E+10	1	-1E+10	1
4901784	59	C	02/14/2017	10:50	-132.430	44.112	0	39.30	0	9.1500	0	32.8790	4	25.435	0	38.980	0	270.6	4	95.3	4	-1E+10	1	-1E+10	1	-1E+10	1	-1E+10	1	-1E+10	1	-1E+10	1
4901784	59	C	02/14/2017	10:50	-132.430	44.112	0	41.40	0	9.1500	0	32.8790	4	25.435	0	41.063	0	270.8	4	95.3	4	-1E+10	1	-1E+10	1	-1E+10	1	-1E+10	1	-1E+10	1	-1E+10	1
4901784	59	C	02/14/2017	10:50	-132.430	44.112	0	43.40	0	9.1490	0	32.8800	4	25.436	0	43.047	0	270.6	4	95.3	4	-1E+10	1	-1E+10	1	-1E+10	1	-1E+10	1	-1E+10	1	-1E+10	1
4901784	59	C	02/14/2017	10:50	-132.430	44.112	0	45.40	0	9.1480	0	32.8810	4	25.437	0	45.030	0	270.5	4	95.2	4	-1E+10	1	-1E+10	1	-1E+10	1	-1E+10	1	-1E+10	1	-1E+10	1
4901784	59	C	02/14/2017	10:50	-132.430	44.112	0	47.40	0	9.1480	0	32.8810	4	25.437	0	47.014	0	270.5	4	95.2	4	-1E+10	1	-1E+10	1	-1E+10	1	-1E+10	1	-1E+10	1	-1E+10	1
4901784	59	C	02/14/2017	10:50	-132.430	44.112	0	49.30	0	9.1460	0	32.8820	4	25.438	0	48.898	0	270.5	4	95.2	4	-1E+10	1	-1E+10	1	-1E+10	1	-1E+10	1	-1E+10	1	-1E+10	1
4901784	59	C	02/14/2017	10:50	-132.430	44.112	0	51.30	0	9.1450	0	32.8830	4	25.439	0	50.881	0	270.6	4	95.3	4	-1E+10	1	-1E+10	1	-1E+10	1	-1E+10	1	-1E+10	1	-1E+10	1
4901784	59	C	02/14/2017	10:50	-132.430	44.112	0	53.30	0	9.1460	0	32.8820	4	25.438	0	52.865	0	270.4	4	95.2	4	-1E+10	1	-1E+10	1	-1E+10	1	-1E+10	1	-1E+10	1	-1E+10	1
4901784	59	C	02/14/2017	10:50	-132.430	44.112	0	55.30	0	9.1460	0	32.8820	4	25.438	0	54.848	0	270.4	4	95.2	4	-1E+10	1	-1E+10	1	-1E+10	1	-1E+10	1	-1E+10	1	-1E+10	1
4901784	59	C	02/14/2017	10:50	-132.430	44.112	0	57.20	0	9.1460	0	32.8820	4	25.438	0	56.732	0	270.3	4	95.2	4	-1E+10	1	-1E+10	1	-1E+10	1	-1E+10	1	-1E+10	1	-1E+10	1
4901784	59	C	02/14/2017	10:50	-132.430	44.112	0	59.00	0	9.1440	0	32.8830	4	25.439	0	58.518	0	270.3	4	95.2	4	-1E+10	1	-1E+10	1	-1E+10	1	-1E+10	1	-1E+10	1	-1E+10	1
4901784	59	C	02/14/2017	10:50	-132.430	44.112	0	60.80	0	9.1450	0	32.8830	4	25.439	0	60.303	0	270.1	4	95.1	4	-1E+10	1	-1E+10	1	-1E+10	1	-1E+10	1	-1E+10	1	-1E+10	1
4901784	59	C	02/14/2017	10:50	-132.430	44.112	0	62.80	0	9.1390	0	32.8850	4	25.442	0	62.286	0	270.0	4	95.0	4	-1E+10	1	-1E+10	1	-1E+10	1	-1E+10	1	-1E+10	1	-1E+10	1
4901784	59	C	02/14/2017	10:50	-132.430	44.112	0	64.70	0	9.1370	0	32.8860	4	25.443	0	64.170	0	269.9	4	95.0	4	-1E+10	1	-1E+10	1	-1E+10	1	-1E+10	1	-1E+10	1	-1E+10	1
4901784	59	C	02/14/2017	10:50	-132.430	44.112	0	66.70	0	9.1350	0	32.8860	4	25.443	0	66.153	0	269.9	4	95.0	4	-1E+10	1	-1E+10	1	-1E+10	1	-1E+10	1	-1E+10	1	-1E+10	1
4901784	59	C	02/14/2017	10:50	-132.430	44.112	0	68.60	0	9.1340	0	32.8870	4	25.444	0	68.037	0	269.8	4	95.0	4	-1E+10	1	-1E+10	1	-1E+10	1	-1E+10	1	-1E+10	1	-1E+10	1
4901784	59	C	02/14/2017	10:50	-132.430	44.112	0	70.50	0	9.1340	0	32.8870	4	25.444	0	69.922	0	269.6	4	94.9	4	-1E+10	1	-1E+10	1	-1E+10	1	-1E+10	1	-1E+10	1	-1E+10	1
4901784	59	C	02/14/2017	10:50	-132.430	44.112	0	72.40	0	9.1220	0	32.8920	4	25.450	0	71.806	0	269.2	4	94.7	4	-1E+10	1	-1E+10	1	-1E+10	1	-1E+10	1	-1E+10	1	-1E+10	1
4901784	59	C	02/14/2017	10:50	-132.430	44.112	0	74.40	0	9.1360	0	32.8860	4	25.443	0	73.789	0	269.0	4	94.7	4	-1E+10	1	-1E+10	1	-1E+10	1	-1E+10	1	-1E+10	1	-1E+10	1
4901784	59	C	02/14/2017	10:50	-132.430	44.112	0	76.30	0	9.1160	0	32.8960	4	25.454	0	75.673	0	268.6	4	94.5	4	-1E+10	1	-1E+10	1	-1E+10	1	-1E+10	1	-1E+10	1	-1E+10	1
4901784	59	C	02/14/2017	10:50	-132.430	44.112	0	78.20	0	9.1160	0	32.8960	4	25.454	0	77.557	0	268.2	4	94.4	4	-1E+10	1	-1E+10	1	-1E+10	1	-1E+10	1	-1E+10	1	-1E+10	1
4901784	59	C	02/14/2017	10:50	-132.430	44.112	0	80.20	0	9.1160	0	32.8970	4	25.455	0	79.540	0	267.9	4	94.2	4	-1E+10	1	-1E+10	1	-1E+10	1	-1E+10	1	-1E+10	1	-1E+10	1
4901784	59	C	02/14/2017	10:50	-132.430	44.112	0	82.00	0	9.1170	0	32.8980	4	25.456	0	81.325	0	267.0	4	94.0	4	-1E+10	1	-1E+10	1	-1E+10	1	-1E+10	1	-1E+10	1	-1E+10	1
4901784	59	C	02/14/2017	10:50	-132.430	44.112	0	84.00	0	9.1170	0	32.8990	4	25.457	0	83.308	0	266.1	4	93.6	4	-1E+10	1	-1E+10	1	-1E+10	1	-1E+10	1	-1E+10	1	-1E+10	1
4901784	59	C	02/14/2017	10:50	-132.430	44.112	0	85.90	0	9.1160	0	32.9000	4	25.458	0	85.192	0	265.0	4	93.2	4	-1E+10	1	-1E+10	1	-1E+10	1	-1E+10	1	-1E+10	1	-1E+10	1
4901784	59	C	02/14/2017	10:50	-132.430	44.112	0	87.80	0	9.1140	0	32.9190	4	25.473	0	87.076	0	263.5	4	92.7	4	-1E+10	1	-1E+10	1	-1E+10	1	-1E+10	1	-1E+10	1	-1E+10	1
4901784	59	C	02/14/2017	10:50	-132.430	44.112	0	89.80	0	9.1130	0	32.9250	4	25.478	0	89.059	0	262.4	4	92.3	4	-1E+10	1	-1E+10	1	-1E+10	1	-1E+10	1	-1E+10	1	-1E+10	1
4901784	59	C	02/14/2017	10:50	-132.430	44.112	0	91.60	0	9.1130	0	32.9250	4	25.478	0	90.844	0	261.1	4	91.9	4	-1E+10	1	-1E+10	1	-1E+10	1	-1E+10	1	-1E+10	1	-1E+10	1
4901784	59	C	02/14/2017	10:50	-132.430	44.112	0	94.10	0	9.1110	0	32.9380	4	25.488	0	93.323	0	258.8	4	91.1	4	-1E+10	1	-1E+10	1	-1E+10	1	-1E+10	1	-1E+10	1	-1E+10	1
4901784	59	C	02/14/2017	10:50	-132.430	44.112	0	96.00	0	9.1110	0	32.9410	4	25.491	0	95.206	0	256.3	4	90.2	4	-1E+10	1	-1E+10	1	-1E+10	1	-1E+10	1	-1E+10	1	-1E+10	1
4901784	59	C	02/14/2017	10:50	-132.430	44.112	0	97.70	0	9.1110	0	32.9500	4	25.498	0	96.892	0	253.3	4	89.1	4	-1E+10	1	-1E+10	1	-1E+10	1	-1E+10	1	-1E+10	1	-1E+10	1
4901784	59	C	02/14/2017	10:50	-132.430	44.112	0	99.30	0	9.1080	0	32.9610	4	25.507	0	98.478	0	249.4	4	87.8	4	-1E+10	1	-1E+10	1	-1E+10	1	-1E+10	1	-1E+10	1	-1E+10	1
4901784	59	C	02/14/2017	10:50	-132.430	44.112	0	102.40	0	9.0810	0	33.0650	4	25.592	0	101.552	0	240.2	4	84.6	4	-1E+10	1	-1E+10	1	-1E+10	1	-1E+10	1	-1E+10	1	-1E+10	1
4901784	59	C	02/14/2017	10:50	-132.430	44.112	0	104.80	0	9.0570	0	33.1510	4	25.664	0	103.931	0	235.1	4	82.8	4	-1E+10	1	-1E+10	1	-1E+10	1	-1E+10	1	-1E+10	1	-1E+10	1
4901784	59	C	02/14/2017	10:50	-132.430	44.112	0	107.80	0	9.0450	0	33.1960	4	25.701	0	106.906	0	228.5	4	80.5	4	-1E+10	1	-1E+10	1	-1E+10	1	-1E+10	1	-1E+10	1	-1E+10	1
4901784	59	C	02/14/2017	10:50	-132.430	44.112	0	110.20	0	9.0220	0	33.2530	4	25.749	0	109.285	0	222.2	4	78.2	4	-1E+10	1	-1E+10	1	-1E+10	1	-1E+10	1	-1E+10	1	-1E+10	1
4901784	59	C	02/14/2017	10:50	-132.430	44.112	0	112.70	0	8.9910	0	33.3260	4	25.811	0	111.764	0	215.6	4	75.9	4	-1E+10	1	-1E+10	1	-1E+10	1	-1E+10	1	-1E+10	1	-1E+10	1
4901784	59	C	02/14/2017	10:50	-132.430	44.112	0	115.10	0	8.9380	0	33.4550	4	25.920	0	114.143	0	210.2	4	74.0	4	-1E+10	1	-1E+10	1	-1E+10	1	-1E+10	1	-1E+10	1	-1E+10	1
4901784	59	C	02/14/2017	10:50	-132.430	44.112	0	117.80	0	8.9130	0	33.4950	4	25.956	0	116.820	0	207.1	4	72.9	4	-1E+10	1	-1E+10	1	-1E+10	1	-1E+10	1	-1E+10	1	-1E+10	1
4901784	59	C	02/14/2017	10:50	-132.430	44.112	0	120.50	0	8.9070	0	33.5140	4	25.972	0	119.497	0	203.2	4	71.5	4	-1E+10	1	-1E+10	1	-1E+10	1	-1E+10	1	-1E+10	1	-1E+10	1
4901784	59	C	02/14/2017	10:50	-132.430	44.112	0	122.30	0	8.8750	0	33.5940	4	26.039	0	121.281	0	200.5	4	70.5	4	-1E+10	1	-1E+10	1	-1E+10	1	-1E+10	1	-1E+10	1	-1E+10	1
4901784	59	C	02/14/2017	10:50	-132.430	44.112	0	125.00	0	8.8600	0	33.6710	4	26.102	0	123.958	0	197.6	4	69.5	4	-1E+10	1	-1E+10	1	-1E+10	1	-1E+10	1	-1E+10	1	-1E+10	1
4901784	59	C	02/14/2017	10:50	-132.430	44.112	0	127.70	0	8.8470	0	33.7130	4	26.137	0	126.635	0	195.3	4	68.7	4	-1E+10	1	-1E+10	1	-1E+10	1	-1E+10	1	-1E+10	1	-1E+10	1
4901784	59	C	02/14/2017	10:50	-132.430	44.112	0	129.60	0	8.8330	0	33.7520	4	26.170	0	128.518	0	194.2	4	68.3	4	-1E+10	1	-1E+10	1	-1E+10	1	-1E+10	1	-1E+10	1	-1E+10	1
4901784	59	C	02/14/2017	10:50	-132.430	44.112	0	132.50	0	8.8170	0	33.7800	4	26.194	0	131.393	0	192.8	4	67.8	4	-1E+10	1	-1E+10	1	-1E+10	1	-1E+10	1	-1E+10	1	-1E+10	1
4901784	59	C	02/14/2017	10:50	-132.430	44.112	0	135.90	0	8.7860	0	33.8210	4	26.231	0	134.764	0	191.6	4	67.4	4	-1E+10	1	-1E+10	1	-1E+10	1	-1E+10	1	-1E+10	1	-1E+10	1
4901784	59	C	02/14/2017	10:50	-132.430	44.112	0	137.80	0	8.7650	0	33.8450	4	26.253	0	136.647	0	191.1	4	67.2	4	-1E+10	1	-1E+10	1	-1E+10	1	-1E+10	1	-1E+10	1	-1E+10	1
4901784	59	C	02/14/2017	10:50	-132.430	44.112	0	140.30	0	8.7530	0	33.8570	4	26.265	0	139.125	0	190.5	4	67.0	4	-1E+10	1	-1E+10	1	-1E+10	1	-1E+10	1	-1E+10	1	-1E+10	1
4901784	59	C	02/14/2017	10:50	-132.430	44.112	0	142.70	0	8.7380	0	33.8720	4	26.279	0	141.504	0	190.0	4	66.8	4	-1E+10	1	-1E+10	1	-1E+10	1	-1E+10	1	-1E+10	1	-1E+10	1
4901784	59	C	02/14/2017	10:50	-132.430	44.112	0	145.10	0	8.7200	0	33.8860	4	26.292	0	143.883	0	189.4	4	66.6	4	-1E+10	1	-1E+10	1	-1E+10	1	-1E+10	1	-1E+10	1	-1E+10	1
4901784	59	C	02/14/2017	10:50	-132.430	44.112	0	147.50	0	8.6810	0	33.9070	4	26.315	0	146.262	0	188.8	4	66.3	4	-1E+10	1	-1E+10	1	-1E+10	1	-1E+10	1	-1E+10	1	-1E+10	1
4901784	59	C	02/14/2017	10:50	-132.430	44.112	0	149.90	0	8.6660	0	33.9140	4	26.323	0	148.641	0	188.3	4	66.1	4	-1E+10	1	-1E+10	1	-1E+10	1	-1E+10	1	-1E+10	1	-1E+10	1
4901784	59	C	02/14/2017	10:50	-132.430	44.112	0	152.30	0	8.6430	0	33.9230	4	26.333	0	151.020	0	187.7	4	65.8	4	-1E+10	1	-1E+10	1	-1E+10	1	-1E+10	1	-1E+10	1	-1E+10	1
4901784	59	C	02/14/2017	10:50	-132.430	44.112	0	154.70	0	8.6160	0	33.9320	4	26.345	0	153.399	0	187.2	4	65.6	4	-1E+10	1	-1E+10	1	-1E+10	1	-1E+10	1	-1E+10	1	-1E+10	1
4901784	59	C	02/14/2017	10:50	-132.430	44.112	0	157.20	0	8.5940	0	33.9360	4	26.351	0	155.877	0	186.3	4	65.3	4	-1E+10	1	-1E+10	1	-1E+10	1	-1E+10	1	-1E+10	1	-1E+10	1
4901784	59	C	02/14/2017	10:50	-132.430	44.112	0	159.70	0	8.5630	0	33.9410	4	26.360	0	158.355	0	185.6	4	65.0	4	-1E+10	1	-1E+10	1	-1E+10	1	-1E+10	1	-1E+10	1	-1E+10	1
4901784	59	C	02/14/2017	10:50	-132.430	44.112	0	162.20	0	8.5320	0	33.9510	4	26.373	0	160.833	0	184.3	4	64.5	4	-1E+10	1	-1E+10	1	-1E+10	1	-1E+10	1	-1E+10	1	-1E+10	1
4901784	59	C	02/14/2017	10:50	-132.430	44.112	0	164.70	0	8.4780	0	33.9510	4	26.381	0	163.311	0	183.2	4	64.0	4	-1E+10	1	-1E+10	1	-1E+10	1	-1E+10	1	-1E+10	1	-1E+10	1
4901784	59	C	02/14/2017	10:50	-132.430	44.112	0	167.20	0	8.4040	0	33.9590	4	26.399	0	165.789	0	182.1	4	63.6	4	-1E+10	1	-1E+10	1	-1E+10	1	-1E+10	1	-1E+10	1	-1E+10	1
4901784	59	C	02/14/2017	10:50	-132.430	44.112	0	169.70	0	8.3010	0	33.9670	4	26.420	0	168.267	0	181.2	4	63.1	4	-1E+10	1	-1E+10	1	-1E+10	1	-1E+10	1	-1E+10	1	-1E+10	1
4901784	59	C	02/14/2017	10:50	-132.430	44.112	0	172.30	0	8.2600	0	33.9650	4	26.425	0	170.844	0	180.4	4	62.8	4	-1E+10	1	-1E+10	1	-1E+10	1	-1E+10	1	-1E+10	1	-1E+10	1
4901784	59	C	02/14/2017	10:50	-132.430	44.112	0	174.80	0	8.2170	0	33.9640	4	26.431	0	173.322	0	179.1	4	62.3	4	-1E+10	1	-1E+10	1	-1E+10	1	-1E+10	1	-1E+10	1	-1E+10	1
4901784	59	C	02/14/2017	10:50	-132.430	44.112	0	177.50	0	8.1210	0	33.9680	4	26.448	0	175.998	0	178.1	4	61.8	4	-1E+10	1	-1E+10	1	-1E+10	1	-1E+10	1	-1E+10	1	-1E+10	1
4901784	59	C	02/14/2017	10:50	-132.430	44.112	0	180.20	0	8.0880	0	33.9670	4	26.452	0	178.674	0	177.2	4	61.4	4	-1E+10	1	-1E+10	1	-1E+10	1	-1E+10	1	-1E+10	1	-1E+10	1
4901784	59	C	02/14/2017	10:50	-132.430	44.112	0	182.90	0	8.0220	0	33.9680	4	26.463	0	181.350	0	176.3	4	61.0	4	-1E+10	1	-1E+10	1	-1E+10	1	-1E+10	1	-1E+10	1	-1E+10	1
4901784	59	C	02/14/2017	10:50	-132.430	44.112	0	184.70	0	7.9810	0	33.9650	4	26.467	0	183.134	0	175.8	4	60.8	4	-1E+10	1	-1E+10	1	-1E+10	1	-1E+10	1	-1E+10	1	-1E+10	1
4901784	59	C	02/14/2017	10:50	-132.430	44.112	0	187.40	0	7.8920	0	33.9610	4	26.477	0	185.810	0	174.6	4	60.3	4	-1E+10	1	-1E+10	1	-1E+10	1	-1E+10	1	-1E+10	1	-1E+10	1
4901784	59	C	02/14/2017	10:50	-132.430	44.112	0	190.00	0	7.8430	0	33.9650	4	26.487	0	188.386	0	173.2	4	59.7	4	-1E+10	1	-1E+10	1	-1E+10	1	-1E+10	1	-1E+10	1	-1E+10	1
4901784	59	C	02/14/2017	10:50	-132.430	44.112	0	192.80	0	7.8440	0	33.9660	4	26.488	0	191.161	0	171.9	4	59.3	4	-1E+10	1	-1E+10	1	-1E+10	1	-1E+10	1	-1E+10	1	-1E+10	1
4901784	59	C	02/14/2017	10:50	-132.430	44.112	0	195.50	0	7.8220	0	33.9670	4	26.492	0	193.837	0	170.7	4	58.8	4	-1E+10	1	-1E+10	1	-1E+10	1	-1E+10	1	-1E+10	1	-1E+10	1
4901784	59	C	02/14/2017	10:50	-132.430	44.112	0	197.30	0	7.7750	0	33.9650	4	26.497	0	195.621	0	170.1	4	58.6	4	-1E+10	1	-1E+10	1	-1E+10	1	-1E+10	1	-1E+10	1	-1E+10	1
4901784	59	C	02/14/2017	10:50	-132.430	44.112	0	200.10	0	7.6840	0	33.9630	4	26.509	0	198.396	0	168.9	4	58.0	4	-1E+10	1	-1E+10	1	-1E+10	1	-1E+10	1	-1E+10	1	-1E+10	1
4901784	59	C	02/14/2017	10:50	-132.430	44.112	0	203.00	0	7.6050	0	33.9660	4	26.522	0	201.270	0	167.3	4	57.4	4	-1E+10	1	-1E+10	1	-1E+10	1	-1E+10	1	-1E+10	1	-1E+10	1
4901784	59	C	02/14/2017	10:50	-132.430	44.112	0	204.80	0	7.5670	0	33.9700	4	26.531	0	203.054	0	167.0	4	57.2	4	-1E+10	1	-1E+10	1	-1E+10	1	-1E+10	1	-1E+10	1	-1E+10	1
4901784	59	C	02/14/2017	10:50	-132.430	44.112	0	207.70	0	7.5560	0	33.9700	4	26.533	0	205.927	0	166.2	4	56.9	4	-1E+10	1	-1E+10	1	-1E+10	1	-1E+10	1	-1E+10	1	-1E+10	1
4901784	59	C	02/14/2017	10:50	-132.430	44.112	0	210.50	0	7.5330	0	33.9710	4	26.537	0	208.702	0	165.4	4	56.6	4	-1E+10	1	-1E+10	1	-1E+10	1	-1E+10	1	-1E+10	1	-1E+10	1
4901784	59	C	02/14/2017	10:50	-132.430	44.112	0	212.40	0	7.5140	0	33.9690	4	26.538	0	210.585	0	164.8	4	56.4	4	-1E+10	1	-1E+10	1	-1E+10	1	-1E+10	1	-1E+10	1	-1E+10	1
4901784	59	C	02/14/2017	10:50	-132.430	44.112	0	215.10	0	7.4830	0	33.9690	4	26.542	0	213.260	0	163.8	4	56.0	4	-1E+10	1	-1E+10	1	-1E+10	1	-1E+10	1	-1E+10	1	-1E+10	1
4901784	59	C	02/14/2017	10:50	-132.430	44.112	0	218.00	0	7.4530	0	33.9710	4	26.548	0	216.134	0	162.8	4	55.6	4	-1E+10	1	-1E+10	1	-1E+10	1	-1E+10	1	-1E+10	1	-1E+10	1
4901784	59	C	02/14/2017	10:50	-132.430	44.112	0	219.80	0	7.4490	0	33.9700	4	26.548	0	217.918	0	162.1	4	55.4	4	-1E+10	1	-1E+10	1	-1E+10	1	-1E+10	1	-1E+10	1	-1E+10	1
4901784	59	C	02/14/2017	10:50	-132.430	44.112	0	222.70	0	7.4060	0	33.9710	4	26.555	0	220.791	0	160.6	4	54.8	4	-1E+10	1	-1E+10	1	-1E+10	1	-1E+10	1	-1E+10	1	-1E+10	1
4901784	59	C	02/14/2017	10:50	-132.430	44.112	0	225.60	0	7.3690	0	33.9730	4	26.562	0	223.665	0	159.6	4	54.4	4	-1E+10	1	-1E+10	1	-1E+10	1	-1E+10	1	-1E+10	1	-1E+10	1
4901784	59	C	02/14/2017	10:50	-132.430	44.112	0	227.50	0	7.3440	0	33.9710	4	26.564	0	225.548	0	158.9	4	54.2	4	-1E+10	1	-1E+10	1	-1E+10	1	-1E+10	1	-1E+10	1	-1E+10	1
4901784	59	C	02/14/2017	10:50	-132.430	44.112	0	229.40	0	7.3310	0	33.9700	4	26.565	0	227.430	0	157.9	4	53.8	4	-1E+10	1	-1E+10	1	-1E+10	1	-1E+10	1	-1E+10	1	-1E+10	1
4901784	59	C	02/14/2017	10:50	-132.430	44.112	0	232.30	0	7.2960	0	33.9740	4	26.573	0	230.304	0	156.3	4	53.2	4	-1E+10	1	-1E+10	1	-1E+10	1	-1E+10	1	-1E+10	1	-1E+10	1
4901784	59	C	02/14/2017	10:50	-132.430	44.112	0	235.10	0	7.2540	0	33.9740	4	26.579	0	233.078	0	155.0	4	52.7	4	-1E+10	1	-1E+10	1	-1E+10	1	-1E+10	1	-1E+10	1	-1E+10	1
4901784	59	C	02/14/2017	10:50	-132.430	44.112	0	237.00	0	7.2180	0	33.9740	4	26.584	0	234.961	0	154.1	4	52.4	4	-1E+10	1	-1E+10	1	-1E+10	1	-1E+10	1	-1E+10	1	-1E+10	1
4901784	59	C	02/14/2017	10:50	-132.430	44.112	0	239.90	0	7.1830	0	33.9720	4	26.587	0	237.834	0	152.4	4	51.8	4	-1E+10	1	-1E+10	1	-1E+10	1	-1E+10	1	-1E+10	1	-1E+10	1
4901784	59	C	02/14/2017	10:50	-132.430	44.112	0	242.80	0	7.1360	0	33.9700	4	26.592	0	240.707	0	150.6	4	51.1	4	-1E+10	1	-1E+10	1	-1E+10	1	-1E+10	1	-1E+10	1	-1E+10	1
4901784	59	C	02/14/2017	10:50	-132.430	44.112	0	244.70	0	7.0560	0	33.9710	4	26.604	0	242.590	0	149.3	4	50.5	4	-1E+10	1	-1E+10	1	-1E+10	1	-1E+10	1	-1E+10	1	-1E+10	1
4901784	59	C	02/14/2017	10:50	-132.430	44.112	0	247.50	0	6.9800	0	33.9710	4	26.614	0	245.364	0	148.1	4	50.1	4	-1E+10	1	-1E+10	1	-1E+10	1	-1E+10	1	-1E+10	1	-1E+10	1
4901784	59	C	02/14/2017	10:50	-132.430	44.112	0	250.50	0	6.9430	0	33.9710	4	26.619	0	248.336	0	147.1	4	49.7	4	-1E+10	1	-1E+10	1	-1E+10	1	-1E+10	1	-1E+10	1	-1E+10	1
4901784	59	C	02/14/2017	10:50	-132.430	44.112	0	252.40	0	6.9230	0	33.9700	4	26.621	0	250.219	0	146.5	4	49.4	4	-1E+10	1	-1E+10	1	-1E+10	1	-1E+10	1	-1E+10	1	-1E+10	1
4901784	59	C	02/14/2017	10:50	-132.430	44.112	0	254.40	0	6.8890	0	33.9710	4	26.627	0	252.200	0	146.0	4	49.2	4	-1E+10	1	-1E+10	1	-1E+10	1	-1E+10	1	-1E+10	1	-1E+10	1
4901784	59	C	02/14/2017	10:50	-132.430	44.112	0	257.30	0	6.8760	0	33.9700	4	26.628	0	255.073	0	144.9	4	48.9	4	-1E+10	1	-1E+10	1	-1E+10	1	-1E+10	1	-1E+10	1	-1E+10	1
4901784	59	C	02/14/2017	10:50	-132.430	44.112	0	260.30	0	6.8340	0	33.9690	4	26.633	0	258.046	0	143.9	4	48.5	4	-1E+10	1	-1E+10	1	-1E+10	1	-1E+10	1	-1E+10	1	-1E+10	1
4901784	59	C	02/14/2017	10:50	-132.430	44.112	0	262.20	0	6.8010	0	33.9700	4	26.638	0	259.928	0	143.1	4	48.2	4	-1E+10	1	-1E+10	1	-1E+10	1	-1E+10	1	-1E+10	1	-1E+10	1
4901784	59	C	02/14/2017	10:50	-132.430	44.112	0	264.10	0	6.7830	0	33.9700	4	26.640	0	261.810	0	142.4	4	47.9	4	-1E+10	1	-1E+10	1	-1E+10	1	-1E+10	1	-1E+10	1	-1E+10	1
4901784	59	C	02/14/2017	10:50	-132.430	44.112	0	267.30	0	6.7530	0	33.9690	4	26.644	0	264.980	0	141.0	4	47.4	4	-1E+10	1	-1E+10	1	-1E+10	1	-1E+10	1	-1E+10	1	-1E+10	1
4901784	59	C	02/14/2017	10:50	-132.430	44.112	0	270.30	0	6.7060	0	33.9680	4	26.649	0	267.953	0	139.2	4	46.8	4	-1E+10	1	-1E+10	1	-1E+10	1	-1E+10	1	-1E+10	1	-1E+10	1
4901784	59	C	02/14/2017	10:50	-132.430	44.112	0	272.80	0	6.6660	0	33.9670	4	26.654	0	270.429	0	137.6	4	46.2	4	-1E+10	1	-1E+10	1	-1E+10	1	-1E+10	1	-1E+10	1	-1E+10	1
4901784	59	C	02/14/2017	10:50	-132.430	44.112	0	275.20	0	6.6370	0	33.9660	4	26.657	0	272.807	0	135.7	4	45.5	4	-1E+10	1	-1E+10	1	-1E+10	1	-1E+10	1	-1E+10	1	-1E+10	1
4901784	59	C	02/14/2017	10:50	-132.430	44.112	0	277.70	0	6.5970	0	33.9640	4	26.660	0	275.283	0	133.0	4	44.6	4	-1E+10	1	-1E+10	1	-1E+10	1	-1E+10	1	-1E+10	1	-1E+10	1
4901784	59	C	02/14/2017	10:50	-132.430	44.112	0	280.10	0	6.4830	0	33.9620	4	26.674	0	277.661	0	130.2	4	43.5	4	-1E+10	1	-1E+10	1	-1E+10	1	-1E+10	1	-1E+10	1	-1E+10	1
4901784	59	C	02/14/2017	10:50	-132.430	44.112	0	282.60	0	6.3970	0	33.9640	4	26.687	0	280.137	0	128.3	4	42.8	4	-1E+10	1	-1E+10	1	-1E+10	1	-1E+10	1	-1E+10	1	-1E+10	1
4901784	59	C	02/14/2017	10:50	-132.430	44.112	0	285.20	0	6.3630	0	33.9630	4	26.690	0	282.713	0	126.5	4	42.2	4	-1E+10	1	-1E+10	1	-1E+10	1	-1E+10	1	-1E+10	1	-1E+10	1
4901784	59	C	02/14/2017	10:50	-132.430	44.112	0	287.70	0	6.3140	0	33.9620	4	26.696	0	285.189	0	124.1	4	41.3	4	-1E+10	1	-1E+10	1	-1E+10	1	-1E+10	1	-1E+10	1	-1E+10	1
4901784	59	C	02/14/2017	10:50	-132.430	44.112	0	290.20	0	6.2200	0	33.9620	4	26.708	0	287.666	0	121.7	4	40.4	4	-1E+10	1	-1E+10	1	-1E+10	1	-1E+10	1	-1E+10	1	-1E+10	1
4901784	59	C	02/14/2017	10:50	-132.430	44.112	0	292.80	0	6.1370	0	33.9650	4	26.721	0	290.241	0	120.4	4	39.9	4	-1E+10	1	-1E+10	1	-1E+10	1	-1E+10	1	-1E+10	1	-1E+10	1
4901784	59	C	02/14/2017	10:50	-132.430	44.112	0	295.40	0	6.1040	0	33.9650	4	26.725	0	292.817	0	119.5	4	39.6	4	-1E+10	1	-1E+10	1	-1E+10	1	-1E+10	1	-1E+10	1	-1E+10	1
4901784	59	C	02/14/2017	10:50	-132.430	44.112	0	297.10	0	6.1000	0	33.9650	4	26.726	0	294.501	0	119.1	4	39.4	4	-1E+10	1	-1E+10	1	-1E+10	1	-1E+10	1	-1E+10	1	-1E+10	1
4901784	59	C	02/14/2017	10:50	-132.430	44.112	0	299.60	0	6.0960	0	33.9640	4	26.725	0	296.977	0	118.1	4	39.1	4	-1E+10	1	-1E+10	1	-1E+10	1	-1E+10	1	-1E+10	1	-1E+10	1
4901784	59	C	02/14/2017	10:50	-132.430	44.112	0	302.20	0	6.0780	0	33.9650	4	26.728	0	299.552	0	116.7	4	38.6	4	-1E+10	1	-1E+10	1	-1E+10	1	-1E+10	1	-1E+10	1	-1E+10	1
4901784	59	C	02/14/2017	10:50	-132.430	44.112	0	304.90	0	6.0500	0	33.9640	4	26.731	0	302.227	0	115.1	4	38.1	4	-1E+10	1	-1E+10	1	-1E+10	1	-1E+10	1	-1E+10	1	-1E+10	1
4901784	59	C	02/14/2017	10:50	-132.430	44.112	0	307.50	0	6.0160	0	33.9640	4	26.735	0	304.802	0	113.3	4	37.5	4	-1E+10	1	-1E+10	1	-1E+10	1	-1E+10	1	-1E+10	1	-1E+10	1
4901784	59	C	02/14/2017	10:50	-132.430	44.112	0	310.10	0	5.9830	0	33.9660	4	26.741	0	307.377	0	111.5	4	36.8	4	-1E+10	1	-1E+10	1	-1E+10	1	-1E+10	1	-1E+10	1	-1E+10	1
4901784	59	C	02/14/2017	10:50	-132.430	44.112	0	312.80	0	5.9440	0	33.9680	4	26.748	0	310.052	0	109.8	4	36.2	4	-1E+10	1	-1E+10	1	-1E+10	1	-1E+10	1	-1E+10	1	-1E+10	1
4901784	59	C	02/14/2017	10:50	-132.430	44.112	0	314.60	0	5.9300	0	33.9680	4	26.749	0	311.834	0	108.8	4	35.9	4	-1E+10	1	-1E+10	1	-1E+10	1	-1E+10	1	-1E+10	1	-1E+10	1
4901784	59	C	02/14/2017	10:50	-132.430	44.112	0	317.20	0	5.9170	0	33.9710	4	26.753	0	314.410	0	107.4	4	35.4	4	-1E+10	1	-1E+10	1	-1E+10	1	-1E+10	1	-1E+10	1	-1E+10	1
4901784	59	C	02/14/2017	10:50	-132.430	44.112	0	319.90	0	5.9000	0	33.9720	4	26.756	0	317.084	0	105.9	4	34.9	4	-1E+10	1	-1E+10	1	-1E+10	1	-1E+10	1	-1E+10	1	-1E+10	1
4901784	59	C	02/14/2017	10:50	-132.430	44.112	0	322.50	0	5.8670	0	33.9720	4	26.760	0	319.659	0	104.6	4	34.5	4	-1E+10	1	-1E+10	1	-1E+10	1	-1E+10	1	-1E+10	1	-1E+10	1
4901784	59	C	02/14/2017	10:50	-132.430	44.112	0	325.10	0	5.8310	0	33.9730	4	26.766	0	322.234	0	103.0	4	33.9	4	-1E+10	1	-1E+10	1	-1E+10	1	-1E+10	1	-1E+10	1	-1E+10	1
4901784	59	C	02/14/2017	10:50	-132.430	44.112	0	327.70	0	5.7970	0	33.9750	4	26.772	0	324.809	0	101.7	4	33.5	4	-1E+10	1	-1E+10	1	-1E+10	1	-1E+10	1	-1E+10	1	-1E+10	1
4901784	59	C	02/14/2017	10:50	-132.430	44.112	0	330.40	0	5.7710	0	33.9750	4	26.775	0	327.483	0	100.4	4	33.0	4	-1E+10	1	-1E+10	1	-1E+10	1	-1E+10	1	-1E+10	1	-1E+10	1
4901784	59	C	02/14/2017	10:50	-132.430	44.112	0	332.10	0	5.7470	0	33.9750	4	26.778	0	329.167	0	99.5	4	32.7	4	-1E+10	1	-1E+10	1	-1E+10	1	-1E+10	1	-1E+10	1	-1E+10	1
4901784	59	C	02/14/2017	10:50	-132.430	44.112	0	334.80	0	5.7150	0	33.9780	4	26.784	0	331.841	0	98.2	4	32.3	4	-1E+10	1	-1E+10	1	-1E+10	1	-1E+10	1	-1E+10	1	-1E+10	1
4901784	59	C	02/14/2017	10:50	-132.430	44.112	0	337.50	0	5.6830	0	33.9780	4	26.788	0	334.515	0	97.3	4	31.9	4	-1E+10	1	-1E+10	1	-1E+10	1	-1E+10	1	-1E+10	1	-1E+10	1
4901784	59	C	02/14/2017	10:50	-132.430	44.112	0	340.10	0	5.6670	0	33.9790	4	26.791	0	337.090	0	96.4	4	31.6	4	-1E+10	1	-1E+10	1	-1E+10	1	-1E+10	1	-1E+10	1	-1E+10	1
4901784	59	C	02/14/2017	10:50	-132.430	44.112	0	342.80	0	5.6600	0	33.9780	4	26.791	0	339.763	0	95.4	4	31.3	4	-1E+10	1	-1E+10	1	-1E+10	1	-1E+10	1	-1E+10	1	-1E+10	1
4901784	59	C	02/14/2017	10:50	-132.430	44.112	0	344.60	0	5.6390	0	33.9790	4	26.794	0	341.546	0	94.5	4	31.0	4	-1E+10	1	-1E+10	1	-1E+10	1	-1E+10	1	-1E+10	1	-1E+10	1
4901784	59	C	02/14/2017	10:50	-132.430	44.112	0	347.30	0	5.6210	0	33.9790	4	26.796	0	344.220	0	93.1	4	30.5	4	-1E+10	1	-1E+10	1	-1E+10	1	-1E+10	1	-1E+10	1	-1E+10	1
4901784	59	C	02/14/2017	10:50	-132.430	44.112	0	350.00	0	5.5840	0	33.9800	4	26.802	0	346.894	0	91.4	4	29.9	4	-1E+10	1	-1E+10	1	-1E+10	1	-1E+10	1	-1E+10	1	-1E+10	1
4901784	59	C	02/14/2017	10:50	-132.430	44.112	0	352.80	0	5.5260	0	33.9830	4	26.811	0	349.666	0	89.9	4	29.4	4	-1E+10	1	-1E+10	1	-1E+10	1	-1E+10	1	-1E+10	1	-1E+10	1
4901784	59	C	02/14/2017	10:50	-132.430	44.112	0	355.60	0	5.4870	0	33.9840	4	26.816	0	352.439	0	88.8	4	29.0	4	-1E+10	1	-1E+10	1	-1E+10	1	-1E+10	1	-1E+10	1	-1E+10	1
4901784	59	C	02/14/2017	10:50	-132.430	44.112	0	357.40	0	5.4630	0	33.9840	4	26.819	0	354.222	0	88.0	4	28.7	4	-1E+10	1	-1E+10	1	-1E+10	1	-1E+10	1	-1E+10	1	-1E+10	1
4901784	59	C	02/14/2017	10:50	-132.430	44.112	0	360.20	0	5.4320	0	33.9850	4	26.824	0	356.994	0	86.6	4	28.2	4	-1E+10	1	-1E+10	1	-1E+10	1	-1E+10	1	-1E+10	1	-1E+10	1
4901784	59	C	02/14/2017	10:50	-132.430	44.112	0	362.90	0	5.4040	0	33.9880	4	26.829	0	359.668	0	84.9	4	27.7	4	-1E+10	1	-1E+10	1	-1E+10	1	-1E+10	1	-1E+10	1	-1E+10	1
4901784	59	C	02/14/2017	10:50	-132.430	44.112	0	364.70	0	5.3960	0	33.9890	4	26.831	0	361.450	0	83.7	4	27.3	4	-1E+10	1	-1E+10	1	-1E+10	1	-1E+10	1	-1E+10	1	-1E+10	1
4901784	59	C	02/14/2017	10:50	-132.430	44.112	0	367.40	0	5.3770	0	33.9910	4	26.835	0	364.124	0	81.7	4	26.6	4	-1E+10	1	-1E+10	1	-1E+10	1	-1E+10	1	-1E+10	1	-1E+10	1
4901784	59	C	02/14/2017	10:50	-132.430	44.112	0	370.20	0	5.3690	0	33.9950	4	26.839	0	366.896	0	79.5	4	25.9	4	-1E+10	1	-1E+10	1	-1E+10	1	-1E+10	1	-1E+10	1	-1E+10	1
4901784	59	C	02/14/2017	10:50	-132.430	44.112	0	372.10	0	5.3820	0	33.9990	4	26.841	0	368.778	0	78.3	4	25.5	4	-1E+10	1	-1E+10	1	-1E+10	1	-1E+10	1	-1E+10	1	-1E+10	1
4901784	59	C	02/14/2017	10:50	-132.430	44.112	0	374.90	0	5.3290	0	34.0010	4	26.849	0	371.550	0	77.3	4	25.2	4	-1E+10	1	-1E+10	1	-1E+10	1	-1E+10	1	-1E+10	1	-1E+10	1
4901784	59	C	02/14/2017	10:50	-132.430	44.112	0	377.80	0	5.2910	0	34.0020	4	26.854	0	374.422	0	76.2	4	24.8	4	-1E+10	1	-1E+10	1	-1E+10	1	-1E+10	1	-1E+10	1	-1E+10	1
4901784	59	C	02/14/2017	10:50	-132.430	44.112	0	379.60	0	5.2840	0	34.0040	4	26.856	0	376.204	0	75.4	4	24.5	4	-1E+10	1	-1E+10	1	-1E+10	1	-1E+10	1	-1E+10	1	-1E+10	1
4901784	59	C	02/14/2017	10:50	-132.430	44.112	0	382.40	0	5.2670	0	34.0050	4	26.859	0	378.976	0	74.3	4	24.1	4	-1E+10	1	-1E+10	1	-1E+10	1	-1E+10	1	-1E+10	1	-1E+10	1
4901784	59	C	02/14/2017	10:50	-132.430	44.112	0	385.20	0	5.2420	0	34.0080	4	26.865	0	381.749	0	72.7	4	23.6	4	-1E+10	1	-1E+10	1	-1E+10	1	-1E+10	1	-1E+10	1	-1E+10	1
4901784	59	C	02/14/2017	10:50	-132.430	44.112	0	387.10	0	5.2270	0	34.0080	4	26.866	0	383.630	0	71.6	4	23.3	4	-1E+10	1	-1E+10	1	-1E+10	1	-1E+10	1	-1E+10	1	-1E+10	1
4901784	59	C	02/14/2017	10:50	-132.430	44.112	0	390.00	0	5.2130	0	34.0120	4	26.871	0	386.501	0	69.8	4	22.6	4	-1E+10	1	-1E+10	1	-1E+10	1	-1E+10	1	-1E+10	1	-1E+10	1
4901784	59	C	02/14/2017	10:50	-132.430	44.112	0	392.80	0	5.2110	0	34.0180	4	26.876	0	389.274	0	68.2	4	22.1	4	-1E+10	1	-1E+10	1	-1E+10	1	-1E+10	1	-1E+10	1	-1E+10	1
4901784	59	C	02/14/2017	10:50	-132.430	44.112	0	394.70	0	5.2010	0	34.0200	4	26.879	0	391.155	0	67.3	4	21.8	4	-1E+10	1	-1E+10	1	-1E+10	1	-1E+10	1	-1E+10	1	-1E+10	1
4901784	59	C	02/14/2017	10:50	-132.430	44.112	0	397.60	0	5.1810	0	34.0260	4	26.886	0	394.026	0	66.4	4	21.5	4	-1E+10	1	-1E+10	1	-1E+10	1	-1E+10	1	-1E+10	1	-1E+10	1
4901784	59	C	02/14/2017	10:50	-132.430	44.112	0	400.40	0	5.1620	0	34.0270	4	26.889	0	396.798	0	65.9	4	21.4	4	-1E+10	1	-1E+10	1	-1E+10	1	-1E+10	1	-1E+10	1	-1E+10	1
4901784	59	C	02/14/2017	10:50	-132.430	44.112	0	402.40	0	5.1560	0	34.0270	4	26.890	0	398.778	0	65.4	4	21.2	4	-1E+10	1	-1E+10	1	-1E+10	1	-1E+10	1	-1E+10	1	-1E+10	1
4901784	59	C	02/14/2017	10:50	-132.430	44.112	0	404.20	0	5.1540	0	34.0280	4	26.891	0	400.560	0	64.9	4	21.0	4	-1E+10	1	-1E+10	1	-1E+10	1	-1E+10	1	-1E+10	1	-1E+10	1
4901784	59	C	02/14/2017	10:50	-132.430	44.112	0	407.20	0	5.1420	0	34.0300	4	26.894	0	403.530	0	63.7	4	20.7	4	-1E+10	1	-1E+10	1	-1E+10	1	-1E+10	1	-1E+10	1	-1E+10	1
4901784	59	C	02/14/2017	10:50	-132.430	44.112	0	410.10	0	5.1240	0	34.0340	4	26.899	0	406.401	0	62.6	4	20.3	4	-1E+10	1	-1E+10	1	-1E+10	1	-1E+10	1	-1E+10	1	-1E+10	1
4901784	59	C	02/14/2017	10:50	-132.430	44.112	0	412.60	0	5.1170	0	34.0380	4	26.903	0	408.876	0	61.9	4	20.1	4	-1E+10	1	-1E+10	1	-1E+10	1	-1E+10	1	-1E+10	1	-1E+10	1
4901784	59	C	02/14/2017	10:50	-132.430	44.112	0	415.10	0	5.1080	0	34.0380	4	26.904	0	411.351	0	61.4	4	19.9	4	-1E+10	1	-1E+10	1	-1E+10	1	-1E+10	1	-1E+10	1	-1E+10	1
4901784	59	C	02/14/2017	10:50	-132.430	44.112	0	417.60	0	5.0890	0	34.0390	4	26.907	0	413.826	0	60.7	4	19.6	4	-1E+10	1	-1E+10	1	-1E+10	1	-1E+10	1	-1E+10	1	-1E+10	1
4901784	59	C	02/14/2017	10:50	-132.430	44.112	0	420.10	0	5.0580	0	34.0410	4	26.912	0	416.301	0	60.0	4	19.4	4	-1E+10	1	-1E+10	1	-1E+10	1	-1E+10	1	-1E+10	1	-1E+10	1
4901784	59	C	02/14/2017	10:50	-132.430	44.112	0	422.60	0	5.0480	0	34.0420	4	26.914	0	418.776	0	59.2	4	19.1	4	-1E+10	1	-1E+10	1	-1E+10	1	-1E+10	1	-1E+10	1	-1E+10	1
4901784	59	C	02/14/2017	10:50	-132.430	44.112	0	425.00	0	5.0360	0	34.0430	4	26.916	0	421.152	0	58.1	4	18.8	4	-1E+10	1	-1E+10	1	-1E+10	1	-1E+10	1	-1E+10	1	-1E+10	1
4901784	59	C	02/14/2017	10:50	-132.430	44.112	0	427.50	0	5.0300	0	34.0480	4	26.921	0	423.627	0	56.6	4	18.3	4	-1E+10	1	-1E+10	1	-1E+10	1	-1E+10	1	-1E+10	1	-1E+10	1
4901784	59	C	02/14/2017	10:50	-132.430	44.112	0	430.00	0	5.0120	0	34.0520	4	26.926	0	426.101	0	55.6	4	18.0	4	-1E+10	1	-1E+10	1	-1E+10	1	-1E+10	1	-1E+10	1	-1E+10	1
4901784	59	C	02/14/2017	10:50	-132.430	44.112	0	432.50	0	4.9600	0	34.0550	4	26.935	0	428.576	0	55.1	4	17.8	4	-1E+10	1	-1E+10	1	-1E+10	1	-1E+10	1	-1E+10	1	-1E+10	1
4901784	59	C	02/14/2017	10:50	-132.430	44.112	0	435.00	0	4.9500	0	34.0560	4	26.937	0	431.051	0	54.5	4	17.6	4	-1E+10	1	-1E+10	1	-1E+10	1	-1E+10	1	-1E+10	1	-1E+10	1
4901784	59	C	02/14/2017	10:50	-132.430	44.112	0	437.50	0	4.9470	0	34.0570	4	26.938	0	433.526	0	53.7	4	17.3	4	-1E+10	1	-1E+10	1	-1E+10	1	-1E+10	1	-1E+10	1	-1E+10	1
4901784	59	C	02/14/2017	10:50	-132.430	44.112	0	440.10	0	4.9360	0	34.0580	4	26.940	0	436.099	0	52.6	4	17.0	4	-1E+10	1	-1E+10	1	-1E+10	1	-1E+10	1	-1E+10	1	-1E+10	1
4901784	59	C	02/14/2017	10:50	-132.430	44.112	0	442.60	0	4.8990	0	34.0640	4	26.949	0	438.574	0	51.5	4	16.6	4	-1E+10	1	-1E+10	1	-1E+10	1	-1E+10	1	-1E+10	1	-1E+10	1
4901784	59	C	02/14/2017	10:50	-132.430	44.112	0	445.10	0	4.8920	0	34.0650	4	26.950	0	441.049	0	50.5	4	16.3	4	-1E+10	1	-1E+10	1	-1E+10	1	-1E+10	1	-1E+10	1	-1E+10	1
4901784	59	C	02/14/2017	10:50	-132.430	44.112	0	447.60	0	4.8800	0	34.0710	4	26.956	0	443.523	0	49.5	4	16.0	4	-1E+10	1	-1E+10	1	-1E+10	1	-1E+10	1	-1E+10	1	-1E+10	1
4901784	59	C	02/14/2017	10:50	-132.430	44.112	0	450.10	0	4.8700	0	34.0750	4	26.961	0	445.998	0	48.7	4	15.7	4	-1E+10	1	-1E+10	1	-1E+10	1	-1E+10	1	-1E+10	1	-1E+10	1
4901784	59	C	02/14/2017	10:50	-132.430	44.112	0	452.70	0	4.8650	0	34.0780	4	26.964	0	448.571	0	48.2	4	15.5	4	-1E+10	1	-1E+10	1	-1E+10	1	-1E+10	1	-1E+10	1	-1E+10	1
4901784	59	C	02/14/2017	10:50	-132.430	44.112	0	455.20	0	4.8610	0	34.0790	4	26.965	0	451.046	0	47.8	4	15.4	4	-1E+10	1	-1E+10	1	-1E+10	1	-1E+10	1	-1E+10	1	-1E+10	1
4901784	59	C	02/14/2017	10:50	-132.430	44.112	0	457.80	0	4.8430	0	34.0800	4	26.968	0	453.619	0	47.2	4	15.2	4	-1E+10	1	-1E+10	1	-1E+10	1	-1E+10	1	-1E+10	1	-1E+10	1
4901784	59	C	02/14/2017	10:50	-132.430	44.112	0	460.30	0	4.8340	0	34.0820	4	26.970	0	456.093	0	46.2	4	14.9	4	-1E+10	1	-1E+10	1	-1E+10	1	-1E+10	1	-1E+10	1	-1E+10	1
4901784	59	C	02/14/2017	10:50	-132.430	44.112	0	462.10	0	4.8330	0	34.0840	4	26.972	0	457.875	0	45.6	4	14.7	4	-1E+10	1	-1E+10	1	-1E+10	1	-1E+10	1	-1E+10	1	-1E+10	1
4901784	59	C	02/14/2017	10:50	-132.430	44.112	0	464.60	0	4.8220	0	34.0880	4	26.977	0	460.349	0	44.7	4	14.4	4	-1E+10	1	-1E+10	1	-1E+10	1	-1E+10	1	-1E+10	1	-1E+10	1
4901784	59	C	02/14/2017	10:50	-132.430	44.112	0	467.20	0	4.8130	0	34.0900	4	26.979	0	462.923	0	43.8	4	14.1	4	-1E+10	1	-1E+10	1	-1E+10	1	-1E+10	1	-1E+10	1	-1E+10	1
4901784	59	C	02/14/2017	10:50	-132.430	44.112	0	469.80	0	4.8020	0	34.0930	4	26.983	0	465.496	0	42.8	4	13.8	4	-1E+10	1	-1E+10	1	-1E+10	1	-1E+10	1	-1E+10	1	-1E+10	1
4901784	59	C	02/14/2017	10:50	-132.430	44.112	0	472.30	0	4.7840	0	34.0970	4	26.988	0	467.970	0	41.8	4	13.4	4	-1E+10	1	-1E+10	1	-1E+10	1	-1E+10	1	-1E+10	1	-1E+10	1
4901784	59	C	02/14/2017	10:50	-132.430	44.112	0	475.00	0	4.7710	0	34.0990	4	26.991	0	470.642	0	40.8	4	13.1	4	-1E+10	1	-1E+10	1	-1E+10	1	-1E+10	1	-1E+10	1	-1E+10	1
4901784	59	C	02/14/2017	10:50	-132.430	44.112	0	477.50	0	4.7400	0	34.1050	4	26.999	0	473.117	0	40.0	4	12.8	4	-1E+10	1	-1E+10	1	-1E+10	1	-1E+10	1	-1E+10	1	-1E+10	1
4901784	59	C	02/14/2017	10:50	-132.430	44.112	0	480.10	0	4.7260	0	34.1070	4	27.002	0	475.690	0	39.2	4	12.6	4	-1E+10	1	-1E+10	1	-1E+10	1	-1E+10	1	-1E+10	1	-1E+10	1
4901784	59	C	02/14/2017	10:50	-132.430	44.112	0	482.70	0	4.6890	0	34.1120	4	27.010	0	478.263	0	38.6	4	12.4	4	-1E+10	1	-1E+10	1	-1E+10	1	-1E+10	1	-1E+10	1	-1E+10	1
4901784	59	C	02/14/2017	10:50	-132.430	44.112	0	485.30	0	4.6750	0	34.1150	4	27.014	0	480.836	0	38.1	4	12.2	4	-1E+10	1	-1E+10	1	-1E+10	1	-1E+10	1	-1E+10	1	-1E+10	1
4901784	59	C	02/14/2017	10:50	-132.430	44.112	0	487.90	0	4.6770	0	34.1170	4	27.016	0	483.409	0	37.6	4	12.0	4	-1E+10	1	-1E+10	1	-1E+10	1	-1E+10	1	-1E+10	1	-1E+10	1
4901784	59	C	02/14/2017	10:50	-132.430	44.112	0	489.70	0	4.6760	0	34.1180	4	27.017	0	485.190	0	37.2	4	11.9	4	-1E+10	1	-1E+10	1	-1E+10	1	-1E+10	1	-1E+10	1	-1E+10	1
4901784	59	C	02/14/2017	10:50	-132.430	44.112	0	492.30	0	4.6840	0	34.1200	4	27.017	0	487.763	0	36.7	4	11.8	4	-1E+10	1	-1E+10	1	-1E+10	1	-1E+10	1	-1E+10	1	-1E+10	1
4901784	59	C	02/14/2017	10:50	-132.430	44.112	0	495.00	0	4.6850	0	34.1230	4	27.020	0	490.435	0	36.2	4	11.6	4	-1E+10	1	-1E+10	1	-1E+10	1	-1E+10	1	-1E+10	1	-1E+10	1
4901784	59	C	02/14/2017	10:50	-132.430	44.112	0	497.60	0	4.6760	0	34.1240	4	27.022	0	493.008	0	35.9	4	11.5	4	-1E+10	1	-1E+10	1	-1E+10	1	-1E+10	1	-1E+10	1	-1E+10	1
4901784	59	C	02/14/2017	10:50	-132.430	44.112	0	500.30	0	4.6720	0	34.1230	4	27.021	0	495.680	0	35.6	4	11.4	4	-1E+10	1	-1E+10	1	-1E+10	1	-1E+10	1	-1E+10	1	-1E+10	1
4901784	59	C	02/14/2017	10:50	-132.430	44.112	0	505.70	0	4.6220	0	34.1290	4	27.031	0	501.024	0	33.8	4	10.8	4	-1E+10	1	-1E+10	1	-1E+10	1	-1E+10	1	-1E+10	1	-1E+10	1
4901784	59	C	02/14/2017	10:50	-132.430	44.112	0	510.20	0	4.6150	0	34.1370	4	27.039	0	505.477	0	32.7	4	10.5	4	-1E+10	1	-1E+10	1	-1E+10	1	-1E+10	1	-1E+10	1	-1E+10	1
4901784	59	C	02/14/2017	10:50	-132.430	44.112	0	514.60	0	4.6100	0	34.1400	4	27.042	0	509.831	0	31.8	4	10.2	4	-1E+10	1	-1E+10	1	-1E+10	1	-1E+10	1	-1E+10	1	-1E+10	1
4901784	59	C	02/14/2017	10:50	-132.430	44.112	0	520.00	0	4.5690	0	34.1450	4	27.050	0	515.174	0	30.9	4	9.9	4	-1E+10	1	-1E+10	1	-1E+10	1	-1E+10	1	-1E+10	1	-1E+10	1
4901784	59	C	02/14/2017	10:50	-132.430	44.112	0	525.60	0	4.5340	0	34.1480	4	27.056	0	520.715	0	29.8	4	9.5	4	-1E+10	1	-1E+10	1	-1E+10	1	-1E+10	1	-1E+10	1	-1E+10	1
4901784	59	C	02/14/2017	10:50	-132.430	44.112	0	530.20	0	4.5000	0	34.1540	4	27.065	0	525.266	0	28.9	4	9.2	4	-1E+10	1	-1E+10	1	-1E+10	1	-1E+10	1	-1E+10	1	-1E+10	1
4901784	59	C	02/14/2017	10:50	-132.430	44.112	0	534.80	0	4.4580	0	34.1590	4	27.073	0	529.818	0	28.3	4	9.0	4	-1E+10	1	-1E+10	1	-1E+10	1	-1E+10	1	-1E+10	1	-1E+10	1
4901784	59	C	02/14/2017	10:50	-132.430	44.112	0	540.50	0	4.4460	0	34.1620	4	27.077	0	535.457	0	27.7	4	8.8	4	-1E+10	1	-1E+10	1	-1E+10	1	-1E+10	1	-1E+10	1	-1E+10	1
4901784	59	C	02/14/2017	10:50	-132.430	44.112	0	545.10	0	4.4320	0	34.1660	4	27.082	0	540.008	0	27.0	4	8.6	4	-1E+10	1	-1E+10	1	-1E+10	1	-1E+10	1	-1E+10	1	-1E+10	1
4901784	59	C	02/14/2017	10:50	-132.430	44.112	0	549.70	0	4.4220	0	34.1700	4	27.086	0	544.559	0	26.4	4	8.4	4	-1E+10	1	-1E+10	1	-1E+10	1	-1E+10	1	-1E+10	1	-1E+10	1
4901784	59	C	02/14/2017	10:50	-132.430	44.112	0	555.40	0	4.4200	0	34.1740	4	27.089	0	550.199	0	25.7	4	8.2	4	-1E+10	1	-1E+10	1	-1E+10	1	-1E+10	1	-1E+10	1	-1E+10	1
4901784	59	C	02/14/2017	10:50	-132.430	44.112	0	560.70	0	4.4130	0	34.1770	4	27.093	0	555.442	0	25.1	4	8.0	4	-1E+10	1	-1E+10	1	-1E+10	1	-1E+10	1	-1E+10	1	-1E+10	1
4901784	59	C	02/14/2017	10:50	-132.430	44.112	0	565.50	0	4.4000	0	34.1810	4	27.097	0	560.190	0	24.6	4	7.8	4	-1E+10	1	-1E+10	1	-1E+10	1	-1E+10	1	-1E+10	1	-1E+10	1
4901784	59	C	02/14/2017	10:50	-132.430	44.112	0	570.30	0	4.3880	0	34.1840	4	27.101	0	564.939	0	24.3	4	7.7	4	-1E+10	1	-1E+10	1	-1E+10	1	-1E+10	1	-1E+10	1	-1E+10	1
4901784	59	C	02/14/2017	10:50	-132.430	44.112	0	575.20	0	4.3700	0	34.1860	4	27.104	0	569.786	0	24.0	4	7.6	4	-1E+10	1	-1E+10	1	-1E+10	1	-1E+10	1	-1E+10	1	-1E+10	1
4901784	59	C	02/14/2017	10:50	-132.430	44.112	0	580.10	0	4.3580	0	34.1860	4	27.106	0	574.633	0	23.6	4	7.5	4	-1E+10	1	-1E+10	1	-1E+10	1	-1E+10	1	-1E+10	1	-1E+10	1
4901784	59	C	02/14/2017	10:50	-132.430	44.112	0	585.00	0	4.3250	0	34.1920	4	27.114	0	579.480	0	23.0	4	7.3	4	-1E+10	1	-1E+10	1	-1E+10	1	-1E+10	1	-1E+10	1	-1E+10	1
4901784	59	C	02/14/2017	10:50	-132.430	44.112	0	589.90	0	4.3200	0	34.1950	4	27.117	0	584.327	0	22.6	4	7.2	4	-1E+10	1	-1E+10	1	-1E+10	1	-1E+10	1	-1E+10	1	-1E+10	1
4901784	59	C	02/14/2017	10:50	-132.430	44.112	0	594.90	0	4.2940	0	34.1990	4	27.123	0	589.273	0	22.0	4	7.0	4	-1E+10	1	-1E+10	1	-1E+10	1	-1E+10	1	-1E+10	1	-1E+10	1
4901784	59	C	02/14/2017	10:50	-132.430	44.112	0	599.90	0	4.2780	0	34.2030	4	27.128	0	594.218	0	21.5	4	6.8	4	-1E+10	1	-1E+10	1	-1E+10	1	-1E+10	1	-1E+10	1	-1E+10	1
4901784	59	C	02/14/2017	10:50	-132.430	44.112	0	604.90	0	4.2600	0	34.2080	4	27.134	0	599.164	0	20.9	4	6.6	4	-1E+10	1	-1E+10	1	-1E+10	1	-1E+10	1	-1E+10	1	-1E+10	1
4901784	59	C	02/14/2017	10:50	-132.430	44.112	0	610.00	0	4.2400	0	34.2140	4	27.141	0	604.208	0	20.2	4	6.4	4	-1E+10	1	-1E+10	1	-1E+10	1	-1E+10	1	-1E+10	1	-1E+10	1
4901784	59	C	02/14/2017	10:50	-132.430	44.112	0	615.20	0	4.2250	0	34.2190	4	27.146	0	609.351	0	19.8	4	6.3	4	-1E+10	1	-1E+10	1	-1E+10	1	-1E+10	1	-1E+10	1	-1E+10	1
4901784	59	C	02/14/2017	10:50	-132.430	44.112	0	620.40	0	4.2150	0	34.2210	4	27.149	0	614.494	0	19.4	4	6.2	4	-1E+10	1	-1E+10	1	-1E+10	1	-1E+10	1	-1E+10	1	-1E+10	1
4901784	59	C	02/14/2017	10:50	-132.430	44.112	0	625.60	0	4.1970	0	34.2270	4	27.156	0	619.637	0	18.9	4	6.0	4	-1E+10	1	-1E+10	1	-1E+10	1	-1E+10	1	-1E+10	1	-1E+10	1
4901784	59	C	02/14/2017	10:50	-132.430	44.112	0	630.00	0	4.1870	0	34.2300	4	27.159	0	623.988	0	18.6	4	5.9	4	-1E+10	1	-1E+10	1	-1E+10	1	-1E+10	1	-1E+10	1	-1E+10	1
4901784	59	C	02/14/2017	10:50	-132.430	44.112	0	634.40	0	4.1740	0	34.2340	4	27.164	0	628.339	0	18.3	4	5.8	4	-1E+10	1	-1E+10	1	-1E+10	1	-1E+10	1	-1E+10	1	-1E+10	1
4901784	59	C	02/14/2017	10:50	-132.430	44.112	0	639.60	0	4.1640	0	34.2360	4	27.166	0	633.482	0	18.0	4	5.7	4	-1E+10	1	-1E+10	1	-1E+10	1	-1E+10	1	-1E+10	1	-1E+10	1
4901784	59	C	02/14/2017	10:50	-132.430	44.112	0	645.00	0	4.1530	0	34.2390	4	27.170	0	638.822	0	17.6	4	5.6	4	-1E+10	1	-1E+10	1	-1E+10	1	-1E+10	1	-1E+10	1	-1E+10	1
4901784	59	C	02/14/2017	10:50	-132.430	44.112	0	650.40	0	4.1330	0	34.2450	4	27.177	0	644.162	0	17.2	4	5.4	4	-1E+10	1	-1E+10	1	-1E+10	1	-1E+10	1	-1E+10	1	-1E+10	1
4901784	59	C	02/14/2017	10:50	-132.430	44.112	0	655.00	0	4.1160	0	34.2510	4	27.183	0	648.711	0	16.8	4	5.3	4	-1E+10	1	-1E+10	1	-1E+10	1	-1E+10	1	-1E+10	1	-1E+10	1
4901784	59	C	02/14/2017	10:50	-132.430	44.112	0	659.70	0	4.0930	0	34.2560	4	27.190	0	653.358	0	16.6	4	5.2	4	-1E+10	1	-1E+10	1	-1E+10	1	-1E+10	1	-1E+10	1	-1E+10	1
4901784	59	C	02/14/2017	10:50	-132.430	44.112	0	665.30	0	4.0740	0	34.2610	4	27.196	0	658.895	0	16.3	4	5.2	4	-1E+10	1	-1E+10	1	-1E+10	1	-1E+10	1	-1E+10	1	-1E+10	1
4901784	59	C	02/14/2017	10:50	-132.430	44.112	0	669.90	0	4.0600	0	34.2640	4	27.200	0	663.444	0	16.2	4	5.1	4	-1E+10	1	-1E+10	1	-1E+10	1	-1E+10	1	-1E+10	1	-1E+10	1
4901784	59	C	02/14/2017	10:50	-132.430	44.112	0	674.50	0	4.0550	0	34.2650	4	27.201	0	667.992	0	16.1	4	5.1	4	-1E+10	1	-1E+10	1	-1E+10	1	-1E+10	1	-1E+10	1	-1E+10	1
4901784	59	C	02/14/2017	10:50	-132.430	44.112	0	680.20	0	4.0370	0	34.2680	4	27.205	0	673.628	0	15.9	4	5.0	4	-1E+10	1	-1E+10	1	-1E+10	1	-1E+10	1	-1E+10	1	-1E+10	1
4901784	59	C	02/14/2017	10:50	-132.430	44.112	0	684.80	0	4.0170	0	34.2710	4	27.210	0	678.176	0	15.7	4	5.0	4	-1E+10	1	-1E+10	1	-1E+10	1	-1E+10	1	-1E+10	1	-1E+10	1
4901784	59	C	02/14/2017	10:50	-132.430	44.112	0	689.40	0	3.9960	0	34.2750	4	27.215	0	682.724	0	15.6	4	4.9	4	-1E+10	1	-1E+10	1	-1E+10	1	-1E+10	1	-1E+10	1	-1E+10	1
4901784	59	C	02/14/2017	10:50	-132.430	44.112	0	695.10	0	3.9650	0	34.2810	4	27.223	0	688.359	0	15.4	4	4.9	4	-1E+10	1	-1E+10	1	-1E+10	1	-1E+10	1	-1E+10	1	-1E+10	1
4901784	59	C	02/14/2017	10:50	-132.430	44.112	0	699.90	0	3.9590	0	34.2820	4	27.225	0	693.105	0	15.4	4	4.9	4	-1E+10	1	-1E+10	1	-1E+10	1	-1E+10	1	-1E+10	1	-1E+10	1
4901784	59	C	02/14/2017	10:50	-132.430	44.112	0	704.60	0	3.9530	0	34.2840	4	27.227	0	697.751	0	15.3	4	4.8	4	-1E+10	1	-1E+10	1	-1E+10	1	-1E+10	1	-1E+10	1	-1E+10	1
4901784	59	C	02/14/2017	10:50	-132.430	44.112	0	709.40	0	3.9430	0	34.2860	4	27.229	0	702.497	0	15.1	4	4.8	4	-1E+10	1	-1E+10	1	-1E+10	1	-1E+10	1	-1E+10	1	-1E+10	1
4901784	59	C	02/14/2017	10:50	-132.430	44.112	0	714.20	0	3.9360	0	34.2900	4	27.233	0	707.242	0	14.9	4	4.7	4	-1E+10	1	-1E+10	1	-1E+10	1	-1E+10	1	-1E+10	1	-1E+10	1
4901784	59	C	02/14/2017	10:50	-132.430	44.112	0	719.60	0	3.9380	0	34.2910	4	27.234	0	712.580	0	14.7	4	4.6	4	-1E+10	1	-1E+10	1	-1E+10	1	-1E+10	1	-1E+10	1	-1E+10	1
4901784	59	C	02/14/2017	10:50	-132.430	44.112	0	724.40	0	3.9390	0	34.2930	4	27.235	0	717.325	0	14.4	4	4.5	4	-1E+10	1	-1E+10	1	-1E+10	1	-1E+10	1	-1E+10	1	-1E+10	1
4901784	59	C	02/14/2017	10:50	-132.430	44.112	0	730.00	0	3.9400	0	34.2990	4	27.240	0	722.860	0	14.0	4	4.4	4	-1E+10	1	-1E+10	1	-1E+10	1	-1E+10	1	-1E+10	1	-1E+10	1
4901784	59	C	02/14/2017	10:50	-132.430	44.112	0	735.70	0	3.9370	0	34.3030	4	27.244	0	728.495	0	13.8	4	4.4	4	-1E+10	1	-1E+10	1	-1E+10	1	-1E+10	1	-1E+10	1	-1E+10	1
4901784	59	C	02/14/2017	10:50	-132.430	44.112	0	740.60	0	3.9350	0	34.3040	4	27.245	0	733.338	0	13.7	4	4.3	4	-1E+10	1	-1E+10	1	-1E+10	1	-1E+10	1	-1E+10	1	-1E+10	1
4901784	59	C	02/14/2017	10:50	-132.430	44.112	0	745.50	0	3.9350	0	34.3060	4	27.246	0	738.181	0	13.4	4	4.2	4	-1E+10	1	-1E+10	1	-1E+10	1	-1E+10	1	-1E+10	1	-1E+10	1
4901784	59	C	02/14/2017	10:50	-132.430	44.112	0	750.40	0	3.9260	0	34.3110	4	27.251	0	743.025	0	13.2	4	4.2	4	-1E+10	1	-1E+10	1	-1E+10	1	-1E+10	1	-1E+10	1	-1E+10	1
4901784	59	C	02/14/2017	10:50	-132.430	44.112	0	755.30	0	3.9190	0	34.3140	4	27.254	0	747.868	0	13.0	4	4.1	4	-1E+10	1	-1E+10	1	-1E+10	1	-1E+10	1	-1E+10	1	-1E+10	1
4901784	59	C	02/14/2017	10:50	-132.430	44.112	0	760.30	0	3.8980	0	34.3200	4	27.261	0	752.809	0	12.7	4	4.0	4	-1E+10	1	-1E+10	1	-1E+10	1	-1E+10	1	-1E+10	1	-1E+10	1
4901784	59	C	02/14/2017	10:50	-132.430	44.112	0	765.30	0	3.8800	0	34.3260	4	27.268	0	757.751	0	12.6	4	4.0	4	-1E+10	1	-1E+10	1	-1E+10	1	-1E+10	1	-1E+10	1	-1E+10	1
4901784	59	C	02/14/2017	10:50	-132.430	44.112	0	770.30	0	3.8690	0	34.3290	4	27.272	0	762.693	0	12.4	4	3.9	4	-1E+10	1	-1E+10	1	-1E+10	1	-1E+10	1	-1E+10	1	-1E+10	1
4901784	59	C	02/14/2017	10:50	-132.430	44.112	0	775.30	0	3.8490	0	34.3350	4	27.278	0	767.634	0	12.3	4	3.9	4	-1E+10	1	-1E+10	1	-1E+10	1	-1E+10	1	-1E+10	1	-1E+10	1
4901784	59	C	02/14/2017	10:50	-132.430	44.112	0	780.30	0	3.8390	0	34.3370	4	27.281	0	772.575	0	12.1	4	3.8	4	-1E+10	1	-1E+10	1	-1E+10	1	-1E+10	1	-1E+10	1	-1E+10	1
4901784	59	C	02/14/2017	10:50	-132.430	44.112	0	785.50	0	3.8240	0	34.3420	4	27.287	0	777.714	0	12.1	4	3.8	4	-1E+10	1	-1E+10	1	-1E+10	1	-1E+10	1	-1E+10	1	-1E+10	1
4901784	59	C	02/14/2017	10:50	-132.430	44.112	0	790.70	0	3.8100	0	34.3450	4	27.290	0	782.853	0	12.0	4	3.8	4	-1E+10	1	-1E+10	1	-1E+10	1	-1E+10	1	-1E+10	1	-1E+10	1
4901784	59	C	02/14/2017	10:50	-132.430	44.112	0	795.00	0	3.8050	0	34.3460	4	27.292	0	787.102	0	11.9	4	3.8	4	-1E+10	1	-1E+10	1	-1E+10	1	-1E+10	1	-1E+10	1	-1E+10	1
4901784	59	C	02/14/2017	10:50	-132.430	44.112	0	799.30	0	3.7960	0	34.3480	4	27.294	0	791.351	0	11.9	4	3.7	4	-1E+10	1	-1E+10	1	-1E+10	1	-1E+10	1	-1E+10	1	-1E+10	1
4901784	59	C	02/14/2017	10:50	-132.430	44.112	0	804.60	0	3.7860	0	34.3510	4	27.298	0	796.589	0	11.8	4	3.7	4	-1E+10	1	-1E+10	1	-1E+10	1	-1E+10	1	-1E+10	1	-1E+10	1
4901784	59	C	02/14/2017	10:50	-132.430	44.112	0	809.90	0	3.7750	0	34.3540	4	27.301	0	801.826	0	11.8	4	3.7	4	-1E+10	1	-1E+10	1	-1E+10	1	-1E+10	1	-1E+10	1	-1E+10	1
4901784	59	C	02/14/2017	10:50	-132.430	44.112	0	815.20	0	3.7600	0	34.3560	4	27.304	0	807.063	0	11.9	4	3.7	4	-1E+10	1	-1E+10	1	-1E+10	1	-1E+10	1	-1E+10	1	-1E+10	1
4901784	59	C	02/14/2017	10:50	-132.430	44.112	0	820.60	0	3.7350	0	34.3580	4	27.308	0	812.398	0	11.9	4	3.7	4	-1E+10	1	-1E+10	1	-1E+10	1	-1E+10	1	-1E+10	1	-1E+10	1
4901784	59	C	02/14/2017	10:50	-132.430	44.112	0	825.00	0	3.7300	0	34.3580	4	27.309	0	816.746	0	11.9	4	3.8	4	-1E+10	1	-1E+10	1	-1E+10	1	-1E+10	1	-1E+10	1	-1E+10	1
4901784	59	C	02/14/2017	10:50	-132.430	44.112	0	829.50	0	3.7020	0	34.3590	4	27.312	0	821.192	0	12.0	4	3.8	4	-1E+10	1	-1E+10	1	-1E+10	1	-1E+10	1	-1E+10	1	-1E+10	1
4901784	59	C	02/14/2017	10:50	-132.430	44.112	0	834.80	0	3.6920	0	34.3620	4	27.316	0	826.428	0	11.9	4	3.7	4	-1E+10	1	-1E+10	1	-1E+10	1	-1E+10	1	-1E+10	1	-1E+10	1
4901784	59	C	02/14/2017	10:50	-132.430	44.112	0	840.00	0	3.6890	0	34.3660	4	27.319	0	831.566	0	11.7	4	3.7	4	-1E+10	1	-1E+10	1	-1E+10	1	-1E+10	1	-1E+10	1	-1E+10	1
4901784	59	C	02/14/2017	10:50	-132.430	44.112	0	845.40	0	3.6780	0	34.3700	4	27.324	0	836.901	0	11.7	4	3.7	4	-1E+10	1	-1E+10	1	-1E+10	1	-1E+10	1	-1E+10	1	-1E+10	1
4901784	59	C	02/14/2017	10:50	-132.430	44.112	0	849.90	0	3.6640	0	34.3710	4	27.326	0	841.346	0	11.8	4	3.7	4	-1E+10	1	-1E+10	1	-1E+10	1	-1E+10	1	-1E+10	1	-1E+10	1
4901784	59	C	02/14/2017	10:50	-132.430	44.112	0	854.30	0	3.6440	0	34.3720	4	27.329	0	845.693	0	11.8	4	3.7	4	-1E+10	1	-1E+10	1	-1E+10	1	-1E+10	1	-1E+10	1	-1E+10	1
4901784	59	C	02/14/2017	10:50	-132.430	44.112	0	859.70	0	3.6200	0	34.3750	4	27.333	0	851.028	0	11.8	4	3.7	4	-1E+10	1	-1E+10	1	-1E+10	1	-1E+10	1	-1E+10	1	-1E+10	1
4901784	59	C	02/14/2017	10:50	-132.430	44.112	0	865.10	0	3.6000	0	34.3780	4	27.338	0	856.362	0	11.7	4	3.7	4	-1E+10	1	-1E+10	1	-1E+10	1	-1E+10	1	-1E+10	1	-1E+10	1
4901784	59	C	02/14/2017	10:50	-132.430	44.112	0	870.50	0	3.5920	0	34.3820	4	27.342	0	861.697	0	11.6	4	3.6	4	-1E+10	1	-1E+10	1	-1E+10	1	-1E+10	1	-1E+10	1	-1E+10	1
4901784	59	C	02/14/2017	10:50	-132.430	44.112	0	875.10	0	3.6050	0	34.3870	4	27.345	0	866.241	0	11.3	4	3.6	4	-1E+10	1	-1E+10	1	-1E+10	1	-1E+10	1	-1E+10	1	-1E+10	1
4901784	59	C	02/14/2017	10:50	-132.430	44.112	0	879.70	0	3.6130	0	34.3900	4	27.346	0	870.784	0	11.3	4	3.5	4	-1E+10	1	-1E+10	1	-1E+10	1	-1E+10	1	-1E+10	1	-1E+10	1
4901784	59	C	02/14/2017	10:50	-132.430	44.112	0	885.10	0	3.6080	0	34.3930	4	27.349	0	876.118	0	11.2	4	3.5	4	-1E+10	1	-1E+10	1	-1E+10	1	-1E+10	1	-1E+10	1	-1E+10	1
4901784	59	C	02/14/2017	10:50	-132.430	44.112	0	890.60	0	3.5870	0	34.3970	4	27.354	0	881.551	0	11.2	4	3.5	4	-1E+10	1	-1E+10	1	-1E+10	1	-1E+10	1	-1E+10	1	-1E+10	1
4901784	59	C	02/14/2017	10:50	-132.430	44.112	0	895.20	0	3.5700	0	34.4010	4	27.359	0	886.095	0	11.3	4	3.5	4	-1E+10	1	-1E+10	1	-1E+10	1	-1E+10	1	-1E+10	1	-1E+10	1
4901784	59	C	02/14/2017	10:50	-132.430	44.112	0	899.80	0	3.5620	0	34.4040	4	27.362	0	890.638	0	11.3	4	3.5	4	-1E+10	1	-1E+10	1	-1E+10	1	-1E+10	1	-1E+10	1	-1E+10	1
4901784	59	C	02/14/2017	10:50	-132.430	44.112	0	905.30	0	3.5600	0	34.4060	4	27.364	0	896.070	0	11.3	4	3.5	4	-1E+10	1	-1E+10	1	-1E+10	1	-1E+10	1	-1E+10	1	-1E+10	1
4901784	59	C	02/14/2017	10:50	-132.430	44.112	0	909.80	0	3.5550	0	34.4090	4	27.367	0	900.515	0	11.4	4	3.6	4	-1E+10	1	-1E+10	1	-1E+10	1	-1E+10	1	-1E+10	1	-1E+10	1
4901784	59	C	02/14/2017	10:50	-132.430	44.112	0	914.30	0	3.5520	0	34.4090	4	27.368	0	904.959	0	11.4	4	3.6	4	-1E+10	1	-1E+10	1	-1E+10	1	-1E+10	1	-1E+10	1	-1E+10	1
4901784	59	C	02/14/2017	10:50	-132.430	44.112	0	919.80	0	3.5440	0	34.4120	4	27.371	0	910.391	0	11.4	4	3.6	4	-1E+10	1	-1E+10	1	-1E+10	1	-1E+10	1	-1E+10	1	-1E+10	1
4901784	59	C	02/14/2017	10:50	-132.430	44.112	0	925.30	0	3.5330	0	34.4140	4	27.373	0	915.822	0	11.5	4	3.6	4	-1E+10	1	-1E+10	1	-1E+10	1	-1E+10	1	-1E+10	1	-1E+10	1
4901784	59	C	02/14/2017	10:50	-132.430	44.112	0	929.90	0	3.5200	0	34.4180	4	27.378	0	920.365	0	11.5	4	3.6	4	-1E+10	1	-1E+10	1	-1E+10	1	-1E+10	1	-1E+10	1	-1E+10	1
4901784	59	C	02/14/2017	10:50	-132.430	44.112	0	934.60	0	3.5160	0	34.4180	4	27.378	0	925.007	0	11.5	4	3.6	4	-1E+10	1	-1E+10	1	-1E+10	1	-1E+10	1	-1E+10	1	-1E+10	1
4901784	59	C	02/14/2017	10:50	-132.430	44.112	0	940.30	0	3.5160	0	34.4200	4	27.380	0	930.636	0	11.6	4	3.6	4	-1E+10	1	-1E+10	1	-1E+10	1	-1E+10	1	-1E+10	1	-1E+10	1
4901784	59	C	02/14/2017	10:50	-132.430	44.112	0	945.30	0	3.5100	0	34.4220	4	27.382	0	935.573	0	11.6	4	3.6	4	-1E+10	1	-1E+10	1	-1E+10	1	-1E+10	1	-1E+10	1	-1E+10	1
4901784	59	C	02/14/2017	10:50	-132.430	44.112	0	949.80	0	3.4990	0	34.4230	4	27.384	0	940.017	0	11.6	4	3.6	4	-1E+10	1	-1E+10	1	-1E+10	1	-1E+10	1	-1E+10	1	-1E+10	1
4901784	59	C	02/14/2017	10:50	-132.430	44.112	0	954.70	0	3.4810	0	34.4270	4	27.389	0	944.855	0	11.7	4	3.6	4	-1E+10	1	-1E+10	1	-1E+10	1	-1E+10	1	-1E+10	1	-1E+10	1
4901784	59	C	02/14/2017	10:50	-132.430	44.112	0	959.70	0	3.4710	0	34.4290	4	27.392	0	949.792	0	11.7	4	3.7	4	-1E+10	1	-1E+10	1	-1E+10	1	-1E+10	1	-1E+10	1	-1E+10	1
4901784	59	C	02/14/2017	10:50	-132.430	44.112	0	964.80	0	3.4680	0	34.4300	4	27.393	0	954.828	0	11.8	4	3.7	4	-1E+10	1	-1E+10	1	-1E+10	1	-1E+10	1	-1E+10	1	-1E+10	1
4901784	59	C	02/14/2017	10:50	-132.430	44.112	0	969.70	0	3.4570	0	34.4330	4	27.396	0	959.666	0	11.8	4	3.7	4	-1E+10	1	-1E+10	1	-1E+10	1	-1E+10	1	-1E+10	1	-1E+10	1
4901784	59	C	02/14/2017	10:50	-132.430	44.112	0	974.80	0	3.4420	0	34.4370	4	27.401	0	964.702	0	11.9	4	3.7	4	-1E+10	1	-1E+10	1	-1E+10	1	-1E+10	1	-1E+10	1	-1E+10	1
4901784	59	C	02/14/2017	10:50	-132.430	44.112	0	979.80	0	3.4370	0	34.4380	4	27.402	0	969.638	0	12.0	4	3.7	4	-1E+10	1	-1E+10	1	-1E+10	1	-1E+10	1	-1E+10	1	-1E+10	1
4901784	59	C	02/14/2017	10:50	-132.430	44.112	0	985.00	0	3.4260	0	34.4410	4	27.406	0	974.772	0	12.1	4	3.8	4	-1E+10	1	-1E+10	1	-1E+10	1	-1E+10	1	-1E+10	1	-1E+10	1
4901784	59	C	02/14/2017	10:50	-132.430	44.112	0	990.10	0	3.4180	0	34.4440	4	27.409	0	979.807	0	12.1	4	3.8	4	-1E+10	1	-1E+10	1	-1E+10	1	-1E+10	1	-1E+10	1	-1E+10	1
4901784	59	C	02/14/2017	10:50	-132.430	44.112	0	995.10	0	3.4090	0	34.4460	4	27.411	0	984.744	0	12.1	4	3.8	4	-1E+10	1	-1E+10	1	-1E+10	1	-1E+10	1	-1E+10	1	-1E+10	1
4901784	59	C	02/14/2017	10:50	-132.430	44.112	0	1000.20	0	3.4030	0	34.4470	4	27.413	0	989.778	0	12.2	4	3.8	4	-1E+10	1	-1E+10	1	-1E+10	1	-1E+10	1	-1E+10	1	-1E+10	1
4901784	59	C	02/14/2017	10:50	-132.430	44.112	0	1005.40	0	3.3920	0	34.4500	4	27.416	0	994.912	0	12.3	4	3.8	4	-1E+10	1	-1E+10	1	-1E+10	1	-1E+10	1	-1E+10	1	-1E+10	1
4901784	59	C	02/14/2017	10:50	-132.430	44.112	0	1010.60	0	3.3840	0	34.4520	4	27.419	0	1000.045	0	12.5	4	3.9	4	-1E+10	1	-1E+10	1	-1E+10	1	-1E+10	1	-1E+10	1	-1E+10	1
4901784	59	C	02/14/2017	10:50	-132.430	44.112	0	1015.70	0	3.3790	0	34.4550	4	27.421	0	1005.080	0	12.7	4	3.9	4	-1E+10	1	-1E+10	1	-1E+10	1	-1E+10	1	-1E+10	1	-1E+10	1
4901784	59	C	02/14/2017	10:50	-132.430	44.112	0	1019.90	0	3.3690	0	34.4570	4	27.424	0	1009.226	0	12.8	4	4.0	4	-1E+10	1	-1E+10	1	-1E+10	1	-1E+10	1	-1E+10	1	-1E+10	1
4901784	59	C	02/14/2017	10:50	-132.430	44.112	0	1024.30	0	3.3650	0	34.4600	4	27.427	0	1013.569	0	13.0	4	4.0	4	-1E+10	1	-1E+10	1	-1E+10	1	-1E+10	1	-1E+10	1	-1E+10	1
4901784	59	C	02/14/2017	10:50	-132.430	44.112	0	1029.50	0	3.3600	0	34.4620	4	27.429	0	1018.702	0	13.1	4	4.1	4	-1E+10	1	-1E+10	1	-1E+10	1	-1E+10	1	-1E+10	1	-1E+10	1
4901784	59	C	02/14/2017	10:50	-132.430	44.112	0	1034.70	0	3.3470	0	34.4650	4	27.433	0	1023.835	0	13.2	4	4.1	4	-1E+10	1	-1E+10	1	-1E+10	1	-1E+10	1	-1E+10	1	-1E+10	1
4901784	59	C	02/14/2017	10:50	-132.430	44.112	0	1039.90	0	3.3370	0	34.4680	4	27.436	0	1028.967	0	13.4	4	4.2	4	-1E+10	1	-1E+10	1	-1E+10	1	-1E+10	1	-1E+10	1	-1E+10	1
4901784	59	C	02/14/2017	10:50	-132.430	44.112	0	1045.20	0	3.3220	0	34.4710	4	27.440	0	1034.199	0	13.5	4	4.2	4	-1E+10	1	-1E+10	1	-1E+10	1	-1E+10	1	-1E+10	1	-1E+10	1
4901784	59	C	02/14/2017	10:50	-132.430	44.112	0	1050.40	0	3.3130	0	34.4730	4	27.442	0	1039.331	0	13.6	4	4.2	4	-1E+10	1	-1E+10	1	-1E+10	1	-1E+10	1	-1E+10	1	-1E+10	1
4901784	59	C	02/14/2017	10:50	-132.430	44.112	0	1054.80	0	3.3090	0	34.4740	4	27.444	0	1043.674	0	13.7	4	4.3	4	-1E+10	1	-1E+10	1	-1E+10	1	-1E+10	1	-1E+10	1	-1E+10	1
4901784	59	C	02/14/2017	10:50	-132.430	44.112	0	1059.20	0	3.3010	0	34.4750	4	27.445	0	1048.016	0	13.8	4	4.3	4	-1E+10	1	-1E+10	1	-1E+10	1	-1E+10	1	-1E+10	1	-1E+10	1
4901784	59	C	02/14/2017	10:50	-132.430	44.112	0	1064.50	0	3.2870	0	34.4780	4	27.449	0	1053.247	0	14.0	4	4.3	4	-1E+10	1	-1E+10	1	-1E+10	1	-1E+10	1	-1E+10	1	-1E+10	1
4901784	59	C	02/14/2017	10:50	-132.430	44.112	0	1069.80	0	3.2800	0	34.4790	4	27.450	0	1058.478	0	14.0	4	4.4	4	-1E+10	1	-1E+10	1	-1E+10	1	-1E+10	1	-1E+10	1	-1E+10	1
4901784	59	C	02/14/2017	10:50	-132.430	44.112	0	1075.10	0	3.2710	0	34.4800	4	27.452	0	1063.708	0	14.1	4	4.4	4	-1E+10	1	-1E+10	1	-1E+10	1	-1E+10	1	-1E+10	1	-1E+10	1
4901784	59	C	02/14/2017	10:50	-132.430	44.112	0	1080.50	0	3.2600	0	34.4810	4	27.454	0	1069.037	0	14.3	4	4.4	4	-1E+10	1	-1E+10	1	-1E+10	1	-1E+10	1	-1E+10	1	-1E+10	1
4901784	59	C	02/14/2017	10:50	-132.430	44.112	0	1085.00	0	3.2540	0	34.4820	4	27.455	0	1073.478	0	14.4	4	4.5	4	-1E+10	1	-1E+10	1	-1E+10	1	-1E+10	1	-1E+10	1	-1E+10	1
4901784	59	C	02/14/2017	10:50	-132.430	44.112	0	1089.50	0	3.2380	0	34.4850	4	27.459	0	1077.919	0	14.6	4	4.5	4	-1E+10	1	-1E+10	1	-1E+10	1	-1E+10	1	-1E+10	1	-1E+10	1
4901784	59	C	02/14/2017	10:50	-132.430	44.112	0	1095.00	0	3.2200	0	34.4870	4	27.462	0	1083.346	0	14.7	4	4.6	4	-1E+10	1	-1E+10	1	-1E+10	1	-1E+10	1	-1E+10	1	-1E+10	1
4901784	59	C	02/14/2017	10:50	-132.430	44.112	0	1100.50	0	3.2180	0	34.4900	4	27.465	0	1088.773	0	14.9	4	4.6	4	-1E+10	1	-1E+10	1	-1E+10	1	-1E+10	1	-1E+10	1	-1E+10	1
4901784	59	C	02/14/2017	10:50	-132.430	44.112	0	1105.10	0	3.2010	0	34.4920	4	27.468	0	1093.312	0	14.9	4	4.6	4	-1E+10	1	-1E+10	1	-1E+10	1	-1E+10	1	-1E+10	1	-1E+10	1
4901784	59	C	02/14/2017	10:50	-132.430	44.112	0	1110.40	0	3.1900	0	34.4920	4	27.469	0	1098.542	0	14.9	4	4.6	4	-1E+10	1	-1E+10	1	-1E+10	1	-1E+10	1	-1E+10	1	-1E+10	1
4901784	59	C	02/14/2017	10:50	-132.430	44.112	0	1115.50	0	3.1780	0	34.4930	4	27.471	0	1103.574	0	15.0	4	4.6	4	-1E+10	1	-1E+10	1	-1E+10	1	-1E+10	1	-1E+10	1	-1E+10	1
4901784	59	C	02/14/2017	10:50	-132.430	44.112	0	1120.30	0	3.1720	0	34.4940	4	27.473	0	1108.310	0	15.0	4	4.7	4	-1E+10	1	-1E+10	1	-1E+10	1	-1E+10	1	-1E+10	1	-1E+10	1
4901784	59	C	02/14/2017	10:50	-132.430	44.112	0	1125.10	0	3.1610	0	34.4950	4	27.474	0	1113.046	0	15.2	4	4.7	4	-1E+10	1	-1E+10	1	-1E+10	1	-1E+10	1	-1E+10	1	-1E+10	1
4901784	59	C	02/14/2017	10:50	-132.430	44.112	0	1130.10	0	3.1520	0	34.4960	4	27.476	0	1117.979	0	15.3	4	4.7	4	-1E+10	1	-1E+10	1	-1E+10	1	-1E+10	1	-1E+10	1	-1E+10	1
4901784	59	C	02/14/2017	10:50	-132.430	44.112	0	1135.00	0	3.1410	0	34.4980	4	27.479	0	1122.813	0	15.4	4	4.8	4	-1E+10	1	-1E+10	1	-1E+10	1	-1E+10	1	-1E+10	1	-1E+10	1
4901784	59	C	02/14/2017	10:50	-132.430	44.112	0	1139.90	0	3.1280	0	34.5000	4	27.482	0	1127.648	0	15.4	4	4.8	4	-1E+10	1	-1E+10	1	-1E+10	1	-1E+10	1	-1E+10	1	-1E+10	1
4901784	59	C	02/14/2017	10:50	-132.430	44.112	0	1144.80	0	3.1190	0	34.5000	4	27.482	0	1132.482	0	15.5	4	4.8	4	-1E+10	1	-1E+10	1	-1E+10	1	-1E+10	1	-1E+10	1	-1E+10	1
4901784	59	C	02/14/2017	10:50	-132.430	44.112	0	1149.70	0	3.1070	0	34.5020	4	27.485	0	1137.316	0	15.6	4	4.8	4	-1E+10	1	-1E+10	1	-1E+10	1	-1E+10	1	-1E+10	1	-1E+10	1
4901784	59	C	02/14/2017	10:50	-132.430	44.112	0	1154.70	0	3.0960	0	34.5030	4	27.487	0	1142.248	0	15.7	4	4.9	4	-1E+10	1	-1E+10	1	-1E+10	1	-1E+10	1	-1E+10	1	-1E+10	1
4901784	59	C	02/14/2017	10:50	-132.430	44.112	0	1159.70	0	3.0880	0	34.5040	4	27.489	0	1147.181	0	15.8	4	4.9	4	-1E+10	1	-1E+10	1	-1E+10	1	-1E+10	1	-1E+10	1	-1E+10	1
4901784	59	C	02/14/2017	10:50	-132.430	44.112	0	1164.70	0	3.0820	0	34.5050	4	27.490	0	1152.113	0	15.9	4	4.9	4	-1E+10	1	-1E+10	1	-1E+10	1	-1E+10	1	-1E+10	1	-1E+10	1
4901784	59	C	02/14/2017	10:50	-132.430	44.112	0	1169.70	0	3.0700	0	34.5060	4	27.492	0	1157.045	0	16.0	4	5.0	4	-1E+10	1	-1E+10	1	-1E+10	1	-1E+10	1	-1E+10	1	-1E+10	1
4901784	59	C	02/14/2017	10:50	-132.430	44.112	0	1174.80	0	3.0590	0	34.5080	4	27.494	0	1162.076	0	16.2	4	5.0	4	-1E+10	1	-1E+10	1	-1E+10	1	-1E+10	1	-1E+10	1	-1E+10	1
4901784	59	C	02/14/2017	10:50	-132.430	44.112	0	1179.90	0	3.0480	0	34.5090	4	27.496	0	1167.107	0	16.3	4	5.0	4	-1E+10	1	-1E+10	1	-1E+10	1	-1E+10	1	-1E+10	1	-1E+10	1
4901784	59	C	02/14/2017	10:50	-132.430	44.112	0	1185.00	0	3.0360	0	34.5110	4	27.499	0	1172.137	0	16.4	4	5.1	4	-1E+10	1	-1E+10	1	-1E+10	1	-1E+10	1	-1E+10	1	-1E+10	1
4901784	59	C	02/14/2017	10:50	-132.430	44.112	0	1190.20	0	3.0240	0	34.5120	4	27.501	0	1177.266	0	16.6	4	5.1	4	-1E+10	1	-1E+10	1	-1E+10	1	-1E+10	1	-1E+10	1	-1E+10	1
4901784	59	C	02/14/2017	10:50	-132.430	44.112	0	1195.40	0	3.0130	0	34.5140	4	27.504	0	1182.395	0	16.7	4	5.2	4	-1E+10	1	-1E+10	1	-1E+10	1	-1E+10	1	-1E+10	1	-1E+10	1
4901784	59	C	02/14/2017	10:50	-132.430	44.112	0	1200.70	0	3.0070	0	34.5150	4	27.505	0	1187.622	0	16.8	4	5.2	4	-1E+10	1	-1E+10	1	-1E+10	1	-1E+10	1	-1E+10	1	-1E+10	1
4901784	59	C	02/14/2017	10:50	-132.430	44.112	0	1205.10	0	3.0050	0	34.5160	4	27.506	0	1191.962	0	16.9	4	5.2	4	-1E+10	1	-1E+10	1	-1E+10	1	-1E+10	1	-1E+10	1	-1E+10	1
4901784	59	C	02/14/2017	10:50	-132.430	44.112	0	1209.40	0	3.0000	0	34.5170	4	27.507	0	1196.203	0	17.1	4	5.3	4	-1E+10	1	-1E+10	1	-1E+10	1	-1E+10	1	-1E+10	1	-1E+10	1
4901784	59	C	02/14/2017	10:50	-132.430	44.112	0	1214.70	0	2.9900	0	34.5180	4	27.509	0	1201.430	0	17.1	4	5.3	4	-1E+10	1	-1E+10	1	-1E+10	1	-1E+10	1	-1E+10	1	-1E+10	1
4901784	59	C	02/14/2017	10:50	-132.430	44.112	0	1220.00	0	2.9840	0	34.5180	4	27.510	0	1206.657	0	17.3	4	5.3	4	-1E+10	1	-1E+10	1	-1E+10	1	-1E+10	1	-1E+10	1	-1E+10	1
4901784	59	C	02/14/2017	10:50	-132.430	44.112	0	1225.50	0	2.9710	0	34.5200	4	27.512	0	1212.081	0	17.4	4	5.4	4	-1E+10	1	-1E+10	1	-1E+10	1	-1E+10	1	-1E+10	1	-1E+10	1
4901784	59	C	02/14/2017	10:50	-132.430	44.112	0	1230.00	0	2.9670	0	34.5210	4	27.514	0	1216.518	0	17.6	4	5.4	4	-1E+10	1	-1E+10	1	-1E+10	1	-1E+10	1	-1E+10	1	-1E+10	1
4901784	59	C	02/14/2017	10:50	-132.430	44.112	0	1234.50	0	2.9570	0	34.5220	4	27.515	0	1220.956	0	17.8	4	5.5	4	-1E+10	1	-1E+10	1	-1E+10	1	-1E+10	1	-1E+10	1	-1E+10	1
4901784	59	C	02/14/2017	10:50	-132.430	44.112	0	1239.90	0	2.9490	0	34.5240	4	27.518	0	1226.281	0	18.0	4	5.5	4	-1E+10	1	-1E+10	1	-1E+10	1	-1E+10	1	-1E+10	1	-1E+10	1
4901784	59	C	02/14/2017	10:50	-132.430	44.112	0	1245.30	0	2.9390	0	34.5250	4	27.519	0	1231.606	0	18.1	4	5.6	4	-1E+10	1	-1E+10	1	-1E+10	1	-1E+10	1	-1E+10	1	-1E+10	1
4901784	59	C	02/14/2017	10:50	-132.430	44.112	0	1249.90	0	2.9320	0	34.5260	4	27.521	0	1236.142	0	18.3	4	5.6	4	-1E+10	1	-1E+10	1	-1E+10	1	-1E+10	1	-1E+10	1	-1E+10	1
4901784	59	C	02/14/2017	10:50	-132.430	44.112	0	1254.50	0	2.9250	0	34.5280	4	27.523	0	1240.678	0	18.4	4	5.7	4	-1E+10	1	-1E+10	1	-1E+10	1	-1E+10	1	-1E+10	1	-1E+10	1
4901784	59	C	02/14/2017	10:50	-132.430	44.112	0	1260.10	0	2.9180	0	34.5290	4	27.524	0	1246.199	0	18.6	4	5.7	4	-1E+10	1	-1E+10	1	-1E+10	1	-1E+10	1	-1E+10	1	-1E+10	1
4901784	59	C	02/14/2017	10:50	-132.430	44.112	0	1264.70	0	2.9120	0	34.5300	4	27.526	0	1250.735	0	18.8	4	5.8	4	-1E+10	1	-1E+10	1	-1E+10	1	-1E+10	1	-1E+10	1	-1E+10	1
4901784	59	C	02/14/2017	10:50	-132.430	44.112	0	1269.20	0	2.9070	0	34.5310	4	27.527	0	1255.172	0	18.9	4	5.8	4	-1E+10	1	-1E+10	1	-1E+10	1	-1E+10	1	-1E+10	1	-1E+10	1
4901784	59	C	02/14/2017	10:50	-132.430	44.112	0	1274.60	0	2.9010	0	34.5320	4	27.528	0	1260.496	0	19.1	4	5.9	4	-1E+10	1	-1E+10	1	-1E+10	1	-1E+10	1	-1E+10	1	-1E+10	1
4901784	59	C	02/14/2017	10:50	-132.430	44.112	0	1279.50	0	2.8950	0	34.5340	4	27.531	0	1265.327	0	19.4	4	6.0	4	-1E+10	1	-1E+10	1	-1E+10	1	-1E+10	1	-1E+10	1	-1E+10	1
4901784	59	C	02/14/2017	10:50	-132.430	44.112	0	1284.30	0	2.8890	0	34.5350	4	27.532	0	1270.060	0	19.6	4	6.0	4	-1E+10	1	-1E+10	1	-1E+10	1	-1E+10	1	-1E+10	1	-1E+10	1
4901784	59	C	02/14/2017	10:50	-132.430	44.112	0	1290.00	0	2.8840	0	34.5360	4	27.533	0	1275.679	0	19.7	4	6.1	4	-1E+10	1	-1E+10	1	-1E+10	1	-1E+10	1	-1E+10	1	-1E+10	1
4901784	59	C	02/14/2017	10:50	-132.430	44.112	0	1295.70	0	2.8780	0	34.5370	4	27.535	0	1281.298	0	20.0	4	6.2	4	-1E+10	1	-1E+10	1	-1E+10	1	-1E+10	1	-1E+10	1	-1E+10	1
4901784	59	C	02/14/2017	10:50	-132.430	44.112	0	1300.70	0	2.8710	0	34.5390	4	27.537	0	1286.228	0	20.2	4	6.2	4	-1E+10	1	-1E+10	1	-1E+10	1	-1E+10	1	-1E+10	1	-1E+10	1
4901784	59	C	02/14/2017	10:50	-132.430	44.112	0	1305.70	0	2.8630	0	34.5400	4	27.538	0	1291.157	0	20.3	4	6.3	4	-1E+10	1	-1E+10	1	-1E+10	1	-1E+10	1	-1E+10	1	-1E+10	1
4901784	59	C	02/14/2017	10:50	-132.430	44.112	0	1310.60	0	2.8570	0	34.5410	4	27.540	0	1295.987	0	20.5	4	6.3	4	-1E+10	1	-1E+10	1	-1E+10	1	-1E+10	1	-1E+10	1	-1E+10	1
4901784	59	C	02/14/2017	10:50	-132.430	44.112	0	1315.60	0	2.8510	0	34.5420	4	27.541	0	1300.916	0	20.7	4	6.4	4	-1E+10	1	-1E+10	1	-1E+10	1	-1E+10	1	-1E+10	1	-1E+10	1
4901784	59	C	02/14/2017	10:50	-132.430	44.112	0	1320.60	0	2.8480	0	34.5430	4	27.542	0	1305.845	0	21.0	4	6.5	4	-1E+10	1	-1E+10	1	-1E+10	1	-1E+10	1	-1E+10	1	-1E+10	1
4901784	59	C	02/14/2017	10:50	-132.430	44.112	0	1325.50	0	2.8370	0	34.5450	4	27.545	0	1310.675	0	21.3	4	6.6	4	-1E+10	1	-1E+10	1	-1E+10	1	-1E+10	1	-1E+10	1	-1E+10	1
4901784	59	C	02/14/2017	10:50	-132.430	44.112	0	1330.60	0	2.8260	0	34.5470	4	27.547	0	1315.702	0	21.5	4	6.6	4	-1E+10	1	-1E+10	1	-1E+10	1	-1E+10	1	-1E+10	1	-1E+10	1
4901784	59	C	02/14/2017	10:50	-132.430	44.112	0	1335.60	0	2.8180	0	34.5480	4	27.549	0	1320.630	0	21.7	4	6.7	4	-1E+10	1	-1E+10	1	-1E+10	1	-1E+10	1	-1E+10	1	-1E+10	1
4901784	59	C	02/14/2017	10:50	-132.430	44.112	0	1340.70	0	2.8110	0	34.5490	4	27.550	0	1325.657	0	21.9	4	6.7	4	-1E+10	1	-1E+10	1	-1E+10	1	-1E+10	1	-1E+10	1	-1E+10	1
4901784	59	C	02/14/2017	10:50	-132.430	44.112	0	1345.70	0	2.7990	0	34.5500	4	27.552	0	1330.585	0	22.2	4	6.8	4	-1E+10	1	-1E+10	1	-1E+10	1	-1E+10	1	-1E+10	1	-1E+10	1
4901784	59	C	02/14/2017	10:50	-132.430	44.112	0	1350.00	0	2.7900	0	34.5520	4	27.555	0	1334.823	0	22.4	4	6.9	4	-1E+10	1	-1E+10	1	-1E+10	1	-1E+10	1	-1E+10	1	-1E+10	1
4901784	59	C	02/14/2017	10:50	-132.430	44.112	0	1354.30	0	2.7810	0	34.5530	4	27.556	0	1339.061	0	22.7	4	7.0	4	-1E+10	1	-1E+10	1	-1E+10	1	-1E+10	1	-1E+10	1	-1E+10	1
4901784	59	C	02/14/2017	10:50	-132.430	44.112	0	1359.50	0	2.7720	0	34.5540	4	27.558	0	1344.186	0	22.9	4	7.0	4	-1E+10	1	-1E+10	1	-1E+10	1	-1E+10	1	-1E+10	1	-1E+10	1
4901784	59	C	02/14/2017	10:50	-132.430	44.112	0	1364.60	0	2.7660	0	34.5550	4	27.559	0	1349.212	0	23.1	4	7.1	4	-1E+10	1	-1E+10	1	-1E+10	1	-1E+10	1	-1E+10	1	-1E+10	1
4901784	59	C	02/14/2017	10:50	-132.430	44.112	0	1369.60	0	2.7530	0	34.5570	4	27.562	0	1354.140	0	23.3	4	7.2	4	-1E+10	1	-1E+10	1	-1E+10	1	-1E+10	1	-1E+10	1	-1E+10	1
4901784	59	C	02/14/2017	10:50	-132.430	44.112	0	1374.60	0	2.7470	0	34.5570	4	27.563	0	1359.067	0	23.4	4	7.2	4	-1E+10	1	-1E+10	1	-1E+10	1	-1E+10	1	-1E+10	1	-1E+10	1
4901784	59	C	02/14/2017	10:50	-132.430	44.112	0	1379.40	0	2.7360	0	34.5580	4	27.564	0	1363.798	0	23.6	4	7.2	4	-1E+10	1	-1E+10	1	-1E+10	1	-1E+10	1	-1E+10	1	-1E+10	1
4901784	59	C	02/14/2017	10:50	-132.430	44.112	0	1384.90	0	2.7300	0	34.5590	4	27.566	0	1369.217	0	23.7	4	7.3	4	-1E+10	1	-1E+10	1	-1E+10	1	-1E+10	1	-1E+10	1	-1E+10	1
4901784	59	C	02/14/2017	10:50	-132.430	44.112	0	1390.60	0	2.7240	0	34.5590	4	27.566	0	1374.834	0	23.9	4	7.3	4	-1E+10	1	-1E+10	1	-1E+10	1	-1E+10	1	-1E+10	1	-1E+10	1
4901784	59	C	02/14/2017	10:50	-132.430	44.112	0	1395.60	0	2.7170	0	34.5600	4	27.568	0	1379.761	0	24.2	4	7.4	4	-1E+10	1	-1E+10	1	-1E+10	1	-1E+10	1	-1E+10	1	-1E+10	1
4901784	59	C	02/14/2017	10:50	-132.430	44.112	0	1400.50	0	2.7050	0	34.5610	4	27.570	0	1384.590	0	24.4	4	7.5	4	-1E+10	1	-1E+10	1	-1E+10	1	-1E+10	1	-1E+10	1	-1E+10	1
4901784	59	C	02/14/2017	10:50	-132.430	44.112	0	1405.50	0	2.6960	0	34.5620	4	27.571	0	1389.516	0	24.6	4	7.6	4	-1E+10	1	-1E+10	1	-1E+10	1	-1E+10	1	-1E+10	1	-1E+10	1
4901784	59	C	02/14/2017	10:50	-132.430	44.112	0	1410.70	0	2.6820	0	34.5640	4	27.574	0	1394.640	0	24.9	4	7.6	4	-1E+10	1	-1E+10	1	-1E+10	1	-1E+10	1	-1E+10	1	-1E+10	1
4901784	59	C	02/14/2017	10:50	-132.430	44.112	0	1415.70	0	2.6700	0	34.5650	4	27.576	0	1399.567	0	25.1	4	7.7	4	-1E+10	1	-1E+10	1	-1E+10	1	-1E+10	1	-1E+10	1	-1E+10	1
4901784	59	C	02/14/2017	10:50	-132.430	44.112	0	1420.70	0	2.6550	0	34.5660	4	27.578	0	1404.493	0	25.3	4	7.7	4	-1E+10	1	-1E+10	1	-1E+10	1	-1E+10	1	-1E+10	1	-1E+10	1
4901784	59	C	02/14/2017	10:50	-132.430	44.112	0	1425.00	0	2.6490	0	34.5660	4	27.579	0	1408.730	0	25.3	4	7.8	4	-1E+10	1	-1E+10	1	-1E+10	1	-1E+10	1	-1E+10	1	-1E+10	1
4901784	59	C	02/14/2017	10:50	-132.430	44.112	0	1429.20	0	2.6490	0	34.5670	4	27.579	0	1412.868	0	25.4	4	7.8	4	-1E+10	1	-1E+10	1	-1E+10	1	-1E+10	1	-1E+10	1	-1E+10	1
4901784	59	C	02/14/2017	10:50	-132.430	44.112	0	1434.30	0	2.6470	0	34.5670	4	27.580	0	1417.892	0	25.4	4	7.8	4	-1E+10	1	-1E+10	1	-1E+10	1	-1E+10	1	-1E+10	1	-1E+10	1
4901784	59	C	02/14/2017	10:50	-132.430	44.112	0	1439.50	0	2.6420	0	34.5670	4	27.580	0	1423.015	0	25.6	4	7.8	4	-1E+10	1	-1E+10	1	-1E+10	1	-1E+10	1	-1E+10	1	-1E+10	1
4901784	59	C	02/14/2017	10:50	-132.430	44.112	0	1444.80	0	2.6300	0	34.5670	4	27.581	0	1428.237	0	25.8	4	7.9	4	-1E+10	1	-1E+10	1	-1E+10	1	-1E+10	1	-1E+10	1	-1E+10	1
4901784	59	C	02/14/2017	10:50	-132.430	44.112	0	1450.00	0	2.6160	0	34.5690	4	27.584	0	1433.359	0	26.0	4	8.0	4	-1E+10	1	-1E+10	1	-1E+10	1	-1E+10	1	-1E+10	1	-1E+10	1
4901784	59	C	02/14/2017	10:50	-132.430	44.112	0	1455.20	0	2.6040	0	34.5690	4	27.585	0	1438.482	0	26.2	4	8.0	4	-1E+10	1	-1E+10	1	-1E+10	1	-1E+10	1	-1E+10	1	-1E+10	1
4901784	59	C	02/14/2017	10:50	-132.430	44.112	0	1460.50	0	2.5950	0	34.5700	4	27.587	0	1443.703	0	26.4	4	8.1	4	-1E+10	1	-1E+10	1	-1E+10	1	-1E+10	1	-1E+10	1	-1E+10	1
4901784	59	C	02/14/2017	10:50	-132.430	44.112	0	1464.90	0	2.5860	0	34.5710	4	27.588	0	1448.037	0	26.6	4	8.1	4	-1E+10	1	-1E+10	1	-1E+10	1	-1E+10	1	-1E+10	1	-1E+10	1
4901784	59	C	02/14/2017	10:50	-132.430	44.112	0	1469.30	0	2.5780	0	34.5720	4	27.590	0	1452.372	0	26.8	4	8.2	4	-1E+10	1	-1E+10	1	-1E+10	1	-1E+10	1	-1E+10	1	-1E+10	1
4901784	59	C	02/14/2017	10:50	-132.430	44.112	0	1474.70	0	2.5700	0	34.5720	4	27.590	0	1457.691	0	27.0	4	8.3	4	-1E+10	1	-1E+10	1	-1E+10	1	-1E+10	1	-1E+10	1	-1E+10	1
4901784	59	C	02/14/2017	10:50	-132.430	44.112	0	1480.10	0	2.5580	0	34.5730	4	27.592	0	1463.010	0	27.2	4	8.3	4	-1E+10	1	-1E+10	1	-1E+10	1	-1E+10	1	-1E+10	1	-1E+10	1
4901784	59	C	02/14/2017	10:50	-132.430	44.112	0	1485.50	0	2.5470	0	34.5740	4	27.594	0	1468.329	0	27.5	4	8.4	4	-1E+10	1	-1E+10	1	-1E+10	1	-1E+10	1	-1E+10	1	-1E+10	1
4901784	59	C	02/14/2017	10:50	-132.430	44.112	0	1490.00	0	2.5420	0	34.5740	4	27.594	0	1472.761	0	27.6	4	8.4	4	-1E+10	1	-1E+10	1	-1E+10	1	-1E+10	1	-1E+10	1	-1E+10	1
4901784	59	C	02/14/2017	10:50	-132.430	44.112	0	1494.50	0	2.5260	0	34.5760	4	27.597	0	1477.193	0	27.8	4	8.5	4	-1E+10	1	-1E+10	1	-1E+10	1	-1E+10	1	-1E+10	1	-1E+10	1
4901784	59	C	02/14/2017	10:50	-132.430	44.112	0	1500.00	0	2.5140	0	34.5760	4	27.598	0	1482.610	0	28.0	4	8.5	4	-1E+10	1	-1E+10	1	-1E+10	1	-1E+10	1	-1E+10	1	-1E+10	1
4901784	59	C	02/14/2017	10:50	-132.430	44.112	0	1505.30	0	2.5010	0	34.5770	4	27.600	0	1487.830	0	28.3	4	8.6	4	-1E+10	1	-1E+10	1	-1E+10	1	-1E+10	1	-1E+10	1	-1E+10	1
4901784	59	C	02/14/2017	10:50	-132.430	44.112	0	1510.50	0	2.4920	0	34.5780	4	27.602	0	1492.951	0	28.5	4	8.7	4	-1E+10	1	-1E+10	1	-1E+10	1	-1E+10	1	-1E+10	1	-1E+10	1
4901784	59	C	02/14/2017	10:50	-132.430	44.112	0	1515.60	0	2.4870	0	34.5790	4	27.603	0	1497.974	0	28.7	4	8.8	4	-1E+10	1	-1E+10	1	-1E+10	1	-1E+10	1	-1E+10	1	-1E+10	1
4901784	59	C	02/14/2017	10:50	-132.430	44.112	0	1520.70	0	2.4760	0	34.5800	4	27.605	0	1502.997	0	29.0	4	8.8	4	-1E+10	1	-1E+10	1	-1E+10	1	-1E+10	1	-1E+10	1	-1E+10	1
4901784	59	C	02/14/2017	10:50	-132.430	44.112	0	1525.00	0	2.4680	0	34.5810	4	27.606	0	1507.231	0	29.2	4	8.9	4	-1E+10	1	-1E+10	1	-1E+10	1	-1E+10	1	-1E+10	1	-1E+10	1
4901784	59	C	02/14/2017	10:50	-132.430	44.112	0	1529.30	0	2.4620	0	34.5810	4	27.607	0	1511.466	0	29.4	4	9.0	4	-1E+10	1	-1E+10	1	-1E+10	1	-1E+10	1	-1E+10	1	-1E+10	1
4901784	59	C	02/14/2017	10:50	-132.430	44.112	0	1534.40	0	2.4550	0	34.5820	4	27.608	0	1516.488	0	29.6	4	9.0	4	-1E+10	1	-1E+10	1	-1E+10	1	-1E+10	1	-1E+10	1	-1E+10	1
4901784	59	C	02/14/2017	10:50	-132.430	44.112	0	1539.50	0	2.4480	0	34.5830	4	27.610	0	1521.510	0	29.8	4	9.1	4	-1E+10	1	-1E+10	1	-1E+10	1	-1E+10	1	-1E+10	1	-1E+10	1
4901784	59	C	02/14/2017	10:50	-132.430	44.112	0	1544.70	0	2.4410	0	34.5830	4	27.610	0	1526.631	0	30.1	4	9.2	4	-1E+10	1	-1E+10	1	-1E+10	1	-1E+10	1	-1E+10	1	-1E+10	1
4901784	59	C	02/14/2017	10:50	-132.430	44.112	0	1549.90	0	2.4320	0	34.5840	4	27.612	0	1531.751	0	30.3	4	9.2	4	-1E+10	1	-1E+10	1	-1E+10	1	-1E+10	1	-1E+10	1	-1E+10	1
4901784	59	C	02/14/2017	10:50	-132.430	44.112	0	1555.00	0	2.4270	0	34.5850	4	27.613	0	1536.773	0	30.5	4	9.3	4	-1E+10	1	-1E+10	1	-1E+10	1	-1E+10	1	-1E+10	1	-1E+10	1
4901784	59	C	02/14/2017	10:50	-132.430	44.112	0	1560.20	0	2.4170	0	34.5860	4	27.615	0	1541.893	0	30.9	4	9.4	4	-1E+10	1	-1E+10	1	-1E+10	1	-1E+10	1	-1E+10	1	-1E+10	1
4901784	59	C	02/14/2017	10:50	-132.430	44.112	0	1565.40	0	2.4070	0	34.5870	4	27.616	0	1547.013	0	31.1	4	9.5	4	-1E+10	1	-1E+10	1	-1E+10	1	-1E+10	1	-1E+10	1	-1E+10	1
4901784	59	C	02/14/2017	10:50	-132.430	44.112	0	1570.60	0	2.4000	0	34.5880	4	27.618	0	1552.133	0	31.4	4	9.6	4	-1E+10	1	-1E+10	1	-1E+10	1	-1E+10	1	-1E+10	1	-1E+10	1
4901784	59	C	02/14/2017	10:50	-132.430	44.112	0	1574.90	0	2.3910	0	34.5890	4	27.619	0	1556.366	0	31.7	4	9.7	4	-1E+10	1	-1E+10	1	-1E+10	1	-1E+10	1	-1E+10	1	-1E+10	1
4901784	59	C	02/14/2017	10:50	-132.430	44.112	0	1579.20	0	2.3850	0	34.5900	4	27.621	0	1560.600	0	32.0	4	9.7	4	-1E+10	1	-1E+10	1	-1E+10	1	-1E+10	1	-1E+10	1	-1E+10	1
4901784	59	C	02/14/2017	10:50	-132.430	44.112	0	1584.50	0	2.3780	0	34.5900	4	27.621	0	1565.818	0	32.3	4	9.8	4	-1E+10	1	-1E+10	1	-1E+10	1	-1E+10	1	-1E+10	1	-1E+10	1
4901784	59	C	02/14/2017	10:50	-132.430	44.112	0	1589.80	0	2.3680	0	34.5920	4	27.624	0	1571.036	0	32.8	4	10.0	4	-1E+10	1	-1E+10	1	-1E+10	1	-1E+10	1	-1E+10	1	-1E+10	1
4901784	59	C	02/14/2017	10:50	-132.430	44.112	0	1595.10	0	2.3540	0	34.5930	4	27.626	0	1576.253	0	33.3	4	10.1	4	-1E+10	1	-1E+10	1	-1E+10	1	-1E+10	1	-1E+10	1	-1E+10	1
4901784	59	C	02/14/2017	10:50	-132.430	44.112	0	1600.40	0	2.3430	0	34.5950	4	27.628	0	1581.471	0	33.7	4	10.2	4	-1E+10	1	-1E+10	1	-1E+10	1	-1E+10	1	-1E+10	1	-1E+10	1
4901784	59	C	02/14/2017	10:50	-132.430	44.112	0	1604.90	0	2.3340	0	34.5960	4	27.630	0	1585.901	0	34.0	4	10.3	4	-1E+10	1	-1E+10	1	-1E+10	1	-1E+10	1	-1E+10	1	-1E+10	1
4901784	59	C	02/14/2017	10:50	-132.430	44.112	0	1609.30	0	2.3290	0	34.5970	4	27.631	0	1590.232	0	34.2	4	10.4	4	-1E+10	1	-1E+10	1	-1E+10	1	-1E+10	1	-1E+10	1	-1E+10	1
4901784	59	C	02/14/2017	10:50	-132.430	44.112	0	1614.80	0	2.3230	0	34.5970	4	27.632	0	1595.646	0	34.5	4	10.5	4	-1E+10	1	-1E+10	1	-1E+10	1	-1E+10	1	-1E+10	1	-1E+10	1
4901784	59	C	02/14/2017	10:50	-132.430	44.112	0	1620.30	0	2.3170	0	34.5980	4	27.633	0	1601.060	0	34.9	4	10.6	4	-1E+10	1	-1E+10	1	-1E+10	1	-1E+10	1	-1E+10	1	-1E+10	1
4901784	59	C	02/14/2017	10:50	-132.430	44.112	0	1624.90	0	2.3050	0	34.5990	4	27.635	0	1605.588	0	35.3	4	10.7	4	-1E+10	1	-1E+10	1	-1E+10	1	-1E+10	1	-1E+10	1	-1E+10	1
4901784	59	C	02/14/2017	10:50	-132.430	44.112	0	1629.30	0	2.2960	0	34.6000	4	27.636	0	1609.919	0	35.6	4	10.8	4	-1E+10	1	-1E+10	1	-1E+10	1	-1E+10	1	-1E+10	1	-1E+10	1
4901784	59	C	02/14/2017	10:50	-132.430	44.112	0	1634.60	0	2.2880	0	34.6010	4	27.638	0	1615.136	0	35.9	4	10.9	4	-1E+10	1	-1E+10	1	-1E+10	1	-1E+10	1	-1E+10	1	-1E+10	1
4901784	59	C	02/14/2017	10:50	-132.430	44.112	0	1639.40	0	2.2820	0	34.6020	4	27.639	0	1619.861	0	36.3	4	11.0	4	-1E+10	1	-1E+10	1	-1E+10	1	-1E+10	1	-1E+10	1	-1E+10	1
4901784	59	C	02/14/2017	10:50	-132.430	44.112	0	1645.00	0	2.2730	0	34.6030	4	27.641	0	1625.372	0	36.8	4	11.2	4	-1E+10	1	-1E+10	1	-1E+10	1	-1E+10	1	-1E+10	1	-1E+10	1
4901784	59	C	02/14/2017	10:50	-132.430	44.112	0	1650.70	0	2.2610	0	34.6050	4	27.643	0	1630.982	0	37.3	4	11.3	4	-1E+10	1	-1E+10	1	-1E+10	1	-1E+10	1	-1E+10	1	-1E+10	1
4901784	59	C	02/14/2017	10:50	-132.430	44.112	0	1655.50	0	2.2490	0	34.6060	4	27.645	0	1635.707	0	37.8	4	11.5	4	-1E+10	1	-1E+10	1	-1E+10	1	-1E+10	1	-1E+10	1	-1E+10	1
4901784	59	C	02/14/2017	10:50	-132.430	44.112	0	1660.50	0	2.2410	0	34.6080	4	27.647	0	1640.627	0	38.2	4	11.6	4	-1E+10	1	-1E+10	1	-1E+10	1	-1E+10	1	-1E+10	1	-1E+10	1
4901784	59	C	02/14/2017	10:50	-132.430	44.112	0	1665.40	0	2.2320	0	34.6090	4	27.649	0	1645.450	0	38.6	4	11.7	4	-1E+10	1	-1E+10	1	-1E+10	1	-1E+10	1	-1E+10	1	-1E+10	1
4901784	59	C	02/14/2017	10:50	-132.430	44.112	0	1670.40	0	2.2270	0	34.6100	4	27.650	0	1650.371	0	38.9	4	11.8	4	-1E+10	1	-1E+10	1	-1E+10	1	-1E+10	1	-1E+10	1	-1E+10	1
4901784	59	C	02/14/2017	10:50	-132.430	44.112	0	1675.30	0	2.2210	0	34.6110	4	27.651	0	1655.193	0	39.2	4	11.9	4	-1E+10	1	-1E+10	1	-1E+10	1	-1E+10	1	-1E+10	1	-1E+10	1
4901784	59	C	02/14/2017	10:50	-132.430	44.112	0	1680.20	0	2.2140	0	34.6120	4	27.653	0	1660.015	0	39.6	4	12.0	4	-1E+10	1	-1E+10	1	-1E+10	1	-1E+10	1	-1E+10	1	-1E+10	1
4901784	59	C	02/14/2017	10:50	-132.430	44.112	0	1685.30	0	2.2070	0	34.6130	4	27.654	0	1665.033	0	39.8	4	12.1	4	-1E+10	1	-1E+10	1	-1E+10	1	-1E+10	1	-1E+10	1	-1E+10	1
4901784	59	C	02/14/2017	10:50	-132.430	44.112	0	1690.30	0	2.2060	0	34.6130	4	27.654	0	1669.954	0	40.1	4	12.1	4	-1E+10	1	-1E+10	1	-1E+10	1	-1E+10	1	-1E+10	1	-1E+10	1
4901784	59	C	02/14/2017	10:50	-132.430	44.112	0	1695.40	0	2.2000	0	34.6130	4	27.655	0	1674.972	0	40.5	4	12.3	4	-1E+10	1	-1E+10	1	-1E+10	1	-1E+10	1	-1E+10	1	-1E+10	1
4901784	59	C	02/14/2017	10:50	-132.430	44.112	0	1700.50	0	2.1920	0	34.6150	4	27.657	0	1679.990	0	40.9	4	12.4	4	-1E+10	1	-1E+10	1	-1E+10	1	-1E+10	1	-1E+10	1	-1E+10	1
4901784	59	C	02/14/2017	10:50	-132.430	44.112	0	1705.70	0	2.1860	0	34.6160	4	27.658	0	1685.107	0	41.3	4	12.5	4	-1E+10	1	-1E+10	1	-1E+10	1	-1E+10	1	-1E+10	1	-1E+10	1
4901784	59	C	02/14/2017	10:50	-132.430	44.112	0	1710.00	0	2.1810	0	34.6170	4	27.660	0	1689.338	0	41.7	4	12.6	4	-1E+10	1	-1E+10	1	-1E+10	1	-1E+10	1	-1E+10	1	-1E+10	1
4901784	59	C	02/14/2017	10:50	-132.430	44.112	0	1714.40	0	2.1740	0	34.6180	4	27.661	0	1693.667	0	42.0	4	12.7	4	-1E+10	1	-1E+10	1	-1E+10	1	-1E+10	1	-1E+10	1	-1E+10	1
4901784	59	C	02/14/2017	10:50	-132.430	44.112	0	1719.60	0	2.1660	0	34.6190	4	27.662	0	1698.784	0	42.4	4	12.8	4	-1E+10	1	-1E+10	1	-1E+10	1	-1E+10	1	-1E+10	1	-1E+10	1
4901784	59	C	02/14/2017	10:50	-132.430	44.112	0	1724.90	0	2.1570	0	34.6200	4	27.664	0	1703.998	0	42.8	4	13.0	4	-1E+10	1	-1E+10	1	-1E+10	1	-1E+10	1	-1E+10	1	-1E+10	1
4901784	59	C	02/14/2017	10:50	-132.430	44.112	0	1730.20	0	2.1500	0	34.6210	4	27.665	0	1709.213	0	43.3	4	13.1	4	-1E+10	1	-1E+10	1	-1E+10	1	-1E+10	1	-1E+10	1	-1E+10	1
4901784	59	C	02/14/2017	10:50	-132.430	44.112	0	1735.40	0	2.1460	0	34.6220	4	27.667	0	1714.329	0	43.6	4	13.2	4	-1E+10	1	-1E+10	1	-1E+10	1	-1E+10	1	-1E+10	1	-1E+10	1
4901784	59	C	02/14/2017	10:50	-132.430	44.112	0	1740.70	0	2.1480	0	34.6230	4	27.667	0	1719.543	0	44.0	4	13.3	4	-1E+10	1	-1E+10	1	-1E+10	1	-1E+10	1	-1E+10	1	-1E+10	1
4901784	59	C	02/14/2017	10:50	-132.430	44.112	0	1745.10	0	2.1430	0	34.6250	4	27.669	0	1723.871	0	44.3	4	13.4	4	-1E+10	1	-1E+10	1	-1E+10	1	-1E+10	1	-1E+10	1	-1E+10	1
4901784	59	C	02/14/2017	10:50	-132.430	44.112	0	1749.50	0	2.1390	0	34.6250	4	27.670	0	1728.200	0	44.5	4	13.5	4	-1E+10	1	-1E+10	1	-1E+10	1	-1E+10	1	-1E+10	1	-1E+10	1
4901784	59	C	02/14/2017	10:50	-132.430	44.112	0	1754.80	0	2.1350	0	34.6250	4	27.670	0	1733.414	0	44.8	4	13.6	4	-1E+10	1	-1E+10	1	-1E+10	1	-1E+10	1	-1E+10	1	-1E+10	1
4901784	59	C	02/14/2017	10:50	-132.430	44.112	0	1760.00	0	2.1250	0	34.6260	4	27.672	0	1738.529	0	45.2	4	13.7	4	-1E+10	1	-1E+10	1	-1E+10	1	-1E+10	1	-1E+10	1	-1E+10	1
4901784	59	C	02/14/2017	10:50	-132.430	44.112	0	1765.40	0	2.1220	0	34.6270	4	27.673	0	1743.841	0	45.5	4	13.8	4	-1E+10	1	-1E+10	1	-1E+10	1	-1E+10	1	-1E+10	1	-1E+10	1
4901784	59	C	02/14/2017	10:50	-132.430	44.112	0	1769.80	0	2.1190	0	34.6280	4	27.674	0	1748.169	0	45.8	4	13.9	4	-1E+10	1	-1E+10	1	-1E+10	1	-1E+10	1	-1E+10	1	-1E+10	1
4901784	59	C	02/14/2017	10:50	-132.430	44.112	0	1774.30	0	2.1150	0	34.6290	4	27.675	0	1752.596	0	46.1	4	14.0	4	-1E+10	1	-1E+10	1	-1E+10	1	-1E+10	1	-1E+10	1	-1E+10	1
4901784	59	C	02/14/2017	10:50	-132.430	44.112	0	1779.70	0	2.1100	0	34.6290	4	27.675	0	1757.907	0	46.5	4	14.1	4	-1E+10	1	-1E+10	1	-1E+10	1	-1E+10	1	-1E+10	1	-1E+10	1
4901784	59	C	02/14/2017	10:50	-132.430	44.112	0	1785.10	0	2.1050	0	34.6300	4	27.676	0	1763.219	0	46.8	4	14.2	4	-1E+10	1	-1E+10	1	-1E+10	1	-1E+10	1	-1E+10	1	-1E+10	1
4901784	59	C	02/14/2017	10:50	-132.430	44.112	0	1790.50	0	2.0980	0	34.6310	4	27.678	0	1768.530	0	47.1	4	14.3	4	-1E+10	1	-1E+10	1	-1E+10	1	-1E+10	1	-1E+10	1	-1E+10	1
4901784	59	C	02/14/2017	10:50	-132.430	44.112	0	1795.00	0	2.0940	0	34.6310	4	27.678	0	1772.956	0	47.4	4	14.3	4	-1E+10	1	-1E+10	1	-1E+10	1	-1E+10	1	-1E+10	1	-1E+10	1
4901784	59	C	02/14/2017	10:50	-132.430	44.112	0	1799.60	0	2.0880	0	34.6320	4	27.680	0	1777.480	0	47.8	4	14.4	4	-1E+10	1	-1E+10	1	-1E+10	1	-1E+10	1	-1E+10	1	-1E+10	1
4901784	59	C	02/14/2017	10:50	-132.430	44.112	0	1805.10	0	2.0840	0	34.6330	4	27.681	0	1782.890	0	48.1	4	14.5	4	-1E+10	1	-1E+10	1	-1E+10	1	-1E+10	1	-1E+10	1	-1E+10	1
4901784	59	C	02/14/2017	10:50	-132.430	44.112	0	1809.70	0	2.0790	0	34.6340	4	27.682	0	1787.414	0	48.3	4	14.6	4	-1E+10	1	-1E+10	1	-1E+10	1	-1E+10	1	-1E+10	1	-1E+10	1
4901784	59	C	02/14/2017	10:50	-132.430	44.112	0	1814.70	0	2.0770	0	34.6340	4	27.682	0	1792.331	0	48.6	4	14.7	4	-1E+10	1	-1E+10	1	-1E+10	1	-1E+10	1	-1E+10	1	-1E+10	1
4901784	59	C	02/14/2017	10:50	-132.430	44.112	0	1819.90	0	2.0700	0	34.6350	4	27.683	0	1797.445	0	49.0	4	14.8	4	-1E+10	1	-1E+10	1	-1E+10	1	-1E+10	1	-1E+10	1	-1E+10	1
4901784	59	C	02/14/2017	10:50	-132.430	44.112	0	1824.80	0	2.0650	0	34.6360	4	27.685	0	1802.264	0	49.2	4	14.9	4	-1E+10	1	-1E+10	1	-1E+10	1	-1E+10	1	-1E+10	1	-1E+10	1
4901784	59	C	02/14/2017	10:50	-132.430	44.112	0	1829.70	0	2.0610	0	34.6360	4	27.685	0	1807.082	0	49.5	4	15.0	4	-1E+10	1	-1E+10	1	-1E+10	1	-1E+10	1	-1E+10	1	-1E+10	1
4901784	59	C	02/14/2017	10:50	-132.430	44.112	0	1834.60	0	2.0530	0	34.6370	4	27.686	0	1811.901	0	49.8	4	15.0	4	-1E+10	1	-1E+10	1	-1E+10	1	-1E+10	1	-1E+10	1	-1E+10	1
4901784	59	C	02/14/2017	10:50	-132.430	44.112	0	1839.50	0	2.0480	0	34.6380	4	27.688	0	1816.719	0	50.2	4	15.1	4	-1E+10	1	-1E+10	1	-1E+10	1	-1E+10	1	-1E+10	1	-1E+10	1
4901784	59	C	02/14/2017	10:50	-132.430	44.112	0	1844.30	0	2.0440	0	34.6380	4	27.688	0	1821.439	0	50.4	4	15.2	4	-1E+10	1	-1E+10	1	-1E+10	1	-1E+10	1	-1E+10	1	-1E+10	1
4901784	59	C	02/14/2017	10:50	-132.430	44.112	0	1849.30	0	2.0400	0	34.6390	4	27.689	0	1826.356	0	50.7	4	15.3	4	-1E+10	1	-1E+10	1	-1E+10	1	-1E+10	1	-1E+10	1	-1E+10	1
4901784	59	C	02/14/2017	10:50	-132.430	44.112	0	1855.00	0	2.0330	0	34.6400	4	27.691	0	1831.961	0	51.0	4	15.4	4	-1E+10	1	-1E+10	1	-1E+10	1	-1E+10	1	-1E+10	1	-1E+10	1
4901784	59	C	02/14/2017	10:50	-132.430	44.112	0	1860.70	0	2.0300	0	34.6400	4	27.691	0	1837.565	0	51.3	4	15.5	4	-1E+10	1	-1E+10	1	-1E+10	1	-1E+10	1	-1E+10	1	-1E+10	1
4901784	59	C	02/14/2017	10:50	-132.430	44.112	0	1865.70	0	2.0250	0	34.6410	4	27.692	0	1842.481	0	51.7	4	15.6	4	-1E+10	1	-1E+10	1	-1E+10	1	-1E+10	1	-1E+10	1	-1E+10	1
4901784	59	C	02/14/2017	10:50	-132.430	44.112	0	1870.60	0	2.0220	0	34.6420	4	27.693	0	1847.299	0	51.9	4	15.7	4	-1E+10	1	-1E+10	1	-1E+10	1	-1E+10	1	-1E+10	1	-1E+10	1
4901784	59	C	02/14/2017	10:50	-132.430	44.112	0	1875.60	0	2.0160	0	34.6420	4	27.694	0	1852.215	0	52.2	4	15.7	4	-1E+10	1	-1E+10	1	-1E+10	1	-1E+10	1	-1E+10	1	-1E+10	1
4901784	59	C	02/14/2017	10:50	-132.430	44.112	0	1880.60	0	2.0100	0	34.6430	4	27.695	0	1857.131	0	52.4	4	15.8	4	-1E+10	1	-1E+10	1	-1E+10	1	-1E+10	1	-1E+10	1	-1E+10	1
4901784	59	C	02/14/2017	10:50	-132.430	44.112	0	1885.60	0	2.0090	0	34.6430	4	27.695	0	1862.047	0	52.6	4	15.9	4	-1E+10	1	-1E+10	1	-1E+10	1	-1E+10	1	-1E+10	1	-1E+10	1
4901784	59	C	02/14/2017	10:50	-132.430	44.112	0	1890.60	0	2.0050	0	34.6440	4	27.696	0	1866.962	0	52.8	4	15.9	4	-1E+10	1	-1E+10	1	-1E+10	1	-1E+10	1	-1E+10	1	-1E+10	1
4901784	59	C	02/14/2017	10:50	-132.430	44.112	0	1895.80	0	2.0020	0	34.6440	4	27.696	0	1872.075	0	53.0	4	16.0	4	-1E+10	1	-1E+10	1	-1E+10	1	-1E+10	1	-1E+10	1	-1E+10	1
4901784	59	C	02/14/2017	10:50	-132.430	44.112	0	1900.00	0	2.0000	0	34.6440	4	27.697	0	1876.203	0	53.2	4	16.0	4	-1E+10	1	-1E+10	1	-1E+10	1	-1E+10	1	-1E+10	1	-1E+10	1
4901784	59	C	02/14/2017	10:50	-132.430	44.112	0	1904.30	0	1.9970	0	34.6450	4	27.698	0	1880.431	0	53.4	4	16.1	4	-1E+10	1	-1E+10	1	-1E+10	1	-1E+10	1	-1E+10	1	-1E+10	1
4901784	59	C	02/14/2017	10:50	-132.430	44.112	0	1909.40	0	1.9930	0	34.6460	4	27.699	0	1885.444	0	53.7	4	16.2	4	-1E+10	1	-1E+10	1	-1E+10	1	-1E+10	1	-1E+10	1	-1E+10	1
4901784	59	C	02/14/2017	10:50	-132.430	44.112	0	1914.60	0	1.9900	0	34.6460	4	27.699	0	1890.556	0	53.9	4	16.3	4	-1E+10	1	-1E+10	1	-1E+10	1	-1E+10	1	-1E+10	1	-1E+10	1
4901784	59	C	02/14/2017	10:50	-132.430	44.112	0	1919.80	0	1.9880	0	34.6470	4	27.700	0	1895.667	0	54.1	4	16.3	4	-1E+10	1	-1E+10	1	-1E+10	1	-1E+10	1	-1E+10	1	-1E+10	1
4901784	59	C	02/14/2017	10:50	-132.430	44.112	0	1925.00	0	1.9870	0	34.6470	4	27.700	0	1900.779	0	54.3	4	16.4	4	-1E+10	1	-1E+10	1	-1E+10	1	-1E+10	1	-1E+10	1	-1E+10	1
4901784	59	C	02/14/2017	10:50	-132.430	44.112	0	1930.20	0	1.9850	0	34.6480	4	27.701	0	1905.890	0	54.6	4	16.5	4	-1E+10	1	-1E+10	1	-1E+10	1	-1E+10	1	-1E+10	1	-1E+10	1
4901784	59	C	02/14/2017	10:50	-132.430	44.112	0	1935.40	0	1.9820	0	34.6480	4	27.701	0	1911.001	0	54.8	4	16.5	4	-1E+10	1	-1E+10	1	-1E+10	1	-1E+10	1	-1E+10	1	-1E+10	1
4901784	59	C	02/14/2017	10:50	-132.430	44.112	0	1940.70	0	1.9800	0	34.6490	4	27.702	0	1916.211	0	55.1	4	16.6	4	-1E+10	1	-1E+10	1	-1E+10	1	-1E+10	1	-1E+10	1	-1E+10	1
4901784	59	C	02/14/2017	10:50	-132.430	44.112	0	1945.00	0	1.9770	0	34.6500	4	27.703	0	1920.437	0	55.3	4	16.7	4	-1E+10	1	-1E+10	1	-1E+10	1	-1E+10	1	-1E+10	1	-1E+10	1
4901784	59	C	02/14/2017	10:50	-132.430	44.112	0	1949.40	0	1.9730	0	34.6500	4	27.704	0	1924.762	0	55.5	4	16.7	4	-1E+10	1	-1E+10	1	-1E+10	1	-1E+10	1	-1E+10	1	-1E+10	1
4901784	59	C	02/14/2017	10:50	-132.430	44.112	0	1954.60	0	1.9700	0	34.6500	4	27.704	0	1929.872	0	55.8	4	16.8	4	-1E+10	1	-1E+10	1	-1E+10	1	-1E+10	1	-1E+10	1	-1E+10	1
4901784	59	C	02/14/2017	10:50	-132.430	44.112	0	1959.90	0	1.9660	0	34.6510	4	27.705	0	1935.081	0	56.1	4	16.9	4	-1E+10	1	-1E+10	1	-1E+10	1	-1E+10	1	-1E+10	1	-1E+10	1
4901784	59	C	02/14/2017	10:50	-132.430	44.112	0	1965.20	0	1.9630	0	34.6520	4	27.706	0	1940.290	0	56.4	4	17.0	4	-1E+10	1	-1E+10	1	-1E+10	1	-1E+10	1	-1E+10	1	-1E+10	1
4901784	59	C	02/14/2017	10:50	-132.430	44.112	0	1970.50	0	1.9630	0	34.6520	4	27.706	0	1945.499	0	56.7	4	17.1	4	-1E+10	1	-1E+10	1	-1E+10	1	-1E+10	1	-1E+10	1	-1E+10	1
4901784	59	C	02/14/2017	10:50	-132.430	44.112	0	1974.90	0	1.9590	0	34.6530	4	27.707	0	1949.823	0	56.9	4	17.2	4	-1E+10	1	-1E+10	1	-1E+10	1	-1E+10	1	-1E+10	1	-1E+10	1
4901784	59	C	02/14/2017	10:50	-132.430	44.112	0	1979.30	0	1.9560	0	34.6530	4	27.708	0	1954.147	0	57.1	4	17.2	4	-1E+10	1	-1E+10	1	-1E+10	1	-1E+10	1	-1E+10	1	-1E+10	1
4901784	59	C	02/14/2017	10:50	-132.430	44.112	0	1984.60	0	1.9530	0	34.6540	4	27.709	0	1959.355	0	57.5	4	17.3	4	-1E+10	1	-1E+10	1	-1E+10	1	-1E+10	1	-1E+10	1	-1E+10	1
4901784	59	C	02/14/2017	10:50	-132.430	44.112	0	1990.10	0	1.9490	0	34.6550	4	27.710	0	1964.760	0	57.7	4	17.4	4	-1E+10	1	-1E+10	1	-1E+10	1	-1E+10	1	-1E+10	1	-1E+10	1
4901784	59	C	02/14/2017	10:50	-132.430	44.112	0	1995.70	0	1.9440	0	34.6550	4	27.710	0	1970.262	0	58.0	4	17.5	4	-1E+10	1	-1E+10	1	-1E+10	1	-1E+10	1	-1E+10	1	-1E+10	1
4901784	59	C	02/14/2017	10:50	-132.430	44.112	0	2000.60	0	1.9440	0	34.6550	4	27.710	0	1975.077	0	58.2	4	17.5	4	-1E+10	1	-1E+10	1	-1E+10	1	-1E+10	1	-1E+10	1	-1E+10	1
4901784	59	C	02/14/2017	10:50	-132.430	44.112	0	2005.40	0	1.9400	0	34.6560	4	27.711	0	1979.794	0	58.6	4	17.6	4	-1E+10	1	-1E+10	1	-1E+10	1	-1E+10	1	-1E+10	1	-1E+10	1
4901784	59	C	02/14/2017	10:50	-132.430	44.112	0	2010.30	0	1.9370	0	34.6570	4	27.712	0	1984.608	0	58.9	4	17.7	4	-1E+10	1	-1E+10	1	-1E+10	1	-1E+10	1	-1E+10	1	-1E+10	1
4901784	59	C	02/14/2017	10:50	-132.430	44.112	0	2015.80	0	1.9340	0	34.6580	4	27.714	0	1990.012	0	59.2	4	17.8	4	-1E+10	1	-1E+10	1	-1E+10	1	-1E+10	1	-1E+10	1	-1E+10	1
4901784	59	C	02/14/2017	10:50	-132.430	44.112	0	2020.30	0	1.9320	0	34.6580	4	27.714	0	1994.434	0	59.3	4	17.9	4	-1E+10	1	-1E+10	1	-1E+10	1	-1E+10	1	-1E+10	1	-1E+10	1
4901784	59	C	02/14/2017	10:50	-132.430	44.112	0																										
4901784	60	C	02/24/2017	10:44	-132.412	44.047	0	3.10	0	9.0300	0	32.8560	4	25.435	0	3.075	0	272.9	4	95.8	4	-1E+10	1	-1E+10	1	-1E+10	1	-1E+10	1	-1E+10	1	-1E+10	1
4901784	60	C	02/24/2017	10:44	-132.412	44.047	0	4.70	0	9.0280	0	32.8560	4	25.436	0	4.662	0	272.7	4	95.8	4	-1E+10	1	-1E+10	1	-1E+10	1	-1E+10	1	-1E+10	1	-1E+10	1
4901784	60	C	02/24/2017	10:44	-132.412	44.047	0	6.40	0	9.0300	0	32.8560	4	25.435	0	6.349	0	272.8	4	95.8	4	-1E+10	1	-1E+10	1	-1E+10	1	-1E+10	1	-1E+10	1	-1E+10	1
4901784	60	C	02/24/2017	10:44	-132.412	44.047	0	8.10	0	9.0320	0	32.8560	4	25.435	0	8.035	0	272.7	4	95.8	4	-1E+10	1	-1E+10	1	-1E+10	1	-1E+10	1	-1E+10	1	-1E+10	1
4901784	60	C	02/24/2017	10:44	-132.412	44.047	0	9.80	0	9.0310	0	32.8560	4	25.435	0	9.721	0	272.8	4	95.8	4	-1E+10	1	-1E+10	1	-1E+10	1	-1E+10	1	-1E+10	1	-1E+10	1
4901784	60	C	02/24/2017	10:44	-132.412	44.047	0	11.50	0	9.0320	0	32.8560	4	25.435	0	11.407	0	272.9	4	95.8	4	-1E+10	1	-1E+10	1	-1E+10	1	-1E+10	1	-1E+10	1	-1E+10	1
4901784	60	C	02/24/2017	10:44	-132.412	44.047	0	13.30	0	9.0280	0	32.8560	4	25.436	0	13.193	0	272.9	4	95.8	4	-1E+10	1	-1E+10	1	-1E+10	1	-1E+10	1	-1E+10	1	-1E+10	1
4901784	60	C	02/24/2017	10:44	-132.412	44.047	0	15.10	0	9.0290	0	32.8560	4	25.436	0	14.978	0	272.8	4	95.8	4	-1E+10	1	-1E+10	1	-1E+10	1	-1E+10	1	-1E+10	1	-1E+10	1
4901784	60	C	02/24/2017	10:44	-132.412	44.047	0	17.10	0	9.0310	0	32.8560	4	25.435	0	16.962	0	272.7	4	95.7	4	-1E+10	1	-1E+10	1	-1E+10	1	-1E+10	1	-1E+10	1	-1E+10	1
4901784	60	C	02/24/2017	10:44	-132.412	44.047	0	18.90	0	9.0310	0	32.8560	4	25.435	0	18.747	0	273.0	4	95.8	4	-1E+10	1	-1E+10	1	-1E+10	1	-1E+10	1	-1E+10	1	-1E+10	1
4901784	60	C	02/24/2017	10:44	-132.412	44.047	0	20.90	0	9.0310	0	32.8560	4	25.435	0	20.731	0	272.8	4	95.8	4	-1E+10	1	-1E+10	1	-1E+10	1	-1E+10	1	-1E+10	1	-1E+10	1
4901784	60	C	02/24/2017	10:44	-132.412	44.047	0	22.80	0	9.0330	0	32.8560	4	25.435	0	22.616	0	272.8	4	95.8	4	-1E+10	1	-1E+10	1	-1E+10	1	-1E+10	1	-1E+10	1	-1E+10	1
4901784	60	C	02/24/2017	10:44	-132.412	44.047	0	24.80	0	9.0350	0	32.8550	4	25.434	0	24.599	0	272.7	4	95.8	4	-1E+10	1	-1E+10	1	-1E+10	1	-1E+10	1	-1E+10	1	-1E+10	1
4901784	60	C	02/24/2017	10:44	-132.412	44.047	0	26.70	0	9.0350	0	32.8560	4	25.435	0	26.484	0	272.8	4	95.8	4	-1E+10	1	-1E+10	1	-1E+10	1	-1E+10	1	-1E+10	1	-1E+10	1
4901784	60	C	02/24/2017	10:44	-132.412	44.047	0	28.70	0	9.0360	0	32.8550	4	25.434	0	28.468	0	272.6	4	95.7	4	-1E+10	1	-1E+10	1	-1E+10	1	-1E+10	1	-1E+10	1	-1E+10	1
4901784	60	C	02/24/2017	10:44	-132.412	44.047	0	30.70	0	9.0340	0	32.8560	4	25.435	0	30.451	0	272.7	4	95.7	4	-1E+10	1	-1E+10	1	-1E+10	1	-1E+10	1	-1E+10	1	-1E+10	1
4901784	60	C	02/24/2017	10:44	-132.412	44.047	0	32.70	0	9.0370	0	32.8560	4	25.435	0	32.435	0	272.5	4	95.7	4	-1E+10	1	-1E+10	1	-1E+10	1	-1E+10	1	-1E+10	1	-1E+10	1
4901784	60	C	02/24/2017	10:44	-132.412	44.047	0	34.50	0	9.0370	0	32.8560	4	25.435	0	34.220	0	272.6	4	95.7	4	-1E+10	1	-1E+10	1	-1E+10	1	-1E+10	1	-1E+10	1	-1E+10	1
4901784	60	C	02/24/2017	10:44	-132.412	44.047	0	36.40	0	9.0350	0	32.8560	4	25.435	0	36.105	0	272.4	4	95.6	4	-1E+10	1	-1E+10	1	-1E+10	1	-1E+10	1	-1E+10	1	-1E+10	1
4901784	60	C	02/24/2017	10:44	-132.412	44.047	0	38.20	0	9.0370	0	32.8560	4	25.435	0	37.890	0	272.3	4	95.6	4	-1E+10	1	-1E+10	1	-1E+10	1	-1E+10	1	-1E+10	1	-1E+10	1
4901784	60	C	02/24/2017	10:44	-132.412	44.047	0	40.20	0	9.0420	0	32.8560	4	25.434	0	39.873	0	272.2	4	95.6	4	-1E+10	1	-1E+10	1	-1E+10	1	-1E+10	1	-1E+10	1	-1E+10	1
4901784	60	C	02/24/2017	10:44	-132.412	44.047	0	42.20	0	9.0420	0	32.8560	4	25.434	0	41.857	0	272.1	4	95.6	4	-1E+10	1	-1E+10	1	-1E+10	1	-1E+10	1	-1E+10	1	-1E+10	1
4901784	60	C	02/24/2017	10:44	-132.412	44.047	0	44.30	0	9.0420	0	32.8570	4	25.435	0	43.940	0	272.1	4	95.5	4	-1E+10	1	-1E+10	1	-1E+10	1	-1E+10	1	-1E+10	1	-1E+10	1
4901784	60	C	02/24/2017	10:44	-132.412	44.047	0	46.30	0	9.0420	0	32.8570	4	25.435	0	45.923	0	272.3	4	95.6	4	-1E+10	1	-1E+10	1	-1E+10	1	-1E+10	1	-1E+10	1	-1E+10	1
4901784	60	C	02/24/2017	10:44	-132.412	44.047	0	48.40	0	9.0420	0	32.8560	4	25.434	0	48.006	0	272.1	4	95.6	4	-1E+10	1	-1E+10	1	-1E+10	1	-1E+10	1	-1E+10	1	-1E+10	1
4901784	60	C	02/24/2017	10:44	-132.412	44.047	0	50.30	0	9.0390	0	32.8570	4	25.435	0	49.890	0	272.3	4	95.6	4	-1E+10	1	-1E+10	1	-1E+10	1	-1E+10	1	-1E+10	1	-1E+10	1
4901784	60	C	02/24/2017	10:44	-132.412	44.047	0	52.30	0	9.0380	0	32.8560	4	25.435	0	51.873	0	272.2	4	95.6	4	-1E+10	1	-1E+10	1	-1E+10	1	-1E+10	1	-1E+10	1	-1E+10	1
4901784	60	C	02/24/2017	10:44	-132.412	44.047	0	54.20	0	9.0390	0	32.8560	4	25.435	0	53.758	0	272.1	4	95.5	4	-1E+10	1	-1E+10	1	-1E+10	1	-1E+10	1	-1E+10	1	-1E+10	1
4901784	60	C	02/24/2017	10:44	-132.412	44.047	0	56.10	0	9.0430	0	32.8570	4	25.435	0	55.642	0	271.9	4	95.5	4	-1E+10	1	-1E+10	1	-1E+10	1	-1E+10	1	-1E+10	1	-1E+10	1
4901784	60	C	02/24/2017	10:44	-132.412	44.047	0	58.00	0	9.0410	0	32.8560	4	25.434	0	57.526	0	271.9	4	95.5	4	-1E+10	1	-1E+10	1	-1E+10	1	-1E+10	1	-1E+10	1	-1E+10	1
4901784	60	C	02/24/2017	10:44	-132.412	44.047	0	59.90	0	9.0420	0	32.8560	4	25.434	0	59.410	0	271.7	4	95.4	4	-1E+10	1	-1E+10	1	-1E+10	1	-1E+10	1	-1E+10	1	-1E+10	1
4901784	60	C	02/24/2017	10:44	-132.412	44.047	0	61.80	0	9.0430	0	32.8570	4	25.435	0	61.295	0	271.8	4	95.4	4	-1E+10	1	-1E+10	1	-1E+10	1	-1E+10	1	-1E+10	1	-1E+10	1
4901784	60	C	02/24/2017	10:44	-132.412	44.047	0	63.60	0	9.0430	0	32.8570	4	25.435	0	63.080	0	271.8	4	95.4	4	-1E+10	1	-1E+10	1	-1E+10	1	-1E+10	1	-1E+10	1	-1E+10	1
4901784	60	C	02/24/2017	10:44	-132.412	44.047	0	65.60	0	9.0440	0	32.8570	4	25.435	0	65.063	0	271.6	4	95.4	4	-1E+10	1	-1E+10	1	-1E+10	1	-1E+10	1	-1E+10	1	-1E+10	1
4901784	60	C	02/24/2017	10:44	-132.412	44.047	0	67.40	0	9.0440	0	32.8570	4	25.435	0	66.848	0	271.4	4	95.3	4	-1E+10	1	-1E+10	1	-1E+10	1	-1E+10	1	-1E+10	1	-1E+10	1
4901784	60	C	02/24/2017	10:44	-132.412	44.047	0	69.30	0	9.0440	0	32.8570	4	25.435	0	68.732	0	271.3	4	95.3	4	-1E+10	1	-1E+10	1	-1E+10	1	-1E+10	1	-1E+10	1	-1E+10	1
4901784	60	C	02/24/2017	10:44	-132.412	44.047	0	71.20	0	9.0440	0	32.8570	4	25.435	0	70.616	0	271.1	4	95.2	4	-1E+10	1	-1E+10	1	-1E+10	1	-1E+10	1	-1E+10	1	-1E+10	1
4901784	60	C	02/24/2017	10:44	-132.412	44.047	0	73.10	0	9.0440	0	32.8580	4	25.436	0	72.500	0	270.9	4	95.2	4	-1E+10	1	-1E+10	1	-1E+10	1	-1E+10	1	-1E+10	1	-1E+10	1
4901784	60	C	02/24/2017	10:44	-132.412	44.047	0	75.00	0	9.0440	0	32.8580	4	25.436	0	74.384	0	270.4	4	95.0	4	-1E+10	1	-1E+10	1	-1E+10	1	-1E+10	1	-1E+10	1	-1E+10	1
4901784	60	C	02/24/2017	10:44	-132.412	44.047	0	76.90	0	9.0440	0	32.8590	4	25.437	0	76.268	0	270.2	4	94.9	4	-1E+10	1	-1E+10	1	-1E+10	1	-1E+10	1	-1E+10	1	-1E+10	1
4901784	60	C	02/24/2017	10:44	-132.412	44.047	0	78.80	0	9.0440	0	32.8590	4	25.437	0	78.152	0	269.6	4	94.7	4	-1E+10	1	-1E+10	1	-1E+10	1	-1E+10	1	-1E+10	1	-1E+10	1
4901784	60	C	02/24/2017	10:44	-132.412	44.047	0	80.70	0	9.0460	0	32.8600	4	25.437	0	80.036	0	268.8	4	94.4	4	-1E+10	1	-1E+10	1	-1E+10	1	-1E+10	1	-1E+10	1	-1E+10	1
4901784	60	C	02/24/2017	10:44	-132.412	44.047	0	82.50	0	9.0470	0	32.8610	4	25.438	0	81.821	0	268.0	4	94.1	4	-1E+10	1	-1E+10	1	-1E+10	1	-1E+10	1	-1E+10	1	-1E+10	1
4901784	60	C	02/24/2017	10:44	-132.412	44.047	0	85.00	0	9.0470	0	32.8620	4	25.439	0	84.300	0	266.6	4	93.7	4	-1E+10	1	-1E+10	1	-1E+10	1	-1E+10	1	-1E+10	1	-1E+10	1
4901784	60	C	02/24/2017	10:44	-132.412	44.047	0	86.80	0	9.0470	0	32.8630	4	25.439	0	86.085	0	264.5	4	92.9	4	-1E+10	1	-1E+10	1	-1E+10	1	-1E+10	1	-1E+10	1	-1E+10	1
4901784	60	C	02/24/2017	10:44	-132.412	44.047	0	88.30	0	9.0510	0	32.8660	4	25.441	0	87.572	0	261.9	4	92.0	4	-1E+10	1	-1E+10	1	-1E+10	1	-1E+10	1	-1E+10	1	-1E+10	1
4901784	60	C	02/24/2017	10:44	-132.412	44.047	0	89.80	0	9.0560	0	32.8710	4	25.444	0	89.060	0	258.6	4	90.8	4	-1E+10	1	-1E+10	1	-1E+10	1	-1E+10	1	-1E+10	1	-1E+10	1
4901784	60	C	02/24/2017	10:44	-132.412	44.047	0	91.20	0	9.0660	0	32.8890	4	25.457	0	90.448	0	254.4	4	89.4	4	-1E+10	1	-1E+10	1	-1E+10	1	-1E+10	1	-1E+10	1	-1E+10	1
4901784	60	C	02/24/2017	10:44	-132.412	44.047	0	92.70	0	9.0770	0	32.9200	4	25.479	0	91.935	0	249.3	4	87.7	4	-1E+10	1	-1E+10	1	-1E+10	1	-1E+10	1	-1E+10	1	-1E+10	1
4901784	60	C	02/24/2017	10:44	-132.412	44.047	0	94.20	0	9.0610	0	32.9520	4	25.507	0	93.422	0	243.9	4	85.7	4	-1E+10	1	-1E+10	1	-1E+10	1	-1E+10	1	-1E+10	1	-1E+10	1
4901784	60	C	02/24/2017	10:44	-132.412	44.047	0	95.80	0	9.0200	0	33.0220	4	25.568	0	95.009	0	238.5	4	83.8	4	-1E+10	1	-1E+10	1	-1E+10	1	-1E+10	1	-1E+10	1	-1E+10	1
4901784	60	C	02/24/2017	10:44	-132.412	44.047	0	97.60	0	8.9460	0	33.1280	4	25.663	0	96.793	0	233.1	4	81.8	4	-1E+10	1	-1E+10	1	-1E+10	1	-1E+10	1	-1E+10	1	-1E+10	1
4901784	60	C	02/24/2017	10:44	-132.412	44.047	0	99.30	0	8.9190	0	33.1640	4	25.695	0	98.479	0	229.4	4	80.5	4	-1E+10	1	-1E+10	1	-1E+10	1	-1E+10	1	-1E+10	1	-1E+10	1
4901784	60	C	02/24/2017	10:44	-132.412	44.047	0	102.70	0	8.9390	0	33.2800	4	25.783	0	101.850	0	221.6	4	77.9	4	-1E+10	1	-1E+10	1	-1E+10	1	-1E+10	1	-1E+10	1	-1E+10	1
4901784	60	C	02/24/2017	10:44	-132.412	44.047	0	104.90	0	8.9370	0	33.2970	4	25.797	0	104.031	0	218.1	4	76.7	4	-1E+10	1	-1E+10	1	-1E+10	1	-1E+10	1	-1E+10	1	-1E+10	1
4901784	60	C	02/24/2017	10:44	-132.412	44.047	0	107.30	0	8.9220	0	33.3460	4	25.837	0	106.411	0	211.9	4	74.5	4	-1E+10	1	-1E+10	1	-1E+10	1	-1E+10	1	-1E+10	1	-1E+10	1
4901784	60	C	02/24/2017	10:44	-132.412	44.047	0	110.30	0	8.8380	0	33.5020	4	25.973	0	109.385	0	206.6	4	72.6	4	-1E+10	1	-1E+10	1	-1E+10	1	-1E+10	1	-1E+10	1	-1E+10	1
4901784	60	C	02/24/2017	10:44	-132.412	44.047	0	112.50	0	8.8260	0	33.5220	4	25.990	0	111.566	0	204.2	4	71.7	4	-1E+10	1	-1E+10	1	-1E+10	1	-1E+10	1	-1E+10	1	-1E+10	1
4901784	60	C	02/24/2017	10:44	-132.412	44.047	0	114.90	0	8.8160	0	33.5840	4	26.040	0	113.946	0	201.6	4	70.8	4	-1E+10	1	-1E+10	1	-1E+10	1	-1E+10	1	-1E+10	1	-1E+10	1
4901784	60	C	02/24/2017	10:44	-132.412	44.047	0	117.90	0	8.8000	0	33.6370	4	26.084	0	116.920	0	199.8	4	70.2	4	-1E+10	1	-1E+10	1	-1E+10	1	-1E+10	1	-1E+10	1	-1E+10	1
4901784	60	C	02/24/2017	10:44	-132.412	44.047	0	120.30	0	8.7860	0	33.6520	4	26.098	0	119.299	0	198.8	4	69.8	4	-1E+10	1	-1E+10	1	-1E+10	1	-1E+10	1	-1E+10	1	-1E+10	1
4901784	60	C	02/24/2017	10:44	-132.412	44.047	0	122.80	0	8.7690	0	33.6780	4	26.122	0	121.778	0	197.3	4	69.3	4	-1E+10	1	-1E+10	1	-1E+10	1	-1E+10	1	-1E+10	1	-1E+10	1
4901784	60	C	02/24/2017	10:44	-132.412	44.047	0	125.30	0	8.7310	0	33.7210	4	26.161	0	124.256	0	195.4	4	68.6	4	-1E+10	1	-1E+10	1	-1E+10	1	-1E+10	1	-1E+10	1	-1E+10	1
4901784	60	C	02/24/2017	10:44	-132.412	44.047	0	127.10	0	8.7070	0	33.7660	4	26.200	0	126.041	0	194.6	4	68.3	4	-1E+10	1	-1E+10	1	-1E+10	1	-1E+10	1	-1E+10	1	-1E+10	1
4901784	60	C	02/24/2017	10:44	-132.412	44.047	0	129.80	0	8.6920	0	33.7980	4	26.228	0	128.717	0	193.7	4	68.0	4	-1E+10	1	-1E+10	1	-1E+10	1	-1E+10	1	-1E+10	1	-1E+10	1
4901784	60	C	02/24/2017	10:44	-132.412	44.047	0	132.50	0	8.7260	0	33.8410	4	26.256	0	131.394	0	192.7	4	67.7	4	-1E+10	1	-1E+10	1	-1E+10	1	-1E+10	1	-1E+10	1	-1E+10	1
4901784	60	C	02/24/2017	10:44	-132.412	44.047	0	135.30	0	8.7250	0	33.8640	4	26.274	0	134.170	0	191.6	4	67.3	4	-1E+10	1	-1E+10	1	-1E+10	1	-1E+10	1	-1E+10	1	-1E+10	1
4901784	60	C	02/24/2017	10:44	-132.412	44.047	0	138.10	0	8.7360	0	33.8760	4	26.282	0	136.945	0	190.6	4	67.0	4	-1E+10	1	-1E+10	1	-1E+10	1	-1E+10	1	-1E+10	1	-1E+10	1
4901784	60	C	02/24/2017	10:44	-132.412	44.047	0	139.90	0	8.6900	0	33.8950	4	26.304	0	138.730	0	190.2	4	66.8	4	-1E+10	1	-1E+10	1	-1E+10	1	-1E+10	1	-1E+10	1	-1E+10	1
4901784	60	C	02/24/2017	10:44	-132.412	44.047	0	142.70	0	8.6130	0	33.9160	4	26.332	0	141.505	0	189.3	4	66.4	4	-1E+10	1	-1E+10	1	-1E+10	1	-1E+10	1	-1E+10	1	-1E+10	1
4901784	60	C	02/24/2017	10:44	-132.412	44.047	0	145.40	0	8.5770	0	33.9230	4	26.344	0	144.182	0	188.4	4	66.0	4	-1E+10	1	-1E+10	1	-1E+10	1	-1E+10	1	-1E+10	1	-1E+10	1
4901784	60	C	02/24/2017	10:44	-132.412	44.047	0	147.20	0	8.5410	0	33.9460	4	26.367	0	145.966	0	187.7	4	65.7	4	-1E+10	1	-1E+10	1	-1E+10	1	-1E+10	1	-1E+10	1	-1E+10	1
4901784	60	C	02/24/2017	10:44	-132.412	44.047	0	149.90	0	8.5150	0	33.9640	4	26.385	0	148.642	0	187.1	4	65.5	4	-1E+10	1	-1E+10	1	-1E+10	1	-1E+10	1	-1E+10	1	-1E+10	1
4901784	60	C	02/24/2017	10:44	-132.412	44.047	0	152.70	0	8.4850	0	33.9650	4	26.391	0	151.418	0	186.6	4	65.2	4	-1E+10	1	-1E+10	1	-1E+10	1	-1E+10	1	-1E+10	1	-1E+10	1
4901784	60	C	02/24/2017	10:44	-132.412	44.047	0	154.60	0	8.4510	0	33.9650	4	26.396	0	153.301	0	186.3	4	65.1	4	-1E+10	1	-1E+10	1	-1E+10	1	-1E+10	1	-1E+10	1	-1E+10	1
4901784	60	C	02/24/2017	10:44	-132.412	44.047	0	157.40	0	8.4180	0	33.9660	4	26.402	0	156.077	0	185.6	4	64.8	4	-1E+10	1	-1E+10	1	-1E+10	1	-1E+10	1	-1E+10	1	-1E+10	1
4901784	60	C	02/24/2017	10:44	-132.412	44.047	0	160.30	0	8.4070	0	33.9660	4	26.403	0	158.951	0	184.3	4	64.3	4	-1E+10	1	-1E+10	1	-1E+10	1	-1E+10	1	-1E+10	1	-1E+10	1
4901784	60	C	02/24/2017	10:44	-132.412	44.047	0	162.20	0	8.3950	0	33.9680	4	26.407	0	160.834	0	183.2	4	63.9	4	-1E+10	1	-1E+10	1	-1E+10	1	-1E+10	1	-1E+10	1	-1E+10	1
4901784	60	C	02/24/2017	10:44	-132.412	44.047	0	164.90	0	8.3220	0	33.9790	4	26.427	0	163.511	0	182.0	4	63.4	4	-1E+10	1	-1E+10	1	-1E+10	1	-1E+10	1	-1E+10	1	-1E+10	1
4901784	60	C	02/24/2017	10:44	-132.412	44.047	0	168.30	0	8.2620	0	33.9830	4	26.439	0	166.880	0	181.4	4	63.1	4	-1E+10	1	-1E+10	1	-1E+10	1	-1E+10	1	-1E+10	1	-1E+10	1
4901784	60	C	02/24/2017	10:44	-132.412	44.047	0	170.10	0	8.2340	0	33.9840	4	26.444	0	168.665	0	181.0	4	63.0	4	-1E+10	1	-1E+10	1	-1E+10	1	-1E+10	1	-1E+10	1	-1E+10	1
4901784	60	C	02/24/2017	10:44	-132.412	44.047	0	172.50	0	8.2200	0	33.9830	4	26.445	0	171.043	0	180.5	4	62.8	4	-1E+10	1	-1E+10	1	-1E+10	1	-1E+10	1	-1E+10	1	-1E+10	1
4901784	60	C	02/24/2017	10:44	-132.412	44.047	0	174.80	0	8.1960	0	33.9820	4	26.448	0	173.323	0	180.0	4	62.5	4	-1E+10	1	-1E+10	1	-1E+10	1	-1E+10	1	-1E+10	1	-1E+10	1
4901784	60	C	02/24/2017	10:44	-132.412	44.047	0	177.10	0	8.1580	0	33.9810	4	26.453	0	175.603	0	179.6	4	62.3	4	-1E+10	1	-1E+10	1	-1E+10	1	-1E+10	1	-1E+10	1	-1E+10	1
4901784	60	C	02/24/2017	10:44	-132.412	44.047	0	180.30	0	8.1290	0	33.9800	4	26.457	0	178.774	0	178.9	4	62.1	4	-1E+10	1	-1E+10	1	-1E+10	1	-1E+10	1	-1E+10	1	-1E+10	1
4901784	60	C	02/24/2017	10:44	-132.412	44.047	0	182.70	0	8.0680	0	33.9810	4	26.466	0	181.153	0	178.3	4	61.8	4	-1E+10	1	-1E+10	1	-1E+10	1	-1E+10	1	-1E+10	1	-1E+10	1
4901784	60	C	02/24/2017	10:44	-132.412	44.047	0	185.10	0	8.0360	0	33.9810	4	26.471	0	183.531	0	177.7	4	61.5	4	-1E+10	1	-1E+10	1	-1E+10	1	-1E+10	1	-1E+10	1	-1E+10	1
4901784	60	C	02/24/2017	10:44	-132.412	44.047	0	187.50	0	7.9910	0	33.9810	4	26.478	0	185.910	0	177.2	4	61.3	4	-1E+10	1	-1E+10	1	-1E+10	1	-1E+10	1	-1E+10	1	-1E+10	1
4901784	60	C	02/24/2017	10:44	-132.412	44.047	0	189.90	0	7.9600	0	33.9810	4	26.483	0	188.288	0	176.6	4	61.1	4	-1E+10	1	-1E+10	1	-1E+10	1	-1E+10	1	-1E+10	1	-1E+10	1
4901784	60	C	02/24/2017	10:44	-132.412	44.047	0	192.30	0	7.9470	0	33.9800	4	26.484	0	190.667	0	175.7	4	60.7	4	-1E+10	1	-1E+10	1	-1E+10	1	-1E+10	1	-1E+10	1	-1E+10	1
4901784	60	C	02/24/2017	10:44	-132.412	44.047	0	194.70	0	7.9010	0	33.9800	4	26.490	0	193.046	0	174.2	4	60.1	4	-1E+10	1	-1E+10	1	-1E+10	1	-1E+10	1	-1E+10	1	-1E+10	1
4901784	60	C	02/24/2017	10:44	-132.412	44.047	0	197.10	0	7.7980	0	33.9860	4	26.510	0	195.424	0	172.8	4	59.5	4	-1E+10	1	-1E+10	1	-1E+10	1	-1E+10	1	-1E+10	1	-1E+10	1
4901784	60	C	02/24/2017	10:44	-132.412	44.047	0	199.60	0	7.7330	0	33.9840	4	26.518	0	197.902	0	172.0	4	59.2	4	-1E+10	1	-1E+10	1	-1E+10	1	-1E+10	1	-1E+10	1	-1E+10	1
4901784	60	C	02/24/2017	10:44	-132.412	44.047	0	202.10	0	7.7040	0	33.9830	4	26.522	0	200.379	0	171.2	4	58.8	4	-1E+10	1	-1E+10	1	-1E+10	1	-1E+10	1	-1E+10	1	-1E+10	1
4901784	60	C	02/24/2017	10:44	-132.412	44.047	0	204.60	0	7.6620	0	33.9830	4	26.528	0	202.857	0	170.1	4	58.4	4	-1E+10	1	-1E+10	1	-1E+10	1	-1E+10	1	-1E+10	1	-1E+10	1
4901784	60	C	02/24/2017	10:44	-132.412	44.047	0	207.10	0	7.6230	0	33.9820	4	26.532	0	205.334	0	169.0	4	58.0	4	-1E+10	1	-1E+10	1	-1E+10	1	-1E+10	1	-1E+10	1	-1E+10	1
4901784	60	C	02/24/2017	10:44	-132.412	44.047	0	209.70	0	7.5950	0	33.9800	4	26.535	0	207.910	0	167.8	4	57.5	4	-1E+10	1	-1E+10	1	-1E+10	1	-1E+10	1	-1E+10	1	-1E+10	1
4901784	60	C	02/24/2017	10:44	-132.412	44.047	0	212.30	0	7.5570	0	33.9800	4	26.540	0	210.487	0	166.3	4	57.0	4	-1E+10	1	-1E+10	1	-1E+10	1	-1E+10	1	-1E+10	1	-1E+10	1
4901784	60	C	02/24/2017	10:44	-132.412	44.047	0	214.80	0	7.4700	0	33.9780	4	26.551	0	212.964	0	164.9	4	56.4	4	-1E+10	1	-1E+10	1	-1E+10	1	-1E+10	1	-1E+10	1	-1E+10	1
4901784	60	C	02/24/2017	10:44	-132.412	44.047	0	217.40	0	7.4180	0	33.9780	4	26.559	0	215.541	0	163.8	4	55.9	4	-1E+10	1	-1E+10	1	-1E+10	1	-1E+10	1	-1E+10	1	-1E+10	1
4901784	60	C	02/24/2017	10:44	-132.412	44.047	0	220.10	0	7.3910	0	33.9770	4	26.562	0	218.216	0	162.9	4	55.6	4	-1E+10	1	-1E+10	1	-1E+10	1	-1E+10	1	-1E+10	1	-1E+10	1
4901784	60	C	02/24/2017	10:44	-132.412	44.047	0	222.70	0	7.3680	0	33.9770	4	26.565	0	220.793	0	162.2	4	55.3	4	-1E+10	1	-1E+10	1	-1E+10	1	-1E+10	1	-1E+10	1	-1E+10	1
4901784	60	C	02/24/2017	10:44	-132.412	44.047	0	225.40	0	7.3590	0	33.9760	4	26.565	0	223.468	0	161.1	4	54.9	4	-1E+10	1	-1E+10	1	-1E+10	1	-1E+10	1	-1E+10	1	-1E+10	1
4901784	60	C	02/24/2017	10:44	-132.412	44.047	0	228.10	0	7.3210	0	33.9750	4	26.570	0	226.143	0	159.7	4	54.4	4	-1E+10	1	-1E+10	1	-1E+10	1	-1E+10	1	-1E+10	1	-1E+10	1
4901784	60	C	02/24/2017	10:44	-132.412	44.047	0	229.90	0	7.3020	0	33.9740	4	26.572	0	227.927	0	158.5	4	54.0	4	-1E+10	1	-1E+10	1	-1E+10	1	-1E+10	1	-1E+10	1	-1E+10	1
4901784	60	C	02/24/2017	10:44	-132.412	44.047	0	232.60	0	7.2650	0	33.9740	4	26.577	0	230.602	0	156.5	4	53.2	4	-1E+10	1	-1E+10	1	-1E+10	1	-1E+10	1	-1E+10	1	-1E+10	1
4901784	60	C	02/24/2017	10:44	-132.412	44.047	0	235.20	0	7.2040	0	33.9740	4	26.586	0	233.179	0	154.4	4	52.5	4	-1E+10	1	-1E+10	1	-1E+10	1	-1E+10	1	-1E+10	1	-1E+10	1
4901784	60	C	02/24/2017	10:44	-132.412	44.047	0	237.00	0	7.1870	0	33.9740	4	26.588	0	234.962	0	153.1	4	52.0	4	-1E+10	1	-1E+10	1	-1E+10	1	-1E+10	1	-1E+10	1	-1E+10	1
4901784	60	C	02/24/2017	10:44	-132.412	44.047	0	239.70	0	7.1220	0	33.9730	4	26.596	0	237.637	0	152.0	4	51.5	4	-1E+10	1	-1E+10	1	-1E+10	1	-1E+10	1	-1E+10	1	-1E+10	1
4901784	60	C	02/24/2017	10:44	-132.412	44.047	0	242.40	0	7.0400	0	33.9730	4	26.608	0	240.312	0	151.0	4	51.1	4	-1E+10	1	-1E+10	1	-1E+10	1	-1E+10	1	-1E+10	1	-1E+10	1
4901784	60	C	02/24/2017	10:44	-132.412	44.047	0	245.10	0	7.0140	0	33.9730	4	26.611	0	242.988	0	150.2	4	50.8	4	-1E+10	1	-1E+10	1	-1E+10	1	-1E+10	1	-1E+10	1	-1E+10	1
4901784	60	C	02/24/2017	10:44	-132.412	44.047	0	247.90	0	6.9980	0	33.9720	4	26.613	0	245.762	0	149.3	4	50.5	4	-1E+10	1	-1E+10	1	-1E+10	1	-1E+10	1	-1E+10	1	-1E+10	1
4901784	60	C	02/24/2017	10:44	-132.412	44.047	0	249.70	0	6.9850	0	33.9710	4	26.614	0	247.545	0	148.3	4	50.1	4	-1E+10	1	-1E+10	1	-1E+10	1	-1E+10	1	-1E+10	1	-1E+10	1
4901784	60	C	02/24/2017	10:44	-132.412	44.047	0	252.50	0	6.9580	0	33.9680	4	26.615	0	250.319	0	146.4	4	49.5	4	-1E+10	1	-1E+10	1	-1E+10	1	-1E+10	1	-1E+10	1	-1E+10	1
4901784	60	C	02/24/2017	10:44	-132.412	44.047	0	255.20	0	6.8660	0	33.9690	4	26.628	0	252.994	0	144.7	4	48.8	4	-1E+10	1	-1E+10	1	-1E+10	1	-1E+10	1	-1E+10	1	-1E+10	1
4901784	60	C	02/24/2017	10:44	-132.412	44.047	0	257.10	0	6.8460	0	33.9680	4	26.630	0	254.877	0	143.5	4	48.4	4	-1E+10	1	-1E+10	1	-1E+10	1	-1E+10	1	-1E+10	1	-1E+10	1
4901784	60	C	02/24/2017	10:44	-132.412	44.047	0	260.00	0	6.7780	0	33.9700	4	26.641	0	257.750	0	141.7	4	47.7	4	-1E+10	1	-1E+10	1	-1E+10	1	-1E+10	1	-1E+10	1	-1E+10	1
4901784	60	C	02/24/2017	10:44	-132.412	44.047	0	262.80	0	6.7530	0	33.9700	4	26.644	0	260.524	0	140.6	4	47.3	4	-1E+10	1	-1E+10	1	-1E+10	1	-1E+10	1	-1E+10	1	-1E+10	1
4901784	60	C	02/24/2017	10:44	-132.412	44.047	0	264.70	0	6.7510	0	33.9690	4	26.644	0	262.406	0	139.4	4	46.9	4	-1E+10	1	-1E+10	1	-1E+10	1	-1E+10	1	-1E+10	1	-1E+10	1
4901784	60	C	02/24/2017	10:44	-132.412	44.047	0	267.50	0	6.6920	0	33.9710	4	26.653	0	265.180	0	137.6	4	46.2	4	-1E+10	1	-1E+10	1	-1E+10	1	-1E+10	1	-1E+10	1	-1E+10	1
4901784	60	C	02/24/2017	10:44	-132.412	44.047	0	270.30	0	6.6530	0	33.9700	4	26.658	0	267.954	0	136.1	4	45.7	4	-1E+10	1	-1E+10	1	-1E+10	1	-1E+10	1	-1E+10	1	-1E+10	1
4901784	60	C	02/24/2017	10:44	-132.412	44.047	0	272.10	0	6.6300	0	33.9690	4	26.660	0	269.737	0	134.8	4	45.2	4	-1E+10	1	-1E+10	1	-1E+10	1	-1E+10	1	-1E+10	1	-1E+10	1
4901784	60	C	02/24/2017	10:44	-132.412	44.047	0	275.00	0	6.5480	0	33.9710	4	26.672	0	272.610	0	133.1	4	44.6	4	-1E+10	1	-1E+10	1	-1E+10	1	-1E+10	1	-1E+10	1	-1E+10	1
4901784	60	C	02/24/2017	10:44	-132.412	44.047	0	277.80	0	6.5080	0	33.9700	4	26.677	0	275.384	0	131.6	4	44.0	4	-1E+10	1	-1E+10	1	-1E+10	1	-1E+10	1	-1E+10	1	-1E+10	1
4901784	60	C	02/24/2017	10:44	-132.412	44.047	0	279.70	0	6.4680	0	33.9720	4	26.684	0	277.266	0	130.7	4	43.7	4	-1E+10	1	-1E+10	1	-1E+10	1	-1E+10	1	-1E+10	1	-1E+10	1
4901784	60	C	02/24/2017	10:44	-132.412	44.047	0	282.60	0	6.4420	0	33.9700	4	26.686	0	280.139	0	129.5	4	43.3	4	-1E+10	1	-1E+10	1	-1E+10	1	-1E+10	1	-1E+10	1	-1E+10	1
4901784	60	C	02/24/2017	10:44	-132.412	44.047	0	285.50	0	6.4030	0	33.9710	4	26.691	0	283.012	0	128.2	4	42.8	4	-1E+10	1	-1E+10	1	-1E+10	1	-1E+10	1	-1E+10	1	-1E+10	1
4901784	60	C	02/24/2017	10:44	-132.412	44.047	0	287.50	0	6.3810	0	33.9710	4	26.694	0	284.993	0	127.5	4	42.5	4	-1E+10	1	-1E+10	1	-1E+10	1	-1E+10	1	-1E+10	1	-1E+10	1
4901784	60	C	02/24/2017	10:44	-132.412	44.047	0	289.40	0	6.3700	0	33.9700	4	26.695	0	286.875	0	126.8	4	42.3	4	-1E+10	1	-1E+10	1	-1E+10	1	-1E+10	1	-1E+10	1	-1E+10	1
4901784	60	C	02/24/2017	10:44	-132.412	44.047	0	292.20	0	6.3280	0	33.9710	4	26.701	0	289.649	0	125.3	4	41.7	4	-1E+10	1	-1E+10	1	-1E+10	1	-1E+10	1	-1E+10	1	-1E+10	1
4901784	60	C	02/24/2017	10:44	-132.412	44.047	0	295.10	0	6.2600	0	33.9710	4	26.710	0	292.521	0	124.3	4	41.3	4	-1E+10	1	-1E+10	1	-1E+10	1	-1E+10	1	-1E+10	1	-1E+10	1
4901784	60	C	02/24/2017	10:44	-132.412	44.047	0	297.00	0	6.2500	0	33.9700	4	26.710	0	294.403	0	123.6	4	41.1	4	-1E+10	1	-1E+10	1	-1E+10	1	-1E+10	1	-1E+10	1	-1E+10	1
4901784	60	C	02/24/2017	10:44	-132.412	44.047	0	300.00	0	6.2020	0	33.9700	4	26.717	0	297.375	0	122.6	4	40.7	4	-1E+10	1	-1E+10	1	-1E+10	1	-1E+10	1	-1E+10	1	-1E+10	1
4901784	60	C	02/24/2017	10:44	-132.412	44.047	0	302.90	0	6.1380	0	33.9680	4	26.723	0	300.248	0	121.5	4	40.3	4	-1E+10	1	-1E+10	1	-1E+10	1	-1E+10	1	-1E+10	1	-1E+10	1
4901784	60	C	02/24/2017	10:44	-132.412	44.047	0	304.80	0	6.1280	0	33.9660	4	26.723	0	302.130	0	120.7	4	40.0	4	-1E+10	1	-1E+10	1	-1E+10	1	-1E+10	1	-1E+10	1	-1E+10	1
4901784	60	C	02/24/2017	10:44	-132.412	44.047	0	307.60	0	6.0990	0	33.9660	4	26.727	0	304.903	0	119.0	4	39.4	4	-1E+10	1	-1E+10	1	-1E+10	1	-1E+10	1	-1E+10	1	-1E+10	1
4901784	60	C	02/24/2017	10:44	-132.412	44.047	0	310.50	0	6.0450	0	33.9660	4	26.733	0	307.775	0	117.5	4	38.9	4	-1E+10	1	-1E+10	1	-1E+10	1	-1E+10	1	-1E+10	1	-1E+10	1
4901784	60	C	02/24/2017	10:44	-132.412	44.047	0	312.40	0	6.0160	0	33.9650	4	26.736	0	309.657	0	116.3	4	38.4	4	-1E+10	1	-1E+10	1	-1E+10	1	-1E+10	1	-1E+10	1	-1E+10	1
4901784	60	C	02/24/2017	10:44	-132.412	44.047	0	314.40	0	5.9810	0	33.9670	4	26.742	0	311.638	0	115.2	4	38.0	4	-1E+10	1	-1E+10	1	-1E+10	1	-1E+10	1	-1E+10	1	-1E+10	1
4901784	60	C	02/24/2017	10:44	-132.412	44.047	0	317.20	0	5.9160	0	33.9660	4	26.750	0	314.412	0	113.8	4	37.5	4	-1E+10	1	-1E+10	1	-1E+10	1	-1E+10	1	-1E+10	1	-1E+10	1
4901784	60	C	02/24/2017	10:44	-132.412	44.047	0	320.10	0	5.8820	0	33.9660	4	26.754	0	317.284	0	112.6	4	37.1	4	-1E+10	1	-1E+10	1	-1E+10	1	-1E+10	1	-1E+10	1	-1E+10	1
4901784	60	C	02/24/2017	10:44	-132.412	44.047	0	322.00	0	5.8650	0	33.9660	4	26.756	0	319.166	0	111.8	4	36.8	4	-1E+10	1	-1E+10	1	-1E+10	1	-1E+10	1	-1E+10	1	-1E+10	1
4901784	60	C	02/24/2017	10:44	-132.412	44.047	0	324.90	0	5.8220	0	33.9670	4	26.762	0	322.038	0	110.7	4	36.4	4	-1E+10	1	-1E+10	1	-1E+10	1	-1E+10	1	-1E+10	1	-1E+10	1
4901784	60	C	02/24/2017	10:44	-132.412	44.047	0	327.80	0	5.7920	0	33.9670	4	26.766	0	324.910	0	109.6	4	36.1	4	-1E+10	1	-1E+10	1	-1E+10	1	-1E+10	1	-1E+10	1	-1E+10	1
4901784	60	C	02/24/2017	10:44	-132.412	44.047	0	329.80	0	5.7770	0	33.9680	4	26.768	0	326.891	0	108.9	4	35.8	4	-1E+10	1	-1E+10	1	-1E+10	1	-1E+10	1	-1E+10	1	-1E+10	1
4901784	60	C	02/24/2017	10:44	-132.412	44.047	0	332.70	0	5.7520	0	33.9690	4	26.772	0	329.763	0	108.1	4	35.5	4	-1E+10	1	-1E+10	1	-1E+10	1	-1E+10	1	-1E+10	1	-1E+10	1
4901784	60	C	02/24/2017	10:44	-132.412	44.047	0	335.60	0	5.7480	0	33.9680	4	26.772	0	332.635	0	107.2	4	35.2	4	-1E+10	1	-1E+10	1	-1E+10	1	-1E+10	1	-1E+10	1	-1E+10	1
4901784	60	C	02/24/2017	10:44	-132.412	44.047	0	337.60	0	5.7370	0	33.9680	4	26.773	0	334.616	0	106.5	4	35.0	4	-1E+10	1	-1E+10	1	-1E+10	1	-1E+10	1	-1E+10	1	-1E+10	1
4901784	60	C	02/24/2017	10:44	-132.412	44.047	0	339.50	0	5.7220	0	33.9690	4	26.776	0	336.497	0	105.7	4	34.7	4	-1E+10	1	-1E+10	1	-1E+10	1	-1E+10	1	-1E+10	1	-1E+10	1
4901784	60	C	02/24/2017	10:44	-132.412	44.047	0	342.30	0	5.7130	0	33.9670	4	26.776	0	339.270	0	104.2	4	34.2	4	-1E+10	1	-1E+10	1	-1E+10	1	-1E+10	1	-1E+10	1	-1E+10	1
4901784	60	C	02/24/2017	10:44	-132.412	44.047	0	345.20	0	5.6720	0	33.9680	4	26.781	0	342.142	0	102.1	4	33.5	4	-1E+10	1	-1E+10	1	-1E+10	1	-1E+10	1	-1E+10	1	-1E+10	1
4901784	60	C	02/24/2017	10:44	-132.412	44.047	0	347.10	0	5.6210	0	33.9680	4	26.788	0	344.024	0	101.0	4	33.1	4	-1E+10	1	-1E+10	1	-1E+10	1	-1E+10	1	-1E+10	1	-1E+10	1
4901784	60	C	02/24/2017	10:44	-132.412	44.047	0	350.00	0	5.5660	0	33.9710	4	26.797	0	346.896	0	99.3	4	32.5	4	-1E+10	1	-1E+10	1	-1E+10	1	-1E+10	1	-1E+10	1	-1E+10	1
4901784	60	C	02/24/2017	10:44	-132.412	44.047	0	352.80	0	5.5200	0	33.9710	4	26.802	0	349.669	0	97.7	4	31.9	4	-1E+10	1	-1E+10	1	-1E+10	1	-1E+10	1	-1E+10	1	-1E+10	1
4901784	60	C	02/24/2017	10:44	-132.412	44.047	0	354.70	0	5.5010	0	33.9700	4	26.804	0	351.550	0	96.6	4	31.6	4	-1E+10	1	-1E+10	1	-1E+10	1	-1E+10	1	-1E+10	1	-1E+10	1
4901784	60	C	02/24/2017	10:44	-132.412	44.047	0	357.60	0	5.4680	0	33.9710	4	26.808	0	354.422	0	94.7	4	30.9	4	-1E+10	1	-1E+10	1	-1E+10	1	-1E+10	1	-1E+10	1	-1E+10	1
4901784	60	C	02/24/2017	10:44	-132.412	44.047	0	360.40	0	5.4420	0	33.9710	4	26.812	0	357.195	0	92.5	4	30.2	4	-1E+10	1	-1E+10	1	-1E+10	1	-1E+10	1	-1E+10	1	-1E+10	1
4901784	60	C	02/24/2017	10:44	-132.412	44.047	0	362.30	0	5.4000	0	33.9750	4	26.820	0	359.076	0	90.8	4	29.6	4	-1E+10	1	-1E+10	1	-1E+10	1	-1E+10	1	-1E+10	1	-1E+10	1
4901784	60	C	02/24/2017	10:44	-132.412	44.047	0	365.10	0	5.3660	0	33.9810	4	26.828	0	361.849	0	88.7	4	28.9	4	-1E+10	1	-1E+10	1	-1E+10	1	-1E+10	1	-1E+10	1	-1E+10	1
4901784	60	C	02/24/2017	10:44	-132.412	44.047	0	368.10	0	5.3310	0	33.9820	4	26.833	0	364.819	0	87.0	4	28.3	4	-1E+10	1	-1E+10	1	-1E+10	1	-1E+10	1	-1E+10	1	-1E+10	1
4901784	60	C	02/24/2017	10:44	-132.412	44.047	0	370.00	0	5.3130	0	33.9850	4	26.838	0	366.701	0	85.6	4	27.8	4	-1E+10	1	-1E+10	1	-1E+10	1	-1E+10	1	-1E+10	1	-1E+10	1
4901784	60	C	02/24/2017	10:44	-132.412	44.047	0	372.80	0	5.2930	0	33.9850	4	26.840	0	369.473	0	83.3	4	27.1	4	-1E+10	1	-1E+10	1	-1E+10	1	-1E+10	1	-1E+10	1	-1E+10	1
4901784	60	C	02/24/2017	10:44	-132.412	44.047	0	375.70	0	5.2810	0	33.9900	4	26.846	0	372.345	0	80.5	4	26.2	4	-1E+10	1	-1E+10	1	-1E+10	1	-1E+10	1	-1E+10	1	-1E+10	1
4901784	60	C	02/24/2017	10:44	-132.412	44.047	0	377.60	0	5.2880	0	33.9980	4	26.851	0	374.226	0	78.9	4	25.7	4	-1E+10	1	-1E+10	1	-1E+10	1	-1E+10	1	-1E+10	1	-1E+10	1
4901784	60	C	02/24/2017	10:44	-132.412	44.047	0	379.60	0	5.2570	0	34.0010	4	26.857	0	376.206	0	77.7	4	25.3	4	-1E+10	1	-1E+10	1	-1E+10	1	-1E+10	1	-1E+10	1	-1E+10	1
4901784	60	C	02/24/2017	10:44	-132.412	44.047	0	382.50	0	5.2480	0	34.0060	4	26.862	0	379.078	0	76.1	4	24.7	4	-1E+10	1	-1E+10	1	-1E+10	1	-1E+10	1	-1E+10	1	-1E+10	1
4901784	60	C	02/24/2017	10:44	-132.412	44.047	0	385.30	0	5.2340	0	34.0090	4	26.866	0	381.850	0	74.8	4	24.3	4	-1E+10	1	-1E+10	1	-1E+10	1	-1E+10	1	-1E+10	1	-1E+10	1
4901784	60	C	02/24/2017	10:44	-132.412	44.047	0	387.70	0	5.2180	0	34.0110	4	26.870	0	384.226	0	74.0	4	24.0	4	-1E+10	1	-1E+10	1	-1E+10	1	-1E+10	1	-1E+10	1	-1E+10	1
4901784	60	C	02/24/2017	10:44	-132.412	44.047	0	390.40	0	5.2010	0	34.0130	4	26.873	0	386.900	0	72.9	4	23.7	4	-1E+10	1	-1E+10	1	-1E+10	1	-1E+10	1	-1E+10	1	-1E+10	1
4901784	60	C	02/24/2017	10:44	-132.412	44.047	0	392.80	0	5.1740	0	34.0170	4	26.880	0	389.276	0	72.1	4	23.4	4	-1E+10	1	-1E+10	1	-1E+10	1	-1E+10	1	-1E+10	1	-1E+10	1
4901784	60	C	02/24/2017	10:44	-132.412	44.047	0	395.20	0	5.1660	0	34.0180	4	26.881	0	391.652	0	71.8	4	23.3	4	-1E+10	1	-1E+10	1	-1E+10	1	-1E+10	1	-1E+10	1	-1E+10	1
4901784	60	C	02/24/2017	10:44	-132.412	44.047	0	397.60	0	5.1610	0	34.0190	4	26.883	0	394.028	0	71.5	4	23.2	4	-1E+10	1	-1E+10	1	-1E+10	1	-1E+10	1	-1E+10	1	-1E+10	1
4901784	60	C	02/24/2017	10:44	-132.412	44.047	0	400.00	0	5.1600	0	34.0190	4	26.883	0	396.404	0	71.2	4	23.1	4	-1E+10	1	-1E+10	1	-1E+10	1	-1E+10	1	-1E+10	1	-1E+10	1
4901784	60	C	02/24/2017	10:44	-132.412	44.047	0	402.40	0	5.1590	0	34.0180	4	26.882	0	398.781	0	70.7	4	22.9	4	-1E+10	1	-1E+10	1	-1E+10	1	-1E+10	1	-1E+10	1	-1E+10	1
4901784	60	C	02/24/2017	10:44	-132.412	44.047	0	404.80	0	5.1540	0	34.0190	4	26.884	0	401.157	0	70.0	4	22.7	4	-1E+10	1	-1E+10	1	-1E+10	1	-1E+10	1	-1E+10	1	-1E+10	1
4901784	60	C	02/24/2017	10:44	-132.412	44.047	0	407.20	0	5.1430	0	34.0200	4	26.886	0	403.533	0	69.2	4	22.4	4	-1E+10	1	-1E+10	1	-1E+10	1	-1E+10	1	-1E+10	1	-1E+10	1
4901784	60	C	02/24/2017	10:44	-132.412	44.047	0	409.60	0	5.1340	0	34.0220	4	26.888	0	405.909	0	68.3	4	22.1	4	-1E+10	1	-1E+10	1	-1E+10	1	-1E+10	1	-1E+10	1	-1E+10	1
4901784	60	C	02/24/2017	10:44	-132.412	44.047	0	412.70	0	5.1100	0	34.0240	4	26.893	0	408.978	0	67.1	4	21.7	4	-1E+10	1	-1E+10	1	-1E+10	1	-1E+10	1	-1E+10	1	-1E+10	1
4901784	60	C	02/24/2017	10:44	-132.412	44.047	0	415.10	0	5.0910	0	34.0260	4	26.897	0	411.354	0	66.2	4	21.4	4	-1E+10	1	-1E+10	1	-1E+10	1	-1E+10	1	-1E+10	1	-1E+10	1
4901784	60	C	02/24/2017	10:44	-132.412	44.047	0	417.70	0	5.0830	0	34.0270	4	26.898	0	413.928	0	65.3	4	21.1	4	-1E+10	1	-1E+10	1	-1E+10	1	-1E+10	1	-1E+10	1	-1E+10	1
4901784	60	C	02/24/2017	10:44	-132.412	44.047	0	420.20	0	5.0690	0	34.0290	4	26.901	0	416.403	0	64.2	4	20.8	4	-1E+10	1	-1E+10	1	-1E+10	1	-1E+10	1	-1E+10	1	-1E+10	1
4901784	60	C	02/24/2017	10:44	-132.412	44.047	0	422.70	0	5.0520	0	34.0320	4	26.906	0	418.878	0	63.1	4	20.4	4	-1E+10	1	-1E+10	1	-1E+10	1	-1E+10	1	-1E+10	1	-1E+10	1
4901784	60	C	02/24/2017	10:44	-132.412	44.047	0	425.30	0	5.0330	0	34.0340	4	26.910	0	421.451	0	61.9	4	20.0	4	-1E+10	1	-1E+10	1	-1E+10	1	-1E+10	1	-1E+10	1	-1E+10	1
4901784	60	C	02/24/2017	10:44	-132.412	44.047	0	427.80	0	5.0250	0	34.0380	4	26.914	0	423.926	0	60.7	4	19.6	4	-1E+10	1	-1E+10	1	-1E+10	1	-1E+10	1	-1E+10	1	-1E+10	1
4901784	60	C	02/24/2017	10:44	-132.412	44.047	0	430.30	0	5.0210	0	34.0440	4	26.919	0	426.401	0	59.5	4	19.2	4	-1E+10	1	-1E+10	1	-1E+10	1	-1E+10	1	-1E+10	1	-1E+10	1
4901784	60	C	02/24/2017	10:44	-132.412	44.047	0	432.80	0	5.0150	0	34.0460	4	26.921	0	428.876	0	58.6	4	18.9	4	-1E+10	1	-1E+10	1	-1E+10	1	-1E+10	1	-1E+10	1	-1E+10	1
4901784	60	C	02/24/2017	10:44	-132.412	44.047	0	435.30	0	5.0040	0	34.0490	4	26.925	0	431.350	0	57.6	4	18.6	4	-1E+10	1	-1E+10	1	-1E+10	1	-1E+10	1	-1E+10	1	-1E+10	1
4901784	60	C	02/24/2017	10:44	-132.412	44.047	0	437.10	0	4.9950	0	34.0490	4	26.926	0	433.132	0	56.9	4	18.4	4	-1E+10	1	-1E+10	1	-1E+10	1	-1E+10	1	-1E+10	1	-1E+10	1
4901784	60	C	02/24/2017	10:44	-132.412	44.047	0	439.60	0	4.9790	0	34.0530	4	26.931	0	435.607	0	55.6	4	17.9	4	-1E+10	1	-1E+10	1	-1E+10	1	-1E+10	1	-1E+10	1	-1E+10	1
4901784	60	C	02/24/2017	10:44	-132.412	44.047	0	442.20	0	4.9650	0	34.0570	4	26.936	0	438.181	0	54.4	4	17.5	4	-1E+10	1	-1E+10	1	-1E+10	1	-1E+10	1	-1E+10	1	-1E+10	1
4901784	60	C	02/24/2017	10:44	-132.412	44.047	0	444.80	0	4.9510	0	34.0620	4	26.941	0	440.754	0	53.2	4	17.2	4	-1E+10	1	-1E+10	1	-1E+10	1	-1E+10	1	-1E+10	1	-1E+10	1
4901784	60	C	02/24/2017	10:44	-132.412	44.047	0	447.50	0	4.9300	0	34.0640	4	26.945	0	443.427	0	52.1	4	16.8	4	-1E+10	1	-1E+10	1	-1E+10	1	-1E+10	1	-1E+10	1	-1E+10	1
4901784	60	C	02/24/2017	10:44	-132.412	44.047	0	450.10	0	4.9120	0	34.0680	4	26.950	0	446.000	0	51.1	4	16.5	4	-1E+10	1	-1E+10	1	-1E+10	1	-1E+10	1	-1E+10	1	-1E+10	1
4901784	60	C	02/24/2017	10:44	-132.412	44.047	0	452.80	0	4.8990	0	34.0730	4	26.956	0	448.673	0	50.2	4	16.2	4	-1E+10	1	-1E+10	1	-1E+10	1	-1E+10	1	-1E+10	1	-1E+10	1
4901784	60	C	02/24/2017	10:44	-132.412	44.047	0	454.60	0	4.8920	0	34.0760	4	26.959	0	450.454	0	49.6	4	16.0	4	-1E+10	1	-1E+10	1	-1E+10	1	-1E+10	1	-1E+10	1	-1E+10	1
4901784	60	C	02/24/2017	10:44	-132.412	44.047	0	457.30	0	4.8810	0	34.0770	4	26.961	0	453.127	0	48.9	4	15.8	4	-1E+10	1	-1E+10	1	-1E+10	1	-1E+10	1	-1E+10	1	-1E+10	1
4901784	60	C	02/24/2017	10:44	-132.412	44.047	0	460.10	0	4.8720	0	34.0800	4	26.965	0	455.898	0	48.2	4	15.5	4	-1E+10	1	-1E+10	1	-1E+10	1	-1E+10	1	-1E+10	1	-1E+10	1
4901784	60	C	02/24/2017	10:44	-132.412	44.047	0	462.80	0	4.8650	0	34.0830	4	26.968	0	458.571	0	47.4	4	15.3	4	-1E+10	1	-1E+10	1	-1E+10	1	-1E+10	1	-1E+10	1	-1E+10	1
4901784	60	C	02/24/2017	10:44	-132.412	44.047	0	465.50	0	4.8600	0	34.0840	4	26.969	0	461.243	0	46.7	4	15.0	4	-1E+10	1	-1E+10	1	-1E+10	1	-1E+10	1	-1E+10	1	-1E+10	1
4901784	60	C	02/24/2017	10:44	-132.412	44.047	0	467.30	0	4.8560	0	34.0840	4	26.970	0	463.024	0	46.0	4	14.8	4	-1E+10	1	-1E+10	1	-1E+10	1	-1E+10	1	-1E+10	1	-1E+10	1
4901784	60	C	02/24/2017	10:44	-132.412	44.047	0	470.10	0	4.8420	0	34.0890	4	26.975	0	465.796	0	44.8	4	14.4	4	-1E+10	1	-1E+10	1	-1E+10	1	-1E+10	1	-1E+10	1	-1E+10	1
4901784	60	C	02/24/2017	10:44	-132.412	44.047	0	472.90	0	4.8270	0	34.0920	4	26.979	0	468.567	0	44.0	4	14.2	4	-1E+10	1	-1E+10	1	-1E+10	1	-1E+10	1	-1E+10	1	-1E+10	1
4901784	60	C	02/24/2017	10:44	-132.412	44.047	0	474.80	0	4.8120	0	34.0960	4	26.984	0	470.447	0	43.5	4	14.0	4	-1E+10	1	-1E+10	1	-1E+10	1	-1E+10	1	-1E+10	1	-1E+10	1
4901784	60	C	02/24/2017	10:44	-132.412	44.047	0	477.60	0	4.8040	0	34.0980	4	26.987	0	473.219	0	42.9	4	13.8	4	-1E+10	1	-1E+10	1	-1E+10	1	-1E+10	1	-1E+10	1	-1E+10	1
4901784	60	C	02/24/2017	10:44	-132.412	44.047	0	480.40	0	4.7880	0	34.1000	4	26.990	0	475.990	0	42.3	4	13.6	4	-1E+10	1	-1E+10	1	-1E+10	1	-1E+10	1	-1E+10	1	-1E+10	1
4901784	60	C	02/24/2017	10:44	-132.412	44.047	0	482.30	0	4.7680	0	34.1030	4	26.995	0	477.870	0	42.0	4	13.5	4	-1E+10	1	-1E+10	1	-1E+10	1	-1E+10	1	-1E+10	1	-1E+10	1
4901784	60	C	02/24/2017	10:44	-132.412	44.047	0	485.20	0	4.7610	0	34.1040	4	26.996	0	480.740	0	41.6	4	13.4	4	-1E+10	1	-1E+10	1	-1E+10	1	-1E+10	1	-1E+10	1	-1E+10	1
4901784	60	C	02/24/2017	10:44	-132.412	44.047	0	488.10	0	4.7500	0	34.1050	4	26.998	0	483.610	0	41.2	4	13.2	4	-1E+10	1	-1E+10	1	-1E+10	1	-1E+10	1	-1E+10	1	-1E+10	1
4901784	60	C	02/24/2017	10:44	-132.412	44.047	0	490.10	0	4.7370	0	34.1070	4	27.001	0	485.589	0	40.9	4	13.1	4	-1E+10	1	-1E+10	1	-1E+10	1	-1E+10	1	-1E+10	1	-1E+10	1
4901784	60	C	02/24/2017	10:44	-132.412	44.047	0	492.60	0	4.7320	0	34.1080	4	27.003	0	488.063	0	40.5	4	13.0	4	-1E+10	1	-1E+10	1	-1E+10	1	-1E+10	1	-1E+10	1	-1E+10	1
4901784	60	C	02/24/2017	10:44	-132.412	44.047	0	494.60	0	4.7170	0	34.1110	4	27.007	0	490.043	0	40.0	4	12.9	4	-1E+10	1	-1E+10	1	-1E+10	1	-1E+10	1	-1E+10	1	-1E+10	1
4901784	60	C	02/24/2017	10:44	-132.412	44.047	0	497.10	0	4.7040	0	34.1130	4	27.010	0	492.517	0	39.7	4	12.7	4	-1E+10	1	-1E+10	1	-1E+10	1	-1E+10	1	-1E+10	1	-1E+10	1
4901784	60	C	02/24/2017	10:44	-132.412	44.047	0	500.40	0	4.6960	0	34.1140	4	27.011	0	495.782	0	39.2	4	12.6	4	-1E+10	1	-1E+10	1	-1E+10	1	-1E+10	1	-1E+10	1	-1E+10	1
4901784	60	C	02/24/2017	10:44	-132.412	44.047	0	504.50	0	4.6890	0	34.1150	4	27.013	0	499.839	0	38.5	4	12.4	4	-1E+10	1	-1E+10	1	-1E+10	1	-1E+10	1	-1E+10	1	-1E+10	1
4901784	60	C	02/24/2017	10:44	-132.412	44.047	0	509.50	0	4.6700	0	34.1200	4	27.019	0	504.787	0	37.6	4	12.0	4	-1E+10	1	-1E+10	1	-1E+10	1	-1E+10	1	-1E+10	1	-1E+10	1
4901784	60	C	02/24/2017	10:44	-132.412	44.047	0	514.50	0	4.6620	0	34.1240	4	27.023	0	509.735	0	36.9	4	11.8	4	-1E+10	1	-1E+10	1	-1E+10	1	-1E+10	1	-1E+10	1	-1E+10	1
4901784	60	C	02/24/2017	10:44	-132.412	44.047	0	519.60	0	4.6370	0	34.1250	4	27.027	0	514.781	0	36.1	4	11.6	4	-1E+10	1	-1E+10	1	-1E+10	1	-1E+10	1	-1E+10	1	-1E+10	1
4901784	60	C	02/24/2017	10:44	-132.412	44.047	0	524.70	0	4.6080	0	34.1310	4	27.035	0	519.828	0	35.3	4	11.3	4	-1E+10	1	-1E+10	1	-1E+10	1	-1E+10	1	-1E+10	1	-1E+10	1
4901784	60	C	02/24/2017	10:44	-132.412	44.047	0	529.80	0	4.6020	0	34.1310	4	27.035	0	524.874	0	34.4	4	11.0	4	-1E+10	1	-1E+10	1	-1E+10	1	-1E+10	1	-1E+10	1	-1E+10	1
4901784	60	C	02/24/2017	10:44	-132.412	44.047	0	534.80	0	4.5830	0	34.1360	4	27.042	0	529.821	0	32.8	4	10.5	4	-1E+10	1	-1E+10	1	-1E+10	1	-1E+10	1	-1E+10	1	-1E+10	1
4901784	60	C	02/24/2017	10:44	-132.412	44.047	0	539.80	0	4.5530	0	34.1460	4	27.053	0	534.768	0	31.3	4	10.0	4	-1E+10	1	-1E+10	1	-1E+10	1	-1E+10	1	-1E+10	1	-1E+10	1
4901784	60	C	02/24/2017	10:44	-132.412	44.047	0	545.00	0	4.5360	0	34.1510	4	27.059	0	539.913	0	30.8	4	9.8	4	-1E+10	1	-1E+10	1	-1E+10	1	-1E+10	1	-1E+10	1	-1E+10	1
4901784	60	C	02/24/2017	10:44	-132.412	44.047	0	550.20	0	4.5340	0	34.1520	4	27.060	0	545.057	0	30.3	4	9.7	4	-1E+10	1	-1E+10	1	-1E+10	1	-1E+10	1	-1E+10	1	-1E+10	1
4901784	60	C	02/24/2017	10:44	-132.412	44.047	0	555.50	0	4.5270	0	34.1540	4	27.062	0	550.301	0	29.6	4	9.5	4	-1E+10	1	-1E+10	1	-1E+10	1	-1E+10	1	-1E+10	1	-1E+10	1
4901784	60	C	02/24/2017	10:44	-132.412	44.047	0	560.70	0	4.5040	0	34.1590	4	27.069	0	555.445	0	28.5	4	9.1	4	-1E+10	1	-1E+10	1	-1E+10	1	-1E+10	1	-1E+10	1	-1E+10	1
4901784	60	C	02/24/2017	10:44	-132.412	44.047	0	565.00	0	4.4800	0	34.1650	4	27.076	0	559.699	0	28.0	4	8.9	4	-1E+10	1	-1E+10	1	-1E+10	1	-1E+10	1	-1E+10	1	-1E+10	1
4901784	60	C	02/24/2017	10:44	-132.412	44.047	0	569.40	0	4.4690	0	34.1670	4	27.079	0	564.052	0	27.6	4	8.8	4	-1E+10	1	-1E+10	1	-1E+10	1	-1E+10	1	-1E+10	1	-1E+10	1
4901784	60	C	02/24/2017	10:44	-132.412	44.047	0	574.70	0	4.4610	0	34.1670	4	27.080	0	569.295	0	27.1	4	8.7	4	-1E+10	1	-1E+10	1	-1E+10	1	-1E+10	1	-1E+10	1	-1E+10	1
4901784	60	C	02/24/2017	10:44	-132.412	44.047	0	580.00	0	4.4390	0	34.1710	4	27.085	0	574.538	0	26.4	4	8.4	4	-1E+10	1	-1E+10	1	-1E+10	1	-1E+10	1	-1E+10	1	-1E+10	1
4901784	60	C	02/24/2017	10:44	-132.412	44.047	0	585.30	0	4.4210	0	34.1760	4	27.091	0	579.780	0	25.9	4	8.3	4	-1E+10	1	-1E+10	1	-1E+10	1	-1E+10	1	-1E+10	1	-1E+10	1
4901784	60	C	02/24/2017	10:44	-132.412	44.047	0	590.60	0	4.4050	0	34.1790	4	27.095	0	585.023	0	25.3	4	8.1	4	-1E+10	1	-1E+10	1	-1E+10	1	-1E+10	1	-1E+10	1	-1E+10	1
4901784	60	C	02/24/2017	10:44	-132.412	44.047	0	595.00	0	4.3910	0	34.1820	4	27.099	0	589.375	0	24.8	4	7.9	4	-1E+10	1	-1E+10	1	-1E+10	1	-1E+10	1	-1E+10	1	-1E+10	1
4901784	60	C	02/24/2017	10:44	-132.412	44.047	0	599.40	0	4.3750	0	34.1850	4	27.103	0	593.727	0	24.3	4	7.8	4	-1E+10	1	-1E+10	1	-1E+10	1	-1E+10	1	-1E+10	1	-1E+10	1
4901784	60	C	02/24/2017	10:44	-132.412	44.047	0	604.60	0	4.3550	0	34.1890	4	27.109	0	598.871	0	23.8	4	7.6	4	-1E+10	1	-1E+10	1	-1E+10	1	-1E+10	1	-1E+10	1	-1E+10	1
4901784	60	C	02/24/2017	10:44	-132.412	44.047	0	609.80	0	4.3400	0	34.1920	4	27.113	0	604.014	0	23.1	4	7.4	4	-1E+10	1	-1E+10	1	-1E+10	1	-1E+10	1	-1E+10	1	-1E+10	1
4901784	60	C	02/24/2017	10:44	-132.412	44.047	0	615.00	0	4.3150	0	34.1990	4	27.121	0	609.157	0	22.4	4	7.1	4	-1E+10	1	-1E+10	1	-1E+10	1	-1E+10	1	-1E+10	1	-1E+10	1
4901784	60	C	02/24/2017	10:44	-132.412	44.047	0	620.20	0	4.3020	0	34.2030	4	27.126	0	614.300	0	21.8	4	6.9	4	-1E+10	1	-1E+10	1	-1E+10	1	-1E+10	1	-1E+10	1	-1E+10	1
4901784	60	C	02/24/2017	10:44	-132.412	44.047	0	625.40	0	4.2850	0	34.2070	4	27.131	0	619.443	0	21.2	4	6.7	4	-1E+10	1	-1E+10	1	-1E+10	1	-1E+10	1	-1E+10	1	-1E+10	1
4901784	60	C	02/24/2017	10:44	-132.412	44.047	0	630.50	0	4.2560	0	34.2130	4	27.138	0	624.486	0	20.3	4	6.5	4	-1E+10	1	-1E+10	1	-1E+10	1	-1E+10	1	-1E+10	1	-1E+10	1
4901784	60	C	02/24/2017	10:44	-132.412	44.047	0	635.50	0	4.2310	0	34.2200	4	27.147	0	629.431	0	19.7	4	6.3	4	-1E+10	1	-1E+10	1	-1E+10	1	-1E+10	1	-1E+10	1	-1E+10	1
4901784	60	C	02/24/2017	10:44	-132.412	44.047	0	640.60	0	4.2110	0	34.2260	4	27.154	0	634.475	0	19.1	4	6.1	4	-1E+10	1	-1E+10	1	-1E+10	1	-1E+10	1	-1E+10	1	-1E+10	1
4901784	60	C	02/24/2017	10:44	-132.412	44.047	0	645.80	0	4.1940	0	34.2320	4	27.160	0	639.617	0	18.6	4	5.9	4	-1E+10	1	-1E+10	1	-1E+10	1	-1E+10	1	-1E+10	1	-1E+10	1
4901784	60	C	02/24/2017	10:44	-132.412	44.047	0	650.80	0	4.1710	0	34.2380	4	27.167	0	644.561	0	18.1	4	5.7	4	-1E+10	1	-1E+10	1	-1E+10	1	-1E+10	1	-1E+10	1	-1E+10	1
4901784	60	C	02/24/2017	10:44	-132.412	44.047	0	655.00	0	4.1540	0	34.2430	4	27.173	0	648.715	0	17.7	4	5.6	4	-1E+10	1	-1E+10	1	-1E+10	1	-1E+10	1	-1E+10	1	-1E+10	1
4901784	60	C	02/24/2017	10:44	-132.412	44.047	0	659.20	0	4.1380	0	34.2470	4	27.178	0	652.868	0	17.4	4	5.5	4	-1E+10	1	-1E+10	1	-1E+10	1	-1E+10	1	-1E+10	1	-1E+10	1
4901784	60	C	02/24/2017	10:44	-132.412	44.047	0	664.40	0	4.1180	0	34.2520	4	27.184	0	658.009	0	17.0	4	5.4	4	-1E+10	1	-1E+10	1	-1E+10	1	-1E+10	1	-1E+10	1	-1E+10	1
4901784	60	C	02/24/2017	10:44	-132.412	44.047	0	669.50	0	4.1040	0	34.2560	4	27.189	0	663.052	0	16.7	4	5.3	4	-1E+10	1	-1E+10	1	-1E+10	1	-1E+10	1	-1E+10	1	-1E+10	1
4901784	60	C	02/24/2017	10:44	-132.412	44.047	0	674.60	0	4.0800	0	34.2620	4	27.196	0	668.095	0	16.4	4	5.2	4	-1E+10	1	-1E+10	1	-1E+10	1	-1E+10	1	-1E+10	1	-1E+10	1
4901784	60	C	02/24/2017	10:44	-132.412	44.047	0	679.60	0	4.0630	0	34.2660	4	27.201	0	673.039	0	16.1	4	5.1	4	-1E+10	1	-1E+10	1	-1E+10	1	-1E+10	1	-1E+10	1	-1E+10	1
4901784	60	C	02/24/2017	10:44	-132.412	44.047	0	684.70	0	4.0550	0	34.2710	4	27.206	0	678.081	0	15.8	4	5.0	4	-1E+10	1	-1E+10	1	-1E+10	1	-1E+10	1	-1E+10	1	-1E+10	1
4901784	60	C	02/24/2017	10:44	-132.412	44.047	0	689.90	0	4.0460	0	34.2730	4	27.208	0	683.222	0	15.6	4	4.9	4	-1E+10	1	-1E+10	1	-1E+10	1	-1E+10	1	-1E+10	1	-1E+10	1
4901784	60	C	02/24/2017	10:44	-132.412	44.047	0	695.00	0	4.0310	0	34.2760	4	27.212	0	688.265	0	15.5	4	4.9	4	-1E+10	1	-1E+10	1	-1E+10	1	-1E+10	1	-1E+10	1	-1E+10	1
4901784	60	C	02/24/2017	10:44	-132.412	44.047	0	700.10	0	4.0090	0	34.2790	4	27.217	0	693.307	0	15.3	4	4.8	4	-1E+10	1	-1E+10	1	-1E+10	1	-1E+10	1	-1E+10	1	-1E+10	1
4901784	60	C	02/24/2017	10:44	-132.412	44.047	0	705.30	0	3.9890	0	34.2830	4	27.222	0	698.448	0	15.0	4	4.7	4	-1E+10	1	-1E+10	1	-1E+10	1	-1E+10	1	-1E+10	1	-1E+10	1
4901784	60	C	02/24/2017	10:44	-132.412	44.047	0	710.50	0	3.9710	0	34.2910	4	27.231	0	703.588	0	14.5	4	4.6	4	-1E+10	1	-1E+10	1	-1E+10	1	-1E+10	1	-1E+10	1	-1E+10	1
4901784	60	C	02/24/2017	10:44	-132.412	44.047	0	715.00	0	3.9640	0	34.2960	4	27.235	0	708.037	0	14.2	4	4.5	4	-1E+10	1	-1E+10	1	-1E+10	1	-1E+10	1	-1E+10	1	-1E+10	1
4901784	60	C	02/24/2017	10:44	-132.412	44.047	0	719.40	0	3.9580	0	34.3000	4	27.239	0	712.387	0	14.0	4	4.4	4	-1E+10	1	-1E+10	1	-1E+10	1	-1E+10	1	-1E+10	1	-1E+10	1
4901784	60	C	02/24/2017	10:44	-132.412	44.047	0	724.80	0	3.9540	0	34.3030	4	27.242	0	717.725	0	13.7	4	4.3	4	-1E+10	1	-1E+10	1	-1E+10	1	-1E+10	1	-1E+10	1	-1E+10	1
4901784	60	C	02/24/2017	10:44	-132.412	44.047	0	730.20	0	3.9420	0	34.3090	4	27.248	0	723.063	0	13.3	4	4.2	4	-1E+10	1	-1E+10	1	-1E+10	1	-1E+10	1	-1E+10	1	-1E+10	1
4901784	60	C	02/24/2017	10:44	-132.412	44.047	0	734.80	0	3.9280	0	34.3140	4	27.253	0	727.610	0	13.1	4	4.1	4	-1E+10	1	-1E+10	1	-1E+10	1	-1E+10	1	-1E+10	1	-1E+10	1
4901784	60	C	02/24/2017	10:44	-132.412	44.047	0	740.20	0	3.9110	0	34.3190	4	27.259	0	732.947	0	13.0	4	4.1	4	-1E+10	1	-1E+10	1	-1E+10	1	-1E+10	1	-1E+10	1	-1E+10	1
4901784	60	C	02/24/2017	10:44	-132.412	44.047	0	745.40	0	3.8820	0	34.3240	4	27.266	0	738.087	0	12.8	4	4.0	4	-1E+10	1	-1E+10	1	-1E+10	1	-1E+10	1	-1E+10	1	-1E+10	1
4901784	60	C	02/24/2017	10:44	-132.412	44.047	0	750.20	0	3.8730	0	34.3280	4	27.270	0	742.831	0	12.7	4	4.0	4	-1E+10	1	-1E+10	1	-1E+10	1	-1E+10	1	-1E+10	1	-1E+10	1
4901784	60	C	02/24/2017	10:44	-132.412	44.047	0	755.00	0	3.8640	0	34.3310	4	27.274	0	747.576	0	12.6	4	4.0	4	-1E+10	1	-1E+10	1	-1E+10	1	-1E+10	1	-1E+10	1	-1E+10	1
4901784	60	C	02/24/2017	10:44	-132.412	44.047	0	759.90	0	3.8590	0	34.3330	4	27.276	0	752.419	0	12.4	4	3.9	4	-1E+10	1	-1E+10	1	-1E+10	1	-1E+10	1	-1E+10	1	-1E+10	1
4901784	60	C	02/24/2017	10:44	-132.412	44.047	0	764.90	0	3.8490	0	34.3370	4	27.280	0	757.360	0	12.3	4	3.9	4	-1E+10	1	-1E+10	1	-1E+10	1	-1E+10	1	-1E+10	1	-1E+10	1
4901784	60	C	02/24/2017	10:44	-132.412	44.047	0	769.90	0	3.8390	0	34.3400	4	27.283	0	762.302	0	12.2	4	3.8	4	-1E+10	1	-1E+10	1	-1E+10	1	-1E+10	1	-1E+10	1	-1E+10	1
4901784	60	C	02/24/2017	10:44	-132.412	44.047	0	775.00	0	3.8280	0	34.3430	4	27.287	0	767.342	0	12.1	4	3.8	4	-1E+10	1	-1E+10	1	-1E+10	1	-1E+10	1	-1E+10	1	-1E+10	1
4901784	60	C	02/24/2017	10:44	-132.412	44.047	0	780.30	0	3.8200	0	34.3450	4	27.289	0	772.580	0	12.0	4	3.8	4	-1E+10	1	-1E+10	1	-1E+10	1	-1E+10	1	-1E+10	1	-1E+10	1
4901784	60	C	02/24/2017	10:44	-132.412	44.047	0	785.50	0	3.7970	0	34.3510	4	27.296	0	777.719	0	11.9	4	3.7	4	-1E+10	1	-1E+10	1	-1E+10	1	-1E+10	1	-1E+10	1	-1E+10	1
4901784	60	C	02/24/2017	10:44	-132.412	44.047	0	790.00	0	3.7850	0	34.3540	4	27.300	0	782.166	0	11.8	4	3.7	4	-1E+10	1	-1E+10	1	-1E+10	1	-1E+10	1	-1E+10	1	-1E+10	1
4901784	60	C	02/24/2017	10:44	-132.412	44.047	0	794.50	0	3.7800	0	34.3550	4	27.301	0	786.613	0	11.8	4	3.7	4	-1E+10	1	-1E+10	1	-1E+10	1	-1E+10	1	-1E+10	1	-1E+10	1
4901784	60	C	02/24/2017	10:44	-132.412	44.047	0	799.90	0	3.7690	0	34.3590	4	27.306	0	791.949	0	11.7	4	3.7	4	-1E+10	1	-1E+10	1	-1E+10	1	-1E+10	1	-1E+10	1	-1E+10	1
4901784	60	C	02/24/2017	10:44	-132.412	44.047	0	805.40	0	3.7530	0	34.3610	4	27.309	0	797.384	0	11.6	4	3.7	4	-1E+10	1	-1E+10	1	-1E+10	1	-1E+10	1	-1E+10	1	-1E+10	1
4901784	60	C	02/24/2017	10:44	-132.412	44.047	0	810.00	0	3.7420	0	34.3640	4	27.312	0	801.929	0	11.5	4	3.6	4	-1E+10	1	-1E+10	1	-1E+10	1	-1E+10	1	-1E+10	1	-1E+10	1
4901784	60	C	02/24/2017	10:44	-132.412	44.047	0	815.00	0	3.7270	0	34.3700	4	27.319	0	806.870	0	11.5	4	3.6	4	-1E+10	1	-1E+10	1	-1E+10	1	-1E+10	1	-1E+10	1	-1E+10	1
4901784	60	C	02/24/2017	10:44	-132.412	44.047	0	820.10	0	3.7150	0	34.3730	4	27.322	0	811.909	0	11.4	4	3.6	4	-1E+10	1	-1E+10	1	-1E+10	1	-1E+10	1	-1E+10	1	-1E+10	1
4901784	60	C	02/24/2017	10:44	-132.412	44.047	0	824.90	0	3.7030	0	34.3760	4	27.326	0	816.652	0	11.4	4	3.6	4	-1E+10	1	-1E+10	1	-1E+10	1	-1E+10	1	-1E+10	1	-1E+10	1
4901784	60	C	02/24/2017	10:44	-132.412	44.047	0	829.90	0	3.6750	0	34.3820	4	27.333	0	821.592	0	11.3	4	3.6	4	-1E+10	1	-1E+10	1	-1E+10	1	-1E+10	1	-1E+10	1	-1E+10	1
4901784	60	C	02/24/2017	10:44	-132.412	44.047	0	834.90	0	3.6660	0	34.3840	4	27.336	0	826.532	0	11.3	4	3.6	4	-1E+10	1	-1E+10	1	-1E+10	1	-1E+10	1	-1E+10	1	-1E+10	1
4901784	60	C	02/24/2017	10:44	-132.412	44.047	0	839.90	0	3.6530	0	34.3880	4	27.340	0	831.472	0	11.3	4	3.5	4	-1E+10	1	-1E+10	1	-1E+10	1	-1E+10	1	-1E+10	1	-1E+10	1
4901784	60	C	02/24/2017	10:44	-132.412	44.047	0	845.00	0	3.6430	0	34.3910	4	27.344	0	836.510	0	11.3	4	3.5	4	-1E+10	1	-1E+10	1	-1E+10	1	-1E+10	1	-1E+10	1	-1E+10	1
4901784	60	C	02/24/2017	10:44	-132.412	44.047	0	850.10	0	3.6200	0	34.3960	4	27.350	0	841.549	0	11.3	4	3.5	4	-1E+10	1	-1E+10	1	-1E+10	1	-1E+10	1	-1E+10	1	-1E+10	1
4901784	60	C	02/24/2017	10:44	-132.412	44.047	0	855.30	0	3.6010	0	34.4010	4	27.356	0	846.686	0	11.3	4	3.6	4	-1E+10	1	-1E+10	1	-1E+10	1	-1E+10	1	-1E+10	1	-1E+10	1
4901784	60	C	02/24/2017	10:44	-132.412	44.047	0	860.40	0	3.5920	0	34.4040	4	27.359	0	851.724	0	11.3	4	3.6	4	-1E+10	1	-1E+10	1	-1E+10	1	-1E+10	1	-1E+10	1	-1E+10	1
4901784	60	C	02/24/2017	10:44	-132.412	44.047	0	865.60	0	3.5880	0	34.4040	4	27.360	0	856.861	0	11.4	4	3.6	4	-1E+10	1	-1E+10	1	-1E+10	1	-1E+10	1	-1E+10	1	-1E+10	1
4901784	60	C	02/24/2017	10:44	-132.412	44.047	0	870.10	0	3.5800	0	34.4070	4	27.363	0	861.307	0	11.3	4	3.6	4	-1E+10	1	-1E+10	1	-1E+10	1	-1E+10	1	-1E+10	1	-1E+10	1
4901784	60	C	02/24/2017	10:44	-132.412	44.047	0	874.60	0	3.5760	0	34.4070	4	27.363	0	865.752	0	11.4	4	3.6	4	-1E+10	1	-1E+10	1	-1E+10	1	-1E+10	1	-1E+10	1	-1E+10	1
4901784	60	C	02/24/2017	10:44	-132.412	44.047	0	880.00	0	3.5720	0	34.4080	4	27.365	0	871.086	0	11.4	4	3.6	4	-1E+10	1	-1E+10	1	-1E+10	1	-1E+10	1	-1E+10	1	-1E+10	1
4901784	60	C	02/24/2017	10:44	-132.412	44.047	0	885.50	0	3.5650	0	34.4100	4	27.367	0	876.519	0	11.4	4	3.6	4	-1E+10	1	-1E+10	1	-1E+10	1	-1E+10	1	-1E+10	1	-1E+10	1
4901784	60	C	02/24/2017	10:44	-132.412	44.047	0	890.00	0	3.5470	0	34.4150	4	27.373	0	880.964	0	11.5	4	3.6	4	-1E+10	1	-1E+10	1	-1E+10	1	-1E+10	1	-1E+10	1	-1E+10	1
4901784	60	C	02/24/2017	10:44	-132.412	44.047	0	894.70	0	3.5340	0	34.4180	4	27.376	0	885.606	0	11.5	4	3.6	4	-1E+10	1	-1E+10	1	-1E+10	1	-1E+10	1	-1E+10	1	-1E+10	1
4901784	60	C	02/24/2017	10:44	-132.412	44.047	0	900.30	0	3.5260	0	34.4200	4	27.379	0	891.137	0	11.6	4	3.6	4	-1E+10	1	-1E+10	1	-1E+10	1	-1E+10	1	-1E+10	1	-1E+10	1
4901784	60	C	02/24/2017	10:44	-132.412	44.047	0	905.00	0	3.5180	0	34.4220	4	27.381	0	895.779	0	11.6	4	3.6	4	-1E+10	1	-1E+10	1	-1E+10	1	-1E+10	1	-1E+10	1	-1E+10	1
4901784	60	C	02/24/2017	10:44	-132.412	44.047	0	909.80	0	3.5150	0	34.4220	4	27.381	0	900.520	0	11.7	4	3.7	4	-1E+10	1	-1E+10	1	-1E+10	1	-1E+10	1	-1E+10	1	-1E+10	1
4901784	60	C	02/24/2017	10:44	-132.412	44.047	0	915.50	0	3.4930	0	34.4280	4	27.388	0	906.150	0	11.8	4	3.7	4	-1E+10	1	-1E+10	1	-1E+10	1	-1E+10	1	-1E+10	1	-1E+10	1
4901784	60	C	02/24/2017	10:44	-132.412	44.047	0	920.10	0	3.4730	0	34.4340	4	27.395	0	910.693	0	11.9	4	3.7	4	-1E+10	1	-1E+10	1	-1E+10	1	-1E+10	1	-1E+10	1	-1E+10	1
4901784	60	C	02/24/2017	10:44	-132.412	44.047	0	924.80	0	3.4660	0	34.4350	4	27.397	0	915.334	0	12.0	4	3.7	4	-1E+10	1	-1E+10	1	-1E+10	1	-1E+10	1	-1E+10	1	-1E+10	1
4901784	60	C	02/24/2017	10:44	-132.412	44.047	0	930.50	0	3.4630	0	34.4370	4	27.399	0	920.963	0	12.0	4	3.8	4	-1E+10	1	-1E+10	1	-1E+10	1	-1E+10	1	-1E+10	1	-1E+10	1
4901784	60	C	02/24/2017	10:44	-132.412	44.047	0	935.30	0	3.4510	0	34.4400	4	27.402	0	925.704	0	12.2	4	3.8	4	-1E+10	1	-1E+10	1	-1E+10	1	-1E+10	1	-1E+10	1	-1E+10	1
4901784	60	C	02/24/2017	10:44	-132.412	44.047	0	940.10	0	3.4440	0	34.4420	4	27.404	0	930.444	0	12.2	4	3.8	4	-1E+10	1	-1E+10	1	-1E+10	1	-1E+10	1	-1E+10	1	-1E+10	1
4901784	60	C	02/24/2017	10:44	-132.412	44.047	0	945.00	0	3.4360	0	34.4450	4	27.408	0	935.282	0	12.3	4	3.8	4	-1E+10	1	-1E+10	1	-1E+10	1	-1E+10	1	-1E+10	1	-1E+10	1
4901784	60	C	02/24/2017	10:44	-132.412	44.047	0	949.80	0	3.4290	0	34.4470	4	27.410	0	940.022	0	12.4	4	3.9	4	-1E+10	1	-1E+10	1	-1E+10	1	-1E+10	1	-1E+10	1	-1E+10	1
4901784	60	C	02/24/2017	10:44	-132.412	44.047	0	955.50	0	3.4120	0	34.4510	4	27.415	0	945.651	0	12.6	4	3.9	4	-1E+10	1	-1E+10	1	-1E+10	1	-1E+10	1	-1E+10	1	-1E+10	1
4901784	60	C	02/24/2017	10:44	-132.412	44.047	0	960.30	0	3.4000	0	34.4550	4	27.419	0	950.390	0	12.7	4	3.9	4	-1E+10	1	-1E+10	1	-1E+10	1	-1E+10	1	-1E+10	1	-1E+10	1
4901784	60	C	02/24/2017	10:44	-132.412	44.047	0	965.10	0	3.3930	0	34.4560	4	27.421	0	955.130	0	12.7	4	4.0	4	-1E+10	1	-1E+10	1	-1E+10	1	-1E+10	1	-1E+10	1	-1E+10	1
4901784	60	C	02/24/2017	10:44	-132.412	44.047	0	969.90	0	3.3860	0	34.4580	4	27.423	0	959.869	0	12.9	4	4.0	4	-1E+10	1	-1E+10	1	-1E+10	1	-1E+10	1	-1E+10	1	-1E+10	1
4901784	60	C	02/24/2017	10:44	-132.412	44.047	0	974.60	0	3.3690	0	34.4630	4	27.429	0	964.510	0	13.0	4	4.0	4	-1E+10	1	-1E+10	1	-1E+10	1	-1E+10	1	-1E+10	1	-1E+10	1
4901784	60	C	02/24/2017	10:44	-132.412	44.047	0	980.40	0	3.3620	0	34.4650	4	27.431	0	970.236	0	13.1	4	4.1	4	-1E+10	1	-1E+10	1	-1E+10	1	-1E+10	1	-1E+10	1	-1E+10	1
4901784	60	C	02/24/2017	10:44	-132.412	44.047	0	985.20	0	3.3540	0	34.4670	4	27.433	0	974.975	0	13.2	4	4.1	4	-1E+10	1	-1E+10	1	-1E+10	1	-1E+10	1	-1E+10	1	-1E+10	1
4901784	60	C	02/24/2017	10:44	-132.412	44.047	0	990.00	0	3.3480	0	34.4680	4	27.435	0	979.714	0	13.3	4	4.1	4	-1E+10	1	-1E+10	1	-1E+10	1	-1E+10	1	-1E+10	1	-1E+10	1
4901784	60	C	02/24/2017	10:44	-132.412	44.047	0	994.90	0	3.3360	0	34.4710	4	27.438	0	984.552	0	13.5	4	4.2	4	-1E+10	1	-1E+10	1	-1E+10	1	-1E+10	1	-1E+10	1	-1E+10	1
4901784	60	C	02/24/2017	10:44	-132.412	44.047	0	999.80	0	3.3260	0	34.4730	4	27.441	0	989.389	0	14.0	4	4.3	4	-1E+10	1	-1E+10	1	-1E+10	1	-1E+10	1	-1E+10	1	-1E+10	1
4901784	60	C	02/24/2017	10:44	-132.412	44.047	0	1004.80	0	3.3250	0	34.4790	4	27.446	0	994.326	0	14.4	4	4.5	4	-1E+10	1	-1E+10	1	-1E+10	1	-1E+10	1	-1E+10	1	-1E+10	1
4901784	60	C	02/24/2017	10:44	-132.412	44.047	0	1009.80	0	3.3280	0	34.4810	4	27.447	0	999.262	0	14.7	4	4.6	4	-1E+10	1	-1E+10	1	-1E+10	1	-1E+10	1	-1E+10	1	-1E+10	1
4901784	60	C	02/24/2017	10:44	-132.412	44.047	0	1014.90	0	3.3310	0	34.4840	4	27.449	0	1004.296	0	14.9	4	4.6	4	-1E+10	1	-1E+10	1	-1E+10	1	-1E+10	1	-1E+10	1	-1E+10	1
4901784	60	C	02/24/2017	10:44	-132.412	44.047	0	1019.80	0	3.3260	0	34.4860	4	27.451	0	1009.133	0	15.2	4	4.7	4	-1E+10	1	-1E+10	1	-1E+10	1	-1E+10	1	-1E+10	1	-1E+10	1
4901784	60	C	02/24/2017	10:44	-132.412	44.047	0	1024.60	0	3.3230	0	34.4880	4	27.453	0	1013.871	0	15.3	4	4.8	4	-1E+10	1	-1E+10	1	-1E+10	1	-1E+10	1	-1E+10	1	-1E+10	1
4901784	60	C	02/24/2017	10:44	-132.412	44.047	0	1029.50	0	3.3230	0	34.4890	4	27.454	0	1018.708	0	15.4	4	4.8	4	-1E+10	1	-1E+10	1	-1E+10	1	-1E+10	1	-1E+10	1	-1E+10	1
4901784	60	C	02/24/2017	10:44	-132.412	44.047	0	1034.30	0	3.3220	0	34.4900	4	27.455	0	1023.446	0	15.5	4	4.8	4	-1E+10	1	-1E+10	1	-1E+10	1	-1E+10	1	-1E+10	1	-1E+10	1
4901784	60	C	02/24/2017	10:44	-132.412	44.047	0	1039.10	0	3.3190	0	34.4910	4	27.456	0	1028.184	0	15.7	4	4.9	4	-1E+10	1	-1E+10	1	-1E+10	1	-1E+10	1	-1E+10	1	-1E+10	1
4901784	60	C	02/24/2017	10:44	-132.412	44.047	0	1044.50	0	3.3100	0	34.4930	4	27.459	0	1033.514	0	16.1	4	5.0	4	-1E+10	1	-1E+10	1	-1E+10	1	-1E+10	1	-1E+10	1	-1E+10	1
4901784	60	C	02/24/2017	10:44	-132.412	44.047	0	1049.40	0	3.3050	0	34.4960	4	27.461	0	1038.350	0	16.3	4	5.1	4	-1E+10	1	-1E+10	1	-1E+10	1	-1E+10	1	-1E+10	1	-1E+10	1
4901784	60	C	02/24/2017	10:44	-132.412	44.047	0	1054.40	0	3.3000	0	34.4990	4	27.464	0	1043.285	0	16.5	4	5.1	4	-1E+10	1	-1E+10	1	-1E+10	1	-1E+10	1	-1E+10	1	-1E+10	1
4901784	60	C	02/24/2017	10:44	-132.412	44.047	0	1059.30	0	3.2960	0	34.5000	4	27.466	0	1048.121	0	16.7	4	5.2	4	-1E+10	1	-1E+10	1	-1E+10	1	-1E+10	1	-1E+10	1	-1E+10	1
4901784	60	C	02/24/2017	10:44	-132.412	44.047	0	1064.30	0	3.2900	0	34.5010	4	27.467	0	1053.056	0	16.8	4	5.2	4	-1E+10	1	-1E+10	1	-1E+10	1	-1E+10	1	-1E+10	1	-1E+10	1
4901784	60	C	02/24/2017	10:44	-132.412	44.047	0	1069.30	0	3.2860	0	34.5030	4	27.469	0	1057.991	0	17.0	4	5.3	4	-1E+10	1	-1E+10	1	-1E+10	1	-1E+10	1	-1E+10	1	-1E+10	1
4901784	60	C	02/24/2017	10:44	-132.412	44.047	0	1074.30	0	3.2810	0	34.5040	4	27.470	0	1062.925	0	17.1	4	5.3	4	-1E+10	1	-1E+10	1	-1E+10	1	-1E+10	1	-1E+10	1	-1E+10	1
4901784	60	C	02/24/2017	10:44	-132.412	44.047	0	1079.30	0	3.2760	0	34.5050	4	27.472	0	1067.859	0	17.2	4	5.3	4	-1E+10	1	-1E+10	1	-1E+10	1	-1E+10	1	-1E+10	1	-1E+10	1
4901784	60	C	02/24/2017	10:44	-132.412	44.047	0	1085.10	0	3.2710	0	34.5060	4	27.473	0	1073.583	0	17.3	4	5.4	4	-1E+10	1	-1E+10	1	-1E+10	1	-1E+10	1	-1E+10	1	-1E+10	1
4901784	60	C	02/24/2017	10:44	-132.412	44.047	0	1090.70	0	3.2640	0	34.5080	4	27.475	0	1079.109	0	17.4	4	5.4	4	-1E+10	1	-1E+10	1	-1E+10	1	-1E+10	1	-1E+10	1	-1E+10	1
4901784	60	C	02/24/2017	10:44	-132.412	44.047	0	1095.00	0	3.2580	0	34.5080	4	27.476	0	1083.352	0	17.6	4	5.5	4	-1E+10	1	-1E+10	1	-1E+10	1	-1E+10	1	-1E+10	1	-1E+10	1
4901784	60	C	02/24/2017	10:44	-132.412	44.047	0	1099.50	0	3.2570	0	34.5090	4	27.477	0	1087.793	0	17.8	4	5.5	4	-1E+10	1	-1E+10	1	-1E+10	1	-1E+10	1	-1E+10	1	-1E+10	1
4901784	60	C	02/24/2017	10:44	-132.412	44.047	0	1105.00	0	3.2540	0	34.5130	4	27.480	0	1093.220	0	18.1	4	5.6	4	-1E+10	1	-1E+10	1	-1E+10	1	-1E+10	1	-1E+10	1	-1E+10	1
4901784	60	C	02/24/2017	10:44	-132.412	44.047	0	1110.60	0	3.2430	0	34.5140	4	27.482	0	1098.746	0	18.2	4	5.7	4	-1E+10	1	-1E+10	1	-1E+10	1	-1E+10	1	-1E+10	1	-1E+10	1
4901784	60	C	02/24/2017	10:44	-132.412	44.047	0	1115.20	0	3.2300	0	34.5150	4	27.484	0	1103.284	0	18.5	4	5.7	4	-1E+10	1	-1E+10	1	-1E+10	1	-1E+10	1	-1E+10	1	-1E+10	1
4901784	60	C	02/24/2017	10:44	-132.412	44.047	0	1119.80	0	3.2350	0	34.5180	4	27.486	0	1107.823	0	19.0	4	5.9	4	-1E+10	1	-1E+10	1	-1E+10	1	-1E+10	1	-1E+10	1	-1E+10	1
4901784	60	C	02/24/2017	10:44	-132.412	44.047	0	1125.40	0	3.2470	0	34.5210	4	27.487	0	1113.349	0	19.4	4	6.0	4	-1E+10	1	-1E+10	1	-1E+10	1	-1E+10	1	-1E+10	1	-1E+10	1
4901784	60	C	02/24/2017	10:44	-132.412	44.047	0	1130.10	0	3.2480	0	34.5230	4	27.489	0	1117.986	0	19.6	4	6.1	4	-1E+10	1	-1E+10	1	-1E+10	1	-1E+10	1	-1E+10	1	-1E+10	1
4901784	60	C	02/24/2017	10:44	-132.412	44.047	0	1134.80	0	3.2460	0	34.5240	4	27.490	0	1122.623	0	19.8	4	6.2	4	-1E+10	1	-1E+10	1	-1E+10	1	-1E+10	1	-1E+10	1	-1E+10	1
4901784	60	C	02/24/2017	10:44	-132.412	44.047	0	1140.40	0	3.2380	0	34.5260	4	27.492	0	1128.148	0	19.9	4	6.2	4	-1E+10	1	-1E+10	1	-1E+10	1	-1E+10	1	-1E+10	1	-1E+10	1
4901784	60	C	02/24/2017	10:44	-132.412	44.047	0	1145.20	0	3.2290	0	34.5260	4	27.493	0	1132.883	0	19.8	4	6.2	4	-1E+10	1	-1E+10	1	-1E+10	1	-1E+10	1	-1E+10	1	-1E+10	1
4901784	60	C	02/24/2017	10:44	-132.412	44.047	0	1149.90	0	3.2190	0	34.5270	4	27.495	0	1137.520	0	19.9	4	6.2	4	-1E+10	1	-1E+10	1	-1E+10	1	-1E+10	1	-1E+10	1	-1E+10	1
4901784	60	C	02/24/2017	10:44	-132.412	44.047	0	1155.60	0	3.2000	0	34.5270	4	27.497	0	1143.143	0	19.8	4	6.2	4	-1E+10	1	-1E+10	1	-1E+10	1	-1E+10	1	-1E+10	1	-1E+10	1
4901784	60	C	02/24/2017	10:44	-132.412	44.047	0	1160.30	0	3.1900	0	34.5290	4	27.499	0	1147.779	0	19.9	4	6.2	4	-1E+10	1	-1E+10	1	-1E+10	1	-1E+10	1	-1E+10	1	-1E+10	1
4901784	60	C	02/24/2017	10:44	-132.412	44.047	0	1165.20	0	3.1780	0	34.5290	4	27.500	0	1152.613	0	20.0	4	6.2	4	-1E+10	1	-1E+10	1	-1E+10	1	-1E+10	1	-1E+10	1	-1E+10	1
4901784	60	C	02/24/2017	10:44	-132.412	44.047	0	1170.00	0	3.1740	0	34.5310	4	27.502	0	1157.348	0	20.3	4	6.3	4	-1E+10	1	-1E+10	1	-1E+10	1	-1E+10	1	-1E+10	1	-1E+10	1
4901784	60	C	02/24/2017	10:44	-132.412	44.047	0	1174.80	0	3.1700	0	34.5320	4	27.504	0	1162.083	0	20.6	4	6.4	4	-1E+10	1	-1E+10	1	-1E+10	1	-1E+10	1	-1E+10	1	-1E+10	1
4901784	60	C	02/24/2017	10:44	-132.412	44.047	0	1180.60	0	3.1700	0	34.5350	4	27.506	0	1167.804	0	21.2	4	6.6	4	-1E+10	1	-1E+10	1	-1E+10	1	-1E+10	1	-1E+10	1	-1E+10	1
4901784	60	C	02/24/2017	10:44	-132.412	44.047	0	1185.40	0	3.1810	0	34.5390	4	27.508	0	1172.539	0	21.5	4	6.7	4	-1E+10	1	-1E+10	1	-1E+10	1	-1E+10	1	-1E+10	1	-1E+10	1
4901784	60	C	02/24/2017	10:44	-132.412	44.047	0	1190.30	0	3.1670	0	34.5390	4	27.510	0	1177.372	0	21.5	4	6.7	4	-1E+10	1	-1E+10	1	-1E+10	1	-1E+10	1	-1E+10	1	-1E+10	1
4901784	60	C	02/24/2017	10:44	-132.412	44.047	0	1195.20	0	3.1440	0	34.5400	4	27.512	0	1182.205	0	21.5	4	6.7	4	-1E+10	1	-1E+10	1	-1E+10	1	-1E+10	1	-1E+10	1	-1E+10	1
4901784	60	C	02/24/2017	10:44	-132.412	44.047	0	1200.10	0	3.1400	0	34.5410	4	27.514	0	1187.038	0	21.9	4	6.8	4	-1E+10	1	-1E+10	1	-1E+10	1	-1E+10	1	-1E+10	1	-1E+10	1
4901784	60	C	02/24/2017	10:44	-132.412	44.047	0	1205.00	0	3.1400	0	34.5440	4	27.516	0	1191.870	0	22.2	4	6.9	4	-1E+10	1	-1E+10	1	-1E+10	1	-1E+10	1	-1E+10	1	-1E+10	1
4901784	60	C	02/24/2017	10:44	-132.412	44.047	0	1210.00	0	3.1340	0	34.5450	4	27.517	0	1196.802	0	22.4	4	6.9	4	-1E+10	1	-1E+10	1	-1E+10	1	-1E+10	1	-1E+10	1	-1E+10	1
4901784	60	C	02/24/2017	10:44	-132.412	44.047	0	1214.90	0	3.1320	0	34.5460	4	27.519	0	1201.634	0	22.7	4	7.0	4	-1E+10	1	-1E+10	1	-1E+10	1	-1E+10	1	-1E+10	1	-1E+10	1
4901784	60	C	02/24/2017	10:44	-132.412	44.047	0	1219.90	0	3.1220	0	34.5490	4	27.522	0	1206.565	0	22.9	4	7.1	4	-1E+10	1	-1E+10	1	-1E+10	1	-1E+10	1	-1E+10	1	-1E+10	1
4901784	60	C	02/24/2017	10:44	-132.412	44.047	0	1224.70	0	3.1130	0	34.5500	4	27.523	0	1211.299	0	23.1	4	7.2	4	-1E+10	1	-1E+10	1	-1E+10	1	-1E+10	1	-1E+10	1	-1E+10	1
4901784	60	C	02/24/2017	10:44	-132.412	44.047	0	1229.90	0	3.0960	0	34.5520	4	27.527	0	1216.427	0	23.2	4	7.2	4	-1E+10	1	-1E+10	1	-1E+10	1	-1E+10	1	-1E+10	1	-1E+10	1
4901784	60	C	02/24/2017	10:44	-132.412	44.047	0	1235.40	0	3.0830	0	34.5520	4	27.528	0	1221.851	0	23.3	4	7.2	4	-1E+10	1	-1E+10	1	-1E+10	1	-1E+10	1	-1E+10	1	-1E+10	1
4901784	60	C	02/24/2017	10:44	-132.412	44.047	0	1240.30	0	3.0860	0	34.5540	4	27.529	0	1226.683	0	23.6	4	7.3	4	-1E+10	1	-1E+10	1	-1E+10	1	-1E+10	1	-1E+10	1	-1E+10	1
4901784	60	C	02/24/2017	10:44	-132.412	44.047	0	1245.10	0	3.0880	0	34.5550	4	27.530	0	1231.416	0	23.7	4	7.4	4	-1E+10	1	-1E+10	1	-1E+10	1	-1E+10	1	-1E+10	1	-1E+10	1
4901784	60	C	02/24/2017	10:44	-132.412	44.047	0	1250.00	0	3.0820	0	34.5560	4	27.531	0	1236.248	0	23.9	4	7.4	4	-1E+10	1	-1E+10	1	-1E+10	1	-1E+10	1	-1E+10	1	-1E+10	1
4901784	60	C	02/24/2017	10:44	-132.412	44.047	0	1255.00	0	3.0780	0	34.5560	4	27.532	0	1241.178	0	24.1	4	7.4	4	-1E+10	1	-1E+10	1	-1E+10	1	-1E+10	1	-1E+10	1	-1E+10	1
4901784	60	C	02/24/2017	10:44	-132.412	44.047	0	1260.00	0	3.0760	0	34.5570	4	27.533	0	1246.108	0	24.3	4	7.5	4	-1E+10	1	-1E+10	1	-1E+10	1	-1E+10	1	-1E+10	1	-1E+10	1
4901784	60	C	02/24/2017	10:44	-132.412	44.047	0	1265.10	0	3.0650	0	34.5600	4	27.536	0	1251.137	0	24.6	4	7.6	4	-1E+10	1	-1E+10	1	-1E+10	1	-1E+10	1	-1E+10	1	-1E+10	1
4901784	60	C	02/24/2017	10:44	-132.412	44.047	0	1270.20	0	3.0490	0	34.5600	4	27.538	0	1256.165	0	24.6	4	7.6	4	-1E+10	1	-1E+10	1	-1E+10	1	-1E+10	1	-1E+10	1	-1E+10	1
4901784	60	C	02/24/2017	10:44	-132.412	44.047	0	1275.30	0	3.0370	0	34.5610	4	27.540	0	1261.194	0	24.6	4	7.6	4	-1E+10	1	-1E+10	1	-1E+10	1	-1E+10	1	-1E+10	1	-1E+10	1
4901784	60	C	02/24/2017	10:44	-132.412	44.047	0	1280.40	0	3.0200	0	34.5610	4	27.541	0	1266.222	0	24.4	4	7.6	4	-1E+10	1	-1E+10	1	-1E+10	1	-1E+10	1	-1E+10	1	-1E+10	1
4901784	60	C	02/24/2017	10:44	-132.412	44.047	0	1285.50	0	3.0070	0	34.5610	4	27.542	0	1271.250	0	24.4	4	7.5	4	-1E+10	1	-1E+10	1	-1E+10	1	-1E+10	1	-1E+10	1	-1E+10	1
4901784	60	C	02/24/2017	10:44	-132.412	44.047	0	1290.60	0	3.0000	0	34.5610	4	27.543	0	1276.278	0	24.4	4	7.5	4	-1E+10	1	-1E+10	1	-1E+10	1	-1E+10	1	-1E+10	1	-1E+10	1
4901784	60	C	02/24/2017	10:44	-132.412	44.047	0	1295.70	0	2.9890	0	34.5610	4	27.544	0	1281.306	0	24.4	4	7.5	4	-1E+10	1	-1E+10	1	-1E+10	1	-1E+10	1	-1E+10	1	-1E+10	1
4901784	60	C	02/24/2017	10:44	-132.412	44.047	0	1300.10	0	2.9830	0	34.5610	4	27.545	0	1285.644	0	24.5	4	7.6	4	-1E+10	1	-1E+10	1	-1E+10	1	-1E+10	1	-1E+10	1	-1E+10	1
4901784	60	C	02/24/2017	10:44	-132.412	44.047	0	1304.40	0	2.9760	0	34.5620	4	27.546	0	1289.883	0	24.4	4	7.5	4	-1E+10	1	-1E+10	1	-1E+10	1	-1E+10	1	-1E+10	1	-1E+10	1
4901784	60	C	02/24/2017	10:44	-132.412	44.047	0	1309.60	0	2.9690	0	34.5620	4	27.547	0	1295.009	0	24.5	4	7.6	4	-1E+10	1	-1E+10	1	-1E+10	1	-1E+10	1	-1E+10	1	-1E+10	1
4901784	60	C	02/24/2017	10:44	-132.412	44.047	0	1314.80	0	2.9630	0	34.5620	4	27.547	0	1300.135	0	24.6	4	7.6	4	-1E+10	1	-1E+10	1	-1E+10	1	-1E+10	1	-1E+10	1	-1E+10	1
4901784	60	C	02/24/2017	10:44	-132.412	44.047	0	1320.00	0	2.9570	0	34.5630	4	27.549	0	1305.261	0	24.8	4	7.7	4	-1E+10	1	-1E+10	1	-1E+10	1	-1E+10	1	-1E+10	1	-1E+10	1
4901784	60	C	02/24/2017	10:44	-132.412	44.047	0	1325.20	0	2.9510	0	34.5640	4	27.550	0	1310.387	0	25.0	4	7.7	4	-1E+10	1	-1E+10	1	-1E+10	1	-1E+10	1	-1E+10	1	-1E+10	1
4901784	60	C	02/24/2017	10:44	-132.412	44.047	0	1330.50	0	2.9470	0	34.5650	4	27.551	0	1315.611	0	25.1	4	7.8	4	-1E+10	1	-1E+10	1	-1E+10	1	-1E+10	1	-1E+10	1	-1E+10	1
4901784	60	C	02/24/2017	10:44	-132.412	44.047	0	1334.90	0	2.9380	0	34.5660	4	27.553	0	1319.948	0	25.3	4	7.8	4	-1E+10	1	-1E+10	1	-1E+10	1	-1E+10	1	-1E+10	1	-1E+10	1
4901784	60	C	02/24/2017	10:44	-132.412	44.047	0	1339.50	0	2.9310	0	34.5660	4	27.553	0	1324.482	0	25.1	4	7.8	4	-1E+10	1	-1E+10	1	-1E+10	1	-1E+10	1	-1E+10	1	-1E+10	1
4901784	60	C	02/24/2017	10:44	-132.412	44.047	0	1344.90	0	2.9030	0	34.5650	4	27.555	0	1329.804	0	24.9	4	7.7	4	-1E+10	1	-1E+10	1	-1E+10	1	-1E+10	1	-1E+10	1	-1E+10	1
4901784	60	C	02/24/2017	10:44	-132.412	44.047	0	1350.30	0	2.8780	0	34.5650	4	27.557	0	1335.127	0	25.0	4	7.7	4	-1E+10	1	-1E+10	1	-1E+10	1	-1E+10	1	-1E+10	1	-1E+10	1
4901784	60	C	02/24/2017	10:44	-132.412	44.047	0	1354.90	0	2.8720	0	34.5660	4	27.559	0	1339.660	0	25.2	4	7.8	4	-1E+10	1	-1E+10	1	-1E+10	1	-1E+10	1	-1E+10	1	-1E+10	1
4901784	60	C	02/24/2017	10:44	-132.412	44.047	0	1359.30	0	2.8660	0	34.5670	4	27.560	0	1343.997	0	25.3	4	7.8	4	-1E+10	1	-1E+10	1	-1E+10	1	-1E+10	1	-1E+10	1	-1E+10	1
4901784	60	C	02/24/2017	10:44	-132.412	44.047	0	1364.50	0	2.8580	0	34.5680	4	27.562	0	1349.122	0	25.4	4	7.8	4	-1E+10	1	-1E+10	1	-1E+10	1	-1E+10	1	-1E+10	1	-1E+10	1
4901784	60	C	02/24/2017	10:44	-132.412	44.047	0	1370.00	0	2.8550	0	34.5680	4	27.562	0	1354.542	0	25.5	4	7.9	4	-1E+10	1	-1E+10	1	-1E+10	1	-1E+10	1	-1E+10	1	-1E+10	1
4901784	60	C	02/24/2017	10:44	-132.412	44.047	0	1375.60	0	2.8470	0	34.5690	4	27.564	0	1360.061	0	25.6	4	7.9	4	-1E+10	1	-1E+10	1	-1E+10	1	-1E+10	1	-1E+10	1	-1E+10	1
4901784	60	C	02/24/2017	10:44	-132.412	44.047	0	1380.40	0	2.8360	0	34.5690	4	27.565	0	1364.791	0	25.7	4	7.9	4	-1E+10	1	-1E+10	1	-1E+10	1	-1E+10	1	-1E+10	1	-1E+10	1
4901784	60	C	02/24/2017	10:44	-132.412	44.047	0	1385.30	0	2.8280	0	34.5690	4	27.565	0	1369.620	0	25.6	4	7.9	4	-1E+10	1	-1E+10	1	-1E+10	1	-1E+10	1	-1E+10	1	-1E+10	1
4901784	60	C	02/24/2017	10:44	-132.412	44.047	0	1390.10	0	2.8060	0	34.5690	4	27.567	0	1374.350	0	25.6	4	7.9	4	-1E+10	1	-1E+10	1	-1E+10	1	-1E+10	1	-1E+10	1	-1E+10	1
4901784	60	C	02/24/2017	10:44	-132.412	44.047	0	1395.20	0	2.7870	0	34.5690	4	27.569	0	1379.375	0	25.5	4	7.8	4	-1E+10	1	-1E+10	1	-1E+10	1	-1E+10	1	-1E+10	1	-1E+10	1
4901784	60	C	02/24/2017	10:44	-132.412	44.047	0	1400.20	0	2.7700	0	34.5690	4	27.570	0	1384.302	0	25.5	4	7.8	4	-1E+10	1	-1E+10	1	-1E+10	1	-1E+10	1	-1E+10	1	-1E+10	1
4901784	60	C	02/24/2017	10:44	-132.412	44.047	0	1405.30	0	2.7540	0	34.5690	4	27.572	0	1389.328	0	25.5	4	7.8	4	-1E+10	1	-1E+10	1	-1E+10	1	-1E+10	1	-1E+10	1	-1E+10	1
4901784	60	C	02/24/2017	10:44	-132.412	44.047	0	1410.40	0	2.7340	0	34.5690	4	27.574	0	1394.353	0	25.5	4	7.8	4	-1E+10	1	-1E+10	1	-1E+10	1	-1E+10	1	-1E+10	1	-1E+10	1
4901784	60	C	02/24/2017	10:44	-132.412	44.047	0	1415.50	0	2.7230	0	34.5690	4	27.575	0	1399.378	0	25.6	4	7.9	4	-1E+10	1	-1E+10	1	-1E+10	1	-1E+10	1	-1E+10	1	-1E+10	1
4901784	60	C	02/24/2017	10:44	-132.412	44.047	0	1420.60	0	2.7100	0	34.5700	4	27.576	0	1404.403	0	25.8	4	7.9	4	-1E+10	1	-1E+10	1	-1E+10	1	-1E+10	1	-1E+10	1	-1E+10	1
4901784	60	C	02/24/2017	10:44	-132.412	44.047	0	1424.90	0	2.7010	0	34.5710	4	27.578	0	1408.640	0	25.9	4	7.9	4	-1E+10	1	-1E+10	1	-1E+10	1	-1E+10	1	-1E+10	1	-1E+10	1
4901784	60	C	02/24/2017	10:44	-132.412	44.047	0	1429.20	0	2.6950	0	34.5710	4	27.579	0	1412.876	0	26.0	4	8.0	4	-1E+10	1	-1E+10	1	-1E+10	1	-1E+10	1	-1E+10	1	-1E+10	1
4901784	60	C	02/24/2017	10:44	-132.412	44.047	0	1434.30	0	2.6870	0	34.5720	4	27.580	0	1417.901	0	26.2	4	8.0	4	-1E+10	1	-1E+10	1	-1E+10	1	-1E+10	1	-1E+10	1	-1E+10	1
4901784	60	C	02/24/2017	10:44	-132.412	44.047	0	1439.50	0	2.6760	0	34.5730	4	27.582	0	1423.024	0	26.3	4	8.1	4	-1E+10	1	-1E+10	1	-1E+10	1	-1E+10	1	-1E+10	1	-1E+10	1
4901784	60	C	02/24/2017	10:44	-132.412	44.047	0	1444.70	0	2.6630	0	34.5730	4	27.583	0	1428.147	0	26.3	4	8.1	4	-1E+10	1	-1E+10	1	-1E+10	1	-1E+10	1	-1E+10	1	-1E+10	1
4901784	60	C	02/24/2017	10:44	-132.412	44.047	0	1449.90	0	2.6490	0	34.5730	4	27.584	0	1433.269	0	26.4	4	8.1	4	-1E+10	1	-1E+10	1	-1E+10	1	-1E+10	1	-1E+10	1	-1E+10	1
4901784	60	C	02/24/2017	10:44	-132.412	44.047	0	1455.20	0	2.6320	0	34.5730	4	27.586	0	1438.491	0	26.5	4	8.1	4	-1E+10	1	-1E+10	1	-1E+10	1	-1E+10	1	-1E+10	1	-1E+10	1
4901784	60	C	02/24/2017	10:44	-132.412	44.047	0	1460.60	0	2.6060	0	34.5740	4	27.589	0	1443.810	0	26.6	4	8.1	4	-1E+10	1	-1E+10	1	-1E+10	1	-1E+10	1	-1E+10	1	-1E+10	1
4901784	60	C	02/24/2017	10:44	-132.412	44.047	0	1465.10	0	2.5960	0	34.5740	4	27.590	0	1448.243	0	26.7	4	8.2	4	-1E+10	1	-1E+10	1	-1E+10	1	-1E+10	1	-1E+10	1	-1E+10	1
4901784	60	C	02/24/2017	10:44	-132.412	44.047	0	1469.50	0	2.5840	0	34.5740	4	27.591	0	1452.577	0	26.8	4	8.2	4	-1E+10	1	-1E+10	1	-1E+10	1	-1E+10	1	-1E+10	1	-1E+10	1
4901784	60	C	02/24/2017	10:44	-132.412	44.047	0	1474.90	0	2.5700	0	34.5750	4	27.593	0	1457.896	0	27.0	4	8.2	4	-1E+10	1	-1E+10	1	-1E+10	1	-1E+10	1	-1E+10	1	-1E+10	1
4901784	60	C	02/24/2017	10:44	-132.412	44.047	0	1480.40	0	2.5610	0	34.5760	4	27.594	0	1463.314	0	27.2	4	8.3	4	-1E+10	1	-1E+10	1	-1E+10	1	-1E+10	1	-1E+10	1	-1E+10	1
4901784	60	C	02/24/2017	10:44	-132.412	44.047	0	1485.00	0	2.5570	0	34.5760	4	27.595	0	1467.845	0	27.3	4	8.4	4	-1E+10	1	-1E+10	1	-1E+10	1	-1E+10	1	-1E+10	1	-1E+10	1
4901784	60	C	02/24/2017	10:44	-132.412	44.047	0	1489.60	0	2.5440	0	34.5770	4	27.597	0	1472.376	0	27.5	4	8.4	4	-1E+10	1	-1E+10	1	-1E+10	1	-1E+10	1	-1E+10	1	-1E+10	1
4901784	60	C	02/24/2017	10:44	-132.412	44.047	0	1495.10	0	2.5340	0	34.5780	4	27.598	0	1477.793	0	27.8	4	8.5	4	-1E+10	1	-1E+10	1	-1E+10	1	-1E+10	1	-1E+10	1	-1E+10	1
4901784	60	C	02/24/2017	10:44	-132.412	44.047	0	1500.60	0	2.5220	0	34.5790	4	27.600	0	1483.210	0	28.1	4	8.6	4	-1E+10	1	-1E+10	1	-1E+10	1	-1E+10	1	-1E+10	1	-1E+10	1
4901784	60	C	02/24/2017	10:44	-132.412	44.047	0	1505.30	0	2.5080	0	34.5800	4	27.602	0	1487.839	0	28.4	4	8.7	4	-1E+10	1	-1E+10	1	-1E+10	1	-1E+10	1	-1E+10	1	-1E+10	1
4901784	60	C	02/24/2017	10:44	-132.412	44.047	0	1509.90	0	2.5010	0	34.5810	4	27.604	0	1492.369	0	28.6	4	8.7	4	-1E+10	1	-1E+10	1	-1E+10	1	-1E+10	1	-1E+10	1	-1E+10	1
4901784	60	C	02/24/2017	10:44	-132.412	44.047	0	1514.60	0	2.4910	0	34.5820	4	27.605	0	1496.998	0	28.9	4	8.8	4	-1E+10	1	-1E+10	1	-1E+10	1	-1E+10	1	-1E+10	1	-1E+10	1
4901784	60	C	02/24/2017	10:44	-132.412	44.047	0	1519.90	0	2.4800	0	34.5830	4	27.607	0	1502.218	0	29.1	4	8.9	4	-1E+10	1	-1E+10	1	-1E+10	1	-1E+10	1	-1E+10	1	-1E+10	1
4901784	60	C	02/24/2017	10:44	-132.412	44.047	0	1525.50	0	2.4710	0	34.5830	4	27.608	0	1507.733	0	29.4	4	9.0	4	-1E+10	1	-1E+10	1	-1E+10	1	-1E+10	1	-1E+10	1	-1E+10	1
4901784	60	C	02/24/2017	10:44	-132.412	44.047	0	1530.40	0	2.4640	0	34.5840	4	27.609	0	1512.558	0	29.7	4	9.0	4	-1E+10	1	-1E+10	1	-1E+10	1	-1E+10	1	-1E+10	1	-1E+10	1
4901784	60	C	02/24/2017	10:44	-132.412	44.047	0	1535.40	0	2.4500	0	34.5850	4	27.611	0	1517.482	0	30.0	4	9.1	4	-1E+10	1	-1E+10	1	-1E+10	1	-1E+10	1	-1E+10	1	-1E+10	1
4901784	60	C	02/24/2017	10:44	-132.412	44.047	0	1540.40	0	2.4400	0	34.5860	4	27.613	0	1522.406	0	30.3	4	9.2	4	-1E+10	1	-1E+10	1	-1E+10	1	-1E+10	1	-1E+10	1	-1E+10	1
4901784	60	C	02/24/2017	10:44	-132.412	44.047	0	1545.40	0	2.4320	0	34.5870	4	27.614	0	1527.329	0	30.5	4	9.3	4	-1E+10	1	-1E+10	1	-1E+10	1	-1E+10	1	-1E+10	1	-1E+10	1
4901784	60	C	02/24/2017	10:44	-132.412	44.047	0	1550.50	0	2.4250	0	34.5880	4	27.616	0	1532.351	0	30.7	4	9.4	4	-1E+10	1	-1E+10	1	-1E+10	1	-1E+10	1	-1E+10	1	-1E+10	1
4901784	60	C	02/24/2017	10:44	-132.412	44.047	0	1555.40	0	2.4180	0	34.5890	4	27.617	0	1537.176	0	30.9	4	9.4	4	-1E+10	1	-1E+10	1	-1E+10	1	-1E+10	1	-1E+10	1	-1E+10	1
4901784	60	C	02/24/2017	10:44	-132.412	44.047	0	1560.50	0	2.4110	0	34.5890	4	27.618	0	1542.197	0	31.1	4	9.5	4	-1E+10	1	-1E+10	1	-1E+10	1	-1E+10	1	-1E+10	1	-1E+10	1
4901784	60	C	02/24/2017	10:44	-132.412	44.047	0	1565.70	0	2.4050	0	34.5900	4	27.619	0	1547.317	0	31.4	4	9.6	4	-1E+10	1	-1E+10	1	-1E+10	1	-1E+10	1	-1E+10	1	-1E+10	1
4901784	60	C	02/24/2017	10:44	-132.412	44.047	0	1570.10	0	2.3940	0	34.5910	4	27.621	0	1551.650	0	31.7	4	9.6	4	-1E+10	1	-1E+10	1	-1E+10	1	-1E+10	1	-1E+10	1	-1E+10	1
4901784	60	C	02/24/2017	10:44	-132.412	44.047	0	1574.40	0	2.3860	0	34.5920	4	27.622	0	1555.883	0	31.9	4	9.7	4	-1E+10	1	-1E+10	1	-1E+10	1	-1E+10	1	-1E+10	1	-1E+10	1
4901784	60	C	02/24/2017	10:44	-132.412	44.047	0	1579.60	0	2.3810	0	34.5920	4	27.623	0	1561.003	0	32.3	4	9.8	4	-1E+10	1	-1E+10	1	-1E+10	1	-1E+10	1	-1E+10	1	-1E+10	1
4901784	60	C	02/24/2017	10:44	-132.412	44.047	0	1584.80	0	2.3660	0	34.5940	4	27.626	0	1566.123	0	32.7	4	9.9	4	-1E+10	1	-1E+10	1	-1E+10	1	-1E+10	1	-1E+10	1	-1E+10	1
4901784	60	C	02/24/2017	10:44	-132.412	44.047	0	1590.00	0	2.3580	0	34.5950	4	27.627	0	1571.242	0	33.0	4	10.0	4	-1E+10	1	-1E+10	1	-1E+10	1	-1E+10	1	-1E+10	1	-1E+10	1
4901784	60	C	02/24/2017	10:44	-132.412	44.047	0	1595.40	0	2.3490	0	34.5960	4	27.629	0	1576.558	0	33.2	4	10.1	4	-1E+10	1	-1E+10	1	-1E+10	1	-1E+10	1	-1E+10	1	-1E+10	1
4901784	60	C	02/24/2017	10:44	-132.412	44.047	0	1599.80	0	2.3430	0	34.5970	4	27.630	0	1580.890	0	33.5	4	10.2	4	-1E+10	1	-1E+10	1	-1E+10	1	-1E+10	1	-1E+10	1	-1E+10	1
4901784	60	C	02/24/2017	10:44	-132.412	44.047	0	1604.30	0	2.3380	0	34.5980	4	27.631	0	1585.320	0	33.7	4	10.3	4	-1E+10	1	-1E+10	1	-1E+10	1	-1E+10	1	-1E+10	1	-1E+10	1
4901784	60	C	02/24/2017	10:44	-132.412	44.047	0	1609.60	0	2.3310	0	34.5990	4	27.633	0	1590.537	0	34.0	4	10.4	4	-1E+10	1	-1E+10	1	-1E+10	1	-1E+10	1	-1E+10	1	-1E+10	1
4901784	60	C	02/24/2017	10:44	-132.412	44.047	0	1615.10	0	2.3240	0	34.5990	4	27.633	0	1595.951	0	34.5	4	10.5	4	-1E+10	1	-1E+10	1	-1E+10	1	-1E+10	1	-1E+10	1	-1E+10	1
4901784	60	C	02/24/2017	10:44	-132.412	44.047	0	1620.40	0	2.3130	0	34.6020	4	27.636	0	1601.168	0	34.9	4	10.6	4	-1E+10	1	-1E+10	1	-1E+10	1	-1E+10	1	-1E+10	1	-1E+10	1
4901784	60	C	02/24/2017	10:44	-132.412	44.047	0	1624.90	0	2.3120	0	34.6030	4	27.637	0	1605.598	0	35.1	4	10.7	4	-1E+10	1	-1E+10	1	-1E+10	1	-1E+10	1	-1E+10	1	-1E+10	1
4901784	60	C	02/24/2017	10:44	-132.412	44.047	0	1629.40	0	2.3090	0	34.6030	4	27.638	0	1610.027	0	35.2	4	10.7	4	-1E+10	1	-1E+10	1	-1E+10	1	-1E+10	1	-1E+10	1	-1E+10	1
4901784	60	C	02/24/2017	10:44	-132.412	44.047	0	1634.80	0	2.3060	0	34.6040	4	27.639	0	1615.343	0	35.6	4	10.8	4	-1E+10	1	-1E+10	1	-1E+10	1	-1E+10	1	-1E+10	1	-1E+10	1
4901784	60	C	02/24/2017	10:44	-132.412	44.047	0	1640.20	0	2.2920	0	34.6050	4	27.641	0	1620.658	0	35.9	4	10.9	4	-1E+10	1	-1E+10	1	-1E+10	1	-1E+10	1	-1E+10	1	-1E+10	1
4901784	60	C	02/24/2017	10:44	-132.412	44.047	0	1644.80	0	2.2860	0	34.6050	4	27.641	0	1625.185	0	36.2	4	11.0	4	-1E+10	1	-1E+10	1	-1E+10	1	-1E+10	1	-1E+10	1	-1E+10	1
4901784	60	C	02/24/2017	10:44	-132.412	44.047	0	1649.30	0	2.2810	0	34.6060	4	27.642	0	1629.614	0	36.5	4	11.1	4	-1E+10	1	-1E+10	1	-1E+10	1	-1E+10	1	-1E+10	1	-1E+10	1
4901784	60	C	02/24/2017	10:44	-132.412	44.047	0	1654.80	0	2.2720	0	34.6070	4	27.644	0	1635.028	0	36.9	4	11.2	4	-1E+10	1	-1E+10	1	-1E+10	1	-1E+10	1	-1E+10	1	-1E+10	1
4901784	60	C	02/24/2017	10:44	-132.412	44.047	0	1660.40	0	2.2620	0	34.6080	4	27.646	0	1640.539	0	37.4	4	11.3	4	-1E+10	1	-1E+10	1	-1E+10	1	-1E+10	1	-1E+10	1	-1E+10	1
4901784	60	C	02/24/2017	10:44	-132.412	44.047	0	1665.00	0	2.2510	0	34.6090	4	27.647	0	1645.066	0	37.7	4	11.4	4	-1E+10	1	-1E+10	1	-1E+10	1	-1E+10	1	-1E+10	1	-1E+10	1
4901784	60	C	02/24/2017	10:44	-132.412	44.047	0	1669.70	0	2.2460	0	34.6100	4	27.649	0	1649.691	0	38.0	4	11.5	4	-1E+10	1	-1E+10	1	-1E+10	1	-1E+10	1	-1E+10	1	-1E+10	1
4901784	60	C	02/24/2017	10:44	-132.412	44.047	0	1675.30	0	2.2370	0	34.6120	4	27.651	0	1655.203	0	38.4	4	11.7	4	-1E+10	1	-1E+10	1	-1E+10	1	-1E+10	1	-1E+10	1	-1E+10	1
4901784	60	C	02/24/2017	10:44	-132.412	44.047	0	1679.90	0	2.2330	0	34.6120	4	27.651	0	1659.729	0	38.6	4	11.7	4	-1E+10	1	-1E+10	1	-1E+10	1	-1E+10	1	-1E+10	1	-1E+10	1
4901784	60	C	02/24/2017	10:44	-132.412	44.047	0	1684.60	0	2.2300	0	34.6120	4	27.652	0	1664.354	0	38.9	4	11.8	4	-1E+10	1	-1E+10	1	-1E+10	1	-1E+10	1	-1E+10	1	-1E+10	1
4901784	60	C	02/24/2017	10:44	-132.412	44.047	0	1690.20	0	2.2200	0	34.6140	4	27.654	0	1669.865	0	39.3	4	11.9	4	-1E+10	1	-1E+10	1	-1E+10	1	-1E+10	1	-1E+10	1	-1E+10	1
4901784	60	C	02/24/2017	10:44	-132.412	44.047	0	1694.90	0	2.2150	0	34.6150	4	27.655	0	1674.490	0	39.5	4	12.0	4	-1E+10	1	-1E+10	1	-1E+10	1	-1E+10	1	-1E+10	1	-1E+10	1
4901784	60	C	02/24/2017	10:44	-132.412	44.047	0	1699.60	0	2.2100	0	34.6150	4	27.656	0	1679.115	0	39.8	4	12.1	4	-1E+10	1	-1E+10	1	-1E+10	1	-1E+10	1	-1E+10	1	-1E+10	1
4901784	60	C	02/24/2017	10:44	-132.412	44.047	0	1705.20	0	2.2060	0	34.6160	4	27.657	0	1684.625	0	40.1	4	12.1	4	-1E+10	1	-1E+10	1	-1E+10	1	-1E+10	1	-1E+10	1	-1E+10	1
4901784	60	C	02/24/2017	10:44	-132.412	44.047	0	1709.90	0	2.2010	0	34.6160	4	27.657	0	1689.250	0	40.4	4	12.2	4	-1E+10	1	-1E+10	1	-1E+10	1	-1E+10	1	-1E+10	1	-1E+10	1
4901784	60	C	02/24/2017	10:44	-132.412	44.047	0	1715.30	0	2.1950	0	34.6170	4	27.659	0	1694.563	0	40.8	4	12.4	4	-1E+10	1	-1E+10	1	-1E+10	1	-1E+10	1	-1E+10	1	-1E+10	1
4901784	60	C	02/24/2017	10:44	-132.412	44.047	0	1720.40	0	2.1830	0	34.6180	4	27.660	0	1699.581	0	41.4	4	12.5	4	-1E+10	1	-1E+10	1	-1E+10	1	-1E+10	1	-1E+10	1	-1E+10	1
4901784	60	C	02/24/2017	10:44	-132.412	44.047	0	1725.30	0	2.1760	0	34.6200	4	27.663	0	1704.402	0	41.7	4	12.6	4	-1E+10	1	-1E+10	1	-1E+10	1	-1E+10	1	-1E+10	1	-1E+10	1
4901784	60	C	02/24/2017	10:44	-132.412	44.047	0	1730.10	0	2.1700	0	34.6210	4	27.664	0	1709.124	0	42.1	4	12.8	4	-1E+10	1	-1E+10	1	-1E+10	1	-1E+10	1	-1E+10	1	-1E+10	1
4901784	60	C	02/24/2017	10:44	-132.412	44.047	0	1735.00	0	2.1610	0	34.6230	4	27.666	0	1713.945	0	42.5	4	12.9	4	-1E+10	1	-1E+10	1	-1E+10	1	-1E+10	1	-1E+10	1	-1E+10	1
4901784	60	C	02/24/2017	10:44	-132.412	44.047	0	1739.90	0	2.1570	0	34.6230	4	27.667	0	1718.766	0	42.6	4	12.9	4	-1E+10	1	-1E+10	1	-1E+10	1	-1E+10	1	-1E+10	1	-1E+10	1
4901784	60	C	02/24/2017	10:44	-132.412	44.047	0	1744.80	0	2.1570	0	34.6230	4	27.667	0	1723.587	0	42.7	4	12.9	4	-1E+10	1	-1E+10	1	-1E+10	1	-1E+10	1	-1E+10	1	-1E+10	1
4901784	60	C	02/24/2017	10:44	-132.412	44.047	0	1749.80	0	2.1560	0	34.6230	4	27.667	0	1728.505	0	42.9	4	13.0	4	-1E+10	1	-1E+10	1	-1E+10	1	-1E+10	1	-1E+10	1	-1E+10	1
4901784	60	C	02/24/2017	10:44	-132.412	44.047	0	1754.80	0	2.1510	0	34.6240	4	27.668	0	1733.424	0	43.3	4	13.1	4	-1E+10	1	-1E+10	1	-1E+10	1	-1E+10	1	-1E+10	1	-1E+10	1
4901784	60	C	02/24/2017	10:44	-132.412	44.047	0	1759.70	0	2.1430	0	34.6250	4	27.669	0	1738.244	0	43.7	4	13.2	4	-1E+10	1	-1E+10	1	-1E+10	1	-1E+10	1	-1E+10	1	-1E+10	1
4901784	60	C	02/24/2017	10:44	-132.412	44.047	0	1764.70	0	2.1380	0	34.6260	4	27.671	0	1743.163	0	44.0	4	13.3	4	-1E+10	1	-1E+10	1	-1E+10	1	-1E+10	1	-1E+10	1	-1E+10	1
4901784	60	C	02/24/2017	10:44	-132.412	44.047	0	1769.70	0	2.1320	0	34.6270	4	27.672	0	1748.081	0	44.4	4	13.4	4	-1E+10	1	-1E+10	1	-1E+10	1	-1E+10	1	-1E+10	1	-1E+10	1
4901784	60	C	02/24/2017	10:44	-132.412	44.047	0	1774.70	0	2.1250	0	34.6280	4	27.673	0	1753.000	0	44.7	4	13.5	4	-1E+10	1	-1E+10	1	-1E+10	1	-1E+10	1	-1E+10	1	-1E+10	1
4901784	60	C	02/24/2017	10:44	-132.412	44.047	0	1779.70	0	2.1230	0	34.6290	4	27.674	0	1757.918	0	44.7	4	13.5	4	-1E+10	1	-1E+10	1	-1E+10	1	-1E+10	1	-1E+10	1	-1E+10	1
4901784	60	C	02/24/2017	10:44	-132.412	44.047	0	1784.70	0	2.1230	0	34.6280	4	27.673	0	1762.836	0	44.8	4	13.6	4	-1E+10	1	-1E+10	1	-1E+10	1	-1E+10	1	-1E+10	1	-1E+10	1
4901784	60	C	02/24/2017	10:44	-132.412	44.047	0	1789.70	0	2.1230	0	34.6290	4	27.674	0	1767.754	0	44.9	4	13.6	4	-1E+10	1	-1E+10	1	-1E+10	1	-1E+10	1	-1E+10	1	-1E+10	1
4901784	60	C	02/24/2017	10:44	-132.412	44.047	0	1794.70	0	2.1210	0	34.6290	4	27.674	0	1772.672	0	45.2	4	13.7	4	-1E+10	1	-1E+10	1	-1E+10	1	-1E+10	1	-1E+10	1	-1E+10	1
4901784	60	C	02/24/2017	10:44	-132.412	44.047	0	1799.70	0	2.1170	0	34.6300	4	27.676	0	1777.589	0	45.6	4	13.8	4	-1E+10	1	-1E+10	1	-1E+10	1	-1E+10	1	-1E+10	1	-1E+10	1
4901784	60	C	02/24/2017	10:44	-132.412	44.047	0	1804.70	0	2.1090	0	34.6310	4	27.677	0	1782.507	0	46.0	4	13.9	4	-1E+10	1	-1E+10	1	-1E+10	1	-1E+10	1	-1E+10	1	-1E+10	1
4901784	60	C	02/24/2017	10:44	-132.412	44.047	0	1809.70	0	2.1050	0	34.6320	4	27.678	0	1787.424	0	46.2	4	14.0	4	-1E+10	1	-1E+10	1	-1E+10	1	-1E+10	1	-1E+10	1	-1E+10	1
4901784	60	C	02/24/2017	10:44	-132.412	44.047	0	1814.80	0	2.1020	0	34.6320	4	27.679	0	1792.440	0	46.4	4	14.0	4	-1E+10	1	-1E+10	1	-1E+10	1	-1E+10	1	-1E+10	1	-1E+10	1
4901784	60	C	02/24/2017	10:44	-132.412	44.047	0	1819.80	0	2.1000	0	34.6330	4	27.680	0	1797.358	0	46.5	4	14.1	4	-1E+10	1	-1E+10	1	-1E+10	1	-1E+10	1	-1E+10	1	-1E+10	1
4901784	60	C	02/24/2017	10:44	-132.412	44.047	0	1824.80	0	2.1000	0	34.6330	4	27.680	0	1802.275	0	46.6	4	14.1	4	-1E+10	1	-1E+10	1	-1E+10	1	-1E+10	1	-1E+10	1	-1E+10	1
4901784	60	C	02/24/2017	10:44	-132.412	44.047	0	1829.90	0	2.0990	0	34.6330	4	27.680	0	1807.290	0	46.9	4	14.2	4	-1E+10	1	-1E+10	1	-1E+10	1	-1E+10	1	-1E+10	1	-1E+10	1
4901784	60	C	02/24/2017	10:44	-132.412	44.047	0	1835.00	0	2.0960	0	34.6340	4	27.681	0	1812.305	0	47.4	4	14.3	4	-1E+10	1	-1E+10	1	-1E+10	1	-1E+10	1	-1E+10	1	-1E+10	1
4901784	60	C	02/24/2017	10:44	-132.412	44.047	0	1840.20	0	2.0880	0	34.6350	4	27.682	0	1817.419	0	48.1	4	14.6	4	-1E+10	1	-1E+10	1	-1E+10	1	-1E+10	1	-1E+10	1	-1E+10	1
4901784	60	C	02/24/2017	10:44	-132.412	44.047	0	1845.30	0	2.0780	0	34.6370	4	27.685	0	1822.434	0	48.9	4	14.8	4	-1E+10	1	-1E+10	1	-1E+10	1	-1E+10	1	-1E+10	1	-1E+10	1
4901784	60	C	02/24/2017	10:44	-132.412	44.047	0	1850.50	0	2.0660	0	34.6390	4	27.687	0	1827.547	0	49.5	4	15.0	4	-1E+10	1	-1E+10	1	-1E+10	1	-1E+10	1	-1E+10	1	-1E+10	1
4901784	60	C	02/24/2017	10:44	-132.412	44.047	0	1855.70	0	2.0600	0	34.6400	4	27.688	0	1832.660	0	49.9	4	15.1	4	-1E+10	1	-1E+10	1	-1E+10	1	-1E+10	1	-1E+10	1	-1E+10	1
4901784	60	C	02/24/2017	10:44	-132.412	44.047	0	1860.20	0	2.0540	0	34.6410	4	27.690	0	1837.085	0	50.3	4	15.2	4	-1E+10	1	-1E+10	1	-1E+10	1	-1E+10	1	-1E+10	1	-1E+10	1
4901784	60	C	02/24/2017	10:44	-132.412	44.047	0	1864.50	0	2.0500	0	34.6420	4	27.691	0	1841.313	0	50.6	4	15.3	4	-1E+10	1	-1E+10	1	-1E+10	1	-1E+10	1	-1E+10	1	-1E+10	1
4901784	60	C	02/24/2017	10:44	-132.412	44.047	0	1869.80	0	2.0440	0	34.6420	4	27.691	0	1846.524	0	51.0	4	15.4	4	-1E+10	1	-1E+10	1	-1E+10	1	-1E+10	1	-1E+10	1	-1E+10	1
4901784	60	C	02/24/2017	10:44	-132.412	44.047	0	1875.00	0	2.0350	0	34.6430	4	27.693	0	1851.636	0	51.5	4	15.5	4	-1E+10	1	-1E+10	1	-1E+10	1	-1E+10	1	-1E+10	1	-1E+10	1
4901784	60	C	02/24/2017	10:44	-132.412	44.047	0	1880.30	0	2.0280	0	34.6440	4	27.694	0	1856.847	0	51.8	4	15.6	4	-1E+10	1	-1E+10	1	-1E+10	1	-1E+10	1	-1E+10	1	-1E+10	1
4901784	60	C	02/24/2017	10:44	-132.412	44.047	0	1885.60	0	2.0240	0	34.6450	4	27.695	0	1862.058	0	52.1	4	15.7	4	-1E+10	1	-1E+10	1	-1E+10	1	-1E+10	1	-1E+10	1	-1E+10	1
4901784	60	C	02/24/2017	10:44	-132.412	44.047	0	1889.90	0	2.0200	0	34.6460	4	27.697	0	1866.285	0	52.5	4	15.8	4	-1E+10	1	-1E+10	1	-1E+10	1	-1E+10	1	-1E+10	1	-1E+10	1
4901784	60	C	02/24/2017	10:44	-132.412	44.047	0	1894.30	0	2.0130	0	34.6460	4	27.697	0	1870.611	0	52.8	4	15.9	4	-1E+10	1	-1E+10	1	-1E+10	1	-1E+10	1	-1E+10	1	-1E+10	1
4901784	60	C	02/24/2017	10:44	-132.412	44.047	0	1899.50	0	2.0040	0	34.6480	4	27.699	0	1875.723	0	53.2	4	16.0	4	-1E+10	1	-1E+10	1	-1E+10	1	-1E+10	1	-1E+10	1	-1E+10	1
4901784	60	C	02/24/2017	10:44	-132.412	44.047	0	1904.90	0	2.0010	0	34.6480	4	27.700	0	1881.032	0	53.4	4	16.1	4	-1E+10	1	-1E+10	1	-1E+10	1	-1E+10	1	-1E+10	1	-1E+10	1
4901784	60	C	02/24/2017	10:44	-132.412	44.047	0	1910.30	0	1.9960	0	34.6490	4	27.701	0	1886.340	0	53.7	4	16.2	4	-1E+10	1	-1E+10	1	-1E+10	1	-1E+10	1	-1E+10	1	-1E+10	1
4901784	60	C	02/24/2017	10:44	-132.412	44.047	0	1915.70	0	1.9920	0	34.6490	4	27.701	0	1891.648	0	54.0	4	16.3	4	-1E+10	1	-1E+10	1	-1E+10	1	-1E+10	1	-1E+10	1	-1E+10	1
4901784	60	C	02/24/2017	10:44	-132.412	44.047	0	1920.20	0	1.9880	0	34.6500	4	27.702	0	1896.072	0	54.3	4	16.4	4	-1E+10	1	-1E+10	1	-1E+10	1	-1E+10	1	-1E+10	1	-1E+10	1
4901784	60	C	02/24/2017	10:44	-132.412	44.047	0	1924.70	0	1.9840	0	34.6500	4	27.703	0	1900.495	0	54.5	4	16.4	4	-1E+10	1	-1E+10	1	-1E+10	1	-1E+10	1	-1E+10	1	-1E+10	1
4901784	60	C	02/24/2017	10:44	-132.412	44.047	0	1930.00	0	1.9830	0	34.6510	4	27.704	0	1905.705	0	54.7	4	16.5	4	-1E+10	1	-1E+10	1	-1E+10	1	-1E+10	1	-1E+10	1	-1E+10	1
4901784	60	C	02/24/2017	10:44	-132.412	44.047	0	1935.40	0	1.9790	0	34.6510	4	27.704	0	1911.013	0	55.0	4	16.6	4	-1E+10	1	-1E+10	1	-1E+10	1	-1E+10	1	-1E+10	1	-1E+10	1
4901784	60	C	02/24/2017	10:44	-132.412	44.047	0	1939.90	0	1.9740	0	34.6520	4	27.705	0	1915.436	0	55.4	4	16.7	4	-1E+10	1	-1E+10	1	-1E+10	1	-1E+10	1	-1E+10	1	-1E+10	1
4901784	60	C	02/24/2017	10:44	-132.412	44.047	0	1944.30	0	1.9700	0	34.6530	4	27.706	0	1919.761	0	55.5	4	16.7	4	-1E+10	1	-1E+10	1	-1E+10	1	-1E+10	1	-1E+10	1	-1E+10	1
4901784	60	C	02/24/2017	10:44	-132.412	44.047	0	1949.70	0	1.9670	0	34.6530	4	27.707	0	1925.068	0	55.7	4	16.8	4	-1E+10	1	-1E+10	1	-1E+10	1	-1E+10	1	-1E+10	1	-1E+10	1
4901784	60	C	02/24/2017	10:44	-132.412	44.047	0	1955.10	0	1.9670	0	34.6530	4	27.707	0	1930.375	0	55.8	4	16.8	4	-1E+10	1	-1E+10	1	-1E+10	1	-1E+10	1	-1E+10	1	-1E+10	1
4901784	60	C	02/24/2017	10:44	-132.412	44.047	0	1960.50	0	1.9650	0	34.6540	4	27.708	0	1935.682	0	56.0	4	16.9	4	-1E+10	1	-1E+10	1	-1E+10	1	-1E+10	1	-1E+10	1	-1E+10	1
4901784	60	C	02/24/2017	10:44	-132.412	44.047	0	1965.00	0	1.9630	0	34.6540	4	27.708	0	1940.105	0	56.3	4	17.0	4	-1E+10	1	-1E+10	1	-1E+10	1	-1E+10	1	-1E+10	1	-1E+10	1
4901784	60	C	02/24/2017	10:44	-132.412	44.047	0	1969.60	0	1.9590	0	34.6540	4	27.708	0	1944.626	0	56.5	4	17.0	4	-1E+10	1	-1E+10	1	-1E+10	1	-1E+10	1	-1E+10	1	-1E+10	1
4901784	60	C	02/24/2017	10:44	-132.412	44.047	0	1975.10	0	1.9550	0	34.6550	4	27.709	0	1950.031	0	56.8	4	17.1	4	-1E+10	1	-1E+10	1	-1E+10	1	-1E+10	1	-1E+10	1	-1E+10	1
4901784	60	C	02/24/2017	10:44	-132.412	44.047	0	1980.60	0	1.9520	0	34.6560	4	27.710	0	1955.436	0	57.0	4	17.2	4	-1E+10	1	-1E+10	1	-1E+10	1	-1E+10	1	-1E+10	1	-1E+10	1
4901784	60	C	02/24/2017	10:44	-132.412	44.047	0	1985.80	0	1.9490	0	34.6560	4	27.711	0	1960.546	0	57.3	4	17.3	4	-1E+10	1	-1E+10	1	-1E+10	1	-1E+10	1	-1E+10	1	-1E+10	1
4901784	60	C	02/24/2017	10:44	-132.412	44.047	0	1990.20	0	1.9470	0	34.6570	4	27.712	0	1964.870	0	57.5	4	17.3	4	-1E+10	1	-1E+10	1	-1E+10	1	-1E+10	1	-1E+10	1	-1E+10	1
4901784	60	C	02/24/2017	10:44	-132.412	44.047	0	1995.70	0	1.9430	0	34.6570	4	27.712	0	1970.274	0	57.8	4	17.4	4	-1E+10	1	-1E+10	1	-1E+10	1	-1E+10	1	-1E+10	1	-1E+10	1
4901784	60	C	02/24/2017	10:44	-132.412	44.047	0	2000.10	0	1.9400	0	34.6580	4	27.713	0	1974.598	0	58.0	4	17.5	4	-1E+10	1	-1E+10	1	-1E+10	1	-1E+10	1	-1E+10	1	-1E+10	1
4901784	60	C	02/24/2017	10:44	-132.412	44.047	0	2005.20	0	1.9360	0	34.6580	4	27.713	0	1979.609	0	58.3	4	17.6	4	-1E+10	1	-1E+10	1	-1E+10	1	-1E+10	1	-1E+10	1	-1E+10	1
4901784	60	C	02/24/2017	10:44	-132.412	44.047	0	2009.90	0	1.9340	0	34.6590	4	27.714	0	1984.227	0	58.5	4	17.6	4	-1E+10	1	-1E+10	1	-1E+10	1	-1E+10	1	-1E+10	1	-1E+10	1
4901784	60	C	02/24/2017	10:44	-132.412	44.047	0	2015.80	0	1.9310	0	34.6590	4	27.715	0	1990.024	0	57.2	8	17.2	8	-1E+10	1	-1E+10	1	-1E+10	1	-1E+10	1	-1E+10	1	-1E+10	1
4901784	60	C	02/24/2017	10:44	-132.412	44.047	0																										
4901784	61	C	03/06/2017	10:43	-132.245	44.023	0	2.90	0	8.7350	0	32.8790	8	25.499	0	2.877	0	218.2	8	76.1	8	-1E+10	1	-1E+10	1	-1E+10	1	-1E+10	1	-1E+10	1	-1E+10	1
4901784	61	C	03/06/2017	10:43	-132.245	44.023	0	4.30	0	8.7350	0	32.8850	8	25.504	0	4.265	0	196.9	8	68.7	8	-1E+10	1	-1E+10	1	-1E+10	1	-1E+10	1	-1E+10	1	-1E+10	1
4901784	61	C	03/06/2017	10:43	-132.245	44.023	0	6.00	0	8.7350	0	33.9570	8	26.343	0	5.952	0	178.7	8	62.8	8	-1E+10	1	-1E+10	1	-1E+10	1	-1E+10	1	-1E+10	1	-1E+10	1
4901784	61	C	03/06/2017	10:43	-132.245	44.023	0	7.80	0	8.7350	0	33.9570	8	26.344	0	7.737	0	178.5	8	62.8	8	-1E+10	1	-1E+10	1	-1E+10	1	-1E+10	1	-1E+10	1	-1E+10	1
4901784	61	C	03/06/2017	10:43	-132.245	44.023	0	9.50	0	8.7350	0	33.9570	8	26.344	0	9.424	0	178.6	8	62.8	8	-1E+10	1	-1E+10	1	-1E+10	1	-1E+10	1	-1E+10	1	-1E+10	1
4901784	61	C	03/06/2017	10:43	-132.245	44.023	0	11.40	0	8.7360	0	33.9570	8	26.343	0	11.308	0	178.6	8	62.8	8	-1E+10	1	-1E+10	1	-1E+10	1	-1E+10	1	-1E+10	1	-1E+10	1
4901784	61	C	03/06/2017	10:43	-132.245	44.023	0	13.30	0	8.7360	0	33.9570	8	26.343	0	13.193	0	178.6	8	62.8	8	-1E+10	1	-1E+10	1	-1E+10	1	-1E+10	1	-1E+10	1	-1E+10	1
4901784	61	C	03/06/2017	10:43	-132.245	44.023	0	15.20	0	8.7360	0	33.9570	8	26.343	0	15.077	0	178.6	8	62.8	8	-1E+10	1	-1E+10	1	-1E+10	1	-1E+10	1	-1E+10	1	-1E+10	1
4901784	61	C	03/06/2017	10:43	-132.245	44.023	0	17.10	0	8.7370	0	33.9560	8	26.343	0	16.962	0	178.7	8	62.8	8	-1E+10	1	-1E+10	1	-1E+10	1	-1E+10	1	-1E+10	1	-1E+10	1
4901784	61	C	03/06/2017	10:43	-132.245	44.023	0	18.90	0	8.7380	0	33.9560	8	26.342	0	18.747	0	178.8	8	62.9	8	-1E+10	1	-1E+10	1	-1E+10	1	-1E+10	1	-1E+10	1	-1E+10	1
4901784	61	C	03/06/2017	10:43	-132.245	44.023	0	20.80	0	8.7380	0	33.9560	8	26.342	0	20.632	0	178.8	8	62.9	8	-1E+10	1	-1E+10	1	-1E+10	1	-1E+10	1	-1E+10	1	-1E+10	1
4901784	61	C	03/06/2017	10:43	-132.245	44.023	0	22.70	0	8.7390	0	33.9550	8	26.342	0	22.517	0	178.8	8	62.9	8	-1E+10	1	-1E+10	1	-1E+10	1	-1E+10	1	-1E+10	1	-1E+10	1
4901784	61	C	03/06/2017	10:43	-132.245	44.023	0	24.60	0	8.7390	0	33.9550	8	26.342	0	24.401	0	178.9	8	62.9	8	-1E+10	1	-1E+10	1	-1E+10	1	-1E+10	1	-1E+10	1	-1E+10	1
4901784	61	C	03/06/2017	10:43	-132.245	44.023	0	26.50	0	8.7390	0	33.9560	8	26.342	0	26.286	0	178.9	8	62.9	8	-1E+10	1	-1E+10	1	-1E+10	1	-1E+10	1	-1E+10	1	-1E+10	1
4901784	61	C	03/06/2017	10:43	-132.245	44.023	0	28.40	0	8.7390	0	33.9560	8	26.342	0	28.170	0	178.8	8	62.9	8	-1E+10	1	-1E+10	1	-1E+10	1	-1E+10	1	-1E+10	1	-1E+10	1
4901784	61	C	03/06/2017	10:43	-132.245	44.023	0	30.30	0	8.7390	0	33.9560	8	26.342	0	30.055	0	178.9	8	62.9	8	-1E+10	1	-1E+10	1	-1E+10	1	-1E+10	1	-1E+10	1	-1E+10	1
4901784	61	C	03/06/2017	10:43	-132.245	44.023	0	32.20	0	8.7390	0	33.9560	8	26.343	0	31.939	0	178.9	8	62.9	8	-1E+10	1	-1E+10	1	-1E+10	1	-1E+10	1	-1E+10	1	-1E+10	1
4901784	61	C	03/06/2017	10:43	-132.245	44.023	0	34.20	0	8.7390	0	33.9560	8	26.343	0	33.923	0	179.0	8	62.9	8	-1E+10	1	-1E+10	1	-1E+10	1	-1E+10	1	-1E+10	1	-1E+10	1
4901784	61	C	03/06/2017	10:43	-132.245	44.023	0	36.10	0	8.7390	0	33.9560	8	26.343	0	35.807	0	179.0	8	63.0	8	-1E+10	1	-1E+10	1	-1E+10	1	-1E+10	1	-1E+10	1	-1E+10	1
4901784	61	C	03/06/2017	10:43	-132.245	44.023	0	38.00	0	8.7400	0	33.9560	8	26.342	0	37.691	0	179.0	8	62.9	8	-1E+10	1	-1E+10	1	-1E+10	1	-1E+10	1	-1E+10	1	-1E+10	1
4901784	61	C	03/06/2017	10:43	-132.245	44.023	0	40.00	0	8.7400	0	33.9560	8	26.342	0	39.675	0	179.0	8	63.0	8	-1E+10	1	-1E+10	1	-1E+10	1	-1E+10	1	-1E+10	1	-1E+10	1
4901784	61	C	03/06/2017	10:43	-132.245	44.023	0	41.90	0	8.7410	0	33.9560	8	26.342	0	41.559	0	179.1	8	63.0	8	-1E+10	1	-1E+10	1	-1E+10	1	-1E+10	1	-1E+10	1	-1E+10	1
4901784	61	C	03/06/2017	10:43	-132.245	44.023	0	43.70	0	8.7410	0	33.9550	8	26.342	0	43.345	0	179.1	8	63.0	8	-1E+10	1	-1E+10	1	-1E+10	1	-1E+10	1	-1E+10	1	-1E+10	1
4901784	61	C	03/06/2017	10:43	-132.245	44.023	0	45.60	0	8.7420	0	33.9550	8	26.341	0	45.229	0	179.1	8	63.0	8	-1E+10	1	-1E+10	1	-1E+10	1	-1E+10	1	-1E+10	1	-1E+10	1
4901784	61	C	03/06/2017	10:43	-132.245	44.023	0	47.40	0	8.7420	0	33.9540	8	26.341	0	47.014	0	179.2	8	63.0	8	-1E+10	1	-1E+10	1	-1E+10	1	-1E+10	1	-1E+10	1	-1E+10	1
4901784	61	C	03/06/2017	10:43	-132.245	44.023	0	49.30	0	8.7430	0	33.9540	8	26.341	0	48.898	0	179.2	8	63.0	8	-1E+10	1	-1E+10	1	-1E+10	1	-1E+10	1	-1E+10	1	-1E+10	1
4901784	61	C	03/06/2017	10:43	-132.245	44.023	0	51.10	0	8.7430	0	33.9530	8	26.340	0	50.683	0	179.2	8	63.0	8	-1E+10	1	-1E+10	1	-1E+10	1	-1E+10	1	-1E+10	1	-1E+10	1
4901784	61	C	03/06/2017	10:43	-132.245	44.023	0	52.90	0	8.7440	0	33.9530	8	26.340	0	52.469	0	179.2	8	63.0	8	-1E+10	1	-1E+10	1	-1E+10	1	-1E+10	1	-1E+10	1	-1E+10	1
4901784	61	C	03/06/2017	10:43	-132.245	44.023	0	54.60	0	8.7440	0	33.9520	8	26.339	0	54.155	0	179.2	8	63.0	8	-1E+10	1	-1E+10	1	-1E+10	1	-1E+10	1	-1E+10	1	-1E+10	1
4901784	61	C	03/06/2017	10:43	-132.245	44.023	0	56.40	0	8.7440	0	33.9520	8	26.339	0	55.940	0	179.3	8	63.0	8	-1E+10	1	-1E+10	1	-1E+10	1	-1E+10	1	-1E+10	1	-1E+10	1
4901784	61	C	03/06/2017	10:43	-132.245	44.023	0	58.30	0	8.7440	0	33.9520	8	26.339	0	57.824	0	179.2	8	63.0	8	-1E+10	1	-1E+10	1	-1E+10	1	-1E+10	1	-1E+10	1	-1E+10	1
4901784	61	C	03/06/2017	10:43	-132.245	44.023	0	60.10	0	8.7440	0	33.9510	8	26.338	0	59.609	0	179.2	8	63.0	8	-1E+10	1	-1E+10	1	-1E+10	1	-1E+10	1	-1E+10	1	-1E+10	1
4901784	61	C	03/06/2017	10:43	-132.245	44.023	0	62.00	0	8.7440	0	33.9510	8	26.338	0	61.493	0	179.3	8	63.0	8	-1E+10	1	-1E+10	1	-1E+10	1	-1E+10	1	-1E+10	1	-1E+10	1
4901784	61	C	03/06/2017	10:43	-132.245	44.023	0	63.90	0	8.7440	0	33.9510	8	26.338	0	63.377	0	179.2	8	63.0	8	-1E+10	1	-1E+10	1	-1E+10	1	-1E+10	1	-1E+10	1	-1E+10	1
4901784	61	C	03/06/2017	10:43	-132.245	44.023	0	65.80	0	8.7440	0	33.9500	8	26.338	0	65.261	0	179.3	8	63.1	8	-1E+10	1	-1E+10	1	-1E+10	1	-1E+10	1	-1E+10	1	-1E+10	1
4901784	61	C	03/06/2017	10:43	-132.245	44.023	0	67.60	0	8.7440	0	33.9490	8	26.337	0	67.046	0	179.3	8	63.0	8	-1E+10	1	-1E+10	1	-1E+10	1	-1E+10	1	-1E+10	1	-1E+10	1
4901784	61	C	03/06/2017	10:43	-132.245	44.023	0	69.50	0	8.7450	0	33.9490	8	26.337	0	68.930	0	179.3	8	63.1	8	-1E+10	1	-1E+10	1	-1E+10	1	-1E+10	1	-1E+10	1	-1E+10	1
4901784	61	C	03/06/2017	10:43	-132.245	44.023	0	71.40	0	8.7440	0	33.9480	8	26.336	0	70.815	0	179.3	8	63.1	8	-1E+10	1	-1E+10	1	-1E+10	1	-1E+10	1	-1E+10	1	-1E+10	1
4901784	61	C	03/06/2017	10:43	-132.245	44.023	0	73.30	0	8.7450	0	33.9480	8	26.336	0	72.699	0	179.3	8	63.1	8	-1E+10	1	-1E+10	1	-1E+10	1	-1E+10	1	-1E+10	1	-1E+10	1
4901784	61	C	03/06/2017	10:43	-132.245	44.023	0	75.20	0	8.7450	0	33.9460	8	26.334	0	74.583	0	179.4	8	63.1	8	-1E+10	1	-1E+10	1	-1E+10	1	-1E+10	1	-1E+10	1	-1E+10	1
4901784	61	C	03/06/2017	10:43	-132.245	44.023	0	77.10	0	8.7450	0	33.9450	8	26.334	0	76.467	0	179.4	8	63.1	8	-1E+10	1	-1E+10	1	-1E+10	1	-1E+10	1	-1E+10	1	-1E+10	1
4901784	61	C	03/06/2017	10:43	-132.245	44.023	0	78.90	0	8.7450	0	33.9440	8	26.333	0	78.252	0	179.4	8	63.1	8	-1E+10	1	-1E+10	1	-1E+10	1	-1E+10	1	-1E+10	1	-1E+10	1
4901784	61	C	03/06/2017	10:43	-132.245	44.023	0	80.70	0	8.7460	0	33.9430	8	26.332	0	80.036	0	179.3	8	63.0	8	-1E+10	1	-1E+10	1	-1E+10	1	-1E+10	1	-1E+10	1	-1E+10	1
4901784	61	C	03/06/2017	10:43	-132.245	44.023	0	82.50	0	8.7460	0	33.9420	8	26.331	0	81.821	0	179.4	8	63.1	8	-1E+10	1	-1E+10	1	-1E+10	1	-1E+10	1	-1E+10	1	-1E+10	1
4901784	61	C	03/06/2017	10:43	-132.245	44.023	0	84.30	0	8.7460	0	33.9400	8	26.330	0	83.606	0	179.3	8	63.0	8	-1E+10	1	-1E+10	1	-1E+10	1	-1E+10	1	-1E+10	1	-1E+10	1
4901784	61	C	03/06/2017	10:43	-132.245	44.023	0	86.20	0	8.7460	0	33.9380	8	26.328	0	85.490	0	179.4	8	63.1	8	-1E+10	1	-1E+10	1	-1E+10	1	-1E+10	1	-1E+10	1	-1E+10	1
4901784	61	C	03/06/2017	10:43	-132.245	44.023	0	88.00	0	8.7470	0	33.9350	8	26.326	0	87.275	0	179.3	8	63.0	8	-1E+10	1	-1E+10	1	-1E+10	1	-1E+10	1	-1E+10	1	-1E+10	1
4901784	61	C	03/06/2017	10:43	-132.245	44.023	0	89.90	0	8.7490	0	33.9310	8	26.322	0	89.159	0	179.3	8	63.1	8	-1E+10	1	-1E+10	1	-1E+10	1	-1E+10	1	-1E+10	1	-1E+10	1
4901784	61	C	03/06/2017	10:43	-132.245	44.023	0	92.20	0	8.7520	0	33.9240	8	26.316	0	91.439	0	179.3	8	63.0	8	-1E+10	1	-1E+10	1	-1E+10	1	-1E+10	1	-1E+10	1	-1E+10	1
4901784	61	C	03/06/2017	10:43	-132.245	44.023	0	93.80	0	8.7530	0	33.9180	8	26.312	0	93.026	0	179.3	8	63.0	8	-1E+10	1	-1E+10	1	-1E+10	1	-1E+10	1	-1E+10	1	-1E+10	1
4901784	61	C	03/06/2017	10:43	-132.245	44.023	0	95.30	0	8.7510	0	33.9160	8	26.310	0	94.513	0	179.3	8	63.0	8	-1E+10	1	-1E+10	1	-1E+10	1	-1E+10	1	-1E+10	1	-1E+10	1
4901784	61	C	03/06/2017	10:43	-132.245	44.023	0	96.60	0	8.7420	0	33.9190	8	26.314	0	95.802	0	179.2	8	63.0	8	-1E+10	1	-1E+10	1	-1E+10	1	-1E+10	1	-1E+10	1	-1E+10	1
4901784	61	C	03/06/2017	10:43	-132.245	44.023	0	98.10	0	8.7350	0	33.9210	8	26.317	0	97.289	0	179.2	8	63.0	8	-1E+10	1	-1E+10	1	-1E+10	1	-1E+10	1	-1E+10	1	-1E+10	1
4901784	61	C	03/06/2017	10:43	-132.245	44.023	0	99.60	0	8.7280	0	33.9250	8	26.321	0	98.777	0	179.2	8	63.0	8	-1E+10	1	-1E+10	1	-1E+10	1	-1E+10	1	-1E+10	1	-1E+10	1
4901784	61	C	03/06/2017	10:43	-132.245	44.023	0	102.60	0	8.7260	0	33.9200	8	26.317	0	101.751	0	179.1	8	63.0	8	-1E+10	1	-1E+10	1	-1E+10	1	-1E+10	1	-1E+10	1	-1E+10	1
4901784	61	C	03/06/2017	10:43	-132.245	44.023	0	105.00	0	8.7380	0	33.9030	8	26.302	0	104.131	0	179.1	8	62.9	8	-1E+10	1	-1E+10	1	-1E+10	1	-1E+10	1	-1E+10	1	-1E+10	1
4901784	61	C	03/06/2017	10:43	-132.245	44.023	0	107.50	0	8.7420	0	33.8900	8	26.292	0	106.609	0	179.1	8	63.0	8	-1E+10	1	-1E+10	1	-1E+10	1	-1E+10	1	-1E+10	1	-1E+10	1
4901784	61	C	03/06/2017	10:43	-132.245	44.023	0	110.20	0	8.7310	0	33.8890	8	26.293	0	109.286	0	179.0	8	62.9	8	-1E+10	1	-1E+10	1	-1E+10	1	-1E+10	1	-1E+10	1	-1E+10	1
4901784	61	C	03/06/2017	10:43	-132.245	44.023	0	112.40	0	8.7210	0	33.8900	8	26.295	0	111.467	0	178.9	8	62.9	8	-1E+10	1	-1E+10	1	-1E+10	1	-1E+10	1	-1E+10	1	-1E+10	1
4901784	61	C	03/06/2017	10:43	-132.245	44.023	0	115.40	0	8.7190	0	33.8780	8	26.286	0	114.442	0	178.8	8	62.8	8	-1E+10	1	-1E+10	1	-1E+10	1	-1E+10	1	-1E+10	1	-1E+10	1
4901784	61	C	03/06/2017	10:43	-132.245	44.023	0	117.70	0	8.7210	0	33.8630	8	26.274	0	116.722	0	178.8	8	62.8	8	-1E+10	1	-1E+10	1	-1E+10	1	-1E+10	1	-1E+10	1	-1E+10	1
4901784	61	C	03/06/2017	10:43	-132.245	44.023	0	120.10	0	8.7190	0	33.8490	8	26.263	0	119.101	0	178.7	8	62.7	8	-1E+10	1	-1E+10	1	-1E+10	1	-1E+10	1	-1E+10	1	-1E+10	1
4901784	61	C	03/06/2017	10:43	-132.245	44.023	0	122.40	0	8.7170	0	33.8340	8	26.252	0	121.381	0	178.7	8	62.7	8	-1E+10	1	-1E+10	1	-1E+10	1	-1E+10	1	-1E+10	1	-1E+10	1
4901784	61	C	03/06/2017	10:43	-132.245	44.023	0	124.80	0	8.7130	0	33.8180	8	26.240	0	123.761	0	178.5	8	62.7	8	-1E+10	1	-1E+10	1	-1E+10	1	-1E+10	1	-1E+10	1	-1E+10	1
4901784	61	C	03/06/2017	10:43	-132.245	44.023	0	127.20	0	8.7060	0	33.8040	8	26.230	0	126.140	0	178.3	8	62.6	8	-1E+10	1	-1E+10	1	-1E+10	1	-1E+10	1	-1E+10	1	-1E+10	1
4901784	61	C	03/06/2017	10:43	-132.245	44.023	0	129.60	0	8.6820	0	33.8050	8	26.235	0	128.519	0	178.1	8	62.5	8	-1E+10	1	-1E+10	1	-1E+10	1	-1E+10	1	-1E+10	1	-1E+10	1
4901784	61	C	03/06/2017	10:43	-132.245	44.023	0	132.10	0	8.6580	0	33.8080	8	26.241	0	130.998	0	177.9	8	62.4	8	-1E+10	1	-1E+10	1	-1E+10	1	-1E+10	1	-1E+10	1	-1E+10	1
4901784	61	C	03/06/2017	10:43	-132.245	44.023	0	134.70	0	8.6310	0	33.8160	8	26.251	0	133.575	0	177.7	8	62.3	8	-1E+10	1	-1E+10	1	-1E+10	1	-1E+10	1	-1E+10	1	-1E+10	1
4901784	61	C	03/06/2017	10:43	-132.245	44.023	0	137.30	0	8.6020	0	33.8270	8	26.264	0	136.152	0	177.4	8	62.1	8	-1E+10	1	-1E+10	1	-1E+10	1	-1E+10	1	-1E+10	1	-1E+10	1
4901784	61	C	03/06/2017	10:43	-132.245	44.023	0	140.00	0	8.5660	0	33.8460	8	26.285	0	138.829	0	177.1	8	62.0	8	-1E+10	1	-1E+10	1	-1E+10	1	-1E+10	1	-1E+10	1	-1E+10	1
4901784	61	C	03/06/2017	10:43	-132.245	44.023	0	142.70	0	8.5440	0	33.8530	8	26.294	0	141.505	0	176.6	8	61.8	8	-1E+10	1	-1E+10	1	-1E+10	1	-1E+10	1	-1E+10	1	-1E+10	1
4901784	61	C	03/06/2017	10:43	-132.245	44.023	0	144.50	0	8.5380	0	33.8490	8	26.291	0	143.290	0	176.4	8	61.7	8	-1E+10	1	-1E+10	1	-1E+10	1	-1E+10	1	-1E+10	1	-1E+10	1
4901784	61	C	03/06/2017	10:43	-132.245	44.023	0	147.20	0	8.5230	0	33.8460	8	26.291	0	145.966	0	175.9	8	61.5	8	-1E+10	1	-1E+10	1	-1E+10	1	-1E+10	1	-1E+10	1	-1E+10	1
4901784	61	C	03/06/2017	10:43	-132.245	44.023	0	150.00	0	8.5040	0	33.8440	8	26.293	0	148.742	0	175.3	8	61.3	8	-1E+10	1	-1E+10	1	-1E+10	1	-1E+10	1	-1E+10	1	-1E+10	1
4901784	61	C	03/06/2017	10:43	-132.245	44.023	0	152.60	0	8.4740	0	33.8520	8	26.304	0	151.319	0	174.6	8	61.0	8	-1E+10	1	-1E+10	1	-1E+10	1	-1E+10	1	-1E+10	1	-1E+10	1
4901784	61	C	03/06/2017	10:43	-132.245	44.023	0	155.20	0	8.4300	0	33.8700	8	26.325	0	153.896	0	173.9	8	60.7	8	-1E+10	1	-1E+10	1	-1E+10	1	-1E+10	1	-1E+10	1	-1E+10	1
4901784	61	C	03/06/2017	10:43	-132.245	44.023	0	157.00	0	8.4160	0	33.8680	8	26.325	0	155.680	0	173.4	8	60.5	8	-1E+10	1	-1E+10	1	-1E+10	1	-1E+10	1	-1E+10	1	-1E+10	1
4901784	61	C	03/06/2017	10:43	-132.245	44.023	0	159.70	0	8.3900	0	33.8670	8	26.328	0	158.357	0	172.6	8	60.2	8	-1E+10	1	-1E+10	1	-1E+10	1	-1E+10	1	-1E+10	1	-1E+10	1
4901784	61	C	03/06/2017	10:43	-132.245	44.023	0	162.20	0	8.3550	0	33.8740	8	26.339	0	160.835	0	171.8	8	59.9	8	-1E+10	1	-1E+10	1	-1E+10	1	-1E+10	1	-1E+10	1	-1E+10	1
4901784	61	C	03/06/2017	10:43	-132.245	44.023	0	164.90	0	8.3140	0	33.8860	8	26.355	0	163.511	0	170.7	8	59.4	8	-1E+10	1	-1E+10	1	-1E+10	1	-1E+10	1	-1E+10	1	-1E+10	1
4901784	61	C	03/06/2017	10:43	-132.245	44.023	0	167.50	0	8.2560	0	33.9120	8	26.384	0	166.088	0	169.7	8	59.0	8	-1E+10	1	-1E+10	1	-1E+10	1	-1E+10	1	-1E+10	1	-1E+10	1
4901784	61	C	03/06/2017	10:43	-132.245	44.023	0	170.20	0	8.2210	0	33.9280	8	26.402	0	168.764	0	168.5	8	58.6	8	-1E+10	1	-1E+10	1	-1E+10	1	-1E+10	1	-1E+10	1	-1E+10	1
4901784	61	C	03/06/2017	10:43	-132.245	44.023	0	172.90	0	8.2050	0	33.9170	8	26.396	0	171.440	0	167.5	8	58.2	8	-1E+10	1	-1E+10	1	-1E+10	1	-1E+10	1	-1E+10	1	-1E+10	1
4901784	61	C	03/06/2017	10:43	-132.245	44.023	0	174.60	0	8.1840	0	33.9130	8	26.396	0	173.125	0	166.9	8	58.0	8	-1E+10	1	-1E+10	1	-1E+10	1	-1E+10	1	-1E+10	1	-1E+10	1
4901784	61	C	03/06/2017	10:43	-132.245	44.023	0	177.30	0	8.1360	0	33.9160	8	26.405	0	175.801	0	165.8	8	57.5	8	-1E+10	1	-1E+10	1	-1E+10	1	-1E+10	1	-1E+10	1	-1E+10	1
4901784	61	C	03/06/2017	10:43	-132.245	44.023	0	179.90	0	8.0810	0	33.9260	8	26.421	0	178.378	0	164.9	8	57.1	8	-1E+10	1	-1E+10	1	-1E+10	1	-1E+10	1	-1E+10	1	-1E+10	1
4901784	61	C	03/06/2017	10:43	-132.245	44.023	0	182.60	0	8.0290	0	33.9250	8	26.428	0	181.054	0	164.0	8	56.8	8	-1E+10	1	-1E+10	1	-1E+10	1	-1E+10	1	-1E+10	1	-1E+10	1
4901784	61	C	03/06/2017	10:43	-132.245	44.023	0	185.40	0	7.9560	0	33.9400	8	26.451	0	183.829	0	163.1	8	56.4	8	-1E+10	1	-1E+10	1	-1E+10	1	-1E+10	1	-1E+10	1	-1E+10	1
4901784	61	C	03/06/2017	10:43	-132.245	44.023	0	187.20	0	7.9280	0	33.9400	8	26.455	0	185.613	0	162.6	8	56.1	8	-1E+10	1	-1E+10	1	-1E+10	1	-1E+10	1	-1E+10	1	-1E+10	1
4901784	61	C	03/06/2017	10:43	-132.245	44.023	0	190.00	0	7.8730	0	33.9470	8	26.469	0	188.388	0	161.8	8	55.8	8	-1E+10	1	-1E+10	1	-1E+10	1	-1E+10	1	-1E+10	1	-1E+10	1
4901784	61	C	03/06/2017	10:43	-132.245	44.023	0	192.70	0	7.8200	0	33.9550	8	26.483	0	191.064	0	161.0	8	55.5	8	-1E+10	1	-1E+10	1	-1E+10	1	-1E+10	1	-1E+10	1	-1E+10	1
4901784	61	C	03/06/2017	10:43	-132.245	44.023	0	195.40	0	7.8000	0	33.9490	4	26.481	0	193.740	0	160.2	8	55.2	8	-1E+10	1	-1E+10	1	-1E+10	1	-1E+10	1	-1E+10	1	-1E+10	1
4901784	61	C	03/06/2017	10:43	-132.245	44.023	0	198.00	0	7.7650	0	33.9410	4	26.480	0	196.316	0	159.5	8	54.9	8	-1E+10	1	-1E+10	1	-1E+10	1	-1E+10	1	-1E+10	1	-1E+10	1
4901784	61	C	03/06/2017	10:43	-132.245	44.023	0	199.80	0	7.6970	0	33.9510	4	26.497	0	198.100	0	159.0	8	54.6	8	-1E+10	1	-1E+10	1	-1E+10	1	-1E+10	1	-1E+10	1	-1E+10	1
4901784	61	C	03/06/2017	10:43	-132.245	44.023	0	202.60	0	7.6430	0	33.9620	4	26.514	0	200.875	0	158.1	8	54.3	8	-1E+10	1	-1E+10	1	-1E+10	1	-1E+10	1	-1E+10	1	-1E+10	1
4901784	61	C	03/06/2017	10:43	-132.245	44.023	0	205.30	0	7.6220	0	33.9540	4	26.511	0	203.551	0	157.5	8	54.0	8	-1E+10	1	-1E+10	1	-1E+10	1	-1E+10	1	-1E+10	1	-1E+10	1
4901784	61	C	03/06/2017	10:43	-132.245	44.023	0	207.10	0	7.6000	0	33.9490	4	26.510	0	205.334	0	157.2	8	53.9	8	-1E+10	1	-1E+10	1	-1E+10	1	-1E+10	1	-1E+10	1	-1E+10	1
4901784	61	C	03/06/2017	10:43	-132.245	44.023	0	209.90	0	7.5400	0	33.9590	4	26.526	0	208.109	0	156.7	8	53.6	8	-1E+10	1	-1E+10	1	-1E+10	1	-1E+10	1	-1E+10	1	-1E+10	1
4901784	61	C	03/06/2017	10:43	-132.245	44.023	0	212.60	0	7.5060	0	33.9550	4	26.528	0	210.785	0	156.1	8	53.4	8	-1E+10	1	-1E+10	1	-1E+10	1	-1E+10	1	-1E+10	1	-1E+10	1
4901784	61	C	03/06/2017	10:43	-132.245	44.023	0	214.40	0	7.4670	0	33.9560	4	26.534	0	212.568	0	155.6	8	53.2	8	-1E+10	1	-1E+10	1	-1E+10	1	-1E+10	1	-1E+10	1	-1E+10	1
4901784	61	C	03/06/2017	10:43	-132.245	44.023	0	217.20	0	7.4150	0	33.9620	4	26.546	0	215.343	0	155.0	8	52.9	8	-1E+10	1	-1E+10	1	-1E+10	1	-1E+10	1	-1E+10	1	-1E+10	1
4901784	61	C	03/06/2017	10:43	-132.245	44.023	0	220.00	0	7.3840	0	33.9590	4	26.549	0	218.118	0	154.2	8	52.6	8	-1E+10	1	-1E+10	1	-1E+10	1	-1E+10	1	-1E+10	1	-1E+10	1
4901784	61	C	03/06/2017	10:43	-132.245	44.023	0	222.60	0	7.3400	0	33.9610	4	26.556	0	220.694	0	153.3	8	52.2	8	-1E+10	1	-1E+10	1	-1E+10	1	-1E+10	1	-1E+10	1	-1E+10	1
4901784	61	C	03/06/2017	10:43	-132.245	44.023	0	225.30	0	7.2990	0	33.9620	4	26.563	0	223.369	0	152.1	8	51.8	8	-1E+10	1	-1E+10	1	-1E+10	1	-1E+10	1	-1E+10	1	-1E+10	1
4901784	61	C	03/06/2017	10:43	-132.245	44.023	0	227.10	0	7.2670	0	33.9580	4	26.564	0	225.153	0	151.4	8	51.5	8	-1E+10	1	-1E+10	1	-1E+10	1	-1E+10	1	-1E+10	1	-1E+10	1
4901784	61	C	03/06/2017	10:43	-132.245	44.023	0	229.70	0	7.2230	0	33.9620	4	26.574	0	227.729	0	150.2	8	51.1	8	-1E+10	1	-1E+10	1	-1E+10	1	-1E+10	1	-1E+10	1	-1E+10	1
4901784	61	C	03/06/2017	10:43	-132.245	44.023	0	232.20	0	7.1830	0	33.9620	4	26.579	0	230.206	0	149.3	8	50.7	8	-1E+10	1	-1E+10	1	-1E+10	1	-1E+10	1	-1E+10	1	-1E+10	1
4901784	61	C	03/06/2017	10:43	-132.245	44.023	0	234.80	0	7.1110	0	33.9650	4	26.591	0	232.783	0	148.5	8	50.3	8	-1E+10	1	-1E+10	1	-1E+10	1	-1E+10	1	-1E+10	1	-1E+10	1
4901784	61	C	03/06/2017	10:43	-132.245	44.023	0	237.60	0	7.0490	0	33.9670	4	26.602	0	235.557	0	147.8	8	50.0	8	-1E+10	1	-1E+10	1	-1E+10	1	-1E+10	1	-1E+10	1	-1E+10	1
4901784	61	C	03/06/2017	10:43	-132.245	44.023	0	240.30	0	6.9830	0	33.9600	4	26.605	0	238.232	0	147.1	8	49.7	8	-1E+10	1	-1E+10	1	-1E+10	1	-1E+10	1	-1E+10	1	-1E+10	1
4901784	61	C	03/06/2017	10:43	-132.245	44.023	0	243.10	0	6.9230	0	33.9710	4	26.622	0	241.007	0	146.4	8	49.4	8	-1E+10	1	-1E+10	1	-1E+10	1	-1E+10	1	-1E+10	1	-1E+10	1
4901784	61	C	03/06/2017	10:43	-132.245	44.023	0	244.90	0	6.8900	0	33.9720	4	26.627	0	242.790	0	145.8	8	49.2	8	-1E+10	1	-1E+10	1	-1E+10	1	-1E+10	1	-1E+10	1	-1E+10	1
4901784	61	C	03/06/2017	10:43	-132.245	44.023	0	247.70	0	6.8450	0	33.9730	4	26.634	0	245.564	0	144.9	8	48.8	8	-1E+10	1	-1E+10	1	-1E+10	1	-1E+10	1	-1E+10	1	-1E+10	1
4901784	61	C	03/06/2017	10:43	-132.245	44.023	0	250.40	0	6.8260	0	33.9750	4	26.638	0	248.239	0	143.7	8	48.4	8	-1E+10	1	-1E+10	1	-1E+10	1	-1E+10	1	-1E+10	1	-1E+10	1
4901784	61	C	03/06/2017	10:43	-132.245	44.023	0	252.30	0	6.8020	0	33.9740	4	26.641	0	250.122	0	142.9	8	48.1	8	-1E+10	1	-1E+10	1	-1E+10	1	-1E+10	1	-1E+10	1	-1E+10	1
4901784	61	C	03/06/2017	10:43	-132.245	44.023	0	255.10	0	6.7580	0	33.9730	4	26.646	0	252.896	0	141.3	8	47.5	8	-1E+10	1	-1E+10	1	-1E+10	1	-1E+10	1	-1E+10	1	-1E+10	1
4901784	61	C	03/06/2017	10:43	-132.245	44.023	0	257.90	0	6.7310	0	33.9730	4	26.650	0	255.670	0	139.9	8	47.0	8	-1E+10	1	-1E+10	1	-1E+10	1	-1E+10	1	-1E+10	1	-1E+10	1
4901784	61	C	03/06/2017	10:43	-132.245	44.023	0	259.80	0	6.6930	0	33.9740	4	26.655	0	257.552	0	138.9	8	46.7	8	-1E+10	1	-1E+10	1	-1E+10	1	-1E+10	1	-1E+10	1	-1E+10	1
4901784	61	C	03/06/2017	10:43	-132.245	44.023	0	262.70	0	6.6620	0	33.9740	4	26.660	0	260.425	0	137.7	8	46.2	8	-1E+10	1	-1E+10	1	-1E+10	1	-1E+10	1	-1E+10	1	-1E+10	1
4901784	61	C	03/06/2017	10:43	-132.245	44.023	0	265.50	0	6.6160	0	33.9700	4	26.663	0	263.199	0	136.3	8	45.7	8	-1E+10	1	-1E+10	1	-1E+10	1	-1E+10	1	-1E+10	1	-1E+10	1
4901784	61	C	03/06/2017	10:43	-132.245	44.023	0	267.40	0	6.5660	0	33.9680	4	26.668	0	265.082	0	135.2	8	45.3	8	-1E+10	1	-1E+10	1	-1E+10	1	-1E+10	1	-1E+10	1	-1E+10	1
4901784	61	C	03/06/2017	10:43	-132.245	44.023	0	270.20	0	6.5320	0	33.9700	4	26.674	0	267.856	0	132.9	8	44.5	8	-1E+10	1	-1E+10	1	-1E+10	1	-1E+10	1	-1E+10	1	-1E+10	1
4901784	61	C	03/06/2017	10:43	-132.245	44.023	0	273.00	0	6.5070	0	33.9730	4	26.679	0	270.630	0	131.0	8	43.8	8	-1E+10	1	-1E+10	1	-1E+10	1	-1E+10	1	-1E+10	1	-1E+10	1
4901784	61	C	03/06/2017	10:43	-132.245	44.023	0	274.90	0	6.4900	0	33.9730	4	26.682	0	272.512	0	129.5	8	43.3	8	-1E+10	1	-1E+10	1	-1E+10	1	-1E+10	1	-1E+10	1	-1E+10	1
4901784	61	C	03/06/2017	10:43	-132.245	44.023	0	277.60	0	6.4230	0	33.9750	4	26.692	0	275.187	0	127.9	8	42.7	8	-1E+10	1	-1E+10	1	-1E+10	1	-1E+10	1	-1E+10	1	-1E+10	1
4901784	61	C	03/06/2017	10:43	-132.245	44.023	0	280.40	0	6.3810	0	33.9750	4	26.697	0	277.960	0	126.5	8	42.2	8	-1E+10	1	-1E+10	1	-1E+10	1	-1E+10	1	-1E+10	1	-1E+10	1
4901784	61	C	03/06/2017	10:43	-132.245	44.023	0	282.80	0	6.3630	0	33.9740	4	26.699	0	280.338	0	125.2	8	41.7	8	-1E+10	1	-1E+10	1	-1E+10	1	-1E+10	1	-1E+10	1	-1E+10	1
4901784	61	C	03/06/2017	10:43	-132.245	44.023	0	284.70	0	6.3230	0	33.9750	4	26.705	0	282.220	0	124.0	8	41.3	8	-1E+10	1	-1E+10	1	-1E+10	1	-1E+10	1	-1E+10	1	-1E+10	1
4901784	61	C	03/06/2017	10:43	-132.245	44.023	0	287.10	0	6.3050	0	33.9750	4	26.707	0	284.597	0	122.2	8	40.7	8	-1E+10	1	-1E+10	1	-1E+10	1	-1E+10	1	-1E+10	1	-1E+10	1
4901784	61	C	03/06/2017	10:43	-132.245	44.023	0	290.40	0	6.2530	0	33.9750	4	26.714	0	287.866	0	119.6	8	39.8	8	-1E+10	1	-1E+10	1	-1E+10	1	-1E+10	1	-1E+10	1	-1E+10	1
4901784	61	C	03/06/2017	10:43	-132.245	44.023	0	292.90	0	6.2300	0	33.9750	4	26.717	0	290.343	0	117.4	8	39.0	8	-1E+10	1	-1E+10	1	-1E+10	1	-1E+10	1	-1E+10	1	-1E+10	1
4901784	61	C	03/06/2017	10:43	-132.245	44.023	0	295.30	0	6.1670	0	33.9780	4	26.727	0	292.720	0	115.7	8	38.4	8	-1E+10	1	-1E+10	1	-1E+10	1	-1E+10	1	-1E+10	1	-1E+10	1
4901784	61	C	03/06/2017	10:43	-132.245	44.023	0	297.80	0	6.1370	0	33.9770	4	26.730	0	295.197	0	114.3	8	37.9	8	-1E+10	1	-1E+10	1	-1E+10	1	-1E+10	1	-1E+10	1	-1E+10	1
4901784	61	C	03/06/2017	10:43	-132.245	44.023	0	300.30	0	6.1060	0	33.9780	4	26.735	0	297.673	0	112.7	4	37.4	4	-1E+10	1	-1E+10	1	-1E+10	1	-1E+10	1	-1E+10	1	-1E+10	1
4901784	61	C	03/06/2017	10:43	-132.245	44.023	0	302.80	0	6.0720	0	33.9780	4	26.739	0	300.149	0	111.2	4	36.8	4	-1E+10	1	-1E+10	1	-1E+10	1	-1E+10	1	-1E+10	1	-1E+10	1
4901784	61	C	03/06/2017	10:43	-132.245	44.023	0	305.40	0	6.0280	0	33.9780	4	26.745	0	302.725	0	109.8	4	36.3	4	-1E+10	1	-1E+10	1	-1E+10	1	-1E+10	1	-1E+10	1	-1E+10	1
4901784	61	C	03/06/2017	10:43	-132.245	44.023	0	307.90	0	5.9800	0	33.9770	4	26.750	0	305.201	0	108.4	4	35.8	4	-1E+10	1	-1E+10	1	-1E+10	1	-1E+10	1	-1E+10	1	-1E+10	1
4901784	61	C	03/06/2017	10:43	-132.245	44.023	0	309.70	0	5.9310	0	33.9780	4	26.757	0	306.984	0	107.5	4	35.5	4	-1E+10	1	-1E+10	1	-1E+10	1	-1E+10	1	-1E+10	1	-1E+10	1
4901784	61	C	03/06/2017	10:43	-132.245	44.023	0	312.30	0	5.8870	0	33.9780	4	26.763	0	309.559	0	106.4	4	35.1	4	-1E+10	1	-1E+10	1	-1E+10	1	-1E+10	1	-1E+10	1	-1E+10	1
4901784	61	C	03/06/2017	10:43	-132.245	44.023	0	314.90	0	5.8740	0	33.9770	4	26.763	0	312.134	0	105.0	4	34.6	4	-1E+10	1	-1E+10	1	-1E+10	1	-1E+10	1	-1E+10	1	-1E+10	1
4901784	61	C	03/06/2017	10:43	-132.245	44.023	0	317.60	0	5.8090	0	33.9800	4	26.774	0	314.808	0	103.4	4	34.0	4	-1E+10	1	-1E+10	1	-1E+10	1	-1E+10	1	-1E+10	1	-1E+10	1
4901784	61	C	03/06/2017	10:43	-132.245	44.023	0	320.20	0	5.7750	0	33.9800	4	26.778	0	317.384	0	102.5	4	33.7	4	-1E+10	1	-1E+10	1	-1E+10	1	-1E+10	1	-1E+10	1	-1E+10	1
4901784	61	C	03/06/2017	10:43	-132.245	44.023	0	322.80	0	5.7390	0	33.9770	4	26.780	0	319.959	0	101.7	4	33.4	4	-1E+10	1	-1E+10	1	-1E+10	1	-1E+10	1	-1E+10	1	-1E+10	1
4901784	61	C	03/06/2017	10:43	-132.245	44.023	0	325.30	0	5.6710	0	33.9780	4	26.789	0	322.435	0	100.9	4	33.1	4	-1E+10	1	-1E+10	1	-1E+10	1	-1E+10	1	-1E+10	1	-1E+10	1
4901784	61	C	03/06/2017	10:43	-132.245	44.023	0	327.10	0	5.6500	0	33.9770	4	26.791	0	324.217	0	100.4	4	32.9	4	-1E+10	1	-1E+10	1	-1E+10	1	-1E+10	1	-1E+10	1	-1E+10	1
4901784	61	C	03/06/2017	10:43	-132.245	44.023	0	329.80	0	5.6270	0	33.9740	4	26.791	0	326.892	0	99.3	4	32.5	4	-1E+10	1	-1E+10	1	-1E+10	1	-1E+10	1	-1E+10	1	-1E+10	1
4901784	61	C	03/06/2017	10:43	-132.245	44.023	0	332.50	0	5.5360	0	33.9750	4	26.803	0	329.566	0	98.3	4	32.2	4	-1E+10	1	-1E+10	1	-1E+10	1	-1E+10	1	-1E+10	1	-1E+10	1
4901784	61	C	03/06/2017	10:43	-132.245	44.023	0	335.20	0	5.4880	0	33.9740	4	26.808	0	332.240	0	97.4	4	31.8	4	-1E+10	1	-1E+10	1	-1E+10	1	-1E+10	1	-1E+10	1	-1E+10	1
4901784	61	C	03/06/2017	10:43	-132.245	44.023	0	337.90	0	5.4420	0	33.9760	4	26.815	0	334.914	0	96.7	4	31.6	4	-1E+10	1	-1E+10	1	-1E+10	1	-1E+10	1	-1E+10	1	-1E+10	1
4901784	61	C	03/06/2017	10:43	-132.245	44.023	0	339.70	0	5.4270	0	33.9750	4	26.816	0	336.696	0	96.3	4	31.4	4	-1E+10	1	-1E+10	1	-1E+10	1	-1E+10	1	-1E+10	1	-1E+10	1
4901784	61	C	03/06/2017	10:43	-132.245	44.023	0	342.40	0	5.4150	0	33.9760	4	26.818	0	339.370	0	95.6	4	31.2	4	-1E+10	1	-1E+10	1	-1E+10	1	-1E+10	1	-1E+10	1	-1E+10	1
4901784	61	C	03/06/2017	10:43	-132.245	44.023	0	345.10	0	5.4090	0	33.9750	4	26.818	0	342.044	0	94.7	4	30.9	4	-1E+10	1	-1E+10	1	-1E+10	1	-1E+10	1	-1E+10	1	-1E+10	1
4901784	61	C	03/06/2017	10:43	-132.245	44.023	0	347.80	0	5.3990	0	33.9750	4	26.820	0	344.718	0	93.3	4	30.4	4	-1E+10	1	-1E+10	1	-1E+10	1	-1E+10	1	-1E+10	1	-1E+10	1
4901784	61	C	03/06/2017	10:43	-132.245	44.023	0	350.50	0	5.3680	0	33.9770	4	26.825	0	347.392	0	91.8	4	29.9	4	-1E+10	1	-1E+10	1	-1E+10	1	-1E+10	1	-1E+10	1	-1E+10	1
4901784	61	C	03/06/2017	10:43	-132.245	44.023	0	352.40	0	5.3620	0	33.9770	4	26.826	0	349.273	0	90.9	4	29.6	4	-1E+10	1	-1E+10	1	-1E+10	1	-1E+10	1	-1E+10	1	-1E+10	1
4901784	61	C	03/06/2017	10:43	-132.245	44.023	0	355.10	0	5.3250	0	33.9790	4	26.832	0	351.947	0	89.4	4	29.1	4	-1E+10	1	-1E+10	1	-1E+10	1	-1E+10	1	-1E+10	1	-1E+10	1
4901784	61	C	03/06/2017	10:43	-132.245	44.023	0	357.80	0	5.2540	0	33.9810	4	26.841	0	354.621	0	88.1	4	28.6	4	-1E+10	1	-1E+10	1	-1E+10	1	-1E+10	1	-1E+10	1	-1E+10	1
4901784	61	C	03/06/2017	10:43	-132.245	44.023	0	359.70	0	5.2440	0	33.9810	4	26.843	0	356.502	0	87.5	4	28.4	4	-1E+10	1	-1E+10	1	-1E+10	1	-1E+10	1	-1E+10	1	-1E+10	1
4901784	61	C	03/06/2017	10:43	-132.245	44.023	0	362.30	0	5.2000	0	33.9850	4	26.851	0	359.077	0	86.6	4	28.1	4	-1E+10	1	-1E+10	1	-1E+10	1	-1E+10	1	-1E+10	1	-1E+10	1
4901784	61	C	03/06/2017	10:43	-132.245	44.023	0	365.00	0	5.1880	0	33.9830	4	26.851	0	361.750	0	85.9	4	27.8	4	-1E+10	1	-1E+10	1	-1E+10	1	-1E+10	1	-1E+10	1	-1E+10	1
4901784	61	C	03/06/2017	10:43	-132.245	44.023	0	367.80	0	5.1820	0	33.9820	4	26.851	0	364.523	0	84.8	4	27.5	4	-1E+10	1	-1E+10	1	-1E+10	1	-1E+10	1	-1E+10	1	-1E+10	1
4901784	61	C	03/06/2017	10:43	-132.245	44.023	0	370.70	0	5.1410	0	33.9850	4	26.858	0	367.395	0	83.7	4	27.1	4	-1E+10	1	-1E+10	1	-1E+10	1	-1E+10	1	-1E+10	1	-1E+10	1
4901784	61	C	03/06/2017	10:43	-132.245	44.023	0	372.50	0	5.1200	0	33.9850	4	26.860	0	369.177	0	82.9	4	26.9	4	-1E+10	1	-1E+10	1	-1E+10	1	-1E+10	1	-1E+10	1	-1E+10	1
4901784	61	C	03/06/2017	10:43	-132.245	44.023	0	375.30	0	5.0910	0	33.9890	4	26.867	0	371.949	0	82.2	4	26.6	4	-1E+10	1	-1E+10	1	-1E+10	1	-1E+10	1	-1E+10	1	-1E+10	1
4901784	61	C	03/06/2017	10:43	-132.245	44.023	0	378.00	0	5.0820	0	33.9890	4	26.868	0	374.623	0	81.7	4	26.4	4	-1E+10	1	-1E+10	1	-1E+10	1	-1E+10	1	-1E+10	1	-1E+10	1
4901784	61	C	03/06/2017	10:43	-132.245	44.023	0	379.90	0	5.0780	0	33.9890	4	26.868	0	376.504	0	81.3	4	26.3	4	-1E+10	1	-1E+10	1	-1E+10	1	-1E+10	1	-1E+10	1	-1E+10	1
4901784	61	C	03/06/2017	10:43	-132.245	44.023	0	382.80	0	5.0610	0	33.9900	4	26.871	0	379.376	0	80.4	4	26.0	4	-1E+10	1	-1E+10	1	-1E+10	1	-1E+10	1	-1E+10	1	-1E+10	1
4901784	61	C	03/06/2017	10:43	-132.245	44.023	0	385.60	0	5.0330	0	33.9910	4	26.875	0	382.148	0	79.4	4	25.7	4	-1E+10	1	-1E+10	1	-1E+10	1	-1E+10	1	-1E+10	1	-1E+10	1
4901784	61	C	03/06/2017	10:43	-132.245	44.023	0	387.60	0	5.0160	0	33.9920	4	26.878	0	384.128	0	78.9	4	25.5	4	-1E+10	1	-1E+10	1	-1E+10	1	-1E+10	1	-1E+10	1	-1E+10	1
4901784	61	C	03/06/2017	10:43	-132.245	44.023	0	389.50	0	5.0010	0	33.9940	4	26.881	0	386.009	0	78.4	4	25.3	4	-1E+10	1	-1E+10	1	-1E+10	1	-1E+10	1	-1E+10	1	-1E+10	1
4901784	61	C	03/06/2017	10:43	-132.245	44.023	0	392.40	0	4.9970	0	33.9940	4	26.882	0	388.881	0	77.6	4	25.1	4	-1E+10	1	-1E+10	1	-1E+10	1	-1E+10	1	-1E+10	1	-1E+10	1
4901784	61	C	03/06/2017	10:43	-132.245	44.023	0	395.20	0	4.9840	0	33.9940	4	26.883	0	391.653	0	76.4	4	24.7	4	-1E+10	1	-1E+10	1	-1E+10	1	-1E+10	1	-1E+10	1	-1E+10	1
4901784	61	C	03/06/2017	10:43	-132.245	44.023	0	397.10	0	4.9520	0	33.9990	4	26.891	0	393.534	0	75.5	4	24.4	4	-1E+10	1	-1E+10	1	-1E+10	1	-1E+10	1	-1E+10	1	-1E+10	1
4901784	61	C	03/06/2017	10:43	-132.245	44.023	0	399.90	0	4.9260	0	34.0010	4	26.895	0	396.306	0	74.6	4	24.1	4	-1E+10	1	-1E+10	1	-1E+10	1	-1E+10	1	-1E+10	1	-1E+10	1
4901784	61	C	03/06/2017	10:43	-132.245	44.023	0	402.80	0	4.9120	0	34.0020	4	26.898	0	399.177	0	73.8	4	23.8	4	-1E+10	1	-1E+10	1	-1E+10	1	-1E+10	1	-1E+10	1	-1E+10	1
4901784	61	C	03/06/2017	10:43	-132.245	44.023	0	404.70	0	4.9030	0	34.0030	4	26.899	0	401.059	0	73.3	4	23.6	4	-1E+10	1	-1E+10	1	-1E+10	1	-1E+10	1	-1E+10	1	-1E+10	1
4901784	61	C	03/06/2017	10:43	-132.245	44.023	0	407.60	0	4.8830	0	34.0050	4	26.903	0	403.930	0	72.3	4	23.3	4	-1E+10	1	-1E+10	1	-1E+10	1	-1E+10	1	-1E+10	1	-1E+10	1
4901784	61	C	03/06/2017	10:43	-132.245	44.023	0	410.50	0	4.8660	0	34.0070	4	26.907	0	406.801	0	71.3	4	22.9	4	-1E+10	1	-1E+10	1	-1E+10	1	-1E+10	1	-1E+10	1	-1E+10	1
4901784	61	C	03/06/2017	10:43	-132.245	44.023	0	412.40	0	4.8600	0	34.0070	4	26.908	0	408.682	0	70.4	4	22.7	4	-1E+10	1	-1E+10	1	-1E+10	1	-1E+10	1	-1E+10	1	-1E+10	1
4901784	61	C	03/06/2017	10:43	-132.245	44.023	0	414.40	0	4.8400	0	34.0100	4	26.912	0	410.662	0	69.4	4	22.3	4	-1E+10	1	-1E+10	1	-1E+10	1	-1E+10	1	-1E+10	1	-1E+10	1
4901784	61	C	03/06/2017	10:43	-132.245	44.023	0	417.40	0	4.8330	0	34.0160	4	26.918	0	413.632	0	68.1	4	21.9	4	-1E+10	1	-1E+10	1	-1E+10	1	-1E+10	1	-1E+10	1	-1E+10	1
4901784	61	C	03/06/2017	10:43	-132.245	44.023	0	420.20	0	4.8340	0	34.0180	4	26.919	0	416.404	0	66.9	4	21.5	4	-1E+10	1	-1E+10	1	-1E+10	1	-1E+10	1	-1E+10	1	-1E+10	1
4901784	61	C	03/06/2017	10:43	-132.245	44.023	0	422.10	0	4.8300	0	34.0200	4	26.921	0	418.284	0	66.0	4	21.2	4	-1E+10	1	-1E+10	1	-1E+10	1	-1E+10	1	-1E+10	1	-1E+10	1
4901784	61	C	03/06/2017	10:43	-132.245	44.023	0	424.60	0	4.8220	0	34.0210	4	26.923	0	420.759	0	64.5	4	20.8	4	-1E+10	1	-1E+10	1	-1E+10	1	-1E+10	1	-1E+10	1	-1E+10	1
4901784	61	C	03/06/2017	10:43	-132.245	44.023	0	427.30	0	4.7900	0	34.0270	4	26.931	0	423.432	0	61.9	4	19.9	4	-1E+10	1	-1E+10	1	-1E+10	1	-1E+10	1	-1E+10	1	-1E+10	1
4901784	61	C	03/06/2017	10:43	-132.245	44.023	0	429.80	0	4.8310	0	34.0410	4	26.938	0	425.907	0	59.6	4	19.2	4	-1E+10	1	-1E+10	1	-1E+10	1	-1E+10	1	-1E+10	1	-1E+10	1
4901784	61	C	03/06/2017	10:43	-132.245	44.023	0	432.30	0	4.8200	0	34.0460	4	26.943	0	428.382	0	58.6	4	18.9	4	-1E+10	1	-1E+10	1	-1E+10	1	-1E+10	1	-1E+10	1	-1E+10	1
4901784	61	C	03/06/2017	10:43	-132.245	44.023	0	434.80	0	4.8030	0	34.0500	4	26.948	0	430.856	0	57.7	4	18.6	4	-1E+10	1	-1E+10	1	-1E+10	1	-1E+10	1	-1E+10	1	-1E+10	1
4901784	61	C	03/06/2017	10:43	-132.245	44.023	0	437.30	0	4.8160	0	34.0540	4	26.950	0	433.331	0	56.7	4	18.2	4	-1E+10	1	-1E+10	1	-1E+10	1	-1E+10	1	-1E+10	1	-1E+10	1
4901784	61	C	03/06/2017	10:43	-132.245	44.023	0	439.90	0	4.8250	0	34.0570	4	26.951	0	435.905	0	56.0	4	18.0	4	-1E+10	1	-1E+10	1	-1E+10	1	-1E+10	1	-1E+10	1	-1E+10	1
4901784	61	C	03/06/2017	10:43	-132.245	44.023	0	442.40	0	4.8260	0	34.0570	4	26.951	0	438.380	0	55.2	4	17.8	4	-1E+10	1	-1E+10	1	-1E+10	1	-1E+10	1	-1E+10	1	-1E+10	1
4901784	61	C	03/06/2017	10:43	-132.245	44.023	0	444.70	0	4.8260	0	34.0590	4	26.953	0	440.656	0	54.2	4	17.4	4	-1E+10	1	-1E+10	1	-1E+10	1	-1E+10	1	-1E+10	1	-1E+10	1
4901784	61	C	03/06/2017	10:43	-132.245	44.023	0	447.20	0	4.8140	0	34.0620	4	26.957	0	443.131	0	53.1	4	17.1	4	-1E+10	1	-1E+10	1	-1E+10	1	-1E+10	1	-1E+10	1	-1E+10	1
4901784	61	C	03/06/2017	10:43	-132.245	44.023	0	449.70	0	4.8000	0	34.0660	4	26.961	0	445.605	0	51.8	4	16.7	4	-1E+10	1	-1E+10	1	-1E+10	1	-1E+10	1	-1E+10	1	-1E+10	1
4901784	61	C	03/06/2017	10:43	-132.245	44.023	0	452.20	0	4.7820	0	34.0700	4	26.967	0	448.080	0	50.4	4	16.2	4	-1E+10	1	-1E+10	1	-1E+10	1	-1E+10	1	-1E+10	1	-1E+10	1
4901784	61	C	03/06/2017	10:43	-132.245	44.023	0	454.70	0	4.8010	0	34.0750	4	26.968	0	450.554	0	48.7	4	15.7	4	-1E+10	1	-1E+10	1	-1E+10	1	-1E+10	1	-1E+10	1	-1E+10	1
4901784	61	C	03/06/2017	10:43	-132.245	44.023	0	457.20	0	4.8360	0	34.0850	4	26.973	0	453.029	0	47.7	4	15.3	4	-1E+10	1	-1E+10	1	-1E+10	1	-1E+10	1	-1E+10	1	-1E+10	1
4901784	61	C	03/06/2017	10:43	-132.245	44.023	0	459.60	0	4.8400	0	34.0860	4	26.973	0	455.404	0	47.2	4	15.2	4	-1E+10	1	-1E+10	1	-1E+10	1	-1E+10	1	-1E+10	1	-1E+10	1
4901784	61	C	03/06/2017	10:43	-132.245	44.023	0	462.10	0	4.8350	0	34.0870	4	26.974	0	457.879	0	46.8	4	15.1	4	-1E+10	1	-1E+10	1	-1E+10	1	-1E+10	1	-1E+10	1	-1E+10	1
4901784	61	C	03/06/2017	10:43	-132.245	44.023	0	464.60	0	4.8160	0	34.0880	4	26.977	0	460.353	0	46.3	4	14.9	4	-1E+10	1	-1E+10	1	-1E+10	1	-1E+10	1	-1E+10	1	-1E+10	1
4901784	61	C	03/06/2017	10:43	-132.245	44.023	0	467.10	0	4.8010	0	34.0900	4	26.980	0	462.828	0	45.6	4	14.7	4	-1E+10	1	-1E+10	1	-1E+10	1	-1E+10	1	-1E+10	1	-1E+10	1
4901784	61	C	03/06/2017	10:43	-132.245	44.023	0	470.40	0	4.8040	0	34.0950	4	26.984	0	466.094	0	44.4	4	14.3	4	-1E+10	1	-1E+10	1	-1E+10	1	-1E+10	1	-1E+10	1	-1E+10	1
4901784	61	C	03/06/2017	10:43	-132.245	44.023	0	472.80	0	4.7940	0	34.0960	4	26.986	0	468.469	0	43.8	4	14.1	4	-1E+10	1	-1E+10	1	-1E+10	1	-1E+10	1	-1E+10	1	-1E+10	1
4901784	61	C	03/06/2017	10:43	-132.245	44.023	0	475.30	0	4.7940	0	34.0990	4	26.988	0	470.943	0	42.9	4	13.8	4	-1E+10	1	-1E+10	1	-1E+10	1	-1E+10	1	-1E+10	1	-1E+10	1
4901784	61	C	03/06/2017	10:43	-132.245	44.023	0	477.80	0	4.7840	0	34.1010	4	26.991	0	473.417	0	42.1	4	13.5	4	-1E+10	1	-1E+10	1	-1E+10	1	-1E+10	1	-1E+10	1	-1E+10	1
4901784	61	C	03/06/2017	10:43	-132.245	44.023	0	480.20	0	4.7700	0	34.1050	4	26.996	0	475.793	0	41.3	4	13.3	4	-1E+10	1	-1E+10	1	-1E+10	1	-1E+10	1	-1E+10	1	-1E+10	1
4901784	61	C	03/06/2017	10:43	-132.245	44.023	0	482.70	0	4.7540	0	34.1090	4	27.001	0	478.267	0	40.8	4	13.1	4	-1E+10	1	-1E+10	1	-1E+10	1	-1E+10	1	-1E+10	1	-1E+10	1
4901784	61	C	03/06/2017	10:43	-132.245	44.023	0	485.20	0	4.7530	0	34.1100	4	27.002	0	480.741	0	40.3	4	12.9	4	-1E+10	1	-1E+10	1	-1E+10	1	-1E+10	1	-1E+10	1	-1E+10	1
4901784	61	C	03/06/2017	10:43	-132.245	44.023	0	487.70	0	4.7520	0	34.1100	4	27.002	0	483.215	0	39.7	4	12.8	4	-1E+10	1	-1E+10	1	-1E+10	1	-1E+10	1	-1E+10	1	-1E+10	1
4901784	61	C	03/06/2017	10:43	-132.245	44.023	0	490.30	0	4.7420	0	34.1130	4	27.005	0	485.788	0	39.1	4	12.5	4	-1E+10	1	-1E+10	1	-1E+10	1	-1E+10	1	-1E+10	1	-1E+10	1
4901784	61	C	03/06/2017	10:43	-132.245	44.023	0	492.80	0	4.7320	0	34.1150	4	27.008	0	488.262	0	38.5	4	12.4	4	-1E+10	1	-1E+10	1	-1E+10	1	-1E+10	1	-1E+10	1	-1E+10	1
4901784	61	C	03/06/2017	10:43	-132.245	44.023	0	495.30	0	4.7230	0	34.1170	4	27.011	0	490.736	0	37.9	4	12.2	4	-1E+10	1	-1E+10	1	-1E+10	1	-1E+10	1	-1E+10	1	-1E+10	1
4901784	61	C	03/06/2017	10:43	-132.245	44.023	0	497.90	0	4.7140	0	34.1170	4	27.012	0	493.309	0	37.1	4	11.9	4	-1E+10	1	-1E+10	1	-1E+10	1	-1E+10	1	-1E+10	1	-1E+10	1
4901784	61	C	03/06/2017	10:43	-132.245	44.023	0	499.60	0	4.6980	0	34.1210	4	27.017	0	494.992	0	36.6	4	11.7	4	-1E+10	1	-1E+10	1	-1E+10	1	-1E+10	1	-1E+10	1	-1E+10	1
4901784	61	C	03/06/2017	10:43	-132.245	44.023	0	504.70	0	4.6510	0	34.1300	4	27.029	0	500.038	0	35.7	4	11.5	4	-1E+10	1	-1E+10	1	-1E+10	1	-1E+10	1	-1E+10	1	-1E+10	1
4901784	61	C	03/06/2017	10:43	-132.245	44.023	0	509.90	0	4.6200	0	34.1320	4	27.034	0	505.184	0	35.3	4	11.3	4	-1E+10	1	-1E+10	1	-1E+10	1	-1E+10	1	-1E+10	1	-1E+10	1
4901784	61	C	03/06/2017	10:43	-132.245	44.023	0	515.10	0	4.6100	0	34.1330	4	27.036	0	510.330	0	34.5	4	11.0	4	-1E+10	1	-1E+10	1	-1E+10	1	-1E+10	1	-1E+10	1	-1E+10	1
4901784	61	C	03/06/2017	10:43	-132.245	44.023	0	520.20	0	4.5840	0	34.1370	4	27.042	0	515.376	0	33.3	4	10.7	4	-1E+10	1	-1E+10	1	-1E+10	1	-1E+10	1	-1E+10	1	-1E+10	1
4901784	61	C	03/06/2017	10:43	-132.245	44.023	0	525.30	0	4.5670	0	34.1440	4	27.050	0	520.422	0	32.1	4	10.3	4	-1E+10	1	-1E+10	1	-1E+10	1	-1E+10	1	-1E+10	1	-1E+10	1
4901784	61	C	03/06/2017	10:43	-132.245	44.023	0	530.60	0	4.5270	0	34.1480	4	27.057	0	525.666	0	31.3	4	10.0	4	-1E+10	1	-1E+10	1	-1E+10	1	-1E+10	1	-1E+10	1	-1E+10	1
4901784	61	C	03/06/2017	10:43	-132.245	44.023	0	535.00	0	4.5100	0	34.1530	4	27.063	0	530.020	0	30.7	4	9.8	4	-1E+10	1	-1E+10	1	-1E+10	1	-1E+10	1	-1E+10	1	-1E+10	1
4901784	61	C	03/06/2017	10:43	-132.245	44.023	0	539.50	0	4.5000	0	34.1550	4	27.066	0	534.472	0	30.3	4	9.7	4	-1E+10	1	-1E+10	1	-1E+10	1	-1E+10	1	-1E+10	1	-1E+10	1
4901784	61	C	03/06/2017	10:43	-132.245	44.023	0	545.00	0	4.4930	0	34.1560	4	27.067	0	539.914	0	29.5	4	9.4	4	-1E+10	1	-1E+10	1	-1E+10	1	-1E+10	1	-1E+10	1	-1E+10	1
4901784	61	C	03/06/2017	10:43	-132.245	44.023	0	550.60	0	4.4830	0	34.1620	4	27.073	0	545.454	0	28.8	4	9.2	4	-1E+10	1	-1E+10	1	-1E+10	1	-1E+10	1	-1E+10	1	-1E+10	1
4901784	61	C	03/06/2017	10:43	-132.245	44.023	0	555.30	0	4.4600	0	34.1650	4	27.078	0	550.104	0	28.3	4	9.0	4	-1E+10	1	-1E+10	1	-1E+10	1	-1E+10	1	-1E+10	1	-1E+10	1
4901784	61	C	03/06/2017	10:43	-132.245	44.023	0	560.00	0	4.4540	0	34.1670	4	27.080	0	554.754	0	27.7	4	8.8	4	-1E+10	1	-1E+10	1	-1E+10	1	-1E+10	1	-1E+10	1	-1E+10	1
4901784	61	C	03/06/2017	10:43	-132.245	44.023	0	565.60	0	4.4480	0	34.1710	4	27.084	0	560.294	0	27.0	4	8.6	4	-1E+10	1	-1E+10	1	-1E+10	1	-1E+10	1	-1E+10	1	-1E+10	1
4901784	61	C	03/06/2017	10:43	-132.245	44.023	0	570.40	0	4.4360	0	34.1730	4	27.087	0	565.042	0	26.3	4	8.4	4	-1E+10	1	-1E+10	1	-1E+10	1	-1E+10	1	-1E+10	1	-1E+10	1
4901784	61	C	03/06/2017	10:43	-132.245	44.023	0	574.90	0	4.4200	0	34.1790	4	27.094	0	569.494	0	25.3	4	8.1	4	-1E+10	1	-1E+10	1	-1E+10	1	-1E+10	1	-1E+10	1	-1E+10	1
4901784	61	C	03/06/2017	10:43	-132.245	44.023	0	579.70	0	4.4080	0	34.1830	4	27.098	0	574.242	0	24.3	4	7.8	4	-1E+10	1	-1E+10	1	-1E+10	1	-1E+10	1	-1E+10	1	-1E+10	1
4901784	61	C	03/06/2017	10:43	-132.245	44.023	0	584.50	0	4.3810	0	34.1920	4	27.108	0	578.990	0	23.3	4	7.4	4	-1E+10	1	-1E+10	1	-1E+10	1	-1E+10	1	-1E+10	1	-1E+10	1
4901784	61	C	03/06/2017	10:43	-132.245	44.023	0	589.30	0	4.3550	0	34.1980	4	27.116	0	583.738	0	22.5	4	7.2	4	-1E+10	1	-1E+10	1	-1E+10	1	-1E+10	1	-1E+10	1	-1E+10	1
4901784	61	C	03/06/2017	10:43	-132.245	44.023	0	595.00	0	4.3190	0	34.2050	4	27.125	0	589.376	0	21.8	4	6.9	4	-1E+10	1	-1E+10	1	-1E+10	1	-1E+10	1	-1E+10	1	-1E+10	1
4901784	61	C	03/06/2017	10:43	-132.245	44.023	0	600.70	0	4.2870	0	34.2110	4	27.133	0	595.014	0	21.2	4	6.7	4	-1E+10	1	-1E+10	1	-1E+10	1	-1E+10	1	-1E+10	1	-1E+10	1
4901784	61	C	03/06/2017	10:43	-132.245	44.023	0	605.70	0	4.2650	0	34.2150	4	27.139	0	599.960	0	20.8	4	6.6	4	-1E+10	1	-1E+10	1	-1E+10	1	-1E+10	1	-1E+10	1	-1E+10	1
4901784	61	C	03/06/2017	10:43	-132.245	44.023	0	610.00	0	4.2530	0	34.2190	4	27.143	0	604.213	0	20.5	4	6.5	4	-1E+10	1	-1E+10	1	-1E+10	1	-1E+10	1	-1E+10	1	-1E+10	1
4901784	61	C	03/06/2017	10:43	-132.245	44.023	0	614.20	0	4.2480	0	34.2190	4	27.144	0	608.367	0	20.3	4	6.5	4	-1E+10	1	-1E+10	1	-1E+10	1	-1E+10	1	-1E+10	1	-1E+10	1
4901784	61	C	03/06/2017	10:43	-132.245	44.023	0	619.20	0	4.2350	0	34.2220	4	27.148	0	613.312	0	19.9	4	6.3	4	-1E+10	1	-1E+10	1	-1E+10	1	-1E+10	1	-1E+10	1	-1E+10	1
4901784	61	C	03/06/2017	10:43	-132.245	44.023	0	624.40	0	4.2230	0	34.2260	4	27.152	0	618.455	0	19.6	4	6.2	4	-1E+10	1	-1E+10	1	-1E+10	1	-1E+10	1	-1E+10	1	-1E+10	1
4901784	61	C	03/06/2017	10:43	-132.245	44.023	0	629.60	0	4.2100	0	34.2290	4	27.156	0	623.598	0	19.3	4	6.1	4	-1E+10	1	-1E+10	1	-1E+10	1	-1E+10	1	-1E+10	1	-1E+10	1
4901784	61	C	03/06/2017	10:43	-132.245	44.023	0	634.80	0	4.2030	0	34.2310	4	27.158	0	628.740	0	18.9	4	6.0	4	-1E+10	1	-1E+10	1	-1E+10	1	-1E+10	1	-1E+10	1	-1E+10	1
4901784	61	C	03/06/2017	10:43	-132.245	44.023	0	640.00	0	4.1870	0	34.2350	4	27.163	0	633.883	0	18.4	4	5.8	4	-1E+10	1	-1E+10	1	-1E+10	1	-1E+10	1	-1E+10	1	-1E+10	1
4901784	61	C	03/06/2017	10:43	-132.245	44.023	0	645.30	0	4.1650	0	34.2420	4	27.171	0	639.124	0	17.8	4	5.6	4	-1E+10	1	-1E+10	1	-1E+10	1	-1E+10	1	-1E+10	1	-1E+10	1
4901784	61	C	03/06/2017	10:43	-132.245	44.023	0	650.60	0	4.1440	0	34.2490	4	27.179	0	644.365	0	17.3	4	5.5	4	-1E+10	1	-1E+10	1	-1E+10	1	-1E+10	1	-1E+10	1	-1E+10	1
4901784	61	C	03/06/2017	10:43	-132.245	44.023	0	655.10	0	4.1320	0	34.2530	4	27.183	0	648.815	0	17.1	4	5.4	4	-1E+10	1	-1E+10	1	-1E+10	1	-1E+10	1	-1E+10	1	-1E+10	1
4901784	61	C	03/06/2017	10:43	-132.245	44.023	0	659.60	0	4.1150	0	34.2560	4	27.188	0	653.265	0	16.9	4	5.3	4	-1E+10	1	-1E+10	1	-1E+10	1	-1E+10	1	-1E+10	1	-1E+10	1
4901784	61	C	03/06/2017	10:43	-132.245	44.023	0	665.10	0	4.1000	0	34.2600	4	27.192	0	658.703	0	16.6	4	5.3	4	-1E+10	1	-1E+10	1	-1E+10	1	-1E+10	1	-1E+10	1	-1E+10	1
4901784	61	C	03/06/2017	10:43	-132.245	44.023	0	670.50	0	4.0860	0	34.2630	4	27.196	0	664.043	0	16.4	4	5.2	4	-1E+10	1	-1E+10	1	-1E+10	1	-1E+10	1	-1E+10	1	-1E+10	1
4901784	61	C	03/06/2017	10:43	-132.245	44.023	0	675.10	0	4.0710	0	34.2660	4	27.200	0	668.591	0	16.1	4	5.1	4	-1E+10	1	-1E+10	1	-1E+10	1	-1E+10	1	-1E+10	1	-1E+10	1
4901784	61	C	03/06/2017	10:43	-132.245	44.023	0	679.70	0	4.0560	0	34.2700	4	27.205	0	673.139	0	15.9	4	5.0	4	-1E+10	1	-1E+10	1	-1E+10	1	-1E+10	1	-1E+10	1	-1E+10	1
4901784	61	C	03/06/2017	10:43	-132.245	44.023	0	685.20	0	4.0260	0	34.2770	4	27.214	0	678.577	0	15.5	4	4.9	4	-1E+10	1	-1E+10	1	-1E+10	1	-1E+10	1	-1E+10	1	-1E+10	1
4901784	61	C	03/06/2017	10:43	-132.245	44.023	0	690.50	0	4.0070	0	34.2830	4	27.220	0	683.817	0	15.1	4	4.8	4	-1E+10	1	-1E+10	1	-1E+10	1	-1E+10	1	-1E+10	1	-1E+10	1
4901784	61	C	03/06/2017	10:43	-132.245	44.023	0	695.40	0	3.9820	0	34.2890	4	27.228	0	688.662	0	14.7	4	4.7	4	-1E+10	1	-1E+10	1	-1E+10	1	-1E+10	1	-1E+10	1	-1E+10	1
4901784	61	C	03/06/2017	10:43	-132.245	44.023	0	700.30	0	3.9600	0	34.2960	4	27.236	0	693.506	0	14.4	4	4.5	4	-1E+10	1	-1E+10	1	-1E+10	1	-1E+10	1	-1E+10	1	-1E+10	1
4901784	61	C	03/06/2017	10:43	-132.245	44.023	0	705.20	0	3.9500	0	34.3000	4	27.240	0	698.350	0	14.0	4	4.4	4	-1E+10	1	-1E+10	1	-1E+10	1	-1E+10	1	-1E+10	1	-1E+10	1
4901784	61	C	03/06/2017	10:43	-132.245	44.023	0	710.30	0	3.9480	0	34.3070	4	27.246	0	703.392	0	13.5	4	4.3	4	-1E+10	1	-1E+10	1	-1E+10	1	-1E+10	1	-1E+10	1	-1E+10	1
4901784	61	C	03/06/2017	10:43	-132.245	44.023	0	715.30	0	3.9350	0	34.3140	4	27.253	0	708.335	0	13.2	4	4.2	4	-1E+10	1	-1E+10	1	-1E+10	1	-1E+10	1	-1E+10	1	-1E+10	1
4901784	61	C	03/06/2017	10:43	-132.245	44.023	0	720.30	0	3.9170	0	34.3180	4	27.258	0	713.278	0	13.1	4	4.1	4	-1E+10	1	-1E+10	1	-1E+10	1	-1E+10	1	-1E+10	1	-1E+10	1
4901784	61	C	03/06/2017	10:43	-132.245	44.023	0	725.40	0	3.9060	0	34.3220	4	27.262	0	718.319	0	12.9	4	4.1	4	-1E+10	1	-1E+10	1	-1E+10	1	-1E+10	1	-1E+10	1	-1E+10	1
4901784	61	C	03/06/2017	10:43	-132.245	44.023	0	730.50	0	3.8970	0	34.3250	4	27.265	0	723.361	0	12.8	4	4.0	4	-1E+10	1	-1E+10	1	-1E+10	1	-1E+10	1	-1E+10	1	-1E+10	1
4901784	61	C	03/06/2017	10:43	-132.245	44.023	0	735.70	0	3.8910	0	34.3270	4	27.267	0	728.501	0	12.7	4	4.0	4	-1E+10	1	-1E+10	1	-1E+10	1	-1E+10	1	-1E+10	1	-1E+10	1
4901784	61	C	03/06/2017	10:43	-132.245	44.023	0	740.80	0	3.8810	0	34.3290	4	27.270	0	733.542	0	12.6	4	4.0	4	-1E+10	1	-1E+10	1	-1E+10	1	-1E+10	1	-1E+10	1	-1E+10	1
4901784	61	C	03/06/2017	10:43	-132.245	44.023	0	745.10	0	3.8690	0	34.3330	4	27.275	0	737.792	0	12.6	4	4.0	4	-1E+10	1	-1E+10	1	-1E+10	1	-1E+10	1	-1E+10	1	-1E+10	1
4901784	61	C	03/06/2017	10:43	-132.245	44.023	0	749.40	0	3.8680	0	34.3330	4	27.275	0	742.042	0	12.6	4	4.0	4	-1E+10	1	-1E+10	1	-1E+10	1	-1E+10	1	-1E+10	1	-1E+10	1
4901784	61	C	03/06/2017	10:43	-132.245	44.023	0	754.50	0	3.8670	0	34.3330	4	27.275	0	747.083	0	12.5	4	3.9	4	-1E+10	1	-1E+10	1	-1E+10	1	-1E+10	1	-1E+10	1	-1E+10	1
4901784	61	C	03/06/2017	10:43	-132.245	44.023	0	759.80	0	3.8560	0	34.3360	4	27.278	0	752.321	0	12.4	4	3.9	4	-1E+10	1	-1E+10	1	-1E+10	1	-1E+10	1	-1E+10	1	-1E+10	1
4901784	61	C	03/06/2017	10:43	-132.245	44.023	0	765.00	0	3.8410	0	34.3390	4	27.282	0	757.461	0	12.4	4	3.9	4	-1E+10	1	-1E+10	1	-1E+10	1	-1E+10	1	-1E+10	1	-1E+10	1
4901784	61	C	03/06/2017	10:43	-132.245	44.023	0	770.20	0	3.8290	0	34.3410	4	27.285	0	762.600	0	12.3	4	3.9	4	-1E+10	1	-1E+10	1	-1E+10	1	-1E+10	1	-1E+10	1	-1E+10	1
4901784	61	C	03/06/2017	10:43	-132.245	44.023	0	775.50	0	3.8240	0	34.3420	4	27.286	0	767.838	0	12.3	4	3.9	4	-1E+10	1	-1E+10	1	-1E+10	1	-1E+10	1	-1E+10	1	-1E+10	1
4901784	61	C	03/06/2017	10:43	-132.245	44.023	0	779.90	0	3.8100	0	34.3450	4	27.290	0	772.187	0	12.2	4	3.9	4	-1E+10	1	-1E+10	1	-1E+10	1	-1E+10	1	-1E+10	1	-1E+10	1
4901784	61	C	03/06/2017	10:43	-132.245	44.023	0	784.30	0	3.7990	0	34.3460	4	27.292	0	776.535	0	12.2	4	3.8	4	-1E+10	1	-1E+10	1	-1E+10	1	-1E+10	1	-1E+10	1	-1E+10	1
4901784	61	C	03/06/2017	10:43	-132.245	44.023	0	789.40	0	3.7880	0	34.3480	4	27.295	0	781.575	0	12.2	4	3.8	4	-1E+10	1	-1E+10	1	-1E+10	1	-1E+10	1	-1E+10	1	-1E+10	1
4901784	61	C	03/06/2017	10:43	-132.245	44.023	0	794.50	0	3.7790	0	34.3500	4	27.297	0	786.615	0	12.1	4	3.8	4	-1E+10	1	-1E+10	1	-1E+10	1	-1E+10	1	-1E+10	1	-1E+10	1
4901784	61	C	03/06/2017	10:43	-132.245	44.023	0	799.70	0	3.7680	0	34.3540	4	27.302	0	791.753	0	12.1	4	3.8	4	-1E+10	1	-1E+10	1	-1E+10	1	-1E+10	1	-1E+10	1	-1E+10	1
4901784	61	C	03/06/2017	10:43	-132.245	44.023	0	805.00	0	3.7570	0	34.3550	4	27.304	0	796.990	0	12.0	4	3.8	4	-1E+10	1	-1E+10	1	-1E+10	1	-1E+10	1	-1E+10	1	-1E+10	1
4901784	61	C	03/06/2017	10:43	-132.245	44.023	0	810.30	0	3.7420	0	34.3580	4	27.308	0	802.227	0	12.0	4	3.8	4	-1E+10	1	-1E+10	1	-1E+10	1	-1E+10	1	-1E+10	1	-1E+10	1
4901784	61	C	03/06/2017	10:43	-132.245	44.023	0	815.50	0	3.7250	0	34.3620	4	27.312	0	807.366	0	11.9	4	3.7	4	-1E+10	1	-1E+10	1	-1E+10	1	-1E+10	1	-1E+10	1	-1E+10	1
4901784	61	C	03/06/2017	10:43	-132.245	44.023	0	820.70	0	3.7180	0	34.3640	4	27.315	0	812.504	0	11.8	4	3.7	4	-1E+10	1	-1E+10	1	-1E+10	1	-1E+10	1	-1E+10	1	-1E+10	1
4901784	61	C	03/06/2017	10:43	-132.245	44.023	0	825.70	0	3.6900	0	34.3690	4	27.322	0	817.444	0	11.7	4	3.7	4	-1E+10	1	-1E+10	1	-1E+10	1	-1E+10	1	-1E+10	1	-1E+10	1
4901784	61	C	03/06/2017	10:43	-132.245	44.023	0	830.80	0	3.6830	0	34.3750	4	27.327	0	822.483	0	11.5	4	3.6	4	-1E+10	1	-1E+10	1	-1E+10	1	-1E+10	1	-1E+10	1	-1E+10	1
4901784	61	C	03/06/2017	10:43	-132.245	44.023	0	835.00	0	3.6770	0	34.3780	4	27.330	0	826.633	0	11.5	4	3.6	4	-1E+10	1	-1E+10	1	-1E+10	1	-1E+10	1	-1E+10	1	-1E+10	1
4901784	61	C	03/06/2017	10:43	-132.245	44.023	0	839.20	0	3.6730	0	34.3800	4	27.332	0	830.782	0	11.4	4	3.6	4	-1E+10	1	-1E+10	1	-1E+10	1	-1E+10	1	-1E+10	1	-1E+10	1
4901784	61	C	03/06/2017	10:43	-132.245	44.023	0	844.30	0	3.6650	0	34.3840	4	27.336	0	835.821	0	11.3	4	3.6	4	-1E+10	1	-1E+10	1	-1E+10	1	-1E+10	1	-1E+10	1	-1E+10	1
4901784	61	C	03/06/2017	10:43	-132.245	44.023	0	849.60	0	3.6490	0	34.3890	4	27.342	0	841.057	0	11.3	4	3.5	4	-1E+10	1	-1E+10	1	-1E+10	1	-1E+10	1	-1E+10	1	-1E+10	1
4901784	61	C	03/06/2017	10:43	-132.245	44.023	0	854.70	0	3.6450	0	34.3900	4	27.343	0	846.095	0	11.3	4	3.5	4	-1E+10	1	-1E+10	1	-1E+10	1	-1E+10	1	-1E+10	1	-1E+10	1
4901784	61	C	03/06/2017	10:43	-132.245	44.023	0	859.90	0	3.6330	0	34.3940	4	27.347	0	851.232	0	11.3	4	3.5	4	-1E+10	1	-1E+10	1	-1E+10	1	-1E+10	1	-1E+10	1	-1E+10	1
4901784	61	C	03/06/2017	10:43	-132.245	44.023	0	865.10	0	3.6180	0	34.3970	4	27.351	0	856.369	0	11.3	4	3.5	4	-1E+10	1	-1E+10	1	-1E+10	1	-1E+10	1	-1E+10	1	-1E+10	1
4901784	61	C	03/06/2017	10:43	-132.245	44.023	0	870.40	0	3.6030	0	34.4020	4	27.357	0	861.605	0	11.3	4	3.6	4	-1E+10	1	-1E+10	1	-1E+10	1	-1E+10	1	-1E+10	1	-1E+10	1
4901784	61	C	03/06/2017	10:43	-132.245	44.023	0	875.70	0	3.5850	0	34.4070	4	27.362	0	866.840	0	11.4	4	3.6	4	-1E+10	1	-1E+10	1	-1E+10	1	-1E+10	1	-1E+10	1	-1E+10	1
4901784	61	C	03/06/2017	10:43	-132.245	44.023	0	880.20	0	3.5760	0	34.4090	4	27.365	0	871.285	0	11.4	4	3.6	4	-1E+10	1	-1E+10	1	-1E+10	1	-1E+10	1	-1E+10	1	-1E+10	1
4901784	61	C	03/06/2017	10:43	-132.245	44.023	0	884.80	0	3.5680	0	34.4110	4	27.367	0	875.829	0	11.4	4	3.6	4	-1E+10	1	-1E+10	1	-1E+10	1	-1E+10	1	-1E+10	1	-1E+10	1
4901784	61	C	03/06/2017	10:43	-132.245	44.023	0	890.20	0	3.5480	0	34.4160	4	27.373	0	881.163	0	11.5	4	3.6	4	-1E+10	1	-1E+10	1	-1E+10	1	-1E+10	1	-1E+10	1	-1E+10	1
4901784	61	C	03/06/2017	10:43	-132.245	44.023	0	894.80	0	3.5350	0	34.4190	4	27.377	0	885.707	0	11.6	4	3.6	4	-1E+10	1	-1E+10	1	-1E+10	1	-1E+10	1	-1E+10	1	-1E+10	1
4901784	61	C	03/06/2017	10:43	-132.245	44.023	0	899.40	0	3.5170	0	34.4240	4	27.383	0	890.250	0	11.6	4	3.6	4	-1E+10	1	-1E+10	1	-1E+10	1	-1E+10	1	-1E+10	1	-1E+10	1
4901784	61	C	03/06/2017	10:43	-132.245	44.023	0	904.90	0	3.5020	0	34.4270	4	27.387	0	895.682	0	11.7	4	3.7	4	-1E+10	1	-1E+10	1	-1E+10	1	-1E+10	1	-1E+10	1	-1E+10	1
4901784	61	C	03/06/2017	10:43	-132.245	44.023	0	909.50	0	3.4870	0	34.4310	4	27.391	0	900.226	0	11.7	4	3.7	4	-1E+10	1	-1E+10	1	-1E+10	1	-1E+10	1	-1E+10	1	-1E+10	1
4901784	61	C	03/06/2017	10:43	-132.245	44.023	0	914.10	0	3.4770	0	34.4330	4	27.394	0	904.769	0	11.8	4	3.7	4	-1E+10	1	-1E+10	1	-1E+10	1	-1E+10	1	-1E+10	1	-1E+10	1
4901784	61	C	03/06/2017	10:43	-132.245	44.023	0	919.40	0	3.4670	0	34.4350	4	27.396	0	910.003	0	11.8	4	3.7	4	-1E+10	1	-1E+10	1	-1E+10	1	-1E+10	1	-1E+10	1	-1E+10	1
4901784	61	C	03/06/2017	10:43	-132.245	44.023	0	925.00	0	3.4590	0	34.4370	4	27.399	0	915.534	0	11.9	4	3.7	4	-1E+10	1	-1E+10	1	-1E+10	1	-1E+10	1	-1E+10	1	-1E+10	1
4901784	61	C	03/06/2017	10:43	-132.245	44.023	0	930.70	0	3.4510	0	34.4400	4	27.402	0	921.163	0	12.1	4	3.8	4	-1E+10	1	-1E+10	1	-1E+10	1	-1E+10	1	-1E+10	1	-1E+10	1
4901784	61	C	03/06/2017	10:43	-132.245	44.023	0	935.60	0	3.4420	0	34.4430	4	27.405	0	926.002	0	12.2	4	3.8	4	-1E+10	1	-1E+10	1	-1E+10	1	-1E+10	1	-1E+10	1	-1E+10	1
4901784	61	C	03/06/2017	10:43	-132.245	44.023	0	940.50	0	3.4310	0	34.4470	4	27.410	0	930.841	0	12.3	4	3.8	4	-1E+10	1	-1E+10	1	-1E+10	1	-1E+10	1	-1E+10	1	-1E+10	1
4901784	61	C	03/06/2017	10:43	-132.245	44.023	0	945.40	0	3.4220	0	34.4490	4	27.412	0	935.679	0	12.4	4	3.9	4	-1E+10	1	-1E+10	1	-1E+10	1	-1E+10	1	-1E+10	1	-1E+10	1
4901784	61	C	03/06/2017	10:43	-132.245	44.023	0	950.40	0	3.4150	0	34.4510	4	27.414	0	940.617	0	12.5	4	3.9	4	-1E+10	1	-1E+10	1	-1E+10	1	-1E+10	1	-1E+10	1	-1E+10	1
4901784	61	C	03/06/2017	10:43	-132.245	44.023	0	955.40	0	3.4010	0	34.4560	4	27.420	0	945.554	0	12.7	4	4.0	4	-1E+10	1	-1E+10	1	-1E+10	1	-1E+10	1	-1E+10	1	-1E+10	1
4901784	61	C	03/06/2017	10:43	-132.245	44.023	0	960.60	0	3.3880	0	34.4600	4	27.424	0	950.689	0	12.9	4	4.0	4	-1E+10	1	-1E+10	1	-1E+10	1	-1E+10	1	-1E+10	1	-1E+10	1
4901784	61	C	03/06/2017	10:43	-132.245	44.023	0	964.90	0	3.3800	0	34.4620	4	27.427	0	954.934	0	13.0	4	4.0	4	-1E+10	1	-1E+10	1	-1E+10	1	-1E+10	1	-1E+10	1	-1E+10	1
4901784	61	C	03/06/2017	10:43	-132.245	44.023	0	969.30	0	3.3770	0	34.4640	4	27.429	0	959.279	0	13.1	4	4.1	4	-1E+10	1	-1E+10	1	-1E+10	1	-1E+10	1	-1E+10	1	-1E+10	1
4901784	61	C	03/06/2017	10:43	-132.245	44.023	0	974.60	0	3.3750	0	34.4650	4	27.430	0	964.512	0	13.2	4	4.1	4	-1E+10	1	-1E+10	1	-1E+10	1	-1E+10	1	-1E+10	1	-1E+10	1
4901784	61	C	03/06/2017	10:43	-132.245	44.023	0	979.80	0	3.3700	0	34.4670	4	27.432	0	969.646	0	13.3	4	4.2	4	-1E+10	1	-1E+10	1	-1E+10	1	-1E+10	1	-1E+10	1	-1E+10	1
4901784	61	C	03/06/2017	10:43	-132.245	44.023	0	985.10	0	3.3640	0	34.4700	4	27.435	0	974.879	0	13.5	4	4.2	4	-1E+10	1	-1E+10	1	-1E+10	1	-1E+10	1	-1E+10	1	-1E+10	1
4901784	61	C	03/06/2017	10:43	-132.245	44.023	0	990.40	0	3.3600	0	34.4710	4	27.436	0	980.112	0	13.6	4	4.2	4	-1E+10	1	-1E+10	1	-1E+10	1	-1E+10	1	-1E+10	1	-1E+10	1
4901784	61	C	03/06/2017	10:43	-132.245	44.023	0	995.60	0	3.3540	0	34.4730	4	27.438	0	985.245	0	13.7	4	4.3	4	-1E+10	1	-1E+10	1	-1E+10	1	-1E+10	1	-1E+10	1	-1E+10	1
4901784	61	C	03/06/2017	10:43	-132.245	44.023	0	1000.00	0	3.3460	0	34.4750	4	27.440	0	989.589	0	13.9	4	4.3	4	-1E+10	1	-1E+10	1	-1E+10	1	-1E+10	1	-1E+10	1	-1E+10	1
4901784	61	C	03/06/2017	10:43	-132.245	44.023	0	1004.50	0	3.3380	0	34.4780	4	27.444	0	994.032	0	14.1	4	4.4	4	-1E+10	1	-1E+10	1	-1E+10	1	-1E+10	1	-1E+10	1	-1E+10	1
4901784	61	C	03/06/2017	10:43	-132.245	44.023	0	1009.80	0	3.3400	0	34.4790	4	27.444	0	999.264	0	14.3	4	4.5	4	-1E+10	1	-1E+10	1	-1E+10	1	-1E+10	1	-1E+10	1	-1E+10	1
4901784	61	C	03/06/2017	10:43	-132.245	44.023	0	1015.20	0	3.3350	0	34.4820	4	27.447	0	1004.594	0	14.5	4	4.5	4	-1E+10	1	-1E+10	1	-1E+10	1	-1E+10	1	-1E+10	1	-1E+10	1
4901784	61	C	03/06/2017	10:43	-132.245	44.023	0	1019.80	0	3.3300	0	34.4830	4	27.448	0	1009.135	0	14.7	4	4.6	4	-1E+10	1	-1E+10	1	-1E+10	1	-1E+10	1	-1E+10	1	-1E+10	1
4901784	61	C	03/06/2017	10:43	-132.245	44.023	0	1024.40	0	3.3230	0	34.4860	4	27.452	0	1013.676	0	14.9	4	4.6	4	-1E+10	1	-1E+10	1	-1E+10	1	-1E+10	1	-1E+10	1	-1E+10	1
4901784	61	C	03/06/2017	10:43	-132.245	44.023	0	1029.90	0	3.3100	0	34.4880	4	27.454	0	1019.105	0	15.2	4	4.7	4	-1E+10	1	-1E+10	1	-1E+10	1	-1E+10	1	-1E+10	1	-1E+10	1
4901784	61	C	03/06/2017	10:43	-132.245	44.023	0	1035.40	0	3.2990	0	34.4910	4	27.458	0	1024.534	0	15.6	4	4.8	4	-1E+10	1	-1E+10	1	-1E+10	1	-1E+10	1	-1E+10	1	-1E+10	1
4901784	61	C	03/06/2017	10:43	-132.245	44.023	0	1040.00	0	3.2970	0	34.4950	4	27.461	0	1029.075	0	15.8	4	4.9	4	-1E+10	1	-1E+10	1	-1E+10	1	-1E+10	1	-1E+10	1	-1E+10	1
4901784	61	C	03/06/2017	10:43	-132.245	44.023	0	1044.60	0	3.2970	0	34.4960	4	27.462	0	1033.615	0	16.0	4	5.0	4	-1E+10	1	-1E+10	1	-1E+10	1	-1E+10	1	-1E+10	1	-1E+10	1
4901784	61	C	03/06/2017	10:43	-132.245	44.023	0	1050.10	0	3.2970	0	34.4970	4	27.463	0	1039.043	0	16.3	4	5.1	4	-1E+10	1	-1E+10	1	-1E+10	1	-1E+10	1	-1E+10	1	-1E+10	1
4901784	61	C	03/06/2017	10:43	-132.245	44.023	0	1054.80	0	3.2990	0	34.4990	4	27.464	0	1043.682	0	16.7	4	5.2	4	-1E+10	1	-1E+10	1	-1E+10	1	-1E+10	1	-1E+10	1	-1E+10	1
4901784	61	C	03/06/2017	10:43	-132.245	44.023	0	1059.40	0	3.2970	0	34.5030	4	27.468	0	1048.222	0	17.0	4	5.3	4	-1E+10	1	-1E+10	1	-1E+10	1	-1E+10	1	-1E+10	1	-1E+10	1
4901784	61	C	03/06/2017	10:43	-132.245	44.023	0	1064.90	0	3.2950	0	34.5040	4	27.469	0	1053.650	0	17.2	4	5.3	4	-1E+10	1	-1E+10	1	-1E+10	1	-1E+10	1	-1E+10	1	-1E+10	1
4901784	61	C	03/06/2017	10:43	-132.245	44.023	0	1070.20	0	3.2870	0	34.5060	4	27.471	0	1058.881	0	17.3	4	5.4	4	-1E+10	1	-1E+10	1	-1E+10	1	-1E+10	1	-1E+10	1	-1E+10	1
4901784	61	C	03/06/2017	10:43	-132.245	44.023	0	1074.40	0	3.2800	0	34.5080	4	27.473	0	1063.026	0	17.5	4	5.5	4	-1E+10	1	-1E+10	1	-1E+10	1	-1E+10	1	-1E+10	1	-1E+10	1
4901784	61	C	03/06/2017	10:43	-132.245	44.023	0	1080.10	0	3.2770	0	34.5100	4	27.475	0	1068.651	0	17.9	4	5.6	4	-1E+10	1	-1E+10	1	-1E+10	1	-1E+10	1	-1E+10	1	-1E+10	1
4901784	61	C	03/06/2017	10:43	-132.245	44.023	0	1085.70	0	3.2820	0	34.5130	4	27.477	0	1074.177	0	18.3	4	5.7	4	-1E+10	1	-1E+10	1	-1E+10	1	-1E+10	1	-1E+10	1	-1E+10	1
4901784	61	C	03/06/2017	10:43	-132.245	44.023	0	1090.70	0	3.2840	0	34.5150	4	27.479	0	1079.112	0	18.5	4	5.8	4	-1E+10	1	-1E+10	1	-1E+10	1	-1E+10	1	-1E+10	1	-1E+10	1
4901784	61	C	03/06/2017	10:43	-132.245	44.023	0	1095.70	0	3.2700	0	34.5160	4	27.481	0	1084.045	0	18.6	4	5.8	4	-1E+10	1	-1E+10	1	-1E+10	1	-1E+10	1	-1E+10	1	-1E+10	1
4901784	61	C	03/06/2017	10:43	-132.245	44.023	0	1100.70	0	3.2560	0	34.5180	4	27.484	0	1088.979	0	18.7	4	5.8	4	-1E+10	1	-1E+10	1	-1E+10	1	-1E+10	1	-1E+10	1	-1E+10	1
4901784	61	C	03/06/2017	10:43	-132.245	44.023	0	1105.70	0	3.2470	0	34.5190	4	27.486	0	1093.913	0	18.7	4	5.8	4	-1E+10	1	-1E+10	1	-1E+10	1	-1E+10	1	-1E+10	1	-1E+10	1
4901784	61	C	03/06/2017	10:43	-132.245	44.023	0	1110.00	0	3.2370	0	34.5200	4	27.487	0	1098.156	0	18.8	4	5.8	4	-1E+10	1	-1E+10	1	-1E+10	1	-1E+10	1	-1E+10	1	-1E+10	1
4901784	61	C	03/06/2017	10:43	-132.245	44.023	0	1114.30	0	3.2290	0	34.5200	4	27.488	0	1102.399	0	18.8	4	5.9	4	-1E+10	1	-1E+10	1	-1E+10	1	-1E+10	1	-1E+10	1	-1E+10	1
4901784	61	C	03/06/2017	10:43	-132.245	44.023	0	1119.40	0	3.2230	0	34.5220	4	27.490	0	1107.431	0	19.1	4	5.9	4	-1E+10	1	-1E+10	1	-1E+10	1	-1E+10	1	-1E+10	1	-1E+10	1
4901784	61	C	03/06/2017	10:43	-132.245	44.023	0	1124.60	0	3.2150	0	34.5240	4	27.493	0	1112.562	0	19.2	4	6.0	4	-1E+10	1	-1E+10	1	-1E+10	1	-1E+10	1	-1E+10	1	-1E+10	1
4901784	61	C	03/06/2017	10:43	-132.245	44.023	0	1129.80	0	3.2090	0	34.5240	4	27.493	0	1117.692	0	19.2	4	6.0	4	-1E+10	1	-1E+10	1	-1E+10	1	-1E+10	1	-1E+10	1	-1E+10	1
4901784	61	C	03/06/2017	10:43	-132.245	44.023	0	1135.00	0	3.2060	0	34.5250	4	27.494	0	1122.822	0	19.4	4	6.0	4	-1E+10	1	-1E+10	1	-1E+10	1	-1E+10	1	-1E+10	1	-1E+10	1
4901784	61	C	03/06/2017	10:43	-132.245	44.023	0	1140.10	0	3.1950	0	34.5260	4	27.496	0	1127.854	0	19.5	4	6.1	4	-1E+10	1	-1E+10	1	-1E+10	1	-1E+10	1	-1E+10	1	-1E+10	1
4901784	61	C	03/06/2017	10:43	-132.245	44.023	0	1145.30	0	3.1880	0	34.5280	4	27.498	0	1132.984	0	19.7	4	6.1	4	-1E+10	1	-1E+10	1	-1E+10	1	-1E+10	1	-1E+10	1	-1E+10	1
4901784	61	C	03/06/2017	10:43	-132.245	44.023	0	1150.50	0	3.1880	0	34.5290	4	27.499	0	1138.114	0	19.7	4	6.1	4	-1E+10	1	-1E+10	1	-1E+10	1	-1E+10	1	-1E+10	1	-1E+10	1
4901784	61	C	03/06/2017	10:43	-132.245	44.023	0	1154.90	0	3.1770	0	34.5300	4	27.501	0	1142.455	0	19.7	4	6.1	4	-1E+10	1	-1E+10	1	-1E+10	1	-1E+10	1	-1E+10	1	-1E+10	1
4901784	61	C	03/06/2017	10:43	-132.245	44.023	0	1159.30	0	3.1630	0	34.5300	4	27.502	0	1146.796	0	19.6	4	6.1	4	-1E+10	1	-1E+10	1	-1E+10	1	-1E+10	1	-1E+10	1	-1E+10	1
4901784	61	C	03/06/2017	10:43	-132.245	44.023	0	1164.50	0	3.1530	0	34.5300	4	27.503	0	1151.925	0	19.7	4	6.1	4	-1E+10	1	-1E+10	1	-1E+10	1	-1E+10	1	-1E+10	1	-1E+10	1
4901784	61	C	03/06/2017	10:43	-132.245	44.023	0	1169.80	0	3.1450	0	34.5300	4	27.504	0	1157.153	0	19.8	4	6.2	4	-1E+10	1	-1E+10	1	-1E+10	1	-1E+10	1	-1E+10	1	-1E+10	1
4901784	61	C	03/06/2017	10:43	-132.245	44.023	0	1175.10	0	3.1420	0	34.5330	4	27.507	0	1162.381	0	20.4	4	6.3	4	-1E+10	1	-1E+10	1	-1E+10	1	-1E+10	1	-1E+10	1	-1E+10	1
4901784	61	C	03/06/2017	10:43	-132.245	44.023	0	1180.30	0	3.1510	0	34.5360	4	27.509	0	1167.511	0	20.6	4	6.4	4	-1E+10	1	-1E+10	1	-1E+10	1	-1E+10	1	-1E+10	1	-1E+10	1
4901784	61	C	03/06/2017	10:43	-132.245	44.023	0	1185.60	0	3.1290	0	34.5370	4	27.511	0	1172.738	0	20.7	4	6.4	4	-1E+10	1	-1E+10	1	-1E+10	1	-1E+10	1	-1E+10	1	-1E+10	1
4901784	61	C	03/06/2017	10:43	-132.245	44.023	0	1190.00	0	3.1140	0	34.5370	4	27.513	0	1177.078	0	20.8	4	6.5	4	-1E+10	1	-1E+10	1	-1E+10	1	-1E+10	1	-1E+10	1	-1E+10	1
4901784	61	C	03/06/2017	10:43	-132.245	44.023	0	1194.60	0	3.1110	0	34.5390	4	27.515	0	1181.616	0	21.2	4	6.6	4	-1E+10	1	-1E+10	1	-1E+10	1	-1E+10	1	-1E+10	1	-1E+10	1
4901784	61	C	03/06/2017	10:43	-132.245	44.023	0	1200.00	0	3.1140	0	34.5420	4	27.517	0	1186.942	0	21.4	4	6.6	4	-1E+10	1	-1E+10	1	-1E+10	1	-1E+10	1	-1E+10	1	-1E+10	1
4901784	61	C	03/06/2017	10:43	-132.245	44.023	0	1205.50	0	3.0840	0	34.5430	4	27.520	0	1192.366	0	21.5	4	6.7	4	-1E+10	1	-1E+10	1	-1E+10	1	-1E+10	1	-1E+10	1	-1E+10	1
4901784	61	C	03/06/2017	10:43	-132.245	44.023	0	1210.10	0	3.0880	0	34.5450	4	27.522	0	1196.903	0	21.8	4	6.7	4	-1E+10	1	-1E+10	1	-1E+10	1	-1E+10	1	-1E+10	1	-1E+10	1
4901784	61	C	03/06/2017	10:43	-132.245	44.023	0	1214.70	0	3.0760	0	34.5460	4	27.524	0	1201.440	0	21.7	4	6.7	4	-1E+10	1	-1E+10	1	-1E+10	1	-1E+10	1	-1E+10	1	-1E+10	1
4901784	61	C	03/06/2017	10:43	-132.245	44.023	0	1220.10	0	3.0460	0	34.5450	4	27.526	0	1206.765	0	21.8	4	6.8	4	-1E+10	1	-1E+10	1	-1E+10	1	-1E+10	1	-1E+10	1	-1E+10	1
4901784	61	C	03/06/2017	10:43	-132.245	44.023	0	1224.80	0	3.0490	0	34.5500	4	27.529	0	1211.400	0	22.4	4	6.9	4	-1E+10	1	-1E+10	1	-1E+10	1	-1E+10	1	-1E+10	1	-1E+10	1
4901784	61	C	03/06/2017	10:43	-132.245	44.023	0	1229.30	0	3.0550	0	34.5510	4	27.530	0	1215.838	0	22.6	4	7.0	4	-1E+10	1	-1E+10	1	-1E+10	1	-1E+10	1	-1E+10	1	-1E+10	1
4901784	61	C	03/06/2017	10:43	-132.245	44.023	0	1234.50	0	3.0440	0	34.5510	4	27.531	0	1220.966	0	22.5	4	7.0	4	-1E+10	1	-1E+10	1	-1E+10	1	-1E+10	1	-1E+10	1	-1E+10	1
4901784	61	C	03/06/2017	10:43	-132.245	44.023	0	1239.40	0	3.0230	0	34.5510	4	27.533	0	1225.798	0	22.6	4	7.0	4	-1E+10	1	-1E+10	1	-1E+10	1	-1E+10	1	-1E+10	1	-1E+10	1
4901784	61	C	03/06/2017	10:43	-132.245	44.023	0	1245.00	0	3.0150	0	34.5530	4	27.535	0	1231.320	0	22.9	4	7.1	4	-1E+10	1	-1E+10	1	-1E+10	1	-1E+10	1	-1E+10	1	-1E+10	1
4901784	61	C	03/06/2017	10:43	-132.245	44.023	0	1250.80	0	3.0080	0	34.5550	4	27.537	0	1237.040	0	23.3	4	7.2	4	-1E+10	1	-1E+10	1	-1E+10	1	-1E+10	1	-1E+10	1	-1E+10	1
4901784	61	C	03/06/2017	10:43	-132.245	44.023	0	1255.60	0	3.0000	0	34.5580	4	27.540	0	1241.773	0	23.6	4	7.3	4	-1E+10	1	-1E+10	1	-1E+10	1	-1E+10	1	-1E+10	1	-1E+10	1
4901784	61	C	03/06/2017	10:43	-132.245	44.023	0	1260.60	0	2.9900	0	34.5590	4	27.542	0	1246.703	0	23.7	4	7.3	4	-1E+10	1	-1E+10	1	-1E+10	1	-1E+10	1	-1E+10	1	-1E+10	1
4901784	61	C	03/06/2017	10:43	-132.245	44.023	0	1264.90	0	2.9790	0	34.5590	4	27.543	0	1250.943	0	23.8	4	7.3	4	-1E+10	1	-1E+10	1	-1E+10	1	-1E+10	1	-1E+10	1	-1E+10	1
4901784	61	C	03/06/2017	10:43	-132.245	44.023	0	1269.20	0	2.9730	0	34.5600	4	27.544	0	1255.182	0	23.9	4	7.4	4	-1E+10	1	-1E+10	1	-1E+10	1	-1E+10	1	-1E+10	1	-1E+10	1
4901784	61	C	03/06/2017	10:43	-132.245	44.023	0	1274.40	0	2.9650	0	34.5600	4	27.545	0	1260.309	0	24.0	4	7.4	4	-1E+10	1	-1E+10	1	-1E+10	1	-1E+10	1	-1E+10	1	-1E+10	1
4901784	61	C	03/06/2017	10:43	-132.245	44.023	0	1279.60	0	2.9560	0	34.5610	4	27.547	0	1265.436	0	24.2	4	7.5	4	-1E+10	1	-1E+10	1	-1E+10	1	-1E+10	1	-1E+10	1	-1E+10	1
4901784	61	C	03/06/2017	10:43	-132.245	44.023	0	1284.80	0	2.9450	0	34.5630	4	27.549	0	1270.563	0	24.4	4	7.5	4	-1E+10	1	-1E+10	1	-1E+10	1	-1E+10	1	-1E+10	1	-1E+10	1
4901784	61	C	03/06/2017	10:43	-132.245	44.023	0	1290.10	0	2.9380	0	34.5640	4	27.551	0	1275.788	0	24.5	4	7.6	4	-1E+10	1	-1E+10	1	-1E+10	1	-1E+10	1	-1E+10	1	-1E+10	1
4901784	61	C	03/06/2017	10:43	-132.245	44.023	0	1295.30	0	2.9350	0	34.5640	4	27.551	0	1280.915	0	24.6	4	7.6	4	-1E+10	1	-1E+10	1	-1E+10	1	-1E+10	1	-1E+10	1	-1E+10	1
4901784	61	C	03/06/2017	10:43	-132.245	44.023	0	1299.80	0	2.9280	0	34.5650	4	27.553	0	1285.351	0	24.6	4	7.6	4	-1E+10	1	-1E+10	1	-1E+10	1	-1E+10	1	-1E+10	1	-1E+10	1
4901784	61	C	03/06/2017	10:43	-132.245	44.023	0	1304.30	0	2.9170	0	34.5650	4	27.554	0	1289.787	0	24.6	4	7.6	4	-1E+10	1	-1E+10	1	-1E+10	1	-1E+10	1	-1E+10	1	-1E+10	1
4901784	61	C	03/06/2017	10:43	-132.245	44.023	0	1309.70	0	2.8900	0	34.5640	4	27.555	0	1295.110	0	24.5	4	7.6	4	-1E+10	1	-1E+10	1	-1E+10	1	-1E+10	1	-1E+10	1	-1E+10	1
4901784	61	C	03/06/2017	10:43	-132.245	44.023	0	1315.20	0	2.8760	0	34.5650	4	27.557	0	1300.532	0	24.6	4	7.6	4	-1E+10	1	-1E+10	1	-1E+10	1	-1E+10	1	-1E+10	1	-1E+10	1
4901784	61	C	03/06/2017	10:43	-132.245	44.023	0	1320.50	0	2.8580	0	34.5660	4	27.560	0	1305.757	0	24.7	4	7.6	4	-1E+10	1	-1E+10	1	-1E+10	1	-1E+10	1	-1E+10	1	-1E+10	1
4901784	61	C	03/06/2017	10:43	-132.245	44.023	0	1324.90	0	2.8500	0	34.5670	4	27.561	0	1310.094	0	24.7	4	7.6	4	-1E+10	1	-1E+10	1	-1E+10	1	-1E+10	1	-1E+10	1	-1E+10	1
4901784	61	C	03/06/2017	10:43	-132.245	44.023	0	1330.00	0	2.8470	0	34.5670	4	27.562	0	1315.121	0	24.7	4	7.6	4	-1E+10	1	-1E+10	1	-1E+10	1	-1E+10	1	-1E+10	1	-1E+10	1
4901784	61	C	03/06/2017	10:43	-132.245	44.023	0	1334.90	0	2.8450	0	34.5670	4	27.562	0	1319.951	0	24.8	4	7.6	4	-1E+10	1	-1E+10	1	-1E+10	1	-1E+10	1	-1E+10	1	-1E+10	1
4901784	61	C	03/06/2017	10:43	-132.245	44.023	0	1339.50	0	2.8440	0	34.5670	4	27.562	0	1324.485	0	24.8	4	7.6	4	-1E+10	1	-1E+10	1	-1E+10	1	-1E+10	1	-1E+10	1	-1E+10	1
4901784	61	C	03/06/2017	10:43	-132.245	44.023	0	1344.90	0	2.8340	0	34.5670	4	27.563	0	1329.807	0	25.0	4	7.7	4	-1E+10	1	-1E+10	1	-1E+10	1	-1E+10	1	-1E+10	1	-1E+10	1
4901784	61	C	03/06/2017	10:43	-132.245	44.023	0	1350.50	0	2.8250	0	34.5680	4	27.564	0	1335.327	0	25.2	4	7.8	4	-1E+10	1	-1E+10	1	-1E+10	1	-1E+10	1	-1E+10	1	-1E+10	1
4901784	61	C	03/06/2017	10:43	-132.245	44.023	0	1355.30	0	2.8150	0	34.5690	4	27.566	0	1340.058	0	25.3	4	7.8	4	-1E+10	1	-1E+10	1	-1E+10	1	-1E+10	1	-1E+10	1	-1E+10	1
4901784	61	C	03/06/2017	10:43	-132.245	44.023	0	1360.50	0	2.8100	0	34.5690	4	27.567	0	1345.183	0	25.4	4	7.8	4	-1E+10	1	-1E+10	1	-1E+10	1	-1E+10	1	-1E+10	1	-1E+10	1
4901784	61	C	03/06/2017	10:43	-132.245	44.023	0	1365.70	0	2.7970	0	34.5700	4	27.569	0	1350.307	0	25.6	4	7.9	4	-1E+10	1	-1E+10	1	-1E+10	1	-1E+10	1	-1E+10	1	-1E+10	1
4901784	61	C	03/06/2017	10:43	-132.245	44.023	0	1370.10	0	2.7890	0	34.5710	4	27.570	0	1354.644	0	25.7	4	7.9	4	-1E+10	1	-1E+10	1	-1E+10	1	-1E+10	1	-1E+10	1	-1E+10	1
4901784	61	C	03/06/2017	10:43	-132.245	44.023	0	1374.40	0	2.7720	0	34.5720	4	27.572	0	1358.881	0	25.7	4	7.9	4	-1E+10	1	-1E+10	1	-1E+10	1	-1E+10	1	-1E+10	1	-1E+10	1
4901784	61	C	03/06/2017	10:43	-132.245	44.023	0	1379.60	0	2.7690	0	34.5720	4	27.573	0	1364.006	0	25.7	4	7.9	4	-1E+10	1	-1E+10	1	-1E+10	1	-1E+10	1	-1E+10	1	-1E+10	1
4901784	61	C	03/06/2017	10:43	-132.245	44.023	0	1384.90	0	2.7690	0	34.5710	4	27.572	0	1369.229	0	25.7	4	7.9	4	-1E+10	1	-1E+10	1	-1E+10	1	-1E+10	1	-1E+10	1	-1E+10	1
4901784	61	C	03/06/2017	10:43	-132.245	44.023	0	1390.10	0	2.7580	0	34.5700	4	27.572	0	1374.353	0	25.7	4	7.9	4	-1E+10	1	-1E+10	1	-1E+10	1	-1E+10	1	-1E+10	1	-1E+10	1
4901784	61	C	03/06/2017	10:43	-132.245	44.023	0	1395.40	0	2.7380	0	34.5710	4	27.575	0	1379.576	0	25.9	4	7.9	4	-1E+10	1	-1E+10	1	-1E+10	1	-1E+10	1	-1E+10	1	-1E+10	1
4901784	61	C	03/06/2017	10:43	-132.245	44.023	0	1400.70	0	2.7240	0	34.5720	4	27.577	0	1384.798	0	26.0	4	8.0	4	-1E+10	1	-1E+10	1	-1E+10	1	-1E+10	1	-1E+10	1	-1E+10	1
4901784	61	C	03/06/2017	10:43	-132.245	44.023	0	1405.10	0	2.7160	0	34.5730	4	27.578	0	1389.134	0	26.1	4	8.0	4	-1E+10	1	-1E+10	1	-1E+10	1	-1E+10	1	-1E+10	1	-1E+10	1
4901784	61	C	03/06/2017	10:43	-132.245	44.023	0	1409.50	0	2.7070	0	34.5730	4	27.579	0	1393.469	0	26.1	4	8.0	4	-1E+10	1	-1E+10	1	-1E+10	1	-1E+10	1	-1E+10	1	-1E+10	1
4901784	61	C	03/06/2017	10:43	-132.245	44.023	0	1414.90	0	2.6980	0	34.5740	4	27.581	0	1398.790	0	26.1	4	8.0	4	-1E+10	1	-1E+10	1	-1E+10	1	-1E+10	1	-1E+10	1	-1E+10	1
4901784	61	C	03/06/2017	10:43	-132.245	44.023	0	1420.40	0	2.6900	0	34.5730	4	27.581	0	1404.209	0	25.9	4	8.0	4	-1E+10	1	-1E+10	1	-1E+10	1	-1E+10	1	-1E+10	1	-1E+10	1
4901784	61	C	03/06/2017	10:43	-132.245	44.023	0	1425.00	0	2.6740	0	34.5730	4	27.582	0	1408.741	0	25.9	4	7.9	4	-1E+10	1	-1E+10	1	-1E+10	1	-1E+10	1	-1E+10	1	-1E+10	1
4901784	61	C	03/06/2017	10:43	-132.245	44.023	0	1429.60	0	2.6650	0	34.5720	4	27.582	0	1413.273	0	25.9	4	7.9	4	-1E+10	1	-1E+10	1	-1E+10	1	-1E+10	1	-1E+10	1	-1E+10	1
4901784	61	C	03/06/2017	10:43	-132.245	44.023	0	1435.00	0	2.6500	0	34.5730	4	27.584	0	1418.593	0	26.0	4	8.0	4	-1E+10	1	-1E+10	1	-1E+10	1	-1E+10	1	-1E+10	1	-1E+10	1
4901784	61	C	03/06/2017	10:43	-132.245	44.023	0	1440.40	0	2.6390	0	34.5730	4	27.585	0	1423.914	0	26.2	4	8.0	4	-1E+10	1	-1E+10	1	-1E+10	1	-1E+10	1	-1E+10	1	-1E+10	1
4901784	61	C	03/06/2017	10:43	-132.245	44.023	0	1444.90	0	2.6330	0	34.5740	4	27.586	0	1428.347	0	26.3	4	8.0	4	-1E+10	1	-1E+10	1	-1E+10	1	-1E+10	1	-1E+10	1	-1E+10	1
4901784	61	C	03/06/2017	10:43	-132.245	44.023	0	1449.40	0	2.6250	0	34.5740	4	27.587	0	1432.780	0	26.5	4	8.1	4	-1E+10	1	-1E+10	1	-1E+10	1	-1E+10	1	-1E+10	1	-1E+10	1
4901784	61	C	03/06/2017	10:43	-132.245	44.023	0	1454.80	0	2.6190	0	34.5750	4	27.588	0	1438.100	0	26.7	4	8.2	4	-1E+10	1	-1E+10	1	-1E+10	1	-1E+10	1	-1E+10	1	-1E+10	1
4901784	61	C	03/06/2017	10:43	-132.245	44.023	0	1460.20	0	2.6100	0	34.5760	4	27.590	0	1443.419	0	26.8	4	8.2	4	-1E+10	1	-1E+10	1	-1E+10	1	-1E+10	1	-1E+10	1	-1E+10	1
4901784	61	C	03/06/2017	10:43	-132.245	44.023	0	1464.80	0	2.5940	0	34.5770	4	27.592	0	1447.951	0	26.9	4	8.2	4	-1E+10	1	-1E+10	1	-1E+10	1	-1E+10	1	-1E+10	1	-1E+10	1
4901784	61	C	03/06/2017	10:43	-132.245	44.023	0	1469.50	0	2.5790	0	34.5770	4	27.594	0	1452.580	0	27.0	4	8.3	4	-1E+10	1	-1E+10	1	-1E+10	1	-1E+10	1	-1E+10	1	-1E+10	1
4901784	61	C	03/06/2017	10:43	-132.245	44.023	0	1474.90	0	2.5710	0	34.5780	4	27.595	0	1457.900	0	27.2	4	8.3	4	-1E+10	1	-1E+10	1	-1E+10	1	-1E+10	1	-1E+10	1	-1E+10	1
4901784	61	C	03/06/2017	10:43	-132.245	44.023	0	1479.90	0	2.5640	0	34.5780	4	27.596	0	1462.825	0	27.3	4	8.4	4	-1E+10	1	-1E+10	1	-1E+10	1	-1E+10	1	-1E+10	1	-1E+10	1
4901784	61	C	03/06/2017	10:43	-132.245	44.023	0	1484.90	0	2.5560	0	34.5780	4	27.596	0	1467.750	0	27.5	4	8.4	4	-1E+10	1	-1E+10	1	-1E+10	1	-1E+10	1	-1E+10	1	-1E+10	1
4901784	61	C	03/06/2017	10:43	-132.245	44.023	0	1489.90	0	2.5450	0	34.5790	4	27.598	0	1472.674	0	27.7	4	8.5	4	-1E+10	1	-1E+10	1	-1E+10	1	-1E+10	1	-1E+10	1	-1E+10	1
4901784	61	C	03/06/2017	10:43	-132.245	44.023	0	1494.80	0	2.5300	0	34.5800	4	27.600	0	1477.501	0	27.9	4	8.5	4	-1E+10	1	-1E+10	1	-1E+10	1	-1E+10	1	-1E+10	1	-1E+10	1
4901784	61	C	03/06/2017	10:43	-132.245	44.023	0	1499.80	0	2.5220	0	34.5810	4	27.602	0	1482.425	0	28.1	4	8.6	4	-1E+10	1	-1E+10	1	-1E+10	1	-1E+10	1	-1E+10	1	-1E+10	1
4901784	61	C	03/06/2017	10:43	-132.245	44.023	0	1504.90	0	2.5130	0	34.5820	4	27.603	0	1487.448	0	28.3	4	8.7	4	-1E+10	1	-1E+10	1	-1E+10	1	-1E+10	1	-1E+10	1	-1E+10	1
4901784	61	C	03/06/2017	10:43	-132.245	44.023	0	1509.90	0	2.5040	0	34.5820	4	27.604	0	1492.373	0	28.4	4	8.7	4	-1E+10	1	-1E+10	1	-1E+10	1	-1E+10	1	-1E+10	1	-1E+10	1
4901784	61	C	03/06/2017	10:43	-132.245	44.023	0	1514.90	0	2.4900	0	34.5830	4	27.606	0	1497.297	0	28.6	4	8.7	4	-1E+10	1	-1E+10	1	-1E+10	1	-1E+10	1	-1E+10	1	-1E+10	1
4901784	61	C	03/06/2017	10:43	-132.245	44.023	0	1519.90	0	2.4790	0	34.5840	4	27.608	0	1502.221	0	29.0	4	8.9	4	-1E+10	1	-1E+10	1	-1E+10	1	-1E+10	1	-1E+10	1	-1E+10	1
4901784	61	C	03/06/2017	10:43	-132.245	44.023	0	1524.90	0	2.4650	0	34.5850	4	27.610	0	1507.145	0	29.3	4	8.9	4	-1E+10	1	-1E+10	1	-1E+10	1	-1E+10	1	-1E+10	1	-1E+10	1
4901784	61	C	03/06/2017	10:43	-132.245	44.023	0	1530.00	0	2.4570	0	34.5860	4	27.611	0	1512.167	0	29.6	4	9.0	4	-1E+10	1	-1E+10	1	-1E+10	1	-1E+10	1	-1E+10	1	-1E+10	1
4901784	61	C	03/06/2017	10:43	-132.245	44.023	0	1535.00	0	2.4450	0	34.5870	4	27.613	0	1517.091	0	30.0	4	9.1	4	-1E+10	1	-1E+10	1	-1E+10	1	-1E+10	1	-1E+10	1	-1E+10	1
4901784	61	C	03/06/2017	10:43	-132.245	44.023	0	1540.00	0	2.4350	0	34.5880	4	27.615	0	1522.015	0	30.2	4	9.2	4	-1E+10	1	-1E+10	1	-1E+10	1	-1E+10	1	-1E+10	1	-1E+10	1
4901784	61	C	03/06/2017	10:43	-132.245	44.023	0	1545.10	0	2.4270	0	34.5890	4	27.616	0	1527.037	0	30.5	4	9.3	4	-1E+10	1	-1E+10	1	-1E+10	1	-1E+10	1	-1E+10	1	-1E+10	1
4901784	61	C	03/06/2017	10:43	-132.245	44.023	0	1550.10	0	2.4170	0	34.5900	4	27.618	0	1531.960	0	30.9	4	9.4	4	-1E+10	1	-1E+10	1	-1E+10	1	-1E+10	1	-1E+10	1	-1E+10	1
4901784	61	C	03/06/2017	10:43	-132.245	44.023	0	1555.10	0	2.4060	0	34.5910	4	27.620	0	1536.884	0	31.2	4	9.5	4	-1E+10	1	-1E+10	1	-1E+10	1	-1E+10	1	-1E+10	1	-1E+10	1
4901784	61	C	03/06/2017	10:43	-132.245	44.023	0	1560.10	0	2.3910	0	34.5930	4	27.623	0	1541.807	0	31.5	4	9.6	4	-1E+10	1	-1E+10	1	-1E+10	1	-1E+10	1	-1E+10	1	-1E+10	1
4901784	61	C	03/06/2017	10:43	-132.245	44.023	0	1565.30	0	2.3880	0	34.5930	4	27.623	0	1546.927	0	31.8	4	9.7	4	-1E+10	1	-1E+10	1	-1E+10	1	-1E+10	1	-1E+10	1	-1E+10	1
4901784	61	C	03/06/2017	10:43	-132.245	44.023	0	1570.40	0	2.3810	0	34.5940	4	27.624	0	1551.948	0	32.1	4	9.8	4	-1E+10	1	-1E+10	1	-1E+10	1	-1E+10	1	-1E+10	1	-1E+10	1
4901784	61	C	03/06/2017	10:43	-132.245	44.023	0	1575.60	0	2.3700	0	34.5960	4	27.627	0	1557.068	0	32.6	4	9.9	4	-1E+10	1	-1E+10	1	-1E+10	1	-1E+10	1	-1E+10	1	-1E+10	1
4901784	61	C	03/06/2017	10:43	-132.245	44.023	0	1579.90	0	2.3580	0	34.5970	4	27.629	0	1561.302	0	33.0	4	10.1	4	-1E+10	1	-1E+10	1	-1E+10	1	-1E+10	1	-1E+10	1	-1E+10	1
4901784	61	C	03/06/2017	10:43	-132.245	44.023	0	1584.20	0	2.3480	0	34.5980	4	27.630	0	1565.535	0	33.3	4	10.1	4	-1E+10	1	-1E+10	1	-1E+10	1	-1E+10	1	-1E+10	1	-1E+10	1
4901784	61	C	03/06/2017	10:43	-132.245	44.023	0	1589.40	0	2.3400	0	34.5990	4	27.632	0	1570.655	0	33.6	4	10.2	4	-1E+10	1	-1E+10	1	-1E+10	1	-1E+10	1	-1E+10	1	-1E+10	1
4901784	61	C	03/06/2017	10:43	-132.245	44.023	0	1594.60	0	2.3340	0	34.6000	4	27.633	0	1575.774	0	33.9	4	10.3	4	-1E+10	1	-1E+10	1	-1E+10	1	-1E+10	1	-1E+10	1	-1E+10	1
4901784	61	C	03/06/2017	10:43	-132.245	44.023	0	1599.90	0	2.3300	0	34.6010	4	27.634	0	1580.992	0	34.0	4	10.3	4	-1E+10	1	-1E+10	1	-1E+10	1	-1E+10	1	-1E+10	1	-1E+10	1
4901784	61	C	03/06/2017	10:43	-132.245	44.023	0	1605.20	0	2.3290	0	34.6020	4	27.635	0	1586.209	0	34.3	4	10.4	4	-1E+10	1	-1E+10	1	-1E+10	1	-1E+10	1	-1E+10	1	-1E+10	1
4901784	61	C	03/06/2017	10:43	-132.245	44.023	0	1610.60	0	2.3230	0	34.6020	4	27.636	0	1591.525	0	34.7	4	10.5	4	-1E+10	1	-1E+10	1	-1E+10	1	-1E+10	1	-1E+10	1	-1E+10	1
4901784	61	C	03/06/2017	10:43	-132.245	44.023	0	1615.10	0	2.3120	0	34.6040	4	27.638	0	1595.955	0	35.0	4	10.6	4	-1E+10	1	-1E+10	1	-1E+10	1	-1E+10	1	-1E+10	1	-1E+10	1
4901784	61	C	03/06/2017	10:43	-132.245	44.023	0	1619.60	0	2.3070	0	34.6040	4	27.639	0	1600.384	0	35.3	4	10.7	4	-1E+10	1	-1E+10	1	-1E+10	1	-1E+10	1	-1E+10	1	-1E+10	1
4901784	61	C	03/06/2017	10:43	-132.245	44.023	0	1625.00	0	2.2990	0	34.6050	4	27.640	0	1605.700	0	35.6	4	10.8	4	-1E+10	1	-1E+10	1	-1E+10	1	-1E+10	1	-1E+10	1	-1E+10	1
4901784	61	C	03/06/2017	10:43	-132.245	44.023	0	1630.50	0	2.2930	0	34.6060	4	27.641	0	1611.114	0	36.1	4	11.0	4	-1E+10	1	-1E+10	1	-1E+10	1	-1E+10	1	-1E+10	1	-1E+10	1
4901784	61	C	03/06/2017	10:43	-132.245	44.023	0	1634.60	0	2.2810	0	34.6070	4	27.643	0	1615.149	0	36.5	4	11.1	4	-1E+10	1	-1E+10	1	-1E+10	1	-1E+10	1	-1E+10	1	-1E+10	1
4901784	61	C	03/06/2017	10:43	-132.245	44.023	0	1639.50	0	2.2700	0	34.6090	4	27.646	0	1619.972	0	36.9	4	11.2	4	-1E+10	1	-1E+10	1	-1E+10	1	-1E+10	1	-1E+10	1	-1E+10	1
4901784	61	C	03/06/2017	10:43	-132.245	44.023	0	1644.40	0	2.2610	0	34.6100	4	27.647	0	1624.795	0	37.3	4	11.3	4	-1E+10	1	-1E+10	1	-1E+10	1	-1E+10	1	-1E+10	1	-1E+10	1
4901784	61	C	03/06/2017	10:43	-132.245	44.023	0	1649.20	0	2.2510	0	34.6110	4	27.649	0	1629.519	0	37.6	4	11.4	4	-1E+10	1	-1E+10	1	-1E+10	1	-1E+10	1	-1E+10	1	-1E+10	1
4901784	61	C	03/06/2017	10:43	-132.245	44.023	0	1655.00	0	2.2470	0	34.6120	4	27.650	0	1635.228	0	37.8	4	11.5	4	-1E+10	1	-1E+10	1	-1E+10	1	-1E+10	1	-1E+10	1	-1E+10	1
4901784	61	C	03/06/2017	10:43	-132.245	44.023	0	1660.70	0	2.2450	0	34.6120	4	27.650	0	1640.838	0	38.1	4	11.6	4	-1E+10	1	-1E+10	1	-1E+10	1	-1E+10	1	-1E+10	1	-1E+10	1
4901784	61	C	03/06/2017	10:43	-132.245	44.023	0	1665.70	0	2.2380	0	34.6130	4	27.652	0	1645.759	0	38.5	4	11.7	4	-1E+10	1	-1E+10	1	-1E+10	1	-1E+10	1	-1E+10	1	-1E+10	1
4901784	61	C	03/06/2017	10:43	-132.245	44.023	0	1670.60	0	2.2290	0	34.6140	4	27.653	0	1650.581	0	38.9	4	11.8	4	-1E+10	1	-1E+10	1	-1E+10	1	-1E+10	1	-1E+10	1	-1E+10	1
4901784	61	C	03/06/2017	10:43	-132.245	44.023	0	1675.70	0	2.2210	0	34.6150	4	27.655	0	1655.600	0	39.4	4	11.9	4	-1E+10	1	-1E+10	1	-1E+10	1	-1E+10	1	-1E+10	1	-1E+10	1
4901784	61	C	03/06/2017	10:43	-132.245	44.023	0	1679.90	0	2.2120	0	34.6160	4	27.656	0	1659.733	0	39.8	4	12.1	4	-1E+10	1	-1E+10	1	-1E+10	1	-1E+10	1	-1E+10	1	-1E+10	1
4901784	61	C	03/06/2017	10:43	-132.245	44.023	0	1684.20	0	2.2050	0	34.6170	4	27.658	0	1663.964	0	40.2	4	12.2	4	-1E+10	1	-1E+10	1	-1E+10	1	-1E+10	1	-1E+10	1	-1E+10	1
4901784	61	C	03/06/2017	10:43	-132.245	44.023	0	1689.30	0	2.1960	0	34.6180	4	27.659	0	1668.983	0	40.6	4	12.3	4	-1E+10	1	-1E+10	1	-1E+10	1	-1E+10	1	-1E+10	1	-1E+10	1
4901784	61	C	03/06/2017	10:43	-132.245	44.023	0	1694.50	0	2.1870	0	34.6200	4	27.661	0	1674.100	0	41.0	4	12.4	4	-1E+10	1	-1E+10	1	-1E+10	1	-1E+10	1	-1E+10	1	-1E+10	1
4901784	61	C	03/06/2017	10:43	-132.245	44.023	0	1699.70	0	2.1810	0	34.6200	4	27.662	0	1679.217	0	41.2	4	12.5	4	-1E+10	1	-1E+10	1	-1E+10	1	-1E+10	1	-1E+10	1	-1E+10	1
4901784	61	C	03/06/2017	10:43	-132.245	44.023	0	1705.00	0	2.1790	0	34.6210	4	27.663	0	1684.432	0	41.4	4	12.6	4	-1E+10	1	-1E+10	1	-1E+10	1	-1E+10	1	-1E+10	1	-1E+10	1
4901784	61	C	03/06/2017	10:43	-132.245	44.023	0	1710.40	0	2.1750	0	34.6210	4	27.663	0	1689.745	0	41.7	4	12.6	4	-1E+10	1	-1E+10	1	-1E+10	1	-1E+10	1	-1E+10	1	-1E+10	1
4901784	61	C	03/06/2017	10:43	-132.245	44.023	0	1715.70	0	2.1700	0	34.6220	4	27.665	0	1694.960	0	42.0	4	12.7	4	-1E+10	1	-1E+10	1	-1E+10	1	-1E+10	1	-1E+10	1	-1E+10	1
4901784	61	C	03/06/2017	10:43	-132.245	44.023	0	1720.10	0	2.1660	0	34.6230	4	27.666	0	1699.289	0	42.4	4	12.8	4	-1E+10	1	-1E+10	1	-1E+10	1	-1E+10	1	-1E+10	1	-1E+10	1
4901784	61	C	03/06/2017	10:43	-132.245	44.023	0	1724.60	0	2.1600	0	34.6240	4	27.667	0	1703.717	0	42.7	4	12.9	4	-1E+10	1	-1E+10	1	-1E+10	1	-1E+10	1	-1E+10	1	-1E+10	1
4901784	61	C	03/06/2017	10:43	-132.245	44.023	0	1730.00	0	2.1530	0	34.6250	4	27.668	0	1709.030	0	43.1	4	13.1	4	-1E+10	1	-1E+10	1	-1E+10	1	-1E+10	1	-1E+10	1	-1E+10	1
4901784	61	C	03/06/2017	10:43	-132.245	44.023	0	1735.50	0	2.1460	0	34.6260	4	27.670	0	1714.441	0	43.5	4	13.2	4	-1E+10	1	-1E+10	1	-1E+10	1	-1E+10	1	-1E+10	1	-1E+10	1
4901784	61	C	03/06/2017	10:43	-132.245	44.023	0	1740.00	0	2.1420	0	34.6270	4	27.671	0	1718.868	0	43.8	4	13.3	4	-1E+10	1	-1E+10	1	-1E+10	1	-1E+10	1	-1E+10	1	-1E+10	1
4901784	61	C	03/06/2017	10:43	-132.245	44.023	0	1745.20	0	2.1330	0	34.6280	4	27.672	0	1723.984	0	44.2	4	13.4	4	-1E+10	1	-1E+10	1	-1E+10	1	-1E+10	1	-1E+10	1	-1E+10	1
4901784	61	C	03/06/2017	10:43	-132.245	44.023	0	1750.30	0	2.1290	0	34.6290	4	27.674	0	1729.001	0	44.5	4	13.5	4	-1E+10	1	-1E+10	1	-1E+10	1	-1E+10	1	-1E+10	1	-1E+10	1
4901784	61	C	03/06/2017	10:43	-132.245	44.023	0	1755.10	0	2.1240	0	34.6290	4	27.674	0	1733.723	0	44.7	4	13.5	4	-1E+10	1	-1E+10	1	-1E+10	1	-1E+10	1	-1E+10	1	-1E+10	1
4901784	61	C	03/06/2017	10:43	-132.245	44.023	0	1760.00	0	2.1210	0	34.6300	4	27.675	0	1738.543	0	44.9	4	13.6	4	-1E+10	1	-1E+10	1	-1E+10	1	-1E+10	1	-1E+10	1	-1E+10	1
4901784	61	C	03/06/2017	10:43	-132.245	44.023	0	1764.90	0	2.1190	0	34.6300	4	27.675	0	1743.364	0	45.2	4	13.7	4	-1E+10	1	-1E+10	1	-1E+10	1	-1E+10	1	-1E+10	1	-1E+10	1
4901784	61	C	03/06/2017	10:43	-132.245	44.023	0	1769.70	0	2.1160	0	34.6310	4	27.676	0	1748.085	0	45.6	4	13.8	4	-1E+10	1	-1E+10	1	-1E+10	1	-1E+10	1	-1E+10	1	-1E+10	1
4901784	61	C	03/06/2017	10:43	-132.245	44.023	0	1774.70	0	2.1080	0	34.6320	4	27.678	0	1753.003	0	46.0	4	13.9	4	-1E+10	1	-1E+10	1	-1E+10	1	-1E+10	1	-1E+10	1	-1E+10	1
4901784	61	C	03/06/2017	10:43	-132.245	44.023	0	1779.70	0	2.1040	0	34.6330	4	27.679	0	1757.922	0	46.3	4	14.0	4	-1E+10	1	-1E+10	1	-1E+10	1	-1E+10	1	-1E+10	1	-1E+10	1
4901784	61	C	03/06/2017	10:43	-132.245	44.023	0	1784.80	0	2.1010	0	34.6340	4	27.680	0	1762.938	0	46.7	4	14.1	4	-1E+10	1	-1E+10	1	-1E+10	1	-1E+10	1	-1E+10	1	-1E+10	1
4901784	61	C	03/06/2017	10:43	-132.245	44.023	0	1789.90	0	2.0960	0	34.6340	4	27.680	0	1767.954	0	47.1	4	14.3	4	-1E+10	1	-1E+10	1	-1E+10	1	-1E+10	1	-1E+10	1	-1E+10	1
4901784	61	C	03/06/2017	10:43	-132.245	44.023	0	1795.20	0	2.0870	0	34.6360	4	27.683	0	1773.167	0	47.8	4	14.4	4	-1E+10	1	-1E+10	1	-1E+10	1	-1E+10	1	-1E+10	1	-1E+10	1
4901784	61	C	03/06/2017	10:43	-132.245	44.023	0	1800.40	0	2.0790	0	34.6380	4	27.685	0	1778.282	0	48.2	4	14.6	4	-1E+10	1	-1E+10	1	-1E+10	1	-1E+10	1	-1E+10	1	-1E+10	1
4901784	61	C	03/06/2017	10:43	-132.245	44.023	0	1805.60	0	2.0750	0	34.6380	4	27.685	0	1783.396	0	48.5	4	14.7	4	-1E+10	1	-1E+10	1	-1E+10	1	-1E+10	1	-1E+10	1	-1E+10	1
4901784	61	C	03/06/2017	10:43	-132.245	44.023	0	1810.00	0	2.0720	0	34.6390	4	27.686	0	1787.723	0	48.8	4	14.7	4	-1E+10	1	-1E+10	1	-1E+10	1	-1E+10	1	-1E+10	1	-1E+10	1
4901784	61	C	03/06/2017	10:43	-132.245	44.023	0	1814.40	0	2.0680	0	34.6400	4	27.688	0	1792.051	0	49.0	4	14.8	4	-1E+10	1	-1E+10	1	-1E+10	1	-1E+10	1	-1E+10	1	-1E+10	1
4901784	61	C	03/06/2017	10:43	-132.245	44.023	0	1819.80	0	2.0650	0	34.6400	4	27.688	0	1797.361	0	49.3	4	14.9	4	-1E+10	1	-1E+10	1	-1E+10	1	-1E+10	1	-1E+10	1	-1E+10	1
4901784	61	C	03/06/2017	10:43	-132.245	44.023	0	1825.10	0	2.0590	0	34.6400	4	27.688	0	1802.574	0	49.7	4	15.0	4	-1E+10	1	-1E+10	1	-1E+10	1	-1E+10	1	-1E+10	1	-1E+10	1
4901784	61	C	03/06/2017	10:43	-132.245	44.023	0	1830.50	0	2.0490	0	34.6420	4	27.691	0	1807.884	0	50.2	4	15.2	4	-1E+10	1	-1E+10	1	-1E+10	1	-1E+10	1	-1E+10	1	-1E+10	1
4901784	61	C	03/06/2017	10:43	-132.245	44.023	0	1835.10	0	2.0430	0	34.6430	4	27.692	0	1812.408	0	50.5	4	15.2	4	-1E+10	1	-1E+10	1	-1E+10	1	-1E+10	1	-1E+10	1	-1E+10	1
4901784	61	C	03/06/2017	10:43	-132.245	44.023	0	1839.70	0	2.0400	0	34.6430	4	27.692	0	1816.931	0	50.7	4	15.3	4	-1E+10	1	-1E+10	1	-1E+10	1	-1E+10	1	-1E+10	1	-1E+10	1
4901784	61	C	03/06/2017	10:43	-132.245	44.023	0	1845.20	0	2.0350	0	34.6430	4	27.693	0	1822.339	0	51.1	4	15.4	4	-1E+10	1	-1E+10	1	-1E+10	1	-1E+10	1	-1E+10	1	-1E+10	1
4901784	61	C	03/06/2017	10:43	-132.245	44.023	0	1849.90	0	2.0290	0	34.6450	4	27.695	0	1826.961	0	51.4	4	15.5	4	-1E+10	1	-1E+10	1	-1E+10	1	-1E+10	1	-1E+10	1	-1E+10	1
4901784	61	C	03/06/2017	10:43	-132.245	44.023	0	1854.40	0	2.0250	0	34.6450	4	27.695	0	1831.386	0	51.6	4	15.6	4	-1E+10	1	-1E+10	1	-1E+10	1	-1E+10	1	-1E+10	1	-1E+10	1
4901784	61	C	03/06/2017	10:43	-132.245	44.023	0	1860.00	0	2.0200	0	34.6460	4	27.696	0	1836.892	0	51.9	4	15.7	4	-1E+10	1	-1E+10	1	-1E+10	1	-1E+10	1	-1E+10	1	-1E+10	1
4901784	61	C	03/06/2017	10:43	-132.245	44.023	0	1864.70	0	2.0160	0	34.6470	4	27.698	0	1841.513	0	52.1	4	15.7	4	-1E+10	1	-1E+10	1	-1E+10	1	-1E+10	1	-1E+10	1	-1E+10	1
4901784	61	C	03/06/2017	10:43	-132.245	44.023	0	1869.40	0	2.0150	0	34.6460	4	27.697	0	1846.135	0	52.3	4	15.8	4	-1E+10	1	-1E+10	1	-1E+10	1	-1E+10	1	-1E+10	1	-1E+10	1
4901784	61	C	03/06/2017	10:43	-132.245	44.023	0	1874.90	0	2.0070	0	34.6480	4	27.699	0	1851.542	0	52.6	4	15.9	4	-1E+10	1	-1E+10	1	-1E+10	1	-1E+10	1	-1E+10	1	-1E+10	1
4901784	61	C	03/06/2017	10:43	-132.245	44.023	0	1880.50	0	2.0050	0	34.6480	4	27.699	0	1857.048	0	52.8	4	15.9	4	-1E+10	1	-1E+10	1	-1E+10	1	-1E+10	1	-1E+10	1	-1E+10	1
4901784	61	C	03/06/2017	10:43	-132.245	44.023	0	1885.40	0	2.0020	0	34.6480	4	27.700	0	1861.865	0	53.0	4	16.0	4	-1E+10	1	-1E+10	1	-1E+10	1	-1E+10	1	-1E+10	1	-1E+10	1
4901784	61	C	03/06/2017	10:43	-132.245	44.023	0	1890.50	0	1.9990	0	34.6490	4	27.701	0	1866.879	0	53.2	4	16.1	4	-1E+10	1	-1E+10	1	-1E+10	1	-1E+10	1	-1E+10	1	-1E+10	1
4901784	61	C	03/06/2017	10:43	-132.245	44.023	0	1895.50	0	1.9970	0	34.6490	4	27.701	0	1871.795	0	53.4	4	16.1	4	-1E+10	1	-1E+10	1	-1E+10	1	-1E+10	1	-1E+10	1	-1E+10	1
4901784	61	C	03/06/2017	10:43	-132.245	44.023	0	1900.50	0	1.9940	0	34.6500	4	27.702	0	1876.710	0	53.6	4	16.2	4	-1E+10	1	-1E+10	1	-1E+10	1	-1E+10	1	-1E+10	1	-1E+10	1
4901784	61	C	03/06/2017	10:43	-132.245	44.023	0	1905.50	0	1.9920	0	34.6500	4	27.702	0	1881.626	0	53.8	4	16.2	4	-1E+10	1	-1E+10	1	-1E+10	1	-1E+10	1	-1E+10	1	-1E+10	1
4901784	61	C	03/06/2017	10:43	-132.245	44.023	0	1910.50	0	1.9890	0	34.6510	4	27.703	0	1886.541	0	54.1	4	16.3	4	-1E+10	1	-1E+10	1	-1E+10	1	-1E+10	1	-1E+10	1	-1E+10	1
4901784	61	C	03/06/2017	10:43	-132.245	44.023	0	1915.60	0	1.9850	0	34.6510	4	27.703	0	1891.554	0	54.5	4	16.4	4	-1E+10	1	-1E+10	1	-1E+10	1	-1E+10	1	-1E+10	1	-1E+10	1
4901784	61	C	03/06/2017	10:43	-132.245	44.023	0	1920.70	0	1.9800	0	34.6520	4	27.705	0	1896.568	0	54.8	4	16.5	4	-1E+10	1	-1E+10	1	-1E+10	1	-1E+10	1	-1E+10	1	-1E+10	1
4901784	61	C	03/06/2017	10:43	-132.245	44.023	0	1925.00	0	1.9770	0	34.6530	4	27.706	0	1900.794	0	55.0	4	16.6	4	-1E+10	1	-1E+10	1	-1E+10	1	-1E+10	1	-1E+10	1	-1E+10	1
4901784	61	C	03/06/2017	10:43	-132.245	44.023	0	1929.40	0	1.9750	0	34.6530	4	27.706	0	1905.119	0	55.2	4	16.6	4	-1E+10	1	-1E+10	1	-1E+10	1	-1E+10	1	-1E+10	1	-1E+10	1
4901784	61	C	03/06/2017	10:43	-132.245	44.023	0	1934.60	0	1.9740	0	34.6540	4	27.707	0	1910.231	0	55.3	4	16.7	4	-1E+10	1	-1E+10	1	-1E+10	1	-1E+10	1	-1E+10	1	-1E+10	1
4901784	61	C	03/06/2017	10:43	-132.245	44.023	0	1939.90	0	1.9730	0	34.6540	4	27.707	0	1915.440	0	55.5	4	16.7	4	-1E+10	1	-1E+10	1	-1E+10	1	-1E+10	1	-1E+10	1	-1E+10	1
4901784	61	C	03/06/2017	10:43	-132.245	44.023	0	1945.10	0	1.9670	0	34.6550	4	27.708	0	1920.551	0	55.7	4	16.8	4	-1E+10	1	-1E+10	1	-1E+10	1	-1E+10	1	-1E+10	1	-1E+10	1
4901784	61	C	03/06/2017	10:43	-132.245	44.023	0	1950.40	0	1.9670	0	34.6550	4	27.708	0	1925.760	0	55.9	4	16.8	4	-1E+10	1	-1E+10	1	-1E+10	1	-1E+10	1	-1E+10	1	-1E+10	1
4901784	61	C	03/06/2017	10:43	-132.245	44.023	0	1955.70	0	1.9650	0	34.6550	4	27.708	0	1930.969	0	56.1	4	16.9	4	-1E+10	1	-1E+10	1	-1E+10	1	-1E+10	1	-1E+10	1	-1E+10	1
4901784	61	C	03/06/2017	10:43	-132.245	44.023	0	1960.10	0	1.9630	0	34.6550	4	27.709	0	1935.294	0	56.5	4	17.0	4	-1E+10	1	-1E+10	1	-1E+10	1	-1E+10	1	-1E+10	1	-1E+10	1
4901784	61	C	03/06/2017	10:43	-132.245	44.023	0	1964.50	0	1.9580	0	34.6570	4	27.711	0	1939.618	0	56.9	4	17.1	4	-1E+10	1	-1E+10	1	-1E+10	1	-1E+10	1	-1E+10	1	-1E+10	1
4901784	61	C	03/06/2017	10:43	-132.245	44.023	0	1969.80	0	1.9560	0	34.6570	4	27.711	0	1944.827	0	57.1	4	17.2	4	-1E+10	1	-1E+10	1	-1E+10	1	-1E+10	1	-1E+10	1	-1E+10	1
4901784	61	C	03/06/2017	10:43	-132.245	44.023	0	1975.10	0	1.9520	0	34.6580	4	27.712	0	1950.035	0	57.4	4	17.3	4	-1E+10	1	-1E+10	1	-1E+10	1	-1E+10	1	-1E+10	1	-1E+10	1
4901784	61	C	03/06/2017	10:43	-132.245	44.023	0	1980.50	0	1.9510	0	34.6590	4	27.713	0	1955.342	0	57.6	4	17.3	4	-1E+10	1	-1E+10	1	-1E+10	1	-1E+10	1	-1E+10	1	-1E+10	1
4901784	61	C	03/06/2017	10:43	-132.245	44.023	0	1985.00	0	1.9500	0	34.6590	4	27.713	0	1959.764	0	57.7	4	17.4	4	-1E+10	1	-1E+10	1	-1E+10	1	-1E+10	1	-1E+10	1	-1E+10	1
4901784	61	C	03/06/2017	10:43	-132.245	44.023	0	1989.60	0	1.9490	0	34.6590	4	27.713	0	1964.284	0	58.0	4	17.5	4	-1E+10	1	-1E+10	1	-1E+10	1	-1E+10	1	-1E+10	1	-1E+10	1
4901784	61	C	03/06/2017	10:43	-132.245	44.023	0	1995.00	0	1.9440	0	34.6590	4	27.713	0	1969.591	0	58.3	4	17.6	4	-1E+10	1	-1E+10	1	-1E+10	1	-1E+10	1	-1E+10	1	-1E+10	1
4901784	61	C	03/06/2017	10:43	-132.245	44.023	0	2000.30	0	1.9370	0	34.6610	4	27.716	0	1974.799	0	58.7	4	17.7	4	-1E+10	1	-1E+10	1	-1E+10	1	-1E+10	1	-1E+10	1	-1E+10	1
4901784	61	C	03/06/2017	10:43	-132.245	44.023	0	2005.50	0	1.9330	0	34.6610	4	27.716	0	1979.908	0	59.0	4	17.8	4	-1E+10	1	-1E+10	1	-1E+10	1	-1E+10	1	-1E+10	1	-1E+10	1
4901784	61	C	03/06/2017	10:43	-132.245	44.023	0	2010.00	0	1.9290	0	34.6620	4	27.717	0	1984.330	0	59.1	4	17.8	4	-1E+10	1	-1E+10	1	-1E+10	1	-1E+10	1	-1E+10	1	-1E+10	1
4901784	61	C	03/06/2017	10:43	-132.245	44.023	0	2015.30	0	1.9290	0	34.6620	4	27.717	0	1989.538	0	59.1	4	17.8	4	-1E+10	1	-1E+10	1	-1E+10	1	-1E+10	1	-1E+10	1	-1E+10	1
4901784	61	C	03/06/2017	10:43	-132.245	44.023	0	2020.90	0	1.9280	0	34.6620	4	27.717	0	1995.040	0	55.0	8	16.6	8	-1E+10	1	-1E+10	1	-1E+10	1	-1E+10	1	-1E+10	1	-1E+10	1
4901784	61	C	03/06/2017	10:43	-132.245	44.023	0																										
4901784	62	C	03/16/2017	10:44	-132.233	43.994	0	2.20	0	9.0330	0	32.9250	4	25.489	0	2.182	0	275.6	4	96.8	4	-1E+10	1	-1E+10	1	-1E+10	1	-1E+10	1	-1E+10	1	-1E+10	1
4901784	62	C	03/16/2017	10:44	-132.233	43.994	0	3.30	0	9.0340	0	32.9260	4	25.489	0	3.273	0	275.7	4	96.9	4	-1E+10	1	-1E+10	1	-1E+10	1	-1E+10	1	-1E+10	1	-1E+10	1
4901784	62	C	03/16/2017	10:44	-132.233	43.994	0	4.40	0	9.0380	0	32.9250	4	25.488	0	4.365	0	275.6	4	96.8	4	-1E+10	1	-1E+10	1	-1E+10	1	-1E+10	1	-1E+10	1	-1E+10	1
4901784	62	C	03/16/2017	10:44	-132.233	43.994	0	5.50	0	9.0360	0	32.9250	4	25.488	0	5.456	0	275.8	4	96.9	4	-1E+10	1	-1E+10	1	-1E+10	1	-1E+10	1	-1E+10	1	-1E+10	1
4901784	62	C	03/16/2017	10:44	-132.233	43.994	0	6.70	0	9.0350	0	32.9260	4	25.489	0	6.646	0	275.7	4	96.8	4	-1E+10	1	-1E+10	1	-1E+10	1	-1E+10	1	-1E+10	1	-1E+10	1
4901784	62	C	03/16/2017	10:44	-132.233	43.994	0	8.00	0	9.0350	0	32.9260	4	25.489	0	7.936	0	275.7	4	96.9	4	-1E+10	1	-1E+10	1	-1E+10	1	-1E+10	1	-1E+10	1	-1E+10	1
4901784	62	C	03/16/2017	10:44	-132.233	43.994	0	9.30	0	9.0370	0	32.9250	4	25.488	0	9.225	0	275.7	4	96.8	4	-1E+10	1	-1E+10	1	-1E+10	1	-1E+10	1	-1E+10	1	-1E+10	1
4901784	62	C	03/16/2017	10:44	-132.233	43.994	0	10.80	0	9.0380	0	32.9250	4	25.488	0	10.713	0	275.7	4	96.9	4	-1E+10	1	-1E+10	1	-1E+10	1	-1E+10	1	-1E+10	1	-1E+10	1
4901784	62	C	03/16/2017	10:44	-132.233	43.994	0	12.30	0	9.0360	0	32.9260	4	25.489	0	12.201	0	275.8	4	96.9	4	-1E+10	1	-1E+10	1	-1E+10	1	-1E+10	1	-1E+10	1	-1E+10	1
4901784	62	C	03/16/2017	10:44	-132.233	43.994	0	13.90	0	9.0420	0	32.9270	4	25.489	0	13.788	0	275.6	4	96.8	4	-1E+10	1	-1E+10	1	-1E+10	1	-1E+10	1	-1E+10	1	-1E+10	1
4901784	62	C	03/16/2017	10:44	-132.233	43.994	0	15.60	0	9.0420	0	32.9270	4	25.489	0	15.474	0	275.7	4	96.9	4	-1E+10	1	-1E+10	1	-1E+10	1	-1E+10	1	-1E+10	1	-1E+10	1
4901784	62	C	03/16/2017	10:44	-132.233	43.994	0	17.40	0	9.0500	0	32.9270	4	25.488	0	17.260	0	275.6	4	96.9	4	-1E+10	1	-1E+10	1	-1E+10	1	-1E+10	1	-1E+10	1	-1E+10	1
4901784	62	C	03/16/2017	10:44	-132.233	43.994	0	19.20	0	9.0500	0	32.9280	4	25.489	0	19.045	0	275.5	4	96.8	4	-1E+10	1	-1E+10	1	-1E+10	1	-1E+10	1	-1E+10	1	-1E+10	1
4901784	62	C	03/16/2017	10:44	-132.233	43.994	0	21.00	0	9.0500	0	32.9270	4	25.488	0	20.830	0	275.5	4	96.8	4	-1E+10	1	-1E+10	1	-1E+10	1	-1E+10	1	-1E+10	1	-1E+10	1
4901784	62	C	03/16/2017	10:44	-132.233	43.994	0	22.80	0	9.0520	0	32.9280	4	25.488	0	22.616	0	275.6	4	96.9	4	-1E+10	1	-1E+10	1	-1E+10	1	-1E+10	1	-1E+10	1	-1E+10	1
4901784	62	C	03/16/2017	10:44	-132.233	43.994	0	24.60	0	9.0500	0	32.9280	4	25.489	0	24.401	0	275.6	4	96.8	4	-1E+10	1	-1E+10	1	-1E+10	1	-1E+10	1	-1E+10	1	-1E+10	1
4901784	62	C	03/16/2017	10:44	-132.233	43.994	0	26.40	0	9.0570	0	32.9270	4	25.487	0	26.186	0	275.6	4	96.9	4	-1E+10	1	-1E+10	1	-1E+10	1	-1E+10	1	-1E+10	1	-1E+10	1
4901784	62	C	03/16/2017	10:44	-132.233	43.994	0	28.20	0	9.0550	0	32.9300	4	25.490	0	27.972	0	275.4	4	96.8	4	-1E+10	1	-1E+10	1	-1E+10	1	-1E+10	1	-1E+10	1	-1E+10	1
4901784	62	C	03/16/2017	10:44	-132.233	43.994	0	30.10	0	9.0600	0	32.9310	4	25.490	0	29.856	0	275.4	4	96.8	4	-1E+10	1	-1E+10	1	-1E+10	1	-1E+10	1	-1E+10	1	-1E+10	1
4901784	62	C	03/16/2017	10:44	-132.233	43.994	0	31.90	0	9.0560	0	32.9310	4	25.490	0	31.642	0	275.4	4	96.8	4	-1E+10	1	-1E+10	1	-1E+10	1	-1E+10	1	-1E+10	1	-1E+10	1
4901784	62	C	03/16/2017	10:44	-132.233	43.994	0	33.70	0	9.0690	0	32.9350	4	25.491	0	33.427	0	275.4	4	96.8	4	-1E+10	1	-1E+10	1	-1E+10	1	-1E+10	1	-1E+10	1	-1E+10	1
4901784	62	C	03/16/2017	10:44	-132.233	43.994	0	35.60	0	9.0730	0	32.9380	4	25.493	0	35.311	0	275.1	4	96.7	4	-1E+10	1	-1E+10	1	-1E+10	1	-1E+10	1	-1E+10	1	-1E+10	1
4901784	62	C	03/16/2017	10:44	-132.233	43.994	0	37.40	0	9.0830	0	32.9440	4	25.496	0	37.096	0	274.9	4	96.7	4	-1E+10	1	-1E+10	1	-1E+10	1	-1E+10	1	-1E+10	1	-1E+10	1
4901784	62	C	03/16/2017	10:44	-132.233	43.994	0	39.20	0	9.1880	0	32.9800	4	25.508	0	38.882	0	274.0	4	96.6	4	-1E+10	1	-1E+10	1	-1E+10	1	-1E+10	1	-1E+10	1	-1E+10	1
4901784	62	C	03/16/2017	10:44	-132.233	43.994	0	41.00	0	9.2220	0	32.9860	4	25.507	0	40.667	0	273.6	4	96.6	4	-1E+10	1	-1E+10	1	-1E+10	1	-1E+10	1	-1E+10	1	-1E+10	1
4901784	62	C	03/16/2017	10:44	-132.233	43.994	0	42.80	0	9.2470	0	33.0060	4	25.519	0	42.452	0	273.1	4	96.4	4	-1E+10	1	-1E+10	1	-1E+10	1	-1E+10	1	-1E+10	1	-1E+10	1
4901784	62	C	03/16/2017	10:44	-132.233	43.994	0	44.50	0	9.2480	0	33.0070	4	25.520	0	44.138	0	272.5	4	96.2	4	-1E+10	1	-1E+10	1	-1E+10	1	-1E+10	1	-1E+10	1	-1E+10	1
4901784	62	C	03/16/2017	10:44	-132.233	43.994	0	46.30	0	9.2450	0	33.0130	4	25.525	0	45.923	0	272.2	4	96.1	4	-1E+10	1	-1E+10	1	-1E+10	1	-1E+10	1	-1E+10	1	-1E+10	1
4901784	62	C	03/16/2017	10:44	-132.233	43.994	0	48.10	0	9.2390	0	33.0140	4	25.527	0	47.708	0	271.8	4	96.0	4	-1E+10	1	-1E+10	1	-1E+10	1	-1E+10	1	-1E+10	1	-1E+10	1
4901784	62	C	03/16/2017	10:44	-132.233	43.994	0	49.90	0	9.2420	0	33.0240	4	25.534	0	49.494	0	271.3	4	95.8	4	-1E+10	1	-1E+10	1	-1E+10	1	-1E+10	1	-1E+10	1	-1E+10	1
4901784	62	C	03/16/2017	10:44	-132.233	43.994	0	51.70	0	9.2560	0	33.0320	4	25.538	0	51.279	0	271.0	4	95.7	4	-1E+10	1	-1E+10	1	-1E+10	1	-1E+10	1	-1E+10	1	-1E+10	1
4901784	62	C	03/16/2017	10:44	-132.233	43.994	0	53.50	0	9.2650	0	33.0370	4	25.541	0	53.064	0	270.5	4	95.6	4	-1E+10	1	-1E+10	1	-1E+10	1	-1E+10	1	-1E+10	1	-1E+10	1
4901784	62	C	03/16/2017	10:44	-132.233	43.994	0	55.30	0	9.2700	0	33.0390	4	25.541	0	54.849	0	270.2	4	95.5	4	-1E+10	1	-1E+10	1	-1E+10	1	-1E+10	1	-1E+10	1	-1E+10	1
4901784	62	C	03/16/2017	10:44	-132.233	43.994	0	57.00	0	9.2730	0	33.0410	4	25.543	0	56.535	0	270.0	4	95.4	4	-1E+10	1	-1E+10	1	-1E+10	1	-1E+10	1	-1E+10	1	-1E+10	1
4901784	62	C	03/16/2017	10:44	-132.233	43.994	0	58.80	0	9.2770	0	33.0430	4	25.543	0	58.320	0	269.6	4	95.3	4	-1E+10	1	-1E+10	1	-1E+10	1	-1E+10	1	-1E+10	1	-1E+10	1
4901784	62	C	03/16/2017	10:44	-132.233	43.994	0	60.60	0	9.2770	0	33.0430	4	25.544	0	60.105	0	269.4	4	95.2	4	-1E+10	1	-1E+10	1	-1E+10	1	-1E+10	1	-1E+10	1	-1E+10	1
4901784	62	C	03/16/2017	10:44	-132.233	43.994	0	62.40	0	9.2790	0	33.0450	4	25.545	0	61.890	0	269.1	4	95.1	4	-1E+10	1	-1E+10	1	-1E+10	1	-1E+10	1	-1E+10	1	-1E+10	1
4901784	62	C	03/16/2017	10:44	-132.233	43.994	0	64.10	0	9.2740	0	33.0470	4	25.547	0	63.576	0	268.9	4	95.0	4	-1E+10	1	-1E+10	1	-1E+10	1	-1E+10	1	-1E+10	1	-1E+10	1
4901784	62	C	03/16/2017	10:44	-132.233	43.994	0	65.90	0	9.2740	0	33.0470	4	25.547	0	65.361	0	268.7	4	95.0	4	-1E+10	1	-1E+10	1	-1E+10	1	-1E+10	1	-1E+10	1	-1E+10	1
4901784	62	C	03/16/2017	10:44	-132.233	43.994	0	67.70	0	9.2740	0	33.0470	4	25.547	0	67.146	0	268.3	4	94.8	4	-1E+10	1	-1E+10	1	-1E+10	1	-1E+10	1	-1E+10	1	-1E+10	1
4901784	62	C	03/16/2017	10:44	-132.233	43.994	0	69.40	0	9.2760	0	33.0480	4	25.548	0	68.831	0	267.8	4	94.7	4	-1E+10	1	-1E+10	1	-1E+10	1	-1E+10	1	-1E+10	1	-1E+10	1
4901784	62	C	03/16/2017	10:44	-132.233	43.994	0	71.20	0	9.2800	0	33.0490	4	25.548	0	70.616	0	267.5	4	94.6	4	-1E+10	1	-1E+10	1	-1E+10	1	-1E+10	1	-1E+10	1	-1E+10	1
4901784	62	C	03/16/2017	10:44	-132.233	43.994	0	73.00	0	9.2810	0	33.0500	4	25.549	0	72.401	0	266.5	4	94.2	4	-1E+10	1	-1E+10	1	-1E+10	1	-1E+10	1	-1E+10	1	-1E+10	1
4901784	62	C	03/16/2017	10:44	-132.233	43.994	0	74.70	0	9.2840	0	33.0510	4	25.549	0	74.087	0	265.4	4	93.8	4	-1E+10	1	-1E+10	1	-1E+10	1	-1E+10	1	-1E+10	1	-1E+10	1
4901784	62	C	03/16/2017	10:44	-132.233	43.994	0	76.40	0	9.2870	0	33.0520	4	25.549	0	75.773	0	264.4	4	93.5	4	-1E+10	1	-1E+10	1	-1E+10	1	-1E+10	1	-1E+10	1	-1E+10	1
4901784	62	C	03/16/2017	10:44	-132.233	43.994	0	78.10	0	9.2900	0	33.0550	4	25.551	0	77.459	0	262.5	4	92.8	4	-1E+10	1	-1E+10	1	-1E+10	1	-1E+10	1	-1E+10	1	-1E+10	1
4901784	62	C	03/16/2017	10:44	-132.233	43.994	0	80.30	0	9.2960	0	33.0630	4	25.556	0	79.640	0	259.4	4	91.8	4	-1E+10	1	-1E+10	1	-1E+10	1	-1E+10	1	-1E+10	1	-1E+10	1
4901784	62	C	03/16/2017	10:44	-132.233	43.994	0	81.90	0	9.2910	0	33.0790	4	25.570	0	81.227	0	256.1	4	90.6	4	-1E+10	1	-1E+10	1	-1E+10	1	-1E+10	1	-1E+10	1	-1E+10	1
4901784	62	C	03/16/2017	10:44	-132.233	43.994	0	83.30	0	9.2900	0	33.0850	4	25.575	0	82.615	0	252.7	4	89.4	4	-1E+10	1	-1E+10	1	-1E+10	1	-1E+10	1	-1E+10	1	-1E+10	1
4901784	62	C	03/16/2017	10:44	-132.233	43.994	0	84.70	0	9.2900	0	33.1040	4	25.590	0	84.003	0	248.2	4	87.8	4	-1E+10	1	-1E+10	1	-1E+10	1	-1E+10	1	-1E+10	1	-1E+10	1
4901784	62	C	03/16/2017	10:44	-132.233	43.994	0	86.10	0	9.2840	0	33.1260	4	25.608	0	85.391	0	243.2	4	86.0	4	-1E+10	1	-1E+10	1	-1E+10	1	-1E+10	1	-1E+10	1	-1E+10	1
4901784	62	C	03/16/2017	10:44	-132.233	43.994	0	87.60	0	9.2460	0	33.1770	4	25.654	0	86.879	0	237.5	4	84.0	4	-1E+10	1	-1E+10	1	-1E+10	1	-1E+10	1	-1E+10	1	-1E+10	1
4901784	62	C	03/16/2017	10:44	-132.233	43.994	0	89.10	0	9.2220	0	33.2120	4	25.685	0	88.366	0	232.1	4	82.1	4	-1E+10	1	-1E+10	1	-1E+10	1	-1E+10	1	-1E+10	1	-1E+10	1
4901784	62	C	03/16/2017	10:44	-132.233	43.994	0	90.50	0	9.1890	0	33.2820	4	25.745	0	89.754	0	226.9	4	80.2	4	-1E+10	1	-1E+10	1	-1E+10	1	-1E+10	1	-1E+10	1	-1E+10	1
4901784	62	C	03/16/2017	10:44	-132.233	43.994	0	91.90	0	9.1580	0	33.3600	4	25.811	0	91.142	0	222.2	4	78.5	4	-1E+10	1	-1E+10	1	-1E+10	1	-1E+10	1	-1E+10	1	-1E+10	1
4901784	62	C	03/16/2017	10:44	-132.233	43.994	0	93.40	0	9.1350	0	33.4230	4	25.864	0	92.629	0	218.5	4	77.2	4	-1E+10	1	-1E+10	1	-1E+10	1	-1E+10	1	-1E+10	1	-1E+10	1
4901784	62	C	03/16/2017	10:44	-132.233	43.994	0	95.00	0	9.1120	0	33.4540	4	25.892	0	94.216	0	216.3	4	76.4	4	-1E+10	1	-1E+10	1	-1E+10	1	-1E+10	1	-1E+10	1	-1E+10	1
4901784	62	C	03/16/2017	10:44	-132.233	43.994	0	96.60	0	9.1050	0	33.4610	4	25.898	0	95.802	0	214.2	4	75.6	4	-1E+10	1	-1E+10	1	-1E+10	1	-1E+10	1	-1E+10	1	-1E+10	1
4901784	62	C	03/16/2017	10:44	-132.233	43.994	0	98.40	0	9.0990	0	33.4680	4	25.905	0	97.587	0	211.1	4	74.5	4	-1E+10	1	-1E+10	1	-1E+10	1	-1E+10	1	-1E+10	1	-1E+10	1
4901784	62	C	03/16/2017	10:44	-132.233	43.994	0	98.90	0	9.0940	0	33.4730	4	25.910	0	98.083	0	209.3	4	73.9	4	-1E+10	1	-1E+10	1	-1E+10	1	-1E+10	1	-1E+10	1	-1E+10	1
4901784	62	C	03/16/2017	10:44	-132.233	43.994	0	100.30	0	9.0700	0	33.4920	4	25.928	0	99.471	0	205.3	4	72.5	4	-1E+10	1	-1E+10	1	-1E+10	1	-1E+10	1	-1E+10	1	-1E+10	1
4901784	62	C	03/16/2017	10:44	-132.233	43.994	0	102.50	0	8.9490	0	33.6270	4	26.053	0	101.652	0	201.7	4	71.1	4	-1E+10	1	-1E+10	1	-1E+10	1	-1E+10	1	-1E+10	1	-1E+10	1
4901784	62	C	03/16/2017	10:44	-132.233	43.994	0	105.40	0	8.8950	0	33.6830	4	26.105	0	104.527	0	199.7	4	70.3	4	-1E+10	1	-1E+10	1	-1E+10	1	-1E+10	1	-1E+10	1	-1E+10	1
4901784	62	C	03/16/2017	10:44	-132.233	43.994	0	107.60	0	8.8950	0	33.6980	4	26.117	0	106.709	0	198.8	4	70.0	4	-1E+10	1	-1E+10	1	-1E+10	1	-1E+10	1	-1E+10	1	-1E+10	1
4901784	62	C	03/16/2017	10:44	-132.233	43.994	0	110.10	0	8.9050	0	33.7220	4	26.135	0	109.187	0	197.3	4	69.5	4	-1E+10	1	-1E+10	1	-1E+10	1	-1E+10	1	-1E+10	1	-1E+10	1
4901784	62	C	03/16/2017	10:44	-132.233	43.994	0	112.40	0	8.8840	0	33.7470	4	26.157	0	111.468	0	195.6	4	68.9	4	-1E+10	1	-1E+10	1	-1E+10	1	-1E+10	1	-1E+10	1	-1E+10	1
4901784	62	C	03/16/2017	10:44	-132.233	43.994	0	114.90	0	8.8830	0	33.7750	4	26.180	0	113.946	0	193.4	4	68.1	4	-1E+10	1	-1E+10	1	-1E+10	1	-1E+10	1	-1E+10	1	-1E+10	1
4901784	62	C	03/16/2017	10:44	-132.233	43.994	0	117.30	0	8.8370	0	33.8220	4	26.224	0	116.326	0	190.6	4	67.1	4	-1E+10	1	-1E+10	1	-1E+10	1	-1E+10	1	-1E+10	1	-1E+10	1
4901784	62	C	03/16/2017	10:44	-132.233	43.994	0	119.80	0	8.8100	0	33.8310	4	26.235	0	118.804	0	188.8	4	66.4	4	-1E+10	1	-1E+10	1	-1E+10	1	-1E+10	1	-1E+10	1	-1E+10	1
4901784	62	C	03/16/2017	10:44	-132.233	43.994	0	122.30	0	8.7170	0	33.8620	4	26.274	0	121.283	0	187.0	4	65.7	4	-1E+10	1	-1E+10	1	-1E+10	1	-1E+10	1	-1E+10	1	-1E+10	1
4901784	62	C	03/16/2017	10:44	-132.233	43.994	0	124.90	0	8.6560	0	33.8740	4	26.293	0	123.860	0	186.4	4	65.4	4	-1E+10	1	-1E+10	1	-1E+10	1	-1E+10	1	-1E+10	1	-1E+10	1
4901784	62	C	03/16/2017	10:44	-132.233	43.994	0	127.50	0	8.6270	0	33.8810	4	26.303	0	126.438	0	185.8	4	65.1	4	-1E+10	1	-1E+10	1	-1E+10	1	-1E+10	1	-1E+10	1	-1E+10	1
4901784	62	C	03/16/2017	10:44	-132.233	43.994	0	130.20	0	8.6040	0	33.8850	4	26.309	0	129.114	0	185.5	4	65.0	4	-1E+10	1	-1E+10	1	-1E+10	1	-1E+10	1	-1E+10	1	-1E+10	1
4901784	62	C	03/16/2017	10:44	-132.233	43.994	0	132.80	0	8.5930	0	33.8860	4	26.312	0	131.692	0	185.0	4	64.8	4	-1E+10	1	-1E+10	1	-1E+10	1	-1E+10	1	-1E+10	1	-1E+10	1
4901784	62	C	03/16/2017	10:44	-132.233	43.994	0	134.70	0	8.5900	0	33.8870	4	26.313	0	133.575	0	184.5	4	64.6	4	-1E+10	1	-1E+10	1	-1E+10	1	-1E+10	1	-1E+10	1	-1E+10	1
4901784	62	C	03/16/2017	10:44	-132.233	43.994	0	137.40	0	8.5800	0	33.8890	4	26.316	0	136.252	0	183.7	4	64.3	4	-1E+10	1	-1E+10	1	-1E+10	1	-1E+10	1	-1E+10	1	-1E+10	1
4901784	62	C	03/16/2017	10:44	-132.233	43.994	0	140.20	0	8.5690	0	33.8900	4	26.319	0	139.028	0	182.6	4	63.9	4	-1E+10	1	-1E+10	1	-1E+10	1	-1E+10	1	-1E+10	1	-1E+10	1
4901784	62	C	03/16/2017	10:44	-132.233	43.994	0	142.00	0	8.5520	0	33.8920	4	26.323	0	140.812	0	181.6	4	63.6	4	-1E+10	1	-1E+10	1	-1E+10	1	-1E+10	1	-1E+10	1	-1E+10	1
4901784	62	C	03/16/2017	10:44	-132.233	43.994	0	144.70	0	8.4860	0	33.9150	4	26.351	0	143.488	0	180.1	4	63.0	4	-1E+10	1	-1E+10	1	-1E+10	1	-1E+10	1	-1E+10	1	-1E+10	1
4901784	62	C	03/16/2017	10:44	-132.233	43.994	0	147.40	0	8.3890	0	33.9220	4	26.371	0	146.165	0	178.6	4	62.3	4	-1E+10	1	-1E+10	1	-1E+10	1	-1E+10	1	-1E+10	1	-1E+10	1
4901784	62	C	03/16/2017	10:44	-132.233	43.994	0	150.10	0	8.3180	0	33.9300	4	26.389	0	148.841	0	177.1	4	61.7	4	-1E+10	1	-1E+10	1	-1E+10	1	-1E+10	1	-1E+10	1	-1E+10	1
4901784	62	C	03/16/2017	10:44	-132.233	43.994	0	152.70	0	8.2210	0	33.9420	4	26.413	0	151.419	0	175.8	4	61.1	4	-1E+10	1	-1E+10	1	-1E+10	1	-1E+10	1	-1E+10	1	-1E+10	1
4901784	62	C	03/16/2017	10:44	-132.233	43.994	0	154.60	0	8.1520	0	33.9520	4	26.431	0	153.302	0	174.8	4	60.7	4	-1E+10	1	-1E+10	1	-1E+10	1	-1E+10	1	-1E+10	1	-1E+10	1
4901784	62	C	03/16/2017	10:44	-132.233	43.994	0	157.40	0	8.1020	0	33.9520	4	26.438	0	156.077	0	174.0	4	60.3	4	-1E+10	1	-1E+10	1	-1E+10	1	-1E+10	1	-1E+10	1	-1E+10	1
4901784	62	C	03/16/2017	10:44	-132.233	43.994	0	160.30	0	8.0780	0	33.9540	4	26.443	0	158.952	0	173.1	4	60.0	4	-1E+10	1	-1E+10	1	-1E+10	1	-1E+10	1	-1E+10	1	-1E+10	1
4901784	62	C	03/16/2017	10:44	-132.233	43.994	0	162.10	0	8.0480	0	33.9560	4	26.449	0	160.736	0	172.2	4	59.6	4	-1E+10	1	-1E+10	1	-1E+10	1	-1E+10	1	-1E+10	1	-1E+10	1
4901784	62	C	03/16/2017	10:44	-132.233	43.994	0	164.90	0	7.9840	0	33.9610	4	26.463	0	163.511	0	171.1	4	59.2	4	-1E+10	1	-1E+10	1	-1E+10	1	-1E+10	1	-1E+10	1	-1E+10	1
4901784	62	C	03/16/2017	10:44	-132.233	43.994	0	167.60	0	7.9290	0	33.9640	4	26.473	0	166.187	0	170.4	4	58.8	4	-1E+10	1	-1E+10	1	-1E+10	1	-1E+10	1	-1E+10	1	-1E+10	1
4901784	62	C	03/16/2017	10:44	-132.233	43.994	0	169.50	0	7.9190	0	33.9630	4	26.474	0	168.071	0	169.8	4	58.6	4	-1E+10	1	-1E+10	1	-1E+10	1	-1E+10	1	-1E+10	1	-1E+10	1
4901784	62	C	03/16/2017	10:44	-132.233	43.994	0	172.30	0	7.8840	0	33.9660	4	26.482	0	170.846	0	168.8	4	58.2	4	-1E+10	1	-1E+10	1	-1E+10	1	-1E+10	1	-1E+10	1	-1E+10	1
4901784	62	C	03/16/2017	10:44	-132.233	43.994	0	175.00	0	7.8450	0	33.9680	4	26.489	0	173.522	0	167.8	4	57.9	4	-1E+10	1	-1E+10	1	-1E+10	1	-1E+10	1	-1E+10	1	-1E+10	1
4901784	62	C	03/16/2017	10:44	-132.233	43.994	0	177.80	0	7.8170	0	33.9690	4	26.494	0	176.297	0	166.8	4	57.5	4	-1E+10	1	-1E+10	1	-1E+10	1	-1E+10	1	-1E+10	1	-1E+10	1
4901784	62	C	03/16/2017	10:44	-132.233	43.994	0	180.60	0	7.7950	0	33.9680	4	26.496	0	179.072	0	165.5	4	57.0	4	-1E+10	1	-1E+10	1	-1E+10	1	-1E+10	1	-1E+10	1	-1E+10	1
4901784	62	C	03/16/2017	10:44	-132.233	43.994	0	182.50	0	7.7480	0	33.9700	4	26.505	0	180.955	0	164.6	4	56.6	4	-1E+10	1	-1E+10	1	-1E+10	1	-1E+10	1	-1E+10	1	-1E+10	1
4901784	62	C	03/16/2017	10:44	-132.233	43.994	0	185.30	0	7.7070	0	33.9690	4	26.510	0	183.730	0	163.1	4	56.1	4	-1E+10	1	-1E+10	1	-1E+10	1	-1E+10	1	-1E+10	1	-1E+10	1
4901784	62	C	03/16/2017	10:44	-132.233	43.994	0	188.20	0	7.6210	0	33.9780	4	26.529	0	186.605	0	161.7	4	55.5	4	-1E+10	1	-1E+10	1	-1E+10	1	-1E+10	1	-1E+10	1	-1E+10	1
4901784	62	C	03/16/2017	10:44	-132.233	43.994	0	190.00	0	7.5900	0	33.9730	4	26.530	0	188.389	0	160.8	4	55.1	4	-1E+10	1	-1E+10	1	-1E+10	1	-1E+10	1	-1E+10	1	-1E+10	1
4901784	62	C	03/16/2017	10:44	-132.233	43.994	0	192.00	0	7.5440	0	33.9760	4	26.539	0	190.371	0	160.1	4	54.8	4	-1E+10	1	-1E+10	1	-1E+10	1	-1E+10	1	-1E+10	1	-1E+10	1
4901784	62	C	03/16/2017	10:44	-132.233	43.994	0	194.70	0	7.4980	0	33.9780	4	26.547	0	193.046	0	159.1	4	54.4	4	-1E+10	1	-1E+10	1	-1E+10	1	-1E+10	1	-1E+10	1	-1E+10	1
4901784	62	C	03/16/2017	10:44	-132.233	43.994	0	197.50	0	7.4690	0	33.9780	4	26.551	0	195.821	0	158.1	4	54.1	4	-1E+10	1	-1E+10	1	-1E+10	1	-1E+10	1	-1E+10	1	-1E+10	1
4901784	62	C	03/16/2017	10:44	-132.233	43.994	0	200.30	0	7.4290	0	33.9800	4	26.558	0	198.596	0	156.9	4	53.6	4	-1E+10	1	-1E+10	1	-1E+10	1	-1E+10	1	-1E+10	1	-1E+10	1
4901784	62	C	03/16/2017	10:44	-132.233	43.994	0	203.00	0	7.3780	0	33.9810	4	26.566	0	201.272	0	155.9	4	53.2	4	-1E+10	1	-1E+10	1	-1E+10	1	-1E+10	1	-1E+10	1	-1E+10	1
4901784	62	C	03/16/2017	10:44	-132.233	43.994	0	204.70	0	7.3450	0	33.9810	4	26.571	0	202.957	0	155.2	4	52.9	4	-1E+10	1	-1E+10	1	-1E+10	1	-1E+10	1	-1E+10	1	-1E+10	1
4901784	62	C	03/16/2017	10:44	-132.233	43.994	0	207.40	0	7.3050	0	33.9810	4	26.577	0	205.632	0	154.5	4	52.6	4	-1E+10	1	-1E+10	1	-1E+10	1	-1E+10	1	-1E+10	1	-1E+10	1
4901784	62	C	03/16/2017	10:44	-132.233	43.994	0	210.10	0	7.2770	0	33.9820	4	26.581	0	208.308	0	153.7	4	52.3	4	-1E+10	1	-1E+10	1	-1E+10	1	-1E+10	1	-1E+10	1	-1E+10	1
4901784	62	C	03/16/2017	10:44	-132.233	43.994	0	212.00	0	7.2550	0	33.9830	4	26.585	0	210.191	0	153.3	4	52.2	4	-1E+10	1	-1E+10	1	-1E+10	1	-1E+10	1	-1E+10	1	-1E+10	1
4901784	62	C	03/16/2017	10:44	-132.233	43.994	0	214.70	0	7.2510	0	33.9820	4	26.585	0	212.866	0	152.5	4	51.9	4	-1E+10	1	-1E+10	1	-1E+10	1	-1E+10	1	-1E+10	1	-1E+10	1
4901784	62	C	03/16/2017	10:44	-132.233	43.994	0	217.30	0	7.2280	0	33.9830	4	26.589	0	215.443	0	151.4	4	51.5	4	-1E+10	1	-1E+10	1	-1E+10	1	-1E+10	1	-1E+10	1	-1E+10	1
4901784	62	C	03/16/2017	10:44	-132.233	43.994	0	220.10	0	7.1920	0	33.9820	4	26.593	0	218.217	0	150.1	4	51.0	4	-1E+10	1	-1E+10	1	-1E+10	1	-1E+10	1	-1E+10	1	-1E+10	1
4901784	62	C	03/16/2017	10:44	-132.233	43.994	0	222.80	0	7.1360	0	33.9830	4	26.602	0	220.893	0	148.9	4	50.5	4	-1E+10	1	-1E+10	1	-1E+10	1	-1E+10	1	-1E+10	1	-1E+10	1
4901784	62	C	03/16/2017	10:44	-132.233	43.994	0	224.60	0	7.1010	0	33.9840	4	26.608	0	222.676	0	148.3	4	50.3	4	-1E+10	1	-1E+10	1	-1E+10	1	-1E+10	1	-1E+10	1	-1E+10	1
4901784	62	C	03/16/2017	10:44	-132.233	43.994	0	227.40	0	7.0710	0	33.9860	4	26.613	0	225.451	0	147.4	4	49.9	4	-1E+10	1	-1E+10	1	-1E+10	1	-1E+10	1	-1E+10	1	-1E+10	1
4901784	62	C	03/16/2017	10:44	-132.233	43.994	0	230.20	0	7.0390	0	33.9850	4	26.617	0	228.225	0	146.7	4	49.7	4	-1E+10	1	-1E+10	1	-1E+10	1	-1E+10	1	-1E+10	1	-1E+10	1
4901784	62	C	03/16/2017	10:44	-132.233	43.994	0	232.10	0	7.0290	0	33.9830	4	26.617	0	230.108	0	146.1	4	49.5	4	-1E+10	1	-1E+10	1	-1E+10	1	-1E+10	1	-1E+10	1	-1E+10	1
4901784	62	C	03/16/2017	10:44	-132.233	43.994	0	234.80	0	6.9960	0	33.9850	4	26.623	0	232.783	0	145.4	4	49.2	4	-1E+10	1	-1E+10	1	-1E+10	1	-1E+10	1	-1E+10	1	-1E+10	1
4901784	62	C	03/16/2017	10:44	-132.233	43.994	0	237.60	0	6.9880	0	33.9840	4	26.623	0	235.558	0	144.6	4	48.9	4	-1E+10	1	-1E+10	1	-1E+10	1	-1E+10	1	-1E+10	1	-1E+10	1
4901784	62	C	03/16/2017	10:44	-132.233	43.994	0	240.30	0	6.9560	0	33.9850	4	26.628	0	238.233	0	143.6	4	48.5	4	-1E+10	1	-1E+10	1	-1E+10	1	-1E+10	1	-1E+10	1	-1E+10	1
4901784	62	C	03/16/2017	10:44	-132.233	43.994	0	243.00	0	6.9410	0	33.9860	4	26.631	0	240.908	0	142.4	4	48.1	4	-1E+10	1	-1E+10	1	-1E+10	1	-1E+10	1	-1E+10	1	-1E+10	1
4901784	62	C	03/16/2017	10:44	-132.233	43.994	0	244.90	0	6.8980	0	33.9850	4	26.636	0	242.791	0	141.3	4	47.7	4	-1E+10	1	-1E+10	1	-1E+10	1	-1E+10	1	-1E+10	1	-1E+10	1
4901784	62	C	03/16/2017	10:44	-132.233	43.994	0	247.50	0	6.8110	0	33.9850	4	26.648	0	245.367	0	139.8	4	47.1	4	-1E+10	1	-1E+10	1	-1E+10	1	-1E+10	1	-1E+10	1	-1E+10	1
4901784	62	C	03/16/2017	10:44	-132.233	43.994	0	250.20	0	6.7350	0	33.9850	4	26.658	0	248.042	0	138.4	4	46.5	4	-1E+10	1	-1E+10	1	-1E+10	1	-1E+10	1	-1E+10	1	-1E+10	1
4901784	62	C	03/16/2017	10:44	-132.233	43.994	0	252.00	0	6.7030	0	33.9840	4	26.662	0	249.825	0	137.7	4	46.3	4	-1E+10	1	-1E+10	1	-1E+10	1	-1E+10	1	-1E+10	1	-1E+10	1
4901784	62	C	03/16/2017	10:44	-132.233	43.994	0	254.70	0	6.6760	0	33.9830	4	26.665	0	252.500	0	136.6	4	45.9	4	-1E+10	1	-1E+10	1	-1E+10	1	-1E+10	1	-1E+10	1	-1E+10	1
4901784	62	C	03/16/2017	10:44	-132.233	43.994	0	257.40	0	6.6000	0	33.9830	4	26.675	0	255.175	0	135.3	4	45.4	4	-1E+10	1	-1E+10	1	-1E+10	1	-1E+10	1	-1E+10	1	-1E+10	1
4901784	62	C	03/16/2017	10:44	-132.233	43.994	0	260.20	0	6.5790	0	33.9830	4	26.678	0	257.949	0	134.4	4	45.0	4	-1E+10	1	-1E+10	1	-1E+10	1	-1E+10	1	-1E+10	1	-1E+10	1
4901784	62	C	03/16/2017	10:44	-132.233	43.994	0	263.00	0	6.5220	0	33.9830	4	26.685	0	260.723	0	133.4	4	44.6	4	-1E+10	1	-1E+10	1	-1E+10	1	-1E+10	1	-1E+10	1	-1E+10	1
4901784	62	C	03/16/2017	10:44	-132.233	43.994	0	264.90	0	6.4820	0	33.9820	4	26.690	0	262.606	0	133.2	4	44.5	4	-1E+10	1	-1E+10	1	-1E+10	1	-1E+10	1	-1E+10	1	-1E+10	1
4901784	62	C	03/16/2017	10:44	-132.233	43.994	0	267.70	0	6.4590	0	33.9820	4	26.693	0	265.380	0	132.1	4	44.1	4	-1E+10	1	-1E+10	1	-1E+10	1	-1E+10	1	-1E+10	1	-1E+10	1
4901784	62	C	03/16/2017	10:44	-132.233	43.994	0	270.60	0	6.4360	0	33.9810	4	26.695	0	268.253	0	130.7	4	43.6	4	-1E+10	1	-1E+10	1	-1E+10	1	-1E+10	1	-1E+10	1	-1E+10	1
4901784	62	C	03/16/2017	10:44	-132.233	43.994	0	272.40	0	6.3760	0	33.9830	4	26.704	0	270.036	0	129.8	4	43.3	4	-1E+10	1	-1E+10	1	-1E+10	1	-1E+10	1	-1E+10	1	-1E+10	1
4901784	62	C	03/16/2017	10:44	-132.233	43.994	0	275.20	0	6.3710	0	33.9810	4	26.703	0	272.810	0	128.6	4	42.9	4	-1E+10	1	-1E+10	1	-1E+10	1	-1E+10	1	-1E+10	1	-1E+10	1
4901784	62	C	03/16/2017	10:44	-132.233	43.994	0	278.00	0	6.3330	0	33.9840	4	26.711	0	275.584	0	126.9	4	42.3	4	-1E+10	1	-1E+10	1	-1E+10	1	-1E+10	1	-1E+10	1	-1E+10	1
4901784	62	C	03/16/2017	10:44	-132.233	43.994	0	279.80	0	6.3030	0	33.9810	4	26.712	0	277.367	0	126.1	4	42.0	4	-1E+10	1	-1E+10	1	-1E+10	1	-1E+10	1	-1E+10	1	-1E+10	1
4901784	62	C	03/16/2017	10:44	-132.233	43.994	0	282.10	0	6.2640	0	33.9810	4	26.717	0	279.645	0	125.0	4	41.6	4	-1E+10	1	-1E+10	1	-1E+10	1	-1E+10	1	-1E+10	1	-1E+10	1
4901784	62	C	03/16/2017	10:44	-132.233	43.994	0	284.80	0	6.2240	0	33.9810	4	26.722	0	282.320	0	123.5	4	41.0	4	-1E+10	1	-1E+10	1	-1E+10	1	-1E+10	1	-1E+10	1	-1E+10	1
4901784	62	C	03/16/2017	10:44	-132.233	43.994	0	287.80	0	6.1870	0	33.9800	4	26.726	0	285.292	0	121.5	4	40.3	4	-1E+10	1	-1E+10	1	-1E+10	1	-1E+10	1	-1E+10	1	-1E+10	1
4901784	62	C	03/16/2017	10:44	-132.233	43.994	0	290.10	0	6.1460	0	33.9800	4	26.732	0	287.570	0	120.0	4	39.8	4	-1E+10	1	-1E+10	1	-1E+10	1	-1E+10	1	-1E+10	1	-1E+10	1
4901784	62	C	03/16/2017	10:44	-132.233	43.994	0	292.60	0	6.1170	0	33.9790	4	26.734	0	290.046	0	118.6	4	39.3	4	-1E+10	1	-1E+10	1	-1E+10	1	-1E+10	1	-1E+10	1	-1E+10	1
4901784	62	C	03/16/2017	10:44	-132.233	43.994	0	295.00	0	6.0330	0	33.9800	4	26.746	0	292.424	0	117.1	4	38.7	4	-1E+10	1	-1E+10	1	-1E+10	1	-1E+10	1	-1E+10	1	-1E+10	1
4901784	62	C	03/16/2017	10:44	-132.233	43.994	0	297.40	0	6.0200	0	33.9810	4	26.748	0	294.801	0	116.0	4	38.4	4	-1E+10	1	-1E+10	1	-1E+10	1	-1E+10	1	-1E+10	1	-1E+10	1
4901784	62	C	03/16/2017	10:44	-132.233	43.994	0	299.90	0	6.0100	0	33.9800	4	26.749	0	297.277	0	114.8	4	38.0	4	-1E+10	1	-1E+10	1	-1E+10	1	-1E+10	1	-1E+10	1	-1E+10	1
4901784	62	C	03/16/2017	10:44	-132.233	43.994	0	302.30	0	5.9680	0	33.9810	4	26.755	0	299.655	0	114.0	4	37.6	4	-1E+10	1	-1E+10	1	-1E+10	1	-1E+10	1	-1E+10	1	-1E+10	1
4901784	62	C	03/16/2017	10:44	-132.233	43.994	0	304.70	0	5.9520	0	33.9800	4	26.756	0	302.032	0	112.9	4	37.3	4	-1E+10	1	-1E+10	1	-1E+10	1	-1E+10	1	-1E+10	1	-1E+10	1
4901784	62	C	03/16/2017	10:44	-132.233	43.994	0	307.20	0	5.9220	0	33.9790	4	26.759	0	304.508	0	111.5	4	36.8	4	-1E+10	1	-1E+10	1	-1E+10	1	-1E+10	1	-1E+10	1	-1E+10	1
4901784	62	C	03/16/2017	10:44	-132.233	43.994	0	310.30	0	5.8780	0	33.9790	4	26.765	0	307.579	0	108.8	4	35.9	4	-1E+10	1	-1E+10	1	-1E+10	1	-1E+10	1	-1E+10	1	-1E+10	1
4901784	62	C	03/16/2017	10:44	-132.233	43.994	0	312.70	0	5.7870	0	33.9830	4	26.779	0	309.956	0	106.6	4	35.1	4	-1E+10	1	-1E+10	1	-1E+10	1	-1E+10	1	-1E+10	1	-1E+10	1
4901784	62	C	03/16/2017	10:44	-132.233	43.994	0	315.20	0	5.7320	0	33.9820	4	26.785	0	312.432	0	105.3	4	34.6	4	-1E+10	1	-1E+10	1	-1E+10	1	-1E+10	1	-1E+10	1	-1E+10	1
4901784	62	C	03/16/2017	10:44	-132.233	43.994	0	317.60	0	5.7060	0	33.9810	4	26.787	0	314.809	0	104.0	4	34.2	4	-1E+10	1	-1E+10	1	-1E+10	1	-1E+10	1	-1E+10	1	-1E+10	1
4901784	62	C	03/16/2017	10:44	-132.233	43.994	0	320.20	0	5.6770	0	33.9810	4	26.791	0	317.384	0	102.3	4	33.6	4	-1E+10	1	-1E+10	1	-1E+10	1	-1E+10	1	-1E+10	1	-1E+10	1
4901784	62	C	03/16/2017	10:44	-132.233	43.994	0	322.60	0	5.6460	0	33.9810	4	26.795	0	319.761	0	100.4	4	32.9	4	-1E+10	1	-1E+10	1	-1E+10	1	-1E+10	1	-1E+10	1	-1E+10	1
4901784	62	C	03/16/2017	10:44	-132.233	43.994	0	325.20	0	5.5680	0	33.9840	4	26.806	0	322.337	0	98.7	4	32.3	4	-1E+10	1	-1E+10	1	-1E+10	1	-1E+10	1	-1E+10	1	-1E+10	1
4901784	62	C	03/16/2017	10:44	-132.233	43.994	0	327.60	0	5.5260	0	33.9850	4	26.812	0	324.714	0	97.5	4	31.9	4	-1E+10	1	-1E+10	1	-1E+10	1	-1E+10	1	-1E+10	1	-1E+10	1
4901784	62	C	03/16/2017	10:44	-132.233	43.994	0	330.20	0	5.4950	0	33.9850	4	26.816	0	327.289	0	96.2	4	31.4	4	-1E+10	1	-1E+10	1	-1E+10	1	-1E+10	1	-1E+10	1	-1E+10	1
4901784	62	C	03/16/2017	10:44	-132.233	43.994	0	332.70	0	5.4610	0	33.9860	4	26.821	0	329.765	0	94.8	4	31.0	4	-1E+10	1	-1E+10	1	-1E+10	1	-1E+10	1	-1E+10	1	-1E+10	1
4901784	62	C	03/16/2017	10:44	-132.233	43.994	0	335.30	0	5.4400	0	33.9870	4	26.824	0	332.339	0	93.5	4	30.5	4	-1E+10	1	-1E+10	1	-1E+10	1	-1E+10	1	-1E+10	1	-1E+10	1
4901784	62	C	03/16/2017	10:44	-132.233	43.994	0	337.90	0	5.4170	0	33.9890	4	26.829	0	334.914	0	92.3	4	30.1	4	-1E+10	1	-1E+10	1	-1E+10	1	-1E+10	1	-1E+10	1	-1E+10	1
4901784	62	C	03/16/2017	10:44	-132.233	43.994	0	339.60	0	5.3910	0	33.9910	4	26.833	0	336.598	0	91.6	4	29.8	4	-1E+10	1	-1E+10	1	-1E+10	1	-1E+10	1	-1E+10	1	-1E+10	1
4901784	62	C	03/16/2017	10:44	-132.233	43.994	0	342.20	0	5.3590	0	33.9910	4	26.837	0	339.173	0	90.6	4	29.5	4	-1E+10	1	-1E+10	1	-1E+10	1	-1E+10	1	-1E+10	1	-1E+10	1
4901784	62	C	03/16/2017	10:44	-132.233	43.994	0	344.90	0	5.3480	0	33.9920	4	26.839	0	341.847	0	89.7	4	29.2	4	-1E+10	1	-1E+10	1	-1E+10	1	-1E+10	1	-1E+10	1	-1E+10	1
4901784	62	C	03/16/2017	10:44	-132.233	43.994	0	347.50	0	5.3210	0	33.9920	4	26.842	0	344.422	0	88.7	4	28.9	4	-1E+10	1	-1E+10	1	-1E+10	1	-1E+10	1	-1E+10	1	-1E+10	1
4901784	62	C	03/16/2017	10:44	-132.233	43.994	0	350.20	0	5.2970	0	33.9940	4	26.847	0	347.095	0	87.6	4	28.5	4	-1E+10	1	-1E+10	1	-1E+10	1	-1E+10	1	-1E+10	1	-1E+10	1
4901784	62	C	03/16/2017	10:44	-132.233	43.994	0	352.00	0	5.2790	0	33.9950	4	26.850	0	348.878	0	86.9	4	28.2	4	-1E+10	1	-1E+10	1	-1E+10	1	-1E+10	1	-1E+10	1	-1E+10	1
4901784	62	C	03/16/2017	10:44	-132.233	43.994	0	354.70	0	5.2580	0	33.9960	4	26.853	0	351.552	0	86.0	4	27.9	4	-1E+10	1	-1E+10	1	-1E+10	1	-1E+10	1	-1E+10	1	-1E+10	1
4901784	62	C	03/16/2017	10:44	-132.233	43.994	0	357.40	0	5.2430	0	33.9950	4	26.854	0	354.225	0	84.9	4	27.6	4	-1E+10	1	-1E+10	1	-1E+10	1	-1E+10	1	-1E+10	1	-1E+10	1
4901784	62	C	03/16/2017	10:44	-132.233	43.994	0	360.20	0	5.2230	0	33.9970	4	26.858	0	356.998	0	83.5	4	27.1	4	-1E+10	1	-1E+10	1	-1E+10	1	-1E+10	1	-1E+10	1	-1E+10	1
4901784	62	C	03/16/2017	10:44	-132.233	43.994	0	362.90	0	5.2010	0	33.9980	4	26.861	0	359.672	0	82.0	4	26.6	4	-1E+10	1	-1E+10	1	-1E+10	1	-1E+10	1	-1E+10	1	-1E+10	1
4901784	62	C	03/16/2017	10:44	-132.233	43.994	0	364.70	0	5.1710	0	34.0000	4	26.866	0	361.454	0	80.6	4	26.1	4	-1E+10	1	-1E+10	1	-1E+10	1	-1E+10	1	-1E+10	1	-1E+10	1
4901784	62	C	03/16/2017	10:44	-132.233	43.994	0	367.50	0	5.1500	0	34.0070	4	26.874	0	364.227	0	79.0	4	25.6	4	-1E+10	1	-1E+10	1	-1E+10	1	-1E+10	1	-1E+10	1	-1E+10	1
4901784	62	C	03/16/2017	10:44	-132.233	43.994	0	370.20	0	5.1370	0	34.0090	4	26.877	0	366.900	0	77.9	4	25.2	4	-1E+10	1	-1E+10	1	-1E+10	1	-1E+10	1	-1E+10	1	-1E+10	1
4901784	62	C	03/16/2017	10:44	-132.233	43.994	0	372.10	0	5.1220	0	34.0100	4	26.880	0	368.782	0	77.1	4	25.0	4	-1E+10	1	-1E+10	1	-1E+10	1	-1E+10	1	-1E+10	1	-1E+10	1
4901784	62	C	03/16/2017	10:44	-132.233	43.994	0	375.00	0	5.1000	0	34.0130	4	26.885	0	371.653	0	75.7	4	24.5	4	-1E+10	1	-1E+10	1	-1E+10	1	-1E+10	1	-1E+10	1	-1E+10	1
4901784	62	C	03/16/2017	10:44	-132.233	43.994	0	377.80	0	5.1030	0	34.0180	4	26.888	0	374.426	0	74.6	4	24.1	4	-1E+10	1	-1E+10	1	-1E+10	1	-1E+10	1	-1E+10	1	-1E+10	1
4901784	62	C	03/16/2017	10:44	-132.233	43.994	0	379.70	0	5.0960	0	34.0180	4	26.889	0	376.307	0	73.9	4	23.9	4	-1E+10	1	-1E+10	1	-1E+10	1	-1E+10	1	-1E+10	1	-1E+10	1
4901784	62	C	03/16/2017	10:44	-132.233	43.994	0	382.60	0	5.0840	0	34.0200	4	26.892	0	379.179	0	72.4	4	23.4	4	-1E+10	1	-1E+10	1	-1E+10	1	-1E+10	1	-1E+10	1	-1E+10	1
4901784	62	C	03/16/2017	10:44	-132.233	43.994	0	385.40	0	5.0760	0	34.0250	4	26.897	0	381.951	0	70.8	4	22.9	4	-1E+10	1	-1E+10	1	-1E+10	1	-1E+10	1	-1E+10	1	-1E+10	1
4901784	62	C	03/16/2017	10:44	-132.233	43.994	0	387.30	0	5.0800	0	34.0230	4	26.895	0	383.832	0	69.7	4	22.5	4	-1E+10	1	-1E+10	1	-1E+10	1	-1E+10	1	-1E+10	1	-1E+10	1
4901784	62	C	03/16/2017	10:44	-132.233	43.994	0	390.10	0	5.0720	0	34.0290	4	26.901	0	386.605	0	67.6	4	21.9	4	-1E+10	1	-1E+10	1	-1E+10	1	-1E+10	1	-1E+10	1	-1E+10	1
4901784	62	C	03/16/2017	10:44	-132.233	43.994	0	393.00	0	5.0800	0	34.0380	4	26.907	0	389.476	0	65.5	4	21.2	4	-1E+10	1	-1E+10	1	-1E+10	1	-1E+10	1	-1E+10	1	-1E+10	1
4901784	62	C	03/16/2017	10:44	-132.233	43.994	0	394.80	0	5.0780	0	34.0440	4	26.912	0	391.258	0	64.2	4	20.8	4	-1E+10	1	-1E+10	1	-1E+10	1	-1E+10	1	-1E+10	1	-1E+10	1
4901784	62	C	03/16/2017	10:44	-132.233	43.994	0	397.60	0	5.0780	0	34.0480	4	26.915	0	394.030	0	62.8	4	20.3	4	-1E+10	1	-1E+10	1	-1E+10	1	-1E+10	1	-1E+10	1	-1E+10	1
4901784	62	C	03/16/2017	10:44	-132.233	43.994	0	400.50	0	5.0770	0	34.0490	4	26.916	0	396.901	0	61.4	4	19.9	4	-1E+10	1	-1E+10	1	-1E+10	1	-1E+10	1	-1E+10	1	-1E+10	1
4901784	62	C	03/16/2017	10:44	-132.233	43.994	0	402.40	0	5.0750	0	34.0510	4	26.918	0	398.783	0	60.0	4	19.4	4	-1E+10	1	-1E+10	1	-1E+10	1	-1E+10	1	-1E+10	1	-1E+10	1
4901784	62	C	03/16/2017	10:44	-132.233	43.994	0	405.20	0	5.0840	0	34.0620	4	26.926	0	401.555	0	58.1	4	18.8	4	-1E+10	1	-1E+10	1	-1E+10	1	-1E+10	1	-1E+10	1	-1E+10	1
4901784	62	C	03/16/2017	10:44	-132.233	43.994	0	408.40	0	5.0800	0	34.0650	4	26.929	0	404.723	0	57.0	4	18.4	4	-1E+10	1	-1E+10	1	-1E+10	1	-1E+10	1	-1E+10	1	-1E+10	1
4901784	62	C	03/16/2017	10:44	-132.233	43.994	0	409.70	0	5.0730	0	34.0670	4	26.931	0	406.010	0	56.2	4	18.2	4	-1E+10	1	-1E+10	1	-1E+10	1	-1E+10	1	-1E+10	1	-1E+10	1
4901784	62	C	03/16/2017	10:44	-132.233	43.994	0	412.30	0	5.0540	0	34.0710	4	26.936	0	408.584	0	55.0	4	17.8	4	-1E+10	1	-1E+10	1	-1E+10	1	-1E+10	1	-1E+10	1	-1E+10	1
4901784	62	C	03/16/2017	10:44	-132.233	43.994	0	414.70	0	5.0430	0	34.0740	4	26.940	0	410.960	0	54.0	4	17.4	4	-1E+10	1	-1E+10	1	-1E+10	1	-1E+10	1	-1E+10	1	-1E+10	1
4901784	62	C	03/16/2017	10:44	-132.233	43.994	0	417.20	0	5.0250	0	34.0750	4	26.943	0	413.435	0	52.7	4	17.1	4	-1E+10	1	-1E+10	1	-1E+10	1	-1E+10	1	-1E+10	1	-1E+10	1
4901784	62	C	03/16/2017	10:44	-132.233	43.994	0	419.70	0	5.0110	0	34.0830	4	26.951	0	415.910	0	51.3	4	16.6	4	-1E+10	1	-1E+10	1	-1E+10	1	-1E+10	1	-1E+10	1	-1E+10	1
4901784	62	C	03/16/2017	10:44	-132.233	43.994	0	422.10	0	4.9880	0	34.0870	4	26.957	0	418.286	0	50.5	4	16.3	4	-1E+10	1	-1E+10	1	-1E+10	1	-1E+10	1	-1E+10	1	-1E+10	1
4901784	62	C	03/16/2017	10:44	-132.233	43.994	0	424.60	0	4.9750	0	34.0890	4	26.960	0	420.760	0	50.0	4	16.2	4	-1E+10	1	-1E+10	1	-1E+10	1	-1E+10	1	-1E+10	1	-1E+10	1
4901784	62	C	03/16/2017	10:44	-132.233	43.994	0	427.80	0	4.9700	0	34.0890	4	26.960	0	423.928	0	49.2	4	15.9	4	-1E+10	1	-1E+10	1	-1E+10	1	-1E+10	1	-1E+10	1	-1E+10	1
4901784	62	C	03/16/2017	10:44	-132.233	43.994	0	430.30	0	4.9470	0	34.0920	4	26.965	0	426.403	0	48.3	4	15.6	4	-1E+10	1	-1E+10	1	-1E+10	1	-1E+10	1	-1E+10	1	-1E+10	1
4901784	62	C	03/16/2017	10:44	-132.233	43.994	0	432.80	0	4.9160	0	34.0940	4	26.970	0	428.878	0	47.9	4	15.5	4	-1E+10	1	-1E+10	1	-1E+10	1	-1E+10	1	-1E+10	1	-1E+10	1
4901784	62	C	03/16/2017	10:44	-132.233	43.994	0	435.30	0	4.8850	0	34.0950	4	26.975	0	431.353	0	47.5	4	15.3	4	-1E+10	1	-1E+10	1	-1E+10	1	-1E+10	1	-1E+10	1	-1E+10	1
4901784	62	C	03/16/2017	10:44	-132.233	43.994	0	437.80	0	4.8760	0	34.0970	4	26.977	0	433.827	0	47.0	4	15.1	4	-1E+10	1	-1E+10	1	-1E+10	1	-1E+10	1	-1E+10	1	-1E+10	1
4901784	62	C	03/16/2017	10:44	-132.233	43.994	0	440.30	0	4.8670	0	34.0980	4	26.979	0	436.302	0	46.5	4	15.0	4	-1E+10	1	-1E+10	1	-1E+10	1	-1E+10	1	-1E+10	1	-1E+10	1
4901784	62	C	03/16/2017	10:44	-132.233	43.994	0	442.90	0	4.8610	0	34.1000	4	26.981	0	438.876	0	45.8	4	14.8	4	-1E+10	1	-1E+10	1	-1E+10	1	-1E+10	1	-1E+10	1	-1E+10	1
4901784	62	C	03/16/2017	10:44	-132.233	43.994	0	445.40	0	4.8560	0	34.1030	4	26.984	0	441.350	0	45.2	4	14.6	4	-1E+10	1	-1E+10	1	-1E+10	1	-1E+10	1	-1E+10	1	-1E+10	1
4901784	62	C	03/16/2017	10:44	-132.233	43.994	0	447.10	0	4.8470	0	34.1030	4	26.985	0	443.033	0	44.8	4	14.4	4	-1E+10	1	-1E+10	1	-1E+10	1	-1E+10	1	-1E+10	1	-1E+10	1
4901784	62	C	03/16/2017	10:44	-132.233	43.994	0	449.70	0	4.8360	0	34.1050	4	26.988	0	445.607	0	44.2	4	14.2	4	-1E+10	1	-1E+10	1	-1E+10	1	-1E+10	1	-1E+10	1	-1E+10	1
4901784	62	C	03/16/2017	10:44	-132.233	43.994	0	452.30	0	4.8170	0	34.1080	4	26.993	0	448.180	0	43.6	4	14.0	4	-1E+10	1	-1E+10	1	-1E+10	1	-1E+10	1	-1E+10	1	-1E+10	1
4901784	62	C	03/16/2017	10:44	-132.233	43.994	0	454.90	0	4.8070	0	34.1090	4	26.995	0	450.754	0	43.1	4	13.9	4	-1E+10	1	-1E+10	1	-1E+10	1	-1E+10	1	-1E+10	1	-1E+10	1
4901784	62	C	03/16/2017	10:44	-132.233	43.994	0	457.50	0	4.8000	0	34.1100	4	26.996	0	453.327	0	42.5	4	13.7	4	-1E+10	1	-1E+10	1	-1E+10	1	-1E+10	1	-1E+10	1	-1E+10	1
4901784	62	C	03/16/2017	10:44	-132.233	43.994	0	460.00	0	4.7830	0	34.1130	4	27.001	0	455.802	0	41.7	4	13.4	4	-1E+10	1	-1E+10	1	-1E+10	1	-1E+10	1	-1E+10	1	-1E+10	1
4901784	62	C	03/16/2017	10:44	-132.233	43.994	0	462.60	0	4.7580	0	34.1170	4	27.007	0	458.375	0	40.9	4	13.2	4	-1E+10	1	-1E+10	1	-1E+10	1	-1E+10	1	-1E+10	1	-1E+10	1
4901784	62	C	03/16/2017	10:44	-132.233	43.994	0	465.10	0	4.7470	0	34.1190	4	27.009	0	460.849	0	40.4	4	13.0	4	-1E+10	1	-1E+10	1	-1E+10	1	-1E+10	1	-1E+10	1	-1E+10	1
4901784	62	C	03/16/2017	10:44	-132.233	43.994	0	467.70	0	4.7360	0	34.1200	4	27.011	0	463.423	0	39.8	4	12.8	4	-1E+10	1	-1E+10	1	-1E+10	1	-1E+10	1	-1E+10	1	-1E+10	1
4901784	62	C	03/16/2017	10:44	-132.233	43.994	0	470.30	0	4.7250	0	34.1220	4	27.014	0	465.996	0	39.1	4	12.6	4	-1E+10	1	-1E+10	1	-1E+10	1	-1E+10	1	-1E+10	1	-1E+10	1
4901784	62	C	03/16/2017	10:44	-132.233	43.994	0	472.80	0	4.7110	0	34.1260	4	27.019	0	468.470	0	38.5	4	12.4	4	-1E+10	1	-1E+10	1	-1E+10	1	-1E+10	1	-1E+10	1	-1E+10	1
4901784	62	C	03/16/2017	10:44	-132.233	43.994	0	475.40	0	4.7010	0	34.1280	4	27.022	0	471.043	0	38.0	4	12.2	4	-1E+10	1	-1E+10	1	-1E+10	1	-1E+10	1	-1E+10	1	-1E+10	1
4901784	62	C	03/16/2017	10:44	-132.233	43.994	0	478.00	0	4.6830	0	34.1300	4	27.025	0	473.617	0	37.5	4	12.0	4	-1E+10	1	-1E+10	1	-1E+10	1	-1E+10	1	-1E+10	1	-1E+10	1
4901784	62	C	03/16/2017	10:44	-132.233	43.994	0	479.70	0	4.6770	0	34.1310	4	27.027	0	475.299	0	37.2	4	11.9	4	-1E+10	1	-1E+10	1	-1E+10	1	-1E+10	1	-1E+10	1	-1E+10	1
4901784	62	C	03/16/2017	10:44	-132.233	43.994	0	482.20	0	4.6680	0	34.1330	4	27.029	0	477.773	0	36.7	4	11.8	4	-1E+10	1	-1E+10	1	-1E+10	1	-1E+10	1	-1E+10	1	-1E+10	1
4901784	62	C	03/16/2017	10:44	-132.233	43.994	0	484.80	0	4.6540	0	34.1360	4	27.033	0	480.346	0	36.2	4	11.6	4	-1E+10	1	-1E+10	1	-1E+10	1	-1E+10	1	-1E+10	1	-1E+10	1
4901784	62	C	03/16/2017	10:44	-132.233	43.994	0	487.30	0	4.6370	0	34.1400	4	27.038	0	482.821	0	35.8	4	11.5	4	-1E+10	1	-1E+10	1	-1E+10	1	-1E+10	1	-1E+10	1	-1E+10	1
4901784	62	C	03/16/2017	10:44	-132.233	43.994	0	489.90	0	4.6340	0	34.1400	4	27.039	0	485.394	0	35.6	4	11.4	4	-1E+10	1	-1E+10	1	-1E+10	1	-1E+10	1	-1E+10	1	-1E+10	1
4901784	62	C	03/16/2017	10:44	-132.233	43.994	0	492.50	0	4.6320	0	34.1400	4	27.039	0	487.967	0	35.3	4	11.3	4	-1E+10	1	-1E+10	1	-1E+10	1	-1E+10	1	-1E+10	1	-1E+10	1
4901784	62	C	03/16/2017	10:44	-132.233	43.994	0	495.10	0	4.6230	0	34.1410	4	27.041	0	490.540	0	34.9	4	11.2	4	-1E+10	1	-1E+10	1	-1E+10	1	-1E+10	1	-1E+10	1	-1E+10	1
4901784	62	C	03/16/2017	10:44	-132.233	43.994	0	497.70	0	4.6030	0	34.1440	4	27.045	0	493.113	0	34.5	4	11.0	4	-1E+10	1	-1E+10	1	-1E+10	1	-1E+10	1	-1E+10	1	-1E+10	1
4901784	62	C	03/16/2017	10:44	-132.233	43.994	0	500.30	0	4.5960	0	34.1450	4	27.047	0	495.686	0	34.0	4	10.9	4	-1E+10	1	-1E+10	1	-1E+10	1	-1E+10	1	-1E+10	1	-1E+10	1
4901784	62	C	03/16/2017	10:44	-132.233	43.994	0	505.60	0	4.5860	0	34.1510	4	27.053	0	500.930	0	33.1	4	10.6	4	-1E+10	1	-1E+10	1	-1E+10	1	-1E+10	1	-1E+10	1	-1E+10	1
4901784	62	C	03/16/2017	10:44	-132.233	43.994	0	510.10	0	4.5770	0	34.1520	4	27.055	0	505.383	0	32.5	4	10.4	4	-1E+10	1	-1E+10	1	-1E+10	1	-1E+10	1	-1E+10	1	-1E+10	1
4901784	62	C	03/16/2017	10:44	-132.233	43.994	0	514.60	0	4.5590	0	34.1560	4	27.060	0	509.836	0	31.8	4	10.2	4	-1E+10	1	-1E+10	1	-1E+10	1	-1E+10	1	-1E+10	1	-1E+10	1
4901784	62	C	03/16/2017	10:44	-132.233	43.994	0	520.00	0	4.5400	0	34.1590	4	27.064	0	515.180	0	31.0	4	9.9	4	-1E+10	1	-1E+10	1	-1E+10	1	-1E+10	1	-1E+10	1	-1E+10	1
4901784	62	C	03/16/2017	10:44	-132.233	43.994	0	525.40	0	4.5180	0	34.1640	4	27.071	0	520.523	0	30.0	4	9.6	4	-1E+10	1	-1E+10	1	-1E+10	1	-1E+10	1	-1E+10	1	-1E+10	1
4901784	62	C	03/16/2017	10:44	-132.233	43.994	0	529.90	0	4.5030	0	34.1680	4	27.076	0	524.975	0	29.5	4	9.4	4	-1E+10	1	-1E+10	1	-1E+10	1	-1E+10	1	-1E+10	1	-1E+10	1
4901784	62	C	03/16/2017	10:44	-132.233	43.994	0	534.40	0	4.4970	0	34.1700	4	27.078	0	529.428	0	29.1	4	9.3	4	-1E+10	1	-1E+10	1	-1E+10	1	-1E+10	1	-1E+10	1	-1E+10	1
4901784	62	C	03/16/2017	10:44	-132.233	43.994	0	539.90	0	4.4900	0	34.1720	4	27.080	0	534.869	0	28.4	4	9.1	4	-1E+10	1	-1E+10	1	-1E+10	1	-1E+10	1	-1E+10	1	-1E+10	1
4901784	62	C	03/16/2017	10:44	-132.233	43.994	0	545.40	0	4.4750	0	34.1770	4	27.086	0	540.311	0	27.5	4	8.8	4	-1E+10	1	-1E+10	1	-1E+10	1	-1E+10	1	-1E+10	1	-1E+10	1
4901784	62	C	03/16/2017	10:44	-132.233	43.994	0	549.90	0	4.4620	0	34.1810	4	27.090	0	544.763	0	26.8	4	8.6	4	-1E+10	1	-1E+10	1	-1E+10	1	-1E+10	1	-1E+10	1	-1E+10	1
4901784	62	C	03/16/2017	10:44	-132.233	43.994	0	554.60	0	4.4540	0	34.1830	4	27.093	0	549.413	0	26.2	4	8.4	4	-1E+10	1	-1E+10	1	-1E+10	1	-1E+10	1	-1E+10	1	-1E+10	1
4901784	62	C	03/16/2017	10:44	-132.233	43.994	0	560.10	0	4.4330	0	34.1890	4	27.100	0	554.854	0	25.2	4	8.0	4	-1E+10	1	-1E+10	1	-1E+10	1	-1E+10	1	-1E+10	1	-1E+10	1
4901784	62	C	03/16/2017	10:44	-132.233	43.994	0	565.50	0	4.4060	0	34.1960	4	27.109	0	560.196	0	24.1	4	7.7	4	-1E+10	1	-1E+10	1	-1E+10	1	-1E+10	1	-1E+10	1	-1E+10	1
4901784	62	C	03/16/2017	10:44	-132.233	43.994	0	570.00	0	4.3840	0	34.2030	4	27.116	0	564.648	0	23.6	4	7.5	4	-1E+10	1	-1E+10	1	-1E+10	1	-1E+10	1	-1E+10	1	-1E+10	1
4901784	62	C	03/16/2017	10:44	-132.233	43.994	0	574.50	0	4.3800	0	34.2040	4	27.118	0	569.100	0	23.3	4	7.4	4	-1E+10	1	-1E+10	1	-1E+10	1	-1E+10	1	-1E+10	1	-1E+10	1
4901784	62	C	03/16/2017	10:44	-132.233	43.994	0	580.10	0	4.3750	0	34.2060	4	27.120	0	574.639	0	22.8	4	7.3	4	-1E+10	1	-1E+10	1	-1E+10	1	-1E+10	1	-1E+10	1	-1E+10	1
4901784	62	C	03/16/2017	10:44	-132.233	43.994	0	585.60	0	4.3600	0	34.2090	4	27.124	0	580.080	0	22.0	4	7.0	4	-1E+10	1	-1E+10	1	-1E+10	1	-1E+10	1	-1E+10	1	-1E+10	1
4901784	62	C	03/16/2017	10:44	-132.233	43.994	0	590.20	0	4.3290	0	34.2170	4	27.134	0	584.630	0	21.3	4	6.8	4	-1E+10	1	-1E+10	1	-1E+10	1	-1E+10	1	-1E+10	1	-1E+10	1
4901784	62	C	03/16/2017	10:44	-132.233	43.994	0	594.80	0	4.3140	0	34.2210	4	27.138	0	589.180	0	20.7	4	6.6	4	-1E+10	1	-1E+10	1	-1E+10	1	-1E+10	1	-1E+10	1	-1E+10	1
4901784	62	C	03/16/2017	10:44	-132.233	43.994	0	600.30	0	4.2920	0	34.2280	4	27.146	0	594.620	0	20.0	4	6.4	4	-1E+10	1	-1E+10	1	-1E+10	1	-1E+10	1	-1E+10	1	-1E+10	1
4901784	62	C	03/16/2017	10:44	-132.233	43.994	0	605.50	0	4.2760	0	34.2340	4	27.153	0	599.764	0	19.4	4	6.2	4	-1E+10	1	-1E+10	1	-1E+10	1	-1E+10	1	-1E+10	1	-1E+10	1
4901784	62	C	03/16/2017	10:44	-132.233	43.994	0	610.30	0	4.2590	0	34.2390	4	27.159	0	604.511	0	18.9	4	6.0	4	-1E+10	1	-1E+10	1	-1E+10	1	-1E+10	1	-1E+10	1	-1E+10	1
4901784	62	C	03/16/2017	10:44	-132.233	43.994	0	615.10	0	4.2490	0	34.2420	4	27.162	0	609.259	0	18.6	4	5.9	4	-1E+10	1	-1E+10	1	-1E+10	1	-1E+10	1	-1E+10	1	-1E+10	1
4901784	62	C	03/16/2017	10:44	-132.233	43.994	0	620.00	0	4.2330	0	34.2460	4	27.167	0	614.105	0	18.1	4	5.8	4	-1E+10	1	-1E+10	1	-1E+10	1	-1E+10	1	-1E+10	1	-1E+10	1
4901784	62	C	03/16/2017	10:44	-132.233	43.994	0	624.90	0	4.2190	0	34.2500	4	27.172	0	618.951	0	17.5	4	5.6	4	-1E+10	1	-1E+10	1	-1E+10	1	-1E+10	1	-1E+10	1	-1E+10	1
4901784	62	C	03/16/2017	10:44	-132.233	43.994	0	629.80	0	4.1930	0	34.2580	4	27.181	0	623.797	0	17.0	4	5.4	4	-1E+10	1	-1E+10	1	-1E+10	1	-1E+10	1	-1E+10	1	-1E+10	1
4901784	62	C	03/16/2017	10:44	-132.233	43.994	0	634.80	0	4.1610	0	34.2650	4	27.190	0	628.742	0	16.7	4	5.3	4	-1E+10	1	-1E+10	1	-1E+10	1	-1E+10	1	-1E+10	1	-1E+10	1
4901784	62	C	03/16/2017	10:44	-132.233	43.994	0	640.00	0	4.1400	0	34.2680	4	27.194	0	633.884	0	16.4	4	5.2	4	-1E+10	1	-1E+10	1	-1E+10	1	-1E+10	1	-1E+10	1	-1E+10	1
4901784	62	C	03/16/2017	10:44	-132.233	43.994	0	645.10	0	4.1340	0	34.2720	4	27.198	0	638.928	0	16.0	4	5.1	4	-1E+10	1	-1E+10	1	-1E+10	1	-1E+10	1	-1E+10	1	-1E+10	1
4901784	62	C	03/16/2017	10:44	-132.233	43.994	0	650.30	0	4.1180	0	34.2790	4	27.205	0	644.070	0	15.6	4	5.0	4	-1E+10	1	-1E+10	1	-1E+10	1	-1E+10	1	-1E+10	1	-1E+10	1
4901784	62	C	03/16/2017	10:44	-132.233	43.994	0	655.40	0	4.1080	0	34.2810	4	27.208	0	649.113	0	15.5	4	4.9	4	-1E+10	1	-1E+10	1	-1E+10	1	-1E+10	1	-1E+10	1	-1E+10	1
4901784	62	C	03/16/2017	10:44	-132.233	43.994	0	660.70	0	4.1000	0	34.2840	4	27.211	0	654.354	0	15.3	4	4.8	4	-1E+10	1	-1E+10	1	-1E+10	1	-1E+10	1	-1E+10	1	-1E+10	1
4901784	62	C	03/16/2017	10:44	-132.233	43.994	0	665.00	0	4.0870	0	34.2870	4	27.215	0	658.606	0	15.1	4	4.8	4	-1E+10	1	-1E+10	1	-1E+10	1	-1E+10	1	-1E+10	1	-1E+10	1
4901784	62	C	03/16/2017	10:44	-132.233	43.994	0	669.40	0	4.0800	0	34.2890	4	27.217	0	662.957	0	15.0	4	4.7	4	-1E+10	1	-1E+10	1	-1E+10	1	-1E+10	1	-1E+10	1	-1E+10	1
4901784	62	C	03/16/2017	10:44	-132.233	43.994	0	674.60	0	4.0700	0	34.2920	4	27.221	0	668.098	0	14.8	4	4.7	4	-1E+10	1	-1E+10	1	-1E+10	1	-1E+10	1	-1E+10	1	-1E+10	1
4901784	62	C	03/16/2017	10:44	-132.233	43.994	0	680.00	0	4.0660	0	34.2930	4	27.222	0	673.438	0	14.6	4	4.6	4	-1E+10	1	-1E+10	1	-1E+10	1	-1E+10	1	-1E+10	1	-1E+10	1
4901784	62	C	03/16/2017	10:44	-132.233	43.994	0	685.40	0	4.0490	0	34.2980	4	27.228	0	678.777	0	14.3	4	4.5	4	-1E+10	1	-1E+10	1	-1E+10	1	-1E+10	1	-1E+10	1	-1E+10	1
4901784	62	C	03/16/2017	10:44	-132.233	43.994	0	689.90	0	4.0370	0	34.3010	4	27.232	0	683.226	0	14.1	4	4.5	4	-1E+10	1	-1E+10	1	-1E+10	1	-1E+10	1	-1E+10	1	-1E+10	1
4901784	62	C	03/16/2017	10:44	-132.233	43.994	0	694.40	0	4.0220	0	34.3050	4	27.236	0	687.675	0	13.9	4	4.4	4	-1E+10	1	-1E+10	1	-1E+10	1	-1E+10	1	-1E+10	1	-1E+10	1
4901784	62	C	03/16/2017	10:44	-132.233	43.994	0	699.80	0	3.9960	0	34.3100	4	27.243	0	693.014	0	13.7	4	4.3	4	-1E+10	1	-1E+10	1	-1E+10	1	-1E+10	1	-1E+10	1	-1E+10	1
4901784	62	C	03/16/2017	10:44	-132.233	43.994	0	705.20	0	3.9710	0	34.3140	4	27.249	0	698.352	0	13.6	4	4.3	4	-1E+10	1	-1E+10	1	-1E+10	1	-1E+10	1	-1E+10	1	-1E+10	1
4901784	62	C	03/16/2017	10:44	-132.233	43.994	0	709.80	0	3.9660	0	34.3170	4	27.252	0	702.900	0	13.3	4	4.2	4	-1E+10	1	-1E+10	1	-1E+10	1	-1E+10	1	-1E+10	1	-1E+10	1
4901784	62	C	03/16/2017	10:44	-132.233	43.994	0	714.40	0	3.9620	0	34.3200	4	27.255	0	707.447	0	13.2	4	4.2	4	-1E+10	1	-1E+10	1	-1E+10	1	-1E+10	1	-1E+10	1	-1E+10	1
4901784	62	C	03/16/2017	10:44	-132.233	43.994	0	719.80	0	3.9450	0	34.3230	4	27.259	0	712.785	0	13.2	4	4.2	4	-1E+10	1	-1E+10	1	-1E+10	1	-1E+10	1	-1E+10	1	-1E+10	1
4901784	62	C	03/16/2017	10:44	-132.233	43.994	0	725.40	0	3.9260	0	34.3260	4	27.263	0	718.321	0	13.2	4	4.2	4	-1E+10	1	-1E+10	1	-1E+10	1	-1E+10	1	-1E+10	1	-1E+10	1
4901784	62	C	03/16/2017	10:44	-132.233	43.994	0	729.90	0	3.9100	0	34.3290	4	27.267	0	722.770	0	13.1	4	4.1	4	-1E+10	1	-1E+10	1	-1E+10	1	-1E+10	1	-1E+10	1	-1E+10	1
4901784	62	C	03/16/2017	10:44	-132.233	43.994	0	734.50	0	3.9010	0	34.3310	4	27.270	0	727.317	0	13.0	4	4.1	4	-1E+10	1	-1E+10	1	-1E+10	1	-1E+10	1	-1E+10	1	-1E+10	1
4901784	62	C	03/16/2017	10:44	-132.233	43.994	0	740.10	0	3.8920	0	34.3340	4	27.273	0	732.852	0	12.8	4	4.0	4	-1E+10	1	-1E+10	1	-1E+10	1	-1E+10	1	-1E+10	1	-1E+10	1
4901784	62	C	03/16/2017	10:44	-132.233	43.994	0	744.80	0	3.8880	0	34.3360	4	27.275	0	737.498	0	12.7	4	4.0	4	-1E+10	1	-1E+10	1	-1E+10	1	-1E+10	1	-1E+10	1	-1E+10	1
4901784	62	C	03/16/2017	10:44	-132.233	43.994	0	749.50	0	3.8770	0	34.3390	4	27.279	0	742.143	0	12.6	4	4.0	4	-1E+10	1	-1E+10	1	-1E+10	1	-1E+10	1	-1E+10	1	-1E+10	1
4901784	62	C	03/16/2017	10:44	-132.233	43.994	0	755.10	0	3.8560	0	34.3450	4	27.285	0	747.678	0	12.4	4	3.9	4	-1E+10	1	-1E+10	1	-1E+10	1	-1E+10	1	-1E+10	1	-1E+10	1
4901784	62	C	03/16/2017	10:44	-132.233	43.994	0	759.80	0	3.8430	0	34.3480	4	27.289	0	752.324	0	12.4	4	3.9	4	-1E+10	1	-1E+10	1	-1E+10	1	-1E+10	1	-1E+10	1	-1E+10	1
4901784	62	C	03/16/2017	10:44	-132.233	43.994	0	764.50	0	3.8410	0	34.3480	4	27.289	0	756.969	0	12.3	4	3.9	4	-1E+10	1	-1E+10	1	-1E+10	1	-1E+10	1	-1E+10	1	-1E+10	1
4901784	62	C	03/16/2017	10:44	-132.233	43.994	0	770.20	0	3.8260	0	34.3530	4	27.295	0	762.602	0	12.1	4	3.8	4	-1E+10	1	-1E+10	1	-1E+10	1	-1E+10	1	-1E+10	1	-1E+10	1
4901784	62	C	03/16/2017	10:44	-132.233	43.994	0	775.40	0	3.8180	0	34.3560	4	27.298	0	767.741	0	12.0	4	3.8	4	-1E+10	1	-1E+10	1	-1E+10	1	-1E+10	1	-1E+10	1	-1E+10	1
4901784	62	C	03/16/2017	10:44	-132.233	43.994	0	780.00	0	3.8110	0	34.3580	4	27.301	0	772.287	0	12.0	4	3.8	4	-1E+10	1	-1E+10	1	-1E+10	1	-1E+10	1	-1E+10	1	-1E+10	1
4901784	62	C	03/16/2017	10:44	-132.233	43.994	0	785.00	0	3.7910	0	34.3600	4	27.304	0	777.229	0	12.0	4	3.8	4	-1E+10	1	-1E+10	1	-1E+10	1	-1E+10	1	-1E+10	1	-1E+10	1
4901784	62	C	03/16/2017	10:44	-132.233	43.994	0	790.00	0	3.7710	0	34.3620	4	27.308	0	782.170	0	12.0	4	3.8	4	-1E+10	1	-1E+10	1	-1E+10	1	-1E+10	1	-1E+10	1	-1E+10	1
4901784	62	C	03/16/2017	10:44	-132.233	43.994	0	795.00	0	3.7580	0	34.3650	4	27.311	0	787.111	0	11.9	4	3.7	4	-1E+10	1	-1E+10	1	-1E+10	1	-1E+10	1	-1E+10	1	-1E+10	1
4901784	62	C	03/16/2017	10:44	-132.233	43.994	0	800.10	0	3.7270	0	34.3710	4	27.319	0	792.151	0	11.8	4	3.7	4	-1E+10	1	-1E+10	1	-1E+10	1	-1E+10	1	-1E+10	1	-1E+10	1
4901784	62	C	03/16/2017	10:44	-132.233	43.994	0	805.20	0	3.7150	0	34.3770	4	27.325	0	797.190	0	11.6	4	3.7	4	-1E+10	1	-1E+10	1	-1E+10	1	-1E+10	1	-1E+10	1	-1E+10	1
4901784	62	C	03/16/2017	10:44	-132.233	43.994	0	810.40	0	3.7080	0	34.3810	4	27.329	0	802.328	0	11.5	4	3.6	4	-1E+10	1	-1E+10	1	-1E+10	1	-1E+10	1	-1E+10	1	-1E+10	1
4901784	62	C	03/16/2017	10:44	-132.233	43.994	0	815.40	0	3.6990	0	34.3850	4	27.333	0	807.269	0	11.4	4	3.6	4	-1E+10	1	-1E+10	1	-1E+10	1	-1E+10	1	-1E+10	1	-1E+10	1
4901784	62	C	03/16/2017	10:44	-132.233	43.994	0	820.50	0	3.6830	0	34.3900	4	27.339	0	812.308	0	11.4	4	3.6	4	-1E+10	1	-1E+10	1	-1E+10	1	-1E+10	1	-1E+10	1	-1E+10	1
4901784	62	C	03/16/2017	10:44	-132.233	43.994	0	825.70	0	3.6640	0	34.3940	4	27.344	0	817.446	0	11.3	4	3.6	4	-1E+10	1	-1E+10	1	-1E+10	1	-1E+10	1	-1E+10	1	-1E+10	1
4901784	62	C	03/16/2017	10:44	-132.233	43.994	0	830.00	0	3.6500	0	34.3970	4	27.348	0	821.695	0	11.3	4	3.5	4	-1E+10	1	-1E+10	1	-1E+10	1	-1E+10	1	-1E+10	1	-1E+10	1
4901784	62	C	03/16/2017	10:44	-132.233	43.994	0	834.40	0	3.6360	0	34.4010	4	27.352	0	826.042	0	11.3	4	3.5	4	-1E+10	1	-1E+10	1	-1E+10	1	-1E+10	1	-1E+10	1	-1E+10	1
4901784	62	C	03/16/2017	10:44	-132.233	43.994	0	839.70	0	3.6300	0	34.4030	4	27.355	0	831.278	0	11.3	4	3.5	4	-1E+10	1	-1E+10	1	-1E+10	1	-1E+10	1	-1E+10	1	-1E+10	1
4901784	62	C	03/16/2017	10:44	-132.233	43.994	0	845.10	0	3.6220	0	34.4050	4	27.357	0	836.613	0	11.3	4	3.5	4	-1E+10	1	-1E+10	1	-1E+10	1	-1E+10	1	-1E+10	1	-1E+10	1
4901784	62	C	03/16/2017	10:44	-132.233	43.994	0	850.50	0	3.6060	0	34.4080	4	27.361	0	841.948	0	11.3	4	3.5	4	-1E+10	1	-1E+10	1	-1E+10	1	-1E+10	1	-1E+10	1	-1E+10	1
4901784	62	C	03/16/2017	10:44	-132.233	43.994	0	855.10	0	3.5970	0	34.4100	4	27.364	0	846.493	0	11.3	4	3.5	4	-1E+10	1	-1E+10	1	-1E+10	1	-1E+10	1	-1E+10	1	-1E+10	1
4901784	62	C	03/16/2017	10:44	-132.233	43.994	0	859.70	0	3.5950	0	34.4100	4	27.364	0	851.037	0	11.2	4	3.5	4	-1E+10	1	-1E+10	1	-1E+10	1	-1E+10	1	-1E+10	1	-1E+10	1
4901784	62	C	03/16/2017	10:44	-132.233	43.994	0	865.20	0	3.5850	0	34.4110	4	27.366	0	856.470	0	11.3	4	3.5	4	-1E+10	1	-1E+10	1	-1E+10	1	-1E+10	1	-1E+10	1	-1E+10	1
4901784	62	C	03/16/2017	10:44	-132.233	43.994	0	869.70	0	3.5630	0	34.4160	4	27.372	0	860.916	0	11.3	4	3.5	4	-1E+10	1	-1E+10	1	-1E+10	1	-1E+10	1	-1E+10	1	-1E+10	1
4901784	62	C	03/16/2017	10:44	-132.233	43.994	0	874.40	0	3.5590	0	34.4160	4	27.372	0	865.559	0	11.3	4	3.5	4	-1E+10	1	-1E+10	1	-1E+10	1	-1E+10	1	-1E+10	1	-1E+10	1
4901784	62	C	03/16/2017	10:44	-132.233	43.994	0	879.90	0	3.5510	0	34.4190	4	27.375	0	870.991	0	11.3	4	3.5	4	-1E+10	1	-1E+10	1	-1E+10	1	-1E+10	1	-1E+10	1	-1E+10	1
4901784	62	C	03/16/2017	10:44	-132.233	43.994	0	885.30	0	3.5390	0	34.4220	4	27.379	0	876.325	0	11.3	4	3.5	4	-1E+10	1	-1E+10	1	-1E+10	1	-1E+10	1	-1E+10	1	-1E+10	1
4901784	62	C	03/16/2017	10:44	-132.233	43.994	0	890.50	0	3.5300	0	34.4240	4	27.381	0	881.462	0	11.4	4	3.6	4	-1E+10	1	-1E+10	1	-1E+10	1	-1E+10	1	-1E+10	1	-1E+10	1
4901784	62	C	03/16/2017	10:44	-132.233	43.994	0	895.30	0	3.5190	0	34.4270	4	27.385	0	886.203	0	11.4	4	3.6	4	-1E+10	1	-1E+10	1	-1E+10	1	-1E+10	1	-1E+10	1	-1E+10	1
4901784	62	C	03/16/2017	10:44	-132.233	43.994	0	900.30	0	3.5050	0	34.4300	4	27.389	0	891.141	0	11.4	4	3.6	4	-1E+10	1	-1E+10	1	-1E+10	1	-1E+10	1	-1E+10	1	-1E+10	1
4901784	62	C	03/16/2017	10:44	-132.233	43.994	0	905.30	0	3.4980	0	34.4320	4	27.391	0	896.080	0	11.5	4	3.6	4	-1E+10	1	-1E+10	1	-1E+10	1	-1E+10	1	-1E+10	1	-1E+10	1
4901784	62	C	03/16/2017	10:44	-132.233	43.994	0	910.20	0	3.4990	0	34.4350	4	27.393	0	900.919	0	11.5	4	3.6	4	-1E+10	1	-1E+10	1	-1E+10	1	-1E+10	1	-1E+10	1	-1E+10	1
4901784	62	C	03/16/2017	10:44	-132.233	43.994	0	915.20	0	3.4850	0	34.4390	4	27.398	0	905.858	0	11.6	4	3.6	4	-1E+10	1	-1E+10	1	-1E+10	1	-1E+10	1	-1E+10	1	-1E+10	1
4901784	62	C	03/16/2017	10:44	-132.233	43.994	0	920.20	0	3.4790	0	34.4400	4	27.399	0	910.796	0	11.6	4	3.6	4	-1E+10	1	-1E+10	1	-1E+10	1	-1E+10	1	-1E+10	1	-1E+10	1
4901784	62	C	03/16/2017	10:44	-132.233	43.994	0	925.30	0	3.4730	0	34.4410	4	27.401	0	915.832	0	11.6	4	3.6	4	-1E+10	1	-1E+10	1	-1E+10	1	-1E+10	1	-1E+10	1	-1E+10	1
4901784	62	C	03/16/2017	10:44	-132.233	43.994	0	930.50	0	3.4610	0	34.4440	4	27.404	0	920.968	0	11.7	4	3.7	4	-1E+10	1	-1E+10	1	-1E+10	1	-1E+10	1	-1E+10	1	-1E+10	1
4901784	62	C	03/16/2017	10:44	-132.233	43.994	0	934.90	0	3.4490	0	34.4470	4	27.408	0	925.313	0	11.8	4	3.7	4	-1E+10	1	-1E+10	1	-1E+10	1	-1E+10	1	-1E+10	1	-1E+10	1
4901784	62	C	03/16/2017	10:44	-132.233	43.994	0	939.30	0	3.4440	0	34.4500	4	27.411	0	929.658	0	12.0	4	3.7	4	-1E+10	1	-1E+10	1	-1E+10	1	-1E+10	1	-1E+10	1	-1E+10	1
4901784	62	C	03/16/2017	10:44	-132.233	43.994	0	944.50	0	3.4390	0	34.4530	4	27.414	0	934.793	0	12.1	4	3.8	4	-1E+10	1	-1E+10	1	-1E+10	1	-1E+10	1	-1E+10	1	-1E+10	1
4901784	62	C	03/16/2017	10:44	-132.233	43.994	0	949.80	0	3.4330	0	34.4550	4	27.416	0	940.027	0	12.2	4	3.8	4	-1E+10	1	-1E+10	1	-1E+10	1	-1E+10	1	-1E+10	1	-1E+10	1
4901784	62	C	03/16/2017	10:44	-132.233	43.994	0	955.20	0	3.4210	0	34.4590	4	27.420	0	945.359	0	12.4	4	3.9	4	-1E+10	1	-1E+10	1	-1E+10	1	-1E+10	1	-1E+10	1	-1E+10	1
4901784	62	C	03/16/2017	10:44	-132.233	43.994	0	959.80	0	3.4150	0	34.4610	4	27.422	0	949.901	0	12.5	4	3.9	4	-1E+10	1	-1E+10	1	-1E+10	1	-1E+10	1	-1E+10	1	-1E+10	1
4901784	62	C	03/16/2017	10:44	-132.233	43.994	0	964.30	0	3.4040	0	34.4630	4	27.425	0	954.345	0	12.6	4	3.9	4	-1E+10	1	-1E+10	1	-1E+10	1	-1E+10	1	-1E+10	1	-1E+10	1
4901784	62	C	03/16/2017	10:44	-132.233	43.994	0	969.80	0	3.3850	0	34.4680	4	27.431	0	959.775	0	12.7	4	3.9	4	-1E+10	1	-1E+10	1	-1E+10	1	-1E+10	1	-1E+10	1	-1E+10	1
4901784	62	C	03/16/2017	10:44	-132.233	43.994	0	975.30	0	3.3750	0	34.4710	4	27.434	0	965.206	0	12.8	4	4.0	4	-1E+10	1	-1E+10	1	-1E+10	1	-1E+10	1	-1E+10	1	-1E+10	1
4901784	62	C	03/16/2017	10:44	-132.233	43.994	0	979.80	0	3.3710	0	34.4730	4	27.436	0	969.649	0	12.9	4	4.0	4	-1E+10	1	-1E+10	1	-1E+10	1	-1E+10	1	-1E+10	1	-1E+10	1
4901784	62	C	03/16/2017	10:44	-132.233	43.994	0	984.50	0	3.3670	0	34.4740	4	27.438	0	974.289	0	13.0	4	4.1	4	-1E+10	1	-1E+10	1	-1E+10	1	-1E+10	1	-1E+10	1	-1E+10	1
4901784	62	C	03/16/2017	10:44	-132.233	43.994	0	990.10	0	3.3590	0	34.4770	4	27.441	0	979.818	0	13.2	4	4.1	4	-1E+10	1	-1E+10	1	-1E+10	1	-1E+10	1	-1E+10	1	-1E+10	1
4901784	62	C	03/16/2017	10:44	-132.233	43.994	0	995.60	0	3.3480	0	34.4800	4	27.444	0	985.248	0	13.3	4	4.1	4	-1E+10	1	-1E+10	1	-1E+10	1	-1E+10	1	-1E+10	1	-1E+10	1
4901784	62	C	03/16/2017	10:44	-132.233	43.994	0	1000.40	0	3.3430	0	34.4810	4	27.446	0	989.987	0	13.4	4	4.2	4	-1E+10	1	-1E+10	1	-1E+10	1	-1E+10	1	-1E+10	1	-1E+10	1
4901784	62	C	03/16/2017	10:44	-132.233	43.994	0	1004.80	0	3.3370	0	34.4820	4	27.447	0	994.330	0	13.6	4	4.2	4	-1E+10	1	-1E+10	1	-1E+10	1	-1E+10	1	-1E+10	1	-1E+10	1
4901784	62	C	03/16/2017	10:44	-132.233	43.994	0	1009.70	0	3.3290	0	34.4860	4	27.451	0	999.168	0	13.8	4	4.3	4	-1E+10	1	-1E+10	1	-1E+10	1	-1E+10	1	-1E+10	1	-1E+10	1
4901784	62	C	03/16/2017	10:44	-132.233	43.994	0	1014.50	0	3.3250	0	34.4870	4	27.452	0	1003.906	0	14.0	4	4.4	4	-1E+10	1	-1E+10	1	-1E+10	1	-1E+10	1	-1E+10	1	-1E+10	1
4901784	62	C	03/16/2017	10:44	-132.233	43.994	0	1019.30	0	3.3200	0	34.4900	4	27.455	0	1008.644	0	14.2	4	4.4	4	-1E+10	1	-1E+10	1	-1E+10	1	-1E+10	1	-1E+10	1	-1E+10	1
4901784	62	C	03/16/2017	10:44	-132.233	43.994	0	1025.00	0	3.3100	0	34.4930	4	27.458	0	1014.271	0	14.5	4	4.5	4	-1E+10	1	-1E+10	1	-1E+10	1	-1E+10	1	-1E+10	1	-1E+10	1
4901784	62	C	03/16/2017	10:44	-132.233	43.994	0	1030.70	0	3.2990	0	34.4960	4	27.462	0	1019.898	0	14.6	4	4.6	4	-1E+10	1	-1E+10	1	-1E+10	1	-1E+10	1	-1E+10	1	-1E+10	1
4901784	62	C	03/16/2017	10:44	-132.233	43.994	0	1035.70	0	3.2870	0	34.4980	4	27.465	0	1024.833	0	14.7	4	4.6	4	-1E+10	1	-1E+10	1	-1E+10	1	-1E+10	1	-1E+10	1	-1E+10	1
4901784	62	C	03/16/2017	10:44	-132.233	43.994	0	1040.70	0	3.2830	0	34.4980	4	27.465	0	1029.768	0	14.8	4	4.6	4	-1E+10	1	-1E+10	1	-1E+10	1	-1E+10	1	-1E+10	1	-1E+10	1
4901784	62	C	03/16/2017	10:44	-132.233	43.994	0	1045.70	0	3.2670	0	34.4990	4	27.467	0	1034.703	0	14.8	4	4.6	4	-1E+10	1	-1E+10	1	-1E+10	1	-1E+10	1	-1E+10	1	-1E+10	1
4901784	62	C	03/16/2017	10:44	-132.233	43.994	0	1050.70	0	3.2530	0	34.5010	4	27.470	0	1039.638	0	15.0	4	4.6	4	-1E+10	1	-1E+10	1	-1E+10	1	-1E+10	1	-1E+10	1	-1E+10	1
4901784	62	C	03/16/2017	10:44	-132.233	43.994	0	1054.90	0	3.2420	0	34.5030	4	27.473	0	1043.784	0	15.1	4	4.7	4	-1E+10	1	-1E+10	1	-1E+10	1	-1E+10	1	-1E+10	1	-1E+10	1
4901784	62	C	03/16/2017	10:44	-132.233	43.994	0	1059.20	0	3.2400	0	34.5040	4	27.474	0	1048.028	0	15.2	4	4.7	4	-1E+10	1	-1E+10	1	-1E+10	1	-1E+10	1	-1E+10	1	-1E+10	1
4901784	62	C	03/16/2017	10:44	-132.233	43.994	0	1064.30	0	3.2370	0	34.5050	4	27.475	0	1053.061	0	15.4	4	4.8	4	-1E+10	1	-1E+10	1	-1E+10	1	-1E+10	1	-1E+10	1	-1E+10	1
4901784	62	C	03/16/2017	10:44	-132.233	43.994	0	1069.50	0	3.2340	0	34.5070	4	27.477	0	1058.193	0	15.7	4	4.9	4	-1E+10	1	-1E+10	1	-1E+10	1	-1E+10	1	-1E+10	1	-1E+10	1
4901784	62	C	03/16/2017	10:44	-132.233	43.994	0	1074.70	0	3.2370	0	34.5100	4	27.479	0	1063.325	0	16.0	4	5.0	4	-1E+10	1	-1E+10	1	-1E+10	1	-1E+10	1	-1E+10	1	-1E+10	1
4901784	62	C	03/16/2017	10:44	-132.233	43.994	0	1079.90	0	3.2340	0	34.5110	4	27.480	0	1068.457	0	16.2	4	5.0	4	-1E+10	1	-1E+10	1	-1E+10	1	-1E+10	1	-1E+10	1	-1E+10	1
4901784	62	C	03/16/2017	10:44	-132.233	43.994	0	1085.10	0	3.2340	0	34.5120	4	27.481	0	1073.588	0	16.6	4	5.1	4	-1E+10	1	-1E+10	1	-1E+10	1	-1E+10	1	-1E+10	1	-1E+10	1
4901784	62	C	03/16/2017	10:44	-132.233	43.994	0	1090.30	0	3.2430	0	34.5150	4	27.483	0	1078.720	0	17.0	4	5.3	4	-1E+10	1	-1E+10	1	-1E+10	1	-1E+10	1	-1E+10	1	-1E+10	1
4901784	62	C	03/16/2017	10:44	-132.233	43.994	0	1095.50	0	3.2450	0	34.5190	4	27.486	0	1083.851	0	17.4	4	5.4	4	-1E+10	1	-1E+10	1	-1E+10	1	-1E+10	1	-1E+10	1	-1E+10	1
4901784	62	C	03/16/2017	10:44	-132.233	43.994	0	1100.40	0	3.2470	0	34.5200	4	27.486	0	1088.686	0	17.5	4	5.4	4	-1E+10	1	-1E+10	1	-1E+10	1	-1E+10	1	-1E+10	1	-1E+10	1
4901784	62	C	03/16/2017	10:44	-132.233	43.994	0	1104.90	0	3.2400	0	34.5210	4	27.488	0	1093.127	0	17.5	4	5.4	4	-1E+10	1	-1E+10	1	-1E+10	1	-1E+10	1	-1E+10	1	-1E+10	1
4901784	62	C	03/16/2017	10:44	-132.233	43.994	0	1110.00	0	3.2190	0	34.5220	4	27.491	0	1098.159	0	17.5	4	5.4	4	-1E+10	1	-1E+10	1	-1E+10	1	-1E+10	1	-1E+10	1	-1E+10	1
4901784	62	C	03/16/2017	10:44	-132.233	43.994	0	1114.50	0	3.2160	0	34.5220	4	27.491	0	1102.599	0	17.5	4	5.4	4	-1E+10	1	-1E+10	1	-1E+10	1	-1E+10	1	-1E+10	1	-1E+10	1
4901784	62	C	03/16/2017	10:44	-132.233	43.994	0	1119.30	0	3.2160	0	34.5230	4	27.492	0	1107.335	0	17.6	4	5.5	4	-1E+10	1	-1E+10	1	-1E+10	1	-1E+10	1	-1E+10	1	-1E+10	1
4901784	62	C	03/16/2017	10:44	-132.233	43.994	0	1124.30	0	3.2170	0	34.5230	4	27.492	0	1112.269	0	17.8	4	5.5	4	-1E+10	1	-1E+10	1	-1E+10	1	-1E+10	1	-1E+10	1	-1E+10	1
4901784	62	C	03/16/2017	10:44	-132.233	43.994	0	1129.30	0	3.2120	0	34.5250	4	27.494	0	1117.202	0	17.9	4	5.6	4	-1E+10	1	-1E+10	1	-1E+10	1	-1E+10	1	-1E+10	1	-1E+10	1
4901784	62	C	03/16/2017	10:44	-132.233	43.994	0	1134.20	0	3.2050	0	34.5260	4	27.495	0	1122.036	0	18.1	4	5.6	4	-1E+10	1	-1E+10	1	-1E+10	1	-1E+10	1	-1E+10	1	-1E+10	1
4901784	62	C	03/16/2017	10:44	-132.233	43.994	0	1139.20	0	3.1990	0	34.5270	4	27.497	0	1126.969	0	18.0	4	5.6	4	-1E+10	1	-1E+10	1	-1E+10	1	-1E+10	1	-1E+10	1	-1E+10	1
4901784	62	C	03/16/2017	10:44	-132.233	43.994	0	1144.20	0	3.1840	0	34.5270	4	27.498	0	1131.902	0	17.9	4	5.6	4	-1E+10	1	-1E+10	1	-1E+10	1	-1E+10	1	-1E+10	1	-1E+10	1
4901784	62	C	03/16/2017	10:44	-132.233	43.994	0	1149.20	0	3.1740	0	34.5270	4	27.499	0	1136.835	0	17.8	4	5.5	4	-1E+10	1	-1E+10	1	-1E+10	1	-1E+10	1	-1E+10	1	-1E+10	1
4901784	62	C	03/16/2017	10:44	-132.233	43.994	0	1154.30	0	3.1630	0	34.5270	4	27.500	0	1141.866	0	17.8	4	5.5	4	-1E+10	1	-1E+10	1	-1E+10	1	-1E+10	1	-1E+10	1	-1E+10	1
4901784	62	C	03/16/2017	10:44	-132.233	43.994	0	1159.40	0	3.1610	0	34.5280	4	27.501	0	1146.897	0	17.9	4	5.5	4	-1E+10	1	-1E+10	1	-1E+10	1	-1E+10	1	-1E+10	1	-1E+10	1
4901784	62	C	03/16/2017	10:44	-132.233	43.994	0	1164.50	0	3.1560	0	34.5280	4	27.502	0	1151.928	0	17.9	4	5.6	4	-1E+10	1	-1E+10	1	-1E+10	1	-1E+10	1	-1E+10	1	-1E+10	1
4901784	62	C	03/16/2017	10:44	-132.233	43.994	0	1169.60	0	3.1510	0	34.5290	4	27.503	0	1156.959	0	18.1	4	5.6	4	-1E+10	1	-1E+10	1	-1E+10	1	-1E+10	1	-1E+10	1	-1E+10	1
4901784	62	C	03/16/2017	10:44	-132.233	43.994	0	1174.80	0	3.1420	0	34.5300	4	27.505	0	1162.089	0	18.2	4	5.6	4	-1E+10	1	-1E+10	1	-1E+10	1	-1E+10	1	-1E+10	1	-1E+10	1
4901784	62	C	03/16/2017	10:44	-132.233	43.994	0	1180.00	0	3.1300	0	34.5310	4	27.506	0	1167.218	0	18.3	4	5.7	4	-1E+10	1	-1E+10	1	-1E+10	1	-1E+10	1	-1E+10	1	-1E+10	1
4901784	62	C	03/16/2017	10:44	-132.233	43.994	0	1185.30	0	3.1070	0	34.5330	4	27.510	0	1172.446	0	18.4	4	5.7	4	-1E+10	1	-1E+10	1	-1E+10	1	-1E+10	1	-1E+10	1	-1E+10	1
4901784	62	C	03/16/2017	10:44	-132.233	43.994	0	1190.50	0	3.0940	0	34.5350	4	27.513	0	1177.575	0	18.5	4	5.7	4	-1E+10	1	-1E+10	1	-1E+10	1	-1E+10	1	-1E+10	1	-1E+10	1
4901784	62	C	03/16/2017	10:44	-132.233	43.994	0	1194.90	0	3.0840	0	34.5360	4	27.515	0	1181.915	0	18.5	4	5.7	4	-1E+10	1	-1E+10	1	-1E+10	1	-1E+10	1	-1E+10	1	-1E+10	1
4901784	62	C	03/16/2017	10:44	-132.233	43.994	0	1199.30	0	3.0710	0	34.5360	4	27.516	0	1186.254	0	18.6	4	5.7	4	-1E+10	1	-1E+10	1	-1E+10	1	-1E+10	1	-1E+10	1	-1E+10	1
4901784	62	C	03/16/2017	10:44	-132.233	43.994	0	1204.70	0	3.0570	0	34.5370	4	27.518	0	1191.580	0	18.8	4	5.8	4	-1E+10	1	-1E+10	1	-1E+10	1	-1E+10	1	-1E+10	1	-1E+10	1
4901784	62	C	03/16/2017	10:44	-132.233	43.994	0	1210.10	0	3.0460	0	34.5390	4	27.521	0	1196.906	0	18.9	4	5.8	4	-1E+10	1	-1E+10	1	-1E+10	1	-1E+10	1	-1E+10	1	-1E+10	1
4901784	62	C	03/16/2017	10:44	-132.233	43.994	0	1215.50	0	3.0380	0	34.5400	4	27.522	0	1202.232	0	19.0	4	5.9	4	-1E+10	1	-1E+10	1	-1E+10	1	-1E+10	1	-1E+10	1	-1E+10	1
4901784	62	C	03/16/2017	10:44	-132.233	43.994	0	1220.00	0	3.0310	0	34.5410	4	27.524	0	1206.670	0	19.2	4	5.9	4	-1E+10	1	-1E+10	1	-1E+10	1	-1E+10	1	-1E+10	1	-1E+10	1
4901784	62	C	03/16/2017	10:44	-132.233	43.994	0	1224.50	0	3.0220	0	34.5430	4	27.526	0	1211.108	0	19.4	4	6.0	4	-1E+10	1	-1E+10	1	-1E+10	1	-1E+10	1	-1E+10	1	-1E+10	1
4901784	62	C	03/16/2017	10:44	-132.233	43.994	0	1229.90	0	3.0150	0	34.5440	4	27.528	0	1216.433	0	19.5	4	6.0	4	-1E+10	1	-1E+10	1	-1E+10	1	-1E+10	1	-1E+10	1	-1E+10	1
4901784	62	C	03/16/2017	10:44	-132.233	43.994	0	1235.20	0	3.0060	0	34.5460	4	27.530	0	1221.660	0	19.7	4	6.1	4	-1E+10	1	-1E+10	1	-1E+10	1	-1E+10	1	-1E+10	1	-1E+10	1
4901784	62	C	03/16/2017	10:44	-132.233	43.994	0	1240.20	0	3.0010	0	34.5460	4	27.531	0	1226.590	0	19.8	4	6.1	4	-1E+10	1	-1E+10	1	-1E+10	1	-1E+10	1	-1E+10	1	-1E+10	1
4901784	62	C	03/16/2017	10:44	-132.233	43.994	0	1245.10	0	2.9850	0	34.5470	4	27.533	0	1231.422	0	19.8	4	6.1	4	-1E+10	1	-1E+10	1	-1E+10	1	-1E+10	1	-1E+10	1	-1E+10	1
4901784	62	C	03/16/2017	10:44	-132.233	43.994	0	1250.10	0	2.9750	0	34.5480	4	27.535	0	1236.353	0	19.8	4	6.1	4	-1E+10	1	-1E+10	1	-1E+10	1	-1E+10	1	-1E+10	1	-1E+10	1
4901784	62	C	03/16/2017	10:44	-132.233	43.994	0	1255.10	0	2.9700	0	34.5480	4	27.535	0	1241.283	0	20.0	4	6.2	4	-1E+10	1	-1E+10	1	-1E+10	1	-1E+10	1	-1E+10	1	-1E+10	1
4901784	62	C	03/16/2017	10:44	-132.233	43.994	0	1260.10	0	2.9620	0	34.5490	4	27.537	0	1246.213	0	20.2	4	6.2	4	-1E+10	1	-1E+10	1	-1E+10	1	-1E+10	1	-1E+10	1	-1E+10	1
4901784	62	C	03/16/2017	10:44	-132.233	43.994	0	1265.20	0	2.9560	0	34.5510	4	27.539	0	1251.242	0	20.5	4	6.3	4	-1E+10	1	-1E+10	1	-1E+10	1	-1E+10	1	-1E+10	1	-1E+10	1
4901784	62	C	03/16/2017	10:44	-132.233	43.994	0	1270.30	0	2.9500	0	34.5530	4	27.541	0	1256.270	0	20.7	4	6.4	4	-1E+10	1	-1E+10	1	-1E+10	1	-1E+10	1	-1E+10	1	-1E+10	1
4901784	62	C	03/16/2017	10:44	-132.233	43.994	0	1275.40	0	2.9490	0	34.5540	4	27.542	0	1261.299	0	20.8	4	6.4	4	-1E+10	1	-1E+10	1	-1E+10	1	-1E+10	1	-1E+10	1	-1E+10	1
4901784	62	C	03/16/2017	10:44	-132.233	43.994	0	1280.50	0	2.9410	0	34.5550	4	27.543	0	1266.327	0	21.1	4	6.5	4	-1E+10	1	-1E+10	1	-1E+10	1	-1E+10	1	-1E+10	1	-1E+10	1
4901784	62	C	03/16/2017	10:44	-132.233	43.994	0	1285.70	0	2.9290	0	34.5560	4	27.545	0	1271.454	0	21.3	4	6.6	4	-1E+10	1	-1E+10	1	-1E+10	1	-1E+10	1	-1E+10	1	-1E+10	1
4901784	62	C	03/16/2017	10:44	-132.233	43.994	0	1290.00	0	2.9230	0	34.5570	4	27.547	0	1275.693	0	21.5	4	6.6	4	-1E+10	1	-1E+10	1	-1E+10	1	-1E+10	1	-1E+10	1	-1E+10	1
4901784	62	C	03/16/2017	10:44	-132.233	43.994	0	1294.30	0	2.9160	0	34.5590	4	27.549	0	1279.932	0	21.7	4	6.7	4	-1E+10	1	-1E+10	1	-1E+10	1	-1E+10	1	-1E+10	1	-1E+10	1
4901784	62	C	03/16/2017	10:44	-132.233	43.994	0	1299.50	0	2.9060	0	34.5600	4	27.551	0	1285.059	0	21.9	4	6.8	4	-1E+10	1	-1E+10	1	-1E+10	1	-1E+10	1	-1E+10	1	-1E+10	1
4901784	62	C	03/16/2017	10:44	-132.233	43.994	0	1304.70	0	2.8970	0	34.5620	4	27.553	0	1290.185	0	22.1	4	6.8	4	-1E+10	1	-1E+10	1	-1E+10	1	-1E+10	1	-1E+10	1	-1E+10	1
4901784	62	C	03/16/2017	10:44	-132.233	43.994	0	1309.80	0	2.8900	0	34.5620	4	27.554	0	1295.213	0	22.3	4	6.9	4	-1E+10	1	-1E+10	1	-1E+10	1	-1E+10	1	-1E+10	1	-1E+10	1
4901784	62	C	03/16/2017	10:44	-132.233	43.994	0	1315.00	0	2.8820	0	34.5640	4	27.556	0	1300.339	0	22.4	4	6.9	4	-1E+10	1	-1E+10	1	-1E+10	1	-1E+10	1	-1E+10	1	-1E+10	1
4901784	62	C	03/16/2017	10:44	-132.233	43.994	0	1320.20	0	2.8760	0	34.5640	4	27.557	0	1305.464	0	22.6	4	7.0	4	-1E+10	1	-1E+10	1	-1E+10	1	-1E+10	1	-1E+10	1	-1E+10	1
4901784	62	C	03/16/2017	10:44	-132.233	43.994	0	1325.40	0	2.8650	0	34.5660	4	27.559	0	1310.590	0	22.9	4	7.0	4	-1E+10	1	-1E+10	1	-1E+10	1	-1E+10	1	-1E+10	1	-1E+10	1
4901784	62	C	03/16/2017	10:44	-132.233	43.994	0	1330.60	0	2.8600	0	34.5670	4	27.560	0	1315.716	0	23.0	4	7.1	4	-1E+10	1	-1E+10	1	-1E+10	1	-1E+10	1	-1E+10	1	-1E+10	1
4901784	62	C	03/16/2017	10:44	-132.233	43.994	0	1334.90	0	2.8550	0	34.5680	4	27.562	0	1319.954	0	23.2	4	7.1	4	-1E+10	1	-1E+10	1	-1E+10	1	-1E+10	1	-1E+10	1	-1E+10	1
4901784	62	C	03/16/2017	10:44	-132.233	43.994	0	1339.30	0	2.8490	0	34.5680	4	27.562	0	1324.291	0	23.3	4	7.2	4	-1E+10	1	-1E+10	1	-1E+10	1	-1E+10	1	-1E+10	1	-1E+10	1
4901784	62	C	03/16/2017	10:44	-132.233	43.994	0	1344.50	0	2.8400	0	34.5690	4	27.564	0	1329.417	0	23.3	4	7.2	4	-1E+10	1	-1E+10	1	-1E+10	1	-1E+10	1	-1E+10	1	-1E+10	1
4901784	62	C	03/16/2017	10:44	-132.233	43.994	0	1349.70	0	2.8290	0	34.5690	4	27.565	0	1334.542	0	23.2	4	7.1	4	-1E+10	1	-1E+10	1	-1E+10	1	-1E+10	1	-1E+10	1	-1E+10	1
4901784	62	C	03/16/2017	10:44	-132.233	43.994	0	1355.00	0	2.8230	0	34.5680	4	27.565	0	1339.766	0	23.1	4	7.1	4	-1E+10	1	-1E+10	1	-1E+10	1	-1E+10	1	-1E+10	1	-1E+10	1
4901784	62	C	03/16/2017	10:44	-132.233	43.994	0	1360.40	0	2.7970	0	34.5680	4	27.567	0	1345.088	0	23.1	4	7.1	4	-1E+10	1	-1E+10	1	-1E+10	1	-1E+10	1	-1E+10	1	-1E+10	1
4901784	62	C	03/16/2017	10:44	-132.233	43.994	0	1365.70	0	2.7880	0	34.5700	4	27.569	0	1350.311	0	23.4	4	7.2	4	-1E+10	1	-1E+10	1	-1E+10	1	-1E+10	1	-1E+10	1	-1E+10	1
4901784	62	C	03/16/2017	10:44	-132.233	43.994	0	1370.10	0	2.7850	0	34.5710	4	27.570	0	1354.647	0	23.5	4	7.2	4	-1E+10	1	-1E+10	1	-1E+10	1	-1E+10	1	-1E+10	1	-1E+10	1
4901784	62	C	03/16/2017	10:44	-132.233	43.994	0	1374.50	0	2.7790	0	34.5710	4	27.571	0	1358.983	0	23.6	4	7.3	4	-1E+10	1	-1E+10	1	-1E+10	1	-1E+10	1	-1E+10	1	-1E+10	1
4901784	62	C	03/16/2017	10:44	-132.233	43.994	0	1379.80	0	2.7640	0	34.5710	4	27.572	0	1364.207	0	23.6	4	7.2	4	-1E+10	1	-1E+10	1	-1E+10	1	-1E+10	1	-1E+10	1	-1E+10	1
4901784	62	C	03/16/2017	10:44	-132.233	43.994	0	1385.10	0	2.7520	0	34.5710	4	27.573	0	1369.429	0	23.7	4	7.3	4	-1E+10	1	-1E+10	1	-1E+10	1	-1E+10	1	-1E+10	1	-1E+10	1
4901784	62	C	03/16/2017	10:44	-132.233	43.994	0	1390.50	0	2.7330	0	34.5730	4	27.577	0	1374.751	0	24.1	4	7.4	4	-1E+10	1	-1E+10	1	-1E+10	1	-1E+10	1	-1E+10	1	-1E+10	1
4901784	62	C	03/16/2017	10:44	-132.233	43.994	0	1394.90	0	2.7220	0	34.5740	4	27.578	0	1379.087	0	24.4	4	7.5	4	-1E+10	1	-1E+10	1	-1E+10	1	-1E+10	1	-1E+10	1	-1E+10	1
4901784	62	C	03/16/2017	10:44	-132.233	43.994	0	1399.40	0	2.7120	0	34.5750	4	27.580	0	1383.521	0	24.6	4	7.6	4	-1E+10	1	-1E+10	1	-1E+10	1	-1E+10	1	-1E+10	1	-1E+10	1
4901784	62	C	03/16/2017	10:44	-132.233	43.994	0	1404.70	0	2.6970	0	34.5770	4	27.583	0	1388.743	0	24.9	4	7.6	4	-1E+10	1	-1E+10	1	-1E+10	1	-1E+10	1	-1E+10	1	-1E+10	1
4901784	62	C	03/16/2017	10:44	-132.233	43.994	0	1410.10	0	2.6870	0	34.5780	4	27.585	0	1394.064	0	25.1	4	7.7	4	-1E+10	1	-1E+10	1	-1E+10	1	-1E+10	1	-1E+10	1	-1E+10	1
4901784	62	C	03/16/2017	10:44	-132.233	43.994	0	1415.50	0	2.6830	0	34.5790	4	27.586	0	1399.385	0	25.3	4	7.8	4	-1E+10	1	-1E+10	1	-1E+10	1	-1E+10	1	-1E+10	1	-1E+10	1
4901784	62	C	03/16/2017	10:44	-132.233	43.994	0	1420.00	0	2.6770	0	34.5800	4	27.587	0	1403.819	0	25.5	4	7.8	4	-1E+10	1	-1E+10	1	-1E+10	1	-1E+10	1	-1E+10	1	-1E+10	1
4901784	62	C	03/16/2017	10:44	-132.233	43.994	0	1424.50	0	2.6710	0	34.5810	4	27.589	0	1408.252	0	25.6	4	7.9	4	-1E+10	1	-1E+10	1	-1E+10	1	-1E+10	1	-1E+10	1	-1E+10	1
4901784	62	C	03/16/2017	10:44	-132.233	43.994	0	1430.00	0	2.6610	0	34.5800	4	27.589	0	1413.671	0	25.6	4	7.9	4	-1E+10	1	-1E+10	1	-1E+10	1	-1E+10	1	-1E+10	1	-1E+10	1
4901784	62	C	03/16/2017	10:44	-132.233	43.994	0	1435.50	0	2.6440	0	34.5810	4	27.591	0	1419.090	0	25.7	4	7.9	4	-1E+10	1	-1E+10	1	-1E+10	1	-1E+10	1	-1E+10	1	-1E+10	1
4901784	62	C	03/16/2017	10:44	-132.233	43.994	0	1440.00	0	2.6320	0	34.5810	4	27.592	0	1423.523	0	25.8	4	7.9	4	-1E+10	1	-1E+10	1	-1E+10	1	-1E+10	1	-1E+10	1	-1E+10	1
4901784	62	C	03/16/2017	10:44	-132.233	43.994	0	1444.40	0	2.6230	0	34.5820	4	27.594	0	1427.858	0	26.0	4	8.0	4	-1E+10	1	-1E+10	1	-1E+10	1	-1E+10	1	-1E+10	1	-1E+10	1
4901784	62	C	03/16/2017	10:44	-132.233	43.994	0	1449.70	0	2.6090	0	34.5830	4	27.596	0	1433.079	0	26.3	4	8.1	4	-1E+10	1	-1E+10	1	-1E+10	1	-1E+10	1	-1E+10	1	-1E+10	1
4901784	62	C	03/16/2017	10:44	-132.233	43.994	0	1454.50	0	2.6010	0	34.5840	4	27.597	0	1437.808	0	26.5	4	8.1	4	-1E+10	1	-1E+10	1	-1E+10	1	-1E+10	1	-1E+10	1	-1E+10	1
4901784	62	C	03/16/2017	10:44	-132.233	43.994	0	1459.40	0	2.5900	0	34.5840	4	27.598	0	1442.635	0	26.7	4	8.2	4	-1E+10	1	-1E+10	1	-1E+10	1	-1E+10	1	-1E+10	1	-1E+10	1
4901784	62	C	03/16/2017	10:44	-132.233	43.994	0	1464.20	0	2.5750	0	34.5850	4	27.600	0	1447.363	0	26.8	4	8.2	4	-1E+10	1	-1E+10	1	-1E+10	1	-1E+10	1	-1E+10	1	-1E+10	1
4901784	62	C	03/16/2017	10:44	-132.233	43.994	0	1469.90	0	2.5660	0	34.5860	4	27.602	0	1452.978	0	27.0	4	8.3	4	-1E+10	1	-1E+10	1	-1E+10	1	-1E+10	1	-1E+10	1	-1E+10	1
4901784	62	C	03/16/2017	10:44	-132.233	43.994	0	1475.70	0	2.5470	0	34.5870	4	27.604	0	1458.691	0	27.3	4	8.4	4	-1E+10	1	-1E+10	1	-1E+10	1	-1E+10	1	-1E+10	1	-1E+10	1
4901784	62	C	03/16/2017	10:44	-132.233	43.994	0	1480.70	0	2.5340	0	34.5880	4	27.606	0	1463.617	0	27.6	4	8.4	4	-1E+10	1	-1E+10	1	-1E+10	1	-1E+10	1	-1E+10	1	-1E+10	1
4901784	62	C	03/16/2017	10:44	-132.233	43.994	0	1485.70	0	2.5180	0	34.5890	4	27.608	0	1468.541	0	27.9	4	8.5	4	-1E+10	1	-1E+10	1	-1E+10	1	-1E+10	1	-1E+10	1	-1E+10	1
4901784	62	C	03/16/2017	10:44	-132.233	43.994	0	1490.70	0	2.5050	0	34.5900	4	27.610	0	1473.466	0	28.1	4	8.6	4	-1E+10	1	-1E+10	1	-1E+10	1	-1E+10	1	-1E+10	1	-1E+10	1
4901784	62	C	03/16/2017	10:44	-132.233	43.994	0	1495.80	0	2.4980	0	34.5910	4	27.612	0	1478.490	0	28.3	4	8.6	4	-1E+10	1	-1E+10	1	-1E+10	1	-1E+10	1	-1E+10	1	-1E+10	1
4901784	62	C	03/16/2017	10:44	-132.233	43.994	0	1500.00	0	2.4930	0	34.5920	4	27.613	0	1482.626	0	28.4	4	8.7	4	-1E+10	1	-1E+10	1	-1E+10	1	-1E+10	1	-1E+10	1	-1E+10	1
4901784	62	C	03/16/2017	10:44	-132.233	43.994	0	1504.20	0	2.4870	0	34.5920	4	27.613	0	1486.763	0	28.7	4	8.8	4	-1E+10	1	-1E+10	1	-1E+10	1	-1E+10	1	-1E+10	1	-1E+10	1
4901784	62	C	03/16/2017	10:44	-132.233	43.994	0	1509.30	0	2.4750	0	34.5930	4	27.615	0	1491.786	0	29.0	4	8.8	4	-1E+10	1	-1E+10	1	-1E+10	1	-1E+10	1	-1E+10	1	-1E+10	1
4901784	62	C	03/16/2017	10:44	-132.233	43.994	0	1514.40	0	2.4660	0	34.5940	4	27.617	0	1496.809	0	29.2	4	8.9	4	-1E+10	1	-1E+10	1	-1E+10	1	-1E+10	1	-1E+10	1	-1E+10	1
4901784	62	C	03/16/2017	10:44	-132.233	43.994	0	1519.60	0	2.4550	0	34.5950	4	27.619	0	1501.930	0	29.5	4	9.0	4	-1E+10	1	-1E+10	1	-1E+10	1	-1E+10	1	-1E+10	1	-1E+10	1
4901784	62	C	03/16/2017	10:44	-132.233	43.994	0	1524.80	0	2.4470	0	34.5960	4	27.620	0	1507.051	0	29.8	4	9.1	4	-1E+10	1	-1E+10	1	-1E+10	1	-1E+10	1	-1E+10	1	-1E+10	1
4901784	62	C	03/16/2017	10:44	-132.233	43.994	0	1530.00	0	2.4340	0	34.5970	4	27.622	0	1512.172	0	30.1	4	9.2	4	-1E+10	1	-1E+10	1	-1E+10	1	-1E+10	1	-1E+10	1	-1E+10	1
4901784	62	C	03/16/2017	10:44	-132.233	43.994	0	1535.30	0	2.4300	0	34.5980	4	27.623	0	1517.391	0	30.3	4	9.2	4	-1E+10	1	-1E+10	1	-1E+10	1	-1E+10	1	-1E+10	1	-1E+10	1
4901784	62	C	03/16/2017	10:44	-132.233	43.994	0	1540.50	0	2.4210	0	34.5990	4	27.625	0	1522.511	0	30.7	4	9.3	4	-1E+10	1	-1E+10	1	-1E+10	1	-1E+10	1	-1E+10	1	-1E+10	1
4901784	62	C	03/16/2017	10:44	-132.233	43.994	0	1544.90	0	2.4120	0	34.6000	4	27.626	0	1526.844	0	30.9	4	9.4	4	-1E+10	1	-1E+10	1	-1E+10	1	-1E+10	1	-1E+10	1	-1E+10	1
4901784	62	C	03/16/2017	10:44	-132.233	43.994	0	1549.30	0	2.4040	0	34.6010	4	27.628	0	1531.177	0	31.2	4	9.5	4	-1E+10	1	-1E+10	1	-1E+10	1	-1E+10	1	-1E+10	1	-1E+10	1
4901784	62	C	03/16/2017	10:44	-132.233	43.994	0	1554.60	0	2.3940	0	34.6020	4	27.629	0	1536.396	0	31.5	4	9.6	4	-1E+10	1	-1E+10	1	-1E+10	1	-1E+10	1	-1E+10	1	-1E+10	1
4901784	62	C	03/16/2017	10:44	-132.233	43.994	0	1559.90	0	2.3860	0	34.6030	4	27.631	0	1541.614	0	31.8	4	9.7	4	-1E+10	1	-1E+10	1	-1E+10	1	-1E+10	1	-1E+10	1	-1E+10	1
4901784	62	C	03/16/2017	10:44	-132.233	43.994	0	1565.20	0	2.3800	0	34.6040	4	27.632	0	1546.833	0	32.1	4	9.8	4	-1E+10	1	-1E+10	1	-1E+10	1	-1E+10	1	-1E+10	1	-1E+10	1
4901784	62	C	03/16/2017	10:44	-132.233	43.994	0	1570.60	0	2.3710	0	34.6050	4	27.634	0	1552.150	0	32.5	4	9.9	4	-1E+10	1	-1E+10	1	-1E+10	1	-1E+10	1	-1E+10	1	-1E+10	1
4901784	62	C	03/16/2017	10:44	-132.233	43.994	0	1575.00	0	2.3620	0	34.6060	4	27.635	0	1556.482	0	32.8	4	10.0	4	-1E+10	1	-1E+10	1	-1E+10	1	-1E+10	1	-1E+10	1	-1E+10	1
4901784	62	C	03/16/2017	10:44	-132.233	43.994	0	1579.60	0	2.3550	0	34.6070	4	27.637	0	1561.011	0	33.2	4	10.1	4	-1E+10	1	-1E+10	1	-1E+10	1	-1E+10	1	-1E+10	1	-1E+10	1
4901784	62	C	03/16/2017	10:44	-132.233	43.994	0	1585.10	0	2.3460	0	34.6080	4	27.638	0	1566.426	0	33.5	4	10.2	4	-1E+10	1	-1E+10	1	-1E+10	1	-1E+10	1	-1E+10	1	-1E+10	1
4901784	62	C	03/16/2017	10:44	-132.233	43.994	0	1590.60	0	2.3360	0	34.6100	4	27.641	0	1571.840	0	33.7	4	10.3	4	-1E+10	1	-1E+10	1	-1E+10	1	-1E+10	1	-1E+10	1	-1E+10	1
4901784	62	C	03/16/2017	10:44	-132.233	43.994	0	1595.20	0	2.3340	0	34.6100	4	27.641	0	1576.369	0	33.9	4	10.3	4	-1E+10	1	-1E+10	1	-1E+10	1	-1E+10	1	-1E+10	1	-1E+10	1
4901784	62	C	03/16/2017	10:44	-132.233	43.994	0	1599.80	0	2.3330	0	34.6110	4	27.642	0	1580.898	0	34.0	4	10.3	4	-1E+10	1	-1E+10	1	-1E+10	1	-1E+10	1	-1E+10	1	-1E+10	1
4901784	62	C	03/16/2017	10:44	-132.233	43.994	0	1605.40	0	2.3320	0	34.6110	4	27.642	0	1586.410	0	34.2	4	10.4	4	-1E+10	1	-1E+10	1	-1E+10	1	-1E+10	1	-1E+10	1	-1E+10	1
4901784	62	C	03/16/2017	10:44	-132.233	43.994	0	1610.10	0	2.3280	0	34.6110	4	27.642	0	1591.037	0	34.4	4	10.5	4	-1E+10	1	-1E+10	1	-1E+10	1	-1E+10	1	-1E+10	1	-1E+10	1
4901784	62	C	03/16/2017	10:44	-132.233	43.994	0	1614.70	0	2.3210	0	34.6120	4	27.644	0	1595.565	0	34.7	4	10.6	4	-1E+10	1	-1E+10	1	-1E+10	1	-1E+10	1	-1E+10	1	-1E+10	1
4901784	62	C	03/16/2017	10:44	-132.233	43.994	0	1620.40	0	2.3130	0	34.6130	4	27.645	0	1601.176	0	35.1	4	10.7	4	-1E+10	1	-1E+10	1	-1E+10	1	-1E+10	1	-1E+10	1	-1E+10	1
4901784	62	C	03/16/2017	10:44	-132.233	43.994	0	1625.00	0	2.3040	0	34.6150	4	27.648	0	1605.704	0	35.5	4	10.8	4	-1E+10	1	-1E+10	1	-1E+10	1	-1E+10	1	-1E+10	1	-1E+10	1
4901784	62	C	03/16/2017	10:44	-132.233	43.994	0	1630.30	0	2.2980	0	34.6150	4	27.648	0	1610.921	0	35.7	4	10.9	4	-1E+10	1	-1E+10	1	-1E+10	1	-1E+10	1	-1E+10	1	-1E+10	1
4901784	62	C	03/16/2017	10:44	-132.233	43.994	0	1635.40	0	2.2900	0	34.6160	4	27.650	0	1615.941	0	36.0	4	10.9	4	-1E+10	1	-1E+10	1	-1E+10	1	-1E+10	1	-1E+10	1	-1E+10	1
4901784	62	C	03/16/2017	10:44	-132.233	43.994	0	1640.20	0	2.2880	0	34.6170	4	27.651	0	1620.666	0	36.3	4	11.0	4	-1E+10	1	-1E+10	1	-1E+10	1	-1E+10	1	-1E+10	1	-1E+10	1
4901784	62	C	03/16/2017	10:44	-132.233	43.994	0	1645.00	0	2.2800	0	34.6170	4	27.651	0	1625.390	0	36.7	4	11.1	4	-1E+10	1	-1E+10	1	-1E+10	1	-1E+10	1	-1E+10	1	-1E+10	1
4901784	62	C	03/16/2017	10:44	-132.233	43.994	0	1650.00	0	2.2690	0	34.6180	4	27.653	0	1630.311	0	37.0	4	11.2	4	-1E+10	1	-1E+10	1	-1E+10	1	-1E+10	1	-1E+10	1	-1E+10	1
4901784	62	C	03/16/2017	10:44	-132.233	43.994	0	1654.90	0	2.2600	0	34.6190	4	27.655	0	1635.134	0	37.4	4	11.3	4	-1E+10	1	-1E+10	1	-1E+10	1	-1E+10	1	-1E+10	1	-1E+10	1
4901784	62	C	03/16/2017	10:44	-132.233	43.994	0	1659.80	0	2.2530	0	34.6200	4	27.656	0	1639.956	0	37.7	4	11.5	4	-1E+10	1	-1E+10	1	-1E+10	1	-1E+10	1	-1E+10	1	-1E+10	1
4901784	62	C	03/16/2017	10:44	-132.233	43.994	0	1664.70	0	2.2460	0	34.6210	4	27.657	0	1644.779	0	38.2	4	11.6	4	-1E+10	1	-1E+10	1	-1E+10	1	-1E+10	1	-1E+10	1	-1E+10	1
4901784	62	C	03/16/2017	10:44	-132.233	43.994	0	1669.70	0	2.2370	0	34.6230	4	27.660	0	1649.700	0	38.7	4	11.8	4	-1E+10	1	-1E+10	1	-1E+10	1	-1E+10	1	-1E+10	1	-1E+10	1
4901784	62	C	03/16/2017	10:44	-132.233	43.994	0	1674.60	0	2.2250	0	34.6240	4	27.662	0	1654.522	0	39.1	4	11.9	4	-1E+10	1	-1E+10	1	-1E+10	1	-1E+10	1	-1E+10	1	-1E+10	1
4901784	62	C	03/16/2017	10:44	-132.233	43.994	0	1679.60	0	2.2230	0	34.6250	4	27.663	0	1659.442	0	39.3	4	11.9	4	-1E+10	1	-1E+10	1	-1E+10	1	-1E+10	1	-1E+10	1	-1E+10	1
4901784	62	C	03/16/2017	10:44	-132.233	43.994	0	1684.70	0	2.2180	0	34.6250	4	27.663	0	1664.461	0	39.5	4	12.0	4	-1E+10	1	-1E+10	1	-1E+10	1	-1E+10	1	-1E+10	1	-1E+10	1
4901784	62	C	03/16/2017	10:44	-132.233	43.994	0	1689.70	0	2.2120	0	34.6260	4	27.664	0	1669.381	0	39.7	4	12.0	4	-1E+10	1	-1E+10	1	-1E+10	1	-1E+10	1	-1E+10	1	-1E+10	1
4901784	62	C	03/16/2017	10:44	-132.233	43.994	0	1694.80	0	2.2080	0	34.6260	4	27.665	0	1674.400	0	40.0	4	12.1	4	-1E+10	1	-1E+10	1	-1E+10	1	-1E+10	1	-1E+10	1	-1E+10	1
4901784	62	C	03/16/2017	10:44	-132.233	43.994	0	1699.80	0	2.2040	0	34.6270	4	27.666	0	1679.320	0	40.3	4	12.2	4	-1E+10	1	-1E+10	1	-1E+10	1	-1E+10	1	-1E+10	1	-1E+10	1
4901784	62	C	03/16/2017	10:44	-132.233	43.994	0	1704.90	0	2.1980	0	34.6280	4	27.667	0	1684.338	0	40.6	4	12.3	4	-1E+10	1	-1E+10	1	-1E+10	1	-1E+10	1	-1E+10	1	-1E+10	1
4901784	62	C	03/16/2017	10:44	-132.233	43.994	0	1709.90	0	2.1900	0	34.6290	4	27.669	0	1689.258	0	41.0	4	12.4	4	-1E+10	1	-1E+10	1	-1E+10	1	-1E+10	1	-1E+10	1	-1E+10	1
4901784	62	C	03/16/2017	10:44	-132.233	43.994	0	1715.00	0	2.1840	0	34.6300	4	27.670	0	1694.276	0	41.3	4	12.5	4	-1E+10	1	-1E+10	1	-1E+10	1	-1E+10	1	-1E+10	1	-1E+10	1
4901784	62	C	03/16/2017	10:44	-132.233	43.994	0	1720.20	0	2.1790	0	34.6300	4	27.670	0	1699.392	0	41.7	4	12.6	4	-1E+10	1	-1E+10	1	-1E+10	1	-1E+10	1	-1E+10	1	-1E+10	1
4901784	62	C	03/16/2017	10:44	-132.233	43.994	0	1725.30	0	2.1700	0	34.6310	4	27.672	0	1704.410	0	42.2	4	12.8	4	-1E+10	1	-1E+10	1	-1E+10	1	-1E+10	1	-1E+10	1	-1E+10	1
4901784	62	C	03/16/2017	10:44	-132.233	43.994	0	1730.50	0	2.1600	0	34.6330	4	27.674	0	1709.526	0	42.5	4	12.9	4	-1E+10	1	-1E+10	1	-1E+10	1	-1E+10	1	-1E+10	1	-1E+10	1
4901784	62	C	03/16/2017	10:44	-132.233	43.994	0	1735.70	0	2.1560	0	34.6340	4	27.675	0	1714.642	0	42.8	4	12.9	4	-1E+10	1	-1E+10	1	-1E+10	1	-1E+10	1	-1E+10	1	-1E+10	1
4901784	62	C	03/16/2017	10:44	-132.233	43.994	0	1740.00	0	2.1540	0	34.6340	4	27.676	0	1718.873	0	43.0	4	13.0	4	-1E+10	1	-1E+10	1	-1E+10	1	-1E+10	1	-1E+10	1	-1E+10	1
4901784	62	C	03/16/2017	10:44	-132.233	43.994	0	1744.40	0	2.1490	0	34.6350	4	27.677	0	1723.201	0	43.3	4	13.1	4	-1E+10	1	-1E+10	1	-1E+10	1	-1E+10	1	-1E+10	1	-1E+10	1
4901784	62	C	03/16/2017	10:44	-132.233	43.994	0	1749.60	0	2.1400	0	34.6360	4	27.678	0	1728.317	0	43.7	4	13.2	4	-1E+10	1	-1E+10	1	-1E+10	1	-1E+10	1	-1E+10	1	-1E+10	1
4901784	62	C	03/16/2017	10:44	-132.233	43.994	0	1754.90	0	2.1360	0	34.6370	4	27.679	0	1733.531	0	43.9	4	13.3	4	-1E+10	1	-1E+10	1	-1E+10	1	-1E+10	1	-1E+10	1	-1E+10	1
4901784	62	C	03/16/2017	10:44	-132.233	43.994	0	1760.20	0	2.1340	0	34.6370	4	27.680	0	1738.745	0	44.2	4	13.4	4	-1E+10	1	-1E+10	1	-1E+10	1	-1E+10	1	-1E+10	1	-1E+10	1
4901784	62	C	03/16/2017	10:44	-132.233	43.994	0	1765.50	0	2.1260	0	34.6380	4	27.681	0	1743.958	0	44.6	4	13.5	4	-1E+10	1	-1E+10	1	-1E+10	1	-1E+10	1	-1E+10	1	-1E+10	1
4901784	62	C	03/16/2017	10:44	-132.233	43.994	0	1770.00	0	2.1200	0	34.6390	4	27.682	0	1748.385	0	45.0	4	13.6	4	-1E+10	1	-1E+10	1	-1E+10	1	-1E+10	1	-1E+10	1	-1E+10	1
4901784	62	C	03/16/2017	10:44	-132.233	43.994	0	1774.50	0	2.1160	0	34.6400	4	27.684	0	1752.811	0	45.2	4	13.7	4	-1E+10	1	-1E+10	1	-1E+10	1	-1E+10	1	-1E+10	1	-1E+10	1
4901784	62	C	03/16/2017	10:44	-132.233	43.994	0	1780.00	0	2.1130	0	34.6400	4	27.684	0	1758.221	0	45.5	4	13.8	4	-1E+10	1	-1E+10	1	-1E+10	1	-1E+10	1	-1E+10	1	-1E+10	1
4901784	62	C	03/16/2017	10:44	-132.233	43.994	0	1785.10	0	2.1050	0	34.6410	4	27.685	0	1763.238	0	45.9	4	13.9	4	-1E+10	1	-1E+10	1	-1E+10	1	-1E+10	1	-1E+10	1	-1E+10	1
4901784	62	C	03/16/2017	10:44	-132.233	43.994	0	1789.30	0	2.1030	0	34.6420	4	27.686	0	1767.369	0	46.2	4	14.0	4	-1E+10	1	-1E+10	1	-1E+10	1	-1E+10	1	-1E+10	1	-1E+10	1
4901784	62	C	03/16/2017	10:44	-132.233	43.994	0	1795.00	0	2.0960	0	34.6430	4	27.688	0	1772.975	0	46.6	4	14.1	4	-1E+10	1	-1E+10	1	-1E+10	1	-1E+10	1	-1E+10	1	-1E+10	1
4901784	62	C	03/16/2017	10:44	-132.233	43.994	0	1800.70	0	2.0910	0	34.6440	4	27.689	0	1778.582	0	47.0	4	14.2	4	-1E+10	1	-1E+10	1	-1E+10	1	-1E+10	1	-1E+10	1	-1E+10	1
4901784	62	C	03/16/2017	10:44	-132.233	43.994	0	1805.60	0	2.0860	0	34.6440	4	27.689	0	1783.401	0	47.3	4	14.3	4	-1E+10	1	-1E+10	1	-1E+10	1	-1E+10	1	-1E+10	1	-1E+10	1
4901784	62	C	03/16/2017	10:44	-132.233	43.994	0	1810.50	0	2.0820	0	34.6450	4	27.690	0	1788.220	0	47.8	4	14.4	4	-1E+10	1	-1E+10	1	-1E+10	1	-1E+10	1	-1E+10	1	-1E+10	1
4901784	62	C	03/16/2017	10:44	-132.233	43.994	0	1815.40	0	2.0740	0	34.6460	4	27.692	0	1793.039	0	48.4	4	14.6	4	-1E+10	1	-1E+10	1	-1E+10	1	-1E+10	1	-1E+10	1	-1E+10	1
4901784	62	C	03/16/2017	10:44	-132.233	43.994	0	1820.40	0	2.0670	0	34.6480	4	27.694	0	1797.956	0	48.8	4	14.7	4	-1E+10	1	-1E+10	1	-1E+10	1	-1E+10	1	-1E+10	1	-1E+10	1
4901784	62	C	03/16/2017	10:44	-132.233	43.994	0	1825.40	0	2.0650	0	34.6480	4	27.694	0	1802.873	0	49.1	4	14.8	4	-1E+10	1	-1E+10	1	-1E+10	1	-1E+10	1	-1E+10	1	-1E+10	1
4901784	62	C	03/16/2017	10:44	-132.233	43.994	0	1830.40	0	2.0590	0	34.6500	4	27.696	0	1807.791	0	49.5	4	15.0	4	-1E+10	1	-1E+10	1	-1E+10	1	-1E+10	1	-1E+10	1	-1E+10	1
4901784	62	C	03/16/2017	10:44	-132.233	43.994	0	1835.50	0	2.0550	0	34.6510	4	27.698	0	1812.806	0	49.8	4	15.1	4	-1E+10	1	-1E+10	1	-1E+10	1	-1E+10	1	-1E+10	1	-1E+10	1
4901784	62	C	03/16/2017	10:44	-132.233	43.994	0	1840.60	0	2.0510	0	34.6510	4	27.698	0	1817.821	0	50.1	4	15.1	4	-1E+10	1	-1E+10	1	-1E+10	1	-1E+10	1	-1E+10	1	-1E+10	1
4901784	62	C	03/16/2017	10:44	-132.233	43.994	0	1845.80	0	2.0470	0	34.6520	4	27.699	0	1822.934	0	50.3	4	15.2	4	-1E+10	1	-1E+10	1	-1E+10	1	-1E+10	1	-1E+10	1	-1E+10	1
4901784	62	C	03/16/2017	10:44	-132.233	43.994	0	1850.10	0	2.0450	0	34.6520	4	27.699	0	1827.163	0	50.5	4	15.2	4	-1E+10	1	-1E+10	1	-1E+10	1	-1E+10	1	-1E+10	1	-1E+10	1
4901784	62	C	03/16/2017	10:44	-132.233	43.994	0	1854.40	0	2.0430	0	34.6520	4	27.699	0	1831.391	0	50.7	4	15.3	4	-1E+10	1	-1E+10	1	-1E+10	1	-1E+10	1	-1E+10	1	-1E+10	1
4901784	62	C	03/16/2017	10:44	-132.233	43.994	0	1859.60	0	2.0380	0	34.6530	4	27.701	0	1836.504	0	51.0	4	15.4	4	-1E+10	1	-1E+10	1	-1E+10	1	-1E+10	1	-1E+10	1	-1E+10	1
4901784	62	C	03/16/2017	10:44	-132.233	43.994	0	1864.80	0	2.0310	0	34.6530	4	27.701	0	1841.617	0	51.5	4	15.5	4	-1E+10	1	-1E+10	1	-1E+10	1	-1E+10	1	-1E+10	1	-1E+10	1
4901784	62	C	03/16/2017	10:44	-132.233	43.994	0	1870.00	0	2.0210	0	34.6550	4	27.704	0	1846.729	0	52.0	4	15.7	4	-1E+10	1	-1E+10	1	-1E+10	1	-1E+10	1	-1E+10	1	-1E+10	1
4901784	62	C	03/16/2017	10:44	-132.233	43.994	0	1875.40	0	2.0150	0	34.6560	4	27.705	0	1852.039	0	52.3	4	15.8	4	-1E+10	1	-1E+10	1	-1E+10	1	-1E+10	1	-1E+10	1	-1E+10	1
4901784	62	C	03/16/2017	10:44	-132.233	43.994	0	1879.90	0	2.0080	0	34.6570	4	27.706	0	1856.463	0	52.7	4	15.9	4	-1E+10	1	-1E+10	1	-1E+10	1	-1E+10	1	-1E+10	1	-1E+10	1
4901784	62	C	03/16/2017	10:44	-132.233	43.994	0	1884.40	0	2.0040	0	34.6570	4	27.707	0	1860.887	0	53.0	4	16.0	4	-1E+10	1	-1E+10	1	-1E+10	1	-1E+10	1	-1E+10	1	-1E+10	1
4901784	62	C	03/16/2017	10:44	-132.233	43.994	0	1889.90	0	1.9980	0	34.6580	4	27.708	0	1866.295	0	53.4	4	16.1	4	-1E+10	1	-1E+10	1	-1E+10	1	-1E+10	1	-1E+10	1	-1E+10	1
4901784	62	C	03/16/2017	10:44	-132.233	43.994	0	1895.40	0	1.9940	0	34.6590	4	27.709	0	1871.702	0	53.7	4	16.2	4	-1E+10	1	-1E+10	1	-1E+10	1	-1E+10	1	-1E+10	1	-1E+10	1
4901784	62	C	03/16/2017	10:44	-132.233	43.994	0	1900.00	0	1.9910	0	34.6590	4	27.709	0	1876.224	0	53.9	4	16.3	4	-1E+10	1	-1E+10	1	-1E+10	1	-1E+10	1	-1E+10	1	-1E+10	1
4901784	62	C	03/16/2017	10:44	-132.233	43.994	0	1904.60	0	1.9870	0	34.6600	4	27.710	0	1880.746	0	54.1	4	16.3	4	-1E+10	1	-1E+10	1	-1E+10	1	-1E+10	1	-1E+10	1	-1E+10	1
4901784	62	C	03/16/2017	10:44	-132.233	43.994	0	1910.10	0	1.9850	0	34.6600	4	27.711	0	1886.153	0	54.3	4	16.4	4	-1E+10	1	-1E+10	1	-1E+10	1	-1E+10	1	-1E+10	1	-1E+10	1
4901784	62	C	03/16/2017	10:44	-132.233	43.994	0	1914.80	0	1.9830	0	34.6610	4	27.712	0	1890.773	0	54.5	4	16.4	4	-1E+10	1	-1E+10	1	-1E+10	1	-1E+10	1	-1E+10	1	-1E+10	1
4901784	62	C	03/16/2017	10:44	-132.233	43.994	0	1920.10	0	1.9800	0	34.6610	4	27.712	0	1895.983	0	54.8	4	16.5	4	-1E+10	1	-1E+10	1	-1E+10	1	-1E+10	1	-1E+10	1	-1E+10	1
4901784	62	C	03/16/2017	10:44	-132.233	43.994	0	1925.20	0	1.9780	0	34.6620	4	27.713	0	1900.996	0	55.1	4	16.6	4	-1E+10	1	-1E+10	1	-1E+10	1	-1E+10	1	-1E+10	1	-1E+10	1
4901784	62	C	03/16/2017	10:44	-132.233	43.994	0	1930.10	0	1.9730	0	34.6620	4	27.713	0	1905.813	0	55.4	4	16.7	4	-1E+10	1	-1E+10	1	-1E+10	1	-1E+10	1	-1E+10	1	-1E+10	1
4901784	62	C	03/16/2017	10:44	-132.233	43.994	0	1935.10	0	1.9650	0	34.6640	4	27.715	0	1910.727	0	55.8	4	16.8	4	-1E+10	1	-1E+10	1	-1E+10	1	-1E+10	1	-1E+10	1	-1E+10	1
4901784	62	C	03/16/2017	10:44	-132.233	43.994	0	1940.10	0	1.9640	0	34.6640	4	27.716	0	1915.642	0	55.9	4	16.8	4	-1E+10	1	-1E+10	1	-1E+10	1	-1E+10	1	-1E+10	1	-1E+10	1
4901784	62	C	03/16/2017	10:44	-132.233	43.994	0	1945.20	0	1.9630	0	34.6640	4	27.716	0	1920.654	0	56.0	4	16.9	4	-1E+10	1	-1E+10	1	-1E+10	1	-1E+10	1	-1E+10	1	-1E+10	1
4901784	62	C	03/16/2017	10:44	-132.233	43.994	0	1950.30	0	1.9620	0	34.6640	4	27.716	0	1925.667	0	56.2	4	17.0	4	-1E+10	1	-1E+10	1	-1E+10	1	-1E+10	1	-1E+10	1	-1E+10	1
4901784	62	C	03/16/2017	10:44	-132.233	43.994	0	1955.50	0	1.9580	0	34.6650	4	27.717	0	1930.778	0	56.6	4	17.1	4	-1E+10	1	-1E+10	1	-1E+10	1	-1E+10	1	-1E+10	1	-1E+10	1
4901784	62	C	03/16/2017	10:44	-132.233	43.994	0	1960.70	0	1.9530	0	34.6660	4	27.718	0	1935.888	0	56.9	4	17.2	4	-1E+10	1	-1E+10	1	-1E+10	1	-1E+10	1	-1E+10	1	-1E+10	1
4901784	62	C	03/16/2017	10:44	-132.233	43.994	0	1965.10	0	1.9490	0	34.6670	4	27.719	0	1940.213	0	57.1	4	17.2	4	-1E+10	1	-1E+10	1	-1E+10	1	-1E+10	1	-1E+10	1	-1E+10	1
4901784	62	C	03/16/2017	10:44	-132.233	43.994	0	1969.40	0	1.9480	0	34.6670	4	27.719	0	1944.439	0	57.2	4	17.2	4	-1E+10	1	-1E+10	1	-1E+10	1	-1E+10	1	-1E+10	1	-1E+10	1
4901784	62	C	03/16/2017	10:44	-132.233	43.994	0	1974.70	0	1.9480	0	34.6670	4	27.719	0	1949.647	0	57.3	4	17.3	4	-1E+10	1	-1E+10	1	-1E+10	1	-1E+10	1	-1E+10	1	-1E+10	1
4901784	62	C	03/16/2017	10:44	-132.233	43.994	0	1980.00	0	1.9460	0	34.6670	4	27.720	0	1954.856	0	57.6	4	17.3	4	-1E+10	1	-1E+10	1	-1E+10	1	-1E+10	1	-1E+10	1	-1E+10	1
4901784	62	C	03/16/2017	10:44	-132.233	43.994	0	1985.30	0	1.9440	0	34.6680	4	27.721	0	1960.064	0	58.0	4	17.5	4	-1E+10	1	-1E+10	1	-1E+10	1	-1E+10	1	-1E+10	1	-1E+10	1
4901784	62	C	03/16/2017	10:44	-132.233	43.994	0	1990.50	0	1.9380	0	34.6690	4	27.722	0	1965.174	0	58.3	4	17.6	4	-1E+10	1	-1E+10	1	-1E+10	1	-1E+10	1	-1E+10	1	-1E+10	1
4901784	62	C	03/16/2017	10:44	-132.233	43.994	0	1995.00	0	1.9340	0	34.6690	4	27.722	0	1969.596	0	58.6	4	17.6	4	-1E+10	1	-1E+10	1	-1E+10	1	-1E+10	1	-1E+10	1	-1E+10	1
4901784	62	C	03/16/2017	10:44	-132.233	43.994	0	2000.10	0	1.9310	0	34.6700	4	27.723	0	1974.607	0	58.9	4	17.7	4	-1E+10	1	-1E+10	1	-1E+10	1	-1E+10	1	-1E+10	1	-1E+10	1
4901784	62	C	03/16/2017	10:44	-132.233	43.994	0	2005.50	0	1.9270	0	34.6710	4	27.724	0	1979.914	0	59.1	4	17.8	4	-1E+10	1	-1E+10	1	-1E+10	1	-1E+10	1	-1E+10	1	-1E+10	1
4901784	62	C	03/16/2017	10:44	-132.233	43.994	0	2010.20	0	1.9260	0	34.6710	4	27.725	0	1984.532	0	59.3	4	17.9	4	-1E+10	1	-1E+10	1	-1E+10	1	-1E+10	1	-1E+10	1	-1E+10	1
4901784	62	C	03/16/2017	10:44	-132.233	43.994	0	2014.70	0	1.9230	0	34.6710	4	27.725	0	1988.953	0	59.5	4	17.9	4	-1E+10	1	-1E+10	1	-1E+10	1	-1E+10	1	-1E+10	1	-1E+10	1
4901784	62	C	03/16/2017	10:44	-132.233	43.994	0	2020.20	0	1.9190	0	34.6720	4	27.726	0	1994.357	0	59.8	4	18.0	4	-1E+10	1	-1E+10	1	-1E+10	1	-1E+10	1	-1E+10	1	-1E+10	1
4901784	62	C	03/16/2017	10:44	-132.233	43.994	0																										
4901784	63	C	03/26/2017	10:44	-132.163	43.917	0	3.40	0	9.1910	0	33.0210	4	25.539	0	3.373	0	272.6	4	96.2	4	-1E+10	1	-1E+10	1	-1E+10	1	-1E+10	1	-1E+10	1	-1E+10	1
4901784	63	C	03/26/2017	10:44	-132.163	43.917	0	4.90	0	9.1920	0	33.0210	4	25.539	0	4.861	0	272.9	4	96.3	4	-1E+10	1	-1E+10	1	-1E+10	1	-1E+10	1	-1E+10	1	-1E+10	1
4901784	63	C	03/26/2017	10:44	-132.163	43.917	0	6.60	0	9.1930	0	33.0210	4	25.539	0	6.547	0	272.7	4	96.2	4	-1E+10	1	-1E+10	1	-1E+10	1	-1E+10	1	-1E+10	1	-1E+10	1
4901784	63	C	03/26/2017	10:44	-132.163	43.917	0	8.30	0	9.1930	0	33.0210	4	25.539	0	8.233	0	272.8	4	96.2	4	-1E+10	1	-1E+10	1	-1E+10	1	-1E+10	1	-1E+10	1	-1E+10	1
4901784	63	C	03/26/2017	10:44	-132.163	43.917	0	10.10	0	9.1940	0	33.0210	4	25.539	0	10.019	0	272.9	4	96.3	4	-1E+10	1	-1E+10	1	-1E+10	1	-1E+10	1	-1E+10	1	-1E+10	1
4901784	63	C	03/26/2017	10:44	-132.163	43.917	0	12.10	0	9.1960	0	33.0210	4	25.538	0	12.003	0	272.8	4	96.2	4	-1E+10	1	-1E+10	1	-1E+10	1	-1E+10	1	-1E+10	1	-1E+10	1
4901784	63	C	03/26/2017	10:44	-132.163	43.917	0	14.90	0	9.1980	0	33.0210	4	25.538	0	14.780	0	272.8	4	96.3	4	-1E+10	1	-1E+10	1	-1E+10	1	-1E+10	1	-1E+10	1	-1E+10	1
4901784	63	C	03/26/2017	10:44	-132.163	43.917	0	17.00	0	9.1960	0	33.0210	4	25.538	0	16.863	0	272.8	4	96.3	4	-1E+10	1	-1E+10	1	-1E+10	1	-1E+10	1	-1E+10	1	-1E+10	1
4901784	63	C	03/26/2017	10:44	-132.163	43.917	0	18.80	0	9.1950	0	33.0210	4	25.539	0	18.648	0	272.8	4	96.3	4	-1E+10	1	-1E+10	1	-1E+10	1	-1E+10	1	-1E+10	1	-1E+10	1
4901784	63	C	03/26/2017	10:44	-132.163	43.917	0	20.40	0	9.1960	0	33.0210	4	25.539	0	20.235	0	272.6	4	96.2	4	-1E+10	1	-1E+10	1	-1E+10	1	-1E+10	1	-1E+10	1	-1E+10	1
4901784	63	C	03/26/2017	10:44	-132.163	43.917	0	22.00	0	9.1960	0	33.0210	4	25.539	0	21.822	0	272.7	4	96.2	4	-1E+10	1	-1E+10	1	-1E+10	1	-1E+10	1	-1E+10	1	-1E+10	1
4901784	63	C	03/26/2017	10:44	-132.163	43.917	0	23.50	0	9.1990	0	33.0210	4	25.538	0	23.310	0	272.8	4	96.3	4	-1E+10	1	-1E+10	1	-1E+10	1	-1E+10	1	-1E+10	1	-1E+10	1
4901784	63	C	03/26/2017	10:44	-132.163	43.917	0	24.90	0	9.1980	0	33.0210	4	25.538	0	24.699	0	272.8	4	96.3	4	-1E+10	1	-1E+10	1	-1E+10	1	-1E+10	1	-1E+10	1	-1E+10	1
4901784	63	C	03/26/2017	10:44	-132.163	43.917	0	26.40	0	9.1980	0	33.0220	4	25.539	0	26.187	0	272.7	4	96.2	4	-1E+10	1	-1E+10	1	-1E+10	1	-1E+10	1	-1E+10	1	-1E+10	1
4901784	63	C	03/26/2017	10:44	-132.163	43.917	0	27.90	0	9.1960	0	33.0210	4	25.539	0	27.674	0	272.6	4	96.2	4	-1E+10	1	-1E+10	1	-1E+10	1	-1E+10	1	-1E+10	1	-1E+10	1
4901784	63	C	03/26/2017	10:44	-132.163	43.917	0	29.50	0	9.1960	0	33.0210	4	25.539	0	29.261	0	272.8	4	96.3	4	-1E+10	1	-1E+10	1	-1E+10	1	-1E+10	1	-1E+10	1	-1E+10	1
4901784	63	C	03/26/2017	10:44	-132.163	43.917	0	31.00	0	9.1970	0	33.0210	4	25.539	0	30.749	0	272.8	4	96.2	4	-1E+10	1	-1E+10	1	-1E+10	1	-1E+10	1	-1E+10	1	-1E+10	1
4901784	63	C	03/26/2017	10:44	-132.163	43.917	0	32.50	0	9.1970	0	33.0210	4	25.539	0	32.237	0	272.6	4	96.2	4	-1E+10	1	-1E+10	1	-1E+10	1	-1E+10	1	-1E+10	1	-1E+10	1
4901784	63	C	03/26/2017	10:44	-132.163	43.917	0	34.20	0	9.1980	0	33.0210	4	25.538	0	33.923	0	272.7	4	96.2	4	-1E+10	1	-1E+10	1	-1E+10	1	-1E+10	1	-1E+10	1	-1E+10	1
4901784	63	C	03/26/2017	10:44	-132.163	43.917	0	36.00	0	9.1980	0	33.0210	4	25.538	0	35.708	0	272.8	4	96.2	4	-1E+10	1	-1E+10	1	-1E+10	1	-1E+10	1	-1E+10	1	-1E+10	1
4901784	63	C	03/26/2017	10:44	-132.163	43.917	0	37.90	0	9.1990	0	33.0210	4	25.538	0	37.593	0	272.7	4	96.2	4	-1E+10	1	-1E+10	1	-1E+10	1	-1E+10	1	-1E+10	1	-1E+10	1
4901784	63	C	03/26/2017	10:44	-132.163	43.917	0	39.80	0	9.2010	0	33.0210	4	25.538	0	39.477	0	272.8	4	96.2	4	-1E+10	1	-1E+10	1	-1E+10	1	-1E+10	1	-1E+10	1	-1E+10	1
4901784	63	C	03/26/2017	10:44	-132.163	43.917	0	41.70	0	9.2020	0	33.0210	4	25.538	0	41.361	0	272.7	4	96.2	4	-1E+10	1	-1E+10	1	-1E+10	1	-1E+10	1	-1E+10	1	-1E+10	1
4901784	63	C	03/26/2017	10:44	-132.163	43.917	0	43.50	0	9.1990	0	33.0210	4	25.538	0	43.147	0	272.6	4	96.2	4	-1E+10	1	-1E+10	1	-1E+10	1	-1E+10	1	-1E+10	1	-1E+10	1
4901784	63	C	03/26/2017	10:44	-132.163	43.917	0	45.30	0	9.1990	0	33.0210	4	25.538	0	44.932	0	272.7	4	96.2	4	-1E+10	1	-1E+10	1	-1E+10	1	-1E+10	1	-1E+10	1	-1E+10	1
4901784	63	C	03/26/2017	10:44	-132.163	43.917	0	47.30	0	9.2060	0	33.0220	4	25.538	0	46.915	0	272.7	4	96.2	4	-1E+10	1	-1E+10	1	-1E+10	1	-1E+10	1	-1E+10	1	-1E+10	1
4901784	63	C	03/26/2017	10:44	-132.163	43.917	0	49.30	0	9.2070	0	33.0230	4	25.539	0	48.899	0	272.6	4	96.2	4	-1E+10	1	-1E+10	1	-1E+10	1	-1E+10	1	-1E+10	1	-1E+10	1
4901784	63	C	03/26/2017	10:44	-132.163	43.917	0	51.30	0	9.2070	0	33.0230	4	25.539	0	50.882	0	272.5	4	96.2	4	-1E+10	1	-1E+10	1	-1E+10	1	-1E+10	1	-1E+10	1	-1E+10	1
4901784	63	C	03/26/2017	10:44	-132.163	43.917	0	53.30	0	9.2090	0	33.0230	4	25.539	0	52.866	0	272.5	4	96.2	4	-1E+10	1	-1E+10	1	-1E+10	1	-1E+10	1	-1E+10	1	-1E+10	1
4901784	63	C	03/26/2017	10:44	-132.163	43.917	0	55.20	0	9.2080	0	33.0230	4	25.539	0	54.750	0	272.4	4	96.1	4	-1E+10	1	-1E+10	1	-1E+10	1	-1E+10	1	-1E+10	1	-1E+10	1
4901784	63	C	03/26/2017	10:44	-132.163	43.917	0	57.40	0	9.2090	0	33.0240	4	25.539	0	56.932	0	272.5	4	96.2	4	-1E+10	1	-1E+10	1	-1E+10	1	-1E+10	1	-1E+10	1	-1E+10	1
4901784	63	C	03/26/2017	10:44	-132.163	43.917	0	58.00	0	9.2090	0	33.0240	4	25.539	0	57.527	0	272.4	4	96.1	4	-1E+10	1	-1E+10	1	-1E+10	1	-1E+10	1	-1E+10	1	-1E+10	1
4901784	63	C	03/26/2017	10:44	-132.163	43.917	0	59.60	0	9.2110	0	33.0240	4	25.539	0	59.114	0	272.5	4	96.2	4	-1E+10	1	-1E+10	1	-1E+10	1	-1E+10	1	-1E+10	1	-1E+10	1
4901784	63	C	03/26/2017	10:44	-132.163	43.917	0	61.20	0	9.2100	0	33.0240	4	25.539	0	60.700	0	272.3	4	96.1	4	-1E+10	1	-1E+10	1	-1E+10	1	-1E+10	1	-1E+10	1	-1E+10	1
4901784	63	C	03/26/2017	10:44	-132.163	43.917	0	62.80	0	9.2100	0	33.0240	4	25.539	0	62.287	0	272.2	4	96.1	4	-1E+10	1	-1E+10	1	-1E+10	1	-1E+10	1	-1E+10	1	-1E+10	1
4901784	63	C	03/26/2017	10:44	-132.163	43.917	0	64.50	0	9.2110	0	33.0240	4	25.539	0	63.973	0	272.2	4	96.1	4	-1E+10	1	-1E+10	1	-1E+10	1	-1E+10	1	-1E+10	1	-1E+10	1
4901784	63	C	03/26/2017	10:44	-132.163	43.917	0	66.10	0	9.2120	0	33.0250	4	25.540	0	65.559	0	272.2	4	96.1	4	-1E+10	1	-1E+10	1	-1E+10	1	-1E+10	1	-1E+10	1	-1E+10	1
4901784	63	C	03/26/2017	10:44	-132.163	43.917	0	67.70	0	9.2120	0	33.0250	4	25.540	0	67.146	0	272.2	4	96.1	4	-1E+10	1	-1E+10	1	-1E+10	1	-1E+10	1	-1E+10	1	-1E+10	1
4901784	63	C	03/26/2017	10:44	-132.163	43.917	0	69.30	0	9.2130	0	33.0250	4	25.540	0	68.733	0	271.9	4	96.0	4	-1E+10	1	-1E+10	1	-1E+10	1	-1E+10	1	-1E+10	1	-1E+10	1
4901784	63	C	03/26/2017	10:44	-132.163	43.917	0	70.90	0	9.2130	0	33.0250	4	25.540	0	70.319	0	271.9	4	96.0	4	-1E+10	1	-1E+10	1	-1E+10	1	-1E+10	1	-1E+10	1	-1E+10	1
4901784	63	C	03/26/2017	10:44	-132.163	43.917	0	72.60	0	9.2140	0	33.0270	4	25.541	0	72.005	0	271.6	4	95.9	4	-1E+10	1	-1E+10	1	-1E+10	1	-1E+10	1	-1E+10	1	-1E+10	1
4901784	63	C	03/26/2017	10:44	-132.163	43.917	0	74.10	0	9.2150	0	33.0270	4	25.541	0	73.493	0	271.6	4	95.9	4	-1E+10	1	-1E+10	1	-1E+10	1	-1E+10	1	-1E+10	1	-1E+10	1
4901784	63	C	03/26/2017	10:44	-132.163	43.917	0	75.80	0	9.2150	0	33.0280	4	25.542	0	75.178	0	271.3	4	95.8	4	-1E+10	1	-1E+10	1	-1E+10	1	-1E+10	1	-1E+10	1	-1E+10	1
4901784	63	C	03/26/2017	10:44	-132.163	43.917	0	77.40	0	9.2160	0	33.0280	4	25.542	0	76.765	0	271.0	4	95.6	4	-1E+10	1	-1E+10	1	-1E+10	1	-1E+10	1	-1E+10	1	-1E+10	1
4901784	63	C	03/26/2017	10:44	-132.163	43.917	0	79.10	0	9.2160	0	33.0280	4	25.542	0	78.451	0	270.9	4	95.6	4	-1E+10	1	-1E+10	1	-1E+10	1	-1E+10	1	-1E+10	1	-1E+10	1
4901784	63	C	03/26/2017	10:44	-132.163	43.917	0	80.70	0	9.2150	0	33.0330	4	25.546	0	80.037	0	270.4	4	95.4	4	-1E+10	1	-1E+10	1	-1E+10	1	-1E+10	1	-1E+10	1	-1E+10	1
4901784	63	C	03/26/2017	10:44	-132.163	43.917	0	82.40	0	9.2100	0	33.0330	4	25.547	0	81.723	0	269.9	4	95.3	4	-1E+10	1	-1E+10	1	-1E+10	1	-1E+10	1	-1E+10	1	-1E+10	1
4901784	63	C	03/26/2017	10:44	-132.163	43.917	0	84.00	0	9.2030	0	33.0350	4	25.549	0	83.310	0	269.5	4	95.1	4	-1E+10	1	-1E+10	1	-1E+10	1	-1E+10	1	-1E+10	1	-1E+10	1
4901784	63	C	03/26/2017	10:44	-132.163	43.917	0	85.70	0	9.1810	0	33.0390	4	25.556	0	84.995	0	269.2	4	95.0	4	-1E+10	1	-1E+10	1	-1E+10	1	-1E+10	1	-1E+10	1	-1E+10	1
4901784	63	C	03/26/2017	10:44	-132.163	43.917	0	87.40	0	9.1800	0	33.0400	4	25.557	0	86.681	0	268.6	4	94.7	4	-1E+10	1	-1E+10	1	-1E+10	1	-1E+10	1	-1E+10	1	-1E+10	1
4901784	63	C	03/26/2017	10:44	-132.163	43.917	0	89.10	0	9.1870	0	33.0460	4	25.561	0	88.366	0	268.0	4	94.6	4	-1E+10	1	-1E+10	1	-1E+10	1	-1E+10	1	-1E+10	1	-1E+10	1
4901784	63	C	03/26/2017	10:44	-132.163	43.917	0	90.80	0	9.1840	0	33.0490	4	25.564	0	90.052	0	267.2	4	94.2	4	-1E+10	1	-1E+10	1	-1E+10	1	-1E+10	1	-1E+10	1	-1E+10	1
4901784	63	C	03/26/2017	10:44	-132.163	43.917	0	92.50	0	9.1730	0	33.0460	4	25.563	0	91.738	0	266.4	4	93.9	4	-1E+10	1	-1E+10	1	-1E+10	1	-1E+10	1	-1E+10	1	-1E+10	1
4901784	63	C	03/26/2017	10:44	-132.163	43.917	0	94.10	0	9.1660	0	33.0480	4	25.566	0	93.324	0	265.5	4	93.6	4	-1E+10	1	-1E+10	1	-1E+10	1	-1E+10	1	-1E+10	1	-1E+10	1
4901784	63	C	03/26/2017	10:44	-132.163	43.917	0	95.70	0	9.1400	0	33.0540	4	25.574	0	94.911	0	264.1	4	93.1	4	-1E+10	1	-1E+10	1	-1E+10	1	-1E+10	1	-1E+10	1	-1E+10	1
4901784	63	C	03/26/2017	10:44	-132.163	43.917	0	97.30	0	9.1400	0	33.0650	4	25.583	0	96.497	0	262.7	4	92.6	4	-1E+10	1	-1E+10	1	-1E+10	1	-1E+10	1	-1E+10	1	-1E+10	1
4901784	63	C	03/26/2017	10:44	-132.163	43.917	0	98.90	0	9.1500	0	33.0670	4	25.583	0	98.083	0	261.2	4	92.1	4	-1E+10	1	-1E+10	1	-1E+10	1	-1E+10	1	-1E+10	1	-1E+10	1
4901784	63	C	03/26/2017	10:44	-132.163	43.917	0	100.40	0	9.0890	0	33.0750	4	25.599	0	99.571	0	259.6	4	91.4	4	-1E+10	1	-1E+10	1	-1E+10	1	-1E+10	1	-1E+10	1	-1E+10	1
4901784	63	C	03/26/2017	10:44	-132.163	43.917	0	102.70	0	9.0230	0	33.0830	4	25.616	0	101.851	0	257.1	4	90.4	4	-1E+10	1	-1E+10	1	-1E+10	1	-1E+10	1	-1E+10	1	-1E+10	1
4901784	63	C	03/26/2017	10:44	-132.163	43.917	0	105.10	0	9.0100	0	33.0870	4	25.621	0	104.231	0	253.7	4	89.2	4	-1E+10	1	-1E+10	1	-1E+10	1	-1E+10	1	-1E+10	1	-1E+10	1
4901784	63	C	03/26/2017	10:44	-132.163	43.917	0	107.60	0	9.0180	0	33.1020	4	25.631	0	106.709	0	248.1	4	87.2	4	-1E+10	1	-1E+10	1	-1E+10	1	-1E+10	1	-1E+10	1	-1E+10	1
4901784	63	C	03/26/2017	10:44	-132.163	43.917	0	110.20	0	9.0450	0	33.1340	4	25.652	0	109.287	0	240.6	4	84.7	4	-1E+10	1	-1E+10	1	-1E+10	1	-1E+10	1	-1E+10	1	-1E+10	1
4901784	63	C	03/26/2017	10:44	-132.163	43.917	0	112.70	0	9.0900	0	33.2270	4	25.718	0	111.766	0	231.4	4	81.6	4	-1E+10	1	-1E+10	1	-1E+10	1	-1E+10	1	-1E+10	1	-1E+10	1
4901784	63	C	03/26/2017	10:44	-132.163	43.917	0	115.10	0	9.1030	0	33.3100	4	25.781	0	114.145	0	223.8	4	78.9	4	-1E+10	1	-1E+10	1	-1E+10	1	-1E+10	1	-1E+10	1	-1E+10	1
4901784	63	C	03/26/2017	10:44	-132.163	43.917	0	117.60	0	9.0740	0	33.3530	4	25.819	0	116.624	0	215.5	4	76.0	4	-1E+10	1	-1E+10	1	-1E+10	1	-1E+10	1	-1E+10	1	-1E+10	1
4901784	63	C	03/26/2017	10:44	-132.163	43.917	0	120.20	0	9.0780	0	33.4710	4	25.911	0	119.201	0	207.2	4	73.2	4	-1E+10	1	-1E+10	1	-1E+10	1	-1E+10	1	-1E+10	1	-1E+10	1
4901784	63	C	03/26/2017	10:44	-132.163	43.917	0	122.00	0	8.9950	0	33.5560	4	25.991	0	120.986	0	202.8	4	71.5	4	-1E+10	1	-1E+10	1	-1E+10	1	-1E+10	1	-1E+10	1	-1E+10	1
4901784	63	C	03/26/2017	10:44	-132.163	43.917	0	124.70	0	8.9040	0	33.6210	4	26.056	0	123.663	0	198.5	4	69.9	4	-1E+10	1	-1E+10	1	-1E+10	1	-1E+10	1	-1E+10	1	-1E+10	1
4901784	63	C	03/26/2017	10:44	-132.163	43.917	0	127.90	0	8.8250	0	33.6750	4	26.111	0	126.835	0	195.0	4	68.6	4	-1E+10	1	-1E+10	1	-1E+10	1	-1E+10	1	-1E+10	1	-1E+10	1
4901784	63	C	03/26/2017	10:44	-132.163	43.917	0	130.40	0	8.8060	0	33.6930	4	26.128	0	129.314	0	191.9	4	67.4	4	-1E+10	1	-1E+10	1	-1E+10	1	-1E+10	1	-1E+10	1	-1E+10	1
4901784	63	C	03/26/2017	10:44	-132.163	43.917	0	132.70	0	8.7740	0	33.7390	4	26.169	0	131.594	0	188.7	4	66.3	4	-1E+10	1	-1E+10	1	-1E+10	1	-1E+10	1	-1E+10	1	-1E+10	1
4901784	63	C	03/26/2017	10:44	-132.163	43.917	0	135.20	0	8.7260	0	33.8270	4	26.245	0	134.072	0	186.2	4	65.4	4	-1E+10	1	-1E+10	1	-1E+10	1	-1E+10	1	-1E+10	1	-1E+10	1
4901784	63	C	03/26/2017	10:44	-132.163	43.917	0	137.60	0	8.6610	0	33.8670	4	26.287	0	136.451	0	184.9	4	64.8	4	-1E+10	1	-1E+10	1	-1E+10	1	-1E+10	1	-1E+10	1	-1E+10	1
4901784	63	C	03/26/2017	10:44	-132.163	43.917	0	140.20	0	8.5770	0	33.8930	4	26.320	0	139.029	0	184.0	4	64.4	4	-1E+10	1	-1E+10	1	-1E+10	1	-1E+10	1	-1E+10	1	-1E+10	1
4901784	63	C	03/26/2017	10:44	-132.163	43.917	0	142.80	0	8.5470	0	33.9060	4	26.335	0	141.606	0	183.5	4	64.2	4	-1E+10	1	-1E+10	1	-1E+10	1	-1E+10	1	-1E+10	1	-1E+10	1
4901784	63	C	03/26/2017	10:44	-132.163	43.917	0	144.60	0	8.5120	0	33.9260	4	26.356	0	143.390	0	183.5	4	64.2	4	-1E+10	1	-1E+10	1	-1E+10	1	-1E+10	1	-1E+10	1	-1E+10	1
4901784	63	C	03/26/2017	10:44	-132.163	43.917	0	147.10	0	8.5060	0	33.9330	4	26.362	0	145.869	0	183.3	4	64.1	4	-1E+10	1	-1E+10	1	-1E+10	1	-1E+10	1	-1E+10	1	-1E+10	1
4901784	63	C	03/26/2017	10:44	-132.163	43.917	0	149.70	0	8.4390	0	33.9400	4	26.378	0	148.446	0	183.4	4	64.0	4	-1E+10	1	-1E+10	1	-1E+10	1	-1E+10	1	-1E+10	1	-1E+10	1
4901784	63	C	03/26/2017	10:44	-132.163	43.917	0	152.40	0	8.4210	0	33.9550	4	26.393	0	151.122	0	184.3	4	64.4	4	-1E+10	1	-1E+10	1	-1E+10	1	-1E+10	1	-1E+10	1	-1E+10	1
4901784	63	C	03/26/2017	10:44	-132.163	43.917	0	155.00	0	8.4620	0	33.9810	4	26.407	0	153.699	0	184.8	4	64.6	4	-1E+10	1	-1E+10	1	-1E+10	1	-1E+10	1	-1E+10	1	-1E+10	1
4901784	63	C	03/26/2017	10:44	-132.163	43.917	0	157.70	0	8.4600	0	33.9850	4	26.410	0	156.376	0	184.8	4	64.6	4	-1E+10	1	-1E+10	1	-1E+10	1	-1E+10	1	-1E+10	1	-1E+10	1
4901784	63	C	03/26/2017	10:44	-132.163	43.917	0	160.50	0	8.4560	0	33.9920	4	26.416	0	159.151	0	184.9	4	64.6	4	-1E+10	1	-1E+10	1	-1E+10	1	-1E+10	1	-1E+10	1	-1E+10	1
4901784	63	C	03/26/2017	10:44	-132.163	43.917	0	162.20	0	8.4570	0	33.9930	4	26.417	0	160.836	0	184.7	4	64.6	4	-1E+10	1	-1E+10	1	-1E+10	1	-1E+10	1	-1E+10	1	-1E+10	1
4901784	63	C	03/26/2017	10:44	-132.163	43.917	0	165.00	0	8.4020	0	34.0130	4	26.441	0	163.612	0	184.5	4	64.4	4	-1E+10	1	-1E+10	1	-1E+10	1	-1E+10	1	-1E+10	1	-1E+10	1
4901784	63	C	03/26/2017	10:44	-132.163	43.917	0	167.70	0	8.3810	0	34.0150	4	26.446	0	166.288	0	183.9	4	64.2	4	-1E+10	1	-1E+10	1	-1E+10	1	-1E+10	1	-1E+10	1	-1E+10	1
4901784	63	C	03/26/2017	10:44	-132.163	43.917	0	170.10	0	8.3200	0	34.0190	4	26.458	0	168.667	0	183.3	4	63.9	4	-1E+10	1	-1E+10	1	-1E+10	1	-1E+10	1	-1E+10	1	-1E+10	1
4901784	63	C	03/26/2017	10:44	-132.163	43.917	0	172.80	0	8.2960	0	34.0190	4	26.462	0	171.343	0	182.4	4	63.5	4	-1E+10	1	-1E+10	1	-1E+10	1	-1E+10	1	-1E+10	1	-1E+10	1
4901784	63	C	03/26/2017	10:44	-132.163	43.917	0	175.10	0	8.2710	0	34.0190	4	26.466	0	173.622	0	181.4	4	63.2	4	-1E+10	1	-1E+10	1	-1E+10	1	-1E+10	1	-1E+10	1	-1E+10	1
4901784	63	C	03/26/2017	10:44	-132.163	43.917	0	177.50	0	8.2120	0	34.0200	4	26.476	0	176.001	0	180.0	4	62.6	4	-1E+10	1	-1E+10	1	-1E+10	1	-1E+10	1	-1E+10	1	-1E+10	1
4901784	63	C	03/26/2017	10:44	-132.163	43.917	0	179.80	0	8.1520	0	34.0190	4	26.484	0	178.281	0	178.7	4	62.1	4	-1E+10	1	-1E+10	1	-1E+10	1	-1E+10	1	-1E+10	1	-1E+10	1
4901784	63	C	03/26/2017	10:44	-132.163	43.917	0	182.30	0	8.0960	0	34.0190	4	26.492	0	180.758	0	177.3	4	61.5	4	-1E+10	1	-1E+10	1	-1E+10	1	-1E+10	1	-1E+10	1	-1E+10	1
4901784	63	C	03/26/2017	10:44	-132.163	43.917	0	184.80	0	8.0170	0	34.0240	4	26.508	0	183.236	0	175.6	4	60.8	4	-1E+10	1	-1E+10	1	-1E+10	1	-1E+10	1	-1E+10	1	-1E+10	1
4901784	63	C	03/26/2017	10:44	-132.163	43.917	0	187.40	0	7.9600	0	34.0220	4	26.515	0	185.813	0	174.7	4	60.4	4	-1E+10	1	-1E+10	1	-1E+10	1	-1E+10	1	-1E+10	1	-1E+10	1
4901784	63	C	03/26/2017	10:44	-132.163	43.917	0	190.00	0	7.9440	0	34.0200	4	26.516	0	188.390	0	173.1	4	59.8	4	-1E+10	1	-1E+10	1	-1E+10	1	-1E+10	1	-1E+10	1	-1E+10	1
4901784	63	C	03/26/2017	10:44	-132.163	43.917	0	192.50	0	7.8820	0	34.0220	4	26.526	0	190.867	0	171.1	4	59.1	4	-1E+10	1	-1E+10	1	-1E+10	1	-1E+10	1	-1E+10	1	-1E+10	1
4901784	63	C	03/26/2017	10:44	-132.163	43.917	0	195.00	0	7.8130	0	34.0230	4	26.537	0	193.345	0	169.7	4	58.5	4	-1E+10	1	-1E+10	1	-1E+10	1	-1E+10	1	-1E+10	1	-1E+10	1
4901784	63	C	03/26/2017	10:44	-132.163	43.917	0	197.50	0	7.7730	0	34.0250	4	26.545	0	195.823	0	168.1	4	57.9	4	-1E+10	1	-1E+10	1	-1E+10	1	-1E+10	1	-1E+10	1	-1E+10	1
4901784	63	C	03/26/2017	10:44	-132.163	43.917	0	200.00	0	7.7030	0	34.0210	4	26.552	0	198.300	0	166.6	4	57.3	4	-1E+10	1	-1E+10	1	-1E+10	1	-1E+10	1	-1E+10	1	-1E+10	1
4901784	63	C	03/26/2017	10:44	-132.163	43.917	0	202.60	0	7.6640	0	34.0150	4	26.552	0	200.877	0	165.3	4	56.8	4	-1E+10	1	-1E+10	1	-1E+10	1	-1E+10	1	-1E+10	1	-1E+10	1
4901784	63	C	03/26/2017	10:44	-132.163	43.917	0	205.20	0	7.6160	0	34.0120	4	26.557	0	203.454	0	163.6	4	56.1	4	-1E+10	1	-1E+10	1	-1E+10	1	-1E+10	1	-1E+10	1	-1E+10	1
4901784	63	C	03/26/2017	10:44	-132.163	43.917	0	207.00	0	7.5680	0	34.0100	4	26.562	0	205.237	0	162.4	4	55.7	4	-1E+10	1	-1E+10	1	-1E+10	1	-1E+10	1	-1E+10	1	-1E+10	1
4901784	63	C	03/26/2017	10:44	-132.163	43.917	0	209.70	0	7.4810	0	34.0120	4	26.576	0	207.913	0	161.3	4	55.2	4	-1E+10	1	-1E+10	1	-1E+10	1	-1E+10	1	-1E+10	1	-1E+10	1
4901784	63	C	03/26/2017	10:44	-132.163	43.917	0	212.30	0	7.4340	0	34.0120	4	26.583	0	210.490	0	160.1	4	54.7	4	-1E+10	1	-1E+10	1	-1E+10	1	-1E+10	1	-1E+10	1	-1E+10	1
4901784	63	C	03/26/2017	10:44	-132.163	43.917	0	215.00	0	7.3990	0	34.0120	4	26.588	0	213.165	0	158.4	4	54.1	4	-1E+10	1	-1E+10	1	-1E+10	1	-1E+10	1	-1E+10	1	-1E+10	1
4901784	63	C	03/26/2017	10:44	-132.163	43.917	0	217.70	0	7.3200	0	34.0090	4	26.597	0	215.841	0	157.1	4	53.5	4	-1E+10	1	-1E+10	1	-1E+10	1	-1E+10	1	-1E+10	1	-1E+10	1
4901784	63	C	03/26/2017	10:44	-132.163	43.917	0	220.30	0	7.2400	0	34.0100	4	26.609	0	218.417	0	156.0	4	53.1	4	-1E+10	1	-1E+10	1	-1E+10	1	-1E+10	1	-1E+10	1	-1E+10	1
4901784	63	C	03/26/2017	10:44	-132.163	43.917	0	223.00	0	7.2070	0	34.0090	4	26.613	0	221.093	0	155.2	4	52.7	4	-1E+10	1	-1E+10	1	-1E+10	1	-1E+10	1	-1E+10	1	-1E+10	1
4901784	63	C	03/26/2017	10:44	-132.163	43.917	0	224.80	0	7.1880	0	34.0090	4	26.615	0	222.876	0	154.7	4	52.6	4	-1E+10	1	-1E+10	1	-1E+10	1	-1E+10	1	-1E+10	1	-1E+10	1
4901784	63	C	03/26/2017	10:44	-132.163	43.917	0	227.60	0	7.1570	0	34.0090	4	26.620	0	225.651	0	154.0	4	52.3	4	-1E+10	1	-1E+10	1	-1E+10	1	-1E+10	1	-1E+10	1	-1E+10	1
4901784	63	C	03/26/2017	10:44	-132.163	43.917	0	230.30	0	7.1450	0	34.0080	4	26.621	0	228.326	0	153.3	4	52.0	4	-1E+10	1	-1E+10	1	-1E+10	1	-1E+10	1	-1E+10	1	-1E+10	1
4901784	63	C	03/26/2017	10:44	-132.163	43.917	0	232.30	0	7.1240	0	34.0080	4	26.623	0	230.308	0	152.7	4	51.8	4	-1E+10	1	-1E+10	1	-1E+10	1	-1E+10	1	-1E+10	1	-1E+10	1
4901784	63	C	03/26/2017	10:44	-132.163	43.917	0	235.00	0	7.0990	0	34.0080	4	26.627	0	232.983	0	151.6	4	51.4	4	-1E+10	1	-1E+10	1	-1E+10	1	-1E+10	1	-1E+10	1	-1E+10	1
4901784	63	C	03/26/2017	10:44	-132.163	43.917	0	237.80	0	7.0460	0	34.0070	4	26.633	0	235.758	0	150.7	4	51.0	4	-1E+10	1	-1E+10	1	-1E+10	1	-1E+10	1	-1E+10	1	-1E+10	1
4901784	63	C	03/26/2017	10:44	-132.163	43.917	0	239.60	0	7.0290	0	34.0070	4	26.636	0	237.541	0	150.2	4	50.8	4	-1E+10	1	-1E+10	1	-1E+10	1	-1E+10	1	-1E+10	1	-1E+10	1
4901784	63	C	03/26/2017	10:44	-132.163	43.917	0	242.40	0	7.0030	0	34.0070	4	26.639	0	240.315	0	149.4	4	50.5	4	-1E+10	1	-1E+10	1	-1E+10	1	-1E+10	1	-1E+10	1	-1E+10	1
4901784	63	C	03/26/2017	10:44	-132.163	43.917	0	245.10	0	6.9820	0	34.0060	4	26.642	0	242.991	0	148.3	4	50.1	4	-1E+10	1	-1E+10	1	-1E+10	1	-1E+10	1	-1E+10	1	-1E+10	1
4901784	63	C	03/26/2017	10:44	-132.163	43.917	0	247.80	0	6.9500	0	34.0060	4	26.646	0	245.666	0	147.3	4	49.8	4	-1E+10	1	-1E+10	1	-1E+10	1	-1E+10	1	-1E+10	1	-1E+10	1
4901784	63	C	03/26/2017	10:44	-132.163	43.917	0	250.50	0	6.9260	0	34.0050	4	26.648	0	248.341	0	146.1	4	49.3	4	-1E+10	1	-1E+10	1	-1E+10	1	-1E+10	1	-1E+10	1	-1E+10	1
4901784	63	C	03/26/2017	10:44	-132.163	43.917	0	252.40	0	6.8950	0	34.0040	4	26.652	0	250.223	0	145.4	4	49.1	4	-1E+10	1	-1E+10	1	-1E+10	1	-1E+10	1	-1E+10	1	-1E+10	1
4901784	63	C	03/26/2017	10:44	-132.163	43.917	0	255.20	0	6.8500	0	34.0050	4	26.659	0	252.997	0	144.5	4	48.7	4	-1E+10	1	-1E+10	1	-1E+10	1	-1E+10	1	-1E+10	1	-1E+10	1
4901784	63	C	03/26/2017	10:44	-132.163	43.917	0	258.00	0	6.8260	0	34.0040	4	26.661	0	255.772	0	144.0	4	48.5	4	-1E+10	1	-1E+10	1	-1E+10	1	-1E+10	1	-1E+10	1	-1E+10	1
4901784	63	C	03/26/2017	10:44	-132.163	43.917	0	259.90	0	6.8150	0	34.0040	4	26.663	0	257.654	0	143.6	4	48.4	4	-1E+10	1	-1E+10	1	-1E+10	1	-1E+10	1	-1E+10	1	-1E+10	1
4901784	63	C	03/26/2017	10:44	-132.163	43.917	0	262.80	0	6.8160	0	34.0030	4	26.662	0	260.527	0	142.7	4	48.1	4	-1E+10	1	-1E+10	1	-1E+10	1	-1E+10	1	-1E+10	1	-1E+10	1
4901784	63	C	03/26/2017	10:44	-132.163	43.917	0	265.60	0	6.8160	0	34.0000	4	26.660	0	263.301	0	141.2	4	47.6	4	-1E+10	1	-1E+10	1	-1E+10	1	-1E+10	1	-1E+10	1	-1E+10	1
4901784	63	C	03/26/2017	10:44	-132.163	43.917	0	267.50	0	6.7880	0	34.0000	4	26.663	0	265.183	0	140.1	4	47.2	4	-1E+10	1	-1E+10	1	-1E+10	1	-1E+10	1	-1E+10	1	-1E+10	1
4901784	63	C	03/26/2017	10:44	-132.163	43.917	0	270.30	0	6.7120	0	34.0030	4	26.676	0	267.957	0	138.2	4	46.4	4	-1E+10	1	-1E+10	1	-1E+10	1	-1E+10	1	-1E+10	1	-1E+10	1
4901784	63	C	03/26/2017	10:44	-132.163	43.917	0	273.10	0	6.6450	0	34.0030	4	26.685	0	270.731	0	136.5	4	45.8	4	-1E+10	1	-1E+10	1	-1E+10	1	-1E+10	1	-1E+10	1	-1E+10	1
4901784	63	C	03/26/2017	10:44	-132.163	43.917	0	274.90	0	6.6150	0	34.0010	4	26.687	0	272.514	0	135.5	4	45.4	4	-1E+10	1	-1E+10	1	-1E+10	1	-1E+10	1	-1E+10	1	-1E+10	1
4901784	63	C	03/26/2017	10:44	-132.163	43.917	0	277.60	0	6.5690	0	34.0010	4	26.693	0	275.189	0	134.2	4	44.9	4	-1E+10	1	-1E+10	1	-1E+10	1	-1E+10	1	-1E+10	1	-1E+10	1
4901784	63	C	03/26/2017	10:44	-132.163	43.917	0	280.40	0	6.5180	0	34.0010	4	26.700	0	277.963	0	132.7	4	44.4	4	-1E+10	1	-1E+10	1	-1E+10	1	-1E+10	1	-1E+10	1	-1E+10	1
4901784	63	C	03/26/2017	10:44	-132.163	43.917	0	282.30	0	6.5070	0	34.0000	4	26.701	0	279.845	0	131.9	4	44.1	4	-1E+10	1	-1E+10	1	-1E+10	1	-1E+10	1	-1E+10	1	-1E+10	1
4901784	63	C	03/26/2017	10:44	-132.163	43.917	0	285.00	0	6.4680	0	33.9990	4	26.705	0	282.520	0	130.3	4	43.5	4	-1E+10	1	-1E+10	1	-1E+10	1	-1E+10	1	-1E+10	1	-1E+10	1
4901784	63	C	03/26/2017	10:44	-132.163	43.917	0	287.80	0	6.4090	0	34.0000	4	26.714	0	285.294	0	128.9	4	43.0	4	-1E+10	1	-1E+10	1	-1E+10	1	-1E+10	1	-1E+10	1	-1E+10	1
4901784	63	C	03/26/2017	10:44	-132.163	43.917	0	289.60	0	6.3910	0	33.9990	4	26.715	0	287.077	0	127.8	4	42.6	4	-1E+10	1	-1E+10	1	-1E+10	1	-1E+10	1	-1E+10	1	-1E+10	1
4901784	63	C	03/26/2017	10:44	-132.163	43.917	0	292.40	0	6.3420	0	34.0000	4	26.722	0	289.850	0	126.4	4	42.1	4	-1E+10	1	-1E+10	1	-1E+10	1	-1E+10	1	-1E+10	1	-1E+10	1
4901784	63	C	03/26/2017	10:44	-132.163	43.917	0	295.20	0	6.3060	0	33.9990	4	26.726	0	292.624	0	124.8	4	41.6	4	-1E+10	1	-1E+10	1	-1E+10	1	-1E+10	1	-1E+10	1	-1E+10	1
4901784	63	C	03/26/2017	10:44	-132.163	43.917	0	297.00	0	6.2670	0	33.9980	4	26.730	0	294.407	0	123.9	4	41.2	4	-1E+10	1	-1E+10	1	-1E+10	1	-1E+10	1	-1E+10	1	-1E+10	1
4901784	63	C	03/26/2017	10:44	-132.163	43.917	0	299.70	0	6.2290	0	33.9990	4	26.736	0	297.081	0	122.4	4	40.7	4	-1E+10	1	-1E+10	1	-1E+10	1	-1E+10	1	-1E+10	1	-1E+10	1
4901784	63	C	03/26/2017	10:44	-132.163	43.917	0	302.40	0	6.1880	0	33.9970	4	26.740	0	299.756	0	121.3	4	40.3	4	-1E+10	1	-1E+10	1	-1E+10	1	-1E+10	1	-1E+10	1	-1E+10	1
4901784	63	C	03/26/2017	10:44	-132.163	43.917	0	305.20	0	6.1530	0	33.9980	4	26.745	0	302.529	0	120.1	4	39.8	4	-1E+10	1	-1E+10	1	-1E+10	1	-1E+10	1	-1E+10	1	-1E+10	1
4901784	63	C	03/26/2017	10:44	-132.163	43.917	0	307.90	0	6.1240	0	33.9980	4	26.749	0	305.204	0	119.0	4	39.5	4	-1E+10	1	-1E+10	1	-1E+10	1	-1E+10	1	-1E+10	1	-1E+10	1
4901784	63	C	03/26/2017	10:44	-132.163	43.917	0	309.60	0	6.0870	0	33.9990	4	26.754	0	306.888	0	118.1	4	39.1	4	-1E+10	1	-1E+10	1	-1E+10	1	-1E+10	1	-1E+10	1	-1E+10	1
4901784	63	C	03/26/2017	10:44	-132.163	43.917	0	312.20	0	6.0590	0	33.9980	4	26.757	0	309.463	0	117.0	4	38.7	4	-1E+10	1	-1E+10	1	-1E+10	1	-1E+10	1	-1E+10	1	-1E+10	1
4901784	63	C	03/26/2017	10:44	-132.163	43.917	0	314.80	0	6.0160	0	33.9980	4	26.762	0	312.038	0	115.7	4	38.3	4	-1E+10	1	-1E+10	1	-1E+10	1	-1E+10	1	-1E+10	1	-1E+10	1
4901784	63	C	03/26/2017	10:44	-132.163	43.917	0	317.50	0	5.9780	0	33.9970	4	26.766	0	314.712	0	114.5	4	37.8	4	-1E+10	1	-1E+10	1	-1E+10	1	-1E+10	1	-1E+10	1	-1E+10	1
4901784	63	C	03/26/2017	10:44	-132.163	43.917	0	320.00	0	5.9450	0	33.9970	4	26.771	0	317.189	0	113.0	4	37.3	4	-1E+10	1	-1E+10	1	-1E+10	1	-1E+10	1	-1E+10	1	-1E+10	1
4901784	63	C	03/26/2017	10:44	-132.163	43.917	0	322.70	0	5.9010	0	33.9970	4	26.776	0	319.863	0	111.3	4	36.7	4	-1E+10	1	-1E+10	1	-1E+10	1	-1E+10	1	-1E+10	1	-1E+10	1
4901784	63	C	03/26/2017	10:44	-132.163	43.917	0	325.30	0	5.8650	0	33.9970	4	26.781	0	322.438	0	109.9	4	36.2	4	-1E+10	1	-1E+10	1	-1E+10	1	-1E+10	1	-1E+10	1	-1E+10	1
4901784	63	C	03/26/2017	10:44	-132.163	43.917	0	327.00	0	5.8260	0	33.9990	4	26.787	0	324.122	0	108.8	4	35.8	4	-1E+10	1	-1E+10	1	-1E+10	1	-1E+10	1	-1E+10	1	-1E+10	1
4901784	63	C	03/26/2017	10:44	-132.163	43.917	0	329.70	0	5.7920	0	33.9990	4	26.791	0	326.796	0	107.6	4	35.4	4	-1E+10	1	-1E+10	1	-1E+10	1	-1E+10	1	-1E+10	1	-1E+10	1
4901784	63	C	03/26/2017	10:44	-132.163	43.917	0	332.30	0	5.7520	0	34.0000	4	26.797	0	329.371	0	106.4	4	35.0	4	-1E+10	1	-1E+10	1	-1E+10	1	-1E+10	1	-1E+10	1	-1E+10	1
4901784	63	C	03/26/2017	10:44	-132.163	43.917	0	335.00	0	5.7440	0	33.9990	4	26.797	0	332.045	0	105.3	4	34.6	4	-1E+10	1	-1E+10	1	-1E+10	1	-1E+10	1	-1E+10	1	-1E+10	1
4901784	63	C	03/26/2017	10:44	-132.163	43.917	0	337.60	0	5.7230	0	33.9990	4	26.800	0	334.620	0	103.7	4	34.1	4	-1E+10	1	-1E+10	1	-1E+10	1	-1E+10	1	-1E+10	1	-1E+10	1
4901784	63	C	03/26/2017	10:44	-132.163	43.917	0	340.20	0	5.6790	0	34.0010	4	26.807	0	337.195	0	101.9	4	33.4	4	-1E+10	1	-1E+10	1	-1E+10	1	-1E+10	1	-1E+10	1	-1E+10	1
4901784	63	C	03/26/2017	10:44	-132.163	43.917	0	342.90	0	5.6350	0	34.0030	4	26.814	0	339.869	0	100.4	4	32.9	4	-1E+10	1	-1E+10	1	-1E+10	1	-1E+10	1	-1E+10	1	-1E+10	1
4901784	63	C	03/26/2017	10:44	-132.163	43.917	0	344.70	0	5.6300	0	34.0040	4	26.815	0	341.651	0	99.4	4	32.6	4	-1E+10	1	-1E+10	1	-1E+10	1	-1E+10	1	-1E+10	1	-1E+10	1
4901784	63	C	03/26/2017	10:44	-132.163	43.917	0	347.40	0	5.6190	0	34.0050	4	26.817	0	344.325	0	98.0	4	32.1	4	-1E+10	1	-1E+10	1	-1E+10	1	-1E+10	1	-1E+10	1	-1E+10	1
4901784	63	C	03/26/2017	10:44	-132.163	43.917	0	350.10	0	5.5910	0	34.0040	4	26.820	0	346.999	0	96.4	4	31.6	4	-1E+10	1	-1E+10	1	-1E+10	1	-1E+10	1	-1E+10	1	-1E+10	1
4901784	63	C	03/26/2017	10:44	-132.163	43.917	0	352.80	0	5.5280	0	34.0070	4	26.830	0	349.673	0	95.0	4	31.1	4	-1E+10	1	-1E+10	1	-1E+10	1	-1E+10	1	-1E+10	1	-1E+10	1
4901784	63	C	03/26/2017	10:44	-132.163	43.917	0	355.50	0	5.5190	0	34.0090	4	26.832	0	352.346	0	93.6	4	30.6	4	-1E+10	1	-1E+10	1	-1E+10	1	-1E+10	1	-1E+10	1	-1E+10	1
4901784	63	C	03/26/2017	10:44	-132.163	43.917	0	357.30	0	5.5140	0	34.0100	4	26.834	0	354.129	0	92.7	4	30.3	4	-1E+10	1	-1E+10	1	-1E+10	1	-1E+10	1	-1E+10	1	-1E+10	1
4901784	63	C	03/26/2017	10:44	-132.163	43.917	0	359.90	0	5.4930	0	34.0120	4	26.838	0	356.704	0	91.2	4	29.8	4	-1E+10	1	-1E+10	1	-1E+10	1	-1E+10	1	-1E+10	1	-1E+10	1
4901784	63	C	03/26/2017	10:44	-132.163	43.917	0	362.50	0	5.4680	0	34.0140	4	26.842	0	359.278	0	89.9	4	29.4	4	-1E+10	1	-1E+10	1	-1E+10	1	-1E+10	1	-1E+10	1	-1E+10	1
4901784	63	C	03/26/2017	10:44	-132.163	43.917	0	365.10	0	5.4490	0	34.0160	4	26.846	0	361.853	0	88.9	4	29.0	4	-1E+10	1	-1E+10	1	-1E+10	1	-1E+10	1	-1E+10	1	-1E+10	1
4901784	63	C	03/26/2017	10:44	-132.163	43.917	0	367.60	0	5.4360	0	34.0150	4	26.847	0	364.329	0	87.5	4	28.5	4	-1E+10	1	-1E+10	1	-1E+10	1	-1E+10	1	-1E+10	1	-1E+10	1
4901784	63	C	03/26/2017	10:44	-132.163	43.917	0	370.30	0	5.4050	0	34.0210	4	26.856	0	367.002	0	86.2	4	28.1	4	-1E+10	1	-1E+10	1	-1E+10	1	-1E+10	1	-1E+10	1	-1E+10	1
4901784	63	C	03/26/2017	10:44	-132.163	43.917	0	373.00	0	5.3890	0	34.0220	4	26.858	0	369.676	0	85.4	4	27.8	4	-1E+10	1	-1E+10	1	-1E+10	1	-1E+10	1	-1E+10	1	-1E+10	1
4901784	63	C	03/26/2017	10:44	-132.163	43.917	0	374.80	0	5.3830	0	34.0220	4	26.859	0	371.458	0	84.9	4	27.7	4	-1E+10	1	-1E+10	1	-1E+10	1	-1E+10	1	-1E+10	1	-1E+10	1
4901784	63	C	03/26/2017	10:44	-132.163	43.917	0	377.40	0	5.3700	0	34.0220	4	26.861	0	374.032	0	83.9	4	27.3	4	-1E+10	1	-1E+10	1	-1E+10	1	-1E+10	1	-1E+10	1	-1E+10	1
4901784	63	C	03/26/2017	10:44	-132.163	43.917	0	380.10	0	5.3370	0	34.0230	4	26.865	0	376.706	0	82.7	4	26.9	4	-1E+10	1	-1E+10	1	-1E+10	1	-1E+10	1	-1E+10	1	-1E+10	1
4901784	63	C	03/26/2017	10:44	-132.163	43.917	0	381.90	0	5.3150	0	34.0250	4	26.869	0	378.488	0	81.9	4	26.7	4	-1E+10	1	-1E+10	1	-1E+10	1	-1E+10	1	-1E+10	1	-1E+10	1
4901784	63	C	03/26/2017	10:44	-132.163	43.917	0	384.70	0	5.3020	0	34.0280	4	26.873	0	381.261	0	80.9	4	26.3	4	-1E+10	1	-1E+10	1	-1E+10	1	-1E+10	1	-1E+10	1	-1E+10	1
4901784	63	C	03/26/2017	10:44	-132.163	43.917	0	387.40	0	5.2660	0	34.0280	4	26.878	0	383.934	0	80.5	4	26.2	4	-1E+10	1	-1E+10	1	-1E+10	1	-1E+10	1	-1E+10	1	-1E+10	1
4901784	63	C	03/26/2017	10:44	-132.163	43.917	0	390.10	0	5.2330	0	34.0280	4	26.881	0	386.607	0	79.6	4	25.8	4	-1E+10	1	-1E+10	1	-1E+10	1	-1E+10	1	-1E+10	1	-1E+10	1
4901784	63	C	03/26/2017	10:44	-132.163	43.917	0	392.80	0	5.2030	0	34.0310	4	26.887	0	389.281	0	78.2	4	25.4	4	-1E+10	1	-1E+10	1	-1E+10	1	-1E+10	1	-1E+10	1	-1E+10	1
4901784	63	C	03/26/2017	10:44	-132.163	43.917	0	394.70	0	5.1860	0	34.0310	4	26.889	0	391.162	0	77.3	4	25.1	4	-1E+10	1	-1E+10	1	-1E+10	1	-1E+10	1	-1E+10	1	-1E+10	1
4901784	63	C	03/26/2017	10:44	-132.163	43.917	0	397.50	0	5.1510	0	34.0350	4	26.897	0	393.934	0	75.9	4	24.6	4	-1E+10	1	-1E+10	1	-1E+10	1	-1E+10	1	-1E+10	1	-1E+10	1
4901784	63	C	03/26/2017	10:44	-132.163	43.917	0	400.20	0	5.1300	0	34.0370	4	26.901	0	396.607	0	74.5	4	24.1	4	-1E+10	1	-1E+10	1	-1E+10	1	-1E+10	1	-1E+10	1	-1E+10	1
4901784	63	C	03/26/2017	10:44	-132.163	43.917	0	402.00	0	5.1200	0	34.0390	4	26.903	0	398.389	0	73.7	4	23.9	4	-1E+10	1	-1E+10	1	-1E+10	1	-1E+10	1	-1E+10	1	-1E+10	1
4901784	63	C	03/26/2017	10:44	-132.163	43.917	0	404.80	0	5.1080	0	34.0410	4	26.906	0	401.161	0	72.3	4	23.4	4	-1E+10	1	-1E+10	1	-1E+10	1	-1E+10	1	-1E+10	1	-1E+10	1
4901784	63	C	03/26/2017	10:44	-132.163	43.917	0	407.20	0	5.0950	0	34.0430	4	26.909	0	403.538	0	71.1	4	23.0	4	-1E+10	1	-1E+10	1	-1E+10	1	-1E+10	1	-1E+10	1	-1E+10	1
4901784	63	C	03/26/2017	10:44	-132.163	43.917	0	410.30	0	5.0800	0	34.0470	4	26.914	0	406.607	0	69.5	4	22.5	4	-1E+10	1	-1E+10	1	-1E+10	1	-1E+10	1	-1E+10	1	-1E+10	1
4901784	63	C	03/26/2017	10:44	-132.163	43.917	0	412.60	0	5.0720	0	34.0480	4	26.916	0	408.884	0	68.1	4	22.0	4	-1E+10	1	-1E+10	1	-1E+10	1	-1E+10	1	-1E+10	1	-1E+10	1
4901784	63	C	03/26/2017	10:44	-132.163	43.917	0	415.00	0	5.0520	0	34.0530	4	26.922	0	411.260	0	66.7	4	21.6	4	-1E+10	1	-1E+10	1	-1E+10	1	-1E+10	1	-1E+10	1	-1E+10	1
4901784	63	C	03/26/2017	10:44	-132.163	43.917	0	417.30	0	5.0220	0	34.0570	4	26.929	0	413.537	0	65.7	4	21.2	4	-1E+10	1	-1E+10	1	-1E+10	1	-1E+10	1	-1E+10	1	-1E+10	1
4901784	63	C	03/26/2017	10:44	-132.163	43.917	0	419.70	0	5.0100	0	34.0590	4	26.932	0	415.913	0	64.8	4	20.9	4	-1E+10	1	-1E+10	1	-1E+10	1	-1E+10	1	-1E+10	1	-1E+10	1
4901784	63	C	03/26/2017	10:44	-132.163	43.917	0	422.20	0	4.9910	0	34.0620	4	26.937	0	418.388	0	64.0	4	20.7	4	-1E+10	1	-1E+10	1	-1E+10	1	-1E+10	1	-1E+10	1	-1E+10	1
4901784	63	C	03/26/2017	10:44	-132.163	43.917	0	424.60	0	4.9880	0	34.0640	4	26.938	0	420.763	0	63.5	4	20.5	4	-1E+10	1	-1E+10	1	-1E+10	1	-1E+10	1	-1E+10	1	-1E+10	1
4901784	63	C	03/26/2017	10:44	-132.163	43.917	0	427.90	0	4.9780	0	34.0650	4	26.940	0	424.030	0	62.7	4	20.2	4	-1E+10	1	-1E+10	1	-1E+10	1	-1E+10	1	-1E+10	1	-1E+10	1
4901784	63	C	03/26/2017	10:44	-132.163	43.917	0	430.30	0	4.9700	0	34.0670	4	26.943	0	426.406	0	62.0	4	20.0	4	-1E+10	1	-1E+10	1	-1E+10	1	-1E+10	1	-1E+10	1	-1E+10	1
4901784	63	C	03/26/2017	10:44	-132.163	43.917	0	432.80	0	4.9660	0	34.0680	4	26.944	0	428.881	0	61.3	4	19.8	4	-1E+10	1	-1E+10	1	-1E+10	1	-1E+10	1	-1E+10	1	-1E+10	1
4901784	63	C	03/26/2017	10:44	-132.163	43.917	0	435.30	0	4.9610	0	34.0710	4	26.947	0	431.356	0	60.5	4	19.5	4	-1E+10	1	-1E+10	1	-1E+10	1	-1E+10	1	-1E+10	1	-1E+10	1
4901784	63	C	03/26/2017	10:44	-132.163	43.917	0	437.80	0	4.9590	0	34.0720	4	26.948	0	433.830	0	59.6	4	19.2	4	-1E+10	1	-1E+10	1	-1E+10	1	-1E+10	1	-1E+10	1	-1E+10	1
4901784	63	C	03/26/2017	10:44	-132.163	43.917	0	440.20	0	4.9480	0	34.0750	4	26.952	0	436.206	0	58.5	4	18.9	4	-1E+10	1	-1E+10	1	-1E+10	1	-1E+10	1	-1E+10	1	-1E+10	1
4901784	63	C	03/26/2017	10:44	-132.163	43.917	0	442.80	0	4.9380	0	34.0780	4	26.955	0	438.780	0	57.6	4	18.6	4	-1E+10	1	-1E+10	1	-1E+10	1	-1E+10	1	-1E+10	1	-1E+10	1
4901784	63	C	03/26/2017	10:44	-132.163	43.917	0	445.40	0	4.9280	0	34.0810	4	26.959	0	441.353	0	56.6	4	18.3	4	-1E+10	1	-1E+10	1	-1E+10	1	-1E+10	1	-1E+10	1	-1E+10	1
4901784	63	C	03/26/2017	10:44	-132.163	43.917	0	447.20	0	4.9270	0	34.0810	4	26.959	0	443.135	0	56.0	4	18.1	4	-1E+10	1	-1E+10	1	-1E+10	1	-1E+10	1	-1E+10	1	-1E+10	1
4901784	63	C	03/26/2017	10:44	-132.163	43.917	0	449.70	0	4.9100	0	34.0860	4	26.965	0	445.610	0	54.7	4	17.7	4	-1E+10	1	-1E+10	1	-1E+10	1	-1E+10	1	-1E+10	1	-1E+10	1
4901784	63	C	03/26/2017	10:44	-132.163	43.917	0	452.30	0	4.8880	0	34.0900	4	26.971	0	448.183	0	53.6	4	17.3	4	-1E+10	1	-1E+10	1	-1E+10	1	-1E+10	1	-1E+10	1	-1E+10	1
4901784	63	C	03/26/2017	10:44	-132.163	43.917	0	454.90	0	4.8800	0	34.0920	4	26.973	0	450.757	0	52.5	4	16.9	4	-1E+10	1	-1E+10	1	-1E+10	1	-1E+10	1	-1E+10	1	-1E+10	1
4901784	63	C	03/26/2017	10:44	-132.163	43.917	0	457.50	0	4.8690	0	34.0950	4	26.977	0	453.330	0	50.9	4	16.4	4	-1E+10	1	-1E+10	1	-1E+10	1	-1E+10	1	-1E+10	1	-1E+10	1
4901784	63	C	03/26/2017	10:44	-132.163	43.917	0	460.20	0	4.8460	0	34.1010	4	26.984	0	456.003	0	49.6	4	16.0	4	-1E+10	1	-1E+10	1	-1E+10	1	-1E+10	1	-1E+10	1	-1E+10	1
4901784	63	C	03/26/2017	10:44	-132.163	43.917	0	462.90	0	4.8410	0	34.1080	4	26.990	0	458.675	0	48.2	4	15.5	4	-1E+10	1	-1E+10	1	-1E+10	1	-1E+10	1	-1E+10	1	-1E+10	1
4901784	63	C	03/26/2017	10:44	-132.163	43.917	0	464.70	0	4.8230	0	34.1090	4	26.993	0	460.457	0	47.6	4	15.3	4	-1E+10	1	-1E+10	1	-1E+10	1	-1E+10	1	-1E+10	1	-1E+10	1
4901784	63	C	03/26/2017	10:44	-132.163	43.917	0	467.50	0	4.8100	0	34.1130	4	26.998	0	463.228	0	46.5	4	15.0	4	-1E+10	1	-1E+10	1	-1E+10	1	-1E+10	1	-1E+10	1	-1E+10	1
4901784	63	C	03/26/2017	10:44	-132.163	43.917	0	470.20	0	4.8090	0	34.1170	4	27.001	0	465.900	0	45.3	4	14.6	4	-1E+10	1	-1E+10	1	-1E+10	1	-1E+10	1	-1E+10	1	-1E+10	1
4901784	63	C	03/26/2017	10:44	-132.163	43.917	0	472.10	0	4.8130	0	34.1220	4	27.005	0	467.781	0	44.9	4	14.4	4	-1E+10	1	-1E+10	1	-1E+10	1	-1E+10	1	-1E+10	1	-1E+10	1
4901784	63	C	03/26/2017	10:44	-132.163	43.917	0	474.90	0	4.7970	0	34.1220	4	27.006	0	470.552	0	44.3	4	14.2	4	-1E+10	1	-1E+10	1	-1E+10	1	-1E+10	1	-1E+10	1	-1E+10	1
4901784	63	C	03/26/2017	10:44	-132.163	43.917	0	477.60	0	4.7790	0	34.1240	4	27.010	0	473.224	0	43.5	4	14.0	4	-1E+10	1	-1E+10	1	-1E+10	1	-1E+10	1	-1E+10	1	-1E+10	1
4901784	63	C	03/26/2017	10:44	-132.163	43.917	0	479.40	0	4.7710	0	34.1260	4	27.012	0	475.006	0	42.9	4	13.8	4	-1E+10	1	-1E+10	1	-1E+10	1	-1E+10	1	-1E+10	1	-1E+10	1
4901784	63	C	03/26/2017	10:44	-132.163	43.917	0	482.20	0	4.7630	0	34.1300	4	27.017	0	477.777	0	41.9	4	13.5	4	-1E+10	1	-1E+10	1	-1E+10	1	-1E+10	1	-1E+10	1	-1E+10	1
4901784	63	C	03/26/2017	10:44	-132.163	43.917	0	485.00	0	4.7570	0	34.1320	4	27.019	0	480.548	0	41.0	4	13.2	4	-1E+10	1	-1E+10	1	-1E+10	1	-1E+10	1	-1E+10	1	-1E+10	1
4901784	63	C	03/26/2017	10:44	-132.163	43.917	0	487.70	0	4.7350	0	34.1380	4	27.026	0	483.220	0	40.2	4	12.9	4	-1E+10	1	-1E+10	1	-1E+10	1	-1E+10	1	-1E+10	1	-1E+10	1
4901784	63	C	03/26/2017	10:44	-132.163	43.917	0	490.50	0	4.7150	0	34.1390	4	27.029	0	485.991	0	39.7	4	12.7	4	-1E+10	1	-1E+10	1	-1E+10	1	-1E+10	1	-1E+10	1	-1E+10	1
4901784	63	C	03/26/2017	10:44	-132.163	43.917	0	492.40	0	4.6950	0	34.1410	4	27.033	0	487.871	0	39.2	4	12.6	4	-1E+10	1	-1E+10	1	-1E+10	1	-1E+10	1	-1E+10	1	-1E+10	1
4901784	63	C	03/26/2017	10:44	-132.163	43.917	0	494.30	0	4.6830	0	34.1440	4	27.037	0	489.751	0	38.7	4	12.4	4	-1E+10	1	-1E+10	1	-1E+10	1	-1E+10	1	-1E+10	1	-1E+10	1
4901784	63	C	03/26/2017	10:44	-132.163	43.917	0	497.20	0	4.6690	0	34.1480	4	27.041	0	492.621	0	38.0	4	12.2	4	-1E+10	1	-1E+10	1	-1E+10	1	-1E+10	1	-1E+10	1	-1E+10	1
4901784	63	C	03/26/2017	10:44	-132.163	43.917	0	500.60	0	4.6520	0	34.1510	4	27.046	0	495.986	0	37.3	4	12.0	4	-1E+10	1	-1E+10	1	-1E+10	1	-1E+10	1	-1E+10	1	-1E+10	1
4901784	63	C	03/26/2017	10:44	-132.163	43.917	0	505.00	0	4.6340	0	34.1550	4	27.051	0	500.340	0	36.3	4	11.6	4	-1E+10	1	-1E+10	1	-1E+10	1	-1E+10	1	-1E+10	1	-1E+10	1
4901784	63	C	03/26/2017	10:44	-132.163	43.917	0	510.70	0	4.6130	0	34.1590	4	27.056	0	505.981	0	34.8	4	11.1	4	-1E+10	1	-1E+10	1	-1E+10	1	-1E+10	1	-1E+10	1	-1E+10	1
4901784	63	C	03/26/2017	10:44	-132.163	43.917	0	515.70	0	4.5820	0	34.1660	4	27.065	0	510.928	0	33.0	4	10.6	4	-1E+10	1	-1E+10	1	-1E+10	1	-1E+10	1	-1E+10	1	-1E+10	1
4901784	63	C	03/26/2017	10:44	-132.163	43.917	0	520.70	0	4.5520	0	34.1760	4	27.077	0	515.876	0	31.5	4	10.1	4	-1E+10	1	-1E+10	1	-1E+10	1	-1E+10	1	-1E+10	1	-1E+10	1
4901784	63	C	03/26/2017	10:44	-132.163	43.917	0	525.70	0	4.5210	0	34.1830	4	27.086	0	520.823	0	30.7	4	9.8	4	-1E+10	1	-1E+10	1	-1E+10	1	-1E+10	1	-1E+10	1	-1E+10	1
4901784	63	C	03/26/2017	10:44	-132.163	43.917	0	530.00	0	4.5080	0	34.1860	4	27.089	0	525.078	0	30.2	4	9.7	4	-1E+10	1	-1E+10	1	-1E+10	1	-1E+10	1	-1E+10	1	-1E+10	1
4901784	63	C	03/26/2017	10:44	-132.163	43.917	0	534.20	0	4.4980	0	34.1880	4	27.092	0	529.234	0	29.5	4	9.4	4	-1E+10	1	-1E+10	1	-1E+10	1	-1E+10	1	-1E+10	1	-1E+10	1
4901784	63	C	03/26/2017	10:44	-132.163	43.917	0	539.50	0	4.4830	0	34.1920	4	27.097	0	534.477	0	28.8	4	9.2	4	-1E+10	1	-1E+10	1	-1E+10	1	-1E+10	1	-1E+10	1	-1E+10	1
4901784	63	C	03/26/2017	10:44	-132.163	43.917	0	544.80	0	4.4740	0	34.1950	4	27.100	0	539.721	0	28.2	4	9.0	4	-1E+10	1	-1E+10	1	-1E+10	1	-1E+10	1	-1E+10	1	-1E+10	1
4901784	63	C	03/26/2017	10:44	-132.163	43.917	0	549.90	0	4.4630	0	34.1980	4	27.104	0	544.767	0	27.6	4	8.8	4	-1E+10	1	-1E+10	1	-1E+10	1	-1E+10	1	-1E+10	1	-1E+10	1
4901784	63	C	03/26/2017	10:44	-132.163	43.917	0	555.10	0	4.4540	0	34.2000	4	27.106	0	549.912	0	26.9	4	8.6	4	-1E+10	1	-1E+10	1	-1E+10	1	-1E+10	1	-1E+10	1	-1E+10	1
4901784	63	C	03/26/2017	10:44	-132.163	43.917	0	560.20	0	4.4400	0	34.2040	4	27.111	0	554.957	0	25.8	4	8.2	4	-1E+10	1	-1E+10	1	-1E+10	1	-1E+10	1	-1E+10	1	-1E+10	1
4901784	63	C	03/26/2017	10:44	-132.163	43.917	0	565.40	0	4.4140	0	34.2120	4	27.120	0	560.102	0	24.7	4	7.9	4	-1E+10	1	-1E+10	1	-1E+10	1	-1E+10	1	-1E+10	1	-1E+10	1
4901784	63	C	03/26/2017	10:44	-132.163	43.917	0	570.70	0	4.3960	0	34.2170	4	27.126	0	565.345	0	24.0	4	7.7	4	-1E+10	1	-1E+10	1	-1E+10	1	-1E+10	1	-1E+10	1	-1E+10	1
4901784	63	C	03/26/2017	10:44	-132.163	43.917	0	575.10	0	4.3860	0	34.2200	4	27.130	0	569.697	0	23.5	4	7.5	4	-1E+10	1	-1E+10	1	-1E+10	1	-1E+10	1	-1E+10	1	-1E+10	1
4901784	63	C	03/26/2017	10:44	-132.163	43.917	0	579.40	0	4.3710	0	34.2240	4	27.135	0	573.951	0	23.0	4	7.3	4	-1E+10	1	-1E+10	1	-1E+10	1	-1E+10	1	-1E+10	1	-1E+10	1
4901784	63	C	03/26/2017	10:44	-132.163	43.917	0	584.70	0	4.3560	0	34.2270	4	27.139	0	579.194	0	22.4	4	7.1	4	-1E+10	1	-1E+10	1	-1E+10	1	-1E+10	1	-1E+10	1	-1E+10	1
4901784	63	C	03/26/2017	10:44	-132.163	43.917	0	589.90	0	4.3390	0	34.2320	4	27.144	0	584.338	0	21.8	4	6.9	4	-1E+10	1	-1E+10	1	-1E+10	1	-1E+10	1	-1E+10	1	-1E+10	1
4901784	63	C	03/26/2017	10:44	-132.163	43.917	0	595.20	0	4.3130	0	34.2390	4	27.153	0	589.580	0	21.2	4	6.7	4	-1E+10	1	-1E+10	1	-1E+10	1	-1E+10	1	-1E+10	1	-1E+10	1
4901784	63	C	03/26/2017	10:44	-132.163	43.917	0	600.60	0	4.3050	0	34.2410	4	27.155	0	594.921	0	20.9	4	6.7	4	-1E+10	1	-1E+10	1	-1E+10	1	-1E+10	1	-1E+10	1	-1E+10	1
4901784	63	C	03/26/2017	10:44	-132.163	43.917	0	605.10	0	4.3000	0	34.2430	4	27.157	0	599.372	0	20.6	4	6.5	4	-1E+10	1	-1E+10	1	-1E+10	1	-1E+10	1	-1E+10	1	-1E+10	1
4901784	63	C	03/26/2017	10:44	-132.163	43.917	0	609.50	0	4.2930	0	34.2450	4	27.160	0	603.724	0	20.2	4	6.4	4	-1E+10	1	-1E+10	1	-1E+10	1	-1E+10	1	-1E+10	1	-1E+10	1
4901784	63	C	03/26/2017	10:44	-132.163	43.917	0	614.90	0	4.2770	0	34.2490	4	27.165	0	609.065	0	19.6	4	6.2	4	-1E+10	1	-1E+10	1	-1E+10	1	-1E+10	1	-1E+10	1	-1E+10	1
4901784	63	C	03/26/2017	10:44	-132.163	43.917	0	620.20	0	4.2600	0	34.2550	4	27.171	0	614.307	0	18.9	4	6.0	4	-1E+10	1	-1E+10	1	-1E+10	1	-1E+10	1	-1E+10	1	-1E+10	1
4901784	63	C	03/26/2017	10:44	-132.163	43.917	0	625.60	0	4.2360	0	34.2620	4	27.179	0	619.648	0	18.3	4	5.8	4	-1E+10	1	-1E+10	1	-1E+10	1	-1E+10	1	-1E+10	1	-1E+10	1
4901784	63	C	03/26/2017	10:44	-132.163	43.917	0	630.20	0	4.2150	0	34.2680	4	27.186	0	624.197	0	17.8	4	5.6	4	-1E+10	1	-1E+10	1	-1E+10	1	-1E+10	1	-1E+10	1	-1E+10	1
4901784	63	C	03/26/2017	10:44	-132.163	43.917	0	634.70	0	4.1940	0	34.2740	4	27.193	0	628.647	0	17.4	4	5.5	4	-1E+10	1	-1E+10	1	-1E+10	1	-1E+10	1	-1E+10	1	-1E+10	1
4901784	63	C	03/26/2017	10:44	-132.163	43.917	0	640.30	0	4.1830	0	34.2780	4	27.198	0	634.186	0	17.1	4	5.4	4	-1E+10	1	-1E+10	1	-1E+10	1	-1E+10	1	-1E+10	1	-1E+10	1
4901784	63	C	03/26/2017	10:44	-132.163	43.917	0	644.90	0	4.1790	0	34.2810	4	27.201	0	638.735	0	16.8	4	5.3	4	-1E+10	1	-1E+10	1	-1E+10	1	-1E+10	1	-1E+10	1	-1E+10	1
4901784	63	C	03/26/2017	10:44	-132.163	43.917	0	649.40	0	4.1710	0	34.2830	4	27.203	0	643.185	0	16.6	4	5.3	4	-1E+10	1	-1E+10	1	-1E+10	1	-1E+10	1	-1E+10	1	-1E+10	1
4901784	63	C	03/26/2017	10:44	-132.163	43.917	0	654.90	0	4.1610	0	34.2860	4	27.207	0	648.623	0	16.2	4	5.2	4	-1E+10	1	-1E+10	1	-1E+10	1	-1E+10	1	-1E+10	1	-1E+10	1
4901784	63	C	03/26/2017	10:44	-132.163	43.917	0	660.50	0	4.1400	0	34.2920	4	27.214	0	654.161	0	15.8	4	5.0	4	-1E+10	1	-1E+10	1	-1E+10	1	-1E+10	1	-1E+10	1	-1E+10	1
4901784	63	C	03/26/2017	10:44	-132.163	43.917	0	665.10	0	4.1270	0	34.2960	4	27.218	0	658.709	0	15.5	4	4.9	4	-1E+10	1	-1E+10	1	-1E+10	1	-1E+10	1	-1E+10	1	-1E+10	1
4901784	63	C	03/26/2017	10:44	-132.163	43.917	0	669.80	0	4.1020	0	34.3030	4	27.226	0	663.357	0	15.3	4	4.8	4	-1E+10	1	-1E+10	1	-1E+10	1	-1E+10	1	-1E+10	1	-1E+10	1
4901784	63	C	03/26/2017	10:44	-132.163	43.917	0	675.40	0	4.0930	0	34.3050	4	27.229	0	668.894	0	15.2	4	4.8	4	-1E+10	1	-1E+10	1	-1E+10	1	-1E+10	1	-1E+10	1	-1E+10	1
4901784	63	C	03/26/2017	10:44	-132.163	43.917	0	680.20	0	4.0890	0	34.3070	4	27.231	0	673.640	0	15.0	4	4.7	4	-1E+10	1	-1E+10	1	-1E+10	1	-1E+10	1	-1E+10	1	-1E+10	1
4901784	63	C	03/26/2017	10:44	-132.163	43.917	0	685.00	0	4.0800	0	34.3090	4	27.234	0	678.386	0	14.8	4	4.7	4	-1E+10	1	-1E+10	1	-1E+10	1	-1E+10	1	-1E+10	1	-1E+10	1
4901784	63	C	03/26/2017	10:44	-132.163	43.917	0	689.80	0	4.0640	0	34.3130	4	27.238	0	683.132	0	14.6	4	4.6	4	-1E+10	1	-1E+10	1	-1E+10	1	-1E+10	1	-1E+10	1	-1E+10	1
4901784	63	C	03/26/2017	10:44	-132.163	43.917	0	694.60	0	4.0560	0	34.3160	4	27.242	0	687.877	0	14.4	4	4.6	4	-1E+10	1	-1E+10	1	-1E+10	1	-1E+10	1	-1E+10	1	-1E+10	1
4901784	63	C	03/26/2017	10:44	-132.163	43.917	0	700.40	0	4.0460	0	34.3190	4	27.245	0	693.612	0	14.1	4	4.5	4	-1E+10	1	-1E+10	1	-1E+10	1	-1E+10	1	-1E+10	1	-1E+10	1
4901784	63	C	03/26/2017	10:44	-132.163	43.917	0	705.20	0	4.0380	0	34.3230	4	27.249	0	698.357	0	13.9	4	4.4	4	-1E+10	1	-1E+10	1	-1E+10	1	-1E+10	1	-1E+10	1	-1E+10	1
4901784	63	C	03/26/2017	10:44	-132.163	43.917	0	710.00	0	4.0260	0	34.3260	4	27.253	0	703.102	0	13.8	4	4.3	4	-1E+10	1	-1E+10	1	-1E+10	1	-1E+10	1	-1E+10	1	-1E+10	1
4901784	63	C	03/26/2017	10:44	-132.163	43.917	0	714.80	0	4.0170	0	34.3290	4	27.256	0	707.848	0	13.6	4	4.3	4	-1E+10	1	-1E+10	1	-1E+10	1	-1E+10	1	-1E+10	1	-1E+10	1
4901784	63	C	03/26/2017	10:44	-132.163	43.917	0	719.60	0	4.0010	0	34.3320	4	27.260	0	712.593	0	13.5	4	4.3	4	-1E+10	1	-1E+10	1	-1E+10	1	-1E+10	1	-1E+10	1	-1E+10	1
4901784	63	C	03/26/2017	10:44	-132.163	43.917	0	725.40	0	3.9900	0	34.3350	4	27.264	0	718.326	0	13.3	4	4.2	4	-1E+10	1	-1E+10	1	-1E+10	1	-1E+10	1	-1E+10	1	-1E+10	1
4901784	63	C	03/26/2017	10:44	-132.163	43.917	0	730.20	0	3.9800	0	34.3370	4	27.266	0	723.071	0	13.1	4	4.2	4	-1E+10	1	-1E+10	1	-1E+10	1	-1E+10	1	-1E+10	1	-1E+10	1
4901784	63	C	03/26/2017	10:44	-132.163	43.917	0	735.10	0	3.9590	0	34.3410	4	27.272	0	727.915	0	12.9	4	4.1	4	-1E+10	1	-1E+10	1	-1E+10	1	-1E+10	1	-1E+10	1	-1E+10	1
4901784	63	C	03/26/2017	10:44	-132.163	43.917	0	740.30	0	3.9500	0	34.3490	4	27.279	0	733.055	0	12.6	4	4.0	4	-1E+10	1	-1E+10	1	-1E+10	1	-1E+10	1	-1E+10	1	-1E+10	1
4901784	63	C	03/26/2017	10:44	-132.163	43.917	0	744.90	0	3.9450	0	34.3510	4	27.281	0	737.602	0	12.4	4	3.9	4	-1E+10	1	-1E+10	1	-1E+10	1	-1E+10	1	-1E+10	1	-1E+10	1
4901784	63	C	03/26/2017	10:44	-132.163	43.917	0	749.80	0	3.9290	0	34.3540	4	27.285	0	742.445	0	12.3	4	3.9	4	-1E+10	1	-1E+10	1	-1E+10	1	-1E+10	1	-1E+10	1	-1E+10	1
4901784	63	C	03/26/2017	10:44	-132.163	43.917	0	754.80	0	3.9150	0	34.3580	4	27.290	0	747.387	0	12.3	4	3.9	4	-1E+10	1	-1E+10	1	-1E+10	1	-1E+10	1	-1E+10	1	-1E+10	1
4901784	63	C	03/26/2017	10:44	-132.163	43.917	0	759.90	0	3.8970	0	34.3600	4	27.293	0	752.428	0	12.3	4	3.9	4	-1E+10	1	-1E+10	1	-1E+10	1	-1E+10	1	-1E+10	1	-1E+10	1
4901784	63	C	03/26/2017	10:44	-132.163	43.917	0	765.00	0	3.8660	0	34.3630	4	27.299	0	757.468	0	12.4	4	3.9	4	-1E+10	1	-1E+10	1	-1E+10	1	-1E+10	1	-1E+10	1	-1E+10	1
4901784	63	C	03/26/2017	10:44	-132.163	43.917	0	770.10	0	3.8450	0	34.3670	4	27.304	0	762.509	0	12.3	4	3.9	4	-1E+10	1	-1E+10	1	-1E+10	1	-1E+10	1	-1E+10	1	-1E+10	1
4901784	63	C	03/26/2017	10:44	-132.163	43.917	0	775.10	0	3.8290	0	34.3710	4	27.309	0	767.450	0	12.2	4	3.8	4	-1E+10	1	-1E+10	1	-1E+10	1	-1E+10	1	-1E+10	1	-1E+10	1
4901784	63	C	03/26/2017	10:44	-132.163	43.917	0	780.20	0	3.8180	0	34.3730	4	27.312	0	772.491	0	12.2	4	3.8	4	-1E+10	1	-1E+10	1	-1E+10	1	-1E+10	1	-1E+10	1	-1E+10	1
4901784	63	C	03/26/2017	10:44	-132.163	43.917	0	785.30	0	3.8070	0	34.3740	4	27.314	0	777.531	0	12.2	4	3.8	4	-1E+10	1	-1E+10	1	-1E+10	1	-1E+10	1	-1E+10	1	-1E+10	1
4901784	63	C	03/26/2017	10:44	-132.163	43.917	0	790.40	0	3.7940	0	34.3760	4	27.317	0	782.571	0	12.1	4	3.8	4	-1E+10	1	-1E+10	1	-1E+10	1	-1E+10	1	-1E+10	1	-1E+10	1
4901784	63	C	03/26/2017	10:44	-132.163	43.917	0	795.60	0	3.7770	0	34.3800	4	27.322	0	787.709	0	12.0	4	3.8	4	-1E+10	1	-1E+10	1	-1E+10	1	-1E+10	1	-1E+10	1	-1E+10	1
4901784	63	C	03/26/2017	10:44	-132.163	43.917	0	800.80	0	3.7620	0	34.3840	4	27.326	0	792.848	0	11.9	4	3.7	4	-1E+10	1	-1E+10	1	-1E+10	1	-1E+10	1	-1E+10	1	-1E+10	1
4901784	63	C	03/26/2017	10:44	-132.163	43.917	0	805.00	0	3.7460	0	34.3890	4	27.332	0	796.998	0	11.8	4	3.7	4	-1E+10	1	-1E+10	1	-1E+10	1	-1E+10	1	-1E+10	1	-1E+10	1
4901784	63	C	03/26/2017	10:44	-132.163	43.917	0	809.20	0	3.7380	0	34.3920	4	27.335	0	801.148	0	11.7	4	3.7	4	-1E+10	1	-1E+10	1	-1E+10	1	-1E+10	1	-1E+10	1	-1E+10	1
4901784	63	C	03/26/2017	10:44	-132.163	43.917	0	814.30	0	3.7290	0	34.3950	4	27.338	0	806.188	0	11.7	4	3.7	4	-1E+10	1	-1E+10	1	-1E+10	1	-1E+10	1	-1E+10	1	-1E+10	1
4901784	63	C	03/26/2017	10:44	-132.163	43.917	0	819.30	0	3.7200	0	34.3970	4	27.341	0	811.128	0	11.6	4	3.6	4	-1E+10	1	-1E+10	1	-1E+10	1	-1E+10	1	-1E+10	1	-1E+10	1
4901784	63	C	03/26/2017	10:44	-132.163	43.917	0	824.40	0	3.7070	0	34.4010	4	27.345	0	816.167	0	11.5	4	3.6	4	-1E+10	1	-1E+10	1	-1E+10	1	-1E+10	1	-1E+10	1	-1E+10	1
4901784	63	C	03/26/2017	10:44	-132.163	43.917	0	829.50	0	3.6900	0	34.4060	4	27.351	0	821.206	0	11.4	4	3.6	4	-1E+10	1	-1E+10	1	-1E+10	1	-1E+10	1	-1E+10	1	-1E+10	1
4901784	63	C	03/26/2017	10:44	-132.163	43.917	0	834.60	0	3.6780	0	34.4100	4	27.355	0	826.245	0	11.4	4	3.6	4	-1E+10	1	-1E+10	1	-1E+10	1	-1E+10	1	-1E+10	1	-1E+10	1
4901784	63	C	03/26/2017	10:44	-132.163	43.917	0	839.70	0	3.6600	0	34.4150	4	27.361	0	831.284	0	11.3	4	3.6	4	-1E+10	1	-1E+10	1	-1E+10	1	-1E+10	1	-1E+10	1	-1E+10	1
4901784	63	C	03/26/2017	10:44	-132.163	43.917	0	844.90	0	3.6440	0	34.4200	4	27.367	0	836.422	0	11.3	4	3.5	4	-1E+10	1	-1E+10	1	-1E+10	1	-1E+10	1	-1E+10	1	-1E+10	1
4901784	63	C	03/26/2017	10:44	-132.163	43.917	0	850.20	0	3.6300	0	34.4240	4	27.371	0	841.658	0	11.3	4	3.5	4	-1E+10	1	-1E+10	1	-1E+10	1	-1E+10	1	-1E+10	1	-1E+10	1
4901784	63	C	03/26/2017	10:44	-132.163	43.917	0	855.50	0	3.6140	0	34.4270	4	27.375	0	846.894	0	11.3	4	3.5	4	-1E+10	1	-1E+10	1	-1E+10	1	-1E+10	1	-1E+10	1	-1E+10	1
4901784	63	C	03/26/2017	10:44	-132.163	43.917	0	860.60	0	3.5990	0	34.4310	4	27.380	0	851.932	0	11.3	4	3.5	4	-1E+10	1	-1E+10	1	-1E+10	1	-1E+10	1	-1E+10	1	-1E+10	1
4901784	63	C	03/26/2017	10:44	-132.163	43.917	0	864.90	0	3.5930	0	34.4310	4	27.381	0	856.180	0	11.3	4	3.6	4	-1E+10	1	-1E+10	1	-1E+10	1	-1E+10	1	-1E+10	1	-1E+10	1
4901784	63	C	03/26/2017	10:44	-132.163	43.917	0	869.40	0	3.5850	0	34.4330	4	27.383	0	860.625	0	11.3	4	3.6	4	-1E+10	1	-1E+10	1	-1E+10	1	-1E+10	1	-1E+10	1	-1E+10	1
4901784	63	C	03/26/2017	10:44	-132.163	43.917	0	874.70	0	3.5700	0	34.4370	4	27.388	0	865.861	0	11.4	4	3.6	4	-1E+10	1	-1E+10	1	-1E+10	1	-1E+10	1	-1E+10	1	-1E+10	1
4901784	63	C	03/26/2017	10:44	-132.163	43.917	0	880.20	0	3.5510	0	34.4430	4	27.394	0	871.294	0	11.5	4	3.6	4	-1E+10	1	-1E+10	1	-1E+10	1	-1E+10	1	-1E+10	1	-1E+10	1
4901784	63	C	03/26/2017	10:44	-132.163	43.917	0	885.50	0	3.5440	0	34.4460	4	27.398	0	876.529	0	11.5	4	3.6	4	-1E+10	1	-1E+10	1	-1E+10	1	-1E+10	1	-1E+10	1	-1E+10	1
4901784	63	C	03/26/2017	10:44	-132.163	43.917	0	889.90	0	3.5330	0	34.4490	4	27.401	0	880.875	0	11.6	4	3.6	4	-1E+10	1	-1E+10	1	-1E+10	1	-1E+10	1	-1E+10	1	-1E+10	1
4901784	63	C	03/26/2017	10:44	-132.163	43.917	0	894.30	0	3.5280	0	34.4500	4	27.402	0	885.221	0	11.6	4	3.6	4	-1E+10	1	-1E+10	1	-1E+10	1	-1E+10	1	-1E+10	1	-1E+10	1
4901784	63	C	03/26/2017	10:44	-132.163	43.917	0	899.80	0	3.5170	0	34.4530	4	27.406	0	890.654	0	11.7	4	3.7	4	-1E+10	1	-1E+10	1	-1E+10	1	-1E+10	1	-1E+10	1	-1E+10	1
4901784	63	C	03/26/2017	10:44	-132.163	43.917	0	905.20	0	3.4980	0	34.4580	4	27.412	0	895.988	0	11.8	4	3.7	4	-1E+10	1	-1E+10	1	-1E+10	1	-1E+10	1	-1E+10	1	-1E+10	1
4901784	63	C	03/26/2017	10:44	-132.163	43.917	0	909.80	0	3.4860	0	34.4600	4	27.415	0	900.531	0	11.8	4	3.7	4	-1E+10	1	-1E+10	1	-1E+10	1	-1E+10	1	-1E+10	1	-1E+10	1
4901784	63	C	03/26/2017	10:44	-132.163	43.917	0	914.30	0	3.4740	0	34.4640	4	27.419	0	904.975	0	11.9	4	3.7	4	-1E+10	1	-1E+10	1	-1E+10	1	-1E+10	1	-1E+10	1	-1E+10	1
4901784	63	C	03/26/2017	10:44	-132.163	43.917	0	919.80	0	3.4620	0	34.4660	4	27.422	0	910.407	0	12.0	4	3.8	4	-1E+10	1	-1E+10	1	-1E+10	1	-1E+10	1	-1E+10	1	-1E+10	1
4901784	63	C	03/26/2017	10:44	-132.163	43.917	0	925.30	0	3.4350	0	34.4730	4	27.430	0	915.839	0	12.2	4	3.8	4	-1E+10	1	-1E+10	1	-1E+10	1	-1E+10	1	-1E+10	1	-1E+10	1
4901784	63	C	03/26/2017	10:44	-132.163	43.917	0	929.90	0	3.4220	0	34.4770	4	27.434	0	920.382	0	12.4	4	3.9	4	-1E+10	1	-1E+10	1	-1E+10	1	-1E+10	1	-1E+10	1	-1E+10	1
4901784	63	C	03/26/2017	10:44	-132.163	43.917	0	934.50	0	3.4130	0	34.4800	4	27.438	0	924.925	0	12.4	4	3.9	4	-1E+10	1	-1E+10	1	-1E+10	1	-1E+10	1	-1E+10	1	-1E+10	1
4901784	63	C	03/26/2017	10:44	-132.163	43.917	0	940.10	0	3.4010	0	34.4830	4	27.441	0	930.455	0	12.5	4	3.9	4	-1E+10	1	-1E+10	1	-1E+10	1	-1E+10	1	-1E+10	1	-1E+10	1
4901784	63	C	03/26/2017	10:44	-132.163	43.917	0	945.40	0	3.3900	0	34.4860	4	27.445	0	935.689	0	12.7	4	4.0	4	-1E+10	1	-1E+10	1	-1E+10	1	-1E+10	1	-1E+10	1	-1E+10	1
4901784	63	C	03/26/2017	10:44	-132.163	43.917	0	950.20	0	3.3850	0	34.4880	4	27.447	0	940.428	0	12.8	4	4.0	4	-1E+10	1	-1E+10	1	-1E+10	1	-1E+10	1	-1E+10	1	-1E+10	1
4901784	63	C	03/26/2017	10:44	-132.163	43.917	0	955.10	0	3.3790	0	34.4900	4	27.449	0	945.267	0	12.9	4	4.0	4	-1E+10	1	-1E+10	1	-1E+10	1	-1E+10	1	-1E+10	1	-1E+10	1
4901784	63	C	03/26/2017	10:44	-132.163	43.917	0	960.10	0	3.3700	0	34.4930	4	27.452	0	950.204	0	13.0	4	4.0	4	-1E+10	1	-1E+10	1	-1E+10	1	-1E+10	1	-1E+10	1	-1E+10	1
4901784	63	C	03/26/2017	10:44	-132.163	43.917	0	965.20	0	3.3610	0	34.4950	4	27.455	0	955.240	0	13.1	4	4.1	4	-1E+10	1	-1E+10	1	-1E+10	1	-1E+10	1	-1E+10	1	-1E+10	1
4901784	63	C	03/26/2017	10:44	-132.163	43.917	0	970.20	0	3.3540	0	34.4960	4	27.456	0	960.177	0	13.3	4	4.1	4	-1E+10	1	-1E+10	1	-1E+10	1	-1E+10	1	-1E+10	1	-1E+10	1
4901784	63	C	03/26/2017	10:44	-132.163	43.917	0	975.30	0	3.3520	0	34.4990	4	27.459	0	965.213	0	13.6	4	4.2	4	-1E+10	1	-1E+10	1	-1E+10	1	-1E+10	1	-1E+10	1	-1E+10	1
4901784	63	C	03/26/2017	10:44	-132.163	43.917	0	980.50	0	3.3490	0	34.5030	4	27.462	0	970.347	0	13.9	4	4.3	4	-1E+10	1	-1E+10	1	-1E+10	1	-1E+10	1	-1E+10	1	-1E+10	1
4901784	63	C	03/26/2017	10:44	-132.163	43.917	0	984.90	0	3.3460	0	34.5050	4	27.464	0	974.691	0	14.0	4	4.4	4	-1E+10	1	-1E+10	1	-1E+10	1	-1E+10	1	-1E+10	1	-1E+10	1
4901784	63	C	03/26/2017	10:44	-132.163	43.917	0	989.30	0	3.3410	0	34.5070	4	27.466	0	979.035	0	14.2	4	4.4	4	-1E+10	1	-1E+10	1	-1E+10	1	-1E+10	1	-1E+10	1	-1E+10	1
4901784	63	C	03/26/2017	10:44	-132.163	43.917	0	994.50	0	3.3370	0	34.5090	4	27.468	0	984.169	0	14.4	4	4.5	4	-1E+10	1	-1E+10	1	-1E+10	1	-1E+10	1	-1E+10	1	-1E+10	1
4901784	63	C	03/26/2017	10:44	-132.163	43.917	0	999.90	0	3.3350	0	34.5100	4	27.469	0	989.500	0	14.7	4	4.6	4	-1E+10	1	-1E+10	1	-1E+10	1	-1E+10	1	-1E+10	1	-1E+10	1
4901784	63	C	03/26/2017	10:44	-132.163	43.917	0	1005.30	0	3.3330	0	34.5130	4	27.472	0	994.831	0	15.1	4	4.7	4	-1E+10	1	-1E+10	1	-1E+10	1	-1E+10	1	-1E+10	1	-1E+10	1
4901784	63	C	03/26/2017	10:44	-132.163	43.917	0	1009.80	0	3.3300	0	34.5190	4	27.477	0	999.273	0	15.5	4	4.8	4	-1E+10	1	-1E+10	1	-1E+10	1	-1E+10	1	-1E+10	1	-1E+10	1
4901784	63	C	03/26/2017	10:44	-132.163	43.917	0	1014.40	0	3.3270	0	34.5200	4	27.478	0	1003.815	0	15.7	4	4.9	4	-1E+10	1	-1E+10	1	-1E+10	1	-1E+10	1	-1E+10	1	-1E+10	1
4901784	63	C	03/26/2017	10:44	-132.163	43.917	0	1020.60	0	3.3230	0	34.5220	4	27.480	0	1009.935	0	16.0	4	5.0	4	-1E+10	1	-1E+10	1	-1E+10	1	-1E+10	1	-1E+10	1	-1E+10	1
4901784	63	C	03/26/2017	10:44	-132.163	43.917	0	1025.50	0	3.3150	0	34.5250	4	27.483	0	1014.772	0	16.3	4	5.1	4	-1E+10	1	-1E+10	1	-1E+10	1	-1E+10	1	-1E+10	1	-1E+10	1
4901784	63	C	03/26/2017	10:44	-132.163	43.917	0	1030.10	0	3.3100	0	34.5270	4	27.486	0	1019.313	0	16.5	4	5.1	4	-1E+10	1	-1E+10	1	-1E+10	1	-1E+10	1	-1E+10	1	-1E+10	1
4901784	63	C	03/26/2017	10:44	-132.163	43.917	0	1034.80	0	3.3090	0	34.5290	4	27.487	0	1023.952	0	16.7	4	5.2	4	-1E+10	1	-1E+10	1	-1E+10	1	-1E+10	1	-1E+10	1	-1E+10	1
4901784	63	C	03/26/2017	10:44	-132.163	43.917	0	1039.60	0	3.3070	0	34.5320	4	27.490	0	1028.690	0	17.0	4	5.3	4	-1E+10	1	-1E+10	1	-1E+10	1	-1E+10	1	-1E+10	1	-1E+10	1
4901784	63	C	03/26/2017	10:44	-132.163	43.917	0	1044.40	0	3.3060	0	34.5320	4	27.490	0	1033.428	0	17.0	4	5.3	4	-1E+10	1	-1E+10	1	-1E+10	1	-1E+10	1	-1E+10	1	-1E+10	1
4901784	63	C	03/26/2017	10:44	-132.163	43.917	0	1049.40	0	3.3040	0	34.5330	4	27.491	0	1038.363	0	17.2	4	5.3	4	-1E+10	1	-1E+10	1	-1E+10	1	-1E+10	1	-1E+10	1	-1E+10	1
4901784	63	C	03/26/2017	10:44	-132.163	43.917	0	1054.30	0	3.2960	0	34.5340	4	27.493	0	1043.199	0	17.4	4	5.4	4	-1E+10	1	-1E+10	1	-1E+10	1	-1E+10	1	-1E+10	1	-1E+10	1
4901784	63	C	03/26/2017	10:44	-132.163	43.917	0	1059.30	0	3.2860	0	34.5370	4	27.496	0	1048.134	0	17.7	4	5.5	4	-1E+10	1	-1E+10	1	-1E+10	1	-1E+10	1	-1E+10	1	-1E+10	1
4901784	63	C	03/26/2017	10:44	-132.163	43.917	0	1064.30	0	3.2770	0	34.5400	4	27.499	0	1053.069	0	18.0	4	5.6	4	-1E+10	1	-1E+10	1	-1E+10	1	-1E+10	1	-1E+10	1	-1E+10	1
4901784	63	C	03/26/2017	10:44	-132.163	43.917	0	1069.30	0	3.2780	0	34.5420	4	27.501	0	1058.003	0	18.3	4	5.7	4	-1E+10	1	-1E+10	1	-1E+10	1	-1E+10	1	-1E+10	1	-1E+10	1
4901784	63	C	03/26/2017	10:44	-132.163	43.917	0	1074.40	0	3.2760	0	34.5440	4	27.503	0	1063.036	0	18.7	4	5.8	4	-1E+10	1	-1E+10	1	-1E+10	1	-1E+10	1	-1E+10	1	-1E+10	1
4901784	63	C	03/26/2017	10:44	-132.163	43.917	0	1079.50	0	3.2790	0	34.5470	4	27.505	0	1068.069	0	19.2	4	6.0	4	-1E+10	1	-1E+10	1	-1E+10	1	-1E+10	1	-1E+10	1	-1E+10	1
4901784	63	C	03/26/2017	10:44	-132.163	43.917	0	1084.70	0	3.2770	0	34.5500	4	27.507	0	1073.201	0	19.4	4	6.0	4	-1E+10	1	-1E+10	1	-1E+10	1	-1E+10	1	-1E+10	1	-1E+10	1
4901784	63	C	03/26/2017	10:44	-132.163	43.917	0	1089.80	0	3.2710	0	34.5510	4	27.509	0	1078.234	0	19.4	4	6.0	4	-1E+10	1	-1E+10	1	-1E+10	1	-1E+10	1	-1E+10	1	-1E+10	1
4901784	63	C	03/26/2017	10:44	-132.163	43.917	0	1095.10	0	3.2630	0	34.5520	4	27.510	0	1083.464	0	19.5	4	6.1	4	-1E+10	1	-1E+10	1	-1E+10	1	-1E+10	1	-1E+10	1	-1E+10	1
4901784	63	C	03/26/2017	10:44	-132.163	43.917	0	1100.40	0	3.2540	0	34.5530	4	27.512	0	1088.694	0	19.7	4	6.1	4	-1E+10	1	-1E+10	1	-1E+10	1	-1E+10	1	-1E+10	1	-1E+10	1
4901784	63	C	03/26/2017	10:44	-132.163	43.917	0	1105.60	0	3.2460	0	34.5550	4	27.514	0	1093.825	0	19.8	4	6.2	4	-1E+10	1	-1E+10	1	-1E+10	1	-1E+10	1	-1E+10	1	-1E+10	1
4901784	63	C	03/26/2017	10:44	-132.163	43.917	0	1110.10	0	3.2430	0	34.5560	4	27.516	0	1098.265	0	19.9	4	6.2	4	-1E+10	1	-1E+10	1	-1E+10	1	-1E+10	1	-1E+10	1	-1E+10	1
4901784	63	C	03/26/2017	10:44	-132.163	43.917	0	1114.50	0	3.2380	0	34.5560	4	27.516	0	1102.607	0	20.0	4	6.2	4	-1E+10	1	-1E+10	1	-1E+10	1	-1E+10	1	-1E+10	1	-1E+10	1
4901784	63	C	03/26/2017	10:44	-132.163	43.917	0	1119.80	0	3.2360	0	34.5570	4	27.517	0	1107.837	0	20.1	4	6.2	4	-1E+10	1	-1E+10	1	-1E+10	1	-1E+10	1	-1E+10	1	-1E+10	1
4901784	63	C	03/26/2017	10:44	-132.163	43.917	0	1125.10	0	3.2370	0	34.5580	4	27.518	0	1113.066	0	20.2	4	6.3	4	-1E+10	1	-1E+10	1	-1E+10	1	-1E+10	1	-1E+10	1	-1E+10	1
4901784	63	C	03/26/2017	10:44	-132.163	43.917	0	1130.40	0	3.2300	0	34.5580	4	27.518	0	1118.295	0	20.2	4	6.3	4	-1E+10	1	-1E+10	1	-1E+10	1	-1E+10	1	-1E+10	1	-1E+10	1
4901784	63	C	03/26/2017	10:44	-132.163	43.917	0	1134.80	0	3.2240	0	34.5590	4	27.520	0	1122.636	0	20.3	4	6.3	4	-1E+10	1	-1E+10	1	-1E+10	1	-1E+10	1	-1E+10	1	-1E+10	1
4901784	63	C	03/26/2017	10:44	-132.163	43.917	0	1139.30	0	3.2240	0	34.5600	4	27.521	0	1127.076	0	20.6	4	6.4	4	-1E+10	1	-1E+10	1	-1E+10	1	-1E+10	1	-1E+10	1	-1E+10	1
4901784	63	C	03/26/2017	10:44	-132.163	43.917	0	1144.70	0	3.2230	0	34.5620	4	27.522	0	1132.403	0	20.8	4	6.5	4	-1E+10	1	-1E+10	1	-1E+10	1	-1E+10	1	-1E+10	1	-1E+10	1
4901784	63	C	03/26/2017	10:44	-132.163	43.917	0	1150.00	0	3.2070	0	34.5630	4	27.525	0	1137.632	0	20.8	4	6.5	4	-1E+10	1	-1E+10	1	-1E+10	1	-1E+10	1	-1E+10	1	-1E+10	1
4901784	63	C	03/26/2017	10:44	-132.163	43.917	0	1155.20	0	3.1990	0	34.5640	4	27.526	0	1142.762	0	21.0	4	6.5	4	-1E+10	1	-1E+10	1	-1E+10	1	-1E+10	1	-1E+10	1	-1E+10	1
4901784	63	C	03/26/2017	10:44	-132.163	43.917	0	1160.50	0	3.2090	0	34.5660	4	27.527	0	1147.990	0	21.4	4	6.6	4	-1E+10	1	-1E+10	1	-1E+10	1	-1E+10	1	-1E+10	1	-1E+10	1
4901784	63	C	03/26/2017	10:44	-132.163	43.917	0	1165.00	0	3.2070	0	34.5680	4	27.529	0	1152.430	0	21.5	4	6.7	4	-1E+10	1	-1E+10	1	-1E+10	1	-1E+10	1	-1E+10	1	-1E+10	1
4901784	63	C	03/26/2017	10:44	-132.163	43.917	0	1169.50	0	3.2020	0	34.5680	4	27.529	0	1156.869	0	21.8	4	6.8	4	-1E+10	1	-1E+10	1	-1E+10	1	-1E+10	1	-1E+10	1	-1E+10	1
4901784	63	C	03/26/2017	10:44	-132.163	43.917	0	1174.90	0	3.2040	0	34.5710	4	27.532	0	1162.195	0	22.4	4	7.0	4	-1E+10	1	-1E+10	1	-1E+10	1	-1E+10	1	-1E+10	1	-1E+10	1
4901784	63	C	03/26/2017	10:44	-132.163	43.917	0	1180.30	0	3.2220	0	34.5750	4	27.533	0	1167.522	0	22.8	4	7.1	4	-1E+10	1	-1E+10	1	-1E+10	1	-1E+10	1	-1E+10	1	-1E+10	1
4901784	63	C	03/26/2017	10:44	-132.163	43.917	0	1185.70	0	3.2140	0	34.5750	4	27.534	0	1172.849	0	22.9	4	7.1	4	-1E+10	1	-1E+10	1	-1E+10	1	-1E+10	1	-1E+10	1	-1E+10	1
4901784	63	C	03/26/2017	10:44	-132.163	43.917	0	1190.20	0	3.2060	0	34.5770	4	27.536	0	1177.287	0	23.1	4	7.2	4	-1E+10	1	-1E+10	1	-1E+10	1	-1E+10	1	-1E+10	1	-1E+10	1
4901784	63	C	03/26/2017	10:44	-132.163	43.917	0	1194.70	0	3.1990	0	34.5780	4	27.538	0	1181.726	0	23.2	4	7.2	4	-1E+10	1	-1E+10	1	-1E+10	1	-1E+10	1	-1E+10	1	-1E+10	1
4901784	63	C	03/26/2017	10:44	-132.163	43.917	0	1200.00	0	3.1850	0	34.5800	4	27.541	0	1186.953	0	23.4	4	7.3	4	-1E+10	1	-1E+10	1	-1E+10	1	-1E+10	1	-1E+10	1	-1E+10	1
4901784	63	C	03/26/2017	10:44	-132.163	43.917	0	1205.30	0	3.1770	0	34.5810	4	27.542	0	1192.181	0	23.5	4	7.3	4	-1E+10	1	-1E+10	1	-1E+10	1	-1E+10	1	-1E+10	1	-1E+10	1
4901784	63	C	03/26/2017	10:44	-132.163	43.917	0	1210.60	0	3.1710	0	34.5820	4	27.544	0	1197.408	0	23.6	4	7.3	4	-1E+10	1	-1E+10	1	-1E+10	1	-1E+10	1	-1E+10	1	-1E+10	1
4901784	63	C	03/26/2017	10:44	-132.163	43.917	0	1215.00	0	3.1650	0	34.5830	4	27.545	0	1201.747	0	23.7	4	7.4	4	-1E+10	1	-1E+10	1	-1E+10	1	-1E+10	1	-1E+10	1	-1E+10	1
4901784	63	C	03/26/2017	10:44	-132.163	43.917	0	1219.40	0	3.1590	0	34.5840	4	27.546	0	1206.087	0	23.8	4	7.4	4	-1E+10	1	-1E+10	1	-1E+10	1	-1E+10	1	-1E+10	1	-1E+10	1
4901784	63	C	03/26/2017	10:44	-132.163	43.917	0	1224.70	0	3.1550	0	34.5840	4	27.547	0	1211.314	0	23.8	4	7.4	4	-1E+10	1	-1E+10	1	-1E+10	1	-1E+10	1	-1E+10	1	-1E+10	1
4901784	63	C	03/26/2017	10:44	-132.163	43.917	0	1230.00	0	3.1480	0	34.5840	4	27.547	0	1216.540	0	23.9	4	7.4	4	-1E+10	1	-1E+10	1	-1E+10	1	-1E+10	1	-1E+10	1	-1E+10	1
4901784	63	C	03/26/2017	10:44	-132.163	43.917	0	1235.30	0	3.1430	0	34.5850	4	27.549	0	1221.767	0	24.0	4	7.4	4	-1E+10	1	-1E+10	1	-1E+10	1	-1E+10	1	-1E+10	1	-1E+10	1
4901784	63	C	03/26/2017	10:44	-132.163	43.917	0	1240.70	0	3.1390	0	34.5850	4	27.549	0	1227.092	0	24.1	4	7.5	4	-1E+10	1	-1E+10	1	-1E+10	1	-1E+10	1	-1E+10	1	-1E+10	1
4901784	63	C	03/26/2017	10:44	-132.163	43.917	0	1245.10	0	3.1310	0	34.5860	4	27.551	0	1231.431	0	24.2	4	7.5	4	-1E+10	1	-1E+10	1	-1E+10	1	-1E+10	1	-1E+10	1	-1E+10	1
4901784	63	C	03/26/2017	10:44	-132.163	43.917	0	1249.60	0	3.1260	0	34.5870	4	27.552	0	1235.868	0	24.4	4	7.6	4	-1E+10	1	-1E+10	1	-1E+10	1	-1E+10	1	-1E+10	1	-1E+10	1
4901784	63	C	03/26/2017	10:44	-132.163	43.917	0	1254.90	0	3.1180	0	34.5880	4	27.554	0	1241.094	0	24.5	4	7.6	4	-1E+10	1	-1E+10	1	-1E+10	1	-1E+10	1	-1E+10	1	-1E+10	1
4901784	63	C	03/26/2017	10:44	-132.163	43.917	0	1260.30	0	3.1120	0	34.5890	4	27.555	0	1246.419	0	24.7	4	7.7	4	-1E+10	1	-1E+10	1	-1E+10	1	-1E+10	1	-1E+10	1	-1E+10	1
4901784	63	C	03/26/2017	10:44	-132.163	43.917	0	1265.60	0	3.0940	0	34.5910	4	27.558	0	1251.645	0	24.9	4	7.7	4	-1E+10	1	-1E+10	1	-1E+10	1	-1E+10	1	-1E+10	1	-1E+10	1
4901784	63	C	03/26/2017	10:44	-132.163	43.917	0	1270.00	0	3.0880	0	34.5920	4	27.560	0	1255.983	0	25.1	4	7.8	4	-1E+10	1	-1E+10	1	-1E+10	1	-1E+10	1	-1E+10	1	-1E+10	1
4901784	63	C	03/26/2017	10:44	-132.163	43.917	0	1274.50	0	3.0840	0	34.5930	4	27.561	0	1260.420	0	25.2	4	7.8	4	-1E+10	1	-1E+10	1	-1E+10	1	-1E+10	1	-1E+10	1	-1E+10	1
4901784	63	C	03/26/2017	10:44	-132.163	43.917	0	1279.80	0	3.0730	0	34.5940	4	27.563	0	1265.646	0	25.2	4	7.8	4	-1E+10	1	-1E+10	1	-1E+10	1	-1E+10	1	-1E+10	1	-1E+10	1
4901784	63	C	03/26/2017	10:44	-132.163	43.917	0	1285.20	0	3.0580	0	34.5940	4	27.564	0	1270.970	0	25.1	4	7.8	4	-1E+10	1	-1E+10	1	-1E+10	1	-1E+10	1	-1E+10	1	-1E+10	1
4901784	63	C	03/26/2017	10:44	-132.163	43.917	0	1290.60	0	3.0450	0	34.5930	4	27.564	0	1276.294	0	25.1	4	7.8	4	-1E+10	1	-1E+10	1	-1E+10	1	-1E+10	1	-1E+10	1	-1E+10	1
4901784	63	C	03/26/2017	10:44	-132.163	43.917	0	1295.00	0	3.0280	0	34.5940	4	27.567	0	1280.631	0	25.2	4	7.8	4	-1E+10	1	-1E+10	1	-1E+10	1	-1E+10	1	-1E+10	1	-1E+10	1
4901784	63	C	03/26/2017	10:44	-132.163	43.917	0	1299.50	0	3.0290	0	34.5950	4	27.568	0	1285.068	0	25.3	4	7.8	4	-1E+10	1	-1E+10	1	-1E+10	1	-1E+10	1	-1E+10	1	-1E+10	1
4901784	63	C	03/26/2017	10:44	-132.163	43.917	0	1304.80	0	3.0210	0	34.5950	4	27.568	0	1290.293	0	25.4	4	7.9	4	-1E+10	1	-1E+10	1	-1E+10	1	-1E+10	1	-1E+10	1	-1E+10	1
4901784	63	C	03/26/2017	10:44	-132.163	43.917	0	1310.10	0	3.0010	0	34.5950	4	27.570	0	1295.517	0	25.3	4	7.8	4	-1E+10	1	-1E+10	1	-1E+10	1	-1E+10	1	-1E+10	1	-1E+10	1
4901784	63	C	03/26/2017	10:44	-132.163	43.917	0	1315.40	0	2.9940	0	34.5960	4	27.572	0	1300.742	0	25.4	4	7.9	4	-1E+10	1	-1E+10	1	-1E+10	1	-1E+10	1	-1E+10	1	-1E+10	1
4901784	63	C	03/26/2017	10:44	-132.163	43.917	0	1319.80	0	2.9880	0	34.5970	4	27.573	0	1305.080	0	25.5	4	7.9	4	-1E+10	1	-1E+10	1	-1E+10	1	-1E+10	1	-1E+10	1	-1E+10	1
4901784	63	C	03/26/2017	10:44	-132.163	43.917	0	1324.30	0	2.9760	0	34.5970	4	27.574	0	1309.515	0	25.6	4	7.9	4	-1E+10	1	-1E+10	1	-1E+10	1	-1E+10	1	-1E+10	1	-1E+10	1
4901784	63	C	03/26/2017	10:44	-132.163	43.917	0	1329.60	0	2.9670	0	34.5980	4	27.576	0	1314.740	0	25.7	4	7.9	4	-1E+10	1	-1E+10	1	-1E+10	1	-1E+10	1	-1E+10	1	-1E+10	1
4901784	63	C	03/26/2017	10:44	-132.163	43.917	0	1334.90	0	2.9560	0	34.5980	4	27.577	0	1319.964	0	25.8	4	8.0	4	-1E+10	1	-1E+10	1	-1E+10	1	-1E+10	1	-1E+10	1	-1E+10	1
4901784	63	C	03/26/2017	10:44	-132.163	43.917	0	1340.30	0	2.9390	0	34.5990	4	27.579	0	1325.286	0	25.7	4	7.9	4	-1E+10	1	-1E+10	1	-1E+10	1	-1E+10	1	-1E+10	1	-1E+10	1
4901784	63	C	03/26/2017	10:44	-132.163	43.917	0	1344.90	0	2.9240	0	34.5990	4	27.580	0	1329.820	0	25.6	4	7.9	4	-1E+10	1	-1E+10	1	-1E+10	1	-1E+10	1	-1E+10	1	-1E+10	1
4901784	63	C	03/26/2017	10:44	-132.163	43.917	0	1349.30	0	2.9080	0	34.5990	4	27.582	0	1334.157	0	25.5	4	7.9	4	-1E+10	1	-1E+10	1	-1E+10	1	-1E+10	1	-1E+10	1	-1E+10	1
4901784	63	C	03/26/2017	10:44	-132.163	43.917	0	1354.60	0	2.8930	0	34.5980	4	27.582	0	1339.381	0	25.4	4	7.8	4	-1E+10	1	-1E+10	1	-1E+10	1	-1E+10	1	-1E+10	1	-1E+10	1
4901784	63	C	03/26/2017	10:44	-132.163	43.917	0	1359.40	0	2.8880	0	34.5980	4	27.583	0	1344.112	0	25.5	4	7.8	4	-1E+10	1	-1E+10	1	-1E+10	1	-1E+10	1	-1E+10	1	-1E+10	1
4901784	63	C	03/26/2017	10:44	-132.163	43.917	0	1364.20	0	2.8850	0	34.5980	4	27.583	0	1348.842	0	25.6	4	7.9	4	-1E+10	1	-1E+10	1	-1E+10	1	-1E+10	1	-1E+10	1	-1E+10	1
4901784	63	C	03/26/2017	10:44	-132.163	43.917	0	1369.10	0	2.8750	0	34.5980	4	27.584	0	1353.671	0	25.6	4	7.9	4	-1E+10	1	-1E+10	1	-1E+10	1	-1E+10	1	-1E+10	1	-1E+10	1
4901784	63	C	03/26/2017	10:44	-132.163	43.917	0	1374.40	0	2.8620	0	34.5990	4	27.586	0	1358.895	0	25.6	4	7.9	4	-1E+10	1	-1E+10	1	-1E+10	1	-1E+10	1	-1E+10	1	-1E+10	1
4901784	63	C	03/26/2017	10:44	-132.163	43.917	0	1379.60	0	2.8480	0	34.5990	4	27.587	0	1364.019	0	25.7	4	7.9	4	-1E+10	1	-1E+10	1	-1E+10	1	-1E+10	1	-1E+10	1	-1E+10	1
4901784	63	C	03/26/2017	10:44	-132.163	43.917	0	1384.80	0	2.8380	0	34.6000	4	27.589	0	1369.144	0	25.8	4	8.0	4	-1E+10	1	-1E+10	1	-1E+10	1	-1E+10	1	-1E+10	1	-1E+10	1
4901784	63	C	03/26/2017	10:44	-132.163	43.917	0	1390.20	0	2.8240	0	34.6000	4	27.590	0	1374.465	0	25.9	4	8.0	4	-1E+10	1	-1E+10	1	-1E+10	1	-1E+10	1	-1E+10	1	-1E+10	1
4901784	63	C	03/26/2017	10:44	-132.163	43.917	0	1395.60	0	2.8070	0	34.6000	4	27.592	0	1379.786	0	25.9	4	8.0	4	-1E+10	1	-1E+10	1	-1E+10	1	-1E+10	1	-1E+10	1	-1E+10	1
4901784	63	C	03/26/2017	10:44	-132.163	43.917	0	1400.10	0	2.7940	0	34.6010	4	27.594	0	1384.220	0	25.9	4	8.0	4	-1E+10	1	-1E+10	1	-1E+10	1	-1E+10	1	-1E+10	1	-1E+10	1
4901784	63	C	03/26/2017	10:44	-132.163	43.917	0	1404.60	0	2.7790	0	34.6010	4	27.595	0	1388.654	0	25.7	4	7.9	4	-1E+10	1	-1E+10	1	-1E+10	1	-1E+10	1	-1E+10	1	-1E+10	1
4901784	63	C	03/26/2017	10:44	-132.163	43.917	0	1410.10	0	2.7500	0	34.5990	4	27.596	0	1394.074	0	25.6	4	7.9	4	-1E+10	1	-1E+10	1	-1E+10	1	-1E+10	1	-1E+10	1	-1E+10	1
4901784	63	C	03/26/2017	10:44	-132.163	43.917	0	1414.90	0	2.7410	0	34.6000	4	27.598	0	1398.803	0	25.7	4	7.9	4	-1E+10	1	-1E+10	1	-1E+10	1	-1E+10	1	-1E+10	1	-1E+10	1
4901784	63	C	03/26/2017	10:44	-132.163	43.917	0	1419.60	0	2.7340	0	34.6000	4	27.598	0	1403.434	0	25.9	4	7.9	4	-1E+10	1	-1E+10	1	-1E+10	1	-1E+10	1	-1E+10	1	-1E+10	1
4901784	63	C	03/26/2017	10:44	-132.163	43.917	0	1424.40	0	2.7150	0	34.6010	4	27.601	0	1408.164	0	25.9	4	8.0	4	-1E+10	1	-1E+10	1	-1E+10	1	-1E+10	1	-1E+10	1	-1E+10	1
4901784	63	C	03/26/2017	10:44	-132.163	43.917	0	1430.00	0	2.6990	0	34.6010	4	27.602	0	1413.681	0	26.0	4	8.0	4	-1E+10	1	-1E+10	1	-1E+10	1	-1E+10	1	-1E+10	1	-1E+10	1
4901784	63	C	03/26/2017	10:44	-132.163	43.917	0	1435.70	0	2.6820	0	34.6020	4	27.605	0	1419.297	0	26.1	4	8.0	4	-1E+10	1	-1E+10	1	-1E+10	1	-1E+10	1	-1E+10	1	-1E+10	1
4901784	63	C	03/26/2017	10:44	-132.163	43.917	0	1440.60	0	2.6670	0	34.6020	4	27.606	0	1424.124	0	26.1	4	8.0	4	-1E+10	1	-1E+10	1	-1E+10	1	-1E+10	1	-1E+10	1	-1E+10	1
4901784	63	C	03/26/2017	10:44	-132.163	43.917	0	1445.60	0	2.6580	0	34.6020	4	27.607	0	1429.050	0	26.2	4	8.0	4	-1E+10	1	-1E+10	1	-1E+10	1	-1E+10	1	-1E+10	1	-1E+10	1
4901784	63	C	03/26/2017	10:44	-132.163	43.917	0	1450.50	0	2.6490	0	34.6030	4	27.608	0	1433.878	0	26.3	4	8.1	4	-1E+10	1	-1E+10	1	-1E+10	1	-1E+10	1	-1E+10	1	-1E+10	1
4901784	63	C	03/26/2017	10:44	-132.163	43.917	0	1455.60	0	2.6390	0	34.6030	4	27.609	0	1438.902	0	26.4	4	8.1	4	-1E+10	1	-1E+10	1	-1E+10	1	-1E+10	1	-1E+10	1	-1E+10	1
4901784	63	C	03/26/2017	10:44	-132.163	43.917	0	1459.90	0	2.6200	0	34.6030	4	27.611	0	1443.138	0	26.6	4	8.1	4	-1E+10	1	-1E+10	1	-1E+10	1	-1E+10	1	-1E+10	1	-1E+10	1
4901784	63	C	03/26/2017	10:44	-132.163	43.917	0	1464.30	0	2.5990	0	34.6040	4	27.613	0	1447.472	0	26.8	4	8.2	4	-1E+10	1	-1E+10	1	-1E+10	1	-1E+10	1	-1E+10	1	-1E+10	1
4901784	63	C	03/26/2017	10:44	-132.163	43.917	0	1469.50	0	2.5850	0	34.6050	4	27.615	0	1452.595	0	27.0	4	8.3	4	-1E+10	1	-1E+10	1	-1E+10	1	-1E+10	1	-1E+10	1	-1E+10	1
4901784	63	C	03/26/2017	10:44	-132.163	43.917	0	1474.80	0	2.5640	0	34.6060	4	27.618	0	1457.815	0	27.5	4	8.4	4	-1E+10	1	-1E+10	1	-1E+10	1	-1E+10	1	-1E+10	1	-1E+10	1
4901784	63	C	03/26/2017	10:44	-132.163	43.917	0	1480.20	0	2.5530	0	34.6070	4	27.620	0	1463.134	0	27.8	4	8.5	4	-1E+10	1	-1E+10	1	-1E+10	1	-1E+10	1	-1E+10	1	-1E+10	1
4901784	63	C	03/26/2017	10:44	-132.163	43.917	0	1485.40	0	2.5400	0	34.6090	4	27.623	0	1468.256	0	28.0	4	8.6	4	-1E+10	1	-1E+10	1	-1E+10	1	-1E+10	1	-1E+10	1	-1E+10	1
4901784	63	C	03/26/2017	10:44	-132.163	43.917	0	1490.30	0	2.5350	0	34.6090	4	27.623	0	1473.083	0	28.2	4	8.6	4	-1E+10	1	-1E+10	1	-1E+10	1	-1E+10	1	-1E+10	1	-1E+10	1
4901784	63	C	03/26/2017	10:44	-132.163	43.917	0	1495.30	0	2.5200	0	34.6100	4	27.625	0	1478.008	0	28.6	4	8.7	4	-1E+10	1	-1E+10	1	-1E+10	1	-1E+10	1	-1E+10	1	-1E+10	1
4901784	63	C	03/26/2017	10:44	-132.163	43.917	0	1500.30	0	2.5010	0	34.6120	4	27.628	0	1482.932	0	28.8	4	8.8	4	-1E+10	1	-1E+10	1	-1E+10	1	-1E+10	1	-1E+10	1	-1E+10	1
4901784	63	C	03/26/2017	10:44	-132.163	43.917	0	1505.40	0	2.4930	0	34.6120	4	27.629	0	1487.955	0	29.0	4	8.9	4	-1E+10	1	-1E+10	1	-1E+10	1	-1E+10	1	-1E+10	1	-1E+10	1
4901784	63	C	03/26/2017	10:44	-132.163	43.917	0	1510.60	0	2.4820	0	34.6120	4	27.630	0	1493.077	0	29.3	4	9.0	4	-1E+10	1	-1E+10	1	-1E+10	1	-1E+10	1	-1E+10	1	-1E+10	1
4901784	63	C	03/26/2017	10:44	-132.163	43.917	0	1515.00	0	2.4650	0	34.6140	4	27.633	0	1497.410	0	29.7	4	9.1	4	-1E+10	1	-1E+10	1	-1E+10	1	-1E+10	1	-1E+10	1	-1E+10	1
4901784	63	C	03/26/2017	10:44	-132.163	43.917	0	1520.00	0	2.4490	0	34.6150	4	27.635	0	1502.334	0	30.1	4	9.2	4	-1E+10	1	-1E+10	1	-1E+10	1	-1E+10	1	-1E+10	1	-1E+10	1
4901784	63	C	03/26/2017	10:44	-132.163	43.917	0	1524.90	0	2.4350	0	34.6170	4	27.638	0	1507.160	0	30.4	4	9.3	4	-1E+10	1	-1E+10	1	-1E+10	1	-1E+10	1	-1E+10	1	-1E+10	1
4901784	63	C	03/26/2017	10:44	-132.163	43.917	0	1530.20	0	2.4230	0	34.6180	4	27.640	0	1512.379	0	30.6	4	9.3	4	-1E+10	1	-1E+10	1	-1E+10	1	-1E+10	1	-1E+10	1	-1E+10	1
4901784	63	C	03/26/2017	10:44	-132.163	43.917	0	1535.60	0	2.4170	0	34.6190	4	27.641	0	1517.697	0	30.9	4	9.4	4	-1E+10	1	-1E+10	1	-1E+10	1	-1E+10	1	-1E+10	1	-1E+10	1
4901784	63	C	03/26/2017	10:44	-132.163	43.917	0	1540.30	0	2.4120	0	34.6190	4	27.642	0	1522.325	0	31.1	4	9.5	4	-1E+10	1	-1E+10	1	-1E+10	1	-1E+10	1	-1E+10	1	-1E+10	1
4901784	63	C	03/26/2017	10:44	-132.163	43.917	0	1545.20	0	2.4000	0	34.6200	4	27.643	0	1527.150	0	31.4	4	9.6	4	-1E+10	1	-1E+10	1	-1E+10	1	-1E+10	1	-1E+10	1	-1E+10	1
4901784	63	C	03/26/2017	10:44	-132.163	43.917	0	1550.10	0	2.3900	0	34.6220	4	27.646	0	1531.975	0	31.7	4	9.6	4	-1E+10	1	-1E+10	1	-1E+10	1	-1E+10	1	-1E+10	1	-1E+10	1
4901784	63	C	03/26/2017	10:44	-132.163	43.917	0	1555.00	0	2.3830	0	34.6220	4	27.646	0	1536.800	0	31.9	4	9.7	4	-1E+10	1	-1E+10	1	-1E+10	1	-1E+10	1	-1E+10	1	-1E+10	1
4901784	63	C	03/26/2017	10:44	-132.163	43.917	0	1559.90	0	2.3780	0	34.6230	4	27.648	0	1541.625	0	32.1	4	9.8	4	-1E+10	1	-1E+10	1	-1E+10	1	-1E+10	1	-1E+10	1	-1E+10	1
4901784	63	C	03/26/2017	10:44	-132.163	43.917	0	1564.90	0	2.3720	0	34.6240	4	27.649	0	1546.548	0	32.3	4	9.8	4	-1E+10	1	-1E+10	1	-1E+10	1	-1E+10	1	-1E+10	1	-1E+10	1
4901784	63	C	03/26/2017	10:44	-132.163	43.917	0	1570.00	0	2.3690	0	34.6240	4	27.649	0	1551.570	0	32.6	4	9.9	4	-1E+10	1	-1E+10	1	-1E+10	1	-1E+10	1	-1E+10	1	-1E+10	1
4901784	63	C	03/26/2017	10:44	-132.163	43.917	0	1575.10	0	2.3560	0	34.6250	4	27.651	0	1556.591	0	33.0	4	10.0	4	-1E+10	1	-1E+10	1	-1E+10	1	-1E+10	1	-1E+10	1	-1E+10	1
4901784	63	C	03/26/2017	10:44	-132.163	43.917	0	1580.30	0	2.3490	0	34.6260	4	27.653	0	1561.711	0	33.3	4	10.1	4	-1E+10	1	-1E+10	1	-1E+10	1	-1E+10	1	-1E+10	1	-1E+10	1
4901784	63	C	03/26/2017	10:44	-132.163	43.917	0	1585.50	0	2.3400	0	34.6270	4	27.654	0	1566.830	0	33.6	4	10.2	4	-1E+10	1	-1E+10	1	-1E+10	1	-1E+10	1	-1E+10	1	-1E+10	1
4901784	63	C	03/26/2017	10:44	-132.163	43.917	0	1590.80	0	2.3350	0	34.6280	4	27.655	0	1572.048	0	34.0	4	10.3	4	-1E+10	1	-1E+10	1	-1E+10	1	-1E+10	1	-1E+10	1	-1E+10	1
4901784	63	C	03/26/2017	10:44	-132.163	43.917	0	1595.10	0	2.3260	0	34.6300	4	27.658	0	1576.282	0	34.5	4	10.5	4	-1E+10	1	-1E+10	1	-1E+10	1	-1E+10	1	-1E+10	1	-1E+10	1
4901784	63	C	03/26/2017	10:44	-132.163	43.917	0	1599.50	0	2.3130	0	34.6310	4	27.660	0	1580.613	0	34.8	4	10.6	4	-1E+10	1	-1E+10	1	-1E+10	1	-1E+10	1	-1E+10	1	-1E+10	1
4901784	63	C	03/26/2017	10:44	-132.163	43.917	0	1604.90	0	2.3080	0	34.6320	4	27.661	0	1585.929	0	35.1	4	10.7	4	-1E+10	1	-1E+10	1	-1E+10	1	-1E+10	1	-1E+10	1	-1E+10	1
4901784	63	C	03/26/2017	10:44	-132.163	43.917	0	1610.30	0	2.2970	0	34.6330	4	27.663	0	1591.245	0	35.5	4	10.8	4	-1E+10	1	-1E+10	1	-1E+10	1	-1E+10	1	-1E+10	1	-1E+10	1
4901784	63	C	03/26/2017	10:44	-132.163	43.917	0	1614.80	0	2.2900	0	34.6340	4	27.664	0	1595.675	0	35.7	4	10.9	4	-1E+10	1	-1E+10	1	-1E+10	1	-1E+10	1	-1E+10	1	-1E+10	1
4901784	63	C	03/26/2017	10:44	-132.163	43.917	0	1619.40	0	2.2850	0	34.6340	4	27.664	0	1600.203	0	35.9	4	10.9	4	-1E+10	1	-1E+10	1	-1E+10	1	-1E+10	1	-1E+10	1	-1E+10	1
4901784	63	C	03/26/2017	10:44	-132.163	43.917	0	1624.90	0	2.2830	0	34.6340	4	27.665	0	1605.617	0	36.2	4	11.0	4	-1E+10	1	-1E+10	1	-1E+10	1	-1E+10	1	-1E+10	1	-1E+10	1
4901784	63	C	03/26/2017	10:44	-132.163	43.917	0	1630.40	0	2.2760	0	34.6350	4	27.666	0	1611.031	0	36.7	4	11.1	4	-1E+10	1	-1E+10	1	-1E+10	1	-1E+10	1	-1E+10	1	-1E+10	1
4901784	63	C	03/26/2017	10:44	-132.163	43.917	0	1634.90	0	2.2610	0	34.6370	4	27.669	0	1615.460	0	37.1	4	11.3	4	-1E+10	1	-1E+10	1	-1E+10	1	-1E+10	1	-1E+10	1	-1E+10	1
4901784	63	C	03/26/2017	10:44	-132.163	43.917	0	1639.50	0	2.2520	0	34.6380	4	27.670	0	1619.988	0	37.4	4	11.4	4	-1E+10	1	-1E+10	1	-1E+10	1	-1E+10	1	-1E+10	1	-1E+10	1
4901784	63	C	03/26/2017	10:44	-132.163	43.917	0	1645.10	0	2.2470	0	34.6390	4	27.672	0	1625.500	0	37.7	4	11.4	4	-1E+10	1	-1E+10	1	-1E+10	1	-1E+10	1	-1E+10	1	-1E+10	1
4901784	63	C	03/26/2017	10:44	-132.163	43.917	0	1650.60	0	2.2420	0	34.6400	4	27.673	0	1630.913	0	38.0	4	11.5	4	-1E+10	1	-1E+10	1	-1E+10	1	-1E+10	1	-1E+10	1	-1E+10	1
4901784	63	C	03/26/2017	10:44	-132.163	43.917	0	1655.20	0	2.2390	0	34.6400	4	27.673	0	1635.441	0	38.3	4	11.6	4	-1E+10	1	-1E+10	1	-1E+10	1	-1E+10	1	-1E+10	1	-1E+10	1
4901784	63	C	03/26/2017	10:44	-132.163	43.917	0	1659.90	0	2.2310	0	34.6410	4	27.675	0	1640.066	0	38.8	4	11.8	4	-1E+10	1	-1E+10	1	-1E+10	1	-1E+10	1	-1E+10	1	-1E+10	1
4901784	63	C	03/26/2017	10:44	-132.163	43.917	0	1665.50	0	2.2170	0	34.6430	4	27.677	0	1645.578	0	39.4	4	11.9	4	-1E+10	1	-1E+10	1	-1E+10	1	-1E+10	1	-1E+10	1	-1E+10	1
4901784	63	C	03/26/2017	10:44	-132.163	43.917	0	1669.60	0	2.2120	0	34.6450	4	27.679	0	1649.613	0	39.7	4	12.0	4	-1E+10	1	-1E+10	1	-1E+10	1	-1E+10	1	-1E+10	1	-1E+10	1
4901784	63	C	03/26/2017	10:44	-132.163	43.917	0	1674.40	0	2.2060	0	34.6460	4	27.681	0	1654.337	0	40.0	4	12.1	4	-1E+10	1	-1E+10	1	-1E+10	1	-1E+10	1	-1E+10	1	-1E+10	1
4901784	63	C	03/26/2017	10:44	-132.163	43.917	0	1680.10	0	2.2000	0	34.6470	4	27.682	0	1659.946	0	40.3	4	12.2	4	-1E+10	1	-1E+10	1	-1E+10	1	-1E+10	1	-1E+10	1	-1E+10	1
4901784	63	C	03/26/2017	10:44	-132.163	43.917	0	1685.80	0	2.1970	0	34.6470	4	27.682	0	1665.555	0	40.5	4	12.3	4	-1E+10	1	-1E+10	1	-1E+10	1	-1E+10	1	-1E+10	1	-1E+10	1
4901784	63	C	03/26/2017	10:44	-132.163	43.917	0	1690.80	0	2.1940	0	34.6480	4	27.683	0	1670.476	0	40.7	4	12.3	4	-1E+10	1	-1E+10	1	-1E+10	1	-1E+10	1	-1E+10	1	-1E+10	1
4901784	63	C	03/26/2017	10:44	-132.163	43.917	0	1695.70	0	2.1900	0	34.6490	4	27.684	0	1675.297	0	40.9	4	12.4	4	-1E+10	1	-1E+10	1	-1E+10	1	-1E+10	1	-1E+10	1	-1E+10	1
4901784	63	C	03/26/2017	10:44	-132.163	43.917	0	1700.60	0	2.1880	0	34.6490	4	27.685	0	1680.119	0	41.1	4	12.5	4	-1E+10	1	-1E+10	1	-1E+10	1	-1E+10	1	-1E+10	1	-1E+10	1
4901784	63	C	03/26/2017	10:44	-132.163	43.917	0	1705.60	0	2.1850	0	34.6500	4	27.686	0	1685.039	0	41.3	4	12.5	4	-1E+10	1	-1E+10	1	-1E+10	1	-1E+10	1	-1E+10	1	-1E+10	1
4901784	63	C	03/26/2017	10:44	-132.163	43.917	0	1710.50	0	2.1810	0	34.6500	4	27.686	0	1689.860	0	41.5	4	12.6	4	-1E+10	1	-1E+10	1	-1E+10	1	-1E+10	1	-1E+10	1	-1E+10	1
4901784	63	C	03/26/2017	10:44	-132.163	43.917	0	1715.40	0	2.1770	0	34.6500	4	27.686	0	1694.682	0	41.7	4	12.6	4	-1E+10	1	-1E+10	1	-1E+10	1	-1E+10	1	-1E+10	1	-1E+10	1
4901784	63	C	03/26/2017	10:44	-132.163	43.917	0	1720.30	0	2.1740	0	34.6510	4	27.687	0	1699.503	0	41.8	4	12.7	4	-1E+10	1	-1E+10	1	-1E+10	1	-1E+10	1	-1E+10	1	-1E+10	1
4901784	63	C	03/26/2017	10:44	-132.163	43.917	0	1725.20	0	2.1730	0	34.6510	4	27.688	0	1704.324	0	42.0	4	12.7	4	-1E+10	1	-1E+10	1	-1E+10	1	-1E+10	1	-1E+10	1	-1E+10	1
4901784	63	C	03/26/2017	10:44	-132.163	43.917	0	1730.20	0	2.1660	0	34.6520	4	27.689	0	1709.243	0	42.4	4	12.8	4	-1E+10	1	-1E+10	1	-1E+10	1	-1E+10	1	-1E+10	1	-1E+10	1
4901784	63	C	03/26/2017	10:44	-132.163	43.917	0	1735.30	0	2.1620	0	34.6520	4	27.689	0	1714.261	0	42.7	4	12.9	4	-1E+10	1	-1E+10	1	-1E+10	1	-1E+10	1	-1E+10	1	-1E+10	1
4901784	63	C	03/26/2017	10:44	-132.163	43.917	0	1740.40	0	2.1530	0	34.6540	4	27.692	0	1719.278	0	43.0	4	13.0	4	-1E+10	1	-1E+10	1	-1E+10	1	-1E+10	1	-1E+10	1	-1E+10	1
4901784	63	C	03/26/2017	10:44	-132.163	43.917	0	1745.50	0	2.1490	0	34.6550	4	27.693	0	1724.296	0	43.2	4	13.1	4	-1E+10	1	-1E+10	1	-1E+10	1	-1E+10	1	-1E+10	1	-1E+10	1
4901784	63	C	03/26/2017	10:44	-132.163	43.917	0	1750.70	0	2.1470	0	34.6550	4	27.693	0	1729.411	0	43.5	4	13.2	4	-1E+10	1	-1E+10	1	-1E+10	1	-1E+10	1	-1E+10	1	-1E+10	1
4901784	63	C	03/26/2017	10:44	-132.163	43.917	0	1755.00	0	2.1440	0	34.6550	4	27.693	0	1733.642	0	43.7	4	13.2	4	-1E+10	1	-1E+10	1	-1E+10	1	-1E+10	1	-1E+10	1	-1E+10	1
4901784	63	C	03/26/2017	10:44	-132.163	43.917	0	1759.30	0	2.1390	0	34.6560	4	27.694	0	1737.872	0	44.1	4	13.4	4	-1E+10	1	-1E+10	1	-1E+10	1	-1E+10	1	-1E+10	1	-1E+10	1
4901784	63	C	03/26/2017	10:44	-132.163	43.917	0	1764.50	0	2.1290	0	34.6570	4	27.696	0	1742.987	0	44.6	4	13.5	4	-1E+10	1	-1E+10	1	-1E+10	1	-1E+10	1	-1E+10	1	-1E+10	1
4901784	63	C	03/26/2017	10:44	-132.163	43.917	0	1769.70	0	2.1240	0	34.6580	4	27.697	0	1748.102	0	44.9	4	13.6	4	-1E+10	1	-1E+10	1	-1E+10	1	-1E+10	1	-1E+10	1	-1E+10	1
4901784	63	C	03/26/2017	10:44	-132.163	43.917	0	1774.90	0	2.1200	0	34.6590	4	27.698	0	1753.217	0	45.1	4	13.7	4	-1E+10	1	-1E+10	1	-1E+10	1	-1E+10	1	-1E+10	1	-1E+10	1
4901784	63	C	03/26/2017	10:44	-132.163	43.917	0	1780.10	0	2.1160	0	34.6590	4	27.699	0	1758.332	0	45.5	4	13.8	4	-1E+10	1	-1E+10	1	-1E+10	1	-1E+10	1	-1E+10	1	-1E+10	1
4901784	63	C	03/26/2017	10:44	-132.163	43.917	0	1785.30	0	2.1080	0	34.6600	4	27.700	0	1763.447	0	46.0	4	13.9	4	-1E+10	1	-1E+10	1	-1E+10	1	-1E+10	1	-1E+10	1	-1E+10	1
4901784	63	C	03/26/2017	10:44	-132.163	43.917	0	1790.50	0	2.1010	0	34.6610	4	27.702	0	1768.562	0	46.3	4	14.0	4	-1E+10	1	-1E+10	1	-1E+10	1	-1E+10	1	-1E+10	1	-1E+10	1
4901784	63	C	03/26/2017	10:44	-132.163	43.917	0	1795.70	0	2.0950	0	34.6630	4	27.704	0	1773.676	0	46.7	4	14.1	4	-1E+10	1	-1E+10	1	-1E+10	1	-1E+10	1	-1E+10	1	-1E+10	1
4901784	63	C	03/26/2017	10:44	-132.163	43.917	0	1800.10	0	2.0930	0	34.6630	4	27.704	0	1778.004	0	46.8	4	14.2	4	-1E+10	1	-1E+10	1	-1E+10	1	-1E+10	1	-1E+10	1	-1E+10	1
4901784	63	C	03/26/2017	10:44	-132.163	43.917	0	1804.60	0	2.0920	0	34.6640	4	27.705	0	1782.430	0	47.0	4	14.2	4	-1E+10	1	-1E+10	1	-1E+10	1	-1E+10	1	-1E+10	1	-1E+10	1
4901784	63	C	03/26/2017	10:44	-132.163	43.917	0	1809.90	0	2.0900	0	34.6640	4	27.705	0	1787.643	0	47.2	4	14.3	4	-1E+10	1	-1E+10	1	-1E+10	1	-1E+10	1	-1E+10	1	-1E+10	1
4901784	63	C	03/26/2017	10:44	-132.163	43.917	0	1815.20	0	2.0870	0	34.6640	4	27.705	0	1792.855	0	47.4	4	14.3	4	-1E+10	1	-1E+10	1	-1E+10	1	-1E+10	1	-1E+10	1	-1E+10	1
4901784	63	C	03/26/2017	10:44	-132.163	43.917	0	1820.60	0	2.0840	0	34.6640	4	27.706	0	1798.166	0	47.9	4	14.5	4	-1E+10	1	-1E+10	1	-1E+10	1	-1E+10	1	-1E+10	1	-1E+10	1
4901784	63	C	03/26/2017	10:44	-132.163	43.917	0	1825.10	0	2.0760	0	34.6660	4	27.708	0	1802.591	0	48.4	4	14.6	4	-1E+10	1	-1E+10	1	-1E+10	1	-1E+10	1	-1E+10	1	-1E+10	1
4901784	63	C	03/26/2017	10:44	-132.163	43.917	0	1829.50	0	2.0720	0	34.6670	4	27.709	0	1806.918	0	48.8	4	14.8	4	-1E+10	1	-1E+10	1	-1E+10	1	-1E+10	1	-1E+10	1	-1E+10	1
4901784	63	C	03/26/2017	10:44	-132.163	43.917	0	1834.90	0	2.0620	0	34.6690	4	27.711	0	1812.229	0	49.5	4	15.0	4	-1E+10	1	-1E+10	1	-1E+10	1	-1E+10	1	-1E+10	1	-1E+10	1
4901784	63	C	03/26/2017	10:44	-132.163	43.917	0	1840.30	0	2.0540	0	34.6700	4	27.713	0	1817.539	0	49.9	4	15.1	4	-1E+10	1	-1E+10	1	-1E+10	1	-1E+10	1	-1E+10	1	-1E+10	1
4901784	63	C	03/26/2017	10:44	-132.163	43.917	0	1845.60	0	2.0460	0	34.6710	4	27.714	0	1822.750	0	50.3	4	15.2	4	-1E+10	1	-1E+10	1	-1E+10	1	-1E+10	1	-1E+10	1	-1E+10	1
4901784	63	C	03/26/2017	10:44	-132.163	43.917	0	1850.10	0	2.0410	0	34.6720	4	27.716	0	1827.175	0	50.5	4	15.3	4	-1E+10	1	-1E+10	1	-1E+10	1	-1E+10	1	-1E+10	1	-1E+10	1
4901784	63	C	03/26/2017	10:44	-132.163	43.917	0	1854.60	0	2.0390	0	34.6720	4	27.716	0	1831.600	0	50.7	4	15.3	4	-1E+10	1	-1E+10	1	-1E+10	1	-1E+10	1	-1E+10	1	-1E+10	1
4901784	63	C	03/26/2017	10:44	-132.163	43.917	0	1860.00	0	2.0350	0	34.6720	4	27.716	0	1836.910	0	51.0	4	15.4	4	-1E+10	1	-1E+10	1	-1E+10	1	-1E+10	1	-1E+10	1	-1E+10	1
4901784	63	C	03/26/2017	10:44	-132.163	43.917	0	1865.40	0	2.0300	0	34.6730	4	27.717	0	1842.220	0	51.2	4	15.5	4	-1E+10	1	-1E+10	1	-1E+10	1	-1E+10	1	-1E+10	1	-1E+10	1
4901784	63	C	03/26/2017	10:44	-132.163	43.917	0	1869.90	0	2.0260	0	34.6740	4	27.718	0	1846.644	0	51.4	4	15.5	4	-1E+10	1	-1E+10	1	-1E+10	1	-1E+10	1	-1E+10	1	-1E+10	1
4901784	63	C	03/26/2017	10:44	-132.163	43.917	0	1874.50	0	2.0240	0	34.6740	4	27.719	0	1851.167	0	51.6	4	15.6	4	-1E+10	1	-1E+10	1	-1E+10	1	-1E+10	1	-1E+10	1	-1E+10	1
4901784	63	C	03/26/2017	10:44	-132.163	43.917	0	1880.00	0	2.0220	0	34.6740	4	27.719	0	1856.575	0	51.8	4	15.6	4	-1E+10	1	-1E+10	1	-1E+10	1	-1E+10	1	-1E+10	1	-1E+10	1
4901784	63	C	03/26/2017	10:44	-132.163	43.917	0	1885.40	0	2.0180	0	34.6750	4	27.720	0	1861.884	0	52.2	4	15.8	4	-1E+10	1	-1E+10	1	-1E+10	1	-1E+10	1	-1E+10	1	-1E+10	1
4901784	63	C	03/26/2017	10:44	-132.163	43.917	0	1890.00	0	2.0130	0	34.6750	4	27.720	0	1866.406	0	52.6	4	15.9	4	-1E+10	1	-1E+10	1	-1E+10	1	-1E+10	1	-1E+10	1	-1E+10	1
4901784	63	C	03/26/2017	10:44	-132.163	43.917	0	1894.50	0	2.0050	0	34.6770	4	27.723	0	1870.830	0	53.0	4	16.0	4	-1E+10	1	-1E+10	1	-1E+10	1	-1E+10	1	-1E+10	1	-1E+10	1
4901784	63	C	03/26/2017	10:44	-132.163	43.917	0	1900.00	0	2.0010	0	34.6780	4	27.724	0	1876.237	0	53.3	4	16.1	4	-1E+10	1	-1E+10	1	-1E+10	1	-1E+10	1	-1E+10	1	-1E+10	1
4901784	63	C	03/26/2017	10:44	-132.163	43.917	0	1905.50	0	1.9970	0	34.6780	4	27.724	0	1881.644	0	53.5	4	16.2	4	-1E+10	1	-1E+10	1	-1E+10	1	-1E+10	1	-1E+10	1	-1E+10	1
4901784	63	C	03/26/2017	10:44	-132.163	43.917	0	1910.00	0	1.9950	0	34.6780	4	27.724	0	1886.068	0	53.7	4	16.2	4	-1E+10	1	-1E+10	1	-1E+10	1	-1E+10	1	-1E+10	1	-1E+10	1
4901784	63	C	03/26/2017	10:44	-132.163	43.917	0	1914.50	0	1.9920	0	34.6790	4	27.725	0	1890.491	0	54.0	4	16.3	4	-1E+10	1	-1E+10	1	-1E+10	1	-1E+10	1	-1E+10	1	-1E+10	1
4901784	63	C	03/26/2017	10:44	-132.163	43.917	0	1920.00	0	1.9890	0	34.6800	4	27.726	0	1895.898	0	54.3	4	16.4	4	-1E+10	1	-1E+10	1	-1E+10	1	-1E+10	1	-1E+10	1	-1E+10	1
4901784	63	C	03/26/2017	10:44	-132.163	43.917	0	1925.50	0	1.9820	0	34.6800	4	27.727	0	1901.304	0	54.8	4	16.5	4	-1E+10	1	-1E+10	1	-1E+10	1	-1E+10	1	-1E+10	1	-1E+10	1
4901784	63	C	03/26/2017	10:44	-132.163	43.917	0	1930.10	0	1.9750	0	34.6820	4	27.729	0	1905.826	0	55.2	4	16.7	4	-1E+10	1	-1E+10	1	-1E+10	1	-1E+10	1	-1E+10	1	-1E+10	1
4901784	63	C	03/26/2017	10:44	-132.163	43.917	0	1934.80	0	1.9710	0	34.6820	4	27.729	0	1910.446	0	55.5	4	16.7	4	-1E+10	1	-1E+10	1	-1E+10	1	-1E+10	1	-1E+10	1	-1E+10	1
4901784	63	C	03/26/2017	10:44	-132.163	43.917	0	1940.30	0	1.9660	0	34.6830	4	27.731	0	1915.852	0	55.8	4	16.8	4	-1E+10	1	-1E+10	1	-1E+10	1	-1E+10	1	-1E+10	1	-1E+10	1
4901784	63	C	03/26/2017	10:44	-132.163	43.917	0	1944.90	0	1.9640	0	34.6840	4	27.732	0	1920.373	0	56.0	4	16.9	4	-1E+10	1	-1E+10	1	-1E+10	1	-1E+10	1	-1E+10	1	-1E+10	1
4901784	63	C	03/26/2017	10:44	-132.163	43.917	0	1950.20	0	1.9610	0	34.6840	4	27.732	0	1925.582	0	56.3	4	17.0	4	-1E+10	1	-1E+10	1	-1E+10	1	-1E+10	1	-1E+10	1	-1E+10	1
4901784	63	C	03/26/2017	10:44	-132.163	43.917	0	1955.20	0	1.9580	0	34.6840	4	27.732	0	1930.497	0	56.5	4	17.0	4	-1E+10	1	-1E+10	1	-1E+10	1	-1E+10	1	-1E+10	1	-1E+10	1
4901784	63	C	03/26/2017	10:44	-132.163	43.917	0	1960.10	0	1.9550	0	34.6850	4	27.733	0	1935.312	0	56.7	4	17.1	4	-1E+10	1	-1E+10	1	-1E+10	1	-1E+10	1	-1E+10	1	-1E+10	1
4901784	63	C	03/26/2017	10:44	-132.163	43.917	0	1965.00	0	1.9540	0	34.6850	4	27.733	0	1940.128	0	56.9	4	17.1	4	-1E+10	1	-1E+10	1	-1E+10	1	-1E+10	1	-1E+10	1	-1E+10	1
4901784	63	C	03/26/2017	10:44	-132.163	43.917	0	1969.80	0	1.9510	0	34.6860	4	27.734	0	1944.846	0	57.1	4	17.2	4	-1E+10	1	-1E+10	1	-1E+10	1	-1E+10	1	-1E+10	1	-1E+10	1
4901784	63	C	03/26/2017	10:44	-132.163	43.917	0	1974.80	0	1.9470	0	34.6860	4	27.735	0	1949.759	0	57.4	4	17.3	4	-1E+10	1	-1E+10	1	-1E+10	1	-1E+10	1	-1E+10	1	-1E+10	1
4901784	63	C	03/26/2017	10:44	-132.163	43.917	0	1979.70	0	1.9450	0	34.6870	4	27.736	0	1954.575	0	57.7	4	17.4	4	-1E+10	1	-1E+10	1	-1E+10	1	-1E+10	1	-1E+10	1	-1E+10	1
4901784	63	C	03/26/2017	10:44	-132.163	43.917	0	1984.60	0	1.9410	0	34.6870	4	27.736	0	1959.390	0	58.1	4	17.5	4	-1E+10	1	-1E+10	1	-1E+10	1	-1E+10	1	-1E+10	1	-1E+10	1
4901784	63	C	03/26/2017	10:44	-132.163	43.917	0	1989.50	0	1.9350	0	34.6880	4	27.737	0	1964.205	0	58.5	4	17.6	4	-1E+10	1	-1E+10	1	-1E+10	1	-1E+10	1	-1E+10	1	-1E+10	1
4901784	63	C	03/26/2017	10:44	-132.163	43.917	0	1994.40	0	1.9310	0	34.6890	4	27.738	0	1969.020	0	58.8	4	17.7	4	-1E+10	1	-1E+10	1	-1E+10	1	-1E+10	1	-1E+10	1	-1E+10	1
4901784	63	C	03/26/2017	10:44	-132.163	43.917	0	1999.30	0	1.9260	0	34.6900	4	27.740	0	1973.835	0	59.2	4	17.8	4	-1E+10	1	-1E+10	1	-1E+10	1	-1E+10	1	-1E+10	1	-1E+10	1
4901784	63	C	03/26/2017	10:44	-132.163	43.917	0	2004.20	0	1.9200	0	34.6910	4	27.741	0	1978.650	0	59.6	4	17.9	4	-1E+10	1	-1E+10	1	-1E+10	1	-1E+10	1	-1E+10	1	-1E+10	1
4901784	63	C	03/26/2017	10:44	-132.163	43.917	0	2009.70	0	1.9180	0	34.6920	4	27.742	0	1984.054	0	59.8	4	18.0	4	-1E+10	1	-1E+10	1	-1E+10	1	-1E+10	1	-1E+10	1	-1E+10	1
4901784	63	C	03/26/2017	10:44	-132.163	43.917	0	2014.90	0	1.9150	0	34.6920	4	27.742	0	1989.164	0	60.1	4	18.1	4	-1E+10	1	-1E+10	1	-1E+10	1	-1E+10	1	-1E+10	1	-1E+10	1
4901784	63	C	03/26/2017	10:44	-132.163	43.917	0	2020.00	0	1.9110	0	34.6930	4	27.743	0	1994.175	0	60.4	4	18.2	4	-1E+10	1	-1E+10	1	-1E+10	1	-1E+10	1	-1E+10	1	-1E+10	1
4901784	63	C	03/26/2017	10:44	-132.163	43.917	0																										
4901784	64	C	04/05/2017	10:45	-132.248	43.837	0	2.00	0	8.9850	0	32.8790	4	25.460	0	1.984	0	278.4	4	97.7	4	-1E+10	1	-1E+10	1	-1E+10	1	-1E+10	1	-1E+10	1	-1E+10	1
4901784	64	C	04/05/2017	10:45	-132.248	43.837	0	3.20	0	8.9860	0	32.8790	4	25.460	0	3.174	0	278.1	4	97.6	4	-1E+10	1	-1E+10	1	-1E+10	1	-1E+10	1	-1E+10	1	-1E+10	1
4901784	64	C	04/05/2017	10:45	-132.248	43.837	0	4.50	0	8.9870	0	32.8790	4	25.460	0	4.464	0	278.2	4	97.6	4	-1E+10	1	-1E+10	1	-1E+10	1	-1E+10	1	-1E+10	1	-1E+10	1
4901784	64	C	04/05/2017	10:45	-132.248	43.837	0	5.70	0	8.9860	0	32.8790	4	25.460	0	5.654	0	278.2	4	97.6	4	-1E+10	1	-1E+10	1	-1E+10	1	-1E+10	1	-1E+10	1	-1E+10	1
4901784	64	C	04/05/2017	10:45	-132.248	43.837	0	7.10	0	8.9860	0	32.8790	4	25.460	0	7.043	0	278.3	4	97.6	4	-1E+10	1	-1E+10	1	-1E+10	1	-1E+10	1	-1E+10	1	-1E+10	1
4901784	64	C	04/05/2017	10:45	-132.248	43.837	0	8.50	0	8.9900	0	32.8790	4	25.460	0	8.432	0	278.3	4	97.6	4	-1E+10	1	-1E+10	1	-1E+10	1	-1E+10	1	-1E+10	1	-1E+10	1
4901784	64	C	04/05/2017	10:45	-132.248	43.837	0	10.10	0	8.9900	0	32.8790	4	25.460	0	10.019	0	278.3	4	97.7	4	-1E+10	1	-1E+10	1	-1E+10	1	-1E+10	1	-1E+10	1	-1E+10	1
4901784	64	C	04/05/2017	10:45	-132.248	43.837	0	11.80	0	8.9890	0	32.8790	4	25.460	0	11.705	0	278.1	4	97.6	4	-1E+10	1	-1E+10	1	-1E+10	1	-1E+10	1	-1E+10	1	-1E+10	1
4901784	64	C	04/05/2017	10:45	-132.248	43.837	0	13.40	0	8.9890	0	32.8790	4	25.460	0	13.292	0	278.1	4	97.6	4	-1E+10	1	-1E+10	1	-1E+10	1	-1E+10	1	-1E+10	1	-1E+10	1
4901784	64	C	04/05/2017	10:45	-132.248	43.837	0	15.10	0	8.9880	0	32.8790	4	25.460	0	14.978	0	278.2	4	97.6	4	-1E+10	1	-1E+10	1	-1E+10	1	-1E+10	1	-1E+10	1	-1E+10	1
4901784	64	C	04/05/2017	10:45	-132.248	43.837	0	16.90	0	8.9890	0	32.8790	4	25.460	0	16.764	0	278.2	4	97.6	4	-1E+10	1	-1E+10	1	-1E+10	1	-1E+10	1	-1E+10	1	-1E+10	1
4901784	64	C	04/05/2017	10:45	-132.248	43.837	0	18.80	0	8.9900	0	32.8790	4	25.460	0	18.649	0	278.2	4	97.6	4	-1E+10	1	-1E+10	1	-1E+10	1	-1E+10	1	-1E+10	1	-1E+10	1
4901784	64	C	04/05/2017	10:45	-132.248	43.837	0	20.60	0	8.9910	0	32.8780	4	25.459	0	20.434	0	278.1	4	97.6	4	-1E+10	1	-1E+10	1	-1E+10	1	-1E+10	1	-1E+10	1	-1E+10	1
4901784	64	C	04/05/2017	10:45	-132.248	43.837	0	22.40	0	8.9920	0	32.8790	4	25.460	0	22.219	0	278.1	4	97.6	4	-1E+10	1	-1E+10	1	-1E+10	1	-1E+10	1	-1E+10	1	-1E+10	1
4901784	64	C	04/05/2017	10:45	-132.248	43.837	0	24.50	0	8.9920	0	32.8790	4	25.460	0	24.302	0	278.1	4	97.6	4	-1E+10	1	-1E+10	1	-1E+10	1	-1E+10	1	-1E+10	1	-1E+10	1
4901784	64	C	04/05/2017	10:45	-132.248	43.837	0	26.40	0	8.9920	0	32.8790	4	25.460	0	26.187	0	278.2	4	97.6	4	-1E+10	1	-1E+10	1	-1E+10	1	-1E+10	1	-1E+10	1	-1E+10	1
4901784	64	C	04/05/2017	10:45	-132.248	43.837	0	28.40	0	8.9910	0	32.8780	4	25.459	0	28.171	0	278.1	4	97.6	4	-1E+10	1	-1E+10	1	-1E+10	1	-1E+10	1	-1E+10	1	-1E+10	1
4901784	64	C	04/05/2017	10:45	-132.248	43.837	0	30.40	0	8.9910	0	32.8790	4	25.460	0	30.154	0	278.1	4	97.6	4	-1E+10	1	-1E+10	1	-1E+10	1	-1E+10	1	-1E+10	1	-1E+10	1
4901784	64	C	04/05/2017	10:45	-132.248	43.837	0	32.10	0	8.9900	0	32.8790	4	25.460	0	31.840	0	278.1	4	97.6	4	-1E+10	1	-1E+10	1	-1E+10	1	-1E+10	1	-1E+10	1	-1E+10	1
4901784	64	C	04/05/2017	10:45	-132.248	43.837	0	33.80	0	8.9910	0	32.8790	4	25.460	0	33.526	0	278.0	4	97.5	4	-1E+10	1	-1E+10	1	-1E+10	1	-1E+10	1	-1E+10	1	-1E+10	1
4901784	64	C	04/05/2017	10:45	-132.248	43.837	0	35.70	0	8.9930	0	32.8790	4	25.460	0	35.411	0	278.1	4	97.6	4	-1E+10	1	-1E+10	1	-1E+10	1	-1E+10	1	-1E+10	1	-1E+10	1
4901784	64	C	04/05/2017	10:45	-132.248	43.837	0	37.50	0	8.9940	0	32.8790	4	25.459	0	37.196	0	278.0	4	97.6	4	-1E+10	1	-1E+10	1	-1E+10	1	-1E+10	1	-1E+10	1	-1E+10	1
4901784	64	C	04/05/2017	10:45	-132.248	43.837	0	39.40	0	8.9950	0	32.8790	4	25.459	0	39.081	0	278.1	4	97.6	4	-1E+10	1	-1E+10	1	-1E+10	1	-1E+10	1	-1E+10	1	-1E+10	1
4901784	64	C	04/05/2017	10:45	-132.248	43.837	0	41.20	0	8.9940	0	32.8790	4	25.460	0	40.866	0	278.0	4	97.5	4	-1E+10	1	-1E+10	1	-1E+10	1	-1E+10	1	-1E+10	1	-1E+10	1
4901784	64	C	04/05/2017	10:45	-132.248	43.837	0	43.00	0	8.9940	0	32.8790	4	25.460	0	42.651	0	278.1	4	97.6	4	-1E+10	1	-1E+10	1	-1E+10	1	-1E+10	1	-1E+10	1	-1E+10	1
4901784	64	C	04/05/2017	10:45	-132.248	43.837	0	44.80	0	8.9940	0	32.8790	4	25.460	0	44.436	0	278.0	4	97.5	4	-1E+10	1	-1E+10	1	-1E+10	1	-1E+10	1	-1E+10	1	-1E+10	1
4901784	64	C	04/05/2017	10:45	-132.248	43.837	0	47.20	0	8.9940	0	32.8790	4	25.460	0	46.817	0	278.0	4	97.5	4	-1E+10	1	-1E+10	1	-1E+10	1	-1E+10	1	-1E+10	1	-1E+10	1
4901784	64	C	04/05/2017	10:45	-132.248	43.837	0	49.00	0	8.9950	0	32.8780	4	25.459	0	48.602	0	277.9	4	97.5	4	-1E+10	1	-1E+10	1	-1E+10	1	-1E+10	1	-1E+10	1	-1E+10	1
4901784	64	C	04/05/2017	10:45	-132.248	43.837	0	50.60	0	8.9940	0	32.8790	4	25.460	0	50.188	0	277.9	4	97.5	4	-1E+10	1	-1E+10	1	-1E+10	1	-1E+10	1	-1E+10	1	-1E+10	1
4901784	64	C	04/05/2017	10:45	-132.248	43.837	0	52.20	0	8.9940	0	32.8790	4	25.460	0	51.775	0	277.8	4	97.5	4	-1E+10	1	-1E+10	1	-1E+10	1	-1E+10	1	-1E+10	1	-1E+10	1
4901784	64	C	04/05/2017	10:45	-132.248	43.837	0	53.70	0	8.9940	0	32.8780	4	25.459	0	53.263	0	277.8	4	97.5	4	-1E+10	1	-1E+10	1	-1E+10	1	-1E+10	1	-1E+10	1	-1E+10	1
4901784	64	C	04/05/2017	10:45	-132.248	43.837	0	55.30	0	8.9950	0	32.8790	4	25.460	0	54.850	0	277.6	4	97.4	4	-1E+10	1	-1E+10	1	-1E+10	1	-1E+10	1	-1E+10	1	-1E+10	1
4901784	64	C	04/05/2017	10:45	-132.248	43.837	0	56.90	0	8.9950	0	32.8780	4	25.459	0	56.436	0	277.6	4	97.4	4	-1E+10	1	-1E+10	1	-1E+10	1	-1E+10	1	-1E+10	1	-1E+10	1
4901784	64	C	04/05/2017	10:45	-132.248	43.837	0	58.50	0	8.9950	0	32.8790	4	25.460	0	58.023	0	277.4	4	97.3	4	-1E+10	1	-1E+10	1	-1E+10	1	-1E+10	1	-1E+10	1	-1E+10	1
4901784	64	C	04/05/2017	10:45	-132.248	43.837	0	60.00	0	8.9950	0	32.8790	4	25.460	0	59.511	0	277.1	4	97.2	4	-1E+10	1	-1E+10	1	-1E+10	1	-1E+10	1	-1E+10	1	-1E+10	1
4901784	64	C	04/05/2017	10:45	-132.248	43.837	0	61.50	0	8.9960	0	32.8780	4	25.459	0	60.998	0	276.9	4	97.2	4	-1E+10	1	-1E+10	1	-1E+10	1	-1E+10	1	-1E+10	1	-1E+10	1
4901784	64	C	04/05/2017	10:45	-132.248	43.837	0	62.90	0	8.9950	0	32.8780	4	25.459	0	62.387	0	276.5	4	97.0	4	-1E+10	1	-1E+10	1	-1E+10	1	-1E+10	1	-1E+10	1	-1E+10	1
4901784	64	C	04/05/2017	10:45	-132.248	43.837	0	64.40	0	8.9870	0	32.8840	4	25.465	0	63.874	0	276.0	4	96.8	4	-1E+10	1	-1E+10	1	-1E+10	1	-1E+10	1	-1E+10	1	-1E+10	1
4901784	64	C	04/05/2017	10:45	-132.248	43.837	0	66.10	0	8.9780	0	32.8910	4	25.472	0	65.560	0	275.6	4	96.7	4	-1E+10	1	-1E+10	1	-1E+10	1	-1E+10	1	-1E+10	1	-1E+10	1
4901784	64	C	04/05/2017	10:45	-132.248	43.837	0	67.80	0	8.9600	0	32.9180	4	25.496	0	67.246	0	274.9	4	96.4	4	-1E+10	1	-1E+10	1	-1E+10	1	-1E+10	1	-1E+10	1	-1E+10	1
4901784	64	C	04/05/2017	10:45	-132.248	43.837	0	69.40	0	8.9860	0	32.9770	4	25.538	0	68.832	0	274.0	4	96.2	4	-1E+10	1	-1E+10	1	-1E+10	1	-1E+10	1	-1E+10	1	-1E+10	1
4901784	64	C	04/05/2017	10:45	-132.248	43.837	0	71.10	0	8.9840	0	32.9810	4	25.541	0	70.518	0	273.7	4	96.1	4	-1E+10	1	-1E+10	1	-1E+10	1	-1E+10	1	-1E+10	1	-1E+10	1
4901784	64	C	04/05/2017	10:45	-132.248	43.837	0	72.80	0	8.9770	0	32.9820	4	25.543	0	72.204	0	272.8	4	95.8	4	-1E+10	1	-1E+10	1	-1E+10	1	-1E+10	1	-1E+10	1	-1E+10	1
4901784	64	C	04/05/2017	10:45	-132.248	43.837	0	74.50	0	8.9700	0	32.9780	4	25.541	0	73.890	0	272.4	4	95.6	4	-1E+10	1	-1E+10	1	-1E+10	1	-1E+10	1	-1E+10	1	-1E+10	1
4901784	64	C	04/05/2017	10:45	-132.248	43.837	0	76.20	0	8.8340	0	32.9760	4	25.561	0	75.576	0	272.0	4	95.2	4	-1E+10	1	-1E+10	1	-1E+10	1	-1E+10	1	-1E+10	1	-1E+10	1
4901784	64	C	04/05/2017	10:45	-132.248	43.837	0	78.00	0	8.8000	0	32.9800	4	25.569	0	77.361	0	272.5	4	95.3	4	-1E+10	1	-1E+10	1	-1E+10	1	-1E+10	1	-1E+10	1	-1E+10	1
4901784	64	C	04/05/2017	10:45	-132.248	43.837	0	79.80	0	8.7850	0	32.9800	4	25.572	0	79.145	0	272.5	4	95.2	4	-1E+10	1	-1E+10	1	-1E+10	1	-1E+10	1	-1E+10	1	-1E+10	1
4901784	64	C	04/05/2017	10:45	-132.248	43.837	0	81.60	0	8.7740	0	32.9790	4	25.573	0	80.930	0	272.4	4	95.2	4	-1E+10	1	-1E+10	1	-1E+10	1	-1E+10	1	-1E+10	1	-1E+10	1
4901784	64	C	04/05/2017	10:45	-132.248	43.837	0	83.40	0	8.7210	0	32.9800	4	25.581	0	82.715	0	272.3	4	95.1	4	-1E+10	1	-1E+10	1	-1E+10	1	-1E+10	1	-1E+10	1	-1E+10	1
4901784	64	C	04/05/2017	10:45	-132.248	43.837	0	85.30	0	8.6360	0	32.9810	4	25.595	0	84.599	0	272.5	4	94.9	4	-1E+10	1	-1E+10	1	-1E+10	1	-1E+10	1	-1E+10	1	-1E+10	1
4901784	64	C	04/05/2017	10:45	-132.248	43.837	0	87.00	0	8.5950	0	32.9850	4	25.605	0	86.285	0	272.6	4	94.9	4	-1E+10	1	-1E+10	1	-1E+10	1	-1E+10	1	-1E+10	1	-1E+10	1
4901784	64	C	04/05/2017	10:45	-132.248	43.837	0	88.80	0	8.5860	0	32.9870	4	25.608	0	88.070	0	272.2	4	94.7	4	-1E+10	1	-1E+10	1	-1E+10	1	-1E+10	1	-1E+10	1	-1E+10	1
4901784	64	C	04/05/2017	10:45	-132.248	43.837	0	90.70	0	8.5760	0	32.9870	4	25.609	0	89.954	0	271.8	4	94.6	4	-1E+10	1	-1E+10	1	-1E+10	1	-1E+10	1	-1E+10	1	-1E+10	1
4901784	64	C	04/05/2017	10:45	-132.248	43.837	0	92.50	0	8.5740	0	32.9940	4	25.615	0	91.738	0	270.9	4	94.3	4	-1E+10	1	-1E+10	1	-1E+10	1	-1E+10	1	-1E+10	1	-1E+10	1
4901784	64	C	04/05/2017	10:45	-132.248	43.837	0	94.30	0	8.5720	0	32.9950	4	25.616	0	93.523	0	270.1	4	94.0	4	-1E+10	1	-1E+10	1	-1E+10	1	-1E+10	1	-1E+10	1	-1E+10	1
4901784	64	C	04/05/2017	10:45	-132.248	43.837	0	96.10	0	8.5690	0	32.9960	4	25.617	0	95.308	0	269.0	4	93.6	4	-1E+10	1	-1E+10	1	-1E+10	1	-1E+10	1	-1E+10	1	-1E+10	1
4901784	64	C	04/05/2017	10:45	-132.248	43.837	0	97.90	0	8.5740	0	32.9990	4	25.619	0	97.093	0	267.6	4	93.1	4	-1E+10	1	-1E+10	1	-1E+10	1	-1E+10	1	-1E+10	1	-1E+10	1
4901784	64	C	04/05/2017	10:45	-132.248	43.837	0	99.80	0	8.5720	0	33.0110	4	25.629	0	98.977	0	265.9	4	92.5	4	-1E+10	1	-1E+10	1	-1E+10	1	-1E+10	1	-1E+10	1	-1E+10	1
4901784	64	C	04/05/2017	10:45	-132.248	43.837	0	102.50	0	8.5570	0	33.0180	4	25.637	0	101.654	0	263.0	4	91.5	4	-1E+10	1	-1E+10	1	-1E+10	1	-1E+10	1	-1E+10	1	-1E+10	1
4901784	64	C	04/05/2017	10:45	-132.248	43.837	0	105.40	0	8.5290	0	33.0290	4	25.649	0	104.529	0	259.0	4	90.0	4	-1E+10	1	-1E+10	1	-1E+10	1	-1E+10	1	-1E+10	1	-1E+10	1
4901784	64	C	04/05/2017	10:45	-132.248	43.837	0	107.30	0	8.5370	0	33.0460	4	25.662	0	106.413	0	255.6	4	88.9	4	-1E+10	1	-1E+10	1	-1E+10	1	-1E+10	1	-1E+10	1	-1E+10	1
4901784	64	C	04/05/2017	10:45	-132.248	43.837	0	110.10	0	8.6120	0	33.1020	4	25.694	0	109.189	0	249.5	4	87.0	4	-1E+10	1	-1E+10	1	-1E+10	1	-1E+10	1	-1E+10	1	-1E+10	1
4901784	64	C	04/05/2017	10:45	-132.248	43.837	0	112.90	0	8.7160	0	33.1410	4	25.709	0	111.965	0	242.9	4	84.9	4	-1E+10	1	-1E+10	1	-1E+10	1	-1E+10	1	-1E+10	1	-1E+10	1
4901784	64	C	04/05/2017	10:45	-132.248	43.837	0	114.70	0	8.7050	0	33.2060	4	25.761	0	113.750	0	238.8	4	83.4	4	-1E+10	1	-1E+10	1	-1E+10	1	-1E+10	1	-1E+10	1	-1E+10	1
4901784	64	C	04/05/2017	10:45	-132.248	43.837	0	117.50	0	8.7210	0	33.2520	4	25.795	0	116.526	0	232.8	4	81.4	4	-1E+10	1	-1E+10	1	-1E+10	1	-1E+10	1	-1E+10	1	-1E+10	1
4901784	64	C	04/05/2017	10:45	-132.248	43.837	0	120.70	0	8.7300	0	33.3380	4	25.861	0	119.698	0	225.7	4	79.0	4	-1E+10	1	-1E+10	1	-1E+10	1	-1E+10	1	-1E+10	1	-1E+10	1
4901784	64	C	04/05/2017	10:45	-132.248	43.837	0	122.40	0	8.7420	0	33.3970	4	25.906	0	121.383	0	221.8	4	77.7	4	-1E+10	1	-1E+10	1	-1E+10	1	-1E+10	1	-1E+10	1	-1E+10	1
4901784	64	C	04/05/2017	10:45	-132.248	43.837	0	124.60	0	8.7540	0	33.4500	4	25.945	0	123.565	0	217.2	4	76.1	4	-1E+10	1	-1E+10	1	-1E+10	1	-1E+10	1	-1E+10	1	-1E+10	1
4901784	64	C	04/05/2017	10:45	-132.248	43.837	0	127.50	0	8.7670	0	33.5240	4	26.001	0	126.440	0	211.2	4	74.1	4	-1E+10	1	-1E+10	1	-1E+10	1	-1E+10	1	-1E+10	1	-1E+10	1
4901784	64	C	04/05/2017	10:45	-132.248	43.837	0	129.80	0	8.7720	0	33.5640	4	26.032	0	128.720	0	207.7	4	72.9	4	-1E+10	1	-1E+10	1	-1E+10	1	-1E+10	1	-1E+10	1	-1E+10	1
4901784	64	C	04/05/2017	10:45	-132.248	43.837	0	132.20	0	8.7730	0	33.5980	4	26.058	0	131.099	0	203.8	4	71.5	4	-1E+10	1	-1E+10	1	-1E+10	1	-1E+10	1	-1E+10	1	-1E+10	1
4901784	64	C	04/05/2017	10:45	-132.248	43.837	0	135.30	0	8.7660	0	33.6890	4	26.131	0	134.172	0	198.6	4	69.7	4	-1E+10	1	-1E+10	1	-1E+10	1	-1E+10	1	-1E+10	1	-1E+10	1
4901784	64	C	04/05/2017	10:45	-132.248	43.837	0	137.60	0	8.7590	0	33.7440	4	26.175	0	136.452	0	195.4	4	68.6	4	-1E+10	1	-1E+10	1	-1E+10	1	-1E+10	1	-1E+10	1	-1E+10	1
4901784	64	C	04/05/2017	10:45	-132.248	43.837	0	140.10	0	8.7410	0	33.7970	4	26.219	0	138.931	0	192.9	4	67.7	4	-1E+10	1	-1E+10	1	-1E+10	1	-1E+10	1	-1E+10	1	-1E+10	1
4901784	64	C	04/05/2017	10:45	-132.248	43.837	0	142.40	0	8.7270	0	33.8280	4	26.246	0	141.211	0	190.6	4	66.9	4	-1E+10	1	-1E+10	1	-1E+10	1	-1E+10	1	-1E+10	1	-1E+10	1
4901784	64	C	04/05/2017	10:45	-132.248	43.837	0	144.90	0	8.7030	0	33.8640	4	26.278	0	143.689	0	188.3	4	66.1	4	-1E+10	1	-1E+10	1	-1E+10	1	-1E+10	1	-1E+10	1	-1E+10	1
4901784	64	C	04/05/2017	10:45	-132.248	43.837	0	147.40	0	8.6720	0	33.9070	4	26.316	0	146.167	0	186.3	4	65.4	4	-1E+10	1	-1E+10	1	-1E+10	1	-1E+10	1	-1E+10	1	-1E+10	1
4901784	64	C	04/05/2017	10:45	-132.248	43.837	0	150.00	0	8.6300	0	33.9280	4	26.339	0	148.744	0	184.6	4	64.7	4	-1E+10	1	-1E+10	1	-1E+10	1	-1E+10	1	-1E+10	1	-1E+10	1
4901784	64	C	04/05/2017	10:45	-132.248	43.837	0	152.60	0	8.5820	0	33.9410	4	26.357	0	151.322	0	183.1	4	64.2	4	-1E+10	1	-1E+10	1	-1E+10	1	-1E+10	1	-1E+10	1	-1E+10	1
4901784	64	C	04/05/2017	10:45	-132.248	43.837	0	155.30	0	8.5200	0	33.9640	4	26.385	0	153.998	0	181.9	4	63.7	4	-1E+10	1	-1E+10	1	-1E+10	1	-1E+10	1	-1E+10	1	-1E+10	1
4901784	64	C	04/05/2017	10:45	-132.248	43.837	0	158.00	0	8.4600	0	33.9700	4	26.398	0	156.674	0	180.7	4	63.1	4	-1E+10	1	-1E+10	1	-1E+10	1	-1E+10	1	-1E+10	1	-1E+10	1
4901784	64	C	04/05/2017	10:45	-132.248	43.837	0	159.80	0	8.4460	0	33.9740	4	26.404	0	158.459	0	179.5	4	62.7	4	-1E+10	1	-1E+10	1	-1E+10	1	-1E+10	1	-1E+10	1	-1E+10	1
4901784	64	C	04/05/2017	10:45	-132.248	43.837	0	162.50	0	8.3420	0	33.9860	4	26.429	0	161.135	0	177.7	4	61.9	4	-1E+10	1	-1E+10	1	-1E+10	1	-1E+10	1	-1E+10	1	-1E+10	1
4901784	64	C	04/05/2017	10:45	-132.248	43.837	0	165.20	0	8.2910	0	33.9830	4	26.434	0	163.811	0	176.4	4	61.4	4	-1E+10	1	-1E+10	1	-1E+10	1	-1E+10	1	-1E+10	1	-1E+10	1
4901784	64	C	04/05/2017	10:45	-132.248	43.837	0	167.00	0	8.2800	0	33.9830	4	26.436	0	165.595	0	175.3	4	61.0	4	-1E+10	1	-1E+10	1	-1E+10	1	-1E+10	1	-1E+10	1	-1E+10	1
4901784	64	C	04/05/2017	10:45	-132.248	43.837	0	169.80	0	8.1870	0	33.9840	4	26.451	0	168.370	0	173.6	4	60.3	4	-1E+10	1	-1E+10	1	-1E+10	1	-1E+10	1	-1E+10	1	-1E+10	1
4901784	64	C	04/05/2017	10:45	-132.248	43.837	0	172.40	0	8.1240	0	33.9820	4	26.459	0	170.948	0	172.1	4	59.7	4	-1E+10	1	-1E+10	1	-1E+10	1	-1E+10	1	-1E+10	1	-1E+10	1
4901784	64	C	04/05/2017	10:45	-132.248	43.837	0	175.20	0	8.0330	0	33.9820	4	26.472	0	173.723	0	170.3	4	59.0	4	-1E+10	1	-1E+10	1	-1E+10	1	-1E+10	1	-1E+10	1	-1E+10	1
4901784	64	C	04/05/2017	10:45	-132.248	43.837	0	178.00	0	7.9190	0	33.9840	4	26.491	0	176.498	0	169.2	4	58.4	4	-1E+10	1	-1E+10	1	-1E+10	1	-1E+10	1	-1E+10	1	-1E+10	1
4901784	64	C	04/05/2017	10:45	-132.248	43.837	0	179.90	0	7.9090	0	33.9830	4	26.491	0	178.381	0	168.4	4	58.1	4	-1E+10	1	-1E+10	1	-1E+10	1	-1E+10	1	-1E+10	1	-1E+10	1
4901784	64	C	04/05/2017	10:45	-132.248	43.837	0	182.60	0	7.8300	0	33.9870	4	26.506	0	181.057	0	167.5	4	57.7	4	-1E+10	1	-1E+10	1	-1E+10	1	-1E+10	1	-1E+10	1	-1E+10	1
4901784	64	C	04/05/2017	10:45	-132.248	43.837	0	185.40	0	7.7960	0	33.9880	4	26.512	0	183.832	0	166.7	4	57.4	4	-1E+10	1	-1E+10	1	-1E+10	1	-1E+10	1	-1E+10	1	-1E+10	1
4901784	64	C	04/05/2017	10:45	-132.248	43.837	0	187.30	0	7.7670	0	33.9920	4	26.519	0	185.715	0	166.1	4	57.2	4	-1E+10	1	-1E+10	1	-1E+10	1	-1E+10	1	-1E+10	1	-1E+10	1
4901784	64	C	04/05/2017	10:45	-132.248	43.837	0	190.10	0	7.7390	0	33.9950	4	26.526	0	188.490	0	165.3	4	56.9	4	-1E+10	1	-1E+10	1	-1E+10	1	-1E+10	1	-1E+10	1	-1E+10	1
4901784	64	C	04/05/2017	10:45	-132.248	43.837	0	193.30	0	7.6690	0	33.9960	4	26.537	0	191.662	0	164.2	4	56.4	4	-1E+10	1	-1E+10	1	-1E+10	1	-1E+10	1	-1E+10	1	-1E+10	1
4901784	64	C	04/05/2017	10:45	-132.248	43.837	0	194.70	0	7.6470	0	33.9990	4	26.542	0	193.049	0	163.9	4	56.3	4	-1E+10	1	-1E+10	1	-1E+10	1	-1E+10	1	-1E+10	1	-1E+10	1
4901784	64	C	04/05/2017	10:45	-132.248	43.837	0	197.30	0	7.6260	0	34.0010	4	26.547	0	195.626	0	163.7	4	56.2	4	-1E+10	1	-1E+10	1	-1E+10	1	-1E+10	1	-1E+10	1	-1E+10	1
4901784	64	C	04/05/2017	10:45	-132.248	43.837	0	199.70	0	7.6280	0	34.0010	4	26.547	0	198.004	0	163.1	4	56.0	4	-1E+10	1	-1E+10	1	-1E+10	1	-1E+10	1	-1E+10	1	-1E+10	1
4901784	64	C	04/05/2017	10:45	-132.248	43.837	0	202.20	0	7.6160	0	34.0040	4	26.551	0	200.482	0	162.3	4	55.7	4	-1E+10	1	-1E+10	1	-1E+10	1	-1E+10	1	-1E+10	1	-1E+10	1
4901784	64	C	04/05/2017	10:45	-132.248	43.837	0	204.70	0	7.5650	0	34.0050	4	26.559	0	202.960	0	161.7	4	55.4	4	-1E+10	1	-1E+10	1	-1E+10	1	-1E+10	1	-1E+10	1	-1E+10	1
4901784	64	C	04/05/2017	10:45	-132.248	43.837	0	207.20	0	7.5540	0	34.0110	4	26.565	0	205.437	0	161.2	4	55.2	4	-1E+10	1	-1E+10	1	-1E+10	1	-1E+10	1	-1E+10	1	-1E+10	1
4901784	64	C	04/05/2017	10:45	-132.248	43.837	0	209.60	0	7.5450	0	34.0140	4	26.569	0	207.815	0	160.1	4	54.8	4	-1E+10	1	-1E+10	1	-1E+10	1	-1E+10	1	-1E+10	1	-1E+10	1
4901784	64	C	04/05/2017	10:45	-132.248	43.837	0	212.10	0	7.5130	0	34.0160	4	26.575	0	210.293	0	158.8	4	54.4	4	-1E+10	1	-1E+10	1	-1E+10	1	-1E+10	1	-1E+10	1	-1E+10	1
4901784	64	C	04/05/2017	10:45	-132.248	43.837	0	214.60	0	7.4700	0	34.0100	4	26.576	0	212.770	0	157.4	4	53.8	4	-1E+10	1	-1E+10	1	-1E+10	1	-1E+10	1	-1E+10	1	-1E+10	1
4901784	64	C	04/05/2017	10:45	-132.248	43.837	0	217.20	0	7.4180	0	34.0040	4	26.579	0	215.347	0	156.0	4	53.3	4	-1E+10	1	-1E+10	1	-1E+10	1	-1E+10	1	-1E+10	1	-1E+10	1
4901784	64	C	04/05/2017	10:45	-132.248	43.837	0	219.80	0	7.3470	0	34.0140	4	26.597	0	217.923	0	154.8	4	52.8	4	-1E+10	1	-1E+10	1	-1E+10	1	-1E+10	1	-1E+10	1	-1E+10	1
4901784	64	C	04/05/2017	10:45	-132.248	43.837	0	222.40	0	7.3160	0	34.0130	4	26.601	0	220.500	0	154.0	4	52.5	4	-1E+10	1	-1E+10	1	-1E+10	1	-1E+10	1	-1E+10	1	-1E+10	1
4901784	64	C	04/05/2017	10:45	-132.248	43.837	0	225.00	0	7.3050	0	34.0130	4	26.602	0	223.076	0	153.0	4	52.1	4	-1E+10	1	-1E+10	1	-1E+10	1	-1E+10	1	-1E+10	1	-1E+10	1
4901784	64	C	04/05/2017	10:45	-132.248	43.837	0	227.60	0	7.2820	0	34.0190	4	26.610	0	225.652	0	151.8	4	51.7	4	-1E+10	1	-1E+10	1	-1E+10	1	-1E+10	1	-1E+10	1	-1E+10	1
4901784	64	C	04/05/2017	10:45	-132.248	43.837	0	230.20	0	7.2510	0	34.0230	4	26.618	0	228.229	0	150.9	4	51.4	4	-1E+10	1	-1E+10	1	-1E+10	1	-1E+10	1	-1E+10	1	-1E+10	1
4901784	64	C	04/05/2017	10:45	-132.248	43.837	0	232.70	0	7.2370	0	34.0230	4	26.620	0	230.706	0	149.4	4	50.8	4	-1E+10	1	-1E+10	1	-1E+10	1	-1E+10	1	-1E+10	1	-1E+10	1
4901784	64	C	04/05/2017	10:45	-132.248	43.837	0	235.20	0	7.1860	0	34.0200	4	26.624	0	233.183	0	147.9	4	50.3	4	-1E+10	1	-1E+10	1	-1E+10	1	-1E+10	1	-1E+10	1	-1E+10	1
4901784	64	C	04/05/2017	10:45	-132.248	43.837	0	237.90	0	7.1320	0	34.0210	4	26.633	0	235.858	0	145.9	4	49.5	4	-1E+10	1	-1E+10	1	-1E+10	1	-1E+10	1	-1E+10	1	-1E+10	1
4901784	64	C	04/05/2017	10:45	-132.248	43.837	0	239.60	0	7.0500	0	34.0110	4	26.636	0	237.543	0	145.0	4	49.1	4	-1E+10	1	-1E+10	1	-1E+10	1	-1E+10	1	-1E+10	1	-1E+10	1
4901784	64	C	04/05/2017	10:45	-132.248	43.837	0	242.10	0	6.9940	0	34.0090	4	26.642	0	240.020	0	143.3	4	48.5	4	-1E+10	1	-1E+10	1	-1E+10	1	-1E+10	1	-1E+10	1	-1E+10	1
4901784	64	C	04/05/2017	10:45	-132.248	43.837	0	244.80	0	6.9420	0	34.0030	4	26.645	0	242.695	0	141.5	4	47.8	4	-1E+10	1	-1E+10	1	-1E+10	1	-1E+10	1	-1E+10	1	-1E+10	1
4901784	64	C	04/05/2017	10:45	-132.248	43.837	0	247.40	0	6.8390	0	34.0070	4	26.662	0	245.271	0	139.7	4	47.1	4	-1E+10	1	-1E+10	1	-1E+10	1	-1E+10	1	-1E+10	1	-1E+10	1
4901784	64	C	04/05/2017	10:45	-132.248	43.837	0	249.90	0	6.7730	0	34.0070	4	26.671	0	247.748	0	138.6	4	46.6	4	-1E+10	1	-1E+10	1	-1E+10	1	-1E+10	1	-1E+10	1	-1E+10	1
4901784	64	C	04/05/2017	10:45	-132.248	43.837	0	252.60	0	6.7310	0	34.0090	4	26.678	0	250.423	0	137.6	4	46.3	4	-1E+10	1	-1E+10	1	-1E+10	1	-1E+10	1	-1E+10	1	-1E+10	1
4901784	64	C	04/05/2017	10:45	-132.248	43.837	0	255.20	0	6.6950	0	34.0100	4	26.683	0	252.999	0	137.0	4	46.0	4	-1E+10	1	-1E+10	1	-1E+10	1	-1E+10	1	-1E+10	1	-1E+10	1
4901784	64	C	04/05/2017	10:45	-132.248	43.837	0	257.80	0	6.6740	0	34.0150	4	26.690	0	255.575	0	136.4	4	45.8	4	-1E+10	1	-1E+10	1	-1E+10	1	-1E+10	1	-1E+10	1	-1E+10	1
4901784	64	C	04/05/2017	10:45	-132.248	43.837	0	260.40	0	6.6730	0	34.0180	4	26.693	0	258.151	0	136.2	4	45.7	4	-1E+10	1	-1E+10	1	-1E+10	1	-1E+10	1	-1E+10	1	-1E+10	1
4901784	64	C	04/05/2017	10:45	-132.248	43.837	0	262.10	0	6.6910	0	34.0170	4	26.690	0	259.835	0	135.9	4	45.6	4	-1E+10	1	-1E+10	1	-1E+10	1	-1E+10	1	-1E+10	1	-1E+10	1
4901784	64	C	04/05/2017	10:45	-132.248	43.837	0	264.70	0	6.7000	0	34.0300	4	26.699	0	262.411	0	134.3	4	45.1	4	-1E+10	1	-1E+10	1	-1E+10	1	-1E+10	1	-1E+10	1	-1E+10	1
4901784	64	C	04/05/2017	10:45	-132.248	43.837	0	267.40	0	6.6620	0	34.0290	4	26.703	0	265.086	0	132.9	4	44.6	4	-1E+10	1	-1E+10	1	-1E+10	1	-1E+10	1	-1E+10	1	-1E+10	1
4901784	64	C	04/05/2017	10:45	-132.248	43.837	0	270.00	0	6.6200	0	34.0280	4	26.708	0	267.662	0	131.2	4	44.0	4	-1E+10	1	-1E+10	1	-1E+10	1	-1E+10	1	-1E+10	1	-1E+10	1
4901784	64	C	04/05/2017	10:45	-132.248	43.837	0	272.60	0	6.5690	0	34.0280	4	26.715	0	270.238	0	129.1	4	43.3	4	-1E+10	1	-1E+10	1	-1E+10	1	-1E+10	1	-1E+10	1	-1E+10	1
4901784	64	C	04/05/2017	10:45	-132.248	43.837	0	275.30	0	6.4940	0	34.0260	4	26.723	0	272.913	0	127.0	4	42.5	4	-1E+10	1	-1E+10	1	-1E+10	1	-1E+10	1	-1E+10	1	-1E+10	1
4901784	64	C	04/05/2017	10:45	-132.248	43.837	0	277.90	0	6.4220	0	34.0240	4	26.731	0	275.488	0	125.5	4	41.9	4	-1E+10	1	-1E+10	1	-1E+10	1	-1E+10	1	-1E+10	1	-1E+10	1
4901784	64	C	04/05/2017	10:45	-132.248	43.837	0	279.70	0	6.3940	0	34.0220	4	26.733	0	277.272	0	124.6	4	41.6	4	-1E+10	1	-1E+10	1	-1E+10	1	-1E+10	1	-1E+10	1	-1E+10	1
4901784	64	C	04/05/2017	10:45	-132.248	43.837	0	282.30	0	6.3490	0	34.0230	4	26.739	0	279.847	0	123.8	4	41.3	4	-1E+10	1	-1E+10	1	-1E+10	1	-1E+10	1	-1E+10	1	-1E+10	1
4901784	64	C	04/05/2017	10:45	-132.248	43.837	0	285.00	0	6.3430	0	34.0220	4	26.739	0	282.522	0	122.8	4	40.9	4	-1E+10	1	-1E+10	1	-1E+10	1	-1E+10	1	-1E+10	1	-1E+10	1
4901784	64	C	04/05/2017	10:45	-132.248	43.837	0	287.60	0	6.2960	0	34.0220	4	26.746	0	285.098	0	121.4	4	40.4	4	-1E+10	1	-1E+10	1	-1E+10	1	-1E+10	1	-1E+10	1	-1E+10	1
4901784	64	C	04/05/2017	10:45	-132.248	43.837	0	290.20	0	6.2550	0	34.0220	4	26.751	0	287.673	0	120.4	4	40.0	4	-1E+10	1	-1E+10	1	-1E+10	1	-1E+10	1	-1E+10	1	-1E+10	1
4901784	64	C	04/05/2017	10:45	-132.248	43.837	0	292.80	0	6.2380	0	34.0210	4	26.752	0	290.249	0	119.2	4	39.6	4	-1E+10	1	-1E+10	1	-1E+10	1	-1E+10	1	-1E+10	1	-1E+10	1
4901784	64	C	04/05/2017	10:45	-132.248	43.837	0	295.50	0	6.2100	0	34.0200	4	26.755	0	292.923	0	117.7	4	39.1	4	-1E+10	1	-1E+10	1	-1E+10	1	-1E+10	1	-1E+10	1	-1E+10	1
4901784	64	C	04/05/2017	10:45	-132.248	43.837	0	297.20	0	6.1600	0	34.0210	4	26.762	0	294.607	0	116.7	4	38.7	4	-1E+10	1	-1E+10	1	-1E+10	1	-1E+10	1	-1E+10	1	-1E+10	1
4901784	64	C	04/05/2017	10:45	-132.248	43.837	0	299.90	0	6.1090	0	34.0220	4	26.770	0	297.282	0	115.5	4	38.3	4	-1E+10	1	-1E+10	1	-1E+10	1	-1E+10	1	-1E+10	1	-1E+10	1
4901784	64	C	04/05/2017	10:45	-132.248	43.837	0	302.50	0	6.0870	0	34.0200	4	26.771	0	299.857	0	114.2	4	37.8	4	-1E+10	1	-1E+10	1	-1E+10	1	-1E+10	1	-1E+10	1	-1E+10	1
4901784	64	C	04/05/2017	10:45	-132.248	43.837	0	305.20	0	6.0440	0	34.0210	4	26.777	0	302.532	0	112.6	4	37.3	4	-1E+10	1	-1E+10	1	-1E+10	1	-1E+10	1	-1E+10	1	-1E+10	1
4901784	64	C	04/05/2017	10:45	-132.248	43.837	0	307.80	0	6.0120	0	34.0200	4	26.780	0	305.107	0	111.0	4	36.7	4	-1E+10	1	-1E+10	1	-1E+10	1	-1E+10	1	-1E+10	1	-1E+10	1
4901784	64	C	04/05/2017	10:45	-132.248	43.837	0	309.60	0	5.9840	0	34.0190	4	26.783	0	306.890	0	109.6	4	36.2	4	-1E+10	1	-1E+10	1	-1E+10	1	-1E+10	1	-1E+10	1	-1E+10	1
4901784	64	C	04/05/2017	10:45	-132.248	43.837	0	312.40	0	5.8850	0	34.0190	4	26.795	0	309.663	0	107.8	4	35.5	4	-1E+10	1	-1E+10	1	-1E+10	1	-1E+10	1	-1E+10	1	-1E+10	1
4901784	64	C	04/05/2017	10:45	-132.248	43.837	0	315.10	0	5.8500	0	34.0200	4	26.800	0	312.338	0	106.9	4	35.2	4	-1E+10	1	-1E+10	1	-1E+10	1	-1E+10	1	-1E+10	1	-1E+10	1
4901784	64	C	04/05/2017	10:45	-132.248	43.837	0	317.70	0	5.8140	0	34.0210	4	26.806	0	314.913	0	105.9	4	34.9	4	-1E+10	1	-1E+10	1	-1E+10	1	-1E+10	1	-1E+10	1	-1E+10	1
4901784	64	C	04/05/2017	10:45	-132.248	43.837	0	320.40	0	5.7850	0	34.0200	4	26.809	0	317.587	0	105.2	4	34.6	4	-1E+10	1	-1E+10	1	-1E+10	1	-1E+10	1	-1E+10	1	-1E+10	1
4901784	64	C	04/05/2017	10:45	-132.248	43.837	0	322.20	0	5.7820	0	34.0190	4	26.808	0	319.370	0	104.8	4	34.5	4	-1E+10	1	-1E+10	1	-1E+10	1	-1E+10	1	-1E+10	1	-1E+10	1
4901784	64	C	04/05/2017	10:45	-132.248	43.837	0	325.00	0	5.7700	0	34.0190	4	26.810	0	322.143	0	103.9	4	34.2	4	-1E+10	1	-1E+10	1	-1E+10	1	-1E+10	1	-1E+10	1	-1E+10	1
4901784	64	C	04/05/2017	10:45	-132.248	43.837	0	327.70	0	5.7460	0	34.0200	4	26.813	0	324.817	0	102.8	4	33.8	4	-1E+10	1	-1E+10	1	-1E+10	1	-1E+10	1	-1E+10	1	-1E+10	1
4901784	64	C	04/05/2017	10:45	-132.248	43.837	0	329.60	0	5.7440	0	34.0190	4	26.813	0	326.699	0	102.0	4	33.5	4	-1E+10	1	-1E+10	1	-1E+10	1	-1E+10	1	-1E+10	1	-1E+10	1
4901784	64	C	04/05/2017	10:45	-132.248	43.837	0	332.30	0	5.7150	0	34.0200	4	26.817	0	329.373	0	100.6	4	33.0	4	-1E+10	1	-1E+10	1	-1E+10	1	-1E+10	1	-1E+10	1	-1E+10	1
4901784	64	C	04/05/2017	10:45	-132.248	43.837	0	335.20	0	5.6810	0	34.0190	4	26.821	0	332.245	0	99.3	4	32.6	4	-1E+10	1	-1E+10	1	-1E+10	1	-1E+10	1	-1E+10	1	-1E+10	1
4901784	64	C	04/05/2017	10:45	-132.248	43.837	0	337.00	0	5.6520	0	34.0200	4	26.825	0	334.028	0	98.5	4	32.3	4	-1E+10	1	-1E+10	1	-1E+10	1	-1E+10	1	-1E+10	1	-1E+10	1
4901784	64	C	04/05/2017	10:45	-132.248	43.837	0	339.90	0	5.6350	0	34.0210	4	26.828	0	336.900	0	97.5	4	31.9	4	-1E+10	1	-1E+10	1	-1E+10	1	-1E+10	1	-1E+10	1	-1E+10	1
4901784	64	C	04/05/2017	10:45	-132.248	43.837	0	342.70	0	5.6020	0	34.0220	4	26.833	0	339.673	0	96.3	4	31.6	4	-1E+10	1	-1E+10	1	-1E+10	1	-1E+10	1	-1E+10	1	-1E+10	1
4901784	64	C	04/05/2017	10:45	-132.248	43.837	0	344.60	0	5.5800	0	34.0240	4	26.837	0	341.555	0	95.7	4	31.3	4	-1E+10	1	-1E+10	1	-1E+10	1	-1E+10	1	-1E+10	1	-1E+10	1
4901784	64	C	04/05/2017	10:45	-132.248	43.837	0	347.30	0	5.5770	0	34.0240	4	26.837	0	344.229	0	94.9	4	31.1	4	-1E+10	1	-1E+10	1	-1E+10	1	-1E+10	1	-1E+10	1	-1E+10	1
4901784	64	C	04/05/2017	10:45	-132.248	43.837	0	350.20	0	5.5650	0	34.0240	4	26.839	0	347.100	0	93.5	4	30.6	4	-1E+10	1	-1E+10	1	-1E+10	1	-1E+10	1	-1E+10	1	-1E+10	1
4901784	64	C	04/05/2017	10:45	-132.248	43.837	0	352.00	0	5.5560	0	34.0230	4	26.839	0	348.883	0	92.4	4	30.2	4	-1E+10	1	-1E+10	1	-1E+10	1	-1E+10	1	-1E+10	1	-1E+10	1
4901784	64	C	04/05/2017	10:45	-132.248	43.837	0	354.90	0	5.5370	0	34.0240	4	26.842	0	351.755	0	90.1	4	29.5	4	-1E+10	1	-1E+10	1	-1E+10	1	-1E+10	1	-1E+10	1	-1E+10	1
4901784	64	C	04/05/2017	10:45	-132.248	43.837	0	357.70	0	5.4680	0	34.0310	4	26.856	0	354.528	0	87.5	4	28.6	4	-1E+10	1	-1E+10	1	-1E+10	1	-1E+10	1	-1E+10	1	-1E+10	1
4901784	64	C	04/05/2017	10:45	-132.248	43.837	0	359.60	0	5.4440	0	34.0310	4	26.859	0	356.409	0	86.2	4	28.2	4	-1E+10	1	-1E+10	1	-1E+10	1	-1E+10	1	-1E+10	1	-1E+10	1
4901784	64	C	04/05/2017	10:45	-132.248	43.837	0	362.50	0	5.4140	0	34.0320	4	26.863	0	359.281	0	84.2	4	27.5	4	-1E+10	1	-1E+10	1	-1E+10	1	-1E+10	1	-1E+10	1	-1E+10	1
4901784	64	C	04/05/2017	10:45	-132.248	43.837	0	365.40	0	5.3540	0	34.0360	4	26.873	0	362.153	0	82.4	4	26.8	4	-1E+10	1	-1E+10	1	-1E+10	1	-1E+10	1	-1E+10	1	-1E+10	1
4901784	64	C	04/05/2017	10:45	-132.248	43.837	0	367.30	0	5.3430	0	34.0350	4	26.874	0	364.034	0	81.6	4	26.6	4	-1E+10	1	-1E+10	1	-1E+10	1	-1E+10	1	-1E+10	1	-1E+10	1
4901784	64	C	04/05/2017	10:45	-132.248	43.837	0	370.20	0	5.3220	0	34.0360	4	26.877	0	366.906	0	80.3	4	26.1	4	-1E+10	1	-1E+10	1	-1E+10	1	-1E+10	1	-1E+10	1	-1E+10	1
4901784	64	C	04/05/2017	10:45	-132.248	43.837	0	373.10	0	5.2850	0	34.0380	4	26.883	0	369.777	0	79.1	4	25.7	4	-1E+10	1	-1E+10	1	-1E+10	1	-1E+10	1	-1E+10	1	-1E+10	1
4901784	64	C	04/05/2017	10:45	-132.248	43.837	0	375.00	0	5.2560	0	34.0410	4	26.889	0	371.659	0	78.5	4	25.5	4	-1E+10	1	-1E+10	1	-1E+10	1	-1E+10	1	-1E+10	1	-1E+10	1
4901784	64	C	04/05/2017	10:45	-132.248	43.837	0	376.90	0	5.2490	0	34.0410	4	26.890	0	373.540	0	78.1	4	25.4	4	-1E+10	1	-1E+10	1	-1E+10	1	-1E+10	1	-1E+10	1	-1E+10	1
4901784	64	C	04/05/2017	10:45	-132.248	43.837	0	379.90	0	5.2390	0	34.0420	4	26.892	0	376.511	0	77.2	4	25.1	4	-1E+10	1	-1E+10	1	-1E+10	1	-1E+10	1	-1E+10	1	-1E+10	1
4901784	64	C	04/05/2017	10:45	-132.248	43.837	0	382.80	0	5.2160	0	34.0430	4	26.895	0	379.382	0	76.2	4	24.7	4	-1E+10	1	-1E+10	1	-1E+10	1	-1E+10	1	-1E+10	1	-1E+10	1
4901784	64	C	04/05/2017	10:45	-132.248	43.837	0	384.70	0	5.1980	0	34.0450	4	26.899	0	381.263	0	75.6	4	24.5	4	-1E+10	1	-1E+10	1	-1E+10	1	-1E+10	1	-1E+10	1	-1E+10	1
4901784	64	C	04/05/2017	10:45	-132.248	43.837	0	387.10	0	5.1790	0	34.0470	4	26.903	0	383.640	0	75.0	4	24.3	4	-1E+10	1	-1E+10	1	-1E+10	1	-1E+10	1	-1E+10	1	-1E+10	1
4901784	64	C	04/05/2017	10:45	-132.248	43.837	0	389.80	0	5.1650	0	34.0490	4	26.906	0	386.313	0	74.4	4	24.1	4	-1E+10	1	-1E+10	1	-1E+10	1	-1E+10	1	-1E+10	1	-1E+10	1
4901784	64	C	04/05/2017	10:45	-132.248	43.837	0	392.80	0	5.1550	0	34.0490	4	26.907	0	389.283	0	73.9	4	24.0	4	-1E+10	1	-1E+10	1	-1E+10	1	-1E+10	1	-1E+10	1	-1E+10	1
4901784	64	C	04/05/2017	10:45	-132.248	43.837	0	394.90	0	5.1500	0	34.0490	4	26.908	0	391.363	0	73.4	4	23.8	4	-1E+10	1	-1E+10	1	-1E+10	1	-1E+10	1	-1E+10	1	-1E+10	1
4901784	64	C	04/05/2017	10:45	-132.248	43.837	0	397.40	0	5.1410	0	34.0490	4	26.909	0	393.838	0	72.6	4	23.5	4	-1E+10	1	-1E+10	1	-1E+10	1	-1E+10	1	-1E+10	1	-1E+10	1
4901784	64	C	04/05/2017	10:45	-132.248	43.837	0	399.80	0	5.1250	0	34.0510	4	26.912	0	396.214	0	71.6	4	23.2	4	-1E+10	1	-1E+10	1	-1E+10	1	-1E+10	1	-1E+10	1	-1E+10	1
4901784	64	C	04/05/2017	10:45	-132.248	43.837	0	402.30	0	5.1080	0	34.0520	4	26.915	0	398.689	0	70.4	4	22.8	4	-1E+10	1	-1E+10	1	-1E+10	1	-1E+10	1	-1E+10	1	-1E+10	1
4901784	64	C	04/05/2017	10:45	-132.248	43.837	0	404.80	0	5.0780	0	34.0550	4	26.921	0	401.164	0	69.2	4	22.4	4	-1E+10	1	-1E+10	1	-1E+10	1	-1E+10	1	-1E+10	1	-1E+10	1
4901784	64	C	04/05/2017	10:45	-132.248	43.837	0	407.20	0	5.0550	0	34.0570	4	26.925	0	403.541	0	68.0	4	22.0	4	-1E+10	1	-1E+10	1	-1E+10	1	-1E+10	1	-1E+10	1	-1E+10	1
4901784	64	C	04/05/2017	10:45	-132.248	43.837	0	409.70	0	5.0300	0	34.0610	4	26.931	0	406.016	0	66.9	4	21.6	4	-1E+10	1	-1E+10	1	-1E+10	1	-1E+10	1	-1E+10	1	-1E+10	1
4901784	64	C	04/05/2017	10:45	-132.248	43.837	0	412.20	0	5.0070	0	34.0650	4	26.937	0	408.491	0	66.1	4	21.4	4	-1E+10	1	-1E+10	1	-1E+10	1	-1E+10	1	-1E+10	1	-1E+10	1
4901784	64	C	04/05/2017	10:45	-132.248	43.837	0	414.80	0	4.9960	0	34.0660	4	26.939	0	411.065	0	65.7	4	21.2	4	-1E+10	1	-1E+10	1	-1E+10	1	-1E+10	1	-1E+10	1	-1E+10	1
4901784	64	C	04/05/2017	10:45	-132.248	43.837	0	417.30	0	4.9930	0	34.0670	4	26.940	0	413.540	0	65.2	4	21.1	4	-1E+10	1	-1E+10	1	-1E+10	1	-1E+10	1	-1E+10	1	-1E+10	1
4901784	64	C	04/05/2017	10:45	-132.248	43.837	0	419.90	0	4.9880	0	34.0670	4	26.941	0	416.114	0	64.5	4	20.8	4	-1E+10	1	-1E+10	1	-1E+10	1	-1E+10	1	-1E+10	1	-1E+10	1
4901784	64	C	04/05/2017	10:45	-132.248	43.837	0	422.40	0	4.9790	0	34.0680	4	26.943	0	418.589	0	63.5	4	20.5	4	-1E+10	1	-1E+10	1	-1E+10	1	-1E+10	1	-1E+10	1	-1E+10	1
4901784	64	C	04/05/2017	10:45	-132.248	43.837	0	425.00	0	4.9490	0	34.0720	4	26.949	0	421.163	0	62.3	4	20.1	4	-1E+10	1	-1E+10	1	-1E+10	1	-1E+10	1	-1E+10	1	-1E+10	1
4901784	64	C	04/05/2017	10:45	-132.248	43.837	0	427.60	0	4.9160	0	34.0770	4	26.957	0	423.736	0	61.5	4	19.8	4	-1E+10	1	-1E+10	1	-1E+10	1	-1E+10	1	-1E+10	1	-1E+10	1
4901784	64	C	04/05/2017	10:45	-132.248	43.837	0	430.20	0	4.8970	0	34.0800	4	26.961	0	426.310	0	60.8	4	19.6	4	-1E+10	1	-1E+10	1	-1E+10	1	-1E+10	1	-1E+10	1	-1E+10	1
4901784	64	C	04/05/2017	10:45	-132.248	43.837	0	432.70	0	4.8660	0	34.0810	4	26.966	0	428.785	0	60.0	4	19.3	4	-1E+10	1	-1E+10	1	-1E+10	1	-1E+10	1	-1E+10	1	-1E+10	1
4901784	64	C	04/05/2017	10:45	-132.248	43.837	0	435.30	0	4.8360	0	34.0860	4	26.973	0	431.359	0	58.7	4	18.9	4	-1E+10	1	-1E+10	1	-1E+10	1	-1E+10	1	-1E+10	1	-1E+10	1
4901784	64	C	04/05/2017	10:45	-132.248	43.837	0	437.10	0	4.8230	0	34.0890	4	26.977	0	433.141	0	57.7	4	18.6	4	-1E+10	1	-1E+10	1	-1E+10	1	-1E+10	1	-1E+10	1	-1E+10	1
4901784	64	C	04/05/2017	10:45	-132.248	43.837	0	439.70	0	4.8100	0	34.0930	4	26.982	0	435.714	0	56.6	4	18.2	4	-1E+10	1	-1E+10	1	-1E+10	1	-1E+10	1	-1E+10	1	-1E+10	1
4901784	64	C	04/05/2017	10:45	-132.248	43.837	0	442.30	0	4.8030	0	34.0940	4	26.983	0	438.288	0	55.7	4	17.9	4	-1E+10	1	-1E+10	1	-1E+10	1	-1E+10	1	-1E+10	1	-1E+10	1
4901784	64	C	04/05/2017	10:45	-132.248	43.837	0	444.90	0	4.7890	0	34.0980	4	26.988	0	440.862	0	54.8	4	17.6	4	-1E+10	1	-1E+10	1	-1E+10	1	-1E+10	1	-1E+10	1	-1E+10	1
4901784	64	C	04/05/2017	10:45	-132.248	43.837	0	447.50	0	4.7660	0	34.1030	4	26.995	0	443.435	0	54.1	4	17.4	4	-1E+10	1	-1E+10	1	-1E+10	1	-1E+10	1	-1E+10	1	-1E+10	1
4901784	64	C	04/05/2017	10:45	-132.248	43.837	0	450.10	0	4.7530	0	34.1060	4	26.998	0	446.009	0	53.6	4	17.2	4	-1E+10	1	-1E+10	1	-1E+10	1	-1E+10	1	-1E+10	1	-1E+10	1
4901784	64	C	04/05/2017	10:45	-132.248	43.837	0	452.80	0	4.7330	0	34.1080	4	27.002	0	448.681	0	53.3	4	17.1	4	-1E+10	1	-1E+10	1	-1E+10	1	-1E+10	1	-1E+10	1	-1E+10	1
4901784	64	C	04/05/2017	10:45	-132.248	43.837	0	454.50	0	4.7140	0	34.1100	4	27.006	0	450.364	0	53.1	4	17.0	4	-1E+10	1	-1E+10	1	-1E+10	1	-1E+10	1	-1E+10	1	-1E+10	1
4901784	64	C	04/05/2017	10:45	-132.248	43.837	0	457.20	0	4.7020	0	34.1130	4	27.010	0	453.037	0	52.5	4	16.8	4	-1E+10	1	-1E+10	1	-1E+10	1	-1E+10	1	-1E+10	1	-1E+10	1
4901784	64	C	04/05/2017	10:45	-132.248	43.837	0	459.90	0	4.6980	0	34.1130	4	27.010	0	455.709	0	51.8	4	16.6	4	-1E+10	1	-1E+10	1	-1E+10	1	-1E+10	1	-1E+10	1	-1E+10	1
4901784	64	C	04/05/2017	10:45	-132.248	43.837	0	462.60	0	4.6810	0	34.1170	4	27.015	0	458.382	0	51.1	4	16.4	4	-1E+10	1	-1E+10	1	-1E+10	1	-1E+10	1	-1E+10	1	-1E+10	1
4901784	64	C	04/05/2017	10:45	-132.248	43.837	0	465.40	0	4.6760	0	34.1170	4	27.016	0	461.153	0	50.3	4	16.1	4	-1E+10	1	-1E+10	1	-1E+10	1	-1E+10	1	-1E+10	1	-1E+10	1
4901784	64	C	04/05/2017	10:45	-132.248	43.837	0	467.10	0	4.6660	0	34.1190	4	27.018	0	462.835	0	49.7	4	15.9	4	-1E+10	1	-1E+10	1	-1E+10	1	-1E+10	1	-1E+10	1	-1E+10	1
4901784	64	C	04/05/2017	10:45	-132.248	43.837	0	469.90	0	4.6490	0	34.1230	4	27.023	0	465.607	0	49.0	4	15.7	4	-1E+10	1	-1E+10	1	-1E+10	1	-1E+10	1	-1E+10	1	-1E+10	1
4901784	64	C	04/05/2017	10:45	-132.248	43.837	0	472.60	0	4.6440	0	34.1240	4	27.025	0	468.279	0	48.0	4	15.4	4	-1E+10	1	-1E+10	1	-1E+10	1	-1E+10	1	-1E+10	1	-1E+10	1
4901784	64	C	04/05/2017	10:45	-132.248	43.837	0	475.30	0	4.6290	0	34.1280	4	27.030	0	470.951	0	46.7	4	14.9	4	-1E+10	1	-1E+10	1	-1E+10	1	-1E+10	1	-1E+10	1	-1E+10	1
4901784	64	C	04/05/2017	10:45	-132.248	43.837	0	478.00	0	4.6130	0	34.1330	4	27.035	0	473.624	0	45.5	4	14.6	4	-1E+10	1	-1E+10	1	-1E+10	1	-1E+10	1	-1E+10	1	-1E+10	1
4901784	64	C	04/05/2017	10:45	-132.248	43.837	0	479.70	0	4.6050	0	34.1370	4	27.039	0	475.306	0	44.8	4	14.4	4	-1E+10	1	-1E+10	1	-1E+10	1	-1E+10	1	-1E+10	1	-1E+10	1
4901784	64	C	04/05/2017	10:45	-132.248	43.837	0	482.50	0	4.5970	0	34.1400	4	27.043	0	478.077	0	44.3	4	14.2	4	-1E+10	1	-1E+10	1	-1E+10	1	-1E+10	1	-1E+10	1	-1E+10	1
4901784	64	C	04/05/2017	10:45	-132.248	43.837	0	485.20	0	4.5910	0	34.1420	4	27.045	0	480.749	0	43.7	4	14.0	4	-1E+10	1	-1E+10	1	-1E+10	1	-1E+10	1	-1E+10	1	-1E+10	1
4901784	64	C	04/05/2017	10:45	-132.248	43.837	0	487.10	0	4.5870	0	34.1430	4	27.046	0	482.630	0	43.4	4	13.9	4	-1E+10	1	-1E+10	1	-1E+10	1	-1E+10	1	-1E+10	1	-1E+10	1
4901784	64	C	04/05/2017	10:45	-132.248	43.837	0	489.80	0	4.5810	0	34.1450	4	27.049	0	485.302	0	42.9	4	13.7	4	-1E+10	1	-1E+10	1	-1E+10	1	-1E+10	1	-1E+10	1	-1E+10	1
4901784	64	C	04/05/2017	10:45	-132.248	43.837	0	492.60	0	4.5720	0	34.1480	4	27.052	0	488.073	0	42.4	4	13.6	4	-1E+10	1	-1E+10	1	-1E+10	1	-1E+10	1	-1E+10	1	-1E+10	1
4901784	64	C	04/05/2017	10:45	-132.248	43.837	0	494.50	0	4.5700	0	34.1480	4	27.052	0	489.953	0	42.1	4	13.5	4	-1E+10	1	-1E+10	1	-1E+10	1	-1E+10	1	-1E+10	1	-1E+10	1
4901784	64	C	04/05/2017	10:45	-132.248	43.837	0	497.30	0	4.5670	0	34.1480	4	27.052	0	492.724	0	41.4	4	13.2	4	-1E+10	1	-1E+10	1	-1E+10	1	-1E+10	1	-1E+10	1	-1E+10	1
4901784	64	C	04/05/2017	10:45	-132.248	43.837	0	500.10	0	4.5670	0	34.1540	4	27.057	0	495.495	0	40.3	4	12.9	4	-1E+10	1	-1E+10	1	-1E+10	1	-1E+10	1	-1E+10	1	-1E+10	1
4901784	64	C	04/05/2017	10:45	-132.248	43.837	0	505.60	0	4.5660	0	34.1560	4	27.059	0	500.938	0	39.2	4	12.6	4	-1E+10	1	-1E+10	1	-1E+10	1	-1E+10	1	-1E+10	1	-1E+10	1
4901784	64	C	04/05/2017	10:45	-132.248	43.837	0	510.30	0	4.5410	0	34.1610	4	27.066	0	505.589	0	37.8	4	12.1	4	-1E+10	1	-1E+10	1	-1E+10	1	-1E+10	1	-1E+10	1	-1E+10	1
4901784	64	C	04/05/2017	10:45	-132.248	43.837	0	514.90	0	4.5410	0	34.1670	4	27.071	0	510.140	0	36.2	4	11.6	4	-1E+10	1	-1E+10	1	-1E+10	1	-1E+10	1	-1E+10	1	-1E+10	1
4901784	64	C	04/05/2017	10:45	-132.248	43.837	0	520.50	0	4.5230	0	34.1730	4	27.077	0	515.682	0	34.7	4	11.1	4	-1E+10	1	-1E+10	1	-1E+10	1	-1E+10	1	-1E+10	1	-1E+10	1
4901784	64	C	04/05/2017	10:45	-132.248	43.837	0	525.30	0	4.5050	0	34.1790	4	27.084	0	520.431	0	33.5	4	10.7	4	-1E+10	1	-1E+10	1	-1E+10	1	-1E+10	1	-1E+10	1	-1E+10	1
4901784	64	C	04/05/2017	10:45	-132.248	43.837	0	530.10	0	4.4920	0	34.1830	4	27.089	0	525.181	0	32.4	4	10.4	4	-1E+10	1	-1E+10	1	-1E+10	1	-1E+10	1	-1E+10	1	-1E+10	1
4901784	64	C	04/05/2017	10:45	-132.248	43.837	0	534.80	0	4.4730	0	34.1900	4	27.096	0	529.831	0	31.5	4	10.1	4	-1E+10	1	-1E+10	1	-1E+10	1	-1E+10	1	-1E+10	1	-1E+10	1
4901784	64	C	04/05/2017	10:45	-132.248	43.837	0	539.60	0	4.4600	0	34.1930	4	27.100	0	534.580	0	31.1	4	9.9	4	-1E+10	1	-1E+10	1	-1E+10	1	-1E+10	1	-1E+10	1	-1E+10	1
4901784	64	C	04/05/2017	10:45	-132.248	43.837	0	545.40	0	4.4580	0	34.1940	4	27.101	0	540.319	0	30.7	4	9.8	4	-1E+10	1	-1E+10	1	-1E+10	1	-1E+10	1	-1E+10	1	-1E+10	1
4901784	64	C	04/05/2017	10:45	-132.248	43.837	0	549.70	0	4.4510	0	34.1960	4	27.104	0	544.573	0	30.0	4	9.6	4	-1E+10	1	-1E+10	1	-1E+10	1	-1E+10	1	-1E+10	1	-1E+10	1
4901784	64	C	04/05/2017	10:45	-132.248	43.837	0	554.60	0	4.4420	0	34.1990	4	27.107	0	549.421	0	29.1	4	9.3	4	-1E+10	1	-1E+10	1	-1E+10	1	-1E+10	1	-1E+10	1	-1E+10	1
4901784	64	C	04/05/2017	10:45	-132.248	43.837	0	559.50	0	4.4190	0	34.2040	4	27.113	0	554.269	0	27.7	4	8.8	4	-1E+10	1	-1E+10	1	-1E+10	1	-1E+10	1	-1E+10	1	-1E+10	1
4901784	64	C	04/05/2017	10:45	-132.248	43.837	0	564.50	0	4.3880	0	34.2150	4	27.126	0	559.215	0	26.5	4	8.5	4	-1E+10	1	-1E+10	1	-1E+10	1	-1E+10	1	-1E+10	1	-1E+10	1
4901784	64	C	04/05/2017	10:45	-132.248	43.837	0	569.60	0	4.3730	0	34.2190	4	27.130	0	564.261	0	25.5	4	8.1	4	-1E+10	1	-1E+10	1	-1E+10	1	-1E+10	1	-1E+10	1	-1E+10	1
4901784	64	C	04/05/2017	10:45	-132.248	43.837	0	574.60	0	4.3490	0	34.2280	4	27.140	0	569.207	0	24.4	4	7.8	4	-1E+10	1	-1E+10	1	-1E+10	1	-1E+10	1	-1E+10	1	-1E+10	1
4901784	64	C	04/05/2017	10:45	-132.248	43.837	0	579.70	0	4.3370	0	34.2320	4	27.145	0	574.252	0	23.5	4	7.5	4	-1E+10	1	-1E+10	1	-1E+10	1	-1E+10	1	-1E+10	1	-1E+10	1
4901784	64	C	04/05/2017	10:45	-132.248	43.837	0	584.80	0	4.3140	0	34.2390	4	27.153	0	579.297	0	22.4	4	7.1	4	-1E+10	1	-1E+10	1	-1E+10	1	-1E+10	1	-1E+10	1	-1E+10	1
4901784	64	C	04/05/2017	10:45	-132.248	43.837	0	590.00	0	4.2870	0	34.2480	4	27.163	0	584.441	0	21.5	4	6.8	4	-1E+10	1	-1E+10	1	-1E+10	1	-1E+10	1	-1E+10	1	-1E+10	1
4901784	64	C	04/05/2017	10:45	-132.248	43.837	0	595.20	0	4.2660	0	34.2540	4	27.170	0	589.584	0	20.9	4	6.6	4	-1E+10	1	-1E+10	1	-1E+10	1	-1E+10	1	-1E+10	1	-1E+10	1
4901784	64	C	04/05/2017	10:45	-132.248	43.837	0	600.50	0	4.2510	0	34.2580	4	27.174	0	594.827	0	20.3	4	6.5	4	-1E+10	1	-1E+10	1	-1E+10	1	-1E+10	1	-1E+10	1	-1E+10	1
4901784	64	C	04/05/2017	10:45	-132.248	43.837	0	604.90	0	4.2420	0	34.2610	4	27.178	0	599.179	0	19.9	4	6.3	4	-1E+10	1	-1E+10	1	-1E+10	1	-1E+10	1	-1E+10	1	-1E+10	1
4901784	64	C	04/05/2017	10:45	-132.248	43.837	0	609.40	0	4.2190	0	34.2680	4	27.186	0	603.630	0	19.2	4	6.1	4	-1E+10	1	-1E+10	1	-1E+10	1	-1E+10	1	-1E+10	1	-1E+10	1
4901784	64	C	04/05/2017	10:45	-132.248	43.837	0	614.80	0	4.2040	0	34.2740	4	27.192	0	608.971	0	18.6	4	5.9	4	-1E+10	1	-1E+10	1	-1E+10	1	-1E+10	1	-1E+10	1	-1E+10	1
4901784	64	C	04/05/2017	10:45	-132.248	43.837	0	620.20	0	4.1930	0	34.2780	4	27.197	0	614.312	0	18.2	4	5.8	4	-1E+10	1	-1E+10	1	-1E+10	1	-1E+10	1	-1E+10	1	-1E+10	1
4901784	64	C	04/05/2017	10:45	-132.248	43.837	0	624.80	0	4.1790	0	34.2820	4	27.201	0	618.861	0	18.0	4	5.7	4	-1E+10	1	-1E+10	1	-1E+10	1	-1E+10	1	-1E+10	1	-1E+10	1
4901784	64	C	04/05/2017	10:45	-132.248	43.837	0	629.40	0	4.1730	0	34.2830	4	27.203	0	623.411	0	17.7	4	5.6	4	-1E+10	1	-1E+10	1	-1E+10	1	-1E+10	1	-1E+10	1	-1E+10	1
4901784	64	C	04/05/2017	10:45	-132.248	43.837	0	634.90	0	4.1590	0	34.2870	4	27.207	0	628.850	0	17.3	4	5.5	4	-1E+10	1	-1E+10	1	-1E+10	1	-1E+10	1	-1E+10	1	-1E+10	1
4901784	64	C	04/05/2017	10:45	-132.248	43.837	0	639.50	0	4.1470	0	34.2910	4	27.212	0	633.399	0	17.1	4	5.4	4	-1E+10	1	-1E+10	1	-1E+10	1	-1E+10	1	-1E+10	1	-1E+10	1
4901784	64	C	04/05/2017	10:45	-132.248	43.837	0	644.10	0	4.1420	0	34.2930	4	27.214	0	637.948	0	17.0	4	5.4	4	-1E+10	1	-1E+10	1	-1E+10	1	-1E+10	1	-1E+10	1	-1E+10	1
4901784	64	C	04/05/2017	10:45	-132.248	43.837	0	649.40	0	4.1330	0	34.2950	4	27.217	0	643.189	0	16.7	4	5.3	4	-1E+10	1	-1E+10	1	-1E+10	1	-1E+10	1	-1E+10	1	-1E+10	1
4901784	64	C	04/05/2017	10:45	-132.248	43.837	0	655.00	0	4.1180	0	34.2990	4	27.221	0	648.727	0	16.3	4	5.2	4	-1E+10	1	-1E+10	1	-1E+10	1	-1E+10	1	-1E+10	1	-1E+10	1
4901784	64	C	04/05/2017	10:45	-132.248	43.837	0	660.60	0	4.0910	0	34.3050	4	27.229	0	654.265	0	16.0	4	5.1	4	-1E+10	1	-1E+10	1	-1E+10	1	-1E+10	1	-1E+10	1	-1E+10	1
4901784	64	C	04/05/2017	10:45	-132.248	43.837	0	665.50	0	4.0750	0	34.3090	4	27.234	0	659.110	0	15.7	4	5.0	4	-1E+10	1	-1E+10	1	-1E+10	1	-1E+10	1	-1E+10	1	-1E+10	1
4901784	64	C	04/05/2017	10:45	-132.248	43.837	0	670.40	0	4.0640	0	34.3120	4	27.237	0	663.955	0	15.4	4	4.9	4	-1E+10	1	-1E+10	1	-1E+10	1	-1E+10	1	-1E+10	1	-1E+10	1
4901784	64	C	04/05/2017	10:45	-132.248	43.837	0	675.40	0	4.0420	0	34.3180	4	27.244	0	668.899	0	15.1	4	4.8	4	-1E+10	1	-1E+10	1	-1E+10	1	-1E+10	1	-1E+10	1	-1E+10	1
4901784	64	C	04/05/2017	10:45	-132.248	43.837	0	680.40	0	4.0260	0	34.3220	4	27.249	0	673.843	0	14.9	4	4.7	4	-1E+10	1	-1E+10	1	-1E+10	1	-1E+10	1	-1E+10	1	-1E+10	1
4901784	64	C	04/05/2017	10:45	-132.248	43.837	0	685.50	0	4.0190	0	34.3240	4	27.252	0	678.885	0	14.7	4	4.6	4	-1E+10	1	-1E+10	1	-1E+10	1	-1E+10	1	-1E+10	1	-1E+10	1
4901784	64	C	04/05/2017	10:45	-132.248	43.837	0	690.60	0	4.0000	0	34.3300	4	27.258	0	683.928	0	14.4	4	4.6	4	-1E+10	1	-1E+10	1	-1E+10	1	-1E+10	1	-1E+10	1	-1E+10	1
4901784	64	C	04/05/2017	10:45	-132.248	43.837	0	695.80	0	3.9860	0	34.3330	4	27.262	0	689.069	0	14.1	4	4.5	4	-1E+10	1	-1E+10	1	-1E+10	1	-1E+10	1	-1E+10	1	-1E+10	1
4901784	64	C	04/05/2017	10:45	-132.248	43.837	0	700.00	0	3.9720	0	34.3390	4	27.269	0	693.221	0	13.9	4	4.4	4	-1E+10	1	-1E+10	1	-1E+10	1	-1E+10	1	-1E+10	1	-1E+10	1
4901784	64	C	04/05/2017	10:45	-132.248	43.837	0	704.30	0	3.9570	0	34.3440	4	27.274	0	697.472	0	13.7	4	4.3	4	-1E+10	1	-1E+10	1	-1E+10	1	-1E+10	1	-1E+10	1	-1E+10	1
4901784	64	C	04/05/2017	10:45	-132.248	43.837	0	709.40	0	3.9450	0	34.3470	4	27.278	0	702.514	0	13.5	4	4.3	4	-1E+10	1	-1E+10	1	-1E+10	1	-1E+10	1	-1E+10	1	-1E+10	1
4901784	64	C	04/05/2017	10:45	-132.248	43.837	0	714.50	0	3.9370	0	34.3500	4	27.281	0	707.556	0	13.3	4	4.2	4	-1E+10	1	-1E+10	1	-1E+10	1	-1E+10	1	-1E+10	1	-1E+10	1
4901784	64	C	04/05/2017	10:45	-132.248	43.837	0	719.60	0	3.9250	0	34.3540	4	27.285	0	712.598	0	13.2	4	4.2	4	-1E+10	1	-1E+10	1	-1E+10	1	-1E+10	1	-1E+10	1	-1E+10	1
4901784	64	C	04/05/2017	10:45	-132.248	43.837	0	724.70	0	3.9180	0	34.3560	4	27.288	0	717.640	0	13.1	4	4.1	4	-1E+10	1	-1E+10	1	-1E+10	1	-1E+10	1	-1E+10	1	-1E+10	1
4901784	64	C	04/05/2017	10:45	-132.248	43.837	0	729.90	0	3.9070	0	34.3600	4	27.292	0	722.780	0	12.9	4	4.1	4	-1E+10	1	-1E+10	1	-1E+10	1	-1E+10	1	-1E+10	1	-1E+10	1
4901784	64	C	04/05/2017	10:45	-132.248	43.837	0	735.10	0	3.8930	0	34.3630	4	27.296	0	727.920	0	12.8	4	4.0	4	-1E+10	1	-1E+10	1	-1E+10	1	-1E+10	1	-1E+10	1	-1E+10	1
4901784	64	C	04/05/2017	10:45	-132.248	43.837	0	740.30	0	3.8790	0	34.3670	4	27.301	0	733.060	0	12.6	4	4.0	4	-1E+10	1	-1E+10	1	-1E+10	1	-1E+10	1	-1E+10	1	-1E+10	1
4901784	64	C	04/05/2017	10:45	-132.248	43.837	0	745.60	0	3.8570	0	34.3720	4	27.307	0	738.299	0	12.5	4	3.9	4	-1E+10	1	-1E+10	1	-1E+10	1	-1E+10	1	-1E+10	1	-1E+10	1
4901784	64	C	04/05/2017	10:45	-132.248	43.837	0	750.10	0	3.8500	0	34.3740	4	27.309	0	742.747	0	12.4	4	3.9	4	-1E+10	1	-1E+10	1	-1E+10	1	-1E+10	1	-1E+10	1	-1E+10	1
4901784	64	C	04/05/2017	10:45	-132.248	43.837	0	754.50	0	3.8450	0	34.3760	4	27.311	0	747.096	0	12.4	4	3.9	4	-1E+10	1	-1E+10	1	-1E+10	1	-1E+10	1	-1E+10	1	-1E+10	1
4901784	64	C	04/05/2017	10:45	-132.248	43.837	0	759.80	0	3.8380	0	34.3770	4	27.313	0	752.334	0	12.3	4	3.9	4	-1E+10	1	-1E+10	1	-1E+10	1	-1E+10	1	-1E+10	1	-1E+10	1
4901784	64	C	04/05/2017	10:45	-132.248	43.837	0	765.00	0	3.8240	0	34.3800	4	27.317	0	757.474	0	12.2	4	3.8	4	-1E+10	1	-1E+10	1	-1E+10	1	-1E+10	1	-1E+10	1	-1E+10	1
4901784	64	C	04/05/2017	10:45	-132.248	43.837	0	770.30	0	3.8060	0	34.3850	4	27.322	0	762.712	0	12.1	4	3.8	4	-1E+10	1	-1E+10	1	-1E+10	1	-1E+10	1	-1E+10	1	-1E+10	1
4901784	64	C	04/05/2017	10:45	-132.248	43.837	0	775.60	0	3.7900	0	34.3890	4	27.327	0	767.950	0	12.0	4	3.8	4	-1E+10	1	-1E+10	1	-1E+10	1	-1E+10	1	-1E+10	1	-1E+10	1
4901784	64	C	04/05/2017	10:45	-132.248	43.837	0	780.00	0	3.7840	0	34.3910	4	27.329	0	772.299	0	11.9	4	3.8	4	-1E+10	1	-1E+10	1	-1E+10	1	-1E+10	1	-1E+10	1	-1E+10	1
4901784	64	C	04/05/2017	10:45	-132.248	43.837	0	784.50	0	3.7750	0	34.3940	4	27.333	0	776.746	0	11.9	4	3.7	4	-1E+10	1	-1E+10	1	-1E+10	1	-1E+10	1	-1E+10	1	-1E+10	1
4901784	64	C	04/05/2017	10:45	-132.248	43.837	0	789.70	0	3.7650	0	34.3960	4	27.335	0	781.885	0	11.8	4	3.7	4	-1E+10	1	-1E+10	1	-1E+10	1	-1E+10	1	-1E+10	1	-1E+10	1
4901784	64	C	04/05/2017	10:45	-132.248	43.837	0	795.00	0	3.7520	0	34.4000	4	27.340	0	787.122	0	11.7	4	3.7	4	-1E+10	1	-1E+10	1	-1E+10	1	-1E+10	1	-1E+10	1	-1E+10	1
4901784	64	C	04/05/2017	10:45	-132.248	43.837	0	800.40	0	3.7340	0	34.4050	4	27.346	0	792.458	0	11.6	4	3.6	4	-1E+10	1	-1E+10	1	-1E+10	1	-1E+10	1	-1E+10	1	-1E+10	1
4901784	64	C	04/05/2017	10:45	-132.248	43.837	0	805.10	0	3.7200	0	34.4090	4	27.350	0	797.103	0	11.5	4	3.6	4	-1E+10	1	-1E+10	1	-1E+10	1	-1E+10	1	-1E+10	1	-1E+10	1
4901784	64	C	04/05/2017	10:45	-132.248	43.837	0	809.70	0	3.6960	0	34.4160	4	27.358	0	801.648	0	11.4	4	3.6	4	-1E+10	1	-1E+10	1	-1E+10	1	-1E+10	1	-1E+10	1	-1E+10	1
4901784	64	C	04/05/2017	10:45	-132.248	43.837	0	814.90	0	3.6790	0	34.4210	4	27.364	0	806.787	0	11.4	4	3.6	4	-1E+10	1	-1E+10	1	-1E+10	1	-1E+10	1	-1E+10	1	-1E+10	1
4901784	64	C	04/05/2017	10:45	-132.248	43.837	0	819.50	0	3.6640	0	34.4240	4	27.368	0	811.332	0	11.3	4	3.6	4	-1E+10	1	-1E+10	1	-1E+10	1	-1E+10	1	-1E+10	1	-1E+10	1
4901784	64	C	04/05/2017	10:45	-132.248	43.837	0	824.20	0	3.6390	0	34.4300	4	27.375	0	815.976	0	11.3	4	3.5	4	-1E+10	1	-1E+10	1	-1E+10	1	-1E+10	1	-1E+10	1	-1E+10	1
4901784	64	C	04/05/2017	10:45	-132.248	43.837	0	829.80	0	3.6290	0	34.4330	4	27.379	0	821.509	0	11.3	4	3.5	4	-1E+10	1	-1E+10	1	-1E+10	1	-1E+10	1	-1E+10	1	-1E+10	1
4901784	64	C	04/05/2017	10:45	-132.248	43.837	0	835.40	0	3.6230	0	34.4350	4	27.381	0	827.042	0	11.3	4	3.5	4	-1E+10	1	-1E+10	1	-1E+10	1	-1E+10	1	-1E+10	1	-1E+10	1
4901784	64	C	04/05/2017	10:45	-132.248	43.837	0	839.90	0	3.6190	0	34.4360	4	27.382	0	831.488	0	11.3	4	3.5	4	-1E+10	1	-1E+10	1	-1E+10	1	-1E+10	1	-1E+10	1	-1E+10	1
4901784	64	C	04/05/2017	10:45	-132.248	43.837	0	844.80	0	3.6120	0	34.4370	4	27.384	0	836.329	0	11.3	4	3.5	4	-1E+10	1	-1E+10	1	-1E+10	1	-1E+10	1	-1E+10	1	-1E+10	1
4901784	64	C	04/05/2017	10:45	-132.248	43.837	0	850.40	0	3.5890	0	34.4420	4	27.390	0	841.862	0	11.3	4	3.6	4	-1E+10	1	-1E+10	1	-1E+10	1	-1E+10	1	-1E+10	1	-1E+10	1
4901784	64	C	04/05/2017	10:45	-132.248	43.837	0	855.00	0	3.5710	0	34.4460	4	27.395	0	846.406	0	11.4	4	3.6	4	-1E+10	1	-1E+10	1	-1E+10	1	-1E+10	1	-1E+10	1	-1E+10	1
4901784	64	C	04/05/2017	10:45	-132.248	43.837	0	859.60	0	3.5610	0	34.4490	4	27.398	0	850.951	0	11.4	4	3.6	4	-1E+10	1	-1E+10	1	-1E+10	1	-1E+10	1	-1E+10	1	-1E+10	1
4901784	64	C	04/05/2017	10:45	-132.248	43.837	0	864.10	0	3.5450	0	34.4540	4	27.404	0	855.396	0	11.5	4	3.6	4	-1E+10	1	-1E+10	1	-1E+10	1	-1E+10	1	-1E+10	1	-1E+10	1
4901784	64	C	04/05/2017	10:45	-132.248	43.837	0	869.70	0	3.5380	0	34.4560	4	27.406	0	860.928	0	11.5	4	3.6	4	-1E+10	1	-1E+10	1	-1E+10	1	-1E+10	1	-1E+10	1	-1E+10	1
4901784	64	C	04/05/2017	10:45	-132.248	43.837	0	875.80	0	3.5300	0	34.4580	4	27.408	0	866.954	0	11.6	4	3.6	4	-1E+10	1	-1E+10	1	-1E+10	1	-1E+10	1	-1E+10	1	-1E+10	1
4901784	64	C	04/05/2017	10:45	-132.248	43.837	0	880.60	0	3.5050	0	34.4650	4	27.416	0	871.695	0	11.8	4	3.7	4	-1E+10	1	-1E+10	1	-1E+10	1	-1E+10	1	-1E+10	1	-1E+10	1
4901784	64	C	04/05/2017	10:45	-132.248	43.837	0	885.50	0	3.4810	0	34.4720	4	27.424	0	876.536	0	11.9	4	3.7	4	-1E+10	1	-1E+10	1	-1E+10	1	-1E+10	1	-1E+10	1	-1E+10	1
4901784	64	C	04/05/2017	10:45	-132.248	43.837	0	890.60	0	3.4680	0	34.4750	4	27.428	0	881.573	0	12.0	4	3.7	4	-1E+10	1	-1E+10	1	-1E+10	1	-1E+10	1	-1E+10	1	-1E+10	1
4901784	64	C	04/05/2017	10:45	-132.248	43.837	0	895.50	0	3.4550	0	34.4780	4	27.432	0	886.413	0	12.0	4	3.8	4	-1E+10	1	-1E+10	1	-1E+10	1	-1E+10	1	-1E+10	1	-1E+10	1
4901784	64	C	04/05/2017	10:45	-132.248	43.837	0	900.70	0	3.4420	0	34.4810	4	27.435	0	891.549	0	12.1	4	3.8	4	-1E+10	1	-1E+10	1	-1E+10	1	-1E+10	1	-1E+10	1	-1E+10	1
4901784	64	C	04/05/2017	10:45	-132.248	43.837	0	905.60	0	3.4310	0	34.4840	4	27.439	0	896.389	0	12.2	4	3.8	4	-1E+10	1	-1E+10	1	-1E+10	1	-1E+10	1	-1E+10	1	-1E+10	1
4901784	64	C	04/05/2017	10:45	-132.248	43.837	0	910.50	0	3.4210	0	34.4880	4	27.443	0	901.229	0	12.3	4	3.8	4	-1E+10	1	-1E+10	1	-1E+10	1	-1E+10	1	-1E+10	1	-1E+10	1
4901784	64	C	04/05/2017	10:45	-132.248	43.837	0	915.30	0	3.4170	0	34.4890	4	27.444	0	905.969	0	12.4	4	3.9	4	-1E+10	1	-1E+10	1	-1E+10	1	-1E+10	1	-1E+10	1	-1E+10	1
4901784	64	C	04/05/2017	10:45	-132.248	43.837	0	920.40	0	3.4090	0	34.4910	4	27.447	0	911.006	0	12.5	4	3.9	4	-1E+10	1	-1E+10	1	-1E+10	1	-1E+10	1	-1E+10	1	-1E+10	1
4901784	64	C	04/05/2017	10:45	-132.248	43.837	0	925.20	0	3.3910	0	34.4960	4	27.452	0	915.747	0	12.7	4	4.0	4	-1E+10	1	-1E+10	1	-1E+10	1	-1E+10	1	-1E+10	1	-1E+10	1
4901784	64	C	04/05/2017	10:45	-132.248	43.837	0	930.20	0	3.3820	0	34.4990	4	27.456	0	920.685	0	12.8	4	4.0	4	-1E+10	1	-1E+10	1	-1E+10	1	-1E+10	1	-1E+10	1	-1E+10	1
4901784	64	C	04/05/2017	10:45	-132.248	43.837	0	935.30	0	3.3810	0	34.5000	4	27.457	0	925.721	0	12.9	4	4.0	4	-1E+10	1	-1E+10	1	-1E+10	1	-1E+10	1	-1E+10	1	-1E+10	1
4901784	64	C	04/05/2017	10:45	-132.248	43.837	0	940.30	0	3.3760	0	34.5020	4	27.459	0	930.659	0	13.1	4	4.1	4	-1E+10	1	-1E+10	1	-1E+10	1	-1E+10	1	-1E+10	1	-1E+10	1
4901784	64	C	04/05/2017	10:45	-132.248	43.837	0	945.40	0	3.3690	0	34.5040	4	27.461	0	935.695	0	13.3	4	4.1	4	-1E+10	1	-1E+10	1	-1E+10	1	-1E+10	1	-1E+10	1	-1E+10	1
4901784	64	C	04/05/2017	10:45	-132.248	43.837	0	950.50	0	3.3550	0	34.5080	4	27.466	0	940.732	0	13.5	4	4.2	4	-1E+10	1	-1E+10	1	-1E+10	1	-1E+10	1	-1E+10	1	-1E+10	1
4901784	64	C	04/05/2017	10:45	-132.248	43.837	0	954.90	0	3.3470	0	34.5100	4	27.468	0	945.076	0	13.7	4	4.3	4	-1E+10	1	-1E+10	1	-1E+10	1	-1E+10	1	-1E+10	1	-1E+10	1
4901784	64	C	04/05/2017	10:45	-132.248	43.837	0	959.30	0	3.3410	0	34.5140	4	27.472	0	949.421	0	13.9	4	4.3	4	-1E+10	1	-1E+10	1	-1E+10	1	-1E+10	1	-1E+10	1	-1E+10	1
4901784	64	C	04/05/2017	10:45	-132.248	43.837	0	964.80	0	3.3410	0	34.5160	4	27.473	0	954.852	0	14.1	4	4.4	4	-1E+10	1	-1E+10	1	-1E+10	1	-1E+10	1	-1E+10	1	-1E+10	1
4901784	64	C	04/05/2017	10:45	-132.248	43.837	0	970.40	0	3.3390	0	34.5170	4	27.474	0	960.382	0	14.4	4	4.5	4	-1E+10	1	-1E+10	1	-1E+10	1	-1E+10	1	-1E+10	1	-1E+10	1
4901784	64	C	04/05/2017	10:45	-132.248	43.837	0	974.80	0	3.3290	0	34.5210	4	27.479	0	964.726	0	14.7	4	4.6	4	-1E+10	1	-1E+10	1	-1E+10	1	-1E+10	1	-1E+10	1	-1E+10	1
4901784	64	C	04/05/2017	10:45	-132.248	43.837	0	979.30	0	3.3220	0	34.5240	4	27.482	0	969.169	0	15.0	4	4.7	4	-1E+10	1	-1E+10	1	-1E+10	1	-1E+10	1	-1E+10	1	-1E+10	1
4901784	64	C	04/05/2017	10:45	-132.248	43.837	0	984.50	0	3.3200	0	34.5270	4	27.484	0	974.303	0	15.4	4	4.8	4	-1E+10	1	-1E+10	1	-1E+10	1	-1E+10	1	-1E+10	1	-1E+10	1
4901784	64	C	04/05/2017	10:45	-132.248	43.837	0	989.90	0	3.3220	0	34.5300	4	27.486	0	979.635	0	15.7	4	4.9	4	-1E+10	1	-1E+10	1	-1E+10	1	-1E+10	1	-1E+10	1	-1E+10	1
4901784	64	C	04/05/2017	10:45	-132.248	43.837	0	995.30	0	3.3230	0	34.5320	4	27.488	0	984.966	0	16.1	4	5.0	4	-1E+10	1	-1E+10	1	-1E+10	1	-1E+10	1	-1E+10	1	-1E+10	1
4901784	64	C	04/05/2017	10:45	-132.248	43.837	0	1000.60	0	3.3210	0	34.5350	4	27.491	0	990.198	0	16.5	4	5.1	4	-1E+10	1	-1E+10	1	-1E+10	1	-1E+10	1	-1E+10	1	-1E+10	1
4901784	64	C	04/05/2017	10:45	-132.248	43.837	0	1005.20	0	3.3190	0	34.5390	4	27.494	0	994.740	0	16.7	4	5.2	4	-1E+10	1	-1E+10	1	-1E+10	1	-1E+10	1	-1E+10	1	-1E+10	1
4901784	64	C	04/05/2017	10:45	-132.248	43.837	0	1009.70	0	3.3190	0	34.5400	4	27.495	0	999.182	0	16.9	4	5.3	4	-1E+10	1	-1E+10	1	-1E+10	1	-1E+10	1	-1E+10	1	-1E+10	1
4901784	64	C	04/05/2017	10:45	-132.248	43.837	0	1015.30	0	3.3210	0	34.5410	4	27.496	0	1004.710	0	17.1	4	5.3	4	-1E+10	1	-1E+10	1	-1E+10	1	-1E+10	1	-1E+10	1	-1E+10	1
4901784	64	C	04/05/2017	10:45	-132.248	43.837	0	1020.30	0	3.3210	0	34.5420	4	27.496	0	1009.646	0	17.2	4	5.4	4	-1E+10	1	-1E+10	1	-1E+10	1	-1E+10	1	-1E+10	1	-1E+10	1
4901784	64	C	04/05/2017	10:45	-132.248	43.837	0	1024.80	0	3.3170	0	34.5440	4	27.498	0	1014.088	0	17.4	4	5.4	4	-1E+10	1	-1E+10	1	-1E+10	1	-1E+10	1	-1E+10	1	-1E+10	1
4901784	64	C	04/05/2017	10:45	-132.248	43.837	0	1030.30	0	3.3140	0	34.5450	4	27.500	0	1019.517	0	17.5	4	5.5	4	-1E+10	1	-1E+10	1	-1E+10	1	-1E+10	1	-1E+10	1	-1E+10	1
4901784	64	C	04/05/2017	10:45	-132.248	43.837	0	1034.80	0	3.3130	0	34.5460	4	27.500	0	1023.959	0	17.7	4	5.5	4	-1E+10	1	-1E+10	1	-1E+10	1	-1E+10	1	-1E+10	1	-1E+10	1
4901784	64	C	04/05/2017	10:45	-132.248	43.837	0	1039.40	0	3.3110	0	34.5470	4	27.501	0	1028.500	0	17.8	4	5.5	4	-1E+10	1	-1E+10	1	-1E+10	1	-1E+10	1	-1E+10	1	-1E+10	1
4901784	64	C	04/05/2017	10:45	-132.248	43.837	0	1044.90	0	3.3100	0	34.5480	4	27.502	0	1033.929	0	18.0	4	5.6	4	-1E+10	1	-1E+10	1	-1E+10	1	-1E+10	1	-1E+10	1	-1E+10	1
4901784	64	C	04/05/2017	10:45	-132.248	43.837	0	1050.50	0	3.3080	0	34.5500	4	27.504	0	1039.456	0	18.3	4	5.7	4	-1E+10	1	-1E+10	1	-1E+10	1	-1E+10	1	-1E+10	1	-1E+10	1
4901784	64	C	04/05/2017	10:45	-132.248	43.837	0	1056.00	0	3.3040	0	34.5520	4	27.506	0	1044.884	0	18.6	4	5.8	4	-1E+10	1	-1E+10	1	-1E+10	1	-1E+10	1	-1E+10	1	-1E+10	1
4901784	64	C	04/05/2017	10:45	-132.248	43.837	0	1060.30	0	3.3080	0	34.5540	4	27.507	0	1049.129	0	18.9	4	5.9	4	-1E+10	1	-1E+10	1	-1E+10	1	-1E+10	1	-1E+10	1	-1E+10	1
4901784	64	C	04/05/2017	10:45	-132.248	43.837	0	1065.20	0	3.3080	0	34.5570	4	27.510	0	1053.964	0	19.2	4	6.0	4	-1E+10	1	-1E+10	1	-1E+10	1	-1E+10	1	-1E+10	1	-1E+10	1
4901784	64	C	04/05/2017	10:45	-132.248	43.837	0	1070.10	0	3.3040	0	34.5590	4	27.512	0	1058.800	0	19.5	4	6.1	4	-1E+10	1	-1E+10	1	-1E+10	1	-1E+10	1	-1E+10	1	-1E+10	1
4901784	64	C	04/05/2017	10:45	-132.248	43.837	0	1075.00	0	3.3050	0	34.5600	4	27.513	0	1063.636	0	19.8	4	6.2	4	-1E+10	1	-1E+10	1	-1E+10	1	-1E+10	1	-1E+10	1	-1E+10	1
4901784	64	C	04/05/2017	10:45	-132.248	43.837	0	1080.20	0	3.3080	0	34.5630	4	27.515	0	1068.768	0	20.1	4	6.3	4	-1E+10	1	-1E+10	1	-1E+10	1	-1E+10	1	-1E+10	1	-1E+10	1
4901784	64	C	04/05/2017	10:45	-132.248	43.837	0	1085.60	0	3.3050	0	34.5650	4	27.517	0	1074.097	0	20.2	4	6.3	4	-1E+10	1	-1E+10	1	-1E+10	1	-1E+10	1	-1E+10	1	-1E+10	1
4901784	64	C	04/05/2017	10:45	-132.248	43.837	0	1090.10	0	3.3010	0	34.5650	4	27.517	0	1078.538	0	20.2	4	6.3	4	-1E+10	1	-1E+10	1	-1E+10	1	-1E+10	1	-1E+10	1	-1E+10	1
4901784	64	C	04/05/2017	10:45	-132.248	43.837	0	1094.70	0	3.2900	0	34.5650	4	27.518	0	1083.077	0	20.2	4	6.3	4	-1E+10	1	-1E+10	1	-1E+10	1	-1E+10	1	-1E+10	1	-1E+10	1
4901784	64	C	04/05/2017	10:45	-132.248	43.837	0	1100.30	0	3.2790	0	34.5670	4	27.521	0	1088.603	0	20.6	4	6.4	4	-1E+10	1	-1E+10	1	-1E+10	1	-1E+10	1	-1E+10	1	-1E+10	1
4901784	64	C	04/05/2017	10:45	-132.248	43.837	0	1105.00	0	3.2760	0	34.5690	4	27.523	0	1093.241	0	21.0	4	6.5	4	-1E+10	1	-1E+10	1	-1E+10	1	-1E+10	1	-1E+10	1	-1E+10	1
4901784	64	C	04/05/2017	10:45	-132.248	43.837	0	1109.70	0	3.2810	0	34.5720	4	27.525	0	1097.879	0	21.4	4	6.7	4	-1E+10	1	-1E+10	1	-1E+10	1	-1E+10	1	-1E+10	1	-1E+10	1
4901784	64	C	04/05/2017	10:45	-132.248	43.837	0	1115.40	0	3.2870	0	34.5740	4	27.526	0	1103.503	0	21.7	4	6.8	4	-1E+10	1	-1E+10	1	-1E+10	1	-1E+10	1	-1E+10	1	-1E+10	1
4901784	64	C	04/05/2017	10:45	-132.248	43.837	0	1120.00	0	3.2900	0	34.5750	4	27.526	0	1108.042	0	22.1	4	6.9	4	-1E+10	1	-1E+10	1	-1E+10	1	-1E+10	1	-1E+10	1	-1E+10	1
4901784	64	C	04/05/2017	10:45	-132.248	43.837	0	1124.70	0	3.2960	0	34.5790	4	27.529	0	1112.679	0	22.6	4	7.0	4	-1E+10	1	-1E+10	1	-1E+10	1	-1E+10	1	-1E+10	1	-1E+10	1
4901784	64	C	04/05/2017	10:45	-132.248	43.837	0	1130.40	0	3.3020	0	34.5830	4	27.532	0	1118.303	0	23.1	4	7.2	4	-1E+10	1	-1E+10	1	-1E+10	1	-1E+10	1	-1E+10	1	-1E+10	1
4901784	64	C	04/05/2017	10:45	-132.248	43.837	0	1135.10	0	3.3010	0	34.5850	4	27.533	0	1122.940	0	23.2	4	7.2	4	-1E+10	1	-1E+10	1	-1E+10	1	-1E+10	1	-1E+10	1	-1E+10	1
4901784	64	C	04/05/2017	10:45	-132.248	43.837	0	1139.80	0	3.3020	0	34.5850	4	27.533	0	1127.577	0	23.3	4	7.2	4	-1E+10	1	-1E+10	1	-1E+10	1	-1E+10	1	-1E+10	1	-1E+10	1
4901784	64	C	04/05/2017	10:45	-132.248	43.837	0	1145.50	0	3.3010	0	34.5850	4	27.534	0	1133.201	0	23.3	4	7.3	4	-1E+10	1	-1E+10	1	-1E+10	1	-1E+10	1	-1E+10	1	-1E+10	1
4901784	64	C	04/05/2017	10:45	-132.248	43.837	0	1150.30	0	3.2980	0	34.5860	4	27.535	0	1137.936	0	23.4	4	7.3	4	-1E+10	1	-1E+10	1	-1E+10	1	-1E+10	1	-1E+10	1	-1E+10	1
4901784	64	C	04/05/2017	10:45	-132.248	43.837	0	1155.10	0	3.2960	0	34.5860	4	27.535	0	1142.672	0	23.4	4	7.3	4	-1E+10	1	-1E+10	1	-1E+10	1	-1E+10	1	-1E+10	1	-1E+10	1
4901784	64	C	04/05/2017	10:45	-132.248	43.837	0	1160.10	0	3.2930	0	34.5860	4	27.535	0	1147.604	0	23.4	4	7.3	4	-1E+10	1	-1E+10	1	-1E+10	1	-1E+10	1	-1E+10	1	-1E+10	1
4901784	64	C	04/05/2017	10:45	-132.248	43.837	0	1165.00	0	3.2850	0	34.5870	4	27.537	0	1152.438	0	23.5	4	7.3	4	-1E+10	1	-1E+10	1	-1E+10	1	-1E+10	1	-1E+10	1	-1E+10	1
4901784	64	C	04/05/2017	10:45	-132.248	43.837	0	1169.80	0	3.2810	0	34.5870	4	27.537	0	1157.173	0	23.6	4	7.3	4	-1E+10	1	-1E+10	1	-1E+10	1	-1E+10	1	-1E+10	1	-1E+10	1
4901784	64	C	04/05/2017	10:45	-132.248	43.837	0	1174.80	0	3.2810	0	34.5880	4	27.538	0	1162.105	0	23.9	4	7.4	4	-1E+10	1	-1E+10	1	-1E+10	1	-1E+10	1	-1E+10	1	-1E+10	1
4901784	64	C	04/05/2017	10:45	-132.248	43.837	0	1179.80	0	3.2780	0	34.5910	4	27.541	0	1167.038	0	24.2	4	7.5	4	-1E+10	1	-1E+10	1	-1E+10	1	-1E+10	1	-1E+10	1	-1E+10	1
4901784	64	C	04/05/2017	10:45	-132.248	43.837	0	1184.90	0	3.2740	0	34.5930	4	27.543	0	1172.068	0	24.4	4	7.6	4	-1E+10	1	-1E+10	1	-1E+10	1	-1E+10	1	-1E+10	1	-1E+10	1
4901784	64	C	04/05/2017	10:45	-132.248	43.837	0	1189.90	0	3.2710	0	34.5930	4	27.543	0	1177.000	0	24.4	4	7.6	4	-1E+10	1	-1E+10	1	-1E+10	1	-1E+10	1	-1E+10	1	-1E+10	1
4901784	64	C	04/05/2017	10:45	-132.248	43.837	0	1195.00	0	3.2580	0	34.5940	4	27.545	0	1182.030	0	24.5	4	7.6	4	-1E+10	1	-1E+10	1	-1E+10	1	-1E+10	1	-1E+10	1	-1E+10	1
4901784	64	C	04/05/2017	10:45	-132.248	43.837	0	1200.00	0	3.2520	0	34.5950	4	27.546	0	1186.962	0	24.6	4	7.6	4	-1E+10	1	-1E+10	1	-1E+10	1	-1E+10	1	-1E+10	1	-1E+10	1
4901784	64	C	04/05/2017	10:45	-132.248	43.837	0	1205.10	0	3.2510	0	34.5950	4	27.547	0	1191.992	0	24.7	4	7.7	4	-1E+10	1	-1E+10	1	-1E+10	1	-1E+10	1	-1E+10	1	-1E+10	1
4901784	64	C	04/05/2017	10:45	-132.248	43.837	0	1210.20	0	3.2530	0	34.5960	4	27.547	0	1197.022	0	24.9	4	7.8	4	-1E+10	1	-1E+10	1	-1E+10	1	-1E+10	1	-1E+10	1	-1E+10	1
4901784	64	C	04/05/2017	10:45	-132.248	43.837	0	1215.30	0	3.2440	0	34.5980	4	27.550	0	1202.052	0	25.2	4	7.8	4	-1E+10	1	-1E+10	1	-1E+10	1	-1E+10	1	-1E+10	1	-1E+10	1
4901784	64	C	04/05/2017	10:45	-132.248	43.837	0	1220.20	0	3.2370	0	34.6010	4	27.553	0	1206.884	0	25.4	4	7.9	4	-1E+10	1	-1E+10	1	-1E+10	1	-1E+10	1	-1E+10	1	-1E+10	1
4901784	64	C	04/05/2017	10:45	-132.248	43.837	0	1225.50	0	3.2270	0	34.6000	4	27.553	0	1212.111	0	25.5	4	7.9	4	-1E+10	1	-1E+10	1	-1E+10	1	-1E+10	1	-1E+10	1	-1E+10	1
4901784	64	C	04/05/2017	10:45	-132.248	43.837	0	1230.50	0	3.2290	0	34.6020	4	27.554	0	1217.042	0	25.7	4	8.0	4	-1E+10	1	-1E+10	1	-1E+10	1	-1E+10	1	-1E+10	1	-1E+10	1
4901784	64	C	04/05/2017	10:45	-132.248	43.837	0	1235.30	0	3.2190	0	34.6020	4	27.555	0	1221.776	0	25.8	4	8.0	4	-1E+10	1	-1E+10	1	-1E+10	1	-1E+10	1	-1E+10	1	-1E+10	1
4901784	64	C	04/05/2017	10:45	-132.248	43.837	0	1240.10	0	3.2040	0	34.6040	4	27.558	0	1226.509	0	25.9	4	8.0	4	-1E+10	1	-1E+10	1	-1E+10	1	-1E+10	1	-1E+10	1	-1E+10	1
4901784	64	C	04/05/2017	10:45	-132.248	43.837	0	1245.00	0	3.1860	0	34.6040	4	27.560	0	1231.341	0	26.0	4	8.1	4	-1E+10	1	-1E+10	1	-1E+10	1	-1E+10	1	-1E+10	1	-1E+10	1
4901784	64	C	04/05/2017	10:45	-132.248	43.837	0	1249.90	0	3.1760	0	34.6060	4	27.563	0	1236.173	0	26.2	4	8.1	4	-1E+10	1	-1E+10	1	-1E+10	1	-1E+10	1	-1E+10	1	-1E+10	1
4901784	64	C	04/05/2017	10:45	-132.248	43.837	0	1254.80	0	3.1610	0	34.6070	4	27.565	0	1241.005	0	26.3	4	8.2	4	-1E+10	1	-1E+10	1	-1E+10	1	-1E+10	1	-1E+10	1	-1E+10	1
4901784	64	C	04/05/2017	10:45	-132.248	43.837	0	1259.60	0	3.1470	0	34.6080	4	27.567	0	1245.738	0	26.6	4	8.2	4	-1E+10	1	-1E+10	1	-1E+10	1	-1E+10	1	-1E+10	1	-1E+10	1
4901784	64	C	04/05/2017	10:45	-132.248	43.837	0	1264.50	0	3.1390	0	34.6100	4	27.569	0	1250.570	0	26.8	4	8.3	4	-1E+10	1	-1E+10	1	-1E+10	1	-1E+10	1	-1E+10	1	-1E+10	1
4901784	64	C	04/05/2017	10:45	-132.248	43.837	0	1269.50	0	3.1420	0	34.6110	4	27.570	0	1255.500	0	26.9	4	8.4	4	-1E+10	1	-1E+10	1	-1E+10	1	-1E+10	1	-1E+10	1	-1E+10	1
4901784	64	C	04/05/2017	10:45	-132.248	43.837	0	1274.40	0	3.1430	0	34.6120	4	27.571	0	1260.331	0	27.0	4	8.4	4	-1E+10	1	-1E+10	1	-1E+10	1	-1E+10	1	-1E+10	1	-1E+10	1
4901784	64	C	04/05/2017	10:45	-132.248	43.837	0	1279.40	0	3.1440	0	34.6120	4	27.571	0	1265.261	0	27.1	4	8.4	4	-1E+10	1	-1E+10	1	-1E+10	1	-1E+10	1	-1E+10	1	-1E+10	1
4901784	64	C	04/05/2017	10:45	-132.248	43.837	0	1284.50	0	3.1460	0	34.6130	4	27.571	0	1270.289	0	27.2	4	8.4	4	-1E+10	1	-1E+10	1	-1E+10	1	-1E+10	1	-1E+10	1	-1E+10	1
4901784	64	C	04/05/2017	10:45	-132.248	43.837	0	1289.70	0	3.1380	0	34.6130	4	27.572	0	1275.416	0	27.2	4	8.4	4	-1E+10	1	-1E+10	1	-1E+10	1	-1E+10	1	-1E+10	1	-1E+10	1
4901784	64	C	04/05/2017	10:45	-132.248	43.837	0	1294.90	0	3.1290	0	34.6130	4	27.573	0	1280.542	0	27.2	4	8.4	4	-1E+10	1	-1E+10	1	-1E+10	1	-1E+10	1	-1E+10	1	-1E+10	1
4901784	64	C	04/05/2017	10:45	-132.248	43.837	0	1300.30	0	3.1250	0	34.6130	4	27.573	0	1285.866	0	27.1	4	8.4	4	-1E+10	1	-1E+10	1	-1E+10	1	-1E+10	1	-1E+10	1	-1E+10	1
4901784	64	C	04/05/2017	10:45	-132.248	43.837	0	1305.50	0	3.1220	0	34.6130	4	27.574	0	1290.992	0	27.1	4	8.4	4	-1E+10	1	-1E+10	1	-1E+10	1	-1E+10	1	-1E+10	1	-1E+10	1
4901784	64	C	04/05/2017	10:45	-132.248	43.837	0	1310.00	0	3.1140	0	34.6130	4	27.574	0	1295.428	0	27.0	4	8.4	4	-1E+10	1	-1E+10	1	-1E+10	1	-1E+10	1	-1E+10	1	-1E+10	1
4901784	64	C	04/05/2017	10:45	-132.248	43.837	0	1314.50	0	3.1080	0	34.6120	4	27.574	0	1299.864	0	26.9	4	8.3	4	-1E+10	1	-1E+10	1	-1E+10	1	-1E+10	1	-1E+10	1	-1E+10	1
4901784	64	C	04/05/2017	10:45	-132.248	43.837	0	1319.90	0	3.1020	0	34.6120	4	27.575	0	1305.188	0	26.9	4	8.3	4	-1E+10	1	-1E+10	1	-1E+10	1	-1E+10	1	-1E+10	1	-1E+10	1
4901784	64	C	04/05/2017	10:45	-132.248	43.837	0	1325.40	0	3.0970	0	34.6120	4	27.575	0	1310.609	0	26.9	4	8.3	4	-1E+10	1	-1E+10	1	-1E+10	1	-1E+10	1	-1E+10	1	-1E+10	1
4901784	64	C	04/05/2017	10:45	-132.248	43.837	0	1329.90	0	3.0890	0	34.6120	4	27.576	0	1315.045	0	26.9	4	8.3	4	-1E+10	1	-1E+10	1	-1E+10	1	-1E+10	1	-1E+10	1	-1E+10	1
4901784	64	C	04/05/2017	10:45	-132.248	43.837	0	1334.60	0	3.0820	0	34.6120	4	27.577	0	1319.678	0	27.0	4	8.4	4	-1E+10	1	-1E+10	1	-1E+10	1	-1E+10	1	-1E+10	1	-1E+10	1
4901784	64	C	04/05/2017	10:45	-132.248	43.837	0	1340.20	0	3.0670	0	34.6120	4	27.578	0	1325.198	0	26.9	4	8.3	4	-1E+10	1	-1E+10	1	-1E+10	1	-1E+10	1	-1E+10	1	-1E+10	1
4901784	64	C	04/05/2017	10:45	-132.248	43.837	0	1344.80	0	3.0430	0	34.6130	4	27.581	0	1329.732	0	27.0	4	8.3	4	-1E+10	1	-1E+10	1	-1E+10	1	-1E+10	1	-1E+10	1	-1E+10	1
4901784	64	C	04/05/2017	10:45	-132.248	43.837	0	1349.40	0	3.0390	0	34.6130	4	27.581	0	1334.265	0	27.0	4	8.4	4	-1E+10	1	-1E+10	1	-1E+10	1	-1E+10	1	-1E+10	1	-1E+10	1
4901784	64	C	04/05/2017	10:45	-132.248	43.837	0	1355.00	0	3.0230	0	34.6140	4	27.584	0	1339.785	0	27.0	4	8.4	4	-1E+10	1	-1E+10	1	-1E+10	1	-1E+10	1	-1E+10	1	-1E+10	1
4901784	64	C	04/05/2017	10:45	-132.248	43.837	0	1359.80	0	3.0150	0	34.6140	4	27.584	0	1344.516	0	26.9	4	8.3	4	-1E+10	1	-1E+10	1	-1E+10	1	-1E+10	1	-1E+10	1	-1E+10	1
4901784	64	C	04/05/2017	10:45	-132.248	43.837	0	1364.50	0	2.9910	0	34.6140	4	27.587	0	1349.148	0	26.9	4	8.3	4	-1E+10	1	-1E+10	1	-1E+10	1	-1E+10	1	-1E+10	1	-1E+10	1
4901784	64	C	04/05/2017	10:45	-132.248	43.837	0	1370.20	0	2.9810	0	34.6140	4	27.588	0	1354.765	0	26.9	4	8.3	4	-1E+10	1	-1E+10	1	-1E+10	1	-1E+10	1	-1E+10	1	-1E+10	1
4901784	64	C	04/05/2017	10:45	-132.248	43.837	0	1374.90	0	2.9730	0	34.6140	4	27.588	0	1359.397	0	26.8	4	8.3	4	-1E+10	1	-1E+10	1	-1E+10	1	-1E+10	1	-1E+10	1	-1E+10	1
4901784	64	C	04/05/2017	10:45	-132.248	43.837	0	1379.70	0	2.9630	0	34.6140	4	27.589	0	1364.128	0	26.8	4	8.3	4	-1E+10	1	-1E+10	1	-1E+10	1	-1E+10	1	-1E+10	1	-1E+10	1
4901784	64	C	04/05/2017	10:45	-132.248	43.837	0	1384.90	0	2.9610	0	34.6140	4	27.589	0	1369.252	0	26.8	4	8.3	4	-1E+10	1	-1E+10	1	-1E+10	1	-1E+10	1	-1E+10	1	-1E+10	1
4901784	64	C	04/05/2017	10:45	-132.248	43.837	0	1390.00	0	2.9570	0	34.6140	4	27.590	0	1374.278	0	26.7	4	8.2	4	-1E+10	1	-1E+10	1	-1E+10	1	-1E+10	1	-1E+10	1	-1E+10	1
4901784	64	C	04/05/2017	10:45	-132.248	43.837	0	1395.70	0	2.9490	0	34.6130	4	27.590	0	1379.895	0	26.7	4	8.2	4	-1E+10	1	-1E+10	1	-1E+10	1	-1E+10	1	-1E+10	1	-1E+10	1
4901784	64	C	04/05/2017	10:45	-132.248	43.837	0	1400.50	0	2.9400	0	34.6130	4	27.591	0	1384.625	0	26.6	4	8.2	4	-1E+10	1	-1E+10	1	-1E+10	1	-1E+10	1	-1E+10	1	-1E+10	1
4901784	64	C	04/05/2017	10:45	-132.248	43.837	0	1405.50	0	2.9310	0	34.6130	4	27.591	0	1389.552	0	26.6	4	8.2	4	-1E+10	1	-1E+10	1	-1E+10	1	-1E+10	1	-1E+10	1	-1E+10	1
4901784	64	C	04/05/2017	10:45	-132.248	43.837	0	1410.40	0	2.9200	0	34.6130	4	27.593	0	1394.380	0	26.5	4	8.2	4	-1E+10	1	-1E+10	1	-1E+10	1	-1E+10	1	-1E+10	1	-1E+10	1
4901784	64	C	04/05/2017	10:45	-132.248	43.837	0	1415.40	0	2.9050	0	34.6120	4	27.593	0	1399.306	0	26.4	4	8.1	4	-1E+10	1	-1E+10	1	-1E+10	1	-1E+10	1	-1E+10	1	-1E+10	1
4901784	64	C	04/05/2017	10:45	-132.248	43.837	0	1420.40	0	2.8890	0	34.6130	4	27.595	0	1404.233	0	26.4	4	8.1	4	-1E+10	1	-1E+10	1	-1E+10	1	-1E+10	1	-1E+10	1	-1E+10	1
4901784	64	C	04/05/2017	10:45	-132.248	43.837	0	1425.40	0	2.8840	0	34.6120	4	27.595	0	1409.159	0	26.4	4	8.1	4	-1E+10	1	-1E+10	1	-1E+10	1	-1E+10	1	-1E+10	1	-1E+10	1
4901784	64	C	04/05/2017	10:45	-132.248	43.837	0	1430.40	0	2.8760	0	34.6130	4	27.597	0	1414.086	0	26.4	4	8.1	4	-1E+10	1	-1E+10	1	-1E+10	1	-1E+10	1	-1E+10	1	-1E+10	1
4901784	64	C	04/05/2017	10:45	-132.248	43.837	0	1435.40	0	2.8680	0	34.6130	4	27.597	0	1419.012	0	26.4	4	8.1	4	-1E+10	1	-1E+10	1	-1E+10	1	-1E+10	1	-1E+10	1	-1E+10	1
4901784	64	C	04/05/2017	10:45	-132.248	43.837	0	1440.40	0	2.8610	0	34.6120	4	27.597	0	1423.938	0	26.4	4	8.1	4	-1E+10	1	-1E+10	1	-1E+10	1	-1E+10	1	-1E+10	1	-1E+10	1
4901784	64	C	04/05/2017	10:45	-132.248	43.837	0	1445.50	0	2.8400	0	34.6130	4	27.600	0	1428.962	0	26.4	4	8.1	4	-1E+10	1	-1E+10	1	-1E+10	1	-1E+10	1	-1E+10	1	-1E+10	1
4901784	64	C	04/05/2017	10:45	-132.248	43.837	0	1450.50	0	2.8300	0	34.6130	4	27.601	0	1433.888	0	26.3	4	8.1	4	-1E+10	1	-1E+10	1	-1E+10	1	-1E+10	1	-1E+10	1	-1E+10	1
4901784	64	C	04/05/2017	10:45	-132.248	43.837	0	1455.50	0	2.8110	0	34.6120	4	27.602	0	1438.814	0	26.2	4	8.1	4	-1E+10	1	-1E+10	1	-1E+10	1	-1E+10	1	-1E+10	1	-1E+10	1
4901784	64	C	04/05/2017	10:45	-132.248	43.837	0	1460.50	0	2.7910	0	34.6120	4	27.603	0	1443.739	0	26.1	4	8.0	4	-1E+10	1	-1E+10	1	-1E+10	1	-1E+10	1	-1E+10	1	-1E+10	1
4901784	64	C	04/05/2017	10:45	-132.248	43.837	0	1465.50	0	2.7820	0	34.6120	4	27.604	0	1448.665	0	26.1	4	8.0	4	-1E+10	1	-1E+10	1	-1E+10	1	-1E+10	1	-1E+10	1	-1E+10	1
4901784	64	C	04/05/2017	10:45	-132.248	43.837	0	1470.60	0	2.7720	0	34.6120	4	27.605	0	1453.689	0	26.1	4	8.0	4	-1E+10	1	-1E+10	1	-1E+10	1	-1E+10	1	-1E+10	1	-1E+10	1
4901784	64	C	04/05/2017	10:45	-132.248	43.837	0	1475.60	0	2.7620	0	34.6120	4	27.606	0	1458.614	0	26.2	4	8.0	4	-1E+10	1	-1E+10	1	-1E+10	1	-1E+10	1	-1E+10	1	-1E+10	1
4901784	64	C	04/05/2017	10:45	-132.248	43.837	0	1480.80	0	2.7540	0	34.6120	4	27.607	0	1463.736	0	26.2	4	8.1	4	-1E+10	1	-1E+10	1	-1E+10	1	-1E+10	1	-1E+10	1	-1E+10	1
4901784	64	C	04/05/2017	10:45	-132.248	43.837	0	1485.10	0	2.7440	0	34.6130	4	27.608	0	1467.972	0	26.3	4	8.1	4	-1E+10	1	-1E+10	1	-1E+10	1	-1E+10	1	-1E+10	1	-1E+10	1
4901784	64	C	04/05/2017	10:45	-132.248	43.837	0	1489.40	0	2.7390	0	34.6120	4	27.608	0	1472.207	0	26.4	4	8.1	4	-1E+10	1	-1E+10	1	-1E+10	1	-1E+10	1	-1E+10	1	-1E+10	1
4901784	64	C	04/05/2017	10:45	-132.248	43.837	0	1494.50	0	2.7250	0	34.6130	4	27.610	0	1477.230	0	26.5	4	8.1	4	-1E+10	1	-1E+10	1	-1E+10	1	-1E+10	1	-1E+10	1	-1E+10	1
4901784	64	C	04/05/2017	10:45	-132.248	43.837	0	1499.80	0	2.7070	0	34.6130	4	27.612	0	1482.451	0	26.6	4	8.2	4	-1E+10	1	-1E+10	1	-1E+10	1	-1E+10	1	-1E+10	1	-1E+10	1
4901784	64	C	04/05/2017	10:45	-132.248	43.837	0	1505.10	0	2.6780	0	34.6140	4	27.615	0	1487.671	0	26.9	4	8.2	4	-1E+10	1	-1E+10	1	-1E+10	1	-1E+10	1	-1E+10	1	-1E+10	1
4901784	64	C	04/05/2017	10:45	-132.248	43.837	0	1510.30	0	2.6630	0	34.6150	4	27.617	0	1492.792	0	27.0	4	8.3	4	-1E+10	1	-1E+10	1	-1E+10	1	-1E+10	1	-1E+10	1	-1E+10	1
4901784	64	C	04/05/2017	10:45	-132.248	43.837	0	1515.50	0	2.6480	0	34.6150	4	27.618	0	1497.913	0	27.1	4	8.3	4	-1E+10	1	-1E+10	1	-1E+10	1	-1E+10	1	-1E+10	1	-1E+10	1
4901784	64	C	04/05/2017	10:45	-132.248	43.837	0	1520.70	0	2.6290	0	34.6160	4	27.621	0	1503.035	0	27.3	4	8.4	4	-1E+10	1	-1E+10	1	-1E+10	1	-1E+10	1	-1E+10	1	-1E+10	1
4901784	64	C	04/05/2017	10:45	-132.248	43.837	0	1525.10	0	2.6110	0	34.6170	4	27.623	0	1507.368	0	27.4	4	8.4	4	-1E+10	1	-1E+10	1	-1E+10	1	-1E+10	1	-1E+10	1	-1E+10	1
4901784	64	C	04/05/2017	10:45	-132.248	43.837	0	1529.50	0	2.6060	0	34.6170	4	27.624	0	1511.701	0	27.5	4	8.4	4	-1E+10	1	-1E+10	1	-1E+10	1	-1E+10	1	-1E+10	1	-1E+10	1
4901784	64	C	04/05/2017	10:45	-132.248	43.837	0	1534.70	0	2.5910	0	34.6180	4	27.626	0	1516.822	0	27.6	4	8.5	4	-1E+10	1	-1E+10	1	-1E+10	1	-1E+10	1	-1E+10	1	-1E+10	1
4901784	64	C	04/05/2017	10:45	-132.248	43.837	0	1540.00	0	2.5750	0	34.6180	4	27.627	0	1522.041	0	27.8	4	8.5	4	-1E+10	1	-1E+10	1	-1E+10	1	-1E+10	1	-1E+10	1	-1E+10	1
4901784	64	C	04/05/2017	10:45	-132.248	43.837	0	1545.40	0	2.5560	0	34.6190	4	27.630	0	1527.359	0	28.0	4	8.6	4	-1E+10	1	-1E+10	1	-1E+10	1	-1E+10	1	-1E+10	1	-1E+10	1
4901784	64	C	04/05/2017	10:45	-132.248	43.837	0	1549.90	0	2.5470	0	34.6190	4	27.630	0	1531.790	0	28.1	4	8.6	4	-1E+10	1	-1E+10	1	-1E+10	1	-1E+10	1	-1E+10	1	-1E+10	1
4901784	64	C	04/05/2017	10:45	-132.248	43.837	0	1554.30	0	2.5350	0	34.6200	4	27.632	0	1536.122	0	28.4	4	8.7	4	-1E+10	1	-1E+10	1	-1E+10	1	-1E+10	1	-1E+10	1	-1E+10	1
4901784	64	C	04/05/2017	10:45	-132.248	43.837	0	1559.80	0	2.5130	0	34.6210	4	27.635	0	1541.538	0	28.6	4	8.8	4	-1E+10	1	-1E+10	1	-1E+10	1	-1E+10	1	-1E+10	1	-1E+10	1
4901784	64	C	04/05/2017	10:45	-132.248	43.837	0	1565.20	0	2.4960	0	34.6220	4	27.637	0	1546.855	0	28.9	4	8.8	4	-1E+10	1	-1E+10	1	-1E+10	1	-1E+10	1	-1E+10	1	-1E+10	1
4901784	64	C	04/05/2017	10:45	-132.248	43.837	0	1570.60	0	2.4870	0	34.6230	4	27.639	0	1552.172	0	29.2	4	8.9	4	-1E+10	1	-1E+10	1	-1E+10	1	-1E+10	1	-1E+10	1	-1E+10	1
4901784	64	C	04/05/2017	10:45	-132.248	43.837	0	1575.10	0	2.4790	0	34.6230	4	27.639	0	1556.603	0	29.5	4	9.0	4	-1E+10	1	-1E+10	1	-1E+10	1	-1E+10	1	-1E+10	1	-1E+10	1
4901784	64	C	04/05/2017	10:45	-132.248	43.837	0	1580.30	0	2.4600	0	34.6250	4	27.643	0	1561.722	0	30.0	4	9.2	4	-1E+10	1	-1E+10	1	-1E+10	1	-1E+10	1	-1E+10	1	-1E+10	1
4901784	64	C	04/05/2017	10:45	-132.248	43.837	0	1585.30	0	2.4400	0	34.6270	4	27.646	0	1566.645	0	30.5	4	9.3	4	-1E+10	1	-1E+10	1	-1E+10	1	-1E+10	1	-1E+10	1	-1E+10	1
4901784	64	C	04/05/2017	10:45	-132.248	43.837	0	1590.00	0	2.4270	0	34.6290	4	27.649	0	1571.272	0	30.8	4	9.4	4	-1E+10	1	-1E+10	1	-1E+10	1	-1E+10	1	-1E+10	1	-1E+10	1
4901784	64	C	04/05/2017	10:45	-132.248	43.837	0	1594.80	0	2.4180	0	34.6290	4	27.649	0	1575.998	0	31.3	4	9.5	4	-1E+10	1	-1E+10	1	-1E+10	1	-1E+10	1	-1E+10	1	-1E+10	1
4901784	64	C	04/05/2017	10:45	-132.248	43.837	0	1599.60	0	2.4000	0	34.6310	4	27.653	0	1580.723	0	31.7	4	9.6	4	-1E+10	1	-1E+10	1	-1E+10	1	-1E+10	1	-1E+10	1	-1E+10	1
4901784	64	C	04/05/2017	10:45	-132.248	43.837	0	1604.50	0	2.3900	0	34.6320	4	27.654	0	1585.547	0	32.0	4	9.7	4	-1E+10	1	-1E+10	1	-1E+10	1	-1E+10	1	-1E+10	1	-1E+10	1
4901784	64	C	04/05/2017	10:45	-132.248	43.837	0	1609.30	0	2.3820	0	34.6330	4	27.656	0	1590.273	0	32.3	4	9.8	4	-1E+10	1	-1E+10	1	-1E+10	1	-1E+10	1	-1E+10	1	-1E+10	1
4901784	64	C	04/05/2017	10:45	-132.248	43.837	0	1614.30	0	2.3670	0	34.6350	4	27.659	0	1595.195	0	32.6	4	9.9	4	-1E+10	1	-1E+10	1	-1E+10	1	-1E+10	1	-1E+10	1	-1E+10	1
4901784	64	C	04/05/2017	10:45	-132.248	43.837	0	1619.30	0	2.3670	0	34.6350	4	27.659	0	1600.117	0	32.8	4	10.0	4	-1E+10	1	-1E+10	1	-1E+10	1	-1E+10	1	-1E+10	1	-1E+10	1
4901784	64	C	04/05/2017	10:45	-132.248	43.837	0	1624.30	0	2.3640	0	34.6350	4	27.659	0	1605.038	0	33.2	4	10.1	4	-1E+10	1	-1E+10	1	-1E+10	1	-1E+10	1	-1E+10	1	-1E+10	1
4901784	64	C	04/05/2017	10:45	-132.248	43.837	0	1629.30	0	2.3400	0	34.6380	4	27.663	0	1609.960	0	33.7	4	10.3	4	-1E+10	1	-1E+10	1	-1E+10	1	-1E+10	1	-1E+10	1	-1E+10	1
4901784	64	C	04/05/2017	10:45	-132.248	43.837	0	1634.30	0	2.3350	0	34.6390	4	27.664	0	1614.882	0	33.9	4	10.3	4	-1E+10	1	-1E+10	1	-1E+10	1	-1E+10	1	-1E+10	1	-1E+10	1
4901784	64	C	04/05/2017	10:45	-132.248	43.837	0	1639.50	0	2.3330	0	34.6390	4	27.665	0	1620.000	0	34.1	4	10.4	4	-1E+10	1	-1E+10	1	-1E+10	1	-1E+10	1	-1E+10	1	-1E+10	1
4901784	64	C	04/05/2017	10:45	-132.248	43.837	0	1644.60	0	2.3270	0	34.6390	4	27.665	0	1625.020	0	34.6	4	10.5	4	-1E+10	1	-1E+10	1	-1E+10	1	-1E+10	1	-1E+10	1	-1E+10	1
4901784	64	C	04/05/2017	10:45	-132.248	43.837	0	1649.70	0	2.3140	0	34.6410	4	27.668	0	1630.039	0	35.2	4	10.7	4	-1E+10	1	-1E+10	1	-1E+10	1	-1E+10	1	-1E+10	1	-1E+10	1
4901784	64	C	04/05/2017	10:45	-132.248	43.837	0	1654.90	0	2.2940	0	34.6430	4	27.671	0	1635.158	0	35.9	4	10.9	4	-1E+10	1	-1E+10	1	-1E+10	1	-1E+10	1	-1E+10	1	-1E+10	1
4901784	64	C	04/05/2017	10:45	-132.248	43.837	0	1660.00	0	2.2800	0	34.6450	4	27.674	0	1640.177	0	36.4	4	11.1	4	-1E+10	1	-1E+10	1	-1E+10	1	-1E+10	1	-1E+10	1	-1E+10	1
4901784	64	C	04/05/2017	10:45	-132.248	43.837	0	1665.20	0	2.2720	0	34.6460	4	27.675	0	1645.295	0	36.8	4	11.2	4	-1E+10	1	-1E+10	1	-1E+10	1	-1E+10	1	-1E+10	1	-1E+10	1
4901784	64	C	04/05/2017	10:45	-132.248	43.837	0	1670.40	0	2.2610	0	34.6480	4	27.678	0	1650.412	0	37.1	4	11.3	4	-1E+10	1	-1E+10	1	-1E+10	1	-1E+10	1	-1E+10	1	-1E+10	1
4901784	64	C	04/05/2017	10:45	-132.248	43.837	0	1674.90	0	2.2590	0	34.6480	4	27.678	0	1654.841	0	37.4	4	11.3	4	-1E+10	1	-1E+10	1	-1E+10	1	-1E+10	1	-1E+10	1	-1E+10	1
4901784	64	C	04/05/2017	10:45	-132.248	43.837	0	1679.30	0	2.2550	0	34.6490	4	27.679	0	1659.171	0	37.7	4	11.4	4	-1E+10	1	-1E+10	1	-1E+10	1	-1E+10	1	-1E+10	1	-1E+10	1
4901784	64	C	04/05/2017	10:45	-132.248	43.837	0	1684.60	0	2.2470	0	34.6500	4	27.681	0	1664.387	0	38.1	4	11.6	4	-1E+10	1	-1E+10	1	-1E+10	1	-1E+10	1	-1E+10	1	-1E+10	1
4901784	64	C	04/05/2017	10:45	-132.248	43.837	0	1689.90	0	2.2400	0	34.6510	4	27.682	0	1669.602	0	38.5	4	11.7	4	-1E+10	1	-1E+10	1	-1E+10	1	-1E+10	1	-1E+10	1	-1E+10	1
4901784	64	C	04/05/2017	10:45	-132.248	43.837	0	1695.10	0	2.2340	0	34.6520	4	27.683	0	1674.719	0	38.9	4	11.8	4	-1E+10	1	-1E+10	1	-1E+10	1	-1E+10	1	-1E+10	1	-1E+10	1
4901784	64	C	04/05/2017	10:45	-132.248	43.837	0	1700.40	0	2.2200	0	34.6540	4	27.686	0	1679.935	0	39.6	4	12.0	4	-1E+10	1	-1E+10	1	-1E+10	1	-1E+10	1	-1E+10	1	-1E+10	1
4901784	64	C	04/05/2017	10:45	-132.248	43.837	0	1705.70	0	2.2070	0	34.6550	4	27.688	0	1685.150	0	40.2	4	12.2	4	-1E+10	1	-1E+10	1	-1E+10	1	-1E+10	1	-1E+10	1	-1E+10	1
4901784	64	C	04/05/2017	10:45	-132.248	43.837	0	1710.00	0	2.1970	0	34.6570	4	27.690	0	1689.381	0	40.5	4	12.3	4	-1E+10	1	-1E+10	1	-1E+10	1	-1E+10	1	-1E+10	1	-1E+10	1
4901784	64	C	04/05/2017	10:45	-132.248	43.837	0	1714.40	0	2.1930	0	34.6580	4	27.692	0	1693.710	0	40.7	4	12.3	4	-1E+10	1	-1E+10	1	-1E+10	1	-1E+10	1	-1E+10	1	-1E+10	1
4901784	64	C	04/05/2017	10:45	-132.248	43.837	0	1719.80	0	2.1900	0	34.6580	4	27.692	0	1699.023	0	41.0	4	12.4	4	-1E+10	1	-1E+10	1	-1E+10	1	-1E+10	1	-1E+10	1	-1E+10	1
4901784	64	C	04/05/2017	10:45	-132.248	43.837	0	1725.10	0	2.1820	0	34.6590	4	27.693	0	1704.238	0	41.4	4	12.5	4	-1E+10	1	-1E+10	1	-1E+10	1	-1E+10	1	-1E+10	1	-1E+10	1
4901784	64	C	04/05/2017	10:45	-132.248	43.837	0	1730.50	0	2.1780	0	34.6600	4	27.694	0	1709.551	0	41.7	4	12.6	4	-1E+10	1	-1E+10	1	-1E+10	1	-1E+10	1	-1E+10	1	-1E+10	1
4901784	64	C	04/05/2017	10:45	-132.248	43.837	0	1735.00	0	2.1730	0	34.6610	4	27.696	0	1713.978	0	42.0	4	12.7	4	-1E+10	1	-1E+10	1	-1E+10	1	-1E+10	1	-1E+10	1	-1E+10	1
4901784	64	C	04/05/2017	10:45	-132.248	43.837	0	1739.60	0	2.1690	0	34.6610	4	27.696	0	1718.504	0	42.3	4	12.8	4	-1E+10	1	-1E+10	1	-1E+10	1	-1E+10	1	-1E+10	1	-1E+10	1
4901784	64	C	04/05/2017	10:45	-132.248	43.837	0	1745.00	0	2.1650	0	34.6620	4	27.697	0	1723.817	0	42.9	4	13.0	4	-1E+10	1	-1E+10	1	-1E+10	1	-1E+10	1	-1E+10	1	-1E+10	1
4901784	64	C	04/05/2017	10:45	-132.248	43.837	0	1750.50	0	2.1500	0	34.6650	4	27.701	0	1729.227	0	43.6	4	13.2	4	-1E+10	1	-1E+10	1	-1E+10	1	-1E+10	1	-1E+10	1	-1E+10	1
4901784	64	C	04/05/2017	10:45	-132.248	43.837	0	1755.10	0	2.1440	0	34.6660	4	27.702	0	1733.753	0	43.9	4	13.3	4	-1E+10	1	-1E+10	1	-1E+10	1	-1E+10	1	-1E+10	1	-1E+10	1
4901784	64	C	04/05/2017	10:45	-132.248	43.837	0	1759.80	0	2.1390	0	34.6660	4	27.703	0	1738.376	0	44.4	4	13.4	4	-1E+10	1	-1E+10	1	-1E+10	1	-1E+10	1	-1E+10	1	-1E+10	1
4901784	64	C	04/05/2017	10:45	-132.248	43.837	0	1765.40	0	2.1290	0	34.6680	4	27.705	0	1743.885	0	44.9	4	13.6	4	-1E+10	1	-1E+10	1	-1E+10	1	-1E+10	1	-1E+10	1	-1E+10	1
4901784	64	C	04/05/2017	10:45	-132.248	43.837	0	1770.20	0	2.1230	0	34.6690	4	27.706	0	1748.607	0	45.2	4	13.7	4	-1E+10	1	-1E+10	1	-1E+10	1	-1E+10	1	-1E+10	1	-1E+10	1
4901784	64	C	04/05/2017	10:45	-132.248	43.837	0	1774.80	0	2.1200	0	34.6690	4	27.707	0	1753.132	0	45.5	4	13.8	4	-1E+10	1	-1E+10	1	-1E+10	1	-1E+10	1	-1E+10	1	-1E+10	1
4901784	64	C	04/05/2017	10:45	-132.248	43.837	0	1779.80	0	2.1130	0	34.6710	4	27.709	0	1758.050	0	45.8	4	13.9	4	-1E+10	1	-1E+10	1	-1E+10	1	-1E+10	1	-1E+10	1	-1E+10	1
4901784	64	C	04/05/2017	10:45	-132.248	43.837	0	1784.70	0	2.1080	0	34.6710	4	27.709	0	1762.870	0	46.0	4	13.9	4	-1E+10	1	-1E+10	1	-1E+10	1	-1E+10	1	-1E+10	1	-1E+10	1
4901784	64	C	04/05/2017	10:45	-132.248	43.837	0	1789.70	0	2.1060	0	34.6720	4	27.710	0	1767.788	0	46.1	4	14.0	4	-1E+10	1	-1E+10	1	-1E+10	1	-1E+10	1	-1E+10	1	-1E+10	1
4901784	64	C	04/05/2017	10:45	-132.248	43.837	0	1794.60	0	2.1050	0	34.6720	4	27.710	0	1772.608	0	46.3	4	14.0	4	-1E+10	1	-1E+10	1	-1E+10	1	-1E+10	1	-1E+10	1	-1E+10	1
4901784	64	C	04/05/2017	10:45	-132.248	43.837	0	1799.60	0	2.1020	0	34.6720	4	27.710	0	1777.525	0	46.6	4	14.1	4	-1E+10	1	-1E+10	1	-1E+10	1	-1E+10	1	-1E+10	1	-1E+10	1
4901784	64	C	04/05/2017	10:45	-132.248	43.837	0	1804.50	0	2.0920	0	34.6730	4	27.712	0	1782.345	0	47.0	4	14.2	4	-1E+10	1	-1E+10	1	-1E+10	1	-1E+10	1	-1E+10	1	-1E+10	1
4901784	64	C	04/05/2017	10:45	-132.248	43.837	0	1809.50	0	2.0880	0	34.6740	4	27.713	0	1787.262	0	47.3	4	14.3	4	-1E+10	1	-1E+10	1	-1E+10	1	-1E+10	1	-1E+10	1	-1E+10	1
4901784	64	C	04/05/2017	10:45	-132.248	43.837	0	1814.50	0	2.0810	0	34.6750	4	27.715	0	1792.180	0	47.8	4	14.4	4	-1E+10	1	-1E+10	1	-1E+10	1	-1E+10	1	-1E+10	1	-1E+10	1
4901784	64	C	04/05/2017	10:45	-132.248	43.837	0	1819.50	0	2.0730	0	34.6760	4	27.716	0	1797.097	0	48.1	4	14.5	4	-1E+10	1	-1E+10	1	-1E+10	1	-1E+10	1	-1E+10	1	-1E+10	1
4901784	64	C	04/05/2017	10:45	-132.248	43.837	0	1824.60	0	2.0710	0	34.6760	4	27.716	0	1802.113	0	48.3	4	14.6	4	-1E+10	1	-1E+10	1	-1E+10	1	-1E+10	1	-1E+10	1	-1E+10	1
4901784	64	C	04/05/2017	10:45	-132.248	43.837	0	1829.70	0	2.0640	0	34.6770	4	27.718	0	1807.128	0	48.8	4	14.7	4	-1E+10	1	-1E+10	1	-1E+10	1	-1E+10	1	-1E+10	1	-1E+10	1
4901784	64	C	04/05/2017	10:45	-132.248	43.837	0	1834.90	0	2.0590	0	34.6780	4	27.719	0	1812.242	0	49.0	4	14.8	4	-1E+10	1	-1E+10	1	-1E+10	1	-1E+10	1	-1E+10	1	-1E+10	1
4901784	64	C	04/05/2017	10:45	-132.248	43.837	0	1840.00	0	2.0570	0	34.6780	4	27.719	0	1817.257	0	49.1	4	14.8	4	-1E+10	1	-1E+10	1	-1E+10	1	-1E+10	1	-1E+10	1	-1E+10	1
4901784	64	C	04/05/2017	10:45	-132.248	43.837	0	1845.20	0	2.0530	0	34.6790	4	27.720	0	1822.371	0	49.4	4	14.9	4	-1E+10	1	-1E+10	1	-1E+10	1	-1E+10	1	-1E+10	1	-1E+10	1
4901784	64	C	04/05/2017	10:45	-132.248	43.837	0	1850.40	0	2.0490	0	34.6800	4	27.721	0	1827.484	0	49.7	4	15.0	4	-1E+10	1	-1E+10	1	-1E+10	1	-1E+10	1	-1E+10	1	-1E+10	1
4901784	64	C	04/05/2017	10:45	-132.248	43.837	0	1855.70	0	2.0460	0	34.6800	4	27.722	0	1832.695	0	50.0	4	15.1	4	-1E+10	1	-1E+10	1	-1E+10	1	-1E+10	1	-1E+10	1	-1E+10	1
4901784	64	C	04/05/2017	10:45	-132.248	43.837	0	1860.10	0	2.0430	0	34.6810	4	27.723	0	1837.022	0	50.3	4	15.2	4	-1E+10	1	-1E+10	1	-1E+10	1	-1E+10	1	-1E+10	1	-1E+10	1
4901784	64	C	04/05/2017	10:45	-132.248	43.837	0	1864.50	0	2.0380	0	34.6810	4	27.723	0	1841.348	0	50.6	4	15.3	4	-1E+10	1	-1E+10	1	-1E+10	1	-1E+10	1	-1E+10	1	-1E+10	1
4901784	64	C	04/05/2017	10:45	-132.248	43.837	0	1869.70	0	2.0320	0	34.6820	4	27.724	0	1846.461	0	51.0	4	15.4	4	-1E+10	1	-1E+10	1	-1E+10	1	-1E+10	1	-1E+10	1	-1E+10	1
4901784	64	C	04/05/2017	10:45	-132.248	43.837	0	1875.10	0	2.0260	0	34.6830	4	27.726	0	1851.770	0	51.3	4	15.5	4	-1E+10	1	-1E+10	1	-1E+10	1	-1E+10	1	-1E+10	1	-1E+10	1
4901784	64	C	04/05/2017	10:45	-132.248	43.837	0	1880.40	0	2.0240	0	34.6840	4	27.727	0	1856.981	0	51.5	4	15.6	4	-1E+10	1	-1E+10	1	-1E+10	1	-1E+10	1	-1E+10	1	-1E+10	1
4901784	64	C	04/05/2017	10:45	-132.248	43.837	0	1884.90	0	2.0230	0	34.6840	4	27.727	0	1861.406	0	51.8	4	15.7	4	-1E+10	1	-1E+10	1	-1E+10	1	-1E+10	1	-1E+10	1	-1E+10	1
4901784	64	C	04/05/2017	10:45	-132.248	43.837	0	1889.40	0	2.0170	0	34.6850	4	27.728	0	1865.830	0	52.2	4	15.8	4	-1E+10	1	-1E+10	1	-1E+10	1	-1E+10	1	-1E+10	1	-1E+10	1
4901784	64	C	04/05/2017	10:45	-132.248	43.837	0	1894.70	0	2.0110	0	34.6860	4	27.729	0	1871.040	0	52.6	4	15.9	4	-1E+10	1	-1E+10	1	-1E+10	1	-1E+10	1	-1E+10	1	-1E+10	1
4901784	64	C	04/05/2017	10:45	-132.248	43.837	0	1900.10	0	2.0060	0	34.6870	4	27.731	0	1876.349	0	52.9	4	16.0	4	-1E+10	1	-1E+10	1	-1E+10	1	-1E+10	1	-1E+10	1	-1E+10	1
4901784	64	C	04/05/2017	10:45	-132.248	43.837	0	1905.50	0	2.0030	0	34.6880	4	27.732	0	1881.658	0	53.0	4	16.0	4	-1E+10	1	-1E+10	1	-1E+10	1	-1E+10	1	-1E+10	1	-1E+10	1
4901784	64	C	04/05/2017	10:45	-132.248	43.837	0	1910.00	0	2.0020	0	34.6870	4	27.731	0	1886.082	0	53.1	4	16.0	4	-1E+10	1	-1E+10	1	-1E+10	1	-1E+10	1	-1E+10	1	-1E+10	1
4901784	64	C	04/05/2017	10:45	-132.248	43.837	0	1914.90	0	1.9990	0	34.6880	4	27.732	0	1890.899	0	53.3	4	16.1	4	-1E+10	1	-1E+10	1	-1E+10	1	-1E+10	1	-1E+10	1	-1E+10	1
4901784	64	C	04/05/2017	10:45	-132.248	43.837	0	1920.00	0	1.9980	0	34.6880	4	27.732	0	1895.912	0	53.5	4	16.1	4	-1E+10	1	-1E+10	1	-1E+10	1	-1E+10	1	-1E+10	1	-1E+10	1
4901784	64	C	04/05/2017	10:45	-132.248	43.837	0	1924.90	0	1.9960	0	34.6880	4	27.732	0	1900.729	0	53.8	4	16.2	4	-1E+10	1	-1E+10	1	-1E+10	1	-1E+10	1	-1E+10	1	-1E+10	1
4901784	64	C	04/05/2017	10:45	-132.248	43.837	0	1929.80	0	1.9920	0	34.6890	4	27.733	0	1905.545	0	54.1	4	16.3	4	-1E+10	1	-1E+10	1	-1E+10	1	-1E+10	1	-1E+10	1	-1E+10	1
4901784	64	C	04/05/2017	10:45	-132.248	43.837	0	1934.60	0	1.9870	0	34.6900	4	27.735	0	1910.263	0	54.4	4	16.4	4	-1E+10	1	-1E+10	1	-1E+10	1	-1E+10	1	-1E+10	1	-1E+10	1
4901784	64	C	04/05/2017	10:45	-132.248	43.837	0	1939.50	0	1.9830	0	34.6900	4	27.735	0	1915.080	0	54.7	4	16.5	4	-1E+10	1	-1E+10	1	-1E+10	1	-1E+10	1	-1E+10	1	-1E+10	1
4901784	64	C	04/05/2017	10:45	-132.248	43.837	0	1944.40	0	1.9780	0	34.6910	4	27.736	0	1919.896	0	55.0	4	16.6	4	-1E+10	1	-1E+10	1	-1E+10	1	-1E+10	1	-1E+10	1	-1E+10	1
4901784	64	C	04/05/2017	10:45	-132.248	43.837	0	1949.30	0	1.9720	0	34.6920	4	27.737	0	1924.712	0	55.4	4	16.7	4	-1E+10	1	-1E+10	1	-1E+10	1	-1E+10	1	-1E+10	1	-1E+10	1
4901784	64	C	04/05/2017	10:45	-132.248	43.837	0	1954.30	0	1.9680	0	34.6930	4	27.739	0	1929.626	0	55.7	4	16.8	4	-1E+10	1	-1E+10	1	-1E+10	1	-1E+10	1	-1E+10	1	-1E+10	1
4901784	64	C	04/05/2017	10:45	-132.248	43.837	0	1959.30	0	1.9640	0	34.6930	4	27.739	0	1934.541	0	56.0	4	16.9	4	-1E+10	1	-1E+10	1	-1E+10	1	-1E+10	1	-1E+10	1	-1E+10	1
4901784	64	C	04/05/2017	10:45	-132.248	43.837	0	1964.30	0	1.9620	0	34.6940	4	27.740	0	1939.455	0	56.2	4	16.9	4	-1E+10	1	-1E+10	1	-1E+10	1	-1E+10	1	-1E+10	1	-1E+10	1
4901784	64	C	04/05/2017	10:45	-132.248	43.837	0	1969.30	0	1.9580	0	34.6940	4	27.740	0	1944.369	0	56.5	4	17.0	4	-1E+10	1	-1E+10	1	-1E+10	1	-1E+10	1	-1E+10	1	-1E+10	1
4901784	64	C	04/05/2017	10:45	-132.248	43.837	0	1974.30	0	1.9530	0	34.6950	4	27.742	0	1949.282	0	56.9	4	17.1	4	-1E+10	1	-1E+10	1	-1E+10	1	-1E+10	1	-1E+10	1	-1E+10	1
4901784	64	C	04/05/2017	10:45	-132.248	43.837	0	1979.40	0	1.9490	0	34.6960	4	27.743	0	1954.294	0	57.2	4	17.2	4	-1E+10	1	-1E+10	1	-1E+10	1	-1E+10	1	-1E+10	1	-1E+10	1
4901784	64	C	04/05/2017	10:45	-132.248	43.837	0	1984.70	0	1.9440	0	34.6970	4	27.744	0	1959.503	0	57.5	4	17.3	4	-1E+10	1	-1E+10	1	-1E+10	1	-1E+10	1	-1E+10	1	-1E+10	1
4901784	64	C	04/05/2017	10:45	-132.248	43.837	0	1990.10	0	1.9410	0	34.6970	4	27.744	0	1964.809	0	57.8	4	17.4	4	-1E+10	1	-1E+10	1	-1E+10	1	-1E+10	1	-1E+10	1	-1E+10	1
4901784	64	C	04/05/2017	10:45	-132.248	43.837	0	1995.10	0	1.9370	0	34.6980	4	27.745	0	1969.723	0	58.0	4	17.5	4	-1E+10	1	-1E+10	1	-1E+10	1	-1E+10	1	-1E+10	1	-1E+10	1
4901784	64	C	04/05/2017	10:45	-132.248	43.837	0	2000.10	0	1.9350	0	34.6980	4	27.745	0	1974.636	0	58.1	4	17.5	4	-1E+10	1	-1E+10	1	-1E+10	1	-1E+10	1	-1E+10	1	-1E+10	1
4901784	64	C	04/05/2017	10:45	-132.248	43.837	0	2005.10	0	1.9340	0	34.6990	4	27.746	0	1979.549	0	54.4	8	16.4	8	-1E+10	1	-1E+10	1	-1E+10	1	-1E+10	1	-1E+10	1	-1E+10	1
4901784	64	C	04/05/2017	10:45	-132.248	43.837	0																										
4901784	65	C	04/15/2017	10:41	-132.269	43.773	0	3.00	0	9.2950	0	32.8610	4	25.397	0	2.976	0	277.6	4	98.0	4	-1E+10	1	-1E+10	1	-1E+10	1	-1E+10	1	-1E+10	1	-1E+10	1
4901784	65	C	04/15/2017	10:41	-132.269	43.773	0	4.60	0	9.2950	0	32.8610	4	25.397	0	4.563	0	277.6	4	98.0	4	-1E+10	1	-1E+10	1	-1E+10	1	-1E+10	1	-1E+10	1	-1E+10	1
4901784	65	C	04/15/2017	10:41	-132.269	43.773	0	6.20	0	9.3000	0	32.8600	4	25.396	0	6.150	0	277.6	4	98.0	4	-1E+10	1	-1E+10	1	-1E+10	1	-1E+10	1	-1E+10	1	-1E+10	1
4901784	65	C	04/15/2017	10:41	-132.269	43.773	0	7.90	0	9.2990	0	32.8600	4	25.396	0	7.837	0	277.7	4	98.1	4	-1E+10	1	-1E+10	1	-1E+10	1	-1E+10	1	-1E+10	1	-1E+10	1
4901784	65	C	04/15/2017	10:41	-132.269	43.773	0	9.50	0	9.3020	0	32.8600	4	25.396	0	9.424	0	277.7	4	98.1	4	-1E+10	1	-1E+10	1	-1E+10	1	-1E+10	1	-1E+10	1	-1E+10	1
4901784	65	C	04/15/2017	10:41	-132.269	43.773	0	11.20	0	9.3010	0	32.8600	4	25.396	0	11.110	0	277.7	4	98.1	4	-1E+10	1	-1E+10	1	-1E+10	1	-1E+10	1	-1E+10	1	-1E+10	1
4901784	65	C	04/15/2017	10:41	-132.269	43.773	0	13.00	0	9.3010	0	32.8590	4	25.395	0	12.896	0	277.5	4	98.0	4	-1E+10	1	-1E+10	1	-1E+10	1	-1E+10	1	-1E+10	1	-1E+10	1
4901784	65	C	04/15/2017	10:41	-132.269	43.773	0	14.70	0	9.3010	0	32.8570	4	25.393	0	14.582	0	277.4	4	98.0	4	-1E+10	1	-1E+10	1	-1E+10	1	-1E+10	1	-1E+10	1	-1E+10	1
4901784	65	C	04/15/2017	10:41	-132.269	43.773	0	16.50	0	9.2390	0	32.8560	4	25.403	0	16.367	0	277.5	4	97.9	4	-1E+10	1	-1E+10	1	-1E+10	1	-1E+10	1	-1E+10	1	-1E+10	1
4901784	65	C	04/15/2017	10:41	-132.269	43.773	0	18.30	0	9.1860	0	32.8570	4	25.412	0	18.153	0	278.2	4	98.0	4	-1E+10	1	-1E+10	1	-1E+10	1	-1E+10	1	-1E+10	1	-1E+10	1
4901784	65	C	04/15/2017	10:41	-132.269	43.773	0	20.00	0	9.1790	0	32.8570	4	25.413	0	19.839	0	278.1	4	98.0	4	-1E+10	1	-1E+10	1	-1E+10	1	-1E+10	1	-1E+10	1	-1E+10	1
4901784	65	C	04/15/2017	10:41	-132.269	43.773	0	21.90	0	9.1770	0	32.8570	4	25.413	0	21.724	0	278.0	4	97.9	4	-1E+10	1	-1E+10	1	-1E+10	1	-1E+10	1	-1E+10	1	-1E+10	1
4901784	65	C	04/15/2017	10:41	-132.269	43.773	0	23.80	0	9.1750	0	32.8570	4	25.414	0	23.608	0	278.0	4	97.9	4	-1E+10	1	-1E+10	1	-1E+10	1	-1E+10	1	-1E+10	1	-1E+10	1
4901784	65	C	04/15/2017	10:41	-132.269	43.773	0	25.60	0	9.1710	0	32.8570	4	25.414	0	25.393	0	277.9	4	97.9	4	-1E+10	1	-1E+10	1	-1E+10	1	-1E+10	1	-1E+10	1	-1E+10	1
4901784	65	C	04/15/2017	10:41	-132.269	43.773	0	27.40	0	9.1700	0	32.8570	4	25.414	0	27.179	0	277.7	4	97.8	4	-1E+10	1	-1E+10	1	-1E+10	1	-1E+10	1	-1E+10	1	-1E+10	1
4901784	65	C	04/15/2017	10:41	-132.269	43.773	0	29.30	0	9.1660	0	32.8570	4	25.415	0	29.063	0	277.5	4	97.7	4	-1E+10	1	-1E+10	1	-1E+10	1	-1E+10	1	-1E+10	1	-1E+10	1
4901784	65	C	04/15/2017	10:41	-132.269	43.773	0	31.10	0	9.1630	0	32.8570	4	25.416	0	30.849	0	277.4	4	97.7	4	-1E+10	1	-1E+10	1	-1E+10	1	-1E+10	1	-1E+10	1	-1E+10	1
4901784	65	C	04/15/2017	10:41	-132.269	43.773	0	33.00	0	9.1630	0	32.8570	4	25.416	0	32.733	0	277.2	4	97.6	4	-1E+10	1	-1E+10	1	-1E+10	1	-1E+10	1	-1E+10	1	-1E+10	1
4901784	65	C	04/15/2017	10:41	-132.269	43.773	0	34.90	0	9.1630	0	32.8570	4	25.416	0	34.618	0	277.1	4	97.6	4	-1E+10	1	-1E+10	1	-1E+10	1	-1E+10	1	-1E+10	1	-1E+10	1
4901784	65	C	04/15/2017	10:41	-132.269	43.773	0	36.70	0	9.1620	0	32.8570	4	25.416	0	36.403	0	277.0	4	97.5	4	-1E+10	1	-1E+10	1	-1E+10	1	-1E+10	1	-1E+10	1	-1E+10	1
4901784	65	C	04/15/2017	10:41	-132.269	43.773	0	38.60	0	9.1600	0	32.8570	4	25.416	0	38.287	0	276.5	4	97.4	4	-1E+10	1	-1E+10	1	-1E+10	1	-1E+10	1	-1E+10	1	-1E+10	1
4901784	65	C	04/15/2017	10:41	-132.269	43.773	0	40.40	0	9.1590	0	32.8570	4	25.416	0	40.073	0	276.5	4	97.4	4	-1E+10	1	-1E+10	1	-1E+10	1	-1E+10	1	-1E+10	1	-1E+10	1
4901784	65	C	04/15/2017	10:41	-132.269	43.773	0	42.30	0	9.1590	0	32.8570	4	25.416	0	41.957	0	276.5	4	97.4	4	-1E+10	1	-1E+10	1	-1E+10	1	-1E+10	1	-1E+10	1	-1E+10	1
4901784	65	C	04/15/2017	10:41	-132.269	43.773	0	44.10	0	9.1590	0	32.8570	4	25.416	0	43.742	0	276.5	4	97.3	4	-1E+10	1	-1E+10	1	-1E+10	1	-1E+10	1	-1E+10	1	-1E+10	1
4901784	65	C	04/15/2017	10:41	-132.269	43.773	0	46.00	0	9.1590	0	32.8570	4	25.416	0	45.627	0	276.2	4	97.3	4	-1E+10	1	-1E+10	1	-1E+10	1	-1E+10	1	-1E+10	1	-1E+10	1
4901784	65	C	04/15/2017	10:41	-132.269	43.773	0	47.80	0	9.1600	0	32.8570	4	25.416	0	47.412	0	276.3	4	97.3	4	-1E+10	1	-1E+10	1	-1E+10	1	-1E+10	1	-1E+10	1	-1E+10	1
4901784	65	C	04/15/2017	10:41	-132.269	43.773	0	49.70	0	9.1600	0	32.8570	4	25.416	0	49.296	0	276.0	4	97.2	4	-1E+10	1	-1E+10	1	-1E+10	1	-1E+10	1	-1E+10	1	-1E+10	1
4901784	65	C	04/15/2017	10:41	-132.269	43.773	0	51.60	0	9.1610	0	32.8570	4	25.416	0	51.181	0	275.8	4	97.1	4	-1E+10	1	-1E+10	1	-1E+10	1	-1E+10	1	-1E+10	1	-1E+10	1
4901784	65	C	04/15/2017	10:41	-132.269	43.773	0	53.40	0	9.1610	0	32.8580	4	25.417	0	52.966	0	275.7	4	97.1	4	-1E+10	1	-1E+10	1	-1E+10	1	-1E+10	1	-1E+10	1	-1E+10	1
4901784	65	C	04/15/2017	10:41	-132.269	43.773	0	55.30	0	9.1610	0	32.8580	4	25.417	0	54.850	0	275.4	4	97.0	4	-1E+10	1	-1E+10	1	-1E+10	1	-1E+10	1	-1E+10	1	-1E+10	1
4901784	65	C	04/15/2017	10:41	-132.269	43.773	0	57.20	0	9.1620	0	32.8580	4	25.417	0	56.734	0	275.0	4	96.8	4	-1E+10	1	-1E+10	1	-1E+10	1	-1E+10	1	-1E+10	1	-1E+10	1
4901784	65	C	04/15/2017	10:41	-132.269	43.773	0	59.10	0	9.1630	0	32.8580	4	25.417	0	58.619	0	274.8	4	96.8	4	-1E+10	1	-1E+10	1	-1E+10	1	-1E+10	1	-1E+10	1	-1E+10	1
4901784	65	C	04/15/2017	10:41	-132.269	43.773	0	61.00	0	9.1650	0	32.8600	4	25.418	0	60.503	0	274.2	4	96.6	4	-1E+10	1	-1E+10	1	-1E+10	1	-1E+10	1	-1E+10	1	-1E+10	1
4901784	65	C	04/15/2017	10:41	-132.269	43.773	0	62.80	0	9.1670	0	32.8620	4	25.419	0	62.288	0	273.7	4	96.4	4	-1E+10	1	-1E+10	1	-1E+10	1	-1E+10	1	-1E+10	1	-1E+10	1
4901784	65	C	04/15/2017	10:41	-132.269	43.773	0	64.60	0	9.1680	0	32.8630	4	25.420	0	64.073	0	273.0	4	96.1	4	-1E+10	1	-1E+10	1	-1E+10	1	-1E+10	1	-1E+10	1	-1E+10	1
4901784	65	C	04/15/2017	10:41	-132.269	43.773	0	66.40	0	9.1670	0	32.8640	4	25.421	0	65.858	0	272.1	4	95.8	4	-1E+10	1	-1E+10	1	-1E+10	1	-1E+10	1	-1E+10	1	-1E+10	1
4901784	65	C	04/15/2017	10:41	-132.269	43.773	0	68.30	0	9.1560	0	32.8720	4	25.429	0	67.742	0	271.0	4	95.4	4	-1E+10	1	-1E+10	1	-1E+10	1	-1E+10	1	-1E+10	1	-1E+10	1
4901784	65	C	04/15/2017	10:41	-132.269	43.773	0	70.10	0	9.1470	0	32.8730	4	25.431	0	69.527	0	270.0	4	95.1	4	-1E+10	1	-1E+10	1	-1E+10	1	-1E+10	1	-1E+10	1	-1E+10	1
4901784	65	C	04/15/2017	10:41	-132.269	43.773	0	71.90	0	9.1350	0	32.8760	4	25.436	0	71.312	0	268.7	4	94.6	4	-1E+10	1	-1E+10	1	-1E+10	1	-1E+10	1	-1E+10	1	-1E+10	1
4901784	65	C	04/15/2017	10:41	-132.269	43.773	0	73.70	0	9.1250	0	32.8790	4	25.440	0	73.097	0	267.3	4	94.1	4	-1E+10	1	-1E+10	1	-1E+10	1	-1E+10	1	-1E+10	1	-1E+10	1
4901784	65	C	04/15/2017	10:41	-132.269	43.773	0	75.50	0	9.1240	0	32.8790	4	25.440	0	74.882	0	265.4	4	93.4	4	-1E+10	1	-1E+10	1	-1E+10	1	-1E+10	1	-1E+10	1	-1E+10	1
4901784	65	C	04/15/2017	10:41	-132.269	43.773	0	77.40	0	9.0940	0	32.8990	4	25.460	0	76.766	0	263.0	4	92.5	4	-1E+10	1	-1E+10	1	-1E+10	1	-1E+10	1	-1E+10	1	-1E+10	1
4901784	65	C	04/15/2017	10:41	-132.269	43.773	0	79.30	0	9.0450	0	32.9360	4	25.497	0	78.650	0	261.2	4	91.8	4	-1E+10	1	-1E+10	1	-1E+10	1	-1E+10	1	-1E+10	1	-1E+10	1
4901784	65	C	04/15/2017	10:41	-132.269	43.773	0	81.30	0	9.0430	0	32.9520	4	25.510	0	80.633	0	260.0	4	91.4	4	-1E+10	1	-1E+10	1	-1E+10	1	-1E+10	1	-1E+10	1	-1E+10	1
4901784	65	C	04/15/2017	10:41	-132.269	43.773	0	83.10	0	9.0440	0	32.9550	4	25.512	0	82.418	0	258.0	4	90.7	4	-1E+10	1	-1E+10	1	-1E+10	1	-1E+10	1	-1E+10	1	-1E+10	1
4901784	65	C	04/15/2017	10:41	-132.269	43.773	0	85.30	0	9.0380	0	32.9680	4	25.523	0	84.600	0	256.1	4	90.0	4	-1E+10	1	-1E+10	1	-1E+10	1	-1E+10	1	-1E+10	1	-1E+10	1
4901784	65	C	04/15/2017	10:41	-132.269	43.773	0	85.80	0	9.0380	0	32.9690	4	25.524	0	85.095	0	255.4	4	89.7	4	-1E+10	1	-1E+10	1	-1E+10	1	-1E+10	1	-1E+10	1	-1E+10	1
4901784	65	C	04/15/2017	10:41	-132.269	43.773	0	87.60	0	9.0270	0	32.9880	4	25.540	0	86.880	0	252.9	4	88.9	4	-1E+10	1	-1E+10	1	-1E+10	1	-1E+10	1	-1E+10	1	-1E+10	1
4901784	65	C	04/15/2017	10:41	-132.269	43.773	0	89.30	0	9.0070	0	33.0110	4	25.562	0	88.566	0	250.2	4	87.9	4	-1E+10	1	-1E+10	1	-1E+10	1	-1E+10	1	-1E+10	1	-1E+10	1
4901784	65	C	04/15/2017	10:41	-132.269	43.773	0	90.90	0	8.9910	0	33.0330	4	25.581	0	90.152	0	247.7	4	87.0	4	-1E+10	1	-1E+10	1	-1E+10	1	-1E+10	1	-1E+10	1	-1E+10	1
4901784	65	C	04/15/2017	10:41	-132.269	43.773	0	92.50	0	8.9710	0	33.0630	4	25.608	0	91.739	0	245.2	4	86.1	4	-1E+10	1	-1E+10	1	-1E+10	1	-1E+10	1	-1E+10	1	-1E+10	1
4901784	65	C	04/15/2017	10:41	-132.269	43.773	0	94.10	0	8.9640	0	33.0790	4	25.622	0	93.325	0	242.2	4	85.0	4	-1E+10	1	-1E+10	1	-1E+10	1	-1E+10	1	-1E+10	1	-1E+10	1
4901784	65	C	04/15/2017	10:41	-132.269	43.773	0	95.70	0	8.9400	0	33.1310	4	25.666	0	94.912	0	239.0	4	83.9	4	-1E+10	1	-1E+10	1	-1E+10	1	-1E+10	1	-1E+10	1	-1E+10	1
4901784	65	C	04/15/2017	10:41	-132.269	43.773	0	97.40	0	8.9000	0	33.1610	4	25.696	0	96.598	0	236.6	4	83.0	4	-1E+10	1	-1E+10	1	-1E+10	1	-1E+10	1	-1E+10	1	-1E+10	1
4901784	65	C	04/15/2017	10:41	-132.269	43.773	0	99.20	0	8.7070	0	33.2000	4	25.756	0	98.382	0	234.4	4	81.9	4	-1E+10	1	-1E+10	1	-1E+10	1	-1E+10	1	-1E+10	1	-1E+10	1
4901784	65	C	04/15/2017	10:41	-132.269	43.773	0	102.60	0	8.7890	0	33.3030	4	25.824	0	101.753	0	227.9	4	79.8	4	-1E+10	1	-1E+10	1	-1E+10	1	-1E+10	1	-1E+10	1	-1E+10	1
4901784	65	C	04/15/2017	10:41	-132.269	43.773	0	104.40	0	8.7550	0	33.3140	4	25.838	0	103.538	0	225.8	4	79.1	4	-1E+10	1	-1E+10	1	-1E+10	1	-1E+10	1	-1E+10	1	-1E+10	1
4901784	65	C	04/15/2017	10:41	-132.269	43.773	0	107.30	0	8.6960	0	33.3500	4	25.876	0	106.413	0	220.7	4	77.2	4	-1E+10	1	-1E+10	1	-1E+10	1	-1E+10	1	-1E+10	1	-1E+10	1
4901784	65	C	04/15/2017	10:41	-132.269	43.773	0	109.90	0	8.6820	0	33.5040	4	25.998	0	108.991	0	214.5	4	75.1	4	-1E+10	1	-1E+10	1	-1E+10	1	-1E+10	1	-1E+10	1	-1E+10	1
4901784	65	C	04/15/2017	10:41	-132.269	43.773	0	112.10	0	8.6860	0	33.5250	4	26.014	0	111.172	0	212.0	4	74.2	4	-1E+10	1	-1E+10	1	-1E+10	1	-1E+10	1	-1E+10	1	-1E+10	1
4901784	65	C	04/15/2017	10:41	-132.269	43.773	0	115.00	0	8.6890	0	33.5390	4	26.025	0	114.048	0	207.7	4	72.7	4	-1E+10	1	-1E+10	1	-1E+10	1	-1E+10	1	-1E+10	1	-1E+10	1
4901784	65	C	04/15/2017	10:41	-132.269	43.773	0	117.90	0	8.6960	0	33.5680	4	26.047	0	116.923	0	200.6	4	70.3	4	-1E+10	1	-1E+10	1	-1E+10	1	-1E+10	1	-1E+10	1	-1E+10	1
4901784	65	C	04/15/2017	10:41	-132.269	43.773	0	120.20	0	8.7100	0	33.6970	4	26.145	0	119.203	0	193.8	4	68.0	4	-1E+10	1	-1E+10	1	-1E+10	1	-1E+10	1	-1E+10	1	-1E+10	1
4901784	65	C	04/15/2017	10:41	-132.269	43.773	0	122.60	0	8.7040	0	33.7800	4	26.211	0	121.582	0	190.4	4	66.8	4	-1E+10	1	-1E+10	1	-1E+10	1	-1E+10	1	-1E+10	1	-1E+10	1
4901784	65	C	04/15/2017	10:41	-132.269	43.773	0	125.00	0	8.6940	0	33.8050	4	26.233	0	123.962	0	188.8	4	66.2	4	-1E+10	1	-1E+10	1	-1E+10	1	-1E+10	1	-1E+10	1	-1E+10	1
4901784	65	C	04/15/2017	10:41	-132.269	43.773	0	127.40	0	8.6760	0	33.8310	4	26.256	0	126.341	0	187.3	4	65.7	4	-1E+10	1	-1E+10	1	-1E+10	1	-1E+10	1	-1E+10	1	-1E+10	1
4901784	65	C	04/15/2017	10:41	-132.269	43.773	0	129.90	0	8.6510	0	33.8550	4	26.279	0	128.820	0	185.9	4	65.2	4	-1E+10	1	-1E+10	1	-1E+10	1	-1E+10	1	-1E+10	1	-1E+10	1
4901784	65	C	04/15/2017	10:41	-132.269	43.773	0	132.40	0	8.6360	0	33.8630	4	26.287	0	131.298	0	184.7	4	64.7	4	-1E+10	1	-1E+10	1	-1E+10	1	-1E+10	1	-1E+10	1	-1E+10	1
4901784	65	C	04/15/2017	10:41	-132.269	43.773	0	134.90	0	8.5560	0	33.9160	4	26.341	0	133.776	0	183.7	4	64.3	4	-1E+10	1	-1E+10	1	-1E+10	1	-1E+10	1	-1E+10	1	-1E+10	1
4901784	65	C	04/15/2017	10:41	-132.269	43.773	0	137.60	0	8.5400	0	33.9500	4	26.370	0	136.453	0	183.5	4	64.2	4	-1E+10	1	-1E+10	1	-1E+10	1	-1E+10	1	-1E+10	1	-1E+10	1
4901784	65	C	04/15/2017	10:41	-132.269	43.773	0	140.30	0	8.5070	0	33.9690	4	26.390	0	139.130	0	183.3	4	64.1	4	-1E+10	1	-1E+10	1	-1E+10	1	-1E+10	1	-1E+10	1	-1E+10	1
4901784	65	C	04/15/2017	10:41	-132.269	43.773	0	142.10	0	8.4680	0	33.9800	4	26.405	0	140.914	0	183.2	4	64.0	4	-1E+10	1	-1E+10	1	-1E+10	1	-1E+10	1	-1E+10	1	-1E+10	1
4901784	65	C	04/15/2017	10:41	-132.269	43.773	0	144.90	0	8.4470	0	33.9810	4	26.409	0	143.690	0	182.8	4	63.9	4	-1E+10	1	-1E+10	1	-1E+10	1	-1E+10	1	-1E+10	1	-1E+10	1
4901784	65	C	04/15/2017	10:41	-132.269	43.773	0	147.60	0	8.4070	0	33.9870	4	26.420	0	146.366	0	182.3	4	63.6	4	-1E+10	1	-1E+10	1	-1E+10	1	-1E+10	1	-1E+10	1	-1E+10	1
4901784	65	C	04/15/2017	10:41	-132.269	43.773	0	150.30	0	8.3850	0	33.9910	4	26.426	0	149.043	0	181.8	4	63.4	4	-1E+10	1	-1E+10	1	-1E+10	1	-1E+10	1	-1E+10	1	-1E+10	1
4901784	65	C	04/15/2017	10:41	-132.269	43.773	0	153.00	0	8.3490	0	33.9950	4	26.435	0	151.719	0	181.2	4	63.2	4	-1E+10	1	-1E+10	1	-1E+10	1	-1E+10	1	-1E+10	1	-1E+10	1
4901784	65	C	04/15/2017	10:41	-132.269	43.773	0	154.90	0	8.3170	0	33.9970	4	26.441	0	153.602	0	180.6	4	62.9	4	-1E+10	1	-1E+10	1	-1E+10	1	-1E+10	1	-1E+10	1	-1E+10	1
4901784	65	C	04/15/2017	10:41	-132.269	43.773	0	157.80	0	8.2780	0	34.0000	4	26.450	0	156.477	0	179.6	4	62.5	4	-1E+10	1	-1E+10	1	-1E+10	1	-1E+10	1	-1E+10	1	-1E+10	1
4901784	65	C	04/15/2017	10:41	-132.269	43.773	0	160.60	0	8.2210	0	34.0040	4	26.461	0	159.252	0	178.5	4	62.1	4	-1E+10	1	-1E+10	1	-1E+10	1	-1E+10	1	-1E+10	1	-1E+10	1
4901784	65	C	04/15/2017	10:41	-132.269	43.773	0	162.40	0	8.1850	0	34.0040	4	26.467	0	161.037	0	177.7	4	61.7	4	-1E+10	1	-1E+10	1	-1E+10	1	-1E+10	1	-1E+10	1	-1E+10	1
4901784	65	C	04/15/2017	10:41	-132.269	43.773	0	165.30	0	8.1100	0	34.0040	4	26.478	0	163.911	0	176.4	4	61.2	4	-1E+10	1	-1E+10	1	-1E+10	1	-1E+10	1	-1E+10	1	-1E+10	1
4901784	65	C	04/15/2017	10:41	-132.269	43.773	0	168.40	0	8.0310	0	34.0050	4	26.491	0	166.984	0	175.6	4	60.8	4	-1E+10	1	-1E+10	1	-1E+10	1	-1E+10	1	-1E+10	1	-1E+10	1
4901784	65	C	04/15/2017	10:41	-132.269	43.773	0	169.80	0	8.0190	0	34.0050	4	26.492	0	168.371	0	174.9	4	60.5	4	-1E+10	1	-1E+10	1	-1E+10	1	-1E+10	1	-1E+10	1	-1E+10	1
4901784	65	C	04/15/2017	10:41	-132.269	43.773	0	172.20	0	8.0050	0	34.0040	4	26.494	0	170.750	0	173.4	4	60.0	4	-1E+10	1	-1E+10	1	-1E+10	1	-1E+10	1	-1E+10	1	-1E+10	1
4901784	65	C	04/15/2017	10:41	-132.269	43.773	0	174.70	0	7.9290	0	34.0070	4	26.507	0	173.228	0	171.8	4	59.4	4	-1E+10	1	-1E+10	1	-1E+10	1	-1E+10	1	-1E+10	1	-1E+10	1
4901784	65	C	04/15/2017	10:41	-132.269	43.773	0	177.10	0	7.8690	0	34.0050	4	26.515	0	175.607	0	170.0	4	58.7	4	-1E+10	1	-1E+10	1	-1E+10	1	-1E+10	1	-1E+10	1	-1E+10	1
4901784	65	C	04/15/2017	10:41	-132.269	43.773	0	179.60	0	7.7820	0	34.0070	4	26.529	0	178.085	0	168.7	4	58.1	4	-1E+10	1	-1E+10	1	-1E+10	1	-1E+10	1	-1E+10	1	-1E+10	1
4901784	65	C	04/15/2017	10:41	-132.269	43.773	0	182.10	0	7.7200	0	34.0070	4	26.538	0	180.563	0	167.9	4	57.7	4	-1E+10	1	-1E+10	1	-1E+10	1	-1E+10	1	-1E+10	1	-1E+10	1
4901784	65	C	04/15/2017	10:41	-132.269	43.773	0	184.60	0	7.7100	0	34.0080	4	26.540	0	183.040	0	166.7	4	57.3	4	-1E+10	1	-1E+10	1	-1E+10	1	-1E+10	1	-1E+10	1	-1E+10	1
4901784	65	C	04/15/2017	10:41	-132.269	43.773	0	187.10	0	7.6750	0	34.0070	4	26.544	0	185.518	0	165.0	4	56.7	4	-1E+10	1	-1E+10	1	-1E+10	1	-1E+10	1	-1E+10	1	-1E+10	1
4901784	65	C	04/15/2017	10:41	-132.269	43.773	0	189.60	0	7.6390	0	34.0060	4	26.549	0	187.996	0	162.7	4	55.8	4	-1E+10	1	-1E+10	1	-1E+10	1	-1E+10	1	-1E+10	1	-1E+10	1
4901784	65	C	04/15/2017	10:41	-132.269	43.773	0	192.80	0	7.5520	0	34.0060	4	26.561	0	191.167	0	161.0	4	55.2	4	-1E+10	1	-1E+10	1	-1E+10	1	-1E+10	1	-1E+10	1	-1E+10	1
4901784	65	C	04/15/2017	10:41	-132.269	43.773	0	195.20	0	7.4910	0	34.0130	4	26.576	0	193.546	0	159.5	4	54.6	4	-1E+10	1	-1E+10	1	-1E+10	1	-1E+10	1	-1E+10	1	-1E+10	1
4901784	65	C	04/15/2017	10:41	-132.269	43.773	0	197.70	0	7.4120	0	34.0130	4	26.587	0	196.024	0	157.4	4	53.7	4	-1E+10	1	-1E+10	1	-1E+10	1	-1E+10	1	-1E+10	1	-1E+10	1
4901784	65	C	04/15/2017	10:41	-132.269	43.773	0	200.20	0	7.3710	0	34.0130	4	26.593	0	198.501	0	154.8	4	52.8	4	-1E+10	1	-1E+10	1	-1E+10	1	-1E+10	1	-1E+10	1	-1E+10	1
4901784	65	C	04/15/2017	10:41	-132.269	43.773	0	202.80	0	7.2870	0	34.0120	4	26.604	0	201.078	0	152.7	4	52.0	4	-1E+10	1	-1E+10	1	-1E+10	1	-1E+10	1	-1E+10	1	-1E+10	1
4901784	65	C	04/15/2017	10:41	-132.269	43.773	0	205.40	0	7.2100	0	34.0120	4	26.614	0	203.654	0	151.0	4	51.3	4	-1E+10	1	-1E+10	1	-1E+10	1	-1E+10	1	-1E+10	1	-1E+10	1
4901784	65	C	04/15/2017	10:41	-132.269	43.773	0	207.10	0	7.2030	0	34.0110	4	26.615	0	205.339	0	150.2	4	51.1	4	-1E+10	1	-1E+10	1	-1E+10	1	-1E+10	1	-1E+10	1	-1E+10	1
4901784	65	C	04/15/2017	10:41	-132.269	43.773	0	209.80	0	7.1600	0	34.0100	4	26.620	0	208.015	0	149.0	4	50.6	4	-1E+10	1	-1E+10	1	-1E+10	1	-1E+10	1	-1E+10	1	-1E+10	1
4901784	65	C	04/15/2017	10:41	-132.269	43.773	0	212.40	0	7.1250	0	34.0110	4	26.625	0	210.591	0	148.2	4	50.3	4	-1E+10	1	-1E+10	1	-1E+10	1	-1E+10	1	-1E+10	1	-1E+10	1
4901784	65	C	04/15/2017	10:41	-132.269	43.773	0	215.00	0	7.1220	0	34.0110	4	26.626	0	213.168	0	147.4	4	50.0	4	-1E+10	1	-1E+10	1	-1E+10	1	-1E+10	1	-1E+10	1	-1E+10	1
4901784	65	C	04/15/2017	10:41	-132.269	43.773	0	217.60	0	7.0990	0	34.0100	4	26.628	0	215.744	0	146.1	4	49.5	4	-1E+10	1	-1E+10	1	-1E+10	1	-1E+10	1	-1E+10	1	-1E+10	1
4901784	65	C	04/15/2017	10:41	-132.269	43.773	0	220.20	0	7.0660	0	34.0110	4	26.634	0	218.321	0	144.6	4	49.0	4	-1E+10	1	-1E+10	1	-1E+10	1	-1E+10	1	-1E+10	1	-1E+10	1
4901784	65	C	04/15/2017	10:41	-132.269	43.773	0	222.80	0	6.9970	0	34.0120	4	26.644	0	220.897	0	143.4	4	48.5	4	-1E+10	1	-1E+10	1	-1E+10	1	-1E+10	1	-1E+10	1	-1E+10	1
4901784	65	C	04/15/2017	10:41	-132.269	43.773	0	224.60	0	6.9910	0	34.0110	4	26.644	0	222.681	0	142.6	4	48.2	4	-1E+10	1	-1E+10	1	-1E+10	1	-1E+10	1	-1E+10	1	-1E+10	1
4901784	65	C	04/15/2017	10:41	-132.269	43.773	0	227.20	0	6.9610	0	34.0100	4	26.647	0	225.257	0	141.0	4	47.6	4	-1E+10	1	-1E+10	1	-1E+10	1	-1E+10	1	-1E+10	1	-1E+10	1
4901784	65	C	04/15/2017	10:41	-132.269	43.773	0	229.90	0	6.8920	0	34.0100	4	26.657	0	227.933	0	139.5	4	47.1	4	-1E+10	1	-1E+10	1	-1E+10	1	-1E+10	1	-1E+10	1	-1E+10	1
4901784	65	C	04/15/2017	10:41	-132.269	43.773	0	232.60	0	6.8260	0	34.0120	4	26.667	0	230.608	0	138.6	4	46.7	4	-1E+10	1	-1E+10	1	-1E+10	1	-1E+10	1	-1E+10	1	-1E+10	1
4901784	65	C	04/15/2017	10:41	-132.269	43.773	0	235.30	0	6.8010	0	34.0120	4	26.671	0	233.283	0	137.5	4	46.3	4	-1E+10	1	-1E+10	1	-1E+10	1	-1E+10	1	-1E+10	1	-1E+10	1
4901784	65	C	04/15/2017	10:41	-132.269	43.773	0	237.20	0	6.7810	0	34.0110	4	26.673	0	235.166	0	136.9	4	46.1	4	-1E+10	1	-1E+10	1	-1E+10	1	-1E+10	1	-1E+10	1	-1E+10	1
4901784	65	C	04/15/2017	10:41	-132.269	43.773	0	239.90	0	6.7620	0	34.0100	4	26.674	0	237.841	0	135.8	4	45.7	4	-1E+10	1	-1E+10	1	-1E+10	1	-1E+10	1	-1E+10	1	-1E+10	1
4901784	65	C	04/15/2017	10:41	-132.269	43.773	0	242.50	0	6.7230	0	34.0100	4	26.680	0	240.418	0	134.7	4	45.3	4	-1E+10	1	-1E+10	1	-1E+10	1	-1E+10	1	-1E+10	1	-1E+10	1
4901784	65	C	04/15/2017	10:41	-132.269	43.773	0	245.30	0	6.6830	0	34.0100	4	26.685	0	243.192	0	133.4	4	44.8	4	-1E+10	1	-1E+10	1	-1E+10	1	-1E+10	1	-1E+10	1	-1E+10	1
4901784	65	C	04/15/2017	10:41	-132.269	43.773	0	248.10	0	6.6320	0	34.0090	4	26.691	0	245.966	0	132.4	4	44.4	4	-1E+10	1	-1E+10	1	-1E+10	1	-1E+10	1	-1E+10	1	-1E+10	1
4901784	65	C	04/15/2017	10:41	-132.269	43.773	0	249.90	0	6.6200	0	34.0090	4	26.693	0	247.750	0	131.7	4	44.2	4	-1E+10	1	-1E+10	1	-1E+10	1	-1E+10	1	-1E+10	1	-1E+10	1
4901784	65	C	04/15/2017	10:41	-132.269	43.773	0	252.60	0	6.5830	0	34.0100	4	26.698	0	250.425	0	130.7	4	43.8	4	-1E+10	1	-1E+10	1	-1E+10	1	-1E+10	1	-1E+10	1	-1E+10	1
4901784	65	C	04/15/2017	10:41	-132.269	43.773	0	255.30	0	6.5630	0	34.0090	4	26.700	0	253.100	0	129.5	4	43.4	4	-1E+10	1	-1E+10	1	-1E+10	1	-1E+10	1	-1E+10	1	-1E+10	1
4901784	65	C	04/15/2017	10:41	-132.269	43.773	0	257.10	0	6.5500	0	34.0080	4	26.701	0	254.883	0	128.6	4	43.1	4	-1E+10	1	-1E+10	1	-1E+10	1	-1E+10	1	-1E+10	1	-1E+10	1
4901784	65	C	04/15/2017	10:41	-132.269	43.773	0	259.80	0	6.5110	0	34.0080	4	26.706	0	257.558	0	126.9	4	42.5	4	-1E+10	1	-1E+10	1	-1E+10	1	-1E+10	1	-1E+10	1	-1E+10	1
4901784	65	C	04/15/2017	10:41	-132.269	43.773	0	262.50	0	6.4840	0	34.0070	4	26.709	0	260.233	0	125.0	4	41.8	4	-1E+10	1	-1E+10	1	-1E+10	1	-1E+10	1	-1E+10	1	-1E+10	1
4901784	65	C	04/15/2017	10:41	-132.269	43.773	0	265.20	0	6.4110	0	34.0060	4	26.718	0	262.908	0	122.9	4	41.0	4	-1E+10	1	-1E+10	1	-1E+10	1	-1E+10	1	-1E+10	1	-1E+10	1
4901784	65	C	04/15/2017	10:41	-132.269	43.773	0	267.80	0	6.3300	0	34.0070	4	26.729	0	265.484	0	121.4	4	40.5	4	-1E+10	1	-1E+10	1	-1E+10	1	-1E+10	1	-1E+10	1	-1E+10	1
4901784	65	C	04/15/2017	10:41	-132.269	43.773	0	269.70	0	6.3020	0	34.0090	4	26.734	0	267.366	0	120.5	4	40.1	4	-1E+10	1	-1E+10	1	-1E+10	1	-1E+10	1	-1E+10	1	-1E+10	1
4901784	65	C	04/15/2017	10:41	-132.269	43.773	0	272.30	0	6.2450	0	34.0070	4	26.740	0	269.942	0	119.1	4	39.6	4	-1E+10	1	-1E+10	1	-1E+10	1	-1E+10	1	-1E+10	1	-1E+10	1
4901784	65	C	04/15/2017	10:41	-132.269	43.773	0	275.00	0	6.1980	0	34.0090	4	26.748	0	272.617	0	118.2	4	39.3	4	-1E+10	1	-1E+10	1	-1E+10	1	-1E+10	1	-1E+10	1	-1E+10	1
4901784	65	C	04/15/2017	10:41	-132.269	43.773	0	277.80	0	6.1820	0	34.0070	4	26.748	0	275.391	0	117.1	4	38.9	4	-1E+10	1	-1E+10	1	-1E+10	1	-1E+10	1	-1E+10	1	-1E+10	1
4901784	65	C	04/15/2017	10:41	-132.269	43.773	0	280.60	0	6.1450	0	34.0080	4	26.754	0	278.165	0	115.8	4	38.4	4	-1E+10	1	-1E+10	1	-1E+10	1	-1E+10	1	-1E+10	1	-1E+10	1
4901784	65	C	04/15/2017	10:41	-132.269	43.773	0	282.30	0	6.1160	0	34.0080	4	26.757	0	279.849	0	115.0	4	38.1	4	-1E+10	1	-1E+10	1	-1E+10	1	-1E+10	1	-1E+10	1	-1E+10	1
4901784	65	C	04/15/2017	10:41	-132.269	43.773	0	285.10	0	6.0930	0	34.0080	4	26.760	0	282.623	0	113.8	4	37.7	4	-1E+10	1	-1E+10	1	-1E+10	1	-1E+10	1	-1E+10	1	-1E+10	1
4901784	65	C	04/15/2017	10:41	-132.269	43.773	0	287.80	0	6.0640	0	34.0080	4	26.764	0	285.297	0	112.5	4	37.2	4	-1E+10	1	-1E+10	1	-1E+10	1	-1E+10	1	-1E+10	1	-1E+10	1
4901784	65	C	04/15/2017	10:41	-132.269	43.773	0	289.60	0	6.0540	0	34.0080	4	26.765	0	287.080	0	111.6	4	36.9	4	-1E+10	1	-1E+10	1	-1E+10	1	-1E+10	1	-1E+10	1	-1E+10	1
4901784	65	C	04/15/2017	10:41	-132.269	43.773	0	292.30	0	6.0280	0	34.0070	4	26.768	0	289.755	0	109.7	4	36.3	4	-1E+10	1	-1E+10	1	-1E+10	1	-1E+10	1	-1E+10	1	-1E+10	1
4901784	65	C	04/15/2017	10:41	-132.269	43.773	0	295.00	0	5.9530	0	34.0090	4	26.779	0	292.430	0	107.6	4	35.5	4	-1E+10	1	-1E+10	1	-1E+10	1	-1E+10	1	-1E+10	1	-1E+10	1
4901784	65	C	04/15/2017	10:41	-132.269	43.773	0	297.70	0	5.9160	0	34.0100	4	26.784	0	295.104	0	105.6	4	34.8	4	-1E+10	1	-1E+10	1	-1E+10	1	-1E+10	1	-1E+10	1	-1E+10	1
4901784	65	C	04/15/2017	10:41	-132.269	43.773	0	300.40	0	5.8690	0	34.0090	4	26.789	0	297.779	0	103.7	4	34.2	4	-1E+10	1	-1E+10	1	-1E+10	1	-1E+10	1	-1E+10	1	-1E+10	1
4901784	65	C	04/15/2017	10:41	-132.269	43.773	0	302.20	0	5.8530	0	34.0110	4	26.793	0	299.562	0	102.3	4	33.7	4	-1E+10	1	-1E+10	1	-1E+10	1	-1E+10	1	-1E+10	1	-1E+10	1
4901784	65	C	04/15/2017	10:41	-132.269	43.773	0	305.00	0	5.7890	0	34.0110	4	26.801	0	302.335	0	100.5	4	33.0	4	-1E+10	1	-1E+10	1	-1E+10	1	-1E+10	1	-1E+10	1	-1E+10	1
4901784	65	C	04/15/2017	10:41	-132.269	43.773	0	307.80	0	5.7450	0	34.0110	4	26.806	0	305.109	0	98.9	4	32.5	4	-1E+10	1	-1E+10	1	-1E+10	1	-1E+10	1	-1E+10	1	-1E+10	1
4901784	65	C	04/15/2017	10:41	-132.269	43.773	0	309.60	0	5.7090	0	34.0140	4	26.813	0	306.892	0	98.1	4	32.2	4	-1E+10	1	-1E+10	1	-1E+10	1	-1E+10	1	-1E+10	1	-1E+10	1
4901784	65	C	04/15/2017	10:41	-132.269	43.773	0	312.40	0	5.7010	0	34.0130	4	26.813	0	309.665	0	96.7	4	31.8	4	-1E+10	1	-1E+10	1	-1E+10	1	-1E+10	1	-1E+10	1	-1E+10	1
4901784	65	C	04/15/2017	10:41	-132.269	43.773	0	315.10	0	5.6380	0	34.0170	4	26.824	0	312.339	0	95.0	4	31.1	4	-1E+10	1	-1E+10	1	-1E+10	1	-1E+10	1	-1E+10	1	-1E+10	1
4901784	65	C	04/15/2017	10:41	-132.269	43.773	0	317.00	0	5.6160	0	34.0160	4	26.826	0	314.221	0	94.4	4	30.9	4	-1E+10	1	-1E+10	1	-1E+10	1	-1E+10	1	-1E+10	1	-1E+10	1
4901784	65	C	04/15/2017	10:41	-132.269	43.773	0	319.80	0	5.6050	0	34.0160	4	26.827	0	316.995	0	93.3	4	30.6	4	-1E+10	1	-1E+10	1	-1E+10	1	-1E+10	1	-1E+10	1	-1E+10	1
4901784	65	C	04/15/2017	10:41	-132.269	43.773	0	322.60	0	5.5800	0	34.0170	4	26.831	0	319.768	0	92.1	4	30.1	4	-1E+10	1	-1E+10	1	-1E+10	1	-1E+10	1	-1E+10	1	-1E+10	1
4901784	65	C	04/15/2017	10:41	-132.269	43.773	0	324.40	0	5.5540	0	34.0180	4	26.835	0	321.551	0	91.4	4	29.9	4	-1E+10	1	-1E+10	1	-1E+10	1	-1E+10	1	-1E+10	1	-1E+10	1
4901784	65	C	04/15/2017	10:41	-132.269	43.773	0	327.20	0	5.5390	0	34.0190	4	26.838	0	324.324	0	90.3	4	29.5	4	-1E+10	1	-1E+10	1	-1E+10	1	-1E+10	1	-1E+10	1	-1E+10	1
4901784	65	C	04/15/2017	10:41	-132.269	43.773	0	330.00	0	5.4990	0	34.0220	4	26.845	0	327.097	0	88.9	4	29.0	4	-1E+10	1	-1E+10	1	-1E+10	1	-1E+10	1	-1E+10	1	-1E+10	1
4901784	65	C	04/15/2017	10:41	-132.269	43.773	0	332.80	0	5.4690	0	34.0230	4	26.849	0	329.870	0	87.5	4	28.6	4	-1E+10	1	-1E+10	1	-1E+10	1	-1E+10	1	-1E+10	1	-1E+10	1
4901784	65	C	04/15/2017	10:41	-132.269	43.773	0	335.60	0	5.4180	0	34.0260	4	26.858	0	332.643	0	86.4	4	28.2	4	-1E+10	1	-1E+10	1	-1E+10	1	-1E+10	1	-1E+10	1	-1E+10	1
4901784	65	C	04/15/2017	10:41	-132.269	43.773	0	337.40	0	5.4120	0	34.0260	4	26.858	0	334.426	0	86.0	4	28.0	4	-1E+10	1	-1E+10	1	-1E+10	1	-1E+10	1	-1E+10	1	-1E+10	1
4901784	65	C	04/15/2017	10:41	-132.269	43.773	0	339.80	0	5.3930	0	34.0270	4	26.861	0	336.803	0	85.3	4	27.8	4	-1E+10	1	-1E+10	1	-1E+10	1	-1E+10	1	-1E+10	1	-1E+10	1
4901784	65	C	04/15/2017	10:41	-132.269	43.773	0	342.50	0	5.3790	0	34.0280	4	26.864	0	339.477	0	84.6	4	27.6	4	-1E+10	1	-1E+10	1	-1E+10	1	-1E+10	1	-1E+10	1	-1E+10	1
4901784	65	C	04/15/2017	10:41	-132.269	43.773	0	344.80	0	5.3710	0	34.0270	4	26.864	0	341.755	0	83.9	4	27.3	4	-1E+10	1	-1E+10	1	-1E+10	1	-1E+10	1	-1E+10	1	-1E+10	1
4901784	65	C	04/15/2017	10:41	-132.269	43.773	0	347.20	0	5.3360	0	34.0290	4	26.870	0	344.132	0	83.3	4	27.1	4	-1E+10	1	-1E+10	1	-1E+10	1	-1E+10	1	-1E+10	1	-1E+10	1
4901784	65	C	04/15/2017	10:41	-132.269	43.773	0	350.50	0	5.3340	0	34.0290	4	26.870	0	347.400	0	82.4	4	26.8	4	-1E+10	1	-1E+10	1	-1E+10	1	-1E+10	1	-1E+10	1	-1E+10	1
4901784	65	C	04/15/2017	10:41	-132.269	43.773	0	352.80	0	5.3280	0	34.0290	4	26.871	0	349.677	0	81.4	4	26.5	4	-1E+10	1	-1E+10	1	-1E+10	1	-1E+10	1	-1E+10	1	-1E+10	1
4901784	65	C	04/15/2017	10:41	-132.269	43.773	0	355.30	0	5.3050	0	34.0310	4	26.875	0	352.153	0	80.3	4	26.1	4	-1E+10	1	-1E+10	1	-1E+10	1	-1E+10	1	-1E+10	1	-1E+10	1
4901784	65	C	04/15/2017	10:41	-132.269	43.773	0	357.80	0	5.2840	0	34.0330	4	26.879	0	354.629	0	79.4	4	25.8	4	-1E+10	1	-1E+10	1	-1E+10	1	-1E+10	1	-1E+10	1	-1E+10	1
4901784	65	C	04/15/2017	10:41	-132.269	43.773	0	360.30	0	5.2650	0	34.0350	4	26.883	0	357.104	0	78.3	4	25.5	4	-1E+10	1	-1E+10	1	-1E+10	1	-1E+10	1	-1E+10	1	-1E+10	1
4901784	65	C	04/15/2017	10:41	-132.269	43.773	0	362.80	0	5.2500	0	34.0350	4	26.885	0	359.580	0	77.4	4	25.1	4	-1E+10	1	-1E+10	1	-1E+10	1	-1E+10	1	-1E+10	1	-1E+10	1
4901784	65	C	04/15/2017	10:41	-132.269	43.773	0	365.30	0	5.2300	0	34.0370	4	26.889	0	362.056	0	76.1	4	24.7	4	-1E+10	1	-1E+10	1	-1E+10	1	-1E+10	1	-1E+10	1	-1E+10	1
4901784	65	C	04/15/2017	10:41	-132.269	43.773	0	367.70	0	5.2040	0	34.0390	4	26.893	0	364.432	0	75.1	4	24.4	4	-1E+10	1	-1E+10	1	-1E+10	1	-1E+10	1	-1E+10	1	-1E+10	1
4901784	65	C	04/15/2017	10:41	-132.269	43.773	0	370.20	0	5.1870	0	34.0400	4	26.896	0	366.908	0	74.3	4	24.1	4	-1E+10	1	-1E+10	1	-1E+10	1	-1E+10	1	-1E+10	1	-1E+10	1
4901784	65	C	04/15/2017	10:41	-132.269	43.773	0	372.70	0	5.1590	0	34.0430	4	26.902	0	369.383	0	73.6	4	23.9	4	-1E+10	1	-1E+10	1	-1E+10	1	-1E+10	1	-1E+10	1	-1E+10	1
4901784	65	C	04/15/2017	10:41	-132.269	43.773	0	375.30	0	5.1500	0	34.0430	4	26.903	0	371.958	0	73.0	4	23.7	4	-1E+10	1	-1E+10	1	-1E+10	1	-1E+10	1	-1E+10	1	-1E+10	1
4901784	65	C	04/15/2017	10:41	-132.269	43.773	0	377.80	0	5.1350	0	34.0450	4	26.906	0	374.433	0	72.4	4	23.5	4	-1E+10	1	-1E+10	1	-1E+10	1	-1E+10	1	-1E+10	1	-1E+10	1
4901784	65	C	04/15/2017	10:41	-132.269	43.773	0	380.30	0	5.1250	0	34.0450	4	26.907	0	376.909	0	71.6	4	23.2	4	-1E+10	1	-1E+10	1	-1E+10	1	-1E+10	1	-1E+10	1	-1E+10	1
4901784	65	C	04/15/2017	10:41	-132.269	43.773	0	382.90	0	5.1050	0	34.0480	4	26.912	0	379.483	0	70.9	4	22.9	4	-1E+10	1	-1E+10	1	-1E+10	1	-1E+10	1	-1E+10	1	-1E+10	1
4901784	65	C	04/15/2017	10:41	-132.269	43.773	0	385.40	0	5.0940	0	34.0490	4	26.914	0	381.959	0	70.3	4	22.8	4	-1E+10	1	-1E+10	1	-1E+10	1	-1E+10	1	-1E+10	1	-1E+10	1
4901784	65	C	04/15/2017	10:41	-132.269	43.773	0	387.80	0	5.0860	0	34.0500	4	26.916	0	384.335	0	69.8	4	22.6	4	-1E+10	1	-1E+10	1	-1E+10	1	-1E+10	1	-1E+10	1	-1E+10	1
4901784	65	C	04/15/2017	10:41	-132.269	43.773	0	390.40	0	5.0690	0	34.0520	4	26.919	0	386.909	0	69.2	4	22.4	4	-1E+10	1	-1E+10	1	-1E+10	1	-1E+10	1	-1E+10	1	-1E+10	1
4901784	65	C	04/15/2017	10:41	-132.269	43.773	0	392.90	0	5.0530	0	34.0530	4	26.922	0	389.385	0	68.7	4	22.2	4	-1E+10	1	-1E+10	1	-1E+10	1	-1E+10	1	-1E+10	1	-1E+10	1
4901784	65	C	04/15/2017	10:41	-132.269	43.773	0	394.60	0	5.0390	0	34.0550	4	26.925	0	391.068	0	68.5	4	22.2	4	-1E+10	1	-1E+10	1	-1E+10	1	-1E+10	1	-1E+10	1	-1E+10	1
4901784	65	C	04/15/2017	10:41	-132.269	43.773	0	397.20	0	5.0280	0	34.0560	4	26.927	0	393.642	0	68.3	4	22.1	4	-1E+10	1	-1E+10	1	-1E+10	1	-1E+10	1	-1E+10	1	-1E+10	1
4901784	65	C	04/15/2017	10:41	-132.269	43.773	0	399.70	0	5.0170	0	34.0570	4	26.929	0	396.117	0	68.3	4	22.1	4	-1E+10	1	-1E+10	1	-1E+10	1	-1E+10	1	-1E+10	1	-1E+10	1
4901784	65	C	04/15/2017	10:41	-132.269	43.773	0	402.30	0	5.0090	0	34.0570	4	26.930	0	398.692	0	68.0	4	22.0	4	-1E+10	1	-1E+10	1	-1E+10	1	-1E+10	1	-1E+10	1	-1E+10	1
4901784	65	C	04/15/2017	10:41	-132.269	43.773	0	404.80	0	5.0010	0	34.0580	4	26.932	0	401.167	0	67.4	4	21.8	4	-1E+10	1	-1E+10	1	-1E+10	1	-1E+10	1	-1E+10	1	-1E+10	1
4901784	65	C	04/15/2017	10:41	-132.269	43.773	0	407.50	0	4.9810	0	34.0610	4	26.937	0	403.840	0	66.8	4	21.6	4	-1E+10	1	-1E+10	1	-1E+10	1	-1E+10	1	-1E+10	1	-1E+10	1
4901784	65	C	04/15/2017	10:41	-132.269	43.773	0	410.10	0	4.9540	0	34.0640	4	26.942	0	406.414	0	66.6	4	21.5	4	-1E+10	1	-1E+10	1	-1E+10	1	-1E+10	1	-1E+10	1	-1E+10	1
4901784	65	C	04/15/2017	10:41	-132.269	43.773	0	412.70	0	4.9520	0	34.0640	4	26.942	0	408.988	0	66.5	4	21.4	4	-1E+10	1	-1E+10	1	-1E+10	1	-1E+10	1	-1E+10	1	-1E+10	1
4901784	65	C	04/15/2017	10:41	-132.269	43.773	0	415.30	0	4.9500	0	34.0640	4	26.943	0	411.562	0	66.2	4	21.4	4	-1E+10	1	-1E+10	1	-1E+10	1	-1E+10	1	-1E+10	1	-1E+10	1
4901784	65	C	04/15/2017	10:41	-132.269	43.773	0	417.10	0	4.9470	0	34.0640	4	26.943	0	413.344	0	65.9	4	21.3	4	-1E+10	1	-1E+10	1	-1E+10	1	-1E+10	1	-1E+10	1	-1E+10	1
4901784	65	C	04/15/2017	10:41	-132.269	43.773	0	419.70	0	4.9330	0	34.0660	4	26.946	0	415.918	0	65.2	4	21.0	4	-1E+10	1	-1E+10	1	-1E+10	1	-1E+10	1	-1E+10	1	-1E+10	1
4901784	65	C	04/15/2017	10:41	-132.269	43.773	0	422.30	0	4.9230	0	34.0670	4	26.948	0	418.492	0	64.4	4	20.8	4	-1E+10	1	-1E+10	1	-1E+10	1	-1E+10	1	-1E+10	1	-1E+10	1
4901784	65	C	04/15/2017	10:41	-132.269	43.773	0	424.80	0	4.9190	0	34.0690	4	26.950	0	420.967	0	63.4	4	20.4	4	-1E+10	1	-1E+10	1	-1E+10	1	-1E+10	1	-1E+10	1	-1E+10	1
4901784	65	C	04/15/2017	10:41	-132.269	43.773	0	427.40	0	4.9100	0	34.0710	4	26.953	0	423.541	0	62.4	4	20.1	4	-1E+10	1	-1E+10	1	-1E+10	1	-1E+10	1	-1E+10	1	-1E+10	1
4901784	65	C	04/15/2017	10:41	-132.269	43.773	0	430.10	0	4.8960	0	34.0740	4	26.957	0	426.214	0	61.4	4	19.8	4	-1E+10	1	-1E+10	1	-1E+10	1	-1E+10	1	-1E+10	1	-1E+10	1
4901784	65	C	04/15/2017	10:41	-132.269	43.773	0	432.70	0	4.8890	0	34.0750	4	26.958	0	428.788	0	60.6	4	19.5	4	-1E+10	1	-1E+10	1	-1E+10	1	-1E+10	1	-1E+10	1	-1E+10	1
4901784	65	C	04/15/2017	10:41	-132.269	43.773	0	434.60	0	4.8820	0	34.0760	4	26.960	0	430.668	0	59.8	4	19.3	4	-1E+10	1	-1E+10	1	-1E+10	1	-1E+10	1	-1E+10	1	-1E+10	1
4901784	65	C	04/15/2017	10:41	-132.269	43.773	0	437.20	0	4.8670	0	34.0790	4	26.964	0	433.242	0	58.6	4	18.9	4	-1E+10	1	-1E+10	1	-1E+10	1	-1E+10	1	-1E+10	1	-1E+10	1
4901784	65	C	04/15/2017	10:41	-132.269	43.773	0	439.90	0	4.8530	0	34.0830	4	26.969	0	435.915	0	57.6	4	18.5	4	-1E+10	1	-1E+10	1	-1E+10	1	-1E+10	1	-1E+10	1	-1E+10	1
4901784	65	C	04/15/2017	10:41	-132.269	43.773	0	442.60	0	4.8450	0	34.0850	4	26.971	0	438.588	0	56.7	4	18.3	4	-1E+10	1	-1E+10	1	-1E+10	1	-1E+10	1	-1E+10	1	-1E+10	1
4901784	65	C	04/15/2017	10:41	-132.269	43.773	0	445.30	0	4.8370	0	34.0870	4	26.974	0	441.260	0	55.8	4	18.0	4	-1E+10	1	-1E+10	1	-1E+10	1	-1E+10	1	-1E+10	1	-1E+10	1
4901784	65	C	04/15/2017	10:41	-132.269	43.773	0	447.00	0	4.8350	0	34.0890	4	26.976	0	442.943	0	55.2	4	17.8	4	-1E+10	1	-1E+10	1	-1E+10	1	-1E+10	1	-1E+10	1	-1E+10	1
4901784	65	C	04/15/2017	10:41	-132.269	43.773	0	449.80	0	4.8380	0	34.0910	4	26.977	0	445.715	0	54.3	4	17.5	4	-1E+10	1	-1E+10	1	-1E+10	1	-1E+10	1	-1E+10	1	-1E+10	1
4901784	65	C	04/15/2017	10:41	-132.269	43.773	0	452.40	0	4.8280	0	34.0940	4	26.981	0	448.288	0	53.3	4	17.2	4	-1E+10	1	-1E+10	1	-1E+10	1	-1E+10	1	-1E+10	1	-1E+10	1
4901784	65	C	04/15/2017	10:41	-132.269	43.773	0	455.20	0	4.8120	0	34.0970	4	26.985	0	451.060	0	52.6	4	16.9	4	-1E+10	1	-1E+10	1	-1E+10	1	-1E+10	1	-1E+10	1	-1E+10	1
4901784	65	C	04/15/2017	10:41	-132.269	43.773	0	457.90	0	4.8000	0	34.1010	4	26.989	0	453.732	0	51.9	4	16.7	4	-1E+10	1	-1E+10	1	-1E+10	1	-1E+10	1	-1E+10	1	-1E+10	1
4901784	65	C	04/15/2017	10:41	-132.269	43.773	0	459.90	0	4.8000	0	34.1010	4	26.989	0	455.712	0	51.5	4	16.6	4	-1E+10	1	-1E+10	1	-1E+10	1	-1E+10	1	-1E+10	1	-1E+10	1
4901784	65	C	04/15/2017	10:41	-132.269	43.773	0	462.60	0	4.7940	0	34.1040	4	26.992	0	458.384	0	50.9	4	16.4	4	-1E+10	1	-1E+10	1	-1E+10	1	-1E+10	1	-1E+10	1	-1E+10	1
4901784	65	C	04/15/2017	10:41	-132.269	43.773	0	465.30	0	4.7810	0	34.1070	4	26.996	0	461.057	0	50.4	4	16.2	4	-1E+10	1	-1E+10	1	-1E+10	1	-1E+10	1	-1E+10	1	-1E+10	1
4901784	65	C	04/15/2017	10:41	-132.269	43.773	0	467.20	0	4.7580	0	34.1070	4	26.999	0	462.937	0	50.2	4	16.1	4	-1E+10	1	-1E+10	1	-1E+10	1	-1E+10	1	-1E+10	1	-1E+10	1
4901784	65	C	04/15/2017	10:41	-132.269	43.773	0	469.90	0	4.7380	0	34.1120	4	27.005	0	465.610	0	49.7	4	16.0	4	-1E+10	1	-1E+10	1	-1E+10	1	-1E+10	1	-1E+10	1	-1E+10	1
4901784	65	C	04/15/2017	10:41	-132.269	43.773	0	472.70	0	4.7340	0	34.1130	4	27.006	0	468.381	0	49.4	4	15.9	4	-1E+10	1	-1E+10	1	-1E+10	1	-1E+10	1	-1E+10	1	-1E+10	1
4901784	65	C	04/15/2017	10:41	-132.269	43.773	0	474.50	0	4.7280	0	34.1130	4	27.007	0	470.162	0	49.3	4	15.8	4	-1E+10	1	-1E+10	1	-1E+10	1	-1E+10	1	-1E+10	1	-1E+10	1
4901784	65	C	04/15/2017	10:41	-132.269	43.773	0	477.20	0	4.7160	0	34.1150	4	27.010	0	472.835	0	49.0	4	15.7	4	-1E+10	1	-1E+10	1	-1E+10	1	-1E+10	1	-1E+10	1	-1E+10	1
4901784	65	C	04/15/2017	10:41	-132.269	43.773	0	480.00	0	4.6960	0	34.1140	4	27.011	0	475.606	0	48.6	4	15.6	4	-1E+10	1	-1E+10	1	-1E+10	1	-1E+10	1	-1E+10	1	-1E+10	1
4901784	65	C	04/15/2017	10:41	-132.269	43.773	0	482.80	0	4.6880	0	34.1140	4	27.012	0	478.377	0	47.5	4	15.2	4	-1E+10	1	-1E+10	1	-1E+10	1	-1E+10	1	-1E+10	1	-1E+10	1
4901784	65	C	04/15/2017	10:41	-132.269	43.773	0	485.60	0	4.6800	0	34.1160	4	27.015	0	481.148	0	46.0	4	14.8	4	-1E+10	1	-1E+10	1	-1E+10	1	-1E+10	1	-1E+10	1	-1E+10	1
4901784	65	C	04/15/2017	10:41	-132.269	43.773	0	487.50	0	4.6780	0	34.1270	4	27.024	0	483.028	0	44.9	4	14.4	4	-1E+10	1	-1E+10	1	-1E+10	1	-1E+10	1	-1E+10	1	-1E+10	1
4901784	65	C	04/15/2017	10:41	-132.269	43.773	0	490.30	0	4.6750	0	34.1280	4	27.025	0	485.799	0	44.2	4	14.2	4	-1E+10	1	-1E+10	1	-1E+10	1	-1E+10	1	-1E+10	1	-1E+10	1
4901784	65	C	04/15/2017	10:41	-132.269	43.773	0	493.10	0	4.6790	0	34.1310	4	27.027	0	488.570	0	43.4	4	13.9	4	-1E+10	1	-1E+10	1	-1E+10	1	-1E+10	1	-1E+10	1	-1E+10	1
4901784	65	C	04/15/2017	10:41	-132.269	43.773	0	494.90	0	4.6620	0	34.1340	4	27.031	0	490.352	0	43.1	4	13.8	4	-1E+10	1	-1E+10	1	-1E+10	1	-1E+10	1	-1E+10	1	-1E+10	1
4901784	65	C	04/15/2017	10:41	-132.269	43.773	0	497.80	0	4.6410	0	34.1360	4	27.035	0	493.222	0	42.9	4	13.8	4	-1E+10	1	-1E+10	1	-1E+10	1	-1E+10	1	-1E+10	1	-1E+10	1
4901784	65	C	04/15/2017	10:41	-132.269	43.773	0	500.60	0	4.6210	0	34.1350	4	27.036	0	495.993	0	42.6	4	13.6	4	-1E+10	1	-1E+10	1	-1E+10	1	-1E+10	1	-1E+10	1	-1E+10	1
4901784	65	C	04/15/2017	10:41	-132.269	43.773	0	505.20	0	4.6030	0	34.1400	4	27.042	0	500.545	0	41.7	4	13.3	4	-1E+10	1	-1E+10	1	-1E+10	1	-1E+10	1	-1E+10	1	-1E+10	1
4901784	65	C	04/15/2017	10:41	-132.269	43.773	0	509.90	0	4.5960	0	34.1430	4	27.045	0	505.196	0	40.4	4	12.9	4	-1E+10	1	-1E+10	1	-1E+10	1	-1E+10	1	-1E+10	1	-1E+10	1
4901784	65	C	04/15/2017	10:41	-132.269	43.773	0	515.60	0	4.5800	0	34.1500	4	27.053	0	510.836	0	39.0	4	12.5	4	-1E+10	1	-1E+10	1	-1E+10	1	-1E+10	1	-1E+10	1	-1E+10	1
4901784	65	C	04/15/2017	10:41	-132.269	43.773	0	520.50	0	4.5780	0	34.1540	4	27.056	0	515.685	0	37.8	4	12.1	4	-1E+10	1	-1E+10	1	-1E+10	1	-1E+10	1	-1E+10	1	-1E+10	1
4901784	65	C	04/15/2017	10:41	-132.269	43.773	0	525.00	0	4.5590	0	34.1580	4	27.062	0	520.137	0	36.4	4	11.7	4	-1E+10	1	-1E+10	1	-1E+10	1	-1E+10	1	-1E+10	1	-1E+10	1
4901784	65	C	04/15/2017	10:41	-132.269	43.773	0	529.80	0	4.5430	0	34.1640	4	27.068	0	524.887	0	34.9	4	11.2	4	-1E+10	1	-1E+10	1	-1E+10	1	-1E+10	1	-1E+10	1	-1E+10	1
4901784	65	C	04/15/2017	10:41	-132.269	43.773	0	534.80	0	4.5280	0	34.1720	4	27.076	0	529.834	0	33.5	4	10.7	4	-1E+10	1	-1E+10	1	-1E+10	1	-1E+10	1	-1E+10	1	-1E+10	1
4901784	65	C	04/15/2017	10:41	-132.269	43.773	0	539.60	0	4.5160	0	34.1760	4	27.081	0	534.583	0	32.6	4	10.4	4	-1E+10	1	-1E+10	1	-1E+10	1	-1E+10	1	-1E+10	1	-1E+10	1
4901784	65	C	04/15/2017	10:41	-132.269	43.773	0	544.60	0	4.5020	0	34.1800	4	27.085	0	539.531	0	31.9	4	10.2	4	-1E+10	1	-1E+10	1	-1E+10	1	-1E+10	1	-1E+10	1	-1E+10	1
4901784	65	C	04/15/2017	10:41	-132.269	43.773	0	549.50	0	4.4880	0	34.1830	4	27.089	0	544.379	0	31.0	4	9.9	4	-1E+10	1	-1E+10	1	-1E+10	1	-1E+10	1	-1E+10	1	-1E+10	1
4901784	65	C	04/15/2017	10:41	-132.269	43.773	0	554.50	0	4.4680	0	34.1880	4	27.095	0	549.325	0	30.1	4	9.6	4	-1E+10	1	-1E+10	1	-1E+10	1	-1E+10	1	-1E+10	1	-1E+10	1
4901784	65	C	04/15/2017	10:41	-132.269	43.773	0	559.50	0	4.4410	0	34.1930	4	27.102	0	554.272	0	29.1	4	9.3	4	-1E+10	1	-1E+10	1	-1E+10	1	-1E+10	1	-1E+10	1	-1E+10	1
4901784	65	C	04/15/2017	10:41	-132.269	43.773	0	564.30	0	4.4170	0	34.1990	4	27.110	0	559.021	0	28.1	4	9.0	4	-1E+10	1	-1E+10	1	-1E+10	1	-1E+10	1	-1E+10	1	-1E+10	1
4901784	65	C	04/15/2017	10:41	-132.269	43.773	0	569.30	0	4.3940	0	34.2040	4	27.116	0	563.967	0	27.5	4	8.8	4	-1E+10	1	-1E+10	1	-1E+10	1	-1E+10	1	-1E+10	1	-1E+10	1
4901784	65	C	04/15/2017	10:41	-132.269	43.773	0	574.20	0	4.3830	0	34.2060	4	27.119	0	568.815	0	26.6	4	8.5	4	-1E+10	1	-1E+10	1	-1E+10	1	-1E+10	1	-1E+10	1	-1E+10	1
4901784	65	C	04/15/2017	10:41	-132.269	43.773	0	579.30	0	4.3730	0	34.2130	4	27.126	0	573.860	0	25.2	4	8.0	4	-1E+10	1	-1E+10	1	-1E+10	1	-1E+10	1	-1E+10	1	-1E+10	1
4901784	65	C	04/15/2017	10:41	-132.269	43.773	0	584.30	0	4.3530	0	34.2220	4	27.135	0	578.806	0	24.2	4	7.7	4	-1E+10	1	-1E+10	1	-1E+10	1	-1E+10	1	-1E+10	1	-1E+10	1
4901784	65	C	04/15/2017	10:41	-132.269	43.773	0	589.40	0	4.3350	0	34.2270	4	27.141	0	583.851	0	23.5	4	7.5	4	-1E+10	1	-1E+10	1	-1E+10	1	-1E+10	1	-1E+10	1	-1E+10	1
4901784	65	C	04/15/2017	10:41	-132.269	43.773	0	594.50	0	4.3140	0	34.2310	4	27.146	0	588.895	0	22.8	4	7.3	4	-1E+10	1	-1E+10	1	-1E+10	1	-1E+10	1	-1E+10	1	-1E+10	1
4901784	65	C	04/15/2017	10:41	-132.269	43.773	0	599.60	0	4.2970	0	34.2360	4	27.152	0	593.940	0	22.0	4	7.0	4	-1E+10	1	-1E+10	1	-1E+10	1	-1E+10	1	-1E+10	1	-1E+10	1
4901784	65	C	04/15/2017	10:41	-132.269	43.773	0	604.80	0	4.2680	0	34.2440	4	27.162	0	599.083	0	21.3	4	6.8	4	-1E+10	1	-1E+10	1	-1E+10	1	-1E+10	1	-1E+10	1	-1E+10	1
4901784	65	C	04/15/2017	10:41	-132.269	43.773	0	609.90	0	4.2460	0	34.2500	4	27.169	0	604.128	0	20.8	4	6.6	4	-1E+10	1	-1E+10	1	-1E+10	1	-1E+10	1	-1E+10	1	-1E+10	1
4901784	65	C	04/15/2017	10:41	-132.269	43.773	0	615.10	0	4.2340	0	34.2530	4	27.172	0	609.271	0	20.3	4	6.5	4	-1E+10	1	-1E+10	1	-1E+10	1	-1E+10	1	-1E+10	1	-1E+10	1
4901784	65	C	04/15/2017	10:41	-132.269	43.773	0	620.20	0	4.2210	0	34.2570	4	27.177	0	614.315	0	19.9	4	6.3	4	-1E+10	1	-1E+10	1	-1E+10	1	-1E+10	1	-1E+10	1	-1E+10	1
4901784	65	C	04/15/2017	10:41	-132.269	43.773	0	625.30	0	4.2070	0	34.2600	4	27.181	0	619.359	0	19.3	4	6.1	4	-1E+10	1	-1E+10	1	-1E+10	1	-1E+10	1	-1E+10	1	-1E+10	1
4901784	65	C	04/15/2017	10:41	-132.269	43.773	0	630.40	0	4.1860	0	34.2660	4	27.188	0	624.403	0	18.8	4	6.0	4	-1E+10	1	-1E+10	1	-1E+10	1	-1E+10	1	-1E+10	1	-1E+10	1
4901784	65	C	04/15/2017	10:41	-132.269	43.773	0	635.50	0	4.1810	0	34.2680	4	27.190	0	629.447	0	18.3	4	5.8	4	-1E+10	1	-1E+10	1	-1E+10	1	-1E+10	1	-1E+10	1	-1E+10	1
4901784	65	C	04/15/2017	10:41	-132.269	43.773	0	639.90	0	4.1680	0	34.2750	4	27.197	0	633.798	0	17.6	4	5.6	4	-1E+10	1	-1E+10	1	-1E+10	1	-1E+10	1	-1E+10	1	-1E+10	1
4901784	65	C	04/15/2017	10:41	-132.269	43.773	0	644.30	0	4.1520	0	34.2830	4	27.205	0	638.150	0	17.1	4	5.4	4	-1E+10	1	-1E+10	1	-1E+10	1	-1E+10	1	-1E+10	1	-1E+10	1
4901784	65	C	04/15/2017	10:41	-132.269	43.773	0	649.50	0	4.1420	0	34.2860	4	27.209	0	643.292	0	16.9	4	5.4	4	-1E+10	1	-1E+10	1	-1E+10	1	-1E+10	1	-1E+10	1	-1E+10	1
4901784	65	C	04/15/2017	10:41	-132.269	43.773	0	654.80	0	4.1340	0	34.2880	4	27.211	0	648.533	0	16.6	4	5.3	4	-1E+10	1	-1E+10	1	-1E+10	1	-1E+10	1	-1E+10	1	-1E+10	1
4901784	65	C	04/15/2017	10:41	-132.269	43.773	0	660.00	0	4.1180	0	34.2930	4	27.217	0	653.675	0	16.3	4	5.2	4	-1E+10	1	-1E+10	1	-1E+10	1	-1E+10	1	-1E+10	1	-1E+10	1
4901784	65	C	04/15/2017	10:41	-132.269	43.773	0	665.30	0	4.1000	0	34.2980	4	27.223	0	658.916	0	16.1	4	5.1	4	-1E+10	1	-1E+10	1	-1E+10	1	-1E+10	1	-1E+10	1	-1E+10	1
4901784	65	C	04/15/2017	10:41	-132.269	43.773	0	669.90	0	4.0920	0	34.3000	4	27.225	0	663.465	0	16.0	4	5.1	4	-1E+10	1	-1E+10	1	-1E+10	1	-1E+10	1	-1E+10	1	-1E+10	1
4901784	65	C	04/15/2017	10:41	-132.269	43.773	0	674.50	0	4.0890	0	34.3000	4	27.225	0	668.013	0	15.9	4	5.0	4	-1E+10	1	-1E+10	1	-1E+10	1	-1E+10	1	-1E+10	1	-1E+10	1
4901784	65	C	04/15/2017	10:41	-132.269	43.773	0	680.10	0	4.0870	0	34.3010	4	27.226	0	673.550	0	15.8	4	5.0	4	-1E+10	1	-1E+10	1	-1E+10	1	-1E+10	1	-1E+10	1	-1E+10	1
4901784	65	C	04/15/2017	10:41	-132.269	43.773	0	684.80	0	4.0800	0	34.3020	4	27.228	0	678.197	0	15.5	4	4.9	4	-1E+10	1	-1E+10	1	-1E+10	1	-1E+10	1	-1E+10	1	-1E+10	1
4901784	65	C	04/15/2017	10:41	-132.269	43.773	0	689.50	0	4.0540	0	34.3090	4	27.236	0	682.844	0	15.3	4	4.8	4	-1E+10	1	-1E+10	1	-1E+10	1	-1E+10	1	-1E+10	1	-1E+10	1
4901784	65	C	04/15/2017	10:41	-132.269	43.773	0	695.00	0	4.0430	0	34.3120	4	27.240	0	688.282	0	15.1	4	4.8	4	-1E+10	1	-1E+10	1	-1E+10	1	-1E+10	1	-1E+10	1	-1E+10	1
4901784	65	C	04/15/2017	10:41	-132.269	43.773	0	700.50	0	4.0380	0	34.3130	4	27.241	0	693.720	0	15.0	4	4.7	4	-1E+10	1	-1E+10	1	-1E+10	1	-1E+10	1	-1E+10	1	-1E+10	1
4901784	65	C	04/15/2017	10:41	-132.269	43.773	0	705.90	0	4.0310	0	34.3160	4	27.244	0	699.058	0	14.8	4	4.7	4	-1E+10	1	-1E+10	1	-1E+10	1	-1E+10	1	-1E+10	1	-1E+10	1
4901784	65	C	04/15/2017	10:41	-132.269	43.773	0	710.20	0	4.0170	0	34.3200	4	27.249	0	703.309	0	14.6	4	4.6	4	-1E+10	1	-1E+10	1	-1E+10	1	-1E+10	1	-1E+10	1	-1E+10	1
4901784	65	C	04/15/2017	10:41	-132.269	43.773	0	715.10	0	4.0060	0	34.3230	4	27.252	0	708.154	0	14.4	4	4.5	4	-1E+10	1	-1E+10	1	-1E+10	1	-1E+10	1	-1E+10	1	-1E+10	1
4901784	65	C	04/15/2017	10:41	-132.269	43.773	0	720.00	0	3.9940	0	34.3270	4	27.257	0	712.998	0	14.2	4	4.5	4	-1E+10	1	-1E+10	1	-1E+10	1	-1E+10	1	-1E+10	1	-1E+10	1
4901784	65	C	04/15/2017	10:41	-132.269	43.773	0	725.00	0	3.9860	0	34.3300	4	27.260	0	717.940	0	14.0	4	4.4	4	-1E+10	1	-1E+10	1	-1E+10	1	-1E+10	1	-1E+10	1	-1E+10	1
4901784	65	C	04/15/2017	10:41	-132.269	43.773	0	729.90	0	3.9800	0	34.3320	4	27.262	0	722.784	0	13.9	4	4.4	4	-1E+10	1	-1E+10	1	-1E+10	1	-1E+10	1	-1E+10	1	-1E+10	1
4901784	65	C	04/15/2017	10:41	-132.269	43.773	0	734.90	0	3.9730	0	34.3340	4	27.265	0	727.727	0	13.8	4	4.3	4	-1E+10	1	-1E+10	1	-1E+10	1	-1E+10	1	-1E+10	1	-1E+10	1
4901784	65	C	04/15/2017	10:41	-132.269	43.773	0	739.90	0	3.9600	0	34.3380	4	27.269	0	732.669	0	13.6	4	4.3	4	-1E+10	1	-1E+10	1	-1E+10	1	-1E+10	1	-1E+10	1	-1E+10	1
4901784	65	C	04/15/2017	10:41	-132.269	43.773	0	744.80	0	3.9500	0	34.3400	4	27.272	0	737.513	0	13.4	4	4.2	4	-1E+10	1	-1E+10	1	-1E+10	1	-1E+10	1	-1E+10	1	-1E+10	1
4901784	65	C	04/15/2017	10:41	-132.269	43.773	0	749.90	0	3.9400	0	34.3430	4	27.275	0	742.554	0	13.2	4	4.2	4	-1E+10	1	-1E+10	1	-1E+10	1	-1E+10	1	-1E+10	1	-1E+10	1
4901784	65	C	04/15/2017	10:41	-132.269	43.773	0	755.00	0	3.9210	0	34.3490	4	27.282	0	747.595	0	13.0	4	4.1	4	-1E+10	1	-1E+10	1	-1E+10	1	-1E+10	1	-1E+10	1	-1E+10	1
4901784	65	C	04/15/2017	10:41	-132.269	43.773	0	760.00	0	3.9110	0	34.3520	4	27.286	0	752.536	0	12.8	4	4.1	4	-1E+10	1	-1E+10	1	-1E+10	1	-1E+10	1	-1E+10	1	-1E+10	1
4901784	65	C	04/15/2017	10:41	-132.269	43.773	0	765.10	0	3.8940	0	34.3570	4	27.291	0	757.577	0	12.7	4	4.0	4	-1E+10	1	-1E+10	1	-1E+10	1	-1E+10	1	-1E+10	1	-1E+10	1
4901784	65	C	04/15/2017	10:41	-132.269	43.773	0	770.10	0	3.8710	0	34.3620	4	27.298	0	762.519	0	12.5	4	4.0	4	-1E+10	1	-1E+10	1	-1E+10	1	-1E+10	1	-1E+10	1	-1E+10	1
4901784	65	C	04/15/2017	10:41	-132.269	43.773	0	775.20	0	3.8580	0	34.3650	4	27.301	0	767.559	0	12.5	4	3.9	4	-1E+10	1	-1E+10	1	-1E+10	1	-1E+10	1	-1E+10	1	-1E+10	1
4901784	65	C	04/15/2017	10:41	-132.269	43.773	0	780.20	0	3.8450	0	34.3680	4	27.305	0	772.501	0	12.3	4	3.9	4	-1E+10	1	-1E+10	1	-1E+10	1	-1E+10	1	-1E+10	1	-1E+10	1
4901784	65	C	04/15/2017	10:41	-132.269	43.773	0	785.30	0	3.8260	0	34.3730	4	27.311	0	777.541	0	12.2	4	3.8	4	-1E+10	1	-1E+10	1	-1E+10	1	-1E+10	1	-1E+10	1	-1E+10	1
4901784	65	C	04/15/2017	10:41	-132.269	43.773	0	790.30	0	3.8150	0	34.3750	4	27.314	0	782.482	0	12.1	4	3.8	4	-1E+10	1	-1E+10	1	-1E+10	1	-1E+10	1	-1E+10	1	-1E+10	1
4901784	65	C	04/15/2017	10:41	-132.269	43.773	0	795.30	0	3.7900	0	34.3820	4	27.322	0	787.423	0	11.9	4	3.8	4	-1E+10	1	-1E+10	1	-1E+10	1	-1E+10	1	-1E+10	1	-1E+10	1
4901784	65	C	04/15/2017	10:41	-132.269	43.773	0	800.50	0	3.7720	0	34.3880	4	27.328	0	792.562	0	11.8	4	3.7	4	-1E+10	1	-1E+10	1	-1E+10	1	-1E+10	1	-1E+10	1	-1E+10	1
4901784	65	C	04/15/2017	10:41	-132.269	43.773	0	805.60	0	3.7530	0	34.3930	4	27.334	0	797.602	0	11.7	4	3.7	4	-1E+10	1	-1E+10	1	-1E+10	1	-1E+10	1	-1E+10	1	-1E+10	1
4901784	65	C	04/15/2017	10:41	-132.269	43.773	0	810.70	0	3.7450	0	34.3960	4	27.338	0	802.641	0	11.7	4	3.7	4	-1E+10	1	-1E+10	1	-1E+10	1	-1E+10	1	-1E+10	1	-1E+10	1
4901784	65	C	04/15/2017	10:41	-132.269	43.773	0	815.00	0	3.7410	0	34.3970	4	27.339	0	806.890	0	11.6	4	3.7	4	-1E+10	1	-1E+10	1	-1E+10	1	-1E+10	1	-1E+10	1	-1E+10	1
4901784	65	C	04/15/2017	10:41	-132.269	43.773	0	819.30	0	3.7340	0	34.3980	4	27.340	0	811.139	0	11.6	4	3.6	4	-1E+10	1	-1E+10	1	-1E+10	1	-1E+10	1	-1E+10	1	-1E+10	1
4901784	65	C	04/15/2017	10:41	-132.269	43.773	0	824.70	0	3.7220	0	34.4010	4	27.344	0	816.475	0	11.5	4	3.6	4	-1E+10	1	-1E+10	1	-1E+10	1	-1E+10	1	-1E+10	1	-1E+10	1
4901784	65	C	04/15/2017	10:41	-132.269	43.773	0	829.90	0	3.7040	0	34.4060	4	27.350	0	821.613	0	11.4	4	3.6	4	-1E+10	1	-1E+10	1	-1E+10	1	-1E+10	1	-1E+10	1	-1E+10	1
4901784	65	C	04/15/2017	10:41	-132.269	43.773	0	835.10	0	3.6780	0	34.4130	4	27.358	0	826.750	0	11.4	4	3.6	4	-1E+10	1	-1E+10	1	-1E+10	1	-1E+10	1	-1E+10	1	-1E+10	1
4901784	65	C	04/15/2017	10:41	-132.269	43.773	0	840.30	0	3.6480	0	34.4210	4	27.367	0	831.888	0	11.3	4	3.6	4	-1E+10	1	-1E+10	1	-1E+10	1	-1E+10	1	-1E+10	1	-1E+10	1
4901784	65	C	04/15/2017	10:41	-132.269	43.773	0	845.60	0	3.6360	0	34.4250	4	27.372	0	837.124	0	11.3	4	3.6	4	-1E+10	1	-1E+10	1	-1E+10	1	-1E+10	1	-1E+10	1	-1E+10	1
4901784	65	C	04/15/2017	10:41	-132.269	43.773	0	850.20	0	3.6290	0	34.4270	4	27.374	0	841.669	0	11.3	4	3.5	4	-1E+10	1	-1E+10	1	-1E+10	1	-1E+10	1	-1E+10	1	-1E+10	1
4901784	65	C	04/15/2017	10:41	-132.269	43.773	0	854.70	0	3.6220	0	34.4280	4	27.375	0	846.115	0	11.3	4	3.6	4	-1E+10	1	-1E+10	1	-1E+10	1	-1E+10	1	-1E+10	1	-1E+10	1
4901784	65	C	04/15/2017	10:41	-132.269	43.773	0	860.30	0	3.6060	0	34.4320	4	27.380	0	851.647	0	11.3	4	3.6	4	-1E+10	1	-1E+10	1	-1E+10	1	-1E+10	1	-1E+10	1	-1E+10	1
4901784	65	C	04/15/2017	10:41	-132.269	43.773	0	865.00	0	3.5930	0	34.4350	4	27.384	0	856.290	0	11.4	4	3.6	4	-1E+10	1	-1E+10	1	-1E+10	1	-1E+10	1	-1E+10	1	-1E+10	1
4901784	65	C	04/15/2017	10:41	-132.269	43.773	0	869.80	0	3.5820	0	34.4380	4	27.387	0	861.032	0	11.4	4	3.6	4	-1E+10	1	-1E+10	1	-1E+10	1	-1E+10	1	-1E+10	1	-1E+10	1
4901784	65	C	04/15/2017	10:41	-132.269	43.773	0	875.60	0	3.5750	0	34.4390	4	27.389	0	866.762	0	11.4	4	3.6	4	-1E+10	1	-1E+10	1	-1E+10	1	-1E+10	1	-1E+10	1	-1E+10	1
4901784	65	C	04/15/2017	10:41	-132.269	43.773	0	880.30	0	3.5720	0	34.4410	4	27.391	0	871.404	0	11.4	4	3.6	4	-1E+10	1	-1E+10	1	-1E+10	1	-1E+10	1	-1E+10	1	-1E+10	1
4901784	65	C	04/15/2017	10:41	-132.269	43.773	0	885.00	0	3.5570	0	34.4450	4	27.396	0	876.047	0	11.5	4	3.6	4	-1E+10	1	-1E+10	1	-1E+10	1	-1E+10	1	-1E+10	1	-1E+10	1
4901784	65	C	04/15/2017	10:41	-132.269	43.773	0	890.60	0	3.5400	0	34.4490	4	27.400	0	881.578	0	11.5	4	3.6	4	-1E+10	1	-1E+10	1	-1E+10	1	-1E+10	1	-1E+10	1	-1E+10	1
4901784	65	C	04/15/2017	10:41	-132.269	43.773	0	895.50	0	3.5280	0	34.4520	4	27.404	0	886.419	0	11.6	4	3.6	4	-1E+10	1	-1E+10	1	-1E+10	1	-1E+10	1	-1E+10	1	-1E+10	1
4901784	65	C	04/15/2017	10:41	-132.269	43.773	0	900.40	0	3.5180	0	34.4540	4	27.407	0	891.258	0	11.6	4	3.6	4	-1E+10	1	-1E+10	1	-1E+10	1	-1E+10	1	-1E+10	1	-1E+10	1
4901784	65	C	04/15/2017	10:41	-132.269	43.773	0	905.50	0	3.5010	0	34.4590	4	27.412	0	896.296	0	11.7	4	3.7	4	-1E+10	1	-1E+10	1	-1E+10	1	-1E+10	1	-1E+10	1	-1E+10	1
4901784	65	C	04/15/2017	10:41	-132.269	43.773	0	910.70	0	3.4900	0	34.4620	4	27.416	0	901.432	0	11.8	4	3.7	4	-1E+10	1	-1E+10	1	-1E+10	1	-1E+10	1	-1E+10	1	-1E+10	1
4901784	65	C	04/15/2017	10:41	-132.269	43.773	0	915.00	0	3.4780	0	34.4660	4	27.420	0	905.679	0	11.9	4	3.7	4	-1E+10	1	-1E+10	1	-1E+10	1	-1E+10	1	-1E+10	1	-1E+10	1
4901784	65	C	04/15/2017	10:41	-132.269	43.773	0	919.30	0	3.4700	0	34.4680	4	27.423	0	909.925	0	12.0	4	3.7	4	-1E+10	1	-1E+10	1	-1E+10	1	-1E+10	1	-1E+10	1	-1E+10	1
4901784	65	C	04/15/2017	10:41	-132.269	43.773	0	924.60	0	3.4590	0	34.4700	4	27.425	0	915.160	0	12.1	4	3.8	4	-1E+10	1	-1E+10	1	-1E+10	1	-1E+10	1	-1E+10	1	-1E+10	1
4901784	65	C	04/15/2017	10:41	-132.269	43.773	0	929.90	0	3.4450	0	34.4740	4	27.430	0	920.394	0	12.2	4	3.8	4	-1E+10	1	-1E+10	1	-1E+10	1	-1E+10	1	-1E+10	1	-1E+10	1
4901784	65	C	04/15/2017	10:41	-132.269	43.773	0	935.20	0	3.4310	0	34.4780	4	27.434	0	925.628	0	12.3	4	3.9	4	-1E+10	1	-1E+10	1	-1E+10	1	-1E+10	1	-1E+10	1	-1E+10	1
4901784	65	C	04/15/2017	10:41	-132.269	43.773	0	940.60	0	3.4150	0	34.4830	4	27.440	0	930.961	0	12.5	4	3.9	4	-1E+10	1	-1E+10	1	-1E+10	1	-1E+10	1	-1E+10	1	-1E+10	1
4901784	65	C	04/15/2017	10:41	-132.269	43.773	0	945.00	0	3.4100	0	34.4840	4	27.441	0	935.306	0	12.6	4	3.9	4	-1E+10	1	-1E+10	1	-1E+10	1	-1E+10	1	-1E+10	1	-1E+10	1
4901784	65	C	04/15/2017	10:41	-132.269	43.773	0	949.40	0	3.4040	0	34.4860	4	27.443	0	939.651	0	12.7	4	4.0	4	-1E+10	1	-1E+10	1	-1E+10	1	-1E+10	1	-1E+10	1	-1E+10	1
4901784	65	C	04/15/2017	10:41	-132.269	43.773	0	954.70	0	3.3950	0	34.4890	4	27.447	0	944.885	0	13.0	4	4.0	4	-1E+10	1	-1E+10	1	-1E+10	1	-1E+10	1	-1E+10	1	-1E+10	1
4901784	65	C	04/15/2017	10:41	-132.269	43.773	0	960.10	0	3.3840	0	34.4920	4	27.450	0	950.217	0	13.3	4	4.2	4	-1E+10	1	-1E+10	1	-1E+10	1	-1E+10	1	-1E+10	1	-1E+10	1
4901784	65	C	04/15/2017	10:41	-132.269	43.773	0	965.50	0	3.3620	0	34.5010	4	27.459	0	955.549	0	13.8	4	4.3	4	-1E+10	1	-1E+10	1	-1E+10	1	-1E+10	1	-1E+10	1	-1E+10	1
4901784	65	C	04/15/2017	10:41	-132.269	43.773	0	970.10	0	3.3560	0	34.5060	4	27.464	0	960.091	0	14.0	4	4.4	4	-1E+10	1	-1E+10	1	-1E+10	1	-1E+10	1	-1E+10	1	-1E+10	1
4901784	65	C	04/15/2017	10:41	-132.269	43.773	0	974.50	0	3.3540	0	34.5070	4	27.465	0	964.435	0	14.2	4	4.4	4	-1E+10	1	-1E+10	1	-1E+10	1	-1E+10	1	-1E+10	1	-1E+10	1
4901784	65	C	04/15/2017	10:41	-132.269	43.773	0	979.90	0	3.3520	0	34.5090	4	27.467	0	969.767	0	14.4	4	4.5	4	-1E+10	1	-1E+10	1	-1E+10	1	-1E+10	1	-1E+10	1	-1E+10	1
4901784	65	C	04/15/2017	10:41	-132.269	43.773	0	985.40	0	3.3460	0	34.5120	4	27.470	0	975.198	0	14.6	4	4.6	4	-1E+10	1	-1E+10	1	-1E+10	1	-1E+10	1	-1E+10	1	-1E+10	1
4901784	65	C	04/15/2017	10:41	-132.269	43.773	0	990.00	0	3.3430	0	34.5140	4	27.472	0	979.739	0	14.8	4	4.6	4	-1E+10	1	-1E+10	1	-1E+10	1	-1E+10	1	-1E+10	1	-1E+10	1
4901784	65	C	04/15/2017	10:41	-132.269	43.773	0	994.70	0	3.3400	0	34.5150	4	27.473	0	984.379	0	15.0	4	4.7	4	-1E+10	1	-1E+10	1	-1E+10	1	-1E+10	1	-1E+10	1	-1E+10	1
4901784	65	C	04/15/2017	10:41	-132.269	43.773	0	1000.30	0	3.3360	0	34.5170	4	27.475	0	989.908	0	15.3	4	4.8	4	-1E+10	1	-1E+10	1	-1E+10	1	-1E+10	1	-1E+10	1	-1E+10	1
4901784	65	C	04/15/2017	10:41	-132.269	43.773	0	1005.00	0	3.3280	0	34.5210	4	27.479	0	994.548	0	15.6	4	4.9	4	-1E+10	1	-1E+10	1	-1E+10	1	-1E+10	1	-1E+10	1	-1E+10	1
4901784	65	C	04/15/2017	10:41	-132.269	43.773	0	1010.30	0	3.3260	0	34.5240	4	27.481	0	999.780	0	15.8	4	4.9	4	-1E+10	1	-1E+10	1	-1E+10	1	-1E+10	1	-1E+10	1	-1E+10	1
4901784	65	C	04/15/2017	10:41	-132.269	43.773	0	1015.30	0	3.3260	0	34.5250	4	27.482	0	1004.716	0	15.9	4	5.0	4	-1E+10	1	-1E+10	1	-1E+10	1	-1E+10	1	-1E+10	1	-1E+10	1
4901784	65	C	04/15/2017	10:41	-132.269	43.773	0	1020.00	0	3.3260	0	34.5260	4	27.483	0	1009.356	0	16.1	4	5.0	4	-1E+10	1	-1E+10	1	-1E+10	1	-1E+10	1	-1E+10	1	-1E+10	1
4901784	65	C	04/15/2017	10:41	-132.269	43.773	0	1024.70	0	3.3260	0	34.5260	4	27.483	0	1013.996	0	16.3	4	5.1	4	-1E+10	1	-1E+10	1	-1E+10	1	-1E+10	1	-1E+10	1	-1E+10	1
4901784	65	C	04/15/2017	10:41	-132.269	43.773	0	1029.60	0	3.3240	0	34.5290	4	27.486	0	1018.832	0	16.6	4	5.2	4	-1E+10	1	-1E+10	1	-1E+10	1	-1E+10	1	-1E+10	1	-1E+10	1
4901784	65	C	04/15/2017	10:41	-132.269	43.773	0	1034.50	0	3.3210	0	34.5320	4	27.489	0	1023.669	0	16.9	4	5.2	4	-1E+10	1	-1E+10	1	-1E+10	1	-1E+10	1	-1E+10	1	-1E+10	1
4901784	65	C	04/15/2017	10:41	-132.269	43.773	0	1039.40	0	3.3190	0	34.5340	4	27.490	0	1028.506	0	17.1	4	5.3	4	-1E+10	1	-1E+10	1	-1E+10	1	-1E+10	1	-1E+10	1	-1E+10	1
4901784	65	C	04/15/2017	10:41	-132.269	43.773	0	1044.30	0	3.3190	0	34.5350	4	27.491	0	1033.343	0	17.2	4	5.4	4	-1E+10	1	-1E+10	1	-1E+10	1	-1E+10	1	-1E+10	1	-1E+10	1
4901784	65	C	04/15/2017	10:41	-132.269	43.773	0	1049.30	0	3.3180	0	34.5360	4	27.492	0	1038.278	0	17.4	4	5.4	4	-1E+10	1	-1E+10	1	-1E+10	1	-1E+10	1	-1E+10	1	-1E+10	1
4901784	65	C	04/15/2017	10:41	-132.269	43.773	0	1054.30	0	3.3180	0	34.5370	4	27.493	0	1043.213	0	17.7	4	5.5	4	-1E+10	1	-1E+10	1	-1E+10	1	-1E+10	1	-1E+10	1	-1E+10	1
4901784	65	C	04/15/2017	10:41	-132.269	43.773	0	1059.40	0	3.3180	0	34.5400	4	27.495	0	1048.246	0	18.1	4	5.6	4	-1E+10	1	-1E+10	1	-1E+10	1	-1E+10	1	-1E+10	1	-1E+10	1
4901784	65	C	04/15/2017	10:41	-132.269	43.773	0	1064.30	0	3.3200	0	34.5440	4	27.498	0	1053.083	0	18.4	4	5.7	4	-1E+10	1	-1E+10	1	-1E+10	1	-1E+10	1	-1E+10	1	-1E+10	1
4901784	65	C	04/15/2017	10:41	-132.269	43.773	0	1069.30	0	3.3230	0	34.5450	4	27.499	0	1058.017	0	18.7	4	5.8	4	-1E+10	1	-1E+10	1	-1E+10	1	-1E+10	1	-1E+10	1	-1E+10	1
4901784	65	C	04/15/2017	10:41	-132.269	43.773	0	1074.30	0	3.3240	0	34.5450	4	27.499	0	1062.952	0	18.9	4	5.9	4	-1E+10	1	-1E+10	1	-1E+10	1	-1E+10	1	-1E+10	1	-1E+10	1
4901784	65	C	04/15/2017	10:41	-132.269	43.773	0	1079.90	0	3.3220	0	34.5480	4	27.502	0	1068.478	0	19.3	4	6.0	4	-1E+10	1	-1E+10	1	-1E+10	1	-1E+10	1	-1E+10	1	-1E+10	1
4901784	65	C	04/15/2017	10:41	-132.269	43.773	0	1085.10	0	3.3180	0	34.5510	4	27.504	0	1073.610	0	19.8	4	6.2	4	-1E+10	1	-1E+10	1	-1E+10	1	-1E+10	1	-1E+10	1	-1E+10	1
4901784	65	C	04/15/2017	10:41	-132.269	43.773	0	1089.30	0	3.3180	0	34.5540	4	27.507	0	1077.755	0	20.2	4	6.3	4	-1E+10	1	-1E+10	1	-1E+10	1	-1E+10	1	-1E+10	1	-1E+10	1
4901784	65	C	04/15/2017	10:41	-132.269	43.773	0	1094.80	0	3.3150	0	34.5590	4	27.511	0	1083.182	0	20.6	4	6.4	4	-1E+10	1	-1E+10	1	-1E+10	1	-1E+10	1	-1E+10	1	-1E+10	1
4901784	65	C	04/15/2017	10:41	-132.269	43.773	0	1100.40	0	3.3160	0	34.5600	4	27.512	0	1088.708	0	20.8	4	6.5	4	-1E+10	1	-1E+10	1	-1E+10	1	-1E+10	1	-1E+10	1	-1E+10	1
4901784	65	C	04/15/2017	10:41	-132.269	43.773	0	1105.10	0	3.3170	0	34.5610	4	27.513	0	1093.346	0	20.9	4	6.5	4	-1E+10	1	-1E+10	1	-1E+10	1	-1E+10	1	-1E+10	1	-1E+10	1
4901784	65	C	04/15/2017	10:41	-132.269	43.773	0	1109.80	0	3.3170	0	34.5620	4	27.513	0	1097.984	0	20.9	4	6.5	4	-1E+10	1	-1E+10	1	-1E+10	1	-1E+10	1	-1E+10	1	-1E+10	1
4901784	65	C	04/15/2017	10:41	-132.269	43.773	0	1115.40	0	3.3180	0	34.5620	4	27.513	0	1103.510	0	20.9	4	6.5	4	-1E+10	1	-1E+10	1	-1E+10	1	-1E+10	1	-1E+10	1	-1E+10	1
4901784	65	C	04/15/2017	10:41	-132.269	43.773	0	1120.20	0	3.3170	0	34.5620	4	27.513	0	1108.246	0	21.0	4	6.5	4	-1E+10	1	-1E+10	1	-1E+10	1	-1E+10	1	-1E+10	1	-1E+10	1
4901784	65	C	04/15/2017	10:41	-132.269	43.773	0	1124.90	0	3.3170	0	34.5620	4	27.514	0	1112.883	0	21.1	4	6.6	4	-1E+10	1	-1E+10	1	-1E+10	1	-1E+10	1	-1E+10	1	-1E+10	1
4901784	65	C	04/15/2017	10:41	-132.269	43.773	0	1129.70	0	3.3150	0	34.5630	4	27.515	0	1117.619	0	21.2	4	6.6	4	-1E+10	1	-1E+10	1	-1E+10	1	-1E+10	1	-1E+10	1	-1E+10	1
4901784	65	C	04/15/2017	10:41	-132.269	43.773	0	1134.60	0	3.3130	0	34.5640	4	27.516	0	1122.454	0	21.3	4	6.6	4	-1E+10	1	-1E+10	1	-1E+10	1	-1E+10	1	-1E+10	1	-1E+10	1
4901784	65	C	04/15/2017	10:41	-132.269	43.773	0	1140.40	0	3.3130	0	34.5650	4	27.516	0	1128.176	0	21.5	4	6.7	4	-1E+10	1	-1E+10	1	-1E+10	1	-1E+10	1	-1E+10	1	-1E+10	1
4901784	65	C	04/15/2017	10:41	-132.269	43.773	0	1145.40	0	3.3110	0	34.5660	4	27.517	0	1133.109	0	21.6	4	6.7	4	-1E+10	1	-1E+10	1	-1E+10	1	-1E+10	1	-1E+10	1	-1E+10	1
4901784	65	C	04/15/2017	10:41	-132.269	43.773	0	1150.30	0	3.3040	0	34.5670	4	27.519	0	1137.943	0	21.7	4	6.7	4	-1E+10	1	-1E+10	1	-1E+10	1	-1E+10	1	-1E+10	1	-1E+10	1
4901784	65	C	04/15/2017	10:41	-132.269	43.773	0	1155.30	0	3.3010	0	34.5670	4	27.519	0	1142.876	0	21.7	4	6.8	4	-1E+10	1	-1E+10	1	-1E+10	1	-1E+10	1	-1E+10	1	-1E+10	1
4901784	65	C	04/15/2017	10:41	-132.269	43.773	0	1160.20	0	3.3000	0	34.5680	4	27.520	0	1147.710	0	21.9	4	6.8	4	-1E+10	1	-1E+10	1	-1E+10	1	-1E+10	1	-1E+10	1	-1E+10	1
4901784	65	C	04/15/2017	10:41	-132.269	43.773	0	1165.20	0	3.2990	0	34.5700	4	27.522	0	1152.642	0	22.1	4	6.9	4	-1E+10	1	-1E+10	1	-1E+10	1	-1E+10	1	-1E+10	1	-1E+10	1
4901784	65	C	04/15/2017	10:41	-132.269	43.773	0	1170.10	0	3.2980	0	34.5700	4	27.522	0	1157.476	0	22.2	4	6.9	4	-1E+10	1	-1E+10	1	-1E+10	1	-1E+10	1	-1E+10	1	-1E+10	1
4901784	65	C	04/15/2017	10:41	-132.269	43.773	0	1175.10	0	3.2910	0	34.5700	4	27.523	0	1162.408	0	22.4	4	7.0	4	-1E+10	1	-1E+10	1	-1E+10	1	-1E+10	1	-1E+10	1	-1E+10	1
4901784	65	C	04/15/2017	10:41	-132.269	43.773	0	1180.10	0	3.2840	0	34.5730	4	27.526	0	1167.340	0	22.8	4	7.1	4	-1E+10	1	-1E+10	1	-1E+10	1	-1E+10	1	-1E+10	1	-1E+10	1
4901784	65	C	04/15/2017	10:41	-132.269	43.773	0	1185.10	0	3.2760	0	34.5760	4	27.529	0	1172.272	0	23.2	4	7.2	4	-1E+10	1	-1E+10	1	-1E+10	1	-1E+10	1	-1E+10	1	-1E+10	1
4901784	65	C	04/15/2017	10:41	-132.269	43.773	0	1190.20	0	3.2840	0	34.5790	4	27.531	0	1177.303	0	23.6	4	7.3	4	-1E+10	1	-1E+10	1	-1E+10	1	-1E+10	1	-1E+10	1	-1E+10	1
4901784	65	C	04/15/2017	10:41	-132.269	43.773	0	1195.20	0	3.2760	0	34.5810	4	27.533	0	1182.235	0	23.9	4	7.4	4	-1E+10	1	-1E+10	1	-1E+10	1	-1E+10	1	-1E+10	1	-1E+10	1
4901784	65	C	04/15/2017	10:41	-132.269	43.773	0	1200.20	0	3.2730	0	34.5830	4	27.535	0	1187.166	0	24.2	4	7.5	4	-1E+10	1	-1E+10	1	-1E+10	1	-1E+10	1	-1E+10	1	-1E+10	1
4901784	65	C	04/15/2017	10:41	-132.269	43.773	0	1205.30	0	3.2650	0	34.5850	4	27.537	0	1192.196	0	24.4	4	7.6	4	-1E+10	1	-1E+10	1	-1E+10	1	-1E+10	1	-1E+10	1	-1E+10	1
4901784	65	C	04/15/2017	10:41	-132.269	43.773	0	1210.30	0	3.2620	0	34.5860	4	27.538	0	1197.128	0	24.5	4	7.6	4	-1E+10	1	-1E+10	1	-1E+10	1	-1E+10	1	-1E+10	1	-1E+10	1
4901784	65	C	04/15/2017	10:41	-132.269	43.773	0	1215.40	0	3.2570	0	34.5860	4	27.539	0	1202.158	0	24.6	4	7.7	4	-1E+10	1	-1E+10	1	-1E+10	1	-1E+10	1	-1E+10	1	-1E+10	1
4901784	65	C	04/15/2017	10:41	-132.269	43.773	0	1219.90	0	3.2480	0	34.5880	4	27.541	0	1206.596	0	24.9	4	7.7	4	-1E+10	1	-1E+10	1	-1E+10	1	-1E+10	1	-1E+10	1	-1E+10	1
4901784	65	C	04/15/2017	10:41	-132.269	43.773	0	1224.20	0	3.2440	0	34.5900	4	27.543	0	1210.836	0	25.1	4	7.8	4	-1E+10	1	-1E+10	1	-1E+10	1	-1E+10	1	-1E+10	1	-1E+10	1
4901784	65	C	04/15/2017	10:41	-132.269	43.773	0	1229.90	0	3.2460	0	34.5910	4	27.544	0	1216.458	0	25.5	4	7.9	4	-1E+10	1	-1E+10	1	-1E+10	1	-1E+10	1	-1E+10	1	-1E+10	1
4901784	65	C	04/15/2017	10:41	-132.269	43.773	0	1235.50	0	3.2440	0	34.5940	4	27.547	0	1221.980	0	26.0	4	8.1	4	-1E+10	1	-1E+10	1	-1E+10	1	-1E+10	1	-1E+10	1	-1E+10	1
4901784	65	C	04/15/2017	10:41	-132.269	43.773	0	1240.50	0	3.2450	0	34.5980	4	27.550	0	1226.911	0	26.4	4	8.2	4	-1E+10	1	-1E+10	1	-1E+10	1	-1E+10	1	-1E+10	1	-1E+10	1
4901784	65	C	04/15/2017	10:41	-132.269	43.773	0	1245.40	0	3.2390	0	34.5990	4	27.551	0	1231.743	0	26.3	4	8.2	4	-1E+10	1	-1E+10	1	-1E+10	1	-1E+10	1	-1E+10	1	-1E+10	1
4901784	65	C	04/15/2017	10:41	-132.269	43.773	0	1250.30	0	3.2350	0	34.5980	4	27.551	0	1236.575	0	26.1	4	8.1	4	-1E+10	1	-1E+10	1	-1E+10	1	-1E+10	1	-1E+10	1	-1E+10	1
4901784	65	C	04/15/2017	10:41	-132.269	43.773	0	1255.20	0	3.2170	0	34.5970	4	27.552	0	1241.407	0	26.0	4	8.1	4	-1E+10	1	-1E+10	1	-1E+10	1	-1E+10	1	-1E+10	1	-1E+10	1
4901784	65	C	04/15/2017	10:41	-132.269	43.773	0	1260.10	0	3.2140	0	34.5960	4	27.551	0	1246.238	0	25.9	4	8.1	4	-1E+10	1	-1E+10	1	-1E+10	1	-1E+10	1	-1E+10	1	-1E+10	1
4901784	65	C	04/15/2017	10:41	-132.269	43.773	0	1265.00	0	3.2070	0	34.5960	4	27.552	0	1251.070	0	26.0	4	8.1	4	-1E+10	1	-1E+10	1	-1E+10	1	-1E+10	1	-1E+10	1	-1E+10	1
4901784	65	C	04/15/2017	10:41	-132.269	43.773	0	1270.00	0	3.2020	0	34.5970	4	27.553	0	1256.000	0	26.1	4	8.1	4	-1E+10	1	-1E+10	1	-1E+10	1	-1E+10	1	-1E+10	1	-1E+10	1
4901784	65	C	04/15/2017	10:41	-132.269	43.773	0	1275.00	0	3.1990	0	34.5990	4	27.555	0	1260.930	0	26.4	4	8.2	4	-1E+10	1	-1E+10	1	-1E+10	1	-1E+10	1	-1E+10	1	-1E+10	1
4901784	65	C	04/15/2017	10:41	-132.269	43.773	0	1280.00	0	3.1840	0	34.6000	4	27.557	0	1265.860	0	26.7	4	8.3	4	-1E+10	1	-1E+10	1	-1E+10	1	-1E+10	1	-1E+10	1	-1E+10	1
4901784	65	C	04/15/2017	10:41	-132.269	43.773	0	1285.10	0	3.1880	0	34.6020	4	27.559	0	1270.888	0	26.9	4	8.3	4	-1E+10	1	-1E+10	1	-1E+10	1	-1E+10	1	-1E+10	1	-1E+10	1
4901784	65	C	04/15/2017	10:41	-132.269	43.773	0	1290.20	0	3.1820	0	34.6020	4	27.559	0	1275.916	0	26.9	4	8.3	4	-1E+10	1	-1E+10	1	-1E+10	1	-1E+10	1	-1E+10	1	-1E+10	1
4901784	65	C	04/15/2017	10:41	-132.269	43.773	0	1295.30	0	3.1630	0	34.6030	4	27.562	0	1280.944	0	26.8	4	8.3	4	-1E+10	1	-1E+10	1	-1E+10	1	-1E+10	1	-1E+10	1	-1E+10	1
4901784	65	C	04/15/2017	10:41	-132.269	43.773	0	1300.50	0	3.1530	0	34.6030	4	27.563	0	1286.071	0	26.8	4	8.3	4	-1E+10	1	-1E+10	1	-1E+10	1	-1E+10	1	-1E+10	1	-1E+10	1
4901784	65	C	04/15/2017	10:41	-132.269	43.773	0	1305.70	0	3.1440	0	34.6030	4	27.564	0	1291.197	0	26.7	4	8.3	4	-1E+10	1	-1E+10	1	-1E+10	1	-1E+10	1	-1E+10	1	-1E+10	1
4901784	65	C	04/15/2017	10:41	-132.269	43.773	0	1310.00	0	3.1260	0	34.6020	4	27.564	0	1295.436	0	26.9	4	8.3	4	-1E+10	1	-1E+10	1	-1E+10	1	-1E+10	1	-1E+10	1	-1E+10	1
4901784	65	C	04/15/2017	10:41	-132.269	43.773	0	1314.40	0	3.1250	0	34.6040	4	27.566	0	1299.774	0	27.1	4	8.4	4	-1E+10	1	-1E+10	1	-1E+10	1	-1E+10	1	-1E+10	1	-1E+10	1
4901784	65	C	04/15/2017	10:41	-132.269	43.773	0	1319.50	0	3.1140	0	34.6050	4	27.568	0	1304.801	0	27.1	4	8.4	4	-1E+10	1	-1E+10	1	-1E+10	1	-1E+10	1	-1E+10	1	-1E+10	1
4901784	65	C	04/15/2017	10:41	-132.269	43.773	0	1324.80	0	3.0950	0	34.6050	4	27.570	0	1310.026	0	27.1	4	8.4	4	-1E+10	1	-1E+10	1	-1E+10	1	-1E+10	1	-1E+10	1	-1E+10	1
4901784	65	C	04/15/2017	10:41	-132.269	43.773	0	1330.00	0	3.0850	0	34.6060	4	27.572	0	1315.151	0	27.1	4	8.4	4	-1E+10	1	-1E+10	1	-1E+10	1	-1E+10	1	-1E+10	1	-1E+10	1
4901784	65	C	04/15/2017	10:41	-132.269	43.773	0	1335.30	0	3.0710	0	34.6060	4	27.573	0	1320.376	0	27.1	4	8.4	4	-1E+10	1	-1E+10	1	-1E+10	1	-1E+10	1	-1E+10	1	-1E+10	1
4901784	65	C	04/15/2017	10:41	-132.269	43.773	0	1340.70	0	3.0590	0	34.6070	4	27.575	0	1325.698	0	27.1	4	8.4	4	-1E+10	1	-1E+10	1	-1E+10	1	-1E+10	1	-1E+10	1	-1E+10	1
4901784	65	C	04/15/2017	10:41	-132.269	43.773	0	1345.20	0	3.0460	0	34.6060	4	27.575	0	1330.134	0	27.1	4	8.4	4	-1E+10	1	-1E+10	1	-1E+10	1	-1E+10	1	-1E+10	1	-1E+10	1
4901784	65	C	04/15/2017	10:41	-132.269	43.773	0	1349.70	0	3.0260	0	34.6060	4	27.577	0	1334.569	0	27.0	4	8.4	4	-1E+10	1	-1E+10	1	-1E+10	1	-1E+10	1	-1E+10	1	-1E+10	1
4901784	65	C	04/15/2017	10:41	-132.269	43.773	0	1355.10	0	3.0070	0	34.6060	4	27.579	0	1339.891	0	27.0	4	8.3	4	-1E+10	1	-1E+10	1	-1E+10	1	-1E+10	1	-1E+10	1	-1E+10	1
4901784	65	C	04/15/2017	10:41	-132.269	43.773	0	1360.50	0	3.0000	0	34.6070	4	27.580	0	1345.214	0	27.0	4	8.3	4	-1E+10	1	-1E+10	1	-1E+10	1	-1E+10	1	-1E+10	1	-1E+10	1
4901784	65	C	04/15/2017	10:41	-132.269	43.773	0	1365.10	0	2.9950	0	34.6070	4	27.581	0	1349.747	0	27.0	4	8.3	4	-1E+10	1	-1E+10	1	-1E+10	1	-1E+10	1	-1E+10	1	-1E+10	1
4901784	65	C	04/15/2017	10:41	-132.269	43.773	0	1369.60	0	2.9910	0	34.6070	4	27.581	0	1354.182	0	27.0	4	8.3	4	-1E+10	1	-1E+10	1	-1E+10	1	-1E+10	1	-1E+10	1	-1E+10	1
4901784	65	C	04/15/2017	10:41	-132.269	43.773	0	1375.10	0	2.9800	0	34.6070	4	27.582	0	1359.602	0	26.9	4	8.3	4	-1E+10	1	-1E+10	1	-1E+10	1	-1E+10	1	-1E+10	1	-1E+10	1
4901784	65	C	04/15/2017	10:41	-132.269	43.773	0	1380.60	0	2.9670	0	34.6070	4	27.583	0	1365.023	0	26.9	4	8.3	4	-1E+10	1	-1E+10	1	-1E+10	1	-1E+10	1	-1E+10	1	-1E+10	1
4901784	65	C	04/15/2017	10:41	-132.269	43.773	0	1385.30	0	2.9600	0	34.6060	4	27.583	0	1369.654	0	26.8	4	8.3	4	-1E+10	1	-1E+10	1	-1E+10	1	-1E+10	1	-1E+10	1	-1E+10	1
4901784	65	C	04/15/2017	10:41	-132.269	43.773	0	1389.90	0	2.9510	0	34.6060	4	27.584	0	1374.187	0	26.7	4	8.3	4	-1E+10	1	-1E+10	1	-1E+10	1	-1E+10	1	-1E+10	1	-1E+10	1
4901784	65	C	04/15/2017	10:41	-132.269	43.773	0	1395.60	0	2.9400	0	34.6060	4	27.585	0	1379.804	0	26.7	4	8.2	4	-1E+10	1	-1E+10	1	-1E+10	1	-1E+10	1	-1E+10	1	-1E+10	1
4901784	65	C	04/15/2017	10:41	-132.269	43.773	0	1399.70	0	2.9330	0	34.6060	4	27.586	0	1383.844	0	26.6	4	8.2	4	-1E+10	1	-1E+10	1	-1E+10	1	-1E+10	1	-1E+10	1	-1E+10	1
4901784	65	C	04/15/2017	10:41	-132.269	43.773	0	1404.60	0	2.9250	0	34.6050	4	27.586	0	1388.673	0	26.6	4	8.2	4	-1E+10	1	-1E+10	1	-1E+10	1	-1E+10	1	-1E+10	1	-1E+10	1
4901784	65	C	04/15/2017	10:41	-132.269	43.773	0	1409.50	0	2.9070	0	34.6060	4	27.588	0	1393.501	0	26.6	4	8.2	4	-1E+10	1	-1E+10	1	-1E+10	1	-1E+10	1	-1E+10	1	-1E+10	1
4901784	65	C	04/15/2017	10:41	-132.269	43.773	0	1414.40	0	2.9020	0	34.6060	4	27.589	0	1398.329	0	26.6	4	8.2	4	-1E+10	1	-1E+10	1	-1E+10	1	-1E+10	1	-1E+10	1	-1E+10	1
4901784	65	C	04/15/2017	10:41	-132.269	43.773	0	1419.30	0	2.9000	0	34.6060	4	27.589	0	1403.157	0	26.6	4	8.2	4	-1E+10	1	-1E+10	1	-1E+10	1	-1E+10	1	-1E+10	1	-1E+10	1
4901784	65	C	04/15/2017	10:41	-132.269	43.773	0	1424.30	0	2.8980	0	34.6060	4	27.589	0	1408.084	0	26.6	4	8.2	4	-1E+10	1	-1E+10	1	-1E+10	1	-1E+10	1	-1E+10	1	-1E+10	1
4901784	65	C	04/15/2017	10:41	-132.269	43.773	0	1429.30	0	2.8920	0	34.6050	4	27.589	0	1413.010	0	26.5	4	8.2	4	-1E+10	1	-1E+10	1	-1E+10	1	-1E+10	1	-1E+10	1	-1E+10	1
4901784	65	C	04/15/2017	10:41	-132.269	43.773	0	1434.30	0	2.8780	0	34.6050	4	27.590	0	1417.936	0	26.5	4	8.2	4	-1E+10	1	-1E+10	1	-1E+10	1	-1E+10	1	-1E+10	1	-1E+10	1
4901784	65	C	04/15/2017	10:41	-132.269	43.773	0	1439.40	0	2.8600	0	34.6050	4	27.592	0	1422.961	0	26.6	4	8.2	4	-1E+10	1	-1E+10	1	-1E+10	1	-1E+10	1	-1E+10	1	-1E+10	1
4901784	65	C	04/15/2017	10:41	-132.269	43.773	0	1444.40	0	2.8360	0	34.6060	4	27.595	0	1427.887	0	26.5	4	8.2	4	-1E+10	1	-1E+10	1	-1E+10	1	-1E+10	1	-1E+10	1	-1E+10	1
4901784	65	C	04/15/2017	10:41	-132.269	43.773	0	1449.50	0	2.8190	0	34.6060	4	27.596	0	1432.911	0	26.5	4	8.1	4	-1E+10	1	-1E+10	1	-1E+10	1	-1E+10	1	-1E+10	1	-1E+10	1
4901784	65	C	04/15/2017	10:41	-132.269	43.773	0	1454.70	0	2.8100	0	34.6040	4	27.595	0	1438.034	0	26.4	4	8.1	4	-1E+10	1	-1E+10	1	-1E+10	1	-1E+10	1	-1E+10	1	-1E+10	1
4901784	65	C	04/15/2017	10:41	-132.269	43.773	0	1459.80	0	2.7830	0	34.6050	4	27.598	0	1443.058	0	26.4	4	8.1	4	-1E+10	1	-1E+10	1	-1E+10	1	-1E+10	1	-1E+10	1	-1E+10	1
4901784	65	C	04/15/2017	10:41	-132.269	43.773	0	1464.90	0	2.7660	0	34.6050	4	27.600	0	1448.082	0	26.5	4	8.1	4	-1E+10	1	-1E+10	1	-1E+10	1	-1E+10	1	-1E+10	1	-1E+10	1
4901784	65	C	04/15/2017	10:41	-132.269	43.773	0	1470.20	0	2.7550	0	34.6050	4	27.601	0	1453.303	0	26.5	4	8.1	4	-1E+10	1	-1E+10	1	-1E+10	1	-1E+10	1	-1E+10	1	-1E+10	1
4901784	65	C	04/15/2017	10:41	-132.269	43.773	0	1475.50	0	2.7360	0	34.6060	4	27.603	0	1458.524	0	26.5	4	8.1	4	-1E+10	1	-1E+10	1	-1E+10	1	-1E+10	1	-1E+10	1	-1E+10	1
4901784	65	C	04/15/2017	10:41	-132.269	43.773	0	1479.90	0	2.7230	0	34.6060	4	27.605	0	1462.858	0	26.5	4	8.1	4	-1E+10	1	-1E+10	1	-1E+10	1	-1E+10	1	-1E+10	1	-1E+10	1
4901784	65	C	04/15/2017	10:41	-132.269	43.773	0	1484.30	0	2.7080	0	34.6060	4	27.606	0	1467.192	0	26.5	4	8.1	4	-1E+10	1	-1E+10	1	-1E+10	1	-1E+10	1	-1E+10	1	-1E+10	1
4901784	65	C	04/15/2017	10:41	-132.269	43.773	0	1489.60	0	2.6940	0	34.6060	4	27.607	0	1472.413	0	26.5	4	8.1	4	-1E+10	1	-1E+10	1	-1E+10	1	-1E+10	1	-1E+10	1	-1E+10	1
4901784	65	C	04/15/2017	10:41	-132.269	43.773	0	1494.80	0	2.6780	0	34.6060	4	27.609	0	1477.535	0	26.6	4	8.2	4	-1E+10	1	-1E+10	1	-1E+10	1	-1E+10	1	-1E+10	1	-1E+10	1
4901784	65	C	04/15/2017	10:41	-132.269	43.773	0	1500.00	0	2.6670	0	34.6070	4	27.610	0	1482.656	0	26.6	4	8.2	4	-1E+10	1	-1E+10	1	-1E+10	1	-1E+10	1	-1E+10	1	-1E+10	1
4901784	65	C	04/15/2017	10:41	-132.269	43.773	0	1505.30	0	2.6620	0	34.6060	4	27.610	0	1487.877	0	26.8	4	8.2	4	-1E+10	1	-1E+10	1	-1E+10	1	-1E+10	1	-1E+10	1	-1E+10	1
4901784	65	C	04/15/2017	10:41	-132.269	43.773	0	1510.60	0	2.6350	0	34.6070	4	27.613	0	1493.096	0	27.0	4	8.3	4	-1E+10	1	-1E+10	1	-1E+10	1	-1E+10	1	-1E+10	1	-1E+10	1
4901784	65	C	04/15/2017	10:41	-132.269	43.773	0	1514.90	0	2.6070	0	34.6090	4	27.617	0	1497.331	0	27.2	4	8.3	4	-1E+10	1	-1E+10	1	-1E+10	1	-1E+10	1	-1E+10	1	-1E+10	1
4901784	65	C	04/15/2017	10:41	-132.269	43.773	0	1519.40	0	2.6000	0	34.6090	4	27.618	0	1501.763	0	27.3	4	8.3	4	-1E+10	1	-1E+10	1	-1E+10	1	-1E+10	1	-1E+10	1	-1E+10	1
4901784	65	C	04/15/2017	10:41	-132.269	43.773	0	1524.70	0	2.5960	0	34.6080	4	27.617	0	1506.983	0	27.4	4	8.4	4	-1E+10	1	-1E+10	1	-1E+10	1	-1E+10	1	-1E+10	1	-1E+10	1
4901784	65	C	04/15/2017	10:41	-132.269	43.773	0	1529.90	0	2.5730	0	34.6100	4	27.621	0	1512.104	0	27.7	4	8.5	4	-1E+10	1	-1E+10	1	-1E+10	1	-1E+10	1	-1E+10	1	-1E+10	1
4901784	65	C	04/15/2017	10:41	-132.269	43.773	0	1535.20	0	2.5480	0	34.6110	4	27.624	0	1517.323	0	27.9	4	8.5	4	-1E+10	1	-1E+10	1	-1E+10	1	-1E+10	1	-1E+10	1	-1E+10	1
4901784	65	C	04/15/2017	10:41	-132.269	43.773	0	1540.60	0	2.5410	0	34.6110	4	27.624	0	1522.641	0	28.1	4	8.6	4	-1E+10	1	-1E+10	1	-1E+10	1	-1E+10	1	-1E+10	1	-1E+10	1
4901784	65	C	04/15/2017	10:41	-132.269	43.773	0	1545.00	0	2.5370	0	34.6110	4	27.625	0	1526.974	0	28.4	4	8.7	4	-1E+10	1	-1E+10	1	-1E+10	1	-1E+10	1	-1E+10	1	-1E+10	1
4901784	65	C	04/15/2017	10:41	-132.269	43.773	0	1549.40	0	2.5160	0	34.6130	4	27.628	0	1531.306	0	28.8	4	8.8	4	-1E+10	1	-1E+10	1	-1E+10	1	-1E+10	1	-1E+10	1	-1E+10	1
4901784	65	C	04/15/2017	10:41	-132.269	43.773	0	1554.60	0	2.4950	0	34.6150	4	27.632	0	1536.427	0	29.2	4	8.9	4	-1E+10	1	-1E+10	1	-1E+10	1	-1E+10	1	-1E+10	1	-1E+10	1
4901784	65	C	04/15/2017	10:41	-132.269	43.773	0	1560.00	0	2.4770	0	34.6160	4	27.634	0	1541.744	0	29.5	4	9.0	4	-1E+10	1	-1E+10	1	-1E+10	1	-1E+10	1	-1E+10	1	-1E+10	1
4901784	65	C	04/15/2017	10:41	-132.269	43.773	0	1565.40	0	2.4610	0	34.6170	4	27.636	0	1547.061	0	29.9	4	9.1	4	-1E+10	1	-1E+10	1	-1E+10	1	-1E+10	1	-1E+10	1	-1E+10	1
4901784	65	C	04/15/2017	10:41	-132.269	43.773	0	1569.80	0	2.4540	0	34.6180	4	27.637	0	1551.393	0	30.1	4	9.2	4	-1E+10	1	-1E+10	1	-1E+10	1	-1E+10	1	-1E+10	1	-1E+10	1
4901784	65	C	04/15/2017	10:41	-132.269	43.773	0	1574.40	0	2.4430	0	34.6190	4	27.639	0	1555.923	0	30.5	4	9.3	4	-1E+10	1	-1E+10	1	-1E+10	1	-1E+10	1	-1E+10	1	-1E+10	1
4901784	65	C	04/15/2017	10:41	-132.269	43.773	0	1579.80	0	2.4230	0	34.6210	4	27.642	0	1561.239	0	31.1	4	9.5	4	-1E+10	1	-1E+10	1	-1E+10	1	-1E+10	1	-1E+10	1	-1E+10	1
4901784	65	C	04/15/2017	10:41	-132.269	43.773	0	1585.20	0	2.4040	0	34.6230	4	27.646	0	1566.556	0	31.6	4	9.6	4	-1E+10	1	-1E+10	1	-1E+10	1	-1E+10	1	-1E+10	1	-1E+10	1
4901784	65	C	04/15/2017	10:41	-132.269	43.773	0	1589.80	0	2.3920	0	34.6240	4	27.647	0	1571.085	0	31.9	4	9.7	4	-1E+10	1	-1E+10	1	-1E+10	1	-1E+10	1	-1E+10	1	-1E+10	1
4901784	65	C	04/15/2017	10:41	-132.269	43.773	0	1594.40	0	2.3850	0	34.6250	4	27.649	0	1575.613	0	32.2	4	9.8	4	-1E+10	1	-1E+10	1	-1E+10	1	-1E+10	1	-1E+10	1	-1E+10	1
4901784	65	C	04/15/2017	10:41	-132.269	43.773	0	1599.90	0	2.3770	0	34.6250	4	27.650	0	1581.028	0	32.6	4	9.9	4	-1E+10	1	-1E+10	1	-1E+10	1	-1E+10	1	-1E+10	1	-1E+10	1
4901784	65	C	04/15/2017	10:41	-132.269	43.773	0	1605.50	0	2.3600	0	34.6270	4	27.653	0	1586.541	0	33.3	4	10.1	4	-1E+10	1	-1E+10	1	-1E+10	1	-1E+10	1	-1E+10	1	-1E+10	1
4901784	65	C	04/15/2017	10:41	-132.269	43.773	0	1610.10	0	2.3390	0	34.6300	4	27.657	0	1591.069	0	33.7	4	10.2	4	-1E+10	1	-1E+10	1	-1E+10	1	-1E+10	1	-1E+10	1	-1E+10	1
4901784	65	C	04/15/2017	10:41	-132.269	43.773	0	1614.70	0	2.3350	0	34.6310	4	27.658	0	1595.598	0	33.9	4	10.3	4	-1E+10	1	-1E+10	1	-1E+10	1	-1E+10	1	-1E+10	1	-1E+10	1
4901784	65	C	04/15/2017	10:41	-132.269	43.773	0	1620.10	0	2.3290	0	34.6310	4	27.658	0	1600.914	0	34.2	4	10.4	4	-1E+10	1	-1E+10	1	-1E+10	1	-1E+10	1	-1E+10	1	-1E+10	1
4901784	65	C	04/15/2017	10:41	-132.269	43.773	0	1625.50	0	2.3190	0	34.6320	4	27.660	0	1606.229	0	34.7	4	10.6	4	-1E+10	1	-1E+10	1	-1E+10	1	-1E+10	1	-1E+10	1	-1E+10	1
4901784	65	C	04/15/2017	10:41	-132.269	43.773	0	1630.50	0	2.3050	0	34.6340	4	27.663	0	1611.151	0	35.1	4	10.7	4	-1E+10	1	-1E+10	1	-1E+10	1	-1E+10	1	-1E+10	1	-1E+10	1
4901784	65	C	04/15/2017	10:41	-132.269	43.773	0	1635.40	0	2.3000	0	34.6350	4	27.664	0	1615.974	0	35.3	4	10.7	4	-1E+10	1	-1E+10	1	-1E+10	1	-1E+10	1	-1E+10	1	-1E+10	1
4901784	65	C	04/15/2017	10:41	-132.269	43.773	0	1640.40	0	2.2980	0	34.6360	4	27.665	0	1620.896	0	35.4	4	10.8	4	-1E+10	1	-1E+10	1	-1E+10	1	-1E+10	1	-1E+10	1	-1E+10	1
4901784	65	C	04/15/2017	10:41	-132.269	43.773	0	1645.30	0	2.2950	0	34.6360	4	27.665	0	1625.718	0	35.8	4	10.9	4	-1E+10	1	-1E+10	1	-1E+10	1	-1E+10	1	-1E+10	1	-1E+10	1
4901784	65	C	04/15/2017	10:41	-132.269	43.773	0	1650.20	0	2.2860	0	34.6370	4	27.667	0	1630.541	0	36.3	4	11.0	4	-1E+10	1	-1E+10	1	-1E+10	1	-1E+10	1	-1E+10	1	-1E+10	1
4901784	65	C	04/15/2017	10:41	-132.269	43.773	0	1655.20	0	2.2740	0	34.6390	4	27.669	0	1635.462	0	36.6	4	11.1	4	-1E+10	1	-1E+10	1	-1E+10	1	-1E+10	1	-1E+10	1	-1E+10	1
4901784	65	C	04/15/2017	10:41	-132.269	43.773	0	1660.20	0	2.2680	0	34.6400	4	27.671	0	1640.383	0	37.0	4	11.2	4	-1E+10	1	-1E+10	1	-1E+10	1	-1E+10	1	-1E+10	1	-1E+10	1
4901784	65	C	04/15/2017	10:41	-132.269	43.773	0	1665.20	0	2.2590	0	34.6400	4	27.672	0	1645.304	0	37.4	4	11.4	4	-1E+10	1	-1E+10	1	-1E+10	1	-1E+10	1	-1E+10	1	-1E+10	1
4901784	65	C	04/15/2017	10:41	-132.269	43.773	0	1670.20	0	2.2500	0	34.6420	4	27.674	0	1650.225	0	37.9	4	11.5	4	-1E+10	1	-1E+10	1	-1E+10	1	-1E+10	1	-1E+10	1	-1E+10	1
4901784	65	C	04/15/2017	10:41	-132.269	43.773	0	1675.30	0	2.2390	0	34.6430	4	27.676	0	1655.244	0	38.5	4	11.7	4	-1E+10	1	-1E+10	1	-1E+10	1	-1E+10	1	-1E+10	1	-1E+10	1
4901784	65	C	04/15/2017	10:41	-132.269	43.773	0	1680.50	0	2.2270	0	34.6450	4	27.678	0	1660.362	0	39.0	4	11.8	4	-1E+10	1	-1E+10	1	-1E+10	1	-1E+10	1	-1E+10	1	-1E+10	1
4901784	65	C	04/15/2017	10:41	-132.269	43.773	0	1685.70	0	2.2210	0	34.6460	4	27.680	0	1665.479	0	39.2	4	11.9	4	-1E+10	1	-1E+10	1	-1E+10	1	-1E+10	1	-1E+10	1	-1E+10	1
4901784	65	C	04/15/2017	10:41	-132.269	43.773	0	1690.80	0	2.2190	0	34.6470	4	27.681	0	1670.498	0	39.4	4	11.9	4	-1E+10	1	-1E+10	1	-1E+10	1	-1E+10	1	-1E+10	1	-1E+10	1
4901784	65	C	04/15/2017	10:41	-132.269	43.773	0	1695.00	0	2.2160	0	34.6470	4	27.681	0	1674.631	0	39.6	4	12.0	4	-1E+10	1	-1E+10	1	-1E+10	1	-1E+10	1	-1E+10	1	-1E+10	1
4901784	65	C	04/15/2017	10:41	-132.269	43.773	0	1699.30	0	2.2120	0	34.6480	4	27.682	0	1678.862	0	39.8	4	12.1	4	-1E+10	1	-1E+10	1	-1E+10	1	-1E+10	1	-1E+10	1	-1E+10	1
4901784	65	C	04/15/2017	10:41	-132.269	43.773	0	1704.40	0	2.2070	0	34.6490	4	27.683	0	1683.880	0	40.1	4	12.2	4	-1E+10	1	-1E+10	1	-1E+10	1	-1E+10	1	-1E+10	1	-1E+10	1
4901784	65	C	04/15/2017	10:41	-132.269	43.773	0	1709.50	0	2.2030	0	34.6490	4	27.684	0	1688.899	0	40.4	4	12.2	4	-1E+10	1	-1E+10	1	-1E+10	1	-1E+10	1	-1E+10	1	-1E+10	1
4901784	65	C	04/15/2017	10:41	-132.269	43.773	0	1714.60	0	2.1990	0	34.6500	4	27.685	0	1693.917	0	40.7	4	12.3	4	-1E+10	1	-1E+10	1	-1E+10	1	-1E+10	1	-1E+10	1	-1E+10	1
4901784	65	C	04/15/2017	10:41	-132.269	43.773	0	1719.70	0	2.1910	0	34.6510	4	27.686	0	1698.935	0	41.1	4	12.5	4	-1E+10	1	-1E+10	1	-1E+10	1	-1E+10	1	-1E+10	1	-1E+10	1
4901784	65	C	04/15/2017	10:41	-132.269	43.773	0	1724.90	0	2.1830	0	34.6520	4	27.688	0	1704.051	0	41.6	4	12.6	4	-1E+10	1	-1E+10	1	-1E+10	1	-1E+10	1	-1E+10	1	-1E+10	1
4901784	65	C	04/15/2017	10:41	-132.269	43.773	0	1730.00	0	2.1710	0	34.6540	4	27.690	0	1709.069	0	42.1	4	12.8	4	-1E+10	1	-1E+10	1	-1E+10	1	-1E+10	1	-1E+10	1	-1E+10	1
4901784	65	C	04/15/2017	10:41	-132.269	43.773	0	1735.30	0	2.1620	0	34.6550	4	27.692	0	1714.284	0	42.4	4	12.8	4	-1E+10	1	-1E+10	1	-1E+10	1	-1E+10	1	-1E+10	1	-1E+10	1
4901784	65	C	04/15/2017	10:41	-132.269	43.773	0	1740.50	0	2.1600	0	34.6560	4	27.693	0	1719.400	0	42.5	4	12.9	4	-1E+10	1	-1E+10	1	-1E+10	1	-1E+10	1	-1E+10	1	-1E+10	1
4901784	65	C	04/15/2017	10:41	-132.269	43.773	0	1744.90	0	2.1600	0	34.6560	4	27.693	0	1723.728	0	42.7	4	12.9	4	-1E+10	1	-1E+10	1	-1E+10	1	-1E+10	1	-1E+10	1	-1E+10	1
4901784	65	C	04/15/2017	10:41	-132.269	43.773	0	1749.40	0	2.1570	0	34.6560	4	27.693	0	1728.156	0	43.0	4	13.0	4	-1E+10	1	-1E+10	1	-1E+10	1	-1E+10	1	-1E+10	1	-1E+10	1
4901784	65	C	04/15/2017	10:41	-132.269	43.773	0	1754.80	0	2.1490	0	34.6570	4	27.694	0	1733.468	0	43.4	4	13.2	4	-1E+10	1	-1E+10	1	-1E+10	1	-1E+10	1	-1E+10	1	-1E+10	1
4901784	65	C	04/15/2017	10:41	-132.269	43.773	0	1760.00	0	2.1450	0	34.6580	4	27.696	0	1738.583	0	43.8	4	13.3	4	-1E+10	1	-1E+10	1	-1E+10	1	-1E+10	1	-1E+10	1	-1E+10	1
4901784	65	C	04/15/2017	10:41	-132.269	43.773	0	1765.30	0	2.1370	0	34.6590	4	27.697	0	1743.797	0	44.4	4	13.4	4	-1E+10	1	-1E+10	1	-1E+10	1	-1E+10	1	-1E+10	1	-1E+10	1
4901784	65	C	04/15/2017	10:41	-132.269	43.773	0	1770.50	0	2.1300	0	34.6600	4	27.698	0	1748.912	0	44.8	4	13.6	4	-1E+10	1	-1E+10	1	-1E+10	1	-1E+10	1	-1E+10	1	-1E+10	1
4901784	65	C	04/15/2017	10:41	-132.269	43.773	0	1774.90	0	2.1240	0	34.6610	4	27.700	0	1753.241	0	45.3	4	13.7	4	-1E+10	1	-1E+10	1	-1E+10	1	-1E+10	1	-1E+10	1	-1E+10	1
4901784	65	C	04/15/2017	10:41	-132.269	43.773	0	1779.30	0	2.1170	0	34.6620	4	27.701	0	1757.569	0	45.8	4	13.9	4	-1E+10	1	-1E+10	1	-1E+10	1	-1E+10	1	-1E+10	1	-1E+10	1
4901784	65	C	04/15/2017	10:41	-132.269	43.773	0	1784.70	0	2.1060	0	34.6640	4	27.704	0	1762.880	0	46.6	4	14.1	4	-1E+10	1	-1E+10	1	-1E+10	1	-1E+10	1	-1E+10	1	-1E+10	1
4901784	65	C	04/15/2017	10:41	-132.269	43.773	0	1790.00	0	2.0910	0	34.6660	4	27.706	0	1768.093	0	47.3	4	14.3	4	-1E+10	1	-1E+10	1	-1E+10	1	-1E+10	1	-1E+10	1	-1E+10	1
4901784	65	C	04/15/2017	10:41	-132.269	43.773	0	1795.30	0	2.0820	0	34.6680	4	27.709	0	1773.307	0	47.7	4	14.4	4	-1E+10	1	-1E+10	1	-1E+10	1	-1E+10	1	-1E+10	1	-1E+10	1
4901784	65	C	04/15/2017	10:41	-132.269	43.773	0	1800.60	0	2.0760	0	34.6680	4	27.709	0	1778.519	0	48.1	4	14.5	4	-1E+10	1	-1E+10	1	-1E+10	1	-1E+10	1	-1E+10	1	-1E+10	1
4901784	65	C	04/15/2017	10:41	-132.269	43.773	0	1805.40	0	2.0690	0	34.6690	4	27.711	0	1783.240	0	48.5	4	14.6	4	-1E+10	1	-1E+10	1	-1E+10	1	-1E+10	1	-1E+10	1	-1E+10	1
4901784	65	C	04/15/2017	10:41	-132.269	43.773	0	1810.20	0	2.0640	0	34.6700	4	27.712	0	1787.961	0	48.8	4	14.8	4	-1E+10	1	-1E+10	1	-1E+10	1	-1E+10	1	-1E+10	1	-1E+10	1
4901784	65	C	04/15/2017	10:41	-132.269	43.773	0	1815.00	0	2.0580	0	34.6710	4	27.713	0	1792.682	0	49.1	4	14.8	4	-1E+10	1	-1E+10	1	-1E+10	1	-1E+10	1	-1E+10	1	-1E+10	1
4901784	65	C	04/15/2017	10:41	-132.269	43.773	0	1819.90	0	2.0540	0	34.6720	4	27.714	0	1797.501	0	49.4	4	14.9	4	-1E+10	1	-1E+10	1	-1E+10	1	-1E+10	1	-1E+10	1	-1E+10	1
4901784	65	C	04/15/2017	10:41	-132.269	43.773	0	1824.80	0	2.0500	0	34.6720	4	27.715	0	1802.320	0	49.8	4	15.0	4	-1E+10	1	-1E+10	1	-1E+10	1	-1E+10	1	-1E+10	1	-1E+10	1
4901784	65	C	04/15/2017	10:41	-132.269	43.773	0	1829.70	0	2.0440	0	34.6730	4	27.716	0	1807.139	0	50.1	4	15.1	4	-1E+10	1	-1E+10	1	-1E+10	1	-1E+10	1	-1E+10	1	-1E+10	1
4901784	65	C	04/15/2017	10:41	-132.269	43.773	0	1834.70	0	2.0410	0	34.6740	4	27.717	0	1812.056	0	50.3	4	15.2	4	-1E+10	1	-1E+10	1	-1E+10	1	-1E+10	1	-1E+10	1	-1E+10	1
4901784	65	C	04/15/2017	10:41	-132.269	43.773	0	1839.70	0	2.0360	0	34.6750	4	27.718	0	1816.973	0	50.7	4	15.3	4	-1E+10	1	-1E+10	1	-1E+10	1	-1E+10	1	-1E+10	1	-1E+10	1
4901784	65	C	04/15/2017	10:41	-132.269	43.773	0	1844.70	0	2.0310	0	34.6750	4	27.719	0	1821.890	0	51.0	4	15.4	4	-1E+10	1	-1E+10	1	-1E+10	1	-1E+10	1	-1E+10	1	-1E+10	1
4901784	65	C	04/15/2017	10:41	-132.269	43.773	0	1849.80	0	2.0250	0	34.6760	4	27.720	0	1826.905	0	51.5	4	15.5	4	-1E+10	1	-1E+10	1	-1E+10	1	-1E+10	1	-1E+10	1	-1E+10	1
4901784	65	C	04/15/2017	10:41	-132.269	43.773	0	1854.90	0	2.0180	0	34.6770	4	27.721	0	1831.920	0	51.9	4	15.7	4	-1E+10	1	-1E+10	1	-1E+10	1	-1E+10	1	-1E+10	1	-1E+10	1
4901784	65	C	04/15/2017	10:41	-132.269	43.773	0	1860.10	0	2.0120	0	34.6780	4	27.723	0	1837.033	0	52.3	4	15.8	4	-1E+10	1	-1E+10	1	-1E+10	1	-1E+10	1	-1E+10	1	-1E+10	1
4901784	65	C	04/15/2017	10:41	-132.269	43.773	0	1865.20	0	2.0050	0	34.6790	4	27.724	0	1842.047	0	52.7	4	15.9	4	-1E+10	1	-1E+10	1	-1E+10	1	-1E+10	1	-1E+10	1	-1E+10	1
4901784	65	C	04/15/2017	10:41	-132.269	43.773	0	1870.50	0	2.0000	0	34.6790	4	27.724	0	1847.259	0	53.1	4	16.0	4	-1E+10	1	-1E+10	1	-1E+10	1	-1E+10	1	-1E+10	1	-1E+10	1
4901784	65	C	04/15/2017	10:41	-132.269	43.773	0	1874.90	0	1.9950	0	34.6800	4	27.726	0	1851.585	0	53.4	4	16.1	4	-1E+10	1	-1E+10	1	-1E+10	1	-1E+10	1	-1E+10	1	-1E+10	1
4901784	65	C	04/15/2017	10:41	-132.269	43.773	0	1879.30	0	1.9900	0	34.6810	4	27.727	0	1855.911	0	53.8	4	16.2	4	-1E+10	1	-1E+10	1	-1E+10	1	-1E+10	1	-1E+10	1	-1E+10	1
4901784	65	C	04/15/2017	10:41	-132.269	43.773	0	1884.60	0	1.9850	0	34.6820	4	27.728	0	1861.122	0	54.1	4	16.3	4	-1E+10	1	-1E+10	1	-1E+10	1	-1E+10	1	-1E+10	1	-1E+10	1
4901784	65	C	04/15/2017	10:41	-132.269	43.773	0	1890.00	0	1.9810	0	34.6830	4	27.729	0	1866.431	0	54.5	4	16.4	4	-1E+10	1	-1E+10	1	-1E+10	1	-1E+10	1	-1E+10	1	-1E+10	1
4901784	65	C	04/15/2017	10:41	-132.269	43.773	0	1895.40	0	1.9740	0	34.6840	4	27.731	0	1871.740	0	54.8	4	16.5	4	-1E+10	1	-1E+10	1	-1E+10	1	-1E+10	1	-1E+10	1	-1E+10	1
4901784	65	C	04/15/2017	10:41	-132.269	43.773	0	1899.80	0	1.9720	0	34.6840	4	27.731	0	1876.065	0	55.1	4	16.6	4	-1E+10	1	-1E+10	1	-1E+10	1	-1E+10	1	-1E+10	1	-1E+10	1
4901784	65	C	04/15/2017	10:41	-132.269	43.773	0	1904.40	0	1.9690	0	34.6840	4	27.731	0	1880.588	0	55.3	4	16.7	4	-1E+10	1	-1E+10	1	-1E+10	1	-1E+10	1	-1E+10	1	-1E+10	1
4901784	65	C	04/15/2017	10:41	-132.269	43.773	0	1909.90	0	1.9660	0	34.6850	4	27.732	0	1885.995	0	55.5	4	16.7	4	-1E+10	1	-1E+10	1	-1E+10	1	-1E+10	1	-1E+10	1	-1E+10	1
4901784	65	C	04/15/2017	10:41	-132.269	43.773	0	1915.50	0	1.9640	0	34.6860	4	27.733	0	1891.500	0	55.7	4	16.8	4	-1E+10	1	-1E+10	1	-1E+10	1	-1E+10	1	-1E+10	1	-1E+10	1
4901784	65	C	04/15/2017	10:41	-132.269	43.773	0	1919.60	0	1.9630	0	34.6860	4	27.733	0	1895.530	0	56.0	4	16.9	4	-1E+10	1	-1E+10	1	-1E+10	1	-1E+10	1	-1E+10	1	-1E+10	1
4901784	65	C	04/15/2017	10:41	-132.269	43.773	0	1924.50	0	1.9600	0	34.6870	4	27.734	0	1900.347	0	56.2	4	16.9	4	-1E+10	1	-1E+10	1	-1E+10	1	-1E+10	1	-1E+10	1	-1E+10	1
4901784	65	C	04/15/2017	10:41	-132.269	43.773	0	1929.50	0	1.9570	0	34.6870	4	27.734	0	1905.262	0	56.5	4	17.0	4	-1E+10	1	-1E+10	1	-1E+10	1	-1E+10	1	-1E+10	1	-1E+10	1
4901784	65	C	04/15/2017	10:41	-132.269	43.773	0	1934.40	0	1.9550	0	34.6880	4	27.735	0	1910.078	0	56.9	4	17.1	4	-1E+10	1	-1E+10	1	-1E+10	1	-1E+10	1	-1E+10	1	-1E+10	1
4901784	65	C	04/15/2017	10:41	-132.269	43.773	0	1939.40	0	1.9520	0	34.6880	4	27.736	0	1914.993	0	57.0	4	17.2	4	-1E+10	1	-1E+10	1	-1E+10	1	-1E+10	1	-1E+10	1	-1E+10	1
4901784	65	C	04/15/2017	10:41	-132.269	43.773	0	1944.50	0	1.9510	0	34.6890	4	27.737	0	1920.005	0	57.3	4	17.3	4	-1E+10	1	-1E+10	1	-1E+10	1	-1E+10	1	-1E+10	1	-1E+10	1
4901784	65	C	04/15/2017	10:41	-132.269	43.773	0	1949.60	0	1.9490	0	34.6900	4	27.738	0	1925.018	0	57.6	4	17.4	4	-1E+10	1	-1E+10	1	-1E+10	1	-1E+10	1	-1E+10	1	-1E+10	1
4901784	65	C	04/15/2017	10:41	-132.269	43.773	0	1954.60	0	1.9470	0	34.6900	4	27.738	0	1929.933	0	57.8	4	17.4	4	-1E+10	1	-1E+10	1	-1E+10	1	-1E+10	1	-1E+10	1	-1E+10	1
4901784	65	C	04/15/2017	10:41	-132.269	43.773	0	1959.80	0	1.9430	0	34.6910	4	27.739	0	1935.043	0	58.1	4	17.5	4	-1E+10	1	-1E+10	1	-1E+10	1	-1E+10	1	-1E+10	1	-1E+10	1
4901784	65	C	04/15/2017	10:41	-132.269	43.773	0	1964.90	0	1.9400	0	34.6910	4	27.739	0	1940.056	0	58.3	4	17.6	4	-1E+10	1	-1E+10	1	-1E+10	1	-1E+10	1	-1E+10	1	-1E+10	1
4901784	65	C	04/15/2017	10:41	-132.269	43.773	0	1970.10	0	1.9370	0	34.6920	4	27.740	0	1945.166	0	58.5	4	17.6	4	-1E+10	1	-1E+10	1	-1E+10	1	-1E+10	1	-1E+10	1	-1E+10	1
4901784	65	C	04/15/2017	10:41	-132.269	43.773	0	1975.40	0	1.9340	0	34.6920	4	27.741	0	1950.375	0	58.7	4	17.7	4	-1E+10	1	-1E+10	1	-1E+10	1	-1E+10	1	-1E+10	1	-1E+10	1
4901784	65	C	04/15/2017	10:41	-132.269	43.773	0	1979.90	0	1.9330	0	34.6920	4	27.741	0	1954.797	0	58.9	4	17.7	4	-1E+10	1	-1E+10	1	-1E+10	1	-1E+10	1	-1E+10	1	-1E+10	1
4901784	65	C	04/15/2017	10:41	-132.269	43.773	0	1985.00	0	1.9320	0	34.6930	4	27.742	0	1959.809	0	59.1	4	17.8	4	-1E+10	1	-1E+10	1	-1E+10	1	-1E+10	1	-1E+10	1	-1E+10	1
4901784	65	C	04/15/2017	10:41	-132.269	43.773	0	1990.40	0	1.9290	0	34.6940	4	27.743	0	1965.116	0	59.4	4	17.9	4	-1E+10	1	-1E+10	1	-1E+10	1	-1E+10	1	-1E+10	1	-1E+10	1
4901784	65	C	04/15/2017	10:41	-132.269	43.773	0	1995.10	0	1.9270	0	34.6940	4	27.743	0	1969.734	0	59.6	4	18.0	4	-1E+10	1	-1E+10	1	-1E+10	1	-1E+10	1	-1E+10	1	-1E+10	1
4901784	65	C	04/15/2017	10:41	-132.269	43.773	0	1999.60	0	1.9240	0	34.6940	4	27.743	0	1974.156	0	59.9	4	18.0	4	-1E+10	1	-1E+10	1	-1E+10	1	-1E+10	1	-1E+10	1	-1E+10	1
4901784	65	C	04/15/2017	10:41	-132.269	43.773	0	2004.90	0	1.9210	0	34.6950	4	27.744	0	1979.364	0	60.0	4	18.1	4	-1E+10	1	-1E+10	1	-1E+10	1	-1E+10	1	-1E+10	1	-1E+10	1
4901784	65	C	04/15/2017	10:41	-132.269	43.773	0	2010.20	0	1.9200	0	34.6950	4	27.744	0	1984.572	0	58.8	8	17.7	8	-1E+10	1	-1E+10	1	-1E+10	1	-1E+10	1	-1E+10	1	-1E+10	1
4901784	65	C	04/15/2017	10:41	-132.269	43.773	0																										
4901784	66	C	04/25/2017	10:43	-132.258	43.719	0	2.90	0	9.6620	0	32.9880	4	25.437	0	2.877	0	276.5	4	98.5	4	-1E+10	1	-1E+10	1	-1E+10	1	-1E+10	1	-1E+10	1	-1E+10	1
4901784	66	C	04/25/2017	10:43	-132.258	43.719	0	4.10	0	9.6620	0	32.9880	4	25.437	0	4.067	0	276.6	4	98.5	4	-1E+10	1	-1E+10	1	-1E+10	1	-1E+10	1	-1E+10	1	-1E+10	1
4901784	66	C	04/25/2017	10:43	-132.258	43.719	0	5.40	0	9.6620	0	32.9880	4	25.437	0	5.357	0	276.6	4	98.6	4	-1E+10	1	-1E+10	1	-1E+10	1	-1E+10	1	-1E+10	1	-1E+10	1
4901784	66	C	04/25/2017	10:43	-132.258	43.719	0	6.90	0	9.6620	0	32.9880	4	25.437	0	6.845	0	276.7	4	98.6	4	-1E+10	1	-1E+10	1	-1E+10	1	-1E+10	1	-1E+10	1	-1E+10	1
4901784	66	C	04/25/2017	10:43	-132.258	43.719	0	8.60	0	9.6620	0	32.9880	4	25.438	0	8.531	0	276.6	4	98.5	4	-1E+10	1	-1E+10	1	-1E+10	1	-1E+10	1	-1E+10	1	-1E+10	1
4901784	66	C	04/25/2017	10:43	-132.258	43.719	0	10.40	0	9.6620	0	32.9880	4	25.438	0	10.317	0	276.4	4	98.5	4	-1E+10	1	-1E+10	1	-1E+10	1	-1E+10	1	-1E+10	1	-1E+10	1
4901784	66	C	04/25/2017	10:43	-132.258	43.719	0	12.20	0	9.6630	0	32.9880	4	25.437	0	12.102	0	276.5	4	98.5	4	-1E+10	1	-1E+10	1	-1E+10	1	-1E+10	1	-1E+10	1	-1E+10	1
4901784	66	C	04/25/2017	10:43	-132.258	43.719	0	14.00	0	9.6630	0	32.9880	4	25.437	0	13.888	0	276.4	4	98.5	4	-1E+10	1	-1E+10	1	-1E+10	1	-1E+10	1	-1E+10	1	-1E+10	1
4901784	66	C	04/25/2017	10:43	-132.258	43.719	0	15.80	0	9.6640	0	32.9880	4	25.437	0	15.673	0	276.3	4	98.5	4	-1E+10	1	-1E+10	1	-1E+10	1	-1E+10	1	-1E+10	1	-1E+10	1
4901784	66	C	04/25/2017	10:43	-132.258	43.719	0	17.50	0	9.6610	0	32.9880	4	25.438	0	17.359	0	276.3	4	98.4	4	-1E+10	1	-1E+10	1	-1E+10	1	-1E+10	1	-1E+10	1	-1E+10	1
4901784	66	C	04/25/2017	10:43	-132.258	43.719	0	19.00	0	9.6660	0	32.9880	4	25.437	0	18.847	0	276.3	4	98.5	4	-1E+10	1	-1E+10	1	-1E+10	1	-1E+10	1	-1E+10	1	-1E+10	1
4901784	66	C	04/25/2017	10:43	-132.258	43.719	0	20.60	0	9.6630	0	32.9880	4	25.438	0	20.434	0	276.4	4	98.5	4	-1E+10	1	-1E+10	1	-1E+10	1	-1E+10	1	-1E+10	1	-1E+10	1
4901784	66	C	04/25/2017	10:43	-132.258	43.719	0	22.10	0	9.6630	0	32.9880	4	25.438	0	21.922	0	276.5	4	98.5	4	-1E+10	1	-1E+10	1	-1E+10	1	-1E+10	1	-1E+10	1	-1E+10	1
4901784	66	C	04/25/2017	10:43	-132.258	43.719	0	23.80	0	9.6630	0	32.9880	4	25.438	0	23.608	0	276.4	4	98.5	4	-1E+10	1	-1E+10	1	-1E+10	1	-1E+10	1	-1E+10	1	-1E+10	1
4901784	66	C	04/25/2017	10:43	-132.258	43.719	0	25.50	0	9.6670	0	32.9880	4	25.437	0	25.294	0	276.3	4	98.4	4	-1E+10	1	-1E+10	1	-1E+10	1	-1E+10	1	-1E+10	1	-1E+10	1
4901784	66	C	04/25/2017	10:43	-132.258	43.719	0	27.30	0	9.6660	0	32.9880	4	25.437	0	27.080	0	276.3	4	98.5	4	-1E+10	1	-1E+10	1	-1E+10	1	-1E+10	1	-1E+10	1	-1E+10	1
4901784	66	C	04/25/2017	10:43	-132.258	43.719	0	29.20	0	9.6660	0	32.9880	4	25.437	0	28.964	0	276.1	4	98.4	4	-1E+10	1	-1E+10	1	-1E+10	1	-1E+10	1	-1E+10	1	-1E+10	1
4901784	66	C	04/25/2017	10:43	-132.258	43.719	0	31.10	0	9.6570	0	32.9870	4	25.438	0	30.849	0	276.2	4	98.4	4	-1E+10	1	-1E+10	1	-1E+10	1	-1E+10	1	-1E+10	1	-1E+10	1
4901784	66	C	04/25/2017	10:43	-132.258	43.719	0	33.10	0	9.6530	0	32.9880	4	25.439	0	32.833	0	276.2	4	98.4	4	-1E+10	1	-1E+10	1	-1E+10	1	-1E+10	1	-1E+10	1	-1E+10	1
4901784	66	C	04/25/2017	10:43	-132.258	43.719	0	34.80	0	9.6540	0	32.9880	4	25.439	0	34.519	0	276.1	4	98.4	4	-1E+10	1	-1E+10	1	-1E+10	1	-1E+10	1	-1E+10	1	-1E+10	1
4901784	66	C	04/25/2017	10:43	-132.258	43.719	0	36.60	0	9.6490	0	32.9880	4	25.440	0	36.304	0	275.9	4	98.3	4	-1E+10	1	-1E+10	1	-1E+10	1	-1E+10	1	-1E+10	1	-1E+10	1
4901784	66	C	04/25/2017	10:43	-132.258	43.719	0	38.20	0	9.6490	0	32.9850	4	25.438	0	37.891	0	275.8	4	98.2	4	-1E+10	1	-1E+10	1	-1E+10	1	-1E+10	1	-1E+10	1	-1E+10	1
4901784	66	C	04/25/2017	10:43	-132.258	43.719	0	40.00	0	9.6210	0	32.9880	4	25.445	0	39.676	0	275.7	4	98.2	4	-1E+10	1	-1E+10	1	-1E+10	1	-1E+10	1	-1E+10	1	-1E+10	1
4901784	66	C	04/25/2017	10:43	-132.258	43.719	0	41.80	0	9.6040	0	32.9860	4	25.446	0	41.461	0	275.9	4	98.2	4	-1E+10	1	-1E+10	1	-1E+10	1	-1E+10	1	-1E+10	1	-1E+10	1
4901784	66	C	04/25/2017	10:43	-132.258	43.719	0	43.60	0	9.5940	0	32.9870	4	25.448	0	43.247	0	275.7	4	98.1	4	-1E+10	1	-1E+10	1	-1E+10	1	-1E+10	1	-1E+10	1	-1E+10	1
4901784	66	C	04/25/2017	10:43	-132.258	43.719	0	45.30	0	9.5950	0	32.9870	4	25.448	0	44.933	0	275.7	4	98.1	4	-1E+10	1	-1E+10	1	-1E+10	1	-1E+10	1	-1E+10	1	-1E+10	1
4901784	66	C	04/25/2017	10:43	-132.258	43.719	0	47.20	0	9.6070	0	32.9860	4	25.446	0	46.817	0	275.4	4	98.0	4	-1E+10	1	-1E+10	1	-1E+10	1	-1E+10	1	-1E+10	1	-1E+10	1
4901784	66	C	04/25/2017	10:43	-132.258	43.719	0	49.10	0	9.6000	0	32.9850	4	25.446	0	48.701	0	275.2	4	97.9	4	-1E+10	1	-1E+10	1	-1E+10	1	-1E+10	1	-1E+10	1	-1E+10	1
4901784	66	C	04/25/2017	10:43	-132.258	43.719	0	51.00	0	9.5870	0	32.9860	4	25.449	0	50.586	0	275.2	4	97.9	4	-1E+10	1	-1E+10	1	-1E+10	1	-1E+10	1	-1E+10	1	-1E+10	1
4901784	66	C	04/25/2017	10:43	-132.258	43.719	0	52.90	0	9.5740	0	32.9870	4	25.452	0	52.470	0	274.8	4	97.7	4	-1E+10	1	-1E+10	1	-1E+10	1	-1E+10	1	-1E+10	1	-1E+10	1
4901784	66	C	04/25/2017	10:43	-132.258	43.719	0	54.70	0	9.5600	0	32.9890	4	25.456	0	54.255	0	274.7	4	97.7	4	-1E+10	1	-1E+10	1	-1E+10	1	-1E+10	1	-1E+10	1	-1E+10	1
4901784	66	C	04/25/2017	10:43	-132.258	43.719	0	56.60	0	9.5480	0	32.9900	4	25.458	0	56.139	0	274.5	4	97.6	4	-1E+10	1	-1E+10	1	-1E+10	1	-1E+10	1	-1E+10	1	-1E+10	1
4901784	66	C	04/25/2017	10:43	-132.258	43.719	0	58.40	0	9.5430	0	32.9900	4	25.459	0	57.925	0	274.7	4	97.6	4	-1E+10	1	-1E+10	1	-1E+10	1	-1E+10	1	-1E+10	1	-1E+10	1
4901784	66	C	04/25/2017	10:43	-132.258	43.719	0	60.30	0	9.5420	0	32.9900	4	25.460	0	59.809	0	274.3	4	97.5	4	-1E+10	1	-1E+10	1	-1E+10	1	-1E+10	1	-1E+10	1	-1E+10	1
4901784	66	C	04/25/2017	10:43	-132.258	43.719	0	62.20	0	9.5360	0	32.9900	4	25.461	0	61.693	0	274.5	4	97.5	4	-1E+10	1	-1E+10	1	-1E+10	1	-1E+10	1	-1E+10	1	-1E+10	1
4901784	66	C	04/25/2017	10:43	-132.258	43.719	0	64.30	0	9.5260	0	32.9900	4	25.462	0	63.776	0	274.3	4	97.4	4	-1E+10	1	-1E+10	1	-1E+10	1	-1E+10	1	-1E+10	1	-1E+10	1
4901784	66	C	04/25/2017	10:43	-132.258	43.719	0	64.80	0	9.5210	0	32.9910	4	25.464	0	64.271	0	274.1	4	97.4	4	-1E+10	1	-1E+10	1	-1E+10	1	-1E+10	1	-1E+10	1	-1E+10	1
4901784	66	C	04/25/2017	10:43	-132.258	43.719	0	66.40	0	9.5130	0	32.9930	4	25.467	0	65.858	0	274.0	4	97.3	4	-1E+10	1	-1E+10	1	-1E+10	1	-1E+10	1	-1E+10	1	-1E+10	1
4901784	66	C	04/25/2017	10:43	-132.258	43.719	0	67.90	0	9.5100	0	32.9930	4	25.467	0	67.346	0	273.7	4	97.2	4	-1E+10	1	-1E+10	1	-1E+10	1	-1E+10	1	-1E+10	1	-1E+10	1
4901784	66	C	04/25/2017	10:43	-132.258	43.719	0	69.40	0	9.5060	0	32.9950	4	25.469	0	68.833	0	273.8	4	97.2	4	-1E+10	1	-1E+10	1	-1E+10	1	-1E+10	1	-1E+10	1	-1E+10	1
4901784	66	C	04/25/2017	10:43	-132.258	43.719	0	70.90	0	9.5020	0	32.9940	4	25.469	0	70.321	0	273.6	4	97.1	4	-1E+10	1	-1E+10	1	-1E+10	1	-1E+10	1	-1E+10	1	-1E+10	1
4901784	66	C	04/25/2017	10:43	-132.258	43.719	0	72.40	0	9.4950	0	32.9940	4	25.470	0	71.808	0	273.2	4	97.0	4	-1E+10	1	-1E+10	1	-1E+10	1	-1E+10	1	-1E+10	1	-1E+10	1
4901784	66	C	04/25/2017	10:43	-132.258	43.719	0	74.00	0	9.4450	0	32.9950	4	25.479	0	73.395	0	273.1	4	96.9	4	-1E+10	1	-1E+10	1	-1E+10	1	-1E+10	1	-1E+10	1	-1E+10	1
4901784	66	C	04/25/2017	10:43	-132.258	43.719	0	75.50	0	9.4380	0	32.9940	4	25.480	0	74.882	0	273.1	4	96.8	4	-1E+10	1	-1E+10	1	-1E+10	1	-1E+10	1	-1E+10	1	-1E+10	1
4901784	66	C	04/25/2017	10:43	-132.258	43.719	0	77.10	0	9.3960	0	32.9920	4	25.485	0	76.469	0	272.7	4	96.6	4	-1E+10	1	-1E+10	1	-1E+10	1	-1E+10	1	-1E+10	1	-1E+10	1
4901784	66	C	04/25/2017	10:43	-132.258	43.719	0	78.70	0	9.3200	0	32.9890	4	25.495	0	78.055	0	272.7	4	96.5	4	-1E+10	1	-1E+10	1	-1E+10	1	-1E+10	1	-1E+10	1	-1E+10	1
4901784	66	C	04/25/2017	10:43	-132.258	43.719	0	80.30	0	9.2800	0	32.9890	4	25.501	0	79.642	0	272.4	4	96.3	4	-1E+10	1	-1E+10	1	-1E+10	1	-1E+10	1	-1E+10	1	-1E+10	1
4901784	66	C	04/25/2017	10:43	-132.258	43.719	0	82.00	0	9.1910	0	32.9880	4	25.515	0	81.328	0	272.1	4	96.0	4	-1E+10	1	-1E+10	1	-1E+10	1	-1E+10	1	-1E+10	1	-1E+10	1
4901784	66	C	04/25/2017	10:43	-132.258	43.719	0	83.60	0	9.0510	0	32.9780	4	25.529	0	82.914	0	272.4	4	95.8	4	-1E+10	1	-1E+10	1	-1E+10	1	-1E+10	1	-1E+10	1	-1E+10	1
4901784	66	C	04/25/2017	10:43	-132.258	43.719	0	85.20	0	9.0390	0	32.9760	4	25.529	0	84.501	0	271.6	4	95.5	4	-1E+10	1	-1E+10	1	-1E+10	1	-1E+10	1	-1E+10	1	-1E+10	1
4901784	66	C	04/25/2017	10:43	-132.258	43.719	0	86.80	0	9.0220	0	32.9800	4	25.535	0	86.087	0	270.3	4	95.0	4	-1E+10	1	-1E+10	1	-1E+10	1	-1E+10	1	-1E+10	1	-1E+10	1
4901784	66	C	04/25/2017	10:43	-132.258	43.719	0	88.40	0	8.9580	0	32.9780	4	25.543	0	87.674	0	269.6	4	94.6	4	-1E+10	1	-1E+10	1	-1E+10	1	-1E+10	1	-1E+10	1	-1E+10	1
4901784	66	C	04/25/2017	10:43	-132.258	43.719	0	90.00	0	8.9390	0	32.9790	4	25.547	0	89.261	0	268.1	4	94.0	4	-1E+10	1	-1E+10	1	-1E+10	1	-1E+10	1	-1E+10	1	-1E+10	1
4901784	66	C	04/25/2017	10:43	-132.258	43.719	0	91.60	0	8.9760	0	33.0000	4	25.558	0	90.847	0	266.0	4	93.4	4	-1E+10	1	-1E+10	1	-1E+10	1	-1E+10	1	-1E+10	1	-1E+10	1
4901784	66	C	04/25/2017	10:43	-132.258	43.719	0	93.20	0	8.9780	0	33.0110	4	25.566	0	92.434	0	263.7	4	92.6	4	-1E+10	1	-1E+10	1	-1E+10	1	-1E+10	1	-1E+10	1	-1E+10	1
4901784	66	C	04/25/2017	10:43	-132.258	43.719	0	94.90	0	8.9820	0	33.0190	4	25.572	0	94.119	0	261.2	4	91.7	4	-1E+10	1	-1E+10	1	-1E+10	1	-1E+10	1	-1E+10	1	-1E+10	1
4901784	66	C	04/25/2017	10:43	-132.258	43.719	0	96.50	0	9.0710	0	33.0670	4	25.595	0	95.706	0	257.5	4	90.6	4	-1E+10	1	-1E+10	1	-1E+10	1	-1E+10	1	-1E+10	1	-1E+10	1
4901784	66	C	04/25/2017	10:43	-132.258	43.719	0	98.10	0	9.1000	0	33.0940	4	25.612	0	97.292	0	254.1	4	89.5	4	-1E+10	1	-1E+10	1	-1E+10	1	-1E+10	1	-1E+10	1	-1E+10	1
4901784	66	C	04/25/2017	10:43	-132.258	43.719	0	99.70	0	9.1200	0	33.1200	4	25.629	0	98.878	0	250.7	4	88.3	4	-1E+10	1	-1E+10	1	-1E+10	1	-1E+10	1	-1E+10	1	-1E+10	1
4901784	66	C	04/25/2017	10:43	-132.258	43.719	0	102.30	0	9.1400	0	33.1810	4	25.674	0	101.456	0	244.6	4	86.3	4	-1E+10	1	-1E+10	1	-1E+10	1	-1E+10	1	-1E+10	1	-1E+10	1
4901784	66	C	04/25/2017	10:43	-132.258	43.719	0	104.50	0	9.1550	0	33.2280	4	25.708	0	103.638	0	239.5	4	84.6	4	-1E+10	1	-1E+10	1	-1E+10	1	-1E+10	1	-1E+10	1	-1E+10	1
4901784	66	C	04/25/2017	10:43	-132.258	43.719	0	107.40	0	9.1630	0	33.2640	4	25.735	0	106.513	0	232.8	4	82.2	4	-1E+10	1	-1E+10	1	-1E+10	1	-1E+10	1	-1E+10	1	-1E+10	1
4901784	66	C	04/25/2017	10:43	-132.258	43.719	0	110.30	0	9.1780	0	33.3480	4	25.799	0	109.388	0	225.1	4	79.6	4	-1E+10	1	-1E+10	1	-1E+10	1	-1E+10	1	-1E+10	1	-1E+10	1
4901784	66	C	04/25/2017	10:43	-132.258	43.719	0	112.50	0	9.1750	0	33.3910	4	25.833	0	111.570	0	220.1	4	77.8	4	-1E+10	1	-1E+10	1	-1E+10	1	-1E+10	1	-1E+10	1	-1E+10	1
4901784	66	C	04/25/2017	10:43	-132.258	43.719	0	114.80	0	9.1430	0	33.4360	4	25.873	0	113.850	0	214.9	4	76.0	4	-1E+10	1	-1E+10	1	-1E+10	1	-1E+10	1	-1E+10	1	-1E+10	1
4901784	66	C	04/25/2017	10:43	-132.258	43.719	0	117.80	0	8.9580	0	33.5190	4	25.967	0	116.824	0	208.6	4	73.5	4	-1E+10	1	-1E+10	1	-1E+10	1	-1E+10	1	-1E+10	1	-1E+10	1
4901784	66	C	04/25/2017	10:43	-132.258	43.719	0	120.30	0	8.8980	0	33.5990	4	26.039	0	119.303	0	204.9	4	72.1	4	-1E+10	1	-1E+10	1	-1E+10	1	-1E+10	1	-1E+10	1	-1E+10	1
4901784	66	C	04/25/2017	10:43	-132.258	43.719	0	122.00	0	8.8910	0	33.6380	4	26.071	0	120.988	0	202.9	4	71.4	4	-1E+10	1	-1E+10	1	-1E+10	1	-1E+10	1	-1E+10	1	-1E+10	1
4901784	66	C	04/25/2017	10:43	-132.258	43.719	0	124.70	0	8.8730	0	33.6630	4	26.094	0	123.665	0	200.7	4	70.6	4	-1E+10	1	-1E+10	1	-1E+10	1	-1E+10	1	-1E+10	1	-1E+10	1
4901784	66	C	04/25/2017	10:43	-132.258	43.719	0	127.30	0	8.8680	0	33.6770	4	26.105	0	126.243	0	197.6	4	69.5	4	-1E+10	1	-1E+10	1	-1E+10	1	-1E+10	1	-1E+10	1	-1E+10	1
4901784	66	C	04/25/2017	10:43	-132.258	43.719	0	130.00	0	8.8240	0	33.7390	4	26.161	0	128.919	0	193.9	4	68.2	4	-1E+10	1	-1E+10	1	-1E+10	1	-1E+10	1	-1E+10	1	-1E+10	1
4901784	66	C	04/25/2017	10:43	-132.258	43.719	0	132.60	0	8.7960	0	33.7880	4	26.204	0	131.497	0	191.7	4	67.4	4	-1E+10	1	-1E+10	1	-1E+10	1	-1E+10	1	-1E+10	1	-1E+10	1
4901784	66	C	04/25/2017	10:43	-132.258	43.719	0	135.20	0	8.7890	0	33.8270	4	26.235	0	134.074	0	190.2	4	66.9	4	-1E+10	1	-1E+10	1	-1E+10	1	-1E+10	1	-1E+10	1	-1E+10	1
4901784	66	C	04/25/2017	10:43	-132.258	43.719	0	137.90	0	8.7780	0	33.8620	4	26.265	0	136.751	0	189.2	4	66.5	4	-1E+10	1	-1E+10	1	-1E+10	1	-1E+10	1	-1E+10	1	-1E+10	1
4901784	66	C	04/25/2017	10:43	-132.258	43.719	0	139.70	0	8.7770	0	33.8640	4	26.266	0	138.535	0	188.4	4	66.3	4	-1E+10	1	-1E+10	1	-1E+10	1	-1E+10	1	-1E+10	1	-1E+10	1
4901784	66	C	04/25/2017	10:43	-132.258	43.719	0	142.50	0	8.7590	0	33.8760	4	26.279	0	141.311	0	187.3	4	65.9	4	-1E+10	1	-1E+10	1	-1E+10	1	-1E+10	1	-1E+10	1	-1E+10	1
4901784	66	C	04/25/2017	10:43	-132.258	43.719	0	144.80	0	8.7310	0	33.8900	4	26.294	0	143.591	0	186.2	4	65.4	4	-1E+10	1	-1E+10	1	-1E+10	1	-1E+10	1	-1E+10	1	-1E+10	1
4901784	66	C	04/25/2017	10:43	-132.258	43.719	0	147.80	0	8.7000	0	33.9080	4	26.313	0	146.565	0	184.8	4	64.9	4	-1E+10	1	-1E+10	1	-1E+10	1	-1E+10	1	-1E+10	1	-1E+10	1
4901784	66	C	04/25/2017	10:43	-132.258	43.719	0	150.00	0	8.6810	0	33.9370	4	26.339	0	148.746	0	183.9	4	64.6	4	-1E+10	1	-1E+10	1	-1E+10	1	-1E+10	1	-1E+10	1	-1E+10	1
4901784	66	C	04/25/2017	10:43	-132.258	43.719	0	152.20	0	8.6370	0	33.9620	4	26.365	0	150.927	0	182.6	4	64.1	4	-1E+10	1	-1E+10	1	-1E+10	1	-1E+10	1	-1E+10	1	-1E+10	1
4901784	66	C	04/25/2017	10:43	-132.258	43.719	0	155.30	0	8.5860	0	33.9760	4	26.384	0	154.000	0	181.1	4	63.5	4	-1E+10	1	-1E+10	1	-1E+10	1	-1E+10	1	-1E+10	1	-1E+10	1
4901784	66	C	04/25/2017	10:43	-132.258	43.719	0	157.70	0	8.5620	0	33.9730	4	26.385	0	156.379	0	179.7	4	62.9	4	-1E+10	1	-1E+10	1	-1E+10	1	-1E+10	1	-1E+10	1	-1E+10	1
4901784	66	C	04/25/2017	10:43	-132.258	43.719	0	160.10	0	8.4640	0	33.9790	4	26.405	0	158.758	0	178.3	4	62.3	4	-1E+10	1	-1E+10	1	-1E+10	1	-1E+10	1	-1E+10	1	-1E+10	1
4901784	66	C	04/25/2017	10:43	-132.258	43.719	0	162.50	0	8.3870	0	33.9870	4	26.423	0	161.137	0	177.0	4	61.8	4	-1E+10	1	-1E+10	1	-1E+10	1	-1E+10	1	-1E+10	1	-1E+10	1
4901784	66	C	04/25/2017	10:43	-132.258	43.719	0	165.00	0	8.3490	0	33.9900	4	26.431	0	163.615	0	175.7	4	61.3	4	-1E+10	1	-1E+10	1	-1E+10	1	-1E+10	1	-1E+10	1	-1E+10	1
4901784	66	C	04/25/2017	10:43	-132.258	43.719	0	167.40	0	8.2930	0	33.9890	4	26.439	0	165.993	0	174.1	4	60.6	4	-1E+10	1	-1E+10	1	-1E+10	1	-1E+10	1	-1E+10	1	-1E+10	1
4901784	66	C	04/25/2017	10:43	-132.258	43.719	0	169.90	0	8.1930	0	33.9910	4	26.455	0	168.471	0	172.7	4	60.0	4	-1E+10	1	-1E+10	1	-1E+10	1	-1E+10	1	-1E+10	1	-1E+10	1
4901784	66	C	04/25/2017	10:43	-132.258	43.719	0	172.40	0	8.1070	0	33.9930	4	26.470	0	170.949	0	172.1	4	59.7	4	-1E+10	1	-1E+10	1	-1E+10	1	-1E+10	1	-1E+10	1	-1E+10	1
4901784	66	C	04/25/2017	10:43	-132.258	43.719	0	175.00	0	8.1130	0	33.9990	4	26.474	0	173.526	0	171.3	4	59.4	4	-1E+10	1	-1E+10	1	-1E+10	1	-1E+10	1	-1E+10	1	-1E+10	1
4901784	66	C	04/25/2017	10:43	-132.258	43.719	0	177.50	0	8.0870	0	33.9990	4	26.478	0	176.004	0	169.8	4	58.9	4	-1E+10	1	-1E+10	1	-1E+10	1	-1E+10	1	-1E+10	1	-1E+10	1
4901784	66	C	04/25/2017	10:43	-132.258	43.719	0	180.10	0	8.0210	0	33.9990	4	26.488	0	178.581	0	168.7	4	58.4	4	-1E+10	1	-1E+10	1	-1E+10	1	-1E+10	1	-1E+10	1	-1E+10	1
4901784	66	C	04/25/2017	10:43	-132.258	43.719	0	182.60	0	7.9980	0	34.0010	4	26.493	0	181.059	0	167.1	4	57.8	4	-1E+10	1	-1E+10	1	-1E+10	1	-1E+10	1	-1E+10	1	-1E+10	1
4901784	66	C	04/25/2017	10:43	-132.258	43.719	0	185.20	0	7.8940	0	34.0020	4	26.509	0	183.636	0	165.5	4	57.1	4	-1E+10	1	-1E+10	1	-1E+10	1	-1E+10	1	-1E+10	1	-1E+10	1
4901784	66	C	04/25/2017	10:43	-132.258	43.719	0	187.70	0	7.8320	0	34.0020	4	26.518	0	186.114	0	164.2	4	56.6	4	-1E+10	1	-1E+10	1	-1E+10	1	-1E+10	1	-1E+10	1	-1E+10	1
4901784	66	C	04/25/2017	10:43	-132.258	43.719	0	190.20	0	7.7480	0	33.9990	4	26.528	0	188.591	0	163.5	4	56.3	4	-1E+10	1	-1E+10	1	-1E+10	1	-1E+10	1	-1E+10	1	-1E+10	1
4901784	66	C	04/25/2017	10:43	-132.258	43.719	0	192.80	0	7.7640	0	34.0090	4	26.533	0	191.168	0	162.4	4	55.9	4	-1E+10	1	-1E+10	1	-1E+10	1	-1E+10	1	-1E+10	1	-1E+10	1
4901784	66	C	04/25/2017	10:43	-132.258	43.719	0	195.40	0	7.7200	0	34.0070	4	26.538	0	193.745	0	160.9	4	55.3	4	-1E+10	1	-1E+10	1	-1E+10	1	-1E+10	1	-1E+10	1	-1E+10	1
4901784	66	C	04/25/2017	10:43	-132.258	43.719	0	197.90	0	7.6650	0	34.0040	4	26.544	0	196.223	0	159.3	4	54.7	4	-1E+10	1	-1E+10	1	-1E+10	1	-1E+10	1	-1E+10	1	-1E+10	1
4901784	66	C	04/25/2017	10:43	-132.258	43.719	0	200.40	0	7.5770	0	34.0120	4	26.563	0	198.700	0	157.5	4	54.0	4	-1E+10	1	-1E+10	1	-1E+10	1	-1E+10	1	-1E+10	1	-1E+10	1
4901784	66	C	04/25/2017	10:43	-132.258	43.719	0	203.00	0	7.4990	0	34.0040	4	26.567	0	201.277	0	156.4	4	53.5	4	-1E+10	1	-1E+10	1	-1E+10	1	-1E+10	1	-1E+10	1	-1E+10	1
4901784	66	C	04/25/2017	10:43	-132.258	43.719	0	204.70	0	7.4580	0	34.0020	4	26.572	0	202.962	0	155.8	4	53.3	4	-1E+10	1	-1E+10	1	-1E+10	1	-1E+10	1	-1E+10	1	-1E+10	1
4901784	66	C	04/25/2017	10:43	-132.258	43.719	0	207.30	0	7.4080	0	34.0020	4	26.579	0	205.538	0	154.8	4	52.8	4	-1E+10	1	-1E+10	1	-1E+10	1	-1E+10	1	-1E+10	1	-1E+10	1
4901784	66	C	04/25/2017	10:43	-132.258	43.719	0	210.00	0	7.3460	0	34.0030	4	26.588	0	208.214	0	153.9	4	52.5	4	-1E+10	1	-1E+10	1	-1E+10	1	-1E+10	1	-1E+10	1	-1E+10	1
4901784	66	C	04/25/2017	10:43	-132.258	43.719	0	212.70	0	7.3400	0	34.0010	4	26.588	0	210.890	0	152.9	4	52.1	4	-1E+10	1	-1E+10	1	-1E+10	1	-1E+10	1	-1E+10	1	-1E+10	1
4901784	66	C	04/25/2017	10:43	-132.258	43.719	0	215.30	0	7.3300	0	33.9990	4	26.588	0	213.466	0	151.6	4	51.7	4	-1E+10	1	-1E+10	1	-1E+10	1	-1E+10	1	-1E+10	1	-1E+10	1
4901784	66	C	04/25/2017	10:43	-132.258	43.719	0	217.20	0	7.2570	0	34.0000	4	26.599	0	215.349	0	150.8	4	51.3	4	-1E+10	1	-1E+10	1	-1E+10	1	-1E+10	1	-1E+10	1	-1E+10	1
4901784	66	C	04/25/2017	10:43	-132.258	43.719	0	219.90	0	7.1950	0	34.0010	4	26.608	0	218.025	0	149.9	4	50.9	4	-1E+10	1	-1E+10	1	-1E+10	1	-1E+10	1	-1E+10	1	-1E+10	1
4901784	66	C	04/25/2017	10:43	-132.258	43.719	0	222.60	0	7.1650	0	34.0020	4	26.613	0	220.700	0	149.1	4	50.6	4	-1E+10	1	-1E+10	1	-1E+10	1	-1E+10	1	-1E+10	1	-1E+10	1
4901784	66	C	04/25/2017	10:43	-132.258	43.719	0	224.50	0	7.1550	0	34.0020	4	26.614	0	222.583	0	148.5	4	50.4	4	-1E+10	1	-1E+10	1	-1E+10	1	-1E+10	1	-1E+10	1	-1E+10	1
4901784	66	C	04/25/2017	10:43	-132.258	43.719	0	227.20	0	7.1150	0	34.0040	4	26.621	0	225.258	0	147.6	4	50.1	4	-1E+10	1	-1E+10	1	-1E+10	1	-1E+10	1	-1E+10	1	-1E+10	1
4901784	66	C	04/25/2017	10:43	-132.258	43.719	0	230.00	0	7.0970	0	34.0020	4	26.622	0	228.033	0	146.4	4	49.6	4	-1E+10	1	-1E+10	1	-1E+10	1	-1E+10	1	-1E+10	1	-1E+10	1
4901784	66	C	04/25/2017	10:43	-132.258	43.719	0	232.80	0	7.0320	0	34.0040	4	26.633	0	230.807	0	145.1	4	49.1	4	-1E+10	1	-1E+10	1	-1E+10	1	-1E+10	1	-1E+10	1	-1E+10	1
4901784	66	C	04/25/2017	10:43	-132.258	43.719	0	235.60	0	6.9700	0	34.0070	4	26.644	0	233.582	0	144.1	4	48.7	4	-1E+10	1	-1E+10	1	-1E+10	1	-1E+10	1	-1E+10	1	-1E+10	1
4901784	66	C	04/25/2017	10:43	-132.258	43.719	0	237.50	0	6.9540	0	34.0060	4	26.645	0	235.465	0	143.5	4	48.5	4	-1E+10	1	-1E+10	1	-1E+10	1	-1E+10	1	-1E+10	1	-1E+10	1
4901784	66	C	04/25/2017	10:43	-132.258	43.719	0	240.20	0	6.9190	0	34.0070	4	26.651	0	238.140	0	142.5	4	48.1	4	-1E+10	1	-1E+10	1	-1E+10	1	-1E+10	1	-1E+10	1	-1E+10	1
4901784	66	C	04/25/2017	10:43	-132.258	43.719	0	243.00	0	6.8900	0	34.0080	4	26.656	0	240.914	0	141.1	4	47.6	4	-1E+10	1	-1E+10	1	-1E+10	1	-1E+10	1	-1E+10	1	-1E+10	1
4901784	66	C	04/25/2017	10:43	-132.258	43.719	0	244.90	0	6.8740	0	34.0070	4	26.657	0	242.797	0	140.1	4	47.3	4	-1E+10	1	-1E+10	1	-1E+10	1	-1E+10	1	-1E+10	1	-1E+10	1
4901784	66	C	04/25/2017	10:43	-132.258	43.719	0	247.60	0	6.8170	0	34.0080	4	26.665	0	245.472	0	138.2	4	46.6	4	-1E+10	1	-1E+10	1	-1E+10	1	-1E+10	1	-1E+10	1	-1E+10	1
4901784	66	C	04/25/2017	10:43	-132.258	43.719	0	250.40	0	6.7540	0	34.0080	4	26.674	0	248.246	0	136.6	4	46.0	4	-1E+10	1	-1E+10	1	-1E+10	1	-1E+10	1	-1E+10	1	-1E+10	1
4901784	66	C	04/25/2017	10:43	-132.258	43.719	0	252.10	0	6.7230	0	34.0090	4	26.679	0	249.931	0	135.7	4	45.6	4	-1E+10	1	-1E+10	1	-1E+10	1	-1E+10	1	-1E+10	1	-1E+10	1
4901784	66	C	04/25/2017	10:43	-132.258	43.719	0	254.90	0	6.6990	0	34.0070	4	26.681	0	252.705	0	134.0	4	45.0	4	-1E+10	1	-1E+10	1	-1E+10	1	-1E+10	1	-1E+10	1	-1E+10	1
4901784	66	C	04/25/2017	10:43	-132.258	43.719	0	257.60	0	6.6520	0	34.0070	4	26.687	0	255.380	0	132.0	4	44.3	4	-1E+10	1	-1E+10	1	-1E+10	1	-1E+10	1	-1E+10	1	-1E+10	1
4901784	66	C	04/25/2017	10:43	-132.258	43.719	0	260.30	0	6.5670	0	34.0050	4	26.697	0	258.055	0	130.1	4	43.6	4	-1E+10	1	-1E+10	1	-1E+10	1	-1E+10	1	-1E+10	1	-1E+10	1
4901784	66	C	04/25/2017	10:43	-132.258	43.719	0	263.00	0	6.5370	0	34.0050	4	26.701	0	260.730	0	128.6	4	43.1	4	-1E+10	1	-1E+10	1	-1E+10	1	-1E+10	1	-1E+10	1	-1E+10	1
4901784	66	C	04/25/2017	10:43	-132.258	43.719	0	264.80	0	6.5040	0	34.0040	4	26.704	0	262.513	0	127.4	4	42.6	4	-1E+10	1	-1E+10	1	-1E+10	1	-1E+10	1	-1E+10	1	-1E+10	1
4901784	66	C	04/25/2017	10:43	-132.258	43.719	0	267.60	0	6.4560	0	34.0040	4	26.710	0	265.287	0	125.5	4	41.9	4	-1E+10	1	-1E+10	1	-1E+10	1	-1E+10	1	-1E+10	1	-1E+10	1
4901784	66	C	04/25/2017	10:43	-132.258	43.719	0	270.30	0	6.3670	0	34.0020	4	26.720	0	267.962	0	123.7	4	41.2	4	-1E+10	1	-1E+10	1	-1E+10	1	-1E+10	1	-1E+10	1	-1E+10	1
4901784	66	C	04/25/2017	10:43	-132.258	43.719	0	272.20	0	6.3340	0	34.0010	4	26.724	0	269.845	0	122.7	4	40.9	4	-1E+10	1	-1E+10	1	-1E+10	1	-1E+10	1	-1E+10	1	-1E+10	1
4901784	66	C	04/25/2017	10:43	-132.258	43.719	0	274.90	0	6.2770	0	34.0020	4	26.732	0	272.519	0	121.0	4	40.3	4	-1E+10	1	-1E+10	1	-1E+10	1	-1E+10	1	-1E+10	1	-1E+10	1
4901784	66	C	04/25/2017	10:43	-132.258	43.719	0	277.70	0	6.2160	0	34.0040	4	26.741	0	275.293	0	119.7	4	39.8	4	-1E+10	1	-1E+10	1	-1E+10	1	-1E+10	1	-1E+10	1	-1E+10	1
4901784	66	C	04/25/2017	10:43	-132.258	43.719	0	279.50	0	6.2040	0	34.0030	4	26.742	0	277.076	0	118.8	4	39.4	4	-1E+10	1	-1E+10	1	-1E+10	1	-1E+10	1	-1E+10	1	-1E+10	1
4901784	66	C	04/25/2017	10:43	-132.258	43.719	0	282.30	0	6.1540	0	34.0040	4	26.749	0	279.850	0	117.4	4	39.0	4	-1E+10	1	-1E+10	1	-1E+10	1	-1E+10	1	-1E+10	1	-1E+10	1
4901784	66	C	04/25/2017	10:43	-132.258	43.719	0	284.90	0	6.1330	0	34.0040	4	26.752	0	282.426	0	116.4	4	38.6	4	-1E+10	1	-1E+10	1	-1E+10	1	-1E+10	1	-1E+10	1	-1E+10	1
4901784	66	C	04/25/2017	10:43	-132.258	43.719	0	287.70	0	6.1120	0	34.0030	4	26.754	0	285.200	0	115.3	4	38.2	4	-1E+10	1	-1E+10	1	-1E+10	1	-1E+10	1	-1E+10	1	-1E+10	1
4901784	66	C	04/25/2017	10:43	-132.258	43.719	0	290.30	0	6.1000	0	34.0020	4	26.755	0	287.775	0	114.0	4	37.8	4	-1E+10	1	-1E+10	1	-1E+10	1	-1E+10	1	-1E+10	1	-1E+10	1
4901784	66	C	04/25/2017	10:43	-132.258	43.719	0	292.20	0	6.0920	0	34.0020	4	26.756	0	289.658	0	112.7	4	37.3	4	-1E+10	1	-1E+10	1	-1E+10	1	-1E+10	1	-1E+10	1	-1E+10	1
4901784	66	C	04/25/2017	10:43	-132.258	43.719	0	294.90	0	6.0230	0	34.0020	4	26.764	0	292.332	0	110.8	4	36.6	4	-1E+10	1	-1E+10	1	-1E+10	1	-1E+10	1	-1E+10	1	-1E+10	1
4901784	66	C	04/25/2017	10:43	-132.258	43.719	0	297.60	0	5.9620	0	34.0050	4	26.775	0	295.007	0	109.5	4	36.2	4	-1E+10	1	-1E+10	1	-1E+10	1	-1E+10	1	-1E+10	1	-1E+10	1
4901784	66	C	04/25/2017	10:43	-132.258	43.719	0	300.30	0	5.9310	0	34.0040	4	26.778	0	297.681	0	108.5	4	35.8	4	-1E+10	1	-1E+10	1	-1E+10	1	-1E+10	1	-1E+10	1	-1E+10	1
4901784	66	C	04/25/2017	10:43	-132.258	43.719	0	303.00	0	5.8770	0	34.0050	4	26.785	0	300.356	0	107.5	4	35.4	4	-1E+10	1	-1E+10	1	-1E+10	1	-1E+10	1	-1E+10	1	-1E+10	1
4901784	66	C	04/25/2017	10:43	-132.258	43.719	0	304.80	0	5.8700	0	34.0060	4	26.787	0	302.139	0	107.2	4	35.3	4	-1E+10	1	-1E+10	1	-1E+10	1	-1E+10	1	-1E+10	1	-1E+10	1
4901784	66	C	04/25/2017	10:43	-132.258	43.719	0	307.60	0	5.8600	0	34.0040	4	26.786	0	304.912	0	106.3	4	35.0	4	-1E+10	1	-1E+10	1	-1E+10	1	-1E+10	1	-1E+10	1	-1E+10	1
4901784	66	C	04/25/2017	10:43	-132.258	43.719	0	310.30	0	5.8440	0	34.0030	4	26.788	0	307.587	0	105.2	4	34.7	4	-1E+10	1	-1E+10	1	-1E+10	1	-1E+10	1	-1E+10	1	-1E+10	1
4901784	66	C	04/25/2017	10:43	-132.258	43.719	0	312.10	0	5.8220	0	34.0030	4	26.790	0	309.369	0	104.2	4	34.3	4	-1E+10	1	-1E+10	1	-1E+10	1	-1E+10	1	-1E+10	1	-1E+10	1
4901784	66	C	04/25/2017	10:43	-132.258	43.719	0	314.80	0	5.7740	0	34.0040	4	26.797	0	312.044	0	102.7	4	33.8	4	-1E+10	1	-1E+10	1	-1E+10	1	-1E+10	1	-1E+10	1	-1E+10	1
4901784	66	C	04/25/2017	10:43	-132.258	43.719	0	317.50	0	5.7310	0	34.0050	4	26.803	0	314.718	0	101.5	4	33.3	4	-1E+10	1	-1E+10	1	-1E+10	1	-1E+10	1	-1E+10	1	-1E+10	1
4901784	66	C	04/25/2017	10:43	-132.258	43.719	0	320.20	0	5.7170	0	34.0060	4	26.806	0	317.392	0	99.9	4	32.8	4	-1E+10	1	-1E+10	1	-1E+10	1	-1E+10	1	-1E+10	1	-1E+10	1
4901784	66	C	04/25/2017	10:43	-132.258	43.719	0	323.00	0	5.6840	0	34.0070	4	26.811	0	320.166	0	98.2	4	32.2	4	-1E+10	1	-1E+10	1	-1E+10	1	-1E+10	1	-1E+10	1	-1E+10	1
4901784	66	C	04/25/2017	10:43	-132.258	43.719	0	324.70	0	5.6630	0	34.0080	4	26.814	0	321.849	0	97.3	4	31.9	4	-1E+10	1	-1E+10	1	-1E+10	1	-1E+10	1	-1E+10	1	-1E+10	1
4901784	66	C	04/25/2017	10:43	-132.258	43.719	0	327.40	0	5.6180	0	34.0100	4	26.821	0	324.524	0	95.9	4	31.4	4	-1E+10	1	-1E+10	1	-1E+10	1	-1E+10	1	-1E+10	1	-1E+10	1
4901784	66	C	04/25/2017	10:43	-132.258	43.719	0	330.10	0	5.5860	0	34.0110	4	26.826	0	327.198	0	94.6	4	31.0	4	-1E+10	1	-1E+10	1	-1E+10	1	-1E+10	1	-1E+10	1	-1E+10	1
4901784	66	C	04/25/2017	10:43	-132.258	43.719	0	332.00	0	5.5800	0	34.0110	4	26.826	0	329.080	0	93.8	4	30.7	4	-1E+10	1	-1E+10	1	-1E+10	1	-1E+10	1	-1E+10	1	-1E+10	1
4901784	66	C	04/25/2017	10:43	-132.258	43.719	0	334.80	0	5.5430	0	34.0120	4	26.832	0	331.853	0	92.4	4	30.2	4	-1E+10	1	-1E+10	1	-1E+10	1	-1E+10	1	-1E+10	1	-1E+10	1
4901784	66	C	04/25/2017	10:43	-132.258	43.719	0	337.50	0	5.5090	0	34.0130	4	26.837	0	334.527	0	91.0	4	29.7	4	-1E+10	1	-1E+10	1	-1E+10	1	-1E+10	1	-1E+10	1	-1E+10	1
4901784	66	C	04/25/2017	10:43	-132.258	43.719	0	340.30	0	5.4740	0	34.0160	4	26.843	0	337.300	0	89.8	4	29.3	4	-1E+10	1	-1E+10	1	-1E+10	1	-1E+10	1	-1E+10	1	-1E+10	1
4901784	66	C	04/25/2017	10:43	-132.258	43.719	0	343.00	0	5.4620	0	34.0150	4	26.844	0	339.974	0	88.4	4	28.9	4	-1E+10	1	-1E+10	1	-1E+10	1	-1E+10	1	-1E+10	1	-1E+10	1
4901784	66	C	04/25/2017	10:43	-132.258	43.719	0	344.90	0	5.4440	0	34.0160	4	26.847	0	341.855	0	87.3	4	28.5	4	-1E+10	1	-1E+10	1	-1E+10	1	-1E+10	1	-1E+10	1	-1E+10	1
4901784	66	C	04/25/2017	10:43	-132.258	43.719	0	347.80	0	5.3960	0	34.0190	4	26.855	0	344.727	0	85.7	4	28.0	4	-1E+10	1	-1E+10	1	-1E+10	1	-1E+10	1	-1E+10	1	-1E+10	1
4901784	66	C	04/25/2017	10:43	-132.258	43.719	0	350.60	0	5.3590	0	34.0220	4	26.862	0	347.500	0	84.5	4	27.5	4	-1E+10	1	-1E+10	1	-1E+10	1	-1E+10	1	-1E+10	1	-1E+10	1
4901784	66	C	04/25/2017	10:43	-132.258	43.719	0	352.40	0	5.3380	0	34.0230	4	26.865	0	349.283	0	83.6	4	27.2	4	-1E+10	1	-1E+10	1	-1E+10	1	-1E+10	1	-1E+10	1	-1E+10	1
4901784	66	C	04/25/2017	10:43	-132.258	43.719	0	355.30	0	5.3070	0	34.0240	4	26.869	0	352.155	0	82.2	4	26.7	4	-1E+10	1	-1E+10	1	-1E+10	1	-1E+10	1	-1E+10	1	-1E+10	1
4901784	66	C	04/25/2017	10:43	-132.258	43.719	0	358.00	0	5.2730	0	34.0270	4	26.876	0	354.829	0	81.0	4	26.3	4	-1E+10	1	-1E+10	1	-1E+10	1	-1E+10	1	-1E+10	1	-1E+10	1
4901784	66	C	04/25/2017	10:43	-132.258	43.719	0	359.90	0	5.2550	0	34.0270	4	26.878	0	356.710	0	80.2	4	26.1	4	-1E+10	1	-1E+10	1	-1E+10	1	-1E+10	1	-1E+10	1	-1E+10	1
4901784	66	C	04/25/2017	10:43	-132.258	43.719	0	362.70	0	5.2260	0	34.0300	4	26.884	0	359.483	0	79.0	4	25.6	4	-1E+10	1	-1E+10	1	-1E+10	1	-1E+10	1	-1E+10	1	-1E+10	1
4901784	66	C	04/25/2017	10:43	-132.258	43.719	0	365.50	0	5.2120	0	34.0310	4	26.886	0	362.256	0	77.7	4	25.2	4	-1E+10	1	-1E+10	1	-1E+10	1	-1E+10	1	-1E+10	1	-1E+10	1
4901784	66	C	04/25/2017	10:43	-132.258	43.719	0	367.90	0	5.1790	0	34.0330	4	26.891	0	364.632	0	76.7	4	24.9	4	-1E+10	1	-1E+10	1	-1E+10	1	-1E+10	1	-1E+10	1	-1E+10	1
4901784	66	C	04/25/2017	10:43	-132.258	43.719	0	369.90	0	5.1510	0	34.0360	4	26.897	0	366.613	0	75.4	4	24.4	4	-1E+10	1	-1E+10	1	-1E+10	1	-1E+10	1	-1E+10	1	-1E+10	1
4901784	66	C	04/25/2017	10:43	-132.258	43.719	0	372.20	0	5.1300	0	34.0390	4	26.902	0	368.890	0	74.1	4	24.0	4	-1E+10	1	-1E+10	1	-1E+10	1	-1E+10	1	-1E+10	1	-1E+10	1
4901784	66	C	04/25/2017	10:43	-132.258	43.719	0	374.60	0	5.1090	0	34.0400	4	26.905	0	371.267	0	73.4	4	23.8	4	-1E+10	1	-1E+10	1	-1E+10	1	-1E+10	1	-1E+10	1	-1E+10	1
4901784	66	C	04/25/2017	10:43	-132.258	43.719	0	377.00	0	5.0890	0	34.0430	4	26.910	0	373.643	0	72.5	4	23.5	4	-1E+10	1	-1E+10	1	-1E+10	1	-1E+10	1	-1E+10	1	-1E+10	1
4901784	66	C	04/25/2017	10:43	-132.258	43.719	0	380.30	0	5.0760	0	34.0450	4	26.913	0	376.911	0	71.2	4	23.1	4	-1E+10	1	-1E+10	1	-1E+10	1	-1E+10	1	-1E+10	1	-1E+10	1
4901784	66	C	04/25/2017	10:43	-132.258	43.719	0	382.70	0	5.0650	0	34.0460	4	26.915	0	379.287	0	70.2	4	22.7	4	-1E+10	1	-1E+10	1	-1E+10	1	-1E+10	1	-1E+10	1	-1E+10	1
4901784	66	C	04/25/2017	10:43	-132.258	43.719	0	385.20	0	5.0380	0	34.0500	4	26.921	0	381.763	0	69.2	4	22.4	4	-1E+10	1	-1E+10	1	-1E+10	1	-1E+10	1	-1E+10	1	-1E+10	1
4901784	66	C	04/25/2017	10:43	-132.258	43.719	0	387.60	0	5.0170	0	34.0520	4	26.925	0	384.139	0	68.5	4	22.2	4	-1E+10	1	-1E+10	1	-1E+10	1	-1E+10	1	-1E+10	1	-1E+10	1
4901784	66	C	04/25/2017	10:43	-132.258	43.719	0	390.10	0	5.0090	0	34.0530	4	26.927	0	386.614	0	67.6	4	21.8	4	-1E+10	1	-1E+10	1	-1E+10	1	-1E+10	1	-1E+10	1	-1E+10	1
4901784	66	C	04/25/2017	10:43	-132.258	43.719	0	392.60	0	4.9980	0	34.0550	4	26.930	0	389.090	0	66.6	4	21.5	4	-1E+10	1	-1E+10	1	-1E+10	1	-1E+10	1	-1E+10	1	-1E+10	1
4901784	66	C	04/25/2017	10:43	-132.258	43.719	0	395.00	0	4.9910	0	34.0570	4	26.932	0	391.466	0	65.9	4	21.3	4	-1E+10	1	-1E+10	1	-1E+10	1	-1E+10	1	-1E+10	1	-1E+10	1
4901784	66	C	04/25/2017	10:43	-132.258	43.719	0	397.50	0	4.9750	0	34.0590	4	26.936	0	393.941	0	65.4	4	21.1	4	-1E+10	1	-1E+10	1	-1E+10	1	-1E+10	1	-1E+10	1	-1E+10	1
4901784	66	C	04/25/2017	10:43	-132.258	43.719	0	400.00	0	4.9540	0	34.0600	4	26.939	0	396.416	0	65.0	4	21.0	4	-1E+10	1	-1E+10	1	-1E+10	1	-1E+10	1	-1E+10	1	-1E+10	1
4901784	66	C	04/25/2017	10:43	-132.258	43.719	0	402.50	0	4.9380	0	34.0620	4	26.942	0	398.892	0	64.0	4	20.7	4	-1E+10	1	-1E+10	1	-1E+10	1	-1E+10	1	-1E+10	1	-1E+10	1
4901784	66	C	04/25/2017	10:43	-132.258	43.719	0	405.00	0	4.9250	0	34.0650	4	26.946	0	401.367	0	63.1	4	20.4	4	-1E+10	1	-1E+10	1	-1E+10	1	-1E+10	1	-1E+10	1	-1E+10	1
4901784	66	C	04/25/2017	10:43	-132.258	43.719	0	407.50	0	4.9130	0	34.0670	4	26.949	0	403.842	0	62.1	4	20.0	4	-1E+10	1	-1E+10	1	-1E+10	1	-1E+10	1	-1E+10	1	-1E+10	1
4901784	66	C	04/25/2017	10:43	-132.258	43.719	0	410.00	0	4.9120	0	34.0670	4	26.949	0	406.317	0	60.6	4	19.5	4	-1E+10	1	-1E+10	1	-1E+10	1	-1E+10	1	-1E+10	1	-1E+10	1
4901784	66	C	04/25/2017	10:43	-132.258	43.719	0	412.60	0	4.8860	0	34.0720	4	26.956	0	408.891	0	59.3	4	19.1	4	-1E+10	1	-1E+10	1	-1E+10	1	-1E+10	1	-1E+10	1	-1E+10	1
4901784	66	C	04/25/2017	10:43	-132.258	43.719	0	415.10	0	4.8670	0	34.0750	4	26.961	0	411.366	0	58.3	4	18.8	4	-1E+10	1	-1E+10	1	-1E+10	1	-1E+10	1	-1E+10	1	-1E+10	1
4901784	66	C	04/25/2017	10:43	-132.258	43.719	0	417.60	0	4.8450	0	34.0800	4	26.967	0	413.841	0	57.8	4	18.6	4	-1E+10	1	-1E+10	1	-1E+10	1	-1E+10	1	-1E+10	1	-1E+10	1
4901784	66	C	04/25/2017	10:43	-132.258	43.719	0	420.20	0	4.8310	0	34.0810	4	26.970	0	416.415	0	57.4	4	18.5	4	-1E+10	1	-1E+10	1	-1E+10	1	-1E+10	1	-1E+10	1	-1E+10	1
4901784	66	C	04/25/2017	10:43	-132.258	43.719	0	422.80	0	4.8110	0	34.0820	4	26.973	0	418.989	0	56.5	4	18.2	4	-1E+10	1	-1E+10	1	-1E+10	1	-1E+10	1	-1E+10	1	-1E+10	1
4901784	66	C	04/25/2017	10:43	-132.258	43.719	0	424.60	0	4.8070	0	34.0840	4	26.975	0	420.771	0	55.6	4	17.9	4	-1E+10	1	-1E+10	1	-1E+10	1	-1E+10	1	-1E+10	1	-1E+10	1
4901784	66	C	04/25/2017	10:43	-132.258	43.719	0	427.20	0	4.7920	0	34.0880	4	26.980	0	423.345	0	54.7	4	17.6	4	-1E+10	1	-1E+10	1	-1E+10	1	-1E+10	1	-1E+10	1	-1E+10	1
4901784	66	C	04/25/2017	10:43	-132.258	43.719	0	429.70	0	4.7810	0	34.0910	4	26.983	0	425.820	0	53.8	4	17.3	4	-1E+10	1	-1E+10	1	-1E+10	1	-1E+10	1	-1E+10	1	-1E+10	1
4901784	66	C	04/25/2017	10:43	-132.258	43.719	0	432.40	0	4.7680	0	34.0930	4	26.986	0	428.493	0	52.9	4	17.0	4	-1E+10	1	-1E+10	1	-1E+10	1	-1E+10	1	-1E+10	1	-1E+10	1
4901784	66	C	04/25/2017	10:43	-132.258	43.719	0	435.10	0	4.7540	0	34.0970	4	26.991	0	431.166	0	51.8	4	16.6	4	-1E+10	1	-1E+10	1	-1E+10	1	-1E+10	1	-1E+10	1	-1E+10	1
4901784	66	C	04/25/2017	10:43	-132.258	43.719	0	437.80	0	4.7430	0	34.0990	4	26.994	0	433.838	0	50.8	4	16.3	4	-1E+10	1	-1E+10	1	-1E+10	1	-1E+10	1	-1E+10	1	-1E+10	1
4901784	66	C	04/25/2017	10:43	-132.258	43.719	0	440.50	0	4.7340	0	34.1020	4	26.997	0	436.511	0	49.7	4	16.0	4	-1E+10	1	-1E+10	1	-1E+10	1	-1E+10	1	-1E+10	1	-1E+10	1
4901784	66	C	04/25/2017	10:43	-132.258	43.719	0	442.40	0	4.7290	0	34.1040	4	26.999	0	438.392	0	48.9	4	15.7	4	-1E+10	1	-1E+10	1	-1E+10	1	-1E+10	1	-1E+10	1	-1E+10	1
4901784	66	C	04/25/2017	10:43	-132.258	43.719	0	445.20	0	4.7220	0	34.1070	4	27.003	0	441.163	0	47.8	4	15.4	4	-1E+10	1	-1E+10	1	-1E+10	1	-1E+10	1	-1E+10	1	-1E+10	1
4901784	66	C	04/25/2017	10:43	-132.258	43.719	0	447.90	0	4.7110	0	34.1110	4	27.007	0	443.836	0	46.8	4	15.0	4	-1E+10	1	-1E+10	1	-1E+10	1	-1E+10	1	-1E+10	1	-1E+10	1
4901784	66	C	04/25/2017	10:43	-132.258	43.719	0	449.90	0	4.7020	0	34.1130	4	27.010	0	445.816	0	46.1	4	14.8	4	-1E+10	1	-1E+10	1	-1E+10	1	-1E+10	1	-1E+10	1	-1E+10	1
4901784	66	C	04/25/2017	10:43	-132.258	43.719	0	452.70	0	4.6860	0	34.1180	4	27.015	0	448.587	0	45.0	4	14.4	4	-1E+10	1	-1E+10	1	-1E+10	1	-1E+10	1	-1E+10	1	-1E+10	1
4901784	66	C	04/25/2017	10:43	-132.258	43.719	0	455.40	0	4.6710	0	34.1220	4	27.020	0	451.260	0	43.9	4	14.1	4	-1E+10	1	-1E+10	1	-1E+10	1	-1E+10	1	-1E+10	1	-1E+10	1
4901784	66	C	04/25/2017	10:43	-132.258	43.719	0	457.40	0	4.6610	0	34.1250	4	27.024	0	453.240	0	43.2	4	13.8	4	-1E+10	1	-1E+10	1	-1E+10	1	-1E+10	1	-1E+10	1	-1E+10	1
4901784	66	C	04/25/2017	10:43	-132.258	43.719	0	460.20	0	4.6550	0	34.1300	4	27.028	0	456.011	0	42.4	4	13.6	4	-1E+10	1	-1E+10	1	-1E+10	1	-1E+10	1	-1E+10	1	-1E+10	1
4901784	66	C	04/25/2017	10:43	-132.258	43.719	0	463.00	0	4.6500	0	34.1340	4	27.032	0	458.782	0	41.6	4	13.4	4	-1E+10	1	-1E+10	1	-1E+10	1	-1E+10	1	-1E+10	1	-1E+10	1
4901784	66	C	04/25/2017	10:43	-132.258	43.719	0	464.90	0	4.6470	0	34.1350	4	27.033	0	460.663	0	41.3	4	13.2	4	-1E+10	1	-1E+10	1	-1E+10	1	-1E+10	1	-1E+10	1	-1E+10	1
4901784	66	C	04/25/2017	10:43	-132.258	43.719	0	467.70	0	4.6360	0	34.1370	4	27.036	0	463.434	0	40.8	4	13.1	4	-1E+10	1	-1E+10	1	-1E+10	1	-1E+10	1	-1E+10	1	-1E+10	1
4901784	66	C	04/25/2017	10:43	-132.258	43.719	0	470.50	0	4.6260	0	34.1390	4	27.039	0	466.206	0	40.4	4	12.9	4	-1E+10	1	-1E+10	1	-1E+10	1	-1E+10	1	-1E+10	1	-1E+10	1
4901784	66	C	04/25/2017	10:43	-132.258	43.719	0	472.90	0	4.6190	0	34.1410	4	27.041	0	468.581	0	40.1	4	12.8	4	-1E+10	1	-1E+10	1	-1E+10	1	-1E+10	1	-1E+10	1	-1E+10	1
4901784	66	C	04/25/2017	10:43	-132.258	43.719	0	474.70	0	4.6060	0	34.1430	4	27.044	0	470.363	0	39.7	4	12.7	4	-1E+10	1	-1E+10	1	-1E+10	1	-1E+10	1	-1E+10	1	-1E+10	1
4901784	66	C	04/25/2017	10:43	-132.258	43.719	0	477.10	0	4.5610	0	34.1480	4	27.053	0	472.738	0	39.5	4	12.6	4	-1E+10	1	-1E+10	1	-1E+10	1	-1E+10	1	-1E+10	1	-1E+10	1
4901784	66	C	04/25/2017	10:43	-132.258	43.719	0	480.30	0	4.5330	0	34.1510	4	27.058	0	475.905	0	39.3	4	12.6	4	-1E+10	1	-1E+10	1	-1E+10	1	-1E+10	1	-1E+10	1	-1E+10	1
4901784	66	C	04/25/2017	10:43	-132.258	43.719	0	482.70	0	4.5290	0	34.1510	4	27.059	0	478.280	0	39.1	4	12.5	4	-1E+10	1	-1E+10	1	-1E+10	1	-1E+10	1	-1E+10	1	-1E+10	1
4901784	66	C	04/25/2017	10:43	-132.258	43.719	0	485.20	0	4.5250	0	34.1520	4	27.060	0	480.755	0	38.8	4	12.4	4	-1E+10	1	-1E+10	1	-1E+10	1	-1E+10	1	-1E+10	1	-1E+10	1
4901784	66	C	04/25/2017	10:43	-132.258	43.719	0	487.60	0	4.5210	0	34.1520	4	27.061	0	483.130	0	38.4	4	12.3	4	-1E+10	1	-1E+10	1	-1E+10	1	-1E+10	1	-1E+10	1	-1E+10	1
4901784	66	C	04/25/2017	10:43	-132.258	43.719	0	490.10	0	4.5140	0	34.1540	4	27.063	0	485.604	0	38.0	4	12.1	4	-1E+10	1	-1E+10	1	-1E+10	1	-1E+10	1	-1E+10	1	-1E+10	1
4901784	66	C	04/25/2017	10:43	-132.258	43.719	0	492.50	0	4.4980	0	34.1580	4	27.068	0	487.979	0	37.4	4	11.9	4	-1E+10	1	-1E+10	1	-1E+10	1	-1E+10	1	-1E+10	1	-1E+10	1
4901784	66	C	04/25/2017	10:43	-132.258	43.719	0	495.00	0	4.4950	0	34.1580	4	27.068	0	490.453	0	37.0	4	11.8	4	-1E+10	1	-1E+10	1	-1E+10	1	-1E+10	1	-1E+10	1	-1E+10	1
4901784	66	C	04/25/2017	10:43	-132.258	43.719	0	497.50	0	4.4750	0	34.1620	4	27.074	0	492.927	0	36.6	4	11.7	4	-1E+10	1	-1E+10	1	-1E+10	1	-1E+10	1	-1E+10	1	-1E+10	1
4901784	66	C	04/25/2017	10:43	-132.258	43.719	0	499.90	0	4.4590	0	34.1640	4	27.077	0	495.302	0	36.3	4	11.6	4	-1E+10	1	-1E+10	1	-1E+10	1	-1E+10	1	-1E+10	1	-1E+10	1
4901784	66	C	04/25/2017	10:43	-132.258	43.719	0	505.60	0	4.4480	0	34.1660	4	27.080	0	500.943	0	35.3	4	11.3	4	-1E+10	1	-1E+10	1	-1E+10	1	-1E+10	1	-1E+10	1	-1E+10	1
4901784	66	C	04/25/2017	10:43	-132.258	43.719	0	510.60	0	4.4350	0	34.1710	4	27.085	0	505.891	0	33.9	4	10.8	4	-1E+10	1	-1E+10	1	-1E+10	1	-1E+10	1	-1E+10	1	-1E+10	1
4901784	66	C	04/25/2017	10:43	-132.258	43.719	0	515.40	0	4.4220	0	34.1750	4	27.090	0	510.641	0	32.7	4	10.4	4	-1E+10	1	-1E+10	1	-1E+10	1	-1E+10	1	-1E+10	1	-1E+10	1
4901784	66	C	04/25/2017	10:43	-132.258	43.719	0	520.30	0	4.4030	0	34.1850	4	27.100	0	515.489	0	30.5	4	9.7	4	-1E+10	1	-1E+10	1	-1E+10	1	-1E+10	1	-1E+10	1	-1E+10	1
4901784	66	C	04/25/2017	10:43	-132.258	43.719	0	525.20	0	4.4050	0	34.1910	4	27.104	0	520.338	0	29.2	4	9.3	4	-1E+10	1	-1E+10	1	-1E+10	1	-1E+10	1	-1E+10	1	-1E+10	1
4901784	66	C	04/25/2017	10:43	-132.258	43.719	0	530.20	0	4.4050	0	34.1980	4	27.110	0	525.285	0	27.8	4	8.8	4	-1E+10	1	-1E+10	1	-1E+10	1	-1E+10	1	-1E+10	1	-1E+10	1
4901784	66	C	04/25/2017	10:43	-132.258	43.719	0	535.40	0	4.4020	0	34.2030	4	27.114	0	530.431	0	26.9	4	8.6	4	-1E+10	1	-1E+10	1	-1E+10	1	-1E+10	1	-1E+10	1	-1E+10	1
4901784	66	C	04/25/2017	10:43	-132.258	43.719	0	540.40	0	4.3970	0	34.2060	4	27.117	0	535.378	0	26.1	4	8.3	4	-1E+10	1	-1E+10	1	-1E+10	1	-1E+10	1	-1E+10	1	-1E+10	1
4901784	66	C	04/25/2017	10:43	-132.258	43.719	0	545.50	0	4.3830	0	34.2110	4	27.123	0	540.424	0	25.5	4	8.1	4	-1E+10	1	-1E+10	1	-1E+10	1	-1E+10	1	-1E+10	1	-1E+10	1
4901784	66	C	04/25/2017	10:43	-132.258	43.719	0	550.60	0	4.3700	0	34.2140	4	27.127	0	545.470	0	25.0	4	8.0	4	-1E+10	1	-1E+10	1	-1E+10	1	-1E+10	1	-1E+10	1	-1E+10	1
4901784	66	C	04/25/2017	10:43	-132.258	43.719	0	555.70	0	4.3480	0	34.2170	4	27.131	0	550.515	0	24.7	4	7.9	4	-1E+10	1	-1E+10	1	-1E+10	1	-1E+10	1	-1E+10	1	-1E+10	1
4901784	66	C	04/25/2017	10:43	-132.258	43.719	0	560.00	0	4.3320	0	34.2200	4	27.135	0	554.769	0	24.5	4	7.8	4	-1E+10	1	-1E+10	1	-1E+10	1	-1E+10	1	-1E+10	1	-1E+10	1
4901784	66	C	04/25/2017	10:43	-132.258	43.719	0	564.40	0	4.3240	0	34.2210	4	27.137	0	559.122	0	24.2	4	7.7	4	-1E+10	1	-1E+10	1	-1E+10	1	-1E+10	1	-1E+10	1	-1E+10	1
4901784	66	C	04/25/2017	10:43	-132.258	43.719	0	569.60	0	4.3110	0	34.2240	4	27.141	0	564.267	0	23.8	4	7.6	4	-1E+10	1	-1E+10	1	-1E+10	1	-1E+10	1	-1E+10	1	-1E+10	1
4901784	66	C	04/25/2017	10:43	-132.258	43.719	0	574.70	0	4.2970	0	34.2270	4	27.145	0	569.312	0	23.3	4	7.4	4	-1E+10	1	-1E+10	1	-1E+10	1	-1E+10	1	-1E+10	1	-1E+10	1
4901784	66	C	04/25/2017	10:43	-132.258	43.719	0	579.90	0	4.2840	0	34.2310	4	27.149	0	574.456	0	22.9	4	7.3	4	-1E+10	1	-1E+10	1	-1E+10	1	-1E+10	1	-1E+10	1	-1E+10	1
4901784	66	C	04/25/2017	10:43	-132.258	43.719	0	585.00	0	4.2790	0	34.2320	4	27.151	0	579.501	0	22.5	4	7.2	4	-1E+10	1	-1E+10	1	-1E+10	1	-1E+10	1	-1E+10	1	-1E+10	1
4901784	66	C	04/25/2017	10:43	-132.258	43.719	0	590.20	0	4.2640	0	34.2360	4	27.156	0	584.645	0	21.8	4	6.9	4	-1E+10	1	-1E+10	1	-1E+10	1	-1E+10	1	-1E+10	1	-1E+10	1
4901784	66	C	04/25/2017	10:43	-132.258	43.719	0	595.30	0	4.2520	0	34.2420	4	27.162	0	589.690	0	21.2	4	6.7	4	-1E+10	1	-1E+10	1	-1E+10	1	-1E+10	1	-1E+10	1	-1E+10	1
4901784	66	C	04/25/2017	10:43	-132.258	43.719	0	600.40	0	4.2380	0	34.2470	4	27.167	0	594.734	0	20.7	4	6.6	4	-1E+10	1	-1E+10	1	-1E+10	1	-1E+10	1	-1E+10	1	-1E+10	1
4901784	66	C	04/25/2017	10:43	-132.258	43.719	0	605.60	0	4.2290	0	34.2500	4	27.170	0	599.878	0	20.4	4	6.5	4	-1E+10	1	-1E+10	1	-1E+10	1	-1E+10	1	-1E+10	1	-1E+10	1
4901784	66	C	04/25/2017	10:43	-132.258	43.719	0	610.70	0	4.2180	0	34.2530	4	27.174	0	604.922	0	19.9	4	6.3	4	-1E+10	1	-1E+10	1	-1E+10	1	-1E+10	1	-1E+10	1	-1E+10	1
4901784	66	C	04/25/2017	10:43	-132.258	43.719	0	615.80	0	4.2030	0	34.2570	4	27.179	0	609.966	0	19.5	4	6.2	4	-1E+10	1	-1E+10	1	-1E+10	1	-1E+10	1	-1E+10	1	-1E+10	1
4901784	66	C	04/25/2017	10:43	-132.258	43.719	0	620.00	0	4.1900	0	34.2610	4	27.183	0	614.120	0	19.2	4	6.1	4	-1E+10	1	-1E+10	1	-1E+10	1	-1E+10	1	-1E+10	1	-1E+10	1
4901784	66	C	04/25/2017	10:43	-132.258	43.719	0	624.30	0	4.1810	0	34.2630	4	27.186	0	618.373	0	18.8	4	6.0	4	-1E+10	1	-1E+10	1	-1E+10	1	-1E+10	1	-1E+10	1	-1E+10	1
4901784	66	C	04/25/2017	10:43	-132.258	43.719	0	629.40	0	4.1640	0	34.2680	4	27.192	0	623.417	0	18.2	4	5.8	4	-1E+10	1	-1E+10	1	-1E+10	1	-1E+10	1	-1E+10	1	-1E+10	1
4901784	66	C	04/25/2017	10:43	-132.258	43.719	0	634.50	0	4.1550	0	34.2730	4	27.197	0	628.461	0	17.7	4	5.6	4	-1E+10	1	-1E+10	1	-1E+10	1	-1E+10	1	-1E+10	1	-1E+10	1
4901784	66	C	04/25/2017	10:43	-132.258	43.719	0	639.70	0	4.1460	0	34.2770	4	27.201	0	633.604	0	17.2	4	5.5	4	-1E+10	1	-1E+10	1	-1E+10	1	-1E+10	1	-1E+10	1	-1E+10	1
4901784	66	C	04/25/2017	10:43	-132.258	43.719	0	644.90	0	4.1270	0	34.2830	4	27.208	0	638.746	0	16.9	4	5.3	4	-1E+10	1	-1E+10	1	-1E+10	1	-1E+10	1	-1E+10	1	-1E+10	1
4901784	66	C	04/25/2017	10:43	-132.258	43.719	0	650.00	0	4.1150	0	34.2860	4	27.211	0	643.790	0	16.7	4	5.3	4	-1E+10	1	-1E+10	1	-1E+10	1	-1E+10	1	-1E+10	1	-1E+10	1
4901784	66	C	04/25/2017	10:43	-132.258	43.719	0	655.20	0	4.1080	0	34.2870	4	27.213	0	648.932	0	16.4	4	5.2	4	-1E+10	1	-1E+10	1	-1E+10	1	-1E+10	1	-1E+10	1	-1E+10	1
4901784	66	C	04/25/2017	10:43	-132.258	43.719	0	660.60	0	4.0890	0	34.2940	4	27.220	0	654.272	0	15.9	4	5.1	4	-1E+10	1	-1E+10	1	-1E+10	1	-1E+10	1	-1E+10	1	-1E+10	1
4901784	66	C	04/25/2017	10:43	-132.258	43.719	0	665.10	0	4.0770	0	34.2970	4	27.224	0	658.721	0	15.7	4	5.0	4	-1E+10	1	-1E+10	1	-1E+10	1	-1E+10	1	-1E+10	1	-1E+10	1
4901784	66	C	04/25/2017	10:43	-132.258	43.719	0	669.50	0	4.0650	0	34.3010	4	27.229	0	663.072	0	15.4	4	4.9	4	-1E+10	1	-1E+10	1	-1E+10	1	-1E+10	1	-1E+10	1	-1E+10	1
4901784	66	C	04/25/2017	10:43	-132.258	43.719	0	674.80	0	4.0540	0	34.3050	4	27.233	0	668.313	0	15.0	4	4.8	4	-1E+10	1	-1E+10	1	-1E+10	1	-1E+10	1	-1E+10	1	-1E+10	1
4901784	66	C	04/25/2017	10:43	-132.258	43.719	0	680.30	0	4.0430	0	34.3110	4	27.239	0	673.751	0	14.6	4	4.6	4	-1E+10	1	-1E+10	1	-1E+10	1	-1E+10	1	-1E+10	1	-1E+10	1
4901784	66	C	04/25/2017	10:43	-132.258	43.719	0	685.70	0	4.0240	0	34.3170	4	27.246	0	679.090	0	14.3	4	4.5	4	-1E+10	1	-1E+10	1	-1E+10	1	-1E+10	1	-1E+10	1	-1E+10	1
4901784	66	C	04/25/2017	10:43	-132.258	43.719	0	690.20	0	4.0090	0	34.3210	4	27.250	0	683.540	0	14.1	4	4.5	4	-1E+10	1	-1E+10	1	-1E+10	1	-1E+10	1	-1E+10	1	-1E+10	1
4901784	66	C	04/25/2017	10:43	-132.258	43.719	0	694.70	0	3.9910	0	34.3250	4	27.255	0	687.989	0	13.9	4	4.4	4	-1E+10	1	-1E+10	1	-1E+10	1	-1E+10	1	-1E+10	1	-1E+10	1
4901784	66	C	04/25/2017	10:43	-132.258	43.719	0	700.20	0	3.9740	0	34.3300	4	27.261	0	693.427	0	13.6	4	4.3	4	-1E+10	1	-1E+10	1	-1E+10	1	-1E+10	1	-1E+10	1	-1E+10	1
4901784	66	C	04/25/2017	10:43	-132.258	43.719	0	705.60	0	3.9560	0	34.3350	4	27.267	0	698.765	0	13.4	4	4.2	4	-1E+10	1	-1E+10	1	-1E+10	1	-1E+10	1	-1E+10	1	-1E+10	1
4901784	66	C	04/25/2017	10:43	-132.258	43.719	0	710.50	0	3.9390	0	34.3400	4	27.273	0	703.610	0	13.3	4	4.2	4	-1E+10	1	-1E+10	1	-1E+10	1	-1E+10	1	-1E+10	1	-1E+10	1
4901784	66	C	04/25/2017	10:43	-132.258	43.719	0	714.90	0	3.9290	0	34.3420	4	27.275	0	707.959	0	13.1	4	4.1	4	-1E+10	1	-1E+10	1	-1E+10	1	-1E+10	1	-1E+10	1	-1E+10	1
4901784	66	C	04/25/2017	10:43	-132.258	43.719	0	719.70	0	3.9070	0	34.3490	4	27.283	0	712.705	0	12.9	4	4.1	4	-1E+10	1	-1E+10	1	-1E+10	1	-1E+10	1	-1E+10	1	-1E+10	1
4901784	66	C	04/25/2017	10:43	-132.258	43.719	0	724.70	0	3.8960	0	34.3500	4	27.285	0	717.647	0	12.9	4	4.1	4	-1E+10	1	-1E+10	1	-1E+10	1	-1E+10	1	-1E+10	1	-1E+10	1
4901784	66	C	04/25/2017	10:43	-132.258	43.719	0	729.50	0	3.8790	0	34.3540	4	27.290	0	722.392	0	12.8	4	4.0	4	-1E+10	1	-1E+10	1	-1E+10	1	-1E+10	1	-1E+10	1	-1E+10	1
4901784	66	C	04/25/2017	10:43	-132.258	43.719	0	734.40	0	3.8660	0	34.3570	4	27.294	0	727.236	0	12.6	4	4.0	4	-1E+10	1	-1E+10	1	-1E+10	1	-1E+10	1	-1E+10	1	-1E+10	1
4901784	66	C	04/25/2017	10:43	-132.258	43.719	0	739.40	0	3.8500	0	34.3620	4	27.299	0	732.179	0	12.5	4	3.9	4	-1E+10	1	-1E+10	1	-1E+10	1	-1E+10	1	-1E+10	1	-1E+10	1
4901784	66	C	04/25/2017	10:43	-132.258	43.719	0	744.50	0	3.8360	0	34.3660	4	27.304	0	737.220	0	12.3	4	3.9	4	-1E+10	1	-1E+10	1	-1E+10	1	-1E+10	1	-1E+10	1	-1E+10	1
4901784	66	C	04/25/2017	10:43	-132.258	43.719	0	749.70	0	3.8190	0	34.3700	4	27.309	0	742.360	0	12.2	4	3.8	4	-1E+10	1	-1E+10	1	-1E+10	1	-1E+10	1	-1E+10	1	-1E+10	1
4901784	66	C	04/25/2017	10:43	-132.258	43.719	0	755.00	0	3.8150	0	34.3710	4	27.310	0	747.598	0	12.1	4	3.8	4	-1E+10	1	-1E+10	1	-1E+10	1	-1E+10	1	-1E+10	1	-1E+10	1
4901784	66	C	04/25/2017	10:43	-132.258	43.719	0	760.20	0	3.7960	0	34.3760	4	27.316	0	752.738	0	11.9	4	3.8	4	-1E+10	1	-1E+10	1	-1E+10	1	-1E+10	1	-1E+10	1	-1E+10	1
4901784	66	C	04/25/2017	10:43	-132.258	43.719	0	765.30	0	3.7610	0	34.3850	4	27.327	0	757.779	0	11.8	4	3.7	4	-1E+10	1	-1E+10	1	-1E+10	1	-1E+10	1	-1E+10	1	-1E+10	1
4901784	66	C	04/25/2017	10:43	-132.258	43.719	0	770.50	0	3.7500	0	34.3890	4	27.331	0	762.918	0	11.8	4	3.7	4	-1E+10	1	-1E+10	1	-1E+10	1	-1E+10	1	-1E+10	1	-1E+10	1
4901784	66	C	04/25/2017	10:43	-132.258	43.719	0	775.00	0	3.7490	0	34.3890	4	27.331	0	767.365	0	11.7	4	3.7	4	-1E+10	1	-1E+10	1	-1E+10	1	-1E+10	1	-1E+10	1	-1E+10	1
4901784	66	C	04/25/2017	10:43	-132.258	43.719	0	779.40	0	3.7390	0	34.3920	4	27.335	0	771.714	0	11.6	4	3.7	4	-1E+10	1	-1E+10	1	-1E+10	1	-1E+10	1	-1E+10	1	-1E+10	1
4901784	66	C	04/25/2017	10:43	-132.258	43.719	0	784.70	0	3.7240	0	34.3960	4	27.339	0	776.952	0	11.6	4	3.6	4	-1E+10	1	-1E+10	1	-1E+10	1	-1E+10	1	-1E+10	1	-1E+10	1
4901784	66	C	04/25/2017	10:43	-132.258	43.719	0	790.00	0	3.7150	0	34.3990	4	27.343	0	782.190	0	11.5	4	3.6	4	-1E+10	1	-1E+10	1	-1E+10	1	-1E+10	1	-1E+10	1	-1E+10	1
4901784	66	C	04/25/2017	10:43	-132.258	43.719	0	795.40	0	3.7050	0	34.4010	4	27.345	0	787.526	0	11.5	4	3.6	4	-1E+10	1	-1E+10	1	-1E+10	1	-1E+10	1	-1E+10	1	-1E+10	1
4901784	66	C	04/25/2017	10:43	-132.258	43.719	0	799.90	0	3.6960	0	34.4040	4	27.349	0	791.973	0	11.5	4	3.6	4	-1E+10	1	-1E+10	1	-1E+10	1	-1E+10	1	-1E+10	1	-1E+10	1
4901784	66	C	04/25/2017	10:43	-132.258	43.719	0	804.40	0	3.6880	0	34.4060	4	27.351	0	796.420	0	11.4	4	3.6	4	-1E+10	1	-1E+10	1	-1E+10	1	-1E+10	1	-1E+10	1	-1E+10	1
4901784	66	C	04/25/2017	10:43	-132.258	43.719	0	810.00	0	3.6870	0	34.4060	4	27.351	0	801.953	0	11.4	4	3.6	4	-1E+10	1	-1E+10	1	-1E+10	1	-1E+10	1	-1E+10	1	-1E+10	1
4901784	66	C	04/25/2017	10:43	-132.258	43.719	0	815.50	0	3.6850	0	34.4060	4	27.351	0	807.388	0	11.4	4	3.6	4	-1E+10	1	-1E+10	1	-1E+10	1	-1E+10	1	-1E+10	1	-1E+10	1
4901784	66	C	04/25/2017	10:43	-132.258	43.719	0	820.20	0	3.6760	0	34.4090	4	27.355	0	812.032	0	11.4	4	3.6	4	-1E+10	1	-1E+10	1	-1E+10	1	-1E+10	1	-1E+10	1	-1E+10	1
4901784	66	C	04/25/2017	10:43	-132.258	43.719	0	824.90	0	3.6660	0	34.4120	4	27.358	0	816.676	0	11.4	4	3.6	4	-1E+10	1	-1E+10	1	-1E+10	1	-1E+10	1	-1E+10	1	-1E+10	1
4901784	66	C	04/25/2017	10:43	-132.258	43.719	0	829.80	0	3.6600	0	34.4130	4	27.360	0	821.518	0	11.3	4	3.6	4	-1E+10	1	-1E+10	1	-1E+10	1	-1E+10	1	-1E+10	1	-1E+10	1
4901784	66	C	04/25/2017	10:43	-132.258	43.719	0	834.60	0	3.6450	0	34.4160	4	27.364	0	826.260	0	11.3	4	3.6	4	-1E+10	1	-1E+10	1	-1E+10	1	-1E+10	1	-1E+10	1	-1E+10	1
4901784	66	C	04/25/2017	10:43	-132.258	43.719	0	840.30	0	3.6310	0	34.4200	4	27.368	0	831.892	0	11.3	4	3.5	4	-1E+10	1	-1E+10	1	-1E+10	1	-1E+10	1	-1E+10	1	-1E+10	1
4901784	66	C	04/25/2017	10:43	-132.258	43.719	0	845.10	0	3.6220	0	34.4220	4	27.371	0	836.635	0	11.3	4	3.5	4	-1E+10	1	-1E+10	1	-1E+10	1	-1E+10	1	-1E+10	1	-1E+10	1
4901784	66	C	04/25/2017	10:43	-132.258	43.719	0	849.90	0	3.6040	0	34.4260	4	27.376	0	841.377	0	11.3	4	3.6	4	-1E+10	1	-1E+10	1	-1E+10	1	-1E+10	1	-1E+10	1	-1E+10	1
4901784	66	C	04/25/2017	10:43	-132.258	43.719	0	854.70	0	3.5780	0	34.4350	4	27.385	0	846.119	0	11.4	4	3.6	4	-1E+10	1	-1E+10	1	-1E+10	1	-1E+10	1	-1E+10	1	-1E+10	1
4901784	66	C	04/25/2017	10:43	-132.258	43.719	0	859.80	0	3.5690	0	34.4360	4	27.387	0	851.157	0	11.4	4	3.6	4	-1E+10	1	-1E+10	1	-1E+10	1	-1E+10	1	-1E+10	1	-1E+10	1
4901784	66	C	04/25/2017	10:43	-132.258	43.719	0	865.00	0	3.5500	0	34.4410	4	27.393	0	856.294	0	11.4	4	3.6	4	-1E+10	1	-1E+10	1	-1E+10	1	-1E+10	1	-1E+10	1	-1E+10	1
4901784	66	C	04/25/2017	10:43	-132.258	43.719	0	869.80	0	3.5400	0	34.4430	4	27.395	0	861.036	0	11.4	4	3.6	4	-1E+10	1	-1E+10	1	-1E+10	1	-1E+10	1	-1E+10	1	-1E+10	1
4901784	66	C	04/25/2017	10:43	-132.258	43.719	0	874.70	0	3.5330	0	34.4450	4	27.398	0	865.877	0	11.5	4	3.6	4	-1E+10	1	-1E+10	1	-1E+10	1	-1E+10	1	-1E+10	1	-1E+10	1
4901784	66	C	04/25/2017	10:43	-132.258	43.719	0	879.50	0	3.5220	0	34.4480	4	27.401	0	870.618	0	11.5	4	3.6	4	-1E+10	1	-1E+10	1	-1E+10	1	-1E+10	1	-1E+10	1	-1E+10	1
4901784	66	C	04/25/2017	10:43	-132.258	43.719	0	884.40	0	3.5120	0	34.4510	4	27.405	0	875.459	0	11.6	4	3.6	4	-1E+10	1	-1E+10	1	-1E+10	1	-1E+10	1	-1E+10	1	-1E+10	1
4901784	66	C	04/25/2017	10:43	-132.258	43.719	0	889.40	0	3.5050	0	34.4530	4	27.407	0	880.398	0	11.6	4	3.6	4	-1E+10	1	-1E+10	1	-1E+10	1	-1E+10	1	-1E+10	1	-1E+10	1
4901784	66	C	04/25/2017	10:43	-132.258	43.719	0	894.40	0	3.5020	0	34.4540	4	27.408	0	885.336	0	11.7	4	3.6	4	-1E+10	1	-1E+10	1	-1E+10	1	-1E+10	1	-1E+10	1	-1E+10	1
4901784	66	C	04/25/2017	10:43	-132.258	43.719	0	899.40	0	3.4970	0	34.4560	4	27.410	0	890.275	0	11.7	4	3.7	4	-1E+10	1	-1E+10	1	-1E+10	1	-1E+10	1	-1E+10	1	-1E+10	1
4901784	66	C	04/25/2017	10:43	-132.258	43.719	0	904.40	0	3.4900	0	34.4570	4	27.412	0	895.214	0	11.8	4	3.7	4	-1E+10	1	-1E+10	1	-1E+10	1	-1E+10	1	-1E+10	1	-1E+10	1
4901784	66	C	04/25/2017	10:43	-132.258	43.719	0	909.60	0	3.4830	0	34.4600	4	27.415	0	900.350	0	11.9	4	3.7	4	-1E+10	1	-1E+10	1	-1E+10	1	-1E+10	1	-1E+10	1	-1E+10	1
4901784	66	C	04/25/2017	10:43	-132.258	43.719	0	914.80	0	3.4690	0	34.4630	4	27.419	0	905.486	0	12.0	4	3.7	4	-1E+10	1	-1E+10	1	-1E+10	1	-1E+10	1	-1E+10	1	-1E+10	1
4901784	66	C	04/25/2017	10:43	-132.258	43.719	0	920.00	0	3.4520	0	34.4680	4	27.424	0	910.621	0	12.1	4	3.8	4	-1E+10	1	-1E+10	1	-1E+10	1	-1E+10	1	-1E+10	1	-1E+10	1
4901784	66	C	04/25/2017	10:43	-132.258	43.719	0	925.20	0	3.4390	0	34.4720	4	27.429	0	915.757	0	12.2	4	3.8	4	-1E+10	1	-1E+10	1	-1E+10	1	-1E+10	1	-1E+10	1	-1E+10	1
4901784	66	C	04/25/2017	10:43	-132.258	43.719	0	930.30	0	3.4300	0	34.4740	4	27.431	0	920.794	0	12.3	4	3.8	4	-1E+10	1	-1E+10	1	-1E+10	1	-1E+10	1	-1E+10	1	-1E+10	1
4901784	66	C	04/25/2017	10:43	-132.258	43.719	0	935.40	0	3.4210	0	34.4770	4	27.434	0	925.830	0	12.4	4	3.9	4	-1E+10	1	-1E+10	1	-1E+10	1	-1E+10	1	-1E+10	1	-1E+10	1
4901784	66	C	04/25/2017	10:43	-132.258	43.719	0	940.60	0	3.4160	0	34.4790	4	27.437	0	930.965	0	12.5	4	3.9	4	-1E+10	1	-1E+10	1	-1E+10	1	-1E+10	1	-1E+10	1	-1E+10	1
4901784	66	C	04/25/2017	10:43	-132.258	43.719	0	945.70	0	3.4130	0	34.4790	4	27.437	0	936.002	0	12.6	4	3.9	4	-1E+10	1	-1E+10	1	-1E+10	1	-1E+10	1	-1E+10	1	-1E+10	1
4901784	66	C	04/25/2017	10:43	-132.258	43.719	0	950.00	0	3.4030	0	34.4830	4	27.441	0	940.248	0	12.8	4	4.0	4	-1E+10	1	-1E+10	1	-1E+10	1	-1E+10	1	-1E+10	1	-1E+10	1
4901784	66	C	04/25/2017	10:43	-132.258	43.719	0	954.20	0	3.3910	0	34.4870	4	27.445	0	944.396	0	12.9	4	4.0	4	-1E+10	1	-1E+10	1	-1E+10	1	-1E+10	1	-1E+10	1	-1E+10	1
4901784	66	C	04/25/2017	10:43	-132.258	43.719	0	959.40	0	3.3850	0	34.4890	4	27.448	0	949.530	0	13.1	4	4.1	4	-1E+10	1	-1E+10	1	-1E+10	1	-1E+10	1	-1E+10	1	-1E+10	1
4901784	66	C	04/25/2017	10:43	-132.258	43.719	0	964.60	0	3.3770	0	34.4920	4	27.451	0	954.665	0	13.3	4	4.1	4	-1E+10	1	-1E+10	1	-1E+10	1	-1E+10	1	-1E+10	1	-1E+10	1
4901784	66	C	04/25/2017	10:43	-132.258	43.719	0	969.80	0	3.3670	0	34.4950	4	27.454	0	959.800	0	13.5	4	4.2	4	-1E+10	1	-1E+10	1	-1E+10	1	-1E+10	1	-1E+10	1	-1E+10	1
4901784	66	C	04/25/2017	10:43	-132.258	43.719	0	975.20	0	3.3580	0	34.4980	4	27.457	0	965.131	0	13.6	4	4.2	4	-1E+10	1	-1E+10	1	-1E+10	1	-1E+10	1	-1E+10	1	-1E+10	1
4901784	66	C	04/25/2017	10:43	-132.258	43.719	0	980.50	0	3.3540	0	34.5000	4	27.459	0	970.364	0	13.8	4	4.3	4	-1E+10	1	-1E+10	1	-1E+10	1	-1E+10	1	-1E+10	1	-1E+10	1
4901784	66	C	04/25/2017	10:43	-132.258	43.719	0	985.10	0	3.3510	0	34.5010	4	27.461	0	974.906	0	14.1	4	4.4	4	-1E+10	1	-1E+10	1	-1E+10	1	-1E+10	1	-1E+10	1	-1E+10	1
4901784	66	C	04/25/2017	10:43	-132.258	43.719	0	989.60	0	3.3450	0	34.5050	4	27.464	0	979.349	0	14.4	4	4.5	4	-1E+10	1	-1E+10	1	-1E+10	1	-1E+10	1	-1E+10	1	-1E+10	1
4901784	66	C	04/25/2017	10:43	-132.258	43.719	0	994.90	0	3.3400	0	34.5100	4	27.469	0	984.582	0	14.7	4	4.6	4	-1E+10	1	-1E+10	1	-1E+10	1	-1E+10	1	-1E+10	1	-1E+10	1
4901784	66	C	04/25/2017	10:43	-132.258	43.719	0	1000.10	0	3.3390	0	34.5110	4	27.470	0	989.716	0	14.9	4	4.6	4	-1E+10	1	-1E+10	1	-1E+10	1	-1E+10	1	-1E+10	1	-1E+10	1
4901784	66	C	04/25/2017	10:43	-132.258	43.719	0	1005.50	0	3.3380	0	34.5130	4	27.472	0	995.047	0	15.1	4	4.7	4	-1E+10	1	-1E+10	1	-1E+10	1	-1E+10	1	-1E+10	1	-1E+10	1
4901784	66	C	04/25/2017	10:43	-132.258	43.719	0	1010.00	0	3.3370	0	34.5140	4	27.472	0	999.489	0	15.2	4	4.7	4	-1E+10	1	-1E+10	1	-1E+10	1	-1E+10	1	-1E+10	1	-1E+10	1
4901784	66	C	04/25/2017	10:43	-132.258	43.719	0	1014.60	0	3.3330	0	34.5160	4	27.474	0	1004.030	0	15.5	4	4.8	4	-1E+10	1	-1E+10	1	-1E+10	1	-1E+10	1	-1E+10	1	-1E+10	1
4901784	66	C	04/25/2017	10:43	-132.258	43.719	0	1020.10	0	3.3290	0	34.5180	4	27.476	0	1009.460	0	15.7	4	4.9	4	-1E+10	1	-1E+10	1	-1E+10	1	-1E+10	1	-1E+10	1	-1E+10	1
4901784	66	C	04/25/2017	10:43	-132.258	43.719	0	1025.60	0	3.3260	0	34.5210	4	27.479	0	1014.889	0	16.0	4	5.0	4	-1E+10	1	-1E+10	1	-1E+10	1	-1E+10	1	-1E+10	1	-1E+10	1
4901784	66	C	04/25/2017	10:43	-132.258	43.719	0	1030.20	0	3.3240	0	34.5230	4	27.481	0	1019.430	0	16.2	4	5.0	4	-1E+10	1	-1E+10	1	-1E+10	1	-1E+10	1	-1E+10	1	-1E+10	1
4901784	66	C	04/25/2017	10:43	-132.258	43.719	0	1035.40	0	3.3210	0	34.5240	4	27.482	0	1024.563	0	16.4	4	5.1	4	-1E+10	1	-1E+10	1	-1E+10	1	-1E+10	1	-1E+10	1	-1E+10	1
4901784	66	C	04/25/2017	10:43	-132.258	43.719	0	1040.50	0	3.3190	0	34.5260	4	27.484	0	1029.597	0	16.8	4	5.2	4	-1E+10	1	-1E+10	1	-1E+10	1	-1E+10	1	-1E+10	1	-1E+10	1
4901784	66	C	04/25/2017	10:43	-132.258	43.719	0	1045.30	0	3.3180	0	34.5300	4	27.487	0	1034.335	0	17.1	4	5.3	4	-1E+10	1	-1E+10	1	-1E+10	1	-1E+10	1	-1E+10	1	-1E+10	1
4901784	66	C	04/25/2017	10:43	-132.258	43.719	0	1050.00	0	3.3200	0	34.5310	4	27.488	0	1038.974	0	17.4	4	5.4	4	-1E+10	1	-1E+10	1	-1E+10	1	-1E+10	1	-1E+10	1	-1E+10	1
4901784	66	C	04/25/2017	10:43	-132.258	43.719	0	1054.90	0	3.3200	0	34.5330	4	27.490	0	1043.810	0	17.7	4	5.5	4	-1E+10	1	-1E+10	1	-1E+10	1	-1E+10	1	-1E+10	1	-1E+10	1
4901784	66	C	04/25/2017	10:43	-132.258	43.719	0	1059.70	0	3.3170	0	34.5360	4	27.492	0	1048.548	0	18.1	4	5.6	4	-1E+10	1	-1E+10	1	-1E+10	1	-1E+10	1	-1E+10	1	-1E+10	1
4901784	66	C	04/25/2017	10:43	-132.258	43.719	0	1064.60	0	3.3180	0	34.5380	4	27.494	0	1053.384	0	18.3	4	5.7	4	-1E+10	1	-1E+10	1	-1E+10	1	-1E+10	1	-1E+10	1	-1E+10	1
4901784	66	C	04/25/2017	10:43	-132.258	43.719	0	1069.40	0	3.3110	0	34.5410	4	27.497	0	1058.121	0	18.6	4	5.8	4	-1E+10	1	-1E+10	1	-1E+10	1	-1E+10	1	-1E+10	1	-1E+10	1
4901784	66	C	04/25/2017	10:43	-132.258	43.719	0	1074.20	0	3.3080	0	34.5430	4	27.499	0	1062.858	0	19.0	4	5.9	4	-1E+10	1	-1E+10	1	-1E+10	1	-1E+10	1	-1E+10	1	-1E+10	1
4901784	66	C	04/25/2017	10:43	-132.258	43.719	0	1079.30	0	3.3050	0	34.5450	4	27.501	0	1067.892	0	19.4	4	6.0	4	-1E+10	1	-1E+10	1	-1E+10	1	-1E+10	1	-1E+10	1	-1E+10	1
4901784	66	C	04/25/2017	10:43	-132.258	43.719	0	1084.60	0	3.3010	0	34.5490	4	27.504	0	1073.122	0	19.8	4	6.2	4	-1E+10	1	-1E+10	1	-1E+10	1	-1E+10	1	-1E+10	1	-1E+10	1
4901784	66	C	04/25/2017	10:43	-132.258	43.719	0	1089.90	0	3.2990	0	34.5520	4	27.507	0	1078.352	0	20.1	4	6.3	4	-1E+10	1	-1E+10	1	-1E+10	1	-1E+10	1	-1E+10	1	-1E+10	1
4901784	66	C	04/25/2017	10:43	-132.258	43.719	0	1095.60	0	3.2960	0	34.5540	4	27.509	0	1083.977	0	20.3	4	6.3	4	-1E+10	1	-1E+10	1	-1E+10	1	-1E+10	1	-1E+10	1	-1E+10	1
4901784	66	C	04/25/2017	10:43	-132.258	43.719	0	1100.20	0	3.2990	0	34.5550	4	27.509	0	1088.516	0	20.5	4	6.4	4	-1E+10	1	-1E+10	1	-1E+10	1	-1E+10	1	-1E+10	1	-1E+10	1
4901784	66	C	04/25/2017	10:43	-132.258	43.719	0	1105.00	0	3.2930	0	34.5560	4	27.511	0	1093.253	0	20.6	4	6.4	4	-1E+10	1	-1E+10	1	-1E+10	1	-1E+10	1	-1E+10	1	-1E+10	1
4901784	66	C	04/25/2017	10:43	-132.258	43.719	0	1110.60	0	3.2920	0	34.5560	4	27.511	0	1098.779	0	20.8	4	6.5	4	-1E+10	1	-1E+10	1	-1E+10	1	-1E+10	1	-1E+10	1	-1E+10	1
4901784	66	C	04/25/2017	10:43	-132.258	43.719	0	1115.30	0	3.2880	0	34.5580	4	27.513	0	1103.417	0	21.2	4	6.6	4	-1E+10	1	-1E+10	1	-1E+10	1	-1E+10	1	-1E+10	1	-1E+10	1
4901784	66	C	04/25/2017	10:43	-132.258	43.719	0	1119.90	0	3.2970	0	34.5630	4	27.516	0	1107.955	0	21.8	4	6.8	4	-1E+10	1	-1E+10	1	-1E+10	1	-1E+10	1	-1E+10	1	-1E+10	1
4901784	66	C	04/25/2017	10:43	-132.258	43.719	0	1125.50	0	3.3010	0	34.5660	4	27.518	0	1113.481	0	22.2	4	6.9	4	-1E+10	1	-1E+10	1	-1E+10	1	-1E+10	1	-1E+10	1	-1E+10	1
4901784	66	C	04/25/2017	10:43	-132.258	43.719	0	1130.10	0	3.3020	0	34.5670	4	27.519	0	1118.019	0	22.3	4	6.9	4	-1E+10	1	-1E+10	1	-1E+10	1	-1E+10	1	-1E+10	1	-1E+10	1
4901784	66	C	04/25/2017	10:43	-132.258	43.719	0	1134.70	0	3.3020	0	34.5680	4	27.520	0	1122.558	0	22.3	4	6.9	4	-1E+10	1	-1E+10	1	-1E+10	1	-1E+10	1	-1E+10	1	-1E+10	1
4901784	66	C	04/25/2017	10:43	-132.258	43.719	0	1140.40	0	3.3020	0	34.5680	4	27.520	0	1128.182	0	22.4	4	7.0	4	-1E+10	1	-1E+10	1	-1E+10	1	-1E+10	1	-1E+10	1	-1E+10	1
4901784	66	C	04/25/2017	10:43	-132.258	43.719	0	1145.20	0	3.3010	0	34.5680	4	27.520	0	1132.917	0	22.5	4	7.0	4	-1E+10	1	-1E+10	1	-1E+10	1	-1E+10	1	-1E+10	1	-1E+10	1
4901784	66	C	04/25/2017	10:43	-132.258	43.719	0	1150.00	0	3.2990	0	34.5690	4	27.521	0	1137.653	0	22.6	4	7.0	4	-1E+10	1	-1E+10	1	-1E+10	1	-1E+10	1	-1E+10	1	-1E+10	1
4901784	66	C	04/25/2017	10:43	-132.258	43.719	0	1154.80	0	3.2990	0	34.5700	4	27.522	0	1142.388	0	22.8	4	7.1	4	-1E+10	1	-1E+10	1	-1E+10	1	-1E+10	1	-1E+10	1	-1E+10	1
4901784	66	C	04/25/2017	10:43	-132.258	43.719	0	1159.70	0	3.2970	0	34.5710	4	27.523	0	1147.222	0	23.0	4	7.2	4	-1E+10	1	-1E+10	1	-1E+10	1	-1E+10	1	-1E+10	1	-1E+10	1
4901784	66	C	04/25/2017	10:43	-132.258	43.719	0	1165.50	0	3.2910	0	34.5740	4	27.526	0	1152.944	0	23.5	4	7.3	4	-1E+10	1	-1E+10	1	-1E+10	1	-1E+10	1	-1E+10	1	-1E+10	1
4901784	66	C	04/25/2017	10:43	-132.258	43.719	0	1170.30	0	3.2920	0	34.5770	4	27.528	0	1157.679	0	23.8	4	7.4	4	-1E+10	1	-1E+10	1	-1E+10	1	-1E+10	1	-1E+10	1	-1E+10	1
4901784	66	C	04/25/2017	10:43	-132.258	43.719	0	1175.20	0	3.2910	0	34.5780	4	27.529	0	1162.513	0	23.9	4	7.4	4	-1E+10	1	-1E+10	1	-1E+10	1	-1E+10	1	-1E+10	1	-1E+10	1
4901784	66	C	04/25/2017	10:43	-132.258	43.719	0	1180.10	0	3.2870	0	34.5790	4	27.530	0	1167.346	0	24.1	4	7.5	4	-1E+10	1	-1E+10	1	-1E+10	1	-1E+10	1	-1E+10	1	-1E+10	1
4901784	66	C	04/25/2017	10:43	-132.258	43.719	0	1184.90	0	3.2870	0	34.5800	4	27.531	0	1172.081	0	24.2	4	7.5	4	-1E+10	1	-1E+10	1	-1E+10	1	-1E+10	1	-1E+10	1	-1E+10	1
4901784	66	C	04/25/2017	10:43	-132.258	43.719	0	1189.80	0	3.2870	0	34.5800	4	27.531	0	1176.914	0	24.3	4	7.6	4	-1E+10	1	-1E+10	1	-1E+10	1	-1E+10	1	-1E+10	1	-1E+10	1
4901784	66	C	04/25/2017	10:43	-132.258	43.719	0	1194.80	0	3.2870	0	34.5800	4	27.531	0	1181.846	0	24.4	4	7.6	4	-1E+10	1	-1E+10	1	-1E+10	1	-1E+10	1	-1E+10	1	-1E+10	1
4901784	66	C	04/25/2017	10:43	-132.258	43.719	0	1199.80	0	3.2820	0	34.5810	4	27.533	0	1186.778	0	24.6	4	7.6	4	-1E+10	1	-1E+10	1	-1E+10	1	-1E+10	1	-1E+10	1	-1E+10	1
4901784	66	C	04/25/2017	10:43	-132.258	43.719	0	1204.80	0	3.2650	0	34.5840	4	27.537	0	1191.709	0	24.7	4	7.7	4	-1E+10	1	-1E+10	1	-1E+10	1	-1E+10	1	-1E+10	1	-1E+10	1
4901784	66	C	04/25/2017	10:43	-132.258	43.719	0	1209.70	0	3.2640	0	34.5840	4	27.537	0	1196.542	0	24.7	4	7.7	4	-1E+10	1	-1E+10	1	-1E+10	1	-1E+10	1	-1E+10	1	-1E+10	1
4901784	66	C	04/25/2017	10:43	-132.258	43.719	0	1214.60	0	3.2530	0	34.5850	4	27.539	0	1201.375	0	24.9	4	7.8	4	-1E+10	1	-1E+10	1	-1E+10	1	-1E+10	1	-1E+10	1	-1E+10	1
4901784	66	C	04/25/2017	10:43	-132.258	43.719	0	1219.70	0	3.2520	0	34.5870	4	27.540	0	1206.405	0	25.1	4	7.8	4	-1E+10	1	-1E+10	1	-1E+10	1	-1E+10	1	-1E+10	1	-1E+10	1
4901784	66	C	04/25/2017	10:43	-132.258	43.719	0	1224.50	0	3.2460	0	34.5870	4	27.541	0	1211.138	0	25.1	4	7.8	4	-1E+10	1	-1E+10	1	-1E+10	1	-1E+10	1	-1E+10	1	-1E+10	1
4901784	66	C	04/25/2017	10:43	-132.258	43.719	0	1230.00	0	3.2440	0	34.5880	4	27.542	0	1216.563	0	25.1	4	7.8	4	-1E+10	1	-1E+10	1	-1E+10	1	-1E+10	1	-1E+10	1	-1E+10	1
4901784	66	C	04/25/2017	10:43	-132.258	43.719	0	1234.70	0	3.2400	0	34.5870	4	27.541	0	1221.197	0	25.0	4	7.8	4	-1E+10	1	-1E+10	1	-1E+10	1	-1E+10	1	-1E+10	1	-1E+10	1
4901784	66	C	04/25/2017	10:43	-132.258	43.719	0	1239.40	0	3.2260	0	34.5870	4	27.543	0	1225.832	0	25.0	4	7.8	4	-1E+10	1	-1E+10	1	-1E+10	1	-1E+10	1	-1E+10	1	-1E+10	1
4901784	66	C	04/25/2017	10:43	-132.258	43.719	0	1244.90	0	3.2270	0	34.5880	4	27.544	0	1231.256	0	25.2	4	7.8	4	-1E+10	1	-1E+10	1	-1E+10	1	-1E+10	1	-1E+10	1	-1E+10	1
4901784	66	C	04/25/2017	10:43	-132.258	43.719	0	1250.50	0	3.2190	0	34.5890	4	27.545	0	1236.778	0	25.4	4	7.9	4	-1E+10	1	-1E+10	1	-1E+10	1	-1E+10	1	-1E+10	1	-1E+10	1
4901784	66	C	04/25/2017	10:43	-132.258	43.719	0	1255.20	0	3.2180	0	34.5900	4	27.546	0	1241.413	0	25.6	4	7.9	4	-1E+10	1	-1E+10	1	-1E+10	1	-1E+10	1	-1E+10	1	-1E+10	1
4901784	66	C	04/25/2017	10:43	-132.258	43.719	0	1259.80	0	3.2190	0	34.5910	4	27.547	0	1245.949	0	25.6	4	8.0	4	-1E+10	1	-1E+10	1	-1E+10	1	-1E+10	1	-1E+10	1	-1E+10	1
4901784	66	C	04/25/2017	10:43	-132.258	43.719	0	1265.40	0	3.2050	0	34.5910	4	27.548	0	1251.471	0	25.6	4	7.9	4	-1E+10	1	-1E+10	1	-1E+10	1	-1E+10	1	-1E+10	1	-1E+10	1
4901784	66	C	04/25/2017	10:43	-132.258	43.719	0	1270.30	0	3.1990	0	34.5910	4	27.549	0	1256.302	0	25.5	4	7.9	4	-1E+10	1	-1E+10	1	-1E+10	1	-1E+10	1	-1E+10	1	-1E+10	1
4901784	66	C	04/25/2017	10:43	-132.258	43.719	0	1274.90	0	3.1790	0	34.5910	4	27.551	0	1260.838	0	25.5	4	7.9	4	-1E+10	1	-1E+10	1	-1E+10	1	-1E+10	1	-1E+10	1	-1E+10	1
4901784	66	C	04/25/2017	10:43	-132.258	43.719	0	1279.80	0	3.1800	0	34.5920	4	27.551	0	1265.669	0	25.8	4	8.0	4	-1E+10	1	-1E+10	1	-1E+10	1	-1E+10	1	-1E+10	1	-1E+10	1
4901784	66	C	04/25/2017	10:43	-132.258	43.719	0	1284.80	0	3.1670	0	34.5930	4	27.553	0	1270.599	0	25.9	4	8.1	4	-1E+10	1	-1E+10	1	-1E+10	1	-1E+10	1	-1E+10	1	-1E+10	1
4901784	66	C	04/25/2017	10:43	-132.258	43.719	0	1289.80	0	3.1650	0	34.5940	4	27.554	0	1275.528	0	26.2	4	8.1	4	-1E+10	1	-1E+10	1	-1E+10	1	-1E+10	1	-1E+10	1	-1E+10	1
4901784	66	C	04/25/2017	10:43	-132.258	43.719	0	1294.70	0	3.1630	0	34.5960	4	27.556	0	1280.359	0	26.2	4	8.1	4	-1E+10	1	-1E+10	1	-1E+10	1	-1E+10	1	-1E+10	1	-1E+10	1
4901784	66	C	04/25/2017	10:43	-132.258	43.719	0	1299.60	0	3.1480	0	34.5960	4	27.558	0	1285.190	0	26.2	4	8.1	4	-1E+10	1	-1E+10	1	-1E+10	1	-1E+10	1	-1E+10	1	-1E+10	1
4901784	66	C	04/25/2017	10:43	-132.258	43.719	0	1304.70	0	3.1370	0	34.5950	4	27.558	0	1290.218	0	26.1	4	8.1	4	-1E+10	1	-1E+10	1	-1E+10	1	-1E+10	1	-1E+10	1	-1E+10	1
4901784	66	C	04/25/2017	10:43	-132.258	43.719	0	1309.80	0	3.1240	0	34.5960	4	27.560	0	1295.245	0	26.3	4	8.2	4	-1E+10	1	-1E+10	1	-1E+10	1	-1E+10	1	-1E+10	1	-1E+10	1
4901784	66	C	04/25/2017	10:43	-132.258	43.719	0	1314.90	0	3.1100	0	34.5970	4	27.562	0	1300.273	0	26.3	4	8.2	4	-1E+10	1	-1E+10	1	-1E+10	1	-1E+10	1	-1E+10	1	-1E+10	1
4901784	66	C	04/25/2017	10:43	-132.258	43.719	0	1320.10	0	3.0860	0	34.5970	4	27.564	0	1305.399	0	26.3	4	8.1	4	-1E+10	1	-1E+10	1	-1E+10	1	-1E+10	1	-1E+10	1	-1E+10	1
4901784	66	C	04/25/2017	10:43	-132.258	43.719	0	1325.30	0	3.0670	0	34.5980	4	27.567	0	1310.525	0	26.4	4	8.2	4	-1E+10	1	-1E+10	1	-1E+10	1	-1E+10	1	-1E+10	1	-1E+10	1
4901784	66	C	04/25/2017	10:43	-132.258	43.719	0	1330.60	0	3.0520	0	34.5990	4	27.569	0	1315.749	0	26.5	4	8.2	4	-1E+10	1	-1E+10	1	-1E+10	1	-1E+10	1	-1E+10	1	-1E+10	1
4901784	66	C	04/25/2017	10:43	-132.258	43.719	0	1335.00	0	3.0430	0	34.6000	4	27.571	0	1320.086	0	26.7	4	8.2	4	-1E+10	1	-1E+10	1	-1E+10	1	-1E+10	1	-1E+10	1	-1E+10	1
4901784	66	C	04/25/2017	10:43	-132.258	43.719	0	1339.30	0	3.0360	0	34.6010	4	27.572	0	1324.325	0	26.8	4	8.3	4	-1E+10	1	-1E+10	1	-1E+10	1	-1E+10	1	-1E+10	1	-1E+10	1
4901784	66	C	04/25/2017	10:43	-132.258	43.719	0	1344.60	0	3.0330	0	34.6010	4	27.572	0	1329.549	0	26.9	4	8.3	4	-1E+10	1	-1E+10	1	-1E+10	1	-1E+10	1	-1E+10	1	-1E+10	1
4901784	66	C	04/25/2017	10:43	-132.258	43.719	0	1349.90	0	3.0250	0	34.6020	4	27.574	0	1334.773	0	26.9	4	8.3	4	-1E+10	1	-1E+10	1	-1E+10	1	-1E+10	1	-1E+10	1	-1E+10	1
4901784	66	C	04/25/2017	10:43	-132.258	43.719	0	1355.30	0	3.0180	0	34.6010	4	27.574	0	1340.095	0	26.9	4	8.3	4	-1E+10	1	-1E+10	1	-1E+10	1	-1E+10	1	-1E+10	1	-1E+10	1
4901784	66	C	04/25/2017	10:43	-132.258	43.719	0	1359.90	0	3.0060	0	34.6020	4	27.576	0	1344.629	0	26.9	4	8.3	4	-1E+10	1	-1E+10	1	-1E+10	1	-1E+10	1	-1E+10	1	-1E+10	1
4901784	66	C	04/25/2017	10:43	-132.258	43.719	0	1364.30	0	2.9950	0	34.6020	4	27.577	0	1348.965	0	26.9	4	8.3	4	-1E+10	1	-1E+10	1	-1E+10	1	-1E+10	1	-1E+10	1	-1E+10	1
4901784	66	C	04/25/2017	10:43	-132.258	43.719	0	1369.80	0	2.9760	0	34.6020	4	27.578	0	1354.386	0	26.8	4	8.3	4	-1E+10	1	-1E+10	1	-1E+10	1	-1E+10	1	-1E+10	1	-1E+10	1
4901784	66	C	04/25/2017	10:43	-132.258	43.719	0	1375.20	0	2.9660	0	34.6020	4	27.579	0	1359.708	0	26.7	4	8.2	4	-1E+10	1	-1E+10	1	-1E+10	1	-1E+10	1	-1E+10	1	-1E+10	1
4901784	66	C	04/25/2017	10:43	-132.258	43.719	0	1380.60	0	2.9550	0	34.6010	4	27.580	0	1365.029	0	26.5	4	8.2	4	-1E+10	1	-1E+10	1	-1E+10	1	-1E+10	1	-1E+10	1	-1E+10	1
4901784	66	C	04/25/2017	10:43	-132.258	43.719	0	1385.20	0	2.9450	0	34.6010	4	27.581	0	1369.563	0	26.4	4	8.2	4	-1E+10	1	-1E+10	1	-1E+10	1	-1E+10	1	-1E+10	1	-1E+10	1
4901784	66	C	04/25/2017	10:43	-132.258	43.719	0	1389.80	0	2.9350	0	34.6010	4	27.581	0	1374.096	0	26.4	4	8.2	4	-1E+10	1	-1E+10	1	-1E+10	1	-1E+10	1	-1E+10	1	-1E+10	1
4901784	66	C	04/25/2017	10:43	-132.258	43.719	0	1395.40	0	2.9330	0	34.6010	4	27.582	0	1379.614	0	26.4	4	8.2	4	-1E+10	1	-1E+10	1	-1E+10	1	-1E+10	1	-1E+10	1	-1E+10	1
4901784	66	C	04/25/2017	10:43	-132.258	43.719	0	1400.00	0	2.9250	0	34.6010	4	27.582	0	1384.147	0	26.4	4	8.1	4	-1E+10	1	-1E+10	1	-1E+10	1	-1E+10	1	-1E+10	1	-1E+10	1
4901784	66	C	04/25/2017	10:43	-132.258	43.719	0	1404.60	0	2.9100	0	34.6010	4	27.584	0	1388.680	0	26.4	4	8.2	4	-1E+10	1	-1E+10	1	-1E+10	1	-1E+10	1	-1E+10	1	-1E+10	1
4901784	66	C	04/25/2017	10:43	-132.258	43.719	0	1410.20	0	2.9020	0	34.6010	4	27.585	0	1394.198	0	26.5	4	8.2	4	-1E+10	1	-1E+10	1	-1E+10	1	-1E+10	1	-1E+10	1	-1E+10	1
4901784	66	C	04/25/2017	10:43	-132.258	43.719	0	1414.90	0	2.8930	0	34.6010	4	27.585	0	1398.829	0	26.5	4	8.2	4	-1E+10	1	-1E+10	1	-1E+10	1	-1E+10	1	-1E+10	1	-1E+10	1
4901784	66	C	04/25/2017	10:43	-132.258	43.719	0	1419.60	0	2.8790	0	34.6010	4	27.587	0	1403.460	0	26.5	4	8.2	4	-1E+10	1	-1E+10	1	-1E+10	1	-1E+10	1	-1E+10	1	-1E+10	1
4901784	66	C	04/25/2017	10:43	-132.258	43.719	0	1425.30	0	2.8740	0	34.6020	4	27.588	0	1409.076	0	26.6	4	8.2	4	-1E+10	1	-1E+10	1	-1E+10	1	-1E+10	1	-1E+10	1	-1E+10	1
4901784	66	C	04/25/2017	10:43	-132.258	43.719	0	1430.00	0	2.8690	0	34.6020	4	27.588	0	1413.707	0	26.6	4	8.2	4	-1E+10	1	-1E+10	1	-1E+10	1	-1E+10	1	-1E+10	1	-1E+10	1
4901784	66	C	04/25/2017	10:43	-132.258	43.719	0	1434.70	0	2.8680	0	34.6020	4	27.588	0	1418.338	0	26.6	4	8.2	4	-1E+10	1	-1E+10	1	-1E+10	1	-1E+10	1	-1E+10	1	-1E+10	1
4901784	66	C	04/25/2017	10:43	-132.258	43.719	0	1439.90	0	2.8540	0	34.6020	4	27.590	0	1423.461	0	26.5	4	8.2	4	-1E+10	1	-1E+10	1	-1E+10	1	-1E+10	1	-1E+10	1	-1E+10	1
4901784	66	C	04/25/2017	10:43	-132.258	43.719	0	1444.30	0	2.8410	0	34.6020	4	27.591	0	1427.796	0	26.5	4	8.2	4	-1E+10	1	-1E+10	1	-1E+10	1	-1E+10	1	-1E+10	1	-1E+10	1
4901784	66	C	04/25/2017	10:43	-132.258	43.719	0	1450.00	0	2.8330	0	34.6020	4	27.592	0	1433.411	0	26.4	4	8.1	4	-1E+10	1	-1E+10	1	-1E+10	1	-1E+10	1	-1E+10	1	-1E+10	1
4901784	66	C	04/25/2017	10:43	-132.258	43.719	0	1455.80	0	2.8200	0	34.6010	4	27.592	0	1439.125	0	26.3	4	8.1	4	-1E+10	1	-1E+10	1	-1E+10	1	-1E+10	1	-1E+10	1	-1E+10	1
4901784	66	C	04/25/2017	10:43	-132.258	43.719	0	1460.70	0	2.8000	0	34.6010	4	27.594	0	1443.952	0	26.3	4	8.1	4	-1E+10	1	-1E+10	1	-1E+10	1	-1E+10	1	-1E+10	1	-1E+10	1
4901784	66	C	04/25/2017	10:43	-132.258	43.719	0	1465.70	0	2.7820	0	34.6020	4	27.596	0	1448.878	0	26.4	4	8.1	4	-1E+10	1	-1E+10	1	-1E+10	1	-1E+10	1	-1E+10	1	-1E+10	1
4901784	66	C	04/25/2017	10:43	-132.258	43.719	0	1470.70	0	2.7740	0	34.6020	4	27.597	0	1453.803	0	26.5	4	8.1	4	-1E+10	1	-1E+10	1	-1E+10	1	-1E+10	1	-1E+10	1	-1E+10	1
4901784	66	C	04/25/2017	10:43	-132.258	43.719	0	1475.60	0	2.7690	0	34.6020	4	27.597	0	1458.630	0	26.5	4	8.1	4	-1E+10	1	-1E+10	1	-1E+10	1	-1E+10	1	-1E+10	1	-1E+10	1
4901784	66	C	04/25/2017	10:43	-132.258	43.719	0	1480.70	0	2.7540	0	34.6020	4	27.599	0	1463.654	0	26.5	4	8.1	4	-1E+10	1	-1E+10	1	-1E+10	1	-1E+10	1	-1E+10	1	-1E+10	1
4901784	66	C	04/25/2017	10:43	-132.258	43.719	0	1485.80	0	2.7320	0	34.6010	4	27.600	0	1468.677	0	26.5	4	8.1	4	-1E+10	1	-1E+10	1	-1E+10	1	-1E+10	1	-1E+10	1	-1E+10	1
4901784	66	C	04/25/2017	10:43	-132.258	43.719	0	1490.00	0	2.7060	0	34.6020	4	27.603	0	1472.814	0	26.5	4	8.1	4	-1E+10	1	-1E+10	1	-1E+10	1	-1E+10	1	-1E+10	1	-1E+10	1
4901784	66	C	04/25/2017	10:43	-132.258	43.719	0	1494.20	0	2.6860	0	34.6010	4	27.604	0	1476.951	0	26.5	4	8.1	4	-1E+10	1	-1E+10	1	-1E+10	1	-1E+10	1	-1E+10	1	-1E+10	1
4901784	66	C	04/25/2017	10:43	-132.258	43.719	0	1499.20	0	2.6610	0	34.6020	4	27.607	0	1481.876	0	26.7	4	8.2	4	-1E+10	1	-1E+10	1	-1E+10	1	-1E+10	1	-1E+10	1	-1E+10	1
4901784	66	C	04/25/2017	10:43	-132.258	43.719	0	1504.40	0	2.6430	0	34.6020	4	27.608	0	1486.997	0	26.8	4	8.2	4	-1E+10	1	-1E+10	1	-1E+10	1	-1E+10	1	-1E+10	1	-1E+10	1
4901784	66	C	04/25/2017	10:43	-132.258	43.719	0	1509.60	0	2.6240	0	34.6040	4	27.612	0	1492.119	0	27.0	4	8.3	4	-1E+10	1	-1E+10	1	-1E+10	1	-1E+10	1	-1E+10	1	-1E+10	1
4901784	66	C	04/25/2017	10:43	-132.258	43.719	0	1514.80	0	2.6100	0	34.6040	4	27.613	0	1497.240	0	27.1	4	8.3	4	-1E+10	1	-1E+10	1	-1E+10	1	-1E+10	1	-1E+10	1	-1E+10	1
4901784	66	C	04/25/2017	10:43	-132.258	43.719	0	1520.00	0	2.5910	0	34.6050	4	27.615	0	1502.362	0	27.3	4	8.4	4	-1E+10	1	-1E+10	1	-1E+10	1	-1E+10	1	-1E+10	1	-1E+10	1
4901784	66	C	04/25/2017	10:43	-132.258	43.719	0	1525.20	0	2.5770	0	34.6050	4	27.617	0	1507.483	0	27.4	4	8.4	4	-1E+10	1	-1E+10	1	-1E+10	1	-1E+10	1	-1E+10	1	-1E+10	1
4901784	66	C	04/25/2017	10:43	-132.258	43.719	0	1530.50	0	2.5540	0	34.6060	4	27.619	0	1512.702	0	27.7	4	8.5	4	-1E+10	1	-1E+10	1	-1E+10	1	-1E+10	1	-1E+10	1	-1E+10	1
4901784	66	C	04/25/2017	10:43	-132.258	43.719	0	1534.90	0	2.5390	0	34.6070	4	27.621	0	1517.035	0	28.0	4	8.6	4	-1E+10	1	-1E+10	1	-1E+10	1	-1E+10	1	-1E+10	1	-1E+10	1
4901784	66	C	04/25/2017	10:43	-132.258	43.719	0	1539.40	0	2.5270	0	34.6080	4	27.623	0	1521.467	0	28.3	4	8.6	4	-1E+10	1	-1E+10	1	-1E+10	1	-1E+10	1	-1E+10	1	-1E+10	1
4901784	66	C	04/25/2017	10:43	-132.258	43.719	0	1544.70	0	2.5160	0	34.6100	4	27.626	0	1526.686	0	28.4	4	8.7	4	-1E+10	1	-1E+10	1	-1E+10	1	-1E+10	1	-1E+10	1	-1E+10	1
4901784	66	C	04/25/2017	10:43	-132.258	43.719	0	1550.10	0	2.5140	0	34.6100	4	27.626	0	1532.003	0	28.5	4	8.7	4	-1E+10	1	-1E+10	1	-1E+10	1	-1E+10	1	-1E+10	1	-1E+10	1
4901784	66	C	04/25/2017	10:43	-132.258	43.719	0	1555.60	0	2.5130	0	34.6100	4	27.626	0	1537.419	0	28.6	4	8.7	4	-1E+10	1	-1E+10	1	-1E+10	1	-1E+10	1	-1E+10	1	-1E+10	1
4901784	66	C	04/25/2017	10:43	-132.258	43.719	0	1560.10	0	2.5040	0	34.6100	4	27.627	0	1541.850	0	28.9	4	8.8	4	-1E+10	1	-1E+10	1	-1E+10	1	-1E+10	1	-1E+10	1	-1E+10	1
4901784	66	C	04/25/2017	10:43	-132.258	43.719	0	1564.80	0	2.4900	0	34.6110	4	27.629	0	1546.478	0	29.2	4	8.9	4	-1E+10	1	-1E+10	1	-1E+10	1	-1E+10	1	-1E+10	1	-1E+10	1
4901784	66	C	04/25/2017	10:43	-132.258	43.719	0	1570.30	0	2.4760	0	34.6130	4	27.632	0	1551.894	0	29.6	4	9.0	4	-1E+10	1	-1E+10	1	-1E+10	1	-1E+10	1	-1E+10	1	-1E+10	1
4901784	66	C	04/25/2017	10:43	-132.258	43.719	0	1575.00	0	2.4590	0	34.6130	4	27.633	0	1556.521	0	29.9	4	9.1	4	-1E+10	1	-1E+10	1	-1E+10	1	-1E+10	1	-1E+10	1	-1E+10	1
4901784	66	C	04/25/2017	10:43	-132.258	43.719	0	1579.70	0	2.4490	0	34.6140	4	27.635	0	1561.149	0	30.3	4	9.2	4	-1E+10	1	-1E+10	1	-1E+10	1	-1E+10	1	-1E+10	1	-1E+10	1
4901784	66	C	04/25/2017	10:43	-132.258	43.719	0	1585.20	0	2.4260	0	34.6170	4	27.639	0	1566.564	0	30.8	4	9.4	4	-1E+10	1	-1E+10	1	-1E+10	1	-1E+10	1	-1E+10	1	-1E+10	1
4901784	66	C	04/25/2017	10:43	-132.258	43.719	0	1589.90	0	2.4160	0	34.6180	4	27.641	0	1571.191	0	31.2	4	9.5	4	-1E+10	1	-1E+10	1	-1E+10	1	-1E+10	1	-1E+10	1	-1E+10	1
4901784	66	C	04/25/2017	10:43	-132.258	43.719	0	1594.60	0	2.3990	0	34.6200	4	27.644	0	1575.818	0	31.6	4	9.6	4	-1E+10	1	-1E+10	1	-1E+10	1	-1E+10	1	-1E+10	1	-1E+10	1
4901784	66	C	04/25/2017	10:43	-132.258	43.719	0	1600.10	0	2.3900	0	34.6200	4	27.645	0	1581.233	0	32.1	4	9.8	4	-1E+10	1	-1E+10	1	-1E+10	1	-1E+10	1	-1E+10	1	-1E+10	1
4901784	66	C	04/25/2017	10:43	-132.258	43.719	0	1605.60	0	2.3670	0	34.6230	4	27.649	0	1586.647	0	32.8	4	10.0	4	-1E+10	1	-1E+10	1	-1E+10	1	-1E+10	1	-1E+10	1	-1E+10	1
4901784	66	C	04/25/2017	10:43	-132.258	43.719	0	1610.50	0	2.3530	0	34.6250	4	27.652	0	1591.471	0	33.1	4	10.1	4	-1E+10	1	-1E+10	1	-1E+10	1	-1E+10	1	-1E+10	1	-1E+10	1
4901784	66	C	04/25/2017	10:43	-132.258	43.719	0	1615.40	0	2.3510	0	34.6250	4	27.652	0	1596.295	0	33.2	4	10.1	4	-1E+10	1	-1E+10	1	-1E+10	1	-1E+10	1	-1E+10	1	-1E+10	1
4901784	66	C	04/25/2017	10:43	-132.258	43.719	0	1620.40	0	2.3510	0	34.6250	4	27.652	0	1601.217	0	33.2	4	10.1	4	-1E+10	1	-1E+10	1	-1E+10	1	-1E+10	1	-1E+10	1	-1E+10	1
4901784	66	C	04/25/2017	10:43	-132.258	43.719	0	1625.30	0	2.3480	0	34.6260	4	27.653	0	1606.040	0	33.4	4	10.2	4	-1E+10	1	-1E+10	1	-1E+10	1	-1E+10	1	-1E+10	1	-1E+10	1
4901784	66	C	04/25/2017	10:43	-132.258	43.719	0	1630.30	0	2.3430	0	34.6260	4	27.653	0	1610.962	0	33.7	4	10.3	4	-1E+10	1	-1E+10	1	-1E+10	1	-1E+10	1	-1E+10	1	-1E+10	1
4901784	66	C	04/25/2017	10:43	-132.258	43.719	0	1635.30	0	2.3350	0	34.6270	4	27.655	0	1615.884	0	34.1	4	10.4	4	-1E+10	1	-1E+10	1	-1E+10	1	-1E+10	1	-1E+10	1	-1E+10	1
4901784	66	C	04/25/2017	10:43	-132.258	43.719	0	1640.50	0	2.3270	0	34.6280	4	27.656	0	1621.002	0	34.6	4	10.5	4	-1E+10	1	-1E+10	1	-1E+10	1	-1E+10	1	-1E+10	1	-1E+10	1
4901784	66	C	04/25/2017	10:43	-132.258	43.719	0	1645.70	0	2.3090	0	34.6310	4	27.660	0	1626.120	0	35.0	4	10.7	4	-1E+10	1	-1E+10	1	-1E+10	1	-1E+10	1	-1E+10	1	-1E+10	1
4901784	66	C	04/25/2017	10:43	-132.258	43.719	0	1650.10	0	2.3060	0	34.6310	4	27.660	0	1630.451	0	35.3	4	10.7	4	-1E+10	1	-1E+10	1	-1E+10	1	-1E+10	1	-1E+10	1	-1E+10	1
4901784	66	C	04/25/2017	10:43	-132.258	43.719	0	1654.40	0	2.2990	0	34.6310	4	27.661	0	1634.683	0	35.7	4	10.8	4	-1E+10	1	-1E+10	1	-1E+10	1	-1E+10	1	-1E+10	1	-1E+10	1
4901784	66	C	04/25/2017	10:43	-132.258	43.719	0	1659.70	0	2.2840	0	34.6340	4	27.665	0	1639.899	0	36.1	4	11.0	4	-1E+10	1	-1E+10	1	-1E+10	1	-1E+10	1	-1E+10	1	-1E+10	1
4901784	66	C	04/25/2017	10:43	-132.258	43.719	0	1664.90	0	2.2790	0	34.6340	4	27.665	0	1645.017	0	36.5	4	11.1	4	-1E+10	1	-1E+10	1	-1E+10	1	-1E+10	1	-1E+10	1	-1E+10	1
4901784	66	C	04/25/2017	10:43	-132.258	43.719	0	1670.20	0	2.2700	0	34.6360	4	27.668	0	1650.233	0	36.9	4	11.2	4	-1E+10	1	-1E+10	1	-1E+10	1	-1E+10	1	-1E+10	1	-1E+10	1
4901784	66	C	04/25/2017	10:43	-132.258	43.719	0	1675.40	0	2.2610	0	34.6370	4	27.669	0	1655.351	0	37.3	4	11.3	4	-1E+10	1	-1E+10	1	-1E+10	1	-1E+10	1	-1E+10	1	-1E+10	1
4901784	66	C	04/25/2017	10:43	-132.258	43.719	0	1680.40	0	2.2530	0	34.6380	4	27.671	0	1660.272	0	37.6	4	11.4	4	-1E+10	1	-1E+10	1	-1E+10	1	-1E+10	1	-1E+10	1	-1E+10	1
4901784	66	C	04/25/2017	10:43	-132.258	43.719	0	1684.60	0	2.2480	0	34.6390	4	27.672	0	1664.405	0	37.9	4	11.5	4	-1E+10	1	-1E+10	1	-1E+10	1	-1E+10	1	-1E+10	1	-1E+10	1
4901784	66	C	04/25/2017	10:43	-132.258	43.719	0	1690.10	0	2.2410	0	34.6400	4	27.673	0	1669.817	0	38.2	4	11.6	4	-1E+10	1	-1E+10	1	-1E+10	1	-1E+10	1	-1E+10	1	-1E+10	1
4901784	66	C	04/25/2017	10:43	-132.258	43.719	0	1695.70	0	2.2330	0	34.6410	4	27.675	0	1675.328	0	38.6	4	11.7	4	-1E+10	1	-1E+10	1	-1E+10	1	-1E+10	1	-1E+10	1	-1E+10	1
4901784	66	C	04/25/2017	10:43	-132.258	43.719	0	1700.50	0	2.2280	0	34.6420	4	27.676	0	1680.051	0	38.8	4	11.8	4	-1E+10	1	-1E+10	1	-1E+10	1	-1E+10	1	-1E+10	1	-1E+10	1
4901784	66	C	04/25/2017	10:43	-132.258	43.719	0	1705.40	0	2.2230	0	34.6430	4	27.677	0	1684.873	0	39.1	4	11.9	4	-1E+10	1	-1E+10	1	-1E+10	1	-1E+10	1	-1E+10	1	-1E+10	1
4901784	66	C	04/25/2017	10:43	-132.258	43.719	0	1710.30	0	2.2190	0	34.6440	4	27.678	0	1689.694	0	39.3	4	11.9	4	-1E+10	1	-1E+10	1	-1E+10	1	-1E+10	1	-1E+10	1	-1E+10	1
4901784	66	C	04/25/2017	10:43	-132.258	43.719	0	1715.20	0	2.2180	0	34.6440	4	27.678	0	1694.516	0	39.5	4	12.0	4	-1E+10	1	-1E+10	1	-1E+10	1	-1E+10	1	-1E+10	1	-1E+10	1
4901784	66	C	04/25/2017	10:43	-132.258	43.719	0	1720.10	0	2.2100	0	34.6450	4	27.680	0	1699.337	0	40.0	4	12.1	4	-1E+10	1	-1E+10	1	-1E+10	1	-1E+10	1	-1E+10	1	-1E+10	1
4901784	66	C	04/25/2017	10:43	-132.258	43.719	0	1725.10	0	2.2060	0	34.6460	4	27.681	0	1704.257	0	40.2	4	12.2	4	-1E+10	1	-1E+10	1	-1E+10	1	-1E+10	1	-1E+10	1	-1E+10	1
4901784	66	C	04/25/2017	10:43	-132.258	43.719	0	1730.10	0	2.2000	0	34.6460	4	27.681	0	1709.176	0	40.6	4	12.3	4	-1E+10	1	-1E+10	1	-1E+10	1	-1E+10	1	-1E+10	1	-1E+10	1
4901784	66	C	04/25/2017	10:43	-132.258	43.719	0	1735.10	0	2.1940	0	34.6470	4	27.683	0	1714.095	0	40.9	4	12.4	4	-1E+10	1	-1E+10	1	-1E+10	1	-1E+10	1	-1E+10	1	-1E+10	1
4901784	66	C	04/25/2017	10:43	-132.258	43.719	0	1740.20	0	2.1880	0	34.6480	4	27.684	0	1719.113	0	41.3	4	12.5	4	-1E+10	1	-1E+10	1	-1E+10	1	-1E+10	1	-1E+10	1	-1E+10	1
4901784	66	C	04/25/2017	10:43	-132.258	43.719	0	1745.40	0	2.1810	0	34.6490	4	27.685	0	1724.229	0	41.7	4	12.6	4	-1E+10	1	-1E+10	1	-1E+10	1	-1E+10	1	-1E+10	1	-1E+10	1
4901784	66	C	04/25/2017	10:43	-132.258	43.719	0	1750.50	0	2.1720	0	34.6510	4	27.688	0	1729.246	0	42.3	4	12.8	4	-1E+10	1	-1E+10	1	-1E+10	1	-1E+10	1	-1E+10	1	-1E+10	1
4901784	66	C	04/25/2017	10:43	-132.258	43.719	0	1754.90	0	2.1620	0	34.6520	4	27.689	0	1733.575	0	42.7	4	12.9	4	-1E+10	1	-1E+10	1	-1E+10	1	-1E+10	1	-1E+10	1	-1E+10	1
4901784	66	C	04/25/2017	10:43	-132.258	43.719	0	1759.30	0	2.1570	0	34.6530	4	27.691	0	1737.903	0	43.0	4	13.0	4	-1E+10	1	-1E+10	1	-1E+10	1	-1E+10	1	-1E+10	1	-1E+10	1
4901784	66	C	04/25/2017	10:43	-132.258	43.719	0	1764.50	0	2.1500	0	34.6540	4	27.692	0	1743.019	0	43.3	4	13.1	4	-1E+10	1	-1E+10	1	-1E+10	1	-1E+10	1	-1E+10	1	-1E+10	1
4901784	66	C	04/25/2017	10:43	-132.258	43.719	0	1769.80	0	2.1460	0	34.6540	4	27.692	0	1748.233	0	43.6	4	13.2	4	-1E+10	1	-1E+10	1	-1E+10	1	-1E+10	1	-1E+10	1	-1E+10	1
4901784	66	C	04/25/2017	10:43	-132.258	43.719	0	1775.10	0	2.1410	0	34.6550	4	27.694	0	1753.446	0	44.0	4	13.3	4	-1E+10	1	-1E+10	1	-1E+10	1	-1E+10	1	-1E+10	1	-1E+10	1
4901784	66	C	04/25/2017	10:43	-132.258	43.719	0	1780.40	0	2.1330	0	34.6560	4	27.695	0	1758.659	0	44.5	4	13.5	4	-1E+10	1	-1E+10	1	-1E+10	1	-1E+10	1	-1E+10	1	-1E+10	1
4901784	66	C	04/25/2017	10:43	-132.258	43.719	0	1785.70	0	2.1240	0	34.6570	4	27.697	0	1763.873	0	44.9	4	13.6	4	-1E+10	1	-1E+10	1	-1E+10	1	-1E+10	1	-1E+10	1	-1E+10	1
4901784	66	C	04/25/2017	10:43	-132.258	43.719	0	1790.10	0	2.1200	0	34.6590	4	27.699	0	1768.201	0	45.2	4	13.7	4	-1E+10	1	-1E+10	1	-1E+10	1	-1E+10	1	-1E+10	1	-1E+10	1
4901784	66	C	04/25/2017	10:43	-132.258	43.719	0	1794.70	0	2.1160	0	34.6590	4	27.699	0	1772.725	0	45.5	4	13.8	4	-1E+10	1	-1E+10	1	-1E+10	1	-1E+10	1	-1E+10	1	-1E+10	1
4901784	66	C	04/25/2017	10:43	-132.258	43.719	0	1800.10	0	2.1100	0	34.6600	4	27.700	0	1778.036	0	46.0	4	13.9	4	-1E+10	1	-1E+10	1	-1E+10	1	-1E+10	1	-1E+10	1	-1E+10	1
4901784	66	C	04/25/2017	10:43	-132.258	43.719	0	1805.50	0	2.1040	0	34.6610	4	27.702	0	1783.348	0	46.4	4	14.0	4	-1E+10	1	-1E+10	1	-1E+10	1	-1E+10	1	-1E+10	1	-1E+10	1
4901784	66	C	04/25/2017	10:43	-132.258	43.719	0	1810.10	0	2.1010	0	34.6620	4	27.703	0	1787.872	0	46.7	4	14.1	4	-1E+10	1	-1E+10	1	-1E+10	1	-1E+10	1	-1E+10	1	-1E+10	1
4901784	66	C	04/25/2017	10:43	-132.258	43.719	0	1814.70	0	2.0950	0	34.6620	4	27.703	0	1792.396	0	47.2	4	14.3	4	-1E+10	1	-1E+10	1	-1E+10	1	-1E+10	1	-1E+10	1	-1E+10	1
4901784	66	C	04/25/2017	10:43	-132.258	43.719	0	1820.20	0	2.0830	0	34.6640	4	27.706	0	1797.805	0	47.6	4	14.4	4	-1E+10	1	-1E+10	1	-1E+10	1	-1E+10	1	-1E+10	1	-1E+10	1
4901784	66	C	04/25/2017	10:43	-132.258	43.719	0	1824.80	0	2.0780	0	34.6650	4	27.707	0	1802.329	0	47.9	4	14.5	4	-1E+10	1	-1E+10	1	-1E+10	1	-1E+10	1	-1E+10	1	-1E+10	1
4901784	66	C	04/25/2017	10:43	-132.258	43.719	0	1829.40	0	2.0750	0	34.6650	4	27.707	0	1806.853	0	48.2	4	14.6	4	-1E+10	1	-1E+10	1	-1E+10	1	-1E+10	1	-1E+10	1	-1E+10	1
4901784	66	C	04/25/2017	10:43	-132.258	43.719	0	1835.00	0	2.0710	0	34.6660	4	27.708	0	1812.360	0	48.7	4	14.7	4	-1E+10	1	-1E+10	1	-1E+10	1	-1E+10	1	-1E+10	1	-1E+10	1
4901784	66	C	04/25/2017	10:43	-132.258	43.719	0	1840.60	0	2.0580	0	34.6670	4	27.710	0	1817.867	0	49.4	4	14.9	4	-1E+10	1	-1E+10	1	-1E+10	1	-1E+10	1	-1E+10	1	-1E+10	1
4901784	66	C	04/25/2017	10:43	-132.258	43.719	0	1845.20	0	2.0520	0	34.6690	4	27.712	0	1822.390	0	49.8	4	15.0	4	-1E+10	1	-1E+10	1	-1E+10	1	-1E+10	1	-1E+10	1	-1E+10	1
4901784	66	C	04/25/2017	10:43	-132.258	43.719	0	1849.90	0	2.0440	0	34.6700	4	27.714	0	1827.012	0	50.1	4	15.1	4	-1E+10	1	-1E+10	1	-1E+10	1	-1E+10	1	-1E+10	1	-1E+10	1
4901784	66	C	04/25/2017	10:43	-132.258	43.719	0	1855.50	0	2.0380	0	34.6710	4	27.715	0	1832.519	0	50.4	4	15.2	4	-1E+10	1	-1E+10	1	-1E+10	1	-1E+10	1	-1E+10	1	-1E+10	1
4901784	66	C	04/25/2017	10:43	-132.258	43.719	0	1860.30	0	2.0340	0	34.6710	4	27.715	0	1837.239	0	50.6	4	15.3	4	-1E+10	1	-1E+10	1	-1E+10	1	-1E+10	1	-1E+10	1	-1E+10	1
4901784	66	C	04/25/2017	10:43	-132.258	43.719	0	1864.90	0	2.0320	0	34.6710	4	27.716	0	1841.762	0	50.9	4	15.4	4	-1E+10	1	-1E+10	1	-1E+10	1	-1E+10	1	-1E+10	1	-1E+10	1
4901784	66	C	04/25/2017	10:43	-132.258	43.719	0	1869.90	0	2.0240	0	34.6720	4	27.717	0	1846.678	0	51.3	4	15.5	4	-1E+10	1	-1E+10	1	-1E+10	1	-1E+10	1	-1E+10	1	-1E+10	1
4901784	66	C	04/25/2017	10:43	-132.258	43.719	0	1874.80	0	2.0200	0	34.6730	4	27.718	0	1851.496	0	51.5	4	15.5	4	-1E+10	1	-1E+10	1	-1E+10	1	-1E+10	1	-1E+10	1	-1E+10	1
4901784	66	C	04/25/2017	10:43	-132.258	43.719	0	1879.70	0	2.0190	0	34.6740	4	27.719	0	1856.313	0	51.6	4	15.6	4	-1E+10	1	-1E+10	1	-1E+10	1	-1E+10	1	-1E+10	1	-1E+10	1
4901784	66	C	04/25/2017	10:43	-132.258	43.719	0	1884.70	0	2.0170	0	34.6740	4	27.719	0	1861.229	0	51.8	4	15.6	4	-1E+10	1	-1E+10	1	-1E+10	1	-1E+10	1	-1E+10	1	-1E+10	1
4901784	66	C	04/25/2017	10:43	-132.258	43.719	0	1889.60	0	2.0140	0	34.6750	4	27.720	0	1866.047	0	52.2	4	15.8	4	-1E+10	1	-1E+10	1	-1E+10	1	-1E+10	1	-1E+10	1	-1E+10	1
4901784	66	C	04/25/2017	10:43	-132.258	43.719	0	1894.60	0	2.0070	0	34.6750	4	27.721	0	1870.963	0	52.6	4	15.9	4	-1E+10	1	-1E+10	1	-1E+10	1	-1E+10	1	-1E+10	1	-1E+10	1
4901784	66	C	04/25/2017	10:43	-132.258	43.719	0	1899.60	0	2.0020	0	34.6760	4	27.722	0	1875.878	0	53.0	4	16.0	4	-1E+10	1	-1E+10	1	-1E+10	1	-1E+10	1	-1E+10	1	-1E+10	1
4901784	66	C	04/25/2017	10:43	-132.258	43.719	0	1904.70	0	1.9970	0	34.6770	4	27.723	0	1880.892	0	53.3	4	16.1	4	-1E+10	1	-1E+10	1	-1E+10	1	-1E+10	1	-1E+10	1	-1E+10	1
4901784	66	C	04/25/2017	10:43	-132.258	43.719	0	1909.70	0	1.9940	0	34.6780	4	27.724	0	1885.807	0	53.6	4	16.2	4	-1E+10	1	-1E+10	1	-1E+10	1	-1E+10	1	-1E+10	1	-1E+10	1
4901784	66	C	04/25/2017	10:43	-132.258	43.719	0	1914.70	0	1.9920	0	34.6780	4	27.725	0	1890.723	0	53.8	4	16.2	4	-1E+10	1	-1E+10	1	-1E+10	1	-1E+10	1	-1E+10	1	-1E+10	1
4901784	66	C	04/25/2017	10:43	-132.258	43.719	0	1919.80	0	1.9890	0	34.6790	4	27.726	0	1895.736	0	54.0	4	16.3	4	-1E+10	1	-1E+10	1	-1E+10	1	-1E+10	1	-1E+10	1	-1E+10	1
4901784	66	C	04/25/2017	10:43	-132.258	43.719	0	1924.90	0	1.9870	0	34.6790	4	27.726	0	1900.749	0	54.3	4	16.4	4	-1E+10	1	-1E+10	1	-1E+10	1	-1E+10	1	-1E+10	1	-1E+10	1
4901784	66	C	04/25/2017	10:43	-132.258	43.719	0	1930.00	0	1.9830	0	34.6800	4	27.727	0	1905.762	0	54.7	4	16.5	4	-1E+10	1	-1E+10	1	-1E+10	1	-1E+10	1	-1E+10	1	-1E+10	1
4901784	66	C	04/25/2017	10:43	-132.258	43.719	0	1935.00	0	1.9790	0	34.6800	4	27.727	0	1910.677	0	54.9	4	16.6	4	-1E+10	1	-1E+10	1	-1E+10	1	-1E+10	1	-1E+10	1	-1E+10	1
4901784	66	C	04/25/2017	10:43	-132.258	43.719	0	1940.10	0	1.9780	0	34.6810	4	27.728	0	1915.690	0	55.3	4	16.7	4	-1E+10	1	-1E+10	1	-1E+10	1	-1E+10	1	-1E+10	1	-1E+10	1
4901784	66	C	04/25/2017	10:43	-132.258	43.719	0	1945.20	0	1.9760	0	34.6820	4	27.729	0	1920.703	0	55.8	4	16.8	4	-1E+10	1	-1E+10	1	-1E+10	1	-1E+10	1	-1E+10	1	-1E+10	1
4901784	66	C	04/25/2017	10:43	-132.258	43.719	0	1950.40	0	1.9730	0	34.6830	4	27.730	0	1925.814	0	56.1	4	16.9	4	-1E+10	1	-1E+10	1	-1E+10	1	-1E+10	1	-1E+10	1	-1E+10	1
4901784	66	C	04/25/2017	10:43	-132.258	43.719	0	1955.50	0	1.9710	0	34.6840	4	27.731	0	1930.827	0	56.3	4	17.0	4	-1E+10	1	-1E+10	1	-1E+10	1	-1E+10	1	-1E+10	1	-1E+10	1
4901784	66	C	04/25/2017	10:43	-132.258	43.719	0	1960.60	0	1.9690	0	34.6840	4	27.731	0	1935.839	0	56.5	4	17.0	4	-1E+10	1	-1E+10	1	-1E+10	1	-1E+10	1	-1E+10	1	-1E+10	1
4901784	66	C	04/25/2017	10:43	-132.258	43.719	0	1965.70	0	1.9650	0	34.6850	4	27.733	0	1940.852	0	56.8	4	17.1	4	-1E+10	1	-1E+10	1	-1E+10	1	-1E+10	1	-1E+10	1	-1E+10	1
4901784	66	C	04/25/2017	10:43	-132.258	43.719	0	1970.00	0	1.9620	0	34.6850	4	27.733	0	1945.078	0	57.0	4	17.2	4	-1E+10	1	-1E+10	1	-1E+10	1	-1E+10	1	-1E+10	1	-1E+10	1
4901784	66	C	04/25/2017	10:43	-132.258	43.719	0	1974.20	0	1.9600	0	34.6860	4	27.734	0	1949.205	0	57.2	4	17.2	4	-1E+10	1	-1E+10	1	-1E+10	1	-1E+10	1	-1E+10	1	-1E+10	1
4901784	66	C	04/25/2017	10:43	-132.258	43.719	0	1979.40	0	1.9580	0	34.6860	4	27.734	0	1954.316	0	57.4	4	17.3	4	-1E+10	1	-1E+10	1	-1E+10	1	-1E+10	1	-1E+10	1	-1E+10	1
4901784	66	C	04/25/2017	10:43	-132.258	43.719	0	1984.60	0	1.9560	0	34.6860	4	27.734	0	1959.426	0	57.5	4	17.3	4	-1E+10	1	-1E+10	1	-1E+10	1	-1E+10	1	-1E+10	1	-1E+10	1
4901784	66	C	04/25/2017	10:43	-132.258	43.719	0	1990.40	0	1.9530	0	34.6870	4	27.735	0	1965.126	0	57.7	4	17.4	4	-1E+10	1	-1E+10	1	-1E+10	1	-1E+10	1	-1E+10	1	-1E+10	1
4901784	66	C	04/25/2017	10:43	-132.258	43.719	0	1995.20	0	1.9510	0	34.6870	4	27.735	0	1969.842	0	57.9	4	17.4	4	-1E+10	1	-1E+10	1	-1E+10	1	-1E+10	1	-1E+10	1	-1E+10	1
4901784	66	C	04/25/2017	10:43	-132.258	43.719	0	2000.20	0	1.9480	0	34.6870	4	27.736	0	1974.756	0	58.1	4	17.5	4	-1E+10	1	-1E+10	1	-1E+10	1	-1E+10	1	-1E+10	1	-1E+10	1
4901784	66	C	04/25/2017	10:43	-132.258	43.719	0	2004.80	0	1.9450	0	34.6880	4	27.737	0	1979.276	0	58.3	4	17.6	4	-1E+10	1	-1E+10	1	-1E+10	1	-1E+10	1	-1E+10	1	-1E+10	1
4901784	66	C	04/25/2017	10:43	-132.258	43.719	0	2010.20	0	1.9420	0	34.6890	4	27.738	0	1984.582	0	58.5	4	17.6	4	-1E+10	1	-1E+10	1	-1E+10	1	-1E+10	1	-1E+10	1	-1E+10	1
4901784	66	C	04/25/2017	10:43	-132.258	43.719	0	2013.50	0	1.9390	0	34.6890	4	27.738	0	1987.825	0	57.8	8	17.4	8	-1E+10	1	-1E+10	1	-1E+10	1	-1E+10	1	-1E+10	1	-1E+10	1
4901784	66	C	04/25/2017	10:43	-132.258	43.719	0																										
4901784	67	C	05/05/2017	10:49	-132.226	43.724	0	1.90	0	10.0040	0	32.8300	4	25.258	0	1.885	0	277.1	4	99.4	4	-1E+10	1	-1E+10	1	-1E+10	1	-1E+10	1	-1E+10	1	-1E+10	1
4901784	67	C	05/05/2017	10:49	-132.226	43.724	0	3.30	0	10.0050	0	32.8300	4	25.257	0	3.274	0	277.2	4	99.4	4	-1E+10	1	-1E+10	1	-1E+10	1	-1E+10	1	-1E+10	1	-1E+10	1
4901784	67	C	05/05/2017	10:49	-132.226	43.724	0	4.70	0	10.0060	0	32.8310	4	25.258	0	4.662	0	277.1	4	99.4	4	-1E+10	1	-1E+10	1	-1E+10	1	-1E+10	1	-1E+10	1	-1E+10	1
4901784	67	C	05/05/2017	10:49	-132.226	43.724	0	6.30	0	10.0100	0	32.8310	4	25.257	0	6.250	0	276.9	4	99.3	4	-1E+10	1	-1E+10	1	-1E+10	1	-1E+10	1	-1E+10	1	-1E+10	1
4901784	67	C	05/05/2017	10:49	-132.226	43.724	0	7.90	0	10.0110	0	32.8310	4	25.257	0	7.837	0	277.0	4	99.3	4	-1E+10	1	-1E+10	1	-1E+10	1	-1E+10	1	-1E+10	1	-1E+10	1
4901784	67	C	05/05/2017	10:49	-132.226	43.724	0	9.40	0	10.0060	0	32.8310	4	25.258	0	9.325	0	276.8	4	99.3	4	-1E+10	1	-1E+10	1	-1E+10	1	-1E+10	1	-1E+10	1	-1E+10	1
4901784	67	C	05/05/2017	10:49	-132.226	43.724	0	11.30	0	10.0100	0	32.8300	4	25.257	0	11.209	0	276.9	4	99.3	4	-1E+10	1	-1E+10	1	-1E+10	1	-1E+10	1	-1E+10	1	-1E+10	1
4901784	67	C	05/05/2017	10:49	-132.226	43.724	0	11.80	0	10.0080	0	32.8310	4	25.258	0	11.705	0	276.9	4	99.3	4	-1E+10	1	-1E+10	1	-1E+10	1	-1E+10	1	-1E+10	1	-1E+10	1
4901784	67	C	05/05/2017	10:49	-132.226	43.724	0	13.30	0	10.0090	0	32.8300	4	25.257	0	13.193	0	276.8	4	99.3	4	-1E+10	1	-1E+10	1	-1E+10	1	-1E+10	1	-1E+10	1	-1E+10	1
4901784	67	C	05/05/2017	10:49	-132.226	43.724	0	14.60	0	10.0100	0	32.8300	4	25.257	0	14.483	0	276.8	4	99.3	4	-1E+10	1	-1E+10	1	-1E+10	1	-1E+10	1	-1E+10	1	-1E+10	1
4901784	67	C	05/05/2017	10:49	-132.226	43.724	0	16.00	0	10.0120	0	32.8300	4	25.257	0	15.871	0	276.8	4	99.3	4	-1E+10	1	-1E+10	1	-1E+10	1	-1E+10	1	-1E+10	1	-1E+10	1
4901784	67	C	05/05/2017	10:49	-132.226	43.724	0	17.50	0	10.0120	0	32.8290	4	25.256	0	17.359	0	276.6	4	99.2	4	-1E+10	1	-1E+10	1	-1E+10	1	-1E+10	1	-1E+10	1	-1E+10	1
4901784	67	C	05/05/2017	10:49	-132.226	43.724	0	19.10	0	10.0130	0	32.8280	4	25.255	0	18.946	0	276.6	4	99.2	4	-1E+10	1	-1E+10	1	-1E+10	1	-1E+10	1	-1E+10	1	-1E+10	1
4901784	67	C	05/05/2017	10:49	-132.226	43.724	0	20.70	0	10.0140	0	32.8260	4	25.253	0	20.533	0	276.7	4	99.2	4	-1E+10	1	-1E+10	1	-1E+10	1	-1E+10	1	-1E+10	1	-1E+10	1
4901784	67	C	05/05/2017	10:49	-132.226	43.724	0	22.30	0	9.9900	0	32.8290	4	25.260	0	22.120	0	276.6	4	99.2	4	-1E+10	1	-1E+10	1	-1E+10	1	-1E+10	1	-1E+10	1	-1E+10	1
4901784	67	C	05/05/2017	10:49	-132.226	43.724	0	24.00	0	9.9350	0	32.8310	4	25.270	0	23.807	0	277.0	4	99.2	4	-1E+10	1	-1E+10	1	-1E+10	1	-1E+10	1	-1E+10	1	-1E+10	1
4901784	67	C	05/05/2017	10:49	-132.226	43.724	0	25.60	0	9.9280	0	32.8250	4	25.267	0	25.394	0	276.9	4	99.1	4	-1E+10	1	-1E+10	1	-1E+10	1	-1E+10	1	-1E+10	1	-1E+10	1
4901784	67	C	05/05/2017	10:49	-132.226	43.724	0	27.30	0	9.8100	0	32.8290	4	25.289	0	27.080	0	277.3	4	99.0	4	-1E+10	1	-1E+10	1	-1E+10	1	-1E+10	1	-1E+10	1	-1E+10	1
4901784	67	C	05/05/2017	10:49	-132.226	43.724	0	28.90	0	9.8130	0	32.8340	4	25.293	0	28.667	0	276.8	4	98.8	4	-1E+10	1	-1E+10	1	-1E+10	1	-1E+10	1	-1E+10	1	-1E+10	1
4901784	67	C	05/05/2017	10:49	-132.226	43.724	0	30.70	0	9.7570	0	32.8210	4	25.292	0	30.452	0	276.9	4	98.7	4	-1E+10	1	-1E+10	1	-1E+10	1	-1E+10	1	-1E+10	1	-1E+10	1
4901784	67	C	05/05/2017	10:49	-132.226	43.724	0	32.40	0	9.4290	0	32.8440	4	25.363	0	32.138	0	278.3	4	98.6	4	-1E+10	1	-1E+10	1	-1E+10	1	-1E+10	1	-1E+10	1	-1E+10	1
4901784	67	C	05/05/2017	10:49	-132.226	43.724	0	34.10	0	9.4930	0	32.8650	4	25.369	0	33.824	0	278.0	4	98.6	4	-1E+10	1	-1E+10	1	-1E+10	1	-1E+10	1	-1E+10	1	-1E+10	1
4901784	67	C	05/05/2017	10:49	-132.226	43.724	0	36.00	0	9.4810	0	32.8630	4	25.370	0	35.709	0	277.1	4	98.2	4	-1E+10	1	-1E+10	1	-1E+10	1	-1E+10	1	-1E+10	1	-1E+10	1
4901784	67	C	05/05/2017	10:49	-132.226	43.724	0	37.70	0	9.4490	0	32.8650	4	25.376	0	37.395	0	276.8	4	98.1	4	-1E+10	1	-1E+10	1	-1E+10	1	-1E+10	1	-1E+10	1	-1E+10	1
4901784	67	C	05/05/2017	10:49	-132.226	43.724	0	39.60	0	9.4400	0	32.8660	4	25.379	0	39.279	0	276.4	4	97.9	4	-1E+10	1	-1E+10	1	-1E+10	1	-1E+10	1	-1E+10	1	-1E+10	1
4901784	67	C	05/05/2017	10:49	-132.226	43.724	0	41.50	0	9.4130	0	32.8620	4	25.380	0	41.164	0	276.0	4	97.7	4	-1E+10	1	-1E+10	1	-1E+10	1	-1E+10	1	-1E+10	1	-1E+10	1
4901784	67	C	05/05/2017	10:49	-132.226	43.724	0	43.20	0	9.4060	0	32.8580	4	25.378	0	42.850	0	275.2	4	97.4	4	-1E+10	1	-1E+10	1	-1E+10	1	-1E+10	1	-1E+10	1	-1E+10	1
4901784	67	C	05/05/2017	10:49	-132.226	43.724	0	45.10	0	9.3130	0	32.8560	4	25.391	0	44.734	0	274.8	4	97.1	4	-1E+10	1	-1E+10	1	-1E+10	1	-1E+10	1	-1E+10	1	-1E+10	1
4901784	67	C	05/05/2017	10:49	-132.226	43.724	0	46.90	0	9.1540	0	32.8630	4	25.422	0	46.519	0	274.6	4	96.7	4	-1E+10	1	-1E+10	1	-1E+10	1	-1E+10	1	-1E+10	1	-1E+10	1
4901784	67	C	05/05/2017	10:49	-132.226	43.724	0	48.60	0	9.0150	0	32.8770	4	25.455	0	48.205	0	274.7	4	96.4	4	-1E+10	1	-1E+10	1	-1E+10	1	-1E+10	1	-1E+10	1	-1E+10	1
4901784	67	C	05/05/2017	10:49	-132.226	43.724	0	50.40	0	8.9590	0	32.8790	4	25.465	0	49.991	0	274.2	4	96.1	4	-1E+10	1	-1E+10	1	-1E+10	1	-1E+10	1	-1E+10	1	-1E+10	1
4901784	67	C	05/05/2017	10:49	-132.226	43.724	0	52.80	0	8.8650	0	32.8870	4	25.486	0	52.371	0	273.3	4	95.6	4	-1E+10	1	-1E+10	1	-1E+10	1	-1E+10	1	-1E+10	1	-1E+10	1
4901784	67	C	05/05/2017	10:49	-132.226	43.724	0	54.70	0	8.7890	0	32.8930	4	25.502	0	54.255	0	272.6	4	95.2	4	-1E+10	1	-1E+10	1	-1E+10	1	-1E+10	1	-1E+10	1	-1E+10	1
4901784	67	C	05/05/2017	10:49	-132.226	43.724	0	56.20	0	8.7240	0	32.8990	4	25.517	0	55.743	0	271.8	4	94.8	4	-1E+10	1	-1E+10	1	-1E+10	1	-1E+10	1	-1E+10	1	-1E+10	1
4901784	67	C	05/05/2017	10:49	-132.226	43.724	0	57.70	0	8.6310	0	32.9140	4	25.543	0	57.230	0	271.5	4	94.5	4	-1E+10	1	-1E+10	1	-1E+10	1	-1E+10	1	-1E+10	1	-1E+10	1
4901784	67	C	05/05/2017	10:49	-132.226	43.724	0	59.30	0	8.6100	0	32.9220	4	25.553	0	58.817	0	270.8	4	94.2	4	-1E+10	1	-1E+10	1	-1E+10	1	-1E+10	1	-1E+10	1	-1E+10	1
4901784	67	C	05/05/2017	10:49	-132.226	43.724	0	60.90	0	8.5650	0	32.9280	4	25.564	0	60.404	0	270.4	4	94.0	4	-1E+10	1	-1E+10	1	-1E+10	1	-1E+10	1	-1E+10	1	-1E+10	1
4901784	67	C	05/05/2017	10:49	-132.226	43.724	0	62.40	0	8.5470	0	32.9300	4	25.568	0	61.891	0	269.8	4	93.8	4	-1E+10	1	-1E+10	1	-1E+10	1	-1E+10	1	-1E+10	1	-1E+10	1
4901784	67	C	05/05/2017	10:49	-132.226	43.724	0	64.00	0	8.5360	0	32.9310	4	25.571	0	63.478	0	269.3	4	93.6	4	-1E+10	1	-1E+10	1	-1E+10	1	-1E+10	1	-1E+10	1	-1E+10	1
4901784	67	C	05/05/2017	10:49	-132.226	43.724	0	65.60	0	8.5070	0	32.9370	4	25.580	0	65.065	0	268.4	4	93.2	4	-1E+10	1	-1E+10	1	-1E+10	1	-1E+10	1	-1E+10	1	-1E+10	1
4901784	67	C	05/05/2017	10:49	-132.226	43.724	0	67.10	0	8.4940	0	32.9400	4	25.584	0	66.552	0	267.7	4	92.9	4	-1E+10	1	-1E+10	1	-1E+10	1	-1E+10	1	-1E+10	1	-1E+10	1
4901784	67	C	05/05/2017	10:49	-132.226	43.724	0	68.70	0	8.4900	0	32.9410	4	25.586	0	68.139	0	266.8	4	92.6	4	-1E+10	1	-1E+10	1	-1E+10	1	-1E+10	1	-1E+10	1	-1E+10	1
4901784	67	C	05/05/2017	10:49	-132.226	43.724	0	70.30	0	8.4820	0	32.9450	4	25.590	0	69.726	0	265.5	4	92.2	4	-1E+10	1	-1E+10	1	-1E+10	1	-1E+10	1	-1E+10	1	-1E+10	1
4901784	67	C	05/05/2017	10:49	-132.226	43.724	0	72.00	0	8.4690	0	32.9640	4	25.607	0	71.411	0	263.7	4	91.5	4	-1E+10	1	-1E+10	1	-1E+10	1	-1E+10	1	-1E+10	1	-1E+10	1
4901784	67	C	05/05/2017	10:49	-132.226	43.724	0	73.60	0	8.4690	0	32.9700	4	25.612	0	72.998	0	262.6	4	91.1	4	-1E+10	1	-1E+10	1	-1E+10	1	-1E+10	1	-1E+10	1	-1E+10	1
4901784	67	C	05/05/2017	10:49	-132.226	43.724	0	75.30	0	8.4680	0	32.9740	4	25.615	0	74.684	0	261.0	4	90.6	4	-1E+10	1	-1E+10	1	-1E+10	1	-1E+10	1	-1E+10	1	-1E+10	1
4901784	67	C	05/05/2017	10:49	-132.226	43.724	0	77.00	0	8.4680	0	32.9860	4	25.624	0	76.370	0	258.9	4	89.8	4	-1E+10	1	-1E+10	1	-1E+10	1	-1E+10	1	-1E+10	1	-1E+10	1
4901784	67	C	05/05/2017	10:49	-132.226	43.724	0	78.60	0	8.4740	0	33.0130	4	25.645	0	77.956	0	257.1	4	89.3	4	-1E+10	1	-1E+10	1	-1E+10	1	-1E+10	1	-1E+10	1	-1E+10	1
4901784	67	C	05/05/2017	10:49	-132.226	43.724	0	80.30	0	8.4740	0	33.0230	4	25.653	0	79.642	0	255.5	4	88.7	4	-1E+10	1	-1E+10	1	-1E+10	1	-1E+10	1	-1E+10	1	-1E+10	1
4901784	67	C	05/05/2017	10:49	-132.226	43.724	0	82.00	0	8.4810	0	33.0550	4	25.677	0	81.328	0	253.7	4	88.1	4	-1E+10	1	-1E+10	1	-1E+10	1	-1E+10	1	-1E+10	1	-1E+10	1
4901784	67	C	05/05/2017	10:49	-132.226	43.724	0	83.70	0	8.4820	0	33.0650	4	25.684	0	83.014	0	252.6	4	87.7	4	-1E+10	1	-1E+10	1	-1E+10	1	-1E+10	1	-1E+10	1	-1E+10	1
4901784	67	C	05/05/2017	10:49	-132.226	43.724	0	85.50	0	8.4820	0	33.0650	4	25.684	0	84.798	0	251.4	4	87.3	4	-1E+10	1	-1E+10	1	-1E+10	1	-1E+10	1	-1E+10	1	-1E+10	1
4901784	67	C	05/05/2017	10:49	-132.226	43.724	0	87.20	0	8.4820	0	33.0670	4	25.686	0	86.484	0	249.8	4	86.8	4	-1E+10	1	-1E+10	1	-1E+10	1	-1E+10	1	-1E+10	1	-1E+10	1
4901784	67	C	05/05/2017	10:49	-132.226	43.724	0	88.80	0	8.4830	0	33.0700	4	25.688	0	88.071	0	247.7	4	86.1	4	-1E+10	1	-1E+10	1	-1E+10	1	-1E+10	1	-1E+10	1	-1E+10	1
4901784	67	C	05/05/2017	10:49	-132.226	43.724	0	90.40	0	8.4850	0	33.0810	4	25.697	0	89.657	0	244.9	4	85.1	4	-1E+10	1	-1E+10	1	-1E+10	1	-1E+10	1	-1E+10	1	-1E+10	1
4901784	67	C	05/05/2017	10:49	-132.226	43.724	0	92.30	0	8.4890	0	33.0980	4	25.709	0	91.541	0	241.5	4	83.9	4	-1E+10	1	-1E+10	1	-1E+10	1	-1E+10	1	-1E+10	1	-1E+10	1
4901784	67	C	05/05/2017	10:49	-132.226	43.724	0	92.80	0	8.4900	0	33.1130	4	25.721	0	92.037	0	239.8	4	83.4	4	-1E+10	1	-1E+10	1	-1E+10	1	-1E+10	1	-1E+10	1	-1E+10	1
4901784	67	C	05/05/2017	10:49	-132.226	43.724	0	94.30	0	8.4910	0	33.1400	4	25.742	0	93.524	0	236.0	4	82.0	4	-1E+10	1	-1E+10	1	-1E+10	1	-1E+10	1	-1E+10	1	-1E+10	1
4901784	67	C	05/05/2017	10:49	-132.226	43.724	0	95.70	0	8.5300	0	33.1800	4	25.767	0	94.912	0	231.6	4	80.6	4	-1E+10	1	-1E+10	1	-1E+10	1	-1E+10	1	-1E+10	1	-1E+10	1
4901784	67	C	05/05/2017	10:49	-132.226	43.724	0	97.10	0	8.5490	0	33.2140	4	25.791	0	96.300	0	227.0	4	79.1	4	-1E+10	1	-1E+10	1	-1E+10	1	-1E+10	1	-1E+10	1	-1E+10	1
4901784	67	C	05/05/2017	10:49	-132.226	43.724	0	98.60	0	8.5770	0	33.3060	4	25.859	0	97.788	0	222.9	4	77.7	4	-1E+10	1	-1E+10	1	-1E+10	1	-1E+10	1	-1E+10	1	-1E+10	1
4901784	67	C	05/05/2017	10:49	-132.226	43.724	0	100.10	0	8.5860	0	33.3210	4	25.870	0	99.275	0	219.7	4	76.6	4	-1E+10	1	-1E+10	1	-1E+10	1	-1E+10	1	-1E+10	1	-1E+10	1
4901784	67	C	05/05/2017	10:49	-132.226	43.724	0	102.40	0	8.6150	0	33.4210	4	25.944	0	101.556	0	215.4	4	75.2	4	-1E+10	1	-1E+10	1	-1E+10	1	-1E+10	1	-1E+10	1	-1E+10	1
4901784	67	C	05/05/2017	10:49	-132.226	43.724	0	104.90	0	8.6200	0	33.4640	4	25.977	0	104.034	0	212.5	4	74.3	4	-1E+10	1	-1E+10	1	-1E+10	1	-1E+10	1	-1E+10	1	-1E+10	1
4901784	67	C	05/05/2017	10:49	-132.226	43.724	0	107.30	0	8.6230	0	33.4850	4	25.993	0	106.414	0	209.4	4	73.2	4	-1E+10	1	-1E+10	1	-1E+10	1	-1E+10	1	-1E+10	1	-1E+10	1
4901784	67	C	05/05/2017	10:49	-132.226	43.724	0	109.70	0	8.6310	0	33.5310	4	26.027	0	108.793	0	206.2	4	72.1	4	-1E+10	1	-1E+10	1	-1E+10	1	-1E+10	1	-1E+10	1	-1E+10	1
4901784	67	C	05/05/2017	10:49	-132.226	43.724	0	112.20	0	8.6340	0	33.5430	4	26.036	0	111.272	0	202.9	4	71.0	4	-1E+10	1	-1E+10	1	-1E+10	1	-1E+10	1	-1E+10	1	-1E+10	1
4901784	67	C	05/05/2017	10:49	-132.226	43.724	0	114.70	0	8.6420	0	33.5900	4	26.072	0	113.751	0	198.7	4	69.6	4	-1E+10	1	-1E+10	1	-1E+10	1	-1E+10	1	-1E+10	1	-1E+10	1
4901784	67	C	05/05/2017	10:49	-132.226	43.724	0	117.50	0	8.6470	0	33.6550	4	26.122	0	116.527	0	194.1	4	68.0	4	-1E+10	1	-1E+10	1	-1E+10	1	-1E+10	1	-1E+10	1	-1E+10	1
4901784	67	C	05/05/2017	10:49	-132.226	43.724	0	120.20	0	8.6560	0	33.7360	4	26.184	0	119.204	0	190.9	4	66.9	4	-1E+10	1	-1E+10	1	-1E+10	1	-1E+10	1	-1E+10	1	-1E+10	1
4901784	67	C	05/05/2017	10:49	-132.226	43.724	0	122.10	0	8.6340	0	33.7710	4	26.215	0	121.087	0	189.8	4	66.5	4	-1E+10	1	-1E+10	1	-1E+10	1	-1E+10	1	-1E+10	1	-1E+10	1
4901784	67	C	05/05/2017	10:49	-132.226	43.724	0	124.90	0	8.6420	0	33.8070	4	26.242	0	123.863	0	188.5	4	66.1	4	-1E+10	1	-1E+10	1	-1E+10	1	-1E+10	1	-1E+10	1	-1E+10	1
4901784	67	C	05/05/2017	10:49	-132.226	43.724	0	127.60	0	8.6340	0	33.8170	4	26.251	0	126.540	0	187.2	4	65.6	4	-1E+10	1	-1E+10	1	-1E+10	1	-1E+10	1	-1E+10	1	-1E+10	1
4901784	67	C	05/05/2017	10:49	-132.226	43.724	0	130.30	0	8.6010	0	33.8390	4	26.274	0	129.217	0	185.9	4	65.1	4	-1E+10	1	-1E+10	1	-1E+10	1	-1E+10	1	-1E+10	1	-1E+10	1
4901784	67	C	05/05/2017	10:49	-132.226	43.724	0	133.00	0	8.5850	0	33.8500	4	26.285	0	131.893	0	184.9	4	64.7	4	-1E+10	1	-1E+10	1	-1E+10	1	-1E+10	1	-1E+10	1	-1E+10	1
4901784	67	C	05/05/2017	10:49	-132.226	43.724	0	134.80	0	8.5860	0	33.8540	4	26.288	0	133.678	0	184.0	4	64.4	4	-1E+10	1	-1E+10	1	-1E+10	1	-1E+10	1	-1E+10	1	-1E+10	1
4901784	67	C	05/05/2017	10:49	-132.226	43.724	0	137.60	0	8.5510	0	33.8770	4	26.311	0	136.454	0	182.6	4	63.9	4	-1E+10	1	-1E+10	1	-1E+10	1	-1E+10	1	-1E+10	1	-1E+10	1
4901784	67	C	05/05/2017	10:49	-132.226	43.724	0	140.30	0	8.5020	0	33.8990	4	26.336	0	139.130	0	181.6	4	63.5	4	-1E+10	1	-1E+10	1	-1E+10	1	-1E+10	1	-1E+10	1	-1E+10	1
4901784	67	C	05/05/2017	10:49	-132.226	43.724	0	142.10	0	8.4530	0	33.9270	4	26.366	0	140.915	0	181.5	4	63.4	4	-1E+10	1	-1E+10	1	-1E+10	1	-1E+10	1	-1E+10	1	-1E+10	1
4901784	67	C	05/05/2017	10:49	-132.226	43.724	0	145.00	0	8.4370	0	33.9340	4	26.374	0	143.789	0	181.7	4	63.5	4	-1E+10	1	-1E+10	1	-1E+10	1	-1E+10	1	-1E+10	1	-1E+10	1
4901784	67	C	05/05/2017	10:49	-132.226	43.724	0	147.70	0	8.4180	0	33.9520	4	26.391	0	146.466	0	181.6	4	63.4	4	-1E+10	1	-1E+10	1	-1E+10	1	-1E+10	1	-1E+10	1	-1E+10	1
4901784	67	C	05/05/2017	10:49	-132.226	43.724	0	149.60	0	8.3770	0	33.9640	4	26.406	0	148.349	0	181.4	4	63.3	4	-1E+10	1	-1E+10	1	-1E+10	1	-1E+10	1	-1E+10	1	-1E+10	1
4901784	67	C	05/05/2017	10:49	-132.226	43.724	0	152.40	0	8.3530	0	33.9670	4	26.412	0	151.125	0	180.8	4	63.0	4	-1E+10	1	-1E+10	1	-1E+10	1	-1E+10	1	-1E+10	1	-1E+10	1
4901784	67	C	05/05/2017	10:49	-132.226	43.724	0	155.30	0	8.3300	0	33.9680	4	26.417	0	154.000	0	180.3	4	62.8	4	-1E+10	1	-1E+10	1	-1E+10	1	-1E+10	1	-1E+10	1	-1E+10	1
4901784	67	C	05/05/2017	10:49	-132.226	43.724	0	157.20	0	8.2890	0	33.9720	4	26.426	0	155.883	0	179.9	4	62.7	4	-1E+10	1	-1E+10	1	-1E+10	1	-1E+10	1	-1E+10	1	-1E+10	1
4901784	67	C	05/05/2017	10:49	-132.226	43.724	0	160.10	0	8.2610	0	33.9770	4	26.434	0	158.758	0	179.5	4	62.5	4	-1E+10	1	-1E+10	1	-1E+10	1	-1E+10	1	-1E+10	1	-1E+10	1
4901784	67	C	05/05/2017	10:49	-132.226	43.724	0	162.90	0	8.2280	0	33.9820	4	26.443	0	161.533	0	178.9	4	62.2	4	-1E+10	1	-1E+10	1	-1E+10	1	-1E+10	1	-1E+10	1	-1E+10	1
4901784	67	C	05/05/2017	10:49	-132.226	43.724	0	164.70	0	8.2230	0	33.9800	4	26.442	0	163.317	0	178.4	4	62.0	4	-1E+10	1	-1E+10	1	-1E+10	1	-1E+10	1	-1E+10	1	-1E+10	1
4901784	67	C	05/05/2017	10:49	-132.226	43.724	0	167.50	0	8.1990	0	33.9820	4	26.447	0	166.093	0	177.3	4	61.6	4	-1E+10	1	-1E+10	1	-1E+10	1	-1E+10	1	-1E+10	1	-1E+10	1
4901784	67	C	05/05/2017	10:49	-132.226	43.724	0	170.30	0	8.1530	0	33.9850	4	26.457	0	168.868	0	176.0	4	61.1	4	-1E+10	1	-1E+10	1	-1E+10	1	-1E+10	1	-1E+10	1	-1E+10	1
4901784	67	C	05/05/2017	10:49	-132.226	43.724	0	172.10	0	8.1150	0	33.9850	4	26.462	0	170.652	0	175.1	4	60.8	4	-1E+10	1	-1E+10	1	-1E+10	1	-1E+10	1	-1E+10	1	-1E+10	1
4901784	67	C	05/05/2017	10:49	-132.226	43.724	0	174.80	0	8.0930	0	33.9870	4	26.467	0	173.328	0	173.5	4	60.2	4	-1E+10	1	-1E+10	1	-1E+10	1	-1E+10	1	-1E+10	1	-1E+10	1
4901784	67	C	05/05/2017	10:49	-132.226	43.724	0	177.50	0	8.0780	0	33.9900	4	26.472	0	176.004	0	171.4	4	59.4	4	-1E+10	1	-1E+10	1	-1E+10	1	-1E+10	1	-1E+10	1	-1E+10	1
4901784	67	C	05/05/2017	10:49	-132.226	43.724	0	179.50	0	8.0450	0	34.0000	4	26.485	0	177.987	0	169.6	4	58.7	4	-1E+10	1	-1E+10	1	-1E+10	1	-1E+10	1	-1E+10	1	-1E+10	1
4901784	67	C	05/05/2017	10:49	-132.226	43.724	0	182.40	0	7.8760	0	33.9910	4	26.503	0	180.861	0	168.1	4	58.0	4	-1E+10	1	-1E+10	1	-1E+10	1	-1E+10	1	-1E+10	1	-1E+10	1
4901784	67	C	05/05/2017	10:49	-132.226	43.724	0	185.30	0	7.8270	0	33.9940	4	26.512	0	183.735	0	167.1	4	57.6	4	-1E+10	1	-1E+10	1	-1E+10	1	-1E+10	1	-1E+10	1	-1E+10	1
4901784	67	C	05/05/2017	10:49	-132.226	43.724	0	187.30	0	7.8770	0	34.0080	4	26.516	0	185.717	0	166.1	4	57.3	4	-1E+10	1	-1E+10	1	-1E+10	1	-1E+10	1	-1E+10	1	-1E+10	1
4901784	67	C	05/05/2017	10:49	-132.226	43.724	0	189.70	0	7.8150	0	34.0110	4	26.527	0	188.096	0	164.6	4	56.7	4	-1E+10	1	-1E+10	1	-1E+10	1	-1E+10	1	-1E+10	1	-1E+10	1
4901784	67	C	05/05/2017	10:49	-132.226	43.724	0	192.50	0	7.7410	0	34.0080	4	26.536	0	190.871	0	163.0	4	56.1	4	-1E+10	1	-1E+10	1	-1E+10	1	-1E+10	1	-1E+10	1	-1E+10	1
4901784	67	C	05/05/2017	10:49	-132.226	43.724	0	194.90	0	7.6750	0	34.0060	4	26.544	0	193.249	0	161.8	4	55.6	4	-1E+10	1	-1E+10	1	-1E+10	1	-1E+10	1	-1E+10	1	-1E+10	1
4901784	67	C	05/05/2017	10:49	-132.226	43.724	0	197.40	0	7.6280	0	34.0040	4	26.549	0	195.727	0	160.8	4	55.2	4	-1E+10	1	-1E+10	1	-1E+10	1	-1E+10	1	-1E+10	1	-1E+10	1
4901784	67	C	05/05/2017	10:49	-132.226	43.724	0	199.80	0	7.5870	0	34.0030	4	26.554	0	198.106	0	159.7	4	54.8	4	-1E+10	1	-1E+10	1	-1E+10	1	-1E+10	1	-1E+10	1	-1E+10	1
4901784	67	C	05/05/2017	10:49	-132.226	43.724	0	202.20	0	7.5570	0	34.0030	4	26.558	0	200.484	0	158.8	4	54.4	4	-1E+10	1	-1E+10	1	-1E+10	1	-1E+10	1	-1E+10	1	-1E+10	1
4901784	67	C	05/05/2017	10:49	-132.226	43.724	0	204.70	0	7.5250	0	34.0010	4	26.561	0	202.962	0	157.8	4	54.0	4	-1E+10	1	-1E+10	1	-1E+10	1	-1E+10	1	-1E+10	1	-1E+10	1
4901784	67	C	05/05/2017	10:49	-132.226	43.724	0	207.20	0	7.4710	0	34.0000	4	26.568	0	205.439	0	156.9	4	53.6	4	-1E+10	1	-1E+10	1	-1E+10	1	-1E+10	1	-1E+10	1	-1E+10	1
4901784	67	C	05/05/2017	10:49	-132.226	43.724	0	209.80	0	7.4530	0	33.9970	4	26.569	0	208.016	0	155.7	4	53.2	4	-1E+10	1	-1E+10	1	-1E+10	1	-1E+10	1	-1E+10	1	-1E+10	1
4901784	67	C	05/05/2017	10:49	-132.226	43.724	0	212.30	0	7.4030	0	33.9970	4	26.576	0	210.493	0	154.4	4	52.7	4	-1E+10	1	-1E+10	1	-1E+10	1	-1E+10	1	-1E+10	1	-1E+10	1
4901784	67	C	05/05/2017	10:49	-132.226	43.724	0	214.80	0	7.3780	0	33.9940	4	26.577	0	212.971	0	153.0	4	52.2	4	-1E+10	1	-1E+10	1	-1E+10	1	-1E+10	1	-1E+10	1	-1E+10	1
4901784	67	C	05/05/2017	10:49	-132.226	43.724	0	217.30	0	7.3270	0	33.9930	4	26.583	0	215.448	0	151.4	4	51.6	4	-1E+10	1	-1E+10	1	-1E+10	1	-1E+10	1	-1E+10	1	-1E+10	1
4901784	67	C	05/05/2017	10:49	-132.226	43.724	0	219.80	0	7.2720	0	33.9900	4	26.589	0	217.925	0	149.6	4	50.9	4	-1E+10	1	-1E+10	1	-1E+10	1	-1E+10	1	-1E+10	1	-1E+10	1
4901784	67	C	05/05/2017	10:49	-132.226	43.724	0	222.30	0	7.2140	0	33.9900	4	26.597	0	220.403	0	147.7	4	50.2	4	-1E+10	1	-1E+10	1	-1E+10	1	-1E+10	1	-1E+10	1	-1E+10	1
4901784	67	C	05/05/2017	10:49	-132.226	43.724	0	224.80	0	7.1460	0	33.9900	4	26.606	0	222.880	0	145.5	4	49.4	4	-1E+10	1	-1E+10	1	-1E+10	1	-1E+10	1	-1E+10	1	-1E+10	1
4901784	67	C	05/05/2017	10:49	-132.226	43.724	0	227.30	0	7.0510	0	33.9850	4	26.615	0	225.357	0	144.0	4	48.8	4	-1E+10	1	-1E+10	1	-1E+10	1	-1E+10	1	-1E+10	1	-1E+10	1
4901784	67	C	05/05/2017	10:49	-132.226	43.724	0	229.80	0	7.0000	0	33.9850	4	26.622	0	227.835	0	143.4	4	48.5	4	-1E+10	1	-1E+10	1	-1E+10	1	-1E+10	1	-1E+10	1	-1E+10	1
4901784	67	C	05/05/2017	10:49	-132.226	43.724	0	232.30	0	6.9860	0	33.9850	4	26.624	0	230.312	0	142.6	4	48.2	4	-1E+10	1	-1E+10	1	-1E+10	1	-1E+10	1	-1E+10	1	-1E+10	1
4901784	67	C	05/05/2017	10:49	-132.226	43.724	0	234.90	0	6.9740	0	33.9840	4	26.625	0	232.888	0	141.5	4	47.8	4	-1E+10	1	-1E+10	1	-1E+10	1	-1E+10	1	-1E+10	1	-1E+10	1
4901784	67	C	05/05/2017	10:49	-132.226	43.724	0	237.40	0	6.9280	0	33.9850	4	26.632	0	235.365	0	139.8	4	47.2	4	-1E+10	1	-1E+10	1	-1E+10	1	-1E+10	1	-1E+10	1	-1E+10	1
4901784	67	C	05/05/2017	10:49	-132.226	43.724	0	239.90	0	6.8580	0	33.9800	4	26.638	0	237.842	0	138.2	4	46.6	4	-1E+10	1	-1E+10	1	-1E+10	1	-1E+10	1	-1E+10	1	-1E+10	1
4901784	67	C	05/05/2017	10:49	-132.226	43.724	0	242.50	0	6.8120	0	33.9820	4	26.646	0	240.419	0	136.8	4	46.1	4	-1E+10	1	-1E+10	1	-1E+10	1	-1E+10	1	-1E+10	1	-1E+10	1
4901784	67	C	05/05/2017	10:49	-132.226	43.724	0	245.00	0	6.7510	0	33.9830	4	26.655	0	242.896	0	135.5	4	45.6	4	-1E+10	1	-1E+10	1	-1E+10	1	-1E+10	1	-1E+10	1	-1E+10	1
4901784	67	C	05/05/2017	10:49	-132.226	43.724	0	247.60	0	6.7270	0	33.9820	4	26.657	0	245.472	0	134.0	4	45.1	4	-1E+10	1	-1E+10	1	-1E+10	1	-1E+10	1	-1E+10	1	-1E+10	1
4901784	67	C	05/05/2017	10:49	-132.226	43.724	0	250.10	0	6.6970	0	33.9810	4	26.660	0	247.949	0	132.4	4	44.5	4	-1E+10	1	-1E+10	1	-1E+10	1	-1E+10	1	-1E+10	1	-1E+10	1
4901784	67	C	05/05/2017	10:49	-132.226	43.724	0	252.80	0	6.6480	0	33.9790	4	26.665	0	250.624	0	130.7	4	43.9	4	-1E+10	1	-1E+10	1	-1E+10	1	-1E+10	1	-1E+10	1	-1E+10	1
4901784	67	C	05/05/2017	10:49	-132.226	43.724	0	255.50	0	6.6190	0	33.9750	4	26.666	0	253.299	0	128.7	4	43.2	4	-1E+10	1	-1E+10	1	-1E+10	1	-1E+10	1	-1E+10	1	-1E+10	1
4901784	67	C	05/05/2017	10:49	-132.226	43.724	0	257.20	0	6.5350	0	33.9790	4	26.680	0	254.983	0	127.3	4	42.6	4	-1E+10	1	-1E+10	1	-1E+10	1	-1E+10	1	-1E+10	1	-1E+10	1
4901784	67	C	05/05/2017	10:49	-132.226	43.724	0	259.80	0	6.4840	0	33.9790	4	26.687	0	257.559	0	125.7	4	42.0	4	-1E+10	1	-1E+10	1	-1E+10	1	-1E+10	1	-1E+10	1	-1E+10	1
4901784	67	C	05/05/2017	10:49	-132.226	43.724	0	262.40	0	6.4310	0	33.9770	4	26.692	0	260.135	0	124.0	4	41.4	4	-1E+10	1	-1E+10	1	-1E+10	1	-1E+10	1	-1E+10	1	-1E+10	1
4901784	67	C	05/05/2017	10:49	-132.226	43.724	0	265.10	0	6.3740	0	33.9800	4	26.702	0	262.810	0	122.4	4	40.8	4	-1E+10	1	-1E+10	1	-1E+10	1	-1E+10	1	-1E+10	1	-1E+10	1
4901784	67	C	05/05/2017	10:49	-132.226	43.724	0	267.70	0	6.3100	0	33.9790	4	26.710	0	265.386	0	121.1	4	40.3	4	-1E+10	1	-1E+10	1	-1E+10	1	-1E+10	1	-1E+10	1	-1E+10	1
4901784	67	C	05/05/2017	10:49	-132.226	43.724	0	269.50	0	6.2940	0	33.9790	4	26.712	0	267.170	0	120.3	4	40.0	4	-1E+10	1	-1E+10	1	-1E+10	1	-1E+10	1	-1E+10	1	-1E+10	1
4901784	67	C	05/05/2017	10:49	-132.226	43.724	0	272.20	0	6.2690	0	33.9770	4	26.713	0	269.844	0	118.9	4	39.5	4	-1E+10	1	-1E+10	1	-1E+10	1	-1E+10	1	-1E+10	1	-1E+10	1
4901784	67	C	05/05/2017	10:49	-132.226	43.724	0	274.90	0	6.2320	0	33.9770	4	26.718	0	272.519	0	117.1	4	38.9	4	-1E+10	1	-1E+10	1	-1E+10	1	-1E+10	1	-1E+10	1	-1E+10	1
4901784	67	C	05/05/2017	10:49	-132.226	43.724	0	277.60	0	6.1760	0	33.9760	4	26.724	0	275.194	0	115.1	4	38.2	4	-1E+10	1	-1E+10	1	-1E+10	1	-1E+10	1	-1E+10	1	-1E+10	1
4901784	67	C	05/05/2017	10:49	-132.226	43.724	0	280.30	0	6.0790	0	33.9780	4	26.738	0	277.869	0	113.2	4	37.5	4	-1E+10	1	-1E+10	1	-1E+10	1	-1E+10	1	-1E+10	1	-1E+10	1
4901784	67	C	05/05/2017	10:49	-132.226	43.724	0	282.10	0	6.0400	0	33.9800	4	26.745	0	279.652	0	112.2	4	37.1	4	-1E+10	1	-1E+10	1	-1E+10	1	-1E+10	1	-1E+10	1	-1E+10	1
4901784	67	C	05/05/2017	10:49	-132.226	43.724	0	284.70	0	5.9740	0	33.9810	4	26.754	0	282.228	0	111.0	4	36.7	4	-1E+10	1	-1E+10	1	-1E+10	1	-1E+10	1	-1E+10	1	-1E+10	1
4901784	67	C	05/05/2017	10:49	-132.226	43.724	0	287.40	0	5.9510	0	33.9800	4	26.756	0	284.902	0	110.2	4	36.4	4	-1E+10	1	-1E+10	1	-1E+10	1	-1E+10	1	-1E+10	1	-1E+10	1
4901784	67	C	05/05/2017	10:49	-132.226	43.724	0	290.10	0	5.9080	0	33.9820	4	26.763	0	287.577	0	109.2	4	36.0	4	-1E+10	1	-1E+10	1	-1E+10	1	-1E+10	1	-1E+10	1	-1E+10	1
4901784	67	C	05/05/2017	10:49	-132.226	43.724	0	292.70	0	5.8870	0	33.9820	4	26.766	0	290.153	0	108.7	4	35.8	4	-1E+10	1	-1E+10	1	-1E+10	1	-1E+10	1	-1E+10	1	-1E+10	1
4901784	67	C	05/05/2017	10:49	-132.226	43.724	0	294.50	0	5.8830	0	33.9820	4	26.766	0	291.936	0	108.2	4	35.7	4	-1E+10	1	-1E+10	1	-1E+10	1	-1E+10	1	-1E+10	1	-1E+10	1
4901784	67	C	05/05/2017	10:49	-132.226	43.724	0	297.20	0	5.8690	0	33.9820	4	26.768	0	294.610	0	107.4	4	35.4	4	-1E+10	1	-1E+10	1	-1E+10	1	-1E+10	1	-1E+10	1	-1E+10	1
4901784	67	C	05/05/2017	10:49	-132.226	43.724	0	299.90	0	5.8430	0	33.9840	4	26.773	0	297.285	0	106.4	4	35.1	4	-1E+10	1	-1E+10	1	-1E+10	1	-1E+10	1	-1E+10	1	-1E+10	1
4901784	67	C	05/05/2017	10:49	-132.226	43.724	0	302.60	0	5.8260	0	33.9820	4	26.773	0	299.959	0	105.7	4	34.8	4	-1E+10	1	-1E+10	1	-1E+10	1	-1E+10	1	-1E+10	1	-1E+10	1
4901784	67	C	05/05/2017	10:49	-132.226	43.724	0	305.30	0	5.8050	0	33.9830	4	26.777	0	302.634	0	104.7	4	34.5	4	-1E+10	1	-1E+10	1	-1E+10	1	-1E+10	1	-1E+10	1	-1E+10	1
4901784	67	C	05/05/2017	10:49	-132.226	43.724	0	307.00	0	5.7840	0	33.9830	4	26.779	0	304.318	0	104.1	4	34.2	4	-1E+10	1	-1E+10	1	-1E+10	1	-1E+10	1	-1E+10	1	-1E+10	1
4901784	67	C	05/05/2017	10:49	-132.226	43.724	0	309.70	0	5.7770	0	33.9840	4	26.781	0	306.992	0	103.1	4	33.9	4	-1E+10	1	-1E+10	1	-1E+10	1	-1E+10	1	-1E+10	1	-1E+10	1
4901784	67	C	05/05/2017	10:49	-132.226	43.724	0	312.30	0	5.7380	0	33.9850	4	26.786	0	309.567	0	102.0	4	33.5	4	-1E+10	1	-1E+10	1	-1E+10	1	-1E+10	1	-1E+10	1	-1E+10	1
4901784	67	C	05/05/2017	10:49	-132.226	43.724	0	315.10	0	5.7230	0	33.9840	4	26.788	0	312.341	0	101.2	4	33.2	4	-1E+10	1	-1E+10	1	-1E+10	1	-1E+10	1	-1E+10	1	-1E+10	1
4901784	67	C	05/05/2017	10:49	-132.226	43.724	0	317.70	0	5.7160	0	33.9830	4	26.788	0	314.916	0	100.3	4	32.9	4	-1E+10	1	-1E+10	1	-1E+10	1	-1E+10	1	-1E+10	1	-1E+10	1
4901784	67	C	05/05/2017	10:49	-132.226	43.724	0	319.60	0	5.7010	0	33.9840	4	26.790	0	316.798	0	99.5	4	32.7	4	-1E+10	1	-1E+10	1	-1E+10	1	-1E+10	1	-1E+10	1	-1E+10	1
4901784	67	C	05/05/2017	10:49	-132.226	43.724	0	322.30	0	5.6830	0	33.9840	4	26.792	0	319.472	0	98.1	4	32.2	4	-1E+10	1	-1E+10	1	-1E+10	1	-1E+10	1	-1E+10	1	-1E+10	1
4901784	67	C	05/05/2017	10:49	-132.226	43.724	0	325.00	0	5.6400	0	33.9860	4	26.799	0	322.146	0	96.7	4	31.7	4	-1E+10	1	-1E+10	1	-1E+10	1	-1E+10	1	-1E+10	1	-1E+10	1
4901784	67	C	05/05/2017	10:49	-132.226	43.724	0	327.70	0	5.6230	0	33.9860	4	26.801	0	324.821	0	95.7	4	31.4	4	-1E+10	1	-1E+10	1	-1E+10	1	-1E+10	1	-1E+10	1	-1E+10	1
4901784	67	C	05/05/2017	10:49	-132.226	43.724	0	330.40	0	5.6080	0	33.9860	4	26.803	0	327.495	0	94.5	4	31.0	4	-1E+10	1	-1E+10	1	-1E+10	1	-1E+10	1	-1E+10	1	-1E+10	1
4901784	67	C	05/05/2017	10:49	-132.226	43.724	0	332.10	0	5.5880	0	33.9880	4	26.807	0	329.178	0	93.5	4	30.6	4	-1E+10	1	-1E+10	1	-1E+10	1	-1E+10	1	-1E+10	1	-1E+10	1
4901784	67	C	05/05/2017	10:49	-132.226	43.724	0	334.80	0	5.5490	0	33.9880	4	26.812	0	331.853	0	92.1	4	30.1	4	-1E+10	1	-1E+10	1	-1E+10	1	-1E+10	1	-1E+10	1	-1E+10	1
4901784	67	C	05/05/2017	10:49	-132.226	43.724	0	337.50	0	5.4890	0	33.9920	4	26.822	0	334.527	0	91.0	4	29.7	4	-1E+10	1	-1E+10	1	-1E+10	1	-1E+10	1	-1E+10	1	-1E+10	1
4901784	67	C	05/05/2017	10:49	-132.226	43.724	0	339.40	0	5.4720	0	33.9920	4	26.824	0	336.408	0	90.7	4	29.6	4	-1E+10	1	-1E+10	1	-1E+10	1	-1E+10	1	-1E+10	1	-1E+10	1
4901784	67	C	05/05/2017	10:49	-132.226	43.724	0	342.20	0	5.4480	0	33.9940	4	26.829	0	339.181	0	90.2	4	29.4	4	-1E+10	1	-1E+10	1	-1E+10	1	-1E+10	1	-1E+10	1	-1E+10	1
4901784	67	C	05/05/2017	10:49	-132.226	43.724	0	345.10	0	5.4170	0	33.9960	4	26.834	0	342.053	0	89.6	4	29.2	4	-1E+10	1	-1E+10	1	-1E+10	1	-1E+10	1	-1E+10	1	-1E+10	1
4901784	67	C	05/05/2017	10:49	-132.226	43.724	0	347.00	0	5.4100	0	33.9970	4	26.836	0	343.935	0	89.3	4	29.1	4	-1E+10	1	-1E+10	1	-1E+10	1	-1E+10	1	-1E+10	1	-1E+10	1
4901784	67	C	05/05/2017	10:49	-132.226	43.724	0	349.80	0	5.4020	0	33.9980	4	26.838	0	346.708	0	88.8	4	29.0	4	-1E+10	1	-1E+10	1	-1E+10	1	-1E+10	1	-1E+10	1	-1E+10	1
4901784	67	C	05/05/2017	10:49	-132.226	43.724	0	352.60	0	5.3930	0	33.9970	4	26.838	0	349.481	0	88.5	4	28.8	4	-1E+10	1	-1E+10	1	-1E+10	1	-1E+10	1	-1E+10	1	-1E+10	1
4901784	67	C	05/05/2017	10:49	-132.226	43.724	0	354.40	0	5.3810	0	33.9990	4	26.841	0	351.263	0	88.3	4	28.8	4	-1E+10	1	-1E+10	1	-1E+10	1	-1E+10	1	-1E+10	1	-1E+10	1
4901784	67	C	05/05/2017	10:49	-132.226	43.724	0	357.20	0	5.3630	0	34.0010	4	26.845	0	354.036	0	87.9	4	28.6	4	-1E+10	1	-1E+10	1	-1E+10	1	-1E+10	1	-1E+10	1	-1E+10	1
4901784	67	C	05/05/2017	10:49	-132.226	43.724	0	360.10	0	5.3380	0	34.0040	4	26.850	0	356.908	0	87.5	4	28.5	4	-1E+10	1	-1E+10	1	-1E+10	1	-1E+10	1	-1E+10	1	-1E+10	1
4901784	67	C	05/05/2017	10:49	-132.226	43.724	0	361.90	0	5.3380	0	34.0030	4	26.849	0	358.691	0	87.3	4	28.4	4	-1E+10	1	-1E+10	1	-1E+10	1	-1E+10	1	-1E+10	1	-1E+10	1
4901784	67	C	05/05/2017	10:49	-132.226	43.724	0	364.80	0	5.3370	0	34.0030	4	26.849	0	361.562	0	86.6	4	28.2	4	-1E+10	1	-1E+10	1	-1E+10	1	-1E+10	1	-1E+10	1	-1E+10	1
4901784	67	C	05/05/2017	10:49	-132.226	43.724	0	367.60	0	5.3360	0	34.0030	4	26.849	0	364.335	0	85.6	4	27.9	4	-1E+10	1	-1E+10	1	-1E+10	1	-1E+10	1	-1E+10	1	-1E+10	1
4901784	67	C	05/05/2017	10:49	-132.226	43.724	0	369.60	0	5.3290	0	34.0050	4	26.852	0	366.315	0	84.7	4	27.6	4	-1E+10	1	-1E+10	1	-1E+10	1	-1E+10	1	-1E+10	1	-1E+10	1
4901784	67	C	05/05/2017	10:49	-132.226	43.724	0	372.40	0	5.3120	0	34.0050	4	26.854	0	369.088	0	83.3	4	27.1	4	-1E+10	1	-1E+10	1	-1E+10	1	-1E+10	1	-1E+10	1	-1E+10	1
4901784	67	C	05/05/2017	10:49	-132.226	43.724	0	375.20	0	5.2920	0	34.0070	4	26.858	0	371.861	0	81.8	4	26.6	4	-1E+10	1	-1E+10	1	-1E+10	1	-1E+10	1	-1E+10	1	-1E+10	1
4901784	67	C	05/05/2017	10:49	-132.226	43.724	0	377.10	0	5.2810	0	34.0080	4	26.860	0	373.742	0	80.7	4	26.3	4	-1E+10	1	-1E+10	1	-1E+10	1	-1E+10	1	-1E+10	1	-1E+10	1
4901784	67	C	05/05/2017	10:49	-132.226	43.724	0	380.00	0	5.2290	0	34.0140	4	26.871	0	376.614	0	78.9	4	25.6	4	-1E+10	1	-1E+10	1	-1E+10	1	-1E+10	1	-1E+10	1	-1E+10	1
4901784	67	C	05/05/2017	10:49	-132.226	43.724	0	382.90	0	5.2190	0	34.0140	4	26.872	0	379.485	0	77.6	4	25.2	4	-1E+10	1	-1E+10	1	-1E+10	1	-1E+10	1	-1E+10	1	-1E+10	1
4901784	67	C	05/05/2017	10:49	-132.226	43.724	0	384.70	0	5.2160	0	34.0130	4	26.872	0	381.267	0	76.4	4	24.8	4	-1E+10	1	-1E+10	1	-1E+10	1	-1E+10	1	-1E+10	1	-1E+10	1
4901784	67	C	05/05/2017	10:49	-132.226	43.724	0	387.50	0	5.1760	0	34.0170	4	26.879	0	384.040	0	74.8	4	24.2	4	-1E+10	1	-1E+10	1	-1E+10	1	-1E+10	1	-1E+10	1	-1E+10	1
4901784	67	C	05/05/2017	10:49	-132.226	43.724	0	390.20	0	5.1610	0	34.0180	4	26.882	0	386.713	0	73.3	4	23.8	4	-1E+10	1	-1E+10	1	-1E+10	1	-1E+10	1	-1E+10	1	-1E+10	1
4901784	67	C	05/05/2017	10:49	-132.226	43.724	0	392.00	0	5.1520	0	34.0190	4	26.884	0	388.495	0	72.2	4	23.4	4	-1E+10	1	-1E+10	1	-1E+10	1	-1E+10	1	-1E+10	1	-1E+10	1
4901784	67	C	05/05/2017	10:49	-132.226	43.724	0	394.80	0	5.1050	0	34.0230	4	26.892	0	391.268	0	70.4	4	22.8	4	-1E+10	1	-1E+10	1	-1E+10	1	-1E+10	1	-1E+10	1	-1E+10	1
4901784	67	C	05/05/2017	10:49	-132.226	43.724	0	397.60	0	5.0760	0	34.0230	4	26.896	0	394.040	0	69.2	4	22.4	4	-1E+10	1	-1E+10	1	-1E+10	1	-1E+10	1	-1E+10	1	-1E+10	1
4901784	67	C	05/05/2017	10:49	-132.226	43.724	0	399.50	0	5.0570	0	34.0260	4	26.900	0	395.921	0	68.6	4	22.2	4	-1E+10	1	-1E+10	1	-1E+10	1	-1E+10	1	-1E+10	1	-1E+10	1
4901784	67	C	05/05/2017	10:49	-132.226	43.724	0	402.50	0	5.0400	0	34.0270	4	26.903	0	398.891	0	67.8	4	21.9	4	-1E+10	1	-1E+10	1	-1E+10	1	-1E+10	1	-1E+10	1	-1E+10	1
4901784	67	C	05/05/2017	10:49	-132.226	43.724	0	404.90	0	5.0410	0	34.0270	4	26.903	0	401.268	0	67.0	4	21.7	4	-1E+10	1	-1E+10	1	-1E+10	1	-1E+10	1	-1E+10	1	-1E+10	1
4901784	67	C	05/05/2017	10:49	-132.226	43.724	0	408.00	0	5.0160	0	34.0320	4	26.910	0	404.337	0	65.6	4	21.2	4	-1E+10	1	-1E+10	1	-1E+10	1	-1E+10	1	-1E+10	1	-1E+10	1
4901784	67	C	05/05/2017	10:49	-132.226	43.724	0	410.30	0	4.9840	0	34.0360	4	26.917	0	406.614	0	65.2	4	21.1	4	-1E+10	1	-1E+10	1	-1E+10	1	-1E+10	1	-1E+10	1	-1E+10	1
4901784	67	C	05/05/2017	10:49	-132.226	43.724	0	412.70	0	4.9710	0	34.0370	4	26.919	0	408.990	0	65.2	4	21.1	4	-1E+10	1	-1E+10	1	-1E+10	1	-1E+10	1	-1E+10	1	-1E+10	1
4901784	67	C	05/05/2017	10:49	-132.226	43.724	0	415.10	0	4.9600	0	34.0360	4	26.919	0	411.366	0	64.9	4	20.9	4	-1E+10	1	-1E+10	1	-1E+10	1	-1E+10	1	-1E+10	1	-1E+10	1
4901784	67	C	05/05/2017	10:49	-132.226	43.724	0	417.50	0	4.9490	0	34.0370	4	26.921	0	413.742	0	64.1	4	20.7	4	-1E+10	1	-1E+10	1	-1E+10	1	-1E+10	1	-1E+10	1	-1E+10	1
4901784	67	C	05/05/2017	10:49	-132.226	43.724	0	420.00	0	4.9410	0	34.0380	4	26.923	0	416.217	0	63.0	4	20.3	4	-1E+10	1	-1E+10	1	-1E+10	1	-1E+10	1	-1E+10	1	-1E+10	1
4901784	67	C	05/05/2017	10:49	-132.226	43.724	0	422.40	0	4.9300	0	34.0400	4	26.926	0	418.593	0	61.4	4	19.8	4	-1E+10	1	-1E+10	1	-1E+10	1	-1E+10	1	-1E+10	1	-1E+10	1
4901784	67	C	05/05/2017	10:49	-132.226	43.724	0	424.90	0	4.9120	0	34.0450	4	26.932	0	421.068	0	59.5	4	19.2	4	-1E+10	1	-1E+10	1	-1E+10	1	-1E+10	1	-1E+10	1	-1E+10	1
4901784	67	C	05/05/2017	10:49	-132.226	43.724	0	427.40	0	4.9010	0	34.0470	4	26.935	0	423.543	0	58.2	4	18.7	4	-1E+10	1	-1E+10	1	-1E+10	1	-1E+10	1	-1E+10	1	-1E+10	1
4901784	67	C	05/05/2017	10:49	-132.226	43.724	0	429.80	0	4.8800	0	34.0490	4	26.939	0	425.919	0	56.6	4	18.2	4	-1E+10	1	-1E+10	1	-1E+10	1	-1E+10	1	-1E+10	1	-1E+10	1
4901784	67	C	05/05/2017	10:49	-132.226	43.724	0	432.40	0	4.8400	0	34.0580	4	26.950	0	428.493	0	54.9	4	17.7	4	-1E+10	1	-1E+10	1	-1E+10	1	-1E+10	1	-1E+10	1	-1E+10	1
4901784	67	C	05/05/2017	10:49	-132.226	43.724	0	434.90	0	4.8090	0	34.0640	4	26.959	0	430.967	0	53.7	4	17.3	4	-1E+10	1	-1E+10	1	-1E+10	1	-1E+10	1	-1E+10	1	-1E+10	1
4901784	67	C	05/05/2017	10:49	-132.226	43.724	0	437.50	0	4.7810	0	34.0680	4	26.965	0	433.541	0	52.8	4	17.0	4	-1E+10	1	-1E+10	1	-1E+10	1	-1E+10	1	-1E+10	1	-1E+10	1
4901784	67	C	05/05/2017	10:49	-132.226	43.724	0	440.10	0	4.7560	0	34.0740	4	26.973	0	436.115	0	51.8	4	16.6	4	-1E+10	1	-1E+10	1	-1E+10	1	-1E+10	1	-1E+10	1	-1E+10	1
4901784	67	C	05/05/2017	10:49	-132.226	43.724	0	442.70	0	4.7480	0	34.0740	4	26.973	0	438.689	0	51.0	4	16.4	4	-1E+10	1	-1E+10	1	-1E+10	1	-1E+10	1	-1E+10	1	-1E+10	1
4901784	67	C	05/05/2017	10:49	-132.226	43.724	0	445.30	0	4.7390	0	34.0770	4	26.977	0	441.262	0	50.0	4	16.1	4	-1E+10	1	-1E+10	1	-1E+10	1	-1E+10	1	-1E+10	1	-1E+10	1
4901784	67	C	05/05/2017	10:49	-132.226	43.724	0	447.20	0	4.7360	0	34.0790	4	26.979	0	443.143	0	49.5	4	15.9	4	-1E+10	1	-1E+10	1	-1E+10	1	-1E+10	1	-1E+10	1	-1E+10	1
4901784	67	C	05/05/2017	10:49	-132.226	43.724	0	449.80	0	4.7280	0	34.0820	4	26.982	0	445.717	0	48.9	4	15.7	4	-1E+10	1	-1E+10	1	-1E+10	1	-1E+10	1	-1E+10	1	-1E+10	1
4901784	67	C	05/05/2017	10:49	-132.226	43.724	0	452.50	0	4.7240	0	34.0850	4	26.985	0	448.389	0	48.3	4	15.5	4	-1E+10	1	-1E+10	1	-1E+10	1	-1E+10	1	-1E+10	1	-1E+10	1
4901784	67	C	05/05/2017	10:49	-132.226	43.724	0	455.10	0	4.7170	0	34.0860	4	26.986	0	450.963	0	48.0	4	15.4	4	-1E+10	1	-1E+10	1	-1E+10	1	-1E+10	1	-1E+10	1	-1E+10	1
4901784	67	C	05/05/2017	10:49	-132.226	43.724	0	457.80	0	4.7100	0	34.0870	4	26.988	0	453.635	0	47.6	4	15.3	4	-1E+10	1	-1E+10	1	-1E+10	1	-1E+10	1	-1E+10	1	-1E+10	1
4901784	67	C	05/05/2017	10:49	-132.226	43.724	0	459.50	0	4.7070	0	34.0870	4	26.988	0	455.318	0	47.3	4	15.2	4	-1E+10	1	-1E+10	1	-1E+10	1	-1E+10	1	-1E+10	1	-1E+10	1
4901784	67	C	05/05/2017	10:49	-132.226	43.724	0	462.30	0	4.6980	0	34.0900	4	26.992	0	458.089	0	46.8	4	15.0	4	-1E+10	1	-1E+10	1	-1E+10	1	-1E+10	1	-1E+10	1	-1E+10	1
4901784	67	C	05/05/2017	10:49	-132.226	43.724	0	464.90	0	4.6910	0	34.0910	4	26.993	0	460.663	0	46.2	4	14.8	4	-1E+10	1	-1E+10	1	-1E+10	1	-1E+10	1	-1E+10	1	-1E+10	1
4901784	67	C	05/05/2017	10:49	-132.226	43.724	0	467.60	0	4.6870	0	34.0920	4	26.995	0	463.335	0	45.5	4	14.6	4	-1E+10	1	-1E+10	1	-1E+10	1	-1E+10	1	-1E+10	1	-1E+10	1
4901784	67	C	05/05/2017	10:49	-132.226	43.724	0	470.30	0	4.6780	0	34.0950	4	26.998	0	466.008	0	44.7	4	14.3	4	-1E+10	1	-1E+10	1	-1E+10	1	-1E+10	1	-1E+10	1	-1E+10	1
4901784	67	C	05/05/2017	10:49	-132.226	43.724	0	472.00	0	4.6710	0	34.0970	4	27.000	0	467.690	0	44.1	4	14.2	4	-1E+10	1	-1E+10	1	-1E+10	1	-1E+10	1	-1E+10	1	-1E+10	1
4901784	67	C	05/05/2017	10:49	-132.226	43.724	0	474.70	0	4.6640	0	34.1010	4	27.004	0	470.362	0	43.3	4	13.9	4	-1E+10	1	-1E+10	1	-1E+10	1	-1E+10	1	-1E+10	1	-1E+10	1
4901784	67	C	05/05/2017	10:49	-132.226	43.724	0	477.40	0	4.6580	0	34.1060	4	27.009	0	473.035	0	42.8	4	13.7	4	-1E+10	1	-1E+10	1	-1E+10	1	-1E+10	1	-1E+10	1	-1E+10	1
4901784	67	C	05/05/2017	10:49	-132.226	43.724	0	480.10	0	4.6510	0	34.1070	4	27.011	0	475.707	0	42.5	4	13.6	4	-1E+10	1	-1E+10	1	-1E+10	1	-1E+10	1	-1E+10	1	-1E+10	1
4901784	67	C	05/05/2017	10:49	-132.226	43.724	0	482.90	0	4.6490	0	34.1090	4	27.012	0	478.478	0	42.0	4	13.5	4	-1E+10	1	-1E+10	1	-1E+10	1	-1E+10	1	-1E+10	1	-1E+10	1
4901784	67	C	05/05/2017	10:49	-132.226	43.724	0	484.70	0	4.6470	0	34.1090	4	27.013	0	480.259	0	41.8	4	13.4	4	-1E+10	1	-1E+10	1	-1E+10	1	-1E+10	1	-1E+10	1	-1E+10	1
4901784	67	C	05/05/2017	10:49	-132.226	43.724	0	487.40	0	4.6390	0	34.1100	4	27.014	0	482.932	0	41.3	4	13.2	4	-1E+10	1	-1E+10	1	-1E+10	1	-1E+10	1	-1E+10	1	-1E+10	1
4901784	67	C	05/05/2017	10:49	-132.226	43.724	0	490.20	0	4.6340	0	34.1120	4	27.017	0	485.703	0	40.6	4	13.0	4	-1E+10	1	-1E+10	1	-1E+10	1	-1E+10	1	-1E+10	1	-1E+10	1
4901784	67	C	05/05/2017	10:49	-132.226	43.724	0	492.00	0	4.6310	0	34.1130	4	27.018	0	487.484	0	40.2	4	12.9	4	-1E+10	1	-1E+10	1	-1E+10	1	-1E+10	1	-1E+10	1	-1E+10	1
4901784	67	C	05/05/2017	10:49	-132.226	43.724	0	494.70	0	4.6240	0	34.1160	4	27.021	0	490.156	0	39.4	4	12.6	4	-1E+10	1	-1E+10	1	-1E+10	1	-1E+10	1	-1E+10	1	-1E+10	1
4901784	67	C	05/05/2017	10:49	-132.226	43.724	0	497.40	0	4.6110	0	34.1200	4	27.025	0	492.828	0	38.5	4	12.3	4	-1E+10	1	-1E+10	1	-1E+10	1	-1E+10	1	-1E+10	1	-1E+10	1
4901784	67	C	05/05/2017	10:49	-132.226	43.724	0	500.10	0	4.6020	0	34.1230	4	27.029	0	495.500	0	37.9	4	12.1	4	-1E+10	1	-1E+10	1	-1E+10	1	-1E+10	1	-1E+10	1	-1E+10	1
4901784	67	C	05/05/2017	10:49	-132.226	43.724	0	504.70	0	4.5890	0	34.1260	4	27.033	0	500.052	0	36.8	4	11.8	4	-1E+10	1	-1E+10	1	-1E+10	1	-1E+10	1	-1E+10	1	-1E+10	1
4901784	67	C	05/05/2017	10:49	-132.226	43.724	0	510.30	0	4.5620	0	34.1330	4	27.041	0	505.594	0	35.8	4	11.4	4	-1E+10	1	-1E+10	1	-1E+10	1	-1E+10	1	-1E+10	1	-1E+10	1
4901784	67	C	05/05/2017	10:49	-132.226	43.724	0	514.90	0	4.5450	0	34.1370	4	27.046	0	510.146	0	35.1	4	11.2	4	-1E+10	1	-1E+10	1	-1E+10	1	-1E+10	1	-1E+10	1	-1E+10	1
4901784	67	C	05/05/2017	10:49	-132.226	43.724	0	519.60	0	4.5130	0	34.1400	4	27.052	0	514.796	0	34.9	4	11.2	4	-1E+10	1	-1E+10	1	-1E+10	1	-1E+10	1	-1E+10	1	-1E+10	1
4901784	67	C	05/05/2017	10:49	-132.226	43.724	0	525.10	0	4.4720	0	34.1440	4	27.060	0	520.239	0	34.6	4	11.0	4	-1E+10	1	-1E+10	1	-1E+10	1	-1E+10	1	-1E+10	1	-1E+10	1
4901784	67	C	05/05/2017	10:49	-132.226	43.724	0	529.90	0	4.4620	0	34.1460	4	27.063	0	524.988	0	34.1	4	10.9	4	-1E+10	1	-1E+10	1	-1E+10	1	-1E+10	1	-1E+10	1	-1E+10	1
4901784	67	C	05/05/2017	10:49	-132.226	43.724	0	534.70	0	4.4480	0	34.1490	4	27.066	0	529.738	0	33.4	4	10.7	4	-1E+10	1	-1E+10	1	-1E+10	1	-1E+10	1	-1E+10	1	-1E+10	1
4901784	67	C	05/05/2017	10:49	-132.226	43.724	0	539.50	0	4.4360	0	34.1530	4	27.071	0	534.487	0	32.9	4	10.5	4	-1E+10	1	-1E+10	1	-1E+10	1	-1E+10	1	-1E+10	1	-1E+10	1
4901784	67	C	05/05/2017	10:49	-132.226	43.724	0	544.20	0	4.4300	0	34.1530	4	27.072	0	539.137	0	32.1	4	10.2	4	-1E+10	1	-1E+10	1	-1E+10	1	-1E+10	1	-1E+10	1	-1E+10	1
4901784	67	C	05/05/2017	10:49	-132.226	43.724	0	549.50	0	4.4200	0	34.1610	4	27.079	0	544.381	0	30.9	4	9.9	4	-1E+10	1	-1E+10	1	-1E+10	1	-1E+10	1	-1E+10	1	-1E+10	1
4901784	67	C	05/05/2017	10:49	-132.226	43.724	0	554.40	0	4.3920	0	34.1630	4	27.084	0	549.229	0	30.6	4	9.7	4	-1E+10	1	-1E+10	1	-1E+10	1	-1E+10	1	-1E+10	1	-1E+10	1
4901784	67	C	05/05/2017	10:49	-132.226	43.724	0	559.30	0	4.3810	0	34.1660	4	27.087	0	554.077	0	29.7	4	9.5	4	-1E+10	1	-1E+10	1	-1E+10	1	-1E+10	1	-1E+10	1	-1E+10	1
4901784	67	C	05/05/2017	10:49	-132.226	43.724	0	564.90	0	4.3610	0	34.1740	4	27.096	0	559.617	0	28.6	4	9.1	4	-1E+10	1	-1E+10	1	-1E+10	1	-1E+10	1	-1E+10	1	-1E+10	1
4901784	67	C	05/05/2017	10:49	-132.226	43.724	0	570.50	0	4.3500	0	34.1770	4	27.099	0	565.157	0	27.7	4	8.8	4	-1E+10	1	-1E+10	1	-1E+10	1	-1E+10	1	-1E+10	1	-1E+10	1
4901784	67	C	05/05/2017	10:49	-132.226	43.724	0	575.40	0	4.3370	0	34.1820	4	27.105	0	570.004	0	26.9	4	8.6	4	-1E+10	1	-1E+10	1	-1E+10	1	-1E+10	1	-1E+10	1	-1E+10	1
4901784	67	C	05/05/2017	10:49	-132.226	43.724	0	580.40	0	4.3280	0	34.1860	4	27.109	0	574.950	0	26.3	4	8.4	4	-1E+10	1	-1E+10	1	-1E+10	1	-1E+10	1	-1E+10	1	-1E+10	1
4901784	67	C	05/05/2017	10:49	-132.226	43.724	0	585.30	0	4.3230	0	34.1880	4	27.111	0	579.798	0	25.7	4	8.2	4	-1E+10	1	-1E+10	1	-1E+10	1	-1E+10	1	-1E+10	1	-1E+10	1
4901784	67	C	05/05/2017	10:49	-132.226	43.724	0	590.30	0	4.3160	0	34.1910	4	27.114	0	584.744	0	24.5	4	7.8	4	-1E+10	1	-1E+10	1	-1E+10	1	-1E+10	1	-1E+10	1	-1E+10	1
4901784	67	C	05/05/2017	10:49	-132.226	43.724	0	595.40	0	4.3020	0	34.2000	4	27.123	0	589.788	0	23.4	4	7.4	4	-1E+10	1	-1E+10	1	-1E+10	1	-1E+10	1	-1E+10	1	-1E+10	1
4901784	67	C	05/05/2017	10:49	-132.226	43.724	0	600.40	0	4.2820	0	34.2070	4	27.131	0	594.734	0	22.6	4	7.2	4	-1E+10	1	-1E+10	1	-1E+10	1	-1E+10	1	-1E+10	1	-1E+10	1
4901784	67	C	05/05/2017	10:49	-132.226	43.724	0	605.50	0	4.2720	0	34.2110	4	27.135	0	599.779	0	22.1	4	7.0	4	-1E+10	1	-1E+10	1	-1E+10	1	-1E+10	1	-1E+10	1	-1E+10	1
4901784	67	C	05/05/2017	10:49	-132.226	43.724	0	610.60	0	4.2620	0	34.2140	4	27.138	0	604.823	0	21.7	4	6.9	4	-1E+10	1	-1E+10	1	-1E+10	1	-1E+10	1	-1E+10	1	-1E+10	1
4901784	67	C	05/05/2017	10:49	-132.226	43.724	0	615.80	0	4.2480	0	34.2180	4	27.143	0	609.966	0	21.4	4	6.8	4	-1E+10	1	-1E+10	1	-1E+10	1	-1E+10	1	-1E+10	1	-1E+10	1
4901784	67	C	05/05/2017	10:49	-132.226	43.724	0	620.10	0	4.2350	0	34.2200	4	27.146	0	614.219	0	21.1	4	6.7	4	-1E+10	1	-1E+10	1	-1E+10	1	-1E+10	1	-1E+10	1	-1E+10	1
4901784	67	C	05/05/2017	10:49	-132.226	43.724	0	624.50	0	4.2230	0	34.2230	4	27.150	0	618.571	0	20.8	4	6.6	4	-1E+10	1	-1E+10	1	-1E+10	1	-1E+10	1	-1E+10	1	-1E+10	1
4901784	67	C	05/05/2017	10:49	-132.226	43.724	0	629.80	0	4.2110	0	34.2260	4	27.153	0	623.813	0	20.3	4	6.5	4	-1E+10	1	-1E+10	1	-1E+10	1	-1E+10	1	-1E+10	1	-1E+10	1
4901784	67	C	05/05/2017	10:49	-132.226	43.724	0	635.20	0	4.2010	0	34.2290	4	27.157	0	629.153	0	19.9	4	6.3	4	-1E+10	1	-1E+10	1	-1E+10	1	-1E+10	1	-1E+10	1	-1E+10	1
4901784	67	C	05/05/2017	10:49	-132.226	43.724	0	640.60	0	4.1840	0	34.2330	4	27.162	0	634.493	0	19.4	4	6.2	4	-1E+10	1	-1E+10	1	-1E+10	1	-1E+10	1	-1E+10	1	-1E+10	1
4901784	67	C	05/05/2017	10:49	-132.226	43.724	0	645.10	0	4.1740	0	34.2370	4	27.166	0	638.944	0	19.0	4	6.0	4	-1E+10	1	-1E+10	1	-1E+10	1	-1E+10	1	-1E+10	1	-1E+10	1
4901784	67	C	05/05/2017	10:49	-132.226	43.724	0	649.60	0	4.1580	0	34.2410	4	27.171	0	643.394	0	18.4	4	5.8	4	-1E+10	1	-1E+10	1	-1E+10	1	-1E+10	1	-1E+10	1	-1E+10	1
4901784	67	C	05/05/2017	10:49	-132.226	43.724	0	655.10	0	4.1340	0	34.2490	4	27.180	0	648.833	0	17.8	4	5.6	4	-1E+10	1	-1E+10	1	-1E+10	1	-1E+10	1	-1E+10	1	-1E+10	1
4901784	67	C	05/05/2017	10:49	-132.226	43.724	0	660.60	0	4.1210	0	34.2540	4	27.185	0	654.271	0	17.3	4	5.5	4	-1E+10	1	-1E+10	1	-1E+10	1	-1E+10	1	-1E+10	1	-1E+10	1
4901784	67	C	05/05/2017	10:49	-132.226	43.724	0	665.00	0	4.1120	0	34.2590	4	27.190	0	658.622	0	16.9	4	5.4	4	-1E+10	1	-1E+10	1	-1E+10	1	-1E+10	1	-1E+10	1	-1E+10	1
4901784	67	C	05/05/2017	10:49	-132.226	43.724	0	669.60	0	4.1070	0	34.2620	4	27.193	0	663.171	0	16.6	4	5.3	4	-1E+10	1	-1E+10	1	-1E+10	1	-1E+10	1	-1E+10	1	-1E+10	1
4901784	67	C	05/05/2017	10:49	-132.226	43.724	0	675.10	0	4.0970	0	34.2650	4	27.197	0	668.609	0	16.2	4	5.1	4	-1E+10	1	-1E+10	1	-1E+10	1	-1E+10	1	-1E+10	1	-1E+10	1
4901784	67	C	05/05/2017	10:49	-132.226	43.724	0	679.80	0	4.0850	0	34.2710	4	27.203	0	673.256	0	15.9	4	5.0	4	-1E+10	1	-1E+10	1	-1E+10	1	-1E+10	1	-1E+10	1	-1E+10	1
4901784	67	C	05/05/2017	10:49	-132.226	43.724	0	684.40	0	4.0640	0	34.2750	4	27.208	0	677.805	0	15.7	4	5.0	4	-1E+10	1	-1E+10	1	-1E+10	1	-1E+10	1	-1E+10	1	-1E+10	1
4901784	67	C	05/05/2017	10:49	-132.226	43.724	0	690.10	0	4.0560	0	34.2770	4	27.211	0	683.440	0	15.6	4	4.9	4	-1E+10	1	-1E+10	1	-1E+10	1	-1E+10	1	-1E+10	1	-1E+10	1
4901784	67	C	05/05/2017	10:49	-132.226	43.724	0	695.30	0	4.0410	0	34.2810	4	27.215	0	688.582	0	15.2	4	4.8	4	-1E+10	1	-1E+10	1	-1E+10	1	-1E+10	1	-1E+10	1	-1E+10	1
4901784	67	C	05/05/2017	10:49	-132.226	43.724	0	700.10	0	4.0360	0	34.2840	4	27.218	0	693.327	0	14.9	4	4.7	4	-1E+10	1	-1E+10	1	-1E+10	1	-1E+10	1	-1E+10	1	-1E+10	1
4901784	67	C	05/05/2017	10:49	-132.226	43.724	0	704.90	0	4.0180	0	34.2900	4	27.225	0	698.073	0	14.6	4	4.6	4	-1E+10	1	-1E+10	1	-1E+10	1	-1E+10	1	-1E+10	1	-1E+10	1
4901784	67	C	05/05/2017	10:49	-132.226	43.724	0	709.90	0	4.0090	0	34.2940	4	27.229	0	703.016	0	14.4	4	4.6	4	-1E+10	1	-1E+10	1	-1E+10	1	-1E+10	1	-1E+10	1	-1E+10	1
4901784	67	C	05/05/2017	10:49	-132.226	43.724	0	714.80	0	4.0070	0	34.2950	4	27.230	0	707.860	0	14.3	4	4.5	4	-1E+10	1	-1E+10	1	-1E+10	1	-1E+10	1	-1E+10	1	-1E+10	1
4901784	67	C	05/05/2017	10:49	-132.226	43.724	0	719.80	0	4.0040	0	34.2980	4	27.233	0	712.803	0	14.0	4	4.4	4	-1E+10	1	-1E+10	1	-1E+10	1	-1E+10	1	-1E+10	1	-1E+10	1
4901784	67	C	05/05/2017	10:49	-132.226	43.724	0	724.90	0	3.9930	0	34.3030	4	27.238	0	717.845	0	13.8	4	4.4	4	-1E+10	1	-1E+10	1	-1E+10	1	-1E+10	1	-1E+10	1	-1E+10	1
4901784	67	C	05/05/2017	10:49	-132.226	43.724	0	730.00	0	3.9850	0	34.3050	4	27.240	0	722.886	0	13.6	4	4.3	4	-1E+10	1	-1E+10	1	-1E+10	1	-1E+10	1	-1E+10	1	-1E+10	1
4901784	67	C	05/05/2017	10:49	-132.226	43.724	0	735.10	0	3.9630	0	34.3120	4	27.248	0	727.928	0	13.4	4	4.2	4	-1E+10	1	-1E+10	1	-1E+10	1	-1E+10	1	-1E+10	1	-1E+10	1
4901784	67	C	05/05/2017	10:49	-132.226	43.724	0	740.30	0	3.9510	0	34.3140	4	27.251	0	733.068	0	13.3	4	4.2	4	-1E+10	1	-1E+10	1	-1E+10	1	-1E+10	1	-1E+10	1	-1E+10	1
4901784	67	C	05/05/2017	10:49	-132.226	43.724	0	745.50	0	3.9460	0	34.3160	4	27.253	0	738.208	0	13.1	4	4.1	4	-1E+10	1	-1E+10	1	-1E+10	1	-1E+10	1	-1E+10	1	-1E+10	1
4901784	67	C	05/05/2017	10:49	-132.226	43.724	0	750.60	0	3.9330	0	34.3190	4	27.257	0	743.249	0	13.0	4	4.1	4	-1E+10	1	-1E+10	1	-1E+10	1	-1E+10	1	-1E+10	1	-1E+10	1
4901784	67	C	05/05/2017	10:49	-132.226	43.724	0	755.00	0	3.9170	0	34.3240	4	27.263	0	747.598	0	12.9	4	4.1	4	-1E+10	1	-1E+10	1	-1E+10	1	-1E+10	1	-1E+10	1	-1E+10	1
4901784	67	C	05/05/2017	10:49	-132.226	43.724	0	759.30	0	3.9080	0	34.3260	4	27.265	0	751.848	0	12.8	4	4.0	4	-1E+10	1	-1E+10	1	-1E+10	1	-1E+10	1	-1E+10	1	-1E+10	1
4901784	67	C	05/05/2017	10:49	-132.226	43.724	0	764.60	0	3.9020	0	34.3270	4	27.267	0	757.086	0	12.7	4	4.0	4	-1E+10	1	-1E+10	1	-1E+10	1	-1E+10	1	-1E+10	1	-1E+10	1
4901784	67	C	05/05/2017	10:49	-132.226	43.724	0	769.90	0	3.8940	0	34.3300	4	27.270	0	762.325	0	12.7	4	4.0	4	-1E+10	1	-1E+10	1	-1E+10	1	-1E+10	1	-1E+10	1	-1E+10	1
4901784	67	C	05/05/2017	10:49	-132.226	43.724	0	775.10	0	3.8850	0	34.3320	4	27.272	0	767.464	0	12.5	4	3.9	4	-1E+10	1	-1E+10	1	-1E+10	1	-1E+10	1	-1E+10	1	-1E+10	1
4901784	67	C	05/05/2017	10:49	-132.226	43.724	0	780.50	0	3.8730	0	34.3350	4	27.276	0	772.801	0	12.4	4	3.9	4	-1E+10	1	-1E+10	1	-1E+10	1	-1E+10	1	-1E+10	1	-1E+10	1
4901784	67	C	05/05/2017	10:49	-132.226	43.724	0	785.00	0	3.8520	0	34.3400	4	27.282	0	777.248	0	12.3	4	3.9	4	-1E+10	1	-1E+10	1	-1E+10	1	-1E+10	1	-1E+10	1	-1E+10	1
4901784	67	C	05/05/2017	10:49	-132.226	43.724	0	789.50	0	3.8200	0	34.3460	4	27.290	0	781.695	0	12.2	4	3.8	4	-1E+10	1	-1E+10	1	-1E+10	1	-1E+10	1	-1E+10	1	-1E+10	1
4901784	67	C	05/05/2017	10:49	-132.226	43.724	0	795.00	0	3.8090	0	34.3490	4	27.294	0	787.130	0	12.1	4	3.8	4	-1E+10	1	-1E+10	1	-1E+10	1	-1E+10	1	-1E+10	1	-1E+10	1
4901784	67	C	05/05/2017	10:49	-132.226	43.724	0	800.50	0	3.7930	0	34.3520	4	27.298	0	792.566	0	12.0	4	3.8	4	-1E+10	1	-1E+10	1	-1E+10	1	-1E+10	1	-1E+10	1	-1E+10	1
4901784	67	C	05/05/2017	10:49	-132.226	43.724	0	805.20	0	3.7820	0	34.3560	4	27.302	0	797.210	0	11.9	4	3.8	4	-1E+10	1	-1E+10	1	-1E+10	1	-1E+10	1	-1E+10	1	-1E+10	1
4901784	67	C	05/05/2017	10:49	-132.226	43.724	0	809.70	0	3.7740	0	34.3580	4	27.304	0	801.657	0	11.9	4	3.7	4	-1E+10	1	-1E+10	1	-1E+10	1	-1E+10	1	-1E+10	1	-1E+10	1
4901784	67	C	05/05/2017	10:49	-132.226	43.724	0	815.30	0	3.7610	0	34.3620	4	27.309	0	807.190	0	11.8	4	3.7	4	-1E+10	1	-1E+10	1	-1E+10	1	-1E+10	1	-1E+10	1	-1E+10	1
4901784	67	C	05/05/2017	10:49	-132.226	43.724	0	819.90	0	3.7510	0	34.3650	4	27.312	0	811.736	0	11.7	4	3.7	4	-1E+10	1	-1E+10	1	-1E+10	1	-1E+10	1	-1E+10	1	-1E+10	1
4901784	67	C	05/05/2017	10:49	-132.226	43.724	0	824.50	0	3.7420	0	34.3670	4	27.315	0	816.281	0	11.7	4	3.7	4	-1E+10	1	-1E+10	1	-1E+10	1	-1E+10	1	-1E+10	1	-1E+10	1
4901784	67	C	05/05/2017	10:49	-132.226	43.724	0	830.00	0	3.7290	0	34.3700	4	27.319	0	821.715	0	11.6	4	3.6	4	-1E+10	1	-1E+10	1	-1E+10	1	-1E+10	1	-1E+10	1	-1E+10	1
4901784	67	C	05/05/2017	10:49	-132.226	43.724	0	835.40	0	3.7160	0	34.3730	4	27.322	0	827.051	0	11.5	4	3.6	4	-1E+10	1	-1E+10	1	-1E+10	1	-1E+10	1	-1E+10	1	-1E+10	1
4901784	67	C	05/05/2017	10:49	-132.226	43.724	0	840.00	0	3.7050	0	34.3760	4	27.326	0	831.595	0	11.5	4	3.6	4	-1E+10	1	-1E+10	1	-1E+10	1	-1E+10	1	-1E+10	1	-1E+10	1
4901784	67	C	05/05/2017	10:49	-132.226	43.724	0	844.50	0	3.6890	0	34.3810	4	27.331	0	836.041	0	11.4	4	3.6	4	-1E+10	1	-1E+10	1	-1E+10	1	-1E+10	1	-1E+10	1	-1E+10	1
4901784	67	C	05/05/2017	10:49	-132.226	43.724	0	849.90	0	3.6770	0	34.3840	4	27.335	0	841.376	0	11.4	4	3.6	4	-1E+10	1	-1E+10	1	-1E+10	1	-1E+10	1	-1E+10	1	-1E+10	1
4901784	67	C	05/05/2017	10:49	-132.226	43.724	0	855.30	0	3.6630	0	34.3880	4	27.340	0	846.711	0	11.4	4	3.6	4	-1E+10	1	-1E+10	1	-1E+10	1	-1E+10	1	-1E+10	1	-1E+10	1
4901784	67	C	05/05/2017	10:49	-132.226	43.724	0	860.60	0	3.6370	0	34.3940	4	27.347	0	851.947	0	11.4	4	3.6	4	-1E+10	1	-1E+10	1	-1E+10	1	-1E+10	1	-1E+10	1	-1E+10	1
4901784	67	C	05/05/2017	10:49	-132.226	43.724	0	865.10	0	3.5930	0	34.4060	4	27.361	0	856.393	0	11.4	4	3.6	4	-1E+10	1	-1E+10	1	-1E+10	1	-1E+10	1	-1E+10	1	-1E+10	1
4901784	67	C	05/05/2017	10:49	-132.226	43.724	0	869.60	0	3.5770	0	34.4100	4	27.366	0	860.838	0	11.4	4	3.6	4	-1E+10	1	-1E+10	1	-1E+10	1	-1E+10	1	-1E+10	1	-1E+10	1
4901784	67	C	05/05/2017	10:49	-132.226	43.724	0	875.10	0	3.5490	0	34.4170	4	27.374	0	866.272	0	11.6	4	3.6	4	-1E+10	1	-1E+10	1	-1E+10	1	-1E+10	1	-1E+10	1	-1E+10	1
4901784	67	C	05/05/2017	10:49	-132.226	43.724	0	880.50	0	3.5110	0	34.4270	4	27.386	0	871.606	0	11.7	4	3.6	4	-1E+10	1	-1E+10	1	-1E+10	1	-1E+10	1	-1E+10	1	-1E+10	1
4901784	67	C	05/05/2017	10:49	-132.226	43.724	0	885.10	0	3.5010	0	34.4300	4	27.389	0	876.150	0	11.7	4	3.7	4	-1E+10	1	-1E+10	1	-1E+10	1	-1E+10	1	-1E+10	1	-1E+10	1
4901784	67	C	05/05/2017	10:49	-132.226	43.724	0	889.80	0	3.4910	0	34.4330	4	27.392	0	880.792	0	11.8	4	3.7	4	-1E+10	1	-1E+10	1	-1E+10	1	-1E+10	1	-1E+10	1	-1E+10	1
4901784	67	C	05/05/2017	10:49	-132.226	43.724	0	895.30	0	3.4810	0	34.4360	4	27.396	0	886.225	0	11.8	4	3.7	4	-1E+10	1	-1E+10	1	-1E+10	1	-1E+10	1	-1E+10	1	-1E+10	1
4901784	67	C	05/05/2017	10:49	-132.226	43.724	0	900.00	0	3.4750	0	34.4380	4	27.398	0	890.867	0	11.9	4	3.7	4	-1E+10	1	-1E+10	1	-1E+10	1	-1E+10	1	-1E+10	1	-1E+10	1
4901784	67	C	05/05/2017	10:49	-132.226	43.724	0	904.80	0	3.4720	0	34.4390	4	27.399	0	895.608	0	11.9	4	3.7	4	-1E+10	1	-1E+10	1	-1E+10	1	-1E+10	1	-1E+10	1	-1E+10	1
4901784	67	C	05/05/2017	10:49	-132.226	43.724	0	910.30	0	3.4700	0	34.4390	4	27.399	0	901.041	0	12.0	4	3.7	4	-1E+10	1	-1E+10	1	-1E+10	1	-1E+10	1	-1E+10	1	-1E+10	1
4901784	67	C	05/05/2017	10:49	-132.226	43.724	0	915.00	0	3.4580	0	34.4420	4	27.403	0	905.683	0	12.1	4	3.8	4	-1E+10	1	-1E+10	1	-1E+10	1	-1E+10	1	-1E+10	1	-1E+10	1
4901784	67	C	05/05/2017	10:49	-132.226	43.724	0	919.60	0	3.4500	0	34.4440	4	27.405	0	910.226	0	12.2	4	3.8	4	-1E+10	1	-1E+10	1	-1E+10	1	-1E+10	1	-1E+10	1	-1E+10	1
4901784	67	C	05/05/2017	10:49	-132.226	43.724	0	925.30	0	3.4290	0	34.4500	4	27.412	0	915.855	0	12.4	4	3.9	4	-1E+10	1	-1E+10	1	-1E+10	1	-1E+10	1	-1E+10	1	-1E+10	1
4901784	67	C	05/05/2017	10:49	-132.226	43.724	0	929.90	0	3.4150	0	34.4540	4	27.417	0	920.398	0	12.6	4	3.9	4	-1E+10	1	-1E+10	1	-1E+10	1	-1E+10	1	-1E+10	1	-1E+10	1
4901784	67	C	05/05/2017	10:49	-132.226	43.724	0	934.90	0	3.3940	0	34.4610	4	27.424	0	925.336	0	12.7	4	4.0	4	-1E+10	1	-1E+10	1	-1E+10	1	-1E+10	1	-1E+10	1	-1E+10	1
4901784	67	C	05/05/2017	10:49	-132.226	43.724	0	940.00	0	3.3890	0	34.4620	4	27.426	0	930.373	0	12.8	4	4.0	4	-1E+10	1	-1E+10	1	-1E+10	1	-1E+10	1	-1E+10	1	-1E+10	1
4901784	67	C	05/05/2017	10:49	-132.226	43.724	0	944.80	0	3.3860	0	34.4630	4	27.427	0	935.113	0	13.0	4	4.1	4	-1E+10	1	-1E+10	1	-1E+10	1	-1E+10	1	-1E+10	1	-1E+10	1
4901784	67	C	05/05/2017	10:49	-132.226	43.724	0	949.70	0	3.3770	0	34.4670	4	27.431	0	939.951	0	13.3	4	4.2	4	-1E+10	1	-1E+10	1	-1E+10	1	-1E+10	1	-1E+10	1	-1E+10	1
4901784	67	C	05/05/2017	10:49	-132.226	43.724	0	954.70	0	3.3680	0	34.4720	4	27.436	0	944.889	0	13.5	4	4.2	4	-1E+10	1	-1E+10	1	-1E+10	1	-1E+10	1	-1E+10	1	-1E+10	1
4901784	67	C	05/05/2017	10:49	-132.226	43.724	0	959.60	0	3.3660	0	34.4730	4	27.437	0	949.727	0	13.7	4	4.3	4	-1E+10	1	-1E+10	1	-1E+10	1	-1E+10	1	-1E+10	1	-1E+10	1
4901784	67	C	05/05/2017	10:49	-132.226	43.724	0	964.60	0	3.3630	0	34.4750	4	27.439	0	954.665	0	13.8	4	4.3	4	-1E+10	1	-1E+10	1	-1E+10	1	-1E+10	1	-1E+10	1	-1E+10	1
4901784	67	C	05/05/2017	10:49	-132.226	43.724	0	969.50	0	3.3550	0	34.4790	4	27.443	0	959.503	0	14.1	4	4.4	4	-1E+10	1	-1E+10	1	-1E+10	1	-1E+10	1	-1E+10	1	-1E+10	1
4901784	67	C	05/05/2017	10:49	-132.226	43.724	0	974.50	0	3.3500	0	34.4800	4	27.444	0	964.440	0	14.2	4	4.4	4	-1E+10	1	-1E+10	1	-1E+10	1	-1E+10	1	-1E+10	1	-1E+10	1
4901784	67	C	05/05/2017	10:49	-132.226	43.724	0	979.50	0	3.3490	0	34.4810	4	27.445	0	969.377	0	14.4	4	4.5	4	-1E+10	1	-1E+10	1	-1E+10	1	-1E+10	1	-1E+10	1	-1E+10	1
4901784	67	C	05/05/2017	10:49	-132.226	43.724	0	984.50	0	3.3430	0	34.4850	4	27.449	0	974.313	0	14.8	4	4.6	4	-1E+10	1	-1E+10	1	-1E+10	1	-1E+10	1	-1E+10	1	-1E+10	1
4901784	67	C	05/05/2017	10:49	-132.226	43.724	0	989.60	0	3.3380	0	34.4880	4	27.451	0	979.349	0	15.1	4	4.7	4	-1E+10	1	-1E+10	1	-1E+10	1	-1E+10	1	-1E+10	1	-1E+10	1
4901784	67	C	05/05/2017	10:49	-132.226	43.724	0	994.70	0	3.3320	0	34.4910	4	27.454	0	984.384	0	15.5	4	4.8	4	-1E+10	1	-1E+10	1	-1E+10	1	-1E+10	1	-1E+10	1	-1E+10	1
4901784	67	C	05/05/2017	10:49	-132.226	43.724	0	999.70	0	3.3270	0	34.4940	4	27.457	0	989.320	0	15.7	4	4.9	4	-1E+10	1	-1E+10	1	-1E+10	1	-1E+10	1	-1E+10	1	-1E+10	1
4901784	67	C	05/05/2017	10:49	-132.226	43.724	0	1004.80	0	3.3260	0	34.4970	4	27.460	0	994.355	0	16.0	4	5.0	4	-1E+10	1	-1E+10	1	-1E+10	1	-1E+10	1	-1E+10	1	-1E+10	1
4901784	67	C	05/05/2017	10:49	-132.226	43.724	0	1009.90	0	3.3250	0	34.4980	4	27.461	0	999.390	0	16.3	4	5.1	4	-1E+10	1	-1E+10	1	-1E+10	1	-1E+10	1	-1E+10	1	-1E+10	1
4901784	67	C	05/05/2017	10:49	-132.226	43.724	0	1015.00	0	3.3240	0	34.5000	4	27.463	0	1004.425	0	16.7	4	5.2	4	-1E+10	1	-1E+10	1	-1E+10	1	-1E+10	1	-1E+10	1	-1E+10	1
4901784	67	C	05/05/2017	10:49	-132.226	43.724	0	1020.00	0	3.3220	0	34.5060	4	27.468	0	1009.361	0	17.2	4	5.4	4	-1E+10	1	-1E+10	1	-1E+10	1	-1E+10	1	-1E+10	1	-1E+10	1
4901784	67	C	05/05/2017	10:49	-132.226	43.724	0	1025.10	0	3.3230	0	34.5080	4	27.469	0	1014.395	0	17.6	4	5.5	4	-1E+10	1	-1E+10	1	-1E+10	1	-1E+10	1	-1E+10	1	-1E+10	1
4901784	67	C	05/05/2017	10:49	-132.226	43.724	0	1030.30	0	3.3240	0	34.5110	4	27.471	0	1019.528	0	18.1	4	5.7	4	-1E+10	1	-1E+10	1	-1E+10	1	-1E+10	1	-1E+10	1	-1E+10	1
4901784	67	C	05/05/2017	10:49	-132.226	43.724	0	1034.80	0	3.3250	0	34.5160	4	27.475	0	1023.970	0	18.5	4	5.8	4	-1E+10	1	-1E+10	1	-1E+10	1	-1E+10	1	-1E+10	1	-1E+10	1
4901784	67	C	05/05/2017	10:49	-132.226	43.724	0	1039.30	0	3.3250	0	34.5170	4	27.476	0	1028.412	0	18.7	4	5.8	4	-1E+10	1	-1E+10	1	-1E+10	1	-1E+10	1	-1E+10	1	-1E+10	1
4901784	67	C	05/05/2017	10:49	-132.226	43.724	0	1044.70	0	3.3250	0	34.5180	4	27.477	0	1033.742	0	18.9	4	5.9	4	-1E+10	1	-1E+10	1	-1E+10	1	-1E+10	1	-1E+10	1	-1E+10	1
4901784	67	C	05/05/2017	10:49	-132.226	43.724	0	1050.20	0	3.3240	0	34.5200	4	27.479	0	1039.171	0	19.1	4	6.0	4	-1E+10	1	-1E+10	1	-1E+10	1	-1E+10	1	-1E+10	1	-1E+10	1
4901784	67	C	05/05/2017	10:49	-132.226	43.724	0	1054.80	0	3.3230	0	34.5210	4	27.480	0	1043.711	0	19.4	4	6.0	4	-1E+10	1	-1E+10	1	-1E+10	1	-1E+10	1	-1E+10	1	-1E+10	1
4901784	67	C	05/05/2017	10:49	-132.226	43.724	0	1059.40	0	3.3220	0	34.5230	4	27.481	0	1048.251	0	19.7	4	6.1	4	-1E+10	1	-1E+10	1	-1E+10	1	-1E+10	1	-1E+10	1	-1E+10	1
4901784	67	C	05/05/2017	10:49	-132.226	43.724	0	1065.00	0	3.3230	0	34.5260	4	27.484	0	1053.778	0	20.0	4	6.2	4	-1E+10	1	-1E+10	1	-1E+10	1	-1E+10	1	-1E+10	1	-1E+10	1
4901784	67	C	05/05/2017	10:49	-132.226	43.724	0	1070.50	0	3.3230	0	34.5270	4	27.485	0	1059.206	0	20.2	4	6.3	4	-1E+10	1	-1E+10	1	-1E+10	1	-1E+10	1	-1E+10	1	-1E+10	1
4901784	67	C	05/05/2017	10:49	-132.226	43.724	0	1075.10	0	3.3210	0	34.5280	4	27.486	0	1063.746	0	20.4	4	6.3	4	-1E+10	1	-1E+10	1	-1E+10	1	-1E+10	1	-1E+10	1	-1E+10	1
4901784	67	C	05/05/2017	10:49	-132.226	43.724	0	1080.00	0	3.3130	0	34.5300	4	27.488	0	1068.582	0	20.8	4	6.5	4	-1E+10	1	-1E+10	1	-1E+10	1	-1E+10	1	-1E+10	1	-1E+10	1
4901784	67	C	05/05/2017	10:49	-132.226	43.724	0	1085.10	0	3.3100	0	34.5350	4	27.492	0	1073.615	0	21.3	4	6.6	4	-1E+10	1	-1E+10	1	-1E+10	1	-1E+10	1	-1E+10	1	-1E+10	1
4901784	67	C	05/05/2017	10:49	-132.226	43.724	0	1089.90	0	3.3120	0	34.5360	4	27.493	0	1078.352	0	21.8	4	6.8	4	-1E+10	1	-1E+10	1	-1E+10	1	-1E+10	1	-1E+10	1	-1E+10	1
4901784	67	C	05/05/2017	10:49	-132.226	43.724	0	1094.70	0	3.3150	0	34.5410	4	27.497	0	1083.089	0	22.2	4	6.9	4	-1E+10	1	-1E+10	1	-1E+10	1	-1E+10	1	-1E+10	1	-1E+10	1
4901784	67	C	05/05/2017	10:49	-132.226	43.724	0	1099.50	0	3.3080	0	34.5430	4	27.499	0	1087.825	0	22.3	4	7.0	4	-1E+10	1	-1E+10	1	-1E+10	1	-1E+10	1	-1E+10	1	-1E+10	1
4901784	67	C	05/05/2017	10:49	-132.226	43.724	0	1104.40	0	3.3080	0	34.5440	4	27.500	0	1092.661	0	22.5	4	7.0	4	-1E+10	1	-1E+10	1	-1E+10	1	-1E+10	1	-1E+10	1	-1E+10	1
4901784	67	C	05/05/2017	10:49	-132.226	43.724	0	1109.30	0	3.3100	0	34.5450	4	27.500	0	1097.496	0	22.7	4	7.1	4	-1E+10	1	-1E+10	1	-1E+10	1	-1E+10	1	-1E+10	1	-1E+10	1
4901784	67	C	05/05/2017	10:49	-132.226	43.724	0	1115.00	0	3.3100	0	34.5470	4	27.502	0	1103.120	0	22.9	4	7.1	4	-1E+10	1	-1E+10	1	-1E+10	1	-1E+10	1	-1E+10	1	-1E+10	1
4901784	67	C	05/05/2017	10:49	-132.226	43.724	0	1120.10	0	3.3090	0	34.5480	4	27.503	0	1108.152	0	23.0	4	7.2	4	-1E+10	1	-1E+10	1	-1E+10	1	-1E+10	1	-1E+10	1	-1E+10	1
4901784	67	C	05/05/2017	10:49	-132.226	43.724	0	1124.40	0	3.3080	0	34.5490	4	27.504	0	1112.395	0	23.1	4	7.2	4	-1E+10	1	-1E+10	1	-1E+10	1	-1E+10	1	-1E+10	1	-1E+10	1
4901784	67	C	05/05/2017	10:49	-132.226	43.724	0	1129.60	0	3.3060	0	34.5500	4	27.505	0	1117.526	0	23.2	4	7.2	4	-1E+10	1	-1E+10	1	-1E+10	1	-1E+10	1	-1E+10	1	-1E+10	1
4901784	67	C	05/05/2017	10:49	-132.226	43.724	0	1135.00	0	3.3020	0	34.5500	4	27.505	0	1122.853	0	23.3	4	7.3	4	-1E+10	1	-1E+10	1	-1E+10	1	-1E+10	1	-1E+10	1	-1E+10	1
4901784	67	C	05/05/2017	10:49	-132.226	43.724	0	1140.50	0	3.2980	0	34.5520	4	27.507	0	1128.280	0	23.4	4	7.3	4	-1E+10	1	-1E+10	1	-1E+10	1	-1E+10	1	-1E+10	1	-1E+10	1
4901784	67	C	05/05/2017	10:49	-132.226	43.724	0	1145.10	0	3.2980	0	34.5520	4	27.507	0	1132.818	0	23.5	4	7.3	4	-1E+10	1	-1E+10	1	-1E+10	1	-1E+10	1	-1E+10	1	-1E+10	1
4901784	67	C	05/05/2017	10:49	-132.226	43.724	0	1149.80	0	3.2980	0	34.5520	4	27.507	0	1137.455	0	23.6	4	7.3	4	-1E+10	1	-1E+10	1	-1E+10	1	-1E+10	1	-1E+10	1	-1E+10	1
4901784	67	C	05/05/2017	10:49	-132.226	43.724	0	1155.40	0	3.2960	0	34.5530	4	27.509	0	1142.980	0	23.8	4	7.4	4	-1E+10	1	-1E+10	1	-1E+10	1	-1E+10	1	-1E+10	1	-1E+10	1
4901784	67	C	05/05/2017	10:49	-132.226	43.724	0	1160.10	0	3.2970	0	34.5550	4	27.510	0	1147.616	0	24.1	4	7.5	4	-1E+10	1	-1E+10	1	-1E+10	1	-1E+10	1	-1E+10	1	-1E+10	1
4901784	67	C	05/05/2017	10:49	-132.226	43.724	0	1164.30	0	3.2990	0	34.5560	4	27.511	0	1151.760	0	24.3	4	7.6	4	-1E+10	1	-1E+10	1	-1E+10	1	-1E+10	1	-1E+10	1	-1E+10	1
4901784	67	C	05/05/2017	10:49	-132.226	43.724	0	1169.40	0	3.2980	0	34.5570	4	27.512	0	1156.791	0	24.5	4	7.6	4	-1E+10	1	-1E+10	1	-1E+10	1	-1E+10	1	-1E+10	1	-1E+10	1
4901784	67	C	05/05/2017	10:49	-132.226	43.724	0	1175.00	0	3.2910	0	34.5590	4	27.514	0	1162.315	0	24.8	4	7.7	4	-1E+10	1	-1E+10	1	-1E+10	1	-1E+10	1	-1E+10	1	-1E+10	1
4901784	67	C	05/05/2017	10:49	-132.226	43.724	0	1180.60	0	3.2850	0	34.5610	4	27.516	0	1167.839	0	24.9	4	7.8	4	-1E+10	1	-1E+10	1	-1E+10	1	-1E+10	1	-1E+10	1	-1E+10	1
4901784	67	C	05/05/2017	10:49	-132.226	43.724	0	1185.50	0	3.2690	0	34.5620	4	27.518	0	1172.672	0	25.1	4	7.8	4	-1E+10	1	-1E+10	1	-1E+10	1	-1E+10	1	-1E+10	1	-1E+10	1
4901784	67	C	05/05/2017	10:49	-132.226	43.724	0	1190.40	0	3.2570	0	34.5640	4	27.521	0	1177.505	0	25.3	4	7.9	4	-1E+10	1	-1E+10	1	-1E+10	1	-1E+10	1	-1E+10	1	-1E+10	1
4901784	67	C	05/05/2017	10:49	-132.226	43.724	0	1195.30	0	3.2500	0	34.5650	4	27.523	0	1182.339	0	25.6	4	8.0	4	-1E+10	1	-1E+10	1	-1E+10	1	-1E+10	1	-1E+10	1	-1E+10	1
4901784	67	C	05/05/2017	10:49	-132.226	43.724	0	1200.30	0	3.2500	0	34.5670	4	27.524	0	1187.270	0	25.9	4	8.1	4	-1E+10	1	-1E+10	1	-1E+10	1	-1E+10	1	-1E+10	1	-1E+10	1
4901784	67	C	05/05/2017	10:49	-132.226	43.724	0	1205.40	0	3.2510	0	34.5690	4	27.526	0	1192.300	0	26.2	4	8.1	4	-1E+10	1	-1E+10	1	-1E+10	1	-1E+10	1	-1E+10	1	-1E+10	1
4901784	67	C	05/05/2017	10:49	-132.226	43.724	0	1210.50	0	3.2480	0	34.5700	4	27.527	0	1197.330	0	26.4	4	8.2	4	-1E+10	1	-1E+10	1	-1E+10	1	-1E+10	1	-1E+10	1	-1E+10	1
4901784	67	C	05/05/2017	10:49	-132.226	43.724	0	1215.70	0	3.2430	0	34.5720	4	27.529	0	1202.459	0	26.5	4	8.2	4	-1E+10	1	-1E+10	1	-1E+10	1	-1E+10	1	-1E+10	1	-1E+10	1
4901784	67	C	05/05/2017	10:49	-132.226	43.724	0	1220.00	0	3.2350	0	34.5730	4	27.531	0	1206.700	0	26.5	4	8.3	4	-1E+10	1	-1E+10	1	-1E+10	1	-1E+10	1	-1E+10	1	-1E+10	1
4901784	67	C	05/05/2017	10:49	-132.226	43.724	0	1224.30	0	3.2320	0	34.5720	4	27.530	0	1210.941	0	26.6	4	8.3	4	-1E+10	1	-1E+10	1	-1E+10	1	-1E+10	1	-1E+10	1	-1E+10	1
4901784	67	C	05/05/2017	10:49	-132.226	43.724	0	1229.60	0	3.2280	0	34.5730	4	27.531	0	1216.167	0	26.7	4	8.3	4	-1E+10	1	-1E+10	1	-1E+10	1	-1E+10	1	-1E+10	1	-1E+10	1
4901784	67	C	05/05/2017	10:49	-132.226	43.724	0	1234.90	0	3.2200	0	34.5730	4	27.532	0	1221.394	0	26.7	4	8.3	4	-1E+10	1	-1E+10	1	-1E+10	1	-1E+10	1	-1E+10	1	-1E+10	1
4901784	67	C	05/05/2017	10:49	-132.226	43.724	0	1240.20	0	3.2050	0	34.5740	4	27.534	0	1226.621	0	26.8	4	8.3	4	-1E+10	1	-1E+10	1	-1E+10	1	-1E+10	1	-1E+10	1	-1E+10	1
4901784	67	C	05/05/2017	10:49	-132.226	43.724	0	1245.40	0	3.1980	0	34.5740	4	27.535	0	1231.749	0	26.9	4	8.3	4	-1E+10	1	-1E+10	1	-1E+10	1	-1E+10	1	-1E+10	1	-1E+10	1
4901784	67	C	05/05/2017	10:49	-132.226	43.724	0	1250.60	0	3.1850	0	34.5750	4	27.537	0	1236.876	0	26.9	4	8.3	4	-1E+10	1	-1E+10	1	-1E+10	1	-1E+10	1	-1E+10	1	-1E+10	1
4901784	67	C	05/05/2017	10:49	-132.226	43.724	0	1255.60	0	3.1720	0	34.5760	4	27.539	0	1241.807	0	26.9	4	8.3	4	-1E+10	1	-1E+10	1	-1E+10	1	-1E+10	1	-1E+10	1	-1E+10	1
4901784	67	C	05/05/2017	10:49	-132.226	43.724	0	1260.60	0	3.1610	0	34.5760	4	27.540	0	1246.737	0	26.9	4	8.3	4	-1E+10	1	-1E+10	1	-1E+10	1	-1E+10	1	-1E+10	1	-1E+10	1
4901784	67	C	05/05/2017	10:49	-132.226	43.724	0	1265.70	0	3.1580	0	34.5760	4	27.540	0	1251.766	0	26.9	4	8.3	4	-1E+10	1	-1E+10	1	-1E+10	1	-1E+10	1	-1E+10	1	-1E+10	1
4901784	67	C	05/05/2017	10:49	-132.226	43.724	0	1270.70	0	3.1580	0	34.5750	4	27.540	0	1256.696	0	26.9	4	8.4	4	-1E+10	1	-1E+10	1	-1E+10	1	-1E+10	1	-1E+10	1	-1E+10	1
4901784	67	C	05/05/2017	10:49	-132.226	43.724	0	1275.00	0	3.1450	0	34.5760	4	27.542	0	1260.936	0	27.0	4	8.4	4	-1E+10	1	-1E+10	1	-1E+10	1	-1E+10	1	-1E+10	1	-1E+10	1
4901784	67	C	05/05/2017	10:49	-132.226	43.724	0	1279.30	0	3.1380	0	34.5760	4	27.542	0	1265.175	0	27.0	4	8.4	4	-1E+10	1	-1E+10	1	-1E+10	1	-1E+10	1	-1E+10	1	-1E+10	1
4901784	67	C	05/05/2017	10:49	-132.226	43.724	0	1284.40	0	3.1270	0	34.5780	4	27.545	0	1270.204	0	27.1	4	8.4	4	-1E+10	1	-1E+10	1	-1E+10	1	-1E+10	1	-1E+10	1	-1E+10	1
4901784	67	C	05/05/2017	10:49	-132.226	43.724	0	1289.60	0	3.1160	0	34.5780	4	27.546	0	1275.330	0	27.0	4	8.4	4	-1E+10	1	-1E+10	1	-1E+10	1	-1E+10	1	-1E+10	1	-1E+10	1
4901784	67	C	05/05/2017	10:49	-132.226	43.724	0	1294.70	0	3.1040	0	34.5770	4	27.546	0	1280.358	0	26.9	4	8.3	4	-1E+10	1	-1E+10	1	-1E+10	1	-1E+10	1	-1E+10	1	-1E+10	1
4901784	67	C	05/05/2017	10:49	-132.226	43.724	0	1300.00	0	3.0840	0	34.5770	4	27.548	0	1285.584	0	26.9	4	8.3	4	-1E+10	1	-1E+10	1	-1E+10	1	-1E+10	1	-1E+10	1	-1E+10	1
4901784	67	C	05/05/2017	10:49	-132.226	43.724	0	1305.30	0	3.0600	0	34.5760	4	27.550	0	1290.809	0	26.9	4	8.3	4	-1E+10	1	-1E+10	1	-1E+10	1	-1E+10	1	-1E+10	1	-1E+10	1
4901784	67	C	05/05/2017	10:49	-132.226	43.724	0	1310.60	0	3.0280	0	34.5770	4	27.553	0	1296.033	0	26.9	4	8.3	4	-1E+10	1	-1E+10	1	-1E+10	1	-1E+10	1	-1E+10	1	-1E+10	1
4901784	67	C	05/05/2017	10:49	-132.226	43.724	0	1315.10	0	3.0210	0	34.5780	4	27.555	0	1300.469	0	26.9	4	8.3	4	-1E+10	1	-1E+10	1	-1E+10	1	-1E+10	1	-1E+10	1	-1E+10	1
4901784	67	C	05/05/2017	10:49	-132.226	43.724	0	1319.50	0	3.0150	0	34.5770	4	27.555	0	1304.807	0	26.9	4	8.3	4	-1E+10	1	-1E+10	1	-1E+10	1	-1E+10	1	-1E+10	1	-1E+10	1
4901784	67	C	05/05/2017	10:49	-132.226	43.724	0	1325.00	0	2.9960	0	34.5780	4	27.557	0	1310.229	0	26.9	4	8.3	4	-1E+10	1	-1E+10	1	-1E+10	1	-1E+10	1	-1E+10	1	-1E+10	1
4901784	67	C	05/05/2017	10:49	-132.226	43.724	0	1330.30	0	2.9930	0	34.5780	4	27.557	0	1315.453	0	26.9	4	8.3	4	-1E+10	1	-1E+10	1	-1E+10	1	-1E+10	1	-1E+10	1	-1E+10	1
4901784	67	C	05/05/2017	10:49	-132.226	43.724	0	1335.70	0	2.9910	0	34.5780	4	27.558	0	1320.776	0	26.8	4	8.3	4	-1E+10	1	-1E+10	1	-1E+10	1	-1E+10	1	-1E+10	1	-1E+10	1
4901784	67	C	05/05/2017	10:49	-132.226	43.724	0	1340.20	0	2.9710	0	34.5780	4	27.559	0	1325.211	0	26.8	4	8.3	4	-1E+10	1	-1E+10	1	-1E+10	1	-1E+10	1	-1E+10	1	-1E+10	1
4901784	67	C	05/05/2017	10:49	-132.226	43.724	0	1344.70	0	2.9610	0	34.5780	4	27.560	0	1329.647	0	26.8	4	8.3	4	-1E+10	1	-1E+10	1	-1E+10	1	-1E+10	1	-1E+10	1	-1E+10	1
4901784	67	C	05/05/2017	10:49	-132.226	43.724	0	1350.20	0	2.9530	0	34.5780	4	27.561	0	1335.068	0	26.7	4	8.2	4	-1E+10	1	-1E+10	1	-1E+10	1	-1E+10	1	-1E+10	1	-1E+10	1
4901784	67	C	05/05/2017	10:49	-132.226	43.724	0	1354.70	0	2.9400	0	34.5780	4	27.562	0	1339.503	0	26.6	4	8.2	4	-1E+10	1	-1E+10	1	-1E+10	1	-1E+10	1	-1E+10	1	-1E+10	1
4901784	67	C	05/05/2017	10:49	-132.226	43.724	0	1359.30	0	2.9320	0	34.5770	4	27.562	0	1344.037	0	26.6	4	8.2	4	-1E+10	1	-1E+10	1	-1E+10	1	-1E+10	1	-1E+10	1	-1E+10	1
4901784	67	C	05/05/2017	10:49	-132.226	43.724	0	1364.90	0	2.9160	0	34.5780	4	27.565	0	1349.556	0	26.6	4	8.2	4	-1E+10	1	-1E+10	1	-1E+10	1	-1E+10	1	-1E+10	1	-1E+10	1
4901784	67	C	05/05/2017	10:49	-132.226	43.724	0	1370.40	0	2.9090	0	34.5770	4	27.564	0	1354.977	0	26.6	4	8.2	4	-1E+10	1	-1E+10	1	-1E+10	1	-1E+10	1	-1E+10	1	-1E+10	1
4901784	67	C	05/05/2017	10:49	-132.226	43.724	0	1375.00	0	2.8980	0	34.5780	4	27.566	0	1359.510	0	26.6	4	8.2	4	-1E+10	1	-1E+10	1	-1E+10	1	-1E+10	1	-1E+10	1	-1E+10	1
4901784	67	C	05/05/2017	10:49	-132.226	43.724	0	1380.30	0	2.8870	0	34.5780	4	27.567	0	1364.733	0	26.7	4	8.2	4	-1E+10	1	-1E+10	1	-1E+10	1	-1E+10	1	-1E+10	1	-1E+10	1
4901784	67	C	05/05/2017	10:49	-132.226	43.724	0	1385.40	0	2.8830	0	34.5780	4	27.568	0	1369.759	0	26.7	4	8.2	4	-1E+10	1	-1E+10	1	-1E+10	1	-1E+10	1	-1E+10	1	-1E+10	1
4901784	67	C	05/05/2017	10:49	-132.226	43.724	0	1390.20	0	2.8820	0	34.5780	4	27.568	0	1374.489	0	26.7	4	8.2	4	-1E+10	1	-1E+10	1	-1E+10	1	-1E+10	1	-1E+10	1	-1E+10	1
4901784	67	C	05/05/2017	10:49	-132.226	43.724	0	1395.10	0	2.8770	0	34.5780	4	27.568	0	1379.318	0	26.6	4	8.2	4	-1E+10	1	-1E+10	1	-1E+10	1	-1E+10	1	-1E+10	1	-1E+10	1
4901784	67	C	05/05/2017	10:49	-132.226	43.724	0	1400.00	0	2.8700	0	34.5780	4	27.569	0	1384.146	0	26.6	4	8.2	4	-1E+10	1	-1E+10	1	-1E+10	1	-1E+10	1	-1E+10	1	-1E+10	1
4901784	67	C	05/05/2017	10:49	-132.226	43.724	0	1405.00	0	2.8660	0	34.5780	4	27.569	0	1389.073	0	26.6	4	8.2	4	-1E+10	1	-1E+10	1	-1E+10	1	-1E+10	1	-1E+10	1	-1E+10	1
4901784	67	C	05/05/2017	10:49	-132.226	43.724	0	1410.00	0	2.8570	0	34.5780	4	27.570	0	1394.000	0	26.6	4	8.2	4	-1E+10	1	-1E+10	1	-1E+10	1	-1E+10	1	-1E+10	1	-1E+10	1
4901784	67	C	05/05/2017	10:49	-132.226	43.724	0	1415.20	0	2.8390	0	34.5780	4	27.572	0	1399.124	0	26.6	4	8.2	4	-1E+10	1	-1E+10	1	-1E+10	1	-1E+10	1	-1E+10	1	-1E+10	1
4901784	67	C	05/05/2017	10:49	-132.226	43.724	0	1420.30	0	2.8260	0	34.5770	4	27.572	0	1404.149	0	26.5	4	8.2	4	-1E+10	1	-1E+10	1	-1E+10	1	-1E+10	1	-1E+10	1	-1E+10	1
4901784	67	C	05/05/2017	10:49	-132.226	43.724	0	1425.50	0	2.8090	0	34.5770	4	27.574	0	1409.273	0	26.5	4	8.1	4	-1E+10	1	-1E+10	1	-1E+10	1	-1E+10	1	-1E+10	1	-1E+10	1
4901784	67	C	05/05/2017	10:49	-132.226	43.724	0	1430.70	0	2.7910	0	34.5780	4	27.576	0	1414.396	0	26.5	4	8.1	4	-1E+10	1	-1E+10	1	-1E+10	1	-1E+10	1	-1E+10	1	-1E+10	1
4901784	67	C	05/05/2017	10:49	-132.226	43.724	0	1435.00	0	2.7880	0	34.5780	4	27.576	0	1418.633	0	26.5	4	8.2	4	-1E+10	1	-1E+10	1	-1E+10	1	-1E+10	1	-1E+10	1	-1E+10	1
4901784	67	C	05/05/2017	10:49	-132.226	43.724	0	1439.30	0	2.7820	0	34.5780	4	27.577	0	1422.869	0	26.5	4	8.2	4	-1E+10	1	-1E+10	1	-1E+10	1	-1E+10	1	-1E+10	1	-1E+10	1
4901784	67	C	05/05/2017	10:49	-132.226	43.724	0	1444.50	0	2.7730	0	34.5780	4	27.578	0	1427.992	0	26.5	4	8.1	4	-1E+10	1	-1E+10	1	-1E+10	1	-1E+10	1	-1E+10	1	-1E+10	1
4901784	67	C	05/05/2017	10:49	-132.226	43.724	0	1449.80	0	2.7540	0	34.5770	4	27.579	0	1433.214	0	26.5	4	8.1	4	-1E+10	1	-1E+10	1	-1E+10	1	-1E+10	1	-1E+10	1	-1E+10	1
4901784	67	C	05/05/2017	10:49	-132.226	43.724	0	1455.10	0	2.7370	0	34.5770	4	27.580	0	1438.435	0	26.5	4	8.1	4	-1E+10	1	-1E+10	1	-1E+10	1	-1E+10	1	-1E+10	1	-1E+10	1
4901784	67	C	05/05/2017	10:49	-132.226	43.724	0	1460.50	0	2.7200	0	34.5770	4	27.582	0	1443.755	0	26.5	4	8.1	4	-1E+10	1	-1E+10	1	-1E+10	1	-1E+10	1	-1E+10	1	-1E+10	1
4901784	67	C	05/05/2017	10:49	-132.226	43.724	0	1465.10	0	2.6940	0	34.5780	4	27.585	0	1448.286	0	26.6	4	8.2	4	-1E+10	1	-1E+10	1	-1E+10	1	-1E+10	1	-1E+10	1	-1E+10	1
4901784	67	C	05/05/2017	10:49	-132.226	43.724	0	1469.50	0	2.6740	0	34.5780	4	27.586	0	1452.620	0	26.7	4	8.2	4	-1E+10	1	-1E+10	1	-1E+10	1	-1E+10	1	-1E+10	1	-1E+10	1
4901784	67	C	05/05/2017	10:49	-132.226	43.724	0	1474.90	0	2.6540	0	34.5790	4	27.589	0	1457.940	0	26.8	4	8.2	4	-1E+10	1	-1E+10	1	-1E+10	1	-1E+10	1	-1E+10	1	-1E+10	1
4901784	67	C	05/05/2017	10:49	-132.226	43.724	0	1480.30	0	2.6430	0	34.5790	4	27.590	0	1463.259	0	26.9	4	8.2	4	-1E+10	1	-1E+10	1	-1E+10	1	-1E+10	1	-1E+10	1	-1E+10	1
4901784	67	C	05/05/2017	10:49	-132.226	43.724	0	1485.60	0	2.6350	0	34.5790	4	27.591	0	1468.480	0	27.0	4	8.3	4	-1E+10	1	-1E+10	1	-1E+10	1	-1E+10	1	-1E+10	1	-1E+10	1
4901784	67	C	05/05/2017	10:49	-132.226	43.724	0	1489.90	0	2.6190	0	34.5790	4	27.592	0	1472.715	0	27.1	4	8.3	4	-1E+10	1	-1E+10	1	-1E+10	1	-1E+10	1	-1E+10	1	-1E+10	1
4901784	67	C	05/05/2017	10:49	-132.226	43.724	0	1494.30	0	2.6000	0	34.5810	4	27.595	0	1477.049	0	27.2	4	8.3	4	-1E+10	1	-1E+10	1	-1E+10	1	-1E+10	1	-1E+10	1	-1E+10	1
4901784	67	C	05/05/2017	10:49	-132.226	43.724	0	1499.70	0	2.5890	0	34.5810	4	27.596	0	1482.368	0	27.3	4	8.4	4	-1E+10	1	-1E+10	1	-1E+10	1	-1E+10	1	-1E+10	1	-1E+10	1
4901784	67	C	05/05/2017	10:49	-132.226	43.724	0	1504.90	0	2.5790	0	34.5810	4	27.597	0	1487.489	0	27.5	4	8.4	4	-1E+10	1	-1E+10	1	-1E+10	1	-1E+10	1	-1E+10	1	-1E+10	1
4901784	67	C	05/05/2017	10:49	-132.226	43.724	0	1510.20	0	2.5590	0	34.5830	4	27.600	0	1492.709	0	27.7	4	8.5	4	-1E+10	1	-1E+10	1	-1E+10	1	-1E+10	1	-1E+10	1	-1E+10	1
4901784	67	C	05/05/2017	10:49	-132.226	43.724	0	1515.50	0	2.5530	0	34.5830	4	27.601	0	1497.929	0	27.8	4	8.5	4	-1E+10	1	-1E+10	1	-1E+10	1	-1E+10	1	-1E+10	1	-1E+10	1
4901784	67	C	05/05/2017	10:49	-132.226	43.724	0	1519.90	0	2.5440	0	34.5830	4	27.602	0	1502.262	0	28.0	4	8.6	4	-1E+10	1	-1E+10	1	-1E+10	1	-1E+10	1	-1E+10	1	-1E+10	1
4901784	67	C	05/05/2017	10:49	-132.226	43.724	0	1524.30	0	2.5330	0	34.5840	4	27.603	0	1506.596	0	28.3	4	8.6	4	-1E+10	1	-1E+10	1	-1E+10	1	-1E+10	1	-1E+10	1	-1E+10	1
4901784	67	C	05/05/2017	10:49	-132.226	43.724	0	1529.60	0	2.5120	0	34.5850	4	27.606	0	1511.815	0	28.7	4	8.8	4	-1E+10	1	-1E+10	1	-1E+10	1	-1E+10	1	-1E+10	1	-1E+10	1
4901784	67	C	05/05/2017	10:49	-132.226	43.724	0	1534.90	0	2.4860	0	34.5870	4	27.610	0	1517.035	0	29.1	4	8.9	4	-1E+10	1	-1E+10	1	-1E+10	1	-1E+10	1	-1E+10	1	-1E+10	1
4901784	67	C	05/05/2017	10:49	-132.226	43.724	0	1540.40	0	2.4780	0	34.5880	4	27.611	0	1522.451	0	29.4	4	9.0	4	-1E+10	1	-1E+10	1	-1E+10	1	-1E+10	1	-1E+10	1	-1E+10	1
4901784	67	C	05/05/2017	10:49	-132.226	43.724	0	1544.90	0	2.4660	0	34.5890	4	27.613	0	1526.882	0	29.7	4	9.1	4	-1E+10	1	-1E+10	1	-1E+10	1	-1E+10	1	-1E+10	1	-1E+10	1
4901784	67	C	05/05/2017	10:49	-132.226	43.724	0	1549.50	0	2.4580	0	34.5900	4	27.615	0	1531.412	0	30.0	4	9.2	4	-1E+10	1	-1E+10	1	-1E+10	1	-1E+10	1	-1E+10	1	-1E+10	1
4901784	67	C	05/05/2017	10:49	-132.226	43.724	0	1554.90	0	2.4410	0	34.5910	4	27.617	0	1536.729	0	30.5	4	9.3	4	-1E+10	1	-1E+10	1	-1E+10	1	-1E+10	1	-1E+10	1	-1E+10	1
4901784	67	C	05/05/2017	10:49	-132.226	43.724	0	1560.40	0	2.4220	0	34.5930	4	27.620	0	1542.145	0	30.9	4	9.4	4	-1E+10	1	-1E+10	1	-1E+10	1	-1E+10	1	-1E+10	1	-1E+10	1
4901784	67	C	05/05/2017	10:49	-132.226	43.724	0	1565.10	0	2.4190	0	34.5940	4	27.621	0	1546.773	0	31.1	4	9.5	4	-1E+10	1	-1E+10	1	-1E+10	1	-1E+10	1	-1E+10	1	-1E+10	1
4901784	67	C	05/05/2017	10:49	-132.226	43.724	0	1570.30	0	2.4050	0	34.5950	4	27.623	0	1551.893	0	31.5	4	9.6	4	-1E+10	1	-1E+10	1	-1E+10	1	-1E+10	1	-1E+10	1	-1E+10	1
4901784	67	C	05/05/2017	10:49	-132.226	43.724	0	1575.40	0	2.3930	0	34.5960	4	27.625	0	1556.914	0	31.7	4	9.6	4	-1E+10	1	-1E+10	1	-1E+10	1	-1E+10	1	-1E+10	1	-1E+10	1
4901784	67	C	05/05/2017	10:49	-132.226	43.724	0	1580.20	0	2.3900	0	34.5970	4	27.626	0	1561.640	0	31.8	4	9.7	4	-1E+10	1	-1E+10	1	-1E+10	1	-1E+10	1	-1E+10	1	-1E+10	1
4901784	67	C	05/05/2017	10:49	-132.226	43.724	0	1585.10	0	2.3870	0	34.5970	4	27.626	0	1566.465	0	32.1	4	9.8	4	-1E+10	1	-1E+10	1	-1E+10	1	-1E+10	1	-1E+10	1	-1E+10	1
4901784	67	C	05/05/2017	10:49	-132.226	43.724	0	1589.90	0	2.3760	0	34.5980	4	27.628	0	1571.190	0	32.6	4	9.9	4	-1E+10	1	-1E+10	1	-1E+10	1	-1E+10	1	-1E+10	1	-1E+10	1
4901784	67	C	05/05/2017	10:49	-132.226	43.724	0	1594.80	0	2.3570	0	34.6000	4	27.631	0	1576.014	0	33.1	4	10.1	4	-1E+10	1	-1E+10	1	-1E+10	1	-1E+10	1	-1E+10	1	-1E+10	1
4901784	67	C	05/05/2017	10:49	-132.226	43.724	0	1599.80	0	2.3440	0	34.6020	4	27.634	0	1580.937	0	33.5	4	10.2	4	-1E+10	1	-1E+10	1	-1E+10	1	-1E+10	1	-1E+10	1	-1E+10	1
4901784	67	C	05/05/2017	10:49	-132.226	43.724	0	1604.80	0	2.3380	0	34.6030	4	27.635	0	1585.859	0	33.8	4	10.3	4	-1E+10	1	-1E+10	1	-1E+10	1	-1E+10	1	-1E+10	1	-1E+10	1
4901784	67	C	05/05/2017	10:49	-132.226	43.724	0	1609.80	0	2.3270	0	34.6040	4	27.637	0	1590.781	0	34.2	4	10.4	4	-1E+10	1	-1E+10	1	-1E+10	1	-1E+10	1	-1E+10	1	-1E+10	1
4901784	67	C	05/05/2017	10:49	-132.226	43.724	0	1614.80	0	2.3200	0	34.6050	4	27.638	0	1595.704	0	34.5	4	10.5	4	-1E+10	1	-1E+10	1	-1E+10	1	-1E+10	1	-1E+10	1	-1E+10	1
4901784	67	C	05/05/2017	10:49	-132.226	43.724	0	1619.80	0	2.3130	0	34.6060	4	27.640	0	1600.626	0	35.0	4	10.6	4	-1E+10	1	-1E+10	1	-1E+10	1	-1E+10	1	-1E+10	1	-1E+10	1
4901784	67	C	05/05/2017	10:49	-132.226	43.724	0	1624.70	0	2.3010	0	34.6070	4	27.641	0	1605.449	0	35.4	4	10.8	4	-1E+10	1	-1E+10	1	-1E+10	1	-1E+10	1	-1E+10	1	-1E+10	1
4901784	67	C	05/05/2017	10:49	-132.226	43.724	0	1629.70	0	2.2880	0	34.6090	4	27.644	0	1610.371	0	35.9	4	10.9	4	-1E+10	1	-1E+10	1	-1E+10	1	-1E+10	1	-1E+10	1	-1E+10	1
4901784	67	C	05/05/2017	10:49	-132.226	43.724	0	1634.60	0	2.2820	0	34.6100	4	27.645	0	1615.194	0	36.1	4	11.0	4	-1E+10	1	-1E+10	1	-1E+10	1	-1E+10	1	-1E+10	1	-1E+10	1
4901784	67	C	05/05/2017	10:49	-132.226	43.724	0	1639.50	0	2.2800	0	34.6100	4	27.646	0	1620.017	0	36.4	4	11.0	4	-1E+10	1	-1E+10	1	-1E+10	1	-1E+10	1	-1E+10	1	-1E+10	1
4901784	67	C	05/05/2017	10:49	-132.226	43.724	0	1644.50	0	2.2720	0	34.6110	4	27.647	0	1624.938	0	36.9	4	11.2	4	-1E+10	1	-1E+10	1	-1E+10	1	-1E+10	1	-1E+10	1	-1E+10	1
4901784	67	C	05/05/2017	10:49	-132.226	43.724	0	1649.50	0	2.2610	0	34.6130	4	27.650	0	1629.860	0	37.4	4	11.4	4	-1E+10	1	-1E+10	1	-1E+10	1	-1E+10	1	-1E+10	1	-1E+10	1
4901784	67	C	05/05/2017	10:49	-132.226	43.724	0	1654.40	0	2.2450	0	34.6150	4	27.653	0	1634.682	0	38.0	4	11.5	4	-1E+10	1	-1E+10	1	-1E+10	1	-1E+10	1	-1E+10	1	-1E+10	1
4901784	67	C	05/05/2017	10:49	-132.226	43.724	0	1659.50	0	2.2380	0	34.6160	4	27.654	0	1639.702	0	38.3	4	11.6	4	-1E+10	1	-1E+10	1	-1E+10	1	-1E+10	1	-1E+10	1	-1E+10	1
4901784	67	C	05/05/2017	10:49	-132.226	43.724	0	1664.50	0	2.2350	0	34.6160	4	27.654	0	1644.623	0	38.7	4	11.7	4	-1E+10	1	-1E+10	1	-1E+10	1	-1E+10	1	-1E+10	1	-1E+10	1
4901784	67	C	05/05/2017	10:49	-132.226	43.724	0	1669.70	0	2.2240	0	34.6180	4	27.657	0	1649.741	0	39.1	4	11.9	4	-1E+10	1	-1E+10	1	-1E+10	1	-1E+10	1	-1E+10	1	-1E+10	1
4901784	67	C	05/05/2017	10:49	-132.226	43.724	0	1674.70	0	2.2190	0	34.6190	4	27.658	0	1654.661	0	39.3	4	11.9	4	-1E+10	1	-1E+10	1	-1E+10	1	-1E+10	1	-1E+10	1	-1E+10	1
4901784	67	C	05/05/2017	10:49	-132.226	43.724	0	1679.80	0	2.2130	0	34.6200	4	27.659	0	1659.680	0	39.7	4	12.0	4	-1E+10	1	-1E+10	1	-1E+10	1	-1E+10	1	-1E+10	1	-1E+10	1
4901784	67	C	05/05/2017	10:49	-132.226	43.724	0	1684.90	0	2.2070	0	34.6210	4	27.661	0	1664.699	0	40.0	4	12.1	4	-1E+10	1	-1E+10	1	-1E+10	1	-1E+10	1	-1E+10	1	-1E+10	1
4901784	67	C	05/05/2017	10:49	-132.226	43.724	0	1690.10	0	2.2040	0	34.6210	4	27.661	0	1669.816	0	40.2	4	12.2	4	-1E+10	1	-1E+10	1	-1E+10	1	-1E+10	1	-1E+10	1	-1E+10	1
4901784	67	C	05/05/2017	10:49	-132.226	43.724	0	1695.30	0	2.2000	0	34.6210	4	27.661	0	1674.934	0	40.6	4	12.3	4	-1E+10	1	-1E+10	1	-1E+10	1	-1E+10	1	-1E+10	1	-1E+10	1
4901784	67	C	05/05/2017	10:49	-132.226	43.724	0	1700.60	0	2.1900	0	34.6230	4	27.664	0	1680.149	0	41.0	4	12.4	4	-1E+10	1	-1E+10	1	-1E+10	1	-1E+10	1	-1E+10	1	-1E+10	1
4901784	67	C	05/05/2017	10:49	-132.226	43.724	0	1705.00	0	2.1870	0	34.6230	4	27.664	0	1684.478	0	41.4	4	12.5	4	-1E+10	1	-1E+10	1	-1E+10	1	-1E+10	1	-1E+10	1	-1E+10	1
4901784	67	C	05/05/2017	10:49	-132.226	43.724	0	1709.40	0	2.1740	0	34.6260	4	27.667	0	1688.808	0	41.8	4	12.7	4	-1E+10	1	-1E+10	1	-1E+10	1	-1E+10	1	-1E+10	1	-1E+10	1
4901784	67	C	05/05/2017	10:49	-132.226	43.724	0	1714.70	0	2.1700	0	34.6260	4	27.668	0	1694.023	0	41.9	4	12.7	4	-1E+10	1	-1E+10	1	-1E+10	1	-1E+10	1	-1E+10	1	-1E+10	1
4901784	67	C	05/05/2017	10:49	-132.226	43.724	0	1720.10	0	2.1680	0	34.6260	4	27.668	0	1699.336	0	42.2	4	12.8	4	-1E+10	1	-1E+10	1	-1E+10	1	-1E+10	1	-1E+10	1	-1E+10	1
4901784	67	C	05/05/2017	10:49	-132.226	43.724	0	1725.50	0	2.1640	0	34.6270	4	27.669	0	1704.649	0	42.4	4	12.8	4	-1E+10	1	-1E+10	1	-1E+10	1	-1E+10	1	-1E+10	1	-1E+10	1
4901784	67	C	05/05/2017	10:49	-132.226	43.724	0	1730.00	0	2.1620	0	34.6270	4	27.669	0	1709.077	0	42.7	4	12.9	4	-1E+10	1	-1E+10	1	-1E+10	1	-1E+10	1	-1E+10	1	-1E+10	1
4901784	67	C	05/05/2017	10:49	-132.226	43.724	0	1734.50	0	2.1560	0	34.6280	4	27.671	0	1713.504	0	43.0	4	13.0	4	-1E+10	1	-1E+10	1	-1E+10	1	-1E+10	1	-1E+10	1	-1E+10	1
4901784	67	C	05/05/2017	10:49	-132.226	43.724	0	1739.90	0	2.1510	0	34.6290	4	27.672	0	1718.817	0	43.2	4	13.1	4	-1E+10	1	-1E+10	1	-1E+10	1	-1E+10	1	-1E+10	1	-1E+10	1
4901784	67	C	05/05/2017	10:49	-132.226	43.724	0	1745.40	0	2.1480	0	34.6300	4	27.673	0	1724.228	0	43.5	4	13.2	4	-1E+10	1	-1E+10	1	-1E+10	1	-1E+10	1	-1E+10	1	-1E+10	1
4901784	67	C	05/05/2017	10:49	-132.226	43.724	0	1749.90	0	2.1440	0	34.6310	4	27.674	0	1728.655	0	43.7	4	13.2	4	-1E+10	1	-1E+10	1	-1E+10	1	-1E+10	1	-1E+10	1	-1E+10	1
4901784	67	C	05/05/2017	10:49	-132.226	43.724	0	1754.50	0	2.1430	0	34.6310	4	27.674	0	1733.181	0	43.9	4	13.3	4	-1E+10	1	-1E+10	1	-1E+10	1	-1E+10	1	-1E+10	1	-1E+10	1
4901784	67	C	05/05/2017	10:49	-132.226	43.724	0	1760.00	0	2.1400	0	34.6310	4	27.674	0	1738.591	0	44.2	4	13.4	4	-1E+10	1	-1E+10	1	-1E+10	1	-1E+10	1	-1E+10	1	-1E+10	1
4901784	67	C	05/05/2017	10:49	-132.226	43.724	0	1764.70	0	2.1330	0	34.6320	4	27.676	0	1743.215	0	44.6	4	13.5	4	-1E+10	1	-1E+10	1	-1E+10	1	-1E+10	1	-1E+10	1	-1E+10	1
4901784	67	C	05/05/2017	10:49	-132.226	43.724	0	1769.20	0	2.1270	0	34.6330	4	27.677	0	1747.641	0	44.8	4	13.5	4	-1E+10	1	-1E+10	1	-1E+10	1	-1E+10	1	-1E+10	1	-1E+10	1
4901784	67	C	05/05/2017	10:49	-132.226	43.724	0	1774.50	0	2.1260	0	34.6340	4	27.678	0	1752.855	0	45.1	4	13.7	4	-1E+10	1	-1E+10	1	-1E+10	1	-1E+10	1	-1E+10	1	-1E+10	1
4901784	67	C	05/05/2017	10:49	-132.226	43.724	0	1779.40	0	2.1150	0	34.6350	4	27.680	0	1757.675	0	45.5	4	13.8	4	-1E+10	1	-1E+10	1	-1E+10	1	-1E+10	1	-1E+10	1	-1E+10	1
4901784	67	C	05/05/2017	10:49	-132.226	43.724	0	1784.40	0	2.1110	0	34.6360	4	27.681	0	1762.593	0	45.7	4	13.8	4	-1E+10	1	-1E+10	1	-1E+10	1	-1E+10	1	-1E+10	1	-1E+10	1
4901784	67	C	05/05/2017	10:49	-132.226	43.724	0	1789.40	0	2.1090	0	34.6360	4	27.681	0	1767.511	0	45.9	4	13.9	4	-1E+10	1	-1E+10	1	-1E+10	1	-1E+10	1	-1E+10	1	-1E+10	1
4901784	67	C	05/05/2017	10:49	-132.226	43.724	0	1794.40	0	2.1080	0	34.6360	4	27.681	0	1772.429	0	46.1	4	13.9	4	-1E+10	1	-1E+10	1	-1E+10	1	-1E+10	1	-1E+10	1	-1E+10	1
4901784	67	C	05/05/2017	10:49	-132.226	43.724	0	1799.30	0	2.1030	0	34.6370	4	27.682	0	1777.249	0	46.5	4	14.1	4	-1E+10	1	-1E+10	1	-1E+10	1	-1E+10	1	-1E+10	1	-1E+10	1
4901784	67	C	05/05/2017	10:49	-132.226	43.724	0	1804.30	0	2.0950	0	34.6380	4	27.684	0	1782.167	0	46.9	4	14.2	4	-1E+10	1	-1E+10	1	-1E+10	1	-1E+10	1	-1E+10	1	-1E+10	1
4901784	67	C	05/05/2017	10:49	-132.226	43.724	0	1809.40	0	2.0890	0	34.6390	4	27.685	0	1787.183	0	47.3	4	14.3	4	-1E+10	1	-1E+10	1	-1E+10	1	-1E+10	1	-1E+10	1	-1E+10	1
4901784	67	C	05/05/2017	10:49	-132.226	43.724	0	1814.40	0	2.0810	0	34.6400	4	27.687	0	1792.100	0	47.7	4	14.4	4	-1E+10	1	-1E+10	1	-1E+10	1	-1E+10	1	-1E+10	1	-1E+10	1
4901784	67	C	05/05/2017	10:49	-132.226	43.724	0	1819.50	0	2.0740	0	34.6410	4	27.688	0	1797.116	0	48.1	4	14.5	4	-1E+10	1	-1E+10	1	-1E+10	1	-1E+10	1	-1E+10	1	-1E+10	1
4901784	67	C	05/05/2017	10:49	-132.226	43.724	0	1824.60	0	2.0680	0	34.6420	4	27.689	0	1802.132	0	48.5	4	14.7	4	-1E+10	1	-1E+10	1	-1E+10	1	-1E+10	1	-1E+10	1	-1E+10	1
4901784	67	C	05/05/2017	10:49	-132.226	43.724	0	1829.70	0	2.0600	0	34.6430	4	27.691	0	1807.147	0	48.8	4	14.8	4	-1E+10	1	-1E+10	1	-1E+10	1	-1E+10	1	-1E+10	1	-1E+10	1
4901784	67	C	05/05/2017	10:49	-132.226	43.724	0	1834.80	0	2.0570	0	34.6430	4	27.691	0	1812.163	0	49.0	4	14.8	4	-1E+10	1	-1E+10	1	-1E+10	1	-1E+10	1	-1E+10	1	-1E+10	1
4901784	67	C	05/05/2017	10:49	-132.226	43.724	0	1839.90	0	2.0540	0	34.6440	4	27.692	0	1817.178	0	49.3	4	14.9	4	-1E+10	1	-1E+10	1	-1E+10	1	-1E+10	1	-1E+10	1	-1E+10	1
4901784	67	C	05/05/2017	10:49	-132.226	43.724	0	1845.10	0	2.0490	0	34.6440	4	27.692	0	1822.291	0	49.5	4	15.0	4	-1E+10	1	-1E+10	1	-1E+10	1	-1E+10	1	-1E+10	1	-1E+10	1
4901784	67	C	05/05/2017	10:49	-132.226	43.724	0	1850.30	0	2.0470	0	34.6440	4	27.693	0	1827.405	0	49.7	4	15.0	4	-1E+10	1	-1E+10	1	-1E+10	1	-1E+10	1	-1E+10	1	-1E+10	1
4901784	67	C	05/05/2017	10:49	-132.226	43.724	0	1855.50	0	2.0450	0	34.6450	4	27.694	0	1832.518	0	49.9	4	15.1	4	-1E+10	1	-1E+10	1	-1E+10	1	-1E+10	1	-1E+10	1	-1E+10	1
4901784	67	C	05/05/2017	10:49	-132.226	43.724	0	1860.70	0	2.0400	0	34.6450	4	27.694	0	1837.631	0	50.2	4	15.2	4	-1E+10	1	-1E+10	1	-1E+10	1	-1E+10	1	-1E+10	1	-1E+10	1
4901784	67	C	05/05/2017	10:49	-132.226	43.724	0	1865.00	0	2.0380	0	34.6460	4	27.695	0	1841.859	0	50.5	4	15.3	4	-1E+10	1	-1E+10	1	-1E+10	1	-1E+10	1	-1E+10	1	-1E+10	1
4901784	67	C	05/05/2017	10:49	-132.226	43.724	0	1869.40	0	2.0310	0	34.6470	4	27.696	0	1846.185	0	50.9	4	15.4	4	-1E+10	1	-1E+10	1	-1E+10	1	-1E+10	1	-1E+10	1	-1E+10	1
4901784	67	C	05/05/2017	10:49	-132.226	43.724	0	1874.70	0	2.0260	0	34.6470	4	27.697	0	1851.397	0	51.3	4	15.5	4	-1E+10	1	-1E+10	1	-1E+10	1	-1E+10	1	-1E+10	1	-1E+10	1
4901784	67	C	05/05/2017	10:49	-132.226	43.724	0	1880.00	0	2.0210	0	34.6480	4	27.698	0	1856.608	0	51.6	4	15.6	4	-1E+10	1	-1E+10	1	-1E+10	1	-1E+10	1	-1E+10	1	-1E+10	1
4901784	67	C	05/05/2017	10:49	-132.226	43.724	0	1885.30	0	2.0170	0	34.6490	4	27.699	0	1861.818	0	52.1	4	15.7	4	-1E+10	1	-1E+10	1	-1E+10	1	-1E+10	1	-1E+10	1	-1E+10	1
4901784	67	C	05/05/2017	10:49	-132.226	43.724	0	1890.70	0	2.0120	0	34.6500	4	27.700	0	1867.127	0	52.4	4	15.8	4	-1E+10	1	-1E+10	1	-1E+10	1	-1E+10	1	-1E+10	1	-1E+10	1
4901784	67	C	05/05/2017	10:49	-132.226	43.724	0	1895.20	0	2.0100	0	34.6500	4	27.701	0	1871.552	0	52.7	4	15.9	4	-1E+10	1	-1E+10	1	-1E+10	1	-1E+10	1	-1E+10	1	-1E+10	1
4901784	67	C	05/05/2017	10:49	-132.226	43.724	0	1899.80	0	2.0070	0	34.6510	4	27.702	0	1876.074	0	52.9	4	16.0	4	-1E+10	1	-1E+10	1	-1E+10	1	-1E+10	1	-1E+10	1	-1E+10	1
4901784	67	C	05/05/2017	10:49	-132.226	43.724	0	1905.20	0	2.0060	0	34.6520	4	27.703	0	1881.383	0	53.2	4	16.1	4	-1E+10	1	-1E+10	1	-1E+10	1	-1E+10	1	-1E+10	1	-1E+10	1
4901784	67	C	05/05/2017	10:49	-132.226	43.724	0	1909.70	0	2.0030	0	34.6530	4	27.704	0	1885.806	0	53.5	4	16.1	4	-1E+10	1	-1E+10	1	-1E+10	1	-1E+10	1	-1E+10	1	-1E+10	1
4901784	67	C	05/05/2017	10:49	-132.226	43.724	0	1914.30	0	2.0010	0	34.6530	4	27.704	0	1890.329	0	53.7	4	16.2	4	-1E+10	1	-1E+10	1	-1E+10	1	-1E+10	1	-1E+10	1	-1E+10	1
4901784	67	C	05/05/2017	10:49	-132.226	43.724	0	1919.80	0	1.9990	0	34.6530	4	27.704	0	1895.735	0	54.0	4	16.3	4	-1E+10	1	-1E+10	1	-1E+10	1	-1E+10	1	-1E+10	1	-1E+10	1
4901784	67	C	05/05/2017	10:49	-132.226	43.724	0	1925.20	0	1.9940	0	34.6550	4	27.706	0	1901.043	0	54.5	4	16.4	4	-1E+10	1	-1E+10	1	-1E+10	1	-1E+10	1	-1E+10	1	-1E+10	1
4901784	67	C	05/05/2017	10:49	-132.226	43.724	0	1930.60	0	1.9900	0	34.6550	4	27.706	0	1906.351	0	54.8	4	16.5	4	-1E+10	1	-1E+10	1	-1E+10	1	-1E+10	1	-1E+10	1	-1E+10	1
4901784	67	C	05/05/2017	10:49	-132.226	43.724	0	1935.30	0	1.9850	0	34.6560	4	27.708	0	1910.971	0	55.3	4	16.7	4	-1E+10	1	-1E+10	1	-1E+10	1	-1E+10	1	-1E+10	1	-1E+10	1
4901784	67	C	05/05/2017	10:49	-132.226	43.724	0	1940.10	0	1.9770	0	34.6580	4	27.710	0	1915.689	0	55.6	4	16.8	4	-1E+10	1	-1E+10	1	-1E+10	1	-1E+10	1	-1E+10	1	-1E+10	1
4901784	67	C	05/05/2017	10:49	-132.226	43.724	0	1944.90	0	1.9770	0	34.6570	4	27.709	0	1920.407	0	55.8	4	16.8	4	-1E+10	1	-1E+10	1	-1E+10	1	-1E+10	1	-1E+10	1	-1E+10	1
4901784	67	C	05/05/2017	10:49	-132.226	43.724	0	1949.80	0	1.9740	0	34.6580	4	27.710	0	1925.224	0	56.1	4	16.9	4	-1E+10	1	-1E+10	1	-1E+10	1	-1E+10	1	-1E+10	1	-1E+10	1
4901784	67	C	05/05/2017	10:49	-132.226	43.724	0	1954.70	0	1.9710	0	34.6590	4	27.711	0	1930.040	0	56.3	4	17.0	4	-1E+10	1	-1E+10	1	-1E+10	1	-1E+10	1	-1E+10	1	-1E+10	1
4901784	67	C	05/05/2017	10:49	-132.226	43.724	0	1959.70	0	1.9670	0	34.6600	4	27.712	0	1934.954	0	56.5	4	17.0	4	-1E+10	1	-1E+10	1	-1E+10	1	-1E+10	1	-1E+10	1	-1E+10	1
4901784	67	C	05/05/2017	10:49	-132.226	43.724	0	1964.60	0	1.9660	0	34.6600	4	27.712	0	1939.770	0	56.6	4	17.1	4	-1E+10	1	-1E+10	1	-1E+10	1	-1E+10	1	-1E+10	1	-1E+10	1
4901784	67	C	05/05/2017	10:49	-132.226	43.724	0	1969.70	0	1.9640	0	34.6600	4	27.713	0	1944.782	0	56.8	4	17.1	4	-1E+10	1	-1E+10	1	-1E+10	1	-1E+10	1	-1E+10	1	-1E+10	1
4901784	67	C	05/05/2017	10:49	-132.226	43.724	0	1974.70	0	1.9590	0	34.6610	4	27.714	0	1949.696	0	57.1	4	17.2	4	-1E+10	1	-1E+10	1	-1E+10	1	-1E+10	1	-1E+10	1	-1E+10	1
4901784	67	C	05/05/2017	10:49	-132.226	43.724	0	1979.90	0	1.9530	0	34.6610	4	27.714	0	1954.806	0	57.4	4	17.3	4	-1E+10	1	-1E+10	1	-1E+10	1	-1E+10	1	-1E+10	1	-1E+10	1
4901784	67	C	05/05/2017	10:49	-132.226	43.724	0	1985.00	0	1.9500	0	34.6610	4	27.715	0	1959.818	0	57.6	4	17.4	4	-1E+10	1	-1E+10	1	-1E+10	1	-1E+10	1	-1E+10	1	-1E+10	1
4901784	67	C	05/05/2017	10:49	-132.226	43.724	0	1990.10	0	1.9490	0	34.6620	4	27.715	0	1964.830	0	57.8	4	17.4	4	-1E+10	1	-1E+10	1	-1E+10	1	-1E+10	1	-1E+10	1	-1E+10	1
4901784	67	C	05/05/2017	10:49	-132.226	43.724	0	1995.30	0	1.9460	0	34.6630	4	27.717	0	1969.940	0	58.1	4	17.5	4	-1E+10	1	-1E+10	1	-1E+10	1	-1E+10	1	-1E+10	1	-1E+10	1
4901784	67	C	05/05/2017	10:49	-132.226	43.724	0	2000.40	0	1.9420	0	34.6630	4	27.717	0	1974.951	0	58.5	4	17.6	4	-1E+10	1	-1E+10	1	-1E+10	1	-1E+10	1	-1E+10	1	-1E+10	1
4901784	67	C	05/05/2017	10:49	-132.226	43.724	0	2005.60	0	1.9370	0	34.6640	4	27.718	0	1980.061	0	59.0	4	17.8	4	-1E+10	1	-1E+10	1	-1E+10	1	-1E+10	1	-1E+10	1	-1E+10	1
4901784	67	C	05/05/2017	10:49	-132.226	43.724	0	2010.00	0	1.9290	0	34.6650	4	27.719	0	1984.385	0	59.4	4	17.9	4	-1E+10	1	-1E+10	1	-1E+10	1	-1E+10	1	-1E+10	1	-1E+10	1
4901784	67	C	05/05/2017	10:49	-132.226	43.724	0	2014.60	0	1.9260	0	34.6660	4	27.721	0	1988.904	0	59.6	4	18.0	4	-1E+10	1	-1E+10	1	-1E+10	1	-1E+10	1	-1E+10	1	-1E+10	1
4901784	67	C	05/05/2017	10:49	-132.226	43.724	0	2020.20	0	1.9220	0	34.6660	4	27.721	0	1994.407	0	59.9	4	18.0	4	-1E+10	1	-1E+10	1	-1E+10	1	-1E+10	1	-1E+10	1	-1E+10	1
4901784	67	C	05/05/2017	10:49	-132.226	43.724	0																										
4901784	68	C	05/15/2017	10:40	-132.283	43.672	0	2.30	0	10.0920	0	32.8240	4	25.238	0	2.282	0	277.1	4	99.5	4	-1E+10	1	-1E+10	1	-1E+10	1	-1E+10	1	-1E+10	1	-1E+10	1
4901784	68	C	05/15/2017	10:40	-132.283	43.672	0	3.70	0	10.0930	0	32.8230	4	25.237	0	3.670	0	277.3	4	99.6	4	-1E+10	1	-1E+10	1	-1E+10	1	-1E+10	1	-1E+10	1	-1E+10	1
4901784	68	C	05/15/2017	10:40	-132.283	43.672	0	5.00	0	10.0920	0	32.8240	4	25.238	0	4.960	0	277.1	4	99.5	4	-1E+10	1	-1E+10	1	-1E+10	1	-1E+10	1	-1E+10	1	-1E+10	1
4901784	68	C	05/15/2017	10:40	-132.283	43.672	0	6.50	0	10.0930	0	32.8230	4	25.237	0	6.448	0	277.2	4	99.6	4	-1E+10	1	-1E+10	1	-1E+10	1	-1E+10	1	-1E+10	1	-1E+10	1
4901784	68	C	05/15/2017	10:40	-132.283	43.672	0	8.00	0	10.0930	0	32.8230	4	25.237	0	7.936	0	277.0	4	99.5	4	-1E+10	1	-1E+10	1	-1E+10	1	-1E+10	1	-1E+10	1	-1E+10	1
4901784	68	C	05/15/2017	10:40	-132.283	43.672	0	9.70	0	10.0920	0	32.8240	4	25.238	0	9.622	0	277.0	4	99.5	4	-1E+10	1	-1E+10	1	-1E+10	1	-1E+10	1	-1E+10	1	-1E+10	1
4901784	68	C	05/15/2017	10:40	-132.283	43.672	0	11.70	0	10.0910	0	32.8230	4	25.238	0	11.606	0	277.0	4	99.5	4	-1E+10	1	-1E+10	1	-1E+10	1	-1E+10	1	-1E+10	1	-1E+10	1
4901784	68	C	05/15/2017	10:40	-132.283	43.672	0	13.60	0	10.0910	0	32.8230	4	25.238	0	13.491	0	276.9	4	99.5	4	-1E+10	1	-1E+10	1	-1E+10	1	-1E+10	1	-1E+10	1	-1E+10	1
4901784	68	C	05/15/2017	10:40	-132.283	43.672	0	15.50	0	10.0900	0	32.8240	4	25.239	0	15.375	0	276.9	4	99.5	4	-1E+10	1	-1E+10	1	-1E+10	1	-1E+10	1	-1E+10	1	-1E+10	1
4901784	68	C	05/15/2017	10:40	-132.283	43.672	0	17.30	0	10.0900	0	32.8230	4	25.238	0	17.161	0	276.9	4	99.5	4	-1E+10	1	-1E+10	1	-1E+10	1	-1E+10	1	-1E+10	1	-1E+10	1
4901784	68	C	05/15/2017	10:40	-132.283	43.672	0	19.30	0	10.0910	0	32.8240	4	25.239	0	19.145	0	276.7	4	99.4	4	-1E+10	1	-1E+10	1	-1E+10	1	-1E+10	1	-1E+10	1	-1E+10	1
4901784	68	C	05/15/2017	10:40	-132.283	43.672	0	21.20	0	10.0920	0	32.8240	4	25.239	0	21.029	0	276.7	4	99.4	4	-1E+10	1	-1E+10	1	-1E+10	1	-1E+10	1	-1E+10	1	-1E+10	1
4901784	68	C	05/15/2017	10:40	-132.283	43.672	0	23.20	0	10.0930	0	32.8240	4	25.238	0	23.013	0	276.7	4	99.4	4	-1E+10	1	-1E+10	1	-1E+10	1	-1E+10	1	-1E+10	1	-1E+10	1
4901784	68	C	05/15/2017	10:40	-132.283	43.672	0	25.10	0	10.0930	0	32.8240	4	25.239	0	24.898	0	276.6	4	99.4	4	-1E+10	1	-1E+10	1	-1E+10	1	-1E+10	1	-1E+10	1	-1E+10	1
4901784	68	C	05/15/2017	10:40	-132.283	43.672	0	27.00	0	10.0940	0	32.8230	4	25.238	0	26.782	0	276.5	4	99.3	4	-1E+10	1	-1E+10	1	-1E+10	1	-1E+10	1	-1E+10	1	-1E+10	1
4901784	68	C	05/15/2017	10:40	-132.283	43.672	0	28.80	0	10.0940	0	32.8230	4	25.238	0	28.568	0	276.3	4	99.3	4	-1E+10	1	-1E+10	1	-1E+10	1	-1E+10	1	-1E+10	1	-1E+10	1
4901784	68	C	05/15/2017	10:40	-132.283	43.672	0	30.80	0	10.0930	0	32.8220	4	25.237	0	30.551	0	276.2	4	99.2	4	-1E+10	1	-1E+10	1	-1E+10	1	-1E+10	1	-1E+10	1	-1E+10	1
4901784	68	C	05/15/2017	10:40	-132.283	43.672	0	32.60	0	10.0700	0	32.8240	4	25.242	0	32.337	0	276.0	4	99.1	4	-1E+10	1	-1E+10	1	-1E+10	1	-1E+10	1	-1E+10	1	-1E+10	1
4901784	68	C	05/15/2017	10:40	-132.283	43.672	0	34.50	0	10.0640	0	32.8230	4	25.243	0	34.221	0	276.0	4	99.1	4	-1E+10	1	-1E+10	1	-1E+10	1	-1E+10	1	-1E+10	1	-1E+10	1
4901784	68	C	05/15/2017	10:40	-132.283	43.672	0	36.30	0	10.0460	0	32.8220	4	25.245	0	36.007	0	275.9	4	99.0	4	-1E+10	1	-1E+10	1	-1E+10	1	-1E+10	1	-1E+10	1	-1E+10	1
4901784	68	C	05/15/2017	10:40	-132.283	43.672	0	38.10	0	10.0120	0	32.8230	4	25.251	0	37.792	0	275.7	4	98.9	4	-1E+10	1	-1E+10	1	-1E+10	1	-1E+10	1	-1E+10	1	-1E+10	1
4901784	68	C	05/15/2017	10:40	-132.283	43.672	0	39.90	0	10.0110	0	32.8220	4	25.251	0	39.577	0	275.2	4	98.7	4	-1E+10	1	-1E+10	1	-1E+10	1	-1E+10	1	-1E+10	1	-1E+10	1
4901784	68	C	05/15/2017	10:40	-132.283	43.672	0	41.70	0	10.0080	0	32.8210	4	25.251	0	41.362	0	274.9	4	98.6	4	-1E+10	1	-1E+10	1	-1E+10	1	-1E+10	1	-1E+10	1	-1E+10	1
4901784	68	C	05/15/2017	10:40	-132.283	43.672	0	43.40	0	10.0000	0	32.8190	4	25.250	0	43.048	0	274.4	4	98.4	4	-1E+10	1	-1E+10	1	-1E+10	1	-1E+10	1	-1E+10	1	-1E+10	1
4901784	68	C	05/15/2017	10:40	-132.283	43.672	0	45.20	0	9.9890	0	32.8170	4	25.251	0	44.834	0	273.7	4	98.1	4	-1E+10	1	-1E+10	1	-1E+10	1	-1E+10	1	-1E+10	1	-1E+10	1
4901784	68	C	05/15/2017	10:40	-132.283	43.672	0	47.10	0	9.8790	0	32.8320	4	25.281	0	46.718	0	272.9	4	97.6	4	-1E+10	1	-1E+10	1	-1E+10	1	-1E+10	1	-1E+10	1	-1E+10	1
4901784	68	C	05/15/2017	10:40	-132.283	43.672	0	48.90	0	9.6890	0	32.8610	4	25.335	0	48.503	0	272.8	4	97.2	4	-1E+10	1	-1E+10	1	-1E+10	1	-1E+10	1	-1E+10	1	-1E+10	1
4901784	68	C	05/15/2017	10:40	-132.283	43.672	0	50.90	0	9.4790	0	32.8810	4	25.384	0	50.487	0	272.6	4	96.7	4	-1E+10	1	-1E+10	1	-1E+10	1	-1E+10	1	-1E+10	1	-1E+10	1
4901784	68	C	05/15/2017	10:40	-132.283	43.672	0	52.80	0	9.3710	0	32.8890	4	25.408	0	52.371	0	271.7	4	96.1	4	-1E+10	1	-1E+10	1	-1E+10	1	-1E+10	1	-1E+10	1	-1E+10	1
4901784	68	C	05/15/2017	10:40	-132.283	43.672	0	54.60	0	9.3390	0	32.8900	4	25.414	0	54.156	0	270.3	4	95.6	4	-1E+10	1	-1E+10	1	-1E+10	1	-1E+10	1	-1E+10	1	-1E+10	1
4901784	68	C	05/15/2017	10:40	-132.283	43.672	0	57.00	0	9.1470	0	32.8900	4	25.444	0	56.536	0	269.0	4	94.7	4	-1E+10	1	-1E+10	1	-1E+10	1	-1E+10	1	-1E+10	1	-1E+10	1
4901784	68	C	05/15/2017	10:40	-132.283	43.672	0	58.90	0	9.0750	0	32.8990	4	25.463	0	58.421	0	268.9	4	94.5	4	-1E+10	1	-1E+10	1	-1E+10	1	-1E+10	1	-1E+10	1	-1E+10	1
4901784	68	C	05/15/2017	10:40	-132.283	43.672	0	60.30	0	9.0580	0	32.9010	4	25.467	0	59.809	0	269.2	4	94.6	4	-1E+10	1	-1E+10	1	-1E+10	1	-1E+10	1	-1E+10	1	-1E+10	1
4901784	68	C	05/15/2017	10:40	-132.283	43.672	0	61.90	0	9.0500	0	32.9010	4	25.468	0	61.396	0	269.4	4	94.6	4	-1E+10	1	-1E+10	1	-1E+10	1	-1E+10	1	-1E+10	1	-1E+10	1
4901784	68	C	05/15/2017	10:40	-132.283	43.672	0	63.50	0	9.0260	0	32.9040	4	25.474	0	62.983	0	269.5	4	94.6	4	-1E+10	1	-1E+10	1	-1E+10	1	-1E+10	1	-1E+10	1	-1E+10	1
4901784	68	C	05/15/2017	10:40	-132.283	43.672	0	65.00	0	8.9910	0	32.9150	4	25.489	0	64.470	0	270.1	4	94.8	4	-1E+10	1	-1E+10	1	-1E+10	1	-1E+10	1	-1E+10	1	-1E+10	1
4901784	68	C	05/15/2017	10:40	-132.283	43.672	0	66.70	0	8.9860	0	32.9190	4	25.492	0	66.156	0	270.3	4	94.9	4	-1E+10	1	-1E+10	1	-1E+10	1	-1E+10	1	-1E+10	1	-1E+10	1
4901784	68	C	05/15/2017	10:40	-132.283	43.672	0	68.30	0	8.9690	0	32.9250	4	25.500	0	67.743	0	270.4	4	94.9	4	-1E+10	1	-1E+10	1	-1E+10	1	-1E+10	1	-1E+10	1	-1E+10	1
4901784	68	C	05/15/2017	10:40	-132.283	43.672	0	69.90	0	8.9480	0	32.9250	4	25.503	0	69.329	0	270.5	4	94.8	4	-1E+10	1	-1E+10	1	-1E+10	1	-1E+10	1	-1E+10	1	-1E+10	1
4901784	68	C	05/15/2017	10:40	-132.283	43.672	0	71.60	0	8.8990	0	32.9270	4	25.512	0	71.015	0	271.0	4	94.9	4	-1E+10	1	-1E+10	1	-1E+10	1	-1E+10	1	-1E+10	1	-1E+10	1
4901784	68	C	05/15/2017	10:40	-132.283	43.672	0	73.30	0	8.8470	0	32.9230	4	25.517	0	72.701	0	271.2	4	94.9	4	-1E+10	1	-1E+10	1	-1E+10	1	-1E+10	1	-1E+10	1	-1E+10	1
4901784	68	C	05/15/2017	10:40	-132.283	43.672	0	74.90	0	8.7680	0	32.9210	4	25.528	0	74.288	0	271.1	4	94.7	4	-1E+10	1	-1E+10	1	-1E+10	1	-1E+10	1	-1E+10	1	-1E+10	1
4901784	68	C	05/15/2017	10:40	-132.283	43.672	0	76.60	0	8.7200	0	32.9340	4	25.545	0	75.973	0	270.5	4	94.4	4	-1E+10	1	-1E+10	1	-1E+10	1	-1E+10	1	-1E+10	1	-1E+10	1
4901784	68	C	05/15/2017	10:40	-132.283	43.672	0	78.30	0	8.6460	0	32.9340	4	25.557	0	77.659	0	270.6	4	94.3	4	-1E+10	1	-1E+10	1	-1E+10	1	-1E+10	1	-1E+10	1	-1E+10	1
4901784	68	C	05/15/2017	10:40	-132.283	43.672	0	79.90	0	8.6290	0	32.9450	4	25.568	0	79.246	0	269.5	4	93.8	4	-1E+10	1	-1E+10	1	-1E+10	1	-1E+10	1	-1E+10	1	-1E+10	1
4901784	68	C	05/15/2017	10:40	-132.283	43.672	0	81.60	0	8.6140	0	32.9500	4	25.574	0	80.932	0	268.8	4	93.6	4	-1E+10	1	-1E+10	1	-1E+10	1	-1E+10	1	-1E+10	1	-1E+10	1
4901784	68	C	05/15/2017	10:40	-132.283	43.672	0	83.40	0	8.6000	0	32.9580	4	25.583	0	82.716	0	267.3	4	93.0	4	-1E+10	1	-1E+10	1	-1E+10	1	-1E+10	1	-1E+10	1	-1E+10	1
4901784	68	C	05/15/2017	10:40	-132.283	43.672	0	85.00	0	8.5610	0	32.9680	4	25.596	0	84.303	0	266.2	4	92.6	4	-1E+10	1	-1E+10	1	-1E+10	1	-1E+10	1	-1E+10	1	-1E+10	1
4901784	68	C	05/15/2017	10:40	-132.283	43.672	0	86.80	0	8.5640	0	32.9710	4	25.598	0	86.088	0	264.6	4	92.0	4	-1E+10	1	-1E+10	1	-1E+10	1	-1E+10	1	-1E+10	1	-1E+10	1
4901784	68	C	05/15/2017	10:40	-132.283	43.672	0	88.50	0	8.5710	0	32.9750	4	25.600	0	87.774	0	262.0	4	91.1	4	-1E+10	1	-1E+10	1	-1E+10	1	-1E+10	1	-1E+10	1	-1E+10	1
4901784	68	C	05/15/2017	10:40	-132.283	43.672	0	90.20	0	8.6140	0	32.9870	4	25.603	0	89.459	0	259.0	4	90.2	4	-1E+10	1	-1E+10	1	-1E+10	1	-1E+10	1	-1E+10	1	-1E+10	1
4901784	68	C	05/15/2017	10:40	-132.283	43.672	0	91.90	0	8.6100	0	33.0010	4	25.615	0	91.145	0	255.6	4	89.0	4	-1E+10	1	-1E+10	1	-1E+10	1	-1E+10	1	-1E+10	1	-1E+10	1
4901784	68	C	05/15/2017	10:40	-132.283	43.672	0	93.60	0	8.6030	0	33.0390	4	25.646	0	92.831	0	251.5	4	87.6	4	-1E+10	1	-1E+10	1	-1E+10	1	-1E+10	1	-1E+10	1	-1E+10	1
4901784	68	C	05/15/2017	10:40	-132.283	43.672	0	95.30	0	8.5940	0	33.0520	4	25.657	0	94.516	0	247.9	4	86.3	4	-1E+10	1	-1E+10	1	-1E+10	1	-1E+10	1	-1E+10	1	-1E+10	1
4901784	68	C	05/15/2017	10:40	-132.283	43.672	0	97.10	0	8.6260	0	33.0730	4	25.669	0	96.301	0	243.0	4	84.7	4	-1E+10	1	-1E+10	1	-1E+10	1	-1E+10	1	-1E+10	1	-1E+10	1
4901784	68	C	05/15/2017	10:40	-132.283	43.672	0	98.90	0	8.6930	0	33.1340	4	25.707	0	98.086	0	238.0	4	83.1	4	-1E+10	1	-1E+10	1	-1E+10	1	-1E+10	1	-1E+10	1	-1E+10	1
4901784	68	C	05/15/2017	10:40	-132.283	43.672	0	102.70	0	8.7290	0	33.1860	4	25.742	0	101.853	0	228.1	4	79.7	4	-1E+10	1	-1E+10	1	-1E+10	1	-1E+10	1	-1E+10	1	-1E+10	1
4901784	68	C	05/15/2017	10:40	-132.283	43.672	0	104.60	0	8.7430	0	33.2880	4	25.820	0	103.737	0	222.6	4	77.9	4	-1E+10	1	-1E+10	1	-1E+10	1	-1E+10	1	-1E+10	1	-1E+10	1
4901784	68	C	05/15/2017	10:40	-132.283	43.672	0	107.50	0	8.6770	0	33.3500	4	25.878	0	106.613	0	218.6	4	76.4	4	-1E+10	1	-1E+10	1	-1E+10	1	-1E+10	1	-1E+10	1	-1E+10	1
4901784	68	C	05/15/2017	10:40	-132.283	43.672	0	109.90	0	8.6070	0	33.4150	4	25.940	0	108.992	0	215.3	4	75.2	4	-1E+10	1	-1E+10	1	-1E+10	1	-1E+10	1	-1E+10	1	-1E+10	1
4901784	68	C	05/15/2017	10:40	-132.283	43.672	0	112.90	0	8.6230	0	33.4550	4	25.969	0	111.967	0	210.3	4	73.5	4	-1E+10	1	-1E+10	1	-1E+10	1	-1E+10	1	-1E+10	1	-1E+10	1
4901784	68	C	05/15/2017	10:40	-132.283	43.672	0	115.30	0	8.6630	0	33.5090	4	26.005	0	114.346	0	205.6	4	71.9	4	-1E+10	1	-1E+10	1	-1E+10	1	-1E+10	1	-1E+10	1	-1E+10	1
4901784	68	C	05/15/2017	10:40	-132.283	43.672	0	117.60	0	8.7220	0	33.5780	4	26.050	0	116.626	0	201.1	4	70.5	4	-1E+10	1	-1E+10	1	-1E+10	1	-1E+10	1	-1E+10	1	-1E+10	1
4901784	68	C	05/15/2017	10:40	-132.283	43.672	0	119.90	0	8.7450	0	33.6230	4	26.082	0	118.907	0	197.7	4	69.4	4	-1E+10	1	-1E+10	1	-1E+10	1	-1E+10	1	-1E+10	1	-1E+10	1
4901784	68	C	05/15/2017	10:40	-132.283	43.672	0	122.30	0	8.7600	0	33.6710	4	26.117	0	121.286	0	194.3	4	68.2	4	-1E+10	1	-1E+10	1	-1E+10	1	-1E+10	1	-1E+10	1	-1E+10	1
4901784	68	C	05/15/2017	10:40	-132.283	43.672	0	125.40	0	8.7360	0	33.7600	4	26.191	0	124.360	0	190.8	4	67.0	4	-1E+10	1	-1E+10	1	-1E+10	1	-1E+10	1	-1E+10	1	-1E+10	1
4901784	68	C	05/15/2017	10:40	-132.283	43.672	0	127.90	0	8.7180	0	33.7880	4	26.216	0	126.838	0	189.1	4	66.4	4	-1E+10	1	-1E+10	1	-1E+10	1	-1E+10	1	-1E+10	1	-1E+10	1
4901784	68	C	05/15/2017	10:40	-132.283	43.672	0	130.40	0	8.6980	0	33.8230	4	26.246	0	129.316	0	187.8	4	65.9	4	-1E+10	1	-1E+10	1	-1E+10	1	-1E+10	1	-1E+10	1	-1E+10	1
4901784	68	C	05/15/2017	10:40	-132.283	43.672	0	132.90	0	8.6790	0	33.8440	4	26.266	0	131.795	0	186.6	4	65.5	4	-1E+10	1	-1E+10	1	-1E+10	1	-1E+10	1	-1E+10	1	-1E+10	1
4901784	68	C	05/15/2017	10:40	-132.283	43.672	0	134.80	0	8.6280	0	33.8660	4	26.291	0	133.679	0	186.2	4	65.3	4	-1E+10	1	-1E+10	1	-1E+10	1	-1E+10	1	-1E+10	1	-1E+10	1
4901784	68	C	05/15/2017	10:40	-132.283	43.672	0	137.50	0	8.6210	0	33.8730	4	26.297	0	136.355	0	185.7	4	65.1	4	-1E+10	1	-1E+10	1	-1E+10	1	-1E+10	1	-1E+10	1	-1E+10	1
4901784	68	C	05/15/2017	10:40	-132.283	43.672	0	140.20	0	8.6330	0	33.9010	4	26.318	0	139.032	0	185.3	4	65.0	4	-1E+10	1	-1E+10	1	-1E+10	1	-1E+10	1	-1E+10	1	-1E+10	1
4901784	68	C	05/15/2017	10:40	-132.283	43.672	0	142.10	0	8.6510	0	33.9130	4	26.324	0	140.915	0	184.6	4	64.8	4	-1E+10	1	-1E+10	1	-1E+10	1	-1E+10	1	-1E+10	1	-1E+10	1
4901784	68	C	05/15/2017	10:40	-132.283	43.672	0	144.80	0	8.6210	0	33.9390	4	26.349	0	143.592	0	183.7	4	64.4	4	-1E+10	1	-1E+10	1	-1E+10	1	-1E+10	1	-1E+10	1	-1E+10	1
4901784	68	C	05/15/2017	10:40	-132.283	43.672	0	147.50	0	8.5540	0	33.9530	4	26.371	0	146.268	0	182.9	4	64.1	4	-1E+10	1	-1E+10	1	-1E+10	1	-1E+10	1	-1E+10	1	-1E+10	1
4901784	68	C	05/15/2017	10:40	-132.283	43.672	0	150.00	0	8.4820	0	33.9600	4	26.387	0	148.747	0	182.6	4	63.8	4	-1E+10	1	-1E+10	1	-1E+10	1	-1E+10	1	-1E+10	1	-1E+10	1
4901784	68	C	05/15/2017	10:40	-132.283	43.672	0	152.60	0	8.4790	0	33.9750	4	26.399	0	151.324	0	182.0	4	63.7	4	-1E+10	1	-1E+10	1	-1E+10	1	-1E+10	1	-1E+10	1	-1E+10	1
4901784	68	C	05/15/2017	10:40	-132.283	43.672	0	155.10	0	8.4270	0	33.9880	4	26.418	0	153.802	0	181.2	4	63.3	4	-1E+10	1	-1E+10	1	-1E+10	1	-1E+10	1	-1E+10	1	-1E+10	1
4901784	68	C	05/15/2017	10:40	-132.283	43.672	0	157.70	0	8.4200	0	33.9940	4	26.423	0	156.379	0	180.1	4	62.9	4	-1E+10	1	-1E+10	1	-1E+10	1	-1E+10	1	-1E+10	1	-1E+10	1
4901784	68	C	05/15/2017	10:40	-132.283	43.672	0	160.30	0	8.3630	0	33.9990	4	26.436	0	158.957	0	179.0	4	62.4	4	-1E+10	1	-1E+10	1	-1E+10	1	-1E+10	1	-1E+10	1	-1E+10	1
4901784	68	C	05/15/2017	10:40	-132.283	43.672	0	162.90	0	8.3240	0	33.9980	4	26.441	0	161.534	0	177.8	4	62.0	4	-1E+10	1	-1E+10	1	-1E+10	1	-1E+10	1	-1E+10	1	-1E+10	1
4901784	68	C	05/15/2017	10:40	-132.283	43.672	0	164.60	0	8.2980	0	33.9960	4	26.444	0	163.219	0	176.8	4	61.6	4	-1E+10	1	-1E+10	1	-1E+10	1	-1E+10	1	-1E+10	1	-1E+10	1
4901784	68	C	05/15/2017	10:40	-132.283	43.672	0	167.30	0	8.2020	0	34.0080	4	26.467	0	165.895	0	175.9	4	61.1	4	-1E+10	1	-1E+10	1	-1E+10	1	-1E+10	1	-1E+10	1	-1E+10	1
4901784	68	C	05/15/2017	10:40	-132.283	43.672	0	170.00	0	8.1660	0	34.0070	4	26.472	0	168.571	0	175.1	4	60.8	4	-1E+10	1	-1E+10	1	-1E+10	1	-1E+10	1	-1E+10	1	-1E+10	1
4901784	68	C	05/15/2017	10:40	-132.283	43.672	0	172.70	0	8.1200	0	34.0040	4	26.477	0	171.247	0	174.5	4	60.5	4	-1E+10	1	-1E+10	1	-1E+10	1	-1E+10	1	-1E+10	1	-1E+10	1
4901784	68	C	05/15/2017	10:40	-132.283	43.672	0	175.40	0	8.1150	0	34.0050	4	26.478	0	173.924	0	173.7	4	60.3	4	-1E+10	1	-1E+10	1	-1E+10	1	-1E+10	1	-1E+10	1	-1E+10	1
4901784	68	C	05/15/2017	10:40	-132.283	43.672	0	177.20	0	8.1110	0	34.0070	4	26.480	0	175.708	0	172.9	4	60.0	4	-1E+10	1	-1E+10	1	-1E+10	1	-1E+10	1	-1E+10	1	-1E+10	1
4901784	68	C	05/15/2017	10:40	-132.283	43.672	0	179.80	0	8.0910	0	34.0100	4	26.486	0	178.285	0	171.3	4	59.4	4	-1E+10	1	-1E+10	1	-1E+10	1	-1E+10	1	-1E+10	1	-1E+10	1
4901784	68	C	05/15/2017	10:40	-132.283	43.672	0	182.50	0	8.0520	0	34.0090	4	26.491	0	180.961	0	169.6	4	58.8	4	-1E+10	1	-1E+10	1	-1E+10	1	-1E+10	1	-1E+10	1	-1E+10	1
4901784	68	C	05/15/2017	10:40	-132.283	43.672	0	185.20	0	7.9990	0	34.0060	4	26.496	0	183.637	0	167.6	4	58.0	4	-1E+10	1	-1E+10	1	-1E+10	1	-1E+10	1	-1E+10	1	-1E+10	1
4901784	68	C	05/15/2017	10:40	-132.283	43.672	0	187.90	0	7.9260	0	34.0040	4	26.506	0	186.313	0	165.2	4	57.1	4	-1E+10	1	-1E+10	1	-1E+10	1	-1E+10	1	-1E+10	1	-1E+10	1
4901784	68	C	05/15/2017	10:40	-132.283	43.672	0	189.70	0	7.8690	0	34.0060	4	26.515	0	188.097	0	163.8	4	56.5	4	-1E+10	1	-1E+10	1	-1E+10	1	-1E+10	1	-1E+10	1	-1E+10	1
4901784	68	C	05/15/2017	10:40	-132.283	43.672	0	192.40	0	7.8160	0	34.0010	4	26.519	0	190.773	0	160.9	4	55.4	4	-1E+10	1	-1E+10	1	-1E+10	1	-1E+10	1	-1E+10	1	-1E+10	1
4901784	68	C	05/15/2017	10:40	-132.283	43.672	0	195.20	0	7.6800	0	33.9960	4	26.535	0	193.548	0	157.8	4	54.2	4	-1E+10	1	-1E+10	1	-1E+10	1	-1E+10	1	-1E+10	1	-1E+10	1
4901784	68	C	05/15/2017	10:40	-132.283	43.672	0	197.00	0	7.6380	0	33.9930	4	26.539	0	195.332	0	155.7	4	53.4	4	-1E+10	1	-1E+10	1	-1E+10	1	-1E+10	1	-1E+10	1	-1E+10	1
4901784	68	C	05/15/2017	10:40	-132.283	43.672	0	199.70	0	7.4520	0	33.9920	4	26.565	0	198.007	0	153.1	4	52.3	4	-1E+10	1	-1E+10	1	-1E+10	1	-1E+10	1	-1E+10	1	-1E+10	1
4901784	68	C	05/15/2017	10:40	-132.283	43.672	0	202.90	0	7.3380	0	33.9890	4	26.578	0	201.179	0	150.7	4	51.4	4	-1E+10	1	-1E+10	1	-1E+10	1	-1E+10	1	-1E+10	1	-1E+10	1
4901784	68	C	05/15/2017	10:40	-132.283	43.672	0	205.50	0	7.2200	0	33.9880	4	26.594	0	203.755	0	148.6	4	50.5	4	-1E+10	1	-1E+10	1	-1E+10	1	-1E+10	1	-1E+10	1	-1E+10	1
4901784	68	C	05/15/2017	10:40	-132.283	43.672	0	207.80	0	7.1540	0	33.9870	4	26.602	0	206.035	0	147.6	4	50.1	4	-1E+10	1	-1E+10	1	-1E+10	1	-1E+10	1	-1E+10	1	-1E+10	1
4901784	68	C	05/15/2017	10:40	-132.283	43.672	0	210.10	0	7.1340	0	33.9860	4	26.604	0	208.314	0	146.4	4	49.7	4	-1E+10	1	-1E+10	1	-1E+10	1	-1E+10	1	-1E+10	1	-1E+10	1
4901784	68	C	05/15/2017	10:40	-132.283	43.672	0	212.50	0	7.1040	0	33.9830	4	26.606	0	210.692	0	145.0	4	49.2	4	-1E+10	1	-1E+10	1	-1E+10	1	-1E+10	1	-1E+10	1	-1E+10	1
4901784	68	C	05/15/2017	10:40	-132.283	43.672	0	215.00	0	7.0180	0	33.9850	4	26.620	0	213.170	0	144.0	4	48.7	4	-1E+10	1	-1E+10	1	-1E+10	1	-1E+10	1	-1E+10	1	-1E+10	1
4901784	68	C	05/15/2017	10:40	-132.283	43.672	0	217.40	0	6.9960	0	33.9840	4	26.622	0	215.548	0	143.1	4	48.4	4	-1E+10	1	-1E+10	1	-1E+10	1	-1E+10	1	-1E+10	1	-1E+10	1
4901784	68	C	05/15/2017	10:40	-132.283	43.672	0	219.90	0	6.9600	0	33.9840	4	26.627	0	218.026	0	142.1	4	48.0	4	-1E+10	1	-1E+10	1	-1E+10	1	-1E+10	1	-1E+10	1	-1E+10	1
4901784	68	C	05/15/2017	10:40	-132.283	43.672	0	222.30	0	6.9240	0	33.9840	4	26.632	0	220.404	0	141.2	4	47.7	4	-1E+10	1	-1E+10	1	-1E+10	1	-1E+10	1	-1E+10	1	-1E+10	1
4901784	68	C	05/15/2017	10:40	-132.283	43.672	0	224.80	0	6.8860	0	33.9850	4	26.638	0	222.881	0	140.2	4	47.3	4	-1E+10	1	-1E+10	1	-1E+10	1	-1E+10	1	-1E+10	1	-1E+10	1
4901784	68	C	05/15/2017	10:40	-132.283	43.672	0	227.20	0	6.8660	0	33.9840	4	26.640	0	225.259	0	139.2	4	46.9	4	-1E+10	1	-1E+10	1	-1E+10	1	-1E+10	1	-1E+10	1	-1E+10	1
4901784	68	C	05/15/2017	10:40	-132.283	43.672	0	229.80	0	6.8390	0	33.9830	4	26.643	0	227.836	0	137.9	4	46.5	4	-1E+10	1	-1E+10	1	-1E+10	1	-1E+10	1	-1E+10	1	-1E+10	1
4901784	68	C	05/15/2017	10:40	-132.283	43.672	0	232.30	0	6.8190	0	33.9810	4	26.644	0	230.313	0	136.2	4	45.9	4	-1E+10	1	-1E+10	1	-1E+10	1	-1E+10	1	-1E+10	1	-1E+10	1
4901784	68	C	05/15/2017	10:40	-132.283	43.672	0	234.70	0	6.7440	0	33.9810	4	26.654	0	232.691	0	134.2	4	45.1	4	-1E+10	1	-1E+10	1	-1E+10	1	-1E+10	1	-1E+10	1	-1E+10	1
4901784	68	C	05/15/2017	10:40	-132.283	43.672	0	237.20	0	6.6630	0	33.9810	4	26.665	0	235.168	0	133.1	4	44.7	4	-1E+10	1	-1E+10	1	-1E+10	1	-1E+10	1	-1E+10	1	-1E+10	1
4901784	68	C	05/15/2017	10:40	-132.283	43.672	0	239.80	0	6.6430	0	33.9800	4	26.667	0	237.745	0	131.9	4	44.3	4	-1E+10	1	-1E+10	1	-1E+10	1	-1E+10	1	-1E+10	1	-1E+10	1
4901784	68	C	05/15/2017	10:40	-132.283	43.672	0	242.30	0	6.6020	0	33.9790	4	26.671	0	240.222	0	130.6	4	43.8	4	-1E+10	1	-1E+10	1	-1E+10	1	-1E+10	1	-1E+10	1	-1E+10	1
4901784	68	C	05/15/2017	10:40	-132.283	43.672	0	244.80	0	6.5610	0	33.9800	4	26.677	0	242.699	0	129.5	4	43.4	4	-1E+10	1	-1E+10	1	-1E+10	1	-1E+10	1	-1E+10	1	-1E+10	1
4901784	68	C	05/15/2017	10:40	-132.283	43.672	0	247.40	0	6.5160	0	33.9800	4	26.683	0	245.275	0	128.5	4	43.0	4	-1E+10	1	-1E+10	1	-1E+10	1	-1E+10	1	-1E+10	1	-1E+10	1
4901784	68	C	05/15/2017	10:40	-132.283	43.672	0	249.90	0	6.5000	0	33.9800	4	26.685	0	247.752	0	127.7	4	42.7	4	-1E+10	1	-1E+10	1	-1E+10	1	-1E+10	1	-1E+10	1	-1E+10	1
4901784	68	C	05/15/2017	10:40	-132.283	43.672	0	252.50	0	6.4710	0	33.9800	4	26.689	0	250.328	0	126.9	4	42.4	4	-1E+10	1	-1E+10	1	-1E+10	1	-1E+10	1	-1E+10	1	-1E+10	1
4901784	68	C	05/15/2017	10:40	-132.283	43.672	0	255.00	0	6.4590	0	33.9800	4	26.691	0	252.805	0	126.1	4	42.1	4	-1E+10	1	-1E+10	1	-1E+10	1	-1E+10	1	-1E+10	1	-1E+10	1
4901784	68	C	05/15/2017	10:40	-132.283	43.672	0	257.50	0	6.4490	0	33.9780	4	26.691	0	255.282	0	125.1	4	41.8	4	-1E+10	1	-1E+10	1	-1E+10	1	-1E+10	1	-1E+10	1	-1E+10	1
4901784	68	C	05/15/2017	10:40	-132.283	43.672	0	260.10	0	6.4440	0	33.9770	4	26.691	0	257.858	0	123.5	4	41.2	4	-1E+10	1	-1E+10	1	-1E+10	1	-1E+10	1	-1E+10	1	-1E+10	1
4901784	68	C	05/15/2017	10:40	-132.283	43.672	0	262.60	0	6.3660	0	33.9780	4	26.701	0	260.335	0	121.7	4	40.6	4	-1E+10	1	-1E+10	1	-1E+10	1	-1E+10	1	-1E+10	1	-1E+10	1
4901784	68	C	05/15/2017	10:40	-132.283	43.672	0	265.20	0	6.3200	0	33.9760	4	26.706	0	262.911	0	120.0	4	39.9	4	-1E+10	1	-1E+10	1	-1E+10	1	-1E+10	1	-1E+10	1	-1E+10	1
4901784	68	C	05/15/2017	10:40	-132.283	43.672	0	267.80	0	6.2340	0	33.9770	4	26.718	0	265.487	0	118.3	4	39.3	4	-1E+10	1	-1E+10	1	-1E+10	1	-1E+10	1	-1E+10	1	-1E+10	1
4901784	68	C	05/15/2017	10:40	-132.283	43.672	0	269.50	0	6.2170	0	33.9780	4	26.721	0	267.171	0	117.6	4	39.1	4	-1E+10	1	-1E+10	1	-1E+10	1	-1E+10	1	-1E+10	1	-1E+10	1
4901784	68	C	05/15/2017	10:40	-132.283	43.672	0	272.10	0	6.1990	0	33.9770	4	26.722	0	269.747	0	116.4	4	38.7	4	-1E+10	1	-1E+10	1	-1E+10	1	-1E+10	1	-1E+10	1	-1E+10	1
4901784	68	C	05/15/2017	10:40	-132.283	43.672	0	274.80	0	6.1550	0	33.9770	4	26.728	0	272.422	0	115.0	4	38.2	4	-1E+10	1	-1E+10	1	-1E+10	1	-1E+10	1	-1E+10	1	-1E+10	1
4901784	68	C	05/15/2017	10:40	-132.283	43.672	0	277.40	0	6.1020	0	33.9780	4	26.735	0	274.997	0	113.6	4	37.6	4	-1E+10	1	-1E+10	1	-1E+10	1	-1E+10	1	-1E+10	1	-1E+10	1
4901784	68	C	05/15/2017	10:40	-132.283	43.672	0	280.10	0	6.0570	0	33.9780	4	26.741	0	277.672	0	112.5	4	37.2	4	-1E+10	1	-1E+10	1	-1E+10	1	-1E+10	1	-1E+10	1	-1E+10	1
4901784	68	C	05/15/2017	10:40	-132.283	43.672	0	282.80	0	6.0390	0	33.9780	4	26.743	0	280.347	0	111.1	4	36.8	4	-1E+10	1	-1E+10	1	-1E+10	1	-1E+10	1	-1E+10	1	-1E+10	1
4901784	68	C	05/15/2017	10:40	-132.283	43.672	0	285.50	0	6.0050	0	33.9780	4	26.748	0	283.022	0	109.7	4	36.3	4	-1E+10	1	-1E+10	1	-1E+10	1	-1E+10	1	-1E+10	1	-1E+10	1
4901784	68	C	05/15/2017	10:40	-132.283	43.672	0	287.40	0	5.9740	0	33.9770	4	26.751	0	284.904	0	108.7	4	35.9	4	-1E+10	1	-1E+10	1	-1E+10	1	-1E+10	1	-1E+10	1	-1E+10	1
4901784	68	C	05/15/2017	10:40	-132.283	43.672	0	290.10	0	5.9140	0	33.9790	4	26.760	0	287.578	0	107.6	4	35.5	4	-1E+10	1	-1E+10	1	-1E+10	1	-1E+10	1	-1E+10	1	-1E+10	1
4901784	68	C	05/15/2017	10:40	-132.283	43.672	0	292.70	0	5.8700	0	33.9820	4	26.768	0	290.154	0	106.8	4	35.2	4	-1E+10	1	-1E+10	1	-1E+10	1	-1E+10	1	-1E+10	1	-1E+10	1
4901784	68	C	05/15/2017	10:40	-132.283	43.672	0	294.60	0	5.8590	0	33.9800	4	26.767	0	292.036	0	106.3	4	35.0	4	-1E+10	1	-1E+10	1	-1E+10	1	-1E+10	1	-1E+10	1	-1E+10	1
4901784	68	C	05/15/2017	10:40	-132.283	43.672	0	297.30	0	5.8310	0	33.9810	4	26.772	0	294.711	0	105.7	4	34.8	4	-1E+10	1	-1E+10	1	-1E+10	1	-1E+10	1	-1E+10	1	-1E+10	1
4901784	68	C	05/15/2017	10:40	-132.283	43.672	0	300.00	0	5.8210	0	33.9820	4	26.774	0	297.385	0	105.2	4	34.6	4	-1E+10	1	-1E+10	1	-1E+10	1	-1E+10	1	-1E+10	1	-1E+10	1
4901784	68	C	05/15/2017	10:40	-132.283	43.672	0	301.90	0	5.8160	0	33.9810	4	26.774	0	299.267	0	104.7	4	34.4	4	-1E+10	1	-1E+10	1	-1E+10	1	-1E+10	1	-1E+10	1	-1E+10	1
4901784	68	C	05/15/2017	10:40	-132.283	43.672	0	304.70	0	5.8070	0	33.9810	4	26.775	0	302.041	0	103.7	4	34.1	4	-1E+10	1	-1E+10	1	-1E+10	1	-1E+10	1	-1E+10	1	-1E+10	1
4901784	68	C	05/15/2017	10:40	-132.283	43.672	0	307.50	0	5.7830	0	33.9810	4	26.778	0	304.814	0	102.5	4	33.7	4	-1E+10	1	-1E+10	1	-1E+10	1	-1E+10	1	-1E+10	1	-1E+10	1
4901784	68	C	05/15/2017	10:40	-132.283	43.672	0	310.30	0	5.7620	0	33.9810	4	26.780	0	307.588	0	100.9	4	33.2	4	-1E+10	1	-1E+10	1	-1E+10	1	-1E+10	1	-1E+10	1	-1E+10	1
4901784	68	C	05/15/2017	10:40	-132.283	43.672	0	313.10	0	5.7220	0	33.9820	4	26.786	0	310.361	0	99.2	4	32.6	4	-1E+10	1	-1E+10	1	-1E+10	1	-1E+10	1	-1E+10	1	-1E+10	1
4901784	68	C	05/15/2017	10:40	-132.283	43.672	0	314.90	0	5.7070	0	33.9810	4	26.787	0	312.144	0	98.0	4	32.2	4	-1E+10	1	-1E+10	1	-1E+10	1	-1E+10	1	-1E+10	1	-1E+10	1
4901784	68	C	05/15/2017	10:40	-132.283	43.672	0	317.70	0	5.6690	0	33.9830	4	26.793	0	314.918	0	95.7	4	31.4	4	-1E+10	1	-1E+10	1	-1E+10	1	-1E+10	1	-1E+10	1	-1E+10	1
4901784	68	C	05/15/2017	10:40	-132.283	43.672	0	320.50	0	5.6020	0	33.9860	4	26.804	0	317.691	0	93.5	4	30.6	4	-1E+10	1	-1E+10	1	-1E+10	1	-1E+10	1	-1E+10	1	-1E+10	1
4901784	68	C	05/15/2017	10:40	-132.283	43.672	0	322.40	0	5.5670	0	33.9870	4	26.809	0	319.573	0	92.1	4	30.1	4	-1E+10	1	-1E+10	1	-1E+10	1	-1E+10	1	-1E+10	1	-1E+10	1
4901784	68	C	05/15/2017	10:40	-132.283	43.672	0	324.30	0	5.5130	0	33.9900	4	26.818	0	321.455	0	91.3	4	29.8	4	-1E+10	1	-1E+10	1	-1E+10	1	-1E+10	1	-1E+10	1	-1E+10	1
4901784	68	C	05/15/2017	10:40	-132.283	43.672	0	327.20	0	5.4850	0	33.9930	4	26.823	0	324.327	0	90.7	4	29.6	4	-1E+10	1	-1E+10	1	-1E+10	1	-1E+10	1	-1E+10	1	-1E+10	1
4901784	68	C	05/15/2017	10:40	-132.283	43.672	0	330.10	0	5.4710	0	33.9930	4	26.825	0	327.199	0	90.1	4	29.4	4	-1E+10	1	-1E+10	1	-1E+10	1	-1E+10	1	-1E+10	1	-1E+10	1
4901784	68	C	05/15/2017	10:40	-132.283	43.672	0	332.00	0	5.4680	0	33.9920	4	26.825	0	329.081	0	89.6	4	29.3	4	-1E+10	1	-1E+10	1	-1E+10	1	-1E+10	1	-1E+10	1	-1E+10	1
4901784	68	C	05/15/2017	10:40	-132.283	43.672	0	334.80	0	5.4310	0	33.9940	4	26.831	0	331.854	0	88.8	4	29.0	4	-1E+10	1	-1E+10	1	-1E+10	1	-1E+10	1	-1E+10	1	-1E+10	1
4901784	68	C	05/15/2017	10:40	-132.283	43.672	0	337.60	0	5.4160	0	33.9950	4	26.833	0	334.627	0	88.4	4	28.8	4	-1E+10	1	-1E+10	1	-1E+10	1	-1E+10	1	-1E+10	1	-1E+10	1
4901784	68	C	05/15/2017	10:40	-132.283	43.672	0	339.50	0	5.4140	0	33.9960	4	26.834	0	336.509	0	88.1	4	28.7	4	-1E+10	1	-1E+10	1	-1E+10	1	-1E+10	1	-1E+10	1	-1E+10	1
4901784	68	C	05/15/2017	10:40	-132.283	43.672	0	342.40	0	5.4080	0	33.9960	4	26.835	0	339.381	0	87.6	4	28.6	4	-1E+10	1	-1E+10	1	-1E+10	1	-1E+10	1	-1E+10	1	-1E+10	1
4901784	68	C	05/15/2017	10:40	-132.283	43.672	0	345.20	0	5.3880	0	33.9980	4	26.839	0	342.154	0	86.9	4	28.3	4	-1E+10	1	-1E+10	1	-1E+10	1	-1E+10	1	-1E+10	1	-1E+10	1
4901784	68	C	05/15/2017	10:40	-132.283	43.672	0	347.20	0	5.3860	0	33.9970	4	26.839	0	344.135	0	86.6	4	28.2	4	-1E+10	1	-1E+10	1	-1E+10	1	-1E+10	1	-1E+10	1	-1E+10	1
4901784	68	C	05/15/2017	10:40	-132.283	43.672	0	350.10	0	5.3670	0	33.9980	4	26.842	0	347.007	0	85.9	4	28.0	4	-1E+10	1	-1E+10	1	-1E+10	1	-1E+10	1	-1E+10	1	-1E+10	1
4901784	68	C	05/15/2017	10:40	-132.283	43.672	0	353.00	0	5.3510	0	33.9990	4	26.844	0	349.879	0	85.2	4	27.8	4	-1E+10	1	-1E+10	1	-1E+10	1	-1E+10	1	-1E+10	1	-1E+10	1
4901784	68	C	05/15/2017	10:40	-132.283	43.672	0	354.90	0	5.3370	0	34.0000	4	26.847	0	351.760	0	84.8	4	27.6	4	-1E+10	1	-1E+10	1	-1E+10	1	-1E+10	1	-1E+10	1	-1E+10	1
4901784	68	C	05/15/2017	10:40	-132.283	43.672	0	356.80	0	5.3350	0	34.0000	4	26.847	0	353.642	0	84.2	4	27.4	4	-1E+10	1	-1E+10	1	-1E+10	1	-1E+10	1	-1E+10	1	-1E+10	1
4901784	68	C	05/15/2017	10:40	-132.283	43.672	0	359.70	0	5.3150	0	34.0020	4	26.851	0	356.514	0	83.0	4	27.0	4	-1E+10	1	-1E+10	1	-1E+10	1	-1E+10	1	-1E+10	1	-1E+10	1
4901784	68	C	05/15/2017	10:40	-132.283	43.672	0	362.50	0	5.3010	0	34.0040	4	26.854	0	359.286	0	81.9	4	26.6	4	-1E+10	1	-1E+10	1	-1E+10	1	-1E+10	1	-1E+10	1	-1E+10	1
4901784	68	C	05/15/2017	10:40	-132.283	43.672	0	364.40	0	5.2900	0	34.0030	4	26.855	0	361.168	0	81.1	4	26.4	4	-1E+10	1	-1E+10	1	-1E+10	1	-1E+10	1	-1E+10	1	-1E+10	1
4901784	68	C	05/15/2017	10:40	-132.283	43.672	0	367.30	0	5.2700	0	34.0060	4	26.860	0	364.040	0	79.8	4	25.9	4	-1E+10	1	-1E+10	1	-1E+10	1	-1E+10	1	-1E+10	1	-1E+10	1
4901784	68	C	05/15/2017	10:40	-132.283	43.672	0	370.20	0	5.2310	0	34.0100	4	26.867	0	366.911	0	78.7	4	25.6	4	-1E+10	1	-1E+10	1	-1E+10	1	-1E+10	1	-1E+10	1	-1E+10	1
4901784	68	C	05/15/2017	10:40	-132.283	43.672	0	372.10	0	5.2200	0	34.0120	4	26.870	0	368.793	0	77.9	4	25.3	4	-1E+10	1	-1E+10	1	-1E+10	1	-1E+10	1	-1E+10	1	-1E+10	1
4901784	68	C	05/15/2017	10:40	-132.283	43.672	0	375.00	0	5.2030	0	34.0140	4	26.874	0	371.664	0	76.3	4	24.8	4	-1E+10	1	-1E+10	1	-1E+10	1	-1E+10	1	-1E+10	1	-1E+10	1
4901784	68	C	05/15/2017	10:40	-132.283	43.672	0	377.80	0	5.1810	0	34.0160	4	26.878	0	374.437	0	74.8	4	24.2	4	-1E+10	1	-1E+10	1	-1E+10	1	-1E+10	1	-1E+10	1	-1E+10	1
4901784	68	C	05/15/2017	10:40	-132.283	43.672	0	379.70	0	5.1640	0	34.0170	4	26.881	0	376.318	0	73.7	4	23.9	4	-1E+10	1	-1E+10	1	-1E+10	1	-1E+10	1	-1E+10	1	-1E+10	1
4901784	68	C	05/15/2017	10:40	-132.283	43.672	0	382.60	0	5.1450	0	34.0190	4	26.884	0	379.190	0	72.5	4	23.5	4	-1E+10	1	-1E+10	1	-1E+10	1	-1E+10	1	-1E+10	1	-1E+10	1
4901784	68	C	05/15/2017	10:40	-132.283	43.672	0	385.40	0	5.1100	0	34.0220	4	26.891	0	381.962	0	71.4	4	23.1	4	-1E+10	1	-1E+10	1	-1E+10	1	-1E+10	1	-1E+10	1	-1E+10	1
4901784	68	C	05/15/2017	10:40	-132.283	43.672	0	387.40	0	5.1090	0	34.0210	4	26.890	0	383.943	0	71.0	4	23.0	4	-1E+10	1	-1E+10	1	-1E+10	1	-1E+10	1	-1E+10	1	-1E+10	1
4901784	68	C	05/15/2017	10:40	-132.283	43.672	0	389.40	0	5.0960	0	34.0230	4	26.893	0	385.923	0	70.6	4	22.9	4	-1E+10	1	-1E+10	1	-1E+10	1	-1E+10	1	-1E+10	1	-1E+10	1
4901784	68	C	05/15/2017	10:40	-132.283	43.672	0	392.30	0	5.0900	0	34.0240	4	26.895	0	388.794	0	70.1	4	22.7	4	-1E+10	1	-1E+10	1	-1E+10	1	-1E+10	1	-1E+10	1	-1E+10	1
4901784	68	C	05/15/2017	10:40	-132.283	43.672	0	395.20	0	5.0840	0	34.0250	4	26.896	0	391.666	0	69.4	4	22.5	4	-1E+10	1	-1E+10	1	-1E+10	1	-1E+10	1	-1E+10	1	-1E+10	1
4901784	68	C	05/15/2017	10:40	-132.283	43.672	0	397.80	0	5.0700	0	34.0260	4	26.899	0	394.240	0	68.6	4	22.2	4	-1E+10	1	-1E+10	1	-1E+10	1	-1E+10	1	-1E+10	1	-1E+10	1
4901784	68	C	05/15/2017	10:40	-132.283	43.672	0	399.70	0	5.0570	0	34.0280	4	26.902	0	396.121	0	67.9	4	22.0	4	-1E+10	1	-1E+10	1	-1E+10	1	-1E+10	1	-1E+10	1	-1E+10	1
4901784	68	C	05/15/2017	10:40	-132.283	43.672	0	402.30	0	5.0510	0	34.0270	4	26.902	0	398.695	0	67.1	4	21.7	4	-1E+10	1	-1E+10	1	-1E+10	1	-1E+10	1	-1E+10	1	-1E+10	1
4901784	68	C	05/15/2017	10:40	-132.283	43.672	0	404.60	0	5.0350	0	34.0300	4	26.906	0	400.973	0	65.9	4	21.3	4	-1E+10	1	-1E+10	1	-1E+10	1	-1E+10	1	-1E+10	1	-1E+10	1
4901784	68	C	05/15/2017	10:40	-132.283	43.672	0	407.10	0	5.0240	0	34.0310	4	26.908	0	403.448	0	65.0	4	21.0	4	-1E+10	1	-1E+10	1	-1E+10	1	-1E+10	1	-1E+10	1	-1E+10	1
4901784	68	C	05/15/2017	10:40	-132.283	43.672	0	410.40	0	4.9990	0	34.0340	4	26.913	0	406.715	0	63.7	4	20.6	4	-1E+10	1	-1E+10	1	-1E+10	1	-1E+10	1	-1E+10	1	-1E+10	1
4901784	68	C	05/15/2017	10:40	-132.283	43.672	0	412.80	0	4.9710	0	34.0380	4	26.920	0	409.091	0	62.9	4	20.3	4	-1E+10	1	-1E+10	1	-1E+10	1	-1E+10	1	-1E+10	1	-1E+10	1
4901784	68	C	05/15/2017	10:40	-132.283	43.672	0	414.50	0	4.9610	0	34.0400	4	26.922	0	410.774	0	62.5	4	20.2	4	-1E+10	1	-1E+10	1	-1E+10	1	-1E+10	1	-1E+10	1	-1E+10	1
4901784	68	C	05/15/2017	10:40	-132.283	43.672	0	417.10	0	4.9570	0	34.0400	4	26.923	0	413.348	0	62.1	4	20.0	4	-1E+10	1	-1E+10	1	-1E+10	1	-1E+10	1	-1E+10	1	-1E+10	1
4901784	68	C	05/15/2017	10:40	-132.283	43.672	0	419.60	0	4.9520	0	34.0410	4	26.924	0	415.823	0	61.7	4	19.9	4	-1E+10	1	-1E+10	1	-1E+10	1	-1E+10	1	-1E+10	1	-1E+10	1
4901784	68	C	05/15/2017	10:40	-132.283	43.672	0	422.10	0	4.9410	0	34.0430	4	26.927	0	418.298	0	61.3	4	19.8	4	-1E+10	1	-1E+10	1	-1E+10	1	-1E+10	1	-1E+10	1	-1E+10	1
4901784	68	C	05/15/2017	10:40	-132.283	43.672	0	424.70	0	4.9330	0	34.0430	4	26.928	0	420.872	0	60.9	4	19.7	4	-1E+10	1	-1E+10	1	-1E+10	1	-1E+10	1	-1E+10	1	-1E+10	1
4901784	68	C	05/15/2017	10:40	-132.283	43.672	0	427.30	0	4.9230	0	34.0440	4	26.930	0	423.446	0	60.4	4	19.5	4	-1E+10	1	-1E+10	1	-1E+10	1	-1E+10	1	-1E+10	1	-1E+10	1
4901784	68	C	05/15/2017	10:40	-132.283	43.672	0	429.80	0	4.8930	0	34.0480	4	26.937	0	425.921	0	59.8	4	19.3	4	-1E+10	1	-1E+10	1	-1E+10	1	-1E+10	1	-1E+10	1	-1E+10	1
4901784	68	C	05/15/2017	10:40	-132.283	43.672	0	432.40	0	4.8840	0	34.0490	4	26.938	0	428.495	0	59.3	4	19.1	4	-1E+10	1	-1E+10	1	-1E+10	1	-1E+10	1	-1E+10	1	-1E+10	1
4901784	68	C	05/15/2017	10:40	-132.283	43.672	0	434.90	0	4.8670	0	34.0520	4	26.943	0	430.969	0	59.0	4	19.0	4	-1E+10	1	-1E+10	1	-1E+10	1	-1E+10	1	-1E+10	1	-1E+10	1
4901784	68	C	05/15/2017	10:40	-132.283	43.672	0	437.60	0	4.8580	0	34.0520	4	26.944	0	433.642	0	58.4	4	18.8	4	-1E+10	1	-1E+10	1	-1E+10	1	-1E+10	1	-1E+10	1	-1E+10	1
4901784	68	C	05/15/2017	10:40	-132.283	43.672	0	440.20	0	4.8520	0	34.0520	4	26.944	0	436.216	0	57.7	4	18.6	4	-1E+10	1	-1E+10	1	-1E+10	1	-1E+10	1	-1E+10	1	-1E+10	1
4901784	68	C	05/15/2017	10:40	-132.283	43.672	0	442.80	0	4.8380	0	34.0550	4	26.948	0	438.790	0	56.6	4	18.2	4	-1E+10	1	-1E+10	1	-1E+10	1	-1E+10	1	-1E+10	1	-1E+10	1
4901784	68	C	05/15/2017	10:40	-132.283	43.672	0	445.40	0	4.8140	0	34.0600	4	26.955	0	441.363	0	55.6	4	17.9	4	-1E+10	1	-1E+10	1	-1E+10	1	-1E+10	1	-1E+10	1	-1E+10	1
4901784	68	C	05/15/2017	10:40	-132.283	43.672	0	447.20	0	4.8080	0	34.0610	4	26.957	0	443.145	0	55.0	4	17.7	4	-1E+10	1	-1E+10	1	-1E+10	1	-1E+10	1	-1E+10	1	-1E+10	1
4901784	68	C	05/15/2017	10:40	-132.283	43.672	0	449.90	0	4.8000	0	34.0640	4	26.960	0	445.818	0	54.2	4	17.4	4	-1E+10	1	-1E+10	1	-1E+10	1	-1E+10	1	-1E+10	1	-1E+10	1
4901784	68	C	05/15/2017	10:40	-132.283	43.672	0	452.60	0	4.7890	0	34.0670	4	26.963	0	448.490	0	53.5	4	17.2	4	-1E+10	1	-1E+10	1	-1E+10	1	-1E+10	1	-1E+10	1	-1E+10	1
4901784	68	C	05/15/2017	10:40	-132.283	43.672	0	455.30	0	4.7840	0	34.0690	4	26.966	0	451.163	0	52.9	4	17.0	4	-1E+10	1	-1E+10	1	-1E+10	1	-1E+10	1	-1E+10	1	-1E+10	1
4901784	68	C	05/15/2017	10:40	-132.283	43.672	0	457.90	0	4.7780	0	34.0700	4	26.967	0	453.736	0	52.2	4	16.8	4	-1E+10	1	-1E+10	1	-1E+10	1	-1E+10	1	-1E+10	1	-1E+10	1
4901784	68	C	05/15/2017	10:40	-132.283	43.672	0	459.70	0	4.7680	0	34.0710	4	26.969	0	455.518	0	51.7	4	16.6	4	-1E+10	1	-1E+10	1	-1E+10	1	-1E+10	1	-1E+10	1	-1E+10	1
4901784	68	C	05/15/2017	10:40	-132.283	43.672	0	462.30	0	4.7540	0	34.0740	4	26.973	0	458.092	0	51.1	4	16.4	4	-1E+10	1	-1E+10	1	-1E+10	1	-1E+10	1	-1E+10	1	-1E+10	1
4901784	68	C	05/15/2017	10:40	-132.283	43.672	0	465.00	0	4.7490	0	34.0750	4	26.974	0	460.764	0	50.5	4	16.2	4	-1E+10	1	-1E+10	1	-1E+10	1	-1E+10	1	-1E+10	1	-1E+10	1
4901784	68	C	05/15/2017	10:40	-132.283	43.672	0	467.70	0	4.7460	0	34.0760	4	26.975	0	463.436	0	49.7	4	16.0	4	-1E+10	1	-1E+10	1	-1E+10	1	-1E+10	1	-1E+10	1	-1E+10	1
4901784	68	C	05/15/2017	10:40	-132.283	43.672	0	470.40	0	4.7440	0	34.0760	4	26.976	0	466.109	0	48.6	4	15.6	4	-1E+10	1	-1E+10	1	-1E+10	1	-1E+10	1	-1E+10	1	-1E+10	1
4901784	68	C	05/15/2017	10:40	-132.283	43.672	0	472.20	0	4.7250	0	34.0830	4	26.983	0	467.890	0	47.7	4	15.3	4	-1E+10	1	-1E+10	1	-1E+10	1	-1E+10	1	-1E+10	1	-1E+10	1
4901784	68	C	05/15/2017	10:40	-132.283	43.672	0	474.90	0	4.7100	0	34.0860	4	26.987	0	470.563	0	46.7	4	15.0	4	-1E+10	1	-1E+10	1	-1E+10	1	-1E+10	1	-1E+10	1	-1E+10	1
4901784	68	C	05/15/2017	10:40	-132.283	43.672	0	477.60	0	4.6960	0	34.0900	4	26.992	0	473.235	0	46.0	4	14.8	4	-1E+10	1	-1E+10	1	-1E+10	1	-1E+10	1	-1E+10	1	-1E+10	1
4901784	68	C	05/15/2017	10:40	-132.283	43.672	0	480.30	0	4.6900	0	34.0920	4	26.994	0	475.907	0	45.2	4	14.5	4	-1E+10	1	-1E+10	1	-1E+10	1	-1E+10	1	-1E+10	1	-1E+10	1
4901784	68	C	05/15/2017	10:40	-132.283	43.672	0	483.10	0	4.6770	0	34.0960	4	26.999	0	478.678	0	44.5	4	14.3	4	-1E+10	1	-1E+10	1	-1E+10	1	-1E+10	1	-1E+10	1	-1E+10	1
4901784	68	C	05/15/2017	10:40	-132.283	43.672	0	484.80	0	4.6700	0	34.0980	4	27.001	0	480.361	0	44.3	4	14.2	4	-1E+10	1	-1E+10	1	-1E+10	1	-1E+10	1	-1E+10	1	-1E+10	1
4901784	68	C	05/15/2017	10:40	-132.283	43.672	0	487.60	0	4.6670	0	34.0990	4	27.003	0	483.132	0	43.8	4	14.0	4	-1E+10	1	-1E+10	1	-1E+10	1	-1E+10	1	-1E+10	1	-1E+10	1
4901784	68	C	05/15/2017	10:40	-132.283	43.672	0	490.30	0	4.6600	0	34.1020	4	27.006	0	485.804	0	43.2	4	13.9	4	-1E+10	1	-1E+10	1	-1E+10	1	-1E+10	1	-1E+10	1	-1E+10	1
4901784	68	C	05/15/2017	10:40	-132.283	43.672	0	492.10	0	4.6580	0	34.1020	4	27.006	0	487.585	0	42.9	4	13.8	4	-1E+10	1	-1E+10	1	-1E+10	1	-1E+10	1	-1E+10	1	-1E+10	1
4901784	68	C	05/15/2017	10:40	-132.283	43.672	0	494.80	0	4.6540	0	34.1040	4	27.008	0	490.257	0	42.3	4	13.6	4	-1E+10	1	-1E+10	1	-1E+10	1	-1E+10	1	-1E+10	1	-1E+10	1
4901784	68	C	05/15/2017	10:40	-132.283	43.672	0	497.60	0	4.6490	0	34.1060	4	27.010	0	493.028	0	41.7	4	13.3	4	-1E+10	1	-1E+10	1	-1E+10	1	-1E+10	1	-1E+10	1	-1E+10	1
4901784	68	C	05/15/2017	10:40	-132.283	43.672	0	500.30	0	4.6400	0	34.1090	4	27.014	0	495.700	0	40.9	4	13.1	4	-1E+10	1	-1E+10	1	-1E+10	1	-1E+10	1	-1E+10	1	-1E+10	1
4901784	68	C	05/15/2017	10:40	-132.283	43.672	0	504.80	0	4.6250	0	34.1140	4	27.019	0	500.154	0	40.0	4	12.8	4	-1E+10	1	-1E+10	1	-1E+10	1	-1E+10	1	-1E+10	1	-1E+10	1
4901784	68	C	05/15/2017	10:40	-132.283	43.672	0	510.30	0	4.6140	0	34.1180	4	27.024	0	505.596	0	39.1	4	12.5	4	-1E+10	1	-1E+10	1	-1E+10	1	-1E+10	1	-1E+10	1	-1E+10	1
4901784	68	C	05/15/2017	10:40	-132.283	43.672	0	514.80	0	4.5990	0	34.1220	4	27.029	0	510.049	0	38.7	4	12.4	4	-1E+10	1	-1E+10	1	-1E+10	1	-1E+10	1	-1E+10	1	-1E+10	1
4901784	68	C	05/15/2017	10:40	-132.283	43.672	0	519.40	0	4.5760	0	34.1250	4	27.033	0	514.601	0	38.3	4	12.2	4	-1E+10	1	-1E+10	1	-1E+10	1	-1E+10	1	-1E+10	1	-1E+10	1
4901784	68	C	05/15/2017	10:40	-132.283	43.672	0	524.90	0	4.5620	0	34.1260	4	27.036	0	520.043	0	37.6	4	12.0	4	-1E+10	1	-1E+10	1	-1E+10	1	-1E+10	1	-1E+10	1	-1E+10	1
4901784	68	C	05/15/2017	10:40	-132.283	43.672	0	530.40	0	4.5330	0	34.1300	4	27.042	0	525.486	0	36.3	4	11.6	4	-1E+10	1	-1E+10	1	-1E+10	1	-1E+10	1	-1E+10	1	-1E+10	1
4901784	68	C	05/15/2017	10:40	-132.283	43.672	0	535.00	0	4.5070	0	34.1360	4	27.050	0	530.037	0	35.0	4	11.2	4	-1E+10	1	-1E+10	1	-1E+10	1	-1E+10	1	-1E+10	1	-1E+10	1
4901784	68	C	05/15/2017	10:40	-132.283	43.672	0	539.70	0	4.4870	0	34.1420	4	27.057	0	534.687	0	33.8	4	10.8	4	-1E+10	1	-1E+10	1	-1E+10	1	-1E+10	1	-1E+10	1	-1E+10	1
4901784	68	C	05/15/2017	10:40	-132.283	43.672	0	545.20	0	4.4680	0	34.1480	4	27.064	0	540.129	0	32.5	4	10.4	4	-1E+10	1	-1E+10	1	-1E+10	1	-1E+10	1	-1E+10	1	-1E+10	1
4901784	68	C	05/15/2017	10:40	-132.283	43.672	0	549.90	0	4.4510	0	34.1540	4	27.070	0	544.779	0	31.3	4	10.0	4	-1E+10	1	-1E+10	1	-1E+10	1	-1E+10	1	-1E+10	1	-1E+10	1
4901784	68	C	05/15/2017	10:40	-132.283	43.672	0	554.60	0	4.4140	0	34.1610	4	27.080	0	549.429	0	30.6	4	9.7	4	-1E+10	1	-1E+10	1	-1E+10	1	-1E+10	1	-1E+10	1	-1E+10	1
4901784	68	C	05/15/2017	10:40	-132.283	43.672	0	560.20	0	4.3910	0	34.1650	4	27.085	0	554.970	0	29.8	4	9.5	4	-1E+10	1	-1E+10	1	-1E+10	1	-1E+10	1	-1E+10	1	-1E+10	1
4901784	68	C	05/15/2017	10:40	-132.283	43.672	0	565.60	0	4.3760	0	34.1680	4	27.089	0	560.312	0	28.6	4	9.1	4	-1E+10	1	-1E+10	1	-1E+10	1	-1E+10	1	-1E+10	1	-1E+10	1
4901784	68	C	05/15/2017	10:40	-132.283	43.672	0	570.20	0	4.3640	0	34.1730	4	27.095	0	564.863	0	27.2	4	8.7	4	-1E+10	1	-1E+10	1	-1E+10	1	-1E+10	1	-1E+10	1	-1E+10	1
4901784	68	C	05/15/2017	10:40	-132.283	43.672	0	574.90	0	4.3380	0	34.1820	4	27.105	0	569.512	0	25.8	4	8.2	4	-1E+10	1	-1E+10	1	-1E+10	1	-1E+10	1	-1E+10	1	-1E+10	1
4901784	68	C	05/15/2017	10:40	-132.283	43.672	0	580.40	0	4.3140	0	34.1930	4	27.116	0	574.953	0	24.5	4	7.8	4	-1E+10	1	-1E+10	1	-1E+10	1	-1E+10	1	-1E+10	1	-1E+10	1
4901784	68	C	05/15/2017	10:40	-132.283	43.672	0	585.00	0	4.3060	0	34.1960	4	27.119	0	579.504	0	23.9	4	7.6	4	-1E+10	1	-1E+10	1	-1E+10	1	-1E+10	1	-1E+10	1	-1E+10	1
4901784	68	C	05/15/2017	10:40	-132.283	43.672	0	590.30	0	4.2880	0	34.2020	4	27.126	0	584.746	0	22.8	4	7.3	4	-1E+10	1	-1E+10	1	-1E+10	1	-1E+10	1	-1E+10	1	-1E+10	1
4901784	68	C	05/15/2017	10:40	-132.283	43.672	0	595.50	0	4.2760	0	34.2090	4	27.133	0	589.890	0	21.8	4	6.9	4	-1E+10	1	-1E+10	1	-1E+10	1	-1E+10	1	-1E+10	1	-1E+10	1
4901784	68	C	05/15/2017	10:40	-132.283	43.672	0	600.30	0	4.2720	0	34.2160	4	27.139	0	594.638	0	21.1	4	6.7	4	-1E+10	1	-1E+10	1	-1E+10	1	-1E+10	1	-1E+10	1	-1E+10	1
4901784	68	C	05/15/2017	10:40	-132.283	43.672	0	605.10	0	4.2590	0	34.2190	4	27.143	0	599.386	0	20.8	4	6.6	4	-1E+10	1	-1E+10	1	-1E+10	1	-1E+10	1	-1E+10	1	-1E+10	1
4901784	68	C	05/15/2017	10:40	-132.283	43.672	0	609.90	0	4.2340	0	34.2230	4	27.149	0	604.134	0	20.4	4	6.5	4	-1E+10	1	-1E+10	1	-1E+10	1	-1E+10	1	-1E+10	1	-1E+10	1
4901784	68	C	05/15/2017	10:40	-132.283	43.672	0	614.70	0	4.2250	0	34.2270	4	27.153	0	608.881	0	20.0	4	6.4	4	-1E+10	1	-1E+10	1	-1E+10	1	-1E+10	1	-1E+10	1	-1E+10	1
4901784	68	C	05/15/2017	10:40	-132.283	43.672	0	619.60	0	4.2120	0	34.2300	4	27.156	0	613.728	0	19.7	4	6.3	4	-1E+10	1	-1E+10	1	-1E+10	1	-1E+10	1	-1E+10	1	-1E+10	1
4901784	68	C	05/15/2017	10:40	-132.283	43.672	0	624.70	0	4.1990	0	34.2330	4	27.160	0	618.772	0	19.4	4	6.2	4	-1E+10	1	-1E+10	1	-1E+10	1	-1E+10	1	-1E+10	1	-1E+10	1
4901784	68	C	05/15/2017	10:40	-132.283	43.672	0	629.70	0	4.1900	0	34.2360	4	27.164	0	623.717	0	19.0	4	6.0	4	-1E+10	1	-1E+10	1	-1E+10	1	-1E+10	1	-1E+10	1	-1E+10	1
4901784	68	C	05/15/2017	10:40	-132.283	43.672	0	634.60	0	4.1800	0	34.2400	4	27.168	0	628.563	0	18.4	4	5.8	4	-1E+10	1	-1E+10	1	-1E+10	1	-1E+10	1	-1E+10	1	-1E+10	1
4901784	68	C	05/15/2017	10:40	-132.283	43.672	0	639.50	0	4.1700	0	34.2450	4	27.173	0	633.409	0	18.0	4	5.7	4	-1E+10	1	-1E+10	1	-1E+10	1	-1E+10	1	-1E+10	1	-1E+10	1
4901784	68	C	05/15/2017	10:40	-132.283	43.672	0	644.40	0	4.1530	0	34.2490	4	27.178	0	638.255	0	17.6	4	5.6	4	-1E+10	1	-1E+10	1	-1E+10	1	-1E+10	1	-1E+10	1	-1E+10	1
4901784	68	C	05/15/2017	10:40	-132.283	43.672	0	649.40	0	4.1430	0	34.2530	4	27.182	0	643.199	0	17.3	4	5.5	4	-1E+10	1	-1E+10	1	-1E+10	1	-1E+10	1	-1E+10	1	-1E+10	1
4901784	68	C	05/15/2017	10:40	-132.283	43.672	0	654.40	0	4.1320	0	34.2580	4	27.187	0	648.144	0	16.9	4	5.4	4	-1E+10	1	-1E+10	1	-1E+10	1	-1E+10	1	-1E+10	1	-1E+10	1
4901784	68	C	05/15/2017	10:40	-132.283	43.672	0	659.50	0	4.1350	0	34.2600	4	27.189	0	653.187	0	16.7	4	5.3	4	-1E+10	1	-1E+10	1	-1E+10	1	-1E+10	1	-1E+10	1	-1E+10	1
4901784	68	C	05/15/2017	10:40	-132.283	43.672	0	664.60	0	4.1210	0	34.2630	4	27.193	0	658.230	0	16.4	4	5.2	4	-1E+10	1	-1E+10	1	-1E+10	1	-1E+10	1	-1E+10	1	-1E+10	1
4901784	68	C	05/15/2017	10:40	-132.283	43.672	0	669.80	0	4.1020	0	34.2670	4	27.198	0	663.372	0	16.1	4	5.1	4	-1E+10	1	-1E+10	1	-1E+10	1	-1E+10	1	-1E+10	1	-1E+10	1
4901784	68	C	05/15/2017	10:40	-132.283	43.672	0	675.00	0	4.0960	0	34.2690	4	27.200	0	668.514	0	15.9	4	5.0	4	-1E+10	1	-1E+10	1	-1E+10	1	-1E+10	1	-1E+10	1	-1E+10	1
4901784	68	C	05/15/2017	10:40	-132.283	43.672	0	680.10	0	4.0840	0	34.2730	4	27.204	0	673.556	0	15.6	4	5.0	4	-1E+10	1	-1E+10	1	-1E+10	1	-1E+10	1	-1E+10	1	-1E+10	1
4901784	68	C	05/15/2017	10:40	-132.283	43.672	0	685.40	0	4.0710	0	34.2770	4	27.209	0	678.797	0	15.4	4	4.9	4	-1E+10	1	-1E+10	1	-1E+10	1	-1E+10	1	-1E+10	1	-1E+10	1
4901784	68	C	05/15/2017	10:40	-132.283	43.672	0	690.70	0	4.0600	0	34.2800	4	27.213	0	684.037	0	15.1	4	4.8	4	-1E+10	1	-1E+10	1	-1E+10	1	-1E+10	1	-1E+10	1	-1E+10	1
4901784	68	C	05/15/2017	10:40	-132.283	43.672	0	695.20	0	4.0500	0	34.2830	4	27.216	0	688.486	0	14.9	4	4.7	4	-1E+10	1	-1E+10	1	-1E+10	1	-1E+10	1	-1E+10	1	-1E+10	1
4901784	68	C	05/15/2017	10:40	-132.283	43.672	0	699.50	0	4.0390	0	34.2860	4	27.220	0	692.738	0	14.5	4	4.6	4	-1E+10	1	-1E+10	1	-1E+10	1	-1E+10	1	-1E+10	1	-1E+10	1
4901784	68	C	05/15/2017	10:40	-132.283	43.672	0	704.90	0	4.0110	0	34.2960	4	27.230	0	698.076	0	14.1	4	4.5	4	-1E+10	1	-1E+10	1	-1E+10	1	-1E+10	1	-1E+10	1	-1E+10	1
4901784	68	C	05/15/2017	10:40	-132.283	43.672	0	710.40	0	4.0000	0	34.3000	4	27.235	0	703.514	0	14.0	4	4.4	4	-1E+10	1	-1E+10	1	-1E+10	1	-1E+10	1	-1E+10	1	-1E+10	1
4901784	68	C	05/15/2017	10:40	-132.283	43.672	0	714.90	0	3.9930	0	34.3020	4	27.237	0	707.963	0	13.8	4	4.4	4	-1E+10	1	-1E+10	1	-1E+10	1	-1E+10	1	-1E+10	1	-1E+10	1
4901784	68	C	05/15/2017	10:40	-132.283	43.672	0	719.60	0	3.9800	0	34.3050	4	27.241	0	712.609	0	13.7	4	4.3	4	-1E+10	1	-1E+10	1	-1E+10	1	-1E+10	1	-1E+10	1	-1E+10	1
4901784	68	C	05/15/2017	10:40	-132.283	43.672	0	725.00	0	3.9650	0	34.3100	4	27.246	0	717.947	0	13.5	4	4.3	4	-1E+10	1	-1E+10	1	-1E+10	1	-1E+10	1	-1E+10	1	-1E+10	1
4901784	68	C	05/15/2017	10:40	-132.283	43.672	0	730.00	0	3.9580	0	34.3120	4	27.249	0	722.890	0	13.4	4	4.2	4	-1E+10	1	-1E+10	1	-1E+10	1	-1E+10	1	-1E+10	1	-1E+10	1
4901784	68	C	05/15/2017	10:40	-132.283	43.672	0	735.70	0	3.9470	0	34.3150	4	27.252	0	728.524	0	13.2	4	4.2	4	-1E+10	1	-1E+10	1	-1E+10	1	-1E+10	1	-1E+10	1	-1E+10	1
4901784	68	C	05/15/2017	10:40	-132.283	43.672	0	740.60	0	3.9340	0	34.3170	4	27.255	0	733.368	0	13.1	4	4.1	4	-1E+10	1	-1E+10	1	-1E+10	1	-1E+10	1	-1E+10	1	-1E+10	1
4901784	68	C	05/15/2017	10:40	-132.283	43.672	0	745.50	0	3.9060	0	34.3240	4	27.264	0	738.211	0	12.9	4	4.1	4	-1E+10	1	-1E+10	1	-1E+10	1	-1E+10	1	-1E+10	1	-1E+10	1
4901784	68	C	05/15/2017	10:40	-132.283	43.672	0	750.40	0	3.8880	0	34.3280	4	27.269	0	743.055	0	12.7	4	4.0	4	-1E+10	1	-1E+10	1	-1E+10	1	-1E+10	1	-1E+10	1	-1E+10	1
4901784	68	C	05/15/2017	10:40	-132.283	43.672	0	755.50	0	3.8790	0	34.3310	4	27.272	0	748.096	0	12.6	4	4.0	4	-1E+10	1	-1E+10	1	-1E+10	1	-1E+10	1	-1E+10	1	-1E+10	1
4901784	68	C	05/15/2017	10:40	-132.283	43.672	0	760.50	0	3.8670	0	34.3340	4	27.276	0	753.038	0	12.5	4	3.9	4	-1E+10	1	-1E+10	1	-1E+10	1	-1E+10	1	-1E+10	1	-1E+10	1
4901784	68	C	05/15/2017	10:40	-132.283	43.672	0	765.50	0	3.8560	0	34.3370	4	27.279	0	757.980	0	12.4	4	3.9	4	-1E+10	1	-1E+10	1	-1E+10	1	-1E+10	1	-1E+10	1	-1E+10	1
4901784	68	C	05/15/2017	10:40	-132.283	43.672	0	770.40	0	3.8350	0	34.3420	4	27.285	0	762.823	0	12.2	4	3.8	4	-1E+10	1	-1E+10	1	-1E+10	1	-1E+10	1	-1E+10	1	-1E+10	1
4901784	68	C	05/15/2017	10:40	-132.283	43.672	0	775.50	0	3.8140	0	34.3480	4	27.292	0	767.863	0	12.1	4	3.8	4	-1E+10	1	-1E+10	1	-1E+10	1	-1E+10	1	-1E+10	1	-1E+10	1
4901784	68	C	05/15/2017	10:40	-132.283	43.672	0	780.60	0	3.7910	0	34.3530	4	27.299	0	772.903	0	11.9	4	3.8	4	-1E+10	1	-1E+10	1	-1E+10	1	-1E+10	1	-1E+10	1	-1E+10	1
4901784	68	C	05/15/2017	10:40	-132.283	43.672	0	785.70	0	3.7750	0	34.3580	4	27.304	0	777.944	0	11.8	4	3.7	4	-1E+10	1	-1E+10	1	-1E+10	1	-1E+10	1	-1E+10	1	-1E+10	1
4901784	68	C	05/15/2017	10:40	-132.283	43.672	0	790.00	0	3.7660	0	34.3600	4	27.307	0	782.193	0	11.7	4	3.7	4	-1E+10	1	-1E+10	1	-1E+10	1	-1E+10	1	-1E+10	1	-1E+10	1
4901784	68	C	05/15/2017	10:40	-132.283	43.672	0	794.50	0	3.7450	0	34.3650	4	27.313	0	786.640	0	11.6	4	3.6	4	-1E+10	1	-1E+10	1	-1E+10	1	-1E+10	1	-1E+10	1	-1E+10	1
4901784	68	C	05/15/2017	10:40	-132.283	43.672	0	799.80	0	3.7130	0	34.3740	4	27.323	0	791.878	0	11.5	4	3.6	4	-1E+10	1	-1E+10	1	-1E+10	1	-1E+10	1	-1E+10	1	-1E+10	1
4901784	68	C	05/15/2017	10:40	-132.283	43.672	0	805.00	0	3.6870	0	34.3810	4	27.331	0	797.016	0	11.4	4	3.6	4	-1E+10	1	-1E+10	1	-1E+10	1	-1E+10	1	-1E+10	1	-1E+10	1
4901784	68	C	05/15/2017	10:40	-132.283	43.672	0	810.40	0	3.6590	0	34.3880	4	27.340	0	802.352	0	11.3	4	3.6	4	-1E+10	1	-1E+10	1	-1E+10	1	-1E+10	1	-1E+10	1	-1E+10	1
4901784	68	C	05/15/2017	10:40	-132.283	43.672	0	814.90	0	3.6340	0	34.3940	4	27.347	0	806.799	0	11.3	4	3.6	4	-1E+10	1	-1E+10	1	-1E+10	1	-1E+10	1	-1E+10	1	-1E+10	1
4901784	68	C	05/15/2017	10:40	-132.283	43.672	0	819.40	0	3.6090	0	34.4020	4	27.356	0	811.245	0	11.3	4	3.6	4	-1E+10	1	-1E+10	1	-1E+10	1	-1E+10	1	-1E+10	1	-1E+10	1
4901784	68	C	05/15/2017	10:40	-132.283	43.672	0	825.00	0	3.5960	0	34.4050	4	27.359	0	816.779	0	11.4	4	3.6	4	-1E+10	1	-1E+10	1	-1E+10	1	-1E+10	1	-1E+10	1	-1E+10	1
4901784	68	C	05/15/2017	10:40	-132.283	43.672	0	829.80	0	3.5850	0	34.4080	4	27.363	0	821.521	0	11.4	4	3.6	4	-1E+10	1	-1E+10	1	-1E+10	1	-1E+10	1	-1E+10	1	-1E+10	1
4901784	68	C	05/15/2017	10:40	-132.283	43.672	0	835.00	0	3.5790	0	34.4100	4	27.365	0	826.659	0	11.4	4	3.6	4	-1E+10	1	-1E+10	1	-1E+10	1	-1E+10	1	-1E+10	1	-1E+10	1
4901784	68	C	05/15/2017	10:40	-132.283	43.672	0	840.60	0	3.5710	0	34.4110	4	27.367	0	832.192	0	11.4	4	3.6	4	-1E+10	1	-1E+10	1	-1E+10	1	-1E+10	1	-1E+10	1	-1E+10	1
4901784	68	C	05/15/2017	10:40	-132.283	43.672	0	845.40	0	3.5590	0	34.4150	4	27.371	0	836.935	0	11.5	4	3.6	4	-1E+10	1	-1E+10	1	-1E+10	1	-1E+10	1	-1E+10	1	-1E+10	1
4901784	68	C	05/15/2017	10:40	-132.283	43.672	0	850.20	0	3.5470	0	34.4180	4	27.375	0	841.677	0	11.5	4	3.6	4	-1E+10	1	-1E+10	1	-1E+10	1	-1E+10	1	-1E+10	1	-1E+10	1
4901784	68	C	05/15/2017	10:40	-132.283	43.672	0	855.20	0	3.5300	0	34.4230	4	27.380	0	846.617	0	11.6	4	3.6	4	-1E+10	1	-1E+10	1	-1E+10	1	-1E+10	1	-1E+10	1	-1E+10	1
4901784	68	C	05/15/2017	10:40	-132.283	43.672	0	860.10	0	3.5260	0	34.4240	4	27.382	0	851.457	0	11.6	4	3.6	4	-1E+10	1	-1E+10	1	-1E+10	1	-1E+10	1	-1E+10	1	-1E+10	1
4901784	68	C	05/15/2017	10:40	-132.283	43.672	0	865.10	0	3.5220	0	34.4250	4	27.383	0	856.397	0	11.6	4	3.6	4	-1E+10	1	-1E+10	1	-1E+10	1	-1E+10	1	-1E+10	1	-1E+10	1
4901784	68	C	05/15/2017	10:40	-132.283	43.672	0	870.20	0	3.5100	0	34.4280	4	27.386	0	861.435	0	11.7	4	3.7	4	-1E+10	1	-1E+10	1	-1E+10	1	-1E+10	1	-1E+10	1	-1E+10	1
4901784	68	C	05/15/2017	10:40	-132.283	43.672	0	875.30	0	3.4940	0	34.4330	4	27.392	0	866.473	0	11.8	4	3.7	4	-1E+10	1	-1E+10	1	-1E+10	1	-1E+10	1	-1E+10	1	-1E+10	1
4901784	68	C	05/15/2017	10:40	-132.283	43.672	0	880.50	0	3.4850	0	34.4340	4	27.394	0	871.610	0	11.9	4	3.7	4	-1E+10	1	-1E+10	1	-1E+10	1	-1E+10	1	-1E+10	1	-1E+10	1
4901784	68	C	05/15/2017	10:40	-132.283	43.672	0	885.60	0	3.4630	0	34.4400	4	27.401	0	876.648	0	12.0	4	3.7	4	-1E+10	1	-1E+10	1	-1E+10	1	-1E+10	1	-1E+10	1	-1E+10	1
4901784	68	C	05/15/2017	10:40	-132.283	43.672	0	889.90	0	3.4530	0	34.4430	4	27.404	0	880.895	0	12.1	4	3.8	4	-1E+10	1	-1E+10	1	-1E+10	1	-1E+10	1	-1E+10	1	-1E+10	1
4901784	68	C	05/15/2017	10:40	-132.283	43.672	0	894.30	0	3.4400	0	34.4470	4	27.408	0	885.241	0	12.2	4	3.8	4	-1E+10	1	-1E+10	1	-1E+10	1	-1E+10	1	-1E+10	1	-1E+10	1
4901784	68	C	05/15/2017	10:40	-132.283	43.672	0	899.60	0	3.4280	0	34.4500	4	27.412	0	890.477	0	12.3	4	3.8	4	-1E+10	1	-1E+10	1	-1E+10	1	-1E+10	1	-1E+10	1	-1E+10	1
4901784	68	C	05/15/2017	10:40	-132.283	43.672	0	904.90	0	3.4170	0	34.4530	4	27.415	0	895.711	0	12.5	4	3.9	4	-1E+10	1	-1E+10	1	-1E+10	1	-1E+10	1	-1E+10	1	-1E+10	1
4901784	68	C	05/15/2017	10:40	-132.283	43.672	0	910.10	0	3.4010	0	34.4580	4	27.421	0	900.847	0	12.8	4	4.0	4	-1E+10	1	-1E+10	1	-1E+10	1	-1E+10	1	-1E+10	1	-1E+10	1
4901784	68	C	05/15/2017	10:40	-132.283	43.672	0	915.40	0	3.3820	0	34.4640	4	27.428	0	906.082	0	13.2	4	4.1	4	-1E+10	1	-1E+10	1	-1E+10	1	-1E+10	1	-1E+10	1	-1E+10	1
4901784	68	C	05/15/2017	10:40	-132.283	43.672	0	919.90	0	3.3660	0	34.4710	4	27.435	0	910.527	0	13.5	4	4.2	4	-1E+10	1	-1E+10	1	-1E+10	1	-1E+10	1	-1E+10	1	-1E+10	1
4901784	68	C	05/15/2017	10:40	-132.283	43.672	0	924.40	0	3.3620	0	34.4740	4	27.438	0	914.971	0	13.7	4	4.3	4	-1E+10	1	-1E+10	1	-1E+10	1	-1E+10	1	-1E+10	1	-1E+10	1
4901784	68	C	05/15/2017	10:40	-132.283	43.672	0	929.80	0	3.3600	0	34.4750	4	27.439	0	920.304	0	13.9	4	4.3	4	-1E+10	1	-1E+10	1	-1E+10	1	-1E+10	1	-1E+10	1	-1E+10	1
4901784	68	C	05/15/2017	10:40	-132.283	43.672	0	935.30	0	3.3540	0	34.4790	4	27.442	0	925.736	0	14.2	4	4.4	4	-1E+10	1	-1E+10	1	-1E+10	1	-1E+10	1	-1E+10	1	-1E+10	1
4901784	68	C	05/15/2017	10:40	-132.283	43.672	0	939.90	0	3.3510	0	34.4800	4	27.444	0	930.278	0	14.4	4	4.5	4	-1E+10	1	-1E+10	1	-1E+10	1	-1E+10	1	-1E+10	1	-1E+10	1
4901784	68	C	05/15/2017	10:40	-132.283	43.672	0	944.50	0	3.3460	0	34.4830	4	27.446	0	934.821	0	14.7	4	4.6	4	-1E+10	1	-1E+10	1	-1E+10	1	-1E+10	1	-1E+10	1	-1E+10	1
4901784	68	C	05/15/2017	10:40	-132.283	43.672	0	950.10	0	3.3420	0	34.4860	4	27.449	0	940.351	0	15.0	4	4.7	4	-1E+10	1	-1E+10	1	-1E+10	1	-1E+10	1	-1E+10	1	-1E+10	1
4901784	68	C	05/15/2017	10:40	-132.283	43.672	0	954.80	0	3.3380	0	34.4890	4	27.452	0	944.992	0	15.3	4	4.8	4	-1E+10	1	-1E+10	1	-1E+10	1	-1E+10	1	-1E+10	1	-1E+10	1
4901784	68	C	05/15/2017	10:40	-132.283	43.672	0	959.50	0	3.3320	0	34.4920	4	27.455	0	949.633	0	15.6	4	4.9	4	-1E+10	1	-1E+10	1	-1E+10	1	-1E+10	1	-1E+10	1	-1E+10	1
4901784	68	C	05/15/2017	10:40	-132.283	43.672	0	964.90	0	3.3290	0	34.4950	4	27.458	0	954.965	0	16.0	4	5.0	4	-1E+10	1	-1E+10	1	-1E+10	1	-1E+10	1	-1E+10	1	-1E+10	1
4901784	68	C	05/15/2017	10:40	-132.283	43.672	0	970.50	0	3.3240	0	34.4990	4	27.461	0	960.495	0	16.5	4	5.1	4	-1E+10	1	-1E+10	1	-1E+10	1	-1E+10	1	-1E+10	1	-1E+10	1
4901784	68	C	05/15/2017	10:40	-132.283	43.672	0	975.30	0	3.3220	0	34.5030	4	27.465	0	965.234	0	16.7	4	5.2	4	-1E+10	1	-1E+10	1	-1E+10	1	-1E+10	1	-1E+10	1	-1E+10	1
4901784	68	C	05/15/2017	10:40	-132.283	43.672	0	979.90	0	3.3220	0	34.5030	4	27.465	0	969.776	0	16.9	4	5.3	4	-1E+10	1	-1E+10	1	-1E+10	1	-1E+10	1	-1E+10	1	-1E+10	1
4901784	68	C	05/15/2017	10:40	-132.283	43.672	0	984.60	0	3.3230	0	34.5050	4	27.466	0	974.417	0	17.2	4	5.4	4	-1E+10	1	-1E+10	1	-1E+10	1	-1E+10	1	-1E+10	1	-1E+10	1
4901784	68	C	05/15/2017	10:40	-132.283	43.672	0	989.20	0	3.3230	0	34.5080	4	27.469	0	978.958	0	17.4	4	5.4	4	-1E+10	1	-1E+10	1	-1E+10	1	-1E+10	1	-1E+10	1	-1E+10	1
4901784	68	C	05/15/2017	10:40	-132.283	43.672	0	994.50	0	3.3230	0	34.5080	4	27.469	0	984.191	0	17.8	4	5.5	4	-1E+10	1	-1E+10	1	-1E+10	1	-1E+10	1	-1E+10	1	-1E+10	1
4901784	68	C	05/15/2017	10:40	-132.283	43.672	0	999.30	0	3.3230	0	34.5120	4	27.472	0	988.930	0	18.3	4	5.7	4	-1E+10	1	-1E+10	1	-1E+10	1	-1E+10	1	-1E+10	1	-1E+10	1
4901784	68	C	05/15/2017	10:40	-132.283	43.672	0	1005.00	0	3.3230	0	34.5170	4	27.476	0	994.557	0	18.8	4	5.9	4	-1E+10	1	-1E+10	1	-1E+10	1	-1E+10	1	-1E+10	1	-1E+10	1
4901784	68	C	05/15/2017	10:40	-132.283	43.672	0	1010.80	0	3.3240	0	34.5190	4	27.478	0	1000.283	0	19.2	4	6.0	4	-1E+10	1	-1E+10	1	-1E+10	1	-1E+10	1	-1E+10	1	-1E+10	1
4901784	68	C	05/15/2017	10:40	-132.283	43.672	0	1015.70	0	3.3240	0	34.5220	4	27.480	0	1005.121	0	19.7	4	6.1	4	-1E+10	1	-1E+10	1	-1E+10	1	-1E+10	1	-1E+10	1	-1E+10	1
4901784	68	C	05/15/2017	10:40	-132.283	43.672	0	1020.70	0	3.3240	0	34.5260	4	27.483	0	1010.056	0	20.1	4	6.3	4	-1E+10	1	-1E+10	1	-1E+10	1	-1E+10	1	-1E+10	1	-1E+10	1
4901784	68	C	05/15/2017	10:40	-132.283	43.672	0	1025.60	0	3.3250	0	34.5280	4	27.485	0	1014.893	0	20.3	4	6.3	4	-1E+10	1	-1E+10	1	-1E+10	1	-1E+10	1	-1E+10	1	-1E+10	1
4901784	68	C	05/15/2017	10:40	-132.283	43.672	0	1030.50	0	3.3250	0	34.5290	4	27.486	0	1019.730	0	20.6	4	6.4	4	-1E+10	1	-1E+10	1	-1E+10	1	-1E+10	1	-1E+10	1	-1E+10	1
4901784	68	C	05/15/2017	10:40	-132.283	43.672	0	1035.60	0	3.3240	0	34.5310	4	27.487	0	1024.765	0	20.9	4	6.5	4	-1E+10	1	-1E+10	1	-1E+10	1	-1E+10	1	-1E+10	1	-1E+10	1
4901784	68	C	05/15/2017	10:40	-132.283	43.672	0	1040.50	0	3.3230	0	34.5340	4	27.490	0	1029.601	0	21.3	4	6.6	4	-1E+10	1	-1E+10	1	-1E+10	1	-1E+10	1	-1E+10	1	-1E+10	1
4901784	68	C	05/15/2017	10:40	-132.283	43.672	0	1045.40	0	3.3200	0	34.5370	4	27.493	0	1034.438	0	21.5	4	6.7	4	-1E+10	1	-1E+10	1	-1E+10	1	-1E+10	1	-1E+10	1	-1E+10	1
4901784	68	C	05/15/2017	10:40	-132.283	43.672	0	1050.30	0	3.3180	0	34.5380	4	27.494	0	1039.275	0	21.7	4	6.8	4	-1E+10	1	-1E+10	1	-1E+10	1	-1E+10	1	-1E+10	1	-1E+10	1
4901784	68	C	05/15/2017	10:40	-132.283	43.672	0	1055.30	0	3.3170	0	34.5380	4	27.494	0	1044.210	0	21.8	4	6.8	4	-1E+10	1	-1E+10	1	-1E+10	1	-1E+10	1	-1E+10	1	-1E+10	1
4901784	68	C	05/15/2017	10:40	-132.283	43.672	0	1060.20	0	3.3180	0	34.5390	4	27.495	0	1049.046	0	22.0	4	6.8	4	-1E+10	1	-1E+10	1	-1E+10	1	-1E+10	1	-1E+10	1	-1E+10	1
4901784	68	C	05/15/2017	10:40	-132.283	43.672	0	1065.30	0	3.3180	0	34.5400	4	27.495	0	1054.079	0	22.2	4	6.9	4	-1E+10	1	-1E+10	1	-1E+10	1	-1E+10	1	-1E+10	1	-1E+10	1
4901784	68	C	05/15/2017	10:40	-132.283	43.672	0	1070.40	0	3.3170	0	34.5430	4	27.498	0	1059.113	0	22.6	4	7.0	4	-1E+10	1	-1E+10	1	-1E+10	1	-1E+10	1	-1E+10	1	-1E+10	1
4901784	68	C	05/15/2017	10:40	-132.283	43.672	0	1075.30	0	3.3140	0	34.5460	4	27.501	0	1063.949	0	22.9	4	7.1	4	-1E+10	1	-1E+10	1	-1E+10	1	-1E+10	1	-1E+10	1	-1E+10	1
4901784	68	C	05/15/2017	10:40	-132.283	43.672	0	1080.30	0	3.3130	0	34.5470	4	27.502	0	1068.883	0	23.0	4	7.2	4	-1E+10	1	-1E+10	1	-1E+10	1	-1E+10	1	-1E+10	1	-1E+10	1
4901784	68	C	05/15/2017	10:40	-132.283	43.672	0	1085.40	0	3.3110	0	34.5480	4	27.503	0	1073.916	0	23.2	4	7.2	4	-1E+10	1	-1E+10	1	-1E+10	1	-1E+10	1	-1E+10	1	-1E+10	1
4901784	68	C	05/15/2017	10:40	-132.283	43.672	0	1090.40	0	3.3080	0	34.5500	4	27.505	0	1078.850	0	23.4	4	7.3	4	-1E+10	1	-1E+10	1	-1E+10	1	-1E+10	1	-1E+10	1	-1E+10	1
4901784	68	C	05/15/2017	10:40	-132.283	43.672	0	1095.60	0	3.3060	0	34.5510	4	27.506	0	1083.982	0	23.5	4	7.3	4	-1E+10	1	-1E+10	1	-1E+10	1	-1E+10	1	-1E+10	1	-1E+10	1
4901784	68	C	05/15/2017	10:40	-132.283	43.672	0	1100.70	0	3.3050	0	34.5520	4	27.506	0	1089.015	0	23.7	4	7.4	4	-1E+10	1	-1E+10	1	-1E+10	1	-1E+10	1	-1E+10	1	-1E+10	1
4901784	68	C	05/15/2017	10:40	-132.283	43.672	0	1105.00	0	3.3040	0	34.5520	4	27.507	0	1093.258	0	23.7	4	7.4	4	-1E+10	1	-1E+10	1	-1E+10	1	-1E+10	1	-1E+10	1	-1E+10	1
4901784	68	C	05/15/2017	10:40	-132.283	43.672	0	1109.10	0	3.3040	0	34.5520	4	27.507	0	1097.304	0	23.8	4	7.4	4	-1E+10	1	-1E+10	1	-1E+10	1	-1E+10	1	-1E+10	1	-1E+10	1
4901784	68	C	05/15/2017	10:40	-132.283	43.672	0	1114.80	0	3.3030	0	34.5530	4	27.508	0	1102.928	0	23.9	4	7.4	4	-1E+10	1	-1E+10	1	-1E+10	1	-1E+10	1	-1E+10	1	-1E+10	1
4901784	68	C	05/15/2017	10:40	-132.283	43.672	0	1119.90	0	3.3020	0	34.5540	4	27.508	0	1107.960	0	24.0	4	7.5	4	-1E+10	1	-1E+10	1	-1E+10	1	-1E+10	1	-1E+10	1	-1E+10	1
4901784	68	C	05/15/2017	10:40	-132.283	43.672	0	1124.60	0	3.3020	0	34.5550	4	27.509	0	1112.598	0	24.1	4	7.5	4	-1E+10	1	-1E+10	1	-1E+10	1	-1E+10	1	-1E+10	1	-1E+10	1
4901784	68	C	05/15/2017	10:40	-132.283	43.672	0	1129.60	0	3.3020	0	34.5550	4	27.509	0	1117.531	0	24.3	4	7.6	4	-1E+10	1	-1E+10	1	-1E+10	1	-1E+10	1	-1E+10	1	-1E+10	1
4901784	68	C	05/15/2017	10:40	-132.283	43.672	0	1134.70	0	3.2990	0	34.5560	4	27.510	0	1122.563	0	24.5	4	7.6	4	-1E+10	1	-1E+10	1	-1E+10	1	-1E+10	1	-1E+10	1	-1E+10	1
4901784	68	C	05/15/2017	10:40	-132.283	43.672	0	1139.80	0	3.2960	0	34.5580	4	27.512	0	1127.595	0	24.8	4	7.7	4	-1E+10	1	-1E+10	1	-1E+10	1	-1E+10	1	-1E+10	1	-1E+10	1
4901784	68	C	05/15/2017	10:40	-132.283	43.672	0	1144.80	0	3.2890	0	34.5600	4	27.515	0	1132.528	0	25.1	4	7.8	4	-1E+10	1	-1E+10	1	-1E+10	1	-1E+10	1	-1E+10	1	-1E+10	1
4901784	68	C	05/15/2017	10:40	-132.283	43.672	0	1149.90	0	3.2870	0	34.5620	4	27.516	0	1137.559	0	25.3	4	7.9	4	-1E+10	1	-1E+10	1	-1E+10	1	-1E+10	1	-1E+10	1	-1E+10	1
4901784	68	C	05/15/2017	10:40	-132.283	43.672	0	1155.00	0	3.2810	0	34.5630	4	27.518	0	1142.591	0	25.5	4	7.9	4	-1E+10	1	-1E+10	1	-1E+10	1	-1E+10	1	-1E+10	1	-1E+10	1
4901784	68	C	05/15/2017	10:40	-132.283	43.672	0	1160.10	0	3.2720	0	34.5660	4	27.521	0	1147.622	0	25.8	4	8.0	4	-1E+10	1	-1E+10	1	-1E+10	1	-1E+10	1	-1E+10	1	-1E+10	1
4901784	68	C	05/15/2017	10:40	-132.283	43.672	0	1165.30	0	3.2720	0	34.5660	4	27.521	0	1152.752	0	25.9	4	8.1	4	-1E+10	1	-1E+10	1	-1E+10	1	-1E+10	1	-1E+10	1	-1E+10	1
4901784	68	C	05/15/2017	10:40	-132.283	43.672	0	1170.50	0	3.2630	0	34.5680	4	27.524	0	1157.881	0	26.1	4	8.1	4	-1E+10	1	-1E+10	1	-1E+10	1	-1E+10	1	-1E+10	1	-1E+10	1
4901784	68	C	05/15/2017	10:40	-132.283	43.672	0	1175.70	0	3.2590	0	34.5680	4	27.524	0	1163.011	0	26.2	4	8.2	4	-1E+10	1	-1E+10	1	-1E+10	1	-1E+10	1	-1E+10	1	-1E+10	1
4901784	68	C	05/15/2017	10:40	-132.283	43.672	0	1180.00	0	3.2560	0	34.5690	4	27.525	0	1167.253	0	26.4	4	8.2	4	-1E+10	1	-1E+10	1	-1E+10	1	-1E+10	1	-1E+10	1	-1E+10	1
4901784	68	C	05/15/2017	10:40	-132.283	43.672	0	1184.30	0	3.2480	0	34.5710	4	27.528	0	1171.494	0	26.5	4	8.2	4	-1E+10	1	-1E+10	1	-1E+10	1	-1E+10	1	-1E+10	1	-1E+10	1
4901784	68	C	05/15/2017	10:40	-132.283	43.672	0	1189.60	0	3.2460	0	34.5710	4	27.528	0	1176.722	0	26.6	4	8.3	4	-1E+10	1	-1E+10	1	-1E+10	1	-1E+10	1	-1E+10	1	-1E+10	1
4901784	68	C	05/15/2017	10:40	-132.283	43.672	0	1194.90	0	3.2390	0	34.5720	4	27.529	0	1181.950	0	26.7	4	8.3	4	-1E+10	1	-1E+10	1	-1E+10	1	-1E+10	1	-1E+10	1	-1E+10	1
4901784	68	C	05/15/2017	10:40	-132.283	43.672	0	1200.10	0	3.2310	0	34.5730	4	27.531	0	1187.079	0	26.8	4	8.3	4	-1E+10	1	-1E+10	1	-1E+10	1	-1E+10	1	-1E+10	1	-1E+10	1
4901784	68	C	05/15/2017	10:40	-132.283	43.672	0	1205.40	0	3.2230	0	34.5740	4	27.532	0	1192.306	0	26.9	4	8.4	4	-1E+10	1	-1E+10	1	-1E+10	1	-1E+10	1	-1E+10	1	-1E+10	1
4901784	68	C	05/15/2017	10:40	-132.283	43.672	0	1209.90	0	3.2190	0	34.5740	4	27.533	0	1196.745	0	27.0	4	8.4	4	-1E+10	1	-1E+10	1	-1E+10	1	-1E+10	1	-1E+10	1	-1E+10	1
4901784	68	C	05/15/2017	10:40	-132.283	43.672	0	1214.40	0	3.2070	0	34.5750	4	27.535	0	1201.183	0	27.1	4	8.4	4	-1E+10	1	-1E+10	1	-1E+10	1	-1E+10	1	-1E+10	1	-1E+10	1
4901784	68	C	05/15/2017	10:40	-132.283	43.672	0	1219.90	0	3.1950	0	34.5760	4	27.537	0	1206.607	0	27.1	4	8.4	4	-1E+10	1	-1E+10	1	-1E+10	1	-1E+10	1	-1E+10	1	-1E+10	1
4901784	68	C	05/15/2017	10:40	-132.283	43.672	0	1225.30	0	3.1920	0	34.5760	4	27.537	0	1211.933	0	27.2	4	8.4	4	-1E+10	1	-1E+10	1	-1E+10	1	-1E+10	1	-1E+10	1	-1E+10	1
4901784	68	C	05/15/2017	10:40	-132.283	43.672	0	1229.90	0	3.1840	0	34.5760	4	27.538	0	1216.469	0	27.2	4	8.4	4	-1E+10	1	-1E+10	1	-1E+10	1	-1E+10	1	-1E+10	1	-1E+10	1
4901784	68	C	05/15/2017	10:40	-132.283	43.672	0	1234.50	0	3.1790	0	34.5770	4	27.539	0	1221.006	0	27.2	4	8.5	4	-1E+10	1	-1E+10	1	-1E+10	1	-1E+10	1	-1E+10	1	-1E+10	1
4901784	68	C	05/15/2017	10:40	-132.283	43.672	0	1239.90	0	3.1680	0	34.5770	4	27.540	0	1226.331	0	27.3	4	8.5	4	-1E+10	1	-1E+10	1	-1E+10	1	-1E+10	1	-1E+10	1	-1E+10	1
4901784	68	C	05/15/2017	10:40	-132.283	43.672	0	1245.00	0	3.1580	0	34.5770	4	27.541	0	1231.360	0	27.3	4	8.5	4	-1E+10	1	-1E+10	1	-1E+10	1	-1E+10	1	-1E+10	1	-1E+10	1
4901784	68	C	05/15/2017	10:40	-132.283	43.672	0	1249.90	0	3.1560	0	34.5780	4	27.542	0	1236.192	0	27.3	4	8.5	4	-1E+10	1	-1E+10	1	-1E+10	1	-1E+10	1	-1E+10	1	-1E+10	1
4901784	68	C	05/15/2017	10:40	-132.283	43.672	0	1254.90	0	3.1520	0	34.5780	4	27.543	0	1241.123	0	27.3	4	8.5	4	-1E+10	1	-1E+10	1	-1E+10	1	-1E+10	1	-1E+10	1	-1E+10	1
4901784	68	C	05/15/2017	10:40	-132.283	43.672	0	1260.00	0	3.1420	0	34.5780	4	27.543	0	1246.151	0	27.4	4	8.5	4	-1E+10	1	-1E+10	1	-1E+10	1	-1E+10	1	-1E+10	1	-1E+10	1
4901784	68	C	05/15/2017	10:40	-132.283	43.672	0	1265.00	0	3.1300	0	34.5790	4	27.545	0	1251.082	0	27.4	4	8.5	4	-1E+10	1	-1E+10	1	-1E+10	1	-1E+10	1	-1E+10	1	-1E+10	1
4901784	68	C	05/15/2017	10:40	-132.283	43.672	0	1270.00	0	3.1240	0	34.5790	4	27.546	0	1256.012	0	27.4	4	8.5	4	-1E+10	1	-1E+10	1	-1E+10	1	-1E+10	1	-1E+10	1	-1E+10	1
4901784	68	C	05/15/2017	10:40	-132.283	43.672	0	1275.10	0	3.1210	0	34.5790	4	27.546	0	1261.040	0	27.4	4	8.5	4	-1E+10	1	-1E+10	1	-1E+10	1	-1E+10	1	-1E+10	1	-1E+10	1
4901784	68	C	05/15/2017	10:40	-132.283	43.672	0	1280.30	0	3.1130	0	34.5790	4	27.547	0	1266.167	0	27.4	4	8.5	4	-1E+10	1	-1E+10	1	-1E+10	1	-1E+10	1	-1E+10	1	-1E+10	1
4901784	68	C	05/15/2017	10:40	-132.283	43.672	0	1285.50	0	3.1040	0	34.5790	4	27.548	0	1271.294	0	27.4	4	8.5	4	-1E+10	1	-1E+10	1	-1E+10	1	-1E+10	1	-1E+10	1	-1E+10	1
4901784	68	C	05/15/2017	10:40	-132.283	43.672	0	1290.70	0	3.0920	0	34.5790	4	27.549	0	1276.421	0	27.3	4	8.5	4	-1E+10	1	-1E+10	1	-1E+10	1	-1E+10	1	-1E+10	1	-1E+10	1
4901784	68	C	05/15/2017	10:40	-132.283	43.672	0	1295.10	0	3.0780	0	34.5790	4	27.550	0	1280.759	0	27.3	4	8.5	4	-1E+10	1	-1E+10	1	-1E+10	1	-1E+10	1	-1E+10	1	-1E+10	1
4901784	68	C	05/15/2017	10:40	-132.283	43.672	0	1299.50	0	3.0650	0	34.5790	4	27.552	0	1285.097	0	27.3	4	8.4	4	-1E+10	1	-1E+10	1	-1E+10	1	-1E+10	1	-1E+10	1	-1E+10	1
4901784	68	C	05/15/2017	10:40	-132.283	43.672	0	1304.80	0	3.0520	0	34.5780	4	27.552	0	1290.322	0	27.2	4	8.4	4	-1E+10	1	-1E+10	1	-1E+10	1	-1E+10	1	-1E+10	1	-1E+10	1
4901784	68	C	05/15/2017	10:40	-132.283	43.672	0	1310.20	0	3.0360	0	34.5790	4	27.554	0	1295.645	0	27.2	4	8.4	4	-1E+10	1	-1E+10	1	-1E+10	1	-1E+10	1	-1E+10	1	-1E+10	1
4901784	68	C	05/15/2017	10:40	-132.283	43.672	0	1315.50	0	3.0110	0	34.5790	4	27.557	0	1300.870	0	27.1	4	8.4	4	-1E+10	1	-1E+10	1	-1E+10	1	-1E+10	1	-1E+10	1	-1E+10	1
4901784	68	C	05/15/2017	10:40	-132.283	43.672	0	1320.00	0	3.0020	0	34.5800	4	27.558	0	1305.306	0	27.1	4	8.4	4	-1E+10	1	-1E+10	1	-1E+10	1	-1E+10	1	-1E+10	1	-1E+10	1
4901784	68	C	05/15/2017	10:40	-132.283	43.672	0	1324.50	0	3.0000	0	34.5800	4	27.558	0	1309.742	0	27.1	4	8.4	4	-1E+10	1	-1E+10	1	-1E+10	1	-1E+10	1	-1E+10	1	-1E+10	1
4901784	68	C	05/15/2017	10:40	-132.283	43.672	0	1329.90	0	2.9980	0	34.5790	4	27.558	0	1315.065	0	27.1	4	8.4	4	-1E+10	1	-1E+10	1	-1E+10	1	-1E+10	1	-1E+10	1	-1E+10	1
4901784	68	C	05/15/2017	10:40	-132.283	43.672	0	1335.20	0	2.9960	0	34.5780	4	27.557	0	1320.289	0	27.0	4	8.4	4	-1E+10	1	-1E+10	1	-1E+10	1	-1E+10	1	-1E+10	1	-1E+10	1
4901784	68	C	05/15/2017	10:40	-132.283	43.672	0	1340.50	0	2.9720	0	34.5790	4	27.560	0	1325.513	0	27.0	4	8.3	4	-1E+10	1	-1E+10	1	-1E+10	1	-1E+10	1	-1E+10	1	-1E+10	1
4901784	68	C	05/15/2017	10:40	-132.283	43.672	0	1345.00	0	2.9640	0	34.5790	4	27.561	0	1329.949	0	27.0	4	8.3	4	-1E+10	1	-1E+10	1	-1E+10	1	-1E+10	1	-1E+10	1	-1E+10	1
4901784	68	C	05/15/2017	10:40	-132.283	43.672	0	1349.60	0	2.9590	0	34.5790	4	27.561	0	1334.483	0	27.0	4	8.3	4	-1E+10	1	-1E+10	1	-1E+10	1	-1E+10	1	-1E+10	1	-1E+10	1
4901784	68	C	05/15/2017	10:40	-132.283	43.672	0	1354.90	0	2.9530	0	34.5790	4	27.562	0	1339.707	0	27.0	4	8.3	4	-1E+10	1	-1E+10	1	-1E+10	1	-1E+10	1	-1E+10	1	-1E+10	1
4901784	68	C	05/15/2017	10:40	-132.283	43.672	0	1360.40	0	2.9480	0	34.5790	4	27.562	0	1345.128	0	26.9	4	8.3	4	-1E+10	1	-1E+10	1	-1E+10	1	-1E+10	1	-1E+10	1	-1E+10	1
4901784	68	C	05/15/2017	10:40	-132.283	43.672	0	1364.90	0	2.9320	0	34.5790	4	27.564	0	1349.563	0	26.9	4	8.3	4	-1E+10	1	-1E+10	1	-1E+10	1	-1E+10	1	-1E+10	1	-1E+10	1
4901784	68	C	05/15/2017	10:40	-132.283	43.672	0	1369.40	0	2.9210	0	34.5790	4	27.565	0	1353.998	0	26.9	4	8.3	4	-1E+10	1	-1E+10	1	-1E+10	1	-1E+10	1	-1E+10	1	-1E+10	1
4901784	68	C	05/15/2017	10:40	-132.283	43.672	0	1374.80	0	2.9150	0	34.5790	4	27.566	0	1359.320	0	26.9	4	8.3	4	-1E+10	1	-1E+10	1	-1E+10	1	-1E+10	1	-1E+10	1	-1E+10	1
4901784	68	C	05/15/2017	10:40	-132.283	43.672	0	1380.30	0	2.9140	0	34.5790	4	27.566	0	1364.740	0	26.9	4	8.3	4	-1E+10	1	-1E+10	1	-1E+10	1	-1E+10	1	-1E+10	1	-1E+10	1
4901784	68	C	05/15/2017	10:40	-132.283	43.672	0	1385.60	0	2.9120	0	34.5790	4	27.566	0	1369.963	0	26.9	4	8.3	4	-1E+10	1	-1E+10	1	-1E+10	1	-1E+10	1	-1E+10	1	-1E+10	1
4901784	68	C	05/15/2017	10:40	-132.283	43.672	0	1390.10	0	2.9010	0	34.5790	4	27.567	0	1374.397	0	26.8	4	8.3	4	-1E+10	1	-1E+10	1	-1E+10	1	-1E+10	1	-1E+10	1	-1E+10	1
4901784	68	C	05/15/2017	10:40	-132.283	43.672	0	1394.60	0	2.8920	0	34.5790	4	27.568	0	1378.832	0	26.8	4	8.3	4	-1E+10	1	-1E+10	1	-1E+10	1	-1E+10	1	-1E+10	1	-1E+10	1
4901784	68	C	05/15/2017	10:40	-132.283	43.672	0	1400.00	0	2.8900	0	34.5790	4	27.568	0	1384.153	0	26.8	4	8.3	4	-1E+10	1	-1E+10	1	-1E+10	1	-1E+10	1	-1E+10	1	-1E+10	1
4901784	68	C	05/15/2017	10:40	-132.283	43.672	0	1405.50	0	2.8870	0	34.5790	4	27.568	0	1389.573	0	26.8	4	8.3	4	-1E+10	1	-1E+10	1	-1E+10	1	-1E+10	1	-1E+10	1	-1E+10	1
4901784	68	C	05/15/2017	10:40	-132.283	43.672	0	1410.10	0	2.8860	0	34.5790	4	27.568	0	1394.105	0	26.8	4	8.3	4	-1E+10	1	-1E+10	1	-1E+10	1	-1E+10	1	-1E+10	1	-1E+10	1
4901784	68	C	05/15/2017	10:40	-132.283	43.672	0	1414.70	0	2.8860	0	34.5780	4	27.568	0	1398.638	0	26.8	4	8.3	4	-1E+10	1	-1E+10	1	-1E+10	1	-1E+10	1	-1E+10	1	-1E+10	1
4901784	68	C	05/15/2017	10:40	-132.283	43.672	0	1420.20	0	2.8710	0	34.5790	4	27.570	0	1404.057	0	26.7	4	8.2	4	-1E+10	1	-1E+10	1	-1E+10	1	-1E+10	1	-1E+10	1	-1E+10	1
4901784	68	C	05/15/2017	10:40	-132.283	43.672	0	1424.80	0	2.8630	0	34.5780	4	27.570	0	1408.590	0	26.7	4	8.2	4	-1E+10	1	-1E+10	1	-1E+10	1	-1E+10	1	-1E+10	1	-1E+10	1
4901784	68	C	05/15/2017	10:40	-132.283	43.672	0	1429.50	0	2.8560	0	34.5780	4	27.570	0	1413.220	0	26.7	4	8.2	4	-1E+10	1	-1E+10	1	-1E+10	1	-1E+10	1	-1E+10	1	-1E+10	1
4901784	68	C	05/15/2017	10:40	-132.283	43.672	0	1435.20	0	2.8420	0	34.5790	4	27.572	0	1418.836	0	26.7	4	8.2	4	-1E+10	1	-1E+10	1	-1E+10	1	-1E+10	1	-1E+10	1	-1E+10	1
4901784	68	C	05/15/2017	10:40	-132.283	43.672	0	1439.80	0	2.8350	0	34.5780	4	27.572	0	1423.369	0	26.7	4	8.2	4	-1E+10	1	-1E+10	1	-1E+10	1	-1E+10	1	-1E+10	1	-1E+10	1
4901784	68	C	05/15/2017	10:40	-132.283	43.672	0	1444.80	0	2.8260	0	34.5790	4	27.574	0	1428.295	0	26.7	4	8.2	4	-1E+10	1	-1E+10	1	-1E+10	1	-1E+10	1	-1E+10	1	-1E+10	1
4901784	68	C	05/15/2017	10:40	-132.283	43.672	0	1449.90	0	2.8190	0	34.5780	4	27.574	0	1433.319	0	26.7	4	8.2	4	-1E+10	1	-1E+10	1	-1E+10	1	-1E+10	1	-1E+10	1	-1E+10	1
4901784	68	C	05/15/2017	10:40	-132.283	43.672	0	1454.70	0	2.8080	0	34.5780	4	27.575	0	1438.048	0	26.7	4	8.2	4	-1E+10	1	-1E+10	1	-1E+10	1	-1E+10	1	-1E+10	1	-1E+10	1
4901784	68	C	05/15/2017	10:40	-132.283	43.672	0	1459.60	0	2.7840	0	34.5790	4	27.578	0	1442.875	0	26.7	4	8.2	4	-1E+10	1	-1E+10	1	-1E+10	1	-1E+10	1	-1E+10	1	-1E+10	1
4901784	68	C	05/15/2017	10:40	-132.283	43.672	0	1464.50	0	2.7800	0	34.5790	4	27.578	0	1447.702	0	26.7	4	8.2	4	-1E+10	1	-1E+10	1	-1E+10	1	-1E+10	1	-1E+10	1	-1E+10	1
4901784	68	C	05/15/2017	10:40	-132.283	43.672	0	1469.30	0	2.7740	0	34.5790	4	27.579	0	1452.430	0	26.7	4	8.2	4	-1E+10	1	-1E+10	1	-1E+10	1	-1E+10	1	-1E+10	1	-1E+10	1
4901784	68	C	05/15/2017	10:40	-132.283	43.672	0	1474.30	0	2.7650	0	34.5780	4	27.579	0	1457.356	0	26.7	4	8.2	4	-1E+10	1	-1E+10	1	-1E+10	1	-1E+10	1	-1E+10	1	-1E+10	1
4901784	68	C	05/15/2017	10:40	-132.283	43.672	0	1479.20	0	2.7400	0	34.5790	4	27.582	0	1462.182	0	26.7	4	8.2	4	-1E+10	1	-1E+10	1	-1E+10	1	-1E+10	1	-1E+10	1	-1E+10	1
4901784	68	C	05/15/2017	10:40	-132.283	43.672	0	1485.00	0	2.7300	0	34.5790	4	27.582	0	1467.896	0	26.7	4	8.2	4	-1E+10	1	-1E+10	1	-1E+10	1	-1E+10	1	-1E+10	1	-1E+10	1
4901784	68	C	05/15/2017	10:40	-132.283	43.672	0	1490.00	0	2.7130	0	34.5790	4	27.584	0	1472.821	0	26.8	4	8.2	4	-1E+10	1	-1E+10	1	-1E+10	1	-1E+10	1	-1E+10	1	-1E+10	1
4901784	68	C	05/15/2017	10:40	-132.283	43.672	0	1494.20	0	2.7000	0	34.5790	4	27.585	0	1476.957	0	26.8	4	8.2	4	-1E+10	1	-1E+10	1	-1E+10	1	-1E+10	1	-1E+10	1	-1E+10	1
4901784	68	C	05/15/2017	10:40	-132.283	43.672	0	1499.20	0	2.6830	0	34.5790	4	27.587	0	1481.882	0	26.9	4	8.3	4	-1E+10	1	-1E+10	1	-1E+10	1	-1E+10	1	-1E+10	1	-1E+10	1
4901784	68	C	05/15/2017	10:40	-132.283	43.672	0	1504.30	0	2.6700	0	34.5800	4	27.588	0	1486.906	0	27.0	4	8.3	4	-1E+10	1	-1E+10	1	-1E+10	1	-1E+10	1	-1E+10	1	-1E+10	1
4901784	68	C	05/15/2017	10:40	-132.283	43.672	0	1509.40	0	2.6600	0	34.5800	4	27.589	0	1491.929	0	27.1	4	8.3	4	-1E+10	1	-1E+10	1	-1E+10	1	-1E+10	1	-1E+10	1	-1E+10	1
4901784	68	C	05/15/2017	10:40	-132.283	43.672	0	1514.50	0	2.6380	0	34.5800	4	27.591	0	1496.951	0	27.3	4	8.4	4	-1E+10	1	-1E+10	1	-1E+10	1	-1E+10	1	-1E+10	1	-1E+10	1
4901784	68	C	05/15/2017	10:40	-132.283	43.672	0	1519.70	0	2.6060	0	34.5810	4	27.595	0	1502.073	0	27.6	4	8.4	4	-1E+10	1	-1E+10	1	-1E+10	1	-1E+10	1	-1E+10	1	-1E+10	1
4901784	68	C	05/15/2017	10:40	-132.283	43.672	0	1524.80	0	2.5790	0	34.5830	4	27.599	0	1507.095	0	27.8	4	8.5	4	-1E+10	1	-1E+10	1	-1E+10	1	-1E+10	1	-1E+10	1	-1E+10	1
4901784	68	C	05/15/2017	10:40	-132.283	43.672	0	1529.90	0	2.5670	0	34.5840	4	27.601	0	1512.118	0	27.9	4	8.5	4	-1E+10	1	-1E+10	1	-1E+10	1	-1E+10	1	-1E+10	1	-1E+10	1
4901784	68	C	05/15/2017	10:40	-132.283	43.672	0	1535.00	0	2.5610	0	34.5840	4	27.601	0	1517.140	0	28.1	4	8.6	4	-1E+10	1	-1E+10	1	-1E+10	1	-1E+10	1	-1E+10	1	-1E+10	1
4901784	68	C	05/15/2017	10:40	-132.283	43.672	0	1540.20	0	2.5510	0	34.5830	4	27.601	0	1522.261	0	28.3	4	8.6	4	-1E+10	1	-1E+10	1	-1E+10	1	-1E+10	1	-1E+10	1	-1E+10	1
4901784	68	C	05/15/2017	10:40	-132.283	43.672	0	1545.40	0	2.5240	0	34.5860	4	27.606	0	1527.382	0	28.5	4	8.7	4	-1E+10	1	-1E+10	1	-1E+10	1	-1E+10	1	-1E+10	1	-1E+10	1
4901784	68	C	05/15/2017	10:40	-132.283	43.672	0	1550.60	0	2.5190	0	34.5860	4	27.606	0	1532.502	0	28.7	4	8.8	4	-1E+10	1	-1E+10	1	-1E+10	1	-1E+10	1	-1E+10	1	-1E+10	1
4901784	68	C	05/15/2017	10:40	-132.283	43.672	0	1554.90	0	2.5090	0	34.5870	4	27.608	0	1536.737	0	28.9	4	8.8	4	-1E+10	1	-1E+10	1	-1E+10	1	-1E+10	1	-1E+10	1	-1E+10	1
4901784	68	C	05/15/2017	10:40	-132.283	43.672	0	1559.20	0	2.4960	0	34.5870	4	27.609	0	1540.971	0	29.0	4	8.9	4	-1E+10	1	-1E+10	1	-1E+10	1	-1E+10	1	-1E+10	1	-1E+10	1
4901784	68	C	05/15/2017	10:40	-132.283	43.672	0	1564.40	0	2.4860	0	34.5880	4	27.611	0	1546.091	0	29.3	4	8.9	4	-1E+10	1	-1E+10	1	-1E+10	1	-1E+10	1	-1E+10	1	-1E+10	1
4901784	68	C	05/15/2017	10:40	-132.283	43.672	0	1569.70	0	2.4790	0	34.5890	4	27.612	0	1551.309	0	29.5	4	9.0	4	-1E+10	1	-1E+10	1	-1E+10	1	-1E+10	1	-1E+10	1	-1E+10	1
4901784	68	C	05/15/2017	10:40	-132.283	43.672	0	1575.00	0	2.4660	0	34.5890	4	27.613	0	1556.528	0	29.9	4	9.1	4	-1E+10	1	-1E+10	1	-1E+10	1	-1E+10	1	-1E+10	1	-1E+10	1
4901784	68	C	05/15/2017	10:40	-132.283	43.672	0	1580.40	0	2.4490	0	34.5910	4	27.616	0	1561.845	0	30.3	4	9.3	4	-1E+10	1	-1E+10	1	-1E+10	1	-1E+10	1	-1E+10	1	-1E+10	1
4901784	68	C	05/15/2017	10:40	-132.283	43.672	0	1584.90	0	2.4310	0	34.5930	4	27.619	0	1566.275	0	30.7	4	9.4	4	-1E+10	1	-1E+10	1	-1E+10	1	-1E+10	1	-1E+10	1	-1E+10	1
4901784	68	C	05/15/2017	10:40	-132.283	43.672	0	1589.40	0	2.4250	0	34.5930	4	27.620	0	1570.706	0	30.9	4	9.4	4	-1E+10	1	-1E+10	1	-1E+10	1	-1E+10	1	-1E+10	1	-1E+10	1
4901784	68	C	05/15/2017	10:40	-132.283	43.672	0	1594.80	0	2.4170	0	34.5940	4	27.621	0	1576.022	0	31.2	4	9.5	4	-1E+10	1	-1E+10	1	-1E+10	1	-1E+10	1	-1E+10	1	-1E+10	1
4901784	68	C	05/15/2017	10:40	-132.283	43.672	0	1600.30	0	2.4040	0	34.5960	4	27.624	0	1581.437	0	31.5	4	9.6	4	-1E+10	1	-1E+10	1	-1E+10	1	-1E+10	1	-1E+10	1	-1E+10	1
4901784	68	C	05/15/2017	10:40	-132.283	43.672	0	1604.90	0	2.4030	0	34.5960	4	27.624	0	1585.965	0	31.7	4	9.7	4	-1E+10	1	-1E+10	1	-1E+10	1	-1E+10	1	-1E+10	1	-1E+10	1
4901784	68	C	05/15/2017	10:40	-132.283	43.672	0	1609.50	0	2.3980	0	34.5960	4	27.625	0	1590.494	0	32.1	4	9.8	4	-1E+10	1	-1E+10	1	-1E+10	1	-1E+10	1	-1E+10	1	-1E+10	1
4901784	68	C	05/15/2017	10:40	-132.283	43.672	0	1615.10	0	2.3760	0	34.5980	4	27.628	0	1596.006	0	33.0	4	10.0	4	-1E+10	1	-1E+10	1	-1E+10	1	-1E+10	1	-1E+10	1	-1E+10	1
4901784	68	C	05/15/2017	10:40	-132.283	43.672	0	1620.20	0	2.3540	0	34.6010	4	27.632	0	1601.027	0	33.6	4	10.2	4	-1E+10	1	-1E+10	1	-1E+10	1	-1E+10	1	-1E+10	1	-1E+10	1
4901784	68	C	05/15/2017	10:40	-132.283	43.672	0	1624.40	0	2.3380	0	34.6030	4	27.635	0	1605.161	0	34.2	4	10.4	4	-1E+10	1	-1E+10	1	-1E+10	1	-1E+10	1	-1E+10	1	-1E+10	1
4901784	68	C	05/15/2017	10:40	-132.283	43.672	0	1630.00	0	2.3160	0	34.6060	4	27.640	0	1610.674	0	34.9	4	10.6	4	-1E+10	1	-1E+10	1	-1E+10	1	-1E+10	1	-1E+10	1	-1E+10	1
4901784	68	C	05/15/2017	10:40	-132.283	43.672	0	1635.80	0	2.3080	0	34.6070	4	27.641	0	1616.383	0	35.4	4	10.8	4	-1E+10	1	-1E+10	1	-1E+10	1	-1E+10	1	-1E+10	1	-1E+10	1
4901784	68	C	05/15/2017	10:40	-132.283	43.672	0	1640.70	0	2.2970	0	34.6080	4	27.643	0	1621.206	0	36.2	4	11.0	4	-1E+10	1	-1E+10	1	-1E+10	1	-1E+10	1	-1E+10	1	-1E+10	1
4901784	68	C	05/15/2017	10:40	-132.283	43.672	0	1645.70	0	2.2670	0	34.6130	4	27.649	0	1626.127	0	37.1	4	11.3	4	-1E+10	1	-1E+10	1	-1E+10	1	-1E+10	1	-1E+10	1	-1E+10	1
4901784	68	C	05/15/2017	10:40	-132.283	43.672	0	1650.70	0	2.2570	0	34.6140	4	27.651	0	1631.049	0	37.5	4	11.4	4	-1E+10	1	-1E+10	1	-1E+10	1	-1E+10	1	-1E+10	1	-1E+10	1
4901784	68	C	05/15/2017	10:40	-132.283	43.672	0	1654.90	0	2.2490	0	34.6150	4	27.652	0	1635.182	0	37.9	4	11.5	4	-1E+10	1	-1E+10	1	-1E+10	1	-1E+10	1	-1E+10	1	-1E+10	1
4901784	68	C	05/15/2017	10:40	-132.283	43.672	0	1659.20	0	2.2430	0	34.6160	4	27.654	0	1639.415	0	38.3	4	11.6	4	-1E+10	1	-1E+10	1	-1E+10	1	-1E+10	1	-1E+10	1	-1E+10	1
4901784	68	C	05/15/2017	10:40	-132.283	43.672	0	1664.30	0	2.2270	0	34.6180	4	27.656	0	1644.434	0	38.9	4	11.8	4	-1E+10	1	-1E+10	1	-1E+10	1	-1E+10	1	-1E+10	1	-1E+10	1
4901784	68	C	05/15/2017	10:40	-132.283	43.672	0	1669.40	0	2.2230	0	34.6190	4	27.658	0	1649.453	0	39.2	4	11.9	4	-1E+10	1	-1E+10	1	-1E+10	1	-1E+10	1	-1E+10	1	-1E+10	1
4901784	68	C	05/15/2017	10:40	-132.283	43.672	0	1674.50	0	2.2140	0	34.6200	4	27.659	0	1654.472	0	39.7	4	12.0	4	-1E+10	1	-1E+10	1	-1E+10	1	-1E+10	1	-1E+10	1	-1E+10	1
4901784	68	C	05/15/2017	10:40	-132.283	43.672	0	1679.60	0	2.2060	0	34.6210	4	27.661	0	1659.492	0	40.1	4	12.1	4	-1E+10	1	-1E+10	1	-1E+10	1	-1E+10	1	-1E+10	1	-1E+10	1
4901784	68	C	05/15/2017	10:40	-132.283	43.672	0	1684.80	0	2.1990	0	34.6230	4	27.663	0	1664.609	0	40.4	4	12.3	4	-1E+10	1	-1E+10	1	-1E+10	1	-1E+10	1	-1E+10	1	-1E+10	1
4901784	68	C	05/15/2017	10:40	-132.283	43.672	0	1690.00	0	2.1910	0	34.6240	4	27.664	0	1669.726	0	40.9	4	12.4	4	-1E+10	1	-1E+10	1	-1E+10	1	-1E+10	1	-1E+10	1	-1E+10	1
4901784	68	C	05/15/2017	10:40	-132.283	43.672	0	1695.20	0	2.1840	0	34.6250	4	27.666	0	1674.843	0	41.3	4	12.5	4	-1E+10	1	-1E+10	1	-1E+10	1	-1E+10	1	-1E+10	1	-1E+10	1
4901784	68	C	05/15/2017	10:40	-132.283	43.672	0	1700.50	0	2.1760	0	34.6260	4	27.667	0	1680.059	0	41.7	4	12.6	4	-1E+10	1	-1E+10	1	-1E+10	1	-1E+10	1	-1E+10	1	-1E+10	1
4901784	68	C	05/15/2017	10:40	-132.283	43.672	0	1705.70	0	2.1710	0	34.6270	4	27.668	0	1685.175	0	41.9	4	12.7	4	-1E+10	1	-1E+10	1	-1E+10	1	-1E+10	1	-1E+10	1	-1E+10	1
4901784	68	C	05/15/2017	10:40	-132.283	43.672	0	1710.00	0	2.1690	0	34.6270	4	27.669	0	1689.407	0	42.1	4	12.8	4	-1E+10	1	-1E+10	1	-1E+10	1	-1E+10	1	-1E+10	1	-1E+10	1
4901784	68	C	05/15/2017	10:40	-132.283	43.672	0	1714.40	0	2.1650	0	34.6280	4	27.670	0	1693.736	0	42.4	4	12.9	4	-1E+10	1	-1E+10	1	-1E+10	1	-1E+10	1	-1E+10	1	-1E+10	1
4901784	68	C	05/15/2017	10:40	-132.283	43.672	0	1719.70	0	2.1570	0	34.6290	4	27.671	0	1698.951	0	42.7	4	12.9	4	-1E+10	1	-1E+10	1	-1E+10	1	-1E+10	1	-1E+10	1	-1E+10	1
4901784	68	C	05/15/2017	10:40	-132.283	43.672	0	1725.10	0	2.1540	0	34.6290	4	27.671	0	1704.264	0	43.0	4	13.0	4	-1E+10	1	-1E+10	1	-1E+10	1	-1E+10	1	-1E+10	1	-1E+10	1
4901784	68	C	05/15/2017	10:40	-132.283	43.672	0	1730.50	0	2.1500	0	34.6300	4	27.673	0	1709.577	0	43.3	4	13.1	4	-1E+10	1	-1E+10	1	-1E+10	1	-1E+10	1	-1E+10	1	-1E+10	1
4901784	68	C	05/15/2017	10:40	-132.283	43.672	0	1735.10	0	2.1460	0	34.6300	4	27.673	0	1714.103	0	43.6	4	13.2	4	-1E+10	1	-1E+10	1	-1E+10	1	-1E+10	1	-1E+10	1	-1E+10	1
4901784	68	C	05/15/2017	10:40	-132.283	43.672	0	1739.60	0	2.1390	0	34.6320	4	27.675	0	1718.530	0	43.8	4	13.3	4	-1E+10	1	-1E+10	1	-1E+10	1	-1E+10	1	-1E+10	1	-1E+10	1
4901784	68	C	05/15/2017	10:40	-132.283	43.672	0	1745.20	0	2.1370	0	34.6320	4	27.675	0	1724.040	0	43.9	4	13.3	4	-1E+10	1	-1E+10	1	-1E+10	1	-1E+10	1	-1E+10	1	-1E+10	1
4901784	68	C	05/15/2017	10:40	-132.283	43.672	0	1750.60	0	2.1350	0	34.6330	4	27.676	0	1729.352	0	44.1	4	13.4	4	-1E+10	1	-1E+10	1	-1E+10	1	-1E+10	1	-1E+10	1	-1E+10	1
4901784	68	C	05/15/2017	10:40	-132.283	43.672	0	1755.20	0	2.1320	0	34.6330	4	27.677	0	1733.878	0	44.4	4	13.4	4	-1E+10	1	-1E+10	1	-1E+10	1	-1E+10	1	-1E+10	1	-1E+10	1
4901784	68	C	05/15/2017	10:40	-132.283	43.672	0	1759.80	0	2.1280	0	34.6340	4	27.678	0	1738.403	0	44.6	4	13.5	4	-1E+10	1	-1E+10	1	-1E+10	1	-1E+10	1	-1E+10	1	-1E+10	1
4901784	68	C	05/15/2017	10:40	-132.283	43.672	0	1765.40	0	2.1250	0	34.6340	4	27.678	0	1743.912	0	44.8	4	13.6	4	-1E+10	1	-1E+10	1	-1E+10	1	-1E+10	1	-1E+10	1	-1E+10	1
4901784	68	C	05/15/2017	10:40	-132.283	43.672	0	1769.50	0	2.1230	0	34.6340	4	27.678	0	1747.945	0	45.1	4	13.6	4	-1E+10	1	-1E+10	1	-1E+10	1	-1E+10	1	-1E+10	1	-1E+10	1
4901784	68	C	05/15/2017	10:40	-132.283	43.672	0	1774.50	0	2.1180	0	34.6350	4	27.679	0	1752.864	0	45.4	4	13.7	4	-1E+10	1	-1E+10	1	-1E+10	1	-1E+10	1	-1E+10	1	-1E+10	1
4901784	68	C	05/15/2017	10:40	-132.283	43.672	0	1779.40	0	2.1130	0	34.6360	4	27.681	0	1757.684	0	45.8	4	13.9	4	-1E+10	1	-1E+10	1	-1E+10	1	-1E+10	1	-1E+10	1	-1E+10	1
4901784	68	C	05/15/2017	10:40	-132.283	43.672	0	1784.30	0	2.1050	0	34.6370	4	27.682	0	1762.503	0	46.3	4	14.0	4	-1E+10	1	-1E+10	1	-1E+10	1	-1E+10	1	-1E+10	1	-1E+10	1
4901784	68	C	05/15/2017	10:40	-132.283	43.672	0	1789.20	0	2.0990	0	34.6380	4	27.683	0	1767.323	0	46.6	4	14.1	4	-1E+10	1	-1E+10	1	-1E+10	1	-1E+10	1	-1E+10	1	-1E+10	1
4901784	68	C	05/15/2017	10:40	-132.283	43.672	0	1794.20	0	2.0960	0	34.6390	4	27.684	0	1772.241	0	46.8	4	14.1	4	-1E+10	1	-1E+10	1	-1E+10	1	-1E+10	1	-1E+10	1	-1E+10	1
4901784	68	C	05/15/2017	10:40	-132.283	43.672	0	1799.20	0	2.0930	0	34.6390	4	27.685	0	1777.159	0	47.0	4	14.2	4	-1E+10	1	-1E+10	1	-1E+10	1	-1E+10	1	-1E+10	1	-1E+10	1
4901784	68	C	05/15/2017	10:40	-132.283	43.672	0	1804.30	0	2.0900	0	34.6400	4	27.686	0	1782.175	0	47.2	4	14.3	4	-1E+10	1	-1E+10	1	-1E+10	1	-1E+10	1	-1E+10	1	-1E+10	1
4901784	68	C	05/15/2017	10:40	-132.283	43.672	0	1809.40	0	2.0870	0	34.6400	4	27.686	0	1787.191	0	47.5	4	14.3	4	-1E+10	1	-1E+10	1	-1E+10	1	-1E+10	1	-1E+10	1	-1E+10	1
4901784	68	C	05/15/2017	10:40	-132.283	43.672	0	1814.50	0	2.0830	0	34.6410	4	27.687	0	1792.207	0	47.7	4	14.4	4	-1E+10	1	-1E+10	1	-1E+10	1	-1E+10	1	-1E+10	1	-1E+10	1
4901784	68	C	05/15/2017	10:40	-132.283	43.672	0	1819.60	0	2.0780	0	34.6410	4	27.688	0	1797.223	0	48.1	4	14.5	4	-1E+10	1	-1E+10	1	-1E+10	1	-1E+10	1	-1E+10	1	-1E+10	1
4901784	68	C	05/15/2017	10:40	-132.283	43.672	0	1824.70	0	2.0710	0	34.6430	4	27.690	0	1802.239	0	48.5	4	14.6	4	-1E+10	1	-1E+10	1	-1E+10	1	-1E+10	1	-1E+10	1	-1E+10	1
4901784	68	C	05/15/2017	10:40	-132.283	43.672	0	1829.90	0	2.0660	0	34.6430	4	27.690	0	1807.352	0	48.7	4	14.7	4	-1E+10	1	-1E+10	1	-1E+10	1	-1E+10	1	-1E+10	1	-1E+10	1
4901784	68	C	05/15/2017	10:40	-132.283	43.672	0	1835.00	0	2.0620	0	34.6440	4	27.691	0	1812.368	0	48.9	4	14.8	4	-1E+10	1	-1E+10	1	-1E+10	1	-1E+10	1	-1E+10	1	-1E+10	1
4901784	68	C	05/15/2017	10:40	-132.283	43.672	0	1840.10	0	2.0600	0	34.6440	4	27.692	0	1817.383	0	49.2	4	14.9	4	-1E+10	1	-1E+10	1	-1E+10	1	-1E+10	1	-1E+10	1	-1E+10	1
4901784	68	C	05/15/2017	10:40	-132.283	43.672	0	1845.30	0	2.0550	0	34.6450	4	27.693	0	1822.497	0	49.6	4	15.0	4	-1E+10	1	-1E+10	1	-1E+10	1	-1E+10	1	-1E+10	1	-1E+10	1
4901784	68	C	05/15/2017	10:40	-132.283	43.672	0	1850.40	0	2.0490	0	34.6450	4	27.693	0	1827.512	0	49.9	4	15.1	4	-1E+10	1	-1E+10	1	-1E+10	1	-1E+10	1	-1E+10	1	-1E+10	1
4901784	68	C	05/15/2017	10:40	-132.283	43.672	0	1855.60	0	2.0430	0	34.6470	4	27.695	0	1832.625	0	50.3	4	15.2	4	-1E+10	1	-1E+10	1	-1E+10	1	-1E+10	1	-1E+10	1	-1E+10	1
4901784	68	C	05/15/2017	10:40	-132.283	43.672	0	1860.00	0	2.0380	0	34.6470	4	27.696	0	1836.952	0	50.6	4	15.3	4	-1E+10	1	-1E+10	1	-1E+10	1	-1E+10	1	-1E+10	1	-1E+10	1
4901784	68	C	05/15/2017	10:40	-132.283	43.672	0	1864.40	0	2.0370	0	34.6480	4	27.697	0	1841.278	0	50.8	4	15.3	4	-1E+10	1	-1E+10	1	-1E+10	1	-1E+10	1	-1E+10	1	-1E+10	1
4901784	68	C	05/15/2017	10:40	-132.283	43.672	0	1869.60	0	2.0290	0	34.6490	4	27.698	0	1846.391	0	51.2	4	15.5	4	-1E+10	1	-1E+10	1	-1E+10	1	-1E+10	1	-1E+10	1	-1E+10	1
4901784	68	C	05/15/2017	10:40	-132.283	43.672	0	1874.90	0	2.0260	0	34.6490	4	27.698	0	1851.602	0	51.4	4	15.5	4	-1E+10	1	-1E+10	1	-1E+10	1	-1E+10	1	-1E+10	1	-1E+10	1
4901784	68	C	05/15/2017	10:40	-132.283	43.672	0	1880.20	0	2.0220	0	34.6500	4	27.700	0	1856.813	0	51.8	4	15.6	4	-1E+10	1	-1E+10	1	-1E+10	1	-1E+10	1	-1E+10	1	-1E+10	1
4901784	68	C	05/15/2017	10:40	-132.283	43.672	0	1885.60	0	2.0160	0	34.6510	4	27.701	0	1862.122	0	52.1	4	15.7	4	-1E+10	1	-1E+10	1	-1E+10	1	-1E+10	1	-1E+10	1	-1E+10	1
4901784	68	C	05/15/2017	10:40	-132.283	43.672	0	1890.10	0	2.0130	0	34.6510	4	27.701	0	1866.547	0	52.3	4	15.8	4	-1E+10	1	-1E+10	1	-1E+10	1	-1E+10	1	-1E+10	1	-1E+10	1
4901784	68	C	05/15/2017	10:40	-132.283	43.672	0	1894.50	0	2.0090	0	34.6510	4	27.701	0	1870.872	0	52.6	4	15.9	4	-1E+10	1	-1E+10	1	-1E+10	1	-1E+10	1	-1E+10	1	-1E+10	1
4901784	68	C	05/15/2017	10:40	-132.283	43.672	0	1899.90	0	2.0050	0	34.6520	4	27.703	0	1876.181	0	52.9	4	16.0	4	-1E+10	1	-1E+10	1	-1E+10	1	-1E+10	1	-1E+10	1	-1E+10	1
4901784	68	C	05/15/2017	10:40	-132.283	43.672	0	1905.30	0	2.0010	0	34.6520	4	27.703	0	1881.490	0	53.3	4	16.1	4	-1E+10	1	-1E+10	1	-1E+10	1	-1E+10	1	-1E+10	1	-1E+10	1
4901784	68	C	05/15/2017	10:40	-132.283	43.672	0	1909.80	0	1.9970	0	34.6530	4	27.704	0	1885.914	0	53.6	4	16.2	4	-1E+10	1	-1E+10	1	-1E+10	1	-1E+10	1	-1E+10	1	-1E+10	1
4901784	68	C	05/15/2017	10:40	-132.283	43.672	0	1914.20	0	1.9920	0	34.6540	4	27.705	0	1890.239	0	53.9	4	16.2	4	-1E+10	1	-1E+10	1	-1E+10	1	-1E+10	1	-1E+10	1	-1E+10	1
4901784	68	C	05/15/2017	10:40	-132.283	43.672	0	1919.50	0	1.9880	0	34.6540	4	27.706	0	1895.449	0	54.3	4	16.4	4	-1E+10	1	-1E+10	1	-1E+10	1	-1E+10	1	-1E+10	1	-1E+10	1
4901784	68	C	05/15/2017	10:40	-132.283	43.672	0	1924.40	0	1.9820	0	34.6550	4	27.707	0	1900.266	0	54.7	4	16.5	4	-1E+10	1	-1E+10	1	-1E+10	1	-1E+10	1	-1E+10	1	-1E+10	1
4901784	68	C	05/15/2017	10:40	-132.283	43.672	0	1929.30	0	1.9770	0	34.6560	4	27.708	0	1905.083	0	55.1	4	16.6	4	-1E+10	1	-1E+10	1	-1E+10	1	-1E+10	1	-1E+10	1	-1E+10	1
4901784	68	C	05/15/2017	10:40	-132.283	43.672	0	1934.20	0	1.9720	0	34.6570	4	27.709	0	1909.899	0	55.5	4	16.7	4	-1E+10	1	-1E+10	1	-1E+10	1	-1E+10	1	-1E+10	1	-1E+10	1
4901784	68	C	05/15/2017	10:40	-132.283	43.672	0	1939.20	0	1.9680	0	34.6580	4	27.710	0	1914.814	0	55.8	4	16.8	4	-1E+10	1	-1E+10	1	-1E+10	1	-1E+10	1	-1E+10	1	-1E+10	1
4901784	68	C	05/15/2017	10:40	-132.283	43.672	0	1944.20	0	1.9640	0	34.6580	4	27.711	0	1919.729	0	56.2	4	16.9	4	-1E+10	1	-1E+10	1	-1E+10	1	-1E+10	1	-1E+10	1	-1E+10	1
4901784	68	C	05/15/2017	10:40	-132.283	43.672	0	1949.20	0	1.9600	0	34.6600	4	27.713	0	1924.643	0	56.6	4	17.1	4	-1E+10	1	-1E+10	1	-1E+10	1	-1E+10	1	-1E+10	1	-1E+10	1
4901784	68	C	05/15/2017	10:40	-132.283	43.672	0	1954.20	0	1.9570	0	34.6610	4	27.714	0	1929.557	0	57.0	4	17.2	4	-1E+10	1	-1E+10	1	-1E+10	1	-1E+10	1	-1E+10	1	-1E+10	1
4901784	68	C	05/15/2017	10:40	-132.283	43.672	0	1959.30	0	1.9520	0	34.6610	4	27.714	0	1934.570	0	57.4	4	17.3	4	-1E+10	1	-1E+10	1	-1E+10	1	-1E+10	1	-1E+10	1	-1E+10	1
4901784	68	C	05/15/2017	10:40	-132.283	43.672	0	1964.30	0	1.9490	0	34.6620	4	27.715	0	1939.484	0	57.7	4	17.4	4	-1E+10	1	-1E+10	1	-1E+10	1	-1E+10	1	-1E+10	1	-1E+10	1
4901784	68	C	05/15/2017	10:40	-132.283	43.672	0	1969.50	0	1.9460	0	34.6630	4	27.716	0	1944.595	0	58.0	4	17.5	4	-1E+10	1	-1E+10	1	-1E+10	1	-1E+10	1	-1E+10	1	-1E+10	1
4901784	68	C	05/15/2017	10:40	-132.283	43.672	0	1974.60	0	1.9410	0	34.6640	4	27.718	0	1949.607	0	58.4	4	17.6	4	-1E+10	1	-1E+10	1	-1E+10	1	-1E+10	1	-1E+10	1	-1E+10	1
4901784	68	C	05/15/2017	10:40	-132.283	43.672	0	1979.80	0	1.9360	0	34.6650	4	27.719	0	1954.717	0	58.8	4	17.7	4	-1E+10	1	-1E+10	1	-1E+10	1	-1E+10	1	-1E+10	1	-1E+10	1
4901784	68	C	05/15/2017	10:40	-132.283	43.672	0	1985.00	0	1.9330	0	34.6660	4	27.720	0	1959.827	0	59.1	4	17.8	4	-1E+10	1	-1E+10	1	-1E+10	1	-1E+10	1	-1E+10	1	-1E+10	1
4901784	68	C	05/15/2017	10:40	-132.283	43.672	0	1990.20	0	1.9320	0	34.6660	4	27.720	0	1964.938	0	59.3	4	17.8	4	-1E+10	1	-1E+10	1	-1E+10	1	-1E+10	1	-1E+10	1	-1E+10	1
4901784	68	C	05/15/2017	10:40	-132.283	43.672	0	1995.40	0	1.9300	0	34.6660	4	27.720	0	1970.048	0	59.5	4	17.9	4	-1E+10	1	-1E+10	1	-1E+10	1	-1E+10	1	-1E+10	1	-1E+10	1
4901784	68	C	05/15/2017	10:40	-132.283	43.672	0	2000.60	0	1.9270	0	34.6670	4	27.721	0	1975.157	0	59.8	4	18.0	4	-1E+10	1	-1E+10	1	-1E+10	1	-1E+10	1	-1E+10	1	-1E+10	1
4901784	68	C	05/15/2017	10:40	-132.283	43.672	0	2005.00	0	1.9250	0	34.6670	4	27.721	0	1979.481	0	60.0	4	18.1	4	-1E+10	1	-1E+10	1	-1E+10	1	-1E+10	1	-1E+10	1	-1E+10	1
4901784	68	C	05/15/2017	10:40	-132.283	43.672	0	2009.30	0	1.9230	0	34.6670	4	27.722	0	1983.706	0	60.3	4	18.1	4	-1E+10	1	-1E+10	1	-1E+10	1	-1E+10	1	-1E+10	1	-1E+10	1
4901784	68	C	05/15/2017	10:40	-132.283	43.672	0	2014.80	0	1.9180	0	34.6680	4	27.723	0	1989.111	0	60.7	4	18.3	4	-1E+10	1	-1E+10	1	-1E+10	1	-1E+10	1	-1E+10	1	-1E+10	1
4901784	68	C	05/15/2017	10:40	-132.283	43.672	0	2019.70	0	1.9120	0	34.6690	4	27.724	0	1993.925	0	61.0	4	18.4	4	-1E+10	1	-1E+10	1	-1E+10	1	-1E+10	1	-1E+10	1	-1E+10	1
4901784	68	C	05/15/2017	10:40	-132.283	43.672	0																										
4901784	69	C	05/25/2017	10:46	-132.371	43.615	0	2.80	0	11.2690	0	32.8250	4	25.035	0	2.778	0	274.6	4	101.2	4	-1E+10	1	-1E+10	1	-1E+10	1	-1E+10	1	-1E+10	1	-1E+10	1
4901784	69	C	05/25/2017	10:46	-132.371	43.615	0	4.00	0	11.2690	0	32.8250	4	25.035	0	3.968	0	274.7	4	101.2	4	-1E+10	1	-1E+10	1	-1E+10	1	-1E+10	1	-1E+10	1	-1E+10	1
4901784	69	C	05/25/2017	10:46	-132.371	43.615	0	5.10	0	11.2680	0	32.8250	4	25.035	0	5.059	0	274.6	4	101.1	4	-1E+10	1	-1E+10	1	-1E+10	1	-1E+10	1	-1E+10	1	-1E+10	1
4901784	69	C	05/25/2017	10:46	-132.371	43.615	0	6.30	0	11.2680	0	32.8250	4	25.035	0	6.250	0	274.6	4	101.1	4	-1E+10	1	-1E+10	1	-1E+10	1	-1E+10	1	-1E+10	1	-1E+10	1
4901784	69	C	05/25/2017	10:46	-132.371	43.615	0	7.70	0	11.2740	0	32.8250	4	25.034	0	7.638	0	274.5	4	101.1	4	-1E+10	1	-1E+10	1	-1E+10	1	-1E+10	1	-1E+10	1	-1E+10	1
4901784	69	C	05/25/2017	10:46	-132.371	43.615	0	8.90	0	11.2740	0	32.8250	4	25.034	0	8.829	0	274.6	4	101.2	4	-1E+10	1	-1E+10	1	-1E+10	1	-1E+10	1	-1E+10	1	-1E+10	1
4901784	69	C	05/25/2017	10:46	-132.371	43.615	0	10.20	0	11.2740	0	32.8250	4	25.034	0	10.118	0	274.2	4	101.0	4	-1E+10	1	-1E+10	1	-1E+10	1	-1E+10	1	-1E+10	1	-1E+10	1
4901784	69	C	05/25/2017	10:46	-132.371	43.615	0	11.50	0	11.2740	0	32.8250	4	25.034	0	11.408	0	274.2	4	101.0	4	-1E+10	1	-1E+10	1	-1E+10	1	-1E+10	1	-1E+10	1	-1E+10	1
4901784	69	C	05/25/2017	10:46	-132.371	43.615	0	12.90	0	11.2730	0	32.8250	4	25.034	0	12.797	0	274.3	4	101.0	4	-1E+10	1	-1E+10	1	-1E+10	1	-1E+10	1	-1E+10	1	-1E+10	1
4901784	69	C	05/25/2017	10:46	-132.371	43.615	0	14.40	0	11.2740	0	32.8250	4	25.034	0	14.284	0	274.2	4	101.0	4	-1E+10	1	-1E+10	1	-1E+10	1	-1E+10	1	-1E+10	1	-1E+10	1
4901784	69	C	05/25/2017	10:46	-132.371	43.615	0	15.90	0	11.2790	0	32.8250	4	25.033	0	15.772	0	274.1	4	101.0	4	-1E+10	1	-1E+10	1	-1E+10	1	-1E+10	1	-1E+10	1	-1E+10	1
4901784	69	C	05/25/2017	10:46	-132.371	43.615	0	17.70	0	11.2730	0	32.8260	4	25.035	0	17.558	0	274.2	4	101.0	4	-1E+10	1	-1E+10	1	-1E+10	1	-1E+10	1	-1E+10	1	-1E+10	1
4901784	69	C	05/25/2017	10:46	-132.371	43.615	0	19.30	0	11.2640	0	32.8240	4	25.035	0	19.145	0	274.1	4	101.0	4	-1E+10	1	-1E+10	1	-1E+10	1	-1E+10	1	-1E+10	1	-1E+10	1
4901784	69	C	05/25/2017	10:46	-132.371	43.615	0	21.10	0	11.2600	0	32.8260	4	25.038	0	20.930	0	274.2	4	101.0	4	-1E+10	1	-1E+10	1	-1E+10	1	-1E+10	1	-1E+10	1	-1E+10	1
4901784	69	C	05/25/2017	10:46	-132.371	43.615	0	22.80	0	11.2600	0	32.8230	4	25.035	0	22.617	0	274.0	4	100.9	4	-1E+10	1	-1E+10	1	-1E+10	1	-1E+10	1	-1E+10	1	-1E+10	1
4901784	69	C	05/25/2017	10:46	-132.371	43.615	0	24.50	0	11.2620	0	32.8260	4	25.037	0	24.303	0	273.9	4	100.9	4	-1E+10	1	-1E+10	1	-1E+10	1	-1E+10	1	-1E+10	1	-1E+10	1
4901784	69	C	05/25/2017	10:46	-132.371	43.615	0	26.10	0	11.2550	0	32.8240	4	25.037	0	25.890	0	273.9	4	100.9	4	-1E+10	1	-1E+10	1	-1E+10	1	-1E+10	1	-1E+10	1	-1E+10	1
4901784	69	C	05/25/2017	10:46	-132.371	43.615	0	27.80	0	11.2630	0	32.8230	4	25.035	0	27.576	0	273.6	4	100.8	4	-1E+10	1	-1E+10	1	-1E+10	1	-1E+10	1	-1E+10	1	-1E+10	1
4901784	69	C	05/25/2017	10:46	-132.371	43.615	0	29.40	0	11.2390	0	32.8230	4	25.039	0	29.163	0	273.5	4	100.7	4	-1E+10	1	-1E+10	1	-1E+10	1	-1E+10	1	-1E+10	1	-1E+10	1
4901784	69	C	05/25/2017	10:46	-132.371	43.615	0	31.10	0	11.2440	0	32.8210	4	25.037	0	30.849	0	273.3	4	100.6	4	-1E+10	1	-1E+10	1	-1E+10	1	-1E+10	1	-1E+10	1	-1E+10	1
4901784	69	C	05/25/2017	10:46	-132.371	43.615	0	32.60	0	11.2510	0	32.8200	4	25.035	0	32.337	0	272.9	4	100.5	4	-1E+10	1	-1E+10	1	-1E+10	1	-1E+10	1	-1E+10	1	-1E+10	1
4901784	69	C	05/25/2017	10:46	-132.371	43.615	0	34.00	0	11.2590	0	32.8160	4	25.030	0	33.726	0	272.3	4	100.3	4	-1E+10	1	-1E+10	1	-1E+10	1	-1E+10	1	-1E+10	1	-1E+10	1
4901784	69	C	05/25/2017	10:46	-132.371	43.615	0	35.60	0	11.1700	0	32.8150	4	25.045	0	35.312	0	272.2	4	100.1	4	-1E+10	1	-1E+10	1	-1E+10	1	-1E+10	1	-1E+10	1	-1E+10	1
4901784	69	C	05/25/2017	10:46	-132.371	43.615	0	37.20	0	11.1270	0	32.8120	4	25.051	0	36.899	0	271.4	4	99.7	4	-1E+10	1	-1E+10	1	-1E+10	1	-1E+10	1	-1E+10	1	-1E+10	1
4901784	69	C	05/25/2017	10:46	-132.371	43.615	0	38.90	0	11.0450	0	32.8120	4	25.065	0	38.586	0	270.8	4	99.3	4	-1E+10	1	-1E+10	1	-1E+10	1	-1E+10	1	-1E+10	1	-1E+10	1
4901784	69	C	05/25/2017	10:46	-132.371	43.615	0	40.70	0	10.9040	0	32.8040	4	25.084	0	40.371	0	270.0	4	98.7	4	-1E+10	1	-1E+10	1	-1E+10	1	-1E+10	1	-1E+10	1	-1E+10	1
4901784	69	C	05/25/2017	10:46	-132.371	43.615	0	42.40	0	10.5970	0	32.8210	4	25.151	0	42.057	0	270.8	4	98.3	4	-1E+10	1	-1E+10	1	-1E+10	1	-1E+10	1	-1E+10	1	-1E+10	1
4901784	69	C	05/25/2017	10:46	-132.371	43.615	0	44.20	0	10.5720	0	32.8190	4	25.154	0	43.842	0	269.4	4	97.8	4	-1E+10	1	-1E+10	1	-1E+10	1	-1E+10	1	-1E+10	1	-1E+10	1
4901784	69	C	05/25/2017	10:46	-132.371	43.615	0	45.90	0	10.4740	0	32.8190	4	25.170	0	45.528	0	267.8	4	97.0	4	-1E+10	1	-1E+10	1	-1E+10	1	-1E+10	1	-1E+10	1	-1E+10	1
4901784	69	C	05/25/2017	10:46	-132.371	43.615	0	47.70	0	10.4530	0	32.8260	4	25.180	0	47.313	0	266.6	4	96.5	4	-1E+10	1	-1E+10	1	-1E+10	1	-1E+10	1	-1E+10	1	-1E+10	1
4901784	69	C	05/25/2017	10:46	-132.371	43.615	0	49.50	0	10.4070	0	32.8290	4	25.190	0	49.099	0	265.0	4	95.8	4	-1E+10	1	-1E+10	1	-1E+10	1	-1E+10	1	-1E+10	1	-1E+10	1
4901784	69	C	05/25/2017	10:46	-132.371	43.615	0	51.20	0	10.2480	0	32.8430	4	25.228	0	50.785	0	263.8	4	95.1	4	-1E+10	1	-1E+10	1	-1E+10	1	-1E+10	1	-1E+10	1	-1E+10	1
4901784	69	C	05/25/2017	10:46	-132.371	43.615	0	52.90	0	10.1980	0	32.8380	4	25.232	0	52.471	0	264.0	4	95.1	4	-1E+10	1	-1E+10	1	-1E+10	1	-1E+10	1	-1E+10	1	-1E+10	1
4901784	69	C	05/25/2017	10:46	-132.371	43.615	0	54.70	0	10.1740	0	32.8330	4	25.232	0	54.256	0	263.0	4	94.7	4	-1E+10	1	-1E+10	1	-1E+10	1	-1E+10	1	-1E+10	1	-1E+10	1
4901784	69	C	05/25/2017	10:46	-132.371	43.615	0	56.40	0	10.0950	0	32.8460	4	25.256	0	55.942	0	262.3	4	94.3	4	-1E+10	1	-1E+10	1	-1E+10	1	-1E+10	1	-1E+10	1	-1E+10	1
4901784	69	C	05/25/2017	10:46	-132.371	43.615	0	58.10	0	10.0290	0	32.8440	4	25.265	0	57.628	0	261.9	4	94.0	4	-1E+10	1	-1E+10	1	-1E+10	1	-1E+10	1	-1E+10	1	-1E+10	1
4901784	69	C	05/25/2017	10:46	-132.371	43.615	0	59.80	0	9.8410	0	32.8450	4	25.297	0	59.314	0	262.5	4	93.8	4	-1E+10	1	-1E+10	1	-1E+10	1	-1E+10	1	-1E+10	1	-1E+10	1
4901784	69	C	05/25/2017	10:46	-132.371	43.615	0	61.50	0	9.7900	0	32.8540	4	25.313	0	60.999	0	262.2	4	93.6	4	-1E+10	1	-1E+10	1	-1E+10	1	-1E+10	1	-1E+10	1	-1E+10	1
4901784	69	C	05/25/2017	10:46	-132.371	43.615	0	63.10	0	9.8310	0	32.8740	4	25.322	0	62.586	0	262.0	4	93.6	4	-1E+10	1	-1E+10	1	-1E+10	1	-1E+10	1	-1E+10	1	-1E+10	1
4901784	69	C	05/25/2017	10:46	-132.371	43.615	0	64.90	0	9.7940	0	32.8740	4	25.328	0	64.371	0	262.2	4	93.6	4	-1E+10	1	-1E+10	1	-1E+10	1	-1E+10	1	-1E+10	1	-1E+10	1
4901784	69	C	05/25/2017	10:46	-132.371	43.615	0	66.70	0	9.5640	0	32.8730	4	25.365	0	66.156	0	262.5	4	93.3	4	-1E+10	1	-1E+10	1	-1E+10	1	-1E+10	1	-1E+10	1	-1E+10	1
4901784	69	C	05/25/2017	10:46	-132.371	43.615	0	68.40	0	9.4130	0	32.9030	4	25.412	0	67.842	0	261.5	4	92.6	4	-1E+10	1	-1E+10	1	-1E+10	1	-1E+10	1	-1E+10	1	-1E+10	1
4901784	69	C	05/25/2017	10:46	-132.371	43.615	0	70.80	0	9.3360	0	32.8930	4	25.417	0	70.222	0	259.4	4	91.7	4	-1E+10	1	-1E+10	1	-1E+10	1	-1E+10	1	-1E+10	1	-1E+10	1
4901784	69	C	05/25/2017	10:46	-132.371	43.615	0	72.40	0	9.3340	0	32.9110	4	25.431	0	71.809	0	254.3	4	89.9	4	-1E+10	1	-1E+10	1	-1E+10	1	-1E+10	1	-1E+10	1	-1E+10	1
4901784	69	C	05/25/2017	10:46	-132.371	43.615	0	73.80	0	9.3930	0	32.9270	4	25.435	0	73.197	0	251.1	4	88.9	4	-1E+10	1	-1E+10	1	-1E+10	1	-1E+10	1	-1E+10	1	-1E+10	1
4901784	69	C	05/25/2017	10:46	-132.371	43.615	0	75.30	0	9.3200	0	32.9480	4	25.463	0	74.685	0	249.8	4	88.3	4	-1E+10	1	-1E+10	1	-1E+10	1	-1E+10	1	-1E+10	1	-1E+10	1
4901784	69	C	05/25/2017	10:46	-132.371	43.615	0	76.90	0	9.2820	0	32.9540	4	25.473	0	76.271	0	248.7	4	87.9	4	-1E+10	1	-1E+10	1	-1E+10	1	-1E+10	1	-1E+10	1	-1E+10	1
4901784	69	C	05/25/2017	10:46	-132.371	43.615	0	78.40	0	9.2780	0	32.9600	4	25.479	0	77.759	0	246.5	4	87.1	4	-1E+10	1	-1E+10	1	-1E+10	1	-1E+10	1	-1E+10	1	-1E+10	1
4901784	69	C	05/25/2017	10:46	-132.371	43.615	0	80.00	0	9.2830	0	32.9640	4	25.481	0	79.345	0	243.8	4	86.1	4	-1E+10	1	-1E+10	1	-1E+10	1	-1E+10	1	-1E+10	1	-1E+10	1
4901784	69	C	05/25/2017	10:46	-132.371	43.615	0	81.50	0	9.2850	0	32.9810	4	25.494	0	80.833	0	240.4	4	85.0	4	-1E+10	1	-1E+10	1	-1E+10	1	-1E+10	1	-1E+10	1	-1E+10	1
4901784	69	C	05/25/2017	10:46	-132.371	43.615	0	83.00	0	9.2660	0	33.0120	4	25.521	0	82.320	0	236.9	4	83.7	4	-1E+10	1	-1E+10	1	-1E+10	1	-1E+10	1	-1E+10	1	-1E+10	1
4901784	69	C	05/25/2017	10:46	-132.371	43.615	0	84.70	0	9.2660	0	33.0650	4	25.563	0	84.006	0	233.5	4	82.5	4	-1E+10	1	-1E+10	1	-1E+10	1	-1E+10	1	-1E+10	1	-1E+10	1
4901784	69	C	05/25/2017	10:46	-132.371	43.615	0	86.30	0	9.2010	0	33.0900	4	25.593	0	85.593	0	232.0	4	81.9	4	-1E+10	1	-1E+10	1	-1E+10	1	-1E+10	1	-1E+10	1	-1E+10	1
4901784	69	C	05/25/2017	10:46	-132.371	43.615	0	87.90	0	9.1900	0	33.0990	4	25.602	0	87.179	0	230.4	4	81.3	4	-1E+10	1	-1E+10	1	-1E+10	1	-1E+10	1	-1E+10	1	-1E+10	1
4901784	69	C	05/25/2017	10:46	-132.371	43.615	0	89.50	0	9.1120	0	33.1190	4	25.630	0	88.766	0	228.5	4	80.5	4	-1E+10	1	-1E+10	1	-1E+10	1	-1E+10	1	-1E+10	1	-1E+10	1
4901784	69	C	05/25/2017	10:46	-132.371	43.615	0	91.20	0	9.0650	0	33.1370	4	25.651	0	90.451	0	226.4	4	79.7	4	-1E+10	1	-1E+10	1	-1E+10	1	-1E+10	1	-1E+10	1	-1E+10	1
4901784	69	C	05/25/2017	10:46	-132.371	43.615	0	92.80	0	9.0760	0	33.1730	4	25.678	0	92.038	0	223.8	4	78.8	4	-1E+10	1	-1E+10	1	-1E+10	1	-1E+10	1	-1E+10	1	-1E+10	1
4901784	69	C	05/25/2017	10:46	-132.371	43.615	0	94.50	0	9.1200	0	33.2220	4	25.709	0	93.723	0	222.6	4	78.5	4	-1E+10	1	-1E+10	1	-1E+10	1	-1E+10	1	-1E+10	1	-1E+10	1
4901784	69	C	05/25/2017	10:46	-132.371	43.615	0	96.20	0	9.0930	0	33.2350	4	25.723	0	95.409	0	222.9	4	78.6	4	-1E+10	1	-1E+10	1	-1E+10	1	-1E+10	1	-1E+10	1	-1E+10	1
4901784	69	C	05/25/2017	10:46	-132.371	43.615	0	97.90	0	9.0550	0	33.2650	4	25.753	0	97.095	0	223.6	4	78.8	4	-1E+10	1	-1E+10	1	-1E+10	1	-1E+10	1	-1E+10	1	-1E+10	1
4901784	69	C	05/25/2017	10:46	-132.371	43.615	0	100.20	0	8.9470	0	33.2780	4	25.780	0	99.375	0	224.6	4	79.0	4	-1E+10	1	-1E+10	1	-1E+10	1	-1E+10	1	-1E+10	1	-1E+10	1
4901784	69	C	05/25/2017	10:46	-132.371	43.615	0	102.60	0	8.8860	0	33.2950	4	25.803	0	101.755	0	223.8	4	78.6	4	-1E+10	1	-1E+10	1	-1E+10	1	-1E+10	1	-1E+10	1	-1E+10	1
4901784	69	C	05/25/2017	10:46	-132.371	43.615	0	104.90	0	8.8390	0	33.3350	4	25.842	0	104.035	0	221.2	4	77.6	4	-1E+10	1	-1E+10	1	-1E+10	1	-1E+10	1	-1E+10	1	-1E+10	1
4901784	69	C	05/25/2017	10:46	-132.371	43.615	0	107.10	0	8.8350	0	33.3630	4	25.864	0	106.217	0	217.8	4	76.4	4	-1E+10	1	-1E+10	1	-1E+10	1	-1E+10	1	-1E+10	1	-1E+10	1
4901784	69	C	05/25/2017	10:46	-132.371	43.615	0	110.20	0	8.8400	0	33.4270	4	25.914	0	109.290	0	213.4	4	74.9	4	-1E+10	1	-1E+10	1	-1E+10	1	-1E+10	1	-1E+10	1	-1E+10	1
4901784	69	C	05/25/2017	10:46	-132.371	43.615	0	112.70	0	8.7960	0	33.4640	4	25.950	0	111.769	0	210.9	4	74.0	4	-1E+10	1	-1E+10	1	-1E+10	1	-1E+10	1	-1E+10	1	-1E+10	1
4901784	69	C	05/25/2017	10:46	-132.371	43.615	0	115.10	0	8.7830	0	33.4820	4	25.966	0	114.148	0	208.6	4	73.2	4	-1E+10	1	-1E+10	1	-1E+10	1	-1E+10	1	-1E+10	1	-1E+10	1
4901784	69	C	05/25/2017	10:46	-132.371	43.615	0	117.50	0	8.7780	0	33.5000	4	25.981	0	116.528	0	205.6	4	72.1	4	-1E+10	1	-1E+10	1	-1E+10	1	-1E+10	1	-1E+10	1	-1E+10	1
4901784	69	C	05/25/2017	10:46	-132.371	43.615	0	120.10	0	8.7440	0	33.5320	4	26.011	0	119.106	0	202.5	4	71.0	4	-1E+10	1	-1E+10	1	-1E+10	1	-1E+10	1	-1E+10	1	-1E+10	1
4901784	69	C	05/25/2017	10:46	-132.371	43.615	0	122.50	0	8.6710	0	33.5800	4	26.060	0	121.485	0	199.3	4	69.8	4	-1E+10	1	-1E+10	1	-1E+10	1	-1E+10	1	-1E+10	1	-1E+10	1
4901784	69	C	05/25/2017	10:46	-132.371	43.615	0	125.10	0	8.6640	0	33.6270	4	26.098	0	124.063	0	196.5	4	68.8	4	-1E+10	1	-1E+10	1	-1E+10	1	-1E+10	1	-1E+10	1	-1E+10	1
4901784	69	C	05/25/2017	10:46	-132.371	43.615	0	127.70	0	8.6530	0	33.6540	4	26.121	0	126.640	0	194.0	4	67.9	4	-1E+10	1	-1E+10	1	-1E+10	1	-1E+10	1	-1E+10	1	-1E+10	1
4901784	69	C	05/25/2017	10:46	-132.371	43.615	0	129.50	0	8.6320	0	33.6740	4	26.140	0	128.425	0	192.1	4	67.3	4	-1E+10	1	-1E+10	1	-1E+10	1	-1E+10	1	-1E+10	1	-1E+10	1
4901784	69	C	05/25/2017	10:46	-132.371	43.615	0	132.20	0	8.6120	0	33.7580	4	26.209	0	131.102	0	189.4	4	66.3	4	-1E+10	1	-1E+10	1	-1E+10	1	-1E+10	1	-1E+10	1	-1E+10	1
4901784	69	C	05/25/2017	10:46	-132.371	43.615	0	134.90	0	8.6040	0	33.7890	4	26.234	0	133.778	0	187.7	4	65.7	4	-1E+10	1	-1E+10	1	-1E+10	1	-1E+10	1	-1E+10	1	-1E+10	1
4901784	69	C	05/25/2017	10:46	-132.371	43.615	0	137.70	0	8.6020	0	33.8230	4	26.261	0	136.554	0	186.3	4	65.2	4	-1E+10	1	-1E+10	1	-1E+10	1	-1E+10	1	-1E+10	1	-1E+10	1
4901784	69	C	05/25/2017	10:46	-132.371	43.615	0	140.40	0	8.5870	0	33.8570	4	26.290	0	139.231	0	185.0	4	64.8	4	-1E+10	1	-1E+10	1	-1E+10	1	-1E+10	1	-1E+10	1	-1E+10	1
4901784	69	C	05/25/2017	10:46	-132.371	43.615	0	142.30	0	8.5610	0	33.8630	4	26.299	0	141.114	0	184.1	4	64.5	4	-1E+10	1	-1E+10	1	-1E+10	1	-1E+10	1	-1E+10	1	-1E+10	1
4901784	69	C	05/25/2017	10:46	-132.371	43.615	0	145.20	0	8.5230	0	33.8920	4	26.328	0	143.989	0	183.1	4	64.0	4	-1E+10	1	-1E+10	1	-1E+10	1	-1E+10	1	-1E+10	1	-1E+10	1
4901784	69	C	05/25/2017	10:46	-132.371	43.615	0	148.00	0	8.4650	0	33.9130	4	26.353	0	146.765	0	182.3	4	63.7	4	-1E+10	1	-1E+10	1	-1E+10	1	-1E+10	1	-1E+10	1	-1E+10	1
4901784	69	C	05/25/2017	10:46	-132.371	43.615	0	149.80	0	8.4420	0	33.9260	4	26.367	0	148.549	0	181.8	4	63.5	4	-1E+10	1	-1E+10	1	-1E+10	1	-1E+10	1	-1E+10	1	-1E+10	1
4901784	69	C	05/25/2017	10:46	-132.371	43.615	0	152.60	0	8.4200	0	33.9320	4	26.375	0	151.325	0	181.1	4	63.2	4	-1E+10	1	-1E+10	1	-1E+10	1	-1E+10	1	-1E+10	1	-1E+10	1
4901784	69	C	05/25/2017	10:46	-132.371	43.615	0	155.50	0	8.3910	0	33.9370	4	26.383	0	154.199	0	180.2	4	62.9	4	-1E+10	1	-1E+10	1	-1E+10	1	-1E+10	1	-1E+10	1	-1E+10	1
4901784	69	C	05/25/2017	10:46	-132.371	43.615	0	157.40	0	8.3790	0	33.9400	4	26.387	0	156.083	0	179.4	4	62.6	4	-1E+10	1	-1E+10	1	-1E+10	1	-1E+10	1	-1E+10	1	-1E+10	1
4901784	69	C	05/25/2017	10:46	-132.371	43.615	0	160.20	0	8.3440	0	33.9450	4	26.397	0	158.858	0	178.1	4	62.1	4	-1E+10	1	-1E+10	1	-1E+10	1	-1E+10	1	-1E+10	1	-1E+10	1
4901784	69	C	05/25/2017	10:46	-132.371	43.615	0	163.10	0	8.2510	0	33.9510	4	26.415	0	161.733	0	176.7	4	61.4	4	-1E+10	1	-1E+10	1	-1E+10	1	-1E+10	1	-1E+10	1	-1E+10	1
4901784	69	C	05/25/2017	10:46	-132.371	43.615	0	164.90	0	8.2280	0	33.9510	4	26.419	0	163.517	0	175.7	4	61.1	4	-1E+10	1	-1E+10	1	-1E+10	1	-1E+10	1	-1E+10	1	-1E+10	1
4901784	69	C	05/25/2017	10:46	-132.371	43.615	0	166.90	0	8.1570	0	33.9570	4	26.434	0	165.499	0	174.9	4	60.7	4	-1E+10	1	-1E+10	1	-1E+10	1	-1E+10	1	-1E+10	1	-1E+10	1
4901784	69	C	05/25/2017	10:46	-132.371	43.615	0	169.90	0	8.0890	0	33.9620	4	26.448	0	168.473	0	173.8	4	60.2	4	-1E+10	1	-1E+10	1	-1E+10	1	-1E+10	1	-1E+10	1	-1E+10	1
4901784	69	C	05/25/2017	10:46	-132.371	43.615	0	172.90	0	8.0410	0	33.9640	4	26.457	0	171.447	0	172.7	4	59.8	4	-1E+10	1	-1E+10	1	-1E+10	1	-1E+10	1	-1E+10	1	-1E+10	1
4901784	69	C	05/25/2017	10:46	-132.371	43.615	0	174.90	0	8.0310	0	33.9640	4	26.458	0	173.429	0	171.6	4	59.4	4	-1E+10	1	-1E+10	1	-1E+10	1	-1E+10	1	-1E+10	1	-1E+10	1
4901784	69	C	05/25/2017	10:46	-132.371	43.615	0	176.80	0	7.9990	0	33.9650	4	26.464	0	175.312	0	170.3	4	58.9	4	-1E+10	1	-1E+10	1	-1E+10	1	-1E+10	1	-1E+10	1	-1E+10	1
4901784	69	C	05/25/2017	10:46	-132.371	43.615	0	179.80	0	7.9570	0	33.9620	4	26.468	0	178.286	0	167.8	4	58.0	4	-1E+10	1	-1E+10	1	-1E+10	1	-1E+10	1	-1E+10	1	-1E+10	1
4901784	69	C	05/25/2017	10:46	-132.371	43.615	0	182.60	0	7.8130	0	33.9630	4	26.490	0	181.061	0	165.6	4	57.0	4	-1E+10	1	-1E+10	1	-1E+10	1	-1E+10	1	-1E+10	1	-1E+10	1
4901784	69	C	05/25/2017	10:46	-132.371	43.615	0	184.50	0	7.7460	0	33.9630	4	26.500	0	182.944	0	164.8	4	56.7	4	-1E+10	1	-1E+10	1	-1E+10	1	-1E+10	1	-1E+10	1	-1E+10	1
4901784	69	C	05/25/2017	10:46	-132.371	43.615	0	187.40	0	7.7250	0	33.9630	4	26.503	0	185.818	0	163.6	4	56.3	4	-1E+10	1	-1E+10	1	-1E+10	1	-1E+10	1	-1E+10	1	-1E+10	1
4901784	69	C	05/25/2017	10:46	-132.371	43.615	0	190.30	0	7.6730	0	33.9630	4	26.510	0	188.692	0	162.4	4	55.8	4	-1E+10	1	-1E+10	1	-1E+10	1	-1E+10	1	-1E+10	1	-1E+10	1
4901784	69	C	05/25/2017	10:46	-132.371	43.615	0	192.10	0	7.6490	0	33.9630	4	26.514	0	190.476	0	161.6	4	55.5	4	-1E+10	1	-1E+10	1	-1E+10	1	-1E+10	1	-1E+10	1	-1E+10	1
4901784	69	C	05/25/2017	10:46	-132.371	43.615	0	195.00	0	7.5990	0	33.9660	4	26.523	0	193.351	0	160.4	4	55.0	4	-1E+10	1	-1E+10	1	-1E+10	1	-1E+10	1	-1E+10	1	-1E+10	1
4901784	69	C	05/25/2017	10:46	-132.371	43.615	0	197.90	0	7.5480	0	33.9660	4	26.531	0	196.225	0	159.4	4	54.6	4	-1E+10	1	-1E+10	1	-1E+10	1	-1E+10	1	-1E+10	1	-1E+10	1
4901784	69	C	05/25/2017	10:46	-132.371	43.615	0	199.80	0	7.5160	0	33.9660	4	26.535	0	198.108	0	158.8	4	54.3	4	-1E+10	1	-1E+10	1	-1E+10	1	-1E+10	1	-1E+10	1	-1E+10	1
4901784	69	C	05/25/2017	10:46	-132.371	43.615	0	202.80	0	7.4840	0	33.9660	4	26.540	0	201.081	0	157.7	4	53.9	4	-1E+10	1	-1E+10	1	-1E+10	1	-1E+10	1	-1E+10	1	-1E+10	1
4901784	69	C	05/25/2017	10:46	-132.371	43.615	0	205.60	0	7.4190	0	33.9700	4	26.552	0	203.856	0	156.9	4	53.6	4	-1E+10	1	-1E+10	1	-1E+10	1	-1E+10	1	-1E+10	1	-1E+10	1
4901784	69	C	05/25/2017	10:46	-132.371	43.615	0	207.50	0	7.3970	0	33.9700	4	26.555	0	205.739	0	156.6	4	53.5	4	-1E+10	1	-1E+10	1	-1E+10	1	-1E+10	1	-1E+10	1	-1E+10	1
4901784	69	C	05/25/2017	10:46	-132.371	43.615	0	210.00	0	7.3900	0	33.9700	4	26.556	0	208.216	0	156.1	4	53.3	4	-1E+10	1	-1E+10	1	-1E+10	1	-1E+10	1	-1E+10	1	-1E+10	1
4901784	69	C	05/25/2017	10:46	-132.371	43.615	0	212.80	0	7.3350	0	33.9730	4	26.566	0	210.991	0	155.7	4	53.1	4	-1E+10	1	-1E+10	1	-1E+10	1	-1E+10	1	-1E+10	1	-1E+10	1
4901784	69	C	05/25/2017	10:46	-132.371	43.615	0	215.10	0	7.3060	0	33.9770	4	26.574	0	213.270	0	155.4	4	52.9	4	-1E+10	1	-1E+10	1	-1E+10	1	-1E+10	1	-1E+10	1	-1E+10	1
4901784	69	C	05/25/2017	10:46	-132.371	43.615	0	217.60	0	7.2940	0	33.9770	4	26.575	0	215.748	0	155.0	4	52.8	4	-1E+10	1	-1E+10	1	-1E+10	1	-1E+10	1	-1E+10	1	-1E+10	1
4901784	69	C	05/25/2017	10:46	-132.371	43.615	0	220.00	0	7.2820	0	33.9770	4	26.577	0	218.126	0	154.5	4	52.6	4	-1E+10	1	-1E+10	1	-1E+10	1	-1E+10	1	-1E+10	1	-1E+10	1
4901784	69	C	05/25/2017	10:46	-132.371	43.615	0	222.40	0	7.2680	0	33.9780	4	26.580	0	220.504	0	154.1	4	52.5	4	-1E+10	1	-1E+10	1	-1E+10	1	-1E+10	1	-1E+10	1	-1E+10	1
4901784	69	C	05/25/2017	10:46	-132.371	43.615	0	224.70	0	7.2510	0	33.9840	4	26.587	0	222.783	0	153.3	4	52.2	4	-1E+10	1	-1E+10	1	-1E+10	1	-1E+10	1	-1E+10	1	-1E+10	1
4901784	69	C	05/25/2017	10:46	-132.371	43.615	0	227.10	0	7.2180	0	33.9820	4	26.590	0	225.162	0	152.3	4	51.8	4	-1E+10	1	-1E+10	1	-1E+10	1	-1E+10	1	-1E+10	1	-1E+10	1
4901784	69	C	05/25/2017	10:46	-132.371	43.615	0	230.30	0	7.1440	0	33.9830	4	26.601	0	228.332	0	150.9	4	51.2	4	-1E+10	1	-1E+10	1	-1E+10	1	-1E+10	1	-1E+10	1	-1E+10	1
4901784	69	C	05/25/2017	10:46	-132.371	43.615	0	232.80	0	7.1150	0	33.9810	4	26.603	0	230.810	0	150.2	4	50.9	4	-1E+10	1	-1E+10	1	-1E+10	1	-1E+10	1	-1E+10	1	-1E+10	1
4901784	69	C	05/25/2017	10:46	-132.371	43.615	0	235.20	0	7.1010	0	33.9800	4	26.605	0	233.188	0	149.0	4	50.5	4	-1E+10	1	-1E+10	1	-1E+10	1	-1E+10	1	-1E+10	1	-1E+10	1
4901784	69	C	05/25/2017	10:46	-132.371	43.615	0	237.70	0	7.0470	0	33.9770	4	26.610	0	235.665	0	147.7	4	50.0	4	-1E+10	1	-1E+10	1	-1E+10	1	-1E+10	1	-1E+10	1	-1E+10	1
4901784	69	C	05/25/2017	10:46	-132.371	43.615	0	240.10	0	7.0080	0	33.9790	4	26.617	0	238.043	0	146.5	4	49.6	4	-1E+10	1	-1E+10	1	-1E+10	1	-1E+10	1	-1E+10	1	-1E+10	1
4901784	69	C	05/25/2017	10:46	-132.371	43.615	0	242.50	0	6.9550	0	33.9780	4	26.623	0	240.421	0	145.4	4	49.1	4	-1E+10	1	-1E+10	1	-1E+10	1	-1E+10	1	-1E+10	1	-1E+10	1
4901784	69	C	05/25/2017	10:46	-132.371	43.615	0	245.10	0	6.9150	0	33.9790	4	26.629	0	242.997	0	144.3	4	48.7	4	-1E+10	1	-1E+10	1	-1E+10	1	-1E+10	1	-1E+10	1	-1E+10	1
4901784	69	C	05/25/2017	10:46	-132.371	43.615	0	247.50	0	6.8680	0	33.9780	4	26.635	0	245.375	0	143.2	4	48.3	4	-1E+10	1	-1E+10	1	-1E+10	1	-1E+10	1	-1E+10	1	-1E+10	1
4901784	69	C	05/25/2017	10:46	-132.371	43.615	0	250.00	0	6.8320	0	33.9790	4	26.641	0	247.852	0	142.1	4	47.9	4	-1E+10	1	-1E+10	1	-1E+10	1	-1E+10	1	-1E+10	1	-1E+10	1
4901784	69	C	05/25/2017	10:46	-132.371	43.615	0	252.60	0	6.7530	0	33.9810	4	26.653	0	250.428	0	141.1	4	47.5	4	-1E+10	1	-1E+10	1	-1E+10	1	-1E+10	1	-1E+10	1	-1E+10	1
4901784	69	C	05/25/2017	10:46	-132.371	43.615	0	255.10	0	6.7270	0	33.9830	4	26.658	0	252.905	0	140.1	4	47.1	4	-1E+10	1	-1E+10	1	-1E+10	1	-1E+10	1	-1E+10	1	-1E+10	1
4901784	69	C	05/25/2017	10:46	-132.371	43.615	0	257.60	0	6.7030	0	33.9830	4	26.661	0	255.382	0	139.0	4	46.7	4	-1E+10	1	-1E+10	1	-1E+10	1	-1E+10	1	-1E+10	1	-1E+10	1
4901784	69	C	05/25/2017	10:46	-132.371	43.615	0	260.10	0	6.6850	0	33.9810	4	26.662	0	257.859	0	137.1	4	46.0	4	-1E+10	1	-1E+10	1	-1E+10	1	-1E+10	1	-1E+10	1	-1E+10	1
4901784	69	C	05/25/2017	10:46	-132.371	43.615	0	262.70	0	6.6300	0	33.9810	4	26.669	0	260.435	0	134.6	4	45.2	4	-1E+10	1	-1E+10	1	-1E+10	1	-1E+10	1	-1E+10	1	-1E+10	1
4901784	69	C	05/25/2017	10:46	-132.371	43.615	0	265.40	0	6.5070	0	33.9780	4	26.683	0	263.110	0	132.8	4	44.4	4	-1E+10	1	-1E+10	1	-1E+10	1	-1E+10	1	-1E+10	1	-1E+10	1
4901784	69	C	05/25/2017	10:46	-132.371	43.615	0	268.00	0	6.4200	0	33.9800	4	26.696	0	265.686	0	131.1	4	43.8	4	-1E+10	1	-1E+10	1	-1E+10	1	-1E+10	1	-1E+10	1	-1E+10	1
4901784	69	C	05/25/2017	10:46	-132.371	43.615	0	269.80	0	6.3900	0	33.9790	4	26.699	0	267.469	0	130.1	4	43.4	4	-1E+10	1	-1E+10	1	-1E+10	1	-1E+10	1	-1E+10	1	-1E+10	1
4901784	69	C	05/25/2017	10:46	-132.371	43.615	0	272.40	0	6.3250	0	33.9800	4	26.708	0	270.045	0	128.8	4	42.9	4	-1E+10	1	-1E+10	1	-1E+10	1	-1E+10	1	-1E+10	1	-1E+10	1
4901784	69	C	05/25/2017	10:46	-132.371	43.615	0	275.10	0	6.2890	0	33.9780	4	26.712	0	272.720	0	127.7	4	42.5	4	-1E+10	1	-1E+10	1	-1E+10	1	-1E+10	1	-1E+10	1	-1E+10	1
4901784	69	C	05/25/2017	10:46	-132.371	43.615	0	277.70	0	6.2270	0	33.9800	4	26.721	0	275.296	0	126.6	4	42.1	4	-1E+10	1	-1E+10	1	-1E+10	1	-1E+10	1	-1E+10	1	-1E+10	1
4901784	69	C	05/25/2017	10:46	-132.371	43.615	0	280.40	0	6.1810	0	33.9780	4	26.725	0	277.971	0	125.0	4	41.5	4	-1E+10	1	-1E+10	1	-1E+10	1	-1E+10	1	-1E+10	1	-1E+10	1
4901784	69	C	05/25/2017	10:46	-132.371	43.615	0	282.20	0	6.1420	0	33.9780	4	26.730	0	279.754	0	124.1	4	41.1	4	-1E+10	1	-1E+10	1	-1E+10	1	-1E+10	1	-1E+10	1	-1E+10	1
4901784	69	C	05/25/2017	10:46	-132.371	43.615	0	284.90	0	6.1130	0	33.9780	4	26.734	0	282.429	0	123.6	4	41.0	4	-1E+10	1	-1E+10	1	-1E+10	1	-1E+10	1	-1E+10	1	-1E+10	1
4901784	69	C	05/25/2017	10:46	-132.371	43.615	0	287.50	0	6.0990	0	33.9760	4	26.734	0	285.004	0	122.4	4	40.6	4	-1E+10	1	-1E+10	1	-1E+10	1	-1E+10	1	-1E+10	1	-1E+10	1
4901784	69	C	05/25/2017	10:46	-132.371	43.615	0	290.20	0	6.0470	0	33.9760	4	26.741	0	287.679	0	120.6	4	39.9	4	-1E+10	1	-1E+10	1	-1E+10	1	-1E+10	1	-1E+10	1	-1E+10	1
4901784	69	C	05/25/2017	10:46	-132.371	43.615	0	292.80	0	6.0060	0	33.9760	4	26.746	0	290.255	0	118.4	4	39.1	4	-1E+10	1	-1E+10	1	-1E+10	1	-1E+10	1	-1E+10	1	-1E+10	1
4901784	69	C	05/25/2017	10:46	-132.371	43.615	0	294.60	0	5.9890	0	33.9750	4	26.747	0	292.038	0	116.6	4	38.5	4	-1E+10	1	-1E+10	1	-1E+10	1	-1E+10	1	-1E+10	1	-1E+10	1
4901784	69	C	05/25/2017	10:46	-132.371	43.615	0	297.20	0	5.9580	0	33.9750	4	26.751	0	294.613	0	113.8	4	37.6	4	-1E+10	1	-1E+10	1	-1E+10	1	-1E+10	1	-1E+10	1	-1E+10	1
4901784	69	C	05/25/2017	10:46	-132.371	43.615	0	299.90	0	5.8990	0	33.9770	4	26.760	0	297.288	0	110.9	4	36.6	4	-1E+10	1	-1E+10	1	-1E+10	1	-1E+10	1	-1E+10	1	-1E+10	1
4901784	69	C	05/25/2017	10:46	-132.371	43.615	0	302.70	0	5.8730	0	33.9790	4	26.765	0	300.061	0	108.5	4	35.7	4	-1E+10	1	-1E+10	1	-1E+10	1	-1E+10	1	-1E+10	1	-1E+10	1
4901784	69	C	05/25/2017	10:46	-132.371	43.615	0	305.40	0	5.8610	0	33.9800	4	26.767	0	302.736	0	106.9	4	35.2	4	-1E+10	1	-1E+10	1	-1E+10	1	-1E+10	1	-1E+10	1	-1E+10	1
4901784	69	C	05/25/2017	10:46	-132.371	43.615	0	307.30	0	5.8460	0	33.9800	4	26.769	0	304.618	0	106.5	4	35.1	4	-1E+10	1	-1E+10	1	-1E+10	1	-1E+10	1	-1E+10	1	-1E+10	1
4901784	69	C	05/25/2017	10:46	-132.371	43.615	0	310.00	0	5.8350	0	33.9790	4	26.770	0	307.292	0	105.7	4	34.8	4	-1E+10	1	-1E+10	1	-1E+10	1	-1E+10	1	-1E+10	1	-1E+10	1
4901784	69	C	05/25/2017	10:46	-132.371	43.615	0	312.70	0	5.8070	0	33.9780	4	26.773	0	309.967	0	104.7	4	34.4	4	-1E+10	1	-1E+10	1	-1E+10	1	-1E+10	1	-1E+10	1	-1E+10	1
4901784	69	C	05/25/2017	10:46	-132.371	43.615	0	314.50	0	5.7530	0	33.9780	4	26.779	0	311.750	0	103.7	4	34.1	4	-1E+10	1	-1E+10	1	-1E+10	1	-1E+10	1	-1E+10	1	-1E+10	1
4901784	69	C	05/25/2017	10:46	-132.371	43.615	0	317.20	0	5.7280	0	33.9800	4	26.784	0	314.424	0	101.7	4	33.4	4	-1E+10	1	-1E+10	1	-1E+10	1	-1E+10	1	-1E+10	1	-1E+10	1
4901784	69	C	05/25/2017	10:46	-132.371	43.615	0	319.90	0	5.6640	0	33.9780	4	26.790	0	317.098	0	99.6	4	32.7	4	-1E+10	1	-1E+10	1	-1E+10	1	-1E+10	1	-1E+10	1	-1E+10	1
4901784	69	C	05/25/2017	10:46	-132.371	43.615	0	322.70	0	5.6250	0	33.9820	4	26.798	0	319.872	0	97.8	4	32.0	4	-1E+10	1	-1E+10	1	-1E+10	1	-1E+10	1	-1E+10	1	-1E+10	1
4901784	69	C	05/25/2017	10:46	-132.371	43.615	0	325.40	0	5.5820	0	33.9820	4	26.803	0	322.546	0	96.3	4	31.5	4	-1E+10	1	-1E+10	1	-1E+10	1	-1E+10	1	-1E+10	1	-1E+10	1
4901784	69	C	05/25/2017	10:46	-132.371	43.615	0	327.20	0	5.5460	0	33.9840	4	26.809	0	324.329	0	95.4	4	31.2	4	-1E+10	1	-1E+10	1	-1E+10	1	-1E+10	1	-1E+10	1	-1E+10	1
4901784	69	C	05/25/2017	10:46	-132.371	43.615	0	330.00	0	5.5040	0	33.9850	4	26.815	0	327.102	0	93.9	4	30.7	4	-1E+10	1	-1E+10	1	-1E+10	1	-1E+10	1	-1E+10	1	-1E+10	1
4901784	69	C	05/25/2017	10:46	-132.371	43.615	0	332.60	0	5.4920	0	33.9880	4	26.819	0	329.677	0	92.3	4	30.2	4	-1E+10	1	-1E+10	1	-1E+10	1	-1E+10	1	-1E+10	1	-1E+10	1
4901784	69	C	05/25/2017	10:46	-132.371	43.615	0	334.50	0	5.4910	0	33.9900	4	26.820	0	331.559	0	91.4	4	29.9	4	-1E+10	1	-1E+10	1	-1E+10	1	-1E+10	1	-1E+10	1	-1E+10	1
4901784	69	C	05/25/2017	10:46	-132.371	43.615	0	337.30	0	5.4870	0	33.9930	4	26.823	0	334.332	0	90.2	4	29.5	4	-1E+10	1	-1E+10	1	-1E+10	1	-1E+10	1	-1E+10	1	-1E+10	1
4901784	69	C	05/25/2017	10:46	-132.371	43.615	0	340.10	0	5.4740	0	33.9940	4	26.826	0	337.105	0	89.0	4	29.1	4	-1E+10	1	-1E+10	1	-1E+10	1	-1E+10	1	-1E+10	1	-1E+10	1
4901784	69	C	05/25/2017	10:46	-132.371	43.615	0	342.00	0	5.4690	0	33.9940	4	26.826	0	338.987	0	88.3	4	28.8	4	-1E+10	1	-1E+10	1	-1E+10	1	-1E+10	1	-1E+10	1	-1E+10	1
4901784	69	C	05/25/2017	10:46	-132.371	43.615	0	344.80	0	5.4430	0	33.9960	4	26.831	0	341.760	0	87.2	4	28.4	4	-1E+10	1	-1E+10	1	-1E+10	1	-1E+10	1	-1E+10	1	-1E+10	1
4901784	69	C	05/25/2017	10:46	-132.371	43.615	0	347.60	0	5.4180	0	33.9980	4	26.836	0	344.533	0	86.2	4	28.1	4	-1E+10	1	-1E+10	1	-1E+10	1	-1E+10	1	-1E+10	1	-1E+10	1
4901784	69	C	05/25/2017	10:46	-132.371	43.615	0	349.50	0	5.4060	0	33.9980	4	26.837	0	346.414	0	85.7	4	27.9	4	-1E+10	1	-1E+10	1	-1E+10	1	-1E+10	1	-1E+10	1	-1E+10	1
4901784	69	C	05/25/2017	10:46	-132.371	43.615	0	352.30	0	5.3810	0	33.9990	4	26.841	0	349.187	0	84.9	4	27.7	4	-1E+10	1	-1E+10	1	-1E+10	1	-1E+10	1	-1E+10	1	-1E+10	1
4901784	69	C	05/25/2017	10:46	-132.371	43.615	0	355.20	0	5.3490	0	34.0010	4	26.846	0	352.059	0	84.0	4	27.3	4	-1E+10	1	-1E+10	1	-1E+10	1	-1E+10	1	-1E+10	1	-1E+10	1
4901784	69	C	05/25/2017	10:46	-132.371	43.615	0	357.10	0	5.3340	0	34.0020	4	26.849	0	353.941	0	83.3	4	27.1	4	-1E+10	1	-1E+10	1	-1E+10	1	-1E+10	1	-1E+10	1	-1E+10	1
4901784	69	C	05/25/2017	10:46	-132.371	43.615	0	359.80	0	5.3160	0	34.0030	4	26.852	0	356.615	0	82.4	4	26.8	4	-1E+10	1	-1E+10	1	-1E+10	1	-1E+10	1	-1E+10	1	-1E+10	1
4901784	69	C	05/25/2017	10:46	-132.371	43.615	0	362.70	0	5.2880	0	34.0050	4	26.857	0	359.486	0	81.4	4	26.5	4	-1E+10	1	-1E+10	1	-1E+10	1	-1E+10	1	-1E+10	1	-1E+10	1
4901784	69	C	05/25/2017	10:46	-132.371	43.615	0	364.50	0	5.2640	0	34.0070	4	26.861	0	361.269	0	80.7	4	26.2	4	-1E+10	1	-1E+10	1	-1E+10	1	-1E+10	1	-1E+10	1	-1E+10	1
4901784	69	C	05/25/2017	10:46	-132.371	43.615	0	367.40	0	5.2420	0	34.0100	4	26.866	0	364.141	0	79.6	4	25.9	4	-1E+10	1	-1E+10	1	-1E+10	1	-1E+10	1	-1E+10	1	-1E+10	1
4901784	69	C	05/25/2017	10:46	-132.371	43.615	0	370.30	0	5.2200	0	34.0110	4	26.869	0	367.012	0	78.3	4	25.4	4	-1E+10	1	-1E+10	1	-1E+10	1	-1E+10	1	-1E+10	1	-1E+10	1
4901784	69	C	05/25/2017	10:46	-132.371	43.615	0	372.20	0	5.2010	0	34.0130	4	26.873	0	368.894	0	77.6	4	25.2	4	-1E+10	1	-1E+10	1	-1E+10	1	-1E+10	1	-1E+10	1	-1E+10	1
4901784	69	C	05/25/2017	10:46	-132.371	43.615	0	375.10	0	5.1770	0	34.0160	4	26.878	0	371.765	0	76.8	4	24.9	4	-1E+10	1	-1E+10	1	-1E+10	1	-1E+10	1	-1E+10	1	-1E+10	1
4901784	69	C	05/25/2017	10:46	-132.371	43.615	0	378.00	0	5.1510	0	34.0200	4	26.885	0	374.637	0	75.9	4	24.6	4	-1E+10	1	-1E+10	1	-1E+10	1	-1E+10	1	-1E+10	1	-1E+10	1
4901784	69	C	05/25/2017	10:46	-132.371	43.615	0	379.80	0	5.1430	0	34.0210	4	26.886	0	376.419	0	75.1	4	24.3	4	-1E+10	1	-1E+10	1	-1E+10	1	-1E+10	1	-1E+10	1	-1E+10	1
4901784	69	C	05/25/2017	10:46	-132.371	43.615	0	382.60	0	5.1260	0	34.0230	4	26.890	0	379.192	0	73.6	4	23.8	4	-1E+10	1	-1E+10	1	-1E+10	1	-1E+10	1	-1E+10	1	-1E+10	1
4901784	69	C	05/25/2017	10:46	-132.371	43.615	0	385.50	0	5.0800	0	34.0290	4	26.900	0	382.063	0	72.1	4	23.3	4	-1E+10	1	-1E+10	1	-1E+10	1	-1E+10	1	-1E+10	1	-1E+10	1
4901784	69	C	05/25/2017	10:46	-132.371	43.615	0	387.40	0	5.0680	0	34.0310	4	26.903	0	383.945	0	71.8	4	23.2	4	-1E+10	1	-1E+10	1	-1E+10	1	-1E+10	1	-1E+10	1	-1E+10	1
4901784	69	C	05/25/2017	10:46	-132.371	43.615	0	389.30	0	5.0640	0	34.0310	4	26.903	0	385.826	0	71.3	4	23.1	4	-1E+10	1	-1E+10	1	-1E+10	1	-1E+10	1	-1E+10	1	-1E+10	1
4901784	69	C	05/25/2017	10:46	-132.371	43.615	0	392.40	0	5.0450	0	34.0330	4	26.907	0	388.895	0	70.2	4	22.7	4	-1E+10	1	-1E+10	1	-1E+10	1	-1E+10	1	-1E+10	1	-1E+10	1
4901784	69	C	05/25/2017	10:46	-132.371	43.615	0	395.30	0	5.0370	0	34.0330	4	26.908	0	391.767	0	69.0	4	22.3	4	-1E+10	1	-1E+10	1	-1E+10	1	-1E+10	1	-1E+10	1	-1E+10	1
4901784	69	C	05/25/2017	10:46	-132.371	43.615	0	397.70	0	5.0230	0	34.0340	4	26.910	0	394.143	0	68.0	4	22.0	4	-1E+10	1	-1E+10	1	-1E+10	1	-1E+10	1	-1E+10	1	-1E+10	1
4901784	69	C	05/25/2017	10:46	-132.371	43.615	0	400.10	0	5.0140	0	34.0350	4	26.912	0	396.519	0	66.9	4	21.6	4	-1E+10	1	-1E+10	1	-1E+10	1	-1E+10	1	-1E+10	1	-1E+10	1
4901784	69	C	05/25/2017	10:46	-132.371	43.615	0	402.50	0	4.9840	0	34.0380	4	26.918	0	398.895	0	65.6	4	21.2	4	-1E+10	1	-1E+10	1	-1E+10	1	-1E+10	1	-1E+10	1	-1E+10	1
4901784	69	C	05/25/2017	10:46	-132.371	43.615	0	405.00	0	4.9570	0	34.0430	4	26.925	0	401.371	0	64.6	4	20.8	4	-1E+10	1	-1E+10	1	-1E+10	1	-1E+10	1	-1E+10	1	-1E+10	1
4901784	69	C	05/25/2017	10:46	-132.371	43.615	0	407.50	0	4.9530	0	34.0440	4	26.926	0	403.846	0	63.5	4	20.5	4	-1E+10	1	-1E+10	1	-1E+10	1	-1E+10	1	-1E+10	1	-1E+10	1
4901784	69	C	05/25/2017	10:46	-132.371	43.615	0	410.00	0	4.9400	0	34.0460	4	26.929	0	406.321	0	62.5	4	20.2	4	-1E+10	1	-1E+10	1	-1E+10	1	-1E+10	1	-1E+10	1	-1E+10	1
4901784	69	C	05/25/2017	10:46	-132.371	43.615	0	412.40	0	4.9270	0	34.0470	4	26.932	0	408.697	0	61.7	4	19.9	4	-1E+10	1	-1E+10	1	-1E+10	1	-1E+10	1	-1E+10	1	-1E+10	1
4901784	69	C	05/25/2017	10:46	-132.371	43.615	0	414.90	0	4.9120	0	34.0500	4	26.936	0	411.172	0	60.7	4	19.6	4	-1E+10	1	-1E+10	1	-1E+10	1	-1E+10	1	-1E+10	1	-1E+10	1
4901784	69	C	05/25/2017	10:46	-132.371	43.615	0	417.50	0	4.8920	0	34.0530	4	26.941	0	413.746	0	59.9	4	19.3	4	-1E+10	1	-1E+10	1	-1E+10	1	-1E+10	1	-1E+10	1	-1E+10	1
4901784	69	C	05/25/2017	10:46	-132.371	43.615	0	420.00	0	4.8780	0	34.0550	4	26.944	0	416.221	0	59.3	4	19.1	4	-1E+10	1	-1E+10	1	-1E+10	1	-1E+10	1	-1E+10	1	-1E+10	1
4901784	69	C	05/25/2017	10:46	-132.371	43.615	0	422.50	0	4.8640	0	34.0570	4	26.947	0	418.696	0	58.7	4	18.9	4	-1E+10	1	-1E+10	1	-1E+10	1	-1E+10	1	-1E+10	1	-1E+10	1
4901784	69	C	05/25/2017	10:46	-132.371	43.615	0	425.10	0	4.8440	0	34.0590	4	26.951	0	421.270	0	58.2	4	18.7	4	-1E+10	1	-1E+10	1	-1E+10	1	-1E+10	1	-1E+10	1	-1E+10	1
4901784	69	C	05/25/2017	10:46	-132.371	43.615	0	427.60	0	4.8320	0	34.0600	4	26.953	0	423.745	0	57.3	4	18.4	4	-1E+10	1	-1E+10	1	-1E+10	1	-1E+10	1	-1E+10	1	-1E+10	1
4901784	69	C	05/25/2017	10:46	-132.371	43.615	0	430.10	0	4.8140	0	34.0630	4	26.957	0	426.220	0	56.2	4	18.1	4	-1E+10	1	-1E+10	1	-1E+10	1	-1E+10	1	-1E+10	1	-1E+10	1
4901784	69	C	05/25/2017	10:46	-132.371	43.615	0	432.70	0	4.7930	0	34.0660	4	26.962	0	428.794	0	55.4	4	17.8	4	-1E+10	1	-1E+10	1	-1E+10	1	-1E+10	1	-1E+10	1	-1E+10	1
4901784	69	C	05/25/2017	10:46	-132.371	43.615	0	435.20	0	4.7810	0	34.0680	4	26.965	0	431.269	0	54.4	4	17.5	4	-1E+10	1	-1E+10	1	-1E+10	1	-1E+10	1	-1E+10	1	-1E+10	1
4901784	69	C	05/25/2017	10:46	-132.371	43.615	0	437.80	0	4.7750	0	34.0710	4	26.968	0	433.842	0	53.1	4	17.1	4	-1E+10	1	-1E+10	1	-1E+10	1	-1E+10	1	-1E+10	1	-1E+10	1
4901784	69	C	05/25/2017	10:46	-132.371	43.615	0	440.50	0	4.7650	0	34.0730	4	26.971	0	436.515	0	52.2	4	16.8	4	-1E+10	1	-1E+10	1	-1E+10	1	-1E+10	1	-1E+10	1	-1E+10	1
4901784	69	C	05/25/2017	10:46	-132.371	43.615	0	442.20	0	4.7500	0	34.0760	4	26.975	0	438.198	0	51.7	4	16.6	4	-1E+10	1	-1E+10	1	-1E+10	1	-1E+10	1	-1E+10	1	-1E+10	1
4901784	69	C	05/25/2017	10:46	-132.371	43.615	0	444.70	0	4.7410	0	34.0780	4	26.977	0	440.673	0	50.8	4	16.3	4	-1E+10	1	-1E+10	1	-1E+10	1	-1E+10	1	-1E+10	1	-1E+10	1
4901784	69	C	05/25/2017	10:46	-132.371	43.615	0	447.40	0	4.7250	0	34.0820	4	26.982	0	443.345	0	49.8	4	16.0	4	-1E+10	1	-1E+10	1	-1E+10	1	-1E+10	1	-1E+10	1	-1E+10	1
4901784	69	C	05/25/2017	10:46	-132.371	43.615	0	450.00	0	4.7090	0	34.0860	4	26.987	0	445.919	0	48.7	4	15.6	4	-1E+10	1	-1E+10	1	-1E+10	1	-1E+10	1	-1E+10	1	-1E+10	1
4901784	69	C	05/25/2017	10:46	-132.371	43.615	0	452.70	0	4.6990	0	34.0880	4	26.990	0	448.592	0	47.7	4	15.3	4	-1E+10	1	-1E+10	1	-1E+10	1	-1E+10	1	-1E+10	1	-1E+10	1
4901784	69	C	05/25/2017	10:46	-132.371	43.615	0	454.50	0	4.6830	0	34.0930	4	26.996	0	450.373	0	47.2	4	15.1	4	-1E+10	1	-1E+10	1	-1E+10	1	-1E+10	1	-1E+10	1	-1E+10	1
4901784	69	C	05/25/2017	10:46	-132.371	43.615	0	457.10	0	4.6780	0	34.0940	4	26.997	0	452.947	0	46.3	4	14.9	4	-1E+10	1	-1E+10	1	-1E+10	1	-1E+10	1	-1E+10	1	-1E+10	1
4901784	69	C	05/25/2017	10:46	-132.371	43.615	0	459.80	0	4.6610	0	34.0980	4	27.002	0	455.619	0	45.5	4	14.6	4	-1E+10	1	-1E+10	1	-1E+10	1	-1E+10	1	-1E+10	1	-1E+10	1
4901784	69	C	05/25/2017	10:46	-132.371	43.615	0	462.60	0	4.6500	0	34.1020	4	27.007	0	458.391	0	44.7	4	14.3	4	-1E+10	1	-1E+10	1	-1E+10	1	-1E+10	1	-1E+10	1	-1E+10	1
4901784	69	C	05/25/2017	10:46	-132.371	43.615	0	465.20	0	4.6440	0	34.1030	4	27.008	0	460.964	0	43.9	4	14.1	4	-1E+10	1	-1E+10	1	-1E+10	1	-1E+10	1	-1E+10	1	-1E+10	1
4901784	69	C	05/25/2017	10:46	-132.371	43.615	0	467.00	0	4.6400	0	34.1050	4	27.010	0	462.746	0	43.3	4	13.9	4	-1E+10	1	-1E+10	1	-1E+10	1	-1E+10	1	-1E+10	1	-1E+10	1
4901784	69	C	05/25/2017	10:46	-132.371	43.615	0	469.80	0	4.6330	0	34.1080	4	27.013	0	465.517	0	42.3	4	13.6	4	-1E+10	1	-1E+10	1	-1E+10	1	-1E+10	1	-1E+10	1	-1E+10	1
4901784	69	C	05/25/2017	10:46	-132.371	43.615	0	472.50	0	4.6240	0	34.1120	4	27.017	0	468.190	0	41.4	4	13.3	4	-1E+10	1	-1E+10	1	-1E+10	1	-1E+10	1	-1E+10	1	-1E+10	1
4901784	69	C	05/25/2017	10:46	-132.371	43.615	0	475.20	0	4.6180	0	34.1150	4	27.021	0	470.862	0	40.9	4	13.1	4	-1E+10	1	-1E+10	1	-1E+10	1	-1E+10	1	-1E+10	1	-1E+10	1
4901784	69	C	05/25/2017	10:46	-132.371	43.615	0	478.00	0	4.6140	0	34.1160	4	27.022	0	473.633	0	40.5	4	13.0	4	-1E+10	1	-1E+10	1	-1E+10	1	-1E+10	1	-1E+10	1	-1E+10	1
4901784	69	C	05/25/2017	10:46	-132.371	43.615	0	479.90	0	4.6090	0	34.1170	4	27.023	0	475.514	0	40.1	4	12.8	4	-1E+10	1	-1E+10	1	-1E+10	1	-1E+10	1	-1E+10	1	-1E+10	1
4901784	69	C	05/25/2017	10:46	-132.371	43.615	0	482.60	0	4.6030	0	34.1190	4	27.025	0	478.186	0	39.6	4	12.7	4	-1E+10	1	-1E+10	1	-1E+10	1	-1E+10	1	-1E+10	1	-1E+10	1
4901784	69	C	05/25/2017	10:46	-132.371	43.615	0	485.40	0	4.5940	0	34.1210	4	27.028	0	480.957	0	39.1	4	12.5	4	-1E+10	1	-1E+10	1	-1E+10	1	-1E+10	1	-1E+10	1	-1E+10	1
4901784	69	C	05/25/2017	10:46	-132.371	43.615	0	487.20	0	4.5850	0	34.1220	4	27.030	0	482.739	0	38.6	4	12.4	4	-1E+10	1	-1E+10	1	-1E+10	1	-1E+10	1	-1E+10	1	-1E+10	1
4901784	69	C	05/25/2017	10:46	-132.371	43.615	0	490.00	0	4.5670	0	34.1270	4	27.036	0	485.510	0	37.9	4	12.1	4	-1E+10	1	-1E+10	1	-1E+10	1	-1E+10	1	-1E+10	1	-1E+10	1
4901784	69	C	05/25/2017	10:46	-132.371	43.615	0	492.90	0	4.5560	0	34.1300	4	27.039	0	488.380	0	37.4	4	12.0	4	-1E+10	1	-1E+10	1	-1E+10	1	-1E+10	1	-1E+10	1	-1E+10	1
4901784	69	C	05/25/2017	10:46	-132.371	43.615	0	494.80	0	4.5560	0	34.1300	4	27.039	0	490.260	0	37.1	4	11.9	4	-1E+10	1	-1E+10	1	-1E+10	1	-1E+10	1	-1E+10	1	-1E+10	1
4901784	69	C	05/25/2017	10:46	-132.371	43.615	0	497.50	0	4.5450	0	34.1320	4	27.042	0	492.932	0	36.7	4	11.8	4	-1E+10	1	-1E+10	1	-1E+10	1	-1E+10	1	-1E+10	1	-1E+10	1
4901784	69	C	05/25/2017	10:46	-132.371	43.615	0	500.30	0	4.5240	0	34.1360	4	27.048	0	495.703	0	36.4	4	11.6	4	-1E+10	1	-1E+10	1	-1E+10	1	-1E+10	1	-1E+10	1	-1E+10	1
4901784	69	C	05/25/2017	10:46	-132.371	43.615	0	504.90	0	4.5040	0	34.1380	4	27.051	0	500.255	0	35.7	4	11.4	4	-1E+10	1	-1E+10	1	-1E+10	1	-1E+10	1	-1E+10	1	-1E+10	1
4901784	69	C	05/25/2017	10:46	-132.371	43.615	0	509.50	0	4.4720	0	34.1420	4	27.058	0	504.807	0	35.1	4	11.2	4	-1E+10	1	-1E+10	1	-1E+10	1	-1E+10	1	-1E+10	1	-1E+10	1
4901784	69	C	05/25/2017	10:46	-132.371	43.615	0	515.10	0	4.4480	0	34.1480	4	27.065	0	510.349	0	34.2	4	10.9	4	-1E+10	1	-1E+10	1	-1E+10	1	-1E+10	1	-1E+10	1	-1E+10	1
4901784	69	C	05/25/2017	10:46	-132.371	43.615	0	519.70	0	4.4350	0	34.1510	4	27.069	0	514.901	0	33.6	4	10.7	4	-1E+10	1	-1E+10	1	-1E+10	1	-1E+10	1	-1E+10	1	-1E+10	1
4901784	69	C	05/25/2017	10:46	-132.371	43.615	0	524.40	0	4.4230	0	34.1540	4	27.073	0	519.551	0	33.1	4	10.6	4	-1E+10	1	-1E+10	1	-1E+10	1	-1E+10	1	-1E+10	1	-1E+10	1
4901784	69	C	05/25/2017	10:46	-132.371	43.615	0	530.10	0	4.4090	0	34.1570	4	27.077	0	525.191	0	32.4	4	10.3	4	-1E+10	1	-1E+10	1	-1E+10	1	-1E+10	1	-1E+10	1	-1E+10	1
4901784	69	C	05/25/2017	10:46	-132.371	43.615	0	534.80	0	4.3950	0	34.1600	4	27.081	0	529.842	0	31.7	4	10.1	4	-1E+10	1	-1E+10	1	-1E+10	1	-1E+10	1	-1E+10	1	-1E+10	1
4901784	69	C	05/25/2017	10:46	-132.371	43.615	0	539.40	0	4.3860	0	34.1620	4	27.083	0	534.393	0	30.8	4	9.8	4	-1E+10	1	-1E+10	1	-1E+10	1	-1E+10	1	-1E+10	1	-1E+10	1
4901784	69	C	05/25/2017	10:46	-132.371	43.615	0	545.00	0	4.3720	0	34.1670	4	27.089	0	539.934	0	29.2	4	9.3	4	-1E+10	1	-1E+10	1	-1E+10	1	-1E+10	1	-1E+10	1	-1E+10	1
4901784	69	C	05/25/2017	10:46	-132.371	43.615	0	550.60	0	4.3660	0	34.1750	4	27.096	0	545.475	0	26.9	4	8.6	4	-1E+10	1	-1E+10	1	-1E+10	1	-1E+10	1	-1E+10	1	-1E+10	1
4901784	69	C	05/25/2017	10:46	-132.371	43.615	0	555.30	0	4.3280	0	34.1880	4	27.110	0	550.125	0	25.5	4	8.1	4	-1E+10	1	-1E+10	1	-1E+10	1	-1E+10	1	-1E+10	1	-1E+10	1
4901784	69	C	05/25/2017	10:46	-132.371	43.615	0	560.20	0	4.3150	0	34.1940	4	27.117	0	554.973	0	24.8	4	7.9	4	-1E+10	1	-1E+10	1	-1E+10	1	-1E+10	1	-1E+10	1	-1E+10	1
4901784	69	C	05/25/2017	10:46	-132.371	43.615	0	564.90	0	4.3050	0	34.1970	4	27.120	0	559.622	0	24.1	4	7.7	4	-1E+10	1	-1E+10	1	-1E+10	1	-1E+10	1	-1E+10	1	-1E+10	1
4901784	69	C	05/25/2017	10:46	-132.371	43.615	0	569.60	0	4.2850	0	34.2040	4	27.128	0	564.272	0	23.5	4	7.5	4	-1E+10	1	-1E+10	1	-1E+10	1	-1E+10	1	-1E+10	1	-1E+10	1
4901784	69	C	05/25/2017	10:46	-132.371	43.615	0	575.00	0	4.2740	0	34.2080	4	27.132	0	569.614	0	23.0	4	7.3	4	-1E+10	1	-1E+10	1	-1E+10	1	-1E+10	1	-1E+10	1	-1E+10	1
4901784	69	C	05/25/2017	10:46	-132.371	43.615	0	579.30	0	4.2710	0	34.2090	4	27.133	0	573.868	0	22.5	4	7.1	4	-1E+10	1	-1E+10	1	-1E+10	1	-1E+10	1	-1E+10	1	-1E+10	1
4901784	69	C	05/25/2017	10:46	-132.371	43.615	0	585.00	0	4.2610	0	34.2150	4	27.139	0	579.507	0	21.6	4	6.9	4	-1E+10	1	-1E+10	1	-1E+10	1	-1E+10	1	-1E+10	1	-1E+10	1
4901784	69	C	05/25/2017	10:46	-132.371	43.615	0	590.80	0	4.2560	0	34.2210	4	27.144	0	585.244	0	20.9	4	6.6	4	-1E+10	1	-1E+10	1	-1E+10	1	-1E+10	1	-1E+10	1	-1E+10	1
4901784	69	C	05/25/2017	10:46	-132.371	43.615	0	595.80	0	4.2500	0	34.2240	4	27.148	0	590.190	0	20.4	4	6.5	4	-1E+10	1	-1E+10	1	-1E+10	1	-1E+10	1	-1E+10	1	-1E+10	1
4901784	69	C	05/25/2017	10:46	-132.371	43.615	0	600.80	0	4.2430	0	34.2280	4	27.151	0	595.136	0	19.8	4	6.3	4	-1E+10	1	-1E+10	1	-1E+10	1	-1E+10	1	-1E+10	1	-1E+10	1
4901784	69	C	05/25/2017	10:46	-132.371	43.615	0	605.70	0	4.2270	0	34.2330	4	27.157	0	599.982	0	19.3	4	6.1	4	-1E+10	1	-1E+10	1	-1E+10	1	-1E+10	1	-1E+10	1	-1E+10	1
4901784	69	C	05/25/2017	10:46	-132.371	43.615	0	610.80	0	4.2060	0	34.2370	4	27.163	0	605.027	0	18.9	4	6.0	4	-1E+10	1	-1E+10	1	-1E+10	1	-1E+10	1	-1E+10	1	-1E+10	1
4901784	69	C	05/25/2017	10:46	-132.371	43.615	0	615.00	0	4.1940	0	34.2390	4	27.165	0	609.181	0	18.5	4	5.9	4	-1E+10	1	-1E+10	1	-1E+10	1	-1E+10	1	-1E+10	1	-1E+10	1
4901784	69	C	05/25/2017	10:46	-132.371	43.615	0	619.30	0	4.1720	0	34.2450	4	27.173	0	613.434	0	18.2	4	5.8	4	-1E+10	1	-1E+10	1	-1E+10	1	-1E+10	1	-1E+10	1	-1E+10	1
4901784	69	C	05/25/2017	10:46	-132.371	43.615	0	624.60	0	4.1590	0	34.2490	4	27.177	0	618.676	0	17.7	4	5.6	4	-1E+10	1	-1E+10	1	-1E+10	1	-1E+10	1	-1E+10	1	-1E+10	1
4901784	69	C	05/25/2017	10:46	-132.371	43.615	0	629.80	0	4.1480	0	34.2540	4	27.182	0	623.819	0	17.3	4	5.5	4	-1E+10	1	-1E+10	1	-1E+10	1	-1E+10	1	-1E+10	1	-1E+10	1
4901784	69	C	05/25/2017	10:46	-132.371	43.615	0	635.00	0	4.1360	0	34.2590	4	27.188	0	628.962	0	16.8	4	5.3	4	-1E+10	1	-1E+10	1	-1E+10	1	-1E+10	1	-1E+10	1	-1E+10	1
4901784	69	C	05/25/2017	10:46	-132.371	43.615	0	640.20	0	4.1290	0	34.2630	4	27.192	0	634.104	0	16.5	4	5.2	4	-1E+10	1	-1E+10	1	-1E+10	1	-1E+10	1	-1E+10	1	-1E+10	1
4901784	69	C	05/25/2017	10:46	-132.371	43.615	0	645.50	0	4.1170	0	34.2660	4	27.195	0	639.346	0	16.3	4	5.2	4	-1E+10	1	-1E+10	1	-1E+10	1	-1E+10	1	-1E+10	1	-1E+10	1
4901784	69	C	05/25/2017	10:46	-132.371	43.615	0	649.90	0	4.1010	0	34.2700	4	27.200	0	643.697	0	16.0	4	5.1	4	-1E+10	1	-1E+10	1	-1E+10	1	-1E+10	1	-1E+10	1	-1E+10	1
4901784	69	C	05/25/2017	10:46	-132.371	43.615	0	654.40	0	4.0870	0	34.2730	4	27.204	0	648.147	0	15.7	4	5.0	4	-1E+10	1	-1E+10	1	-1E+10	1	-1E+10	1	-1E+10	1	-1E+10	1
4901784	69	C	05/25/2017	10:46	-132.371	43.615	0	659.70	0	4.0670	0	34.2790	4	27.211	0	653.388	0	15.4	4	4.9	4	-1E+10	1	-1E+10	1	-1E+10	1	-1E+10	1	-1E+10	1	-1E+10	1
4901784	69	C	05/25/2017	10:46	-132.371	43.615	0	665.20	0	4.0500	0	34.2820	4	27.215	0	658.827	0	15.2	4	4.8	4	-1E+10	1	-1E+10	1	-1E+10	1	-1E+10	1	-1E+10	1	-1E+10	1
4901784	69	C	05/25/2017	10:46	-132.371	43.615	0	669.90	0	4.0420	0	34.2850	4	27.218	0	663.474	0	15.0	4	4.7	4	-1E+10	1	-1E+10	1	-1E+10	1	-1E+10	1	-1E+10	1	-1E+10	1
4901784	69	C	05/25/2017	10:46	-132.371	43.615	0	674.50	0	4.0330	0	34.2890	4	27.222	0	668.023	0	14.7	4	4.7	4	-1E+10	1	-1E+10	1	-1E+10	1	-1E+10	1	-1E+10	1	-1E+10	1
4901784	69	C	05/25/2017	10:46	-132.371	43.615	0	680.00	0	4.0270	0	34.2910	4	27.225	0	673.461	0	14.5	4	4.6	4	-1E+10	1	-1E+10	1	-1E+10	1	-1E+10	1	-1E+10	1	-1E+10	1
4901784	69	C	05/25/2017	10:46	-132.371	43.615	0	685.60	0	4.0140	0	34.2960	4	27.230	0	678.998	0	14.2	4	4.5	4	-1E+10	1	-1E+10	1	-1E+10	1	-1E+10	1	-1E+10	1	-1E+10	1
4901784	69	C	05/25/2017	10:46	-132.371	43.615	0	691.00	0	3.9990	0	34.3020	4	27.236	0	684.337	0	14.0	4	4.4	4	-1E+10	1	-1E+10	1	-1E+10	1	-1E+10	1	-1E+10	1	-1E+10	1
4901784	69	C	05/25/2017	10:46	-132.371	43.615	0	695.40	0	3.9930	0	34.3030	4	27.238	0	688.688	0	13.8	4	4.4	4	-1E+10	1	-1E+10	1	-1E+10	1	-1E+10	1	-1E+10	1	-1E+10	1
4901784	69	C	05/25/2017	10:46	-132.371	43.615	0	700.20	0	3.9780	0	34.3070	4	27.242	0	693.433	0	13.7	4	4.3	4	-1E+10	1	-1E+10	1	-1E+10	1	-1E+10	1	-1E+10	1	-1E+10	1
4901784	69	C	05/25/2017	10:46	-132.371	43.615	0	705.00	0	3.9710	0	34.3100	4	27.246	0	698.179	0	13.6	4	4.3	4	-1E+10	1	-1E+10	1	-1E+10	1	-1E+10	1	-1E+10	1	-1E+10	1
4901784	69	C	05/25/2017	10:46	-132.371	43.615	0	709.90	0	3.9650	0	34.3110	4	27.247	0	703.023	0	13.5	4	4.3	4	-1E+10	1	-1E+10	1	-1E+10	1	-1E+10	1	-1E+10	1	-1E+10	1
4901784	69	C	05/25/2017	10:46	-132.371	43.615	0	714.80	0	3.9510	0	34.3150	4	27.252	0	707.867	0	13.3	4	4.2	4	-1E+10	1	-1E+10	1	-1E+10	1	-1E+10	1	-1E+10	1	-1E+10	1
4901784	69	C	05/25/2017	10:46	-132.371	43.615	0	719.70	0	3.9360	0	34.3180	4	27.256	0	712.711	0	13.2	4	4.2	4	-1E+10	1	-1E+10	1	-1E+10	1	-1E+10	1	-1E+10	1	-1E+10	1
4901784	69	C	05/25/2017	10:46	-132.371	43.615	0	724.60	0	3.9290	0	34.3200	4	27.258	0	717.555	0	13.1	4	4.1	4	-1E+10	1	-1E+10	1	-1E+10	1	-1E+10	1	-1E+10	1	-1E+10	1
4901784	69	C	05/25/2017	10:46	-132.371	43.615	0	729.70	0	3.9180	0	34.3230	4	27.262	0	722.597	0	13.0	4	4.1	4	-1E+10	1	-1E+10	1	-1E+10	1	-1E+10	1	-1E+10	1	-1E+10	1
4901784	69	C	05/25/2017	10:46	-132.371	43.615	0	734.80	0	3.9060	0	34.3260	4	27.265	0	727.638	0	12.9	4	4.1	4	-1E+10	1	-1E+10	1	-1E+10	1	-1E+10	1	-1E+10	1	-1E+10	1
4901784	69	C	05/25/2017	10:46	-132.371	43.615	0	739.80	0	3.8870	0	34.3310	4	27.271	0	732.581	0	12.7	4	4.0	4	-1E+10	1	-1E+10	1	-1E+10	1	-1E+10	1	-1E+10	1	-1E+10	1
4901784	69	C	05/25/2017	10:46	-132.371	43.615	0	745.00	0	3.8760	0	34.3330	4	27.274	0	737.721	0	12.7	4	4.0	4	-1E+10	1	-1E+10	1	-1E+10	1	-1E+10	1	-1E+10	1	-1E+10	1
4901784	69	C	05/25/2017	10:46	-132.371	43.615	0	750.10	0	3.8720	0	34.3340	4	27.275	0	742.762	0	12.6	4	4.0	4	-1E+10	1	-1E+10	1	-1E+10	1	-1E+10	1	-1E+10	1	-1E+10	1
4901784	69	C	05/25/2017	10:46	-132.371	43.615	0	755.30	0	3.8630	0	34.3360	4	27.278	0	747.902	0	12.5	4	3.9	4	-1E+10	1	-1E+10	1	-1E+10	1	-1E+10	1	-1E+10	1	-1E+10	1
4901784	69	C	05/25/2017	10:46	-132.371	43.615	0	760.40	0	3.8490	0	34.3400	4	27.282	0	752.943	0	12.4	4	3.9	4	-1E+10	1	-1E+10	1	-1E+10	1	-1E+10	1	-1E+10	1	-1E+10	1
4901784	69	C	05/25/2017	10:46	-132.371	43.615	0	765.60	0	3.8360	0	34.3430	4	27.286	0	758.082	0	12.2	4	3.9	4	-1E+10	1	-1E+10	1	-1E+10	1	-1E+10	1	-1E+10	1	-1E+10	1
4901784	69	C	05/25/2017	10:46	-132.371	43.615	0	769.90	0	3.8210	0	34.3480	4	27.291	0	762.332	0	12.1	4	3.8	4	-1E+10	1	-1E+10	1	-1E+10	1	-1E+10	1	-1E+10	1	-1E+10	1
4901784	69	C	05/25/2017	10:46	-132.371	43.615	0	774.30	0	3.8050	0	34.3520	4	27.296	0	766.681	0	12.0	4	3.8	4	-1E+10	1	-1E+10	1	-1E+10	1	-1E+10	1	-1E+10	1	-1E+10	1
4901784	69	C	05/25/2017	10:46	-132.371	43.615	0	779.50	0	3.7900	0	34.3560	4	27.301	0	771.820	0	11.9	4	3.7	4	-1E+10	1	-1E+10	1	-1E+10	1	-1E+10	1	-1E+10	1	-1E+10	1
4901784	69	C	05/25/2017	10:46	-132.371	43.615	0	784.70	0	3.7710	0	34.3610	4	27.307	0	776.959	0	11.8	4	3.7	4	-1E+10	1	-1E+10	1	-1E+10	1	-1E+10	1	-1E+10	1	-1E+10	1
4901784	69	C	05/25/2017	10:46	-132.371	43.615	0	789.90	0	3.7550	0	34.3660	4	27.313	0	782.098	0	11.6	4	3.7	4	-1E+10	1	-1E+10	1	-1E+10	1	-1E+10	1	-1E+10	1	-1E+10	1
4901784	69	C	05/25/2017	10:46	-132.371	43.615	0	795.00	0	3.7260	0	34.3730	4	27.321	0	787.138	0	11.5	4	3.6	4	-1E+10	1	-1E+10	1	-1E+10	1	-1E+10	1	-1E+10	1	-1E+10	1
4901784	69	C	05/25/2017	10:46	-132.371	43.615	0	800.20	0	3.6960	0	34.3810	4	27.330	0	792.277	0	11.4	4	3.6	4	-1E+10	1	-1E+10	1	-1E+10	1	-1E+10	1	-1E+10	1	-1E+10	1
4901784	69	C	05/25/2017	10:46	-132.371	43.615	0	805.50	0	3.6850	0	34.3830	4	27.333	0	797.514	0	11.4	4	3.6	4	-1E+10	1	-1E+10	1	-1E+10	1	-1E+10	1	-1E+10	1	-1E+10	1
4901784	69	C	05/25/2017	10:46	-132.371	43.615	0	809.80	0	3.6480	0	34.3940	4	27.345	0	801.764	0	11.3	4	3.6	4	-1E+10	1	-1E+10	1	-1E+10	1	-1E+10	1	-1E+10	1	-1E+10	1
4901784	69	C	05/25/2017	10:46	-132.371	43.615	0	814.30	0	3.6380	0	34.3950	4	27.347	0	806.210	0	11.3	4	3.6	4	-1E+10	1	-1E+10	1	-1E+10	1	-1E+10	1	-1E+10	1	-1E+10	1
4901784	69	C	05/25/2017	10:46	-132.371	43.615	0	819.60	0	3.5950	0	34.4060	4	27.360	0	811.447	0	11.4	4	3.6	4	-1E+10	1	-1E+10	1	-1E+10	1	-1E+10	1	-1E+10	1	-1E+10	1
4901784	69	C	05/25/2017	10:46	-132.371	43.615	0	824.90	0	3.5720	0	34.4120	4	27.367	0	816.684	0	11.4	4	3.6	4	-1E+10	1	-1E+10	1	-1E+10	1	-1E+10	1	-1E+10	1	-1E+10	1
4901784	69	C	05/25/2017	10:46	-132.371	43.615	0	830.40	0	3.5670	0	34.4140	4	27.369	0	822.119	0	11.4	4	3.6	4	-1E+10	1	-1E+10	1	-1E+10	1	-1E+10	1	-1E+10	1	-1E+10	1
4901784	69	C	05/25/2017	10:46	-132.371	43.615	0	834.90	0	3.5560	0	34.4170	4	27.373	0	826.565	0	11.4	4	3.6	4	-1E+10	1	-1E+10	1	-1E+10	1	-1E+10	1	-1E+10	1	-1E+10	1
4901784	69	C	05/25/2017	10:46	-132.371	43.615	0	839.40	0	3.5430	0	34.4200	4	27.377	0	831.011	0	11.5	4	3.6	4	-1E+10	1	-1E+10	1	-1E+10	1	-1E+10	1	-1E+10	1	-1E+10	1
4901784	69	C	05/25/2017	10:46	-132.371	43.615	0	844.90	0	3.5250	0	34.4250	4	27.382	0	836.445	0	11.5	4	3.6	4	-1E+10	1	-1E+10	1	-1E+10	1	-1E+10	1	-1E+10	1	-1E+10	1
4901784	69	C	05/25/2017	10:46	-132.371	43.615	0	850.40	0	3.5180	0	34.4270	4	27.385	0	841.879	0	11.5	4	3.6	4	-1E+10	1	-1E+10	1	-1E+10	1	-1E+10	1	-1E+10	1	-1E+10	1
4901784	69	C	05/25/2017	10:46	-132.371	43.615	0	854.90	0	3.5160	0	34.4280	4	27.386	0	846.325	0	11.6	4	3.6	4	-1E+10	1	-1E+10	1	-1E+10	1	-1E+10	1	-1E+10	1	-1E+10	1
4901784	69	C	05/25/2017	10:46	-132.371	43.615	0	859.40	0	3.5110	0	34.4290	4	27.387	0	850.770	0	11.6	4	3.6	4	-1E+10	1	-1E+10	1	-1E+10	1	-1E+10	1	-1E+10	1	-1E+10	1
4901784	69	C	05/25/2017	10:46	-132.371	43.615	0	864.90	0	3.5030	0	34.4310	4	27.389	0	856.204	0	11.6	4	3.6	4	-1E+10	1	-1E+10	1	-1E+10	1	-1E+10	1	-1E+10	1	-1E+10	1
4901784	69	C	05/25/2017	10:46	-132.371	43.615	0	870.40	0	3.4990	0	34.4320	4	27.391	0	861.637	0	11.7	4	3.7	4	-1E+10	1	-1E+10	1	-1E+10	1	-1E+10	1	-1E+10	1	-1E+10	1
4901784	69	C	05/25/2017	10:46	-132.371	43.615	0	874.90	0	3.4940	0	34.4330	4	27.392	0	866.083	0	11.7	4	3.7	4	-1E+10	1	-1E+10	1	-1E+10	1	-1E+10	1	-1E+10	1	-1E+10	1
4901784	69	C	05/25/2017	10:46	-132.371	43.615	0	879.90	0	3.4760	0	34.4390	4	27.399	0	871.022	0	11.8	4	3.7	4	-1E+10	1	-1E+10	1	-1E+10	1	-1E+10	1	-1E+10	1	-1E+10	1
4901784	69	C	05/25/2017	10:46	-132.371	43.615	0	884.90	0	3.4670	0	34.4410	4	27.401	0	875.961	0	11.9	4	3.7	4	-1E+10	1	-1E+10	1	-1E+10	1	-1E+10	1	-1E+10	1	-1E+10	1
4901784	69	C	05/25/2017	10:46	-132.371	43.615	0	889.70	0	3.4620	0	34.4430	4	27.403	0	880.702	0	11.9	4	3.7	4	-1E+10	1	-1E+10	1	-1E+10	1	-1E+10	1	-1E+10	1	-1E+10	1
4901784	69	C	05/25/2017	10:46	-132.371	43.615	0	894.60	0	3.4580	0	34.4440	4	27.404	0	885.542	0	12.0	4	3.7	4	-1E+10	1	-1E+10	1	-1E+10	1	-1E+10	1	-1E+10	1	-1E+10	1
4901784	69	C	05/25/2017	10:46	-132.371	43.615	0	899.50	0	3.4510	0	34.4450	4	27.406	0	890.382	0	12.1	4	3.8	4	-1E+10	1	-1E+10	1	-1E+10	1	-1E+10	1	-1E+10	1	-1E+10	1
4901784	69	C	05/25/2017	10:46	-132.371	43.615	0	904.30	0	3.4360	0	34.4500	4	27.411	0	895.123	0	12.3	4	3.8	4	-1E+10	1	-1E+10	1	-1E+10	1	-1E+10	1	-1E+10	1	-1E+10	1
4901784	69	C	05/25/2017	10:46	-132.371	43.615	0	909.20	0	3.4180	0	34.4550	4	27.417	0	899.963	0	12.4	4	3.9	4	-1E+10	1	-1E+10	1	-1E+10	1	-1E+10	1	-1E+10	1	-1E+10	1
4901784	69	C	05/25/2017	10:46	-132.371	43.615	0	914.30	0	3.4070	0	34.4580	4	27.420	0	905.000	0	12.5	4	3.9	4	-1E+10	1	-1E+10	1	-1E+10	1	-1E+10	1	-1E+10	1	-1E+10	1
4901784	69	C	05/25/2017	10:46	-132.371	43.615	0	919.20	0	3.4010	0	34.4600	4	27.423	0	909.840	0	12.6	4	3.9	4	-1E+10	1	-1E+10	1	-1E+10	1	-1E+10	1	-1E+10	1	-1E+10	1
4901784	69	C	05/25/2017	10:46	-132.371	43.615	0	924.20	0	3.3910	0	34.4620	4	27.425	0	914.778	0	12.8	4	4.0	4	-1E+10	1	-1E+10	1	-1E+10	1	-1E+10	1	-1E+10	1	-1E+10	1
4901784	69	C	05/25/2017	10:46	-132.371	43.615	0	929.20	0	3.3750	0	34.4670	4	27.431	0	919.716	0	13.0	4	4.1	4	-1E+10	1	-1E+10	1	-1E+10	1	-1E+10	1	-1E+10	1	-1E+10	1
4901784	69	C	05/25/2017	10:46	-132.371	43.615	0	934.40	0	3.3660	0	34.4710	4	27.435	0	924.852	0	13.2	4	4.1	4	-1E+10	1	-1E+10	1	-1E+10	1	-1E+10	1	-1E+10	1	-1E+10	1
4901784	69	C	05/25/2017	10:46	-132.371	43.615	0	939.60	0	3.3600	0	34.4730	4	27.437	0	929.987	0	13.5	4	4.2	4	-1E+10	1	-1E+10	1	-1E+10	1	-1E+10	1	-1E+10	1	-1E+10	1
4901784	69	C	05/25/2017	10:46	-132.371	43.615	0	944.80	0	3.3550	0	34.4770	4	27.441	0	935.122	0	13.8	4	4.3	4	-1E+10	1	-1E+10	1	-1E+10	1	-1E+10	1	-1E+10	1	-1E+10	1
4901784	69	C	05/25/2017	10:46	-132.371	43.615	0	950.00	0	3.3520	0	34.4800	4	27.443	0	940.257	0	14.1	4	4.4	4	-1E+10	1	-1E+10	1	-1E+10	1	-1E+10	1	-1E+10	1	-1E+10	1
4901784	69	C	05/25/2017	10:46	-132.371	43.615	0	955.20	0	3.3500	0	34.4830	4	27.446	0	945.392	0	14.4	4	4.5	4	-1E+10	1	-1E+10	1	-1E+10	1	-1E+10	1	-1E+10	1	-1E+10	1
4901784	69	C	05/25/2017	10:46	-132.371	43.615	0	960.50	0	3.3470	0	34.4850	4	27.448	0	950.626	0	14.6	4	4.6	4	-1E+10	1	-1E+10	1	-1E+10	1	-1E+10	1	-1E+10	1	-1E+10	1
4901784	69	C	05/25/2017	10:46	-132.371	43.615	0	964.90	0	3.3430	0	34.4870	4	27.450	0	954.970	0	15.0	4	4.7	4	-1E+10	1	-1E+10	1	-1E+10	1	-1E+10	1	-1E+10	1	-1E+10	1
4901784	69	C	05/25/2017	10:46	-132.371	43.615	0	969.40	0	3.3360	0	34.4920	4	27.455	0	959.414	0	15.3	4	4.8	4	-1E+10	1	-1E+10	1	-1E+10	1	-1E+10	1	-1E+10	1	-1E+10	1
4901784	69	C	05/25/2017	10:46	-132.371	43.615	0	974.90	0	3.3330	0	34.4950	4	27.457	0	964.844	0	15.6	4	4.9	4	-1E+10	1	-1E+10	1	-1E+10	1	-1E+10	1	-1E+10	1	-1E+10	1
4901784	69	C	05/25/2017	10:46	-132.371	43.615	0	980.30	0	3.3310	0	34.4970	4	27.459	0	970.176	0	15.8	4	4.9	4	-1E+10	1	-1E+10	1	-1E+10	1	-1E+10	1	-1E+10	1	-1E+10	1
4901784	69	C	05/25/2017	10:46	-132.371	43.615	0	984.80	0	3.3310	0	34.4980	4	27.460	0	974.619	0	16.0	4	5.0	4	-1E+10	1	-1E+10	1	-1E+10	1	-1E+10	1	-1E+10	1	-1E+10	1
4901784	69	C	05/25/2017	10:46	-132.371	43.615	0	989.30	0	3.3300	0	34.4990	4	27.461	0	979.062	0	16.2	4	5.1	4	-1E+10	1	-1E+10	1	-1E+10	1	-1E+10	1	-1E+10	1	-1E+10	1
4901784	69	C	05/25/2017	10:46	-132.371	43.615	0	994.80	0	3.3260	0	34.5030	4	27.465	0	984.492	0	16.6	4	5.2	4	-1E+10	1	-1E+10	1	-1E+10	1	-1E+10	1	-1E+10	1	-1E+10	1
4901784	69	C	05/25/2017	10:46	-132.371	43.615	0	1000.40	0	3.3260	0	34.5050	4	27.466	0	990.021	0	17.0	4	5.3	4	-1E+10	1	-1E+10	1	-1E+10	1	-1E+10	1	-1E+10	1	-1E+10	1
4901784	69	C	05/25/2017	10:46	-132.371	43.615	0	1005.10	0	3.3250	0	34.5070	4	27.468	0	994.661	0	17.3	4	5.4	4	-1E+10	1	-1E+10	1	-1E+10	1	-1E+10	1	-1E+10	1	-1E+10	1
4901784	69	C	05/25/2017	10:46	-132.371	43.615	0	1009.60	0	3.3250	0	34.5100	4	27.470	0	999.104	0	17.7	4	5.5	4	-1E+10	1	-1E+10	1	-1E+10	1	-1E+10	1	-1E+10	1	-1E+10	1
4901784	69	C	05/25/2017	10:46	-132.371	43.615	0	1015.10	0	3.3250	0	34.5130	4	27.473	0	1004.533	0	18.1	4	5.6	4	-1E+10	1	-1E+10	1	-1E+10	1	-1E+10	1	-1E+10	1	-1E+10	1
4901784	69	C	05/25/2017	10:46	-132.371	43.615	0	1020.50	0	3.3240	0	34.5160	4	27.475	0	1009.864	0	18.6	4	5.8	4	-1E+10	1	-1E+10	1	-1E+10	1	-1E+10	1	-1E+10	1	-1E+10	1
4901784	69	C	05/25/2017	10:46	-132.371	43.615	0	1025.10	0	3.3240	0	34.5200	4	27.479	0	1014.405	0	19.0	4	5.9	4	-1E+10	1	-1E+10	1	-1E+10	1	-1E+10	1	-1E+10	1	-1E+10	1
4901784	69	C	05/25/2017	10:46	-132.371	43.615	0	1029.70	0	3.3240	0	34.5230	4	27.481	0	1018.946	0	19.3	4	6.0	4	-1E+10	1	-1E+10	1	-1E+10	1	-1E+10	1	-1E+10	1	-1E+10	1
4901784	69	C	05/25/2017	10:46	-132.371	43.615	0	1035.30	0	3.3260	0	34.5240	4	27.482	0	1024.474	0	19.6	4	6.1	4	-1E+10	1	-1E+10	1	-1E+10	1	-1E+10	1	-1E+10	1	-1E+10	1
4901784	69	C	05/25/2017	10:46	-132.371	43.615	0	1039.90	0	3.3270	0	34.5270	4	27.484	0	1029.015	0	19.9	4	6.2	4	-1E+10	1	-1E+10	1	-1E+10	1	-1E+10	1	-1E+10	1	-1E+10	1
4901784	69	C	05/25/2017	10:46	-132.371	43.615	0	1044.50	0	3.3280	0	34.5280	4	27.485	0	1033.555	0	20.1	4	6.3	4	-1E+10	1	-1E+10	1	-1E+10	1	-1E+10	1	-1E+10	1	-1E+10	1
4901784	69	C	05/25/2017	10:46	-132.371	43.615	0	1050.00	0	3.3280	0	34.5310	4	27.487	0	1038.984	0	20.3	4	6.3	4	-1E+10	1	-1E+10	1	-1E+10	1	-1E+10	1	-1E+10	1	-1E+10	1
4901784	69	C	05/25/2017	10:46	-132.371	43.615	0	1054.70	0	3.3280	0	34.5310	4	27.487	0	1043.623	0	20.4	4	6.4	4	-1E+10	1	-1E+10	1	-1E+10	1	-1E+10	1	-1E+10	1	-1E+10	1
4901784	69	C	05/25/2017	10:46	-132.371	43.615	0	1059.40	0	3.3280	0	34.5320	4	27.488	0	1048.262	0	20.5	4	6.4	4	-1E+10	1	-1E+10	1	-1E+10	1	-1E+10	1	-1E+10	1	-1E+10	1
4901784	69	C	05/25/2017	10:46	-132.371	43.615	0	1065.10	0	3.3270	0	34.5320	4	27.488	0	1053.887	0	20.7	4	6.5	4	-1E+10	1	-1E+10	1	-1E+10	1	-1E+10	1	-1E+10	1	-1E+10	1
4901784	69	C	05/25/2017	10:46	-132.371	43.615	0	1069.90	0	3.3270	0	34.5330	4	27.489	0	1058.625	0	21.1	4	6.6	4	-1E+10	1	-1E+10	1	-1E+10	1	-1E+10	1	-1E+10	1	-1E+10	1
4901784	69	C	05/25/2017	10:46	-132.371	43.615	0	1074.60	0	3.3220	0	34.5380	4	27.494	0	1063.263	0	21.5	4	6.7	4	-1E+10	1	-1E+10	1	-1E+10	1	-1E+10	1	-1E+10	1	-1E+10	1
4901784	69	C	05/25/2017	10:46	-132.371	43.615	0	1080.20	0	3.3200	0	34.5400	4	27.495	0	1068.790	0	21.9	4	6.8	4	-1E+10	1	-1E+10	1	-1E+10	1	-1E+10	1	-1E+10	1	-1E+10	1
4901784	69	C	05/25/2017	10:46	-132.371	43.615	0	1084.80	0	3.3200	0	34.5420	4	27.497	0	1073.330	0	22.1	4	6.9	4	-1E+10	1	-1E+10	1	-1E+10	1	-1E+10	1	-1E+10	1	-1E+10	1
4901784	69	C	05/25/2017	10:46	-132.371	43.615	0	1089.40	0	3.3180	0	34.5440	4	27.499	0	1077.869	0	22.4	4	7.0	4	-1E+10	1	-1E+10	1	-1E+10	1	-1E+10	1	-1E+10	1	-1E+10	1
4901784	69	C	05/25/2017	10:46	-132.371	43.615	0	1095.00	0	3.3170	0	34.5460	4	27.501	0	1083.396	0	22.6	4	7.0	4	-1E+10	1	-1E+10	1	-1E+10	1	-1E+10	1	-1E+10	1	-1E+10	1
4901784	69	C	05/25/2017	10:46	-132.371	43.615	0	1100.40	0	3.3150	0	34.5480	4	27.502	0	1088.724	0	22.8	4	7.1	4	-1E+10	1	-1E+10	1	-1E+10	1	-1E+10	1	-1E+10	1	-1E+10	1
4901784	69	C	05/25/2017	10:46	-132.371	43.615	0	1104.80	0	3.3140	0	34.5480	4	27.502	0	1093.066	0	22.9	4	7.1	4	-1E+10	1	-1E+10	1	-1E+10	1	-1E+10	1	-1E+10	1	-1E+10	1
4901784	69	C	05/25/2017	10:46	-132.371	43.615	0	1109.50	0	3.3110	0	34.5490	4	27.504	0	1097.704	0	23.1	4	7.2	4	-1E+10	1	-1E+10	1	-1E+10	1	-1E+10	1	-1E+10	1	-1E+10	1
4901784	69	C	05/25/2017	10:46	-132.371	43.615	0	1115.00	0	3.3090	0	34.5510	4	27.505	0	1103.131	0	23.4	4	7.3	4	-1E+10	1	-1E+10	1	-1E+10	1	-1E+10	1	-1E+10	1	-1E+10	1
4901784	69	C	05/25/2017	10:46	-132.371	43.615	0	1120.40	0	3.3060	0	34.5520	4	27.507	0	1108.459	0	23.6	4	7.3	4	-1E+10	1	-1E+10	1	-1E+10	1	-1E+10	1	-1E+10	1	-1E+10	1
4901784	69	C	05/25/2017	10:46	-132.371	43.615	0	1125.10	0	3.3050	0	34.5540	4	27.508	0	1113.097	0	23.8	4	7.4	4	-1E+10	1	-1E+10	1	-1E+10	1	-1E+10	1	-1E+10	1	-1E+10	1
4901784	69	C	05/25/2017	10:46	-132.371	43.615	0	1129.70	0	3.3030	0	34.5550	4	27.509	0	1117.635	0	24.0	4	7.5	4	-1E+10	1	-1E+10	1	-1E+10	1	-1E+10	1	-1E+10	1	-1E+10	1
4901784	69	C	05/25/2017	10:46	-132.371	43.615	0	1135.20	0	3.2990	0	34.5570	4	27.511	0	1123.062	0	24.2	4	7.5	4	-1E+10	1	-1E+10	1	-1E+10	1	-1E+10	1	-1E+10	1	-1E+10	1
4901784	69	C	05/25/2017	10:46	-132.371	43.615	0	1139.90	0	3.2950	0	34.5590	4	27.513	0	1127.699	0	24.4	4	7.6	4	-1E+10	1	-1E+10	1	-1E+10	1	-1E+10	1	-1E+10	1	-1E+10	1
4901784	69	C	05/25/2017	10:46	-132.371	43.615	0	1145.40	0	3.2920	0	34.5600	4	27.514	0	1133.125	0	24.6	4	7.7	4	-1E+10	1	-1E+10	1	-1E+10	1	-1E+10	1	-1E+10	1	-1E+10	1
4901784	69	C	05/25/2017	10:46	-132.371	43.615	0	1150.10	0	3.2920	0	34.5610	4	27.515	0	1137.762	0	24.7	4	7.7	4	-1E+10	1	-1E+10	1	-1E+10	1	-1E+10	1	-1E+10	1	-1E+10	1
4901784	69	C	05/25/2017	10:46	-132.371	43.615	0	1154.90	0	3.2910	0	34.5620	4	27.516	0	1142.498	0	24.9	4	7.7	4	-1E+10	1	-1E+10	1	-1E+10	1	-1E+10	1	-1E+10	1	-1E+10	1
4901784	69	C	05/25/2017	10:46	-132.371	43.615	0	1159.70	0	3.2890	0	34.5630	4	27.517	0	1147.233	0	25.0	4	7.8	4	-1E+10	1	-1E+10	1	-1E+10	1	-1E+10	1	-1E+10	1	-1E+10	1
4901784	69	C	05/25/2017	10:46	-132.371	43.615	0	1164.60	0	3.2880	0	34.5640	4	27.518	0	1152.067	0	25.1	4	7.8	4	-1E+10	1	-1E+10	1	-1E+10	1	-1E+10	1	-1E+10	1	-1E+10	1
4901784	69	C	05/25/2017	10:46	-132.371	43.615	0	1169.70	0	3.2870	0	34.5640	4	27.518	0	1157.098	0	25.2	4	7.8	4	-1E+10	1	-1E+10	1	-1E+10	1	-1E+10	1	-1E+10	1	-1E+10	1
4901784	69	C	05/25/2017	10:46	-132.371	43.615	0	1174.90	0	3.2860	0	34.5640	4	27.518	0	1162.228	0	25.3	4	7.9	4	-1E+10	1	-1E+10	1	-1E+10	1	-1E+10	1	-1E+10	1	-1E+10	1
4901784	69	C	05/25/2017	10:46	-132.371	43.615	0	1179.90	0	3.2850	0	34.5650	4	27.519	0	1167.160	0	25.5	4	7.9	4	-1E+10	1	-1E+10	1	-1E+10	1	-1E+10	1	-1E+10	1	-1E+10	1
4901784	69	C	05/25/2017	10:46	-132.371	43.615	0	1185.10	0	3.2810	0	34.5660	4	27.521	0	1172.289	0	25.7	4	8.0	4	-1E+10	1	-1E+10	1	-1E+10	1	-1E+10	1	-1E+10	1	-1E+10	1
4901784	69	C	05/25/2017	10:46	-132.371	43.615	0	1190.30	0	3.2740	0	34.5680	4	27.523	0	1177.419	0	26.0	4	8.1	4	-1E+10	1	-1E+10	1	-1E+10	1	-1E+10	1	-1E+10	1	-1E+10	1
4901784	69	C	05/25/2017	10:46	-132.371	43.615	0	1195.60	0	3.2620	0	34.5710	4	27.526	0	1182.646	0	26.3	4	8.2	4	-1E+10	1	-1E+10	1	-1E+10	1	-1E+10	1	-1E+10	1	-1E+10	1
4901784	69	C	05/25/2017	10:46	-132.371	43.615	0	1200.00	0	3.2570	0	34.5710	4	27.527	0	1186.986	0	26.4	4	8.2	4	-1E+10	1	-1E+10	1	-1E+10	1	-1E+10	1	-1E+10	1	-1E+10	1
4901784	69	C	05/25/2017	10:46	-132.371	43.615	0	1204.40	0	3.2470	0	34.5720	4	27.529	0	1191.326	0	26.6	4	8.3	4	-1E+10	1	-1E+10	1	-1E+10	1	-1E+10	1	-1E+10	1	-1E+10	1
4901784	69	C	05/25/2017	10:46	-132.371	43.615	0	1209.80	0	3.2290	0	34.5750	4	27.533	0	1196.652	0	26.8	4	8.3	4	-1E+10	1	-1E+10	1	-1E+10	1	-1E+10	1	-1E+10	1	-1E+10	1
4901784	69	C	05/25/2017	10:46	-132.371	43.615	0	1215.20	0	3.2170	0	34.5760	4	27.535	0	1201.978	0	27.0	4	8.4	4	-1E+10	1	-1E+10	1	-1E+10	1	-1E+10	1	-1E+10	1	-1E+10	1
4901784	69	C	05/25/2017	10:46	-132.371	43.615	0	1220.50	0	3.2040	0	34.5770	4	27.537	0	1207.205	0	27.0	4	8.4	4	-1E+10	1	-1E+10	1	-1E+10	1	-1E+10	1	-1E+10	1	-1E+10	1
4901784	69	C	05/25/2017	10:46	-132.371	43.615	0	1225.00	0	3.2000	0	34.5770	4	27.537	0	1211.643	0	27.1	4	8.4	4	-1E+10	1	-1E+10	1	-1E+10	1	-1E+10	1	-1E+10	1	-1E+10	1
4901784	69	C	05/25/2017	10:46	-132.371	43.615	0	1229.60	0	3.1870	0	34.5780	4	27.539	0	1216.180	0	27.1	4	8.4	4	-1E+10	1	-1E+10	1	-1E+10	1	-1E+10	1	-1E+10	1	-1E+10	1
4901784	69	C	05/25/2017	10:46	-132.371	43.615	0	1235.00	0	3.1790	0	34.5790	4	27.541	0	1221.505	0	27.2	4	8.4	4	-1E+10	1	-1E+10	1	-1E+10	1	-1E+10	1	-1E+10	1	-1E+10	1
4901784	69	C	05/25/2017	10:46	-132.371	43.615	0	1240.30	0	3.1750	0	34.5790	4	27.541	0	1226.732	0	27.2	4	8.4	4	-1E+10	1	-1E+10	1	-1E+10	1	-1E+10	1	-1E+10	1	-1E+10	1
4901784	69	C	05/25/2017	10:46	-132.371	43.615	0	1245.60	0	3.1680	0	34.5790	4	27.542	0	1231.958	0	27.2	4	8.4	4	-1E+10	1	-1E+10	1	-1E+10	1	-1E+10	1	-1E+10	1	-1E+10	1
4901784	69	C	05/25/2017	10:46	-132.371	43.615	0	1250.10	0	3.1670	0	34.5790	4	27.542	0	1236.396	0	27.2	4	8.5	4	-1E+10	1	-1E+10	1	-1E+10	1	-1E+10	1	-1E+10	1	-1E+10	1
4901784	69	C	05/25/2017	10:46	-132.371	43.615	0	1254.40	0	3.1660	0	34.5790	4	27.542	0	1240.636	0	27.3	4	8.5	4	-1E+10	1	-1E+10	1	-1E+10	1	-1E+10	1	-1E+10	1	-1E+10	1
4901784	69	C	05/25/2017	10:46	-132.371	43.615	0	1259.40	0	3.1520	0	34.5800	4	27.544	0	1245.566	0	27.3	4	8.5	4	-1E+10	1	-1E+10	1	-1E+10	1	-1E+10	1	-1E+10	1	-1E+10	1
4901784	69	C	05/25/2017	10:46	-132.371	43.615	0	1264.70	0	3.1410	0	34.5800	4	27.545	0	1250.792	0	27.3	4	8.5	4	-1E+10	1	-1E+10	1	-1E+10	1	-1E+10	1	-1E+10	1	-1E+10	1
4901784	69	C	05/25/2017	10:46	-132.371	43.615	0	1270.00	0	3.1300	0	34.5800	4	27.546	0	1256.018	0	27.3	4	8.5	4	-1E+10	1	-1E+10	1	-1E+10	1	-1E+10	1	-1E+10	1	-1E+10	1
4901784	69	C	05/25/2017	10:46	-132.371	43.615	0	1275.40	0	3.1220	0	34.5810	4	27.548	0	1261.343	0	27.3	4	8.5	4	-1E+10	1	-1E+10	1	-1E+10	1	-1E+10	1	-1E+10	1	-1E+10	1
4901784	69	C	05/25/2017	10:46	-132.371	43.615	0	1280.30	0	3.1150	0	34.5810	4	27.548	0	1266.174	0	27.3	4	8.5	4	-1E+10	1	-1E+10	1	-1E+10	1	-1E+10	1	-1E+10	1	-1E+10	1
4901784	69	C	05/25/2017	10:46	-132.371	43.615	0	1285.20	0	3.0990	0	34.5810	4	27.550	0	1271.005	0	27.3	4	8.5	4	-1E+10	1	-1E+10	1	-1E+10	1	-1E+10	1	-1E+10	1	-1E+10	1
4901784	69	C	05/25/2017	10:46	-132.371	43.615	0	1290.00	0	3.0970	0	34.5810	4	27.550	0	1275.738	0	27.3	4	8.5	4	-1E+10	1	-1E+10	1	-1E+10	1	-1E+10	1	-1E+10	1	-1E+10	1
4901784	69	C	05/25/2017	10:46	-132.371	43.615	0	1294.60	0	3.0950	0	34.5810	4	27.550	0	1280.273	0	27.3	4	8.5	4	-1E+10	1	-1E+10	1	-1E+10	1	-1E+10	1	-1E+10	1	-1E+10	1
4901784	69	C	05/25/2017	10:46	-132.371	43.615	0	1299.50	0	3.0760	0	34.5820	4	27.553	0	1285.104	0	27.3	4	8.4	4	-1E+10	1	-1E+10	1	-1E+10	1	-1E+10	1	-1E+10	1	-1E+10	1
4901784	69	C	05/25/2017	10:46	-132.371	43.615	0	1304.50	0	3.0650	0	34.5810	4	27.553	0	1290.033	0	27.2	4	8.4	4	-1E+10	1	-1E+10	1	-1E+10	1	-1E+10	1	-1E+10	1	-1E+10	1
4901784	69	C	05/25/2017	10:46	-132.371	43.615	0	1310.30	0	3.0470	0	34.5810	4	27.555	0	1295.751	0	27.1	4	8.4	4	-1E+10	1	-1E+10	1	-1E+10	1	-1E+10	1	-1E+10	1	-1E+10	1
4901784	69	C	05/25/2017	10:46	-132.371	43.615	0	1315.20	0	3.0350	0	34.5810	4	27.556	0	1300.581	0	27.1	4	8.4	4	-1E+10	1	-1E+10	1	-1E+10	1	-1E+10	1	-1E+10	1	-1E+10	1
4901784	69	C	05/25/2017	10:46	-132.371	43.615	0	1319.80	0	3.0270	0	34.5810	4	27.557	0	1305.116	0	27.1	4	8.4	4	-1E+10	1	-1E+10	1	-1E+10	1	-1E+10	1	-1E+10	1	-1E+10	1
4901784	69	C	05/25/2017	10:46	-132.371	43.615	0	1324.50	0	3.0130	0	34.5810	4	27.558	0	1309.749	0	27.0	4	8.4	4	-1E+10	1	-1E+10	1	-1E+10	1	-1E+10	1	-1E+10	1	-1E+10	1
4901784	69	C	05/25/2017	10:46	-132.371	43.615	0	1329.10	0	2.9920	0	34.5810	4	27.560	0	1314.283	0	27.1	4	8.4	4	-1E+10	1	-1E+10	1	-1E+10	1	-1E+10	1	-1E+10	1	-1E+10	1
4901784	69	C	05/25/2017	10:46	-132.371	43.615	0	1335.30	0	2.9900	0	34.5810	4	27.560	0	1320.395	0	27.0	4	8.4	4	-1E+10	1	-1E+10	1	-1E+10	1	-1E+10	1	-1E+10	1	-1E+10	1
4901784	69	C	05/25/2017	10:46	-132.371	43.615	0	1339.60	0	2.9880	0	34.5810	4	27.560	0	1324.633	0	27.0	4	8.4	4	-1E+10	1	-1E+10	1	-1E+10	1	-1E+10	1	-1E+10	1	-1E+10	1
4901784	69	C	05/25/2017	10:46	-132.371	43.615	0	1344.60	0	2.9840	0	34.5810	4	27.561	0	1329.562	0	27.0	4	8.3	4	-1E+10	1	-1E+10	1	-1E+10	1	-1E+10	1	-1E+10	1	-1E+10	1
4901784	69	C	05/25/2017	10:46	-132.371	43.615	0	1349.80	0	2.9700	0	34.5810	4	27.562	0	1334.687	0	27.0	4	8.3	4	-1E+10	1	-1E+10	1	-1E+10	1	-1E+10	1	-1E+10	1	-1E+10	1
4901784	69	C	05/25/2017	10:46	-132.371	43.615	0	1355.10	0	2.9590	0	34.5810	4	27.563	0	1339.911	0	27.0	4	8.3	4	-1E+10	1	-1E+10	1	-1E+10	1	-1E+10	1	-1E+10	1	-1E+10	1
4901784	69	C	05/25/2017	10:46	-132.371	43.615	0	1360.00	0	2.9510	0	34.5810	4	27.564	0	1344.740	0	26.9	4	8.3	4	-1E+10	1	-1E+10	1	-1E+10	1	-1E+10	1	-1E+10	1	-1E+10	1
4901784	69	C	05/25/2017	10:46	-132.371	43.615	0	1365.10	0	2.9450	0	34.5810	4	27.564	0	1349.767	0	26.9	4	8.3	4	-1E+10	1	-1E+10	1	-1E+10	1	-1E+10	1	-1E+10	1	-1E+10	1
4901784	69	C	05/25/2017	10:46	-132.371	43.615	0	1370.10	0	2.9250	0	34.5810	4	27.566	0	1354.695	0	26.9	4	8.3	4	-1E+10	1	-1E+10	1	-1E+10	1	-1E+10	1	-1E+10	1	-1E+10	1
4901784	69	C	05/25/2017	10:46	-132.371	43.615	0	1375.20	0	2.9180	0	34.5810	4	27.567	0	1359.721	0	26.9	4	8.3	4	-1E+10	1	-1E+10	1	-1E+10	1	-1E+10	1	-1E+10	1	-1E+10	1
4901784	69	C	05/25/2017	10:46	-132.371	43.615	0	1380.20	0	2.9150	0	34.5810	4	27.567	0	1364.648	0	26.9	4	8.3	4	-1E+10	1	-1E+10	1	-1E+10	1	-1E+10	1	-1E+10	1	-1E+10	1
4901784	69	C	05/25/2017	10:46	-132.371	43.615	0	1385.30	0	2.9130	0	34.5810	4	27.567	0	1369.674	0	26.8	4	8.3	4	-1E+10	1	-1E+10	1	-1E+10	1	-1E+10	1	-1E+10	1	-1E+10	1
4901784	69	C	05/25/2017	10:46	-132.371	43.615	0	1390.30	0	2.9070	0	34.5810	4	27.568	0	1374.602	0	26.8	4	8.3	4	-1E+10	1	-1E+10	1	-1E+10	1	-1E+10	1	-1E+10	1	-1E+10	1
4901784	69	C	05/25/2017	10:46	-132.371	43.615	0	1395.40	0	2.9010	0	34.5810	4	27.568	0	1379.627	0	26.8	4	8.3	4	-1E+10	1	-1E+10	1	-1E+10	1	-1E+10	1	-1E+10	1	-1E+10	1
4901784	69	C	05/25/2017	10:46	-132.371	43.615	0	1400.50	0	2.8980	0	34.5810	4	27.569	0	1384.653	0	26.8	4	8.3	4	-1E+10	1	-1E+10	1	-1E+10	1	-1E+10	1	-1E+10	1	-1E+10	1
4901784	69	C	05/25/2017	10:46	-132.371	43.615	0	1405.40	0	2.8950	0	34.5810	4	27.569	0	1389.481	0	26.8	4	8.3	4	-1E+10	1	-1E+10	1	-1E+10	1	-1E+10	1	-1E+10	1	-1E+10	1
4901784	69	C	05/25/2017	10:46	-132.371	43.615	0	1410.50	0	2.8920	0	34.5810	4	27.569	0	1394.507	0	26.8	4	8.3	4	-1E+10	1	-1E+10	1	-1E+10	1	-1E+10	1	-1E+10	1	-1E+10	1
4901784	69	C	05/25/2017	10:46	-132.371	43.615	0	1415.70	0	2.8790	0	34.5810	4	27.571	0	1399.631	0	26.8	4	8.3	4	-1E+10	1	-1E+10	1	-1E+10	1	-1E+10	1	-1E+10	1	-1E+10	1
4901784	69	C	05/25/2017	10:46	-132.371	43.615	0	1419.90	0	2.8750	0	34.5810	4	27.571	0	1403.769	0	26.8	4	8.2	4	-1E+10	1	-1E+10	1	-1E+10	1	-1E+10	1	-1E+10	1	-1E+10	1
4901784	69	C	05/25/2017	10:46	-132.371	43.615	0	1424.30	0	2.8690	0	34.5810	4	27.572	0	1408.104	0	26.7	4	8.2	4	-1E+10	1	-1E+10	1	-1E+10	1	-1E+10	1	-1E+10	1	-1E+10	1
4901784	69	C	05/25/2017	10:46	-132.371	43.615	0	1429.40	0	2.8480	0	34.5800	4	27.573	0	1413.129	0	26.7	4	8.2	4	-1E+10	1	-1E+10	1	-1E+10	1	-1E+10	1	-1E+10	1	-1E+10	1
4901784	69	C	05/25/2017	10:46	-132.371	43.615	0	1434.60	0	2.8210	0	34.5800	4	27.575	0	1418.253	0	26.7	4	8.2	4	-1E+10	1	-1E+10	1	-1E+10	1	-1E+10	1	-1E+10	1	-1E+10	1
4901784	69	C	05/25/2017	10:46	-132.371	43.615	0	1439.70	0	2.8040	0	34.5810	4	27.577	0	1423.277	0	26.7	4	8.2	4	-1E+10	1	-1E+10	1	-1E+10	1	-1E+10	1	-1E+10	1	-1E+10	1
4901784	69	C	05/25/2017	10:46	-132.371	43.615	0	1444.80	0	2.7970	0	34.5810	4	27.578	0	1428.302	0	26.7	4	8.2	4	-1E+10	1	-1E+10	1	-1E+10	1	-1E+10	1	-1E+10	1	-1E+10	1
4901784	69	C	05/25/2017	10:46	-132.371	43.615	0	1450.10	0	2.7960	0	34.5810	4	27.578	0	1433.523	0	26.7	4	8.2	4	-1E+10	1	-1E+10	1	-1E+10	1	-1E+10	1	-1E+10	1	-1E+10	1
4901784	69	C	05/25/2017	10:46	-132.371	43.615	0	1455.50	0	2.7910	0	34.5800	4	27.578	0	1438.843	0	26.7	4	8.2	4	-1E+10	1	-1E+10	1	-1E+10	1	-1E+10	1	-1E+10	1	-1E+10	1
4901784	69	C	05/25/2017	10:46	-132.371	43.615	0	1460.00	0	2.7630	0	34.5810	4	27.581	0	1443.276	0	26.7	4	8.2	4	-1E+10	1	-1E+10	1	-1E+10	1	-1E+10	1	-1E+10	1	-1E+10	1
4901784	69	C	05/25/2017	10:46	-132.371	43.615	0	1464.60	0	2.7510	0	34.5810	4	27.582	0	1447.808	0	26.7	4	8.2	4	-1E+10	1	-1E+10	1	-1E+10	1	-1E+10	1	-1E+10	1	-1E+10	1
4901784	69	C	05/25/2017	10:46	-132.371	43.615	0	1470.00	0	2.7450	0	34.5810	4	27.583	0	1453.128	0	26.7	4	8.2	4	-1E+10	1	-1E+10	1	-1E+10	1	-1E+10	1	-1E+10	1	-1E+10	1
4901784	69	C	05/25/2017	10:46	-132.371	43.615	0	1475.50	0	2.7300	0	34.5810	4	27.584	0	1458.545	0	26.7	4	8.2	4	-1E+10	1	-1E+10	1	-1E+10	1	-1E+10	1	-1E+10	1	-1E+10	1
4901784	69	C	05/25/2017	10:46	-132.371	43.615	0	1480.00	0	2.7190	0	34.5810	4	27.585	0	1462.978	0	26.7	4	8.2	4	-1E+10	1	-1E+10	1	-1E+10	1	-1E+10	1	-1E+10	1	-1E+10	1
4901784	69	C	05/25/2017	10:46	-132.371	43.615	0	1484.20	0	2.6970	0	34.5810	4	27.587	0	1467.115	0	26.8	4	8.2	4	-1E+10	1	-1E+10	1	-1E+10	1	-1E+10	1	-1E+10	1	-1E+10	1
4901784	69	C	05/25/2017	10:46	-132.371	43.615	0	1489.40	0	2.6730	0	34.5820	4	27.590	0	1472.237	0	26.9	4	8.2	4	-1E+10	1	-1E+10	1	-1E+10	1	-1E+10	1	-1E+10	1	-1E+10	1
4901784	69	C	05/25/2017	10:46	-132.371	43.615	0	1494.50	0	2.6710	0	34.5820	4	27.590	0	1477.261	0	26.9	4	8.2	4	-1E+10	1	-1E+10	1	-1E+10	1	-1E+10	1	-1E+10	1	-1E+10	1
4901784	69	C	05/25/2017	10:46	-132.371	43.615	0	1499.80	0	2.6690	0	34.5820	4	27.590	0	1482.481	0	26.9	4	8.3	4	-1E+10	1	-1E+10	1	-1E+10	1	-1E+10	1	-1E+10	1	-1E+10	1
4901784	69	C	05/25/2017	10:46	-132.371	43.615	0	1505.10	0	2.6610	0	34.5820	4	27.591	0	1487.701	0	27.0	4	8.3	4	-1E+10	1	-1E+10	1	-1E+10	1	-1E+10	1	-1E+10	1	-1E+10	1
4901784	69	C	05/25/2017	10:46	-132.371	43.615	0	1510.40	0	2.6460	0	34.5820	4	27.592	0	1492.921	0	27.1	4	8.3	4	-1E+10	1	-1E+10	1	-1E+10	1	-1E+10	1	-1E+10	1	-1E+10	1
4901784	69	C	05/25/2017	10:46	-132.371	43.615	0	1515.70	0	2.6350	0	34.5830	4	27.594	0	1498.141	0	27.2	4	8.3	4	-1E+10	1	-1E+10	1	-1E+10	1	-1E+10	1	-1E+10	1	-1E+10	1
4901784	69	C	05/25/2017	10:46	-132.371	43.615	0	1520.70	0	2.6220	0	34.5830	4	27.595	0	1503.065	0	27.4	4	8.4	4	-1E+10	1	-1E+10	1	-1E+10	1	-1E+10	1	-1E+10	1	-1E+10	1
4901784	69	C	05/25/2017	10:46	-132.371	43.615	0	1524.70	0	2.6020	0	34.5840	4	27.598	0	1507.005	0	27.5	4	8.4	4	-1E+10	1	-1E+10	1	-1E+10	1	-1E+10	1	-1E+10	1	-1E+10	1
4901784	69	C	05/25/2017	10:46	-132.371	43.615	0	1529.40	0	2.5910	0	34.5850	4	27.599	0	1511.633	0	27.6	4	8.4	4	-1E+10	1	-1E+10	1	-1E+10	1	-1E+10	1	-1E+10	1	-1E+10	1
4901784	69	C	05/25/2017	10:46	-132.371	43.615	0	1534.90	0	2.5870	0	34.5850	4	27.600	0	1517.050	0	27.7	4	8.5	4	-1E+10	1	-1E+10	1	-1E+10	1	-1E+10	1	-1E+10	1	-1E+10	1
4901784	69	C	05/25/2017	10:46	-132.371	43.615	0	1540.60	0	2.5740	0	34.5850	4	27.601	0	1522.663	0	27.9	4	8.5	4	-1E+10	1	-1E+10	1	-1E+10	1	-1E+10	1	-1E+10	1	-1E+10	1
4901784	69	C	05/25/2017	10:46	-132.371	43.615	0	1545.50	0	2.5610	0	34.5860	4	27.603	0	1527.488	0	28.1	4	8.6	4	-1E+10	1	-1E+10	1	-1E+10	1	-1E+10	1	-1E+10	1	-1E+10	1
4901784	69	C	05/25/2017	10:46	-132.371	43.615	0	1550.40	0	2.5410	0	34.5870	4	27.605	0	1532.313	0	28.5	4	8.7	4	-1E+10	1	-1E+10	1	-1E+10	1	-1E+10	1	-1E+10	1	-1E+10	1
4901784	69	C	05/25/2017	10:46	-132.371	43.615	0	1555.20	0	2.5200	0	34.5880	4	27.608	0	1537.040	0	28.8	4	8.8	4	-1E+10	1	-1E+10	1	-1E+10	1	-1E+10	1	-1E+10	1	-1E+10	1
4901784	69	C	05/25/2017	10:46	-132.371	43.615	0	1560.10	0	2.4960	0	34.5890	4	27.611	0	1541.865	0	29.3	4	8.9	4	-1E+10	1	-1E+10	1	-1E+10	1	-1E+10	1	-1E+10	1	-1E+10	1
4901784	69	C	05/25/2017	10:46	-132.371	43.615	0	1565.10	0	2.4740	0	34.5910	4	27.614	0	1546.788	0	29.7	4	9.1	4	-1E+10	1	-1E+10	1	-1E+10	1	-1E+10	1	-1E+10	1	-1E+10	1
4901784	69	C	05/25/2017	10:46	-132.371	43.615	0	1570.10	0	2.4530	0	34.5930	4	27.618	0	1551.711	0	30.2	4	9.2	4	-1E+10	1	-1E+10	1	-1E+10	1	-1E+10	1	-1E+10	1	-1E+10	1
4901784	69	C	05/25/2017	10:46	-132.371	43.615	0	1575.10	0	2.4420	0	34.5940	4	27.619	0	1556.634	0	30.7	4	9.3	4	-1E+10	1	-1E+10	1	-1E+10	1	-1E+10	1	-1E+10	1	-1E+10	1
4901784	69	C	05/25/2017	10:46	-132.371	43.615	0	1580.20	0	2.4250	0	34.5940	4	27.621	0	1561.656	0	31.4	4	9.6	4	-1E+10	1	-1E+10	1	-1E+10	1	-1E+10	1	-1E+10	1	-1E+10	1
4901784	69	C	05/25/2017	10:46	-132.371	43.615	0	1585.30	0	2.3840	0	34.5990	4	27.628	0	1566.677	0	32.2	4	9.8	4	-1E+10	1	-1E+10	1	-1E+10	1	-1E+10	1	-1E+10	1	-1E+10	1
4901784	69	C	05/25/2017	10:46	-132.371	43.615	0	1590.30	0	2.3720	0	34.6010	4	27.631	0	1571.600	0	32.5	4	9.9	4	-1E+10	1	-1E+10	1	-1E+10	1	-1E+10	1	-1E+10	1	-1E+10	1
4901784	69	C	05/25/2017	10:46	-132.371	43.615	0	1595.50	0	2.3640	0	34.6020	4	27.632	0	1576.719	0	32.8	4	10.0	4	-1E+10	1	-1E+10	1	-1E+10	1	-1E+10	1	-1E+10	1	-1E+10	1
4901784	69	C	05/25/2017	10:46	-132.371	43.615	0	1599.90	0	2.3640	0	34.6010	4	27.631	0	1581.051	0	33.0	4	10.0	4	-1E+10	1	-1E+10	1	-1E+10	1	-1E+10	1	-1E+10	1	-1E+10	1
4901784	69	C	05/25/2017	10:46	-132.371	43.615	0	1604.30	0	2.3570	0	34.6020	4	27.633	0	1585.383	0	33.3	4	10.1	4	-1E+10	1	-1E+10	1	-1E+10	1	-1E+10	1	-1E+10	1	-1E+10	1
4901784	69	C	05/25/2017	10:46	-132.371	43.615	0	1609.50	0	2.3470	0	34.6030	4	27.634	0	1590.502	0	33.7	4	10.3	4	-1E+10	1	-1E+10	1	-1E+10	1	-1E+10	1	-1E+10	1	-1E+10	1
4901784	69	C	05/25/2017	10:46	-132.371	43.615	0	1614.80	0	2.3300	0	34.6050	4	27.637	0	1595.720	0	34.3	4	10.4	4	-1E+10	1	-1E+10	1	-1E+10	1	-1E+10	1	-1E+10	1	-1E+10	1
4901784	69	C	05/25/2017	10:46	-132.371	43.615	0	1620.10	0	2.3190	0	34.6070	4	27.640	0	1600.937	0	34.8	4	10.6	4	-1E+10	1	-1E+10	1	-1E+10	1	-1E+10	1	-1E+10	1	-1E+10	1
4901784	69	C	05/25/2017	10:46	-132.371	43.615	0	1625.40	0	2.3060	0	34.6090	4	27.643	0	1606.154	0	35.3	4	10.7	4	-1E+10	1	-1E+10	1	-1E+10	1	-1E+10	1	-1E+10	1	-1E+10	1
4901784	69	C	05/25/2017	10:46	-132.371	43.615	0	1629.80	0	2.2970	0	34.6100	4	27.644	0	1610.485	0	35.8	4	10.9	4	-1E+10	1	-1E+10	1	-1E+10	1	-1E+10	1	-1E+10	1	-1E+10	1
4901784	69	C	05/25/2017	10:46	-132.371	43.615	0	1634.30	0	2.2880	0	34.6100	4	27.645	0	1614.915	0	36.4	4	11.1	4	-1E+10	1	-1E+10	1	-1E+10	1	-1E+10	1	-1E+10	1	-1E+10	1
4901784	69	C	05/25/2017	10:46	-132.371	43.615	0	1639.70	0	2.2620	0	34.6140	4	27.650	0	1620.230	0	37.3	4	11.3	4	-1E+10	1	-1E+10	1	-1E+10	1	-1E+10	1	-1E+10	1	-1E+10	1
4901784	69	C	05/25/2017	10:46	-132.371	43.615	0	1645.10	0	2.2480	0	34.6160	4	27.653	0	1625.545	0	37.8	4	11.5	4	-1E+10	1	-1E+10	1	-1E+10	1	-1E+10	1	-1E+10	1	-1E+10	1
4901784	69	C	05/25/2017	10:46	-132.371	43.615	0	1650.50	0	2.2410	0	34.6170	4	27.654	0	1630.860	0	38.1	4	11.6	4	-1E+10	1	-1E+10	1	-1E+10	1	-1E+10	1	-1E+10	1	-1E+10	1
4901784	69	C	05/25/2017	10:46	-132.371	43.615	0	1655.10	0	2.2360	0	34.6180	4	27.656	0	1635.388	0	38.6	4	11.7	4	-1E+10	1	-1E+10	1	-1E+10	1	-1E+10	1	-1E+10	1	-1E+10	1
4901784	69	C	05/25/2017	10:46	-132.371	43.615	0	1659.70	0	2.2250	0	34.6190	4	27.657	0	1639.915	0	39.1	4	11.8	4	-1E+10	1	-1E+10	1	-1E+10	1	-1E+10	1	-1E+10	1	-1E+10	1
4901784	69	C	05/25/2017	10:46	-132.371	43.615	0	1665.30	0	2.2170	0	34.6210	4	27.660	0	1645.427	0	39.5	4	12.0	4	-1E+10	1	-1E+10	1	-1E+10	1	-1E+10	1	-1E+10	1	-1E+10	1
4901784	69	C	05/25/2017	10:46	-132.371	43.615	0	1669.90	0	2.2110	0	34.6220	4	27.661	0	1649.954	0	39.8	4	12.1	4	-1E+10	1	-1E+10	1	-1E+10	1	-1E+10	1	-1E+10	1	-1E+10	1
4901784	69	C	05/25/2017	10:46	-132.371	43.615	0	1674.50	0	2.2020	0	34.6230	4	27.663	0	1654.481	0	40.2	4	12.2	4	-1E+10	1	-1E+10	1	-1E+10	1	-1E+10	1	-1E+10	1	-1E+10	1
4901784	69	C	05/25/2017	10:46	-132.371	43.615	0	1680.10	0	2.1960	0	34.6230	4	27.663	0	1659.992	0	40.6	4	12.3	4	-1E+10	1	-1E+10	1	-1E+10	1	-1E+10	1	-1E+10	1	-1E+10	1
4901784	69	C	05/25/2017	10:46	-132.371	43.615	0	1684.60	0	2.1890	0	34.6250	4	27.665	0	1664.421	0	41.0	4	12.4	4	-1E+10	1	-1E+10	1	-1E+10	1	-1E+10	1	-1E+10	1	-1E+10	1
4901784	69	C	05/25/2017	10:46	-132.371	43.615	0	1689.20	0	2.1800	0	34.6260	4	27.667	0	1668.947	0	41.4	4	12.5	4	-1E+10	1	-1E+10	1	-1E+10	1	-1E+10	1	-1E+10	1	-1E+10	1
4901784	69	C	05/25/2017	10:46	-132.371	43.615	0	1694.50	0	2.1730	0	34.6270	4	27.668	0	1674.163	0	41.7	4	12.6	4	-1E+10	1	-1E+10	1	-1E+10	1	-1E+10	1	-1E+10	1	-1E+10	1
4901784	69	C	05/25/2017	10:46	-132.371	43.615	0	1699.40	0	2.1690	0	34.6280	4	27.669	0	1678.985	0	42.0	4	12.7	4	-1E+10	1	-1E+10	1	-1E+10	1	-1E+10	1	-1E+10	1	-1E+10	1
4901784	69	C	05/25/2017	10:46	-132.371	43.615	0	1704.30	0	2.1650	0	34.6290	4	27.670	0	1683.807	0	42.2	4	12.8	4	-1E+10	1	-1E+10	1	-1E+10	1	-1E+10	1	-1E+10	1	-1E+10	1
4901784	69	C	05/25/2017	10:46	-132.371	43.615	0	1709.20	0	2.1630	0	34.6290	4	27.671	0	1688.628	0	42.4	4	12.9	4	-1E+10	1	-1E+10	1	-1E+10	1	-1E+10	1	-1E+10	1	-1E+10	1
4901784	69	C	05/25/2017	10:46	-132.371	43.615	0	1715.00	0	2.1560	0	34.6300	4	27.672	0	1694.335	0	42.8	4	13.0	4	-1E+10	1	-1E+10	1	-1E+10	1	-1E+10	1	-1E+10	1	-1E+10	1
4901784	69	C	05/25/2017	10:46	-132.371	43.615	0	1720.00	0	2.1540	0	34.6300	4	27.672	0	1699.255	0	43.1	4	13.0	4	-1E+10	1	-1E+10	1	-1E+10	1	-1E+10	1	-1E+10	1	-1E+10	1
4901784	69	C	05/25/2017	10:46	-132.371	43.615	0	1724.20	0	2.1500	0	34.6300	4	27.673	0	1703.387	0	43.4	4	13.2	4	-1E+10	1	-1E+10	1	-1E+10	1	-1E+10	1	-1E+10	1	-1E+10	1
4901784	69	C	05/25/2017	10:46	-132.371	43.615	0	1729.30	0	2.1400	0	34.6320	4	27.675	0	1708.405	0	44.0	4	13.3	4	-1E+10	1	-1E+10	1	-1E+10	1	-1E+10	1	-1E+10	1	-1E+10	1
4901784	69	C	05/25/2017	10:46	-132.371	43.615	0	1734.30	0	2.1290	0	34.6340	4	27.677	0	1713.325	0	44.6	4	13.5	4	-1E+10	1	-1E+10	1	-1E+10	1	-1E+10	1	-1E+10	1	-1E+10	1
4901784	69	C	05/25/2017	10:46	-132.371	43.615	0	1739.40	0	2.1210	0	34.6350	4	27.679	0	1718.342	0	44.9	4	13.6	4	-1E+10	1	-1E+10	1	-1E+10	1	-1E+10	1	-1E+10	1	-1E+10	1
4901784	69	C	05/25/2017	10:46	-132.371	43.615	0	1744.50	0	2.1200	0	34.6350	4	27.679	0	1723.360	0	45.1	4	13.6	4	-1E+10	1	-1E+10	1	-1E+10	1	-1E+10	1	-1E+10	1	-1E+10	1
4901784	69	C	05/25/2017	10:46	-132.371	43.615	0	1749.60	0	2.1130	0	34.6360	4	27.680	0	1728.377	0	45.6	4	13.8	4	-1E+10	1	-1E+10	1	-1E+10	1	-1E+10	1	-1E+10	1	-1E+10	1
4901784	69	C	05/25/2017	10:46	-132.371	43.615	0	1754.70	0	2.1060	0	34.6380	4	27.683	0	1733.395	0	45.9	4	13.9	4	-1E+10	1	-1E+10	1	-1E+10	1	-1E+10	1	-1E+10	1	-1E+10	1
4901784	69	C	05/25/2017	10:46	-132.371	43.615	0	1759.80	0	2.1020	0	34.6380	4	27.683	0	1738.412	0	46.2	4	14.0	4	-1E+10	1	-1E+10	1	-1E+10	1	-1E+10	1	-1E+10	1	-1E+10	1
4901784	69	C	05/25/2017	10:46	-132.371	43.615	0	1764.90	0	2.0970	0	34.6390	4	27.684	0	1743.429	0	46.4	4	14.0	4	-1E+10	1	-1E+10	1	-1E+10	1	-1E+10	1	-1E+10	1	-1E+10	1
4901784	69	C	05/25/2017	10:46	-132.371	43.615	0	1770.10	0	2.0950	0	34.6400	4	27.685	0	1748.544	0	46.6	4	14.1	4	-1E+10	1	-1E+10	1	-1E+10	1	-1E+10	1	-1E+10	1	-1E+10	1
4901784	69	C	05/25/2017	10:46	-132.371	43.615	0	1775.20	0	2.0920	0	34.6400	4	27.685	0	1753.561	0	46.8	4	14.1	4	-1E+10	1	-1E+10	1	-1E+10	1	-1E+10	1	-1E+10	1	-1E+10	1
4901784	69	C	05/25/2017	10:46	-132.371	43.615	0	1780.30	0	2.0890	0	34.6400	4	27.686	0	1758.578	0	47.0	4	14.2	4	-1E+10	1	-1E+10	1	-1E+10	1	-1E+10	1	-1E+10	1	-1E+10	1
4901784	69	C	05/25/2017	10:46	-132.371	43.615	0	1785.40	0	2.0870	0	34.6410	4	27.687	0	1763.595	0	47.1	4	14.3	4	-1E+10	1	-1E+10	1	-1E+10	1	-1E+10	1	-1E+10	1	-1E+10	1
4901784	69	C	05/25/2017	10:46	-132.371	43.615	0	1790.50	0	2.0840	0	34.6410	4	27.687	0	1768.611	0	47.4	4	14.3	4	-1E+10	1	-1E+10	1	-1E+10	1	-1E+10	1	-1E+10	1	-1E+10	1
4901784	69	C	05/25/2017	10:46	-132.371	43.615	0	1795.60	0	2.0800	0	34.6420	4	27.688	0	1773.627	0	47.6	4	14.4	4	-1E+10	1	-1E+10	1	-1E+10	1	-1E+10	1	-1E+10	1	-1E+10	1
4901784	69	C	05/25/2017	10:46	-132.371	43.615	0	1799.90	0	2.0770	0	34.6430	4	27.689	0	1777.857	0	47.9	4	14.5	4	-1E+10	1	-1E+10	1	-1E+10	1	-1E+10	1	-1E+10	1	-1E+10	1
4901784	69	C	05/25/2017	10:46	-132.371	43.615	0	1804.30	0	2.0730	0	34.6430	4	27.690	0	1782.185	0	48.2	4	14.6	4	-1E+10	1	-1E+10	1	-1E+10	1	-1E+10	1	-1E+10	1	-1E+10	1
4901784	69	C	05/25/2017	10:46	-132.371	43.615	0	1809.50	0	2.0680	0	34.6430	4	27.690	0	1787.299	0	48.5	4	14.7	4	-1E+10	1	-1E+10	1	-1E+10	1	-1E+10	1	-1E+10	1	-1E+10	1
4901784	69	C	05/25/2017	10:46	-132.371	43.615	0	1814.70	0	2.0620	0	34.6440	4	27.691	0	1792.413	0	49.0	4	14.8	4	-1E+10	1	-1E+10	1	-1E+10	1	-1E+10	1	-1E+10	1	-1E+10	1
4901784	69	C	05/25/2017	10:46	-132.371	43.615	0	1820.00	0	2.0550	0	34.6450	4	27.693	0	1797.626	0	49.3	4	14.9	4	-1E+10	1	-1E+10	1	-1E+10	1	-1E+10	1	-1E+10	1	-1E+10	1
4901784	69	C	05/25/2017	10:46	-132.371	43.615	0	1825.20	0	2.0510	0	34.6460	4	27.694	0	1802.740	0	49.5	4	14.9	4	-1E+10	1	-1E+10	1	-1E+10	1	-1E+10	1	-1E+10	1	-1E+10	1
4901784	69	C	05/25/2017	10:46	-132.371	43.615	0	1830.40	0	2.0490	0	34.6460	4	27.694	0	1807.854	0	49.7	4	15.0	4	-1E+10	1	-1E+10	1	-1E+10	1	-1E+10	1	-1E+10	1	-1E+10	1
4901784	69	C	05/25/2017	10:46	-132.371	43.615	0	1835.60	0	2.0460	0	34.6470	4	27.695	0	1812.967	0	49.9	4	15.1	4	-1E+10	1	-1E+10	1	-1E+10	1	-1E+10	1	-1E+10	1	-1E+10	1
4901784	69	C	05/25/2017	10:46	-132.371	43.615	0	1840.00	0	2.0430	0	34.6470	4	27.695	0	1817.294	0	50.2	4	15.2	4	-1E+10	1	-1E+10	1	-1E+10	1	-1E+10	1	-1E+10	1	-1E+10	1
4901784	69	C	05/25/2017	10:46	-132.371	43.615	0	1844.40	0	2.0390	0	34.6480	4	27.696	0	1821.621	0	50.5	4	15.3	4	-1E+10	1	-1E+10	1	-1E+10	1	-1E+10	1	-1E+10	1	-1E+10	1
4901784	69	C	05/25/2017	10:46	-132.371	43.615	0	1849.70	0	2.0330	0	34.6490	4	27.698	0	1826.833	0	51.0	4	15.4	4	-1E+10	1	-1E+10	1	-1E+10	1	-1E+10	1	-1E+10	1	-1E+10	1
4901784	69	C	05/25/2017	10:46	-132.371	43.615	0	1854.90	0	2.0260	0	34.6500	4	27.699	0	1831.946	0	51.3	4	15.5	4	-1E+10	1	-1E+10	1	-1E+10	1	-1E+10	1	-1E+10	1	-1E+10	1
4901784	69	C	05/25/2017	10:46	-132.371	43.615	0	1860.20	0	2.0220	0	34.6510	4	27.700	0	1837.158	0	51.6	4	15.6	4	-1E+10	1	-1E+10	1	-1E+10	1	-1E+10	1	-1E+10	1	-1E+10	1
4901784	69	C	05/25/2017	10:46	-132.371	43.615	0	1865.60	0	2.0180	0	34.6520	4	27.701	0	1842.468	0	51.9	4	15.7	4	-1E+10	1	-1E+10	1	-1E+10	1	-1E+10	1	-1E+10	1	-1E+10	1
4901784	69	C	05/25/2017	10:46	-132.371	43.615	0	1870.00	0	2.0150	0	34.6520	4	27.702	0	1846.794	0	52.1	4	15.7	4	-1E+10	1	-1E+10	1	-1E+10	1	-1E+10	1	-1E+10	1	-1E+10	1
4901784	69	C	05/25/2017	10:46	-132.371	43.615	0	1874.40	0	2.0100	0	34.6520	4	27.702	0	1851.120	0	52.3	4	15.8	4	-1E+10	1	-1E+10	1	-1E+10	1	-1E+10	1	-1E+10	1	-1E+10	1
4901784	69	C	05/25/2017	10:46	-132.371	43.615	0	1879.60	0	2.0080	0	34.6530	4	27.703	0	1856.233	0	52.6	4	15.9	4	-1E+10	1	-1E+10	1	-1E+10	1	-1E+10	1	-1E+10	1	-1E+10	1
4901784	69	C	05/25/2017	10:46	-132.371	43.615	0	1885.00	0	2.0040	0	34.6530	4	27.703	0	1861.542	0	52.9	4	16.0	4	-1E+10	1	-1E+10	1	-1E+10	1	-1E+10	1	-1E+10	1	-1E+10	1
4901784	69	C	05/25/2017	10:46	-132.371	43.615	0	1890.40	0	2.0000	0	34.6540	4	27.705	0	1866.851	0	53.3	4	16.1	4	-1E+10	1	-1E+10	1	-1E+10	1	-1E+10	1	-1E+10	1	-1E+10	1
4901784	69	C	05/25/2017	10:46	-132.371	43.615	0	1894.90	0	1.9970	0	34.6550	4	27.706	0	1871.275	0	53.5	4	16.1	4	-1E+10	1	-1E+10	1	-1E+10	1	-1E+10	1	-1E+10	1	-1E+10	1
4901784	69	C	05/25/2017	10:46	-132.371	43.615	0	1899.30	0	1.9940	0	34.6550	4	27.706	0	1875.601	0	53.7	4	16.2	4	-1E+10	1	-1E+10	1	-1E+10	1	-1E+10	1	-1E+10	1	-1E+10	1
4901784	69	C	05/25/2017	10:46	-132.371	43.615	0	1904.90	0	1.9910	0	34.6560	4	27.707	0	1881.107	0	54.0	4	16.3	4	-1E+10	1	-1E+10	1	-1E+10	1	-1E+10	1	-1E+10	1	-1E+10	1
4901784	69	C	05/25/2017	10:46	-132.371	43.615	0	1910.00	0	1.9880	0	34.6560	4	27.707	0	1886.120	0	54.2	4	16.3	4	-1E+10	1	-1E+10	1	-1E+10	1	-1E+10	1	-1E+10	1	-1E+10	1
4901784	69	C	05/25/2017	10:46	-132.371	43.615	0	1914.80	0	1.9860	0	34.6570	4	27.708	0	1890.839	0	54.4	4	16.4	4	-1E+10	1	-1E+10	1	-1E+10	1	-1E+10	1	-1E+10	1	-1E+10	1
4901784	69	C	05/25/2017	10:46	-132.371	43.615	0	1919.60	0	1.9830	0	34.6570	4	27.708	0	1895.558	0	54.7	4	16.5	4	-1E+10	1	-1E+10	1	-1E+10	1	-1E+10	1	-1E+10	1	-1E+10	1
4901784	69	C	05/25/2017	10:46	-132.371	43.615	0	1924.40	0	1.9770	0	34.6580	4	27.710	0	1900.276	0	55.0	4	16.6	4	-1E+10	1	-1E+10	1	-1E+10	1	-1E+10	1	-1E+10	1	-1E+10	1
4901784	69	C	05/25/2017	10:46	-132.371	43.615	0	1930.10	0	1.9740	0	34.6590	4	27.711	0	1905.879	0	55.3	4	16.7	4	-1E+10	1	-1E+10	1	-1E+10	1	-1E+10	1	-1E+10	1	-1E+10	1
4901784	69	C	05/25/2017	10:46	-132.371	43.615	0	1935.80	0	1.9700	0	34.6590	4	27.711	0	1911.482	0	55.6	4	16.8	4	-1E+10	1	-1E+10	1	-1E+10	1	-1E+10	1	-1E+10	1	-1E+10	1
4901784	69	C	05/25/2017	10:46	-132.371	43.615	0	1940.60	0	1.9660	0	34.6600	4	27.712	0	1916.200	0	55.9	4	16.9	4	-1E+10	1	-1E+10	1	-1E+10	1	-1E+10	1	-1E+10	1	-1E+10	1
4901784	69	C	05/25/2017	10:46	-132.371	43.615	0	1945.60	0	1.9610	0	34.6610	4	27.713	0	1921.115	0	56.2	4	16.9	4	-1E+10	1	-1E+10	1	-1E+10	1	-1E+10	1	-1E+10	1	-1E+10	1
4901784	69	C	05/25/2017	10:46	-132.371	43.615	0	1950.60	0	1.9580	0	34.6610	4	27.714	0	1926.029	0	56.4	4	17.0	4	-1E+10	1	-1E+10	1	-1E+10	1	-1E+10	1	-1E+10	1	-1E+10	1
4901784	69	C	05/25/2017	10:46	-132.371	43.615	0	1955.60	0	1.9550	0	34.6620	4	27.715	0	1930.943	0	56.6	4	17.0	4	-1E+10	1	-1E+10	1	-1E+10	1	-1E+10	1	-1E+10	1	-1E+10	1
4901784	69	C	05/25/2017	10:46	-132.371	43.615	0	1960.50	0	1.9550	0	34.6620	4	27.715	0	1935.759	0	56.7	4	17.1	4	-1E+10	1	-1E+10	1	-1E+10	1	-1E+10	1	-1E+10	1	-1E+10	1
4901784	69	C	05/25/2017	10:46	-132.371	43.615	0	1965.50	0	1.9530	0	34.6620	4	27.715	0	1940.674	0	56.9	4	17.2	4	-1E+10	1	-1E+10	1	-1E+10	1	-1E+10	1	-1E+10	1	-1E+10	1
4901784	69	C	05/25/2017	10:46	-132.371	43.615	0	1970.60	0	1.9490	0	34.6630	4	27.716	0	1945.686	0	57.2	4	17.2	4	-1E+10	1	-1E+10	1	-1E+10	1	-1E+10	1	-1E+10	1	-1E+10	1
4901784	69	C	05/25/2017	10:46	-132.371	43.615	0	1975.70	0	1.9460	0	34.6630	4	27.716	0	1950.698	0	57.4	4	17.3	4	-1E+10	1	-1E+10	1	-1E+10	1	-1E+10	1	-1E+10	1	-1E+10	1
4901784	69	C	05/25/2017	10:46	-132.371	43.615	0	1980.80	0	1.9440	0	34.6630	4	27.717	0	1955.710	0	57.7	4	17.4	4	-1E+10	1	-1E+10	1	-1E+10	1	-1E+10	1	-1E+10	1	-1E+10	1
4901784	69	C	05/25/2017	10:46	-132.371	43.615	0	1985.00	0	1.9400	0	34.6640	4	27.718	0	1959.838	0	58.1	4	17.5	4	-1E+10	1	-1E+10	1	-1E+10	1	-1E+10	1	-1E+10	1	-1E+10	1
4901784	69	C	05/25/2017	10:46	-132.371	43.615	0	1989.40	0	1.9360	0	34.6650	4	27.719	0	1964.162	0	58.4	4	17.6	4	-1E+10	1	-1E+10	1	-1E+10	1	-1E+10	1	-1E+10	1	-1E+10	1
4901784	69	C	05/25/2017	10:46	-132.371	43.615	0	1994.80	0	1.9280	0	34.6660	4	27.720	0	1969.468	0	58.9	4	17.7	4	-1E+10	1	-1E+10	1	-1E+10	1	-1E+10	1	-1E+10	1	-1E+10	1
4901784	69	C	05/25/2017	10:46	-132.371	43.615	0	1999.60	0	1.9240	0	34.6670	4	27.721	0	1974.185	0	59.2	4	17.8	4	-1E+10	1	-1E+10	1	-1E+10	1	-1E+10	1	-1E+10	1	-1E+10	1
4901784	69	C	05/25/2017	10:46	-132.371	43.615	0	2004.80	0	1.9210	0	34.6680	4	27.722	0	1979.295	0	59.5	4	17.9	4	-1E+10	1	-1E+10	1	-1E+10	1	-1E+10	1	-1E+10	1	-1E+10	1
4901784	69	C	05/25/2017	10:46	-132.371	43.615	0	2010.40	0	1.9190	0	34.6680	4	27.723	0	1984.797	0	59.6	4	17.9	4	-1E+10	1	-1E+10	1	-1E+10	1	-1E+10	1	-1E+10	1	-1E+10	1
4901784	69	C	05/25/2017	10:46	-132.371	43.615	0	2015.50	0	1.9170	0	34.6690	4	27.724	0	1989.809	0	58.9	8	17.7	8	-1E+10	1	-1E+10	1	-1E+10	1	-1E+10	1	-1E+10	1	-1E+10	1
4901784	69	C	05/25/2017	10:46	-132.371	43.615	0																										
4901784	70	C	06/04/2017	10:42	-132.443	43.588	0	2.60	0	12.1860	0	32.8270	4	24.867	0	2.579	0	267.7	4	100.5	4	-1E+10	1	-1E+10	1	-1E+10	1	-1E+10	1	-1E+10	1	-1E+10	1
4901784	70	C	06/04/2017	10:42	-132.443	43.588	0	4.20	0	12.1860	0	32.8270	4	24.867	0	4.166	0	267.6	4	100.5	4	-1E+10	1	-1E+10	1	-1E+10	1	-1E+10	1	-1E+10	1	-1E+10	1
4901784	70	C	06/04/2017	10:42	-132.443	43.588	0	5.90	0	12.1860	0	32.8270	4	24.868	0	5.853	0	267.5	4	100.5	4	-1E+10	1	-1E+10	1	-1E+10	1	-1E+10	1	-1E+10	1	-1E+10	1
4901784	70	C	06/04/2017	10:42	-132.443	43.588	0	7.80	0	12.1850	0	32.8270	4	24.868	0	7.738	0	267.4	4	100.4	4	-1E+10	1	-1E+10	1	-1E+10	1	-1E+10	1	-1E+10	1	-1E+10	1
4901784	70	C	06/04/2017	10:42	-132.443	43.588	0	9.70	0	12.1910	0	32.8270	4	24.867	0	9.622	0	267.3	4	100.4	4	-1E+10	1	-1E+10	1	-1E+10	1	-1E+10	1	-1E+10	1	-1E+10	1
4901784	70	C	06/04/2017	10:42	-132.443	43.588	0	11.60	0	12.1860	0	32.8260	4	24.867	0	11.507	0	267.4	4	100.4	4	-1E+10	1	-1E+10	1	-1E+10	1	-1E+10	1	-1E+10	1	-1E+10	1
4901784	70	C	06/04/2017	10:42	-132.443	43.588	0	13.70	0	12.1840	0	32.8250	4	24.867	0	13.590	0	267.5	4	100.5	4	-1E+10	1	-1E+10	1	-1E+10	1	-1E+10	1	-1E+10	1	-1E+10	1
4901784	70	C	06/04/2017	10:42	-132.443	43.588	0	15.60	0	12.1660	0	32.8250	4	24.870	0	15.475	0	267.6	4	100.4	4	-1E+10	1	-1E+10	1	-1E+10	1	-1E+10	1	-1E+10	1	-1E+10	1
4901784	70	C	06/04/2017	10:42	-132.443	43.588	0	17.50	0	12.1590	0	32.8250	4	24.871	0	17.359	0	267.8	4	100.5	4	-1E+10	1	-1E+10	1	-1E+10	1	-1E+10	1	-1E+10	1	-1E+10	1
4901784	70	C	06/04/2017	10:42	-132.443	43.588	0	19.30	0	12.1570	0	32.8240	4	24.871	0	19.145	0	267.8	4	100.5	4	-1E+10	1	-1E+10	1	-1E+10	1	-1E+10	1	-1E+10	1	-1E+10	1
4901784	70	C	06/04/2017	10:42	-132.443	43.588	0	21.10	0	12.1350	0	32.8220	4	24.874	0	20.930	0	268.2	4	100.6	4	-1E+10	1	-1E+10	1	-1E+10	1	-1E+10	1	-1E+10	1	-1E+10	1
4901784	70	C	06/04/2017	10:42	-132.443	43.588	0	23.10	0	12.0950	0	32.8300	4	24.887	0	22.914	0	268.7	4	100.7	4	-1E+10	1	-1E+10	1	-1E+10	1	-1E+10	1	-1E+10	1	-1E+10	1
4901784	70	C	06/04/2017	10:42	-132.443	43.588	0	23.60	0	12.0670	0	32.8200	4	24.885	0	23.410	0	269.2	4	100.8	4	-1E+10	1	-1E+10	1	-1E+10	1	-1E+10	1	-1E+10	1	-1E+10	1
4901784	70	C	06/04/2017	10:42	-132.443	43.588	0	25.20	0	12.0310	0	32.8170	4	24.889	0	24.997	0	269.8	4	101.0	4	-1E+10	1	-1E+10	1	-1E+10	1	-1E+10	1	-1E+10	1	-1E+10	1
4901784	70	C	06/04/2017	10:42	-132.443	43.588	0	26.70	0	11.9330	0	32.8180	4	24.908	0	26.485	0	270.4	4	101.0	4	-1E+10	1	-1E+10	1	-1E+10	1	-1E+10	1	-1E+10	1	-1E+10	1
4901784	70	C	06/04/2017	10:42	-132.443	43.588	0	28.30	0	11.9060	0	32.8170	4	24.913	0	28.072	0	271.0	4	101.2	4	-1E+10	1	-1E+10	1	-1E+10	1	-1E+10	1	-1E+10	1	-1E+10	1
4901784	70	C	06/04/2017	10:42	-132.443	43.588	0	29.80	0	11.8740	0	32.8140	4	24.916	0	29.560	0	271.6	4	101.3	4	-1E+10	1	-1E+10	1	-1E+10	1	-1E+10	1	-1E+10	1	-1E+10	1
4901784	70	C	06/04/2017	10:42	-132.443	43.588	0	31.40	0	11.8340	0	32.8130	4	24.923	0	31.147	0	272.2	4	101.4	4	-1E+10	1	-1E+10	1	-1E+10	1	-1E+10	1	-1E+10	1	-1E+10	1
4901784	70	C	06/04/2017	10:42	-132.443	43.588	0	32.80	0	11.7170	0	32.8150	4	24.946	0	32.535	0	273.1	4	101.6	4	-1E+10	1	-1E+10	1	-1E+10	1	-1E+10	1	-1E+10	1	-1E+10	1
4901784	70	C	06/04/2017	10:42	-132.443	43.588	0	34.40	0	11.5250	0	32.8170	4	24.983	0	34.122	0	274.7	4	101.7	4	-1E+10	1	-1E+10	1	-1E+10	1	-1E+10	1	-1E+10	1	-1E+10	1
4901784	70	C	06/04/2017	10:42	-132.443	43.588	0	36.00	0	11.3630	0	32.8190	4	25.014	0	35.709	0	275.4	4	101.7	4	-1E+10	1	-1E+10	1	-1E+10	1	-1E+10	1	-1E+10	1	-1E+10	1
4901784	70	C	06/04/2017	10:42	-132.443	43.588	0	37.60	0	11.2620	0	32.8250	4	25.037	0	37.296	0	275.6	4	101.5	4	-1E+10	1	-1E+10	1	-1E+10	1	-1E+10	1	-1E+10	1	-1E+10	1
4901784	70	C	06/04/2017	10:42	-132.443	43.588	0	39.40	0	11.1560	0	32.8210	4	25.053	0	39.082	0	276.0	4	101.4	4	-1E+10	1	-1E+10	1	-1E+10	1	-1E+10	1	-1E+10	1	-1E+10	1
4901784	70	C	06/04/2017	10:42	-132.443	43.588	0	41.10	0	11.1270	0	32.8170	4	25.055	0	40.768	0	275.5	4	101.2	4	-1E+10	1	-1E+10	1	-1E+10	1	-1E+10	1	-1E+10	1	-1E+10	1
4901784	70	C	06/04/2017	10:42	-132.443	43.588	0	42.80	0	11.0470	0	32.8120	4	25.065	0	42.454	0	275.1	4	100.9	4	-1E+10	1	-1E+10	1	-1E+10	1	-1E+10	1	-1E+10	1	-1E+10	1
4901784	70	C	06/04/2017	10:42	-132.443	43.588	0	44.60	0	10.7950	0	32.8200	4	25.116	0	44.239	0	275.5	4	100.5	4	-1E+10	1	-1E+10	1	-1E+10	1	-1E+10	1	-1E+10	1	-1E+10	1
4901784	70	C	06/04/2017	10:42	-132.443	43.588	0	46.20	0	10.7430	0	32.8190	4	25.124	0	45.826	0	275.3	4	100.3	4	-1E+10	1	-1E+10	1	-1E+10	1	-1E+10	1	-1E+10	1	-1E+10	1
4901784	70	C	06/04/2017	10:42	-132.443	43.588	0	47.90	0	10.6870	0	32.8200	4	25.135	0	47.512	0	274.9	4	100.0	4	-1E+10	1	-1E+10	1	-1E+10	1	-1E+10	1	-1E+10	1	-1E+10	1
4901784	70	C	06/04/2017	10:42	-132.443	43.588	0	49.60	0	10.6140	0	32.8170	4	25.145	0	49.198	0	275.2	4	100.0	4	-1E+10	1	-1E+10	1	-1E+10	1	-1E+10	1	-1E+10	1	-1E+10	1
4901784	70	C	06/04/2017	10:42	-132.443	43.588	0	51.30	0	10.5610	0	32.8150	4	25.153	0	50.884	0	274.8	4	99.7	4	-1E+10	1	-1E+10	1	-1E+10	1	-1E+10	1	-1E+10	1	-1E+10	1
4901784	70	C	06/04/2017	10:42	-132.443	43.588	0	53.20	0	10.4100	0	32.8300	4	25.190	0	52.768	0	275.1	4	99.5	4	-1E+10	1	-1E+10	1	-1E+10	1	-1E+10	1	-1E+10	1	-1E+10	1
4901784	70	C	06/04/2017	10:42	-132.443	43.588	0	55.00	0	10.1740	0	32.8840	4	25.272	0	54.553	0	276.0	4	99.4	4	-1E+10	1	-1E+10	1	-1E+10	1	-1E+10	1	-1E+10	1	-1E+10	1
4901784	70	C	06/04/2017	10:42	-132.443	43.588	0	56.90	0	10.1340	0	32.9140	4	25.302	0	56.438	0	275.5	4	99.1	4	-1E+10	1	-1E+10	1	-1E+10	1	-1E+10	1	-1E+10	1	-1E+10	1
4901784	70	C	06/04/2017	10:42	-132.443	43.588	0	58.80	0	10.0870	0	32.9130	4	25.310	0	58.322	0	274.9	4	98.8	4	-1E+10	1	-1E+10	1	-1E+10	1	-1E+10	1	-1E+10	1	-1E+10	1
4901784	70	C	06/04/2017	10:42	-132.443	43.588	0	60.70	0	10.0080	0	32.9130	4	25.323	0	60.206	0	274.4	4	98.5	4	-1E+10	1	-1E+10	1	-1E+10	1	-1E+10	1	-1E+10	1	-1E+10	1
4901784	70	C	06/04/2017	10:42	-132.443	43.588	0	62.50	0	9.9880	0	32.9060	4	25.321	0	61.991	0	273.8	4	98.2	4	-1E+10	1	-1E+10	1	-1E+10	1	-1E+10	1	-1E+10	1	-1E+10	1
4901784	70	C	06/04/2017	10:42	-132.443	43.588	0	64.20	0	9.7920	0	32.9110	4	25.357	0	63.677	0	273.7	4	97.7	4	-1E+10	1	-1E+10	1	-1E+10	1	-1E+10	1	-1E+10	1	-1E+10	1
4901784	70	C	06/04/2017	10:42	-132.443	43.588	0	66.10	0	9.7720	0	32.9130	4	25.362	0	65.561	0	273.4	4	97.6	4	-1E+10	1	-1E+10	1	-1E+10	1	-1E+10	1	-1E+10	1	-1E+10	1
4901784	70	C	06/04/2017	10:42	-132.443	43.588	0	68.00	0	9.7260	0	32.9230	4	25.377	0	67.446	0	272.7	4	97.2	4	-1E+10	1	-1E+10	1	-1E+10	1	-1E+10	1	-1E+10	1	-1E+10	1
4901784	70	C	06/04/2017	10:42	-132.443	43.588	0	69.90	0	9.3430	0	32.8970	4	25.419	0	69.330	0	273.6	4	96.7	4	-1E+10	1	-1E+10	1	-1E+10	1	-1E+10	1	-1E+10	1	-1E+10	1
4901784	70	C	06/04/2017	10:42	-132.443	43.588	0	71.60	0	9.2240	0	32.8880	4	25.431	0	71.016	0	273.4	4	96.4	4	-1E+10	1	-1E+10	1	-1E+10	1	-1E+10	1	-1E+10	1	-1E+10	1
4901784	70	C	06/04/2017	10:42	-132.443	43.588	0	73.50	0	9.1770	0	32.9310	4	25.472	0	72.900	0	271.9	4	95.8	4	-1E+10	1	-1E+10	1	-1E+10	1	-1E+10	1	-1E+10	1	-1E+10	1
4901784	70	C	06/04/2017	10:42	-132.443	43.588	0	75.40	0	9.0310	0	32.9400	4	25.502	0	74.784	0	271.5	4	95.4	4	-1E+10	1	-1E+10	1	-1E+10	1	-1E+10	1	-1E+10	1	-1E+10	1
4901784	70	C	06/04/2017	10:42	-132.443	43.588	0	77.30	0	9.1670	0	32.9910	4	25.521	0	76.668	0	269.3	4	94.9	4	-1E+10	1	-1E+10	1	-1E+10	1	-1E+10	1	-1E+10	1	-1E+10	1
4901784	70	C	06/04/2017	10:42	-132.443	43.588	0	79.20	0	9.1340	0	32.9920	4	25.527	0	78.552	0	268.0	4	94.4	4	-1E+10	1	-1E+10	1	-1E+10	1	-1E+10	1	-1E+10	1	-1E+10	1
4901784	70	C	06/04/2017	10:42	-132.443	43.588	0	81.10	0	9.0940	0	33.0160	4	25.552	0	80.436	0	267.1	4	94.0	4	-1E+10	1	-1E+10	1	-1E+10	1	-1E+10	1	-1E+10	1	-1E+10	1
4901784	70	C	06/04/2017	10:42	-132.443	43.588	0	83.00	0	8.9840	0	33.0010	4	25.557	0	82.320	0	267.3	4	93.9	4	-1E+10	1	-1E+10	1	-1E+10	1	-1E+10	1	-1E+10	1	-1E+10	1
4901784	70	C	06/04/2017	10:42	-132.443	43.588	0	84.90	0	8.9350	0	32.9940	4	25.559	0	84.204	0	267.0	4	93.6	4	-1E+10	1	-1E+10	1	-1E+10	1	-1E+10	1	-1E+10	1	-1E+10	1
4901784	70	C	06/04/2017	10:42	-132.443	43.588	0	86.80	0	8.7820	0	32.9820	4	25.574	0	86.089	0	267.1	4	93.3	4	-1E+10	1	-1E+10	1	-1E+10	1	-1E+10	1	-1E+10	1	-1E+10	1
4901784	70	C	06/04/2017	10:42	-132.443	43.588	0	88.70	0	8.6250	0	32.9690	4	25.588	0	87.973	0	267.4	4	93.1	4	-1E+10	1	-1E+10	1	-1E+10	1	-1E+10	1	-1E+10	1	-1E+10	1
4901784	70	C	06/04/2017	10:42	-132.443	43.588	0	90.80	0	8.5830	0	32.9690	4	25.594	0	90.055	0	267.0	4	92.9	4	-1E+10	1	-1E+10	1	-1E+10	1	-1E+10	1	-1E+10	1	-1E+10	1
4901784	70	C	06/04/2017	10:42	-132.443	43.588	0	92.80	0	8.5180	0	32.9710	4	25.605	0	92.038	0	266.6	4	92.6	4	-1E+10	1	-1E+10	1	-1E+10	1	-1E+10	1	-1E+10	1	-1E+10	1
4901784	70	C	06/04/2017	10:42	-132.443	43.588	0	94.70	0	8.4820	0	32.9740	4	25.613	0	93.922	0	266.2	4	92.4	4	-1E+10	1	-1E+10	1	-1E+10	1	-1E+10	1	-1E+10	1	-1E+10	1
4901784	70	C	06/04/2017	10:42	-132.443	43.588	0	96.60	0	8.4440	0	32.9770	4	25.621	0	95.806	0	265.0	4	91.9	4	-1E+10	1	-1E+10	1	-1E+10	1	-1E+10	1	-1E+10	1	-1E+10	1
4901784	70	C	06/04/2017	10:42	-132.443	43.588	0	99.00	0	8.4220	0	32.9780	4	25.625	0	98.186	0	262.7	4	91.1	4	-1E+10	1	-1E+10	1	-1E+10	1	-1E+10	1	-1E+10	1	-1E+10	1
4901784	70	C	06/04/2017	10:42	-132.443	43.588	0	102.50	0	8.4080	0	33.0140	4	25.656	0	101.656	0	257.2	4	89.2	4	-1E+10	1	-1E+10	1	-1E+10	1	-1E+10	1	-1E+10	1	-1E+10	1
4901784	70	C	06/04/2017	10:42	-132.443	43.588	0	104.80	0	8.4020	0	33.0400	4	25.677	0	103.936	0	252.8	4	87.7	4	-1E+10	1	-1E+10	1	-1E+10	1	-1E+10	1	-1E+10	1	-1E+10	1
4901784	70	C	06/04/2017	10:42	-132.443	43.588	0	107.90	0	8.4010	0	33.0630	4	25.695	0	107.010	0	246.2	4	85.4	4	-1E+10	1	-1E+10	1	-1E+10	1	-1E+10	1	-1E+10	1	-1E+10	1
4901784	70	C	06/04/2017	10:42	-132.443	43.588	0	110.30	0	8.4040	0	33.0760	4	25.705	0	109.390	0	238.6	4	82.8	4	-1E+10	1	-1E+10	1	-1E+10	1	-1E+10	1	-1E+10	1	-1E+10	1
4901784	70	C	06/04/2017	10:42	-132.443	43.588	0	112.80	0	8.5240	0	33.1520	4	25.747	0	111.868	0	228.0	4	79.3	4	-1E+10	1	-1E+10	1	-1E+10	1	-1E+10	1	-1E+10	1	-1E+10	1
4901784	70	C	06/04/2017	10:42	-132.443	43.588	0	115.10	0	8.6880	0	33.2510	4	25.799	0	114.149	0	218.7	4	76.4	4	-1E+10	1	-1E+10	1	-1E+10	1	-1E+10	1	-1E+10	1	-1E+10	1
4901784	70	C	06/04/2017	10:42	-132.443	43.588	0	116.80	0	8.6740	0	33.2620	4	25.810	0	115.834	0	214.4	4	74.9	4	-1E+10	1	-1E+10	1	-1E+10	1	-1E+10	1	-1E+10	1	-1E+10	1
4901784	70	C	06/04/2017	10:42	-132.443	43.588	0	119.80	0	8.7860	0	33.3600	4	25.870	0	118.809	0	203.6	4	71.4	4	-1E+10	1	-1E+10	1	-1E+10	1	-1E+10	1	-1E+10	1	-1E+10	1
4901784	70	C	06/04/2017	10:42	-132.443	43.588	0	122.50	0	8.8980	0	33.5020	4	25.964	0	121.485	0	196.2	4	69.0	4	-1E+10	1	-1E+10	1	-1E+10	1	-1E+10	1	-1E+10	1	-1E+10	1
4901784	70	C	06/04/2017	10:42	-132.443	43.588	0	124.90	0	8.8250	0	33.5960	4	26.049	0	123.865	0	195.4	4	68.7	4	-1E+10	1	-1E+10	1	-1E+10	1	-1E+10	1	-1E+10	1	-1E+10	1
4901784	70	C	06/04/2017	10:42	-132.443	43.588	0	128.00	0	8.8030	0	33.6300	4	26.079	0	126.938	0	192.9	4	67.8	4	-1E+10	1	-1E+10	1	-1E+10	1	-1E+10	1	-1E+10	1	-1E+10	1
4901784	70	C	06/04/2017	10:42	-132.443	43.588	0	130.30	0	8.7810	0	33.6630	4	26.108	0	129.218	0	190.6	4	67.0	4	-1E+10	1	-1E+10	1	-1E+10	1	-1E+10	1	-1E+10	1	-1E+10	1
4901784	70	C	06/04/2017	10:42	-132.443	43.588	0	132.60	0	8.7570	0	33.6990	4	26.140	0	131.499	0	188.5	4	66.2	4	-1E+10	1	-1E+10	1	-1E+10	1	-1E+10	1	-1E+10	1	-1E+10	1
4901784	70	C	06/04/2017	10:42	-132.443	43.588	0	135.10	0	8.7290	0	33.7360	4	26.173	0	133.977	0	186.8	4	65.6	4	-1E+10	1	-1E+10	1	-1E+10	1	-1E+10	1	-1E+10	1	-1E+10	1
4901784	70	C	06/04/2017	10:42	-132.443	43.588	0	137.60	0	8.7160	0	33.7530	4	26.189	0	136.455	0	185.5	4	65.1	4	-1E+10	1	-1E+10	1	-1E+10	1	-1E+10	1	-1E+10	1	-1E+10	1
4901784	70	C	06/04/2017	10:42	-132.443	43.588	0	140.20	0	8.7060	0	33.7650	4	26.200	0	139.033	0	184.3	4	64.7	4	-1E+10	1	-1E+10	1	-1E+10	1	-1E+10	1	-1E+10	1	-1E+10	1
4901784	70	C	06/04/2017	10:42	-132.443	43.588	0	142.70	0	8.6780	0	33.8060	4	26.236	0	141.511	0	183.1	4	64.2	4	-1E+10	1	-1E+10	1	-1E+10	1	-1E+10	1	-1E+10	1	-1E+10	1
4901784	70	C	06/04/2017	10:42	-132.443	43.588	0	145.30	0	8.6620	0	33.8270	4	26.255	0	144.089	0	182.2	4	63.9	4	-1E+10	1	-1E+10	1	-1E+10	1	-1E+10	1	-1E+10	1	-1E+10	1
4901784	70	C	06/04/2017	10:42	-132.443	43.588	0	147.00	0	8.6180	0	33.8570	4	26.286	0	145.774	0	181.3	4	63.5	4	-1E+10	1	-1E+10	1	-1E+10	1	-1E+10	1	-1E+10	1	-1E+10	1
4901784	70	C	06/04/2017	10:42	-132.443	43.588	0	149.70	0	8.5450	0	33.9060	4	26.335	0	148.450	0	180.9	4	63.3	4	-1E+10	1	-1E+10	1	-1E+10	1	-1E+10	1	-1E+10	1	-1E+10	1
4901784	70	C	06/04/2017	10:42	-132.443	43.588	0	152.40	0	8.5260	0	33.9180	4	26.348	0	151.127	0	180.3	4	63.1	4	-1E+10	1	-1E+10	1	-1E+10	1	-1E+10	1	-1E+10	1	-1E+10	1
4901784	70	C	06/04/2017	10:42	-132.443	43.588	0	155.10	0	8.5130	0	33.9240	4	26.354	0	153.803	0	179.4	4	62.8	4	-1E+10	1	-1E+10	1	-1E+10	1	-1E+10	1	-1E+10	1	-1E+10	1
4901784	70	C	06/04/2017	10:42	-132.443	43.588	0	157.70	0	8.4700	0	33.9370	4	26.371	0	156.381	0	178.3	4	62.3	4	-1E+10	1	-1E+10	1	-1E+10	1	-1E+10	1	-1E+10	1	-1E+10	1
4901784	70	C	06/04/2017	10:42	-132.443	43.588	0	160.30	0	8.3960	0	33.9510	4	26.393	0	158.958	0	177.2	4	61.8	4	-1E+10	1	-1E+10	1	-1E+10	1	-1E+10	1	-1E+10	1	-1E+10	1
4901784	70	C	06/04/2017	10:42	-132.443	43.588	0	163.10	0	8.3140	0	33.9610	4	26.414	0	161.733	0	176.3	4	61.4	4	-1E+10	1	-1E+10	1	-1E+10	1	-1E+10	1	-1E+10	1	-1E+10	1
4901784	70	C	06/04/2017	10:42	-132.443	43.588	0	164.90	0	8.3010	0	33.9610	4	26.416	0	163.517	0	175.6	4	61.2	4	-1E+10	1	-1E+10	1	-1E+10	1	-1E+10	1	-1E+10	1	-1E+10	1
4901784	70	C	06/04/2017	10:42	-132.443	43.588	0	167.80	0	8.2280	0	33.9660	4	26.431	0	166.392	0	174.8	4	60.8	4	-1E+10	1	-1E+10	1	-1E+10	1	-1E+10	1	-1E+10	1	-1E+10	1
4901784	70	C	06/04/2017	10:42	-132.443	43.588	0	170.60	0	8.2180	0	33.9660	4	26.432	0	169.167	0	174.0	4	60.5	4	-1E+10	1	-1E+10	1	-1E+10	1	-1E+10	1	-1E+10	1	-1E+10	1
4901784	70	C	06/04/2017	10:42	-132.443	43.588	0	172.50	0	8.2170	0	33.9660	4	26.432	0	171.051	0	173.2	4	60.2	4	-1E+10	1	-1E+10	1	-1E+10	1	-1E+10	1	-1E+10	1	-1E+10	1
4901784	70	C	06/04/2017	10:42	-132.443	43.588	0	175.30	0	8.2080	0	33.9650	4	26.433	0	173.826	0	171.5	4	59.6	4	-1E+10	1	-1E+10	1	-1E+10	1	-1E+10	1	-1E+10	1	-1E+10	1
4901784	70	C	06/04/2017	10:42	-132.443	43.588	0	178.00	0	8.1490	0	33.9660	4	26.443	0	176.502	0	169.4	4	58.8	4	-1E+10	1	-1E+10	1	-1E+10	1	-1E+10	1	-1E+10	1	-1E+10	1
4901784	70	C	06/04/2017	10:42	-132.443	43.588	0	179.80	0	8.0730	0	33.9700	4	26.457	0	178.286	0	168.0	4	58.2	4	-1E+10	1	-1E+10	1	-1E+10	1	-1E+10	1	-1E+10	1	-1E+10	1
4901784	70	C	06/04/2017	10:42	-132.443	43.588	0	182.70	0	7.9580	0	33.9710	4	26.475	0	181.160	0	166.1	4	57.4	4	-1E+10	1	-1E+10	1	-1E+10	1	-1E+10	1	-1E+10	1	-1E+10	1
4901784	70	C	06/04/2017	10:42	-132.443	43.588	0	185.50	0	7.9040	0	33.9710	4	26.483	0	183.936	0	164.5	4	56.8	4	-1E+10	1	-1E+10	1	-1E+10	1	-1E+10	1	-1E+10	1	-1E+10	1
4901784	70	C	06/04/2017	10:42	-132.443	43.588	0	187.30	0	7.8220	0	33.9720	4	26.496	0	185.720	0	163.3	4	56.3	4	-1E+10	1	-1E+10	1	-1E+10	1	-1E+10	1	-1E+10	1	-1E+10	1
4901784	70	C	06/04/2017	10:42	-132.443	43.588	0	190.10	0	7.7510	0	33.9730	4	26.507	0	188.495	0	162.0	4	55.7	4	-1E+10	1	-1E+10	1	-1E+10	1	-1E+10	1	-1E+10	1	-1E+10	1
4901784	70	C	06/04/2017	10:42	-132.443	43.588	0	192.90	0	7.6580	0	33.9750	4	26.522	0	191.270	0	160.9	4	55.2	4	-1E+10	1	-1E+10	1	-1E+10	1	-1E+10	1	-1E+10	1	-1E+10	1
4901784	70	C	06/04/2017	10:42	-132.443	43.588	0	194.70	0	7.5970	0	33.9780	4	26.533	0	193.054	0	160.4	4	55.0	4	-1E+10	1	-1E+10	1	-1E+10	1	-1E+10	1	-1E+10	1	-1E+10	1
4901784	70	C	06/04/2017	10:42	-132.443	43.588	0	197.60	0	7.5780	0	33.9790	4	26.536	0	195.928	0	159.5	4	54.6	4	-1E+10	1	-1E+10	1	-1E+10	1	-1E+10	1	-1E+10	1	-1E+10	1
4901784	70	C	06/04/2017	10:42	-132.443	43.588	0	200.40	0	7.5470	0	33.9820	4	26.543	0	198.703	0	158.5	4	54.3	4	-1E+10	1	-1E+10	1	-1E+10	1	-1E+10	1	-1E+10	1	-1E+10	1
4901784	70	C	06/04/2017	10:42	-132.443	43.588	0	202.30	0	7.5430	0	33.9820	4	26.544	0	200.586	0	157.6	4	54.0	4	-1E+10	1	-1E+10	1	-1E+10	1	-1E+10	1	-1E+10	1	-1E+10	1
4901784	70	C	06/04/2017	10:42	-132.443	43.588	0	205.10	0	7.4740	0	33.9840	4	26.555	0	203.361	0	156.2	4	53.4	4	-1E+10	1	-1E+10	1	-1E+10	1	-1E+10	1	-1E+10	1	-1E+10	1
4901784	70	C	06/04/2017	10:42	-132.443	43.588	0	207.90	0	7.4370	0	33.9820	4	26.559	0	206.135	0	154.9	4	52.9	4	-1E+10	1	-1E+10	1	-1E+10	1	-1E+10	1	-1E+10	1	-1E+10	1
4901784	70	C	06/04/2017	10:42	-132.443	43.588	0	209.80	0	7.4130	0	33.9800	4	26.561	0	208.018	0	153.8	4	52.5	4	-1E+10	1	-1E+10	1	-1E+10	1	-1E+10	1	-1E+10	1	-1E+10	1
4901784	70	C	06/04/2017	10:42	-132.443	43.588	0	212.50	0	7.3510	0	33.9800	4	26.570	0	210.694	0	152.3	4	51.9	4	-1E+10	1	-1E+10	1	-1E+10	1	-1E+10	1	-1E+10	1	-1E+10	1
4901784	70	C	06/04/2017	10:42	-132.443	43.588	0	215.30	0	7.3020	0	33.9790	4	26.576	0	213.469	0	150.6	4	51.3	4	-1E+10	1	-1E+10	1	-1E+10	1	-1E+10	1	-1E+10	1	-1E+10	1
4901784	70	C	06/04/2017	10:42	-132.443	43.588	0	217.20	0	7.2240	0	33.9810	4	26.588	0	215.352	0	149.8	4	50.9	4	-1E+10	1	-1E+10	1	-1E+10	1	-1E+10	1	-1E+10	1	-1E+10	1
4901784	70	C	06/04/2017	10:42	-132.443	43.588	0	220.00	0	7.1870	0	33.9800	4	26.593	0	218.126	0	148.9	4	50.6	4	-1E+10	1	-1E+10	1	-1E+10	1	-1E+10	1	-1E+10	1	-1E+10	1
4901784	70	C	06/04/2017	10:42	-132.443	43.588	0	222.80	0	7.1500	0	33.9820	4	26.599	0	220.901	0	147.9	4	50.2	4	-1E+10	1	-1E+10	1	-1E+10	1	-1E+10	1	-1E+10	1	-1E+10	1
4901784	70	C	06/04/2017	10:42	-132.443	43.588	0	224.60	0	7.1090	0	33.9810	4	26.604	0	222.685	0	147.6	4	50.0	4	-1E+10	1	-1E+10	1	-1E+10	1	-1E+10	1	-1E+10	1	-1E+10	1
4901784	70	C	06/04/2017	10:42	-132.443	43.588	0	227.50	0	7.0800	0	33.9800	4	26.607	0	225.558	0	146.9	4	49.8	4	-1E+10	1	-1E+10	1	-1E+10	1	-1E+10	1	-1E+10	1	-1E+10	1
4901784	70	C	06/04/2017	10:42	-132.443	43.588	0	230.30	0	7.0150	0	33.9780	4	26.615	0	228.333	0	145.6	4	49.3	4	-1E+10	1	-1E+10	1	-1E+10	1	-1E+10	1	-1E+10	1	-1E+10	1
4901784	70	C	06/04/2017	10:42	-132.443	43.588	0	232.20	0	6.9430	0	33.9780	4	26.625	0	230.216	0	145.0	4	49.0	4	-1E+10	1	-1E+10	1	-1E+10	1	-1E+10	1	-1E+10	1	-1E+10	1
4901784	70	C	06/04/2017	10:42	-132.443	43.588	0	235.00	0	6.9190	0	33.9810	4	26.630	0	232.990	0	144.3	4	48.7	4	-1E+10	1	-1E+10	1	-1E+10	1	-1E+10	1	-1E+10	1	-1E+10	1
4901784	70	C	06/04/2017	10:42	-132.443	43.588	0	238.30	0	6.8830	0	33.9850	4	26.638	0	236.260	0	143.8	4	48.5	4	-1E+10	1	-1E+10	1	-1E+10	1	-1E+10	1	-1E+10	1	-1E+10	1
4901784	70	C	06/04/2017	10:42	-132.443	43.588	0	240.20	0	6.8780	0	33.9850	4	26.639	0	238.143	0	143.2	4	48.3	4	-1E+10	1	-1E+10	1	-1E+10	1	-1E+10	1	-1E+10	1	-1E+10	1
4901784	70	C	06/04/2017	10:42	-132.443	43.588	0	242.50	0	6.8400	0	33.9850	4	26.644	0	240.422	0	141.8	4	47.8	4	-1E+10	1	-1E+10	1	-1E+10	1	-1E+10	1	-1E+10	1	-1E+10	1
4901784	70	C	06/04/2017	10:42	-132.443	43.588	0	244.80	0	6.8030	0	33.9830	4	26.648	0	242.701	0	140.6	4	47.3	4	-1E+10	1	-1E+10	1	-1E+10	1	-1E+10	1	-1E+10	1	-1E+10	1
4901784	70	C	06/04/2017	10:42	-132.443	43.588	0	247.10	0	6.7480	0	33.9840	4	26.656	0	244.980	0	139.6	4	47.0	4	-1E+10	1	-1E+10	1	-1E+10	1	-1E+10	1	-1E+10	1	-1E+10	1
4901784	70	C	06/04/2017	10:42	-132.443	43.588	0	250.30	0	6.6540	0	33.9850	4	26.669	0	248.150	0	138.6	4	46.5	4	-1E+10	1	-1E+10	1	-1E+10	1	-1E+10	1	-1E+10	1	-1E+10	1
4901784	70	C	06/04/2017	10:42	-132.443	43.588	0	252.70	0	6.6200	0	33.9860	4	26.674	0	250.528	0	137.9	4	46.2	4	-1E+10	1	-1E+10	1	-1E+10	1	-1E+10	1	-1E+10	1	-1E+10	1
4901784	70	C	06/04/2017	10:42	-132.443	43.588	0	255.10	0	6.5840	0	33.9870	4	26.680	0	252.906	0	137.2	4	46.0	4	-1E+10	1	-1E+10	1	-1E+10	1	-1E+10	1	-1E+10	1	-1E+10	1
4901784	70	C	06/04/2017	10:42	-132.443	43.588	0	257.60	0	6.5730	0	33.9860	4	26.681	0	255.383	0	136.2	4	45.6	4	-1E+10	1	-1E+10	1	-1E+10	1	-1E+10	1	-1E+10	1	-1E+10	1
4901784	70	C	06/04/2017	10:42	-132.443	43.588	0	260.00	0	6.5490	0	33.9850	4	26.683	0	257.761	0	135.0	4	45.2	4	-1E+10	1	-1E+10	1	-1E+10	1	-1E+10	1	-1E+10	1	-1E+10	1
4901784	70	C	06/04/2017	10:42	-132.443	43.588	0	262.50	0	6.5130	0	33.9820	4	26.685	0	260.238	0	133.5	4	44.7	4	-1E+10	1	-1E+10	1	-1E+10	1	-1E+10	1	-1E+10	1	-1E+10	1
4901784	70	C	06/04/2017	10:42	-132.443	43.588	0	265.00	0	6.4820	0	33.9830	4	26.690	0	262.715	0	131.8	4	44.1	4	-1E+10	1	-1E+10	1	-1E+10	1	-1E+10	1	-1E+10	1	-1E+10	1
4901784	70	C	06/04/2017	10:42	-132.443	43.588	0	267.40	0	6.4290	0	33.9840	4	26.698	0	265.092	0	129.8	4	43.3	4	-1E+10	1	-1E+10	1	-1E+10	1	-1E+10	1	-1E+10	1	-1E+10	1
4901784	70	C	06/04/2017	10:42	-132.443	43.588	0	270.00	0	6.3740	0	33.9800	4	26.702	0	267.668	0	127.4	4	42.5	4	-1E+10	1	-1E+10	1	-1E+10	1	-1E+10	1	-1E+10	1	-1E+10	1
4901784	70	C	06/04/2017	10:42	-132.443	43.588	0	272.60	0	6.3280	0	33.9800	4	26.708	0	270.244	0	124.2	4	41.4	4	-1E+10	1	-1E+10	1	-1E+10	1	-1E+10	1	-1E+10	1	-1E+10	1
4901784	70	C	06/04/2017	10:42	-132.443	43.588	0	275.00	0	6.2620	0	33.9810	4	26.717	0	272.622	0	121.0	4	40.2	4	-1E+10	1	-1E+10	1	-1E+10	1	-1E+10	1	-1E+10	1	-1E+10	1
4901784	70	C	06/04/2017	10:42	-132.443	43.588	0	277.60	0	6.2370	0	33.9800	4	26.720	0	275.198	0	119.1	4	39.6	4	-1E+10	1	-1E+10	1	-1E+10	1	-1E+10	1	-1E+10	1	-1E+10	1
4901784	70	C	06/04/2017	10:42	-132.443	43.588	0	280.20	0	6.2140	0	33.9790	4	26.722	0	277.773	0	116.9	4	38.8	4	-1E+10	1	-1E+10	1	-1E+10	1	-1E+10	1	-1E+10	1	-1E+10	1
4901784	70	C	06/04/2017	10:42	-132.443	43.588	0	282.80	0	6.1720	0	33.9780	4	26.727	0	280.349	0	114.8	4	38.1	4	-1E+10	1	-1E+10	1	-1E+10	1	-1E+10	1	-1E+10	1	-1E+10	1
4901784	70	C	06/04/2017	10:42	-132.443	43.588	0	284.50	0	6.1400	0	33.9780	4	26.731	0	282.033	0	113.3	4	37.6	4	-1E+10	1	-1E+10	1	-1E+10	1	-1E+10	1	-1E+10	1	-1E+10	1
4901784	70	C	06/04/2017	10:42	-132.443	43.588	0	287.20	0	6.0500	0	33.9800	4	26.744	0	284.708	0	111.4	4	36.9	4	-1E+10	1	-1E+10	1	-1E+10	1	-1E+10	1	-1E+10	1	-1E+10	1
4901784	70	C	06/04/2017	10:42	-132.443	43.588	0	289.80	0	6.0050	0	33.9800	4	26.749	0	287.284	0	109.7	4	36.3	4	-1E+10	1	-1E+10	1	-1E+10	1	-1E+10	1	-1E+10	1	-1E+10	1
4901784	70	C	06/04/2017	10:42	-132.443	43.588	0	292.60	0	5.9340	0	33.9820	4	26.760	0	290.057	0	108.5	4	35.8	4	-1E+10	1	-1E+10	1	-1E+10	1	-1E+10	1	-1E+10	1	-1E+10	1
4901784	70	C	06/04/2017	10:42	-132.443	43.588	0	295.30	0	5.9200	0	33.9810	4	26.761	0	292.732	0	107.4	4	35.4	4	-1E+10	1	-1E+10	1	-1E+10	1	-1E+10	1	-1E+10	1	-1E+10	1
4901784	70	C	06/04/2017	10:42	-132.443	43.588	0	297.10	0	5.8920	0	33.9800	4	26.763	0	294.515	0	106.5	4	35.1	4	-1E+10	1	-1E+10	1	-1E+10	1	-1E+10	1	-1E+10	1	-1E+10	1
4901784	70	C	06/04/2017	10:42	-132.443	43.588	0	299.80	0	5.8320	0	33.9820	4	26.772	0	297.190	0	105.7	4	34.8	4	-1E+10	1	-1E+10	1	-1E+10	1	-1E+10	1	-1E+10	1	-1E+10	1
4901784	70	C	06/04/2017	10:42	-132.443	43.588	0	302.40	0	5.8170	0	33.9820	4	26.774	0	299.765	0	104.8	4	34.5	4	-1E+10	1	-1E+10	1	-1E+10	1	-1E+10	1	-1E+10	1	-1E+10	1
4901784	70	C	06/04/2017	10:42	-132.443	43.588	0	305.20	0	5.8080	0	33.9800	4	26.774	0	302.539	0	103.6	4	34.1	4	-1E+10	1	-1E+10	1	-1E+10	1	-1E+10	1	-1E+10	1	-1E+10	1
4901784	70	C	06/04/2017	10:42	-132.443	43.588	0	307.80	0	5.7820	0	33.9790	4	26.776	0	305.114	0	101.6	4	33.4	4	-1E+10	1	-1E+10	1	-1E+10	1	-1E+10	1	-1E+10	1	-1E+10	1
4901784	70	C	06/04/2017	10:42	-132.443	43.588	0	309.70	0	5.7160	0	33.9830	4	26.788	0	306.996	0	100.4	4	33.0	4	-1E+10	1	-1E+10	1	-1E+10	1	-1E+10	1	-1E+10	1	-1E+10	1
4901784	70	C	06/04/2017	10:42	-132.443	43.588	0	312.50	0	5.6890	0	33.9830	4	26.791	0	309.769	0	99.0	4	32.5	4	-1E+10	1	-1E+10	1	-1E+10	1	-1E+10	1	-1E+10	1	-1E+10	1
4901784	70	C	06/04/2017	10:42	-132.443	43.588	0	315.20	0	5.6410	0	33.9850	4	26.798	0	312.444	0	97.5	4	32.0	4	-1E+10	1	-1E+10	1	-1E+10	1	-1E+10	1	-1E+10	1	-1E+10	1
4901784	70	C	06/04/2017	10:42	-132.443	43.588	0	317.10	0	5.6010	0	33.9870	4	26.805	0	314.326	0	96.8	4	31.7	4	-1E+10	1	-1E+10	1	-1E+10	1	-1E+10	1	-1E+10	1	-1E+10	1
4901784	70	C	06/04/2017	10:42	-132.443	43.588	0	319.90	0	5.5830	0	33.9860	4	26.806	0	317.099	0	96.0	4	31.4	4	-1E+10	1	-1E+10	1	-1E+10	1	-1E+10	1	-1E+10	1	-1E+10	1
4901784	70	C	06/04/2017	10:42	-132.443	43.588	0	322.80	0	5.5700	0	33.9860	4	26.808	0	319.971	0	95.0	4	31.1	4	-1E+10	1	-1E+10	1	-1E+10	1	-1E+10	1	-1E+10	1	-1E+10	1
4901784	70	C	06/04/2017	10:42	-132.443	43.588	0	324.70	0	5.5450	0	33.9870	4	26.812	0	321.853	0	94.3	4	30.9	4	-1E+10	1	-1E+10	1	-1E+10	1	-1E+10	1	-1E+10	1	-1E+10	1
4901784	70	C	06/04/2017	10:42	-132.443	43.588	0	327.60	0	5.5140	0	33.9900	4	26.818	0	324.726	0	93.2	4	30.4	4	-1E+10	1	-1E+10	1	-1E+10	1	-1E+10	1	-1E+10	1	-1E+10	1
4901784	70	C	06/04/2017	10:42	-132.443	43.588	0	330.40	0	5.4970	0	33.9900	4	26.820	0	327.499	0	92.1	4	30.1	4	-1E+10	1	-1E+10	1	-1E+10	1	-1E+10	1	-1E+10	1	-1E+10	1
4901784	70	C	06/04/2017	10:42	-132.443	43.588	0	332.90	0	5.4880	0	33.9910	4	26.822	0	329.975	0	91.1	4	29.8	4	-1E+10	1	-1E+10	1	-1E+10	1	-1E+10	1	-1E+10	1	-1E+10	1
4901784	70	C	06/04/2017	10:42	-132.443	43.588	0	334.90	0	5.4790	0	33.9910	4	26.823	0	331.956	0	90.3	4	29.5	4	-1E+10	1	-1E+10	1	-1E+10	1	-1E+10	1	-1E+10	1	-1E+10	1
4901784	70	C	06/04/2017	10:42	-132.443	43.588	0	337.30	0	5.4630	0	33.9920	4	26.825	0	334.333	0	89.0	4	29.0	4	-1E+10	1	-1E+10	1	-1E+10	1	-1E+10	1	-1E+10	1	-1E+10	1
4901784	70	C	06/04/2017	10:42	-132.443	43.588	0	339.70	0	5.4440	0	33.9940	4	26.829	0	336.710	0	87.5	4	28.6	4	-1E+10	1	-1E+10	1	-1E+10	1	-1E+10	1	-1E+10	1	-1E+10	1
4901784	70	C	06/04/2017	10:42	-132.443	43.588	0	342.10	0	5.4270	0	33.9960	4	26.833	0	339.087	0	86.2	4	28.1	4	-1E+10	1	-1E+10	1	-1E+10	1	-1E+10	1	-1E+10	1	-1E+10	1
4901784	70	C	06/04/2017	10:42	-132.443	43.588	0	345.30	0	5.3900	0	33.9990	4	26.840	0	342.256	0	84.4	4	27.5	4	-1E+10	1	-1E+10	1	-1E+10	1	-1E+10	1	-1E+10	1	-1E+10	1
4901784	70	C	06/04/2017	10:42	-132.443	43.588	0	347.70	0	5.3530	0	34.0020	4	26.846	0	344.633	0	83.6	4	27.2	4	-1E+10	1	-1E+10	1	-1E+10	1	-1E+10	1	-1E+10	1	-1E+10	1
4901784	70	C	06/04/2017	10:42	-132.443	43.588	0	350.20	0	5.3420	0	34.0030	4	26.849	0	347.108	0	83.2	4	27.1	4	-1E+10	1	-1E+10	1	-1E+10	1	-1E+10	1	-1E+10	1	-1E+10	1
4901784	70	C	06/04/2017	10:42	-132.443	43.588	0	352.70	0	5.3340	0	34.0040	4	26.850	0	349.584	0	82.7	4	26.9	4	-1E+10	1	-1E+10	1	-1E+10	1	-1E+10	1	-1E+10	1	-1E+10	1
4901784	70	C	06/04/2017	10:42	-132.443	43.588	0	355.20	0	5.3320	0	34.0040	4	26.851	0	352.060	0	82.2	4	26.8	4	-1E+10	1	-1E+10	1	-1E+10	1	-1E+10	1	-1E+10	1	-1E+10	1
4901784	70	C	06/04/2017	10:42	-132.443	43.588	0	357.70	0	5.3220	0	34.0050	4	26.853	0	354.536	0	81.5	4	26.5	4	-1E+10	1	-1E+10	1	-1E+10	1	-1E+10	1	-1E+10	1	-1E+10	1
4901784	70	C	06/04/2017	10:42	-132.443	43.588	0	360.10	0	5.3090	0	34.0060	4	26.855	0	356.913	0	80.8	4	26.3	4	-1E+10	1	-1E+10	1	-1E+10	1	-1E+10	1	-1E+10	1	-1E+10	1
4901784	70	C	06/04/2017	10:42	-132.443	43.588	0	362.60	0	5.3000	0	34.0060	4	26.856	0	359.388	0	80.0	4	26.0	4	-1E+10	1	-1E+10	1	-1E+10	1	-1E+10	1	-1E+10	1	-1E+10	1
4901784	70	C	06/04/2017	10:42	-132.443	43.588	0	365.10	0	5.2820	0	34.0080	4	26.860	0	361.864	0	79.1	4	25.7	4	-1E+10	1	-1E+10	1	-1E+10	1	-1E+10	1	-1E+10	1	-1E+10	1
4901784	70	C	06/04/2017	10:42	-132.443	43.588	0	367.70	0	5.2620	0	34.0100	4	26.864	0	364.439	0	78.2	4	25.4	4	-1E+10	1	-1E+10	1	-1E+10	1	-1E+10	1	-1E+10	1	-1E+10	1
4901784	70	C	06/04/2017	10:42	-132.443	43.588	0	370.30	0	5.2420	0	34.0120	4	26.868	0	367.013	0	77.4	4	25.1	4	-1E+10	1	-1E+10	1	-1E+10	1	-1E+10	1	-1E+10	1	-1E+10	1
4901784	70	C	06/04/2017	10:42	-132.443	43.588	0	372.90	0	5.2220	0	34.0140	4	26.871	0	369.588	0	76.6	4	24.9	4	-1E+10	1	-1E+10	1	-1E+10	1	-1E+10	1	-1E+10	1	-1E+10	1
4901784	70	C	06/04/2017	10:42	-132.443	43.588	0	375.40	0	5.2120	0	34.0150	4	26.873	0	372.063	0	75.5	4	24.5	4	-1E+10	1	-1E+10	1	-1E+10	1	-1E+10	1	-1E+10	1	-1E+10	1
4901784	70	C	06/04/2017	10:42	-132.443	43.588	0	377.90	0	5.1850	0	34.0180	4	26.879	0	374.539	0	74.1	4	24.0	4	-1E+10	1	-1E+10	1	-1E+10	1	-1E+10	1	-1E+10	1	-1E+10	1
4901784	70	C	06/04/2017	10:42	-132.443	43.588	0	380.40	0	5.1610	0	34.0200	4	26.883	0	377.014	0	72.6	4	23.5	4	-1E+10	1	-1E+10	1	-1E+10	1	-1E+10	1	-1E+10	1	-1E+10	1
4901784	70	C	06/04/2017	10:42	-132.443	43.588	0	382.90	0	5.1340	0	34.0230	4	26.889	0	379.490	0	71.0	4	23.0	4	-1E+10	1	-1E+10	1	-1E+10	1	-1E+10	1	-1E+10	1	-1E+10	1
4901784	70	C	06/04/2017	10:42	-132.443	43.588	0	385.40	0	5.1050	0	34.0260	4	26.895	0	381.965	0	69.8	4	22.6	4	-1E+10	1	-1E+10	1	-1E+10	1	-1E+10	1	-1E+10	1	-1E+10	1
4901784	70	C	06/04/2017	10:42	-132.443	43.588	0	387.90	0	5.0930	0	34.0260	4	26.896	0	384.441	0	68.9	4	22.3	4	-1E+10	1	-1E+10	1	-1E+10	1	-1E+10	1	-1E+10	1	-1E+10	1
4901784	70	C	06/04/2017	10:42	-132.443	43.588	0	390.40	0	5.0710	0	34.0290	4	26.901	0	386.916	0	67.8	4	22.0	4	-1E+10	1	-1E+10	1	-1E+10	1	-1E+10	1	-1E+10	1	-1E+10	1
4901784	70	C	06/04/2017	10:42	-132.443	43.588	0	392.90	0	5.0560	0	34.0310	4	26.904	0	389.391	0	67.0	4	21.7	4	-1E+10	1	-1E+10	1	-1E+10	1	-1E+10	1	-1E+10	1	-1E+10	1
4901784	70	C	06/04/2017	10:42	-132.443	43.588	0	394.60	0	5.0460	0	34.0330	4	26.907	0	391.075	0	66.3	4	21.4	4	-1E+10	1	-1E+10	1	-1E+10	1	-1E+10	1	-1E+10	1	-1E+10	1
4901784	70	C	06/04/2017	10:42	-132.443	43.588	0	397.10	0	5.0240	0	34.0350	4	26.911	0	393.550	0	65.5	4	21.2	4	-1E+10	1	-1E+10	1	-1E+10	1	-1E+10	1	-1E+10	1	-1E+10	1
4901784	70	C	06/04/2017	10:42	-132.443	43.588	0	399.60	0	5.0000	0	34.0390	4	26.917	0	396.025	0	64.7	4	20.9	4	-1E+10	1	-1E+10	1	-1E+10	1	-1E+10	1	-1E+10	1	-1E+10	1
4901784	70	C	06/04/2017	10:42	-132.443	43.588	0	402.30	0	4.9820	0	34.0410	4	26.921	0	398.698	0	63.8	4	20.6	4	-1E+10	1	-1E+10	1	-1E+10	1	-1E+10	1	-1E+10	1	-1E+10	1
4901784	70	C	06/04/2017	10:42	-132.443	43.588	0	404.80	0	4.9630	0	34.0450	4	26.926	0	401.174	0	63.2	4	20.4	4	-1E+10	1	-1E+10	1	-1E+10	1	-1E+10	1	-1E+10	1	-1E+10	1
4901784	70	C	06/04/2017	10:42	-132.443	43.588	0	407.50	0	4.9590	0	34.0450	4	26.927	0	403.847	0	62.7	4	20.2	4	-1E+10	1	-1E+10	1	-1E+10	1	-1E+10	1	-1E+10	1	-1E+10	1
4901784	70	C	06/04/2017	10:42	-132.443	43.588	0	410.10	0	4.9480	0	34.0470	4	26.929	0	406.421	0	62.0	4	20.0	4	-1E+10	1	-1E+10	1	-1E+10	1	-1E+10	1	-1E+10	1	-1E+10	1
4901784	70	C	06/04/2017	10:42	-132.443	43.588	0	412.70	0	4.9320	0	34.0500	4	26.934	0	408.995	0	61.2	4	19.7	4	-1E+10	1	-1E+10	1	-1E+10	1	-1E+10	1	-1E+10	1	-1E+10	1
4901784	70	C	06/04/2017	10:42	-132.443	43.588	0	415.40	0	4.9170	0	34.0520	4	26.937	0	411.668	0	60.5	4	19.5	4	-1E+10	1	-1E+10	1	-1E+10	1	-1E+10	1	-1E+10	1	-1E+10	1
4901784	70	C	06/04/2017	10:42	-132.443	43.588	0	417.10	0	4.9060	0	34.0540	4	26.940	0	413.351	0	60.0	4	19.3	4	-1E+10	1	-1E+10	1	-1E+10	1	-1E+10	1	-1E+10	1	-1E+10	1
4901784	70	C	06/04/2017	10:42	-132.443	43.588	0	419.80	0	4.9020	0	34.0550	4	26.941	0	416.024	0	59.4	4	19.1	4	-1E+10	1	-1E+10	1	-1E+10	1	-1E+10	1	-1E+10	1	-1E+10	1
4901784	70	C	06/04/2017	10:42	-132.443	43.588	0	422.50	0	4.8940	0	34.0550	4	26.942	0	418.697	0	58.6	4	18.9	4	-1E+10	1	-1E+10	1	-1E+10	1	-1E+10	1	-1E+10	1	-1E+10	1
4901784	70	C	06/04/2017	10:42	-132.443	43.588	0	425.20	0	4.8850	0	34.0570	4	26.945	0	421.370	0	57.7	4	18.6	4	-1E+10	1	-1E+10	1	-1E+10	1	-1E+10	1	-1E+10	1	-1E+10	1
4901784	70	C	06/04/2017	10:42	-132.443	43.588	0	427.90	0	4.8740	0	34.0580	4	26.947	0	424.043	0	56.7	4	18.2	4	-1E+10	1	-1E+10	1	-1E+10	1	-1E+10	1	-1E+10	1	-1E+10	1
4901784	70	C	06/04/2017	10:42	-132.443	43.588	0	429.70	0	4.8470	0	34.0640	4	26.954	0	425.825	0	56.1	4	18.1	4	-1E+10	1	-1E+10	1	-1E+10	1	-1E+10	1	-1E+10	1	-1E+10	1
4901784	70	C	06/04/2017	10:42	-132.443	43.588	0	432.40	0	4.8440	0	34.0650	4	26.956	0	428.498	0	55.7	4	17.9	4	-1E+10	1	-1E+10	1	-1E+10	1	-1E+10	1	-1E+10	1	-1E+10	1
4901784	70	C	06/04/2017	10:42	-132.443	43.588	0	435.20	0	4.8400	0	34.0640	4	26.955	0	431.270	0	55.0	4	17.7	4	-1E+10	1	-1E+10	1	-1E+10	1	-1E+10	1	-1E+10	1	-1E+10	1
4901784	70	C	06/04/2017	10:42	-132.443	43.588	0	437.10	0	4.8270	0	34.0670	4	26.959	0	433.151	0	54.4	4	17.5	4	-1E+10	1	-1E+10	1	-1E+10	1	-1E+10	1	-1E+10	1	-1E+10	1
4901784	70	C	06/04/2017	10:42	-132.443	43.588	0	439.80	0	4.8120	0	34.0700	4	26.963	0	435.823	0	53.6	4	17.2	4	-1E+10	1	-1E+10	1	-1E+10	1	-1E+10	1	-1E+10	1	-1E+10	1
4901784	70	C	06/04/2017	10:42	-132.443	43.588	0	442.60	0	4.7980	0	34.0730	4	26.967	0	438.595	0	52.8	4	17.0	4	-1E+10	1	-1E+10	1	-1E+10	1	-1E+10	1	-1E+10	1	-1E+10	1
4901784	70	C	06/04/2017	10:42	-132.443	43.588	0	444.50	0	4.7930	0	34.0730	4	26.968	0	440.476	0	52.3	4	16.8	4	-1E+10	1	-1E+10	1	-1E+10	1	-1E+10	1	-1E+10	1	-1E+10	1
4901784	70	C	06/04/2017	10:42	-132.443	43.588	0	447.30	0	4.7770	0	34.0770	4	26.973	0	443.248	0	51.4	4	16.5	4	-1E+10	1	-1E+10	1	-1E+10	1	-1E+10	1	-1E+10	1	-1E+10	1
4901784	70	C	06/04/2017	10:42	-132.443	43.588	0	450.10	0	4.7710	0	34.0790	4	26.975	0	446.019	0	50.7	4	16.3	4	-1E+10	1	-1E+10	1	-1E+10	1	-1E+10	1	-1E+10	1	-1E+10	1
4901784	70	C	06/04/2017	10:42	-132.443	43.588	0	452.00	0	4.7640	0	34.0800	4	26.977	0	447.900	0	50.4	4	16.2	4	-1E+10	1	-1E+10	1	-1E+10	1	-1E+10	1	-1E+10	1	-1E+10	1
4901784	70	C	06/04/2017	10:42	-132.443	43.588	0	454.80	0	4.7570	0	34.0810	4	26.978	0	450.671	0	49.9	4	16.0	4	-1E+10	1	-1E+10	1	-1E+10	1	-1E+10	1	-1E+10	1	-1E+10	1
4901784	70	C	06/04/2017	10:42	-132.443	43.588	0	457.60	0	4.7470	0	34.0840	4	26.982	0	453.443	0	49.3	4	15.9	4	-1E+10	1	-1E+10	1	-1E+10	1	-1E+10	1	-1E+10	1	-1E+10	1
4901784	70	C	06/04/2017	10:42	-132.443	43.588	0	459.50	0	4.7380	0	34.0860	4	26.984	0	455.324	0	49.2	4	15.8	4	-1E+10	1	-1E+10	1	-1E+10	1	-1E+10	1	-1E+10	1	-1E+10	1
4901784	70	C	06/04/2017	10:42	-132.443	43.588	0	462.30	0	4.7290	0	34.0880	4	26.987	0	458.095	0	48.9	4	15.7	4	-1E+10	1	-1E+10	1	-1E+10	1	-1E+10	1	-1E+10	1	-1E+10	1
4901784	70	C	06/04/2017	10:42	-132.443	43.588	0	465.00	0	4.7180	0	34.0890	4	26.989	0	460.768	0	48.6	4	15.6	4	-1E+10	1	-1E+10	1	-1E+10	1	-1E+10	1	-1E+10	1	-1E+10	1
4901784	70	C	06/04/2017	10:42	-132.443	43.588	0	467.80	0	4.7150	0	34.0890	4	26.989	0	463.539	0	48.2	4	15.5	4	-1E+10	1	-1E+10	1	-1E+10	1	-1E+10	1	-1E+10	1	-1E+10	1
4901784	70	C	06/04/2017	10:42	-132.443	43.588	0	470.60	0	4.7070	0	34.0900	4	26.991	0	466.310	0	47.8	4	15.3	4	-1E+10	1	-1E+10	1	-1E+10	1	-1E+10	1	-1E+10	1	-1E+10	1
4901784	70	C	06/04/2017	10:42	-132.443	43.588	0	472.40	0	4.6930	0	34.0940	4	26.996	0	468.092	0	47.5	4	15.2	4	-1E+10	1	-1E+10	1	-1E+10	1	-1E+10	1	-1E+10	1	-1E+10	1
4901784	70	C	06/04/2017	10:42	-132.443	43.588	0	475.20	0	4.6880	0	34.0950	4	26.997	0	470.863	0	46.9	4	15.0	4	-1E+10	1	-1E+10	1	-1E+10	1	-1E+10	1	-1E+10	1	-1E+10	1
4901784	70	C	06/04/2017	10:42	-132.443	43.588	0	478.00	0	4.6810	0	34.0970	4	26.999	0	473.634	0	46.2	4	14.8	4	-1E+10	1	-1E+10	1	-1E+10	1	-1E+10	1	-1E+10	1	-1E+10	1
4901784	70	C	06/04/2017	10:42	-132.443	43.588	0	479.90	0	4.6820	0	34.0980	4	27.000	0	475.515	0	45.8	4	14.7	4	-1E+10	1	-1E+10	1	-1E+10	1	-1E+10	1	-1E+10	1	-1E+10	1
4901784	70	C	06/04/2017	10:42	-132.443	43.588	0	482.70	0	4.6760	0	34.1000	4	27.002	0	478.286	0	45.3	4	14.5	4	-1E+10	1	-1E+10	1	-1E+10	1	-1E+10	1	-1E+10	1	-1E+10	1
4901784	70	C	06/04/2017	10:42	-132.443	43.588	0	485.60	0	4.6680	0	34.1010	4	27.004	0	481.156	0	44.8	4	14.4	4	-1E+10	1	-1E+10	1	-1E+10	1	-1E+10	1	-1E+10	1	-1E+10	1
4901784	70	C	06/04/2017	10:42	-132.443	43.588	0	487.50	0	4.6600	0	34.1030	4	27.007	0	483.037	0	44.6	4	14.3	4	-1E+10	1	-1E+10	1	-1E+10	1	-1E+10	1	-1E+10	1	-1E+10	1
4901784	70	C	06/04/2017	10:42	-132.443	43.588	0	490.20	0	4.6510	0	34.1050	4	27.009	0	485.709	0	43.8	4	14.0	4	-1E+10	1	-1E+10	1	-1E+10	1	-1E+10	1	-1E+10	1	-1E+10	1
4901784	70	C	06/04/2017	10:42	-132.443	43.588	0	493.10	0	4.6400	0	34.1080	4	27.013	0	488.579	0	42.8	4	13.7	4	-1E+10	1	-1E+10	1	-1E+10	1	-1E+10	1	-1E+10	1	-1E+10	1
4901784	70	C	06/04/2017	10:42	-132.443	43.588	0	495.00	0	4.6340	0	34.1100	4	27.015	0	490.459	0	42.2	4	13.5	4	-1E+10	1	-1E+10	1	-1E+10	1	-1E+10	1	-1E+10	1	-1E+10	1
4901784	70	C	06/04/2017	10:42	-132.443	43.588	0	496.90	0	4.6340	0	34.1100	4	27.015	0	492.339	0	41.6	4	13.3	4	-1E+10	1	-1E+10	1	-1E+10	1	-1E+10	1	-1E+10	1	-1E+10	1
4901784	70	C	06/04/2017	10:42	-132.443	43.588	0	499.70	0	4.6200	0	34.1150	4	27.021	0	495.110	0	40.6	4	13.0	4	-1E+10	1	-1E+10	1	-1E+10	1	-1E+10	1	-1E+10	1	-1E+10	1
4901784	70	C	06/04/2017	10:42	-132.443	43.588	0	504.40	0	4.6010	0	34.1210	4	27.027	0	499.762	0	38.9	4	12.5	4	-1E+10	1	-1E+10	1	-1E+10	1	-1E+10	1	-1E+10	1	-1E+10	1
4901784	70	C	06/04/2017	10:42	-132.443	43.588	0	510.20	0	4.5810	0	34.1280	4	27.035	0	505.501	0	37.7	4	12.1	4	-1E+10	1	-1E+10	1	-1E+10	1	-1E+10	1	-1E+10	1	-1E+10	1
4901784	70	C	06/04/2017	10:42	-132.443	43.588	0	515.00	0	4.5600	0	34.1340	4	27.042	0	510.251	0	37.1	4	11.9	4	-1E+10	1	-1E+10	1	-1E+10	1	-1E+10	1	-1E+10	1	-1E+10	1
4901784	70	C	06/04/2017	10:42	-132.443	43.588	0	519.80	0	4.5560	0	34.1340	4	27.043	0	515.001	0	36.5	4	11.7	4	-1E+10	1	-1E+10	1	-1E+10	1	-1E+10	1	-1E+10	1	-1E+10	1
4901784	70	C	06/04/2017	10:42	-132.443	43.588	0	525.50	0	4.5230	0	34.1390	4	27.050	0	520.641	0	35.6	4	11.4	4	-1E+10	1	-1E+10	1	-1E+10	1	-1E+10	1	-1E+10	1	-1E+10	1
4901784	70	C	06/04/2017	10:42	-132.443	43.588	0	530.30	0	4.5010	0	34.1420	4	27.055	0	525.391	0	34.9	4	11.1	4	-1E+10	1	-1E+10	1	-1E+10	1	-1E+10	1	-1E+10	1	-1E+10	1
4901784	70	C	06/04/2017	10:42	-132.443	43.588	0	535.00	0	4.4770	0	34.1470	4	27.062	0	530.041	0	33.8	4	10.8	4	-1E+10	1	-1E+10	1	-1E+10	1	-1E+10	1	-1E+10	1	-1E+10	1
4901784	70	C	06/04/2017	10:42	-132.443	43.588	0	539.80	0	4.4530	0	34.1520	4	27.068	0	534.791	0	32.9	4	10.5	4	-1E+10	1	-1E+10	1	-1E+10	1	-1E+10	1	-1E+10	1	-1E+10	1
4901784	70	C	06/04/2017	10:42	-132.443	43.588	0	544.50	0	4.4360	0	34.1570	4	27.074	0	539.441	0	32.0	4	10.2	4	-1E+10	1	-1E+10	1	-1E+10	1	-1E+10	1	-1E+10	1	-1E+10	1
4901784	70	C	06/04/2017	10:42	-132.443	43.588	0	550.10	0	4.4040	0	34.1630	4	27.082	0	544.981	0	30.9	4	9.9	4	-1E+10	1	-1E+10	1	-1E+10	1	-1E+10	1	-1E+10	1	-1E+10	1
4901784	70	C	06/04/2017	10:42	-132.443	43.588	0	554.90	0	4.3910	0	34.1670	4	27.087	0	549.730	0	30.1	4	9.6	4	-1E+10	1	-1E+10	1	-1E+10	1	-1E+10	1	-1E+10	1	-1E+10	1
4901784	70	C	06/04/2017	10:42	-132.443	43.588	0	559.70	0	4.3760	0	34.1720	4	27.093	0	554.479	0	29.1	4	9.3	4	-1E+10	1	-1E+10	1	-1E+10	1	-1E+10	1	-1E+10	1	-1E+10	1
4901784	70	C	06/04/2017	10:42	-132.443	43.588	0	565.40	0	4.3610	0	34.1770	4	27.098	0	560.119	0	28.1	4	8.9	4	-1E+10	1	-1E+10	1	-1E+10	1	-1E+10	1	-1E+10	1	-1E+10	1
4901784	70	C	06/04/2017	10:42	-132.443	43.588	0	570.20	0	4.3490	0	34.1820	4	27.103	0	564.867	0	27.2	4	8.7	4	-1E+10	1	-1E+10	1	-1E+10	1	-1E+10	1	-1E+10	1	-1E+10	1
4901784	70	C	06/04/2017	10:42	-132.443	43.588	0	574.90	0	4.3420	0	34.1860	4	27.107	0	569.517	0	26.4	4	8.4	4	-1E+10	1	-1E+10	1	-1E+10	1	-1E+10	1	-1E+10	1	-1E+10	1
4901784	70	C	06/04/2017	10:42	-132.443	43.588	0	579.70	0	4.3420	0	34.1910	4	27.111	0	574.265	0	25.8	4	8.2	4	-1E+10	1	-1E+10	1	-1E+10	1	-1E+10	1	-1E+10	1	-1E+10	1
4901784	70	C	06/04/2017	10:42	-132.443	43.588	0	584.50	0	4.3370	0	34.1920	4	27.113	0	579.014	0	25.4	4	8.1	4	-1E+10	1	-1E+10	1	-1E+10	1	-1E+10	1	-1E+10	1	-1E+10	1
4901784	70	C	06/04/2017	10:42	-132.443	43.588	0	590.20	0	4.3190	0	34.1960	4	27.118	0	584.652	0	25.1	4	8.0	4	-1E+10	1	-1E+10	1	-1E+10	1	-1E+10	1	-1E+10	1	-1E+10	1
4901784	70	C	06/04/2017	10:42	-132.443	43.588	0	595.00	0	4.3200	0	34.1960	4	27.118	0	589.400	0	24.8	4	7.9	4	-1E+10	1	-1E+10	1	-1E+10	1	-1E+10	1	-1E+10	1	-1E+10	1
4901784	70	C	06/04/2017	10:42	-132.443	43.588	0	599.60	0	4.3150	0	34.1980	4	27.120	0	593.950	0	24.1	4	7.7	4	-1E+10	1	-1E+10	1	-1E+10	1	-1E+10	1	-1E+10	1	-1E+10	1
4901784	70	C	06/04/2017	10:42	-132.443	43.588	0	605.20	0	4.3070	0	34.2030	4	27.125	0	599.489	0	23.3	4	7.4	4	-1E+10	1	-1E+10	1	-1E+10	1	-1E+10	1	-1E+10	1	-1E+10	1
4901784	70	C	06/04/2017	10:42	-132.443	43.588	0	609.90	0	4.2880	0	34.2070	4	27.130	0	604.138	0	22.6	4	7.2	4	-1E+10	1	-1E+10	1	-1E+10	1	-1E+10	1	-1E+10	1	-1E+10	1
4901784	70	C	06/04/2017	10:42	-132.443	43.588	0	614.50	0	4.2760	0	34.2120	4	27.135	0	608.688	0	21.8	4	6.9	4	-1E+10	1	-1E+10	1	-1E+10	1	-1E+10	1	-1E+10	1	-1E+10	1
4901784	70	C	06/04/2017	10:42	-132.443	43.588	0	620.00	0	4.2520	0	34.2210	4	27.145	0	614.128	0	20.8	4	6.6	4	-1E+10	1	-1E+10	1	-1E+10	1	-1E+10	1	-1E+10	1	-1E+10	1
4901784	70	C	06/04/2017	10:42	-132.443	43.588	0	624.70	0	4.2410	0	34.2260	4	27.150	0	618.776	0	20.2	4	6.4	4	-1E+10	1	-1E+10	1	-1E+10	1	-1E+10	1	-1E+10	1	-1E+10	1
4901784	70	C	06/04/2017	10:42	-132.443	43.588	0	629.40	0	4.2220	0	34.2310	4	27.156	0	623.425	0	19.5	4	6.2	4	-1E+10	1	-1E+10	1	-1E+10	1	-1E+10	1	-1E+10	1	-1E+10	1
4901784	70	C	06/04/2017	10:42	-132.443	43.588	0	635.10	0	4.1930	0	34.2400	4	27.167	0	629.062	0	19.0	4	6.0	4	-1E+10	1	-1E+10	1	-1E+10	1	-1E+10	1	-1E+10	1	-1E+10	1
4901784	70	C	06/04/2017	10:42	-132.443	43.588	0	639.80	0	4.1820	0	34.2410	4	27.169	0	633.710	0	18.6	4	5.9	4	-1E+10	1	-1E+10	1	-1E+10	1	-1E+10	1	-1E+10	1	-1E+10	1
4901784	70	C	06/04/2017	10:42	-132.443	43.588	0	644.50	0	4.1650	0	34.2470	4	27.175	0	638.358	0	18.2	4	5.8	4	-1E+10	1	-1E+10	1	-1E+10	1	-1E+10	1	-1E+10	1	-1E+10	1
4901784	70	C	06/04/2017	10:42	-132.443	43.588	0	650.00	0	4.1540	0	34.2500	4	27.179	0	643.797	0	18.0	4	5.7	4	-1E+10	1	-1E+10	1	-1E+10	1	-1E+10	1	-1E+10	1	-1E+10	1
4901784	70	C	06/04/2017	10:42	-132.443	43.588	0	654.40	0	4.1490	0	34.2510	4	27.180	0	648.149	0	17.5	4	5.6	4	-1E+10	1	-1E+10	1	-1E+10	1	-1E+10	1	-1E+10	1	-1E+10	1
4901784	70	C	06/04/2017	10:42	-132.443	43.588	0	660.10	0	4.1310	0	34.2600	4	27.189	0	653.785	0	16.7	4	5.3	4	-1E+10	1	-1E+10	1	-1E+10	1	-1E+10	1	-1E+10	1	-1E+10	1
4901784	70	C	06/04/2017	10:42	-132.443	43.588	0	665.80	0	4.1100	0	34.2680	4	27.198	0	659.422	0	16.3	4	5.2	4	-1E+10	1	-1E+10	1	-1E+10	1	-1E+10	1	-1E+10	1	-1E+10	1
4901784	70	C	06/04/2017	10:42	-132.443	43.588	0	670.80	0	4.0990	0	34.2710	4	27.201	0	664.366	0	16.1	4	5.1	4	-1E+10	1	-1E+10	1	-1E+10	1	-1E+10	1	-1E+10	1	-1E+10	1
4901784	70	C	06/04/2017	10:42	-132.443	43.588	0	675.70	0	4.0790	0	34.2750	4	27.206	0	669.211	0	15.8	4	5.0	4	-1E+10	1	-1E+10	1	-1E+10	1	-1E+10	1	-1E+10	1	-1E+10	1
4901784	70	C	06/04/2017	10:42	-132.443	43.588	0	680.80	0	4.0630	0	34.2790	4	27.211	0	674.254	0	15.5	4	4.9	4	-1E+10	1	-1E+10	1	-1E+10	1	-1E+10	1	-1E+10	1	-1E+10	1
4901784	70	C	06/04/2017	10:42	-132.443	43.588	0	685.00	0	4.0510	0	34.2830	4	27.216	0	678.407	0	15.2	4	4.8	4	-1E+10	1	-1E+10	1	-1E+10	1	-1E+10	1	-1E+10	1	-1E+10	1
4901784	70	C	06/04/2017	10:42	-132.443	43.588	0	689.30	0	4.0450	0	34.2860	4	27.219	0	682.658	0	15.0	4	4.7	4	-1E+10	1	-1E+10	1	-1E+10	1	-1E+10	1	-1E+10	1	-1E+10	1
4901784	70	C	06/04/2017	10:42	-132.443	43.588	0	694.50	0	4.0360	0	34.2910	4	27.224	0	687.799	0	14.7	4	4.7	4	-1E+10	1	-1E+10	1	-1E+10	1	-1E+10	1	-1E+10	1	-1E+10	1
4901784	70	C	06/04/2017	10:42	-132.443	43.588	0	699.60	0	4.0260	0	34.2940	4	27.227	0	692.842	0	14.5	4	4.6	4	-1E+10	1	-1E+10	1	-1E+10	1	-1E+10	1	-1E+10	1	-1E+10	1
4901784	70	C	06/04/2017	10:42	-132.443	43.588	0	704.80	0	4.0190	0	34.2970	4	27.230	0	697.983	0	14.4	4	4.5	4	-1E+10	1	-1E+10	1	-1E+10	1	-1E+10	1	-1E+10	1	-1E+10	1
4901784	70	C	06/04/2017	10:42	-132.443	43.588	0	710.10	0	4.0120	0	34.3000	4	27.234	0	703.223	0	14.2	4	4.5	4	-1E+10	1	-1E+10	1	-1E+10	1	-1E+10	1	-1E+10	1	-1E+10	1
4901784	70	C	06/04/2017	10:42	-132.443	43.588	0	715.40	0	4.0040	0	34.3020	4	27.236	0	708.462	0	14.0	4	4.4	4	-1E+10	1	-1E+10	1	-1E+10	1	-1E+10	1	-1E+10	1	-1E+10	1
4901784	70	C	06/04/2017	10:42	-132.443	43.588	0	720.70	0	3.9900	0	34.3060	4	27.241	0	713.702	0	13.7	4	4.3	4	-1E+10	1	-1E+10	1	-1E+10	1	-1E+10	1	-1E+10	1	-1E+10	1
4901784	70	C	06/04/2017	10:42	-132.443	43.588	0	725.10	0	3.9760	0	34.3100	4	27.245	0	718.051	0	13.5	4	4.3	4	-1E+10	1	-1E+10	1	-1E+10	1	-1E+10	1	-1E+10	1	-1E+10	1
4901784	70	C	06/04/2017	10:42	-132.443	43.588	0	729.70	0	3.9640	0	34.3130	4	27.249	0	722.599	0	13.3	4	4.2	4	-1E+10	1	-1E+10	1	-1E+10	1	-1E+10	1	-1E+10	1	-1E+10	1
4901784	70	C	06/04/2017	10:42	-132.443	43.588	0	735.10	0	3.9410	0	34.3190	4	27.256	0	727.937	0	13.1	4	4.1	4	-1E+10	1	-1E+10	1	-1E+10	1	-1E+10	1	-1E+10	1	-1E+10	1
4901784	70	C	06/04/2017	10:42	-132.443	43.588	0	740.50	0	3.9160	0	34.3250	4	27.263	0	733.275	0	12.9	4	4.1	4	-1E+10	1	-1E+10	1	-1E+10	1	-1E+10	1	-1E+10	1	-1E+10	1
4901784	70	C	06/04/2017	10:42	-132.443	43.588	0	745.30	0	3.9060	0	34.3280	4	27.267	0	738.019	0	12.8	4	4.0	4	-1E+10	1	-1E+10	1	-1E+10	1	-1E+10	1	-1E+10	1	-1E+10	1
4901784	70	C	06/04/2017	10:42	-132.443	43.588	0	749.70	0	3.8920	0	34.3320	4	27.271	0	742.369	0	12.7	4	4.0	4	-1E+10	1	-1E+10	1	-1E+10	1	-1E+10	1	-1E+10	1	-1E+10	1
4901784	70	C	06/04/2017	10:42	-132.443	43.588	0	754.40	0	3.8790	0	34.3350	4	27.275	0	747.014	0	12.6	4	4.0	4	-1E+10	1	-1E+10	1	-1E+10	1	-1E+10	1	-1E+10	1	-1E+10	1
4901784	70	C	06/04/2017	10:42	-132.443	43.588	0	760.00	0	3.8690	0	34.3380	4	27.279	0	752.549	0	12.5	4	3.9	4	-1E+10	1	-1E+10	1	-1E+10	1	-1E+10	1	-1E+10	1	-1E+10	1
4901784	70	C	06/04/2017	10:42	-132.443	43.588	0	765.70	0	3.8540	0	34.3410	4	27.283	0	758.183	0	12.4	4	3.9	4	-1E+10	1	-1E+10	1	-1E+10	1	-1E+10	1	-1E+10	1	-1E+10	1
4901784	70	C	06/04/2017	10:42	-132.443	43.588	0	770.60	0	3.8370	0	34.3460	4	27.288	0	763.026	0	12.3	4	3.9	4	-1E+10	1	-1E+10	1	-1E+10	1	-1E+10	1	-1E+10	1	-1E+10	1
4901784	70	C	06/04/2017	10:42	-132.443	43.588	0	775.70	0	3.8270	0	34.3480	4	27.291	0	768.067	0	12.2	4	3.8	4	-1E+10	1	-1E+10	1	-1E+10	1	-1E+10	1	-1E+10	1	-1E+10	1
4901784	70	C	06/04/2017	10:42	-132.443	43.588	0	779.90	0	3.8130	0	34.3520	4	27.296	0	772.218	0	12.0	4	3.8	4	-1E+10	1	-1E+10	1	-1E+10	1	-1E+10	1	-1E+10	1	-1E+10	1
4901784	70	C	06/04/2017	10:42	-132.443	43.588	0	784.30	0	3.8020	0	34.3550	4	27.299	0	776.566	0	11.9	4	3.8	4	-1E+10	1	-1E+10	1	-1E+10	1	-1E+10	1	-1E+10	1	-1E+10	1
4901784	70	C	06/04/2017	10:42	-132.443	43.588	0	789.60	0	3.7820	0	34.3600	4	27.305	0	781.804	0	11.8	4	3.7	4	-1E+10	1	-1E+10	1	-1E+10	1	-1E+10	1	-1E+10	1	-1E+10	1
4901784	70	C	06/04/2017	10:42	-132.443	43.588	0	794.80	0	3.7580	0	34.3670	4	27.313	0	786.943	0	11.7	4	3.7	4	-1E+10	1	-1E+10	1	-1E+10	1	-1E+10	1	-1E+10	1	-1E+10	1
4901784	70	C	06/04/2017	10:42	-132.443	43.588	0	800.20	0	3.7360	0	34.3720	4	27.319	0	792.279	0	11.6	4	3.6	4	-1E+10	1	-1E+10	1	-1E+10	1	-1E+10	1	-1E+10	1	-1E+10	1
4901784	70	C	06/04/2017	10:42	-132.443	43.588	0	805.60	0	3.7200	0	34.3770	4	27.325	0	797.615	0	11.5	4	3.6	4	-1E+10	1	-1E+10	1	-1E+10	1	-1E+10	1	-1E+10	1	-1E+10	1
4901784	70	C	06/04/2017	10:42	-132.443	43.588	0	810.10	0	3.7050	0	34.3810	4	27.330	0	802.062	0	11.5	4	3.6	4	-1E+10	1	-1E+10	1	-1E+10	1	-1E+10	1	-1E+10	1	-1E+10	1
4901784	70	C	06/04/2017	10:42	-132.443	43.588	0	814.50	0	3.6930	0	34.3840	4	27.333	0	806.410	0	11.4	4	3.6	4	-1E+10	1	-1E+10	1	-1E+10	1	-1E+10	1	-1E+10	1	-1E+10	1
4901784	70	C	06/04/2017	10:42	-132.443	43.588	0	820.00	0	3.6740	0	34.3890	4	27.339	0	811.845	0	11.4	4	3.6	4	-1E+10	1	-1E+10	1	-1E+10	1	-1E+10	1	-1E+10	1	-1E+10	1
4901784	70	C	06/04/2017	10:42	-132.443	43.588	0	824.70	0	3.6590	0	34.3920	4	27.343	0	816.489	0	11.3	4	3.6	4	-1E+10	1	-1E+10	1	-1E+10	1	-1E+10	1	-1E+10	1	-1E+10	1
4901784	70	C	06/04/2017	10:42	-132.443	43.588	0	829.20	0	3.6260	0	34.4010	4	27.353	0	820.935	0	11.4	4	3.6	4	-1E+10	1	-1E+10	1	-1E+10	1	-1E+10	1	-1E+10	1	-1E+10	1
4901784	70	C	06/04/2017	10:42	-132.443	43.588	0	834.50	0	3.5940	0	34.4080	4	27.362	0	826.172	0	11.4	4	3.6	4	-1E+10	1	-1E+10	1	-1E+10	1	-1E+10	1	-1E+10	1	-1E+10	1
4901784	70	C	06/04/2017	10:42	-132.443	43.588	0	840.10	0	3.5770	0	34.4130	4	27.368	0	831.705	0	11.4	4	3.6	4	-1E+10	1	-1E+10	1	-1E+10	1	-1E+10	1	-1E+10	1	-1E+10	1
4901784	70	C	06/04/2017	10:42	-132.443	43.588	0	845.70	0	3.5370	0	34.4240	4	27.380	0	837.238	0	11.5	4	3.6	4	-1E+10	1	-1E+10	1	-1E+10	1	-1E+10	1	-1E+10	1	-1E+10	1
4901784	70	C	06/04/2017	10:42	-132.443	43.588	0	850.70	0	3.5220	0	34.4280	4	27.385	0	842.177	0	11.6	4	3.6	4	-1E+10	1	-1E+10	1	-1E+10	1	-1E+10	1	-1E+10	1	-1E+10	1
4901784	70	C	06/04/2017	10:42	-132.443	43.588	0	855.80	0	3.5180	0	34.4290	4	27.386	0	847.216	0	11.6	4	3.6	4	-1E+10	1	-1E+10	1	-1E+10	1	-1E+10	1	-1E+10	1	-1E+10	1
4901784	70	C	06/04/2017	10:42	-132.443	43.588	0	860.10	0	3.5130	0	34.4300	4	27.388	0	851.464	0	11.7	4	3.7	4	-1E+10	1	-1E+10	1	-1E+10	1	-1E+10	1	-1E+10	1	-1E+10	1
4901784	70	C	06/04/2017	10:42	-132.443	43.588	0	864.40	0	3.4960	0	34.4350	4	27.393	0	855.712	0	11.8	4	3.7	4	-1E+10	1	-1E+10	1	-1E+10	1	-1E+10	1	-1E+10	1	-1E+10	1
4901784	70	C	06/04/2017	10:42	-132.443	43.588	0	869.50	0	3.4800	0	34.4390	4	27.398	0	860.750	0	11.9	4	3.7	4	-1E+10	1	-1E+10	1	-1E+10	1	-1E+10	1	-1E+10	1	-1E+10	1
4901784	70	C	06/04/2017	10:42	-132.443	43.588	0	874.60	0	3.4630	0	34.4430	4	27.403	0	865.788	0	12.0	4	3.7	4	-1E+10	1	-1E+10	1	-1E+10	1	-1E+10	1	-1E+10	1	-1E+10	1
4901784	70	C	06/04/2017	10:42	-132.443	43.588	0	879.90	0	3.4520	0	34.4460	4	27.406	0	871.024	0	12.1	4	3.8	4	-1E+10	1	-1E+10	1	-1E+10	1	-1E+10	1	-1E+10	1	-1E+10	1
4901784	70	C	06/04/2017	10:42	-132.443	43.588	0	885.20	0	3.4400	0	34.4500	4	27.411	0	876.260	0	12.2	4	3.8	4	-1E+10	1	-1E+10	1	-1E+10	1	-1E+10	1	-1E+10	1	-1E+10	1
4901784	70	C	06/04/2017	10:42	-132.443	43.588	0	890.40	0	3.4310	0	34.4520	4	27.413	0	881.396	0	12.2	4	3.8	4	-1E+10	1	-1E+10	1	-1E+10	1	-1E+10	1	-1E+10	1	-1E+10	1
4901784	70	C	06/04/2017	10:42	-132.443	43.588	0	895.60	0	3.4270	0	34.4540	4	27.415	0	886.532	0	12.3	4	3.8	4	-1E+10	1	-1E+10	1	-1E+10	1	-1E+10	1	-1E+10	1	-1E+10	1
4901784	70	C	06/04/2017	10:42	-132.443	43.588	0	899.90	0	3.4220	0	34.4550	4	27.417	0	890.780	0	12.3	4	3.8	4	-1E+10	1	-1E+10	1	-1E+10	1	-1E+10	1	-1E+10	1	-1E+10	1
4901784	70	C	06/04/2017	10:42	-132.443	43.588	0	904.30	0	3.4180	0	34.4560	4	27.418	0	895.126	0	12.4	4	3.9	4	-1E+10	1	-1E+10	1	-1E+10	1	-1E+10	1	-1E+10	1	-1E+10	1
4901784	70	C	06/04/2017	10:42	-132.443	43.588	0	909.60	0	3.4150	0	34.4580	4	27.420	0	900.361	0	12.4	4	3.9	4	-1E+10	1	-1E+10	1	-1E+10	1	-1E+10	1	-1E+10	1	-1E+10	1
4901784	70	C	06/04/2017	10:42	-132.443	43.588	0	914.80	0	3.4110	0	34.4590	4	27.421	0	905.497	0	12.5	4	3.9	4	-1E+10	1	-1E+10	1	-1E+10	1	-1E+10	1	-1E+10	1	-1E+10	1
4901784	70	C	06/04/2017	10:42	-132.443	43.588	0	920.00	0	3.4000	0	34.4620	4	27.424	0	910.632	0	12.7	4	4.0	4	-1E+10	1	-1E+10	1	-1E+10	1	-1E+10	1	-1E+10	1	-1E+10	1
4901784	70	C	06/04/2017	10:42	-132.443	43.588	0	925.10	0	3.3870	0	34.4660	4	27.429	0	915.669	0	12.9	4	4.0	4	-1E+10	1	-1E+10	1	-1E+10	1	-1E+10	1	-1E+10	1	-1E+10	1
4901784	70	C	06/04/2017	10:42	-132.443	43.588	0	930.30	0	3.3710	0	34.4720	4	27.435	0	920.805	0	13.2	4	4.1	4	-1E+10	1	-1E+10	1	-1E+10	1	-1E+10	1	-1E+10	1	-1E+10	1
4901784	70	C	06/04/2017	10:42	-132.443	43.588	0	935.60	0	3.3660	0	34.4740	4	27.437	0	926.039	0	13.3	4	4.1	4	-1E+10	1	-1E+10	1	-1E+10	1	-1E+10	1	-1E+10	1	-1E+10	1
4901784	70	C	06/04/2017	10:42	-132.443	43.588	0	940.00	0	3.3660	0	34.4750	4	27.438	0	930.384	0	13.5	4	4.2	4	-1E+10	1	-1E+10	1	-1E+10	1	-1E+10	1	-1E+10	1	-1E+10	1
4901784	70	C	06/04/2017	10:42	-132.443	43.588	0	944.50	0	3.3610	0	34.4770	4	27.440	0	934.828	0	13.8	4	4.3	4	-1E+10	1	-1E+10	1	-1E+10	1	-1E+10	1	-1E+10	1	-1E+10	1
4901784	70	C	06/04/2017	10:42	-132.443	43.588	0	949.80	0	3.3570	0	34.4800	4	27.443	0	940.062	0	14.1	4	4.4	4	-1E+10	1	-1E+10	1	-1E+10	1	-1E+10	1	-1E+10	1	-1E+10	1
4901784	70	C	06/04/2017	10:42	-132.443	43.588	0	955.20	0	3.3470	0	34.4850	4	27.448	0	945.394	0	14.5	4	4.5	4	-1E+10	1	-1E+10	1	-1E+10	1	-1E+10	1	-1E+10	1	-1E+10	1
4901784	70	C	06/04/2017	10:42	-132.443	43.588	0	960.50	0	3.3380	0	34.4890	4	27.452	0	950.628	0	14.7	4	4.6	4	-1E+10	1	-1E+10	1	-1E+10	1	-1E+10	1	-1E+10	1	-1E+10	1
4901784	70	C	06/04/2017	10:42	-132.443	43.588	0	964.90	0	3.3360	0	34.4910	4	27.454	0	954.973	0	14.9	4	4.6	4	-1E+10	1	-1E+10	1	-1E+10	1	-1E+10	1	-1E+10	1	-1E+10	1
4901784	70	C	06/04/2017	10:42	-132.443	43.588	0	969.30	0	3.3340	0	34.4930	4	27.456	0	959.317	0	15.2	4	4.7	4	-1E+10	1	-1E+10	1	-1E+10	1	-1E+10	1	-1E+10	1	-1E+10	1
4901784	70	C	06/04/2017	10:42	-132.443	43.588	0	974.60	0	3.3310	0	34.4960	4	27.458	0	964.551	0	15.6	4	4.9	4	-1E+10	1	-1E+10	1	-1E+10	1	-1E+10	1	-1E+10	1	-1E+10	1
4901784	70	C	06/04/2017	10:42	-132.443	43.588	0	980.00	0	3.3300	0	34.4990	4	27.461	0	969.882	0	15.8	4	4.9	4	-1E+10	1	-1E+10	1	-1E+10	1	-1E+10	1	-1E+10	1	-1E+10	1
4901784	70	C	06/04/2017	10:42	-132.443	43.588	0	985.30	0	3.3300	0	34.5010	4	27.463	0	975.115	0	16.1	4	5.0	4	-1E+10	1	-1E+10	1	-1E+10	1	-1E+10	1	-1E+10	1	-1E+10	1
4901784	70	C	06/04/2017	10:42	-132.443	43.588	0	990.60	0	3.3280	0	34.5040	4	27.465	0	980.348	0	16.4	4	5.1	4	-1E+10	1	-1E+10	1	-1E+10	1	-1E+10	1	-1E+10	1	-1E+10	1
4901784	70	C	06/04/2017	10:42	-132.443	43.588	0	995.00	0	3.3270	0	34.5050	4	27.466	0	984.692	0	16.6	4	5.2	4	-1E+10	1	-1E+10	1	-1E+10	1	-1E+10	1	-1E+10	1	-1E+10	1
4901784	70	C	06/04/2017	10:42	-132.443	43.588	0	999.40	0	3.3260	0	34.5070	4	27.468	0	989.036	0	17.1	4	5.3	4	-1E+10	1	-1E+10	1	-1E+10	1	-1E+10	1	-1E+10	1	-1E+10	1
4901784	70	C	06/04/2017	10:42	-132.443	43.588	0	1004.80	0	3.3230	0	34.5110	4	27.471	0	994.368	0	17.7	4	5.5	4	-1E+10	1	-1E+10	1	-1E+10	1	-1E+10	1	-1E+10	1	-1E+10	1
4901784	70	C	06/04/2017	10:42	-132.443	43.588	0	1010.20	0	3.3200	0	34.5160	4	27.476	0	999.699	0	18.3	4	5.7	4	-1E+10	1	-1E+10	1	-1E+10	1	-1E+10	1	-1E+10	1	-1E+10	1
4901784	70	C	06/04/2017	10:42	-132.443	43.588	0	1015.60	0	3.3220	0	34.5210	4	27.480	0	1005.030	0	18.9	4	5.9	4	-1E+10	1	-1E+10	1	-1E+10	1	-1E+10	1	-1E+10	1	-1E+10	1
4901784	70	C	06/04/2017	10:42	-132.443	43.588	0	1020.10	0	3.3240	0	34.5230	4	27.481	0	1009.472	0	19.3	4	6.0	4	-1E+10	1	-1E+10	1	-1E+10	1	-1E+10	1	-1E+10	1	-1E+10	1
4901784	70	C	06/04/2017	10:42	-132.443	43.588	0	1024.60	0	3.3240	0	34.5260	4	27.483	0	1013.914	0	19.7	4	6.1	4	-1E+10	1	-1E+10	1	-1E+10	1	-1E+10	1	-1E+10	1	-1E+10	1
4901784	70	C	06/04/2017	10:42	-132.443	43.588	0	1030.20	0	3.3260	0	34.5300	4	27.486	0	1019.442	0	20.2	4	6.3	4	-1E+10	1	-1E+10	1	-1E+10	1	-1E+10	1	-1E+10	1	-1E+10	1
4901784	70	C	06/04/2017	10:42	-132.443	43.588	0	1034.80	0	3.3260	0	34.5340	4	27.490	0	1023.983	0	20.4	4	6.4	4	-1E+10	1	-1E+10	1	-1E+10	1	-1E+10	1	-1E+10	1	-1E+10	1
4901784	70	C	06/04/2017	10:42	-132.443	43.588	0	1039.30	0	3.3260	0	34.5340	4	27.490	0	1028.425	0	20.6	4	6.4	4	-1E+10	1	-1E+10	1	-1E+10	1	-1E+10	1	-1E+10	1	-1E+10	1
4901784	70	C	06/04/2017	10:42	-132.443	43.588	0	1044.70	0	3.3270	0	34.5350	4	27.490	0	1033.755	0	20.7	4	6.5	4	-1E+10	1	-1E+10	1	-1E+10	1	-1E+10	1	-1E+10	1	-1E+10	1
4901784	70	C	06/04/2017	10:42	-132.443	43.588	0	1049.50	0	3.3270	0	34.5350	4	27.490	0	1038.493	0	21.0	4	6.5	4	-1E+10	1	-1E+10	1	-1E+10	1	-1E+10	1	-1E+10	1	-1E+10	1
4901784	70	C	06/04/2017	10:42	-132.443	43.588	0	1054.40	0	3.3250	0	34.5380	4	27.493	0	1043.329	0	21.4	4	6.7	4	-1E+10	1	-1E+10	1	-1E+10	1	-1E+10	1	-1E+10	1	-1E+10	1
4901784	70	C	06/04/2017	10:42	-132.443	43.588	0	1060.00	0	3.3210	0	34.5410	4	27.496	0	1048.857	0	21.7	4	6.8	4	-1E+10	1	-1E+10	1	-1E+10	1	-1E+10	1	-1E+10	1	-1E+10	1
4901784	70	C	06/04/2017	10:42	-132.443	43.588	0	1065.80	0	3.3190	0	34.5430	4	27.498	0	1054.581	0	22.0	4	6.8	4	-1E+10	1	-1E+10	1	-1E+10	1	-1E+10	1	-1E+10	1	-1E+10	1
4901784	70	C	06/04/2017	10:42	-132.443	43.588	0	1070.70	0	3.3170	0	34.5450	4	27.500	0	1059.417	0	22.2	4	6.9	4	-1E+10	1	-1E+10	1	-1E+10	1	-1E+10	1	-1E+10	1	-1E+10	1
4901784	70	C	06/04/2017	10:42	-132.443	43.588	0	1075.70	0	3.3160	0	34.5460	4	27.500	0	1064.352	0	22.4	4	7.0	4	-1E+10	1	-1E+10	1	-1E+10	1	-1E+10	1	-1E+10	1	-1E+10	1
4901784	70	C	06/04/2017	10:42	-132.443	43.588	0	1080.70	0	3.3140	0	34.5480	4	27.502	0	1069.286	0	22.5	4	7.0	4	-1E+10	1	-1E+10	1	-1E+10	1	-1E+10	1	-1E+10	1	-1E+10	1
4901784	70	C	06/04/2017	10:42	-132.443	43.588	0	1085.70	0	3.3130	0	34.5490	4	27.503	0	1074.221	0	22.6	4	7.0	4	-1E+10	1	-1E+10	1	-1E+10	1	-1E+10	1	-1E+10	1	-1E+10	1
4901784	70	C	06/04/2017	10:42	-132.443	43.588	0	1090.80	0	3.3120	0	34.5490	4	27.503	0	1079.254	0	22.7	4	7.1	4	-1E+10	1	-1E+10	1	-1E+10	1	-1E+10	1	-1E+10	1	-1E+10	1
4901784	70	C	06/04/2017	10:42	-132.443	43.588	0	1095.00	0	3.3110	0	34.5500	4	27.504	0	1083.398	0	22.8	4	7.1	4	-1E+10	1	-1E+10	1	-1E+10	1	-1E+10	1	-1E+10	1	-1E+10	1
4901784	70	C	06/04/2017	10:42	-132.443	43.588	0	1099.30	0	3.3100	0	34.5510	4	27.505	0	1087.642	0	23.0	4	7.2	4	-1E+10	1	-1E+10	1	-1E+10	1	-1E+10	1	-1E+10	1	-1E+10	1
4901784	70	C	06/04/2017	10:42	-132.443	43.588	0	1104.40	0	3.3080	0	34.5520	4	27.506	0	1092.674	0	23.1	4	7.2	4	-1E+10	1	-1E+10	1	-1E+10	1	-1E+10	1	-1E+10	1	-1E+10	1
4901784	70	C	06/04/2017	10:42	-132.443	43.588	0	1109.70	0	3.3080	0	34.5530	4	27.507	0	1097.904	0	23.2	4	7.2	4	-1E+10	1	-1E+10	1	-1E+10	1	-1E+10	1	-1E+10	1	-1E+10	1
4901784	70	C	06/04/2017	10:42	-132.443	43.588	0	1115.10	0	3.3070	0	34.5530	4	27.507	0	1103.232	0	23.3	4	7.3	4	-1E+10	1	-1E+10	1	-1E+10	1	-1E+10	1	-1E+10	1	-1E+10	1
4901784	70	C	06/04/2017	10:42	-132.443	43.588	0	1120.30	0	3.3070	0	34.5540	4	27.508	0	1108.363	0	23.4	4	7.3	4	-1E+10	1	-1E+10	1	-1E+10	1	-1E+10	1	-1E+10	1	-1E+10	1
4901784	70	C	06/04/2017	10:42	-132.443	43.588	0	1125.40	0	3.3060	0	34.5550	4	27.509	0	1113.396	0	23.5	4	7.3	4	-1E+10	1	-1E+10	1	-1E+10	1	-1E+10	1	-1E+10	1	-1E+10	1
4901784	70	C	06/04/2017	10:42	-132.443	43.588	0	1130.20	0	3.3050	0	34.5560	4	27.510	0	1118.132	0	23.7	4	7.4	4	-1E+10	1	-1E+10	1	-1E+10	1	-1E+10	1	-1E+10	1	-1E+10	1
4901784	70	C	06/04/2017	10:42	-132.443	43.588	0	1135.10	0	3.3030	0	34.5570	4	27.511	0	1122.966	0	23.9	4	7.4	4	-1E+10	1	-1E+10	1	-1E+10	1	-1E+10	1	-1E+10	1	-1E+10	1
4901784	70	C	06/04/2017	10:42	-132.443	43.588	0	1140.00	0	3.3010	0	34.5580	4	27.512	0	1127.801	0	24.2	4	7.5	4	-1E+10	1	-1E+10	1	-1E+10	1	-1E+10	1	-1E+10	1	-1E+10	1
4901784	70	C	06/04/2017	10:42	-132.443	43.588	0	1144.90	0	3.2950	0	34.5600	4	27.514	0	1132.635	0	24.5	4	7.6	4	-1E+10	1	-1E+10	1	-1E+10	1	-1E+10	1	-1E+10	1	-1E+10	1
4901784	70	C	06/04/2017	10:42	-132.443	43.588	0	1149.80	0	3.2910	0	34.5620	4	27.516	0	1137.469	0	24.7	4	7.7	4	-1E+10	1	-1E+10	1	-1E+10	1	-1E+10	1	-1E+10	1	-1E+10	1
4901784	70	C	06/04/2017	10:42	-132.443	43.588	0	1154.80	0	3.2890	0	34.5630	4	27.517	0	1142.402	0	24.8	4	7.7	4	-1E+10	1	-1E+10	1	-1E+10	1	-1E+10	1	-1E+10	1	-1E+10	1
4901784	70	C	06/04/2017	10:42	-132.443	43.588	0	1159.80	0	3.2870	0	34.5630	4	27.517	0	1147.335	0	25.0	4	7.8	4	-1E+10	1	-1E+10	1	-1E+10	1	-1E+10	1	-1E+10	1	-1E+10	1
4901784	70	C	06/04/2017	10:42	-132.443	43.588	0	1164.80	0	3.2830	0	34.5640	4	27.519	0	1152.267	0	25.2	4	7.8	4	-1E+10	1	-1E+10	1	-1E+10	1	-1E+10	1	-1E+10	1	-1E+10	1
4901784	70	C	06/04/2017	10:42	-132.443	43.588	0	1169.90	0	3.2780	0	34.5660	4	27.521	0	1157.298	0	25.3	4	7.9	4	-1E+10	1	-1E+10	1	-1E+10	1	-1E+10	1	-1E+10	1	-1E+10	1
4901784	70	C	06/04/2017	10:42	-132.443	43.588	0	1174.90	0	3.2770	0	34.5660	4	27.521	0	1162.231	0	25.3	4	7.9	4	-1E+10	1	-1E+10	1	-1E+10	1	-1E+10	1	-1E+10	1	-1E+10	1
4901784	70	C	06/04/2017	10:42	-132.443	43.588	0	1180.00	0	3.2770	0	34.5660	4	27.521	0	1167.262	0	25.4	4	7.9	4	-1E+10	1	-1E+10	1	-1E+10	1	-1E+10	1	-1E+10	1	-1E+10	1
4901784	70	C	06/04/2017	10:42	-132.443	43.588	0	1185.10	0	3.2770	0	34.5670	4	27.522	0	1172.292	0	25.5	4	7.9	4	-1E+10	1	-1E+10	1	-1E+10	1	-1E+10	1	-1E+10	1	-1E+10	1
4901784	70	C	06/04/2017	10:42	-132.443	43.588	0	1190.20	0	3.2740	0	34.5670	4	27.522	0	1177.323	0	25.7	4	8.0	4	-1E+10	1	-1E+10	1	-1E+10	1	-1E+10	1	-1E+10	1	-1E+10	1
4901784	70	C	06/04/2017	10:42	-132.443	43.588	0	1195.40	0	3.2690	0	34.5690	4	27.524	0	1182.452	0	25.9	4	8.1	4	-1E+10	1	-1E+10	1	-1E+10	1	-1E+10	1	-1E+10	1	-1E+10	1
4901784	70	C	06/04/2017	10:42	-132.443	43.588	0	1200.60	0	3.2650	0	34.5690	4	27.525	0	1187.581	0	26.1	4	8.1	4	-1E+10	1	-1E+10	1	-1E+10	1	-1E+10	1	-1E+10	1	-1E+10	1
4901784	70	C	06/04/2017	10:42	-132.443	43.588	0	1205.80	0	3.2580	0	34.5710	4	27.527	0	1192.710	0	26.3	4	8.2	4	-1E+10	1	-1E+10	1	-1E+10	1	-1E+10	1	-1E+10	1	-1E+10	1
4901784	70	C	06/04/2017	10:42	-132.443	43.588	0	1210.20	0	3.2530	0	34.5720	4	27.528	0	1197.050	0	26.4	4	8.2	4	-1E+10	1	-1E+10	1	-1E+10	1	-1E+10	1	-1E+10	1	-1E+10	1
4901784	70	C	06/04/2017	10:42	-132.443	43.588	0	1214.60	0	3.2460	0	34.5730	4	27.530	0	1201.389	0	26.6	4	8.3	4	-1E+10	1	-1E+10	1	-1E+10	1	-1E+10	1	-1E+10	1	-1E+10	1
4901784	70	C	06/04/2017	10:42	-132.443	43.588	0	1219.90	0	3.2370	0	34.5740	4	27.531	0	1206.616	0	26.7	4	8.3	4	-1E+10	1	-1E+10	1	-1E+10	1	-1E+10	1	-1E+10	1	-1E+10	1
4901784	70	C	06/04/2017	10:42	-132.443	43.588	0	1225.10	0	3.2340	0	34.5750	4	27.532	0	1211.745	0	26.7	4	8.3	4	-1E+10	1	-1E+10	1	-1E+10	1	-1E+10	1	-1E+10	1	-1E+10	1
4901784	70	C	06/04/2017	10:42	-132.443	43.588	0	1230.30	0	3.2320	0	34.5750	4	27.533	0	1216.873	0	26.7	4	8.3	4	-1E+10	1	-1E+10	1	-1E+10	1	-1E+10	1	-1E+10	1	-1E+10	1
4901784	70	C	06/04/2017	10:42	-132.443	43.588	0	1235.50	0	3.2300	0	34.5760	4	27.534	0	1222.001	0	26.8	4	8.3	4	-1E+10	1	-1E+10	1	-1E+10	1	-1E+10	1	-1E+10	1	-1E+10	1
4901784	70	C	06/04/2017	10:42	-132.443	43.588	0	1240.30	0	3.2230	0	34.5750	4	27.533	0	1226.735	0	26.8	4	8.3	4	-1E+10	1	-1E+10	1	-1E+10	1	-1E+10	1	-1E+10	1	-1E+10	1
4901784	70	C	06/04/2017	10:42	-132.443	43.588	0	1245.30	0	3.2100	0	34.5760	4	27.536	0	1231.666	0	27.0	4	8.4	4	-1E+10	1	-1E+10	1	-1E+10	1	-1E+10	1	-1E+10	1	-1E+10	1
4901784	70	C	06/04/2017	10:42	-132.443	43.588	0	1250.20	0	3.1980	0	34.5770	4	27.537	0	1236.497	0	27.0	4	8.4	4	-1E+10	1	-1E+10	1	-1E+10	1	-1E+10	1	-1E+10	1	-1E+10	1
4901784	70	C	06/04/2017	10:42	-132.443	43.588	0	1255.20	0	3.1920	0	34.5780	4	27.539	0	1241.428	0	27.1	4	8.4	4	-1E+10	1	-1E+10	1	-1E+10	1	-1E+10	1	-1E+10	1	-1E+10	1
4901784	70	C	06/04/2017	10:42	-132.443	43.588	0	1260.20	0	3.1820	0	34.5790	4	27.541	0	1246.358	0	27.2	4	8.4	4	-1E+10	1	-1E+10	1	-1E+10	1	-1E+10	1	-1E+10	1	-1E+10	1
4901784	70	C	06/04/2017	10:42	-132.443	43.588	0	1265.30	0	3.1750	0	34.5790	4	27.541	0	1251.387	0	27.2	4	8.4	4	-1E+10	1	-1E+10	1	-1E+10	1	-1E+10	1	-1E+10	1	-1E+10	1
4901784	70	C	06/04/2017	10:42	-132.443	43.588	0	1270.30	0	3.1570	0	34.5810	4	27.545	0	1256.317	0	27.3	4	8.5	4	-1E+10	1	-1E+10	1	-1E+10	1	-1E+10	1	-1E+10	1	-1E+10	1
4901784	70	C	06/04/2017	10:42	-132.443	43.588	0	1275.30	0	3.1490	0	34.5810	4	27.545	0	1261.247	0	27.3	4	8.5	4	-1E+10	1	-1E+10	1	-1E+10	1	-1E+10	1	-1E+10	1	-1E+10	1
4901784	70	C	06/04/2017	10:42	-132.443	43.588	0	1280.40	0	3.1450	0	34.5810	4	27.546	0	1266.276	0	27.3	4	8.5	4	-1E+10	1	-1E+10	1	-1E+10	1	-1E+10	1	-1E+10	1	-1E+10	1
4901784	70	C	06/04/2017	10:42	-132.443	43.588	0	1285.60	0	3.1320	0	34.5820	4	27.548	0	1271.403	0	27.3	4	8.5	4	-1E+10	1	-1E+10	1	-1E+10	1	-1E+10	1	-1E+10	1	-1E+10	1
4901784	70	C	06/04/2017	10:42	-132.443	43.588	0	1290.70	0	3.1230	0	34.5820	4	27.549	0	1276.431	0	27.3	4	8.5	4	-1E+10	1	-1E+10	1	-1E+10	1	-1E+10	1	-1E+10	1	-1E+10	1
4901784	70	C	06/04/2017	10:42	-132.443	43.588	0	1295.10	0	3.1210	0	34.5820	4	27.549	0	1280.769	0	27.3	4	8.5	4	-1E+10	1	-1E+10	1	-1E+10	1	-1E+10	1	-1E+10	1	-1E+10	1
4901784	70	C	06/04/2017	10:42	-132.443	43.588	0	1299.30	0	3.1110	0	34.5820	4	27.550	0	1284.910	0	27.3	4	8.5	4	-1E+10	1	-1E+10	1	-1E+10	1	-1E+10	1	-1E+10	1	-1E+10	1
4901784	70	C	06/04/2017	10:42	-132.443	43.588	0	1304.60	0	3.1050	0	34.5820	4	27.550	0	1290.135	0	27.3	4	8.5	4	-1E+10	1	-1E+10	1	-1E+10	1	-1E+10	1	-1E+10	1	-1E+10	1
4901784	70	C	06/04/2017	10:42	-132.443	43.588	0	1310.00	0	3.0990	0	34.5820	4	27.551	0	1295.458	0	27.3	4	8.5	4	-1E+10	1	-1E+10	1	-1E+10	1	-1E+10	1	-1E+10	1	-1E+10	1
4901784	70	C	06/04/2017	10:42	-132.443	43.588	0	1315.40	0	3.0900	0	34.5820	4	27.552	0	1300.782	0	27.3	4	8.5	4	-1E+10	1	-1E+10	1	-1E+10	1	-1E+10	1	-1E+10	1	-1E+10	1
4901784	70	C	06/04/2017	10:42	-132.443	43.588	0	1319.80	0	3.0850	0	34.5830	4	27.553	0	1305.119	0	27.3	4	8.4	4	-1E+10	1	-1E+10	1	-1E+10	1	-1E+10	1	-1E+10	1	-1E+10	1
4901784	70	C	06/04/2017	10:42	-132.443	43.588	0	1324.30	0	3.0780	0	34.5830	4	27.554	0	1309.555	0	27.3	4	8.4	4	-1E+10	1	-1E+10	1	-1E+10	1	-1E+10	1	-1E+10	1	-1E+10	1
4901784	70	C	06/04/2017	10:42	-132.443	43.588	0	1329.70	0	3.0710	0	34.5820	4	27.554	0	1314.878	0	27.2	4	8.4	4	-1E+10	1	-1E+10	1	-1E+10	1	-1E+10	1	-1E+10	1	-1E+10	1
4901784	70	C	06/04/2017	10:42	-132.443	43.588	0	1335.20	0	3.0560	0	34.5830	4	27.556	0	1320.300	0	27.2	4	8.4	4	-1E+10	1	-1E+10	1	-1E+10	1	-1E+10	1	-1E+10	1	-1E+10	1
4901784	70	C	06/04/2017	10:42	-132.443	43.588	0	1340.60	0	3.0320	0	34.5830	4	27.558	0	1325.622	0	27.1	4	8.4	4	-1E+10	1	-1E+10	1	-1E+10	1	-1E+10	1	-1E+10	1	-1E+10	1
4901784	70	C	06/04/2017	10:42	-132.443	43.588	0	1345.20	0	3.0240	0	34.5820	4	27.558	0	1330.156	0	27.1	4	8.4	4	-1E+10	1	-1E+10	1	-1E+10	1	-1E+10	1	-1E+10	1	-1E+10	1
4901784	70	C	06/04/2017	10:42	-132.443	43.588	0	1349.70	0	3.0090	0	34.5830	4	27.560	0	1334.592	0	27.0	4	8.4	4	-1E+10	1	-1E+10	1	-1E+10	1	-1E+10	1	-1E+10	1	-1E+10	1
4901784	70	C	06/04/2017	10:42	-132.443	43.588	0	1355.10	0	3.0050	0	34.5830	4	27.561	0	1339.914	0	27.0	4	8.4	4	-1E+10	1	-1E+10	1	-1E+10	1	-1E+10	1	-1E+10	1	-1E+10	1
4901784	70	C	06/04/2017	10:42	-132.443	43.588	0	1360.40	0	3.0040	0	34.5820	4	27.560	0	1345.138	0	27.0	4	8.3	4	-1E+10	1	-1E+10	1	-1E+10	1	-1E+10	1	-1E+10	1	-1E+10	1
4901784	70	C	06/04/2017	10:42	-132.443	43.588	0	1365.10	0	3.0010	0	34.5820	4	27.560	0	1349.770	0	27.0	4	8.3	4	-1E+10	1	-1E+10	1	-1E+10	1	-1E+10	1	-1E+10	1	-1E+10	1
4901784	70	C	06/04/2017	10:42	-132.443	43.588	0	1369.60	0	2.9800	0	34.5820	4	27.562	0	1354.205	0	27.0	4	8.3	4	-1E+10	1	-1E+10	1	-1E+10	1	-1E+10	1	-1E+10	1	-1E+10	1
4901784	70	C	06/04/2017	10:42	-132.443	43.588	0	1375.10	0	2.9650	0	34.5820	4	27.563	0	1359.626	0	26.9	4	8.3	4	-1E+10	1	-1E+10	1	-1E+10	1	-1E+10	1	-1E+10	1	-1E+10	1
4901784	70	C	06/04/2017	10:42	-132.443	43.588	0	1380.60	0	2.9470	0	34.5820	4	27.565	0	1365.046	0	26.9	4	8.3	4	-1E+10	1	-1E+10	1	-1E+10	1	-1E+10	1	-1E+10	1	-1E+10	1
4901784	70	C	06/04/2017	10:42	-132.443	43.588	0	1385.20	0	2.9290	0	34.5830	4	27.568	0	1369.579	0	26.8	4	8.3	4	-1E+10	1	-1E+10	1	-1E+10	1	-1E+10	1	-1E+10	1	-1E+10	1
4901784	70	C	06/04/2017	10:42	-132.443	43.588	0	1389.80	0	2.9210	0	34.5830	4	27.568	0	1374.112	0	26.8	4	8.3	4	-1E+10	1	-1E+10	1	-1E+10	1	-1E+10	1	-1E+10	1	-1E+10	1
4901784	70	C	06/04/2017	10:42	-132.443	43.588	0	1395.30	0	2.9140	0	34.5830	4	27.569	0	1379.532	0	26.8	4	8.3	4	-1E+10	1	-1E+10	1	-1E+10	1	-1E+10	1	-1E+10	1	-1E+10	1
4901784	70	C	06/04/2017	10:42	-132.443	43.588	0	1400.00	0	2.9130	0	34.5840	4	27.570	0	1384.164	0	26.8	4	8.3	4	-1E+10	1	-1E+10	1	-1E+10	1	-1E+10	1	-1E+10	1	-1E+10	1
4901784	70	C	06/04/2017	10:42	-132.443	43.588	0	1404.70	0	2.9120	0	34.5820	4	27.568	0	1388.795	0	26.8	4	8.3	4	-1E+10	1	-1E+10	1	-1E+10	1	-1E+10	1	-1E+10	1	-1E+10	1
4901784	70	C	06/04/2017	10:42	-132.443	43.588	0	1410.20	0	2.9090	0	34.5820	4	27.569	0	1394.215	0	26.8	4	8.3	4	-1E+10	1	-1E+10	1	-1E+10	1	-1E+10	1	-1E+10	1	-1E+10	1
4901784	70	C	06/04/2017	10:42	-132.443	43.588	0	1414.80	0	2.9060	0	34.5830	4	27.570	0	1398.747	0	26.8	4	8.3	4	-1E+10	1	-1E+10	1	-1E+10	1	-1E+10	1	-1E+10	1	-1E+10	1
4901784	70	C	06/04/2017	10:42	-132.443	43.588	0	1419.40	0	2.8920	0	34.5830	4	27.571	0	1403.280	0	26.8	4	8.3	4	-1E+10	1	-1E+10	1	-1E+10	1	-1E+10	1	-1E+10	1	-1E+10	1
4901784	70	C	06/04/2017	10:42	-132.443	43.588	0	1425.10	0	2.8860	0	34.5830	4	27.572	0	1408.896	0	26.8	4	8.2	4	-1E+10	1	-1E+10	1	-1E+10	1	-1E+10	1	-1E+10	1	-1E+10	1
4901784	70	C	06/04/2017	10:42	-132.443	43.588	0	1429.80	0	2.8820	0	34.5830	4	27.572	0	1413.527	0	26.7	4	8.2	4	-1E+10	1	-1E+10	1	-1E+10	1	-1E+10	1	-1E+10	1	-1E+10	1
4901784	70	C	06/04/2017	10:42	-132.443	43.588	0	1434.70	0	2.8770	0	34.5820	4	27.572	0	1418.355	0	26.7	4	8.2	4	-1E+10	1	-1E+10	1	-1E+10	1	-1E+10	1	-1E+10	1	-1E+10	1
4901784	70	C	06/04/2017	10:42	-132.443	43.588	0	1440.40	0	2.8640	0	34.5820	4	27.573	0	1423.971	0	26.7	4	8.2	4	-1E+10	1	-1E+10	1	-1E+10	1	-1E+10	1	-1E+10	1	-1E+10	1
4901784	70	C	06/04/2017	10:42	-132.443	43.588	0	1445.20	0	2.8510	0	34.5820	4	27.574	0	1428.700	0	26.7	4	8.2	4	-1E+10	1	-1E+10	1	-1E+10	1	-1E+10	1	-1E+10	1	-1E+10	1
4901784	70	C	06/04/2017	10:42	-132.443	43.588	0	1449.80	0	2.8320	0	34.5820	4	27.576	0	1433.232	0	26.7	4	8.2	4	-1E+10	1	-1E+10	1	-1E+10	1	-1E+10	1	-1E+10	1	-1E+10	1
4901784	70	C	06/04/2017	10:42	-132.443	43.588	0	1454.80	0	2.8220	0	34.5820	4	27.577	0	1438.157	0	26.7	4	8.2	4	-1E+10	1	-1E+10	1	-1E+10	1	-1E+10	1	-1E+10	1	-1E+10	1
4901784	70	C	06/04/2017	10:42	-132.443	43.588	0	1459.80	0	2.8140	0	34.5820	4	27.577	0	1443.083	0	26.7	4	8.2	4	-1E+10	1	-1E+10	1	-1E+10	1	-1E+10	1	-1E+10	1	-1E+10	1
4901784	70	C	06/04/2017	10:42	-132.443	43.588	0	1464.90	0	2.7850	0	34.5820	4	27.580	0	1448.107	0	26.7	4	8.2	4	-1E+10	1	-1E+10	1	-1E+10	1	-1E+10	1	-1E+10	1	-1E+10	1
4901784	70	C	06/04/2017	10:42	-132.443	43.588	0	1469.90	0	2.7750	0	34.5830	4	27.582	0	1453.033	0	26.7	4	8.2	4	-1E+10	1	-1E+10	1	-1E+10	1	-1E+10	1	-1E+10	1	-1E+10	1
4901784	70	C	06/04/2017	10:42	-132.443	43.588	0	1474.90	0	2.7720	0	34.5820	4	27.581	0	1457.958	0	26.7	4	8.2	4	-1E+10	1	-1E+10	1	-1E+10	1	-1E+10	1	-1E+10	1	-1E+10	1
4901784	70	C	06/04/2017	10:42	-132.443	43.588	0	1479.90	0	2.7640	0	34.5820	4	27.582	0	1462.883	0	26.7	4	8.2	4	-1E+10	1	-1E+10	1	-1E+10	1	-1E+10	1	-1E+10	1	-1E+10	1
4901784	70	C	06/04/2017	10:42	-132.443	43.588	0	1484.90	0	2.7520	0	34.5820	4	27.583	0	1467.809	0	26.7	4	8.2	4	-1E+10	1	-1E+10	1	-1E+10	1	-1E+10	1	-1E+10	1	-1E+10	1
4901784	70	C	06/04/2017	10:42	-132.443	43.588	0	1489.90	0	2.7260	0	34.5830	4	27.586	0	1472.734	0	26.7	4	8.2	4	-1E+10	1	-1E+10	1	-1E+10	1	-1E+10	1	-1E+10	1	-1E+10	1
4901784	70	C	06/04/2017	10:42	-132.443	43.588	0	1495.00	0	2.7070	0	34.5830	4	27.588	0	1477.757	0	26.8	4	8.2	4	-1E+10	1	-1E+10	1	-1E+10	1	-1E+10	1	-1E+10	1	-1E+10	1
4901784	70	C	06/04/2017	10:42	-132.443	43.588	0	1500.10	0	2.7020	0	34.5830	4	27.588	0	1482.780	0	26.8	4	8.2	4	-1E+10	1	-1E+10	1	-1E+10	1	-1E+10	1	-1E+10	1	-1E+10	1
4901784	70	C	06/04/2017	10:42	-132.443	43.588	0	1505.00	0	2.6820	0	34.5840	4	27.591	0	1487.606	0	26.9	4	8.2	4	-1E+10	1	-1E+10	1	-1E+10	1	-1E+10	1	-1E+10	1	-1E+10	1
4901784	70	C	06/04/2017	10:42	-132.443	43.588	0	1510.00	0	2.6770	0	34.5840	4	27.591	0	1492.531	0	27.0	4	8.3	4	-1E+10	1	-1E+10	1	-1E+10	1	-1E+10	1	-1E+10	1	-1E+10	1
4901784	70	C	06/04/2017	10:42	-132.443	43.588	0	1514.90	0	2.6680	0	34.5840	4	27.592	0	1497.357	0	27.1	4	8.3	4	-1E+10	1	-1E+10	1	-1E+10	1	-1E+10	1	-1E+10	1	-1E+10	1
4901784	70	C	06/04/2017	10:42	-132.443	43.588	0	1520.00	0	2.6450	0	34.5830	4	27.593	0	1502.380	0	27.3	4	8.4	4	-1E+10	1	-1E+10	1	-1E+10	1	-1E+10	1	-1E+10	1	-1E+10	1
4901784	70	C	06/04/2017	10:42	-132.443	43.588	0	1525.10	0	2.6160	0	34.5840	4	27.596	0	1507.402	0	27.5	4	8.4	4	-1E+10	1	-1E+10	1	-1E+10	1	-1E+10	1	-1E+10	1	-1E+10	1
4901784	70	C	06/04/2017	10:42	-132.443	43.588	0	1530.20	0	2.5880	0	34.5850	4	27.600	0	1512.425	0	27.8	4	8.5	4	-1E+10	1	-1E+10	1	-1E+10	1	-1E+10	1	-1E+10	1	-1E+10	1
4901784	70	C	06/04/2017	10:42	-132.443	43.588	0	1535.40	0	2.5630	0	34.5860	4	27.603	0	1517.546	0	28.0	4	8.6	4	-1E+10	1	-1E+10	1	-1E+10	1	-1E+10	1	-1E+10	1	-1E+10	1
4901784	70	C	06/04/2017	10:42	-132.443	43.588	0	1540.60	0	2.5470	0	34.5870	4	27.605	0	1522.667	0	28.2	4	8.6	4	-1E+10	1	-1E+10	1	-1E+10	1	-1E+10	1	-1E+10	1	-1E+10	1
4901784	70	C	06/04/2017	10:42	-132.443	43.588	0	1544.90	0	2.5370	0	34.5880	4	27.606	0	1526.901	0	28.4	4	8.7	4	-1E+10	1	-1E+10	1	-1E+10	1	-1E+10	1	-1E+10	1	-1E+10	1
4901784	70	C	06/04/2017	10:42	-132.443	43.588	0	1549.30	0	2.5190	0	34.5880	4	27.608	0	1531.234	0	28.6	4	8.7	4	-1E+10	1	-1E+10	1	-1E+10	1	-1E+10	1	-1E+10	1	-1E+10	1
4901784	70	C	06/04/2017	10:42	-132.443	43.588	0	1554.50	0	2.4970	0	34.5900	4	27.611	0	1536.355	0	29.0	4	8.9	4	-1E+10	1	-1E+10	1	-1E+10	1	-1E+10	1	-1E+10	1	-1E+10	1
4901784	70	C	06/04/2017	10:42	-132.443	43.588	0	1559.80	0	2.4810	0	34.5920	4	27.614	0	1541.573	0	29.3	4	9.0	4	-1E+10	1	-1E+10	1	-1E+10	1	-1E+10	1	-1E+10	1	-1E+10	1
4901784	70	C	06/04/2017	10:42	-132.443	43.588	0	1565.10	0	2.4680	0	34.5930	4	27.616	0	1546.792	0	29.7	4	9.0	4	-1E+10	1	-1E+10	1	-1E+10	1	-1E+10	1	-1E+10	1	-1E+10	1
4901784	70	C	06/04/2017	10:42	-132.443	43.588	0	1570.40	0	2.4620	0	34.5930	4	27.617	0	1552.011	0	29.9	4	9.1	4	-1E+10	1	-1E+10	1	-1E+10	1	-1E+10	1	-1E+10	1	-1E+10	1
4901784	70	C	06/04/2017	10:42	-132.443	43.588	0	1574.90	0	2.4530	0	34.5950	4	27.619	0	1556.442	0	30.3	4	9.2	4	-1E+10	1	-1E+10	1	-1E+10	1	-1E+10	1	-1E+10	1	-1E+10	1
4901784	70	C	06/04/2017	10:42	-132.443	43.588	0	1579.40	0	2.4360	0	34.5960	4	27.621	0	1560.872	0	30.7	4	9.3	4	-1E+10	1	-1E+10	1	-1E+10	1	-1E+10	1	-1E+10	1	-1E+10	1
4901784	70	C	06/04/2017	10:42	-132.443	43.588	0	1584.90	0	2.4240	0	34.5970	4	27.623	0	1566.287	0	31.1	4	9.5	4	-1E+10	1	-1E+10	1	-1E+10	1	-1E+10	1	-1E+10	1	-1E+10	1
4901784	70	C	06/04/2017	10:42	-132.443	43.588	0	1590.30	0	2.4040	0	34.6000	4	27.627	0	1571.604	0	31.4	4	9.6	4	-1E+10	1	-1E+10	1	-1E+10	1	-1E+10	1	-1E+10	1	-1E+10	1
4901784	70	C	06/04/2017	10:42	-132.443	43.588	0	1594.80	0	2.4010	0	34.6000	4	27.628	0	1576.034	0	31.5	4	9.6	4	-1E+10	1	-1E+10	1	-1E+10	1	-1E+10	1	-1E+10	1	-1E+10	1
4901784	70	C	06/04/2017	10:42	-132.443	43.588	0	1599.70	0	2.4000	0	34.6000	4	27.628	0	1580.858	0	31.7	4	9.7	4	-1E+10	1	-1E+10	1	-1E+10	1	-1E+10	1	-1E+10	1	-1E+10	1
4901784	70	C	06/04/2017	10:42	-132.443	43.588	0	1604.90	0	2.3910	0	34.6010	4	27.629	0	1585.978	0	32.0	4	9.8	4	-1E+10	1	-1E+10	1	-1E+10	1	-1E+10	1	-1E+10	1	-1E+10	1
4901784	70	C	06/04/2017	10:42	-132.443	43.588	0	1609.60	0	2.3840	0	34.6020	4	27.631	0	1590.604	0	32.3	4	9.8	4	-1E+10	1	-1E+10	1	-1E+10	1	-1E+10	1	-1E+10	1	-1E+10	1
4901784	70	C	06/04/2017	10:42	-132.443	43.588	0	1614.30	0	2.3710	0	34.6030	4	27.633	0	1595.231	0	32.8	4	10.0	4	-1E+10	1	-1E+10	1	-1E+10	1	-1E+10	1	-1E+10	1	-1E+10	1
4901784	70	C	06/04/2017	10:42	-132.443	43.588	0	1620.00	0	2.3590	0	34.6040	4	27.634	0	1600.842	0	33.2	4	10.1	4	-1E+10	1	-1E+10	1	-1E+10	1	-1E+10	1	-1E+10	1	-1E+10	1
4901784	70	C	06/04/2017	10:42	-132.443	43.588	0	1625.70	0	2.3480	0	34.6050	4	27.636	0	1606.453	0	33.5	4	10.2	4	-1E+10	1	-1E+10	1	-1E+10	1	-1E+10	1	-1E+10	1	-1E+10	1
4901784	70	C	06/04/2017	10:42	-132.443	43.588	0	1630.70	0	2.3450	0	34.6060	4	27.637	0	1611.375	0	33.7	4	10.3	4	-1E+10	1	-1E+10	1	-1E+10	1	-1E+10	1	-1E+10	1	-1E+10	1
4901784	70	C	06/04/2017	10:42	-132.443	43.588	0	1635.70	0	2.3390	0	34.6070	4	27.638	0	1616.297	0	34.2	4	10.4	4	-1E+10	1	-1E+10	1	-1E+10	1	-1E+10	1	-1E+10	1	-1E+10	1
4901784	70	C	06/04/2017	10:42	-132.443	43.588	0	1640.70	0	2.3300	0	34.6060	4	27.638	0	1621.218	0	34.9	4	10.6	4	-1E+10	1	-1E+10	1	-1E+10	1	-1E+10	1	-1E+10	1	-1E+10	1
4901784	70	C	06/04/2017	10:42	-132.443	43.588	0	1645.60	0	2.3030	0	34.6100	4	27.644	0	1626.041	0	35.8	4	10.9	4	-1E+10	1	-1E+10	1	-1E+10	1	-1E+10	1	-1E+10	1	-1E+10	1
4901784	70	C	06/04/2017	10:42	-132.443	43.588	0	1650.60	0	2.2840	0	34.6130	4	27.648	0	1630.963	0	36.5	4	11.1	4	-1E+10	1	-1E+10	1	-1E+10	1	-1E+10	1	-1E+10	1	-1E+10	1
4901784	70	C	06/04/2017	10:42	-132.443	43.588	0	1655.60	0	2.2660	0	34.6150	4	27.651	0	1635.884	0	37.1	4	11.2	4	-1E+10	1	-1E+10	1	-1E+10	1	-1E+10	1	-1E+10	1	-1E+10	1
4901784	70	C	06/04/2017	10:42	-132.443	43.588	0	1660.60	0	2.2580	0	34.6170	4	27.653	0	1640.805	0	37.4	4	11.4	4	-1E+10	1	-1E+10	1	-1E+10	1	-1E+10	1	-1E+10	1	-1E+10	1
4901784	70	C	06/04/2017	10:42	-132.443	43.588	0	1665.60	0	2.2540	0	34.6170	4	27.654	0	1645.726	0	37.8	4	11.5	4	-1E+10	1	-1E+10	1	-1E+10	1	-1E+10	1	-1E+10	1	-1E+10	1
4901784	70	C	06/04/2017	10:42	-132.443	43.588	0	1669.90	0	2.2480	0	34.6170	4	27.654	0	1649.958	0	38.2	4	11.6	4	-1E+10	1	-1E+10	1	-1E+10	1	-1E+10	1	-1E+10	1	-1E+10	1
4901784	70	C	06/04/2017	10:42	-132.443	43.588	0	1674.20	0	2.2330	0	34.6200	4	27.658	0	1654.190	0	38.8	4	11.8	4	-1E+10	1	-1E+10	1	-1E+10	1	-1E+10	1	-1E+10	1	-1E+10	1
4901784	70	C	06/04/2017	10:42	-132.443	43.588	0	1679.50	0	2.2240	0	34.6210	4	27.659	0	1659.406	0	39.4	4	11.9	4	-1E+10	1	-1E+10	1	-1E+10	1	-1E+10	1	-1E+10	1	-1E+10	1
4901784	70	C	06/04/2017	10:42	-132.443	43.588	0	1685.00	0	2.2120	0	34.6230	4	27.662	0	1664.819	0	40.2	4	12.2	4	-1E+10	1	-1E+10	1	-1E+10	1	-1E+10	1	-1E+10	1	-1E+10	1
4901784	70	C	06/04/2017	10:42	-132.443	43.588	0	1690.40	0	2.1950	0	34.6260	4	27.666	0	1670.133	0	40.8	4	12.4	4	-1E+10	1	-1E+10	1	-1E+10	1	-1E+10	1	-1E+10	1	-1E+10	1
4901784	70	C	06/04/2017	10:42	-132.443	43.588	0	1695.00	0	2.1870	0	34.6270	4	27.667	0	1674.659	0	41.1	4	12.5	4	-1E+10	1	-1E+10	1	-1E+10	1	-1E+10	1	-1E+10	1	-1E+10	1
4901784	70	C	06/04/2017	10:42	-132.443	43.588	0	1699.60	0	2.1810	0	34.6280	4	27.668	0	1679.186	0	41.4	4	12.5	4	-1E+10	1	-1E+10	1	-1E+10	1	-1E+10	1	-1E+10	1	-1E+10	1
4901784	70	C	06/04/2017	10:42	-132.443	43.588	0	1705.20	0	2.1780	0	34.6280	4	27.669	0	1684.696	0	41.7	4	12.6	4	-1E+10	1	-1E+10	1	-1E+10	1	-1E+10	1	-1E+10	1	-1E+10	1
4901784	70	C	06/04/2017	10:42	-132.443	43.588	0	1710.70	0	2.1690	0	34.6300	4	27.671	0	1690.108	0	42.2	4	12.8	4	-1E+10	1	-1E+10	1	-1E+10	1	-1E+10	1	-1E+10	1	-1E+10	1
4901784	70	C	06/04/2017	10:42	-132.443	43.588	0	1715.20	0	2.1630	0	34.6310	4	27.672	0	1694.536	0	42.4	4	12.8	4	-1E+10	1	-1E+10	1	-1E+10	1	-1E+10	1	-1E+10	1	-1E+10	1
4901784	70	C	06/04/2017	10:42	-132.443	43.588	0	1719.70	0	2.1610	0	34.6310	4	27.672	0	1698.964	0	42.6	4	12.9	4	-1E+10	1	-1E+10	1	-1E+10	1	-1E+10	1	-1E+10	1	-1E+10	1
4901784	70	C	06/04/2017	10:42	-132.443	43.588	0	1725.20	0	2.1560	0	34.6320	4	27.674	0	1704.376	0	42.9	4	13.0	4	-1E+10	1	-1E+10	1	-1E+10	1	-1E+10	1	-1E+10	1	-1E+10	1
4901784	70	C	06/04/2017	10:42	-132.443	43.588	0	1729.80	0	2.1530	0	34.6320	4	27.674	0	1708.902	0	43.0	4	13.0	4	-1E+10	1	-1E+10	1	-1E+10	1	-1E+10	1	-1E+10	1	-1E+10	1
4901784	70	C	06/04/2017	10:42	-132.443	43.588	0	1734.70	0	2.1500	0	34.6320	4	27.674	0	1713.723	0	43.1	4	13.1	4	-1E+10	1	-1E+10	1	-1E+10	1	-1E+10	1	-1E+10	1	-1E+10	1
4901784	70	C	06/04/2017	10:42	-132.443	43.588	0	1739.90	0	2.1490	0	34.6330	4	27.675	0	1718.839	0	43.3	4	13.1	4	-1E+10	1	-1E+10	1	-1E+10	1	-1E+10	1	-1E+10	1	-1E+10	1
4901784	70	C	06/04/2017	10:42	-132.443	43.588	0	1744.70	0	2.1460	0	34.6330	4	27.675	0	1723.561	0	43.6	4	13.2	4	-1E+10	1	-1E+10	1	-1E+10	1	-1E+10	1	-1E+10	1	-1E+10	1
4901784	70	C	06/04/2017	10:42	-132.443	43.588	0	1749.60	0	2.1400	0	34.6340	4	27.677	0	1728.382	0	43.9	4	13.3	4	-1E+10	1	-1E+10	1	-1E+10	1	-1E+10	1	-1E+10	1	-1E+10	1
4901784	70	C	06/04/2017	10:42	-132.443	43.588	0	1754.60	0	2.1360	0	34.6350	4	27.678	0	1733.301	0	44.2	4	13.4	4	-1E+10	1	-1E+10	1	-1E+10	1	-1E+10	1	-1E+10	1	-1E+10	1
4901784	70	C	06/04/2017	10:42	-132.443	43.588	0	1759.60	0	2.1320	0	34.6350	4	27.678	0	1738.220	0	44.6	4	13.5	4	-1E+10	1	-1E+10	1	-1E+10	1	-1E+10	1	-1E+10	1	-1E+10	1
4901784	70	C	06/04/2017	10:42	-132.443	43.588	0	1764.70	0	2.1230	0	34.6370	4	27.681	0	1743.237	0	45.0	4	13.6	4	-1E+10	1	-1E+10	1	-1E+10	1	-1E+10	1	-1E+10	1	-1E+10	1
4901784	70	C	06/04/2017	10:42	-132.443	43.588	0	1769.70	0	2.1190	0	34.6370	4	27.681	0	1748.155	0	45.3	4	13.7	4	-1E+10	1	-1E+10	1	-1E+10	1	-1E+10	1	-1E+10	1	-1E+10	1
4901784	70	C	06/04/2017	10:42	-132.443	43.588	0	1774.70	0	2.1140	0	34.6380	4	27.682	0	1753.074	0	45.6	4	13.8	4	-1E+10	1	-1E+10	1	-1E+10	1	-1E+10	1	-1E+10	1	-1E+10	1
4901784	70	C	06/04/2017	10:42	-132.443	43.588	0	1779.70	0	2.1060	0	34.6390	4	27.684	0	1757.992	0	46.0	4	13.9	4	-1E+10	1	-1E+10	1	-1E+10	1	-1E+10	1	-1E+10	1	-1E+10	1
4901784	70	C	06/04/2017	10:42	-132.443	43.588	0	1784.80	0	2.1020	0	34.6400	4	27.685	0	1763.009	0	46.2	4	14.0	4	-1E+10	1	-1E+10	1	-1E+10	1	-1E+10	1	-1E+10	1	-1E+10	1
4901784	70	C	06/04/2017	10:42	-132.443	43.588	0	1789.90	0	2.0980	0	34.6410	4	27.686	0	1768.025	0	46.5	4	14.1	4	-1E+10	1	-1E+10	1	-1E+10	1	-1E+10	1	-1E+10	1	-1E+10	1
4901784	70	C	06/04/2017	10:42	-132.443	43.588	0	1794.90	0	2.0940	0	34.6410	4	27.686	0	1772.943	0	46.7	4	14.1	4	-1E+10	1	-1E+10	1	-1E+10	1	-1E+10	1	-1E+10	1	-1E+10	1
4901784	70	C	06/04/2017	10:42	-132.443	43.588	0	1800.00	0	2.0930	0	34.6420	4	27.687	0	1777.960	0	46.8	4	14.1	4	-1E+10	1	-1E+10	1	-1E+10	1	-1E+10	1	-1E+10	1	-1E+10	1
4901784	70	C	06/04/2017	10:42	-132.443	43.588	0	1805.00	0	2.0930	0	34.6420	4	27.687	0	1782.877	0	46.9	4	14.2	4	-1E+10	1	-1E+10	1	-1E+10	1	-1E+10	1	-1E+10	1	-1E+10	1
4901784	70	C	06/04/2017	10:42	-132.443	43.588	0	1810.10	0	2.0890	0	34.6430	4	27.688	0	1787.893	0	47.2	4	14.3	4	-1E+10	1	-1E+10	1	-1E+10	1	-1E+10	1	-1E+10	1	-1E+10	1
4901784	70	C	06/04/2017	10:42	-132.443	43.588	0	1815.20	0	2.0860	0	34.6430	4	27.689	0	1792.909	0	47.6	4	14.4	4	-1E+10	1	-1E+10	1	-1E+10	1	-1E+10	1	-1E+10	1	-1E+10	1
4901784	70	C	06/04/2017	10:42	-132.443	43.588	0	1820.40	0	2.0810	0	34.6430	4	27.689	0	1798.024	0	48.0	4	14.5	4	-1E+10	1	-1E+10	1	-1E+10	1	-1E+10	1	-1E+10	1	-1E+10	1
4901784	70	C	06/04/2017	10:42	-132.443	43.588	0	1825.60	0	2.0720	0	34.6440	4	27.691	0	1803.138	0	48.6	4	14.7	4	-1E+10	1	-1E+10	1	-1E+10	1	-1E+10	1	-1E+10	1	-1E+10	1
4901784	70	C	06/04/2017	10:42	-132.443	43.588	0	1830.00	0	2.0660	0	34.6450	4	27.692	0	1807.465	0	48.9	4	14.8	4	-1E+10	1	-1E+10	1	-1E+10	1	-1E+10	1	-1E+10	1	-1E+10	1
4901784	70	C	06/04/2017	10:42	-132.443	43.588	0	1834.50	0	2.0630	0	34.6460	4	27.693	0	1811.890	0	49.3	4	14.9	4	-1E+10	1	-1E+10	1	-1E+10	1	-1E+10	1	-1E+10	1	-1E+10	1
4901784	70	C	06/04/2017	10:42	-132.443	43.588	0	1839.90	0	2.0490	0	34.6480	4	27.696	0	1817.201	0	50.0	4	15.1	4	-1E+10	1	-1E+10	1	-1E+10	1	-1E+10	1	-1E+10	1	-1E+10	1
4901784	70	C	06/04/2017	10:42	-132.443	43.588	0	1845.30	0	2.0420	0	34.6490	4	27.697	0	1822.511	0	50.3	4	15.2	4	-1E+10	1	-1E+10	1	-1E+10	1	-1E+10	1	-1E+10	1	-1E+10	1
4901784	70	C	06/04/2017	10:42	-132.443	43.588	0	1849.80	0	2.0410	0	34.6500	4	27.698	0	1826.936	0	50.4	4	15.2	4	-1E+10	1	-1E+10	1	-1E+10	1	-1E+10	1	-1E+10	1	-1E+10	1
4901784	70	C	06/04/2017	10:42	-132.443	43.588	0	1854.40	0	2.0410	0	34.6500	4	27.698	0	1831.459	0	50.5	4	15.3	4	-1E+10	1	-1E+10	1	-1E+10	1	-1E+10	1	-1E+10	1	-1E+10	1
4901784	70	C	06/04/2017	10:42	-132.443	43.588	0	1859.80	0	2.0380	0	34.6500	4	27.698	0	1836.769	0	50.9	4	15.4	4	-1E+10	1	-1E+10	1	-1E+10	1	-1E+10	1	-1E+10	1	-1E+10	1
4901784	70	C	06/04/2017	10:42	-132.443	43.588	0	1865.40	0	2.0310	0	34.6510	4	27.700	0	1842.276	0	51.2	4	15.5	4	-1E+10	1	-1E+10	1	-1E+10	1	-1E+10	1	-1E+10	1	-1E+10	1
4901784	70	C	06/04/2017	10:42	-132.443	43.588	0	1870.00	0	2.0280	0	34.6510	4	27.700	0	1846.799	0	51.4	4	15.5	4	-1E+10	1	-1E+10	1	-1E+10	1	-1E+10	1	-1E+10	1	-1E+10	1
4901784	70	C	06/04/2017	10:42	-132.443	43.588	0	1874.70	0	2.0260	0	34.6520	4	27.701	0	1851.420	0	51.6	4	15.6	4	-1E+10	1	-1E+10	1	-1E+10	1	-1E+10	1	-1E+10	1	-1E+10	1
4901784	70	C	06/04/2017	10:42	-132.443	43.588	0	1879.90	0	2.0220	0	34.6530	4	27.702	0	1856.533	0	51.9	4	15.7	4	-1E+10	1	-1E+10	1	-1E+10	1	-1E+10	1	-1E+10	1	-1E+10	1
4901784	70	C	06/04/2017	10:42	-132.443	43.588	0	1885.00	0	2.0200	0	34.6530	4	27.702	0	1861.547	0	52.2	4	15.8	4	-1E+10	1	-1E+10	1	-1E+10	1	-1E+10	1	-1E+10	1	-1E+10	1
4901784	70	C	06/04/2017	10:42	-132.443	43.588	0	1890.70	0	2.0110	0	34.6540	4	27.704	0	1867.151	0	52.7	4	15.9	4	-1E+10	1	-1E+10	1	-1E+10	1	-1E+10	1	-1E+10	1	-1E+10	1
4901784	70	C	06/04/2017	10:42	-132.443	43.588	0	1895.60	0	2.0050	0	34.6550	4	27.705	0	1871.968	0	53.0	4	16.0	4	-1E+10	1	-1E+10	1	-1E+10	1	-1E+10	1	-1E+10	1	-1E+10	1
4901784	70	C	06/04/2017	10:42	-132.443	43.588	0	1900.50	0	2.0050	0	34.6550	4	27.705	0	1876.786	0	53.2	4	16.1	4	-1E+10	1	-1E+10	1	-1E+10	1	-1E+10	1	-1E+10	1	-1E+10	1
4901784	70	C	06/04/2017	10:42	-132.443	43.588	0	1905.50	0	1.9990	0	34.6560	4	27.706	0	1881.701	0	53.6	4	16.2	4	-1E+10	1	-1E+10	1	-1E+10	1	-1E+10	1	-1E+10	1	-1E+10	1
4901784	70	C	06/04/2017	10:42	-132.443	43.588	0	1910.60	0	1.9930	0	34.6570	4	27.708	0	1886.715	0	53.9	4	16.2	4	-1E+10	1	-1E+10	1	-1E+10	1	-1E+10	1	-1E+10	1	-1E+10	1
4901784	70	C	06/04/2017	10:42	-132.443	43.588	0	1915.60	0	1.9920	0	34.6580	4	27.708	0	1891.630	0	54.1	4	16.3	4	-1E+10	1	-1E+10	1	-1E+10	1	-1E+10	1	-1E+10	1	-1E+10	1
4901784	70	C	06/04/2017	10:42	-132.443	43.588	0	1920.70	0	1.9870	0	34.6580	4	27.709	0	1896.644	0	54.5	4	16.4	4	-1E+10	1	-1E+10	1	-1E+10	1	-1E+10	1	-1E+10	1	-1E+10	1
4901784	70	C	06/04/2017	10:42	-132.443	43.588	0	1925.70	0	1.9800	0	34.6600	4	27.711	0	1901.559	0	54.9	4	16.6	4	-1E+10	1	-1E+10	1	-1E+10	1	-1E+10	1	-1E+10	1	-1E+10	1
4901784	70	C	06/04/2017	10:42	-132.443	43.588	0	1929.90	0	1.9790	0	34.6600	4	27.711	0	1905.687	0	55.1	4	16.6	4	-1E+10	1	-1E+10	1	-1E+10	1	-1E+10	1	-1E+10	1	-1E+10	1
4901784	70	C	06/04/2017	10:42	-132.443	43.588	0	1934.20	0	1.9750	0	34.6600	4	27.712	0	1909.914	0	55.5	4	16.7	4	-1E+10	1	-1E+10	1	-1E+10	1	-1E+10	1	-1E+10	1	-1E+10	1
4901784	70	C	06/04/2017	10:42	-132.443	43.588	0	1939.30	0	1.9670	0	34.6620	4	27.714	0	1914.927	0	56.0	4	16.9	4	-1E+10	1	-1E+10	1	-1E+10	1	-1E+10	1	-1E+10	1	-1E+10	1
4901784	70	C	06/04/2017	10:42	-132.443	43.588	0	1944.40	0	1.9620	0	34.6630	4	27.715	0	1919.940	0	56.5	4	17.0	4	-1E+10	1	-1E+10	1	-1E+10	1	-1E+10	1	-1E+10	1	-1E+10	1
4901784	70	C	06/04/2017	10:42	-132.443	43.588	0	1949.60	0	1.9570	0	34.6640	4	27.716	0	1925.051	0	56.8	4	17.1	4	-1E+10	1	-1E+10	1	-1E+10	1	-1E+10	1	-1E+10	1	-1E+10	1
4901784	70	C	06/04/2017	10:42	-132.443	43.588	0	1954.80	0	1.9530	0	34.6640	4	27.717	0	1930.162	0	57.1	4	17.2	4	-1E+10	1	-1E+10	1	-1E+10	1	-1E+10	1	-1E+10	1	-1E+10	1
4901784	70	C	06/04/2017	10:42	-132.443	43.588	0	1960.00	0	1.9470	0	34.6660	4	27.719	0	1935.273	0	57.4	4	17.3	4	-1E+10	1	-1E+10	1	-1E+10	1	-1E+10	1	-1E+10	1	-1E+10	1
4901784	70	C	06/04/2017	10:42	-132.443	43.588	0	1965.20	0	1.9430	0	34.6660	4	27.719	0	1940.384	0	57.8	4	17.4	4	-1E+10	1	-1E+10	1	-1E+10	1	-1E+10	1	-1E+10	1	-1E+10	1
4901784	70	C	06/04/2017	10:42	-132.443	43.588	0	1970.50	0	1.9380	0	34.6670	4	27.720	0	1945.593	0	58.1	4	17.5	4	-1E+10	1	-1E+10	1	-1E+10	1	-1E+10	1	-1E+10	1	-1E+10	1
4901784	70	C	06/04/2017	10:42	-132.443	43.588	0	1975.70	0	1.9330	0	34.6670	4	27.721	0	1950.703	0	58.5	4	17.6	4	-1E+10	1	-1E+10	1	-1E+10	1	-1E+10	1	-1E+10	1	-1E+10	1
4901784	70	C	06/04/2017	10:42	-132.443	43.588	0	1980.10	0	1.9310	0	34.6680	4	27.722	0	1955.027	0	58.7	4	17.7	4	-1E+10	1	-1E+10	1	-1E+10	1	-1E+10	1	-1E+10	1	-1E+10	1
4901784	70	C	06/04/2017	10:42	-132.443	43.588	0	1984.50	0	1.9280	0	34.6680	4	27.722	0	1959.351	0	59.0	4	17.8	4	-1E+10	1	-1E+10	1	-1E+10	1	-1E+10	1	-1E+10	1	-1E+10	1
4901784	70	C	06/04/2017	10:42	-132.443	43.588	0	1989.80	0	1.9240	0	34.6690	4	27.723	0	1964.560	0	59.3	4	17.9	4	-1E+10	1	-1E+10	1	-1E+10	1	-1E+10	1	-1E+10	1	-1E+10	1
4901784	70	C	06/04/2017	10:42	-132.443	43.588	0	1995.20	0	1.9180	0	34.6710	4	27.725	0	1969.866	0	59.6	4	17.9	4	-1E+10	1	-1E+10	1	-1E+10	1	-1E+10	1	-1E+10	1	-1E+10	1
4901784	70	C	06/04/2017	10:42	-132.443	43.588	0	2000.50	0	1.9170	0	34.6710	4	27.725	0	1975.074	0	59.7	4	18.0	4	-1E+10	1	-1E+10	1	-1E+10	1	-1E+10	1	-1E+10	1	-1E+10	1
4901784	70	C	06/04/2017	10:42	-132.443	43.588	0	2005.00	0	1.9170	0	34.6710	4	27.725	0	1979.496	0	59.7	4	18.0	4	-1E+10	1	-1E+10	1	-1E+10	1	-1E+10	1	-1E+10	1	-1E+10	1
4901784	70	C	06/04/2017	10:42	-132.443	43.588	0	2010.10	0	1.9170	0	34.6710	4	27.725	0	1984.508	0	59.8	4	18.0	4	-1E+10	1	-1E+10	1	-1E+10	1	-1E+10	1	-1E+10	1	-1E+10	1
4901784	70	C	06/04/2017	10:42	-132.443	43.588	0	2015.30	0	1.9160	0	34.6710	4	27.725	0	1989.617	0	59.9	4	18.0	4	-1E+10	1	-1E+10	1	-1E+10	1	-1E+10	1	-1E+10	1	-1E+10	1
4901784	70	C	06/04/2017	10:42	-132.443	43.588	0	2020.50	0	1.9140	0	34.6710	4	27.725	0	1994.727	0	60.2	4	18.1	4	-1E+10	1	-1E+10	1	-1E+10	1	-1E+10	1	-1E+10	1	-1E+10	1
4901784	70	C	06/04/2017	10:42	-132.443	43.588	0																										
4901784	72	C	06/24/2017	10:49	-132.632	43.497	0	3.00	0	13.8360	0	32.8100	4	24.530	0	2.976	0	256.2	4	99.5	4	-1E+10	1	-1E+10	1	-1E+10	1	-1E+10	1	-1E+10	1	-1E+10	1
4901784	72	C	06/24/2017	10:49	-132.632	43.497	0	4.40	0	13.8380	0	32.8090	4	24.528	0	4.365	0	256.0	4	99.4	4	-1E+10	1	-1E+10	1	-1E+10	1	-1E+10	1	-1E+10	1	-1E+10	1
4901784	72	C	06/24/2017	10:49	-132.632	43.497	0	5.90	0	13.8350	0	32.8100	4	24.530	0	5.853	0	256.1	4	99.5	4	-1E+10	1	-1E+10	1	-1E+10	1	-1E+10	1	-1E+10	1	-1E+10	1
4901784	72	C	06/24/2017	10:49	-132.632	43.497	0	7.60	0	13.8370	0	32.8090	4	24.529	0	7.539	0	256.1	4	99.5	4	-1E+10	1	-1E+10	1	-1E+10	1	-1E+10	1	-1E+10	1	-1E+10	1
4901784	72	C	06/24/2017	10:49	-132.632	43.497	0	9.50	0	13.8390	0	32.8070	4	24.527	0	9.424	0	256.0	4	99.4	4	-1E+10	1	-1E+10	1	-1E+10	1	-1E+10	1	-1E+10	1	-1E+10	1
4901784	72	C	06/24/2017	10:49	-132.632	43.497	0	11.40	0	13.8390	0	32.8050	4	24.525	0	11.309	0	256.5	4	99.6	4	-1E+10	1	-1E+10	1	-1E+10	1	-1E+10	1	-1E+10	1	-1E+10	1
4901784	72	C	06/24/2017	10:49	-132.632	43.497	0	13.30	0	13.8380	0	32.8030	4	24.524	0	13.193	0	256.8	4	99.8	4	-1E+10	1	-1E+10	1	-1E+10	1	-1E+10	1	-1E+10	1	-1E+10	1
4901784	72	C	06/24/2017	10:49	-132.632	43.497	0	15.30	0	13.8400	0	32.7990	4	24.521	0	15.177	0	257.6	4	100.1	4	-1E+10	1	-1E+10	1	-1E+10	1	-1E+10	1	-1E+10	1	-1E+10	1
4901784	72	C	06/24/2017	10:49	-132.632	43.497	0	17.10	0	13.8370	0	32.7890	4	24.514	0	16.963	0	258.7	4	100.4	4	-1E+10	1	-1E+10	1	-1E+10	1	-1E+10	1	-1E+10	1	-1E+10	1
4901784	72	C	06/24/2017	10:49	-132.632	43.497	0	19.00	0	13.6180	0	32.7890	4	24.558	0	18.848	0	261.0	4	100.9	4	-1E+10	1	-1E+10	1	-1E+10	1	-1E+10	1	-1E+10	1	-1E+10	1
4901784	72	C	06/24/2017	10:49	-132.632	43.497	0	20.80	0	13.0220	0	32.7990	4	24.685	0	20.633	0	265.1	4	101.3	4	-1E+10	1	-1E+10	1	-1E+10	1	-1E+10	1	-1E+10	1	-1E+10	1
4901784	72	C	06/24/2017	10:49	-132.632	43.497	0	23.00	0	12.9070	0	32.8080	4	24.715	0	22.815	0	266.1	4	101.4	4	-1E+10	1	-1E+10	1	-1E+10	1	-1E+10	1	-1E+10	1	-1E+10	1
4901784	72	C	06/24/2017	10:49	-132.632	43.497	0	23.50	0	12.8760	0	32.8040	4	24.718	0	23.311	0	266.7	4	101.6	4	-1E+10	1	-1E+10	1	-1E+10	1	-1E+10	1	-1E+10	1	-1E+10	1
4901784	72	C	06/24/2017	10:49	-132.632	43.497	0	25.00	0	12.6930	0	32.7910	4	24.743	0	24.799	0	268.1	4	101.7	4	-1E+10	1	-1E+10	1	-1E+10	1	-1E+10	1	-1E+10	1	-1E+10	1
4901784	72	C	06/24/2017	10:49	-132.632	43.497	0	26.60	0	12.3390	0	32.8180	4	24.832	0	26.386	0	270.2	4	101.8	4	-1E+10	1	-1E+10	1	-1E+10	1	-1E+10	1	-1E+10	1	-1E+10	1
4901784	72	C	06/24/2017	10:49	-132.632	43.497	0	28.10	0	12.1520	0	32.8220	4	24.871	0	27.874	0	272.1	4	102.1	4	-1E+10	1	-1E+10	1	-1E+10	1	-1E+10	1	-1E+10	1	-1E+10	1
4901784	72	C	06/24/2017	10:49	-132.632	43.497	0	29.70	0	11.6190	0	32.8370	4	24.981	0	29.461	0	274.5	4	101.9	4	-1E+10	1	-1E+10	1	-1E+10	1	-1E+10	1	-1E+10	1	-1E+10	1
4901784	72	C	06/24/2017	10:49	-132.632	43.497	0	31.40	0	11.2240	0	32.8150	4	25.036	0	31.147	0	278.0	4	102.3	4	-1E+10	1	-1E+10	1	-1E+10	1	-1E+10	1	-1E+10	1	-1E+10	1
4901784	72	C	06/24/2017	10:49	-132.632	43.497	0	33.00	0	11.1950	0	32.8100	4	25.037	0	32.734	0	278.0	4	102.2	4	-1E+10	1	-1E+10	1	-1E+10	1	-1E+10	1	-1E+10	1	-1E+10	1
4901784	72	C	06/24/2017	10:49	-132.632	43.497	0	34.50	0	11.1550	0	32.8070	4	25.042	0	34.222	0	277.8	4	102.1	4	-1E+10	1	-1E+10	1	-1E+10	1	-1E+10	1	-1E+10	1	-1E+10	1
4901784	72	C	06/24/2017	10:49	-132.632	43.497	0	36.20	0	11.1230	0	32.7980	4	25.041	0	35.908	0	277.1	4	101.7	4	-1E+10	1	-1E+10	1	-1E+10	1	-1E+10	1	-1E+10	1	-1E+10	1
4901784	72	C	06/24/2017	10:49	-132.632	43.497	0	37.70	0	10.9120	0	32.8040	4	25.083	0	37.396	0	276.9	4	101.2	4	-1E+10	1	-1E+10	1	-1E+10	1	-1E+10	1	-1E+10	1	-1E+10	1
4901784	72	C	06/24/2017	10:49	-132.632	43.497	0	39.40	0	10.5980	0	32.8030	4	25.137	0	39.082	0	277.2	4	100.7	4	-1E+10	1	-1E+10	1	-1E+10	1	-1E+10	1	-1E+10	1	-1E+10	1
4901784	72	C	06/24/2017	10:49	-132.632	43.497	0	41.00	0	10.2530	0	32.8180	4	25.207	0	40.669	0	277.4	4	100.0	4	-1E+10	1	-1E+10	1	-1E+10	1	-1E+10	1	-1E+10	1	-1E+10	1
4901784	72	C	06/24/2017	10:49	-132.632	43.497	0	42.70	0	10.1340	0	32.8210	4	25.230	0	42.355	0	276.6	4	99.4	4	-1E+10	1	-1E+10	1	-1E+10	1	-1E+10	1	-1E+10	1	-1E+10	1
4901784	72	C	06/24/2017	10:49	-132.632	43.497	0	44.30	0	10.0520	0	32.8230	4	25.245	0	43.942	0	275.0	4	98.7	4	-1E+10	1	-1E+10	1	-1E+10	1	-1E+10	1	-1E+10	1	-1E+10	1
4901784	72	C	06/24/2017	10:49	-132.632	43.497	0	46.00	0	9.8360	0	32.8410	4	25.295	0	45.628	0	274.0	4	97.9	4	-1E+10	1	-1E+10	1	-1E+10	1	-1E+10	1	-1E+10	1	-1E+10	1
4901784	72	C	06/24/2017	10:49	-132.632	43.497	0	47.80	0	9.6160	0	32.8630	4	25.348	0	47.413	0	274.2	4	97.5	4	-1E+10	1	-1E+10	1	-1E+10	1	-1E+10	1	-1E+10	1	-1E+10	1
4901784	72	C	06/24/2017	10:49	-132.632	43.497	0	49.50	0	9.5480	0	32.8720	4	25.366	0	49.099	0	273.7	4	97.2	4	-1E+10	1	-1E+10	1	-1E+10	1	-1E+10	1	-1E+10	1	-1E+10	1
4901784	72	C	06/24/2017	10:49	-132.632	43.497	0	51.30	0	9.4940	0	32.8750	4	25.377	0	50.884	0	272.6	4	96.7	4	-1E+10	1	-1E+10	1	-1E+10	1	-1E+10	1	-1E+10	1	-1E+10	1
4901784	72	C	06/24/2017	10:49	-132.632	43.497	0	53.10	0	9.4320	0	32.8880	4	25.397	0	52.669	0	271.2	4	96.1	4	-1E+10	1	-1E+10	1	-1E+10	1	-1E+10	1	-1E+10	1	-1E+10	1
4901784	72	C	06/24/2017	10:49	-132.632	43.497	0	54.90	0	9.3200	0	32.8960	4	25.422	0	54.455	0	270.3	4	95.5	4	-1E+10	1	-1E+10	1	-1E+10	1	-1E+10	1	-1E+10	1	-1E+10	1
4901784	72	C	06/24/2017	10:49	-132.632	43.497	0	56.80	0	9.1430	0	32.8930	4	25.447	0	56.339	0	270.6	4	95.2	4	-1E+10	1	-1E+10	1	-1E+10	1	-1E+10	1	-1E+10	1	-1E+10	1
4901784	72	C	06/24/2017	10:49	-132.632	43.497	0	58.70	0	9.0760	0	32.8930	4	25.458	0	58.223	0	270.7	4	95.2	4	-1E+10	1	-1E+10	1	-1E+10	1	-1E+10	1	-1E+10	1	-1E+10	1
4901784	72	C	06/24/2017	10:49	-132.632	43.497	0	60.50	0	9.0040	0	32.9130	4	25.485	0	60.008	0	271.2	4	95.2	4	-1E+10	1	-1E+10	1	-1E+10	1	-1E+10	1	-1E+10	1	-1E+10	1
4901784	72	C	06/24/2017	10:49	-132.632	43.497	0	62.30	0	8.9310	0	32.9240	4	25.505	0	61.794	0	271.6	4	95.2	4	-1E+10	1	-1E+10	1	-1E+10	1	-1E+10	1	-1E+10	1	-1E+10	1
4901784	72	C	06/24/2017	10:49	-132.632	43.497	0	64.40	0	8.9680	0	32.9440	4	25.515	0	63.876	0	271.3	4	95.2	4	-1E+10	1	-1E+10	1	-1E+10	1	-1E+10	1	-1E+10	1	-1E+10	1
4901784	72	C	06/24/2017	10:49	-132.632	43.497	0	64.90	0	8.9610	0	32.9460	4	25.517	0	64.372	0	271.0	4	95.1	4	-1E+10	1	-1E+10	1	-1E+10	1	-1E+10	1	-1E+10	1	-1E+10	1
4901784	72	C	06/24/2017	10:49	-132.632	43.497	0	66.60	0	8.8840	0	32.9500	4	25.533	0	66.058	0	270.5	4	94.7	4	-1E+10	1	-1E+10	1	-1E+10	1	-1E+10	1	-1E+10	1	-1E+10	1
4901784	72	C	06/24/2017	10:49	-132.632	43.497	0	68.20	0	8.7520	0	32.9460	4	25.550	0	67.645	0	271.3	4	94.7	4	-1E+10	1	-1E+10	1	-1E+10	1	-1E+10	1	-1E+10	1	-1E+10	1
4901784	72	C	06/24/2017	10:49	-132.632	43.497	0	69.80	0	8.7410	0	32.9450	4	25.551	0	69.231	0	271.1	4	94.6	4	-1E+10	1	-1E+10	1	-1E+10	1	-1E+10	1	-1E+10	1	-1E+10	1
4901784	72	C	06/24/2017	10:49	-132.632	43.497	0	71.40	0	8.7500	0	32.9450	4	25.549	0	70.818	0	270.8	4	94.6	4	-1E+10	1	-1E+10	1	-1E+10	1	-1E+10	1	-1E+10	1	-1E+10	1
4901784	72	C	06/24/2017	10:49	-132.632	43.497	0	73.00	0	8.7380	0	32.9440	4	25.551	0	72.405	0	270.6	4	94.4	4	-1E+10	1	-1E+10	1	-1E+10	1	-1E+10	1	-1E+10	1	-1E+10	1
4901784	72	C	06/24/2017	10:49	-132.632	43.497	0	74.70	0	8.7330	0	32.9460	4	25.553	0	74.090	0	270.1	4	94.3	4	-1E+10	1	-1E+10	1	-1E+10	1	-1E+10	1	-1E+10	1	-1E+10	1
4901784	72	C	06/24/2017	10:49	-132.632	43.497	0	76.40	0	8.7270	0	32.9490	4	25.556	0	75.776	0	269.7	4	94.1	4	-1E+10	1	-1E+10	1	-1E+10	1	-1E+10	1	-1E+10	1	-1E+10	1
4901784	72	C	06/24/2017	10:49	-132.632	43.497	0	77.90	0	8.7350	0	32.9530	4	25.558	0	77.264	0	269.1	4	93.9	4	-1E+10	1	-1E+10	1	-1E+10	1	-1E+10	1	-1E+10	1	-1E+10	1
4901784	72	C	06/24/2017	10:49	-132.632	43.497	0	79.50	0	8.7220	0	32.9570	4	25.563	0	78.850	0	268.5	4	93.7	4	-1E+10	1	-1E+10	1	-1E+10	1	-1E+10	1	-1E+10	1	-1E+10	1
4901784	72	C	06/24/2017	10:49	-132.632	43.497	0	81.10	0	8.6950	0	32.9620	4	25.571	0	80.437	0	267.9	4	93.4	4	-1E+10	1	-1E+10	1	-1E+10	1	-1E+10	1	-1E+10	1	-1E+10	1
4901784	72	C	06/24/2017	10:49	-132.632	43.497	0	82.60	0	8.6430	0	32.9640	4	25.581	0	81.924	0	267.5	4	93.2	4	-1E+10	1	-1E+10	1	-1E+10	1	-1E+10	1	-1E+10	1	-1E+10	1
4901784	72	C	06/24/2017	10:49	-132.632	43.497	0	84.30	0	8.6410	0	32.9690	4	25.585	0	83.610	0	266.8	4	93.0	4	-1E+10	1	-1E+10	1	-1E+10	1	-1E+10	1	-1E+10	1	-1E+10	1
4901784	72	C	06/24/2017	10:49	-132.632	43.497	0	86.00	0	8.6450	0	32.9700	4	25.585	0	85.296	0	266.1	4	92.7	4	-1E+10	1	-1E+10	1	-1E+10	1	-1E+10	1	-1E+10	1	-1E+10	1
4901784	72	C	06/24/2017	10:49	-132.632	43.497	0	87.60	0	8.6340	0	32.9790	4	25.594	0	86.883	0	265.4	4	92.4	4	-1E+10	1	-1E+10	1	-1E+10	1	-1E+10	1	-1E+10	1	-1E+10	1
4901784	72	C	06/24/2017	10:49	-132.632	43.497	0	89.30	0	8.6230	0	32.9790	4	25.596	0	88.568	0	264.4	4	92.1	4	-1E+10	1	-1E+10	1	-1E+10	1	-1E+10	1	-1E+10	1	-1E+10	1
4901784	72	C	06/24/2017	10:49	-132.632	43.497	0	91.10	0	8.5980	0	32.9820	4	25.602	0	90.353	0	263.1	4	91.6	4	-1E+10	1	-1E+10	1	-1E+10	1	-1E+10	1	-1E+10	1	-1E+10	1
4901784	72	C	06/24/2017	10:49	-132.632	43.497	0	92.70	0	8.5850	0	32.9850	4	25.606	0	91.940	0	261.4	4	91.0	4	-1E+10	1	-1E+10	1	-1E+10	1	-1E+10	1	-1E+10	1	-1E+10	1
4901784	72	C	06/24/2017	10:49	-132.632	43.497	0	94.40	0	8.5790	0	32.9930	4	25.613	0	93.625	0	259.2	4	90.2	4	-1E+10	1	-1E+10	1	-1E+10	1	-1E+10	1	-1E+10	1	-1E+10	1
4901784	72	C	06/24/2017	10:49	-132.632	43.497	0	96.00	0	8.5760	0	33.0020	4	25.621	0	95.212	0	256.3	4	89.2	4	-1E+10	1	-1E+10	1	-1E+10	1	-1E+10	1	-1E+10	1	-1E+10	1
4901784	72	C	06/24/2017	10:49	-132.632	43.497	0	97.60	0	8.5970	0	33.0260	4	25.637	0	96.798	0	252.6	4	87.9	4	-1E+10	1	-1E+10	1	-1E+10	1	-1E+10	1	-1E+10	1	-1E+10	1
4901784	72	C	06/24/2017	10:49	-132.632	43.497	0	99.30	0	8.6180	0	33.0600	4	25.660	0	98.484	0	248.8	4	86.7	4	-1E+10	1	-1E+10	1	-1E+10	1	-1E+10	1	-1E+10	1	-1E+10	1
4901784	72	C	06/24/2017	10:49	-132.632	43.497	0	102.60	0	8.6420	0	33.1030	4	25.690	0	101.756	0	239.5	4	83.5	4	-1E+10	1	-1E+10	1	-1E+10	1	-1E+10	1	-1E+10	1	-1E+10	1
4901784	72	C	06/24/2017	10:49	-132.632	43.497	0	105.20	0	8.6330	0	33.1750	4	25.748	0	104.334	0	232.2	4	81.0	4	-1E+10	1	-1E+10	1	-1E+10	1	-1E+10	1	-1E+10	1	-1E+10	1
4901784	72	C	06/24/2017	10:49	-132.632	43.497	0	107.80	0	8.6460	0	33.2200	4	25.781	0	106.912	0	225.2	4	78.6	4	-1E+10	1	-1E+10	1	-1E+10	1	-1E+10	1	-1E+10	1	-1E+10	1
4901784	72	C	06/24/2017	10:49	-132.632	43.497	0	109.60	0	8.6650	0	33.2870	4	25.831	0	108.697	0	219.8	4	76.8	4	-1E+10	1	-1E+10	1	-1E+10	1	-1E+10	1	-1E+10	1	-1E+10	1
4901784	72	C	06/24/2017	10:49	-132.632	43.497	0	112.40	0	8.6640	0	33.3740	4	25.899	0	111.473	0	214.7	4	75.1	4	-1E+10	1	-1E+10	1	-1E+10	1	-1E+10	1	-1E+10	1	-1E+10	1
4901784	72	C	06/24/2017	10:49	-132.632	43.497	0	115.20	0	8.6660	0	33.4020	4	25.921	0	114.249	0	212.0	4	74.1	4	-1E+10	1	-1E+10	1	-1E+10	1	-1E+10	1	-1E+10	1	-1E+10	1
4901784	72	C	06/24/2017	10:49	-132.632	43.497	0	117.00	0	8.6440	0	33.4050	4	25.927	0	116.033	0	209.8	4	73.3	4	-1E+10	1	-1E+10	1	-1E+10	1	-1E+10	1	-1E+10	1	-1E+10	1
4901784	72	C	06/24/2017	10:49	-132.632	43.497	0	119.80	0	8.6390	0	33.4600	4	25.971	0	118.810	0	204.5	4	71.5	4	-1E+10	1	-1E+10	1	-1E+10	1	-1E+10	1	-1E+10	1	-1E+10	1
4901784	72	C	06/24/2017	10:49	-132.632	43.497	0	122.50	0	8.6400	0	33.5930	4	26.075	0	121.486	0	200.3	4	70.1	4	-1E+10	1	-1E+10	1	-1E+10	1	-1E+10	1	-1E+10	1	-1E+10	1
4901784	72	C	06/24/2017	10:49	-132.632	43.497	0	124.40	0	8.6380	0	33.6120	4	26.090	0	123.370	0	198.8	4	69.6	4	-1E+10	1	-1E+10	1	-1E+10	1	-1E+10	1	-1E+10	1	-1E+10	1
4901784	72	C	06/24/2017	10:49	-132.632	43.497	0	127.40	0	8.6350	0	33.6420	4	26.114	0	126.344	0	196.4	4	68.8	4	-1E+10	1	-1E+10	1	-1E+10	1	-1E+10	1	-1E+10	1	-1E+10	1
4901784	72	C	06/24/2017	10:49	-132.632	43.497	0	130.20	0	8.6340	0	33.6780	4	26.142	0	129.120	0	193.9	4	67.9	4	-1E+10	1	-1E+10	1	-1E+10	1	-1E+10	1	-1E+10	1	-1E+10	1
4901784	72	C	06/24/2017	10:49	-132.632	43.497	0	132.60	0	8.6370	0	33.7020	4	26.161	0	131.500	0	191.8	4	67.2	4	-1E+10	1	-1E+10	1	-1E+10	1	-1E+10	1	-1E+10	1	-1E+10	1
4901784	72	C	06/24/2017	10:49	-132.632	43.497	0	135.10	0	8.6290	0	33.7350	4	26.188	0	133.978	0	190.1	4	66.6	4	-1E+10	1	-1E+10	1	-1E+10	1	-1E+10	1	-1E+10	1	-1E+10	1
4901784	72	C	06/24/2017	10:49	-132.632	43.497	0	137.60	0	8.6210	0	33.7670	4	26.214	0	136.456	0	188.6	4	66.0	4	-1E+10	1	-1E+10	1	-1E+10	1	-1E+10	1	-1E+10	1	-1E+10	1
4901784	72	C	06/24/2017	10:49	-132.632	43.497	0	140.00	0	8.6090	0	33.7870	4	26.232	0	138.836	0	187.7	4	65.7	4	-1E+10	1	-1E+10	1	-1E+10	1	-1E+10	1	-1E+10	1	-1E+10	1
4901784	72	C	06/24/2017	10:49	-132.632	43.497	0	142.50	0	8.6030	0	33.7960	4	26.240	0	141.314	0	186.5	4	65.3	4	-1E+10	1	-1E+10	1	-1E+10	1	-1E+10	1	-1E+10	1	-1E+10	1
4901784	72	C	06/24/2017	10:49	-132.632	43.497	0	144.80	0	8.5970	0	33.8040	4	26.247	0	143.594	0	185.1	4	64.8	4	-1E+10	1	-1E+10	1	-1E+10	1	-1E+10	1	-1E+10	1	-1E+10	1
4901784	72	C	06/24/2017	10:49	-132.632	43.497	0	147.30	0	8.5820	0	33.8210	4	26.263	0	146.072	0	183.1	4	64.1	4	-1E+10	1	-1E+10	1	-1E+10	1	-1E+10	1	-1E+10	1	-1E+10	1
4901784	72	C	06/24/2017	10:49	-132.632	43.497	0	149.80	0	8.5250	0	33.8760	4	26.315	0	148.551	0	180.9	4	63.3	4	-1E+10	1	-1E+10	1	-1E+10	1	-1E+10	1	-1E+10	1	-1E+10	1
4901784	72	C	06/24/2017	10:49	-132.632	43.497	0	152.30	0	8.4550	0	33.9170	4	26.358	0	151.029	0	179.9	4	62.9	4	-1E+10	1	-1E+10	1	-1E+10	1	-1E+10	1	-1E+10	1	-1E+10	1
4901784	72	C	06/24/2017	10:49	-132.632	43.497	0	154.80	0	8.4100	0	33.9330	4	26.377	0	153.507	0	179.3	4	62.6	4	-1E+10	1	-1E+10	1	-1E+10	1	-1E+10	1	-1E+10	1	-1E+10	1
4901784	72	C	06/24/2017	10:49	-132.632	43.497	0	157.40	0	8.3780	0	33.9430	4	26.390	0	156.084	0	178.7	4	62.3	4	-1E+10	1	-1E+10	1	-1E+10	1	-1E+10	1	-1E+10	1	-1E+10	1
4901784	72	C	06/24/2017	10:49	-132.632	43.497	0	160.00	0	8.3610	0	33.9480	4	26.396	0	158.662	0	178.3	4	62.2	4	-1E+10	1	-1E+10	1	-1E+10	1	-1E+10	1	-1E+10	1	-1E+10	1
4901784	72	C	06/24/2017	10:49	-132.632	43.497	0	162.60	0	8.3520	0	33.9500	4	26.399	0	161.239	0	177.5	4	61.9	4	-1E+10	1	-1E+10	1	-1E+10	1	-1E+10	1	-1E+10	1	-1E+10	1
4901784	72	C	06/24/2017	10:49	-132.632	43.497	0	165.30	0	8.3390	0	33.9520	4	26.403	0	163.915	0	176.5	4	61.5	4	-1E+10	1	-1E+10	1	-1E+10	1	-1E+10	1	-1E+10	1	-1E+10	1
4901784	72	C	06/24/2017	10:49	-132.632	43.497	0	167.00	0	8.3310	0	33.9520	4	26.404	0	165.600	0	175.6	4	61.2	4	-1E+10	1	-1E+10	1	-1E+10	1	-1E+10	1	-1E+10	1	-1E+10	1
4901784	72	C	06/24/2017	10:49	-132.632	43.497	0	169.70	0	8.2960	0	33.9570	4	26.413	0	168.277	0	173.7	4	60.5	4	-1E+10	1	-1E+10	1	-1E+10	1	-1E+10	1	-1E+10	1	-1E+10	1
4901784	72	C	06/24/2017	10:49	-132.632	43.497	0	172.50	0	8.2150	0	33.9670	4	26.433	0	171.052	0	171.6	4	59.7	4	-1E+10	1	-1E+10	1	-1E+10	1	-1E+10	1	-1E+10	1	-1E+10	1
4901784	72	C	06/24/2017	10:49	-132.632	43.497	0	175.20	0	8.1040	0	33.9730	4	26.455	0	173.728	0	170.5	4	59.1	4	-1E+10	1	-1E+10	1	-1E+10	1	-1E+10	1	-1E+10	1	-1E+10	1
4901784	72	C	06/24/2017	10:49	-132.632	43.497	0	177.90	0	8.0420	0	33.9780	4	26.468	0	176.404	0	169.3	4	58.6	4	-1E+10	1	-1E+10	1	-1E+10	1	-1E+10	1	-1E+10	1	-1E+10	1
4901784	72	C	06/24/2017	10:49	-132.632	43.497	0	179.70	0	8.0040	0	33.9770	4	26.473	0	178.188	0	168.8	4	58.4	4	-1E+10	1	-1E+10	1	-1E+10	1	-1E+10	1	-1E+10	1	-1E+10	1
4901784	72	C	06/24/2017	10:49	-132.632	43.497	0	182.50	0	7.9860	0	33.9770	4	26.475	0	180.964	0	167.6	4	58.0	4	-1E+10	1	-1E+10	1	-1E+10	1	-1E+10	1	-1E+10	1	-1E+10	1
4901784	72	C	06/24/2017	10:49	-132.632	43.497	0	185.40	0	7.9680	0	33.9720	4	26.474	0	183.838	0	166.1	4	57.4	4	-1E+10	1	-1E+10	1	-1E+10	1	-1E+10	1	-1E+10	1	-1E+10	1
4901784	72	C	06/24/2017	10:49	-132.632	43.497	0	187.20	0	7.8450	0	33.9800	4	26.499	0	185.622	0	165.3	4	57.0	4	-1E+10	1	-1E+10	1	-1E+10	1	-1E+10	1	-1E+10	1	-1E+10	1
4901784	72	C	06/24/2017	10:49	-132.632	43.497	0	189.70	0	7.8090	0	33.9800	4	26.504	0	188.100	0	165.0	4	56.9	4	-1E+10	1	-1E+10	1	-1E+10	1	-1E+10	1	-1E+10	1	-1E+10	1
4901784	72	C	06/24/2017	10:49	-132.632	43.497	0	192.40	0	7.7730	0	33.9830	4	26.511	0	190.776	0	164.7	4	56.7	4	-1E+10	1	-1E+10	1	-1E+10	1	-1E+10	1	-1E+10	1	-1E+10	1
4901784	72	C	06/24/2017	10:49	-132.632	43.497	0	194.80	0	7.7680	0	33.9830	4	26.512	0	193.154	0	164.1	4	56.5	4	-1E+10	1	-1E+10	1	-1E+10	1	-1E+10	1	-1E+10	1	-1E+10	1
4901784	72	C	06/24/2017	10:49	-132.632	43.497	0	197.20	0	7.7660	0	33.9820	4	26.512	0	195.533	0	163.3	4	56.2	4	-1E+10	1	-1E+10	1	-1E+10	1	-1E+10	1	-1E+10	1	-1E+10	1
4901784	72	C	06/24/2017	10:49	-132.632	43.497	0	199.60	0	7.7470	0	33.9830	4	26.515	0	197.912	0	162.1	4	55.8	4	-1E+10	1	-1E+10	1	-1E+10	1	-1E+10	1	-1E+10	1	-1E+10	1
4901784	72	C	06/24/2017	10:49	-132.632	43.497	0	202.10	0	7.6910	0	33.9810	4	26.522	0	200.389	0	160.7	4	55.2	4	-1E+10	1	-1E+10	1	-1E+10	1	-1E+10	1	-1E+10	1	-1E+10	1
4901784	72	C	06/24/2017	10:49	-132.632	43.497	0	204.70	0	7.6410	0	33.9800	4	26.528	0	202.966	0	159.6	4	54.8	4	-1E+10	1	-1E+10	1	-1E+10	1	-1E+10	1	-1E+10	1	-1E+10	1
4901784	72	C	06/24/2017	10:49	-132.632	43.497	0	207.20	0	7.5560	0	33.9840	4	26.544	0	205.443	0	158.7	4	54.4	4	-1E+10	1	-1E+10	1	-1E+10	1	-1E+10	1	-1E+10	1	-1E+10	1
4901784	72	C	06/24/2017	10:49	-132.632	43.497	0	209.80	0	7.5300	0	33.9830	4	26.547	0	208.020	0	158.0	4	54.1	4	-1E+10	1	-1E+10	1	-1E+10	1	-1E+10	1	-1E+10	1	-1E+10	1
4901784	72	C	06/24/2017	10:49	-132.632	43.497	0	212.40	0	7.4830	0	33.9840	4	26.554	0	210.597	0	157.3	4	53.8	4	-1E+10	1	-1E+10	1	-1E+10	1	-1E+10	1	-1E+10	1	-1E+10	1
4901784	72	C	06/24/2017	10:49	-132.632	43.497	0	215.00	0	7.4550	0	33.9850	4	26.559	0	213.173	0	156.8	4	53.6	4	-1E+10	1	-1E+10	1	-1E+10	1	-1E+10	1	-1E+10	1	-1E+10	1
4901784	72	C	06/24/2017	10:49	-132.632	43.497	0	217.60	0	7.4190	0	33.9860	4	26.565	0	215.750	0	155.8	4	53.2	4	-1E+10	1	-1E+10	1	-1E+10	1	-1E+10	1	-1E+10	1	-1E+10	1
4901784	72	C	06/24/2017	10:49	-132.632	43.497	0	220.20	0	7.3460	0	33.9880	4	26.577	0	218.326	0	154.7	4	52.8	4	-1E+10	1	-1E+10	1	-1E+10	1	-1E+10	1	-1E+10	1	-1E+10	1
4901784	72	C	06/24/2017	10:49	-132.632	43.497	0	222.70	0	7.3310	0	33.9880	4	26.579	0	220.804	0	153.8	4	52.4	4	-1E+10	1	-1E+10	1	-1E+10	1	-1E+10	1	-1E+10	1	-1E+10	1
4901784	72	C	06/24/2017	10:49	-132.632	43.497	0	225.30	0	7.2980	0	33.9860	4	26.582	0	223.380	0	152.4	4	51.9	4	-1E+10	1	-1E+10	1	-1E+10	1	-1E+10	1	-1E+10	1	-1E+10	1
4901784	72	C	06/24/2017	10:49	-132.632	43.497	0	227.00	0	7.2550	0	33.9870	4	26.589	0	225.065	0	151.7	4	51.6	4	-1E+10	1	-1E+10	1	-1E+10	1	-1E+10	1	-1E+10	1	-1E+10	1
4901784	72	C	06/24/2017	10:49	-132.632	43.497	0	229.60	0	7.2250	0	33.9860	4	26.592	0	227.641	0	150.7	4	51.2	4	-1E+10	1	-1E+10	1	-1E+10	1	-1E+10	1	-1E+10	1	-1E+10	1
4901784	72	C	06/24/2017	10:49	-132.632	43.497	0	232.20	0	7.1880	0	33.9850	4	26.597	0	230.218	0	149.6	4	50.8	4	-1E+10	1	-1E+10	1	-1E+10	1	-1E+10	1	-1E+10	1	-1E+10	1
4901784	72	C	06/24/2017	10:49	-132.632	43.497	0	234.80	0	7.1510	0	33.9840	4	26.601	0	232.794	0	148.4	4	50.4	4	-1E+10	1	-1E+10	1	-1E+10	1	-1E+10	1	-1E+10	1	-1E+10	1
4901784	72	C	06/24/2017	10:49	-132.632	43.497	0	237.30	0	7.1170	0	33.9840	4	26.606	0	235.271	0	147.1	4	49.9	4	-1E+10	1	-1E+10	1	-1E+10	1	-1E+10	1	-1E+10	1	-1E+10	1
4901784	72	C	06/24/2017	10:49	-132.632	43.497	0	239.90	0	7.0710	0	33.9830	4	26.611	0	237.847	0	145.6	4	49.3	4	-1E+10	1	-1E+10	1	-1E+10	1	-1E+10	1	-1E+10	1	-1E+10	1
4901784	72	C	06/24/2017	10:49	-132.632	43.497	0	242.50	0	6.9920	0	33.9840	4	26.623	0	240.424	0	144.4	4	48.8	4	-1E+10	1	-1E+10	1	-1E+10	1	-1E+10	1	-1E+10	1	-1E+10	1
4901784	72	C	06/24/2017	10:49	-132.632	43.497	0	245.20	0	6.9500	0	33.9820	4	26.627	0	243.099	0	143.0	4	48.3	4	-1E+10	1	-1E+10	1	-1E+10	1	-1E+10	1	-1E+10	1	-1E+10	1
4901784	72	C	06/24/2017	10:49	-132.632	43.497	0	247.90	0	6.8880	0	33.9830	4	26.636	0	245.774	0	141.6	4	47.8	4	-1E+10	1	-1E+10	1	-1E+10	1	-1E+10	1	-1E+10	1	-1E+10	1
4901784	72	C	06/24/2017	10:49	-132.632	43.497	0	249.60	0	6.8710	0	33.9820	4	26.638	0	247.459	0	140.9	4	47.5	4	-1E+10	1	-1E+10	1	-1E+10	1	-1E+10	1	-1E+10	1	-1E+10	1
4901784	72	C	06/24/2017	10:49	-132.632	43.497	0	252.30	0	6.8380	0	33.9820	4	26.642	0	250.134	0	139.5	4	47.0	4	-1E+10	1	-1E+10	1	-1E+10	1	-1E+10	1	-1E+10	1	-1E+10	1
4901784	72	C	06/24/2017	10:49	-132.632	43.497	0	254.90	0	6.7720	0	33.9830	4	26.652	0	252.710	0	138.4	4	46.6	4	-1E+10	1	-1E+10	1	-1E+10	1	-1E+10	1	-1E+10	1	-1E+10	1
4901784	72	C	06/24/2017	10:49	-132.632	43.497	0	257.50	0	6.7350	0	33.9820	4	26.656	0	255.286	0	137.7	4	46.3	4	-1E+10	1	-1E+10	1	-1E+10	1	-1E+10	1	-1E+10	1	-1E+10	1
4901784	72	C	06/24/2017	10:49	-132.632	43.497	0	260.00	0	6.7000	0	33.9810	4	26.660	0	257.763	0	136.5	4	45.9	4	-1E+10	1	-1E+10	1	-1E+10	1	-1E+10	1	-1E+10	1	-1E+10	1
4901784	72	C	06/24/2017	10:49	-132.632	43.497	0	262.70	0	6.6580	0	33.9810	4	26.666	0	260.438	0	135.5	4	45.5	4	-1E+10	1	-1E+10	1	-1E+10	1	-1E+10	1	-1E+10	1	-1E+10	1
4901784	72	C	06/24/2017	10:49	-132.632	43.497	0	265.30	0	6.6350	0	33.9800	4	26.668	0	263.014	0	134.1	4	45.0	4	-1E+10	1	-1E+10	1	-1E+10	1	-1E+10	1	-1E+10	1	-1E+10	1
4901784	72	C	06/24/2017	10:49	-132.632	43.497	0	267.00	0	6.6170	0	33.9780	4	26.669	0	264.698	0	133.1	4	44.6	4	-1E+10	1	-1E+10	1	-1E+10	1	-1E+10	1	-1E+10	1	-1E+10	1
4901784	72	C	06/24/2017	10:49	-132.632	43.497	0	269.70	0	6.5330	0	33.9800	4	26.681	0	267.373	0	131.5	4	44.0	4	-1E+10	1	-1E+10	1	-1E+10	1	-1E+10	1	-1E+10	1	-1E+10	1
4901784	72	C	06/24/2017	10:49	-132.632	43.497	0	272.30	0	6.5090	0	33.9780	4	26.683	0	269.949	0	129.8	4	43.4	4	-1E+10	1	-1E+10	1	-1E+10	1	-1E+10	1	-1E+10	1	-1E+10	1
4901784	72	C	06/24/2017	10:49	-132.632	43.497	0	274.90	0	6.4230	0	33.9780	4	26.694	0	272.525	0	127.8	4	42.6	4	-1E+10	1	-1E+10	1	-1E+10	1	-1E+10	1	-1E+10	1	-1E+10	1
4901784	72	C	06/24/2017	10:49	-132.632	43.497	0	277.50	0	6.3260	0	33.9810	4	26.709	0	275.101	0	126.6	4	42.2	4	-1E+10	1	-1E+10	1	-1E+10	1	-1E+10	1	-1E+10	1	-1E+10	1
4901784	72	C	06/24/2017	10:49	-132.632	43.497	0	280.20	0	6.2960	0	33.9800	4	26.712	0	277.776	0	125.7	4	41.8	4	-1E+10	1	-1E+10	1	-1E+10	1	-1E+10	1	-1E+10	1	-1E+10	1
4901784	72	C	06/24/2017	10:49	-132.632	43.497	0	282.80	0	6.2870	0	33.9790	4	26.713	0	280.351	0	124.7	4	41.5	4	-1E+10	1	-1E+10	1	-1E+10	1	-1E+10	1	-1E+10	1	-1E+10	1
4901784	72	C	06/24/2017	10:49	-132.632	43.497	0	284.50	0	6.2770	0	33.9790	4	26.714	0	282.036	0	123.8	4	41.2	4	-1E+10	1	-1E+10	1	-1E+10	1	-1E+10	1	-1E+10	1	-1E+10	1
4901784	72	C	06/24/2017	10:49	-132.632	43.497	0	287.20	0	6.2560	0	33.9780	4	26.716	0	284.710	0	122.2	4	40.6	4	-1E+10	1	-1E+10	1	-1E+10	1	-1E+10	1	-1E+10	1	-1E+10	1
4901784	72	C	06/24/2017	10:49	-132.632	43.497	0	289.90	0	6.2120	0	33.9790	4	26.722	0	287.385	0	120.1	4	39.9	4	-1E+10	1	-1E+10	1	-1E+10	1	-1E+10	1	-1E+10	1	-1E+10	1
4901784	72	C	06/24/2017	10:49	-132.632	43.497	0	292.50	0	6.1310	0	33.9800	4	26.733	0	289.961	0	118.4	4	39.3	4	-1E+10	1	-1E+10	1	-1E+10	1	-1E+10	1	-1E+10	1	-1E+10	1
4901784	72	C	06/24/2017	10:49	-132.632	43.497	0	295.20	0	6.0910	0	33.9800	4	26.739	0	292.635	0	117.3	4	38.8	4	-1E+10	1	-1E+10	1	-1E+10	1	-1E+10	1	-1E+10	1	-1E+10	1
4901784	72	C	06/24/2017	10:49	-132.632	43.497	0	297.80	0	6.0620	0	33.9790	4	26.741	0	295.211	0	115.9	4	38.4	4	-1E+10	1	-1E+10	1	-1E+10	1	-1E+10	1	-1E+10	1	-1E+10	1
4901784	72	C	06/24/2017	10:49	-132.632	43.497	0	300.40	0	6.0220	0	33.9790	4	26.746	0	297.786	0	114.6	4	37.9	4	-1E+10	1	-1E+10	1	-1E+10	1	-1E+10	1	-1E+10	1	-1E+10	1
4901784	72	C	06/24/2017	10:49	-132.632	43.497	0	302.10	0	6.0100	0	33.9790	4	26.748	0	299.470	0	113.8	4	37.6	4	-1E+10	1	-1E+10	1	-1E+10	1	-1E+10	1	-1E+10	1	-1E+10	1
4901784	72	C	06/24/2017	10:49	-132.632	43.497	0	304.70	0	5.9680	0	33.9800	4	26.754	0	302.046	0	112.4	4	37.1	4	-1E+10	1	-1E+10	1	-1E+10	1	-1E+10	1	-1E+10	1	-1E+10	1
4901784	72	C	06/24/2017	10:49	-132.632	43.497	0	307.40	0	5.9170	0	33.9800	4	26.760	0	304.720	0	111.2	4	36.7	4	-1E+10	1	-1E+10	1	-1E+10	1	-1E+10	1	-1E+10	1	-1E+10	1
4901784	72	C	06/24/2017	10:49	-132.632	43.497	0	310.00	0	5.8920	0	33.9810	4	26.764	0	307.296	0	110.3	4	36.4	4	-1E+10	1	-1E+10	1	-1E+10	1	-1E+10	1	-1E+10	1	-1E+10	1
4901784	72	C	06/24/2017	10:49	-132.632	43.497	0	312.70	0	5.8780	0	33.9800	4	26.765	0	309.970	0	109.2	4	36.0	4	-1E+10	1	-1E+10	1	-1E+10	1	-1E+10	1	-1E+10	1	-1E+10	1
4901784	72	C	06/24/2017	10:49	-132.632	43.497	0	315.30	0	5.8560	0	33.9780	4	26.767	0	312.545	0	107.6	4	35.5	4	-1E+10	1	-1E+10	1	-1E+10	1	-1E+10	1	-1E+10	1	-1E+10	1
4901784	72	C	06/24/2017	10:49	-132.632	43.497	0	318.00	0	5.7910	0	33.9800	4	26.776	0	315.220	0	106.0	4	34.9	4	-1E+10	1	-1E+10	1	-1E+10	1	-1E+10	1	-1E+10	1	-1E+10	1
4901784	72	C	06/24/2017	10:49	-132.632	43.497	0	319.80	0	5.7550	0	33.9780	4	26.779	0	317.003	0	105.1	4	34.5	4	-1E+10	1	-1E+10	1	-1E+10	1	-1E+10	1	-1E+10	1	-1E+10	1
4901784	72	C	06/24/2017	10:49	-132.632	43.497	0	322.40	0	5.7080	0	33.9790	4	26.786	0	319.578	0	103.8	4	34.1	4	-1E+10	1	-1E+10	1	-1E+10	1	-1E+10	1	-1E+10	1	-1E+10	1
4901784	72	C	06/24/2017	10:49	-132.632	43.497	0	325.10	0	5.6680	0	33.9780	4	26.790	0	322.252	0	101.9	4	33.4	4	-1E+10	1	-1E+10	1	-1E+10	1	-1E+10	1	-1E+10	1	-1E+10	1
4901784	72	C	06/24/2017	10:49	-132.632	43.497	0	327.80	0	5.5940	0	33.9820	4	26.802	0	324.926	0	100.4	4	32.9	4	-1E+10	1	-1E+10	1	-1E+10	1	-1E+10	1	-1E+10	1	-1E+10	1
4901784	72	C	06/24/2017	10:49	-132.632	43.497	0	330.50	0	5.5480	0	33.9820	4	26.807	0	327.601	0	99.6	4	32.6	4	-1E+10	1	-1E+10	1	-1E+10	1	-1E+10	1	-1E+10	1	-1E+10	1
4901784	72	C	06/24/2017	10:49	-132.632	43.497	0	332.30	0	5.5460	0	33.9810	4	26.807	0	329.383	0	98.8	4	32.3	4	-1E+10	1	-1E+10	1	-1E+10	1	-1E+10	1	-1E+10	1	-1E+10	1
4901784	72	C	06/24/2017	10:49	-132.632	43.497	0	334.90	0	5.5160	0	33.9810	4	26.810	0	331.959	0	97.1	4	31.7	4	-1E+10	1	-1E+10	1	-1E+10	1	-1E+10	1	-1E+10	1	-1E+10	1
4901784	72	C	06/24/2017	10:49	-132.632	43.497	0	337.60	0	5.4620	0	33.9830	4	26.818	0	334.633	0	95.2	4	31.1	4	-1E+10	1	-1E+10	1	-1E+10	1	-1E+10	1	-1E+10	1	-1E+10	1
4901784	72	C	06/24/2017	10:49	-132.632	43.497	0	340.30	0	5.4360	0	33.9860	4	26.824	0	337.307	0	93.5	4	30.5	4	-1E+10	1	-1E+10	1	-1E+10	1	-1E+10	1	-1E+10	1	-1E+10	1
4901784	72	C	06/24/2017	10:49	-132.632	43.497	0	343.00	0	5.3990	0	33.9870	4	26.829	0	339.981	0	91.9	4	30.0	4	-1E+10	1	-1E+10	1	-1E+10	1	-1E+10	1	-1E+10	1	-1E+10	1
4901784	72	C	06/24/2017	10:49	-132.632	43.497	0	344.80	0	5.3750	0	33.9870	4	26.832	0	341.763	0	90.6	4	29.5	4	-1E+10	1	-1E+10	1	-1E+10	1	-1E+10	1	-1E+10	1	-1E+10	1
4901784	72	C	06/24/2017	10:49	-132.632	43.497	0	347.60	0	5.3490	0	33.9920	4	26.839	0	344.536	0	87.9	4	28.6	4	-1E+10	1	-1E+10	1	-1E+10	1	-1E+10	1	-1E+10	1	-1E+10	1
4901784	72	C	06/24/2017	10:49	-132.632	43.497	0	350.40	0	5.3560	0	33.9980	4	26.843	0	347.309	0	85.7	4	27.9	4	-1E+10	1	-1E+10	1	-1E+10	1	-1E+10	1	-1E+10	1	-1E+10	1
4901784	72	C	06/24/2017	10:49	-132.632	43.497	0	352.20	0	5.3530	0	34.0000	4	26.845	0	349.092	0	85.4	4	27.8	4	-1E+10	1	-1E+10	1	-1E+10	1	-1E+10	1	-1E+10	1	-1E+10	1
4901784	72	C	06/24/2017	10:49	-132.632	43.497	0	354.90	0	5.3170	0	33.9990	4	26.848	0	351.766	0	85.3	4	27.7	4	-1E+10	1	-1E+10	1	-1E+10	1	-1E+10	1	-1E+10	1	-1E+10	1
4901784	72	C	06/24/2017	10:49	-132.632	43.497	0	358.20	0	5.2760	0	33.9970	4	26.852	0	355.034	0	84.4	4	27.4	4	-1E+10	1	-1E+10	1	-1E+10	1	-1E+10	1	-1E+10	1	-1E+10	1
4901784	72	C	06/24/2017	10:49	-132.632	43.497	0	360.00	0	5.2670	0	33.9990	4	26.854	0	356.816	0	83.4	4	27.1	4	-1E+10	1	-1E+10	1	-1E+10	1	-1E+10	1	-1E+10	1	-1E+10	1
4901784	72	C	06/24/2017	10:49	-132.632	43.497	0	362.40	0	5.2390	0	33.9990	4	26.858	0	359.193	0	81.6	4	26.5	4	-1E+10	1	-1E+10	1	-1E+10	1	-1E+10	1	-1E+10	1	-1E+10	1
4901784	72	C	06/24/2017	10:49	-132.632	43.497	0	364.70	0	5.2260	0	34.0010	4	26.861	0	361.471	0	79.8	4	25.9	4	-1E+10	1	-1E+10	1	-1E+10	1	-1E+10	1	-1E+10	1	-1E+10	1
4901784	72	C	06/24/2017	10:49	-132.632	43.497	0	367.10	0	5.2000	0	34.0070	4	26.868	0	363.847	0	78.2	4	25.4	4	-1E+10	1	-1E+10	1	-1E+10	1	-1E+10	1	-1E+10	1	-1E+10	1
4901784	72	C	06/24/2017	10:49	-132.632	43.497	0	370.30	0	5.1830	0	34.0100	4	26.873	0	367.016	0	76.9	4	25.0	4	-1E+10	1	-1E+10	1	-1E+10	1	-1E+10	1	-1E+10	1	-1E+10	1
4901784	72	C	06/24/2017	10:49	-132.632	43.497	0	372.70	0	5.1800	0	34.0100	4	26.873	0	369.393	0	75.7	4	24.5	4	-1E+10	1	-1E+10	1	-1E+10	1	-1E+10	1	-1E+10	1	-1E+10	1
4901784	72	C	06/24/2017	10:49	-132.632	43.497	0	375.10	0	5.1510	0	34.0150	4	26.881	0	371.769	0	74.4	4	24.1	4	-1E+10	1	-1E+10	1	-1E+10	1	-1E+10	1	-1E+10	1	-1E+10	1
4901784	72	C	06/24/2017	10:49	-132.632	43.497	0	377.60	0	5.1370	0	34.0160	4	26.883	0	374.245	0	73.5	4	23.8	4	-1E+10	1	-1E+10	1	-1E+10	1	-1E+10	1	-1E+10	1	-1E+10	1
4901784	72	C	06/24/2017	10:49	-132.632	43.497	0	380.00	0	5.1280	0	34.0180	4	26.886	0	376.621	0	72.9	4	23.6	4	-1E+10	1	-1E+10	1	-1E+10	1	-1E+10	1	-1E+10	1	-1E+10	1
4901784	72	C	06/24/2017	10:49	-132.632	43.497	0	382.50	0	5.1200	0	34.0190	4	26.887	0	379.097	0	72.4	4	23.4	4	-1E+10	1	-1E+10	1	-1E+10	1	-1E+10	1	-1E+10	1	-1E+10	1
4901784	72	C	06/24/2017	10:49	-132.632	43.497	0	384.90	0	5.1100	0	34.0200	4	26.889	0	381.473	0	71.7	4	23.2	4	-1E+10	1	-1E+10	1	-1E+10	1	-1E+10	1	-1E+10	1	-1E+10	1
4901784	72	C	06/24/2017	10:49	-132.632	43.497	0	387.40	0	5.1020	0	34.0220	4	26.892	0	383.949	0	71.0	4	23.0	4	-1E+10	1	-1E+10	1	-1E+10	1	-1E+10	1	-1E+10	1	-1E+10	1
4901784	72	C	06/24/2017	10:49	-132.632	43.497	0	389.80	0	5.0900	0	34.0240	4	26.895	0	386.325	0	70.2	4	22.7	4	-1E+10	1	-1E+10	1	-1E+10	1	-1E+10	1	-1E+10	1	-1E+10	1
4901784	72	C	06/24/2017	10:49	-132.632	43.497	0	392.30	0	5.0760	0	34.0300	4	26.901	0	388.801	0	69.4	4	22.5	4	-1E+10	1	-1E+10	1	-1E+10	1	-1E+10	1	-1E+10	1	-1E+10	1
4901784	72	C	06/24/2017	10:49	-132.632	43.497	0	394.90	0	5.0740	0	34.0300	4	26.901	0	391.375	0	68.8	4	22.3	4	-1E+10	1	-1E+10	1	-1E+10	1	-1E+10	1	-1E+10	1	-1E+10	1
4901784	72	C	06/24/2017	10:49	-132.632	43.497	0	397.40	0	5.0730	0	34.0300	4	26.902	0	393.850	0	67.9	4	22.0	4	-1E+10	1	-1E+10	1	-1E+10	1	-1E+10	1	-1E+10	1	-1E+10	1
4901784	72	C	06/24/2017	10:49	-132.632	43.497	0	400.00	0	5.0600	0	34.0310	4	26.904	0	396.425	0	66.5	4	21.5	4	-1E+10	1	-1E+10	1	-1E+10	1	-1E+10	1	-1E+10	1	-1E+10	1
4901784	72	C	06/24/2017	10:49	-132.632	43.497	0	402.50	0	5.0190	0	34.0380	4	26.914	0	398.900	0	64.8	4	21.0	4	-1E+10	1	-1E+10	1	-1E+10	1	-1E+10	1	-1E+10	1	-1E+10	1
4901784	72	C	06/24/2017	10:49	-132.632	43.497	0	405.10	0	5.0000	0	34.0420	4	26.919	0	401.474	0	63.8	4	20.6	4	-1E+10	1	-1E+10	1	-1E+10	1	-1E+10	1	-1E+10	1	-1E+10	1
4901784	72	C	06/24/2017	10:49	-132.632	43.497	0	407.70	0	4.9900	0	34.0420	4	26.921	0	404.048	0	63.1	4	20.4	4	-1E+10	1	-1E+10	1	-1E+10	1	-1E+10	1	-1E+10	1	-1E+10	1
4901784	72	C	06/24/2017	10:49	-132.632	43.497	0	410.40	0	4.9770	0	34.0460	4	26.925	0	406.721	0	62.1	4	20.1	4	-1E+10	1	-1E+10	1	-1E+10	1	-1E+10	1	-1E+10	1	-1E+10	1
4901784	72	C	06/24/2017	10:49	-132.632	43.497	0	413.00	0	4.9630	0	34.0480	4	26.929	0	409.296	0	61.3	4	19.8	4	-1E+10	1	-1E+10	1	-1E+10	1	-1E+10	1	-1E+10	1	-1E+10	1
4901784	72	C	06/24/2017	10:49	-132.632	43.497	0	414.80	0	4.9580	0	34.0500	4	26.931	0	411.078	0	60.8	4	19.6	4	-1E+10	1	-1E+10	1	-1E+10	1	-1E+10	1	-1E+10	1	-1E+10	1
4901784	72	C	06/24/2017	10:49	-132.632	43.497	0	417.50	0	4.9540	0	34.0510	4	26.932	0	413.751	0	59.9	4	19.3	4	-1E+10	1	-1E+10	1	-1E+10	1	-1E+10	1	-1E+10	1	-1E+10	1
4901784	72	C	06/24/2017	10:49	-132.632	43.497	0	420.20	0	4.9520	0	34.0510	4	26.932	0	416.424	0	58.8	4	19.0	4	-1E+10	1	-1E+10	1	-1E+10	1	-1E+10	1	-1E+10	1	-1E+10	1
4901784	72	C	06/24/2017	10:49	-132.632	43.497	0	422.00	0	4.9330	0	34.0560	4	26.938	0	418.206	0	57.9	4	18.7	4	-1E+10	1	-1E+10	1	-1E+10	1	-1E+10	1	-1E+10	1	-1E+10	1
4901784	72	C	06/24/2017	10:49	-132.632	43.497	0	424.70	0	4.9130	0	34.0580	4	26.942	0	420.879	0	56.7	4	18.3	4	-1E+10	1	-1E+10	1	-1E+10	1	-1E+10	1	-1E+10	1	-1E+10	1
4901784	72	C	06/24/2017	10:49	-132.632	43.497	0	427.40	0	4.9040	0	34.0620	4	26.946	0	423.552	0	55.5	4	17.9	4	-1E+10	1	-1E+10	1	-1E+10	1	-1E+10	1	-1E+10	1	-1E+10	1
4901784	72	C	06/24/2017	10:49	-132.632	43.497	0	430.10	0	4.8670	0	34.0650	4	26.953	0	426.225	0	54.8	4	17.7	4	-1E+10	1	-1E+10	1	-1E+10	1	-1E+10	1	-1E+10	1	-1E+10	1
4901784	72	C	06/24/2017	10:49	-132.632	43.497	0	432.80	0	4.8480	0	34.0650	4	26.955	0	428.897	0	54.1	4	17.4	4	-1E+10	1	-1E+10	1	-1E+10	1	-1E+10	1	-1E+10	1	-1E+10	1
4901784	72	C	06/24/2017	10:49	-132.632	43.497	0	434.60	0	4.8380	0	34.0670	4	26.958	0	430.679	0	53.4	4	17.2	4	-1E+10	1	-1E+10	1	-1E+10	1	-1E+10	1	-1E+10	1	-1E+10	1
4901784	72	C	06/24/2017	10:49	-132.632	43.497	0	437.30	0	4.8200	0	34.0710	4	26.963	0	433.352	0	52.4	4	16.8	4	-1E+10	1	-1E+10	1	-1E+10	1	-1E+10	1	-1E+10	1	-1E+10	1
4901784	72	C	06/24/2017	10:49	-132.632	43.497	0	440.10	0	4.8110	0	34.0720	4	26.965	0	436.124	0	51.2	4	16.5	4	-1E+10	1	-1E+10	1	-1E+10	1	-1E+10	1	-1E+10	1	-1E+10	1
4901784	72	C	06/24/2017	10:49	-132.632	43.497	0	442.70	0	4.7950	0	34.0780	4	26.971	0	438.698	0	50.0	4	16.1	4	-1E+10	1	-1E+10	1	-1E+10	1	-1E+10	1	-1E+10	1	-1E+10	1
4901784	72	C	06/24/2017	10:49	-132.632	43.497	0	445.50	0	4.7800	0	34.0830	4	26.977	0	441.469	0	49.0	4	15.8	4	-1E+10	1	-1E+10	1	-1E+10	1	-1E+10	1	-1E+10	1	-1E+10	1
4901784	72	C	06/24/2017	10:49	-132.632	43.497	0	447.30	0	4.7660	0	34.0870	4	26.982	0	443.251	0	48.4	4	15.6	4	-1E+10	1	-1E+10	1	-1E+10	1	-1E+10	1	-1E+10	1	-1E+10	1
4901784	72	C	06/24/2017	10:49	-132.632	43.497	0	450.10	0	4.7540	0	34.0900	4	26.986	0	446.023	0	48.0	4	15.4	4	-1E+10	1	-1E+10	1	-1E+10	1	-1E+10	1	-1E+10	1	-1E+10	1
4901784	72	C	06/24/2017	10:49	-132.632	43.497	0	452.80	0	4.7490	0	34.0910	4	26.987	0	448.696	0	47.7	4	15.3	4	-1E+10	1	-1E+10	1	-1E+10	1	-1E+10	1	-1E+10	1	-1E+10	1
4901784	72	C	06/24/2017	10:49	-132.632	43.497	0	454.70	0	4.7460	0	34.0910	4	26.987	0	450.576	0	47.5	4	15.3	4	-1E+10	1	-1E+10	1	-1E+10	1	-1E+10	1	-1E+10	1	-1E+10	1
4901784	72	C	06/24/2017	10:49	-132.632	43.497	0	457.50	0	4.7420	0	34.0920	4	26.989	0	453.348	0	47.2	4	15.2	4	-1E+10	1	-1E+10	1	-1E+10	1	-1E+10	1	-1E+10	1	-1E+10	1
4901784	72	C	06/24/2017	10:49	-132.632	43.497	0	460.40	0	4.7380	0	34.0930	4	26.990	0	456.218	0	46.8	4	15.0	4	-1E+10	1	-1E+10	1	-1E+10	1	-1E+10	1	-1E+10	1	-1E+10	1
4901784	72	C	06/24/2017	10:49	-132.632	43.497	0	462.20	0	4.7380	0	34.0920	4	26.989	0	458.000	0	46.5	4	14.9	4	-1E+10	1	-1E+10	1	-1E+10	1	-1E+10	1	-1E+10	1	-1E+10	1
4901784	72	C	06/24/2017	10:49	-132.632	43.497	0	465.00	0	4.7300	0	34.0950	4	26.992	0	460.771	0	45.9	4	14.7	4	-1E+10	1	-1E+10	1	-1E+10	1	-1E+10	1	-1E+10	1	-1E+10	1
4901784	72	C	06/24/2017	10:49	-132.632	43.497	0	467.80	0	4.7210	0	34.0980	4	26.996	0	463.543	0	45.3	4	14.6	4	-1E+10	1	-1E+10	1	-1E+10	1	-1E+10	1	-1E+10	1	-1E+10	1
4901784	72	C	06/24/2017	10:49	-132.632	43.497	0	469.70	0	4.7200	0	34.0980	4	26.996	0	465.423	0	45.0	4	14.4	4	-1E+10	1	-1E+10	1	-1E+10	1	-1E+10	1	-1E+10	1	-1E+10	1
4901784	72	C	06/24/2017	10:49	-132.632	43.497	0	472.50	0	4.7180	0	34.0990	4	26.997	0	468.195	0	44.3	4	14.2	4	-1E+10	1	-1E+10	1	-1E+10	1	-1E+10	1	-1E+10	1	-1E+10	1
4901784	72	C	06/24/2017	10:49	-132.632	43.497	0	475.30	0	4.7110	0	34.1020	4	27.000	0	470.966	0	43.4	4	13.9	4	-1E+10	1	-1E+10	1	-1E+10	1	-1E+10	1	-1E+10	1	-1E+10	1
4901784	72	C	06/24/2017	10:49	-132.632	43.497	0	477.20	0	4.7040	0	34.1050	4	27.003	0	472.847	0	42.7	4	13.7	4	-1E+10	1	-1E+10	1	-1E+10	1	-1E+10	1	-1E+10	1	-1E+10	1
4901784	72	C	06/24/2017	10:49	-132.632	43.497	0	480.00	0	4.6910	0	34.1080	4	27.007	0	475.618	0	42.0	4	13.5	4	-1E+10	1	-1E+10	1	-1E+10	1	-1E+10	1	-1E+10	1	-1E+10	1
4901784	72	C	06/24/2017	10:49	-132.632	43.497	0	482.80	0	4.6840	0	34.1100	4	27.009	0	478.389	0	41.2	4	13.2	4	-1E+10	1	-1E+10	1	-1E+10	1	-1E+10	1	-1E+10	1	-1E+10	1
4901784	72	C	06/24/2017	10:49	-132.632	43.497	0	484.70	0	4.6770	0	34.1130	4	27.013	0	480.270	0	40.7	4	13.0	4	-1E+10	1	-1E+10	1	-1E+10	1	-1E+10	1	-1E+10	1	-1E+10	1
4901784	72	C	06/24/2017	10:49	-132.632	43.497	0	487.60	0	4.6610	0	34.1150	4	27.016	0	483.140	0	39.8	4	12.7	4	-1E+10	1	-1E+10	1	-1E+10	1	-1E+10	1	-1E+10	1	-1E+10	1
4901784	72	C	06/24/2017	10:49	-132.632	43.497	0	490.40	0	4.6650	0	34.1230	4	27.022	0	485.911	0	38.4	4	12.3	4	-1E+10	1	-1E+10	1	-1E+10	1	-1E+10	1	-1E+10	1	-1E+10	1
4901784	72	C	06/24/2017	10:49	-132.632	43.497	0	492.30	0	4.6600	0	34.1240	4	27.023	0	487.791	0	37.9	4	12.2	4	-1E+10	1	-1E+10	1	-1E+10	1	-1E+10	1	-1E+10	1	-1E+10	1
4901784	72	C	06/24/2017	10:49	-132.632	43.497	0	495.10	0	4.6550	0	34.1260	4	27.025	0	490.562	0	37.3	4	12.0	4	-1E+10	1	-1E+10	1	-1E+10	1	-1E+10	1	-1E+10	1	-1E+10	1
4901784	72	C	06/24/2017	10:49	-132.632	43.497	0	497.90	0	4.6390	0	34.1300	4	27.030	0	493.333	0	36.7	4	11.7	4	-1E+10	1	-1E+10	1	-1E+10	1	-1E+10	1	-1E+10	1	-1E+10	1
4901784	72	C	06/24/2017	10:49	-132.632	43.497	0	499.80	0	4.6300	0	34.1320	4	27.033	0	495.213	0	36.3	4	11.6	4	-1E+10	1	-1E+10	1	-1E+10	1	-1E+10	1	-1E+10	1	-1E+10	1
4901784	72	C	06/24/2017	10:49	-132.632	43.497	0	505.50	0	4.6120	0	34.1370	4	27.039	0	500.854	0	35.6	4	11.4	4	-1E+10	1	-1E+10	1	-1E+10	1	-1E+10	1	-1E+10	1	-1E+10	1
4901784	72	C	06/24/2017	10:49	-132.632	43.497	0	510.30	0	4.6070	0	34.1370	4	27.040	0	505.604	0	35.1	4	11.2	4	-1E+10	1	-1E+10	1	-1E+10	1	-1E+10	1	-1E+10	1	-1E+10	1
4901784	72	C	06/24/2017	10:49	-132.632	43.497	0	515.00	0	4.5870	0	34.1410	4	27.045	0	510.255	0	34.5	4	11.0	4	-1E+10	1	-1E+10	1	-1E+10	1	-1E+10	1	-1E+10	1	-1E+10	1
4901784	72	C	06/24/2017	10:49	-132.632	43.497	0	519.70	0	4.5750	0	34.1420	4	27.047	0	514.906	0	34.0	4	10.9	4	-1E+10	1	-1E+10	1	-1E+10	1	-1E+10	1	-1E+10	1	-1E+10	1
4901784	72	C	06/24/2017	10:49	-132.632	43.497	0	524.50	0	4.5480	0	34.1460	4	27.053	0	519.656	0	33.6	4	10.7	4	-1E+10	1	-1E+10	1	-1E+10	1	-1E+10	1	-1E+10	1	-1E+10	1
4901784	72	C	06/24/2017	10:49	-132.632	43.497	0	529.90	0	4.5180	0	34.1510	4	27.060	0	524.999	0	33.1	4	10.6	4	-1E+10	1	-1E+10	1	-1E+10	1	-1E+10	1	-1E+10	1	-1E+10	1
4901784	72	C	06/24/2017	10:49	-132.632	43.497	0	535.00	0	4.4980	0	34.1530	4	27.064	0	530.046	0	32.3	4	10.3	4	-1E+10	1	-1E+10	1	-1E+10	1	-1E+10	1	-1E+10	1	-1E+10	1
4901784	72	C	06/24/2017	10:49	-132.632	43.497	0	540.70	0	4.4860	0	34.1570	4	27.069	0	535.685	0	31.2	4	10.0	4	-1E+10	1	-1E+10	1	-1E+10	1	-1E+10	1	-1E+10	1	-1E+10	1
4901784	72	C	06/24/2017	10:49	-132.632	43.497	0	545.60	0	4.4810	0	34.1620	4	27.073	0	540.534	0	29.8	4	9.5	4	-1E+10	1	-1E+10	1	-1E+10	1	-1E+10	1	-1E+10	1	-1E+10	1
4901784	72	C	06/24/2017	10:49	-132.632	43.497	0	550.50	0	4.4680	0	34.1680	4	27.080	0	545.382	0	28.7	4	9.2	4	-1E+10	1	-1E+10	1	-1E+10	1	-1E+10	1	-1E+10	1	-1E+10	1
4901784	72	C	06/24/2017	10:49	-132.632	43.497	0	555.50	0	4.4550	0	34.1740	4	27.086	0	550.329	0	27.7	4	8.8	4	-1E+10	1	-1E+10	1	-1E+10	1	-1E+10	1	-1E+10	1	-1E+10	1
4901784	72	C	06/24/2017	10:49	-132.632	43.497	0	560.40	0	4.4290	0	34.1780	4	27.092	0	555.177	0	27.1	4	8.6	4	-1E+10	1	-1E+10	1	-1E+10	1	-1E+10	1	-1E+10	1	-1E+10	1
4901784	72	C	06/24/2017	10:49	-132.632	43.497	0	565.40	0	4.4050	0	34.1830	4	27.098	0	560.123	0	26.6	4	8.5	4	-1E+10	1	-1E+10	1	-1E+10	1	-1E+10	1	-1E+10	1	-1E+10	1
4901784	72	C	06/24/2017	10:49	-132.632	43.497	0	570.40	0	4.3810	0	34.1850	4	27.102	0	565.070	0	26.4	4	8.4	4	-1E+10	1	-1E+10	1	-1E+10	1	-1E+10	1	-1E+10	1	-1E+10	1
4901784	72	C	06/24/2017	10:49	-132.632	43.497	0	575.50	0	4.3580	0	34.1890	4	27.108	0	570.115	0	25.9	4	8.3	4	-1E+10	1	-1E+10	1	-1E+10	1	-1E+10	1	-1E+10	1	-1E+10	1
4901784	72	C	06/24/2017	10:49	-132.632	43.497	0	580.50	0	4.3440	0	34.1920	4	27.112	0	575.061	0	25.4	4	8.1	4	-1E+10	1	-1E+10	1	-1E+10	1	-1E+10	1	-1E+10	1	-1E+10	1
4901784	72	C	06/24/2017	10:49	-132.632	43.497	0	585.70	0	4.3360	0	34.1940	4	27.115	0	580.205	0	24.9	4	7.9	4	-1E+10	1	-1E+10	1	-1E+10	1	-1E+10	1	-1E+10	1	-1E+10	1
4901784	72	C	06/24/2017	10:49	-132.632	43.497	0	590.00	0	4.3290	0	34.1980	4	27.118	0	584.459	0	24.1	4	7.7	4	-1E+10	1	-1E+10	1	-1E+10	1	-1E+10	1	-1E+10	1	-1E+10	1
4901784	72	C	06/24/2017	10:49	-132.632	43.497	0	594.30	0	4.3140	0	34.2030	4	27.124	0	588.713	0	23.4	4	7.4	4	-1E+10	1	-1E+10	1	-1E+10	1	-1E+10	1	-1E+10	1	-1E+10	1
4901784	72	C	06/24/2017	10:49	-132.632	43.497	0	599.50	0	4.2920	0	34.2090	4	27.131	0	593.856	0	22.7	4	7.2	4	-1E+10	1	-1E+10	1	-1E+10	1	-1E+10	1	-1E+10	1	-1E+10	1
4901784	72	C	06/24/2017	10:49	-132.632	43.497	0	604.80	0	4.2750	0	34.2130	4	27.136	0	599.099	0	22.2	4	7.1	4	-1E+10	1	-1E+10	1	-1E+10	1	-1E+10	1	-1E+10	1	-1E+10	1
4901784	72	C	06/24/2017	10:49	-132.632	43.497	0	610.00	0	4.2620	0	34.2170	4	27.141	0	604.242	0	21.6	4	6.8	4	-1E+10	1	-1E+10	1	-1E+10	1	-1E+10	1	-1E+10	1	-1E+10	1
4901784	72	C	06/24/2017	10:49	-132.632	43.497	0	615.30	0	4.2420	0	34.2230	4	27.148	0	609.484	0	20.8	4	6.6	4	-1E+10	1	-1E+10	1	-1E+10	1	-1E+10	1	-1E+10	1	-1E+10	1
4901784	72	C	06/24/2017	10:49	-132.632	43.497	0	620.70	0	4.2260	0	34.2270	4	27.153	0	614.825	0	20.2	4	6.4	4	-1E+10	1	-1E+10	1	-1E+10	1	-1E+10	1	-1E+10	1	-1E+10	1
4901784	72	C	06/24/2017	10:49	-132.632	43.497	0	625.00	0	4.2120	0	34.2330	4	27.159	0	619.078	0	19.7	4	6.2	4	-1E+10	1	-1E+10	1	-1E+10	1	-1E+10	1	-1E+10	1	-1E+10	1
4901784	72	C	06/24/2017	10:49	-132.632	43.497	0	629.40	0	4.2020	0	34.2360	4	27.162	0	623.430	0	19.4	4	6.1	4	-1E+10	1	-1E+10	1	-1E+10	1	-1E+10	1	-1E+10	1	-1E+10	1
4901784	72	C	06/24/2017	10:49	-132.632	43.497	0	634.70	0	4.1780	0	34.2410	4	27.169	0	628.672	0	18.9	4	6.0	4	-1E+10	1	-1E+10	1	-1E+10	1	-1E+10	1	-1E+10	1	-1E+10	1
4901784	72	C	06/24/2017	10:49	-132.632	43.497	0	640.00	0	4.1550	0	34.2450	4	27.174	0	633.913	0	18.4	4	5.8	4	-1E+10	1	-1E+10	1	-1E+10	1	-1E+10	1	-1E+10	1	-1E+10	1
4901784	72	C	06/24/2017	10:49	-132.632	43.497	0	645.30	0	4.1290	0	34.2510	4	27.182	0	639.155	0	17.8	4	5.7	4	-1E+10	1	-1E+10	1	-1E+10	1	-1E+10	1	-1E+10	1	-1E+10	1
4901784	72	C	06/24/2017	10:49	-132.632	43.497	0	650.70	0	4.1240	0	34.2580	4	27.188	0	644.495	0	17.3	4	5.5	4	-1E+10	1	-1E+10	1	-1E+10	1	-1E+10	1	-1E+10	1	-1E+10	1
4901784	72	C	06/24/2017	10:49	-132.632	43.497	0	655.20	0	4.1170	0	34.2610	4	27.191	0	648.945	0	17.0	4	5.4	4	-1E+10	1	-1E+10	1	-1E+10	1	-1E+10	1	-1E+10	1	-1E+10	1
4901784	72	C	06/24/2017	10:49	-132.632	43.497	0	659.70	0	4.1070	0	34.2630	4	27.194	0	653.395	0	16.8	4	5.3	4	-1E+10	1	-1E+10	1	-1E+10	1	-1E+10	1	-1E+10	1	-1E+10	1
4901784	72	C	06/24/2017	10:49	-132.632	43.497	0	665.20	0	4.0890	0	34.2680	4	27.200	0	658.834	0	16.5	4	5.2	4	-1E+10	1	-1E+10	1	-1E+10	1	-1E+10	1	-1E+10	1	-1E+10	1
4901784	72	C	06/24/2017	10:49	-132.632	43.497	0	670.60	0	4.0780	0	34.2720	4	27.204	0	664.174	0	16.2	4	5.1	4	-1E+10	1	-1E+10	1	-1E+10	1	-1E+10	1	-1E+10	1	-1E+10	1
4901784	72	C	06/24/2017	10:49	-132.632	43.497	0	675.10	0	4.0710	0	34.2750	4	27.207	0	668.623	0	15.9	4	5.0	4	-1E+10	1	-1E+10	1	-1E+10	1	-1E+10	1	-1E+10	1	-1E+10	1
4901784	72	C	06/24/2017	10:49	-132.632	43.497	0	679.70	0	4.0680	0	34.2780	4	27.210	0	673.172	0	15.7	4	5.0	4	-1E+10	1	-1E+10	1	-1E+10	1	-1E+10	1	-1E+10	1	-1E+10	1
4901784	72	C	06/24/2017	10:49	-132.632	43.497	0	685.20	0	4.0640	0	34.2800	4	27.212	0	678.610	0	15.4	4	4.9	4	-1E+10	1	-1E+10	1	-1E+10	1	-1E+10	1	-1E+10	1	-1E+10	1
4901784	72	C	06/24/2017	10:49	-132.632	43.497	0	690.60	0	4.0440	0	34.2860	4	27.219	0	683.949	0	15.1	4	4.8	4	-1E+10	1	-1E+10	1	-1E+10	1	-1E+10	1	-1E+10	1	-1E+10	1
4901784	72	C	06/24/2017	10:49	-132.632	43.497	0	695.20	0	4.0320	0	34.2910	4	27.224	0	688.497	0	14.8	4	4.7	4	-1E+10	1	-1E+10	1	-1E+10	1	-1E+10	1	-1E+10	1	-1E+10	1
4901784	72	C	06/24/2017	10:49	-132.632	43.497	0	699.80	0	4.0270	0	34.2930	4	27.226	0	693.045	0	14.7	4	4.6	4	-1E+10	1	-1E+10	1	-1E+10	1	-1E+10	1	-1E+10	1	-1E+10	1
4901784	72	C	06/24/2017	10:49	-132.632	43.497	0	705.20	0	4.0190	0	34.2950	4	27.229	0	698.384	0	14.4	4	4.6	4	-1E+10	1	-1E+10	1	-1E+10	1	-1E+10	1	-1E+10	1	-1E+10	1
4901784	72	C	06/24/2017	10:49	-132.632	43.497	0	709.80	0	4.0040	0	34.2990	4	27.234	0	702.932	0	14.2	4	4.5	4	-1E+10	1	-1E+10	1	-1E+10	1	-1E+10	1	-1E+10	1	-1E+10	1
4901784	72	C	06/24/2017	10:49	-132.632	43.497	0	714.40	0	3.9920	0	34.3010	4	27.236	0	707.480	0	14.0	4	4.4	4	-1E+10	1	-1E+10	1	-1E+10	1	-1E+10	1	-1E+10	1	-1E+10	1
4901784	72	C	06/24/2017	10:49	-132.632	43.497	0	719.90	0	3.9450	0	34.3080	4	27.247	0	712.917	0	13.8	4	4.4	4	-1E+10	1	-1E+10	1	-1E+10	1	-1E+10	1	-1E+10	1	-1E+10	1
4901784	72	C	06/24/2017	10:49	-132.632	43.497	0	725.50	0	3.9270	0	34.3130	4	27.253	0	718.453	0	13.5	4	4.3	4	-1E+10	1	-1E+10	1	-1E+10	1	-1E+10	1	-1E+10	1	-1E+10	1
4901784	72	C	06/24/2017	10:49	-132.632	43.497	0	730.10	0	3.9230	0	34.3180	4	27.257	0	723.000	0	13.3	4	4.2	4	-1E+10	1	-1E+10	1	-1E+10	1	-1E+10	1	-1E+10	1	-1E+10	1
4901784	72	C	06/24/2017	10:49	-132.632	43.497	0	734.60	0	3.9130	0	34.3230	4	27.262	0	727.449	0	13.1	4	4.1	4	-1E+10	1	-1E+10	1	-1E+10	1	-1E+10	1	-1E+10	1	-1E+10	1
4901784	72	C	06/24/2017	10:49	-132.632	43.497	0	740.10	0	3.8970	0	34.3270	4	27.267	0	732.885	0	12.9	4	4.1	4	-1E+10	1	-1E+10	1	-1E+10	1	-1E+10	1	-1E+10	1	-1E+10	1
4901784	72	C	06/24/2017	10:49	-132.632	43.497	0	744.70	0	3.8850	0	34.3300	4	27.271	0	737.433	0	12.7	4	4.0	4	-1E+10	1	-1E+10	1	-1E+10	1	-1E+10	1	-1E+10	1	-1E+10	1
4901784	72	C	06/24/2017	10:49	-132.632	43.497	0	749.40	0	3.8770	0	34.3330	4	27.274	0	742.078	0	12.6	4	4.0	4	-1E+10	1	-1E+10	1	-1E+10	1	-1E+10	1	-1E+10	1	-1E+10	1
4901784	72	C	06/24/2017	10:49	-132.632	43.497	0	755.00	0	3.8550	0	34.3380	4	27.280	0	747.614	0	12.4	4	3.9	4	-1E+10	1	-1E+10	1	-1E+10	1	-1E+10	1	-1E+10	1	-1E+10	1
4901784	72	C	06/24/2017	10:49	-132.632	43.497	0	760.60	0	3.8280	0	34.3470	4	27.290	0	753.149	0	12.2	4	3.8	4	-1E+10	1	-1E+10	1	-1E+10	1	-1E+10	1	-1E+10	1	-1E+10	1
4901784	72	C	06/24/2017	10:49	-132.632	43.497	0	765.50	0	3.8200	0	34.3490	4	27.292	0	757.992	0	12.1	4	3.8	4	-1E+10	1	-1E+10	1	-1E+10	1	-1E+10	1	-1E+10	1	-1E+10	1
4901784	72	C	06/24/2017	10:49	-132.632	43.497	0	770.00	0	3.8110	0	34.3520	4	27.296	0	762.439	0	12.0	4	3.8	4	-1E+10	1	-1E+10	1	-1E+10	1	-1E+10	1	-1E+10	1	-1E+10	1
4901784	72	C	06/24/2017	10:49	-132.632	43.497	0	774.90	0	3.7990	0	34.3560	4	27.300	0	767.282	0	11.9	4	3.7	4	-1E+10	1	-1E+10	1	-1E+10	1	-1E+10	1	-1E+10	1	-1E+10	1
4901784	72	C	06/24/2017	10:49	-132.632	43.497	0	779.70	0	3.7850	0	34.3590	4	27.304	0	772.026	0	11.8	4	3.7	4	-1E+10	1	-1E+10	1	-1E+10	1	-1E+10	1	-1E+10	1	-1E+10	1
4901784	72	C	06/24/2017	10:49	-132.632	43.497	0	784.60	0	3.7690	0	34.3620	4	27.308	0	776.869	0	11.7	4	3.7	4	-1E+10	1	-1E+10	1	-1E+10	1	-1E+10	1	-1E+10	1	-1E+10	1
4901784	72	C	06/24/2017	10:49	-132.632	43.497	0	789.50	0	3.7470	0	34.3650	4	27.313	0	781.711	0	11.6	4	3.6	4	-1E+10	1	-1E+10	1	-1E+10	1	-1E+10	1	-1E+10	1	-1E+10	1
4901784	72	C	06/24/2017	10:49	-132.632	43.497	0	794.50	0	3.7330	0	34.3680	4	27.316	0	786.653	0	11.5	4	3.6	4	-1E+10	1	-1E+10	1	-1E+10	1	-1E+10	1	-1E+10	1	-1E+10	1
4901784	72	C	06/24/2017	10:49	-132.632	43.497	0	799.40	0	3.7220	0	34.3730	4	27.321	0	791.495	0	11.5	4	3.6	4	-1E+10	1	-1E+10	1	-1E+10	1	-1E+10	1	-1E+10	1	-1E+10	1
4901784	72	C	06/24/2017	10:49	-132.632	43.497	0	804.40	0	3.7130	0	34.3780	4	27.326	0	796.436	0	11.4	4	3.6	4	-1E+10	1	-1E+10	1	-1E+10	1	-1E+10	1	-1E+10	1	-1E+10	1
4901784	72	C	06/24/2017	10:49	-132.632	43.497	0	809.40	0	3.7050	0	34.3810	4	27.330	0	801.377	0	11.4	4	3.6	4	-1E+10	1	-1E+10	1	-1E+10	1	-1E+10	1	-1E+10	1	-1E+10	1
4901784	72	C	06/24/2017	10:49	-132.632	43.497	0	814.50	0	3.6930	0	34.3850	4	27.334	0	806.417	0	11.3	4	3.6	4	-1E+10	1	-1E+10	1	-1E+10	1	-1E+10	1	-1E+10	1	-1E+10	1
4901784	72	C	06/24/2017	10:49	-132.632	43.497	0	819.40	0	3.6790	0	34.3870	4	27.337	0	811.258	0	11.3	4	3.6	4	-1E+10	1	-1E+10	1	-1E+10	1	-1E+10	1	-1E+10	1	-1E+10	1
4901784	72	C	06/24/2017	10:49	-132.632	43.497	0	824.30	0	3.6640	0	34.3900	4	27.341	0	816.100	0	11.3	4	3.5	4	-1E+10	1	-1E+10	1	-1E+10	1	-1E+10	1	-1E+10	1	-1E+10	1
4901784	72	C	06/24/2017	10:49	-132.632	43.497	0	829.50	0	3.6430	0	34.3960	4	27.348	0	821.238	0	11.3	4	3.5	4	-1E+10	1	-1E+10	1	-1E+10	1	-1E+10	1	-1E+10	1	-1E+10	1
4901784	72	C	06/24/2017	10:49	-132.632	43.497	0	834.70	0	3.6290	0	34.4000	4	27.352	0	826.376	0	11.3	4	3.5	4	-1E+10	1	-1E+10	1	-1E+10	1	-1E+10	1	-1E+10	1	-1E+10	1
4901784	72	C	06/24/2017	10:49	-132.632	43.497	0	839.80	0	3.6120	0	34.4040	4	27.357	0	831.415	0	11.2	4	3.5	4	-1E+10	1	-1E+10	1	-1E+10	1	-1E+10	1	-1E+10	1	-1E+10	1
4901784	72	C	06/24/2017	10:49	-132.632	43.497	0	845.10	0	3.6010	0	34.4070	4	27.361	0	836.652	0	11.2	4	3.5	4	-1E+10	1	-1E+10	1	-1E+10	1	-1E+10	1	-1E+10	1	-1E+10	1
4901784	72	C	06/24/2017	10:49	-132.632	43.497	0	850.50	0	3.5880	0	34.4090	4	27.364	0	841.987	0	11.2	4	3.5	4	-1E+10	1	-1E+10	1	-1E+10	1	-1E+10	1	-1E+10	1	-1E+10	1
4901784	72	C	06/24/2017	10:49	-132.632	43.497	0	855.00	0	3.5760	0	34.4110	4	27.366	0	846.433	0	11.2	4	3.5	4	-1E+10	1	-1E+10	1	-1E+10	1	-1E+10	1	-1E+10	1	-1E+10	1
4901784	72	C	06/24/2017	10:49	-132.632	43.497	0	859.70	0	3.5660	0	34.4140	4	27.370	0	851.076	0	11.2	4	3.5	4	-1E+10	1	-1E+10	1	-1E+10	1	-1E+10	1	-1E+10	1	-1E+10	1
4901784	72	C	06/24/2017	10:49	-132.632	43.497	0	865.20	0	3.5430	0	34.4200	4	27.377	0	856.510	0	11.3	4	3.5	4	-1E+10	1	-1E+10	1	-1E+10	1	-1E+10	1	-1E+10	1	-1E+10	1
4901784	72	C	06/24/2017	10:49	-132.632	43.497	0	869.80	0	3.5330	0	34.4220	4	27.379	0	861.054	0	11.4	4	3.6	4	-1E+10	1	-1E+10	1	-1E+10	1	-1E+10	1	-1E+10	1	-1E+10	1
4901784	72	C	06/24/2017	10:49	-132.632	43.497	0	874.40	0	3.5230	0	34.4250	4	27.383	0	865.598	0	11.5	4	3.6	4	-1E+10	1	-1E+10	1	-1E+10	1	-1E+10	1	-1E+10	1	-1E+10	1
4901784	72	C	06/24/2017	10:49	-132.632	43.497	0	879.90	0	3.5070	0	34.4310	4	27.389	0	871.031	0	11.5	4	3.6	4	-1E+10	1	-1E+10	1	-1E+10	1	-1E+10	1	-1E+10	1	-1E+10	1
4901784	72	C	06/24/2017	10:49	-132.632	43.497	0	885.60	0	3.5000	0	34.4330	4	27.391	0	876.662	0	11.5	4	3.6	4	-1E+10	1	-1E+10	1	-1E+10	1	-1E+10	1	-1E+10	1	-1E+10	1
4901784	72	C	06/24/2017	10:49	-132.632	43.497	0	890.40	0	3.4930	0	34.4350	4	27.394	0	881.403	0	11.6	4	3.6	4	-1E+10	1	-1E+10	1	-1E+10	1	-1E+10	1	-1E+10	1	-1E+10	1
4901784	72	C	06/24/2017	10:49	-132.632	43.497	0	894.90	0	3.4820	0	34.4370	4	27.396	0	885.848	0	11.6	4	3.6	4	-1E+10	1	-1E+10	1	-1E+10	1	-1E+10	1	-1E+10	1	-1E+10	1
4901784	72	C	06/24/2017	10:49	-132.632	43.497	0	899.80	0	3.4650	0	34.4400	4	27.401	0	890.688	0	11.6	4	3.6	4	-1E+10	1	-1E+10	1	-1E+10	1	-1E+10	1	-1E+10	1	-1E+10	1
4901784	72	C	06/24/2017	10:49	-132.632	43.497	0	904.90	0	3.4560	0	34.4420	4	27.403	0	895.726	0	11.6	4	3.6	4	-1E+10	1	-1E+10	1	-1E+10	1	-1E+10	1	-1E+10	1	-1E+10	1
4901784	72	C	06/24/2017	10:49	-132.632	43.497	0	910.00	0	3.4450	0	34.4450	4	27.406	0	900.763	0	11.6	4	3.6	4	-1E+10	1	-1E+10	1	-1E+10	1	-1E+10	1	-1E+10	1	-1E+10	1
4901784	72	C	06/24/2017	10:49	-132.632	43.497	0	915.10	0	3.4390	0	34.4460	4	27.408	0	905.800	0	11.7	4	3.6	4	-1E+10	1	-1E+10	1	-1E+10	1	-1E+10	1	-1E+10	1	-1E+10	1
4901784	72	C	06/24/2017	10:49	-132.632	43.497	0	920.20	0	3.4330	0	34.4480	4	27.410	0	910.837	0	11.7	4	3.6	4	-1E+10	1	-1E+10	1	-1E+10	1	-1E+10	1	-1E+10	1	-1E+10	1
4901784	72	C	06/24/2017	10:49	-132.632	43.497	0	925.40	0	3.4260	0	34.4490	4	27.412	0	915.973	0	11.7	4	3.7	4	-1E+10	1	-1E+10	1	-1E+10	1	-1E+10	1	-1E+10	1	-1E+10	1
4901784	72	C	06/24/2017	10:49	-132.632	43.497	0	930.60	0	3.4170	0	34.4510	4	27.414	0	921.109	0	11.8	4	3.7	4	-1E+10	1	-1E+10	1	-1E+10	1	-1E+10	1	-1E+10	1	-1E+10	1
4901784	72	C	06/24/2017	10:49	-132.632	43.497	0	934.90	0	3.4000	0	34.4550	4	27.419	0	925.355	0	11.8	4	3.7	4	-1E+10	1	-1E+10	1	-1E+10	1	-1E+10	1	-1E+10	1	-1E+10	1
4901784	72	C	06/24/2017	10:49	-132.632	43.497	0	939.40	0	3.3900	0	34.4570	4	27.421	0	929.799	0	11.8	4	3.7	4	-1E+10	1	-1E+10	1	-1E+10	1	-1E+10	1	-1E+10	1	-1E+10	1
4901784	72	C	06/24/2017	10:49	-132.632	43.497	0	944.80	0	3.3820	0	34.4580	4	27.423	0	935.132	0	11.9	4	3.7	4	-1E+10	1	-1E+10	1	-1E+10	1	-1E+10	1	-1E+10	1	-1E+10	1
4901784	72	C	06/24/2017	10:49	-132.632	43.497	0	950.20	0	3.3660	0	34.4610	4	27.427	0	940.465	0	12.0	4	3.7	4	-1E+10	1	-1E+10	1	-1E+10	1	-1E+10	1	-1E+10	1	-1E+10	1
4901784	72	C	06/24/2017	10:49	-132.632	43.497	0	955.60	0	3.3580	0	34.4640	4	27.430	0	945.797	0	12.3	4	3.8	4	-1E+10	1	-1E+10	1	-1E+10	1	-1E+10	1	-1E+10	1	-1E+10	1
4901784	72	C	06/24/2017	10:49	-132.632	43.497	0	960.10	0	3.3570	0	34.4690	4	27.434	0	950.241	0	12.7	4	4.0	4	-1E+10	1	-1E+10	1	-1E+10	1	-1E+10	1	-1E+10	1	-1E+10	1
4901784	72	C	06/24/2017	10:49	-132.632	43.497	0	964.70	0	3.3590	0	34.4700	4	27.435	0	954.783	0	12.9	4	4.0	4	-1E+10	1	-1E+10	1	-1E+10	1	-1E+10	1	-1E+10	1	-1E+10	1
4901784	72	C	06/24/2017	10:49	-132.632	43.497	0	970.30	0	3.3580	0	34.4760	4	27.440	0	960.313	0	13.2	4	4.1	4	-1E+10	1	-1E+10	1	-1E+10	1	-1E+10	1	-1E+10	1	-1E+10	1
4901784	72	C	06/24/2017	10:49	-132.632	43.497	0	974.90	0	3.3590	0	34.4770	4	27.441	0	964.855	0	13.3	4	4.2	4	-1E+10	1	-1E+10	1	-1E+10	1	-1E+10	1	-1E+10	1	-1E+10	1
4901784	72	C	06/24/2017	10:49	-132.632	43.497	0	979.60	0	3.3600	0	34.4770	4	27.441	0	969.496	0	13.5	4	4.2	4	-1E+10	1	-1E+10	1	-1E+10	1	-1E+10	1	-1E+10	1	-1E+10	1
4901784	72	C	06/24/2017	10:49	-132.632	43.497	0	985.00	0	3.3600	0	34.4790	4	27.442	0	974.827	0	13.7	4	4.3	4	-1E+10	1	-1E+10	1	-1E+10	1	-1E+10	1	-1E+10	1	-1E+10	1
4901784	72	C	06/24/2017	10:49	-132.632	43.497	0	990.60	0	3.3570	0	34.4800	4	27.443	0	980.356	0	13.9	4	4.3	4	-1E+10	1	-1E+10	1	-1E+10	1	-1E+10	1	-1E+10	1	-1E+10	1
4901784	72	C	06/24/2017	10:49	-132.632	43.497	0	995.20	0	3.3540	0	34.4830	4	27.446	0	984.898	0	14.1	4	4.4	4	-1E+10	1	-1E+10	1	-1E+10	1	-1E+10	1	-1E+10	1	-1E+10	1
4901784	72	C	06/24/2017	10:49	-132.632	43.497	0	999.90	0	3.3480	0	34.4860	4	27.449	0	989.538	0	14.2	4	4.4	4	-1E+10	1	-1E+10	1	-1E+10	1	-1E+10	1	-1E+10	1	-1E+10	1
4901784	72	C	06/24/2017	10:49	-132.632	43.497	0	1004.50	0	3.3430	0	34.4870	4	27.450	0	994.080	0	14.2	4	4.4	4	-1E+10	1	-1E+10	1	-1E+10	1	-1E+10	1	-1E+10	1	-1E+10	1
4901784	72	C	06/24/2017	10:49	-132.632	43.497	0	1009.20	0	3.3350	0	34.4880	4	27.452	0	998.720	0	14.3	4	4.5	4	-1E+10	1	-1E+10	1	-1E+10	1	-1E+10	1	-1E+10	1	-1E+10	1
4901784	72	C	06/24/2017	10:49	-132.632	43.497	0	1014.60	0	3.3270	0	34.4910	4	27.455	0	1004.051	0	14.5	4	4.5	4	-1E+10	1	-1E+10	1	-1E+10	1	-1E+10	1	-1E+10	1	-1E+10	1
4901784	72	C	06/24/2017	10:49	-132.632	43.497	0	1019.50	0	3.3160	0	34.4920	4	27.457	0	1008.888	0	14.6	4	4.5	4	-1E+10	1	-1E+10	1	-1E+10	1	-1E+10	1	-1E+10	1	-1E+10	1
4901784	72	C	06/24/2017	10:49	-132.632	43.497	0	1024.50	0	3.3080	0	34.4930	4	27.459	0	1013.824	0	14.7	4	4.6	4	-1E+10	1	-1E+10	1	-1E+10	1	-1E+10	1	-1E+10	1	-1E+10	1
4901784	72	C	06/24/2017	10:49	-132.632	43.497	0	1029.40	0	3.3010	0	34.4960	4	27.462	0	1018.661	0	14.9	4	4.6	4	-1E+10	1	-1E+10	1	-1E+10	1	-1E+10	1	-1E+10	1	-1E+10	1
4901784	72	C	06/24/2017	10:49	-132.632	43.497	0	1034.40	0	3.2940	0	34.4970	4	27.463	0	1023.597	0	15.1	4	4.7	4	-1E+10	1	-1E+10	1	-1E+10	1	-1E+10	1	-1E+10	1	-1E+10	1
4901784	72	C	06/24/2017	10:49	-132.632	43.497	0	1039.50	0	3.2820	0	34.5000	4	27.467	0	1028.631	0	15.3	4	4.8	4	-1E+10	1	-1E+10	1	-1E+10	1	-1E+10	1	-1E+10	1	-1E+10	1
4901784	72	C	06/24/2017	10:49	-132.632	43.497	0	1044.50	0	3.2750	0	34.5020	4	27.469	0	1033.566	0	15.5	4	4.8	4	-1E+10	1	-1E+10	1	-1E+10	1	-1E+10	1	-1E+10	1	-1E+10	1
4901784	72	C	06/24/2017	10:49	-132.632	43.497	0	1049.60	0	3.2700	0	34.5040	4	27.471	0	1038.600	0	15.5	4	4.8	4	-1E+10	1	-1E+10	1	-1E+10	1	-1E+10	1	-1E+10	1	-1E+10	1
4901784	72	C	06/24/2017	10:49	-132.632	43.497	0	1054.80	0	3.2680	0	34.5050	4	27.472	0	1043.733	0	15.5	4	4.8	4	-1E+10	1	-1E+10	1	-1E+10	1	-1E+10	1	-1E+10	1	-1E+10	1
4901784	72	C	06/24/2017	10:49	-132.632	43.497	0	1059.90	0	3.2640	0	34.5040	4	27.472	0	1048.767	0	15.5	4	4.8	4	-1E+10	1	-1E+10	1	-1E+10	1	-1E+10	1	-1E+10	1	-1E+10	1
4901784	72	C	06/24/2017	10:49	-132.632	43.497	0	1065.10	0	3.2560	0	34.5050	4	27.473	0	1053.899	0	15.8	4	4.9	4	-1E+10	1	-1E+10	1	-1E+10	1	-1E+10	1	-1E+10	1	-1E+10	1
4901784	72	C	06/24/2017	10:49	-132.632	43.497	0	1070.20	0	3.2530	0	34.5080	4	27.476	0	1058.932	0	16.1	4	5.0	4	-1E+10	1	-1E+10	1	-1E+10	1	-1E+10	1	-1E+10	1	-1E+10	1
4901784	72	C	06/24/2017	10:49	-132.632	43.497	0	1075.50	0	3.2530	0	34.5110	4	27.478	0	1064.163	0	16.3	4	5.1	4	-1E+10	1	-1E+10	1	-1E+10	1	-1E+10	1	-1E+10	1	-1E+10	1
4901784	72	C	06/24/2017	10:49	-132.632	43.497	0	1080.60	0	3.2460	0	34.5110	4	27.479	0	1069.196	0	16.3	4	5.1	4	-1E+10	1	-1E+10	1	-1E+10	1	-1E+10	1	-1E+10	1	-1E+10	1
4901784	72	C	06/24/2017	10:49	-132.632	43.497	0	1084.90	0	3.2380	0	34.5110	4	27.480	0	1073.440	0	16.2	4	5.0	4	-1E+10	1	-1E+10	1	-1E+10	1	-1E+10	1	-1E+10	1	-1E+10	1
4901784	72	C	06/24/2017	10:49	-132.632	43.497	0	1089.30	0	3.2260	0	34.5120	4	27.482	0	1077.782	0	16.1	4	5.0	4	-1E+10	1	-1E+10	1	-1E+10	1	-1E+10	1	-1E+10	1	-1E+10	1
4901784	72	C	06/24/2017	10:49	-132.632	43.497	0	1094.70	0	3.2120	0	34.5120	4	27.483	0	1083.111	0	16.1	4	5.0	4	-1E+10	1	-1E+10	1	-1E+10	1	-1E+10	1	-1E+10	1	-1E+10	1
4901784	72	C	06/24/2017	10:49	-132.632	43.497	0	1100.10	0	3.2120	0	34.5120	4	27.483	0	1088.440	0	16.2	4	5.0	4	-1E+10	1	-1E+10	1	-1E+10	1	-1E+10	1	-1E+10	1	-1E+10	1
4901784	72	C	06/24/2017	10:49	-132.632	43.497	0	1105.50	0	3.2090	0	34.5130	4	27.484	0	1093.769	0	16.3	4	5.1	4	-1E+10	1	-1E+10	1	-1E+10	1	-1E+10	1	-1E+10	1	-1E+10	1
4901784	72	C	06/24/2017	10:49	-132.632	43.497	0	1110.50	0	3.1890	0	34.5150	4	27.488	0	1098.703	0	16.3	4	5.0	4	-1E+10	1	-1E+10	1	-1E+10	1	-1E+10	1	-1E+10	1	-1E+10	1
4901784	72	C	06/24/2017	10:49	-132.632	43.497	0	1115.20	0	3.1750	0	34.5160	4	27.490	0	1103.340	0	16.3	4	5.1	4	-1E+10	1	-1E+10	1	-1E+10	1	-1E+10	1	-1E+10	1	-1E+10	1
4901784	72	C	06/24/2017	10:49	-132.632	43.497	0	1120.70	0	3.1720	0	34.5170	4	27.491	0	1108.767	0	16.5	4	5.1	4	-1E+10	1	-1E+10	1	-1E+10	1	-1E+10	1	-1E+10	1	-1E+10	1
4901784	72	C	06/24/2017	10:49	-132.632	43.497	0	1125.50	0	3.1610	0	34.5180	4	27.493	0	1113.504	0	16.5	4	5.1	4	-1E+10	1	-1E+10	1	-1E+10	1	-1E+10	1	-1E+10	1	-1E+10	1
4901784	72	C	06/24/2017	10:49	-132.632	43.497	0	1130.50	0	3.1550	0	34.5180	4	27.493	0	1118.437	0	16.6	4	5.1	4	-1E+10	1	-1E+10	1	-1E+10	1	-1E+10	1	-1E+10	1	-1E+10	1
4901784	72	C	06/24/2017	10:49	-132.632	43.497	0	1135.40	0	3.1480	0	34.5190	4	27.495	0	1123.272	0	16.7	4	5.2	4	-1E+10	1	-1E+10	1	-1E+10	1	-1E+10	1	-1E+10	1	-1E+10	1
4901784	72	C	06/24/2017	10:49	-132.632	43.497	0	1140.30	0	3.1390	0	34.5210	4	27.497	0	1128.106	0	16.8	4	5.2	4	-1E+10	1	-1E+10	1	-1E+10	1	-1E+10	1	-1E+10	1	-1E+10	1
4901784	72	C	06/24/2017	10:49	-132.632	43.497	0	1145.20	0	3.1280	0	34.5230	4	27.500	0	1132.940	0	16.9	4	5.2	4	-1E+10	1	-1E+10	1	-1E+10	1	-1E+10	1	-1E+10	1	-1E+10	1
4901784	72	C	06/24/2017	10:49	-132.632	43.497	0	1150.10	0	3.1250	0	34.5230	4	27.500	0	1137.775	0	16.8	4	5.2	4	-1E+10	1	-1E+10	1	-1E+10	1	-1E+10	1	-1E+10	1	-1E+10	1
4901784	72	C	06/24/2017	10:49	-132.632	43.497	0	1155.10	0	3.1120	0	34.5230	4	27.502	0	1142.708	0	16.8	4	5.2	4	-1E+10	1	-1E+10	1	-1E+10	1	-1E+10	1	-1E+10	1	-1E+10	1
4901784	72	C	06/24/2017	10:49	-132.632	43.497	0	1160.10	0	3.1100	0	34.5230	4	27.502	0	1147.640	0	17.0	4	5.3	4	-1E+10	1	-1E+10	1	-1E+10	1	-1E+10	1	-1E+10	1	-1E+10	1
4901784	72	C	06/24/2017	10:49	-132.632	43.497	0	1165.00	0	3.0940	0	34.5260	4	27.506	0	1152.474	0	17.0	4	5.3	4	-1E+10	1	-1E+10	1	-1E+10	1	-1E+10	1	-1E+10	1	-1E+10	1
4901784	72	C	06/24/2017	10:49	-132.632	43.497	0	1169.90	0	3.0890	0	34.5260	4	27.506	0	1157.308	0	17.0	4	5.3	4	-1E+10	1	-1E+10	1	-1E+10	1	-1E+10	1	-1E+10	1	-1E+10	1
4901784	72	C	06/24/2017	10:49	-132.632	43.497	0	1174.80	0	3.0800	0	34.5260	4	27.507	0	1162.142	0	17.0	4	5.3	4	-1E+10	1	-1E+10	1	-1E+10	1	-1E+10	1	-1E+10	1	-1E+10	1
4901784	72	C	06/24/2017	10:49	-132.632	43.497	0	1179.90	0	3.0690	0	34.5270	4	27.509	0	1167.173	0	17.2	4	5.3	4	-1E+10	1	-1E+10	1	-1E+10	1	-1E+10	1	-1E+10	1	-1E+10	1
4901784	72	C	06/24/2017	10:49	-132.632	43.497	0	1185.00	0	3.0650	0	34.5290	4	27.511	0	1172.203	0	17.5	4	5.4	4	-1E+10	1	-1E+10	1	-1E+10	1	-1E+10	1	-1E+10	1	-1E+10	1
4901784	72	C	06/24/2017	10:49	-132.632	43.497	0	1190.10	0	3.0620	0	34.5320	4	27.513	0	1177.234	0	18.2	4	5.6	4	-1E+10	1	-1E+10	1	-1E+10	1	-1E+10	1	-1E+10	1	-1E+10	1
4901784	72	C	06/24/2017	10:49	-132.632	43.497	0	1195.10	0	3.0750	0	34.5360	4	27.516	0	1182.166	0	18.7	4	5.8	4	-1E+10	1	-1E+10	1	-1E+10	1	-1E+10	1	-1E+10	1	-1E+10	1
4901784	72	C	06/24/2017	10:49	-132.632	43.497	0	1200.30	0	3.0550	0	34.5360	4	27.517	0	1187.295	0	18.9	4	5.8	4	-1E+10	1	-1E+10	1	-1E+10	1	-1E+10	1	-1E+10	1	-1E+10	1
4901784	72	C	06/24/2017	10:49	-132.632	43.497	0	1205.40	0	3.0490	0	34.5400	4	27.521	0	1192.325	0	19.4	4	6.0	4	-1E+10	1	-1E+10	1	-1E+10	1	-1E+10	1	-1E+10	1	-1E+10	1
4901784	72	C	06/24/2017	10:49	-132.632	43.497	0	1210.60	0	3.0470	0	34.5440	4	27.525	0	1197.454	0	19.8	4	6.1	4	-1E+10	1	-1E+10	1	-1E+10	1	-1E+10	1	-1E+10	1	-1E+10	1
4901784	72	C	06/24/2017	10:49	-132.632	43.497	0	1214.90	0	3.0220	0	34.5430	4	27.526	0	1201.695	0	19.8	4	6.1	4	-1E+10	1	-1E+10	1	-1E+10	1	-1E+10	1	-1E+10	1	-1E+10	1
4901784	72	C	06/24/2017	10:49	-132.632	43.497	0	1219.30	0	3.0250	0	34.5480	4	27.530	0	1206.035	0	20.6	4	6.4	4	-1E+10	1	-1E+10	1	-1E+10	1	-1E+10	1	-1E+10	1	-1E+10	1
4901784	72	C	06/24/2017	10:49	-132.632	43.497	0	1224.60	0	3.0440	0	34.5520	4	27.531	0	1211.262	0	21.2	4	6.6	4	-1E+10	1	-1E+10	1	-1E+10	1	-1E+10	1	-1E+10	1	-1E+10	1
4901784	72	C	06/24/2017	10:49	-132.632	43.497	0	1229.70	0	3.0390	0	34.5530	4	27.533	0	1216.291	0	21.5	4	6.6	4	-1E+10	1	-1E+10	1	-1E+10	1	-1E+10	1	-1E+10	1	-1E+10	1
4901784	72	C	06/24/2017	10:49	-132.632	43.497	0	1234.80	0	3.0250	0	34.5560	4	27.536	0	1221.321	0	21.7	4	6.7	4	-1E+10	1	-1E+10	1	-1E+10	1	-1E+10	1	-1E+10	1	-1E+10	1
4901784	72	C	06/24/2017	10:49	-132.632	43.497	0	1239.70	0	3.0170	0	34.5560	4	27.537	0	1226.153	0	21.8	4	6.7	4	-1E+10	1	-1E+10	1	-1E+10	1	-1E+10	1	-1E+10	1	-1E+10	1
4901784	72	C	06/24/2017	10:49	-132.632	43.497	0	1244.50	0	3.0090	0	34.5560	4	27.538	0	1230.887	0	21.9	4	6.8	4	-1E+10	1	-1E+10	1	-1E+10	1	-1E+10	1	-1E+10	1	-1E+10	1
4901784	72	C	06/24/2017	10:49	-132.632	43.497	0	1249.40	0	2.9990	0	34.5580	4	27.540	0	1235.719	0	22.2	4	6.9	4	-1E+10	1	-1E+10	1	-1E+10	1	-1E+10	1	-1E+10	1	-1E+10	1
4901784	72	C	06/24/2017	10:49	-132.632	43.497	0	1254.40	0	2.9970	0	34.5600	4	27.542	0	1240.649	0	22.5	4	6.9	4	-1E+10	1	-1E+10	1	-1E+10	1	-1E+10	1	-1E+10	1	-1E+10	1
4901784	72	C	06/24/2017	10:49	-132.632	43.497	0	1259.40	0	2.9940	0	34.5610	4	27.543	0	1245.580	0	22.6	4	7.0	4	-1E+10	1	-1E+10	1	-1E+10	1	-1E+10	1	-1E+10	1	-1E+10	1
4901784	72	C	06/24/2017	10:49	-132.632	43.497	0	1264.50	0	2.9820	0	34.5620	4	27.545	0	1250.609	0	22.8	4	7.0	4	-1E+10	1	-1E+10	1	-1E+10	1	-1E+10	1	-1E+10	1	-1E+10	1
4901784	72	C	06/24/2017	10:49	-132.632	43.497	0	1269.70	0	2.9760	0	34.5640	4	27.547	0	1255.736	0	23.1	4	7.1	4	-1E+10	1	-1E+10	1	-1E+10	1	-1E+10	1	-1E+10	1	-1E+10	1
4901784	72	C	06/24/2017	10:49	-132.632	43.497	0	1274.80	0	2.9700	0	34.5650	4	27.549	0	1260.765	0	23.2	4	7.2	4	-1E+10	1	-1E+10	1	-1E+10	1	-1E+10	1	-1E+10	1	-1E+10	1
4901784	72	C	06/24/2017	10:49	-132.632	43.497	0	1279.90	0	2.9670	0	34.5660	4	27.550	0	1265.793	0	23.5	4	7.2	4	-1E+10	1	-1E+10	1	-1E+10	1	-1E+10	1	-1E+10	1	-1E+10	1
4901784	72	C	06/24/2017	10:49	-132.632	43.497	0	1285.10	0	2.9580	0	34.5670	4	27.551	0	1270.920	0	23.5	4	7.3	4	-1E+10	1	-1E+10	1	-1E+10	1	-1E+10	1	-1E+10	1	-1E+10	1
4901784	72	C	06/24/2017	10:49	-132.632	43.497	0	1290.40	0	2.9400	0	34.5670	4	27.553	0	1276.146	0	23.7	4	7.3	4	-1E+10	1	-1E+10	1	-1E+10	1	-1E+10	1	-1E+10	1	-1E+10	1
4901784	72	C	06/24/2017	10:49	-132.632	43.497	0	1294.90	0	2.9330	0	34.5680	4	27.555	0	1280.582	0	23.9	4	7.4	4	-1E+10	1	-1E+10	1	-1E+10	1	-1E+10	1	-1E+10	1	-1E+10	1
4901784	72	C	06/24/2017	10:49	-132.632	43.497	0	1299.30	0	2.9290	0	34.5690	4	27.556	0	1284.920	0	24.0	4	7.4	4	-1E+10	1	-1E+10	1	-1E+10	1	-1E+10	1	-1E+10	1	-1E+10	1
4901784	72	C	06/24/2017	10:49	-132.632	43.497	0	1304.60	0	2.9140	0	34.5710	4	27.559	0	1290.145	0	24.1	4	7.4	4	-1E+10	1	-1E+10	1	-1E+10	1	-1E+10	1	-1E+10	1	-1E+10	1
4901784	72	C	06/24/2017	10:49	-132.632	43.497	0	1309.90	0	2.9110	0	34.5710	4	27.559	0	1295.370	0	24.2	4	7.5	4	-1E+10	1	-1E+10	1	-1E+10	1	-1E+10	1	-1E+10	1	-1E+10	1
4901784	72	C	06/24/2017	10:49	-132.632	43.497	0	1315.30	0	2.9050	0	34.5720	4	27.560	0	1300.694	0	24.4	4	7.5	4	-1E+10	1	-1E+10	1	-1E+10	1	-1E+10	1	-1E+10	1	-1E+10	1
4901784	72	C	06/24/2017	10:49	-132.632	43.497	0	1319.90	0	2.9010	0	34.5730	4	27.562	0	1305.229	0	24.5	4	7.6	4	-1E+10	1	-1E+10	1	-1E+10	1	-1E+10	1	-1E+10	1	-1E+10	1
4901784	72	C	06/24/2017	10:49	-132.632	43.497	0	1324.40	0	2.8930	0	34.5740	4	27.563	0	1309.665	0	24.8	4	7.6	4	-1E+10	1	-1E+10	1	-1E+10	1	-1E+10	1	-1E+10	1	-1E+10	1
4901784	72	C	06/24/2017	10:49	-132.632	43.497	0	1329.90	0	2.8960	0	34.5750	4	27.564	0	1315.086	0	25.1	4	7.7	4	-1E+10	1	-1E+10	1	-1E+10	1	-1E+10	1	-1E+10	1	-1E+10	1
4901784	72	C	06/24/2017	10:49	-132.632	43.497	0	1335.40	0	2.8930	0	34.5760	4	27.565	0	1320.508	0	25.2	4	7.8	4	-1E+10	1	-1E+10	1	-1E+10	1	-1E+10	1	-1E+10	1	-1E+10	1
4901784	72	C	06/24/2017	10:49	-132.632	43.497	0	1340.00	0	2.8770	0	34.5770	4	27.567	0	1325.042	0	25.3	4	7.8	4	-1E+10	1	-1E+10	1	-1E+10	1	-1E+10	1	-1E+10	1	-1E+10	1
4901784	72	C	06/24/2017	10:49	-132.632	43.497	0	1344.60	0	2.8710	0	34.5770	4	27.568	0	1329.576	0	25.5	4	7.9	4	-1E+10	1	-1E+10	1	-1E+10	1	-1E+10	1	-1E+10	1	-1E+10	1
4901784	72	C	06/24/2017	10:49	-132.632	43.497	0	1350.10	0	2.8730	0	34.5790	4	27.569	0	1334.997	0	25.8	4	7.9	4	-1E+10	1	-1E+10	1	-1E+10	1	-1E+10	1	-1E+10	1	-1E+10	1
4901784	72	C	06/24/2017	10:49	-132.632	43.497	0	1355.70	0	2.8490	0	34.5800	4	27.572	0	1340.517	0	25.7	4	7.9	4	-1E+10	1	-1E+10	1	-1E+10	1	-1E+10	1	-1E+10	1	-1E+10	1
4901784	72	C	06/24/2017	10:49	-132.632	43.497	0	1360.30	0	2.8340	0	34.5800	4	27.573	0	1345.051	0	25.6	4	7.9	4	-1E+10	1	-1E+10	1	-1E+10	1	-1E+10	1	-1E+10	1	-1E+10	1
4901784	72	C	06/24/2017	10:49	-132.632	43.497	0	1364.90	0	2.8210	0	34.5800	4	27.574	0	1349.584	0	25.5	4	7.9	4	-1E+10	1	-1E+10	1	-1E+10	1	-1E+10	1	-1E+10	1	-1E+10	1
4901784	72	C	06/24/2017	10:49	-132.632	43.497	0	1370.30	0	2.8160	0	34.5790	4	27.574	0	1354.906	0	25.2	4	7.8	4	-1E+10	1	-1E+10	1	-1E+10	1	-1E+10	1	-1E+10	1	-1E+10	1
4901784	72	C	06/24/2017	10:49	-132.632	43.497	0	1375.70	0	2.7930	0	34.5770	4	27.575	0	1360.228	0	24.8	4	7.6	4	-1E+10	1	-1E+10	1	-1E+10	1	-1E+10	1	-1E+10	1	-1E+10	1
4901784	72	C	06/24/2017	10:49	-132.632	43.497	0	1380.60	0	2.7720	0	34.5750	4	27.575	0	1365.057	0	24.3	4	7.5	4	-1E+10	1	-1E+10	1	-1E+10	1	-1E+10	1	-1E+10	1	-1E+10	1
4901784	72	C	06/24/2017	10:49	-132.632	43.497	0	1385.40	0	2.7630	0	34.5750	4	27.576	0	1369.788	0	24.1	4	7.4	4	-1E+10	1	-1E+10	1	-1E+10	1	-1E+10	1	-1E+10	1	-1E+10	1
4901784	72	C	06/24/2017	10:49	-132.632	43.497	0	1390.30	0	2.7500	0	34.5730	4	27.575	0	1374.617	0	23.6	4	7.2	4	-1E+10	1	-1E+10	1	-1E+10	1	-1E+10	1	-1E+10	1	-1E+10	1
4901784	72	C	06/24/2017	10:49	-132.632	43.497	0	1395.20	0	2.7190	0	34.5720	4	27.577	0	1379.445	0	23.2	4	7.1	4	-1E+10	1	-1E+10	1	-1E+10	1	-1E+10	1	-1E+10	1	-1E+10	1
4901784	72	C	06/24/2017	10:49	-132.632	43.497	0	1400.10	0	2.7100	0	34.5710	4	27.577	0	1384.274	0	23.2	4	7.1	4	-1E+10	1	-1E+10	1	-1E+10	1	-1E+10	1	-1E+10	1	-1E+10	1
4901784	72	C	06/24/2017	10:49	-132.632	43.497	0	1404.90	0	2.7030	0	34.5720	4	27.579	0	1389.004	0	23.5	4	7.2	4	-1E+10	1	-1E+10	1	-1E+10	1	-1E+10	1	-1E+10	1	-1E+10	1
4901784	72	C	06/24/2017	10:49	-132.632	43.497	0	1409.80	0	2.6920	0	34.5730	4	27.580	0	1393.832	0	23.4	4	7.2	4	-1E+10	1	-1E+10	1	-1E+10	1	-1E+10	1	-1E+10	1	-1E+10	1
4901784	72	C	06/24/2017	10:49	-132.632	43.497	0	1414.70	0	2.6770	0	34.5730	4	27.582	0	1398.660	0	23.4	4	7.2	4	-1E+10	1	-1E+10	1	-1E+10	1	-1E+10	1	-1E+10	1	-1E+10	1
4901784	72	C	06/24/2017	10:49	-132.632	43.497	0	1419.70	0	2.6750	0	34.5720	4	27.581	0	1403.587	0	23.5	4	7.2	4	-1E+10	1	-1E+10	1	-1E+10	1	-1E+10	1	-1E+10	1	-1E+10	1
4901784	72	C	06/24/2017	10:49	-132.632	43.497	0	1424.80	0	2.6490	0	34.5740	4	27.585	0	1408.612	0	23.9	4	7.3	4	-1E+10	1	-1E+10	1	-1E+10	1	-1E+10	1	-1E+10	1	-1E+10	1
4901784	72	C	06/24/2017	10:49	-132.632	43.497	0	1429.80	0	2.6390	0	34.5760	4	27.587	0	1413.539	0	24.3	4	7.4	4	-1E+10	1	-1E+10	1	-1E+10	1	-1E+10	1	-1E+10	1	-1E+10	1
4901784	72	C	06/24/2017	10:49	-132.632	43.497	0	1434.70	0	2.6330	0	34.5770	4	27.589	0	1418.367	0	24.6	4	7.5	4	-1E+10	1	-1E+10	1	-1E+10	1	-1E+10	1	-1E+10	1	-1E+10	1
4901784	72	C	06/24/2017	10:49	-132.632	43.497	0	1439.60	0	2.6310	0	34.5780	4	27.590	0	1423.194	0	24.8	4	7.6	4	-1E+10	1	-1E+10	1	-1E+10	1	-1E+10	1	-1E+10	1	-1E+10	1
4901784	72	C	06/24/2017	10:49	-132.632	43.497	0	1444.60	0	2.6260	0	34.5790	4	27.591	0	1428.120	0	25.0	4	7.7	4	-1E+10	1	-1E+10	1	-1E+10	1	-1E+10	1	-1E+10	1	-1E+10	1
4901784	72	C	06/24/2017	10:49	-132.632	43.497	0	1449.60	0	2.6230	0	34.5800	4	27.592	0	1433.046	0	25.6	4	7.8	4	-1E+10	1	-1E+10	1	-1E+10	1	-1E+10	1	-1E+10	1	-1E+10	1
4901784	72	C	06/24/2017	10:49	-132.632	43.497	0	1454.70	0	2.6250	0	34.5820	4	27.594	0	1438.071	0	25.9	4	7.9	4	-1E+10	1	-1E+10	1	-1E+10	1	-1E+10	1	-1E+10	1	-1E+10	1
4901784	72	C	06/24/2017	10:49	-132.632	43.497	0	1459.80	0	2.6220	0	34.5830	4	27.595	0	1443.095	0	26.3	4	8.0	4	-1E+10	1	-1E+10	1	-1E+10	1	-1E+10	1	-1E+10	1	-1E+10	1
4901784	72	C	06/24/2017	10:49	-132.632	43.497	0	1465.00	0	2.6120	0	34.5820	4	27.595	0	1448.218	0	26.6	4	8.1	4	-1E+10	1	-1E+10	1	-1E+10	1	-1E+10	1	-1E+10	1	-1E+10	1
4901784	72	C	06/24/2017	10:49	-132.632	43.497	0	1470.10	0	2.6010	0	34.5840	4	27.597	0	1453.242	0	27.0	4	8.3	4	-1E+10	1	-1E+10	1	-1E+10	1	-1E+10	1	-1E+10	1	-1E+10	1
4901784	72	C	06/24/2017	10:49	-132.632	43.497	0	1475.20	0	2.5810	0	34.5860	4	27.601	0	1458.266	0	27.2	4	8.3	4	-1E+10	1	-1E+10	1	-1E+10	1	-1E+10	1	-1E+10	1	-1E+10	1
4901784	72	C	06/24/2017	10:49	-132.632	43.497	0	1480.30	0	2.5630	0	34.5880	4	27.604	0	1463.290	0	27.3	4	8.4	4	-1E+10	1	-1E+10	1	-1E+10	1	-1E+10	1	-1E+10	1	-1E+10	1
4901784	72	C	06/24/2017	10:49	-132.632	43.497	0	1485.60	0	2.5500	0	34.5880	4	27.605	0	1468.510	0	27.4	4	8.4	4	-1E+10	1	-1E+10	1	-1E+10	1	-1E+10	1	-1E+10	1	-1E+10	1
4901784	72	C	06/24/2017	10:49	-132.632	43.497	0	1489.90	0	2.5420	0	34.5880	4	27.606	0	1472.746	0	27.4	4	8.4	4	-1E+10	1	-1E+10	1	-1E+10	1	-1E+10	1	-1E+10	1	-1E+10	1
4901784	72	C	06/24/2017	10:49	-132.632	43.497	0	1494.40	0	2.5370	0	34.5870	4	27.605	0	1477.178	0	27.5	4	8.4	4	-1E+10	1	-1E+10	1	-1E+10	1	-1E+10	1	-1E+10	1	-1E+10	1
4901784	72	C	06/24/2017	10:49	-132.632	43.497	0	1499.70	0	2.5280	0	34.5880	4	27.607	0	1482.399	0	27.8	4	8.5	4	-1E+10	1	-1E+10	1	-1E+10	1	-1E+10	1	-1E+10	1	-1E+10	1
4901784	72	C	06/24/2017	10:49	-132.632	43.497	0	1505.00	0	2.5150	0	34.5900	4	27.610	0	1487.619	0	28.2	4	8.6	4	-1E+10	1	-1E+10	1	-1E+10	1	-1E+10	1	-1E+10	1	-1E+10	1
4901784	72	C	06/24/2017	10:49	-132.632	43.497	0	1510.30	0	2.5020	0	34.5910	4	27.611	0	1492.839	0	28.4	4	8.7	4	-1E+10	1	-1E+10	1	-1E+10	1	-1E+10	1	-1E+10	1	-1E+10	1
4901784	72	C	06/24/2017	10:49	-132.632	43.497	0	1514.80	0	2.4960	0	34.5920	4	27.613	0	1497.271	0	28.6	4	8.7	4	-1E+10	1	-1E+10	1	-1E+10	1	-1E+10	1	-1E+10	1	-1E+10	1
4901784	72	C	06/24/2017	10:49	-132.632	43.497	0	1519.40	0	2.4920	0	34.5920	4	27.613	0	1501.801	0	28.8	4	8.8	4	-1E+10	1	-1E+10	1	-1E+10	1	-1E+10	1	-1E+10	1	-1E+10	1
4901784	72	C	06/24/2017	10:49	-132.632	43.497	0	1524.70	0	2.4760	0	34.5940	4	27.616	0	1507.021	0	29.2	4	8.9	4	-1E+10	1	-1E+10	1	-1E+10	1	-1E+10	1	-1E+10	1	-1E+10	1
4901784	72	C	06/24/2017	10:49	-132.632	43.497	0	1530.00	0	2.4650	0	34.5930	4	27.616	0	1512.241	0	29.6	4	9.0	4	-1E+10	1	-1E+10	1	-1E+10	1	-1E+10	1	-1E+10	1	-1E+10	1
4901784	72	C	06/24/2017	10:49	-132.632	43.497	0	1535.40	0	2.4510	0	34.5960	4	27.620	0	1517.559	0	29.9	4	9.1	4	-1E+10	1	-1E+10	1	-1E+10	1	-1E+10	1	-1E+10	1	-1E+10	1
4901784	72	C	06/24/2017	10:49	-132.632	43.497	0	1539.90	0	2.4450	0	34.5970	4	27.621	0	1521.990	0	30.0	4	9.2	4	-1E+10	1	-1E+10	1	-1E+10	1	-1E+10	1	-1E+10	1	-1E+10	1
4901784	72	C	06/24/2017	10:49	-132.632	43.497	0	1544.40	0	2.4370	0	34.5980	4	27.623	0	1526.422	0	30.2	4	9.2	4	-1E+10	1	-1E+10	1	-1E+10	1	-1E+10	1	-1E+10	1	-1E+10	1
4901784	72	C	06/24/2017	10:49	-132.632	43.497	0	1549.80	0	2.4310	0	34.5980	4	27.623	0	1531.739	0	30.5	4	9.3	4	-1E+10	1	-1E+10	1	-1E+10	1	-1E+10	1	-1E+10	1	-1E+10	1
4901784	72	C	06/24/2017	10:49	-132.632	43.497	0	1555.10	0	2.4160	0	34.6000	4	27.626	0	1536.958	0	31.0	4	9.4	4	-1E+10	1	-1E+10	1	-1E+10	1	-1E+10	1	-1E+10	1	-1E+10	1
4901784	72	C	06/24/2017	10:49	-132.632	43.497	0	1560.40	0	2.4070	0	34.6010	4	27.628	0	1542.177	0	31.4	4	9.6	4	-1E+10	1	-1E+10	1	-1E+10	1	-1E+10	1	-1E+10	1	-1E+10	1
4901784	72	C	06/24/2017	10:49	-132.632	43.497	0	1565.20	0	2.3910	0	34.6030	4	27.631	0	1546.903	0	31.8	4	9.7	4	-1E+10	1	-1E+10	1	-1E+10	1	-1E+10	1	-1E+10	1	-1E+10	1
4901784	72	C	06/24/2017	10:49	-132.632	43.497	0	1570.00	0	2.3860	0	34.6020	4	27.630	0	1551.630	0	32.0	4	9.8	4	-1E+10	1	-1E+10	1	-1E+10	1	-1E+10	1	-1E+10	1	-1E+10	1
4901784	72	C	06/24/2017	10:49	-132.632	43.497	0	1574.90	0	2.3790	0	34.6040	4	27.632	0	1556.454	0	32.4	4	9.9	4	-1E+10	1	-1E+10	1	-1E+10	1	-1E+10	1	-1E+10	1	-1E+10	1
4901784	72	C	06/24/2017	10:49	-132.632	43.497	0	1579.80	0	2.3670	0	34.6050	4	27.634	0	1561.279	0	32.8	4	10.0	4	-1E+10	1	-1E+10	1	-1E+10	1	-1E+10	1	-1E+10	1	-1E+10	1
4901784	72	C	06/24/2017	10:49	-132.632	43.497	0	1584.70	0	2.3600	0	34.6070	4	27.636	0	1566.103	0	33.1	4	10.1	4	-1E+10	1	-1E+10	1	-1E+10	1	-1E+10	1	-1E+10	1	-1E+10	1
4901784	72	C	06/24/2017	10:49	-132.632	43.497	0	1589.70	0	2.3530	0	34.6070	4	27.637	0	1571.026	0	33.4	4	10.2	4	-1E+10	1	-1E+10	1	-1E+10	1	-1E+10	1	-1E+10	1	-1E+10	1
4901784	72	C	06/24/2017	10:49	-132.632	43.497	0	1594.80	0	2.3420	0	34.6080	4	27.639	0	1576.047	0	33.9	4	10.3	4	-1E+10	1	-1E+10	1	-1E+10	1	-1E+10	1	-1E+10	1	-1E+10	1
4901784	72	C	06/24/2017	10:49	-132.632	43.497	0	1599.80	0	2.3290	0	34.6100	4	27.641	0	1580.970	0	34.2	4	10.4	4	-1E+10	1	-1E+10	1	-1E+10	1	-1E+10	1	-1E+10	1	-1E+10	1
4901784	72	C	06/24/2017	10:49	-132.632	43.497	0	1604.90	0	2.3240	0	34.6110	4	27.643	0	1585.991	0	34.5	4	10.5	4	-1E+10	1	-1E+10	1	-1E+10	1	-1E+10	1	-1E+10	1	-1E+10	1
4901784	72	C	06/24/2017	10:49	-132.632	43.497	0	1609.90	0	2.3200	0	34.6110	4	27.643	0	1590.913	0	34.7	4	10.5	4	-1E+10	1	-1E+10	1	-1E+10	1	-1E+10	1	-1E+10	1	-1E+10	1
4901784	72	C	06/24/2017	10:49	-132.632	43.497	0	1615.10	0	2.3130	0	34.6120	4	27.644	0	1596.032	0	34.9	4	10.6	4	-1E+10	1	-1E+10	1	-1E+10	1	-1E+10	1	-1E+10	1	-1E+10	1
4901784	72	C	06/24/2017	10:49	-132.632	43.497	0	1620.20	0	2.3090	0	34.6130	4	27.646	0	1601.053	0	35.2	4	10.7	4	-1E+10	1	-1E+10	1	-1E+10	1	-1E+10	1	-1E+10	1	-1E+10	1
4901784	72	C	06/24/2017	10:49	-132.632	43.497	0	1625.40	0	2.3030	0	34.6130	4	27.646	0	1606.172	0	35.5	4	10.8	4	-1E+10	1	-1E+10	1	-1E+10	1	-1E+10	1	-1E+10	1	-1E+10	1
4901784	72	C	06/24/2017	10:49	-132.632	43.497	0	1630.70	0	2.2940	0	34.6150	4	27.649	0	1611.389	0	36.0	4	10.9	4	-1E+10	1	-1E+10	1	-1E+10	1	-1E+10	1	-1E+10	1	-1E+10	1
4901784	72	C	06/24/2017	10:49	-132.632	43.497	0	1635.00	0	2.2840	0	34.6160	4	27.650	0	1615.621	0	36.4	4	11.1	4	-1E+10	1	-1E+10	1	-1E+10	1	-1E+10	1	-1E+10	1	-1E+10	1
4901784	72	C	06/24/2017	10:49	-132.632	43.497	0	1639.40	0	2.2740	0	34.6170	4	27.652	0	1619.952	0	36.8	4	11.2	4	-1E+10	1	-1E+10	1	-1E+10	1	-1E+10	1	-1E+10	1	-1E+10	1
4901784	72	C	06/24/2017	10:49	-132.632	43.497	0	1644.60	0	2.2680	0	34.6180	4	27.653	0	1625.071	0	37.1	4	11.2	4	-1E+10	1	-1E+10	1	-1E+10	1	-1E+10	1	-1E+10	1	-1E+10	1
4901784	72	C	06/24/2017	10:49	-132.632	43.497	0	1649.80	0	2.2650	0	34.6180	4	27.653	0	1630.189	0	37.4	4	11.4	4	-1E+10	1	-1E+10	1	-1E+10	1	-1E+10	1	-1E+10	1	-1E+10	1
4901784	72	C	06/24/2017	10:49	-132.632	43.497	0	1654.90	0	2.2520	0	34.6200	4	27.656	0	1635.209	0	38.0	4	11.5	4	-1E+10	1	-1E+10	1	-1E+10	1	-1E+10	1	-1E+10	1	-1E+10	1
4901784	72	C	06/24/2017	10:49	-132.632	43.497	0	1660.20	0	2.2410	0	34.6220	4	27.659	0	1640.425	0	38.5	4	11.7	4	-1E+10	1	-1E+10	1	-1E+10	1	-1E+10	1	-1E+10	1	-1E+10	1
4901784	72	C	06/24/2017	10:49	-132.632	43.497	0	1665.40	0	2.2310	0	34.6230	4	27.660	0	1645.543	0	38.8	4	11.8	4	-1E+10	1	-1E+10	1	-1E+10	1	-1E+10	1	-1E+10	1	-1E+10	1
4901784	72	C	06/24/2017	10:49	-132.632	43.497	0	1670.70	0	2.2280	0	34.6230	4	27.660	0	1650.759	0	39.0	4	11.8	4	-1E+10	1	-1E+10	1	-1E+10	1	-1E+10	1	-1E+10	1	-1E+10	1
4901784	72	C	06/24/2017	10:49	-132.632	43.497	0	1675.00	0	2.2240	0	34.6240	4	27.662	0	1654.991	0	39.4	4	12.0	4	-1E+10	1	-1E+10	1	-1E+10	1	-1E+10	1	-1E+10	1	-1E+10	1
4901784	72	C	06/24/2017	10:49	-132.632	43.497	0	1679.40	0	2.2140	0	34.6250	4	27.663	0	1659.321	0	39.9	4	12.1	4	-1E+10	1	-1E+10	1	-1E+10	1	-1E+10	1	-1E+10	1	-1E+10	1
4901784	72	C	06/24/2017	10:49	-132.632	43.497	0	1684.80	0	2.2030	0	34.6270	4	27.666	0	1664.636	0	40.4	4	12.3	4	-1E+10	1	-1E+10	1	-1E+10	1	-1E+10	1	-1E+10	1	-1E+10	1
4901784	72	C	06/24/2017	10:49	-132.632	43.497	0	1690.10	0	2.1940	0	34.6280	4	27.667	0	1669.851	0	41.0	4	12.4	4	-1E+10	1	-1E+10	1	-1E+10	1	-1E+10	1	-1E+10	1	-1E+10	1
4901784	72	C	06/24/2017	10:49	-132.632	43.497	0	1695.40	0	2.1810	0	34.6300	4	27.670	0	1675.067	0	41.4	4	12.6	4	-1E+10	1	-1E+10	1	-1E+10	1	-1E+10	1	-1E+10	1	-1E+10	1
4901784	72	C	06/24/2017	10:49	-132.632	43.497	0	1699.90	0	2.1750	0	34.6310	4	27.671	0	1679.495	0	41.7	4	12.6	4	-1E+10	1	-1E+10	1	-1E+10	1	-1E+10	1	-1E+10	1	-1E+10	1
4901784	72	C	06/24/2017	10:49	-132.632	43.497	0	1704.40	0	2.1730	0	34.6310	4	27.671	0	1683.923	0	41.9	4	12.7	4	-1E+10	1	-1E+10	1	-1E+10	1	-1E+10	1	-1E+10	1	-1E+10	1
4901784	72	C	06/24/2017	10:49	-132.632	43.497	0	1709.70	0	2.1700	0	34.6310	4	27.672	0	1689.138	0	42.2	4	12.8	4	-1E+10	1	-1E+10	1	-1E+10	1	-1E+10	1	-1E+10	1	-1E+10	1
4901784	72	C	06/24/2017	10:49	-132.632	43.497	0	1715.20	0	2.1610	0	34.6330	4	27.674	0	1694.550	0	42.6	4	12.9	4	-1E+10	1	-1E+10	1	-1E+10	1	-1E+10	1	-1E+10	1	-1E+10	1
4901784	72	C	06/24/2017	10:49	-132.632	43.497	0	1720.60	0	2.1530	0	34.6340	4	27.676	0	1699.864	0	43.0	4	13.0	4	-1E+10	1	-1E+10	1	-1E+10	1	-1E+10	1	-1E+10	1	-1E+10	1
4901784	72	C	06/24/2017	10:49	-132.632	43.497	0	1725.10	0	2.1510	0	34.6340	4	27.676	0	1704.291	0	43.1	4	13.1	4	-1E+10	1	-1E+10	1	-1E+10	1	-1E+10	1	-1E+10	1	-1E+10	1
4901784	72	C	06/24/2017	10:49	-132.632	43.497	0	1729.80	0	2.1480	0	34.6350	4	27.677	0	1708.916	0	43.5	4	13.2	4	-1E+10	1	-1E+10	1	-1E+10	1	-1E+10	1	-1E+10	1	-1E+10	1
4901784	72	C	06/24/2017	10:49	-132.632	43.497	0	1735.00	0	2.1430	0	34.6360	4	27.678	0	1714.032	0	43.9	4	13.3	4	-1E+10	1	-1E+10	1	-1E+10	1	-1E+10	1	-1E+10	1	-1E+10	1
4901784	72	C	06/24/2017	10:49	-132.632	43.497	0	1739.80	0	2.1400	0	34.6370	4	27.679	0	1718.755	0	44.3	4	13.4	4	-1E+10	1	-1E+10	1	-1E+10	1	-1E+10	1	-1E+10	1	-1E+10	1
4901784	72	C	06/24/2017	10:49	-132.632	43.497	0	1744.50	0	2.1360	0	34.6380	4	27.680	0	1723.379	0	44.6	4	13.5	4	-1E+10	1	-1E+10	1	-1E+10	1	-1E+10	1	-1E+10	1	-1E+10	1
4901784	72	C	06/24/2017	10:49	-132.632	43.497	0	1749.30	0	2.1260	0	34.6390	4	27.682	0	1728.101	0	44.9	4	13.6	4	-1E+10	1	-1E+10	1	-1E+10	1	-1E+10	1	-1E+10	1	-1E+10	1
4901784	72	C	06/24/2017	10:49	-132.632	43.497	0	1755.00	0	2.1230	0	34.6400	4	27.683	0	1733.709	0	45.1	4	13.6	4	-1E+10	1	-1E+10	1	-1E+10	1	-1E+10	1	-1E+10	1	-1E+10	1
4901784	72	C	06/24/2017	10:49	-132.632	43.497	0	1760.70	0	2.1210	0	34.6400	4	27.683	0	1739.316	0	45.2	4	13.7	4	-1E+10	1	-1E+10	1	-1E+10	1	-1E+10	1	-1E+10	1	-1E+10	1
4901784	72	C	06/24/2017	10:49	-132.632	43.497	0	1765.70	0	2.1200	0	34.6400	4	27.683	0	1744.235	0	45.4	4	13.7	4	-1E+10	1	-1E+10	1	-1E+10	1	-1E+10	1	-1E+10	1	-1E+10	1
4901784	72	C	06/24/2017	10:49	-132.632	43.497	0	1770.60	0	2.1180	0	34.6400	4	27.683	0	1749.055	0	45.8	4	13.9	4	-1E+10	1	-1E+10	1	-1E+10	1	-1E+10	1	-1E+10	1	-1E+10	1
4901784	72	C	06/24/2017	10:49	-132.632	43.497	0	1775.60	0	2.1050	0	34.6420	4	27.686	0	1753.974	0	46.4	4	14.0	4	-1E+10	1	-1E+10	1	-1E+10	1	-1E+10	1	-1E+10	1	-1E+10	1
4901784	72	C	06/24/2017	10:49	-132.632	43.497	0	1780.60	0	2.0960	0	34.6430	4	27.688	0	1758.892	0	46.7	4	14.1	4	-1E+10	1	-1E+10	1	-1E+10	1	-1E+10	1	-1E+10	1	-1E+10	1
4901784	72	C	06/24/2017	10:49	-132.632	43.497	0	1785.60	0	2.0930	0	34.6440	4	27.689	0	1763.810	0	46.8	4	14.2	4	-1E+10	1	-1E+10	1	-1E+10	1	-1E+10	1	-1E+10	1	-1E+10	1
4901784	72	C	06/24/2017	10:49	-132.632	43.497	0	1790.60	0	2.0920	0	34.6440	4	27.689	0	1768.729	0	47.1	4	14.2	4	-1E+10	1	-1E+10	1	-1E+10	1	-1E+10	1	-1E+10	1	-1E+10	1
4901784	72	C	06/24/2017	10:49	-132.632	43.497	0	1795.70	0	2.0850	0	34.6450	4	27.690	0	1773.745	0	47.6	4	14.4	4	-1E+10	1	-1E+10	1	-1E+10	1	-1E+10	1	-1E+10	1	-1E+10	1
4901784	72	C	06/24/2017	10:49	-132.632	43.497	0	1800.80	0	2.0770	0	34.6460	4	27.692	0	1778.761	0	48.0	4	14.5	4	-1E+10	1	-1E+10	1	-1E+10	1	-1E+10	1	-1E+10	1	-1E+10	1
4901784	72	C	06/24/2017	10:49	-132.632	43.497	0	1805.00	0	2.0710	0	34.6450	4	27.691	0	1782.892	0	48.3	4	14.6	4	-1E+10	1	-1E+10	1	-1E+10	1	-1E+10	1	-1E+10	1	-1E+10	1
4901784	72	C	06/24/2017	10:49	-132.632	43.497	0	1809.30	0	2.0650	0	34.6460	4	27.693	0	1787.122	0	48.6	4	14.7	4	-1E+10	1	-1E+10	1	-1E+10	1	-1E+10	1	-1E+10	1	-1E+10	1
4901784	72	C	06/24/2017	10:49	-132.632	43.497	0	1814.50	0	2.0620	0	34.6480	4	27.694	0	1792.236	0	48.8	4	14.8	4	-1E+10	1	-1E+10	1	-1E+10	1	-1E+10	1	-1E+10	1	-1E+10	1
4901784	72	C	06/24/2017	10:49	-132.632	43.497	0	1819.70	0	2.0610	0	34.6480	4	27.695	0	1797.350	0	49.0	4	14.8	4	-1E+10	1	-1E+10	1	-1E+10	1	-1E+10	1	-1E+10	1	-1E+10	1
4901784	72	C	06/24/2017	10:49	-132.632	43.497	0	1824.90	0	2.0590	0	34.6490	4	27.696	0	1802.464	0	49.2	4	14.9	4	-1E+10	1	-1E+10	1	-1E+10	1	-1E+10	1	-1E+10	1	-1E+10	1
4901784	72	C	06/24/2017	10:49	-132.632	43.497	0	1830.00	0	2.0550	0	34.6490	4	27.696	0	1807.480	0	49.4	4	14.9	4	-1E+10	1	-1E+10	1	-1E+10	1	-1E+10	1	-1E+10	1	-1E+10	1
4901784	72	C	06/24/2017	10:49	-132.632	43.497	0	1835.30	0	2.0530	0	34.6490	4	27.696	0	1812.692	0	49.8	4	15.0	4	-1E+10	1	-1E+10	1	-1E+10	1	-1E+10	1	-1E+10	1	-1E+10	1
4901784	72	C	06/24/2017	10:49	-132.632	43.497	0	1840.60	0	2.0440	0	34.6510	4	27.698	0	1817.904	0	50.2	4	15.2	4	-1E+10	1	-1E+10	1	-1E+10	1	-1E+10	1	-1E+10	1	-1E+10	1
4901784	72	C	06/24/2017	10:49	-132.632	43.497	0	1845.00	0	2.0420	0	34.6510	4	27.699	0	1822.231	0	50.3	4	15.2	4	-1E+10	1	-1E+10	1	-1E+10	1	-1E+10	1	-1E+10	1	-1E+10	1
4901784	72	C	06/24/2017	10:49	-132.632	43.497	0	1849.50	0	2.0380	0	34.6520	4	27.700	0	1826.656	0	50.5	4	15.2	4	-1E+10	1	-1E+10	1	-1E+10	1	-1E+10	1	-1E+10	1	-1E+10	1
4901784	72	C	06/24/2017	10:49	-132.632	43.497	0	1854.80	0	2.0360	0	34.6520	4	27.700	0	1831.868	0	50.7	4	15.3	4	-1E+10	1	-1E+10	1	-1E+10	1	-1E+10	1	-1E+10	1	-1E+10	1
4901784	72	C	06/24/2017	10:49	-132.632	43.497	0	1860.10	0	2.0330	0	34.6510	4	27.699	0	1837.079	0	51.1	4	15.4	4	-1E+10	1	-1E+10	1	-1E+10	1	-1E+10	1	-1E+10	1	-1E+10	1
4901784	72	C	06/24/2017	10:49	-132.632	43.497	0	1865.50	0	2.0230	0	34.6520	4	27.701	0	1842.389	0	51.7	4	15.6	4	-1E+10	1	-1E+10	1	-1E+10	1	-1E+10	1	-1E+10	1	-1E+10	1
4901784	72	C	06/24/2017	10:49	-132.632	43.497	0	1870.00	0	2.0190	0	34.6530	4	27.702	0	1846.814	0	52.0	4	15.7	4	-1E+10	1	-1E+10	1	-1E+10	1	-1E+10	1	-1E+10	1	-1E+10	1
4901784	72	C	06/24/2017	10:49	-132.632	43.497	0	1874.50	0	2.0150	0	34.6540	4	27.703	0	1851.239	0	52.2	4	15.7	4	-1E+10	1	-1E+10	1	-1E+10	1	-1E+10	1	-1E+10	1	-1E+10	1
4901784	72	C	06/24/2017	10:49	-132.632	43.497	0	1880.00	0	2.0120	0	34.6540	4	27.704	0	1856.646	0	52.4	4	15.8	4	-1E+10	1	-1E+10	1	-1E+10	1	-1E+10	1	-1E+10	1	-1E+10	1
4901784	72	C	06/24/2017	10:49	-132.632	43.497	0	1885.40	0	2.0110	0	34.6550	4	27.704	0	1861.956	0	52.8	4	15.9	4	-1E+10	1	-1E+10	1	-1E+10	1	-1E+10	1	-1E+10	1	-1E+10	1
4901784	72	C	06/24/2017	10:49	-132.632	43.497	0	1889.90	0	2.0060	0	34.6560	4	27.706	0	1866.380	0	53.3	4	16.1	4	-1E+10	1	-1E+10	1	-1E+10	1	-1E+10	1	-1E+10	1	-1E+10	1
4901784	72	C	06/24/2017	10:49	-132.632	43.497	0	1894.60	0	2.0000	0	34.6570	4	27.707	0	1871.001	0	53.6	4	16.2	4	-1E+10	1	-1E+10	1	-1E+10	1	-1E+10	1	-1E+10	1	-1E+10	1
4901784	72	C	06/24/2017	10:49	-132.632	43.497	0	1900.10	0	1.9990	0	34.6580	4	27.708	0	1876.408	0	53.8	4	16.2	4	-1E+10	1	-1E+10	1	-1E+10	1	-1E+10	1	-1E+10	1	-1E+10	1
4901784	72	C	06/24/2017	10:49	-132.632	43.497	0	1904.80	0	1.9980	0	34.6580	4	27.708	0	1881.029	0	53.9	4	16.3	4	-1E+10	1	-1E+10	1	-1E+10	1	-1E+10	1	-1E+10	1	-1E+10	1
4901784	72	C	06/24/2017	10:49	-132.632	43.497	0	1909.50	0	1.9970	0	34.6580	4	27.708	0	1885.649	0	54.2	4	16.4	4	-1E+10	1	-1E+10	1	-1E+10	1	-1E+10	1	-1E+10	1	-1E+10	1
4901784	72	C	06/24/2017	10:49	-132.632	43.497	0	1915.10	0	1.9940	0	34.6590	4	27.709	0	1891.154	0	54.7	4	16.5	4	-1E+10	1	-1E+10	1	-1E+10	1	-1E+10	1	-1E+10	1	-1E+10	1
4901784	72	C	06/24/2017	10:49	-132.632	43.497	0	1919.80	0	1.9870	0	34.6610	4	27.711	0	1895.775	0	55.3	4	16.7	4	-1E+10	1	-1E+10	1	-1E+10	1	-1E+10	1	-1E+10	1	-1E+10	1
4901784	72	C	06/24/2017	10:49	-132.632	43.497	0	1924.50	0	1.9810	0	34.6610	4	27.712	0	1900.395	0	55.7	4	16.8	4	-1E+10	1	-1E+10	1	-1E+10	1	-1E+10	1	-1E+10	1	-1E+10	1
4901784	72	C	06/24/2017	10:49	-132.632	43.497	0	1930.00	0	1.9760	0	34.6630	4	27.714	0	1905.801	0	56.0	4	16.9	4	-1E+10	1	-1E+10	1	-1E+10	1	-1E+10	1	-1E+10	1	-1E+10	1
4901784	72	C	06/24/2017	10:49	-132.632	43.497	0	1935.50	0	1.9730	0	34.6630	4	27.714	0	1911.208	0	56.1	4	16.9	4	-1E+10	1	-1E+10	1	-1E+10	1	-1E+10	1	-1E+10	1	-1E+10	1
4901784	72	C	06/24/2017	10:49	-132.632	43.497	0	1940.50	0	1.9720	0	34.6630	4	27.714	0	1916.123	0	56.3	4	17.0	4	-1E+10	1	-1E+10	1	-1E+10	1	-1E+10	1	-1E+10	1	-1E+10	1
4901784	72	C	06/24/2017	10:49	-132.632	43.497	0	1945.50	0	1.9700	0	34.6630	4	27.714	0	1921.037	0	56.4	4	17.0	4	-1E+10	1	-1E+10	1	-1E+10	1	-1E+10	1	-1E+10	1	-1E+10	1
4901784	72	C	06/24/2017	10:49	-132.632	43.497	0	1950.60	0	1.9690	0	34.6630	4	27.714	0	1926.050	0	56.6	4	17.1	4	-1E+10	1	-1E+10	1	-1E+10	1	-1E+10	1	-1E+10	1	-1E+10	1
4901784	72	C	06/24/2017	10:49	-132.632	43.497	0	1955.70	0	1.9660	0	34.6640	4	27.716	0	1931.063	0	57.0	4	17.2	4	-1E+10	1	-1E+10	1	-1E+10	1	-1E+10	1	-1E+10	1	-1E+10	1
4901784	72	C	06/24/2017	10:49	-132.632	43.497	0	1959.90	0	1.9600	0	34.6650	4	27.717	0	1935.191	0	57.4	4	17.3	4	-1E+10	1	-1E+10	1	-1E+10	1	-1E+10	1	-1E+10	1	-1E+10	1
4901784	72	C	06/24/2017	10:49	-132.632	43.497	0	1964.20	0	1.9580	0	34.6650	4	27.717	0	1939.417	0	57.5	4	17.3	4	-1E+10	1	-1E+10	1	-1E+10	1	-1E+10	1	-1E+10	1	-1E+10	1
4901784	72	C	06/24/2017	10:49	-132.632	43.497	0	1969.40	0	1.9550	0	34.6660	4	27.718	0	1944.528	0	57.8	4	17.4	4	-1E+10	1	-1E+10	1	-1E+10	1	-1E+10	1	-1E+10	1	-1E+10	1
4901784	72	C	06/24/2017	10:49	-132.632	43.497	0	1974.60	0	1.9510	0	34.6670	4	27.719	0	1949.638	0	58.1	4	17.5	4	-1E+10	1	-1E+10	1	-1E+10	1	-1E+10	1	-1E+10	1	-1E+10	1
4901784	72	C	06/24/2017	10:49	-132.632	43.497	0	1979.80	0	1.9470	0	34.6670	4	27.720	0	1954.749	0	58.4	4	17.6	4	-1E+10	1	-1E+10	1	-1E+10	1	-1E+10	1	-1E+10	1	-1E+10	1
4901784	72	C	06/24/2017	10:49	-132.632	43.497	0	1985.00	0	1.9430	0	34.6680	4	27.721	0	1959.859	0	58.6	4	17.6	4	-1E+10	1	-1E+10	1	-1E+10	1	-1E+10	1	-1E+10	1	-1E+10	1
4901784	72	C	06/24/2017	10:49	-132.632	43.497	0	1990.20	0	1.9400	0	34.6690	4	27.722	0	1964.969	0	58.7	4	17.7	4	-1E+10	1	-1E+10	1	-1E+10	1	-1E+10	1	-1E+10	1	-1E+10	1
4901784	72	C	06/24/2017	10:49	-132.632	43.497	0	1995.50	0	1.9390	0	34.6690	4	27.722	0	1970.177	0	58.9	4	17.7	4	-1E+10	1	-1E+10	1	-1E+10	1	-1E+10	1	-1E+10	1	-1E+10	1
4901784	72	C	06/24/2017	10:49	-132.632	43.497	0	2000.40	0	1.9360	0	34.6690	4	27.722	0	1974.993	0	59.0	4	17.8	4	-1E+10	1	-1E+10	1	-1E+10	1	-1E+10	1	-1E+10	1	-1E+10	1
4901784	72	C	06/24/2017	10:49	-132.632	43.497	0	2004.40	0	1.9340	0	34.6690	4	27.722	0	1978.923	0	59.2	4	17.8	4	-1E+10	1	-1E+10	1	-1E+10	1	-1E+10	1	-1E+10	1	-1E+10	1
4901784	72	C	06/24/2017	10:49	-132.632	43.497	0	2010.10	0	1.9290	0	34.6700	4	27.723	0	1984.524	0	59.5	4	17.9	4	-1E+10	1	-1E+10	1	-1E+10	1	-1E+10	1	-1E+10	1	-1E+10	1
4901784	72	C	06/24/2017	10:49	-132.632	43.497	0	2015.40	0	1.9260	0	34.6710	4	27.725	0	1989.732	0	59.6	4	18.0	4	-1E+10	1	-1E+10	1	-1E+10	1	-1E+10	1	-1E+10	1	-1E+10	1
4901784	72	C	06/24/2017	10:49	-132.632	43.497	0	2020.20	0	1.9250	0	34.6710	4	27.725	0	1994.449	0	59.7	4	18.0	4	-1E+10	1	-1E+10	1	-1E+10	1	-1E+10	1	-1E+10	1	-1E+10	1
4901784	72	C	06/24/2017	10:49	-132.632	43.497	0																										
4901784	73	C	07/04/2017	10:35	-132.629	43.554	0	3.50	0	14.3700	0	32.8260	4	24.431	0	3.472	0	250.4	4	98.3	4	-1E+10	1	-1E+10	1	-1E+10	1	-1E+10	1	-1E+10	1	-1E+10	1
4901784	73	C	07/04/2017	10:35	-132.629	43.554	0	5.30	0	14.3710	0	32.8260	4	24.431	0	5.258	0	250.5	4	98.3	4	-1E+10	1	-1E+10	1	-1E+10	1	-1E+10	1	-1E+10	1	-1E+10	1
4901784	73	C	07/04/2017	10:35	-132.629	43.554	0	7.10	0	14.3720	0	32.8250	4	24.430	0	7.043	0	250.2	4	98.2	4	-1E+10	1	-1E+10	1	-1E+10	1	-1E+10	1	-1E+10	1	-1E+10	1
4901784	73	C	07/04/2017	10:35	-132.629	43.554	0	8.90	0	14.3710	0	32.8250	4	24.430	0	8.829	0	250.3	4	98.3	4	-1E+10	1	-1E+10	1	-1E+10	1	-1E+10	1	-1E+10	1	-1E+10	1
4901784	73	C	07/04/2017	10:35	-132.629	43.554	0	10.80	0	14.3730	0	32.8230	4	24.429	0	10.713	0	250.3	4	98.3	4	-1E+10	1	-1E+10	1	-1E+10	1	-1E+10	1	-1E+10	1	-1E+10	1
4901784	73	C	07/04/2017	10:35	-132.629	43.554	0	12.60	0	14.3640	0	32.8230	4	24.431	0	12.499	0	250.4	4	98.3	4	-1E+10	1	-1E+10	1	-1E+10	1	-1E+10	1	-1E+10	1	-1E+10	1
4901784	73	C	07/04/2017	10:35	-132.629	43.554	0	15.00	0	14.3640	0	32.8190	4	24.428	0	14.880	0	250.6	4	98.4	4	-1E+10	1	-1E+10	1	-1E+10	1	-1E+10	1	-1E+10	1	-1E+10	1
4901784	73	C	07/04/2017	10:35	-132.629	43.554	0	16.90	0	14.3380	0	32.8100	4	24.426	0	16.764	0	251.4	4	98.6	4	-1E+10	1	-1E+10	1	-1E+10	1	-1E+10	1	-1E+10	1	-1E+10	1
4901784	73	C	07/04/2017	10:35	-132.629	43.554	0	18.40	0	14.0190	0	32.8200	4	24.500	0	18.252	0	252.8	4	98.5	4	-1E+10	1	-1E+10	1	-1E+10	1	-1E+10	1	-1E+10	1	-1E+10	1
4901784	73	C	07/04/2017	10:35	-132.629	43.554	0	20.00	0	13.8780	0	32.8190	4	24.528	0	19.839	0	253.9	4	98.7	4	-1E+10	1	-1E+10	1	-1E+10	1	-1E+10	1	-1E+10	1	-1E+10	1
4901784	73	C	07/04/2017	10:35	-132.629	43.554	0	21.50	0	13.8560	0	32.8160	4	24.531	0	21.327	0	254.4	4	98.9	4	-1E+10	1	-1E+10	1	-1E+10	1	-1E+10	1	-1E+10	1	-1E+10	1
4901784	73	C	07/04/2017	10:35	-132.629	43.554	0	23.10	0	13.8340	0	32.8110	4	24.531	0	22.914	0	255.3	4	99.2	4	-1E+10	1	-1E+10	1	-1E+10	1	-1E+10	1	-1E+10	1	-1E+10	1
4901784	73	C	07/04/2017	10:35	-132.629	43.554	0	24.60	0	13.8170	0	32.8050	4	24.530	0	24.402	0	256.8	4	99.7	4	-1E+10	1	-1E+10	1	-1E+10	1	-1E+10	1	-1E+10	1	-1E+10	1
4901784	73	C	07/04/2017	10:35	-132.629	43.554	0	26.20	0	13.7660	0	32.7970	4	24.535	0	25.989	0	258.4	4	100.2	4	-1E+10	1	-1E+10	1	-1E+10	1	-1E+10	1	-1E+10	1	-1E+10	1
4901784	73	C	07/04/2017	10:35	-132.629	43.554	0	27.80	0	13.4580	0	32.8360	4	24.627	0	27.576	0	261.4	4	100.8	4	-1E+10	1	-1E+10	1	-1E+10	1	-1E+10	1	-1E+10	1	-1E+10	1
4901784	73	C	07/04/2017	10:35	-132.629	43.554	0	29.40	0	13.1280	0	32.8200	4	24.681	0	29.163	0	265.5	4	101.6	4	-1E+10	1	-1E+10	1	-1E+10	1	-1E+10	1	-1E+10	1	-1E+10	1
4901784	73	C	07/04/2017	10:35	-132.629	43.554	0	31.00	0	12.7220	0	32.8320	4	24.769	0	30.750	0	269.6	4	102.4	4	-1E+10	1	-1E+10	1	-1E+10	1	-1E+10	1	-1E+10	1	-1E+10	1
4901784	73	C	07/04/2017	10:35	-132.629	43.554	0	32.60	0	12.1730	0	32.8740	4	24.907	0	32.337	0	272.7	4	102.4	4	-1E+10	1	-1E+10	1	-1E+10	1	-1E+10	1	-1E+10	1	-1E+10	1
4901784	73	C	07/04/2017	10:35	-132.629	43.554	0	34.30	0	11.4230	0	32.8950	4	25.062	0	34.023	0	278.1	4	102.8	4	-1E+10	1	-1E+10	1	-1E+10	1	-1E+10	1	-1E+10	1	-1E+10	1
4901784	73	C	07/04/2017	10:35	-132.629	43.554	0	36.20	0	10.7350	0	32.9220	4	25.205	0	35.908	0	282.4	4	102.9	4	-1E+10	1	-1E+10	1	-1E+10	1	-1E+10	1	-1E+10	1	-1E+10	1
4901784	73	C	07/04/2017	10:35	-132.629	43.554	0	38.00	0	10.4760	0	32.9330	4	25.259	0	37.693	0	284.7	4	103.2	4	-1E+10	1	-1E+10	1	-1E+10	1	-1E+10	1	-1E+10	1	-1E+10	1
4901784	73	C	07/04/2017	10:35	-132.629	43.554	0	39.90	0	10.4370	0	32.9250	4	25.259	0	39.578	0	285.7	4	103.5	4	-1E+10	1	-1E+10	1	-1E+10	1	-1E+10	1	-1E+10	1	-1E+10	1
4901784	73	C	07/04/2017	10:35	-132.629	43.554	0	41.70	0	10.3260	0	32.9090	4	25.266	0	41.363	0	286.4	4	103.5	4	-1E+10	1	-1E+10	1	-1E+10	1	-1E+10	1	-1E+10	1	-1E+10	1
4901784	73	C	07/04/2017	10:35	-132.629	43.554	0	43.60	0	10.1500	0	32.8810	4	25.274	0	43.247	0	287.0	4	103.3	4	-1E+10	1	-1E+10	1	-1E+10	1	-1E+10	1	-1E+10	1	-1E+10	1
4901784	73	C	07/04/2017	10:35	-132.629	43.554	0	46.00	0	10.0230	0	32.8980	4	25.308	0	45.628	0	285.8	4	102.6	4	-1E+10	1	-1E+10	1	-1E+10	1	-1E+10	1	-1E+10	1	-1E+10	1
4901784	73	C	07/04/2017	10:35	-132.629	43.554	0	47.80	0	9.9270	0	32.9040	4	25.329	0	47.413	0	284.7	4	102.0	4	-1E+10	1	-1E+10	1	-1E+10	1	-1E+10	1	-1E+10	1	-1E+10	1
4901784	73	C	07/04/2017	10:35	-132.629	43.554	0	49.30	0	9.8580	0	32.9050	4	25.341	0	48.900	0	283.8	4	101.5	4	-1E+10	1	-1E+10	1	-1E+10	1	-1E+10	1	-1E+10	1	-1E+10	1
4901784	73	C	07/04/2017	10:35	-132.629	43.554	0	50.90	0	9.8060	0	32.9090	4	25.353	0	50.487	0	282.6	4	100.9	4	-1E+10	1	-1E+10	1	-1E+10	1	-1E+10	1	-1E+10	1	-1E+10	1
4901784	73	C	07/04/2017	10:35	-132.629	43.554	0	52.40	0	9.7220	0	32.9130	4	25.370	0	51.975	0	281.5	4	100.4	4	-1E+10	1	-1E+10	1	-1E+10	1	-1E+10	1	-1E+10	1	-1E+10	1
4901784	73	C	07/04/2017	10:35	-132.629	43.554	0	53.90	0	9.6620	0	32.9140	4	25.381	0	53.463	0	280.4	4	99.9	4	-1E+10	1	-1E+10	1	-1E+10	1	-1E+10	1	-1E+10	1	-1E+10	1
4901784	73	C	07/04/2017	10:35	-132.629	43.554	0	55.50	0	9.6070	0	32.9170	4	25.392	0	55.049	0	278.6	4	99.1	4	-1E+10	1	-1E+10	1	-1E+10	1	-1E+10	1	-1E+10	1	-1E+10	1
4901784	73	C	07/04/2017	10:35	-132.629	43.554	0	57.10	0	9.4620	0	32.9240	4	25.421	0	56.636	0	277.3	4	98.3	4	-1E+10	1	-1E+10	1	-1E+10	1	-1E+10	1	-1E+10	1	-1E+10	1
4901784	73	C	07/04/2017	10:35	-132.629	43.554	0	58.80	0	9.3290	0	32.9400	4	25.455	0	58.322	0	276.1	4	97.6	4	-1E+10	1	-1E+10	1	-1E+10	1	-1E+10	1	-1E+10	1	-1E+10	1
4901784	73	C	07/04/2017	10:35	-132.629	43.554	0	60.50	0	9.3360	0	32.9580	4	25.468	0	60.008	0	275.1	4	97.3	4	-1E+10	1	-1E+10	1	-1E+10	1	-1E+10	1	-1E+10	1	-1E+10	1
4901784	73	C	07/04/2017	10:35	-132.629	43.554	0	62.10	0	9.2680	0	32.9730	4	25.490	0	61.595	0	274.3	4	96.9	4	-1E+10	1	-1E+10	1	-1E+10	1	-1E+10	1	-1E+10	1	-1E+10	1
4901784	73	C	07/04/2017	10:35	-132.629	43.554	0	63.80	0	9.1930	0	32.9750	4	25.504	0	63.281	0	274.2	4	96.7	4	-1E+10	1	-1E+10	1	-1E+10	1	-1E+10	1	-1E+10	1	-1E+10	1
4901784	73	C	07/04/2017	10:35	-132.629	43.554	0	65.50	0	9.1570	0	32.9770	4	25.511	0	64.967	0	273.7	4	96.4	4	-1E+10	1	-1E+10	1	-1E+10	1	-1E+10	1	-1E+10	1	-1E+10	1
4901784	73	C	07/04/2017	10:35	-132.629	43.554	0	67.10	0	9.1140	0	32.9810	4	25.521	0	66.553	0	273.5	4	96.3	4	-1E+10	1	-1E+10	1	-1E+10	1	-1E+10	1	-1E+10	1	-1E+10	1
4901784	73	C	07/04/2017	10:35	-132.629	43.554	0	68.80	0	8.9730	0	32.9760	4	25.539	0	68.239	0	273.7	4	96.0	4	-1E+10	1	-1E+10	1	-1E+10	1	-1E+10	1	-1E+10	1	-1E+10	1
4901784	73	C	07/04/2017	10:35	-132.629	43.554	0	70.50	0	8.8900	0	32.9730	4	25.550	0	69.925	0	273.9	4	96.0	4	-1E+10	1	-1E+10	1	-1E+10	1	-1E+10	1	-1E+10	1	-1E+10	1
4901784	73	C	07/04/2017	10:35	-132.629	43.554	0	72.30	0	8.8850	0	32.9700	4	25.548	0	71.710	0	273.6	4	95.8	4	-1E+10	1	-1E+10	1	-1E+10	1	-1E+10	1	-1E+10	1	-1E+10	1
4901784	73	C	07/04/2017	10:35	-132.629	43.554	0	74.00	0	8.8360	0	32.9710	4	25.557	0	73.396	0	272.9	4	95.5	4	-1E+10	1	-1E+10	1	-1E+10	1	-1E+10	1	-1E+10	1	-1E+10	1
4901784	73	C	07/04/2017	10:35	-132.629	43.554	0	75.80	0	8.7820	0	32.9740	4	25.567	0	75.181	0	272.9	4	95.4	4	-1E+10	1	-1E+10	1	-1E+10	1	-1E+10	1	-1E+10	1	-1E+10	1
4901784	73	C	07/04/2017	10:35	-132.629	43.554	0	77.60	0	8.7820	0	32.9750	4	25.568	0	76.966	0	272.3	4	95.2	4	-1E+10	1	-1E+10	1	-1E+10	1	-1E+10	1	-1E+10	1	-1E+10	1
4901784	73	C	07/04/2017	10:35	-132.629	43.554	0	79.30	0	8.7630	0	32.9720	4	25.569	0	78.652	0	271.6	4	94.9	4	-1E+10	1	-1E+10	1	-1E+10	1	-1E+10	1	-1E+10	1	-1E+10	1
4901784	73	C	07/04/2017	10:35	-132.629	43.554	0	81.00	0	8.6760	0	32.9760	4	25.585	0	80.337	0	271.2	4	94.6	4	-1E+10	1	-1E+10	1	-1E+10	1	-1E+10	1	-1E+10	1	-1E+10	1
4901784	73	C	07/04/2017	10:35	-132.629	43.554	0	82.70	0	8.6510	0	32.9760	4	25.589	0	82.023	0	270.6	4	94.3	4	-1E+10	1	-1E+10	1	-1E+10	1	-1E+10	1	-1E+10	1	-1E+10	1
4901784	73	C	07/04/2017	10:35	-132.629	43.554	0	84.50	0	8.5950	0	32.9800	4	25.601	0	83.808	0	270.0	4	94.0	4	-1E+10	1	-1E+10	1	-1E+10	1	-1E+10	1	-1E+10	1	-1E+10	1
4901784	73	C	07/04/2017	10:35	-132.629	43.554	0	87.00	0	8.5620	0	32.9810	4	25.607	0	86.287	0	268.9	4	93.5	4	-1E+10	1	-1E+10	1	-1E+10	1	-1E+10	1	-1E+10	1	-1E+10	1
4901784	73	C	07/04/2017	10:35	-132.629	43.554	0	88.60	0	8.5350	0	32.9890	4	25.617	0	87.874	0	267.9	4	93.1	4	-1E+10	1	-1E+10	1	-1E+10	1	-1E+10	1	-1E+10	1	-1E+10	1
4901784	73	C	07/04/2017	10:35	-132.629	43.554	0	90.00	0	8.5260	0	32.9890	4	25.618	0	89.262	0	266.8	4	92.7	4	-1E+10	1	-1E+10	1	-1E+10	1	-1E+10	1	-1E+10	1	-1E+10	1
4901784	73	C	07/04/2017	10:35	-132.629	43.554	0	91.40	0	8.5120	0	32.9920	4	25.623	0	90.650	0	265.3	4	92.2	4	-1E+10	1	-1E+10	1	-1E+10	1	-1E+10	1	-1E+10	1	-1E+10	1
4901784	73	C	07/04/2017	10:35	-132.629	43.554	0	92.90	0	8.5020	0	32.9950	4	25.627	0	92.137	0	263.1	4	91.4	4	-1E+10	1	-1E+10	1	-1E+10	1	-1E+10	1	-1E+10	1	-1E+10	1
4901784	73	C	07/04/2017	10:35	-132.629	43.554	0	94.40	0	8.4890	0	33.0060	4	25.637	0	93.625	0	260.7	4	90.5	4	-1E+10	1	-1E+10	1	-1E+10	1	-1E+10	1	-1E+10	1	-1E+10	1
4901784	73	C	07/04/2017	10:35	-132.629	43.554	0	95.90	0	8.4900	0	33.0120	4	25.642	0	95.112	0	257.9	4	89.6	4	-1E+10	1	-1E+10	1	-1E+10	1	-1E+10	1	-1E+10	1	-1E+10	1
4901784	73	C	07/04/2017	10:35	-132.629	43.554	0	97.40	0	8.4910	0	33.0280	4	25.654	0	96.599	0	254.3	4	88.3	4	-1E+10	1	-1E+10	1	-1E+10	1	-1E+10	1	-1E+10	1	-1E+10	1
4901784	73	C	07/04/2017	10:35	-132.629	43.554	0	98.90	0	8.4950	0	33.0520	4	25.672	0	98.087	0	250.3	4	87.0	4	-1E+10	1	-1E+10	1	-1E+10	1	-1E+10	1	-1E+10	1	-1E+10	1
4901784	73	C	07/04/2017	10:35	-132.629	43.554	0	102.90	0	8.5220	0	33.1180	4	25.720	0	102.053	0	239.7	4	83.4	4	-1E+10	1	-1E+10	1	-1E+10	1	-1E+10	1	-1E+10	1	-1E+10	1
4901784	73	C	07/04/2017	10:35	-132.629	43.554	0	105.70	0	8.5400	0	33.2110	4	25.790	0	104.829	0	231.8	4	80.7	4	-1E+10	1	-1E+10	1	-1E+10	1	-1E+10	1	-1E+10	1	-1E+10	1
4901784	73	C	07/04/2017	10:35	-132.629	43.554	0	108.00	0	8.5710	0	33.2870	4	25.845	0	107.110	0	226.1	4	78.8	4	-1E+10	1	-1E+10	1	-1E+10	1	-1E+10	1	-1E+10	1	-1E+10	1
4901784	73	C	07/04/2017	10:35	-132.629	43.554	0	110.50	0	8.5730	0	33.3310	4	25.880	0	109.588	0	220.2	4	76.8	4	-1E+10	1	-1E+10	1	-1E+10	1	-1E+10	1	-1E+10	1	-1E+10	1
4901784	73	C	07/04/2017	10:35	-132.629	43.554	0	112.60	0	8.5840	0	33.3890	4	25.923	0	111.670	0	215.6	4	75.2	4	-1E+10	1	-1E+10	1	-1E+10	1	-1E+10	1	-1E+10	1	-1E+10	1
4901784	73	C	07/04/2017	10:35	-132.629	43.554	0	114.70	0	8.5970	0	33.4500	4	25.969	0	113.752	0	211.0	4	73.7	4	-1E+10	1	-1E+10	1	-1E+10	1	-1E+10	1	-1E+10	1	-1E+10	1
4901784	73	C	07/04/2017	10:35	-132.629	43.554	0	117.80	0	8.6150	0	33.5180	4	26.020	0	116.826	0	206.1	4	72.1	4	-1E+10	1	-1E+10	1	-1E+10	1	-1E+10	1	-1E+10	1	-1E+10	1
4901784	73	C	07/04/2017	10:35	-132.629	43.554	0	120.00	0	8.6220	0	33.5380	4	26.034	0	119.007	0	202.5	4	70.8	4	-1E+10	1	-1E+10	1	-1E+10	1	-1E+10	1	-1E+10	1	-1E+10	1
4901784	73	C	07/04/2017	10:35	-132.629	43.554	0	122.30	0	8.6240	0	33.6160	4	26.095	0	121.287	0	197.9	4	69.2	4	-1E+10	1	-1E+10	1	-1E+10	1	-1E+10	1	-1E+10	1	-1E+10	1
4901784	73	C	07/04/2017	10:35	-132.629	43.554	0	124.70	0	8.6170	0	33.6670	4	26.136	0	123.667	0	194.8	4	68.2	4	-1E+10	1	-1E+10	1	-1E+10	1	-1E+10	1	-1E+10	1	-1E+10	1
4901784	73	C	07/04/2017	10:35	-132.629	43.554	0	127.10	0	8.6080	0	33.7010	4	26.164	0	126.046	0	191.7	4	67.1	4	-1E+10	1	-1E+10	1	-1E+10	1	-1E+10	1	-1E+10	1	-1E+10	1
4901784	73	C	07/04/2017	10:35	-132.629	43.554	0	130.40	0	8.6210	0	33.7800	4	26.224	0	129.318	0	188.3	4	65.9	4	-1E+10	1	-1E+10	1	-1E+10	1	-1E+10	1	-1E+10	1	-1E+10	1
4901784	73	C	07/04/2017	10:35	-132.629	43.554	0	132.90	0	8.6020	0	33.8050	4	26.247	0	131.796	0	186.5	4	65.3	4	-1E+10	1	-1E+10	1	-1E+10	1	-1E+10	1	-1E+10	1	-1E+10	1
4901784	73	C	07/04/2017	10:35	-132.629	43.554	0	134.60	0	8.5690	0	33.8210	4	26.265	0	133.482	0	185.4	4	64.9	4	-1E+10	1	-1E+10	1	-1E+10	1	-1E+10	1	-1E+10	1	-1E+10	1
4901784	73	C	07/04/2017	10:35	-132.629	43.554	0	137.20	0	8.5450	0	33.8550	4	26.295	0	136.059	0	184.1	4	64.4	4	-1E+10	1	-1E+10	1	-1E+10	1	-1E+10	1	-1E+10	1	-1E+10	1
4901784	73	C	07/04/2017	10:35	-132.629	43.554	0	139.80	0	8.5140	0	33.8770	4	26.317	0	138.637	0	183.0	4	64.0	4	-1E+10	1	-1E+10	1	-1E+10	1	-1E+10	1	-1E+10	1	-1E+10	1
4901784	73	C	07/04/2017	10:35	-132.629	43.554	0	142.50	0	8.4640	0	33.9020	4	26.344	0	141.313	0	182.1	4	63.6	4	-1E+10	1	-1E+10	1	-1E+10	1	-1E+10	1	-1E+10	1	-1E+10	1
4901784	73	C	07/04/2017	10:35	-132.629	43.554	0	145.20	0	8.4450	0	33.9120	4	26.355	0	143.990	0	181.6	4	63.4	4	-1E+10	1	-1E+10	1	-1E+10	1	-1E+10	1	-1E+10	1	-1E+10	1
4901784	73	C	07/04/2017	10:35	-132.629	43.554	0	147.00	0	8.4360	0	33.9150	4	26.359	0	145.774	0	181.0	4	63.2	4	-1E+10	1	-1E+10	1	-1E+10	1	-1E+10	1	-1E+10	1	-1E+10	1
4901784	73	C	07/04/2017	10:35	-132.629	43.554	0	149.80	0	8.4220	0	33.9220	4	26.367	0	148.550	0	180.1	4	62.9	4	-1E+10	1	-1E+10	1	-1E+10	1	-1E+10	1	-1E+10	1	-1E+10	1
4901784	73	C	07/04/2017	10:35	-132.629	43.554	0	152.60	0	8.3580	0	33.9470	4	26.396	0	151.326	0	179.2	4	62.5	4	-1E+10	1	-1E+10	1	-1E+10	1	-1E+10	1	-1E+10	1	-1E+10	1
4901784	73	C	07/04/2017	10:35	-132.629	43.554	0	154.60	0	8.3290	0	33.9560	4	26.407	0	153.308	0	178.9	4	62.3	4	-1E+10	1	-1E+10	1	-1E+10	1	-1E+10	1	-1E+10	1	-1E+10	1
4901784	73	C	07/04/2017	10:35	-132.629	43.554	0	157.50	0	8.3190	0	33.9590	4	26.411	0	156.183	0	178.5	4	62.2	4	-1E+10	1	-1E+10	1	-1E+10	1	-1E+10	1	-1E+10	1	-1E+10	1
4901784	73	C	07/04/2017	10:35	-132.629	43.554	0	160.30	0	8.3030	0	33.9630	4	26.417	0	158.958	0	178.0	4	62.0	4	-1E+10	1	-1E+10	1	-1E+10	1	-1E+10	1	-1E+10	1	-1E+10	1
4901784	73	C	07/04/2017	10:35	-132.629	43.554	0	162.20	0	8.2910	0	33.9660	4	26.421	0	160.842	0	177.5	4	61.8	4	-1E+10	1	-1E+10	1	-1E+10	1	-1E+10	1	-1E+10	1	-1E+10	1
4901784	73	C	07/04/2017	10:35	-132.629	43.554	0	165.10	0	8.2690	0	33.9700	4	26.428	0	163.716	0	176.5	4	61.4	4	-1E+10	1	-1E+10	1	-1E+10	1	-1E+10	1	-1E+10	1	-1E+10	1
4901784	73	C	07/04/2017	10:35	-132.629	43.554	0	168.00	0	8.2230	0	33.9750	4	26.438	0	166.591	0	175.7	4	61.1	4	-1E+10	1	-1E+10	1	-1E+10	1	-1E+10	1	-1E+10	1	-1E+10	1
4901784	73	C	07/04/2017	10:35	-132.629	43.554	0	169.90	0	8.1940	0	33.9770	4	26.444	0	168.474	0	175.1	4	60.8	4	-1E+10	1	-1E+10	1	-1E+10	1	-1E+10	1	-1E+10	1	-1E+10	1
4901784	73	C	07/04/2017	10:35	-132.629	43.554	0	172.80	0	8.1400	0	33.9810	4	26.456	0	171.348	0	174.2	4	60.5	4	-1E+10	1	-1E+10	1	-1E+10	1	-1E+10	1	-1E+10	1	-1E+10	1
4901784	73	C	07/04/2017	10:35	-132.629	43.554	0	175.60	0	8.1070	0	33.9820	4	26.461	0	174.124	0	173.4	4	60.1	4	-1E+10	1	-1E+10	1	-1E+10	1	-1E+10	1	-1E+10	1	-1E+10	1
4901784	73	C	07/04/2017	10:35	-132.629	43.554	0	177.50	0	8.0410	0	33.9850	4	26.474	0	176.007	0	172.8	4	59.8	4	-1E+10	1	-1E+10	1	-1E+10	1	-1E+10	1	-1E+10	1	-1E+10	1
4901784	73	C	07/04/2017	10:35	-132.629	43.554	0	179.40	0	8.0320	0	33.9830	4	26.473	0	177.890	0	172.3	4	59.7	4	-1E+10	1	-1E+10	1	-1E+10	1	-1E+10	1	-1E+10	1	-1E+10	1
4901784	73	C	07/04/2017	10:35	-132.629	43.554	0	182.40	0	8.0170	0	33.9830	4	26.476	0	180.864	0	171.4	4	59.3	4	-1E+10	1	-1E+10	1	-1E+10	1	-1E+10	1	-1E+10	1	-1E+10	1
4901784	73	C	07/04/2017	10:35	-132.629	43.554	0	185.20	0	7.9780	0	33.9840	4	26.482	0	183.639	0	170.4	4	58.9	4	-1E+10	1	-1E+10	1	-1E+10	1	-1E+10	1	-1E+10	1	-1E+10	1
4901784	73	C	07/04/2017	10:35	-132.629	43.554	0	187.10	0	7.9540	0	33.9850	4	26.486	0	185.522	0	169.8	4	58.7	4	-1E+10	1	-1E+10	1	-1E+10	1	-1E+10	1	-1E+10	1	-1E+10	1
4901784	73	C	07/04/2017	10:35	-132.629	43.554	0	189.90	0	7.9020	0	33.9870	4	26.496	0	188.297	0	168.5	4	58.2	4	-1E+10	1	-1E+10	1	-1E+10	1	-1E+10	1	-1E+10	1	-1E+10	1
4901784	73	C	07/04/2017	10:35	-132.629	43.554	0	192.70	0	7.8560	0	33.9860	4	26.502	0	191.072	0	167.0	4	57.6	4	-1E+10	1	-1E+10	1	-1E+10	1	-1E+10	1	-1E+10	1	-1E+10	1
4901784	73	C	07/04/2017	10:35	-132.629	43.554	0	194.60	0	7.8140	0	33.9850	4	26.507	0	192.955	0	165.9	4	57.1	4	-1E+10	1	-1E+10	1	-1E+10	1	-1E+10	1	-1E+10	1	-1E+10	1
4901784	73	C	07/04/2017	10:35	-132.629	43.554	0	197.40	0	7.7380	0	33.9880	4	26.521	0	195.730	0	164.3	4	56.5	4	-1E+10	1	-1E+10	1	-1E+10	1	-1E+10	1	-1E+10	1	-1E+10	1
4901784	73	C	07/04/2017	10:35	-132.629	43.554	0	200.30	0	7.6740	0	33.9880	4	26.530	0	198.604	0	162.8	4	55.9	4	-1E+10	1	-1E+10	1	-1E+10	1	-1E+10	1	-1E+10	1	-1E+10	1
4901784	73	C	07/04/2017	10:35	-132.629	43.554	0	202.20	0	7.6040	0	33.9870	4	26.539	0	200.487	0	161.9	4	55.5	4	-1E+10	1	-1E+10	1	-1E+10	1	-1E+10	1	-1E+10	1	-1E+10	1
4901784	73	C	07/04/2017	10:35	-132.629	43.554	0	205.10	0	7.5740	0	33.9860	4	26.543	0	203.361	0	160.5	4	55.0	4	-1E+10	1	-1E+10	1	-1E+10	1	-1E+10	1	-1E+10	1	-1E+10	1
4901784	73	C	07/04/2017	10:35	-132.629	43.554	0	208.00	0	7.5170	0	33.9860	4	26.551	0	206.235	0	158.7	4	54.3	4	-1E+10	1	-1E+10	1	-1E+10	1	-1E+10	1	-1E+10	1	-1E+10	1
4901784	73	C	07/04/2017	10:35	-132.629	43.554	0	209.80	0	7.4430	0	33.9860	4	26.561	0	208.019	0	157.9	4	54.0	4	-1E+10	1	-1E+10	1	-1E+10	1	-1E+10	1	-1E+10	1	-1E+10	1
4901784	73	C	07/04/2017	10:35	-132.629	43.554	0	212.60	0	7.3890	0	33.9870	4	26.570	0	210.794	0	156.5	4	53.4	4	-1E+10	1	-1E+10	1	-1E+10	1	-1E+10	1	-1E+10	1	-1E+10	1
4901784	73	C	07/04/2017	10:35	-132.629	43.554	0	215.40	0	7.3430	0	33.9870	4	26.576	0	213.569	0	155.1	4	52.9	4	-1E+10	1	-1E+10	1	-1E+10	1	-1E+10	1	-1E+10	1	-1E+10	1
4901784	73	C	07/04/2017	10:35	-132.629	43.554	0	217.20	0	7.3300	0	33.9870	4	26.578	0	215.352	0	153.7	4	52.4	4	-1E+10	1	-1E+10	1	-1E+10	1	-1E+10	1	-1E+10	1	-1E+10	1
4901784	73	C	07/04/2017	10:35	-132.629	43.554	0	219.90	0	7.2950	0	33.9850	4	26.581	0	218.028	0	151.2	4	51.5	4	-1E+10	1	-1E+10	1	-1E+10	1	-1E+10	1	-1E+10	1	-1E+10	1
4901784	73	C	07/04/2017	10:35	-132.629	43.554	0	222.70	0	7.1890	0	33.9810	4	26.593	0	220.803	0	148.4	4	50.4	4	-1E+10	1	-1E+10	1	-1E+10	1	-1E+10	1	-1E+10	1	-1E+10	1
4901784	73	C	07/04/2017	10:35	-132.629	43.554	0	224.50	0	7.1290	0	33.9810	4	26.601	0	222.586	0	146.6	4	49.7	4	-1E+10	1	-1E+10	1	-1E+10	1	-1E+10	1	-1E+10	1	-1E+10	1
4901784	73	C	07/04/2017	10:35	-132.629	43.554	0	227.40	0	7.0280	0	33.9780	4	26.613	0	225.460	0	144.2	4	48.8	4	-1E+10	1	-1E+10	1	-1E+10	1	-1E+10	1	-1E+10	1	-1E+10	1
4901784	73	C	07/04/2017	10:35	-132.629	43.554	0	230.20	0	6.9160	0	33.9780	4	26.628	0	228.235	0	142.4	4	48.1	4	-1E+10	1	-1E+10	1	-1E+10	1	-1E+10	1	-1E+10	1	-1E+10	1
4901784	73	C	07/04/2017	10:35	-132.629	43.554	0	232.00	0	6.8870	0	33.9790	4	26.633	0	230.018	0	141.6	4	47.8	4	-1E+10	1	-1E+10	1	-1E+10	1	-1E+10	1	-1E+10	1	-1E+10	1
4901784	73	C	07/04/2017	10:35	-132.629	43.554	0	234.80	0	6.8450	0	33.9790	4	26.639	0	232.793	0	140.4	4	47.3	4	-1E+10	1	-1E+10	1	-1E+10	1	-1E+10	1	-1E+10	1	-1E+10	1
4901784	73	C	07/04/2017	10:35	-132.629	43.554	0	237.50	0	6.8200	0	33.9770	4	26.641	0	235.468	0	138.9	4	46.8	4	-1E+10	1	-1E+10	1	-1E+10	1	-1E+10	1	-1E+10	1	-1E+10	1
4901784	73	C	07/04/2017	10:35	-132.629	43.554	0	240.30	0	6.7510	0	33.9780	4	26.651	0	238.243	0	137.2	4	46.1	4	-1E+10	1	-1E+10	1	-1E+10	1	-1E+10	1	-1E+10	1	-1E+10	1
4901784	73	C	07/04/2017	10:35	-132.629	43.554	0	243.00	0	6.6730	0	33.9820	4	26.664	0	240.918	0	135.8	4	45.6	4	-1E+10	1	-1E+10	1	-1E+10	1	-1E+10	1	-1E+10	1	-1E+10	1
4901784	73	C	07/04/2017	10:35	-132.629	43.554	0	244.80	0	6.6340	0	33.9830	4	26.670	0	242.701	0	135.3	4	45.4	4	-1E+10	1	-1E+10	1	-1E+10	1	-1E+10	1	-1E+10	1	-1E+10	1
4901784	73	C	07/04/2017	10:35	-132.629	43.554	0	247.50	0	6.6230	0	33.9820	4	26.671	0	245.377	0	134.4	4	45.1	4	-1E+10	1	-1E+10	1	-1E+10	1	-1E+10	1	-1E+10	1	-1E+10	1
4901784	73	C	07/04/2017	10:35	-132.629	43.554	0	250.20	0	6.6080	0	33.9810	4	26.672	0	248.052	0	133.2	4	44.7	4	-1E+10	1	-1E+10	1	-1E+10	1	-1E+10	1	-1E+10	1	-1E+10	1
4901784	73	C	07/04/2017	10:35	-132.629	43.554	0	252.00	0	6.5980	0	33.9820	4	26.674	0	249.835	0	132.2	4	44.3	4	-1E+10	1	-1E+10	1	-1E+10	1	-1E+10	1	-1E+10	1	-1E+10	1
4901784	73	C	07/04/2017	10:35	-132.629	43.554	0	254.80	0	6.5230	0	33.9840	4	26.686	0	252.610	0	130.9	4	43.8	4	-1E+10	1	-1E+10	1	-1E+10	1	-1E+10	1	-1E+10	1	-1E+10	1
4901784	73	C	07/04/2017	10:35	-132.629	43.554	0	257.50	0	6.4780	0	33.9860	4	26.693	0	255.285	0	129.8	4	43.4	4	-1E+10	1	-1E+10	1	-1E+10	1	-1E+10	1	-1E+10	1	-1E+10	1
4901784	73	C	07/04/2017	10:35	-132.629	43.554	0	260.30	0	6.4580	0	33.9870	4	26.697	0	258.059	0	128.6	4	43.0	4	-1E+10	1	-1E+10	1	-1E+10	1	-1E+10	1	-1E+10	1	-1E+10	1
4901784	73	C	07/04/2017	10:35	-132.629	43.554	0	263.00	0	6.4330	0	33.9850	4	26.698	0	260.734	0	127.1	4	42.4	4	-1E+10	1	-1E+10	1	-1E+10	1	-1E+10	1	-1E+10	1	-1E+10	1
4901784	73	C	07/04/2017	10:35	-132.629	43.554	0	265.00	0	6.4120	0	33.9850	4	26.701	0	262.715	0	126.1	4	42.1	4	-1E+10	1	-1E+10	1	-1E+10	1	-1E+10	1	-1E+10	1	-1E+10	1
4901784	73	C	07/04/2017	10:35	-132.629	43.554	0	267.70	0	6.3530	0	33.9870	4	26.710	0	265.390	0	124.5	4	41.5	4	-1E+10	1	-1E+10	1	-1E+10	1	-1E+10	1	-1E+10	1	-1E+10	1
4901784	73	C	07/04/2017	10:35	-132.629	43.554	0	270.40	0	6.3300	0	33.9840	4	26.711	0	268.065	0	123.2	4	41.0	4	-1E+10	1	-1E+10	1	-1E+10	1	-1E+10	1	-1E+10	1	-1E+10	1
4901784	73	C	07/04/2017	10:35	-132.629	43.554	0	272.20	0	6.3020	0	33.9860	4	26.716	0	269.849	0	122.1	4	40.6	4	-1E+10	1	-1E+10	1	-1E+10	1	-1E+10	1	-1E+10	1	-1E+10	1
4901784	73	C	07/04/2017	10:35	-132.629	43.554	0	274.90	0	6.2470	0	33.9850	4	26.722	0	272.524	0	120.3	4	40.0	4	-1E+10	1	-1E+10	1	-1E+10	1	-1E+10	1	-1E+10	1	-1E+10	1
4901784	73	C	07/04/2017	10:35	-132.629	43.554	0	278.20	0	6.1780	0	33.9860	4	26.732	0	275.793	0	118.7	4	39.4	4	-1E+10	1	-1E+10	1	-1E+10	1	-1E+10	1	-1E+10	1	-1E+10	1
4901784	73	C	07/04/2017	10:35	-132.629	43.554	0	280.00	0	6.1600	0	33.9850	4	26.734	0	277.576	0	117.5	4	39.0	4	-1E+10	1	-1E+10	1	-1E+10	1	-1E+10	1	-1E+10	1	-1E+10	1
4901784	73	C	07/04/2017	10:35	-132.629	43.554	0	282.40	0	6.1200	0	33.9860	4	26.739	0	279.954	0	115.9	4	38.4	4	-1E+10	1	-1E+10	1	-1E+10	1	-1E+10	1	-1E+10	1	-1E+10	1
4901784	73	C	07/04/2017	10:35	-132.629	43.554	0	284.70	0	6.0730	0	33.9870	4	26.746	0	282.232	0	114.4	4	37.9	4	-1E+10	1	-1E+10	1	-1E+10	1	-1E+10	1	-1E+10	1	-1E+10	1
4901784	73	C	07/04/2017	10:35	-132.629	43.554	0	287.00	0	6.0340	0	33.9870	4	26.751	0	284.511	0	112.8	4	37.3	4	-1E+10	1	-1E+10	1	-1E+10	1	-1E+10	1	-1E+10	1	-1E+10	1
4901784	73	C	07/04/2017	10:35	-132.629	43.554	0	290.20	0	5.9830	0	33.9870	4	26.758	0	287.681	0	111.0	4	36.7	4	-1E+10	1	-1E+10	1	-1E+10	1	-1E+10	1	-1E+10	1	-1E+10	1
4901784	73	C	07/04/2017	10:35	-132.629	43.554	0	292.70	0	5.9570	0	33.9870	4	26.761	0	290.157	0	109.6	4	36.2	4	-1E+10	1	-1E+10	1	-1E+10	1	-1E+10	1	-1E+10	1	-1E+10	1
4901784	73	C	07/04/2017	10:35	-132.629	43.554	0	295.10	0	5.9340	0	33.9840	4	26.761	0	292.535	0	107.6	4	35.5	4	-1E+10	1	-1E+10	1	-1E+10	1	-1E+10	1	-1E+10	1	-1E+10	1
4901784	73	C	07/04/2017	10:35	-132.629	43.554	0	297.60	0	5.8680	0	33.9830	4	26.769	0	295.011	0	105.5	4	34.8	4	-1E+10	1	-1E+10	1	-1E+10	1	-1E+10	1	-1E+10	1	-1E+10	1
4901784	73	C	07/04/2017	10:35	-132.629	43.554	0	300.10	0	5.8120	0	33.9860	4	26.778	0	297.488	0	103.6	4	34.1	4	-1E+10	1	-1E+10	1	-1E+10	1	-1E+10	1	-1E+10	1	-1E+10	1
4901784	73	C	07/04/2017	10:35	-132.629	43.554	0	302.50	0	5.7570	0	33.9840	4	26.783	0	299.865	0	102.1	4	33.6	4	-1E+10	1	-1E+10	1	-1E+10	1	-1E+10	1	-1E+10	1	-1E+10	1
4901784	73	C	07/04/2017	10:35	-132.629	43.554	0	305.10	0	5.7250	0	33.9840	4	26.787	0	302.440	0	100.6	4	33.1	4	-1E+10	1	-1E+10	1	-1E+10	1	-1E+10	1	-1E+10	1	-1E+10	1
4901784	73	C	07/04/2017	10:35	-132.629	43.554	0	307.60	0	5.6810	0	33.9840	4	26.793	0	304.917	0	99.2	4	32.6	4	-1E+10	1	-1E+10	1	-1E+10	1	-1E+10	1	-1E+10	1	-1E+10	1
4901784	73	C	07/04/2017	10:35	-132.629	43.554	0	310.20	0	5.6250	0	33.9850	4	26.800	0	307.492	0	97.9	4	32.1	4	-1E+10	1	-1E+10	1	-1E+10	1	-1E+10	1	-1E+10	1	-1E+10	1
4901784	73	C	07/04/2017	10:35	-132.629	43.554	0	312.80	0	5.5940	0	33.9850	4	26.804	0	310.068	0	96.6	4	31.6	4	-1E+10	1	-1E+10	1	-1E+10	1	-1E+10	1	-1E+10	1	-1E+10	1
4901784	73	C	07/04/2017	10:35	-132.629	43.554	0	314.50	0	5.5580	0	33.9870	4	26.810	0	311.751	0	95.4	4	31.2	4	-1E+10	1	-1E+10	1	-1E+10	1	-1E+10	1	-1E+10	1	-1E+10	1
4901784	73	C	07/04/2017	10:35	-132.629	43.554	0	317.20	0	5.5340	0	33.9900	4	26.815	0	314.426	0	94.3	4	30.8	4	-1E+10	1	-1E+10	1	-1E+10	1	-1E+10	1	-1E+10	1	-1E+10	1
4901784	73	C	07/04/2017	10:35	-132.629	43.554	0	319.80	0	5.5240	0	33.9890	4	26.816	0	317.001	0	93.5	4	30.6	4	-1E+10	1	-1E+10	1	-1E+10	1	-1E+10	1	-1E+10	1	-1E+10	1
4901784	73	C	07/04/2017	10:35	-132.629	43.554	0	322.60	0	5.4940	0	33.9920	4	26.822	0	319.774	0	92.7	4	30.3	4	-1E+10	1	-1E+10	1	-1E+10	1	-1E+10	1	-1E+10	1	-1E+10	1
4901784	73	C	07/04/2017	10:35	-132.629	43.554	0	325.30	0	5.4870	0	33.9910	4	26.822	0	322.449	0	92.1	4	30.1	4	-1E+10	1	-1E+10	1	-1E+10	1	-1E+10	1	-1E+10	1	-1E+10	1
4901784	73	C	07/04/2017	10:35	-132.629	43.554	0	327.10	0	5.4800	0	33.9920	4	26.823	0	324.231	0	91.5	4	29.9	4	-1E+10	1	-1E+10	1	-1E+10	1	-1E+10	1	-1E+10	1	-1E+10	1
4901784	73	C	07/04/2017	10:35	-132.629	43.554	0	329.90	0	5.4550	0	33.9930	4	26.827	0	327.005	0	90.8	4	29.6	4	-1E+10	1	-1E+10	1	-1E+10	1	-1E+10	1	-1E+10	1	-1E+10	1
4901784	73	C	07/04/2017	10:35	-132.629	43.554	0	332.70	0	5.4340	0	33.9940	4	26.830	0	329.778	0	90.1	4	29.4	4	-1E+10	1	-1E+10	1	-1E+10	1	-1E+10	1	-1E+10	1	-1E+10	1
4901784	73	C	07/04/2017	10:35	-132.629	43.554	0	334.50	0	5.4190	0	33.9950	4	26.833	0	331.561	0	89.7	4	29.3	4	-1E+10	1	-1E+10	1	-1E+10	1	-1E+10	1	-1E+10	1	-1E+10	1
4901784	73	C	07/04/2017	10:35	-132.629	43.554	0	337.40	0	5.4090	0	33.9950	4	26.834	0	334.433	0	89.0	4	29.0	4	-1E+10	1	-1E+10	1	-1E+10	1	-1E+10	1	-1E+10	1	-1E+10	1
4901784	73	C	07/04/2017	10:35	-132.629	43.554	0	340.10	0	5.3990	0	33.9950	4	26.835	0	337.107	0	88.3	4	28.8	4	-1E+10	1	-1E+10	1	-1E+10	1	-1E+10	1	-1E+10	1	-1E+10	1
4901784	73	C	07/04/2017	10:35	-132.629	43.554	0	342.00	0	5.3950	0	33.9950	4	26.836	0	338.989	0	87.7	4	28.6	4	-1E+10	1	-1E+10	1	-1E+10	1	-1E+10	1	-1E+10	1	-1E+10	1
4901784	73	C	07/04/2017	10:35	-132.629	43.554	0	344.80	0	5.3810	0	33.9960	4	26.838	0	341.762	0	86.5	4	28.2	4	-1E+10	1	-1E+10	1	-1E+10	1	-1E+10	1	-1E+10	1	-1E+10	1
4901784	73	C	07/04/2017	10:35	-132.629	43.554	0	347.60	0	5.3480	0	33.9990	4	26.845	0	344.535	0	85.3	4	27.8	4	-1E+10	1	-1E+10	1	-1E+10	1	-1E+10	1	-1E+10	1	-1E+10	1
4901784	73	C	07/04/2017	10:35	-132.629	43.554	0	350.30	0	5.3390	0	33.9990	4	26.846	0	347.209	0	83.9	4	27.3	4	-1E+10	1	-1E+10	1	-1E+10	1	-1E+10	1	-1E+10	1	-1E+10	1
4901784	73	C	07/04/2017	10:35	-132.629	43.554	0	353.10	0	5.3020	0	34.0030	4	26.853	0	349.982	0	82.6	4	26.9	4	-1E+10	1	-1E+10	1	-1E+10	1	-1E+10	1	-1E+10	1	-1E+10	1
4901784	73	C	07/04/2017	10:35	-132.629	43.554	0	354.90	0	5.2920	0	34.0040	4	26.855	0	351.764	0	82.1	4	26.7	4	-1E+10	1	-1E+10	1	-1E+10	1	-1E+10	1	-1E+10	1	-1E+10	1
4901784	73	C	07/04/2017	10:35	-132.629	43.554	0	357.70	0	5.2770	0	34.0060	4	26.859	0	354.537	0	81.6	4	26.5	4	-1E+10	1	-1E+10	1	-1E+10	1	-1E+10	1	-1E+10	1	-1E+10	1
4901784	73	C	07/04/2017	10:35	-132.629	43.554	0	360.60	0	5.2700	0	34.0070	4	26.860	0	357.409	0	81.2	4	26.4	4	-1E+10	1	-1E+10	1	-1E+10	1	-1E+10	1	-1E+10	1	-1E+10	1
4901784	73	C	07/04/2017	10:35	-132.629	43.554	0	363.00	0	5.2650	0	34.0080	4	26.862	0	359.785	0	80.9	4	26.3	4	-1E+10	1	-1E+10	1	-1E+10	1	-1E+10	1	-1E+10	1	-1E+10	1
4901784	73	C	07/04/2017	10:35	-132.629	43.554	0	364.90	0	5.2640	0	34.0070	4	26.861	0	361.667	0	80.7	4	26.2	4	-1E+10	1	-1E+10	1	-1E+10	1	-1E+10	1	-1E+10	1	-1E+10	1
4901784	73	C	07/04/2017	10:35	-132.629	43.554	0	367.30	0	5.2570	0	34.0080	4	26.863	0	364.044	0	80.1	4	26.0	4	-1E+10	1	-1E+10	1	-1E+10	1	-1E+10	1	-1E+10	1	-1E+10	1
4901784	73	C	07/04/2017	10:35	-132.629	43.554	0	370.50	0	5.2400	0	34.0090	4	26.865	0	367.212	0	79.4	4	25.8	4	-1E+10	1	-1E+10	1	-1E+10	1	-1E+10	1	-1E+10	1	-1E+10	1
4901784	73	C	07/04/2017	10:35	-132.629	43.554	0	372.80	0	5.2260	0	34.0110	4	26.869	0	369.490	0	78.9	4	25.6	4	-1E+10	1	-1E+10	1	-1E+10	1	-1E+10	1	-1E+10	1	-1E+10	1
4901784	73	C	07/04/2017	10:35	-132.629	43.554	0	375.20	0	5.2200	0	34.0110	4	26.869	0	371.867	0	78.3	4	25.4	4	-1E+10	1	-1E+10	1	-1E+10	1	-1E+10	1	-1E+10	1	-1E+10	1
4901784	73	C	07/04/2017	10:35	-132.629	43.554	0	377.60	0	5.2130	0	34.0110	4	26.870	0	374.243	0	77.7	4	25.2	4	-1E+10	1	-1E+10	1	-1E+10	1	-1E+10	1	-1E+10	1	-1E+10	1
4901784	73	C	07/04/2017	10:35	-132.629	43.554	0	380.10	0	5.2030	0	34.0130	4	26.873	0	376.719	0	77.0	4	25.0	4	-1E+10	1	-1E+10	1	-1E+10	1	-1E+10	1	-1E+10	1	-1E+10	1
4901784	73	C	07/04/2017	10:35	-132.629	43.554	0	382.60	0	5.1910	0	34.0140	4	26.875	0	379.194	0	76.0	4	24.7	4	-1E+10	1	-1E+10	1	-1E+10	1	-1E+10	1	-1E+10	1	-1E+10	1
4901784	73	C	07/04/2017	10:35	-132.629	43.554	0	385.10	0	5.1750	0	34.0150	4	26.878	0	381.669	0	75.0	4	24.3	4	-1E+10	1	-1E+10	1	-1E+10	1	-1E+10	1	-1E+10	1	-1E+10	1
4901784	73	C	07/04/2017	10:35	-132.629	43.554	0	387.60	0	5.1560	0	34.0160	4	26.881	0	384.145	0	74.1	4	24.0	4	-1E+10	1	-1E+10	1	-1E+10	1	-1E+10	1	-1E+10	1	-1E+10	1
4901784	73	C	07/04/2017	10:35	-132.629	43.554	0	390.10	0	5.1400	0	34.0180	4	26.884	0	386.620	0	73.3	4	23.8	4	-1E+10	1	-1E+10	1	-1E+10	1	-1E+10	1	-1E+10	1	-1E+10	1
4901784	73	C	07/04/2017	10:35	-132.629	43.554	0	392.60	0	5.1300	0	34.0170	4	26.885	0	389.096	0	72.6	4	23.5	4	-1E+10	1	-1E+10	1	-1E+10	1	-1E+10	1	-1E+10	1	-1E+10	1
4901784	73	C	07/04/2017	10:35	-132.629	43.554	0	395.00	0	5.1060	0	34.0200	4	26.890	0	391.472	0	71.8	4	23.3	4	-1E+10	1	-1E+10	1	-1E+10	1	-1E+10	1	-1E+10	1	-1E+10	1
4901784	73	C	07/04/2017	10:35	-132.629	43.554	0	397.50	0	5.0930	0	34.0210	4	26.892	0	393.947	0	71.1	4	23.0	4	-1E+10	1	-1E+10	1	-1E+10	1	-1E+10	1	-1E+10	1	-1E+10	1
4901784	73	C	07/04/2017	10:35	-132.629	43.554	0	400.00	0	5.0780	0	34.0220	4	26.895	0	396.422	0	70.0	4	22.7	4	-1E+10	1	-1E+10	1	-1E+10	1	-1E+10	1	-1E+10	1	-1E+10	1
4901784	73	C	07/04/2017	10:35	-132.629	43.554	0	402.60	0	5.0420	0	34.0260	4	26.902	0	398.997	0	69.1	4	22.3	4	-1E+10	1	-1E+10	1	-1E+10	1	-1E+10	1	-1E+10	1	-1E+10	1
4901784	73	C	07/04/2017	10:35	-132.629	43.554	0	405.00	0	5.0240	0	34.0290	4	26.906	0	401.373	0	68.6	4	22.2	4	-1E+10	1	-1E+10	1	-1E+10	1	-1E+10	1	-1E+10	1	-1E+10	1
4901784	73	C	07/04/2017	10:35	-132.629	43.554	0	407.50	0	5.0200	0	34.0290	4	26.907	0	403.848	0	68.2	4	22.0	4	-1E+10	1	-1E+10	1	-1E+10	1	-1E+10	1	-1E+10	1	-1E+10	1
4901784	73	C	07/04/2017	10:35	-132.629	43.554	0	410.00	0	5.0160	0	34.0310	4	26.909	0	406.323	0	67.5	4	21.8	4	-1E+10	1	-1E+10	1	-1E+10	1	-1E+10	1	-1E+10	1	-1E+10	1
4901784	73	C	07/04/2017	10:35	-132.629	43.554	0	412.50	0	5.0000	0	34.0380	4	26.916	0	408.798	0	67.0	4	21.6	4	-1E+10	1	-1E+10	1	-1E+10	1	-1E+10	1	-1E+10	1	-1E+10	1
4901784	73	C	07/04/2017	10:35	-132.629	43.554	0	414.90	0	4.9920	0	34.0410	4	26.920	0	411.174	0	66.6	4	21.5	4	-1E+10	1	-1E+10	1	-1E+10	1	-1E+10	1	-1E+10	1	-1E+10	1
4901784	73	C	07/04/2017	10:35	-132.629	43.554	0	417.40	0	4.9890	0	34.0410	4	26.920	0	413.650	0	66.3	4	21.4	4	-1E+10	1	-1E+10	1	-1E+10	1	-1E+10	1	-1E+10	1	-1E+10	1
4901784	73	C	07/04/2017	10:35	-132.629	43.554	0	419.90	0	4.9880	0	34.0410	4	26.920	0	416.125	0	66.0	4	21.3	4	-1E+10	1	-1E+10	1	-1E+10	1	-1E+10	1	-1E+10	1	-1E+10	1
4901784	73	C	07/04/2017	10:35	-132.629	43.554	0	422.40	0	4.9870	0	34.0410	4	26.920	0	418.600	0	65.5	4	21.1	4	-1E+10	1	-1E+10	1	-1E+10	1	-1E+10	1	-1E+10	1	-1E+10	1
4901784	73	C	07/04/2017	10:35	-132.629	43.554	0	425.00	0	4.9800	0	34.0430	4	26.923	0	421.174	0	64.6	4	20.9	4	-1E+10	1	-1E+10	1	-1E+10	1	-1E+10	1	-1E+10	1	-1E+10	1
4901784	73	C	07/04/2017	10:35	-132.629	43.554	0	427.50	0	4.9720	0	34.0440	4	26.924	0	423.648	0	63.8	4	20.6	4	-1E+10	1	-1E+10	1	-1E+10	1	-1E+10	1	-1E+10	1	-1E+10	1
4901784	73	C	07/04/2017	10:35	-132.629	43.554	0	430.00	0	4.9580	0	34.0460	4	26.928	0	426.123	0	62.7	4	20.2	4	-1E+10	1	-1E+10	1	-1E+10	1	-1E+10	1	-1E+10	1	-1E+10	1
4901784	73	C	07/04/2017	10:35	-132.629	43.554	0	432.50	0	4.9500	0	34.0470	4	26.929	0	428.598	0	61.7	4	19.9	4	-1E+10	1	-1E+10	1	-1E+10	1	-1E+10	1	-1E+10	1	-1E+10	1
4901784	73	C	07/04/2017	10:35	-132.629	43.554	0	435.00	0	4.9370	0	34.0490	4	26.932	0	431.073	0	60.1	4	19.4	4	-1E+10	1	-1E+10	1	-1E+10	1	-1E+10	1	-1E+10	1	-1E+10	1
4901784	73	C	07/04/2017	10:35	-132.629	43.554	0	437.50	0	4.9040	0	34.0550	4	26.941	0	433.548	0	58.4	4	18.8	4	-1E+10	1	-1E+10	1	-1E+10	1	-1E+10	1	-1E+10	1	-1E+10	1
4901784	73	C	07/04/2017	10:35	-132.629	43.554	0	440.10	0	4.8840	0	34.0580	4	26.946	0	436.122	0	57.6	4	18.6	4	-1E+10	1	-1E+10	1	-1E+10	1	-1E+10	1	-1E+10	1	-1E+10	1
4901784	73	C	07/04/2017	10:35	-132.629	43.554	0	442.60	0	4.8760	0	34.0590	4	26.947	0	438.596	0	57.0	4	18.4	4	-1E+10	1	-1E+10	1	-1E+10	1	-1E+10	1	-1E+10	1	-1E+10	1
4901784	73	C	07/04/2017	10:35	-132.629	43.554	0	445.10	0	4.8710	0	34.0610	4	26.949	0	441.071	0	56.3	4	18.1	4	-1E+10	1	-1E+10	1	-1E+10	1	-1E+10	1	-1E+10	1	-1E+10	1
4901784	73	C	07/04/2017	10:35	-132.629	43.554	0	447.60	0	4.8620	0	34.0620	4	26.951	0	443.546	0	55.6	4	17.9	4	-1E+10	1	-1E+10	1	-1E+10	1	-1E+10	1	-1E+10	1	-1E+10	1
4901784	73	C	07/04/2017	10:35	-132.629	43.554	0	450.10	0	4.8450	0	34.0660	4	26.956	0	446.021	0	54.8	4	17.6	4	-1E+10	1	-1E+10	1	-1E+10	1	-1E+10	1	-1E+10	1	-1E+10	1
4901784	73	C	07/04/2017	10:35	-132.629	43.554	0	452.50	0	4.8300	0	34.0690	4	26.960	0	448.396	0	54.2	4	17.4	4	-1E+10	1	-1E+10	1	-1E+10	1	-1E+10	1	-1E+10	1	-1E+10	1
4901784	73	C	07/04/2017	10:35	-132.629	43.554	0	455.10	0	4.8250	0	34.0700	4	26.962	0	450.970	0	53.6	4	17.3	4	-1E+10	1	-1E+10	1	-1E+10	1	-1E+10	1	-1E+10	1	-1E+10	1
4901784	73	C	07/04/2017	10:35	-132.629	43.554	0	457.50	0	4.8150	0	34.0720	4	26.965	0	453.345	0	53.1	4	17.1	4	-1E+10	1	-1E+10	1	-1E+10	1	-1E+10	1	-1E+10	1	-1E+10	1
4901784	73	C	07/04/2017	10:35	-132.629	43.554	0	460.10	0	4.8100	0	34.0730	4	26.966	0	455.919	0	52.5	4	16.9	4	-1E+10	1	-1E+10	1	-1E+10	1	-1E+10	1	-1E+10	1	-1E+10	1
4901784	73	C	07/04/2017	10:35	-132.629	43.554	0	462.60	0	4.8080	0	34.0730	4	26.966	0	458.393	0	51.7	4	16.6	4	-1E+10	1	-1E+10	1	-1E+10	1	-1E+10	1	-1E+10	1	-1E+10	1
4901784	73	C	07/04/2017	10:35	-132.629	43.554	0	465.10	0	4.7950	0	34.0760	4	26.970	0	460.868	0	50.7	4	16.3	4	-1E+10	1	-1E+10	1	-1E+10	1	-1E+10	1	-1E+10	1	-1E+10	1
4901784	73	C	07/04/2017	10:35	-132.629	43.554	0	467.70	0	4.7770	0	34.0810	4	26.976	0	463.441	0	49.6	4	16.0	4	-1E+10	1	-1E+10	1	-1E+10	1	-1E+10	1	-1E+10	1	-1E+10	1
4901784	73	C	07/04/2017	10:35	-132.629	43.554	0	470.20	0	4.7650	0	34.0830	4	26.979	0	465.916	0	48.7	4	15.7	4	-1E+10	1	-1E+10	1	-1E+10	1	-1E+10	1	-1E+10	1	-1E+10	1
4901784	73	C	07/04/2017	10:35	-132.629	43.554	0	472.80	0	4.7500	0	34.0860	4	26.983	0	468.489	0	47.7	4	15.3	4	-1E+10	1	-1E+10	1	-1E+10	1	-1E+10	1	-1E+10	1	-1E+10	1
4901784	73	C	07/04/2017	10:35	-132.629	43.554	0	475.40	0	4.7380	0	34.0880	4	26.986	0	471.063	0	46.5	4	14.9	4	-1E+10	1	-1E+10	1	-1E+10	1	-1E+10	1	-1E+10	1	-1E+10	1
4901784	73	C	07/04/2017	10:35	-132.629	43.554	0	478.00	0	4.7190	0	34.0920	4	26.991	0	473.636	0	45.3	4	14.5	4	-1E+10	1	-1E+10	1	-1E+10	1	-1E+10	1	-1E+10	1	-1E+10	1
4901784	73	C	07/04/2017	10:35	-132.629	43.554	0	479.80	0	4.6880	0	34.1010	4	27.002	0	475.417	0	44.7	4	14.3	4	-1E+10	1	-1E+10	1	-1E+10	1	-1E+10	1	-1E+10	1	-1E+10	1
4901784	73	C	07/04/2017	10:35	-132.629	43.554	0	482.30	0	4.6770	0	34.1040	4	27.005	0	477.892	0	44.3	4	14.2	4	-1E+10	1	-1E+10	1	-1E+10	1	-1E+10	1	-1E+10	1	-1E+10	1
4901784	73	C	07/04/2017	10:35	-132.629	43.554	0	484.90	0	4.6720	0	34.1050	4	27.007	0	480.465	0	44.1	4	14.1	4	-1E+10	1	-1E+10	1	-1E+10	1	-1E+10	1	-1E+10	1	-1E+10	1
4901784	73	C	07/04/2017	10:35	-132.629	43.554	0	487.40	0	4.6720	0	34.1050	4	27.007	0	482.939	0	43.8	4	14.0	4	-1E+10	1	-1E+10	1	-1E+10	1	-1E+10	1	-1E+10	1	-1E+10	1
4901784	73	C	07/04/2017	10:35	-132.629	43.554	0	489.90	0	4.6700	0	34.1050	4	27.007	0	485.413	0	43.3	4	13.9	4	-1E+10	1	-1E+10	1	-1E+10	1	-1E+10	1	-1E+10	1	-1E+10	1
4901784	73	C	07/04/2017	10:35	-132.629	43.554	0	492.50	0	4.6570	0	34.1090	4	27.012	0	487.986	0	42.9	4	13.7	4	-1E+10	1	-1E+10	1	-1E+10	1	-1E+10	1	-1E+10	1	-1E+10	1
4901784	73	C	07/04/2017	10:35	-132.629	43.554	0	495.00	0	4.6500	0	34.1100	4	27.013	0	490.461	0	42.5	4	13.6	4	-1E+10	1	-1E+10	1	-1E+10	1	-1E+10	1	-1E+10	1	-1E+10	1
4901784	73	C	07/04/2017	10:35	-132.629	43.554	0	497.50	0	4.6400	0	34.1120	4	27.016	0	492.935	0	42.0	4	13.5	4	-1E+10	1	-1E+10	1	-1E+10	1	-1E+10	1	-1E+10	1	-1E+10	1
4901784	73	C	07/04/2017	10:35	-132.629	43.554	0	500.00	0	4.6280	0	34.1160	4	27.020	0	495.409	0	41.6	4	13.3	4	-1E+10	1	-1E+10	1	-1E+10	1	-1E+10	1	-1E+10	1	-1E+10	1
4901784	73	C	07/04/2017	10:35	-132.629	43.554	0	505.10	0	4.6180	0	34.1170	4	27.022	0	500.456	0	41.0	4	13.1	4	-1E+10	1	-1E+10	1	-1E+10	1	-1E+10	1	-1E+10	1	-1E+10	1
4901784	73	C	07/04/2017	10:35	-132.629	43.554	0	510.40	0	4.6050	0	34.1200	4	27.026	0	505.701	0	39.9	4	12.8	4	-1E+10	1	-1E+10	1	-1E+10	1	-1E+10	1	-1E+10	1	-1E+10	1
4901784	73	C	07/04/2017	10:35	-132.629	43.554	0	515.60	0	4.5870	0	34.1250	4	27.032	0	510.846	0	38.8	4	12.4	4	-1E+10	1	-1E+10	1	-1E+10	1	-1E+10	1	-1E+10	1	-1E+10	1
4901784	73	C	07/04/2017	10:35	-132.629	43.554	0	520.00	0	4.5690	0	34.1300	4	27.038	0	515.200	0	37.9	4	12.1	4	-1E+10	1	-1E+10	1	-1E+10	1	-1E+10	1	-1E+10	1	-1E+10	1
4901784	73	C	07/04/2017	10:35	-132.629	43.554	0	524.30	0	4.5530	0	34.1330	4	27.042	0	519.455	0	37.1	4	11.9	4	-1E+10	1	-1E+10	1	-1E+10	1	-1E+10	1	-1E+10	1	-1E+10	1
4901784	73	C	07/04/2017	10:35	-132.629	43.554	0	529.50	0	4.5340	0	34.1370	4	27.048	0	524.601	0	36.0	4	11.5	4	-1E+10	1	-1E+10	1	-1E+10	1	-1E+10	1	-1E+10	1	-1E+10	1
4901784	73	C	07/04/2017	10:35	-132.629	43.554	0	534.90	0	4.5030	0	34.1440	4	27.057	0	529.944	0	34.6	4	11.1	4	-1E+10	1	-1E+10	1	-1E+10	1	-1E+10	1	-1E+10	1	-1E+10	1
4901784	73	C	07/04/2017	10:35	-132.629	43.554	0	540.30	0	4.4800	0	34.1520	4	27.065	0	535.287	0	33.7	4	10.7	4	-1E+10	1	-1E+10	1	-1E+10	1	-1E+10	1	-1E+10	1	-1E+10	1
4901784	73	C	07/04/2017	10:35	-132.629	43.554	0	545.70	0	4.4670	0	34.1530	4	27.068	0	540.630	0	32.9	4	10.5	4	-1E+10	1	-1E+10	1	-1E+10	1	-1E+10	1	-1E+10	1	-1E+10	1
4901784	73	C	07/04/2017	10:35	-132.629	43.554	0	550.10	0	4.4580	0	34.1560	4	27.071	0	544.983	0	31.9	4	10.2	4	-1E+10	1	-1E+10	1	-1E+10	1	-1E+10	1	-1E+10	1	-1E+10	1
4901784	73	C	07/04/2017	10:35	-132.629	43.554	0	554.60	0	4.4340	0	34.1620	4	27.078	0	549.435	0	31.0	4	9.9	4	-1E+10	1	-1E+10	1	-1E+10	1	-1E+10	1	-1E+10	1	-1E+10	1
4901784	73	C	07/04/2017	10:35	-132.629	43.554	0	559.90	0	4.3910	0	34.1690	4	27.089	0	554.679	0	30.1	4	9.6	4	-1E+10	1	-1E+10	1	-1E+10	1	-1E+10	1	-1E+10	1	-1E+10	1
4901784	73	C	07/04/2017	10:35	-132.629	43.554	0	565.40	0	4.3660	0	34.1730	4	27.095	0	560.120	0	29.1	4	9.3	4	-1E+10	1	-1E+10	1	-1E+10	1	-1E+10	1	-1E+10	1	-1E+10	1
4901784	73	C	07/04/2017	10:35	-132.629	43.554	0	569.90	0	4.3360	0	34.1800	4	27.103	0	564.572	0	28.3	4	9.0	4	-1E+10	1	-1E+10	1	-1E+10	1	-1E+10	1	-1E+10	1	-1E+10	1
4901784	73	C	07/04/2017	10:35	-132.629	43.554	0	574.50	0	4.3210	0	34.1840	4	27.108	0	569.123	0	27.9	4	8.9	4	-1E+10	1	-1E+10	1	-1E+10	1	-1E+10	1	-1E+10	1	-1E+10	1
4901784	73	C	07/04/2017	10:35	-132.629	43.554	0	580.00	0	4.3080	0	34.1860	4	27.111	0	574.564	0	27.2	4	8.7	4	-1E+10	1	-1E+10	1	-1E+10	1	-1E+10	1	-1E+10	1	-1E+10	1
4901784	73	C	07/04/2017	10:35	-132.629	43.554	0	585.50	0	4.2900	0	34.1910	4	27.117	0	580.005	0	26.5	4	8.4	4	-1E+10	1	-1E+10	1	-1E+10	1	-1E+10	1	-1E+10	1	-1E+10	1
4901784	73	C	07/04/2017	10:35	-132.629	43.554	0	590.10	0	4.2850	0	34.1930	4	27.119	0	584.555	0	26.0	4	8.3	4	-1E+10	1	-1E+10	1	-1E+10	1	-1E+10	1	-1E+10	1	-1E+10	1
4901784	73	C	07/04/2017	10:35	-132.629	43.554	0	594.70	0	4.2770	0	34.1960	4	27.122	0	589.105	0	25.1	4	8.0	4	-1E+10	1	-1E+10	1	-1E+10	1	-1E+10	1	-1E+10	1	-1E+10	1
4901784	73	C	07/04/2017	10:35	-132.629	43.554	0	599.90	0	4.2510	0	34.2060	4	27.133	0	594.249	0	23.9	4	7.6	4	-1E+10	1	-1E+10	1	-1E+10	1	-1E+10	1	-1E+10	1	-1E+10	1
4901784	73	C	07/04/2017	10:35	-132.629	43.554	0	605.00	0	4.2380	0	34.2110	4	27.139	0	599.293	0	23.3	4	7.4	4	-1E+10	1	-1E+10	1	-1E+10	1	-1E+10	1	-1E+10	1	-1E+10	1
4901784	73	C	07/04/2017	10:35	-132.629	43.554	0	610.60	0	4.2200	0	34.2160	4	27.144	0	604.832	0	22.5	4	7.2	4	-1E+10	1	-1E+10	1	-1E+10	1	-1E+10	1	-1E+10	1	-1E+10	1
4901784	73	C	07/04/2017	10:35	-132.629	43.554	0	615.50	0	4.2080	0	34.2200	4	27.149	0	609.679	0	22.0	4	7.0	4	-1E+10	1	-1E+10	1	-1E+10	1	-1E+10	1	-1E+10	1	-1E+10	1
4901784	73	C	07/04/2017	10:35	-132.629	43.554	0	620.40	0	4.1990	0	34.2230	4	27.152	0	614.525	0	21.5	4	6.8	4	-1E+10	1	-1E+10	1	-1E+10	1	-1E+10	1	-1E+10	1	-1E+10	1
4901784	73	C	07/04/2017	10:35	-132.629	43.554	0	625.30	0	4.1820	0	34.2290	4	27.159	0	619.372	0	20.8	4	6.6	4	-1E+10	1	-1E+10	1	-1E+10	1	-1E+10	1	-1E+10	1	-1E+10	1
4901784	73	C	07/04/2017	10:35	-132.629	43.554	0	630.20	0	4.1700	0	34.2330	4	27.163	0	624.218	0	20.3	4	6.4	4	-1E+10	1	-1E+10	1	-1E+10	1	-1E+10	1	-1E+10	1	-1E+10	1
4901784	73	C	07/04/2017	10:35	-132.629	43.554	0	635.30	0	4.1580	0	34.2380	4	27.169	0	629.262	0	19.8	4	6.3	4	-1E+10	1	-1E+10	1	-1E+10	1	-1E+10	1	-1E+10	1	-1E+10	1
4901784	73	C	07/04/2017	10:35	-132.629	43.554	0	640.40	0	4.1470	0	34.2420	4	27.173	0	634.306	0	19.3	4	6.1	4	-1E+10	1	-1E+10	1	-1E+10	1	-1E+10	1	-1E+10	1	-1E+10	1
4901784	73	C	07/04/2017	10:35	-132.629	43.554	0	645.50	0	4.1290	0	34.2480	4	27.180	0	639.349	0	18.8	4	6.0	4	-1E+10	1	-1E+10	1	-1E+10	1	-1E+10	1	-1E+10	1	-1E+10	1
4901784	73	C	07/04/2017	10:35	-132.629	43.554	0	650.70	0	4.1200	0	34.2510	4	27.183	0	644.492	0	18.4	4	5.8	4	-1E+10	1	-1E+10	1	-1E+10	1	-1E+10	1	-1E+10	1	-1E+10	1
4901784	73	C	07/04/2017	10:35	-132.629	43.554	0	655.10	0	4.1150	0	34.2530	4	27.185	0	648.843	0	18.2	4	5.8	4	-1E+10	1	-1E+10	1	-1E+10	1	-1E+10	1	-1E+10	1	-1E+10	1
4901784	73	C	07/04/2017	10:35	-132.629	43.554	0	659.50	0	4.1070	0	34.2560	4	27.188	0	653.194	0	17.8	4	5.7	4	-1E+10	1	-1E+10	1	-1E+10	1	-1E+10	1	-1E+10	1	-1E+10	1
4901784	73	C	07/04/2017	10:35	-132.629	43.554	0	664.80	0	4.0950	0	34.2600	4	27.193	0	658.435	0	17.5	4	5.5	4	-1E+10	1	-1E+10	1	-1E+10	1	-1E+10	1	-1E+10	1	-1E+10	1
4901784	73	C	07/04/2017	10:35	-132.629	43.554	0	670.00	0	4.0840	0	34.2630	4	27.196	0	663.577	0	17.1	4	5.4	4	-1E+10	1	-1E+10	1	-1E+10	1	-1E+10	1	-1E+10	1	-1E+10	1
4901784	73	C	07/04/2017	10:35	-132.629	43.554	0	675.30	0	4.0710	0	34.2680	4	27.202	0	668.818	0	16.7	4	5.3	4	-1E+10	1	-1E+10	1	-1E+10	1	-1E+10	1	-1E+10	1	-1E+10	1
4901784	73	C	07/04/2017	10:35	-132.629	43.554	0	680.50	0	4.0580	0	34.2720	4	27.206	0	673.959	0	16.4	4	5.2	4	-1E+10	1	-1E+10	1	-1E+10	1	-1E+10	1	-1E+10	1	-1E+10	1
4901784	73	C	07/04/2017	10:35	-132.629	43.554	0	685.00	0	4.0480	0	34.2770	4	27.211	0	678.409	0	16.1	4	5.1	4	-1E+10	1	-1E+10	1	-1E+10	1	-1E+10	1	-1E+10	1	-1E+10	1
4901784	73	C	07/04/2017	10:35	-132.629	43.554	0	689.40	0	4.0400	0	34.2790	4	27.214	0	682.759	0	15.8	4	5.0	4	-1E+10	1	-1E+10	1	-1E+10	1	-1E+10	1	-1E+10	1	-1E+10	1
4901784	73	C	07/04/2017	10:35	-132.629	43.554	0	694.80	0	4.0320	0	34.2830	4	27.218	0	688.098	0	15.5	4	4.9	4	-1E+10	1	-1E+10	1	-1E+10	1	-1E+10	1	-1E+10	1	-1E+10	1
4901784	73	C	07/04/2017	10:35	-132.629	43.554	0	700.30	0	4.0240	0	34.2860	4	27.221	0	693.536	0	15.2	4	4.8	4	-1E+10	1	-1E+10	1	-1E+10	1	-1E+10	1	-1E+10	1	-1E+10	1
4901784	73	C	07/04/2017	10:35	-132.629	43.554	0	704.80	0	4.0170	0	34.2900	4	27.225	0	697.985	0	15.0	4	4.7	4	-1E+10	1	-1E+10	1	-1E+10	1	-1E+10	1	-1E+10	1	-1E+10	1
4901784	73	C	07/04/2017	10:35	-132.629	43.554	0	709.40	0	4.0100	0	34.2920	4	27.227	0	702.533	0	14.8	4	4.7	4	-1E+10	1	-1E+10	1	-1E+10	1	-1E+10	1	-1E+10	1	-1E+10	1
4901784	73	C	07/04/2017	10:35	-132.629	43.554	0	715.00	0	3.9990	0	34.2970	4	27.232	0	708.069	0	14.6	4	4.6	4	-1E+10	1	-1E+10	1	-1E+10	1	-1E+10	1	-1E+10	1	-1E+10	1
4901784	73	C	07/04/2017	10:35	-132.629	43.554	0	720.60	0	3.9940	0	34.2990	4	27.235	0	713.605	0	14.4	4	4.5	4	-1E+10	1	-1E+10	1	-1E+10	1	-1E+10	1	-1E+10	1	-1E+10	1
4901784	73	C	07/04/2017	10:35	-132.629	43.554	0	725.20	0	3.9850	0	34.3020	4	27.238	0	718.153	0	14.1	4	4.5	4	-1E+10	1	-1E+10	1	-1E+10	1	-1E+10	1	-1E+10	1	-1E+10	1
4901784	73	C	07/04/2017	10:35	-132.629	43.554	0	729.90	0	3.9700	0	34.3060	4	27.243	0	722.799	0	13.9	4	4.4	4	-1E+10	1	-1E+10	1	-1E+10	1	-1E+10	1	-1E+10	1	-1E+10	1
4901784	73	C	07/04/2017	10:35	-132.629	43.554	0	735.50	0	3.9520	0	34.3110	4	27.249	0	728.335	0	13.6	4	4.3	4	-1E+10	1	-1E+10	1	-1E+10	1	-1E+10	1	-1E+10	1	-1E+10	1
4901784	73	C	07/04/2017	10:35	-132.629	43.554	0	740.20	0	3.9430	0	34.3150	4	27.253	0	732.981	0	13.3	4	4.2	4	-1E+10	1	-1E+10	1	-1E+10	1	-1E+10	1	-1E+10	1	-1E+10	1
4901784	73	C	07/04/2017	10:35	-132.629	43.554	0	744.90	0	3.9240	0	34.3220	4	27.260	0	737.626	0	13.1	4	4.1	4	-1E+10	1	-1E+10	1	-1E+10	1	-1E+10	1	-1E+10	1	-1E+10	1
4901784	73	C	07/04/2017	10:35	-132.629	43.554	0	750.60	0	3.9050	0	34.3280	4	27.267	0	743.261	0	12.9	4	4.1	4	-1E+10	1	-1E+10	1	-1E+10	1	-1E+10	1	-1E+10	1	-1E+10	1
4901784	73	C	07/04/2017	10:35	-132.629	43.554	0	755.30	0	3.9000	0	34.3300	4	27.269	0	747.906	0	12.8	4	4.0	4	-1E+10	1	-1E+10	1	-1E+10	1	-1E+10	1	-1E+10	1	-1E+10	1
4901784	73	C	07/04/2017	10:35	-132.629	43.554	0	760.00	0	3.8880	0	34.3340	4	27.274	0	752.552	0	12.6	4	4.0	4	-1E+10	1	-1E+10	1	-1E+10	1	-1E+10	1	-1E+10	1	-1E+10	1
4901784	73	C	07/04/2017	10:35	-132.629	43.554	0	764.70	0	3.8800	0	34.3360	4	27.276	0	757.197	0	12.5	4	3.9	4	-1E+10	1	-1E+10	1	-1E+10	1	-1E+10	1	-1E+10	1	-1E+10	1
4901784	73	C	07/04/2017	10:35	-132.629	43.554	0	769.40	0	3.8730	0	34.3400	4	27.280	0	761.842	0	12.4	4	3.9	4	-1E+10	1	-1E+10	1	-1E+10	1	-1E+10	1	-1E+10	1	-1E+10	1
4901784	73	C	07/04/2017	10:35	-132.629	43.554	0	774.90	0	3.8590	0	34.3420	4	27.283	0	767.278	0	12.2	4	3.8	4	-1E+10	1	-1E+10	1	-1E+10	1	-1E+10	1	-1E+10	1	-1E+10	1
4901784	73	C	07/04/2017	10:35	-132.629	43.554	0	780.50	0	3.8430	0	34.3470	4	27.289	0	772.813	0	12.0	4	3.8	4	-1E+10	1	-1E+10	1	-1E+10	1	-1E+10	1	-1E+10	1	-1E+10	1
4901784	73	C	07/04/2017	10:35	-132.629	43.554	0	785.10	0	3.8300	0	34.3530	4	27.295	0	777.359	0	11.9	4	3.7	4	-1E+10	1	-1E+10	1	-1E+10	1	-1E+10	1	-1E+10	1	-1E+10	1
4901784	73	C	07/04/2017	10:35	-132.629	43.554	0	789.80	0	3.8130	0	34.3560	4	27.299	0	782.004	0	11.9	4	3.7	4	-1E+10	1	-1E+10	1	-1E+10	1	-1E+10	1	-1E+10	1	-1E+10	1
4901784	73	C	07/04/2017	10:35	-132.629	43.554	0	795.30	0	3.7890	0	34.3610	4	27.305	0	787.439	0	11.8	4	3.7	4	-1E+10	1	-1E+10	1	-1E+10	1	-1E+10	1	-1E+10	1	-1E+10	1
4901784	73	C	07/04/2017	10:35	-132.629	43.554	0	799.90	0	3.7800	0	34.3630	4	27.308	0	791.985	0	11.7	4	3.7	4	-1E+10	1	-1E+10	1	-1E+10	1	-1E+10	1	-1E+10	1	-1E+10	1
4901784	73	C	07/04/2017	10:35	-132.629	43.554	0	804.80	0	3.7590	0	34.3680	4	27.314	0	796.827	0	11.6	4	3.7	4	-1E+10	1	-1E+10	1	-1E+10	1	-1E+10	1	-1E+10	1	-1E+10	1
4901784	73	C	07/04/2017	10:35	-132.629	43.554	0	810.00	0	3.7380	0	34.3730	4	27.320	0	801.966	0	11.5	4	3.6	4	-1E+10	1	-1E+10	1	-1E+10	1	-1E+10	1	-1E+10	1	-1E+10	1
4901784	73	C	07/04/2017	10:35	-132.629	43.554	0	814.80	0	3.7230	0	34.3780	4	27.325	0	806.709	0	11.5	4	3.6	4	-1E+10	1	-1E+10	1	-1E+10	1	-1E+10	1	-1E+10	1	-1E+10	1
4901784	73	C	07/04/2017	10:35	-132.629	43.554	0	819.70	0	3.7170	0	34.3790	4	27.327	0	811.551	0	11.5	4	3.6	4	-1E+10	1	-1E+10	1	-1E+10	1	-1E+10	1	-1E+10	1	-1E+10	1
4901784	73	C	07/04/2017	10:35	-132.629	43.554	0	824.60	0	3.7080	0	34.3810	4	27.329	0	816.392	0	11.4	4	3.6	4	-1E+10	1	-1E+10	1	-1E+10	1	-1E+10	1	-1E+10	1	-1E+10	1
4901784	73	C	07/04/2017	10:35	-132.629	43.554	0	829.30	0	3.6940	0	34.3850	4	27.334	0	821.036	0	11.4	4	3.6	4	-1E+10	1	-1E+10	1	-1E+10	1	-1E+10	1	-1E+10	1	-1E+10	1
4901784	73	C	07/04/2017	10:35	-132.629	43.554	0	834.20	0	3.6910	0	34.3860	4	27.335	0	825.878	0	11.4	4	3.6	4	-1E+10	1	-1E+10	1	-1E+10	1	-1E+10	1	-1E+10	1	-1E+10	1
4901784	73	C	07/04/2017	10:35	-132.629	43.554	0	839.20	0	3.6860	0	34.3870	4	27.336	0	830.818	0	11.4	4	3.6	4	-1E+10	1	-1E+10	1	-1E+10	1	-1E+10	1	-1E+10	1	-1E+10	1
4901784	73	C	07/04/2017	10:35	-132.629	43.554	0	844.20	0	3.6720	0	34.3910	4	27.341	0	835.758	0	11.3	4	3.6	4	-1E+10	1	-1E+10	1	-1E+10	1	-1E+10	1	-1E+10	1	-1E+10	1
4901784	73	C	07/04/2017	10:35	-132.629	43.554	0	849.20	0	3.6700	0	34.3910	4	27.341	0	840.698	0	11.3	4	3.6	4	-1E+10	1	-1E+10	1	-1E+10	1	-1E+10	1	-1E+10	1	-1E+10	1
4901784	73	C	07/04/2017	10:35	-132.629	43.554	0	854.20	0	3.6500	0	34.3960	4	27.347	0	845.638	0	11.3	4	3.5	4	-1E+10	1	-1E+10	1	-1E+10	1	-1E+10	1	-1E+10	1	-1E+10	1
4901784	73	C	07/04/2017	10:35	-132.629	43.554	0	859.40	0	3.6370	0	34.3990	4	27.351	0	850.775	0	11.3	4	3.5	4	-1E+10	1	-1E+10	1	-1E+10	1	-1E+10	1	-1E+10	1	-1E+10	1
4901784	73	C	07/04/2017	10:35	-132.629	43.554	0	864.50	0	3.6270	0	34.4020	4	27.354	0	855.814	0	11.3	4	3.5	4	-1E+10	1	-1E+10	1	-1E+10	1	-1E+10	1	-1E+10	1	-1E+10	1
4901784	73	C	07/04/2017	10:35	-132.629	43.554	0	869.70	0	3.6130	0	34.4050	4	27.358	0	860.951	0	11.3	4	3.5	4	-1E+10	1	-1E+10	1	-1E+10	1	-1E+10	1	-1E+10	1	-1E+10	1
4901784	73	C	07/04/2017	10:35	-132.629	43.554	0	874.80	0	3.6010	0	34.4080	4	27.362	0	865.989	0	11.3	4	3.5	4	-1E+10	1	-1E+10	1	-1E+10	1	-1E+10	1	-1E+10	1	-1E+10	1
4901784	73	C	07/04/2017	10:35	-132.629	43.554	0	880.00	0	3.5840	0	34.4130	4	27.367	0	871.126	0	11.3	4	3.6	4	-1E+10	1	-1E+10	1	-1E+10	1	-1E+10	1	-1E+10	1	-1E+10	1
4901784	73	C	07/04/2017	10:35	-132.629	43.554	0	885.30	0	3.5730	0	34.4160	4	27.371	0	876.361	0	11.4	4	3.6	4	-1E+10	1	-1E+10	1	-1E+10	1	-1E+10	1	-1E+10	1	-1E+10	1
4901784	73	C	07/04/2017	10:35	-132.629	43.554	0	890.60	0	3.5690	0	34.4170	4	27.372	0	881.596	0	11.4	4	3.6	4	-1E+10	1	-1E+10	1	-1E+10	1	-1E+10	1	-1E+10	1	-1E+10	1
4901784	73	C	07/04/2017	10:35	-132.629	43.554	0	895.10	0	3.5550	0	34.4220	4	27.377	0	886.041	0	11.4	4	3.6	4	-1E+10	1	-1E+10	1	-1E+10	1	-1E+10	1	-1E+10	1	-1E+10	1
4901784	73	C	07/04/2017	10:35	-132.629	43.554	0	899.50	0	3.5360	0	34.4260	4	27.383	0	890.387	0	11.5	4	3.6	4	-1E+10	1	-1E+10	1	-1E+10	1	-1E+10	1	-1E+10	1	-1E+10	1
4901784	73	C	07/04/2017	10:35	-132.629	43.554	0	904.90	0	3.5260	0	34.4280	4	27.385	0	895.721	0	11.5	4	3.6	4	-1E+10	1	-1E+10	1	-1E+10	1	-1E+10	1	-1E+10	1	-1E+10	1
4901784	73	C	07/04/2017	10:35	-132.629	43.554	0	910.20	0	3.5120	0	34.4320	4	27.390	0	900.956	0	11.5	4	3.6	4	-1E+10	1	-1E+10	1	-1E+10	1	-1E+10	1	-1E+10	1	-1E+10	1
4901784	73	C	07/04/2017	10:35	-132.629	43.554	0	915.60	0	3.5040	0	34.4340	4	27.392	0	906.289	0	11.6	4	3.6	4	-1E+10	1	-1E+10	1	-1E+10	1	-1E+10	1	-1E+10	1	-1E+10	1
4901784	73	C	07/04/2017	10:35	-132.629	43.554	0	920.00	0	3.5010	0	34.4360	4	27.394	0	910.635	0	11.6	4	3.6	4	-1E+10	1	-1E+10	1	-1E+10	1	-1E+10	1	-1E+10	1	-1E+10	1
4901784	73	C	07/04/2017	10:35	-132.629	43.554	0	924.50	0	3.4980	0	34.4360	4	27.394	0	915.080	0	11.6	4	3.6	4	-1E+10	1	-1E+10	1	-1E+10	1	-1E+10	1	-1E+10	1	-1E+10	1
4901784	73	C	07/04/2017	10:35	-132.629	43.554	0	929.80	0	3.4860	0	34.4400	4	27.399	0	920.314	0	11.7	4	3.7	4	-1E+10	1	-1E+10	1	-1E+10	1	-1E+10	1	-1E+10	1	-1E+10	1
4901784	73	C	07/04/2017	10:35	-132.629	43.554	0	935.10	0	3.4820	0	34.4410	4	27.400	0	925.548	0	11.8	4	3.7	4	-1E+10	1	-1E+10	1	-1E+10	1	-1E+10	1	-1E+10	1	-1E+10	1
4901784	73	C	07/04/2017	10:35	-132.629	43.554	0	940.30	0	3.4770	0	34.4420	4	27.401	0	930.683	0	11.8	4	3.7	4	-1E+10	1	-1E+10	1	-1E+10	1	-1E+10	1	-1E+10	1	-1E+10	1
4901784	73	C	07/04/2017	10:35	-132.629	43.554	0	945.50	0	3.4620	0	34.4470	4	27.407	0	935.819	0	11.9	4	3.7	4	-1E+10	1	-1E+10	1	-1E+10	1	-1E+10	1	-1E+10	1	-1E+10	1
4901784	73	C	07/04/2017	10:35	-132.629	43.554	0	950.80	0	3.4460	0	34.4510	4	27.411	0	941.052	0	11.9	4	3.7	4	-1E+10	1	-1E+10	1	-1E+10	1	-1E+10	1	-1E+10	1	-1E+10	1
4901784	73	C	07/04/2017	10:35	-132.629	43.554	0	955.00	0	3.4290	0	34.4530	4	27.415	0	945.200	0	11.9	4	3.7	4	-1E+10	1	-1E+10	1	-1E+10	1	-1E+10	1	-1E+10	1	-1E+10	1
4901784	73	C	07/04/2017	10:35	-132.629	43.554	0	959.40	0	3.4290	0	34.4530	4	27.415	0	949.545	0	11.9	4	3.7	4	-1E+10	1	-1E+10	1	-1E+10	1	-1E+10	1	-1E+10	1	-1E+10	1
4901784	73	C	07/04/2017	10:35	-132.629	43.554	0	964.50	0	3.4250	0	34.4530	4	27.415	0	954.581	0	11.9	4	3.7	4	-1E+10	1	-1E+10	1	-1E+10	1	-1E+10	1	-1E+10	1	-1E+10	1
4901784	73	C	07/04/2017	10:35	-132.629	43.554	0	969.60	0	3.4040	0	34.4570	4	27.420	0	959.617	0	12.0	4	3.7	4	-1E+10	1	-1E+10	1	-1E+10	1	-1E+10	1	-1E+10	1	-1E+10	1
4901784	73	C	07/04/2017	10:35	-132.629	43.554	0	974.70	0	3.3950	0	34.4610	4	27.424	0	964.652	0	12.1	4	3.8	4	-1E+10	1	-1E+10	1	-1E+10	1	-1E+10	1	-1E+10	1	-1E+10	1
4901784	73	C	07/04/2017	10:35	-132.629	43.554	0	979.80	0	3.3900	0	34.4620	4	27.426	0	969.688	0	12.2	4	3.8	4	-1E+10	1	-1E+10	1	-1E+10	1	-1E+10	1	-1E+10	1	-1E+10	1
4901784	73	C	07/04/2017	10:35	-132.629	43.554	0	984.90	0	3.3770	0	34.4650	4	27.429	0	974.724	0	12.3	4	3.8	4	-1E+10	1	-1E+10	1	-1E+10	1	-1E+10	1	-1E+10	1	-1E+10	1
4901784	73	C	07/04/2017	10:35	-132.629	43.554	0	989.90	0	3.3510	0	34.4690	4	27.435	0	979.660	0	12.3	4	3.8	4	-1E+10	1	-1E+10	1	-1E+10	1	-1E+10	1	-1E+10	1	-1E+10	1
4901784	73	C	07/04/2017	10:35	-132.629	43.554	0	994.90	0	3.3320	0	34.4720	4	27.439	0	984.597	0	12.4	4	3.9	4	-1E+10	1	-1E+10	1	-1E+10	1	-1E+10	1	-1E+10	1	-1E+10	1
4901784	73	C	07/04/2017	10:35	-132.629	43.554	0	999.90	0	3.3280	0	34.4730	4	27.441	0	989.533	0	12.6	4	3.9	4	-1E+10	1	-1E+10	1	-1E+10	1	-1E+10	1	-1E+10	1	-1E+10	1
4901784	73	C	07/04/2017	10:35	-132.629	43.554	0	1004.90	0	3.3140	0	34.4760	4	27.444	0	994.469	0	13.0	4	4.0	4	-1E+10	1	-1E+10	1	-1E+10	1	-1E+10	1	-1E+10	1	-1E+10	1
4901784	73	C	07/04/2017	10:35	-132.629	43.554	0	1009.80	0	3.2950	0	34.4850	4	27.453	0	999.307	0	13.4	4	4.2	4	-1E+10	1	-1E+10	1	-1E+10	1	-1E+10	1	-1E+10	1	-1E+10	1
4901784	73	C	07/04/2017	10:35	-132.629	43.554	0	1014.80	0	3.2770	0	34.4890	4	27.458	0	1004.243	0	13.4	4	4.2	4	-1E+10	1	-1E+10	1	-1E+10	1	-1E+10	1	-1E+10	1	-1E+10	1
4901784	73	C	07/04/2017	10:35	-132.629	43.554	0	1019.90	0	3.2540	0	34.4900	4	27.461	0	1009.278	0	13.4	4	4.2	4	-1E+10	1	-1E+10	1	-1E+10	1	-1E+10	1	-1E+10	1	-1E+10	1
4901784	73	C	07/04/2017	10:35	-132.629	43.554	0	1025.00	0	3.2390	0	34.4920	4	27.464	0	1014.312	0	13.8	4	4.3	4	-1E+10	1	-1E+10	1	-1E+10	1	-1E+10	1	-1E+10	1	-1E+10	1
4901784	73	C	07/04/2017	10:35	-132.629	43.554	0	1030.30	0	3.2360	0	34.4950	4	27.467	0	1019.544	0	14.5	4	4.5	4	-1E+10	1	-1E+10	1	-1E+10	1	-1E+10	1	-1E+10	1	-1E+10	1
4901784	73	C	07/04/2017	10:35	-132.629	43.554	0	1035.60	0	3.2590	0	34.5010	4	27.470	0	1024.776	0	15.6	4	4.8	4	-1E+10	1	-1E+10	1	-1E+10	1	-1E+10	1	-1E+10	1	-1E+10	1
4901784	73	C	07/04/2017	10:35	-132.629	43.554	0	1040.00	0	3.2930	0	34.5080	4	27.472	0	1029.119	0	16.2	4	5.0	4	-1E+10	1	-1E+10	1	-1E+10	1	-1E+10	1	-1E+10	1	-1E+10	1
4901784	73	C	07/04/2017	10:35	-132.629	43.554	0	1044.50	0	3.2820	0	34.5080	4	27.473	0	1033.561	0	16.2	4	5.0	4	-1E+10	1	-1E+10	1	-1E+10	1	-1E+10	1	-1E+10	1	-1E+10	1
4901784	73	C	07/04/2017	10:35	-132.629	43.554	0	1050.50	0	3.2790	0	34.5110	4	27.476	0	1039.483	0	16.1	4	5.0	4	-1E+10	1	-1E+10	1	-1E+10	1	-1E+10	1	-1E+10	1	-1E+10	1
4901784	73	C	07/04/2017	10:35	-132.629	43.554	0	1055.40	0	3.2510	0	34.5090	4	27.477	0	1044.320	0	15.7	4	4.9	4	-1E+10	1	-1E+10	1	-1E+10	1	-1E+10	1	-1E+10	1	-1E+10	1
4901784	73	C	07/04/2017	10:35	-132.629	43.554	0	1059.90	0	3.2240	0	34.5080	4	27.479	0	1048.761	0	15.6	4	4.8	4	-1E+10	1	-1E+10	1	-1E+10	1	-1E+10	1	-1E+10	1	-1E+10	1
4901784	73	C	07/04/2017	10:35	-132.629	43.554	0	1064.50	0	3.2050	0	34.5100	4	27.482	0	1053.301	0	15.6	4	4.8	4	-1E+10	1	-1E+10	1	-1E+10	1	-1E+10	1	-1E+10	1	-1E+10	1
4901784	73	C	07/04/2017	10:35	-132.629	43.554	0	1069.50	0	3.1760	0	34.5110	4	27.485	0	1058.236	0	15.5	4	4.8	4	-1E+10	1	-1E+10	1	-1E+10	1	-1E+10	1	-1E+10	1	-1E+10	1
4901784	73	C	07/04/2017	10:35	-132.629	43.554	0	1074.80	0	3.1500	0	34.5130	4	27.489	0	1063.467	0	15.6	4	4.8	4	-1E+10	1	-1E+10	1	-1E+10	1	-1E+10	1	-1E+10	1	-1E+10	1
4901784	73	C	07/04/2017	10:35	-132.629	43.554	0	1080.10	0	3.1420	0	34.5140	4	27.491	0	1068.697	0	15.7	4	4.9	4	-1E+10	1	-1E+10	1	-1E+10	1	-1E+10	1	-1E+10	1	-1E+10	1
4901784	73	C	07/04/2017	10:35	-132.629	43.554	0	1085.60	0	3.1360	0	34.5160	4	27.493	0	1074.125	0	15.8	4	4.9	4	-1E+10	1	-1E+10	1	-1E+10	1	-1E+10	1	-1E+10	1	-1E+10	1
4901784	73	C	07/04/2017	10:35	-132.629	43.554	0	1090.10	0	3.1310	0	34.5160	4	27.494	0	1078.566	0	15.9	4	4.9	4	-1E+10	1	-1E+10	1	-1E+10	1	-1E+10	1	-1E+10	1	-1E+10	1
4901784	73	C	07/04/2017	10:35	-132.629	43.554	0	1094.20	0	3.1160	0	34.5180	4	27.497	0	1082.612	0	16.2	4	5.0	4	-1E+10	1	-1E+10	1	-1E+10	1	-1E+10	1	-1E+10	1	-1E+10	1
4901784	73	C	07/04/2017	10:35	-132.629	43.554	0	1099.40	0	3.1100	0	34.5220	4	27.501	0	1087.744	0	16.4	4	5.1	4	-1E+10	1	-1E+10	1	-1E+10	1	-1E+10	1	-1E+10	1	-1E+10	1
4901784	73	C	07/04/2017	10:35	-132.629	43.554	0	1105.00	0	3.0900	0	34.5220	4	27.502	0	1093.270	0	16.3	4	5.0	4	-1E+10	1	-1E+10	1	-1E+10	1	-1E+10	1	-1E+10	1	-1E+10	1
4901784	73	C	07/04/2017	10:35	-132.629	43.554	0	1110.70	0	3.0700	0	34.5220	4	27.504	0	1098.894	0	16.3	4	5.0	4	-1E+10	1	-1E+10	1	-1E+10	1	-1E+10	1	-1E+10	1	-1E+10	1
4901784	73	C	07/04/2017	10:35	-132.629	43.554	0	1115.70	0	3.0580	0	34.5240	4	27.507	0	1103.828	0	16.5	4	5.1	4	-1E+10	1	-1E+10	1	-1E+10	1	-1E+10	1	-1E+10	1	-1E+10	1
4901784	73	C	07/04/2017	10:35	-132.629	43.554	0	1120.80	0	3.0450	0	34.5260	4	27.510	0	1108.860	0	16.6	4	5.1	4	-1E+10	1	-1E+10	1	-1E+10	1	-1E+10	1	-1E+10	1	-1E+10	1
4901784	73	C	07/04/2017	10:35	-132.629	43.554	0	1125.10	0	3.0380	0	34.5280	4	27.512	0	1113.103	0	16.8	4	5.2	4	-1E+10	1	-1E+10	1	-1E+10	1	-1E+10	1	-1E+10	1	-1E+10	1
4901784	73	C	07/04/2017	10:35	-132.629	43.554	0	1129.40	0	3.0370	0	34.5280	4	27.512	0	1117.346	0	17.0	4	5.3	4	-1E+10	1	-1E+10	1	-1E+10	1	-1E+10	1	-1E+10	1	-1E+10	1
4901784	73	C	07/04/2017	10:35	-132.629	43.554	0	1134.80	0	3.0430	0	34.5300	4	27.513	0	1122.674	0	17.2	4	5.3	4	-1E+10	1	-1E+10	1	-1E+10	1	-1E+10	1	-1E+10	1	-1E+10	1
4901784	73	C	07/04/2017	10:35	-132.629	43.554	0	1140.20	0	3.0410	0	34.5310	4	27.514	0	1128.001	0	17.1	4	5.3	4	-1E+10	1	-1E+10	1	-1E+10	1	-1E+10	1	-1E+10	1	-1E+10	1
4901784	73	C	07/04/2017	10:35	-132.629	43.554	0	1145.60	0	3.0150	0	34.5310	4	27.517	0	1133.329	0	17.0	4	5.2	4	-1E+10	1	-1E+10	1	-1E+10	1	-1E+10	1	-1E+10	1	-1E+10	1
4901784	73	C	07/04/2017	10:35	-132.629	43.554	0	1150.20	0	3.0120	0	34.5310	4	27.517	0	1137.867	0	17.0	4	5.3	4	-1E+10	1	-1E+10	1	-1E+10	1	-1E+10	1	-1E+10	1	-1E+10	1
4901784	73	C	07/04/2017	10:35	-132.629	43.554	0	1154.80	0	3.0050	0	34.5310	4	27.518	0	1142.406	0	17.2	4	5.3	4	-1E+10	1	-1E+10	1	-1E+10	1	-1E+10	1	-1E+10	1	-1E+10	1
4901784	73	C	07/04/2017	10:35	-132.629	43.554	0	1160.30	0	2.9940	0	34.5330	4	27.520	0	1147.832	0	17.5	4	5.4	4	-1E+10	1	-1E+10	1	-1E+10	1	-1E+10	1	-1E+10	1	-1E+10	1
4901784	73	C	07/04/2017	10:35	-132.629	43.554	0	1165.00	0	2.9810	0	34.5360	4	27.524	0	1152.468	0	17.8	4	5.5	4	-1E+10	1	-1E+10	1	-1E+10	1	-1E+10	1	-1E+10	1	-1E+10	1
4901784	73	C	07/04/2017	10:35	-132.629	43.554	0	1169.80	0	2.9770	0	34.5380	4	27.526	0	1157.203	0	17.9	4	5.5	4	-1E+10	1	-1E+10	1	-1E+10	1	-1E+10	1	-1E+10	1	-1E+10	1
4901784	73	C	07/04/2017	10:35	-132.629	43.554	0	1175.50	0	2.9700	0	34.5380	4	27.526	0	1162.826	0	17.8	4	5.5	4	-1E+10	1	-1E+10	1	-1E+10	1	-1E+10	1	-1E+10	1	-1E+10	1
4901784	73	C	07/04/2017	10:35	-132.629	43.554	0	1180.30	0	2.9580	0	34.5380	4	27.528	0	1167.561	0	17.7	4	5.5	4	-1E+10	1	-1E+10	1	-1E+10	1	-1E+10	1	-1E+10	1	-1E+10	1
4901784	73	C	07/04/2017	10:35	-132.629	43.554	0	1185.20	0	2.9560	0	34.5380	4	27.528	0	1172.395	0	17.8	4	5.5	4	-1E+10	1	-1E+10	1	-1E+10	1	-1E+10	1	-1E+10	1	-1E+10	1
4901784	73	C	07/04/2017	10:35	-132.629	43.554	0	1190.70	0	2.9510	0	34.5380	4	27.528	0	1177.820	0	18.0	4	5.5	4	-1E+10	1	-1E+10	1	-1E+10	1	-1E+10	1	-1E+10	1	-1E+10	1
4901784	73	C	07/04/2017	10:35	-132.629	43.554	0	1195.10	0	2.9470	0	34.5400	4	27.530	0	1182.160	0	18.2	4	5.6	4	-1E+10	1	-1E+10	1	-1E+10	1	-1E+10	1	-1E+10	1	-1E+10	1
4901784	73	C	07/04/2017	10:35	-132.629	43.554	0	1199.50	0	2.9460	0	34.5410	4	27.531	0	1186.500	0	18.4	4	5.7	4	-1E+10	1	-1E+10	1	-1E+10	1	-1E+10	1	-1E+10	1	-1E+10	1
4901784	73	C	07/04/2017	10:35	-132.629	43.554	0	1204.70	0	2.9470	0	34.5420	4	27.532	0	1191.629	0	18.5	4	5.7	4	-1E+10	1	-1E+10	1	-1E+10	1	-1E+10	1	-1E+10	1	-1E+10	1
4901784	73	C	07/04/2017	10:35	-132.629	43.554	0	1209.90	0	2.9410	0	34.5430	4	27.533	0	1196.757	0	18.6	4	5.7	4	-1E+10	1	-1E+10	1	-1E+10	1	-1E+10	1	-1E+10	1	-1E+10	1
4901784	73	C	07/04/2017	10:35	-132.629	43.554	0	1215.30	0	2.9430	0	34.5430	4	27.533	0	1202.083	0	18.6	4	5.7	4	-1E+10	1	-1E+10	1	-1E+10	1	-1E+10	1	-1E+10	1	-1E+10	1
4901784	73	C	07/04/2017	10:35	-132.629	43.554	0	1219.80	0	2.9430	0	34.5440	4	27.534	0	1206.522	0	18.6	4	5.7	4	-1E+10	1	-1E+10	1	-1E+10	1	-1E+10	1	-1E+10	1	-1E+10	1
4901784	73	C	07/04/2017	10:35	-132.629	43.554	0	1224.30	0	2.9410	0	34.5430	4	27.533	0	1210.960	0	18.7	4	5.8	4	-1E+10	1	-1E+10	1	-1E+10	1	-1E+10	1	-1E+10	1	-1E+10	1
4901784	73	C	07/04/2017	10:35	-132.629	43.554	0	1229.90	0	2.9300	0	34.5450	4	27.536	0	1216.482	0	18.8	4	5.8	4	-1E+10	1	-1E+10	1	-1E+10	1	-1E+10	1	-1E+10	1	-1E+10	1
4901784	73	C	07/04/2017	10:35	-132.629	43.554	0	1235.40	0	2.9230	0	34.5450	4	27.537	0	1221.906	0	18.9	4	5.8	4	-1E+10	1	-1E+10	1	-1E+10	1	-1E+10	1	-1E+10	1	-1E+10	1
4901784	73	C	07/04/2017	10:35	-132.629	43.554	0	1239.90	0	2.9110	0	34.5470	4	27.539	0	1226.344	0	19.0	4	5.9	4	-1E+10	1	-1E+10	1	-1E+10	1	-1E+10	1	-1E+10	1	-1E+10	1
4901784	73	C	07/04/2017	10:35	-132.629	43.554	0	1244.50	0	2.9010	0	34.5480	4	27.541	0	1230.880	0	19.2	4	5.9	4	-1E+10	1	-1E+10	1	-1E+10	1	-1E+10	1	-1E+10	1	-1E+10	1
4901784	73	C	07/04/2017	10:35	-132.629	43.554	0	1249.90	0	2.8940	0	34.5490	4	27.543	0	1236.206	0	19.4	4	6.0	4	-1E+10	1	-1E+10	1	-1E+10	1	-1E+10	1	-1E+10	1	-1E+10	1
4901784	73	C	07/04/2017	10:35	-132.629	43.554	0	1255.20	0	2.8880	0	34.5510	4	27.545	0	1241.432	0	19.7	4	6.1	4	-1E+10	1	-1E+10	1	-1E+10	1	-1E+10	1	-1E+10	1	-1E+10	1
4901784	73	C	07/04/2017	10:35	-132.629	43.554	0	1260.50	0	2.8870	0	34.5520	4	27.546	0	1246.658	0	20.0	4	6.2	4	-1E+10	1	-1E+10	1	-1E+10	1	-1E+10	1	-1E+10	1	-1E+10	1
4901784	73	C	07/04/2017	10:35	-132.629	43.554	0	1265.00	0	2.8890	0	34.5540	4	27.547	0	1251.095	0	20.3	4	6.3	4	-1E+10	1	-1E+10	1	-1E+10	1	-1E+10	1	-1E+10	1	-1E+10	1
4901784	73	C	07/04/2017	10:35	-132.629	43.554	0	1269.50	0	2.8930	0	34.5550	4	27.548	0	1255.532	0	20.7	4	6.4	4	-1E+10	1	-1E+10	1	-1E+10	1	-1E+10	1	-1E+10	1	-1E+10	1
4901784	73	C	07/04/2017	10:35	-132.629	43.554	0	1274.90	0	2.8980	0	34.5560	4	27.548	0	1260.857	0	21.0	4	6.5	4	-1E+10	1	-1E+10	1	-1E+10	1	-1E+10	1	-1E+10	1	-1E+10	1
4901784	73	C	07/04/2017	10:35	-132.629	43.554	0	1280.30	0	2.8820	0	34.5580	4	27.551	0	1266.181	0	21.6	4	6.7	4	-1E+10	1	-1E+10	1	-1E+10	1	-1E+10	1	-1E+10	1	-1E+10	1
4901784	73	C	07/04/2017	10:35	-132.629	43.554	0	1285.70	0	2.8730	0	34.5610	4	27.554	0	1271.505	0	22.3	4	6.9	4	-1E+10	1	-1E+10	1	-1E+10	1	-1E+10	1	-1E+10	1	-1E+10	1
4901784	73	C	07/04/2017	10:35	-132.629	43.554	0	1290.10	0	2.8610	0	34.5630	4	27.557	0	1275.843	0	23.1	4	7.1	4	-1E+10	1	-1E+10	1	-1E+10	1	-1E+10	1	-1E+10	1	-1E+10	1
4901784	73	C	07/04/2017	10:35	-132.629	43.554	0	1294.60	0	2.8480	0	34.5710	4	27.564	0	1280.280	0	23.6	4	7.3	4	-1E+10	1	-1E+10	1	-1E+10	1	-1E+10	1	-1E+10	1	-1E+10	1
4901784	73	C	07/04/2017	10:35	-132.629	43.554	0	1300.10	0	2.8280	0	34.5710	4	27.566	0	1285.702	0	23.5	4	7.2	4	-1E+10	1	-1E+10	1	-1E+10	1	-1E+10	1	-1E+10	1	-1E+10	1
4901784	73	C	07/04/2017	10:35	-132.629	43.554	0	1304.70	0	2.8260	0	34.5710	4	27.566	0	1290.237	0	23.5	4	7.2	4	-1E+10	1	-1E+10	1	-1E+10	1	-1E+10	1	-1E+10	1	-1E+10	1
4901784	73	C	07/04/2017	10:35	-132.629	43.554	0	1309.20	0	2.8180	0	34.5710	4	27.567	0	1294.673	0	23.7	4	7.3	4	-1E+10	1	-1E+10	1	-1E+10	1	-1E+10	1	-1E+10	1	-1E+10	1
4901784	73	C	07/04/2017	10:35	-132.629	43.554	0	1314.60	0	2.8180	0	34.5720	4	27.568	0	1299.997	0	23.9	4	7.4	4	-1E+10	1	-1E+10	1	-1E+10	1	-1E+10	1	-1E+10	1	-1E+10	1
4901784	73	C	07/04/2017	10:35	-132.629	43.554	0	1319.50	0	2.8040	0	34.5730	4	27.570	0	1304.827	0	24.1	4	7.4	4	-1E+10	1	-1E+10	1	-1E+10	1	-1E+10	1	-1E+10	1	-1E+10	1
4901784	73	C	07/04/2017	10:35	-132.629	43.554	0	1324.40	0	2.7960	0	34.5740	4	27.572	0	1309.658	0	24.1	4	7.4	4	-1E+10	1	-1E+10	1	-1E+10	1	-1E+10	1	-1E+10	1	-1E+10	1
4901784	73	C	07/04/2017	10:35	-132.629	43.554	0	1330.00	0	2.7910	0	34.5740	4	27.572	0	1315.178	0	24.2	4	7.4	4	-1E+10	1	-1E+10	1	-1E+10	1	-1E+10	1	-1E+10	1	-1E+10	1
4901784	73	C	07/04/2017	10:35	-132.629	43.554	0	1335.50	0	2.7730	0	34.5750	4	27.574	0	1320.599	0	24.4	4	7.5	4	-1E+10	1	-1E+10	1	-1E+10	1	-1E+10	1	-1E+10	1	-1E+10	1
4901784	73	C	07/04/2017	10:35	-132.629	43.554	0	1340.30	0	2.7680	0	34.5760	4	27.576	0	1325.331	0	24.5	4	7.5	4	-1E+10	1	-1E+10	1	-1E+10	1	-1E+10	1	-1E+10	1	-1E+10	1
4901784	73	C	07/04/2017	10:35	-132.629	43.554	0	1345.40	0	2.7630	0	34.5750	4	27.575	0	1330.358	0	24.5	4	7.5	4	-1E+10	1	-1E+10	1	-1E+10	1	-1E+10	1	-1E+10	1	-1E+10	1
4901784	73	C	07/04/2017	10:35	-132.629	43.554	0	1350.70	0	2.7560	0	34.5760	4	27.577	0	1335.582	0	24.5	4	7.5	4	-1E+10	1	-1E+10	1	-1E+10	1	-1E+10	1	-1E+10	1	-1E+10	1
4901784	73	C	07/04/2017	10:35	-132.629	43.554	0	1355.20	0	2.7530	0	34.5760	4	27.577	0	1340.017	0	24.5	4	7.5	4	-1E+10	1	-1E+10	1	-1E+10	1	-1E+10	1	-1E+10	1	-1E+10	1
4901784	73	C	07/04/2017	10:35	-132.629	43.554	0	1359.70	0	2.7530	0	34.5760	4	27.577	0	1344.452	0	24.5	4	7.5	4	-1E+10	1	-1E+10	1	-1E+10	1	-1E+10	1	-1E+10	1	-1E+10	1
4901784	73	C	07/04/2017	10:35	-132.629	43.554	0	1365.10	0	2.7460	0	34.5760	4	27.578	0	1349.774	0	24.6	4	7.5	4	-1E+10	1	-1E+10	1	-1E+10	1	-1E+10	1	-1E+10	1	-1E+10	1
4901784	73	C	07/04/2017	10:35	-132.629	43.554	0	1370.50	0	2.7420	0	34.5760	4	27.578	0	1355.096	0	24.7	4	7.6	4	-1E+10	1	-1E+10	1	-1E+10	1	-1E+10	1	-1E+10	1	-1E+10	1
4901784	73	C	07/04/2017	10:35	-132.629	43.554	0	1375.00	0	2.7380	0	34.5770	4	27.579	0	1359.531	0	24.8	4	7.6	4	-1E+10	1	-1E+10	1	-1E+10	1	-1E+10	1	-1E+10	1	-1E+10	1
4901784	73	C	07/04/2017	10:35	-132.629	43.554	0	1379.70	0	2.7310	0	34.5770	4	27.580	0	1364.163	0	25.0	4	7.7	4	-1E+10	1	-1E+10	1	-1E+10	1	-1E+10	1	-1E+10	1	-1E+10	1
4901784	73	C	07/04/2017	10:35	-132.629	43.554	0	1385.20	0	2.7120	0	34.5780	4	27.582	0	1369.583	0	25.2	4	7.7	4	-1E+10	1	-1E+10	1	-1E+10	1	-1E+10	1	-1E+10	1	-1E+10	1
4901784	73	C	07/04/2017	10:35	-132.629	43.554	0	1389.90	0	2.6990	0	34.5790	4	27.584	0	1374.215	0	25.4	4	7.8	4	-1E+10	1	-1E+10	1	-1E+10	1	-1E+10	1	-1E+10	1	-1E+10	1
4901784	73	C	07/04/2017	10:35	-132.629	43.554	0	1394.50	0	2.6900	0	34.5790	4	27.585	0	1378.748	0	25.6	4	7.8	4	-1E+10	1	-1E+10	1	-1E+10	1	-1E+10	1	-1E+10	1	-1E+10	1
4901784	73	C	07/04/2017	10:35	-132.629	43.554	0	1400.10	0	2.6700	0	34.5810	4	27.589	0	1384.267	0	25.8	4	7.9	4	-1E+10	1	-1E+10	1	-1E+10	1	-1E+10	1	-1E+10	1	-1E+10	1
4901784	73	C	07/04/2017	10:35	-132.629	43.554	0	1404.80	0	2.6560	0	34.5820	4	27.591	0	1388.898	0	26.1	4	8.0	4	-1E+10	1	-1E+10	1	-1E+10	1	-1E+10	1	-1E+10	1	-1E+10	1
4901784	73	C	07/04/2017	10:35	-132.629	43.554	0	1409.30	0	2.6440	0	34.5830	4	27.592	0	1393.332	0	26.3	4	8.1	4	-1E+10	1	-1E+10	1	-1E+10	1	-1E+10	1	-1E+10	1	-1E+10	1
4901784	73	C	07/04/2017	10:35	-132.629	43.554	0	1414.80	0	2.6290	0	34.5830	4	27.594	0	1398.752	0	26.7	4	8.2	4	-1E+10	1	-1E+10	1	-1E+10	1	-1E+10	1	-1E+10	1	-1E+10	1
4901784	73	C	07/04/2017	10:35	-132.629	43.554	0	1420.40	0	2.5990	0	34.5860	4	27.599	0	1404.270	0	27.1	4	8.3	4	-1E+10	1	-1E+10	1	-1E+10	1	-1E+10	1	-1E+10	1	-1E+10	1
4901784	73	C	07/04/2017	10:35	-132.629	43.554	0	1425.00	0	2.5740	0	34.5870	4	27.602	0	1408.802	0	27.2	4	8.3	4	-1E+10	1	-1E+10	1	-1E+10	1	-1E+10	1	-1E+10	1	-1E+10	1
4901784	73	C	07/04/2017	10:35	-132.629	43.554	0	1429.60	0	2.5690	0	34.5880	4	27.603	0	1413.334	0	27.3	4	8.3	4	-1E+10	1	-1E+10	1	-1E+10	1	-1E+10	1	-1E+10	1	-1E+10	1
4901784	73	C	07/04/2017	10:35	-132.629	43.554	0	1435.20	0	2.5590	0	34.5880	4	27.604	0	1418.852	0	27.3	4	8.4	4	-1E+10	1	-1E+10	1	-1E+10	1	-1E+10	1	-1E+10	1	-1E+10	1
4901784	73	C	07/04/2017	10:35	-132.629	43.554	0	1439.90	0	2.5590	0	34.5880	4	27.604	0	1423.482	0	27.3	4	8.4	4	-1E+10	1	-1E+10	1	-1E+10	1	-1E+10	1	-1E+10	1	-1E+10	1
4901784	73	C	07/04/2017	10:35	-132.629	43.554	0	1444.50	0	2.5580	0	34.5890	4	27.605	0	1428.014	0	27.4	4	8.4	4	-1E+10	1	-1E+10	1	-1E+10	1	-1E+10	1	-1E+10	1	-1E+10	1
4901784	73	C	07/04/2017	10:35	-132.629	43.554	0	1450.00	0	2.5590	0	34.5880	4	27.604	0	1433.433	0	27.4	4	8.4	4	-1E+10	1	-1E+10	1	-1E+10	1	-1E+10	1	-1E+10	1	-1E+10	1
4901784	73	C	07/04/2017	10:35	-132.629	43.554	0	1455.50	0	2.5530	0	34.5880	4	27.604	0	1438.851	0	27.5	4	8.4	4	-1E+10	1	-1E+10	1	-1E+10	1	-1E+10	1	-1E+10	1	-1E+10	1
4901784	73	C	07/04/2017	10:35	-132.629	43.554	0	1460.00	0	2.5420	0	34.5890	4	27.606	0	1443.285	0	27.7	4	8.5	4	-1E+10	1	-1E+10	1	-1E+10	1	-1E+10	1	-1E+10	1	-1E+10	1
4901784	73	C	07/04/2017	10:35	-132.629	43.554	0	1464.50	0	2.5280	0	34.5900	4	27.608	0	1447.718	0	27.9	4	8.5	4	-1E+10	1	-1E+10	1	-1E+10	1	-1E+10	1	-1E+10	1	-1E+10	1
4901784	73	C	07/04/2017	10:35	-132.629	43.554	0	1470.00	0	2.5260	0	34.5900	4	27.608	0	1453.136	0	28.0	4	8.6	4	-1E+10	1	-1E+10	1	-1E+10	1	-1E+10	1	-1E+10	1	-1E+10	1
4901784	73	C	07/04/2017	10:35	-132.629	43.554	0	1475.60	0	2.5190	0	34.5910	4	27.610	0	1458.652	0	28.2	4	8.6	4	-1E+10	1	-1E+10	1	-1E+10	1	-1E+10	1	-1E+10	1	-1E+10	1
4901784	73	C	07/04/2017	10:35	-132.629	43.554	0	1480.30	0	2.5180	0	34.5920	4	27.611	0	1463.282	0	28.3	4	8.6	4	-1E+10	1	-1E+10	1	-1E+10	1	-1E+10	1	-1E+10	1	-1E+10	1
4901784	73	C	07/04/2017	10:35	-132.629	43.554	0	1485.00	0	2.5140	0	34.5920	4	27.611	0	1467.912	0	28.4	4	8.7	4	-1E+10	1	-1E+10	1	-1E+10	1	-1E+10	1	-1E+10	1	-1E+10	1
4901784	73	C	07/04/2017	10:35	-132.629	43.554	0	1490.30	0	2.5080	0	34.5920	4	27.612	0	1473.132	0	28.5	4	8.7	4	-1E+10	1	-1E+10	1	-1E+10	1	-1E+10	1	-1E+10	1	-1E+10	1
4901784	73	C	07/04/2017	10:35	-132.629	43.554	0	1494.70	0	2.5050	0	34.5920	4	27.612	0	1477.466	0	28.7	4	8.8	4	-1E+10	1	-1E+10	1	-1E+10	1	-1E+10	1	-1E+10	1	-1E+10	1
4901784	73	C	07/04/2017	10:35	-132.629	43.554	0	1500.10	0	2.4860	0	34.5950	4	27.616	0	1482.785	0	29.0	4	8.9	4	-1E+10	1	-1E+10	1	-1E+10	1	-1E+10	1	-1E+10	1	-1E+10	1
4901784	73	C	07/04/2017	10:35	-132.629	43.554	0	1505.60	0	2.4800	0	34.5950	4	27.616	0	1488.202	0	29.2	4	8.9	4	-1E+10	1	-1E+10	1	-1E+10	1	-1E+10	1	-1E+10	1	-1E+10	1
4901784	73	C	07/04/2017	10:35	-132.629	43.554	0	1510.40	0	2.4750	0	34.5950	4	27.617	0	1492.930	0	29.4	4	9.0	4	-1E+10	1	-1E+10	1	-1E+10	1	-1E+10	1	-1E+10	1	-1E+10	1
4901784	73	C	07/04/2017	10:35	-132.629	43.554	0	1515.30	0	2.4640	0	34.5970	4	27.619	0	1497.756	0	29.7	4	9.1	4	-1E+10	1	-1E+10	1	-1E+10	1	-1E+10	1	-1E+10	1	-1E+10	1
4901784	73	C	07/04/2017	10:35	-132.629	43.554	0	1520.40	0	2.4540	0	34.5980	4	27.621	0	1502.778	0	30.1	4	9.2	4	-1E+10	1	-1E+10	1	-1E+10	1	-1E+10	1	-1E+10	1	-1E+10	1
4901784	73	C	07/04/2017	10:35	-132.629	43.554	0	1525.60	0	2.4490	0	34.5980	4	27.622	0	1507.900	0	30.4	4	9.3	4	-1E+10	1	-1E+10	1	-1E+10	1	-1E+10	1	-1E+10	1	-1E+10	1
4901784	73	C	07/04/2017	10:35	-132.629	43.554	0	1530.40	0	2.4340	0	34.6000	4	27.624	0	1512.627	0	30.8	4	9.4	4	-1E+10	1	-1E+10	1	-1E+10	1	-1E+10	1	-1E+10	1	-1E+10	1
4901784	73	C	07/04/2017	10:35	-132.629	43.554	0	1534.40	0	2.4290	0	34.6020	4	27.626	0	1516.566	0	30.9	4	9.4	4	-1E+10	1	-1E+10	1	-1E+10	1	-1E+10	1	-1E+10	1	-1E+10	1
4901784	73	C	07/04/2017	10:35	-132.629	43.554	0	1540.00	0	2.4270	0	34.6020	4	27.627	0	1522.081	0	30.9	4	9.4	4	-1E+10	1	-1E+10	1	-1E+10	1	-1E+10	1	-1E+10	1	-1E+10	1
4901784	73	C	07/04/2017	10:35	-132.629	43.554	0	1545.60	0	2.4250	0	34.6010	4	27.626	0	1527.595	0	31.0	4	9.4	4	-1E+10	1	-1E+10	1	-1E+10	1	-1E+10	1	-1E+10	1	-1E+10	1
4901784	73	C	07/04/2017	10:35	-132.629	43.554	0	1550.40	0	2.4240	0	34.6020	4	27.627	0	1532.322	0	31.2	4	9.5	4	-1E+10	1	-1E+10	1	-1E+10	1	-1E+10	1	-1E+10	1	-1E+10	1
4901784	73	C	07/04/2017	10:35	-132.629	43.554	0	1555.40	0	2.4210	0	34.6020	4	27.627	0	1537.246	0	31.5	4	9.6	4	-1E+10	1	-1E+10	1	-1E+10	1	-1E+10	1	-1E+10	1	-1E+10	1
4901784	73	C	07/04/2017	10:35	-132.629	43.554	0	1560.50	0	2.4110	0	34.6030	4	27.629	0	1542.267	0	31.9	4	9.7	4	-1E+10	1	-1E+10	1	-1E+10	1	-1E+10	1	-1E+10	1	-1E+10	1
4901784	73	C	07/04/2017	10:35	-132.629	43.554	0	1565.60	0	2.4020	0	34.6040	4	27.631	0	1547.289	0	32.4	4	9.9	4	-1E+10	1	-1E+10	1	-1E+10	1	-1E+10	1	-1E+10	1	-1E+10	1
4901784	73	C	07/04/2017	10:35	-132.629	43.554	0	1570.70	0	2.3890	0	34.6060	4	27.633	0	1552.311	0	32.8	4	10.0	4	-1E+10	1	-1E+10	1	-1E+10	1	-1E+10	1	-1E+10	1	-1E+10	1
4901784	73	C	07/04/2017	10:35	-132.629	43.554	0	1575.10	0	2.3840	0	34.6060	4	27.634	0	1556.643	0	33.1	4	10.1	4	-1E+10	1	-1E+10	1	-1E+10	1	-1E+10	1	-1E+10	1	-1E+10	1
4901784	73	C	07/04/2017	10:35	-132.629	43.554	0	1579.50	0	2.3740	0	34.6080	4	27.636	0	1560.975	0	33.5	4	10.2	4	-1E+10	1	-1E+10	1	-1E+10	1	-1E+10	1	-1E+10	1	-1E+10	1
4901784	73	C	07/04/2017	10:35	-132.629	43.554	0	1584.80	0	2.3650	0	34.6090	4	27.638	0	1566.194	0	33.9	4	10.3	4	-1E+10	1	-1E+10	1	-1E+10	1	-1E+10	1	-1E+10	1	-1E+10	1
4901784	73	C	07/04/2017	10:35	-132.629	43.554	0	1590.10	0	2.3550	0	34.6100	4	27.639	0	1571.412	0	34.4	4	10.5	4	-1E+10	1	-1E+10	1	-1E+10	1	-1E+10	1	-1E+10	1	-1E+10	1
4901784	73	C	07/04/2017	10:35	-132.629	43.554	0	1595.40	0	2.3430	0	34.6110	4	27.641	0	1576.630	0	35.0	4	10.7	4	-1E+10	1	-1E+10	1	-1E+10	1	-1E+10	1	-1E+10	1	-1E+10	1
4901784	73	C	07/04/2017	10:35	-132.629	43.554	0	1600.70	0	2.3300	0	34.6130	4	27.644	0	1581.848	0	35.4	4	10.8	4	-1E+10	1	-1E+10	1	-1E+10	1	-1E+10	1	-1E+10	1	-1E+10	1
4901784	73	C	07/04/2017	10:35	-132.629	43.554	0	1605.20	0	2.3210	0	34.6150	4	27.646	0	1586.278	0	35.8	4	10.9	4	-1E+10	1	-1E+10	1	-1E+10	1	-1E+10	1	-1E+10	1	-1E+10	1
4901784	73	C	07/04/2017	10:35	-132.629	43.554	0	1609.70	0	2.3130	0	34.6150	4	27.647	0	1590.708	0	36.0	4	11.0	4	-1E+10	1	-1E+10	1	-1E+10	1	-1E+10	1	-1E+10	1	-1E+10	1
4901784	73	C	07/04/2017	10:35	-132.629	43.554	0	1615.10	0	2.3070	0	34.6160	4	27.648	0	1596.024	0	36.3	4	11.0	4	-1E+10	1	-1E+10	1	-1E+10	1	-1E+10	1	-1E+10	1	-1E+10	1
4901784	73	C	07/04/2017	10:35	-132.629	43.554	0	1620.50	0	2.3050	0	34.6160	4	27.648	0	1601.340	0	36.5	4	11.1	4	-1E+10	1	-1E+10	1	-1E+10	1	-1E+10	1	-1E+10	1	-1E+10	1
4901784	73	C	07/04/2017	10:35	-132.629	43.554	0	1624.90	0	2.2990	0	34.6170	4	27.650	0	1605.671	0	36.8	4	11.2	4	-1E+10	1	-1E+10	1	-1E+10	1	-1E+10	1	-1E+10	1	-1E+10	1
4901784	73	C	07/04/2017	10:35	-132.629	43.554	0	1629.30	0	2.2930	0	34.6170	4	27.650	0	1610.002	0	37.2	4	11.3	4	-1E+10	1	-1E+10	1	-1E+10	1	-1E+10	1	-1E+10	1	-1E+10	1
4901784	73	C	07/04/2017	10:35	-132.629	43.554	0	1634.70	0	2.2780	0	34.6200	4	27.654	0	1615.318	0	37.7	4	11.5	4	-1E+10	1	-1E+10	1	-1E+10	1	-1E+10	1	-1E+10	1	-1E+10	1
4901784	73	C	07/04/2017	10:35	-132.629	43.554	0	1640.10	0	2.2660	0	34.6210	4	27.656	0	1620.633	0	38.1	4	11.6	4	-1E+10	1	-1E+10	1	-1E+10	1	-1E+10	1	-1E+10	1	-1E+10	1
4901784	73	C	07/04/2017	10:35	-132.629	43.554	0	1645.50	0	2.2640	0	34.6210	4	27.656	0	1625.948	0	38.2	4	11.6	4	-1E+10	1	-1E+10	1	-1E+10	1	-1E+10	1	-1E+10	1	-1E+10	1
4901784	73	C	07/04/2017	10:35	-132.629	43.554	0	1650.00	0	2.2620	0	34.6220	4	27.657	0	1630.377	0	38.5	4	11.7	4	-1E+10	1	-1E+10	1	-1E+10	1	-1E+10	1	-1E+10	1	-1E+10	1
4901784	73	C	07/04/2017	10:35	-132.629	43.554	0	1654.50	0	2.2550	0	34.6220	4	27.657	0	1634.806	0	39.0	4	11.8	4	-1E+10	1	-1E+10	1	-1E+10	1	-1E+10	1	-1E+10	1	-1E+10	1
4901784	73	C	07/04/2017	10:35	-132.629	43.554	0	1660.00	0	2.2370	0	34.6250	4	27.661	0	1640.220	0	39.8	4	12.1	4	-1E+10	1	-1E+10	1	-1E+10	1	-1E+10	1	-1E+10	1	-1E+10	1
4901784	73	C	07/04/2017	10:35	-132.629	43.554	0	1665.40	0	2.2270	0	34.6260	4	27.663	0	1645.534	0	40.5	4	12.3	4	-1E+10	1	-1E+10	1	-1E+10	1	-1E+10	1	-1E+10	1	-1E+10	1
4901784	73	C	07/04/2017	10:35	-132.629	43.554	0	1669.90	0	2.2100	0	34.6280	4	27.666	0	1649.963	0	41.3	4	12.5	4	-1E+10	1	-1E+10	1	-1E+10	1	-1E+10	1	-1E+10	1	-1E+10	1
4901784	73	C	07/04/2017	10:35	-132.629	43.554	0	1674.50	0	2.1950	0	34.6300	4	27.669	0	1654.490	0	41.6	4	12.6	4	-1E+10	1	-1E+10	1	-1E+10	1	-1E+10	1	-1E+10	1	-1E+10	1
4901784	73	C	07/04/2017	10:35	-132.629	43.554	0	1680.10	0	2.1920	0	34.6310	4	27.670	0	1660.002	0	41.7	4	12.6	4	-1E+10	1	-1E+10	1	-1E+10	1	-1E+10	1	-1E+10	1	-1E+10	1
4901784	73	C	07/04/2017	10:35	-132.629	43.554	0	1684.80	0	2.1920	0	34.6310	4	27.670	0	1664.627	0	41.8	4	12.7	4	-1E+10	1	-1E+10	1	-1E+10	1	-1E+10	1	-1E+10	1	-1E+10	1
4901784	73	C	07/04/2017	10:35	-132.629	43.554	0	1689.50	0	2.1900	0	34.6310	4	27.670	0	1669.252	0	41.9	4	12.7	4	-1E+10	1	-1E+10	1	-1E+10	1	-1E+10	1	-1E+10	1	-1E+10	1
4901784	73	C	07/04/2017	10:35	-132.629	43.554	0	1695.10	0	2.1880	0	34.6320	4	27.671	0	1674.763	0	42.0	4	12.7	4	-1E+10	1	-1E+10	1	-1E+10	1	-1E+10	1	-1E+10	1	-1E+10	1
4901784	73	C	07/04/2017	10:35	-132.629	43.554	0	1699.70	0	2.1880	0	34.6320	4	27.671	0	1679.289	0	42.1	4	12.8	4	-1E+10	1	-1E+10	1	-1E+10	1	-1E+10	1	-1E+10	1	-1E+10	1
4901784	73	C	07/04/2017	10:35	-132.629	43.554	0	1704.40	0	2.1870	0	34.6320	4	27.671	0	1683.914	0	42.2	4	12.8	4	-1E+10	1	-1E+10	1	-1E+10	1	-1E+10	1	-1E+10	1	-1E+10	1
4901784	73	C	07/04/2017	10:35	-132.629	43.554	0	1709.90	0	2.1850	0	34.6320	4	27.671	0	1689.326	0	42.5	4	12.9	4	-1E+10	1	-1E+10	1	-1E+10	1	-1E+10	1	-1E+10	1	-1E+10	1
4901784	73	C	07/04/2017	10:35	-132.629	43.554	0	1715.40	0	2.1780	0	34.6320	4	27.672	0	1694.738	0	43.0	4	13.0	4	-1E+10	1	-1E+10	1	-1E+10	1	-1E+10	1	-1E+10	1	-1E+10	1
4901784	73	C	07/04/2017	10:35	-132.629	43.554	0	1719.90	0	2.1720	0	34.6330	4	27.673	0	1699.166	0	43.5	4	13.2	4	-1E+10	1	-1E+10	1	-1E+10	1	-1E+10	1	-1E+10	1	-1E+10	1
4901784	73	C	07/04/2017	10:35	-132.629	43.554	0	1724.50	0	2.1560	0	34.6360	4	27.677	0	1703.692	0	44.1	4	13.3	4	-1E+10	1	-1E+10	1	-1E+10	1	-1E+10	1	-1E+10	1	-1E+10	1
4901784	73	C	07/04/2017	10:35	-132.629	43.554	0	1730.10	0	2.1480	0	34.6360	4	27.678	0	1709.202	0	44.6	4	13.5	4	-1E+10	1	-1E+10	1	-1E+10	1	-1E+10	1	-1E+10	1	-1E+10	1
4901784	73	C	07/04/2017	10:35	-132.629	43.554	0	1735.70	0	2.1400	0	34.6380	4	27.680	0	1714.712	0	45.2	4	13.7	4	-1E+10	1	-1E+10	1	-1E+10	1	-1E+10	1	-1E+10	1	-1E+10	1
4901784	73	C	07/04/2017	10:35	-132.629	43.554	0	1740.30	0	2.1270	0	34.6400	4	27.682	0	1719.238	0	45.6	4	13.8	4	-1E+10	1	-1E+10	1	-1E+10	1	-1E+10	1	-1E+10	1	-1E+10	1
4901784	73	C	07/04/2017	10:35	-132.629	43.554	0	1745.00	0	2.1250	0	34.6400	4	27.683	0	1723.862	0	45.9	4	13.9	4	-1E+10	1	-1E+10	1	-1E+10	1	-1E+10	1	-1E+10	1	-1E+10	1
4901784	73	C	07/04/2017	10:35	-132.629	43.554	0	1749.80	0	2.1230	0	34.6400	4	27.683	0	1728.584	0	46.5	4	14.1	4	-1E+10	1	-1E+10	1	-1E+10	1	-1E+10	1	-1E+10	1	-1E+10	1
4901784	73	C	07/04/2017	10:35	-132.629	43.554	0	1754.60	0	2.1080	0	34.6420	4	27.686	0	1733.306	0	47.5	4	14.4	4	-1E+10	1	-1E+10	1	-1E+10	1	-1E+10	1	-1E+10	1	-1E+10	1
4901784	73	C	07/04/2017	10:35	-132.629	43.554	0	1760.40	0	2.0840	0	34.6460	4	27.691	0	1739.012	0	48.2	4	14.6	4	-1E+10	1	-1E+10	1	-1E+10	1	-1E+10	1	-1E+10	1	-1E+10	1
4901784	73	C	07/04/2017	10:35	-132.629	43.554	0	1765.20	0	2.0800	0	34.6470	4	27.692	0	1743.734	0	48.4	4	14.6	4	-1E+10	1	-1E+10	1	-1E+10	1	-1E+10	1	-1E+10	1	-1E+10	1
4901784	73	C	07/04/2017	10:35	-132.629	43.554	0	1770.00	0	2.0770	0	34.6470	4	27.692	0	1748.456	0	48.5	4	14.7	4	-1E+10	1	-1E+10	1	-1E+10	1	-1E+10	1	-1E+10	1	-1E+10	1
4901784	73	C	07/04/2017	10:35	-132.629	43.554	0	1774.80	0	2.0770	0	34.6480	4	27.693	0	1753.178	0	48.6	4	14.7	4	-1E+10	1	-1E+10	1	-1E+10	1	-1E+10	1	-1E+10	1	-1E+10	1
4901784	73	C	07/04/2017	10:35	-132.629	43.554	0	1779.60	0	2.0760	0	34.6480	4	27.693	0	1757.899	0	48.7	4	14.7	4	-1E+10	1	-1E+10	1	-1E+10	1	-1E+10	1	-1E+10	1	-1E+10	1
4901784	73	C	07/04/2017	10:35	-132.629	43.554	0	1784.60	0	2.0740	0	34.6480	4	27.693	0	1762.818	0	48.8	4	14.7	4	-1E+10	1	-1E+10	1	-1E+10	1	-1E+10	1	-1E+10	1	-1E+10	1
4901784	73	C	07/04/2017	10:35	-132.629	43.554	0	1790.30	0	2.0740	0	34.6480	4	27.693	0	1768.424	0	48.8	4	14.7	4	-1E+10	1	-1E+10	1	-1E+10	1	-1E+10	1	-1E+10	1	-1E+10	1
4901784	73	C	07/04/2017	10:35	-132.629	43.554	0	1795.50	0	2.0740	0	34.6480	4	27.693	0	1773.539	0	48.9	4	14.8	4	-1E+10	1	-1E+10	1	-1E+10	1	-1E+10	1	-1E+10	1	-1E+10	1
4901784	73	C	07/04/2017	10:35	-132.629	43.554	0	1800.30	0	2.0720	0	34.6480	4	27.694	0	1778.260	0	49.1	4	14.8	4	-1E+10	1	-1E+10	1	-1E+10	1	-1E+10	1	-1E+10	1	-1E+10	1
4901784	73	C	07/04/2017	10:35	-132.629	43.554	0	1805.10	0	2.0680	0	34.6490	4	27.695	0	1782.981	0	49.3	4	14.9	4	-1E+10	1	-1E+10	1	-1E+10	1	-1E+10	1	-1E+10	1	-1E+10	1
4901784	73	C	07/04/2017	10:35	-132.629	43.554	0	1809.80	0	2.0670	0	34.6490	4	27.695	0	1787.604	0	49.5	4	14.9	4	-1E+10	1	-1E+10	1	-1E+10	1	-1E+10	1	-1E+10	1	-1E+10	1
4901784	73	C	07/04/2017	10:35	-132.629	43.554	0	1814.90	0	2.0650	0	34.6490	4	27.695	0	1792.620	0	49.7	4	15.0	4	-1E+10	1	-1E+10	1	-1E+10	1	-1E+10	1	-1E+10	1	-1E+10	1
4901784	73	C	07/04/2017	10:35	-132.629	43.554	0	1820.10	0	2.0570	0	34.6500	4	27.696	0	1797.734	0	50.0	4	15.1	4	-1E+10	1	-1E+10	1	-1E+10	1	-1E+10	1	-1E+10	1	-1E+10	1
4901784	73	C	07/04/2017	10:35	-132.629	43.554	0	1825.00	0	2.0560	0	34.6510	4	27.697	0	1802.553	0	50.1	4	15.1	4	-1E+10	1	-1E+10	1	-1E+10	1	-1E+10	1	-1E+10	1	-1E+10	1
4901784	73	C	07/04/2017	10:35	-132.629	43.554	0	1830.50	0	2.0540	0	34.6510	4	27.698	0	1807.962	0	50.2	4	15.2	4	-1E+10	1	-1E+10	1	-1E+10	1	-1E+10	1	-1E+10	1	-1E+10	1
4901784	73	C	07/04/2017	10:35	-132.629	43.554	0	1835.00	0	2.0540	0	34.6510	4	27.698	0	1812.388	0	50.2	4	15.2	4	-1E+10	1	-1E+10	1	-1E+10	1	-1E+10	1	-1E+10	1	-1E+10	1
4901784	73	C	07/04/2017	10:35	-132.629	43.554	0	1839.40	0	2.0530	0	34.6510	4	27.698	0	1816.715	0	50.3	4	15.2	4	-1E+10	1	-1E+10	1	-1E+10	1	-1E+10	1	-1E+10	1	-1E+10	1
4901784	73	C	07/04/2017	10:35	-132.629	43.554	0	1844.60	0	2.0520	0	34.6510	4	27.698	0	1821.828	0	50.4	4	15.2	4	-1E+10	1	-1E+10	1	-1E+10	1	-1E+10	1	-1E+10	1	-1E+10	1
4901784	73	C	07/04/2017	10:35	-132.629	43.554	0	1849.80	0	2.0460	0	34.6520	4	27.699	0	1826.942	0	50.6	4	15.3	4	-1E+10	1	-1E+10	1	-1E+10	1	-1E+10	1	-1E+10	1	-1E+10	1
4901784	73	C	07/04/2017	10:35	-132.629	43.554	0	1854.70	0	2.0470	0	34.6520	4	27.699	0	1831.760	0	50.7	4	15.3	4	-1E+10	1	-1E+10	1	-1E+10	1	-1E+10	1	-1E+10	1	-1E+10	1
4901784	73	C	07/04/2017	10:35	-132.629	43.554	0	1859.60	0	2.0470	0	34.6520	4	27.699	0	1836.578	0	50.8	4	15.3	4	-1E+10	1	-1E+10	1	-1E+10	1	-1E+10	1	-1E+10	1	-1E+10	1
4901784	73	C	07/04/2017	10:35	-132.629	43.554	0	1864.70	0	2.0430	0	34.6530	4	27.700	0	1841.593	0	51.1	4	15.4	4	-1E+10	1	-1E+10	1	-1E+10	1	-1E+10	1	-1E+10	1	-1E+10	1
4901784	73	C	07/04/2017	10:35	-132.629	43.554	0	1869.90	0	2.0400	0	34.6530	4	27.701	0	1846.706	0	51.5	4	15.6	4	-1E+10	1	-1E+10	1	-1E+10	1	-1E+10	1	-1E+10	1	-1E+10	1
4901784	73	C	07/04/2017	10:35	-132.629	43.554	0	1875.00	0	2.0290	0	34.6550	4	27.703	0	1851.721	0	52.2	4	15.8	4	-1E+10	1	-1E+10	1	-1E+10	1	-1E+10	1	-1E+10	1	-1E+10	1
4901784	73	C	07/04/2017	10:35	-132.629	43.554	0	1880.10	0	2.0210	0	34.6560	4	27.704	0	1856.735	0	53.0	4	16.0	4	-1E+10	1	-1E+10	1	-1E+10	1	-1E+10	1	-1E+10	1	-1E+10	1
4901784	73	C	07/04/2017	10:35	-132.629	43.554	0	1885.10	0	2.0120	0	34.6570	4	27.706	0	1861.651	0	53.7	4	16.2	4	-1E+10	1	-1E+10	1	-1E+10	1	-1E+10	1	-1E+10	1	-1E+10	1
4901784	73	C	07/04/2017	10:35	-132.629	43.554	0	1889.90	0	1.9990	0	34.6590	4	27.709	0	1866.370	0	54.6	4	16.5	4	-1E+10	1	-1E+10	1	-1E+10	1	-1E+10	1	-1E+10	1	-1E+10	1
4901784	73	C	07/04/2017	10:35	-132.629	43.554	0	1894.80	0	1.9880	0	34.6600	4	27.710	0	1871.188	0	55.5	4	16.7	4	-1E+10	1	-1E+10	1	-1E+10	1	-1E+10	1	-1E+10	1	-1E+10	1
4901784	73	C	07/04/2017	10:35	-132.629	43.554	0	1899.80	0	1.9730	0	34.6630	4	27.714	0	1876.103	0	56.5	4	17.0	4	-1E+10	1	-1E+10	1	-1E+10	1	-1E+10	1	-1E+10	1	-1E+10	1
4901784	73	C	07/04/2017	10:35	-132.629	43.554	0	1904.90	0	1.9540	0	34.6660	4	27.718	0	1881.117	0	57.8	4	17.4	4	-1E+10	1	-1E+10	1	-1E+10	1	-1E+10	1	-1E+10	1	-1E+10	1
4901784	73	C	07/04/2017	10:35	-132.629	43.554	0	1910.00	0	1.9400	0	34.6680	4	27.720	0	1886.131	0	58.5	4	17.6	4	-1E+10	1	-1E+10	1	-1E+10	1	-1E+10	1	-1E+10	1	-1E+10	1
4901784	73	C	07/04/2017	10:35	-132.629	43.554	0	1915.10	0	1.9350	0	34.6690	4	27.722	0	1891.145	0	58.6	4	17.7	4	-1E+10	1	-1E+10	1	-1E+10	1	-1E+10	1	-1E+10	1	-1E+10	1
4901784	73	C	07/04/2017	10:35	-132.629	43.554	0	1920.30	0	1.9340	0	34.6690	4	27.722	0	1896.256	0	58.9	4	17.8	4	-1E+10	1	-1E+10	1	-1E+10	1	-1E+10	1	-1E+10	1	-1E+10	1
4901784	73	C	07/04/2017	10:35	-132.629	43.554	0	1924.80	0	1.9290	0	34.6700	4	27.723	0	1900.680	0	59.3	4	17.9	4	-1E+10	1	-1E+10	1	-1E+10	1	-1E+10	1	-1E+10	1	-1E+10	1
4901784	73	C	07/04/2017	10:35	-132.629	43.554	0	1930.00	0	1.9230	0	34.6710	4	27.724	0	1905.791	0	59.8	4	18.0	4	-1E+10	1	-1E+10	1	-1E+10	1	-1E+10	1	-1E+10	1	-1E+10	1
4901784	73	C	07/04/2017	10:35	-132.629	43.554	0	1935.40	0	1.9190	0	34.6720	4	27.725	0	1911.100	0	60.2	4	18.1	4	-1E+10	1	-1E+10	1	-1E+10	1	-1E+10	1	-1E+10	1	-1E+10	1
4901784	73	C	07/04/2017	10:35	-132.629	43.554	0	1940.00	0	1.9140	0	34.6720	4	27.726	0	1915.621	0	60.5	4	18.2	4	-1E+10	1	-1E+10	1	-1E+10	1	-1E+10	1	-1E+10	1	-1E+10	1
4901784	73	C	07/04/2017	10:35	-132.629	43.554	0	1944.80	0	1.9120	0	34.6730	4	27.727	0	1920.339	0	60.7	4	18.3	4	-1E+10	1	-1E+10	1	-1E+10	1	-1E+10	1	-1E+10	1	-1E+10	1
4901784	73	C	07/04/2017	10:35	-132.629	43.554	0	1949.60	0	1.9110	0	34.6730	4	27.727	0	1925.057	0	60.8	4	18.3	4	-1E+10	1	-1E+10	1	-1E+10	1	-1E+10	1	-1E+10	1	-1E+10	1
4901784	73	C	07/04/2017	10:35	-132.629	43.554	0	1954.60	0	1.9090	0	34.6730	4	27.727	0	1929.971	0	61.0	4	18.4	4	-1E+10	1	-1E+10	1	-1E+10	1	-1E+10	1	-1E+10	1	-1E+10	1
4901784	73	C	07/04/2017	10:35	-132.629	43.554	0	1959.50	0	1.9080	0	34.6730	4	27.727	0	1934.788	0	61.2	4	18.4	4	-1E+10	1	-1E+10	1	-1E+10	1	-1E+10	1	-1E+10	1	-1E+10	1
4901784	73	C	07/04/2017	10:35	-132.629	43.554	0	1964.60	0	1.9030	0	34.6740	4	27.728	0	1939.800	0	61.6	4	18.5	4	-1E+10	1	-1E+10	1	-1E+10	1	-1E+10	1	-1E+10	1	-1E+10	1
4901784	73	C	07/04/2017	10:35	-132.629	43.554	0	1969.70	0	1.9000	0	34.6750	4	27.729	0	1944.812	0	61.7	4	18.6	4	-1E+10	1	-1E+10	1	-1E+10	1	-1E+10	1	-1E+10	1	-1E+10	1
4901784	73	C	07/04/2017	10:35	-132.629	43.554	0	1974.60	0	1.9000	0	34.6750	4	27.729	0	1949.628	0	61.8	4	18.6	4	-1E+10	1	-1E+10	1	-1E+10	1	-1E+10	1	-1E+10	1	-1E+10	1
4901784	73	C	07/04/2017	10:35	-132.629	43.554	0	1980.50	0	1.8980	0	34.6750	4	27.730	0	1955.426	0	62.0	4	18.7	4	-1E+10	1	-1E+10	1	-1E+10	1	-1E+10	1	-1E+10	1	-1E+10	1
4901784	73	C	07/04/2017	10:35	-132.629	43.554	0	1985.20	0	1.8960	0	34.6760	4	27.731	0	1960.045	0	62.2	4	18.7	4	-1E+10	1	-1E+10	1	-1E+10	1	-1E+10	1	-1E+10	1	-1E+10	1
4901784	73	C	07/04/2017	10:35	-132.629	43.554	0	1990.10	0	1.8930	0	34.6760	4	27.731	0	1964.861	0	62.3	4	18.8	4	-1E+10	1	-1E+10	1	-1E+10	1	-1E+10	1	-1E+10	1	-1E+10	1
4901784	73	C	07/04/2017	10:35	-132.629	43.554	0	1995.00	0	1.8930	0	34.6760	4	27.731	0	1969.676	0	62.2	8	18.7	8	-1E+10	1	-1E+10	1	-1E+10	1	-1E+10	1	-1E+10	1	-1E+10	1
4901784	73	C	07/04/2017	10:35	-132.629	43.554	0																										
4901784	74	C	07/14/2017	10:46	-132.943	43.650	0	3.10	0	14.9980	0	32.8480	4	24.315	0	3.075	0	247.5	4	98.4	4	-1E+10	1	-1E+10	1	-1E+10	1	-1E+10	1	-1E+10	1	-1E+10	1
4901784	74	C	07/14/2017	10:46	-132.943	43.650	0	4.70	0	14.9940	0	32.8480	4	24.316	0	4.662	0	247.3	4	98.3	4	-1E+10	1	-1E+10	1	-1E+10	1	-1E+10	1	-1E+10	1	-1E+10	1
4901784	74	C	07/14/2017	10:46	-132.943	43.650	0	7.00	0	14.9930	0	32.8470	4	24.315	0	6.944	0	247.4	4	98.3	4	-1E+10	1	-1E+10	1	-1E+10	1	-1E+10	1	-1E+10	1	-1E+10	1
4901784	74	C	07/14/2017	10:46	-132.943	43.650	0	8.70	0	14.9930	0	32.8460	4	24.314	0	8.630	0	247.3	4	98.3	4	-1E+10	1	-1E+10	1	-1E+10	1	-1E+10	1	-1E+10	1	-1E+10	1
4901784	74	C	07/14/2017	10:46	-132.943	43.650	0	10.20	0	14.9950	0	32.8460	4	24.314	0	10.118	0	247.4	4	98.4	4	-1E+10	1	-1E+10	1	-1E+10	1	-1E+10	1	-1E+10	1	-1E+10	1
4901784	74	C	07/14/2017	10:46	-132.943	43.650	0	11.60	0	14.9930	0	32.8450	4	24.314	0	11.507	0	247.5	4	98.4	4	-1E+10	1	-1E+10	1	-1E+10	1	-1E+10	1	-1E+10	1	-1E+10	1
4901784	74	C	07/14/2017	10:46	-132.943	43.650	0	13.10	0	14.9880	0	32.8430	4	24.313	0	12.995	0	248.1	4	98.6	4	-1E+10	1	-1E+10	1	-1E+10	1	-1E+10	1	-1E+10	1	-1E+10	1
4901784	74	C	07/14/2017	10:46	-132.943	43.650	0	14.60	0	14.9100	0	32.8440	4	24.331	0	14.483	0	248.7	4	98.7	4	-1E+10	1	-1E+10	1	-1E+10	1	-1E+10	1	-1E+10	1	-1E+10	1
4901784	74	C	07/14/2017	10:46	-132.943	43.650	0	16.00	0	14.8920	0	32.8430	4	24.334	0	15.871	0	249.3	4	98.9	4	-1E+10	1	-1E+10	1	-1E+10	1	-1E+10	1	-1E+10	1	-1E+10	1
4901784	74	C	07/14/2017	10:46	-132.943	43.650	0	17.50	0	14.8680	0	32.8380	4	24.335	0	17.359	0	250.1	4	99.2	4	-1E+10	1	-1E+10	1	-1E+10	1	-1E+10	1	-1E+10	1	-1E+10	1
4901784	74	C	07/14/2017	10:46	-132.943	43.650	0	18.90	0	14.8220	0	32.8300	4	24.339	0	18.748	0	251.6	4	99.7	4	-1E+10	1	-1E+10	1	-1E+10	1	-1E+10	1	-1E+10	1	-1E+10	1
4901784	74	C	07/14/2017	10:46	-132.943	43.650	0	20.40	0	14.6990	0	32.8180	4	24.356	0	20.236	0	253.5	4	100.2	4	-1E+10	1	-1E+10	1	-1E+10	1	-1E+10	1	-1E+10	1	-1E+10	1
4901784	74	C	07/14/2017	10:46	-132.943	43.650	0	21.90	0	14.3700	0	32.8100	4	24.420	0	21.724	0	256.4	4	100.7	4	-1E+10	1	-1E+10	1	-1E+10	1	-1E+10	1	-1E+10	1	-1E+10	1
4901784	74	C	07/14/2017	10:46	-132.943	43.650	0	23.50	0	13.9500	0	32.7980	4	24.498	0	23.311	0	260.6	4	101.4	4	-1E+10	1	-1E+10	1	-1E+10	1	-1E+10	1	-1E+10	1	-1E+10	1
4901784	74	C	07/14/2017	10:46	-132.943	43.650	0	25.70	0	13.4750	0	32.8220	4	24.613	0	25.493	0	264.9	4	102.1	4	-1E+10	1	-1E+10	1	-1E+10	1	-1E+10	1	-1E+10	1	-1E+10	1
4901784	74	C	07/14/2017	10:46	-132.943	43.650	0	26.90	0	13.4000	0	32.8240	4	24.629	0	26.683	0	266.4	4	102.6	4	-1E+10	1	-1E+10	1	-1E+10	1	-1E+10	1	-1E+10	1	-1E+10	1
4901784	74	C	07/14/2017	10:46	-132.943	43.650	0	28.20	0	13.2820	0	32.8230	4	24.652	0	27.973	0	268.2	4	103.0	4	-1E+10	1	-1E+10	1	-1E+10	1	-1E+10	1	-1E+10	1	-1E+10	1
4901784	74	C	07/14/2017	10:46	-132.943	43.650	0	29.40	0	13.0700	0	32.8290	4	24.699	0	29.163	0	270.7	4	103.5	4	-1E+10	1	-1E+10	1	-1E+10	1	-1E+10	1	-1E+10	1	-1E+10	1
4901784	74	C	07/14/2017	10:46	-132.943	43.650	0	30.70	0	12.9780	0	32.8460	4	24.730	0	30.452	0	272.0	4	103.9	4	-1E+10	1	-1E+10	1	-1E+10	1	-1E+10	1	-1E+10	1	-1E+10	1
4901784	74	C	07/14/2017	10:46	-132.943	43.650	0	32.00	0	12.8510	0	32.8180	4	24.734	0	31.742	0	274.2	4	104.4	4	-1E+10	1	-1E+10	1	-1E+10	1	-1E+10	1	-1E+10	1	-1E+10	1
4901784	74	C	07/14/2017	10:46	-132.943	43.650	0	33.40	0	12.3670	0	32.8370	4	24.842	0	33.130	0	277.8	4	104.7	4	-1E+10	1	-1E+10	1	-1E+10	1	-1E+10	1	-1E+10	1	-1E+10	1
4901784	74	C	07/14/2017	10:46	-132.943	43.650	0	34.80	0	11.8210	0	32.8540	4	24.957	0	34.519	0	282.1	4	105.2	4	-1E+10	1	-1E+10	1	-1E+10	1	-1E+10	1	-1E+10	1	-1E+10	1
4901784	74	C	07/14/2017	10:46	-132.943	43.650	0	36.40	0	11.3180	0	32.8670	4	25.059	0	36.106	0	284.6	4	105.0	4	-1E+10	1	-1E+10	1	-1E+10	1	-1E+10	1	-1E+10	1	-1E+10	1
4901784	74	C	07/14/2017	10:46	-132.943	43.650	0	38.00	0	10.9320	0	32.8960	4	25.151	0	37.693	0	287.5	4	105.2	4	-1E+10	1	-1E+10	1	-1E+10	1	-1E+10	1	-1E+10	1	-1E+10	1
4901784	74	C	07/14/2017	10:46	-132.943	43.650	0	39.70	0	10.8120	0	32.8920	4	25.169	0	39.379	0	287.5	4	104.9	4	-1E+10	1	-1E+10	1	-1E+10	1	-1E+10	1	-1E+10	1	-1E+10	1
4901784	74	C	07/14/2017	10:46	-132.943	43.650	0	41.30	0	10.6620	0	32.8970	4	25.199	0	40.966	0	286.7	4	104.3	4	-1E+10	1	-1E+10	1	-1E+10	1	-1E+10	1	-1E+10	1	-1E+10	1
4901784	74	C	07/14/2017	10:46	-132.943	43.650	0	42.90	0	10.3380	0	32.9050	4	25.261	0	42.553	0	285.5	4	103.2	4	-1E+10	1	-1E+10	1	-1E+10	1	-1E+10	1	-1E+10	1	-1E+10	1
4901784	74	C	07/14/2017	10:46	-132.943	43.650	0	44.50	0	10.0950	0	32.9170	4	25.311	0	44.140	0	286.3	4	102.9	4	-1E+10	1	-1E+10	1	-1E+10	1	-1E+10	1	-1E+10	1	-1E+10	1
4901784	74	C	07/14/2017	10:46	-132.943	43.650	0	46.20	0	10.0120	0	32.9210	4	25.328	0	45.826	0	285.5	4	102.4	4	-1E+10	1	-1E+10	1	-1E+10	1	-1E+10	1	-1E+10	1	-1E+10	1
4901784	74	C	07/14/2017	10:46	-132.943	43.650	0	47.90	0	9.8760	0	32.9250	4	25.354	0	47.512	0	284.7	4	101.9	4	-1E+10	1	-1E+10	1	-1E+10	1	-1E+10	1	-1E+10	1	-1E+10	1
4901784	74	C	07/14/2017	10:46	-132.943	43.650	0	49.60	0	9.6710	0	32.9170	4	25.381	0	49.198	0	284.5	4	101.3	4	-1E+10	1	-1E+10	1	-1E+10	1	-1E+10	1	-1E+10	1	-1E+10	1
4901784	74	C	07/14/2017	10:46	-132.943	43.650	0	51.30	0	9.5350	0	32.9160	4	25.403	0	50.884	0	283.9	4	100.8	4	-1E+10	1	-1E+10	1	-1E+10	1	-1E+10	1	-1E+10	1	-1E+10	1
4901784	74	C	07/14/2017	10:46	-132.943	43.650	0	53.00	0	9.4380	0	32.9240	4	25.425	0	52.570	0	283.2	4	100.4	4	-1E+10	1	-1E+10	1	-1E+10	1	-1E+10	1	-1E+10	1	-1E+10	1
4901784	74	C	07/14/2017	10:46	-132.943	43.650	0	54.70	0	9.3570	0	32.9250	4	25.438	0	54.256	0	282.9	4	100.1	4	-1E+10	1	-1E+10	1	-1E+10	1	-1E+10	1	-1E+10	1	-1E+10	1
4901784	74	C	07/14/2017	10:46	-132.943	43.650	0	56.50	0	9.3000	0	32.9280	4	25.450	0	56.041	0	282.1	4	99.7	4	-1E+10	1	-1E+10	1	-1E+10	1	-1E+10	1	-1E+10	1	-1E+10	1
4901784	74	C	07/14/2017	10:46	-132.943	43.650	0	58.20	0	9.2500	0	32.9320	4	25.461	0	57.727	0	281.3	4	99.3	4	-1E+10	1	-1E+10	1	-1E+10	1	-1E+10	1	-1E+10	1	-1E+10	1
4901784	74	C	07/14/2017	10:46	-132.943	43.650	0	59.90	0	9.1760	0	32.9380	4	25.477	0	59.413	0	280.8	4	99.0	4	-1E+10	1	-1E+10	1	-1E+10	1	-1E+10	1	-1E+10	1	-1E+10	1
4901784	74	C	07/14/2017	10:46	-132.943	43.650	0	61.70	0	9.1130	0	32.9400	4	25.489	0	61.198	0	280.5	4	98.7	4	-1E+10	1	-1E+10	1	-1E+10	1	-1E+10	1	-1E+10	1	-1E+10	1
4901784	74	C	07/14/2017	10:46	-132.943	43.650	0	63.30	0	9.0890	0	32.9440	4	25.496	0	62.784	0	280.1	4	98.5	4	-1E+10	1	-1E+10	1	-1E+10	1	-1E+10	1	-1E+10	1	-1E+10	1
4901784	74	C	07/14/2017	10:46	-132.943	43.650	0	65.00	0	9.0500	0	32.9480	4	25.505	0	64.470	0	279.5	4	98.3	4	-1E+10	1	-1E+10	1	-1E+10	1	-1E+10	1	-1E+10	1	-1E+10	1
4901784	74	C	07/14/2017	10:46	-132.943	43.650	0	66.80	0	9.0210	0	32.9520	4	25.513	0	66.255	0	279.0	4	98.0	4	-1E+10	1	-1E+10	1	-1E+10	1	-1E+10	1	-1E+10	1	-1E+10	1
4901784	74	C	07/14/2017	10:46	-132.943	43.650	0	68.50	0	9.0170	0	32.9500	4	25.512	0	67.941	0	278.3	4	97.7	4	-1E+10	1	-1E+10	1	-1E+10	1	-1E+10	1	-1E+10	1	-1E+10	1
4901784	74	C	07/14/2017	10:46	-132.943	43.650	0	70.20	0	9.0010	0	32.9540	4	25.518	0	69.627	0	277.7	4	97.5	4	-1E+10	1	-1E+10	1	-1E+10	1	-1E+10	1	-1E+10	1	-1E+10	1
4901784	74	C	07/14/2017	10:46	-132.943	43.650	0	72.00	0	8.9690	0	32.9560	4	25.524	0	71.412	0	276.7	4	97.1	4	-1E+10	1	-1E+10	1	-1E+10	1	-1E+10	1	-1E+10	1	-1E+10	1
4901784	74	C	07/14/2017	10:46	-132.943	43.650	0	73.60	0	8.9450	0	32.9560	4	25.528	0	72.999	0	275.6	4	96.7	4	-1E+10	1	-1E+10	1	-1E+10	1	-1E+10	1	-1E+10	1	-1E+10	1
4901784	74	C	07/14/2017	10:46	-132.943	43.650	0	75.30	0	8.8740	0	32.9620	4	25.544	0	74.684	0	274.2	4	96.0	4	-1E+10	1	-1E+10	1	-1E+10	1	-1E+10	1	-1E+10	1	-1E+10	1
4901784	74	C	07/14/2017	10:46	-132.943	43.650	0	77.10	0	8.8020	0	32.9640	4	25.556	0	76.469	0	273.5	4	95.6	4	-1E+10	1	-1E+10	1	-1E+10	1	-1E+10	1	-1E+10	1	-1E+10	1
4901784	74	C	07/14/2017	10:46	-132.943	43.650	0	78.80	0	8.7460	0	32.9680	4	25.568	0	78.155	0	273.2	4	95.4	4	-1E+10	1	-1E+10	1	-1E+10	1	-1E+10	1	-1E+10	1	-1E+10	1
4901784	74	C	07/14/2017	10:46	-132.943	43.650	0	80.60	0	8.6910	0	32.9730	4	25.581	0	79.940	0	272.6	4	95.1	4	-1E+10	1	-1E+10	1	-1E+10	1	-1E+10	1	-1E+10	1	-1E+10	1
4901784	74	C	07/14/2017	10:46	-132.943	43.650	0	82.30	0	8.6600	0	32.9750	4	25.587	0	81.626	0	271.9	4	94.8	4	-1E+10	1	-1E+10	1	-1E+10	1	-1E+10	1	-1E+10	1	-1E+10	1
4901784	74	C	07/14/2017	10:46	-132.943	43.650	0	84.00	0	8.6430	0	32.9760	4	25.590	0	83.312	0	271.3	4	94.5	4	-1E+10	1	-1E+10	1	-1E+10	1	-1E+10	1	-1E+10	1	-1E+10	1
4901784	74	C	07/14/2017	10:46	-132.943	43.650	0	85.80	0	8.6200	0	32.9780	4	25.595	0	85.096	0	270.5	4	94.2	4	-1E+10	1	-1E+10	1	-1E+10	1	-1E+10	1	-1E+10	1	-1E+10	1
4901784	74	C	07/14/2017	10:46	-132.943	43.650	0	87.60	0	8.5700	0	32.9840	4	25.608	0	86.881	0	270.2	4	94.0	4	-1E+10	1	-1E+10	1	-1E+10	1	-1E+10	1	-1E+10	1	-1E+10	1
4901784	74	C	07/14/2017	10:46	-132.943	43.650	0	89.30	0	8.5620	0	32.9870	4	25.611	0	88.567	0	269.8	4	93.8	4	-1E+10	1	-1E+10	1	-1E+10	1	-1E+10	1	-1E+10	1	-1E+10	1
4901784	74	C	07/14/2017	10:46	-132.943	43.650	0	91.10	0	8.5600	0	32.9870	4	25.612	0	90.352	0	269.3	4	93.7	4	-1E+10	1	-1E+10	1	-1E+10	1	-1E+10	1	-1E+10	1	-1E+10	1
4901784	74	C	07/14/2017	10:46	-132.943	43.650	0	92.80	0	8.5550	0	32.9870	4	25.612	0	92.037	0	268.6	4	93.4	4	-1E+10	1	-1E+10	1	-1E+10	1	-1E+10	1	-1E+10	1	-1E+10	1
4901784	74	C	07/14/2017	10:46	-132.943	43.650	0	94.50	0	8.5440	0	32.9890	4	25.616	0	93.723	0	267.7	4	93.1	4	-1E+10	1	-1E+10	1	-1E+10	1	-1E+10	1	-1E+10	1	-1E+10	1
4901784	74	C	07/14/2017	10:46	-132.943	43.650	0	96.20	0	8.5350	0	32.9920	4	25.619	0	95.409	0	266.6	4	92.7	4	-1E+10	1	-1E+10	1	-1E+10	1	-1E+10	1	-1E+10	1	-1E+10	1
4901784	74	C	07/14/2017	10:46	-132.943	43.650	0	98.00	0	8.5130	0	32.9970	4	25.627	0	97.194	0	265.5	4	92.2	4	-1E+10	1	-1E+10	1	-1E+10	1	-1E+10	1	-1E+10	1	-1E+10	1
4901784	74	C	07/14/2017	10:46	-132.943	43.650	0	99.70	0	8.5030	0	33.0030	4	25.633	0	98.879	0	264.2	4	91.8	4	-1E+10	1	-1E+10	1	-1E+10	1	-1E+10	1	-1E+10	1	-1E+10	1
4901784	74	C	07/14/2017	10:46	-132.943	43.650	0	102.30	0	8.4960	0	33.0090	4	25.639	0	101.457	0	261.8	4	90.9	4	-1E+10	1	-1E+10	1	-1E+10	1	-1E+10	1	-1E+10	1	-1E+10	1
4901784	74	C	07/14/2017	10:46	-132.943	43.650	0	104.90	0	8.4920	0	33.0160	4	25.645	0	104.035	0	258.7	4	89.8	4	-1E+10	1	-1E+10	1	-1E+10	1	-1E+10	1	-1E+10	1	-1E+10	1
4901784	74	C	07/14/2017	10:46	-132.943	43.650	0	107.40	0	8.4810	0	33.0370	4	25.663	0	106.514	0	254.5	4	88.4	4	-1E+10	1	-1E+10	1	-1E+10	1	-1E+10	1	-1E+10	1	-1E+10	1
4901784	74	C	07/14/2017	10:46	-132.943	43.650	0	110.10	0	8.4760	0	33.0700	4	25.690	0	109.191	0	249.7	4	86.7	4	-1E+10	1	-1E+10	1	-1E+10	1	-1E+10	1	-1E+10	1	-1E+10	1
4901784	74	C	07/14/2017	10:46	-132.943	43.650	0	112.70	0	8.4760	0	33.1080	4	25.719	0	111.769	0	245.1	4	85.2	4	-1E+10	1	-1E+10	1	-1E+10	1	-1E+10	1	-1E+10	1	-1E+10	1
4901784	74	C	07/14/2017	10:46	-132.943	43.650	0	115.70	0	8.5290	0	33.1650	4	25.756	0	114.743	0	237.9	4	82.8	4	-1E+10	1	-1E+10	1	-1E+10	1	-1E+10	1	-1E+10	1	-1E+10	1
4901784	74	C	07/14/2017	10:46	-132.943	43.650	0	117.40	0	8.5790	0	33.2130	4	25.786	0	116.428	0	233.1	4	81.2	4	-1E+10	1	-1E+10	1	-1E+10	1	-1E+10	1	-1E+10	1	-1E+10	1
4901784	74	C	07/14/2017	10:46	-132.943	43.650	0	119.60	0	8.5960	0	33.2550	4	25.817	0	118.610	0	227.6	4	79.4	4	-1E+10	1	-1E+10	1	-1E+10	1	-1E+10	1	-1E+10	1	-1E+10	1
4901784	74	C	07/14/2017	10:46	-132.943	43.650	0	122.60	0	8.5880	0	33.3420	4	25.886	0	121.584	0	220.3	4	76.9	4	-1E+10	1	-1E+10	1	-1E+10	1	-1E+10	1	-1E+10	1	-1E+10	1
4901784	74	C	07/14/2017	10:46	-132.943	43.650	0	124.90	0	8.5920	0	33.4030	4	25.933	0	123.864	0	216.4	4	75.5	4	-1E+10	1	-1E+10	1	-1E+10	1	-1E+10	1	-1E+10	1	-1E+10	1
4901784	74	C	07/14/2017	10:46	-132.943	43.650	0	127.20	0	8.5970	0	33.4210	4	25.947	0	126.144	0	212.3	4	74.1	4	-1E+10	1	-1E+10	1	-1E+10	1	-1E+10	1	-1E+10	1	-1E+10	1
4901784	74	C	07/14/2017	10:46	-132.943	43.650	0	130.20	0	8.6140	0	33.5080	4	26.012	0	129.118	0	206.3	4	72.1	4	-1E+10	1	-1E+10	1	-1E+10	1	-1E+10	1	-1E+10	1	-1E+10	1
4901784	74	C	07/14/2017	10:46	-132.943	43.650	0	132.50	0	8.6180	0	33.5580	4	26.051	0	131.399	0	202.3	4	70.8	4	-1E+10	1	-1E+10	1	-1E+10	1	-1E+10	1	-1E+10	1	-1E+10	1
4901784	74	C	07/14/2017	10:46	-132.943	43.650	0	135.20	0	8.6550	0	33.5990	4	26.077	0	134.075	0	198.4	4	69.5	4	-1E+10	1	-1E+10	1	-1E+10	1	-1E+10	1	-1E+10	1	-1E+10	1
4901784	74	C	07/14/2017	10:46	-132.943	43.650	0	137.70	0	8.6550	0	33.6690	4	26.132	0	136.554	0	194.2	4	68.0	4	-1E+10	1	-1E+10	1	-1E+10	1	-1E+10	1	-1E+10	1	-1E+10	1
4901784	74	C	07/14/2017	10:46	-132.943	43.650	0	140.40	0	8.6560	0	33.7290	4	26.179	0	139.230	0	191.0	4	66.9	4	-1E+10	1	-1E+10	1	-1E+10	1	-1E+10	1	-1E+10	1	-1E+10	1
4901784	74	C	07/14/2017	10:46	-132.943	43.650	0	143.00	0	8.6610	0	33.7660	4	26.207	0	141.808	0	188.3	4	66.0	4	-1E+10	1	-1E+10	1	-1E+10	1	-1E+10	1	-1E+10	1	-1E+10	1
4901784	74	C	07/14/2017	10:46	-132.943	43.650	0	145.20	0	8.6390	0	33.8300	4	26.261	0	143.989	0	186.4	4	65.3	4	-1E+10	1	-1E+10	1	-1E+10	1	-1E+10	1	-1E+10	1	-1E+10	1
4901784	74	C	07/14/2017	10:46	-132.943	43.650	0	147.70	0	8.6100	0	33.8480	4	26.280	0	146.467	0	184.9	4	64.8	4	-1E+10	1	-1E+10	1	-1E+10	1	-1E+10	1	-1E+10	1	-1E+10	1
4901784	74	C	07/14/2017	10:46	-132.943	43.650	0	150.00	0	8.5990	0	33.8740	4	26.302	0	148.747	0	183.6	4	64.3	4	-1E+10	1	-1E+10	1	-1E+10	1	-1E+10	1	-1E+10	1	-1E+10	1
4901784	74	C	07/14/2017	10:46	-132.943	43.650	0	152.40	0	8.5610	0	33.8950	4	26.324	0	151.126	0	182.6	4	63.9	4	-1E+10	1	-1E+10	1	-1E+10	1	-1E+10	1	-1E+10	1	-1E+10	1
4901784	74	C	07/14/2017	10:46	-132.943	43.650	0	154.80	0	8.5220	0	33.9170	4	26.347	0	153.505	0	181.6	4	63.5	4	-1E+10	1	-1E+10	1	-1E+10	1	-1E+10	1	-1E+10	1	-1E+10	1
4901784	74	C	07/14/2017	10:46	-132.943	43.650	0	157.10	0	8.4980	0	33.9300	4	26.361	0	155.785	0	181.1	4	63.3	4	-1E+10	1	-1E+10	1	-1E+10	1	-1E+10	1	-1E+10	1	-1E+10	1
4901784	74	C	07/14/2017	10:46	-132.943	43.650	0	160.30	0	8.4620	0	33.9470	4	26.380	0	158.957	0	180.3	4	63.0	4	-1E+10	1	-1E+10	1	-1E+10	1	-1E+10	1	-1E+10	1	-1E+10	1
4901784	74	C	07/14/2017	10:46	-132.943	43.650	0	162.70	0	8.4470	0	33.9500	4	26.385	0	161.336	0	179.8	4	62.8	4	-1E+10	1	-1E+10	1	-1E+10	1	-1E+10	1	-1E+10	1	-1E+10	1
4901784	74	C	07/14/2017	10:46	-132.943	43.650	0	165.20	0	8.4150	0	33.9620	4	26.399	0	163.814	0	179.0	4	62.5	4	-1E+10	1	-1E+10	1	-1E+10	1	-1E+10	1	-1E+10	1	-1E+10	1
4901784	74	C	07/14/2017	10:46	-132.943	43.650	0	167.60	0	8.4030	0	33.9680	4	26.406	0	166.193	0	178.2	4	62.2	4	-1E+10	1	-1E+10	1	-1E+10	1	-1E+10	1	-1E+10	1	-1E+10	1
4901784	74	C	07/14/2017	10:46	-132.943	43.650	0	170.00	0	8.3790	0	33.9730	4	26.413	0	168.572	0	177.2	4	61.8	4	-1E+10	1	-1E+10	1	-1E+10	1	-1E+10	1	-1E+10	1	-1E+10	1
4901784	74	C	07/14/2017	10:46	-132.943	43.650	0	172.50	0	8.3440	0	33.9800	4	26.424	0	171.050	0	176.1	4	61.4	4	-1E+10	1	-1E+10	1	-1E+10	1	-1E+10	1	-1E+10	1	-1E+10	1
4901784	74	C	07/14/2017	10:46	-132.943	43.650	0	175.00	0	8.2970	0	33.9820	4	26.433	0	173.528	0	174.6	4	60.8	4	-1E+10	1	-1E+10	1	-1E+10	1	-1E+10	1	-1E+10	1	-1E+10	1
4901784	74	C	07/14/2017	10:46	-132.943	43.650	0	177.50	0	8.2260	0	33.9850	4	26.446	0	176.005	0	172.9	4	60.1	4	-1E+10	1	-1E+10	1	-1E+10	1	-1E+10	1	-1E+10	1	-1E+10	1
4901784	74	C	07/14/2017	10:46	-132.943	43.650	0	180.10	0	8.1360	0	33.9840	4	26.459	0	178.582	0	171.2	4	59.4	4	-1E+10	1	-1E+10	1	-1E+10	1	-1E+10	1	-1E+10	1	-1E+10	1
4901784	74	C	07/14/2017	10:46	-132.943	43.650	0	182.60	0	8.0470	0	33.9860	4	26.473	0	181.060	0	169.5	4	58.7	4	-1E+10	1	-1E+10	1	-1E+10	1	-1E+10	1	-1E+10	1	-1E+10	1
4901784	74	C	07/14/2017	10:46	-132.943	43.650	0	185.30	0	7.9730	0	33.9910	4	26.488	0	183.736	0	168.4	4	58.2	4	-1E+10	1	-1E+10	1	-1E+10	1	-1E+10	1	-1E+10	1	-1E+10	1
4901784	74	C	07/14/2017	10:46	-132.943	43.650	0	188.00	0	7.9310	0	33.9920	4	26.495	0	186.412	0	167.3	4	57.8	4	-1E+10	1	-1E+10	1	-1E+10	1	-1E+10	1	-1E+10	1	-1E+10	1
4901784	74	C	07/14/2017	10:46	-132.943	43.650	0	189.70	0	7.9170	0	33.9910	4	26.497	0	188.097	0	166.6	4	57.5	4	-1E+10	1	-1E+10	1	-1E+10	1	-1E+10	1	-1E+10	1	-1E+10	1
4901784	74	C	07/14/2017	10:46	-132.943	43.650	0	192.40	0	7.8780	0	33.9910	4	26.502	0	190.773	0	165.0	4	56.9	4	-1E+10	1	-1E+10	1	-1E+10	1	-1E+10	1	-1E+10	1	-1E+10	1
4901784	74	C	07/14/2017	10:46	-132.943	43.650	0	195.00	0	7.8260	0	33.9910	4	26.510	0	193.350	0	163.6	4	56.4	4	-1E+10	1	-1E+10	1	-1E+10	1	-1E+10	1	-1E+10	1	-1E+10	1
4901784	74	C	07/14/2017	10:46	-132.943	43.650	0	197.60	0	7.7790	0	33.9930	4	26.519	0	195.927	0	162.3	4	55.9	4	-1E+10	1	-1E+10	1	-1E+10	1	-1E+10	1	-1E+10	1	-1E+10	1
4901784	74	C	07/14/2017	10:46	-132.943	43.650	0	200.30	0	7.7200	0	33.9940	4	26.528	0	198.602	0	160.9	4	55.3	4	-1E+10	1	-1E+10	1	-1E+10	1	-1E+10	1	-1E+10	1	-1E+10	1
4901784	74	C	07/14/2017	10:46	-132.943	43.650	0	202.10	0	7.7000	0	33.9940	4	26.531	0	200.386	0	160.1	4	55.0	4	-1E+10	1	-1E+10	1	-1E+10	1	-1E+10	1	-1E+10	1	-1E+10	1
4901784	74	C	07/14/2017	10:46	-132.943	43.650	0	204.80	0	7.6600	0	33.9930	4	26.536	0	203.062	0	158.7	4	54.5	4	-1E+10	1	-1E+10	1	-1E+10	1	-1E+10	1	-1E+10	1	-1E+10	1
4901784	74	C	07/14/2017	10:46	-132.943	43.650	0	207.60	0	7.6190	0	33.9910	4	26.540	0	205.837	0	157.1	4	53.9	4	-1E+10	1	-1E+10	1	-1E+10	1	-1E+10	1	-1E+10	1	-1E+10	1
4901784	74	C	07/14/2017	10:46	-132.943	43.650	0	209.40	0	7.5710	0	33.9920	4	26.548	0	207.621	0	156.2	4	53.5	4	-1E+10	1	-1E+10	1	-1E+10	1	-1E+10	1	-1E+10	1	-1E+10	1
4901784	74	C	07/14/2017	10:46	-132.943	43.650	0	212.20	0	7.5210	0	33.9920	4	26.555	0	210.396	0	155.0	4	53.1	4	-1E+10	1	-1E+10	1	-1E+10	1	-1E+10	1	-1E+10	1	-1E+10	1
4901784	74	C	07/14/2017	10:46	-132.943	43.650	0	214.90	0	7.4870	0	33.9910	4	26.559	0	213.071	0	153.7	4	52.6	4	-1E+10	1	-1E+10	1	-1E+10	1	-1E+10	1	-1E+10	1	-1E+10	1
4901784	74	C	07/14/2017	10:46	-132.943	43.650	0	217.70	0	7.4540	0	33.9910	4	26.564	0	215.846	0	152.5	4	52.1	4	-1E+10	1	-1E+10	1	-1E+10	1	-1E+10	1	-1E+10	1	-1E+10	1
4901784	74	C	07/14/2017	10:46	-132.943	43.650	0	220.50	0	7.3960	0	33.9920	4	26.573	0	218.621	0	151.0	4	51.6	4	-1E+10	1	-1E+10	1	-1E+10	1	-1E+10	1	-1E+10	1	-1E+10	1
4901784	74	C	07/14/2017	10:46	-132.943	43.650	0	222.40	0	7.3870	0	33.9910	4	26.573	0	220.503	0	150.1	4	51.2	4	-1E+10	1	-1E+10	1	-1E+10	1	-1E+10	1	-1E+10	1	-1E+10	1
4901784	74	C	07/14/2017	10:46	-132.943	43.650	0	225.20	0	7.3340	0	33.9900	4	26.580	0	223.278	0	148.5	4	50.6	4	-1E+10	1	-1E+10	1	-1E+10	1	-1E+10	1	-1E+10	1	-1E+10	1
4901784	74	C	07/14/2017	10:46	-132.943	43.650	0	228.00	0	7.2530	0	33.9960	4	26.596	0	226.053	0	146.7	4	49.9	4	-1E+10	1	-1E+10	1	-1E+10	1	-1E+10	1	-1E+10	1	-1E+10	1
4901784	74	C	07/14/2017	10:46	-132.943	43.650	0	229.80	0	7.2120	0	33.9940	4	26.600	0	227.836	0	145.4	4	49.4	4	-1E+10	1	-1E+10	1	-1E+10	1	-1E+10	1	-1E+10	1	-1E+10	1
4901784	74	C	07/14/2017	10:46	-132.943	43.650	0	232.70	0	7.1180	0	33.9970	4	26.616	0	230.710	0	143.6	4	48.7	4	-1E+10	1	-1E+10	1	-1E+10	1	-1E+10	1	-1E+10	1	-1E+10	1
4901784	74	C	07/14/2017	10:46	-132.943	43.650	0	235.40	0	7.0450	0	33.9970	4	26.626	0	233.385	0	142.2	4	48.2	4	-1E+10	1	-1E+10	1	-1E+10	1	-1E+10	1	-1E+10	1	-1E+10	1
4901784	74	C	07/14/2017	10:46	-132.943	43.650	0	237.30	0	7.0340	0	33.9960	4	26.626	0	235.268	0	141.4	4	47.9	4	-1E+10	1	-1E+10	1	-1E+10	1	-1E+10	1	-1E+10	1	-1E+10	1
4901784	74	C	07/14/2017	10:46	-132.943	43.650	0	240.00	0	6.9780	0	33.9980	4	26.636	0	237.943	0	140.0	4	47.3	4	-1E+10	1	-1E+10	1	-1E+10	1	-1E+10	1	-1E+10	1	-1E+10	1
4901784	74	C	07/14/2017	10:46	-132.943	43.650	0	242.80	0	6.9030	0	33.9950	4	26.644	0	240.718	0	138.8	4	46.8	4	-1E+10	1	-1E+10	1	-1E+10	1	-1E+10	1	-1E+10	1	-1E+10	1
4901784	74	C	07/14/2017	10:46	-132.943	43.650	0	244.80	0	6.9030	0	33.9960	4	26.644	0	242.699	0	138.3	4	46.7	4	-1E+10	1	-1E+10	1	-1E+10	1	-1E+10	1	-1E+10	1	-1E+10	1
4901784	74	C	07/14/2017	10:46	-132.943	43.650	0	247.60	0	6.8680	0	33.9950	4	26.648	0	245.474	0	137.1	4	46.3	4	-1E+10	1	-1E+10	1	-1E+10	1	-1E+10	1	-1E+10	1	-1E+10	1
4901784	74	C	07/14/2017	10:46	-132.943	43.650	0	250.40	0	6.8320	0	33.9960	4	26.654	0	248.248	0	136.1	4	45.8	4	-1E+10	1	-1E+10	1	-1E+10	1	-1E+10	1	-1E+10	1	-1E+10	1
4901784	74	C	07/14/2017	10:46	-132.943	43.650	0	252.30	0	6.8110	0	33.9920	4	26.654	0	250.130	0	135.2	4	45.5	4	-1E+10	1	-1E+10	1	-1E+10	1	-1E+10	1	-1E+10	1	-1E+10	1
4901784	74	C	07/14/2017	10:46	-132.943	43.650	0	255.10	0	6.7850	0	33.9920	4	26.657	0	252.905	0	133.9	4	45.1	4	-1E+10	1	-1E+10	1	-1E+10	1	-1E+10	1	-1E+10	1	-1E+10	1
4901784	74	C	07/14/2017	10:46	-132.943	43.650	0	257.90	0	6.7530	0	33.9910	4	26.661	0	255.679	0	132.7	4	44.6	4	-1E+10	1	-1E+10	1	-1E+10	1	-1E+10	1	-1E+10	1	-1E+10	1
4901784	74	C	07/14/2017	10:46	-132.943	43.650	0	259.80	0	6.7280	0	33.9940	4	26.667	0	257.561	0	131.7	4	44.3	4	-1E+10	1	-1E+10	1	-1E+10	1	-1E+10	1	-1E+10	1	-1E+10	1
4901784	74	C	07/14/2017	10:46	-132.943	43.650	0	262.70	0	6.6700	0	33.9910	4	26.672	0	260.434	0	130.7	4	43.9	4	-1E+10	1	-1E+10	1	-1E+10	1	-1E+10	1	-1E+10	1	-1E+10	1
4901784	74	C	07/14/2017	10:46	-132.943	43.650	0	265.50	0	6.6340	0	33.9910	4	26.677	0	263.208	0	129.7	4	43.5	4	-1E+10	1	-1E+10	1	-1E+10	1	-1E+10	1	-1E+10	1	-1E+10	1
4901784	74	C	07/14/2017	10:46	-132.943	43.650	0	267.40	0	6.6100	0	33.9900	4	26.679	0	265.091	0	128.9	4	43.2	4	-1E+10	1	-1E+10	1	-1E+10	1	-1E+10	1	-1E+10	1	-1E+10	1
4901784	74	C	07/14/2017	10:46	-132.943	43.650	0	270.30	0	6.5730	0	33.9890	4	26.683	0	267.964	0	127.8	4	42.8	4	-1E+10	1	-1E+10	1	-1E+10	1	-1E+10	1	-1E+10	1	-1E+10	1
4901784	74	C	07/14/2017	10:46	-132.943	43.650	0	273.10	0	6.5090	0	33.9900	4	26.692	0	270.738	0	126.8	4	42.4	4	-1E+10	1	-1E+10	1	-1E+10	1	-1E+10	1	-1E+10	1	-1E+10	1
4901784	74	C	07/14/2017	10:46	-132.943	43.650	0	275.00	0	6.4830	0	33.9910	4	26.697	0	272.620	0	126.2	4	42.2	4	-1E+10	1	-1E+10	1	-1E+10	1	-1E+10	1	-1E+10	1	-1E+10	1
4901784	74	C	07/14/2017	10:46	-132.943	43.650	0	276.90	0	6.4690	0	33.9900	4	26.698	0	274.503	0	125.5	4	41.9	4	-1E+10	1	-1E+10	1	-1E+10	1	-1E+10	1	-1E+10	1	-1E+10	1
4901784	74	C	07/14/2017	10:46	-132.943	43.650	0	279.80	0	6.4240	0	33.9890	4	26.703	0	277.375	0	124.3	4	41.5	4	-1E+10	1	-1E+10	1	-1E+10	1	-1E+10	1	-1E+10	1	-1E+10	1
4901784	74	C	07/14/2017	10:46	-132.943	43.650	0	282.80	0	6.3600	0	33.9890	4	26.711	0	280.347	0	123.3	4	41.1	4	-1E+10	1	-1E+10	1	-1E+10	1	-1E+10	1	-1E+10	1	-1E+10	1
4901784	74	C	07/14/2017	10:46	-132.943	43.650	0	284.70	0	6.3320	0	33.9890	4	26.715	0	282.230	0	122.7	4	40.9	4	-1E+10	1	-1E+10	1	-1E+10	1	-1E+10	1	-1E+10	1	-1E+10	1
4901784	74	C	07/14/2017	10:46	-132.943	43.650	0	287.60	0	6.2860	0	33.9890	4	26.721	0	285.103	0	122.1	4	40.6	4	-1E+10	1	-1E+10	1	-1E+10	1	-1E+10	1	-1E+10	1	-1E+10	1
4901784	74	C	07/14/2017	10:46	-132.943	43.650	0	290.50	0	6.2810	0	33.9870	4	26.720	0	287.975	0	121.2	4	40.3	4	-1E+10	1	-1E+10	1	-1E+10	1	-1E+10	1	-1E+10	1	-1E+10	1
4901784	74	C	07/14/2017	10:46	-132.943	43.650	0	292.30	0	6.2540	0	33.9860	4	26.723	0	289.758	0	120.4	4	40.0	4	-1E+10	1	-1E+10	1	-1E+10	1	-1E+10	1	-1E+10	1	-1E+10	1
4901784	74	C	07/14/2017	10:46	-132.943	43.650	0	295.20	0	6.2010	0	33.9860	4	26.729	0	292.631	0	119.3	4	39.6	4	-1E+10	1	-1E+10	1	-1E+10	1	-1E+10	1	-1E+10	1	-1E+10	1
4901784	74	C	07/14/2017	10:46	-132.943	43.650	0	298.10	0	6.1570	0	33.9860	4	26.735	0	295.504	0	118.4	4	39.3	4	-1E+10	1	-1E+10	1	-1E+10	1	-1E+10	1	-1E+10	1	-1E+10	1
4901784	74	C	07/14/2017	10:46	-132.943	43.650	0	300.10	0	6.1250	0	33.9860	4	26.739	0	297.485	0	117.7	4	39.0	4	-1E+10	1	-1E+10	1	-1E+10	1	-1E+10	1	-1E+10	1	-1E+10	1
4901784	74	C	07/14/2017	10:46	-132.943	43.650	0	302.00	0	6.1090	0	33.9850	4	26.740	0	299.367	0	117.0	4	38.8	4	-1E+10	1	-1E+10	1	-1E+10	1	-1E+10	1	-1E+10	1	-1E+10	1
4901784	74	C	07/14/2017	10:46	-132.943	43.650	0	305.00	0	6.0580	0	33.9870	4	26.748	0	302.339	0	116.1	4	38.4	4	-1E+10	1	-1E+10	1	-1E+10	1	-1E+10	1	-1E+10	1	-1E+10	1
4901784	74	C	07/14/2017	10:46	-132.943	43.650	0	308.00	0	6.0350	0	33.9870	4	26.751	0	305.310	0	115.3	4	38.1	4	-1E+10	1	-1E+10	1	-1E+10	1	-1E+10	1	-1E+10	1	-1E+10	1
4901784	74	C	07/14/2017	10:46	-132.943	43.650	0	309.90	0	6.0200	0	33.9860	4	26.752	0	307.192	0	114.6	4	37.9	4	-1E+10	1	-1E+10	1	-1E+10	1	-1E+10	1	-1E+10	1	-1E+10	1
4901784	74	C	07/14/2017	10:46	-132.943	43.650	0	311.80	0	5.9890	0	33.9870	4	26.757	0	309.074	0	113.8	4	37.6	4	-1E+10	1	-1E+10	1	-1E+10	1	-1E+10	1	-1E+10	1	-1E+10	1
4901784	74	C	07/14/2017	10:46	-132.943	43.650	0	314.80	0	5.9190	0	33.9870	4	26.766	0	312.046	0	112.7	4	37.2	4	-1E+10	1	-1E+10	1	-1E+10	1	-1E+10	1	-1E+10	1	-1E+10	1
4901784	74	C	07/14/2017	10:46	-132.943	43.650	0	317.70	0	5.8700	0	33.9880	4	26.773	0	314.918	0	112.2	4	37.0	4	-1E+10	1	-1E+10	1	-1E+10	1	-1E+10	1	-1E+10	1	-1E+10	1
4901784	74	C	07/14/2017	10:46	-132.943	43.650	0	319.60	0	5.8590	0	33.9890	4	26.775	0	316.800	0	111.8	4	36.8	4	-1E+10	1	-1E+10	1	-1E+10	1	-1E+10	1	-1E+10	1	-1E+10	1
4901784	74	C	07/14/2017	10:46	-132.943	43.650	0	322.60	0	5.8520	0	33.9880	4	26.775	0	319.772	0	111.2	4	36.6	4	-1E+10	1	-1E+10	1	-1E+10	1	-1E+10	1	-1E+10	1	-1E+10	1
4901784	74	C	07/14/2017	10:46	-132.943	43.650	0	325.50	0	5.8410	0	33.9880	4	26.776	0	322.644	0	110.3	4	36.3	4	-1E+10	1	-1E+10	1	-1E+10	1	-1E+10	1	-1E+10	1	-1E+10	1
4901784	74	C	07/14/2017	10:46	-132.943	43.650	0	327.50	0	5.8370	0	33.9870	4	26.776	0	324.625	0	109.7	4	36.1	4	-1E+10	1	-1E+10	1	-1E+10	1	-1E+10	1	-1E+10	1	-1E+10	1
4901784	74	C	07/14/2017	10:46	-132.943	43.650	0	329.40	0	5.8250	0	33.9870	4	26.778	0	326.507	0	108.7	4	35.8	4	-1E+10	1	-1E+10	1	-1E+10	1	-1E+10	1	-1E+10	1	-1E+10	1
4901784	74	C	07/14/2017	10:46	-132.943	43.650	0	332.30	0	5.7870	0	33.9860	4	26.781	0	329.379	0	107.2	4	35.3	4	-1E+10	1	-1E+10	1	-1E+10	1	-1E+10	1	-1E+10	1	-1E+10	1
4901784	74	C	07/14/2017	10:46	-132.943	43.650	0	335.20	0	5.7380	0	33.9870	4	26.788	0	332.251	0	105.4	4	34.6	4	-1E+10	1	-1E+10	1	-1E+10	1	-1E+10	1	-1E+10	1	-1E+10	1
4901784	74	C	07/14/2017	10:46	-132.943	43.650	0	337.20	0	5.7240	0	33.9870	4	26.790	0	334.232	0	103.9	4	34.1	4	-1E+10	1	-1E+10	1	-1E+10	1	-1E+10	1	-1E+10	1	-1E+10	1
4901784	74	C	07/14/2017	10:46	-132.943	43.650	0	340.00	0	5.6910	0	33.9880	4	26.795	0	337.005	0	101.5	4	33.3	4	-1E+10	1	-1E+10	1	-1E+10	1	-1E+10	1	-1E+10	1	-1E+10	1
4901784	74	C	07/14/2017	10:46	-132.943	43.650	0	343.30	0	5.6340	0	33.9880	4	26.802	0	340.273	0	99.0	4	32.4	4	-1E+10	1	-1E+10	1	-1E+10	1	-1E+10	1	-1E+10	1	-1E+10	1
4901784	74	C	07/14/2017	10:46	-132.943	43.650	0	344.70	0	5.6200	0	33.9900	4	26.805	0	341.660	0	97.4	4	31.9	4	-1E+10	1	-1E+10	1	-1E+10	1	-1E+10	1	-1E+10	1	-1E+10	1
4901784	74	C	07/14/2017	10:46	-132.943	43.650	0	347.20	0	5.5780	0	33.9910	4	26.811	0	344.135	0	95.7	4	31.3	4	-1E+10	1	-1E+10	1	-1E+10	1	-1E+10	1	-1E+10	1	-1E+10	1
4901784	74	C	07/14/2017	10:46	-132.943	43.650	0	349.60	0	5.5310	0	33.9930	4	26.818	0	346.512	0	93.8	4	30.7	4	-1E+10	1	-1E+10	1	-1E+10	1	-1E+10	1	-1E+10	1	-1E+10	1
4901784	74	C	07/14/2017	10:46	-132.943	43.650	0	352.90	0	5.4840	0	33.9950	4	26.825	0	349.780	0	91.4	4	29.8	4	-1E+10	1	-1E+10	1	-1E+10	1	-1E+10	1	-1E+10	1	-1E+10	1
4901784	74	C	07/14/2017	10:46	-132.943	43.650	0	355.30	0	5.4460	0	33.9970	4	26.832	0	352.157	0	90.0	4	29.4	4	-1E+10	1	-1E+10	1	-1E+10	1	-1E+10	1	-1E+10	1	-1E+10	1
4901784	74	C	07/14/2017	10:46	-132.943	43.650	0	357.80	0	5.4220	0	33.9990	4	26.836	0	354.633	0	88.5	4	28.9	4	-1E+10	1	-1E+10	1	-1E+10	1	-1E+10	1	-1E+10	1	-1E+10	1
4901784	74	C	07/14/2017	10:46	-132.943	43.650	0	360.20	0	5.3870	0	33.9990	4	26.840	0	357.010	0	87.2	4	28.4	4	-1E+10	1	-1E+10	1	-1E+10	1	-1E+10	1	-1E+10	1	-1E+10	1
4901784	74	C	07/14/2017	10:46	-132.943	43.650	0	362.80	0	5.3490	0	34.0030	4	26.848	0	359.584	0	86.0	4	28.0	4	-1E+10	1	-1E+10	1	-1E+10	1	-1E+10	1	-1E+10	1	-1E+10	1
4901784	74	C	07/14/2017	10:46	-132.943	43.650	0	365.20	0	5.3230	0	34.0040	4	26.852	0	361.961	0	84.9	4	27.6	4	-1E+10	1	-1E+10	1	-1E+10	1	-1E+10	1	-1E+10	1	-1E+10	1
4901784	74	C	07/14/2017	10:46	-132.943	43.650	0	367.70	0	5.3120	0	34.0050	4	26.854	0	364.437	0	83.8	4	27.3	4	-1E+10	1	-1E+10	1	-1E+10	1	-1E+10	1	-1E+10	1	-1E+10	1
4901784	74	C	07/14/2017	10:46	-132.943	43.650	0	370.20	0	5.2950	0	34.0060	4	26.857	0	366.912	0	82.6	4	26.9	4	-1E+10	1	-1E+10	1	-1E+10	1	-1E+10	1	-1E+10	1	-1E+10	1
4901784	74	C	07/14/2017	10:46	-132.943	43.650	0	372.60	0	5.2750	0	34.0070	4	26.860	0	369.289	0	81.6	4	26.5	4	-1E+10	1	-1E+10	1	-1E+10	1	-1E+10	1	-1E+10	1	-1E+10	1
4901784	74	C	07/14/2017	10:46	-132.943	43.650	0	375.00	0	5.2530	0	34.0090	4	26.864	0	371.665	0	80.7	4	26.2	4	-1E+10	1	-1E+10	1	-1E+10	1	-1E+10	1	-1E+10	1	-1E+10	1
4901784	74	C	07/14/2017	10:46	-132.943	43.650	0	377.50	0	5.2390	0	34.0100	4	26.866	0	374.141	0	79.6	4	25.8	4	-1E+10	1	-1E+10	1	-1E+10	1	-1E+10	1	-1E+10	1	-1E+10	1
4901784	74	C	07/14/2017	10:46	-132.943	43.650	0	380.00	0	5.2160	0	34.0120	4	26.871	0	376.616	0	78.5	4	25.5	4	-1E+10	1	-1E+10	1	-1E+10	1	-1E+10	1	-1E+10	1	-1E+10	1
4901784	74	C	07/14/2017	10:46	-132.943	43.650	0	382.40	0	5.1930	0	34.0140	4	26.875	0	378.993	0	77.6	4	25.2	4	-1E+10	1	-1E+10	1	-1E+10	1	-1E+10	1	-1E+10	1	-1E+10	1
4901784	74	C	07/14/2017	10:46	-132.943	43.650	0	384.90	0	5.1830	0	34.0140	4	26.876	0	381.468	0	76.5	4	24.8	4	-1E+10	1	-1E+10	1	-1E+10	1	-1E+10	1	-1E+10	1	-1E+10	1
4901784	74	C	07/14/2017	10:46	-132.943	43.650	0	387.40	0	5.1610	0	34.0160	4	26.880	0	383.943	0	75.0	4	24.3	4	-1E+10	1	-1E+10	1	-1E+10	1	-1E+10	1	-1E+10	1	-1E+10	1
4901784	74	C	07/14/2017	10:46	-132.943	43.650	0	389.90	0	5.1420	0	34.0180	4	26.884	0	386.419	0	73.4	4	23.8	4	-1E+10	1	-1E+10	1	-1E+10	1	-1E+10	1	-1E+10	1	-1E+10	1
4901784	74	C	07/14/2017	10:46	-132.943	43.650	0	392.40	0	5.1120	0	34.0230	4	26.892	0	388.894	0	72.1	4	23.4	4	-1E+10	1	-1E+10	1	-1E+10	1	-1E+10	1	-1E+10	1	-1E+10	1
4901784	74	C	07/14/2017	10:46	-132.943	43.650	0	394.80	0	5.0850	0	34.0270	4	26.898	0	391.270	0	71.2	4	23.1	4	-1E+10	1	-1E+10	1	-1E+10	1	-1E+10	1	-1E+10	1	-1E+10	1
4901784	74	C	07/14/2017	10:46	-132.943	43.650	0	397.40	0	5.0710	0	34.0290	4	26.901	0	393.845	0	70.8	4	22.9	4	-1E+10	1	-1E+10	1	-1E+10	1	-1E+10	1	-1E+10	1	-1E+10	1
4901784	74	C	07/14/2017	10:46	-132.943	43.650	0	400.00	0	5.0580	0	34.0310	4	26.904	0	396.419	0	70.4	4	22.8	4	-1E+10	1	-1E+10	1	-1E+10	1	-1E+10	1	-1E+10	1	-1E+10	1
4901784	74	C	07/14/2017	10:46	-132.943	43.650	0	402.60	0	5.0480	0	34.0320	4	26.906	0	398.993	0	69.8	4	22.6	4	-1E+10	1	-1E+10	1	-1E+10	1	-1E+10	1	-1E+10	1	-1E+10	1
4901784	74	C	07/14/2017	10:46	-132.943	43.650	0	405.20	0	5.0320	0	34.0350	4	26.910	0	401.567	0	69.0	4	22.3	4	-1E+10	1	-1E+10	1	-1E+10	1	-1E+10	1	-1E+10	1	-1E+10	1
4901784	74	C	07/14/2017	10:46	-132.943	43.650	0	407.70	0	5.0140	0	34.0380	4	26.915	0	404.043	0	68.0	4	22.0	4	-1E+10	1	-1E+10	1	-1E+10	1	-1E+10	1	-1E+10	1	-1E+10	1
4901784	74	C	07/14/2017	10:46	-132.943	43.650	0	410.40	0	4.9980	0	34.0400	4	26.918	0	406.716	0	67.1	4	21.7	4	-1E+10	1	-1E+10	1	-1E+10	1	-1E+10	1	-1E+10	1	-1E+10	1
4901784	74	C	07/14/2017	10:46	-132.943	43.650	0	412.10	0	4.9900	0	34.0420	4	26.921	0	408.399	0	66.4	4	21.4	4	-1E+10	1	-1E+10	1	-1E+10	1	-1E+10	1	-1E+10	1	-1E+10	1
4901784	74	C	07/14/2017	10:46	-132.943	43.650	0	414.70	0	4.9790	0	34.0440	4	26.924	0	410.973	0	65.1	4	21.0	4	-1E+10	1	-1E+10	1	-1E+10	1	-1E+10	1	-1E+10	1	-1E+10	1
4901784	74	C	07/14/2017	10:46	-132.943	43.650	0	417.20	0	4.9650	0	34.0460	4	26.927	0	413.448	0	63.7	4	20.6	4	-1E+10	1	-1E+10	1	-1E+10	1	-1E+10	1	-1E+10	1	-1E+10	1
4901784	74	C	07/14/2017	10:46	-132.943	43.650	0	419.80	0	4.9470	0	34.0500	4	26.932	0	416.022	0	62.9	4	20.3	4	-1E+10	1	-1E+10	1	-1E+10	1	-1E+10	1	-1E+10	1	-1E+10	1
4901784	74	C	07/14/2017	10:46	-132.943	43.650	0	422.40	0	4.9410	0	34.0500	4	26.933	0	418.596	0	62.3	4	20.1	4	-1E+10	1	-1E+10	1	-1E+10	1	-1E+10	1	-1E+10	1	-1E+10	1
4901784	74	C	07/14/2017	10:46	-132.943	43.650	0	425.00	0	4.9220	0	34.0540	4	26.938	0	421.170	0	61.4	4	19.8	4	-1E+10	1	-1E+10	1	-1E+10	1	-1E+10	1	-1E+10	1	-1E+10	1
4901784	74	C	07/14/2017	10:46	-132.943	43.650	0	427.60	0	4.9130	0	34.0550	4	26.940	0	423.744	0	60.9	4	19.6	4	-1E+10	1	-1E+10	1	-1E+10	1	-1E+10	1	-1E+10	1	-1E+10	1
4901784	74	C	07/14/2017	10:46	-132.943	43.650	0	430.30	0	4.9000	0	34.0580	4	26.944	0	426.417	0	60.4	4	19.5	4	-1E+10	1	-1E+10	1	-1E+10	1	-1E+10	1	-1E+10	1	-1E+10	1
4901784	74	C	07/14/2017	10:46	-132.943	43.650	0	432.90	0	4.8880	0	34.0590	4	26.946	0	428.990	0	59.9	4	19.3	4	-1E+10	1	-1E+10	1	-1E+10	1	-1E+10	1	-1E+10	1	-1E+10	1
4901784	74	C	07/14/2017	10:46	-132.943	43.650	0	434.70	0	4.8750	0	34.0610	4	26.949	0	430.772	0	59.4	4	19.1	4	-1E+10	1	-1E+10	1	-1E+10	1	-1E+10	1	-1E+10	1	-1E+10	1
4901784	74	C	07/14/2017	10:46	-132.943	43.650	0	437.40	0	4.8540	0	34.0650	4	26.954	0	433.445	0	58.5	4	18.8	4	-1E+10	1	-1E+10	1	-1E+10	1	-1E+10	1	-1E+10	1	-1E+10	1
4901784	74	C	07/14/2017	10:46	-132.943	43.650	0	440.10	0	4.8470	0	34.0660	4	26.956	0	436.118	0	57.7	4	18.6	4	-1E+10	1	-1E+10	1	-1E+10	1	-1E+10	1	-1E+10	1	-1E+10	1
4901784	74	C	07/14/2017	10:46	-132.943	43.650	0	442.80	0	4.8320	0	34.0690	4	26.960	0	438.791	0	57.1	4	18.4	4	-1E+10	1	-1E+10	1	-1E+10	1	-1E+10	1	-1E+10	1	-1E+10	1
4901784	74	C	07/14/2017	10:46	-132.943	43.650	0	445.50	0	4.8230	0	34.0700	4	26.962	0	441.463	0	56.7	4	18.3	4	-1E+10	1	-1E+10	1	-1E+10	1	-1E+10	1	-1E+10	1	-1E+10	1
4901784	74	C	07/14/2017	10:46	-132.943	43.650	0	447.30	0	4.8150	0	34.0710	4	26.964	0	443.245	0	56.5	4	18.2	4	-1E+10	1	-1E+10	1	-1E+10	1	-1E+10	1	-1E+10	1	-1E+10	1
4901784	74	C	07/14/2017	10:46	-132.943	43.650	0	450.00	0	4.8020	0	34.0730	4	26.967	0	445.918	0	55.8	4	17.9	4	-1E+10	1	-1E+10	1	-1E+10	1	-1E+10	1	-1E+10	1	-1E+10	1
4901784	74	C	07/14/2017	10:46	-132.943	43.650	0	452.70	0	4.7830	0	34.0760	4	26.971	0	448.590	0	55.1	4	17.7	4	-1E+10	1	-1E+10	1	-1E+10	1	-1E+10	1	-1E+10	1	-1E+10	1
4901784	74	C	07/14/2017	10:46	-132.943	43.650	0	454.50	0	4.7790	0	34.0770	4	26.972	0	450.372	0	54.6	4	17.6	4	-1E+10	1	-1E+10	1	-1E+10	1	-1E+10	1	-1E+10	1	-1E+10	1
4901784	74	C	07/14/2017	10:46	-132.943	43.650	0	457.20	0	4.7710	0	34.0780	4	26.974	0	453.044	0	53.7	4	17.3	4	-1E+10	1	-1E+10	1	-1E+10	1	-1E+10	1	-1E+10	1	-1E+10	1
4901784	74	C	07/14/2017	10:46	-132.943	43.650	0	460.00	0	4.7580	0	34.0810	4	26.978	0	455.816	0	52.7	4	16.9	4	-1E+10	1	-1E+10	1	-1E+10	1	-1E+10	1	-1E+10	1	-1E+10	1
4901784	74	C	07/14/2017	10:46	-132.943	43.650	0	462.70	0	4.7370	0	34.0860	4	26.984	0	458.488	0	51.9	4	16.7	4	-1E+10	1	-1E+10	1	-1E+10	1	-1E+10	1	-1E+10	1	-1E+10	1
4901784	74	C	07/14/2017	10:46	-132.943	43.650	0	465.60	0	4.7280	0	34.0870	4	26.986	0	461.359	0	51.3	4	16.5	4	-1E+10	1	-1E+10	1	-1E+10	1	-1E+10	1	-1E+10	1	-1E+10	1
4901784	74	C	07/14/2017	10:46	-132.943	43.650	0	467.40	0	4.7210	0	34.0890	4	26.989	0	463.140	0	50.8	4	16.3	4	-1E+10	1	-1E+10	1	-1E+10	1	-1E+10	1	-1E+10	1	-1E+10	1
4901784	74	C	07/14/2017	10:46	-132.943	43.650	0	470.20	0	4.7130	0	34.0910	4	26.991	0	465.912	0	50.1	4	16.1	4	-1E+10	1	-1E+10	1	-1E+10	1	-1E+10	1	-1E+10	1	-1E+10	1
4901784	74	C	07/14/2017	10:46	-132.943	43.650	0	473.00	0	4.7070	0	34.0930	4	26.993	0	468.683	0	49.4	4	15.8	4	-1E+10	1	-1E+10	1	-1E+10	1	-1E+10	1	-1E+10	1	-1E+10	1
4901784	74	C	07/14/2017	10:46	-132.943	43.650	0	474.80	0	4.7060	0	34.0930	4	26.993	0	470.465	0	48.9	4	15.7	4	-1E+10	1	-1E+10	1	-1E+10	1	-1E+10	1	-1E+10	1	-1E+10	1
4901784	74	C	07/14/2017	10:46	-132.943	43.650	0	477.60	0	4.6990	0	34.0950	4	26.996	0	473.236	0	48.1	4	15.4	4	-1E+10	1	-1E+10	1	-1E+10	1	-1E+10	1	-1E+10	1	-1E+10	1
4901784	74	C	07/14/2017	10:46	-132.943	43.650	0	480.40	0	4.6770	0	34.0990	4	27.001	0	476.007	0	47.4	4	15.2	4	-1E+10	1	-1E+10	1	-1E+10	1	-1E+10	1	-1E+10	1	-1E+10	1
4901784	74	C	07/14/2017	10:46	-132.943	43.650	0	482.20	0	4.6700	0	34.1000	4	27.003	0	477.789	0	46.9	4	15.0	4	-1E+10	1	-1E+10	1	-1E+10	1	-1E+10	1	-1E+10	1	-1E+10	1
4901784	74	C	07/14/2017	10:46	-132.943	43.650	0	485.00	0	4.6630	0	34.1030	4	27.006	0	480.560	0	46.1	4	14.8	4	-1E+10	1	-1E+10	1	-1E+10	1	-1E+10	1	-1E+10	1	-1E+10	1
4901784	74	C	07/14/2017	10:46	-132.943	43.650	0	487.90	0	4.6560	0	34.1040	4	27.008	0	483.430	0	45.4	4	14.5	4	-1E+10	1	-1E+10	1	-1E+10	1	-1E+10	1	-1E+10	1	-1E+10	1
4901784	74	C	07/14/2017	10:46	-132.943	43.650	0	489.80	0	4.6340	0	34.1100	4	27.015	0	485.310	0	44.9	4	14.4	4	-1E+10	1	-1E+10	1	-1E+10	1	-1E+10	1	-1E+10	1	-1E+10	1
4901784	74	C	07/14/2017	10:46	-132.943	43.650	0	492.50	0	4.6270	0	34.1110	4	27.017	0	487.982	0	44.5	4	14.3	4	-1E+10	1	-1E+10	1	-1E+10	1	-1E+10	1	-1E+10	1	-1E+10	1
4901784	74	C	07/14/2017	10:46	-132.943	43.650	0	495.40	0	4.6220	0	34.1120	4	27.018	0	490.852	0	44.1	4	14.1	4	-1E+10	1	-1E+10	1	-1E+10	1	-1E+10	1	-1E+10	1	-1E+10	1
4901784	74	C	07/14/2017	10:46	-132.943	43.650	0	497.40	0	4.6210	0	34.1120	4	27.018	0	492.831	0	43.7	4	14.0	4	-1E+10	1	-1E+10	1	-1E+10	1	-1E+10	1	-1E+10	1	-1E+10	1
4901784	74	C	07/14/2017	10:46	-132.943	43.650	0	500.10	0	4.6170	0	34.1140	4	27.020	0	495.503	0	43.1	4	13.8	4	-1E+10	1	-1E+10	1	-1E+10	1	-1E+10	1	-1E+10	1	-1E+10	1
4901784	74	C	07/14/2017	10:46	-132.943	43.650	0	504.80	0	4.6010	0	34.1170	4	27.024	0	500.155	0	42.2	4	13.5	4	-1E+10	1	-1E+10	1	-1E+10	1	-1E+10	1	-1E+10	1	-1E+10	1
4901784	74	C	07/14/2017	10:46	-132.943	43.650	0	510.40	0	4.5730	0	34.1230	4	27.032	0	505.696	0	41.0	4	13.1	4	-1E+10	1	-1E+10	1	-1E+10	1	-1E+10	1	-1E+10	1	-1E+10	1
4901784	74	C	07/14/2017	10:46	-132.943	43.650	0	515.20	0	4.5550	0	34.1280	4	27.038	0	510.446	0	40.1	4	12.8	4	-1E+10	1	-1E+10	1	-1E+10	1	-1E+10	1	-1E+10	1	-1E+10	1
4901784	74	C	07/14/2017	10:46	-132.943	43.650	0	519.90	0	4.5460	0	34.1300	4	27.041	0	515.097	0	39.1	4	12.5	4	-1E+10	1	-1E+10	1	-1E+10	1	-1E+10	1	-1E+10	1	-1E+10	1
4901784	74	C	07/14/2017	10:46	-132.943	43.650	0	524.70	0	4.5320	0	34.1340	4	27.045	0	519.847	0	37.8	4	12.1	4	-1E+10	1	-1E+10	1	-1E+10	1	-1E+10	1	-1E+10	1	-1E+10	1
4901784	74	C	07/14/2017	10:46	-132.943	43.650	0	529.40	0	4.5130	0	34.1400	4	27.052	0	524.497	0	36.5	4	11.7	4	-1E+10	1	-1E+10	1	-1E+10	1	-1E+10	1	-1E+10	1	-1E+10	1
4901784	74	C	07/14/2017	10:46	-132.943	43.650	0	535.00	0	4.4950	0	34.1440	4	27.057	0	530.038	0	35.3	4	11.3	4	-1E+10	1	-1E+10	1	-1E+10	1	-1E+10	1	-1E+10	1	-1E+10	1
4901784	74	C	07/14/2017	10:46	-132.943	43.650	0	540.50	0	4.4690	0	34.1510	4	27.066	0	535.480	0	33.9	4	10.8	4	-1E+10	1	-1E+10	1	-1E+10	1	-1E+10	1	-1E+10	1	-1E+10	1
4901784	74	C	07/14/2017	10:46	-132.943	43.650	0	545.10	0	4.4510	0	34.1570	4	27.073	0	540.031	0	32.8	4	10.5	4	-1E+10	1	-1E+10	1	-1E+10	1	-1E+10	1	-1E+10	1	-1E+10	1
4901784	74	C	07/14/2017	10:46	-132.943	43.650	0	549.90	0	4.4390	0	34.1600	4	27.076	0	544.780	0	32.1	4	10.2	4	-1E+10	1	-1E+10	1	-1E+10	1	-1E+10	1	-1E+10	1	-1E+10	1
4901784	74	C	07/14/2017	10:46	-132.943	43.650	0	555.60	0	4.4250	0	34.1640	4	27.081	0	550.420	0	30.9	4	9.9	4	-1E+10	1	-1E+10	1	-1E+10	1	-1E+10	1	-1E+10	1	-1E+10	1
4901784	74	C	07/14/2017	10:46	-132.943	43.650	0	560.20	0	4.4040	0	34.1700	4	27.088	0	554.971	0	30.0	4	9.6	4	-1E+10	1	-1E+10	1	-1E+10	1	-1E+10	1	-1E+10	1	-1E+10	1
4901784	74	C	07/14/2017	10:46	-132.943	43.650	0	565.00	0	4.3870	0	34.1730	4	27.092	0	559.720	0	28.9	4	9.2	4	-1E+10	1	-1E+10	1	-1E+10	1	-1E+10	1	-1E+10	1	-1E+10	1
4901784	74	C	07/14/2017	10:46	-132.943	43.650	0	570.60	0	4.3650	0	34.1810	4	27.101	0	565.260	0	27.5	4	8.8	4	-1E+10	1	-1E+10	1	-1E+10	1	-1E+10	1	-1E+10	1	-1E+10	1
4901784	74	C	07/14/2017	10:46	-132.943	43.650	0	575.20	0	4.3420	0	34.1880	4	27.109	0	569.810	0	26.6	4	8.5	4	-1E+10	1	-1E+10	1	-1E+10	1	-1E+10	1	-1E+10	1	-1E+10	1
4901784	74	C	07/14/2017	10:46	-132.943	43.650	0	579.90	0	4.3180	0	34.1920	4	27.115	0	574.460	0	26.0	4	8.3	4	-1E+10	1	-1E+10	1	-1E+10	1	-1E+10	1	-1E+10	1	-1E+10	1
4901784	74	C	07/14/2017	10:46	-132.943	43.650	0	585.50	0	4.3010	0	34.1960	4	27.120	0	579.999	0	25.1	4	8.0	4	-1E+10	1	-1E+10	1	-1E+10	1	-1E+10	1	-1E+10	1	-1E+10	1
4901784	74	C	07/14/2017	10:46	-132.943	43.650	0	590.90	0	4.2750	0	34.2040	4	27.129	0	585.341	0	24.2	4	7.7	4	-1E+10	1	-1E+10	1	-1E+10	1	-1E+10	1	-1E+10	1	-1E+10	1
4901784	74	C	07/14/2017	10:46	-132.943	43.650	0	595.30	0	4.2560	0	34.2080	4	27.134	0	589.693	0	23.8	4	7.6	4	-1E+10	1	-1E+10	1	-1E+10	1	-1E+10	1	-1E+10	1	-1E+10	1
4901784	74	C	07/14/2017	10:46	-132.943	43.650	0	600.10	0	4.2400	0	34.2120	4	27.139	0	594.441	0	23.2	4	7.4	4	-1E+10	1	-1E+10	1	-1E+10	1	-1E+10	1	-1E+10	1	-1E+10	1
4901784	74	C	07/14/2017	10:46	-132.943	43.650	0	605.10	0	4.2230	0	34.2170	4	27.145	0	599.387	0	22.6	4	7.2	4	-1E+10	1	-1E+10	1	-1E+10	1	-1E+10	1	-1E+10	1	-1E+10	1
4901784	74	C	07/14/2017	10:46	-132.943	43.650	0	609.90	0	4.2130	0	34.2200	4	27.148	0	604.135	0	22.0	4	7.0	4	-1E+10	1	-1E+10	1	-1E+10	1	-1E+10	1	-1E+10	1	-1E+10	1
4901784	74	C	07/14/2017	10:46	-132.943	43.650	0	614.80	0	4.2000	0	34.2240	4	27.153	0	608.981	0	21.3	4	6.8	4	-1E+10	1	-1E+10	1	-1E+10	1	-1E+10	1	-1E+10	1	-1E+10	1
4901784	74	C	07/14/2017	10:46	-132.943	43.650	0	619.70	0	4.1810	0	34.2300	4	27.160	0	613.828	0	20.5	4	6.5	4	-1E+10	1	-1E+10	1	-1E+10	1	-1E+10	1	-1E+10	1	-1E+10	1
4901784	74	C	07/14/2017	10:46	-132.943	43.650	0	624.60	0	4.1720	0	34.2370	4	27.166	0	618.674	0	19.9	4	6.3	4	-1E+10	1	-1E+10	1	-1E+10	1	-1E+10	1	-1E+10	1	-1E+10	1
4901784	74	C	07/14/2017	10:46	-132.943	43.650	0	629.60	0	4.1630	0	34.2400	4	27.170	0	623.619	0	19.3	4	6.1	4	-1E+10	1	-1E+10	1	-1E+10	1	-1E+10	1	-1E+10	1	-1E+10	1
4901784	74	C	07/14/2017	10:46	-132.943	43.650	0	634.70	0	4.1450	0	34.2450	4	27.175	0	628.663	0	18.9	4	6.0	4	-1E+10	1	-1E+10	1	-1E+10	1	-1E+10	1	-1E+10	1	-1E+10	1
4901784	74	C	07/14/2017	10:46	-132.943	43.650	0	639.80	0	4.1260	0	34.2500	4	27.181	0	633.707	0	18.4	4	5.8	4	-1E+10	1	-1E+10	1	-1E+10	1	-1E+10	1	-1E+10	1	-1E+10	1
4901784	74	C	07/14/2017	10:46	-132.943	43.650	0	645.00	0	4.1130	0	34.2550	4	27.187	0	638.849	0	17.9	4	5.7	4	-1E+10	1	-1E+10	1	-1E+10	1	-1E+10	1	-1E+10	1	-1E+10	1
4901784	74	C	07/14/2017	10:46	-132.943	43.650	0	650.30	0	4.1030	0	34.2600	4	27.192	0	644.090	0	17.5	4	5.5	4	-1E+10	1	-1E+10	1	-1E+10	1	-1E+10	1	-1E+10	1	-1E+10	1
4901784	74	C	07/14/2017	10:46	-132.943	43.650	0	655.60	0	4.0880	0	34.2650	4	27.197	0	649.332	0	17.1	4	5.4	4	-1E+10	1	-1E+10	1	-1E+10	1	-1E+10	1	-1E+10	1	-1E+10	1
4901784	74	C	07/14/2017	10:46	-132.943	43.650	0	660.10	0	4.0810	0	34.2670	4	27.200	0	653.781	0	16.8	4	5.3	4	-1E+10	1	-1E+10	1	-1E+10	1	-1E+10	1	-1E+10	1	-1E+10	1
4901784	74	C	07/14/2017	10:46	-132.943	43.650	0	664.60	0	4.0700	0	34.2710	4	27.204	0	658.231	0	16.4	4	5.2	4	-1E+10	1	-1E+10	1	-1E+10	1	-1E+10	1	-1E+10	1	-1E+10	1
4901784	74	C	07/14/2017	10:46	-132.943	43.650	0	669.80	0	4.0600	0	34.2760	4	27.209	0	663.373	0	15.9	4	5.0	4	-1E+10	1	-1E+10	1	-1E+10	1	-1E+10	1	-1E+10	1	-1E+10	1
4901784	74	C	07/14/2017	10:46	-132.943	43.650	0	674.50	0	4.0540	0	34.2810	4	27.214	0	668.021	0	15.5	4	4.9	4	-1E+10	1	-1E+10	1	-1E+10	1	-1E+10	1	-1E+10	1	-1E+10	1
4901784	74	C	07/14/2017	10:46	-132.943	43.650	0	680.00	0	4.0430	0	34.2860	4	27.219	0	673.459	0	15.3	4	4.8	4	-1E+10	1	-1E+10	1	-1E+10	1	-1E+10	1	-1E+10	1	-1E+10	1
4901784	74	C	07/14/2017	10:46	-132.943	43.650	0	685.70	0	4.0290	0	34.2900	4	27.224	0	679.095	0	15.1	4	4.8	4	-1E+10	1	-1E+10	1	-1E+10	1	-1E+10	1	-1E+10	1	-1E+10	1
4901784	74	C	07/14/2017	10:46	-132.943	43.650	0	690.60	0	4.0190	0	34.2920	4	27.226	0	683.939	0	15.0	4	4.7	4	-1E+10	1	-1E+10	1	-1E+10	1	-1E+10	1	-1E+10	1	-1E+10	1
4901784	74	C	07/14/2017	10:46	-132.943	43.650	0	695.50	0	4.0110	0	34.2930	4	27.228	0	688.784	0	14.9	4	4.7	4	-1E+10	1	-1E+10	1	-1E+10	1	-1E+10	1	-1E+10	1	-1E+10	1
4901784	74	C	07/14/2017	10:46	-132.943	43.650	0	700.60	0	4.0080	0	34.2940	4	27.229	0	693.826	0	14.7	4	4.6	4	-1E+10	1	-1E+10	1	-1E+10	1	-1E+10	1	-1E+10	1	-1E+10	1
4901784	74	C	07/14/2017	10:46	-132.943	43.650	0	705.70	0	4.0020	0	34.2970	4	27.232	0	698.869	0	14.4	4	4.6	4	-1E+10	1	-1E+10	1	-1E+10	1	-1E+10	1	-1E+10	1	-1E+10	1
4901784	74	C	07/14/2017	10:46	-132.943	43.650	0	710.80	0	3.9890	0	34.3020	4	27.237	0	703.911	0	14.2	4	4.5	4	-1E+10	1	-1E+10	1	-1E+10	1	-1E+10	1	-1E+10	1	-1E+10	1
4901784	74	C	07/14/2017	10:46	-132.943	43.650	0	715.10	0	3.9830	0	34.3050	4	27.240	0	708.162	0	14.0	4	4.4	4	-1E+10	1	-1E+10	1	-1E+10	1	-1E+10	1	-1E+10	1	-1E+10	1
4901784	74	C	07/14/2017	10:46	-132.943	43.650	0	719.50	0	3.9760	0	34.3080	4	27.244	0	712.511	0	13.7	4	4.3	4	-1E+10	1	-1E+10	1	-1E+10	1	-1E+10	1	-1E+10	1	-1E+10	1
4901784	74	C	07/14/2017	10:46	-132.943	43.650	0	724.90	0	3.9580	0	34.3140	4	27.250	0	717.850	0	13.5	4	4.3	4	-1E+10	1	-1E+10	1	-1E+10	1	-1E+10	1	-1E+10	1	-1E+10	1
4901784	74	C	07/14/2017	10:46	-132.943	43.650	0	730.20	0	3.9480	0	34.3180	4	27.255	0	723.089	0	13.3	4	4.2	4	-1E+10	1	-1E+10	1	-1E+10	1	-1E+10	1	-1E+10	1	-1E+10	1
4901784	74	C	07/14/2017	10:46	-132.943	43.650	0	734.80	0	3.9400	0	34.3210	4	27.258	0	727.636	0	13.2	4	4.2	4	-1E+10	1	-1E+10	1	-1E+10	1	-1E+10	1	-1E+10	1	-1E+10	1
4901784	74	C	07/14/2017	10:46	-132.943	43.650	0	739.40	0	3.9350	0	34.3220	4	27.259	0	732.183	0	13.1	4	4.1	4	-1E+10	1	-1E+10	1	-1E+10	1	-1E+10	1	-1E+10	1	-1E+10	1
4901784	74	C	07/14/2017	10:46	-132.943	43.650	0	744.90	0	3.9240	0	34.3250	4	27.263	0	737.620	0	12.9	4	4.1	4	-1E+10	1	-1E+10	1	-1E+10	1	-1E+10	1	-1E+10	1	-1E+10	1
4901784	74	C	07/14/2017	10:46	-132.943	43.650	0	750.40	0	3.9110	0	34.3300	4	27.268	0	743.056	0	12.8	4	4.0	4	-1E+10	1	-1E+10	1	-1E+10	1	-1E+10	1	-1E+10	1	-1E+10	1
4901784	74	C	07/14/2017	10:46	-132.943	43.650	0	755.00	0	3.9050	0	34.3320	4	27.270	0	747.603	0	12.7	4	4.0	4	-1E+10	1	-1E+10	1	-1E+10	1	-1E+10	1	-1E+10	1	-1E+10	1
4901784	74	C	07/14/2017	10:46	-132.943	43.650	0	759.70	0	3.8980	0	34.3330	4	27.272	0	752.249	0	12.5	4	3.9	4	-1E+10	1	-1E+10	1	-1E+10	1	-1E+10	1	-1E+10	1	-1E+10	1
4901784	74	C	07/14/2017	10:46	-132.943	43.650	0	765.40	0	3.8680	0	34.3420	4	27.282	0	757.882	0	12.3	4	3.9	4	-1E+10	1	-1E+10	1	-1E+10	1	-1E+10	1	-1E+10	1	-1E+10	1
4901784	74	C	07/14/2017	10:46	-132.943	43.650	0	770.10	0	3.8500	0	34.3470	4	27.288	0	762.527	0	12.2	4	3.8	4	-1E+10	1	-1E+10	1	-1E+10	1	-1E+10	1	-1E+10	1	-1E+10	1
4901784	74	C	07/14/2017	10:46	-132.943	43.650	0	774.80	0	3.8380	0	34.3490	4	27.291	0	767.173	0	12.1	4	3.8	4	-1E+10	1	-1E+10	1	-1E+10	1	-1E+10	1	-1E+10	1	-1E+10	1
4901784	74	C	07/14/2017	10:46	-132.943	43.650	0	780.40	0	3.8330	0	34.3500	4	27.292	0	772.707	0	12.1	4	3.8	4	-1E+10	1	-1E+10	1	-1E+10	1	-1E+10	1	-1E+10	1	-1E+10	1
4901784	74	C	07/14/2017	10:46	-132.943	43.650	0	785.00	0	3.8240	0	34.3530	4	27.295	0	777.253	0	12.0	4	3.8	4	-1E+10	1	-1E+10	1	-1E+10	1	-1E+10	1	-1E+10	1	-1E+10	1
4901784	74	C	07/14/2017	10:46	-132.943	43.650	0	789.80	0	3.8090	0	34.3560	4	27.299	0	781.997	0	11.9	4	3.8	4	-1E+10	1	-1E+10	1	-1E+10	1	-1E+10	1	-1E+10	1	-1E+10	1
4901784	74	C	07/14/2017	10:46	-132.943	43.650	0	795.60	0	3.7990	0	34.3590	4	27.303	0	787.729	0	11.9	4	3.7	4	-1E+10	1	-1E+10	1	-1E+10	1	-1E+10	1	-1E+10	1	-1E+10	1
4901784	74	C	07/14/2017	10:46	-132.943	43.650	0	801.00	0	3.7860	0	34.3630	4	27.307	0	793.065	0	11.8	4	3.7	4	-1E+10	1	-1E+10	1	-1E+10	1	-1E+10	1	-1E+10	1	-1E+10	1
4901784	74	C	07/14/2017	10:46	-132.943	43.650	0	805.20	0	3.7740	0	34.3660	4	27.311	0	797.215	0	11.7	4	3.7	4	-1E+10	1	-1E+10	1	-1E+10	1	-1E+10	1	-1E+10	1	-1E+10	1
4901784	74	C	07/14/2017	10:46	-132.943	43.650	0	810.00	0	3.7620	0	34.3690	4	27.314	0	801.959	0	11.7	4	3.7	4	-1E+10	1	-1E+10	1	-1E+10	1	-1E+10	1	-1E+10	1	-1E+10	1
4901784	74	C	07/14/2017	10:46	-132.943	43.650	0	814.90	0	3.7540	0	34.3710	4	27.317	0	806.801	0	11.6	4	3.7	4	-1E+10	1	-1E+10	1	-1E+10	1	-1E+10	1	-1E+10	1	-1E+10	1
4901784	74	C	07/14/2017	10:46	-132.943	43.650	0	819.80	0	3.7480	0	34.3720	4	27.318	0	811.642	0	11.6	4	3.6	4	-1E+10	1	-1E+10	1	-1E+10	1	-1E+10	1	-1E+10	1	-1E+10	1
4901784	74	C	07/14/2017	10:46	-132.943	43.650	0	824.80	0	3.7450	0	34.3730	4	27.319	0	816.583	0	11.6	4	3.6	4	-1E+10	1	-1E+10	1	-1E+10	1	-1E+10	1	-1E+10	1	-1E+10	1
4901784	74	C	07/14/2017	10:46	-132.943	43.650	0	829.70	0	3.7360	0	34.3750	4	27.322	0	821.424	0	11.5	4	3.6	4	-1E+10	1	-1E+10	1	-1E+10	1	-1E+10	1	-1E+10	1	-1E+10	1
4901784	74	C	07/14/2017	10:46	-132.943	43.650	0	834.70	0	3.7160	0	34.3800	4	27.328	0	826.365	0	11.5	4	3.6	4	-1E+10	1	-1E+10	1	-1E+10	1	-1E+10	1	-1E+10	1	-1E+10	1
4901784	74	C	07/14/2017	10:46	-132.943	43.650	0	839.80	0	3.7020	0	34.3840	4	27.332	0	831.403	0	11.4	4	3.6	4	-1E+10	1	-1E+10	1	-1E+10	1	-1E+10	1	-1E+10	1	-1E+10	1
4901784	74	C	07/14/2017	10:46	-132.943	43.650	0	844.80	0	3.6980	0	34.3840	4	27.333	0	836.343	0	11.4	4	3.6	4	-1E+10	1	-1E+10	1	-1E+10	1	-1E+10	1	-1E+10	1	-1E+10	1
4901784	74	C	07/14/2017	10:46	-132.943	43.650	0	849.70	0	3.6810	0	34.3890	4	27.339	0	841.185	0	11.4	4	3.6	4	-1E+10	1	-1E+10	1	-1E+10	1	-1E+10	1	-1E+10	1	-1E+10	1
4901784	74	C	07/14/2017	10:46	-132.943	43.650	0	854.70	0	3.6700	0	34.3920	4	27.342	0	846.124	0	11.3	4	3.6	4	-1E+10	1	-1E+10	1	-1E+10	1	-1E+10	1	-1E+10	1	-1E+10	1
4901784	74	C	07/14/2017	10:46	-132.943	43.650	0	859.80	0	3.6660	0	34.3920	4	27.343	0	851.163	0	11.3	4	3.5	4	-1E+10	1	-1E+10	1	-1E+10	1	-1E+10	1	-1E+10	1	-1E+10	1
4901784	74	C	07/14/2017	10:46	-132.943	43.650	0	864.90	0	3.6530	0	34.3950	4	27.346	0	856.201	0	11.3	4	3.5	4	-1E+10	1	-1E+10	1	-1E+10	1	-1E+10	1	-1E+10	1	-1E+10	1
4901784	74	C	07/14/2017	10:46	-132.943	43.650	0	869.90	0	3.6310	0	34.4000	4	27.352	0	861.141	0	11.3	4	3.5	4	-1E+10	1	-1E+10	1	-1E+10	1	-1E+10	1	-1E+10	1	-1E+10	1
4901784	74	C	07/14/2017	10:46	-132.943	43.650	0	875.00	0	3.6090	0	34.4060	4	27.359	0	866.179	0	11.3	4	3.5	4	-1E+10	1	-1E+10	1	-1E+10	1	-1E+10	1	-1E+10	1	-1E+10	1
4901784	74	C	07/14/2017	10:46	-132.943	43.650	0	880.20	0	3.5930	0	34.4110	4	27.365	0	871.315	0	11.3	4	3.5	4	-1E+10	1	-1E+10	1	-1E+10	1	-1E+10	1	-1E+10	1	-1E+10	1
4901784	74	C	07/14/2017	10:46	-132.943	43.650	0	885.30	0	3.5860	0	34.4120	4	27.366	0	876.353	0	11.3	4	3.5	4	-1E+10	1	-1E+10	1	-1E+10	1	-1E+10	1	-1E+10	1	-1E+10	1
4901784	74	C	07/14/2017	10:46	-132.943	43.650	0	890.40	0	3.5790	0	34.4140	4	27.369	0	881.391	0	11.3	4	3.5	4	-1E+10	1	-1E+10	1	-1E+10	1	-1E+10	1	-1E+10	1	-1E+10	1
4901784	74	C	07/14/2017	10:46	-132.943	43.650	0	895.60	0	3.5700	0	34.4160	4	27.371	0	886.527	0	11.3	4	3.5	4	-1E+10	1	-1E+10	1	-1E+10	1	-1E+10	1	-1E+10	1	-1E+10	1
4901784	74	C	07/14/2017	10:46	-132.943	43.650	0	900.70	0	3.5590	0	34.4190	4	27.375	0	891.565	0	11.3	4	3.5	4	-1E+10	1	-1E+10	1	-1E+10	1	-1E+10	1	-1E+10	1	-1E+10	1
4901784	74	C	07/14/2017	10:46	-132.943	43.650	0	904.90	0	3.5550	0	34.4200	4	27.376	0	895.713	0	11.3	4	3.5	4	-1E+10	1	-1E+10	1	-1E+10	1	-1E+10	1	-1E+10	1	-1E+10	1
4901784	74	C	07/14/2017	10:46	-132.943	43.650	0	909.20	0	3.5460	0	34.4230	4	27.379	0	899.960	0	11.3	4	3.5	4	-1E+10	1	-1E+10	1	-1E+10	1	-1E+10	1	-1E+10	1	-1E+10	1
4901784	74	C	07/14/2017	10:46	-132.943	43.650	0	914.40	0	3.5410	0	34.4230	4	27.380	0	905.096	0	11.3	4	3.5	4	-1E+10	1	-1E+10	1	-1E+10	1	-1E+10	1	-1E+10	1	-1E+10	1
4901784	74	C	07/14/2017	10:46	-132.943	43.650	0	919.50	0	3.5300	0	34.4240	4	27.382	0	910.133	0	11.2	4	3.5	4	-1E+10	1	-1E+10	1	-1E+10	1	-1E+10	1	-1E+10	1	-1E+10	1
4901784	74	C	07/14/2017	10:46	-132.943	43.650	0	924.80	0	3.5140	0	34.4270	4	27.386	0	915.368	0	11.3	4	3.5	4	-1E+10	1	-1E+10	1	-1E+10	1	-1E+10	1	-1E+10	1	-1E+10	1
4901784	74	C	07/14/2017	10:46	-132.943	43.650	0	930.00	0	3.5060	0	34.4290	4	27.388	0	920.503	0	11.3	4	3.5	4	-1E+10	1	-1E+10	1	-1E+10	1	-1E+10	1	-1E+10	1	-1E+10	1
4901784	74	C	07/14/2017	10:46	-132.943	43.650	0	935.20	0	3.4970	0	34.4310	4	27.391	0	925.639	0	11.3	4	3.5	4	-1E+10	1	-1E+10	1	-1E+10	1	-1E+10	1	-1E+10	1	-1E+10	1
4901784	74	C	07/14/2017	10:46	-132.943	43.650	0	940.40	0	3.4850	0	34.4340	4	27.394	0	930.774	0	11.4	4	3.6	4	-1E+10	1	-1E+10	1	-1E+10	1	-1E+10	1	-1E+10	1	-1E+10	1
4901784	74	C	07/14/2017	10:46	-132.943	43.650	0	945.60	0	3.4800	0	34.4370	4	27.397	0	935.909	0	11.5	4	3.6	4	-1E+10	1	-1E+10	1	-1E+10	1	-1E+10	1	-1E+10	1	-1E+10	1
4901784	74	C	07/14/2017	10:46	-132.943	43.650	0	949.90	0	3.4730	0	34.4400	4	27.400	0	940.155	0	11.5	4	3.6	4	-1E+10	1	-1E+10	1	-1E+10	1	-1E+10	1	-1E+10	1	-1E+10	1
4901784	74	C	07/14/2017	10:46	-132.943	43.650	0	954.20	0	3.4580	0	34.4410	4	27.402	0	944.402	0	11.5	4	3.6	4	-1E+10	1	-1E+10	1	-1E+10	1	-1E+10	1	-1E+10	1	-1E+10	1
4901784	74	C	07/14/2017	10:46	-132.943	43.650	0	959.40	0	3.4550	0	34.4420	4	27.404	0	949.536	0	11.6	4	3.6	4	-1E+10	1	-1E+10	1	-1E+10	1	-1E+10	1	-1E+10	1	-1E+10	1
4901784	74	C	07/14/2017	10:46	-132.943	43.650	0	964.60	0	3.4480	0	34.4470	4	27.408	0	954.671	0	11.7	4	3.7	4	-1E+10	1	-1E+10	1	-1E+10	1	-1E+10	1	-1E+10	1	-1E+10	1
4901784	74	C	07/14/2017	10:46	-132.943	43.650	0	969.90	0	3.4420	0	34.4500	4	27.411	0	959.904	0	11.8	4	3.7	4	-1E+10	1	-1E+10	1	-1E+10	1	-1E+10	1	-1E+10	1	-1E+10	1
4901784	74	C	07/14/2017	10:46	-132.943	43.650	0	975.20	0	3.4380	0	34.4500	4	27.412	0	965.138	0	11.8	4	3.7	4	-1E+10	1	-1E+10	1	-1E+10	1	-1E+10	1	-1E+10	1	-1E+10	1
4901784	74	C	07/14/2017	10:46	-132.943	43.650	0	980.50	0	3.4120	0	34.4560	4	27.419	0	970.371	0	12.0	4	3.7	4	-1E+10	1	-1E+10	1	-1E+10	1	-1E+10	1	-1E+10	1	-1E+10	1
4901784	74	C	07/14/2017	10:46	-132.943	43.650	0	984.90	0	3.3970	0	34.4600	4	27.424	0	974.715	0	12.1	4	3.8	4	-1E+10	1	-1E+10	1	-1E+10	1	-1E+10	1	-1E+10	1	-1E+10	1
4901784	74	C	07/14/2017	10:46	-132.943	43.650	0	989.20	0	3.3830	0	34.4630	4	27.427	0	978.960	0	12.1	4	3.8	4	-1E+10	1	-1E+10	1	-1E+10	1	-1E+10	1	-1E+10	1	-1E+10	1
4901784	74	C	07/14/2017	10:46	-132.943	43.650	0	994.50	0	3.3780	0	34.4650	4	27.429	0	984.193	0	12.2	4	3.8	4	-1E+10	1	-1E+10	1	-1E+10	1	-1E+10	1	-1E+10	1	-1E+10	1
4901784	74	C	07/14/2017	10:46	-132.943	43.650	0	999.70	0	3.3770	0	34.4650	4	27.430	0	989.327	0	12.3	4	3.8	4	-1E+10	1	-1E+10	1	-1E+10	1	-1E+10	1	-1E+10	1	-1E+10	1
4901784	74	C	07/14/2017	10:46	-132.943	43.650	0	1004.90	0	3.3710	0	34.4660	4	27.431	0	994.461	0	12.5	4	3.9	4	-1E+10	1	-1E+10	1	-1E+10	1	-1E+10	1	-1E+10	1	-1E+10	1
4901784	74	C	07/14/2017	10:46	-132.943	43.650	0	1010.30	0	3.3670	0	34.4700	4	27.435	0	999.792	0	12.8	4	4.0	4	-1E+10	1	-1E+10	1	-1E+10	1	-1E+10	1	-1E+10	1	-1E+10	1
4901784	74	C	07/14/2017	10:46	-132.943	43.650	0	1014.90	0	3.3610	0	34.4740	4	27.438	0	1004.333	0	12.9	4	4.0	4	-1E+10	1	-1E+10	1	-1E+10	1	-1E+10	1	-1E+10	1	-1E+10	1
4901784	74	C	07/14/2017	10:46	-132.943	43.650	0	1019.40	0	3.3590	0	34.4750	4	27.439	0	1008.775	0	13.0	4	4.0	4	-1E+10	1	-1E+10	1	-1E+10	1	-1E+10	1	-1E+10	1	-1E+10	1
4901784	74	C	07/14/2017	10:46	-132.943	43.650	0	1024.90	0	3.3570	0	34.4760	4	27.440	0	1014.205	0	13.2	4	4.1	4	-1E+10	1	-1E+10	1	-1E+10	1	-1E+10	1	-1E+10	1	-1E+10	1
4901784	74	C	07/14/2017	10:46	-132.943	43.650	0	1030.30	0	3.3390	0	34.4830	4	27.448	0	1019.535	0	13.5	4	4.2	4	-1E+10	1	-1E+10	1	-1E+10	1	-1E+10	1	-1E+10	1	-1E+10	1
4901784	74	C	07/14/2017	10:46	-132.943	43.650	0	1034.90	0	3.3330	0	34.4830	4	27.448	0	1024.076	0	13.6	4	4.2	4	-1E+10	1	-1E+10	1	-1E+10	1	-1E+10	1	-1E+10	1	-1E+10	1
4901784	74	C	07/14/2017	10:46	-132.943	43.650	0	1039.40	0	3.3290	0	34.4830	4	27.449	0	1028.518	0	13.6	4	4.2	4	-1E+10	1	-1E+10	1	-1E+10	1	-1E+10	1	-1E+10	1	-1E+10	1
4901784	74	C	07/14/2017	10:46	-132.943	43.650	0	1044.90	0	3.3170	0	34.4860	4	27.452	0	1033.947	0	13.8	4	4.3	4	-1E+10	1	-1E+10	1	-1E+10	1	-1E+10	1	-1E+10	1	-1E+10	1
4901784	74	C	07/14/2017	10:46	-132.943	43.650	0	1050.40	0	3.3080	0	34.4890	4	27.456	0	1039.375	0	13.9	4	4.3	4	-1E+10	1	-1E+10	1	-1E+10	1	-1E+10	1	-1E+10	1	-1E+10	1
4901784	74	C	07/14/2017	10:46	-132.943	43.650	0	1055.00	0	3.3010	0	34.4910	4	27.458	0	1043.916	0	14.0	4	4.3	4	-1E+10	1	-1E+10	1	-1E+10	1	-1E+10	1	-1E+10	1	-1E+10	1
4901784	74	C	07/14/2017	10:46	-132.943	43.650	0	1060.20	0	3.2940	0	34.4920	4	27.459	0	1049.048	0	14.1	4	4.4	4	-1E+10	1	-1E+10	1	-1E+10	1	-1E+10	1	-1E+10	1	-1E+10	1
4901784	74	C	07/14/2017	10:46	-132.943	43.650	0	1065.20	0	3.2850	0	34.4940	4	27.462	0	1053.983	0	14.2	4	4.4	4	-1E+10	1	-1E+10	1	-1E+10	1	-1E+10	1	-1E+10	1	-1E+10	1
4901784	74	C	07/14/2017	10:46	-132.943	43.650	0	1070.00	0	3.2760	0	34.4960	4	27.464	0	1058.720	0	14.3	4	4.5	4	-1E+10	1	-1E+10	1	-1E+10	1	-1E+10	1	-1E+10	1	-1E+10	1
4901784	74	C	07/14/2017	10:46	-132.943	43.650	0	1074.80	0	3.2700	0	34.4970	4	27.466	0	1063.457	0	14.4	4	4.5	4	-1E+10	1	-1E+10	1	-1E+10	1	-1E+10	1	-1E+10	1	-1E+10	1
4901784	74	C	07/14/2017	10:46	-132.943	43.650	0	1079.70	0	3.2620	0	34.4970	4	27.466	0	1068.293	0	14.4	4	4.5	4	-1E+10	1	-1E+10	1	-1E+10	1	-1E+10	1	-1E+10	1	-1E+10	1
4901784	74	C	07/14/2017	10:46	-132.943	43.650	0	1084.70	0	3.2500	0	34.4980	4	27.468	0	1073.227	0	14.5	4	4.5	4	-1E+10	1	-1E+10	1	-1E+10	1	-1E+10	1	-1E+10	1	-1E+10	1
4901784	74	C	07/14/2017	10:46	-132.943	43.650	0	1089.60	0	3.2460	0	34.4990	4	27.470	0	1078.063	0	14.6	4	4.5	4	-1E+10	1	-1E+10	1	-1E+10	1	-1E+10	1	-1E+10	1	-1E+10	1
4901784	74	C	07/14/2017	10:46	-132.943	43.650	0	1094.60	0	3.2380	0	34.5010	4	27.472	0	1082.997	0	14.7	4	4.6	4	-1E+10	1	-1E+10	1	-1E+10	1	-1E+10	1	-1E+10	1	-1E+10	1
4901784	74	C	07/14/2017	10:46	-132.943	43.650	0	1099.80	0	3.2330	0	34.5030	4	27.474	0	1088.129	0	14.8	4	4.6	4	-1E+10	1	-1E+10	1	-1E+10	1	-1E+10	1	-1E+10	1	-1E+10	1
4901784	74	C	07/14/2017	10:46	-132.943	43.650	0	1105.10	0	3.2170	0	34.5040	4	27.476	0	1093.359	0	14.9	4	4.6	4	-1E+10	1	-1E+10	1	-1E+10	1	-1E+10	1	-1E+10	1	-1E+10	1
4901784	74	C	07/14/2017	10:46	-132.943	43.650	0	1110.60	0	3.1970	0	34.5070	4	27.481	0	1098.786	0	15.0	4	4.6	4	-1E+10	1	-1E+10	1	-1E+10	1	-1E+10	1	-1E+10	1	-1E+10	1
4901784	74	C	07/14/2017	10:46	-132.943	43.650	0	1115.20	0	3.1900	0	34.5070	4	27.481	0	1103.325	0	15.0	4	4.6	4	-1E+10	1	-1E+10	1	-1E+10	1	-1E+10	1	-1E+10	1	-1E+10	1
4901784	74	C	07/14/2017	10:46	-132.943	43.650	0	1119.90	0	3.1790	0	34.5090	4	27.484	0	1107.962	0	15.0	4	4.6	4	-1E+10	1	-1E+10	1	-1E+10	1	-1E+10	1	-1E+10	1	-1E+10	1
4901784	74	C	07/14/2017	10:46	-132.943	43.650	0	1125.50	0	3.1530	0	34.5090	4	27.486	0	1113.488	0	15.0	4	4.6	4	-1E+10	1	-1E+10	1	-1E+10	1	-1E+10	1	-1E+10	1	-1E+10	1
4901784	74	C	07/14/2017	10:46	-132.943	43.650	0	1130.20	0	3.1380	0	34.5100	4	27.489	0	1118.125	0	15.0	4	4.7	4	-1E+10	1	-1E+10	1	-1E+10	1	-1E+10	1	-1E+10	1	-1E+10	1
4901784	74	C	07/14/2017	10:46	-132.943	43.650	0	1135.00	0	3.1290	0	34.5110	4	27.490	0	1122.861	0	15.2	4	4.7	4	-1E+10	1	-1E+10	1	-1E+10	1	-1E+10	1	-1E+10	1	-1E+10	1
4901784	74	C	07/14/2017	10:46	-132.943	43.650	0	1139.90	0	3.1180	0	34.5140	4	27.494	0	1127.696	0	15.3	4	4.8	4	-1E+10	1	-1E+10	1	-1E+10	1	-1E+10	1	-1E+10	1	-1E+10	1
4901784	74	C	07/14/2017	10:46	-132.943	43.650	0	1144.80	0	3.1070	0	34.5160	4	27.496	0	1132.530	0	15.5	4	4.8	4	-1E+10	1	-1E+10	1	-1E+10	1	-1E+10	1	-1E+10	1	-1E+10	1
4901784	74	C	07/14/2017	10:46	-132.943	43.650	0	1149.60	0	3.0790	0	34.5190	4	27.501	0	1137.265	0	15.7	4	4.8	4	-1E+10	1	-1E+10	1	-1E+10	1	-1E+10	1	-1E+10	1	-1E+10	1
4901784	74	C	07/14/2017	10:46	-132.943	43.650	0	1154.60	0	3.0630	0	34.5220	4	27.505	0	1142.198	0	15.8	4	4.9	4	-1E+10	1	-1E+10	1	-1E+10	1	-1E+10	1	-1E+10	1	-1E+10	1
4901784	74	C	07/14/2017	10:46	-132.943	43.650	0	1159.60	0	3.0610	0	34.5230	4	27.506	0	1147.131	0	16.0	4	4.9	4	-1E+10	1	-1E+10	1	-1E+10	1	-1E+10	1	-1E+10	1	-1E+10	1
4901784	74	C	07/14/2017	10:46	-132.943	43.650	0	1164.60	0	3.0570	0	34.5230	4	27.507	0	1152.063	0	16.1	4	5.0	4	-1E+10	1	-1E+10	1	-1E+10	1	-1E+10	1	-1E+10	1	-1E+10	1
4901784	74	C	07/14/2017	10:46	-132.943	43.650	0	1169.70	0	3.0500	0	34.5250	4	27.509	0	1157.094	0	16.3	4	5.0	4	-1E+10	1	-1E+10	1	-1E+10	1	-1E+10	1	-1E+10	1	-1E+10	1
4901784	74	C	07/14/2017	10:46	-132.943	43.650	0	1174.90	0	3.0400	0	34.5270	4	27.511	0	1162.224	0	16.5	4	5.1	4	-1E+10	1	-1E+10	1	-1E+10	1	-1E+10	1	-1E+10	1	-1E+10	1
4901784	74	C	07/14/2017	10:46	-132.943	43.650	0	1180.00	0	3.0300	0	34.5280	4	27.513	0	1167.255	0	16.6	4	5.1	4	-1E+10	1	-1E+10	1	-1E+10	1	-1E+10	1	-1E+10	1	-1E+10	1
4901784	74	C	07/14/2017	10:46	-132.943	43.650	0	1185.20	0	3.0280	0	34.5270	4	27.513	0	1172.384	0	16.7	4	5.2	4	-1E+10	1	-1E+10	1	-1E+10	1	-1E+10	1	-1E+10	1	-1E+10	1
4901784	74	C	07/14/2017	10:46	-132.943	43.650	0	1190.40	0	3.0160	0	34.5290	4	27.515	0	1177.513	0	16.8	4	5.2	4	-1E+10	1	-1E+10	1	-1E+10	1	-1E+10	1	-1E+10	1	-1E+10	1
4901784	74	C	07/14/2017	10:46	-132.943	43.650	0	1195.70	0	3.0030	0	34.5290	4	27.516	0	1182.741	0	16.8	4	5.2	4	-1E+10	1	-1E+10	1	-1E+10	1	-1E+10	1	-1E+10	1	-1E+10	1
4901784	74	C	07/14/2017	10:46	-132.943	43.650	0	1200.10	0	2.9940	0	34.5320	4	27.520	0	1187.081	0	16.9	4	5.2	4	-1E+10	1	-1E+10	1	-1E+10	1	-1E+10	1	-1E+10	1	-1E+10	1
4901784	74	C	07/14/2017	10:46	-132.943	43.650	0	1204.60	0	2.9840	0	34.5330	4	27.521	0	1191.519	0	17.1	4	5.3	4	-1E+10	1	-1E+10	1	-1E+10	1	-1E+10	1	-1E+10	1	-1E+10	1
4901784	74	C	07/14/2017	10:46	-132.943	43.650	0	1209.90	0	2.9690	0	34.5360	4	27.525	0	1196.747	0	17.4	4	5.4	4	-1E+10	1	-1E+10	1	-1E+10	1	-1E+10	1	-1E+10	1	-1E+10	1
4901784	74	C	07/14/2017	10:46	-132.943	43.650	0	1215.30	0	2.9570	0	34.5370	4	27.527	0	1202.073	0	17.7	4	5.5	4	-1E+10	1	-1E+10	1	-1E+10	1	-1E+10	1	-1E+10	1	-1E+10	1
4901784	74	C	07/14/2017	10:46	-132.943	43.650	0	1220.70	0	2.9470	0	34.5410	4	27.531	0	1207.398	0	18.1	4	5.6	4	-1E+10	1	-1E+10	1	-1E+10	1	-1E+10	1	-1E+10	1	-1E+10	1
4901784	74	C	07/14/2017	10:46	-132.943	43.650	0	1225.00	0	2.9410	0	34.5430	4	27.533	0	1211.639	0	18.2	4	5.6	4	-1E+10	1	-1E+10	1	-1E+10	1	-1E+10	1	-1E+10	1	-1E+10	1
4901784	74	C	07/14/2017	10:46	-132.943	43.650	0	1230.00	0	2.9270	0	34.5440	4	27.535	0	1216.570	0	18.3	4	5.7	4	-1E+10	1	-1E+10	1	-1E+10	1	-1E+10	1	-1E+10	1	-1E+10	1
4901784	74	C	07/14/2017	10:46	-132.943	43.650	0	1235.80	0	2.9200	0	34.5430	4	27.535	0	1222.290	0	18.4	4	5.7	4	-1E+10	1	-1E+10	1	-1E+10	1	-1E+10	1	-1E+10	1	-1E+10	1
4901784	74	C	07/14/2017	10:46	-132.943	43.650	0	1240.80	0	2.9140	0	34.5430	4	27.536	0	1227.221	0	18.4	4	5.7	4	-1E+10	1	-1E+10	1	-1E+10	1	-1E+10	1	-1E+10	1	-1E+10	1
4901784	74	C	07/14/2017	10:46	-132.943	43.650	0	1245.80	0	2.9070	0	34.5440	4	27.537	0	1232.152	0	18.4	4	5.7	4	-1E+10	1	-1E+10	1	-1E+10	1	-1E+10	1	-1E+10	1	-1E+10	1
4901784	74	C	07/14/2017	10:46	-132.943	43.650	0	1250.80	0	2.9000	0	34.5450	4	27.539	0	1237.082	0	18.7	4	5.8	4	-1E+10	1	-1E+10	1	-1E+10	1	-1E+10	1	-1E+10	1	-1E+10	1
4901784	74	C	07/14/2017	10:46	-132.943	43.650	0	1254.90	0	2.8980	0	34.5470	4	27.541	0	1241.125	0	19.2	4	5.9	4	-1E+10	1	-1E+10	1	-1E+10	1	-1E+10	1	-1E+10	1	-1E+10	1
4901784	74	C	07/14/2017	10:46	-132.943	43.650	0	1259.20	0	2.8910	0	34.5500	4	27.544	0	1245.365	0	19.6	4	6.0	4	-1E+10	1	-1E+10	1	-1E+10	1	-1E+10	1	-1E+10	1	-1E+10	1
4901784	74	C	07/14/2017	10:46	-132.943	43.650	0	1264.40	0	2.9060	0	34.5530	4	27.545	0	1250.493	0	20.1	4	6.2	4	-1E+10	1	-1E+10	1	-1E+10	1	-1E+10	1	-1E+10	1	-1E+10	1
4901784	74	C	07/14/2017	10:46	-132.943	43.650	0	1269.60	0	2.9050	0	34.5540	4	27.546	0	1255.620	0	20.2	4	6.2	4	-1E+10	1	-1E+10	1	-1E+10	1	-1E+10	1	-1E+10	1	-1E+10	1
4901784	74	C	07/14/2017	10:46	-132.943	43.650	0	1274.80	0	2.8970	0	34.5540	4	27.546	0	1260.747	0	20.2	4	6.2	4	-1E+10	1	-1E+10	1	-1E+10	1	-1E+10	1	-1E+10	1	-1E+10	1
4901784	74	C	07/14/2017	10:46	-132.943	43.650	0	1280.00	0	2.8700	0	34.5540	4	27.549	0	1265.874	0	20.1	4	6.2	4	-1E+10	1	-1E+10	1	-1E+10	1	-1E+10	1	-1E+10	1	-1E+10	1
4901784	74	C	07/14/2017	10:46	-132.943	43.650	0	1285.20	0	2.8640	0	34.5540	4	27.549	0	1271.001	0	20.2	4	6.2	4	-1E+10	1	-1E+10	1	-1E+10	1	-1E+10	1	-1E+10	1	-1E+10	1
4901784	74	C	07/14/2017	10:46	-132.943	43.650	0	1290.50	0	2.8590	0	34.5550	4	27.551	0	1276.226	0	20.4	4	6.3	4	-1E+10	1	-1E+10	1	-1E+10	1	-1E+10	1	-1E+10	1	-1E+10	1
4901784	74	C	07/14/2017	10:46	-132.943	43.650	0	1295.00	0	2.8540	0	34.5560	4	27.552	0	1280.663	0	20.6	4	6.4	4	-1E+10	1	-1E+10	1	-1E+10	1	-1E+10	1	-1E+10	1	-1E+10	1
4901784	74	C	07/14/2017	10:46	-132.943	43.650	0	1299.60	0	2.8490	0	34.5560	4	27.552	0	1285.198	0	20.9	4	6.4	4	-1E+10	1	-1E+10	1	-1E+10	1	-1E+10	1	-1E+10	1	-1E+10	1
4901784	74	C	07/14/2017	10:46	-132.943	43.650	0	1305.00	0	2.8300	0	34.5600	4	27.557	0	1290.522	0	21.2	4	6.5	4	-1E+10	1	-1E+10	1	-1E+10	1	-1E+10	1	-1E+10	1	-1E+10	1
4901784	74	C	07/14/2017	10:46	-132.943	43.650	0	1310.40	0	2.8220	0	34.5610	4	27.559	0	1295.845	0	21.4	4	6.6	4	-1E+10	1	-1E+10	1	-1E+10	1	-1E+10	1	-1E+10	1	-1E+10	1
4901784	74	C	07/14/2017	10:46	-132.943	43.650	0	1315.00	0	2.8180	0	34.5620	4	27.560	0	1300.380	0	21.5	4	6.6	4	-1E+10	1	-1E+10	1	-1E+10	1	-1E+10	1	-1E+10	1	-1E+10	1
4901784	74	C	07/14/2017	10:46	-132.943	43.650	0	1319.50	0	2.8170	0	34.5630	4	27.561	0	1304.816	0	21.6	4	6.6	4	-1E+10	1	-1E+10	1	-1E+10	1	-1E+10	1	-1E+10	1	-1E+10	1
4901784	74	C	07/14/2017	10:46	-132.943	43.650	0	1324.90	0	2.8160	0	34.5630	4	27.561	0	1310.139	0	21.7	4	6.7	4	-1E+10	1	-1E+10	1	-1E+10	1	-1E+10	1	-1E+10	1	-1E+10	1
4901784	74	C	07/14/2017	10:46	-132.943	43.650	0	1330.50	0	2.8120	0	34.5630	4	27.561	0	1315.659	0	22.0	4	6.8	4	-1E+10	1	-1E+10	1	-1E+10	1	-1E+10	1	-1E+10	1	-1E+10	1
4901784	74	C	07/14/2017	10:46	-132.943	43.650	0	1335.10	0	2.8050	0	34.5650	4	27.564	0	1320.193	0	22.3	4	6.9	4	-1E+10	1	-1E+10	1	-1E+10	1	-1E+10	1	-1E+10	1	-1E+10	1
4901784	74	C	07/14/2017	10:46	-132.943	43.650	0	1339.60	0	2.8000	0	34.5660	4	27.565	0	1324.629	0	22.6	4	7.0	4	-1E+10	1	-1E+10	1	-1E+10	1	-1E+10	1	-1E+10	1	-1E+10	1
4901784	74	C	07/14/2017	10:46	-132.943	43.650	0	1345.20	0	2.7940	0	34.5680	4	27.567	0	1330.149	0	23.0	4	7.1	4	-1E+10	1	-1E+10	1	-1E+10	1	-1E+10	1	-1E+10	1	-1E+10	1
4901784	74	C	07/14/2017	10:46	-132.943	43.650	0	1349.80	0	2.7810	0	34.5700	4	27.570	0	1334.683	0	23.4	4	7.2	4	-1E+10	1	-1E+10	1	-1E+10	1	-1E+10	1	-1E+10	1	-1E+10	1
4901784	74	C	07/14/2017	10:46	-132.943	43.650	0	1354.70	0	2.7770	0	34.5720	4	27.572	0	1339.512	0	23.7	4	7.3	4	-1E+10	1	-1E+10	1	-1E+10	1	-1E+10	1	-1E+10	1	-1E+10	1
4901784	74	C	07/14/2017	10:46	-132.943	43.650	0	1359.90	0	2.7690	0	34.5730	4	27.573	0	1344.637	0	23.8	4	7.3	4	-1E+10	1	-1E+10	1	-1E+10	1	-1E+10	1	-1E+10	1	-1E+10	1
4901784	74	C	07/14/2017	10:46	-132.943	43.650	0	1364.70	0	2.7650	0	34.5730	4	27.574	0	1349.368	0	24.1	4	7.4	4	-1E+10	1	-1E+10	1	-1E+10	1	-1E+10	1	-1E+10	1	-1E+10	1
4901784	74	C	07/14/2017	10:46	-132.943	43.650	0	1369.60	0	2.7610	0	34.5750	4	27.576	0	1354.197	0	24.4	4	7.5	4	-1E+10	1	-1E+10	1	-1E+10	1	-1E+10	1	-1E+10	1	-1E+10	1
4901784	74	C	07/14/2017	10:46	-132.943	43.650	0	1374.40	0	2.7570	0	34.5760	4	27.577	0	1358.928	0	24.4	4	7.5	4	-1E+10	1	-1E+10	1	-1E+10	1	-1E+10	1	-1E+10	1	-1E+10	1
4901784	74	C	07/14/2017	10:46	-132.943	43.650	0	1379.20	0	2.7480	0	34.5750	4	27.577	0	1363.658	0	24.3	4	7.5	4	-1E+10	1	-1E+10	1	-1E+10	1	-1E+10	1	-1E+10	1	-1E+10	1
4901784	74	C	07/14/2017	10:46	-132.943	43.650	0	1384.90	0	2.7250	0	34.5760	4	27.580	0	1369.276	0	24.4	4	7.5	4	-1E+10	1	-1E+10	1	-1E+10	1	-1E+10	1	-1E+10	1	-1E+10	1
4901784	74	C	07/14/2017	10:46	-132.943	43.650	0	1390.70	0	2.7160	0	34.5760	4	27.581	0	1374.991	0	24.6	4	7.5	4	-1E+10	1	-1E+10	1	-1E+10	1	-1E+10	1	-1E+10	1	-1E+10	1
4901784	74	C	07/14/2017	10:46	-132.943	43.650	0	1395.60	0	2.7060	0	34.5770	4	27.582	0	1379.820	0	24.7	4	7.6	4	-1E+10	1	-1E+10	1	-1E+10	1	-1E+10	1	-1E+10	1	-1E+10	1
4901784	74	C	07/14/2017	10:46	-132.943	43.650	0	1400.60	0	2.6880	0	34.5780	4	27.585	0	1384.747	0	24.9	4	7.6	4	-1E+10	1	-1E+10	1	-1E+10	1	-1E+10	1	-1E+10	1	-1E+10	1
4901784	74	C	07/14/2017	10:46	-132.943	43.650	0	1405.80	0	2.6720	0	34.5790	4	27.587	0	1389.871	0	25.2	4	7.7	4	-1E+10	1	-1E+10	1	-1E+10	1	-1E+10	1	-1E+10	1	-1E+10	1
4901784	74	C	07/14/2017	10:46	-132.943	43.650	0	1410.00	0	2.6690	0	34.5800	4	27.588	0	1394.010	0	25.4	4	7.8	4	-1E+10	1	-1E+10	1	-1E+10	1	-1E+10	1	-1E+10	1	-1E+10	1
4901784	74	C	07/14/2017	10:46	-132.943	43.650	0	1414.30	0	2.6620	0	34.5810	4	27.589	0	1398.247	0	25.7	4	7.9	4	-1E+10	1	-1E+10	1	-1E+10	1	-1E+10	1	-1E+10	1	-1E+10	1
4901784	74	C	07/14/2017	10:46	-132.943	43.650	0	1419.50	0	2.6530	0	34.5830	4	27.592	0	1403.370	0	26.0	4	8.0	4	-1E+10	1	-1E+10	1	-1E+10	1	-1E+10	1	-1E+10	1	-1E+10	1
4901784	74	C	07/14/2017	10:46	-132.943	43.650	0	1424.70	0	2.6480	0	34.5830	4	27.592	0	1408.494	0	25.8	4	7.9	4	-1E+10	1	-1E+10	1	-1E+10	1	-1E+10	1	-1E+10	1	-1E+10	1
4901784	74	C	07/14/2017	10:46	-132.943	43.650	0	1429.80	0	2.6250	0	34.5820	4	27.593	0	1413.519	0	25.7	4	7.9	4	-1E+10	1	-1E+10	1	-1E+10	1	-1E+10	1	-1E+10	1	-1E+10	1
4901784	74	C	07/14/2017	10:46	-132.943	43.650	0	1435.00	0	2.6170	0	34.5830	4	27.595	0	1418.642	0	25.9	4	7.9	4	-1E+10	1	-1E+10	1	-1E+10	1	-1E+10	1	-1E+10	1	-1E+10	1
4901784	74	C	07/14/2017	10:46	-132.943	43.650	0	1440.30	0	2.6110	0	34.5830	4	27.595	0	1423.864	0	26.1	4	8.0	4	-1E+10	1	-1E+10	1	-1E+10	1	-1E+10	1	-1E+10	1	-1E+10	1
4901784	74	C	07/14/2017	10:46	-132.943	43.650	0	1445.60	0	2.6040	0	34.5840	4	27.597	0	1429.085	0	26.4	4	8.1	4	-1E+10	1	-1E+10	1	-1E+10	1	-1E+10	1	-1E+10	1	-1E+10	1
4901784	74	C	07/14/2017	10:46	-132.943	43.650	0	1450.10	0	2.6000	0	34.5850	4	27.598	0	1433.519	0	26.5	4	8.1	4	-1E+10	1	-1E+10	1	-1E+10	1	-1E+10	1	-1E+10	1	-1E+10	1
4901784	74	C	07/14/2017	10:46	-132.943	43.650	0	1454.60	0	2.5810	0	34.5860	4	27.600	0	1437.952	0	26.5	4	8.1	4	-1E+10	1	-1E+10	1	-1E+10	1	-1E+10	1	-1E+10	1	-1E+10	1
4901784	74	C	07/14/2017	10:46	-132.943	43.650	0	1460.00	0	2.5580	0	34.5860	4	27.602	0	1443.272	0	26.5	4	8.1	4	-1E+10	1	-1E+10	1	-1E+10	1	-1E+10	1	-1E+10	1	-1E+10	1
4901784	74	C	07/14/2017	10:46	-132.943	43.650	0	1465.40	0	2.5490	0	34.5870	4	27.604	0	1448.591	0	26.7	4	8.2	4	-1E+10	1	-1E+10	1	-1E+10	1	-1E+10	1	-1E+10	1	-1E+10	1
4901784	74	C	07/14/2017	10:46	-132.943	43.650	0	1469.90	0	2.5440	0	34.5880	4	27.605	0	1453.024	0	27.0	4	8.2	4	-1E+10	1	-1E+10	1	-1E+10	1	-1E+10	1	-1E+10	1	-1E+10	1
4901784	74	C	07/14/2017	10:46	-132.943	43.650	0	1474.50	0	2.5350	0	34.5890	4	27.607	0	1457.556	0	27.2	4	8.3	4	-1E+10	1	-1E+10	1	-1E+10	1	-1E+10	1	-1E+10	1	-1E+10	1
4901784	74	C	07/14/2017	10:46	-132.943	43.650	0	1480.10	0	2.5170	0	34.5910	4	27.610	0	1463.072	0	27.5	4	8.4	4	-1E+10	1	-1E+10	1	-1E+10	1	-1E+10	1	-1E+10	1	-1E+10	1
4901784	74	C	07/14/2017	10:46	-132.943	43.650	0	1484.80	0	2.5120	0	34.5920	4	27.611	0	1467.702	0	27.7	4	8.5	4	-1E+10	1	-1E+10	1	-1E+10	1	-1E+10	1	-1E+10	1	-1E+10	1
4901784	74	C	07/14/2017	10:46	-132.943	43.650	0	1489.70	0	2.5090	0	34.5920	4	27.612	0	1472.528	0	27.9	4	8.5	4	-1E+10	1	-1E+10	1	-1E+10	1	-1E+10	1	-1E+10	1	-1E+10	1
4901784	74	C	07/14/2017	10:46	-132.943	43.650	0	1494.90	0	2.4980	0	34.5930	4	27.613	0	1477.650	0	28.3	4	8.6	4	-1E+10	1	-1E+10	1	-1E+10	1	-1E+10	1	-1E+10	1	-1E+10	1
4901784	74	C	07/14/2017	10:46	-132.943	43.650	0	1499.80	0	2.4900	0	34.5940	4	27.615	0	1482.476	0	28.5	4	8.7	4	-1E+10	1	-1E+10	1	-1E+10	1	-1E+10	1	-1E+10	1	-1E+10	1
4901784	74	C	07/14/2017	10:46	-132.943	43.650	0	1504.70	0	2.4810	0	34.5940	4	27.616	0	1487.302	0	28.8	4	8.8	4	-1E+10	1	-1E+10	1	-1E+10	1	-1E+10	1	-1E+10	1	-1E+10	1
4901784	74	C	07/14/2017	10:46	-132.943	43.650	0	1509.50	0	2.4730	0	34.5960	4	27.618	0	1492.030	0	29.0	4	8.8	4	-1E+10	1	-1E+10	1	-1E+10	1	-1E+10	1	-1E+10	1	-1E+10	1
4901784	74	C	07/14/2017	10:46	-132.943	43.650	0	1514.40	0	2.4700	0	34.5970	4	27.619	0	1496.856	0	29.1	4	8.9	4	-1E+10	1	-1E+10	1	-1E+10	1	-1E+10	1	-1E+10	1	-1E+10	1
4901784	74	C	07/14/2017	10:46	-132.943	43.650	0	1519.40	0	2.4640	0	34.5970	4	27.619	0	1501.780	0	29.4	4	9.0	4	-1E+10	1	-1E+10	1	-1E+10	1	-1E+10	1	-1E+10	1	-1E+10	1
4901784	74	C	07/14/2017	10:46	-132.943	43.650	0	1524.40	0	2.4510	0	34.5990	4	27.622	0	1506.705	0	29.8	4	9.1	4	-1E+10	1	-1E+10	1	-1E+10	1	-1E+10	1	-1E+10	1	-1E+10	1
4901784	74	C	07/14/2017	10:46	-132.943	43.650	0	1529.40	0	2.4450	0	34.5990	4	27.623	0	1511.629	0	30.0	4	9.2	4	-1E+10	1	-1E+10	1	-1E+10	1	-1E+10	1	-1E+10	1	-1E+10	1
4901784	74	C	07/14/2017	10:46	-132.943	43.650	0	1534.30	0	2.4400	0	34.5990	4	27.623	0	1516.454	0	30.2	4	9.2	4	-1E+10	1	-1E+10	1	-1E+10	1	-1E+10	1	-1E+10	1	-1E+10	1
4901784	74	C	07/14/2017	10:46	-132.943	43.650	0	1539.30	0	2.4360	0	34.6000	4	27.624	0	1521.378	0	30.5	4	9.3	4	-1E+10	1	-1E+10	1	-1E+10	1	-1E+10	1	-1E+10	1	-1E+10	1
4901784	74	C	07/14/2017	10:46	-132.943	43.650	0	1544.30	0	2.4220	0	34.6010	4	27.626	0	1526.302	0	30.8	4	9.4	4	-1E+10	1	-1E+10	1	-1E+10	1	-1E+10	1	-1E+10	1	-1E+10	1
4901784	74	C	07/14/2017	10:46	-132.943	43.650	0	1549.30	0	2.4170	0	34.6030	4	27.628	0	1531.225	0	30.9	4	9.4	4	-1E+10	1	-1E+10	1	-1E+10	1	-1E+10	1	-1E+10	1	-1E+10	1
4901784	74	C	07/14/2017	10:46	-132.943	43.650	0	1554.40	0	2.4130	0	34.6030	4	27.629	0	1536.247	0	31.2	4	9.5	4	-1E+10	1	-1E+10	1	-1E+10	1	-1E+10	1	-1E+10	1	-1E+10	1
4901784	74	C	07/14/2017	10:46	-132.943	43.650	0	1559.50	0	2.4060	0	34.6040	4	27.630	0	1541.269	0	31.4	4	9.6	4	-1E+10	1	-1E+10	1	-1E+10	1	-1E+10	1	-1E+10	1	-1E+10	1
4901784	74	C	07/14/2017	10:46	-132.943	43.650	0	1564.50	0	2.4010	0	34.6040	4	27.631	0	1546.192	0	31.8	4	9.7	4	-1E+10	1	-1E+10	1	-1E+10	1	-1E+10	1	-1E+10	1	-1E+10	1
4901784	74	C	07/14/2017	10:46	-132.943	43.650	0	1569.70	0	2.3930	0	34.6050	4	27.632	0	1551.313	0	32.1	4	9.8	4	-1E+10	1	-1E+10	1	-1E+10	1	-1E+10	1	-1E+10	1	-1E+10	1
4901784	74	C	07/14/2017	10:46	-132.943	43.650	0	1574.90	0	2.3870	0	34.6070	4	27.634	0	1556.433	0	32.5	4	9.9	4	-1E+10	1	-1E+10	1	-1E+10	1	-1E+10	1	-1E+10	1	-1E+10	1
4901784	74	C	07/14/2017	10:46	-132.943	43.650	0	1580.10	0	2.3870	0	34.6080	4	27.635	0	1561.552	0	32.7	4	10.0	4	-1E+10	1	-1E+10	1	-1E+10	1	-1E+10	1	-1E+10	1	-1E+10	1
4901784	74	C	07/14/2017	10:46	-132.943	43.650	0	1585.30	0	2.3810	0	34.6080	4	27.636	0	1566.672	0	33.1	4	10.1	4	-1E+10	1	-1E+10	1	-1E+10	1	-1E+10	1	-1E+10	1	-1E+10	1
4901784	74	C	07/14/2017	10:46	-132.943	43.650	0	1590.50	0	2.3720	0	34.6100	4	27.638	0	1571.792	0	33.6	4	10.2	4	-1E+10	1	-1E+10	1	-1E+10	1	-1E+10	1	-1E+10	1	-1E+10	1
4901784	74	C	07/14/2017	10:46	-132.943	43.650	0	1595.70	0	2.3630	0	34.6120	4	27.640	0	1576.911	0	34.0	4	10.3	4	-1E+10	1	-1E+10	1	-1E+10	1	-1E+10	1	-1E+10	1	-1E+10	1
4901784	74	C	07/14/2017	10:46	-132.943	43.650	0	1600.10	0	2.3530	0	34.6130	4	27.642	0	1581.243	0	34.3	4	10.4	4	-1E+10	1	-1E+10	1	-1E+10	1	-1E+10	1	-1E+10	1	-1E+10	1
4901784	74	C	07/14/2017	10:46	-132.943	43.650	0	1604.50	0	2.3470	0	34.6140	4	27.643	0	1585.575	0	34.5	4	10.5	4	-1E+10	1	-1E+10	1	-1E+10	1	-1E+10	1	-1E+10	1	-1E+10	1
4901784	74	C	07/14/2017	10:46	-132.943	43.650	0	1609.70	0	2.3360	0	34.6140	4	27.644	0	1590.694	0	34.9	4	10.6	4	-1E+10	1	-1E+10	1	-1E+10	1	-1E+10	1	-1E+10	1	-1E+10	1
4901784	74	C	07/14/2017	10:46	-132.943	43.650	0	1615.00	0	2.3330	0	34.6150	4	27.645	0	1595.911	0	35.1	4	10.7	4	-1E+10	1	-1E+10	1	-1E+10	1	-1E+10	1	-1E+10	1	-1E+10	1
4901784	74	C	07/14/2017	10:46	-132.943	43.650	0	1620.30	0	2.3280	0	34.6160	4	27.646	0	1601.129	0	35.4	4	10.8	4	-1E+10	1	-1E+10	1	-1E+10	1	-1E+10	1	-1E+10	1	-1E+10	1
4901784	74	C	07/14/2017	10:46	-132.943	43.650	0	1624.80	0	2.3240	0	34.6170	4	27.648	0	1605.558	0	35.7	4	10.9	4	-1E+10	1	-1E+10	1	-1E+10	1	-1E+10	1	-1E+10	1	-1E+10	1
4901784	74	C	07/14/2017	10:46	-132.943	43.650	0	1629.30	0	2.3190	0	34.6170	4	27.648	0	1609.988	0	35.9	4	10.9	4	-1E+10	1	-1E+10	1	-1E+10	1	-1E+10	1	-1E+10	1	-1E+10	1
4901784	74	C	07/14/2017	10:46	-132.943	43.650	0	1634.70	0	2.3130	0	34.6180	4	27.649	0	1615.303	0	36.2	4	11.0	4	-1E+10	1	-1E+10	1	-1E+10	1	-1E+10	1	-1E+10	1	-1E+10	1
4901784	74	C	07/14/2017	10:46	-132.943	43.650	0	1640.10	0	2.3080	0	34.6190	4	27.651	0	1620.619	0	36.6	4	11.1	4	-1E+10	1	-1E+10	1	-1E+10	1	-1E+10	1	-1E+10	1	-1E+10	1
4901784	74	C	07/14/2017	10:46	-132.943	43.650	0	1645.60	0	2.3000	0	34.6190	4	27.651	0	1626.032	0	36.8	4	11.2	4	-1E+10	1	-1E+10	1	-1E+10	1	-1E+10	1	-1E+10	1	-1E+10	1
4901784	74	C	07/14/2017	10:46	-132.943	43.650	0	1650.10	0	2.2970	0	34.6190	4	27.652	0	1630.461	0	37.1	4	11.3	4	-1E+10	1	-1E+10	1	-1E+10	1	-1E+10	1	-1E+10	1	-1E+10	1
4901784	74	C	07/14/2017	10:46	-132.943	43.650	0	1654.60	0	2.2890	0	34.6200	4	27.653	0	1634.890	0	37.5	4	11.4	4	-1E+10	1	-1E+10	1	-1E+10	1	-1E+10	1	-1E+10	1	-1E+10	1
4901784	74	C	07/14/2017	10:46	-132.943	43.650	0	1660.10	0	2.2750	0	34.6220	4	27.656	0	1640.304	0	37.9	4	11.5	4	-1E+10	1	-1E+10	1	-1E+10	1	-1E+10	1	-1E+10	1	-1E+10	1
4901784	74	C	07/14/2017	10:46	-132.943	43.650	0	1665.50	0	2.2700	0	34.6240	4	27.658	0	1645.618	0	38.2	4	11.6	4	-1E+10	1	-1E+10	1	-1E+10	1	-1E+10	1	-1E+10	1	-1E+10	1
4901784	74	C	07/14/2017	10:46	-132.943	43.650	0	1670.10	0	2.2680	0	34.6240	4	27.658	0	1650.145	0	38.3	4	11.6	4	-1E+10	1	-1E+10	1	-1E+10	1	-1E+10	1	-1E+10	1	-1E+10	1
4901784	74	C	07/14/2017	10:46	-132.943	43.650	0	1674.70	0	2.2640	0	34.6230	4	27.658	0	1654.673	0	38.5	4	11.7	4	-1E+10	1	-1E+10	1	-1E+10	1	-1E+10	1	-1E+10	1	-1E+10	1
4901784	74	C	07/14/2017	10:46	-132.943	43.650	0	1680.10	0	2.2560	0	34.6240	4	27.659	0	1659.987	0	38.8	4	11.8	4	-1E+10	1	-1E+10	1	-1E+10	1	-1E+10	1	-1E+10	1	-1E+10	1
4901784	74	C	07/14/2017	10:46	-132.943	43.650	0	1685.60	0	2.2490	0	34.6250	4	27.660	0	1665.399	0	39.2	4	11.9	4	-1E+10	1	-1E+10	1	-1E+10	1	-1E+10	1	-1E+10	1	-1E+10	1
4901784	74	C	07/14/2017	10:46	-132.943	43.650	0	1690.10	0	2.2410	0	34.6260	4	27.662	0	1669.828	0	39.4	4	12.0	4	-1E+10	1	-1E+10	1	-1E+10	1	-1E+10	1	-1E+10	1	-1E+10	1
4901784	74	C	07/14/2017	10:46	-132.943	43.650	0	1694.70	0	2.2350	0	34.6270	4	27.663	0	1674.354	0	39.7	4	12.0	4	-1E+10	1	-1E+10	1	-1E+10	1	-1E+10	1	-1E+10	1	-1E+10	1
4901784	74	C	07/14/2017	10:46	-132.943	43.650	0	1700.20	0	2.2270	0	34.6280	4	27.665	0	1679.767	0	40.1	4	12.2	4	-1E+10	1	-1E+10	1	-1E+10	1	-1E+10	1	-1E+10	1	-1E+10	1
4901784	74	C	07/14/2017	10:46	-132.943	43.650	0	1704.80	0	2.2210	0	34.6290	4	27.666	0	1684.293	0	40.3	4	12.2	4	-1E+10	1	-1E+10	1	-1E+10	1	-1E+10	1	-1E+10	1	-1E+10	1
4901784	74	C	07/14/2017	10:46	-132.943	43.650	0	1709.40	0	2.2140	0	34.6290	4	27.667	0	1688.820	0	40.6	4	12.3	4	-1E+10	1	-1E+10	1	-1E+10	1	-1E+10	1	-1E+10	1	-1E+10	1
4901784	74	C	07/14/2017	10:46	-132.943	43.650	0	1714.90	0	2.2040	0	34.6300	4	27.668	0	1694.231	0	41.0	4	12.4	4	-1E+10	1	-1E+10	1	-1E+10	1	-1E+10	1	-1E+10	1	-1E+10	1
4901784	74	C	07/14/2017	10:46	-132.943	43.650	0	1720.10	0	2.1980	0	34.6310	4	27.670	0	1699.348	0	41.3	4	12.5	4	-1E+10	1	-1E+10	1	-1E+10	1	-1E+10	1	-1E+10	1	-1E+10	1
4901784	74	C	07/14/2017	10:46	-132.943	43.650	0	1724.40	0	2.1930	0	34.6320	4	27.671	0	1703.579	0	41.5	4	12.6	4	-1E+10	1	-1E+10	1	-1E+10	1	-1E+10	1	-1E+10	1	-1E+10	1
4901784	74	C	07/14/2017	10:46	-132.943	43.650	0	1730.00	0	2.1890	0	34.6320	4	27.671	0	1709.089	0	41.8	4	12.7	4	-1E+10	1	-1E+10	1	-1E+10	1	-1E+10	1	-1E+10	1	-1E+10	1
4901784	74	C	07/14/2017	10:46	-132.943	43.650	0	1735.80	0	2.1830	0	34.6330	4	27.672	0	1714.795	0	42.1	4	12.8	4	-1E+10	1	-1E+10	1	-1E+10	1	-1E+10	1	-1E+10	1	-1E+10	1
4901784	74	C	07/14/2017	10:46	-132.943	43.650	0	1740.70	0	2.1790	0	34.6340	4	27.674	0	1719.616	0	42.5	4	12.9	4	-1E+10	1	-1E+10	1	-1E+10	1	-1E+10	1	-1E+10	1	-1E+10	1
4901784	74	C	07/14/2017	10:46	-132.943	43.650	0	1745.60	0	2.1710	0	34.6350	4	27.675	0	1724.437	0	43.0	4	13.0	4	-1E+10	1	-1E+10	1	-1E+10	1	-1E+10	1	-1E+10	1	-1E+10	1
4901784	74	C	07/14/2017	10:46	-132.943	43.650	0	1750.60	0	2.1610	0	34.6360	4	27.677	0	1729.356	0	43.4	4	13.2	4	-1E+10	1	-1E+10	1	-1E+10	1	-1E+10	1	-1E+10	1	-1E+10	1
4901784	74	C	07/14/2017	10:46	-132.943	43.650	0	1755.50	0	2.1540	0	34.6370	4	27.678	0	1734.176	0	43.8	4	13.3	4	-1E+10	1	-1E+10	1	-1E+10	1	-1E+10	1	-1E+10	1	-1E+10	1
4901784	74	C	07/14/2017	10:46	-132.943	43.650	0	1760.50	0	2.1490	0	34.6380	4	27.679	0	1739.095	0	44.2	4	13.4	4	-1E+10	1	-1E+10	1	-1E+10	1	-1E+10	1	-1E+10	1	-1E+10	1
4901784	74	C	07/14/2017	10:46	-132.943	43.650	0	1765.50	0	2.1410	0	34.6390	4	27.681	0	1744.014	0	44.6	4	13.5	4	-1E+10	1	-1E+10	1	-1E+10	1	-1E+10	1	-1E+10	1	-1E+10	1
4901784	74	C	07/14/2017	10:46	-132.943	43.650	0	1770.40	0	2.1340	0	34.6400	4	27.682	0	1748.834	0	45.0	4	13.6	4	-1E+10	1	-1E+10	1	-1E+10	1	-1E+10	1	-1E+10	1	-1E+10	1
4901784	74	C	07/14/2017	10:46	-132.943	43.650	0	1775.40	0	2.1270	0	34.6410	4	27.684	0	1753.752	0	45.3	4	13.7	4	-1E+10	1	-1E+10	1	-1E+10	1	-1E+10	1	-1E+10	1	-1E+10	1
4901784	74	C	07/14/2017	10:46	-132.943	43.650	0	1780.40	0	2.1200	0	34.6420	4	27.685	0	1758.671	0	45.6	4	13.8	4	-1E+10	1	-1E+10	1	-1E+10	1	-1E+10	1	-1E+10	1	-1E+10	1
4901784	74	C	07/14/2017	10:46	-132.943	43.650	0	1785.40	0	2.1130	0	34.6420	4	27.685	0	1763.589	0	45.8	4	13.9	4	-1E+10	1	-1E+10	1	-1E+10	1	-1E+10	1	-1E+10	1	-1E+10	1
4901784	74	C	07/14/2017	10:46	-132.943	43.650	0	1790.50	0	2.1110	0	34.6430	4	27.686	0	1768.605	0	46.1	4	13.9	4	-1E+10	1	-1E+10	1	-1E+10	1	-1E+10	1	-1E+10	1	-1E+10	1
4901784	74	C	07/14/2017	10:46	-132.943	43.650	0	1795.60	0	2.1060	0	34.6430	4	27.687	0	1773.622	0	46.4	4	14.0	4	-1E+10	1	-1E+10	1	-1E+10	1	-1E+10	1	-1E+10	1	-1E+10	1
4901784	74	C	07/14/2017	10:46	-132.943	43.650	0	1800.70	0	2.1020	0	34.6440	4	27.688	0	1778.638	0	46.7	4	14.1	4	-1E+10	1	-1E+10	1	-1E+10	1	-1E+10	1	-1E+10	1	-1E+10	1
4901784	74	C	07/14/2017	10:46	-132.943	43.650	0	1805.00	0	2.0990	0	34.6450	4	27.689	0	1782.867	0	46.9	4	14.2	4	-1E+10	1	-1E+10	1	-1E+10	1	-1E+10	1	-1E+10	1	-1E+10	1
4901784	74	C	07/14/2017	10:46	-132.943	43.650	0	1809.30	0	2.0970	0	34.6450	4	27.689	0	1787.096	0	47.2	4	14.3	4	-1E+10	1	-1E+10	1	-1E+10	1	-1E+10	1	-1E+10	1	-1E+10	1
4901784	74	C	07/14/2017	10:46	-132.943	43.650	0	1814.50	0	2.0920	0	34.6460	4	27.691	0	1792.211	0	47.5	4	14.4	4	-1E+10	1	-1E+10	1	-1E+10	1	-1E+10	1	-1E+10	1	-1E+10	1
4901784	74	C	07/14/2017	10:46	-132.943	43.650	0	1819.60	0	2.0860	0	34.6460	4	27.691	0	1797.226	0	47.8	4	14.5	4	-1E+10	1	-1E+10	1	-1E+10	1	-1E+10	1	-1E+10	1	-1E+10	1
4901784	74	C	07/14/2017	10:46	-132.943	43.650	0	1824.70	0	2.0800	0	34.6470	4	27.692	0	1802.242	0	48.1	4	14.5	4	-1E+10	1	-1E+10	1	-1E+10	1	-1E+10	1	-1E+10	1	-1E+10	1
4901784	74	C	07/14/2017	10:46	-132.943	43.650	0	1829.90	0	2.0760	0	34.6480	4	27.693	0	1807.356	0	48.4	4	14.6	4	-1E+10	1	-1E+10	1	-1E+10	1	-1E+10	1	-1E+10	1	-1E+10	1
4901784	74	C	07/14/2017	10:46	-132.943	43.650	0	1835.00	0	2.0700	0	34.6480	4	27.694	0	1812.372	0	48.7	4	14.7	4	-1E+10	1	-1E+10	1	-1E+10	1	-1E+10	1	-1E+10	1	-1E+10	1
4901784	74	C	07/14/2017	10:46	-132.943	43.650	0	1840.20	0	2.0640	0	34.6490	4	27.695	0	1817.485	0	48.9	4	14.8	4	-1E+10	1	-1E+10	1	-1E+10	1	-1E+10	1	-1E+10	1	-1E+10	1
4901784	74	C	07/14/2017	10:46	-132.943	43.650	0	1845.30	0	2.0590	0	34.6500	4	27.696	0	1822.500	0	49.1	4	14.8	4	-1E+10	1	-1E+10	1	-1E+10	1	-1E+10	1	-1E+10	1	-1E+10	1
4901784	74	C	07/14/2017	10:46	-132.943	43.650	0	1850.50	0	2.0570	0	34.6500	4	27.697	0	1827.614	0	49.4	4	14.9	4	-1E+10	1	-1E+10	1	-1E+10	1	-1E+10	1	-1E+10	1	-1E+10	1
4901784	74	C	07/14/2017	10:46	-132.943	43.650	0	1855.60	0	2.0540	0	34.6510	4	27.698	0	1832.629	0	49.7	4	15.0	4	-1E+10	1	-1E+10	1	-1E+10	1	-1E+10	1	-1E+10	1	-1E+10	1
4901784	74	C	07/14/2017	10:46	-132.943	43.650	0	1860.00	0	2.0500	0	34.6510	4	27.698	0	1836.955	0	50.1	4	15.1	4	-1E+10	1	-1E+10	1	-1E+10	1	-1E+10	1	-1E+10	1	-1E+10	1
4901784	74	C	07/14/2017	10:46	-132.943	43.650	0	1864.30	0	2.0470	0	34.6520	4	27.699	0	1841.183	0	50.4	4	15.2	4	-1E+10	1	-1E+10	1	-1E+10	1	-1E+10	1	-1E+10	1	-1E+10	1
4901784	74	C	07/14/2017	10:46	-132.943	43.650	0	1869.50	0	2.0420	0	34.6530	4	27.700	0	1846.296	0	50.9	4	15.4	4	-1E+10	1	-1E+10	1	-1E+10	1	-1E+10	1	-1E+10	1	-1E+10	1
4901784	74	C	07/14/2017	10:46	-132.943	43.650	0	1874.80	0	2.0380	0	34.6550	4	27.702	0	1851.508	0	51.3	4	15.5	4	-1E+10	1	-1E+10	1	-1E+10	1	-1E+10	1	-1E+10	1	-1E+10	1
4901784	74	C	07/14/2017	10:46	-132.943	43.650	0	1880.00	0	2.0350	0	34.6550	4	27.703	0	1856.620	0	51.7	4	15.6	4	-1E+10	1	-1E+10	1	-1E+10	1	-1E+10	1	-1E+10	1	-1E+10	1
4901784	74	C	07/14/2017	10:46	-132.943	43.650	0	1885.30	0	2.0310	0	34.6560	4	27.704	0	1861.831	0	52.0	4	15.7	4	-1E+10	1	-1E+10	1	-1E+10	1	-1E+10	1	-1E+10	1	-1E+10	1
4901784	74	C	07/14/2017	10:46	-132.943	43.650	0	1890.60	0	2.0260	0	34.6570	4	27.705	0	1867.042	0	52.5	4	15.8	4	-1E+10	1	-1E+10	1	-1E+10	1	-1E+10	1	-1E+10	1	-1E+10	1
4901784	74	C	07/14/2017	10:46	-132.943	43.650	0	1895.00	0	2.0220	0	34.6580	4	27.706	0	1871.368	0	52.9	4	16.0	4	-1E+10	1	-1E+10	1	-1E+10	1	-1E+10	1	-1E+10	1	-1E+10	1
4901784	74	C	07/14/2017	10:46	-132.943	43.650	0	1899.40	0	2.0140	0	34.6590	4	27.708	0	1875.694	0	53.2	4	16.1	4	-1E+10	1	-1E+10	1	-1E+10	1	-1E+10	1	-1E+10	1	-1E+10	1
4901784	74	C	07/14/2017	10:46	-132.943	43.650	0	1904.80	0	2.0120	0	34.6590	4	27.708	0	1881.002	0	53.4	4	16.1	4	-1E+10	1	-1E+10	1	-1E+10	1	-1E+10	1	-1E+10	1	-1E+10	1
4901784	74	C	07/14/2017	10:46	-132.943	43.650	0	1910.20	0	2.0080	0	34.6600	4	27.709	0	1886.311	0	53.6	4	16.2	4	-1E+10	1	-1E+10	1	-1E+10	1	-1E+10	1	-1E+10	1	-1E+10	1
4901784	74	C	07/14/2017	10:46	-132.943	43.650	0	1915.50	0	2.0050	0	34.6600	4	27.709	0	1891.521	0	53.9	4	16.3	4	-1E+10	1	-1E+10	1	-1E+10	1	-1E+10	1	-1E+10	1	-1E+10	1
4901784	74	C	07/14/2017	10:46	-132.943	43.650	0	1919.90	0	2.0010	0	34.6610	4	27.710	0	1895.846	0	54.2	4	16.4	4	-1E+10	1	-1E+10	1	-1E+10	1	-1E+10	1	-1E+10	1	-1E+10	1
4901784	74	C	07/14/2017	10:46	-132.943	43.650	0	1924.30	0	1.9950	0	34.6610	4	27.711	0	1900.172	0	54.6	4	16.5	4	-1E+10	1	-1E+10	1	-1E+10	1	-1E+10	1	-1E+10	1	-1E+10	1
4901784	74	C	07/14/2017	10:46	-132.943	43.650	0	1929.70	0	1.9890	0	34.6630	4	27.713	0	1905.480	0	54.9	4	16.5	4	-1E+10	1	-1E+10	1	-1E+10	1	-1E+10	1	-1E+10	1	-1E+10	1
4901784	74	C	07/14/2017	10:46	-132.943	43.650	0	1935.00	0	1.9880	0	34.6630	4	27.713	0	1910.689	0	55.1	4	16.6	4	-1E+10	1	-1E+10	1	-1E+10	1	-1E+10	1	-1E+10	1	-1E+10	1
4901784	74	C	07/14/2017	10:46	-132.943	43.650	0	1940.40	0	1.9840	0	34.6630	4	27.713	0	1915.997	0	55.5	4	16.7	4	-1E+10	1	-1E+10	1	-1E+10	1	-1E+10	1	-1E+10	1	-1E+10	1
4901784	74	C	07/14/2017	10:46	-132.943	43.650	0	1944.90	0	1.9790	0	34.6640	4	27.714	0	1920.420	0	55.8	4	16.8	4	-1E+10	1	-1E+10	1	-1E+10	1	-1E+10	1	-1E+10	1	-1E+10	1
4901784	74	C	07/14/2017	10:46	-132.943	43.650	0	1949.40	0	1.9750	0	34.6650	4	27.716	0	1924.844	0	56.0	4	16.9	4	-1E+10	1	-1E+10	1	-1E+10	1	-1E+10	1	-1E+10	1	-1E+10	1
4901784	74	C	07/14/2017	10:46	-132.943	43.650	0	1954.80	0	1.9740	0	34.6650	4	27.716	0	1930.151	0	56.2	4	17.0	4	-1E+10	1	-1E+10	1	-1E+10	1	-1E+10	1	-1E+10	1	-1E+10	1
4901784	74	C	07/14/2017	10:46	-132.943	43.650	0	1960.20	0	1.9690	0	34.6660	4	27.717	0	1935.458	0	56.6	4	17.1	4	-1E+10	1	-1E+10	1	-1E+10	1	-1E+10	1	-1E+10	1	-1E+10	1
4901784	74	C	07/14/2017	10:46	-132.943	43.650	0	1965.60	0	1.9640	0	34.6670	4	27.718	0	1940.766	0	57.0	4	17.2	4	-1E+10	1	-1E+10	1	-1E+10	1	-1E+10	1	-1E+10	1	-1E+10	1
4901784	74	C	07/14/2017	10:46	-132.943	43.650	0	1970.40	0	1.9610	0	34.6670	4	27.718	0	1945.483	0	57.4	4	17.3	4	-1E+10	1	-1E+10	1	-1E+10	1	-1E+10	1	-1E+10	1	-1E+10	1
4901784	74	C	07/14/2017	10:46	-132.943	43.650	0	1975.30	0	1.9550	0	34.6680	4	27.720	0	1950.299	0	57.7	4	17.4	4	-1E+10	1	-1E+10	1	-1E+10	1	-1E+10	1	-1E+10	1	-1E+10	1
4901784	74	C	07/14/2017	10:46	-132.943	43.650	0	1980.20	0	1.9530	0	34.6690	4	27.721	0	1955.114	0	57.9	4	17.5	4	-1E+10	1	-1E+10	1	-1E+10	1	-1E+10	1	-1E+10	1	-1E+10	1
4901784	74	C	07/14/2017	10:46	-132.943	43.650	0	1985.00	0	1.9510	0	34.6700	4	27.722	0	1959.831	0	58.1	4	17.5	4	-1E+10	1	-1E+10	1	-1E+10	1	-1E+10	1	-1E+10	1	-1E+10	1
4901784	74	C	07/14/2017	10:46	-132.943	43.650	0	1989.80	0	1.9490	0	34.6700	4	27.722	0	1964.548	0	58.4	4	17.6	4	-1E+10	1	-1E+10	1	-1E+10	1	-1E+10	1	-1E+10	1	-1E+10	1
4901784	74	C	07/14/2017	10:46	-132.943	43.650	0	1995.20	0	1.9460	0	34.6710	4	27.723	0	1969.855	0	58.8	4	17.7	4	-1E+10	1	-1E+10	1	-1E+10	1	-1E+10	1	-1E+10	1	-1E+10	1
4901784	74	C	07/14/2017	10:46	-132.943	43.650	0	2000.00	0	1.9410	0	34.6710	4	27.723	0	1974.572	0	59.1	4	17.8	4	-1E+10	1	-1E+10	1	-1E+10	1	-1E+10	1	-1E+10	1	-1E+10	1
4901784	74	C	07/14/2017	10:46	-132.943	43.650	0	2005.20	0	1.9350	0	34.6720	4	27.725	0	1979.681	0	59.3	8	17.9	8	-1E+10	1	-1E+10	1	-1E+10	1	-1E+10	1	-1E+10	1	-1E+10	1
4901784	74	C	07/14/2017	10:46	-132.943	43.650	0	2008.40	0	1.9320	0	34.6720	4	27.725	0	1982.826	0	58.2	8	17.5	8	-1E+10	1	-1E+10	1	-1E+10	1	-1E+10	1	-1E+10	1	-1E+10	1
4901784	74	C	07/14/2017	10:46	-132.943	43.650	0																										
4901784	75	C	07/24/2017	10:47	-132.701	43.713	0	2.70	0	16.1440	0	32.8160	4	24.037	0	2.678	0	244.3	4	99.3	4	-1E+10	1	-1E+10	1	-1E+10	1	-1E+10	1	-1E+10	1	-1E+10	1
4901784	75	C	07/24/2017	10:47	-132.701	43.713	0	3.90	0	16.1470	0	32.8160	4	24.036	0	3.869	0	244.2	4	99.3	4	-1E+10	1	-1E+10	1	-1E+10	1	-1E+10	1	-1E+10	1	-1E+10	1
4901784	75	C	07/24/2017	10:47	-132.701	43.713	0	5.30	0	16.1480	0	32.8170	4	24.037	0	5.258	0	244.1	4	99.2	4	-1E+10	1	-1E+10	1	-1E+10	1	-1E+10	1	-1E+10	1	-1E+10	1
4901784	75	C	07/24/2017	10:47	-132.701	43.713	0	6.80	0	16.1460	0	32.8160	4	24.036	0	6.745	0	244.0	4	99.2	4	-1E+10	1	-1E+10	1	-1E+10	1	-1E+10	1	-1E+10	1	-1E+10	1
4901784	75	C	07/24/2017	10:47	-132.701	43.713	0	8.30	0	16.1480	0	32.8150	4	24.035	0	8.233	0	243.8	4	99.1	4	-1E+10	1	-1E+10	1	-1E+10	1	-1E+10	1	-1E+10	1	-1E+10	1
4901784	75	C	07/24/2017	10:47	-132.701	43.713	0	9.90	0	16.1490	0	32.8140	4	24.034	0	9.821	0	243.9	4	99.1	4	-1E+10	1	-1E+10	1	-1E+10	1	-1E+10	1	-1E+10	1	-1E+10	1
4901784	75	C	07/24/2017	10:47	-132.701	43.713	0	11.50	0	16.1410	0	32.8090	4	24.032	0	11.408	0	243.7	4	99.1	4	-1E+10	1	-1E+10	1	-1E+10	1	-1E+10	1	-1E+10	1	-1E+10	1
4901784	75	C	07/24/2017	10:47	-132.701	43.713	0	13.20	0	16.1350	0	32.8160	4	24.039	0	13.094	0	243.9	4	99.1	4	-1E+10	1	-1E+10	1	-1E+10	1	-1E+10	1	-1E+10	1	-1E+10	1
4901784	75	C	07/24/2017	10:47	-132.701	43.713	0	14.80	0	16.1180	0	32.8140	4	24.041	0	14.681	0	244.0	4	99.2	4	-1E+10	1	-1E+10	1	-1E+10	1	-1E+10	1	-1E+10	1	-1E+10	1
4901784	75	C	07/24/2017	10:47	-132.701	43.713	0	16.50	0	16.1270	0	32.8110	4	24.037	0	16.367	0	244.2	4	99.2	4	-1E+10	1	-1E+10	1	-1E+10	1	-1E+10	1	-1E+10	1	-1E+10	1
4901784	75	C	07/24/2017	10:47	-132.701	43.713	0	18.20	0	16.0850	0	32.8080	4	24.044	0	18.054	0	244.3	4	99.2	4	-1E+10	1	-1E+10	1	-1E+10	1	-1E+10	1	-1E+10	1	-1E+10	1
4901784	75	C	07/24/2017	10:47	-132.701	43.713	0	19.80	0	16.0570	0	32.8070	4	24.050	0	19.641	0	244.5	4	99.2	4	-1E+10	1	-1E+10	1	-1E+10	1	-1E+10	1	-1E+10	1	-1E+10	1
4901784	75	C	07/24/2017	10:47	-132.701	43.713	0	21.40	0	16.0240	0	32.8090	4	24.059	0	21.228	0	245.2	4	99.4	4	-1E+10	1	-1E+10	1	-1E+10	1	-1E+10	1	-1E+10	1	-1E+10	1
4901784	75	C	07/24/2017	10:47	-132.701	43.713	0	23.00	0	15.9450	0	32.8110	4	24.078	0	22.815	0	246.3	4	99.7	4	-1E+10	1	-1E+10	1	-1E+10	1	-1E+10	1	-1E+10	1	-1E+10	1
4901784	75	C	07/24/2017	10:47	-132.701	43.713	0	24.70	0	15.8230	0	32.8170	4	24.110	0	24.501	0	247.8	4	100.1	4	-1E+10	1	-1E+10	1	-1E+10	1	-1E+10	1	-1E+10	1	-1E+10	1
4901784	75	C	07/24/2017	10:47	-132.701	43.713	0	26.50	0	15.7930	0	32.8080	4	24.110	0	26.286	0	249.1	4	100.6	4	-1E+10	1	-1E+10	1	-1E+10	1	-1E+10	1	-1E+10	1	-1E+10	1
4901784	75	C	07/24/2017	10:47	-132.701	43.713	0	28.10	0	15.7590	0	32.8030	4	24.114	0	27.873	0	251.2	4	101.3	4	-1E+10	1	-1E+10	1	-1E+10	1	-1E+10	1	-1E+10	1	-1E+10	1
4901784	75	C	07/24/2017	10:47	-132.701	43.713	0	30.00	0	15.1420	0	32.7640	4	24.220	0	29.758	0	255.3	4	101.7	4	-1E+10	1	-1E+10	1	-1E+10	1	-1E+10	1	-1E+10	1	-1E+10	1
4901784	75	C	07/24/2017	10:47	-132.701	43.713	0	31.80	0	14.6530	0	32.7450	4	24.310	0	31.543	0	260.4	4	102.7	4	-1E+10	1	-1E+10	1	-1E+10	1	-1E+10	1	-1E+10	1	-1E+10	1
4901784	75	C	07/24/2017	10:47	-132.701	43.713	0	33.50	0	14.3190	0	32.7490	4	24.383	0	33.229	0	263.3	4	103.2	4	-1E+10	1	-1E+10	1	-1E+10	1	-1E+10	1	-1E+10	1	-1E+10	1
4901784	75	C	07/24/2017	10:47	-132.701	43.713	0	35.30	0	14.2210	0	32.7380	4	24.396	0	35.015	0	265.1	4	103.7	4	-1E+10	1	-1E+10	1	-1E+10	1	-1E+10	1	-1E+10	1	-1E+10	1
4901784	75	C	07/24/2017	10:47	-132.701	43.713	0	37.80	0	13.5680	0	32.7460	4	24.536	0	37.494	0	270.1	4	104.3	4	-1E+10	1	-1E+10	1	-1E+10	1	-1E+10	1	-1E+10	1	-1E+10	1
4901784	75	C	07/24/2017	10:47	-132.701	43.713	0	39.80	0	13.0520	0	32.7610	4	24.650	0	39.478	0	274.3	4	104.8	4	-1E+10	1	-1E+10	1	-1E+10	1	-1E+10	1	-1E+10	1	-1E+10	1
4901784	75	C	07/24/2017	10:47	-132.701	43.713	0	41.30	0	12.8400	0	32.7670	4	24.696	0	40.966	0	276.1	4	105.1	4	-1E+10	1	-1E+10	1	-1E+10	1	-1E+10	1	-1E+10	1	-1E+10	1
4901784	75	C	07/24/2017	10:47	-132.701	43.713	0	42.80	0	12.7880	0	32.7490	4	24.693	0	42.453	0	277.0	4	105.3	4	-1E+10	1	-1E+10	1	-1E+10	1	-1E+10	1	-1E+10	1	-1E+10	1
4901784	75	C	07/24/2017	10:47	-132.701	43.713	0	44.30	0	12.4680	0	32.7530	4	24.758	0	43.941	0	278.8	4	105.3	4	-1E+10	1	-1E+10	1	-1E+10	1	-1E+10	1	-1E+10	1	-1E+10	1
4901784	75	C	07/24/2017	10:47	-132.701	43.713	0	45.80	0	12.2030	0	32.7590	4	24.813	0	45.429	0	279.7	4	105.0	4	-1E+10	1	-1E+10	1	-1E+10	1	-1E+10	1	-1E+10	1	-1E+10	1
4901784	75	C	07/24/2017	10:47	-132.701	43.713	0	47.30	0	11.7450	0	32.7720	4	24.908	0	46.916	0	280.9	4	104.5	4	-1E+10	1	-1E+10	1	-1E+10	1	-1E+10	1	-1E+10	1	-1E+10	1
4901784	75	C	07/24/2017	10:47	-132.701	43.713	0	48.90	0	11.4430	0	32.7750	4	24.966	0	48.503	0	280.4	4	103.6	4	-1E+10	1	-1E+10	1	-1E+10	1	-1E+10	1	-1E+10	1	-1E+10	1
4901784	75	C	07/24/2017	10:47	-132.701	43.713	0	50.50	0	10.5890	0	32.7930	4	25.131	0	50.090	0	281.9	4	102.3	4	-1E+10	1	-1E+10	1	-1E+10	1	-1E+10	1	-1E+10	1	-1E+10	1
4901784	75	C	07/24/2017	10:47	-132.701	43.713	0	52.20	0	10.5080	0	32.7970	4	25.148	0	51.776	0	281.0	4	101.8	4	-1E+10	1	-1E+10	1	-1E+10	1	-1E+10	1	-1E+10	1	-1E+10	1
4901784	75	C	07/24/2017	10:47	-132.701	43.713	0	53.80	0	10.4700	0	32.7960	4	25.153	0	53.363	0	278.4	4	100.8	4	-1E+10	1	-1E+10	1	-1E+10	1	-1E+10	1	-1E+10	1	-1E+10	1
4901784	75	C	07/24/2017	10:47	-132.701	43.713	0	55.40	0	10.4560	0	32.7910	4	25.152	0	54.949	0	275.1	4	99.6	4	-1E+10	1	-1E+10	1	-1E+10	1	-1E+10	1	-1E+10	1	-1E+10	1
4901784	75	C	07/24/2017	10:47	-132.701	43.713	0	57.20	0	10.2720	0	32.7940	4	25.186	0	56.735	0	271.1	4	97.7	4	-1E+10	1	-1E+10	1	-1E+10	1	-1E+10	1	-1E+10	1	-1E+10	1
4901784	75	C	07/24/2017	10:47	-132.701	43.713	0	58.90	0	10.1630	0	32.7880	4	25.199	0	58.420	0	267.8	4	96.3	4	-1E+10	1	-1E+10	1	-1E+10	1	-1E+10	1	-1E+10	1	-1E+10	1
4901784	75	C	07/24/2017	10:47	-132.701	43.713	0	60.70	0	9.9040	0	32.8020	4	25.253	0	60.206	0	265.1	4	94.8	4	-1E+10	1	-1E+10	1	-1E+10	1	-1E+10	1	-1E+10	1	-1E+10	1
4901784	75	C	07/24/2017	10:47	-132.701	43.713	0	62.40	0	9.7360	0	32.8140	4	25.290	0	61.891	0	263.5	4	93.9	4	-1E+10	1	-1E+10	1	-1E+10	1	-1E+10	1	-1E+10	1	-1E+10	1
4901784	75	C	07/24/2017	10:47	-132.701	43.713	0	64.20	0	9.5540	0	32.8280	4	25.331	0	63.677	0	262.0	4	93.0	4	-1E+10	1	-1E+10	1	-1E+10	1	-1E+10	1	-1E+10	1	-1E+10	1
4901784	75	C	07/24/2017	10:47	-132.701	43.713	0	66.00	0	9.4660	0	32.8290	4	25.346	0	65.462	0	261.1	4	92.5	4	-1E+10	1	-1E+10	1	-1E+10	1	-1E+10	1	-1E+10	1	-1E+10	1
4901784	75	C	07/24/2017	10:47	-132.701	43.713	0	68.20	0	9.3290	0	32.8280	4	25.367	0	67.643	0	260.9	4	92.2	4	-1E+10	1	-1E+10	1	-1E+10	1	-1E+10	1	-1E+10	1	-1E+10	1
4901784	75	C	07/24/2017	10:47	-132.701	43.713	0	70.00	0	9.3100	0	32.8390	4	25.379	0	69.428	0	259.5	4	91.7	4	-1E+10	1	-1E+10	1	-1E+10	1	-1E+10	1	-1E+10	1	-1E+10	1
4901784	75	C	07/24/2017	10:47	-132.701	43.713	0	71.50	0	9.2620	0	32.8500	4	25.395	0	70.916	0	258.5	4	91.2	4	-1E+10	1	-1E+10	1	-1E+10	1	-1E+10	1	-1E+10	1	-1E+10	1
4901784	75	C	07/24/2017	10:47	-132.701	43.713	0	73.00	0	9.1910	0	32.8570	4	25.412	0	72.403	0	257.8	4	90.8	4	-1E+10	1	-1E+10	1	-1E+10	1	-1E+10	1	-1E+10	1	-1E+10	1
4901784	75	C	07/24/2017	10:47	-132.701	43.713	0	74.60	0	9.1690	0	32.8640	4	25.421	0	73.990	0	256.6	4	90.4	4	-1E+10	1	-1E+10	1	-1E+10	1	-1E+10	1	-1E+10	1	-1E+10	1
4901784	75	C	07/24/2017	10:47	-132.701	43.713	0	76.10	0	9.1490	0	32.8740	4	25.432	0	75.477	0	255.2	4	89.8	4	-1E+10	1	-1E+10	1	-1E+10	1	-1E+10	1	-1E+10	1	-1E+10	1
4901784	75	C	07/24/2017	10:47	-132.701	43.713	0	77.70	0	9.1320	0	32.8810	4	25.440	0	77.064	0	253.8	4	89.3	4	-1E+10	1	-1E+10	1	-1E+10	1	-1E+10	1	-1E+10	1	-1E+10	1
4901784	75	C	07/24/2017	10:47	-132.701	43.713	0	79.40	0	9.0460	0	32.9000	4	25.468	0	78.750	0	252.2	4	88.6	4	-1E+10	1	-1E+10	1	-1E+10	1	-1E+10	1	-1E+10	1	-1E+10	1
4901784	75	C	07/24/2017	10:47	-132.701	43.713	0	81.00	0	8.9510	0	32.9130	4	25.493	0	80.336	0	251.0	4	88.0	4	-1E+10	1	-1E+10	1	-1E+10	1	-1E+10	1	-1E+10	1	-1E+10	1
4901784	75	C	07/24/2017	10:47	-132.701	43.713	0	82.80	0	8.9130	0	32.9380	4	25.519	0	82.121	0	249.4	4	87.4	4	-1E+10	1	-1E+10	1	-1E+10	1	-1E+10	1	-1E+10	1	-1E+10	1
4901784	75	C	07/24/2017	10:47	-132.701	43.713	0	84.60	0	8.8780	0	32.9530	4	25.536	0	83.906	0	247.4	4	86.6	4	-1E+10	1	-1E+10	1	-1E+10	1	-1E+10	1	-1E+10	1	-1E+10	1
4901784	75	C	07/24/2017	10:47	-132.701	43.713	0	86.30	0	8.7760	0	32.9660	4	25.562	0	85.592	0	245.1	4	85.6	4	-1E+10	1	-1E+10	1	-1E+10	1	-1E+10	1	-1E+10	1	-1E+10	1
4901784	75	C	07/24/2017	10:47	-132.701	43.713	0	88.80	0	8.8550	0	33.0380	4	25.606	0	88.071	0	240.2	4	84.1	4	-1E+10	1	-1E+10	1	-1E+10	1	-1E+10	1	-1E+10	1	-1E+10	1
4901784	75	C	07/24/2017	10:47	-132.701	43.713	0	90.40	0	8.8390	0	33.0500	4	25.618	0	89.657	0	239.2	4	83.7	4	-1E+10	1	-1E+10	1	-1E+10	1	-1E+10	1	-1E+10	1	-1E+10	1
4901784	75	C	07/24/2017	10:47	-132.701	43.713	0	91.80	0	8.7760	0	33.0600	4	25.636	0	91.045	0	238.6	4	83.4	4	-1E+10	1	-1E+10	1	-1E+10	1	-1E+10	1	-1E+10	1	-1E+10	1
4901784	75	C	07/24/2017	10:47	-132.701	43.713	0	93.30	0	8.7060	0	33.0670	4	25.652	0	92.533	0	237.8	4	83.0	4	-1E+10	1	-1E+10	1	-1E+10	1	-1E+10	1	-1E+10	1	-1E+10	1
4901784	75	C	07/24/2017	10:47	-132.701	43.713	0	94.80	0	8.6660	0	33.0750	4	25.664	0	94.020	0	235.8	4	82.2	4	-1E+10	1	-1E+10	1	-1E+10	1	-1E+10	1	-1E+10	1	-1E+10	1
4901784	75	C	07/24/2017	10:47	-132.701	43.713	0	96.30	0	8.6520	0	33.0850	4	25.674	0	95.507	0	233.0	4	81.3	4	-1E+10	1	-1E+10	1	-1E+10	1	-1E+10	1	-1E+10	1	-1E+10	1
4901784	75	C	07/24/2017	10:47	-132.701	43.713	0	97.80	0	8.5990	0	33.1070	4	25.700	0	96.995	0	229.4	4	79.9	4	-1E+10	1	-1E+10	1	-1E+10	1	-1E+10	1	-1E+10	1	-1E+10	1
4901784	75	C	07/24/2017	10:47	-132.701	43.713	0	99.30	0	8.6650	0	33.1470	4	25.721	0	98.482	0	224.3	4	78.3	4	-1E+10	1	-1E+10	1	-1E+10	1	-1E+10	1	-1E+10	1	-1E+10	1
4901784	75	C	07/24/2017	10:47	-132.701	43.713	0	102.30	0	8.7010	0	33.2390	4	25.788	0	101.456	0	214.5	4	75.0	4	-1E+10	1	-1E+10	1	-1E+10	1	-1E+10	1	-1E+10	1	-1E+10	1
4901784	75	C	07/24/2017	10:47	-132.701	43.713	0	104.60	0	8.7090	0	33.2690	4	25.810	0	103.737	0	208.3	4	72.8	4	-1E+10	1	-1E+10	1	-1E+10	1	-1E+10	1	-1E+10	1	-1E+10	1
4901784	75	C	07/24/2017	10:47	-132.701	43.713	0	107.80	0	8.6480	0	33.3320	4	25.869	0	106.910	0	197.6	4	69.0	4	-1E+10	1	-1E+10	1	-1E+10	1	-1E+10	1	-1E+10	1	-1E+10	1
4901784	75	C	07/24/2017	10:47	-132.701	43.713	0	110.30	0	8.7750	0	33.4480	4	25.940	0	109.388	0	185.0	4	64.9	4	-1E+10	1	-1E+10	1	-1E+10	1	-1E+10	1	-1E+10	1	-1E+10	1
4901784	75	C	07/24/2017	10:47	-132.701	43.713	0	112.80	0	8.7790	0	33.5170	4	25.994	0	111.867	0	178.2	4	62.5	4	-1E+10	1	-1E+10	1	-1E+10	1	-1E+10	1	-1E+10	1	-1E+10	1
4901784	75	C	07/24/2017	10:47	-132.701	43.713	0	115.50	0	8.8390	0	33.6170	4	26.063	0	114.544	0	170.1	4	59.8	4	-1E+10	1	-1E+10	1	-1E+10	1	-1E+10	1	-1E+10	1	-1E+10	1
4901784	75	C	07/24/2017	10:47	-132.701	43.713	0	117.20	0	8.8460	0	33.6360	4	26.077	0	116.229	0	168.5	4	59.2	4	-1E+10	1	-1E+10	1	-1E+10	1	-1E+10	1	-1E+10	1	-1E+10	1
4901784	75	C	07/24/2017	10:47	-132.701	43.713	0	119.60	0	8.8430	0	33.6620	4	26.097	0	118.609	0	167.6	4	58.9	4	-1E+10	1	-1E+10	1	-1E+10	1	-1E+10	1	-1E+10	1	-1E+10	1
4901784	75	C	07/24/2017	10:47	-132.701	43.713	0	122.10	0	8.7920	0	33.7070	4	26.141	0	121.087	0	170.1	4	59.8	4	-1E+10	1	-1E+10	1	-1E+10	1	-1E+10	1	-1E+10	1	-1E+10	1
4901784	75	C	07/24/2017	10:47	-132.701	43.713	0	124.70	0	8.7060	0	33.7430	4	26.182	0	123.665	0	177.1	4	62.1	4	-1E+10	1	-1E+10	1	-1E+10	1	-1E+10	1	-1E+10	1	-1E+10	1
4901784	75	C	07/24/2017	10:47	-132.701	43.713	0	127.20	0	8.6110	0	33.7700	4	26.218	0	126.144	0	183.6	4	64.3	4	-1E+10	1	-1E+10	1	-1E+10	1	-1E+10	1	-1E+10	1	-1E+10	1
4901784	75	C	07/24/2017	10:47	-132.701	43.713	0	129.90	0	8.5770	0	33.7990	4	26.246	0	128.820	0	183.4	4	64.2	4	-1E+10	1	-1E+10	1	-1E+10	1	-1E+10	1	-1E+10	1	-1E+10	1
4901784	75	C	07/24/2017	10:47	-132.701	43.713	0	132.40	0	8.5730	0	33.8290	4	26.270	0	131.299	0	182.3	4	63.8	4	-1E+10	1	-1E+10	1	-1E+10	1	-1E+10	1	-1E+10	1	-1E+10	1
4901784	75	C	07/24/2017	10:47	-132.701	43.713	0	135.10	0	8.5220	0	33.8640	4	26.306	0	133.975	0	180.4	4	63.1	4	-1E+10	1	-1E+10	1	-1E+10	1	-1E+10	1	-1E+10	1	-1E+10	1
4901784	75	C	07/24/2017	10:47	-132.701	43.713	0	137.80	0	8.4550	0	33.8860	4	26.333	0	136.652	0	179.1	4	62.6	4	-1E+10	1	-1E+10	1	-1E+10	1	-1E+10	1	-1E+10	1	-1E+10	1
4901784	75	C	07/24/2017	10:47	-132.701	43.713	0	139.70	0	8.4200	0	33.9000	4	26.349	0	138.536	0	178.7	4	62.4	4	-1E+10	1	-1E+10	1	-1E+10	1	-1E+10	1	-1E+10	1	-1E+10	1
4901784	75	C	07/24/2017	10:47	-132.701	43.713	0	142.50	0	8.4010	0	33.9100	4	26.360	0	141.311	0	178.2	4	62.2	4	-1E+10	1	-1E+10	1	-1E+10	1	-1E+10	1	-1E+10	1	-1E+10	1
4901784	75	C	07/24/2017	10:47	-132.701	43.713	0	145.30	0	8.3700	0	33.9200	4	26.373	0	144.087	0	177.8	4	62.0	4	-1E+10	1	-1E+10	1	-1E+10	1	-1E+10	1	-1E+10	1	-1E+10	1
4901784	75	C	07/24/2017	10:47	-132.701	43.713	0	147.10	0	8.3530	0	33.9270	4	26.381	0	145.871	0	177.5	4	61.9	4	-1E+10	1	-1E+10	1	-1E+10	1	-1E+10	1	-1E+10	1	-1E+10	1
4901784	75	C	07/24/2017	10:47	-132.701	43.713	0	149.50	0	8.3290	0	33.9360	4	26.392	0	148.250	0	177.0	4	61.7	4	-1E+10	1	-1E+10	1	-1E+10	1	-1E+10	1	-1E+10	1	-1E+10	1
4901784	75	C	07/24/2017	10:47	-132.701	43.713	0	152.00	0	8.3020	0	33.9400	4	26.399	0	150.729	0	176.4	4	61.4	4	-1E+10	1	-1E+10	1	-1E+10	1	-1E+10	1	-1E+10	1	-1E+10	1
4901784	75	C	07/24/2017	10:47	-132.701	43.713	0	155.00	0	8.2420	0	33.9520	4	26.417	0	153.702	0	175.4	4	61.0	4	-1E+10	1	-1E+10	1	-1E+10	1	-1E+10	1	-1E+10	1	-1E+10	1
4901784	75	C	07/24/2017	10:47	-132.701	43.713	0	157.40	0	8.2030	0	33.9580	4	26.428	0	156.081	0	175.0	4	60.8	4	-1E+10	1	-1E+10	1	-1E+10	1	-1E+10	1	-1E+10	1	-1E+10	1
4901784	75	C	07/24/2017	10:47	-132.701	43.713	0	159.60	0	8.1930	0	33.9600	4	26.431	0	158.262	0	174.5	4	60.6	4	-1E+10	1	-1E+10	1	-1E+10	1	-1E+10	1	-1E+10	1	-1E+10	1
4901784	75	C	07/24/2017	10:47	-132.701	43.713	0	162.80	0	8.1550	0	33.9670	4	26.442	0	161.434	0	173.9	4	60.4	4	-1E+10	1	-1E+10	1	-1E+10	1	-1E+10	1	-1E+10	1	-1E+10	1
4901784	75	C	07/24/2017	10:47	-132.701	43.713	0	165.20	0	8.1340	0	33.9710	4	26.449	0	163.813	0	173.2	4	60.1	4	-1E+10	1	-1E+10	1	-1E+10	1	-1E+10	1	-1E+10	1	-1E+10	1
4901784	75	C	07/24/2017	10:47	-132.701	43.713	0	167.60	0	8.0940	0	33.9740	4	26.457	0	166.192	0	172.3	4	59.7	4	-1E+10	1	-1E+10	1	-1E+10	1	-1E+10	1	-1E+10	1	-1E+10	1
4901784	75	C	07/24/2017	10:47	-132.701	43.713	0	170.00	0	8.0260	0	33.9760	4	26.469	0	168.571	0	171.2	4	59.3	4	-1E+10	1	-1E+10	1	-1E+10	1	-1E+10	1	-1E+10	1	-1E+10	1
4901784	75	C	07/24/2017	10:47	-132.701	43.713	0	172.40	0	7.9910	0	33.9780	4	26.475	0	170.949	0	171.0	4	59.1	4	-1E+10	1	-1E+10	1	-1E+10	1	-1E+10	1	-1E+10	1	-1E+10	1
4901784	75	C	07/24/2017	10:47	-132.701	43.713	0	174.80	0	7.9850	0	33.9840	4	26.481	0	173.328	0	169.9	4	58.8	4	-1E+10	1	-1E+10	1	-1E+10	1	-1E+10	1	-1E+10	1	-1E+10	1
4901784	75	C	07/24/2017	10:47	-132.701	43.713	0	177.30	0	7.9110	0	33.9860	4	26.493	0	175.806	0	168.6	4	58.2	4	-1E+10	1	-1E+10	1	-1E+10	1	-1E+10	1	-1E+10	1	-1E+10	1
4901784	75	C	07/24/2017	10:47	-132.701	43.713	0	179.80	0	7.8520	0	33.9880	4	26.504	0	178.284	0	167.6	4	57.8	4	-1E+10	1	-1E+10	1	-1E+10	1	-1E+10	1	-1E+10	1	-1E+10	1
4901784	75	C	07/24/2017	10:47	-132.701	43.713	0	182.30	0	7.8120	0	33.9880	4	26.510	0	180.762	0	166.5	4	57.4	4	-1E+10	1	-1E+10	1	-1E+10	1	-1E+10	1	-1E+10	1	-1E+10	1
4901784	75	C	07/24/2017	10:47	-132.701	43.713	0	184.90	0	7.7650	0	33.9890	4	26.517	0	183.339	0	165.0	4	56.8	4	-1E+10	1	-1E+10	1	-1E+10	1	-1E+10	1	-1E+10	1	-1E+10	1
4901784	75	C	07/24/2017	10:47	-132.701	43.713	0	187.40	0	7.7280	0	33.9880	4	26.522	0	185.817	0	163.9	4	56.4	4	-1E+10	1	-1E+10	1	-1E+10	1	-1E+10	1	-1E+10	1	-1E+10	1
4901784	75	C	07/24/2017	10:47	-132.701	43.713	0	189.90	0	7.6550	0	33.9890	4	26.533	0	188.294	0	162.4	4	55.8	4	-1E+10	1	-1E+10	1	-1E+10	1	-1E+10	1	-1E+10	1	-1E+10	1
4901784	75	C	07/24/2017	10:47	-132.701	43.713	0	192.40	0	7.6000	0	33.9900	4	26.542	0	190.772	0	161.0	4	55.2	4	-1E+10	1	-1E+10	1	-1E+10	1	-1E+10	1	-1E+10	1	-1E+10	1
4901784	75	C	07/24/2017	10:47	-132.701	43.713	0	194.80	0	7.5540	0	33.9890	4	26.548	0	193.151	0	159.4	4	54.6	4	-1E+10	1	-1E+10	1	-1E+10	1	-1E+10	1	-1E+10	1	-1E+10	1
4901784	75	C	07/24/2017	10:47	-132.701	43.713	0	197.30	0	7.5010	0	33.9890	4	26.555	0	195.628	0	157.9	4	54.0	4	-1E+10	1	-1E+10	1	-1E+10	1	-1E+10	1	-1E+10	1	-1E+10	1
4901784	75	C	07/24/2017	10:47	-132.701	43.713	0	199.90	0	7.4090	0	33.9890	4	26.568	0	198.205	0	156.4	4	53.4	4	-1E+10	1	-1E+10	1	-1E+10	1	-1E+10	1	-1E+10	1	-1E+10	1
4901784	75	C	07/24/2017	10:47	-132.701	43.713	0	202.40	0	7.3680	0	33.9900	4	26.575	0	200.683	0	155.2	4	52.9	4	-1E+10	1	-1E+10	1	-1E+10	1	-1E+10	1	-1E+10	1	-1E+10	1
4901784	75	C	07/24/2017	10:47	-132.701	43.713	0	204.90	0	7.3260	0	33.9890	4	26.580	0	203.160	0	153.8	4	52.4	4	-1E+10	1	-1E+10	1	-1E+10	1	-1E+10	1	-1E+10	1	-1E+10	1
4901784	75	C	07/24/2017	10:47	-132.701	43.713	0	207.50	0	7.2810	0	33.9890	4	26.586	0	205.737	0	152.3	4	51.9	4	-1E+10	1	-1E+10	1	-1E+10	1	-1E+10	1	-1E+10	1	-1E+10	1
4901784	75	C	07/24/2017	10:47	-132.701	43.713	0	210.10	0	7.2330	0	33.9890	4	26.593	0	208.313	0	150.6	4	51.2	4	-1E+10	1	-1E+10	1	-1E+10	1	-1E+10	1	-1E+10	1	-1E+10	1
4901784	75	C	07/24/2017	10:47	-132.701	43.713	0	212.70	0	7.1720	0	33.9870	4	26.600	0	210.890	0	149.0	4	50.6	4	-1E+10	1	-1E+10	1	-1E+10	1	-1E+10	1	-1E+10	1	-1E+10	1
4901784	75	C	07/24/2017	10:47	-132.701	43.713	0	215.30	0	7.0760	0	33.9880	4	26.614	0	213.466	0	147.4	4	49.9	4	-1E+10	1	-1E+10	1	-1E+10	1	-1E+10	1	-1E+10	1	-1E+10	1
4901784	75	C	07/24/2017	10:47	-132.701	43.713	0	217.10	0	7.0540	0	33.9880	4	26.617	0	215.250	0	146.5	4	49.6	4	-1E+10	1	-1E+10	1	-1E+10	1	-1E+10	1	-1E+10	1	-1E+10	1
4901784	75	C	07/24/2017	10:47	-132.701	43.713	0	219.80	0	7.0160	0	33.9870	4	26.622	0	217.926	0	145.2	4	49.1	4	-1E+10	1	-1E+10	1	-1E+10	1	-1E+10	1	-1E+10	1	-1E+10	1
4901784	75	C	07/24/2017	10:47	-132.701	43.713	0	222.40	0	6.9610	0	33.9870	4	26.629	0	220.502	0	143.9	4	48.6	4	-1E+10	1	-1E+10	1	-1E+10	1	-1E+10	1	-1E+10	1	-1E+10	1
4901784	75	C	07/24/2017	10:47	-132.701	43.713	0	225.20	0	6.9140	0	33.9860	4	26.635	0	223.277	0	142.7	4	48.2	4	-1E+10	1	-1E+10	1	-1E+10	1	-1E+10	1	-1E+10	1	-1E+10	1
4901784	75	C	07/24/2017	10:47	-132.701	43.713	0	227.90	0	6.8800	0	33.9850	4	26.639	0	225.952	0	141.4	4	47.7	4	-1E+10	1	-1E+10	1	-1E+10	1	-1E+10	1	-1E+10	1	-1E+10	1
4901784	75	C	07/24/2017	10:47	-132.701	43.713	0	229.70	0	6.8620	0	33.9840	4	26.640	0	227.736	0	140.5	4	47.4	4	-1E+10	1	-1E+10	1	-1E+10	1	-1E+10	1	-1E+10	1	-1E+10	1
4901784	75	C	07/24/2017	10:47	-132.701	43.713	0	232.40	0	6.8070	0	33.9840	4	26.648	0	230.411	0	139.0	4	46.8	4	-1E+10	1	-1E+10	1	-1E+10	1	-1E+10	1	-1E+10	1	-1E+10	1
4901784	75	C	07/24/2017	10:47	-132.701	43.713	0	235.10	0	6.7740	0	33.9810	4	26.650	0	233.087	0	137.5	4	46.3	4	-1E+10	1	-1E+10	1	-1E+10	1	-1E+10	1	-1E+10	1	-1E+10	1
4901784	75	C	07/24/2017	10:47	-132.701	43.713	0	236.90	0	6.7370	0	33.9820	4	26.656	0	234.870	0	136.4	4	45.8	4	-1E+10	1	-1E+10	1	-1E+10	1	-1E+10	1	-1E+10	1	-1E+10	1
4901784	75	C	07/24/2017	10:47	-132.701	43.713	0	239.70	0	6.6910	0	33.9790	4	26.659	0	237.645	0	134.6	4	45.2	4	-1E+10	1	-1E+10	1	-1E+10	1	-1E+10	1	-1E+10	1	-1E+10	1
4901784	75	C	07/24/2017	10:47	-132.701	43.713	0	242.40	0	6.6180	0	33.9820	4	26.671	0	240.320	0	132.7	4	44.5	4	-1E+10	1	-1E+10	1	-1E+10	1	-1E+10	1	-1E+10	1	-1E+10	1
4901784	75	C	07/24/2017	10:47	-132.701	43.713	0	245.20	0	6.5320	0	33.9800	4	26.681	0	243.094	0	131.5	4	44.0	4	-1E+10	1	-1E+10	1	-1E+10	1	-1E+10	1	-1E+10	1	-1E+10	1
4901784	75	C	07/24/2017	10:47	-132.701	43.713	0	247.90	0	6.5090	0	33.9790	4	26.683	0	245.769	0	130.2	4	43.5	4	-1E+10	1	-1E+10	1	-1E+10	1	-1E+10	1	-1E+10	1	-1E+10	1
4901784	75	C	07/24/2017	10:47	-132.701	43.713	0	249.80	0	6.4610	0	33.9800	4	26.691	0	247.652	0	129.3	4	43.2	4	-1E+10	1	-1E+10	1	-1E+10	1	-1E+10	1	-1E+10	1	-1E+10	1
4901784	75	C	07/24/2017	10:47	-132.701	43.713	0	252.60	0	6.4460	0	33.9790	4	26.692	0	250.426	0	128.1	4	42.8	4	-1E+10	1	-1E+10	1	-1E+10	1	-1E+10	1	-1E+10	1	-1E+10	1
4901784	75	C	07/24/2017	10:47	-132.701	43.713	0	255.40	0	6.3970	0	33.9830	4	26.701	0	253.200	0	126.5	4	42.2	4	-1E+10	1	-1E+10	1	-1E+10	1	-1E+10	1	-1E+10	1	-1E+10	1
4901784	75	C	07/24/2017	10:47	-132.701	43.713	0	257.30	0	6.3570	0	33.9800	4	26.704	0	255.083	0	125.9	4	42.0	4	-1E+10	1	-1E+10	1	-1E+10	1	-1E+10	1	-1E+10	1	-1E+10	1
4901784	75	C	07/24/2017	10:47	-132.701	43.713	0	260.20	0	6.3420	0	33.9800	4	26.706	0	257.956	0	125.0	4	41.7	4	-1E+10	1	-1E+10	1	-1E+10	1	-1E+10	1	-1E+10	1	-1E+10	1
4901784	75	C	07/24/2017	10:47	-132.701	43.713	0	263.00	0	6.3160	0	33.9800	4	26.710	0	260.730	0	124.1	4	41.3	4	-1E+10	1	-1E+10	1	-1E+10	1	-1E+10	1	-1E+10	1	-1E+10	1
4901784	75	C	07/24/2017	10:47	-132.701	43.713	0	264.90	0	6.3150	0	33.9790	4	26.709	0	262.613	0	123.4	4	41.1	4	-1E+10	1	-1E+10	1	-1E+10	1	-1E+10	1	-1E+10	1	-1E+10	1
4901784	75	C	07/24/2017	10:47	-132.701	43.713	0	267.70	0	6.2930	0	33.9790	4	26.712	0	265.387	0	122.3	4	40.7	4	-1E+10	1	-1E+10	1	-1E+10	1	-1E+10	1	-1E+10	1	-1E+10	1
4901784	75	C	07/24/2017	10:47	-132.701	43.713	0	270.50	0	6.2480	0	33.9820	4	26.720	0	268.161	0	121.0	4	40.2	4	-1E+10	1	-1E+10	1	-1E+10	1	-1E+10	1	-1E+10	1	-1E+10	1
4901784	75	C	07/24/2017	10:47	-132.701	43.713	0	272.30	0	6.2240	0	33.9800	4	26.721	0	269.944	0	120.5	4	40.0	4	-1E+10	1	-1E+10	1	-1E+10	1	-1E+10	1	-1E+10	1	-1E+10	1
4901784	75	C	07/24/2017	10:47	-132.701	43.713	0	275.10	0	6.2150	0	33.9810	4	26.723	0	272.718	0	119.7	4	39.8	4	-1E+10	1	-1E+10	1	-1E+10	1	-1E+10	1	-1E+10	1	-1E+10	1
4901784	75	C	07/24/2017	10:47	-132.701	43.713	0	277.90	0	6.2090	0	33.9800	4	26.723	0	275.492	0	118.7	4	39.4	4	-1E+10	1	-1E+10	1	-1E+10	1	-1E+10	1	-1E+10	1	-1E+10	1
4901784	75	C	07/24/2017	10:47	-132.701	43.713	0	279.80	0	6.2070	0	33.9790	4	26.723	0	277.374	0	117.8	4	39.1	4	-1E+10	1	-1E+10	1	-1E+10	1	-1E+10	1	-1E+10	1	-1E+10	1
4901784	75	C	07/24/2017	10:47	-132.701	43.713	0	282.60	0	6.1880	0	33.9780	4	26.725	0	280.148	0	116.0	4	38.5	4	-1E+10	1	-1E+10	1	-1E+10	1	-1E+10	1	-1E+10	1	-1E+10	1
4901784	75	C	07/24/2017	10:47	-132.701	43.713	0	285.40	0	6.1500	0	33.9800	4	26.731	0	282.921	0	114.1	4	37.9	4	-1E+10	1	-1E+10	1	-1E+10	1	-1E+10	1	-1E+10	1	-1E+10	1
4901784	75	C	07/24/2017	10:47	-132.701	43.713	0	287.30	0	6.1110	0	33.9800	4	26.736	0	284.804	0	113.1	4	37.5	4	-1E+10	1	-1E+10	1	-1E+10	1	-1E+10	1	-1E+10	1	-1E+10	1
4901784	75	C	07/24/2017	10:47	-132.701	43.713	0	290.20	0	6.0600	0	33.9800	4	26.742	0	287.676	0	111.4	4	36.9	4	-1E+10	1	-1E+10	1	-1E+10	1	-1E+10	1	-1E+10	1	-1E+10	1
4901784	75	C	07/24/2017	10:47	-132.701	43.713	0	293.10	0	6.0090	0	33.9810	4	26.750	0	290.549	0	110.1	4	36.4	4	-1E+10	1	-1E+10	1	-1E+10	1	-1E+10	1	-1E+10	1	-1E+10	1
4901784	75	C	07/24/2017	10:47	-132.701	43.713	0	295.00	0	5.9900	0	33.9820	4	26.753	0	292.431	0	109.5	4	36.2	4	-1E+10	1	-1E+10	1	-1E+10	1	-1E+10	1	-1E+10	1	-1E+10	1
4901784	75	C	07/24/2017	10:47	-132.701	43.713	0	296.90	0	5.9840	0	33.9810	4	26.753	0	294.313	0	108.6	4	35.9	4	-1E+10	1	-1E+10	1	-1E+10	1	-1E+10	1	-1E+10	1	-1E+10	1
4901784	75	C	07/24/2017	10:47	-132.701	43.713	0	299.80	0	5.9420	0	33.9820	4	26.759	0	297.186	0	107.1	4	35.4	4	-1E+10	1	-1E+10	1	-1E+10	1	-1E+10	1	-1E+10	1	-1E+10	1
4901784	75	C	07/24/2017	10:47	-132.701	43.713	0	302.70	0	5.9120	0	33.9820	4	26.763	0	300.059	0	105.8	4	34.9	4	-1E+10	1	-1E+10	1	-1E+10	1	-1E+10	1	-1E+10	1	-1E+10	1
4901784	75	C	07/24/2017	10:47	-132.701	43.713	0	304.60	0	5.8780	0	33.9830	4	26.768	0	301.941	0	105.2	4	34.7	4	-1E+10	1	-1E+10	1	-1E+10	1	-1E+10	1	-1E+10	1	-1E+10	1
4901784	75	C	07/24/2017	10:47	-132.701	43.713	0	307.50	0	5.8540	0	33.9840	4	26.771	0	304.813	0	103.8	4	34.2	4	-1E+10	1	-1E+10	1	-1E+10	1	-1E+10	1	-1E+10	1	-1E+10	1
4901784	75	C	07/24/2017	10:47	-132.701	43.713	0	310.40	0	5.8290	0	33.9840	4	26.775	0	307.686	0	102.6	4	33.8	4	-1E+10	1	-1E+10	1	-1E+10	1	-1E+10	1	-1E+10	1	-1E+10	1
4901784	75	C	07/24/2017	10:47	-132.701	43.713	0	312.30	0	5.8140	0	33.9840	4	26.776	0	309.568	0	101.4	4	33.4	4	-1E+10	1	-1E+10	1	-1E+10	1	-1E+10	1	-1E+10	1	-1E+10	1
4901784	75	C	07/24/2017	10:47	-132.701	43.713	0	315.20	0	5.7710	0	33.9860	4	26.783	0	312.440	0	100.0	4	32.9	4	-1E+10	1	-1E+10	1	-1E+10	1	-1E+10	1	-1E+10	1	-1E+10	1
4901784	75	C	07/24/2017	10:47	-132.701	43.713	0	318.10	0	5.7590	0	33.9870	4	26.786	0	315.313	0	98.8	4	32.5	4	-1E+10	1	-1E+10	1	-1E+10	1	-1E+10	1	-1E+10	1	-1E+10	1
4901784	75	C	07/24/2017	10:47	-132.701	43.713	0	320.00	0	5.7420	0	33.9870	4	26.788	0	317.195	0	98.2	4	32.3	4	-1E+10	1	-1E+10	1	-1E+10	1	-1E+10	1	-1E+10	1	-1E+10	1
4901784	75	C	07/24/2017	10:47	-132.701	43.713	0	322.00	0	5.7240	0	33.9860	4	26.789	0	319.175	0	97.4	4	32.0	4	-1E+10	1	-1E+10	1	-1E+10	1	-1E+10	1	-1E+10	1	-1E+10	1
4901784	75	C	07/24/2017	10:47	-132.701	43.713	0	324.90	0	5.6940	0	33.9880	4	26.794	0	322.048	0	95.4	4	31.3	4	-1E+10	1	-1E+10	1	-1E+10	1	-1E+10	1	-1E+10	1	-1E+10	1
4901784	75	C	07/24/2017	10:47	-132.701	43.713	0	327.80	0	5.6850	0	33.9900	4	26.797	0	324.920	0	93.4	4	30.7	4	-1E+10	1	-1E+10	1	-1E+10	1	-1E+10	1	-1E+10	1	-1E+10	1
4901784	75	C	07/24/2017	10:47	-132.701	43.713	0	329.70	0	5.6750	0	33.9910	4	26.799	0	326.802	0	92.5	4	30.3	4	-1E+10	1	-1E+10	1	-1E+10	1	-1E+10	1	-1E+10	1	-1E+10	1
4901784	75	C	07/24/2017	10:47	-132.701	43.713	0	332.70	0	5.6510	0	33.9920	4	26.803	0	329.773	0	90.9	4	29.8	4	-1E+10	1	-1E+10	1	-1E+10	1	-1E+10	1	-1E+10	1	-1E+10	1
4901784	75	C	07/24/2017	10:47	-132.701	43.713	0	335.60	0	5.6100	0	33.9950	4	26.810	0	332.645	0	89.7	4	29.4	4	-1E+10	1	-1E+10	1	-1E+10	1	-1E+10	1	-1E+10	1	-1E+10	1
4901784	75	C	07/24/2017	10:47	-132.701	43.713	0	337.50	0	5.5950	0	33.9950	4	26.812	0	334.527	0	89.1	4	29.2	4	-1E+10	1	-1E+10	1	-1E+10	1	-1E+10	1	-1E+10	1	-1E+10	1
4901784	75	C	07/24/2017	10:47	-132.701	43.713	0	339.40	0	5.5820	0	33.9950	4	26.814	0	336.409	0	88.5	4	29.0	4	-1E+10	1	-1E+10	1	-1E+10	1	-1E+10	1	-1E+10	1	-1E+10	1
4901784	75	C	07/24/2017	10:47	-132.701	43.713	0	342.40	0	5.5450	0	33.9970	4	26.820	0	339.380	0	87.6	4	28.7	4	-1E+10	1	-1E+10	1	-1E+10	1	-1E+10	1	-1E+10	1	-1E+10	1
4901784	75	C	07/24/2017	10:47	-132.701	43.713	0	344.90	0	5.5240	0	33.9980	4	26.823	0	341.856	0	87.0	4	28.5	4	-1E+10	1	-1E+10	1	-1E+10	1	-1E+10	1	-1E+10	1	-1E+10	1
4901784	75	C	07/24/2017	10:47	-132.701	43.713	0	347.30	0	5.5070	0	34.0000	4	26.827	0	344.232	0	86.6	4	28.3	4	-1E+10	1	-1E+10	1	-1E+10	1	-1E+10	1	-1E+10	1	-1E+10	1
4901784	75	C	07/24/2017	10:47	-132.701	43.713	0	349.80	0	5.4700	0	33.9990	4	26.830	0	346.708	0	86.7	4	28.3	4	-1E+10	1	-1E+10	1	-1E+10	1	-1E+10	1	-1E+10	1	-1E+10	1
4901784	75	C	07/24/2017	10:47	-132.701	43.713	0	352.20	0	5.4510	0	33.9980	4	26.832	0	349.085	0	86.6	4	28.2	4	-1E+10	1	-1E+10	1	-1E+10	1	-1E+10	1	-1E+10	1	-1E+10	1
4901784	75	C	07/24/2017	10:47	-132.701	43.713	0	354.70	0	5.4340	0	33.9970	4	26.833	0	351.561	0	85.8	4	28.0	4	-1E+10	1	-1E+10	1	-1E+10	1	-1E+10	1	-1E+10	1	-1E+10	1
4901784	75	C	07/24/2017	10:47	-132.701	43.713	0	357.80	0	5.4220	0	34.0000	4	26.837	0	354.631	0	83.8	4	27.3	4	-1E+10	1	-1E+10	1	-1E+10	1	-1E+10	1	-1E+10	1	-1E+10	1
4901784	75	C	07/24/2017	10:47	-132.701	43.713	0	360.30	0	5.3910	0	34.0010	4	26.841	0	357.106	0	83.2	4	27.1	4	-1E+10	1	-1E+10	1	-1E+10	1	-1E+10	1	-1E+10	1	-1E+10	1
4901784	75	C	07/24/2017	10:47	-132.701	43.713	0	362.70	0	5.3680	0	34.0010	4	26.844	0	359.483	0	82.8	4	27.0	4	-1E+10	1	-1E+10	1	-1E+10	1	-1E+10	1	-1E+10	1	-1E+10	1
4901784	75	C	07/24/2017	10:47	-132.701	43.713	0	365.20	0	5.3100	0	34.0000	4	26.850	0	361.959	0	82.3	4	26.8	4	-1E+10	1	-1E+10	1	-1E+10	1	-1E+10	1	-1E+10	1	-1E+10	1
4901784	75	C	07/24/2017	10:47	-132.701	43.713	0	367.70	0	5.2680	0	34.0010	4	26.856	0	364.434	0	80.9	4	26.3	4	-1E+10	1	-1E+10	1	-1E+10	1	-1E+10	1	-1E+10	1	-1E+10	1
4901784	75	C	07/24/2017	10:47	-132.701	43.713	0	370.10	0	5.2360	0	34.0030	4	26.861	0	366.811	0	79.7	4	25.9	4	-1E+10	1	-1E+10	1	-1E+10	1	-1E+10	1	-1E+10	1	-1E+10	1
4901784	75	C	07/24/2017	10:47	-132.701	43.713	0	372.70	0	5.2120	0	34.0070	4	26.867	0	369.386	0	78.3	4	25.4	4	-1E+10	1	-1E+10	1	-1E+10	1	-1E+10	1	-1E+10	1	-1E+10	1
4901784	75	C	07/24/2017	10:47	-132.701	43.713	0	375.20	0	5.1830	0	34.0100	4	26.873	0	371.861	0	77.2	4	25.0	4	-1E+10	1	-1E+10	1	-1E+10	1	-1E+10	1	-1E+10	1	-1E+10	1
4901784	75	C	07/24/2017	10:47	-132.701	43.713	0	377.70	0	5.1820	0	34.0090	4	26.872	0	374.337	0	76.1	4	24.7	4	-1E+10	1	-1E+10	1	-1E+10	1	-1E+10	1	-1E+10	1	-1E+10	1
4901784	75	C	07/24/2017	10:47	-132.701	43.713	0	380.20	0	5.1590	0	34.0120	4	26.877	0	376.812	0	74.7	4	24.2	4	-1E+10	1	-1E+10	1	-1E+10	1	-1E+10	1	-1E+10	1	-1E+10	1
4901784	75	C	07/24/2017	10:47	-132.701	43.713	0	382.60	0	5.1430	0	34.0140	4	26.881	0	379.188	0	73.5	4	23.8	4	-1E+10	1	-1E+10	1	-1E+10	1	-1E+10	1	-1E+10	1	-1E+10	1
4901784	75	C	07/24/2017	10:47	-132.701	43.713	0	385.20	0	5.1230	0	34.0160	4	26.885	0	381.763	0	72.2	4	23.4	4	-1E+10	1	-1E+10	1	-1E+10	1	-1E+10	1	-1E+10	1	-1E+10	1
4901784	75	C	07/24/2017	10:47	-132.701	43.713	0	387.70	0	5.1090	0	34.0180	4	26.888	0	384.238	0	70.8	4	22.9	4	-1E+10	1	-1E+10	1	-1E+10	1	-1E+10	1	-1E+10	1	-1E+10	1
4901784	75	C	07/24/2017	10:47	-132.701	43.713	0	390.20	0	5.0830	0	34.0220	4	26.894	0	386.714	0	69.3	4	22.4	4	-1E+10	1	-1E+10	1	-1E+10	1	-1E+10	1	-1E+10	1	-1E+10	1
4901784	75	C	07/24/2017	10:47	-132.701	43.713	0	392.80	0	5.0610	0	34.0240	4	26.898	0	389.288	0	67.7	4	21.9	4	-1E+10	1	-1E+10	1	-1E+10	1	-1E+10	1	-1E+10	1	-1E+10	1
4901784	75	C	07/24/2017	10:47	-132.701	43.713	0	395.30	0	5.0380	0	34.0280	4	26.904	0	391.763	0	66.1	4	21.4	4	-1E+10	1	-1E+10	1	-1E+10	1	-1E+10	1	-1E+10	1	-1E+10	1
4901784	75	C	07/24/2017	10:47	-132.701	43.713	0	397.80	0	5.0210	0	34.0330	4	26.910	0	394.238	0	64.7	4	20.9	4	-1E+10	1	-1E+10	1	-1E+10	1	-1E+10	1	-1E+10	1	-1E+10	1
4901784	75	C	07/24/2017	10:47	-132.701	43.713	0	400.40	0	4.9960	0	34.0330	4	26.913	0	396.813	0	63.2	4	20.4	4	-1E+10	1	-1E+10	1	-1E+10	1	-1E+10	1	-1E+10	1	-1E+10	1
4901784	75	C	07/24/2017	10:47	-132.701	43.713	0	402.10	0	4.9830	0	34.0400	4	26.920	0	398.496	0	62.3	4	20.1	4	-1E+10	1	-1E+10	1	-1E+10	1	-1E+10	1	-1E+10	1	-1E+10	1
4901784	75	C	07/24/2017	10:47	-132.701	43.713	0	404.70	0	4.9430	0	34.0430	4	26.927	0	401.070	0	61.4	4	19.8	4	-1E+10	1	-1E+10	1	-1E+10	1	-1E+10	1	-1E+10	1	-1E+10	1
4901784	75	C	07/24/2017	10:47	-132.701	43.713	0	407.30	0	4.9180	0	34.0470	4	26.933	0	403.644	0	60.4	4	19.5	4	-1E+10	1	-1E+10	1	-1E+10	1	-1E+10	1	-1E+10	1	-1E+10	1
4901784	75	C	07/24/2017	10:47	-132.701	43.713	0	409.90	0	4.8980	0	34.0480	4	26.936	0	406.218	0	59.4	4	19.1	4	-1E+10	1	-1E+10	1	-1E+10	1	-1E+10	1	-1E+10	1	-1E+10	1
4901784	75	C	07/24/2017	10:47	-132.701	43.713	0	412.50	0	4.8760	0	34.0520	4	26.941	0	408.792	0	58.3	4	18.8	4	-1E+10	1	-1E+10	1	-1E+10	1	-1E+10	1	-1E+10	1	-1E+10	1
4901784	75	C	07/24/2017	10:47	-132.701	43.713	0	415.10	0	4.8790	0	34.0570	4	26.945	0	411.366	0	57.2	4	18.4	4	-1E+10	1	-1E+10	1	-1E+10	1	-1E+10	1	-1E+10	1	-1E+10	1
4901784	75	C	07/24/2017	10:47	-132.701	43.713	0	417.70	0	4.8810	0	34.0600	4	26.947	0	413.940	0	56.6	4	18.2	4	-1E+10	1	-1E+10	1	-1E+10	1	-1E+10	1	-1E+10	1	-1E+10	1
4901784	75	C	07/24/2017	10:47	-132.701	43.713	0	419.50	0	4.8810	0	34.0620	4	26.949	0	415.722	0	56.2	4	18.1	4	-1E+10	1	-1E+10	1	-1E+10	1	-1E+10	1	-1E+10	1	-1E+10	1
4901784	75	C	07/24/2017	10:47	-132.701	43.713	0	422.10	0	4.8800	0	34.0620	4	26.949	0	418.296	0	55.6	4	17.9	4	-1E+10	1	-1E+10	1	-1E+10	1	-1E+10	1	-1E+10	1	-1E+10	1
4901784	75	C	07/24/2017	10:47	-132.701	43.713	0	424.70	0	4.8690	0	34.0660	4	26.953	0	420.870	0	54.9	4	17.7	4	-1E+10	1	-1E+10	1	-1E+10	1	-1E+10	1	-1E+10	1	-1E+10	1
4901784	75	C	07/24/2017	10:47	-132.701	43.713	0	427.40	0	4.8590	0	34.0670	4	26.955	0	423.543	0	54.4	4	17.5	4	-1E+10	1	-1E+10	1	-1E+10	1	-1E+10	1	-1E+10	1	-1E+10	1
4901784	75	C	07/24/2017	10:47	-132.701	43.713	0	430.00	0	4.8470	0	34.0690	4	26.958	0	426.117	0	54.1	4	17.4	4	-1E+10	1	-1E+10	1	-1E+10	1	-1E+10	1	-1E+10	1	-1E+10	1
4901784	75	C	07/24/2017	10:47	-132.701	43.713	0	432.70	0	4.8420	0	34.0690	4	26.959	0	428.790	0	53.7	4	17.3	4	-1E+10	1	-1E+10	1	-1E+10	1	-1E+10	1	-1E+10	1	-1E+10	1
4901784	75	C	07/24/2017	10:47	-132.701	43.713	0	435.30	0	4.8300	0	34.0710	4	26.962	0	431.364	0	53.3	4	17.2	4	-1E+10	1	-1E+10	1	-1E+10	1	-1E+10	1	-1E+10	1	-1E+10	1
4901784	75	C	07/24/2017	10:47	-132.701	43.713	0	437.10	0	4.8040	0	34.0720	4	26.966	0	433.146	0	53.2	4	17.1	4	-1E+10	1	-1E+10	1	-1E+10	1	-1E+10	1	-1E+10	1	-1E+10	1
4901784	75	C	07/24/2017	10:47	-132.701	43.713	0	439.80	0	4.7860	0	34.0710	4	26.967	0	435.818	0	52.9	4	17.0	4	-1E+10	1	-1E+10	1	-1E+10	1	-1E+10	1	-1E+10	1	-1E+10	1
4901784	75	C	07/24/2017	10:47	-132.701	43.713	0	442.40	0	4.7660	0	34.0720	4	26.970	0	438.392	0	52.4	4	16.8	4	-1E+10	1	-1E+10	1	-1E+10	1	-1E+10	1	-1E+10	1	-1E+10	1
4901784	75	C	07/24/2017	10:47	-132.701	43.713	0	445.20	0	4.7560	0	34.0720	4	26.971	0	441.164	0	51.6	4	16.6	4	-1E+10	1	-1E+10	1	-1E+10	1	-1E+10	1	-1E+10	1	-1E+10	1
4901784	75	C	07/24/2017	10:47	-132.701	43.713	0	447.90	0	4.7450	0	34.0740	4	26.974	0	443.836	0	50.5	4	16.2	4	-1E+10	1	-1E+10	1	-1E+10	1	-1E+10	1	-1E+10	1	-1E+10	1
4901784	75	C	07/24/2017	10:47	-132.701	43.713	0	449.60	0	4.7370	0	34.0770	4	26.977	0	445.519	0	49.7	4	16.0	4	-1E+10	1	-1E+10	1	-1E+10	1	-1E+10	1	-1E+10	1	-1E+10	1
4901784	75	C	07/24/2017	10:47	-132.701	43.713	0	452.30	0	4.7360	0	34.0800	4	26.980	0	448.192	0	47.9	4	15.4	4	-1E+10	1	-1E+10	1	-1E+10	1	-1E+10	1	-1E+10	1	-1E+10	1
4901784	75	C	07/24/2017	10:47	-132.701	43.713	0	455.00	0	4.7530	0	34.0880	4	26.984	0	450.864	0	46.1	4	14.8	4	-1E+10	1	-1E+10	1	-1E+10	1	-1E+10	1	-1E+10	1	-1E+10	1
4901784	75	C	07/24/2017	10:47	-132.701	43.713	0	457.70	0	4.7710	0	34.0960	4	26.988	0	453.537	0	45.0	4	14.4	4	-1E+10	1	-1E+10	1	-1E+10	1	-1E+10	1	-1E+10	1	-1E+10	1
4901784	75	C	07/24/2017	10:47	-132.701	43.713	0	460.40	0	4.7680	0	34.0990	4	26.991	0	456.209	0	44.1	4	14.2	4	-1E+10	1	-1E+10	1	-1E+10	1	-1E+10	1	-1E+10	1	-1E+10	1
4901784	75	C	07/24/2017	10:47	-132.701	43.713	0	462.30	0	4.7630	0	34.1010	4	26.993	0	458.090	0	43.6	4	14.0	4	-1E+10	1	-1E+10	1	-1E+10	1	-1E+10	1	-1E+10	1	-1E+10	1
4901784	75	C	07/24/2017	10:47	-132.701	43.713	0	465.00	0	4.7460	0	34.1050	4	26.998	0	460.762	0	42.8	4	13.8	4	-1E+10	1	-1E+10	1	-1E+10	1	-1E+10	1	-1E+10	1	-1E+10	1
4901784	75	C	07/24/2017	10:47	-132.701	43.713	0	467.80	0	4.7420	0	34.1060	4	27.000	0	463.534	0	42.1	4	13.5	4	-1E+10	1	-1E+10	1	-1E+10	1	-1E+10	1	-1E+10	1	-1E+10	1
4901784	75	C	07/24/2017	10:47	-132.701	43.713	0	469.60	0	4.7370	0	34.1080	4	27.002	0	465.315	0	41.5	4	13.3	4	-1E+10	1	-1E+10	1	-1E+10	1	-1E+10	1	-1E+10	1	-1E+10	1
4901784	75	C	07/24/2017	10:47	-132.701	43.713	0	472.40	0	4.7260	0	34.1110	4	27.005	0	468.086	0	40.5	4	13.0	4	-1E+10	1	-1E+10	1	-1E+10	1	-1E+10	1	-1E+10	1	-1E+10	1
4901784	75	C	07/24/2017	10:47	-132.701	43.713	0	475.20	0	4.7070	0	34.1150	4	27.011	0	470.858	0	39.6	4	12.7	4	-1E+10	1	-1E+10	1	-1E+10	1	-1E+10	1	-1E+10	1	-1E+10	1
4901784	75	C	07/24/2017	10:47	-132.701	43.713	0	477.10	0	4.6970	0	34.1160	4	27.013	0	472.738	0	39.0	4	12.5	4	-1E+10	1	-1E+10	1	-1E+10	1	-1E+10	1	-1E+10	1	-1E+10	1
4901784	75	C	07/24/2017	10:47	-132.701	43.713	0	479.80	0	4.6830	0	34.1210	4	27.018	0	475.410	0	38.1	4	12.2	4	-1E+10	1	-1E+10	1	-1E+10	1	-1E+10	1	-1E+10	1	-1E+10	1
4901784	75	C	07/24/2017	10:47	-132.701	43.713	0	482.70	0	4.6580	0	34.1260	4	27.025	0	478.281	0	37.4	4	12.0	4	-1E+10	1	-1E+10	1	-1E+10	1	-1E+10	1	-1E+10	1	-1E+10	1
4901784	75	C	07/24/2017	10:47	-132.701	43.713	0	484.60	0	4.6550	0	34.1260	4	27.025	0	480.161	0	37.0	4	11.9	4	-1E+10	1	-1E+10	1	-1E+10	1	-1E+10	1	-1E+10	1	-1E+10	1
4901784	75	C	07/24/2017	10:47	-132.701	43.713	0	487.40	0	4.6330	0	34.1310	4	27.032	0	482.932	0	36.4	4	11.7	4	-1E+10	1	-1E+10	1	-1E+10	1	-1E+10	1	-1E+10	1	-1E+10	1
4901784	75	C	07/24/2017	10:47	-132.701	43.713	0	490.30	0	4.6230	0	34.1320	4	27.034	0	485.802	0	35.9	4	11.5	4	-1E+10	1	-1E+10	1	-1E+10	1	-1E+10	1	-1E+10	1	-1E+10	1
4901784	75	C	07/24/2017	10:47	-132.701	43.713	0	492.30	0	4.6180	0	34.1320	4	27.034	0	487.781	0	35.5	4	11.4	4	-1E+10	1	-1E+10	1	-1E+10	1	-1E+10	1	-1E+10	1	-1E+10	1
4901784	75	C	07/24/2017	10:47	-132.701	43.713	0	495.10	0	4.6010	0	34.1380	4	27.041	0	490.552	0	34.8	4	11.1	4	-1E+10	1	-1E+10	1	-1E+10	1	-1E+10	1	-1E+10	1	-1E+10	1
4901784	75	C	07/24/2017	10:47	-132.701	43.713	0	498.00	0	4.5870	0	34.1410	4	27.045	0	493.422	0	34.3	4	11.0	4	-1E+10	1	-1E+10	1	-1E+10	1	-1E+10	1	-1E+10	1	-1E+10	1
4901784	75	C	07/24/2017	10:47	-132.701	43.713	0	500.00	0	4.5750	0	34.1430	4	27.048	0	495.402	0	34.1	4	10.9	4	-1E+10	1	-1E+10	1	-1E+10	1	-1E+10	1	-1E+10	1	-1E+10	1
4901784	75	C	07/24/2017	10:47	-132.701	43.713	0	504.50	0	4.5630	0	34.1460	4	27.051	0	499.855	0	33.5	4	10.7	4	-1E+10	1	-1E+10	1	-1E+10	1	-1E+10	1	-1E+10	1	-1E+10	1
4901784	75	C	07/24/2017	10:47	-132.701	43.713	0	509.40	0	4.5350	0	34.1500	4	27.058	0	504.704	0	33.0	4	10.5	4	-1E+10	1	-1E+10	1	-1E+10	1	-1E+10	1	-1E+10	1	-1E+10	1
4901784	75	C	07/24/2017	10:47	-132.701	43.713	0	514.40	0	4.5090	0	34.1520	4	27.062	0	509.652	0	32.2	4	10.3	4	-1E+10	1	-1E+10	1	-1E+10	1	-1E+10	1	-1E+10	1	-1E+10	1
4901784	75	C	07/24/2017	10:47	-132.701	43.713	0	519.30	0	4.4980	0	34.1580	4	27.068	0	514.500	0	31.3	4	10.0	4	-1E+10	1	-1E+10	1	-1E+10	1	-1E+10	1	-1E+10	1	-1E+10	1
4901784	75	C	07/24/2017	10:47	-132.701	43.713	0	524.20	0	4.4900	0	34.1610	4	27.071	0	519.349	0	30.7	4	9.8	4	-1E+10	1	-1E+10	1	-1E+10	1	-1E+10	1	-1E+10	1	-1E+10	1
4901784	75	C	07/24/2017	10:47	-132.701	43.713	0	529.90	0	4.4500	0	34.1650	4	27.079	0	524.989	0	30.0	4	9.6	4	-1E+10	1	-1E+10	1	-1E+10	1	-1E+10	1	-1E+10	1	-1E+10	1
4901784	75	C	07/24/2017	10:47	-132.701	43.713	0	535.80	0	4.4160	0	34.1720	4	27.088	0	530.827	0	29.2	4	9.3	4	-1E+10	1	-1E+10	1	-1E+10	1	-1E+10	1	-1E+10	1	-1E+10	1
4901784	75	C	07/24/2017	10:47	-132.701	43.713	0	540.00	0	4.3960	0	34.1740	4	27.092	0	534.982	0	28.9	4	9.2	4	-1E+10	1	-1E+10	1	-1E+10	1	-1E+10	1	-1E+10	1	-1E+10	1
4901784	75	C	07/24/2017	10:47	-132.701	43.713	0	545.00	0	4.3830	0	34.1770	4	27.096	0	539.929	0	28.1	4	9.0	4	-1E+10	1	-1E+10	1	-1E+10	1	-1E+10	1	-1E+10	1	-1E+10	1
4901784	75	C	07/24/2017	10:47	-132.701	43.713	0	550.00	0	4.3590	0	34.1830	4	27.103	0	544.876	0	27.1	4	8.6	4	-1E+10	1	-1E+10	1	-1E+10	1	-1E+10	1	-1E+10	1	-1E+10	1
4901784	75	C	07/24/2017	10:47	-132.701	43.713	0	554.20	0	4.3380	0	34.1870	4	27.109	0	549.032	0	26.4	4	8.4	4	-1E+10	1	-1E+10	1	-1E+10	1	-1E+10	1	-1E+10	1	-1E+10	1
4901784	75	C	07/24/2017	10:47	-132.701	43.713	0	559.30	0	4.3150	0	34.1930	4	27.116	0	554.077	0	25.8	4	8.2	4	-1E+10	1	-1E+10	1	-1E+10	1	-1E+10	1	-1E+10	1	-1E+10	1
4901784	75	C	07/24/2017	10:47	-132.701	43.713	0	564.20	0	4.3040	0	34.1960	4	27.119	0	558.925	0	25.3	4	8.0	4	-1E+10	1	-1E+10	1	-1E+10	1	-1E+10	1	-1E+10	1	-1E+10	1
4901784	75	C	07/24/2017	10:47	-132.701	43.713	0	569.20	0	4.2910	0	34.1990	4	27.123	0	563.871	0	24.8	4	7.9	4	-1E+10	1	-1E+10	1	-1E+10	1	-1E+10	1	-1E+10	1	-1E+10	1
4901784	75	C	07/24/2017	10:47	-132.701	43.713	0	574.20	0	4.2820	0	34.2020	4	27.126	0	568.818	0	24.2	4	7.7	4	-1E+10	1	-1E+10	1	-1E+10	1	-1E+10	1	-1E+10	1	-1E+10	1
4901784	75	C	07/24/2017	10:47	-132.701	43.713	0	579.40	0	4.2680	0	34.2060	4	27.131	0	573.962	0	23.6	4	7.5	4	-1E+10	1	-1E+10	1	-1E+10	1	-1E+10	1	-1E+10	1	-1E+10	1
4901784	75	C	07/24/2017	10:47	-132.701	43.713	0	584.40	0	4.2510	0	34.2110	4	27.137	0	578.908	0	22.9	4	7.3	4	-1E+10	1	-1E+10	1	-1E+10	1	-1E+10	1	-1E+10	1	-1E+10	1
4901784	75	C	07/24/2017	10:47	-132.701	43.713	0	589.50	0	4.2400	0	34.2140	4	27.141	0	583.953	0	22.2	4	7.1	4	-1E+10	1	-1E+10	1	-1E+10	1	-1E+10	1	-1E+10	1	-1E+10	1
4901784	75	C	07/24/2017	10:47	-132.701	43.713	0	594.60	0	4.2120	0	34.2220	4	27.150	0	588.998	0	21.5	4	6.8	4	-1E+10	1	-1E+10	1	-1E+10	1	-1E+10	1	-1E+10	1	-1E+10	1
4901784	75	C	07/24/2017	10:47	-132.701	43.713	0	599.70	0	4.1870	0	34.2270	4	27.157	0	594.042	0	20.9	4	6.6	4	-1E+10	1	-1E+10	1	-1E+10	1	-1E+10	1	-1E+10	1	-1E+10	1
4901784	75	C	07/24/2017	10:47	-132.701	43.713	0	604.90	0	4.1740	0	34.2320	4	27.162	0	599.186	0	20.2	4	6.4	4	-1E+10	1	-1E+10	1	-1E+10	1	-1E+10	1	-1E+10	1	-1E+10	1
4901784	75	C	07/24/2017	10:47	-132.701	43.713	0	610.10	0	4.1720	0	34.2360	4	27.165	0	604.329	0	19.6	4	6.2	4	-1E+10	1	-1E+10	1	-1E+10	1	-1E+10	1	-1E+10	1	-1E+10	1
4901784	75	C	07/24/2017	10:47	-132.701	43.713	0	615.20	0	4.1560	0	34.2420	4	27.172	0	609.373	0	19.1	4	6.0	4	-1E+10	1	-1E+10	1	-1E+10	1	-1E+10	1	-1E+10	1	-1E+10	1
4901784	75	C	07/24/2017	10:47	-132.701	43.713	0	620.50	0	4.1330	0	34.2470	4	27.178	0	614.615	0	18.7	4	5.9	4	-1E+10	1	-1E+10	1	-1E+10	1	-1E+10	1	-1E+10	1	-1E+10	1
4901784	75	C	07/24/2017	10:47	-132.701	43.713	0	625.70	0	4.1200	0	34.2510	4	27.183	0	619.758	0	18.4	4	5.8	4	-1E+10	1	-1E+10	1	-1E+10	1	-1E+10	1	-1E+10	1	-1E+10	1
4901784	75	C	07/24/2017	10:47	-132.701	43.713	0	630.20	0	4.1140	0	34.2530	4	27.185	0	624.209	0	18.1	4	5.7	4	-1E+10	1	-1E+10	1	-1E+10	1	-1E+10	1	-1E+10	1	-1E+10	1
4901784	75	C	07/24/2017	10:47	-132.701	43.713	0	634.60	0	4.1000	0	34.2570	4	27.190	0	628.560	0	17.7	4	5.6	4	-1E+10	1	-1E+10	1	-1E+10	1	-1E+10	1	-1E+10	1	-1E+10	1
4901784	75	C	07/24/2017	10:47	-132.701	43.713	0	639.90	0	4.0880	0	34.2600	4	27.193	0	633.802	0	17.3	4	5.5	4	-1E+10	1	-1E+10	1	-1E+10	1	-1E+10	1	-1E+10	1	-1E+10	1
4901784	75	C	07/24/2017	10:47	-132.701	43.713	0	645.30	0	4.0710	0	34.2650	4	27.199	0	639.142	0	16.8	4	5.3	4	-1E+10	1	-1E+10	1	-1E+10	1	-1E+10	1	-1E+10	1	-1E+10	1
4901784	75	C	07/24/2017	10:47	-132.701	43.713	0	649.80	0	4.0480	0	34.2730	4	27.208	0	643.592	0	16.4	4	5.2	4	-1E+10	1	-1E+10	1	-1E+10	1	-1E+10	1	-1E+10	1	-1E+10	1
4901784	75	C	07/24/2017	10:47	-132.701	43.713	0	654.40	0	4.0400	0	34.2740	4	27.210	0	648.141	0	16.1	4	5.1	4	-1E+10	1	-1E+10	1	-1E+10	1	-1E+10	1	-1E+10	1	-1E+10	1
4901784	75	C	07/24/2017	10:47	-132.701	43.713	0	659.80	0	4.0240	0	34.2810	4	27.217	0	653.481	0	15.7	4	5.0	4	-1E+10	1	-1E+10	1	-1E+10	1	-1E+10	1	-1E+10	1	-1E+10	1
4901784	75	C	07/24/2017	10:47	-132.701	43.713	0	665.30	0	4.0120	0	34.2850	4	27.221	0	658.920	0	15.4	4	4.9	4	-1E+10	1	-1E+10	1	-1E+10	1	-1E+10	1	-1E+10	1	-1E+10	1
4901784	75	C	07/24/2017	10:47	-132.701	43.713	0	669.90	0	4.0040	0	34.2880	4	27.224	0	663.468	0	15.1	4	4.8	4	-1E+10	1	-1E+10	1	-1E+10	1	-1E+10	1	-1E+10	1	-1E+10	1
4901784	75	C	07/24/2017	10:47	-132.701	43.713	0	674.60	0	3.9900	0	34.2920	4	27.229	0	668.116	0	14.9	4	4.7	4	-1E+10	1	-1E+10	1	-1E+10	1	-1E+10	1	-1E+10	1	-1E+10	1
4901784	75	C	07/24/2017	10:47	-132.701	43.713	0	680.20	0	3.9760	0	34.2960	4	27.234	0	673.653	0	14.5	4	4.6	4	-1E+10	1	-1E+10	1	-1E+10	1	-1E+10	1	-1E+10	1	-1E+10	1
4901784	75	C	07/24/2017	10:47	-132.701	43.713	0	684.90	0	3.9610	0	34.3020	4	27.240	0	678.300	0	14.3	4	4.5	4	-1E+10	1	-1E+10	1	-1E+10	1	-1E+10	1	-1E+10	1	-1E+10	1
4901784	75	C	07/24/2017	10:47	-132.701	43.713	0	689.60	0	3.9550	0	34.3030	4	27.242	0	682.947	0	14.2	4	4.5	4	-1E+10	1	-1E+10	1	-1E+10	1	-1E+10	1	-1E+10	1	-1E+10	1
4901784	75	C	07/24/2017	10:47	-132.701	43.713	0	695.10	0	3.9460	0	34.3070	4	27.246	0	688.385	0	14.0	4	4.4	4	-1E+10	1	-1E+10	1	-1E+10	1	-1E+10	1	-1E+10	1	-1E+10	1
4901784	75	C	07/24/2017	10:47	-132.701	43.713	0	699.90	0	3.9430	0	34.3080	4	27.247	0	693.130	0	13.9	4	4.4	4	-1E+10	1	-1E+10	1	-1E+10	1	-1E+10	1	-1E+10	1	-1E+10	1
4901784	75	C	07/24/2017	10:47	-132.701	43.713	0	704.60	0	3.9360	0	34.3110	4	27.250	0	697.777	0	13.7	4	4.3	4	-1E+10	1	-1E+10	1	-1E+10	1	-1E+10	1	-1E+10	1	-1E+10	1
4901784	75	C	07/24/2017	10:47	-132.701	43.713	0	710.10	0	3.9300	0	34.3130	4	27.252	0	703.214	0	13.5	4	4.3	4	-1E+10	1	-1E+10	1	-1E+10	1	-1E+10	1	-1E+10	1	-1E+10	1
4901784	75	C	07/24/2017	10:47	-132.701	43.713	0	714.70	0	3.9210	0	34.3160	4	27.256	0	707.762	0	13.3	4	4.2	4	-1E+10	1	-1E+10	1	-1E+10	1	-1E+10	1	-1E+10	1	-1E+10	1
4901784	75	C	07/24/2017	10:47	-132.701	43.713	0	719.40	0	3.9060	0	34.3190	4	27.259	0	712.408	0	13.2	4	4.2	4	-1E+10	1	-1E+10	1	-1E+10	1	-1E+10	1	-1E+10	1	-1E+10	1
4901784	75	C	07/24/2017	10:47	-132.701	43.713	0	724.90	0	3.8930	0	34.3250	4	27.266	0	717.846	0	12.9	4	4.1	4	-1E+10	1	-1E+10	1	-1E+10	1	-1E+10	1	-1E+10	1	-1E+10	1
4901784	75	C	07/24/2017	10:47	-132.701	43.713	0	730.50	0	3.8890	0	34.3290	4	27.269	0	723.381	0	12.7	4	4.0	4	-1E+10	1	-1E+10	1	-1E+10	1	-1E+10	1	-1E+10	1	-1E+10	1
4901784	75	C	07/24/2017	10:47	-132.701	43.713	0	735.20	0	3.8850	0	34.3310	4	27.271	0	728.027	0	12.5	4	4.0	4	-1E+10	1	-1E+10	1	-1E+10	1	-1E+10	1	-1E+10	1	-1E+10	1
4901784	75	C	07/24/2017	10:47	-132.701	43.713	0	739.90	0	3.8760	0	34.3360	4	27.276	0	732.673	0	12.3	4	3.9	4	-1E+10	1	-1E+10	1	-1E+10	1	-1E+10	1	-1E+10	1	-1E+10	1
4901784	75	C	07/24/2017	10:47	-132.701	43.713	0	744.70	0	3.8670	0	34.3400	4	27.280	0	737.418	0	12.2	4	3.8	4	-1E+10	1	-1E+10	1	-1E+10	1	-1E+10	1	-1E+10	1	-1E+10	1
4901784	75	C	07/24/2017	10:47	-132.701	43.713	0	749.50	0	3.8530	0	34.3450	4	27.286	0	742.162	0	12.0	4	3.8	4	-1E+10	1	-1E+10	1	-1E+10	1	-1E+10	1	-1E+10	1	-1E+10	1
4901784	75	C	07/24/2017	10:47	-132.701	43.713	0	755.30	0	3.8420	0	34.3480	4	27.289	0	747.895	0	11.9	4	3.8	4	-1E+10	1	-1E+10	1	-1E+10	1	-1E+10	1	-1E+10	1	-1E+10	1
4901784	75	C	07/24/2017	10:47	-132.701	43.713	0	759.50	0	3.8310	0	34.3520	4	27.294	0	752.047	0	11.8	4	3.7	4	-1E+10	1	-1E+10	1	-1E+10	1	-1E+10	1	-1E+10	1	-1E+10	1
4901784	75	C	07/24/2017	10:47	-132.701	43.713	0	764.60	0	3.8180	0	34.3560	4	27.298	0	757.087	0	11.7	4	3.7	4	-1E+10	1	-1E+10	1	-1E+10	1	-1E+10	1	-1E+10	1	-1E+10	1
4901784	75	C	07/24/2017	10:47	-132.701	43.713	0	769.50	0	3.7970	0	34.3620	4	27.305	0	761.930	0	11.6	4	3.7	4	-1E+10	1	-1E+10	1	-1E+10	1	-1E+10	1	-1E+10	1	-1E+10	1
4901784	75	C	07/24/2017	10:47	-132.701	43.713	0	774.50	0	3.7860	0	34.3640	4	27.308	0	766.872	0	11.6	4	3.6	4	-1E+10	1	-1E+10	1	-1E+10	1	-1E+10	1	-1E+10	1	-1E+10	1
4901784	75	C	07/24/2017	10:47	-132.701	43.713	0	779.50	0	3.7780	0	34.3660	4	27.310	0	771.813	0	11.5	4	3.6	4	-1E+10	1	-1E+10	1	-1E+10	1	-1E+10	1	-1E+10	1	-1E+10	1
4901784	75	C	07/24/2017	10:47	-132.701	43.713	0	784.60	0	3.7620	0	34.3690	4	27.314	0	776.853	0	11.5	4	3.6	4	-1E+10	1	-1E+10	1	-1E+10	1	-1E+10	1	-1E+10	1	-1E+10	1
4901784	75	C	07/24/2017	10:47	-132.701	43.713	0	789.70	0	3.7520	0	34.3710	4	27.317	0	781.894	0	11.5	4	3.6	4	-1E+10	1	-1E+10	1	-1E+10	1	-1E+10	1	-1E+10	1	-1E+10	1
4901784	75	C	07/24/2017	10:47	-132.701	43.713	0	794.70	0	3.7380	0	34.3740	4	27.321	0	786.835	0	11.4	4	3.6	4	-1E+10	1	-1E+10	1	-1E+10	1	-1E+10	1	-1E+10	1	-1E+10	1
4901784	75	C	07/24/2017	10:47	-132.701	43.713	0	799.90	0	3.7290	0	34.3760	4	27.323	0	791.973	0	11.4	4	3.6	4	-1E+10	1	-1E+10	1	-1E+10	1	-1E+10	1	-1E+10	1	-1E+10	1
4901784	75	C	07/24/2017	10:47	-132.701	43.713	0	805.10	0	3.7200	0	34.3790	4	27.326	0	797.112	0	11.3	4	3.6	4	-1E+10	1	-1E+10	1	-1E+10	1	-1E+10	1	-1E+10	1	-1E+10	1
4901784	75	C	07/24/2017	10:47	-132.701	43.713	0	810.30	0	3.7130	0	34.3800	4	27.328	0	802.250	0	11.3	4	3.6	4	-1E+10	1	-1E+10	1	-1E+10	1	-1E+10	1	-1E+10	1	-1E+10	1
4901784	75	C	07/24/2017	10:47	-132.701	43.713	0	815.60	0	3.7030	0	34.3830	4	27.331	0	807.488	0	11.3	4	3.5	4	-1E+10	1	-1E+10	1	-1E+10	1	-1E+10	1	-1E+10	1	-1E+10	1
4901784	75	C	07/24/2017	10:47	-132.701	43.713	0	820.70	0	3.6940	0	34.3850	4	27.334	0	812.527	0	11.2	4	3.5	4	-1E+10	1	-1E+10	1	-1E+10	1	-1E+10	1	-1E+10	1	-1E+10	1
4901784	75	C	07/24/2017	10:47	-132.701	43.713	0	825.10	0	3.6800	0	34.3880	4	27.338	0	816.874	0	11.2	4	3.5	4	-1E+10	1	-1E+10	1	-1E+10	1	-1E+10	1	-1E+10	1	-1E+10	1
4901784	75	C	07/24/2017	10:47	-132.701	43.713	0	829.40	0	3.6690	0	34.3910	4	27.341	0	821.123	0	11.2	4	3.5	4	-1E+10	1	-1E+10	1	-1E+10	1	-1E+10	1	-1E+10	1	-1E+10	1
4901784	75	C	07/24/2017	10:47	-132.701	43.713	0	834.80	0	3.6620	0	34.3930	4	27.344	0	826.459	0	11.2	4	3.5	4	-1E+10	1	-1E+10	1	-1E+10	1	-1E+10	1	-1E+10	1	-1E+10	1
4901784	75	C	07/24/2017	10:47	-132.701	43.713	0	840.20	0	3.6520	0	34.3950	4	27.346	0	831.794	0	11.2	4	3.5	4	-1E+10	1	-1E+10	1	-1E+10	1	-1E+10	1	-1E+10	1	-1E+10	1
4901784	75	C	07/24/2017	10:47	-132.701	43.713	0	845.60	0	3.6400	0	34.3990	4	27.351	0	837.129	0	11.2	4	3.5	4	-1E+10	1	-1E+10	1	-1E+10	1	-1E+10	1	-1E+10	1	-1E+10	1
4901784	75	C	07/24/2017	10:47	-132.701	43.713	0	850.20	0	3.6370	0	34.3990	4	27.351	0	841.674	0	11.2	4	3.5	4	-1E+10	1	-1E+10	1	-1E+10	1	-1E+10	1	-1E+10	1	-1E+10	1
4901784	75	C	07/24/2017	10:47	-132.701	43.713	0	854.70	0	3.6290	0	34.4000	4	27.352	0	846.120	0	11.2	4	3.5	4	-1E+10	1	-1E+10	1	-1E+10	1	-1E+10	1	-1E+10	1	-1E+10	1
4901784	75	C	07/24/2017	10:47	-132.701	43.713	0	860.10	0	3.6150	0	34.4040	4	27.357	0	851.454	0	11.2	4	3.5	4	-1E+10	1	-1E+10	1	-1E+10	1	-1E+10	1	-1E+10	1	-1E+10	1
4901784	75	C	07/24/2017	10:47	-132.701	43.713	0	865.60	0	3.6010	0	34.4080	4	27.362	0	856.888	0	11.2	4	3.5	4	-1E+10	1	-1E+10	1	-1E+10	1	-1E+10	1	-1E+10	1	-1E+10	1
4901784	75	C	07/24/2017	10:47	-132.701	43.713	0	870.20	0	3.5940	0	34.4090	4	27.363	0	861.432	0	11.3	4	3.5	4	-1E+10	1	-1E+10	1	-1E+10	1	-1E+10	1	-1E+10	1	-1E+10	1
4901784	75	C	07/24/2017	10:47	-132.701	43.713	0	874.80	0	3.5750	0	34.4140	4	27.369	0	865.976	0	11.3	4	3.5	4	-1E+10	1	-1E+10	1	-1E+10	1	-1E+10	1	-1E+10	1	-1E+10	1
4901784	75	C	07/24/2017	10:47	-132.701	43.713	0	880.40	0	3.5630	0	34.4180	4	27.373	0	871.508	0	11.3	4	3.5	4	-1E+10	1	-1E+10	1	-1E+10	1	-1E+10	1	-1E+10	1	-1E+10	1
4901784	75	C	07/24/2017	10:47	-132.701	43.713	0	885.30	0	3.5520	0	34.4200	4	27.376	0	876.348	0	11.3	4	3.5	4	-1E+10	1	-1E+10	1	-1E+10	1	-1E+10	1	-1E+10	1	-1E+10	1
4901784	75	C	07/24/2017	10:47	-132.701	43.713	0	889.80	0	3.5240	0	34.4260	4	27.384	0	880.793	0	11.3	4	3.5	4	-1E+10	1	-1E+10	1	-1E+10	1	-1E+10	1	-1E+10	1	-1E+10	1
4901784	75	C	07/24/2017	10:47	-132.701	43.713	0	894.70	0	3.5150	0	34.4290	4	27.387	0	885.633	0	11.4	4	3.6	4	-1E+10	1	-1E+10	1	-1E+10	1	-1E+10	1	-1E+10	1	-1E+10	1
4901784	75	C	07/24/2017	10:47	-132.701	43.713	0	899.60	0	3.5070	0	34.4310	4	27.389	0	890.473	0	11.5	4	3.6	4	-1E+10	1	-1E+10	1	-1E+10	1	-1E+10	1	-1E+10	1	-1E+10	1
4901784	75	C	07/24/2017	10:47	-132.701	43.713	0	904.50	0	3.4970	0	34.4350	4	27.393	0	895.313	0	11.6	4	3.6	4	-1E+10	1	-1E+10	1	-1E+10	1	-1E+10	1	-1E+10	1	-1E+10	1
4901784	75	C	07/24/2017	10:47	-132.701	43.713	0	909.50	0	3.4890	0	34.4370	4	27.396	0	900.251	0	11.6	4	3.6	4	-1E+10	1	-1E+10	1	-1E+10	1	-1E+10	1	-1E+10	1	-1E+10	1
4901784	75	C	07/24/2017	10:47	-132.701	43.713	0	914.60	0	3.4650	0	34.4430	4	27.403	0	905.289	0	11.7	4	3.7	4	-1E+10	1	-1E+10	1	-1E+10	1	-1E+10	1	-1E+10	1	-1E+10	1
4901784	75	C	07/24/2017	10:47	-132.701	43.713	0	919.70	0	3.4560	0	34.4460	4	27.406	0	910.326	0	11.7	4	3.7	4	-1E+10	1	-1E+10	1	-1E+10	1	-1E+10	1	-1E+10	1	-1E+10	1
4901784	75	C	07/24/2017	10:47	-132.701	43.713	0	924.80	0	3.4480	0	34.4470	4	27.408	0	915.362	0	11.7	4	3.6	4	-1E+10	1	-1E+10	1	-1E+10	1	-1E+10	1	-1E+10	1	-1E+10	1
4901784	75	C	07/24/2017	10:47	-132.701	43.713	0	929.90	0	3.4270	0	34.4500	4	27.412	0	920.399	0	11.7	4	3.7	4	-1E+10	1	-1E+10	1	-1E+10	1	-1E+10	1	-1E+10	1	-1E+10	1
4901784	75	C	07/24/2017	10:47	-132.701	43.713	0	935.10	0	3.4270	0	34.4510	4	27.413	0	925.535	0	11.8	4	3.7	4	-1E+10	1	-1E+10	1	-1E+10	1	-1E+10	1	-1E+10	1	-1E+10	1
4901784	75	C	07/24/2017	10:47	-132.701	43.713	0	940.30	0	3.4190	0	34.4540	4	27.416	0	930.670	0	11.9	4	3.7	4	-1E+10	1	-1E+10	1	-1E+10	1	-1E+10	1	-1E+10	1	-1E+10	1
4901784	75	C	07/24/2017	10:47	-132.701	43.713	0	945.50	0	3.3960	0	34.4570	4	27.421	0	935.805	0	11.9	4	3.7	4	-1E+10	1	-1E+10	1	-1E+10	1	-1E+10	1	-1E+10	1	-1E+10	1
4901784	75	C	07/24/2017	10:47	-132.701	43.713	0	950.70	0	3.3950	0	34.4590	4	27.423	0	940.940	0	12.0	4	3.8	4	-1E+10	1	-1E+10	1	-1E+10	1	-1E+10	1	-1E+10	1	-1E+10	1
4901784	75	C	07/24/2017	10:47	-132.701	43.713	0	955.10	0	3.3920	0	34.4610	4	27.425	0	945.285	0	12.1	4	3.8	4	-1E+10	1	-1E+10	1	-1E+10	1	-1E+10	1	-1E+10	1	-1E+10	1
4901784	75	C	07/24/2017	10:47	-132.701	43.713	0	959.50	0	3.3900	0	34.4620	4	27.426	0	949.630	0	12.2	4	3.8	4	-1E+10	1	-1E+10	1	-1E+10	1	-1E+10	1	-1E+10	1	-1E+10	1
4901784	75	C	07/24/2017	10:47	-132.701	43.713	0	964.80	0	3.3810	0	34.4640	4	27.428	0	954.863	0	12.2	4	3.8	4	-1E+10	1	-1E+10	1	-1E+10	1	-1E+10	1	-1E+10	1	-1E+10	1
4901784	75	C	07/24/2017	10:47	-132.701	43.713	0	970.30	0	3.3630	0	34.4660	4	27.431	0	960.294	0	12.2	4	3.8	4	-1E+10	1	-1E+10	1	-1E+10	1	-1E+10	1	-1E+10	1	-1E+10	1
4901784	75	C	07/24/2017	10:47	-132.701	43.713	0	974.90	0	3.3530	0	34.4680	4	27.434	0	964.836	0	12.2	4	3.8	4	-1E+10	1	-1E+10	1	-1E+10	1	-1E+10	1	-1E+10	1	-1E+10	1
4901784	75	C	07/24/2017	10:47	-132.701	43.713	0	979.50	0	3.3440	0	34.4700	4	27.436	0	969.378	0	12.3	4	3.8	4	-1E+10	1	-1E+10	1	-1E+10	1	-1E+10	1	-1E+10	1	-1E+10	1
4901784	75	C	07/24/2017	10:47	-132.701	43.713	0	984.80	0	3.3380	0	34.4710	4	27.438	0	974.611	0	12.4	4	3.9	4	-1E+10	1	-1E+10	1	-1E+10	1	-1E+10	1	-1E+10	1	-1E+10	1
4901784	75	C	07/24/2017	10:47	-132.701	43.713	0	990.10	0	3.3300	0	34.4740	4	27.441	0	979.843	0	12.6	4	3.9	4	-1E+10	1	-1E+10	1	-1E+10	1	-1E+10	1	-1E+10	1	-1E+10	1
4901784	75	C	07/24/2017	10:47	-132.701	43.713	0	995.60	0	3.3260	0	34.4760	4	27.443	0	985.273	0	12.8	4	4.0	4	-1E+10	1	-1E+10	1	-1E+10	1	-1E+10	1	-1E+10	1	-1E+10	1
4901784	75	C	07/24/2017	10:47	-132.701	43.713	0	1000.20	0	3.3210	0	34.4790	4	27.446	0	989.815	0	12.9	4	4.0	4	-1E+10	1	-1E+10	1	-1E+10	1	-1E+10	1	-1E+10	1	-1E+10	1
4901784	75	C	07/24/2017	10:47	-132.701	43.713	0	1004.70	0	3.3090	0	34.4810	4	27.449	0	994.257	0	13.1	4	4.1	4	-1E+10	1	-1E+10	1	-1E+10	1	-1E+10	1	-1E+10	1	-1E+10	1
4901784	75	C	07/24/2017	10:47	-132.701	43.713	0	1010.10	0	3.3030	0	34.4830	4	27.451	0	999.588	0	13.2	4	4.1	4	-1E+10	1	-1E+10	1	-1E+10	1	-1E+10	1	-1E+10	1	-1E+10	1
4901784	75	C	07/24/2017	10:47	-132.701	43.713	0	1014.70	0	3.2970	0	34.4850	4	27.453	0	1004.130	0	13.2	4	4.1	4	-1E+10	1	-1E+10	1	-1E+10	1	-1E+10	1	-1E+10	1	-1E+10	1
4901784	75	C	07/24/2017	10:47	-132.701	43.713	0	1019.30	0	3.2920	0	34.4850	4	27.454	0	1008.671	0	13.2	4	4.1	4	-1E+10	1	-1E+10	1	-1E+10	1	-1E+10	1	-1E+10	1	-1E+10	1
4901784	75	C	07/24/2017	10:47	-132.701	43.713	0	1024.70	0	3.2800	0	34.4870	4	27.456	0	1014.001	0	13.3	4	4.1	4	-1E+10	1	-1E+10	1	-1E+10	1	-1E+10	1	-1E+10	1	-1E+10	1
4901784	75	C	07/24/2017	10:47	-132.701	43.713	0	1030.20	0	3.2680	0	34.4890	4	27.459	0	1019.430	0	13.4	4	4.2	4	-1E+10	1	-1E+10	1	-1E+10	1	-1E+10	1	-1E+10	1	-1E+10	1
4901784	75	C	07/24/2017	10:47	-132.701	43.713	0	1034.90	0	3.2650	0	34.4900	4	27.460	0	1024.070	0	13.5	4	4.2	4	-1E+10	1	-1E+10	1	-1E+10	1	-1E+10	1	-1E+10	1	-1E+10	1
4901784	75	C	07/24/2017	10:47	-132.701	43.713	0	1039.40	0	3.2630	0	34.4900	4	27.460	0	1028.512	0	13.7	4	4.2	4	-1E+10	1	-1E+10	1	-1E+10	1	-1E+10	1	-1E+10	1	-1E+10	1
4901784	75	C	07/24/2017	10:47	-132.701	43.713	0	1045.00	0	3.2530	0	34.4930	4	27.464	0	1034.039	0	13.9	4	4.3	4	-1E+10	1	-1E+10	1	-1E+10	1	-1E+10	1	-1E+10	1	-1E+10	1
4901784	75	C	07/24/2017	10:47	-132.701	43.713	0	1050.60	0	3.2470	0	34.4950	4	27.466	0	1039.567	0	14.1	4	4.4	4	-1E+10	1	-1E+10	1	-1E+10	1	-1E+10	1	-1E+10	1	-1E+10	1
4901784	75	C	07/24/2017	10:47	-132.701	43.713	0	1055.40	0	3.2410	0	34.4970	4	27.468	0	1044.304	0	14.2	4	4.4	4	-1E+10	1	-1E+10	1	-1E+10	1	-1E+10	1	-1E+10	1	-1E+10	1
4901784	75	C	07/24/2017	10:47	-132.701	43.713	0	1059.90	0	3.2290	0	34.4990	4	27.471	0	1048.746	0	14.5	4	4.5	4	-1E+10	1	-1E+10	1	-1E+10	1	-1E+10	1	-1E+10	1	-1E+10	1
4901784	75	C	07/24/2017	10:47	-132.701	43.713	0	1064.80	0	3.2250	0	34.5020	4	27.474	0	1053.582	0	15.0	4	4.6	4	-1E+10	1	-1E+10	1	-1E+10	1	-1E+10	1	-1E+10	1	-1E+10	1
4901784	75	C	07/24/2017	10:47	-132.701	43.713	0	1069.70	0	3.2310	0	34.5050	4	27.476	0	1058.418	0	15.2	4	4.7	4	-1E+10	1	-1E+10	1	-1E+10	1	-1E+10	1	-1E+10	1	-1E+10	1
4901784	75	C	07/24/2017	10:47	-132.701	43.713	0	1074.60	0	3.2290	0	34.5060	4	27.477	0	1063.254	0	15.2	4	4.7	4	-1E+10	1	-1E+10	1	-1E+10	1	-1E+10	1	-1E+10	1	-1E+10	1
4901784	75	C	07/24/2017	10:47	-132.701	43.713	0	1079.60	0	3.2250	0	34.5060	4	27.477	0	1068.188	0	15.2	4	4.7	4	-1E+10	1	-1E+10	1	-1E+10	1	-1E+10	1	-1E+10	1	-1E+10	1
4901784	75	C	07/24/2017	10:47	-132.701	43.713	0	1084.50	0	3.2090	0	34.5070	4	27.479	0	1073.024	0	15.3	4	4.7	4	-1E+10	1	-1E+10	1	-1E+10	1	-1E+10	1	-1E+10	1	-1E+10	1
4901784	75	C	07/24/2017	10:47	-132.701	43.713	0	1089.60	0	3.2010	0	34.5090	4	27.482	0	1078.057	0	15.4	4	4.8	4	-1E+10	1	-1E+10	1	-1E+10	1	-1E+10	1	-1E+10	1	-1E+10	1
4901784	75	C	07/24/2017	10:47	-132.701	43.713	0	1094.60	0	3.1850	0	34.5100	4	27.484	0	1082.991	0	15.4	4	4.8	4	-1E+10	1	-1E+10	1	-1E+10	1	-1E+10	1	-1E+10	1	-1E+10	1
4901784	75	C	07/24/2017	10:47	-132.701	43.713	0	1099.60	0	3.1750	0	34.5110	4	27.486	0	1087.925	0	15.4	4	4.8	4	-1E+10	1	-1E+10	1	-1E+10	1	-1E+10	1	-1E+10	1	-1E+10	1
4901784	75	C	07/24/2017	10:47	-132.701	43.713	0	1104.70	0	3.1650	0	34.5120	4	27.488	0	1092.958	0	15.5	4	4.8	4	-1E+10	1	-1E+10	1	-1E+10	1	-1E+10	1	-1E+10	1	-1E+10	1
4901784	75	C	07/24/2017	10:47	-132.701	43.713	0	1109.70	0	3.1590	0	34.5130	4	27.489	0	1097.891	0	15.6	4	4.8	4	-1E+10	1	-1E+10	1	-1E+10	1	-1E+10	1	-1E+10	1	-1E+10	1
4901784	75	C	07/24/2017	10:47	-132.701	43.713	0	1115.10	0	3.1490	0	34.5150	4	27.491	0	1103.220	0	15.7	4	4.9	4	-1E+10	1	-1E+10	1	-1E+10	1	-1E+10	1	-1E+10	1	-1E+10	1
4901784	75	C	07/24/2017	10:47	-132.701	43.713	0	1119.80	0	3.1440	0	34.5150	4	27.492	0	1107.857	0	15.8	4	4.9	4	-1E+10	1	-1E+10	1	-1E+10	1	-1E+10	1	-1E+10	1	-1E+10	1
4901784	75	C	07/24/2017	10:47	-132.701	43.713	0	1124.50	0	3.1350	0	34.5170	4	27.494	0	1112.495	0	15.9	4	4.9	4	-1E+10	1	-1E+10	1	-1E+10	1	-1E+10	1	-1E+10	1	-1E+10	1
4901784	75	C	07/24/2017	10:47	-132.701	43.713	0	1130.10	0	3.1220	0	34.5180	4	27.496	0	1118.020	0	15.9	4	4.9	4	-1E+10	1	-1E+10	1	-1E+10	1	-1E+10	1	-1E+10	1	-1E+10	1
4901784	75	C	07/24/2017	10:47	-132.701	43.713	0	1134.90	0	3.1140	0	34.5190	4	27.498	0	1122.756	0	16.0	4	5.0	4	-1E+10	1	-1E+10	1	-1E+10	1	-1E+10	1	-1E+10	1	-1E+10	1
4901784	75	C	07/24/2017	10:47	-132.701	43.713	0	1139.60	0	3.1120	0	34.5200	4	27.499	0	1127.393	0	16.1	4	5.0	4	-1E+10	1	-1E+10	1	-1E+10	1	-1E+10	1	-1E+10	1	-1E+10	1
4901784	75	C	07/24/2017	10:47	-132.701	43.713	0	1145.10	0	3.0970	0	34.5210	4	27.501	0	1132.819	0	16.2	4	5.0	4	-1E+10	1	-1E+10	1	-1E+10	1	-1E+10	1	-1E+10	1	-1E+10	1
4901784	75	C	07/24/2017	10:47	-132.701	43.713	0	1149.80	0	3.0900	0	34.5220	4	27.503	0	1137.456	0	16.3	4	5.0	4	-1E+10	1	-1E+10	1	-1E+10	1	-1E+10	1	-1E+10	1	-1E+10	1
4901784	75	C	07/24/2017	10:47	-132.701	43.713	0	1154.60	0	3.0860	0	34.5230	4	27.504	0	1142.192	0	16.4	4	5.1	4	-1E+10	1	-1E+10	1	-1E+10	1	-1E+10	1	-1E+10	1	-1E+10	1
4901784	75	C	07/24/2017	10:47	-132.701	43.713	0	1160.30	0	3.0770	0	34.5250	4	27.506	0	1147.815	0	16.5	4	5.1	4	-1E+10	1	-1E+10	1	-1E+10	1	-1E+10	1	-1E+10	1	-1E+10	1
4901784	75	C	07/24/2017	10:47	-132.701	43.713	0	1165.00	0	3.0680	0	34.5250	4	27.507	0	1152.451	0	16.5	4	5.1	4	-1E+10	1	-1E+10	1	-1E+10	1	-1E+10	1	-1E+10	1	-1E+10	1
4901784	75	C	07/24/2017	10:47	-132.701	43.713	0	1170.40	0	3.0600	0	34.5250	4	27.508	0	1157.778	0	16.5	4	5.1	4	-1E+10	1	-1E+10	1	-1E+10	1	-1E+10	1	-1E+10	1	-1E+10	1
4901784	75	C	07/24/2017	10:47	-132.701	43.713	0	1175.20	0	3.0510	0	34.5260	4	27.510	0	1162.513	0	16.5	4	5.1	4	-1E+10	1	-1E+10	1	-1E+10	1	-1E+10	1	-1E+10	1	-1E+10	1
4901784	75	C	07/24/2017	10:47	-132.701	43.713	0	1180.10	0	3.0430	0	34.5270	4	27.511	0	1167.347	0	16.7	4	5.2	4	-1E+10	1	-1E+10	1	-1E+10	1	-1E+10	1	-1E+10	1	-1E+10	1
4901784	75	C	07/24/2017	10:47	-132.701	43.713	0	1185.00	0	3.0270	0	34.5300	4	27.515	0	1172.180	0	16.8	4	5.2	4	-1E+10	1	-1E+10	1	-1E+10	1	-1E+10	1	-1E+10	1	-1E+10	1
4901784	75	C	07/24/2017	10:47	-132.701	43.713	0	1190.10	0	3.0150	0	34.5310	4	27.517	0	1177.211	0	16.7	4	5.2	4	-1E+10	1	-1E+10	1	-1E+10	1	-1E+10	1	-1E+10	1	-1E+10	1
4901784	75	C	07/24/2017	10:47	-132.701	43.713	0	1195.10	0	3.0020	0	34.5310	4	27.518	0	1182.143	0	16.6	4	5.1	4	-1E+10	1	-1E+10	1	-1E+10	1	-1E+10	1	-1E+10	1	-1E+10	1
4901784	75	C	07/24/2017	10:47	-132.701	43.713	0	1200.20	0	2.9920	0	34.5310	4	27.519	0	1187.173	0	16.7	4	5.2	4	-1E+10	1	-1E+10	1	-1E+10	1	-1E+10	1	-1E+10	1	-1E+10	1
4901784	75	C	07/24/2017	10:47	-132.701	43.713	0	1205.30	0	2.9830	0	34.5330	4	27.522	0	1192.203	0	17.0	4	5.3	4	-1E+10	1	-1E+10	1	-1E+10	1	-1E+10	1	-1E+10	1	-1E+10	1
4901784	75	C	07/24/2017	10:47	-132.701	43.713	0	1210.50	0	2.9770	0	34.5350	4	27.524	0	1197.332	0	17.2	4	5.3	4	-1E+10	1	-1E+10	1	-1E+10	1	-1E+10	1	-1E+10	1	-1E+10	1
4901784	75	C	07/24/2017	10:47	-132.701	43.713	0	1215.70	0	2.9700	0	34.5360	4	27.525	0	1202.460	0	17.3	4	5.3	4	-1E+10	1	-1E+10	1	-1E+10	1	-1E+10	1	-1E+10	1	-1E+10	1
4901784	75	C	07/24/2017	10:47	-132.701	43.713	0	1220.10	0	2.9650	0	34.5370	4	27.526	0	1206.800	0	17.4	4	5.4	4	-1E+10	1	-1E+10	1	-1E+10	1	-1E+10	1	-1E+10	1	-1E+10	1
4901784	75	C	07/24/2017	10:47	-132.701	43.713	0	1224.50	0	2.9620	0	34.5370	4	27.527	0	1211.139	0	17.4	4	5.4	4	-1E+10	1	-1E+10	1	-1E+10	1	-1E+10	1	-1E+10	1	-1E+10	1
4901784	75	C	07/24/2017	10:47	-132.701	43.713	0	1229.80	0	2.9480	0	34.5380	4	27.529	0	1216.366	0	17.6	4	5.4	4	-1E+10	1	-1E+10	1	-1E+10	1	-1E+10	1	-1E+10	1	-1E+10	1
4901784	75	C	07/24/2017	10:47	-132.701	43.713	0	1235.20	0	2.9270	0	34.5400	4	27.532	0	1221.691	0	17.7	4	5.5	4	-1E+10	1	-1E+10	1	-1E+10	1	-1E+10	1	-1E+10	1	-1E+10	1
4901784	75	C	07/24/2017	10:47	-132.701	43.713	0	1240.20	0	2.9080	0	34.5420	4	27.536	0	1226.622	0	17.9	4	5.5	4	-1E+10	1	-1E+10	1	-1E+10	1	-1E+10	1	-1E+10	1	-1E+10	1
4901784	75	C	07/24/2017	10:47	-132.701	43.713	0	1245.10	0	2.8980	0	34.5430	4	27.537	0	1231.454	0	18.1	4	5.6	4	-1E+10	1	-1E+10	1	-1E+10	1	-1E+10	1	-1E+10	1	-1E+10	1
4901784	75	C	07/24/2017	10:47	-132.701	43.713	0	1250.00	0	2.8970	0	34.5440	4	27.538	0	1236.286	0	18.4	4	5.7	4	-1E+10	1	-1E+10	1	-1E+10	1	-1E+10	1	-1E+10	1	-1E+10	1
4901784	75	C	07/24/2017	10:47	-132.701	43.713	0	1255.00	0	2.8970	0	34.5450	4	27.539	0	1241.216	0	18.6	4	5.7	4	-1E+10	1	-1E+10	1	-1E+10	1	-1E+10	1	-1E+10	1	-1E+10	1
4901784	75	C	07/24/2017	10:47	-132.701	43.713	0	1260.00	0	2.8880	0	34.5460	4	27.541	0	1246.147	0	18.7	4	5.8	4	-1E+10	1	-1E+10	1	-1E+10	1	-1E+10	1	-1E+10	1	-1E+10	1
4901784	75	C	07/24/2017	10:47	-132.701	43.713	0	1265.10	0	2.8750	0	34.5480	4	27.543	0	1251.175	0	18.9	4	5.8	4	-1E+10	1	-1E+10	1	-1E+10	1	-1E+10	1	-1E+10	1	-1E+10	1
4901784	75	C	07/24/2017	10:47	-132.701	43.713	0	1270.20	0	2.8640	0	34.5490	4	27.545	0	1256.204	0	19.1	4	5.9	4	-1E+10	1	-1E+10	1	-1E+10	1	-1E+10	1	-1E+10	1	-1E+10	1
4901784	75	C	07/24/2017	10:47	-132.701	43.713	0	1275.30	0	2.8530	0	34.5500	4	27.547	0	1261.233	0	19.3	4	5.9	4	-1E+10	1	-1E+10	1	-1E+10	1	-1E+10	1	-1E+10	1	-1E+10	1
4901784	75	C	07/24/2017	10:47	-132.701	43.713	0	1280.50	0	2.8430	0	34.5520	4	27.550	0	1266.360	0	19.6	4	6.0	4	-1E+10	1	-1E+10	1	-1E+10	1	-1E+10	1	-1E+10	1	-1E+10	1
4901784	75	C	07/24/2017	10:47	-132.701	43.713	0	1285.60	0	2.8320	0	34.5540	4	27.552	0	1271.388	0	19.9	4	6.1	4	-1E+10	1	-1E+10	1	-1E+10	1	-1E+10	1	-1E+10	1	-1E+10	1
4901784	75	C	07/24/2017	10:47	-132.701	43.713	0	1290.00	0	2.8230	0	34.5540	4	27.553	0	1275.726	0	20.1	4	6.2	4	-1E+10	1	-1E+10	1	-1E+10	1	-1E+10	1	-1E+10	1	-1E+10	1
4901784	75	C	07/24/2017	10:47	-132.701	43.713	0	1294.30	0	2.8120	0	34.5570	4	27.556	0	1279.965	0	20.4	4	6.3	4	-1E+10	1	-1E+10	1	-1E+10	1	-1E+10	1	-1E+10	1	-1E+10	1
4901784	75	C	07/24/2017	10:47	-132.701	43.713	0	1299.70	0	2.8080	0	34.5580	4	27.558	0	1285.289	0	20.5	4	6.3	4	-1E+10	1	-1E+10	1	-1E+10	1	-1E+10	1	-1E+10	1	-1E+10	1
4901784	75	C	07/24/2017	10:47	-132.701	43.713	0	1305.00	0	2.8060	0	34.5590	4	27.559	0	1290.514	0	20.6	4	6.3	4	-1E+10	1	-1E+10	1	-1E+10	1	-1E+10	1	-1E+10	1	-1E+10	1
4901784	75	C	07/24/2017	10:47	-132.701	43.713	0	1310.30	0	2.8040	0	34.5600	4	27.560	0	1295.739	0	20.8	4	6.4	4	-1E+10	1	-1E+10	1	-1E+10	1	-1E+10	1	-1E+10	1	-1E+10	1
4901784	75	C	07/24/2017	10:47	-132.701	43.713	0	1315.40	0	2.7890	0	34.5600	4	27.561	0	1300.767	0	20.9	4	6.4	4	-1E+10	1	-1E+10	1	-1E+10	1	-1E+10	1	-1E+10	1	-1E+10	1
4901784	75	C	07/24/2017	10:47	-132.701	43.713	0	1319.50	0	2.7880	0	34.5610	4	27.562	0	1304.808	0	21.4	4	6.6	4	-1E+10	1	-1E+10	1	-1E+10	1	-1E+10	1	-1E+10	1	-1E+10	1
4901784	75	C	07/24/2017	10:47	-132.701	43.713	0	1325.00	0	2.7860	0	34.5640	4	27.564	0	1310.230	0	21.8	4	6.7	4	-1E+10	1	-1E+10	1	-1E+10	1	-1E+10	1	-1E+10	1	-1E+10	1
4901784	75	C	07/24/2017	10:47	-132.701	43.713	0	1330.60	0	2.7730	0	34.5660	4	27.567	0	1315.750	0	22.1	4	6.8	4	-1E+10	1	-1E+10	1	-1E+10	1	-1E+10	1	-1E+10	1	-1E+10	1
4901784	75	C	07/24/2017	10:47	-132.701	43.713	0	1335.40	0	2.7650	0	34.5670	4	27.569	0	1320.482	0	22.2	4	6.8	4	-1E+10	1	-1E+10	1	-1E+10	1	-1E+10	1	-1E+10	1	-1E+10	1
4901784	75	C	07/24/2017	10:47	-132.701	43.713	0	1340.20	0	2.7490	0	34.5670	4	27.570	0	1325.213	0	22.4	4	6.9	4	-1E+10	1	-1E+10	1	-1E+10	1	-1E+10	1	-1E+10	1	-1E+10	1
4901784	75	C	07/24/2017	10:47	-132.701	43.713	0	1345.00	0	2.7430	0	34.5680	4	27.572	0	1329.944	0	22.9	4	7.0	4	-1E+10	1	-1E+10	1	-1E+10	1	-1E+10	1	-1E+10	1	-1E+10	1
4901784	75	C	07/24/2017	10:47	-132.701	43.713	0	1349.90	0	2.7390	0	34.5710	4	27.574	0	1334.774	0	23.5	4	7.2	4	-1E+10	1	-1E+10	1	-1E+10	1	-1E+10	1	-1E+10	1	-1E+10	1
4901784	75	C	07/24/2017	10:47	-132.701	43.713	0	1354.90	0	2.7350	0	34.5730	4	27.576	0	1339.702	0	23.8	4	7.3	4	-1E+10	1	-1E+10	1	-1E+10	1	-1E+10	1	-1E+10	1	-1E+10	1
4901784	75	C	07/24/2017	10:47	-132.701	43.713	0	1359.90	0	2.7300	0	34.5740	4	27.578	0	1344.630	0	24.1	4	7.4	4	-1E+10	1	-1E+10	1	-1E+10	1	-1E+10	1	-1E+10	1	-1E+10	1
4901784	75	C	07/24/2017	10:47	-132.701	43.713	0	1364.90	0	2.7270	0	34.5760	4	27.579	0	1349.558	0	24.4	4	7.5	4	-1E+10	1	-1E+10	1	-1E+10	1	-1E+10	1	-1E+10	1	-1E+10	1
4901784	75	C	07/24/2017	10:47	-132.701	43.713	0	1369.90	0	2.7260	0	34.5760	4	27.580	0	1354.485	0	24.6	4	7.5	4	-1E+10	1	-1E+10	1	-1E+10	1	-1E+10	1	-1E+10	1	-1E+10	1
4901784	75	C	07/24/2017	10:47	-132.701	43.713	0	1375.00	0	2.7200	0	34.5770	4	27.581	0	1359.511	0	24.7	4	7.6	4	-1E+10	1	-1E+10	1	-1E+10	1	-1E+10	1	-1E+10	1	-1E+10	1
4901784	75	C	07/24/2017	10:47	-132.701	43.713	0	1380.00	0	2.7100	0	34.5770	4	27.582	0	1364.439	0	24.8	4	7.6	4	-1E+10	1	-1E+10	1	-1E+10	1	-1E+10	1	-1E+10	1	-1E+10	1
4901784	75	C	07/24/2017	10:47	-132.701	43.713	0	1385.10	0	2.6930	0	34.5770	4	27.583	0	1369.465	0	24.9	4	7.6	4	-1E+10	1	-1E+10	1	-1E+10	1	-1E+10	1	-1E+10	1	-1E+10	1
4901784	75	C	07/24/2017	10:47	-132.701	43.713	0	1390.20	0	2.6730	0	34.5780	4	27.586	0	1374.491	0	25.1	4	7.7	4	-1E+10	1	-1E+10	1	-1E+10	1	-1E+10	1	-1E+10	1	-1E+10	1
4901784	75	C	07/24/2017	10:47	-132.701	43.713	0	1395.40	0	2.6660	0	34.5800	4	27.588	0	1379.615	0	25.3	4	7.8	4	-1E+10	1	-1E+10	1	-1E+10	1	-1E+10	1	-1E+10	1	-1E+10	1
4901784	75	C	07/24/2017	10:47	-132.701	43.713	0	1400.60	0	2.6550	0	34.5800	4	27.589	0	1384.739	0	25.5	4	7.8	4	-1E+10	1	-1E+10	1	-1E+10	1	-1E+10	1	-1E+10	1	-1E+10	1
4901784	75	C	07/24/2017	10:47	-132.701	43.713	0	1405.00	0	2.6470	0	34.5820	4	27.591	0	1389.075	0	25.7	4	7.9	4	-1E+10	1	-1E+10	1	-1E+10	1	-1E+10	1	-1E+10	1	-1E+10	1
4901784	75	C	07/24/2017	10:47	-132.701	43.713	0	1409.40	0	2.6440	0	34.5810	4	27.591	0	1393.410	0	25.6	4	7.9	4	-1E+10	1	-1E+10	1	-1E+10	1	-1E+10	1	-1E+10	1	-1E+10	1
4901784	75	C	07/24/2017	10:47	-132.701	43.713	0	1414.70	0	2.6320	0	34.5820	4	27.593	0	1398.633	0	25.6	4	7.8	4	-1E+10	1	-1E+10	1	-1E+10	1	-1E+10	1	-1E+10	1	-1E+10	1
4901784	75	C	07/24/2017	10:47	-132.701	43.713	0	1420.00	0	2.6210	0	34.5820	4	27.594	0	1403.855	0	25.5	4	7.8	4	-1E+10	1	-1E+10	1	-1E+10	1	-1E+10	1	-1E+10	1	-1E+10	1
4901784	75	C	07/24/2017	10:47	-132.701	43.713	0	1425.40	0	2.6150	0	34.5810	4	27.593	0	1409.176	0	25.6	4	7.8	4	-1E+10	1	-1E+10	1	-1E+10	1	-1E+10	1	-1E+10	1	-1E+10	1
4901784	75	C	07/24/2017	10:47	-132.701	43.713	0	1430.00	0	2.6030	0	34.5820	4	27.595	0	1413.708	0	25.8	4	7.9	4	-1E+10	1	-1E+10	1	-1E+10	1	-1E+10	1	-1E+10	1	-1E+10	1
4901784	75	C	07/24/2017	10:47	-132.701	43.713	0	1434.60	0	2.5900	0	34.5830	4	27.597	0	1418.240	0	26.1	4	8.0	4	-1E+10	1	-1E+10	1	-1E+10	1	-1E+10	1	-1E+10	1	-1E+10	1
4901784	75	C	07/24/2017	10:47	-132.701	43.713	0	1440.10	0	2.5760	0	34.5850	4	27.600	0	1423.659	0	26.4	4	8.1	4	-1E+10	1	-1E+10	1	-1E+10	1	-1E+10	1	-1E+10	1	-1E+10	1
4901784	75	C	07/24/2017	10:47	-132.701	43.713	0	1444.70	0	2.5680	0	34.5860	4	27.602	0	1428.191	0	26.6	4	8.1	4	-1E+10	1	-1E+10	1	-1E+10	1	-1E+10	1	-1E+10	1	-1E+10	1
4901784	75	C	07/24/2017	10:47	-132.701	43.713	0	1449.30	0	2.5660	0	34.5860	4	27.602	0	1432.722	0	26.8	4	8.2	4	-1E+10	1	-1E+10	1	-1E+10	1	-1E+10	1	-1E+10	1	-1E+10	1
4901784	75	C	07/24/2017	10:47	-132.701	43.713	0	1454.90	0	2.5600	0	34.5870	4	27.603	0	1438.239	0	27.0	4	8.3	4	-1E+10	1	-1E+10	1	-1E+10	1	-1E+10	1	-1E+10	1	-1E+10	1
4901784	75	C	07/24/2017	10:47	-132.701	43.713	0	1460.50	0	2.5500	0	34.5870	4	27.604	0	1443.756	0	27.2	4	8.3	4	-1E+10	1	-1E+10	1	-1E+10	1	-1E+10	1	-1E+10	1	-1E+10	1
4901784	75	C	07/24/2017	10:47	-132.701	43.713	0	1465.20	0	2.5440	0	34.5880	4	27.605	0	1448.386	0	27.4	4	8.4	4	-1E+10	1	-1E+10	1	-1E+10	1	-1E+10	1	-1E+10	1	-1E+10	1
4901784	75	C	07/24/2017	10:47	-132.701	43.713	0	1470.50	0	2.5360	0	34.5890	4	27.607	0	1453.607	0	27.5	4	8.4	4	-1E+10	1	-1E+10	1	-1E+10	1	-1E+10	1	-1E+10	1	-1E+10	1
4901784	75	C	07/24/2017	10:47	-132.701	43.713	0	1475.60	0	2.5260	0	34.5900	4	27.608	0	1458.631	0	27.7	4	8.4	4	-1E+10	1	-1E+10	1	-1E+10	1	-1E+10	1	-1E+10	1	-1E+10	1
4901784	75	C	07/24/2017	10:47	-132.701	43.713	0	1480.40	0	2.5220	0	34.5900	4	27.609	0	1463.359	0	27.7	4	8.5	4	-1E+10	1	-1E+10	1	-1E+10	1	-1E+10	1	-1E+10	1	-1E+10	1
4901784	75	C	07/24/2017	10:47	-132.701	43.713	0	1485.20	0	2.5140	0	34.5900	4	27.610	0	1468.087	0	27.9	4	8.5	4	-1E+10	1	-1E+10	1	-1E+10	1	-1E+10	1	-1E+10	1	-1E+10	1
4901784	75	C	07/24/2017	10:47	-132.701	43.713	0	1490.10	0	2.5040	0	34.5920	4	27.612	0	1472.914	0	28.2	4	8.6	4	-1E+10	1	-1E+10	1	-1E+10	1	-1E+10	1	-1E+10	1	-1E+10	1
4901784	75	C	07/24/2017	10:47	-132.701	43.713	0	1494.90	0	2.4960	0	34.5930	4	27.613	0	1477.641	0	28.5	4	8.7	4	-1E+10	1	-1E+10	1	-1E+10	1	-1E+10	1	-1E+10	1	-1E+10	1
4901784	75	C	07/24/2017	10:47	-132.701	43.713	0	1499.90	0	2.4870	0	34.5940	4	27.615	0	1482.566	0	28.8	4	8.8	4	-1E+10	1	-1E+10	1	-1E+10	1	-1E+10	1	-1E+10	1	-1E+10	1
4901784	75	C	07/24/2017	10:47	-132.701	43.713	0	1504.80	0	2.4780	0	34.5950	4	27.617	0	1487.392	0	29.0	4	8.9	4	-1E+10	1	-1E+10	1	-1E+10	1	-1E+10	1	-1E+10	1	-1E+10	1
4901784	75	C	07/24/2017	10:47	-132.701	43.713	0	1509.80	0	2.4720	0	34.5950	4	27.617	0	1492.317	0	29.2	4	8.9	4	-1E+10	1	-1E+10	1	-1E+10	1	-1E+10	1	-1E+10	1	-1E+10	1
4901784	75	C	07/24/2017	10:47	-132.701	43.713	0	1514.80	0	2.4660	0	34.5960	4	27.618	0	1497.241	0	29.5	4	9.0	4	-1E+10	1	-1E+10	1	-1E+10	1	-1E+10	1	-1E+10	1	-1E+10	1
4901784	75	C	07/24/2017	10:47	-132.701	43.713	0	1519.80	0	2.4590	0	34.5980	4	27.621	0	1502.166	0	29.7	4	9.1	4	-1E+10	1	-1E+10	1	-1E+10	1	-1E+10	1	-1E+10	1	-1E+10	1
4901784	75	C	07/24/2017	10:47	-132.701	43.713	0	1524.70	0	2.4490	0	34.5980	4	27.622	0	1506.991	0	30.0	4	9.1	4	-1E+10	1	-1E+10	1	-1E+10	1	-1E+10	1	-1E+10	1	-1E+10	1
4901784	75	C	07/24/2017	10:47	-132.701	43.713	0	1529.70	0	2.4410	0	34.5990	4	27.623	0	1511.915	0	30.4	4	9.3	4	-1E+10	1	-1E+10	1	-1E+10	1	-1E+10	1	-1E+10	1	-1E+10	1
4901784	75	C	07/24/2017	10:47	-132.701	43.713	0	1534.70	0	2.4340	0	34.6010	4	27.625	0	1516.839	0	30.7	4	9.4	4	-1E+10	1	-1E+10	1	-1E+10	1	-1E+10	1	-1E+10	1	-1E+10	1
4901784	75	C	07/24/2017	10:47	-132.701	43.713	0	1539.80	0	2.4280	0	34.6010	4	27.626	0	1521.862	0	30.9	4	9.4	4	-1E+10	1	-1E+10	1	-1E+10	1	-1E+10	1	-1E+10	1	-1E+10	1
4901784	75	C	07/24/2017	10:47	-132.701	43.713	0	1544.90	0	2.4200	0	34.6020	4	27.627	0	1526.884	0	31.2	4	9.5	4	-1E+10	1	-1E+10	1	-1E+10	1	-1E+10	1	-1E+10	1	-1E+10	1
4901784	75	C	07/24/2017	10:47	-132.701	43.713	0	1550.00	0	2.4080	0	34.6030	4	27.629	0	1531.906	0	31.5	4	9.6	4	-1E+10	1	-1E+10	1	-1E+10	1	-1E+10	1	-1E+10	1	-1E+10	1
4901784	75	C	07/24/2017	10:47	-132.701	43.713	0	1555.10	0	2.4040	0	34.6040	4	27.630	0	1536.928	0	31.8	4	9.7	4	-1E+10	1	-1E+10	1	-1E+10	1	-1E+10	1	-1E+10	1	-1E+10	1
4901784	75	C	07/24/2017	10:47	-132.701	43.713	0	1560.20	0	2.3910	0	34.6040	4	27.631	0	1541.950	0	32.1	4	9.8	4	-1E+10	1	-1E+10	1	-1E+10	1	-1E+10	1	-1E+10	1	-1E+10	1
4901784	75	C	07/24/2017	10:47	-132.701	43.713	0	1565.30	0	2.3760	0	34.6060	4	27.634	0	1546.971	0	32.5	4	9.9	4	-1E+10	1	-1E+10	1	-1E+10	1	-1E+10	1	-1E+10	1	-1E+10	1
4901784	75	C	07/24/2017	10:47	-132.701	43.713	0	1570.40	0	2.3700	0	34.6070	4	27.636	0	1551.993	0	32.8	4	10.0	4	-1E+10	1	-1E+10	1	-1E+10	1	-1E+10	1	-1E+10	1	-1E+10	1
4901784	75	C	07/24/2017	10:47	-132.701	43.713	0	1575.60	0	2.3630	0	34.6080	4	27.637	0	1557.113	0	33.1	4	10.1	4	-1E+10	1	-1E+10	1	-1E+10	1	-1E+10	1	-1E+10	1	-1E+10	1
4901784	75	C	07/24/2017	10:47	-132.701	43.713	0	1580.70	0	2.3570	0	34.6090	4	27.638	0	1562.134	0	33.5	4	10.2	4	-1E+10	1	-1E+10	1	-1E+10	1	-1E+10	1	-1E+10	1	-1E+10	1
4901784	75	C	07/24/2017	10:47	-132.701	43.713	0	1585.00	0	2.3500	0	34.6100	4	27.640	0	1566.368	0	33.7	4	10.3	4	-1E+10	1	-1E+10	1	-1E+10	1	-1E+10	1	-1E+10	1	-1E+10	1
4901784	75	C	07/24/2017	10:47	-132.701	43.713	0	1589.40	0	2.3470	0	34.6100	4	27.640	0	1570.700	0	33.9	4	10.3	4	-1E+10	1	-1E+10	1	-1E+10	1	-1E+10	1	-1E+10	1	-1E+10	1
4901784	75	C	07/24/2017	10:47	-132.701	43.713	0	1594.70	0	2.3450	0	34.6110	4	27.641	0	1575.918	0	34.4	4	10.5	4	-1E+10	1	-1E+10	1	-1E+10	1	-1E+10	1	-1E+10	1	-1E+10	1
4901784	75	C	07/24/2017	10:47	-132.701	43.713	0	1600.00	0	2.3390	0	34.6120	4	27.642	0	1581.135	0	34.7	4	10.6	4	-1E+10	1	-1E+10	1	-1E+10	1	-1E+10	1	-1E+10	1	-1E+10	1
4901784	75	C	07/24/2017	10:47	-132.701	43.713	0	1605.20	0	2.3300	0	34.6140	4	27.645	0	1586.255	0	35.1	4	10.7	4	-1E+10	1	-1E+10	1	-1E+10	1	-1E+10	1	-1E+10	1	-1E+10	1
4901784	75	C	07/24/2017	10:47	-132.701	43.713	0	1610.50	0	2.3230	0	34.6150	4	27.646	0	1591.472	0	35.4	4	10.8	4	-1E+10	1	-1E+10	1	-1E+10	1	-1E+10	1	-1E+10	1	-1E+10	1
4901784	75	C	07/24/2017	10:47	-132.701	43.713	0	1614.80	0	2.3160	0	34.6150	4	27.647	0	1595.705	0	35.7	4	10.9	4	-1E+10	1	-1E+10	1	-1E+10	1	-1E+10	1	-1E+10	1	-1E+10	1
4901784	75	C	07/24/2017	10:47	-132.701	43.713	0	1619.30	0	2.3090	0	34.6160	4	27.648	0	1600.135	0	36.1	4	11.0	4	-1E+10	1	-1E+10	1	-1E+10	1	-1E+10	1	-1E+10	1	-1E+10	1
4901784	75	C	07/24/2017	10:47	-132.701	43.713	0	1624.60	0	2.3020	0	34.6180	4	27.650	0	1605.352	0	36.5	4	11.1	4	-1E+10	1	-1E+10	1	-1E+10	1	-1E+10	1	-1E+10	1	-1E+10	1
4901784	75	C	07/24/2017	10:47	-132.701	43.713	0	1629.90	0	2.2940	0	34.6180	4	27.651	0	1610.569	0	36.8	4	11.2	4	-1E+10	1	-1E+10	1	-1E+10	1	-1E+10	1	-1E+10	1	-1E+10	1
4901784	75	C	07/24/2017	10:47	-132.701	43.713	0	1635.20	0	2.2880	0	34.6190	4	27.652	0	1615.786	0	37.1	4	11.3	4	-1E+10	1	-1E+10	1	-1E+10	1	-1E+10	1	-1E+10	1	-1E+10	1
4901784	75	C	07/24/2017	10:47	-132.701	43.713	0	1640.60	0	2.2830	0	34.6200	4	27.653	0	1621.101	0	37.4	4	11.3	4	-1E+10	1	-1E+10	1	-1E+10	1	-1E+10	1	-1E+10	1	-1E+10	1
4901784	75	C	07/24/2017	10:47	-132.701	43.713	0	1645.00	0	2.2780	0	34.6210	4	27.655	0	1625.432	0	37.6	4	11.4	4	-1E+10	1	-1E+10	1	-1E+10	1	-1E+10	1	-1E+10	1	-1E+10	1
4901784	75	C	07/24/2017	10:47	-132.701	43.713	0	1649.50	0	2.2730	0	34.6210	4	27.655	0	1629.861	0	38.0	4	11.5	4	-1E+10	1	-1E+10	1	-1E+10	1	-1E+10	1	-1E+10	1	-1E+10	1
4901784	75	C	07/24/2017	10:47	-132.701	43.713	0	1654.90	0	2.2600	0	34.6230	4	27.658	0	1635.176	0	38.5	4	11.7	4	-1E+10	1	-1E+10	1	-1E+10	1	-1E+10	1	-1E+10	1	-1E+10	1
4901784	75	C	07/24/2017	10:47	-132.701	43.713	0	1660.30	0	2.2520	0	34.6240	4	27.659	0	1640.491	0	38.9	4	11.8	4	-1E+10	1	-1E+10	1	-1E+10	1	-1E+10	1	-1E+10	1	-1E+10	1
4901784	75	C	07/24/2017	10:47	-132.701	43.713	0	1664.80	0	2.2460	0	34.6250	4	27.661	0	1644.920	0	39.2	4	11.9	4	-1E+10	1	-1E+10	1	-1E+10	1	-1E+10	1	-1E+10	1	-1E+10	1
4901784	75	C	07/24/2017	10:47	-132.701	43.713	0	1669.30	0	2.2400	0	34.6250	4	27.661	0	1649.349	0	39.5	4	12.0	4	-1E+10	1	-1E+10	1	-1E+10	1	-1E+10	1	-1E+10	1	-1E+10	1
4901784	75	C	07/24/2017	10:47	-132.701	43.713	0	1674.80	0	2.2340	0	34.6260	4	27.662	0	1654.762	0	39.9	4	12.1	4	-1E+10	1	-1E+10	1	-1E+10	1	-1E+10	1	-1E+10	1	-1E+10	1
4901784	75	C	07/24/2017	10:47	-132.701	43.713	0	1680.30	0	2.2240	0	34.6280	4	27.665	0	1660.174	0	40.4	4	12.2	4	-1E+10	1	-1E+10	1	-1E+10	1	-1E+10	1	-1E+10	1	-1E+10	1
4901784	75	C	07/24/2017	10:47	-132.701	43.713	0	1684.80	0	2.2150	0	34.6290	4	27.666	0	1664.603	0	40.7	4	12.3	4	-1E+10	1	-1E+10	1	-1E+10	1	-1E+10	1	-1E+10	1	-1E+10	1
4901784	75	C	07/24/2017	10:47	-132.701	43.713	0	1689.40	0	2.2100	0	34.6290	4	27.667	0	1669.129	0	40.9	4	12.4	4	-1E+10	1	-1E+10	1	-1E+10	1	-1E+10	1	-1E+10	1	-1E+10	1
4901784	75	C	07/24/2017	10:47	-132.701	43.713	0	1694.90	0	2.2060	0	34.6300	4	27.668	0	1674.542	0	41.2	4	12.5	4	-1E+10	1	-1E+10	1	-1E+10	1	-1E+10	1	-1E+10	1	-1E+10	1
4901784	75	C	07/24/2017	10:47	-132.701	43.713	0	1700.30	0	2.2000	0	34.6310	4	27.669	0	1679.855	0	41.4	4	12.5	4	-1E+10	1	-1E+10	1	-1E+10	1	-1E+10	1	-1E+10	1	-1E+10	1
4901784	75	C	07/24/2017	10:47	-132.701	43.713	0	1704.90	0	2.1960	0	34.6310	4	27.670	0	1684.382	0	41.6	4	12.6	4	-1E+10	1	-1E+10	1	-1E+10	1	-1E+10	1	-1E+10	1	-1E+10	1
4901784	75	C	07/24/2017	10:47	-132.701	43.713	0	1709.40	0	2.1920	0	34.6310	4	27.670	0	1688.810	0	41.8	4	12.7	4	-1E+10	1	-1E+10	1	-1E+10	1	-1E+10	1	-1E+10	1	-1E+10	1
4901784	75	C	07/24/2017	10:47	-132.701	43.713	0	1714.90	0	2.1840	0	34.6330	4	27.672	0	1694.222	0	42.1	4	12.8	4	-1E+10	1	-1E+10	1	-1E+10	1	-1E+10	1	-1E+10	1	-1E+10	1
4901784	75	C	07/24/2017	10:47	-132.701	43.713	0	1720.40	0	2.1800	0	34.6330	4	27.673	0	1699.633	0	42.4	4	12.8	4	-1E+10	1	-1E+10	1	-1E+10	1	-1E+10	1	-1E+10	1	-1E+10	1
4901784	75	C	07/24/2017	10:47	-132.701	43.713	0	1725.00	0	2.1730	0	34.6340	4	27.674	0	1704.159	0	42.8	4	13.0	4	-1E+10	1	-1E+10	1	-1E+10	1	-1E+10	1	-1E+10	1	-1E+10	1
4901784	75	C	07/24/2017	10:47	-132.701	43.713	0	1729.60	0	2.1650	0	34.6340	4	27.675	0	1708.685	0	43.1	4	13.1	4	-1E+10	1	-1E+10	1	-1E+10	1	-1E+10	1	-1E+10	1	-1E+10	1
4901784	75	C	07/24/2017	10:47	-132.701	43.713	0	1735.10	0	2.1580	0	34.6360	4	27.677	0	1714.096	0	43.6	4	13.2	4	-1E+10	1	-1E+10	1	-1E+10	1	-1E+10	1	-1E+10	1	-1E+10	1
4901784	75	C	07/24/2017	10:47	-132.701	43.713	0	1740.60	0	2.1540	0	34.6370	4	27.678	0	1719.508	0	43.8	4	13.3	4	-1E+10	1	-1E+10	1	-1E+10	1	-1E+10	1	-1E+10	1	-1E+10	1
4901784	75	C	07/24/2017	10:47	-132.701	43.713	0	1745.20	0	2.1530	0	34.6370	4	27.678	0	1724.033	0	44.1	4	13.3	4	-1E+10	1	-1E+10	1	-1E+10	1	-1E+10	1	-1E+10	1	-1E+10	1
4901784	75	C	07/24/2017	10:47	-132.701	43.713	0	1749.70	0	2.1460	0	34.6380	4	27.679	0	1728.460	0	44.4	4	13.4	4	-1E+10	1	-1E+10	1	-1E+10	1	-1E+10	1	-1E+10	1	-1E+10	1
4901784	75	C	07/24/2017	10:47	-132.701	43.713	0	1754.90	0	2.1420	0	34.6390	4	27.681	0	1733.576	0	44.7	4	13.5	4	-1E+10	1	-1E+10	1	-1E+10	1	-1E+10	1	-1E+10	1	-1E+10	1
4901784	75	C	07/24/2017	10:47	-132.701	43.713	0	1759.20	0	2.1370	0	34.6400	4	27.682	0	1737.806	0	45.1	4	13.7	4	-1E+10	1	-1E+10	1	-1E+10	1	-1E+10	1	-1E+10	1	-1E+10	1
4901784	75	C	07/24/2017	10:47	-132.701	43.713	0	1764.90	0	2.1290	0	34.6410	4	27.683	0	1743.413	0	45.6	4	13.8	4	-1E+10	1	-1E+10	1	-1E+10	1	-1E+10	1	-1E+10	1	-1E+10	1
4901784	75	C	07/24/2017	10:47	-132.701	43.713	0	1770.60	0	2.1190	0	34.6420	4	27.685	0	1749.020	0	46.1	4	13.9	4	-1E+10	1	-1E+10	1	-1E+10	1	-1E+10	1	-1E+10	1	-1E+10	1
4901784	75	C	07/24/2017	10:47	-132.701	43.713	0	1775.40	0	2.1180	0	34.6420	4	27.685	0	1753.742	0	46.3	4	14.0	4	-1E+10	1	-1E+10	1	-1E+10	1	-1E+10	1	-1E+10	1	-1E+10	1
4901784	75	C	07/24/2017	10:47	-132.701	43.713	0	1780.40	0	2.1140	0	34.6430	4	27.686	0	1758.661	0	46.7	4	14.1	4	-1E+10	1	-1E+10	1	-1E+10	1	-1E+10	1	-1E+10	1	-1E+10	1
4901784	75	C	07/24/2017	10:47	-132.701	43.713	0	1785.30	0	2.1060	0	34.6440	4	27.688	0	1763.480	0	47.2	4	14.3	4	-1E+10	1	-1E+10	1	-1E+10	1	-1E+10	1	-1E+10	1	-1E+10	1
4901784	75	C	07/24/2017	10:47	-132.701	43.713	0	1790.40	0	2.1030	0	34.6460	4	27.689	0	1768.497	0	47.5	4	14.4	4	-1E+10	1	-1E+10	1	-1E+10	1	-1E+10	1	-1E+10	1	-1E+10	1
4901784	75	C	07/24/2017	10:47	-132.701	43.713	0	1795.40	0	2.0960	0	34.6460	4	27.690	0	1773.415	0	47.9	4	14.5	4	-1E+10	1	-1E+10	1	-1E+10	1	-1E+10	1	-1E+10	1	-1E+10	1
4901784	75	C	07/24/2017	10:47	-132.701	43.713	0	1800.40	0	2.0910	0	34.6470	4	27.691	0	1778.333	0	48.2	4	14.6	4	-1E+10	1	-1E+10	1	-1E+10	1	-1E+10	1	-1E+10	1	-1E+10	1
4901784	75	C	07/24/2017	10:47	-132.701	43.713	0	1805.50	0	2.0870	0	34.6480	4	27.692	0	1783.349	0	48.6	4	14.7	4	-1E+10	1	-1E+10	1	-1E+10	1	-1E+10	1	-1E+10	1	-1E+10	1
4901784	75	C	07/24/2017	10:47	-132.701	43.713	0	1810.60	0	2.0820	0	34.6480	4	27.693	0	1788.365	0	49.1	4	14.8	4	-1E+10	1	-1E+10	1	-1E+10	1	-1E+10	1	-1E+10	1	-1E+10	1
4901784	75	C	07/24/2017	10:47	-132.701	43.713	0	1815.70	0	2.0730	0	34.6500	4	27.695	0	1793.381	0	49.6	4	15.0	4	-1E+10	1	-1E+10	1	-1E+10	1	-1E+10	1	-1E+10	1	-1E+10	1
4901784	75	C	07/24/2017	10:47	-132.701	43.713	0	1820.00	0	2.0660	0	34.6510	4	27.697	0	1797.610	0	49.9	4	15.1	4	-1E+10	1	-1E+10	1	-1E+10	1	-1E+10	1	-1E+10	1	-1E+10	1
4901784	75	C	07/24/2017	10:47	-132.701	43.713	0	1824.30	0	2.0630	0	34.6510	4	27.697	0	1801.838	0	50.2	4	15.2	4	-1E+10	1	-1E+10	1	-1E+10	1	-1E+10	1	-1E+10	1	-1E+10	1
4901784	75	C	07/24/2017	10:47	-132.701	43.713	0	1829.50	0	2.0570	0	34.6530	4	27.699	0	1806.952	0	50.5	4	15.3	4	-1E+10	1	-1E+10	1	-1E+10	1	-1E+10	1	-1E+10	1	-1E+10	1
4901784	75	C	07/24/2017	10:47	-132.701	43.713	0	1834.60	0	2.0550	0	34.6530	4	27.699	0	1811.968	0	50.8	4	15.3	4	-1E+10	1	-1E+10	1	-1E+10	1	-1E+10	1	-1E+10	1	-1E+10	1
4901784	75	C	07/24/2017	10:47	-132.701	43.713	0	1839.80	0	2.0500	0	34.6540	4	27.700	0	1817.081	0	51.2	4	15.5	4	-1E+10	1	-1E+10	1	-1E+10	1	-1E+10	1	-1E+10	1	-1E+10	1
4901784	75	C	07/24/2017	10:47	-132.701	43.713	0	1845.00	0	2.0430	0	34.6550	4	27.702	0	1822.195	0	51.6	4	15.6	4	-1E+10	1	-1E+10	1	-1E+10	1	-1E+10	1	-1E+10	1	-1E+10	1
4901784	75	C	07/24/2017	10:47	-132.701	43.713	0	1850.20	0	2.0400	0	34.6550	4	27.702	0	1827.308	0	51.9	4	15.7	4	-1E+10	1	-1E+10	1	-1E+10	1	-1E+10	1	-1E+10	1	-1E+10	1
4901784	75	C	07/24/2017	10:47	-132.701	43.713	0	1855.50	0	2.0360	0	34.6560	4	27.703	0	1832.520	0	52.1	4	15.7	4	-1E+10	1	-1E+10	1	-1E+10	1	-1E+10	1	-1E+10	1	-1E+10	1
4901784	75	C	07/24/2017	10:47	-132.701	43.713	0	1859.90	0	2.0330	0	34.6560	4	27.703	0	1836.846	0	52.4	4	15.8	4	-1E+10	1	-1E+10	1	-1E+10	1	-1E+10	1	-1E+10	1	-1E+10	1
4901784	75	C	07/24/2017	10:47	-132.701	43.713	0	1864.30	0	2.0270	0	34.6570	4	27.705	0	1841.173	0	52.6	4	15.9	4	-1E+10	1	-1E+10	1	-1E+10	1	-1E+10	1	-1E+10	1	-1E+10	1
4901784	75	C	07/24/2017	10:47	-132.701	43.713	0	1869.60	0	2.0200	0	34.6580	4	27.706	0	1846.384	0	52.9	4	16.0	4	-1E+10	1	-1E+10	1	-1E+10	1	-1E+10	1	-1E+10	1	-1E+10	1
4901784	75	C	07/24/2017	10:47	-132.701	43.713	0	1874.90	0	2.0170	0	34.6580	4	27.706	0	1851.595	0	53.1	4	16.0	4	-1E+10	1	-1E+10	1	-1E+10	1	-1E+10	1	-1E+10	1	-1E+10	1
4901784	75	C	07/24/2017	10:47	-132.701	43.713	0	1880.30	0	2.0130	0	34.6580	4	27.707	0	1856.905	0	53.5	4	16.1	4	-1E+10	1	-1E+10	1	-1E+10	1	-1E+10	1	-1E+10	1	-1E+10	1
4901784	75	C	07/24/2017	10:47	-132.701	43.713	0	1884.90	0	2.0090	0	34.6590	4	27.708	0	1861.427	0	53.8	4	16.2	4	-1E+10	1	-1E+10	1	-1E+10	1	-1E+10	1	-1E+10	1	-1E+10	1
4901784	75	C	07/24/2017	10:47	-132.701	43.713	0	1889.70	0	2.0020	0	34.6600	4	27.709	0	1866.146	0	54.1	4	16.3	4	-1E+10	1	-1E+10	1	-1E+10	1	-1E+10	1	-1E+10	1	-1E+10	1
4901784	75	C	07/24/2017	10:47	-132.701	43.713	0	1894.80	0	1.9990	0	34.6610	4	27.710	0	1871.160	0	54.4	4	16.4	4	-1E+10	1	-1E+10	1	-1E+10	1	-1E+10	1	-1E+10	1	-1E+10	1
4901784	75	C	07/24/2017	10:47	-132.701	43.713	0	1899.70	0	1.9960	0	34.6610	4	27.710	0	1875.978	0	54.7	4	16.5	4	-1E+10	1	-1E+10	1	-1E+10	1	-1E+10	1	-1E+10	1	-1E+10	1
4901784	75	C	07/24/2017	10:47	-132.701	43.713	0	1904.50	0	1.9910	0	34.6620	4	27.712	0	1880.696	0	55.0	4	16.6	4	-1E+10	1	-1E+10	1	-1E+10	1	-1E+10	1	-1E+10	1	-1E+10	1
4901784	75	C	07/24/2017	10:47	-132.701	43.713	0	1909.40	0	1.9890	0	34.6620	4	27.712	0	1885.514	0	55.2	4	16.6	4	-1E+10	1	-1E+10	1	-1E+10	1	-1E+10	1	-1E+10	1	-1E+10	1
4901784	75	C	07/24/2017	10:47	-132.701	43.713	0	1914.30	0	1.9860	0	34.6630	4	27.713	0	1890.331	0	55.4	4	16.7	4	-1E+10	1	-1E+10	1	-1E+10	1	-1E+10	1	-1E+10	1	-1E+10	1
4901784	75	C	07/24/2017	10:47	-132.701	43.713	0	1919.30	0	1.9810	0	34.6640	4	27.714	0	1895.246	0	55.6	4	16.8	4	-1E+10	1	-1E+10	1	-1E+10	1	-1E+10	1	-1E+10	1	-1E+10	1
4901784	75	C	07/24/2017	10:47	-132.701	43.713	0	1924.30	0	1.9790	0	34.6640	4	27.714	0	1900.161	0	55.8	4	16.8	4	-1E+10	1	-1E+10	1	-1E+10	1	-1E+10	1	-1E+10	1	-1E+10	1
4901784	75	C	07/24/2017	10:47	-132.701	43.713	0	1929.40	0	1.9750	0	34.6640	4	27.715	0	1905.174	0	56.0	4	16.9	4	-1E+10	1	-1E+10	1	-1E+10	1	-1E+10	1	-1E+10	1	-1E+10	1
4901784	75	C	07/24/2017	10:47	-132.701	43.713	0	1934.50	0	1.9720	0	34.6650	4	27.716	0	1910.187	0	56.2	4	16.9	4	-1E+10	1	-1E+10	1	-1E+10	1	-1E+10	1	-1E+10	1	-1E+10	1
4901784	75	C	07/24/2017	10:47	-132.701	43.713	0	1939.60	0	1.9700	0	34.6650	4	27.716	0	1915.200	0	56.4	4	17.0	4	-1E+10	1	-1E+10	1	-1E+10	1	-1E+10	1	-1E+10	1	-1E+10	1
4901784	75	C	07/24/2017	10:47	-132.701	43.713	0	1944.80	0	1.9680	0	34.6650	4	27.716	0	1920.311	0	56.6	4	17.1	4	-1E+10	1	-1E+10	1	-1E+10	1	-1E+10	1	-1E+10	1	-1E+10	1
4901784	75	C	07/24/2017	10:47	-132.701	43.713	0	1950.00	0	1.9650	0	34.6660	4	27.717	0	1925.422	0	56.9	4	17.2	4	-1E+10	1	-1E+10	1	-1E+10	1	-1E+10	1	-1E+10	1	-1E+10	1
4901784	75	C	07/24/2017	10:47	-132.701	43.713	0	1955.20	0	1.9630	0	34.6660	4	27.717	0	1930.533	0	57.1	4	17.2	4	-1E+10	1	-1E+10	1	-1E+10	1	-1E+10	1	-1E+10	1	-1E+10	1
4901784	75	C	07/24/2017	10:47	-132.701	43.713	0	1960.40	0	1.9600	0	34.6670	4	27.718	0	1935.644	0	57.3	4	17.3	4	-1E+10	1	-1E+10	1	-1E+10	1	-1E+10	1	-1E+10	1	-1E+10	1
4901784	75	C	07/24/2017	10:47	-132.701	43.713	0	1965.60	0	1.9580	0	34.6670	4	27.719	0	1940.754	0	57.5	4	17.3	4	-1E+10	1	-1E+10	1	-1E+10	1	-1E+10	1	-1E+10	1	-1E+10	1
4901784	75	C	07/24/2017	10:47	-132.701	43.713	0	1970.00	0	1.9560	0	34.6670	4	27.719	0	1945.079	0	57.7	4	17.4	4	-1E+10	1	-1E+10	1	-1E+10	1	-1E+10	1	-1E+10	1	-1E+10	1
4901784	75	C	07/24/2017	10:47	-132.701	43.713	0	1974.50	0	1.9530	0	34.6680	4	27.720	0	1949.501	0	57.9	4	17.4	4	-1E+10	1	-1E+10	1	-1E+10	1	-1E+10	1	-1E+10	1	-1E+10	1
4901784	75	C	07/24/2017	10:47	-132.701	43.713	0	1979.80	0	1.9490	0	34.6690	4	27.721	0	1954.710	0	58.2	4	17.5	4	-1E+10	1	-1E+10	1	-1E+10	1	-1E+10	1	-1E+10	1	-1E+10	1
4901784	75	C	07/24/2017	10:47	-132.701	43.713	0	1985.20	0	1.9460	0	34.6690	4	27.721	0	1960.017	0	58.5	4	17.6	4	-1E+10	1	-1E+10	1	-1E+10	1	-1E+10	1	-1E+10	1	-1E+10	1
4901784	75	C	07/24/2017	10:47	-132.701	43.713	0	1989.80	0	1.9420	0	34.6700	4	27.722	0	1964.537	0	58.8	4	17.7	4	-1E+10	1	-1E+10	1	-1E+10	1	-1E+10	1	-1E+10	1	-1E+10	1
4901784	75	C	07/24/2017	10:47	-132.701	43.713	0	1994.20	0	1.9380	0	34.6710	4	27.724	0	1968.861	0	59.0	4	17.8	4	-1E+10	1	-1E+10	1	-1E+10	1	-1E+10	1	-1E+10	1	-1E+10	1
4901784	75	C	07/24/2017	10:47	-132.701	43.713	0	1999.40	0	1.9370	0	34.6710	4	27.724	0	1973.971	0	59.1	4	17.8	4	-1E+10	1	-1E+10	1	-1E+10	1	-1E+10	1	-1E+10	1	-1E+10	1
4901784	75	C	07/24/2017	10:47	-132.701	43.713	0	2005.00	0	1.9340	0	34.6710	4	27.724	0	1979.474	0	59.3	4	17.9	4	-1E+10	1	-1E+10	1	-1E+10	1	-1E+10	1	-1E+10	1	-1E+10	1
4901784	75	C	07/24/2017	10:47	-132.701	43.713	0	2010.50	0	1.9320	0	34.6710	4	27.724	0	1984.878	0	59.5	4	17.9	4	-1E+10	1	-1E+10	1	-1E+10	1	-1E+10	1	-1E+10	1	-1E+10	1
4901784	75	C	07/24/2017	10:47	-132.701	43.713	0	2014.50	0	1.9300	0	34.6720	4	27.725	0	1988.808	0	59.6	4	18.0	4	-1E+10	1	-1E+10	1	-1E+10	1	-1E+10	1	-1E+10	1	-1E+10	1
4901784	75	C	07/24/2017	10:47	-132.701	43.713	0	2020.30	0	1.9270	0	34.6720	4	27.725	0	1994.507	0	59.6	8	18.0	8	-1E+10	1	-1E+10	1	-1E+10	1	-1E+10	1	-1E+10	1	-1E+10	1
4901784	75	C	07/24/2017	10:47	-132.701	43.713	0																										
4901784	76	C	08/03/2017	10:50	-132.959	43.652	0	2.70	0	17.5990	0	32.8460	4	23.721	0	2.678	0	237.1	4	99.1	4	-1E+10	1	-1E+10	1	-1E+10	1	-1E+10	1	-1E+10	1	-1E+10	1
4901784	76	C	08/03/2017	10:50	-132.959	43.652	0	4.10	0	17.5990	0	32.8450	4	23.720	0	4.067	0	237.1	4	99.1	4	-1E+10	1	-1E+10	1	-1E+10	1	-1E+10	1	-1E+10	1	-1E+10	1
4901784	76	C	08/03/2017	10:50	-132.959	43.652	0	5.70	0	17.5990	0	32.8440	4	23.720	0	5.654	0	237.2	4	99.1	4	-1E+10	1	-1E+10	1	-1E+10	1	-1E+10	1	-1E+10	1	-1E+10	1
4901784	76	C	08/03/2017	10:50	-132.959	43.652	0	7.00	0	17.5810	0	32.8420	4	23.722	0	6.944	0	237.3	4	99.2	4	-1E+10	1	-1E+10	1	-1E+10	1	-1E+10	1	-1E+10	1	-1E+10	1
4901784	76	C	08/03/2017	10:50	-132.959	43.652	0	8.20	0	17.5600	0	32.8410	4	23.727	0	8.134	0	238.0	4	99.4	4	-1E+10	1	-1E+10	1	-1E+10	1	-1E+10	1	-1E+10	1	-1E+10	1
4901784	76	C	08/03/2017	10:50	-132.959	43.652	0	9.50	0	17.5700	0	32.8370	4	23.721	0	9.424	0	238.4	4	99.6	4	-1E+10	1	-1E+10	1	-1E+10	1	-1E+10	1	-1E+10	1	-1E+10	1
4901784	76	C	08/03/2017	10:50	-132.959	43.652	0	10.70	0	17.5490	0	32.8330	4	23.723	0	10.614	0	239.5	4	100.0	4	-1E+10	1	-1E+10	1	-1E+10	1	-1E+10	1	-1E+10	1	-1E+10	1
4901784	76	C	08/03/2017	10:50	-132.959	43.652	0	12.00	0	17.5310	0	32.8210	4	23.718	0	11.904	0	241.3	4	100.7	4	-1E+10	1	-1E+10	1	-1E+10	1	-1E+10	1	-1E+10	1	-1E+10	1
4901784	76	C	08/03/2017	10:50	-132.959	43.652	0	13.30	0	17.4210	0	32.8140	4	23.739	0	13.193	0	243.4	4	101.4	4	-1E+10	1	-1E+10	1	-1E+10	1	-1E+10	1	-1E+10	1	-1E+10	1
4901784	76	C	08/03/2017	10:50	-132.959	43.652	0	14.80	0	16.5570	0	32.8050	4	23.934	0	14.681	0	247.6	4	101.5	4	-1E+10	1	-1E+10	1	-1E+10	1	-1E+10	1	-1E+10	1	-1E+10	1
4901784	76	C	08/03/2017	10:50	-132.959	43.652	0	16.30	0	16.1560	0	32.7910	4	24.015	0	16.169	0	253.7	4	103.1	4	-1E+10	1	-1E+10	1	-1E+10	1	-1E+10	1	-1E+10	1	-1E+10	1
4901784	76	C	08/03/2017	10:50	-132.959	43.652	0	18.00	0	15.7010	0	32.7990	4	24.123	0	17.855	0	257.1	4	103.6	4	-1E+10	1	-1E+10	1	-1E+10	1	-1E+10	1	-1E+10	1	-1E+10	1
4901784	76	C	08/03/2017	10:50	-132.959	43.652	0	19.70	0	15.5820	0	32.8050	4	24.155	0	19.542	0	258.4	4	103.9	4	-1E+10	1	-1E+10	1	-1E+10	1	-1E+10	1	-1E+10	1	-1E+10	1
4901784	76	C	08/03/2017	10:50	-132.959	43.652	0	21.40	0	15.3220	0	32.8130	4	24.218	0	21.228	0	260.2	4	104.1	4	-1E+10	1	-1E+10	1	-1E+10	1	-1E+10	1	-1E+10	1	-1E+10	1
4901784	76	C	08/03/2017	10:50	-132.959	43.652	0	23.00	0	15.0840	0	32.8180	4	24.274	0	22.815	0	262.0	4	104.3	4	-1E+10	1	-1E+10	1	-1E+10	1	-1E+10	1	-1E+10	1	-1E+10	1
4901784	76	C	08/03/2017	10:50	-132.959	43.652	0	24.60	0	14.9770	0	32.8270	4	24.304	0	24.402	0	263.3	4	104.6	4	-1E+10	1	-1E+10	1	-1E+10	1	-1E+10	1	-1E+10	1	-1E+10	1
4901784	76	C	08/03/2017	10:50	-132.959	43.652	0	26.30	0	14.9470	0	32.8340	4	24.316	0	26.088	0	263.6	4	104.7	4	-1E+10	1	-1E+10	1	-1E+10	1	-1E+10	1	-1E+10	1	-1E+10	1
4901784	76	C	08/03/2017	10:50	-132.959	43.652	0	27.90	0	14.9130	0	32.8320	4	24.321	0	27.675	0	264.6	4	105.0	4	-1E+10	1	-1E+10	1	-1E+10	1	-1E+10	1	-1E+10	1	-1E+10	1
4901784	76	C	08/03/2017	10:50	-132.959	43.652	0	29.60	0	14.7950	0	32.8290	4	24.344	0	29.361	0	266.3	4	105.4	4	-1E+10	1	-1E+10	1	-1E+10	1	-1E+10	1	-1E+10	1	-1E+10	1
4901784	76	C	08/03/2017	10:50	-132.959	43.652	0	31.20	0	14.4170	0	32.8340	4	24.428	0	30.948	0	268.8	4	105.6	4	-1E+10	1	-1E+10	1	-1E+10	1	-1E+10	1	-1E+10	1	-1E+10	1
4901784	76	C	08/03/2017	10:50	-132.959	43.652	0	32.90	0	14.0960	0	32.8310	4	24.493	0	32.634	0	272.7	4	106.5	4	-1E+10	1	-1E+10	1	-1E+10	1	-1E+10	1	-1E+10	1	-1E+10	1
4901784	76	C	08/03/2017	10:50	-132.959	43.652	0	34.60	0	14.0410	0	32.8250	4	24.500	0	34.321	0	274.5	4	107.1	4	-1E+10	1	-1E+10	1	-1E+10	1	-1E+10	1	-1E+10	1	-1E+10	1
4901784	76	C	08/03/2017	10:50	-132.959	43.652	0	36.20	0	13.8480	0	32.8220	4	24.537	0	35.907	0	276.9	4	107.6	4	-1E+10	1	-1E+10	1	-1E+10	1	-1E+10	1	-1E+10	1	-1E+10	1
4901784	76	C	08/03/2017	10:50	-132.959	43.652	0	37.90	0	13.2130	0	32.8340	4	24.675	0	37.594	0	282.2	4	108.2	4	-1E+10	1	-1E+10	1	-1E+10	1	-1E+10	1	-1E+10	1	-1E+10	1
4901784	76	C	08/03/2017	10:50	-132.959	43.652	0	39.70	0	13.0090	0	32.8340	4	24.715	0	39.379	0	283.9	4	108.4	4	-1E+10	1	-1E+10	1	-1E+10	1	-1E+10	1	-1E+10	1	-1E+10	1
4901784	76	C	08/03/2017	10:50	-132.959	43.652	0	42.00	0	12.5700	0	32.8390	4	24.805	0	41.660	0	286.6	4	108.5	4	-1E+10	1	-1E+10	1	-1E+10	1	-1E+10	1	-1E+10	1	-1E+10	1
4901784	76	C	08/03/2017	10:50	-132.959	43.652	0	43.80	0	12.1720	0	32.8460	4	24.886	0	43.445	0	288.8	4	108.4	4	-1E+10	1	-1E+10	1	-1E+10	1	-1E+10	1	-1E+10	1	-1E+10	1
4901784	76	C	08/03/2017	10:50	-132.959	43.652	0	45.30	0	11.8150	0	32.8460	4	24.953	0	44.933	0	289.3	4	107.8	4	-1E+10	1	-1E+10	1	-1E+10	1	-1E+10	1	-1E+10	1	-1E+10	1
4901784	76	C	08/03/2017	10:50	-132.959	43.652	0	46.80	0	11.5480	0	32.8500	4	25.005	0	46.421	0	288.5	4	106.9	4	-1E+10	1	-1E+10	1	-1E+10	1	-1E+10	1	-1E+10	1	-1E+10	1
4901784	76	C	08/03/2017	10:50	-132.959	43.652	0	48.30	0	11.0820	0	32.8560	4	25.093	0	47.908	0	289.0	4	106.1	4	-1E+10	1	-1E+10	1	-1E+10	1	-1E+10	1	-1E+10	1	-1E+10	1
4901784	76	C	08/03/2017	10:50	-132.959	43.652	0	50.00	0	10.9170	0	32.8460	4	25.115	0	49.594	0	287.8	4	105.2	4	-1E+10	1	-1E+10	1	-1E+10	1	-1E+10	1	-1E+10	1	-1E+10	1
4901784	76	C	08/03/2017	10:50	-132.959	43.652	0	51.60	0	10.6160	0	32.8500	4	25.170	0	51.181	0	287.2	4	104.4	4	-1E+10	1	-1E+10	1	-1E+10	1	-1E+10	1	-1E+10	1	-1E+10	1
4901784	76	C	08/03/2017	10:50	-132.959	43.652	0	53.20	0	10.3340	0	32.8650	4	25.230	0	52.768	0	286.9	4	103.6	4	-1E+10	1	-1E+10	1	-1E+10	1	-1E+10	1	-1E+10	1	-1E+10	1
4901784	76	C	08/03/2017	10:50	-132.959	43.652	0	55.10	0	10.2590	0	32.8660	4	25.244	0	54.652	0	286.1	4	103.2	4	-1E+10	1	-1E+10	1	-1E+10	1	-1E+10	1	-1E+10	1	-1E+10	1
4901784	76	C	08/03/2017	10:50	-132.959	43.652	0	56.70	0	10.1970	0	32.8640	4	25.253	0	56.239	0	284.7	4	102.5	4	-1E+10	1	-1E+10	1	-1E+10	1	-1E+10	1	-1E+10	1	-1E+10	1
4901784	76	C	08/03/2017	10:50	-132.959	43.652	0	58.50	0	9.9370	0	32.8820	4	25.310	0	58.024	0	284.7	4	102.0	4	-1E+10	1	-1E+10	1	-1E+10	1	-1E+10	1	-1E+10	1	-1E+10	1
4901784	76	C	08/03/2017	10:50	-132.959	43.652	0	60.20	0	9.8210	0	32.8840	4	25.331	0	59.710	0	284.5	4	101.6	4	-1E+10	1	-1E+10	1	-1E+10	1	-1E+10	1	-1E+10	1	-1E+10	1
4901784	76	C	08/03/2017	10:50	-132.959	43.652	0	62.20	0	9.8070	0	32.8820	4	25.332	0	61.693	0	283.9	4	101.4	4	-1E+10	1	-1E+10	1	-1E+10	1	-1E+10	1	-1E+10	1	-1E+10	1
4901784	76	C	08/03/2017	10:50	-132.959	43.652	0	62.70	0	9.8030	0	32.8810	4	25.332	0	62.189	0	283.3	4	101.2	4	-1E+10	1	-1E+10	1	-1E+10	1	-1E+10	1	-1E+10	1	-1E+10	1
4901784	76	C	08/03/2017	10:50	-132.959	43.652	0	64.20	0	9.7080	0	32.8870	4	25.352	0	63.677	0	282.6	4	100.7	4	-1E+10	1	-1E+10	1	-1E+10	1	-1E+10	1	-1E+10	1	-1E+10	1
4901784	76	C	08/03/2017	10:50	-132.959	43.652	0	65.60	0	9.6520	0	32.8930	4	25.366	0	65.065	0	281.5	4	100.2	4	-1E+10	1	-1E+10	1	-1E+10	1	-1E+10	1	-1E+10	1	-1E+10	1
4901784	76	C	08/03/2017	10:50	-132.959	43.652	0	67.10	0	9.5880	0	32.8970	4	25.380	0	66.553	0	280.8	4	99.8	4	-1E+10	1	-1E+10	1	-1E+10	1	-1E+10	1	-1E+10	1	-1E+10	1
4901784	76	C	08/03/2017	10:50	-132.959	43.652	0	68.60	0	9.5250	0	32.9050	4	25.396	0	68.040	0	279.9	4	99.4	4	-1E+10	1	-1E+10	1	-1E+10	1	-1E+10	1	-1E+10	1	-1E+10	1
4901784	76	C	08/03/2017	10:50	-132.959	43.652	0	70.10	0	9.4770	0	32.9060	4	25.405	0	69.528	0	278.8	4	98.9	4	-1E+10	1	-1E+10	1	-1E+10	1	-1E+10	1	-1E+10	1	-1E+10	1
4901784	76	C	08/03/2017	10:50	-132.959	43.652	0	71.70	0	9.3750	0	32.9150	4	25.428	0	71.114	0	277.8	4	98.3	4	-1E+10	1	-1E+10	1	-1E+10	1	-1E+10	1	-1E+10	1	-1E+10	1
4901784	76	C	08/03/2017	10:50	-132.959	43.652	0	73.20	0	9.3210	0	32.9130	4	25.435	0	72.602	0	277.5	4	98.1	4	-1E+10	1	-1E+10	1	-1E+10	1	-1E+10	1	-1E+10	1	-1E+10	1
4901784	76	C	08/03/2017	10:50	-132.959	43.652	0	74.80	0	9.2540	0	32.9120	4	25.445	0	74.189	0	276.6	4	97.6	4	-1E+10	1	-1E+10	1	-1E+10	1	-1E+10	1	-1E+10	1	-1E+10	1
4901784	76	C	08/03/2017	10:50	-132.959	43.652	0	76.40	0	9.1030	0	32.9310	4	25.484	0	75.775	0	276.6	4	97.3	4	-1E+10	1	-1E+10	1	-1E+10	1	-1E+10	1	-1E+10	1	-1E+10	1
4901784	76	C	08/03/2017	10:50	-132.959	43.652	0	78.00	0	9.0890	0	32.9330	4	25.488	0	77.362	0	276.0	4	97.1	4	-1E+10	1	-1E+10	1	-1E+10	1	-1E+10	1	-1E+10	1	-1E+10	1
4901784	76	C	08/03/2017	10:50	-132.959	43.652	0	79.60	0	9.0820	0	32.9320	4	25.488	0	78.948	0	275.2	4	96.8	4	-1E+10	1	-1E+10	1	-1E+10	1	-1E+10	1	-1E+10	1	-1E+10	1
4901784	76	C	08/03/2017	10:50	-132.959	43.652	0	81.20	0	9.0480	0	32.9370	4	25.497	0	80.535	0	274.3	4	96.4	4	-1E+10	1	-1E+10	1	-1E+10	1	-1E+10	1	-1E+10	1	-1E+10	1
4901784	76	C	08/03/2017	10:50	-132.959	43.652	0	82.90	0	8.9790	0	32.9510	4	25.519	0	82.221	0	273.4	4	95.9	4	-1E+10	1	-1E+10	1	-1E+10	1	-1E+10	1	-1E+10	1	-1E+10	1
4901784	76	C	08/03/2017	10:50	-132.959	43.652	0	84.60	0	8.9650	0	32.9700	4	25.536	0	83.907	0	272.7	4	95.7	4	-1E+10	1	-1E+10	1	-1E+10	1	-1E+10	1	-1E+10	1	-1E+10	1
4901784	76	C	08/03/2017	10:50	-132.959	43.652	0	86.30	0	8.9640	0	32.9740	4	25.539	0	85.592	0	272.2	4	95.5	4	-1E+10	1	-1E+10	1	-1E+10	1	-1E+10	1	-1E+10	1	-1E+10	1
4901784	76	C	08/03/2017	10:50	-132.959	43.652	0	88.00	0	8.9160	0	32.9760	4	25.548	0	87.278	0	271.7	4	95.2	4	-1E+10	1	-1E+10	1	-1E+10	1	-1E+10	1	-1E+10	1	-1E+10	1
4901784	76	C	08/03/2017	10:50	-132.959	43.652	0	89.70	0	8.8950	0	32.9750	4	25.551	0	88.964	0	271.0	4	94.9	4	-1E+10	1	-1E+10	1	-1E+10	1	-1E+10	1	-1E+10	1	-1E+10	1
4901784	76	C	08/03/2017	10:50	-132.959	43.652	0	91.40	0	8.8500	0	32.9770	4	25.559	0	90.649	0	270.5	4	94.7	4	-1E+10	1	-1E+10	1	-1E+10	1	-1E+10	1	-1E+10	1	-1E+10	1
4901784	76	C	08/03/2017	10:50	-132.959	43.652	0	93.00	0	8.7900	0	32.9790	4	25.570	0	92.236	0	269.9	4	94.3	4	-1E+10	1	-1E+10	1	-1E+10	1	-1E+10	1	-1E+10	1	-1E+10	1
4901784	76	C	08/03/2017	10:50	-132.959	43.652	0	94.70	0	8.7570	0	32.9770	4	25.574	0	93.921	0	269.2	4	94.0	4	-1E+10	1	-1E+10	1	-1E+10	1	-1E+10	1	-1E+10	1	-1E+10	1
4901784	76	C	08/03/2017	10:50	-132.959	43.652	0	96.40	0	8.7530	0	32.9870	4	25.582	0	95.607	0	268.2	4	93.7	4	-1E+10	1	-1E+10	1	-1E+10	1	-1E+10	1	-1E+10	1	-1E+10	1
4901784	76	C	08/03/2017	10:50	-132.959	43.652	0	98.00	0	8.7170	0	32.9880	4	25.589	0	97.194	0	267.3	4	93.3	4	-1E+10	1	-1E+10	1	-1E+10	1	-1E+10	1	-1E+10	1	-1E+10	1
4901784	76	C	08/03/2017	10:50	-132.959	43.652	0	99.70	0	8.6240	0	32.9810	4	25.597	0	98.879	0	266.7	4	92.9	4	-1E+10	1	-1E+10	1	-1E+10	1	-1E+10	1	-1E+10	1	-1E+10	1
4901784	76	C	08/03/2017	10:50	-132.959	43.652	0	102.30	0	8.5630	0	32.9830	4	25.608	0	101.457	0	265.2	4	92.2	4	-1E+10	1	-1E+10	1	-1E+10	1	-1E+10	1	-1E+10	1	-1E+10	1
4901784	76	C	08/03/2017	10:50	-132.959	43.652	0	104.90	0	8.5360	0	32.9970	4	25.623	0	104.035	0	263.1	4	91.5	4	-1E+10	1	-1E+10	1	-1E+10	1	-1E+10	1	-1E+10	1	-1E+10	1
4901784	76	C	08/03/2017	10:50	-132.959	43.652	0	107.40	0	8.4720	0	33.0040	4	25.638	0	106.514	0	261.1	4	90.6	4	-1E+10	1	-1E+10	1	-1E+10	1	-1E+10	1	-1E+10	1	-1E+10	1
4901784	76	C	08/03/2017	10:50	-132.959	43.652	0	110.00	0	8.4690	0	33.0290	4	25.659	0	109.092	0	258.0	4	89.6	4	-1E+10	1	-1E+10	1	-1E+10	1	-1E+10	1	-1E+10	1	-1E+10	1
4901784	76	C	08/03/2017	10:50	-132.959	43.652	0	112.10	0	8.4780	0	33.0410	4	25.667	0	111.174	0	254.8	4	88.5	4	-1E+10	1	-1E+10	1	-1E+10	1	-1E+10	1	-1E+10	1	-1E+10	1
4901784	76	C	08/03/2017	10:50	-132.959	43.652	0	114.50	0	8.5090	0	33.0790	4	25.692	0	113.553	0	249.3	4	86.7	4	-1E+10	1	-1E+10	1	-1E+10	1	-1E+10	1	-1E+10	1	-1E+10	1
4901784	76	C	08/03/2017	10:50	-132.959	43.652	0	117.30	0	8.5110	0	33.1170	4	25.721	0	116.329	0	241.6	4	84.0	4	-1E+10	1	-1E+10	1	-1E+10	1	-1E+10	1	-1E+10	1	-1E+10	1
4901784	76	C	08/03/2017	10:50	-132.959	43.652	0	120.20	0	8.5220	0	33.1770	4	25.767	0	119.204	0	232.0	4	80.7	4	-1E+10	1	-1E+10	1	-1E+10	1	-1E+10	1	-1E+10	1	-1E+10	1
4901784	76	C	08/03/2017	10:50	-132.959	43.652	0	122.40	0	8.6160	0	33.2650	4	25.821	0	121.386	0	224.5	4	78.3	4	-1E+10	1	-1E+10	1	-1E+10	1	-1E+10	1	-1E+10	1	-1E+10	1
4901784	76	C	08/03/2017	10:50	-132.959	43.652	0	124.60	0	8.6500	0	33.3210	4	25.860	0	123.567	0	217.4	4	75.9	4	-1E+10	1	-1E+10	1	-1E+10	1	-1E+10	1	-1E+10	1	-1E+10	1
4901784	76	C	08/03/2017	10:50	-132.959	43.652	0	127.60	0	8.7170	0	33.4390	4	25.942	0	126.541	0	206.2	4	72.2	4	-1E+10	1	-1E+10	1	-1E+10	1	-1E+10	1	-1E+10	1	-1E+10	1
4901784	76	C	08/03/2017	10:50	-132.959	43.652	0	130.00	0	8.7380	0	33.5700	4	26.042	0	128.920	0	198.7	4	69.7	4	-1E+10	1	-1E+10	1	-1E+10	1	-1E+10	1	-1E+10	1	-1E+10	1
4901784	76	C	08/03/2017	10:50	-132.959	43.652	0	132.40	0	8.7530	0	33.6530	4	26.105	0	131.299	0	194.0	4	68.1	4	-1E+10	1	-1E+10	1	-1E+10	1	-1E+10	1	-1E+10	1	-1E+10	1
4901784	76	C	08/03/2017	10:50	-132.959	43.652	0	134.90	0	8.7520	0	33.7200	4	26.157	0	133.778	0	190.8	4	67.0	4	-1E+10	1	-1E+10	1	-1E+10	1	-1E+10	1	-1E+10	1	-1E+10	1
4901784	76	C	08/03/2017	10:50	-132.959	43.652	0	137.50	0	8.7350	0	33.7640	4	26.194	0	136.355	0	189.0	4	66.4	4	-1E+10	1	-1E+10	1	-1E+10	1	-1E+10	1	-1E+10	1	-1E+10	1
4901784	76	C	08/03/2017	10:50	-132.959	43.652	0	140.10	0	8.7210	0	33.7850	4	26.213	0	138.933	0	187.2	4	65.7	4	-1E+10	1	-1E+10	1	-1E+10	1	-1E+10	1	-1E+10	1	-1E+10	1
4901784	76	C	08/03/2017	10:50	-132.959	43.652	0	142.60	0	8.7040	0	33.8210	4	26.244	0	141.411	0	185.7	4	65.2	4	-1E+10	1	-1E+10	1	-1E+10	1	-1E+10	1	-1E+10	1	-1E+10	1
4901784	76	C	08/03/2017	10:50	-132.959	43.652	0	145.30	0	8.6790	0	33.8550	4	26.275	0	144.088	0	184.3	4	64.7	4	-1E+10	1	-1E+10	1	-1E+10	1	-1E+10	1	-1E+10	1	-1E+10	1
4901784	76	C	08/03/2017	10:50	-132.959	43.652	0	147.00	0	8.6680	0	33.8830	4	26.298	0	145.773	0	183.8	4	64.5	4	-1E+10	1	-1E+10	1	-1E+10	1	-1E+10	1	-1E+10	1	-1E+10	1
4901784	76	C	08/03/2017	10:50	-132.959	43.652	0	149.70	0	8.6770	0	33.9000	4	26.310	0	148.449	0	182.8	4	64.2	4	-1E+10	1	-1E+10	1	-1E+10	1	-1E+10	1	-1E+10	1	-1E+10	1
4901784	76	C	08/03/2017	10:50	-132.959	43.652	0	152.30	0	8.6340	0	33.9190	4	26.332	0	151.027	0	181.9	4	63.8	4	-1E+10	1	-1E+10	1	-1E+10	1	-1E+10	1	-1E+10	1	-1E+10	1
4901784	76	C	08/03/2017	10:50	-132.959	43.652	0	154.90	0	8.6500	0	33.9610	4	26.362	0	153.604	0	181.2	4	63.6	4	-1E+10	1	-1E+10	1	-1E+10	1	-1E+10	1	-1E+10	1	-1E+10	1
4901784	76	C	08/03/2017	10:50	-132.959	43.652	0	157.60	0	8.6370	0	33.9680	4	26.370	0	156.280	0	180.6	4	63.4	4	-1E+10	1	-1E+10	1	-1E+10	1	-1E+10	1	-1E+10	1	-1E+10	1
4901784	76	C	08/03/2017	10:50	-132.959	43.652	0	160.30	0	8.5850	0	33.9730	4	26.382	0	158.957	0	179.9	4	63.1	4	-1E+10	1	-1E+10	1	-1E+10	1	-1E+10	1	-1E+10	1	-1E+10	1
4901784	76	C	08/03/2017	10:50	-132.959	43.652	0	163.00	0	8.5660	0	33.9860	4	26.395	0	161.633	0	179.4	4	62.8	4	-1E+10	1	-1E+10	1	-1E+10	1	-1E+10	1	-1E+10	1	-1E+10	1
4901784	76	C	08/03/2017	10:50	-132.959	43.652	0	164.80	0	8.5580	0	33.9900	4	26.399	0	163.417	0	178.8	4	62.6	4	-1E+10	1	-1E+10	1	-1E+10	1	-1E+10	1	-1E+10	1	-1E+10	1
4901784	76	C	08/03/2017	10:50	-132.959	43.652	0	167.40	0	8.5320	0	33.9950	4	26.407	0	165.994	0	177.9	4	62.3	4	-1E+10	1	-1E+10	1	-1E+10	1	-1E+10	1	-1E+10	1	-1E+10	1
4901784	76	C	08/03/2017	10:50	-132.959	43.652	0	170.20	0	8.4480	0	34.0050	4	26.428	0	168.770	0	177.0	4	61.9	4	-1E+10	1	-1E+10	1	-1E+10	1	-1E+10	1	-1E+10	1	-1E+10	1
4901784	76	C	08/03/2017	10:50	-132.959	43.652	0	172.40	0	8.4480	0	34.0060	4	26.429	0	170.950	0	176.3	4	61.6	4	-1E+10	1	-1E+10	1	-1E+10	1	-1E+10	1	-1E+10	1	-1E+10	1
4901784	76	C	08/03/2017	10:50	-132.959	43.652	0	175.00	0	8.3930	0	34.0100	4	26.440	0	173.527	0	175.0	4	61.1	4	-1E+10	1	-1E+10	1	-1E+10	1	-1E+10	1	-1E+10	1	-1E+10	1
4901784	76	C	08/03/2017	10:50	-132.959	43.652	0	177.20	0	8.3410	0	34.0140	4	26.451	0	175.708	0	174.0	4	60.7	4	-1E+10	1	-1E+10	1	-1E+10	1	-1E+10	1	-1E+10	1	-1E+10	1
4901784	76	C	08/03/2017	10:50	-132.959	43.652	0	179.50	0	8.3020	0	34.0130	4	26.457	0	177.988	0	173.0	4	60.3	4	-1E+10	1	-1E+10	1	-1E+10	1	-1E+10	1	-1E+10	1	-1E+10	1
4901784	76	C	08/03/2017	10:50	-132.959	43.652	0	182.60	0	8.2380	0	34.0130	4	26.466	0	181.060	0	171.3	4	59.6	4	-1E+10	1	-1E+10	1	-1E+10	1	-1E+10	1	-1E+10	1	-1E+10	1
4901784	76	C	08/03/2017	10:50	-132.959	43.652	0	184.90	0	8.1960	0	34.0170	4	26.476	0	183.340	0	170.1	4	59.1	4	-1E+10	1	-1E+10	1	-1E+10	1	-1E+10	1	-1E+10	1	-1E+10	1
4901784	76	C	08/03/2017	10:50	-132.959	43.652	0	187.30	0	8.1420	0	34.0160	4	26.483	0	185.718	0	169.0	4	58.7	4	-1E+10	1	-1E+10	1	-1E+10	1	-1E+10	1	-1E+10	1	-1E+10	1
4901784	76	C	08/03/2017	10:50	-132.959	43.652	0	189.70	0	8.0780	0	34.0150	4	26.492	0	188.097	0	168.0	4	58.2	4	-1E+10	1	-1E+10	1	-1E+10	1	-1E+10	1	-1E+10	1	-1E+10	1
4901784	76	C	08/03/2017	10:50	-132.959	43.652	0	192.10	0	8.0430	0	34.0150	4	26.497	0	190.476	0	167.2	4	57.9	4	-1E+10	1	-1E+10	1	-1E+10	1	-1E+10	1	-1E+10	1	-1E+10	1
4901784	76	C	08/03/2017	10:50	-132.959	43.652	0	195.30	0	7.9800	0	34.0120	4	26.504	0	193.647	0	166.3	4	57.5	4	-1E+10	1	-1E+10	1	-1E+10	1	-1E+10	1	-1E+10	1	-1E+10	1
4901784	76	C	08/03/2017	10:50	-132.959	43.652	0	197.70	0	7.9540	0	34.0110	4	26.507	0	196.026	0	165.6	4	57.2	4	-1E+10	1	-1E+10	1	-1E+10	1	-1E+10	1	-1E+10	1	-1E+10	1
4901784	76	C	08/03/2017	10:50	-132.959	43.652	0	200.20	0	7.9320	0	34.0100	4	26.510	0	198.503	0	164.6	4	56.9	4	-1E+10	1	-1E+10	1	-1E+10	1	-1E+10	1	-1E+10	1	-1E+10	1
4901784	76	C	08/03/2017	10:50	-132.959	43.652	0	202.70	0	7.8810	0	34.0090	4	26.516	0	200.981	0	163.8	4	56.5	4	-1E+10	1	-1E+10	1	-1E+10	1	-1E+10	1	-1E+10	1	-1E+10	1
4901784	76	C	08/03/2017	10:50	-132.959	43.652	0	205.30	0	7.8460	0	34.0060	4	26.519	0	203.558	0	162.6	4	56.1	4	-1E+10	1	-1E+10	1	-1E+10	1	-1E+10	1	-1E+10	1	-1E+10	1
4901784	76	C	08/03/2017	10:50	-132.959	43.652	0	207.80	0	7.8220	0	34.0080	4	26.524	0	206.035	0	161.2	4	55.6	4	-1E+10	1	-1E+10	1	-1E+10	1	-1E+10	1	-1E+10	1	-1E+10	1
4901784	76	C	08/03/2017	10:50	-132.959	43.652	0	209.60	0	7.7990	0	34.0130	4	26.531	0	207.819	0	160.3	4	55.2	4	-1E+10	1	-1E+10	1	-1E+10	1	-1E+10	1	-1E+10	1	-1E+10	1
4901784	76	C	08/03/2017	10:50	-132.959	43.652	0	212.20	0	7.7780	0	34.0120	4	26.534	0	210.396	0	159.0	4	54.8	4	-1E+10	1	-1E+10	1	-1E+10	1	-1E+10	1	-1E+10	1	-1E+10	1
4901784	76	C	08/03/2017	10:50	-132.959	43.652	0	214.80	0	7.7350	0	34.0100	4	26.538	0	212.972	0	157.7	4	54.2	4	-1E+10	1	-1E+10	1	-1E+10	1	-1E+10	1	-1E+10	1	-1E+10	1
4901784	76	C	08/03/2017	10:50	-132.959	43.652	0	217.50	0	7.6940	0	34.0100	4	26.544	0	215.648	0	156.2	4	53.7	4	-1E+10	1	-1E+10	1	-1E+10	1	-1E+10	1	-1E+10	1	-1E+10	1
4901784	76	C	08/03/2017	10:50	-132.959	43.652	0	220.30	0	7.6460	0	34.0110	4	26.552	0	218.422	0	154.9	4	53.2	4	-1E+10	1	-1E+10	1	-1E+10	1	-1E+10	1	-1E+10	1	-1E+10	1
4901784	76	C	08/03/2017	10:50	-132.959	43.652	0	222.10	0	7.5850	0	34.0130	4	26.563	0	220.206	0	154.4	4	52.9	4	-1E+10	1	-1E+10	1	-1E+10	1	-1E+10	1	-1E+10	1	-1E+10	1
4901784	76	C	08/03/2017	10:50	-132.959	43.652	0	224.80	0	7.5700	0	34.0120	4	26.564	0	222.882	0	153.4	4	52.6	4	-1E+10	1	-1E+10	1	-1E+10	1	-1E+10	1	-1E+10	1	-1E+10	1
4901784	76	C	08/03/2017	10:50	-132.959	43.652	0	227.60	0	7.5380	0	34.0110	4	26.568	0	225.656	0	152.4	4	52.2	4	-1E+10	1	-1E+10	1	-1E+10	1	-1E+10	1	-1E+10	1	-1E+10	1
4901784	76	C	08/03/2017	10:50	-132.959	43.652	0	230.20	0	7.4850	0	34.0090	4	26.574	0	228.233	0	151.4	4	51.8	4	-1E+10	1	-1E+10	1	-1E+10	1	-1E+10	1	-1E+10	1	-1E+10	1
4901784	76	C	08/03/2017	10:50	-132.959	43.652	0	233.00	0	7.4430	0	34.0080	4	26.579	0	231.007	0	150.2	4	51.3	4	-1E+10	1	-1E+10	1	-1E+10	1	-1E+10	1	-1E+10	1	-1E+10	1
4901784	76	C	08/03/2017	10:50	-132.959	43.652	0	234.80	0	7.4130	0	34.0070	4	26.582	0	232.791	0	149.5	4	51.0	4	-1E+10	1	-1E+10	1	-1E+10	1	-1E+10	1	-1E+10	1	-1E+10	1
4901784	76	C	08/03/2017	10:50	-132.959	43.652	0	237.50	0	7.3570	0	34.0060	4	26.590	0	235.466	0	148.2	4	50.5	4	-1E+10	1	-1E+10	1	-1E+10	1	-1E+10	1	-1E+10	1	-1E+10	1
4901784	76	C	08/03/2017	10:50	-132.959	43.652	0	240.20	0	7.3020	0	34.0070	4	26.598	0	238.141	0	147.1	4	50.1	4	-1E+10	1	-1E+10	1	-1E+10	1	-1E+10	1	-1E+10	1	-1E+10	1
4901784	76	C	08/03/2017	10:50	-132.959	43.652	0	242.00	0	7.2670	0	34.0060	4	26.602	0	239.925	0	146.5	4	49.9	4	-1E+10	1	-1E+10	1	-1E+10	1	-1E+10	1	-1E+10	1	-1E+10	1
4901784	76	C	08/03/2017	10:50	-132.959	43.652	0	244.80	0	7.2240	0	34.0040	4	26.607	0	242.699	0	145.6	4	49.5	4	-1E+10	1	-1E+10	1	-1E+10	1	-1E+10	1	-1E+10	1	-1E+10	1
4901784	76	C	08/03/2017	10:50	-132.959	43.652	0	247.50	0	7.1780	0	34.0040	4	26.613	0	245.374	0	144.8	4	49.2	4	-1E+10	1	-1E+10	1	-1E+10	1	-1E+10	1	-1E+10	1	-1E+10	1
4901784	76	C	08/03/2017	10:50	-132.959	43.652	0	250.20	0	7.1720	0	34.0030	4	26.613	0	248.050	0	144.1	4	48.9	4	-1E+10	1	-1E+10	1	-1E+10	1	-1E+10	1	-1E+10	1	-1E+10	1
4901784	76	C	08/03/2017	10:50	-132.959	43.652	0	252.90	0	7.1670	0	34.0020	4	26.613	0	250.725	0	143.2	4	48.6	4	-1E+10	1	-1E+10	1	-1E+10	1	-1E+10	1	-1E+10	1	-1E+10	1
4901784	76	C	08/03/2017	10:50	-132.959	43.652	0	254.70	0	7.1410	0	34.0010	4	26.616	0	252.508	0	142.2	4	48.3	4	-1E+10	1	-1E+10	1	-1E+10	1	-1E+10	1	-1E+10	1	-1E+10	1
4901784	76	C	08/03/2017	10:50	-132.959	43.652	0	257.50	0	7.0790	0	33.9990	4	26.623	0	255.282	0	141.1	4	47.8	4	-1E+10	1	-1E+10	1	-1E+10	1	-1E+10	1	-1E+10	1	-1E+10	1
4901784	76	C	08/03/2017	10:50	-132.959	43.652	0	260.40	0	6.9990	0	33.9980	4	26.633	0	258.156	0	139.9	4	47.3	4	-1E+10	1	-1E+10	1	-1E+10	1	-1E+10	1	-1E+10	1	-1E+10	1
4901784	76	C	08/03/2017	10:50	-132.959	43.652	0	262.20	0	6.9700	0	33.9960	4	26.636	0	259.939	0	139.2	4	47.1	4	-1E+10	1	-1E+10	1	-1E+10	1	-1E+10	1	-1E+10	1	-1E+10	1
4901784	76	C	08/03/2017	10:50	-132.959	43.652	0	265.10	0	6.9310	0	33.9940	4	26.639	0	262.812	0	137.8	4	46.5	4	-1E+10	1	-1E+10	1	-1E+10	1	-1E+10	1	-1E+10	1	-1E+10	1
4901784	76	C	08/03/2017	10:50	-132.959	43.652	0	267.80	0	6.8600	0	33.9940	4	26.649	0	265.487	0	136.8	4	46.1	4	-1E+10	1	-1E+10	1	-1E+10	1	-1E+10	1	-1E+10	1	-1E+10	1
4901784	76	C	08/03/2017	10:50	-132.959	43.652	0	269.70	0	6.8320	0	33.9920	4	26.651	0	267.369	0	136.1	4	45.9	4	-1E+10	1	-1E+10	1	-1E+10	1	-1E+10	1	-1E+10	1	-1E+10	1
4901784	76	C	08/03/2017	10:50	-132.959	43.652	0	272.40	0	6.7820	0	33.9920	4	26.658	0	270.044	0	135.0	4	45.4	4	-1E+10	1	-1E+10	1	-1E+10	1	-1E+10	1	-1E+10	1	-1E+10	1
4901784	76	C	08/03/2017	10:50	-132.959	43.652	0	275.20	0	6.7170	0	33.9930	4	26.667	0	272.818	0	133.9	4	45.0	4	-1E+10	1	-1E+10	1	-1E+10	1	-1E+10	1	-1E+10	1	-1E+10	1
4901784	76	C	08/03/2017	10:50	-132.959	43.652	0	277.00	0	6.6970	0	33.9910	4	26.668	0	274.602	0	133.3	4	44.8	4	-1E+10	1	-1E+10	1	-1E+10	1	-1E+10	1	-1E+10	1	-1E+10	1
4901784	76	C	08/03/2017	10:50	-132.959	43.652	0	279.70	0	6.6810	0	33.9900	4	26.670	0	277.276	0	132.1	4	44.4	4	-1E+10	1	-1E+10	1	-1E+10	1	-1E+10	1	-1E+10	1	-1E+10	1
4901784	76	C	08/03/2017	10:50	-132.959	43.652	0	282.40	0	6.6610	0	33.9890	4	26.672	0	279.951	0	130.6	4	43.8	4	-1E+10	1	-1E+10	1	-1E+10	1	-1E+10	1	-1E+10	1	-1E+10	1
4901784	76	C	08/03/2017	10:50	-132.959	43.652	0	285.20	0	6.5930	0	33.9880	4	26.680	0	282.725	0	129.1	4	43.3	4	-1E+10	1	-1E+10	1	-1E+10	1	-1E+10	1	-1E+10	1	-1E+10	1
4901784	76	C	08/03/2017	10:50	-132.959	43.652	0	287.90	0	6.5310	0	33.9860	4	26.687	0	285.400	0	127.9	4	42.8	4	-1E+10	1	-1E+10	1	-1E+10	1	-1E+10	1	-1E+10	1	-1E+10	1
4901784	76	C	08/03/2017	10:50	-132.959	43.652	0	289.70	0	6.4900	0	33.9830	4	26.690	0	287.183	0	127.3	4	42.6	4	-1E+10	1	-1E+10	1	-1E+10	1	-1E+10	1	-1E+10	1	-1E+10	1
4901784	76	C	08/03/2017	10:50	-132.959	43.652	0	292.50	0	6.3520	0	33.9820	4	26.707	0	289.956	0	126.4	4	42.1	4	-1E+10	1	-1E+10	1	-1E+10	1	-1E+10	1	-1E+10	1	-1E+10	1
4901784	76	C	08/03/2017	10:50	-132.959	43.652	0	295.20	0	6.3160	0	33.9810	4	26.711	0	292.631	0	125.6	4	41.8	4	-1E+10	1	-1E+10	1	-1E+10	1	-1E+10	1	-1E+10	1	-1E+10	1
4901784	76	C	08/03/2017	10:50	-132.959	43.652	0	297.90	0	6.2990	0	33.9810	4	26.713	0	295.306	0	124.6	4	41.5	4	-1E+10	1	-1E+10	1	-1E+10	1	-1E+10	1	-1E+10	1	-1E+10	1
4901784	76	C	08/03/2017	10:50	-132.959	43.652	0	300.60	0	6.2430	0	33.9810	4	26.720	0	297.980	0	123.4	4	41.0	4	-1E+10	1	-1E+10	1	-1E+10	1	-1E+10	1	-1E+10	1	-1E+10	1
4901784	76	C	08/03/2017	10:50	-132.959	43.652	0	302.40	0	6.2280	0	33.9810	4	26.722	0	299.763	0	122.7	4	40.8	4	-1E+10	1	-1E+10	1	-1E+10	1	-1E+10	1	-1E+10	1	-1E+10	1
4901784	76	C	08/03/2017	10:50	-132.959	43.652	0	305.10	0	6.2090	0	33.9810	4	26.724	0	302.438	0	121.5	4	40.4	4	-1E+10	1	-1E+10	1	-1E+10	1	-1E+10	1	-1E+10	1	-1E+10	1
4901784	76	C	08/03/2017	10:50	-132.959	43.652	0	307.80	0	6.2030	0	33.9790	4	26.724	0	305.112	0	120.0	4	39.8	4	-1E+10	1	-1E+10	1	-1E+10	1	-1E+10	1	-1E+10	1	-1E+10	1
4901784	76	C	08/03/2017	10:50	-132.959	43.652	0	309.60	0	6.1810	0	33.9790	4	26.727	0	306.895	0	118.7	4	39.4	4	-1E+10	1	-1E+10	1	-1E+10	1	-1E+10	1	-1E+10	1	-1E+10	1
4901784	76	C	08/03/2017	10:50	-132.959	43.652	0	312.30	0	6.1190	0	33.9820	4	26.737	0	309.569	0	116.5	4	38.6	4	-1E+10	1	-1E+10	1	-1E+10	1	-1E+10	1	-1E+10	1	-1E+10	1
4901784	76	C	08/03/2017	10:50	-132.959	43.652	0	315.00	0	6.0430	0	33.9820	4	26.746	0	312.244	0	114.3	4	37.8	4	-1E+10	1	-1E+10	1	-1E+10	1	-1E+10	1	-1E+10	1	-1E+10	1
4901784	76	C	08/03/2017	10:50	-132.959	43.652	0	317.70	0	6.0210	0	33.9790	4	26.747	0	314.918	0	112.4	4	37.2	4	-1E+10	1	-1E+10	1	-1E+10	1	-1E+10	1	-1E+10	1	-1E+10	1
4901784	76	C	08/03/2017	10:50	-132.959	43.652	0	320.40	0	5.9750	0	33.9800	4	26.753	0	317.592	0	109.7	4	36.2	4	-1E+10	1	-1E+10	1	-1E+10	1	-1E+10	1	-1E+10	1	-1E+10	1
4901784	76	C	08/03/2017	10:50	-132.959	43.652	0	322.30	0	5.9330	0	33.9800	4	26.759	0	319.474	0	108.0	4	35.6	4	-1E+10	1	-1E+10	1	-1E+10	1	-1E+10	1	-1E+10	1	-1E+10	1
4901784	76	C	08/03/2017	10:50	-132.959	43.652	0	325.00	0	5.8980	0	33.9800	4	26.763	0	322.149	0	105.9	4	34.9	4	-1E+10	1	-1E+10	1	-1E+10	1	-1E+10	1	-1E+10	1	-1E+10	1
4901784	76	C	08/03/2017	10:50	-132.959	43.652	0	327.80	0	5.8420	0	33.9820	4	26.772	0	324.922	0	104.2	4	34.3	4	-1E+10	1	-1E+10	1	-1E+10	1	-1E+10	1	-1E+10	1	-1E+10	1
4901784	76	C	08/03/2017	10:50	-132.959	43.652	0	329.60	0	5.8040	0	33.9830	4	26.777	0	326.705	0	103.5	4	34.1	4	-1E+10	1	-1E+10	1	-1E+10	1	-1E+10	1	-1E+10	1	-1E+10	1
4901784	76	C	08/03/2017	10:50	-132.959	43.652	0	332.30	0	5.7870	0	33.9820	4	26.778	0	329.379	0	102.7	4	33.8	4	-1E+10	1	-1E+10	1	-1E+10	1	-1E+10	1	-1E+10	1	-1E+10	1
4901784	76	C	08/03/2017	10:50	-132.959	43.652	0	335.00	0	5.7430	0	33.9820	4	26.784	0	332.053	0	101.9	4	33.5	4	-1E+10	1	-1E+10	1	-1E+10	1	-1E+10	1	-1E+10	1	-1E+10	1
4901784	76	C	08/03/2017	10:50	-132.959	43.652	0	337.70	0	5.7090	0	33.9830	4	26.789	0	334.727	0	100.9	4	33.1	4	-1E+10	1	-1E+10	1	-1E+10	1	-1E+10	1	-1E+10	1	-1E+10	1
4901784	76	C	08/03/2017	10:50	-132.959	43.652	0	340.40	0	5.6790	0	33.9840	4	26.793	0	337.401	0	99.5	4	32.6	4	-1E+10	1	-1E+10	1	-1E+10	1	-1E+10	1	-1E+10	1	-1E+10	1
4901784	76	C	08/03/2017	10:50	-132.959	43.652	0	342.20	0	5.6380	0	33.9850	4	26.799	0	339.184	0	98.4	4	32.3	4	-1E+10	1	-1E+10	1	-1E+10	1	-1E+10	1	-1E+10	1	-1E+10	1
4901784	76	C	08/03/2017	10:50	-132.959	43.652	0	344.90	0	5.6300	0	33.9850	4	26.800	0	341.858	0	97.2	4	31.8	4	-1E+10	1	-1E+10	1	-1E+10	1	-1E+10	1	-1E+10	1	-1E+10	1
4901784	76	C	08/03/2017	10:50	-132.959	43.652	0	347.60	0	5.6130	0	33.9860	4	26.803	0	344.532	0	95.9	4	31.4	4	-1E+10	1	-1E+10	1	-1E+10	1	-1E+10	1	-1E+10	1	-1E+10	1
4901784	76	C	08/03/2017	10:50	-132.959	43.652	0	350.40	0	5.5770	0	33.9880	4	26.809	0	347.304	0	94.3	4	30.9	4	-1E+10	1	-1E+10	1	-1E+10	1	-1E+10	1	-1E+10	1	-1E+10	1
4901784	76	C	08/03/2017	10:50	-132.959	43.652	0	353.10	0	5.5600	0	33.9890	4	26.812	0	349.978	0	92.8	4	30.4	4	-1E+10	1	-1E+10	1	-1E+10	1	-1E+10	1	-1E+10	1	-1E+10	1
4901784	76	C	08/03/2017	10:50	-132.959	43.652	0	355.00	0	5.5340	0	33.9900	4	26.816	0	351.860	0	91.8	4	30.0	4	-1E+10	1	-1E+10	1	-1E+10	1	-1E+10	1	-1E+10	1	-1E+10	1
4901784	76	C	08/03/2017	10:50	-132.959	43.652	0	357.70	0	5.5240	0	33.9910	4	26.818	0	354.534	0	90.3	4	29.5	4	-1E+10	1	-1E+10	1	-1E+10	1	-1E+10	1	-1E+10	1	-1E+10	1
4901784	76	C	08/03/2017	10:50	-132.959	43.652	0	360.50	0	5.5200	0	33.9920	4	26.819	0	357.307	0	88.6	4	29.0	4	-1E+10	1	-1E+10	1	-1E+10	1	-1E+10	1	-1E+10	1	-1E+10	1
4901784	76	C	08/03/2017	10:50	-132.959	43.652	0	362.30	0	5.5040	0	33.9950	4	26.823	0	359.089	0	88.3	4	28.8	4	-1E+10	1	-1E+10	1	-1E+10	1	-1E+10	1	-1E+10	1	-1E+10	1
4901784	76	C	08/03/2017	10:50	-132.959	43.652	0	365.00	0	5.4670	0	33.9950	4	26.828	0	361.763	0	88.3	4	28.8	4	-1E+10	1	-1E+10	1	-1E+10	1	-1E+10	1	-1E+10	1	-1E+10	1
4901784	76	C	08/03/2017	10:50	-132.959	43.652	0	367.70	0	5.4060	0	33.9950	4	26.835	0	364.436	0	88.4	4	28.8	4	-1E+10	1	-1E+10	1	-1E+10	1	-1E+10	1	-1E+10	1	-1E+10	1
4901784	76	C	08/03/2017	10:50	-132.959	43.652	0	369.50	0	5.4030	0	33.9950	4	26.835	0	366.219	0	88.2	4	28.7	4	-1E+10	1	-1E+10	1	-1E+10	1	-1E+10	1	-1E+10	1	-1E+10	1
4901784	76	C	08/03/2017	10:50	-132.959	43.652	0	372.30	0	5.3850	0	33.9940	4	26.837	0	368.991	0	87.4	4	28.5	4	-1E+10	1	-1E+10	1	-1E+10	1	-1E+10	1	-1E+10	1	-1E+10	1
4901784	76	C	08/03/2017	10:50	-132.959	43.652	0	375.00	0	5.3580	0	33.9940	4	26.840	0	371.665	0	86.3	4	28.1	4	-1E+10	1	-1E+10	1	-1E+10	1	-1E+10	1	-1E+10	1	-1E+10	1
4901784	76	C	08/03/2017	10:50	-132.959	43.652	0	377.80	0	5.3190	0	33.9970	4	26.847	0	374.438	0	85.1	4	27.7	4	-1E+10	1	-1E+10	1	-1E+10	1	-1E+10	1	-1E+10	1	-1E+10	1
4901784	76	C	08/03/2017	10:50	-132.959	43.652	0	380.50	0	5.2950	0	33.9990	4	26.851	0	377.111	0	84.4	4	27.4	4	-1E+10	1	-1E+10	1	-1E+10	1	-1E+10	1	-1E+10	1	-1E+10	1
4901784	76	C	08/03/2017	10:50	-132.959	43.652	0	382.40	0	5.2890	0	34.0000	4	26.853	0	378.993	0	84.0	4	27.3	4	-1E+10	1	-1E+10	1	-1E+10	1	-1E+10	1	-1E+10	1	-1E+10	1
4901784	76	C	08/03/2017	10:50	-132.959	43.652	0	385.20	0	5.2810	0	34.0010	4	26.854	0	381.765	0	83.4	4	27.1	4	-1E+10	1	-1E+10	1	-1E+10	1	-1E+10	1	-1E+10	1	-1E+10	1
4901784	76	C	08/03/2017	10:50	-132.959	43.652	0	387.90	0	5.2660	0	34.0020	4	26.857	0	384.438	0	82.8	4	26.9	4	-1E+10	1	-1E+10	1	-1E+10	1	-1E+10	1	-1E+10	1	-1E+10	1
4901784	76	C	08/03/2017	10:50	-132.959	43.652	0	389.80	0	5.2600	0	34.0020	4	26.858	0	386.320	0	82.4	4	26.8	4	-1E+10	1	-1E+10	1	-1E+10	1	-1E+10	1	-1E+10	1	-1E+10	1
4901784	76	C	08/03/2017	10:50	-132.959	43.652	0	392.50	0	5.2460	0	34.0040	4	26.861	0	388.993	0	81.8	4	26.6	4	-1E+10	1	-1E+10	1	-1E+10	1	-1E+10	1	-1E+10	1	-1E+10	1
4901784	76	C	08/03/2017	10:50	-132.959	43.652	0	395.30	0	5.2300	0	34.0040	4	26.863	0	391.765	0	81.1	4	26.3	4	-1E+10	1	-1E+10	1	-1E+10	1	-1E+10	1	-1E+10	1	-1E+10	1
4901784	76	C	08/03/2017	10:50	-132.959	43.652	0	397.10	0	5.2120	0	34.0050	4	26.866	0	393.548	0	80.6	4	26.2	4	-1E+10	1	-1E+10	1	-1E+10	1	-1E+10	1	-1E+10	1	-1E+10	1
4901784	76	C	08/03/2017	10:50	-132.959	43.652	0	399.90	0	5.1960	0	34.0070	4	26.869	0	396.320	0	79.7	4	25.9	4	-1E+10	1	-1E+10	1	-1E+10	1	-1E+10	1	-1E+10	1	-1E+10	1
4901784	76	C	08/03/2017	10:50	-132.959	43.652	0	402.80	0	5.1740	0	34.0100	4	26.874	0	399.191	0	78.9	4	25.6	4	-1E+10	1	-1E+10	1	-1E+10	1	-1E+10	1	-1E+10	1	-1E+10	1
4901784	76	C	08/03/2017	10:50	-132.959	43.652	0	404.60	0	5.1600	0	34.0130	4	26.878	0	400.973	0	78.3	4	25.4	4	-1E+10	1	-1E+10	1	-1E+10	1	-1E+10	1	-1E+10	1	-1E+10	1
4901784	76	C	08/03/2017	10:50	-132.959	43.652	0	407.50	0	5.1350	0	34.0120	4	26.880	0	403.844	0	77.5	4	25.1	4	-1E+10	1	-1E+10	1	-1E+10	1	-1E+10	1	-1E+10	1	-1E+10	1
4901784	76	C	08/03/2017	10:50	-132.959	43.652	0	410.30	0	5.1220	0	34.0140	4	26.883	0	406.617	0	76.5	4	24.8	4	-1E+10	1	-1E+10	1	-1E+10	1	-1E+10	1	-1E+10	1	-1E+10	1
4901784	76	C	08/03/2017	10:50	-132.959	43.652	0	412.20	0	5.0980	0	34.0150	4	26.887	0	408.498	0	75.9	4	24.6	4	-1E+10	1	-1E+10	1	-1E+10	1	-1E+10	1	-1E+10	1	-1E+10	1
4901784	76	C	08/03/2017	10:50	-132.959	43.652	0	415.00	0	5.0860	0	34.0170	4	26.890	0	411.270	0	75.1	4	24.3	4	-1E+10	1	-1E+10	1	-1E+10	1	-1E+10	1	-1E+10	1	-1E+10	1
4901784	76	C	08/03/2017	10:50	-132.959	43.652	0	417.80	0	5.0660	0	34.0210	4	26.895	0	414.042	0	74.0	4	23.9	4	-1E+10	1	-1E+10	1	-1E+10	1	-1E+10	1	-1E+10	1	-1E+10	1
4901784	76	C	08/03/2017	10:50	-132.959	43.652	0	419.60	0	5.0440	0	34.0230	4	26.900	0	415.824	0	73.4	4	23.7	4	-1E+10	1	-1E+10	1	-1E+10	1	-1E+10	1	-1E+10	1	-1E+10	1
4901784	76	C	08/03/2017	10:50	-132.959	43.652	0	422.40	0	5.0350	0	34.0230	4	26.901	0	418.596	0	72.4	4	23.4	4	-1E+10	1	-1E+10	1	-1E+10	1	-1E+10	1	-1E+10	1	-1E+10	1
4901784	76	C	08/03/2017	10:50	-132.959	43.652	0	425.20	0	5.0220	0	34.0250	4	26.904	0	421.368	0	71.3	4	23.0	4	-1E+10	1	-1E+10	1	-1E+10	1	-1E+10	1	-1E+10	1	-1E+10	1
4901784	76	C	08/03/2017	10:50	-132.959	43.652	0	427.00	0	5.0060	0	34.0280	4	26.908	0	423.150	0	70.2	4	22.7	4	-1E+10	1	-1E+10	1	-1E+10	1	-1E+10	1	-1E+10	1	-1E+10	1
4901784	76	C	08/03/2017	10:50	-132.959	43.652	0	429.90	0	4.9970	0	34.0290	4	26.910	0	426.021	0	68.6	4	22.1	4	-1E+10	1	-1E+10	1	-1E+10	1	-1E+10	1	-1E+10	1	-1E+10	1
4901784	76	C	08/03/2017	10:50	-132.959	43.652	0	432.70	0	4.9850	0	34.0320	4	26.914	0	428.792	0	66.9	4	21.6	4	-1E+10	1	-1E+10	1	-1E+10	1	-1E+10	1	-1E+10	1	-1E+10	1
4901784	76	C	08/03/2017	10:50	-132.959	43.652	0	434.60	0	4.9790	0	34.0330	4	26.915	0	430.673	0	65.9	4	21.3	4	-1E+10	1	-1E+10	1	-1E+10	1	-1E+10	1	-1E+10	1	-1E+10	1
4901784	76	C	08/03/2017	10:50	-132.959	43.652	0	437.40	0	4.9680	0	34.0370	4	26.919	0	433.445	0	64.5	4	20.8	4	-1E+10	1	-1E+10	1	-1E+10	1	-1E+10	1	-1E+10	1	-1E+10	1
4901784	76	C	08/03/2017	10:50	-132.959	43.652	0	440.40	0	4.9530	0	34.0400	4	26.924	0	436.415	0	63.5	4	20.5	4	-1E+10	1	-1E+10	1	-1E+10	1	-1E+10	1	-1E+10	1	-1E+10	1
4901784	76	C	08/03/2017	10:50	-132.959	43.652	0	442.90	0	4.9500	0	34.0410	4	26.925	0	438.889	0	62.7	4	20.2	4	-1E+10	1	-1E+10	1	-1E+10	1	-1E+10	1	-1E+10	1	-1E+10	1
4901784	76	C	08/03/2017	10:50	-132.959	43.652	0	444.80	0	4.9430	0	34.0420	4	26.926	0	440.770	0	61.8	4	19.9	4	-1E+10	1	-1E+10	1	-1E+10	1	-1E+10	1	-1E+10	1	-1E+10	1
4901784	76	C	08/03/2017	10:50	-132.959	43.652	0	447.10	0	4.9310	0	34.0450	4	26.930	0	443.047	0	60.6	4	19.5	4	-1E+10	1	-1E+10	1	-1E+10	1	-1E+10	1	-1E+10	1	-1E+10	1
4901784	76	C	08/03/2017	10:50	-132.959	43.652	0	450.40	0	4.9020	0	34.0510	4	26.938	0	446.313	0	58.9	4	19.0	4	-1E+10	1	-1E+10	1	-1E+10	1	-1E+10	1	-1E+10	1	-1E+10	1
4901784	76	C	08/03/2017	10:50	-132.959	43.652	0	452.70	0	4.8960	0	34.0530	4	26.940	0	448.590	0	57.3	4	18.5	4	-1E+10	1	-1E+10	1	-1E+10	1	-1E+10	1	-1E+10	1	-1E+10	1
4901784	76	C	08/03/2017	10:50	-132.959	43.652	0	455.30	0	4.8740	0	34.0580	4	26.947	0	451.164	0	55.9	4	18.0	4	-1E+10	1	-1E+10	1	-1E+10	1	-1E+10	1	-1E+10	1	-1E+10	1
4901784	76	C	08/03/2017	10:50	-132.959	43.652	0	457.70	0	4.8560	0	34.0630	4	26.953	0	453.539	0	54.9	4	17.7	4	-1E+10	1	-1E+10	1	-1E+10	1	-1E+10	1	-1E+10	1	-1E+10	1
4901784	76	C	08/03/2017	10:50	-132.959	43.652	0	460.20	0	4.8460	0	34.0650	4	26.956	0	456.014	0	54.0	4	17.4	4	-1E+10	1	-1E+10	1	-1E+10	1	-1E+10	1	-1E+10	1	-1E+10	1
4901784	76	C	08/03/2017	10:50	-132.959	43.652	0	462.60	0	4.8260	0	34.0700	4	26.962	0	458.389	0	53.2	4	17.1	4	-1E+10	1	-1E+10	1	-1E+10	1	-1E+10	1	-1E+10	1	-1E+10	1
4901784	76	C	08/03/2017	10:50	-132.959	43.652	0	465.10	0	4.8220	0	34.0710	4	26.963	0	460.864	0	52.4	4	16.9	4	-1E+10	1	-1E+10	1	-1E+10	1	-1E+10	1	-1E+10	1	-1E+10	1
4901784	76	C	08/03/2017	10:50	-132.959	43.652	0	467.50	0	4.8040	0	34.0740	4	26.967	0	463.239	0	51.4	4	16.5	4	-1E+10	1	-1E+10	1	-1E+10	1	-1E+10	1	-1E+10	1	-1E+10	1
4901784	76	C	08/03/2017	10:50	-132.959	43.652	0	470.00	0	4.7850	0	34.0780	4	26.973	0	465.714	0	50.5	4	16.2	4	-1E+10	1	-1E+10	1	-1E+10	1	-1E+10	1	-1E+10	1	-1E+10	1
4901784	76	C	08/03/2017	10:50	-132.959	43.652	0	472.50	0	4.7730	0	34.0790	4	26.975	0	468.188	0	49.7	4	16.0	4	-1E+10	1	-1E+10	1	-1E+10	1	-1E+10	1	-1E+10	1	-1E+10	1
4901784	76	C	08/03/2017	10:50	-132.959	43.652	0	475.00	0	4.7600	0	34.0830	4	26.980	0	470.662	0	48.8	4	15.7	4	-1E+10	1	-1E+10	1	-1E+10	1	-1E+10	1	-1E+10	1	-1E+10	1
4901784	76	C	08/03/2017	10:50	-132.959	43.652	0	477.50	0	4.7500	0	34.0850	4	26.982	0	473.137	0	47.8	4	15.4	4	-1E+10	1	-1E+10	1	-1E+10	1	-1E+10	1	-1E+10	1	-1E+10	1
4901784	76	C	08/03/2017	10:50	-132.959	43.652	0	480.00	0	4.7330	0	34.0880	4	26.987	0	475.611	0	46.7	4	15.0	4	-1E+10	1	-1E+10	1	-1E+10	1	-1E+10	1	-1E+10	1	-1E+10	1
4901784	76	C	08/03/2017	10:50	-132.959	43.652	0	482.50	0	4.7070	0	34.0950	4	26.995	0	478.085	0	45.5	4	14.6	4	-1E+10	1	-1E+10	1	-1E+10	1	-1E+10	1	-1E+10	1	-1E+10	1
4901784	76	C	08/03/2017	10:50	-132.959	43.652	0	485.10	0	4.6930	0	34.0980	4	26.999	0	480.659	0	44.5	4	14.3	4	-1E+10	1	-1E+10	1	-1E+10	1	-1E+10	1	-1E+10	1	-1E+10	1
4901784	76	C	08/03/2017	10:50	-132.959	43.652	0	487.70	0	4.6790	0	34.1020	4	27.004	0	483.232	0	43.6	4	14.0	4	-1E+10	1	-1E+10	1	-1E+10	1	-1E+10	1	-1E+10	1	-1E+10	1
4901784	76	C	08/03/2017	10:50	-132.959	43.652	0	490.30	0	4.6620	0	34.1070	4	27.010	0	485.805	0	43.0	4	13.8	4	-1E+10	1	-1E+10	1	-1E+10	1	-1E+10	1	-1E+10	1	-1E+10	1
4901784	76	C	08/03/2017	10:50	-132.959	43.652	0	492.90	0	4.6540	0	34.1080	4	27.011	0	488.378	0	42.5	4	13.6	4	-1E+10	1	-1E+10	1	-1E+10	1	-1E+10	1	-1E+10	1	-1E+10	1
4901784	76	C	08/03/2017	10:50	-132.959	43.652	0	494.60	0	4.6450	0	34.1100	4	27.014	0	490.060	0	42.1	4	13.5	4	-1E+10	1	-1E+10	1	-1E+10	1	-1E+10	1	-1E+10	1	-1E+10	1
4901784	76	C	08/03/2017	10:50	-132.959	43.652	0	497.10	0	4.6300	0	34.1140	4	27.019	0	492.534	0	41.6	4	13.3	4	-1E+10	1	-1E+10	1	-1E+10	1	-1E+10	1	-1E+10	1	-1E+10	1
4901784	76	C	08/03/2017	10:50	-132.959	43.652	0	499.70	0	4.6250	0	34.1150	4	27.020	0	495.107	0	41.2	4	13.2	4	-1E+10	1	-1E+10	1	-1E+10	1	-1E+10	1	-1E+10	1	-1E+10	1
4901784	76	C	08/03/2017	10:50	-132.959	43.652	0	504.80	0	4.6130	0	34.1180	4	27.024	0	500.154	0	40.2	4	12.9	4	-1E+10	1	-1E+10	1	-1E+10	1	-1E+10	1	-1E+10	1	-1E+10	1
4901784	76	C	08/03/2017	10:50	-132.959	43.652	0	510.10	0	4.5810	0	34.1250	4	27.033	0	505.399	0	39.0	4	12.5	4	-1E+10	1	-1E+10	1	-1E+10	1	-1E+10	1	-1E+10	1	-1E+10	1
4901784	76	C	08/03/2017	10:50	-132.959	43.652	0	515.50	0	4.5610	0	34.1290	4	27.038	0	510.743	0	38.2	4	12.2	4	-1E+10	1	-1E+10	1	-1E+10	1	-1E+10	1	-1E+10	1	-1E+10	1
4901784	76	C	08/03/2017	10:50	-132.959	43.652	0	519.90	0	4.5420	0	34.1340	4	27.044	0	515.097	0	37.2	4	11.9	4	-1E+10	1	-1E+10	1	-1E+10	1	-1E+10	1	-1E+10	1	-1E+10	1
4901784	76	C	08/03/2017	10:50	-132.959	43.652	0	524.40	0	4.5300	0	34.1360	4	27.047	0	519.550	0	36.3	4	11.6	4	-1E+10	1	-1E+10	1	-1E+10	1	-1E+10	1	-1E+10	1	-1E+10	1
4901784	76	C	08/03/2017	10:50	-132.959	43.652	0	529.80	0	4.5070	0	34.1410	4	27.054	0	524.893	0	35.1	4	11.2	4	-1E+10	1	-1E+10	1	-1E+10	1	-1E+10	1	-1E+10	1	-1E+10	1
4901784	76	C	08/03/2017	10:50	-132.959	43.652	0	535.30	0	4.4810	0	34.1480	4	27.062	0	530.335	0	33.9	4	10.8	4	-1E+10	1	-1E+10	1	-1E+10	1	-1E+10	1	-1E+10	1	-1E+10	1
4901784	76	C	08/03/2017	10:50	-132.959	43.652	0	539.90	0	4.4710	0	34.1500	4	27.065	0	534.886	0	33.1	4	10.6	4	-1E+10	1	-1E+10	1	-1E+10	1	-1E+10	1	-1E+10	1	-1E+10	1
4901784	76	C	08/03/2017	10:50	-132.959	43.652	0	544.40	0	4.4450	0	34.1560	4	27.072	0	539.339	0	32.1	4	10.2	4	-1E+10	1	-1E+10	1	-1E+10	1	-1E+10	1	-1E+10	1	-1E+10	1
4901784	76	C	08/03/2017	10:50	-132.959	43.652	0	550.00	0	4.4270	0	34.1600	4	27.078	0	544.879	0	30.8	4	9.8	4	-1E+10	1	-1E+10	1	-1E+10	1	-1E+10	1	-1E+10	1	-1E+10	1
4901784	76	C	08/03/2017	10:50	-132.959	43.652	0	554.70	0	4.3980	0	34.1670	4	27.086	0	549.529	0	29.5	4	9.4	4	-1E+10	1	-1E+10	1	-1E+10	1	-1E+10	1	-1E+10	1	-1E+10	1
4901784	76	C	08/03/2017	10:50	-132.959	43.652	0	559.40	0	4.3710	0	34.1750	4	27.096	0	554.179	0	28.3	4	9.0	4	-1E+10	1	-1E+10	1	-1E+10	1	-1E+10	1	-1E+10	1	-1E+10	1
4901784	76	C	08/03/2017	10:50	-132.959	43.652	0	564.80	0	4.3650	0	34.1800	4	27.100	0	559.522	0	27.3	4	8.7	4	-1E+10	1	-1E+10	1	-1E+10	1	-1E+10	1	-1E+10	1	-1E+10	1
4901784	76	C	08/03/2017	10:50	-132.959	43.652	0	569.50	0	4.3350	0	34.1870	4	27.109	0	564.171	0	26.7	4	8.5	4	-1E+10	1	-1E+10	1	-1E+10	1	-1E+10	1	-1E+10	1	-1E+10	1
4901784	76	C	08/03/2017	10:50	-132.959	43.652	0	574.30	0	4.3270	0	34.1880	4	27.111	0	568.920	0	26.0	4	8.3	4	-1E+10	1	-1E+10	1	-1E+10	1	-1E+10	1	-1E+10	1	-1E+10	1
4901784	76	C	08/03/2017	10:50	-132.959	43.652	0	580.00	0	4.3040	0	34.1960	4	27.119	0	574.559	0	24.8	4	7.9	4	-1E+10	1	-1E+10	1	-1E+10	1	-1E+10	1	-1E+10	1	-1E+10	1
4901784	76	C	08/03/2017	10:50	-132.959	43.652	0	585.70	0	4.2890	0	34.2010	4	27.125	0	580.197	0	24.0	4	7.6	4	-1E+10	1	-1E+10	1	-1E+10	1	-1E+10	1	-1E+10	1	-1E+10	1
4901784	76	C	08/03/2017	10:50	-132.959	43.652	0	590.70	0	4.2730	0	34.2070	4	27.132	0	585.143	0	23.3	4	7.4	4	-1E+10	1	-1E+10	1	-1E+10	1	-1E+10	1	-1E+10	1	-1E+10	1
4901784	76	C	08/03/2017	10:50	-132.959	43.652	0	595.70	0	4.2550	0	34.2120	4	27.137	0	590.089	0	22.8	4	7.3	4	-1E+10	1	-1E+10	1	-1E+10	1	-1E+10	1	-1E+10	1	-1E+10	1
4901784	76	C	08/03/2017	10:50	-132.959	43.652	0	600.70	0	4.2490	0	34.2130	4	27.139	0	595.035	0	22.4	4	7.1	4	-1E+10	1	-1E+10	1	-1E+10	1	-1E+10	1	-1E+10	1	-1E+10	1
4901784	76	C	08/03/2017	10:50	-132.959	43.652	0	605.00	0	4.2420	0	34.2140	4	27.140	0	599.288	0	21.9	4	7.0	4	-1E+10	1	-1E+10	1	-1E+10	1	-1E+10	1	-1E+10	1	-1E+10	1
4901784	76	C	08/03/2017	10:50	-132.959	43.652	0	609.20	0	4.2250	0	34.2200	4	27.147	0	603.442	0	21.2	4	6.7	4	-1E+10	1	-1E+10	1	-1E+10	1	-1E+10	1	-1E+10	1	-1E+10	1
4901784	76	C	08/03/2017	10:50	-132.959	43.652	0	614.30	0	4.2060	0	34.2270	4	27.155	0	608.487	0	20.7	4	6.6	4	-1E+10	1	-1E+10	1	-1E+10	1	-1E+10	1	-1E+10	1	-1E+10	1
4901784	76	C	08/03/2017	10:50	-132.959	43.652	0	619.30	0	4.1960	0	34.2300	4	27.158	0	613.432	0	20.3	4	6.4	4	-1E+10	1	-1E+10	1	-1E+10	1	-1E+10	1	-1E+10	1	-1E+10	1
4901784	76	C	08/03/2017	10:50	-132.959	43.652	0	624.30	0	4.1900	0	34.2330	4	27.161	0	618.377	0	20.0	4	6.3	4	-1E+10	1	-1E+10	1	-1E+10	1	-1E+10	1	-1E+10	1	-1E+10	1
4901784	76	C	08/03/2017	10:50	-132.959	43.652	0	629.40	0	4.1830	0	34.2350	4	27.164	0	623.421	0	19.6	4	6.2	4	-1E+10	1	-1E+10	1	-1E+10	1	-1E+10	1	-1E+10	1	-1E+10	1
4901784	76	C	08/03/2017	10:50	-132.959	43.652	0	634.60	0	4.1630	0	34.2390	4	27.169	0	628.564	0	19.2	4	6.1	4	-1E+10	1	-1E+10	1	-1E+10	1	-1E+10	1	-1E+10	1	-1E+10	1
4901784	76	C	08/03/2017	10:50	-132.959	43.652	0	639.70	0	4.1480	0	34.2430	4	27.174	0	633.608	0	18.6	4	5.9	4	-1E+10	1	-1E+10	1	-1E+10	1	-1E+10	1	-1E+10	1	-1E+10	1
4901784	76	C	08/03/2017	10:50	-132.959	43.652	0	644.80	0	4.1250	0	34.2510	4	27.182	0	638.651	0	18.2	4	5.8	4	-1E+10	1	-1E+10	1	-1E+10	1	-1E+10	1	-1E+10	1	-1E+10	1
4901784	76	C	08/03/2017	10:50	-132.959	43.652	0	649.90	0	4.1200	0	34.2530	4	27.185	0	643.695	0	18.0	4	5.7	4	-1E+10	1	-1E+10	1	-1E+10	1	-1E+10	1	-1E+10	1	-1E+10	1
4901784	76	C	08/03/2017	10:50	-132.959	43.652	0	655.00	0	4.1160	0	34.2540	4	27.186	0	648.738	0	17.6	4	5.6	4	-1E+10	1	-1E+10	1	-1E+10	1	-1E+10	1	-1E+10	1	-1E+10	1
4901784	76	C	08/03/2017	10:50	-132.959	43.652	0	660.20	0	4.1010	0	34.2600	4	27.192	0	653.880	0	17.2	4	5.4	4	-1E+10	1	-1E+10	1	-1E+10	1	-1E+10	1	-1E+10	1	-1E+10	1
4901784	76	C	08/03/2017	10:50	-132.959	43.652	0	665.40	0	4.0920	0	34.2630	4	27.196	0	659.022	0	16.8	4	5.3	4	-1E+10	1	-1E+10	1	-1E+10	1	-1E+10	1	-1E+10	1	-1E+10	1
4901784	76	C	08/03/2017	10:50	-132.959	43.652	0	670.70	0	4.0810	0	34.2680	4	27.201	0	664.263	0	16.5	4	5.2	4	-1E+10	1	-1E+10	1	-1E+10	1	-1E+10	1	-1E+10	1	-1E+10	1
4901784	76	C	08/03/2017	10:50	-132.959	43.652	0	675.10	0	4.0700	0	34.2710	4	27.204	0	668.614	0	16.2	4	5.1	4	-1E+10	1	-1E+10	1	-1E+10	1	-1E+10	1	-1E+10	1	-1E+10	1
4901784	76	C	08/03/2017	10:50	-132.959	43.652	0	679.50	0	4.0600	0	34.2750	4	27.208	0	672.964	0	15.9	4	5.0	4	-1E+10	1	-1E+10	1	-1E+10	1	-1E+10	1	-1E+10	1	-1E+10	1
4901784	76	C	08/03/2017	10:50	-132.959	43.652	0	684.80	0	4.0510	0	34.2780	4	27.212	0	678.205	0	15.7	4	5.0	4	-1E+10	1	-1E+10	1	-1E+10	1	-1E+10	1	-1E+10	1	-1E+10	1
4901784	76	C	08/03/2017	10:50	-132.959	43.652	0	690.10	0	4.0410	0	34.2810	4	27.215	0	683.445	0	15.4	4	4.9	4	-1E+10	1	-1E+10	1	-1E+10	1	-1E+10	1	-1E+10	1	-1E+10	1
4901784	76	C	08/03/2017	10:50	-132.959	43.652	0	695.50	0	4.0300	0	34.2850	4	27.220	0	688.784	0	15.1	4	4.8	4	-1E+10	1	-1E+10	1	-1E+10	1	-1E+10	1	-1E+10	1	-1E+10	1
4901784	76	C	08/03/2017	10:50	-132.959	43.652	0	699.90	0	4.0220	0	34.2890	4	27.224	0	693.134	0	14.8	4	4.7	4	-1E+10	1	-1E+10	1	-1E+10	1	-1E+10	1	-1E+10	1	-1E+10	1
4901784	76	C	08/03/2017	10:50	-132.959	43.652	0	704.40	0	4.0110	0	34.2920	4	27.227	0	697.583	0	14.6	4	4.6	4	-1E+10	1	-1E+10	1	-1E+10	1	-1E+10	1	-1E+10	1	-1E+10	1
4901784	76	C	08/03/2017	10:50	-132.959	43.652	0	709.70	0	3.9990	0	34.2970	4	27.232	0	702.823	0	14.3	4	4.5	4	-1E+10	1	-1E+10	1	-1E+10	1	-1E+10	1	-1E+10	1	-1E+10	1
4901784	76	C	08/03/2017	10:50	-132.959	43.652	0	715.00	0	3.9820	0	34.3030	4	27.239	0	708.063	0	14.0	4	4.4	4	-1E+10	1	-1E+10	1	-1E+10	1	-1E+10	1	-1E+10	1	-1E+10	1
4901784	76	C	08/03/2017	10:50	-132.959	43.652	0	720.40	0	3.9690	0	34.3070	4	27.244	0	713.401	0	13.7	4	4.3	4	-1E+10	1	-1E+10	1	-1E+10	1	-1E+10	1	-1E+10	1	-1E+10	1
4901784	76	C	08/03/2017	10:50	-132.959	43.652	0	725.00	0	3.9600	0	34.3110	4	27.248	0	717.948	0	13.6	4	4.3	4	-1E+10	1	-1E+10	1	-1E+10	1	-1E+10	1	-1E+10	1	-1E+10	1
4901784	76	C	08/03/2017	10:50	-132.959	43.652	0	729.60	0	3.9530	0	34.3130	4	27.250	0	722.496	0	13.4	4	4.2	4	-1E+10	1	-1E+10	1	-1E+10	1	-1E+10	1	-1E+10	1	-1E+10	1
4901784	76	C	08/03/2017	10:50	-132.959	43.652	0	735.00	0	3.9350	0	34.3180	4	27.256	0	727.834	0	13.2	4	4.2	4	-1E+10	1	-1E+10	1	-1E+10	1	-1E+10	1	-1E+10	1	-1E+10	1
4901784	76	C	08/03/2017	10:50	-132.959	43.652	0	740.60	0	3.9080	0	34.3220	4	27.262	0	733.369	0	13.0	4	4.1	4	-1E+10	1	-1E+10	1	-1E+10	1	-1E+10	1	-1E+10	1	-1E+10	1
4901784	76	C	08/03/2017	10:50	-132.959	43.652	0	745.30	0	3.8890	0	34.3280	4	27.269	0	738.015	0	12.8	4	4.0	4	-1E+10	1	-1E+10	1	-1E+10	1	-1E+10	1	-1E+10	1	-1E+10	1
4901784	76	C	08/03/2017	10:50	-132.959	43.652	0	750.00	0	3.8770	0	34.3320	4	27.273	0	742.661	0	12.6	4	4.0	4	-1E+10	1	-1E+10	1	-1E+10	1	-1E+10	1	-1E+10	1	-1E+10	1
4901784	76	C	08/03/2017	10:50	-132.959	43.652	0	755.50	0	3.8690	0	34.3350	4	27.276	0	748.097	0	12.4	4	3.9	4	-1E+10	1	-1E+10	1	-1E+10	1	-1E+10	1	-1E+10	1	-1E+10	1
4901784	76	C	08/03/2017	10:50	-132.959	43.652	0	760.20	0	3.8610	0	34.3390	4	27.280	0	752.743	0	12.2	4	3.8	4	-1E+10	1	-1E+10	1	-1E+10	1	-1E+10	1	-1E+10	1	-1E+10	1
4901784	76	C	08/03/2017	10:50	-132.959	43.652	0	765.00	0	3.8500	0	34.3450	4	27.286	0	757.487	0	12.1	4	3.8	4	-1E+10	1	-1E+10	1	-1E+10	1	-1E+10	1	-1E+10	1	-1E+10	1
4901784	76	C	08/03/2017	10:50	-132.959	43.652	0	770.60	0	3.8430	0	34.3470	4	27.288	0	763.022	0	12.0	4	3.8	4	-1E+10	1	-1E+10	1	-1E+10	1	-1E+10	1	-1E+10	1	-1E+10	1
4901784	76	C	08/03/2017	10:50	-132.959	43.652	0	775.30	0	3.8310	0	34.3510	4	27.293	0	767.667	0	11.9	4	3.7	4	-1E+10	1	-1E+10	1	-1E+10	1	-1E+10	1	-1E+10	1	-1E+10	1
4901784	76	C	08/03/2017	10:50	-132.959	43.652	0	780.00	0	3.8140	0	34.3560	4	27.299	0	772.312	0	11.8	4	3.7	4	-1E+10	1	-1E+10	1	-1E+10	1	-1E+10	1	-1E+10	1	-1E+10	1
4901784	76	C	08/03/2017	10:50	-132.959	43.652	0	784.80	0	3.8010	0	34.3580	4	27.302	0	777.055	0	11.8	4	3.7	4	-1E+10	1	-1E+10	1	-1E+10	1	-1E+10	1	-1E+10	1	-1E+10	1
4901784	76	C	08/03/2017	10:50	-132.959	43.652	0	789.60	0	3.7960	0	34.3590	4	27.303	0	781.799	0	11.7	4	3.7	4	-1E+10	1	-1E+10	1	-1E+10	1	-1E+10	1	-1E+10	1	-1E+10	1
4901784	76	C	08/03/2017	10:50	-132.959	43.652	0	795.10	0	3.7840	0	34.3620	4	27.306	0	787.234	0	11.6	4	3.7	4	-1E+10	1	-1E+10	1	-1E+10	1	-1E+10	1	-1E+10	1	-1E+10	1
4901784	76	C	08/03/2017	10:50	-132.959	43.652	0	799.80	0	3.7720	0	34.3640	4	27.309	0	791.879	0	11.5	4	3.6	4	-1E+10	1	-1E+10	1	-1E+10	1	-1E+10	1	-1E+10	1	-1E+10	1
4901784	76	C	08/03/2017	10:50	-132.959	43.652	0	804.50	0	3.7550	0	34.3670	4	27.313	0	796.524	0	11.5	4	3.6	4	-1E+10	1	-1E+10	1	-1E+10	1	-1E+10	1	-1E+10	1	-1E+10	1
4901784	76	C	08/03/2017	10:50	-132.959	43.652	0	810.30	0	3.7370	0	34.3730	4	27.320	0	802.255	0	11.4	4	3.6	4	-1E+10	1	-1E+10	1	-1E+10	1	-1E+10	1	-1E+10	1	-1E+10	1
4901784	76	C	08/03/2017	10:50	-132.959	43.652	0	814.60	0	3.7220	0	34.3770	4	27.325	0	806.504	0	11.4	4	3.6	4	-1E+10	1	-1E+10	1	-1E+10	1	-1E+10	1	-1E+10	1	-1E+10	1
4901784	76	C	08/03/2017	10:50	-132.959	43.652	0	819.50	0	3.7130	0	34.3800	4	27.328	0	811.346	0	11.4	4	3.6	4	-1E+10	1	-1E+10	1	-1E+10	1	-1E+10	1	-1E+10	1	-1E+10	1
4901784	76	C	08/03/2017	10:50	-132.959	43.652	0	824.40	0	3.7030	0	34.3820	4	27.331	0	816.187	0	11.3	4	3.6	4	-1E+10	1	-1E+10	1	-1E+10	1	-1E+10	1	-1E+10	1	-1E+10	1
4901784	76	C	08/03/2017	10:50	-132.959	43.652	0	829.30	0	3.6950	0	34.3840	4	27.333	0	821.029	0	11.3	4	3.5	4	-1E+10	1	-1E+10	1	-1E+10	1	-1E+10	1	-1E+10	1	-1E+10	1
4901784	76	C	08/03/2017	10:50	-132.959	43.652	0	834.30	0	3.6860	0	34.3860	4	27.336	0	825.969	0	11.2	4	3.5	4	-1E+10	1	-1E+10	1	-1E+10	1	-1E+10	1	-1E+10	1	-1E+10	1
4901784	76	C	08/03/2017	10:50	-132.959	43.652	0	839.40	0	3.6700	0	34.3900	4	27.340	0	831.008	0	11.2	4	3.5	4	-1E+10	1	-1E+10	1	-1E+10	1	-1E+10	1	-1E+10	1	-1E+10	1
4901784	76	C	08/03/2017	10:50	-132.959	43.652	0	844.60	0	3.6590	0	34.3920	4	27.343	0	836.146	0	11.2	4	3.5	4	-1E+10	1	-1E+10	1	-1E+10	1	-1E+10	1	-1E+10	1	-1E+10	1
4901784	76	C	08/03/2017	10:50	-132.959	43.652	0	849.80	0	3.6330	0	34.3990	4	27.351	0	841.283	0	11.2	4	3.5	4	-1E+10	1	-1E+10	1	-1E+10	1	-1E+10	1	-1E+10	1	-1E+10	1
4901784	76	C	08/03/2017	10:50	-132.959	43.652	0	855.10	0	3.6230	0	34.4010	4	27.354	0	846.519	0	11.2	4	3.5	4	-1E+10	1	-1E+10	1	-1E+10	1	-1E+10	1	-1E+10	1	-1E+10	1
4901784	76	C	08/03/2017	10:50	-132.959	43.652	0	860.40	0	3.6130	0	34.4040	4	27.357	0	851.755	0	11.2	4	3.5	4	-1E+10	1	-1E+10	1	-1E+10	1	-1E+10	1	-1E+10	1	-1E+10	1
4901784	76	C	08/03/2017	10:50	-132.959	43.652	0	864.80	0	3.6080	0	34.4050	4	27.359	0	856.102	0	11.2	4	3.5	4	-1E+10	1	-1E+10	1	-1E+10	1	-1E+10	1	-1E+10	1	-1E+10	1
4901784	76	C	08/03/2017	10:50	-132.959	43.652	0	869.30	0	3.5960	0	34.4080	4	27.362	0	860.548	0	11.2	4	3.5	4	-1E+10	1	-1E+10	1	-1E+10	1	-1E+10	1	-1E+10	1	-1E+10	1
4901784	76	C	08/03/2017	10:50	-132.959	43.652	0	874.70	0	3.5820	0	34.4120	4	27.367	0	865.882	0	11.2	4	3.5	4	-1E+10	1	-1E+10	1	-1E+10	1	-1E+10	1	-1E+10	1	-1E+10	1
4901784	76	C	08/03/2017	10:50	-132.959	43.652	0	880.00	0	3.5620	0	34.4170	4	27.373	0	871.118	0	11.2	4	3.5	4	-1E+10	1	-1E+10	1	-1E+10	1	-1E+10	1	-1E+10	1	-1E+10	1
4901784	76	C	08/03/2017	10:50	-132.959	43.652	0	885.40	0	3.5570	0	34.4180	4	27.374	0	876.452	0	11.3	4	3.5	4	-1E+10	1	-1E+10	1	-1E+10	1	-1E+10	1	-1E+10	1	-1E+10	1
4901784	76	C	08/03/2017	10:50	-132.959	43.652	0	890.00	0	3.5470	0	34.4210	4	27.377	0	880.996	0	11.4	4	3.6	4	-1E+10	1	-1E+10	1	-1E+10	1	-1E+10	1	-1E+10	1	-1E+10	1
4901784	76	C	08/03/2017	10:50	-132.959	43.652	0	894.60	0	3.5370	0	34.4230	4	27.380	0	885.539	0	11.4	4	3.6	4	-1E+10	1	-1E+10	1	-1E+10	1	-1E+10	1	-1E+10	1	-1E+10	1
4901784	76	C	08/03/2017	10:50	-132.959	43.652	0	900.10	0	3.5220	0	34.4270	4	27.385	0	890.972	0	11.5	4	3.6	4	-1E+10	1	-1E+10	1	-1E+10	1	-1E+10	1	-1E+10	1	-1E+10	1
4901784	76	C	08/03/2017	10:50	-132.959	43.652	0	904.70	0	3.5090	0	34.4310	4	27.389	0	895.516	0	11.5	4	3.6	4	-1E+10	1	-1E+10	1	-1E+10	1	-1E+10	1	-1E+10	1	-1E+10	1
4901784	76	C	08/03/2017	10:50	-132.959	43.652	0	909.30	0	3.4960	0	34.4350	4	27.394	0	900.059	0	11.6	4	3.6	4	-1E+10	1	-1E+10	1	-1E+10	1	-1E+10	1	-1E+10	1	-1E+10	1
4901784	76	C	08/03/2017	10:50	-132.959	43.652	0	914.50	0	3.4830	0	34.4380	4	27.397	0	905.195	0	11.7	4	3.6	4	-1E+10	1	-1E+10	1	-1E+10	1	-1E+10	1	-1E+10	1	-1E+10	1
4901784	76	C	08/03/2017	10:50	-132.959	43.652	0	919.40	0	3.4720	0	34.4410	4	27.401	0	910.034	0	11.7	4	3.7	4	-1E+10	1	-1E+10	1	-1E+10	1	-1E+10	1	-1E+10	1	-1E+10	1
4901784	76	C	08/03/2017	10:50	-132.959	43.652	0	925.00	0	3.4580	0	34.4450	4	27.405	0	915.565	0	11.8	4	3.7	4	-1E+10	1	-1E+10	1	-1E+10	1	-1E+10	1	-1E+10	1	-1E+10	1
4901784	76	C	08/03/2017	10:50	-132.959	43.652	0	930.70	0	3.4500	0	34.4460	4	27.407	0	921.194	0	11.8	4	3.7	4	-1E+10	1	-1E+10	1	-1E+10	1	-1E+10	1	-1E+10	1	-1E+10	1
4901784	76	C	08/03/2017	10:50	-132.959	43.652	0	935.60	0	3.4380	0	34.4490	4	27.411	0	926.033	0	11.9	4	3.7	4	-1E+10	1	-1E+10	1	-1E+10	1	-1E+10	1	-1E+10	1	-1E+10	1
4901784	76	C	08/03/2017	10:50	-132.959	43.652	0	940.50	0	3.4270	0	34.4520	4	27.414	0	930.872	0	11.9	4	3.7	4	-1E+10	1	-1E+10	1	-1E+10	1	-1E+10	1	-1E+10	1	-1E+10	1
4901784	76	C	08/03/2017	10:50	-132.959	43.652	0	945.40	0	3.4140	0	34.4550	4	27.418	0	935.711	0	12.0	4	3.7	4	-1E+10	1	-1E+10	1	-1E+10	1	-1E+10	1	-1E+10	1	-1E+10	1
4901784	76	C	08/03/2017	10:50	-132.959	43.652	0	950.30	0	3.3940	0	34.4590	4	27.423	0	940.550	0	12.1	4	3.8	4	-1E+10	1	-1E+10	1	-1E+10	1	-1E+10	1	-1E+10	1	-1E+10	1
4901784	76	C	08/03/2017	10:50	-132.959	43.652	0	955.30	0	3.3820	0	34.4620	4	27.426	0	945.488	0	12.2	4	3.8	4	-1E+10	1	-1E+10	1	-1E+10	1	-1E+10	1	-1E+10	1	-1E+10	1
4901784	76	C	08/03/2017	10:50	-132.959	43.652	0	960.40	0	3.3730	0	34.4650	4	27.430	0	950.524	0	12.5	4	3.9	4	-1E+10	1	-1E+10	1	-1E+10	1	-1E+10	1	-1E+10	1	-1E+10	1
4901784	76	C	08/03/2017	10:50	-132.959	43.652	0	965.40	0	3.3670	0	34.4680	4	27.433	0	955.461	0	12.7	4	4.0	4	-1E+10	1	-1E+10	1	-1E+10	1	-1E+10	1	-1E+10	1	-1E+10	1
4901784	76	C	08/03/2017	10:50	-132.959	43.652	0	970.50	0	3.3560	0	34.4720	4	27.437	0	960.497	0	12.8	4	4.0	4	-1E+10	1	-1E+10	1	-1E+10	1	-1E+10	1	-1E+10	1	-1E+10	1
4901784	76	C	08/03/2017	10:50	-132.959	43.652	0	975.70	0	3.3480	0	34.4740	4	27.439	0	965.631	0	12.9	4	4.0	4	-1E+10	1	-1E+10	1	-1E+10	1	-1E+10	1	-1E+10	1	-1E+10	1
4901784	76	C	08/03/2017	10:50	-132.959	43.652	0	980.70	0	3.3370	0	34.4760	4	27.442	0	970.568	0	13.1	4	4.1	4	-1E+10	1	-1E+10	1	-1E+10	1	-1E+10	1	-1E+10	1	-1E+10	1
4901784	76	C	08/03/2017	10:50	-132.959	43.652	0	985.00	0	3.3270	0	34.4790	4	27.445	0	974.813	0	13.2	4	4.1	4	-1E+10	1	-1E+10	1	-1E+10	1	-1E+10	1	-1E+10	1	-1E+10	1
4901784	76	C	08/03/2017	10:50	-132.959	43.652	0	989.30	0	3.3170	0	34.4810	4	27.448	0	979.059	0	13.4	4	4.2	4	-1E+10	1	-1E+10	1	-1E+10	1	-1E+10	1	-1E+10	1	-1E+10	1
4901784	76	C	08/03/2017	10:50	-132.959	43.652	0	994.40	0	3.3070	0	34.4840	4	27.451	0	984.094	0	13.6	4	4.2	4	-1E+10	1	-1E+10	1	-1E+10	1	-1E+10	1	-1E+10	1	-1E+10	1
4901784	76	C	08/03/2017	10:50	-132.959	43.652	0	999.70	0	3.3050	0	34.4870	4	27.454	0	989.327	0	13.8	4	4.3	4	-1E+10	1	-1E+10	1	-1E+10	1	-1E+10	1	-1E+10	1	-1E+10	1
4901784	76	C	08/03/2017	10:50	-132.959	43.652	0	1004.90	0	3.3020	0	34.4890	4	27.456	0	994.460	0	14.0	4	4.3	4	-1E+10	1	-1E+10	1	-1E+10	1	-1E+10	1	-1E+10	1	-1E+10	1
4901784	76	C	08/03/2017	10:50	-132.959	43.652	0	1010.10	0	3.3020	0	34.4900	4	27.457	0	999.594	0	14.1	4	4.4	4	-1E+10	1	-1E+10	1	-1E+10	1	-1E+10	1	-1E+10	1	-1E+10	1
4901784	76	C	08/03/2017	10:50	-132.959	43.652	0	1015.30	0	3.3030	0	34.4900	4	27.457	0	1004.727	0	14.4	4	4.5	4	-1E+10	1	-1E+10	1	-1E+10	1	-1E+10	1	-1E+10	1	-1E+10	1
4901784	76	C	08/03/2017	10:50	-132.959	43.652	0	1020.60	0	3.3070	0	34.4930	4	27.459	0	1009.960	0	14.8	4	4.6	4	-1E+10	1	-1E+10	1	-1E+10	1	-1E+10	1	-1E+10	1	-1E+10	1
4901784	76	C	08/03/2017	10:50	-132.959	43.652	0	1025.10	0	3.3080	0	34.4960	4	27.461	0	1014.402	0	15.0	4	4.7	4	-1E+10	1	-1E+10	1	-1E+10	1	-1E+10	1	-1E+10	1	-1E+10	1
4901784	76	C	08/03/2017	10:50	-132.959	43.652	0	1029.50	0	3.3060	0	34.4990	4	27.464	0	1018.745	0	15.1	4	4.7	4	-1E+10	1	-1E+10	1	-1E+10	1	-1E+10	1	-1E+10	1	-1E+10	1
4901784	76	C	08/03/2017	10:50	-132.959	43.652	0	1034.90	0	3.2900	0	34.4990	4	27.465	0	1024.076	0	15.1	4	4.7	4	-1E+10	1	-1E+10	1	-1E+10	1	-1E+10	1	-1E+10	1	-1E+10	1
4901784	76	C	08/03/2017	10:50	-132.959	43.652	0	1040.30	0	3.2840	0	34.5010	4	27.467	0	1029.406	0	15.3	4	4.8	4	-1E+10	1	-1E+10	1	-1E+10	1	-1E+10	1	-1E+10	1	-1E+10	1
4901784	76	C	08/03/2017	10:50	-132.959	43.652	0	1044.90	0	3.2810	0	34.5030	4	27.469	0	1033.946	0	15.4	4	4.8	4	-1E+10	1	-1E+10	1	-1E+10	1	-1E+10	1	-1E+10	1	-1E+10	1
4901784	76	C	08/03/2017	10:50	-132.959	43.652	0	1049.40	0	3.2680	0	34.5040	4	27.471	0	1038.388	0	15.5	4	4.8	4	-1E+10	1	-1E+10	1	-1E+10	1	-1E+10	1	-1E+10	1	-1E+10	1
4901784	76	C	08/03/2017	10:50	-132.959	43.652	0	1055.00	0	3.2550	0	34.5050	4	27.473	0	1043.915	0	15.5	4	4.8	4	-1E+10	1	-1E+10	1	-1E+10	1	-1E+10	1	-1E+10	1	-1E+10	1
4901784	76	C	08/03/2017	10:50	-132.959	43.652	0	1060.40	0	3.2420	0	34.5070	4	27.476	0	1049.245	0	15.6	4	4.9	4	-1E+10	1	-1E+10	1	-1E+10	1	-1E+10	1	-1E+10	1	-1E+10	1
4901784	76	C	08/03/2017	10:50	-132.959	43.652	0	1065.00	0	3.2370	0	34.5080	4	27.477	0	1053.785	0	15.7	4	4.9	4	-1E+10	1	-1E+10	1	-1E+10	1	-1E+10	1	-1E+10	1	-1E+10	1
4901784	76	C	08/03/2017	10:50	-132.959	43.652	0	1069.60	0	3.2320	0	34.5080	4	27.478	0	1058.325	0	15.7	4	4.9	4	-1E+10	1	-1E+10	1	-1E+10	1	-1E+10	1	-1E+10	1	-1E+10	1
4901784	76	C	08/03/2017	10:50	-132.959	43.652	0	1075.10	0	3.2220	0	34.5100	4	27.480	0	1063.753	0	15.8	4	4.9	4	-1E+10	1	-1E+10	1	-1E+10	1	-1E+10	1	-1E+10	1	-1E+10	1
4901784	76	C	08/03/2017	10:50	-132.959	43.652	0	1080.40	0	3.2120	0	34.5100	4	27.481	0	1068.984	0	15.7	4	4.9	4	-1E+10	1	-1E+10	1	-1E+10	1	-1E+10	1	-1E+10	1	-1E+10	1
4901784	76	C	08/03/2017	10:50	-132.959	43.652	0	1085.20	0	3.1940	0	34.5110	4	27.484	0	1073.721	0	15.7	4	4.9	4	-1E+10	1	-1E+10	1	-1E+10	1	-1E+10	1	-1E+10	1	-1E+10	1
4901784	76	C	08/03/2017	10:50	-132.959	43.652	0	1090.10	0	3.1820	0	34.5120	4	27.486	0	1078.556	0	15.8	4	4.9	4	-1E+10	1	-1E+10	1	-1E+10	1	-1E+10	1	-1E+10	1	-1E+10	1
4901784	76	C	08/03/2017	10:50	-132.959	43.652	0	1095.00	0	3.1710	0	34.5140	4	27.489	0	1083.392	0	16.1	4	5.0	4	-1E+10	1	-1E+10	1	-1E+10	1	-1E+10	1	-1E+10	1	-1E+10	1
4901784	76	C	08/03/2017	10:50	-132.959	43.652	0	1099.90	0	3.1680	0	34.5160	4	27.490	0	1088.227	0	16.3	4	5.1	4	-1E+10	1	-1E+10	1	-1E+10	1	-1E+10	1	-1E+10	1	-1E+10	1
4901784	76	C	08/03/2017	10:50	-132.959	43.652	0	1104.90	0	3.1620	0	34.5180	4	27.493	0	1093.161	0	16.4	4	5.1	4	-1E+10	1	-1E+10	1	-1E+10	1	-1E+10	1	-1E+10	1	-1E+10	1
4901784	76	C	08/03/2017	10:50	-132.959	43.652	0	1109.90	0	3.1460	0	34.5190	4	27.495	0	1098.095	0	16.6	4	5.1	4	-1E+10	1	-1E+10	1	-1E+10	1	-1E+10	1	-1E+10	1	-1E+10	1
4901784	76	C	08/03/2017	10:50	-132.959	43.652	0	1115.00	0	3.1330	0	34.5210	4	27.498	0	1103.127	0	16.9	4	5.2	4	-1E+10	1	-1E+10	1	-1E+10	1	-1E+10	1	-1E+10	1	-1E+10	1
4901784	76	C	08/03/2017	10:50	-132.959	43.652	0	1120.10	0	3.1350	0	34.5240	4	27.500	0	1108.159	0	17.2	4	5.3	4	-1E+10	1	-1E+10	1	-1E+10	1	-1E+10	1	-1E+10	1	-1E+10	1
4901784	76	C	08/03/2017	10:50	-132.959	43.652	0	1125.20	0	3.1300	0	34.5250	4	27.501	0	1113.192	0	17.3	4	5.3	4	-1E+10	1	-1E+10	1	-1E+10	1	-1E+10	1	-1E+10	1	-1E+10	1
4901784	76	C	08/03/2017	10:50	-132.959	43.652	0	1130.40	0	3.1290	0	34.5250	4	27.501	0	1118.322	0	17.5	4	5.4	4	-1E+10	1	-1E+10	1	-1E+10	1	-1E+10	1	-1E+10	1	-1E+10	1
4901784	76	C	08/03/2017	10:50	-132.959	43.652	0	1135.10	0	3.1290	0	34.5260	4	27.502	0	1122.960	0	17.9	4	5.5	4	-1E+10	1	-1E+10	1	-1E+10	1	-1E+10	1	-1E+10	1	-1E+10	1
4901784	76	C	08/03/2017	10:50	-132.959	43.652	0	1139.90	0	3.1270	0	34.5310	4	27.506	0	1127.695	0	18.3	4	5.7	4	-1E+10	1	-1E+10	1	-1E+10	1	-1E+10	1	-1E+10	1	-1E+10	1
4901784	76	C	08/03/2017	10:50	-132.959	43.652	0	1145.20	0	3.1320	0	34.5320	4	27.507	0	1132.924	0	18.4	4	5.7	4	-1E+10	1	-1E+10	1	-1E+10	1	-1E+10	1	-1E+10	1	-1E+10	1
4901784	76	C	08/03/2017	10:50	-132.959	43.652	0	1149.20	0	3.1260	0	34.5330	4	27.508	0	1136.871	0	18.5	4	5.7	4	-1E+10	1	-1E+10	1	-1E+10	1	-1E+10	1	-1E+10	1	-1E+10	1
4901784	76	C	08/03/2017	10:50	-132.959	43.652	0	1154.90	0	3.1170	0	34.5340	4	27.510	0	1142.494	0	18.5	4	5.7	4	-1E+10	1	-1E+10	1	-1E+10	1	-1E+10	1	-1E+10	1	-1E+10	1
4901784	76	C	08/03/2017	10:50	-132.959	43.652	0	1160.70	0	3.1050	0	34.5340	4	27.511	0	1148.216	0	18.6	4	5.8	4	-1E+10	1	-1E+10	1	-1E+10	1	-1E+10	1	-1E+10	1	-1E+10	1
4901784	76	C	08/03/2017	10:50	-132.959	43.652	0	1165.60	0	3.0930	0	34.5360	4	27.514	0	1153.050	0	18.7	4	5.8	4	-1E+10	1	-1E+10	1	-1E+10	1	-1E+10	1	-1E+10	1	-1E+10	1
4901784	76	C	08/03/2017	10:50	-132.959	43.652	0	1170.80	0	3.0890	0	34.5360	4	27.514	0	1158.179	0	18.9	4	5.9	4	-1E+10	1	-1E+10	1	-1E+10	1	-1E+10	1	-1E+10	1	-1E+10	1
4901784	76	C	08/03/2017	10:50	-132.959	43.652	0	1175.80	0	3.0820	0	34.5390	4	27.517	0	1163.112	0	19.2	4	5.9	4	-1E+10	1	-1E+10	1	-1E+10	1	-1E+10	1	-1E+10	1	-1E+10	1
4901784	76	C	08/03/2017	10:50	-132.959	43.652	0	1180.00	0	3.0770	0	34.5400	4	27.518	0	1167.255	0	19.2	4	6.0	4	-1E+10	1	-1E+10	1	-1E+10	1	-1E+10	1	-1E+10	1	-1E+10	1
4901784	76	C	08/03/2017	10:50	-132.959	43.652	0	1184.30	0	3.0710	0	34.5410	4	27.520	0	1171.496	0	19.3	4	6.0	4	-1E+10	1	-1E+10	1	-1E+10	1	-1E+10	1	-1E+10	1	-1E+10	1
4901784	76	C	08/03/2017	10:50	-132.959	43.652	0	1189.40	0	3.0630	0	34.5420	4	27.521	0	1176.527	0	19.3	4	6.0	4	-1E+10	1	-1E+10	1	-1E+10	1	-1E+10	1	-1E+10	1	-1E+10	1
4901784	76	C	08/03/2017	10:50	-132.959	43.652	0	1194.60	0	3.0570	0	34.5420	4	27.522	0	1181.656	0	19.4	4	6.0	4	-1E+10	1	-1E+10	1	-1E+10	1	-1E+10	1	-1E+10	1	-1E+10	1
4901784	76	C	08/03/2017	10:50	-132.959	43.652	0	1199.80	0	3.0400	0	34.5420	4	27.524	0	1186.785	0	19.4	4	6.0	4	-1E+10	1	-1E+10	1	-1E+10	1	-1E+10	1	-1E+10	1	-1E+10	1
4901784	76	C	08/03/2017	10:50	-132.959	43.652	0	1205.00	0	3.0200	0	34.5430	4	27.526	0	1191.914	0	19.6	4	6.1	4	-1E+10	1	-1E+10	1	-1E+10	1	-1E+10	1	-1E+10	1	-1E+10	1
4901784	76	C	08/03/2017	10:50	-132.959	43.652	0	1210.20	0	3.0110	0	34.5460	4	27.529	0	1197.042	0	20.0	4	6.2	4	-1E+10	1	-1E+10	1	-1E+10	1	-1E+10	1	-1E+10	1	-1E+10	1
4901784	76	C	08/03/2017	10:50	-132.959	43.652	0	1215.50	0	3.0000	0	34.5480	4	27.532	0	1202.270	0	20.3	4	6.3	4	-1E+10	1	-1E+10	1	-1E+10	1	-1E+10	1	-1E+10	1	-1E+10	1
4901784	76	C	08/03/2017	10:50	-132.959	43.652	0	1220.70	0	2.9890	0	34.5500	4	27.535	0	1207.398	0	20.6	4	6.4	4	-1E+10	1	-1E+10	1	-1E+10	1	-1E+10	1	-1E+10	1	-1E+10	1
4901784	76	C	08/03/2017	10:50	-132.959	43.652	0	1225.20	0	2.9830	0	34.5510	4	27.536	0	1211.836	0	20.8	4	6.4	4	-1E+10	1	-1E+10	1	-1E+10	1	-1E+10	1	-1E+10	1	-1E+10	1
4901784	76	C	08/03/2017	10:50	-132.959	43.652	0	1229.60	0	2.9740	0	34.5530	4	27.538	0	1216.176	0	20.9	4	6.5	4	-1E+10	1	-1E+10	1	-1E+10	1	-1E+10	1	-1E+10	1	-1E+10	1
4901784	76	C	08/03/2017	10:50	-132.959	43.652	0	1234.90	0	2.9660	0	34.5540	4	27.540	0	1221.402	0	21.1	4	6.5	4	-1E+10	1	-1E+10	1	-1E+10	1	-1E+10	1	-1E+10	1	-1E+10	1
4901784	76	C	08/03/2017	10:50	-132.959	43.652	0	1240.20	0	2.9580	0	34.5550	4	27.542	0	1226.629	0	21.2	4	6.6	4	-1E+10	1	-1E+10	1	-1E+10	1	-1E+10	1	-1E+10	1	-1E+10	1
4901784	76	C	08/03/2017	10:50	-132.959	43.652	0	1245.60	0	2.9460	0	34.5560	4	27.543	0	1231.954	0	21.3	4	6.6	4	-1E+10	1	-1E+10	1	-1E+10	1	-1E+10	1	-1E+10	1	-1E+10	1
4901784	76	C	08/03/2017	10:50	-132.959	43.652	0	1250.10	0	2.9420	0	34.5570	4	27.545	0	1236.392	0	21.5	4	6.6	4	-1E+10	1	-1E+10	1	-1E+10	1	-1E+10	1	-1E+10	1	-1E+10	1
4901784	76	C	08/03/2017	10:50	-132.959	43.652	0	1254.50	0	2.9300	0	34.5580	4	27.547	0	1240.730	0	21.6	4	6.7	4	-1E+10	1	-1E+10	1	-1E+10	1	-1E+10	1	-1E+10	1	-1E+10	1
4901784	76	C	08/03/2017	10:50	-132.959	43.652	0	1259.50	0	2.9250	0	34.5590	4	27.548	0	1245.661	0	21.7	4	6.7	4	-1E+10	1	-1E+10	1	-1E+10	1	-1E+10	1	-1E+10	1	-1E+10	1
4901784	76	C	08/03/2017	10:50	-132.959	43.652	0	1264.50	0	2.9150	0	34.5590	4	27.549	0	1250.591	0	21.8	4	6.7	4	-1E+10	1	-1E+10	1	-1E+10	1	-1E+10	1	-1E+10	1	-1E+10	1
4901784	76	C	08/03/2017	10:50	-132.959	43.652	0	1269.70	0	2.9120	0	34.5600	4	27.550	0	1255.718	0	22.1	4	6.8	4	-1E+10	1	-1E+10	1	-1E+10	1	-1E+10	1	-1E+10	1	-1E+10	1
4901784	76	C	08/03/2017	10:50	-132.959	43.652	0	1274.80	0	2.9060	0	34.5610	4	27.551	0	1260.747	0	22.3	4	6.9	4	-1E+10	1	-1E+10	1	-1E+10	1	-1E+10	1	-1E+10	1	-1E+10	1
4901784	76	C	08/03/2017	10:50	-132.959	43.652	0	1279.90	0	2.8900	0	34.5630	4	27.554	0	1265.775	0	22.4	4	6.9	4	-1E+10	1	-1E+10	1	-1E+10	1	-1E+10	1	-1E+10	1	-1E+10	1
4901784	76	C	08/03/2017	10:50	-132.959	43.652	0	1285.00	0	2.8810	0	34.5640	4	27.556	0	1270.804	0	22.6	4	7.0	4	-1E+10	1	-1E+10	1	-1E+10	1	-1E+10	1	-1E+10	1	-1E+10	1
4901784	76	C	08/03/2017	10:50	-132.959	43.652	0	1290.20	0	2.8780	0	34.5650	4	27.557	0	1275.930	0	22.8	4	7.0	4	-1E+10	1	-1E+10	1	-1E+10	1	-1E+10	1	-1E+10	1	-1E+10	1
4901784	76	C	08/03/2017	10:50	-132.959	43.652	0	1295.40	0	2.8710	0	34.5660	4	27.558	0	1281.057	0	23.0	4	7.1	4	-1E+10	1	-1E+10	1	-1E+10	1	-1E+10	1	-1E+10	1	-1E+10	1
4901784	76	C	08/03/2017	10:50	-132.959	43.652	0	1300.60	0	2.8690	0	34.5670	4	27.559	0	1286.184	0	23.1	4	7.1	4	-1E+10	1	-1E+10	1	-1E+10	1	-1E+10	1	-1E+10	1	-1E+10	1
4901784	76	C	08/03/2017	10:50	-132.959	43.652	0	1304.90	0	2.8680	0	34.5670	4	27.560	0	1290.423	0	23.2	4	7.1	4	-1E+10	1	-1E+10	1	-1E+10	1	-1E+10	1	-1E+10	1	-1E+10	1
4901784	76	C	08/03/2017	10:50	-132.959	43.652	0	1309.30	0	2.8570	0	34.5680	4	27.561	0	1294.760	0	23.2	4	7.2	4	-1E+10	1	-1E+10	1	-1E+10	1	-1E+10	1	-1E+10	1	-1E+10	1
4901784	76	C	08/03/2017	10:50	-132.959	43.652	0	1314.50	0	2.8570	0	34.5690	4	27.562	0	1299.887	0	23.3	4	7.2	4	-1E+10	1	-1E+10	1	-1E+10	1	-1E+10	1	-1E+10	1	-1E+10	1
4901784	76	C	08/03/2017	10:50	-132.959	43.652	0	1319.70	0	2.8480	0	34.5690	4	27.563	0	1305.013	0	23.2	4	7.2	4	-1E+10	1	-1E+10	1	-1E+10	1	-1E+10	1	-1E+10	1	-1E+10	1
4901784	76	C	08/03/2017	10:50	-132.959	43.652	0	1324.90	0	2.8370	0	34.5690	4	27.564	0	1310.139	0	23.3	4	7.2	4	-1E+10	1	-1E+10	1	-1E+10	1	-1E+10	1	-1E+10	1	-1E+10	1
4901784	76	C	08/03/2017	10:50	-132.959	43.652	0	1330.10	0	2.8360	0	34.5690	4	27.564	0	1315.265	0	23.4	4	7.2	4	-1E+10	1	-1E+10	1	-1E+10	1	-1E+10	1	-1E+10	1	-1E+10	1
4901784	76	C	08/03/2017	10:50	-132.959	43.652	0	1335.30	0	2.8340	0	34.5690	4	27.564	0	1320.390	0	23.5	4	7.2	4	-1E+10	1	-1E+10	1	-1E+10	1	-1E+10	1	-1E+10	1	-1E+10	1
4901784	76	C	08/03/2017	10:50	-132.959	43.652	0	1340.60	0	2.8250	0	34.5700	4	27.566	0	1325.614	0	23.6	4	7.3	4	-1E+10	1	-1E+10	1	-1E+10	1	-1E+10	1	-1E+10	1	-1E+10	1
4901784	76	C	08/03/2017	10:50	-132.959	43.652	0	1345.00	0	2.8210	0	34.5710	4	27.567	0	1329.951	0	23.7	4	7.3	4	-1E+10	1	-1E+10	1	-1E+10	1	-1E+10	1	-1E+10	1	-1E+10	1
4901784	76	C	08/03/2017	10:50	-132.959	43.652	0	1349.30	0	2.8190	0	34.5710	4	27.567	0	1334.190	0	23.8	4	7.3	4	-1E+10	1	-1E+10	1	-1E+10	1	-1E+10	1	-1E+10	1	-1E+10	1
4901784	76	C	08/03/2017	10:50	-132.959	43.652	0	1354.50	0	2.8160	0	34.5710	4	27.568	0	1339.315	0	23.9	4	7.3	4	-1E+10	1	-1E+10	1	-1E+10	1	-1E+10	1	-1E+10	1	-1E+10	1
4901784	76	C	08/03/2017	10:50	-132.959	43.652	0	1359.70	0	2.8080	0	34.5720	4	27.569	0	1344.440	0	24.0	4	7.4	4	-1E+10	1	-1E+10	1	-1E+10	1	-1E+10	1	-1E+10	1	-1E+10	1
4901784	76	C	08/03/2017	10:50	-132.959	43.652	0	1364.80	0	2.8000	0	34.5730	4	27.571	0	1349.467	0	24.2	4	7.4	4	-1E+10	1	-1E+10	1	-1E+10	1	-1E+10	1	-1E+10	1	-1E+10	1
4901784	76	C	08/03/2017	10:50	-132.959	43.652	0	1370.00	0	2.7950	0	34.5730	4	27.571	0	1354.591	0	24.2	4	7.5	4	-1E+10	1	-1E+10	1	-1E+10	1	-1E+10	1	-1E+10	1	-1E+10	1
4901784	76	C	08/03/2017	10:50	-132.959	43.652	0	1375.10	0	2.7890	0	34.5740	4	27.573	0	1359.618	0	24.2	4	7.5	4	-1E+10	1	-1E+10	1	-1E+10	1	-1E+10	1	-1E+10	1	-1E+10	1
4901784	76	C	08/03/2017	10:50	-132.959	43.652	0	1380.30	0	2.7690	0	34.5740	4	27.574	0	1364.742	0	24.2	4	7.4	4	-1E+10	1	-1E+10	1	-1E+10	1	-1E+10	1	-1E+10	1	-1E+10	1
4901784	76	C	08/03/2017	10:50	-132.959	43.652	0	1385.50	0	2.7660	0	34.5740	4	27.575	0	1369.867	0	24.3	4	7.5	4	-1E+10	1	-1E+10	1	-1E+10	1	-1E+10	1	-1E+10	1	-1E+10	1
4901784	76	C	08/03/2017	10:50	-132.959	43.652	0	1390.70	0	2.7470	0	34.5750	4	27.577	0	1374.991	0	24.2	4	7.4	4	-1E+10	1	-1E+10	1	-1E+10	1	-1E+10	1	-1E+10	1	-1E+10	1
4901784	76	C	08/03/2017	10:50	-132.959	43.652	0	1395.00	0	2.7390	0	34.5740	4	27.577	0	1379.229	0	24.2	4	7.4	4	-1E+10	1	-1E+10	1	-1E+10	1	-1E+10	1	-1E+10	1	-1E+10	1
4901784	76	C	08/03/2017	10:50	-132.959	43.652	0	1399.40	0	2.7270	0	34.5750	4	27.579	0	1383.564	0	24.2	4	7.4	4	-1E+10	1	-1E+10	1	-1E+10	1	-1E+10	1	-1E+10	1	-1E+10	1
4901784	76	C	08/03/2017	10:50	-132.959	43.652	0	1404.70	0	2.7190	0	34.5750	4	27.580	0	1388.787	0	24.3	4	7.5	4	-1E+10	1	-1E+10	1	-1E+10	1	-1E+10	1	-1E+10	1	-1E+10	1
4901784	76	C	08/03/2017	10:50	-132.959	43.652	0	1410.00	0	2.7180	0	34.5750	4	27.580	0	1394.009	0	24.4	4	7.5	4	-1E+10	1	-1E+10	1	-1E+10	1	-1E+10	1	-1E+10	1	-1E+10	1
4901784	76	C	08/03/2017	10:50	-132.959	43.652	0	1415.30	0	2.7090	0	34.5760	4	27.581	0	1399.232	0	24.5	4	7.5	4	-1E+10	1	-1E+10	1	-1E+10	1	-1E+10	1	-1E+10	1	-1E+10	1
4901784	76	C	08/03/2017	10:50	-132.959	43.652	0	1420.50	0	2.6990	0	34.5760	4	27.582	0	1404.355	0	24.6	4	7.5	4	-1E+10	1	-1E+10	1	-1E+10	1	-1E+10	1	-1E+10	1	-1E+10	1
4901784	76	C	08/03/2017	10:50	-132.959	43.652	0	1425.70	0	2.6930	0	34.5770	4	27.584	0	1409.479	0	24.9	4	7.7	4	-1E+10	1	-1E+10	1	-1E+10	1	-1E+10	1	-1E+10	1	-1E+10	1
4901784	76	C	08/03/2017	10:50	-132.959	43.652	0	1430.10	0	2.6910	0	34.5780	4	27.585	0	1413.814	0	25.2	4	7.7	4	-1E+10	1	-1E+10	1	-1E+10	1	-1E+10	1	-1E+10	1	-1E+10	1
4901784	76	C	08/03/2017	10:50	-132.959	43.652	0	1434.40	0	2.6850	0	34.5790	4	27.586	0	1418.051	0	25.4	4	7.8	4	-1E+10	1	-1E+10	1	-1E+10	1	-1E+10	1	-1E+10	1	-1E+10	1
4901784	76	C	08/03/2017	10:50	-132.959	43.652	0	1439.70	0	2.6730	0	34.5800	4	27.588	0	1423.272	0	25.6	4	7.8	4	-1E+10	1	-1E+10	1	-1E+10	1	-1E+10	1	-1E+10	1	-1E+10	1
4901784	76	C	08/03/2017	10:50	-132.959	43.652	0	1444.90	0	2.6590	0	34.5800	4	27.589	0	1428.396	0	25.8	4	7.9	4	-1E+10	1	-1E+10	1	-1E+10	1	-1E+10	1	-1E+10	1	-1E+10	1
4901784	76	C	08/03/2017	10:50	-132.959	43.652	0	1450.10	0	2.6360	0	34.5810	4	27.592	0	1433.519	0	26.0	4	8.0	4	-1E+10	1	-1E+10	1	-1E+10	1	-1E+10	1	-1E+10	1	-1E+10	1
4901784	76	C	08/03/2017	10:50	-132.959	43.652	0	1455.30	0	2.6150	0	34.5830	4	27.595	0	1438.641	0	26.2	4	8.0	4	-1E+10	1	-1E+10	1	-1E+10	1	-1E+10	1	-1E+10	1	-1E+10	1
4901784	76	C	08/03/2017	10:50	-132.959	43.652	0	1460.50	0	2.6080	0	34.5840	4	27.597	0	1443.764	0	26.4	4	8.1	4	-1E+10	1	-1E+10	1	-1E+10	1	-1E+10	1	-1E+10	1	-1E+10	1
4901784	76	C	08/03/2017	10:50	-132.959	43.652	0	1464.90	0	2.6000	0	34.5840	4	27.597	0	1448.099	0	26.5	4	8.1	4	-1E+10	1	-1E+10	1	-1E+10	1	-1E+10	1	-1E+10	1	-1E+10	1
4901784	76	C	08/03/2017	10:50	-132.959	43.652	0	1469.30	0	2.5960	0	34.5840	4	27.598	0	1452.433	0	26.6	4	8.1	4	-1E+10	1	-1E+10	1	-1E+10	1	-1E+10	1	-1E+10	1	-1E+10	1
4901784	76	C	08/03/2017	10:50	-132.959	43.652	0	1474.70	0	2.5880	0	34.5850	4	27.599	0	1457.752	0	26.7	4	8.2	4	-1E+10	1	-1E+10	1	-1E+10	1	-1E+10	1	-1E+10	1	-1E+10	1
4901784	76	C	08/03/2017	10:50	-132.959	43.652	0	1480.00	0	2.5820	0	34.5850	4	27.600	0	1462.973	0	26.9	4	8.2	4	-1E+10	1	-1E+10	1	-1E+10	1	-1E+10	1	-1E+10	1	-1E+10	1
4901784	76	C	08/03/2017	10:50	-132.959	43.652	0	1485.40	0	2.5710	0	34.5860	4	27.602	0	1468.292	0	27.1	4	8.3	4	-1E+10	1	-1E+10	1	-1E+10	1	-1E+10	1	-1E+10	1	-1E+10	1
4901784	76	C	08/03/2017	10:50	-132.959	43.652	0	1489.90	0	2.5640	0	34.5870	4	27.603	0	1472.725	0	27.2	4	8.3	4	-1E+10	1	-1E+10	1	-1E+10	1	-1E+10	1	-1E+10	1	-1E+10	1
4901784	76	C	08/03/2017	10:50	-132.959	43.652	0	1494.40	0	2.5540	0	34.5870	4	27.604	0	1477.157	0	27.4	4	8.4	4	-1E+10	1	-1E+10	1	-1E+10	1	-1E+10	1	-1E+10	1	-1E+10	1
4901784	76	C	08/03/2017	10:50	-132.959	43.652	0	1499.80	0	2.5480	0	34.5880	4	27.605	0	1482.476	0	27.6	4	8.4	4	-1E+10	1	-1E+10	1	-1E+10	1	-1E+10	1	-1E+10	1	-1E+10	1
4901784	76	C	08/03/2017	10:50	-132.959	43.652	0	1505.30	0	2.5330	0	34.5890	4	27.607	0	1487.893	0	28.0	4	8.5	4	-1E+10	1	-1E+10	1	-1E+10	1	-1E+10	1	-1E+10	1	-1E+10	1
4901784	76	C	08/03/2017	10:50	-132.959	43.652	0	1510.70	0	2.5250	0	34.5890	4	27.608	0	1493.212	0	28.2	4	8.6	4	-1E+10	1	-1E+10	1	-1E+10	1	-1E+10	1	-1E+10	1	-1E+10	1
4901784	76	C	08/03/2017	10:50	-132.959	43.652	0	1515.10	0	2.5140	0	34.5910	4	27.611	0	1497.545	0	28.5	4	8.7	4	-1E+10	1	-1E+10	1	-1E+10	1	-1E+10	1	-1E+10	1	-1E+10	1
4901784	76	C	08/03/2017	10:50	-132.959	43.652	0	1519.70	0	2.5000	0	34.5920	4	27.613	0	1502.075	0	28.8	4	8.8	4	-1E+10	1	-1E+10	1	-1E+10	1	-1E+10	1	-1E+10	1	-1E+10	1
4901784	76	C	08/03/2017	10:50	-132.959	43.652	0	1525.20	0	2.4860	0	34.5930	4	27.615	0	1507.492	0	29.0	4	8.9	4	-1E+10	1	-1E+10	1	-1E+10	1	-1E+10	1	-1E+10	1	-1E+10	1
4901784	76	C	08/03/2017	10:50	-132.959	43.652	0	1529.70	0	2.4780	0	34.5940	4	27.616	0	1511.924	0	29.3	4	8.9	4	-1E+10	1	-1E+10	1	-1E+10	1	-1E+10	1	-1E+10	1	-1E+10	1
4901784	76	C	08/03/2017	10:50	-132.959	43.652	0	1534.20	0	2.4650	0	34.5960	4	27.619	0	1516.355	0	29.6	4	9.0	4	-1E+10	1	-1E+10	1	-1E+10	1	-1E+10	1	-1E+10	1	-1E+10	1
4901784	76	C	08/03/2017	10:50	-132.959	43.652	0	1539.50	0	2.4540	0	34.5960	4	27.620	0	1521.575	0	30.0	4	9.1	4	-1E+10	1	-1E+10	1	-1E+10	1	-1E+10	1	-1E+10	1	-1E+10	1
4901784	76	C	08/03/2017	10:50	-132.959	43.652	0	1545.00	0	2.4400	0	34.5990	4	27.623	0	1526.991	0	30.3	4	9.2	4	-1E+10	1	-1E+10	1	-1E+10	1	-1E+10	1	-1E+10	1	-1E+10	1
4901784	76	C	08/03/2017	10:50	-132.959	43.652	0	1550.80	0	2.4370	0	34.5990	4	27.624	0	1532.702	0	30.5	4	9.3	4	-1E+10	1	-1E+10	1	-1E+10	1	-1E+10	1	-1E+10	1	-1E+10	1
4901784	76	C	08/03/2017	10:50	-132.959	43.652	0	1555.70	0	2.4300	0	34.6000	4	27.625	0	1537.527	0	30.9	4	9.4	4	-1E+10	1	-1E+10	1	-1E+10	1	-1E+10	1	-1E+10	1	-1E+10	1
4901784	76	C	08/03/2017	10:50	-132.959	43.652	0	1560.60	0	2.4170	0	34.6010	4	27.627	0	1542.352	0	31.2	4	9.5	4	-1E+10	1	-1E+10	1	-1E+10	1	-1E+10	1	-1E+10	1	-1E+10	1
4901784	76	C	08/03/2017	10:50	-132.959	43.652	0	1565.50	0	2.4120	0	34.6020	4	27.628	0	1547.177	0	31.5	4	9.6	4	-1E+10	1	-1E+10	1	-1E+10	1	-1E+10	1	-1E+10	1	-1E+10	1
4901784	76	C	08/03/2017	10:50	-132.959	43.652	0	1570.50	0	2.4010	0	34.6020	4	27.629	0	1552.100	0	31.9	4	9.7	4	-1E+10	1	-1E+10	1	-1E+10	1	-1E+10	1	-1E+10	1	-1E+10	1
4901784	76	C	08/03/2017	10:50	-132.959	43.652	0	1575.50	0	2.3910	0	34.6040	4	27.631	0	1557.023	0	32.3	4	9.8	4	-1E+10	1	-1E+10	1	-1E+10	1	-1E+10	1	-1E+10	1	-1E+10	1
4901784	76	C	08/03/2017	10:50	-132.959	43.652	0	1580.60	0	2.3810	0	34.6050	4	27.633	0	1562.044	0	32.7	4	10.0	4	-1E+10	1	-1E+10	1	-1E+10	1	-1E+10	1	-1E+10	1	-1E+10	1
4901784	76	C	08/03/2017	10:50	-132.959	43.652	0	1585.60	0	2.3700	0	34.6060	4	27.635	0	1566.967	0	33.2	4	10.1	4	-1E+10	1	-1E+10	1	-1E+10	1	-1E+10	1	-1E+10	1	-1E+10	1
4901784	76	C	08/03/2017	10:50	-132.959	43.652	0	1590.70	0	2.3520	0	34.6080	4	27.638	0	1571.988	0	33.7	4	10.3	4	-1E+10	1	-1E+10	1	-1E+10	1	-1E+10	1	-1E+10	1	-1E+10	1
4901784	76	C	08/03/2017	10:50	-132.959	43.652	0	1595.80	0	2.3450	0	34.6090	4	27.639	0	1577.009	0	34.1	4	10.4	4	-1E+10	1	-1E+10	1	-1E+10	1	-1E+10	1	-1E+10	1	-1E+10	1
4901784	76	C	08/03/2017	10:50	-132.959	43.652	0	1600.00	0	2.3280	0	34.6110	4	27.642	0	1581.144	0	34.6	4	10.5	4	-1E+10	1	-1E+10	1	-1E+10	1	-1E+10	1	-1E+10	1	-1E+10	1
4901784	76	C	08/03/2017	10:50	-132.959	43.652	0	1604.30	0	2.3190	0	34.6110	4	27.643	0	1585.377	0	35.0	4	10.6	4	-1E+10	1	-1E+10	1	-1E+10	1	-1E+10	1	-1E+10	1	-1E+10	1
4901784	76	C	08/03/2017	10:50	-132.959	43.652	0	1609.40	0	2.3060	0	34.6130	4	27.646	0	1590.398	0	35.4	4	10.8	4	-1E+10	1	-1E+10	1	-1E+10	1	-1E+10	1	-1E+10	1	-1E+10	1
4901784	76	C	08/03/2017	10:50	-132.959	43.652	0	1614.50	0	2.2980	0	34.6140	4	27.647	0	1595.419	0	35.7	4	10.8	4	-1E+10	1	-1E+10	1	-1E+10	1	-1E+10	1	-1E+10	1	-1E+10	1
4901784	76	C	08/03/2017	10:50	-132.959	43.652	0	1619.70	0	2.2900	0	34.6140	4	27.648	0	1600.538	0	36.0	4	10.9	4	-1E+10	1	-1E+10	1	-1E+10	1	-1E+10	1	-1E+10	1	-1E+10	1
4901784	76	C	08/03/2017	10:50	-132.959	43.652	0	1625.00	0	2.2840	0	34.6150	4	27.649	0	1605.755	0	36.3	4	11.0	4	-1E+10	1	-1E+10	1	-1E+10	1	-1E+10	1	-1E+10	1	-1E+10	1
4901784	76	C	08/03/2017	10:50	-132.959	43.652	0	1630.30	0	2.2770	0	34.6160	4	27.651	0	1610.972	0	36.7	4	11.1	4	-1E+10	1	-1E+10	1	-1E+10	1	-1E+10	1	-1E+10	1	-1E+10	1
4901784	76	C	08/03/2017	10:50	-132.959	43.652	0	1635.60	0	2.2720	0	34.6170	4	27.652	0	1616.189	0	37.1	4	11.3	4	-1E+10	1	-1E+10	1	-1E+10	1	-1E+10	1	-1E+10	1	-1E+10	1
4901784	76	C	08/03/2017	10:50	-132.959	43.652	0	1640.00	0	2.2630	0	34.6180	4	27.653	0	1620.520	0	37.6	4	11.4	4	-1E+10	1	-1E+10	1	-1E+10	1	-1E+10	1	-1E+10	1	-1E+10	1
4901784	76	C	08/03/2017	10:50	-132.959	43.652	0	1644.80	0	2.2560	0	34.6200	4	27.656	0	1625.244	0	38.1	4	11.6	4	-1E+10	1	-1E+10	1	-1E+10	1	-1E+10	1	-1E+10	1	-1E+10	1
4901784	76	C	08/03/2017	10:50	-132.959	43.652	0	1649.80	0	2.2450	0	34.6220	4	27.658	0	1630.166	0	38.6	4	11.7	4	-1E+10	1	-1E+10	1	-1E+10	1	-1E+10	1	-1E+10	1	-1E+10	1
4901784	76	C	08/03/2017	10:50	-132.959	43.652	0	1654.60	0	2.2430	0	34.6220	4	27.658	0	1634.890	0	39.0	4	11.8	4	-1E+10	1	-1E+10	1	-1E+10	1	-1E+10	1	-1E+10	1	-1E+10	1
4901784	76	C	08/03/2017	10:50	-132.959	43.652	0	1659.30	0	2.2400	0	34.6240	4	27.660	0	1639.516	0	39.4	4	12.0	4	-1E+10	1	-1E+10	1	-1E+10	1	-1E+10	1	-1E+10	1	-1E+10	1
4901784	76	C	08/03/2017	10:50	-132.959	43.652	0	1665.00	0	2.2400	0	34.6250	4	27.661	0	1645.126	0	39.9	4	12.1	4	-1E+10	1	-1E+10	1	-1E+10	1	-1E+10	1	-1E+10	1	-1E+10	1
4901784	76	C	08/03/2017	10:50	-132.959	43.652	0	1670.80	0	2.2300	0	34.6260	4	27.663	0	1650.834	0	40.2	4	12.2	4	-1E+10	1	-1E+10	1	-1E+10	1	-1E+10	1	-1E+10	1	-1E+10	1
4901784	76	C	08/03/2017	10:50	-132.959	43.652	0	1675.80	0	2.2240	0	34.6270	4	27.664	0	1655.755	0	40.4	4	12.2	4	-1E+10	1	-1E+10	1	-1E+10	1	-1E+10	1	-1E+10	1	-1E+10	1
4901784	76	C	08/03/2017	10:50	-132.959	43.652	0	1680.80	0	2.2210	0	34.6270	4	27.664	0	1660.675	0	40.6	4	12.3	4	-1E+10	1	-1E+10	1	-1E+10	1	-1E+10	1	-1E+10	1	-1E+10	1
4901784	76	C	08/03/2017	10:50	-132.959	43.652	0	1685.80	0	2.2140	0	34.6280	4	27.666	0	1665.596	0	40.8	4	12.4	4	-1E+10	1	-1E+10	1	-1E+10	1	-1E+10	1	-1E+10	1	-1E+10	1
4901784	76	C	08/03/2017	10:50	-132.959	43.652	0	1690.00	0	2.2060	0	34.6290	4	27.667	0	1669.729	0	41.1	4	12.5	4	-1E+10	1	-1E+10	1	-1E+10	1	-1E+10	1	-1E+10	1	-1E+10	1
4901784	76	C	08/03/2017	10:50	-132.959	43.652	0	1694.20	0	2.1980	0	34.6300	4	27.669	0	1673.862	0	41.5	4	12.6	4	-1E+10	1	-1E+10	1	-1E+10	1	-1E+10	1	-1E+10	1	-1E+10	1
4901784	76	C	08/03/2017	10:50	-132.959	43.652	0	1699.40	0	2.1860	0	34.6310	4	27.670	0	1678.979	0	41.9	4	12.7	4	-1E+10	1	-1E+10	1	-1E+10	1	-1E+10	1	-1E+10	1	-1E+10	1
4901784	76	C	08/03/2017	10:50	-132.959	43.652	0	1704.60	0	2.1800	0	34.6320	4	27.672	0	1684.096	0	42.2	4	12.8	4	-1E+10	1	-1E+10	1	-1E+10	1	-1E+10	1	-1E+10	1	-1E+10	1
4901784	76	C	08/03/2017	10:50	-132.959	43.652	0	1709.80	0	2.1760	0	34.6320	4	27.672	0	1689.213	0	42.6	4	12.9	4	-1E+10	1	-1E+10	1	-1E+10	1	-1E+10	1	-1E+10	1	-1E+10	1
4901784	76	C	08/03/2017	10:50	-132.959	43.652	0	1715.10	0	2.1660	0	34.6330	4	27.674	0	1694.428	0	42.9	4	13.0	4	-1E+10	1	-1E+10	1	-1E+10	1	-1E+10	1	-1E+10	1	-1E+10	1
4901784	76	C	08/03/2017	10:50	-132.959	43.652	0	1720.40	0	2.1620	0	34.6340	4	27.675	0	1699.643	0	43.2	4	13.1	4	-1E+10	1	-1E+10	1	-1E+10	1	-1E+10	1	-1E+10	1	-1E+10	1
4901784	76	C	08/03/2017	10:50	-132.959	43.652	0	1724.90	0	2.1580	0	34.6350	4	27.676	0	1704.070	0	43.4	4	13.1	4	-1E+10	1	-1E+10	1	-1E+10	1	-1E+10	1	-1E+10	1	-1E+10	1
4901784	76	C	08/03/2017	10:50	-132.959	43.652	0	1729.40	0	2.1550	0	34.6350	4	27.676	0	1708.498	0	43.6	4	13.2	4	-1E+10	1	-1E+10	1	-1E+10	1	-1E+10	1	-1E+10	1	-1E+10	1
4901784	76	C	08/03/2017	10:50	-132.959	43.652	0	1734.90	0	2.1520	0	34.6350	4	27.676	0	1713.909	0	44.0	4	13.3	4	-1E+10	1	-1E+10	1	-1E+10	1	-1E+10	1	-1E+10	1	-1E+10	1
4901784	76	C	08/03/2017	10:50	-132.959	43.652	0	1740.10	0	2.1360	0	34.6380	4	27.680	0	1719.025	0	44.6	4	13.5	4	-1E+10	1	-1E+10	1	-1E+10	1	-1E+10	1	-1E+10	1	-1E+10	1
4901784	76	C	08/03/2017	10:50	-132.959	43.652	0	1745.50	0	2.1320	0	34.6380	4	27.681	0	1724.338	0	44.8	4	13.6	4	-1E+10	1	-1E+10	1	-1E+10	1	-1E+10	1	-1E+10	1	-1E+10	1
4901784	76	C	08/03/2017	10:50	-132.959	43.652	0	1750.00	0	2.1280	0	34.6390	4	27.682	0	1728.765	0	45.1	4	13.6	4	-1E+10	1	-1E+10	1	-1E+10	1	-1E+10	1	-1E+10	1	-1E+10	1
4901784	76	C	08/03/2017	10:50	-132.959	43.652	0	1754.60	0	2.1260	0	34.6390	4	27.682	0	1733.290	0	45.5	4	13.8	4	-1E+10	1	-1E+10	1	-1E+10	1	-1E+10	1	-1E+10	1	-1E+10	1
4901784	76	C	08/03/2017	10:50	-132.959	43.652	0	1760.10	0	2.1140	0	34.6410	4	27.684	0	1738.701	0	46.0	4	13.9	4	-1E+10	1	-1E+10	1	-1E+10	1	-1E+10	1	-1E+10	1	-1E+10	1
4901784	76	C	08/03/2017	10:50	-132.959	43.652	0	1765.60	0	2.1080	0	34.6410	4	27.685	0	1744.112	0	46.4	4	14.0	4	-1E+10	1	-1E+10	1	-1E+10	1	-1E+10	1	-1E+10	1	-1E+10	1
4901784	76	C	08/03/2017	10:50	-132.959	43.652	0	1770.30	0	2.1020	0	34.6430	4	27.687	0	1748.735	0	46.8	4	14.2	4	-1E+10	1	-1E+10	1	-1E+10	1	-1E+10	1	-1E+10	1	-1E+10	1
4901784	76	C	08/03/2017	10:50	-132.959	43.652	0	1774.90	0	2.0960	0	34.6440	4	27.688	0	1753.260	0	47.1	4	14.2	4	-1E+10	1	-1E+10	1	-1E+10	1	-1E+10	1	-1E+10	1	-1E+10	1
4901784	76	C	08/03/2017	10:50	-132.959	43.652	0	1779.80	0	2.0920	0	34.6440	4	27.689	0	1758.080	0	47.3	4	14.3	4	-1E+10	1	-1E+10	1	-1E+10	1	-1E+10	1	-1E+10	1	-1E+10	1
4901784	76	C	08/03/2017	10:50	-132.959	43.652	0	1784.70	0	2.0920	0	34.6450	4	27.690	0	1762.900	0	47.6	4	14.4	4	-1E+10	1	-1E+10	1	-1E+10	1	-1E+10	1	-1E+10	1	-1E+10	1
4901784	76	C	08/03/2017	10:50	-132.959	43.652	0	1789.80	0	2.0900	0	34.6450	4	27.690	0	1767.917	0	48.0	4	14.5	4	-1E+10	1	-1E+10	1	-1E+10	1	-1E+10	1	-1E+10	1	-1E+10	1
4901784	76	C	08/03/2017	10:50	-132.959	43.652	0	1794.80	0	2.0800	0	34.6470	4	27.692	0	1772.835	0	48.5	4	14.7	4	-1E+10	1	-1E+10	1	-1E+10	1	-1E+10	1	-1E+10	1	-1E+10	1
4901784	76	C	08/03/2017	10:50	-132.959	43.652	0	1799.90	0	2.0730	0	34.6480	4	27.693	0	1777.851	0	48.8	4	14.7	4	-1E+10	1	-1E+10	1	-1E+10	1	-1E+10	1	-1E+10	1	-1E+10	1
4901784	76	C	08/03/2017	10:50	-132.959	43.652	0	1805.00	0	2.0690	0	34.6480	4	27.694	0	1782.867	0	49.0	4	14.8	4	-1E+10	1	-1E+10	1	-1E+10	1	-1E+10	1	-1E+10	1	-1E+10	1
4901784	76	C	08/03/2017	10:50	-132.959	43.652	0	1810.10	0	2.0670	0	34.6490	4	27.695	0	1787.883	0	49.2	4	14.9	4	-1E+10	1	-1E+10	1	-1E+10	1	-1E+10	1	-1E+10	1	-1E+10	1
4901784	76	C	08/03/2017	10:50	-132.959	43.652	0	1815.20	0	2.0620	0	34.6500	4	27.696	0	1792.899	0	49.4	4	14.9	4	-1E+10	1	-1E+10	1	-1E+10	1	-1E+10	1	-1E+10	1	-1E+10	1
4901784	76	C	08/03/2017	10:50	-132.959	43.652	0	1820.40	0	2.0610	0	34.6500	4	27.696	0	1798.013	0	49.6	4	15.0	4	-1E+10	1	-1E+10	1	-1E+10	1	-1E+10	1	-1E+10	1	-1E+10	1
4901784	76	C	08/03/2017	10:50	-132.959	43.652	0	1825.60	0	2.0570	0	34.6510	4	27.697	0	1803.127	0	49.9	4	15.1	4	-1E+10	1	-1E+10	1	-1E+10	1	-1E+10	1	-1E+10	1	-1E+10	1
4901784	76	C	08/03/2017	10:50	-132.959	43.652	0	1830.00	0	2.0540	0	34.6520	4	27.698	0	1807.454	0	50.1	4	15.1	4	-1E+10	1	-1E+10	1	-1E+10	1	-1E+10	1	-1E+10	1	-1E+10	1
4901784	76	C	08/03/2017	10:50	-132.959	43.652	0	1834.60	0	2.0520	0	34.6520	4	27.699	0	1811.978	0	50.3	4	15.2	4	-1E+10	1	-1E+10	1	-1E+10	1	-1E+10	1	-1E+10	1	-1E+10	1
4901784	76	C	08/03/2017	10:50	-132.959	43.652	0	1840.00	0	2.0490	0	34.6530	4	27.700	0	1817.288	0	50.4	4	15.2	4	-1E+10	1	-1E+10	1	-1E+10	1	-1E+10	1	-1E+10	1	-1E+10	1
4901784	76	C	08/03/2017	10:50	-132.959	43.652	0	1845.50	0	2.0480	0	34.6530	4	27.700	0	1822.697	0	50.5	4	15.3	4	-1E+10	1	-1E+10	1	-1E+10	1	-1E+10	1	-1E+10	1	-1E+10	1
4901784	76	C	08/03/2017	10:50	-132.959	43.652	0	1850.00	0	2.0470	0	34.6520	4	27.699	0	1827.122	0	50.6	4	15.3	4	-1E+10	1	-1E+10	1	-1E+10	1	-1E+10	1	-1E+10	1	-1E+10	1
4901784	76	C	08/03/2017	10:50	-132.959	43.652	0	1854.60	0	2.0460	0	34.6520	4	27.699	0	1831.645	0	50.8	4	15.3	4	-1E+10	1	-1E+10	1	-1E+10	1	-1E+10	1	-1E+10	1	-1E+10	1
4901784	76	C	08/03/2017	10:50	-132.959	43.652	0	1860.00	0	2.0450	0	34.6520	4	27.699	0	1836.955	0	50.9	4	15.4	4	-1E+10	1	-1E+10	1	-1E+10	1	-1E+10	1	-1E+10	1	-1E+10	1
4901784	76	C	08/03/2017	10:50	-132.959	43.652	0	1865.40	0	2.0430	0	34.6530	4	27.700	0	1842.265	0	51.1	4	15.4	4	-1E+10	1	-1E+10	1	-1E+10	1	-1E+10	1	-1E+10	1	-1E+10	1
4901784	76	C	08/03/2017	10:50	-132.959	43.652	0	1869.90	0	2.0390	0	34.6540	4	27.701	0	1846.689	0	51.3	4	15.5	4	-1E+10	1	-1E+10	1	-1E+10	1	-1E+10	1	-1E+10	1	-1E+10	1
4901784	76	C	08/03/2017	10:50	-132.959	43.652	0	1874.50	0	2.0380	0	34.6530	4	27.701	0	1851.212	0	51.4	4	15.5	4	-1E+10	1	-1E+10	1	-1E+10	1	-1E+10	1	-1E+10	1	-1E+10	1
4901784	76	C	08/03/2017	10:50	-132.959	43.652	0	1880.00	0	2.0360	0	34.6540	4	27.702	0	1856.620	0	51.6	4	15.6	4	-1E+10	1	-1E+10	1	-1E+10	1	-1E+10	1	-1E+10	1	-1E+10	1
4901784	76	C	08/03/2017	10:50	-132.959	43.652	0	1885.10	0	2.0330	0	34.6540	4	27.702	0	1861.634	0	51.9	4	15.7	4	-1E+10	1	-1E+10	1	-1E+10	1	-1E+10	1	-1E+10	1	-1E+10	1
4901784	76	C	08/03/2017	10:50	-132.959	43.652	0	1889.40	0	2.0300	0	34.6550	4	27.703	0	1865.862	0	52.3	4	15.8	4	-1E+10	1	-1E+10	1	-1E+10	1	-1E+10	1	-1E+10	1	-1E+10	1
4901784	76	C	08/03/2017	10:50	-132.959	43.652	0	1895.00	0	2.0190	0	34.6560	4	27.705	0	1871.367	0	53.1	4	16.0	4	-1E+10	1	-1E+10	1	-1E+10	1	-1E+10	1	-1E+10	1	-1E+10	1
4901784	76	C	08/03/2017	10:50	-132.959	43.652	0	1900.80	0	2.0100	0	34.6580	4	27.707	0	1877.070	0	53.6	4	16.2	4	-1E+10	1	-1E+10	1	-1E+10	1	-1E+10	1	-1E+10	1	-1E+10	1
4901784	76	C	08/03/2017	10:50	-132.959	43.652	0	1905.70	0	2.0040	0	34.6590	4	27.708	0	1881.887	0	54.0	4	16.3	4	-1E+10	1	-1E+10	1	-1E+10	1	-1E+10	1	-1E+10	1	-1E+10	1
4901784	76	C	08/03/2017	10:50	-132.959	43.652	0	1910.60	0	1.9980	0	34.6600	4	27.710	0	1886.704	0	54.4	4	16.4	4	-1E+10	1	-1E+10	1	-1E+10	1	-1E+10	1	-1E+10	1	-1E+10	1
4901784	76	C	08/03/2017	10:50	-132.959	43.652	0	1915.50	0	1.9910	0	34.6600	4	27.710	0	1891.521	0	54.8	4	16.5	4	-1E+10	1	-1E+10	1	-1E+10	1	-1E+10	1	-1E+10	1	-1E+10	1
4901784	76	C	08/03/2017	10:50	-132.959	43.652	0	1920.40	0	1.9840	0	34.6620	4	27.712	0	1896.338	0	55.2	4	16.6	4	-1E+10	1	-1E+10	1	-1E+10	1	-1E+10	1	-1E+10	1	-1E+10	1
4901784	76	C	08/03/2017	10:50	-132.959	43.652	0	1925.30	0	1.9800	0	34.6620	4	27.713	0	1901.154	0	55.4	4	16.7	4	-1E+10	1	-1E+10	1	-1E+10	1	-1E+10	1	-1E+10	1	-1E+10	1
4901784	76	C	08/03/2017	10:50	-132.959	43.652	0	1930.20	0	1.9770	0	34.6620	4	27.713	0	1905.971	0	55.6	4	16.8	4	-1E+10	1	-1E+10	1	-1E+10	1	-1E+10	1	-1E+10	1	-1E+10	1
4901784	76	C	08/03/2017	10:50	-132.959	43.652	0	1935.20	0	1.9710	0	34.6630	4	27.714	0	1910.886	0	55.9	4	16.9	4	-1E+10	1	-1E+10	1	-1E+10	1	-1E+10	1	-1E+10	1	-1E+10	1
4901784	76	C	08/03/2017	10:50	-132.959	43.652	0	1940.20	0	1.9660	0	34.6630	4	27.715	0	1915.800	0	56.3	4	17.0	4	-1E+10	1	-1E+10	1	-1E+10	1	-1E+10	1	-1E+10	1	-1E+10	1
4901784	76	C	08/03/2017	10:50	-132.959	43.652	0	1945.10	0	1.9600	0	34.6650	4	27.717	0	1920.617	0	56.8	4	17.1	4	-1E+10	1	-1E+10	1	-1E+10	1	-1E+10	1	-1E+10	1	-1E+10	1
4901784	76	C	08/03/2017	10:50	-132.959	43.652	0	1950.10	0	1.9550	0	34.6660	4	27.718	0	1925.531	0	57.2	4	17.2	4	-1E+10	1	-1E+10	1	-1E+10	1	-1E+10	1	-1E+10	1	-1E+10	1
4901784	76	C	08/03/2017	10:50	-132.959	43.652	0	1955.10	0	1.9530	0	34.6660	4	27.718	0	1930.445	0	57.5	4	17.3	4	-1E+10	1	-1E+10	1	-1E+10	1	-1E+10	1	-1E+10	1	-1E+10	1
4901784	76	C	08/03/2017	10:50	-132.959	43.652	0	1960.10	0	1.9490	0	34.6670	4	27.719	0	1935.360	0	57.8	4	17.4	4	-1E+10	1	-1E+10	1	-1E+10	1	-1E+10	1	-1E+10	1	-1E+10	1
4901784	76	C	08/03/2017	10:50	-132.959	43.652	0	1965.10	0	1.9460	0	34.6680	4	27.720	0	1940.274	0	58.3	4	17.6	4	-1E+10	1	-1E+10	1	-1E+10	1	-1E+10	1	-1E+10	1	-1E+10	1
4901784	76	C	08/03/2017	10:50	-132.959	43.652	0	1970.10	0	1.9430	0	34.6690	4	27.721	0	1945.188	0	58.6	4	17.7	4	-1E+10	1	-1E+10	1	-1E+10	1	-1E+10	1	-1E+10	1	-1E+10	1
4901784	76	C	08/03/2017	10:50	-132.959	43.652	0	1975.20	0	1.9400	0	34.6690	4	27.722	0	1950.200	0	58.8	4	17.7	4	-1E+10	1	-1E+10	1	-1E+10	1	-1E+10	1	-1E+10	1	-1E+10	1
4901784	76	C	08/03/2017	10:50	-132.959	43.652	0	1980.30	0	1.9390	0	34.6690	4	27.722	0	1955.212	0	59.0	4	17.8	4	-1E+10	1	-1E+10	1	-1E+10	1	-1E+10	1	-1E+10	1	-1E+10	1
4901784	76	C	08/03/2017	10:50	-132.959	43.652	0	1985.40	0	1.9370	0	34.6700	4	27.723	0	1960.224	0	59.4	4	17.9	4	-1E+10	1	-1E+10	1	-1E+10	1	-1E+10	1	-1E+10	1	-1E+10	1
4901784	76	C	08/03/2017	10:50	-132.959	43.652	0	1990.40	0	1.9350	0	34.6710	4	27.724	0	1965.138	0	59.7	4	18.0	4	-1E+10	1	-1E+10	1	-1E+10	1	-1E+10	1	-1E+10	1	-1E+10	1
4901784	76	C	08/03/2017	10:50	-132.959	43.652	0	1995.50	0	1.9320	0	34.6720	4	27.725	0	1970.149	0	60.0	4	18.1	4	-1E+10	1	-1E+10	1	-1E+10	1	-1E+10	1	-1E+10	1	-1E+10	1
4901784	76	C	08/03/2017	10:50	-132.959	43.652	0	2000.60	0	1.9300	0	34.6720	4	27.725	0	1975.161	0	60.2	4	18.1	4	-1E+10	1	-1E+10	1	-1E+10	1	-1E+10	1	-1E+10	1	-1E+10	1
4901784	76	C	08/03/2017	10:50	-132.959	43.652	0	2005.30	0	1.9260	0	34.6720	4	27.725	0	1979.779	0	60.5	4	18.2	4	-1E+10	1	-1E+10	1	-1E+10	1	-1E+10	1	-1E+10	1	-1E+10	1
4901784	76	C	08/03/2017	10:50	-132.959	43.652	0	2010.00	0	1.9210	0	34.6730	4	27.727	0	1984.398	0	60.8	4	18.3	4	-1E+10	1	-1E+10	1	-1E+10	1	-1E+10	1	-1E+10	1	-1E+10	1
4901784	76	C	08/03/2017	10:50	-132.959	43.652	0	2015.20	0	1.9160	0	34.6730	4	27.727	0	1989.507	0	60.9	4	18.3	4	-1E+10	1	-1E+10	1	-1E+10	1	-1E+10	1	-1E+10	1	-1E+10	1
4901784	76	C	08/03/2017	10:50	-132.959	43.652	0	2019.70	0	1.9150	0	34.6740	4	27.728	0	1993.929	0	61.0	4	18.4	4	-1E+10	1	-1E+10	1	-1E+10	1	-1E+10	1	-1E+10	1	-1E+10	1
4901784	76	C	08/03/2017	10:50	-132.959	43.652	0																										
4901784	77	C	08/13/2017	10:44	-132.853	43.629	0	2.20	0	18.1660	0	32.9960	4	23.698	0	2.182	0	231.4	4	97.9	4	-1E+10	1	-1E+10	1	-1E+10	1	-1E+10	1	-1E+10	1	-1E+10	1
4901784	77	C	08/13/2017	10:44	-132.853	43.629	0	3.20	0	18.1650	0	32.9970	4	23.700	0	3.174	0	231.0	4	97.7	4	-1E+10	1	-1E+10	1	-1E+10	1	-1E+10	1	-1E+10	1	-1E+10	1
4901784	77	C	08/13/2017	10:44	-132.853	43.629	0	4.50	0	18.1650	0	32.9960	4	23.699	0	4.464	0	230.8	4	97.6	4	-1E+10	1	-1E+10	1	-1E+10	1	-1E+10	1	-1E+10	1	-1E+10	1
4901784	77	C	08/13/2017	10:44	-132.853	43.629	0	5.90	0	18.1660	0	32.9960	4	23.699	0	5.853	0	230.8	4	97.6	4	-1E+10	1	-1E+10	1	-1E+10	1	-1E+10	1	-1E+10	1	-1E+10	1
4901784	77	C	08/13/2017	10:44	-132.853	43.629	0	7.50	0	18.1650	0	32.9960	4	23.699	0	7.440	0	230.7	4	97.6	4	-1E+10	1	-1E+10	1	-1E+10	1	-1E+10	1	-1E+10	1	-1E+10	1
4901784	77	C	08/13/2017	10:44	-132.853	43.629	0	9.10	0	18.1660	0	32.9960	4	23.699	0	9.027	0	230.7	4	97.6	4	-1E+10	1	-1E+10	1	-1E+10	1	-1E+10	1	-1E+10	1	-1E+10	1
4901784	77	C	08/13/2017	10:44	-132.853	43.629	0	11.00	0	18.1770	0	32.9950	4	23.695	0	10.912	0	230.4	4	97.5	4	-1E+10	1	-1E+10	1	-1E+10	1	-1E+10	1	-1E+10	1	-1E+10	1
4901784	77	C	08/13/2017	10:44	-132.853	43.629	0	12.80	0	18.1750	0	32.9940	4	23.695	0	12.697	0	230.5	4	97.5	4	-1E+10	1	-1E+10	1	-1E+10	1	-1E+10	1	-1E+10	1	-1E+10	1
4901784	77	C	08/13/2017	10:44	-132.853	43.629	0	14.70	0	18.1750	0	32.9930	4	23.694	0	14.582	0	230.5	4	97.5	4	-1E+10	1	-1E+10	1	-1E+10	1	-1E+10	1	-1E+10	1	-1E+10	1
4901784	77	C	08/13/2017	10:44	-132.853	43.629	0	16.50	0	18.1740	0	32.9920	4	23.694	0	16.367	0	230.7	4	97.6	4	-1E+10	1	-1E+10	1	-1E+10	1	-1E+10	1	-1E+10	1	-1E+10	1
4901784	77	C	08/13/2017	10:44	-132.853	43.629	0	18.30	0	18.1750	0	32.9900	4	23.692	0	18.153	0	231.1	4	97.8	4	-1E+10	1	-1E+10	1	-1E+10	1	-1E+10	1	-1E+10	1	-1E+10	1
4901784	77	C	08/13/2017	10:44	-132.853	43.629	0	20.00	0	18.1790	0	32.9870	4	23.689	0	19.839	0	231.7	4	98.0	4	-1E+10	1	-1E+10	1	-1E+10	1	-1E+10	1	-1E+10	1	-1E+10	1
4901784	77	C	08/13/2017	10:44	-132.853	43.629	0	21.70	0	18.1780	0	32.9830	4	23.686	0	21.525	0	232.6	4	98.4	4	-1E+10	1	-1E+10	1	-1E+10	1	-1E+10	1	-1E+10	1	-1E+10	1
4901784	77	C	08/13/2017	10:44	-132.853	43.629	0	23.80	0	18.1170	0	32.9720	4	23.693	0	23.608	0	235.3	4	99.4	4	-1E+10	1	-1E+10	1	-1E+10	1	-1E+10	1	-1E+10	1	-1E+10	1
4901784	77	C	08/13/2017	10:44	-132.853	43.629	0	25.20	0	18.0570	0	32.9510	4	23.692	0	24.997	0	238.6	4	100.7	4	-1E+10	1	-1E+10	1	-1E+10	1	-1E+10	1	-1E+10	1	-1E+10	1
4901784	77	C	08/13/2017	10:44	-132.853	43.629	0	26.50	0	17.6400	0	32.9080	4	23.760	0	26.287	0	243.9	4	102.1	4	-1E+10	1	-1E+10	1	-1E+10	1	-1E+10	1	-1E+10	1	-1E+10	1
4901784	77	C	08/13/2017	10:44	-132.853	43.629	0	27.90	0	16.9030	0	32.8830	4	23.915	0	27.675	0	250.0	4	103.2	4	-1E+10	1	-1E+10	1	-1E+10	1	-1E+10	1	-1E+10	1	-1E+10	1
4901784	77	C	08/13/2017	10:44	-132.853	43.629	0	29.40	0	15.8890	0	32.8410	4	24.114	0	29.163	0	258.2	4	104.5	4	-1E+10	1	-1E+10	1	-1E+10	1	-1E+10	1	-1E+10	1	-1E+10	1
4901784	77	C	08/13/2017	10:44	-132.853	43.629	0	30.90	0	15.4430	0	32.8330	4	24.207	0	30.651	0	260.7	4	104.6	4	-1E+10	1	-1E+10	1	-1E+10	1	-1E+10	1	-1E+10	1	-1E+10	1
4901784	77	C	08/13/2017	10:44	-132.853	43.629	0	32.60	0	15.3620	0	32.8440	4	24.233	0	32.337	0	263.0	4	105.3	4	-1E+10	1	-1E+10	1	-1E+10	1	-1E+10	1	-1E+10	1	-1E+10	1
4901784	77	C	08/13/2017	10:44	-132.853	43.629	0	34.30	0	14.9500	0	32.8560	4	24.332	0	34.023	0	266.1	4	105.7	4	-1E+10	1	-1E+10	1	-1E+10	1	-1E+10	1	-1E+10	1	-1E+10	1
4901784	77	C	08/13/2017	10:44	-132.853	43.629	0	36.10	0	14.4920	0	32.8490	4	24.424	0	35.808	0	269.7	4	106.2	4	-1E+10	1	-1E+10	1	-1E+10	1	-1E+10	1	-1E+10	1	-1E+10	1
4901784	77	C	08/13/2017	10:44	-132.853	43.629	0	37.80	0	14.3950	0	32.8360	4	24.435	0	37.494	0	271.1	4	106.5	4	-1E+10	1	-1E+10	1	-1E+10	1	-1E+10	1	-1E+10	1	-1E+10	1
4901784	77	C	08/13/2017	10:44	-132.853	43.629	0	39.50	0	14.3000	0	32.8160	4	24.439	0	39.181	0	272.3	4	106.8	4	-1E+10	1	-1E+10	1	-1E+10	1	-1E+10	1	-1E+10	1	-1E+10	1
4901784	77	C	08/13/2017	10:44	-132.853	43.629	0	41.20	0	13.5610	0	32.8330	4	24.604	0	40.867	0	276.4	4	106.8	4	-1E+10	1	-1E+10	1	-1E+10	1	-1E+10	1	-1E+10	1	-1E+10	1
4901784	77	C	08/13/2017	10:44	-132.853	43.629	0	43.10	0	13.1210	0	32.8470	4	24.703	0	42.751	0	279.3	4	106.9	4	-1E+10	1	-1E+10	1	-1E+10	1	-1E+10	1	-1E+10	1	-1E+10	1
4901784	77	C	08/13/2017	10:44	-132.853	43.629	0	43.50	0	13.0720	0	32.8550	4	24.719	0	43.148	0	280.1	4	107.2	4	-1E+10	1	-1E+10	1	-1E+10	1	-1E+10	1	-1E+10	1	-1E+10	1
4901784	77	C	08/13/2017	10:44	-132.853	43.629	0	45.00	0	13.0200	0	32.8540	4	24.729	0	44.635	0	280.4	4	107.2	4	-1E+10	1	-1E+10	1	-1E+10	1	-1E+10	1	-1E+10	1	-1E+10	1
4901784	77	C	08/13/2017	10:44	-132.853	43.629	0	46.30	0	12.9990	0	32.8480	4	24.728	0	45.925	0	280.4	4	107.1	4	-1E+10	1	-1E+10	1	-1E+10	1	-1E+10	1	-1E+10	1	-1E+10	1
4901784	77	C	08/13/2017	10:44	-132.853	43.629	0	47.70	0	12.9310	0	32.8420	4	24.737	0	47.313	0	280.5	4	107.0	4	-1E+10	1	-1E+10	1	-1E+10	1	-1E+10	1	-1E+10	1	-1E+10	1
4901784	77	C	08/13/2017	10:44	-132.853	43.629	0	49.30	0	12.4750	0	32.8570	4	24.837	0	48.900	0	281.4	4	106.3	4	-1E+10	1	-1E+10	1	-1E+10	1	-1E+10	1	-1E+10	1	-1E+10	1
4901784	77	C	08/13/2017	10:44	-132.853	43.629	0	50.80	0	12.0700	0	32.8300	4	24.893	0	50.388	0	284.2	4	106.5	4	-1E+10	1	-1E+10	1	-1E+10	1	-1E+10	1	-1E+10	1	-1E+10	1
4901784	77	C	08/13/2017	10:44	-132.853	43.629	0	52.40	0	11.4650	0	32.8230	4	24.999	0	51.975	0	286.8	4	106.1	4	-1E+10	1	-1E+10	1	-1E+10	1	-1E+10	1	-1E+10	1	-1E+10	1
4901784	77	C	08/13/2017	10:44	-132.853	43.629	0	54.10	0	11.2560	0	32.8210	4	25.035	0	53.661	0	285.5	4	105.2	4	-1E+10	1	-1E+10	1	-1E+10	1	-1E+10	1	-1E+10	1	-1E+10	1
4901784	77	C	08/13/2017	10:44	-132.853	43.629	0	55.70	0	11.1690	0	32.8260	4	25.055	0	55.247	0	284.8	4	104.7	4	-1E+10	1	-1E+10	1	-1E+10	1	-1E+10	1	-1E+10	1	-1E+10	1
4901784	77	C	08/13/2017	10:44	-132.853	43.629	0	57.20	0	10.9740	0	32.8580	4	25.114	0	56.735	0	282.4	4	103.4	4	-1E+10	1	-1E+10	1	-1E+10	1	-1E+10	1	-1E+10	1	-1E+10	1
4901784	77	C	08/13/2017	10:44	-132.853	43.629	0	58.90	0	10.6630	0	32.8630	4	25.172	0	58.421	0	279.4	4	101.6	4	-1E+10	1	-1E+10	1	-1E+10	1	-1E+10	1	-1E+10	1	-1E+10	1
4901784	77	C	08/13/2017	10:44	-132.853	43.629	0	60.80	0	10.3300	0	32.8710	4	25.236	0	60.305	0	278.4	4	100.6	4	-1E+10	1	-1E+10	1	-1E+10	1	-1E+10	1	-1E+10	1	-1E+10	1
4901784	77	C	08/13/2017	10:44	-132.853	43.629	0	63.00	0	10.2100	0	32.8660	4	25.252	0	62.487	0	275.7	4	99.3	4	-1E+10	1	-1E+10	1	-1E+10	1	-1E+10	1	-1E+10	1	-1E+10	1
4901784	77	C	08/13/2017	10:44	-132.853	43.629	0	64.80	0	10.0310	0	32.8590	4	25.277	0	64.272	0	272.8	4	97.9	4	-1E+10	1	-1E+10	1	-1E+10	1	-1E+10	1	-1E+10	1	-1E+10	1
4901784	77	C	08/13/2017	10:44	-132.853	43.629	0	66.30	0	9.8480	0	32.8580	4	25.307	0	65.760	0	270.1	4	96.6	4	-1E+10	1	-1E+10	1	-1E+10	1	-1E+10	1	-1E+10	1	-1E+10	1
4901784	77	C	08/13/2017	10:44	-132.853	43.629	0	67.90	0	9.6430	0	32.8500	4	25.334	0	67.346	0	268.7	4	95.6	4	-1E+10	1	-1E+10	1	-1E+10	1	-1E+10	1	-1E+10	1	-1E+10	1
4901784	77	C	08/13/2017	10:44	-132.853	43.629	0	69.50	0	9.5690	0	32.8510	4	25.347	0	68.933	0	266.8	4	94.8	4	-1E+10	1	-1E+10	1	-1E+10	1	-1E+10	1	-1E+10	1	-1E+10	1
4901784	77	C	08/13/2017	10:44	-132.853	43.629	0	71.10	0	9.4760	0	32.8480	4	25.359	0	70.520	0	264.8	4	93.9	4	-1E+10	1	-1E+10	1	-1E+10	1	-1E+10	1	-1E+10	1	-1E+10	1
4901784	77	C	08/13/2017	10:44	-132.853	43.629	0	72.70	0	9.4310	0	32.8530	4	25.371	0	72.106	0	263.1	4	93.2	4	-1E+10	1	-1E+10	1	-1E+10	1	-1E+10	1	-1E+10	1	-1E+10	1
4901784	77	C	08/13/2017	10:44	-132.853	43.629	0	74.30	0	9.2860	0	32.8610	4	25.400	0	73.693	0	261.5	4	92.3	4	-1E+10	1	-1E+10	1	-1E+10	1	-1E+10	1	-1E+10	1	-1E+10	1
4901784	77	C	08/13/2017	10:44	-132.853	43.629	0	75.90	0	9.2320	0	32.8670	4	25.413	0	75.280	0	260.7	4	91.9	4	-1E+10	1	-1E+10	1	-1E+10	1	-1E+10	1	-1E+10	1	-1E+10	1
4901784	77	C	08/13/2017	10:44	-132.853	43.629	0	77.60	0	9.1650	0	32.8780	4	25.433	0	76.965	0	260.3	4	91.7	4	-1E+10	1	-1E+10	1	-1E+10	1	-1E+10	1	-1E+10	1	-1E+10	1
4901784	77	C	08/13/2017	10:44	-132.853	43.629	0	79.30	0	9.0830	0	32.9020	4	25.464	0	78.651	0	260.5	4	91.6	4	-1E+10	1	-1E+10	1	-1E+10	1	-1E+10	1	-1E+10	1	-1E+10	1
4901784	77	C	08/13/2017	10:44	-132.853	43.629	0	81.00	0	9.0730	0	32.9340	4	25.491	0	80.337	0	259.6	4	91.3	4	-1E+10	1	-1E+10	1	-1E+10	1	-1E+10	1	-1E+10	1	-1E+10	1
4901784	77	C	08/13/2017	10:44	-132.853	43.629	0	82.60	0	8.9970	0	32.9460	4	25.512	0	81.923	0	258.4	4	90.7	4	-1E+10	1	-1E+10	1	-1E+10	1	-1E+10	1	-1E+10	1	-1E+10	1
4901784	77	C	08/13/2017	10:44	-132.853	43.629	0	84.40	0	8.9390	0	32.9510	4	25.525	0	83.708	0	257.0	4	90.1	4	-1E+10	1	-1E+10	1	-1E+10	1	-1E+10	1	-1E+10	1	-1E+10	1
4901784	77	C	08/13/2017	10:44	-132.853	43.629	0	86.10	0	8.8700	0	32.9700	4	25.551	0	85.394	0	254.5	4	89.1	4	-1E+10	1	-1E+10	1	-1E+10	1	-1E+10	1	-1E+10	1	-1E+10	1
4901784	77	C	08/13/2017	10:44	-132.853	43.629	0	87.90	0	8.8160	0	32.9890	4	25.574	0	87.179	0	251.6	4	88.0	4	-1E+10	1	-1E+10	1	-1E+10	1	-1E+10	1	-1E+10	1	-1E+10	1
4901784	77	C	08/13/2017	10:44	-132.853	43.629	0	89.60	0	8.8030	0	32.9910	4	25.578	0	88.865	0	247.3	4	86.5	4	-1E+10	1	-1E+10	1	-1E+10	1	-1E+10	1	-1E+10	1	-1E+10	1
4901784	77	C	08/13/2017	10:44	-132.853	43.629	0	91.30	0	8.7820	0	33.0070	4	25.593	0	90.550	0	242.6	4	84.8	4	-1E+10	1	-1E+10	1	-1E+10	1	-1E+10	1	-1E+10	1	-1E+10	1
4901784	77	C	08/13/2017	10:44	-132.853	43.629	0	93.20	0	8.7120	0	33.0340	4	25.625	0	92.434	0	238.1	4	83.1	4	-1E+10	1	-1E+10	1	-1E+10	1	-1E+10	1	-1E+10	1	-1E+10	1
4901784	77	C	08/13/2017	10:44	-132.853	43.629	0	94.90	0	8.6990	0	33.0610	4	25.648	0	94.120	0	233.7	4	81.6	4	-1E+10	1	-1E+10	1	-1E+10	1	-1E+10	1	-1E+10	1	-1E+10	1
4901784	77	C	08/13/2017	10:44	-132.853	43.629	0	96.60	0	8.6970	0	33.1010	4	25.680	0	95.806	0	230.1	4	80.3	4	-1E+10	1	-1E+10	1	-1E+10	1	-1E+10	1	-1E+10	1	-1E+10	1
4901784	77	C	08/13/2017	10:44	-132.853	43.629	0	98.30	0	8.7050	0	33.1210	4	25.695	0	97.491	0	225.8	4	78.9	4	-1E+10	1	-1E+10	1	-1E+10	1	-1E+10	1	-1E+10	1	-1E+10	1
4901784	77	C	08/13/2017	10:44	-132.853	43.629	0	100.10	0	8.7010	0	33.1680	4	25.732	0	99.276	0	221.1	4	77.2	4	-1E+10	1	-1E+10	1	-1E+10	1	-1E+10	1	-1E+10	1	-1E+10	1
4901784	77	C	08/13/2017	10:44	-132.853	43.629	0	101.90	0	8.6950	0	33.2260	4	25.778	0	101.061	0	216.5	4	75.7	4	-1E+10	1	-1E+10	1	-1E+10	1	-1E+10	1	-1E+10	1	-1E+10	1
4901784	77	C	08/13/2017	10:44	-132.853	43.629	0	104.70	0	8.7260	0	33.3190	4	25.847	0	103.837	0	210.8	4	73.8	4	-1E+10	1	-1E+10	1	-1E+10	1	-1E+10	1	-1E+10	1	-1E+10	1
4901784	77	C	08/13/2017	10:44	-132.853	43.629	0	107.50	0	8.7200	0	33.3660	4	25.884	0	106.613	0	207.4	4	72.6	4	-1E+10	1	-1E+10	1	-1E+10	1	-1E+10	1	-1E+10	1	-1E+10	1
4901784	77	C	08/13/2017	10:44	-132.853	43.629	0	109.70	0	8.7220	0	33.4450	4	25.946	0	108.794	0	204.5	4	71.6	4	-1E+10	1	-1E+10	1	-1E+10	1	-1E+10	1	-1E+10	1	-1E+10	1
4901784	77	C	08/13/2017	10:44	-132.853	43.629	0	112.80	0	8.7200	0	33.4600	4	25.958	0	111.868	0	200.5	4	70.2	4	-1E+10	1	-1E+10	1	-1E+10	1	-1E+10	1	-1E+10	1	-1E+10	1
4901784	77	C	08/13/2017	10:44	-132.853	43.629	0	115.10	0	8.6980	0	33.5050	4	25.997	0	114.148	0	196.4	4	68.8	4	-1E+10	1	-1E+10	1	-1E+10	1	-1E+10	1	-1E+10	1	-1E+10	1
4901784	77	C	08/13/2017	10:44	-132.853	43.629	0	117.50	0	8.6450	0	33.5590	4	26.047	0	116.528	0	193.9	4	67.9	4	-1E+10	1	-1E+10	1	-1E+10	1	-1E+10	1	-1E+10	1	-1E+10	1
4901784	77	C	08/13/2017	10:44	-132.853	43.629	0	119.90	0	8.6330	0	33.5830	4	26.068	0	118.907	0	191.0	4	66.8	4	-1E+10	1	-1E+10	1	-1E+10	1	-1E+10	1	-1E+10	1	-1E+10	1
4901784	77	C	08/13/2017	10:44	-132.853	43.629	0	122.40	0	8.6310	0	33.6350	4	26.109	0	121.386	0	187.6	4	65.7	4	-1E+10	1	-1E+10	1	-1E+10	1	-1E+10	1	-1E+10	1	-1E+10	1
4901784	77	C	08/13/2017	10:44	-132.853	43.629	0	125.00	0	8.6390	0	33.6670	4	26.133	0	123.963	0	184.8	4	64.7	4	-1E+10	1	-1E+10	1	-1E+10	1	-1E+10	1	-1E+10	1	-1E+10	1
4901784	77	C	08/13/2017	10:44	-132.853	43.629	0	127.60	0	8.6190	0	33.7290	4	26.185	0	126.541	0	182.1	4	63.8	4	-1E+10	1	-1E+10	1	-1E+10	1	-1E+10	1	-1E+10	1	-1E+10	1
4901784	77	C	08/13/2017	10:44	-132.853	43.629	0	130.20	0	8.6050	0	33.7630	4	26.214	0	129.119	0	180.2	4	63.1	4	-1E+10	1	-1E+10	1	-1E+10	1	-1E+10	1	-1E+10	1	-1E+10	1
4901784	77	C	08/13/2017	10:44	-132.853	43.629	0	132.80	0	8.6060	0	33.8040	4	26.246	0	131.696	0	177.8	4	62.3	4	-1E+10	1	-1E+10	1	-1E+10	1	-1E+10	1	-1E+10	1	-1E+10	1
4901784	77	C	08/13/2017	10:44	-132.853	43.629	0	135.50	0	8.5640	0	33.8200	4	26.265	0	134.373	0	175.0	4	61.2	4	-1E+10	1	-1E+10	1	-1E+10	1	-1E+10	1	-1E+10	1	-1E+10	1
4901784	77	C	08/13/2017	10:44	-132.853	43.629	0	137.30	0	8.5170	0	33.8530	4	26.298	0	136.157	0	174.5	4	61.0	4	-1E+10	1	-1E+10	1	-1E+10	1	-1E+10	1	-1E+10	1	-1E+10	1
4901784	77	C	08/13/2017	10:44	-132.853	43.629	0	140.00	0	8.4600	0	33.8880	4	26.334	0	138.834	0	174.2	4	60.8	4	-1E+10	1	-1E+10	1	-1E+10	1	-1E+10	1	-1E+10	1	-1E+10	1
4901784	77	C	08/13/2017	10:44	-132.853	43.629	0	142.70	0	8.3710	0	33.9210	4	26.373	0	141.511	0	172.8	4	60.2	4	-1E+10	1	-1E+10	1	-1E+10	1	-1E+10	1	-1E+10	1	-1E+10	1
4901784	77	C	08/13/2017	10:44	-132.853	43.629	0	144.60	0	8.3420	0	33.9260	4	26.382	0	143.394	0	172.7	4	60.2	4	-1E+10	1	-1E+10	1	-1E+10	1	-1E+10	1	-1E+10	1	-1E+10	1
4901784	77	C	08/13/2017	10:44	-132.853	43.629	0	147.40	0	8.2920	0	33.9380	4	26.399	0	146.170	0	172.6	4	60.1	4	-1E+10	1	-1E+10	1	-1E+10	1	-1E+10	1	-1E+10	1	-1E+10	1
4901784	77	C	08/13/2017	10:44	-132.853	43.629	0	150.10	0	8.2600	0	33.9410	4	26.406	0	148.846	0	172.1	4	59.9	4	-1E+10	1	-1E+10	1	-1E+10	1	-1E+10	1	-1E+10	1	-1E+10	1
4901784	77	C	08/13/2017	10:44	-132.853	43.629	0	152.90	0	8.2140	0	33.9480	4	26.418	0	151.622	0	172.1	4	59.8	4	-1E+10	1	-1E+10	1	-1E+10	1	-1E+10	1	-1E+10	1	-1E+10	1
4901784	77	C	08/13/2017	10:44	-132.853	43.629	0	155.60	0	8.1530	0	33.9600	4	26.437	0	154.298	0	172.0	4	59.7	4	-1E+10	1	-1E+10	1	-1E+10	1	-1E+10	1	-1E+10	1	-1E+10	1
4901784	77	C	08/13/2017	10:44	-132.853	43.629	0	157.50	0	8.1490	0	33.9590	4	26.437	0	156.182	0	171.7	4	59.6	4	-1E+10	1	-1E+10	1	-1E+10	1	-1E+10	1	-1E+10	1	-1E+10	1
4901784	77	C	08/13/2017	10:44	-132.853	43.629	0	160.20	0	8.1470	0	33.9610	4	26.439	0	158.858	0	171.0	4	59.4	4	-1E+10	1	-1E+10	1	-1E+10	1	-1E+10	1	-1E+10	1	-1E+10	1
4901784	77	C	08/13/2017	10:44	-132.853	43.629	0	163.10	0	8.1120	0	33.9680	4	26.449	0	161.733	0	169.6	4	58.8	4	-1E+10	1	-1E+10	1	-1E+10	1	-1E+10	1	-1E+10	1	-1E+10	1
4901784	77	C	08/13/2017	10:44	-132.853	43.629	0	165.00	0	8.0410	0	33.9650	4	26.458	0	163.616	0	169.1	4	58.6	4	-1E+10	1	-1E+10	1	-1E+10	1	-1E+10	1	-1E+10	1	-1E+10	1
4901784	77	C	08/13/2017	10:44	-132.853	43.629	0	167.80	0	8.0020	0	33.9670	4	26.465	0	166.391	0	168.8	4	58.4	4	-1E+10	1	-1E+10	1	-1E+10	1	-1E+10	1	-1E+10	1	-1E+10	1
4901784	77	C	08/13/2017	10:44	-132.853	43.629	0	170.70	0	7.9730	0	33.9680	4	26.470	0	169.266	0	168.1	4	58.1	4	-1E+10	1	-1E+10	1	-1E+10	1	-1E+10	1	-1E+10	1	-1E+10	1
4901784	77	C	08/13/2017	10:44	-132.853	43.629	0	172.50	0	7.9410	0	33.9700	4	26.476	0	171.050	0	167.3	4	57.8	4	-1E+10	1	-1E+10	1	-1E+10	1	-1E+10	1	-1E+10	1	-1E+10	1
4901784	77	C	08/13/2017	10:44	-132.853	43.629	0	174.40	0	7.8970	0	33.9730	4	26.485	0	172.933	0	166.5	4	57.5	4	-1E+10	1	-1E+10	1	-1E+10	1	-1E+10	1	-1E+10	1	-1E+10	1
4901784	77	C	08/13/2017	10:44	-132.853	43.629	0	177.30	0	7.8450	0	33.9730	4	26.493	0	175.808	0	165.2	4	57.0	4	-1E+10	1	-1E+10	1	-1E+10	1	-1E+10	1	-1E+10	1	-1E+10	1
4901784	77	C	08/13/2017	10:44	-132.853	43.629	0	180.10	0	7.7820	0	33.9750	4	26.504	0	178.583	0	164.2	4	56.5	4	-1E+10	1	-1E+10	1	-1E+10	1	-1E+10	1	-1E+10	1	-1E+10	1
4901784	77	C	08/13/2017	10:44	-132.853	43.629	0	181.90	0	7.7480	0	33.9770	4	26.510	0	180.367	0	163.6	4	56.3	4	-1E+10	1	-1E+10	1	-1E+10	1	-1E+10	1	-1E+10	1	-1E+10	1
4901784	77	C	08/13/2017	10:44	-132.853	43.629	0	184.80	0	7.7310	0	33.9760	4	26.512	0	183.241	0	162.5	4	55.9	4	-1E+10	1	-1E+10	1	-1E+10	1	-1E+10	1	-1E+10	1	-1E+10	1
4901784	77	C	08/13/2017	10:44	-132.853	43.629	0	187.70	0	7.6630	0	33.9780	4	26.523	0	186.115	0	161.3	4	55.4	4	-1E+10	1	-1E+10	1	-1E+10	1	-1E+10	1	-1E+10	1	-1E+10	1
4901784	77	C	08/13/2017	10:44	-132.853	43.629	0	189.60	0	7.6480	0	33.9780	4	26.526	0	187.998	0	160.6	4	55.1	4	-1E+10	1	-1E+10	1	-1E+10	1	-1E+10	1	-1E+10	1	-1E+10	1
4901784	77	C	08/13/2017	10:44	-132.853	43.629	0	192.50	0	7.5870	0	33.9810	4	26.537	0	190.873	0	159.2	4	54.6	4	-1E+10	1	-1E+10	1	-1E+10	1	-1E+10	1	-1E+10	1	-1E+10	1
4901784	77	C	08/13/2017	10:44	-132.853	43.629	0	195.30	0	7.5180	0	33.9800	4	26.546	0	193.648	0	157.6	4	53.9	4	-1E+10	1	-1E+10	1	-1E+10	1	-1E+10	1	-1E+10	1	-1E+10	1
4901784	77	C	08/13/2017	10:44	-132.853	43.629	0	197.20	0	7.4920	0	33.9800	4	26.549	0	195.531	0	156.9	4	53.7	4	-1E+10	1	-1E+10	1	-1E+10	1	-1E+10	1	-1E+10	1	-1E+10	1
4901784	77	C	08/13/2017	10:44	-132.853	43.629	0	200.10	0	7.4430	0	33.9810	4	26.557	0	198.405	0	155.8	4	53.2	4	-1E+10	1	-1E+10	1	-1E+10	1	-1E+10	1	-1E+10	1	-1E+10	1
4901784	77	C	08/13/2017	10:44	-132.853	43.629	0	202.90	0	7.3720	0	33.9840	4	26.570	0	201.180	0	154.5	4	52.7	4	-1E+10	1	-1E+10	1	-1E+10	1	-1E+10	1	-1E+10	1	-1E+10	1
4901784	77	C	08/13/2017	10:44	-132.853	43.629	0	204.90	0	7.3300	0	33.9830	4	26.575	0	203.162	0	153.7	4	52.4	4	-1E+10	1	-1E+10	1	-1E+10	1	-1E+10	1	-1E+10	1	-1E+10	1
4901784	77	C	08/13/2017	10:44	-132.853	43.629	0	207.70	0	7.3150	0	33.9840	4	26.578	0	205.936	0	152.5	4	52.0	4	-1E+10	1	-1E+10	1	-1E+10	1	-1E+10	1	-1E+10	1	-1E+10	1
4901784	77	C	08/13/2017	10:44	-132.853	43.629	0	210.60	0	7.2760	0	33.9810	4	26.581	0	208.810	0	151.2	4	51.5	4	-1E+10	1	-1E+10	1	-1E+10	1	-1E+10	1	-1E+10	1	-1E+10	1
4901784	77	C	08/13/2017	10:44	-132.853	43.629	0	213.10	0	7.2280	0	33.9830	4	26.589	0	211.288	0	150.1	4	51.0	4	-1E+10	1	-1E+10	1	-1E+10	1	-1E+10	1	-1E+10	1	-1E+10	1
4901784	77	C	08/13/2017	10:44	-132.853	43.629	0	215.00	0	7.2210	0	33.9820	4	26.589	0	213.171	0	148.9	4	50.6	4	-1E+10	1	-1E+10	1	-1E+10	1	-1E+10	1	-1E+10	1	-1E+10	1
4901784	77	C	08/13/2017	10:44	-132.853	43.629	0	217.40	0	7.1540	0	33.9810	4	26.598	0	215.549	0	147.0	4	49.9	4	-1E+10	1	-1E+10	1	-1E+10	1	-1E+10	1	-1E+10	1	-1E+10	1
4901784	77	C	08/13/2017	10:44	-132.853	43.629	0	219.80	0	7.0880	0	33.9790	4	26.605	0	217.927	0	145.6	4	49.3	4	-1E+10	1	-1E+10	1	-1E+10	1	-1E+10	1	-1E+10	1	-1E+10	1
4901784	77	C	08/13/2017	10:44	-132.853	43.629	0	222.20	0	7.0480	0	33.9790	4	26.611	0	220.306	0	144.2	4	48.8	4	-1E+10	1	-1E+10	1	-1E+10	1	-1E+10	1	-1E+10	1	-1E+10	1
4901784	77	C	08/13/2017	10:44	-132.853	43.629	0	225.40	0	6.9980	0	33.9790	4	26.618	0	223.477	0	142.5	4	48.2	4	-1E+10	1	-1E+10	1	-1E+10	1	-1E+10	1	-1E+10	1	-1E+10	1
4901784	77	C	08/13/2017	10:44	-132.853	43.629	0	227.80	0	6.9500	0	33.9800	4	26.625	0	225.855	0	141.1	4	47.7	4	-1E+10	1	-1E+10	1	-1E+10	1	-1E+10	1	-1E+10	1	-1E+10	1
4901784	77	C	08/13/2017	10:44	-132.853	43.629	0	230.30	0	6.9080	0	33.9810	4	26.632	0	228.332	0	139.8	4	47.2	4	-1E+10	1	-1E+10	1	-1E+10	1	-1E+10	1	-1E+10	1	-1E+10	1
4901784	77	C	08/13/2017	10:44	-132.853	43.629	0	232.70	0	6.8740	0	33.9830	4	26.638	0	230.710	0	138.3	4	46.6	4	-1E+10	1	-1E+10	1	-1E+10	1	-1E+10	1	-1E+10	1	-1E+10	1
4901784	77	C	08/13/2017	10:44	-132.853	43.629	0	235.20	0	6.8320	0	33.9830	4	26.644	0	233.188	0	136.2	4	45.9	4	-1E+10	1	-1E+10	1	-1E+10	1	-1E+10	1	-1E+10	1	-1E+10	1
4901784	77	C	08/13/2017	10:44	-132.853	43.629	0	237.60	0	6.7780	0	33.9860	4	26.653	0	235.566	0	134.1	4	45.1	4	-1E+10	1	-1E+10	1	-1E+10	1	-1E+10	1	-1E+10	1	-1E+10	1
4901784	77	C	08/13/2017	10:44	-132.853	43.629	0	240.00	0	6.7490	0	33.9850	4	26.656	0	237.944	0	130.9	4	44.0	4	-1E+10	1	-1E+10	1	-1E+10	1	-1E+10	1	-1E+10	1	-1E+10	1
4901784	77	C	08/13/2017	10:44	-132.853	43.629	0	242.50	0	6.7290	0	33.9870	4	26.661	0	240.421	0	126.6	4	42.6	4	-1E+10	1	-1E+10	1	-1E+10	1	-1E+10	1	-1E+10	1	-1E+10	1
4901784	77	C	08/13/2017	10:44	-132.853	43.629	0	245.00	0	6.7170	0	33.9910	4	26.665	0	242.898	0	119.8	4	40.3	4	-1E+10	1	-1E+10	1	-1E+10	1	-1E+10	1	-1E+10	1	-1E+10	1
4901784	77	C	08/13/2017	10:44	-132.853	43.629	0	247.40	0	6.7470	0	34.0020	4	26.670	0	245.276	0	113.3	4	38.1	4	-1E+10	1	-1E+10	1	-1E+10	1	-1E+10	1	-1E+10	1	-1E+10	1
4901784	77	C	08/13/2017	10:44	-132.853	43.629	0	249.80	0	6.7270	0	34.0060	4	26.676	0	247.654	0	110.6	4	37.2	4	-1E+10	1	-1E+10	1	-1E+10	1	-1E+10	1	-1E+10	1	-1E+10	1
4901784	77	C	08/13/2017	10:44	-132.853	43.629	0	252.30	0	6.7220	0	34.0120	4	26.681	0	250.131	0	109.1	4	36.7	4	-1E+10	1	-1E+10	1	-1E+10	1	-1E+10	1	-1E+10	1	-1E+10	1
4901784	77	C	08/13/2017	10:44	-132.853	43.629	0	254.70	0	6.6750	0	34.0120	4	26.688	0	252.509	0	110.9	4	37.2	4	-1E+10	1	-1E+10	1	-1E+10	1	-1E+10	1	-1E+10	1	-1E+10	1
4901784	77	C	08/13/2017	10:44	-132.853	43.629	0	257.90	0	6.6380	0	34.0070	4	26.689	0	255.679	0	113.9	4	38.2	4	-1E+10	1	-1E+10	1	-1E+10	1	-1E+10	1	-1E+10	1	-1E+10	1
4901784	77	C	08/13/2017	10:44	-132.853	43.629	0	260.40	0	6.5570	0	33.9980	4	26.692	0	258.156	0	115.3	4	38.6	4	-1E+10	1	-1E+10	1	-1E+10	1	-1E+10	1	-1E+10	1	-1E+10	1
4901784	77	C	08/13/2017	10:44	-132.853	43.629	0	262.80	0	6.5130	0	34.0000	4	26.700	0	260.534	0	115.6	4	38.7	4	-1E+10	1	-1E+10	1	-1E+10	1	-1E+10	1	-1E+10	1	-1E+10	1
4901784	77	C	08/13/2017	10:44	-132.853	43.629	0	265.30	0	6.4730	0	33.9950	4	26.701	0	263.011	0	114.6	4	38.3	4	-1E+10	1	-1E+10	1	-1E+10	1	-1E+10	1	-1E+10	1	-1E+10	1
4901784	77	C	08/13/2017	10:44	-132.853	43.629	0	267.70	0	6.4780	0	33.9970	4	26.702	0	265.389	0	111.9	4	37.4	4	-1E+10	1	-1E+10	1	-1E+10	1	-1E+10	1	-1E+10	1	-1E+10	1
4901784	77	C	08/13/2017	10:44	-132.853	43.629	0	270.20	0	6.4750	0	34.0030	4	26.707	0	267.865	0	108.5	4	36.3	4	-1E+10	1	-1E+10	1	-1E+10	1	-1E+10	1	-1E+10	1	-1E+10	1
4901784	77	C	08/13/2017	10:44	-132.853	43.629	0	272.70	0	6.4580	0	34.0040	4	26.710	0	270.342	0	105.5	4	35.3	4	-1E+10	1	-1E+10	1	-1E+10	1	-1E+10	1	-1E+10	1	-1E+10	1
4901784	77	C	08/13/2017	10:44	-132.853	43.629	0	275.20	0	6.4510	0	34.0040	4	26.711	0	272.819	0	102.2	4	34.1	4	-1E+10	1	-1E+10	1	-1E+10	1	-1E+10	1	-1E+10	1	-1E+10	1
4901784	77	C	08/13/2017	10:44	-132.853	43.629	0	277.80	0	6.4270	0	34.0100	4	26.719	0	275.395	0	98.7	4	33.0	4	-1E+10	1	-1E+10	1	-1E+10	1	-1E+10	1	-1E+10	1	-1E+10	1
4901784	77	C	08/13/2017	10:44	-132.853	43.629	0	280.40	0	6.4170	0	34.0180	4	26.727	0	277.970	0	97.5	4	32.5	4	-1E+10	1	-1E+10	1	-1E+10	1	-1E+10	1	-1E+10	1	-1E+10	1
4901784	77	C	08/13/2017	10:44	-132.853	43.629	0	282.20	0	6.3160	0	34.0080	4	26.732	0	279.754	0	97.5	4	32.5	4	-1E+10	1	-1E+10	1	-1E+10	1	-1E+10	1	-1E+10	1	-1E+10	1
4901784	77	C	08/13/2017	10:44	-132.853	43.629	0	284.80	0	6.3230	0	34.0120	4	26.734	0	282.329	0	94.8	4	31.6	4	-1E+10	1	-1E+10	1	-1E+10	1	-1E+10	1	-1E+10	1	-1E+10	1
4901784	77	C	08/13/2017	10:44	-132.853	43.629	0	287.50	0	6.3430	0	34.0230	4	26.740	0	285.004	0	91.9	4	30.6	4	-1E+10	1	-1E+10	1	-1E+10	1	-1E+10	1	-1E+10	1	-1E+10	1
4901784	77	C	08/13/2017	10:44	-132.853	43.629	0	290.10	0	6.3350	0	34.0220	4	26.741	0	287.580	0	90.3	4	30.1	4	-1E+10	1	-1E+10	1	-1E+10	1	-1E+10	1	-1E+10	1	-1E+10	1
4901784	77	C	08/13/2017	10:44	-132.853	43.629	0	292.80	0	6.3220	0	34.0210	4	26.741	0	290.254	0	88.2	4	29.4	4	-1E+10	1	-1E+10	1	-1E+10	1	-1E+10	1	-1E+10	1	-1E+10	1
4901784	77	C	08/13/2017	10:44	-132.853	43.629	0	294.70	0	6.2970	0	34.0260	4	26.749	0	292.136	0	86.8	4	28.9	4	-1E+10	1	-1E+10	1	-1E+10	1	-1E+10	1	-1E+10	1	-1E+10	1
4901784	77	C	08/13/2017	10:44	-132.853	43.629	0	297.40	0	6.2220	0	34.0260	4	26.758	0	294.811	0	85.1	4	28.3	4	-1E+10	1	-1E+10	1	-1E+10	1	-1E+10	1	-1E+10	1	-1E+10	1
4901784	77	C	08/13/2017	10:44	-132.853	43.629	0	300.20	0	6.1920	0	34.0350	4	26.769	0	297.585	0	83.2	4	27.6	4	-1E+10	1	-1E+10	1	-1E+10	1	-1E+10	1	-1E+10	1	-1E+10	1
4901784	77	C	08/13/2017	10:44	-132.853	43.629	0	302.10	0	6.1640	0	34.0330	4	26.771	0	299.467	0	83.2	4	27.6	4	-1E+10	1	-1E+10	1	-1E+10	1	-1E+10	1	-1E+10	1	-1E+10	1
4901784	77	C	08/13/2017	10:44	-132.853	43.629	0	304.90	0	6.1100	0	34.0300	4	26.776	0	302.240	0	83.0	4	27.5	4	-1E+10	1	-1E+10	1	-1E+10	1	-1E+10	1	-1E+10	1	-1E+10	1
4901784	77	C	08/13/2017	10:44	-132.853	43.629	0	307.70	0	6.0440	0	34.0240	4	26.779	0	305.014	0	82.2	4	27.2	4	-1E+10	1	-1E+10	1	-1E+10	1	-1E+10	1	-1E+10	1	-1E+10	1
4901784	77	C	08/13/2017	10:44	-132.853	43.629	0	309.50	0	5.9800	0	34.0280	4	26.791	0	306.797	0	81.0	4	26.8	4	-1E+10	1	-1E+10	1	-1E+10	1	-1E+10	1	-1E+10	1	-1E+10	1
4901784	77	C	08/13/2017	10:44	-132.853	43.629	0	312.30	0	5.9740	0	34.0290	4	26.792	0	309.570	0	79.0	4	26.1	4	-1E+10	1	-1E+10	1	-1E+10	1	-1E+10	1	-1E+10	1	-1E+10	1
4901784	77	C	08/13/2017	10:44	-132.853	43.629	0	315.10	0	5.9650	0	34.0360	4	26.799	0	312.344	0	77.4	4	25.6	4	-1E+10	1	-1E+10	1	-1E+10	1	-1E+10	1	-1E+10	1	-1E+10	1
4901784	77	C	08/13/2017	10:44	-132.853	43.629	0	316.90	0	5.9650	0	34.0410	4	26.803	0	314.126	0	76.4	4	25.2	4	-1E+10	1	-1E+10	1	-1E+10	1	-1E+10	1	-1E+10	1	-1E+10	1
4901784	77	C	08/13/2017	10:44	-132.853	43.629	0	319.70	0	5.9290	0	34.0410	4	26.807	0	316.900	0	76.5	4	25.2	4	-1E+10	1	-1E+10	1	-1E+10	1	-1E+10	1	-1E+10	1	-1E+10	1
4901784	77	C	08/13/2017	10:44	-132.853	43.629	0	322.50	0	5.8920	0	34.0400	4	26.811	0	319.673	0	76.6	4	25.3	4	-1E+10	1	-1E+10	1	-1E+10	1	-1E+10	1	-1E+10	1	-1E+10	1
4901784	77	C	08/13/2017	10:44	-132.853	43.629	0	324.40	0	5.8860	0	34.0390	4	26.811	0	321.555	0	76.7	4	25.3	4	-1E+10	1	-1E+10	1	-1E+10	1	-1E+10	1	-1E+10	1	-1E+10	1
4901784	77	C	08/13/2017	10:44	-132.853	43.629	0	327.50	0	5.8800	0	34.0390	4	26.812	0	324.625	0	77.7	4	25.6	4	-1E+10	1	-1E+10	1	-1E+10	1	-1E+10	1	-1E+10	1	-1E+10	1
4901784	77	C	08/13/2017	10:44	-132.853	43.629	0	330.20	0	5.8460	0	34.0320	4	26.811	0	327.300	0	79.6	4	26.2	4	-1E+10	1	-1E+10	1	-1E+10	1	-1E+10	1	-1E+10	1	-1E+10	1
4901784	77	C	08/13/2017	10:44	-132.853	43.629	0	332.60	0	5.7300	0	34.0210	4	26.816	0	329.677	0	82.1	4	27.0	4	-1E+10	1	-1E+10	1	-1E+10	1	-1E+10	1	-1E+10	1	-1E+10	1
4901784	77	C	08/13/2017	10:44	-132.853	43.629	0	335.00	0	5.5900	0	34.0090	4	26.824	0	332.054	0	81.9	4	26.8	4	-1E+10	1	-1E+10	1	-1E+10	1	-1E+10	1	-1E+10	1	-1E+10	1
4901784	77	C	08/13/2017	10:44	-132.853	43.629	0	337.40	0	5.6330	0	34.0180	4	26.826	0	334.431	0	77.9	4	25.5	4	-1E+10	1	-1E+10	1	-1E+10	1	-1E+10	1	-1E+10	1	-1E+10	1
4901784	77	C	08/13/2017	10:44	-132.853	43.629	0	339.70	0	5.7210	0	34.0350	4	26.828	0	336.708	0	75.5	4	24.8	4	-1E+10	1	-1E+10	1	-1E+10	1	-1E+10	1	-1E+10	1	-1E+10	1
4901784	77	C	08/13/2017	10:44	-132.853	43.629	0	342.10	0	5.6550	0	34.0340	4	26.836	0	339.085	0	76.2	4	25.0	4	-1E+10	1	-1E+10	1	-1E+10	1	-1E+10	1	-1E+10	1	-1E+10	1
4901784	77	C	08/13/2017	10:44	-132.853	43.629	0	345.30	0	5.5650	0	34.0250	4	26.839	0	342.254	0	77.3	4	25.3	4	-1E+10	1	-1E+10	1	-1E+10	1	-1E+10	1	-1E+10	1	-1E+10	1
4901784	77	C	08/13/2017	10:44	-132.853	43.629	0	347.80	0	5.5320	0	34.0230	4	26.842	0	344.730	0	77.2	4	25.2	4	-1E+10	1	-1E+10	1	-1E+10	1	-1E+10	1	-1E+10	1	-1E+10	1
4901784	77	C	08/13/2017	10:44	-132.853	43.629	0	350.30	0	5.5230	0	34.0240	4	26.844	0	347.206	0	77.2	4	25.2	4	-1E+10	1	-1E+10	1	-1E+10	1	-1E+10	1	-1E+10	1	-1E+10	1
4901784	77	C	08/13/2017	10:44	-132.853	43.629	0	352.70	0	5.5070	0	34.0240	4	26.846	0	349.583	0	77.7	4	25.4	4	-1E+10	1	-1E+10	1	-1E+10	1	-1E+10	1	-1E+10	1	-1E+10	1
4901784	77	C	08/13/2017	10:44	-132.853	43.629	0	355.20	0	5.4650	0	34.0200	4	26.848	0	352.059	0	78.5	4	25.6	4	-1E+10	1	-1E+10	1	-1E+10	1	-1E+10	1	-1E+10	1	-1E+10	1
4901784	77	C	08/13/2017	10:44	-132.853	43.629	0	357.80	0	5.4250	0	34.0150	4	26.848	0	354.634	0	78.8	4	25.7	4	-1E+10	1	-1E+10	1	-1E+10	1	-1E+10	1	-1E+10	1	-1E+10	1
4901784	77	C	08/13/2017	10:44	-132.853	43.629	0	360.30	0	5.3720	0	34.0120	4	26.852	0	357.109	0	78.6	4	25.6	4	-1E+10	1	-1E+10	1	-1E+10	1	-1E+10	1	-1E+10	1	-1E+10	1
4901784	77	C	08/13/2017	10:44	-132.853	43.629	0	362.80	0	5.3430	0	34.0120	4	26.856	0	359.585	0	77.4	4	25.2	4	-1E+10	1	-1E+10	1	-1E+10	1	-1E+10	1	-1E+10	1	-1E+10	1
4901784	77	C	08/13/2017	10:44	-132.853	43.629	0	365.30	0	5.3590	0	34.0160	4	26.857	0	362.061	0	75.9	4	24.7	4	-1E+10	1	-1E+10	1	-1E+10	1	-1E+10	1	-1E+10	1	-1E+10	1
4901784	77	C	08/13/2017	10:44	-132.853	43.629	0	367.90	0	5.3760	0	34.0220	4	26.860	0	364.635	0	75.2	4	24.5	4	-1E+10	1	-1E+10	1	-1E+10	1	-1E+10	1	-1E+10	1	-1E+10	1
4901784	77	C	08/13/2017	10:44	-132.853	43.629	0	370.40	0	5.3730	0	34.0220	4	26.860	0	367.111	0	74.9	4	24.4	4	-1E+10	1	-1E+10	1	-1E+10	1	-1E+10	1	-1E+10	1	-1E+10	1
4901784	77	C	08/13/2017	10:44	-132.853	43.629	0	372.90	0	5.3460	0	34.0200	4	26.862	0	369.586	0	74.6	4	24.3	4	-1E+10	1	-1E+10	1	-1E+10	1	-1E+10	1	-1E+10	1	-1E+10	1
4901784	77	C	08/13/2017	10:44	-132.853	43.629	0	374.60	0	5.3220	0	34.0190	4	26.864	0	371.270	0	74.3	4	24.2	4	-1E+10	1	-1E+10	1	-1E+10	1	-1E+10	1	-1E+10	1	-1E+10	1
4901784	77	C	08/13/2017	10:44	-132.853	43.629	0	377.20	0	5.2750	0	34.0180	4	26.869	0	373.844	0	73.7	4	24.0	4	-1E+10	1	-1E+10	1	-1E+10	1	-1E+10	1	-1E+10	1	-1E+10	1
4901784	77	C	08/13/2017	10:44	-132.853	43.629	0	379.70	0	5.2550	0	34.0190	4	26.872	0	376.320	0	72.4	4	23.5	4	-1E+10	1	-1E+10	1	-1E+10	1	-1E+10	1	-1E+10	1	-1E+10	1
4901784	77	C	08/13/2017	10:44	-132.853	43.629	0	382.20	0	5.2690	0	34.0220	4	26.872	0	378.795	0	70.4	4	22.9	4	-1E+10	1	-1E+10	1	-1E+10	1	-1E+10	1	-1E+10	1	-1E+10	1
4901784	77	C	08/13/2017	10:44	-132.853	43.629	0	384.80	0	5.2980	0	34.0340	4	26.879	0	381.370	0	69.0	4	22.4	4	-1E+10	1	-1E+10	1	-1E+10	1	-1E+10	1	-1E+10	1	-1E+10	1
4901784	77	C	08/13/2017	10:44	-132.853	43.629	0	387.50	0	5.2980	0	34.0350	4	26.879	0	384.043	0	67.9	4	22.1	4	-1E+10	1	-1E+10	1	-1E+10	1	-1E+10	1	-1E+10	1	-1E+10	1
4901784	77	C	08/13/2017	10:44	-132.853	43.629	0	390.10	0	5.3330	0	34.0420	4	26.881	0	386.618	0	66.5	4	21.7	4	-1E+10	1	-1E+10	1	-1E+10	1	-1E+10	1	-1E+10	1	-1E+10	1
4901784	77	C	08/13/2017	10:44	-132.853	43.629	0	392.60	0	5.3580	0	34.0450	4	26.880	0	389.093	0	66.0	4	21.5	4	-1E+10	1	-1E+10	1	-1E+10	1	-1E+10	1	-1E+10	1	-1E+10	1
4901784	77	C	08/13/2017	10:44	-132.853	43.629	0	395.30	0	5.3210	0	34.0430	4	26.883	0	391.766	0	65.6	4	21.4	4	-1E+10	1	-1E+10	1	-1E+10	1	-1E+10	1	-1E+10	1	-1E+10	1
4901784	77	C	08/13/2017	10:44	-132.853	43.629	0	397.00	0	5.2890	0	34.0440	4	26.888	0	393.449	0	65.0	4	21.1	4	-1E+10	1	-1E+10	1	-1E+10	1	-1E+10	1	-1E+10	1	-1E+10	1
4901784	77	C	08/13/2017	10:44	-132.853	43.629	0	399.70	0	5.3080	0	34.0480	4	26.889	0	396.123	0	64.1	4	20.8	4	-1E+10	1	-1E+10	1	-1E+10	1	-1E+10	1	-1E+10	1	-1E+10	1
4901784	77	C	08/13/2017	10:44	-132.853	43.629	0	402.30	0	5.3070	0	34.0500	4	26.890	0	398.697	0	63.4	4	20.6	4	-1E+10	1	-1E+10	1	-1E+10	1	-1E+10	1	-1E+10	1	-1E+10	1
4901784	77	C	08/13/2017	10:44	-132.853	43.629	0	404.90	0	5.3090	0	34.0510	4	26.891	0	401.271	0	63.2	4	20.6	4	-1E+10	1	-1E+10	1	-1E+10	1	-1E+10	1	-1E+10	1	-1E+10	1
4901784	77	C	08/13/2017	10:44	-132.853	43.629	0	407.60	0	5.2470	0	34.0490	4	26.897	0	403.944	0	63.0	4	20.5	4	-1E+10	1	-1E+10	1	-1E+10	1	-1E+10	1	-1E+10	1	-1E+10	1
4901784	77	C	08/13/2017	10:44	-132.853	43.629	0	410.20	0	5.2270	0	34.0500	4	26.900	0	406.518	0	62.3	4	20.2	4	-1E+10	1	-1E+10	1	-1E+10	1	-1E+10	1	-1E+10	1	-1E+10	1
4901784	77	C	08/13/2017	10:44	-132.853	43.629	0	412.90	0	5.2190	0	34.0580	4	26.907	0	409.192	0	62.1	4	20.2	4	-1E+10	1	-1E+10	1	-1E+10	1	-1E+10	1	-1E+10	1	-1E+10	1
4901784	77	C	08/13/2017	10:44	-132.853	43.629	0	414.60	0	5.1720	0	34.0500	4	26.906	0	410.875	0	62.1	4	20.2	4	-1E+10	1	-1E+10	1	-1E+10	1	-1E+10	1	-1E+10	1	-1E+10	1
4901784	77	C	08/13/2017	10:44	-132.853	43.629	0	417.30	0	5.1450	0	34.0490	4	26.909	0	413.548	0	61.9	4	20.1	4	-1E+10	1	-1E+10	1	-1E+10	1	-1E+10	1	-1E+10	1	-1E+10	1
4901784	77	C	08/13/2017	10:44	-132.853	43.629	0	420.00	0	5.1250	0	34.0500	4	26.912	0	416.221	0	61.5	4	19.9	4	-1E+10	1	-1E+10	1	-1E+10	1	-1E+10	1	-1E+10	1	-1E+10	1
4901784	77	C	08/13/2017	10:44	-132.853	43.629	0	422.70	0	5.1090	0	34.0510	4	26.914	0	418.894	0	61.2	4	19.8	4	-1E+10	1	-1E+10	1	-1E+10	1	-1E+10	1	-1E+10	1	-1E+10	1
4901784	77	C	08/13/2017	10:44	-132.853	43.629	0	425.30	0	5.0760	0	34.0490	4	26.917	0	421.468	0	60.7	4	19.6	4	-1E+10	1	-1E+10	1	-1E+10	1	-1E+10	1	-1E+10	1	-1E+10	1
4901784	77	C	08/13/2017	10:44	-132.853	43.629	0	427.10	0	5.0730	0	34.0510	4	26.919	0	423.250	0	60.1	4	19.5	4	-1E+10	1	-1E+10	1	-1E+10	1	-1E+10	1	-1E+10	1	-1E+10	1
4901784	77	C	08/13/2017	10:44	-132.853	43.629	0	429.80	0	5.0930	0	34.0550	4	26.919	0	425.922	0	59.2	4	19.2	4	-1E+10	1	-1E+10	1	-1E+10	1	-1E+10	1	-1E+10	1	-1E+10	1
4901784	77	C	08/13/2017	10:44	-132.853	43.629	0	432.50	0	5.0930	0	34.0550	4	26.919	0	428.595	0	58.7	4	19.0	4	-1E+10	1	-1E+10	1	-1E+10	1	-1E+10	1	-1E+10	1	-1E+10	1
4901784	77	C	08/13/2017	10:44	-132.853	43.629	0	435.20	0	5.0050	0	34.0540	4	26.929	0	431.268	0	58.0	4	18.7	4	-1E+10	1	-1E+10	1	-1E+10	1	-1E+10	1	-1E+10	1	-1E+10	1
4901784	77	C	08/13/2017	10:44	-132.853	43.629	0	437.90	0	5.0020	0	34.0580	4	26.932	0	433.941	0	57.0	4	18.4	4	-1E+10	1	-1E+10	1	-1E+10	1	-1E+10	1	-1E+10	1	-1E+10	1
4901784	77	C	08/13/2017	10:44	-132.853	43.629	0	439.70	0	5.0050	0	34.0600	4	26.934	0	435.723	0	56.3	4	18.2	4	-1E+10	1	-1E+10	1	-1E+10	1	-1E+10	1	-1E+10	1	-1E+10	1
4901784	77	C	08/13/2017	10:44	-132.853	43.629	0	442.40	0	5.0180	0	34.0630	4	26.934	0	438.395	0	55.2	4	17.9	4	-1E+10	1	-1E+10	1	-1E+10	1	-1E+10	1	-1E+10	1	-1E+10	1
4901784	77	C	08/13/2017	10:44	-132.853	43.629	0	445.10	0	4.9850	0	34.0660	4	26.941	0	441.068	0	54.3	4	17.5	4	-1E+10	1	-1E+10	1	-1E+10	1	-1E+10	1	-1E+10	1	-1E+10	1
4901784	77	C	08/13/2017	10:44	-132.853	43.629	0	447.80	0	4.9860	0	34.0710	4	26.944	0	443.741	0	53.3	4	17.2	4	-1E+10	1	-1E+10	1	-1E+10	1	-1E+10	1	-1E+10	1	-1E+10	1
4901784	77	C	08/13/2017	10:44	-132.853	43.629	0	450.50	0	4.9860	0	34.0740	4	26.947	0	446.413	0	52.6	4	17.0	4	-1E+10	1	-1E+10	1	-1E+10	1	-1E+10	1	-1E+10	1	-1E+10	1
4901784	77	C	08/13/2017	10:44	-132.853	43.629	0	452.40	0	4.9670	0	34.0750	4	26.950	0	448.294	0	52.3	4	16.9	4	-1E+10	1	-1E+10	1	-1E+10	1	-1E+10	1	-1E+10	1	-1E+10	1
4901784	77	C	08/13/2017	10:44	-132.853	43.629	0	455.10	0	4.9490	0	34.0760	4	26.953	0	450.967	0	51.6	4	16.7	4	-1E+10	1	-1E+10	1	-1E+10	1	-1E+10	1	-1E+10	1	-1E+10	1
4901784	77	C	08/13/2017	10:44	-132.853	43.629	0	457.80	0	4.9360	0	34.0770	4	26.955	0	453.639	0	50.8	4	16.4	4	-1E+10	1	-1E+10	1	-1E+10	1	-1E+10	1	-1E+10	1	-1E+10	1
4901784	77	C	08/13/2017	10:44	-132.853	43.629	0	459.70	0	4.9210	0	34.0780	4	26.957	0	455.520	0	50.2	4	16.2	4	-1E+10	1	-1E+10	1	-1E+10	1	-1E+10	1	-1E+10	1	-1E+10	1
4901784	77	C	08/13/2017	10:44	-132.853	43.629	0	462.40	0	4.9010	0	34.0820	4	26.963	0	458.192	0	49.3	4	15.9	4	-1E+10	1	-1E+10	1	-1E+10	1	-1E+10	1	-1E+10	1	-1E+10	1
4901784	77	C	08/13/2017	10:44	-132.853	43.629	0	465.20	0	4.8770	0	34.0860	4	26.969	0	460.964	0	48.7	4	15.7	4	-1E+10	1	-1E+10	1	-1E+10	1	-1E+10	1	-1E+10	1	-1E+10	1
4901784	77	C	08/13/2017	10:44	-132.853	43.629	0	467.10	0	4.8650	0	34.0890	4	26.973	0	462.844	0	48.4	4	15.6	4	-1E+10	1	-1E+10	1	-1E+10	1	-1E+10	1	-1E+10	1	-1E+10	1
4901784	77	C	08/13/2017	10:44	-132.853	43.629	0	469.80	0	4.8650	0	34.0890	4	26.973	0	465.517	0	48.0	4	15.4	4	-1E+10	1	-1E+10	1	-1E+10	1	-1E+10	1	-1E+10	1	-1E+10	1
4901784	77	C	08/13/2017	10:44	-132.853	43.629	0	472.60	0	4.8570	0	34.0900	4	26.974	0	468.288	0	47.4	4	15.3	4	-1E+10	1	-1E+10	1	-1E+10	1	-1E+10	1	-1E+10	1	-1E+10	1
4901784	77	C	08/13/2017	10:44	-132.853	43.629	0	474.40	0	4.8530	0	34.0920	4	26.976	0	470.070	0	47.0	4	15.1	4	-1E+10	1	-1E+10	1	-1E+10	1	-1E+10	1	-1E+10	1	-1E+10	1
4901784	77	C	08/13/2017	10:44	-132.853	43.629	0	477.20	0	4.8500	0	34.0930	4	26.977	0	472.841	0	46.2	4	14.9	4	-1E+10	1	-1E+10	1	-1E+10	1	-1E+10	1	-1E+10	1	-1E+10	1
4901784	77	C	08/13/2017	10:44	-132.853	43.629	0	480.10	0	4.8500	0	34.0950	4	26.979	0	475.711	0	45.1	4	14.5	4	-1E+10	1	-1E+10	1	-1E+10	1	-1E+10	1	-1E+10	1	-1E+10	1
4901784	77	C	08/13/2017	10:44	-132.853	43.629	0	482.00	0	4.8710	0	34.1010	4	26.982	0	477.591	0	44.3	4	14.3	4	-1E+10	1	-1E+10	1	-1E+10	1	-1E+10	1	-1E+10	1	-1E+10	1
4901784	77	C	08/13/2017	10:44	-132.853	43.629	0	484.80	0	4.8860	0	34.1070	4	26.985	0	480.363	0	43.8	4	14.1	4	-1E+10	1	-1E+10	1	-1E+10	1	-1E+10	1	-1E+10	1	-1E+10	1
4901784	77	C	08/13/2017	10:44	-132.853	43.629	0	487.60	0	4.8770	0	34.1060	4	26.985	0	483.134	0	43.6	4	14.1	4	-1E+10	1	-1E+10	1	-1E+10	1	-1E+10	1	-1E+10	1	-1E+10	1
4901784	77	C	08/13/2017	10:44	-132.853	43.629	0	489.50	0	4.8840	0	34.1080	4	26.986	0	485.014	0	43.5	4	14.0	4	-1E+10	1	-1E+10	1	-1E+10	1	-1E+10	1	-1E+10	1	-1E+10	1
4901784	77	C	08/13/2017	10:44	-132.853	43.629	0	492.30	0	4.8320	0	34.1060	4	26.990	0	487.785	0	43.5	4	14.0	4	-1E+10	1	-1E+10	1	-1E+10	1	-1E+10	1	-1E+10	1	-1E+10	1
4901784	77	C	08/13/2017	10:44	-132.853	43.629	0	495.10	0	4.7740	0	34.1060	4	26.996	0	490.556	0	42.9	4	13.8	4	-1E+10	1	-1E+10	1	-1E+10	1	-1E+10	1	-1E+10	1	-1E+10	1
4901784	77	C	08/13/2017	10:44	-132.853	43.629	0	497.00	0	4.7700	0	34.1070	4	26.998	0	492.437	0	42.5	4	13.7	4	-1E+10	1	-1E+10	1	-1E+10	1	-1E+10	1	-1E+10	1	-1E+10	1
4901784	77	C	08/13/2017	10:44	-132.853	43.629	0	499.90	0	4.7710	0	34.1080	4	26.998	0	495.306	0	42.0	4	13.5	4	-1E+10	1	-1E+10	1	-1E+10	1	-1E+10	1	-1E+10	1	-1E+10	1
4901784	77	C	08/13/2017	10:44	-132.853	43.629	0	504.70	0	4.7550	0	34.1110	4	27.003	0	500.057	0	40.5	4	13.0	4	-1E+10	1	-1E+10	1	-1E+10	1	-1E+10	1	-1E+10	1	-1E+10	1
4901784	77	C	08/13/2017	10:44	-132.853	43.629	0	510.40	0	4.7110	0	34.1190	4	27.014	0	505.697	0	38.5	4	12.4	4	-1E+10	1	-1E+10	1	-1E+10	1	-1E+10	1	-1E+10	1	-1E+10	1
4901784	77	C	08/13/2017	10:44	-132.853	43.629	0	515.10	0	4.6940	0	34.1240	4	27.020	0	510.348	0	36.5	4	11.7	4	-1E+10	1	-1E+10	1	-1E+10	1	-1E+10	1	-1E+10	1	-1E+10	1
4901784	77	C	08/13/2017	10:44	-132.853	43.629	0	519.80	0	4.7560	0	34.1420	4	27.027	0	514.999	0	33.6	4	10.8	4	-1E+10	1	-1E+10	1	-1E+10	1	-1E+10	1	-1E+10	1	-1E+10	1
4901784	77	C	08/13/2017	10:44	-132.853	43.629	0	525.40	0	4.8180	0	34.1530	4	27.029	0	520.540	0	32.7	4	10.5	4	-1E+10	1	-1E+10	1	-1E+10	1	-1E+10	1	-1E+10	1	-1E+10	1
4901784	77	C	08/13/2017	10:44	-132.853	43.629	0	530.00	0	4.7290	0	34.1500	4	27.037	0	525.092	0	32.7	4	10.5	4	-1E+10	1	-1E+10	1	-1E+10	1	-1E+10	1	-1E+10	1	-1E+10	1
4901784	77	C	08/13/2017	10:44	-132.853	43.629	0	534.80	0	4.7260	0	34.1540	4	27.040	0	529.841	0	31.6	4	10.1	4	-1E+10	1	-1E+10	1	-1E+10	1	-1E+10	1	-1E+10	1	-1E+10	1
4901784	77	C	08/13/2017	10:44	-132.853	43.629	0	540.40	0	4.7050	0	34.1570	4	27.045	0	535.382	0	30.8	4	9.9	4	-1E+10	1	-1E+10	1	-1E+10	1	-1E+10	1	-1E+10	1	-1E+10	1
4901784	77	C	08/13/2017	10:44	-132.853	43.629	0	545.10	0	4.6560	0	34.1570	4	27.050	0	540.032	0	29.7	4	9.5	4	-1E+10	1	-1E+10	1	-1E+10	1	-1E+10	1	-1E+10	1	-1E+10	1
4901784	77	C	08/13/2017	10:44	-132.853	43.629	0	549.80	0	4.6830	0	34.1690	4	27.057	0	544.683	0	27.8	4	8.9	4	-1E+10	1	-1E+10	1	-1E+10	1	-1E+10	1	-1E+10	1	-1E+10	1
4901784	77	C	08/13/2017	10:44	-132.853	43.629	0	555.40	0	4.6800	0	34.1810	4	27.067	0	550.223	0	26.3	4	8.5	4	-1E+10	1	-1E+10	1	-1E+10	1	-1E+10	1	-1E+10	1	-1E+10	1
4901784	77	C	08/13/2017	10:44	-132.853	43.629	0	560.20	0	4.6430	0	34.1850	4	27.074	0	554.972	0	26.0	4	8.3	4	-1E+10	1	-1E+10	1	-1E+10	1	-1E+10	1	-1E+10	1	-1E+10	1
4901784	77	C	08/13/2017	10:44	-132.853	43.629	0	564.90	0	4.5890	0	34.1840	4	27.079	0	559.622	0	25.7	4	8.2	4	-1E+10	1	-1E+10	1	-1E+10	1	-1E+10	1	-1E+10	1	-1E+10	1
4901784	77	C	08/13/2017	10:44	-132.853	43.629	0	570.60	0	4.5840	0	34.1920	4	27.086	0	565.261	0	24.8	4	7.9	4	-1E+10	1	-1E+10	1	-1E+10	1	-1E+10	1	-1E+10	1	-1E+10	1
4901784	77	C	08/13/2017	10:44	-132.853	43.629	0	575.30	0	4.5380	0	34.1920	4	27.091	0	569.910	0	24.9	4	8.0	4	-1E+10	1	-1E+10	1	-1E+10	1	-1E+10	1	-1E+10	1	-1E+10	1
4901784	77	C	08/13/2017	10:44	-132.853	43.629	0	580.00	0	4.4700	0	34.1890	4	27.096	0	574.560	0	24.6	4	7.9	4	-1E+10	1	-1E+10	1	-1E+10	1	-1E+10	1	-1E+10	1	-1E+10	1
4901784	77	C	08/13/2017	10:44	-132.853	43.629	0	584.80	0	4.4270	0	34.1930	4	27.104	0	579.308	0	23.7	4	7.6	4	-1E+10	1	-1E+10	1	-1E+10	1	-1E+10	1	-1E+10	1	-1E+10	1
4901784	77	C	08/13/2017	10:44	-132.853	43.629	0	589.60	0	4.4530	0	34.2010	4	27.108	0	584.056	0	22.6	4	7.2	4	-1E+10	1	-1E+10	1	-1E+10	1	-1E+10	1	-1E+10	1	-1E+10	1
4901784	77	C	08/13/2017	10:44	-132.853	43.629	0	594.30	0	4.4430	0	34.2090	4	27.115	0	588.705	0	22.0	4	7.0	4	-1E+10	1	-1E+10	1	-1E+10	1	-1E+10	1	-1E+10	1	-1E+10	1
4901784	77	C	08/13/2017	10:44	-132.853	43.629	0	599.10	0	4.4240	0	34.2120	4	27.120	0	593.453	0	21.7	4	6.9	4	-1E+10	1	-1E+10	1	-1E+10	1	-1E+10	1	-1E+10	1	-1E+10	1
4901784	77	C	08/13/2017	10:44	-132.853	43.629	0	604.60	0	4.3760	0	34.2130	4	27.126	0	598.894	0	21.6	4	6.9	4	-1E+10	1	-1E+10	1	-1E+10	1	-1E+10	1	-1E+10	1	-1E+10	1
4901784	77	C	08/13/2017	10:44	-132.853	43.629	0	609.50	0	4.3380	0	34.2140	4	27.130	0	603.740	0	21.3	4	6.8	4	-1E+10	1	-1E+10	1	-1E+10	1	-1E+10	1	-1E+10	1	-1E+10	1
4901784	77	C	08/13/2017	10:44	-132.853	43.629	0	614.40	0	4.3180	0	34.2170	4	27.135	0	608.587	0	20.8	4	6.6	4	-1E+10	1	-1E+10	1	-1E+10	1	-1E+10	1	-1E+10	1	-1E+10	1
4901784	77	C	08/13/2017	10:44	-132.853	43.629	0	619.20	0	4.2800	0	34.2220	4	27.143	0	613.334	0	20.6	4	6.6	4	-1E+10	1	-1E+10	1	-1E+10	1	-1E+10	1	-1E+10	1	-1E+10	1
4901784	77	C	08/13/2017	10:44	-132.853	43.629	0	624.20	0	4.2610	0	34.2250	4	27.147	0	618.280	0	20.3	4	6.5	4	-1E+10	1	-1E+10	1	-1E+10	1	-1E+10	1	-1E+10	1	-1E+10	1
4901784	77	C	08/13/2017	10:44	-132.853	43.629	0	629.20	0	4.2530	0	34.2280	4	27.151	0	623.225	0	20.0	4	6.4	4	-1E+10	1	-1E+10	1	-1E+10	1	-1E+10	1	-1E+10	1	-1E+10	1
4901784	77	C	08/13/2017	10:44	-132.853	43.629	0	634.20	0	4.2390	0	34.2310	4	27.155	0	628.170	0	19.7	4	6.3	4	-1E+10	1	-1E+10	1	-1E+10	1	-1E+10	1	-1E+10	1	-1E+10	1
4901784	77	C	08/13/2017	10:44	-132.853	43.629	0	639.20	0	4.2000	0	34.2340	4	27.161	0	633.115	0	19.6	4	6.2	4	-1E+10	1	-1E+10	1	-1E+10	1	-1E+10	1	-1E+10	1	-1E+10	1
4901784	77	C	08/13/2017	10:44	-132.853	43.629	0	644.30	0	4.1800	0	34.2390	4	27.167	0	638.158	0	19.0	4	6.0	4	-1E+10	1	-1E+10	1	-1E+10	1	-1E+10	1	-1E+10	1	-1E+10	1
4901784	77	C	08/13/2017	10:44	-132.853	43.629	0	649.40	0	4.1770	0	34.2430	4	27.171	0	643.202	0	18.4	4	5.8	4	-1E+10	1	-1E+10	1	-1E+10	1	-1E+10	1	-1E+10	1	-1E+10	1
4901784	77	C	08/13/2017	10:44	-132.853	43.629	0	654.50	0	4.1620	0	34.2490	4	27.177	0	648.245	0	18.0	4	5.7	4	-1E+10	1	-1E+10	1	-1E+10	1	-1E+10	1	-1E+10	1	-1E+10	1
4901784	77	C	08/13/2017	10:44	-132.853	43.629	0	659.60	0	4.1400	0	34.2530	4	27.183	0	653.288	0	17.8	4	5.6	4	-1E+10	1	-1E+10	1	-1E+10	1	-1E+10	1	-1E+10	1	-1E+10	1
4901784	77	C	08/13/2017	10:44	-132.853	43.629	0	664.70	0	4.1160	0	34.2560	4	27.187	0	658.331	0	17.5	4	5.6	4	-1E+10	1	-1E+10	1	-1E+10	1	-1E+10	1	-1E+10	1	-1E+10	1
4901784	77	C	08/13/2017	10:44	-132.853	43.629	0	669.90	0	4.1090	0	34.2600	4	27.191	0	663.473	0	17.2	4	5.4	4	-1E+10	1	-1E+10	1	-1E+10	1	-1E+10	1	-1E+10	1	-1E+10	1
4901784	77	C	08/13/2017	10:44	-132.853	43.629	0	675.00	0	4.0910	0	34.2640	4	27.196	0	668.516	0	16.8	4	5.3	4	-1E+10	1	-1E+10	1	-1E+10	1	-1E+10	1	-1E+10	1	-1E+10	1
4901784	77	C	08/13/2017	10:44	-132.853	43.629	0	680.20	0	4.0760	0	34.2680	4	27.201	0	673.658	0	16.4	4	5.2	4	-1E+10	1	-1E+10	1	-1E+10	1	-1E+10	1	-1E+10	1	-1E+10	1
4901784	77	C	08/13/2017	10:44	-132.853	43.629	0	685.40	0	4.0620	0	34.2730	4	27.207	0	678.799	0	16.0	4	5.1	4	-1E+10	1	-1E+10	1	-1E+10	1	-1E+10	1	-1E+10	1	-1E+10	1
4901784	77	C	08/13/2017	10:44	-132.853	43.629	0	690.70	0	4.0450	0	34.2790	4	27.213	0	684.040	0	15.6	4	4.9	4	-1E+10	1	-1E+10	1	-1E+10	1	-1E+10	1	-1E+10	1	-1E+10	1
4901784	77	C	08/13/2017	10:44	-132.853	43.629	0	695.10	0	4.0310	0	34.2830	4	27.218	0	688.390	0	15.4	4	4.9	4	-1E+10	1	-1E+10	1	-1E+10	1	-1E+10	1	-1E+10	1	-1E+10	1
4901784	77	C	08/13/2017	10:44	-132.853	43.629	0	699.50	0	4.0170	0	34.2870	4	27.223	0	692.740	0	15.1	4	4.8	4	-1E+10	1	-1E+10	1	-1E+10	1	-1E+10	1	-1E+10	1	-1E+10	1
4901784	77	C	08/13/2017	10:44	-132.853	43.629	0	704.70	0	4.0080	0	34.2900	4	27.226	0	697.881	0	14.9	4	4.7	4	-1E+10	1	-1E+10	1	-1E+10	1	-1E+10	1	-1E+10	1	-1E+10	1
4901784	77	C	08/13/2017	10:44	-132.853	43.629	0	709.90	0	3.9960	0	34.2940	4	27.230	0	703.022	0	14.6	4	4.6	4	-1E+10	1	-1E+10	1	-1E+10	1	-1E+10	1	-1E+10	1	-1E+10	1
4901784	77	C	08/13/2017	10:44	-132.853	43.629	0	715.30	0	3.9840	0	34.2970	4	27.234	0	708.361	0	14.3	4	4.5	4	-1E+10	1	-1E+10	1	-1E+10	1	-1E+10	1	-1E+10	1	-1E+10	1
4901784	77	C	08/13/2017	10:44	-132.853	43.629	0	720.50	0	3.9600	0	34.3040	4	27.242	0	713.501	0	14.1	4	4.4	4	-1E+10	1	-1E+10	1	-1E+10	1	-1E+10	1	-1E+10	1	-1E+10	1
4901784	77	C	08/13/2017	10:44	-132.853	43.629	0	724.70	0	3.9490	0	34.3070	4	27.246	0	717.653	0	13.9	4	4.4	4	-1E+10	1	-1E+10	1	-1E+10	1	-1E+10	1	-1E+10	1	-1E+10	1
4901784	77	C	08/13/2017	10:44	-132.853	43.629	0	730.10	0	3.9350	0	34.3100	4	27.249	0	722.991	0	13.8	4	4.3	4	-1E+10	1	-1E+10	1	-1E+10	1	-1E+10	1	-1E+10	1	-1E+10	1
4901784	77	C	08/13/2017	10:44	-132.853	43.629	0	735.70	0	3.9230	0	34.3130	4	27.253	0	728.527	0	13.6	4	4.3	4	-1E+10	1	-1E+10	1	-1E+10	1	-1E+10	1	-1E+10	1	-1E+10	1
4901784	77	C	08/13/2017	10:44	-132.853	43.629	0	740.50	0	3.9100	0	34.3170	4	27.258	0	733.272	0	13.4	4	4.2	4	-1E+10	1	-1E+10	1	-1E+10	1	-1E+10	1	-1E+10	1	-1E+10	1
4901784	77	C	08/13/2017	10:44	-132.853	43.629	0	745.40	0	3.8980	0	34.3200	4	27.261	0	738.116	0	13.3	4	4.2	4	-1E+10	1	-1E+10	1	-1E+10	1	-1E+10	1	-1E+10	1	-1E+10	1
4901784	77	C	08/13/2017	10:44	-132.853	43.629	0	750.20	0	3.8900	0	34.3230	4	27.264	0	742.860	0	13.2	4	4.2	4	-1E+10	1	-1E+10	1	-1E+10	1	-1E+10	1	-1E+10	1	-1E+10	1
4901784	77	C	08/13/2017	10:44	-132.853	43.629	0	755.10	0	3.8840	0	34.3240	4	27.266	0	747.703	0	13.1	4	4.1	4	-1E+10	1	-1E+10	1	-1E+10	1	-1E+10	1	-1E+10	1	-1E+10	1
4901784	77	C	08/13/2017	10:44	-132.853	43.629	0	760.20	0	3.8680	0	34.3280	4	27.271	0	752.744	0	12.9	4	4.1	4	-1E+10	1	-1E+10	1	-1E+10	1	-1E+10	1	-1E+10	1	-1E+10	1
4901784	77	C	08/13/2017	10:44	-132.853	43.629	0	765.10	0	3.8520	0	34.3320	4	27.276	0	757.587	0	12.7	4	4.0	4	-1E+10	1	-1E+10	1	-1E+10	1	-1E+10	1	-1E+10	1	-1E+10	1
4901784	77	C	08/13/2017	10:44	-132.853	43.629	0	770.20	0	3.8410	0	34.3360	4	27.280	0	762.628	0	12.6	4	4.0	4	-1E+10	1	-1E+10	1	-1E+10	1	-1E+10	1	-1E+10	1	-1E+10	1
4901784	77	C	08/13/2017	10:44	-132.853	43.629	0	775.20	0	3.8310	0	34.3390	4	27.283	0	767.570	0	12.4	4	3.9	4	-1E+10	1	-1E+10	1	-1E+10	1	-1E+10	1	-1E+10	1	-1E+10	1
4901784	77	C	08/13/2017	10:44	-132.853	43.629	0	780.30	0	3.8180	0	34.3450	4	27.289	0	772.610	0	12.3	4	3.9	4	-1E+10	1	-1E+10	1	-1E+10	1	-1E+10	1	-1E+10	1	-1E+10	1
4901784	77	C	08/13/2017	10:44	-132.853	43.629	0	785.60	0	3.8160	0	34.3460	4	27.290	0	777.848	0	12.2	4	3.8	4	-1E+10	1	-1E+10	1	-1E+10	1	-1E+10	1	-1E+10	1	-1E+10	1
4901784	77	C	08/13/2017	10:44	-132.853	43.629	0	789.90	0	3.8120	0	34.3490	4	27.293	0	782.097	0	12.0	4	3.8	4	-1E+10	1	-1E+10	1	-1E+10	1	-1E+10	1	-1E+10	1	-1E+10	1
4901784	77	C	08/13/2017	10:44	-132.853	43.629	0	794.30	0	3.8090	0	34.3500	4	27.294	0	786.446	0	11.9	4	3.7	4	-1E+10	1	-1E+10	1	-1E+10	1	-1E+10	1	-1E+10	1	-1E+10	1
4901784	77	C	08/13/2017	10:44	-132.853	43.629	0	799.60	0	3.8030	0	34.3550	4	27.299	0	791.683	0	11.7	4	3.7	4	-1E+10	1	-1E+10	1	-1E+10	1	-1E+10	1	-1E+10	1	-1E+10	1
4901784	77	C	08/13/2017	10:44	-132.853	43.629	0	805.00	0	3.7880	0	34.3600	4	27.305	0	797.019	0	11.6	4	3.7	4	-1E+10	1	-1E+10	1	-1E+10	1	-1E+10	1	-1E+10	1	-1E+10	1
4901784	77	C	08/13/2017	10:44	-132.853	43.629	0	810.30	0	3.7710	0	34.3640	4	27.309	0	802.257	0	11.5	4	3.6	4	-1E+10	1	-1E+10	1	-1E+10	1	-1E+10	1	-1E+10	1	-1E+10	1
4901784	77	C	08/13/2017	10:44	-132.853	43.629	0	814.80	0	3.7680	0	34.3670	4	27.312	0	806.703	0	11.4	4	3.6	4	-1E+10	1	-1E+10	1	-1E+10	1	-1E+10	1	-1E+10	1	-1E+10	1
4901784	77	C	08/13/2017	10:44	-132.853	43.629	0	819.50	0	3.7600	0	34.3690	4	27.315	0	811.347	0	11.4	4	3.6	4	-1E+10	1	-1E+10	1	-1E+10	1	-1E+10	1	-1E+10	1	-1E+10	1
4901784	77	C	08/13/2017	10:44	-132.853	43.629	0	825.00	0	3.7530	0	34.3720	4	27.318	0	816.782	0	11.3	4	3.6	4	-1E+10	1	-1E+10	1	-1E+10	1	-1E+10	1	-1E+10	1	-1E+10	1
4901784	77	C	08/13/2017	10:44	-132.853	43.629	0	830.60	0	3.7390	0	34.3760	4	27.322	0	822.315	0	11.2	4	3.5	4	-1E+10	1	-1E+10	1	-1E+10	1	-1E+10	1	-1E+10	1	-1E+10	1
4901784	77	C	08/13/2017	10:44	-132.853	43.629	0	835.50	0	3.7290	0	34.3790	4	27.326	0	827.157	0	11.2	4	3.5	4	-1E+10	1	-1E+10	1	-1E+10	1	-1E+10	1	-1E+10	1	-1E+10	1
4901784	77	C	08/13/2017	10:44	-132.853	43.629	0	839.90	0	3.7220	0	34.3810	4	27.328	0	831.504	0	11.1	4	3.5	4	-1E+10	1	-1E+10	1	-1E+10	1	-1E+10	1	-1E+10	1	-1E+10	1
4901784	77	C	08/13/2017	10:44	-132.853	43.629	0	844.60	0	3.7110	0	34.3840	4	27.332	0	836.148	0	11.1	4	3.5	4	-1E+10	1	-1E+10	1	-1E+10	1	-1E+10	1	-1E+10	1	-1E+10	1
4901784	77	C	08/13/2017	10:44	-132.853	43.629	0	850.10	0	3.6900	0	34.3890	4	27.338	0	841.581	0	11.1	4	3.5	4	-1E+10	1	-1E+10	1	-1E+10	1	-1E+10	1	-1E+10	1	-1E+10	1
4901784	77	C	08/13/2017	10:44	-132.853	43.629	0	855.70	0	3.6650	0	34.3940	4	27.344	0	847.114	0	11.1	4	3.5	4	-1E+10	1	-1E+10	1	-1E+10	1	-1E+10	1	-1E+10	1	-1E+10	1
4901784	77	C	08/13/2017	10:44	-132.853	43.629	0	860.60	0	3.6420	0	34.3980	4	27.350	0	851.955	0	11.2	4	3.5	4	-1E+10	1	-1E+10	1	-1E+10	1	-1E+10	1	-1E+10	1	-1E+10	1
4901784	77	C	08/13/2017	10:44	-132.853	43.629	0	865.60	0	3.6330	0	34.4000	4	27.352	0	856.894	0	11.2	4	3.5	4	-1E+10	1	-1E+10	1	-1E+10	1	-1E+10	1	-1E+10	1	-1E+10	1
4901784	77	C	08/13/2017	10:44	-132.853	43.629	0	870.60	0	3.6250	0	34.4020	4	27.355	0	861.834	0	11.2	4	3.5	4	-1E+10	1	-1E+10	1	-1E+10	1	-1E+10	1	-1E+10	1	-1E+10	1
4901784	77	C	08/13/2017	10:44	-132.853	43.629	0	875.60	0	3.6180	0	34.4040	4	27.357	0	866.773	0	11.2	4	3.5	4	-1E+10	1	-1E+10	1	-1E+10	1	-1E+10	1	-1E+10	1	-1E+10	1
4901784	77	C	08/13/2017	10:44	-132.853	43.629	0	880.70	0	3.6110	0	34.4060	4	27.359	0	871.811	0	11.2	4	3.5	4	-1E+10	1	-1E+10	1	-1E+10	1	-1E+10	1	-1E+10	1	-1E+10	1
4901784	77	C	08/13/2017	10:44	-132.853	43.629	0	885.70	0	3.6110	0	34.4060	4	27.359	0	876.750	0	11.2	4	3.5	4	-1E+10	1	-1E+10	1	-1E+10	1	-1E+10	1	-1E+10	1	-1E+10	1
4901784	77	C	08/13/2017	10:44	-132.853	43.629	0	890.80	0	3.6070	0	34.4070	4	27.360	0	881.788	0	11.2	4	3.5	4	-1E+10	1	-1E+10	1	-1E+10	1	-1E+10	1	-1E+10	1	-1E+10	1
4901784	77	C	08/13/2017	10:44	-132.853	43.629	0	894.90	0	3.5950	0	34.4090	4	27.363	0	885.838	0	11.2	4	3.5	4	-1E+10	1	-1E+10	1	-1E+10	1	-1E+10	1	-1E+10	1	-1E+10	1
4901784	77	C	08/13/2017	10:44	-132.853	43.629	0	899.20	0	3.5910	0	34.4100	4	27.364	0	890.085	0	11.3	4	3.5	4	-1E+10	1	-1E+10	1	-1E+10	1	-1E+10	1	-1E+10	1	-1E+10	1
4901784	77	C	08/13/2017	10:44	-132.853	43.629	0	904.40	0	3.5850	0	34.4110	4	27.366	0	895.221	0	11.3	4	3.5	4	-1E+10	1	-1E+10	1	-1E+10	1	-1E+10	1	-1E+10	1	-1E+10	1
4901784	77	C	08/13/2017	10:44	-132.853	43.629	0	909.60	0	3.5630	0	34.4170	4	27.373	0	900.357	0	11.3	4	3.5	4	-1E+10	1	-1E+10	1	-1E+10	1	-1E+10	1	-1E+10	1	-1E+10	1
4901784	77	C	08/13/2017	10:44	-132.853	43.629	0	914.90	0	3.5470	0	34.4210	4	27.378	0	905.592	0	11.3	4	3.5	4	-1E+10	1	-1E+10	1	-1E+10	1	-1E+10	1	-1E+10	1	-1E+10	1
4901784	77	C	08/13/2017	10:44	-132.853	43.629	0	920.10	0	3.5340	0	34.4240	4	27.381	0	910.728	0	11.4	4	3.6	4	-1E+10	1	-1E+10	1	-1E+10	1	-1E+10	1	-1E+10	1	-1E+10	1
4901784	77	C	08/13/2017	10:44	-132.853	43.629	0	925.40	0	3.5200	0	34.4280	4	27.386	0	915.962	0	11.4	4	3.6	4	-1E+10	1	-1E+10	1	-1E+10	1	-1E+10	1	-1E+10	1	-1E+10	1
4901784	77	C	08/13/2017	10:44	-132.853	43.629	0	930.70	0	3.5110	0	34.4300	4	27.388	0	921.196	0	11.4	4	3.6	4	-1E+10	1	-1E+10	1	-1E+10	1	-1E+10	1	-1E+10	1	-1E+10	1
4901784	77	C	08/13/2017	10:44	-132.853	43.629	0	935.00	0	3.5040	0	34.4320	4	27.391	0	925.443	0	11.4	4	3.6	4	-1E+10	1	-1E+10	1	-1E+10	1	-1E+10	1	-1E+10	1	-1E+10	1
4901784	77	C	08/13/2017	10:44	-132.853	43.629	0	939.40	0	3.5030	0	34.4320	4	27.391	0	929.788	0	11.4	4	3.6	4	-1E+10	1	-1E+10	1	-1E+10	1	-1E+10	1	-1E+10	1	-1E+10	1
4901784	77	C	08/13/2017	10:44	-132.853	43.629	0	944.90	0	3.4940	0	34.4340	4	27.393	0	935.220	0	11.5	4	3.6	4	-1E+10	1	-1E+10	1	-1E+10	1	-1E+10	1	-1E+10	1	-1E+10	1
4901784	77	C	08/13/2017	10:44	-132.853	43.629	0	950.20	0	3.4850	0	34.4360	4	27.396	0	940.453	0	11.6	4	3.6	4	-1E+10	1	-1E+10	1	-1E+10	1	-1E+10	1	-1E+10	1	-1E+10	1
4901784	77	C	08/13/2017	10:44	-132.853	43.629	0	955.40	0	3.4620	0	34.4430	4	27.404	0	945.588	0	11.8	4	3.7	4	-1E+10	1	-1E+10	1	-1E+10	1	-1E+10	1	-1E+10	1	-1E+10	1
4901784	77	C	08/13/2017	10:44	-132.853	43.629	0	960.70	0	3.4480	0	34.4470	4	27.408	0	950.822	0	11.8	4	3.7	4	-1E+10	1	-1E+10	1	-1E+10	1	-1E+10	1	-1E+10	1	-1E+10	1
4901784	77	C	08/13/2017	10:44	-132.853	43.629	0	965.00	0	3.4400	0	34.4500	4	27.411	0	955.068	0	11.9	4	3.7	4	-1E+10	1	-1E+10	1	-1E+10	1	-1E+10	1	-1E+10	1	-1E+10	1
4901784	77	C	08/13/2017	10:44	-132.853	43.629	0	969.30	0	3.4330	0	34.4510	4	27.413	0	959.314	0	11.9	4	3.7	4	-1E+10	1	-1E+10	1	-1E+10	1	-1E+10	1	-1E+10	1	-1E+10	1
4901784	77	C	08/13/2017	10:44	-132.853	43.629	0	974.50	0	3.4240	0	34.4530	4	27.415	0	964.448	0	12.0	4	3.7	4	-1E+10	1	-1E+10	1	-1E+10	1	-1E+10	1	-1E+10	1	-1E+10	1
4901784	77	C	08/13/2017	10:44	-132.853	43.629	0	979.60	0	3.4090	0	34.4570	4	27.420	0	969.484	0	12.1	4	3.8	4	-1E+10	1	-1E+10	1	-1E+10	1	-1E+10	1	-1E+10	1	-1E+10	1
4901784	77	C	08/13/2017	10:44	-132.853	43.629	0	984.90	0	3.3930	0	34.4610	4	27.425	0	974.717	0	12.2	4	3.8	4	-1E+10	1	-1E+10	1	-1E+10	1	-1E+10	1	-1E+10	1	-1E+10	1
4901784	77	C	08/13/2017	10:44	-132.853	43.629	0	990.10	0	3.3810	0	34.4640	4	27.428	0	979.851	0	12.3	4	3.8	4	-1E+10	1	-1E+10	1	-1E+10	1	-1E+10	1	-1E+10	1	-1E+10	1
4901784	77	C	08/13/2017	10:44	-132.853	43.629	0	995.40	0	3.3740	0	34.4660	4	27.431	0	985.084	0	12.4	4	3.9	4	-1E+10	1	-1E+10	1	-1E+10	1	-1E+10	1	-1E+10	1	-1E+10	1
4901784	77	C	08/13/2017	10:44	-132.853	43.629	0	1000.70	0	3.3620	0	34.4690	4	27.434	0	990.316	0	12.6	4	3.9	4	-1E+10	1	-1E+10	1	-1E+10	1	-1E+10	1	-1E+10	1	-1E+10	1
4901784	77	C	08/13/2017	10:44	-132.853	43.629	0	1005.20	0	3.3580	0	34.4710	4	27.436	0	994.759	0	12.7	4	3.9	4	-1E+10	1	-1E+10	1	-1E+10	1	-1E+10	1	-1E+10	1	-1E+10	1
4901784	77	C	08/13/2017	10:44	-132.853	43.629	0	1009.70	0	3.3520	0	34.4720	4	27.438	0	999.201	0	12.7	4	4.0	4	-1E+10	1	-1E+10	1	-1E+10	1	-1E+10	1	-1E+10	1	-1E+10	1
4901784	77	C	08/13/2017	10:44	-132.853	43.629	0	1015.10	0	3.3380	0	34.4750	4	27.441	0	1004.532	0	12.9	4	4.0	4	-1E+10	1	-1E+10	1	-1E+10	1	-1E+10	1	-1E+10	1	-1E+10	1
4901784	77	C	08/13/2017	10:44	-132.853	43.629	0	1020.50	0	3.3300	0	34.4770	4	27.444	0	1009.863	0	13.0	4	4.0	4	-1E+10	1	-1E+10	1	-1E+10	1	-1E+10	1	-1E+10	1	-1E+10	1
4901784	77	C	08/13/2017	10:44	-132.853	43.629	0	1025.00	0	3.3240	0	34.4800	4	27.447	0	1014.305	0	13.1	4	4.1	4	-1E+10	1	-1E+10	1	-1E+10	1	-1E+10	1	-1E+10	1	-1E+10	1
4901784	77	C	08/13/2017	10:44	-132.853	43.629	0	1029.50	0	3.3200	0	34.4810	4	27.448	0	1018.747	0	13.2	4	4.1	4	-1E+10	1	-1E+10	1	-1E+10	1	-1E+10	1	-1E+10	1	-1E+10	1
4901784	77	C	08/13/2017	10:44	-132.853	43.629	0	1034.90	0	3.3110	0	34.4820	4	27.450	0	1024.078	0	13.3	4	4.1	4	-1E+10	1	-1E+10	1	-1E+10	1	-1E+10	1	-1E+10	1	-1E+10	1
4901784	77	C	08/13/2017	10:44	-132.853	43.629	0	1040.30	0	3.2980	0	34.4860	4	27.454	0	1029.408	0	13.6	4	4.2	4	-1E+10	1	-1E+10	1	-1E+10	1	-1E+10	1	-1E+10	1	-1E+10	1
4901784	77	C	08/13/2017	10:44	-132.853	43.629	0	1044.80	0	3.3000	0	34.4890	4	27.456	0	1033.850	0	13.8	4	4.3	4	-1E+10	1	-1E+10	1	-1E+10	1	-1E+10	1	-1E+10	1	-1E+10	1
4901784	77	C	08/13/2017	10:44	-132.853	43.629	0	1049.40	0	3.2900	0	34.4890	4	27.457	0	1038.390	0	13.7	4	4.3	4	-1E+10	1	-1E+10	1	-1E+10	1	-1E+10	1	-1E+10	1	-1E+10	1
4901784	77	C	08/13/2017	10:44	-132.853	43.629	0	1054.90	0	3.2760	0	34.4900	4	27.459	0	1043.819	0	13.8	4	4.3	4	-1E+10	1	-1E+10	1	-1E+10	1	-1E+10	1	-1E+10	1	-1E+10	1
4901784	77	C	08/13/2017	10:44	-132.853	43.629	0	1060.40	0	3.2760	0	34.4920	4	27.461	0	1049.247	0	14.1	4	4.4	4	-1E+10	1	-1E+10	1	-1E+10	1	-1E+10	1	-1E+10	1	-1E+10	1
4901784	77	C	08/13/2017	10:44	-132.853	43.629	0	1065.00	0	3.2780	0	34.4940	4	27.462	0	1053.787	0	14.3	4	4.4	4	-1E+10	1	-1E+10	1	-1E+10	1	-1E+10	1	-1E+10	1	-1E+10	1
4901784	77	C	08/13/2017	10:44	-132.853	43.629	0	1069.50	0	3.2750	0	34.4960	4	27.464	0	1058.229	0	14.5	4	4.5	4	-1E+10	1	-1E+10	1	-1E+10	1	-1E+10	1	-1E+10	1	-1E+10	1
4901784	77	C	08/13/2017	10:44	-132.853	43.629	0	1075.00	0	3.2780	0	34.4970	4	27.465	0	1063.657	0	14.8	4	4.6	4	-1E+10	1	-1E+10	1	-1E+10	1	-1E+10	1	-1E+10	1	-1E+10	1
4901784	77	C	08/13/2017	10:44	-132.853	43.629	0	1080.50	0	3.2720	0	34.4990	4	27.467	0	1069.085	0	14.9	4	4.6	4	-1E+10	1	-1E+10	1	-1E+10	1	-1E+10	1	-1E+10	1	-1E+10	1
4901784	77	C	08/13/2017	10:44	-132.853	43.629	0	1085.70	0	3.2700	0	34.5000	4	27.468	0	1074.216	0	15.0	4	4.7	4	-1E+10	1	-1E+10	1	-1E+10	1	-1E+10	1	-1E+10	1	-1E+10	1
4901784	77	C	08/13/2017	10:44	-132.853	43.629	0	1089.80	0	3.2630	0	34.5010	4	27.470	0	1078.263	0	15.0	4	4.7	4	-1E+10	1	-1E+10	1	-1E+10	1	-1E+10	1	-1E+10	1	-1E+10	1
4901784	77	C	08/13/2017	10:44	-132.853	43.629	0	1094.40	0	3.2510	0	34.5020	4	27.472	0	1082.802	0	15.0	4	4.7	4	-1E+10	1	-1E+10	1	-1E+10	1	-1E+10	1	-1E+10	1	-1E+10	1
4901784	77	C	08/13/2017	10:44	-132.853	43.629	0	1100.00	0	3.2400	0	34.5030	4	27.473	0	1088.328	0	15.1	4	4.7	4	-1E+10	1	-1E+10	1	-1E+10	1	-1E+10	1	-1E+10	1	-1E+10	1
4901784	77	C	08/13/2017	10:44	-132.853	43.629	0	1105.60	0	3.2320	0	34.5050	4	27.476	0	1093.854	0	15.2	4	4.7	4	-1E+10	1	-1E+10	1	-1E+10	1	-1E+10	1	-1E+10	1	-1E+10	1
4901784	77	C	08/13/2017	10:44	-132.853	43.629	0	1110.30	0	3.2260	0	34.5060	4	27.477	0	1098.492	0	15.2	4	4.7	4	-1E+10	1	-1E+10	1	-1E+10	1	-1E+10	1	-1E+10	1	-1E+10	1
4901784	77	C	08/13/2017	10:44	-132.853	43.629	0	1115.20	0	3.2170	0	34.5060	4	27.478	0	1103.327	0	15.3	4	4.7	4	-1E+10	1	-1E+10	1	-1E+10	1	-1E+10	1	-1E+10	1	-1E+10	1
4901784	77	C	08/13/2017	10:44	-132.853	43.629	0	1120.30	0	3.2080	0	34.5080	4	27.481	0	1108.359	0	15.4	4	4.8	4	-1E+10	1	-1E+10	1	-1E+10	1	-1E+10	1	-1E+10	1	-1E+10	1
4901784	77	C	08/13/2017	10:44	-132.853	43.629	0	1125.30	0	3.1980	0	34.5090	4	27.482	0	1113.293	0	15.5	4	4.8	4	-1E+10	1	-1E+10	1	-1E+10	1	-1E+10	1	-1E+10	1	-1E+10	1
4901784	77	C	08/13/2017	10:44	-132.853	43.629	0	1130.30	0	3.1940	0	34.5100	4	27.483	0	1118.226	0	15.5	4	4.8	4	-1E+10	1	-1E+10	1	-1E+10	1	-1E+10	1	-1E+10	1	-1E+10	1
4901784	77	C	08/13/2017	10:44	-132.853	43.629	0	1135.40	0	3.1870	0	34.5110	4	27.485	0	1123.258	0	15.6	4	4.8	4	-1E+10	1	-1E+10	1	-1E+10	1	-1E+10	1	-1E+10	1	-1E+10	1
4901784	77	C	08/13/2017	10:44	-132.853	43.629	0	1140.30	0	3.1790	0	34.5120	4	27.487	0	1128.092	0	15.7	4	4.9	4	-1E+10	1	-1E+10	1	-1E+10	1	-1E+10	1	-1E+10	1	-1E+10	1
4901784	77	C	08/13/2017	10:44	-132.853	43.629	0	1145.20	0	3.1700	0	34.5130	4	27.488	0	1132.927	0	15.8	4	4.9	4	-1E+10	1	-1E+10	1	-1E+10	1	-1E+10	1	-1E+10	1	-1E+10	1
4901784	77	C	08/13/2017	10:44	-132.853	43.629	0	1150.20	0	3.1620	0	34.5140	4	27.490	0	1137.860	0	15.8	4	4.9	4	-1E+10	1	-1E+10	1	-1E+10	1	-1E+10	1	-1E+10	1	-1E+10	1
4901784	77	C	08/13/2017	10:44	-132.853	43.629	0	1155.10	0	3.1580	0	34.5150	4	27.491	0	1142.694	0	15.9	4	4.9	4	-1E+10	1	-1E+10	1	-1E+10	1	-1E+10	1	-1E+10	1	-1E+10	1
4901784	77	C	08/13/2017	10:44	-132.853	43.629	0	1160.20	0	3.1470	0	34.5160	4	27.493	0	1147.725	0	16.0	4	4.9	4	-1E+10	1	-1E+10	1	-1E+10	1	-1E+10	1	-1E+10	1	-1E+10	1
4901784	77	C	08/13/2017	10:44	-132.853	43.629	0	1165.20	0	3.1390	0	34.5170	4	27.494	0	1152.658	0	16.0	4	5.0	4	-1E+10	1	-1E+10	1	-1E+10	1	-1E+10	1	-1E+10	1	-1E+10	1
4901784	77	C	08/13/2017	10:44	-132.853	43.629	0	1170.20	0	3.1280	0	34.5180	4	27.496	0	1157.590	0	16.1	4	5.0	4	-1E+10	1	-1E+10	1	-1E+10	1	-1E+10	1	-1E+10	1	-1E+10	1
4901784	77	C	08/13/2017	10:44	-132.853	43.629	0	1175.20	0	3.1190	0	34.5190	4	27.498	0	1162.522	0	16.2	4	5.0	4	-1E+10	1	-1E+10	1	-1E+10	1	-1E+10	1	-1E+10	1	-1E+10	1
4901784	77	C	08/13/2017	10:44	-132.853	43.629	0	1180.20	0	3.1080	0	34.5200	4	27.500	0	1167.454	0	16.3	4	5.1	4	-1E+10	1	-1E+10	1	-1E+10	1	-1E+10	1	-1E+10	1	-1E+10	1
4901784	77	C	08/13/2017	10:44	-132.853	43.629	0	1185.30	0	3.0900	0	34.5230	4	27.504	0	1172.485	0	16.5	4	5.1	4	-1E+10	1	-1E+10	1	-1E+10	1	-1E+10	1	-1E+10	1	-1E+10	1
4901784	77	C	08/13/2017	10:44	-132.853	43.629	0	1190.40	0	3.0820	0	34.5240	4	27.505	0	1177.516	0	16.6	4	5.1	4	-1E+10	1	-1E+10	1	-1E+10	1	-1E+10	1	-1E+10	1	-1E+10	1
4901784	77	C	08/13/2017	10:44	-132.853	43.629	0	1195.50	0	3.0740	0	34.5250	4	27.507	0	1182.546	0	16.7	4	5.2	4	-1E+10	1	-1E+10	1	-1E+10	1	-1E+10	1	-1E+10	1	-1E+10	1
4901784	77	C	08/13/2017	10:44	-132.853	43.629	0	1200.70	0	3.0700	0	34.5260	4	27.508	0	1187.675	0	16.9	4	5.2	4	-1E+10	1	-1E+10	1	-1E+10	1	-1E+10	1	-1E+10	1	-1E+10	1
4901784	77	C	08/13/2017	10:44	-132.853	43.629	0	1205.00	0	3.0650	0	34.5280	4	27.510	0	1191.916	0	17.0	4	5.3	4	-1E+10	1	-1E+10	1	-1E+10	1	-1E+10	1	-1E+10	1	-1E+10	1
4901784	77	C	08/13/2017	10:44	-132.853	43.629	0	1209.40	0	3.0600	0	34.5280	4	27.511	0	1196.256	0	17.1	4	5.3	4	-1E+10	1	-1E+10	1	-1E+10	1	-1E+10	1	-1E+10	1	-1E+10	1
4901784	77	C	08/13/2017	10:44	-132.853	43.629	0	1214.60	0	3.0470	0	34.5300	4	27.513	0	1201.385	0	17.2	4	5.3	4	-1E+10	1	-1E+10	1	-1E+10	1	-1E+10	1	-1E+10	1	-1E+10	1
4901784	77	C	08/13/2017	10:44	-132.853	43.629	0	1219.90	0	3.0330	0	34.5310	4	27.516	0	1206.612	0	17.3	4	5.4	4	-1E+10	1	-1E+10	1	-1E+10	1	-1E+10	1	-1E+10	1	-1E+10	1
4901784	77	C	08/13/2017	10:44	-132.853	43.629	0	1225.20	0	3.0260	0	34.5320	4	27.517	0	1211.839	0	17.4	4	5.4	4	-1E+10	1	-1E+10	1	-1E+10	1	-1E+10	1	-1E+10	1	-1E+10	1
4901784	77	C	08/13/2017	10:44	-132.853	43.629	0	1230.60	0	3.0190	0	34.5330	4	27.518	0	1217.164	0	17.5	4	5.4	4	-1E+10	1	-1E+10	1	-1E+10	1	-1E+10	1	-1E+10	1	-1E+10	1
4901784	77	C	08/13/2017	10:44	-132.853	43.629	0	1235.00	0	3.0130	0	34.5340	4	27.520	0	1221.504	0	17.8	4	5.5	4	-1E+10	1	-1E+10	1	-1E+10	1	-1E+10	1	-1E+10	1	-1E+10	1
4901784	77	C	08/13/2017	10:44	-132.853	43.629	0	1239.50	0	3.0150	0	34.5350	4	27.520	0	1225.941	0	18.3	4	5.7	4	-1E+10	1	-1E+10	1	-1E+10	1	-1E+10	1	-1E+10	1	-1E+10	1
4901784	77	C	08/13/2017	10:44	-132.853	43.629	0	1244.90	0	3.0210	0	34.5390	4	27.523	0	1231.266	0	18.6	4	5.8	4	-1E+10	1	-1E+10	1	-1E+10	1	-1E+10	1	-1E+10	1	-1E+10	1
4901784	77	C	08/13/2017	10:44	-132.853	43.629	0	1250.30	0	3.0010	0	34.5400	4	27.526	0	1236.591	0	18.6	4	5.8	4	-1E+10	1	-1E+10	1	-1E+10	1	-1E+10	1	-1E+10	1	-1E+10	1
4901784	77	C	08/13/2017	10:44	-132.853	43.629	0	1255.60	0	2.9790	0	34.5410	4	27.529	0	1241.818	0	18.5	4	5.7	4	-1E+10	1	-1E+10	1	-1E+10	1	-1E+10	1	-1E+10	1	-1E+10	1
4901784	77	C	08/13/2017	10:44	-132.853	43.629	0	1260.30	0	2.9740	0	34.5400	4	27.528	0	1246.452	0	18.6	4	5.7	4	-1E+10	1	-1E+10	1	-1E+10	1	-1E+10	1	-1E+10	1	-1E+10	1
4901784	77	C	08/13/2017	10:44	-132.853	43.629	0	1265.20	0	2.9660	0	34.5410	4	27.530	0	1251.284	0	18.9	4	5.8	4	-1E+10	1	-1E+10	1	-1E+10	1	-1E+10	1	-1E+10	1	-1E+10	1
4901784	77	C	08/13/2017	10:44	-132.853	43.629	0	1270.10	0	2.9630	0	34.5450	4	27.533	0	1256.115	0	19.5	4	6.0	4	-1E+10	1	-1E+10	1	-1E+10	1	-1E+10	1	-1E+10	1	-1E+10	1
4901784	77	C	08/13/2017	10:44	-132.853	43.629	0	1275.00	0	2.9590	0	34.5470	4	27.535	0	1260.947	0	19.7	4	6.1	4	-1E+10	1	-1E+10	1	-1E+10	1	-1E+10	1	-1E+10	1	-1E+10	1
4901784	77	C	08/13/2017	10:44	-132.853	43.629	0	1279.80	0	2.9580	0	34.5490	4	27.537	0	1265.679	0	20.0	4	6.2	4	-1E+10	1	-1E+10	1	-1E+10	1	-1E+10	1	-1E+10	1	-1E+10	1
4901784	77	C	08/13/2017	10:44	-132.853	43.629	0	1284.70	0	2.9530	0	34.5490	4	27.538	0	1270.510	0	20.0	4	6.2	4	-1E+10	1	-1E+10	1	-1E+10	1	-1E+10	1	-1E+10	1	-1E+10	1
4901784	77	C	08/13/2017	10:44	-132.853	43.629	0	1289.70	0	2.9470	0	34.5500	4	27.539	0	1275.440	0	20.2	4	6.2	4	-1E+10	1	-1E+10	1	-1E+10	1	-1E+10	1	-1E+10	1	-1E+10	1
4901784	77	C	08/13/2017	10:44	-132.853	43.629	0	1294.60	0	2.9510	0	34.5510	4	27.539	0	1280.271	0	20.4	4	6.3	4	-1E+10	1	-1E+10	1	-1E+10	1	-1E+10	1	-1E+10	1	-1E+10	1
4901784	77	C	08/13/2017	10:44	-132.853	43.629	0	1299.60	0	2.9440	0	34.5520	4	27.541	0	1285.200	0	20.5	4	6.3	4	-1E+10	1	-1E+10	1	-1E+10	1	-1E+10	1	-1E+10	1	-1E+10	1
4901784	77	C	08/13/2017	10:44	-132.853	43.629	0	1304.60	0	2.9320	0	34.5530	4	27.543	0	1290.130	0	20.6	4	6.3	4	-1E+10	1	-1E+10	1	-1E+10	1	-1E+10	1	-1E+10	1	-1E+10	1
4901784	77	C	08/13/2017	10:44	-132.853	43.629	0	1309.60	0	2.9210	0	34.5540	4	27.545	0	1295.059	0	20.8	4	6.4	4	-1E+10	1	-1E+10	1	-1E+10	1	-1E+10	1	-1E+10	1	-1E+10	1
4901784	77	C	08/13/2017	10:44	-132.853	43.629	0	1314.60	0	2.9130	0	34.5560	4	27.547	0	1299.988	0	21.2	4	6.5	4	-1E+10	1	-1E+10	1	-1E+10	1	-1E+10	1	-1E+10	1	-1E+10	1
4901784	77	C	08/13/2017	10:44	-132.853	43.629	0	1319.70	0	2.9070	0	34.5580	4	27.549	0	1305.016	0	21.3	4	6.6	4	-1E+10	1	-1E+10	1	-1E+10	1	-1E+10	1	-1E+10	1	-1E+10	1
4901784	77	C	08/13/2017	10:44	-132.853	43.629	0	1324.70	0	2.8950	0	34.5570	4	27.549	0	1309.944	0	21.3	4	6.6	4	-1E+10	1	-1E+10	1	-1E+10	1	-1E+10	1	-1E+10	1	-1E+10	1
4901784	77	C	08/13/2017	10:44	-132.853	43.629	0	1329.90	0	2.8800	0	34.5590	4	27.552	0	1315.070	0	21.5	4	6.6	4	-1E+10	1	-1E+10	1	-1E+10	1	-1E+10	1	-1E+10	1	-1E+10	1
4901784	77	C	08/13/2017	10:44	-132.853	43.629	0	1335.00	0	2.8760	0	34.5600	4	27.553	0	1320.097	0	21.7	4	6.7	4	-1E+10	1	-1E+10	1	-1E+10	1	-1E+10	1	-1E+10	1	-1E+10	1
4901784	77	C	08/13/2017	10:44	-132.853	43.629	0	1340.10	0	2.8650	0	34.5600	4	27.554	0	1325.124	0	21.7	4	6.7	4	-1E+10	1	-1E+10	1	-1E+10	1	-1E+10	1	-1E+10	1	-1E+10	1
4901784	77	C	08/13/2017	10:44	-132.853	43.629	0	1345.20	0	2.8540	0	34.5610	4	27.556	0	1330.151	0	21.9	4	6.8	4	-1E+10	1	-1E+10	1	-1E+10	1	-1E+10	1	-1E+10	1	-1E+10	1
4901784	77	C	08/13/2017	10:44	-132.853	43.629	0	1350.40	0	2.8440	0	34.5630	4	27.559	0	1335.277	0	22.2	4	6.8	4	-1E+10	1	-1E+10	1	-1E+10	1	-1E+10	1	-1E+10	1	-1E+10	1
4901784	77	C	08/13/2017	10:44	-132.853	43.629	0	1355.60	0	2.8360	0	34.5640	4	27.560	0	1340.402	0	22.3	4	6.9	4	-1E+10	1	-1E+10	1	-1E+10	1	-1E+10	1	-1E+10	1	-1E+10	1
4901784	77	C	08/13/2017	10:44	-132.853	43.629	0	1360.00	0	2.8190	0	34.5640	4	27.562	0	1344.739	0	22.4	4	6.9	4	-1E+10	1	-1E+10	1	-1E+10	1	-1E+10	1	-1E+10	1	-1E+10	1
4901784	77	C	08/13/2017	10:44	-132.853	43.629	0	1364.70	0	2.8140	0	34.5660	4	27.564	0	1349.371	0	22.7	4	7.0	4	-1E+10	1	-1E+10	1	-1E+10	1	-1E+10	1	-1E+10	1	-1E+10	1
4901784	77	C	08/13/2017	10:44	-132.853	43.629	0	1370.50	0	2.8050	0	34.5670	4	27.566	0	1355.087	0	23.1	4	7.1	4	-1E+10	1	-1E+10	1	-1E+10	1	-1E+10	1	-1E+10	1	-1E+10	1
4901784	77	C	08/13/2017	10:44	-132.853	43.629	0	1375.20	0	2.8010	0	34.5690	4	27.568	0	1359.719	0	23.3	4	7.2	4	-1E+10	1	-1E+10	1	-1E+10	1	-1E+10	1	-1E+10	1	-1E+10	1
4901784	77	C	08/13/2017	10:44	-132.853	43.629	0	1380.50	0	2.7870	0	34.5700	4	27.570	0	1364.942	0	23.3	4	7.2	4	-1E+10	1	-1E+10	1	-1E+10	1	-1E+10	1	-1E+10	1	-1E+10	1
4901784	77	C	08/13/2017	10:44	-132.853	43.629	0	1385.30	0	2.7770	0	34.5700	4	27.570	0	1369.673	0	23.5	4	7.2	4	-1E+10	1	-1E+10	1	-1E+10	1	-1E+10	1	-1E+10	1	-1E+10	1
4901784	77	C	08/13/2017	10:44	-132.853	43.629	0	1390.20	0	2.7720	0	34.5710	4	27.572	0	1374.501	0	23.7	4	7.3	4	-1E+10	1	-1E+10	1	-1E+10	1	-1E+10	1	-1E+10	1	-1E+10	1
4901784	77	C	08/13/2017	10:44	-132.853	43.629	0	1395.10	0	2.7660	0	34.5730	4	27.574	0	1379.330	0	23.8	4	7.3	4	-1E+10	1	-1E+10	1	-1E+10	1	-1E+10	1	-1E+10	1	-1E+10	1
4901784	77	C	08/13/2017	10:44	-132.853	43.629	0	1400.10	0	2.7560	0	34.5730	4	27.575	0	1384.257	0	23.9	4	7.3	4	-1E+10	1	-1E+10	1	-1E+10	1	-1E+10	1	-1E+10	1	-1E+10	1
4901784	77	C	08/13/2017	10:44	-132.853	43.629	0	1405.10	0	2.7480	0	34.5730	4	27.576	0	1389.184	0	24.0	4	7.4	4	-1E+10	1	-1E+10	1	-1E+10	1	-1E+10	1	-1E+10	1	-1E+10	1
4901784	77	C	08/13/2017	10:44	-132.853	43.629	0	1410.10	0	2.7350	0	34.5740	4	27.577	0	1394.111	0	24.2	4	7.4	4	-1E+10	1	-1E+10	1	-1E+10	1	-1E+10	1	-1E+10	1	-1E+10	1
4901784	77	C	08/13/2017	10:44	-132.853	43.629	0	1415.10	0	2.7200	0	34.5750	4	27.580	0	1399.038	0	24.4	4	7.5	4	-1E+10	1	-1E+10	1	-1E+10	1	-1E+10	1	-1E+10	1	-1E+10	1
4901784	77	C	08/13/2017	10:44	-132.853	43.629	0	1420.10	0	2.7120	0	34.5760	4	27.581	0	1403.964	0	24.5	4	7.5	4	-1E+10	1	-1E+10	1	-1E+10	1	-1E+10	1	-1E+10	1	-1E+10	1
4901784	77	C	08/13/2017	10:44	-132.853	43.629	0	1425.20	0	2.7020	0	34.5760	4	27.582	0	1408.989	0	24.5	4	7.5	4	-1E+10	1	-1E+10	1	-1E+10	1	-1E+10	1	-1E+10	1	-1E+10	1
4901784	77	C	08/13/2017	10:44	-132.853	43.629	0	1430.20	0	2.6800	0	34.5770	4	27.585	0	1413.916	0	24.4	4	7.5	4	-1E+10	1	-1E+10	1	-1E+10	1	-1E+10	1	-1E+10	1	-1E+10	1
4901784	77	C	08/13/2017	10:44	-132.853	43.629	0	1435.30	0	2.6730	0	34.5760	4	27.585	0	1418.941	0	24.3	4	7.5	4	-1E+10	1	-1E+10	1	-1E+10	1	-1E+10	1	-1E+10	1	-1E+10	1
4901784	77	C	08/13/2017	10:44	-132.853	43.629	0	1440.40	0	2.6680	0	34.5760	4	27.585	0	1423.965	0	24.3	4	7.4	4	-1E+10	1	-1E+10	1	-1E+10	1	-1E+10	1	-1E+10	1	-1E+10	1
4901784	77	C	08/13/2017	10:44	-132.853	43.629	0	1445.60	0	2.6620	0	34.5760	4	27.586	0	1429.088	0	24.4	4	7.5	4	-1E+10	1	-1E+10	1	-1E+10	1	-1E+10	1	-1E+10	1	-1E+10	1
4901784	77	C	08/13/2017	10:44	-132.853	43.629	0	1450.00	0	2.6560	0	34.5760	4	27.586	0	1433.423	0	24.4	4	7.5	4	-1E+10	1	-1E+10	1	-1E+10	1	-1E+10	1	-1E+10	1	-1E+10	1
4901784	77	C	08/13/2017	10:44	-132.853	43.629	0	1454.30	0	2.6430	0	34.5770	4	27.588	0	1437.659	0	24.5	4	7.5	4	-1E+10	1	-1E+10	1	-1E+10	1	-1E+10	1	-1E+10	1	-1E+10	1
4901784	77	C	08/13/2017	10:44	-132.853	43.629	0	1459.70	0	2.6340	0	34.5780	4	27.590	0	1442.979	0	24.8	4	7.6	4	-1E+10	1	-1E+10	1	-1E+10	1	-1E+10	1	-1E+10	1	-1E+10	1
4901784	77	C	08/13/2017	10:44	-132.853	43.629	0	1465.00	0	2.6200	0	34.5790	4	27.592	0	1448.200	0	25.1	4	7.7	4	-1E+10	1	-1E+10	1	-1E+10	1	-1E+10	1	-1E+10	1	-1E+10	1
4901784	77	C	08/13/2017	10:44	-132.853	43.629	0	1470.40	0	2.6090	0	34.5800	4	27.593	0	1453.520	0	25.3	4	7.7	4	-1E+10	1	-1E+10	1	-1E+10	1	-1E+10	1	-1E+10	1	-1E+10	1
4901784	77	C	08/13/2017	10:44	-132.853	43.629	0	1474.80	0	2.6060	0	34.5810	4	27.595	0	1457.854	0	25.4	4	7.8	4	-1E+10	1	-1E+10	1	-1E+10	1	-1E+10	1	-1E+10	1	-1E+10	1
4901784	77	C	08/13/2017	10:44	-132.853	43.629	0	1479.30	0	2.5990	0	34.5810	4	27.595	0	1462.287	0	25.5	4	7.8	4	-1E+10	1	-1E+10	1	-1E+10	1	-1E+10	1	-1E+10	1	-1E+10	1
4901784	77	C	08/13/2017	10:44	-132.853	43.629	0	1484.50	0	2.5940	0	34.5820	4	27.596	0	1467.409	0	25.7	4	7.9	4	-1E+10	1	-1E+10	1	-1E+10	1	-1E+10	1	-1E+10	1	-1E+10	1
4901784	77	C	08/13/2017	10:44	-132.853	43.629	0	1489.60	0	2.5850	0	34.5830	4	27.598	0	1472.432	0	25.9	4	7.9	4	-1E+10	1	-1E+10	1	-1E+10	1	-1E+10	1	-1E+10	1	-1E+10	1
4901784	77	C	08/13/2017	10:44	-132.853	43.629	0	1494.60	0	2.5780	0	34.5830	4	27.599	0	1477.357	0	26.2	4	8.0	4	-1E+10	1	-1E+10	1	-1E+10	1	-1E+10	1	-1E+10	1	-1E+10	1
4901784	77	C	08/13/2017	10:44	-132.853	43.629	0	1499.70	0	2.5720	0	34.5850	4	27.601	0	1482.381	0	26.4	4	8.1	4	-1E+10	1	-1E+10	1	-1E+10	1	-1E+10	1	-1E+10	1	-1E+10	1
4901784	77	C	08/13/2017	10:44	-132.853	43.629	0	1504.80	0	2.5640	0	34.5850	4	27.601	0	1487.404	0	26.7	4	8.2	4	-1E+10	1	-1E+10	1	-1E+10	1	-1E+10	1	-1E+10	1	-1E+10	1
4901784	77	C	08/13/2017	10:44	-132.853	43.629	0	1510.00	0	2.5480	0	34.5870	4	27.604	0	1492.525	0	27.1	4	8.3	4	-1E+10	1	-1E+10	1	-1E+10	1	-1E+10	1	-1E+10	1	-1E+10	1
4901784	77	C	08/13/2017	10:44	-132.853	43.629	0	1515.20	0	2.5390	0	34.5870	4	27.605	0	1497.647	0	27.3	4	8.4	4	-1E+10	1	-1E+10	1	-1E+10	1	-1E+10	1	-1E+10	1	-1E+10	1
4901784	77	C	08/13/2017	10:44	-132.853	43.629	0	1520.50	0	2.5310	0	34.5890	4	27.608	0	1502.867	0	27.6	4	8.4	4	-1E+10	1	-1E+10	1	-1E+10	1	-1E+10	1	-1E+10	1	-1E+10	1
4901784	77	C	08/13/2017	10:44	-132.853	43.629	0	1524.90	0	2.5260	0	34.5890	4	27.608	0	1507.200	0	27.8	4	8.5	4	-1E+10	1	-1E+10	1	-1E+10	1	-1E+10	1	-1E+10	1	-1E+10	1
4901784	77	C	08/13/2017	10:44	-132.853	43.629	0	1529.40	0	2.5180	0	34.5900	4	27.609	0	1511.632	0	27.9	4	8.5	4	-1E+10	1	-1E+10	1	-1E+10	1	-1E+10	1	-1E+10	1	-1E+10	1
4901784	77	C	08/13/2017	10:44	-132.853	43.629	0	1534.70	0	2.5140	0	34.5900	4	27.610	0	1516.851	0	28.2	4	8.6	4	-1E+10	1	-1E+10	1	-1E+10	1	-1E+10	1	-1E+10	1	-1E+10	1
4901784	77	C	08/13/2017	10:44	-132.853	43.629	0	1540.10	0	2.5050	0	34.5920	4	27.612	0	1522.169	0	28.5	4	8.7	4	-1E+10	1	-1E+10	1	-1E+10	1	-1E+10	1	-1E+10	1	-1E+10	1
4901784	77	C	08/13/2017	10:44	-132.853	43.629	0	1545.40	0	2.4960	0	34.5930	4	27.614	0	1527.388	0	28.8	4	8.8	4	-1E+10	1	-1E+10	1	-1E+10	1	-1E+10	1	-1E+10	1	-1E+10	1
4901784	77	C	08/13/2017	10:44	-132.853	43.629	0	1549.90	0	2.4880	0	34.5940	4	27.615	0	1531.819	0	29.0	4	8.9	4	-1E+10	1	-1E+10	1	-1E+10	1	-1E+10	1	-1E+10	1	-1E+10	1
4901784	77	C	08/13/2017	10:44	-132.853	43.629	0	1554.40	0	2.4790	0	34.5940	4	27.616	0	1536.250	0	29.3	4	8.9	4	-1E+10	1	-1E+10	1	-1E+10	1	-1E+10	1	-1E+10	1	-1E+10	1
4901784	77	C	08/13/2017	10:44	-132.853	43.629	0	1559.90	0	2.4680	0	34.5940	4	27.617	0	1541.666	0	29.7	4	9.1	4	-1E+10	1	-1E+10	1	-1E+10	1	-1E+10	1	-1E+10	1	-1E+10	1
4901784	77	C	08/13/2017	10:44	-132.853	43.629	0	1565.50	0	2.4540	0	34.5960	4	27.620	0	1547.180	0	30.1	4	9.2	4	-1E+10	1	-1E+10	1	-1E+10	1	-1E+10	1	-1E+10	1	-1E+10	1
4901784	77	C	08/13/2017	10:44	-132.853	43.629	0	1570.10	0	2.4410	0	34.5980	4	27.623	0	1551.709	0	30.4	4	9.3	4	-1E+10	1	-1E+10	1	-1E+10	1	-1E+10	1	-1E+10	1	-1E+10	1
4901784	77	C	08/13/2017	10:44	-132.853	43.629	0	1574.70	0	2.4370	0	34.5980	4	27.623	0	1556.239	0	30.7	4	9.4	4	-1E+10	1	-1E+10	1	-1E+10	1	-1E+10	1	-1E+10	1	-1E+10	1
4901784	77	C	08/13/2017	10:44	-132.853	43.629	0	1579.90	0	2.4250	0	34.5990	4	27.625	0	1561.359	0	31.1	4	9.5	4	-1E+10	1	-1E+10	1	-1E+10	1	-1E+10	1	-1E+10	1	-1E+10	1
4901784	77	C	08/13/2017	10:44	-132.853	43.629	0	1585.00	0	2.4160	0	34.6000	4	27.626	0	1566.380	0	31.4	4	9.6	4	-1E+10	1	-1E+10	1	-1E+10	1	-1E+10	1	-1E+10	1	-1E+10	1
4901784	77	C	08/13/2017	10:44	-132.853	43.629	0	1590.70	0	2.4060	0	34.6020	4	27.629	0	1571.992	0	31.9	4	9.7	4	-1E+10	1	-1E+10	1	-1E+10	1	-1E+10	1	-1E+10	1	-1E+10	1
4901784	77	C	08/13/2017	10:44	-132.853	43.629	0	1595.60	0	2.3930	0	34.6040	4	27.631	0	1576.816	0	32.4	4	9.9	4	-1E+10	1	-1E+10	1	-1E+10	1	-1E+10	1	-1E+10	1	-1E+10	1
4901784	77	C	08/13/2017	10:44	-132.853	43.629	0	1600.40	0	2.3820	0	34.6040	4	27.632	0	1581.541	0	32.7	4	10.0	4	-1E+10	1	-1E+10	1	-1E+10	1	-1E+10	1	-1E+10	1	-1E+10	1
4901784	77	C	08/13/2017	10:44	-132.853	43.629	0	1605.40	0	2.3740	0	34.6050	4	27.634	0	1586.464	0	33.1	4	10.1	4	-1E+10	1	-1E+10	1	-1E+10	1	-1E+10	1	-1E+10	1	-1E+10	1
4901784	77	C	08/13/2017	10:44	-132.853	43.629	0	1610.40	0	2.3670	0	34.6070	4	27.636	0	1591.386	0	33.6	4	10.2	4	-1E+10	1	-1E+10	1	-1E+10	1	-1E+10	1	-1E+10	1	-1E+10	1
4901784	77	C	08/13/2017	10:44	-132.853	43.629	0	1615.50	0	2.3550	0	34.6090	4	27.639	0	1596.407	0	34.1	4	10.4	4	-1E+10	1	-1E+10	1	-1E+10	1	-1E+10	1	-1E+10	1	-1E+10	1
4901784	77	C	08/13/2017	10:44	-132.853	43.629	0	1620.50	0	2.3440	0	34.6100	4	27.640	0	1601.329	0	34.5	4	10.5	4	-1E+10	1	-1E+10	1	-1E+10	1	-1E+10	1	-1E+10	1	-1E+10	1
4901784	77	C	08/13/2017	10:44	-132.853	43.629	0	1625.70	0	2.3380	0	34.6110	4	27.642	0	1606.447	0	34.8	4	10.6	4	-1E+10	1	-1E+10	1	-1E+10	1	-1E+10	1	-1E+10	1	-1E+10	1
4901784	77	C	08/13/2017	10:44	-132.853	43.629	0	1630.70	0	2.3310	0	34.6120	4	27.643	0	1611.369	0	35.3	4	10.7	4	-1E+10	1	-1E+10	1	-1E+10	1	-1E+10	1	-1E+10	1	-1E+10	1
4901784	77	C	08/13/2017	10:44	-132.853	43.629	0	1635.00	0	2.3200	0	34.6140	4	27.646	0	1615.602	0	35.7	4	10.9	4	-1E+10	1	-1E+10	1	-1E+10	1	-1E+10	1	-1E+10	1	-1E+10	1
4901784	77	C	08/13/2017	10:44	-132.853	43.629	0	1639.30	0	2.3120	0	34.6150	4	27.647	0	1619.834	0	36.0	4	10.9	4	-1E+10	1	-1E+10	1	-1E+10	1	-1E+10	1	-1E+10	1	-1E+10	1
4901784	77	C	08/13/2017	10:44	-132.853	43.629	0	1644.50	0	2.3080	0	34.6150	4	27.647	0	1624.953	0	36.2	4	11.0	4	-1E+10	1	-1E+10	1	-1E+10	1	-1E+10	1	-1E+10	1	-1E+10	1
4901784	77	C	08/13/2017	10:44	-132.853	43.629	0	1649.70	0	2.3000	0	34.6170	4	27.650	0	1630.071	0	36.5	4	11.1	4	-1E+10	1	-1E+10	1	-1E+10	1	-1E+10	1	-1E+10	1	-1E+10	1
4901784	77	C	08/13/2017	10:44	-132.853	43.629	0	1655.00	0	2.2950	0	34.6170	4	27.650	0	1635.287	0	36.8	4	11.2	4	-1E+10	1	-1E+10	1	-1E+10	1	-1E+10	1	-1E+10	1	-1E+10	1
4901784	77	C	08/13/2017	10:44	-132.853	43.629	0	1660.30	0	2.2900	0	34.6180	4	27.651	0	1640.504	0	37.0	4	11.2	4	-1E+10	1	-1E+10	1	-1E+10	1	-1E+10	1	-1E+10	1	-1E+10	1
4901784	77	C	08/13/2017	10:44	-132.853	43.629	0	1665.60	0	2.2860	0	34.6180	4	27.652	0	1645.720	0	37.3	4	11.3	4	-1E+10	1	-1E+10	1	-1E+10	1	-1E+10	1	-1E+10	1	-1E+10	1
4901784	77	C	08/13/2017	10:44	-132.853	43.629	0	1670.00	0	2.2740	0	34.6190	4	27.654	0	1650.050	0	37.8	4	11.5	4	-1E+10	1	-1E+10	1	-1E+10	1	-1E+10	1	-1E+10	1	-1E+10	1
4901784	77	C	08/13/2017	10:44	-132.853	43.629	0	1674.50	0	2.2540	0	34.6210	4	27.657	0	1654.479	0	38.1	4	11.6	4	-1E+10	1	-1E+10	1	-1E+10	1	-1E+10	1	-1E+10	1	-1E+10	1
4901784	77	C	08/13/2017	10:44	-132.853	43.629	0	1679.80	0	2.2520	0	34.6210	4	27.657	0	1659.695	0	38.4	4	11.7	4	-1E+10	1	-1E+10	1	-1E+10	1	-1E+10	1	-1E+10	1	-1E+10	1
4901784	77	C	08/13/2017	10:44	-132.853	43.629	0	1685.20	0	2.2500	0	34.6220	4	27.658	0	1665.009	0	38.7	4	11.7	4	-1E+10	1	-1E+10	1	-1E+10	1	-1E+10	1	-1E+10	1	-1E+10	1
4901784	77	C	08/13/2017	10:44	-132.853	43.629	0	1690.60	0	2.2440	0	34.6230	4	27.659	0	1670.323	0	39.1	4	11.9	4	-1E+10	1	-1E+10	1	-1E+10	1	-1E+10	1	-1E+10	1	-1E+10	1
4901784	77	C	08/13/2017	10:44	-132.853	43.629	0	1695.20	0	2.2400	0	34.6240	4	27.660	0	1674.850	0	39.3	4	11.9	4	-1E+10	1	-1E+10	1	-1E+10	1	-1E+10	1	-1E+10	1	-1E+10	1
4901784	77	C	08/13/2017	10:44	-132.853	43.629	0	1699.80	0	2.2340	0	34.6240	4	27.661	0	1679.376	0	39.6	4	12.0	4	-1E+10	1	-1E+10	1	-1E+10	1	-1E+10	1	-1E+10	1	-1E+10	1
4901784	77	C	08/13/2017	10:44	-132.853	43.629	0	1705.30	0	2.2280	0	34.6260	4	27.663	0	1684.789	0	40.0	4	12.1	4	-1E+10	1	-1E+10	1	-1E+10	1	-1E+10	1	-1E+10	1	-1E+10	1
4901784	77	C	08/13/2017	10:44	-132.853	43.629	0	1709.90	0	2.2240	0	34.6270	4	27.664	0	1689.315	0	40.3	4	12.2	4	-1E+10	1	-1E+10	1	-1E+10	1	-1E+10	1	-1E+10	1	-1E+10	1
4901784	77	C	08/13/2017	10:44	-132.853	43.629	0	1715.10	0	2.2150	0	34.6280	4	27.666	0	1694.431	0	40.8	4	12.4	4	-1E+10	1	-1E+10	1	-1E+10	1	-1E+10	1	-1E+10	1	-1E+10	1
4901784	77	C	08/13/2017	10:44	-132.853	43.629	0	1720.20	0	2.2010	0	34.6290	4	27.668	0	1699.450	0	41.2	4	12.5	4	-1E+10	1	-1E+10	1	-1E+10	1	-1E+10	1	-1E+10	1	-1E+10	1
4901784	77	C	08/13/2017	10:44	-132.853	43.629	0	1725.00	0	2.1910	0	34.6300	4	27.669	0	1704.172	0	41.3	4	12.5	4	-1E+10	1	-1E+10	1	-1E+10	1	-1E+10	1	-1E+10	1	-1E+10	1
4901784	77	C	08/13/2017	10:44	-132.853	43.629	0	1729.90	0	2.1900	0	34.6300	4	27.669	0	1708.994	0	41.5	4	12.6	4	-1E+10	1	-1E+10	1	-1E+10	1	-1E+10	1	-1E+10	1	-1E+10	1
4901784	77	C	08/13/2017	10:44	-132.853	43.629	0	1734.80	0	2.1870	0	34.6300	4	27.670	0	1713.815	0	41.7	4	12.6	4	-1E+10	1	-1E+10	1	-1E+10	1	-1E+10	1	-1E+10	1	-1E+10	1
4901784	77	C	08/13/2017	10:44	-132.853	43.629	0	1739.80	0	2.1810	0	34.6300	4	27.670	0	1718.734	0	42.1	4	12.8	4	-1E+10	1	-1E+10	1	-1E+10	1	-1E+10	1	-1E+10	1	-1E+10	1
4901784	77	C	08/13/2017	10:44	-132.853	43.629	0	1744.60	0	2.1740	0	34.6310	4	27.672	0	1723.456	0	42.7	4	12.9	4	-1E+10	1	-1E+10	1	-1E+10	1	-1E+10	1	-1E+10	1	-1E+10	1
4901784	77	C	08/13/2017	10:44	-132.853	43.629	0	1749.50	0	2.1630	0	34.6340	4	27.675	0	1728.277	0	43.2	4	13.1	4	-1E+10	1	-1E+10	1	-1E+10	1	-1E+10	1	-1E+10	1	-1E+10	1
4901784	77	C	08/13/2017	10:44	-132.853	43.629	0	1754.50	0	2.1550	0	34.6350	4	27.676	0	1733.196	0	43.6	4	13.2	4	-1E+10	1	-1E+10	1	-1E+10	1	-1E+10	1	-1E+10	1	-1E+10	1
4901784	77	C	08/13/2017	10:44	-132.853	43.629	0	1759.50	0	2.1530	0	34.6360	4	27.677	0	1738.115	0	43.8	4	13.3	4	-1E+10	1	-1E+10	1	-1E+10	1	-1E+10	1	-1E+10	1	-1E+10	1
4901784	77	C	08/13/2017	10:44	-132.853	43.629	0	1764.60	0	2.1470	0	34.6370	4	27.679	0	1743.132	0	44.3	4	13.4	4	-1E+10	1	-1E+10	1	-1E+10	1	-1E+10	1	-1E+10	1	-1E+10	1
4901784	77	C	08/13/2017	10:44	-132.853	43.629	0	1769.60	0	2.1410	0	34.6380	4	27.680	0	1748.050	0	44.7	4	13.5	4	-1E+10	1	-1E+10	1	-1E+10	1	-1E+10	1	-1E+10	1	-1E+10	1
4901784	77	C	08/13/2017	10:44	-132.853	43.629	0	1774.70	0	2.1330	0	34.6390	4	27.681	0	1753.067	0	45.0	4	13.6	4	-1E+10	1	-1E+10	1	-1E+10	1	-1E+10	1	-1E+10	1	-1E+10	1
4901784	77	C	08/13/2017	10:44	-132.853	43.629	0	1779.70	0	2.1300	0	34.6400	4	27.683	0	1757.986	0	45.3	4	13.7	4	-1E+10	1	-1E+10	1	-1E+10	1	-1E+10	1	-1E+10	1	-1E+10	1
4901784	77	C	08/13/2017	10:44	-132.853	43.629	0	1784.70	0	2.1240	0	34.6410	4	27.684	0	1762.904	0	45.6	4	13.8	4	-1E+10	1	-1E+10	1	-1E+10	1	-1E+10	1	-1E+10	1	-1E+10	1
4901784	77	C	08/13/2017	10:44	-132.853	43.629	0	1789.70	0	2.1180	0	34.6420	4	27.685	0	1767.822	0	45.9	4	13.9	4	-1E+10	1	-1E+10	1	-1E+10	1	-1E+10	1	-1E+10	1	-1E+10	1
4901784	77	C	08/13/2017	10:44	-132.853	43.629	0	1794.80	0	2.1150	0	34.6420	4	27.685	0	1772.838	0	46.2	4	14.0	4	-1E+10	1	-1E+10	1	-1E+10	1	-1E+10	1	-1E+10	1	-1E+10	1
4901784	77	C	08/13/2017	10:44	-132.853	43.629	0	1800.00	0	2.1060	0	34.6430	4	27.687	0	1777.953	0	46.6	4	14.1	4	-1E+10	1	-1E+10	1	-1E+10	1	-1E+10	1	-1E+10	1	-1E+10	1
4901784	77	C	08/13/2017	10:44	-132.853	43.629	0	1805.10	0	2.0990	0	34.6440	4	27.688	0	1782.969	0	46.9	4	14.2	4	-1E+10	1	-1E+10	1	-1E+10	1	-1E+10	1	-1E+10	1	-1E+10	1
4901784	77	C	08/13/2017	10:44	-132.853	43.629	0	1810.30	0	2.0950	0	34.6450	4	27.689	0	1788.084	0	47.2	4	14.3	4	-1E+10	1	-1E+10	1	-1E+10	1	-1E+10	1	-1E+10	1	-1E+10	1
4901784	77	C	08/13/2017	10:44	-132.853	43.629	0	1815.40	0	2.0870	0	34.6460	4	27.691	0	1793.099	0	47.6	4	14.4	4	-1E+10	1	-1E+10	1	-1E+10	1	-1E+10	1	-1E+10	1	-1E+10	1
4901784	77	C	08/13/2017	10:44	-132.853	43.629	0	1820.70	0	2.0850	0	34.6460	4	27.691	0	1798.312	0	48.0	4	14.5	4	-1E+10	1	-1E+10	1	-1E+10	1	-1E+10	1	-1E+10	1	-1E+10	1
4901784	77	C	08/13/2017	10:44	-132.853	43.629	0	1825.00	0	2.0760	0	34.6470	4	27.693	0	1802.541	0	48.5	4	14.7	4	-1E+10	1	-1E+10	1	-1E+10	1	-1E+10	1	-1E+10	1	-1E+10	1
4901784	77	C	08/13/2017	10:44	-132.853	43.629	0	1829.40	0	2.0690	0	34.6480	4	27.694	0	1806.868	0	48.9	4	14.8	4	-1E+10	1	-1E+10	1	-1E+10	1	-1E+10	1	-1E+10	1	-1E+10	1
4901784	77	C	08/13/2017	10:44	-132.853	43.629	0	1834.70	0	2.0630	0	34.6490	4	27.695	0	1812.080	0	49.2	4	14.9	4	-1E+10	1	-1E+10	1	-1E+10	1	-1E+10	1	-1E+10	1	-1E+10	1
4901784	77	C	08/13/2017	10:44	-132.853	43.629	0	1840.00	0	2.0570	0	34.6500	4	27.697	0	1817.292	0	49.6	4	15.0	4	-1E+10	1	-1E+10	1	-1E+10	1	-1E+10	1	-1E+10	1	-1E+10	1
4901784	77	C	08/13/2017	10:44	-132.853	43.629	0	1845.30	0	2.0500	0	34.6510	4	27.698	0	1822.504	0	50.0	4	15.1	4	-1E+10	1	-1E+10	1	-1E+10	1	-1E+10	1	-1E+10	1	-1E+10	1
4901784	77	C	08/13/2017	10:44	-132.853	43.629	0	1850.60	0	2.0440	0	34.6510	4	27.698	0	1827.716	0	50.4	4	15.2	4	-1E+10	1	-1E+10	1	-1E+10	1	-1E+10	1	-1E+10	1	-1E+10	1
4901784	77	C	08/13/2017	10:44	-132.853	43.629	0	1855.00	0	2.0400	0	34.6520	4	27.700	0	1832.042	0	50.6	4	15.3	4	-1E+10	1	-1E+10	1	-1E+10	1	-1E+10	1	-1E+10	1	-1E+10	1
4901784	77	C	08/13/2017	10:44	-132.853	43.629	0	1859.50	0	2.0350	0	34.6530	4	27.701	0	1836.467	0	51.0	4	15.4	4	-1E+10	1	-1E+10	1	-1E+10	1	-1E+10	1	-1E+10	1	-1E+10	1
4901784	77	C	08/13/2017	10:44	-132.853	43.629	0	1864.80	0	2.0290	0	34.6530	4	27.701	0	1841.679	0	51.3	4	15.5	4	-1E+10	1	-1E+10	1	-1E+10	1	-1E+10	1	-1E+10	1	-1E+10	1
4901784	77	C	08/13/2017	10:44	-132.853	43.629	0	1870.20	0	2.0260	0	34.6540	4	27.702	0	1846.988	0	51.5	4	15.6	4	-1E+10	1	-1E+10	1	-1E+10	1	-1E+10	1	-1E+10	1	-1E+10	1
4901784	77	C	08/13/2017	10:44	-132.853	43.629	0	1874.80	0	2.0240	0	34.6550	4	27.703	0	1851.511	0	51.7	4	15.6	4	-1E+10	1	-1E+10	1	-1E+10	1	-1E+10	1	-1E+10	1	-1E+10	1
4901784	77	C	08/13/2017	10:44	-132.853	43.629	0	1879.30	0	2.0220	0	34.6550	4	27.704	0	1855.936	0	52.1	4	15.7	4	-1E+10	1	-1E+10	1	-1E+10	1	-1E+10	1	-1E+10	1	-1E+10	1
4901784	77	C	08/13/2017	10:44	-132.853	43.629	0	1884.80	0	2.0200	0	34.6560	4	27.705	0	1861.343	0	52.4	4	15.8	4	-1E+10	1	-1E+10	1	-1E+10	1	-1E+10	1	-1E+10	1	-1E+10	1
4901784	77	C	08/13/2017	10:44	-132.853	43.629	0	1890.30	0	2.0160	0	34.6560	4	27.705	0	1866.751	0	52.6	4	15.9	4	-1E+10	1	-1E+10	1	-1E+10	1	-1E+10	1	-1E+10	1	-1E+10	1
4901784	77	C	08/13/2017	10:44	-132.853	43.629	0	1894.80	0	2.0130	0	34.6560	4	27.705	0	1871.175	0	52.9	4	16.0	4	-1E+10	1	-1E+10	1	-1E+10	1	-1E+10	1	-1E+10	1	-1E+10	1
4901784	77	C	08/13/2017	10:44	-132.853	43.629	0	1899.40	0	2.0060	0	34.6570	4	27.707	0	1875.697	0	53.3	4	16.1	4	-1E+10	1	-1E+10	1	-1E+10	1	-1E+10	1	-1E+10	1	-1E+10	1
4901784	77	C	08/13/2017	10:44	-132.853	43.629	0	1905.00	0	2.0020	0	34.6580	4	27.708	0	1881.203	0	53.6	4	16.2	4	-1E+10	1	-1E+10	1	-1E+10	1	-1E+10	1	-1E+10	1	-1E+10	1
4901784	77	C	08/13/2017	10:44	-132.853	43.629	0	1910.60	0	1.9990	0	34.6580	4	27.708	0	1886.708	0	53.8	4	16.2	4	-1E+10	1	-1E+10	1	-1E+10	1	-1E+10	1	-1E+10	1	-1E+10	1
4901784	77	C	08/13/2017	10:44	-132.853	43.629	0	1915.40	0	1.9970	0	34.6580	4	27.708	0	1891.426	0	54.0	4	16.3	4	-1E+10	1	-1E+10	1	-1E+10	1	-1E+10	1	-1E+10	1	-1E+10	1
4901784	77	C	08/13/2017	10:44	-132.853	43.629	0	1920.00	0	1.9950	0	34.6590	4	27.709	0	1895.948	0	54.2	4	16.3	4	-1E+10	1	-1E+10	1	-1E+10	1	-1E+10	1	-1E+10	1	-1E+10	1
4901784	77	C	08/13/2017	10:44	-132.853	43.629	0	1924.90	0	1.9920	0	34.6590	4	27.709	0	1900.765	0	54.5	4	16.4	4	-1E+10	1	-1E+10	1	-1E+10	1	-1E+10	1	-1E+10	1	-1E+10	1
4901784	77	C	08/13/2017	10:44	-132.853	43.629	0	1929.80	0	1.9880	0	34.6610	4	27.711	0	1905.582	0	54.8	4	16.5	4	-1E+10	1	-1E+10	1	-1E+10	1	-1E+10	1	-1E+10	1	-1E+10	1
4901784	77	C	08/13/2017	10:44	-132.853	43.629	0	1934.80	0	1.9870	0	34.6610	4	27.711	0	1910.497	0	55.0	4	16.6	4	-1E+10	1	-1E+10	1	-1E+10	1	-1E+10	1	-1E+10	1	-1E+10	1
4901784	77	C	08/13/2017	10:44	-132.853	43.629	0	1939.80	0	1.9840	0	34.6620	4	27.712	0	1915.411	0	55.2	4	16.7	4	-1E+10	1	-1E+10	1	-1E+10	1	-1E+10	1	-1E+10	1	-1E+10	1
4901784	77	C	08/13/2017	10:44	-132.853	43.629	0	1944.70	0	1.9820	0	34.6630	4	27.713	0	1920.228	0	55.5	4	16.7	4	-1E+10	1	-1E+10	1	-1E+10	1	-1E+10	1	-1E+10	1	-1E+10	1
4901784	77	C	08/13/2017	10:44	-132.853	43.629	0	1949.70	0	1.9780	0	34.6630	4	27.714	0	1925.142	0	55.7	4	16.8	4	-1E+10	1	-1E+10	1	-1E+10	1	-1E+10	1	-1E+10	1	-1E+10	1
4901784	77	C	08/13/2017	10:44	-132.853	43.629	0	1954.60	0	1.9760	0	34.6630	4	27.714	0	1929.958	0	55.9	4	16.9	4	-1E+10	1	-1E+10	1	-1E+10	1	-1E+10	1	-1E+10	1	-1E+10	1
4901784	77	C	08/13/2017	10:44	-132.853	43.629	0	1959.60	0	1.9730	0	34.6630	4	27.714	0	1934.872	0	56.4	4	17.0	4	-1E+10	1	-1E+10	1	-1E+10	1	-1E+10	1	-1E+10	1	-1E+10	1
4901784	77	C	08/13/2017	10:44	-132.853	43.629	0	1964.70	0	1.9660	0	34.6650	4	27.716	0	1939.885	0	57.1	4	17.2	4	-1E+10	1	-1E+10	1	-1E+10	1	-1E+10	1	-1E+10	1	-1E+10	1
4901784	77	C	08/13/2017	10:44	-132.853	43.629	0	1969.80	0	1.9560	0	34.6670	4	27.719	0	1944.897	0	57.7	4	17.4	4	-1E+10	1	-1E+10	1	-1E+10	1	-1E+10	1	-1E+10	1	-1E+10	1
4901784	77	C	08/13/2017	10:44	-132.853	43.629	0	1975.00	0	1.9490	0	34.6680	4	27.720	0	1950.008	0	58.1	4	17.5	4	-1E+10	1	-1E+10	1	-1E+10	1	-1E+10	1	-1E+10	1	-1E+10	1
4901784	77	C	08/13/2017	10:44	-132.853	43.629	0	1980.10	0	1.9440	0	34.6680	4	27.721	0	1955.020	0	58.3	4	17.6	4	-1E+10	1	-1E+10	1	-1E+10	1	-1E+10	1	-1E+10	1	-1E+10	1
4901784	77	C	08/13/2017	10:44	-132.853	43.629	0	1985.20	0	1.9430	0	34.6690	4	27.721	0	1960.032	0	58.4	4	17.6	4	-1E+10	1	-1E+10	1	-1E+10	1	-1E+10	1	-1E+10	1	-1E+10	1
4901784	77	C	08/13/2017	10:44	-132.853	43.629	0	1990.30	0	1.9420	0	34.6690	4	27.722	0	1965.044	0	58.6	4	17.7	4	-1E+10	1	-1E+10	1	-1E+10	1	-1E+10	1	-1E+10	1	-1E+10	1
4901784	77	C	08/13/2017	10:44	-132.853	43.629	0	1995.50	0	1.9410	0	34.6690	4	27.722	0	1970.154	0	58.9	4	17.7	4	-1E+10	1	-1E+10	1	-1E+10	1	-1E+10	1	-1E+10	1	-1E+10	1
4901784	77	C	08/13/2017	10:44	-132.853	43.629	0	2000.60	0	1.9370	0	34.6700	4	27.723	0	1975.165	0	59.1	4	17.8	4	-1E+10	1	-1E+10	1	-1E+10	1	-1E+10	1	-1E+10	1	-1E+10	1
4901784	77	C	08/13/2017	10:44	-132.853	43.629	0	2005.50	0	1.9350	0	34.6700	4	27.723	0	1979.980	0	59.4	4	17.9	4	-1E+10	1	-1E+10	1	-1E+10	1	-1E+10	1	-1E+10	1	-1E+10	1
4901784	77	C	08/13/2017	10:44	-132.853	43.629	0	2010.20	0	1.9300	0	34.6710	4	27.724	0	1984.598	0	59.7	4	18.0	4	-1E+10	1	-1E+10	1	-1E+10	1	-1E+10	1	-1E+10	1	-1E+10	1
4901784	77	C	08/13/2017	10:44	-132.853	43.629	0	2015.50	0	1.9270	0	34.6710	4	27.724	0	1989.806	0	59.9	4	18.0	4	-1E+10	1	-1E+10	1	-1E+10	1	-1E+10	1	-1E+10	1	-1E+10	1
4901784	77	C	08/13/2017	10:44	-132.853	43.629	0	2020.10	0	1.9250	0	34.6720	4	27.725	0	1994.326	0	60.1	4	18.1	4	-1E+10	1	-1E+10	1	-1E+10	1	-1E+10	1	-1E+10	1	-1E+10	1
4901784	77	C	08/13/2017	10:44	-132.853	43.629	0																										
4901784	78	C	08/23/2017	10:48	-132.831	43.738	0	3.20	0	18.6630	0	32.9610	4	23.549	0	3.174	0	229.7	4	98.0	4	-1E+10	1	-1E+10	1	-1E+10	1	-1E+10	1	-1E+10	1	-1E+10	1
4901784	78	C	08/23/2017	10:48	-132.831	43.738	0	4.80	0	18.6630	0	32.9600	4	23.548	0	4.762	0	229.8	4	98.1	4	-1E+10	1	-1E+10	1	-1E+10	1	-1E+10	1	-1E+10	1	-1E+10	1
4901784	78	C	08/23/2017	10:48	-132.831	43.738	0	6.30	0	18.6640	0	32.9600	4	23.548	0	6.249	0	229.6	4	98.0	4	-1E+10	1	-1E+10	1	-1E+10	1	-1E+10	1	-1E+10	1	-1E+10	1
4901784	78	C	08/23/2017	10:48	-132.831	43.738	0	8.00	0	18.6630	0	32.9590	4	23.548	0	7.936	0	229.7	4	98.0	4	-1E+10	1	-1E+10	1	-1E+10	1	-1E+10	1	-1E+10	1	-1E+10	1
4901784	78	C	08/23/2017	10:48	-132.831	43.738	0	9.80	0	18.6640	0	32.9570	4	23.546	0	9.721	0	229.9	4	98.1	4	-1E+10	1	-1E+10	1	-1E+10	1	-1E+10	1	-1E+10	1	-1E+10	1
4901784	78	C	08/23/2017	10:48	-132.831	43.738	0	11.40	0	18.6660	0	32.9560	4	23.545	0	11.308	0	230.1	4	98.2	4	-1E+10	1	-1E+10	1	-1E+10	1	-1E+10	1	-1E+10	1	-1E+10	1
4901784	78	C	08/23/2017	10:48	-132.831	43.738	0	13.30	0	18.6480	0	32.9560	4	23.549	0	13.193	0	230.7	4	98.4	4	-1E+10	1	-1E+10	1	-1E+10	1	-1E+10	1	-1E+10	1	-1E+10	1
4901784	78	C	08/23/2017	10:48	-132.831	43.738	0	13.70	0	18.6500	0	32.9540	4	23.547	0	13.590	0	231.1	4	98.6	4	-1E+10	1	-1E+10	1	-1E+10	1	-1E+10	1	-1E+10	1	-1E+10	1
4901784	78	C	08/23/2017	10:48	-132.831	43.738	0	15.10	0	18.5680	0	32.9620	4	23.574	0	14.979	0	232.0	4	98.8	4	-1E+10	1	-1E+10	1	-1E+10	1	-1E+10	1	-1E+10	1	-1E+10	1
4901784	78	C	08/23/2017	10:48	-132.831	43.738	0	16.40	0	18.4370	0	32.9660	4	23.610	0	16.268	0	234.0	4	99.5	4	-1E+10	1	-1E+10	1	-1E+10	1	-1E+10	1	-1E+10	1	-1E+10	1
4901784	78	C	08/23/2017	10:48	-132.831	43.738	0	17.90	0	18.2630	0	32.9770	4	23.661	0	17.756	0	236.2	4	100.1	4	-1E+10	1	-1E+10	1	-1E+10	1	-1E+10	1	-1E+10	1	-1E+10	1
4901784	78	C	08/23/2017	10:48	-132.831	43.738	0	19.40	0	18.1320	0	32.9720	4	23.689	0	19.244	0	239.3	4	101.1	4	-1E+10	1	-1E+10	1	-1E+10	1	-1E+10	1	-1E+10	1	-1E+10	1
4901784	78	C	08/23/2017	10:48	-132.831	43.738	0	20.80	0	17.8770	0	32.9670	4	23.747	0	20.633	0	242.9	4	102.2	4	-1E+10	1	-1E+10	1	-1E+10	1	-1E+10	1	-1E+10	1	-1E+10	1
4901784	78	C	08/23/2017	10:48	-132.831	43.738	0	22.40	0	17.4770	0	32.9550	4	23.834	0	22.220	0	247.7	4	103.4	4	-1E+10	1	-1E+10	1	-1E+10	1	-1E+10	1	-1E+10	1	-1E+10	1
4901784	78	C	08/23/2017	10:48	-132.831	43.738	0	22.80	0	17.3950	0	32.9360	4	23.839	0	22.616	0	250.3	4	104.3	4	-1E+10	1	-1E+10	1	-1E+10	1	-1E+10	1	-1E+10	1	-1E+10	1
4901784	78	C	08/23/2017	10:48	-132.831	43.738	0	24.00	0	16.8180	0	32.9430	4	23.980	0	23.807	0	255.3	4	105.2	4	-1E+10	1	-1E+10	1	-1E+10	1	-1E+10	1	-1E+10	1	-1E+10	1
4901784	78	C	08/23/2017	10:48	-132.831	43.738	0	25.20	0	15.9990	0	32.9160	4	24.147	0	24.997	0	261.1	4	105.9	4	-1E+10	1	-1E+10	1	-1E+10	1	-1E+10	1	-1E+10	1	-1E+10	1
4901784	78	C	08/23/2017	10:48	-132.831	43.738	0	26.60	0	15.7760	0	32.9150	4	24.196	0	26.385	0	262.0	4	105.8	4	-1E+10	1	-1E+10	1	-1E+10	1	-1E+10	1	-1E+10	1	-1E+10	1
4901784	78	C	08/23/2017	10:48	-132.831	43.738	0	28.10	0	15.4200	0	32.9190	4	24.278	0	27.873	0	263.8	4	105.8	4	-1E+10	1	-1E+10	1	-1E+10	1	-1E+10	1	-1E+10	1	-1E+10	1
4901784	78	C	08/23/2017	10:48	-132.831	43.738	0	29.50	0	15.1980	0	32.9090	4	24.319	0	29.262	0	264.0	4	105.4	4	-1E+10	1	-1E+10	1	-1E+10	1	-1E+10	1	-1E+10	1	-1E+10	1
4901784	78	C	08/23/2017	10:48	-132.831	43.738	0	30.90	0	15.0700	0	32.9090	4	24.347	0	30.650	0	264.0	4	105.2	4	-1E+10	1	-1E+10	1	-1E+10	1	-1E+10	1	-1E+10	1	-1E+10	1
4901784	78	C	08/23/2017	10:48	-132.831	43.738	0	32.40	0	15.0010	0	32.9020	4	24.357	0	32.138	0	262.9	4	104.6	4	-1E+10	1	-1E+10	1	-1E+10	1	-1E+10	1	-1E+10	1	-1E+10	1
4901784	78	C	08/23/2017	10:48	-132.831	43.738	0	33.70	0	14.6700	0	32.9070	4	24.431	0	33.428	0	263.0	4	103.9	4	-1E+10	1	-1E+10	1	-1E+10	1	-1E+10	1	-1E+10	1	-1E+10	1
4901784	78	C	08/23/2017	10:48	-132.831	43.738	0	35.10	0	14.5070	0	32.9000	4	24.461	0	34.816	0	262.7	4	103.5	4	-1E+10	1	-1E+10	1	-1E+10	1	-1E+10	1	-1E+10	1	-1E+10	1
4901784	78	C	08/23/2017	10:48	-132.831	43.738	0	36.60	0	14.2270	0	32.8970	4	24.517	0	36.304	0	261.5	4	102.4	4	-1E+10	1	-1E+10	1	-1E+10	1	-1E+10	1	-1E+10	1	-1E+10	1
4901784	78	C	08/23/2017	10:48	-132.831	43.738	0	38.30	0	13.5400	0	32.9020	4	24.662	0	37.990	0	265.1	4	102.4	4	-1E+10	1	-1E+10	1	-1E+10	1	-1E+10	1	-1E+10	1	-1E+10	1
4901784	78	C	08/23/2017	10:48	-132.831	43.738	0	40.00	0	12.7450	0	32.9200	4	24.833	0	39.676	0	268.1	4	101.9	4	-1E+10	1	-1E+10	1	-1E+10	1	-1E+10	1	-1E+10	1	-1E+10	1
4901784	78	C	08/23/2017	10:48	-132.831	43.738	0	41.70	0	12.6780	0	32.9070	4	24.836	0	41.362	0	270.1	4	102.5	4	-1E+10	1	-1E+10	1	-1E+10	1	-1E+10	1	-1E+10	1	-1E+10	1
4901784	78	C	08/23/2017	10:48	-132.831	43.738	0	43.40	0	12.6100	0	32.9010	4	24.845	0	43.048	0	269.7	4	102.2	4	-1E+10	1	-1E+10	1	-1E+10	1	-1E+10	1	-1E+10	1	-1E+10	1
4901784	78	C	08/23/2017	10:48	-132.831	43.738	0	45.00	0	12.4350	0	32.8960	4	24.875	0	44.635	0	269.4	4	101.7	4	-1E+10	1	-1E+10	1	-1E+10	1	-1E+10	1	-1E+10	1	-1E+10	1
4901784	78	C	08/23/2017	10:48	-132.831	43.738	0	46.60	0	11.9320	0	32.9050	4	24.977	0	46.222	0	271.0	4	101.3	4	-1E+10	1	-1E+10	1	-1E+10	1	-1E+10	1	-1E+10	1	-1E+10	1
4901784	78	C	08/23/2017	10:48	-132.831	43.738	0	48.20	0	11.7070	0	32.8980	4	25.013	0	47.809	0	273.2	4	101.6	4	-1E+10	1	-1E+10	1	-1E+10	1	-1E+10	1	-1E+10	1	-1E+10	1
4901784	78	C	08/23/2017	10:48	-132.831	43.738	0	50.10	0	11.1640	0	32.9100	4	25.121	0	49.693	0	278.1	4	102.3	4	-1E+10	1	-1E+10	1	-1E+10	1	-1E+10	1	-1E+10	1	-1E+10	1
4901784	78	C	08/23/2017	10:48	-132.831	43.738	0	50.50	0	11.1240	0	32.8930	4	25.115	0	50.090	0	279.5	4	102.7	4	-1E+10	1	-1E+10	1	-1E+10	1	-1E+10	1	-1E+10	1	-1E+10	1
4901784	78	C	08/23/2017	10:48	-132.831	43.738	0	52.00	0	11.0150	0	32.8860	4	25.129	0	51.577	0	280.4	4	102.8	4	-1E+10	1	-1E+10	1	-1E+10	1	-1E+10	1	-1E+10	1	-1E+10	1
4901784	78	C	08/23/2017	10:48	-132.831	43.738	0	53.40	0	10.8440	0	32.8620	4	25.140	0	52.966	0	280.3	4	102.4	4	-1E+10	1	-1E+10	1	-1E+10	1	-1E+10	1	-1E+10	1	-1E+10	1
4901784	78	C	08/23/2017	10:48	-132.831	43.738	0	54.80	0	10.6380	0	32.8520	4	25.168	0	54.354	0	278.5	4	101.2	4	-1E+10	1	-1E+10	1	-1E+10	1	-1E+10	1	-1E+10	1	-1E+10	1
4901784	78	C	08/23/2017	10:48	-132.831	43.738	0	56.30	0	10.2460	0	32.8690	4	25.248	0	55.842	0	278.0	4	100.2	4	-1E+10	1	-1E+10	1	-1E+10	1	-1E+10	1	-1E+10	1	-1E+10	1
4901784	78	C	08/23/2017	10:48	-132.831	43.738	0	57.90	0	9.9120	0	32.8720	4	25.307	0	57.429	0	276.7	4	99.0	4	-1E+10	1	-1E+10	1	-1E+10	1	-1E+10	1	-1E+10	1	-1E+10	1
4901784	78	C	08/23/2017	10:48	-132.831	43.738	0	59.50	0	9.7680	0	32.8700	4	25.329	0	59.015	0	274.2	4	97.9	4	-1E+10	1	-1E+10	1	-1E+10	1	-1E+10	1	-1E+10	1	-1E+10	1
4901784	78	C	08/23/2017	10:48	-132.831	43.738	0	61.10	0	9.7040	0	32.8710	4	25.340	0	60.602	0	273.9	4	97.6	4	-1E+10	1	-1E+10	1	-1E+10	1	-1E+10	1	-1E+10	1	-1E+10	1
4901784	78	C	08/23/2017	10:48	-132.831	43.738	0	62.80	0	9.5620	0	32.8860	4	25.375	0	62.288	0	274.9	4	97.7	4	-1E+10	1	-1E+10	1	-1E+10	1	-1E+10	1	-1E+10	1	-1E+10	1
4901784	78	C	08/23/2017	10:48	-132.831	43.738	0	64.50	0	9.5240	0	32.8870	4	25.382	0	63.974	0	275.7	4	97.9	4	-1E+10	1	-1E+10	1	-1E+10	1	-1E+10	1	-1E+10	1	-1E+10	1
4901784	78	C	08/23/2017	10:48	-132.831	43.738	0	66.10	0	9.4520	0	32.9150	4	25.416	0	65.561	0	275.7	4	97.7	4	-1E+10	1	-1E+10	1	-1E+10	1	-1E+10	1	-1E+10	1	-1E+10	1
4901784	78	C	08/23/2017	10:48	-132.831	43.738	0	67.80	0	9.4400	0	32.9170	4	25.419	0	67.246	0	274.7	4	97.3	4	-1E+10	1	-1E+10	1	-1E+10	1	-1E+10	1	-1E+10	1	-1E+10	1
4901784	78	C	08/23/2017	10:48	-132.831	43.738	0	69.50	0	9.3630	0	32.9170	4	25.431	0	68.932	0	273.2	4	96.7	4	-1E+10	1	-1E+10	1	-1E+10	1	-1E+10	1	-1E+10	1	-1E+10	1
4901784	78	C	08/23/2017	10:48	-132.831	43.738	0	71.20	0	9.2710	0	32.9290	4	25.456	0	70.618	0	271.9	4	96.0	4	-1E+10	1	-1E+10	1	-1E+10	1	-1E+10	1	-1E+10	1	-1E+10	1
4901784	78	C	08/23/2017	10:48	-132.831	43.738	0	72.90	0	9.1960	0	32.9300	4	25.468	0	72.304	0	270.8	4	95.5	4	-1E+10	1	-1E+10	1	-1E+10	1	-1E+10	1	-1E+10	1	-1E+10	1
4901784	78	C	08/23/2017	10:48	-132.831	43.738	0	74.70	0	9.0620	0	32.9400	4	25.497	0	74.089	0	269.5	4	94.8	4	-1E+10	1	-1E+10	1	-1E+10	1	-1E+10	1	-1E+10	1	-1E+10	1
4901784	78	C	08/23/2017	10:48	-132.831	43.738	0	76.40	0	8.9470	0	32.9390	4	25.514	0	75.775	0	268.5	4	94.1	4	-1E+10	1	-1E+10	1	-1E+10	1	-1E+10	1	-1E+10	1	-1E+10	1
4901784	78	C	08/23/2017	10:48	-132.831	43.738	0	78.30	0	8.8260	0	32.9420	4	25.535	0	77.659	0	267.6	4	93.6	4	-1E+10	1	-1E+10	1	-1E+10	1	-1E+10	1	-1E+10	1	-1E+10	1
4901784	78	C	08/23/2017	10:48	-132.831	43.738	0	80.00	0	8.7820	0	32.9440	4	25.544	0	79.344	0	266.0	4	92.9	4	-1E+10	1	-1E+10	1	-1E+10	1	-1E+10	1	-1E+10	1	-1E+10	1
4901784	78	C	08/23/2017	10:48	-132.831	43.738	0	81.80	0	8.7240	0	32.9570	4	25.563	0	81.129	0	264.5	4	92.3	4	-1E+10	1	-1E+10	1	-1E+10	1	-1E+10	1	-1E+10	1	-1E+10	1
4901784	78	C	08/23/2017	10:48	-132.831	43.738	0	83.50	0	8.7120	0	32.9650	4	25.571	0	82.815	0	262.9	4	91.7	4	-1E+10	1	-1E+10	1	-1E+10	1	-1E+10	1	-1E+10	1	-1E+10	1
4901784	78	C	08/23/2017	10:48	-132.831	43.738	0	85.20	0	8.6190	0	32.9590	4	25.581	0	84.501	0	261.6	4	91.1	4	-1E+10	1	-1E+10	1	-1E+10	1	-1E+10	1	-1E+10	1	-1E+10	1
4901784	78	C	08/23/2017	10:48	-132.831	43.738	0	87.00	0	8.5580	0	32.9620	4	25.592	0	86.286	0	259.8	4	90.3	4	-1E+10	1	-1E+10	1	-1E+10	1	-1E+10	1	-1E+10	1	-1E+10	1
4901784	78	C	08/23/2017	10:48	-132.831	43.738	0	88.70	0	8.5070	0	32.9690	4	25.605	0	87.971	0	257.8	4	89.5	4	-1E+10	1	-1E+10	1	-1E+10	1	-1E+10	1	-1E+10	1	-1E+10	1
4901784	78	C	08/23/2017	10:48	-132.831	43.738	0	90.50	0	8.4830	0	32.9880	4	25.624	0	89.756	0	255.4	4	88.7	4	-1E+10	1	-1E+10	1	-1E+10	1	-1E+10	1	-1E+10	1	-1E+10	1
4901784	78	C	08/23/2017	10:48	-132.831	43.738	0	92.30	0	8.4520	0	33.0080	4	25.644	0	91.541	0	252.9	4	87.8	4	-1E+10	1	-1E+10	1	-1E+10	1	-1E+10	1	-1E+10	1	-1E+10	1
4901784	78	C	08/23/2017	10:48	-132.831	43.738	0	94.10	0	8.4640	0	33.0230	4	25.654	0	93.326	0	249.8	4	86.7	4	-1E+10	1	-1E+10	1	-1E+10	1	-1E+10	1	-1E+10	1	-1E+10	1
4901784	78	C	08/23/2017	10:48	-132.831	43.738	0	95.90	0	8.4920	0	33.0500	4	25.671	0	95.111	0	246.8	4	85.8	4	-1E+10	1	-1E+10	1	-1E+10	1	-1E+10	1	-1E+10	1	-1E+10	1
4901784	78	C	08/23/2017	10:48	-132.831	43.738	0	97.80	0	8.4900	0	33.0590	4	25.679	0	96.994	0	244.2	4	84.8	4	-1E+10	1	-1E+10	1	-1E+10	1	-1E+10	1	-1E+10	1	-1E+10	1
4901784	78	C	08/23/2017	10:48	-132.831	43.738	0	99.70	0	8.4770	0	33.0660	4	25.686	0	98.878	0	241.3	4	83.8	4	-1E+10	1	-1E+10	1	-1E+10	1	-1E+10	1	-1E+10	1	-1E+10	1
4901784	78	C	08/23/2017	10:48	-132.831	43.738	0	102.00	0	8.4620	0	33.0850	4	25.703	0	101.159	0	235.4	4	81.8	4	-1E+10	1	-1E+10	1	-1E+10	1	-1E+10	1	-1E+10	1	-1E+10	1
4901784	78	C	08/23/2017	10:48	-132.831	43.738	0	104.50	0	8.6030	0	33.1670	4	25.746	0	103.638	0	225.3	4	78.5	4	-1E+10	1	-1E+10	1	-1E+10	1	-1E+10	1	-1E+10	1	-1E+10	1
4901784	78	C	08/23/2017	10:48	-132.831	43.738	0	107.70	0	8.6920	0	33.2390	4	25.789	0	106.810	0	217.1	4	75.9	4	-1E+10	1	-1E+10	1	-1E+10	1	-1E+10	1	-1E+10	1	-1E+10	1
4901784	78	C	08/23/2017	10:48	-132.831	43.738	0	110.10	0	8.6260	0	33.2910	4	25.840	0	109.190	0	211.3	4	73.8	4	-1E+10	1	-1E+10	1	-1E+10	1	-1E+10	1	-1E+10	1	-1E+10	1
4901784	78	C	08/23/2017	10:48	-132.831	43.738	0	112.60	0	8.7850	0	33.3970	4	25.899	0	111.669	0	205.0	4	71.9	4	-1E+10	1	-1E+10	1	-1E+10	1	-1E+10	1	-1E+10	1	-1E+10	1
4901784	78	C	08/23/2017	10:48	-132.831	43.738	0	115.20	0	8.9470	0	33.4670	4	25.928	0	114.246	0	198.5	4	69.9	4	-1E+10	1	-1E+10	1	-1E+10	1	-1E+10	1	-1E+10	1	-1E+10	1
4901784	78	C	08/23/2017	10:48	-132.831	43.738	0	117.80	0	8.8160	0	33.5340	4	26.001	0	116.824	0	194.2	4	68.2	4	-1E+10	1	-1E+10	1	-1E+10	1	-1E+10	1	-1E+10	1	-1E+10	1
4901784	78	C	08/23/2017	10:48	-132.831	43.738	0	120.30	0	8.8930	0	33.5890	4	26.032	0	119.303	0	190.3	4	67.0	4	-1E+10	1	-1E+10	1	-1E+10	1	-1E+10	1	-1E+10	1	-1E+10	1
4901784	78	C	08/23/2017	10:48	-132.831	43.738	0	122.00	0	8.8880	0	33.6260	4	26.062	0	120.988	0	187.8	4	66.1	4	-1E+10	1	-1E+10	1	-1E+10	1	-1E+10	1	-1E+10	1	-1E+10	1
4901784	78	C	08/23/2017	10:48	-132.831	43.738	0	124.70	0	8.8560	0	33.6700	4	26.102	0	123.665	0	185.5	4	65.3	4	-1E+10	1	-1E+10	1	-1E+10	1	-1E+10	1	-1E+10	1	-1E+10	1
4901784	78	C	08/23/2017	10:48	-132.831	43.738	0	127.40	0	8.8220	0	33.7260	4	26.151	0	126.342	0	182.4	4	64.1	4	-1E+10	1	-1E+10	1	-1E+10	1	-1E+10	1	-1E+10	1	-1E+10	1
4901784	78	C	08/23/2017	10:48	-132.831	43.738	0	130.20	0	8.8030	0	33.7470	4	26.170	0	129.117	0	180.3	4	63.4	4	-1E+10	1	-1E+10	1	-1E+10	1	-1E+10	1	-1E+10	1	-1E+10	1
4901784	78	C	08/23/2017	10:48	-132.831	43.738	0	133.00	0	8.7500	0	33.7920	4	26.214	0	131.893	0	177.8	4	62.5	4	-1E+10	1	-1E+10	1	-1E+10	1	-1E+10	1	-1E+10	1	-1E+10	1
4901784	78	C	08/23/2017	10:48	-132.831	43.738	0	134.90	0	8.7330	0	33.8030	4	26.225	0	133.777	0	176.7	4	62.1	4	-1E+10	1	-1E+10	1	-1E+10	1	-1E+10	1	-1E+10	1	-1E+10	1
4901784	78	C	08/23/2017	10:48	-132.831	43.738	0	137.70	0	8.7150	0	33.8240	4	26.245	0	136.553	0	174.8	4	61.4	4	-1E+10	1	-1E+10	1	-1E+10	1	-1E+10	1	-1E+10	1	-1E+10	1
4901784	78	C	08/23/2017	10:48	-132.831	43.738	0	140.60	0	8.6810	0	33.8410	4	26.263	0	139.427	0	172.3	4	60.4	4	-1E+10	1	-1E+10	1	-1E+10	1	-1E+10	1	-1E+10	1	-1E+10	1
4901784	78	C	08/23/2017	10:48	-132.831	43.738	0	142.50	0	8.6690	0	33.8630	4	26.282	0	141.311	0	170.3	4	59.8	4	-1E+10	1	-1E+10	1	-1E+10	1	-1E+10	1	-1E+10	1	-1E+10	1
4901784	78	C	08/23/2017	10:48	-132.831	43.738	0	144.50	0	8.6060	0	33.8720	4	26.299	0	143.294	0	167.6	4	58.7	4	-1E+10	1	-1E+10	1	-1E+10	1	-1E+10	1	-1E+10	1	-1E+10	1
4901784	78	C	08/23/2017	10:48	-132.831	43.738	0	147.40	0	8.5100	0	33.8830	4	26.322	0	146.168	0	166.5	4	58.2	4	-1E+10	1	-1E+10	1	-1E+10	1	-1E+10	1	-1E+10	1	-1E+10	1
4901784	78	C	08/23/2017	10:48	-132.831	43.738	0	150.30	0	8.4360	0	33.9020	4	26.349	0	149.043	0	165.2	4	57.7	4	-1E+10	1	-1E+10	1	-1E+10	1	-1E+10	1	-1E+10	1	-1E+10	1
4901784	78	C	08/23/2017	10:48	-132.831	43.738	0	152.20	0	8.3860	0	33.9190	4	26.370	0	150.926	0	161.3	4	56.3	4	-1E+10	1	-1E+10	1	-1E+10	1	-1E+10	1	-1E+10	1	-1E+10	1
4901784	78	C	08/23/2017	10:48	-132.831	43.738	0	154.20	0	8.3500	0	33.9290	4	26.383	0	152.909	0	155.9	4	54.3	4	-1E+10	1	-1E+10	1	-1E+10	1	-1E+10	1	-1E+10	1	-1E+10	1
4901784	78	C	08/23/2017	10:48	-132.831	43.738	0	157.30	0	8.2920	0	33.9360	4	26.397	0	155.982	0	151.0	4	52.6	4	-1E+10	1	-1E+10	1	-1E+10	1	-1E+10	1	-1E+10	1	-1E+10	1
4901784	78	C	08/23/2017	10:48	-132.831	43.738	0	160.30	0	8.2180	0	33.9450	4	26.416	0	158.956	0	149.3	4	51.9	4	-1E+10	1	-1E+10	1	-1E+10	1	-1E+10	1	-1E+10	1	-1E+10	1
4901784	78	C	08/23/2017	10:48	-132.831	43.738	0	162.70	0	8.1930	0	33.9500	4	26.423	0	161.335	0	148.9	4	51.7	4	-1E+10	1	-1E+10	1	-1E+10	1	-1E+10	1	-1E+10	1	-1E+10	1
4901784	78	C	08/23/2017	10:48	-132.831	43.738	0	165.10	0	8.1740	0	33.9580	4	26.432	0	163.713	0	148.7	4	51.7	4	-1E+10	1	-1E+10	1	-1E+10	1	-1E+10	1	-1E+10	1	-1E+10	1
4901784	78	C	08/23/2017	10:48	-132.831	43.738	0	167.50	0	8.1590	0	33.9600	4	26.436	0	166.092	0	148.0	4	51.4	4	-1E+10	1	-1E+10	1	-1E+10	1	-1E+10	1	-1E+10	1	-1E+10	1
4901784	78	C	08/23/2017	10:48	-132.831	43.738	0	170.10	0	8.1320	0	33.9630	4	26.443	0	168.669	0	147.0	4	51.0	4	-1E+10	1	-1E+10	1	-1E+10	1	-1E+10	1	-1E+10	1	-1E+10	1
4901784	78	C	08/23/2017	10:48	-132.831	43.738	0	172.50	0	8.1230	0	33.9640	4	26.445	0	171.048	0	145.1	4	50.3	4	-1E+10	1	-1E+10	1	-1E+10	1	-1E+10	1	-1E+10	1	-1E+10	1
4901784	78	C	08/23/2017	10:48	-132.831	43.738	0	175.10	0	8.0740	0	33.9610	4	26.450	0	173.625	0	142.7	4	49.5	4	-1E+10	1	-1E+10	1	-1E+10	1	-1E+10	1	-1E+10	1	-1E+10	1
4901784	78	C	08/23/2017	10:48	-132.831	43.738	0	177.50	0	8.0160	0	33.9680	4	26.464	0	176.004	0	141.2	4	48.9	4	-1E+10	1	-1E+10	1	-1E+10	1	-1E+10	1	-1E+10	1	-1E+10	1
4901784	78	C	08/23/2017	10:48	-132.831	43.738	0	179.90	0	7.9530	0	33.9640	4	26.470	0	178.383	0	140.4	4	48.5	4	-1E+10	1	-1E+10	1	-1E+10	1	-1E+10	1	-1E+10	1	-1E+10	1
4901784	78	C	08/23/2017	10:48	-132.831	43.738	0	182.40	0	7.9150	0	33.9670	4	26.478	0	180.861	0	143.0	4	49.4	4	-1E+10	1	-1E+10	1	-1E+10	1	-1E+10	1	-1E+10	1	-1E+10	1
4901784	78	C	08/23/2017	10:48	-132.831	43.738	0	184.90	0	7.8950	0	33.9720	4	26.485	0	183.338	0	146.5	4	50.6	4	-1E+10	1	-1E+10	1	-1E+10	1	-1E+10	1	-1E+10	1	-1E+10	1
4901784	78	C	08/23/2017	10:48	-132.831	43.738	0	187.50	0	7.8780	0	33.9750	4	26.490	0	185.915	0	150.5	4	51.9	4	-1E+10	1	-1E+10	1	-1E+10	1	-1E+10	1	-1E+10	1	-1E+10	1
4901784	78	C	08/23/2017	10:48	-132.831	43.738	0	190.00	0	7.8700	0	33.9760	4	26.492	0	188.393	0	153.2	4	52.9	4	-1E+10	1	-1E+10	1	-1E+10	1	-1E+10	1	-1E+10	1	-1E+10	1
4901784	78	C	08/23/2017	10:48	-132.831	43.738	0	192.60	0	7.8160	0	33.9800	4	26.503	0	190.970	0	154.0	4	53.1	4	-1E+10	1	-1E+10	1	-1E+10	1	-1E+10	1	-1E+10	1	-1E+10	1
4901784	78	C	08/23/2017	10:48	-132.831	43.738	0	195.20	0	7.7440	0	33.9790	4	26.513	0	193.547	0	149.8	4	51.5	4	-1E+10	1	-1E+10	1	-1E+10	1	-1E+10	1	-1E+10	1	-1E+10	1
4901784	78	C	08/23/2017	10:48	-132.831	43.738	0	197.80	0	7.7070	0	33.9820	4	26.520	0	196.123	0	142.0	4	48.8	4	-1E+10	1	-1E+10	1	-1E+10	1	-1E+10	1	-1E+10	1	-1E+10	1
4901784	78	C	08/23/2017	10:48	-132.831	43.738	0	200.40	0	7.6440	0	33.9870	4	26.533	0	198.700	0	137.7	4	47.3	4	-1E+10	1	-1E+10	1	-1E+10	1	-1E+10	1	-1E+10	1	-1E+10	1
4901784	78	C	08/23/2017	10:48	-132.831	43.738	0	202.90	0	7.6280	0	33.9880	4	26.536	0	201.178	0	139.3	4	47.8	4	-1E+10	1	-1E+10	1	-1E+10	1	-1E+10	1	-1E+10	1	-1E+10	1
4901784	78	C	08/23/2017	10:48	-132.831	43.738	0	205.40	0	7.5830	0	33.9890	4	26.544	0	203.655	0	140.9	4	48.3	4	-1E+10	1	-1E+10	1	-1E+10	1	-1E+10	1	-1E+10	1	-1E+10	1
4901784	78	C	08/23/2017	10:48	-132.831	43.738	0	207.20	0	7.5590	0	33.9900	4	26.548	0	205.439	0	141.0	4	48.3	4	-1E+10	1	-1E+10	1	-1E+10	1	-1E+10	1	-1E+10	1	-1E+10	1
4901784	78	C	08/23/2017	10:48	-132.831	43.738	0	209.70	0	7.5260	0	33.9900	4	26.553	0	207.916	0	139.6	4	47.8	4	-1E+10	1	-1E+10	1	-1E+10	1	-1E+10	1	-1E+10	1	-1E+10	1
4901784	78	C	08/23/2017	10:48	-132.831	43.738	0	212.20	0	7.4970	0	33.9900	4	26.557	0	210.394	0	140.1	4	47.9	4	-1E+10	1	-1E+10	1	-1E+10	1	-1E+10	1	-1E+10	1	-1E+10	1
4901784	78	C	08/23/2017	10:48	-132.831	43.738	0	214.80	0	7.4110	0	33.9890	4	26.568	0	212.970	0	140.3	4	47.9	4	-1E+10	1	-1E+10	1	-1E+10	1	-1E+10	1	-1E+10	1	-1E+10	1
4901784	78	C	08/23/2017	10:48	-132.831	43.738	0	217.40	0	7.3610	0	33.9910	4	26.577	0	215.547	0	138.9	4	47.4	4	-1E+10	1	-1E+10	1	-1E+10	1	-1E+10	1	-1E+10	1	-1E+10	1
4901784	78	C	08/23/2017	10:48	-132.831	43.738	0	219.90	0	7.3280	0	33.9930	4	26.583	0	218.024	0	136.8	4	46.6	4	-1E+10	1	-1E+10	1	-1E+10	1	-1E+10	1	-1E+10	1	-1E+10	1
4901784	78	C	08/23/2017	10:48	-132.831	43.738	0	222.40	0	7.3070	0	33.9940	4	26.587	0	220.502	0	135.5	4	46.2	4	-1E+10	1	-1E+10	1	-1E+10	1	-1E+10	1	-1E+10	1	-1E+10	1
4901784	78	C	08/23/2017	10:48	-132.831	43.738	0	225.00	0	7.2810	0	33.9940	4	26.591	0	223.078	0	135.0	4	46.0	4	-1E+10	1	-1E+10	1	-1E+10	1	-1E+10	1	-1E+10	1	-1E+10	1
4901784	78	C	08/23/2017	10:48	-132.831	43.738	0	227.50	0	7.2330	0	33.9920	4	26.596	0	225.555	0	135.2	4	46.0	4	-1E+10	1	-1E+10	1	-1E+10	1	-1E+10	1	-1E+10	1	-1E+10	1
4901784	78	C	08/23/2017	10:48	-132.831	43.738	0	230.10	0	7.2030	0	33.9920	4	26.600	0	228.132	0	132.8	4	45.1	4	-1E+10	1	-1E+10	1	-1E+10	1	-1E+10	1	-1E+10	1	-1E+10	1
4901784	78	C	08/23/2017	10:48	-132.831	43.738	0	232.60	0	7.1760	0	33.9940	4	26.605	0	230.609	0	131.3	4	44.6	4	-1E+10	1	-1E+10	1	-1E+10	1	-1E+10	1	-1E+10	1	-1E+10	1
4901784	78	C	08/23/2017	10:48	-132.831	43.738	0	235.30	0	7.1570	0	33.9970	4	26.610	0	233.284	0	129.9	4	44.1	4	-1E+10	1	-1E+10	1	-1E+10	1	-1E+10	1	-1E+10	1	-1E+10	1
4901784	78	C	08/23/2017	10:48	-132.831	43.738	0	237.90	0	7.1400	0	34.0010	4	26.616	0	235.860	0	132.2	4	44.9	4	-1E+10	1	-1E+10	1	-1E+10	1	-1E+10	1	-1E+10	1	-1E+10	1
4901784	78	C	08/23/2017	10:48	-132.831	43.738	0	239.70	0	7.1110	0	33.9960	4	26.616	0	237.644	0	136.4	4	46.3	4	-1E+10	1	-1E+10	1	-1E+10	1	-1E+10	1	-1E+10	1	-1E+10	1
4901784	78	C	08/23/2017	10:48	-132.831	43.738	0	242.30	0	7.0510	0	33.9930	4	26.622	0	240.220	0	137.7	4	46.6	4	-1E+10	1	-1E+10	1	-1E+10	1	-1E+10	1	-1E+10	1	-1E+10	1
4901784	78	C	08/23/2017	10:48	-132.831	43.738	0	244.90	0	7.0120	0	33.9930	4	26.627	0	242.796	0	137.0	4	46.3	4	-1E+10	1	-1E+10	1	-1E+10	1	-1E+10	1	-1E+10	1	-1E+10	1
4901784	78	C	08/23/2017	10:48	-132.831	43.738	0	247.60	0	7.0030	0	33.9920	4	26.628	0	245.472	0	135.5	4	45.8	4	-1E+10	1	-1E+10	1	-1E+10	1	-1E+10	1	-1E+10	1	-1E+10	1
4901784	78	C	08/23/2017	10:48	-132.831	43.738	0	250.30	0	6.9980	0	33.9950	4	26.631	0	248.147	0	133.5	4	45.1	4	-1E+10	1	-1E+10	1	-1E+10	1	-1E+10	1	-1E+10	1	-1E+10	1
4901784	78	C	08/23/2017	10:48	-132.831	43.738	0	252.00	0	6.9860	0	33.9960	4	26.633	0	249.831	0	132.6	4	44.8	4	-1E+10	1	-1E+10	1	-1E+10	1	-1E+10	1	-1E+10	1	-1E+10	1
4901784	78	C	08/23/2017	10:48	-132.831	43.738	0	254.70	0	6.9470	0	33.9970	4	26.639	0	252.506	0	131.3	4	44.4	4	-1E+10	1	-1E+10	1	-1E+10	1	-1E+10	1	-1E+10	1	-1E+10	1
4901784	78	C	08/23/2017	10:48	-132.831	43.738	0	257.40	0	6.9060	0	33.9970	4	26.645	0	255.181	0	129.3	4	43.7	4	-1E+10	1	-1E+10	1	-1E+10	1	-1E+10	1	-1E+10	1	-1E+10	1
4901784	78	C	08/23/2017	10:48	-132.831	43.738	0	260.10	0	6.8720	0	33.9960	4	26.649	0	257.856	0	128.1	4	43.2	4	-1E+10	1	-1E+10	1	-1E+10	1	-1E+10	1	-1E+10	1	-1E+10	1
4901784	78	C	08/23/2017	10:48	-132.831	43.738	0	262.90	0	6.8220	0	33.9960	4	26.656	0	260.630	0	126.7	4	42.7	4	-1E+10	1	-1E+10	1	-1E+10	1	-1E+10	1	-1E+10	1	-1E+10	1
4901784	78	C	08/23/2017	10:48	-132.831	43.738	0	264.80	0	6.7920	0	33.9970	4	26.660	0	262.513	0	126.0	4	42.4	4	-1E+10	1	-1E+10	1	-1E+10	1	-1E+10	1	-1E+10	1	-1E+10	1
4901784	78	C	08/23/2017	10:48	-132.831	43.738	0	267.50	0	6.7490	0	33.9970	4	26.666	0	265.188	0	124.8	4	42.0	4	-1E+10	1	-1E+10	1	-1E+10	1	-1E+10	1	-1E+10	1	-1E+10	1
4901784	78	C	08/23/2017	10:48	-132.831	43.738	0	270.30	0	6.7280	0	33.9970	4	26.669	0	267.962	0	122.7	4	41.2	4	-1E+10	1	-1E+10	1	-1E+10	1	-1E+10	1	-1E+10	1	-1E+10	1
4901784	78	C	08/23/2017	10:48	-132.831	43.738	0	272.00	0	6.7330	0	33.9970	4	26.668	0	269.646	0	120.8	4	40.6	4	-1E+10	1	-1E+10	1	-1E+10	1	-1E+10	1	-1E+10	1	-1E+10	1
4901784	78	C	08/23/2017	10:48	-132.831	43.738	0	274.80	0	6.6860	0	33.9990	4	26.676	0	272.420	0	118.5	4	39.8	4	-1E+10	1	-1E+10	1	-1E+10	1	-1E+10	1	-1E+10	1	-1E+10	1
4901784	78	C	08/23/2017	10:48	-132.831	43.738	0	277.40	0	6.6170	0	33.9990	4	26.685	0	274.996	0	117.2	4	39.3	4	-1E+10	1	-1E+10	1	-1E+10	1	-1E+10	1	-1E+10	1	-1E+10	1
4901784	78	C	08/23/2017	10:48	-132.831	43.738	0	280.10	0	6.5870	0	34.0020	4	26.692	0	277.670	0	116.7	4	39.1	4	-1E+10	1	-1E+10	1	-1E+10	1	-1E+10	1	-1E+10	1	-1E+10	1
4901784	78	C	08/23/2017	10:48	-132.831	43.738	0	282.80	0	6.5410	0	33.9990	4	26.695	0	280.345	0	117.0	4	39.2	4	-1E+10	1	-1E+10	1	-1E+10	1	-1E+10	1	-1E+10	1	-1E+10	1
4901784	78	C	08/23/2017	10:48	-132.831	43.738	0	284.60	0	6.4990	0	33.9950	4	26.698	0	282.128	0	117.2	4	39.2	4	-1E+10	1	-1E+10	1	-1E+10	1	-1E+10	1	-1E+10	1	-1E+10	1
4901784	78	C	08/23/2017	10:48	-132.831	43.738	0	287.30	0	6.4220	0	33.9930	4	26.706	0	284.803	0	115.2	4	38.5	4	-1E+10	1	-1E+10	1	-1E+10	1	-1E+10	1	-1E+10	1	-1E+10	1
4901784	78	C	08/23/2017	10:48	-132.831	43.738	0	290.00	0	6.3590	0	33.9910	4	26.713	0	287.478	0	111.6	4	37.2	4	-1E+10	1	-1E+10	1	-1E+10	1	-1E+10	1	-1E+10	1	-1E+10	1
4901784	78	C	08/23/2017	10:48	-132.831	43.738	0	292.80	0	6.3080	0	33.9950	4	26.723	0	290.251	0	106.5	4	35.5	4	-1E+10	1	-1E+10	1	-1E+10	1	-1E+10	1	-1E+10	1	-1E+10	1
4901784	78	C	08/23/2017	10:48	-132.831	43.738	0	295.40	0	6.2990	0	33.9980	4	26.726	0	292.827	0	98.9	4	32.9	4	-1E+10	1	-1E+10	1	-1E+10	1	-1E+10	1	-1E+10	1	-1E+10	1
4901784	78	C	08/23/2017	10:48	-132.831	43.738	0	297.30	0	6.3060	0	34.0050	4	26.731	0	294.709	0	92.4	4	30.8	4	-1E+10	1	-1E+10	1	-1E+10	1	-1E+10	1	-1E+10	1	-1E+10	1
4901784	78	C	08/23/2017	10:48	-132.831	43.738	0	300.00	0	6.3590	0	34.0250	4	26.740	0	297.384	0	85.8	4	28.6	4	-1E+10	1	-1E+10	1	-1E+10	1	-1E+10	1	-1E+10	1	-1E+10	1
4901784	78	C	08/23/2017	10:48	-132.831	43.738	0	302.70	0	6.3660	0	34.0380	4	26.749	0	300.058	0	79.5	4	26.5	4	-1E+10	1	-1E+10	1	-1E+10	1	-1E+10	1	-1E+10	1	-1E+10	1
4901784	78	C	08/23/2017	10:48	-132.831	43.738	0	304.50	0	6.3890	0	34.0440	4	26.751	0	301.841	0	78.1	4	26.1	4	-1E+10	1	-1E+10	1	-1E+10	1	-1E+10	1	-1E+10	1	-1E+10	1
4901784	78	C	08/23/2017	10:48	-132.831	43.738	0	307.30	0	6.3680	0	34.0450	4	26.755	0	304.614	0	77.0	4	25.7	4	-1E+10	1	-1E+10	1	-1E+10	1	-1E+10	1	-1E+10	1	-1E+10	1
4901784	78	C	08/23/2017	10:48	-132.831	43.738	0	310.00	0	6.3420	0	34.0450	4	26.758	0	307.289	0	75.9	4	25.3	4	-1E+10	1	-1E+10	1	-1E+10	1	-1E+10	1	-1E+10	1	-1E+10	1
4901784	78	C	08/23/2017	10:48	-132.831	43.738	0	312.70	0	6.3080	0	34.0470	4	26.764	0	309.963	0	75.2	4	25.0	4	-1E+10	1	-1E+10	1	-1E+10	1	-1E+10	1	-1E+10	1	-1E+10	1
4901784	78	C	08/23/2017	10:48	-132.831	43.738	0	315.40	0	6.2610	0	34.0460	4	26.769	0	312.638	0	74.8	4	24.9	4	-1E+10	1	-1E+10	1	-1E+10	1	-1E+10	1	-1E+10	1	-1E+10	1
4901784	78	C	08/23/2017	10:48	-132.831	43.738	0	317.20	0	6.2460	0	34.0450	4	26.770	0	314.420	0	74.0	4	24.6	4	-1E+10	1	-1E+10	1	-1E+10	1	-1E+10	1	-1E+10	1	-1E+10	1
4901784	78	C	08/23/2017	10:48	-132.831	43.738	0	320.00	0	6.2180	0	34.0470	4	26.776	0	317.194	0	72.4	4	24.0	4	-1E+10	1	-1E+10	1	-1E+10	1	-1E+10	1	-1E+10	1	-1E+10	1
4901784	78	C	08/23/2017	10:48	-132.831	43.738	0	322.70	0	6.1750	0	34.0520	4	26.785	0	319.868	0	71.3	4	23.7	4	-1E+10	1	-1E+10	1	-1E+10	1	-1E+10	1	-1E+10	1	-1E+10	1
4901784	78	C	08/23/2017	10:48	-132.831	43.738	0	324.60	0	6.1570	0	34.0530	4	26.788	0	321.750	0	71.1	4	23.6	4	-1E+10	1	-1E+10	1	-1E+10	1	-1E+10	1	-1E+10	1	-1E+10	1
4901784	78	C	08/23/2017	10:48	-132.831	43.738	0	327.50	0	6.1190	0	34.0530	4	26.793	0	324.622	0	71.2	4	23.6	4	-1E+10	1	-1E+10	1	-1E+10	1	-1E+10	1	-1E+10	1	-1E+10	1
4901784	78	C	08/23/2017	10:48	-132.831	43.738	0	330.30	0	6.0900	0	34.0510	4	26.795	0	327.395	0	71.3	4	23.6	4	-1E+10	1	-1E+10	1	-1E+10	1	-1E+10	1	-1E+10	1	-1E+10	1
4901784	78	C	08/23/2017	10:48	-132.831	43.738	0	332.20	0	6.0650	0	34.0500	4	26.798	0	329.277	0	71.2	4	23.6	4	-1E+10	1	-1E+10	1	-1E+10	1	-1E+10	1	-1E+10	1	-1E+10	1
4901784	78	C	08/23/2017	10:48	-132.831	43.738	0	335.00	0	6.0120	0	34.0480	4	26.803	0	332.050	0	70.4	4	23.3	4	-1E+10	1	-1E+10	1	-1E+10	1	-1E+10	1	-1E+10	1	-1E+10	1
4901784	78	C	08/23/2017	10:48	-132.831	43.738	0	337.80	0	5.9710	0	34.0500	4	26.809	0	334.823	0	68.5	4	22.6	4	-1E+10	1	-1E+10	1	-1E+10	1	-1E+10	1	-1E+10	1	-1E+10	1
4901784	78	C	08/23/2017	10:48	-132.831	43.738	0	339.70	0	5.9760	0	34.0530	4	26.811	0	336.705	0	66.9	4	22.1	4	-1E+10	1	-1E+10	1	-1E+10	1	-1E+10	1	-1E+10	1	-1E+10	1
4901784	78	C	08/23/2017	10:48	-132.831	43.738	0	342.60	0	5.9690	0	34.0610	4	26.818	0	339.577	0	65.7	4	21.7	4	-1E+10	1	-1E+10	1	-1E+10	1	-1E+10	1	-1E+10	1	-1E+10	1
4901784	78	C	08/23/2017	10:48	-132.831	43.738	0	345.30	0	5.9550	0	34.0620	4	26.821	0	342.251	0	65.9	4	21.8	4	-1E+10	1	-1E+10	1	-1E+10	1	-1E+10	1	-1E+10	1	-1E+10	1
4901784	78	C	08/23/2017	10:48	-132.831	43.738	0	347.80	0	5.9140	0	34.0600	4	26.825	0	344.727	0	66.2	4	21.8	4	-1E+10	1	-1E+10	1	-1E+10	1	-1E+10	1	-1E+10	1	-1E+10	1
4901784	78	C	08/23/2017	10:48	-132.831	43.738	0	349.70	0	5.8850	0	34.0590	4	26.827	0	346.609	0	66.1	4	21.8	4	-1E+10	1	-1E+10	1	-1E+10	1	-1E+10	1	-1E+10	1	-1E+10	1
4901784	78	C	08/23/2017	10:48	-132.831	43.738	0	352.10	0	5.8520	0	34.0610	4	26.833	0	348.985	0	65.9	4	21.7	4	-1E+10	1	-1E+10	1	-1E+10	1	-1E+10	1	-1E+10	1	-1E+10	1
4901784	78	C	08/23/2017	10:48	-132.831	43.738	0	355.30	0	5.8240	0	34.0590	4	26.835	0	352.154	0	66.6	4	21.9	4	-1E+10	1	-1E+10	1	-1E+10	1	-1E+10	1	-1E+10	1	-1E+10	1
4901784	78	C	08/23/2017	10:48	-132.831	43.738	0	357.60	0	5.7910	0	34.0560	4	26.837	0	354.432	0	67.4	4	22.2	4	-1E+10	1	-1E+10	1	-1E+10	1	-1E+10	1	-1E+10	1	-1E+10	1
4901784	78	C	08/23/2017	10:48	-132.831	43.738	0	360.10	0	5.7390	0	34.0520	4	26.840	0	356.908	0	67.8	4	22.3	4	-1E+10	1	-1E+10	1	-1E+10	1	-1E+10	1	-1E+10	1	-1E+10	1
4901784	78	C	08/23/2017	10:48	-132.831	43.738	0	362.50	0	5.6450	0	34.0470	4	26.847	0	359.284	0	67.6	4	22.2	4	-1E+10	1	-1E+10	1	-1E+10	1	-1E+10	1	-1E+10	1	-1E+10	1
4901784	78	C	08/23/2017	10:48	-132.831	43.738	0	365.00	0	5.6600	0	34.0510	4	26.849	0	361.760	0	66.1	4	21.7	4	-1E+10	1	-1E+10	1	-1E+10	1	-1E+10	1	-1E+10	1	-1E+10	1
4901784	78	C	08/23/2017	10:48	-132.831	43.738	0	367.40	0	5.6490	0	34.0540	4	26.852	0	364.136	0	65.5	4	21.5	4	-1E+10	1	-1E+10	1	-1E+10	1	-1E+10	1	-1E+10	1	-1E+10	1
4901784	78	C	08/23/2017	10:48	-132.831	43.738	0	369.80	0	5.6480	0	34.0560	4	26.854	0	366.513	0	64.3	4	21.1	4	-1E+10	1	-1E+10	1	-1E+10	1	-1E+10	1	-1E+10	1	-1E+10	1
4901784	78	C	08/23/2017	10:48	-132.831	43.738	0	372.30	0	5.6550	0	34.0580	4	26.855	0	368.989	0	63.0	4	20.7	4	-1E+10	1	-1E+10	1	-1E+10	1	-1E+10	1	-1E+10	1	-1E+10	1
4901784	78	C	08/23/2017	10:48	-132.831	43.738	0	374.80	0	5.6880	0	34.0650	4	26.857	0	371.464	0	62.7	4	20.6	4	-1E+10	1	-1E+10	1	-1E+10	1	-1E+10	1	-1E+10	1	-1E+10	1
4901784	78	C	08/23/2017	10:48	-132.831	43.738	0	377.10	0	5.6250	0	34.0600	4	26.860	0	373.742	0	63.2	4	20.7	4	-1E+10	1	-1E+10	1	-1E+10	1	-1E+10	1	-1E+10	1	-1E+10	1
4901784	78	C	08/23/2017	10:48	-132.831	43.738	0	379.70	0	5.5890	0	34.0610	4	26.865	0	376.316	0	63.0	4	20.6	4	-1E+10	1	-1E+10	1	-1E+10	1	-1E+10	1	-1E+10	1	-1E+10	1
4901784	78	C	08/23/2017	10:48	-132.831	43.738	0	382.20	0	5.5670	0	34.0610	4	26.868	0	378.792	0	62.9	4	20.6	4	-1E+10	1	-1E+10	1	-1E+10	1	-1E+10	1	-1E+10	1	-1E+10	1
4901784	78	C	08/23/2017	10:48	-132.831	43.738	0	384.70	0	5.5530	0	34.0580	4	26.867	0	381.267	0	63.0	4	20.6	4	-1E+10	1	-1E+10	1	-1E+10	1	-1E+10	1	-1E+10	1	-1E+10	1
4901784	78	C	08/23/2017	10:48	-132.831	43.738	0	387.20	0	5.4440	0	34.0550	4	26.878	0	383.742	0	63.0	4	20.6	4	-1E+10	1	-1E+10	1	-1E+10	1	-1E+10	1	-1E+10	1	-1E+10	1
4901784	78	C	08/23/2017	10:48	-132.831	43.738	0	389.80	0	5.4200	0	34.0560	4	26.882	0	386.317	0	62.3	4	20.3	4	-1E+10	1	-1E+10	1	-1E+10	1	-1E+10	1	-1E+10	1	-1E+10	1
4901784	78	C	08/23/2017	10:48	-132.831	43.738	0	392.30	0	5.4190	0	34.0560	4	26.882	0	388.792	0	61.3	4	20.0	4	-1E+10	1	-1E+10	1	-1E+10	1	-1E+10	1	-1E+10	1	-1E+10	1
4901784	78	C	08/23/2017	10:48	-132.831	43.738	0	394.90	0	5.3950	0	34.0580	4	26.886	0	391.366	0	59.7	4	19.5	4	-1E+10	1	-1E+10	1	-1E+10	1	-1E+10	1	-1E+10	1	-1E+10	1
4901784	78	C	08/23/2017	10:48	-132.831	43.738	0	397.50	0	5.4320	0	34.0690	4	26.891	0	393.941	0	58.0	4	18.9	4	-1E+10	1	-1E+10	1	-1E+10	1	-1E+10	1	-1E+10	1	-1E+10	1
4901784	78	C	08/23/2017	10:48	-132.831	43.738	0	400.00	0	5.3920	0	34.0650	4	26.892	0	396.416	0	57.3	4	18.7	4	-1E+10	1	-1E+10	1	-1E+10	1	-1E+10	1	-1E+10	1	-1E+10	1
4901784	78	C	08/23/2017	10:48	-132.831	43.738	0	402.70	0	5.3910	0	34.0720	4	26.898	0	399.089	0	55.6	4	18.1	4	-1E+10	1	-1E+10	1	-1E+10	1	-1E+10	1	-1E+10	1	-1E+10	1
4901784	78	C	08/23/2017	10:48	-132.831	43.738	0	405.30	0	5.3950	0	34.0780	4	26.902	0	401.663	0	54.2	4	17.7	4	-1E+10	1	-1E+10	1	-1E+10	1	-1E+10	1	-1E+10	1	-1E+10	1
4901784	78	C	08/23/2017	10:48	-132.831	43.738	0	407.90	0	5.4100	0	34.0810	4	26.903	0	404.237	0	53.5	4	17.5	4	-1E+10	1	-1E+10	1	-1E+10	1	-1E+10	1	-1E+10	1	-1E+10	1
4901784	78	C	08/23/2017	10:48	-132.831	43.738	0	409.70	0	5.3850	0	34.0810	4	26.906	0	406.019	0	53.3	4	17.4	4	-1E+10	1	-1E+10	1	-1E+10	1	-1E+10	1	-1E+10	1	-1E+10	1
4901784	78	C	08/23/2017	10:48	-132.831	43.738	0	412.30	0	5.3610	0	34.0840	4	26.911	0	408.593	0	52.7	4	17.2	4	-1E+10	1	-1E+10	1	-1E+10	1	-1E+10	1	-1E+10	1	-1E+10	1
4901784	78	C	08/23/2017	10:48	-132.831	43.738	0	414.90	0	5.3150	0	34.0810	4	26.914	0	411.167	0	52.2	4	17.0	4	-1E+10	1	-1E+10	1	-1E+10	1	-1E+10	1	-1E+10	1	-1E+10	1
4901784	78	C	08/23/2017	10:48	-132.831	43.738	0	417.60	0	5.2890	0	34.0850	4	26.920	0	413.841	0	51.1	4	16.6	4	-1E+10	1	-1E+10	1	-1E+10	1	-1E+10	1	-1E+10	1	-1E+10	1
4901784	78	C	08/23/2017	10:48	-132.831	43.738	0	420.30	0	5.2820	0	34.0880	4	26.924	0	416.513	0	50.1	4	16.3	4	-1E+10	1	-1E+10	1	-1E+10	1	-1E+10	1	-1E+10	1	-1E+10	1
4901784	78	C	08/23/2017	10:48	-132.831	43.738	0	422.10	0	5.2770	0	34.0890	4	26.925	0	418.295	0	49.4	4	16.1	4	-1E+10	1	-1E+10	1	-1E+10	1	-1E+10	1	-1E+10	1	-1E+10	1
4901784	78	C	08/23/2017	10:48	-132.831	43.738	0	424.80	0	5.2670	0	34.0910	4	26.928	0	420.968	0	47.9	4	15.6	4	-1E+10	1	-1E+10	1	-1E+10	1	-1E+10	1	-1E+10	1	-1E+10	1
4901784	78	C	08/23/2017	10:48	-132.831	43.738	0	427.50	0	5.2590	0	34.0950	4	26.932	0	423.641	0	46.1	4	15.0	4	-1E+10	1	-1E+10	1	-1E+10	1	-1E+10	1	-1E+10	1	-1E+10	1
4901784	78	C	08/23/2017	10:48	-132.831	43.738	0	430.20	0	5.2400	0	34.1030	4	26.940	0	426.314	0	44.3	4	14.4	4	-1E+10	1	-1E+10	1	-1E+10	1	-1E+10	1	-1E+10	1	-1E+10	1
4901784	78	C	08/23/2017	10:48	-132.831	43.738	0	432.90	0	5.2970	0	34.1160	4	26.944	0	428.987	0	42.7	4	13.9	4	-1E+10	1	-1E+10	1	-1E+10	1	-1E+10	1	-1E+10	1	-1E+10	1
4901784	78	C	08/23/2017	10:48	-132.831	43.738	0	434.70	0	5.2950	0	34.1160	4	26.944	0	430.769	0	42.2	4	13.7	4	-1E+10	1	-1E+10	1	-1E+10	1	-1E+10	1	-1E+10	1	-1E+10	1
4901784	78	C	08/23/2017	10:48	-132.831	43.738	0	437.40	0	5.2900	0	34.1200	4	26.948	0	433.442	0	41.3	4	13.5	4	-1E+10	1	-1E+10	1	-1E+10	1	-1E+10	1	-1E+10	1	-1E+10	1
4901784	78	C	08/23/2017	10:48	-132.831	43.738	0	440.20	0	5.2730	0	34.1220	4	26.952	0	436.213	0	40.8	4	13.3	4	-1E+10	1	-1E+10	1	-1E+10	1	-1E+10	1	-1E+10	1	-1E+10	1
4901784	78	C	08/23/2017	10:48	-132.831	43.738	0	442.00	0	5.2580	0	34.1220	4	26.954	0	437.995	0	40.5	4	13.2	4	-1E+10	1	-1E+10	1	-1E+10	1	-1E+10	1	-1E+10	1	-1E+10	1
4901784	78	C	08/23/2017	10:48	-132.831	43.738	0	444.70	0	5.2260	0	34.1250	4	26.960	0	440.668	0	40.1	4	13.0	4	-1E+10	1	-1E+10	1	-1E+10	1	-1E+10	1	-1E+10	1	-1E+10	1
4901784	78	C	08/23/2017	10:48	-132.831	43.738	0	447.40	0	5.1700	0	34.1280	4	26.969	0	443.340	0	39.7	4	12.9	4	-1E+10	1	-1E+10	1	-1E+10	1	-1E+10	1	-1E+10	1	-1E+10	1
4901784	78	C	08/23/2017	10:48	-132.831	43.738	0	450.20	0	5.1540	0	34.1300	4	26.972	0	446.112	0	39.4	4	12.8	4	-1E+10	1	-1E+10	1	-1E+10	1	-1E+10	1	-1E+10	1	-1E+10	1
4901784	78	C	08/23/2017	10:48	-132.831	43.738	0	453.00	0	5.1390	0	34.1300	4	26.974	0	448.884	0	39.1	4	12.7	4	-1E+10	1	-1E+10	1	-1E+10	1	-1E+10	1	-1E+10	1	-1E+10	1
4901784	78	C	08/23/2017	10:48	-132.831	43.738	0	455.00	0	5.1360	0	34.1300	4	26.974	0	450.863	0	38.9	4	12.6	4	-1E+10	1	-1E+10	1	-1E+10	1	-1E+10	1	-1E+10	1	-1E+10	1
4901784	78	C	08/23/2017	10:48	-132.831	43.738	0	457.80	0	5.1270	0	34.1310	4	26.976	0	453.635	0	38.6	4	12.5	4	-1E+10	1	-1E+10	1	-1E+10	1	-1E+10	1	-1E+10	1	-1E+10	1
4901784	78	C	08/23/2017	10:48	-132.831	43.738	0	460.60	0	5.0900	0	34.1320	4	26.981	0	456.406	0	38.5	4	12.5	4	-1E+10	1	-1E+10	1	-1E+10	1	-1E+10	1	-1E+10	1	-1E+10	1
4901784	78	C	08/23/2017	10:48	-132.831	43.738	0	462.60	0	5.0770	0	34.1320	4	26.983	0	458.386	0	38.3	4	12.4	4	-1E+10	1	-1E+10	1	-1E+10	1	-1E+10	1	-1E+10	1	-1E+10	1
4901784	78	C	08/23/2017	10:48	-132.831	43.738	0	464.50	0	5.0720	0	34.1370	4	26.987	0	460.266	0	38.3	4	12.4	4	-1E+10	1	-1E+10	1	-1E+10	1	-1E+10	1	-1E+10	1	-1E+10	1
4901784	78	C	08/23/2017	10:48	-132.831	43.738	0	467.40	0	5.0410	0	34.1330	4	26.988	0	463.137	0	38.3	4	12.4	4	-1E+10	1	-1E+10	1	-1E+10	1	-1E+10	1	-1E+10	1	-1E+10	1
4901784	78	C	08/23/2017	10:48	-132.831	43.738	0	470.30	0	5.0080	0	34.1270	4	26.987	0	466.007	0	38.3	4	12.4	4	-1E+10	1	-1E+10	1	-1E+10	1	-1E+10	1	-1E+10	1	-1E+10	1
4901784	78	C	08/23/2017	10:48	-132.831	43.738	0	472.20	0	4.9680	0	34.1290	4	26.993	0	467.887	0	37.9	4	12.2	4	-1E+10	1	-1E+10	1	-1E+10	1	-1E+10	1	-1E+10	1	-1E+10	1
4901784	78	C	08/23/2017	10:48	-132.831	43.738	0	474.70	0	5.0330	0	34.1390	4	26.993	0	470.362	0	37.3	4	12.1	4	-1E+10	1	-1E+10	1	-1E+10	1	-1E+10	1	-1E+10	1	-1E+10	1
4901784	78	C	08/23/2017	10:48	-132.831	43.738	0	477.40	0	4.9930	0	34.1360	4	26.995	0	473.034	0	38.0	4	12.3	4	-1E+10	1	-1E+10	1	-1E+10	1	-1E+10	1	-1E+10	1	-1E+10	1
4901784	78	C	08/23/2017	10:48	-132.831	43.738	0	479.80	0	4.9040	0	34.1310	4	27.002	0	475.409	0	38.3	4	12.3	4	-1E+10	1	-1E+10	1	-1E+10	1	-1E+10	1	-1E+10	1	-1E+10	1
4901784	78	C	08/23/2017	10:48	-132.831	43.738	0	482.20	0	4.9240	0	34.1340	4	27.002	0	477.785	0	38.0	4	12.3	4	-1E+10	1	-1E+10	1	-1E+10	1	-1E+10	1	-1E+10	1	-1E+10	1
4901784	78	C	08/23/2017	10:48	-132.831	43.738	0	484.60	0	4.9440	0	34.1350	4	27.000	0	480.160	0	38.3	4	12.4	4	-1E+10	1	-1E+10	1	-1E+10	1	-1E+10	1	-1E+10	1	-1E+10	1
4901784	78	C	08/23/2017	10:48	-132.831	43.738	0	487.10	0	4.8600	0	34.1290	4	27.005	0	482.634	0	39.0	4	12.6	4	-1E+10	1	-1E+10	1	-1E+10	1	-1E+10	1	-1E+10	1	-1E+10	1
4901784	78	C	08/23/2017	10:48	-132.831	43.738	0	490.30	0	4.8180	0	34.1260	4	27.007	0	485.801	0	39.2	4	12.6	4	-1E+10	1	-1E+10	1	-1E+10	1	-1E+10	1	-1E+10	1	-1E+10	1
4901784	78	C	08/23/2017	10:48	-132.831	43.738	0	492.80	0	4.7640	0	34.1220	4	27.010	0	488.275	0	39.4	4	12.7	4	-1E+10	1	-1E+10	1	-1E+10	1	-1E+10	1	-1E+10	1	-1E+10	1
4901784	78	C	08/23/2017	10:48	-132.831	43.738	0	495.30	0	4.7440	0	34.1210	4	27.012	0	490.749	0	39.1	4	12.6	4	-1E+10	1	-1E+10	1	-1E+10	1	-1E+10	1	-1E+10	1	-1E+10	1
4901784	78	C	08/23/2017	10:48	-132.831	43.738	0	497.80	0	4.7190	0	34.1210	4	27.014	0	493.223	0	38.7	4	12.4	4	-1E+10	1	-1E+10	1	-1E+10	1	-1E+10	1	-1E+10	1	-1E+10	1
4901784	78	C	08/23/2017	10:48	-132.831	43.738	0	500.30	0	4.6870	0	34.1210	4	27.018	0	495.697	0	38.0	4	12.2	4	-1E+10	1	-1E+10	1	-1E+10	1	-1E+10	1	-1E+10	1	-1E+10	1
4901784	78	C	08/23/2017	10:48	-132.831	43.738	0	504.50	0	4.6710	0	34.1290	4	27.026	0	499.854	0	36.7	4	11.8	4	-1E+10	1	-1E+10	1	-1E+10	1	-1E+10	1	-1E+10	1	-1E+10	1
4901784	78	C	08/23/2017	10:48	-132.831	43.738	0	509.40	0	4.6700	0	34.1330	4	27.029	0	504.703	0	35.5	4	11.4	4	-1E+10	1	-1E+10	1	-1E+10	1	-1E+10	1	-1E+10	1	-1E+10	1
4901784	78	C	08/23/2017	10:48	-132.831	43.738	0	514.50	0	4.6530	0	34.1400	4	27.037	0	509.749	0	34.4	4	11.0	4	-1E+10	1	-1E+10	1	-1E+10	1	-1E+10	1	-1E+10	1	-1E+10	1
4901784	78	C	08/23/2017	10:48	-132.831	43.738	0	519.50	0	4.6400	0	34.1430	4	27.041	0	514.697	0	33.2	4	10.6	4	-1E+10	1	-1E+10	1	-1E+10	1	-1E+10	1	-1E+10	1	-1E+10	1
4901784	78	C	08/23/2017	10:48	-132.831	43.738	0	524.60	0	4.6140	0	34.1510	4	27.050	0	519.743	0	31.9	4	10.2	4	-1E+10	1	-1E+10	1	-1E+10	1	-1E+10	1	-1E+10	1	-1E+10	1
4901784	78	C	08/23/2017	10:48	-132.831	43.738	0	529.70	0	4.6100	0	34.1570	4	27.055	0	524.790	0	30.7	4	9.8	4	-1E+10	1	-1E+10	1	-1E+10	1	-1E+10	1	-1E+10	1	-1E+10	1
4901784	78	C	08/23/2017	10:48	-132.831	43.738	0	534.70	0	4.6110	0	34.1640	4	27.061	0	529.737	0	29.6	4	9.5	4	-1E+10	1	-1E+10	1	-1E+10	1	-1E+10	1	-1E+10	1	-1E+10	1
4901784	78	C	08/23/2017	10:48	-132.831	43.738	0	539.80	0	4.5800	0	34.1660	4	27.066	0	534.783	0	29.1	4	9.3	4	-1E+10	1	-1E+10	1	-1E+10	1	-1E+10	1	-1E+10	1	-1E+10	1
4901784	78	C	08/23/2017	10:48	-132.831	43.738	0	544.90	0	4.5510	0	34.1700	4	27.072	0	539.829	0	28.4	4	9.1	4	-1E+10	1	-1E+10	1	-1E+10	1	-1E+10	1	-1E+10	1	-1E+10	1
4901784	78	C	08/23/2017	10:48	-132.831	43.738	0	550.00	0	4.5280	0	34.1750	4	27.079	0	544.875	0	27.8	4	8.9	4	-1E+10	1	-1E+10	1	-1E+10	1	-1E+10	1	-1E+10	1	-1E+10	1
4901784	78	C	08/23/2017	10:48	-132.831	43.738	0	555.00	0	4.5180	0	34.1760	4	27.081	0	549.822	0	27.2	4	8.7	4	-1E+10	1	-1E+10	1	-1E+10	1	-1E+10	1	-1E+10	1	-1E+10	1
4901784	78	C	08/23/2017	10:48	-132.831	43.738	0	560.20	0	4.4960	0	34.1820	4	27.088	0	554.966	0	26.5	4	8.5	4	-1E+10	1	-1E+10	1	-1E+10	1	-1E+10	1	-1E+10	1	-1E+10	1
4901784	78	C	08/23/2017	10:48	-132.831	43.738	0	565.20	0	4.4860	0	34.1860	4	27.092	0	559.913	0	25.8	4	8.2	4	-1E+10	1	-1E+10	1	-1E+10	1	-1E+10	1	-1E+10	1	-1E+10	1
4901784	78	C	08/23/2017	10:48	-132.831	43.738	0	570.30	0	4.4770	0	34.1880	4	27.095	0	564.958	0	25.2	4	8.0	4	-1E+10	1	-1E+10	1	-1E+10	1	-1E+10	1	-1E+10	1	-1E+10	1
4901784	78	C	08/23/2017	10:48	-132.831	43.738	0	575.40	0	4.4590	0	34.1930	4	27.101	0	570.004	0	24.4	4	7.8	4	-1E+10	1	-1E+10	1	-1E+10	1	-1E+10	1	-1E+10	1	-1E+10	1
4901784	78	C	08/23/2017	10:48	-132.831	43.738	0	580.40	0	4.4340	0	34.2010	4	27.110	0	574.950	0	23.4	4	7.5	4	-1E+10	1	-1E+10	1	-1E+10	1	-1E+10	1	-1E+10	1	-1E+10	1
4901784	78	C	08/23/2017	10:48	-132.831	43.738	0	585.50	0	4.4130	0	34.2050	4	27.115	0	579.995	0	22.5	4	7.2	4	-1E+10	1	-1E+10	1	-1E+10	1	-1E+10	1	-1E+10	1	-1E+10	1
4901784	78	C	08/23/2017	10:48	-132.831	43.738	0	590.60	0	4.3870	0	34.2130	4	27.124	0	585.040	0	22.0	4	7.0	4	-1E+10	1	-1E+10	1	-1E+10	1	-1E+10	1	-1E+10	1	-1E+10	1
4901784	78	C	08/23/2017	10:48	-132.831	43.738	0	595.80	0	4.3740	0	34.2130	4	27.126	0	590.183	0	21.8	4	6.9	4	-1E+10	1	-1E+10	1	-1E+10	1	-1E+10	1	-1E+10	1	-1E+10	1
4901784	78	C	08/23/2017	10:48	-132.831	43.738	0	600.80	0	4.3720	0	34.2160	4	27.128	0	595.129	0	21.4	4	6.8	4	-1E+10	1	-1E+10	1	-1E+10	1	-1E+10	1	-1E+10	1	-1E+10	1
4901784	78	C	08/23/2017	10:48	-132.831	43.738	0	605.10	0	4.3260	0	34.2230	4	27.139	0	599.382	0	21.1	4	6.7	4	-1E+10	1	-1E+10	1	-1E+10	1	-1E+10	1	-1E+10	1	-1E+10	1
4901784	78	C	08/23/2017	10:48	-132.831	43.738	0	609.40	0	4.3220	0	34.2230	4	27.139	0	603.635	0	20.9	4	6.6	4	-1E+10	1	-1E+10	1	-1E+10	1	-1E+10	1	-1E+10	1	-1E+10	1
4901784	78	C	08/23/2017	10:48	-132.831	43.738	0	614.50	0	4.2900	0	34.2230	4	27.143	0	608.680	0	20.8	4	6.6	4	-1E+10	1	-1E+10	1	-1E+10	1	-1E+10	1	-1E+10	1	-1E+10	1
4901784	78	C	08/23/2017	10:48	-132.831	43.738	0	619.60	0	4.2440	0	34.2260	4	27.150	0	613.724	0	20.4	4	6.5	4	-1E+10	1	-1E+10	1	-1E+10	1	-1E+10	1	-1E+10	1	-1E+10	1
4901784	78	C	08/23/2017	10:48	-132.831	43.738	0	624.70	0	4.2340	0	34.2350	4	27.158	0	618.768	0	19.6	4	6.2	4	-1E+10	1	-1E+10	1	-1E+10	1	-1E+10	1	-1E+10	1	-1E+10	1
4901784	78	C	08/23/2017	10:48	-132.831	43.738	0	629.80	0	4.2200	0	34.2420	4	27.165	0	623.812	0	19.0	4	6.0	4	-1E+10	1	-1E+10	1	-1E+10	1	-1E+10	1	-1E+10	1	-1E+10	1
4901784	78	C	08/23/2017	10:48	-132.831	43.738	0	634.90	0	4.2040	0	34.2470	4	27.171	0	628.856	0	18.6	4	5.9	4	-1E+10	1	-1E+10	1	-1E+10	1	-1E+10	1	-1E+10	1	-1E+10	1
4901784	78	C	08/23/2017	10:48	-132.831	43.738	0	640.00	0	4.1520	0	34.2530	4	27.181	0	633.899	0	18.3	4	5.8	4	-1E+10	1	-1E+10	1	-1E+10	1	-1E+10	1	-1E+10	1	-1E+10	1
4901784	78	C	08/23/2017	10:48	-132.831	43.738	0	645.10	0	4.1240	0	34.2590	4	27.189	0	638.943	0	17.8	4	5.6	4	-1E+10	1	-1E+10	1	-1E+10	1	-1E+10	1	-1E+10	1	-1E+10	1
4901784	78	C	08/23/2017	10:48	-132.831	43.738	0	650.30	0	4.1070	0	34.2650	4	27.195	0	644.085	0	17.3	4	5.5	4	-1E+10	1	-1E+10	1	-1E+10	1	-1E+10	1	-1E+10	1	-1E+10	1
4901784	78	C	08/23/2017	10:48	-132.831	43.738	0	655.50	0	4.0940	0	34.2690	4	27.200	0	649.227	0	16.8	4	5.3	4	-1E+10	1	-1E+10	1	-1E+10	1	-1E+10	1	-1E+10	1	-1E+10	1
4901784	78	C	08/23/2017	10:48	-132.831	43.738	0	659.90	0	4.0780	0	34.2740	4	27.206	0	653.578	0	16.2	4	5.1	4	-1E+10	1	-1E+10	1	-1E+10	1	-1E+10	1	-1E+10	1	-1E+10	1
4901784	78	C	08/23/2017	10:48	-132.831	43.738	0	664.30	0	4.0540	0	34.2820	4	27.215	0	657.929	0	15.7	4	5.0	4	-1E+10	1	-1E+10	1	-1E+10	1	-1E+10	1	-1E+10	1	-1E+10	1
4901784	78	C	08/23/2017	10:48	-132.831	43.738	0	669.60	0	4.0420	0	34.2900	4	27.222	0	663.170	0	15.2	4	4.8	4	-1E+10	1	-1E+10	1	-1E+10	1	-1E+10	1	-1E+10	1	-1E+10	1
4901784	78	C	08/23/2017	10:48	-132.831	43.738	0	674.90	0	4.0270	0	34.2940	4	27.227	0	668.411	0	14.9	4	4.7	4	-1E+10	1	-1E+10	1	-1E+10	1	-1E+10	1	-1E+10	1	-1E+10	1
4901784	78	C	08/23/2017	10:48	-132.831	43.738	0	680.20	0	3.9980	0	34.2990	4	27.234	0	673.651	0	14.7	4	4.6	4	-1E+10	1	-1E+10	1	-1E+10	1	-1E+10	1	-1E+10	1	-1E+10	1
4901784	78	C	08/23/2017	10:48	-132.831	43.738	0	684.80	0	3.9750	0	34.3050	4	27.241	0	678.199	0	14.4	4	4.5	4	-1E+10	1	-1E+10	1	-1E+10	1	-1E+10	1	-1E+10	1	-1E+10	1
4901784	78	C	08/23/2017	10:48	-132.831	43.738	0	689.40	0	3.9640	0	34.3070	4	27.244	0	682.748	0	14.1	4	4.4	4	-1E+10	1	-1E+10	1	-1E+10	1	-1E+10	1	-1E+10	1	-1E+10	1
4901784	78	C	08/23/2017	10:48	-132.831	43.738	0	694.90	0	3.9340	0	34.3160	4	27.254	0	688.185	0	13.7	4	4.3	4	-1E+10	1	-1E+10	1	-1E+10	1	-1E+10	1	-1E+10	1	-1E+10	1
4901784	78	C	08/23/2017	10:48	-132.831	43.738	0	700.20	0	3.9230	0	34.3210	4	27.259	0	693.425	0	13.5	4	4.3	4	-1E+10	1	-1E+10	1	-1E+10	1	-1E+10	1	-1E+10	1	-1E+10	1
4901784	78	C	08/23/2017	10:48	-132.831	43.738	0	704.40	0	3.9170	0	34.3200	4	27.259	0	697.578	0	13.3	4	4.2	4	-1E+10	1	-1E+10	1	-1E+10	1	-1E+10	1	-1E+10	1	-1E+10	1
4901784	78	C	08/23/2017	10:48	-132.831	43.738	0	710.00	0	3.9010	0	34.3240	4	27.264	0	703.114	0	13.1	4	4.1	4	-1E+10	1	-1E+10	1	-1E+10	1	-1E+10	1	-1E+10	1	-1E+10	1
4901784	78	C	08/23/2017	10:48	-132.831	43.738	0	715.60	0	3.8860	0	34.3270	4	27.268	0	708.650	0	13.1	4	4.1	4	-1E+10	1	-1E+10	1	-1E+10	1	-1E+10	1	-1E+10	1	-1E+10	1
4901784	78	C	08/23/2017	10:48	-132.831	43.738	0	720.60	0	3.8810	0	34.3280	4	27.269	0	713.593	0	13.0	4	4.1	4	-1E+10	1	-1E+10	1	-1E+10	1	-1E+10	1	-1E+10	1	-1E+10	1
4901784	78	C	08/23/2017	10:48	-132.831	43.738	0	725.50	0	3.8700	0	34.3300	4	27.272	0	718.437	0	12.8	4	4.0	4	-1E+10	1	-1E+10	1	-1E+10	1	-1E+10	1	-1E+10	1	-1E+10	1
4901784	78	C	08/23/2017	10:48	-132.831	43.738	0	730.60	0	3.8550	0	34.3340	4	27.277	0	723.478	0	12.7	4	4.0	4	-1E+10	1	-1E+10	1	-1E+10	1	-1E+10	1	-1E+10	1	-1E+10	1
4901784	78	C	08/23/2017	10:48	-132.831	43.738	0	735.70	0	3.8480	0	34.3360	4	27.279	0	728.520	0	12.5	4	4.0	4	-1E+10	1	-1E+10	1	-1E+10	1	-1E+10	1	-1E+10	1	-1E+10	1
4901784	78	C	08/23/2017	10:48	-132.831	43.738	0	740.70	0	3.8350	0	34.3410	4	27.284	0	733.462	0	12.3	4	3.9	4	-1E+10	1	-1E+10	1	-1E+10	1	-1E+10	1	-1E+10	1	-1E+10	1
4901784	78	C	08/23/2017	10:48	-132.831	43.738	0	745.00	0	3.8210	0	34.3450	4	27.289	0	737.713	0	12.2	4	3.9	4	-1E+10	1	-1E+10	1	-1E+10	1	-1E+10	1	-1E+10	1	-1E+10	1
4901784	78	C	08/23/2017	10:48	-132.831	43.738	0	749.30	0	3.8170	0	34.3490	4	27.292	0	741.963	0	12.1	4	3.8	4	-1E+10	1	-1E+10	1	-1E+10	1	-1E+10	1	-1E+10	1	-1E+10	1
4901784	78	C	08/23/2017	10:48	-132.831	43.738	0	754.50	0	3.8130	0	34.3500	4	27.294	0	747.103	0	12.1	4	3.8	4	-1E+10	1	-1E+10	1	-1E+10	1	-1E+10	1	-1E+10	1	-1E+10	1
4901784	78	C	08/23/2017	10:48	-132.831	43.738	0	759.80	0	3.8070	0	34.3510	4	27.295	0	752.341	0	12.0	4	3.8	4	-1E+10	1	-1E+10	1	-1E+10	1	-1E+10	1	-1E+10	1	-1E+10	1
4901784	78	C	08/23/2017	10:48	-132.831	43.738	0	765.10	0	3.7980	0	34.3530	4	27.298	0	757.580	0	11.9	4	3.8	4	-1E+10	1	-1E+10	1	-1E+10	1	-1E+10	1	-1E+10	1	-1E+10	1
4901784	78	C	08/23/2017	10:48	-132.831	43.738	0	770.50	0	3.7910	0	34.3560	4	27.301	0	762.917	0	11.8	4	3.7	4	-1E+10	1	-1E+10	1	-1E+10	1	-1E+10	1	-1E+10	1	-1E+10	1
4901784	78	C	08/23/2017	10:48	-132.831	43.738	0	775.10	0	3.7890	0	34.3590	4	27.303	0	767.463	0	11.7	4	3.7	4	-1E+10	1	-1E+10	1	-1E+10	1	-1E+10	1	-1E+10	1	-1E+10	1
4901784	78	C	08/23/2017	10:48	-132.831	43.738	0	779.60	0	3.7790	0	34.3630	4	27.308	0	771.910	0	11.6	4	3.6	4	-1E+10	1	-1E+10	1	-1E+10	1	-1E+10	1	-1E+10	1	-1E+10	1
4901784	78	C	08/23/2017	10:48	-132.831	43.738	0	785.10	0	3.7650	0	34.3670	4	27.312	0	777.346	0	11.5	4	3.6	4	-1E+10	1	-1E+10	1	-1E+10	1	-1E+10	1	-1E+10	1	-1E+10	1
4901784	78	C	08/23/2017	10:48	-132.831	43.738	0	789.80	0	3.7530	0	34.3730	4	27.318	0	781.991	0	11.5	4	3.6	4	-1E+10	1	-1E+10	1	-1E+10	1	-1E+10	1	-1E+10	1	-1E+10	1
4901784	78	C	08/23/2017	10:48	-132.831	43.738	0	794.40	0	3.7480	0	34.3750	4	27.320	0	786.536	0	11.5	4	3.6	4	-1E+10	1	-1E+10	1	-1E+10	1	-1E+10	1	-1E+10	1	-1E+10	1
4901784	78	C	08/23/2017	10:48	-132.831	43.738	0	800.00	0	3.7300	0	34.3800	4	27.326	0	792.070	0	11.4	4	3.6	4	-1E+10	1	-1E+10	1	-1E+10	1	-1E+10	1	-1E+10	1	-1E+10	1
4901784	78	C	08/23/2017	10:48	-132.831	43.738	0	805.60	0	3.7210	0	34.3840	4	27.330	0	797.604	0	11.3	4	3.5	4	-1E+10	1	-1E+10	1	-1E+10	1	-1E+10	1	-1E+10	1	-1E+10	1
4901784	78	C	08/23/2017	10:48	-132.831	43.738	0	810.40	0	3.7150	0	34.3860	4	27.333	0	802.347	0	11.3	4	3.5	4	-1E+10	1	-1E+10	1	-1E+10	1	-1E+10	1	-1E+10	1	-1E+10	1
4901784	78	C	08/23/2017	10:48	-132.831	43.738	0	815.30	0	3.6990	0	34.3900	4	27.337	0	807.189	0	11.3	4	3.5	4	-1E+10	1	-1E+10	1	-1E+10	1	-1E+10	1	-1E+10	1	-1E+10	1
4901784	78	C	08/23/2017	10:48	-132.831	43.738	0	819.60	0	3.6810	0	34.3940	4	27.342	0	811.438	0	11.3	4	3.5	4	-1E+10	1	-1E+10	1	-1E+10	1	-1E+10	1	-1E+10	1	-1E+10	1
4901784	78	C	08/23/2017	10:48	-132.831	43.738	0	824.50	0	3.6670	0	34.3970	4	27.346	0	816.280	0	11.3	4	3.5	4	-1E+10	1	-1E+10	1	-1E+10	1	-1E+10	1	-1E+10	1	-1E+10	1
4901784	78	C	08/23/2017	10:48	-132.831	43.738	0	829.40	0	3.6580	0	34.3990	4	27.349	0	821.121	0	11.2	4	3.5	4	-1E+10	1	-1E+10	1	-1E+10	1	-1E+10	1	-1E+10	1	-1E+10	1
4901784	78	C	08/23/2017	10:48	-132.831	43.738	0	834.40	0	3.6460	0	34.4030	4	27.353	0	826.061	0	11.2	4	3.5	4	-1E+10	1	-1E+10	1	-1E+10	1	-1E+10	1	-1E+10	1	-1E+10	1
4901784	78	C	08/23/2017	10:48	-132.831	43.738	0	839.30	0	3.6370	0	34.4050	4	27.356	0	830.903	0	11.2	4	3.5	4	-1E+10	1	-1E+10	1	-1E+10	1	-1E+10	1	-1E+10	1	-1E+10	1
4901784	78	C	08/23/2017	10:48	-132.831	43.738	0	844.40	0	3.6250	0	34.4080	4	27.359	0	835.942	0	11.2	4	3.5	4	-1E+10	1	-1E+10	1	-1E+10	1	-1E+10	1	-1E+10	1	-1E+10	1
4901784	78	C	08/23/2017	10:48	-132.831	43.738	0	849.50	0	3.6200	0	34.4090	4	27.360	0	840.980	0	11.2	4	3.5	4	-1E+10	1	-1E+10	1	-1E+10	1	-1E+10	1	-1E+10	1	-1E+10	1
4901784	78	C	08/23/2017	10:48	-132.831	43.738	0	854.60	0	3.6040	0	34.4120	4	27.364	0	846.019	0	11.1	4	3.5	4	-1E+10	1	-1E+10	1	-1E+10	1	-1E+10	1	-1E+10	1	-1E+10	1
4901784	78	C	08/23/2017	10:48	-132.831	43.738	0	859.80	0	3.5950	0	34.4150	4	27.368	0	851.156	0	11.1	4	3.5	4	-1E+10	1	-1E+10	1	-1E+10	1	-1E+10	1	-1E+10	1	-1E+10	1
4901784	78	C	08/23/2017	10:48	-132.831	43.738	0	864.90	0	3.5810	0	34.4180	4	27.372	0	856.194	0	11.2	4	3.5	4	-1E+10	1	-1E+10	1	-1E+10	1	-1E+10	1	-1E+10	1	-1E+10	1
4901784	78	C	08/23/2017	10:48	-132.831	43.738	0	870.00	0	3.5760	0	34.4200	4	27.374	0	861.232	0	11.2	4	3.5	4	-1E+10	1	-1E+10	1	-1E+10	1	-1E+10	1	-1E+10	1	-1E+10	1
4901784	78	C	08/23/2017	10:48	-132.831	43.738	0	875.20	0	3.5700	0	34.4210	4	27.375	0	866.369	0	11.2	4	3.5	4	-1E+10	1	-1E+10	1	-1E+10	1	-1E+10	1	-1E+10	1	-1E+10	1
4901784	78	C	08/23/2017	10:48	-132.831	43.738	0	880.40	0	3.5550	0	34.4250	4	27.380	0	871.506	0	11.1	4	3.5	4	-1E+10	1	-1E+10	1	-1E+10	1	-1E+10	1	-1E+10	1	-1E+10	1
4901784	78	C	08/23/2017	10:48	-132.831	43.738	0	885.50	0	3.5460	0	34.4270	4	27.382	0	876.544	0	11.0	4	3.5	4	-1E+10	1	-1E+10	1	-1E+10	1	-1E+10	1	-1E+10	1	-1E+10	1
4901784	78	C	08/23/2017	10:48	-132.831	43.738	0	889.90	0	3.5350	0	34.4290	4	27.385	0	880.890	0	11.1	4	3.5	4	-1E+10	1	-1E+10	1	-1E+10	1	-1E+10	1	-1E+10	1	-1E+10	1
4901784	78	C	08/23/2017	10:48	-132.831	43.738	0	894.30	0	3.5210	0	34.4320	4	27.389	0	885.236	0	11.1	4	3.5	4	-1E+10	1	-1E+10	1	-1E+10	1	-1E+10	1	-1E+10	1	-1E+10	1
4901784	78	C	08/23/2017	10:48	-132.831	43.738	0	899.60	0	3.5130	0	34.4340	4	27.391	0	890.471	0	11.1	4	3.5	4	-1E+10	1	-1E+10	1	-1E+10	1	-1E+10	1	-1E+10	1	-1E+10	1
4901784	78	C	08/23/2017	10:48	-132.831	43.738	0	904.90	0	3.5060	0	34.4360	4	27.393	0	895.706	0	11.2	4	3.5	4	-1E+10	1	-1E+10	1	-1E+10	1	-1E+10	1	-1E+10	1	-1E+10	1
4901784	78	C	08/23/2017	10:48	-132.831	43.738	0	910.20	0	3.4910	0	34.4390	4	27.397	0	900.941	0	11.2	4	3.5	4	-1E+10	1	-1E+10	1	-1E+10	1	-1E+10	1	-1E+10	1	-1E+10	1
4901784	78	C	08/23/2017	10:48	-132.831	43.738	0	915.50	0	3.4770	0	34.4420	4	27.401	0	906.175	0	11.3	4	3.5	4	-1E+10	1	-1E+10	1	-1E+10	1	-1E+10	1	-1E+10	1	-1E+10	1
4901784	78	C	08/23/2017	10:48	-132.831	43.738	0	919.90	0	3.4690	0	34.4440	4	27.403	0	910.521	0	11.4	4	3.6	4	-1E+10	1	-1E+10	1	-1E+10	1	-1E+10	1	-1E+10	1	-1E+10	1
4901784	78	C	08/23/2017	10:48	-132.831	43.738	0	924.40	0	3.4620	0	34.4470	4	27.407	0	914.965	0	11.5	4	3.6	4	-1E+10	1	-1E+10	1	-1E+10	1	-1E+10	1	-1E+10	1	-1E+10	1
4901784	78	C	08/23/2017	10:48	-132.831	43.738	0	929.70	0	3.4520	0	34.4490	4	27.409	0	920.200	0	11.5	4	3.6	4	-1E+10	1	-1E+10	1	-1E+10	1	-1E+10	1	-1E+10	1	-1E+10	1
4901784	78	C	08/23/2017	10:48	-132.831	43.738	0	935.20	0	3.4480	0	34.4510	4	27.411	0	925.631	0	11.7	4	3.7	4	-1E+10	1	-1E+10	1	-1E+10	1	-1E+10	1	-1E+10	1	-1E+10	1
4901784	78	C	08/23/2017	10:48	-132.831	43.738	0	939.80	0	3.4430	0	34.4540	4	27.414	0	930.174	0	11.9	4	3.7	4	-1E+10	1	-1E+10	1	-1E+10	1	-1E+10	1	-1E+10	1	-1E+10	1
4901784	78	C	08/23/2017	10:48	-132.831	43.738	0	944.50	0	3.4320	0	34.4570	4	27.418	0	934.815	0	12.0	4	3.7	4	-1E+10	1	-1E+10	1	-1E+10	1	-1E+10	1	-1E+10	1	-1E+10	1
4901784	78	C	08/23/2017	10:48	-132.831	43.738	0	950.00	0	3.4180	0	34.4570	4	27.419	0	940.246	0	12.1	4	3.8	4	-1E+10	1	-1E+10	1	-1E+10	1	-1E+10	1	-1E+10	1	-1E+10	1
4901784	78	C	08/23/2017	10:48	-132.831	43.738	0	955.60	0	3.4090	0	34.4580	4	27.421	0	945.776	0	12.2	4	3.8	4	-1E+10	1	-1E+10	1	-1E+10	1	-1E+10	1	-1E+10	1	-1E+10	1
4901784	78	C	08/23/2017	10:48	-132.831	43.738	0	960.20	0	3.4060	0	34.4600	4	27.423	0	950.319	0	12.2	4	3.8	4	-1E+10	1	-1E+10	1	-1E+10	1	-1E+10	1	-1E+10	1	-1E+10	1
4901784	78	C	08/23/2017	10:48	-132.831	43.738	0	964.80	0	3.3970	0	34.4620	4	27.425	0	954.861	0	12.3	4	3.8	4	-1E+10	1	-1E+10	1	-1E+10	1	-1E+10	1	-1E+10	1	-1E+10	1
4901784	78	C	08/23/2017	10:48	-132.831	43.738	0	970.40	0	3.3910	0	34.4630	4	27.426	0	960.390	0	12.4	4	3.9	4	-1E+10	1	-1E+10	1	-1E+10	1	-1E+10	1	-1E+10	1	-1E+10	1
4901784	78	C	08/23/2017	10:48	-132.831	43.738	0	975.00	0	3.3840	0	34.4650	4	27.429	0	964.932	0	12.5	4	3.9	4	-1E+10	1	-1E+10	1	-1E+10	1	-1E+10	1	-1E+10	1	-1E+10	1
4901784	78	C	08/23/2017	10:48	-132.831	43.738	0	979.70	0	3.3690	0	34.4690	4	27.433	0	969.573	0	12.7	4	4.0	4	-1E+10	1	-1E+10	1	-1E+10	1	-1E+10	1	-1E+10	1	-1E+10	1
4901784	78	C	08/23/2017	10:48	-132.831	43.738	0	985.30	0	3.3580	0	34.4730	4	27.438	0	975.102	0	12.8	4	4.0	4	-1E+10	1	-1E+10	1	-1E+10	1	-1E+10	1	-1E+10	1	-1E+10	1
4901784	78	C	08/23/2017	10:48	-132.831	43.738	0	990.00	0	3.3520	0	34.4750	4	27.440	0	979.742	0	12.9	4	4.0	4	-1E+10	1	-1E+10	1	-1E+10	1	-1E+10	1	-1E+10	1	-1E+10	1
4901784	78	C	08/23/2017	10:48	-132.831	43.738	0	994.70	0	3.3440	0	34.4770	4	27.442	0	984.383	0	13.1	4	4.1	4	-1E+10	1	-1E+10	1	-1E+10	1	-1E+10	1	-1E+10	1	-1E+10	1
4901784	78	C	08/23/2017	10:48	-132.831	43.738	0	1000.20	0	3.3340	0	34.4800	4	27.446	0	989.813	0	13.2	4	4.1	4	-1E+10	1	-1E+10	1	-1E+10	1	-1E+10	1	-1E+10	1	-1E+10	1
4901784	78	C	08/23/2017	10:48	-132.831	43.738	0	1004.80	0	3.3280	0	34.4810	4	27.447	0	994.354	0	13.3	4	4.1	4	-1E+10	1	-1E+10	1	-1E+10	1	-1E+10	1	-1E+10	1	-1E+10	1
4901784	78	C	08/23/2017	10:48	-132.831	43.738	0	1009.80	0	3.3180	0	34.4830	4	27.450	0	999.290	0	13.3	4	4.1	4	-1E+10	1	-1E+10	1	-1E+10	1	-1E+10	1	-1E+10	1	-1E+10	1
4901784	78	C	08/23/2017	10:48	-132.831	43.738	0	1015.10	0	3.3080	0	34.4850	4	27.452	0	1004.522	0	13.4	4	4.2	4	-1E+10	1	-1E+10	1	-1E+10	1	-1E+10	1	-1E+10	1	-1E+10	1
4901784	78	C	08/23/2017	10:48	-132.831	43.738	0	1019.90	0	3.3020	0	34.4860	4	27.453	0	1009.261	0	13.5	4	4.2	4	-1E+10	1	-1E+10	1	-1E+10	1	-1E+10	1	-1E+10	1	-1E+10	1
4901784	78	C	08/23/2017	10:48	-132.831	43.738	0	1024.70	0	3.2970	0	34.4870	4	27.455	0	1013.999	0	13.6	4	4.2	4	-1E+10	1	-1E+10	1	-1E+10	1	-1E+10	1	-1E+10	1	-1E+10	1
4901784	78	C	08/23/2017	10:48	-132.831	43.738	0	1029.60	0	3.2890	0	34.4890	4	27.457	0	1018.836	0	13.7	4	4.3	4	-1E+10	1	-1E+10	1	-1E+10	1	-1E+10	1	-1E+10	1	-1E+10	1
4901784	78	C	08/23/2017	10:48	-132.831	43.738	0	1034.50	0	3.2860	0	34.4900	4	27.458	0	1023.673	0	13.8	4	4.3	4	-1E+10	1	-1E+10	1	-1E+10	1	-1E+10	1	-1E+10	1	-1E+10	1
4901784	78	C	08/23/2017	10:48	-132.831	43.738	0	1039.40	0	3.2770	0	34.4920	4	27.461	0	1028.509	0	13.8	4	4.3	4	-1E+10	1	-1E+10	1	-1E+10	1	-1E+10	1	-1E+10	1	-1E+10	1
4901784	78	C	08/23/2017	10:48	-132.831	43.738	0	1044.40	0	3.2680	0	34.4930	4	27.462	0	1033.445	0	13.9	4	4.3	4	-1E+10	1	-1E+10	1	-1E+10	1	-1E+10	1	-1E+10	1	-1E+10	1
4901784	78	C	08/23/2017	10:48	-132.831	43.738	0	1049.40	0	3.2610	0	34.4940	4	27.464	0	1038.380	0	13.9	4	4.3	4	-1E+10	1	-1E+10	1	-1E+10	1	-1E+10	1	-1E+10	1	-1E+10	1
4901784	78	C	08/23/2017	10:48	-132.831	43.738	0	1054.30	0	3.2570	0	34.4950	4	27.465	0	1043.216	0	14.0	4	4.3	4	-1E+10	1	-1E+10	1	-1E+10	1	-1E+10	1	-1E+10	1	-1E+10	1
4901784	78	C	08/23/2017	10:48	-132.831	43.738	0	1059.30	0	3.2520	0	34.4960	4	27.466	0	1048.151	0	14.0	4	4.3	4	-1E+10	1	-1E+10	1	-1E+10	1	-1E+10	1	-1E+10	1	-1E+10	1
4901784	78	C	08/23/2017	10:48	-132.831	43.738	0	1064.30	0	3.2440	0	34.4960	4	27.467	0	1053.086	0	13.9	4	4.3	4	-1E+10	1	-1E+10	1	-1E+10	1	-1E+10	1	-1E+10	1	-1E+10	1
4901784	78	C	08/23/2017	10:48	-132.831	43.738	0	1069.30	0	3.2330	0	34.4970	4	27.469	0	1058.021	0	14.0	4	4.3	4	-1E+10	1	-1E+10	1	-1E+10	1	-1E+10	1	-1E+10	1	-1E+10	1
4901784	78	C	08/23/2017	10:48	-132.831	43.738	0	1074.40	0	3.2240	0	34.4980	4	27.471	0	1063.054	0	14.0	4	4.3	4	-1E+10	1	-1E+10	1	-1E+10	1	-1E+10	1	-1E+10	1	-1E+10	1
4901784	78	C	08/23/2017	10:48	-132.831	43.738	0	1079.50	0	3.2080	0	34.5000	4	27.474	0	1068.087	0	13.9	4	4.3	4	-1E+10	1	-1E+10	1	-1E+10	1	-1E+10	1	-1E+10	1	-1E+10	1
4901784	78	C	08/23/2017	10:48	-132.831	43.738	0	1084.50	0	3.1980	0	34.5010	4	27.476	0	1073.021	0	14.0	4	4.4	4	-1E+10	1	-1E+10	1	-1E+10	1	-1E+10	1	-1E+10	1	-1E+10	1
4901784	78	C	08/23/2017	10:48	-132.831	43.738	0	1089.50	0	3.1880	0	34.5020	4	27.477	0	1077.956	0	14.2	4	4.4	4	-1E+10	1	-1E+10	1	-1E+10	1	-1E+10	1	-1E+10	1	-1E+10	1
4901784	78	C	08/23/2017	10:48	-132.831	43.738	0	1094.70	0	3.1850	0	34.5040	4	27.479	0	1083.087	0	14.3	4	4.4	4	-1E+10	1	-1E+10	1	-1E+10	1	-1E+10	1	-1E+10	1	-1E+10	1
4901784	78	C	08/23/2017	10:48	-132.831	43.738	0	1099.80	0	3.1750	0	34.5050	4	27.481	0	1088.120	0	14.3	4	4.4	4	-1E+10	1	-1E+10	1	-1E+10	1	-1E+10	1	-1E+10	1	-1E+10	1
4901784	78	C	08/23/2017	10:48	-132.831	43.738	0	1104.90	0	3.1650	0	34.5060	4	27.483	0	1093.152	0	14.4	4	4.5	4	-1E+10	1	-1E+10	1	-1E+10	1	-1E+10	1	-1E+10	1	-1E+10	1
4901784	78	C	08/23/2017	10:48	-132.831	43.738	0	1110.10	0	3.1590	0	34.5080	4	27.485	0	1098.284	0	14.7	4	4.6	4	-1E+10	1	-1E+10	1	-1E+10	1	-1E+10	1	-1E+10	1	-1E+10	1
4901784	78	C	08/23/2017	10:48	-132.831	43.738	0	1115.30	0	3.1590	0	34.5090	4	27.486	0	1103.415	0	15.0	4	4.7	4	-1E+10	1	-1E+10	1	-1E+10	1	-1E+10	1	-1E+10	1	-1E+10	1
4901784	78	C	08/23/2017	10:48	-132.831	43.738	0	1120.60	0	3.1590	0	34.5110	4	27.487	0	1108.644	0	15.3	4	4.7	4	-1E+10	1	-1E+10	1	-1E+10	1	-1E+10	1	-1E+10	1	-1E+10	1
4901784	78	C	08/23/2017	10:48	-132.831	43.738	0	1125.80	0	3.1530	0	34.5120	4	27.489	0	1113.775	0	15.4	4	4.8	4	-1E+10	1	-1E+10	1	-1E+10	1	-1E+10	1	-1E+10	1	-1E+10	1
4901784	78	C	08/23/2017	10:48	-132.831	43.738	0	1130.10	0	3.1400	0	34.5130	4	27.491	0	1118.017	0	15.5	4	4.8	4	-1E+10	1	-1E+10	1	-1E+10	1	-1E+10	1	-1E+10	1	-1E+10	1
4901784	78	C	08/23/2017	10:48	-132.831	43.738	0	1134.50	0	3.1370	0	34.5150	4	27.493	0	1122.359	0	15.7	4	4.9	4	-1E+10	1	-1E+10	1	-1E+10	1	-1E+10	1	-1E+10	1	-1E+10	1
4901784	78	C	08/23/2017	10:48	-132.831	43.738	0	1139.80	0	3.1310	0	34.5170	4	27.495	0	1127.588	0	15.9	4	4.9	4	-1E+10	1	-1E+10	1	-1E+10	1	-1E+10	1	-1E+10	1	-1E+10	1
4901784	78	C	08/23/2017	10:48	-132.831	43.738	0	1145.20	0	3.1220	0	34.5190	4	27.497	0	1132.915	0	16.2	4	5.0	4	-1E+10	1	-1E+10	1	-1E+10	1	-1E+10	1	-1E+10	1	-1E+10	1
4901784	78	C	08/23/2017	10:48	-132.831	43.738	0	1150.70	0	3.1070	0	34.5220	4	27.501	0	1138.341	0	16.4	4	5.1	4	-1E+10	1	-1E+10	1	-1E+10	1	-1E+10	1	-1E+10	1	-1E+10	1
4901784	78	C	08/23/2017	10:48	-132.831	43.738	0	1155.20	0	3.1010	0	34.5230	4	27.503	0	1142.781	0	16.4	4	5.1	4	-1E+10	1	-1E+10	1	-1E+10	1	-1E+10	1	-1E+10	1	-1E+10	1
4901784	78	C	08/23/2017	10:48	-132.831	43.738	0	1159.70	0	3.1000	0	34.5230	4	27.503	0	1147.220	0	16.5	4	5.1	4	-1E+10	1	-1E+10	1	-1E+10	1	-1E+10	1	-1E+10	1	-1E+10	1
4901784	78	C	08/23/2017	10:48	-132.831	43.738	0	1165.20	0	3.0860	0	34.5250	4	27.506	0	1152.646	0	16.6	4	5.1	4	-1E+10	1	-1E+10	1	-1E+10	1	-1E+10	1	-1E+10	1	-1E+10	1
4901784	78	C	08/23/2017	10:48	-132.831	43.738	0	1170.70	0	3.0820	0	34.5250	4	27.506	0	1158.071	0	16.6	4	5.1	4	-1E+10	1	-1E+10	1	-1E+10	1	-1E+10	1	-1E+10	1	-1E+10	1
4901784	78	C	08/23/2017	10:48	-132.831	43.738	0	1175.30	0	3.0710	0	34.5260	4	27.508	0	1162.609	0	16.7	4	5.2	4	-1E+10	1	-1E+10	1	-1E+10	1	-1E+10	1	-1E+10	1	-1E+10	1
4901784	78	C	08/23/2017	10:48	-132.831	43.738	0	1179.90	0	3.0600	0	34.5260	4	27.509	0	1167.147	0	16.7	4	5.2	4	-1E+10	1	-1E+10	1	-1E+10	1	-1E+10	1	-1E+10	1	-1E+10	1
4901784	78	C	08/23/2017	10:48	-132.831	43.738	0	1185.10	0	3.0530	0	34.5280	4	27.511	0	1172.276	0	17.0	4	5.3	4	-1E+10	1	-1E+10	1	-1E+10	1	-1E+10	1	-1E+10	1	-1E+10	1
4901784	78	C	08/23/2017	10:48	-132.831	43.738	0	1190.00	0	3.0490	0	34.5300	4	27.513	0	1177.109	0	17.1	4	5.3	4	-1E+10	1	-1E+10	1	-1E+10	1	-1E+10	1	-1E+10	1	-1E+10	1
4901784	78	C	08/23/2017	10:48	-132.831	43.738	0	1195.70	0	3.0410	0	34.5310	4	27.515	0	1182.732	0	17.2	4	5.3	4	-1E+10	1	-1E+10	1	-1E+10	1	-1E+10	1	-1E+10	1	-1E+10	1
4901784	78	C	08/23/2017	10:48	-132.831	43.738	0	1200.60	0	3.0290	0	34.5330	4	27.517	0	1187.565	0	17.3	4	5.3	4	-1E+10	1	-1E+10	1	-1E+10	1	-1E+10	1	-1E+10	1	-1E+10	1
4901784	78	C	08/23/2017	10:48	-132.831	43.738	0	1205.50	0	3.0180	0	34.5330	4	27.518	0	1192.398	0	17.4	4	5.4	4	-1E+10	1	-1E+10	1	-1E+10	1	-1E+10	1	-1E+10	1	-1E+10	1
4901784	78	C	08/23/2017	10:48	-132.831	43.738	0	1210.40	0	3.0100	0	34.5350	4	27.521	0	1197.230	0	17.7	4	5.5	4	-1E+10	1	-1E+10	1	-1E+10	1	-1E+10	1	-1E+10	1	-1E+10	1
4901784	78	C	08/23/2017	10:48	-132.831	43.738	0	1215.30	0	3.0020	0	34.5360	4	27.522	0	1202.063	0	17.8	4	5.5	4	-1E+10	1	-1E+10	1	-1E+10	1	-1E+10	1	-1E+10	1	-1E+10	1
4901784	78	C	08/23/2017	10:48	-132.831	43.738	0	1220.30	0	2.9960	0	34.5370	4	27.524	0	1206.994	0	17.9	4	5.5	4	-1E+10	1	-1E+10	1	-1E+10	1	-1E+10	1	-1E+10	1	-1E+10	1
4901784	78	C	08/23/2017	10:48	-132.831	43.738	0	1225.30	0	2.9860	0	34.5390	4	27.526	0	1211.925	0	18.1	4	5.6	4	-1E+10	1	-1E+10	1	-1E+10	1	-1E+10	1	-1E+10	1	-1E+10	1
4901784	78	C	08/23/2017	10:48	-132.831	43.738	0	1230.30	0	2.9770	0	34.5400	4	27.528	0	1216.856	0	18.4	4	5.7	4	-1E+10	1	-1E+10	1	-1E+10	1	-1E+10	1	-1E+10	1	-1E+10	1
4901784	78	C	08/23/2017	10:48	-132.831	43.738	0	1235.40	0	2.9660	0	34.5420	4	27.530	0	1221.886	0	18.6	4	5.7	4	-1E+10	1	-1E+10	1	-1E+10	1	-1E+10	1	-1E+10	1	-1E+10	1
4901784	78	C	08/23/2017	10:48	-132.831	43.738	0	1240.50	0	2.9620	0	34.5430	4	27.532	0	1226.915	0	18.6	4	5.8	4	-1E+10	1	-1E+10	1	-1E+10	1	-1E+10	1	-1E+10	1	-1E+10	1
4901784	78	C	08/23/2017	10:48	-132.831	43.738	0	1245.50	0	2.9560	0	34.5440	4	27.533	0	1231.846	0	18.8	4	5.8	4	-1E+10	1	-1E+10	1	-1E+10	1	-1E+10	1	-1E+10	1	-1E+10	1
4901784	78	C	08/23/2017	10:48	-132.831	43.738	0	1250.70	0	2.9520	0	34.5450	4	27.534	0	1236.973	0	18.9	4	5.8	4	-1E+10	1	-1E+10	1	-1E+10	1	-1E+10	1	-1E+10	1	-1E+10	1
4901784	78	C	08/23/2017	10:48	-132.831	43.738	0	1254.90	0	2.9500	0	34.5460	4	27.535	0	1241.115	0	19.1	4	5.9	4	-1E+10	1	-1E+10	1	-1E+10	1	-1E+10	1	-1E+10	1	-1E+10	1
4901784	78	C	08/23/2017	10:48	-132.831	43.738	0	1259.20	0	2.9450	0	34.5490	4	27.538	0	1245.355	0	19.3	4	5.9	4	-1E+10	1	-1E+10	1	-1E+10	1	-1E+10	1	-1E+10	1	-1E+10	1
4901784	78	C	08/23/2017	10:48	-132.831	43.738	0	1264.40	0	2.9380	0	34.5530	4	27.542	0	1250.482	0	19.4	4	6.0	4	-1E+10	1	-1E+10	1	-1E+10	1	-1E+10	1	-1E+10	1	-1E+10	1
4901784	78	C	08/23/2017	10:48	-132.831	43.738	0	1269.60	0	2.9300	0	34.5550	4	27.544	0	1255.610	0	19.5	4	6.0	4	-1E+10	1	-1E+10	1	-1E+10	1	-1E+10	1	-1E+10	1	-1E+10	1
4901784	78	C	08/23/2017	10:48	-132.831	43.738	0	1274.80	0	2.9260	0	34.5550	4	27.545	0	1260.737	0	19.7	4	6.1	4	-1E+10	1	-1E+10	1	-1E+10	1	-1E+10	1	-1E+10	1	-1E+10	1
4901784	78	C	08/23/2017	10:48	-132.831	43.738	0	1279.90	0	2.9190	0	34.5560	4	27.546	0	1265.765	0	20.0	4	6.2	4	-1E+10	1	-1E+10	1	-1E+10	1	-1E+10	1	-1E+10	1	-1E+10	1
4901784	78	C	08/23/2017	10:48	-132.831	43.738	0	1285.20	0	2.9100	0	34.5580	4	27.549	0	1270.991	0	20.3	4	6.3	4	-1E+10	1	-1E+10	1	-1E+10	1	-1E+10	1	-1E+10	1	-1E+10	1
4901784	78	C	08/23/2017	10:48	-132.831	43.738	0	1290.40	0	2.9050	0	34.5550	4	27.547	0	1276.117	0	20.5	4	6.3	4	-1E+10	1	-1E+10	1	-1E+10	1	-1E+10	1	-1E+10	1	-1E+10	1
4901784	78	C	08/23/2017	10:48	-132.831	43.738	0	1295.70	0	2.8990	0	34.5550	4	27.547	0	1281.343	0	20.7	4	6.4	4	-1E+10	1	-1E+10	1	-1E+10	1	-1E+10	1	-1E+10	1	-1E+10	1
4901784	78	C	08/23/2017	10:48	-132.831	43.738	0	1300.10	0	2.8910	0	34.5570	4	27.550	0	1285.680	0	20.9	4	6.4	4	-1E+10	1	-1E+10	1	-1E+10	1	-1E+10	1	-1E+10	1	-1E+10	1
4901784	78	C	08/23/2017	10:48	-132.831	43.738	0	1304.60	0	2.8830	0	34.5580	4	27.551	0	1290.117	0	21.1	4	6.5	4	-1E+10	1	-1E+10	1	-1E+10	1	-1E+10	1	-1E+10	1	-1E+10	1
4901784	78	C	08/23/2017	10:48	-132.831	43.738	0	1309.90	0	2.8760	0	34.5590	4	27.553	0	1295.342	0	21.3	4	6.5	4	-1E+10	1	-1E+10	1	-1E+10	1	-1E+10	1	-1E+10	1	-1E+10	1
4901784	78	C	08/23/2017	10:48	-132.831	43.738	0	1315.20	0	2.8670	0	34.5600	4	27.554	0	1300.566	0	21.4	4	6.6	4	-1E+10	1	-1E+10	1	-1E+10	1	-1E+10	1	-1E+10	1	-1E+10	1
4901784	78	C	08/23/2017	10:48	-132.831	43.738	0	1320.50	0	2.8550	0	34.5640	4	27.558	0	1305.791	0	21.6	4	6.7	4	-1E+10	1	-1E+10	1	-1E+10	1	-1E+10	1	-1E+10	1	-1E+10	1
4901784	78	C	08/23/2017	10:48	-132.831	43.738	0	1324.90	0	2.8480	0	34.5630	4	27.558	0	1310.128	0	21.8	4	6.7	4	-1E+10	1	-1E+10	1	-1E+10	1	-1E+10	1	-1E+10	1	-1E+10	1
4901784	78	C	08/23/2017	10:48	-132.831	43.738	0	1329.60	0	2.8440	0	34.5630	4	27.559	0	1314.761	0	21.9	4	6.7	4	-1E+10	1	-1E+10	1	-1E+10	1	-1E+10	1	-1E+10	1	-1E+10	1
4901784	78	C	08/23/2017	10:48	-132.831	43.738	0	1335.20	0	2.8360	0	34.5640	4	27.560	0	1320.281	0	22.1	4	6.8	4	-1E+10	1	-1E+10	1	-1E+10	1	-1E+10	1	-1E+10	1	-1E+10	1
4901784	78	C	08/23/2017	10:48	-132.831	43.738	0	1340.40	0	2.8280	0	34.5650	4	27.562	0	1325.407	0	22.4	4	6.9	4	-1E+10	1	-1E+10	1	-1E+10	1	-1E+10	1	-1E+10	1	-1E+10	1
4901784	78	C	08/23/2017	10:48	-132.831	43.738	0	1344.90	0	2.8210	0	34.5660	4	27.563	0	1329.842	0	22.6	4	6.9	4	-1E+10	1	-1E+10	1	-1E+10	1	-1E+10	1	-1E+10	1	-1E+10	1
4901784	78	C	08/23/2017	10:48	-132.831	43.738	0	1349.60	0	2.8150	0	34.5670	4	27.565	0	1334.475	0	22.7	4	7.0	4	-1E+10	1	-1E+10	1	-1E+10	1	-1E+10	1	-1E+10	1	-1E+10	1
4901784	78	C	08/23/2017	10:48	-132.831	43.738	0	1354.70	0	2.8090	0	34.5680	4	27.566	0	1339.501	0	22.9	4	7.1	4	-1E+10	1	-1E+10	1	-1E+10	1	-1E+10	1	-1E+10	1	-1E+10	1
4901784	78	C	08/23/2017	10:48	-132.831	43.738	0	1359.80	0	2.7990	0	34.5690	4	27.568	0	1344.528	0	23.2	4	7.1	4	-1E+10	1	-1E+10	1	-1E+10	1	-1E+10	1	-1E+10	1	-1E+10	1
4901784	78	C	08/23/2017	10:48	-132.831	43.738	0	1364.90	0	2.7870	0	34.5710	4	27.570	0	1349.554	0	23.3	4	7.2	4	-1E+10	1	-1E+10	1	-1E+10	1	-1E+10	1	-1E+10	1	-1E+10	1
4901784	78	C	08/23/2017	10:48	-132.831	43.738	0	1370.10	0	2.7720	0	34.5720	4	27.572	0	1354.679	0	23.4	4	7.2	4	-1E+10	1	-1E+10	1	-1E+10	1	-1E+10	1	-1E+10	1	-1E+10	1
4901784	78	C	08/23/2017	10:48	-132.831	43.738	0	1375.20	0	2.7560	0	34.5720	4	27.574	0	1359.705	0	23.6	4	7.2	4	-1E+10	1	-1E+10	1	-1E+10	1	-1E+10	1	-1E+10	1	-1E+10	1
4901784	78	C	08/23/2017	10:48	-132.831	43.738	0	1380.40	0	2.7440	0	34.5730	4	27.576	0	1364.830	0	23.8	4	7.3	4	-1E+10	1	-1E+10	1	-1E+10	1	-1E+10	1	-1E+10	1	-1E+10	1
4901784	78	C	08/23/2017	10:48	-132.831	43.738	0	1385.60	0	2.7330	0	34.5740	4	27.577	0	1369.954	0	24.0	4	7.4	4	-1E+10	1	-1E+10	1	-1E+10	1	-1E+10	1	-1E+10	1	-1E+10	1
4901784	78	C	08/23/2017	10:48	-132.831	43.738	0	1389.90	0	2.7300	0	34.5750	4	27.579	0	1374.192	0	24.1	4	7.4	4	-1E+10	1	-1E+10	1	-1E+10	1	-1E+10	1	-1E+10	1	-1E+10	1
4901784	78	C	08/23/2017	10:48	-132.831	43.738	0	1394.30	0	2.7240	0	34.5750	4	27.579	0	1378.528	0	24.2	4	7.4	4	-1E+10	1	-1E+10	1	-1E+10	1	-1E+10	1	-1E+10	1	-1E+10	1
4901784	78	C	08/23/2017	10:48	-132.831	43.738	0	1399.60	0	2.7120	0	34.5760	4	27.581	0	1383.750	0	24.5	4	7.5	4	-1E+10	1	-1E+10	1	-1E+10	1	-1E+10	1	-1E+10	1	-1E+10	1
4901784	78	C	08/23/2017	10:48	-132.831	43.738	0	1404.90	0	2.7030	0	34.5770	4	27.583	0	1388.973	0	24.6	4	7.6	4	-1E+10	1	-1E+10	1	-1E+10	1	-1E+10	1	-1E+10	1	-1E+10	1
4901784	78	C	08/23/2017	10:48	-132.831	43.738	0	1410.20	0	2.6980	0	34.5780	4	27.584	0	1394.195	0	24.8	4	7.6	4	-1E+10	1	-1E+10	1	-1E+10	1	-1E+10	1	-1E+10	1	-1E+10	1
4901784	78	C	08/23/2017	10:48	-132.831	43.738	0	1415.50	0	2.6880	0	34.5790	4	27.586	0	1399.418	0	24.9	4	7.6	4	-1E+10	1	-1E+10	1	-1E+10	1	-1E+10	1	-1E+10	1	-1E+10	1
4901784	78	C	08/23/2017	10:48	-132.831	43.738	0	1420.00	0	2.6750	0	34.5790	4	27.587	0	1403.852	0	24.9	4	7.6	4	-1E+10	1	-1E+10	1	-1E+10	1	-1E+10	1	-1E+10	1	-1E+10	1
4901784	78	C	08/23/2017	10:48	-132.831	43.738	0	1424.50	0	2.6710	0	34.5800	4	27.588	0	1408.285	0	25.1	4	7.7	4	-1E+10	1	-1E+10	1	-1E+10	1	-1E+10	1	-1E+10	1	-1E+10	1
4901784	78	C	08/23/2017	10:48	-132.831	43.738	0	1429.90	0	2.6490	0	34.5830	4	27.592	0	1413.606	0	25.3	4	7.8	4	-1E+10	1	-1E+10	1	-1E+10	1	-1E+10	1	-1E+10	1	-1E+10	1
4901784	78	C	08/23/2017	10:48	-132.831	43.738	0	1435.50	0	2.6290	0	34.5840	4	27.595	0	1419.123	0	25.4	4	7.8	4	-1E+10	1	-1E+10	1	-1E+10	1	-1E+10	1	-1E+10	1	-1E+10	1
4901784	78	C	08/23/2017	10:48	-132.831	43.738	0	1440.10	0	2.6250	0	34.5830	4	27.594	0	1423.655	0	25.3	4	7.8	4	-1E+10	1	-1E+10	1	-1E+10	1	-1E+10	1	-1E+10	1	-1E+10	1
4901784	78	C	08/23/2017	10:48	-132.831	43.738	0	1444.80	0	2.6190	0	34.5820	4	27.594	0	1428.286	0	25.4	4	7.8	4	-1E+10	1	-1E+10	1	-1E+10	1	-1E+10	1	-1E+10	1	-1E+10	1
4901784	78	C	08/23/2017	10:48	-132.831	43.738	0	1450.40	0	2.6000	0	34.5830	4	27.596	0	1433.803	0	25.6	4	7.8	4	-1E+10	1	-1E+10	1	-1E+10	1	-1E+10	1	-1E+10	1	-1E+10	1
4901784	78	C	08/23/2017	10:48	-132.831	43.738	0	1455.10	0	2.5900	0	34.5840	4	27.598	0	1438.433	0	25.9	4	7.9	4	-1E+10	1	-1E+10	1	-1E+10	1	-1E+10	1	-1E+10	1	-1E+10	1
4901784	78	C	08/23/2017	10:48	-132.831	43.738	0	1459.80	0	2.5800	0	34.5870	4	27.601	0	1443.063	0	26.2	4	8.0	4	-1E+10	1	-1E+10	1	-1E+10	1	-1E+10	1	-1E+10	1	-1E+10	1
4901784	78	C	08/23/2017	10:48	-132.831	43.738	0	1465.60	0	2.5660	0	34.5900	4	27.605	0	1448.777	0	26.5	4	8.1	4	-1E+10	1	-1E+10	1	-1E+10	1	-1E+10	1	-1E+10	1	-1E+10	1
4901784	78	C	08/23/2017	10:48	-132.831	43.738	0	1470.40	0	2.5570	0	34.5920	4	27.607	0	1453.505	0	26.8	4	8.2	4	-1E+10	1	-1E+10	1	-1E+10	1	-1E+10	1	-1E+10	1	-1E+10	1
4901784	78	C	08/23/2017	10:48	-132.831	43.738	0	1475.20	0	2.5450	0	34.5930	4	27.609	0	1458.233	0	27.1	4	8.3	4	-1E+10	1	-1E+10	1	-1E+10	1	-1E+10	1	-1E+10	1	-1E+10	1
4901784	78	C	08/23/2017	10:48	-132.831	43.738	0	1480.10	0	2.5380	0	34.5940	4	27.611	0	1463.060	0	27.4	4	8.4	4	-1E+10	1	-1E+10	1	-1E+10	1	-1E+10	1	-1E+10	1	-1E+10	1
4901784	78	C	08/23/2017	10:48	-132.831	43.738	0	1484.70	0	2.5300	0	34.5950	4	27.612	0	1467.591	0	27.7	4	8.5	4	-1E+10	1	-1E+10	1	-1E+10	1	-1E+10	1	-1E+10	1	-1E+10	1
4901784	78	C	08/23/2017	10:48	-132.831	43.738	0	1490.10	0	2.5160	0	34.5960	4	27.614	0	1472.910	0	28.0	4	8.6	4	-1E+10	1	-1E+10	1	-1E+10	1	-1E+10	1	-1E+10	1	-1E+10	1
4901784	78	C	08/23/2017	10:48	-132.831	43.738	0	1495.60	0	2.5040	0	34.5980	4	27.617	0	1478.327	0	28.4	4	8.7	4	-1E+10	1	-1E+10	1	-1E+10	1	-1E+10	1	-1E+10	1	-1E+10	1
4901784	78	C	08/23/2017	10:48	-132.831	43.738	0	1500.10	0	2.4950	0	34.5990	4	27.618	0	1482.760	0	28.6	4	8.7	4	-1E+10	1	-1E+10	1	-1E+10	1	-1E+10	1	-1E+10	1	-1E+10	1
4901784	78	C	08/23/2017	10:48	-132.831	43.738	0	1504.70	0	2.4870	0	34.5990	4	27.619	0	1487.290	0	28.8	4	8.8	4	-1E+10	1	-1E+10	1	-1E+10	1	-1E+10	1	-1E+10	1	-1E+10	1
4901784	78	C	08/23/2017	10:48	-132.831	43.738	0	1510.20	0	2.4780	0	34.6000	4	27.621	0	1492.707	0	29.1	4	8.9	4	-1E+10	1	-1E+10	1	-1E+10	1	-1E+10	1	-1E+10	1	-1E+10	1
4901784	78	C	08/23/2017	10:48	-132.831	43.738	0	1514.90	0	2.4720	0	34.6010	4	27.622	0	1497.336	0	29.4	4	9.0	4	-1E+10	1	-1E+10	1	-1E+10	1	-1E+10	1	-1E+10	1	-1E+10	1
4901784	78	C	08/23/2017	10:48	-132.831	43.738	0	1520.10	0	2.4620	0	34.6020	4	27.624	0	1502.457	0	29.7	4	9.1	4	-1E+10	1	-1E+10	1	-1E+10	1	-1E+10	1	-1E+10	1	-1E+10	1
4901784	78	C	08/23/2017	10:48	-132.831	43.738	0	1525.20	0	2.4480	0	34.6030	4	27.626	0	1507.480	0	30.0	4	9.2	4	-1E+10	1	-1E+10	1	-1E+10	1	-1E+10	1	-1E+10	1	-1E+10	1
4901784	78	C	08/23/2017	10:48	-132.831	43.738	0	1530.00	0	2.4400	0	34.6040	4	27.627	0	1512.207	0	30.3	4	9.2	4	-1E+10	1	-1E+10	1	-1E+10	1	-1E+10	1	-1E+10	1	-1E+10	1
4901784	78	C	08/23/2017	10:48	-132.831	43.738	0	1534.80	0	2.4370	0	34.6040	4	27.627	0	1516.934	0	30.5	4	9.3	4	-1E+10	1	-1E+10	1	-1E+10	1	-1E+10	1	-1E+10	1	-1E+10	1
4901784	78	C	08/23/2017	10:48	-132.831	43.738	0	1539.70	0	2.4300	0	34.6030	4	27.627	0	1521.759	0	30.7	4	9.4	4	-1E+10	1	-1E+10	1	-1E+10	1	-1E+10	1	-1E+10	1	-1E+10	1
4901784	78	C	08/23/2017	10:48	-132.831	43.738	0	1544.50	0	2.4220	0	34.6010	4	27.626	0	1526.486	0	31.0	4	9.4	4	-1E+10	1	-1E+10	1	-1E+10	1	-1E+10	1	-1E+10	1	-1E+10	1
4901784	78	C	08/23/2017	10:48	-132.831	43.738	0	1549.50	0	2.4170	0	34.6010	4	27.627	0	1531.410	0	31.2	4	9.5	4	-1E+10	1	-1E+10	1	-1E+10	1	-1E+10	1	-1E+10	1	-1E+10	1
4901784	78	C	08/23/2017	10:48	-132.831	43.738	0	1554.40	0	2.4090	0	34.6010	4	27.627	0	1536.235	0	31.5	4	9.6	4	-1E+10	1	-1E+10	1	-1E+10	1	-1E+10	1	-1E+10	1	-1E+10	1
4901784	78	C	08/23/2017	10:48	-132.831	43.738	0	1559.40	0	2.3990	0	34.6030	4	27.630	0	1541.158	0	31.8	4	9.7	4	-1E+10	1	-1E+10	1	-1E+10	1	-1E+10	1	-1E+10	1	-1E+10	1
4901784	78	C	08/23/2017	10:48	-132.831	43.738	0	1564.40	0	2.3880	0	34.6040	4	27.632	0	1546.082	0	32.1	4	9.8	4	-1E+10	1	-1E+10	1	-1E+10	1	-1E+10	1	-1E+10	1	-1E+10	1
4901784	78	C	08/23/2017	10:48	-132.831	43.738	0	1569.40	0	2.3810	0	34.6050	4	27.633	0	1551.005	0	32.4	4	9.9	4	-1E+10	1	-1E+10	1	-1E+10	1	-1E+10	1	-1E+10	1	-1E+10	1
4901784	78	C	08/23/2017	10:48	-132.831	43.738	0	1574.50	0	2.3780	0	34.6050	4	27.633	0	1556.026	0	32.5	4	9.9	4	-1E+10	1	-1E+10	1	-1E+10	1	-1E+10	1	-1E+10	1	-1E+10	1
4901784	78	C	08/23/2017	10:48	-132.831	43.738	0	1579.60	0	2.3750	0	34.6060	4	27.634	0	1561.047	0	32.8	4	10.0	4	-1E+10	1	-1E+10	1	-1E+10	1	-1E+10	1	-1E+10	1	-1E+10	1
4901784	78	C	08/23/2017	10:48	-132.831	43.738	0	1584.80	0	2.3660	0	34.6070	4	27.636	0	1566.167	0	33.1	4	10.1	4	-1E+10	1	-1E+10	1	-1E+10	1	-1E+10	1	-1E+10	1	-1E+10	1
4901784	78	C	08/23/2017	10:48	-132.831	43.738	0	1590.00	0	2.3580	0	34.6080	4	27.637	0	1571.287	0	33.4	4	10.2	4	-1E+10	1	-1E+10	1	-1E+10	1	-1E+10	1	-1E+10	1	-1E+10	1
4901784	78	C	08/23/2017	10:48	-132.831	43.738	0	1595.10	0	2.3510	0	34.6090	4	27.639	0	1576.308	0	33.7	4	10.2	4	-1E+10	1	-1E+10	1	-1E+10	1	-1E+10	1	-1E+10	1	-1E+10	1
4901784	78	C	08/23/2017	10:48	-132.831	43.738	0	1600.40	0	2.3470	0	34.6100	4	27.640	0	1581.526	0	33.9	4	10.3	4	-1E+10	1	-1E+10	1	-1E+10	1	-1E+10	1	-1E+10	1	-1E+10	1
4901784	78	C	08/23/2017	10:48	-132.831	43.738	0	1605.60	0	2.3400	0	34.6100	4	27.641	0	1586.645	0	34.3	4	10.4	4	-1E+10	1	-1E+10	1	-1E+10	1	-1E+10	1	-1E+10	1	-1E+10	1
4901784	78	C	08/23/2017	10:48	-132.831	43.738	0	1610.00	0	2.3300	0	34.6120	4	27.643	0	1590.976	0	34.7	4	10.6	4	-1E+10	1	-1E+10	1	-1E+10	1	-1E+10	1	-1E+10	1	-1E+10	1
4901784	78	C	08/23/2017	10:48	-132.831	43.738	0	1614.40	0	2.3230	0	34.6130	4	27.644	0	1595.308	0	35.1	4	10.7	4	-1E+10	1	-1E+10	1	-1E+10	1	-1E+10	1	-1E+10	1	-1E+10	1
4901784	78	C	08/23/2017	10:48	-132.831	43.738	0	1619.70	0	2.3180	0	34.6140	4	27.646	0	1600.525	0	35.3	4	10.7	4	-1E+10	1	-1E+10	1	-1E+10	1	-1E+10	1	-1E+10	1	-1E+10	1
4901784	78	C	08/23/2017	10:48	-132.831	43.738	0	1625.00	0	2.3120	0	34.6150	4	27.647	0	1605.742	0	35.6	4	10.8	4	-1E+10	1	-1E+10	1	-1E+10	1	-1E+10	1	-1E+10	1	-1E+10	1
4901784	78	C	08/23/2017	10:48	-132.831	43.738	0	1630.30	0	2.2990	0	34.6160	4	27.649	0	1610.959	0	35.8	4	10.9	4	-1E+10	1	-1E+10	1	-1E+10	1	-1E+10	1	-1E+10	1	-1E+10	1
4901784	78	C	08/23/2017	10:48	-132.831	43.738	0	1635.70	0	2.2970	0	34.6160	4	27.649	0	1616.274	0	36.1	4	11.0	4	-1E+10	1	-1E+10	1	-1E+10	1	-1E+10	1	-1E+10	1	-1E+10	1
4901784	78	C	08/23/2017	10:48	-132.831	43.738	0	1640.10	0	2.2910	0	34.6180	4	27.651	0	1620.605	0	36.4	4	11.0	4	-1E+10	1	-1E+10	1	-1E+10	1	-1E+10	1	-1E+10	1	-1E+10	1
4901784	78	C	08/23/2017	10:48	-132.831	43.738	0	1644.60	0	2.2830	0	34.6180	4	27.652	0	1625.035	0	36.7	4	11.1	4	-1E+10	1	-1E+10	1	-1E+10	1	-1E+10	1	-1E+10	1	-1E+10	1
4901784	78	C	08/23/2017	10:48	-132.831	43.738	0	1649.90	0	2.2740	0	34.6190	4	27.653	0	1630.251	0	37.2	4	11.3	4	-1E+10	1	-1E+10	1	-1E+10	1	-1E+10	1	-1E+10	1	-1E+10	1
4901784	78	C	08/23/2017	10:48	-132.831	43.738	0	1655.30	0	2.2660	0	34.6200	4	27.655	0	1635.566	0	37.6	4	11.4	4	-1E+10	1	-1E+10	1	-1E+10	1	-1E+10	1	-1E+10	1	-1E+10	1
4901784	78	C	08/23/2017	10:48	-132.831	43.738	0	1659.80	0	2.2610	0	34.6210	4	27.656	0	1639.995	0	38.1	4	11.6	4	-1E+10	1	-1E+10	1	-1E+10	1	-1E+10	1	-1E+10	1	-1E+10	1
4901784	78	C	08/23/2017	10:48	-132.831	43.738	0	1664.30	0	2.2560	0	34.6230	4	27.658	0	1644.424	0	38.4	4	11.7	4	-1E+10	1	-1E+10	1	-1E+10	1	-1E+10	1	-1E+10	1	-1E+10	1
4901784	78	C	08/23/2017	10:48	-132.831	43.738	0	1669.90	0	2.2510	0	34.6230	4	27.659	0	1649.935	0	38.7	4	11.8	4	-1E+10	1	-1E+10	1	-1E+10	1	-1E+10	1	-1E+10	1	-1E+10	1
4901784	78	C	08/23/2017	10:48	-132.831	43.738	0	1675.40	0	2.2460	0	34.6250	4	27.661	0	1655.348	0	39.0	4	11.8	4	-1E+10	1	-1E+10	1	-1E+10	1	-1E+10	1	-1E+10	1	-1E+10	1
4901784	78	C	08/23/2017	10:48	-132.831	43.738	0	1680.00	0	2.2430	0	34.6250	4	27.661	0	1659.875	0	39.2	4	11.9	4	-1E+10	1	-1E+10	1	-1E+10	1	-1E+10	1	-1E+10	1	-1E+10	1
4901784	78	C	08/23/2017	10:48	-132.831	43.738	0	1684.60	0	2.2390	0	34.6260	4	27.662	0	1664.402	0	39.5	4	12.0	4	-1E+10	1	-1E+10	1	-1E+10	1	-1E+10	1	-1E+10	1	-1E+10	1
4901784	78	C	08/23/2017	10:48	-132.831	43.738	0	1690.20	0	2.2300	0	34.6270	4	27.664	0	1669.913	0	39.9	4	12.1	4	-1E+10	1	-1E+10	1	-1E+10	1	-1E+10	1	-1E+10	1	-1E+10	1
4901784	78	C	08/23/2017	10:48	-132.831	43.738	0	1694.70	0	2.2250	0	34.6280	4	27.665	0	1674.341	0	40.3	4	12.2	4	-1E+10	1	-1E+10	1	-1E+10	1	-1E+10	1	-1E+10	1	-1E+10	1
4901784	78	C	08/23/2017	10:48	-132.831	43.738	0	1699.60	0	2.2190	0	34.6330	4	27.669	0	1679.163	0	40.6	4	12.3	4	-1E+10	1	-1E+10	1	-1E+10	1	-1E+10	1	-1E+10	1	-1E+10	1
4901784	78	C	08/23/2017	10:48	-132.831	43.738	0	1704.90	0	2.2100	0	34.6320	4	27.669	0	1684.378	0	40.9	4	12.4	4	-1E+10	1	-1E+10	1	-1E+10	1	-1E+10	1	-1E+10	1	-1E+10	1
4901784	78	C	08/23/2017	10:48	-132.831	43.738	0	1709.70	0	2.2040	0	34.6340	4	27.671	0	1689.101	0	41.1	4	12.5	4	-1E+10	1	-1E+10	1	-1E+10	1	-1E+10	1	-1E+10	1	-1E+10	1
4901784	78	C	08/23/2017	10:48	-132.831	43.738	0	1714.60	0	2.1960	0	34.6340	4	27.672	0	1693.922	0	41.4	4	12.5	4	-1E+10	1	-1E+10	1	-1E+10	1	-1E+10	1	-1E+10	1	-1E+10	1
4901784	78	C	08/23/2017	10:48	-132.831	43.738	0	1719.60	0	2.1920	0	34.6370	4	27.675	0	1698.842	0	41.6	4	12.6	4	-1E+10	1	-1E+10	1	-1E+10	1	-1E+10	1	-1E+10	1	-1E+10	1
4901784	78	C	08/23/2017	10:48	-132.831	43.738	0	1724.50	0	2.1890	0	34.6370	4	27.675	0	1703.663	0	41.8	4	12.7	4	-1E+10	1	-1E+10	1	-1E+10	1	-1E+10	1	-1E+10	1	-1E+10	1
4901784	78	C	08/23/2017	10:48	-132.831	43.738	0	1729.50	0	2.1850	0	34.6370	4	27.675	0	1708.583	0	42.0	4	12.7	4	-1E+10	1	-1E+10	1	-1E+10	1	-1E+10	1	-1E+10	1	-1E+10	1
4901784	78	C	08/23/2017	10:48	-132.831	43.738	0	1734.50	0	2.1770	0	34.6380	4	27.677	0	1713.502	0	42.4	4	12.9	4	-1E+10	1	-1E+10	1	-1E+10	1	-1E+10	1	-1E+10	1	-1E+10	1
4901784	78	C	08/23/2017	10:48	-132.831	43.738	0	1739.50	0	2.1720	0	34.6390	4	27.678	0	1718.421	0	42.8	4	13.0	4	-1E+10	1	-1E+10	1	-1E+10	1	-1E+10	1	-1E+10	1	-1E+10	1
4901784	78	C	08/23/2017	10:48	-132.831	43.738	0	1744.50	0	2.1680	0	34.6390	4	27.679	0	1723.340	0	43.1	4	13.1	4	-1E+10	1	-1E+10	1	-1E+10	1	-1E+10	1	-1E+10	1	-1E+10	1
4901784	78	C	08/23/2017	10:48	-132.831	43.738	0	1749.50	0	2.1600	0	34.6410	4	27.681	0	1728.259	0	43.5	4	13.2	4	-1E+10	1	-1E+10	1	-1E+10	1	-1E+10	1	-1E+10	1	-1E+10	1
4901784	78	C	08/23/2017	10:48	-132.831	43.738	0	1754.60	0	2.1550	0	34.6420	4	27.682	0	1733.277	0	44.0	4	13.3	4	-1E+10	1	-1E+10	1	-1E+10	1	-1E+10	1	-1E+10	1	-1E+10	1
4901784	78	C	08/23/2017	10:48	-132.831	43.738	0	1759.60	0	2.1510	0	34.6420	4	27.682	0	1738.195	0	44.2	4	13.4	4	-1E+10	1	-1E+10	1	-1E+10	1	-1E+10	1	-1E+10	1	-1E+10	1
4901784	78	C	08/23/2017	10:48	-132.831	43.738	0	1764.70	0	2.1430	0	34.6400	4	27.681	0	1743.213	0	44.5	4	13.5	4	-1E+10	1	-1E+10	1	-1E+10	1	-1E+10	1	-1E+10	1	-1E+10	1
4901784	78	C	08/23/2017	10:48	-132.831	43.738	0	1769.80	0	2.1320	0	34.6390	4	27.681	0	1748.230	0	44.9	4	13.6	4	-1E+10	1	-1E+10	1	-1E+10	1	-1E+10	1	-1E+10	1	-1E+10	1
4901784	78	C	08/23/2017	10:48	-132.831	43.738	0	1774.90	0	2.1270	0	34.6390	4	27.682	0	1753.246	0	45.2	4	13.7	4	-1E+10	1	-1E+10	1	-1E+10	1	-1E+10	1	-1E+10	1	-1E+10	1
4901784	78	C	08/23/2017	10:48	-132.831	43.738	0	1780.00	0	2.1200	0	34.6400	4	27.683	0	1758.263	0	45.6	4	13.8	4	-1E+10	1	-1E+10	1	-1E+10	1	-1E+10	1	-1E+10	1	-1E+10	1
4901784	78	C	08/23/2017	10:48	-132.831	43.738	0	1785.10	0	2.1140	0	34.6410	4	27.685	0	1763.279	0	45.8	4	13.9	4	-1E+10	1	-1E+10	1	-1E+10	1	-1E+10	1	-1E+10	1	-1E+10	1
4901784	78	C	08/23/2017	10:48	-132.831	43.738	0	1790.30	0	2.1090	0	34.6420	4	27.686	0	1768.394	0	46.2	4	14.0	4	-1E+10	1	-1E+10	1	-1E+10	1	-1E+10	1	-1E+10	1	-1E+10	1
4901784	78	C	08/23/2017	10:48	-132.831	43.738	0	1795.40	0	2.1040	0	34.6430	4	27.687	0	1773.411	0	46.4	4	14.0	4	-1E+10	1	-1E+10	1	-1E+10	1	-1E+10	1	-1E+10	1	-1E+10	1
4901784	78	C	08/23/2017	10:48	-132.831	43.738	0	1800.70	0	2.1020	0	34.6430	4	27.687	0	1778.623	0	46.7	4	14.1	4	-1E+10	1	-1E+10	1	-1E+10	1	-1E+10	1	-1E+10	1	-1E+10	1
4901784	78	C	08/23/2017	10:48	-132.831	43.738	0	1805.00	0	2.1000	0	34.6440	4	27.688	0	1782.853	0	46.9	4	14.2	4	-1E+10	1	-1E+10	1	-1E+10	1	-1E+10	1	-1E+10	1	-1E+10	1
4901784	78	C	08/23/2017	10:48	-132.831	43.738	0	1809.30	0	2.0970	0	34.6440	4	27.688	0	1787.082	0	47.2	4	14.3	4	-1E+10	1	-1E+10	1	-1E+10	1	-1E+10	1	-1E+10	1	-1E+10	1
4901784	78	C	08/23/2017	10:48	-132.831	43.738	0	1814.60	0	2.0930	0	34.6460	4	27.690	0	1792.294	0	47.6	4	14.4	4	-1E+10	1	-1E+10	1	-1E+10	1	-1E+10	1	-1E+10	1	-1E+10	1
4901784	78	C	08/23/2017	10:48	-132.831	43.738	0	1819.80	0	2.0900	0	34.6460	4	27.691	0	1797.409	0	47.9	4	14.5	4	-1E+10	1	-1E+10	1	-1E+10	1	-1E+10	1	-1E+10	1	-1E+10	1
4901784	78	C	08/23/2017	10:48	-132.831	43.738	0	1825.10	0	2.0860	0	34.6470	4	27.692	0	1802.621	0	48.2	4	14.6	4	-1E+10	1	-1E+10	1	-1E+10	1	-1E+10	1	-1E+10	1	-1E+10	1
4901784	78	C	08/23/2017	10:48	-132.831	43.738	0	1830.40	0	2.0810	0	34.6480	4	27.693	0	1807.833	0	48.5	4	14.7	4	-1E+10	1	-1E+10	1	-1E+10	1	-1E+10	1	-1E+10	1	-1E+10	1
4901784	78	C	08/23/2017	10:48	-132.831	43.738	0	1835.60	0	2.0760	0	34.6480	4	27.693	0	1812.947	0	48.9	4	14.8	4	-1E+10	1	-1E+10	1	-1E+10	1	-1E+10	1	-1E+10	1	-1E+10	1
4901784	78	C	08/23/2017	10:48	-132.831	43.738	0	1839.90	0	2.0700	0	34.6490	4	27.695	0	1817.175	0	49.1	4	14.8	4	-1E+10	1	-1E+10	1	-1E+10	1	-1E+10	1	-1E+10	1	-1E+10	1
4901784	78	C	08/23/2017	10:48	-132.831	43.738	0	1844.30	0	2.0680	0	34.6490	4	27.695	0	1821.502	0	49.2	4	14.9	4	-1E+10	1	-1E+10	1	-1E+10	1	-1E+10	1	-1E+10	1	-1E+10	1
4901784	78	C	08/23/2017	10:48	-132.831	43.738	0	1849.60	0	2.0660	0	34.6500	4	27.696	0	1826.714	0	49.5	4	15.0	4	-1E+10	1	-1E+10	1	-1E+10	1	-1E+10	1	-1E+10	1	-1E+10	1
4901784	78	C	08/23/2017	10:48	-132.831	43.738	0	1854.90	0	2.0600	0	34.6500	4	27.696	0	1831.926	0	49.8	4	15.1	4	-1E+10	1	-1E+10	1	-1E+10	1	-1E+10	1	-1E+10	1	-1E+10	1
4901784	78	C	08/23/2017	10:48	-132.831	43.738	0	1860.20	0	2.0550	0	34.6510	4	27.698	0	1837.137	0	50.2	4	15.2	4	-1E+10	1	-1E+10	1	-1E+10	1	-1E+10	1	-1E+10	1	-1E+10	1
4901784	78	C	08/23/2017	10:48	-132.831	43.738	0	1865.50	0	2.0500	0	34.6520	4	27.699	0	1842.348	0	50.6	4	15.3	4	-1E+10	1	-1E+10	1	-1E+10	1	-1E+10	1	-1E+10	1	-1E+10	1
4901784	78	C	08/23/2017	10:48	-132.831	43.738	0	1870.00	0	2.0440	0	34.6530	4	27.700	0	1846.773	0	51.0	4	15.4	4	-1E+10	1	-1E+10	1	-1E+10	1	-1E+10	1	-1E+10	1	-1E+10	1
4901784	78	C	08/23/2017	10:48	-132.831	43.738	0	1874.50	0	2.0370	0	34.6550	4	27.702	0	1851.198	0	51.4	4	15.5	4	-1E+10	1	-1E+10	1	-1E+10	1	-1E+10	1	-1E+10	1	-1E+10	1
4901784	78	C	08/23/2017	10:48	-132.831	43.738	0	1879.90	0	2.0280	0	34.6580	4	27.705	0	1856.507	0	51.9	4	15.7	4	-1E+10	1	-1E+10	1	-1E+10	1	-1E+10	1	-1E+10	1	-1E+10	1
4901784	78	C	08/23/2017	10:48	-132.831	43.738	0	1885.40	0	2.0230	0	34.6580	4	27.706	0	1861.914	0	52.1	4	15.7	4	-1E+10	1	-1E+10	1	-1E+10	1	-1E+10	1	-1E+10	1	-1E+10	1
4901784	78	C	08/23/2017	10:48	-132.831	43.738	0	1889.90	0	2.0230	0	34.6610	4	27.708	0	1866.339	0	52.3	4	15.8	4	-1E+10	1	-1E+10	1	-1E+10	1	-1E+10	1	-1E+10	1	-1E+10	1
4901784	78	C	08/23/2017	10:48	-132.831	43.738	0	1894.40	0	2.0200	0	34.6610	4	27.709	0	1870.763	0	52.5	4	15.9	4	-1E+10	1	-1E+10	1	-1E+10	1	-1E+10	1	-1E+10	1	-1E+10	1
4901784	78	C	08/23/2017	10:48	-132.831	43.738	0	1899.70	0	2.0140	0	34.6620	4	27.710	0	1875.973	0	53.0	4	16.0	4	-1E+10	1	-1E+10	1	-1E+10	1	-1E+10	1	-1E+10	1	-1E+10	1
4901784	78	C	08/23/2017	10:48	-132.831	43.738	0	1905.10	0	2.0090	0	34.6630	4	27.711	0	1881.282	0	53.5	4	16.1	4	-1E+10	1	-1E+10	1	-1E+10	1	-1E+10	1	-1E+10	1	-1E+10	1
4901784	78	C	08/23/2017	10:48	-132.831	43.738	0	1910.60	0	2.0020	0	34.6640	4	27.713	0	1886.689	0	54.0	4	16.3	4	-1E+10	1	-1E+10	1	-1E+10	1	-1E+10	1	-1E+10	1	-1E+10	1
4901784	78	C	08/23/2017	10:48	-132.831	43.738	0	1915.10	0	1.9990	0	34.6650	4	27.714	0	1891.112	0	54.3	4	16.4	4	-1E+10	1	-1E+10	1	-1E+10	1	-1E+10	1	-1E+10	1	-1E+10	1
4901784	78	C	08/23/2017	10:48	-132.831	43.738	0	1919.60	0	1.9950	0	34.6640	4	27.713	0	1895.536	0	54.7	4	16.5	4	-1E+10	1	-1E+10	1	-1E+10	1	-1E+10	1	-1E+10	1	-1E+10	1
4901784	78	C	08/23/2017	10:48	-132.831	43.738	0	1925.10	0	1.9880	0	34.6640	4	27.714	0	1900.943	0	55.1	4	16.6	4	-1E+10	1	-1E+10	1	-1E+10	1	-1E+10	1	-1E+10	1	-1E+10	1
4901784	78	C	08/23/2017	10:48	-132.831	43.738	0	1930.50	0	1.9850	0	34.6660	4	27.716	0	1906.251	0	55.6	4	16.8	4	-1E+10	1	-1E+10	1	-1E+10	1	-1E+10	1	-1E+10	1	-1E+10	1
4901784	78	C	08/23/2017	10:48	-132.831	43.738	0	1935.10	0	1.9780	0	34.6660	4	27.716	0	1910.772	0	56.1	4	16.9	4	-1E+10	1	-1E+10	1	-1E+10	1	-1E+10	1	-1E+10	1	-1E+10	1
4901784	78	C	08/23/2017	10:48	-132.831	43.738	0	1939.70	0	1.9700	0	34.6680	4	27.718	0	1915.294	0	56.5	4	17.0	4	-1E+10	1	-1E+10	1	-1E+10	1	-1E+10	1	-1E+10	1	-1E+10	1
4901784	78	C	08/23/2017	10:48	-132.831	43.738	0	1945.20	0	1.9650	0	34.6670	4	27.718	0	1920.700	0	56.9	4	17.1	4	-1E+10	1	-1E+10	1	-1E+10	1	-1E+10	1	-1E+10	1	-1E+10	1
4901784	78	C	08/23/2017	10:48	-132.831	43.738	0	1949.80	0	1.9620	0	34.6680	4	27.719	0	1925.221	0	57.1	4	17.2	4	-1E+10	1	-1E+10	1	-1E+10	1	-1E+10	1	-1E+10	1	-1E+10	1
4901784	78	C	08/23/2017	10:48	-132.831	43.738	0	1954.30	0	1.9610	0	34.6680	4	27.719	0	1929.644	0	57.3	4	17.3	4	-1E+10	1	-1E+10	1	-1E+10	1	-1E+10	1	-1E+10	1	-1E+10	1
4901784	78	C	08/23/2017	10:48	-132.831	43.738	0	1959.70	0	1.9570	0	34.6690	4	27.720	0	1934.951	0	57.6	4	17.4	4	-1E+10	1	-1E+10	1	-1E+10	1	-1E+10	1	-1E+10	1	-1E+10	1
4901784	78	C	08/23/2017	10:48	-132.831	43.738	0	1965.10	0	1.9520	0	34.6720	4	27.723	0	1940.258	0	58.0	4	17.5	4	-1E+10	1	-1E+10	1	-1E+10	1	-1E+10	1	-1E+10	1	-1E+10	1
4901784	78	C	08/23/2017	10:48	-132.831	43.738	0	1969.70	0	1.9480	0	34.6740	4	27.725	0	1944.779	0	58.2	4	17.5	4	-1E+10	1	-1E+10	1	-1E+10	1	-1E+10	1	-1E+10	1	-1E+10	1
4901784	78	C	08/23/2017	10:48	-132.831	43.738	0	1974.10	0	1.9470	0	34.6750	4	27.726	0	1949.104	0	58.3	4	17.6	4	-1E+10	1	-1E+10	1	-1E+10	1	-1E+10	1	-1E+10	1	-1E+10	1
4901784	78	C	08/23/2017	10:48	-132.831	43.738	0	1979.60	0	1.9450	0	34.6750	4	27.726	0	1954.509	0	58.4	4	17.6	4	-1E+10	1	-1E+10	1	-1E+10	1	-1E+10	1	-1E+10	1	-1E+10	1
4901784	78	C	08/23/2017	10:48	-132.831	43.738	0	1984.40	0	1.9450	0	34.6720	4	27.724	0	1959.226	0	58.6	4	17.7	4	-1E+10	1	-1E+10	1	-1E+10	1	-1E+10	1	-1E+10	1	-1E+10	1
4901784	78	C	08/23/2017	10:48	-132.831	43.738	0	1989.30	0	1.9420	0	34.6750	4	27.726	0	1964.041	0	58.8	4	17.7	4	-1E+10	1	-1E+10	1	-1E+10	1	-1E+10	1	-1E+10	1	-1E+10	1
4901784	78	C	08/23/2017	10:48	-132.831	43.738	0	1994.90	0	1.9390	0	34.6760	4	27.727	0	1969.544	0	59.1	4	17.8	4	-1E+10	1	-1E+10	1	-1E+10	1	-1E+10	1	-1E+10	1	-1E+10	1
4901784	78	C	08/23/2017	10:48	-132.831	43.738	0	2000.60	0	1.9370	0	34.6760	4	27.728	0	1975.145	0	59.3	4	17.9	4	-1E+10	1	-1E+10	1	-1E+10	1	-1E+10	1	-1E+10	1	-1E+10	1
4901784	78	C	08/23/2017	10:48	-132.831	43.738	0	2004.80	0	1.9340	0	34.6770	4	27.729	0	1979.272	0	59.5	4	17.9	4	-1E+10	1	-1E+10	1	-1E+10	1	-1E+10	1	-1E+10	1	-1E+10	1
4901784	78	C	08/23/2017	10:48	-132.831	43.738	0	2010.10	0	1.9300	0	34.6780	4	27.730	0	1984.480	0	59.7	4	18.0	4	-1E+10	1	-1E+10	1	-1E+10	1	-1E+10	1	-1E+10	1	-1E+10	1
4901784	78	C	08/23/2017	10:48	-132.831	43.738	0	2014.90	0	1.9270	0	34.6780	4	27.730	0	1989.197	0	60.0	4	18.1	4	-1E+10	1	-1E+10	1	-1E+10	1	-1E+10	1	-1E+10	1	-1E+10	1
4901784	78	C	08/23/2017	10:48	-132.831	43.738	0	2021.20	0	1.9220	0	34.6780	4	27.731	0	1995.387	0	59.8	4	18.0	4	-1E+10	1	-1E+10	1	-1E+10	1	-1E+10	1	-1E+10	1	-1E+10	1
4901784	78	C	08/23/2017	10:48	-132.831	43.738	0																										
4901784	79	C	09/02/2017	10:43	-133.037	43.848	0	2.70	0	19.2490	0	32.8950	4	23.351	0	2.678	0	227.0	4	97.9	4	-1E+10	1	-1E+10	1	-1E+10	1	-1E+10	1	-1E+10	1	-1E+10	1
4901784	79	C	09/02/2017	10:43	-133.037	43.848	0	4.20	0	19.0860	0	32.8940	4	23.392	0	4.166	0	227.6	4	97.9	4	-1E+10	1	-1E+10	1	-1E+10	1	-1E+10	1	-1E+10	1	-1E+10	1
4901784	79	C	09/02/2017	10:43	-133.037	43.848	0	5.80	0	19.0500	0	32.8930	4	23.400	0	5.753	0	228.1	4	98.0	4	-1E+10	1	-1E+10	1	-1E+10	1	-1E+10	1	-1E+10	1	-1E+10	1
4901784	79	C	09/02/2017	10:43	-133.037	43.848	0	7.40	0	18.9930	0	32.8910	4	23.413	0	7.341	0	228.5	4	98.1	4	-1E+10	1	-1E+10	1	-1E+10	1	-1E+10	1	-1E+10	1	-1E+10	1
4901784	79	C	09/02/2017	10:43	-133.037	43.848	0	9.10	0	18.8320	0	32.8910	4	23.454	0	9.027	0	229.2	4	98.1	4	-1E+10	1	-1E+10	1	-1E+10	1	-1E+10	1	-1E+10	1	-1E+10	1
4901784	79	C	09/02/2017	10:43	-133.037	43.848	0	10.90	0	18.7630	0	32.8900	4	23.470	0	10.812	0	229.9	4	98.2	4	-1E+10	1	-1E+10	1	-1E+10	1	-1E+10	1	-1E+10	1	-1E+10	1
4901784	79	C	09/02/2017	10:43	-133.037	43.848	0	12.70	0	18.7370	0	32.8880	4	23.475	0	12.598	0	230.5	4	98.5	4	-1E+10	1	-1E+10	1	-1E+10	1	-1E+10	1	-1E+10	1	-1E+10	1
4901784	79	C	09/02/2017	10:43	-133.037	43.848	0	14.90	0	18.7190	0	32.8830	4	23.476	0	14.780	0	231.8	4	99.0	4	-1E+10	1	-1E+10	1	-1E+10	1	-1E+10	1	-1E+10	1	-1E+10	1
4901784	79	C	09/02/2017	10:43	-133.037	43.848	0	16.60	0	18.7050	0	32.8780	4	23.476	0	16.466	0	233.8	4	99.8	4	-1E+10	1	-1E+10	1	-1E+10	1	-1E+10	1	-1E+10	1	-1E+10	1
4901784	79	C	09/02/2017	10:43	-133.037	43.848	0	18.00	0	18.6750	0	32.8690	4	23.476	0	17.855	0	236.6	4	100.9	4	-1E+10	1	-1E+10	1	-1E+10	1	-1E+10	1	-1E+10	1	-1E+10	1
4901784	79	C	09/02/2017	10:43	-133.037	43.848	0	19.50	0	18.4550	0	32.8740	4	23.535	0	19.343	0	240.9	4	102.4	4	-1E+10	1	-1E+10	1	-1E+10	1	-1E+10	1	-1E+10	1	-1E+10	1
4901784	79	C	09/02/2017	10:43	-133.037	43.848	0	21.00	0	17.9650	0	32.8390	4	23.628	0	20.831	0	247.2	4	104.1	4	-1E+10	1	-1E+10	1	-1E+10	1	-1E+10	1	-1E+10	1	-1E+10	1
4901784	79	C	09/02/2017	10:43	-133.037	43.848	0	22.50	0	17.5340	0	32.8390	4	23.732	0	22.319	0	252.0	4	105.2	4	-1E+10	1	-1E+10	1	-1E+10	1	-1E+10	1	-1E+10	1	-1E+10	1
4901784	79	C	09/02/2017	10:43	-133.037	43.848	0	24.20	0	16.8450	0	32.8410	4	23.896	0	24.005	0	257.8	4	106.2	4	-1E+10	1	-1E+10	1	-1E+10	1	-1E+10	1	-1E+10	1	-1E+10	1
4901784	79	C	09/02/2017	10:43	-133.037	43.848	0	24.60	0	16.7400	0	32.8470	4	23.925	0	24.401	0	258.7	4	106.4	4	-1E+10	1	-1E+10	1	-1E+10	1	-1E+10	1	-1E+10	1	-1E+10	1
4901784	79	C	09/02/2017	10:43	-133.037	43.848	0	25.80	0	16.6080	0	32.8370	4	23.948	0	25.592	0	261.0	4	107.0	4	-1E+10	1	-1E+10	1	-1E+10	1	-1E+10	1	-1E+10	1	-1E+10	1
4901784	79	C	09/02/2017	10:43	-133.037	43.848	0	27.00	0	16.3420	0	32.8380	4	24.009	0	26.782	0	263.5	4	107.5	4	-1E+10	1	-1E+10	1	-1E+10	1	-1E+10	1	-1E+10	1	-1E+10	1
4901784	79	C	09/02/2017	10:43	-133.037	43.848	0	28.20	0	16.0940	0	32.8430	4	24.070	0	27.972	0	265.7	4	107.9	4	-1E+10	1	-1E+10	1	-1E+10	1	-1E+10	1	-1E+10	1	-1E+10	1
4901784	79	C	09/02/2017	10:43	-133.037	43.848	0	29.30	0	15.9220	0	32.8370	4	24.104	0	29.063	0	268.2	4	108.6	4	-1E+10	1	-1E+10	1	-1E+10	1	-1E+10	1	-1E+10	1	-1E+10	1
4901784	79	C	09/02/2017	10:43	-133.037	43.848	0	30.50	0	15.7720	0	32.8300	4	24.132	0	30.253	0	270.1	4	109.0	4	-1E+10	1	-1E+10	1	-1E+10	1	-1E+10	1	-1E+10	1	-1E+10	1
4901784	79	C	09/02/2017	10:43	-133.037	43.848	0	31.60	0	15.5770	0	32.8140	4	24.163	0	31.344	0	272.7	4	109.7	4	-1E+10	1	-1E+10	1	-1E+10	1	-1E+10	1	-1E+10	1	-1E+10	1
4901784	79	C	09/02/2017	10:43	-133.037	43.848	0	32.80	0	15.3640	0	32.8000	4	24.199	0	32.535	0	275.7	4	110.4	4	-1E+10	1	-1E+10	1	-1E+10	1	-1E+10	1	-1E+10	1	-1E+10	1
4901784	79	C	09/02/2017	10:43	-133.037	43.848	0	34.00	0	14.3110	0	32.7850	4	24.413	0	33.725	0	282.7	4	110.8	4	-1E+10	1	-1E+10	1	-1E+10	1	-1E+10	1	-1E+10	1	-1E+10	1
4901784	79	C	09/02/2017	10:43	-133.037	43.848	0	35.40	0	13.5640	0	32.7980	4	24.577	0	35.113	0	285.5	4	110.2	4	-1E+10	1	-1E+10	1	-1E+10	1	-1E+10	1	-1E+10	1	-1E+10	1
4901784	79	C	09/02/2017	10:43	-133.037	43.848	0	36.90	0	12.8920	0	32.7960	4	24.709	0	36.601	0	290.8	4	110.8	4	-1E+10	1	-1E+10	1	-1E+10	1	-1E+10	1	-1E+10	1	-1E+10	1
4901784	79	C	09/02/2017	10:43	-133.037	43.848	0	38.50	0	12.2330	0	32.8230	4	24.856	0	38.188	0	292.3	4	109.9	4	-1E+10	1	-1E+10	1	-1E+10	1	-1E+10	1	-1E+10	1	-1E+10	1
4901784	79	C	09/02/2017	10:43	-133.037	43.848	0	40.10	0	11.9470	0	32.8150	4	24.904	0	39.775	0	292.7	4	109.4	4	-1E+10	1	-1E+10	1	-1E+10	1	-1E+10	1	-1E+10	1	-1E+10	1
4901784	79	C	09/02/2017	10:43	-133.037	43.848	0	41.80	0	11.3580	0	32.8290	4	25.023	0	41.461	0	292.9	4	108.1	4	-1E+10	1	-1E+10	1	-1E+10	1	-1E+10	1	-1E+10	1	-1E+10	1
4901784	79	C	09/02/2017	10:43	-133.037	43.848	0	43.50	0	11.0670	0	32.8270	4	25.073	0	43.147	0	291.8	4	107.0	4	-1E+10	1	-1E+10	1	-1E+10	1	-1E+10	1	-1E+10	1	-1E+10	1
4901784	79	C	09/02/2017	10:43	-133.037	43.848	0	45.30	0	10.7300	0	32.8370	4	25.140	0	44.932	0	289.6	4	105.5	4	-1E+10	1	-1E+10	1	-1E+10	1	-1E+10	1	-1E+10	1	-1E+10	1
4901784	79	C	09/02/2017	10:43	-133.037	43.848	0	47.10	0	10.5040	0	32.8410	4	25.182	0	46.717	0	289.3	4	104.9	4	-1E+10	1	-1E+10	1	-1E+10	1	-1E+10	1	-1E+10	1	-1E+10	1
4901784	79	C	09/02/2017	10:43	-133.037	43.848	0	48.90	0	10.4820	0	32.8390	4	25.185	0	48.502	0	286.6	4	103.8	4	-1E+10	1	-1E+10	1	-1E+10	1	-1E+10	1	-1E+10	1	-1E+10	1
4901784	79	C	09/02/2017	10:43	-133.037	43.848	0	51.10	0	10.2690	0	32.8430	4	25.224	0	50.684	0	282.1	4	101.7	4	-1E+10	1	-1E+10	1	-1E+10	1	-1E+10	1	-1E+10	1	-1E+10	1
4901784	79	C	09/02/2017	10:43	-133.037	43.848	0	52.90	0	9.8840	0	32.8700	4	25.310	0	52.469	0	279.7	4	100.1	4	-1E+10	1	-1E+10	1	-1E+10	1	-1E+10	1	-1E+10	1	-1E+10	1
4901784	79	C	09/02/2017	10:43	-133.037	43.848	0	54.40	0	9.7900	0	32.8640	4	25.321	0	53.957	0	279.5	4	99.8	4	-1E+10	1	-1E+10	1	-1E+10	1	-1E+10	1	-1E+10	1	-1E+10	1
4901784	79	C	09/02/2017	10:43	-133.037	43.848	0	56.00	0	9.6600	0	32.8670	4	25.344	0	55.544	0	278.9	4	99.3	4	-1E+10	1	-1E+10	1	-1E+10	1	-1E+10	1	-1E+10	1	-1E+10	1
4901784	79	C	09/02/2017	10:43	-133.037	43.848	0	57.60	0	9.4480	0	32.8670	4	25.379	0	57.131	0	278.4	4	98.7	4	-1E+10	1	-1E+10	1	-1E+10	1	-1E+10	1	-1E+10	1	-1E+10	1
4901784	79	C	09/02/2017	10:43	-133.037	43.848	0	59.20	0	9.3060	0	32.8720	4	25.405	0	58.717	0	277.8	4	98.1	4	-1E+10	1	-1E+10	1	-1E+10	1	-1E+10	1	-1E+10	1	-1E+10	1
4901784	79	C	09/02/2017	10:43	-133.037	43.848	0	60.80	0	9.2340	0	32.8750	4	25.419	0	60.304	0	277.0	4	97.7	4	-1E+10	1	-1E+10	1	-1E+10	1	-1E+10	1	-1E+10	1	-1E+10	1
4901784	79	C	09/02/2017	10:43	-133.037	43.848	0	62.30	0	9.1630	0	32.8810	4	25.435	0	61.792	0	276.7	4	97.5	4	-1E+10	1	-1E+10	1	-1E+10	1	-1E+10	1	-1E+10	1	-1E+10	1
4901784	79	C	09/02/2017	10:43	-133.037	43.848	0	63.90	0	9.1450	0	32.8970	4	25.450	0	63.378	0	276.2	4	97.3	4	-1E+10	1	-1E+10	1	-1E+10	1	-1E+10	1	-1E+10	1	-1E+10	1
4901784	79	C	09/02/2017	10:43	-133.037	43.848	0	65.60	0	9.1370	0	32.9110	4	25.463	0	65.064	0	275.3	4	96.9	4	-1E+10	1	-1E+10	1	-1E+10	1	-1E+10	1	-1E+10	1	-1E+10	1
4901784	79	C	09/02/2017	10:43	-133.037	43.848	0	67.20	0	9.0860	0	32.9140	4	25.473	0	66.651	0	274.3	4	96.5	4	-1E+10	1	-1E+10	1	-1E+10	1	-1E+10	1	-1E+10	1	-1E+10	1
4901784	79	C	09/02/2017	10:43	-133.037	43.848	0	68.80	0	8.9450	0	32.9270	4	25.505	0	68.237	0	272.5	4	95.5	4	-1E+10	1	-1E+10	1	-1E+10	1	-1E+10	1	-1E+10	1	-1E+10	1
4901784	79	C	09/02/2017	10:43	-133.037	43.848	0	70.50	0	8.8650	0	32.9270	4	25.518	0	69.923	0	272.6	4	95.4	4	-1E+10	1	-1E+10	1	-1E+10	1	-1E+10	1	-1E+10	1	-1E+10	1
4901784	79	C	09/02/2017	10:43	-133.037	43.848	0	72.10	0	8.7740	0	32.9330	4	25.536	0	71.510	0	271.4	4	94.8	4	-1E+10	1	-1E+10	1	-1E+10	1	-1E+10	1	-1E+10	1	-1E+10	1
4901784	79	C	09/02/2017	10:43	-133.037	43.848	0	73.70	0	8.7190	0	32.9430	4	25.553	0	73.096	0	270.5	4	94.4	4	-1E+10	1	-1E+10	1	-1E+10	1	-1E+10	1	-1E+10	1	-1E+10	1
4901784	79	C	09/02/2017	10:43	-133.037	43.848	0	75.40	0	8.6480	0	32.9530	4	25.571	0	74.782	0	270.5	4	94.2	4	-1E+10	1	-1E+10	1	-1E+10	1	-1E+10	1	-1E+10	1	-1E+10	1
4901784	79	C	09/02/2017	10:43	-133.037	43.848	0	77.00	0	8.5620	0	32.9660	4	25.595	0	76.369	0	270.2	4	94.0	4	-1E+10	1	-1E+10	1	-1E+10	1	-1E+10	1	-1E+10	1	-1E+10	1
4901784	79	C	09/02/2017	10:43	-133.037	43.848	0	78.70	0	8.5010	0	32.9800	4	25.615	0	78.055	0	270.0	4	93.8	4	-1E+10	1	-1E+10	1	-1E+10	1	-1E+10	1	-1E+10	1	-1E+10	1
4901784	79	C	09/02/2017	10:43	-133.037	43.848	0	80.30	0	8.3910	0	32.9890	4	25.638	0	79.641	0	270.2	4	93.6	4	-1E+10	1	-1E+10	1	-1E+10	1	-1E+10	1	-1E+10	1	-1E+10	1
4901784	79	C	09/02/2017	10:43	-133.037	43.848	0	81.90	0	8.3670	0	32.9940	4	25.646	0	81.228	0	270.2	4	93.6	4	-1E+10	1	-1E+10	1	-1E+10	1	-1E+10	1	-1E+10	1	-1E+10	1
4901784	79	C	09/02/2017	10:43	-133.037	43.848	0	83.50	0	8.3570	0	32.9940	4	25.647	0	82.814	0	269.9	4	93.5	4	-1E+10	1	-1E+10	1	-1E+10	1	-1E+10	1	-1E+10	1	-1E+10	1
4901784	79	C	09/02/2017	10:43	-133.037	43.848	0	85.10	0	8.3370	0	32.9960	4	25.652	0	84.401	0	269.7	4	93.3	4	-1E+10	1	-1E+10	1	-1E+10	1	-1E+10	1	-1E+10	1	-1E+10	1
4901784	79	C	09/02/2017	10:43	-133.037	43.848	0	86.90	0	8.2830	0	33.0070	4	25.669	0	86.186	0	269.2	4	93.0	4	-1E+10	1	-1E+10	1	-1E+10	1	-1E+10	1	-1E+10	1	-1E+10	1
4901784	79	C	09/02/2017	10:43	-133.037	43.848	0	88.50	0	8.2760	0	33.0060	4	25.669	0	87.772	0	267.9	4	92.6	4	-1E+10	1	-1E+10	1	-1E+10	1	-1E+10	1	-1E+10	1	-1E+10	1
4901784	79	C	09/02/2017	10:43	-133.037	43.848	0	90.10	0	8.2720	0	33.0040	4	25.668	0	89.359	0	266.5	4	92.1	4	-1E+10	1	-1E+10	1	-1E+10	1	-1E+10	1	-1E+10	1	-1E+10	1
4901784	79	C	09/02/2017	10:43	-133.037	43.848	0	91.70	0	8.1740	0	33.0120	4	25.689	0	90.945	0	265.4	4	91.5	4	-1E+10	1	-1E+10	1	-1E+10	1	-1E+10	1	-1E+10	1	-1E+10	1
4901784	79	C	09/02/2017	10:43	-133.037	43.848	0	93.40	0	8.1650	0	33.0170	4	25.694	0	92.631	0	263.9	4	91.0	4	-1E+10	1	-1E+10	1	-1E+10	1	-1E+10	1	-1E+10	1	-1E+10	1
4901784	79	C	09/02/2017	10:43	-133.037	43.848	0	95.10	0	8.1320	0	33.0210	4	25.702	0	94.316	0	262.1	4	90.3	4	-1E+10	1	-1E+10	1	-1E+10	1	-1E+10	1	-1E+10	1	-1E+10	1
4901784	79	C	09/02/2017	10:43	-133.037	43.848	0	96.80	0	8.1510	0	33.0360	4	25.711	0	96.002	0	260.2	4	89.7	4	-1E+10	1	-1E+10	1	-1E+10	1	-1E+10	1	-1E+10	1	-1E+10	1
4901784	79	C	09/02/2017	10:43	-133.037	43.848	0	98.40	0	8.1460	0	33.0500	4	25.723	0	97.588	0	258.0	4	88.9	4	-1E+10	1	-1E+10	1	-1E+10	1	-1E+10	1	-1E+10	1	-1E+10	1
4901784	79	C	09/02/2017	10:43	-133.037	43.848	0	100.10	0	8.1290	0	33.0580	4	25.732	0	99.274	0	255.6	4	88.1	4	-1E+10	1	-1E+10	1	-1E+10	1	-1E+10	1	-1E+10	1	-1E+10	1
4901784	79	C	09/02/2017	10:43	-133.037	43.848	0	102.70	0	8.1450	0	33.0760	4	25.744	0	101.852	0	251.1	4	86.6	4	-1E+10	1	-1E+10	1	-1E+10	1	-1E+10	1	-1E+10	1	-1E+10	1
4901784	79	C	09/02/2017	10:43	-133.037	43.848	0	105.30	0	8.1580	0	33.1030	4	25.763	0	104.430	0	245.9	4	84.8	4	-1E+10	1	-1E+10	1	-1E+10	1	-1E+10	1	-1E+10	1	-1E+10	1
4901784	79	C	09/02/2017	10:43	-133.037	43.848	0	107.80	0	8.1780	0	33.1400	4	25.789	0	106.908	0	240.6	4	83.0	4	-1E+10	1	-1E+10	1	-1E+10	1	-1E+10	1	-1E+10	1	-1E+10	1
4901784	79	C	09/02/2017	10:43	-133.037	43.848	0	110.90	0	8.2290	0	33.1940	4	25.824	0	109.982	0	233.6	4	80.8	4	-1E+10	1	-1E+10	1	-1E+10	1	-1E+10	1	-1E+10	1	-1E+10	1
4901784	79	C	09/02/2017	10:43	-133.037	43.848	0	112.50	0	8.2590	0	33.2400	4	25.855	0	111.568	0	229.4	4	79.4	4	-1E+10	1	-1E+10	1	-1E+10	1	-1E+10	1	-1E+10	1	-1E+10	1
4901784	79	C	09/02/2017	10:43	-133.037	43.848	0	114.70	0	8.2980	0	33.2720	4	25.875	0	113.749	0	223.7	4	77.5	4	-1E+10	1	-1E+10	1	-1E+10	1	-1E+10	1	-1E+10	1	-1E+10	1
4901784	79	C	09/02/2017	10:43	-133.037	43.848	0	117.60	0	8.3400	0	33.3270	4	25.912	0	116.625	0	216.3	4	75.0	4	-1E+10	1	-1E+10	1	-1E+10	1	-1E+10	1	-1E+10	1	-1E+10	1
4901784	79	C	09/02/2017	10:43	-133.037	43.848	0	119.80	0	8.3840	0	33.3900	4	25.955	0	118.806	0	209.4	4	72.8	4	-1E+10	1	-1E+10	1	-1E+10	1	-1E+10	1	-1E+10	1	-1E+10	1
4901784	79	C	09/02/2017	10:43	-133.037	43.848	0	122.10	0	8.4420	0	33.4900	4	26.024	0	121.086	0	203.2	4	70.7	4	-1E+10	1	-1E+10	1	-1E+10	1	-1E+10	1	-1E+10	1	-1E+10	1
4901784	79	C	09/02/2017	10:43	-133.037	43.848	0	125.20	0	8.4600	0	33.5590	4	26.076	0	124.159	0	198.3	4	69.1	4	-1E+10	1	-1E+10	1	-1E+10	1	-1E+10	1	-1E+10	1	-1E+10	1
4901784	79	C	09/02/2017	10:43	-133.037	43.848	0	127.40	0	8.4740	0	33.6000	4	26.106	0	126.340	0	194.9	4	68.0	4	-1E+10	1	-1E+10	1	-1E+10	1	-1E+10	1	-1E+10	1	-1E+10	1
4901784	79	C	09/02/2017	10:43	-133.037	43.848	0	129.90	0	8.5000	0	33.6610	4	26.150	0	128.819	0	191.6	4	66.9	4	-1E+10	1	-1E+10	1	-1E+10	1	-1E+10	1	-1E+10	1	-1E+10	1
4901784	79	C	09/02/2017	10:43	-133.037	43.848	0	132.50	0	8.5240	0	33.7050	4	26.181	0	131.396	0	189.2	4	66.1	4	-1E+10	1	-1E+10	1	-1E+10	1	-1E+10	1	-1E+10	1	-1E+10	1
4901784	79	C	09/02/2017	10:43	-133.037	43.848	0	135.10	0	8.5380	0	33.7620	4	26.223	0	133.974	0	187.0	4	65.4	4	-1E+10	1	-1E+10	1	-1E+10	1	-1E+10	1	-1E+10	1	-1E+10	1
4901784	79	C	09/02/2017	10:43	-133.037	43.848	0	137.80	0	8.5420	0	33.8060	4	26.257	0	136.650	0	185.6	4	64.9	4	-1E+10	1	-1E+10	1	-1E+10	1	-1E+10	1	-1E+10	1	-1E+10	1
4901784	79	C	09/02/2017	10:43	-133.037	43.848	0	140.40	0	8.5430	0	33.8210	4	26.269	0	139.228	0	184.5	4	64.5	4	-1E+10	1	-1E+10	1	-1E+10	1	-1E+10	1	-1E+10	1	-1E+10	1
4901784	79	C	09/02/2017	10:43	-133.037	43.848	0	143.00	0	8.5400	0	33.8420	4	26.286	0	141.805	0	183.5	4	64.2	4	-1E+10	1	-1E+10	1	-1E+10	1	-1E+10	1	-1E+10	1	-1E+10	1
4901784	79	C	09/02/2017	10:43	-133.037	43.848	0	144.70	0	8.5420	0	33.8570	4	26.297	0	143.490	0	182.8	4	63.9	4	-1E+10	1	-1E+10	1	-1E+10	1	-1E+10	1	-1E+10	1	-1E+10	1
4901784	79	C	09/02/2017	10:43	-133.037	43.848	0	147.40	0	8.5270	0	33.8780	4	26.316	0	146.167	0	182.1	4	63.7	4	-1E+10	1	-1E+10	1	-1E+10	1	-1E+10	1	-1E+10	1	-1E+10	1
4901784	79	C	09/02/2017	10:43	-133.037	43.848	0	150.00	0	8.5290	0	33.8860	4	26.322	0	148.744	0	181.2	4	63.4	4	-1E+10	1	-1E+10	1	-1E+10	1	-1E+10	1	-1E+10	1	-1E+10	1
4901784	79	C	09/02/2017	10:43	-133.037	43.848	0	152.70	0	8.5130	0	33.8950	4	26.332	0	151.421	0	180.4	4	63.1	4	-1E+10	1	-1E+10	1	-1E+10	1	-1E+10	1	-1E+10	1	-1E+10	1
4901784	79	C	09/02/2017	10:43	-133.037	43.848	0	155.30	0	8.4830	0	33.9030	4	26.342	0	153.998	0	179.3	4	62.7	4	-1E+10	1	-1E+10	1	-1E+10	1	-1E+10	1	-1E+10	1	-1E+10	1
4901784	79	C	09/02/2017	10:43	-133.037	43.848	0	157.10	0	8.4540	0	33.9120	4	26.354	0	155.782	0	178.9	4	62.5	4	-1E+10	1	-1E+10	1	-1E+10	1	-1E+10	1	-1E+10	1	-1E+10	1
4901784	79	C	09/02/2017	10:43	-133.037	43.848	0	159.70	0	8.4220	0	33.9320	4	26.375	0	158.359	0	177.9	4	62.1	4	-1E+10	1	-1E+10	1	-1E+10	1	-1E+10	1	-1E+10	1	-1E+10	1
4901784	79	C	09/02/2017	10:43	-133.037	43.848	0	162.40	0	8.3820	0	33.9480	4	26.393	0	161.035	0	177.2	4	61.8	4	-1E+10	1	-1E+10	1	-1E+10	1	-1E+10	1	-1E+10	1	-1E+10	1
4901784	79	C	09/02/2017	10:43	-133.037	43.848	0	165.10	0	8.3620	0	33.9640	4	26.409	0	163.712	0	176.4	4	61.5	4	-1E+10	1	-1E+10	1	-1E+10	1	-1E+10	1	-1E+10	1	-1E+10	1
4901784	79	C	09/02/2017	10:43	-133.037	43.848	0	167.80	0	8.3220	0	33.9780	4	26.426	0	166.388	0	175.9	4	61.3	4	-1E+10	1	-1E+10	1	-1E+10	1	-1E+10	1	-1E+10	1	-1E+10	1
4901784	79	C	09/02/2017	10:43	-133.037	43.848	0	169.60	0	8.3120	0	33.9800	4	26.429	0	168.172	0	175.5	4	61.2	4	-1E+10	1	-1E+10	1	-1E+10	1	-1E+10	1	-1E+10	1	-1E+10	1
4901784	79	C	09/02/2017	10:43	-133.037	43.848	0	172.30	0	8.2950	0	33.9830	4	26.434	0	170.848	0	174.8	4	60.9	4	-1E+10	1	-1E+10	1	-1E+10	1	-1E+10	1	-1E+10	1	-1E+10	1
4901784	79	C	09/02/2017	10:43	-133.037	43.848	0	175.10	0	8.2400	0	33.9900	4	26.448	0	173.623	0	174.1	4	60.5	4	-1E+10	1	-1E+10	1	-1E+10	1	-1E+10	1	-1E+10	1	-1E+10	1
4901784	79	C	09/02/2017	10:43	-133.037	43.848	0	177.70	0	8.2110	0	33.9920	4	26.454	0	176.200	0	173.4	4	60.3	4	-1E+10	1	-1E+10	1	-1E+10	1	-1E+10	1	-1E+10	1	-1E+10	1
4901784	79	C	09/02/2017	10:43	-133.037	43.848	0	180.40	0	8.1800	0	33.9930	4	26.459	0	178.876	0	172.7	4	60.0	4	-1E+10	1	-1E+10	1	-1E+10	1	-1E+10	1	-1E+10	1	-1E+10	1
4901784	79	C	09/02/2017	10:43	-133.037	43.848	0	182.20	0	8.1650	0	33.9940	4	26.462	0	180.660	0	172.1	4	59.8	4	-1E+10	1	-1E+10	1	-1E+10	1	-1E+10	1	-1E+10	1	-1E+10	1
4901784	79	C	09/02/2017	10:43	-133.037	43.848	0	184.80	0	8.1360	0	33.9940	4	26.467	0	183.237	0	171.2	4	59.4	4	-1E+10	1	-1E+10	1	-1E+10	1	-1E+10	1	-1E+10	1	-1E+10	1
4901784	79	C	09/02/2017	10:43	-133.037	43.848	0	187.50	0	8.0770	0	33.9960	4	26.477	0	185.913	0	170.3	4	59.0	4	-1E+10	1	-1E+10	1	-1E+10	1	-1E+10	1	-1E+10	1	-1E+10	1
4901784	79	C	09/02/2017	10:43	-133.037	43.848	0	190.20	0	8.0370	0	34.0000	4	26.486	0	188.589	0	169.3	4	58.6	4	-1E+10	1	-1E+10	1	-1E+10	1	-1E+10	1	-1E+10	1	-1E+10	1
4901784	79	C	09/02/2017	10:43	-133.037	43.848	0	193.40	0	7.9940	0	34.0000	4	26.492	0	191.761	0	168.0	4	58.1	4	-1E+10	1	-1E+10	1	-1E+10	1	-1E+10	1	-1E+10	1	-1E+10	1
4901784	79	C	09/02/2017	10:43	-133.037	43.848	0	195.30	0	7.9450	0	34.0000	4	26.500	0	193.644	0	167.2	4	57.8	4	-1E+10	1	-1E+10	1	-1E+10	1	-1E+10	1	-1E+10	1	-1E+10	1
4901784	79	C	09/02/2017	10:43	-133.037	43.848	0	197.60	0	7.8980	0	34.0020	4	26.508	0	195.923	0	166.2	4	57.4	4	-1E+10	1	-1E+10	1	-1E+10	1	-1E+10	1	-1E+10	1	-1E+10	1
4901784	79	C	09/02/2017	10:43	-133.037	43.848	0	199.90	0	7.8330	0	34.0040	4	26.519	0	198.202	0	165.4	4	57.0	4	-1E+10	1	-1E+10	1	-1E+10	1	-1E+10	1	-1E+10	1	-1E+10	1
4901784	79	C	09/02/2017	10:43	-133.037	43.848	0	202.20	0	7.8180	0	34.0040	4	26.522	0	200.482	0	164.7	4	56.8	4	-1E+10	1	-1E+10	1	-1E+10	1	-1E+10	1	-1E+10	1	-1E+10	1
4901784	79	C	09/02/2017	10:43	-133.037	43.848	0	205.40	0	7.7880	0	34.0060	4	26.528	0	203.653	0	163.4	4	56.3	4	-1E+10	1	-1E+10	1	-1E+10	1	-1E+10	1	-1E+10	1	-1E+10	1
4901784	79	C	09/02/2017	10:43	-133.037	43.848	0	207.70	0	7.7650	0	34.0050	4	26.530	0	205.932	0	162.2	4	55.8	4	-1E+10	1	-1E+10	1	-1E+10	1	-1E+10	1	-1E+10	1	-1E+10	1
4901784	79	C	09/02/2017	10:43	-133.037	43.848	0	210.10	0	7.7190	0	34.0090	4	26.540	0	208.311	0	161.0	4	55.4	4	-1E+10	1	-1E+10	1	-1E+10	1	-1E+10	1	-1E+10	1	-1E+10	1
4901784	79	C	09/02/2017	10:43	-133.037	43.848	0	212.50	0	7.6920	0	34.0100	4	26.545	0	210.689	0	159.6	4	54.8	4	-1E+10	1	-1E+10	1	-1E+10	1	-1E+10	1	-1E+10	1	-1E+10	1
4901784	79	C	09/02/2017	10:43	-133.037	43.848	0	214.90	0	7.6220	0	34.0110	4	26.556	0	213.067	0	158.1	4	54.2	4	-1E+10	1	-1E+10	1	-1E+10	1	-1E+10	1	-1E+10	1	-1E+10	1
4901784	79	C	09/02/2017	10:43	-133.037	43.848	0	217.40	0	7.5580	0	34.0140	4	26.567	0	215.545	0	156.9	4	53.8	4	-1E+10	1	-1E+10	1	-1E+10	1	-1E+10	1	-1E+10	1	-1E+10	1
4901784	79	C	09/02/2017	10:43	-133.037	43.848	0	219.80	0	7.5340	0	34.0120	4	26.569	0	217.923	0	155.7	4	53.3	4	-1E+10	1	-1E+10	1	-1E+10	1	-1E+10	1	-1E+10	1	-1E+10	1
4901784	79	C	09/02/2017	10:43	-133.037	43.848	0	222.30	0	7.4780	0	34.0110	4	26.576	0	220.400	0	154.6	4	52.9	4	-1E+10	1	-1E+10	1	-1E+10	1	-1E+10	1	-1E+10	1	-1E+10	1
4901784	79	C	09/02/2017	10:43	-133.037	43.848	0	224.80	0	7.4370	0	34.0110	4	26.582	0	222.878	0	153.8	4	52.5	4	-1E+10	1	-1E+10	1	-1E+10	1	-1E+10	1	-1E+10	1	-1E+10	1
4901784	79	C	09/02/2017	10:43	-133.037	43.848	0	227.30	0	7.4180	0	34.0120	4	26.586	0	225.355	0	152.9	4	52.2	4	-1E+10	1	-1E+10	1	-1E+10	1	-1E+10	1	-1E+10	1	-1E+10	1
4901784	79	C	09/02/2017	10:43	-133.037	43.848	0	229.90	0	7.3920	0	34.0150	4	26.592	0	227.931	0	152.0	4	51.9	4	-1E+10	1	-1E+10	1	-1E+10	1	-1E+10	1	-1E+10	1	-1E+10	1
4901784	79	C	09/02/2017	10:43	-133.037	43.848	0	232.40	0	7.3660	0	34.0130	4	26.594	0	230.408	0	151.0	4	51.5	4	-1E+10	1	-1E+10	1	-1E+10	1	-1E+10	1	-1E+10	1	-1E+10	1
4901784	79	C	09/02/2017	10:43	-133.037	43.848	0	235.10	0	7.3360	0	34.0150	4	26.600	0	233.084	0	149.9	4	51.1	4	-1E+10	1	-1E+10	1	-1E+10	1	-1E+10	1	-1E+10	1	-1E+10	1
4901784	79	C	09/02/2017	10:43	-133.037	43.848	0	237.70	0	7.2940	0	34.0150	4	26.605	0	235.660	0	148.8	4	50.7	4	-1E+10	1	-1E+10	1	-1E+10	1	-1E+10	1	-1E+10	1	-1E+10	1
4901784	79	C	09/02/2017	10:43	-133.037	43.848	0	240.20	0	7.2690	0	34.0160	4	26.610	0	238.137	0	147.7	4	50.3	4	-1E+10	1	-1E+10	1	-1E+10	1	-1E+10	1	-1E+10	1	-1E+10	1
4901784	79	C	09/02/2017	10:43	-133.037	43.848	0	242.90	0	7.2420	0	34.0130	4	26.611	0	240.812	0	146.5	4	49.8	4	-1E+10	1	-1E+10	1	-1E+10	1	-1E+10	1	-1E+10	1	-1E+10	1
4901784	79	C	09/02/2017	10:43	-133.037	43.848	0	244.60	0	7.2240	0	34.0160	4	26.616	0	242.497	0	145.5	4	49.5	4	-1E+10	1	-1E+10	1	-1E+10	1	-1E+10	1	-1E+10	1	-1E+10	1
4901784	79	C	09/02/2017	10:43	-133.037	43.848	0	247.30	0	7.1760	0	34.0140	4	26.621	0	245.172	0	143.9	4	48.9	4	-1E+10	1	-1E+10	1	-1E+10	1	-1E+10	1	-1E+10	1	-1E+10	1
4901784	79	C	09/02/2017	10:43	-133.037	43.848	0	249.90	0	7.1060	0	34.0110	4	26.629	0	247.748	0	142.1	4	48.2	4	-1E+10	1	-1E+10	1	-1E+10	1	-1E+10	1	-1E+10	1	-1E+10	1
4901784	79	C	09/02/2017	10:43	-133.037	43.848	0	252.50	0	7.0250	0	34.0100	4	26.639	0	250.324	0	140.8	4	47.6	4	-1E+10	1	-1E+10	1	-1E+10	1	-1E+10	1	-1E+10	1	-1E+10	1
4901784	79	C	09/02/2017	10:43	-133.037	43.848	0	255.20	0	6.9900	0	34.0110	4	26.645	0	252.999	0	139.6	4	47.2	4	-1E+10	1	-1E+10	1	-1E+10	1	-1E+10	1	-1E+10	1	-1E+10	1
4901784	79	C	09/02/2017	10:43	-133.037	43.848	0	257.90	0	6.9390	0	34.0110	4	26.651	0	255.674	0	138.1	4	46.7	4	-1E+10	1	-1E+10	1	-1E+10	1	-1E+10	1	-1E+10	1	-1E+10	1
4901784	79	C	09/02/2017	10:43	-133.037	43.848	0	260.60	0	6.8650	0	34.0110	4	26.662	0	258.349	0	136.8	4	46.2	4	-1E+10	1	-1E+10	1	-1E+10	1	-1E+10	1	-1E+10	1	-1E+10	1
4901784	79	C	09/02/2017	10:43	-133.037	43.848	0	262.50	0	6.8370	0	34.0120	4	26.666	0	260.231	0	136.2	4	45.9	4	-1E+10	1	-1E+10	1	-1E+10	1	-1E+10	1	-1E+10	1	-1E+10	1
4901784	79	C	09/02/2017	10:43	-133.037	43.848	0	265.20	0	6.8060	0	34.0110	4	26.670	0	262.906	0	135.1	4	45.5	4	-1E+10	1	-1E+10	1	-1E+10	1	-1E+10	1	-1E+10	1	-1E+10	1
4901784	79	C	09/02/2017	10:43	-133.037	43.848	0	268.00	0	6.7660	0	34.0090	4	26.673	0	265.680	0	134.0	4	45.1	4	-1E+10	1	-1E+10	1	-1E+10	1	-1E+10	1	-1E+10	1	-1E+10	1
4901784	79	C	09/02/2017	10:43	-133.037	43.848	0	269.90	0	6.7540	0	34.0080	4	26.674	0	267.563	0	133.2	4	44.8	4	-1E+10	1	-1E+10	1	-1E+10	1	-1E+10	1	-1E+10	1	-1E+10	1
4901784	79	C	09/02/2017	10:43	-133.037	43.848	0	272.70	0	6.6910	0	34.0080	4	26.683	0	270.337	0	131.9	4	44.3	4	-1E+10	1	-1E+10	1	-1E+10	1	-1E+10	1	-1E+10	1	-1E+10	1
4901784	79	C	09/02/2017	10:43	-133.037	43.848	0	275.40	0	6.6460	0	34.0070	4	26.688	0	273.011	0	130.9	4	43.9	4	-1E+10	1	-1E+10	1	-1E+10	1	-1E+10	1	-1E+10	1	-1E+10	1
4901784	79	C	09/02/2017	10:43	-133.037	43.848	0	277.30	0	6.6340	0	34.0070	4	26.689	0	274.894	0	130.3	4	43.7	4	-1E+10	1	-1E+10	1	-1E+10	1	-1E+10	1	-1E+10	1	-1E+10	1
4901784	79	C	09/02/2017	10:43	-133.037	43.848	0	280.00	0	6.6110	0	34.0070	4	26.693	0	277.569	0	129.2	4	43.3	4	-1E+10	1	-1E+10	1	-1E+10	1	-1E+10	1	-1E+10	1	-1E+10	1
4901784	79	C	09/02/2017	10:43	-133.037	43.848	0	282.90	0	6.5930	0	34.0050	4	26.693	0	280.441	0	128.0	4	42.9	4	-1E+10	1	-1E+10	1	-1E+10	1	-1E+10	1	-1E+10	1	-1E+10	1
4901784	79	C	09/02/2017	10:43	-133.037	43.848	0	284.70	0	6.5680	0	34.0040	4	26.696	0	282.225	0	126.9	4	42.5	4	-1E+10	1	-1E+10	1	-1E+10	1	-1E+10	1	-1E+10	1	-1E+10	1
4901784	79	C	09/02/2017	10:43	-133.037	43.848	0	287.60	0	6.5000	0	34.0050	4	26.706	0	285.097	0	125.5	4	42.0	4	-1E+10	1	-1E+10	1	-1E+10	1	-1E+10	1	-1E+10	1	-1E+10	1
4901784	79	C	09/02/2017	10:43	-133.037	43.848	0	290.50	0	6.4720	0	34.0030	4	26.708	0	287.970	0	124.2	4	41.5	4	-1E+10	1	-1E+10	1	-1E+10	1	-1E+10	1	-1E+10	1	-1E+10	1
4901784	79	C	09/02/2017	10:43	-133.037	43.848	0	292.40	0	6.4330	0	34.0030	4	26.713	0	289.852	0	123.5	4	41.2	4	-1E+10	1	-1E+10	1	-1E+10	1	-1E+10	1	-1E+10	1	-1E+10	1
4901784	79	C	09/02/2017	10:43	-133.037	43.848	0	295.30	0	6.4000	0	34.0030	4	26.717	0	292.725	0	122.6	4	40.9	4	-1E+10	1	-1E+10	1	-1E+10	1	-1E+10	1	-1E+10	1	-1E+10	1
4901784	79	C	09/02/2017	10:43	-133.037	43.848	0	298.10	0	6.3760	0	34.0030	4	26.720	0	295.498	0	121.5	4	40.5	4	-1E+10	1	-1E+10	1	-1E+10	1	-1E+10	1	-1E+10	1	-1E+10	1
4901784	79	C	09/02/2017	10:43	-133.037	43.848	0	300.00	0	6.3500	0	34.0020	4	26.723	0	297.380	0	120.8	4	40.3	4	-1E+10	1	-1E+10	1	-1E+10	1	-1E+10	1	-1E+10	1	-1E+10	1
4901784	79	C	09/02/2017	10:43	-133.037	43.848	0	302.80	0	6.3180	0	34.0020	4	26.727	0	300.154	0	119.7	4	39.9	4	-1E+10	1	-1E+10	1	-1E+10	1	-1E+10	1	-1E+10	1	-1E+10	1
4901784	79	C	09/02/2017	10:43	-133.037	43.848	0	305.60	0	6.3080	0	34.0000	4	26.727	0	302.928	0	118.5	4	39.5	4	-1E+10	1	-1E+10	1	-1E+10	1	-1E+10	1	-1E+10	1	-1E+10	1
4901784	79	C	09/02/2017	10:43	-133.037	43.848	0	307.50	0	6.2640	0	34.0000	4	26.732	0	304.809	0	117.5	4	39.1	4	-1E+10	1	-1E+10	1	-1E+10	1	-1E+10	1	-1E+10	1	-1E+10	1
4901784	79	C	09/02/2017	10:43	-133.037	43.848	0	309.40	0	6.2220	0	34.0010	4	26.739	0	306.691	0	116.8	4	38.8	4	-1E+10	1	-1E+10	1	-1E+10	1	-1E+10	1	-1E+10	1	-1E+10	1
4901784	79	C	09/02/2017	10:43	-133.037	43.848	0	312.30	0	6.2010	0	34.0000	4	26.741	0	309.564	0	115.7	4	38.4	4	-1E+10	1	-1E+10	1	-1E+10	1	-1E+10	1	-1E+10	1	-1E+10	1
4901784	79	C	09/02/2017	10:43	-133.037	43.848	0	315.20	0	6.1580	0	34.0000	4	26.746	0	312.436	0	114.5	4	38.0	4	-1E+10	1	-1E+10	1	-1E+10	1	-1E+10	1	-1E+10	1	-1E+10	1
4901784	79	C	09/02/2017	10:43	-133.037	43.848	0	317.10	0	6.1490	0	33.9980	4	26.746	0	314.318	0	113.7	4	37.7	4	-1E+10	1	-1E+10	1	-1E+10	1	-1E+10	1	-1E+10	1	-1E+10	1
4901784	79	C	09/02/2017	10:43	-133.037	43.848	0	320.00	0	6.1100	0	33.9980	4	26.751	0	317.191	0	112.2	4	37.2	4	-1E+10	1	-1E+10	1	-1E+10	1	-1E+10	1	-1E+10	1	-1E+10	1
4901784	79	C	09/02/2017	10:43	-133.037	43.848	0	322.90	0	6.0620	0	33.9940	4	26.754	0	320.063	0	110.9	4	36.7	4	-1E+10	1	-1E+10	1	-1E+10	1	-1E+10	1	-1E+10	1	-1E+10	1
4901784	79	C	09/02/2017	10:43	-133.037	43.848	0	324.70	0	6.0170	0	33.9920	4	26.758	0	321.846	0	110.2	4	36.4	4	-1E+10	1	-1E+10	1	-1E+10	1	-1E+10	1	-1E+10	1	-1E+10	1
4901784	79	C	09/02/2017	10:43	-133.037	43.848	0	327.60	0	5.9650	0	33.9920	4	26.764	0	324.718	0	108.9	4	36.0	4	-1E+10	1	-1E+10	1	-1E+10	1	-1E+10	1	-1E+10	1	-1E+10	1
4901784	79	C	09/02/2017	10:43	-133.037	43.848	0	330.40	0	5.9500	0	33.9920	4	26.766	0	327.491	0	107.7	4	35.6	4	-1E+10	1	-1E+10	1	-1E+10	1	-1E+10	1	-1E+10	1	-1E+10	1
4901784	79	C	09/02/2017	10:43	-133.037	43.848	0	332.30	0	5.9270	0	33.9930	4	26.770	0	329.373	0	106.8	4	35.2	4	-1E+10	1	-1E+10	1	-1E+10	1	-1E+10	1	-1E+10	1	-1E+10	1
4901784	79	C	09/02/2017	10:43	-133.037	43.848	0	335.20	0	5.8780	0	33.9930	4	26.776	0	332.245	0	105.6	4	34.8	4	-1E+10	1	-1E+10	1	-1E+10	1	-1E+10	1	-1E+10	1	-1E+10	1
4901784	79	C	09/02/2017	10:43	-133.037	43.848	0	338.00	0	5.8450	0	33.9910	4	26.778	0	335.018	0	104.5	4	34.4	4	-1E+10	1	-1E+10	1	-1E+10	1	-1E+10	1	-1E+10	1	-1E+10	1
4901784	79	C	09/02/2017	10:43	-133.037	43.848	0	339.80	0	5.8180	0	33.9930	4	26.783	0	336.801	0	103.7	4	34.1	4	-1E+10	1	-1E+10	1	-1E+10	1	-1E+10	1	-1E+10	1	-1E+10	1
4901784	79	C	09/02/2017	10:43	-133.037	43.848	0	342.70	0	5.7850	0	33.9930	4	26.787	0	339.673	0	102.3	4	33.6	4	-1E+10	1	-1E+10	1	-1E+10	1	-1E+10	1	-1E+10	1	-1E+10	1
4901784	79	C	09/02/2017	10:43	-133.037	43.848	0	345.60	0	5.7570	0	33.9940	4	26.792	0	342.545	0	100.7	4	33.1	4	-1E+10	1	-1E+10	1	-1E+10	1	-1E+10	1	-1E+10	1	-1E+10	1
4901784	79	C	09/02/2017	10:43	-133.037	43.848	0	347.40	0	5.7190	0	33.9960	4	26.798	0	344.327	0	99.8	4	32.8	4	-1E+10	1	-1E+10	1	-1E+10	1	-1E+10	1	-1E+10	1	-1E+10	1
4901784	79	C	09/02/2017	10:43	-133.037	43.848	0	350.20	0	5.6910	0	33.9960	4	26.801	0	347.100	0	98.9	4	32.4	4	-1E+10	1	-1E+10	1	-1E+10	1	-1E+10	1	-1E+10	1	-1E+10	1
4901784	79	C	09/02/2017	10:43	-133.037	43.848	0	353.10	0	5.6670	0	33.9960	4	26.804	0	349.972	0	97.9	4	32.1	4	-1E+10	1	-1E+10	1	-1E+10	1	-1E+10	1	-1E+10	1	-1E+10	1
4901784	79	C	09/02/2017	10:43	-133.037	43.848	0	354.90	0	5.6510	0	33.9980	4	26.808	0	351.755	0	97.3	4	31.9	4	-1E+10	1	-1E+10	1	-1E+10	1	-1E+10	1	-1E+10	1	-1E+10	1
4901784	79	C	09/02/2017	10:43	-133.037	43.848	0	356.80	0	5.6400	0	33.9990	4	26.810	0	353.636	0	96.9	4	31.8	4	-1E+10	1	-1E+10	1	-1E+10	1	-1E+10	1	-1E+10	1	-1E+10	1
4901784	79	C	09/02/2017	10:43	-133.037	43.848	0	359.70	0	5.6340	0	33.9990	4	26.811	0	356.508	0	96.0	4	31.5	4	-1E+10	1	-1E+10	1	-1E+10	1	-1E+10	1	-1E+10	1	-1E+10	1
4901784	79	C	09/02/2017	10:43	-133.037	43.848	0	362.60	0	5.6130	0	33.9990	4	26.813	0	359.380	0	95.0	4	31.1	4	-1E+10	1	-1E+10	1	-1E+10	1	-1E+10	1	-1E+10	1	-1E+10	1
4901784	79	C	09/02/2017	10:43	-133.037	43.848	0	364.50	0	5.5870	0	33.9970	4	26.815	0	361.261	0	94.2	4	30.8	4	-1E+10	1	-1E+10	1	-1E+10	1	-1E+10	1	-1E+10	1	-1E+10	1
4901784	79	C	09/02/2017	10:43	-133.037	43.848	0	367.30	0	5.5590	0	33.9990	4	26.820	0	364.034	0	92.8	4	30.4	4	-1E+10	1	-1E+10	1	-1E+10	1	-1E+10	1	-1E+10	1	-1E+10	1
4901784	79	C	09/02/2017	10:43	-133.037	43.848	0	370.10	0	5.5000	0	34.0010	4	26.828	0	366.806	0	91.5	4	29.9	4	-1E+10	1	-1E+10	1	-1E+10	1	-1E+10	1	-1E+10	1	-1E+10	1
4901784	79	C	09/02/2017	10:43	-133.037	43.848	0	372.00	0	5.4830	0	33.9990	4	26.829	0	368.688	0	90.7	4	29.6	4	-1E+10	1	-1E+10	1	-1E+10	1	-1E+10	1	-1E+10	1	-1E+10	1
4901784	79	C	09/02/2017	10:43	-133.037	43.848	0	374.70	0	5.4430	0	34.0010	4	26.835	0	371.361	0	89.3	4	29.1	4	-1E+10	1	-1E+10	1	-1E+10	1	-1E+10	1	-1E+10	1	-1E+10	1
4901784	79	C	09/02/2017	10:43	-133.037	43.848	0	377.50	0	5.3850	0	34.0050	4	26.845	0	374.134	0	88.2	4	28.7	4	-1E+10	1	-1E+10	1	-1E+10	1	-1E+10	1	-1E+10	1	-1E+10	1
4901784	79	C	09/02/2017	10:43	-133.037	43.848	0	380.30	0	5.3750	0	34.0050	4	26.847	0	376.906	0	87.2	4	28.4	4	-1E+10	1	-1E+10	1	-1E+10	1	-1E+10	1	-1E+10	1	-1E+10	1
4901784	79	C	09/02/2017	10:43	-133.037	43.848	0	383.00	0	5.3560	0	34.0050	4	26.849	0	379.580	0	85.7	4	27.9	4	-1E+10	1	-1E+10	1	-1E+10	1	-1E+10	1	-1E+10	1	-1E+10	1
4901784	79	C	09/02/2017	10:43	-133.037	43.848	0	384.90	0	5.3250	0	34.0090	4	26.856	0	381.461	0	84.7	4	27.6	4	-1E+10	1	-1E+10	1	-1E+10	1	-1E+10	1	-1E+10	1	-1E+10	1
4901784	79	C	09/02/2017	10:43	-133.037	43.848	0	387.80	0	5.3100	0	34.0080	4	26.857	0	384.332	0	83.5	4	27.2	4	-1E+10	1	-1E+10	1	-1E+10	1	-1E+10	1	-1E+10	1	-1E+10	1
4901784	79	C	09/02/2017	10:43	-133.037	43.848	0	390.60	0	5.2830	0	34.0090	4	26.861	0	387.105	0	82.1	4	26.7	4	-1E+10	1	-1E+10	1	-1E+10	1	-1E+10	1	-1E+10	1	-1E+10	1
4901784	79	C	09/02/2017	10:43	-133.037	43.848	0	392.40	0	5.2600	0	34.0100	4	26.864	0	388.887	0	81.0	4	26.3	4	-1E+10	1	-1E+10	1	-1E+10	1	-1E+10	1	-1E+10	1	-1E+10	1
4901784	79	C	09/02/2017	10:43	-133.037	43.848	0	394.40	0	5.2290	0	34.0120	4	26.869	0	390.867	0	80.0	4	26.0	4	-1E+10	1	-1E+10	1	-1E+10	1	-1E+10	1	-1E+10	1	-1E+10	1
4901784	79	C	09/02/2017	10:43	-133.037	43.848	0	397.20	0	5.1930	0	34.0150	4	26.876	0	393.640	0	78.7	4	25.5	4	-1E+10	1	-1E+10	1	-1E+10	1	-1E+10	1	-1E+10	1	-1E+10	1
4901784	79	C	09/02/2017	10:43	-133.037	43.848	0	399.90	0	5.1650	0	34.0180	4	26.882	0	396.313	0	77.5	4	25.1	4	-1E+10	1	-1E+10	1	-1E+10	1	-1E+10	1	-1E+10	1	-1E+10	1
4901784	79	C	09/02/2017	10:43	-133.037	43.848	0	402.70	0	5.1390	0	34.0210	4	26.887	0	399.085	0	76.2	4	24.7	4	-1E+10	1	-1E+10	1	-1E+10	1	-1E+10	1	-1E+10	1	-1E+10	1
4901784	79	C	09/02/2017	10:43	-133.037	43.848	0	405.50	0	5.1080	0	34.0260	4	26.894	0	401.857	0	75.1	4	24.3	4	-1E+10	1	-1E+10	1	-1E+10	1	-1E+10	1	-1E+10	1	-1E+10	1
4901784	79	C	09/02/2017	10:43	-133.037	43.848	0	407.40	0	5.1050	0	34.0260	4	26.895	0	403.738	0	74.2	4	24.0	4	-1E+10	1	-1E+10	1	-1E+10	1	-1E+10	1	-1E+10	1	-1E+10	1
4901784	79	C	09/02/2017	10:43	-133.037	43.848	0	410.10	0	5.0920	0	34.0270	4	26.897	0	406.411	0	72.4	4	23.4	4	-1E+10	1	-1E+10	1	-1E+10	1	-1E+10	1	-1E+10	1	-1E+10	1
4901784	79	C	09/02/2017	10:43	-133.037	43.848	0	412.90	0	5.0500	0	34.0320	4	26.906	0	409.183	0	70.5	4	22.8	4	-1E+10	1	-1E+10	1	-1E+10	1	-1E+10	1	-1E+10	1	-1E+10	1
4901784	79	C	09/02/2017	10:43	-133.037	43.848	0	414.70	0	5.0370	0	34.0340	4	26.909	0	410.965	0	69.3	4	22.4	4	-1E+10	1	-1E+10	1	-1E+10	1	-1E+10	1	-1E+10	1	-1E+10	1
4901784	79	C	09/02/2017	10:43	-133.037	43.848	0	417.70	0	5.0140	0	34.0380	4	26.915	0	413.935	0	67.5	4	21.8	4	-1E+10	1	-1E+10	1	-1E+10	1	-1E+10	1	-1E+10	1	-1E+10	1
4901784	79	C	09/02/2017	10:43	-133.037	43.848	0	420.50	0	4.9920	0	34.0420	4	26.921	0	416.707	0	65.9	4	21.3	4	-1E+10	1	-1E+10	1	-1E+10	1	-1E+10	1	-1E+10	1	-1E+10	1
4901784	79	C	09/02/2017	10:43	-133.037	43.848	0	423.00	0	4.9750	0	34.0450	4	26.925	0	419.182	0	64.6	4	20.8	4	-1E+10	1	-1E+10	1	-1E+10	1	-1E+10	1	-1E+10	1	-1E+10	1
4901784	79	C	09/02/2017	10:43	-133.037	43.848	0	424.90	0	4.9590	0	34.0490	4	26.930	0	421.063	0	63.6	4	20.5	4	-1E+10	1	-1E+10	1	-1E+10	1	-1E+10	1	-1E+10	1	-1E+10	1
4901784	79	C	09/02/2017	10:43	-133.037	43.848	0	427.20	0	4.9480	0	34.0500	4	26.932	0	423.340	0	62.4	4	20.1	4	-1E+10	1	-1E+10	1	-1E+10	1	-1E+10	1	-1E+10	1	-1E+10	1
4901784	79	C	09/02/2017	10:43	-133.037	43.848	0	430.40	0	4.9240	0	34.0530	4	26.937	0	426.508	0	60.7	4	19.6	4	-1E+10	1	-1E+10	1	-1E+10	1	-1E+10	1	-1E+10	1	-1E+10	1
4901784	79	C	09/02/2017	10:43	-133.037	43.848	0	432.80	0	4.8970	0	34.0590	4	26.945	0	428.884	0	59.6	4	19.2	4	-1E+10	1	-1E+10	1	-1E+10	1	-1E+10	1	-1E+10	1	-1E+10	1
4901784	79	C	09/02/2017	10:43	-133.037	43.848	0	435.20	0	4.8770	0	34.0610	4	26.949	0	431.259	0	58.5	4	18.8	4	-1E+10	1	-1E+10	1	-1E+10	1	-1E+10	1	-1E+10	1	-1E+10	1
4901784	79	C	09/02/2017	10:43	-133.037	43.848	0	437.50	0	4.8400	0	34.0690	4	26.959	0	433.536	0	56.9	4	18.3	4	-1E+10	1	-1E+10	1	-1E+10	1	-1E+10	1	-1E+10	1	-1E+10	1
4901784	79	C	09/02/2017	10:43	-133.037	43.848	0	439.90	0	4.8260	0	34.0720	4	26.963	0	435.912	0	55.8	4	18.0	4	-1E+10	1	-1E+10	1	-1E+10	1	-1E+10	1	-1E+10	1	-1E+10	1
4901784	79	C	09/02/2017	10:43	-133.037	43.848	0	442.30	0	4.8090	0	34.0770	4	26.969	0	438.288	0	55.0	4	17.7	4	-1E+10	1	-1E+10	1	-1E+10	1	-1E+10	1	-1E+10	1	-1E+10	1
4901784	79	C	09/02/2017	10:43	-133.037	43.848	0	444.70	0	4.8020	0	34.0780	4	26.971	0	440.663	0	54.4	4	17.5	4	-1E+10	1	-1E+10	1	-1E+10	1	-1E+10	1	-1E+10	1	-1E+10	1
4901784	79	C	09/02/2017	10:43	-133.037	43.848	0	447.10	0	4.7840	0	34.0800	4	26.974	0	443.039	0	54.1	4	17.4	4	-1E+10	1	-1E+10	1	-1E+10	1	-1E+10	1	-1E+10	1	-1E+10	1
4901784	79	C	09/02/2017	10:43	-133.037	43.848	0	449.60	0	4.7720	0	34.0830	4	26.978	0	445.514	0	53.4	4	17.2	4	-1E+10	1	-1E+10	1	-1E+10	1	-1E+10	1	-1E+10	1	-1E+10	1
4901784	79	C	09/02/2017	10:43	-133.037	43.848	0	452.90	0	4.7630	0	34.0850	4	26.981	0	448.780	0	52.2	4	16.8	4	-1E+10	1	-1E+10	1	-1E+10	1	-1E+10	1	-1E+10	1	-1E+10	1
4901784	79	C	09/02/2017	10:43	-133.037	43.848	0	455.40	0	4.7530	0	34.0870	4	26.983	0	451.255	0	51.1	4	16.4	4	-1E+10	1	-1E+10	1	-1E+10	1	-1E+10	1	-1E+10	1	-1E+10	1
4901784	79	C	09/02/2017	10:43	-133.037	43.848	0	457.00	0	4.7390	0	34.0910	4	26.988	0	452.838	0	50.2	4	16.1	4	-1E+10	1	-1E+10	1	-1E+10	1	-1E+10	1	-1E+10	1	-1E+10	1
4901784	79	C	09/02/2017	10:43	-133.037	43.848	0	459.60	0	4.7270	0	34.0930	4	26.991	0	455.412	0	49.2	4	15.8	4	-1E+10	1	-1E+10	1	-1E+10	1	-1E+10	1	-1E+10	1	-1E+10	1
4901784	79	C	09/02/2017	10:43	-133.037	43.848	0	462.10	0	4.7190	0	34.0950	4	26.993	0	457.886	0	48.2	4	15.5	4	-1E+10	1	-1E+10	1	-1E+10	1	-1E+10	1	-1E+10	1	-1E+10	1
4901784	79	C	09/02/2017	10:43	-133.037	43.848	0	464.60	0	4.7010	0	34.1000	4	26.999	0	460.361	0	47.0	4	15.1	4	-1E+10	1	-1E+10	1	-1E+10	1	-1E+10	1	-1E+10	1	-1E+10	1
4901784	79	C	09/02/2017	10:43	-133.037	43.848	0	467.90	0	4.6810	0	34.1040	4	27.005	0	463.627	0	46.2	4	14.8	4	-1E+10	1	-1E+10	1	-1E+10	1	-1E+10	1	-1E+10	1	-1E+10	1
4901784	79	C	09/02/2017	10:43	-133.037	43.848	0	470.40	0	4.6620	0	34.1080	4	27.010	0	466.101	0	45.6	4	14.6	4	-1E+10	1	-1E+10	1	-1E+10	1	-1E+10	1	-1E+10	1	-1E+10	1
4901784	79	C	09/02/2017	10:43	-133.037	43.848	0	472.20	0	4.6530	0	34.1090	4	27.012	0	467.883	0	45.1	4	14.5	4	-1E+10	1	-1E+10	1	-1E+10	1	-1E+10	1	-1E+10	1	-1E+10	1
4901784	79	C	09/02/2017	10:43	-133.037	43.848	0	474.70	0	4.6390	0	34.1130	4	27.017	0	470.357	0	44.6	4	14.3	4	-1E+10	1	-1E+10	1	-1E+10	1	-1E+10	1	-1E+10	1	-1E+10	1
4901784	79	C	09/02/2017	10:43	-133.037	43.848	0	477.30	0	4.6370	0	34.1130	4	27.017	0	472.930	0	44.0	4	14.1	4	-1E+10	1	-1E+10	1	-1E+10	1	-1E+10	1	-1E+10	1	-1E+10	1
4901784	79	C	09/02/2017	10:43	-133.037	43.848	0	479.90	0	4.6320	0	34.1140	4	27.018	0	475.503	0	43.2	4	13.8	4	-1E+10	1	-1E+10	1	-1E+10	1	-1E+10	1	-1E+10	1	-1E+10	1
4901784	79	C	09/02/2017	10:43	-133.037	43.848	0	482.40	0	4.6180	0	34.1170	4	27.022	0	477.978	0	42.3	4	13.6	4	-1E+10	1	-1E+10	1	-1E+10	1	-1E+10	1	-1E+10	1	-1E+10	1
4901784	79	C	09/02/2017	10:43	-133.037	43.848	0	485.00	0	4.6080	0	34.1220	4	27.027	0	480.551	0	41.5	4	13.3	4	-1E+10	1	-1E+10	1	-1E+10	1	-1E+10	1	-1E+10	1	-1E+10	1
4901784	79	C	09/02/2017	10:43	-133.037	43.848	0	487.60	0	4.5930	0	34.1250	4	27.031	0	483.124	0	40.7	4	13.0	4	-1E+10	1	-1E+10	1	-1E+10	1	-1E+10	1	-1E+10	1	-1E+10	1
4901784	79	C	09/02/2017	10:43	-133.037	43.848	0	490.20	0	4.5870	0	34.1260	4	27.033	0	485.697	0	39.9	4	12.8	4	-1E+10	1	-1E+10	1	-1E+10	1	-1E+10	1	-1E+10	1	-1E+10	1
4901784	79	C	09/02/2017	10:43	-133.037	43.848	0	492.80	0	4.5720	0	34.1290	4	27.037	0	488.270	0	39.3	4	12.6	4	-1E+10	1	-1E+10	1	-1E+10	1	-1E+10	1	-1E+10	1	-1E+10	1
4901784	79	C	09/02/2017	10:43	-133.037	43.848	0	494.60	0	4.5700	0	34.1320	4	27.039	0	490.051	0	38.9	4	12.5	4	-1E+10	1	-1E+10	1	-1E+10	1	-1E+10	1	-1E+10	1	-1E+10	1
4901784	79	C	09/02/2017	10:43	-133.037	43.848	0	497.30	0	4.5570	0	34.1350	4	27.043	0	492.723	0	38.3	4	12.2	4	-1E+10	1	-1E+10	1	-1E+10	1	-1E+10	1	-1E+10	1	-1E+10	1
4901784	79	C	09/02/2017	10:43	-133.037	43.848	0	499.90	0	4.5500	0	34.1370	4	27.046	0	495.296	0	37.8	4	12.1	4	-1E+10	1	-1E+10	1	-1E+10	1	-1E+10	1	-1E+10	1	-1E+10	1
4901784	79	C	09/02/2017	10:43	-133.037	43.848	0	505.30	0	4.5360	0	34.1400	4	27.050	0	500.640	0	36.8	4	11.8	4	-1E+10	1	-1E+10	1	-1E+10	1	-1E+10	1	-1E+10	1	-1E+10	1
4901784	79	C	09/02/2017	10:43	-133.037	43.848	0	509.90	0	4.5160	0	34.1440	4	27.055	0	505.192	0	35.7	4	11.4	4	-1E+10	1	-1E+10	1	-1E+10	1	-1E+10	1	-1E+10	1	-1E+10	1
4901784	79	C	09/02/2017	10:43	-133.037	43.848	0	514.40	0	4.4940	0	34.1500	4	27.062	0	509.645	0	34.6	4	11.1	4	-1E+10	1	-1E+10	1	-1E+10	1	-1E+10	1	-1E+10	1	-1E+10	1
4901784	79	C	09/02/2017	10:43	-133.037	43.848	0	519.90	0	4.4780	0	34.1540	4	27.067	0	515.087	0	33.5	4	10.7	4	-1E+10	1	-1E+10	1	-1E+10	1	-1E+10	1	-1E+10	1	-1E+10	1
4901784	79	C	09/02/2017	10:43	-133.037	43.848	0	525.30	0	4.4570	0	34.1580	4	27.073	0	520.431	0	32.4	4	10.3	4	-1E+10	1	-1E+10	1	-1E+10	1	-1E+10	1	-1E+10	1	-1E+10	1
4901784	79	C	09/02/2017	10:43	-133.037	43.848	0	529.90	0	4.4310	0	34.1650	4	27.081	0	524.982	0	31.4	4	10.0	4	-1E+10	1	-1E+10	1	-1E+10	1	-1E+10	1	-1E+10	1	-1E+10	1
4901784	79	C	09/02/2017	10:43	-133.037	43.848	0	535.20	0	4.4120	0	34.1700	4	27.087	0	530.226	0	30.4	4	9.7	4	-1E+10	1	-1E+10	1	-1E+10	1	-1E+10	1	-1E+10	1	-1E+10	1
4901784	79	C	09/02/2017	10:43	-133.037	43.848	0	540.20	0	4.3890	0	34.1760	4	27.094	0	535.173	0	29.4	4	9.4	4	-1E+10	1	-1E+10	1	-1E+10	1	-1E+10	1	-1E+10	1	-1E+10	1
4901784	79	C	09/02/2017	10:43	-133.037	43.848	0	544.90	0	4.3730	0	34.1790	4	27.098	0	539.824	0	28.5	4	9.1	4	-1E+10	1	-1E+10	1	-1E+10	1	-1E+10	1	-1E+10	1	-1E+10	1
4901784	79	C	09/02/2017	10:43	-133.037	43.848	0	549.70	0	4.3500	0	34.1850	4	27.106	0	544.573	0	27.5	4	8.8	4	-1E+10	1	-1E+10	1	-1E+10	1	-1E+10	1	-1E+10	1	-1E+10	1
4901784	79	C	09/02/2017	10:43	-133.037	43.848	0	554.50	0	4.3260	0	34.1910	4	27.113	0	549.322	0	26.5	4	8.4	4	-1E+10	1	-1E+10	1	-1E+10	1	-1E+10	1	-1E+10	1	-1E+10	1
4901784	79	C	09/02/2017	10:43	-133.037	43.848	0	559.30	0	4.3120	0	34.1970	4	27.119	0	554.070	0	25.7	4	8.2	4	-1E+10	1	-1E+10	1	-1E+10	1	-1E+10	1	-1E+10	1	-1E+10	1
4901784	79	C	09/02/2017	10:43	-133.037	43.848	0	564.30	0	4.2940	0	34.2020	4	27.125	0	559.017	0	24.9	4	7.9	4	-1E+10	1	-1E+10	1	-1E+10	1	-1E+10	1	-1E+10	1	-1E+10	1
4901784	79	C	09/02/2017	10:43	-133.037	43.848	0	569.20	0	4.2780	0	34.2070	4	27.131	0	563.864	0	24.1	4	7.7	4	-1E+10	1	-1E+10	1	-1E+10	1	-1E+10	1	-1E+10	1	-1E+10	1
4901784	79	C	09/02/2017	10:43	-133.037	43.848	0	574.30	0	4.2670	0	34.2120	4	27.136	0	568.910	0	23.4	4	7.4	4	-1E+10	1	-1E+10	1	-1E+10	1	-1E+10	1	-1E+10	1	-1E+10	1
4901784	79	C	09/02/2017	10:43	-133.037	43.848	0	579.30	0	4.2640	0	34.2140	4	27.138	0	573.856	0	22.8	4	7.3	4	-1E+10	1	-1E+10	1	-1E+10	1	-1E+10	1	-1E+10	1	-1E+10	1
4901784	79	C	09/02/2017	10:43	-133.037	43.848	0	584.40	0	4.2520	0	34.2190	4	27.143	0	578.901	0	22.0	4	7.0	4	-1E+10	1	-1E+10	1	-1E+10	1	-1E+10	1	-1E+10	1	-1E+10	1
4901784	79	C	09/02/2017	10:43	-133.037	43.848	0	589.60	0	4.2320	0	34.2260	4	27.151	0	584.044	0	21.2	4	6.7	4	-1E+10	1	-1E+10	1	-1E+10	1	-1E+10	1	-1E+10	1	-1E+10	1
4901784	79	C	09/02/2017	10:43	-133.037	43.848	0	594.80	0	4.2210	0	34.2310	4	27.156	0	589.188	0	20.4	4	6.5	4	-1E+10	1	-1E+10	1	-1E+10	1	-1E+10	1	-1E+10	1	-1E+10	1
4901784	79	C	09/02/2017	10:43	-133.037	43.848	0	600.10	0	4.2020	0	34.2380	4	27.164	0	594.431	0	19.8	4	6.3	4	-1E+10	1	-1E+10	1	-1E+10	1	-1E+10	1	-1E+10	1	-1E+10	1
4901784	79	C	09/02/2017	10:43	-133.037	43.848	0	605.50	0	4.1860	0	34.2420	4	27.169	0	599.772	0	19.5	4	6.2	4	-1E+10	1	-1E+10	1	-1E+10	1	-1E+10	1	-1E+10	1	-1E+10	1
4901784	79	C	09/02/2017	10:43	-133.037	43.848	0	609.90	0	4.1730	0	34.2460	4	27.173	0	604.124	0	19.1	4	6.1	4	-1E+10	1	-1E+10	1	-1E+10	1	-1E+10	1	-1E+10	1	-1E+10	1
4901784	79	C	09/02/2017	10:43	-133.037	43.848	0	614.40	0	4.1620	0	34.2480	4	27.176	0	608.575	0	18.9	4	6.0	4	-1E+10	1	-1E+10	1	-1E+10	1	-1E+10	1	-1E+10	1	-1E+10	1
4901784	79	C	09/02/2017	10:43	-133.037	43.848	0	619.80	0	4.1550	0	34.2510	4	27.179	0	613.915	0	18.5	4	5.9	4	-1E+10	1	-1E+10	1	-1E+10	1	-1E+10	1	-1E+10	1	-1E+10	1
4901784	79	C	09/02/2017	10:43	-133.037	43.848	0	625.30	0	4.1440	0	34.2540	4	27.183	0	619.355	0	18.1	4	5.7	4	-1E+10	1	-1E+10	1	-1E+10	1	-1E+10	1	-1E+10	1	-1E+10	1
4901784	79	C	09/02/2017	10:43	-133.037	43.848	0	630.00	0	4.1280	0	34.2590	4	27.188	0	624.003	0	17.8	4	5.6	4	-1E+10	1	-1E+10	1	-1E+10	1	-1E+10	1	-1E+10	1	-1E+10	1
4901784	79	C	09/02/2017	10:43	-133.037	43.848	0	634.70	0	4.1160	0	34.2620	4	27.192	0	628.651	0	17.6	4	5.6	4	-1E+10	1	-1E+10	1	-1E+10	1	-1E+10	1	-1E+10	1	-1E+10	1
4901784	79	C	09/02/2017	10:43	-133.037	43.848	0	640.20	0	4.1030	0	34.2650	4	27.196	0	634.091	0	17.4	4	5.5	4	-1E+10	1	-1E+10	1	-1E+10	1	-1E+10	1	-1E+10	1	-1E+10	1
4901784	79	C	09/02/2017	10:43	-133.037	43.848	0	644.90	0	4.0950	0	34.2660	4	27.197	0	638.739	0	17.2	4	5.4	4	-1E+10	1	-1E+10	1	-1E+10	1	-1E+10	1	-1E+10	1	-1E+10	1
4901784	79	C	09/02/2017	10:43	-133.037	43.848	0	650.40	0	4.0880	0	34.2690	4	27.201	0	644.178	0	17.1	4	5.4	4	-1E+10	1	-1E+10	1	-1E+10	1	-1E+10	1	-1E+10	1	-1E+10	1
4901784	79	C	09/02/2017	10:43	-133.037	43.848	0	655.60	0	4.0810	0	34.2710	4	27.203	0	649.320	0	16.8	4	5.3	4	-1E+10	1	-1E+10	1	-1E+10	1	-1E+10	1	-1E+10	1	-1E+10	1
4901784	79	C	09/02/2017	10:43	-133.037	43.848	0	660.30	0	4.0730	0	34.2730	4	27.205	0	653.967	0	16.6	4	5.3	4	-1E+10	1	-1E+10	1	-1E+10	1	-1E+10	1	-1E+10	1	-1E+10	1
4901784	79	C	09/02/2017	10:43	-133.037	43.848	0	665.10	0	4.0590	0	34.2790	4	27.212	0	658.714	0	16.4	4	5.2	4	-1E+10	1	-1E+10	1	-1E+10	1	-1E+10	1	-1E+10	1	-1E+10	1
4901784	79	C	09/02/2017	10:43	-133.037	43.848	0	669.90	0	4.0540	0	34.2790	4	27.212	0	663.460	0	16.3	4	5.1	4	-1E+10	1	-1E+10	1	-1E+10	1	-1E+10	1	-1E+10	1	-1E+10	1
4901784	79	C	09/02/2017	10:43	-133.037	43.848	0	674.80	0	4.0480	0	34.2820	4	27.215	0	668.305	0	16.1	4	5.1	4	-1E+10	1	-1E+10	1	-1E+10	1	-1E+10	1	-1E+10	1	-1E+10	1
4901784	79	C	09/02/2017	10:43	-133.037	43.848	0	679.80	0	4.0440	0	34.2840	4	27.217	0	673.249	0	15.9	4	5.0	4	-1E+10	1	-1E+10	1	-1E+10	1	-1E+10	1	-1E+10	1	-1E+10	1
4901784	79	C	09/02/2017	10:43	-133.037	43.848	0	684.70	0	4.0310	0	34.2870	4	27.221	0	678.094	0	15.6	4	4.9	4	-1E+10	1	-1E+10	1	-1E+10	1	-1E+10	1	-1E+10	1	-1E+10	1
4901784	79	C	09/02/2017	10:43	-133.037	43.848	0	689.80	0	4.0220	0	34.2900	4	27.224	0	683.136	0	15.3	4	4.8	4	-1E+10	1	-1E+10	1	-1E+10	1	-1E+10	1	-1E+10	1	-1E+10	1
4901784	79	C	09/02/2017	10:43	-133.037	43.848	0	694.80	0	4.0150	0	34.2940	4	27.228	0	688.079	0	15.1	4	4.8	4	-1E+10	1	-1E+10	1	-1E+10	1	-1E+10	1	-1E+10	1	-1E+10	1
4901784	79	C	09/02/2017	10:43	-133.037	43.848	0	699.80	0	3.9970	0	34.2980	4	27.233	0	693.023	0	14.7	4	4.7	4	-1E+10	1	-1E+10	1	-1E+10	1	-1E+10	1	-1E+10	1	-1E+10	1
4901784	79	C	09/02/2017	10:43	-133.037	43.848	0	704.80	0	3.9760	0	34.3050	4	27.241	0	697.966	0	14.5	4	4.6	4	-1E+10	1	-1E+10	1	-1E+10	1	-1E+10	1	-1E+10	1	-1E+10	1
4901784	79	C	09/02/2017	10:43	-133.037	43.848	0	709.90	0	3.9590	0	34.3080	4	27.245	0	703.008	0	14.3	4	4.5	4	-1E+10	1	-1E+10	1	-1E+10	1	-1E+10	1	-1E+10	1	-1E+10	1
4901784	79	C	09/02/2017	10:43	-133.037	43.848	0	715.00	0	3.9490	0	34.3100	4	27.248	0	708.050	0	14.0	4	4.4	4	-1E+10	1	-1E+10	1	-1E+10	1	-1E+10	1	-1E+10	1	-1E+10	1
4901784	79	C	09/02/2017	10:43	-133.037	43.848	0	720.20	0	3.9350	0	34.3150	4	27.253	0	713.190	0	13.9	4	4.4	4	-1E+10	1	-1E+10	1	-1E+10	1	-1E+10	1	-1E+10	1	-1E+10	1
4901784	79	C	09/02/2017	10:43	-133.037	43.848	0	725.40	0	3.9240	0	34.3190	4	27.258	0	718.331	0	13.6	4	4.3	4	-1E+10	1	-1E+10	1	-1E+10	1	-1E+10	1	-1E+10	1	-1E+10	1
4901784	79	C	09/02/2017	10:43	-133.037	43.848	0	730.60	0	3.9220	0	34.3210	4	27.260	0	723.471	0	13.5	4	4.3	4	-1E+10	1	-1E+10	1	-1E+10	1	-1E+10	1	-1E+10	1	-1E+10	1
4901784	79	C	09/02/2017	10:43	-133.037	43.848	0	735.70	0	3.9120	0	34.3240	4	27.263	0	728.512	0	13.4	4	4.2	4	-1E+10	1	-1E+10	1	-1E+10	1	-1E+10	1	-1E+10	1	-1E+10	1
4901784	79	C	09/02/2017	10:43	-133.037	43.848	0	740.00	0	3.9060	0	34.3260	4	27.265	0	732.763	0	13.3	4	4.2	4	-1E+10	1	-1E+10	1	-1E+10	1	-1E+10	1	-1E+10	1	-1E+10	1
4901784	79	C	09/02/2017	10:43	-133.037	43.848	0	744.30	0	3.8980	0	34.3270	4	27.267	0	737.013	0	13.2	4	4.2	4	-1E+10	1	-1E+10	1	-1E+10	1	-1E+10	1	-1E+10	1	-1E+10	1
4901784	79	C	09/02/2017	10:43	-133.037	43.848	0	749.40	0	3.8920	0	34.3310	4	27.271	0	742.054	0	13.0	4	4.1	4	-1E+10	1	-1E+10	1	-1E+10	1	-1E+10	1	-1E+10	1	-1E+10	1
4901784	79	C	09/02/2017	10:43	-133.037	43.848	0	754.60	0	3.8810	0	34.3330	4	27.273	0	747.194	0	12.9	4	4.1	4	-1E+10	1	-1E+10	1	-1E+10	1	-1E+10	1	-1E+10	1	-1E+10	1
4901784	79	C	09/02/2017	10:43	-133.037	43.848	0	759.80	0	3.8710	0	34.3360	4	27.277	0	752.334	0	12.8	4	4.0	4	-1E+10	1	-1E+10	1	-1E+10	1	-1E+10	1	-1E+10	1	-1E+10	1
4901784	79	C	09/02/2017	10:43	-133.037	43.848	0	764.90	0	3.8610	0	34.3400	4	27.281	0	757.374	0	12.6	4	4.0	4	-1E+10	1	-1E+10	1	-1E+10	1	-1E+10	1	-1E+10	1	-1E+10	1
4901784	79	C	09/02/2017	10:43	-133.037	43.848	0	770.00	0	3.8550	0	34.3410	4	27.282	0	762.415	0	12.5	4	3.9	4	-1E+10	1	-1E+10	1	-1E+10	1	-1E+10	1	-1E+10	1	-1E+10	1
4901784	79	C	09/02/2017	10:43	-133.037	43.848	0	775.00	0	3.8420	0	34.3450	4	27.287	0	767.356	0	12.3	4	3.9	4	-1E+10	1	-1E+10	1	-1E+10	1	-1E+10	1	-1E+10	1	-1E+10	1
4901784	79	C	09/02/2017	10:43	-133.037	43.848	0	780.00	0	3.8290	0	34.3490	4	27.292	0	772.298	0	12.2	4	3.8	4	-1E+10	1	-1E+10	1	-1E+10	1	-1E+10	1	-1E+10	1	-1E+10	1
4901784	79	C	09/02/2017	10:43	-133.037	43.848	0	785.10	0	3.8070	0	34.3530	4	27.297	0	777.338	0	12.1	4	3.8	4	-1E+10	1	-1E+10	1	-1E+10	1	-1E+10	1	-1E+10	1	-1E+10	1
4901784	79	C	09/02/2017	10:43	-133.037	43.848	0	790.30	0	3.7970	0	34.3560	4	27.300	0	782.477	0	12.0	4	3.8	4	-1E+10	1	-1E+10	1	-1E+10	1	-1E+10	1	-1E+10	1	-1E+10	1
4901784	79	C	09/02/2017	10:43	-133.037	43.848	0	795.40	0	3.7820	0	34.3580	4	27.304	0	787.517	0	12.0	4	3.8	4	-1E+10	1	-1E+10	1	-1E+10	1	-1E+10	1	-1E+10	1	-1E+10	1
4901784	79	C	09/02/2017	10:43	-133.037	43.848	0	800.50	0	3.7710	0	34.3600	4	27.306	0	792.556	0	11.9	4	3.8	4	-1E+10	1	-1E+10	1	-1E+10	1	-1E+10	1	-1E+10	1	-1E+10	1
4901784	79	C	09/02/2017	10:43	-133.037	43.848	0	805.60	0	3.7660	0	34.3610	4	27.308	0	797.596	0	11.9	4	3.7	4	-1E+10	1	-1E+10	1	-1E+10	1	-1E+10	1	-1E+10	1	-1E+10	1
4901784	79	C	09/02/2017	10:43	-133.037	43.848	0	810.70	0	3.7520	0	34.3650	4	27.312	0	802.636	0	11.7	4	3.7	4	-1E+10	1	-1E+10	1	-1E+10	1	-1E+10	1	-1E+10	1	-1E+10	1
4901784	79	C	09/02/2017	10:43	-133.037	43.848	0	815.00	0	3.7450	0	34.3680	4	27.315	0	806.885	0	11.6	4	3.7	4	-1E+10	1	-1E+10	1	-1E+10	1	-1E+10	1	-1E+10	1	-1E+10	1
4901784	79	C	09/02/2017	10:43	-133.037	43.848	0	819.20	0	3.7380	0	34.3700	4	27.318	0	811.035	0	11.6	4	3.6	4	-1E+10	1	-1E+10	1	-1E+10	1	-1E+10	1	-1E+10	1	-1E+10	1
4901784	79	C	09/02/2017	10:43	-133.037	43.848	0	824.50	0	3.7260	0	34.3750	4	27.323	0	816.271	0	11.4	4	3.6	4	-1E+10	1	-1E+10	1	-1E+10	1	-1E+10	1	-1E+10	1	-1E+10	1
4901784	79	C	09/02/2017	10:43	-133.037	43.848	0	829.70	0	3.7190	0	34.3790	4	27.327	0	821.409	0	11.3	4	3.6	4	-1E+10	1	-1E+10	1	-1E+10	1	-1E+10	1	-1E+10	1	-1E+10	1
4901784	79	C	09/02/2017	10:43	-133.037	43.848	0	834.80	0	3.7160	0	34.3840	4	27.331	0	826.448	0	11.2	4	3.5	4	-1E+10	1	-1E+10	1	-1E+10	1	-1E+10	1	-1E+10	1	-1E+10	1
4901784	79	C	09/02/2017	10:43	-133.037	43.848	0	839.90	0	3.7070	0	34.3860	4	27.334	0	831.487	0	11.2	4	3.5	4	-1E+10	1	-1E+10	1	-1E+10	1	-1E+10	1	-1E+10	1	-1E+10	1
4901784	79	C	09/02/2017	10:43	-133.037	43.848	0	845.10	0	3.7020	0	34.3880	4	27.336	0	836.625	0	11.2	4	3.5	4	-1E+10	1	-1E+10	1	-1E+10	1	-1E+10	1	-1E+10	1	-1E+10	1
4901784	79	C	09/02/2017	10:43	-133.037	43.848	0	850.20	0	3.6980	0	34.3900	4	27.338	0	841.663	0	11.2	4	3.5	4	-1E+10	1	-1E+10	1	-1E+10	1	-1E+10	1	-1E+10	1	-1E+10	1
4901784	79	C	09/02/2017	10:43	-133.037	43.848	0	855.40	0	3.6880	0	34.3930	4	27.341	0	846.800	0	11.1	4	3.5	4	-1E+10	1	-1E+10	1	-1E+10	1	-1E+10	1	-1E+10	1	-1E+10	1
4901784	79	C	09/02/2017	10:43	-133.037	43.848	0	860.50	0	3.6820	0	34.3940	4	27.343	0	851.839	0	11.1	4	3.5	4	-1E+10	1	-1E+10	1	-1E+10	1	-1E+10	1	-1E+10	1	-1E+10	1
4901784	79	C	09/02/2017	10:43	-133.037	43.848	0	865.70	0	3.6670	0	34.3970	4	27.346	0	856.976	0	11.1	4	3.5	4	-1E+10	1	-1E+10	1	-1E+10	1	-1E+10	1	-1E+10	1	-1E+10	1
4901784	79	C	09/02/2017	10:43	-133.037	43.848	0	870.00	0	3.6580	0	34.3990	4	27.349	0	861.224	0	11.1	4	3.5	4	-1E+10	1	-1E+10	1	-1E+10	1	-1E+10	1	-1E+10	1	-1E+10	1
4901784	79	C	09/02/2017	10:43	-133.037	43.848	0	874.30	0	3.6450	0	34.4030	4	27.353	0	865.471	0	11.1	4	3.5	4	-1E+10	1	-1E+10	1	-1E+10	1	-1E+10	1	-1E+10	1	-1E+10	1
4901784	79	C	09/02/2017	10:43	-133.037	43.848	0	879.50	0	3.6310	0	34.4060	4	27.357	0	870.608	0	11.2	4	3.5	4	-1E+10	1	-1E+10	1	-1E+10	1	-1E+10	1	-1E+10	1	-1E+10	1
4901784	79	C	09/02/2017	10:43	-133.037	43.848	0	884.80	0	3.6170	0	34.4100	4	27.362	0	875.843	0	11.2	4	3.5	4	-1E+10	1	-1E+10	1	-1E+10	1	-1E+10	1	-1E+10	1	-1E+10	1
4901784	79	C	09/02/2017	10:43	-133.037	43.848	0	890.00	0	3.6040	0	34.4120	4	27.365	0	880.980	0	11.2	4	3.5	4	-1E+10	1	-1E+10	1	-1E+10	1	-1E+10	1	-1E+10	1	-1E+10	1
4901784	79	C	09/02/2017	10:43	-133.037	43.848	0	895.40	0	3.5890	0	34.4160	4	27.369	0	886.314	0	11.2	4	3.5	4	-1E+10	1	-1E+10	1	-1E+10	1	-1E+10	1	-1E+10	1	-1E+10	1
4901784	79	C	09/02/2017	10:43	-133.037	43.848	0	899.80	0	3.5830	0	34.4180	4	27.372	0	890.660	0	11.2	4	3.5	4	-1E+10	1	-1E+10	1	-1E+10	1	-1E+10	1	-1E+10	1	-1E+10	1
4901784	79	C	09/02/2017	10:43	-133.037	43.848	0	904.30	0	3.5730	0	34.4200	4	27.374	0	895.104	0	11.3	4	3.5	4	-1E+10	1	-1E+10	1	-1E+10	1	-1E+10	1	-1E+10	1	-1E+10	1
4901784	79	C	09/02/2017	10:43	-133.037	43.848	0	909.80	0	3.5630	0	34.4230	4	27.378	0	900.536	0	11.3	4	3.5	4	-1E+10	1	-1E+10	1	-1E+10	1	-1E+10	1	-1E+10	1	-1E+10	1
4901784	79	C	09/02/2017	10:43	-133.037	43.848	0	915.10	0	3.5490	0	34.4260	4	27.381	0	905.771	0	11.4	4	3.6	4	-1E+10	1	-1E+10	1	-1E+10	1	-1E+10	1	-1E+10	1	-1E+10	1
4901784	79	C	09/02/2017	10:43	-133.037	43.848	0	920.60	0	3.5250	0	34.4320	4	27.389	0	911.203	0	11.4	4	3.6	4	-1E+10	1	-1E+10	1	-1E+10	1	-1E+10	1	-1E+10	1	-1E+10	1
4901784	79	C	09/02/2017	10:43	-133.037	43.848	0	925.20	0	3.5110	0	34.4350	4	27.392	0	915.746	0	11.4	4	3.6	4	-1E+10	1	-1E+10	1	-1E+10	1	-1E+10	1	-1E+10	1	-1E+10	1
4901784	79	C	09/02/2017	10:43	-133.037	43.848	0	930.10	0	3.5020	0	34.4380	4	27.396	0	920.585	0	11.5	4	3.6	4	-1E+10	1	-1E+10	1	-1E+10	1	-1E+10	1	-1E+10	1	-1E+10	1
4901784	79	C	09/02/2017	10:43	-133.037	43.848	0	935.20	0	3.4920	0	34.4410	4	27.399	0	925.622	0	11.5	4	3.6	4	-1E+10	1	-1E+10	1	-1E+10	1	-1E+10	1	-1E+10	1	-1E+10	1
4901784	79	C	09/02/2017	10:43	-133.037	43.848	0	939.90	0	3.4870	0	34.4420	4	27.400	0	930.263	0	11.5	4	3.6	4	-1E+10	1	-1E+10	1	-1E+10	1	-1E+10	1	-1E+10	1	-1E+10	1
4901784	79	C	09/02/2017	10:43	-133.037	43.848	0	944.70	0	3.4750	0	34.4440	4	27.403	0	935.003	0	11.6	4	3.6	4	-1E+10	1	-1E+10	1	-1E+10	1	-1E+10	1	-1E+10	1	-1E+10	1
4901784	79	C	09/02/2017	10:43	-133.037	43.848	0	949.60	0	3.4610	0	34.4480	4	27.408	0	939.842	0	11.6	4	3.6	4	-1E+10	1	-1E+10	1	-1E+10	1	-1E+10	1	-1E+10	1	-1E+10	1
4901784	79	C	09/02/2017	10:43	-133.037	43.848	0	954.50	0	3.4480	0	34.4510	4	27.411	0	944.681	0	11.7	4	3.6	4	-1E+10	1	-1E+10	1	-1E+10	1	-1E+10	1	-1E+10	1	-1E+10	1
4901784	79	C	09/02/2017	10:43	-133.037	43.848	0	959.50	0	3.4330	0	34.4560	4	27.417	0	949.618	0	11.7	4	3.7	4	-1E+10	1	-1E+10	1	-1E+10	1	-1E+10	1	-1E+10	1	-1E+10	1
4901784	79	C	09/02/2017	10:43	-133.037	43.848	0	964.60	0	3.4220	0	34.4560	4	27.418	0	954.654	0	11.7	4	3.7	4	-1E+10	1	-1E+10	1	-1E+10	1	-1E+10	1	-1E+10	1	-1E+10	1
4901784	79	C	09/02/2017	10:43	-133.037	43.848	0	969.70	0	3.4080	0	34.4580	4	27.421	0	959.689	0	11.7	4	3.7	4	-1E+10	1	-1E+10	1	-1E+10	1	-1E+10	1	-1E+10	1	-1E+10	1
4901784	79	C	09/02/2017	10:43	-133.037	43.848	0	974.70	0	3.4010	0	34.4600	4	27.423	0	964.626	0	11.8	4	3.7	4	-1E+10	1	-1E+10	1	-1E+10	1	-1E+10	1	-1E+10	1	-1E+10	1
4901784	79	C	09/02/2017	10:43	-133.037	43.848	0	979.90	0	3.3960	0	34.4620	4	27.425	0	969.760	0	12.0	4	3.8	4	-1E+10	1	-1E+10	1	-1E+10	1	-1E+10	1	-1E+10	1	-1E+10	1
4901784	79	C	09/02/2017	10:43	-133.037	43.848	0	985.10	0	3.3880	0	34.4670	4	27.430	0	974.895	0	12.3	4	3.8	4	-1E+10	1	-1E+10	1	-1E+10	1	-1E+10	1	-1E+10	1	-1E+10	1
4901784	79	C	09/02/2017	10:43	-133.037	43.848	0	990.30	0	3.3830	0	34.4700	4	27.433	0	980.029	0	12.5	4	3.9	4	-1E+10	1	-1E+10	1	-1E+10	1	-1E+10	1	-1E+10	1	-1E+10	1
4901784	79	C	09/02/2017	10:43	-133.037	43.848	0	995.60	0	3.3760	0	34.4720	4	27.435	0	985.261	0	12.6	4	3.9	4	-1E+10	1	-1E+10	1	-1E+10	1	-1E+10	1	-1E+10	1	-1E+10	1
4901784	79	C	09/02/2017	10:43	-133.037	43.848	0	1000.70	0	3.3640	0	34.4750	4	27.439	0	990.296	0	12.8	4	4.0	4	-1E+10	1	-1E+10	1	-1E+10	1	-1E+10	1	-1E+10	1	-1E+10	1
4901784	79	C	09/02/2017	10:43	-133.037	43.848	0	1004.70	0	3.3550	0	34.4790	4	27.443	0	994.245	0	12.9	4	4.0	4	-1E+10	1	-1E+10	1	-1E+10	1	-1E+10	1	-1E+10	1	-1E+10	1
4901784	79	C	09/02/2017	10:43	-133.037	43.848	0	1010.10	0	3.3440	0	34.4810	4	27.445	0	999.576	0	13.0	4	4.1	4	-1E+10	1	-1E+10	1	-1E+10	1	-1E+10	1	-1E+10	1	-1E+10	1
4901784	79	C	09/02/2017	10:43	-133.037	43.848	0	1015.60	0	3.3380	0	34.4820	4	27.447	0	1005.005	0	13.1	4	4.1	4	-1E+10	1	-1E+10	1	-1E+10	1	-1E+10	1	-1E+10	1	-1E+10	1
4901784	79	C	09/02/2017	10:43	-133.037	43.848	0	1020.40	0	3.3290	0	34.4850	4	27.450	0	1009.744	0	13.3	4	4.1	4	-1E+10	1	-1E+10	1	-1E+10	1	-1E+10	1	-1E+10	1	-1E+10	1
4901784	79	C	09/02/2017	10:43	-133.037	43.848	0	1025.20	0	3.3170	0	34.4880	4	27.454	0	1014.482	0	13.5	4	4.2	4	-1E+10	1	-1E+10	1	-1E+10	1	-1E+10	1	-1E+10	1	-1E+10	1
4901784	79	C	09/02/2017	10:43	-133.037	43.848	0	1030.10	0	3.3070	0	34.4910	4	27.457	0	1019.319	0	13.7	4	4.3	4	-1E+10	1	-1E+10	1	-1E+10	1	-1E+10	1	-1E+10	1	-1E+10	1
4901784	79	C	09/02/2017	10:43	-133.037	43.848	0	1035.00	0	3.3020	0	34.4930	4	27.459	0	1024.156	0	13.9	4	4.3	4	-1E+10	1	-1E+10	1	-1E+10	1	-1E+10	1	-1E+10	1	-1E+10	1
4901784	79	C	09/02/2017	10:43	-133.037	43.848	0	1040.10	0	3.2970	0	34.4940	4	27.460	0	1029.190	0	14.1	4	4.4	4	-1E+10	1	-1E+10	1	-1E+10	1	-1E+10	1	-1E+10	1	-1E+10	1
4901784	79	C	09/02/2017	10:43	-133.037	43.848	0	1045.10	0	3.2970	0	34.4980	4	27.464	0	1034.125	0	14.4	4	4.5	4	-1E+10	1	-1E+10	1	-1E+10	1	-1E+10	1	-1E+10	1	-1E+10	1
4901784	79	C	09/02/2017	10:43	-133.037	43.848	0	1050.20	0	3.2910	0	34.5000	4	27.466	0	1039.159	0	14.6	4	4.5	4	-1E+10	1	-1E+10	1	-1E+10	1	-1E+10	1	-1E+10	1	-1E+10	1
4901784	79	C	09/02/2017	10:43	-133.037	43.848	0	1055.40	0	3.2850	0	34.5020	4	27.468	0	1044.291	0	14.7	4	4.6	4	-1E+10	1	-1E+10	1	-1E+10	1	-1E+10	1	-1E+10	1	-1E+10	1
4901784	79	C	09/02/2017	10:43	-133.037	43.848	0	1060.60	0	3.2810	0	34.5030	4	27.469	0	1049.423	0	14.9	4	4.6	4	-1E+10	1	-1E+10	1	-1E+10	1	-1E+10	1	-1E+10	1	-1E+10	1
4901784	79	C	09/02/2017	10:43	-133.037	43.848	0	1064.90	0	3.2760	0	34.5060	4	27.472	0	1053.667	0	15.1	4	4.7	4	-1E+10	1	-1E+10	1	-1E+10	1	-1E+10	1	-1E+10	1	-1E+10	1
4901784	79	C	09/02/2017	10:43	-133.037	43.848	0	1069.40	0	3.2700	0	34.5070	4	27.474	0	1058.109	0	15.2	4	4.7	4	-1E+10	1	-1E+10	1	-1E+10	1	-1E+10	1	-1E+10	1	-1E+10	1
4901784	79	C	09/02/2017	10:43	-133.037	43.848	0	1074.70	0	3.2610	0	34.5090	4	27.476	0	1063.339	0	15.4	4	4.8	4	-1E+10	1	-1E+10	1	-1E+10	1	-1E+10	1	-1E+10	1	-1E+10	1
4901784	79	C	09/02/2017	10:43	-133.037	43.848	0	1080.20	0	3.2520	0	34.5100	4	27.478	0	1068.767	0	15.4	4	4.8	4	-1E+10	1	-1E+10	1	-1E+10	1	-1E+10	1	-1E+10	1	-1E+10	1
4901784	79	C	09/02/2017	10:43	-133.037	43.848	0	1085.60	0	3.2450	0	34.5120	4	27.480	0	1074.096	0	15.4	4	4.8	4	-1E+10	1	-1E+10	1	-1E+10	1	-1E+10	1	-1E+10	1	-1E+10	1
4901784	79	C	09/02/2017	10:43	-133.037	43.848	0	1090.20	0	3.2370	0	34.5110	4	27.480	0	1078.635	0	15.4	4	4.8	4	-1E+10	1	-1E+10	1	-1E+10	1	-1E+10	1	-1E+10	1	-1E+10	1
4901784	79	C	09/02/2017	10:43	-133.037	43.848	0	1094.40	0	3.2300	0	34.5120	4	27.481	0	1082.780	0	15.4	4	4.8	4	-1E+10	1	-1E+10	1	-1E+10	1	-1E+10	1	-1E+10	1	-1E+10	1
4901784	79	C	09/02/2017	10:43	-133.037	43.848	0	1099.50	0	3.2240	0	34.5130	4	27.483	0	1087.813	0	15.5	4	4.8	4	-1E+10	1	-1E+10	1	-1E+10	1	-1E+10	1	-1E+10	1	-1E+10	1
4901784	79	C	09/02/2017	10:43	-133.037	43.848	0	1104.80	0	3.2180	0	34.5140	4	27.484	0	1093.043	0	15.6	4	4.8	4	-1E+10	1	-1E+10	1	-1E+10	1	-1E+10	1	-1E+10	1	-1E+10	1
4901784	79	C	09/02/2017	10:43	-133.037	43.848	0	1110.50	0	3.2080	0	34.5150	4	27.486	0	1098.667	0	15.6	4	4.9	4	-1E+10	1	-1E+10	1	-1E+10	1	-1E+10	1	-1E+10	1	-1E+10	1
4901784	79	C	09/02/2017	10:43	-133.037	43.848	0	1115.60	0	3.1970	0	34.5160	4	27.488	0	1103.699	0	15.7	4	4.9	4	-1E+10	1	-1E+10	1	-1E+10	1	-1E+10	1	-1E+10	1	-1E+10	1
4901784	79	C	09/02/2017	10:43	-133.037	43.848	0	1120.70	0	3.1870	0	34.5170	4	27.490	0	1108.731	0	15.7	4	4.9	4	-1E+10	1	-1E+10	1	-1E+10	1	-1E+10	1	-1E+10	1	-1E+10	1
4901784	79	C	09/02/2017	10:43	-133.037	43.848	0	1125.00	0	3.1770	0	34.5200	4	27.493	0	1112.974	0	15.8	4	4.9	4	-1E+10	1	-1E+10	1	-1E+10	1	-1E+10	1	-1E+10	1	-1E+10	1
4901784	79	C	09/02/2017	10:43	-133.037	43.848	0	1129.30	0	3.1760	0	34.5190	4	27.492	0	1117.217	0	15.8	4	4.9	4	-1E+10	1	-1E+10	1	-1E+10	1	-1E+10	1	-1E+10	1	-1E+10	1
4901784	79	C	09/02/2017	10:43	-133.037	43.848	0	1134.60	0	3.1670	0	34.5190	4	27.493	0	1122.446	0	15.8	4	4.9	4	-1E+10	1	-1E+10	1	-1E+10	1	-1E+10	1	-1E+10	1	-1E+10	1
4901784	79	C	09/02/2017	10:43	-133.037	43.848	0	1139.80	0	3.1600	0	34.5200	4	27.495	0	1127.576	0	16.0	4	5.0	4	-1E+10	1	-1E+10	1	-1E+10	1	-1E+10	1	-1E+10	1	-1E+10	1
4901784	79	C	09/02/2017	10:43	-133.037	43.848	0	1145.10	0	3.1500	0	34.5220	4	27.497	0	1132.805	0	16.2	4	5.0	4	-1E+10	1	-1E+10	1	-1E+10	1	-1E+10	1	-1E+10	1	-1E+10	1
4901784	79	C	09/02/2017	10:43	-133.037	43.848	0	1150.40	0	3.1330	0	34.5240	4	27.500	0	1138.034	0	16.3	4	5.1	4	-1E+10	1	-1E+10	1	-1E+10	1	-1E+10	1	-1E+10	1	-1E+10	1
4901784	79	C	09/02/2017	10:43	-133.037	43.848	0	1155.70	0	3.1240	0	34.5250	4	27.502	0	1143.262	0	16.4	4	5.1	4	-1E+10	1	-1E+10	1	-1E+10	1	-1E+10	1	-1E+10	1	-1E+10	1
4901784	79	C	09/02/2017	10:43	-133.037	43.848	0	1160.10	0	3.1140	0	34.5280	4	27.505	0	1147.603	0	16.6	4	5.1	4	-1E+10	1	-1E+10	1	-1E+10	1	-1E+10	1	-1E+10	1	-1E+10	1
4901784	79	C	09/02/2017	10:43	-133.037	43.848	0	1164.60	0	3.1060	0	34.5280	4	27.506	0	1152.042	0	16.7	4	5.2	4	-1E+10	1	-1E+10	1	-1E+10	1	-1E+10	1	-1E+10	1	-1E+10	1
4901784	79	C	09/02/2017	10:43	-133.037	43.848	0	1169.90	0	3.0970	0	34.5300	4	27.509	0	1157.271	0	16.8	4	5.2	4	-1E+10	1	-1E+10	1	-1E+10	1	-1E+10	1	-1E+10	1	-1E+10	1
4901784	79	C	09/02/2017	10:43	-133.037	43.848	0	1175.20	0	3.0870	0	34.5300	4	27.510	0	1162.499	0	17.0	4	5.3	4	-1E+10	1	-1E+10	1	-1E+10	1	-1E+10	1	-1E+10	1	-1E+10	1
4901784	79	C	09/02/2017	10:43	-133.037	43.848	0	1180.60	0	3.0730	0	34.5330	4	27.513	0	1167.825	0	17.1	4	5.3	4	-1E+10	1	-1E+10	1	-1E+10	1	-1E+10	1	-1E+10	1	-1E+10	1
4901784	79	C	09/02/2017	10:43	-133.037	43.848	0	1185.00	0	3.0680	0	34.5340	4	27.515	0	1172.166	0	17.2	4	5.3	4	-1E+10	1	-1E+10	1	-1E+10	1	-1E+10	1	-1E+10	1	-1E+10	1
4901784	79	C	09/02/2017	10:43	-133.037	43.848	0	1189.40	0	3.0600	0	34.5350	4	27.516	0	1176.506	0	17.2	4	5.3	4	-1E+10	1	-1E+10	1	-1E+10	1	-1E+10	1	-1E+10	1	-1E+10	1
4901784	79	C	09/02/2017	10:43	-133.037	43.848	0	1194.80	0	3.0540	0	34.5350	4	27.517	0	1181.832	0	17.4	4	5.4	4	-1E+10	1	-1E+10	1	-1E+10	1	-1E+10	1	-1E+10	1	-1E+10	1
4901784	79	C	09/02/2017	10:43	-133.037	43.848	0	1200.20	0	3.0390	0	34.5370	4	27.520	0	1187.158	0	17.5	4	5.4	4	-1E+10	1	-1E+10	1	-1E+10	1	-1E+10	1	-1E+10	1	-1E+10	1
4901784	79	C	09/02/2017	10:43	-133.037	43.848	0	1205.50	0	3.0270	0	34.5390	4	27.522	0	1192.385	0	17.7	4	5.5	4	-1E+10	1	-1E+10	1	-1E+10	1	-1E+10	1	-1E+10	1	-1E+10	1
4901784	79	C	09/02/2017	10:43	-133.037	43.848	0	1210.00	0	3.0190	0	34.5400	4	27.524	0	1196.824	0	17.8	4	5.5	4	-1E+10	1	-1E+10	1	-1E+10	1	-1E+10	1	-1E+10	1	-1E+10	1
4901784	79	C	09/02/2017	10:43	-133.037	43.848	0	1214.40	0	3.0180	0	34.5400	4	27.524	0	1201.163	0	17.8	4	5.5	4	-1E+10	1	-1E+10	1	-1E+10	1	-1E+10	1	-1E+10	1	-1E+10	1
4901784	79	C	09/02/2017	10:43	-133.037	43.848	0	1219.80	0	3.0160	0	34.5400	4	27.524	0	1206.489	0	17.9	4	5.5	4	-1E+10	1	-1E+10	1	-1E+10	1	-1E+10	1	-1E+10	1	-1E+10	1
4901784	79	C	09/02/2017	10:43	-133.037	43.848	0	1225.20	0	3.0030	0	34.5420	4	27.527	0	1211.814	0	18.1	4	5.6	4	-1E+10	1	-1E+10	1	-1E+10	1	-1E+10	1	-1E+10	1	-1E+10	1
4901784	79	C	09/02/2017	10:43	-133.037	43.848	0	1230.20	0	2.9930	0	34.5430	4	27.529	0	1216.745	0	18.3	4	5.6	4	-1E+10	1	-1E+10	1	-1E+10	1	-1E+10	1	-1E+10	1	-1E+10	1
4901784	79	C	09/02/2017	10:43	-133.037	43.848	0	1235.10	0	2.9870	0	34.5450	4	27.531	0	1221.577	0	18.4	4	5.7	4	-1E+10	1	-1E+10	1	-1E+10	1	-1E+10	1	-1E+10	1	-1E+10	1
4901784	79	C	09/02/2017	10:43	-133.037	43.848	0	1240.00	0	2.9820	0	34.5460	4	27.532	0	1226.410	0	18.6	4	5.7	4	-1E+10	1	-1E+10	1	-1E+10	1	-1E+10	1	-1E+10	1	-1E+10	1
4901784	79	C	09/02/2017	10:43	-133.037	43.848	0	1245.00	0	2.9790	0	34.5470	4	27.533	0	1231.340	0	18.9	4	5.8	4	-1E+10	1	-1E+10	1	-1E+10	1	-1E+10	1	-1E+10	1	-1E+10	1
4901784	79	C	09/02/2017	10:43	-133.037	43.848	0	1249.90	0	2.9690	0	34.5480	4	27.535	0	1236.172	0	19.0	4	5.9	4	-1E+10	1	-1E+10	1	-1E+10	1	-1E+10	1	-1E+10	1	-1E+10	1
4901784	79	C	09/02/2017	10:43	-133.037	43.848	0	1254.80	0	2.9580	0	34.5500	4	27.538	0	1241.004	0	19.2	4	5.9	4	-1E+10	1	-1E+10	1	-1E+10	1	-1E+10	1	-1E+10	1	-1E+10	1
4901784	79	C	09/02/2017	10:43	-133.037	43.848	0	1259.80	0	2.9530	0	34.5510	4	27.539	0	1245.934	0	19.4	4	6.0	4	-1E+10	1	-1E+10	1	-1E+10	1	-1E+10	1	-1E+10	1	-1E+10	1
4901784	79	C	09/02/2017	10:43	-133.037	43.848	0	1264.90	0	2.9430	0	34.5530	4	27.541	0	1250.963	0	19.6	4	6.0	4	-1E+10	1	-1E+10	1	-1E+10	1	-1E+10	1	-1E+10	1	-1E+10	1
4901784	79	C	09/02/2017	10:43	-133.037	43.848	0	1270.00	0	2.9330	0	34.5540	4	27.543	0	1255.991	0	19.8	4	6.1	4	-1E+10	1	-1E+10	1	-1E+10	1	-1E+10	1	-1E+10	1	-1E+10	1
4901784	79	C	09/02/2017	10:43	-133.037	43.848	0	1275.10	0	2.9250	0	34.5560	4	27.546	0	1261.020	0	20.0	4	6.2	4	-1E+10	1	-1E+10	1	-1E+10	1	-1E+10	1	-1E+10	1	-1E+10	1
4901784	79	C	09/02/2017	10:43	-133.037	43.848	0	1280.30	0	2.9230	0	34.5560	4	27.546	0	1266.147	0	20.1	4	6.2	4	-1E+10	1	-1E+10	1	-1E+10	1	-1E+10	1	-1E+10	1	-1E+10	1
4901784	79	C	09/02/2017	10:43	-133.037	43.848	0	1285.40	0	2.9140	0	34.5580	4	27.548	0	1271.175	0	20.3	4	6.3	4	-1E+10	1	-1E+10	1	-1E+10	1	-1E+10	1	-1E+10	1	-1E+10	1
4901784	79	C	09/02/2017	10:43	-133.037	43.848	0	1290.60	0	2.9060	0	34.5590	4	27.550	0	1276.302	0	20.5	4	6.3	4	-1E+10	1	-1E+10	1	-1E+10	1	-1E+10	1	-1E+10	1	-1E+10	1
4901784	79	C	09/02/2017	10:43	-133.037	43.848	0	1295.70	0	2.8990	0	34.5600	4	27.551	0	1281.330	0	20.6	4	6.4	4	-1E+10	1	-1E+10	1	-1E+10	1	-1E+10	1	-1E+10	1	-1E+10	1
4901784	79	C	09/02/2017	10:43	-133.037	43.848	0	1300.00	0	2.8950	0	34.5600	4	27.552	0	1285.569	0	20.8	4	6.4	4	-1E+10	1	-1E+10	1	-1E+10	1	-1E+10	1	-1E+10	1	-1E+10	1
4901784	79	C	09/02/2017	10:43	-133.037	43.848	0	1304.30	0	2.8920	0	34.5610	4	27.553	0	1289.808	0	21.0	4	6.5	4	-1E+10	1	-1E+10	1	-1E+10	1	-1E+10	1	-1E+10	1	-1E+10	1
4901784	79	C	09/02/2017	10:43	-133.037	43.848	0	1309.60	0	2.8860	0	34.5630	4	27.555	0	1295.033	0	21.3	4	6.6	4	-1E+10	1	-1E+10	1	-1E+10	1	-1E+10	1	-1E+10	1	-1E+10	1
4901784	79	C	09/02/2017	10:43	-133.037	43.848	0	1314.90	0	2.8780	0	34.5640	4	27.556	0	1300.257	0	21.5	4	6.6	4	-1E+10	1	-1E+10	1	-1E+10	1	-1E+10	1	-1E+10	1	-1E+10	1
4901784	79	C	09/02/2017	10:43	-133.037	43.848	0	1320.30	0	2.8700	0	34.5660	4	27.559	0	1305.581	0	21.7	4	6.7	4	-1E+10	1	-1E+10	1	-1E+10	1	-1E+10	1	-1E+10	1	-1E+10	1
4901784	79	C	09/02/2017	10:43	-133.037	43.848	0	1325.70	0	2.8640	0	34.5660	4	27.559	0	1310.904	0	21.8	4	6.7	4	-1E+10	1	-1E+10	1	-1E+10	1	-1E+10	1	-1E+10	1	-1E+10	1
4901784	79	C	09/02/2017	10:43	-133.037	43.848	0	1330.20	0	2.8520	0	34.5680	4	27.562	0	1315.339	0	21.8	4	6.7	4	-1E+10	1	-1E+10	1	-1E+10	1	-1E+10	1	-1E+10	1	-1E+10	1
4901784	79	C	09/02/2017	10:43	-133.037	43.848	0	1334.60	0	2.8490	0	34.5670	4	27.561	0	1319.676	0	22.0	4	6.8	4	-1E+10	1	-1E+10	1	-1E+10	1	-1E+10	1	-1E+10	1	-1E+10	1
4901784	79	C	09/02/2017	10:43	-133.037	43.848	0	1340.00	0	2.8430	0	34.5670	4	27.562	0	1324.999	0	22.2	4	6.8	4	-1E+10	1	-1E+10	1	-1E+10	1	-1E+10	1	-1E+10	1	-1E+10	1
4901784	79	C	09/02/2017	10:43	-133.037	43.848	0	1345.40	0	2.8310	0	34.5700	4	27.565	0	1330.322	0	22.4	4	6.9	4	-1E+10	1	-1E+10	1	-1E+10	1	-1E+10	1	-1E+10	1	-1E+10	1
4901784	79	C	09/02/2017	10:43	-133.037	43.848	0	1349.90	0	2.8220	0	34.5720	4	27.568	0	1334.757	0	22.6	4	6.9	4	-1E+10	1	-1E+10	1	-1E+10	1	-1E+10	1	-1E+10	1	-1E+10	1
4901784	79	C	09/02/2017	10:43	-133.037	43.848	0	1354.50	0	2.8180	0	34.5720	4	27.568	0	1339.291	0	22.7	4	7.0	4	-1E+10	1	-1E+10	1	-1E+10	1	-1E+10	1	-1E+10	1	-1E+10	1
4901784	79	C	09/02/2017	10:43	-133.037	43.848	0	1359.90	0	2.8130	0	34.5720	4	27.569	0	1344.613	0	22.9	4	7.1	4	-1E+10	1	-1E+10	1	-1E+10	1	-1E+10	1	-1E+10	1	-1E+10	1
4901784	79	C	09/02/2017	10:43	-133.037	43.848	0	1365.30	0	2.8040	0	34.5720	4	27.570	0	1349.935	0	23.2	4	7.1	4	-1E+10	1	-1E+10	1	-1E+10	1	-1E+10	1	-1E+10	1	-1E+10	1
4901784	79	C	09/02/2017	10:43	-133.037	43.848	0	1369.90	0	2.7960	0	34.5750	4	27.573	0	1354.468	0	23.4	4	7.2	4	-1E+10	1	-1E+10	1	-1E+10	1	-1E+10	1	-1E+10	1	-1E+10	1
4901784	79	C	09/02/2017	10:43	-133.037	43.848	0	1374.50	0	2.7890	0	34.5760	4	27.574	0	1359.002	0	23.7	4	7.3	4	-1E+10	1	-1E+10	1	-1E+10	1	-1E+10	1	-1E+10	1	-1E+10	1
4901784	79	C	09/02/2017	10:43	-133.037	43.848	0	1380.00	0	2.7770	0	34.5770	4	27.576	0	1364.422	0	23.8	4	7.3	4	-1E+10	1	-1E+10	1	-1E+10	1	-1E+10	1	-1E+10	1	-1E+10	1
4901784	79	C	09/02/2017	10:43	-133.037	43.848	0	1385.50	0	2.7700	0	34.5780	4	27.577	0	1369.842	0	23.9	4	7.4	4	-1E+10	1	-1E+10	1	-1E+10	1	-1E+10	1	-1E+10	1	-1E+10	1
4901784	79	C	09/02/2017	10:43	-133.037	43.848	0	1390.10	0	2.7600	0	34.5790	4	27.579	0	1374.375	0	24.0	4	7.4	4	-1E+10	1	-1E+10	1	-1E+10	1	-1E+10	1	-1E+10	1	-1E+10	1
4901784	79	C	09/02/2017	10:43	-133.037	43.848	0	1394.60	0	2.7580	0	34.5790	4	27.579	0	1378.809	0	24.1	4	7.4	4	-1E+10	1	-1E+10	1	-1E+10	1	-1E+10	1	-1E+10	1	-1E+10	1
4901784	79	C	09/02/2017	10:43	-133.037	43.848	0	1400.10	0	2.7520	0	34.5790	4	27.580	0	1384.229	0	24.2	4	7.4	4	-1E+10	1	-1E+10	1	-1E+10	1	-1E+10	1	-1E+10	1	-1E+10	1
4901784	79	C	09/02/2017	10:43	-133.037	43.848	0	1405.60	0	2.7470	0	34.5790	4	27.580	0	1389.649	0	24.3	4	7.5	4	-1E+10	1	-1E+10	1	-1E+10	1	-1E+10	1	-1E+10	1	-1E+10	1
4901784	79	C	09/02/2017	10:43	-133.037	43.848	0	1410.10	0	2.7400	0	34.5790	4	27.581	0	1394.083	0	24.4	4	7.5	4	-1E+10	1	-1E+10	1	-1E+10	1	-1E+10	1	-1E+10	1	-1E+10	1
4901784	79	C	09/02/2017	10:43	-133.037	43.848	0	1414.60	0	2.7260	0	34.5800	4	27.583	0	1398.517	0	24.5	4	7.5	4	-1E+10	1	-1E+10	1	-1E+10	1	-1E+10	1	-1E+10	1	-1E+10	1
4901784	79	C	09/02/2017	10:43	-133.037	43.848	0	1420.10	0	2.7110	0	34.5800	4	27.584	0	1403.936	0	24.7	4	7.6	4	-1E+10	1	-1E+10	1	-1E+10	1	-1E+10	1	-1E+10	1	-1E+10	1
4901784	79	C	09/02/2017	10:43	-133.037	43.848	0	1425.60	0	2.6990	0	34.5820	4	27.587	0	1409.355	0	24.9	4	7.6	4	-1E+10	1	-1E+10	1	-1E+10	1	-1E+10	1	-1E+10	1	-1E+10	1
4901784	79	C	09/02/2017	10:43	-133.037	43.848	0	1430.10	0	2.6900	0	34.5830	4	27.589	0	1413.789	0	25.0	4	7.7	4	-1E+10	1	-1E+10	1	-1E+10	1	-1E+10	1	-1E+10	1	-1E+10	1
4901784	79	C	09/02/2017	10:43	-133.037	43.848	0	1434.70	0	2.6840	0	34.5830	4	27.589	0	1418.321	0	25.1	4	7.7	4	-1E+10	1	-1E+10	1	-1E+10	1	-1E+10	1	-1E+10	1	-1E+10	1
4901784	79	C	09/02/2017	10:43	-133.037	43.848	0	1440.30	0	2.6770	0	34.5840	4	27.591	0	1423.838	0	25.2	4	7.7	4	-1E+10	1	-1E+10	1	-1E+10	1	-1E+10	1	-1E+10	1	-1E+10	1
4901784	79	C	09/02/2017	10:43	-133.037	43.848	0	1444.90	0	2.6690	0	34.5830	4	27.591	0	1428.370	0	25.3	4	7.8	4	-1E+10	1	-1E+10	1	-1E+10	1	-1E+10	1	-1E+10	1	-1E+10	1
4901784	79	C	09/02/2017	10:43	-133.037	43.848	0	1450.20	0	2.6430	0	34.5850	4	27.594	0	1433.591	0	25.4	4	7.8	4	-1E+10	1	-1E+10	1	-1E+10	1	-1E+10	1	-1E+10	1	-1E+10	1
4901784	79	C	09/02/2017	10:43	-133.037	43.848	0	1455.40	0	2.6350	0	34.5860	4	27.596	0	1438.714	0	25.5	4	7.8	4	-1E+10	1	-1E+10	1	-1E+10	1	-1E+10	1	-1E+10	1	-1E+10	1
4901784	79	C	09/02/2017	10:43	-133.037	43.848	0	1460.20	0	2.6320	0	34.5860	4	27.596	0	1443.442	0	25.5	4	7.8	4	-1E+10	1	-1E+10	1	-1E+10	1	-1E+10	1	-1E+10	1	-1E+10	1
4901784	79	C	09/02/2017	10:43	-133.037	43.848	0	1465.10	0	2.6270	0	34.5860	4	27.597	0	1448.269	0	25.6	4	7.8	4	-1E+10	1	-1E+10	1	-1E+10	1	-1E+10	1	-1E+10	1	-1E+10	1
4901784	79	C	09/02/2017	10:43	-133.037	43.848	0	1470.00	0	2.6200	0	34.5860	4	27.597	0	1453.096	0	25.8	4	7.9	4	-1E+10	1	-1E+10	1	-1E+10	1	-1E+10	1	-1E+10	1	-1E+10	1
4901784	79	C	09/02/2017	10:43	-133.037	43.848	0	1475.00	0	2.6060	0	34.5880	4	27.600	0	1458.022	0	26.0	4	8.0	4	-1E+10	1	-1E+10	1	-1E+10	1	-1E+10	1	-1E+10	1	-1E+10	1
4901784	79	C	09/02/2017	10:43	-133.037	43.848	0	1480.00	0	2.5980	0	34.5880	4	27.601	0	1462.947	0	26.2	4	8.0	4	-1E+10	1	-1E+10	1	-1E+10	1	-1E+10	1	-1E+10	1	-1E+10	1
4901784	79	C	09/02/2017	10:43	-133.037	43.848	0	1485.00	0	2.5800	0	34.5890	4	27.603	0	1467.872	0	26.4	4	8.1	4	-1E+10	1	-1E+10	1	-1E+10	1	-1E+10	1	-1E+10	1	-1E+10	1
4901784	79	C	09/02/2017	10:43	-133.037	43.848	0	1490.10	0	2.5680	0	34.5900	4	27.605	0	1472.895	0	26.5	4	8.1	4	-1E+10	1	-1E+10	1	-1E+10	1	-1E+10	1	-1E+10	1	-1E+10	1
4901784	79	C	09/02/2017	10:43	-133.037	43.848	0	1495.20	0	2.5610	0	34.5910	4	27.606	0	1477.918	0	26.7	4	8.2	4	-1E+10	1	-1E+10	1	-1E+10	1	-1E+10	1	-1E+10	1	-1E+10	1
4901784	79	C	09/02/2017	10:43	-133.037	43.848	0	1500.30	0	2.5530	0	34.5910	4	27.607	0	1482.942	0	27.0	4	8.2	4	-1E+10	1	-1E+10	1	-1E+10	1	-1E+10	1	-1E+10	1	-1E+10	1
4901784	79	C	09/02/2017	10:43	-133.037	43.848	0	1505.40	0	2.5460	0	34.5920	4	27.609	0	1487.965	0	27.2	4	8.3	4	-1E+10	1	-1E+10	1	-1E+10	1	-1E+10	1	-1E+10	1	-1E+10	1
4901784	79	C	09/02/2017	10:43	-133.037	43.848	0	1510.50	0	2.5350	0	34.5930	4	27.610	0	1492.988	0	27.6	4	8.4	4	-1E+10	1	-1E+10	1	-1E+10	1	-1E+10	1	-1E+10	1	-1E+10	1
4901784	79	C	09/02/2017	10:43	-133.037	43.848	0	1515.70	0	2.5240	0	34.5940	4	27.612	0	1498.109	0	27.9	4	8.5	4	-1E+10	1	-1E+10	1	-1E+10	1	-1E+10	1	-1E+10	1	-1E+10	1
4901784	79	C	09/02/2017	10:43	-133.037	43.848	0	1520.10	0	2.5110	0	34.5960	4	27.615	0	1502.442	0	28.2	4	8.6	4	-1E+10	1	-1E+10	1	-1E+10	1	-1E+10	1	-1E+10	1	-1E+10	1
4901784	79	C	09/02/2017	10:43	-133.037	43.848	0	1524.50	0	2.5030	0	34.5960	4	27.615	0	1506.775	0	28.5	4	8.7	4	-1E+10	1	-1E+10	1	-1E+10	1	-1E+10	1	-1E+10	1	-1E+10	1
4901784	79	C	09/02/2017	10:43	-133.037	43.848	0	1529.70	0	2.4900	0	34.5970	4	27.617	0	1511.896	0	28.9	4	8.8	4	-1E+10	1	-1E+10	1	-1E+10	1	-1E+10	1	-1E+10	1	-1E+10	1
4901784	79	C	09/02/2017	10:43	-133.037	43.848	0	1534.90	0	2.4770	0	34.5990	4	27.620	0	1517.017	0	29.3	4	8.9	4	-1E+10	1	-1E+10	1	-1E+10	1	-1E+10	1	-1E+10	1	-1E+10	1
4901784	79	C	09/02/2017	10:43	-133.037	43.848	0	1540.10	0	2.4700	0	34.5990	4	27.621	0	1522.138	0	29.5	4	9.0	4	-1E+10	1	-1E+10	1	-1E+10	1	-1E+10	1	-1E+10	1	-1E+10	1
4901784	79	C	09/02/2017	10:43	-133.037	43.848	0	1545.40	0	2.4600	0	34.6010	4	27.623	0	1527.357	0	29.8	4	9.1	4	-1E+10	1	-1E+10	1	-1E+10	1	-1E+10	1	-1E+10	1	-1E+10	1
4901784	79	C	09/02/2017	10:43	-133.037	43.848	0	1550.70	0	2.4510	0	34.6010	4	27.624	0	1532.576	0	30.1	4	9.2	4	-1E+10	1	-1E+10	1	-1E+10	1	-1E+10	1	-1E+10	1	-1E+10	1
4901784	79	C	09/02/2017	10:43	-133.037	43.848	0	1555.10	0	2.4430	0	34.6030	4	27.626	0	1536.908	0	30.3	4	9.3	4	-1E+10	1	-1E+10	1	-1E+10	1	-1E+10	1	-1E+10	1	-1E+10	1
4901784	79	C	09/02/2017	10:43	-133.037	43.848	0	1559.50	0	2.4360	0	34.6030	4	27.627	0	1541.241	0	30.7	4	9.3	4	-1E+10	1	-1E+10	1	-1E+10	1	-1E+10	1	-1E+10	1	-1E+10	1
4901784	79	C	09/02/2017	10:43	-133.037	43.848	0	1564.90	0	2.4250	0	34.6050	4	27.629	0	1546.558	0	31.0	4	9.4	4	-1E+10	1	-1E+10	1	-1E+10	1	-1E+10	1	-1E+10	1	-1E+10	1
4901784	79	C	09/02/2017	10:43	-133.037	43.848	0	1570.30	0	2.4190	0	34.6050	4	27.630	0	1551.875	0	31.2	4	9.5	4	-1E+10	1	-1E+10	1	-1E+10	1	-1E+10	1	-1E+10	1	-1E+10	1
4901784	79	C	09/02/2017	10:43	-133.037	43.848	0	1575.70	0	2.4080	0	34.6070	4	27.632	0	1557.192	0	31.5	4	9.6	4	-1E+10	1	-1E+10	1	-1E+10	1	-1E+10	1	-1E+10	1	-1E+10	1
4901784	79	C	09/02/2017	10:43	-133.037	43.848	0	1580.20	0	2.4060	0	34.6070	4	27.633	0	1561.622	0	31.7	4	9.7	4	-1E+10	1	-1E+10	1	-1E+10	1	-1E+10	1	-1E+10	1	-1E+10	1
4901784	79	C	09/02/2017	10:43	-133.037	43.848	0	1585.30	0	2.4000	0	34.6060	4	27.632	0	1566.644	0	32.0	4	9.7	4	-1E+10	1	-1E+10	1	-1E+10	1	-1E+10	1	-1E+10	1	-1E+10	1
4901784	79	C	09/02/2017	10:43	-133.037	43.848	0	1590.30	0	2.3910	0	34.6080	4	27.635	0	1571.566	0	32.4	4	9.9	4	-1E+10	1	-1E+10	1	-1E+10	1	-1E+10	1	-1E+10	1	-1E+10	1
4901784	79	C	09/02/2017	10:43	-133.037	43.848	0	1595.00	0	2.3800	0	34.6100	4	27.637	0	1576.193	0	32.8	4	10.0	4	-1E+10	1	-1E+10	1	-1E+10	1	-1E+10	1	-1E+10	1	-1E+10	1
4901784	79	C	09/02/2017	10:43	-133.037	43.848	0	1599.80	0	2.3690	0	34.6110	4	27.639	0	1580.919	0	33.2	4	10.1	4	-1E+10	1	-1E+10	1	-1E+10	1	-1E+10	1	-1E+10	1	-1E+10	1
4901784	79	C	09/02/2017	10:43	-133.037	43.848	0	1604.70	0	2.3550	0	34.6120	4	27.641	0	1585.743	0	33.6	4	10.2	4	-1E+10	1	-1E+10	1	-1E+10	1	-1E+10	1	-1E+10	1	-1E+10	1
4901784	79	C	09/02/2017	10:43	-133.037	43.848	0	1609.50	0	2.3450	0	34.6120	4	27.642	0	1590.468	0	34.0	4	10.4	4	-1E+10	1	-1E+10	1	-1E+10	1	-1E+10	1	-1E+10	1	-1E+10	1
4901784	79	C	09/02/2017	10:43	-133.037	43.848	0	1614.40	0	2.3360	0	34.6150	4	27.645	0	1595.291	0	34.5	4	10.5	4	-1E+10	1	-1E+10	1	-1E+10	1	-1E+10	1	-1E+10	1	-1E+10	1
4901784	79	C	09/02/2017	10:43	-133.037	43.848	0	1619.40	0	2.3290	0	34.6170	4	27.647	0	1600.213	0	34.9	4	10.6	4	-1E+10	1	-1E+10	1	-1E+10	1	-1E+10	1	-1E+10	1	-1E+10	1
4901784	79	C	09/02/2017	10:43	-133.037	43.848	0	1624.40	0	2.3200	0	34.6180	4	27.649	0	1605.135	0	35.3	4	10.7	4	-1E+10	1	-1E+10	1	-1E+10	1	-1E+10	1	-1E+10	1	-1E+10	1
4901784	79	C	09/02/2017	10:43	-133.037	43.848	0	1629.40	0	2.3140	0	34.6180	4	27.649	0	1610.057	0	35.5	4	10.8	4	-1E+10	1	-1E+10	1	-1E+10	1	-1E+10	1	-1E+10	1	-1E+10	1
4901784	79	C	09/02/2017	10:43	-133.037	43.848	0	1634.50	0	2.3080	0	34.6200	4	27.651	0	1615.077	0	35.9	4	10.9	4	-1E+10	1	-1E+10	1	-1E+10	1	-1E+10	1	-1E+10	1	-1E+10	1
4901784	79	C	09/02/2017	10:43	-133.037	43.848	0	1639.50	0	2.3010	0	34.6200	4	27.652	0	1619.998	0	36.2	4	11.0	4	-1E+10	1	-1E+10	1	-1E+10	1	-1E+10	1	-1E+10	1	-1E+10	1
4901784	79	C	09/02/2017	10:43	-133.037	43.848	0	1644.50	0	2.2950	0	34.6210	4	27.653	0	1624.920	0	36.5	4	11.1	4	-1E+10	1	-1E+10	1	-1E+10	1	-1E+10	1	-1E+10	1	-1E+10	1
4901784	79	C	09/02/2017	10:43	-133.037	43.848	0	1649.60	0	2.2880	0	34.6230	4	27.656	0	1629.939	0	36.7	4	11.2	4	-1E+10	1	-1E+10	1	-1E+10	1	-1E+10	1	-1E+10	1	-1E+10	1
4901784	79	C	09/02/2017	10:43	-133.037	43.848	0	1654.60	0	2.2840	0	34.6230	4	27.656	0	1634.861	0	36.9	4	11.2	4	-1E+10	1	-1E+10	1	-1E+10	1	-1E+10	1	-1E+10	1	-1E+10	1
4901784	79	C	09/02/2017	10:43	-133.037	43.848	0	1659.60	0	2.2810	0	34.6240	4	27.657	0	1639.782	0	37.1	4	11.3	4	-1E+10	1	-1E+10	1	-1E+10	1	-1E+10	1	-1E+10	1	-1E+10	1
4901784	79	C	09/02/2017	10:43	-133.037	43.848	0	1664.50	0	2.2780	0	34.6240	4	27.657	0	1644.604	0	37.5	4	11.4	4	-1E+10	1	-1E+10	1	-1E+10	1	-1E+10	1	-1E+10	1	-1E+10	1
4901784	79	C	09/02/2017	10:43	-133.037	43.848	0	1669.50	0	2.2680	0	34.6230	4	27.657	0	1649.525	0	37.8	4	11.5	4	-1E+10	1	-1E+10	1	-1E+10	1	-1E+10	1	-1E+10	1	-1E+10	1
4901784	79	C	09/02/2017	10:43	-133.037	43.848	0	1674.60	0	2.2610	0	34.6260	4	27.660	0	1654.544	0	38.2	4	11.6	4	-1E+10	1	-1E+10	1	-1E+10	1	-1E+10	1	-1E+10	1	-1E+10	1
4901784	79	C	09/02/2017	10:43	-133.037	43.848	0	1679.70	0	2.2520	0	34.6270	4	27.662	0	1659.563	0	38.7	4	11.7	4	-1E+10	1	-1E+10	1	-1E+10	1	-1E+10	1	-1E+10	1	-1E+10	1
4901784	79	C	09/02/2017	10:43	-133.037	43.848	0	1684.70	0	2.2440	0	34.6290	4	27.664	0	1664.483	0	39.1	4	11.9	4	-1E+10	1	-1E+10	1	-1E+10	1	-1E+10	1	-1E+10	1	-1E+10	1
4901784	79	C	09/02/2017	10:43	-133.037	43.848	0	1689.80	0	2.2320	0	34.6300	4	27.666	0	1669.502	0	39.5	4	12.0	4	-1E+10	1	-1E+10	1	-1E+10	1	-1E+10	1	-1E+10	1	-1E+10	1
4901784	79	C	09/02/2017	10:43	-133.037	43.848	0	1695.00	0	2.2260	0	34.6310	4	27.667	0	1674.619	0	39.8	4	12.1	4	-1E+10	1	-1E+10	1	-1E+10	1	-1E+10	1	-1E+10	1	-1E+10	1
4901784	79	C	09/02/2017	10:43	-133.037	43.848	0	1700.10	0	2.2210	0	34.6320	4	27.668	0	1679.638	0	40.2	4	12.2	4	-1E+10	1	-1E+10	1	-1E+10	1	-1E+10	1	-1E+10	1	-1E+10	1
4901784	79	C	09/02/2017	10:43	-133.037	43.848	0	1705.30	0	2.2150	0	34.6330	4	27.670	0	1684.754	0	40.5	4	12.3	4	-1E+10	1	-1E+10	1	-1E+10	1	-1E+10	1	-1E+10	1	-1E+10	1
4901784	79	C	09/02/2017	10:43	-133.037	43.848	0	1710.50	0	2.2110	0	34.6340	4	27.671	0	1689.871	0	40.8	4	12.4	4	-1E+10	1	-1E+10	1	-1E+10	1	-1E+10	1	-1E+10	1	-1E+10	1
4901784	79	C	09/02/2017	10:43	-133.037	43.848	0	1714.90	0	2.2030	0	34.6330	4	27.671	0	1694.200	0	41.1	4	12.5	4	-1E+10	1	-1E+10	1	-1E+10	1	-1E+10	1	-1E+10	1	-1E+10	1
4901784	79	C	09/02/2017	10:43	-133.037	43.848	0	1719.30	0	2.1960	0	34.6340	4	27.672	0	1698.530	0	41.4	4	12.5	4	-1E+10	1	-1E+10	1	-1E+10	1	-1E+10	1	-1E+10	1	-1E+10	1
4901784	79	C	09/02/2017	10:43	-133.037	43.848	0	1724.60	0	2.1890	0	34.6350	4	27.674	0	1703.744	0	41.8	4	12.7	4	-1E+10	1	-1E+10	1	-1E+10	1	-1E+10	1	-1E+10	1	-1E+10	1
4901784	79	C	09/02/2017	10:43	-133.037	43.848	0	1729.90	0	2.1800	0	34.6360	4	27.675	0	1708.959	0	42.4	4	12.8	4	-1E+10	1	-1E+10	1	-1E+10	1	-1E+10	1	-1E+10	1	-1E+10	1
4901784	79	C	09/02/2017	10:43	-133.037	43.848	0	1735.20	0	2.1730	0	34.6370	4	27.676	0	1714.173	0	42.9	4	13.0	4	-1E+10	1	-1E+10	1	-1E+10	1	-1E+10	1	-1E+10	1	-1E+10	1
4901784	79	C	09/02/2017	10:43	-133.037	43.848	0	1740.60	0	2.1630	0	34.6390	4	27.679	0	1719.486	0	43.3	4	13.1	4	-1E+10	1	-1E+10	1	-1E+10	1	-1E+10	1	-1E+10	1	-1E+10	1
4901784	79	C	09/02/2017	10:43	-133.037	43.848	0	1745.10	0	2.1590	0	34.6390	4	27.679	0	1723.913	0	43.7	4	13.2	4	-1E+10	1	-1E+10	1	-1E+10	1	-1E+10	1	-1E+10	1	-1E+10	1
4901784	79	C	09/02/2017	10:43	-133.037	43.848	0	1749.60	0	2.1510	0	34.6410	4	27.681	0	1728.340	0	44.1	4	13.3	4	-1E+10	1	-1E+10	1	-1E+10	1	-1E+10	1	-1E+10	1	-1E+10	1
4901784	79	C	09/02/2017	10:43	-133.037	43.848	0	1755.00	0	2.1460	0	34.6410	4	27.682	0	1733.653	0	44.5	4	13.5	4	-1E+10	1	-1E+10	1	-1E+10	1	-1E+10	1	-1E+10	1	-1E+10	1
4901784	79	C	09/02/2017	10:43	-133.037	43.848	0	1760.10	0	2.1360	0	34.6430	4	27.684	0	1738.670	0	44.9	4	13.6	4	-1E+10	1	-1E+10	1	-1E+10	1	-1E+10	1	-1E+10	1	-1E+10	1
4901784	79	C	09/02/2017	10:43	-133.037	43.848	0	1764.30	0	2.1320	0	34.6440	4	27.685	0	1742.801	0	45.1	4	13.7	4	-1E+10	1	-1E+10	1	-1E+10	1	-1E+10	1	-1E+10	1	-1E+10	1
4901784	79	C	09/02/2017	10:43	-133.037	43.848	0	1769.90	0	2.1270	0	34.6440	4	27.686	0	1748.310	0	45.4	4	13.8	4	-1E+10	1	-1E+10	1	-1E+10	1	-1E+10	1	-1E+10	1	-1E+10	1
4901784	79	C	09/02/2017	10:43	-133.037	43.848	0	1775.50	0	2.1220	0	34.6450	4	27.687	0	1753.819	0	45.8	4	13.9	4	-1E+10	1	-1E+10	1	-1E+10	1	-1E+10	1	-1E+10	1	-1E+10	1
4901784	79	C	09/02/2017	10:43	-133.037	43.848	0	1780.40	0	2.1180	0	34.6450	4	27.687	0	1758.639	0	46.2	4	14.0	4	-1E+10	1	-1E+10	1	-1E+10	1	-1E+10	1	-1E+10	1	-1E+10	1
4901784	79	C	09/02/2017	10:43	-133.037	43.848	0	1785.30	0	2.1110	0	34.6470	4	27.690	0	1763.458	0	46.5	4	14.1	4	-1E+10	1	-1E+10	1	-1E+10	1	-1E+10	1	-1E+10	1	-1E+10	1
4901784	79	C	09/02/2017	10:43	-133.037	43.848	0	1790.20	0	2.1060	0	34.6470	4	27.690	0	1768.278	0	46.9	4	14.2	4	-1E+10	1	-1E+10	1	-1E+10	1	-1E+10	1	-1E+10	1	-1E+10	1
4901784	79	C	09/02/2017	10:43	-133.037	43.848	0	1795.10	0	2.1010	0	34.6490	4	27.692	0	1773.097	0	47.3	4	14.3	4	-1E+10	1	-1E+10	1	-1E+10	1	-1E+10	1	-1E+10	1	-1E+10	1
4901784	79	C	09/02/2017	10:43	-133.037	43.848	0	1800.00	0	2.0930	0	34.6500	4	27.694	0	1777.917	0	47.6	4	14.4	4	-1E+10	1	-1E+10	1	-1E+10	1	-1E+10	1	-1E+10	1	-1E+10	1
4901784	79	C	09/02/2017	10:43	-133.037	43.848	0	1805.00	0	2.0880	0	34.6500	4	27.694	0	1782.835	0	47.9	4	14.5	4	-1E+10	1	-1E+10	1	-1E+10	1	-1E+10	1	-1E+10	1	-1E+10	1
4901784	79	C	09/02/2017	10:43	-133.037	43.848	0	1810.00	0	2.0850	0	34.6510	4	27.695	0	1787.752	0	48.2	4	14.6	4	-1E+10	1	-1E+10	1	-1E+10	1	-1E+10	1	-1E+10	1	-1E+10	1
4901784	79	C	09/02/2017	10:43	-133.037	43.848	0	1815.00	0	2.0810	0	34.6520	4	27.696	0	1792.670	0	48.4	4	14.6	4	-1E+10	1	-1E+10	1	-1E+10	1	-1E+10	1	-1E+10	1	-1E+10	1
4901784	79	C	09/02/2017	10:43	-133.037	43.848	0	1820.00	0	2.0790	0	34.6520	4	27.696	0	1797.587	0	48.6	4	14.7	4	-1E+10	1	-1E+10	1	-1E+10	1	-1E+10	1	-1E+10	1	-1E+10	1
4901784	79	C	09/02/2017	10:43	-133.037	43.848	0	1825.20	0	2.0770	0	34.6520	4	27.697	0	1802.701	0	49.0	4	14.8	4	-1E+10	1	-1E+10	1	-1E+10	1	-1E+10	1	-1E+10	1	-1E+10	1
4901784	79	C	09/02/2017	10:43	-133.037	43.848	0	1830.20	0	2.0680	0	34.6530	4	27.698	0	1807.618	0	49.6	4	15.0	4	-1E+10	1	-1E+10	1	-1E+10	1	-1E+10	1	-1E+10	1	-1E+10	1
4901784	79	C	09/02/2017	10:43	-133.037	43.848	0	1835.40	0	2.0600	0	34.6540	4	27.700	0	1812.732	0	50.1	4	15.1	4	-1E+10	1	-1E+10	1	-1E+10	1	-1E+10	1	-1E+10	1	-1E+10	1
4901784	79	C	09/02/2017	10:43	-133.037	43.848	0	1840.50	0	2.0570	0	34.6560	4	27.701	0	1817.747	0	50.5	4	15.3	4	-1E+10	1	-1E+10	1	-1E+10	1	-1E+10	1	-1E+10	1	-1E+10	1
4901784	79	C	09/02/2017	10:43	-133.037	43.848	0	1845.60	0	2.0520	0	34.6560	4	27.702	0	1822.762	0	50.9	4	15.4	4	-1E+10	1	-1E+10	1	-1E+10	1	-1E+10	1	-1E+10	1	-1E+10	1
4901784	79	C	09/02/2017	10:43	-133.037	43.848	0	1850.80	0	2.0450	0	34.6580	4	27.704	0	1827.875	0	51.3	4	15.5	4	-1E+10	1	-1E+10	1	-1E+10	1	-1E+10	1	-1E+10	1	-1E+10	1
4901784	79	C	09/02/2017	10:43	-133.037	43.848	0	1855.10	0	2.0420	0	34.6580	4	27.704	0	1832.104	0	51.5	4	15.5	4	-1E+10	1	-1E+10	1	-1E+10	1	-1E+10	1	-1E+10	1	-1E+10	1
4901784	79	C	09/02/2017	10:43	-133.037	43.848	0	1859.40	0	2.0390	0	34.6590	4	27.705	0	1836.332	0	51.7	4	15.6	4	-1E+10	1	-1E+10	1	-1E+10	1	-1E+10	1	-1E+10	1	-1E+10	1
4901784	79	C	09/02/2017	10:43	-133.037	43.848	0	1864.60	0	2.0320	0	34.6590	4	27.706	0	1841.445	0	52.0	4	15.7	4	-1E+10	1	-1E+10	1	-1E+10	1	-1E+10	1	-1E+10	1	-1E+10	1
4901784	79	C	09/02/2017	10:43	-133.037	43.848	0	1869.90	0	2.0260	0	34.6610	4	27.708	0	1846.656	0	52.3	4	15.8	4	-1E+10	1	-1E+10	1	-1E+10	1	-1E+10	1	-1E+10	1	-1E+10	1
4901784	79	C	09/02/2017	10:43	-133.037	43.848	0	1875.20	0	2.0240	0	34.6610	4	27.708	0	1851.867	0	52.5	4	15.9	4	-1E+10	1	-1E+10	1	-1E+10	1	-1E+10	1	-1E+10	1	-1E+10	1
4901784	79	C	09/02/2017	10:43	-133.037	43.848	0	1880.60	0	2.0200	0	34.6620	4	27.709	0	1857.176	0	52.7	4	15.9	4	-1E+10	1	-1E+10	1	-1E+10	1	-1E+10	1	-1E+10	1	-1E+10	1
4901784	79	C	09/02/2017	10:43	-133.037	43.848	0	1885.10	0	2.0190	0	34.6610	4	27.709	0	1861.600	0	52.9	4	16.0	4	-1E+10	1	-1E+10	1	-1E+10	1	-1E+10	1	-1E+10	1	-1E+10	1
4901784	79	C	09/02/2017	10:43	-133.037	43.848	0	1889.60	0	2.0170	0	34.6620	4	27.710	0	1866.025	0	53.2	4	16.1	4	-1E+10	1	-1E+10	1	-1E+10	1	-1E+10	1	-1E+10	1	-1E+10	1
4901784	79	C	09/02/2017	10:43	-133.037	43.848	0	1895.10	0	2.0130	0	34.6620	4	27.710	0	1871.432	0	53.6	4	16.2	4	-1E+10	1	-1E+10	1	-1E+10	1	-1E+10	1	-1E+10	1	-1E+10	1
4901784	79	C	09/02/2017	10:43	-133.037	43.848	0	1900.50	0	2.0100	0	34.6640	4	27.712	0	1876.741	0	54.0	4	16.3	4	-1E+10	1	-1E+10	1	-1E+10	1	-1E+10	1	-1E+10	1	-1E+10	1
4901784	79	C	09/02/2017	10:43	-133.037	43.848	0	1905.10	0	2.0080	0	34.6640	4	27.712	0	1881.263	0	54.3	4	16.4	4	-1E+10	1	-1E+10	1	-1E+10	1	-1E+10	1	-1E+10	1	-1E+10	1
4901784	79	C	09/02/2017	10:43	-133.037	43.848	0	1909.80	0	2.0030	0	34.6650	4	27.713	0	1885.883	0	54.7	4	16.5	4	-1E+10	1	-1E+10	1	-1E+10	1	-1E+10	1	-1E+10	1	-1E+10	1
4901784	79	C	09/02/2017	10:43	-133.037	43.848	0	1914.90	0	1.9980	0	34.6650	4	27.714	0	1890.897	0	55.1	4	16.6	4	-1E+10	1	-1E+10	1	-1E+10	1	-1E+10	1	-1E+10	1	-1E+10	1
4901784	79	C	09/02/2017	10:43	-133.037	43.848	0	1920.00	0	1.9930	0	34.6660	4	27.715	0	1895.910	0	55.4	4	16.7	4	-1E+10	1	-1E+10	1	-1E+10	1	-1E+10	1	-1E+10	1	-1E+10	1
4901784	79	C	09/02/2017	10:43	-133.037	43.848	0	1925.70	0	1.9880	0	34.6670	4	27.716	0	1901.513	0	55.8	4	16.8	4	-1E+10	1	-1E+10	1	-1E+10	1	-1E+10	1	-1E+10	1	-1E+10	1
4901784	79	C	09/02/2017	10:43	-133.037	43.848	0	1930.70	0	1.9850	0	34.6680	4	27.717	0	1906.428	0	56.0	4	16.9	4	-1E+10	1	-1E+10	1	-1E+10	1	-1E+10	1	-1E+10	1	-1E+10	1
4901784	79	C	09/02/2017	10:43	-133.037	43.848	0	1935.70	0	1.9820	0	34.6680	4	27.717	0	1911.343	0	56.3	4	17.0	4	-1E+10	1	-1E+10	1	-1E+10	1	-1E+10	1	-1E+10	1	-1E+10	1
4901784	79	C	09/02/2017	10:43	-133.037	43.848	0	1940.70	0	1.9780	0	34.6690	4	27.719	0	1916.257	0	56.5	4	17.0	4	-1E+10	1	-1E+10	1	-1E+10	1	-1E+10	1	-1E+10	1	-1E+10	1
4901784	79	C	09/02/2017	10:43	-133.037	43.848	0	1945.70	0	1.9750	0	34.6690	4	27.719	0	1921.172	0	56.8	4	17.1	4	-1E+10	1	-1E+10	1	-1E+10	1	-1E+10	1	-1E+10	1	-1E+10	1
4901784	79	C	09/02/2017	10:43	-133.037	43.848	0	1950.80	0	1.9720	0	34.6700	4	27.720	0	1926.184	0	57.1	4	17.2	4	-1E+10	1	-1E+10	1	-1E+10	1	-1E+10	1	-1E+10	1	-1E+10	1
4901784	79	C	09/02/2017	10:43	-133.037	43.848	0	1955.00	0	1.9690	0	34.6710	4	27.721	0	1930.312	0	57.2	4	17.3	4	-1E+10	1	-1E+10	1	-1E+10	1	-1E+10	1	-1E+10	1	-1E+10	1
4901784	79	C	09/02/2017	10:43	-133.037	43.848	0	1959.30	0	1.9650	0	34.6710	4	27.721	0	1934.539	0	57.5	4	17.3	4	-1E+10	1	-1E+10	1	-1E+10	1	-1E+10	1	-1E+10	1	-1E+10	1
4901784	79	C	09/02/2017	10:43	-133.037	43.848	0	1964.50	0	1.9610	0	34.6720	4	27.722	0	1939.649	0	57.8	4	17.4	4	-1E+10	1	-1E+10	1	-1E+10	1	-1E+10	1	-1E+10	1	-1E+10	1
4901784	79	C	09/02/2017	10:43	-133.037	43.848	0	1969.70	0	1.9560	0	34.6720	4	27.723	0	1944.760	0	58.1	4	17.5	4	-1E+10	1	-1E+10	1	-1E+10	1	-1E+10	1	-1E+10	1	-1E+10	1
4901784	79	C	09/02/2017	10:43	-133.037	43.848	0	1975.00	0	1.9510	0	34.6730	4	27.724	0	1949.968	0	58.5	4	17.6	4	-1E+10	1	-1E+10	1	-1E+10	1	-1E+10	1	-1E+10	1	-1E+10	1
4901784	79	C	09/02/2017	10:43	-133.037	43.848	0	1980.20	0	1.9480	0	34.6740	4	27.725	0	1955.078	0	58.8	4	17.7	4	-1E+10	1	-1E+10	1	-1E+10	1	-1E+10	1	-1E+10	1	-1E+10	1
4901784	79	C	09/02/2017	10:43	-133.037	43.848	0	1985.50	0	1.9440	0	34.6740	4	27.725	0	1960.287	0	58.9	4	17.8	4	-1E+10	1	-1E+10	1	-1E+10	1	-1E+10	1	-1E+10	1	-1E+10	1
4901784	79	C	09/02/2017	10:43	-133.037	43.848	0	1989.90	0	1.9410	0	34.6750	4	27.726	0	1964.611	0	59.1	4	17.8	4	-1E+10	1	-1E+10	1	-1E+10	1	-1E+10	1	-1E+10	1	-1E+10	1
4901784	79	C	09/02/2017	10:43	-133.037	43.848	0	1994.40	0	1.9370	0	34.6760	4	27.728	0	1969.033	0	59.3	4	17.9	4	-1E+10	1	-1E+10	1	-1E+10	1	-1E+10	1	-1E+10	1	-1E+10	1
4901784	79	C	09/02/2017	10:43	-133.037	43.848	0	1999.60	0	1.9350	0	34.6770	4	27.729	0	1974.143	0	59.6	4	17.9	4	-1E+10	1	-1E+10	1	-1E+10	1	-1E+10	1	-1E+10	1	-1E+10	1
4901784	79	C	09/02/2017	10:43	-133.037	43.848	0	2004.80	0	1.9320	0	34.6760	4	27.728	0	1979.252	0	59.9	4	18.0	4	-1E+10	1	-1E+10	1	-1E+10	1	-1E+10	1	-1E+10	1	-1E+10	1
4901784	79	C	09/02/2017	10:43	-133.037	43.848	0	2009.90	0	1.9300	0	34.6770	4	27.729	0	1984.264	0	60.0	4	18.1	4	-1E+10	1	-1E+10	1	-1E+10	1	-1E+10	1	-1E+10	1	-1E+10	1
4901784	79	C	09/02/2017	10:43	-133.037	43.848	0	2015.60	0	1.9270	0	34.6770	4	27.729	0	1989.864	0	60.1	4	18.1	4	-1E+10	1	-1E+10	1	-1E+10	1	-1E+10	1	-1E+10	1	-1E+10	1
4901784	79	C	09/02/2017	10:43	-133.037	43.848	0	2020.20	0	1.9260	0	34.6780	4	27.730	0	1994.384	0	58.9	8	17.7	8	-1E+10	1	-1E+10	1	-1E+10	1	-1E+10	1	-1E+10	1	-1E+10	1
4901784	79	C	09/02/2017	10:43	-133.037	43.848	0																										
4901784	80	C	09/12/2017	10:50	-133.003	43.690	0	3.00	0	19.8330	0	33.1350	4	23.385	0	2.976	0	223.2	4	97.4	4	-1E+10	1	-1E+10	1	-1E+10	1	-1E+10	1	-1E+10	1	-1E+10	1
4901784	80	C	09/12/2017	10:50	-133.003	43.690	0	4.60	0	19.8330	0	33.1320	4	23.382	0	4.563	0	222.9	4	97.3	4	-1E+10	1	-1E+10	1	-1E+10	1	-1E+10	1	-1E+10	1	-1E+10	1
4901784	80	C	09/12/2017	10:50	-133.003	43.690	0	6.30	0	19.8160	0	33.1340	4	23.388	0	6.250	0	222.8	4	97.2	4	-1E+10	1	-1E+10	1	-1E+10	1	-1E+10	1	-1E+10	1	-1E+10	1
4901784	80	C	09/12/2017	10:50	-133.003	43.690	0	8.00	0	19.7590	0	33.1270	4	23.398	0	7.936	0	222.9	4	97.2	4	-1E+10	1	-1E+10	1	-1E+10	1	-1E+10	1	-1E+10	1	-1E+10	1
4901784	80	C	09/12/2017	10:50	-133.003	43.690	0	9.80	0	19.6650	0	33.1190	4	23.416	0	9.721	0	223.0	4	97.0	4	-1E+10	1	-1E+10	1	-1E+10	1	-1E+10	1	-1E+10	1	-1E+10	1
4901784	80	C	09/12/2017	10:50	-133.003	43.690	0	11.50	0	19.6100	0	33.1170	4	23.429	0	11.408	0	223.2	4	97.1	4	-1E+10	1	-1E+10	1	-1E+10	1	-1E+10	1	-1E+10	1	-1E+10	1
4901784	80	C	09/12/2017	10:50	-133.003	43.690	0	13.20	0	19.5950	0	33.1150	4	23.431	0	13.094	0	223.2	4	97.0	4	-1E+10	1	-1E+10	1	-1E+10	1	-1E+10	1	-1E+10	1	-1E+10	1
4901784	80	C	09/12/2017	10:50	-133.003	43.690	0	14.90	0	19.5840	0	33.1140	4	23.433	0	14.780	0	223.3	4	97.0	4	-1E+10	1	-1E+10	1	-1E+10	1	-1E+10	1	-1E+10	1	-1E+10	1
4901784	80	C	09/12/2017	10:50	-133.003	43.690	0	16.70	0	19.5530	0	33.1140	4	23.441	0	16.566	0	223.4	4	97.0	4	-1E+10	1	-1E+10	1	-1E+10	1	-1E+10	1	-1E+10	1	-1E+10	1
4901784	80	C	09/12/2017	10:50	-133.003	43.690	0	18.50	0	19.5220	0	33.1120	4	23.448	0	18.351	0	223.8	4	97.1	4	-1E+10	1	-1E+10	1	-1E+10	1	-1E+10	1	-1E+10	1	-1E+10	1
4901784	80	C	09/12/2017	10:50	-133.003	43.690	0	20.40	0	19.4750	0	33.1140	4	23.462	0	20.236	0	224.5	4	97.4	4	-1E+10	1	-1E+10	1	-1E+10	1	-1E+10	1	-1E+10	1	-1E+10	1
4901784	80	C	09/12/2017	10:50	-133.003	43.690	0	22.10	0	19.4690	0	33.1150	4	23.464	0	21.922	0	225.0	4	97.6	4	-1E+10	1	-1E+10	1	-1E+10	1	-1E+10	1	-1E+10	1	-1E+10	1
4901784	80	C	09/12/2017	10:50	-133.003	43.690	0	23.90	0	19.4000	0	33.1160	4	23.483	0	23.707	0	226.2	4	98.0	4	-1E+10	1	-1E+10	1	-1E+10	1	-1E+10	1	-1E+10	1	-1E+10	1
4901784	80	C	09/12/2017	10:50	-133.003	43.690	0	25.80	0	19.3630	0	33.1030	4	23.482	0	25.592	0	227.4	4	98.4	4	-1E+10	1	-1E+10	1	-1E+10	1	-1E+10	1	-1E+10	1	-1E+10	1
4901784	80	C	09/12/2017	10:50	-133.003	43.690	0	27.50	0	19.1750	0	33.0850	4	23.516	0	27.278	0	229.8	4	99.1	4	-1E+10	1	-1E+10	1	-1E+10	1	-1E+10	1	-1E+10	1	-1E+10	1
4901784	80	C	09/12/2017	10:50	-133.003	43.690	0	29.20	0	19.0490	0	33.0810	4	23.545	0	28.964	0	232.2	4	99.9	4	-1E+10	1	-1E+10	1	-1E+10	1	-1E+10	1	-1E+10	1	-1E+10	1
4901784	80	C	09/12/2017	10:50	-133.003	43.690	0	31.10	0	18.9410	0	33.0630	4	23.559	0	30.849	0	235.6	4	101.2	4	-1E+10	1	-1E+10	1	-1E+10	1	-1E+10	1	-1E+10	1	-1E+10	1
4901784	80	C	09/12/2017	10:50	-133.003	43.690	0	31.50	0	18.8750	0	33.0610	4	23.574	0	31.246	0	236.9	4	101.6	4	-1E+10	1	-1E+10	1	-1E+10	1	-1E+10	1	-1E+10	1	-1E+10	1
4901784	80	C	09/12/2017	10:50	-133.003	43.690	0	33.00	0	18.5190	0	33.0410	4	23.647	0	32.733	0	241.7	4	102.9	4	-1E+10	1	-1E+10	1	-1E+10	1	-1E+10	1	-1E+10	1	-1E+10	1
4901784	80	C	09/12/2017	10:50	-133.003	43.690	0	34.40	0	18.3460	0	33.0240	4	23.677	0	34.122	0	245.7	4	104.3	4	-1E+10	1	-1E+10	1	-1E+10	1	-1E+10	1	-1E+10	1	-1E+10	1
4901784	80	C	09/12/2017	10:50	-133.003	43.690	0	35.80	0	17.4530	0	32.9770	4	23.857	0	35.511	0	254.4	4	106.1	4	-1E+10	1	-1E+10	1	-1E+10	1	-1E+10	1	-1E+10	1	-1E+10	1
4901784	80	C	09/12/2017	10:50	-133.003	43.690	0	37.20	0	17.0970	0	32.9420	4	23.915	0	36.899	0	259.0	4	107.3	4	-1E+10	1	-1E+10	1	-1E+10	1	-1E+10	1	-1E+10	1	-1E+10	1
4901784	80	C	09/12/2017	10:50	-133.003	43.690	0	38.70	0	15.9870	0	32.9210	4	24.154	0	38.387	0	266.8	4	108.2	4	-1E+10	1	-1E+10	1	-1E+10	1	-1E+10	1	-1E+10	1	-1E+10	1
4901784	80	C	09/12/2017	10:50	-133.003	43.690	0	40.40	0	15.2320	0	32.8990	4	24.304	0	40.073	0	272.1	4	108.7	4	-1E+10	1	-1E+10	1	-1E+10	1	-1E+10	1	-1E+10	1	-1E+10	1
4901784	80	C	09/12/2017	10:50	-133.003	43.690	0	40.80	0	15.0770	0	32.9020	4	24.340	0	40.470	0	274.2	4	109.2	4	-1E+10	1	-1E+10	1	-1E+10	1	-1E+10	1	-1E+10	1	-1E+10	1
4901784	80	C	09/12/2017	10:50	-133.003	43.690	0	42.10	0	14.7510	0	32.8840	4	24.397	0	41.759	0	276.9	4	109.6	4	-1E+10	1	-1E+10	1	-1E+10	1	-1E+10	1	-1E+10	1	-1E+10	1
4901784	80	C	09/12/2017	10:50	-133.003	43.690	0	43.40	0	14.3090	0	32.8700	4	24.479	0	43.048	0	279.3	4	109.6	4	-1E+10	1	-1E+10	1	-1E+10	1	-1E+10	1	-1E+10	1	-1E+10	1
4901784	80	C	09/12/2017	10:50	-133.003	43.690	0	44.70	0	13.6670	0	32.8730	4	24.614	0	44.338	0	282.3	4	109.3	4	-1E+10	1	-1E+10	1	-1E+10	1	-1E+10	1	-1E+10	1	-1E+10	1
4901784	80	C	09/12/2017	10:50	-133.003	43.690	0	46.00	0	13.3220	0	32.8630	4	24.676	0	45.627	0	283.7	4	109.1	4	-1E+10	1	-1E+10	1	-1E+10	1	-1E+10	1	-1E+10	1	-1E+10	1
4901784	80	C	09/12/2017	10:50	-133.003	43.690	0	47.40	0	12.9850	0	32.8790	4	24.755	0	47.016	0	282.8	4	108.0	4	-1E+10	1	-1E+10	1	-1E+10	1	-1E+10	1	-1E+10	1	-1E+10	1
4901784	80	C	09/12/2017	10:50	-133.003	43.690	0	48.80	0	12.3820	0	32.8880	4	24.879	0	48.404	0	284.5	4	107.3	4	-1E+10	1	-1E+10	1	-1E+10	1	-1E+10	1	-1E+10	1	-1E+10	1
4901784	80	C	09/12/2017	10:50	-133.003	43.690	0	50.30	0	11.9930	0	32.8770	4	24.944	0	49.892	0	284.2	4	106.4	4	-1E+10	1	-1E+10	1	-1E+10	1	-1E+10	1	-1E+10	1	-1E+10	1
4901784	80	C	09/12/2017	10:50	-133.003	43.690	0	51.80	0	11.6260	0	32.8760	4	25.011	0	51.379	0	282.0	4	104.7	4	-1E+10	1	-1E+10	1	-1E+10	1	-1E+10	1	-1E+10	1	-1E+10	1
4901784	80	C	09/12/2017	10:50	-133.003	43.690	0	53.30	0	10.9910	0	32.9010	4	25.145	0	52.867	0	281.2	4	103.0	4	-1E+10	1	-1E+10	1	-1E+10	1	-1E+10	1	-1E+10	1	-1E+10	1
4901784	80	C	09/12/2017	10:50	-133.003	43.690	0	55.00	0	10.6450	0	32.9010	4	25.205	0	54.553	0	278.1	4	101.2	4	-1E+10	1	-1E+10	1	-1E+10	1	-1E+10	1	-1E+10	1	-1E+10	1
4901784	80	C	09/12/2017	10:50	-133.003	43.690	0	56.70	0	10.3730	0	32.9090	4	25.258	0	56.239	0	274.9	4	99.4	4	-1E+10	1	-1E+10	1	-1E+10	1	-1E+10	1	-1E+10	1	-1E+10	1
4901784	80	C	09/12/2017	10:50	-133.003	43.690	0	58.40	0	10.0600	0	32.9260	4	25.324	0	57.925	0	273.6	4	98.3	4	-1E+10	1	-1E+10	1	-1E+10	1	-1E+10	1	-1E+10	1	-1E+10	1
4901784	80	C	09/12/2017	10:50	-133.003	43.690	0	60.10	0	9.9900	0	32.9200	4	25.331	0	59.611	0	271.7	4	97.5	4	-1E+10	1	-1E+10	1	-1E+10	1	-1E+10	1	-1E+10	1	-1E+10	1
4901784	80	C	09/12/2017	10:50	-133.003	43.690	0	61.90	0	9.8060	0	32.9180	4	25.360	0	61.396	0	269.8	4	96.4	4	-1E+10	1	-1E+10	1	-1E+10	1	-1E+10	1	-1E+10	1	-1E+10	1
4901784	80	C	09/12/2017	10:50	-133.003	43.690	0	63.70	0	9.5410	0	32.9370	4	25.418	0	63.181	0	269.7	4	95.8	4	-1E+10	1	-1E+10	1	-1E+10	1	-1E+10	1	-1E+10	1	-1E+10	1
4901784	80	C	09/12/2017	10:50	-133.003	43.690	0	65.50	0	9.4930	0	32.9530	4	25.439	0	64.966	0	269.8	4	95.8	4	-1E+10	1	-1E+10	1	-1E+10	1	-1E+10	1	-1E+10	1	-1E+10	1
4901784	80	C	09/12/2017	10:50	-133.003	43.690	0	67.30	0	9.4700	0	32.9580	4	25.446	0	66.751	0	268.6	4	95.3	4	-1E+10	1	-1E+10	1	-1E+10	1	-1E+10	1	-1E+10	1	-1E+10	1
4901784	80	C	09/12/2017	10:50	-133.003	43.690	0	69.40	0	9.3490	0	32.9570	4	25.465	0	68.833	0	267.7	4	94.7	4	-1E+10	1	-1E+10	1	-1E+10	1	-1E+10	1	-1E+10	1	-1E+10	1
4901784	80	C	09/12/2017	10:50	-133.003	43.690	0	69.90	0	9.3070	0	32.9550	4	25.470	0	69.329	0	267.7	4	94.6	4	-1E+10	1	-1E+10	1	-1E+10	1	-1E+10	1	-1E+10	1	-1E+10	1
4901784	80	C	09/12/2017	10:50	-133.003	43.690	0	71.50	0	9.2170	0	32.9600	4	25.488	0	70.916	0	267.2	4	94.3	4	-1E+10	1	-1E+10	1	-1E+10	1	-1E+10	1	-1E+10	1	-1E+10	1
4901784	80	C	09/12/2017	10:50	-133.003	43.690	0	73.10	0	9.1270	0	32.9690	4	25.510	0	72.503	0	266.8	4	94.0	4	-1E+10	1	-1E+10	1	-1E+10	1	-1E+10	1	-1E+10	1	-1E+10	1
4901784	80	C	09/12/2017	10:50	-133.003	43.690	0	74.70	0	9.0760	0	32.9740	4	25.522	0	74.089	0	266.2	4	93.6	4	-1E+10	1	-1E+10	1	-1E+10	1	-1E+10	1	-1E+10	1	-1E+10	1
4901784	80	C	09/12/2017	10:50	-133.003	43.690	0	76.40	0	9.0280	0	32.9790	4	25.533	0	75.775	0	265.9	4	93.4	4	-1E+10	1	-1E+10	1	-1E+10	1	-1E+10	1	-1E+10	1	-1E+10	1
4901784	80	C	09/12/2017	10:50	-133.003	43.690	0	78.00	0	9.0260	0	32.9790	4	25.533	0	77.362	0	265.2	4	93.2	4	-1E+10	1	-1E+10	1	-1E+10	1	-1E+10	1	-1E+10	1	-1E+10	1
4901784	80	C	09/12/2017	10:50	-133.003	43.690	0	79.70	0	9.0060	0	32.9820	4	25.539	0	79.047	0	264.0	4	92.7	4	-1E+10	1	-1E+10	1	-1E+10	1	-1E+10	1	-1E+10	1	-1E+10	1
4901784	80	C	09/12/2017	10:50	-133.003	43.690	0	81.30	0	8.9040	0	32.9930	4	25.563	0	80.634	0	263.2	4	92.2	4	-1E+10	1	-1E+10	1	-1E+10	1	-1E+10	1	-1E+10	1	-1E+10	1
4901784	80	C	09/12/2017	10:50	-133.003	43.690	0	82.90	0	8.8310	0	33.0000	4	25.580	0	82.220	0	262.6	4	91.9	4	-1E+10	1	-1E+10	1	-1E+10	1	-1E+10	1	-1E+10	1	-1E+10	1
4901784	80	C	09/12/2017	10:50	-133.003	43.690	0	84.60	0	8.8030	0	33.0060	4	25.589	0	83.906	0	262.0	4	91.6	4	-1E+10	1	-1E+10	1	-1E+10	1	-1E+10	1	-1E+10	1	-1E+10	1
4901784	80	C	09/12/2017	10:50	-133.003	43.690	0	86.30	0	8.7970	0	33.0040	4	25.589	0	85.592	0	261.1	4	91.3	4	-1E+10	1	-1E+10	1	-1E+10	1	-1E+10	1	-1E+10	1	-1E+10	1
4901784	80	C	09/12/2017	10:50	-133.003	43.690	0	88.10	0	8.7900	0	33.0080	4	25.593	0	87.377	0	259.8	4	90.8	4	-1E+10	1	-1E+10	1	-1E+10	1	-1E+10	1	-1E+10	1	-1E+10	1
4901784	80	C	09/12/2017	10:50	-133.003	43.690	0	89.90	0	8.7700	0	33.0140	4	25.601	0	89.162	0	258.2	4	90.2	4	-1E+10	1	-1E+10	1	-1E+10	1	-1E+10	1	-1E+10	1	-1E+10	1
4901784	80	C	09/12/2017	10:50	-133.003	43.690	0	91.60	0	8.7270	0	33.0180	4	25.610	0	90.847	0	256.6	4	89.6	4	-1E+10	1	-1E+10	1	-1E+10	1	-1E+10	1	-1E+10	1	-1E+10	1
4901784	80	C	09/12/2017	10:50	-133.003	43.690	0	93.30	0	8.6640	0	33.0260	4	25.626	0	92.533	0	254.9	4	88.9	4	-1E+10	1	-1E+10	1	-1E+10	1	-1E+10	1	-1E+10	1	-1E+10	1
4901784	80	C	09/12/2017	10:50	-133.003	43.690	0	95.00	0	8.6950	0	33.0490	4	25.640	0	94.219	0	252.1	4	88.0	4	-1E+10	1	-1E+10	1	-1E+10	1	-1E+10	1	-1E+10	1	-1E+10	1
4901784	80	C	09/12/2017	10:50	-133.003	43.690	0	96.70	0	8.6510	0	33.0550	4	25.651	0	95.904	0	249.3	4	86.9	4	-1E+10	1	-1E+10	1	-1E+10	1	-1E+10	1	-1E+10	1	-1E+10	1
4901784	80	C	09/12/2017	10:50	-133.003	43.690	0	98.40	0	8.6650	0	33.0680	4	25.659	0	97.590	0	245.8	4	85.8	4	-1E+10	1	-1E+10	1	-1E+10	1	-1E+10	1	-1E+10	1	-1E+10	1
4901784	80	C	09/12/2017	10:50	-133.003	43.690	0	100.30	0	8.6530	0	33.0890	4	25.678	0	99.474	0	240.9	4	84.0	4	-1E+10	1	-1E+10	1	-1E+10	1	-1E+10	1	-1E+10	1	-1E+10	1
4901784	80	C	09/12/2017	10:50	-133.003	43.690	0	103.00	0	8.6650	0	33.1480	4	25.722	0	102.151	0	230.9	4	80.6	4	-1E+10	1	-1E+10	1	-1E+10	1	-1E+10	1	-1E+10	1	-1E+10	1
4901784	80	C	09/12/2017	10:50	-133.003	43.690	0	105.10	0	8.7170	0	33.2290	4	25.777	0	104.233	0	222.5	4	77.8	4	-1E+10	1	-1E+10	1	-1E+10	1	-1E+10	1	-1E+10	1	-1E+10	1
4901784	80	C	09/12/2017	10:50	-133.003	43.690	0	107.30	0	8.7810	0	33.3080	4	25.830	0	106.414	0	215.1	4	75.4	4	-1E+10	1	-1E+10	1	-1E+10	1	-1E+10	1	-1E+10	1	-1E+10	1
4901784	80	C	09/12/2017	10:50	-133.003	43.690	0	110.40	0	8.8110	0	33.4020	4	25.899	0	109.488	0	205.3	4	72.0	4	-1E+10	1	-1E+10	1	-1E+10	1	-1E+10	1	-1E+10	1	-1E+10	1
4901784	80	C	09/12/2017	10:50	-133.003	43.690	0	112.70	0	8.8220	0	33.4510	4	25.935	0	111.768	0	201.6	4	70.8	4	-1E+10	1	-1E+10	1	-1E+10	1	-1E+10	1	-1E+10	1	-1E+10	1
4901784	80	C	09/12/2017	10:50	-133.003	43.690	0	115.10	0	8.8430	0	33.4910	4	25.963	0	114.148	0	200.5	4	70.4	4	-1E+10	1	-1E+10	1	-1E+10	1	-1E+10	1	-1E+10	1	-1E+10	1
4901784	80	C	09/12/2017	10:50	-133.003	43.690	0	117.50	0	8.8510	0	33.5140	4	25.980	0	116.527	0	200.5	4	70.4	4	-1E+10	1	-1E+10	1	-1E+10	1	-1E+10	1	-1E+10	1	-1E+10	1
4901784	80	C	09/12/2017	10:50	-133.003	43.690	0	120.00	0	8.8730	0	33.5960	4	26.041	0	119.006	0	198.9	4	70.0	4	-1E+10	1	-1E+10	1	-1E+10	1	-1E+10	1	-1E+10	1	-1E+10	1
4901784	80	C	09/12/2017	10:50	-133.003	43.690	0	122.40	0	8.9300	0	33.6460	4	26.071	0	121.385	0	196.4	4	69.2	4	-1E+10	1	-1E+10	1	-1E+10	1	-1E+10	1	-1E+10	1	-1E+10	1
4901784	80	C	09/12/2017	10:50	-133.003	43.690	0	125.00	0	8.8870	0	33.6680	4	26.095	0	123.963	0	193.7	4	68.2	4	-1E+10	1	-1E+10	1	-1E+10	1	-1E+10	1	-1E+10	1	-1E+10	1
4901784	80	C	09/12/2017	10:50	-133.003	43.690	0	127.50	0	8.8830	0	33.7150	4	26.133	0	126.441	0	192.0	4	67.6	4	-1E+10	1	-1E+10	1	-1E+10	1	-1E+10	1	-1E+10	1	-1E+10	1
4901784	80	C	09/12/2017	10:50	-133.003	43.690	0	130.00	0	8.8350	0	33.7560	4	26.172	0	128.920	0	189.5	4	66.7	4	-1E+10	1	-1E+10	1	-1E+10	1	-1E+10	1	-1E+10	1	-1E+10	1
4901784	80	C	09/12/2017	10:50	-133.003	43.690	0	132.70	0	8.8130	0	33.7830	4	26.197	0	131.596	0	188.2	4	66.2	4	-1E+10	1	-1E+10	1	-1E+10	1	-1E+10	1	-1E+10	1	-1E+10	1
4901784	80	C	09/12/2017	10:50	-133.003	43.690	0	135.30	0	8.7870	0	33.8140	4	26.225	0	134.174	0	187.3	4	65.9	4	-1E+10	1	-1E+10	1	-1E+10	1	-1E+10	1	-1E+10	1	-1E+10	1
4901784	80	C	09/12/2017	10:50	-133.003	43.690	0	138.00	0	8.7670	0	33.8390	4	26.248	0	136.851	0	186.3	4	65.5	4	-1E+10	1	-1E+10	1	-1E+10	1	-1E+10	1	-1E+10	1	-1E+10	1
4901784	80	C	09/12/2017	10:50	-133.003	43.690	0	139.80	0	8.7540	0	33.8620	4	26.268	0	138.635	0	185.6	4	65.2	4	-1E+10	1	-1E+10	1	-1E+10	1	-1E+10	1	-1E+10	1	-1E+10	1
4901784	80	C	09/12/2017	10:50	-133.003	43.690	0	142.50	0	8.7490	0	33.8770	4	26.281	0	141.312	0	184.7	4	64.9	4	-1E+10	1	-1E+10	1	-1E+10	1	-1E+10	1	-1E+10	1	-1E+10	1
4901784	80	C	09/12/2017	10:50	-133.003	43.690	0	145.20	0	8.7420	0	33.8870	4	26.290	0	143.988	0	184.0	4	64.7	4	-1E+10	1	-1E+10	1	-1E+10	1	-1E+10	1	-1E+10	1	-1E+10	1
4901784	80	C	09/12/2017	10:50	-133.003	43.690	0	147.00	0	8.7320	0	33.9040	4	26.305	0	145.772	0	183.2	4	64.4	4	-1E+10	1	-1E+10	1	-1E+10	1	-1E+10	1	-1E+10	1	-1E+10	1
4901784	80	C	09/12/2017	10:50	-133.003	43.690	0	149.70	0	8.7240	0	33.9120	4	26.312	0	148.449	0	182.1	4	64.0	4	-1E+10	1	-1E+10	1	-1E+10	1	-1E+10	1	-1E+10	1	-1E+10	1
4901784	80	C	09/12/2017	10:50	-133.003	43.690	0	152.50	0	8.7000	0	33.9230	4	26.325	0	151.225	0	181.1	4	63.6	4	-1E+10	1	-1E+10	1	-1E+10	1	-1E+10	1	-1E+10	1	-1E+10	1
4901784	80	C	09/12/2017	10:50	-133.003	43.690	0	154.40	0	8.6600	0	33.9360	4	26.341	0	153.108	0	180.3	4	63.3	4	-1E+10	1	-1E+10	1	-1E+10	1	-1E+10	1	-1E+10	1	-1E+10	1
4901784	80	C	09/12/2017	10:50	-133.003	43.690	0	157.30	0	8.6190	0	33.9460	4	26.355	0	155.983	0	179.2	4	62.8	4	-1E+10	1	-1E+10	1	-1E+10	1	-1E+10	1	-1E+10	1	-1E+10	1
4901784	80	C	09/12/2017	10:50	-133.003	43.690	0	160.20	0	8.5890	0	33.9660	4	26.376	0	158.857	0	178.5	4	62.6	4	-1E+10	1	-1E+10	1	-1E+10	1	-1E+10	1	-1E+10	1	-1E+10	1
4901784	80	C	09/12/2017	10:50	-133.003	43.690	0	162.10	0	8.5710	0	33.9730	4	26.384	0	160.740	0	177.9	4	62.3	4	-1E+10	1	-1E+10	1	-1E+10	1	-1E+10	1	-1E+10	1	-1E+10	1
4901784	80	C	09/12/2017	10:50	-133.003	43.690	0	164.90	0	8.5330	0	33.9810	4	26.396	0	163.516	0	177.3	4	62.1	4	-1E+10	1	-1E+10	1	-1E+10	1	-1E+10	1	-1E+10	1	-1E+10	1
4901784	80	C	09/12/2017	10:50	-133.003	43.690	0	167.60	0	8.5190	0	33.9820	4	26.399	0	166.192	0	176.6	4	61.8	4	-1E+10	1	-1E+10	1	-1E+10	1	-1E+10	1	-1E+10	1	-1E+10	1
4901784	80	C	09/12/2017	10:50	-133.003	43.690	0	169.50	0	8.4830	0	33.9860	4	26.408	0	168.075	0	175.9	4	61.5	4	-1E+10	1	-1E+10	1	-1E+10	1	-1E+10	1	-1E+10	1	-1E+10	1
4901784	80	C	09/12/2017	10:50	-133.003	43.690	0	172.60	0	8.4270	0	33.9920	4	26.421	0	171.148	0	175.1	4	61.2	4	-1E+10	1	-1E+10	1	-1E+10	1	-1E+10	1	-1E+10	1	-1E+10	1
4901784	80	C	09/12/2017	10:50	-133.003	43.690	0	175.00	0	8.4120	0	33.9940	4	26.425	0	173.527	0	174.3	4	60.9	4	-1E+10	1	-1E+10	1	-1E+10	1	-1E+10	1	-1E+10	1	-1E+10	1
4901784	80	C	09/12/2017	10:50	-133.003	43.690	0	177.50	0	8.3880	0	33.9960	4	26.430	0	176.005	0	173.1	4	60.4	4	-1E+10	1	-1E+10	1	-1E+10	1	-1E+10	1	-1E+10	1	-1E+10	1
4901784	80	C	09/12/2017	10:50	-133.003	43.690	0	179.90	0	8.3390	0	34.0010	4	26.442	0	178.384	0	171.4	4	59.8	4	-1E+10	1	-1E+10	1	-1E+10	1	-1E+10	1	-1E+10	1	-1E+10	1
4901784	80	C	09/12/2017	10:50	-133.003	43.690	0	182.30	0	8.2960	0	34.0020	4	26.449	0	180.762	0	169.5	4	59.0	4	-1E+10	1	-1E+10	1	-1E+10	1	-1E+10	1	-1E+10	1	-1E+10	1
4901784	80	C	09/12/2017	10:50	-133.003	43.690	0	184.70	0	8.2460	0	34.0020	4	26.456	0	183.141	0	167.9	4	58.4	4	-1E+10	1	-1E+10	1	-1E+10	1	-1E+10	1	-1E+10	1	-1E+10	1
4901784	80	C	09/12/2017	10:50	-133.003	43.690	0	187.90	0	8.1900	0	34.0060	4	26.468	0	186.312	0	164.4	4	57.1	4	-1E+10	1	-1E+10	1	-1E+10	1	-1E+10	1	-1E+10	1	-1E+10	1
4901784	80	C	09/12/2017	10:50	-133.003	43.690	0	190.20	0	8.0800	0	33.9950	4	26.476	0	188.592	0	160.8	4	55.7	4	-1E+10	1	-1E+10	1	-1E+10	1	-1E+10	1	-1E+10	1	-1E+10	1
4901784	80	C	09/12/2017	10:50	-133.003	43.690	0	192.70	0	8.0430	0	33.9920	4	26.479	0	191.070	0	158.7	4	55.0	4	-1E+10	1	-1E+10	1	-1E+10	1	-1E+10	1	-1E+10	1	-1E+10	1
4901784	80	C	09/12/2017	10:50	-133.003	43.690	0	195.20	0	7.9880	0	33.9910	4	26.486	0	193.547	0	156.3	4	54.1	4	-1E+10	1	-1E+10	1	-1E+10	1	-1E+10	1	-1E+10	1	-1E+10	1
4901784	80	C	09/12/2017	10:50	-133.003	43.690	0	197.70	0	7.9390	0	33.9930	4	26.495	0	196.025	0	154.5	4	53.4	4	-1E+10	1	-1E+10	1	-1E+10	1	-1E+10	1	-1E+10	1	-1E+10	1
4901784	80	C	09/12/2017	10:50	-133.003	43.690	0	200.20	0	7.8980	0	33.9930	4	26.501	0	198.503	0	152.2	4	52.5	4	-1E+10	1	-1E+10	1	-1E+10	1	-1E+10	1	-1E+10	1	-1E+10	1
4901784	80	C	09/12/2017	10:50	-133.003	43.690	0	202.70	0	7.8380	0	33.9930	4	26.510	0	200.980	0	150.3	4	51.8	4	-1E+10	1	-1E+10	1	-1E+10	1	-1E+10	1	-1E+10	1	-1E+10	1
4901784	80	C	09/12/2017	10:50	-133.003	43.690	0	205.20	0	7.7950	0	33.9890	4	26.513	0	203.458	0	149.4	4	51.5	4	-1E+10	1	-1E+10	1	-1E+10	1	-1E+10	1	-1E+10	1	-1E+10	1
4901784	80	C	09/12/2017	10:50	-133.003	43.690	0	207.80	0	7.7600	0	33.9930	4	26.521	0	206.034	0	149.6	4	51.5	4	-1E+10	1	-1E+10	1	-1E+10	1	-1E+10	1	-1E+10	1	-1E+10	1
4901784	80	C	09/12/2017	10:50	-133.003	43.690	0	210.30	0	7.7360	0	33.9930	4	26.525	0	208.512	0	149.5	4	51.4	4	-1E+10	1	-1E+10	1	-1E+10	1	-1E+10	1	-1E+10	1	-1E+10	1
4901784	80	C	09/12/2017	10:50	-133.003	43.690	0	212.90	0	7.6890	0	33.9960	4	26.534	0	211.088	0	149.4	4	51.3	4	-1E+10	1	-1E+10	1	-1E+10	1	-1E+10	1	-1E+10	1	-1E+10	1
4901784	80	C	09/12/2017	10:50	-133.003	43.690	0	215.40	0	7.6430	0	33.9970	4	26.542	0	213.566	0	148.6	4	51.0	4	-1E+10	1	-1E+10	1	-1E+10	1	-1E+10	1	-1E+10	1	-1E+10	1
4901784	80	C	09/12/2017	10:50	-133.003	43.690	0	217.10	0	7.6310	0	33.9970	4	26.543	0	215.251	0	148.1	4	50.8	4	-1E+10	1	-1E+10	1	-1E+10	1	-1E+10	1	-1E+10	1	-1E+10	1
4901784	80	C	09/12/2017	10:50	-133.003	43.690	0	219.70	0	7.6010	0	33.9970	4	26.548	0	217.827	0	147.1	4	50.4	4	-1E+10	1	-1E+10	1	-1E+10	1	-1E+10	1	-1E+10	1	-1E+10	1
4901784	80	C	09/12/2017	10:50	-133.003	43.690	0	222.20	0	7.5860	0	33.9970	4	26.550	0	220.304	0	145.4	4	49.9	4	-1E+10	1	-1E+10	1	-1E+10	1	-1E+10	1	-1E+10	1	-1E+10	1
4901784	80	C	09/12/2017	10:50	-133.003	43.690	0	224.80	0	7.5260	0	33.9990	4	26.560	0	222.881	0	144.1	4	49.3	4	-1E+10	1	-1E+10	1	-1E+10	1	-1E+10	1	-1E+10	1	-1E+10	1
4901784	80	C	09/12/2017	10:50	-133.003	43.690	0	227.30	0	7.4790	0	34.0010	4	26.568	0	225.358	0	144.2	4	49.3	4	-1E+10	1	-1E+10	1	-1E+10	1	-1E+10	1	-1E+10	1	-1E+10	1
4901784	80	C	09/12/2017	10:50	-133.003	43.690	0	229.90	0	7.4610	0	34.0030	4	26.572	0	227.934	0	143.5	4	49.1	4	-1E+10	1	-1E+10	1	-1E+10	1	-1E+10	1	-1E+10	1	-1E+10	1
4901784	80	C	09/12/2017	10:50	-133.003	43.690	0	232.40	0	7.4350	0	34.0050	4	26.578	0	230.412	0	141.0	4	48.2	4	-1E+10	1	-1E+10	1	-1E+10	1	-1E+10	1	-1E+10	1	-1E+10	1
4901784	80	C	09/12/2017	10:50	-133.003	43.690	0	235.00	0	7.4030	0	34.0040	4	26.581	0	232.988	0	139.5	4	47.6	4	-1E+10	1	-1E+10	1	-1E+10	1	-1E+10	1	-1E+10	1	-1E+10	1
4901784	80	C	09/12/2017	10:50	-133.003	43.690	0	237.60	0	7.3530	0	34.0000	4	26.585	0	235.564	0	138.3	4	47.1	4	-1E+10	1	-1E+10	1	-1E+10	1	-1E+10	1	-1E+10	1	-1E+10	1
4901784	80	C	09/12/2017	10:50	-133.003	43.690	0	240.20	0	7.3310	0	34.0020	4	26.590	0	238.141	0	137.9	4	47.0	4	-1E+10	1	-1E+10	1	-1E+10	1	-1E+10	1	-1E+10	1	-1E+10	1
4901784	80	C	09/12/2017	10:50	-133.003	43.690	0	242.80	0	7.3050	0	34.0000	4	26.592	0	240.717	0	137.3	4	46.8	4	-1E+10	1	-1E+10	1	-1E+10	1	-1E+10	1	-1E+10	1	-1E+10	1
4901784	80	C	09/12/2017	10:50	-133.003	43.690	0	245.30	0	7.2630	0	34.0020	4	26.600	0	243.194	0	135.2	4	46.0	4	-1E+10	1	-1E+10	1	-1E+10	1	-1E+10	1	-1E+10	1	-1E+10	1
4901784	80	C	09/12/2017	10:50	-133.003	43.690	0	247.80	0	7.1860	0	34.0030	4	26.611	0	245.671	0	129.8	4	44.1	4	-1E+10	1	-1E+10	1	-1E+10	1	-1E+10	1	-1E+10	1	-1E+10	1
4901784	80	C	09/12/2017	10:50	-133.003	43.690	0	250.30	0	7.1470	0	34.0060	4	26.619	0	248.148	0	123.4	4	41.9	4	-1E+10	1	-1E+10	1	-1E+10	1	-1E+10	1	-1E+10	1	-1E+10	1
4901784	80	C	09/12/2017	10:50	-133.003	43.690	0	252.90	0	7.1280	0	34.0090	4	26.624	0	250.724	0	120.3	4	40.8	4	-1E+10	1	-1E+10	1	-1E+10	1	-1E+10	1	-1E+10	1	-1E+10	1
4901784	80	C	09/12/2017	10:50	-133.003	43.690	0	254.60	0	7.1170	0	34.0100	4	26.626	0	252.408	0	120.5	4	40.9	4	-1E+10	1	-1E+10	1	-1E+10	1	-1E+10	1	-1E+10	1	-1E+10	1
4901784	80	C	09/12/2017	10:50	-133.003	43.690	0	257.20	0	7.1080	0	34.0090	4	26.627	0	254.984	0	121.5	4	41.2	4	-1E+10	1	-1E+10	1	-1E+10	1	-1E+10	1	-1E+10	1	-1E+10	1
4901784	80	C	09/12/2017	10:50	-133.003	43.690	0	259.90	0	7.0790	0	34.0090	4	26.631	0	257.659	0	122.2	4	41.4	4	-1E+10	1	-1E+10	1	-1E+10	1	-1E+10	1	-1E+10	1	-1E+10	1
4901784	80	C	09/12/2017	10:50	-133.003	43.690	0	262.50	0	7.0120	0	34.0070	4	26.638	0	260.235	0	124.0	4	42.0	4	-1E+10	1	-1E+10	1	-1E+10	1	-1E+10	1	-1E+10	1	-1E+10	1
4901784	80	C	09/12/2017	10:50	-133.003	43.690	0	265.10	0	6.9600	0	34.0070	4	26.646	0	262.811	0	125.5	4	42.4	4	-1E+10	1	-1E+10	1	-1E+10	1	-1E+10	1	-1E+10	1	-1E+10	1
4901784	80	C	09/12/2017	10:50	-133.003	43.690	0	267.80	0	6.9430	0	34.0040	4	26.646	0	265.486	0	126.4	4	42.7	4	-1E+10	1	-1E+10	1	-1E+10	1	-1E+10	1	-1E+10	1	-1E+10	1
4901784	80	C	09/12/2017	10:50	-133.003	43.690	0	270.50	0	6.9070	0	34.0050	4	26.651	0	268.161	0	126.6	4	42.7	4	-1E+10	1	-1E+10	1	-1E+10	1	-1E+10	1	-1E+10	1	-1E+10	1
4901784	80	C	09/12/2017	10:50	-133.003	43.690	0	272.30	0	6.8830	0	34.0030	4	26.653	0	269.944	0	126.5	4	42.7	4	-1E+10	1	-1E+10	1	-1E+10	1	-1E+10	1	-1E+10	1	-1E+10	1
4901784	80	C	09/12/2017	10:50	-133.003	43.690	0	275.00	0	6.8500	0	34.0060	4	26.660	0	272.619	0	126.0	4	42.5	4	-1E+10	1	-1E+10	1	-1E+10	1	-1E+10	1	-1E+10	1	-1E+10	1
4901784	80	C	09/12/2017	10:50	-133.003	43.690	0	277.70	0	6.8320	0	34.0040	4	26.661	0	275.294	0	125.2	4	42.2	4	-1E+10	1	-1E+10	1	-1E+10	1	-1E+10	1	-1E+10	1	-1E+10	1
4901784	80	C	09/12/2017	10:50	-133.003	43.690	0	279.50	0	6.8110	0	34.0040	4	26.664	0	277.077	0	124.2	4	41.8	4	-1E+10	1	-1E+10	1	-1E+10	1	-1E+10	1	-1E+10	1	-1E+10	1
4901784	80	C	09/12/2017	10:50	-133.003	43.690	0	282.20	0	6.7770	0	34.0030	4	26.667	0	279.752	0	121.6	4	40.9	4	-1E+10	1	-1E+10	1	-1E+10	1	-1E+10	1	-1E+10	1	-1E+10	1
4901784	80	C	09/12/2017	10:50	-133.003	43.690	0	284.80	0	6.7190	0	34.0030	4	26.675	0	282.328	0	117.2	4	39.4	4	-1E+10	1	-1E+10	1	-1E+10	1	-1E+10	1	-1E+10	1	-1E+10	1
4901784	80	C	09/12/2017	10:50	-133.003	43.690	0	287.50	0	6.7000	0	34.0080	4	26.682	0	285.002	0	110.9	4	37.3	4	-1E+10	1	-1E+10	1	-1E+10	1	-1E+10	1	-1E+10	1	-1E+10	1
4901784	80	C	09/12/2017	10:50	-133.003	43.690	0	290.20	0	6.6710	0	34.0140	4	26.690	0	287.677	0	106.8	4	35.9	4	-1E+10	1	-1E+10	1	-1E+10	1	-1E+10	1	-1E+10	1	-1E+10	1
4901784	80	C	09/12/2017	10:50	-133.003	43.690	0	292.00	0	6.6640	0	34.0160	4	26.693	0	289.460	0	105.1	4	35.3	4	-1E+10	1	-1E+10	1	-1E+10	1	-1E+10	1	-1E+10	1	-1E+10	1
4901784	80	C	09/12/2017	10:50	-133.003	43.690	0	294.70	0	6.6290	0	34.0190	4	26.700	0	292.135	0	103.7	4	34.8	4	-1E+10	1	-1E+10	1	-1E+10	1	-1E+10	1	-1E+10	1	-1E+10	1
4901784	80	C	09/12/2017	10:50	-133.003	43.690	0	297.40	0	6.6070	0	34.0140	4	26.699	0	294.809	0	102.6	4	34.4	4	-1E+10	1	-1E+10	1	-1E+10	1	-1E+10	1	-1E+10	1	-1E+10	1
4901784	80	C	09/12/2017	10:50	-133.003	43.690	0	300.10	0	6.5320	0	34.0190	4	26.713	0	297.484	0	100.3	4	33.6	4	-1E+10	1	-1E+10	1	-1E+10	1	-1E+10	1	-1E+10	1	-1E+10	1
4901784	80	C	09/12/2017	10:50	-133.003	43.690	0	302.80	0	6.4620	0	34.0180	4	26.721	0	300.158	0	97.4	4	32.6	4	-1E+10	1	-1E+10	1	-1E+10	1	-1E+10	1	-1E+10	1	-1E+10	1
4901784	80	C	09/12/2017	10:50	-133.003	43.690	0	304.60	0	6.4390	0	34.0180	4	26.724	0	301.941	0	94.3	4	31.5	4	-1E+10	1	-1E+10	1	-1E+10	1	-1E+10	1	-1E+10	1	-1E+10	1
4901784	80	C	09/12/2017	10:50	-133.003	43.690	0	307.30	0	6.4160	0	34.0280	4	26.735	0	304.616	0	89.5	4	29.9	4	-1E+10	1	-1E+10	1	-1E+10	1	-1E+10	1	-1E+10	1	-1E+10	1
4901784	80	C	09/12/2017	10:50	-133.003	43.690	0	310.00	0	6.4050	0	34.0350	4	26.742	0	307.290	0	87.1	4	29.1	4	-1E+10	1	-1E+10	1	-1E+10	1	-1E+10	1	-1E+10	1	-1E+10	1
4901784	80	C	09/12/2017	10:50	-133.003	43.690	0	312.80	0	6.3810	0	34.0380	4	26.747	0	310.064	0	86.0	4	28.7	4	-1E+10	1	-1E+10	1	-1E+10	1	-1E+10	1	-1E+10	1	-1E+10	1
4901784	80	C	09/12/2017	10:50	-133.003	43.690	0	315.50	0	6.3580	0	34.0400	4	26.752	0	312.738	0	85.2	4	28.4	4	-1E+10	1	-1E+10	1	-1E+10	1	-1E+10	1	-1E+10	1	-1E+10	1
4901784	80	C	09/12/2017	10:50	-133.003	43.690	0	317.20	0	6.3460	0	34.0400	4	26.754	0	314.422	0	84.8	4	28.3	4	-1E+10	1	-1E+10	1	-1E+10	1	-1E+10	1	-1E+10	1	-1E+10	1
4901784	80	C	09/12/2017	10:50	-133.003	43.690	0	319.90	0	6.3000	0	34.0410	4	26.760	0	317.096	0	84.5	4	28.1	4	-1E+10	1	-1E+10	1	-1E+10	1	-1E+10	1	-1E+10	1	-1E+10	1
4901784	80	C	09/12/2017	10:50	-133.003	43.690	0	322.70	0	6.2600	0	34.0420	4	26.766	0	319.869	0	83.7	4	27.8	4	-1E+10	1	-1E+10	1	-1E+10	1	-1E+10	1	-1E+10	1	-1E+10	1
4901784	80	C	09/12/2017	10:50	-133.003	43.690	0	324.50	0	6.2680	0	34.0450	4	26.768	0	321.652	0	83.1	4	27.6	4	-1E+10	1	-1E+10	1	-1E+10	1	-1E+10	1	-1E+10	1	-1E+10	1
4901784	80	C	09/12/2017	10:50	-133.003	43.690	0	327.20	0	6.2320	0	34.0430	4	26.771	0	324.326	0	83.5	4	27.8	4	-1E+10	1	-1E+10	1	-1E+10	1	-1E+10	1	-1E+10	1	-1E+10	1
4901784	80	C	09/12/2017	10:50	-133.003	43.690	0	329.90	0	6.2040	0	34.0380	4	26.770	0	327.001	0	83.1	4	27.6	4	-1E+10	1	-1E+10	1	-1E+10	1	-1E+10	1	-1E+10	1	-1E+10	1
4901784	80	C	09/12/2017	10:50	-133.003	43.690	0	332.60	0	6.1980	0	34.0430	4	26.775	0	329.675	0	82.8	4	27.5	4	-1E+10	1	-1E+10	1	-1E+10	1	-1E+10	1	-1E+10	1	-1E+10	1
4901784	80	C	09/12/2017	10:50	-133.003	43.690	0	335.30	0	6.1500	0	34.0410	4	26.780	0	332.349	0	83.7	4	27.8	4	-1E+10	1	-1E+10	1	-1E+10	1	-1E+10	1	-1E+10	1	-1E+10	1
4901784	80	C	09/12/2017	10:50	-133.003	43.690	0	337.10	0	6.1050	0	34.0390	4	26.784	0	334.132	0	84.7	4	28.1	4	-1E+10	1	-1E+10	1	-1E+10	1	-1E+10	1	-1E+10	1	-1E+10	1
4901784	80	C	09/12/2017	10:50	-133.003	43.690	0	339.70	0	6.0490	0	34.0350	4	26.788	0	336.707	0	85.6	4	28.3	4	-1E+10	1	-1E+10	1	-1E+10	1	-1E+10	1	-1E+10	1	-1E+10	1
4901784	80	C	09/12/2017	10:50	-133.003	43.690	0	342.40	0	6.0110	0	34.0330	4	26.791	0	339.380	0	85.9	4	28.4	4	-1E+10	1	-1E+10	1	-1E+10	1	-1E+10	1	-1E+10	1	-1E+10	1
4901784	80	C	09/12/2017	10:50	-133.003	43.690	0	345.00	0	5.9860	0	34.0320	4	26.793	0	341.955	0	85.9	4	28.4	4	-1E+10	1	-1E+10	1	-1E+10	1	-1E+10	1	-1E+10	1	-1E+10	1
4901784	80	C	09/12/2017	10:50	-133.003	43.690	0	347.70	0	5.9530	0	34.0320	4	26.798	0	344.629	0	85.8	4	28.3	4	-1E+10	1	-1E+10	1	-1E+10	1	-1E+10	1	-1E+10	1	-1E+10	1
4901784	80	C	09/12/2017	10:50	-133.003	43.690	0	349.40	0	5.9350	0	34.0300	4	26.798	0	346.313	0	85.3	4	28.1	4	-1E+10	1	-1E+10	1	-1E+10	1	-1E+10	1	-1E+10	1	-1E+10	1
4901784	80	C	09/12/2017	10:50	-133.003	43.690	0	352.20	0	5.9050	0	34.0300	4	26.802	0	349.086	0	84.8	4	28.0	4	-1E+10	1	-1E+10	1	-1E+10	1	-1E+10	1	-1E+10	1	-1E+10	1
4901784	80	C	09/12/2017	10:50	-133.003	43.690	0	354.80	0	5.8810	0	34.0310	4	26.806	0	351.661	0	83.7	4	27.6	4	-1E+10	1	-1E+10	1	-1E+10	1	-1E+10	1	-1E+10	1	-1E+10	1
4901784	80	C	09/12/2017	10:50	-133.003	43.690	0	357.50	0	5.8850	0	34.0320	4	26.806	0	354.334	0	82.3	4	27.1	4	-1E+10	1	-1E+10	1	-1E+10	1	-1E+10	1	-1E+10	1	-1E+10	1
4901784	80	C	09/12/2017	10:50	-133.003	43.690	0	360.20	0	5.8780	0	34.0390	4	26.812	0	357.008	0	80.9	4	26.7	4	-1E+10	1	-1E+10	1	-1E+10	1	-1E+10	1	-1E+10	1	-1E+10	1
4901784	80	C	09/12/2017	10:50	-133.003	43.690	0	362.00	0	5.8880	0	34.0400	4	26.812	0	358.791	0	81.1	4	26.7	4	-1E+10	1	-1E+10	1	-1E+10	1	-1E+10	1	-1E+10	1	-1E+10	1
4901784	80	C	09/12/2017	10:50	-133.003	43.690	0	364.70	0	5.8040	0	34.0360	4	26.819	0	361.464	0	82.6	4	27.2	4	-1E+10	1	-1E+10	1	-1E+10	1	-1E+10	1	-1E+10	1	-1E+10	1
4901784	80	C	09/12/2017	10:50	-133.003	43.690	0	367.30	0	5.7840	0	34.0340	4	26.820	0	364.039	0	83.8	4	27.6	4	-1E+10	1	-1E+10	1	-1E+10	1	-1E+10	1	-1E+10	1	-1E+10	1
4901784	80	C	09/12/2017	10:50	-133.003	43.690	0	370.00	0	5.6620	0	34.0240	4	26.827	0	366.713	0	86.1	4	28.2	4	-1E+10	1	-1E+10	1	-1E+10	1	-1E+10	1	-1E+10	1	-1E+10	1
4901784	80	C	09/12/2017	10:50	-133.003	43.690	0	372.70	0	5.5590	0	34.0170	4	26.834	0	369.386	0	86.4	4	28.3	4	-1E+10	1	-1E+10	1	-1E+10	1	-1E+10	1	-1E+10	1	-1E+10	1
4901784	80	C	09/12/2017	10:50	-133.003	43.690	0	374.50	0	5.5470	0	34.0170	4	26.836	0	371.169	0	85.8	4	28.1	4	-1E+10	1	-1E+10	1	-1E+10	1	-1E+10	1	-1E+10	1	-1E+10	1
4901784	80	C	09/12/2017	10:50	-133.003	43.690	0	377.20	0	5.5210	0	34.0180	4	26.839	0	373.842	0	85.1	4	27.8	4	-1E+10	1	-1E+10	1	-1E+10	1	-1E+10	1	-1E+10	1	-1E+10	1
4901784	80	C	09/12/2017	10:50	-133.003	43.690	0	380.00	0	5.5070	0	34.0160	4	26.840	0	376.615	0	84.1	4	27.5	4	-1E+10	1	-1E+10	1	-1E+10	1	-1E+10	1	-1E+10	1	-1E+10	1
4901784	80	C	09/12/2017	10:50	-133.003	43.690	0	381.70	0	5.4980	0	34.0200	4	26.844	0	378.298	0	83.1	4	27.1	4	-1E+10	1	-1E+10	1	-1E+10	1	-1E+10	1	-1E+10	1	-1E+10	1
4901784	80	C	09/12/2017	10:50	-133.003	43.690	0	384.80	0	5.4620	0	34.0210	4	26.849	0	381.368	0	82.0	4	26.8	4	-1E+10	1	-1E+10	1	-1E+10	1	-1E+10	1	-1E+10	1	-1E+10	1
4901784	80	C	09/12/2017	10:50	-133.003	43.690	0	387.50	0	5.4430	0	34.0210	4	26.851	0	384.041	0	80.8	4	26.4	4	-1E+10	1	-1E+10	1	-1E+10	1	-1E+10	1	-1E+10	1	-1E+10	1
4901784	80	C	09/12/2017	10:50	-133.003	43.690	0	389.90	0	5.4360	0	34.0230	4	26.854	0	386.417	0	79.7	4	26.0	4	-1E+10	1	-1E+10	1	-1E+10	1	-1E+10	1	-1E+10	1	-1E+10	1
4901784	80	C	09/12/2017	10:50	-133.003	43.690	0	392.30	0	5.4190	0	34.0320	4	26.863	0	388.794	0	78.7	4	25.7	4	-1E+10	1	-1E+10	1	-1E+10	1	-1E+10	1	-1E+10	1	-1E+10	1
4901784	80	C	09/12/2017	10:50	-133.003	43.690	0	394.80	0	5.3780	0	34.0240	4	26.861	0	391.269	0	77.4	4	25.2	4	-1E+10	1	-1E+10	1	-1E+10	1	-1E+10	1	-1E+10	1	-1E+10	1
4901784	80	C	09/12/2017	10:50	-133.003	43.690	0	398.00	0	5.3870	0	34.0320	4	26.867	0	394.437	0	74.8	4	24.4	4	-1E+10	1	-1E+10	1	-1E+10	1	-1E+10	1	-1E+10	1	-1E+10	1
4901784	80	C	09/12/2017	10:50	-133.003	43.690	0	400.40	0	5.3760	0	34.0360	4	26.871	0	396.814	0	73.8	4	24.0	4	-1E+10	1	-1E+10	1	-1E+10	1	-1E+10	1	-1E+10	1	-1E+10	1
4901784	80	C	09/12/2017	10:50	-133.003	43.690	0	402.80	0	5.3650	0	34.0370	4	26.873	0	399.190	0	72.9	4	23.7	4	-1E+10	1	-1E+10	1	-1E+10	1	-1E+10	1	-1E+10	1	-1E+10	1
4901784	80	C	09/12/2017	10:50	-133.003	43.690	0	405.30	0	5.3620	0	34.0370	4	26.874	0	401.665	0	71.4	4	23.3	4	-1E+10	1	-1E+10	1	-1E+10	1	-1E+10	1	-1E+10	1	-1E+10	1
4901784	80	C	09/12/2017	10:50	-133.003	43.690	0	407.80	0	5.3600	0	34.0400	4	26.876	0	404.140	0	69.1	4	22.5	4	-1E+10	1	-1E+10	1	-1E+10	1	-1E+10	1	-1E+10	1	-1E+10	1
4901784	80	C	09/12/2017	10:50	-133.003	43.690	0	410.20	0	5.3830	0	34.0490	4	26.881	0	406.516	0	66.2	4	21.6	4	-1E+10	1	-1E+10	1	-1E+10	1	-1E+10	1	-1E+10	1	-1E+10	1
4901784	80	C	09/12/2017	10:50	-133.003	43.690	0	412.70	0	5.4030	0	34.0550	4	26.883	0	408.991	0	63.6	4	20.8	4	-1E+10	1	-1E+10	1	-1E+10	1	-1E+10	1	-1E+10	1	-1E+10	1
4901784	80	C	09/12/2017	10:50	-133.003	43.690	0	415.10	0	5.4650	0	34.0690	4	26.887	0	411.367	0	61.6	4	20.1	4	-1E+10	1	-1E+10	1	-1E+10	1	-1E+10	1	-1E+10	1	-1E+10	1
4901784	80	C	09/12/2017	10:50	-133.003	43.690	0	417.60	0	5.4760	0	34.0740	4	26.890	0	413.842	0	61.8	4	20.2	4	-1E+10	1	-1E+10	1	-1E+10	1	-1E+10	1	-1E+10	1	-1E+10	1
4901784	80	C	09/12/2017	10:50	-133.003	43.690	0	420.10	0	5.4550	0	34.0690	4	26.888	0	416.317	0	62.8	4	20.5	4	-1E+10	1	-1E+10	1	-1E+10	1	-1E+10	1	-1E+10	1	-1E+10	1
4901784	80	C	09/12/2017	10:50	-133.003	43.690	0	422.60	0	5.3960	0	34.0630	4	26.890	0	418.792	0	63.9	4	20.8	4	-1E+10	1	-1E+10	1	-1E+10	1	-1E+10	1	-1E+10	1	-1E+10	1
4901784	80	C	09/12/2017	10:50	-133.003	43.690	0	425.10	0	5.3520	0	34.0560	4	26.890	0	421.267	0	63.8	4	20.8	4	-1E+10	1	-1E+10	1	-1E+10	1	-1E+10	1	-1E+10	1	-1E+10	1
4901784	80	C	09/12/2017	10:50	-133.003	43.690	0	427.60	0	5.3030	0	34.0580	4	26.897	0	423.742	0	62.9	4	20.5	4	-1E+10	1	-1E+10	1	-1E+10	1	-1E+10	1	-1E+10	1	-1E+10	1
4901784	80	C	09/12/2017	10:50	-133.003	43.690	0	430.10	0	5.3580	0	34.0680	4	26.899	0	426.217	0	61.3	4	20.0	4	-1E+10	1	-1E+10	1	-1E+10	1	-1E+10	1	-1E+10	1	-1E+10	1
4901784	80	C	09/12/2017	10:50	-133.003	43.690	0	432.60	0	5.3670	0	34.0700	4	26.899	0	428.692	0	61.4	4	20.0	4	-1E+10	1	-1E+10	1	-1E+10	1	-1E+10	1	-1E+10	1	-1E+10	1
4901784	80	C	09/12/2017	10:50	-133.003	43.690	0	435.10	0	5.3560	0	34.0640	4	26.896	0	431.167	0	62.3	4	20.3	4	-1E+10	1	-1E+10	1	-1E+10	1	-1E+10	1	-1E+10	1	-1E+10	1
4901784	80	C	09/12/2017	10:50	-133.003	43.690	0	437.60	0	5.2230	0	34.0580	4	26.907	0	433.641	0	62.4	4	20.3	4	-1E+10	1	-1E+10	1	-1E+10	1	-1E+10	1	-1E+10	1	-1E+10	1
4901784	80	C	09/12/2017	10:50	-133.003	43.690	0	440.10	0	5.2050	0	34.0600	4	26.911	0	436.116	0	61.1	4	19.8	4	-1E+10	1	-1E+10	1	-1E+10	1	-1E+10	1	-1E+10	1	-1E+10	1
4901784	80	C	09/12/2017	10:50	-133.003	43.690	0	442.70	0	5.1830	0	34.0650	4	26.917	0	438.690	0	59.4	4	19.3	4	-1E+10	1	-1E+10	1	-1E+10	1	-1E+10	1	-1E+10	1	-1E+10	1
4901784	80	C	09/12/2017	10:50	-133.003	43.690	0	445.20	0	5.2430	0	34.0770	4	26.920	0	441.165	0	57.7	4	18.8	4	-1E+10	1	-1E+10	1	-1E+10	1	-1E+10	1	-1E+10	1	-1E+10	1
4901784	80	C	09/12/2017	10:50	-133.003	43.690	0	447.80	0	5.2060	0	34.0740	4	26.922	0	443.738	0	57.8	4	18.8	4	-1E+10	1	-1E+10	1	-1E+10	1	-1E+10	1	-1E+10	1	-1E+10	1
4901784	80	C	09/12/2017	10:50	-133.003	43.690	0	450.40	0	5.1320	0	34.0710	4	26.928	0	446.312	0	57.4	4	18.6	4	-1E+10	1	-1E+10	1	-1E+10	1	-1E+10	1	-1E+10	1	-1E+10	1
4901784	80	C	09/12/2017	10:50	-133.003	43.690	0	452.10	0	5.1280	0	34.0710	4	26.928	0	447.995	0	56.3	4	18.3	4	-1E+10	1	-1E+10	1	-1E+10	1	-1E+10	1	-1E+10	1	-1E+10	1
4901784	80	C	09/12/2017	10:50	-133.003	43.690	0	454.70	0	5.1400	0	34.0760	4	26.931	0	450.568	0	54.7	4	17.7	4	-1E+10	1	-1E+10	1	-1E+10	1	-1E+10	1	-1E+10	1	-1E+10	1
4901784	80	C	09/12/2017	10:50	-133.003	43.690	0	457.30	0	5.1480	0	34.0800	4	26.933	0	453.142	0	52.8	4	17.1	4	-1E+10	1	-1E+10	1	-1E+10	1	-1E+10	1	-1E+10	1	-1E+10	1
4901784	80	C	09/12/2017	10:50	-133.003	43.690	0	460.00	0	5.1670	0	34.0900	4	26.939	0	455.814	0	51.0	4	16.6	4	-1E+10	1	-1E+10	1	-1E+10	1	-1E+10	1	-1E+10	1	-1E+10	1
4901784	80	C	09/12/2017	10:50	-133.003	43.690	0	462.70	0	5.1640	0	34.0920	4	26.941	0	458.487	0	49.8	4	16.2	4	-1E+10	1	-1E+10	1	-1E+10	1	-1E+10	1	-1E+10	1	-1E+10	1
4901784	80	C	09/12/2017	10:50	-133.003	43.690	0	464.50	0	5.1900	0	34.0960	4	26.941	0	460.268	0	49.1	4	15.9	4	-1E+10	1	-1E+10	1	-1E+10	1	-1E+10	1	-1E+10	1	-1E+10	1
4901784	80	C	09/12/2017	10:50	-133.003	43.690	0	467.20	0	5.1900	0	34.0980	4	26.943	0	462.941	0	48.1	4	15.6	4	-1E+10	1	-1E+10	1	-1E+10	1	-1E+10	1	-1E+10	1	-1E+10	1
4901784	80	C	09/12/2017	10:50	-133.003	43.690	0	469.90	0	5.2020	0	34.1000	4	26.943	0	465.613	0	47.0	4	15.3	4	-1E+10	1	-1E+10	1	-1E+10	1	-1E+10	1	-1E+10	1	-1E+10	1
4901784	80	C	09/12/2017	10:50	-133.003	43.690	0	472.60	0	5.1950	0	34.1060	4	26.948	0	468.285	0	46.3	4	15.0	4	-1E+10	1	-1E+10	1	-1E+10	1	-1E+10	1	-1E+10	1	-1E+10	1
4901784	80	C	09/12/2017	10:50	-133.003	43.690	0	475.40	0	5.1750	0	34.1080	4	26.952	0	471.057	0	45.8	4	14.9	4	-1E+10	1	-1E+10	1	-1E+10	1	-1E+10	1	-1E+10	1	-1E+10	1
4901784	80	C	09/12/2017	10:50	-133.003	43.690	0	477.20	0	5.1410	0	34.1060	4	26.955	0	472.838	0	45.4	4	14.7	4	-1E+10	1	-1E+10	1	-1E+10	1	-1E+10	1	-1E+10	1	-1E+10	1
4901784	80	C	09/12/2017	10:50	-133.003	43.690	0	480.00	0	5.1130	0	34.1110	4	26.962	0	475.609	0	44.1	4	14.3	4	-1E+10	1	-1E+10	1	-1E+10	1	-1E+10	1	-1E+10	1	-1E+10	1
4901784	80	C	09/12/2017	10:50	-133.003	43.690	0	482.80	0	5.1060	0	34.1150	4	26.966	0	478.381	0	43.1	4	14.0	4	-1E+10	1	-1E+10	1	-1E+10	1	-1E+10	1	-1E+10	1	-1E+10	1
4901784	80	C	09/12/2017	10:50	-133.003	43.690	0	484.60	0	5.0820	0	34.1160	4	26.970	0	480.162	0	42.4	4	13.7	4	-1E+10	1	-1E+10	1	-1E+10	1	-1E+10	1	-1E+10	1	-1E+10	1
4901784	80	C	09/12/2017	10:50	-133.003	43.690	0	487.40	0	5.0850	0	34.1200	4	26.972	0	482.933	0	41.0	4	13.3	4	-1E+10	1	-1E+10	1	-1E+10	1	-1E+10	1	-1E+10	1	-1E+10	1
4901784	80	C	09/12/2017	10:50	-133.003	43.690	0	490.20	0	5.0900	0	34.1260	4	26.977	0	485.704	0	39.8	4	12.9	4	-1E+10	1	-1E+10	1	-1E+10	1	-1E+10	1	-1E+10	1	-1E+10	1
4901784	80	C	09/12/2017	10:50	-133.003	43.690	0	492.00	0	5.0840	0	34.1300	4	26.980	0	487.486	0	39.1	4	12.7	4	-1E+10	1	-1E+10	1	-1E+10	1	-1E+10	1	-1E+10	1	-1E+10	1
4901784	80	C	09/12/2017	10:50	-133.003	43.690	0	494.90	0	5.0640	0	34.1340	4	26.986	0	490.356	0	38.2	4	12.4	4	-1E+10	1	-1E+10	1	-1E+10	1	-1E+10	1	-1E+10	1	-1E+10	1
4901784	80	C	09/12/2017	10:50	-133.003	43.690	0	498.10	0	5.0360	0	34.1400	4	26.994	0	493.522	0	37.2	4	12.0	4	-1E+10	1	-1E+10	1	-1E+10	1	-1E+10	1	-1E+10	1	-1E+10	1
4901784	80	C	09/12/2017	10:50	-133.003	43.690	0	500.00	0	5.0280	0	34.1440	4	26.998	0	495.403	0	36.7	4	11.9	4	-1E+10	1	-1E+10	1	-1E+10	1	-1E+10	1	-1E+10	1	-1E+10	1
4901784	80	C	09/12/2017	10:50	-133.003	43.690	0	504.60	0	5.0080	0	34.1460	4	27.002	0	499.955	0	36.1	4	11.7	4	-1E+10	1	-1E+10	1	-1E+10	1	-1E+10	1	-1E+10	1	-1E+10	1
4901784	80	C	09/12/2017	10:50	-133.003	43.690	0	510.10	0	4.9750	0	34.1510	4	27.010	0	505.397	0	35.0	4	11.3	4	-1E+10	1	-1E+10	1	-1E+10	1	-1E+10	1	-1E+10	1	-1E+10	1
4901784	80	C	09/12/2017	10:50	-133.003	43.690	0	515.70	0	4.9290	0	34.1570	4	27.020	0	510.939	0	33.9	4	11.0	4	-1E+10	1	-1E+10	1	-1E+10	1	-1E+10	1	-1E+10	1	-1E+10	1
4901784	80	C	09/12/2017	10:50	-133.003	43.690	0	520.50	0	4.9070	0	34.1620	4	27.026	0	515.689	0	33.1	4	10.7	4	-1E+10	1	-1E+10	1	-1E+10	1	-1E+10	1	-1E+10	1	-1E+10	1
4901784	80	C	09/12/2017	10:50	-133.003	43.690	0	525.40	0	4.8740	0	34.1640	4	27.032	0	520.537	0	32.4	4	10.5	4	-1E+10	1	-1E+10	1	-1E+10	1	-1E+10	1	-1E+10	1	-1E+10	1
4901784	80	C	09/12/2017	10:50	-133.003	43.690	0	530.30	0	4.8800	0	34.1710	4	27.036	0	525.386	0	31.8	4	10.3	4	-1E+10	1	-1E+10	1	-1E+10	1	-1E+10	1	-1E+10	1	-1E+10	1
4901784	80	C	09/12/2017	10:50	-133.003	43.690	0	535.30	0	4.8320	0	34.1700	4	27.041	0	530.333	0	32.4	4	10.4	4	-1E+10	1	-1E+10	1	-1E+10	1	-1E+10	1	-1E+10	1	-1E+10	1
4901784	80	C	09/12/2017	10:50	-133.003	43.690	0	540.30	0	4.7380	0	34.1660	4	27.048	0	535.280	0	32.4	4	10.4	4	-1E+10	1	-1E+10	1	-1E+10	1	-1E+10	1	-1E+10	1	-1E+10	1
4901784	80	C	09/12/2017	10:50	-133.003	43.690	0	545.40	0	4.7280	0	34.1730	4	27.055	0	540.326	0	31.6	4	10.1	4	-1E+10	1	-1E+10	1	-1E+10	1	-1E+10	1	-1E+10	1	-1E+10	1
4901784	80	C	09/12/2017	10:50	-133.003	43.690	0	550.40	0	4.6630	0	34.1720	4	27.062	0	545.273	0	31.1	4	10.0	4	-1E+10	1	-1E+10	1	-1E+10	1	-1E+10	1	-1E+10	1	-1E+10	1
4901784	80	C	09/12/2017	10:50	-133.003	43.690	0	555.50	0	4.6310	0	34.1770	4	27.069	0	550.319	0	29.9	4	9.6	4	-1E+10	1	-1E+10	1	-1E+10	1	-1E+10	1	-1E+10	1	-1E+10	1
4901784	80	C	09/12/2017	10:50	-133.003	43.690	0	560.40	0	4.6040	0	34.1810	4	27.075	0	555.167	0	28.7	4	9.2	4	-1E+10	1	-1E+10	1	-1E+10	1	-1E+10	1	-1E+10	1	-1E+10	1
4901784	80	C	09/12/2017	10:50	-133.003	43.690	0	565.40	0	4.5880	0	34.1880	4	27.083	0	560.113	0	27.4	4	8.8	4	-1E+10	1	-1E+10	1	-1E+10	1	-1E+10	1	-1E+10	1	-1E+10	1
4901784	80	C	09/12/2017	10:50	-133.003	43.690	0	570.50	0	4.6010	0	34.1960	4	27.088	0	565.159	0	25.5	4	8.2	4	-1E+10	1	-1E+10	1	-1E+10	1	-1E+10	1	-1E+10	1	-1E+10	1
4901784	80	C	09/12/2017	10:50	-133.003	43.690	0	575.60	0	4.6060	0	34.2060	4	27.095	0	570.204	0	24.5	4	7.9	4	-1E+10	1	-1E+10	1	-1E+10	1	-1E+10	1	-1E+10	1	-1E+10	1
4901784	80	C	09/12/2017	10:50	-133.003	43.690	0	580.70	0	4.6220	0	34.2130	4	27.099	0	575.249	0	23.3	4	7.5	4	-1E+10	1	-1E+10	1	-1E+10	1	-1E+10	1	-1E+10	1	-1E+10	1
4901784	80	C	09/12/2017	10:50	-133.003	43.690	0	585.70	0	4.6410	0	34.2190	4	27.102	0	580.195	0	22.4	4	7.2	4	-1E+10	1	-1E+10	1	-1E+10	1	-1E+10	1	-1E+10	1	-1E+10	1
4901784	80	C	09/12/2017	10:50	-133.003	43.690	0	590.00	0	4.6230	0	34.2240	4	27.108	0	584.449	0	22.3	4	7.1	4	-1E+10	1	-1E+10	1	-1E+10	1	-1E+10	1	-1E+10	1	-1E+10	1
4901784	80	C	09/12/2017	10:50	-133.003	43.690	0	594.30	0	4.6000	0	34.2210	4	27.108	0	588.702	0	22.2	4	7.1	4	-1E+10	1	-1E+10	1	-1E+10	1	-1E+10	1	-1E+10	1	-1E+10	1
4901784	80	C	09/12/2017	10:50	-133.003	43.690	0	599.40	0	4.5630	0	34.2240	4	27.114	0	593.747	0	21.8	4	7.0	4	-1E+10	1	-1E+10	1	-1E+10	1	-1E+10	1	-1E+10	1	-1E+10	1
4901784	80	C	09/12/2017	10:50	-133.003	43.690	0	604.60	0	4.5400	0	34.2280	4	27.120	0	598.890	0	21.1	4	6.7	4	-1E+10	1	-1E+10	1	-1E+10	1	-1E+10	1	-1E+10	1	-1E+10	1
4901784	80	C	09/12/2017	10:50	-133.003	43.690	0	609.80	0	4.5250	0	34.2350	4	27.127	0	604.034	0	20.1	4	6.4	4	-1E+10	1	-1E+10	1	-1E+10	1	-1E+10	1	-1E+10	1	-1E+10	1
4901784	80	C	09/12/2017	10:50	-133.003	43.690	0	615.00	0	4.5140	0	34.2400	4	27.132	0	609.177	0	19.4	4	6.2	4	-1E+10	1	-1E+10	1	-1E+10	1	-1E+10	1	-1E+10	1	-1E+10	1
4901784	80	C	09/12/2017	10:50	-133.003	43.690	0	620.20	0	4.5030	0	34.2440	4	27.137	0	614.320	0	18.7	4	6.0	4	-1E+10	1	-1E+10	1	-1E+10	1	-1E+10	1	-1E+10	1	-1E+10	1
4901784	80	C	09/12/2017	10:50	-133.003	43.690	0	625.40	0	4.4780	0	34.2510	4	27.145	0	619.463	0	18.2	4	5.8	4	-1E+10	1	-1E+10	1	-1E+10	1	-1E+10	1	-1E+10	1	-1E+10	1
4901784	80	C	09/12/2017	10:50	-133.003	43.690	0	630.60	0	4.4520	0	34.2560	4	27.152	0	624.606	0	17.9	4	5.7	4	-1E+10	1	-1E+10	1	-1E+10	1	-1E+10	1	-1E+10	1	-1E+10	1
4901784	80	C	09/12/2017	10:50	-133.003	43.690	0	635.70	0	4.4360	0	34.2580	4	27.155	0	629.650	0	17.8	4	5.7	4	-1E+10	1	-1E+10	1	-1E+10	1	-1E+10	1	-1E+10	1	-1E+10	1
4901784	80	C	09/12/2017	10:50	-133.003	43.690	0	640.20	0	4.4250	0	34.2590	4	27.157	0	634.100	0	17.5	4	5.6	4	-1E+10	1	-1E+10	1	-1E+10	1	-1E+10	1	-1E+10	1	-1E+10	1
4901784	80	C	09/12/2017	10:50	-133.003	43.690	0	644.60	0	4.3800	0	34.2620	4	27.164	0	638.451	0	17.3	4	5.5	4	-1E+10	1	-1E+10	1	-1E+10	1	-1E+10	1	-1E+10	1	-1E+10	1
4901784	80	C	09/12/2017	10:50	-133.003	43.690	0	649.90	0	4.3730	0	34.2670	4	27.169	0	643.693	0	16.9	4	5.4	4	-1E+10	1	-1E+10	1	-1E+10	1	-1E+10	1	-1E+10	1	-1E+10	1
4901784	80	C	09/12/2017	10:50	-133.003	43.690	0	655.30	0	4.3440	0	34.2690	4	27.174	0	649.032	0	16.6	4	5.3	4	-1E+10	1	-1E+10	1	-1E+10	1	-1E+10	1	-1E+10	1	-1E+10	1
4901784	80	C	09/12/2017	10:50	-133.003	43.690	0	660.60	0	4.3220	0	34.2720	4	27.179	0	654.273	0	16.6	4	5.3	4	-1E+10	1	-1E+10	1	-1E+10	1	-1E+10	1	-1E+10	1	-1E+10	1
4901784	80	C	09/12/2017	10:50	-133.003	43.690	0	665.00	0	4.2540	0	34.2680	4	27.183	0	658.624	0	16.3	4	5.2	4	-1E+10	1	-1E+10	1	-1E+10	1	-1E+10	1	-1E+10	1	-1E+10	1
4901784	80	C	09/12/2017	10:50	-133.003	43.690	0	669.50	0	4.2420	0	34.2730	4	27.188	0	663.074	0	15.8	4	5.0	4	-1E+10	1	-1E+10	1	-1E+10	1	-1E+10	1	-1E+10	1	-1E+10	1
4901784	80	C	09/12/2017	10:50	-133.003	43.690	0	674.80	0	4.2780	0	34.2860	4	27.195	0	668.315	0	15.4	4	4.9	4	-1E+10	1	-1E+10	1	-1E+10	1	-1E+10	1	-1E+10	1	-1E+10	1
4901784	80	C	09/12/2017	10:50	-133.003	43.690	0	680.20	0	4.2360	0	34.2850	4	27.198	0	673.654	0	15.5	4	4.9	4	-1E+10	1	-1E+10	1	-1E+10	1	-1E+10	1	-1E+10	1	-1E+10	1
4901784	80	C	09/12/2017	10:50	-133.003	43.690	0	685.50	0	4.2290	0	34.2870	4	27.201	0	678.894	0	15.6	4	5.0	4	-1E+10	1	-1E+10	1	-1E+10	1	-1E+10	1	-1E+10	1	-1E+10	1
4901784	80	C	09/12/2017	10:50	-133.003	43.690	0	689.90	0	4.1830	0	34.2830	4	27.202	0	683.245	0	16.1	4	5.1	4	-1E+10	1	-1E+10	1	-1E+10	1	-1E+10	1	-1E+10	1	-1E+10	1
4901784	80	C	09/12/2017	10:50	-133.003	43.690	0	694.30	0	4.0940	0	34.2780	4	27.207	0	687.595	0	16.1	4	5.1	4	-1E+10	1	-1E+10	1	-1E+10	1	-1E+10	1	-1E+10	1	-1E+10	1
4901784	80	C	09/12/2017	10:50	-133.003	43.690	0	699.70	0	4.0810	0	34.2800	4	27.210	0	692.934	0	15.7	4	5.0	4	-1E+10	1	-1E+10	1	-1E+10	1	-1E+10	1	-1E+10	1	-1E+10	1
4901784	80	C	09/12/2017	10:50	-133.003	43.690	0	705.00	0	4.0840	0	34.2910	4	27.219	0	698.174	0	15.0	4	4.8	4	-1E+10	1	-1E+10	1	-1E+10	1	-1E+10	1	-1E+10	1	-1E+10	1
4901784	80	C	09/12/2017	10:50	-133.003	43.690	0	710.20	0	4.0510	0	34.2960	4	27.226	0	703.315	0	14.8	4	4.7	4	-1E+10	1	-1E+10	1	-1E+10	1	-1E+10	1	-1E+10	1	-1E+10	1
4901784	80	C	09/12/2017	10:50	-133.003	43.690	0	715.50	0	4.0180	0	34.3000	4	27.233	0	708.554	0	14.6	4	4.6	4	-1E+10	1	-1E+10	1	-1E+10	1	-1E+10	1	-1E+10	1	-1E+10	1
4901784	80	C	09/12/2017	10:50	-133.003	43.690	0	720.00	0	4.0010	0	34.3040	4	27.238	0	713.003	0	14.4	4	4.5	4	-1E+10	1	-1E+10	1	-1E+10	1	-1E+10	1	-1E+10	1	-1E+10	1
4901784	80	C	09/12/2017	10:50	-133.003	43.690	0	724.50	0	3.9880	0	34.3070	4	27.242	0	717.452	0	14.2	4	4.5	4	-1E+10	1	-1E+10	1	-1E+10	1	-1E+10	1	-1E+10	1	-1E+10	1
4901784	80	C	09/12/2017	10:50	-133.003	43.690	0	729.90	0	3.9730	0	34.3110	4	27.246	0	722.790	0	14.0	4	4.4	4	-1E+10	1	-1E+10	1	-1E+10	1	-1E+10	1	-1E+10	1	-1E+10	1
4901784	80	C	09/12/2017	10:50	-133.003	43.690	0	735.30	0	3.9530	0	34.3140	4	27.251	0	728.128	0	13.7	4	4.3	4	-1E+10	1	-1E+10	1	-1E+10	1	-1E+10	1	-1E+10	1	-1E+10	1
4901784	80	C	09/12/2017	10:50	-133.003	43.690	0	739.90	0	3.9340	0	34.3200	4	27.258	0	732.675	0	13.5	4	4.3	4	-1E+10	1	-1E+10	1	-1E+10	1	-1E+10	1	-1E+10	1	-1E+10	1
4901784	80	C	09/12/2017	10:50	-133.003	43.690	0	744.50	0	3.9240	0	34.3230	4	27.261	0	737.222	0	13.3	4	4.2	4	-1E+10	1	-1E+10	1	-1E+10	1	-1E+10	1	-1E+10	1	-1E+10	1
4901784	80	C	09/12/2017	10:50	-133.003	43.690	0	749.90	0	3.9110	0	34.3270	4	27.266	0	742.559	0	13.1	4	4.1	4	-1E+10	1	-1E+10	1	-1E+10	1	-1E+10	1	-1E+10	1	-1E+10	1
4901784	80	C	09/12/2017	10:50	-133.003	43.690	0	754.50	0	3.9040	0	34.3300	4	27.269	0	747.106	0	13.0	4	4.1	4	-1E+10	1	-1E+10	1	-1E+10	1	-1E+10	1	-1E+10	1	-1E+10	1
4901784	80	C	09/12/2017	10:50	-133.003	43.690	0	759.20	0	3.8920	0	34.3340	4	27.273	0	751.752	0	12.8	4	4.0	4	-1E+10	1	-1E+10	1	-1E+10	1	-1E+10	1	-1E+10	1	-1E+10	1
4901784	80	C	09/12/2017	10:50	-133.003	43.690	0	764.50	0	3.8800	0	34.3390	4	27.278	0	756.990	0	12.6	4	4.0	4	-1E+10	1	-1E+10	1	-1E+10	1	-1E+10	1	-1E+10	1	-1E+10	1
4901784	80	C	09/12/2017	10:50	-133.003	43.690	0	769.40	0	3.8680	0	34.3430	4	27.283	0	761.833	0	12.4	4	3.9	4	-1E+10	1	-1E+10	1	-1E+10	1	-1E+10	1	-1E+10	1	-1E+10	1
4901784	80	C	09/12/2017	10:50	-133.003	43.690	0	774.30	0	3.8580	0	34.3450	4	27.285	0	766.676	0	12.3	4	3.9	4	-1E+10	1	-1E+10	1	-1E+10	1	-1E+10	1	-1E+10	1	-1E+10	1
4901784	80	C	09/12/2017	10:50	-133.003	43.690	0	779.30	0	3.8470	0	34.3500	4	27.291	0	771.617	0	12.1	4	3.8	4	-1E+10	1	-1E+10	1	-1E+10	1	-1E+10	1	-1E+10	1	-1E+10	1
4901784	80	C	09/12/2017	10:50	-133.003	43.690	0	784.30	0	3.8370	0	34.3530	4	27.294	0	776.559	0	12.0	4	3.8	4	-1E+10	1	-1E+10	1	-1E+10	1	-1E+10	1	-1E+10	1	-1E+10	1
4901784	80	C	09/12/2017	10:50	-133.003	43.690	0	789.20	0	3.8300	0	34.3560	4	27.297	0	781.401	0	11.9	4	3.8	4	-1E+10	1	-1E+10	1	-1E+10	1	-1E+10	1	-1E+10	1	-1E+10	1
4901784	80	C	09/12/2017	10:50	-133.003	43.690	0	795.00	0	3.8180	0	34.3600	4	27.302	0	787.133	0	11.8	4	3.7	4	-1E+10	1	-1E+10	1	-1E+10	1	-1E+10	1	-1E+10	1	-1E+10	1
4901784	80	C	09/12/2017	10:50	-133.003	43.690	0	800.70	0	3.8040	0	34.3660	4	27.308	0	792.766	0	11.6	4	3.7	4	-1E+10	1	-1E+10	1	-1E+10	1	-1E+10	1	-1E+10	1	-1E+10	1
4901784	80	C	09/12/2017	10:50	-133.003	43.690	0	805.70	0	3.7940	0	34.3690	4	27.311	0	797.707	0	11.6	4	3.6	4	-1E+10	1	-1E+10	1	-1E+10	1	-1E+10	1	-1E+10	1	-1E+10	1
4901784	80	C	09/12/2017	10:50	-133.003	43.690	0	810.80	0	3.7870	0	34.3710	4	27.313	0	802.746	0	11.6	4	3.6	4	-1E+10	1	-1E+10	1	-1E+10	1	-1E+10	1	-1E+10	1	-1E+10	1
4901784	80	C	09/12/2017	10:50	-133.003	43.690	0	815.10	0	3.7850	0	34.3710	4	27.314	0	806.995	0	11.5	4	3.6	4	-1E+10	1	-1E+10	1	-1E+10	1	-1E+10	1	-1E+10	1	-1E+10	1
4901784	80	C	09/12/2017	10:50	-133.003	43.690	0	819.40	0	3.7830	0	34.3710	4	27.314	0	811.244	0	11.5	4	3.6	4	-1E+10	1	-1E+10	1	-1E+10	1	-1E+10	1	-1E+10	1	-1E+10	1
4901784	80	C	09/12/2017	10:50	-133.003	43.690	0	824.50	0	3.7610	0	34.3770	4	27.321	0	816.283	0	11.4	4	3.6	4	-1E+10	1	-1E+10	1	-1E+10	1	-1E+10	1	-1E+10	1	-1E+10	1
4901784	80	C	09/12/2017	10:50	-133.003	43.690	0	829.70	0	3.7460	0	34.3790	4	27.324	0	821.421	0	11.3	4	3.6	4	-1E+10	1	-1E+10	1	-1E+10	1	-1E+10	1	-1E+10	1	-1E+10	1
4901784	80	C	09/12/2017	10:50	-133.003	43.690	0	834.90	0	3.7350	0	34.3830	4	27.328	0	826.559	0	11.3	4	3.5	4	-1E+10	1	-1E+10	1	-1E+10	1	-1E+10	1	-1E+10	1	-1E+10	1
4901784	80	C	09/12/2017	10:50	-133.003	43.690	0	840.20	0	3.7230	0	34.3870	4	27.333	0	831.796	0	11.2	4	3.5	4	-1E+10	1	-1E+10	1	-1E+10	1	-1E+10	1	-1E+10	1	-1E+10	1
4901784	80	C	09/12/2017	10:50	-133.003	43.690	0	845.60	0	3.7050	0	34.3920	4	27.339	0	837.131	0	11.2	4	3.5	4	-1E+10	1	-1E+10	1	-1E+10	1	-1E+10	1	-1E+10	1	-1E+10	1
4901784	80	C	09/12/2017	10:50	-133.003	43.690	0	850.10	0	3.6980	0	34.3930	4	27.340	0	841.577	0	11.2	4	3.5	4	-1E+10	1	-1E+10	1	-1E+10	1	-1E+10	1	-1E+10	1	-1E+10	1
4901784	80	C	09/12/2017	10:50	-133.003	43.690	0	854.60	0	3.6940	0	34.3940	4	27.341	0	846.022	0	11.2	4	3.5	4	-1E+10	1	-1E+10	1	-1E+10	1	-1E+10	1	-1E+10	1	-1E+10	1
4901784	80	C	09/12/2017	10:50	-133.003	43.690	0	860.30	0	3.6830	0	34.3970	4	27.345	0	851.654	0	11.2	4	3.5	4	-1E+10	1	-1E+10	1	-1E+10	1	-1E+10	1	-1E+10	1	-1E+10	1
4901784	80	C	09/12/2017	10:50	-133.003	43.690	0	865.30	0	3.6710	0	34.3980	4	27.347	0	856.593	0	11.2	4	3.5	4	-1E+10	1	-1E+10	1	-1E+10	1	-1E+10	1	-1E+10	1	-1E+10	1
4901784	80	C	09/12/2017	10:50	-133.003	43.690	0	870.00	0	3.6550	0	34.4030	4	27.352	0	861.236	0	11.2	4	3.5	4	-1E+10	1	-1E+10	1	-1E+10	1	-1E+10	1	-1E+10	1	-1E+10	1
4901784	80	C	09/12/2017	10:50	-133.003	43.690	0	874.70	0	3.6340	0	34.4070	4	27.358	0	865.879	0	11.2	4	3.5	4	-1E+10	1	-1E+10	1	-1E+10	1	-1E+10	1	-1E+10	1	-1E+10	1
4901784	80	C	09/12/2017	10:50	-133.003	43.690	0	879.60	0	3.6240	0	34.4090	4	27.360	0	870.719	0	11.1	4	3.5	4	-1E+10	1	-1E+10	1	-1E+10	1	-1E+10	1	-1E+10	1	-1E+10	1
4901784	80	C	09/12/2017	10:50	-133.003	43.690	0	884.40	0	3.5980	0	34.4160	4	27.368	0	875.461	0	11.1	4	3.5	4	-1E+10	1	-1E+10	1	-1E+10	1	-1E+10	1	-1E+10	1	-1E+10	1
4901784	80	C	09/12/2017	10:50	-133.003	43.690	0	889.30	0	3.5890	0	34.4190	4	27.372	0	880.301	0	11.2	4	3.5	4	-1E+10	1	-1E+10	1	-1E+10	1	-1E+10	1	-1E+10	1	-1E+10	1
4901784	80	C	09/12/2017	10:50	-133.003	43.690	0	894.30	0	3.5780	0	34.4210	4	27.374	0	885.240	0	11.2	4	3.5	4	-1E+10	1	-1E+10	1	-1E+10	1	-1E+10	1	-1E+10	1	-1E+10	1
4901784	80	C	09/12/2017	10:50	-133.003	43.690	0	899.30	0	3.5590	0	34.4260	4	27.380	0	890.179	0	11.2	4	3.5	4	-1E+10	1	-1E+10	1	-1E+10	1	-1E+10	1	-1E+10	1	-1E+10	1
4901784	80	C	09/12/2017	10:50	-133.003	43.690	0	904.40	0	3.5470	0	34.4270	4	27.382	0	895.216	0	11.3	4	3.5	4	-1E+10	1	-1E+10	1	-1E+10	1	-1E+10	1	-1E+10	1	-1E+10	1
4901784	80	C	09/12/2017	10:50	-133.003	43.690	0	909.50	0	3.5330	0	34.4330	4	27.388	0	900.253	0	11.3	4	3.5	4	-1E+10	1	-1E+10	1	-1E+10	1	-1E+10	1	-1E+10	1	-1E+10	1
4901784	80	C	09/12/2017	10:50	-133.003	43.690	0	914.50	0	3.5260	0	34.4320	4	27.388	0	905.192	0	11.2	4	3.5	4	-1E+10	1	-1E+10	1	-1E+10	1	-1E+10	1	-1E+10	1	-1E+10	1
4901784	80	C	09/12/2017	10:50	-133.003	43.690	0	919.60	0	3.5190	0	34.4350	4	27.392	0	910.229	0	11.3	4	3.5	4	-1E+10	1	-1E+10	1	-1E+10	1	-1E+10	1	-1E+10	1	-1E+10	1
4901784	80	C	09/12/2017	10:50	-133.003	43.690	0	924.70	0	3.5100	0	34.4380	4	27.395	0	915.266	0	11.4	4	3.6	4	-1E+10	1	-1E+10	1	-1E+10	1	-1E+10	1	-1E+10	1	-1E+10	1
4901784	80	C	09/12/2017	10:50	-133.003	43.690	0	929.80	0	3.4950	0	34.4420	4	27.399	0	920.302	0	11.5	4	3.6	4	-1E+10	1	-1E+10	1	-1E+10	1	-1E+10	1	-1E+10	1	-1E+10	1
4901784	80	C	09/12/2017	10:50	-133.003	43.690	0	935.10	0	3.4830	0	34.4450	4	27.403	0	925.536	0	11.5	4	3.6	4	-1E+10	1	-1E+10	1	-1E+10	1	-1E+10	1	-1E+10	1	-1E+10	1
4901784	80	C	09/12/2017	10:50	-133.003	43.690	0	940.50	0	3.4660	0	34.4490	4	27.408	0	930.869	0	11.6	4	3.6	4	-1E+10	1	-1E+10	1	-1E+10	1	-1E+10	1	-1E+10	1	-1E+10	1
4901784	80	C	09/12/2017	10:50	-133.003	43.690	0	944.90	0	3.4580	0	34.4510	4	27.410	0	935.214	0	11.6	4	3.6	4	-1E+10	1	-1E+10	1	-1E+10	1	-1E+10	1	-1E+10	1	-1E+10	1
4901784	80	C	09/12/2017	10:50	-133.003	43.690	0	949.20	0	3.4460	0	34.4540	4	27.414	0	939.461	0	11.7	4	3.6	4	-1E+10	1	-1E+10	1	-1E+10	1	-1E+10	1	-1E+10	1	-1E+10	1
4901784	80	C	09/12/2017	10:50	-133.003	43.690	0	954.50	0	3.4340	0	34.4560	4	27.417	0	944.694	0	11.7	4	3.6	4	-1E+10	1	-1E+10	1	-1E+10	1	-1E+10	1	-1E+10	1	-1E+10	1
4901784	80	C	09/12/2017	10:50	-133.003	43.690	0	959.80	0	3.4170	0	34.4590	4	27.421	0	949.928	0	11.7	4	3.7	4	-1E+10	1	-1E+10	1	-1E+10	1	-1E+10	1	-1E+10	1	-1E+10	1
4901784	80	C	09/12/2017	10:50	-133.003	43.690	0	965.10	0	3.4030	0	34.4630	4	27.425	0	955.161	0	11.9	4	3.7	4	-1E+10	1	-1E+10	1	-1E+10	1	-1E+10	1	-1E+10	1	-1E+10	1
4901784	80	C	09/12/2017	10:50	-133.003	43.690	0	970.50	0	3.3920	0	34.4660	4	27.429	0	960.493	0	11.9	4	3.7	4	-1E+10	1	-1E+10	1	-1E+10	1	-1E+10	1	-1E+10	1	-1E+10	1
4901784	80	C	09/12/2017	10:50	-133.003	43.690	0	975.00	0	3.3840	0	34.4680	4	27.431	0	964.937	0	12.0	4	3.7	4	-1E+10	1	-1E+10	1	-1E+10	1	-1E+10	1	-1E+10	1	-1E+10	1
4901784	80	C	09/12/2017	10:50	-133.003	43.690	0	979.40	0	3.3740	0	34.4700	4	27.434	0	969.281	0	12.1	4	3.8	4	-1E+10	1	-1E+10	1	-1E+10	1	-1E+10	1	-1E+10	1	-1E+10	1
4901784	80	C	09/12/2017	10:50	-133.003	43.690	0	984.70	0	3.3570	0	34.4740	4	27.438	0	974.514	0	12.2	4	3.8	4	-1E+10	1	-1E+10	1	-1E+10	1	-1E+10	1	-1E+10	1	-1E+10	1
4901784	80	C	09/12/2017	10:50	-133.003	43.690	0	990.10	0	3.3550	0	34.4760	4	27.440	0	979.845	0	12.5	4	3.9	4	-1E+10	1	-1E+10	1	-1E+10	1	-1E+10	1	-1E+10	1	-1E+10	1
4901784	80	C	09/12/2017	10:50	-133.003	43.690	0	995.40	0	3.3480	0	34.4790	4	27.443	0	985.078	0	12.7	4	3.9	4	-1E+10	1	-1E+10	1	-1E+10	1	-1E+10	1	-1E+10	1	-1E+10	1
4901784	80	C	09/12/2017	10:50	-133.003	43.690	0	1000.00	0	3.3480	0	34.4810	4	27.445	0	989.619	0	12.8	4	4.0	4	-1E+10	1	-1E+10	1	-1E+10	1	-1E+10	1	-1E+10	1	-1E+10	1
4901784	80	C	09/12/2017	10:50	-133.003	43.690	0	1004.50	0	3.3440	0	34.4810	4	27.445	0	994.062	0	13.0	4	4.0	4	-1E+10	1	-1E+10	1	-1E+10	1	-1E+10	1	-1E+10	1	-1E+10	1
4901784	80	C	09/12/2017	10:50	-133.003	43.690	0	1010.00	0	3.3340	0	34.4860	4	27.450	0	999.492	0	13.1	4	4.1	4	-1E+10	1	-1E+10	1	-1E+10	1	-1E+10	1	-1E+10	1	-1E+10	1
4901784	80	C	09/12/2017	10:50	-133.003	43.690	0	1015.40	0	3.3280	0	34.4880	4	27.453	0	1004.823	0	13.2	4	4.1	4	-1E+10	1	-1E+10	1	-1E+10	1	-1E+10	1	-1E+10	1	-1E+10	1
4901784	80	C	09/12/2017	10:50	-133.003	43.690	0	1020.00	0	3.3190	0	34.4900	4	27.455	0	1009.364	0	13.3	4	4.2	4	-1E+10	1	-1E+10	1	-1E+10	1	-1E+10	1	-1E+10	1	-1E+10	1
4901784	80	C	09/12/2017	10:50	-133.003	43.690	0	1024.50	0	3.3120	0	34.4910	4	27.457	0	1013.806	0	13.4	4	4.2	4	-1E+10	1	-1E+10	1	-1E+10	1	-1E+10	1	-1E+10	1	-1E+10	1
4901784	80	C	09/12/2017	10:50	-133.003	43.690	0	1030.00	0	3.3060	0	34.4920	4	27.458	0	1019.235	0	13.6	4	4.2	4	-1E+10	1	-1E+10	1	-1E+10	1	-1E+10	1	-1E+10	1	-1E+10	1
4901784	80	C	09/12/2017	10:50	-133.003	43.690	0	1034.60	0	3.2970	0	34.4950	4	27.461	0	1023.776	0	13.7	4	4.3	4	-1E+10	1	-1E+10	1	-1E+10	1	-1E+10	1	-1E+10	1	-1E+10	1
4901784	80	C	09/12/2017	10:50	-133.003	43.690	0	1039.20	0	3.2900	0	34.4960	4	27.463	0	1028.316	0	13.8	4	4.3	4	-1E+10	1	-1E+10	1	-1E+10	1	-1E+10	1	-1E+10	1	-1E+10	1
4901784	80	C	09/12/2017	10:50	-133.003	43.690	0	1044.50	0	3.2820	0	34.4970	4	27.464	0	1033.548	0	14.0	4	4.3	4	-1E+10	1	-1E+10	1	-1E+10	1	-1E+10	1	-1E+10	1	-1E+10	1
4901784	80	C	09/12/2017	10:50	-133.003	43.690	0	1049.30	0	3.2750	0	34.5010	4	27.468	0	1038.286	0	14.1	4	4.4	4	-1E+10	1	-1E+10	1	-1E+10	1	-1E+10	1	-1E+10	1	-1E+10	1
4901784	80	C	09/12/2017	10:50	-133.003	43.690	0	1054.90	0	3.2660	0	34.5010	4	27.469	0	1043.813	0	14.3	4	4.4	4	-1E+10	1	-1E+10	1	-1E+10	1	-1E+10	1	-1E+10	1	-1E+10	1
4901784	80	C	09/12/2017	10:50	-133.003	43.690	0	1060.60	0	3.2560	0	34.5050	4	27.473	0	1049.439	0	14.5	4	4.5	4	-1E+10	1	-1E+10	1	-1E+10	1	-1E+10	1	-1E+10	1	-1E+10	1
4901784	80	C	09/12/2017	10:50	-133.003	43.690	0	1065.60	0	3.2500	0	34.5070	4	27.475	0	1054.374	0	14.5	4	4.5	4	-1E+10	1	-1E+10	1	-1E+10	1	-1E+10	1	-1E+10	1	-1E+10	1
4901784	80	C	09/12/2017	10:50	-133.003	43.690	0	1070.50	0	3.2400	0	34.5070	4	27.476	0	1059.210	0	14.4	4	4.5	4	-1E+10	1	-1E+10	1	-1E+10	1	-1E+10	1	-1E+10	1	-1E+10	1
4901784	80	C	09/12/2017	10:50	-133.003	43.690	0	1075.60	0	3.2220	0	34.5070	4	27.478	0	1064.243	0	14.5	4	4.5	4	-1E+10	1	-1E+10	1	-1E+10	1	-1E+10	1	-1E+10	1	-1E+10	1
4901784	80	C	09/12/2017	10:50	-133.003	43.690	0	1080.50	0	3.2170	0	34.5100	4	27.481	0	1069.079	0	14.7	4	4.6	4	-1E+10	1	-1E+10	1	-1E+10	1	-1E+10	1	-1E+10	1	-1E+10	1
4901784	80	C	09/12/2017	10:50	-133.003	43.690	0	1085.60	0	3.2070	0	34.5110	4	27.483	0	1074.112	0	14.7	4	4.6	4	-1E+10	1	-1E+10	1	-1E+10	1	-1E+10	1	-1E+10	1	-1E+10	1
4901784	80	C	09/12/2017	10:50	-133.003	43.690	0	1090.70	0	3.1920	0	34.5130	4	27.486	0	1079.145	0	14.7	4	4.6	4	-1E+10	1	-1E+10	1	-1E+10	1	-1E+10	1	-1E+10	1	-1E+10	1
4901784	80	C	09/12/2017	10:50	-133.003	43.690	0	1095.00	0	3.1900	0	34.5120	4	27.485	0	1083.388	0	14.8	4	4.6	4	-1E+10	1	-1E+10	1	-1E+10	1	-1E+10	1	-1E+10	1	-1E+10	1
4901784	80	C	09/12/2017	10:50	-133.003	43.690	0	1099.20	0	3.1750	0	34.5150	4	27.489	0	1087.533	0	15.0	4	4.6	4	-1E+10	1	-1E+10	1	-1E+10	1	-1E+10	1	-1E+10	1	-1E+10	1
4901784	80	C	09/12/2017	10:50	-133.003	43.690	0	1104.40	0	3.1820	0	34.5160	4	27.489	0	1092.664	0	15.2	4	4.7	4	-1E+10	1	-1E+10	1	-1E+10	1	-1E+10	1	-1E+10	1	-1E+10	1
4901784	80	C	09/12/2017	10:50	-133.003	43.690	0	1109.50	0	3.1710	0	34.5160	4	27.490	0	1097.696	0	15.0	4	4.6	4	-1E+10	1	-1E+10	1	-1E+10	1	-1E+10	1	-1E+10	1	-1E+10	1
4901784	80	C	09/12/2017	10:50	-133.003	43.690	0	1114.80	0	3.1510	0	34.5170	4	27.493	0	1102.926	0	14.9	4	4.6	4	-1E+10	1	-1E+10	1	-1E+10	1	-1E+10	1	-1E+10	1	-1E+10	1
4901784	80	C	09/12/2017	10:50	-133.003	43.690	0	1119.90	0	3.1410	0	34.5190	4	27.495	0	1107.958	0	14.9	4	4.6	4	-1E+10	1	-1E+10	1	-1E+10	1	-1E+10	1	-1E+10	1	-1E+10	1
4901784	80	C	09/12/2017	10:50	-133.003	43.690	0	1124.70	0	3.1390	0	34.5200	4	27.496	0	1112.694	0	15.0	4	4.6	4	-1E+10	1	-1E+10	1	-1E+10	1	-1E+10	1	-1E+10	1	-1E+10	1
4901784	80	C	09/12/2017	10:50	-133.003	43.690	0	1129.40	0	3.1350	0	34.5200	4	27.497	0	1117.332	0	14.8	4	4.6	4	-1E+10	1	-1E+10	1	-1E+10	1	-1E+10	1	-1E+10	1	-1E+10	1
4901784	80	C	09/12/2017	10:50	-133.003	43.690	0	1134.30	0	3.1170	0	34.5190	4	27.498	0	1122.166	0	14.7	4	4.5	4	-1E+10	1	-1E+10	1	-1E+10	1	-1E+10	1	-1E+10	1	-1E+10	1
4901784	80	C	09/12/2017	10:50	-133.003	43.690	0	1139.20	0	3.1130	0	34.5190	4	27.498	0	1127.001	0	14.8	4	4.6	4	-1E+10	1	-1E+10	1	-1E+10	1	-1E+10	1	-1E+10	1	-1E+10	1
4901784	80	C	09/12/2017	10:50	-133.003	43.690	0	1145.00	0	3.1030	0	34.5200	4	27.500	0	1132.723	0	15.0	4	4.6	4	-1E+10	1	-1E+10	1	-1E+10	1	-1E+10	1	-1E+10	1	-1E+10	1
4901784	80	C	09/12/2017	10:50	-133.003	43.690	0	1150.70	0	3.0980	0	34.5230	4	27.503	0	1138.346	0	15.1	4	4.7	4	-1E+10	1	-1E+10	1	-1E+10	1	-1E+10	1	-1E+10	1	-1E+10	1
4901784	80	C	09/12/2017	10:50	-133.003	43.690	0	1155.70	0	3.0820	0	34.5240	4	27.505	0	1143.279	0	15.1	4	4.7	4	-1E+10	1	-1E+10	1	-1E+10	1	-1E+10	1	-1E+10	1	-1E+10	1
4901784	80	C	09/12/2017	10:50	-133.003	43.690	0	1160.60	0	3.0730	0	34.5250	4	27.507	0	1148.113	0	15.2	4	4.7	4	-1E+10	1	-1E+10	1	-1E+10	1	-1E+10	1	-1E+10	1	-1E+10	1
4901784	80	C	09/12/2017	10:50	-133.003	43.690	0	1165.60	0	3.0670	0	34.5260	4	27.508	0	1153.046	0	15.3	4	4.7	4	-1E+10	1	-1E+10	1	-1E+10	1	-1E+10	1	-1E+10	1	-1E+10	1
4901784	80	C	09/12/2017	10:50	-133.003	43.690	0	1170.60	0	3.0610	0	34.5270	4	27.509	0	1157.978	0	15.5	4	4.8	4	-1E+10	1	-1E+10	1	-1E+10	1	-1E+10	1	-1E+10	1	-1E+10	1
4901784	80	C	09/12/2017	10:50	-133.003	43.690	0	1175.70	0	3.0520	0	34.5270	4	27.510	0	1163.009	0	15.6	4	4.8	4	-1E+10	1	-1E+10	1	-1E+10	1	-1E+10	1	-1E+10	1	-1E+10	1
4901784	80	C	09/12/2017	10:50	-133.003	43.690	0	1179.90	0	3.0450	0	34.5300	4	27.513	0	1167.152	0	15.7	4	4.8	4	-1E+10	1	-1E+10	1	-1E+10	1	-1E+10	1	-1E+10	1	-1E+10	1
4901784	80	C	09/12/2017	10:50	-133.003	43.690	0	1184.20	0	3.0370	0	34.5300	4	27.514	0	1171.393	0	15.8	4	4.9	4	-1E+10	1	-1E+10	1	-1E+10	1	-1E+10	1	-1E+10	1	-1E+10	1
4901784	80	C	09/12/2017	10:50	-133.003	43.690	0	1189.40	0	3.0350	0	34.5310	4	27.515	0	1176.523	0	16.0	4	5.0	4	-1E+10	1	-1E+10	1	-1E+10	1	-1E+10	1	-1E+10	1	-1E+10	1
4901784	80	C	09/12/2017	10:50	-133.003	43.690	0	1194.50	0	3.0330	0	34.5340	4	27.518	0	1181.553	0	16.3	4	5.0	4	-1E+10	1	-1E+10	1	-1E+10	1	-1E+10	1	-1E+10	1	-1E+10	1
4901784	80	C	09/12/2017	10:50	-133.003	43.690	0	1199.70	0	3.0250	0	34.5350	4	27.519	0	1186.682	0	16.3	4	5.0	4	-1E+10	1	-1E+10	1	-1E+10	1	-1E+10	1	-1E+10	1	-1E+10	1
4901784	80	C	09/12/2017	10:50	-133.003	43.690	0	1204.80	0	3.0170	0	34.5350	4	27.520	0	1191.712	0	16.4	4	5.1	4	-1E+10	1	-1E+10	1	-1E+10	1	-1E+10	1	-1E+10	1	-1E+10	1
4901784	80	C	09/12/2017	10:50	-133.003	43.690	0	1210.10	0	3.0090	0	34.5360	4	27.522	0	1196.940	0	16.5	4	5.1	4	-1E+10	1	-1E+10	1	-1E+10	1	-1E+10	1	-1E+10	1	-1E+10	1
4901784	80	C	09/12/2017	10:50	-133.003	43.690	0	1215.30	0	2.9970	0	34.5370	4	27.524	0	1202.068	0	16.7	4	5.2	4	-1E+10	1	-1E+10	1	-1E+10	1	-1E+10	1	-1E+10	1	-1E+10	1
4901784	80	C	09/12/2017	10:50	-133.003	43.690	0	1220.60	0	2.9950	0	34.5390	4	27.525	0	1207.295	0	16.9	4	5.2	4	-1E+10	1	-1E+10	1	-1E+10	1	-1E+10	1	-1E+10	1	-1E+10	1
4901784	80	C	09/12/2017	10:50	-133.003	43.690	0	1225.00	0	2.9880	0	34.5380	4	27.525	0	1211.635	0	17.0	4	5.2	4	-1E+10	1	-1E+10	1	-1E+10	1	-1E+10	1	-1E+10	1	-1E+10	1
4901784	80	C	09/12/2017	10:50	-133.003	43.690	0	1229.40	0	2.9800	0	34.5400	4	27.528	0	1215.974	0	17.1	4	5.3	4	-1E+10	1	-1E+10	1	-1E+10	1	-1E+10	1	-1E+10	1	-1E+10	1
4901784	80	C	09/12/2017	10:50	-133.003	43.690	0	1234.80	0	2.9720	0	34.5420	4	27.530	0	1221.299	0	17.4	4	5.4	4	-1E+10	1	-1E+10	1	-1E+10	1	-1E+10	1	-1E+10	1	-1E+10	1
4901784	80	C	09/12/2017	10:50	-133.003	43.690	0	1240.20	0	2.9640	0	34.5410	4	27.530	0	1226.625	0	17.6	4	5.4	4	-1E+10	1	-1E+10	1	-1E+10	1	-1E+10	1	-1E+10	1	-1E+10	1
4901784	80	C	09/12/2017	10:50	-133.003	43.690	0	1245.40	0	2.9570	0	34.5450	4	27.534	0	1231.753	0	17.9	4	5.5	4	-1E+10	1	-1E+10	1	-1E+10	1	-1E+10	1	-1E+10	1	-1E+10	1
4901784	80	C	09/12/2017	10:50	-133.003	43.690	0	1250.30	0	2.9470	0	34.5470	4	27.536	0	1236.584	0	18.1	4	5.6	4	-1E+10	1	-1E+10	1	-1E+10	1	-1E+10	1	-1E+10	1	-1E+10	1
4901784	80	C	09/12/2017	10:50	-133.003	43.690	0	1255.30	0	2.9380	0	34.5480	4	27.538	0	1241.515	0	18.3	4	5.6	4	-1E+10	1	-1E+10	1	-1E+10	1	-1E+10	1	-1E+10	1	-1E+10	1
4901784	80	C	09/12/2017	10:50	-133.003	43.690	0	1260.20	0	2.9300	0	34.5500	4	27.540	0	1246.346	0	18.5	4	5.7	4	-1E+10	1	-1E+10	1	-1E+10	1	-1E+10	1	-1E+10	1	-1E+10	1
4901784	80	C	09/12/2017	10:50	-133.003	43.690	0	1265.20	0	2.9260	0	34.5510	4	27.541	0	1251.277	0	18.6	4	5.7	4	-1E+10	1	-1E+10	1	-1E+10	1	-1E+10	1	-1E+10	1	-1E+10	1
4901784	80	C	09/12/2017	10:50	-133.003	43.690	0	1270.20	0	2.9230	0	34.5520	4	27.542	0	1256.207	0	18.8	4	5.8	4	-1E+10	1	-1E+10	1	-1E+10	1	-1E+10	1	-1E+10	1	-1E+10	1
4901784	80	C	09/12/2017	10:50	-133.003	43.690	0	1275.30	0	2.9170	0	34.5520	4	27.543	0	1261.235	0	19.0	4	5.8	4	-1E+10	1	-1E+10	1	-1E+10	1	-1E+10	1	-1E+10	1	-1E+10	1
4901784	80	C	09/12/2017	10:50	-133.003	43.690	0	1280.40	0	2.9050	0	34.5540	4	27.546	0	1266.264	0	19.2	4	5.9	4	-1E+10	1	-1E+10	1	-1E+10	1	-1E+10	1	-1E+10	1	-1E+10	1
4901784	80	C	09/12/2017	10:50	-133.003	43.690	0	1285.40	0	2.8990	0	34.5550	4	27.547	0	1271.193	0	19.4	4	6.0	4	-1E+10	1	-1E+10	1	-1E+10	1	-1E+10	1	-1E+10	1	-1E+10	1
4901784	80	C	09/12/2017	10:50	-133.003	43.690	0	1290.40	0	2.8930	0	34.5570	4	27.549	0	1276.123	0	19.7	4	6.1	4	-1E+10	1	-1E+10	1	-1E+10	1	-1E+10	1	-1E+10	1	-1E+10	1
4901784	80	C	09/12/2017	10:50	-133.003	43.690	0	1295.50	0	2.8860	0	34.5570	4	27.550	0	1281.151	0	20.0	4	6.2	4	-1E+10	1	-1E+10	1	-1E+10	1	-1E+10	1	-1E+10	1	-1E+10	1
4901784	80	C	09/12/2017	10:50	-133.003	43.690	0	1300.60	0	2.8790	0	34.5610	4	27.554	0	1286.179	0	20.3	4	6.2	4	-1E+10	1	-1E+10	1	-1E+10	1	-1E+10	1	-1E+10	1	-1E+10	1
4901784	80	C	09/12/2017	10:50	-133.003	43.690	0	1305.70	0	2.8710	0	34.5600	4	27.554	0	1291.207	0	20.4	4	6.3	4	-1E+10	1	-1E+10	1	-1E+10	1	-1E+10	1	-1E+10	1	-1E+10	1
4901784	80	C	09/12/2017	10:50	-133.003	43.690	0	1310.80	0	2.8610	0	34.5620	4	27.556	0	1296.235	0	20.6	4	6.3	4	-1E+10	1	-1E+10	1	-1E+10	1	-1E+10	1	-1E+10	1	-1E+10	1
4901784	80	C	09/12/2017	10:50	-133.003	43.690	0	1315.00	0	2.8580	0	34.5640	4	27.558	0	1300.375	0	20.8	4	6.4	4	-1E+10	1	-1E+10	1	-1E+10	1	-1E+10	1	-1E+10	1	-1E+10	1
4901784	80	C	09/12/2017	10:50	-133.003	43.690	0	1319.30	0	2.8530	0	34.5650	4	27.559	0	1304.614	0	21.0	4	6.5	4	-1E+10	1	-1E+10	1	-1E+10	1	-1E+10	1	-1E+10	1	-1E+10	1
4901784	80	C	09/12/2017	10:50	-133.003	43.690	0	1324.50	0	2.8440	0	34.5660	4	27.561	0	1309.740	0	21.2	4	6.5	4	-1E+10	1	-1E+10	1	-1E+10	1	-1E+10	1	-1E+10	1	-1E+10	1
4901784	80	C	09/12/2017	10:50	-133.003	43.690	0	1329.80	0	2.8390	0	34.5670	4	27.562	0	1314.964	0	21.5	4	6.6	4	-1E+10	1	-1E+10	1	-1E+10	1	-1E+10	1	-1E+10	1	-1E+10	1
4901784	80	C	09/12/2017	10:50	-133.003	43.690	0	1335.10	0	2.8310	0	34.5690	4	27.565	0	1320.188	0	21.7	4	6.7	4	-1E+10	1	-1E+10	1	-1E+10	1	-1E+10	1	-1E+10	1	-1E+10	1
4901784	80	C	09/12/2017	10:50	-133.003	43.690	0	1340.30	0	2.8220	0	34.5700	4	27.566	0	1325.314	0	21.9	4	6.7	4	-1E+10	1	-1E+10	1	-1E+10	1	-1E+10	1	-1E+10	1	-1E+10	1
4901784	80	C	09/12/2017	10:50	-133.003	43.690	0	1345.60	0	2.8150	0	34.5710	4	27.568	0	1330.538	0	22.1	4	6.8	4	-1E+10	1	-1E+10	1	-1E+10	1	-1E+10	1	-1E+10	1	-1E+10	1
4901784	80	C	09/12/2017	10:50	-133.003	43.690	0	1350.00	0	2.8120	0	34.5720	4	27.569	0	1334.875	0	22.2	4	6.8	4	-1E+10	1	-1E+10	1	-1E+10	1	-1E+10	1	-1E+10	1	-1E+10	1
4901784	80	C	09/12/2017	10:50	-133.003	43.690	0	1354.40	0	2.8020	0	34.5710	4	27.569	0	1339.212	0	22.3	4	6.9	4	-1E+10	1	-1E+10	1	-1E+10	1	-1E+10	1	-1E+10	1	-1E+10	1
4901784	80	C	09/12/2017	10:50	-133.003	43.690	0	1359.80	0	2.7920	0	34.5730	4	27.571	0	1344.534	0	22.6	4	6.9	4	-1E+10	1	-1E+10	1	-1E+10	1	-1E+10	1	-1E+10	1	-1E+10	1
4901784	80	C	09/12/2017	10:50	-133.003	43.690	0	1365.10	0	2.7870	0	34.5750	4	27.573	0	1349.757	0	22.8	4	7.0	4	-1E+10	1	-1E+10	1	-1E+10	1	-1E+10	1	-1E+10	1	-1E+10	1
4901784	80	C	09/12/2017	10:50	-133.003	43.690	0	1370.50	0	2.7740	0	34.5750	4	27.575	0	1355.079	0	22.9	4	7.0	4	-1E+10	1	-1E+10	1	-1E+10	1	-1E+10	1	-1E+10	1	-1E+10	1
4901784	80	C	09/12/2017	10:50	-133.003	43.690	0	1375.00	0	2.7660	0	34.5750	4	27.575	0	1359.514	0	23.0	4	7.1	4	-1E+10	1	-1E+10	1	-1E+10	1	-1E+10	1	-1E+10	1	-1E+10	1
4901784	80	C	09/12/2017	10:50	-133.003	43.690	0	1379.60	0	2.7540	0	34.5760	4	27.577	0	1364.048	0	23.2	4	7.1	4	-1E+10	1	-1E+10	1	-1E+10	1	-1E+10	1	-1E+10	1	-1E+10	1
4901784	80	C	09/12/2017	10:50	-133.003	43.690	0	1385.10	0	2.7410	0	34.5780	4	27.580	0	1369.468	0	23.3	4	7.2	4	-1E+10	1	-1E+10	1	-1E+10	1	-1E+10	1	-1E+10	1	-1E+10	1
4901784	80	C	09/12/2017	10:50	-133.003	43.690	0	1390.60	0	2.7340	0	34.5780	4	27.581	0	1374.888	0	23.4	4	7.2	4	-1E+10	1	-1E+10	1	-1E+10	1	-1E+10	1	-1E+10	1	-1E+10	1
4901784	80	C	09/12/2017	10:50	-133.003	43.690	0	1395.20	0	2.7260	0	34.5790	4	27.582	0	1379.421	0	23.5	4	7.2	4	-1E+10	1	-1E+10	1	-1E+10	1	-1E+10	1	-1E+10	1	-1E+10	1
4901784	80	C	09/12/2017	10:50	-133.003	43.690	0	1399.90	0	2.7160	0	34.5800	4	27.584	0	1384.052	0	23.6	4	7.2	4	-1E+10	1	-1E+10	1	-1E+10	1	-1E+10	1	-1E+10	1	-1E+10	1
4901784	80	C	09/12/2017	10:50	-133.003	43.690	0	1405.50	0	2.7140	0	34.5800	4	27.584	0	1389.570	0	23.7	4	7.3	4	-1E+10	1	-1E+10	1	-1E+10	1	-1E+10	1	-1E+10	1	-1E+10	1
4901784	80	C	09/12/2017	10:50	-133.003	43.690	0	1409.60	0	2.7120	0	34.5800	4	27.584	0	1393.610	0	23.8	4	7.3	4	-1E+10	1	-1E+10	1	-1E+10	1	-1E+10	1	-1E+10	1	-1E+10	1
4901784	80	C	09/12/2017	10:50	-133.003	43.690	0	1414.50	0	2.6960	0	34.5810	4	27.586	0	1398.439	0	24.0	4	7.4	4	-1E+10	1	-1E+10	1	-1E+10	1	-1E+10	1	-1E+10	1	-1E+10	1
4901784	80	C	09/12/2017	10:50	-133.003	43.690	0	1419.40	0	2.6850	0	34.5820	4	27.588	0	1403.267	0	24.2	4	7.4	4	-1E+10	1	-1E+10	1	-1E+10	1	-1E+10	1	-1E+10	1	-1E+10	1
4901784	80	C	09/12/2017	10:50	-133.003	43.690	0	1424.40	0	2.6760	0	34.5810	4	27.588	0	1408.193	0	24.4	4	7.5	4	-1E+10	1	-1E+10	1	-1E+10	1	-1E+10	1	-1E+10	1	-1E+10	1
4901784	80	C	09/12/2017	10:50	-133.003	43.690	0	1429.50	0	2.6640	0	34.5840	4	27.592	0	1413.218	0	24.6	4	7.5	4	-1E+10	1	-1E+10	1	-1E+10	1	-1E+10	1	-1E+10	1	-1E+10	1
4901784	80	C	09/12/2017	10:50	-133.003	43.690	0	1434.50	0	2.6510	0	34.5850	4	27.594	0	1418.144	0	24.8	4	7.6	4	-1E+10	1	-1E+10	1	-1E+10	1	-1E+10	1	-1E+10	1	-1E+10	1
4901784	80	C	09/12/2017	10:50	-133.003	43.690	0	1439.60	0	2.6440	0	34.5830	4	27.593	0	1423.169	0	24.9	4	7.6	4	-1E+10	1	-1E+10	1	-1E+10	1	-1E+10	1	-1E+10	1	-1E+10	1
4901784	80	C	09/12/2017	10:50	-133.003	43.690	0	1444.60	0	2.6370	0	34.5860	4	27.596	0	1428.095	0	25.1	4	7.7	4	-1E+10	1	-1E+10	1	-1E+10	1	-1E+10	1	-1E+10	1	-1E+10	1
4901784	80	C	09/12/2017	10:50	-133.003	43.690	0	1449.90	0	2.6350	0	34.5860	4	27.596	0	1433.317	0	25.2	4	7.7	4	-1E+10	1	-1E+10	1	-1E+10	1	-1E+10	1	-1E+10	1	-1E+10	1
4901784	80	C	09/12/2017	10:50	-133.003	43.690	0	1455.00	0	2.6180	0	34.5870	4	27.598	0	1438.341	0	25.4	4	7.8	4	-1E+10	1	-1E+10	1	-1E+10	1	-1E+10	1	-1E+10	1	-1E+10	1
4901784	80	C	09/12/2017	10:50	-133.003	43.690	0	1460.10	0	2.6070	0	34.5890	4	27.601	0	1443.365	0	25.6	4	7.8	4	-1E+10	1	-1E+10	1	-1E+10	1	-1E+10	1	-1E+10	1	-1E+10	1
4901784	80	C	09/12/2017	10:50	-133.003	43.690	0	1465.30	0	2.6030	0	34.5890	4	27.601	0	1448.488	0	25.8	4	7.9	4	-1E+10	1	-1E+10	1	-1E+10	1	-1E+10	1	-1E+10	1	-1E+10	1
4901784	80	C	09/12/2017	10:50	-133.003	43.690	0	1470.60	0	2.5950	0	34.5900	4	27.603	0	1453.709	0	26.0	4	8.0	4	-1E+10	1	-1E+10	1	-1E+10	1	-1E+10	1	-1E+10	1	-1E+10	1
4901784	80	C	09/12/2017	10:50	-133.003	43.690	0	1475.00	0	2.5900	0	34.5910	4	27.604	0	1458.043	0	26.1	4	8.0	4	-1E+10	1	-1E+10	1	-1E+10	1	-1E+10	1	-1E+10	1	-1E+10	1
4901784	80	C	09/12/2017	10:50	-133.003	43.690	0	1479.40	0	2.5810	0	34.5920	4	27.605	0	1462.377	0	26.4	4	8.1	4	-1E+10	1	-1E+10	1	-1E+10	1	-1E+10	1	-1E+10	1	-1E+10	1
4901784	80	C	09/12/2017	10:50	-133.003	43.690	0	1484.80	0	2.5690	0	34.5930	4	27.607	0	1467.696	0	26.6	4	8.1	4	-1E+10	1	-1E+10	1	-1E+10	1	-1E+10	1	-1E+10	1	-1E+10	1
4901784	80	C	09/12/2017	10:50	-133.003	43.690	0	1490.10	0	2.5620	0	34.5930	4	27.608	0	1472.917	0	26.8	4	8.2	4	-1E+10	1	-1E+10	1	-1E+10	1	-1E+10	1	-1E+10	1	-1E+10	1
4901784	80	C	09/12/2017	10:50	-133.003	43.690	0	1495.40	0	2.5520	0	34.5940	4	27.610	0	1478.137	0	27.0	4	8.2	4	-1E+10	1	-1E+10	1	-1E+10	1	-1E+10	1	-1E+10	1	-1E+10	1
4901784	80	C	09/12/2017	10:50	-133.003	43.690	0	1499.80	0	2.5460	0	34.5950	4	27.611	0	1482.471	0	27.1	4	8.3	4	-1E+10	1	-1E+10	1	-1E+10	1	-1E+10	1	-1E+10	1	-1E+10	1
4901784	80	C	09/12/2017	10:50	-133.003	43.690	0	1504.30	0	2.5400	0	34.5960	4	27.612	0	1486.903	0	27.3	4	8.3	4	-1E+10	1	-1E+10	1	-1E+10	1	-1E+10	1	-1E+10	1	-1E+10	1
4901784	80	C	09/12/2017	10:50	-133.003	43.690	0	1509.70	0	2.5350	0	34.5960	4	27.613	0	1492.221	0	27.6	4	8.4	4	-1E+10	1	-1E+10	1	-1E+10	1	-1E+10	1	-1E+10	1	-1E+10	1
4901784	80	C	09/12/2017	10:50	-133.003	43.690	0	1515.00	0	2.5230	0	34.5980	4	27.615	0	1497.441	0	28.0	4	8.6	4	-1E+10	1	-1E+10	1	-1E+10	1	-1E+10	1	-1E+10	1	-1E+10	1
4901784	80	C	09/12/2017	10:50	-133.003	43.690	0	1520.40	0	2.5080	0	34.5990	4	27.617	0	1502.760	0	28.5	4	8.7	4	-1E+10	1	-1E+10	1	-1E+10	1	-1E+10	1	-1E+10	1	-1E+10	1
4901784	80	C	09/12/2017	10:50	-133.003	43.690	0	1525.70	0	2.4930	0	34.6010	4	27.620	0	1507.979	0	28.9	4	8.8	4	-1E+10	1	-1E+10	1	-1E+10	1	-1E+10	1	-1E+10	1	-1E+10	1
4901784	80	C	09/12/2017	10:50	-133.003	43.690	0	1530.20	0	2.4830	0	34.6020	4	27.622	0	1512.411	0	29.2	4	8.9	4	-1E+10	1	-1E+10	1	-1E+10	1	-1E+10	1	-1E+10	1	-1E+10	1
4901784	80	C	09/12/2017	10:50	-133.003	43.690	0	1534.70	0	2.4740	0	34.6020	4	27.623	0	1516.842	0	29.4	4	9.0	4	-1E+10	1	-1E+10	1	-1E+10	1	-1E+10	1	-1E+10	1	-1E+10	1
4901784	80	C	09/12/2017	10:50	-133.003	43.690	0	1540.10	0	2.4630	0	34.6040	4	27.625	0	1522.160	0	29.8	4	9.1	4	-1E+10	1	-1E+10	1	-1E+10	1	-1E+10	1	-1E+10	1	-1E+10	1
4901784	80	C	09/12/2017	10:50	-133.003	43.690	0	1545.50	0	2.4510	0	34.6050	4	27.627	0	1527.478	0	30.1	4	9.2	4	-1E+10	1	-1E+10	1	-1E+10	1	-1E+10	1	-1E+10	1	-1E+10	1
4901784	80	C	09/12/2017	10:50	-133.003	43.690	0	1550.10	0	2.4400	0	34.6060	4	27.629	0	1532.007	0	30.4	4	9.3	4	-1E+10	1	-1E+10	1	-1E+10	1	-1E+10	1	-1E+10	1	-1E+10	1
4901784	80	C	09/12/2017	10:50	-133.003	43.690	0	1554.70	0	2.4350	0	34.6070	4	27.630	0	1536.537	0	30.5	4	9.3	4	-1E+10	1	-1E+10	1	-1E+10	1	-1E+10	1	-1E+10	1	-1E+10	1
4901784	80	C	09/12/2017	10:50	-133.003	43.690	0	1560.20	0	2.4340	0	34.6070	4	27.630	0	1541.953	0	30.6	4	9.3	4	-1E+10	1	-1E+10	1	-1E+10	1	-1E+10	1	-1E+10	1	-1E+10	1
4901784	80	C	09/12/2017	10:50	-133.003	43.690	0	1565.30	0	2.4300	0	34.6070	4	27.631	0	1546.975	0	30.9	4	9.4	4	-1E+10	1	-1E+10	1	-1E+10	1	-1E+10	1	-1E+10	1	-1E+10	1
4901784	80	C	09/12/2017	10:50	-133.003	43.690	0	1569.50	0	2.4240	0	34.6080	4	27.632	0	1551.110	0	31.2	4	9.5	4	-1E+10	1	-1E+10	1	-1E+10	1	-1E+10	1	-1E+10	1	-1E+10	1
4901784	80	C	09/12/2017	10:50	-133.003	43.690	0	1574.30	0	2.4140	0	34.6100	4	27.634	0	1555.836	0	31.5	4	9.6	4	-1E+10	1	-1E+10	1	-1E+10	1	-1E+10	1	-1E+10	1	-1E+10	1
4901784	80	C	09/12/2017	10:50	-133.003	43.690	0	1580.00	0	2.4050	0	34.6110	4	27.636	0	1561.448	0	31.9	4	9.7	4	-1E+10	1	-1E+10	1	-1E+10	1	-1E+10	1	-1E+10	1	-1E+10	1
4901784	80	C	09/12/2017	10:50	-133.003	43.690	0	1585.60	0	2.3910	0	34.6120	4	27.638	0	1566.962	0	32.5	4	9.9	4	-1E+10	1	-1E+10	1	-1E+10	1	-1E+10	1	-1E+10	1	-1E+10	1
4901784	80	C	09/12/2017	10:50	-133.003	43.690	0	1590.60	0	2.3800	0	34.6140	4	27.640	0	1571.884	0	32.9	4	10.0	4	-1E+10	1	-1E+10	1	-1E+10	1	-1E+10	1	-1E+10	1	-1E+10	1
4901784	80	C	09/12/2017	10:50	-133.003	43.690	0	1595.50	0	2.3710	0	34.6150	4	27.642	0	1576.708	0	33.3	4	10.1	4	-1E+10	1	-1E+10	1	-1E+10	1	-1E+10	1	-1E+10	1	-1E+10	1
4901784	80	C	09/12/2017	10:50	-133.003	43.690	0	1600.50	0	2.3610	0	34.6160	4	27.644	0	1581.631	0	33.6	4	10.2	4	-1E+10	1	-1E+10	1	-1E+10	1	-1E+10	1	-1E+10	1	-1E+10	1
4901784	80	C	09/12/2017	10:50	-133.003	43.690	0	1605.50	0	2.3510	0	34.6170	4	27.645	0	1586.553	0	33.9	4	10.3	4	-1E+10	1	-1E+10	1	-1E+10	1	-1E+10	1	-1E+10	1	-1E+10	1
4901784	80	C	09/12/2017	10:50	-133.003	43.690	0	1610.50	0	2.3430	0	34.6190	4	27.648	0	1591.475	0	34.2	4	10.4	4	-1E+10	1	-1E+10	1	-1E+10	1	-1E+10	1	-1E+10	1	-1E+10	1
4901784	80	C	09/12/2017	10:50	-133.003	43.690	0	1615.60	0	2.3390	0	34.6190	4	27.648	0	1596.496	0	34.5	4	10.5	4	-1E+10	1	-1E+10	1	-1E+10	1	-1E+10	1	-1E+10	1	-1E+10	1
4901784	80	C	09/12/2017	10:50	-133.003	43.690	0	1619.90	0	2.3320	0	34.6200	4	27.649	0	1600.729	0	34.7	4	10.6	4	-1E+10	1	-1E+10	1	-1E+10	1	-1E+10	1	-1E+10	1	-1E+10	1
4901784	80	C	09/12/2017	10:50	-133.003	43.690	0	1624.30	0	2.3250	0	34.6200	4	27.650	0	1605.060	0	35.0	4	10.6	4	-1E+10	1	-1E+10	1	-1E+10	1	-1E+10	1	-1E+10	1	-1E+10	1
4901784	80	C	09/12/2017	10:50	-133.003	43.690	0	1629.40	0	2.3190	0	34.6210	4	27.651	0	1610.080	0	35.2	4	10.7	4	-1E+10	1	-1E+10	1	-1E+10	1	-1E+10	1	-1E+10	1	-1E+10	1
4901784	80	C	09/12/2017	10:50	-133.003	43.690	0	1634.70	0	2.3120	0	34.6220	4	27.653	0	1615.297	0	35.4	4	10.8	4	-1E+10	1	-1E+10	1	-1E+10	1	-1E+10	1	-1E+10	1	-1E+10	1
4901784	80	C	09/12/2017	10:50	-133.003	43.690	0	1639.90	0	2.3060	0	34.6220	4	27.653	0	1620.416	0	35.8	4	10.9	4	-1E+10	1	-1E+10	1	-1E+10	1	-1E+10	1	-1E+10	1	-1E+10	1
4901784	80	C	09/12/2017	10:50	-133.003	43.690	0	1645.20	0	2.2980	0	34.6230	4	27.655	0	1625.632	0	36.1	4	11.0	4	-1E+10	1	-1E+10	1	-1E+10	1	-1E+10	1	-1E+10	1	-1E+10	1
4901784	80	C	09/12/2017	10:50	-133.003	43.690	0	1650.40	0	2.2920	0	34.6240	4	27.656	0	1630.751	0	36.5	4	11.1	4	-1E+10	1	-1E+10	1	-1E+10	1	-1E+10	1	-1E+10	1	-1E+10	1
4901784	80	C	09/12/2017	10:50	-133.003	43.690	0	1654.90	0	2.2840	0	34.6250	4	27.657	0	1635.180	0	37.0	4	11.2	4	-1E+10	1	-1E+10	1	-1E+10	1	-1E+10	1	-1E+10	1	-1E+10	1
4901784	80	C	09/12/2017	10:50	-133.003	43.690	0	1659.30	0	2.2750	0	34.6260	4	27.659	0	1639.510	0	37.4	4	11.4	4	-1E+10	1	-1E+10	1	-1E+10	1	-1E+10	1	-1E+10	1	-1E+10	1
4901784	80	C	09/12/2017	10:50	-133.003	43.690	0	1664.60	0	2.2700	0	34.6280	4	27.661	0	1644.726	0	37.8	4	11.5	4	-1E+10	1	-1E+10	1	-1E+10	1	-1E+10	1	-1E+10	1	-1E+10	1
4901784	80	C	09/12/2017	10:50	-133.003	43.690	0	1669.90	0	2.2670	0	34.6290	4	27.662	0	1649.943	0	38.2	4	11.6	4	-1E+10	1	-1E+10	1	-1E+10	1	-1E+10	1	-1E+10	1	-1E+10	1
4901784	80	C	09/12/2017	10:50	-133.003	43.690	0	1675.20	0	2.2590	0	34.6310	4	27.664	0	1655.159	0	38.6	4	11.7	4	-1E+10	1	-1E+10	1	-1E+10	1	-1E+10	1	-1E+10	1	-1E+10	1
4901784	80	C	09/12/2017	10:50	-133.003	43.690	0	1680.40	0	2.2540	0	34.6310	4	27.665	0	1660.276	0	38.8	4	11.8	4	-1E+10	1	-1E+10	1	-1E+10	1	-1E+10	1	-1E+10	1	-1E+10	1
4901784	80	C	09/12/2017	10:50	-133.003	43.690	0	1684.80	0	2.2490	0	34.6320	4	27.666	0	1664.606	0	39.0	4	11.8	4	-1E+10	1	-1E+10	1	-1E+10	1	-1E+10	1	-1E+10	1	-1E+10	1
4901784	80	C	09/12/2017	10:50	-133.003	43.690	0	1689.30	0	2.2460	0	34.6320	4	27.666	0	1669.034	0	39.2	4	11.9	4	-1E+10	1	-1E+10	1	-1E+10	1	-1E+10	1	-1E+10	1	-1E+10	1
4901784	80	C	09/12/2017	10:50	-133.003	43.690	0	1694.70	0	2.2430	0	34.6330	4	27.667	0	1674.348	0	39.6	4	12.0	4	-1E+10	1	-1E+10	1	-1E+10	1	-1E+10	1	-1E+10	1	-1E+10	1
4901784	80	C	09/12/2017	10:50	-133.003	43.690	0	1700.20	0	2.2330	0	34.6340	4	27.669	0	1679.760	0	40.0	4	12.1	4	-1E+10	1	-1E+10	1	-1E+10	1	-1E+10	1	-1E+10	1	-1E+10	1
4901784	80	C	09/12/2017	10:50	-133.003	43.690	0	1704.80	0	2.2280	0	34.6350	4	27.670	0	1684.287	0	40.3	4	12.2	4	-1E+10	1	-1E+10	1	-1E+10	1	-1E+10	1	-1E+10	1	-1E+10	1
4901784	80	C	09/12/2017	10:50	-133.003	43.690	0	1709.40	0	2.2220	0	34.6360	4	27.672	0	1688.813	0	40.7	4	12.3	4	-1E+10	1	-1E+10	1	-1E+10	1	-1E+10	1	-1E+10	1	-1E+10	1
4901784	80	C	09/12/2017	10:50	-133.003	43.690	0	1714.90	0	2.2090	0	34.6380	4	27.674	0	1694.225	0	41.2	4	12.5	4	-1E+10	1	-1E+10	1	-1E+10	1	-1E+10	1	-1E+10	1	-1E+10	1
4901784	80	C	09/12/2017	10:50	-133.003	43.690	0	1720.50	0	2.2020	0	34.6390	4	27.676	0	1699.735	0	41.6	4	12.6	4	-1E+10	1	-1E+10	1	-1E+10	1	-1E+10	1	-1E+10	1	-1E+10	1
4901784	80	C	09/12/2017	10:50	-133.003	43.690	0	1725.10	0	2.1960	0	34.6400	4	27.677	0	1704.261	0	41.9	4	12.7	4	-1E+10	1	-1E+10	1	-1E+10	1	-1E+10	1	-1E+10	1	-1E+10	1
4901784	80	C	09/12/2017	10:50	-133.003	43.690	0	1729.70	0	2.1900	0	34.6400	4	27.677	0	1708.787	0	42.1	4	12.8	4	-1E+10	1	-1E+10	1	-1E+10	1	-1E+10	1	-1E+10	1	-1E+10	1
4901784	80	C	09/12/2017	10:50	-133.003	43.690	0	1735.10	0	2.1860	0	34.6400	4	27.678	0	1714.100	0	42.5	4	12.9	4	-1E+10	1	-1E+10	1	-1E+10	1	-1E+10	1	-1E+10	1	-1E+10	1
4901784	80	C	09/12/2017	10:50	-133.003	43.690	0	1740.50	0	2.1770	0	34.6420	4	27.680	0	1719.413	0	42.9	4	13.0	4	-1E+10	1	-1E+10	1	-1E+10	1	-1E+10	1	-1E+10	1	-1E+10	1
4901784	80	C	09/12/2017	10:50	-133.003	43.690	0	1745.30	0	2.1710	0	34.6430	4	27.681	0	1724.135	0	43.1	4	13.1	4	-1E+10	1	-1E+10	1	-1E+10	1	-1E+10	1	-1E+10	1	-1E+10	1
4901784	80	C	09/12/2017	10:50	-133.003	43.690	0	1750.20	0	2.1640	0	34.6440	4	27.683	0	1728.956	0	43.3	4	13.1	4	-1E+10	1	-1E+10	1	-1E+10	1	-1E+10	1	-1E+10	1	-1E+10	1
4901784	80	C	09/12/2017	10:50	-133.003	43.690	0	1755.10	0	2.1620	0	34.6440	4	27.683	0	1733.776	0	43.4	4	13.2	4	-1E+10	1	-1E+10	1	-1E+10	1	-1E+10	1	-1E+10	1	-1E+10	1
4901784	80	C	09/12/2017	10:50	-133.003	43.690	0	1759.90	0	2.1580	0	34.6440	4	27.683	0	1738.498	0	43.7	4	13.2	4	-1E+10	1	-1E+10	1	-1E+10	1	-1E+10	1	-1E+10	1	-1E+10	1
4901784	80	C	09/12/2017	10:50	-133.003	43.690	0	1764.80	0	2.1540	0	34.6420	4	27.682	0	1743.319	0	44.0	4	13.3	4	-1E+10	1	-1E+10	1	-1E+10	1	-1E+10	1	-1E+10	1	-1E+10	1
4901784	80	C	09/12/2017	10:50	-133.003	43.690	0	1769.70	0	2.1500	0	34.6420	4	27.682	0	1748.139	0	44.3	4	13.4	4	-1E+10	1	-1E+10	1	-1E+10	1	-1E+10	1	-1E+10	1	-1E+10	1
4901784	80	C	09/12/2017	10:50	-133.003	43.690	0	1774.70	0	2.1460	0	34.6430	4	27.684	0	1753.057	0	44.5	4	13.5	4	-1E+10	1	-1E+10	1	-1E+10	1	-1E+10	1	-1E+10	1	-1E+10	1
4901784	80	C	09/12/2017	10:50	-133.003	43.690	0	1779.70	0	2.1380	0	34.6430	4	27.684	0	1757.976	0	44.8	4	13.6	4	-1E+10	1	-1E+10	1	-1E+10	1	-1E+10	1	-1E+10	1	-1E+10	1
4901784	80	C	09/12/2017	10:50	-133.003	43.690	0	1784.60	0	2.1340	0	34.6440	4	27.685	0	1762.795	0	45.0	4	13.6	4	-1E+10	1	-1E+10	1	-1E+10	1	-1E+10	1	-1E+10	1	-1E+10	1
4901784	80	C	09/12/2017	10:50	-133.003	43.690	0	1789.60	0	2.1300	0	34.6450	4	27.687	0	1767.714	0	45.3	4	13.7	4	-1E+10	1	-1E+10	1	-1E+10	1	-1E+10	1	-1E+10	1	-1E+10	1
4901784	80	C	09/12/2017	10:50	-133.003	43.690	0	1794.70	0	2.1230	0	34.6450	4	27.687	0	1772.730	0	45.7	4	13.8	4	-1E+10	1	-1E+10	1	-1E+10	1	-1E+10	1	-1E+10	1	-1E+10	1
4901784	80	C	09/12/2017	10:50	-133.003	43.690	0	1799.70	0	2.1180	0	34.6450	4	27.688	0	1777.648	0	45.9	4	13.9	4	-1E+10	1	-1E+10	1	-1E+10	1	-1E+10	1	-1E+10	1	-1E+10	1
4901784	80	C	09/12/2017	10:50	-133.003	43.690	0	1804.70	0	2.1130	0	34.6460	4	27.689	0	1782.566	0	46.2	4	14.0	4	-1E+10	1	-1E+10	1	-1E+10	1	-1E+10	1	-1E+10	1	-1E+10	1
4901784	80	C	09/12/2017	10:50	-133.003	43.690	0	1809.80	0	2.1090	0	34.6470	4	27.690	0	1787.582	0	46.6	4	14.1	4	-1E+10	1	-1E+10	1	-1E+10	1	-1E+10	1	-1E+10	1	-1E+10	1
4901784	80	C	09/12/2017	10:50	-133.003	43.690	0	1814.80	0	2.1000	0	34.6490	4	27.692	0	1792.499	0	47.0	4	14.2	4	-1E+10	1	-1E+10	1	-1E+10	1	-1E+10	1	-1E+10	1	-1E+10	1
4901784	80	C	09/12/2017	10:50	-133.003	43.690	0	1820.00	0	2.0930	0	34.6490	4	27.693	0	1797.613	0	47.3	4	14.3	4	-1E+10	1	-1E+10	1	-1E+10	1	-1E+10	1	-1E+10	1	-1E+10	1
4901784	80	C	09/12/2017	10:50	-133.003	43.690	0	1825.10	0	2.0910	0	34.6500	4	27.694	0	1802.629	0	47.5	4	14.4	4	-1E+10	1	-1E+10	1	-1E+10	1	-1E+10	1	-1E+10	1	-1E+10	1
4901784	80	C	09/12/2017	10:50	-133.003	43.690	0	1830.30	0	2.0890	0	34.6500	4	27.694	0	1807.743	0	47.8	4	14.5	4	-1E+10	1	-1E+10	1	-1E+10	1	-1E+10	1	-1E+10	1	-1E+10	1
4901784	80	C	09/12/2017	10:50	-133.003	43.690	0	1835.50	0	2.0870	0	34.6500	4	27.694	0	1812.857	0	48.1	4	14.5	4	-1E+10	1	-1E+10	1	-1E+10	1	-1E+10	1	-1E+10	1	-1E+10	1
4901784	80	C	09/12/2017	10:50	-133.003	43.690	0	1840.70	0	2.0810	0	34.6510	4	27.696	0	1817.970	0	48.5	4	14.7	4	-1E+10	1	-1E+10	1	-1E+10	1	-1E+10	1	-1E+10	1	-1E+10	1
4901784	80	C	09/12/2017	10:50	-133.003	43.690	0	1845.00	0	2.0740	0	34.6520	4	27.697	0	1822.199	0	48.7	4	14.7	4	-1E+10	1	-1E+10	1	-1E+10	1	-1E+10	1	-1E+10	1	-1E+10	1
4901784	80	C	09/12/2017	10:50	-133.003	43.690	0	1849.40	0	2.0700	0	34.6530	4	27.698	0	1826.525	0	49.0	4	14.8	4	-1E+10	1	-1E+10	1	-1E+10	1	-1E+10	1	-1E+10	1	-1E+10	1
4901784	80	C	09/12/2017	10:50	-133.003	43.690	0	1854.60	0	2.0650	0	34.6530	4	27.698	0	1831.639	0	49.4	4	14.9	4	-1E+10	1	-1E+10	1	-1E+10	1	-1E+10	1	-1E+10	1	-1E+10	1
4901784	80	C	09/12/2017	10:50	-133.003	43.690	0	1859.90	0	2.0570	0	34.6540	4	27.700	0	1836.850	0	49.9	4	15.1	4	-1E+10	1	-1E+10	1	-1E+10	1	-1E+10	1	-1E+10	1	-1E+10	1
4901784	80	C	09/12/2017	10:50	-133.003	43.690	0	1865.20	0	2.0500	0	34.6540	4	27.701	0	1842.061	0	50.2	4	15.2	4	-1E+10	1	-1E+10	1	-1E+10	1	-1E+10	1	-1E+10	1	-1E+10	1
4901784	80	C	09/12/2017	10:50	-133.003	43.690	0	1870.50	0	2.0470	0	34.6550	4	27.702	0	1847.273	0	50.5	4	15.3	4	-1E+10	1	-1E+10	1	-1E+10	1	-1E+10	1	-1E+10	1	-1E+10	1
4901784	80	C	09/12/2017	10:50	-133.003	43.690	0	1874.90	0	2.0450	0	34.6560	4	27.703	0	1851.599	0	50.9	4	15.4	4	-1E+10	1	-1E+10	1	-1E+10	1	-1E+10	1	-1E+10	1	-1E+10	1
4901784	80	C	09/12/2017	10:50	-133.003	43.690	0	1879.30	0	2.0390	0	34.6570	4	27.704	0	1855.925	0	51.2	4	15.5	4	-1E+10	1	-1E+10	1	-1E+10	1	-1E+10	1	-1E+10	1	-1E+10	1
4901784	80	C	09/12/2017	10:50	-133.003	43.690	0	1884.70	0	2.0360	0	34.6580	4	27.705	0	1861.234	0	51.4	4	15.5	4	-1E+10	1	-1E+10	1	-1E+10	1	-1E+10	1	-1E+10	1	-1E+10	1
4901784	80	C	09/12/2017	10:50	-133.003	43.690	0	1890.00	0	2.0320	0	34.6580	4	27.705	0	1866.445	0	51.7	4	15.6	4	-1E+10	1	-1E+10	1	-1E+10	1	-1E+10	1	-1E+10	1	-1E+10	1
4901784	80	C	09/12/2017	10:50	-133.003	43.690	0	1895.40	0	2.0310	0	34.6580	4	27.705	0	1871.754	0	51.9	4	15.7	4	-1E+10	1	-1E+10	1	-1E+10	1	-1E+10	1	-1E+10	1	-1E+10	1
4901784	80	C	09/12/2017	10:50	-133.003	43.690	0	1899.90	0	2.0280	0	34.6590	4	27.706	0	1876.178	0	52.2	4	15.8	4	-1E+10	1	-1E+10	1	-1E+10	1	-1E+10	1	-1E+10	1	-1E+10	1
4901784	80	C	09/12/2017	10:50	-133.003	43.690	0	1904.40	0	2.0230	0	34.6600	4	27.708	0	1880.602	0	52.5	4	15.9	4	-1E+10	1	-1E+10	1	-1E+10	1	-1E+10	1	-1E+10	1	-1E+10	1
4901784	80	C	09/12/2017	10:50	-133.003	43.690	0	1909.80	0	2.0190	0	34.6610	4	27.709	0	1885.911	0	52.8	4	15.9	4	-1E+10	1	-1E+10	1	-1E+10	1	-1E+10	1	-1E+10	1	-1E+10	1
4901784	80	C	09/12/2017	10:50	-133.003	43.690	0	1915.20	0	2.0160	0	34.6610	4	27.709	0	1891.219	0	53.1	4	16.0	4	-1E+10	1	-1E+10	1	-1E+10	1	-1E+10	1	-1E+10	1	-1E+10	1
4901784	80	C	09/12/2017	10:50	-133.003	43.690	0	1919.90	0	2.0130	0	34.6620	4	27.710	0	1895.839	0	53.4	4	16.1	4	-1E+10	1	-1E+10	1	-1E+10	1	-1E+10	1	-1E+10	1	-1E+10	1
4901784	80	C	09/12/2017	10:50	-133.003	43.690	0	1924.50	0	2.0060	0	34.6620	4	27.711	0	1900.361	0	53.8	4	16.2	4	-1E+10	1	-1E+10	1	-1E+10	1	-1E+10	1	-1E+10	1	-1E+10	1
4901784	80	C	09/12/2017	10:50	-133.003	43.690	0	1930.10	0	2.0000	0	34.6640	4	27.713	0	1905.866	0	54.2	4	16.3	4	-1E+10	1	-1E+10	1	-1E+10	1	-1E+10	1	-1E+10	1	-1E+10	1
4901784	80	C	09/12/2017	10:50	-133.003	43.690	0	1934.80	0	1.9970	0	34.6640	4	27.713	0	1910.486	0	54.5	4	16.4	4	-1E+10	1	-1E+10	1	-1E+10	1	-1E+10	1	-1E+10	1	-1E+10	1
4901784	80	C	09/12/2017	10:50	-133.003	43.690	0	1940.10	0	1.9910	0	34.6650	4	27.714	0	1915.695	0	54.9	4	16.5	4	-1E+10	1	-1E+10	1	-1E+10	1	-1E+10	1	-1E+10	1	-1E+10	1
4901784	80	C	09/12/2017	10:50	-133.003	43.690	0	1945.30	0	1.9850	0	34.6660	4	27.716	0	1920.807	0	55.2	4	16.6	4	-1E+10	1	-1E+10	1	-1E+10	1	-1E+10	1	-1E+10	1	-1E+10	1
4901784	80	C	09/12/2017	10:50	-133.003	43.690	0	1950.20	0	1.9800	0	34.6670	4	27.717	0	1925.623	0	55.5	4	16.7	4	-1E+10	1	-1E+10	1	-1E+10	1	-1E+10	1	-1E+10	1	-1E+10	1
4901784	80	C	09/12/2017	10:50	-133.003	43.690	0	1955.10	0	1.9760	0	34.6670	4	27.717	0	1930.439	0	55.8	4	16.8	4	-1E+10	1	-1E+10	1	-1E+10	1	-1E+10	1	-1E+10	1	-1E+10	1
4901784	80	C	09/12/2017	10:50	-133.003	43.690	0	1960.10	0	1.9730	0	34.6680	4	27.718	0	1935.353	0	56.0	4	16.9	4	-1E+10	1	-1E+10	1	-1E+10	1	-1E+10	1	-1E+10	1	-1E+10	1
4901784	80	C	09/12/2017	10:50	-133.003	43.690	0	1965.10	0	1.9700	0	34.6680	4	27.718	0	1940.267	0	56.3	4	17.0	4	-1E+10	1	-1E+10	1	-1E+10	1	-1E+10	1	-1E+10	1	-1E+10	1
4901784	80	C	09/12/2017	10:50	-133.003	43.690	0	1970.10	0	1.9660	0	34.6690	4	27.720	0	1945.181	0	56.6	4	17.1	4	-1E+10	1	-1E+10	1	-1E+10	1	-1E+10	1	-1E+10	1	-1E+10	1
4901784	80	C	09/12/2017	10:50	-133.003	43.690	0	1975.10	0	1.9640	0	34.6700	4	27.721	0	1950.095	0	56.8	4	17.1	4	-1E+10	1	-1E+10	1	-1E+10	1	-1E+10	1	-1E+10	1	-1E+10	1
4901784	80	C	09/12/2017	10:50	-133.003	43.690	0	1980.10	0	1.9600	0	34.6700	4	27.721	0	1955.009	0	57.1	4	17.2	4	-1E+10	1	-1E+10	1	-1E+10	1	-1E+10	1	-1E+10	1	-1E+10	1
4901784	80	C	09/12/2017	10:50	-133.003	43.690	0	1985.10	0	1.9590	0	34.6710	4	27.722	0	1959.922	0	57.4	4	17.3	4	-1E+10	1	-1E+10	1	-1E+10	1	-1E+10	1	-1E+10	1	-1E+10	1
4901784	80	C	09/12/2017	10:50	-133.003	43.690	0	1990.20	0	1.9570	0	34.6710	4	27.722	0	1964.934	0	57.6	4	17.4	4	-1E+10	1	-1E+10	1	-1E+10	1	-1E+10	1	-1E+10	1	-1E+10	1
4901784	80	C	09/12/2017	10:50	-133.003	43.690	0	1995.30	0	1.9550	0	34.6710	4	27.722	0	1969.946	0	58.0	4	17.5	4	-1E+10	1	-1E+10	1	-1E+10	1	-1E+10	1	-1E+10	1	-1E+10	1
4901784	80	C	09/12/2017	10:50	-133.003	43.690	0	2000.30	0	1.9510	0	34.6720	4	27.723	0	1974.859	0	58.3	4	17.6	4	-1E+10	1	-1E+10	1	-1E+10	1	-1E+10	1	-1E+10	1	-1E+10	1
4901784	80	C	09/12/2017	10:50	-133.003	43.690	0	2005.40	0	1.9470	0	34.6730	4	27.725	0	1979.871	0	58.6	4	17.7	4	-1E+10	1	-1E+10	1	-1E+10	1	-1E+10	1	-1E+10	1	-1E+10	1
4901784	80	C	09/12/2017	10:50	-133.003	43.690	0	2010.50	0	1.9430	0	34.6740	4	27.726	0	1984.882	0	58.9	4	17.7	4	-1E+10	1	-1E+10	1	-1E+10	1	-1E+10	1	-1E+10	1	-1E+10	1
4901784	80	C	09/12/2017	10:50	-133.003	43.690	0	2015.00	0	1.9400	0	34.6740	4	27.726	0	1989.304	0	59.1	4	17.8	4	-1E+10	1	-1E+10	1	-1E+10	1	-1E+10	1	-1E+10	1	-1E+10	1
4901784	80	C	09/12/2017	10:50	-133.003	43.690	0	2020.60	0	1.9360	0	34.6750	4	27.727	0	1994.806	0	59.4	4	17.9	4	-1E+10	1	-1E+10	1	-1E+10	1	-1E+10	1	-1E+10	1	-1E+10	1
4901784	80	C	09/12/2017	10:50	-133.003	43.690	0																										
4901784	81	C	09/22/2017	10:41	-133.098	43.892	0	2.60	0	17.4590	0	32.8520	4	23.759	0	2.579	0	234.6	4	97.8	4	-1E+10	1	-1E+10	1	-1E+10	1	-1E+10	1	-1E+10	1	-1E+10	1
4901784	81	C	09/22/2017	10:41	-133.098	43.892	0	3.70	0	17.4650	0	32.8510	4	23.757	0	3.670	0	234.7	4	97.9	4	-1E+10	1	-1E+10	1	-1E+10	1	-1E+10	1	-1E+10	1	-1E+10	1
4901784	81	C	09/22/2017	10:41	-133.098	43.892	0	5.10	0	17.4660	0	32.8510	4	23.757	0	5.059	0	234.6	4	97.8	4	-1E+10	1	-1E+10	1	-1E+10	1	-1E+10	1	-1E+10	1	-1E+10	1
4901784	81	C	09/22/2017	10:41	-133.098	43.892	0	6.60	0	17.4670	0	32.8510	4	23.756	0	6.547	0	234.4	4	97.7	4	-1E+10	1	-1E+10	1	-1E+10	1	-1E+10	1	-1E+10	1	-1E+10	1
4901784	81	C	09/22/2017	10:41	-133.098	43.892	0	8.10	0	17.4680	0	32.8510	4	23.756	0	8.035	0	234.2	4	97.7	4	-1E+10	1	-1E+10	1	-1E+10	1	-1E+10	1	-1E+10	1	-1E+10	1
4901784	81	C	09/22/2017	10:41	-133.098	43.892	0	9.60	0	17.4660	0	32.8510	4	23.757	0	9.523	0	234.2	4	97.7	4	-1E+10	1	-1E+10	1	-1E+10	1	-1E+10	1	-1E+10	1	-1E+10	1
4901784	81	C	09/22/2017	10:41	-133.098	43.892	0	11.20	0	17.4680	0	32.8510	4	23.756	0	11.110	0	234.0	4	97.6	4	-1E+10	1	-1E+10	1	-1E+10	1	-1E+10	1	-1E+10	1	-1E+10	1
4901784	81	C	09/22/2017	10:41	-133.098	43.892	0	12.80	0	17.4680	0	32.8510	4	23.756	0	12.697	0	233.9	4	97.6	4	-1E+10	1	-1E+10	1	-1E+10	1	-1E+10	1	-1E+10	1	-1E+10	1
4901784	81	C	09/22/2017	10:41	-133.098	43.892	0	14.40	0	17.4670	0	32.8510	4	23.757	0	14.284	0	233.6	4	97.4	4	-1E+10	1	-1E+10	1	-1E+10	1	-1E+10	1	-1E+10	1	-1E+10	1
4901784	81	C	09/22/2017	10:41	-133.098	43.892	0	16.00	0	17.4670	0	32.8500	4	23.756	0	15.871	0	233.7	4	97.5	4	-1E+10	1	-1E+10	1	-1E+10	1	-1E+10	1	-1E+10	1	-1E+10	1
4901784	81	C	09/22/2017	10:41	-133.098	43.892	0	17.70	0	17.4670	0	32.8510	4	23.757	0	17.557	0	233.5	4	97.4	4	-1E+10	1	-1E+10	1	-1E+10	1	-1E+10	1	-1E+10	1	-1E+10	1
4901784	81	C	09/22/2017	10:41	-133.098	43.892	0	19.50	0	17.4690	0	32.8490	4	23.755	0	19.343	0	233.4	4	97.3	4	-1E+10	1	-1E+10	1	-1E+10	1	-1E+10	1	-1E+10	1	-1E+10	1
4901784	81	C	09/22/2017	10:41	-133.098	43.892	0	21.30	0	17.4700	0	32.8500	4	23.756	0	21.128	0	233.4	4	97.3	4	-1E+10	1	-1E+10	1	-1E+10	1	-1E+10	1	-1E+10	1	-1E+10	1
4901784	81	C	09/22/2017	10:41	-133.098	43.892	0	23.20	0	17.4680	0	32.8500	4	23.756	0	23.013	0	233.5	4	97.4	4	-1E+10	1	-1E+10	1	-1E+10	1	-1E+10	1	-1E+10	1	-1E+10	1
4901784	81	C	09/22/2017	10:41	-133.098	43.892	0	25.00	0	17.4730	0	32.8480	4	23.753	0	24.798	0	233.6	4	97.4	4	-1E+10	1	-1E+10	1	-1E+10	1	-1E+10	1	-1E+10	1	-1E+10	1
4901784	81	C	09/22/2017	10:41	-133.098	43.892	0	27.20	0	17.4720	0	32.8470	4	23.753	0	26.980	0	234.0	4	97.6	4	-1E+10	1	-1E+10	1	-1E+10	1	-1E+10	1	-1E+10	1	-1E+10	1
4901784	81	C	09/22/2017	10:41	-133.098	43.892	0	27.70	0	17.4720	0	32.8470	4	23.753	0	27.476	0	234.0	4	97.6	4	-1E+10	1	-1E+10	1	-1E+10	1	-1E+10	1	-1E+10	1	-1E+10	1
4901784	81	C	09/22/2017	10:41	-133.098	43.892	0	29.30	0	17.4720	0	32.8440	4	23.751	0	29.063	0	234.6	4	97.8	4	-1E+10	1	-1E+10	1	-1E+10	1	-1E+10	1	-1E+10	1	-1E+10	1
4901784	81	C	09/22/2017	10:41	-133.098	43.892	0	30.80	0	17.4670	0	32.8420	4	23.750	0	30.551	0	235.8	4	98.4	4	-1E+10	1	-1E+10	1	-1E+10	1	-1E+10	1	-1E+10	1	-1E+10	1
4901784	81	C	09/22/2017	10:41	-133.098	43.892	0	32.20	0	17.4570	0	32.8380	4	23.750	0	31.939	0	237.6	4	99.1	4	-1E+10	1	-1E+10	1	-1E+10	1	-1E+10	1	-1E+10	1	-1E+10	1
4901784	81	C	09/22/2017	10:41	-133.098	43.892	0	33.60	0	17.4440	0	32.8330	4	23.749	0	33.328	0	240.4	4	100.2	4	-1E+10	1	-1E+10	1	-1E+10	1	-1E+10	1	-1E+10	1	-1E+10	1
4901784	81	C	09/22/2017	10:41	-133.098	43.892	0	34.90	0	17.4470	0	32.8220	4	23.740	0	34.617	0	244.2	4	101.8	4	-1E+10	1	-1E+10	1	-1E+10	1	-1E+10	1	-1E+10	1	-1E+10	1
4901784	81	C	09/22/2017	10:41	-133.098	43.892	0	36.30	0	17.4090	0	32.7990	4	23.732	0	36.006	0	250.5	4	104.3	4	-1E+10	1	-1E+10	1	-1E+10	1	-1E+10	1	-1E+10	1	-1E+10	1
4901784	81	C	09/22/2017	10:41	-133.098	43.892	0	36.60	0	17.2820	0	32.8170	4	23.775	0	36.303	0	253.5	4	105.3	4	-1E+10	1	-1E+10	1	-1E+10	1	-1E+10	1	-1E+10	1	-1E+10	1
4901784	81	C	09/22/2017	10:41	-133.098	43.892	0	37.80	0	16.2320	0	32.8390	4	24.036	0	37.494	0	265.3	4	108.0	4	-1E+10	1	-1E+10	1	-1E+10	1	-1E+10	1	-1E+10	1	-1E+10	1
4901784	81	C	09/22/2017	10:41	-133.098	43.892	0	39.00	0	14.7890	0	32.9180	4	24.415	0	38.684	0	275.0	4	108.9	4	-1E+10	1	-1E+10	1	-1E+10	1	-1E+10	1	-1E+10	1	-1E+10	1
4901784	81	C	09/22/2017	10:41	-133.098	43.892	0	40.40	0	13.9260	0	32.8990	4	24.581	0	40.072	0	283.7	4	110.5	4	-1E+10	1	-1E+10	1	-1E+10	1	-1E+10	1	-1E+10	1	-1E+10	1
4901784	81	C	09/22/2017	10:41	-133.098	43.892	0	41.70	0	13.5140	0	32.8940	4	24.661	0	41.362	0	286.2	4	110.5	4	-1E+10	1	-1E+10	1	-1E+10	1	-1E+10	1	-1E+10	1	-1E+10	1
4901784	81	C	09/22/2017	10:41	-133.098	43.892	0	43.10	0	13.2460	0	32.9000	4	24.719	0	42.750	0	287.1	4	110.2	4	-1E+10	1	-1E+10	1	-1E+10	1	-1E+10	1	-1E+10	1	-1E+10	1
4901784	81	C	09/22/2017	10:41	-133.098	43.892	0	44.90	0	13.0540	0	32.8720	4	24.736	0	44.535	0	286.4	4	109.5	4	-1E+10	1	-1E+10	1	-1E+10	1	-1E+10	1	-1E+10	1	-1E+10	1
4901784	81	C	09/22/2017	10:41	-133.098	43.892	0	46.20	0	12.3150	0	32.8690	4	24.877	0	45.825	0	286.9	4	108.1	4	-1E+10	1	-1E+10	1	-1E+10	1	-1E+10	1	-1E+10	1	-1E+10	1
4901784	81	C	09/22/2017	10:41	-133.098	43.892	0	47.50	0	12.0700	0	32.9160	4	24.959	0	47.114	0	285.1	4	106.9	4	-1E+10	1	-1E+10	1	-1E+10	1	-1E+10	1	-1E+10	1	-1E+10	1
4901784	81	C	09/22/2017	10:41	-133.098	43.892	0	48.90	0	12.0050	0	32.9350	4	24.986	0	48.502	0	283.2	4	106.0	4	-1E+10	1	-1E+10	1	-1E+10	1	-1E+10	1	-1E+10	1	-1E+10	1
4901784	81	C	09/22/2017	10:41	-133.098	43.892	0	50.20	0	11.9110	0	32.9290	4	24.999	0	49.792	0	280.8	4	104.9	4	-1E+10	1	-1E+10	1	-1E+10	1	-1E+10	1	-1E+10	1	-1E+10	1
4901784	81	C	09/22/2017	10:41	-133.098	43.892	0	51.70	0	11.6280	0	32.8870	4	25.019	0	51.279	0	278.7	4	103.5	4	-1E+10	1	-1E+10	1	-1E+10	1	-1E+10	1	-1E+10	1	-1E+10	1
4901784	81	C	09/22/2017	10:41	-133.098	43.892	0	53.20	0	11.1070	0	32.8990	4	25.122	0	52.767	0	275.8	4	101.3	4	-1E+10	1	-1E+10	1	-1E+10	1	-1E+10	1	-1E+10	1	-1E+10	1
4901784	81	C	09/22/2017	10:41	-133.098	43.892	0	54.70	0	10.7730	0	32.9380	4	25.212	0	54.254	0	273.9	4	99.9	4	-1E+10	1	-1E+10	1	-1E+10	1	-1E+10	1	-1E+10	1	-1E+10	1
4901784	81	C	09/22/2017	10:41	-133.098	43.892	0	56.30	0	10.7050	0	32.9400	4	25.225	0	55.841	0	272.7	4	99.4	4	-1E+10	1	-1E+10	1	-1E+10	1	-1E+10	1	-1E+10	1	-1E+10	1
4901784	81	C	09/22/2017	10:41	-133.098	43.892	0	57.90	0	10.4630	0	32.9440	4	25.270	0	57.428	0	272.8	4	98.9	4	-1E+10	1	-1E+10	1	-1E+10	1	-1E+10	1	-1E+10	1	-1E+10	1
4901784	81	C	09/22/2017	10:41	-133.098	43.892	0	59.50	0	10.2900	0	32.9360	4	25.293	0	59.015	0	273.3	4	98.7	4	-1E+10	1	-1E+10	1	-1E+10	1	-1E+10	1	-1E+10	1	-1E+10	1
4901784	81	C	09/22/2017	10:41	-133.098	43.892	0	61.20	0	10.1250	0	32.9320	4	25.318	0	60.700	0	272.7	4	98.1	4	-1E+10	1	-1E+10	1	-1E+10	1	-1E+10	1	-1E+10	1	-1E+10	1
4901784	81	C	09/22/2017	10:41	-133.098	43.892	0	62.70	0	10.1160	0	32.9270	4	25.316	0	62.188	0	269.8	4	97.0	4	-1E+10	1	-1E+10	1	-1E+10	1	-1E+10	1	-1E+10	1	-1E+10	1
4901784	81	C	09/22/2017	10:41	-133.098	43.892	0	64.50	0	9.8560	0	32.9630	4	25.387	0	63.973	0	269.5	4	96.4	4	-1E+10	1	-1E+10	1	-1E+10	1	-1E+10	1	-1E+10	1	-1E+10	1
4901784	81	C	09/22/2017	10:41	-133.098	43.892	0	66.30	0	9.5340	0	32.9470	4	25.427	0	65.758	0	270.3	4	96.0	4	-1E+10	1	-1E+10	1	-1E+10	1	-1E+10	1	-1E+10	1	-1E+10	1
4901784	81	C	09/22/2017	10:41	-133.098	43.892	0	68.00	0	9.4770	0	32.9460	4	25.436	0	67.444	0	269.1	4	95.5	4	-1E+10	1	-1E+10	1	-1E+10	1	-1E+10	1	-1E+10	1	-1E+10	1
4901784	81	C	09/22/2017	10:41	-133.098	43.892	0	69.70	0	9.3890	0	32.9410	4	25.446	0	69.130	0	268.3	4	95.0	4	-1E+10	1	-1E+10	1	-1E+10	1	-1E+10	1	-1E+10	1	-1E+10	1
4901784	81	C	09/22/2017	10:41	-133.098	43.892	0	71.50	0	9.2890	0	32.9390	4	25.460	0	70.915	0	266.9	4	94.3	4	-1E+10	1	-1E+10	1	-1E+10	1	-1E+10	1	-1E+10	1	-1E+10	1
4901784	81	C	09/22/2017	10:41	-133.098	43.892	0	73.20	0	9.2910	0	32.9770	4	25.490	0	72.600	0	264.8	4	93.6	4	-1E+10	1	-1E+10	1	-1E+10	1	-1E+10	1	-1E+10	1	-1E+10	1
4901784	81	C	09/22/2017	10:41	-133.098	43.892	0	75.00	0	9.1210	0	32.9720	4	25.513	0	74.385	0	264.0	4	92.9	4	-1E+10	1	-1E+10	1	-1E+10	1	-1E+10	1	-1E+10	1	-1E+10	1
4901784	81	C	09/22/2017	10:41	-133.098	43.892	0	76.80	0	9.1770	0	33.0030	4	25.528	0	76.170	0	261.3	4	92.1	4	-1E+10	1	-1E+10	1	-1E+10	1	-1E+10	1	-1E+10	1	-1E+10	1
4901784	81	C	09/22/2017	10:41	-133.098	43.892	0	78.60	0	9.0320	0	33.0140	4	25.560	0	77.955	0	261.1	4	91.8	4	-1E+10	1	-1E+10	1	-1E+10	1	-1E+10	1	-1E+10	1	-1E+10	1
4901784	81	C	09/22/2017	10:41	-133.098	43.892	0	80.40	0	9.1030	0	33.0440	4	25.572	0	79.740	0	259.5	4	91.4	4	-1E+10	1	-1E+10	1	-1E+10	1	-1E+10	1	-1E+10	1	-1E+10	1
4901784	81	C	09/22/2017	10:41	-133.098	43.892	0	82.30	0	9.0780	0	33.0610	4	25.589	0	81.624	0	258.7	4	91.1	4	-1E+10	1	-1E+10	1	-1E+10	1	-1E+10	1	-1E+10	1	-1E+10	1
4901784	81	C	09/22/2017	10:41	-133.098	43.892	0	84.20	0	9.1570	0	33.1080	4	25.614	0	83.508	0	256.8	4	90.6	4	-1E+10	1	-1E+10	1	-1E+10	1	-1E+10	1	-1E+10	1	-1E+10	1
4901784	81	C	09/22/2017	10:41	-133.098	43.892	0	86.00	0	9.1400	0	33.1050	4	25.614	0	85.293	0	255.6	4	90.1	4	-1E+10	1	-1E+10	1	-1E+10	1	-1E+10	1	-1E+10	1	-1E+10	1
4901784	81	C	09/22/2017	10:41	-133.098	43.892	0	87.80	0	9.1040	0	33.0990	4	25.615	0	87.078	0	254.0	4	89.5	4	-1E+10	1	-1E+10	1	-1E+10	1	-1E+10	1	-1E+10	1	-1E+10	1
4901784	81	C	09/22/2017	10:41	-133.098	43.892	0	89.60	0	8.9680	0	33.0810	4	25.622	0	88.862	0	252.3	4	88.6	4	-1E+10	1	-1E+10	1	-1E+10	1	-1E+10	1	-1E+10	1	-1E+10	1
4901784	81	C	09/22/2017	10:41	-133.098	43.892	0	91.40	0	8.7950	0	33.0680	4	25.639	0	90.647	0	250.0	4	87.5	4	-1E+10	1	-1E+10	1	-1E+10	1	-1E+10	1	-1E+10	1	-1E+10	1
4901784	81	C	09/22/2017	10:41	-133.098	43.892	0	93.30	0	8.8510	0	33.0910	4	25.649	0	92.531	0	246.4	4	86.3	4	-1E+10	1	-1E+10	1	-1E+10	1	-1E+10	1	-1E+10	1	-1E+10	1
4901784	81	C	09/22/2017	10:41	-133.098	43.892	0	95.10	0	8.8740	0	33.1130	4	25.662	0	94.316	0	243.2	4	85.2	4	-1E+10	1	-1E+10	1	-1E+10	1	-1E+10	1	-1E+10	1	-1E+10	1
4901784	81	C	09/22/2017	10:41	-133.098	43.892	0	96.90	0	8.8300	0	33.1130	4	25.669	0	96.101	0	240.7	4	84.3	4	-1E+10	1	-1E+10	1	-1E+10	1	-1E+10	1	-1E+10	1	-1E+10	1
4901784	81	C	09/22/2017	10:41	-133.098	43.892	0	98.60	0	8.8590	0	33.1410	4	25.687	0	97.786	0	238.4	4	83.6	4	-1E+10	1	-1E+10	1	-1E+10	1	-1E+10	1	-1E+10	1	-1E+10	1
4901784	81	C	09/22/2017	10:41	-133.098	43.892	0	100.40	0	8.9000	0	33.1560	4	25.692	0	99.571	0	235.3	4	82.6	4	-1E+10	1	-1E+10	1	-1E+10	1	-1E+10	1	-1E+10	1	-1E+10	1
4901784	81	C	09/22/2017	10:41	-133.098	43.892	0	102.20	0	8.8470	0	33.1740	4	25.714	0	101.356	0	234.2	4	82.1	4	-1E+10	1	-1E+10	1	-1E+10	1	-1E+10	1	-1E+10	1	-1E+10	1
4901784	81	C	09/22/2017	10:41	-133.098	43.892	0	105.00	0	8.7300	0	33.2100	4	25.761	0	104.132	0	232.7	4	81.4	4	-1E+10	1	-1E+10	1	-1E+10	1	-1E+10	1	-1E+10	1	-1E+10	1
4901784	81	C	09/22/2017	10:41	-133.098	43.892	0	107.70	0	8.6790	0	33.2180	4	25.775	0	106.809	0	230.8	4	80.6	4	-1E+10	1	-1E+10	1	-1E+10	1	-1E+10	1	-1E+10	1	-1E+10	1
4901784	81	C	09/22/2017	10:41	-133.098	43.892	0	110.30	0	8.7280	0	33.2530	4	25.795	0	109.387	0	227.4	4	79.5	4	-1E+10	1	-1E+10	1	-1E+10	1	-1E+10	1	-1E+10	1	-1E+10	1
4901784	81	C	09/22/2017	10:41	-133.098	43.892	0	112.90	0	8.7690	0	33.2820	4	25.811	0	111.964	0	226.0	4	79.1	4	-1E+10	1	-1E+10	1	-1E+10	1	-1E+10	1	-1E+10	1	-1E+10	1
4901784	81	C	09/22/2017	10:41	-133.098	43.892	0	114.70	0	8.4710	0	33.2690	4	25.846	0	113.749	0	227.4	4	79.1	4	-1E+10	1	-1E+10	1	-1E+10	1	-1E+10	1	-1E+10	1	-1E+10	1
4901784	81	C	09/22/2017	10:41	-133.098	43.892	0	117.10	0	8.3750	0	33.2600	4	25.854	0	116.128	0	225.5	4	78.2	4	-1E+10	1	-1E+10	1	-1E+10	1	-1E+10	1	-1E+10	1	-1E+10	1
4901784	81	C	09/22/2017	10:41	-133.098	43.892	0	119.80	0	8.3800	0	33.3120	4	25.894	0	118.805	0	219.7	4	76.3	4	-1E+10	1	-1E+10	1	-1E+10	1	-1E+10	1	-1E+10	1	-1E+10	1
4901784	81	C	09/22/2017	10:41	-133.098	43.892	0	122.80	0	8.4550	0	33.4290	4	25.974	0	121.779	0	212.0	4	73.8	4	-1E+10	1	-1E+10	1	-1E+10	1	-1E+10	1	-1E+10	1	-1E+10	1
4901784	81	C	09/22/2017	10:41	-133.098	43.892	0	125.10	0	8.4880	0	33.4740	4	26.005	0	124.060	0	206.4	4	71.9	4	-1E+10	1	-1E+10	1	-1E+10	1	-1E+10	1	-1E+10	1	-1E+10	1
4901784	81	C	09/22/2017	10:41	-133.098	43.892	0	127.50	0	8.5400	0	33.5730	4	26.075	0	126.439	0	200.1	4	69.9	4	-1E+10	1	-1E+10	1	-1E+10	1	-1E+10	1	-1E+10	1	-1E+10	1
4901784	81	C	09/22/2017	10:41	-133.098	43.892	0	129.90	0	8.5690	0	33.6370	4	26.120	0	128.818	0	195.7	4	68.4	4	-1E+10	1	-1E+10	1	-1E+10	1	-1E+10	1	-1E+10	1	-1E+10	1
4901784	81	C	09/22/2017	10:41	-133.098	43.892	0	132.40	0	8.5930	0	33.6880	4	26.157	0	131.297	0	191.1	4	66.8	4	-1E+10	1	-1E+10	1	-1E+10	1	-1E+10	1	-1E+10	1	-1E+10	1
4901784	81	C	09/22/2017	10:41	-133.098	43.892	0	135.10	0	8.6030	0	33.7760	4	26.224	0	133.973	0	187.2	4	65.5	4	-1E+10	1	-1E+10	1	-1E+10	1	-1E+10	1	-1E+10	1	-1E+10	1
4901784	81	C	09/22/2017	10:41	-133.098	43.892	0	136.90	0	8.6010	0	33.7790	4	26.227	0	135.758	0	185.9	4	65.1	4	-1E+10	1	-1E+10	1	-1E+10	1	-1E+10	1	-1E+10	1	-1E+10	1
4901784	81	C	09/22/2017	10:41	-133.098	43.892	0	139.70	0	8.5890	0	33.8360	4	26.273	0	138.533	0	184.4	4	64.6	4	-1E+10	1	-1E+10	1	-1E+10	1	-1E+10	1	-1E+10	1	-1E+10	1
4901784	81	C	09/22/2017	10:41	-133.098	43.892	0	142.60	0	8.5880	0	33.8450	4	26.281	0	141.408	0	183.2	4	64.1	4	-1E+10	1	-1E+10	1	-1E+10	1	-1E+10	1	-1E+10	1	-1E+10	1
4901784	81	C	09/22/2017	10:41	-133.098	43.892	0	144.50	0	8.5810	0	33.8590	4	26.293	0	143.292	0	182.1	4	63.8	4	-1E+10	1	-1E+10	1	-1E+10	1	-1E+10	1	-1E+10	1	-1E+10	1
4901784	81	C	09/22/2017	10:41	-133.098	43.892	0	147.40	0	8.5400	0	33.9040	4	26.334	0	146.166	0	180.7	4	63.3	4	-1E+10	1	-1E+10	1	-1E+10	1	-1E+10	1	-1E+10	1	-1E+10	1
4901784	81	C	09/22/2017	10:41	-133.098	43.892	0	149.80	0	8.5210	0	33.9180	4	26.348	0	148.545	0	180.1	4	63.0	4	-1E+10	1	-1E+10	1	-1E+10	1	-1E+10	1	-1E+10	1	-1E+10	1
4901784	81	C	09/22/2017	10:41	-133.098	43.892	0	152.20	0	8.5160	0	33.9190	4	26.350	0	150.924	0	179.3	4	62.7	4	-1E+10	1	-1E+10	1	-1E+10	1	-1E+10	1	-1E+10	1	-1E+10	1
4901784	81	C	09/22/2017	10:41	-133.098	43.892	0	154.70	0	8.4690	0	33.9370	4	26.371	0	153.402	0	178.3	4	62.3	4	-1E+10	1	-1E+10	1	-1E+10	1	-1E+10	1	-1E+10	1	-1E+10	1
4901784	81	C	09/22/2017	10:41	-133.098	43.892	0	157.20	0	8.4350	0	33.9450	4	26.383	0	155.881	0	177.5	4	62.0	4	-1E+10	1	-1E+10	1	-1E+10	1	-1E+10	1	-1E+10	1	-1E+10	1
4901784	81	C	09/22/2017	10:41	-133.098	43.892	0	159.60	0	8.4100	0	33.9510	4	26.391	0	158.259	0	176.7	4	61.7	4	-1E+10	1	-1E+10	1	-1E+10	1	-1E+10	1	-1E+10	1	-1E+10	1
4901784	81	C	09/22/2017	10:41	-133.098	43.892	0	162.90	0	8.3420	0	33.9630	4	26.411	0	161.530	0	175.3	4	61.1	4	-1E+10	1	-1E+10	1	-1E+10	1	-1E+10	1	-1E+10	1	-1E+10	1
4901784	81	C	09/22/2017	10:41	-133.098	43.892	0	165.30	0	8.2700	0	33.9730	4	26.430	0	163.909	0	174.7	4	60.8	4	-1E+10	1	-1E+10	1	-1E+10	1	-1E+10	1	-1E+10	1	-1E+10	1
4901784	81	C	09/22/2017	10:41	-133.098	43.892	0	167.80	0	8.2350	0	33.9760	4	26.437	0	166.387	0	173.9	4	60.5	4	-1E+10	1	-1E+10	1	-1E+10	1	-1E+10	1	-1E+10	1	-1E+10	1
4901784	81	C	09/22/2017	10:41	-133.098	43.892	0	170.40	0	8.2100	0	33.9780	4	26.443	0	168.964	0	173.1	4	60.2	4	-1E+10	1	-1E+10	1	-1E+10	1	-1E+10	1	-1E+10	1	-1E+10	1
4901784	81	C	09/22/2017	10:41	-133.098	43.892	0	172.10	0	8.1620	0	33.9830	4	26.454	0	170.649	0	172.4	4	59.8	4	-1E+10	1	-1E+10	1	-1E+10	1	-1E+10	1	-1E+10	1	-1E+10	1
4901784	81	C	09/22/2017	10:41	-133.098	43.892	0	174.70	0	8.1130	0	33.9850	4	26.463	0	173.226	0	171.6	4	59.5	4	-1E+10	1	-1E+10	1	-1E+10	1	-1E+10	1	-1E+10	1	-1E+10	1
4901784	81	C	09/22/2017	10:41	-133.098	43.892	0	177.20	0	8.0690	0	33.9880	4	26.472	0	175.704	0	170.8	4	59.2	4	-1E+10	1	-1E+10	1	-1E+10	1	-1E+10	1	-1E+10	1	-1E+10	1
4901784	81	C	09/22/2017	10:41	-133.098	43.892	0	179.80	0	8.0380	0	33.9880	4	26.476	0	178.281	0	169.9	4	58.8	4	-1E+10	1	-1E+10	1	-1E+10	1	-1E+10	1	-1E+10	1	-1E+10	1
4901784	81	C	09/22/2017	10:41	-133.098	43.892	0	182.40	0	8.0000	0	33.9900	4	26.484	0	180.858	0	168.8	4	58.4	4	-1E+10	1	-1E+10	1	-1E+10	1	-1E+10	1	-1E+10	1	-1E+10	1
4901784	81	C	09/22/2017	10:41	-133.098	43.892	0	185.10	0	7.9350	0	33.9920	4	26.495	0	183.534	0	167.7	4	57.9	4	-1E+10	1	-1E+10	1	-1E+10	1	-1E+10	1	-1E+10	1	-1E+10	1
4901784	81	C	09/22/2017	10:41	-133.098	43.892	0	187.60	0	7.8640	0	33.9930	4	26.506	0	186.012	0	166.9	4	57.6	4	-1E+10	1	-1E+10	1	-1E+10	1	-1E+10	1	-1E+10	1	-1E+10	1
4901784	81	C	09/22/2017	10:41	-133.098	43.892	0	190.20	0	7.8450	0	33.9920	4	26.508	0	188.588	0	166.0	4	57.2	4	-1E+10	1	-1E+10	1	-1E+10	1	-1E+10	1	-1E+10	1	-1E+10	1
4901784	81	C	09/22/2017	10:41	-133.098	43.892	0	192.80	0	7.7950	0	33.9930	4	26.516	0	191.165	0	165.2	4	56.9	4	-1E+10	1	-1E+10	1	-1E+10	1	-1E+10	1	-1E+10	1	-1E+10	1
4901784	81	C	09/22/2017	10:41	-133.098	43.892	0	195.40	0	7.7750	0	33.9920	4	26.518	0	193.742	0	164.4	4	56.6	4	-1E+10	1	-1E+10	1	-1E+10	1	-1E+10	1	-1E+10	1	-1E+10	1
4901784	81	C	09/22/2017	10:41	-133.098	43.892	0	197.90	0	7.7350	0	33.9940	4	26.526	0	196.220	0	163.5	4	56.2	4	-1E+10	1	-1E+10	1	-1E+10	1	-1E+10	1	-1E+10	1	-1E+10	1
4901784	81	C	09/22/2017	10:41	-133.098	43.892	0	199.70	0	7.7070	0	33.9940	4	26.530	0	198.003	0	163.1	4	56.1	4	-1E+10	1	-1E+10	1	-1E+10	1	-1E+10	1	-1E+10	1	-1E+10	1
4901784	81	C	09/22/2017	10:41	-133.098	43.892	0	202.40	0	7.6750	0	33.9950	4	26.535	0	200.679	0	162.3	4	55.8	4	-1E+10	1	-1E+10	1	-1E+10	1	-1E+10	1	-1E+10	1	-1E+10	1
4901784	81	C	09/22/2017	10:41	-133.098	43.892	0	205.00	0	7.6650	0	33.9930	4	26.535	0	203.256	0	161.4	4	55.4	4	-1E+10	1	-1E+10	1	-1E+10	1	-1E+10	1	-1E+10	1	-1E+10	1
4901784	81	C	09/22/2017	10:41	-133.098	43.892	0	207.60	0	7.6240	0	33.9940	4	26.542	0	205.832	0	160.3	4	55.0	4	-1E+10	1	-1E+10	1	-1E+10	1	-1E+10	1	-1E+10	1	-1E+10	1
4901784	81	C	09/22/2017	10:41	-133.098	43.892	0	210.30	0	7.5900	0	33.9910	4	26.544	0	208.508	0	158.9	4	54.5	4	-1E+10	1	-1E+10	1	-1E+10	1	-1E+10	1	-1E+10	1	-1E+10	1
4901784	81	C	09/22/2017	10:41	-133.098	43.892	0	212.00	0	7.5460	0	33.9930	4	26.552	0	210.193	0	158.3	4	54.2	4	-1E+10	1	-1E+10	1	-1E+10	1	-1E+10	1	-1E+10	1	-1E+10	1
4901784	81	C	09/22/2017	10:41	-133.098	43.892	0	214.70	0	7.4970	0	33.9940	4	26.560	0	212.868	0	157.1	4	53.7	4	-1E+10	1	-1E+10	1	-1E+10	1	-1E+10	1	-1E+10	1	-1E+10	1
4901784	81	C	09/22/2017	10:41	-133.098	43.892	0	217.20	0	7.4530	0	33.9940	4	26.566	0	215.346	0	155.9	4	53.3	4	-1E+10	1	-1E+10	1	-1E+10	1	-1E+10	1	-1E+10	1	-1E+10	1
4901784	81	C	09/22/2017	10:41	-133.098	43.892	0	219.90	0	7.4190	0	33.9920	4	26.570	0	218.021	0	154.7	4	52.8	4	-1E+10	1	-1E+10	1	-1E+10	1	-1E+10	1	-1E+10	1	-1E+10	1
4901784	81	C	09/22/2017	10:41	-133.098	43.892	0	222.50	0	7.3700	0	33.9900	4	26.575	0	220.598	0	153.3	4	52.3	4	-1E+10	1	-1E+10	1	-1E+10	1	-1E+10	1	-1E+10	1	-1E+10	1
4901784	81	C	09/22/2017	10:41	-133.098	43.892	0	225.20	0	7.2980	0	33.9900	4	26.585	0	223.273	0	151.8	4	51.7	4	-1E+10	1	-1E+10	1	-1E+10	1	-1E+10	1	-1E+10	1	-1E+10	1
4901784	81	C	09/22/2017	10:41	-133.098	43.892	0	227.80	0	7.2120	0	33.9890	4	26.596	0	225.849	0	150.8	4	51.3	4	-1E+10	1	-1E+10	1	-1E+10	1	-1E+10	1	-1E+10	1	-1E+10	1
4901784	81	C	09/22/2017	10:41	-133.098	43.892	0	229.60	0	7.1910	0	33.9920	4	26.602	0	227.633	0	150.5	4	51.1	4	-1E+10	1	-1E+10	1	-1E+10	1	-1E+10	1	-1E+10	1	-1E+10	1
4901784	81	C	09/22/2017	10:41	-133.098	43.892	0	232.20	0	7.1770	0	33.9900	4	26.602	0	230.209	0	149.6	4	50.8	4	-1E+10	1	-1E+10	1	-1E+10	1	-1E+10	1	-1E+10	1	-1E+10	1
4901784	81	C	09/22/2017	10:41	-133.098	43.892	0	234.70	0	7.1670	0	33.9910	4	26.604	0	232.686	0	148.7	4	50.5	4	-1E+10	1	-1E+10	1	-1E+10	1	-1E+10	1	-1E+10	1	-1E+10	1
4901784	81	C	09/22/2017	10:41	-133.098	43.892	0	237.30	0	7.1310	0	33.9900	4	26.608	0	235.263	0	147.5	4	50.0	4	-1E+10	1	-1E+10	1	-1E+10	1	-1E+10	1	-1E+10	1	-1E+10	1
4901784	81	C	09/22/2017	10:41	-133.098	43.892	0	240.00	0	7.0640	0	33.9900	4	26.618	0	237.938	0	146.2	4	49.5	4	-1E+10	1	-1E+10	1	-1E+10	1	-1E+10	1	-1E+10	1	-1E+10	1
4901784	81	C	09/22/2017	10:41	-133.098	43.892	0	242.60	0	7.0390	0	33.9880	4	26.620	0	240.514	0	144.9	4	49.1	4	-1E+10	1	-1E+10	1	-1E+10	1	-1E+10	1	-1E+10	1	-1E+10	1
4901784	81	C	09/22/2017	10:41	-133.098	43.892	0	245.30	0	6.9880	0	33.9880	4	26.627	0	243.189	0	143.5	4	48.5	4	-1E+10	1	-1E+10	1	-1E+10	1	-1E+10	1	-1E+10	1	-1E+10	1
4901784	81	C	09/22/2017	10:41	-133.098	43.892	0	247.10	0	6.9730	0	33.9870	4	26.628	0	244.973	0	142.4	4	48.1	4	-1E+10	1	-1E+10	1	-1E+10	1	-1E+10	1	-1E+10	1	-1E+10	1
4901784	81	C	09/22/2017	10:41	-133.098	43.892	0	249.70	0	6.9080	0	33.9860	4	26.636	0	247.549	0	140.4	4	47.4	4	-1E+10	1	-1E+10	1	-1E+10	1	-1E+10	1	-1E+10	1	-1E+10	1
4901784	81	C	09/22/2017	10:41	-133.098	43.892	0	252.30	0	6.8200	0	33.9870	4	26.649	0	250.125	0	138.9	4	46.8	4	-1E+10	1	-1E+10	1	-1E+10	1	-1E+10	1	-1E+10	1	-1E+10	1
4901784	81	C	09/22/2017	10:41	-133.098	43.892	0	254.90	0	6.7860	0	33.9850	4	26.652	0	252.701	0	137.4	4	46.2	4	-1E+10	1	-1E+10	1	-1E+10	1	-1E+10	1	-1E+10	1	-1E+10	1
4901784	81	C	09/22/2017	10:41	-133.098	43.892	0	257.50	0	6.7160	0	33.9860	4	26.662	0	255.277	0	135.8	4	45.6	4	-1E+10	1	-1E+10	1	-1E+10	1	-1E+10	1	-1E+10	1	-1E+10	1
4901784	81	C	09/22/2017	10:41	-133.098	43.892	0	260.20	0	6.6830	0	33.9830	4	26.664	0	257.952	0	134.6	4	45.2	4	-1E+10	1	-1E+10	1	-1E+10	1	-1E+10	1	-1E+10	1	-1E+10	1
4901784	81	C	09/22/2017	10:41	-133.098	43.892	0	262.80	0	6.6320	0	33.9830	4	26.671	0	260.528	0	133.3	4	44.7	4	-1E+10	1	-1E+10	1	-1E+10	1	-1E+10	1	-1E+10	1	-1E+10	1
4901784	81	C	09/22/2017	10:41	-133.098	43.892	0	265.40	0	6.5860	0	33.9840	4	26.678	0	263.104	0	132.1	4	44.3	4	-1E+10	1	-1E+10	1	-1E+10	1	-1E+10	1	-1E+10	1	-1E+10	1
4901784	81	C	09/22/2017	10:41	-133.098	43.892	0	268.00	0	6.5540	0	33.9830	4	26.681	0	265.679	0	130.9	4	43.8	4	-1E+10	1	-1E+10	1	-1E+10	1	-1E+10	1	-1E+10	1	-1E+10	1
4901784	81	C	09/22/2017	10:41	-133.098	43.892	0	269.80	0	6.5320	0	33.9830	4	26.684	0	267.463	0	129.9	4	43.5	4	-1E+10	1	-1E+10	1	-1E+10	1	-1E+10	1	-1E+10	1	-1E+10	1
4901784	81	C	09/22/2017	10:41	-133.098	43.892	0	272.50	0	6.4780	0	33.9840	4	26.692	0	270.137	0	128.5	4	43.0	4	-1E+10	1	-1E+10	1	-1E+10	1	-1E+10	1	-1E+10	1	-1E+10	1
4901784	81	C	09/22/2017	10:41	-133.098	43.892	0	275.10	0	6.4310	0	33.9840	4	26.698	0	272.713	0	127.3	4	42.5	4	-1E+10	1	-1E+10	1	-1E+10	1	-1E+10	1	-1E+10	1	-1E+10	1
4901784	81	C	09/22/2017	10:41	-133.098	43.892	0	277.70	0	6.3970	0	33.9830	4	26.702	0	275.289	0	126.2	4	42.1	4	-1E+10	1	-1E+10	1	-1E+10	1	-1E+10	1	-1E+10	1	-1E+10	1
4901784	81	C	09/22/2017	10:41	-133.098	43.892	0	280.40	0	6.3590	0	33.9830	4	26.707	0	277.964	0	125.2	4	41.7	4	-1E+10	1	-1E+10	1	-1E+10	1	-1E+10	1	-1E+10	1	-1E+10	1
4901784	81	C	09/22/2017	10:41	-133.098	43.892	0	282.10	0	6.3590	0	33.9820	4	26.706	0	279.648	0	124.3	4	41.4	4	-1E+10	1	-1E+10	1	-1E+10	1	-1E+10	1	-1E+10	1	-1E+10	1
4901784	81	C	09/22/2017	10:41	-133.098	43.892	0	284.70	0	6.2940	0	33.9840	4	26.716	0	282.223	0	122.9	4	40.9	4	-1E+10	1	-1E+10	1	-1E+10	1	-1E+10	1	-1E+10	1	-1E+10	1
4901784	81	C	09/22/2017	10:41	-133.098	43.892	0	287.40	0	6.2540	0	33.9810	4	26.719	0	284.898	0	121.7	4	40.5	4	-1E+10	1	-1E+10	1	-1E+10	1	-1E+10	1	-1E+10	1	-1E+10	1
4901784	81	C	09/22/2017	10:41	-133.098	43.892	0	290.10	0	6.2200	0	33.9820	4	26.724	0	287.573	0	120.4	4	40.0	4	-1E+10	1	-1E+10	1	-1E+10	1	-1E+10	1	-1E+10	1	-1E+10	1
4901784	81	C	09/22/2017	10:41	-133.098	43.892	0	292.80	0	6.1760	0	33.9820	4	26.729	0	290.247	0	118.9	4	39.5	4	-1E+10	1	-1E+10	1	-1E+10	1	-1E+10	1	-1E+10	1	-1E+10	1
4901784	81	C	09/22/2017	10:41	-133.098	43.892	0	294.60	0	6.1320	0	33.9830	4	26.736	0	292.030	0	118.0	4	39.1	4	-1E+10	1	-1E+10	1	-1E+10	1	-1E+10	1	-1E+10	1	-1E+10	1
4901784	81	C	09/22/2017	10:41	-133.098	43.892	0	297.40	0	6.0990	0	33.9810	4	26.738	0	294.804	0	116.8	4	38.7	4	-1E+10	1	-1E+10	1	-1E+10	1	-1E+10	1	-1E+10	1	-1E+10	1
4901784	81	C	09/22/2017	10:41	-133.098	43.892	0	300.10	0	6.0610	0	33.9830	4	26.745	0	297.478	0	115.6	4	38.3	4	-1E+10	1	-1E+10	1	-1E+10	1	-1E+10	1	-1E+10	1	-1E+10	1
4901784	81	C	09/22/2017	10:41	-133.098	43.892	0	302.70	0	6.0270	0	33.9820	4	26.748	0	300.054	0	114.3	4	37.8	4	-1E+10	1	-1E+10	1	-1E+10	1	-1E+10	1	-1E+10	1	-1E+10	1
4901784	81	C	09/22/2017	10:41	-133.098	43.892	0	305.40	0	5.9930	0	33.9810	4	26.752	0	302.728	0	113.0	4	37.3	4	-1E+10	1	-1E+10	1	-1E+10	1	-1E+10	1	-1E+10	1	-1E+10	1
4901784	81	C	09/22/2017	10:41	-133.098	43.892	0	307.20	0	5.9700	0	33.9800	4	26.754	0	304.511	0	111.9	4	37.0	4	-1E+10	1	-1E+10	1	-1E+10	1	-1E+10	1	-1E+10	1	-1E+10	1
4901784	81	C	09/22/2017	10:41	-133.098	43.892	0	309.90	0	5.9260	0	33.9820	4	26.761	0	307.185	0	110.5	4	36.5	4	-1E+10	1	-1E+10	1	-1E+10	1	-1E+10	1	-1E+10	1	-1E+10	1
4901784	81	C	09/22/2017	10:41	-133.098	43.892	0	312.60	0	5.8950	0	33.9820	4	26.765	0	309.860	0	109.0	4	35.9	4	-1E+10	1	-1E+10	1	-1E+10	1	-1E+10	1	-1E+10	1	-1E+10	1
4901784	81	C	09/22/2017	10:41	-133.098	43.892	0	314.40	0	5.8520	0	33.9820	4	26.770	0	311.643	0	108.0	4	35.6	4	-1E+10	1	-1E+10	1	-1E+10	1	-1E+10	1	-1E+10	1	-1E+10	1
4901784	81	C	09/22/2017	10:41	-133.098	43.892	0	317.20	0	5.8260	0	33.9810	4	26.773	0	314.416	0	106.3	4	35.0	4	-1E+10	1	-1E+10	1	-1E+10	1	-1E+10	1	-1E+10	1	-1E+10	1
4901784	81	C	09/22/2017	10:41	-133.098	43.892	0	320.00	0	5.7850	0	33.9820	4	26.778	0	317.189	0	104.2	4	34.3	4	-1E+10	1	-1E+10	1	-1E+10	1	-1E+10	1	-1E+10	1	-1E+10	1
4901784	81	C	09/22/2017	10:41	-133.098	43.892	0	322.80	0	5.7140	0	33.9850	4	26.790	0	319.963	0	102.1	4	33.5	4	-1E+10	1	-1E+10	1	-1E+10	1	-1E+10	1	-1E+10	1	-1E+10	1
4901784	81	C	09/22/2017	10:41	-133.098	43.892	0	325.60	0	5.6820	0	33.9870	4	26.795	0	322.736	0	100.8	4	33.1	4	-1E+10	1	-1E+10	1	-1E+10	1	-1E+10	1	-1E+10	1	-1E+10	1
4901784	81	C	09/22/2017	10:41	-133.098	43.892	0	328.00	0	5.6180	0	33.9870	4	26.803	0	325.113	0	100.0	4	32.8	4	-1E+10	1	-1E+10	1	-1E+10	1	-1E+10	1	-1E+10	1	-1E+10	1
4901784	81	C	09/22/2017	10:41	-133.098	43.892	0	329.80	0	5.6040	0	33.9860	4	26.804	0	326.895	0	99.3	4	32.5	4	-1E+10	1	-1E+10	1	-1E+10	1	-1E+10	1	-1E+10	1	-1E+10	1
4901784	81	C	09/22/2017	10:41	-133.098	43.892	0	332.20	0	5.5770	0	33.9870	4	26.808	0	329.272	0	98.1	4	32.1	4	-1E+10	1	-1E+10	1	-1E+10	1	-1E+10	1	-1E+10	1	-1E+10	1
4901784	81	C	09/22/2017	10:41	-133.098	43.892	0	335.40	0	5.5300	0	33.9880	4	26.814	0	332.442	0	96.7	4	31.6	4	-1E+10	1	-1E+10	1	-1E+10	1	-1E+10	1	-1E+10	1	-1E+10	1
4901784	81	C	09/22/2017	10:41	-133.098	43.892	0	337.80	0	5.5050	0	33.9890	4	26.818	0	334.819	0	96.0	4	31.4	4	-1E+10	1	-1E+10	1	-1E+10	1	-1E+10	1	-1E+10	1	-1E+10	1
4901784	81	C	09/22/2017	10:41	-133.098	43.892	0	340.20	0	5.4980	0	33.9890	4	26.819	0	337.195	0	95.1	4	31.1	4	-1E+10	1	-1E+10	1	-1E+10	1	-1E+10	1	-1E+10	1	-1E+10	1
4901784	81	C	09/22/2017	10:41	-133.098	43.892	0	342.60	0	5.4800	0	33.9900	4	26.822	0	339.572	0	94.1	4	30.7	4	-1E+10	1	-1E+10	1	-1E+10	1	-1E+10	1	-1E+10	1	-1E+10	1
4901784	81	C	09/22/2017	10:41	-133.098	43.892	0	345.00	0	5.4720	0	33.9910	4	26.824	0	341.949	0	93.0	4	30.4	4	-1E+10	1	-1E+10	1	-1E+10	1	-1E+10	1	-1E+10	1	-1E+10	1
4901784	81	C	09/22/2017	10:41	-133.098	43.892	0	347.40	0	5.4520	0	33.9930	4	26.828	0	344.326	0	91.9	4	30.0	4	-1E+10	1	-1E+10	1	-1E+10	1	-1E+10	1	-1E+10	1	-1E+10	1
4901784	81	C	09/22/2017	10:41	-133.098	43.892	0	349.90	0	5.4270	0	33.9950	4	26.832	0	346.802	0	91.1	4	29.7	4	-1E+10	1	-1E+10	1	-1E+10	1	-1E+10	1	-1E+10	1	-1E+10	1
4901784	81	C	09/22/2017	10:41	-133.098	43.892	0	352.30	0	5.4140	0	33.9960	4	26.835	0	349.178	0	90.1	4	29.4	4	-1E+10	1	-1E+10	1	-1E+10	1	-1E+10	1	-1E+10	1	-1E+10	1
4901784	81	C	09/22/2017	10:41	-133.098	43.892	0	354.80	0	5.3870	0	33.9970	4	26.839	0	351.654	0	89.0	4	29.0	4	-1E+10	1	-1E+10	1	-1E+10	1	-1E+10	1	-1E+10	1	-1E+10	1
4901784	81	C	09/22/2017	10:41	-133.098	43.892	0	357.20	0	5.3640	0	33.9960	4	26.840	0	354.031	0	88.0	4	28.7	4	-1E+10	1	-1E+10	1	-1E+10	1	-1E+10	1	-1E+10	1	-1E+10	1
4901784	81	C	09/22/2017	10:41	-133.098	43.892	0	359.70	0	5.3490	0	33.9980	4	26.844	0	356.506	0	86.8	4	28.3	4	-1E+10	1	-1E+10	1	-1E+10	1	-1E+10	1	-1E+10	1	-1E+10	1
4901784	81	C	09/22/2017	10:41	-133.098	43.892	0	362.20	0	5.3290	0	34.0020	4	26.849	0	358.982	0	85.6	4	27.9	4	-1E+10	1	-1E+10	1	-1E+10	1	-1E+10	1	-1E+10	1	-1E+10	1
4901784	81	C	09/22/2017	10:41	-133.098	43.892	0	364.80	0	5.2980	0	34.0030	4	26.854	0	361.557	0	84.3	4	27.4	4	-1E+10	1	-1E+10	1	-1E+10	1	-1E+10	1	-1E+10	1	-1E+10	1
4901784	81	C	09/22/2017	10:41	-133.098	43.892	0	367.30	0	5.2770	0	34.0030	4	26.856	0	364.032	0	83.0	4	27.0	4	-1E+10	1	-1E+10	1	-1E+10	1	-1E+10	1	-1E+10	1	-1E+10	1
4901784	81	C	09/22/2017	10:41	-133.098	43.892	0	369.90	0	5.2320	0	34.0060	4	26.864	0	366.607	0	82.0	4	26.6	4	-1E+10	1	-1E+10	1	-1E+10	1	-1E+10	1	-1E+10	1	-1E+10	1
4901784	81	C	09/22/2017	10:41	-133.098	43.892	0	372.50	0	5.2210	0	34.0080	4	26.867	0	369.181	0	80.9	4	26.3	4	-1E+10	1	-1E+10	1	-1E+10	1	-1E+10	1	-1E+10	1	-1E+10	1
4901784	81	C	09/22/2017	10:41	-133.098	43.892	0	375.10	0	5.1930	0	34.0120	4	26.873	0	371.756	0	79.7	4	25.9	4	-1E+10	1	-1E+10	1	-1E+10	1	-1E+10	1	-1E+10	1	-1E+10	1
4901784	81	C	09/22/2017	10:41	-133.098	43.892	0	377.60	0	5.1690	0	34.0150	4	26.878	0	374.231	0	79.0	4	25.6	4	-1E+10	1	-1E+10	1	-1E+10	1	-1E+10	1	-1E+10	1	-1E+10	1
4901784	81	C	09/22/2017	10:41	-133.098	43.892	0	380.30	0	5.1580	0	34.0170	4	26.881	0	376.905	0	78.3	4	25.4	4	-1E+10	1	-1E+10	1	-1E+10	1	-1E+10	1	-1E+10	1	-1E+10	1
4901784	81	C	09/22/2017	10:41	-133.098	43.892	0	382.90	0	5.1510	0	34.0180	4	26.883	0	379.479	0	77.6	4	25.2	4	-1E+10	1	-1E+10	1	-1E+10	1	-1E+10	1	-1E+10	1	-1E+10	1
4901784	81	C	09/22/2017	10:41	-133.098	43.892	0	384.70	0	5.1480	0	34.0170	4	26.883	0	381.262	0	77.1	4	25.0	4	-1E+10	1	-1E+10	1	-1E+10	1	-1E+10	1	-1E+10	1	-1E+10	1
4901784	81	C	09/22/2017	10:41	-133.098	43.892	0	387.30	0	5.1230	0	34.0210	4	26.889	0	383.836	0	76.1	4	24.6	4	-1E+10	1	-1E+10	1	-1E+10	1	-1E+10	1	-1E+10	1	-1E+10	1
4901784	81	C	09/22/2017	10:41	-133.098	43.892	0	389.90	0	5.1070	0	34.0230	4	26.892	0	386.410	0	75.3	4	24.4	4	-1E+10	1	-1E+10	1	-1E+10	1	-1E+10	1	-1E+10	1	-1E+10	1
4901784	81	C	09/22/2017	10:41	-133.098	43.892	0	392.70	0	5.0940	0	34.0250	4	26.895	0	389.182	0	74.5	4	24.1	4	-1E+10	1	-1E+10	1	-1E+10	1	-1E+10	1	-1E+10	1	-1E+10	1
4901784	81	C	09/22/2017	10:41	-133.098	43.892	0	395.40	0	5.0780	0	34.0260	4	26.898	0	391.856	0	73.5	4	23.8	4	-1E+10	1	-1E+10	1	-1E+10	1	-1E+10	1	-1E+10	1	-1E+10	1
4901784	81	C	09/22/2017	10:41	-133.098	43.892	0	397.20	0	5.0590	0	34.0280	4	26.902	0	393.638	0	72.8	4	23.5	4	-1E+10	1	-1E+10	1	-1E+10	1	-1E+10	1	-1E+10	1	-1E+10	1
4901784	81	C	09/22/2017	10:41	-133.098	43.892	0	399.90	0	5.0450	0	34.0310	4	26.906	0	396.311	0	71.8	4	23.2	4	-1E+10	1	-1E+10	1	-1E+10	1	-1E+10	1	-1E+10	1	-1E+10	1
4901784	81	C	09/22/2017	10:41	-133.098	43.892	0	402.60	0	5.0390	0	34.0320	4	26.907	0	398.984	0	71.0	4	23.0	4	-1E+10	1	-1E+10	1	-1E+10	1	-1E+10	1	-1E+10	1	-1E+10	1
4901784	81	C	09/22/2017	10:41	-133.098	43.892	0	404.50	0	5.0260	0	34.0350	4	26.911	0	400.865	0	70.4	4	22.7	4	-1E+10	1	-1E+10	1	-1E+10	1	-1E+10	1	-1E+10	1	-1E+10	1
4901784	81	C	09/22/2017	10:41	-133.098	43.892	0	407.20	0	5.0120	0	34.0350	4	26.913	0	403.539	0	69.5	4	22.5	4	-1E+10	1	-1E+10	1	-1E+10	1	-1E+10	1	-1E+10	1	-1E+10	1
4901784	81	C	09/22/2017	10:41	-133.098	43.892	0	410.00	0	5.0000	0	34.0380	4	26.916	0	406.311	0	68.7	4	22.2	4	-1E+10	1	-1E+10	1	-1E+10	1	-1E+10	1	-1E+10	1	-1E+10	1
4901784	81	C	09/22/2017	10:41	-133.098	43.892	0	412.80	0	4.9880	0	34.0400	4	26.919	0	409.083	0	68.0	4	22.0	4	-1E+10	1	-1E+10	1	-1E+10	1	-1E+10	1	-1E+10	1	-1E+10	1
4901784	81	C	09/22/2017	10:41	-133.098	43.892	0	415.50	0	4.9780	0	34.0410	4	26.921	0	411.756	0	67.6	4	21.8	4	-1E+10	1	-1E+10	1	-1E+10	1	-1E+10	1	-1E+10	1	-1E+10	1
4901784	81	C	09/22/2017	10:41	-133.098	43.892	0	417.30	0	4.9670	0	34.0420	4	26.923	0	413.538	0	67.1	4	21.7	4	-1E+10	1	-1E+10	1	-1E+10	1	-1E+10	1	-1E+10	1	-1E+10	1
4901784	81	C	09/22/2017	10:41	-133.098	43.892	0	420.10	0	4.9550	0	34.0440	4	26.926	0	416.310	0	66.2	4	21.4	4	-1E+10	1	-1E+10	1	-1E+10	1	-1E+10	1	-1E+10	1	-1E+10	1
4901784	81	C	09/22/2017	10:41	-133.098	43.892	0	422.90	0	4.9470	0	34.0460	4	26.929	0	419.081	0	65.1	4	21.0	4	-1E+10	1	-1E+10	1	-1E+10	1	-1E+10	1	-1E+10	1	-1E+10	1
4901784	81	C	09/22/2017	10:41	-133.098	43.892	0	424.80	0	4.9420	0	34.0480	4	26.931	0	420.962	0	64.2	4	20.7	4	-1E+10	1	-1E+10	1	-1E+10	1	-1E+10	1	-1E+10	1	-1E+10	1
4901784	81	C	09/22/2017	10:41	-133.098	43.892	0	427.60	0	4.9320	0	34.0490	4	26.933	0	423.734	0	62.9	4	20.3	4	-1E+10	1	-1E+10	1	-1E+10	1	-1E+10	1	-1E+10	1	-1E+10	1
4901784	81	C	09/22/2017	10:41	-133.098	43.892	0	430.50	0	4.9200	0	34.0520	4	26.937	0	426.605	0	61.7	4	19.9	4	-1E+10	1	-1E+10	1	-1E+10	1	-1E+10	1	-1E+10	1	-1E+10	1
4901784	81	C	09/22/2017	10:41	-133.098	43.892	0	432.40	0	4.9180	0	34.0550	4	26.939	0	428.486	0	61.2	4	19.7	4	-1E+10	1	-1E+10	1	-1E+10	1	-1E+10	1	-1E+10	1	-1E+10	1
4901784	81	C	09/22/2017	10:41	-133.098	43.892	0	435.20	0	4.8980	0	34.0580	4	26.944	0	431.258	0	60.9	4	19.6	4	-1E+10	1	-1E+10	1	-1E+10	1	-1E+10	1	-1E+10	1	-1E+10	1
4901784	81	C	09/22/2017	10:41	-133.098	43.892	0	438.10	0	4.8780	0	34.0580	4	26.946	0	434.128	0	60.3	4	19.4	4	-1E+10	1	-1E+10	1	-1E+10	1	-1E+10	1	-1E+10	1	-1E+10	1
4901784	81	C	09/22/2017	10:41	-133.098	43.892	0	440.00	0	4.8630	0	34.0610	4	26.950	0	436.009	0	59.3	4	19.1	4	-1E+10	1	-1E+10	1	-1E+10	1	-1E+10	1	-1E+10	1	-1E+10	1
4901784	81	C	09/22/2017	10:41	-133.098	43.892	0	441.90	0	4.8580	0	34.0640	4	26.953	0	437.890	0	58.2	4	18.7	4	-1E+10	1	-1E+10	1	-1E+10	1	-1E+10	1	-1E+10	1	-1E+10	1
4901784	81	C	09/22/2017	10:41	-133.098	43.892	0	444.80	0	4.8560	0	34.0660	4	26.955	0	440.760	0	56.8	4	18.3	4	-1E+10	1	-1E+10	1	-1E+10	1	-1E+10	1	-1E+10	1	-1E+10	1
4901784	81	C	09/22/2017	10:41	-133.098	43.892	0	447.70	0	4.8570	0	34.0670	4	26.956	0	443.631	0	55.9	4	18.0	4	-1E+10	1	-1E+10	1	-1E+10	1	-1E+10	1	-1E+10	1	-1E+10	1
4901784	81	C	09/22/2017	10:41	-133.098	43.892	0	449.60	0	4.8470	0	34.0690	4	26.959	0	445.512	0	55.4	4	17.8	4	-1E+10	1	-1E+10	1	-1E+10	1	-1E+10	1	-1E+10	1	-1E+10	1
4901784	81	C	09/22/2017	10:41	-133.098	43.892	0	452.50	0	4.8330	0	34.0730	4	26.963	0	448.382	0	54.8	4	17.6	4	-1E+10	1	-1E+10	1	-1E+10	1	-1E+10	1	-1E+10	1	-1E+10	1
4901784	81	C	09/22/2017	10:41	-133.098	43.892	0	455.40	0	4.8250	0	34.0740	4	26.965	0	451.253	0	54.1	4	17.4	4	-1E+10	1	-1E+10	1	-1E+10	1	-1E+10	1	-1E+10	1	-1E+10	1
4901784	81	C	09/22/2017	10:41	-133.098	43.892	0	457.30	0	4.8220	0	34.0750	4	26.966	0	453.133	0	53.7	4	17.3	4	-1E+10	1	-1E+10	1	-1E+10	1	-1E+10	1	-1E+10	1	-1E+10	1
4901784	81	C	09/22/2017	10:41	-133.098	43.892	0	460.20	0	4.8090	0	34.0790	4	26.971	0	456.004	0	53.1	4	17.1	4	-1E+10	1	-1E+10	1	-1E+10	1	-1E+10	1	-1E+10	1	-1E+10	1
4901784	81	C	09/22/2017	10:41	-133.098	43.892	0	463.20	0	4.7980	0	34.0800	4	26.973	0	458.973	0	52.5	4	16.9	4	-1E+10	1	-1E+10	1	-1E+10	1	-1E+10	1	-1E+10	1	-1E+10	1
4901784	81	C	09/22/2017	10:41	-133.098	43.892	0	465.10	0	4.7930	0	34.0800	4	26.973	0	460.854	0	52.0	4	16.7	4	-1E+10	1	-1E+10	1	-1E+10	1	-1E+10	1	-1E+10	1	-1E+10	1
4901784	81	C	09/22/2017	10:41	-133.098	43.892	0	467.60	0	4.7810	0	34.0840	4	26.978	0	463.328	0	51.5	4	16.6	4	-1E+10	1	-1E+10	1	-1E+10	1	-1E+10	1	-1E+10	1	-1E+10	1
4901784	81	C	09/22/2017	10:41	-133.098	43.892	0	470.40	0	4.7730	0	34.0860	4	26.980	0	466.099	0	51.0	4	16.4	4	-1E+10	1	-1E+10	1	-1E+10	1	-1E+10	1	-1E+10	1	-1E+10	1
4901784	81	C	09/22/2017	10:41	-133.098	43.892	0	472.80	0	4.7610	0	34.0880	4	26.983	0	468.475	0	50.5	4	16.2	4	-1E+10	1	-1E+10	1	-1E+10	1	-1E+10	1	-1E+10	1	-1E+10	1
4901784	81	C	09/22/2017	10:41	-133.098	43.892	0	475.20	0	4.7580	0	34.0890	4	26.985	0	470.850	0	50.0	4	16.1	4	-1E+10	1	-1E+10	1	-1E+10	1	-1E+10	1	-1E+10	1	-1E+10	1
4901784	81	C	09/22/2017	10:41	-133.098	43.892	0	477.70	0	4.7470	0	34.0920	4	26.988	0	473.324	0	49.4	4	15.9	4	-1E+10	1	-1E+10	1	-1E+10	1	-1E+10	1	-1E+10	1	-1E+10	1
4901784	81	C	09/22/2017	10:41	-133.098	43.892	0	480.20	0	4.7380	0	34.0930	4	26.990	0	475.798	0	49.1	4	15.8	4	-1E+10	1	-1E+10	1	-1E+10	1	-1E+10	1	-1E+10	1	-1E+10	1
4901784	81	C	09/22/2017	10:41	-133.098	43.892	0	482.70	0	4.7290	0	34.0940	4	26.992	0	478.273	0	48.5	4	15.6	4	-1E+10	1	-1E+10	1	-1E+10	1	-1E+10	1	-1E+10	1	-1E+10	1
4901784	81	C	09/22/2017	10:41	-133.098	43.892	0	485.20	0	4.7180	0	34.0950	4	26.994	0	480.747	0	47.9	4	15.4	4	-1E+10	1	-1E+10	1	-1E+10	1	-1E+10	1	-1E+10	1	-1E+10	1
4901784	81	C	09/22/2017	10:41	-133.098	43.892	0	487.60	0	4.7010	0	34.0980	4	26.998	0	483.122	0	47.2	4	15.1	4	-1E+10	1	-1E+10	1	-1E+10	1	-1E+10	1	-1E+10	1	-1E+10	1
4901784	81	C	09/22/2017	10:41	-133.098	43.892	0	490.10	0	4.6960	0	34.1010	4	27.001	0	485.596	0	46.3	4	14.8	4	-1E+10	1	-1E+10	1	-1E+10	1	-1E+10	1	-1E+10	1	-1E+10	1
4901784	81	C	09/22/2017	10:41	-133.098	43.892	0	492.50	0	4.6900	0	34.1040	4	27.004	0	487.971	0	45.4	4	14.6	4	-1E+10	1	-1E+10	1	-1E+10	1	-1E+10	1	-1E+10	1	-1E+10	1
4901784	81	C	09/22/2017	10:41	-133.098	43.892	0	495.00	0	4.6820	0	34.1060	4	27.007	0	490.445	0	45.0	4	14.4	4	-1E+10	1	-1E+10	1	-1E+10	1	-1E+10	1	-1E+10	1	-1E+10	1
4901784	81	C	09/22/2017	10:41	-133.098	43.892	0	497.50	0	4.6790	0	34.1070	4	27.008	0	492.919	0	44.4	4	14.3	4	-1E+10	1	-1E+10	1	-1E+10	1	-1E+10	1	-1E+10	1	-1E+10	1
4901784	81	C	09/22/2017	10:41	-133.098	43.892	0	500.00	0	4.6630	0	34.1100	4	27.012	0	495.393	0	43.8	4	14.1	4	-1E+10	1	-1E+10	1	-1E+10	1	-1E+10	1	-1E+10	1	-1E+10	1
4901784	81	C	09/22/2017	10:41	-133.098	43.892	0	505.70	0	4.6460	0	34.1150	4	27.018	0	501.034	0	42.3	4	13.5	4	-1E+10	1	-1E+10	1	-1E+10	1	-1E+10	1	-1E+10	1	-1E+10	1
4901784	81	C	09/22/2017	10:41	-133.098	43.892	0	510.70	0	4.6280	0	34.1200	4	27.024	0	505.982	0	40.9	4	13.1	4	-1E+10	1	-1E+10	1	-1E+10	1	-1E+10	1	-1E+10	1	-1E+10	1
4901784	81	C	09/22/2017	10:41	-133.098	43.892	0	515.70	0	4.6060	0	34.1250	4	27.030	0	510.929	0	39.6	4	12.7	4	-1E+10	1	-1E+10	1	-1E+10	1	-1E+10	1	-1E+10	1	-1E+10	1
4901784	81	C	09/22/2017	10:41	-133.098	43.892	0	520.70	0	4.5830	0	34.1320	4	27.038	0	515.877	0	38.5	4	12.3	4	-1E+10	1	-1E+10	1	-1E+10	1	-1E+10	1	-1E+10	1	-1E+10	1
4901784	81	C	09/22/2017	10:41	-133.098	43.892	0	525.80	0	4.5590	0	34.1350	4	27.043	0	520.923	0	37.8	4	12.1	4	-1E+10	1	-1E+10	1	-1E+10	1	-1E+10	1	-1E+10	1	-1E+10	1
4901784	81	C	09/22/2017	10:41	-133.098	43.892	0	530.00	0	4.5380	0	34.1390	4	27.049	0	525.079	0	36.6	4	11.7	4	-1E+10	1	-1E+10	1	-1E+10	1	-1E+10	1	-1E+10	1	-1E+10	1
4901784	81	C	09/22/2017	10:41	-133.098	43.892	0	534.40	0	4.5390	0	34.1440	4	27.053	0	529.433	0	35.4	4	11.3	4	-1E+10	1	-1E+10	1	-1E+10	1	-1E+10	1	-1E+10	1	-1E+10	1
4901784	81	C	09/22/2017	10:41	-133.098	43.892	0	539.60	0	4.5200	0	34.1480	4	27.058	0	534.578	0	34.2	4	10.9	4	-1E+10	1	-1E+10	1	-1E+10	1	-1E+10	1	-1E+10	1	-1E+10	1
4901784	81	C	09/22/2017	10:41	-133.098	43.892	0	544.80	0	4.5100	0	34.1530	4	27.063	0	539.722	0	32.8	4	10.5	4	-1E+10	1	-1E+10	1	-1E+10	1	-1E+10	1	-1E+10	1	-1E+10	1
4901784	81	C	09/22/2017	10:41	-133.098	43.892	0	549.90	0	4.4900	0	34.1600	4	27.071	0	544.768	0	30.9	4	9.9	4	-1E+10	1	-1E+10	1	-1E+10	1	-1E+10	1	-1E+10	1	-1E+10	1
4901784	81	C	09/22/2017	10:41	-133.098	43.892	0	555.00	0	4.5030	0	34.1700	4	27.077	0	549.814	0	28.8	4	9.2	4	-1E+10	1	-1E+10	1	-1E+10	1	-1E+10	1	-1E+10	1	-1E+10	1
4901784	81	C	09/22/2017	10:41	-133.098	43.892	0	560.30	0	4.5350	0	34.1810	4	27.083	0	555.057	0	27.3	4	8.7	4	-1E+10	1	-1E+10	1	-1E+10	1	-1E+10	1	-1E+10	1	-1E+10	1
4901784	81	C	09/22/2017	10:41	-133.098	43.892	0	565.60	0	4.5030	0	34.1850	4	27.089	0	560.301	0	27.2	4	8.7	4	-1E+10	1	-1E+10	1	-1E+10	1	-1E+10	1	-1E+10	1	-1E+10	1
4901784	81	C	09/22/2017	10:41	-133.098	43.892	0	570.00	0	4.4570	0	34.1820	4	27.092	0	564.653	0	27.3	4	8.7	4	-1E+10	1	-1E+10	1	-1E+10	1	-1E+10	1	-1E+10	1	-1E+10	1
4901784	81	C	09/22/2017	10:41	-133.098	43.892	0	574.60	0	4.4150	0	34.1850	4	27.099	0	569.204	0	27.1	4	8.6	4	-1E+10	1	-1E+10	1	-1E+10	1	-1E+10	1	-1E+10	1	-1E+10	1
4901784	81	C	09/22/2017	10:41	-133.098	43.892	0	579.90	0	4.3750	0	34.1880	4	27.106	0	574.447	0	26.9	4	8.6	4	-1E+10	1	-1E+10	1	-1E+10	1	-1E+10	1	-1E+10	1	-1E+10	1
4901784	81	C	09/22/2017	10:41	-133.098	43.892	0	585.30	0	4.3350	0	34.1940	4	27.115	0	579.789	0	26.1	4	8.3	4	-1E+10	1	-1E+10	1	-1E+10	1	-1E+10	1	-1E+10	1	-1E+10	1
4901784	81	C	09/22/2017	10:41	-133.098	43.892	0	590.70	0	4.3250	0	34.1980	4	27.119	0	585.130	0	25.2	4	8.0	4	-1E+10	1	-1E+10	1	-1E+10	1	-1E+10	1	-1E+10	1	-1E+10	1
4901784	81	C	09/22/2017	10:41	-133.098	43.892	0	595.20	0	4.3110	0	34.2010	4	27.123	0	589.581	0	24.3	4	7.7	4	-1E+10	1	-1E+10	1	-1E+10	1	-1E+10	1	-1E+10	1	-1E+10	1
4901784	81	C	09/22/2017	10:41	-133.098	43.892	0	599.60	0	4.3060	0	34.2060	4	27.127	0	593.934	0	23.2	4	7.4	4	-1E+10	1	-1E+10	1	-1E+10	1	-1E+10	1	-1E+10	1	-1E+10	1
4901784	81	C	09/22/2017	10:41	-133.098	43.892	0	605.10	0	4.3150	0	34.2150	4	27.134	0	599.374	0	21.7	4	6.9	4	-1E+10	1	-1E+10	1	-1E+10	1	-1E+10	1	-1E+10	1	-1E+10	1
4901784	81	C	09/22/2017	10:41	-133.098	43.892	0	610.60	0	4.3250	0	34.2230	4	27.139	0	604.814	0	20.6	4	6.6	4	-1E+10	1	-1E+10	1	-1E+10	1	-1E+10	1	-1E+10	1	-1E+10	1
4901784	81	C	09/22/2017	10:41	-133.098	43.892	0	615.20	0	4.3170	0	34.2300	4	27.145	0	609.363	0	20.0	4	6.4	4	-1E+10	1	-1E+10	1	-1E+10	1	-1E+10	1	-1E+10	1	-1E+10	1
4901784	81	C	09/22/2017	10:41	-133.098	43.892	0	619.80	0	4.3130	0	34.2340	4	27.149	0	613.913	0	19.7	4	6.3	4	-1E+10	1	-1E+10	1	-1E+10	1	-1E+10	1	-1E+10	1	-1E+10	1
4901784	81	C	09/22/2017	10:41	-133.098	43.892	0	625.30	0	4.2740	0	34.2370	4	27.156	0	619.352	0	19.6	4	6.2	4	-1E+10	1	-1E+10	1	-1E+10	1	-1E+10	1	-1E+10	1	-1E+10	1
4901784	81	C	09/22/2017	10:41	-133.098	43.892	0	629.80	0	4.2160	0	34.2370	4	27.162	0	623.803	0	19.5	4	6.2	4	-1E+10	1	-1E+10	1	-1E+10	1	-1E+10	1	-1E+10	1	-1E+10	1
4901784	81	C	09/22/2017	10:41	-133.098	43.892	0	634.50	0	4.1970	0	34.2420	4	27.168	0	628.451	0	19.1	4	6.1	4	-1E+10	1	-1E+10	1	-1E+10	1	-1E+10	1	-1E+10	1	-1E+10	1
4901784	81	C	09/22/2017	10:41	-133.098	43.892	0	640.00	0	4.1790	0	34.2470	4	27.174	0	633.890	0	18.5	4	5.9	4	-1E+10	1	-1E+10	1	-1E+10	1	-1E+10	1	-1E+10	1	-1E+10	1
4901784	81	C	09/22/2017	10:41	-133.098	43.892	0	645.50	0	4.1620	0	34.2520	4	27.179	0	639.329	0	18.0	4	5.7	4	-1E+10	1	-1E+10	1	-1E+10	1	-1E+10	1	-1E+10	1	-1E+10	1
4901784	81	C	09/22/2017	10:41	-133.098	43.892	0	650.20	0	4.1440	0	34.2590	4	27.187	0	643.977	0	17.7	4	5.6	4	-1E+10	1	-1E+10	1	-1E+10	1	-1E+10	1	-1E+10	1	-1E+10	1
4901784	81	C	09/22/2017	10:41	-133.098	43.892	0	654.80	0	4.1360	0	34.2590	4	27.188	0	648.526	0	17.4	4	5.5	4	-1E+10	1	-1E+10	1	-1E+10	1	-1E+10	1	-1E+10	1	-1E+10	1
4901784	81	C	09/22/2017	10:41	-133.098	43.892	0	660.50	0	4.1180	0	34.2650	4	27.194	0	654.162	0	16.9	4	5.4	4	-1E+10	1	-1E+10	1	-1E+10	1	-1E+10	1	-1E+10	1	-1E+10	1
4901784	81	C	09/22/2017	10:41	-133.098	43.892	0	665.20	0	4.1020	0	34.2710	4	27.201	0	658.810	0	16.7	4	5.3	4	-1E+10	1	-1E+10	1	-1E+10	1	-1E+10	1	-1E+10	1	-1E+10	1
4901784	81	C	09/22/2017	10:41	-133.098	43.892	0	669.90	0	4.0840	0	34.2730	4	27.204	0	663.457	0	16.5	4	5.2	4	-1E+10	1	-1E+10	1	-1E+10	1	-1E+10	1	-1E+10	1	-1E+10	1
4901784	81	C	09/22/2017	10:41	-133.098	43.892	0	675.50	0	4.0810	0	34.2760	4	27.207	0	668.994	0	16.2	4	5.1	4	-1E+10	1	-1E+10	1	-1E+10	1	-1E+10	1	-1E+10	1	-1E+10	1
4901784	81	C	09/22/2017	10:41	-133.098	43.892	0	680.40	0	4.0760	0	34.2780	4	27.209	0	673.839	0	15.9	4	5.0	4	-1E+10	1	-1E+10	1	-1E+10	1	-1E+10	1	-1E+10	1	-1E+10	1
4901784	81	C	09/22/2017	10:41	-133.098	43.892	0	685.00	0	4.0630	0	34.2850	4	27.216	0	678.387	0	15.5	4	4.9	4	-1E+10	1	-1E+10	1	-1E+10	1	-1E+10	1	-1E+10	1	-1E+10	1
4901784	81	C	09/22/2017	10:41	-133.098	43.892	0	689.80	0	4.0610	0	34.2870	4	27.218	0	683.133	0	15.2	4	4.8	4	-1E+10	1	-1E+10	1	-1E+10	1	-1E+10	1	-1E+10	1	-1E+10	1
4901784	81	C	09/22/2017	10:41	-133.098	43.892	0	694.80	0	4.0740	0	34.2950	4	27.223	0	688.077	0	14.7	4	4.6	4	-1E+10	1	-1E+10	1	-1E+10	1	-1E+10	1	-1E+10	1	-1E+10	1
4901784	81	C	09/22/2017	10:41	-133.098	43.892	0	699.70	0	4.0490	0	34.2970	4	27.227	0	692.921	0	14.6	4	4.6	4	-1E+10	1	-1E+10	1	-1E+10	1	-1E+10	1	-1E+10	1	-1E+10	1
4901784	81	C	09/22/2017	10:41	-133.098	43.892	0	704.60	0	4.0210	0	34.3010	4	27.233	0	697.765	0	14.2	4	4.5	4	-1E+10	1	-1E+10	1	-1E+10	1	-1E+10	1	-1E+10	1	-1E+10	1
4901784	81	C	09/22/2017	10:41	-133.098	43.892	0	709.50	0	4.0290	0	34.3090	4	27.239	0	702.610	0	13.6	4	4.3	4	-1E+10	1	-1E+10	1	-1E+10	1	-1E+10	1	-1E+10	1	-1E+10	1
4901784	81	C	09/22/2017	10:41	-133.098	43.892	0	714.50	0	4.0580	0	34.3190	4	27.244	0	707.553	0	13.0	4	4.1	4	-1E+10	1	-1E+10	1	-1E+10	1	-1E+10	1	-1E+10	1	-1E+10	1
4901784	81	C	09/22/2017	10:41	-133.098	43.892	0	719.60	0	4.0650	0	34.3250	4	27.248	0	712.594	0	12.8	4	4.1	4	-1E+10	1	-1E+10	1	-1E+10	1	-1E+10	1	-1E+10	1	-1E+10	1
4901784	81	C	09/22/2017	10:41	-133.098	43.892	0	724.60	0	4.0490	0	34.3280	4	27.252	0	717.537	0	12.8	4	4.0	4	-1E+10	1	-1E+10	1	-1E+10	1	-1E+10	1	-1E+10	1	-1E+10	1
4901784	81	C	09/22/2017	10:41	-133.098	43.892	0	729.70	0	4.0410	0	34.3300	4	27.255	0	722.579	0	12.6	4	4.0	4	-1E+10	1	-1E+10	1	-1E+10	1	-1E+10	1	-1E+10	1	-1E+10	1
4901784	81	C	09/22/2017	10:41	-133.098	43.892	0	734.70	0	4.0390	0	34.3340	4	27.258	0	727.521	0	12.5	4	4.0	4	-1E+10	1	-1E+10	1	-1E+10	1	-1E+10	1	-1E+10	1	-1E+10	1
4901784	81	C	09/22/2017	10:41	-133.098	43.892	0	739.90	0	4.0220	0	34.3360	4	27.261	0	732.661	0	12.4	4	3.9	4	-1E+10	1	-1E+10	1	-1E+10	1	-1E+10	1	-1E+10	1	-1E+10	1
4901784	81	C	09/22/2017	10:41	-133.098	43.892	0	745.10	0	4.0220	0	34.3370	4	27.262	0	737.801	0	12.3	4	3.9	4	-1E+10	1	-1E+10	1	-1E+10	1	-1E+10	1	-1E+10	1	-1E+10	1
4901784	81	C	09/22/2017	10:41	-133.098	43.892	0	750.20	0	3.9940	0	34.3380	4	27.266	0	742.842	0	12.4	4	3.9	4	-1E+10	1	-1E+10	1	-1E+10	1	-1E+10	1	-1E+10	1	-1E+10	1
4901784	81	C	09/22/2017	10:41	-133.098	43.892	0	755.30	0	3.9680	0	34.3400	4	27.270	0	747.883	0	12.4	4	3.9	4	-1E+10	1	-1E+10	1	-1E+10	1	-1E+10	1	-1E+10	1	-1E+10	1
4901784	81	C	09/22/2017	10:41	-133.098	43.892	0	760.50	0	3.9320	0	34.3400	4	27.274	0	753.022	0	12.6	4	4.0	4	-1E+10	1	-1E+10	1	-1E+10	1	-1E+10	1	-1E+10	1	-1E+10	1
4901784	81	C	09/22/2017	10:41	-133.098	43.892	0	765.60	0	3.8960	0	34.3380	4	27.276	0	758.063	0	12.5	4	3.9	4	-1E+10	1	-1E+10	1	-1E+10	1	-1E+10	1	-1E+10	1	-1E+10	1
4901784	81	C	09/22/2017	10:41	-133.098	43.892	0	770.80	0	3.8780	0	34.3430	4	27.282	0	763.202	0	12.5	4	3.9	4	-1E+10	1	-1E+10	1	-1E+10	1	-1E+10	1	-1E+10	1	-1E+10	1
4901784	81	C	09/22/2017	10:41	-133.098	43.892	0	775.00	0	3.8450	0	34.3420	4	27.284	0	767.353	0	12.5	4	3.9	4	-1E+10	1	-1E+10	1	-1E+10	1	-1E+10	1	-1E+10	1	-1E+10	1
4901784	81	C	09/22/2017	10:41	-133.098	43.892	0	779.30	0	3.8380	0	34.3450	4	27.287	0	771.603	0	12.3	4	3.9	4	-1E+10	1	-1E+10	1	-1E+10	1	-1E+10	1	-1E+10	1	-1E+10	1
4901784	81	C	09/22/2017	10:41	-133.098	43.892	0	784.50	0	3.8280	0	34.3480	4	27.291	0	776.742	0	12.2	4	3.8	4	-1E+10	1	-1E+10	1	-1E+10	1	-1E+10	1	-1E+10	1	-1E+10	1
4901784	81	C	09/22/2017	10:41	-133.098	43.892	0	789.60	0	3.8140	0	34.3530	4	27.296	0	781.782	0	12.0	4	3.8	4	-1E+10	1	-1E+10	1	-1E+10	1	-1E+10	1	-1E+10	1	-1E+10	1
4901784	81	C	09/22/2017	10:41	-133.098	43.892	0	794.80	0	3.7960	0	34.3580	4	27.302	0	786.921	0	11.9	4	3.7	4	-1E+10	1	-1E+10	1	-1E+10	1	-1E+10	1	-1E+10	1	-1E+10	1
4901784	81	C	09/22/2017	10:41	-133.098	43.892	0	799.90	0	3.7850	0	34.3620	4	27.306	0	791.960	0	11.7	4	3.7	4	-1E+10	1	-1E+10	1	-1E+10	1	-1E+10	1	-1E+10	1	-1E+10	1
4901784	81	C	09/22/2017	10:41	-133.098	43.892	0	805.00	0	3.7750	0	34.3660	4	27.311	0	797.000	0	11.5	4	3.6	4	-1E+10	1	-1E+10	1	-1E+10	1	-1E+10	1	-1E+10	1	-1E+10	1
4901784	81	C	09/22/2017	10:41	-133.098	43.892	0	810.20	0	3.7710	0	34.3720	4	27.316	0	802.138	0	11.4	4	3.6	4	-1E+10	1	-1E+10	1	-1E+10	1	-1E+10	1	-1E+10	1	-1E+10	1
4901784	81	C	09/22/2017	10:41	-133.098	43.892	0	815.50	0	3.7580	0	34.3750	4	27.320	0	807.375	0	11.3	4	3.6	4	-1E+10	1	-1E+10	1	-1E+10	1	-1E+10	1	-1E+10	1	-1E+10	1
4901784	81	C	09/22/2017	10:41	-133.098	43.892	0	820.80	0	3.7380	0	34.3790	4	27.325	0	812.612	0	11.2	4	3.5	4	-1E+10	1	-1E+10	1	-1E+10	1	-1E+10	1	-1E+10	1	-1E+10	1
4901784	81	C	09/22/2017	10:41	-133.098	43.892	0	825.10	0	3.7190	0	34.3850	4	27.331	0	816.861	0	11.2	4	3.5	4	-1E+10	1	-1E+10	1	-1E+10	1	-1E+10	1	-1E+10	1	-1E+10	1
4901784	81	C	09/22/2017	10:41	-133.098	43.892	0	829.60	0	3.7060	0	34.3890	4	27.336	0	821.307	0	11.1	4	3.5	4	-1E+10	1	-1E+10	1	-1E+10	1	-1E+10	1	-1E+10	1	-1E+10	1
4901784	81	C	09/22/2017	10:41	-133.098	43.892	0	835.00	0	3.6950	0	34.3910	4	27.339	0	826.643	0	11.1	4	3.5	4	-1E+10	1	-1E+10	1	-1E+10	1	-1E+10	1	-1E+10	1	-1E+10	1
4901784	81	C	09/22/2017	10:41	-133.098	43.892	0	840.40	0	3.6860	0	34.3940	4	27.342	0	831.978	0	11.1	4	3.5	4	-1E+10	1	-1E+10	1	-1E+10	1	-1E+10	1	-1E+10	1	-1E+10	1
4901784	81	C	09/22/2017	10:41	-133.098	43.892	0	844.90	0	3.6760	0	34.3950	4	27.344	0	836.424	0	11.1	4	3.5	4	-1E+10	1	-1E+10	1	-1E+10	1	-1E+10	1	-1E+10	1	-1E+10	1
4901784	81	C	09/22/2017	10:41	-133.098	43.892	0	849.60	0	3.6700	0	34.3960	4	27.345	0	841.067	0	11.2	4	3.5	4	-1E+10	1	-1E+10	1	-1E+10	1	-1E+10	1	-1E+10	1	-1E+10	1
4901784	81	C	09/22/2017	10:41	-133.098	43.892	0	855.10	0	3.6580	0	34.3990	4	27.349	0	846.501	0	11.2	4	3.5	4	-1E+10	1	-1E+10	1	-1E+10	1	-1E+10	1	-1E+10	1	-1E+10	1
4901784	81	C	09/22/2017	10:41	-133.098	43.892	0	860.70	0	3.6460	0	34.4020	4	27.352	0	852.033	0	11.2	4	3.5	4	-1E+10	1	-1E+10	1	-1E+10	1	-1E+10	1	-1E+10	1	-1E+10	1
4901784	81	C	09/22/2017	10:41	-133.098	43.892	0	866.00	0	3.6350	0	34.4040	4	27.355	0	857.269	0	11.2	4	3.5	4	-1E+10	1	-1E+10	1	-1E+10	1	-1E+10	1	-1E+10	1	-1E+10	1
4901784	81	C	09/22/2017	10:41	-133.098	43.892	0	870.30	0	3.6250	0	34.4060	4	27.358	0	861.516	0	11.2	4	3.5	4	-1E+10	1	-1E+10	1	-1E+10	1	-1E+10	1	-1E+10	1	-1E+10	1
4901784	81	C	09/22/2017	10:41	-133.098	43.892	0	875.00	0	3.6100	0	34.4100	4	27.362	0	866.159	0	11.2	4	3.5	4	-1E+10	1	-1E+10	1	-1E+10	1	-1E+10	1	-1E+10	1	-1E+10	1
4901784	81	C	09/22/2017	10:41	-133.098	43.892	0	879.80	0	3.6020	0	34.4120	4	27.365	0	870.901	0	11.2	4	3.5	4	-1E+10	1	-1E+10	1	-1E+10	1	-1E+10	1	-1E+10	1	-1E+10	1
4901784	81	C	09/22/2017	10:41	-133.098	43.892	0	884.60	0	3.5850	0	34.4160	4	27.370	0	875.642	0	11.2	4	3.5	4	-1E+10	1	-1E+10	1	-1E+10	1	-1E+10	1	-1E+10	1	-1E+10	1
4901784	81	C	09/22/2017	10:41	-133.098	43.892	0	889.50	0	3.5670	0	34.4210	4	27.375	0	880.482	0	11.3	4	3.5	4	-1E+10	1	-1E+10	1	-1E+10	1	-1E+10	1	-1E+10	1	-1E+10	1
4901784	81	C	09/22/2017	10:41	-133.098	43.892	0	894.50	0	3.5580	0	34.4230	4	27.378	0	885.421	0	11.2	4	3.5	4	-1E+10	1	-1E+10	1	-1E+10	1	-1E+10	1	-1E+10	1	-1E+10	1
4901784	81	C	09/22/2017	10:41	-133.098	43.892	0	899.60	0	3.5430	0	34.4270	4	27.383	0	890.458	0	11.3	4	3.5	4	-1E+10	1	-1E+10	1	-1E+10	1	-1E+10	1	-1E+10	1	-1E+10	1
4901784	81	C	09/22/2017	10:41	-133.098	43.892	0	904.60	0	3.5300	0	34.4290	4	27.386	0	895.397	0	11.3	4	3.5	4	-1E+10	1	-1E+10	1	-1E+10	1	-1E+10	1	-1E+10	1	-1E+10	1
4901784	81	C	09/22/2017	10:41	-133.098	43.892	0	909.80	0	3.5190	0	34.4330	4	27.390	0	900.533	0	11.3	4	3.5	4	-1E+10	1	-1E+10	1	-1E+10	1	-1E+10	1	-1E+10	1	-1E+10	1
4901784	81	C	09/22/2017	10:41	-133.098	43.892	0	915.00	0	3.5070	0	34.4350	4	27.393	0	905.669	0	11.4	4	3.6	4	-1E+10	1	-1E+10	1	-1E+10	1	-1E+10	1	-1E+10	1	-1E+10	1
4901784	81	C	09/22/2017	10:41	-133.098	43.892	0	920.30	0	3.4920	0	34.4400	4	27.398	0	910.903	0	11.4	4	3.6	4	-1E+10	1	-1E+10	1	-1E+10	1	-1E+10	1	-1E+10	1	-1E+10	1
4901784	81	C	09/22/2017	10:41	-133.098	43.892	0	925.60	0	3.4860	0	34.4420	4	27.400	0	916.137	0	11.5	4	3.6	4	-1E+10	1	-1E+10	1	-1E+10	1	-1E+10	1	-1E+10	1	-1E+10	1
4901784	81	C	09/22/2017	10:41	-133.098	43.892	0	930.00	0	3.4810	0	34.4430	4	27.402	0	920.483	0	11.5	4	3.6	4	-1E+10	1	-1E+10	1	-1E+10	1	-1E+10	1	-1E+10	1	-1E+10	1
4901784	81	C	09/22/2017	10:41	-133.098	43.892	0	934.50	0	3.4730	0	34.4450	4	27.404	0	924.927	0	11.5	4	3.6	4	-1E+10	1	-1E+10	1	-1E+10	1	-1E+10	1	-1E+10	1	-1E+10	1
4901784	81	C	09/22/2017	10:41	-133.098	43.892	0	940.00	0	3.4590	0	34.4480	4	27.408	0	930.358	0	11.5	4	3.6	4	-1E+10	1	-1E+10	1	-1E+10	1	-1E+10	1	-1E+10	1	-1E+10	1
4901784	81	C	09/22/2017	10:41	-133.098	43.892	0	945.40	0	3.4460	0	34.4510	4	27.411	0	935.691	0	11.6	4	3.6	4	-1E+10	1	-1E+10	1	-1E+10	1	-1E+10	1	-1E+10	1	-1E+10	1
4901784	81	C	09/22/2017	10:41	-133.098	43.892	0	950.00	0	3.4360	0	34.4520	4	27.413	0	940.233	0	11.6	4	3.6	4	-1E+10	1	-1E+10	1	-1E+10	1	-1E+10	1	-1E+10	1	-1E+10	1
4901784	81	C	09/22/2017	10:41	-133.098	43.892	0	954.70	0	3.4280	0	34.4550	4	27.416	0	944.874	0	11.7	4	3.7	4	-1E+10	1	-1E+10	1	-1E+10	1	-1E+10	1	-1E+10	1	-1E+10	1
4901784	81	C	09/22/2017	10:41	-133.098	43.892	0	960.30	0	3.4180	0	34.4570	4	27.419	0	950.404	0	11.7	4	3.7	4	-1E+10	1	-1E+10	1	-1E+10	1	-1E+10	1	-1E+10	1	-1E+10	1
4901784	81	C	09/22/2017	10:41	-133.098	43.892	0	964.90	0	3.4050	0	34.4600	4	27.423	0	954.946	0	11.8	4	3.7	4	-1E+10	1	-1E+10	1	-1E+10	1	-1E+10	1	-1E+10	1	-1E+10	1
4901784	81	C	09/22/2017	10:41	-133.098	43.892	0	970.30	0	3.3980	0	34.4610	4	27.424	0	960.278	0	11.8	4	3.7	4	-1E+10	1	-1E+10	1	-1E+10	1	-1E+10	1	-1E+10	1	-1E+10	1
4901784	81	C	09/22/2017	10:41	-133.098	43.892	0	975.50	0	3.3900	0	34.4630	4	27.427	0	965.412	0	11.9	4	3.7	4	-1E+10	1	-1E+10	1	-1E+10	1	-1E+10	1	-1E+10	1	-1E+10	1
4901784	81	C	09/22/2017	10:41	-133.098	43.892	0	980.30	0	3.3770	0	34.4670	4	27.431	0	970.151	0	12.0	4	3.8	4	-1E+10	1	-1E+10	1	-1E+10	1	-1E+10	1	-1E+10	1	-1E+10	1
4901784	81	C	09/22/2017	10:41	-133.098	43.892	0	985.10	0	3.3670	0	34.4700	4	27.434	0	974.891	0	12.1	4	3.8	4	-1E+10	1	-1E+10	1	-1E+10	1	-1E+10	1	-1E+10	1	-1E+10	1
4901784	81	C	09/22/2017	10:41	-133.098	43.892	0	989.90	0	3.3620	0	34.4720	4	27.436	0	979.630	0	12.2	4	3.8	4	-1E+10	1	-1E+10	1	-1E+10	1	-1E+10	1	-1E+10	1	-1E+10	1
4901784	81	C	09/22/2017	10:41	-133.098	43.892	0	994.80	0	3.3580	0	34.4720	4	27.437	0	984.467	0	12.2	4	3.8	4	-1E+10	1	-1E+10	1	-1E+10	1	-1E+10	1	-1E+10	1	-1E+10	1
4901784	81	C	09/22/2017	10:41	-133.098	43.892	0	999.80	0	3.3490	0	34.4750	4	27.440	0	989.404	0	12.4	4	3.9	4	-1E+10	1	-1E+10	1	-1E+10	1	-1E+10	1	-1E+10	1	-1E+10	1
4901784	81	C	09/22/2017	10:41	-133.098	43.892	0	1004.80	0	3.3450	0	34.4780	4	27.443	0	994.340	0	12.5	4	3.9	4	-1E+10	1	-1E+10	1	-1E+10	1	-1E+10	1	-1E+10	1	-1E+10	1
4901784	81	C	09/22/2017	10:41	-133.098	43.892	0	1009.80	0	3.3380	0	34.4780	4	27.444	0	999.276	0	12.5	4	3.9	4	-1E+10	1	-1E+10	1	-1E+10	1	-1E+10	1	-1E+10	1	-1E+10	1
4901784	81	C	09/22/2017	10:41	-133.098	43.892	0	1014.80	0	3.3290	0	34.4790	4	27.445	0	1004.212	0	12.6	4	3.9	4	-1E+10	1	-1E+10	1	-1E+10	1	-1E+10	1	-1E+10	1	-1E+10	1
4901784	81	C	09/22/2017	10:41	-133.098	43.892	0	1019.80	0	3.3190	0	34.4820	4	27.449	0	1009.147	0	12.8	4	4.0	4	-1E+10	1	-1E+10	1	-1E+10	1	-1E+10	1	-1E+10	1	-1E+10	1
4901784	81	C	09/22/2017	10:41	-133.098	43.892	0	1024.90	0	3.3150	0	34.4840	4	27.451	0	1014.182	0	13.0	4	4.1	4	-1E+10	1	-1E+10	1	-1E+10	1	-1E+10	1	-1E+10	1	-1E+10	1
4901784	81	C	09/22/2017	10:41	-133.098	43.892	0	1030.00	0	3.3170	0	34.4860	4	27.452	0	1019.216	0	13.3	4	4.1	4	-1E+10	1	-1E+10	1	-1E+10	1	-1E+10	1	-1E+10	1	-1E+10	1
4901784	81	C	09/22/2017	10:41	-133.098	43.892	0	1035.20	0	3.3110	0	34.4880	4	27.454	0	1024.349	0	13.4	4	4.2	4	-1E+10	1	-1E+10	1	-1E+10	1	-1E+10	1	-1E+10	1	-1E+10	1
4901784	81	C	09/22/2017	10:41	-133.098	43.892	0	1040.40	0	3.3020	0	34.4900	4	27.457	0	1029.482	0	13.5	4	4.2	4	-1E+10	1	-1E+10	1	-1E+10	1	-1E+10	1	-1E+10	1	-1E+10	1
4901784	81	C	09/22/2017	10:41	-133.098	43.892	0	1045.50	0	3.2940	0	34.4930	4	27.460	0	1034.516	0	13.6	4	4.2	4	-1E+10	1	-1E+10	1	-1E+10	1	-1E+10	1	-1E+10	1	-1E+10	1
4901784	81	C	09/22/2017	10:41	-133.098	43.892	0	1050.70	0	3.2870	0	34.4940	4	27.461	0	1039.648	0	13.7	4	4.3	4	-1E+10	1	-1E+10	1	-1E+10	1	-1E+10	1	-1E+10	1	-1E+10	1
4901784	81	C	09/22/2017	10:41	-133.098	43.892	0	1055.00	0	3.2780	0	34.4950	4	27.463	0	1043.892	0	13.7	4	4.3	4	-1E+10	1	-1E+10	1	-1E+10	1	-1E+10	1	-1E+10	1	-1E+10	1
4901784	81	C	09/22/2017	10:41	-133.098	43.892	0	1059.40	0	3.2730	0	34.4970	4	27.465	0	1048.235	0	13.8	4	4.3	4	-1E+10	1	-1E+10	1	-1E+10	1	-1E+10	1	-1E+10	1	-1E+10	1
4901784	81	C	09/22/2017	10:41	-133.098	43.892	0	1064.60	0	3.2700	0	34.4970	4	27.466	0	1053.367	0	13.9	4	4.3	4	-1E+10	1	-1E+10	1	-1E+10	1	-1E+10	1	-1E+10	1	-1E+10	1
4901784	81	C	09/22/2017	10:41	-133.098	43.892	0	1069.90	0	3.2670	0	34.4980	4	27.467	0	1058.598	0	14.0	4	4.3	4	-1E+10	1	-1E+10	1	-1E+10	1	-1E+10	1	-1E+10	1	-1E+10	1
4901784	81	C	09/22/2017	10:41	-133.098	43.892	0	1075.20	0	3.2560	0	34.5000	4	27.469	0	1063.828	0	14.1	4	4.4	4	-1E+10	1	-1E+10	1	-1E+10	1	-1E+10	1	-1E+10	1	-1E+10	1
4901784	81	C	09/22/2017	10:41	-133.098	43.892	0	1080.50	0	3.2520	0	34.5010	4	27.471	0	1069.059	0	14.2	4	4.4	4	-1E+10	1	-1E+10	1	-1E+10	1	-1E+10	1	-1E+10	1	-1E+10	1
4901784	81	C	09/22/2017	10:41	-133.098	43.892	0	1085.70	0	3.2370	0	34.5030	4	27.474	0	1074.190	0	14.3	4	4.5	4	-1E+10	1	-1E+10	1	-1E+10	1	-1E+10	1	-1E+10	1	-1E+10	1
4901784	81	C	09/22/2017	10:41	-133.098	43.892	0	1090.10	0	3.2290	0	34.5050	4	27.476	0	1078.532	0	14.4	4	4.5	4	-1E+10	1	-1E+10	1	-1E+10	1	-1E+10	1	-1E+10	1	-1E+10	1
4901784	81	C	09/22/2017	10:41	-133.098	43.892	0	1094.50	0	3.2240	0	34.5050	4	27.476	0	1082.874	0	14.5	4	4.5	4	-1E+10	1	-1E+10	1	-1E+10	1	-1E+10	1	-1E+10	1	-1E+10	1
4901784	81	C	09/22/2017	10:41	-133.098	43.892	0	1099.80	0	3.2160	0	34.5070	4	27.479	0	1088.104	0	14.7	4	4.6	4	-1E+10	1	-1E+10	1	-1E+10	1	-1E+10	1	-1E+10	1	-1E+10	1
4901784	81	C	09/22/2017	10:41	-133.098	43.892	0	1105.10	0	3.2100	0	34.5090	4	27.481	0	1093.334	0	14.8	4	4.6	4	-1E+10	1	-1E+10	1	-1E+10	1	-1E+10	1	-1E+10	1	-1E+10	1
4901784	81	C	09/22/2017	10:41	-133.098	43.892	0	1110.40	0	3.2040	0	34.5110	4	27.483	0	1098.564	0	14.9	4	4.6	4	-1E+10	1	-1E+10	1	-1E+10	1	-1E+10	1	-1E+10	1	-1E+10	1
4901784	81	C	09/22/2017	10:41	-133.098	43.892	0	1115.70	0	3.1980	0	34.5110	4	27.484	0	1103.794	0	15.0	4	4.6	4	-1E+10	1	-1E+10	1	-1E+10	1	-1E+10	1	-1E+10	1	-1E+10	1
4901784	81	C	09/22/2017	10:41	-133.098	43.892	0	1120.20	0	3.1920	0	34.5120	4	27.485	0	1108.234	0	15.0	4	4.7	4	-1E+10	1	-1E+10	1	-1E+10	1	-1E+10	1	-1E+10	1	-1E+10	1
4901784	81	C	09/22/2017	10:41	-133.098	43.892	0	1124.60	0	3.1860	0	34.5120	4	27.486	0	1112.575	0	15.0	4	4.7	4	-1E+10	1	-1E+10	1	-1E+10	1	-1E+10	1	-1E+10	1	-1E+10	1
4901784	81	C	09/22/2017	10:41	-133.098	43.892	0	1130.00	0	3.1790	0	34.5130	4	27.487	0	1117.903	0	15.1	4	4.7	4	-1E+10	1	-1E+10	1	-1E+10	1	-1E+10	1	-1E+10	1	-1E+10	1
4901784	81	C	09/22/2017	10:41	-133.098	43.892	0	1135.40	0	3.1720	0	34.5150	4	27.490	0	1123.231	0	15.3	4	4.7	4	-1E+10	1	-1E+10	1	-1E+10	1	-1E+10	1	-1E+10	1	-1E+10	1
4901784	81	C	09/22/2017	10:41	-133.098	43.892	0	1139.80	0	3.1690	0	34.5160	4	27.491	0	1127.572	0	15.3	4	4.7	4	-1E+10	1	-1E+10	1	-1E+10	1	-1E+10	1	-1E+10	1	-1E+10	1
4901784	81	C	09/22/2017	10:41	-133.098	43.892	0	1144.30	0	3.1640	0	34.5170	4	27.492	0	1132.011	0	15.3	4	4.8	4	-1E+10	1	-1E+10	1	-1E+10	1	-1E+10	1	-1E+10	1	-1E+10	1
4901784	81	C	09/22/2017	10:41	-133.098	43.892	0	1149.70	0	3.1490	0	34.5170	4	27.493	0	1137.339	0	15.3	4	4.7	4	-1E+10	1	-1E+10	1	-1E+10	1	-1E+10	1	-1E+10	1	-1E+10	1
4901784	81	C	09/22/2017	10:41	-133.098	43.892	0	1155.20	0	3.1290	0	34.5180	4	27.496	0	1142.765	0	15.3	4	4.7	4	-1E+10	1	-1E+10	1	-1E+10	1	-1E+10	1	-1E+10	1	-1E+10	1
4901784	81	C	09/22/2017	10:41	-133.098	43.892	0	1159.80	0	3.1260	0	34.5180	4	27.496	0	1147.303	0	15.3	4	4.7	4	-1E+10	1	-1E+10	1	-1E+10	1	-1E+10	1	-1E+10	1	-1E+10	1
4901784	81	C	09/22/2017	10:41	-133.098	43.892	0	1164.50	0	3.1170	0	34.5190	4	27.498	0	1151.939	0	15.4	4	4.8	4	-1E+10	1	-1E+10	1	-1E+10	1	-1E+10	1	-1E+10	1	-1E+10	1
4901784	81	C	09/22/2017	10:41	-133.098	43.892	0	1170.00	0	3.1080	0	34.5220	4	27.501	0	1157.365	0	15.7	4	4.9	4	-1E+10	1	-1E+10	1	-1E+10	1	-1E+10	1	-1E+10	1	-1E+10	1
4901784	81	C	09/22/2017	10:41	-133.098	43.892	0	1175.60	0	3.0980	0	34.5220	4	27.502	0	1162.889	0	15.8	4	4.9	4	-1E+10	1	-1E+10	1	-1E+10	1	-1E+10	1	-1E+10	1	-1E+10	1
4901784	81	C	09/22/2017	10:41	-133.098	43.892	0	1180.20	0	3.0850	0	34.5250	4	27.506	0	1167.426	0	16.0	4	5.0	4	-1E+10	1	-1E+10	1	-1E+10	1	-1E+10	1	-1E+10	1	-1E+10	1
4901784	81	C	09/22/2017	10:41	-133.098	43.892	0	1184.80	0	3.0740	0	34.5270	4	27.508	0	1171.964	0	16.1	4	5.0	4	-1E+10	1	-1E+10	1	-1E+10	1	-1E+10	1	-1E+10	1	-1E+10	1
4901784	81	C	09/22/2017	10:41	-133.098	43.892	0	1189.40	0	3.0660	0	34.5290	4	27.511	0	1176.501	0	16.2	4	5.0	4	-1E+10	1	-1E+10	1	-1E+10	1	-1E+10	1	-1E+10	1	-1E+10	1
4901784	81	C	09/22/2017	10:41	-133.098	43.892	0	1194.00	0	3.0600	0	34.5290	4	27.511	0	1181.038	0	16.3	4	5.0	4	-1E+10	1	-1E+10	1	-1E+10	1	-1E+10	1	-1E+10	1	-1E+10	1
4901784	81	C	09/22/2017	10:41	-133.098	43.892	0	1199.40	0	3.0560	0	34.5290	4	27.512	0	1186.364	0	16.3	4	5.1	4	-1E+10	1	-1E+10	1	-1E+10	1	-1E+10	1	-1E+10	1	-1E+10	1
4901784	81	C	09/22/2017	10:41	-133.098	43.892	0	1205.00	0	3.0460	0	34.5300	4	27.513	0	1191.887	0	16.3	4	5.0	4	-1E+10	1	-1E+10	1	-1E+10	1	-1E+10	1	-1E+10	1	-1E+10	1
4901784	81	C	09/22/2017	10:41	-133.098	43.892	0	1210.70	0	3.0350	0	34.5300	4	27.514	0	1197.509	0	16.4	4	5.1	4	-1E+10	1	-1E+10	1	-1E+10	1	-1E+10	1	-1E+10	1	-1E+10	1
4901784	81	C	09/22/2017	10:41	-133.098	43.892	0	1215.60	0	3.0290	0	34.5320	4	27.517	0	1202.342	0	16.5	4	5.1	4	-1E+10	1	-1E+10	1	-1E+10	1	-1E+10	1	-1E+10	1	-1E+10	1
4901784	81	C	09/22/2017	10:41	-133.098	43.892	0	1220.50	0	3.0170	0	34.5340	4	27.519	0	1207.174	0	16.6	4	5.1	4	-1E+10	1	-1E+10	1	-1E+10	1	-1E+10	1	-1E+10	1	-1E+10	1
4901784	81	C	09/22/2017	10:41	-133.098	43.892	0	1225.40	0	3.0030	0	34.5340	4	27.521	0	1212.007	0	16.7	4	5.2	4	-1E+10	1	-1E+10	1	-1E+10	1	-1E+10	1	-1E+10	1	-1E+10	1
4901784	81	C	09/22/2017	10:41	-133.098	43.892	0	1230.40	0	2.9890	0	34.5360	4	27.524	0	1216.938	0	16.9	4	5.2	4	-1E+10	1	-1E+10	1	-1E+10	1	-1E+10	1	-1E+10	1	-1E+10	1
4901784	81	C	09/22/2017	10:41	-133.098	43.892	0	1235.40	0	2.9800	0	34.5380	4	27.526	0	1221.868	0	17.1	4	5.3	4	-1E+10	1	-1E+10	1	-1E+10	1	-1E+10	1	-1E+10	1	-1E+10	1
4901784	81	C	09/22/2017	10:41	-133.098	43.892	0	1240.40	0	2.9700	0	34.5390	4	27.528	0	1226.799	0	17.2	4	5.3	4	-1E+10	1	-1E+10	1	-1E+10	1	-1E+10	1	-1E+10	1	-1E+10	1
4901784	81	C	09/22/2017	10:41	-133.098	43.892	0	1245.40	0	2.9640	0	34.5400	4	27.529	0	1231.730	0	17.4	4	5.4	4	-1E+10	1	-1E+10	1	-1E+10	1	-1E+10	1	-1E+10	1	-1E+10	1
4901784	81	C	09/22/2017	10:41	-133.098	43.892	0	1250.50	0	2.9590	0	34.5410	4	27.530	0	1236.759	0	17.6	4	5.4	4	-1E+10	1	-1E+10	1	-1E+10	1	-1E+10	1	-1E+10	1	-1E+10	1
4901784	81	C	09/22/2017	10:41	-133.098	43.892	0	1255.60	0	2.9510	0	34.5420	4	27.532	0	1241.788	0	17.8	4	5.5	4	-1E+10	1	-1E+10	1	-1E+10	1	-1E+10	1	-1E+10	1	-1E+10	1
4901784	81	C	09/22/2017	10:41	-133.098	43.892	0	1260.70	0	2.9430	0	34.5440	4	27.534	0	1246.816	0	17.9	4	5.5	4	-1E+10	1	-1E+10	1	-1E+10	1	-1E+10	1	-1E+10	1	-1E+10	1
4901784	81	C	09/22/2017	10:41	-133.098	43.892	0	1265.70	0	2.9350	0	34.5460	4	27.537	0	1251.746	0	18.0	4	5.6	4	-1E+10	1	-1E+10	1	-1E+10	1	-1E+10	1	-1E+10	1	-1E+10	1
4901784	81	C	09/22/2017	10:41	-133.098	43.892	0	1270.00	0	2.9320	0	34.5460	4	27.537	0	1255.986	0	18.1	4	5.6	4	-1E+10	1	-1E+10	1	-1E+10	1	-1E+10	1	-1E+10	1	-1E+10	1
4901784	81	C	09/22/2017	10:41	-133.098	43.892	0	1274.20	0	2.9250	0	34.5460	4	27.538	0	1260.127	0	18.1	4	5.6	4	-1E+10	1	-1E+10	1	-1E+10	1	-1E+10	1	-1E+10	1	-1E+10	1
4901784	81	C	09/22/2017	10:41	-133.098	43.892	0	1279.40	0	2.9220	0	34.5470	4	27.539	0	1265.254	0	18.2	4	5.6	4	-1E+10	1	-1E+10	1	-1E+10	1	-1E+10	1	-1E+10	1	-1E+10	1
4901784	81	C	09/22/2017	10:41	-133.098	43.892	0	1284.50	0	2.9190	0	34.5470	4	27.539	0	1270.282	0	18.3	4	5.6	4	-1E+10	1	-1E+10	1	-1E+10	1	-1E+10	1	-1E+10	1	-1E+10	1
4901784	81	C	09/22/2017	10:41	-133.098	43.892	0	1289.70	0	2.9080	0	34.5480	4	27.541	0	1275.409	0	18.5	4	5.7	4	-1E+10	1	-1E+10	1	-1E+10	1	-1E+10	1	-1E+10	1	-1E+10	1
4901784	81	C	09/22/2017	10:41	-133.098	43.892	0	1294.90	0	2.8960	0	34.5500	4	27.543	0	1280.536	0	18.7	4	5.8	4	-1E+10	1	-1E+10	1	-1E+10	1	-1E+10	1	-1E+10	1	-1E+10	1
4901784	81	C	09/22/2017	10:41	-133.098	43.892	0	1300.20	0	2.8890	0	34.5520	4	27.546	0	1285.761	0	18.9	4	5.8	4	-1E+10	1	-1E+10	1	-1E+10	1	-1E+10	1	-1E+10	1	-1E+10	1
4901784	81	C	09/22/2017	10:41	-133.098	43.892	0	1305.40	0	2.8790	0	34.5530	4	27.547	0	1290.887	0	19.1	4	5.9	4	-1E+10	1	-1E+10	1	-1E+10	1	-1E+10	1	-1E+10	1	-1E+10	1
4901784	81	C	09/22/2017	10:41	-133.098	43.892	0	1309.80	0	2.8710	0	34.5530	4	27.548	0	1295.225	0	19.2	4	5.9	4	-1E+10	1	-1E+10	1	-1E+10	1	-1E+10	1	-1E+10	1	-1E+10	1
4901784	81	C	09/22/2017	10:41	-133.098	43.892	0	1314.30	0	2.8630	0	34.5550	4	27.550	0	1299.661	0	19.3	4	6.0	4	-1E+10	1	-1E+10	1	-1E+10	1	-1E+10	1	-1E+10	1	-1E+10	1
4901784	81	C	09/22/2017	10:41	-133.098	43.892	0	1319.60	0	2.8540	0	34.5570	4	27.553	0	1304.885	0	19.5	4	6.0	4	-1E+10	1	-1E+10	1	-1E+10	1	-1E+10	1	-1E+10	1	-1E+10	1
4901784	81	C	09/22/2017	10:41	-133.098	43.892	0	1325.20	0	2.8490	0	34.5580	4	27.554	0	1310.405	0	19.7	4	6.1	4	-1E+10	1	-1E+10	1	-1E+10	1	-1E+10	1	-1E+10	1	-1E+10	1
4901784	81	C	09/22/2017	10:41	-133.098	43.892	0	1330.10	0	2.8440	0	34.5590	4	27.555	0	1315.235	0	19.9	4	6.1	4	-1E+10	1	-1E+10	1	-1E+10	1	-1E+10	1	-1E+10	1	-1E+10	1
4901784	81	C	09/22/2017	10:41	-133.098	43.892	0	1334.80	0	2.8380	0	34.5590	4	27.556	0	1319.868	0	20.2	4	6.2	4	-1E+10	1	-1E+10	1	-1E+10	1	-1E+10	1	-1E+10	1	-1E+10	1
4901784	81	C	09/22/2017	10:41	-133.098	43.892	0	1339.80	0	2.8230	0	34.5610	4	27.559	0	1324.797	0	20.5	4	6.3	4	-1E+10	1	-1E+10	1	-1E+10	1	-1E+10	1	-1E+10	1	-1E+10	1
4901784	81	C	09/22/2017	10:41	-133.098	43.892	0	1344.70	0	2.8120	0	34.5620	4	27.561	0	1329.626	0	20.8	4	6.4	4	-1E+10	1	-1E+10	1	-1E+10	1	-1E+10	1	-1E+10	1	-1E+10	1
4901784	81	C	09/22/2017	10:41	-133.098	43.892	0	1349.80	0	2.8050	0	34.5640	4	27.563	0	1334.653	0	21.1	4	6.5	4	-1E+10	1	-1E+10	1	-1E+10	1	-1E+10	1	-1E+10	1	-1E+10	1
4901784	81	C	09/22/2017	10:41	-133.098	43.892	0	1354.90	0	2.7980	0	34.5650	4	27.564	0	1339.680	0	21.3	4	6.5	4	-1E+10	1	-1E+10	1	-1E+10	1	-1E+10	1	-1E+10	1	-1E+10	1
4901784	81	C	09/22/2017	10:41	-133.098	43.892	0	1360.00	0	2.7870	0	34.5660	4	27.566	0	1344.706	0	21.5	4	6.6	4	-1E+10	1	-1E+10	1	-1E+10	1	-1E+10	1	-1E+10	1	-1E+10	1
4901784	81	C	09/22/2017	10:41	-133.098	43.892	0	1365.30	0	2.7750	0	34.5690	4	27.570	0	1349.929	0	21.8	4	6.7	4	-1E+10	1	-1E+10	1	-1E+10	1	-1E+10	1	-1E+10	1	-1E+10	1
4901784	81	C	09/22/2017	10:41	-133.098	43.892	0	1370.50	0	2.7620	0	34.5700	4	27.572	0	1355.054	0	22.0	4	6.8	4	-1E+10	1	-1E+10	1	-1E+10	1	-1E+10	1	-1E+10	1	-1E+10	1
4901784	81	C	09/22/2017	10:41	-133.098	43.892	0	1375.70	0	2.7470	0	34.5710	4	27.574	0	1360.179	0	22.1	4	6.8	4	-1E+10	1	-1E+10	1	-1E+10	1	-1E+10	1	-1E+10	1	-1E+10	1
4901784	81	C	09/22/2017	10:41	-133.098	43.892	0	1380.10	0	2.7350	0	34.5720	4	27.576	0	1364.515	0	22.2	4	6.8	4	-1E+10	1	-1E+10	1	-1E+10	1	-1E+10	1	-1E+10	1	-1E+10	1
4901784	81	C	09/22/2017	10:41	-133.098	43.892	0	1384.60	0	2.7270	0	34.5720	4	27.576	0	1368.950	0	22.4	4	6.9	4	-1E+10	1	-1E+10	1	-1E+10	1	-1E+10	1	-1E+10	1	-1E+10	1
4901784	81	C	09/22/2017	10:41	-133.098	43.892	0	1390.00	0	2.7180	0	34.5730	4	27.578	0	1374.271	0	22.7	4	7.0	4	-1E+10	1	-1E+10	1	-1E+10	1	-1E+10	1	-1E+10	1	-1E+10	1
4901784	81	C	09/22/2017	10:41	-133.098	43.892	0	1395.30	0	2.7110	0	34.5750	4	27.580	0	1379.494	0	22.9	4	7.0	4	-1E+10	1	-1E+10	1	-1E+10	1	-1E+10	1	-1E+10	1	-1E+10	1
4901784	81	C	09/22/2017	10:41	-133.098	43.892	0	1400.60	0	2.7040	0	34.5760	4	27.582	0	1384.716	0	23.1	4	7.1	4	-1E+10	1	-1E+10	1	-1E+10	1	-1E+10	1	-1E+10	1	-1E+10	1
4901784	81	C	09/22/2017	10:41	-133.098	43.892	0	1405.10	0	2.6980	0	34.5760	4	27.582	0	1389.150	0	23.2	4	7.1	4	-1E+10	1	-1E+10	1	-1E+10	1	-1E+10	1	-1E+10	1	-1E+10	1
4901784	81	C	09/22/2017	10:41	-133.098	43.892	0	1409.60	0	2.6900	0	34.5770	4	27.584	0	1393.584	0	23.4	4	7.2	4	-1E+10	1	-1E+10	1	-1E+10	1	-1E+10	1	-1E+10	1	-1E+10	1
4901784	81	C	09/22/2017	10:41	-133.098	43.892	0	1415.00	0	2.6840	0	34.5790	4	27.586	0	1398.905	0	23.6	4	7.2	4	-1E+10	1	-1E+10	1	-1E+10	1	-1E+10	1	-1E+10	1	-1E+10	1
4901784	81	C	09/22/2017	10:41	-133.098	43.892	0	1420.50	0	2.6760	0	34.5800	4	27.587	0	1404.324	0	23.9	4	7.3	4	-1E+10	1	-1E+10	1	-1E+10	1	-1E+10	1	-1E+10	1	-1E+10	1
4901784	81	C	09/22/2017	10:41	-133.098	43.892	0	1425.00	0	2.6710	0	34.5810	4	27.589	0	1408.758	0	24.2	4	7.4	4	-1E+10	1	-1E+10	1	-1E+10	1	-1E+10	1	-1E+10	1	-1E+10	1
4901784	81	C	09/22/2017	10:41	-133.098	43.892	0	1429.60	0	2.6680	0	34.5810	4	27.589	0	1413.290	0	24.3	4	7.5	4	-1E+10	1	-1E+10	1	-1E+10	1	-1E+10	1	-1E+10	1	-1E+10	1
4901784	81	C	09/22/2017	10:41	-133.098	43.892	0	1435.10	0	2.6610	0	34.5810	4	27.590	0	1418.709	0	24.5	4	7.5	4	-1E+10	1	-1E+10	1	-1E+10	1	-1E+10	1	-1E+10	1	-1E+10	1
4901784	81	C	09/22/2017	10:41	-133.098	43.892	0	1439.80	0	2.6540	0	34.5820	4	27.591	0	1423.340	0	24.6	4	7.6	4	-1E+10	1	-1E+10	1	-1E+10	1	-1E+10	1	-1E+10	1	-1E+10	1
4901784	81	C	09/22/2017	10:41	-133.098	43.892	0	1444.40	0	2.6470	0	34.5820	4	27.592	0	1427.871	0	24.8	4	7.6	4	-1E+10	1	-1E+10	1	-1E+10	1	-1E+10	1	-1E+10	1	-1E+10	1
4901784	81	C	09/22/2017	10:41	-133.098	43.892	0	1450.00	0	2.6310	0	34.5840	4	27.595	0	1433.388	0	25.0	4	7.7	4	-1E+10	1	-1E+10	1	-1E+10	1	-1E+10	1	-1E+10	1	-1E+10	1
4901784	81	C	09/22/2017	10:41	-133.098	43.892	0	1455.60	0	2.6210	0	34.5850	4	27.596	0	1438.905	0	25.1	4	7.7	4	-1E+10	1	-1E+10	1	-1E+10	1	-1E+10	1	-1E+10	1	-1E+10	1
4901784	81	C	09/22/2017	10:41	-133.098	43.892	0	1460.30	0	2.6150	0	34.5850	4	27.597	0	1443.535	0	25.3	4	7.8	4	-1E+10	1	-1E+10	1	-1E+10	1	-1E+10	1	-1E+10	1	-1E+10	1
4901784	81	C	09/22/2017	10:41	-133.098	43.892	0	1464.70	0	2.6130	0	34.5860	4	27.598	0	1447.870	0	25.5	4	7.8	4	-1E+10	1	-1E+10	1	-1E+10	1	-1E+10	1	-1E+10	1	-1E+10	1
4901784	81	C	09/22/2017	10:41	-133.098	43.892	0	1469.80	0	2.6060	0	34.5860	4	27.598	0	1452.893	0	25.8	4	7.9	4	-1E+10	1	-1E+10	1	-1E+10	1	-1E+10	1	-1E+10	1	-1E+10	1
4901784	81	C	09/22/2017	10:41	-133.098	43.892	0	1475.00	0	2.6010	0	34.5870	4	27.600	0	1458.016	0	26.0	4	8.0	4	-1E+10	1	-1E+10	1	-1E+10	1	-1E+10	1	-1E+10	1	-1E+10	1
4901784	81	C	09/22/2017	10:41	-133.098	43.892	0	1480.10	0	2.5910	0	34.5880	4	27.601	0	1463.039	0	26.2	4	8.0	4	-1E+10	1	-1E+10	1	-1E+10	1	-1E+10	1	-1E+10	1	-1E+10	1
4901784	81	C	09/22/2017	10:41	-133.098	43.892	0	1485.20	0	2.5830	0	34.5890	4	27.603	0	1468.063	0	26.4	4	8.1	4	-1E+10	1	-1E+10	1	-1E+10	1	-1E+10	1	-1E+10	1	-1E+10	1
4901784	81	C	09/22/2017	10:41	-133.098	43.892	0	1490.30	0	2.5730	0	34.5900	4	27.605	0	1473.086	0	26.6	4	8.1	4	-1E+10	1	-1E+10	1	-1E+10	1	-1E+10	1	-1E+10	1	-1E+10	1
4901784	81	C	09/22/2017	10:41	-133.098	43.892	0	1495.40	0	2.5620	0	34.5900	4	27.606	0	1478.109	0	26.9	4	8.2	4	-1E+10	1	-1E+10	1	-1E+10	1	-1E+10	1	-1E+10	1	-1E+10	1
4901784	81	C	09/22/2017	10:41	-133.098	43.892	0	1500.60	0	2.5500	0	34.5920	4	27.608	0	1483.231	0	27.2	4	8.3	4	-1E+10	1	-1E+10	1	-1E+10	1	-1E+10	1	-1E+10	1	-1E+10	1
4901784	81	C	09/22/2017	10:41	-133.098	43.892	0	1505.70	0	2.5360	0	34.5940	4	27.611	0	1488.254	0	27.5	4	8.4	4	-1E+10	1	-1E+10	1	-1E+10	1	-1E+10	1	-1E+10	1	-1E+10	1
4901784	81	C	09/22/2017	10:41	-133.098	43.892	0	1509.90	0	2.5220	0	34.5960	4	27.614	0	1492.391	0	27.7	4	8.5	4	-1E+10	1	-1E+10	1	-1E+10	1	-1E+10	1	-1E+10	1	-1E+10	1
4901784	81	C	09/22/2017	10:41	-133.098	43.892	0	1514.30	0	2.5190	0	34.5960	4	27.614	0	1496.724	0	27.9	4	8.5	4	-1E+10	1	-1E+10	1	-1E+10	1	-1E+10	1	-1E+10	1	-1E+10	1
4901784	81	C	09/22/2017	10:41	-133.098	43.892	0	1519.50	0	2.5130	0	34.5950	4	27.614	0	1501.845	0	28.1	4	8.6	4	-1E+10	1	-1E+10	1	-1E+10	1	-1E+10	1	-1E+10	1	-1E+10	1
4901784	81	C	09/22/2017	10:41	-133.098	43.892	0	1524.70	0	2.5010	0	34.5970	4	27.616	0	1506.966	0	28.5	4	8.7	4	-1E+10	1	-1E+10	1	-1E+10	1	-1E+10	1	-1E+10	1	-1E+10	1
4901784	81	C	09/22/2017	10:41	-133.098	43.892	0	1529.90	0	2.4930	0	34.5970	4	27.617	0	1512.087	0	28.8	4	8.8	4	-1E+10	1	-1E+10	1	-1E+10	1	-1E+10	1	-1E+10	1	-1E+10	1
4901784	81	C	09/22/2017	10:41	-133.098	43.892	0	1535.20	0	2.4770	0	34.5980	4	27.619	0	1517.306	0	29.3	4	9.0	4	-1E+10	1	-1E+10	1	-1E+10	1	-1E+10	1	-1E+10	1	-1E+10	1
4901784	81	C	09/22/2017	10:41	-133.098	43.892	0	1540.50	0	2.4610	0	34.6010	4	27.623	0	1522.526	0	29.8	4	9.1	4	-1E+10	1	-1E+10	1	-1E+10	1	-1E+10	1	-1E+10	1	-1E+10	1
4901784	81	C	09/22/2017	10:41	-133.098	43.892	0	1544.90	0	2.4550	0	34.6020	4	27.624	0	1526.858	0	30.1	4	9.2	4	-1E+10	1	-1E+10	1	-1E+10	1	-1E+10	1	-1E+10	1	-1E+10	1
4901784	81	C	09/22/2017	10:41	-133.098	43.892	0	1549.30	0	2.4410	0	34.6030	4	27.626	0	1531.191	0	30.4	4	9.3	4	-1E+10	1	-1E+10	1	-1E+10	1	-1E+10	1	-1E+10	1	-1E+10	1
4901784	81	C	09/22/2017	10:41	-133.098	43.892	0	1554.50	0	2.4350	0	34.6050	4	27.629	0	1536.312	0	30.7	4	9.4	4	-1E+10	1	-1E+10	1	-1E+10	1	-1E+10	1	-1E+10	1	-1E+10	1
4901784	81	C	09/22/2017	10:41	-133.098	43.892	0	1559.80	0	2.4290	0	34.6050	4	27.629	0	1541.530	0	30.9	4	9.4	4	-1E+10	1	-1E+10	1	-1E+10	1	-1E+10	1	-1E+10	1	-1E+10	1
4901784	81	C	09/22/2017	10:41	-133.098	43.892	0	1565.10	0	2.4210	0	34.6050	4	27.630	0	1546.749	0	31.2	4	9.5	4	-1E+10	1	-1E+10	1	-1E+10	1	-1E+10	1	-1E+10	1	-1E+10	1
4901784	81	C	09/22/2017	10:41	-133.098	43.892	0	1570.50	0	2.4100	0	34.6070	4	27.632	0	1552.066	0	31.6	4	9.6	4	-1E+10	1	-1E+10	1	-1E+10	1	-1E+10	1	-1E+10	1	-1E+10	1
4901784	81	C	09/22/2017	10:41	-133.098	43.892	0	1575.00	0	2.4030	0	34.6080	4	27.634	0	1556.496	0	31.8	4	9.7	4	-1E+10	1	-1E+10	1	-1E+10	1	-1E+10	1	-1E+10	1	-1E+10	1
4901784	81	C	09/22/2017	10:41	-133.098	43.892	0	1579.50	0	2.3970	0	34.6090	4	27.635	0	1560.927	0	32.0	4	9.8	4	-1E+10	1	-1E+10	1	-1E+10	1	-1E+10	1	-1E+10	1	-1E+10	1
4901784	81	C	09/22/2017	10:41	-133.098	43.892	0	1584.90	0	2.3900	0	34.6100	4	27.636	0	1566.243	0	32.3	4	9.8	4	-1E+10	1	-1E+10	1	-1E+10	1	-1E+10	1	-1E+10	1	-1E+10	1
4901784	81	C	09/22/2017	10:41	-133.098	43.892	0	1590.30	0	2.3840	0	34.6110	4	27.638	0	1571.560	0	32.6	4	9.9	4	-1E+10	1	-1E+10	1	-1E+10	1	-1E+10	1	-1E+10	1	-1E+10	1
4901784	81	C	09/22/2017	10:41	-133.098	43.892	0	1594.90	0	2.3780	0	34.6120	4	27.639	0	1576.088	0	32.9	4	10.0	4	-1E+10	1	-1E+10	1	-1E+10	1	-1E+10	1	-1E+10	1	-1E+10	1
4901784	81	C	09/22/2017	10:41	-133.098	43.892	0	1599.40	0	2.3690	0	34.6130	4	27.641	0	1580.519	0	33.2	4	10.1	4	-1E+10	1	-1E+10	1	-1E+10	1	-1E+10	1	-1E+10	1	-1E+10	1
4901784	81	C	09/22/2017	10:41	-133.098	43.892	0	1604.90	0	2.3620	0	34.6120	4	27.640	0	1585.933	0	33.5	4	10.2	4	-1E+10	1	-1E+10	1	-1E+10	1	-1E+10	1	-1E+10	1	-1E+10	1
4901784	81	C	09/22/2017	10:41	-133.098	43.892	0	1610.00	0	2.3500	0	34.6130	4	27.642	0	1590.954	0	33.9	4	10.3	4	-1E+10	1	-1E+10	1	-1E+10	1	-1E+10	1	-1E+10	1	-1E+10	1
4901784	81	C	09/22/2017	10:41	-133.098	43.892	0	1615.00	0	2.3410	0	34.6150	4	27.645	0	1595.876	0	34.4	4	10.4	4	-1E+10	1	-1E+10	1	-1E+10	1	-1E+10	1	-1E+10	1	-1E+10	1
4901784	81	C	09/22/2017	10:41	-133.098	43.892	0	1620.70	0	2.3270	0	34.6170	4	27.647	0	1601.487	0	35.0	4	10.7	4	-1E+10	1	-1E+10	1	-1E+10	1	-1E+10	1	-1E+10	1	-1E+10	1
4901784	81	C	09/22/2017	10:41	-133.098	43.892	0	1625.50	0	2.3170	0	34.6180	4	27.649	0	1606.212	0	35.6	4	10.8	4	-1E+10	1	-1E+10	1	-1E+10	1	-1E+10	1	-1E+10	1	-1E+10	1
4901784	81	C	09/22/2017	10:41	-133.098	43.892	0	1630.30	0	2.3060	0	34.6200	4	27.652	0	1610.936	0	36.0	4	10.9	4	-1E+10	1	-1E+10	1	-1E+10	1	-1E+10	1	-1E+10	1	-1E+10	1
4901784	81	C	09/22/2017	10:41	-133.098	43.892	0	1635.10	0	2.2990	0	34.6210	4	27.653	0	1615.661	0	36.2	4	11.0	4	-1E+10	1	-1E+10	1	-1E+10	1	-1E+10	1	-1E+10	1	-1E+10	1
4901784	81	C	09/22/2017	10:41	-133.098	43.892	0	1640.10	0	2.2970	0	34.6220	4	27.654	0	1620.582	0	36.4	4	11.1	4	-1E+10	1	-1E+10	1	-1E+10	1	-1E+10	1	-1E+10	1	-1E+10	1
4901784	81	C	09/22/2017	10:41	-133.098	43.892	0	1645.00	0	2.2920	0	34.6220	4	27.654	0	1625.405	0	36.8	4	11.2	4	-1E+10	1	-1E+10	1	-1E+10	1	-1E+10	1	-1E+10	1	-1E+10	1
4901784	81	C	09/22/2017	10:41	-133.098	43.892	0	1650.00	0	2.2860	0	34.6230	4	27.656	0	1630.327	0	37.1	4	11.3	4	-1E+10	1	-1E+10	1	-1E+10	1	-1E+10	1	-1E+10	1	-1E+10	1
4901784	81	C	09/22/2017	10:41	-133.098	43.892	0	1655.00	0	2.2810	0	34.6250	4	27.658	0	1635.248	0	37.3	4	11.3	4	-1E+10	1	-1E+10	1	-1E+10	1	-1E+10	1	-1E+10	1	-1E+10	1
4901784	81	C	09/22/2017	10:41	-133.098	43.892	0	1660.00	0	2.2750	0	34.6240	4	27.657	0	1640.169	0	37.7	4	11.4	4	-1E+10	1	-1E+10	1	-1E+10	1	-1E+10	1	-1E+10	1	-1E+10	1
4901784	81	C	09/22/2017	10:41	-133.098	43.892	0	1665.00	0	2.2620	0	34.6260	4	27.660	0	1645.090	0	38.2	4	11.6	4	-1E+10	1	-1E+10	1	-1E+10	1	-1E+10	1	-1E+10	1	-1E+10	1
4901784	81	C	09/22/2017	10:41	-133.098	43.892	0	1669.90	0	2.2540	0	34.6280	4	27.662	0	1649.912	0	38.7	4	11.7	4	-1E+10	1	-1E+10	1	-1E+10	1	-1E+10	1	-1E+10	1	-1E+10	1
4901784	81	C	09/22/2017	10:41	-133.098	43.892	0	1675.00	0	2.2480	0	34.6280	4	27.663	0	1654.931	0	39.1	4	11.9	4	-1E+10	1	-1E+10	1	-1E+10	1	-1E+10	1	-1E+10	1	-1E+10	1
4901784	81	C	09/22/2017	10:41	-133.098	43.892	0	1680.10	0	2.2400	0	34.6300	4	27.665	0	1659.950	0	39.5	4	12.0	4	-1E+10	1	-1E+10	1	-1E+10	1	-1E+10	1	-1E+10	1	-1E+10	1
4901784	81	C	09/22/2017	10:41	-133.098	43.892	0	1685.20	0	2.2350	0	34.6310	4	27.666	0	1664.969	0	40.0	4	12.2	4	-1E+10	1	-1E+10	1	-1E+10	1	-1E+10	1	-1E+10	1	-1E+10	1
4901784	81	C	09/22/2017	10:41	-133.098	43.892	0	1690.40	0	2.2340	0	34.6330	4	27.668	0	1670.086	0	40.8	4	12.4	4	-1E+10	1	-1E+10	1	-1E+10	1	-1E+10	1	-1E+10	1	-1E+10	1
4901784	81	C	09/22/2017	10:41	-133.098	43.892	0	1695.50	0	2.2360	0	34.6340	4	27.669	0	1675.104	0	41.6	4	12.6	4	-1E+10	1	-1E+10	1	-1E+10	1	-1E+10	1	-1E+10	1	-1E+10	1
4901784	81	C	09/22/2017	10:41	-133.098	43.892	0	1700.80	0	2.2290	0	34.6360	4	27.671	0	1680.320	0	42.0	4	12.8	4	-1E+10	1	-1E+10	1	-1E+10	1	-1E+10	1	-1E+10	1	-1E+10	1
4901784	81	C	09/22/2017	10:41	-133.098	43.892	0	1705.10	0	2.2210	0	34.6370	4	27.672	0	1684.551	0	42.1	4	12.8	4	-1E+10	1	-1E+10	1	-1E+10	1	-1E+10	1	-1E+10	1	-1E+10	1
4901784	81	C	09/22/2017	10:41	-133.098	43.892	0	1709.40	0	2.2150	0	34.6370	4	27.673	0	1688.782	0	42.4	4	12.8	4	-1E+10	1	-1E+10	1	-1E+10	1	-1E+10	1	-1E+10	1	-1E+10	1
4901784	81	C	09/22/2017	10:41	-133.098	43.892	0	1714.70	0	2.2080	0	34.6370	4	27.674	0	1693.997	0	42.6	4	12.9	4	-1E+10	1	-1E+10	1	-1E+10	1	-1E+10	1	-1E+10	1	-1E+10	1
4901784	81	C	09/22/2017	10:41	-133.098	43.892	0	1720.10	0	2.1990	0	34.6380	4	27.675	0	1699.310	0	42.8	4	13.0	4	-1E+10	1	-1E+10	1	-1E+10	1	-1E+10	1	-1E+10	1	-1E+10	1
4901784	81	C	09/22/2017	10:41	-133.098	43.892	0	1725.40	0	2.1930	0	34.6390	4	27.676	0	1704.525	0	43.1	4	13.1	4	-1E+10	1	-1E+10	1	-1E+10	1	-1E+10	1	-1E+10	1	-1E+10	1
4901784	81	C	09/22/2017	10:41	-133.098	43.892	0	1729.90	0	2.1850	0	34.6400	4	27.678	0	1708.952	0	43.3	4	13.1	4	-1E+10	1	-1E+10	1	-1E+10	1	-1E+10	1	-1E+10	1	-1E+10	1
4901784	81	C	09/22/2017	10:41	-133.098	43.892	0	1734.30	0	2.1760	0	34.6400	4	27.679	0	1713.281	0	43.7	4	13.2	4	-1E+10	1	-1E+10	1	-1E+10	1	-1E+10	1	-1E+10	1	-1E+10	1
4901784	81	C	09/22/2017	10:41	-133.098	43.892	0	1739.60	0	2.1660	0	34.6410	4	27.680	0	1718.495	0	44.2	4	13.4	4	-1E+10	1	-1E+10	1	-1E+10	1	-1E+10	1	-1E+10	1	-1E+10	1
4901784	81	C	09/22/2017	10:41	-133.098	43.892	0	1744.30	0	2.1630	0	34.6420	4	27.681	0	1723.119	0	44.5	4	13.5	4	-1E+10	1	-1E+10	1	-1E+10	1	-1E+10	1	-1E+10	1	-1E+10	1
4901784	81	C	09/22/2017	10:41	-133.098	43.892	0	1749.90	0	2.1540	0	34.6440	4	27.684	0	1728.628	0	45.3	4	13.7	4	-1E+10	1	-1E+10	1	-1E+10	1	-1E+10	1	-1E+10	1	-1E+10	1
4901784	81	C	09/22/2017	10:41	-133.098	43.892	0	1755.50	0	2.1470	0	34.6450	4	27.685	0	1734.138	0	45.8	4	13.9	4	-1E+10	1	-1E+10	1	-1E+10	1	-1E+10	1	-1E+10	1	-1E+10	1
4901784	81	C	09/22/2017	10:41	-133.098	43.892	0	1760.40	0	2.1470	0	34.6460	4	27.686	0	1738.958	0	46.1	4	14.0	4	-1E+10	1	-1E+10	1	-1E+10	1	-1E+10	1	-1E+10	1	-1E+10	1
4901784	81	C	09/22/2017	10:41	-133.098	43.892	0	1765.40	0	2.1420	0	34.6460	4	27.686	0	1743.876	0	46.4	4	14.0	4	-1E+10	1	-1E+10	1	-1E+10	1	-1E+10	1	-1E+10	1	-1E+10	1
4901784	81	C	09/22/2017	10:41	-133.098	43.892	0	1770.40	0	2.1290	0	34.6480	4	27.689	0	1748.795	0	46.3	4	14.0	4	-1E+10	1	-1E+10	1	-1E+10	1	-1E+10	1	-1E+10	1	-1E+10	1
4901784	81	C	09/22/2017	10:41	-133.098	43.892	0	1775.50	0	2.1230	0	34.6470	4	27.689	0	1753.812	0	46.7	4	14.1	4	-1E+10	1	-1E+10	1	-1E+10	1	-1E+10	1	-1E+10	1	-1E+10	1
4901784	81	C	09/22/2017	10:41	-133.098	43.892	0	1780.60	0	2.1260	0	34.6480	4	27.689	0	1758.828	0	47.2	4	14.3	4	-1E+10	1	-1E+10	1	-1E+10	1	-1E+10	1	-1E+10	1	-1E+10	1
4901784	81	C	09/22/2017	10:41	-133.098	43.892	0	1785.70	0	2.1180	0	34.6490	4	27.691	0	1763.845	0	47.1	4	14.3	4	-1E+10	1	-1E+10	1	-1E+10	1	-1E+10	1	-1E+10	1	-1E+10	1
4901784	81	C	09/22/2017	10:41	-133.098	43.892	0	1790.00	0	2.1050	0	34.6500	4	27.693	0	1768.074	0	47.3	4	14.3	4	-1E+10	1	-1E+10	1	-1E+10	1	-1E+10	1	-1E+10	1	-1E+10	1
4901784	81	C	09/22/2017	10:41	-133.098	43.892	0	1794.30	0	2.1020	0	34.6500	4	27.693	0	1772.304	0	47.6	4	14.4	4	-1E+10	1	-1E+10	1	-1E+10	1	-1E+10	1	-1E+10	1	-1E+10	1
4901784	81	C	09/22/2017	10:41	-133.098	43.892	0	1799.60	0	2.0950	0	34.6500	4	27.693	0	1777.516	0	47.8	4	14.5	4	-1E+10	1	-1E+10	1	-1E+10	1	-1E+10	1	-1E+10	1	-1E+10	1
4901784	81	C	09/22/2017	10:41	-133.098	43.892	0	1804.80	0	2.0880	0	34.6510	4	27.695	0	1782.631	0	48.2	4	14.6	4	-1E+10	1	-1E+10	1	-1E+10	1	-1E+10	1	-1E+10	1	-1E+10	1
4901784	81	C	09/22/2017	10:41	-133.098	43.892	0	1810.00	0	2.0850	0	34.6520	4	27.696	0	1787.745	0	48.7	4	14.7	4	-1E+10	1	-1E+10	1	-1E+10	1	-1E+10	1	-1E+10	1	-1E+10	1
4901784	81	C	09/22/2017	10:41	-133.098	43.892	0	1815.30	0	2.0880	0	34.6540	4	27.697	0	1792.958	0	49.1	4	14.8	4	-1E+10	1	-1E+10	1	-1E+10	1	-1E+10	1	-1E+10	1	-1E+10	1
4901784	81	C	09/22/2017	10:41	-133.098	43.892	0	1820.70	0	2.0820	0	34.6530	4	27.697	0	1798.268	0	49.4	4	14.9	4	-1E+10	1	-1E+10	1	-1E+10	1	-1E+10	1	-1E+10	1	-1E+10	1
4901784	81	C	09/22/2017	10:41	-133.098	43.892	0	1825.10	0	2.0770	0	34.6540	4	27.698	0	1802.595	0	49.6	4	15.0	4	-1E+10	1	-1E+10	1	-1E+10	1	-1E+10	1	-1E+10	1	-1E+10	1
4901784	81	C	09/22/2017	10:41	-133.098	43.892	0	1829.60	0	2.0690	0	34.6540	4	27.699	0	1807.021	0	49.9	4	15.1	4	-1E+10	1	-1E+10	1	-1E+10	1	-1E+10	1	-1E+10	1	-1E+10	1
4901784	81	C	09/22/2017	10:41	-133.098	43.892	0	1835.10	0	2.0720	0	34.6570	4	27.701	0	1812.429	0	50.4	4	15.2	4	-1E+10	1	-1E+10	1	-1E+10	1	-1E+10	1	-1E+10	1	-1E+10	1
4901784	81	C	09/22/2017	10:41	-133.098	43.892	0	1840.60	0	2.0650	0	34.6560	4	27.701	0	1817.838	0	50.5	4	15.3	4	-1E+10	1	-1E+10	1	-1E+10	1	-1E+10	1	-1E+10	1	-1E+10	1
4901784	81	C	09/22/2017	10:41	-133.098	43.892	0	1845.20	0	2.0550	0	34.6560	4	27.702	0	1822.361	0	50.7	4	15.3	4	-1E+10	1	-1E+10	1	-1E+10	1	-1E+10	1	-1E+10	1	-1E+10	1
4901784	81	C	09/22/2017	10:41	-133.098	43.892	0	1849.90	0	2.0480	0	34.6570	4	27.703	0	1826.983	0	51.1	4	15.4	4	-1E+10	1	-1E+10	1	-1E+10	1	-1E+10	1	-1E+10	1	-1E+10	1
4901784	81	C	09/22/2017	10:41	-133.098	43.892	0	1855.50	0	2.0430	0	34.6580	4	27.704	0	1832.490	0	51.3	4	15.5	4	-1E+10	1	-1E+10	1	-1E+10	1	-1E+10	1	-1E+10	1	-1E+10	1
4901784	81	C	09/22/2017	10:41	-133.098	43.892	0	1859.60	0	2.0380	0	34.6580	4	27.705	0	1836.521	0	51.6	4	15.6	4	-1E+10	1	-1E+10	1	-1E+10	1	-1E+10	1	-1E+10	1	-1E+10	1
4901784	81	C	09/22/2017	10:41	-133.098	43.892	0	1864.50	0	2.0420	0	34.6600	4	27.706	0	1841.339	0	52.1	4	15.7	4	-1E+10	1	-1E+10	1	-1E+10	1	-1E+10	1	-1E+10	1	-1E+10	1
4901784	81	C	09/22/2017	10:41	-133.098	43.892	0	1869.50	0	2.0330	0	34.6600	4	27.707	0	1846.255	0	52.4	4	15.8	4	-1E+10	1	-1E+10	1	-1E+10	1	-1E+10	1	-1E+10	1	-1E+10	1
4901784	81	C	09/22/2017	10:41	-133.098	43.892	0	1874.50	0	2.0260	0	34.6620	4	27.709	0	1851.171	0	52.8	4	15.9	4	-1E+10	1	-1E+10	1	-1E+10	1	-1E+10	1	-1E+10	1	-1E+10	1
4901784	81	C	09/22/2017	10:41	-133.098	43.892	0	1879.40	0	2.0220	0	34.6620	4	27.709	0	1855.989	0	53.0	4	16.0	4	-1E+10	1	-1E+10	1	-1E+10	1	-1E+10	1	-1E+10	1	-1E+10	1
4901784	81	C	09/22/2017	10:41	-133.098	43.892	0	1884.40	0	2.0190	0	34.6610	4	27.709	0	1860.905	0	53.1	4	16.0	4	-1E+10	1	-1E+10	1	-1E+10	1	-1E+10	1	-1E+10	1	-1E+10	1
4901784	81	C	09/22/2017	10:41	-133.098	43.892	0	1889.50	0	2.0170	0	34.6630	4	27.710	0	1865.919	0	53.2	4	16.1	4	-1E+10	1	-1E+10	1	-1E+10	1	-1E+10	1	-1E+10	1	-1E+10	1
4901784	81	C	09/22/2017	10:41	-133.098	43.892	0	1894.60	0	2.0130	0	34.6630	4	27.711	0	1870.933	0	53.5	4	16.1	4	-1E+10	1	-1E+10	1	-1E+10	1	-1E+10	1	-1E+10	1	-1E+10	1
4901784	81	C	09/22/2017	10:41	-133.098	43.892	0	1899.70	0	2.0100	0	34.6640	4	27.712	0	1875.947	0	53.8	4	16.2	4	-1E+10	1	-1E+10	1	-1E+10	1	-1E+10	1	-1E+10	1	-1E+10	1
4901784	81	C	09/22/2017	10:41	-133.098	43.892	0	1904.70	0	2.0050	0	34.6650	4	27.713	0	1880.862	0	54.2	4	16.3	4	-1E+10	1	-1E+10	1	-1E+10	1	-1E+10	1	-1E+10	1	-1E+10	1
4901784	81	C	09/22/2017	10:41	-133.098	43.892	0	1909.80	0	2.0010	0	34.6660	4	27.714	0	1885.876	0	54.5	4	16.4	4	-1E+10	1	-1E+10	1	-1E+10	1	-1E+10	1	-1E+10	1	-1E+10	1
4901784	81	C	09/22/2017	10:41	-133.098	43.892	0	1915.00	0	2.0020	0	34.6660	4	27.714	0	1890.987	0	54.9	4	16.6	4	-1E+10	1	-1E+10	1	-1E+10	1	-1E+10	1	-1E+10	1	-1E+10	1
4901784	81	C	09/22/2017	10:41	-133.098	43.892	0	1920.20	0	2.0000	0	34.6670	4	27.715	0	1896.099	0	55.1	4	16.6	4	-1E+10	1	-1E+10	1	-1E+10	1	-1E+10	1	-1E+10	1	-1E+10	1
4901784	81	C	09/22/2017	10:41	-133.098	43.892	0	1925.40	0	1.9920	0	34.6660	4	27.715	0	1901.211	0	55.4	4	16.7	4	-1E+10	1	-1E+10	1	-1E+10	1	-1E+10	1	-1E+10	1	-1E+10	1
4901784	81	C	09/22/2017	10:41	-133.098	43.892	0	1930.60	0	1.9890	0	34.6670	4	27.716	0	1906.322	0	55.7	4	16.8	4	-1E+10	1	-1E+10	1	-1E+10	1	-1E+10	1	-1E+10	1	-1E+10	1
4901784	81	C	09/22/2017	10:41	-133.098	43.892	0	1935.00	0	1.9850	0	34.6680	4	27.717	0	1910.647	0	56.0	4	16.9	4	-1E+10	1	-1E+10	1	-1E+10	1	-1E+10	1	-1E+10	1	-1E+10	1
4901784	81	C	09/22/2017	10:41	-133.098	43.892	0	1939.40	0	1.9820	0	34.6690	4	27.718	0	1914.972	0	56.5	4	17.0	4	-1E+10	1	-1E+10	1	-1E+10	1	-1E+10	1	-1E+10	1	-1E+10	1
4901784	81	C	09/22/2017	10:41	-133.098	43.892	0	1944.80	0	1.9790	0	34.6700	4	27.719	0	1920.279	0	56.9	4	17.2	4	-1E+10	1	-1E+10	1	-1E+10	1	-1E+10	1	-1E+10	1	-1E+10	1
4901784	81	C	09/22/2017	10:41	-133.098	43.892	0	1950.10	0	1.9730	0	34.6700	4	27.720	0	1925.489	0	57.3	4	17.3	4	-1E+10	1	-1E+10	1	-1E+10	1	-1E+10	1	-1E+10	1	-1E+10	1
4901784	81	C	09/22/2017	10:41	-133.098	43.892	0	1955.40	0	1.9700	0	34.6710	4	27.721	0	1930.698	0	57.6	4	17.4	4	-1E+10	1	-1E+10	1	-1E+10	1	-1E+10	1	-1E+10	1	-1E+10	1
4901784	81	C	09/22/2017	10:41	-133.098	43.892	0	1959.80	0	1.9660	0	34.6730	4	27.723	0	1935.022	0	57.8	4	17.4	4	-1E+10	1	-1E+10	1	-1E+10	1	-1E+10	1	-1E+10	1	-1E+10	1
4901784	81	C	09/22/2017	10:41	-133.098	43.892	0	1964.30	0	1.9640	0	34.6730	4	27.723	0	1939.445	0	58.0	4	17.5	4	-1E+10	1	-1E+10	1	-1E+10	1	-1E+10	1	-1E+10	1	-1E+10	1
4901784	81	C	09/22/2017	10:41	-133.098	43.892	0	1969.70	0	1.9610	0	34.6730	4	27.723	0	1944.752	0	58.1	4	17.5	4	-1E+10	1	-1E+10	1	-1E+10	1	-1E+10	1	-1E+10	1	-1E+10	1
4901784	81	C	09/22/2017	10:41	-133.098	43.892	0	1975.00	0	1.9590	0	34.6730	4	27.723	0	1949.960	0	58.3	4	17.6	4	-1E+10	1	-1E+10	1	-1E+10	1	-1E+10	1	-1E+10	1	-1E+10	1
4901784	81	C	09/22/2017	10:41	-133.098	43.892	0	1980.40	0	1.9560	0	34.6740	4	27.724	0	1955.267	0	58.6	4	17.7	4	-1E+10	1	-1E+10	1	-1E+10	1	-1E+10	1	-1E+10	1	-1E+10	1
4901784	81	C	09/22/2017	10:41	-133.098	43.892	0	1985.00	0	1.9530	0	34.6740	4	27.725	0	1959.788	0	58.7	4	17.7	4	-1E+10	1	-1E+10	1	-1E+10	1	-1E+10	1	-1E+10	1	-1E+10	1
4901784	81	C	09/22/2017	10:41	-133.098	43.892	0	1991.00	0	1.9490	0	34.6750	4	27.726	0	1965.684	0	58.8	4	17.7	4	-1E+10	1	-1E+10	1	-1E+10	1	-1E+10	1	-1E+10	1	-1E+10	1
4901784	81	C	09/22/2017	10:41	-133.098	43.892	0	1995.00	0	1.9470	0	34.6760	4	27.727	0	1969.614	0	59.0	4	17.8	4	-1E+10	1	-1E+10	1	-1E+10	1	-1E+10	1	-1E+10	1	-1E+10	1
4901784	81	C	09/22/2017	10:41	-133.098	43.892	0	2000.00	0	1.9430	0	34.6750	4	27.726	0	1974.528	0	59.3	4	17.9	4	-1E+10	1	-1E+10	1	-1E+10	1	-1E+10	1	-1E+10	1	-1E+10	1
4901784	81	C	09/22/2017	10:41	-133.098	43.892	0	2004.40	0	1.9410	0	34.6760	4	27.727	0	1978.851	0	58.0	8	17.5	8	-1E+10	1	-1E+10	1	-1E+10	1	-1E+10	1	-1E+10	1	-1E+10	1
4901784	81	C	09/22/2017	10:41	-133.098	43.892	0																										
4901784	82	C	10/02/2017	10:44	-133.097	43.677	0	2.40	0	18.1210	0	33.0360	4	23.740	0	2.381	0	229.7	4	97.1	4	-1E+10	1	-1E+10	1	-1E+10	1	-1E+10	1	-1E+10	1	-1E+10	1
4901784	82	C	10/02/2017	10:44	-133.097	43.677	0	3.70	0	18.1200	0	33.0340	4	23.739	0	3.670	0	229.7	4	97.1	4	-1E+10	1	-1E+10	1	-1E+10	1	-1E+10	1	-1E+10	1	-1E+10	1
4901784	82	C	10/02/2017	10:44	-133.097	43.677	0	5.10	0	18.1170	0	33.0360	4	23.741	0	5.059	0	229.7	4	97.1	4	-1E+10	1	-1E+10	1	-1E+10	1	-1E+10	1	-1E+10	1	-1E+10	1
4901784	82	C	10/02/2017	10:44	-133.097	43.677	0	6.50	0	18.1060	0	33.0340	4	23.742	0	6.448	0	229.5	4	97.0	4	-1E+10	1	-1E+10	1	-1E+10	1	-1E+10	1	-1E+10	1	-1E+10	1
4901784	82	C	10/02/2017	10:44	-133.097	43.677	0	8.00	0	18.1050	0	33.0340	4	23.743	0	7.936	0	229.6	4	97.0	4	-1E+10	1	-1E+10	1	-1E+10	1	-1E+10	1	-1E+10	1	-1E+10	1
4901784	82	C	10/02/2017	10:44	-133.097	43.677	0	9.40	0	18.0990	0	33.0350	4	23.745	0	9.325	0	229.4	4	96.9	4	-1E+10	1	-1E+10	1	-1E+10	1	-1E+10	1	-1E+10	1	-1E+10	1
4901784	82	C	10/02/2017	10:44	-133.097	43.677	0	11.00	0	18.0960	0	33.0340	4	23.745	0	10.912	0	229.4	4	96.9	4	-1E+10	1	-1E+10	1	-1E+10	1	-1E+10	1	-1E+10	1	-1E+10	1
4901784	82	C	10/02/2017	10:44	-133.097	43.677	0	12.50	0	18.0910	0	33.0340	4	23.746	0	12.400	0	229.4	4	96.9	4	-1E+10	1	-1E+10	1	-1E+10	1	-1E+10	1	-1E+10	1	-1E+10	1
4901784	82	C	10/02/2017	10:44	-133.097	43.677	0	14.10	0	18.0710	0	33.0390	4	23.755	0	13.987	0	229.6	4	97.0	4	-1E+10	1	-1E+10	1	-1E+10	1	-1E+10	1	-1E+10	1	-1E+10	1
4901784	82	C	10/02/2017	10:44	-133.097	43.677	0	15.70	0	18.0490	0	33.0560	4	23.774	0	15.574	0	229.5	4	96.9	4	-1E+10	1	-1E+10	1	-1E+10	1	-1E+10	1	-1E+10	1	-1E+10	1
4901784	82	C	10/02/2017	10:44	-133.097	43.677	0	17.40	0	18.0470	0	33.0560	4	23.774	0	17.260	0	229.4	4	96.8	4	-1E+10	1	-1E+10	1	-1E+10	1	-1E+10	1	-1E+10	1	-1E+10	1
4901784	82	C	10/02/2017	10:44	-133.097	43.677	0	19.10	0	18.0430	0	33.0560	4	23.775	0	18.946	0	229.3	4	96.8	4	-1E+10	1	-1E+10	1	-1E+10	1	-1E+10	1	-1E+10	1	-1E+10	1
4901784	82	C	10/02/2017	10:44	-133.097	43.677	0	20.70	0	18.0400	0	33.0540	4	23.774	0	20.533	0	229.3	4	96.8	4	-1E+10	1	-1E+10	1	-1E+10	1	-1E+10	1	-1E+10	1	-1E+10	1
4901784	82	C	10/02/2017	10:44	-133.097	43.677	0	22.30	0	18.0340	0	33.0560	4	23.777	0	22.120	0	229.4	4	96.8	4	-1E+10	1	-1E+10	1	-1E+10	1	-1E+10	1	-1E+10	1	-1E+10	1
4901784	82	C	10/02/2017	10:44	-133.097	43.677	0	24.00	0	18.0290	0	33.0540	4	23.777	0	23.807	0	229.5	4	96.9	4	-1E+10	1	-1E+10	1	-1E+10	1	-1E+10	1	-1E+10	1	-1E+10	1
4901784	82	C	10/02/2017	10:44	-133.097	43.677	0	25.60	0	18.0270	0	33.0520	4	23.776	0	25.394	0	229.9	4	97.0	4	-1E+10	1	-1E+10	1	-1E+10	1	-1E+10	1	-1E+10	1	-1E+10	1
4901784	82	C	10/02/2017	10:44	-133.097	43.677	0	27.20	0	18.0280	0	33.0500	4	23.775	0	26.981	0	230.4	4	97.2	4	-1E+10	1	-1E+10	1	-1E+10	1	-1E+10	1	-1E+10	1	-1E+10	1
4901784	82	C	10/02/2017	10:44	-133.097	43.677	0	28.80	0	18.0220	0	33.0470	4	23.774	0	28.568	0	231.2	4	97.6	4	-1E+10	1	-1E+10	1	-1E+10	1	-1E+10	1	-1E+10	1	-1E+10	1
4901784	82	C	10/02/2017	10:44	-133.097	43.677	0	30.50	0	18.0120	0	33.0390	4	23.770	0	30.254	0	232.7	4	98.2	4	-1E+10	1	-1E+10	1	-1E+10	1	-1E+10	1	-1E+10	1	-1E+10	1
4901784	82	C	10/02/2017	10:44	-133.097	43.677	0	30.90	0	18.0000	0	33.0370	4	23.772	0	30.651	0	233.6	4	98.5	4	-1E+10	1	-1E+10	1	-1E+10	1	-1E+10	1	-1E+10	1	-1E+10	1
4901784	82	C	10/02/2017	10:44	-133.097	43.677	0	32.10	0	17.9440	0	33.0250	4	23.776	0	31.841	0	236.2	4	99.5	4	-1E+10	1	-1E+10	1	-1E+10	1	-1E+10	1	-1E+10	1	-1E+10	1
4901784	82	C	10/02/2017	10:44	-133.097	43.677	0	33.30	0	17.6960	0	33.0280	4	23.838	0	33.031	0	240.2	4	100.7	4	-1E+10	1	-1E+10	1	-1E+10	1	-1E+10	1	-1E+10	1	-1E+10	1
4901784	82	C	10/02/2017	10:44	-133.097	43.677	0	34.40	0	17.2980	0	32.9950	4	23.908	0	34.122	0	245.2	4	102.0	4	-1E+10	1	-1E+10	1	-1E+10	1	-1E+10	1	-1E+10	1	-1E+10	1
4901784	82	C	10/02/2017	10:44	-133.097	43.677	0	35.70	0	17.1330	0	32.9730	4	23.930	0	35.411	0	249.0	4	103.3	4	-1E+10	1	-1E+10	1	-1E+10	1	-1E+10	1	-1E+10	1	-1E+10	1
4901784	82	C	10/02/2017	10:44	-133.097	43.677	0	37.10	0	16.1310	0	32.9960	4	24.179	0	36.800	0	254.9	4	103.7	4	-1E+10	1	-1E+10	1	-1E+10	1	-1E+10	1	-1E+10	1	-1E+10	1
4901784	82	C	10/02/2017	10:44	-133.097	43.677	0	38.50	0	15.2150	0	32.9180	4	24.323	0	38.189	0	262.8	4	105.0	4	-1E+10	1	-1E+10	1	-1E+10	1	-1E+10	1	-1E+10	1	-1E+10	1
4901784	82	C	10/02/2017	10:44	-133.097	43.677	0	40.00	0	14.7440	0	32.9370	4	24.439	0	39.676	0	263.3	4	104.2	4	-1E+10	1	-1E+10	1	-1E+10	1	-1E+10	1	-1E+10	1	-1E+10	1
4901784	82	C	10/02/2017	10:44	-133.097	43.677	0	41.50	0	14.0280	0	32.9120	4	24.570	0	41.164	0	267.0	4	104.2	4	-1E+10	1	-1E+10	1	-1E+10	1	-1E+10	1	-1E+10	1	-1E+10	1
4901784	82	C	10/02/2017	10:44	-133.097	43.677	0	43.10	0	13.7820	0	32.9200	4	24.627	0	42.751	0	266.5	4	103.5	4	-1E+10	1	-1E+10	1	-1E+10	1	-1E+10	1	-1E+10	1	-1E+10	1
4901784	82	C	10/02/2017	10:44	-133.097	43.677	0	44.70	0	13.1770	0	32.9160	4	24.746	0	44.338	0	267.8	4	102.7	4	-1E+10	1	-1E+10	1	-1E+10	1	-1E+10	1	-1E+10	1	-1E+10	1
4901784	82	C	10/02/2017	10:44	-133.097	43.677	0	46.40	0	12.9050	0	32.9090	4	24.794	0	46.024	0	268.7	4	102.5	4	-1E+10	1	-1E+10	1	-1E+10	1	-1E+10	1	-1E+10	1	-1E+10	1
4901784	82	C	10/02/2017	10:44	-133.097	43.677	0	48.20	0	12.6760	0	32.9190	4	24.846	0	47.809	0	267.9	4	101.7	4	-1E+10	1	-1E+10	1	-1E+10	1	-1E+10	1	-1E+10	1	-1E+10	1
4901784	82	C	10/02/2017	10:44	-133.097	43.677	0	50.00	0	12.4070	0	32.9290	4	24.906	0	49.594	0	264.9	4	100.0	4	-1E+10	1	-1E+10	1	-1E+10	1	-1E+10	1	-1E+10	1	-1E+10	1
4901784	82	C	10/02/2017	10:44	-133.097	43.677	0	51.80	0	12.3090	0	32.9230	4	24.920	0	51.379	0	264.5	4	99.7	4	-1E+10	1	-1E+10	1	-1E+10	1	-1E+10	1	-1E+10	1	-1E+10	1
4901784	82	C	10/02/2017	10:44	-133.097	43.677	0	53.50	0	12.2060	0	32.9210	4	24.938	0	53.065	0	264.5	4	99.4	4	-1E+10	1	-1E+10	1	-1E+10	1	-1E+10	1	-1E+10	1	-1E+10	1
4901784	82	C	10/02/2017	10:44	-133.097	43.677	0	55.30	0	12.1310	0	32.9180	4	24.950	0	54.850	0	264.4	4	99.2	4	-1E+10	1	-1E+10	1	-1E+10	1	-1E+10	1	-1E+10	1	-1E+10	1
4901784	82	C	10/02/2017	10:44	-133.097	43.677	0	56.90	0	11.9780	0	32.9210	4	24.981	0	56.437	0	264.2	4	98.8	4	-1E+10	1	-1E+10	1	-1E+10	1	-1E+10	1	-1E+10	1	-1E+10	1
4901784	82	C	10/02/2017	10:44	-133.097	43.677	0	58.60	0	11.8570	0	32.9220	4	25.004	0	58.123	0	263.9	4	98.5	4	-1E+10	1	-1E+10	1	-1E+10	1	-1E+10	1	-1E+10	1	-1E+10	1
4901784	82	C	10/02/2017	10:44	-133.097	43.677	0	60.30	0	11.6310	0	32.9240	4	25.047	0	59.809	0	263.5	4	97.9	4	-1E+10	1	-1E+10	1	-1E+10	1	-1E+10	1	-1E+10	1	-1E+10	1
4901784	82	C	10/02/2017	10:44	-133.097	43.677	0	61.90	0	11.4810	0	32.9240	4	25.075	0	61.396	0	262.7	4	97.3	4	-1E+10	1	-1E+10	1	-1E+10	1	-1E+10	1	-1E+10	1	-1E+10	1
4901784	82	C	10/02/2017	10:44	-133.097	43.677	0	63.70	0	11.3490	0	32.9270	4	25.101	0	63.181	0	259.6	4	95.8	4	-1E+10	1	-1E+10	1	-1E+10	1	-1E+10	1	-1E+10	1	-1E+10	1
4901784	82	C	10/02/2017	10:44	-133.097	43.677	0	65.40	0	11.1660	0	32.9230	4	25.131	0	64.867	0	254.5	4	93.6	4	-1E+10	1	-1E+10	1	-1E+10	1	-1E+10	1	-1E+10	1	-1E+10	1
4901784	82	C	10/02/2017	10:44	-133.097	43.677	0	67.20	0	10.8820	0	32.9340	4	25.190	0	66.652	0	250.1	4	91.5	4	-1E+10	1	-1E+10	1	-1E+10	1	-1E+10	1	-1E+10	1	-1E+10	1
4901784	82	C	10/02/2017	10:44	-133.097	43.677	0	69.20	0	10.5930	0	32.9590	4	25.260	0	68.635	0	245.4	4	89.2	4	-1E+10	1	-1E+10	1	-1E+10	1	-1E+10	1	-1E+10	1	-1E+10	1
4901784	82	C	10/02/2017	10:44	-133.097	43.677	0	70.90	0	10.5560	0	32.9660	4	25.271	0	70.321	0	240.5	4	87.4	4	-1E+10	1	-1E+10	1	-1E+10	1	-1E+10	1	-1E+10	1	-1E+10	1
4901784	82	C	10/02/2017	10:44	-133.097	43.677	0	72.20	0	10.5190	0	32.9800	4	25.289	0	71.610	0	237.6	4	86.2	4	-1E+10	1	-1E+10	1	-1E+10	1	-1E+10	1	-1E+10	1	-1E+10	1
4901784	82	C	10/02/2017	10:44	-133.097	43.677	0	73.60	0	10.4520	0	32.9830	4	25.303	0	72.998	0	235.3	4	85.3	4	-1E+10	1	-1E+10	1	-1E+10	1	-1E+10	1	-1E+10	1	-1E+10	1
4901784	82	C	10/02/2017	10:44	-133.097	43.677	0	75.00	0	10.3480	0	32.9980	4	25.332	0	74.387	0	233.1	4	84.3	4	-1E+10	1	-1E+10	1	-1E+10	1	-1E+10	1	-1E+10	1	-1E+10	1
4901784	82	C	10/02/2017	10:44	-133.097	43.677	0	76.50	0	10.2800	0	33.0060	4	25.350	0	75.874	0	230.9	4	83.4	4	-1E+10	1	-1E+10	1	-1E+10	1	-1E+10	1	-1E+10	1	-1E+10	1
4901784	82	C	10/02/2017	10:44	-133.097	43.677	0	77.90	0	10.1860	0	33.0240	4	25.380	0	77.263	0	228.8	4	82.5	4	-1E+10	1	-1E+10	1	-1E+10	1	-1E+10	1	-1E+10	1	-1E+10	1
4901784	82	C	10/02/2017	10:44	-133.097	43.677	0	79.50	0	10.0830	0	33.0470	4	25.415	0	78.849	0	226.3	4	81.4	4	-1E+10	1	-1E+10	1	-1E+10	1	-1E+10	1	-1E+10	1	-1E+10	1
4901784	82	C	10/02/2017	10:44	-133.097	43.677	0	81.00	0	9.9650	0	33.0740	4	25.456	0	80.337	0	224.8	4	80.7	4	-1E+10	1	-1E+10	1	-1E+10	1	-1E+10	1	-1E+10	1	-1E+10	1
4901784	82	C	10/02/2017	10:44	-133.097	43.677	0	82.50	0	9.8550	0	33.0760	4	25.476	0	81.824	0	223.6	4	80.1	4	-1E+10	1	-1E+10	1	-1E+10	1	-1E+10	1	-1E+10	1	-1E+10	1
4901784	82	C	10/02/2017	10:44	-133.097	43.677	0	84.00	0	9.8120	0	33.0860	4	25.491	0	83.311	0	221.0	4	79.1	4	-1E+10	1	-1E+10	1	-1E+10	1	-1E+10	1	-1E+10	1	-1E+10	1
4901784	82	C	10/02/2017	10:44	-133.097	43.677	0	85.50	0	9.7770	0	33.0910	4	25.501	0	84.799	0	217.6	4	77.8	4	-1E+10	1	-1E+10	1	-1E+10	1	-1E+10	1	-1E+10	1	-1E+10	1
4901784	82	C	10/02/2017	10:44	-133.097	43.677	0	87.20	0	9.6430	0	33.1510	4	25.569	0	86.484	0	214.2	4	76.4	4	-1E+10	1	-1E+10	1	-1E+10	1	-1E+10	1	-1E+10	1	-1E+10	1
4901784	82	C	10/02/2017	10:44	-133.097	43.677	0	87.70	0	9.6400	0	33.1520	4	25.571	0	86.980	0	213.0	4	75.9	4	-1E+10	1	-1E+10	1	-1E+10	1	-1E+10	1	-1E+10	1	-1E+10	1
4901784	82	C	10/02/2017	10:44	-133.097	43.677	0	89.10	0	9.6050	0	33.1640	4	25.586	0	88.368	0	210.0	4	74.8	4	-1E+10	1	-1E+10	1	-1E+10	1	-1E+10	1	-1E+10	1	-1E+10	1
4901784	82	C	10/02/2017	10:44	-133.097	43.677	0	90.40	0	9.4300	0	33.2150	4	25.654	0	89.657	0	208.0	4	73.9	4	-1E+10	1	-1E+10	1	-1E+10	1	-1E+10	1	-1E+10	1	-1E+10	1
4901784	82	C	10/02/2017	10:44	-133.097	43.677	0	91.70	0	9.3890	0	33.2340	4	25.675	0	90.947	0	205.8	4	73.0	4	-1E+10	1	-1E+10	1	-1E+10	1	-1E+10	1	-1E+10	1	-1E+10	1
4901784	82	C	10/02/2017	10:44	-133.097	43.677	0	93.10	0	9.3820	0	33.2480	4	25.688	0	92.335	0	203.0	4	72.0	4	-1E+10	1	-1E+10	1	-1E+10	1	-1E+10	1	-1E+10	1	-1E+10	1
4901784	82	C	10/02/2017	10:44	-133.097	43.677	0	94.40	0	9.3600	0	33.2640	4	25.704	0	93.624	0	200.1	4	71.0	4	-1E+10	1	-1E+10	1	-1E+10	1	-1E+10	1	-1E+10	1	-1E+10	1
4901784	82	C	10/02/2017	10:44	-133.097	43.677	0	95.80	0	9.3470	0	33.2700	4	25.710	0	95.012	0	196.8	4	69.8	4	-1E+10	1	-1E+10	1	-1E+10	1	-1E+10	1	-1E+10	1	-1E+10	1
4901784	82	C	10/02/2017	10:44	-133.097	43.677	0	97.30	0	9.3150	0	33.2910	4	25.732	0	96.499	0	193.2	4	68.5	4	-1E+10	1	-1E+10	1	-1E+10	1	-1E+10	1	-1E+10	1	-1E+10	1
4901784	82	C	10/02/2017	10:44	-133.097	43.677	0	98.80	0	9.2580	0	33.3400	4	25.780	0	97.987	0	188.7	4	66.8	4	-1E+10	1	-1E+10	1	-1E+10	1	-1E+10	1	-1E+10	1	-1E+10	1
4901784	82	C	10/02/2017	10:44	-133.097	43.677	0	100.30	0	9.2180	0	33.3660	4	25.806	0	99.474	0	185.2	4	65.5	4	-1E+10	1	-1E+10	1	-1E+10	1	-1E+10	1	-1E+10	1	-1E+10	1
4901784	82	C	10/02/2017	10:44	-133.097	43.677	0	102.80	0	9.1030	0	33.4380	4	25.881	0	101.953	0	180.2	4	63.6	4	-1E+10	1	-1E+10	1	-1E+10	1	-1E+10	1	-1E+10	1	-1E+10	1
4901784	82	C	10/02/2017	10:44	-133.097	43.677	0	105.30	0	9.0210	0	33.4910	4	25.935	0	104.431	0	176.2	4	62.1	4	-1E+10	1	-1E+10	1	-1E+10	1	-1E+10	1	-1E+10	1	-1E+10	1
4901784	82	C	10/02/2017	10:44	-133.097	43.677	0	107.10	0	8.9900	0	33.5110	4	25.956	0	106.216	0	173.4	4	61.1	4	-1E+10	1	-1E+10	1	-1E+10	1	-1E+10	1	-1E+10	1	-1E+10	1
4901784	82	C	10/02/2017	10:44	-133.097	43.677	0	109.80	0	8.9490	0	33.5380	4	25.984	0	108.893	0	169.3	4	59.6	4	-1E+10	1	-1E+10	1	-1E+10	1	-1E+10	1	-1E+10	1	-1E+10	1
4901784	82	C	10/02/2017	10:44	-133.097	43.677	0	112.30	0	8.9210	0	33.5590	4	26.004	0	111.372	0	163.6	4	57.6	4	-1E+10	1	-1E+10	1	-1E+10	1	-1E+10	1	-1E+10	1	-1E+10	1
4901784	82	C	10/02/2017	10:44	-133.097	43.677	0	115.20	0	8.8230	0	33.6330	4	26.078	0	114.247	0	157.8	4	55.5	4	-1E+10	1	-1E+10	1	-1E+10	1	-1E+10	1	-1E+10	1	-1E+10	1
4901784	82	C	10/02/2017	10:44	-133.097	43.677	0	118.10	0	8.7880	0	33.6580	4	26.103	0	117.122	0	152.7	4	53.6	4	-1E+10	1	-1E+10	1	-1E+10	1	-1E+10	1	-1E+10	1	-1E+10	1
4901784	82	C	10/02/2017	10:44	-133.097	43.677	0	120.00	0	8.7580	0	33.6770	4	26.122	0	119.006	0	148.8	4	52.2	4	-1E+10	1	-1E+10	1	-1E+10	1	-1E+10	1	-1E+10	1	-1E+10	1
4901784	82	C	10/02/2017	10:44	-133.097	43.677	0	121.90	0	8.7140	0	33.7040	4	26.150	0	120.890	0	143.9	4	50.5	4	-1E+10	1	-1E+10	1	-1E+10	1	-1E+10	1	-1E+10	1	-1E+10	1
4901784	82	C	10/02/2017	10:44	-133.097	43.677	0	124.70	0	8.6480	0	33.7370	4	26.186	0	123.665	0	139.4	4	48.8	4	-1E+10	1	-1E+10	1	-1E+10	1	-1E+10	1	-1E+10	1	-1E+10	1
4901784	82	C	10/02/2017	10:44	-133.097	43.677	0	127.60	0	8.5660	0	33.7760	4	26.230	0	126.541	0	135.6	4	47.4	4	-1E+10	1	-1E+10	1	-1E+10	1	-1E+10	1	-1E+10	1	-1E+10	1
4901784	82	C	10/02/2017	10:44	-133.097	43.677	0	129.50	0	8.5340	0	33.7890	4	26.245	0	128.424	0	133.8	4	46.8	4	-1E+10	1	-1E+10	1	-1E+10	1	-1E+10	1	-1E+10	1	-1E+10	1
4901784	82	C	10/02/2017	10:44	-133.097	43.677	0	132.50	0	8.4800	0	33.8100	4	26.270	0	131.398	0	131.0	4	45.8	4	-1E+10	1	-1E+10	1	-1E+10	1	-1E+10	1	-1E+10	1	-1E+10	1
4901784	82	C	10/02/2017	10:44	-133.097	43.677	0	135.20	0	8.4540	0	33.8180	4	26.280	0	134.075	0	128.5	4	44.9	4	-1E+10	1	-1E+10	1	-1E+10	1	-1E+10	1	-1E+10	1	-1E+10	1
4901784	82	C	10/02/2017	10:44	-133.097	43.677	0	137.00	0	8.3880	0	33.8440	4	26.310	0	135.859	0	126.7	4	44.2	4	-1E+10	1	-1E+10	1	-1E+10	1	-1E+10	1	-1E+10	1	-1E+10	1
4901784	82	C	10/02/2017	10:44	-133.097	43.677	0	139.70	0	8.3440	0	33.8560	4	26.326	0	138.536	0	125.5	4	43.7	4	-1E+10	1	-1E+10	1	-1E+10	1	-1E+10	1	-1E+10	1	-1E+10	1
4901784	82	C	10/02/2017	10:44	-133.097	43.677	0	142.40	0	8.3200	0	33.8610	4	26.334	0	141.213	0	124.7	4	43.4	4	-1E+10	1	-1E+10	1	-1E+10	1	-1E+10	1	-1E+10	1	-1E+10	1
4901784	82	C	10/02/2017	10:44	-133.097	43.677	0	145.10	0	8.2590	0	33.8830	4	26.360	0	143.889	0	124.4	4	43.3	4	-1E+10	1	-1E+10	1	-1E+10	1	-1E+10	1	-1E+10	1	-1E+10	1
4901784	82	C	10/02/2017	10:44	-133.097	43.677	0	147.80	0	8.2080	0	33.9000	4	26.381	0	146.566	0	124.1	4	43.1	4	-1E+10	1	-1E+10	1	-1E+10	1	-1E+10	1	-1E+10	1	-1E+10	1
4901784	82	C	10/02/2017	10:44	-133.097	43.677	0	149.50	0	8.1820	0	33.9110	4	26.394	0	148.251	0	123.1	4	42.7	4	-1E+10	1	-1E+10	1	-1E+10	1	-1E+10	1	-1E+10	1	-1E+10	1
4901784	82	C	10/02/2017	10:44	-133.097	43.677	0	152.10	0	8.1500	0	33.9170	4	26.404	0	150.828	0	121.2	4	42.1	4	-1E+10	1	-1E+10	1	-1E+10	1	-1E+10	1	-1E+10	1	-1E+10	1
4901784	82	C	10/02/2017	10:44	-133.097	43.677	0	154.80	0	8.0910	0	33.9250	4	26.419	0	153.505	0	118.8	4	41.2	4	-1E+10	1	-1E+10	1	-1E+10	1	-1E+10	1	-1E+10	1	-1E+10	1
4901784	82	C	10/02/2017	10:44	-133.097	43.677	0	157.60	0	8.0440	0	33.9330	4	26.432	0	156.280	0	116.9	4	40.5	4	-1E+10	1	-1E+10	1	-1E+10	1	-1E+10	1	-1E+10	1	-1E+10	1
4901784	82	C	10/02/2017	10:44	-133.097	43.677	0	160.80	0	7.9580	0	33.9470	4	26.456	0	159.452	0	114.9	4	39.7	4	-1E+10	1	-1E+10	1	-1E+10	1	-1E+10	1	-1E+10	1	-1E+10	1
4901784	82	C	10/02/2017	10:44	-133.097	43.677	0	162.60	0	7.9160	0	33.9540	4	26.467	0	161.236	0	114.0	4	39.4	4	-1E+10	1	-1E+10	1	-1E+10	1	-1E+10	1	-1E+10	1	-1E+10	1
4901784	82	C	10/02/2017	10:44	-133.097	43.677	0	164.90	0	7.8690	0	33.9610	4	26.480	0	163.516	0	112.5	4	38.8	4	-1E+10	1	-1E+10	1	-1E+10	1	-1E+10	1	-1E+10	1	-1E+10	1
4901784	82	C	10/02/2017	10:44	-133.097	43.677	0	167.30	0	7.8060	0	33.9680	4	26.494	0	165.895	0	111.6	4	38.4	4	-1E+10	1	-1E+10	1	-1E+10	1	-1E+10	1	-1E+10	1	-1E+10	1
4901784	82	C	10/02/2017	10:44	-133.097	43.677	0	169.60	0	7.7330	0	33.9800	4	26.515	0	168.175	0	111.5	4	38.3	4	-1E+10	1	-1E+10	1	-1E+10	1	-1E+10	1	-1E+10	1	-1E+10	1
4901784	82	C	10/02/2017	10:44	-133.097	43.677	0	172.80	0	7.6850	0	33.9870	4	26.527	0	171.347	0	111.1	4	38.2	4	-1E+10	1	-1E+10	1	-1E+10	1	-1E+10	1	-1E+10	1	-1E+10	1
4901784	82	C	10/02/2017	10:44	-133.097	43.677	0	175.20	0	7.6720	0	33.9860	4	26.528	0	173.725	0	110.5	4	38.0	4	-1E+10	1	-1E+10	1	-1E+10	1	-1E+10	1	-1E+10	1	-1E+10	1
4901784	82	C	10/02/2017	10:44	-133.097	43.677	0	177.60	0	7.6520	0	33.9890	4	26.533	0	176.104	0	109.5	4	37.6	4	-1E+10	1	-1E+10	1	-1E+10	1	-1E+10	1	-1E+10	1	-1E+10	1
4901784	82	C	10/02/2017	10:44	-133.097	43.677	0	180.00	0	7.6320	0	33.9920	4	26.539	0	178.483	0	108.2	4	37.1	4	-1E+10	1	-1E+10	1	-1E+10	1	-1E+10	1	-1E+10	1	-1E+10	1
4901784	82	C	10/02/2017	10:44	-133.097	43.677	0	182.50	0	7.6120	0	33.9940	4	26.543	0	180.961	0	106.5	4	36.5	4	-1E+10	1	-1E+10	1	-1E+10	1	-1E+10	1	-1E+10	1	-1E+10	1
4901784	82	C	10/02/2017	10:44	-133.097	43.677	0	184.90	0	7.5940	0	33.9940	4	26.546	0	183.339	0	105.2	4	36.1	4	-1E+10	1	-1E+10	1	-1E+10	1	-1E+10	1	-1E+10	1	-1E+10	1
4901784	82	C	10/02/2017	10:44	-133.097	43.677	0	187.40	0	7.5590	0	33.9970	4	26.553	0	185.817	0	104.4	4	35.8	4	-1E+10	1	-1E+10	1	-1E+10	1	-1E+10	1	-1E+10	1	-1E+10	1
4901784	82	C	10/02/2017	10:44	-133.097	43.677	0	190.00	0	7.5300	0	33.9980	4	26.558	0	188.394	0	104.0	4	35.6	4	-1E+10	1	-1E+10	1	-1E+10	1	-1E+10	1	-1E+10	1	-1E+10	1
4901784	82	C	10/02/2017	10:44	-133.097	43.677	0	192.50	0	7.5000	0	34.0010	4	26.565	0	190.872	0	103.7	4	35.5	4	-1E+10	1	-1E+10	1	-1E+10	1	-1E+10	1	-1E+10	1	-1E+10	1
4901784	82	C	10/02/2017	10:44	-133.097	43.677	0	195.10	0	7.4560	0	34.0060	4	26.575	0	193.449	0	103.4	4	35.4	4	-1E+10	1	-1E+10	1	-1E+10	1	-1E+10	1	-1E+10	1	-1E+10	1
4901784	82	C	10/02/2017	10:44	-133.097	43.677	0	197.70	0	7.4170	0	34.0100	4	26.584	0	196.025	0	103.5	4	35.3	4	-1E+10	1	-1E+10	1	-1E+10	1	-1E+10	1	-1E+10	1	-1E+10	1
4901784	82	C	10/02/2017	10:44	-133.097	43.677	0	200.30	0	7.4060	0	34.0110	4	26.586	0	198.602	0	103.5	4	35.3	4	-1E+10	1	-1E+10	1	-1E+10	1	-1E+10	1	-1E+10	1	-1E+10	1
4901784	82	C	10/02/2017	10:44	-133.097	43.677	0	202.10	0	7.3920	0	34.0110	4	26.588	0	200.386	0	103.5	4	35.3	4	-1E+10	1	-1E+10	1	-1E+10	1	-1E+10	1	-1E+10	1	-1E+10	1
4901784	82	C	10/02/2017	10:44	-133.097	43.677	0	204.70	0	7.3640	0	34.0130	4	26.594	0	202.963	0	103.7	4	35.4	4	-1E+10	1	-1E+10	1	-1E+10	1	-1E+10	1	-1E+10	1	-1E+10	1
4901784	82	C	10/02/2017	10:44	-133.097	43.677	0	207.30	0	7.3460	0	34.0150	4	26.598	0	205.539	0	103.9	4	35.4	4	-1E+10	1	-1E+10	1	-1E+10	1	-1E+10	1	-1E+10	1	-1E+10	1
4901784	82	C	10/02/2017	10:44	-133.097	43.677	0	210.00	0	7.3320	0	34.0150	4	26.600	0	208.215	0	104.1	4	35.5	4	-1E+10	1	-1E+10	1	-1E+10	1	-1E+10	1	-1E+10	1	-1E+10	1
4901784	82	C	10/02/2017	10:44	-133.097	43.677	0	212.60	0	7.3230	0	34.0150	4	26.601	0	210.791	0	104.6	4	35.6	4	-1E+10	1	-1E+10	1	-1E+10	1	-1E+10	1	-1E+10	1	-1E+10	1
4901784	82	C	10/02/2017	10:44	-133.097	43.677	0	215.20	0	7.3060	0	34.0150	4	26.603	0	213.368	0	105.1	4	35.8	4	-1E+10	1	-1E+10	1	-1E+10	1	-1E+10	1	-1E+10	1	-1E+10	1
4901784	82	C	10/02/2017	10:44	-133.097	43.677	0	217.80	0	7.2370	0	34.0200	4	26.617	0	215.945	0	106.0	4	36.1	4	-1E+10	1	-1E+10	1	-1E+10	1	-1E+10	1	-1E+10	1	-1E+10	1
4901784	82	C	10/02/2017	10:44	-133.097	43.677	0	219.60	0	7.1980	0	34.0200	4	26.623	0	217.728	0	106.8	4	36.3	4	-1E+10	1	-1E+10	1	-1E+10	1	-1E+10	1	-1E+10	1	-1E+10	1
4901784	82	C	10/02/2017	10:44	-133.097	43.677	0	222.30	0	7.1750	0	34.0200	4	26.626	0	220.404	0	107.6	4	36.6	4	-1E+10	1	-1E+10	1	-1E+10	1	-1E+10	1	-1E+10	1	-1E+10	1
4901784	82	C	10/02/2017	10:44	-133.097	43.677	0	225.00	0	7.1420	0	34.0200	4	26.630	0	223.079	0	108.6	4	36.8	4	-1E+10	1	-1E+10	1	-1E+10	1	-1E+10	1	-1E+10	1	-1E+10	1
4901784	82	C	10/02/2017	10:44	-133.097	43.677	0	227.70	0	7.1190	0	34.0220	4	26.635	0	225.755	0	109.2	4	37.0	4	-1E+10	1	-1E+10	1	-1E+10	1	-1E+10	1	-1E+10	1	-1E+10	1
4901784	82	C	10/02/2017	10:44	-133.097	43.677	0	230.40	0	7.0940	0	34.0200	4	26.637	0	228.430	0	109.3	4	37.1	4	-1E+10	1	-1E+10	1	-1E+10	1	-1E+10	1	-1E+10	1	-1E+10	1
4901784	82	C	10/02/2017	10:44	-133.097	43.677	0	232.10	0	7.0790	0	34.0210	4	26.640	0	230.115	0	109.9	4	37.2	4	-1E+10	1	-1E+10	1	-1E+10	1	-1E+10	1	-1E+10	1	-1E+10	1
4901784	82	C	10/02/2017	10:44	-133.097	43.677	0	234.80	0	7.0410	0	34.0210	4	26.645	0	232.790	0	111.4	4	37.7	4	-1E+10	1	-1E+10	1	-1E+10	1	-1E+10	1	-1E+10	1	-1E+10	1
4901784	82	C	10/02/2017	10:44	-133.097	43.677	0	237.50	0	7.0110	0	34.0200	4	26.649	0	235.465	0	112.3	4	38.0	4	-1E+10	1	-1E+10	1	-1E+10	1	-1E+10	1	-1E+10	1	-1E+10	1
4901784	82	C	10/02/2017	10:44	-133.097	43.677	0	240.30	0	6.9860	0	34.0200	4	26.652	0	238.240	0	112.8	4	38.2	4	-1E+10	1	-1E+10	1	-1E+10	1	-1E+10	1	-1E+10	1	-1E+10	1
4901784	82	C	10/02/2017	10:44	-133.097	43.677	0	243.00	0	6.9560	0	34.0180	4	26.655	0	240.915	0	112.9	4	38.2	4	-1E+10	1	-1E+10	1	-1E+10	1	-1E+10	1	-1E+10	1	-1E+10	1
4901784	82	C	10/02/2017	10:44	-133.097	43.677	0	244.90	0	6.9380	0	34.0190	4	26.658	0	242.798	0	112.8	4	38.1	4	-1E+10	1	-1E+10	1	-1E+10	1	-1E+10	1	-1E+10	1	-1E+10	1
4901784	82	C	10/02/2017	10:44	-133.097	43.677	0	247.60	0	6.9120	0	34.0190	4	26.661	0	245.473	0	112.8	4	38.1	4	-1E+10	1	-1E+10	1	-1E+10	1	-1E+10	1	-1E+10	1	-1E+10	1
4901784	82	C	10/02/2017	10:44	-133.097	43.677	0	250.30	0	6.8940	0	34.0180	4	26.663	0	248.148	0	112.2	4	37.9	4	-1E+10	1	-1E+10	1	-1E+10	1	-1E+10	1	-1E+10	1	-1E+10	1
4901784	82	C	10/02/2017	10:44	-133.097	43.677	0	252.10	0	6.8520	0	34.0180	4	26.669	0	249.932	0	112.5	4	37.9	4	-1E+10	1	-1E+10	1	-1E+10	1	-1E+10	1	-1E+10	1	-1E+10	1
4901784	82	C	10/02/2017	10:44	-133.097	43.677	0	254.80	0	6.8150	0	34.0170	4	26.673	0	252.607	0	111.9	4	37.7	4	-1E+10	1	-1E+10	1	-1E+10	1	-1E+10	1	-1E+10	1	-1E+10	1
4901784	82	C	10/02/2017	10:44	-133.097	43.677	0	257.60	0	6.7470	0	34.0170	4	26.682	0	255.381	0	111.3	4	37.4	4	-1E+10	1	-1E+10	1	-1E+10	1	-1E+10	1	-1E+10	1	-1E+10	1
4901784	82	C	10/02/2017	10:44	-133.097	43.677	0	260.30	0	6.7040	0	34.0180	4	26.689	0	258.056	0	110.3	4	37.1	4	-1E+10	1	-1E+10	1	-1E+10	1	-1E+10	1	-1E+10	1	-1E+10	1
4901784	82	C	10/02/2017	10:44	-133.097	43.677	0	263.00	0	6.6770	0	34.0170	4	26.691	0	260.731	0	109.1	4	36.7	4	-1E+10	1	-1E+10	1	-1E+10	1	-1E+10	1	-1E+10	1	-1E+10	1
4901784	82	C	10/02/2017	10:44	-133.097	43.677	0	264.90	0	6.6490	0	34.0180	4	26.696	0	262.613	0	108.3	4	36.3	4	-1E+10	1	-1E+10	1	-1E+10	1	-1E+10	1	-1E+10	1	-1E+10	1
4901784	82	C	10/02/2017	10:44	-133.097	43.677	0	267.60	0	6.6190	0	34.0200	4	26.702	0	265.288	0	106.9	4	35.9	4	-1E+10	1	-1E+10	1	-1E+10	1	-1E+10	1	-1E+10	1	-1E+10	1
4901784	82	C	10/02/2017	10:44	-133.097	43.677	0	270.30	0	6.5940	0	34.0190	4	26.704	0	267.963	0	105.1	4	35.2	4	-1E+10	1	-1E+10	1	-1E+10	1	-1E+10	1	-1E+10	1	-1E+10	1
4901784	82	C	10/02/2017	10:44	-133.097	43.677	0	272.00	0	6.5700	0	34.0220	4	26.710	0	269.647	0	103.5	4	34.7	4	-1E+10	1	-1E+10	1	-1E+10	1	-1E+10	1	-1E+10	1	-1E+10	1
4901784	82	C	10/02/2017	10:44	-133.097	43.677	0	274.80	0	6.5250	0	34.0240	4	26.717	0	272.421	0	102.1	4	34.2	4	-1E+10	1	-1E+10	1	-1E+10	1	-1E+10	1	-1E+10	1	-1E+10	1
4901784	82	C	10/02/2017	10:44	-133.097	43.677	0	277.50	0	6.5160	0	34.0250	4	26.719	0	275.096	0	100.5	4	33.6	4	-1E+10	1	-1E+10	1	-1E+10	1	-1E+10	1	-1E+10	1	-1E+10	1
4901784	82	C	10/02/2017	10:44	-133.097	43.677	0	280.20	0	6.4620	0	34.0250	4	26.726	0	277.771	0	99.7	4	33.3	4	-1E+10	1	-1E+10	1	-1E+10	1	-1E+10	1	-1E+10	1	-1E+10	1
4901784	82	C	10/02/2017	10:44	-133.097	43.677	0	283.00	0	6.4220	0	34.0300	4	26.735	0	280.545	0	99.6	4	33.2	4	-1E+10	1	-1E+10	1	-1E+10	1	-1E+10	1	-1E+10	1	-1E+10	1
4901784	82	C	10/02/2017	10:44	-133.097	43.677	0	284.70	0	6.4080	0	34.0300	4	26.737	0	282.229	0	100.2	4	33.5	4	-1E+10	1	-1E+10	1	-1E+10	1	-1E+10	1	-1E+10	1	-1E+10	1
4901784	82	C	10/02/2017	10:44	-133.097	43.677	0	287.40	0	6.3630	0	34.0270	4	26.741	0	284.904	0	102.3	4	34.1	4	-1E+10	1	-1E+10	1	-1E+10	1	-1E+10	1	-1E+10	1	-1E+10	1
4901784	82	C	10/02/2017	10:44	-133.097	43.677	0	290.10	0	6.2930	0	34.0180	4	26.743	0	287.578	0	103.1	4	34.3	4	-1E+10	1	-1E+10	1	-1E+10	1	-1E+10	1	-1E+10	1	-1E+10	1
4901784	82	C	10/02/2017	10:44	-133.097	43.677	0	292.00	0	6.2730	0	34.0170	4	26.745	0	289.460	0	102.7	4	34.2	4	-1E+10	1	-1E+10	1	-1E+10	1	-1E+10	1	-1E+10	1	-1E+10	1
4901784	82	C	10/02/2017	10:44	-133.097	43.677	0	294.70	0	6.2550	0	34.0170	4	26.747	0	292.135	0	102.2	4	34.0	4	-1E+10	1	-1E+10	1	-1E+10	1	-1E+10	1	-1E+10	1	-1E+10	1
4901784	82	C	10/02/2017	10:44	-133.097	43.677	0	297.30	0	6.2010	0	34.0140	4	26.751	0	294.711	0	101.4	4	33.7	4	-1E+10	1	-1E+10	1	-1E+10	1	-1E+10	1	-1E+10	1	-1E+10	1
4901784	82	C	10/02/2017	10:44	-133.097	43.677	0	300.00	0	6.1330	0	34.0160	4	26.762	0	297.385	0	99.5	4	33.0	4	-1E+10	1	-1E+10	1	-1E+10	1	-1E+10	1	-1E+10	1	-1E+10	1
4901784	82	C	10/02/2017	10:44	-133.097	43.677	0	302.70	0	6.1150	0	34.0170	4	26.765	0	300.060	0	97.3	4	32.2	4	-1E+10	1	-1E+10	1	-1E+10	1	-1E+10	1	-1E+10	1	-1E+10	1
4901784	82	C	10/02/2017	10:44	-133.097	43.677	0	305.30	0	6.0850	0	34.0190	4	26.770	0	302.635	0	95.0	4	31.5	4	-1E+10	1	-1E+10	1	-1E+10	1	-1E+10	1	-1E+10	1	-1E+10	1
4901784	82	C	10/02/2017	10:44	-133.097	43.677	0	307.90	0	6.0480	0	34.0160	4	26.773	0	305.210	0	92.4	4	30.6	4	-1E+10	1	-1E+10	1	-1E+10	1	-1E+10	1	-1E+10	1	-1E+10	1
4901784	82	C	10/02/2017	10:44	-133.097	43.677	0	309.70	0	6.0260	0	34.0210	4	26.779	0	306.993	0	90.1	4	29.8	4	-1E+10	1	-1E+10	1	-1E+10	1	-1E+10	1	-1E+10	1	-1E+10	1
4901784	82	C	10/02/2017	10:44	-133.097	43.677	0	312.30	0	5.9970	0	34.0240	4	26.785	0	309.569	0	86.0	4	28.4	4	-1E+10	1	-1E+10	1	-1E+10	1	-1E+10	1	-1E+10	1	-1E+10	1
4901784	82	C	10/02/2017	10:44	-133.097	43.677	0	314.90	0	5.9910	0	34.0330	4	26.793	0	312.144	0	81.6	4	27.0	4	-1E+10	1	-1E+10	1	-1E+10	1	-1E+10	1	-1E+10	1	-1E+10	1
4901784	82	C	10/02/2017	10:44	-133.097	43.677	0	317.50	0	5.9780	0	34.0410	4	26.801	0	314.719	0	77.4	4	25.6	4	-1E+10	1	-1E+10	1	-1E+10	1	-1E+10	1	-1E+10	1	-1E+10	1
4901784	82	C	10/02/2017	10:44	-133.097	43.677	0	320.20	0	5.9770	0	34.0440	4	26.804	0	317.394	0	73.8	4	24.4	4	-1E+10	1	-1E+10	1	-1E+10	1	-1E+10	1	-1E+10	1	-1E+10	1
4901784	82	C	10/02/2017	10:44	-133.097	43.677	0	322.10	0	5.9590	0	34.0500	4	26.811	0	319.276	0	70.5	4	23.3	4	-1E+10	1	-1E+10	1	-1E+10	1	-1E+10	1	-1E+10	1	-1E+10	1
4901784	82	C	10/02/2017	10:44	-133.097	43.677	0	324.80	0	6.0300	0	34.0660	4	26.815	0	321.950	0	67.4	4	22.3	4	-1E+10	1	-1E+10	1	-1E+10	1	-1E+10	1	-1E+10	1	-1E+10	1
4901784	82	C	10/02/2017	10:44	-133.097	43.677	0	327.50	0	6.0190	0	34.0670	4	26.817	0	324.624	0	66.2	4	21.9	4	-1E+10	1	-1E+10	1	-1E+10	1	-1E+10	1	-1E+10	1	-1E+10	1
4901784	82	C	10/02/2017	10:44	-133.097	43.677	0	330.10	0	5.9960	0	34.0690	4	26.821	0	327.199	0	65.1	4	21.5	4	-1E+10	1	-1E+10	1	-1E+10	1	-1E+10	1	-1E+10	1	-1E+10	1
4901784	82	C	10/02/2017	10:44	-133.097	43.677	0	332.70	0	5.9720	0	34.0730	4	26.827	0	329.774	0	63.9	4	21.1	4	-1E+10	1	-1E+10	1	-1E+10	1	-1E+10	1	-1E+10	1	-1E+10	1
4901784	82	C	10/02/2017	10:44	-133.097	43.677	0	334.50	0	5.9410	0	34.0690	4	26.828	0	331.557	0	63.2	4	20.9	4	-1E+10	1	-1E+10	1	-1E+10	1	-1E+10	1	-1E+10	1	-1E+10	1
4901784	82	C	10/02/2017	10:44	-133.097	43.677	0	337.20	0	5.9050	0	34.0740	4	26.837	0	334.231	0	62.2	4	20.5	4	-1E+10	1	-1E+10	1	-1E+10	1	-1E+10	1	-1E+10	1	-1E+10	1
4901784	82	C	10/02/2017	10:44	-133.097	43.677	0	339.80	0	5.8760	0	34.0760	4	26.842	0	336.806	0	61.3	4	20.2	4	-1E+10	1	-1E+10	1	-1E+10	1	-1E+10	1	-1E+10	1	-1E+10	1
4901784	82	C	10/02/2017	10:44	-133.097	43.677	0	342.50	0	5.8560	0	34.0770	4	26.845	0	339.480	0	60.3	4	19.9	4	-1E+10	1	-1E+10	1	-1E+10	1	-1E+10	1	-1E+10	1	-1E+10	1
4901784	82	C	10/02/2017	10:44	-133.097	43.677	0	345.20	0	5.8130	0	34.0820	4	26.854	0	342.154	0	59.5	4	19.6	4	-1E+10	1	-1E+10	1	-1E+10	1	-1E+10	1	-1E+10	1	-1E+10	1
4901784	82	C	10/02/2017	10:44	-133.097	43.677	0	347.00	0	5.7910	0	34.0830	4	26.858	0	343.937	0	59.2	4	19.5	4	-1E+10	1	-1E+10	1	-1E+10	1	-1E+10	1	-1E+10	1	-1E+10	1
4901784	82	C	10/02/2017	10:44	-133.097	43.677	0	349.80	0	5.7710	0	34.0830	4	26.860	0	346.709	0	58.8	4	19.3	4	-1E+10	1	-1E+10	1	-1E+10	1	-1E+10	1	-1E+10	1	-1E+10	1
4901784	82	C	10/02/2017	10:44	-133.097	43.677	0	352.50	0	5.7610	0	34.0830	4	26.862	0	349.383	0	58.3	4	19.2	4	-1E+10	1	-1E+10	1	-1E+10	1	-1E+10	1	-1E+10	1	-1E+10	1
4901784	82	C	10/02/2017	10:44	-133.097	43.677	0	355.20	0	5.7430	0	34.0850	4	26.865	0	352.057	0	57.6	4	19.0	4	-1E+10	1	-1E+10	1	-1E+10	1	-1E+10	1	-1E+10	1	-1E+10	1
4901784	82	C	10/02/2017	10:44	-133.097	43.677	0	357.90	0	5.7110	0	34.0850	4	26.869	0	354.731	0	57.0	4	18.7	4	-1E+10	1	-1E+10	1	-1E+10	1	-1E+10	1	-1E+10	1	-1E+10	1
4901784	82	C	10/02/2017	10:44	-133.097	43.677	0	359.70	0	5.7060	0	34.0870	4	26.872	0	356.513	0	56.6	4	18.6	4	-1E+10	1	-1E+10	1	-1E+10	1	-1E+10	1	-1E+10	1	-1E+10	1
4901784	82	C	10/02/2017	10:44	-133.097	43.677	0	362.40	0	5.6900	0	34.0890	4	26.875	0	359.187	0	55.8	4	18.3	4	-1E+10	1	-1E+10	1	-1E+10	1	-1E+10	1	-1E+10	1	-1E+10	1
4901784	82	C	10/02/2017	10:44	-133.097	43.677	0	365.20	0	5.6660	0	34.0920	4	26.880	0	361.960	0	55.4	4	18.2	4	-1E+10	1	-1E+10	1	-1E+10	1	-1E+10	1	-1E+10	1	-1E+10	1
4901784	82	C	10/02/2017	10:44	-133.097	43.677	0	367.10	0	5.6510	0	34.0910	4	26.882	0	363.841	0	55.2	4	18.1	4	-1E+10	1	-1E+10	1	-1E+10	1	-1E+10	1	-1E+10	1	-1E+10	1
4901784	82	C	10/02/2017	10:44	-133.097	43.677	0	369.90	0	5.6350	0	34.0920	4	26.884	0	366.614	0	54.8	4	18.0	4	-1E+10	1	-1E+10	1	-1E+10	1	-1E+10	1	-1E+10	1	-1E+10	1
4901784	82	C	10/02/2017	10:44	-133.097	43.677	0	373.30	0	5.6110	0	34.0950	4	26.890	0	369.981	0	54.4	4	17.8	4	-1E+10	1	-1E+10	1	-1E+10	1	-1E+10	1	-1E+10	1	-1E+10	1
4901784	82	C	10/02/2017	10:44	-133.097	43.677	0	375.20	0	5.5980	0	34.0930	4	26.890	0	371.862	0	54.3	4	17.8	4	-1E+10	1	-1E+10	1	-1E+10	1	-1E+10	1	-1E+10	1	-1E+10	1
4901784	82	C	10/02/2017	10:44	-133.097	43.677	0	377.60	0	5.5620	0	34.0930	4	26.894	0	374.239	0	54.6	4	17.9	4	-1E+10	1	-1E+10	1	-1E+10	1	-1E+10	1	-1E+10	1	-1E+10	1
4901784	82	C	10/02/2017	10:44	-133.097	43.677	0	379.90	0	5.5150	0	34.0920	4	26.899	0	376.516	0	55.3	4	18.1	4	-1E+10	1	-1E+10	1	-1E+10	1	-1E+10	1	-1E+10	1	-1E+10	1
4901784	82	C	10/02/2017	10:44	-133.097	43.677	0	382.20	0	5.5020	0	34.0910	4	26.900	0	378.794	0	55.9	4	18.3	4	-1E+10	1	-1E+10	1	-1E+10	1	-1E+10	1	-1E+10	1	-1E+10	1
4901784	82	C	10/02/2017	10:44	-133.097	43.677	0	385.30	0	5.4420	0	34.0870	4	26.904	0	381.863	0	57.1	4	18.6	4	-1E+10	1	-1E+10	1	-1E+10	1	-1E+10	1	-1E+10	1	-1E+10	1
4901784	82	C	10/02/2017	10:44	-133.097	43.677	0	387.70	0	5.3410	0	34.0830	4	26.912	0	384.240	0	57.8	4	18.8	4	-1E+10	1	-1E+10	1	-1E+10	1	-1E+10	1	-1E+10	1	-1E+10	1
4901784	82	C	10/02/2017	10:44	-133.097	43.677	0	390.00	0	5.3190	0	34.0810	4	26.913	0	386.517	0	57.7	4	18.8	4	-1E+10	1	-1E+10	1	-1E+10	1	-1E+10	1	-1E+10	1	-1E+10	1
4901784	82	C	10/02/2017	10:44	-133.097	43.677	0	392.40	0	5.3220	0	34.0840	4	26.915	0	388.893	0	57.5	4	18.7	4	-1E+10	1	-1E+10	1	-1E+10	1	-1E+10	1	-1E+10	1	-1E+10	1
4901784	82	C	10/02/2017	10:44	-133.097	43.677	0	394.90	0	5.3160	0	34.0810	4	26.914	0	391.368	0	57.4	4	18.7	4	-1E+10	1	-1E+10	1	-1E+10	1	-1E+10	1	-1E+10	1	-1E+10	1
4901784	82	C	10/02/2017	10:44	-133.097	43.677	0	397.30	0	5.3010	0	34.0830	4	26.917	0	393.745	0	57.5	4	18.7	4	-1E+10	1	-1E+10	1	-1E+10	1	-1E+10	1	-1E+10	1	-1E+10	1
4901784	82	C	10/02/2017	10:44	-133.097	43.677	0	399.80	0	5.2800	0	34.0810	4	26.918	0	396.220	0	58.0	4	18.9	4	-1E+10	1	-1E+10	1	-1E+10	1	-1E+10	1	-1E+10	1	-1E+10	1
4901784	82	C	10/02/2017	10:44	-133.097	43.677	0	402.20	0	5.2590	0	34.0790	4	26.919	0	398.596	0	58.4	4	19.0	4	-1E+10	1	-1E+10	1	-1E+10	1	-1E+10	1	-1E+10	1	-1E+10	1
4901784	82	C	10/02/2017	10:44	-133.097	43.677	0	404.70	0	5.1760	0	34.0760	4	26.926	0	401.071	0	58.9	4	19.1	4	-1E+10	1	-1E+10	1	-1E+10	1	-1E+10	1	-1E+10	1	-1E+10	1
4901784	82	C	10/02/2017	10:44	-133.097	43.677	0	407.20	0	5.1380	0	34.0750	4	26.930	0	403.546	0	58.7	4	19.0	4	-1E+10	1	-1E+10	1	-1E+10	1	-1E+10	1	-1E+10	1	-1E+10	1
4901784	82	C	10/02/2017	10:44	-133.097	43.677	0	409.70	0	5.1320	0	34.0730	4	26.929	0	406.022	0	57.8	4	18.7	4	-1E+10	1	-1E+10	1	-1E+10	1	-1E+10	1	-1E+10	1	-1E+10	1
4901784	82	C	10/02/2017	10:44	-133.097	43.677	0	412.20	0	5.1250	0	34.0780	4	26.934	0	408.497	0	56.6	4	18.3	4	-1E+10	1	-1E+10	1	-1E+10	1	-1E+10	1	-1E+10	1	-1E+10	1
4901784	82	C	10/02/2017	10:44	-133.097	43.677	0	414.80	0	5.1460	0	34.0840	4	26.936	0	411.071	0	55.9	4	18.1	4	-1E+10	1	-1E+10	1	-1E+10	1	-1E+10	1	-1E+10	1	-1E+10	1
4901784	82	C	10/02/2017	10:44	-133.097	43.677	0	417.30	0	5.0890	0	34.0830	4	26.942	0	413.546	0	56.6	4	18.3	4	-1E+10	1	-1E+10	1	-1E+10	1	-1E+10	1	-1E+10	1	-1E+10	1
4901784	82	C	10/02/2017	10:44	-133.097	43.677	0	419.90	0	5.0040	0	34.0760	4	26.946	0	416.120	0	56.4	4	18.2	4	-1E+10	1	-1E+10	1	-1E+10	1	-1E+10	1	-1E+10	1	-1E+10	1
4901784	82	C	10/02/2017	10:44	-133.097	43.677	0	422.50	0	4.9470	0	34.0750	4	26.952	0	418.694	0	55.4	4	17.9	4	-1E+10	1	-1E+10	1	-1E+10	1	-1E+10	1	-1E+10	1	-1E+10	1
4901784	82	C	10/02/2017	10:44	-133.097	43.677	0	425.10	0	4.9580	0	34.0840	4	26.958	0	421.268	0	53.5	4	17.3	4	-1E+10	1	-1E+10	1	-1E+10	1	-1E+10	1	-1E+10	1	-1E+10	1
4901784	82	C	10/02/2017	10:44	-133.097	43.677	0	427.70	0	4.9490	0	34.0840	4	26.959	0	423.842	0	52.0	4	16.8	4	-1E+10	1	-1E+10	1	-1E+10	1	-1E+10	1	-1E+10	1	-1E+10	1
4901784	82	C	10/02/2017	10:44	-133.097	43.677	0	429.50	0	5.0060	0	34.0940	4	26.960	0	425.624	0	50.7	4	16.4	4	-1E+10	1	-1E+10	1	-1E+10	1	-1E+10	1	-1E+10	1	-1E+10	1
4901784	82	C	10/02/2017	10:44	-133.097	43.677	0	432.20	0	5.0080	0	34.0990	4	26.964	0	428.296	0	50.1	4	16.2	4	-1E+10	1	-1E+10	1	-1E+10	1	-1E+10	1	-1E+10	1	-1E+10	1
4901784	82	C	10/02/2017	10:44	-133.097	43.677	0	434.90	0	4.9730	0	34.0980	4	26.967	0	430.969	0	49.3	4	15.9	4	-1E+10	1	-1E+10	1	-1E+10	1	-1E+10	1	-1E+10	1	-1E+10	1
4901784	82	C	10/02/2017	10:44	-133.097	43.677	0	437.50	0	4.9820	0	34.1030	4	26.970	0	433.543	0	47.6	4	15.4	4	-1E+10	1	-1E+10	1	-1E+10	1	-1E+10	1	-1E+10	1	-1E+10	1
4901784	82	C	10/02/2017	10:44	-133.097	43.677	0	440.20	0	5.0030	0	34.1060	4	26.970	0	436.216	0	46.5	4	15.0	4	-1E+10	1	-1E+10	1	-1E+10	1	-1E+10	1	-1E+10	1	-1E+10	1
4901784	82	C	10/02/2017	10:44	-133.097	43.677	0	442.80	0	4.9830	0	34.1140	4	26.979	0	438.789	0	44.9	4	14.5	4	-1E+10	1	-1E+10	1	-1E+10	1	-1E+10	1	-1E+10	1	-1E+10	1
4901784	82	C	10/02/2017	10:44	-133.097	43.677	0	445.50	0	5.0240	0	34.1180	4	26.977	0	441.462	0	43.7	4	14.1	4	-1E+10	1	-1E+10	1	-1E+10	1	-1E+10	1	-1E+10	1	-1E+10	1
4901784	82	C	10/02/2017	10:44	-133.097	43.677	0	447.30	0	5.0240	0	34.1230	4	26.981	0	443.244	0	43.2	4	14.0	4	-1E+10	1	-1E+10	1	-1E+10	1	-1E+10	1	-1E+10	1	-1E+10	1
4901784	82	C	10/02/2017	10:44	-133.097	43.677	0	450.00	0	5.0210	0	34.1230	4	26.982	0	445.917	0	42.5	4	13.8	4	-1E+10	1	-1E+10	1	-1E+10	1	-1E+10	1	-1E+10	1	-1E+10	1
4901784	82	C	10/02/2017	10:44	-133.097	43.677	0	452.60	0	5.0080	0	34.1260	4	26.986	0	448.490	0	41.8	4	13.5	4	-1E+10	1	-1E+10	1	-1E+10	1	-1E+10	1	-1E+10	1	-1E+10	1
4901784	82	C	10/02/2017	10:44	-133.097	43.677	0	454.50	0	5.0020	0	34.1300	4	26.989	0	450.371	0	41.4	4	13.4	4	-1E+10	1	-1E+10	1	-1E+10	1	-1E+10	1	-1E+10	1	-1E+10	1
4901784	82	C	10/02/2017	10:44	-133.097	43.677	0	457.20	0	5.0010	0	34.1290	4	26.989	0	453.043	0	40.8	4	13.2	4	-1E+10	1	-1E+10	1	-1E+10	1	-1E+10	1	-1E+10	1	-1E+10	1
4901784	82	C	10/02/2017	10:44	-133.097	43.677	0	459.90	0	4.9890	0	34.1310	4	26.992	0	455.716	0	39.9	4	12.9	4	-1E+10	1	-1E+10	1	-1E+10	1	-1E+10	1	-1E+10	1	-1E+10	1
4901784	82	C	10/02/2017	10:44	-133.097	43.677	0	462.60	0	4.9780	0	34.1350	4	26.996	0	458.388	0	39.1	4	12.6	4	-1E+10	1	-1E+10	1	-1E+10	1	-1E+10	1	-1E+10	1	-1E+10	1
4901784	82	C	10/02/2017	10:44	-133.097	43.677	0	465.40	0	4.9600	0	34.1390	4	27.001	0	461.160	0	38.4	4	12.4	4	-1E+10	1	-1E+10	1	-1E+10	1	-1E+10	1	-1E+10	1	-1E+10	1
4901784	82	C	10/02/2017	10:44	-133.097	43.677	0	467.30	0	4.9540	0	34.1410	4	27.004	0	463.040	0	38.1	4	12.3	4	-1E+10	1	-1E+10	1	-1E+10	1	-1E+10	1	-1E+10	1	-1E+10	1
4901784	82	C	10/02/2017	10:44	-133.097	43.677	0	470.10	0	4.9440	0	34.1460	4	27.009	0	465.812	0	37.9	4	12.2	4	-1E+10	1	-1E+10	1	-1E+10	1	-1E+10	1	-1E+10	1	-1E+10	1
4901784	82	C	10/02/2017	10:44	-133.097	43.677	0	472.90	0	4.9060	0	34.1450	4	27.012	0	468.583	0	38.3	4	12.4	4	-1E+10	1	-1E+10	1	-1E+10	1	-1E+10	1	-1E+10	1	-1E+10	1
4901784	82	C	10/02/2017	10:44	-133.097	43.677	0	474.80	0	4.8600	0	34.1430	4	27.016	0	470.463	0	38.3	4	12.3	4	-1E+10	1	-1E+10	1	-1E+10	1	-1E+10	1	-1E+10	1	-1E+10	1
4901784	82	C	10/02/2017	10:44	-133.097	43.677	0	477.60	0	4.8140	0	34.1450	4	27.023	0	473.235	0	37.3	4	12.0	4	-1E+10	1	-1E+10	1	-1E+10	1	-1E+10	1	-1E+10	1	-1E+10	1
4901784	82	C	10/02/2017	10:44	-133.097	43.677	0	480.40	0	4.8060	0	34.1520	4	27.029	0	476.006	0	36.3	4	11.7	4	-1E+10	1	-1E+10	1	-1E+10	1	-1E+10	1	-1E+10	1	-1E+10	1
4901784	82	C	10/02/2017	10:44	-133.097	43.677	0	482.30	0	4.8070	0	34.1570	4	27.033	0	477.886	0	35.9	4	11.5	4	-1E+10	1	-1E+10	1	-1E+10	1	-1E+10	1	-1E+10	1	-1E+10	1
4901784	82	C	10/02/2017	10:44	-133.097	43.677	0	485.20	0	4.7990	0	34.1580	4	27.035	0	480.756	0	35.6	4	11.4	4	-1E+10	1	-1E+10	1	-1E+10	1	-1E+10	1	-1E+10	1	-1E+10	1
4901784	82	C	10/02/2017	10:44	-133.097	43.677	0	488.40	0	4.7970	0	34.1580	4	27.035	0	483.923	0	35.4	4	11.4	4	-1E+10	1	-1E+10	1	-1E+10	1	-1E+10	1	-1E+10	1	-1E+10	1
4901784	82	C	10/02/2017	10:44	-133.097	43.677	0	489.80	0	4.7980	0	34.1600	4	27.037	0	485.309	0	35.2	4	11.3	4	-1E+10	1	-1E+10	1	-1E+10	1	-1E+10	1	-1E+10	1	-1E+10	1
4901784	82	C	10/02/2017	10:44	-133.097	43.677	0	492.20	0	4.8010	0	34.1590	4	27.035	0	487.684	0	34.9	4	11.2	4	-1E+10	1	-1E+10	1	-1E+10	1	-1E+10	1	-1E+10	1	-1E+10	1
4901784	82	C	10/02/2017	10:44	-133.097	43.677	0	494.60	0	4.8060	0	34.1620	4	27.037	0	490.059	0	34.5	4	11.1	4	-1E+10	1	-1E+10	1	-1E+10	1	-1E+10	1	-1E+10	1	-1E+10	1
4901784	82	C	10/02/2017	10:44	-133.097	43.677	0	497.10	0	4.7920	0	34.1690	4	27.044	0	492.533	0	34.4	4	11.1	4	-1E+10	1	-1E+10	1	-1E+10	1	-1E+10	1	-1E+10	1	-1E+10	1
4901784	82	C	10/02/2017	10:44	-133.097	43.677	0	499.60	0	4.7650	0	34.1620	4	27.042	0	495.007	0	34.4	4	11.0	4	-1E+10	1	-1E+10	1	-1E+10	1	-1E+10	1	-1E+10	1	-1E+10	1
4901784	82	C	10/02/2017	10:44	-133.097	43.677	0	505.60	0	4.7260	0	34.1670	4	27.050	0	500.945	0	33.3	4	10.7	4	-1E+10	1	-1E+10	1	-1E+10	1	-1E+10	1	-1E+10	1	-1E+10	1
4901784	82	C	10/02/2017	10:44	-133.097	43.677	0	510.60	0	4.6950	0	34.1670	4	27.054	0	505.893	0	32.9	4	10.6	4	-1E+10	1	-1E+10	1	-1E+10	1	-1E+10	1	-1E+10	1	-1E+10	1
4901784	82	C	10/02/2017	10:44	-133.097	43.677	0	515.60	0	4.6700	0	34.1720	4	27.060	0	510.841	0	31.8	4	10.2	4	-1E+10	1	-1E+10	1	-1E+10	1	-1E+10	1	-1E+10	1	-1E+10	1
4901784	82	C	10/02/2017	10:44	-133.097	43.677	0	520.70	0	4.6450	0	34.1760	4	27.066	0	515.887	0	31.0	4	9.9	4	-1E+10	1	-1E+10	1	-1E+10	1	-1E+10	1	-1E+10	1	-1E+10	1
4901784	82	C	10/02/2017	10:44	-133.097	43.677	0	525.10	0	4.6430	0	34.1780	4	27.068	0	520.241	0	30.4	4	9.8	4	-1E+10	1	-1E+10	1	-1E+10	1	-1E+10	1	-1E+10	1	-1E+10	1
4901784	82	C	10/02/2017	10:44	-133.097	43.677	0	529.50	0	4.6320	0	34.1810	4	27.072	0	524.595	0	29.5	4	9.4	4	-1E+10	1	-1E+10	1	-1E+10	1	-1E+10	1	-1E+10	1	-1E+10	1
4901784	82	C	10/02/2017	10:44	-133.097	43.677	0	534.80	0	4.5960	0	34.1880	4	27.081	0	529.839	0	28.0	4	9.0	4	-1E+10	1	-1E+10	1	-1E+10	1	-1E+10	1	-1E+10	1	-1E+10	1
4901784	82	C	10/02/2017	10:44	-133.097	43.677	0	540.00	0	4.6220	0	34.1980	4	27.087	0	534.984	0	26.4	4	8.5	4	-1E+10	1	-1E+10	1	-1E+10	1	-1E+10	1	-1E+10	1	-1E+10	1
4901784	82	C	10/02/2017	10:44	-133.097	43.677	0	545.30	0	4.5980	0	34.2030	4	27.093	0	540.228	0	25.8	4	8.3	4	-1E+10	1	-1E+10	1	-1E+10	1	-1E+10	1	-1E+10	1	-1E+10	1
4901784	82	C	10/02/2017	10:44	-133.097	43.677	0	549.80	0	4.5760	0	34.2020	4	27.095	0	544.680	0	25.8	4	8.3	4	-1E+10	1	-1E+10	1	-1E+10	1	-1E+10	1	-1E+10	1	-1E+10	1
4901784	82	C	10/02/2017	10:44	-133.097	43.677	0	554.30	0	4.5340	0	34.2050	4	27.102	0	549.132	0	25.5	4	8.2	4	-1E+10	1	-1E+10	1	-1E+10	1	-1E+10	1	-1E+10	1	-1E+10	1
4901784	82	C	10/02/2017	10:44	-133.097	43.677	0	559.80	0	4.5230	0	34.2070	4	27.105	0	554.574	0	24.9	4	8.0	4	-1E+10	1	-1E+10	1	-1E+10	1	-1E+10	1	-1E+10	1	-1E+10	1
4901784	82	C	10/02/2017	10:44	-133.097	43.677	0	565.20	0	4.4880	0	34.2100	4	27.111	0	559.916	0	24.4	4	7.8	4	-1E+10	1	-1E+10	1	-1E+10	1	-1E+10	1	-1E+10	1	-1E+10	1
4901784	82	C	10/02/2017	10:44	-133.097	43.677	0	569.80	0	4.4700	0	34.2140	4	27.116	0	564.467	0	23.7	4	7.6	4	-1E+10	1	-1E+10	1	-1E+10	1	-1E+10	1	-1E+10	1	-1E+10	1
4901784	82	C	10/02/2017	10:44	-133.097	43.677	0	574.30	0	4.4600	0	34.2190	4	27.121	0	568.918	0	23.1	4	7.4	4	-1E+10	1	-1E+10	1	-1E+10	1	-1E+10	1	-1E+10	1	-1E+10	1
4901784	82	C	10/02/2017	10:44	-133.097	43.677	0	579.80	0	4.4500	0	34.2240	4	27.126	0	574.359	0	22.5	4	7.2	4	-1E+10	1	-1E+10	1	-1E+10	1	-1E+10	1	-1E+10	1	-1E+10	1
4901784	82	C	10/02/2017	10:44	-133.097	43.677	0	585.20	0	4.4380	0	34.2250	4	27.128	0	579.701	0	22.0	4	7.0	4	-1E+10	1	-1E+10	1	-1E+10	1	-1E+10	1	-1E+10	1	-1E+10	1
4901784	82	C	10/02/2017	10:44	-133.097	43.677	0	589.80	0	4.4170	0	34.2300	4	27.135	0	584.251	0	21.8	4	6.9	4	-1E+10	1	-1E+10	1	-1E+10	1	-1E+10	1	-1E+10	1	-1E+10	1
4901784	82	C	10/02/2017	10:44	-133.097	43.677	0	594.40	0	4.4010	0	34.2320	4	27.138	0	588.802	0	21.4	4	6.8	4	-1E+10	1	-1E+10	1	-1E+10	1	-1E+10	1	-1E+10	1	-1E+10	1
4901784	82	C	10/02/2017	10:44	-133.097	43.677	0	599.90	0	4.3860	0	34.2340	4	27.141	0	594.242	0	20.9	4	6.7	4	-1E+10	1	-1E+10	1	-1E+10	1	-1E+10	1	-1E+10	1	-1E+10	1
4901784	82	C	10/02/2017	10:44	-133.097	43.677	0	605.40	0	4.3420	0	34.2360	4	27.147	0	599.682	0	20.6	4	6.6	4	-1E+10	1	-1E+10	1	-1E+10	1	-1E+10	1	-1E+10	1	-1E+10	1
4901784	82	C	10/02/2017	10:44	-133.097	43.677	0	609.90	0	4.3190	0	34.2380	4	27.152	0	604.133	0	20.5	4	6.5	4	-1E+10	1	-1E+10	1	-1E+10	1	-1E+10	1	-1E+10	1	-1E+10	1
4901784	82	C	10/02/2017	10:44	-133.097	43.677	0	614.50	0	4.2630	0	34.2360	4	27.156	0	608.683	0	20.3	4	6.5	4	-1E+10	1	-1E+10	1	-1E+10	1	-1E+10	1	-1E+10	1	-1E+10	1
4901784	82	C	10/02/2017	10:44	-133.097	43.677	0	620.00	0	4.2540	0	34.2400	4	27.160	0	614.123	0	19.8	4	6.3	4	-1E+10	1	-1E+10	1	-1E+10	1	-1E+10	1	-1E+10	1	-1E+10	1
4901784	82	C	10/02/2017	10:44	-133.097	43.677	0	625.50	0	4.2470	0	34.2430	4	27.163	0	619.563	0	19.7	4	6.3	4	-1E+10	1	-1E+10	1	-1E+10	1	-1E+10	1	-1E+10	1	-1E+10	1
4901784	82	C	10/02/2017	10:44	-133.097	43.677	0	630.10	0	4.2200	0	34.2450	4	27.168	0	624.112	0	19.6	4	6.2	4	-1E+10	1	-1E+10	1	-1E+10	1	-1E+10	1	-1E+10	1	-1E+10	1
4901784	82	C	10/02/2017	10:44	-133.097	43.677	0	634.60	0	4.1980	0	34.2470	4	27.172	0	628.562	0	19.3	4	6.1	4	-1E+10	1	-1E+10	1	-1E+10	1	-1E+10	1	-1E+10	1	-1E+10	1
4901784	82	C	10/02/2017	10:44	-133.097	43.677	0	640.00	0	4.1870	0	34.2480	4	27.174	0	633.903	0	19.0	4	6.0	4	-1E+10	1	-1E+10	1	-1E+10	1	-1E+10	1	-1E+10	1	-1E+10	1
4901784	82	C	10/02/2017	10:44	-133.097	43.677	0	645.40	0	4.1670	0	34.2550	4	27.181	0	639.243	0	18.6	4	5.9	4	-1E+10	1	-1E+10	1	-1E+10	1	-1E+10	1	-1E+10	1	-1E+10	1
4901784	82	C	10/02/2017	10:44	-133.097	43.677	0	649.90	0	4.1510	0	34.2580	4	27.185	0	643.693	0	18.3	4	5.8	4	-1E+10	1	-1E+10	1	-1E+10	1	-1E+10	1	-1E+10	1	-1E+10	1
4901784	82	C	10/02/2017	10:44	-133.097	43.677	0	654.50	0	4.1400	0	34.2590	4	27.187	0	648.242	0	18.1	4	5.7	4	-1E+10	1	-1E+10	1	-1E+10	1	-1E+10	1	-1E+10	1	-1E+10	1
4901784	82	C	10/02/2017	10:44	-133.097	43.677	0	659.90	0	4.1290	0	34.2640	4	27.192	0	653.582	0	17.8	4	5.7	4	-1E+10	1	-1E+10	1	-1E+10	1	-1E+10	1	-1E+10	1	-1E+10	1
4901784	82	C	10/02/2017	10:44	-133.097	43.677	0	665.40	0	4.1220	0	34.2670	4	27.196	0	659.021	0	17.6	4	5.6	4	-1E+10	1	-1E+10	1	-1E+10	1	-1E+10	1	-1E+10	1	-1E+10	1
4901784	82	C	10/02/2017	10:44	-133.097	43.677	0	669.90	0	4.1160	0	34.2690	4	27.198	0	663.470	0	17.4	4	5.5	4	-1E+10	1	-1E+10	1	-1E+10	1	-1E+10	1	-1E+10	1	-1E+10	1
4901784	82	C	10/02/2017	10:44	-133.097	43.677	0	674.40	0	4.1090	0	34.2700	4	27.199	0	667.920	0	17.2	4	5.4	4	-1E+10	1	-1E+10	1	-1E+10	1	-1E+10	1	-1E+10	1	-1E+10	1
4901784	82	C	10/02/2017	10:44	-133.097	43.677	0	679.90	0	4.0970	0	34.2730	4	27.203	0	673.358	0	16.8	4	5.3	4	-1E+10	1	-1E+10	1	-1E+10	1	-1E+10	1	-1E+10	1	-1E+10	1
4901784	82	C	10/02/2017	10:44	-133.097	43.677	0	685.30	0	4.0810	0	34.2790	4	27.210	0	678.698	0	16.5	4	5.2	4	-1E+10	1	-1E+10	1	-1E+10	1	-1E+10	1	-1E+10	1	-1E+10	1
4901784	82	C	10/02/2017	10:44	-133.097	43.677	0	689.90	0	4.0720	0	34.2810	4	27.212	0	683.246	0	16.2	4	5.1	4	-1E+10	1	-1E+10	1	-1E+10	1	-1E+10	1	-1E+10	1	-1E+10	1
4901784	82	C	10/02/2017	10:44	-133.097	43.677	0	694.50	0	4.0630	0	34.2830	4	27.215	0	687.794	0	15.9	4	5.0	4	-1E+10	1	-1E+10	1	-1E+10	1	-1E+10	1	-1E+10	1	-1E+10	1
4901784	82	C	10/02/2017	10:44	-133.097	43.677	0	699.90	0	4.0470	0	34.2890	4	27.221	0	693.133	0	15.5	4	4.9	4	-1E+10	1	-1E+10	1	-1E+10	1	-1E+10	1	-1E+10	1	-1E+10	1
4901784	82	C	10/02/2017	10:44	-133.097	43.677	0	705.30	0	4.0260	0	34.2950	4	27.228	0	698.471	0	15.1	4	4.8	4	-1E+10	1	-1E+10	1	-1E+10	1	-1E+10	1	-1E+10	1	-1E+10	1
4901784	82	C	10/02/2017	10:44	-133.097	43.677	0	709.90	0	4.0170	0	34.2980	4	27.231	0	703.019	0	14.9	4	4.7	4	-1E+10	1	-1E+10	1	-1E+10	1	-1E+10	1	-1E+10	1	-1E+10	1
4901784	82	C	10/02/2017	10:44	-133.097	43.677	0	714.40	0	4.0050	0	34.3010	4	27.235	0	707.468	0	14.6	4	4.6	4	-1E+10	1	-1E+10	1	-1E+10	1	-1E+10	1	-1E+10	1	-1E+10	1
4901784	82	C	10/02/2017	10:44	-133.097	43.677	0	719.80	0	3.9920	0	34.3060	4	27.240	0	712.806	0	14.3	4	4.5	4	-1E+10	1	-1E+10	1	-1E+10	1	-1E+10	1	-1E+10	1	-1E+10	1
4901784	82	C	10/02/2017	10:44	-133.097	43.677	0	725.40	0	3.9770	0	34.3120	4	27.247	0	718.342	0	13.9	4	4.4	4	-1E+10	1	-1E+10	1	-1E+10	1	-1E+10	1	-1E+10	1	-1E+10	1
4901784	82	C	10/02/2017	10:44	-133.097	43.677	0	730.00	0	3.9600	0	34.3170	4	27.252	0	722.889	0	13.8	4	4.4	4	-1E+10	1	-1E+10	1	-1E+10	1	-1E+10	1	-1E+10	1	-1E+10	1
4901784	82	C	10/02/2017	10:44	-133.097	43.677	0	734.60	0	3.9440	0	34.3200	4	27.257	0	727.437	0	13.6	4	4.3	4	-1E+10	1	-1E+10	1	-1E+10	1	-1E+10	1	-1E+10	1	-1E+10	1
4901784	82	C	10/02/2017	10:44	-133.097	43.677	0	740.10	0	3.9310	0	34.3240	4	27.261	0	732.873	0	13.4	4	4.2	4	-1E+10	1	-1E+10	1	-1E+10	1	-1E+10	1	-1E+10	1	-1E+10	1
4901784	82	C	10/02/2017	10:44	-133.097	43.677	0	744.80	0	3.9210	0	34.3270	4	27.265	0	737.519	0	13.3	4	4.2	4	-1E+10	1	-1E+10	1	-1E+10	1	-1E+10	1	-1E+10	1	-1E+10	1
4901784	82	C	10/02/2017	10:44	-133.097	43.677	0	749.40	0	3.9070	0	34.3310	4	27.269	0	742.066	0	13.1	4	4.1	4	-1E+10	1	-1E+10	1	-1E+10	1	-1E+10	1	-1E+10	1	-1E+10	1
4901784	82	C	10/02/2017	10:44	-133.097	43.677	0	754.90	0	3.8930	0	34.3350	4	27.274	0	747.502	0	12.9	4	4.1	4	-1E+10	1	-1E+10	1	-1E+10	1	-1E+10	1	-1E+10	1	-1E+10	1
4901784	82	C	10/02/2017	10:44	-133.097	43.677	0	760.40	0	3.8770	0	34.3390	4	27.279	0	752.939	0	12.7	4	4.0	4	-1E+10	1	-1E+10	1	-1E+10	1	-1E+10	1	-1E+10	1	-1E+10	1
4901784	82	C	10/02/2017	10:44	-133.097	43.677	0	765.70	0	3.8550	0	34.3480	4	27.288	0	758.177	0	12.5	4	3.9	4	-1E+10	1	-1E+10	1	-1E+10	1	-1E+10	1	-1E+10	1	-1E+10	1
4901784	82	C	10/02/2017	10:44	-133.097	43.677	0	770.40	0	3.8450	0	34.3490	4	27.290	0	762.822	0	12.3	4	3.9	4	-1E+10	1	-1E+10	1	-1E+10	1	-1E+10	1	-1E+10	1	-1E+10	1
4901784	82	C	10/02/2017	10:44	-133.097	43.677	0	775.30	0	3.8310	0	34.3530	4	27.294	0	767.665	0	12.2	4	3.9	4	-1E+10	1	-1E+10	1	-1E+10	1	-1E+10	1	-1E+10	1	-1E+10	1
4901784	82	C	10/02/2017	10:44	-133.097	43.677	0	780.10	0	3.8240	0	34.3540	4	27.296	0	772.409	0	12.2	4	3.8	4	-1E+10	1	-1E+10	1	-1E+10	1	-1E+10	1	-1E+10	1	-1E+10	1
4901784	82	C	10/02/2017	10:44	-133.097	43.677	0	784.90	0	3.8140	0	34.3580	4	27.300	0	777.153	0	12.0	4	3.8	4	-1E+10	1	-1E+10	1	-1E+10	1	-1E+10	1	-1E+10	1	-1E+10	1
4901784	82	C	10/02/2017	10:44	-133.097	43.677	0	789.80	0	3.8020	0	34.3620	4	27.305	0	781.995	0	11.8	4	3.7	4	-1E+10	1	-1E+10	1	-1E+10	1	-1E+10	1	-1E+10	1	-1E+10	1
4901784	82	C	10/02/2017	10:44	-133.097	43.677	0	794.70	0	3.7920	0	34.3680	4	27.310	0	786.837	0	11.7	4	3.7	4	-1E+10	1	-1E+10	1	-1E+10	1	-1E+10	1	-1E+10	1	-1E+10	1
4901784	82	C	10/02/2017	10:44	-133.097	43.677	0	799.60	0	3.7900	0	34.3720	4	27.314	0	791.680	0	11.5	4	3.6	4	-1E+10	1	-1E+10	1	-1E+10	1	-1E+10	1	-1E+10	1	-1E+10	1
4901784	82	C	10/02/2017	10:44	-133.097	43.677	0	804.60	0	3.7860	0	34.3790	4	27.320	0	796.620	0	11.3	4	3.6	4	-1E+10	1	-1E+10	1	-1E+10	1	-1E+10	1	-1E+10	1	-1E+10	1
4901784	82	C	10/02/2017	10:44	-133.097	43.677	0	809.50	0	3.7670	0	34.3830	4	27.325	0	801.462	0	11.3	4	3.5	4	-1E+10	1	-1E+10	1	-1E+10	1	-1E+10	1	-1E+10	1	-1E+10	1
4901784	82	C	10/02/2017	10:44	-133.097	43.677	0	814.60	0	3.7600	0	34.3850	4	27.327	0	806.502	0	11.2	4	3.5	4	-1E+10	1	-1E+10	1	-1E+10	1	-1E+10	1	-1E+10	1	-1E+10	1
4901784	82	C	10/02/2017	10:44	-133.097	43.677	0	819.60	0	3.7550	0	34.3880	4	27.330	0	811.443	0	11.2	4	3.5	4	-1E+10	1	-1E+10	1	-1E+10	1	-1E+10	1	-1E+10	1	-1E+10	1
4901784	82	C	10/02/2017	10:44	-133.097	43.677	0	824.80	0	3.7350	0	34.3910	4	27.335	0	816.581	0	11.1	4	3.5	4	-1E+10	1	-1E+10	1	-1E+10	1	-1E+10	1	-1E+10	1	-1E+10	1
4901784	82	C	10/02/2017	10:44	-133.097	43.677	0	829.90	0	3.7120	0	34.3930	4	27.339	0	821.620	0	11.1	4	3.5	4	-1E+10	1	-1E+10	1	-1E+10	1	-1E+10	1	-1E+10	1	-1E+10	1
4901784	82	C	10/02/2017	10:44	-133.097	43.677	0	835.00	0	3.6930	0	34.3950	4	27.342	0	826.659	0	11.1	4	3.5	4	-1E+10	1	-1E+10	1	-1E+10	1	-1E+10	1	-1E+10	1	-1E+10	1
4901784	82	C	10/02/2017	10:44	-133.097	43.677	0	840.20	0	3.6880	0	34.3970	4	27.344	0	831.797	0	11.0	4	3.5	4	-1E+10	1	-1E+10	1	-1E+10	1	-1E+10	1	-1E+10	1	-1E+10	1
4901784	82	C	10/02/2017	10:44	-133.097	43.677	0	845.40	0	3.6790	0	34.4000	4	27.348	0	836.934	0	11.0	4	3.4	4	-1E+10	1	-1E+10	1	-1E+10	1	-1E+10	1	-1E+10	1	-1E+10	1
4901784	82	C	10/02/2017	10:44	-133.097	43.677	0	850.50	0	3.6630	0	34.4050	4	27.353	0	841.973	0	10.9	4	3.4	4	-1E+10	1	-1E+10	1	-1E+10	1	-1E+10	1	-1E+10	1	-1E+10	1
4901784	82	C	10/02/2017	10:44	-133.097	43.677	0	855.60	0	3.6560	0	34.4070	4	27.355	0	847.011	0	11.0	4	3.4	4	-1E+10	1	-1E+10	1	-1E+10	1	-1E+10	1	-1E+10	1	-1E+10	1
4901784	82	C	10/02/2017	10:44	-133.097	43.677	0	860.00	0	3.6480	0	34.4080	4	27.357	0	851.358	0	10.9	4	3.4	4	-1E+10	1	-1E+10	1	-1E+10	1	-1E+10	1	-1E+10	1	-1E+10	1
4901784	82	C	10/02/2017	10:44	-133.097	43.677	0	864.40	0	3.6330	0	34.4120	4	27.362	0	855.705	0	11.0	4	3.4	4	-1E+10	1	-1E+10	1	-1E+10	1	-1E+10	1	-1E+10	1	-1E+10	1
4901784	82	C	10/02/2017	10:44	-133.097	43.677	0	869.80	0	3.6130	0	34.4150	4	27.366	0	861.040	0	11.1	4	3.5	4	-1E+10	1	-1E+10	1	-1E+10	1	-1E+10	1	-1E+10	1	-1E+10	1
4901784	82	C	10/02/2017	10:44	-133.097	43.677	0	875.10	0	3.6030	0	34.4160	4	27.368	0	866.275	0	11.1	4	3.5	4	-1E+10	1	-1E+10	1	-1E+10	1	-1E+10	1	-1E+10	1	-1E+10	1
4901784	82	C	10/02/2017	10:44	-133.097	43.677	0	880.30	0	3.5880	0	34.4200	4	27.373	0	871.412	0	11.2	4	3.5	4	-1E+10	1	-1E+10	1	-1E+10	1	-1E+10	1	-1E+10	1	-1E+10	1
4901784	82	C	10/02/2017	10:44	-133.097	43.677	0	884.40	0	3.5750	0	34.4230	4	27.376	0	875.462	0	11.1	4	3.5	4	-1E+10	1	-1E+10	1	-1E+10	1	-1E+10	1	-1E+10	1	-1E+10	1
4901784	82	C	10/02/2017	10:44	-133.097	43.677	0	889.90	0	3.5570	0	34.4280	4	27.382	0	880.895	0	11.2	4	3.5	4	-1E+10	1	-1E+10	1	-1E+10	1	-1E+10	1	-1E+10	1	-1E+10	1
4901784	82	C	10/02/2017	10:44	-133.097	43.677	0	895.40	0	3.5460	0	34.4290	4	27.384	0	886.328	0	11.2	4	3.5	4	-1E+10	1	-1E+10	1	-1E+10	1	-1E+10	1	-1E+10	1	-1E+10	1
4901784	82	C	10/02/2017	10:44	-133.097	43.677	0	900.20	0	3.5330	0	34.4350	4	27.390	0	891.069	0	11.2	4	3.5	4	-1E+10	1	-1E+10	1	-1E+10	1	-1E+10	1	-1E+10	1	-1E+10	1
4901784	82	C	10/02/2017	10:44	-133.097	43.677	0	905.10	0	3.5290	0	34.4360	4	27.391	0	895.908	0	11.2	4	3.5	4	-1E+10	1	-1E+10	1	-1E+10	1	-1E+10	1	-1E+10	1	-1E+10	1
4901784	82	C	10/02/2017	10:44	-133.097	43.677	0	910.00	0	3.5200	0	34.4360	4	27.392	0	900.748	0	11.2	4	3.5	4	-1E+10	1	-1E+10	1	-1E+10	1	-1E+10	1	-1E+10	1	-1E+10	1
4901784	82	C	10/02/2017	10:44	-133.097	43.677	0	914.90	0	3.5080	0	34.4410	4	27.397	0	905.588	0	11.3	4	3.5	4	-1E+10	1	-1E+10	1	-1E+10	1	-1E+10	1	-1E+10	1	-1E+10	1
4901784	82	C	10/02/2017	10:44	-133.097	43.677	0	919.90	0	3.5000	0	34.4410	4	27.398	0	910.526	0	11.4	4	3.6	4	-1E+10	1	-1E+10	1	-1E+10	1	-1E+10	1	-1E+10	1	-1E+10	1
4901784	82	C	10/02/2017	10:44	-133.097	43.677	0	925.00	0	3.4900	0	34.4450	4	27.402	0	915.563	0	11.4	4	3.6	4	-1E+10	1	-1E+10	1	-1E+10	1	-1E+10	1	-1E+10	1	-1E+10	1
4901784	82	C	10/02/2017	10:44	-133.097	43.677	0	930.10	0	3.4770	0	34.4480	4	27.406	0	920.600	0	11.4	4	3.6	4	-1E+10	1	-1E+10	1	-1E+10	1	-1E+10	1	-1E+10	1	-1E+10	1
4901784	82	C	10/02/2017	10:44	-133.097	43.677	0	935.20	0	3.4650	0	34.4510	4	27.410	0	925.636	0	11.5	4	3.6	4	-1E+10	1	-1E+10	1	-1E+10	1	-1E+10	1	-1E+10	1	-1E+10	1
4901784	82	C	10/02/2017	10:44	-133.097	43.677	0	940.40	0	3.4580	0	34.4520	4	27.411	0	930.772	0	11.5	4	3.6	4	-1E+10	1	-1E+10	1	-1E+10	1	-1E+10	1	-1E+10	1	-1E+10	1
4901784	82	C	10/02/2017	10:44	-133.097	43.677	0	945.60	0	3.4530	0	34.4530	4	27.412	0	935.907	0	11.6	4	3.6	4	-1E+10	1	-1E+10	1	-1E+10	1	-1E+10	1	-1E+10	1	-1E+10	1
4901784	82	C	10/02/2017	10:44	-133.097	43.677	0	950.00	0	3.4410	0	34.4580	4	27.418	0	940.252	0	11.7	4	3.6	4	-1E+10	1	-1E+10	1	-1E+10	1	-1E+10	1	-1E+10	1	-1E+10	1
4901784	82	C	10/02/2017	10:44	-133.097	43.677	0	954.30	0	3.4370	0	34.4590	4	27.419	0	944.498	0	11.7	4	3.7	4	-1E+10	1	-1E+10	1	-1E+10	1	-1E+10	1	-1E+10	1	-1E+10	1
4901784	82	C	10/02/2017	10:44	-133.097	43.677	0	959.50	0	3.4290	0	34.4590	4	27.420	0	949.633	0	11.8	4	3.7	4	-1E+10	1	-1E+10	1	-1E+10	1	-1E+10	1	-1E+10	1	-1E+10	1
4901784	82	C	10/02/2017	10:44	-133.097	43.677	0	964.80	0	3.4180	0	34.4630	4	27.424	0	954.866	0	11.9	4	3.7	4	-1E+10	1	-1E+10	1	-1E+10	1	-1E+10	1	-1E+10	1	-1E+10	1
4901784	82	C	10/02/2017	10:44	-133.097	43.677	0	970.10	0	3.4090	0	34.4660	4	27.427	0	960.099	0	11.9	4	3.7	4	-1E+10	1	-1E+10	1	-1E+10	1	-1E+10	1	-1E+10	1	-1E+10	1
4901784	82	C	10/02/2017	10:44	-133.097	43.677	0	975.50	0	3.3970	0	34.4690	4	27.431	0	965.431	0	12.0	4	3.7	4	-1E+10	1	-1E+10	1	-1E+10	1	-1E+10	1	-1E+10	1	-1E+10	1
4901784	82	C	10/02/2017	10:44	-133.097	43.677	0	980.10	0	3.3890	0	34.4710	4	27.433	0	969.973	0	12.0	4	3.7	4	-1E+10	1	-1E+10	1	-1E+10	1	-1E+10	1	-1E+10	1	-1E+10	1
4901784	82	C	10/02/2017	10:44	-133.097	43.677	0	984.60	0	3.3790	0	34.4730	4	27.436	0	974.416	0	12.0	4	3.7	4	-1E+10	1	-1E+10	1	-1E+10	1	-1E+10	1	-1E+10	1	-1E+10	1
4901784	82	C	10/02/2017	10:44	-133.097	43.677	0	990.00	0	3.3680	0	34.4740	4	27.437	0	979.748	0	12.1	4	3.8	4	-1E+10	1	-1E+10	1	-1E+10	1	-1E+10	1	-1E+10	1	-1E+10	1
4901784	82	C	10/02/2017	10:44	-133.097	43.677	0	995.50	0	3.3620	0	34.4750	4	27.439	0	985.178	0	12.2	4	3.8	4	-1E+10	1	-1E+10	1	-1E+10	1	-1E+10	1	-1E+10	1	-1E+10	1
4901784	82	C	10/02/2017	10:44	-133.097	43.677	0	1000.10	0	3.3530	0	34.4780	4	27.442	0	989.719	0	12.4	4	3.9	4	-1E+10	1	-1E+10	1	-1E+10	1	-1E+10	1	-1E+10	1	-1E+10	1
4901784	82	C	10/02/2017	10:44	-133.097	43.677	0	1004.70	0	3.3450	0	34.4810	4	27.445	0	994.261	0	12.5	4	3.9	4	-1E+10	1	-1E+10	1	-1E+10	1	-1E+10	1	-1E+10	1	-1E+10	1
4901784	82	C	10/02/2017	10:44	-133.097	43.677	0	1010.20	0	3.3340	0	34.4820	4	27.447	0	999.690	0	12.6	4	3.9	4	-1E+10	1	-1E+10	1	-1E+10	1	-1E+10	1	-1E+10	1	-1E+10	1
4901784	82	C	10/02/2017	10:44	-133.097	43.677	0	1015.40	0	3.3260	0	34.4870	4	27.452	0	1004.824	0	12.8	4	4.0	4	-1E+10	1	-1E+10	1	-1E+10	1	-1E+10	1	-1E+10	1	-1E+10	1
4901784	82	C	10/02/2017	10:44	-133.097	43.677	0	1019.50	0	3.3220	0	34.4870	4	27.452	0	1008.871	0	12.9	4	4.0	4	-1E+10	1	-1E+10	1	-1E+10	1	-1E+10	1	-1E+10	1	-1E+10	1
4901784	82	C	10/02/2017	10:44	-133.097	43.677	0	1025.10	0	3.3170	0	34.4900	4	27.455	0	1014.399	0	13.0	4	4.1	4	-1E+10	1	-1E+10	1	-1E+10	1	-1E+10	1	-1E+10	1	-1E+10	1
4901784	82	C	10/02/2017	10:44	-133.097	43.677	0	1030.60	0	3.3120	0	34.4920	4	27.457	0	1019.829	0	13.1	4	4.1	4	-1E+10	1	-1E+10	1	-1E+10	1	-1E+10	1	-1E+10	1	-1E+10	1
4901784	82	C	10/02/2017	10:44	-133.097	43.677	0	1035.40	0	3.3020	0	34.4940	4	27.460	0	1024.567	0	13.3	4	4.1	4	-1E+10	1	-1E+10	1	-1E+10	1	-1E+10	1	-1E+10	1	-1E+10	1
4901784	82	C	10/02/2017	10:44	-133.097	43.677	0	1040.30	0	3.3000	0	34.4960	4	27.462	0	1029.403	0	13.4	4	4.2	4	-1E+10	1	-1E+10	1	-1E+10	1	-1E+10	1	-1E+10	1	-1E+10	1
4901784	82	C	10/02/2017	10:44	-133.097	43.677	0	1045.20	0	3.2950	0	34.4960	4	27.462	0	1034.240	0	13.5	4	4.2	4	-1E+10	1	-1E+10	1	-1E+10	1	-1E+10	1	-1E+10	1	-1E+10	1
4901784	82	C	10/02/2017	10:44	-133.097	43.677	0	1050.10	0	3.2860	0	34.4990	4	27.466	0	1039.076	0	13.6	4	4.2	4	-1E+10	1	-1E+10	1	-1E+10	1	-1E+10	1	-1E+10	1	-1E+10	1
4901784	82	C	10/02/2017	10:44	-133.097	43.677	0	1055.00	0	3.2780	0	34.5010	4	27.468	0	1043.913	0	13.7	4	4.3	4	-1E+10	1	-1E+10	1	-1E+10	1	-1E+10	1	-1E+10	1	-1E+10	1
4901784	82	C	10/02/2017	10:44	-133.097	43.677	0	1060.00	0	3.2680	0	34.5020	4	27.470	0	1048.848	0	13.8	4	4.3	4	-1E+10	1	-1E+10	1	-1E+10	1	-1E+10	1	-1E+10	1	-1E+10	1
4901784	82	C	10/02/2017	10:44	-133.097	43.677	0	1065.00	0	3.2590	0	34.5030	4	27.471	0	1053.783	0	13.9	4	4.3	4	-1E+10	1	-1E+10	1	-1E+10	1	-1E+10	1	-1E+10	1	-1E+10	1
4901784	82	C	10/02/2017	10:44	-133.097	43.677	0	1070.00	0	3.2500	0	34.5050	4	27.474	0	1058.717	0	14.0	4	4.4	4	-1E+10	1	-1E+10	1	-1E+10	1	-1E+10	1	-1E+10	1	-1E+10	1
4901784	82	C	10/02/2017	10:44	-133.097	43.677	0	1075.10	0	3.2420	0	34.5080	4	27.477	0	1063.751	0	14.2	4	4.4	4	-1E+10	1	-1E+10	1	-1E+10	1	-1E+10	1	-1E+10	1	-1E+10	1
4901784	82	C	10/02/2017	10:44	-133.097	43.677	0	1080.10	0	3.2340	0	34.5080	4	27.478	0	1068.685	0	14.3	4	4.4	4	-1E+10	1	-1E+10	1	-1E+10	1	-1E+10	1	-1E+10	1	-1E+10	1
4901784	82	C	10/02/2017	10:44	-133.097	43.677	0	1085.20	0	3.2200	0	34.5110	4	27.482	0	1073.718	0	14.4	4	4.5	4	-1E+10	1	-1E+10	1	-1E+10	1	-1E+10	1	-1E+10	1	-1E+10	1
4901784	82	C	10/02/2017	10:44	-133.097	43.677	0	1090.30	0	3.2130	0	34.5110	4	27.482	0	1078.751	0	14.5	4	4.5	4	-1E+10	1	-1E+10	1	-1E+10	1	-1E+10	1	-1E+10	1	-1E+10	1
4901784	82	C	10/02/2017	10:44	-133.097	43.677	0	1095.50	0	3.2030	0	34.5140	4	27.486	0	1083.883	0	14.7	4	4.6	4	-1E+10	1	-1E+10	1	-1E+10	1	-1E+10	1	-1E+10	1	-1E+10	1
4901784	82	C	10/02/2017	10:44	-133.097	43.677	0	1100.60	0	3.1940	0	34.5140	4	27.486	0	1088.915	0	14.7	4	4.6	4	-1E+10	1	-1E+10	1	-1E+10	1	-1E+10	1	-1E+10	1	-1E+10	1
4901784	82	C	10/02/2017	10:44	-133.097	43.677	0	1104.90	0	3.1810	0	34.5170	4	27.490	0	1093.159	0	14.8	4	4.6	4	-1E+10	1	-1E+10	1	-1E+10	1	-1E+10	1	-1E+10	1	-1E+10	1
4901784	82	C	10/02/2017	10:44	-133.097	43.677	0	1109.20	0	3.1730	0	34.5170	4	27.491	0	1097.402	0	14.9	4	4.6	4	-1E+10	1	-1E+10	1	-1E+10	1	-1E+10	1	-1E+10	1	-1E+10	1
4901784	82	C	10/02/2017	10:44	-133.097	43.677	0	1115.00	0	3.1620	0	34.5180	4	27.493	0	1103.125	0	14.9	4	4.6	4	-1E+10	1	-1E+10	1	-1E+10	1	-1E+10	1	-1E+10	1	-1E+10	1
4901784	82	C	10/02/2017	10:44	-133.097	43.677	0	1120.30	0	3.1500	0	34.5190	4	27.495	0	1108.354	0	14.9	4	4.6	4	-1E+10	1	-1E+10	1	-1E+10	1	-1E+10	1	-1E+10	1	-1E+10	1
4901784	82	C	10/02/2017	10:44	-133.097	43.677	0	1125.60	0	3.1370	0	34.5210	4	27.497	0	1113.584	0	15.0	4	4.7	4	-1E+10	1	-1E+10	1	-1E+10	1	-1E+10	1	-1E+10	1	-1E+10	1
4901784	82	C	10/02/2017	10:44	-133.097	43.677	0	1130.50	0	3.1330	0	34.5220	4	27.499	0	1118.418	0	15.2	4	4.7	4	-1E+10	1	-1E+10	1	-1E+10	1	-1E+10	1	-1E+10	1	-1E+10	1
4901784	82	C	10/02/2017	10:44	-133.097	43.677	0	1135.40	0	3.1240	0	34.5240	4	27.501	0	1123.253	0	15.3	4	4.7	4	-1E+10	1	-1E+10	1	-1E+10	1	-1E+10	1	-1E+10	1	-1E+10	1
4901784	82	C	10/02/2017	10:44	-133.097	43.677	0	1140.40	0	3.1190	0	34.5240	4	27.502	0	1128.186	0	15.4	4	4.8	4	-1E+10	1	-1E+10	1	-1E+10	1	-1E+10	1	-1E+10	1	-1E+10	1
4901784	82	C	10/02/2017	10:44	-133.097	43.677	0	1145.30	0	3.1110	0	34.5250	4	27.503	0	1133.020	0	15.5	4	4.8	4	-1E+10	1	-1E+10	1	-1E+10	1	-1E+10	1	-1E+10	1	-1E+10	1
4901784	82	C	10/02/2017	10:44	-133.097	43.677	0	1150.30	0	3.1040	0	34.5270	4	27.505	0	1137.953	0	15.5	4	4.8	4	-1E+10	1	-1E+10	1	-1E+10	1	-1E+10	1	-1E+10	1	-1E+10	1
4901784	82	C	10/02/2017	10:44	-133.097	43.677	0	1155.30	0	3.0960	0	34.5280	4	27.507	0	1142.886	0	15.6	4	4.8	4	-1E+10	1	-1E+10	1	-1E+10	1	-1E+10	1	-1E+10	1	-1E+10	1
4901784	82	C	10/02/2017	10:44	-133.097	43.677	0	1160.30	0	3.0910	0	34.5290	4	27.508	0	1147.819	0	15.7	4	4.9	4	-1E+10	1	-1E+10	1	-1E+10	1	-1E+10	1	-1E+10	1	-1E+10	1
4901784	82	C	10/02/2017	10:44	-133.097	43.677	0	1165.40	0	3.0850	0	34.5300	4	27.510	0	1152.850	0	15.8	4	4.9	4	-1E+10	1	-1E+10	1	-1E+10	1	-1E+10	1	-1E+10	1	-1E+10	1
4901784	82	C	10/02/2017	10:44	-133.097	43.677	0	1170.50	0	3.0770	0	34.5310	4	27.511	0	1157.881	0	15.9	4	4.9	4	-1E+10	1	-1E+10	1	-1E+10	1	-1E+10	1	-1E+10	1	-1E+10	1
4901784	82	C	10/02/2017	10:44	-133.097	43.677	0	1175.60	0	3.0720	0	34.5320	4	27.512	0	1162.912	0	16.0	4	4.9	4	-1E+10	1	-1E+10	1	-1E+10	1	-1E+10	1	-1E+10	1	-1E+10	1
4901784	82	C	10/02/2017	10:44	-133.097	43.677	0	1180.70	0	3.0650	0	34.5310	4	27.512	0	1167.942	0	16.0	4	5.0	4	-1E+10	1	-1E+10	1	-1E+10	1	-1E+10	1	-1E+10	1	-1E+10	1
4901784	82	C	10/02/2017	10:44	-133.097	43.677	0	1185.10	0	3.0540	0	34.5330	4	27.515	0	1172.283	0	16.1	4	5.0	4	-1E+10	1	-1E+10	1	-1E+10	1	-1E+10	1	-1E+10	1	-1E+10	1
4901784	82	C	10/02/2017	10:44	-133.097	43.677	0	1189.40	0	3.0460	0	34.5340	4	27.517	0	1176.524	0	16.2	4	5.0	4	-1E+10	1	-1E+10	1	-1E+10	1	-1E+10	1	-1E+10	1	-1E+10	1
4901784	82	C	10/02/2017	10:44	-133.097	43.677	0	1194.60	0	3.0350	0	34.5360	4	27.519	0	1181.653	0	16.4	4	5.1	4	-1E+10	1	-1E+10	1	-1E+10	1	-1E+10	1	-1E+10	1	-1E+10	1
4901784	82	C	10/02/2017	10:44	-133.097	43.677	0	1199.80	0	3.0230	0	34.5380	4	27.522	0	1186.782	0	16.5	4	5.1	4	-1E+10	1	-1E+10	1	-1E+10	1	-1E+10	1	-1E+10	1	-1E+10	1
4901784	82	C	10/02/2017	10:44	-133.097	43.677	0	1205.20	0	3.0160	0	34.5380	4	27.523	0	1192.108	0	16.6	4	5.1	4	-1E+10	1	-1E+10	1	-1E+10	1	-1E+10	1	-1E+10	1	-1E+10	1
4901784	82	C	10/02/2017	10:44	-133.097	43.677	0	1210.60	0	3.0080	0	34.5390	4	27.524	0	1197.434	0	16.7	4	5.2	4	-1E+10	1	-1E+10	1	-1E+10	1	-1E+10	1	-1E+10	1	-1E+10	1
4901784	82	C	10/02/2017	10:44	-133.097	43.677	0	1215.10	0	2.9980	0	34.5420	4	27.527	0	1201.872	0	16.8	4	5.2	4	-1E+10	1	-1E+10	1	-1E+10	1	-1E+10	1	-1E+10	1	-1E+10	1
4901784	82	C	10/02/2017	10:44	-133.097	43.677	0	1219.70	0	2.9880	0	34.5410	4	27.528	0	1206.409	0	16.9	4	5.2	4	-1E+10	1	-1E+10	1	-1E+10	1	-1E+10	1	-1E+10	1	-1E+10	1
4901784	82	C	10/02/2017	10:44	-133.097	43.677	0	1225.10	0	2.9790	0	34.5440	4	27.531	0	1211.735	0	17.0	4	5.3	4	-1E+10	1	-1E+10	1	-1E+10	1	-1E+10	1	-1E+10	1	-1E+10	1
4901784	82	C	10/02/2017	10:44	-133.097	43.677	0	1230.60	0	2.9720	0	34.5440	4	27.531	0	1217.159	0	17.2	4	5.3	4	-1E+10	1	-1E+10	1	-1E+10	1	-1E+10	1	-1E+10	1	-1E+10	1
4901784	82	C	10/02/2017	10:44	-133.097	43.677	0	1235.30	0	2.9610	0	34.5450	4	27.533	0	1221.794	0	17.4	4	5.4	4	-1E+10	1	-1E+10	1	-1E+10	1	-1E+10	1	-1E+10	1	-1E+10	1
4901784	82	C	10/02/2017	10:44	-133.097	43.677	0	1239.80	0	2.9500	0	34.5480	4	27.537	0	1226.232	0	17.5	4	5.4	4	-1E+10	1	-1E+10	1	-1E+10	1	-1E+10	1	-1E+10	1	-1E+10	1
4901784	82	C	10/02/2017	10:44	-133.097	43.677	0	1245.10	0	2.9410	0	34.5480	4	27.538	0	1231.458	0	17.6	4	5.4	4	-1E+10	1	-1E+10	1	-1E+10	1	-1E+10	1	-1E+10	1	-1E+10	1
4901784	82	C	10/02/2017	10:44	-133.097	43.677	0	1250.20	0	2.9370	0	34.5500	4	27.540	0	1236.487	0	17.7	4	5.5	4	-1E+10	1	-1E+10	1	-1E+10	1	-1E+10	1	-1E+10	1	-1E+10	1
4901784	82	C	10/02/2017	10:44	-133.097	43.677	0	1255.30	0	2.9300	0	34.5500	4	27.540	0	1241.516	0	17.9	4	5.5	4	-1E+10	1	-1E+10	1	-1E+10	1	-1E+10	1	-1E+10	1	-1E+10	1
4901784	82	C	10/02/2017	10:44	-133.097	43.677	0	1260.40	0	2.9250	0	34.5520	4	27.542	0	1246.545	0	18.0	4	5.5	4	-1E+10	1	-1E+10	1	-1E+10	1	-1E+10	1	-1E+10	1	-1E+10	1
4901784	82	C	10/02/2017	10:44	-133.097	43.677	0	1265.60	0	2.9210	0	34.5520	4	27.543	0	1251.673	0	18.1	4	5.6	4	-1E+10	1	-1E+10	1	-1E+10	1	-1E+10	1	-1E+10	1	-1E+10	1
4901784	82	C	10/02/2017	10:44	-133.097	43.677	0	1270.70	0	2.9100	0	34.5530	4	27.544	0	1256.701	0	18.3	4	5.6	4	-1E+10	1	-1E+10	1	-1E+10	1	-1E+10	1	-1E+10	1	-1E+10	1
4901784	82	C	10/02/2017	10:44	-133.097	43.677	0	1275.00	0	2.9030	0	34.5540	4	27.546	0	1260.941	0	18.4	4	5.7	4	-1E+10	1	-1E+10	1	-1E+10	1	-1E+10	1	-1E+10	1	-1E+10	1
4901784	82	C	10/02/2017	10:44	-133.097	43.677	0	1279.30	0	2.9000	0	34.5550	4	27.547	0	1265.181	0	18.5	4	5.7	4	-1E+10	1	-1E+10	1	-1E+10	1	-1E+10	1	-1E+10	1	-1E+10	1
4901784	82	C	10/02/2017	10:44	-133.097	43.677	0	1284.60	0	2.8940	0	34.5560	4	27.548	0	1270.406	0	18.7	4	5.8	4	-1E+10	1	-1E+10	1	-1E+10	1	-1E+10	1	-1E+10	1	-1E+10	1
4901784	82	C	10/02/2017	10:44	-133.097	43.677	0	1289.80	0	2.8870	0	34.5580	4	27.551	0	1275.533	0	18.9	4	5.8	4	-1E+10	1	-1E+10	1	-1E+10	1	-1E+10	1	-1E+10	1	-1E+10	1
4901784	82	C	10/02/2017	10:44	-133.097	43.677	0	1294.90	0	2.8800	0	34.5580	4	27.551	0	1280.561	0	19.1	4	5.9	4	-1E+10	1	-1E+10	1	-1E+10	1	-1E+10	1	-1E+10	1	-1E+10	1
4901784	82	C	10/02/2017	10:44	-133.097	43.677	0	1300.20	0	2.8630	0	34.5610	4	27.555	0	1285.786	0	19.4	4	6.0	4	-1E+10	1	-1E+10	1	-1E+10	1	-1E+10	1	-1E+10	1	-1E+10	1
4901784	82	C	10/02/2017	10:44	-133.097	43.677	0	1305.40	0	2.8550	0	34.5620	4	27.557	0	1290.913	0	19.6	4	6.0	4	-1E+10	1	-1E+10	1	-1E+10	1	-1E+10	1	-1E+10	1	-1E+10	1
4901784	82	C	10/02/2017	10:44	-133.097	43.677	0	1310.60	0	2.8480	0	34.5640	4	27.559	0	1296.039	0	19.8	4	6.1	4	-1E+10	1	-1E+10	1	-1E+10	1	-1E+10	1	-1E+10	1	-1E+10	1
4901784	82	C	10/02/2017	10:44	-133.097	43.677	0	1315.00	0	2.8400	0	34.5630	4	27.559	0	1300.377	0	19.9	4	6.1	4	-1E+10	1	-1E+10	1	-1E+10	1	-1E+10	1	-1E+10	1	-1E+10	1
4901784	82	C	10/02/2017	10:44	-133.097	43.677	0	1319.40	0	2.8330	0	34.5660	4	27.562	0	1304.714	0	20.1	4	6.2	4	-1E+10	1	-1E+10	1	-1E+10	1	-1E+10	1	-1E+10	1	-1E+10	1
4901784	82	C	10/02/2017	10:44	-133.097	43.677	0	1324.60	0	2.8240	0	34.5650	4	27.562	0	1309.840	0	20.3	4	6.3	4	-1E+10	1	-1E+10	1	-1E+10	1	-1E+10	1	-1E+10	1	-1E+10	1
4901784	82	C	10/02/2017	10:44	-133.097	43.677	0	1329.80	0	2.8150	0	34.5680	4	27.565	0	1314.966	0	20.5	4	6.3	4	-1E+10	1	-1E+10	1	-1E+10	1	-1E+10	1	-1E+10	1	-1E+10	1
4901784	82	C	10/02/2017	10:44	-133.097	43.677	0	1334.90	0	2.8070	0	34.5680	4	27.566	0	1319.993	0	20.8	4	6.4	4	-1E+10	1	-1E+10	1	-1E+10	1	-1E+10	1	-1E+10	1	-1E+10	1
4901784	82	C	10/02/2017	10:44	-133.097	43.677	0	1340.20	0	2.8000	0	34.5700	4	27.568	0	1325.217	0	21.0	4	6.5	4	-1E+10	1	-1E+10	1	-1E+10	1	-1E+10	1	-1E+10	1	-1E+10	1
4901784	82	C	10/02/2017	10:44	-133.097	43.677	0	1345.50	0	2.7850	0	34.5700	4	27.570	0	1330.441	0	21.2	4	6.5	4	-1E+10	1	-1E+10	1	-1E+10	1	-1E+10	1	-1E+10	1	-1E+10	1
4901784	82	C	10/02/2017	10:44	-133.097	43.677	0	1350.70	0	2.7700	0	34.5720	4	27.572	0	1335.566	0	21.2	4	6.5	4	-1E+10	1	-1E+10	1	-1E+10	1	-1E+10	1	-1E+10	1	-1E+10	1
4901784	82	C	10/02/2017	10:44	-133.097	43.677	0	1355.20	0	2.7630	0	34.5740	4	27.575	0	1340.002	0	21.5	4	6.6	4	-1E+10	1	-1E+10	1	-1E+10	1	-1E+10	1	-1E+10	1	-1E+10	1
4901784	82	C	10/02/2017	10:44	-133.097	43.677	0	1359.60	0	2.7560	0	34.5740	4	27.575	0	1344.338	0	21.7	4	6.7	4	-1E+10	1	-1E+10	1	-1E+10	1	-1E+10	1	-1E+10	1	-1E+10	1
4901784	82	C	10/02/2017	10:44	-133.097	43.677	0	1364.90	0	2.7540	0	34.5750	4	27.576	0	1349.562	0	22.0	4	6.8	4	-1E+10	1	-1E+10	1	-1E+10	1	-1E+10	1	-1E+10	1	-1E+10	1
4901784	82	C	10/02/2017	10:44	-133.097	43.677	0	1370.30	0	2.7470	0	34.5770	4	27.579	0	1354.884	0	22.3	4	6.8	4	-1E+10	1	-1E+10	1	-1E+10	1	-1E+10	1	-1E+10	1	-1E+10	1
4901784	82	C	10/02/2017	10:44	-133.097	43.677	0	1375.60	0	2.7410	0	34.5790	4	27.581	0	1360.107	0	22.4	4	6.9	4	-1E+10	1	-1E+10	1	-1E+10	1	-1E+10	1	-1E+10	1	-1E+10	1
4901784	82	C	10/02/2017	10:44	-133.097	43.677	0	1380.10	0	2.7380	0	34.5780	4	27.580	0	1364.542	0	22.5	4	6.9	4	-1E+10	1	-1E+10	1	-1E+10	1	-1E+10	1	-1E+10	1	-1E+10	1
4901784	82	C	10/02/2017	10:44	-133.097	43.677	0	1384.50	0	2.7300	0	34.5800	4	27.583	0	1368.878	0	22.7	4	7.0	4	-1E+10	1	-1E+10	1	-1E+10	1	-1E+10	1	-1E+10	1	-1E+10	1
4901784	82	C	10/02/2017	10:44	-133.097	43.677	0	1389.80	0	2.7240	0	34.5800	4	27.583	0	1374.101	0	23.0	4	7.0	4	-1E+10	1	-1E+10	1	-1E+10	1	-1E+10	1	-1E+10	1	-1E+10	1
4901784	82	C	10/02/2017	10:44	-133.097	43.677	0	1395.20	0	2.7130	0	34.5810	4	27.585	0	1379.422	0	23.2	4	7.1	4	-1E+10	1	-1E+10	1	-1E+10	1	-1E+10	1	-1E+10	1	-1E+10	1
4901784	82	C	10/02/2017	10:44	-133.097	43.677	0	1400.60	0	2.7010	0	34.5820	4	27.587	0	1384.744	0	23.5	4	7.2	4	-1E+10	1	-1E+10	1	-1E+10	1	-1E+10	1	-1E+10	1	-1E+10	1
4901784	82	C	10/02/2017	10:44	-133.097	43.677	0	1405.10	0	2.6940	0	34.5820	4	27.587	0	1389.178	0	23.6	4	7.3	4	-1E+10	1	-1E+10	1	-1E+10	1	-1E+10	1	-1E+10	1	-1E+10	1
4901784	82	C	10/02/2017	10:44	-133.097	43.677	0	1409.60	0	2.6860	0	34.5850	4	27.590	0	1393.612	0	23.8	4	7.3	4	-1E+10	1	-1E+10	1	-1E+10	1	-1E+10	1	-1E+10	1	-1E+10	1
4901784	82	C	10/02/2017	10:44	-133.097	43.677	0	1415.10	0	2.6790	0	34.5850	4	27.591	0	1399.031	0	23.9	4	7.3	4	-1E+10	1	-1E+10	1	-1E+10	1	-1E+10	1	-1E+10	1	-1E+10	1
4901784	82	C	10/02/2017	10:44	-133.097	43.677	0	1420.50	0	2.6690	0	34.5860	4	27.593	0	1404.352	0	24.1	4	7.4	4	-1E+10	1	-1E+10	1	-1E+10	1	-1E+10	1	-1E+10	1	-1E+10	1
4901784	82	C	10/02/2017	10:44	-133.097	43.677	0	1425.10	0	2.6620	0	34.5880	4	27.595	0	1408.884	0	24.3	4	7.4	4	-1E+10	1	-1E+10	1	-1E+10	1	-1E+10	1	-1E+10	1	-1E+10	1
4901784	82	C	10/02/2017	10:44	-133.097	43.677	0	1429.70	0	2.6550	0	34.5860	4	27.594	0	1413.417	0	24.5	4	7.5	4	-1E+10	1	-1E+10	1	-1E+10	1	-1E+10	1	-1E+10	1	-1E+10	1
4901784	82	C	10/02/2017	10:44	-133.097	43.677	0	1435.10	0	2.6460	0	34.5880	4	27.596	0	1418.737	0	24.7	4	7.6	4	-1E+10	1	-1E+10	1	-1E+10	1	-1E+10	1	-1E+10	1	-1E+10	1
4901784	82	C	10/02/2017	10:44	-133.097	43.677	0	1439.80	0	2.6350	0	34.5890	4	27.598	0	1423.368	0	24.9	4	7.6	4	-1E+10	1	-1E+10	1	-1E+10	1	-1E+10	1	-1E+10	1	-1E+10	1
4901784	82	C	10/02/2017	10:44	-133.097	43.677	0	1444.40	0	2.6230	0	34.5910	4	27.601	0	1427.900	0	25.2	4	7.7	4	-1E+10	1	-1E+10	1	-1E+10	1	-1E+10	1	-1E+10	1	-1E+10	1
4901784	82	C	10/02/2017	10:44	-133.097	43.677	0	1449.80	0	2.6130	0	34.5910	4	27.602	0	1433.220	0	25.5	4	7.8	4	-1E+10	1	-1E+10	1	-1E+10	1	-1E+10	1	-1E+10	1	-1E+10	1
4901784	82	C	10/02/2017	10:44	-133.097	43.677	0	1455.30	0	2.6050	0	34.5910	4	27.602	0	1438.638	0	25.7	4	7.9	4	-1E+10	1	-1E+10	1	-1E+10	1	-1E+10	1	-1E+10	1	-1E+10	1
4901784	82	C	10/02/2017	10:44	-133.097	43.677	0	1459.90	0	2.5960	0	34.5930	4	27.605	0	1443.170	0	25.8	4	7.9	4	-1E+10	1	-1E+10	1	-1E+10	1	-1E+10	1	-1E+10	1	-1E+10	1
4901784	82	C	10/02/2017	10:44	-133.097	43.677	0	1464.50	0	2.5840	0	34.5930	4	27.606	0	1447.701	0	26.0	4	8.0	4	-1E+10	1	-1E+10	1	-1E+10	1	-1E+10	1	-1E+10	1	-1E+10	1
4901784	82	C	10/02/2017	10:44	-133.097	43.677	0	1470.00	0	2.5770	0	34.5950	4	27.608	0	1453.119	0	26.3	4	8.0	4	-1E+10	1	-1E+10	1	-1E+10	1	-1E+10	1	-1E+10	1	-1E+10	1
4901784	82	C	10/02/2017	10:44	-133.097	43.677	0	1475.50	0	2.5620	0	34.5950	4	27.609	0	1458.537	0	26.6	4	8.1	4	-1E+10	1	-1E+10	1	-1E+10	1	-1E+10	1	-1E+10	1	-1E+10	1
4901784	82	C	10/02/2017	10:44	-133.097	43.677	0	1480.00	0	2.5570	0	34.5960	4	27.611	0	1462.970	0	26.8	4	8.2	4	-1E+10	1	-1E+10	1	-1E+10	1	-1E+10	1	-1E+10	1	-1E+10	1
4901784	82	C	10/02/2017	10:44	-133.097	43.677	0	1484.90	0	2.5470	0	34.5960	4	27.612	0	1467.796	0	27.1	4	8.3	4	-1E+10	1	-1E+10	1	-1E+10	1	-1E+10	1	-1E+10	1	-1E+10	1
4901784	82	C	10/02/2017	10:44	-133.097	43.677	0	1490.10	0	2.5350	0	34.5980	4	27.614	0	1472.918	0	27.4	4	8.4	4	-1E+10	1	-1E+10	1	-1E+10	1	-1E+10	1	-1E+10	1	-1E+10	1
4901784	82	C	10/02/2017	10:44	-133.097	43.677	0	1494.90	0	2.5240	0	34.5990	4	27.616	0	1477.646	0	27.7	4	8.5	4	-1E+10	1	-1E+10	1	-1E+10	1	-1E+10	1	-1E+10	1	-1E+10	1
4901784	82	C	10/02/2017	10:44	-133.097	43.677	0	1499.80	0	2.5170	0	34.6010	4	27.618	0	1482.473	0	28.0	4	8.5	4	-1E+10	1	-1E+10	1	-1E+10	1	-1E+10	1	-1E+10	1	-1E+10	1
4901784	82	C	10/02/2017	10:44	-133.097	43.677	0	1504.70	0	2.5070	0	34.6000	4	27.618	0	1487.299	0	28.3	4	8.6	4	-1E+10	1	-1E+10	1	-1E+10	1	-1E+10	1	-1E+10	1	-1E+10	1
4901784	82	C	10/02/2017	10:44	-133.097	43.677	0	1509.60	0	2.4950	0	34.6010	4	27.620	0	1492.125	0	28.7	4	8.8	4	-1E+10	1	-1E+10	1	-1E+10	1	-1E+10	1	-1E+10	1	-1E+10	1
4901784	82	C	10/02/2017	10:44	-133.097	43.677	0	1514.50	0	2.4920	0	34.6040	4	27.623	0	1496.951	0	29.0	4	8.9	4	-1E+10	1	-1E+10	1	-1E+10	1	-1E+10	1	-1E+10	1	-1E+10	1
4901784	82	C	10/02/2017	10:44	-133.097	43.677	0	1519.40	0	2.4800	0	34.6050	4	27.625	0	1501.776	0	29.3	4	8.9	4	-1E+10	1	-1E+10	1	-1E+10	1	-1E+10	1	-1E+10	1	-1E+10	1
4901784	82	C	10/02/2017	10:44	-133.097	43.677	0	1524.50	0	2.4700	0	34.6050	4	27.625	0	1506.799	0	29.6	4	9.0	4	-1E+10	1	-1E+10	1	-1E+10	1	-1E+10	1	-1E+10	1	-1E+10	1
4901784	82	C	10/02/2017	10:44	-133.097	43.677	0	1529.40	0	2.4560	0	34.6040	4	27.626	0	1511.625	0	29.8	4	9.1	4	-1E+10	1	-1E+10	1	-1E+10	1	-1E+10	1	-1E+10	1	-1E+10	1
4901784	82	C	10/02/2017	10:44	-133.097	43.677	0	1534.50	0	2.4530	0	34.6070	4	27.629	0	1516.647	0	30.1	4	9.2	4	-1E+10	1	-1E+10	1	-1E+10	1	-1E+10	1	-1E+10	1	-1E+10	1
4901784	82	C	10/02/2017	10:44	-133.097	43.677	0	1539.50	0	2.4380	0	34.6080	4	27.631	0	1521.571	0	30.6	4	9.3	4	-1E+10	1	-1E+10	1	-1E+10	1	-1E+10	1	-1E+10	1	-1E+10	1
4901784	82	C	10/02/2017	10:44	-133.097	43.677	0	1544.50	0	2.4250	0	34.6110	4	27.634	0	1526.495	0	30.9	4	9.4	4	-1E+10	1	-1E+10	1	-1E+10	1	-1E+10	1	-1E+10	1	-1E+10	1
4901784	82	C	10/02/2017	10:44	-133.097	43.677	0	1549.50	0	2.4160	0	34.6120	4	27.636	0	1531.418	0	31.3	4	9.6	4	-1E+10	1	-1E+10	1	-1E+10	1	-1E+10	1	-1E+10	1	-1E+10	1
4901784	82	C	10/02/2017	10:44	-133.097	43.677	0	1554.60	0	2.4020	0	34.6130	4	27.638	0	1536.440	0	31.7	4	9.7	4	-1E+10	1	-1E+10	1	-1E+10	1	-1E+10	1	-1E+10	1	-1E+10	1
4901784	82	C	10/02/2017	10:44	-133.097	43.677	0	1559.80	0	2.3920	0	34.6140	4	27.639	0	1541.561	0	32.0	4	9.8	4	-1E+10	1	-1E+10	1	-1E+10	1	-1E+10	1	-1E+10	1	-1E+10	1
4901784	82	C	10/02/2017	10:44	-133.097	43.677	0	1564.90	0	2.3880	0	34.6130	4	27.639	0	1546.582	0	32.2	4	9.8	4	-1E+10	1	-1E+10	1	-1E+10	1	-1E+10	1	-1E+10	1	-1E+10	1
4901784	82	C	10/02/2017	10:44	-133.097	43.677	0	1570.10	0	2.3830	0	34.6130	4	27.639	0	1551.702	0	32.6	4	9.9	4	-1E+10	1	-1E+10	1	-1E+10	1	-1E+10	1	-1E+10	1	-1E+10	1
4901784	82	C	10/02/2017	10:44	-133.097	43.677	0	1575.30	0	2.3730	0	34.6180	4	27.644	0	1556.823	0	33.1	4	10.1	4	-1E+10	1	-1E+10	1	-1E+10	1	-1E+10	1	-1E+10	1	-1E+10	1
4901784	82	C	10/02/2017	10:44	-133.097	43.677	0	1580.50	0	2.3670	0	34.6180	4	27.645	0	1561.942	0	33.4	4	10.2	4	-1E+10	1	-1E+10	1	-1E+10	1	-1E+10	1	-1E+10	1	-1E+10	1
4901784	82	C	10/02/2017	10:44	-133.097	43.677	0	1585.70	0	2.3600	0	34.6210	4	27.648	0	1567.062	0	33.7	4	10.2	4	-1E+10	1	-1E+10	1	-1E+10	1	-1E+10	1	-1E+10	1	-1E+10	1
4901784	82	C	10/02/2017	10:44	-133.097	43.677	0	1590.00	0	2.3550	0	34.6190	4	27.647	0	1571.295	0	34.0	4	10.3	4	-1E+10	1	-1E+10	1	-1E+10	1	-1E+10	1	-1E+10	1	-1E+10	1
4901784	82	C	10/02/2017	10:44	-133.097	43.677	0	1594.40	0	2.3470	0	34.6180	4	27.646	0	1575.627	0	34.2	4	10.4	4	-1E+10	1	-1E+10	1	-1E+10	1	-1E+10	1	-1E+10	1	-1E+10	1
4901784	82	C	10/02/2017	10:44	-133.097	43.677	0	1599.70	0	2.3400	0	34.6190	4	27.648	0	1580.845	0	34.5	4	10.5	4	-1E+10	1	-1E+10	1	-1E+10	1	-1E+10	1	-1E+10	1	-1E+10	1
4901784	82	C	10/02/2017	10:44	-133.097	43.677	0	1605.00	0	2.3330	0	34.6210	4	27.650	0	1586.063	0	34.9	4	10.6	4	-1E+10	1	-1E+10	1	-1E+10	1	-1E+10	1	-1E+10	1	-1E+10	1
4901784	82	C	10/02/2017	10:44	-133.097	43.677	0	1610.40	0	2.3230	0	34.6250	4	27.654	0	1591.379	0	35.3	4	10.7	4	-1E+10	1	-1E+10	1	-1E+10	1	-1E+10	1	-1E+10	1	-1E+10	1
4901784	82	C	10/02/2017	10:44	-133.097	43.677	0	1614.80	0	2.3130	0	34.6250	4	27.655	0	1595.710	0	35.7	4	10.8	4	-1E+10	1	-1E+10	1	-1E+10	1	-1E+10	1	-1E+10	1	-1E+10	1
4901784	82	C	10/02/2017	10:44	-133.097	43.677	0	1619.20	0	2.3040	0	34.6250	4	27.656	0	1600.042	0	36.0	4	10.9	4	-1E+10	1	-1E+10	1	-1E+10	1	-1E+10	1	-1E+10	1	-1E+10	1
4901784	82	C	10/02/2017	10:44	-133.097	43.677	0	1624.50	0	2.2960	0	34.6280	4	27.659	0	1605.259	0	36.4	4	11.1	4	-1E+10	1	-1E+10	1	-1E+10	1	-1E+10	1	-1E+10	1	-1E+10	1
4901784	82	C	10/02/2017	10:44	-133.097	43.677	0	1630.00	0	2.2840	0	34.6280	4	27.660	0	1610.673	0	36.9	4	11.2	4	-1E+10	1	-1E+10	1	-1E+10	1	-1E+10	1	-1E+10	1	-1E+10	1
4901784	82	C	10/02/2017	10:44	-133.097	43.677	0	1635.60	0	2.2710	0	34.6280	4	27.661	0	1616.185	0	37.3	4	11.3	4	-1E+10	1	-1E+10	1	-1E+10	1	-1E+10	1	-1E+10	1	-1E+10	1
4901784	82	C	10/02/2017	10:44	-133.097	43.677	0	1640.50	0	2.2640	0	34.6290	4	27.662	0	1621.008	0	37.7	4	11.4	4	-1E+10	1	-1E+10	1	-1E+10	1	-1E+10	1	-1E+10	1	-1E+10	1
4901784	82	C	10/02/2017	10:44	-133.097	43.677	0	1645.40	0	2.2540	0	34.6300	4	27.664	0	1625.831	0	38.1	4	11.6	4	-1E+10	1	-1E+10	1	-1E+10	1	-1E+10	1	-1E+10	1	-1E+10	1
4901784	82	C	10/02/2017	10:44	-133.097	43.677	0	1650.40	0	2.2490	0	34.6310	4	27.665	0	1630.753	0	38.5	4	11.7	4	-1E+10	1	-1E+10	1	-1E+10	1	-1E+10	1	-1E+10	1	-1E+10	1
4901784	82	C	10/02/2017	10:44	-133.097	43.677	0	1655.40	0	2.2390	0	34.6320	4	27.667	0	1635.674	0	38.9	4	11.8	4	-1E+10	1	-1E+10	1	-1E+10	1	-1E+10	1	-1E+10	1	-1E+10	1
4901784	82	C	10/02/2017	10:44	-133.097	43.677	0	1660.40	0	2.2330	0	34.6330	4	27.668	0	1640.595	0	39.3	4	11.9	4	-1E+10	1	-1E+10	1	-1E+10	1	-1E+10	1	-1E+10	1	-1E+10	1
4901784	82	C	10/02/2017	10:44	-133.097	43.677	0	1665.40	0	2.2280	0	34.6340	4	27.669	0	1645.516	0	39.7	4	12.0	4	-1E+10	1	-1E+10	1	-1E+10	1	-1E+10	1	-1E+10	1	-1E+10	1
4901784	82	C	10/02/2017	10:44	-133.097	43.677	0	1670.50	0	2.2190	0	34.6350	4	27.671	0	1650.535	0	40.1	4	12.1	4	-1E+10	1	-1E+10	1	-1E+10	1	-1E+10	1	-1E+10	1	-1E+10	1
4901784	82	C	10/02/2017	10:44	-133.097	43.677	0	1675.50	0	2.2120	0	34.6360	4	27.672	0	1655.456	0	40.4	4	12.3	4	-1E+10	1	-1E+10	1	-1E+10	1	-1E+10	1	-1E+10	1	-1E+10	1
4901784	82	C	10/02/2017	10:44	-133.097	43.677	0	1680.60	0	2.2060	0	34.6370	4	27.673	0	1660.475	0	40.7	4	12.3	4	-1E+10	1	-1E+10	1	-1E+10	1	-1E+10	1	-1E+10	1	-1E+10	1
4901784	82	C	10/02/2017	10:44	-133.097	43.677	0	1685.80	0	2.2020	0	34.6370	4	27.674	0	1665.592	0	41.0	4	12.4	4	-1E+10	1	-1E+10	1	-1E+10	1	-1E+10	1	-1E+10	1	-1E+10	1
4901784	82	C	10/02/2017	10:44	-133.097	43.677	0	1690.10	0	2.2000	0	34.6380	4	27.675	0	1669.824	0	41.3	4	12.5	4	-1E+10	1	-1E+10	1	-1E+10	1	-1E+10	1	-1E+10	1	-1E+10	1
4901784	82	C	10/02/2017	10:44	-133.097	43.677	0	1694.40	0	2.1950	0	34.6380	4	27.675	0	1674.055	0	41.5	4	12.6	4	-1E+10	1	-1E+10	1	-1E+10	1	-1E+10	1	-1E+10	1	-1E+10	1
4901784	82	C	10/02/2017	10:44	-133.097	43.677	0	1699.70	0	2.1870	0	34.6390	4	27.677	0	1679.270	0	41.8	4	12.7	4	-1E+10	1	-1E+10	1	-1E+10	1	-1E+10	1	-1E+10	1	-1E+10	1
4901784	82	C	10/02/2017	10:44	-133.097	43.677	0	1704.90	0	2.1800	0	34.6400	4	27.678	0	1684.387	0	42.2	4	12.8	4	-1E+10	1	-1E+10	1	-1E+10	1	-1E+10	1	-1E+10	1	-1E+10	1
4901784	82	C	10/02/2017	10:44	-133.097	43.677	0	1710.20	0	2.1740	0	34.6400	4	27.679	0	1689.602	0	42.7	4	12.9	4	-1E+10	1	-1E+10	1	-1E+10	1	-1E+10	1	-1E+10	1	-1E+10	1
4901784	82	C	10/02/2017	10:44	-133.097	43.677	0	1715.50	0	2.1690	0	34.6420	4	27.681	0	1694.817	0	43.2	4	13.1	4	-1E+10	1	-1E+10	1	-1E+10	1	-1E+10	1	-1E+10	1	-1E+10	1
4901784	82	C	10/02/2017	10:44	-133.097	43.677	0	1719.90	0	2.1670	0	34.6440	4	27.682	0	1699.147	0	44.0	4	13.3	4	-1E+10	1	-1E+10	1	-1E+10	1	-1E+10	1	-1E+10	1	-1E+10	1
4901784	82	C	10/02/2017	10:44	-133.097	43.677	0	1724.40	0	2.1700	0	34.6460	4	27.684	0	1703.574	0	44.4	4	13.4	4	-1E+10	1	-1E+10	1	-1E+10	1	-1E+10	1	-1E+10	1	-1E+10	1
4901784	82	C	10/02/2017	10:44	-133.097	43.677	0	1729.80	0	2.1620	0	34.6470	4	27.685	0	1708.888	0	44.6	4	13.5	4	-1E+10	1	-1E+10	1	-1E+10	1	-1E+10	1	-1E+10	1	-1E+10	1
4901784	82	C	10/02/2017	10:44	-133.097	43.677	0	1735.20	0	2.1570	0	34.6480	4	27.687	0	1714.200	0	44.9	4	13.6	4	-1E+10	1	-1E+10	1	-1E+10	1	-1E+10	1	-1E+10	1	-1E+10	1
4901784	82	C	10/02/2017	10:44	-133.097	43.677	0	1739.80	0	2.1530	0	34.6480	4	27.687	0	1718.726	0	45.1	4	13.7	4	-1E+10	1	-1E+10	1	-1E+10	1	-1E+10	1	-1E+10	1	-1E+10	1
4901784	82	C	10/02/2017	10:44	-133.097	43.677	0	1744.30	0	2.1470	0	34.6490	4	27.688	0	1723.153	0	45.3	4	13.7	4	-1E+10	1	-1E+10	1	-1E+10	1	-1E+10	1	-1E+10	1	-1E+10	1
4901784	82	C	10/02/2017	10:44	-133.097	43.677	0	1749.80	0	2.1420	0	34.6500	4	27.689	0	1728.564	0	45.7	4	13.8	4	-1E+10	1	-1E+10	1	-1E+10	1	-1E+10	1	-1E+10	1	-1E+10	1
4901784	82	C	10/02/2017	10:44	-133.097	43.677	0	1755.20	0	2.1380	0	34.6500	4	27.690	0	1733.877	0	46.1	4	14.0	4	-1E+10	1	-1E+10	1	-1E+10	1	-1E+10	1	-1E+10	1	-1E+10	1
4901784	82	C	10/02/2017	10:44	-133.097	43.677	0	1759.70	0	2.1340	0	34.6510	4	27.691	0	1738.304	0	46.4	4	14.0	4	-1E+10	1	-1E+10	1	-1E+10	1	-1E+10	1	-1E+10	1	-1E+10	1
4901784	82	C	10/02/2017	10:44	-133.097	43.677	0	1764.20	0	2.1290	0	34.6520	4	27.692	0	1742.730	0	46.7	4	14.1	4	-1E+10	1	-1E+10	1	-1E+10	1	-1E+10	1	-1E+10	1	-1E+10	1
4901784	82	C	10/02/2017	10:44	-133.097	43.677	0	1769.50	0	2.1240	0	34.6520	4	27.693	0	1747.944	0	47.0	4	14.2	4	-1E+10	1	-1E+10	1	-1E+10	1	-1E+10	1	-1E+10	1	-1E+10	1
4901784	82	C	10/02/2017	10:44	-133.097	43.677	0	1774.40	0	2.1170	0	34.6530	4	27.694	0	1752.764	0	47.1	4	14.2	4	-1E+10	1	-1E+10	1	-1E+10	1	-1E+10	1	-1E+10	1	-1E+10	1
4901784	82	C	10/02/2017	10:44	-133.097	43.677	0	1779.30	0	2.1080	0	34.6530	4	27.695	0	1757.584	0	47.3	4	14.3	4	-1E+10	1	-1E+10	1	-1E+10	1	-1E+10	1	-1E+10	1	-1E+10	1
4901784	82	C	10/02/2017	10:44	-133.097	43.677	0	1785.00	0	2.1020	0	34.6540	4	27.696	0	1763.191	0	47.9	4	14.5	4	-1E+10	1	-1E+10	1	-1E+10	1	-1E+10	1	-1E+10	1	-1E+10	1
4901784	82	C	10/02/2017	10:44	-133.097	43.677	0	1790.80	0	2.0950	0	34.6550	4	27.697	0	1768.896	0	48.2	4	14.6	4	-1E+10	1	-1E+10	1	-1E+10	1	-1E+10	1	-1E+10	1	-1E+10	1
4901784	82	C	10/02/2017	10:44	-133.097	43.677	0	1795.70	0	2.0890	0	34.6570	4	27.699	0	1773.716	0	48.5	4	14.7	4	-1E+10	1	-1E+10	1	-1E+10	1	-1E+10	1	-1E+10	1	-1E+10	1
4901784	82	C	10/02/2017	10:44	-133.097	43.677	0	1800.70	0	2.0830	0	34.6570	4	27.700	0	1778.633	0	48.8	4	14.7	4	-1E+10	1	-1E+10	1	-1E+10	1	-1E+10	1	-1E+10	1	-1E+10	1
4901784	82	C	10/02/2017	10:44	-133.097	43.677	0	1805.60	0	2.0800	0	34.6570	4	27.700	0	1783.453	0	49.0	4	14.8	4	-1E+10	1	-1E+10	1	-1E+10	1	-1E+10	1	-1E+10	1	-1E+10	1
4901784	82	C	10/02/2017	10:44	-133.097	43.677	0	1810.40	0	2.0730	0	34.6580	4	27.702	0	1788.174	0	49.6	4	15.0	4	-1E+10	1	-1E+10	1	-1E+10	1	-1E+10	1	-1E+10	1	-1E+10	1
4901784	82	C	10/02/2017	10:44	-133.097	43.677	0	1815.30	0	2.0640	0	34.6590	4	27.703	0	1792.993	0	50.0	4	15.1	4	-1E+10	1	-1E+10	1	-1E+10	1	-1E+10	1	-1E+10	1	-1E+10	1
4901784	82	C	10/02/2017	10:44	-133.097	43.677	0	1820.30	0	2.0570	0	34.6590	4	27.704	0	1797.910	0	50.3	4	15.2	4	-1E+10	1	-1E+10	1	-1E+10	1	-1E+10	1	-1E+10	1	-1E+10	1
4901784	82	C	10/02/2017	10:44	-133.097	43.677	0	1825.40	0	2.0510	0	34.6600	4	27.705	0	1802.926	0	50.6	4	15.3	4	-1E+10	1	-1E+10	1	-1E+10	1	-1E+10	1	-1E+10	1	-1E+10	1
4901784	82	C	10/02/2017	10:44	-133.097	43.677	0	1830.50	0	2.0430	0	34.6610	4	27.706	0	1807.942	0	50.8	4	15.3	4	-1E+10	1	-1E+10	1	-1E+10	1	-1E+10	1	-1E+10	1	-1E+10	1
4901784	82	C	10/02/2017	10:44	-133.097	43.677	0	1835.60	0	2.0390	0	34.6620	4	27.708	0	1812.957	0	51.0	4	15.4	4	-1E+10	1	-1E+10	1	-1E+10	1	-1E+10	1	-1E+10	1	-1E+10	1
4901784	82	C	10/02/2017	10:44	-133.097	43.677	0	1840.70	0	2.0350	0	34.6620	4	27.708	0	1817.972	0	51.3	4	15.5	4	-1E+10	1	-1E+10	1	-1E+10	1	-1E+10	1	-1E+10	1	-1E+10	1
4901784	82	C	10/02/2017	10:44	-133.097	43.677	0	1845.00	0	2.0290	0	34.6640	4	27.710	0	1822.201	0	51.6	4	15.6	4	-1E+10	1	-1E+10	1	-1E+10	1	-1E+10	1	-1E+10	1	-1E+10	1
4901784	82	C	10/02/2017	10:44	-133.097	43.677	0	1849.30	0	2.0230	0	34.6650	4	27.711	0	1826.429	0	51.9	4	15.7	4	-1E+10	1	-1E+10	1	-1E+10	1	-1E+10	1	-1E+10	1	-1E+10	1
4901784	82	C	10/02/2017	10:44	-133.097	43.677	0	1854.40	0	2.0190	0	34.6650	4	27.712	0	1831.444	0	52.2	4	15.8	4	-1E+10	1	-1E+10	1	-1E+10	1	-1E+10	1	-1E+10	1	-1E+10	1
4901784	82	C	10/02/2017	10:44	-133.097	43.677	0	1859.60	0	2.0150	0	34.6650	4	27.712	0	1836.557	0	52.4	4	15.8	4	-1E+10	1	-1E+10	1	-1E+10	1	-1E+10	1	-1E+10	1	-1E+10	1
4901784	82	C	10/02/2017	10:44	-133.097	43.677	0	1864.80	0	2.0110	0	34.6660	4	27.713	0	1841.670	0	52.7	4	15.9	4	-1E+10	1	-1E+10	1	-1E+10	1	-1E+10	1	-1E+10	1	-1E+10	1
4901784	82	C	10/02/2017	10:44	-133.097	43.677	0	1870.00	0	2.0080	0	34.6680	4	27.715	0	1846.783	0	53.0	4	16.0	4	-1E+10	1	-1E+10	1	-1E+10	1	-1E+10	1	-1E+10	1	-1E+10	1
4901784	82	C	10/02/2017	10:44	-133.097	43.677	0	1875.20	0	2.0050	0	34.6680	4	27.715	0	1851.896	0	53.3	4	16.1	4	-1E+10	1	-1E+10	1	-1E+10	1	-1E+10	1	-1E+10	1	-1E+10	1
4901784	82	C	10/02/2017	10:44	-133.097	43.677	0	1880.50	0	1.9990	0	34.6690	4	27.717	0	1857.107	0	53.6	4	16.2	4	-1E+10	1	-1E+10	1	-1E+10	1	-1E+10	1	-1E+10	1	-1E+10	1
4901784	82	C	10/02/2017	10:44	-133.097	43.677	0	1884.90	0	1.9960	0	34.6690	4	27.717	0	1861.433	0	53.9	4	16.3	4	-1E+10	1	-1E+10	1	-1E+10	1	-1E+10	1	-1E+10	1	-1E+10	1
4901784	82	C	10/02/2017	10:44	-133.097	43.677	0	1889.40	0	1.9920	0	34.6700	4	27.718	0	1865.857	0	54.2	4	16.3	4	-1E+10	1	-1E+10	1	-1E+10	1	-1E+10	1	-1E+10	1	-1E+10	1
4901784	82	C	10/02/2017	10:44	-133.097	43.677	0	1894.70	0	1.9870	0	34.6710	4	27.719	0	1871.068	0	54.5	4	16.4	4	-1E+10	1	-1E+10	1	-1E+10	1	-1E+10	1	-1E+10	1	-1E+10	1
4901784	82	C	10/02/2017	10:44	-133.097	43.677	0	1900.10	0	1.9840	0	34.6720	4	27.720	0	1876.377	0	54.7	4	16.5	4	-1E+10	1	-1E+10	1	-1E+10	1	-1E+10	1	-1E+10	1	-1E+10	1
4901784	82	C	10/02/2017	10:44	-133.097	43.677	0	1905.50	0	1.9830	0	34.6710	4	27.720	0	1881.686	0	54.8	4	16.5	4	-1E+10	1	-1E+10	1	-1E+10	1	-1E+10	1	-1E+10	1	-1E+10	1
4901784	82	C	10/02/2017	10:44	-133.097	43.677	0	1910.10	0	1.9830	0	34.6710	4	27.720	0	1886.208	0	55.0	4	16.6	4	-1E+10	1	-1E+10	1	-1E+10	1	-1E+10	1	-1E+10	1	-1E+10	1
4901784	82	C	10/02/2017	10:44	-133.097	43.677	0	1914.60	0	1.9800	0	34.6720	4	27.721	0	1890.631	0	55.3	4	16.7	4	-1E+10	1	-1E+10	1	-1E+10	1	-1E+10	1	-1E+10	1	-1E+10	1
4901784	82	C	10/02/2017	10:44	-133.097	43.677	0	1920.10	0	1.9750	0	34.6740	4	27.723	0	1896.038	0	55.7	4	16.8	4	-1E+10	1	-1E+10	1	-1E+10	1	-1E+10	1	-1E+10	1	-1E+10	1
4901784	82	C	10/02/2017	10:44	-133.097	43.677	0	1924.70	0	1.9730	0	34.6740	4	27.723	0	1900.560	0	56.1	4	16.9	4	-1E+10	1	-1E+10	1	-1E+10	1	-1E+10	1	-1E+10	1	-1E+10	1
4901784	82	C	10/02/2017	10:44	-133.097	43.677	0	1929.20	0	1.9700	0	34.6750	4	27.724	0	1904.983	0	56.5	4	17.0	4	-1E+10	1	-1E+10	1	-1E+10	1	-1E+10	1	-1E+10	1	-1E+10	1
4901784	82	C	10/02/2017	10:44	-133.097	43.677	0	1934.60	0	1.9670	0	34.6750	4	27.724	0	1910.291	0	56.9	4	17.1	4	-1E+10	1	-1E+10	1	-1E+10	1	-1E+10	1	-1E+10	1	-1E+10	1
4901784	82	C	10/02/2017	10:44	-133.097	43.677	0	1939.40	0	1.9610	0	34.6760	4	27.725	0	1915.010	0	57.2	4	17.2	4	-1E+10	1	-1E+10	1	-1E+10	1	-1E+10	1	-1E+10	1	-1E+10	1
4901784	82	C	10/02/2017	10:44	-133.097	43.677	0	1944.30	0	1.9570	0	34.6770	4	27.727	0	1919.826	0	57.5	4	17.3	4	-1E+10	1	-1E+10	1	-1E+10	1	-1E+10	1	-1E+10	1	-1E+10	1
4901784	82	C	10/02/2017	10:44	-133.097	43.677	0	1950.00	0	1.9490	0	34.6790	4	27.729	0	1925.428	0	57.8	4	17.4	4	-1E+10	1	-1E+10	1	-1E+10	1	-1E+10	1	-1E+10	1	-1E+10	1
4901784	82	C	10/02/2017	10:44	-133.097	43.677	0	1955.80	0	1.9470	0	34.6800	4	27.730	0	1931.129	0	58.0	4	17.5	4	-1E+10	1	-1E+10	1	-1E+10	1	-1E+10	1	-1E+10	1	-1E+10	1
4901784	82	C	10/02/2017	10:44	-133.097	43.677	0	1960.80	0	1.9440	0	34.6790	4	27.729	0	1936.043	0	58.1	4	17.5	4	-1E+10	1	-1E+10	1	-1E+10	1	-1E+10	1	-1E+10	1	-1E+10	1
4901784	82	C	10/02/2017	10:44	-133.097	43.677	0	1965.70	0	1.9410	0	34.6790	4	27.730	0	1940.859	0	58.3	4	17.6	4	-1E+10	1	-1E+10	1	-1E+10	1	-1E+10	1	-1E+10	1	-1E+10	1
4901784	82	C	10/02/2017	10:44	-133.097	43.677	0	1970.70	0	1.9390	0	34.6790	4	27.730	0	1945.773	0	58.6	4	17.6	4	-1E+10	1	-1E+10	1	-1E+10	1	-1E+10	1	-1E+10	1	-1E+10	1
4901784	82	C	10/02/2017	10:44	-133.097	43.677	0	1975.70	0	1.9380	0	34.6810	4	27.731	0	1950.687	0	58.8	4	17.7	4	-1E+10	1	-1E+10	1	-1E+10	1	-1E+10	1	-1E+10	1	-1E+10	1
4901784	82	C	10/02/2017	10:44	-133.097	43.677	0	1980.70	0	1.9360	0	34.6820	4	27.732	0	1955.601	0	59.1	4	17.8	4	-1E+10	1	-1E+10	1	-1E+10	1	-1E+10	1	-1E+10	1	-1E+10	1
4901784	82	C	10/02/2017	10:44	-133.097	43.677	0	1985.80	0	1.9320	0	34.6820	4	27.733	0	1960.613	0	59.4	4	17.9	4	-1E+10	1	-1E+10	1	-1E+10	1	-1E+10	1	-1E+10	1	-1E+10	1
4901784	82	C	10/02/2017	10:44	-133.097	43.677	0	1990.80	0	1.9280	0	34.6840	4	27.735	0	1965.526	0	59.8	4	18.0	4	-1E+10	1	-1E+10	1	-1E+10	1	-1E+10	1	-1E+10	1	-1E+10	1
4901784	82	C	10/02/2017	10:44	-133.097	43.677	0	1995.80	0	1.9270	0	34.6830	4	27.734	0	1970.440	0	59.9	4	18.0	4	-1E+10	1	-1E+10	1	-1E+10	1	-1E+10	1	-1E+10	1	-1E+10	1
4901784	82	C	10/02/2017	10:44	-133.097	43.677	0	2000.00	0	1.9250	0	34.6850	4	27.736	0	1974.567	0	60.0	4	18.1	4	-1E+10	1	-1E+10	1	-1E+10	1	-1E+10	1	-1E+10	1	-1E+10	1
4901784	82	C	10/02/2017	10:44	-133.097	43.677	0	2004.30	0	1.9230	0	34.6850	4	27.736	0	1978.792	0	60.2	4	18.1	4	-1E+10	1	-1E+10	1	-1E+10	1	-1E+10	1	-1E+10	1	-1E+10	1
4901784	82	C	10/02/2017	10:44	-133.097	43.677	0	2009.30	0	1.9190	0	34.6850	4	27.736	0	1983.705	0	60.4	4	18.2	4	-1E+10	1	-1E+10	1	-1E+10	1	-1E+10	1	-1E+10	1	-1E+10	1
4901784	82	C	10/02/2017	10:44	-133.097	43.677	0	2014.90	0	1.9180	0	34.6860	4	27.737	0	1989.208	0	60.7	4	18.3	4	-1E+10	1	-1E+10	1	-1E+10	1	-1E+10	1	-1E+10	1	-1E+10	1
4901784	82	C	10/02/2017	10:44	-133.097	43.677	0	2019.90	0	1.9150	0	34.6870	4	27.738	0	1994.121	0	61.0	4	18.4	4	-1E+10	1	-1E+10	1	-1E+10	1	-1E+10	1	-1E+10	1	-1E+10	1
4901784	82	C	10/02/2017	10:44	-133.097	43.677	0																										
4901784	83	C	10/12/2017	10:50	-133.345	43.671	0	2.00	0	17.3340	0	33.0530	4	23.943	0	1.984	0	234.1	4	97.5	4	-1E+10	1	-1E+10	1	-1E+10	1	-1E+10	1	-1E+10	1	-1E+10	1
4901784	83	C	10/12/2017	10:50	-133.345	43.671	0	3.50	0	17.3390	0	33.0530	4	23.942	0	3.472	0	233.9	4	97.4	4	-1E+10	1	-1E+10	1	-1E+10	1	-1E+10	1	-1E+10	1	-1E+10	1
4901784	83	C	10/12/2017	10:50	-133.345	43.671	0	5.10	0	17.3410	0	33.0530	4	23.941	0	5.059	0	234.0	4	97.5	4	-1E+10	1	-1E+10	1	-1E+10	1	-1E+10	1	-1E+10	1	-1E+10	1
4901784	83	C	10/12/2017	10:50	-133.345	43.671	0	6.90	0	17.3440	0	33.0540	4	23.941	0	6.845	0	233.9	4	97.4	4	-1E+10	1	-1E+10	1	-1E+10	1	-1E+10	1	-1E+10	1	-1E+10	1
4901784	83	C	10/12/2017	10:50	-133.345	43.671	0	8.60	0	17.3450	0	33.0550	4	23.942	0	8.531	0	233.8	4	97.4	4	-1E+10	1	-1E+10	1	-1E+10	1	-1E+10	1	-1E+10	1	-1E+10	1
4901784	83	C	10/12/2017	10:50	-133.345	43.671	0	10.40	0	17.3450	0	33.0540	4	23.941	0	10.317	0	233.6	4	97.3	4	-1E+10	1	-1E+10	1	-1E+10	1	-1E+10	1	-1E+10	1	-1E+10	1
4901784	83	C	10/12/2017	10:50	-133.345	43.671	0	12.10	0	17.3430	0	33.0540	4	23.942	0	12.003	0	233.6	4	97.3	4	-1E+10	1	-1E+10	1	-1E+10	1	-1E+10	1	-1E+10	1	-1E+10	1
4901784	83	C	10/12/2017	10:50	-133.345	43.671	0	13.80	0	17.3480	0	33.0530	4	23.940	0	13.689	0	233.4	4	97.3	4	-1E+10	1	-1E+10	1	-1E+10	1	-1E+10	1	-1E+10	1	-1E+10	1
4901784	83	C	10/12/2017	10:50	-133.345	43.671	0	15.50	0	17.3460	0	33.0520	4	23.940	0	15.375	0	233.4	4	97.2	4	-1E+10	1	-1E+10	1	-1E+10	1	-1E+10	1	-1E+10	1	-1E+10	1
4901784	83	C	10/12/2017	10:50	-133.345	43.671	0	17.10	0	17.3470	0	33.0500	4	23.938	0	16.963	0	233.4	4	97.3	4	-1E+10	1	-1E+10	1	-1E+10	1	-1E+10	1	-1E+10	1	-1E+10	1
4901784	83	C	10/12/2017	10:50	-133.345	43.671	0	18.80	0	17.3470	0	33.0500	4	23.938	0	18.649	0	233.2	4	97.2	4	-1E+10	1	-1E+10	1	-1E+10	1	-1E+10	1	-1E+10	1	-1E+10	1
4901784	83	C	10/12/2017	10:50	-133.345	43.671	0	20.60	0	17.3440	0	33.0500	4	23.939	0	20.434	0	233.0	4	97.1	4	-1E+10	1	-1E+10	1	-1E+10	1	-1E+10	1	-1E+10	1	-1E+10	1
4901784	83	C	10/12/2017	10:50	-133.345	43.671	0	22.30	0	17.3440	0	33.0510	4	23.940	0	22.120	0	233.0	4	97.1	4	-1E+10	1	-1E+10	1	-1E+10	1	-1E+10	1	-1E+10	1	-1E+10	1
4901784	83	C	10/12/2017	10:50	-133.345	43.671	0	24.00	0	17.3440	0	33.0520	4	23.940	0	23.807	0	232.9	4	97.1	4	-1E+10	1	-1E+10	1	-1E+10	1	-1E+10	1	-1E+10	1	-1E+10	1
4901784	83	C	10/12/2017	10:50	-133.345	43.671	0	25.90	0	17.3460	0	33.0530	4	23.941	0	25.691	0	232.8	4	97.0	4	-1E+10	1	-1E+10	1	-1E+10	1	-1E+10	1	-1E+10	1	-1E+10	1
4901784	83	C	10/12/2017	10:50	-133.345	43.671	0	27.80	0	17.3480	0	33.0530	4	23.940	0	27.576	0	232.4	4	96.8	4	-1E+10	1	-1E+10	1	-1E+10	1	-1E+10	1	-1E+10	1	-1E+10	1
4901784	83	C	10/12/2017	10:50	-133.345	43.671	0	29.70	0	17.3530	0	33.0520	4	23.938	0	29.460	0	232.5	4	96.9	4	-1E+10	1	-1E+10	1	-1E+10	1	-1E+10	1	-1E+10	1	-1E+10	1
4901784	83	C	10/12/2017	10:50	-133.345	43.671	0	31.80	0	17.3560	0	33.0510	4	23.937	0	31.543	0	232.3	4	96.8	4	-1E+10	1	-1E+10	1	-1E+10	1	-1E+10	1	-1E+10	1	-1E+10	1
4901784	83	C	10/12/2017	10:50	-133.345	43.671	0	33.90	0	17.3570	0	33.0480	4	23.935	0	33.626	0	232.3	4	96.8	4	-1E+10	1	-1E+10	1	-1E+10	1	-1E+10	1	-1E+10	1	-1E+10	1
4901784	83	C	10/12/2017	10:50	-133.345	43.671	0	35.90	0	17.3560	0	33.0510	4	23.937	0	35.610	0	232.1	4	96.7	4	-1E+10	1	-1E+10	1	-1E+10	1	-1E+10	1	-1E+10	1	-1E+10	1
4901784	83	C	10/12/2017	10:50	-133.345	43.671	0	38.10	0	17.3540	0	33.0510	4	23.938	0	37.792	0	232.0	4	96.7	4	-1E+10	1	-1E+10	1	-1E+10	1	-1E+10	1	-1E+10	1	-1E+10	1
4901784	83	C	10/12/2017	10:50	-133.345	43.671	0	38.80	0	17.3540	0	33.0510	4	23.938	0	38.486	0	232.2	4	96.7	4	-1E+10	1	-1E+10	1	-1E+10	1	-1E+10	1	-1E+10	1	-1E+10	1
4901784	83	C	10/12/2017	10:50	-133.345	43.671	0	40.40	0	17.3560	0	33.0500	4	23.937	0	40.073	0	232.3	4	96.8	4	-1E+10	1	-1E+10	1	-1E+10	1	-1E+10	1	-1E+10	1	-1E+10	1
4901784	83	C	10/12/2017	10:50	-133.345	43.671	0	42.10	0	17.3590	0	33.0480	4	23.934	0	41.759	0	232.3	4	96.8	4	-1E+10	1	-1E+10	1	-1E+10	1	-1E+10	1	-1E+10	1	-1E+10	1
4901784	83	C	10/12/2017	10:50	-133.345	43.671	0	43.70	0	17.3550	0	33.0430	4	23.932	0	43.346	0	233.1	4	97.1	4	-1E+10	1	-1E+10	1	-1E+10	1	-1E+10	1	-1E+10	1	-1E+10	1
4901784	83	C	10/12/2017	10:50	-133.345	43.671	0	45.30	0	17.3570	0	33.0390	4	23.928	0	44.933	0	234.0	4	97.5	4	-1E+10	1	-1E+10	1	-1E+10	1	-1E+10	1	-1E+10	1	-1E+10	1
4901784	83	C	10/12/2017	10:50	-133.345	43.671	0	46.80	0	17.3470	0	33.0340	4	23.927	0	46.421	0	235.4	4	98.1	4	-1E+10	1	-1E+10	1	-1E+10	1	-1E+10	1	-1E+10	1	-1E+10	1
4901784	83	C	10/12/2017	10:50	-133.345	43.671	0	48.20	0	17.3460	0	33.0250	4	23.920	0	47.809	0	237.2	4	98.8	4	-1E+10	1	-1E+10	1	-1E+10	1	-1E+10	1	-1E+10	1	-1E+10	1
4901784	83	C	10/12/2017	10:50	-133.345	43.671	0	49.60	0	17.3390	0	33.0130	4	23.913	0	49.197	0	240.0	4	100.0	4	-1E+10	1	-1E+10	1	-1E+10	1	-1E+10	1	-1E+10	1	-1E+10	1
4901784	83	C	10/12/2017	10:50	-133.345	43.671	0	51.00	0	17.1850	0	33.0010	4	23.940	0	50.586	0	244.4	4	101.5	4	-1E+10	1	-1E+10	1	-1E+10	1	-1E+10	1	-1E+10	1	-1E+10	1
4901784	83	C	10/12/2017	10:50	-133.345	43.671	0	52.60	0	15.6880	0	32.9630	4	24.254	0	52.173	0	253.1	4	102.1	4	-1E+10	1	-1E+10	1	-1E+10	1	-1E+10	1	-1E+10	1	-1E+10	1
4901784	83	C	10/12/2017	10:50	-133.345	43.671	0	54.20	0	14.9730	0	32.9340	4	24.388	0	53.760	0	258.6	4	102.8	4	-1E+10	1	-1E+10	1	-1E+10	1	-1E+10	1	-1E+10	1	-1E+10	1
4901784	83	C	10/12/2017	10:50	-133.345	43.671	0	55.90	0	14.0030	0	32.9290	4	24.589	0	55.446	0	263.8	4	102.9	4	-1E+10	1	-1E+10	1	-1E+10	1	-1E+10	1	-1E+10	1	-1E+10	1
4901784	83	C	10/12/2017	10:50	-133.345	43.671	0	58.20	0	13.7730	0	32.9220	4	24.631	0	57.727	0	262.7	4	102.0	4	-1E+10	1	-1E+10	1	-1E+10	1	-1E+10	1	-1E+10	1	-1E+10	1
4901784	83	C	10/12/2017	10:50	-133.345	43.671	0	59.80	0	13.6920	0	32.9200	4	24.646	0	59.313	0	260.7	4	101.1	4	-1E+10	1	-1E+10	1	-1E+10	1	-1E+10	1	-1E+10	1	-1E+10	1
4901784	83	C	10/12/2017	10:50	-133.345	43.671	0	61.20	0	13.5670	0	32.9220	4	24.673	0	60.702	0	258.4	4	99.9	4	-1E+10	1	-1E+10	1	-1E+10	1	-1E+10	1	-1E+10	1	-1E+10	1
4901784	83	C	10/12/2017	10:50	-133.345	43.671	0	62.60	0	13.2240	0	32.9210	4	24.741	0	62.090	0	257.7	4	98.9	4	-1E+10	1	-1E+10	1	-1E+10	1	-1E+10	1	-1E+10	1	-1E+10	1
4901784	83	C	10/12/2017	10:50	-133.345	43.671	0	64.10	0	13.0880	0	32.9240	4	24.770	0	63.578	0	256.3	4	98.1	4	-1E+10	1	-1E+10	1	-1E+10	1	-1E+10	1	-1E+10	1	-1E+10	1
4901784	83	C	10/12/2017	10:50	-133.345	43.671	0	65.60	0	12.8910	0	32.9260	4	24.810	0	65.065	0	254.6	4	97.1	4	-1E+10	1	-1E+10	1	-1E+10	1	-1E+10	1	-1E+10	1	-1E+10	1
4901784	83	C	10/12/2017	10:50	-133.345	43.671	0	67.40	0	12.7240	0	32.9340	4	24.849	0	66.850	0	253.0	4	96.1	4	-1E+10	1	-1E+10	1	-1E+10	1	-1E+10	1	-1E+10	1	-1E+10	1
4901784	83	C	10/12/2017	10:50	-133.345	43.671	0	67.90	0	12.5850	0	32.9290	4	24.872	0	67.346	0	252.3	4	95.6	4	-1E+10	1	-1E+10	1	-1E+10	1	-1E+10	1	-1E+10	1	-1E+10	1
4901784	83	C	10/12/2017	10:50	-133.345	43.671	0	69.20	0	12.4970	0	32.9260	4	24.887	0	68.635	0	251.9	4	95.3	4	-1E+10	1	-1E+10	1	-1E+10	1	-1E+10	1	-1E+10	1	-1E+10	1
4901784	83	C	10/12/2017	10:50	-133.345	43.671	0	70.50	0	12.4440	0	32.9160	4	24.889	0	69.924	0	250.1	4	94.5	4	-1E+10	1	-1E+10	1	-1E+10	1	-1E+10	1	-1E+10	1	-1E+10	1
4901784	83	C	10/12/2017	10:50	-133.345	43.671	0	71.90	0	12.0680	0	32.9340	4	24.974	0	71.313	0	248.5	4	93.2	4	-1E+10	1	-1E+10	1	-1E+10	1	-1E+10	1	-1E+10	1	-1E+10	1
4901784	83	C	10/12/2017	10:50	-133.345	43.671	0	73.30	0	11.9010	0	32.9370	4	25.008	0	72.701	0	247.4	4	92.4	4	-1E+10	1	-1E+10	1	-1E+10	1	-1E+10	1	-1E+10	1	-1E+10	1
4901784	83	C	10/12/2017	10:50	-133.345	43.671	0	74.70	0	11.8540	0	32.9330	4	25.014	0	74.089	0	246.3	4	91.9	4	-1E+10	1	-1E+10	1	-1E+10	1	-1E+10	1	-1E+10	1	-1E+10	1
4901784	83	C	10/12/2017	10:50	-133.345	43.671	0	76.20	0	11.7210	0	32.9380	4	25.042	0	75.577	0	245.0	4	91.2	4	-1E+10	1	-1E+10	1	-1E+10	1	-1E+10	1	-1E+10	1	-1E+10	1
4901784	83	C	10/12/2017	10:50	-133.345	43.671	0	77.50	0	11.4730	0	32.9410	4	25.090	0	76.866	0	244.4	4	90.5	4	-1E+10	1	-1E+10	1	-1E+10	1	-1E+10	1	-1E+10	1	-1E+10	1
4901784	83	C	10/12/2017	10:50	-133.345	43.671	0	79.00	0	11.3130	0	32.9520	4	25.127	0	78.353	0	243.7	4	89.9	4	-1E+10	1	-1E+10	1	-1E+10	1	-1E+10	1	-1E+10	1	-1E+10	1
4901784	83	C	10/12/2017	10:50	-133.345	43.671	0	80.50	0	11.2460	0	32.9550	4	25.142	0	79.841	0	243.4	4	89.7	4	-1E+10	1	-1E+10	1	-1E+10	1	-1E+10	1	-1E+10	1	-1E+10	1
4901784	83	C	10/12/2017	10:50	-133.345	43.671	0	82.10	0	11.2440	0	32.9540	4	25.141	0	81.427	0	242.5	4	89.4	4	-1E+10	1	-1E+10	1	-1E+10	1	-1E+10	1	-1E+10	1	-1E+10	1
4901784	83	C	10/12/2017	10:50	-133.345	43.671	0	83.60	0	11.2290	0	32.9550	4	25.145	0	82.915	0	241.0	4	88.8	4	-1E+10	1	-1E+10	1	-1E+10	1	-1E+10	1	-1E+10	1	-1E+10	1
4901784	83	C	10/12/2017	10:50	-133.345	43.671	0	85.30	0	11.2110	0	32.9460	4	25.141	0	84.600	0	238.7	4	87.9	4	-1E+10	1	-1E+10	1	-1E+10	1	-1E+10	1	-1E+10	1	-1E+10	1
4901784	83	C	10/12/2017	10:50	-133.345	43.671	0	86.90	0	11.0450	0	32.9560	4	25.178	0	86.187	0	236.5	4	86.8	4	-1E+10	1	-1E+10	1	-1E+10	1	-1E+10	1	-1E+10	1	-1E+10	1
4901784	83	C	10/12/2017	10:50	-133.345	43.671	0	88.50	0	11.0140	0	32.9510	4	25.180	0	87.774	0	233.9	4	85.8	4	-1E+10	1	-1E+10	1	-1E+10	1	-1E+10	1	-1E+10	1	-1E+10	1
4901784	83	C	10/12/2017	10:50	-133.345	43.671	0	90.10	0	10.8120	0	32.9710	4	25.231	0	89.360	0	231.1	4	84.4	4	-1E+10	1	-1E+10	1	-1E+10	1	-1E+10	1	-1E+10	1	-1E+10	1
4901784	83	C	10/12/2017	10:50	-133.345	43.671	0	91.80	0	10.6100	0	32.9790	4	25.273	0	91.046	0	227.4	4	82.7	4	-1E+10	1	-1E+10	1	-1E+10	1	-1E+10	1	-1E+10	1	-1E+10	1
4901784	83	C	10/12/2017	10:50	-133.345	43.671	0	93.50	0	10.3150	0	33.0160	4	25.352	0	92.731	0	224.1	4	81.0	4	-1E+10	1	-1E+10	1	-1E+10	1	-1E+10	1	-1E+10	1	-1E+10	1
4901784	83	C	10/12/2017	10:50	-133.345	43.671	0	95.40	0	10.2080	0	33.0460	4	25.394	0	94.615	0	220.5	4	79.5	4	-1E+10	1	-1E+10	1	-1E+10	1	-1E+10	1	-1E+10	1	-1E+10	1
4901784	83	C	10/12/2017	10:50	-133.345	43.671	0	95.80	0	10.1900	0	33.0500	4	25.400	0	95.012	0	219.1	4	79.0	4	-1E+10	1	-1E+10	1	-1E+10	1	-1E+10	1	-1E+10	1	-1E+10	1
4901784	83	C	10/12/2017	10:50	-133.345	43.671	0	97.10	0	10.1270	0	33.0680	4	25.425	0	96.301	0	215.1	4	77.5	4	-1E+10	1	-1E+10	1	-1E+10	1	-1E+10	1	-1E+10	1	-1E+10	1
4901784	83	C	10/12/2017	10:50	-133.345	43.671	0	98.50	0	9.9850	0	33.1050	4	25.477	0	97.689	0	211.5	4	75.9	4	-1E+10	1	-1E+10	1	-1E+10	1	-1E+10	1	-1E+10	1	-1E+10	1
4901784	83	C	10/12/2017	10:50	-133.345	43.671	0	99.80	0	9.9470	0	33.1160	4	25.492	0	98.978	0	207.3	4	74.4	4	-1E+10	1	-1E+10	1	-1E+10	1	-1E+10	1	-1E+10	1	-1E+10	1
4901784	83	C	10/12/2017	10:50	-133.345	43.671	0	102.60	0	9.7260	0	33.1940	4	25.590	0	101.754	0	196.7	4	70.3	4	-1E+10	1	-1E+10	1	-1E+10	1	-1E+10	1	-1E+10	1	-1E+10	1
4901784	83	C	10/12/2017	10:50	-133.345	43.671	0	104.70	0	9.6120	0	33.2430	4	25.647	0	103.836	0	189.7	4	67.6	4	-1E+10	1	-1E+10	1	-1E+10	1	-1E+10	1	-1E+10	1	-1E+10	1
4901784	83	C	10/12/2017	10:50	-133.345	43.671	0	107.80	0	9.4130	0	33.3380	4	25.753	0	106.910	0	179.8	4	63.9	4	-1E+10	1	-1E+10	1	-1E+10	1	-1E+10	1	-1E+10	1	-1E+10	1
4901784	83	C	10/12/2017	10:50	-133.345	43.671	0	110.10	0	9.2940	0	33.4040	4	25.824	0	109.191	0	173.5	4	61.5	4	-1E+10	1	-1E+10	1	-1E+10	1	-1E+10	1	-1E+10	1	-1E+10	1
4901784	83	C	10/12/2017	10:50	-133.345	43.671	0	112.50	0	9.1940	0	33.4550	4	25.880	0	111.570	0	169.1	4	59.8	4	-1E+10	1	-1E+10	1	-1E+10	1	-1E+10	1	-1E+10	1	-1E+10	1
4901784	83	C	10/12/2017	10:50	-133.345	43.671	0	114.80	0	9.1600	0	33.4720	4	25.899	0	113.850	0	164.4	4	58.1	4	-1E+10	1	-1E+10	1	-1E+10	1	-1E+10	1	-1E+10	1	-1E+10	1
4901784	83	C	10/12/2017	10:50	-133.345	43.671	0	117.30	0	9.0950	0	33.5080	4	25.937	0	116.329	0	158.5	4	56.0	4	-1E+10	1	-1E+10	1	-1E+10	1	-1E+10	1	-1E+10	1	-1E+10	1
4901784	83	C	10/12/2017	10:50	-133.345	43.671	0	119.70	0	8.9750	0	33.5730	4	26.007	0	118.708	0	152.9	4	53.9	4	-1E+10	1	-1E+10	1	-1E+10	1	-1E+10	1	-1E+10	1	-1E+10	1
4901784	83	C	10/12/2017	10:50	-133.345	43.671	0	122.10	0	8.9250	0	33.6000	4	26.036	0	121.088	0	148.1	4	52.2	4	-1E+10	1	-1E+10	1	-1E+10	1	-1E+10	1	-1E+10	1	-1E+10	1
4901784	83	C	10/12/2017	10:50	-133.345	43.671	0	124.60	0	8.8600	0	33.6320	4	26.071	0	123.566	0	143.0	4	50.3	4	-1E+10	1	-1E+10	1	-1E+10	1	-1E+10	1	-1E+10	1	-1E+10	1
4901784	83	C	10/12/2017	10:50	-133.345	43.671	0	127.20	0	8.7970	0	33.6620	4	26.105	0	126.144	0	137.2	4	48.2	4	-1E+10	1	-1E+10	1	-1E+10	1	-1E+10	1	-1E+10	1	-1E+10	1
4901784	83	C	10/12/2017	10:50	-133.345	43.671	0	129.80	0	8.6660	0	33.7220	4	26.172	0	128.722	0	131.8	4	46.2	4	-1E+10	1	-1E+10	1	-1E+10	1	-1E+10	1	-1E+10	1	-1E+10	1
4901784	83	C	10/12/2017	10:50	-133.345	43.671	0	132.60	0	8.5410	0	33.7780	4	26.235	0	131.498	0	128.7	4	45.0	4	-1E+10	1	-1E+10	1	-1E+10	1	-1E+10	1	-1E+10	1	-1E+10	1
4901784	83	C	10/12/2017	10:50	-133.345	43.671	0	135.30	0	8.5190	0	33.7830	4	26.242	0	134.174	0	126.2	4	44.1	4	-1E+10	1	-1E+10	1	-1E+10	1	-1E+10	1	-1E+10	1	-1E+10	1
4901784	83	C	10/12/2017	10:50	-133.345	43.671	0	137.20	0	8.4610	0	33.8060	4	26.269	0	136.058	0	124.2	4	43.4	4	-1E+10	1	-1E+10	1	-1E+10	1	-1E+10	1	-1E+10	1	-1E+10	1
4901784	83	C	10/12/2017	10:50	-133.345	43.671	0	139.90	0	8.4180	0	33.8200	4	26.287	0	138.734	0	121.8	4	42.5	4	-1E+10	1	-1E+10	1	-1E+10	1	-1E+10	1	-1E+10	1	-1E+10	1
4901784	83	C	10/12/2017	10:50	-133.345	43.671	0	142.50	0	8.3670	0	33.8360	4	26.307	0	141.312	0	119.5	4	41.7	4	-1E+10	1	-1E+10	1	-1E+10	1	-1E+10	1	-1E+10	1	-1E+10	1
4901784	83	C	10/12/2017	10:50	-133.345	43.671	0	145.30	0	8.2810	0	33.8650	4	26.343	0	144.087	0	117.3	4	40.8	4	-1E+10	1	-1E+10	1	-1E+10	1	-1E+10	1	-1E+10	1	-1E+10	1
4901784	83	C	10/12/2017	10:50	-133.345	43.671	0	148.00	0	8.1960	0	33.8890	4	26.375	0	146.764	0	115.1	4	40.0	4	-1E+10	1	-1E+10	1	-1E+10	1	-1E+10	1	-1E+10	1	-1E+10	1
4901784	83	C	10/12/2017	10:50	-133.345	43.671	0	149.90	0	8.1590	0	33.8970	4	26.386	0	148.647	0	113.8	4	39.5	4	-1E+10	1	-1E+10	1	-1E+10	1	-1E+10	1	-1E+10	1	-1E+10	1
4901784	83	C	10/12/2017	10:50	-133.345	43.671	0	152.60	0	8.1190	0	33.9080	4	26.401	0	151.324	0	112.1	4	38.9	4	-1E+10	1	-1E+10	1	-1E+10	1	-1E+10	1	-1E+10	1	-1E+10	1
4901784	83	C	10/12/2017	10:50	-133.345	43.671	0	155.80	0	8.0630	0	33.9200	4	26.419	0	154.496	0	110.6	4	38.3	4	-1E+10	1	-1E+10	1	-1E+10	1	-1E+10	1	-1E+10	1	-1E+10	1
4901784	83	C	10/12/2017	10:50	-133.345	43.671	0	157.10	0	8.0370	0	33.9270	4	26.428	0	155.785	0	109.9	4	38.0	4	-1E+10	1	-1E+10	1	-1E+10	1	-1E+10	1	-1E+10	1	-1E+10	1
4901784	83	C	10/12/2017	10:50	-133.345	43.671	0	160.30	0	7.9810	0	33.9370	4	26.444	0	158.957	0	108.2	4	37.4	4	-1E+10	1	-1E+10	1	-1E+10	1	-1E+10	1	-1E+10	1	-1E+10	1
4901784	83	C	10/12/2017	10:50	-133.345	43.671	0	162.70	0	7.9360	0	33.9440	4	26.457	0	161.336	0	107.0	4	36.9	4	-1E+10	1	-1E+10	1	-1E+10	1	-1E+10	1	-1E+10	1	-1E+10	1
4901784	83	C	10/12/2017	10:50	-133.345	43.671	0	165.10	0	7.8830	0	33.9530	4	26.471	0	163.714	0	106.3	4	36.7	4	-1E+10	1	-1E+10	1	-1E+10	1	-1E+10	1	-1E+10	1	-1E+10	1
4901784	83	C	10/12/2017	10:50	-133.345	43.671	0	167.40	0	7.8680	0	33.9540	4	26.474	0	165.994	0	105.7	4	36.4	4	-1E+10	1	-1E+10	1	-1E+10	1	-1E+10	1	-1E+10	1	-1E+10	1
4901784	83	C	10/12/2017	10:50	-133.345	43.671	0	169.80	0	7.8300	0	33.9610	4	26.486	0	168.373	0	105.0	4	36.2	4	-1E+10	1	-1E+10	1	-1E+10	1	-1E+10	1	-1E+10	1	-1E+10	1
4901784	83	C	10/12/2017	10:50	-133.345	43.671	0	172.10	0	7.8050	0	33.9640	4	26.492	0	170.653	0	104.3	4	35.9	4	-1E+10	1	-1E+10	1	-1E+10	1	-1E+10	1	-1E+10	1	-1E+10	1
4901784	83	C	10/12/2017	10:50	-133.345	43.671	0	174.60	0	7.7550	0	33.9710	4	26.504	0	173.131	0	103.5	4	35.6	4	-1E+10	1	-1E+10	1	-1E+10	1	-1E+10	1	-1E+10	1	-1E+10	1
4901784	83	C	10/12/2017	10:50	-133.345	43.671	0	177.90	0	7.6860	0	33.9810	4	26.522	0	176.402	0	102.8	4	35.3	4	-1E+10	1	-1E+10	1	-1E+10	1	-1E+10	1	-1E+10	1	-1E+10	1
4901784	83	C	10/12/2017	10:50	-133.345	43.671	0	180.40	0	7.6580	0	33.9840	4	26.529	0	178.879	0	102.3	4	35.1	4	-1E+10	1	-1E+10	1	-1E+10	1	-1E+10	1	-1E+10	1	-1E+10	1
4901784	83	C	10/12/2017	10:50	-133.345	43.671	0	182.70	0	7.6380	0	33.9850	4	26.532	0	181.159	0	101.7	4	34.9	4	-1E+10	1	-1E+10	1	-1E+10	1	-1E+10	1	-1E+10	1	-1E+10	1
4901784	83	C	10/12/2017	10:50	-133.345	43.671	0	185.20	0	7.5940	0	33.9910	4	26.543	0	183.637	0	101.3	4	34.7	4	-1E+10	1	-1E+10	1	-1E+10	1	-1E+10	1	-1E+10	1	-1E+10	1
4901784	83	C	10/12/2017	10:50	-133.345	43.671	0	187.70	0	7.5740	0	33.9930	4	26.548	0	186.115	0	100.9	4	34.6	4	-1E+10	1	-1E+10	1	-1E+10	1	-1E+10	1	-1E+10	1	-1E+10	1
4901784	83	C	10/12/2017	10:50	-133.345	43.671	0	190.10	0	7.5560	0	33.9960	4	26.553	0	188.493	0	100.5	4	34.4	4	-1E+10	1	-1E+10	1	-1E+10	1	-1E+10	1	-1E+10	1	-1E+10	1
4901784	83	C	10/12/2017	10:50	-133.345	43.671	0	192.70	0	7.5340	0	33.9970	4	26.557	0	191.070	0	99.9	4	34.2	4	-1E+10	1	-1E+10	1	-1E+10	1	-1E+10	1	-1E+10	1	-1E+10	1
4901784	83	C	10/12/2017	10:50	-133.345	43.671	0	195.10	0	7.4900	0	34.0030	4	26.568	0	193.449	0	99.5	4	34.0	4	-1E+10	1	-1E+10	1	-1E+10	1	-1E+10	1	-1E+10	1	-1E+10	1
4901784	83	C	10/12/2017	10:50	-133.345	43.671	0	197.60	0	7.4710	0	34.0040	4	26.571	0	195.926	0	99.3	4	33.9	4	-1E+10	1	-1E+10	1	-1E+10	1	-1E+10	1	-1E+10	1	-1E+10	1
4901784	83	C	10/12/2017	10:50	-133.345	43.671	0	200.20	0	7.4500	0	34.0050	4	26.575	0	198.503	0	98.7	4	33.7	4	-1E+10	1	-1E+10	1	-1E+10	1	-1E+10	1	-1E+10	1	-1E+10	1
4901784	83	C	10/12/2017	10:50	-133.345	43.671	0	202.70	0	7.4160	0	34.0090	4	26.583	0	200.981	0	98.1	4	33.5	4	-1E+10	1	-1E+10	1	-1E+10	1	-1E+10	1	-1E+10	1	-1E+10	1
4901784	83	C	10/12/2017	10:50	-133.345	43.671	0	205.30	0	7.3820	0	34.0120	4	26.590	0	203.557	0	97.7	4	33.3	4	-1E+10	1	-1E+10	1	-1E+10	1	-1E+10	1	-1E+10	1	-1E+10	1
4901784	83	C	10/12/2017	10:50	-133.345	43.671	0	207.80	0	7.3570	0	34.0130	4	26.595	0	206.035	0	97.7	4	33.3	4	-1E+10	1	-1E+10	1	-1E+10	1	-1E+10	1	-1E+10	1	-1E+10	1
4901784	83	C	10/12/2017	10:50	-133.345	43.671	0	210.30	0	7.3360	0	34.0160	4	26.600	0	208.512	0	97.6	4	33.3	4	-1E+10	1	-1E+10	1	-1E+10	1	-1E+10	1	-1E+10	1	-1E+10	1
4901784	83	C	10/12/2017	10:50	-133.345	43.671	0	212.80	0	7.2870	0	34.0170	4	26.608	0	210.990	0	97.8	4	33.3	4	-1E+10	1	-1E+10	1	-1E+10	1	-1E+10	1	-1E+10	1	-1E+10	1
4901784	83	C	10/12/2017	10:50	-133.345	43.671	0	215.30	0	7.2730	0	34.0170	4	26.610	0	213.467	0	98.0	4	33.3	4	-1E+10	1	-1E+10	1	-1E+10	1	-1E+10	1	-1E+10	1	-1E+10	1
4901784	83	C	10/12/2017	10:50	-133.345	43.671	0	217.80	0	7.2690	0	34.0170	4	26.610	0	215.945	0	98.3	4	33.5	4	-1E+10	1	-1E+10	1	-1E+10	1	-1E+10	1	-1E+10	1	-1E+10	1
4901784	83	C	10/12/2017	10:50	-133.345	43.671	0	220.40	0	7.2470	0	34.0170	4	26.613	0	218.521	0	98.9	4	33.6	4	-1E+10	1	-1E+10	1	-1E+10	1	-1E+10	1	-1E+10	1	-1E+10	1
4901784	83	C	10/12/2017	10:50	-133.345	43.671	0	222.10	0	7.2210	0	34.0180	4	26.618	0	220.206	0	99.7	4	33.9	4	-1E+10	1	-1E+10	1	-1E+10	1	-1E+10	1	-1E+10	1	-1E+10	1
4901784	83	C	10/12/2017	10:50	-133.345	43.671	0	224.70	0	7.1710	0	34.0210	4	26.627	0	222.782	0	101.8	4	34.6	4	-1E+10	1	-1E+10	1	-1E+10	1	-1E+10	1	-1E+10	1	-1E+10	1
4901784	83	C	10/12/2017	10:50	-133.345	43.671	0	227.30	0	7.0980	0	34.0210	4	26.637	0	225.359	0	103.6	4	35.1	4	-1E+10	1	-1E+10	1	-1E+10	1	-1E+10	1	-1E+10	1	-1E+10	1
4901784	83	C	10/12/2017	10:50	-133.345	43.671	0	230.00	0	7.0620	0	34.0200	4	26.641	0	228.034	0	101.7	4	34.5	4	-1E+10	1	-1E+10	1	-1E+10	1	-1E+10	1	-1E+10	1	-1E+10	1
4901784	83	C	10/12/2017	10:50	-133.345	43.671	0	232.60	0	7.0430	0	34.0230	4	26.646	0	230.610	0	98.7	4	33.4	4	-1E+10	1	-1E+10	1	-1E+10	1	-1E+10	1	-1E+10	1	-1E+10	1
4901784	83	C	10/12/2017	10:50	-133.345	43.671	0	235.30	0	7.0020	0	34.0280	4	26.656	0	233.286	0	98.1	4	33.2	4	-1E+10	1	-1E+10	1	-1E+10	1	-1E+10	1	-1E+10	1	-1E+10	1
4901784	83	C	10/12/2017	10:50	-133.345	43.671	0	238.00	0	6.9890	0	34.0280	4	26.658	0	235.961	0	99.5	4	33.7	4	-1E+10	1	-1E+10	1	-1E+10	1	-1E+10	1	-1E+10	1	-1E+10	1
4901784	83	C	10/12/2017	10:50	-133.345	43.671	0	239.70	0	6.9720	0	34.0290	4	26.661	0	237.645	0	102.0	4	34.5	4	-1E+10	1	-1E+10	1	-1E+10	1	-1E+10	1	-1E+10	1	-1E+10	1
4901784	83	C	10/12/2017	10:50	-133.345	43.671	0	242.40	0	6.8930	0	34.0230	4	26.667	0	240.321	0	106.3	4	35.9	4	-1E+10	1	-1E+10	1	-1E+10	1	-1E+10	1	-1E+10	1	-1E+10	1
4901784	83	C	10/12/2017	10:50	-133.345	43.671	0	245.00	0	6.8240	0	34.0210	4	26.675	0	242.897	0	108.6	4	36.6	4	-1E+10	1	-1E+10	1	-1E+10	1	-1E+10	1	-1E+10	1	-1E+10	1
4901784	83	C	10/12/2017	10:50	-133.345	43.671	0	247.60	0	6.7730	0	34.0180	4	26.679	0	245.473	0	108.3	4	36.5	4	-1E+10	1	-1E+10	1	-1E+10	1	-1E+10	1	-1E+10	1	-1E+10	1
4901784	83	C	10/12/2017	10:50	-133.345	43.671	0	250.30	0	6.7070	0	34.0170	4	26.687	0	248.148	0	107.7	4	36.2	4	-1E+10	1	-1E+10	1	-1E+10	1	-1E+10	1	-1E+10	1	-1E+10	1
4901784	83	C	10/12/2017	10:50	-133.345	43.671	0	252.00	0	6.6720	0	34.0160	4	26.691	0	249.833	0	106.6	4	35.8	4	-1E+10	1	-1E+10	1	-1E+10	1	-1E+10	1	-1E+10	1	-1E+10	1
4901784	83	C	10/12/2017	10:50	-133.345	43.671	0	254.80	0	6.6170	0	34.0220	4	26.703	0	252.607	0	104.7	4	35.1	4	-1E+10	1	-1E+10	1	-1E+10	1	-1E+10	1	-1E+10	1	-1E+10	1
4901784	83	C	10/12/2017	10:50	-133.345	43.671	0	257.50	0	6.5940	0	34.0230	4	26.707	0	255.282	0	103.9	4	34.8	4	-1E+10	1	-1E+10	1	-1E+10	1	-1E+10	1	-1E+10	1	-1E+10	1
4901784	83	C	10/12/2017	10:50	-133.345	43.671	0	260.20	0	6.5770	0	34.0220	4	26.709	0	257.957	0	104.2	4	34.9	4	-1E+10	1	-1E+10	1	-1E+10	1	-1E+10	1	-1E+10	1	-1E+10	1
4901784	83	C	10/12/2017	10:50	-133.345	43.671	0	262.90	0	6.5160	0	34.0200	4	26.715	0	260.632	0	104.6	4	35.0	4	-1E+10	1	-1E+10	1	-1E+10	1	-1E+10	1	-1E+10	1	-1E+10	1
4901784	83	C	10/12/2017	10:50	-133.345	43.671	0	264.70	0	6.4770	0	34.0190	4	26.719	0	262.415	0	104.4	4	34.9	4	-1E+10	1	-1E+10	1	-1E+10	1	-1E+10	1	-1E+10	1	-1E+10	1
4901784	83	C	10/12/2017	10:50	-133.345	43.671	0	267.40	0	6.4420	0	34.0180	4	26.723	0	265.090	0	103.3	4	34.5	4	-1E+10	1	-1E+10	1	-1E+10	1	-1E+10	1	-1E+10	1	-1E+10	1
4901784	83	C	10/12/2017	10:50	-133.345	43.671	0	270.10	0	6.4080	0	34.0210	4	26.730	0	267.765	0	102.2	4	34.1	4	-1E+10	1	-1E+10	1	-1E+10	1	-1E+10	1	-1E+10	1	-1E+10	1
4901784	83	C	10/12/2017	10:50	-133.345	43.671	0	272.80	0	6.3910	0	34.0190	4	26.731	0	270.440	0	101.1	4	33.7	4	-1E+10	1	-1E+10	1	-1E+10	1	-1E+10	1	-1E+10	1	-1E+10	1
4901784	83	C	10/12/2017	10:50	-133.345	43.671	0	275.50	0	6.3420	0	34.0200	4	26.738	0	273.115	0	100.0	4	33.3	4	-1E+10	1	-1E+10	1	-1E+10	1	-1E+10	1	-1E+10	1	-1E+10	1
4901784	83	C	10/12/2017	10:50	-133.345	43.671	0	277.20	0	6.3230	0	34.0200	4	26.740	0	274.799	0	99.3	4	33.1	4	-1E+10	1	-1E+10	1	-1E+10	1	-1E+10	1	-1E+10	1	-1E+10	1
4901784	83	C	10/12/2017	10:50	-133.345	43.671	0	280.00	0	6.2750	0	34.0180	4	26.745	0	277.573	0	98.0	4	32.6	4	-1E+10	1	-1E+10	1	-1E+10	1	-1E+10	1	-1E+10	1	-1E+10	1
4901784	83	C	10/12/2017	10:50	-133.345	43.671	0	282.70	0	6.2100	0	34.0180	4	26.753	0	280.248	0	96.1	4	31.9	4	-1E+10	1	-1E+10	1	-1E+10	1	-1E+10	1	-1E+10	1	-1E+10	1
4901784	83	C	10/12/2017	10:50	-133.345	43.671	0	284.60	0	6.1720	0	34.0230	4	26.762	0	282.130	0	94.6	4	31.4	4	-1E+10	1	-1E+10	1	-1E+10	1	-1E+10	1	-1E+10	1	-1E+10	1
4901784	83	C	10/12/2017	10:50	-133.345	43.671	0	287.30	0	6.1560	0	34.0230	4	26.764	0	284.805	0	92.4	4	30.7	4	-1E+10	1	-1E+10	1	-1E+10	1	-1E+10	1	-1E+10	1	-1E+10	1
4901784	83	C	10/12/2017	10:50	-133.345	43.671	0	290.00	0	6.1470	0	34.0240	4	26.766	0	287.479	0	89.6	4	29.7	4	-1E+10	1	-1E+10	1	-1E+10	1	-1E+10	1	-1E+10	1	-1E+10	1
4901784	83	C	10/12/2017	10:50	-133.345	43.671	0	292.80	0	6.1170	0	34.0310	4	26.776	0	290.253	0	87.1	4	28.9	4	-1E+10	1	-1E+10	1	-1E+10	1	-1E+10	1	-1E+10	1	-1E+10	1
4901784	83	C	10/12/2017	10:50	-133.345	43.671	0	295.60	0	6.0990	0	34.0330	4	26.779	0	293.027	0	85.2	4	28.2	4	-1E+10	1	-1E+10	1	-1E+10	1	-1E+10	1	-1E+10	1	-1E+10	1
4901784	83	C	10/12/2017	10:50	-133.345	43.671	0	297.40	0	6.0910	0	34.0320	4	26.780	0	294.810	0	83.6	4	27.7	4	-1E+10	1	-1E+10	1	-1E+10	1	-1E+10	1	-1E+10	1	-1E+10	1
4901784	83	C	10/12/2017	10:50	-133.345	43.671	0	300.20	0	6.0620	0	34.0350	4	26.786	0	297.583	0	80.6	4	26.7	4	-1E+10	1	-1E+10	1	-1E+10	1	-1E+10	1	-1E+10	1	-1E+10	1
4901784	83	C	10/12/2017	10:50	-133.345	43.671	0	303.00	0	6.0440	0	34.0410	4	26.793	0	300.357	0	76.2	4	25.2	4	-1E+10	1	-1E+10	1	-1E+10	1	-1E+10	1	-1E+10	1	-1E+10	1
4901784	83	C	10/12/2017	10:50	-133.345	43.671	0	304.80	0	6.0620	0	34.0480	4	26.796	0	302.140	0	73.8	4	24.4	4	-1E+10	1	-1E+10	1	-1E+10	1	-1E+10	1	-1E+10	1	-1E+10	1
4901784	83	C	10/12/2017	10:50	-133.345	43.671	0	307.60	0	6.0570	0	34.0560	4	26.803	0	304.914	0	70.9	4	23.5	4	-1E+10	1	-1E+10	1	-1E+10	1	-1E+10	1	-1E+10	1	-1E+10	1
4901784	83	C	10/12/2017	10:50	-133.345	43.671	0	310.50	0	6.0500	0	34.0620	4	26.809	0	307.786	0	68.7	4	22.7	4	-1E+10	1	-1E+10	1	-1E+10	1	-1E+10	1	-1E+10	1	-1E+10	1
4901784	83	C	10/12/2017	10:50	-133.345	43.671	0	312.30	0	6.0460	0	34.0620	4	26.809	0	309.569	0	67.9	4	22.5	4	-1E+10	1	-1E+10	1	-1E+10	1	-1E+10	1	-1E+10	1	-1E+10	1
4901784	83	C	10/12/2017	10:50	-133.345	43.671	0	315.10	0	6.0190	0	34.0660	4	26.816	0	312.342	0	67.0	4	22.2	4	-1E+10	1	-1E+10	1	-1E+10	1	-1E+10	1	-1E+10	1	-1E+10	1
4901784	83	C	10/12/2017	10:50	-133.345	43.671	0	318.00	0	6.0080	0	34.0670	4	26.818	0	315.215	0	66.4	4	22.0	4	-1E+10	1	-1E+10	1	-1E+10	1	-1E+10	1	-1E+10	1	-1E+10	1
4901784	83	C	10/12/2017	10:50	-133.345	43.671	0	319.80	0	6.0010	0	34.0670	4	26.819	0	316.998	0	65.8	4	21.8	4	-1E+10	1	-1E+10	1	-1E+10	1	-1E+10	1	-1E+10	1	-1E+10	1
4901784	83	C	10/12/2017	10:50	-133.345	43.671	0	322.60	0	5.9700	0	34.0680	4	26.824	0	319.771	0	65.0	4	21.5	4	-1E+10	1	-1E+10	1	-1E+10	1	-1E+10	1	-1E+10	1	-1E+10	1
4901784	83	C	10/12/2017	10:50	-133.345	43.671	0	325.50	0	5.9420	0	34.0690	4	26.828	0	322.643	0	64.3	4	21.2	4	-1E+10	1	-1E+10	1	-1E+10	1	-1E+10	1	-1E+10	1	-1E+10	1
4901784	83	C	10/12/2017	10:50	-133.345	43.671	0	327.40	0	5.9300	0	34.0710	4	26.831	0	324.525	0	64.0	4	21.1	4	-1E+10	1	-1E+10	1	-1E+10	1	-1E+10	1	-1E+10	1	-1E+10	1
4901784	83	C	10/12/2017	10:50	-133.345	43.671	0	330.20	0	5.9230	0	34.0720	4	26.833	0	327.298	0	63.3	4	20.9	4	-1E+10	1	-1E+10	1	-1E+10	1	-1E+10	1	-1E+10	1	-1E+10	1
4901784	83	C	10/12/2017	10:50	-133.345	43.671	0	333.10	0	5.9060	0	34.0720	4	26.835	0	330.171	0	62.5	4	20.6	4	-1E+10	1	-1E+10	1	-1E+10	1	-1E+10	1	-1E+10	1	-1E+10	1
4901784	83	C	10/12/2017	10:50	-133.345	43.671	0	334.90	0	5.8780	0	34.0740	4	26.840	0	331.953	0	61.9	4	20.4	4	-1E+10	1	-1E+10	1	-1E+10	1	-1E+10	1	-1E+10	1	-1E+10	1
4901784	83	C	10/12/2017	10:50	-133.345	43.671	0	337.70	0	5.8510	0	34.0750	4	26.844	0	334.726	0	61.3	4	20.2	4	-1E+10	1	-1E+10	1	-1E+10	1	-1E+10	1	-1E+10	1	-1E+10	1
4901784	83	C	10/12/2017	10:50	-133.345	43.671	0	340.60	0	5.8430	0	34.0760	4	26.846	0	337.598	0	61.0	4	20.1	4	-1E+10	1	-1E+10	1	-1E+10	1	-1E+10	1	-1E+10	1	-1E+10	1
4901784	83	C	10/12/2017	10:50	-133.345	43.671	0	342.50	0	5.8040	0	34.0780	4	26.852	0	339.480	0	61.2	4	20.1	4	-1E+10	1	-1E+10	1	-1E+10	1	-1E+10	1	-1E+10	1	-1E+10	1
4901784	83	C	10/12/2017	10:50	-133.345	43.671	0	344.40	0	5.7950	0	34.0780	4	26.853	0	341.362	0	61.4	4	20.2	4	-1E+10	1	-1E+10	1	-1E+10	1	-1E+10	1	-1E+10	1	-1E+10	1
4901784	83	C	10/12/2017	10:50	-133.345	43.671	0	346.90	0	5.7890	0	34.0740	4	26.851	0	343.838	0	62.1	4	20.5	4	-1E+10	1	-1E+10	1	-1E+10	1	-1E+10	1	-1E+10	1	-1E+10	1
4901784	83	C	10/12/2017	10:50	-133.345	43.671	0	349.60	0	5.7410	0	34.0730	4	26.856	0	346.512	0	62.6	4	20.6	4	-1E+10	1	-1E+10	1	-1E+10	1	-1E+10	1	-1E+10	1	-1E+10	1
4901784	83	C	10/12/2017	10:50	-133.345	43.671	0	352.80	0	5.7330	0	34.0720	4	26.856	0	349.681	0	63.7	4	20.9	4	-1E+10	1	-1E+10	1	-1E+10	1	-1E+10	1	-1E+10	1	-1E+10	1
4901784	83	C	10/12/2017	10:50	-133.345	43.671	0	355.20	0	5.7190	0	34.0730	4	26.859	0	352.057	0	64.9	4	21.3	4	-1E+10	1	-1E+10	1	-1E+10	1	-1E+10	1	-1E+10	1	-1E+10	1
4901784	83	C	10/12/2017	10:50	-133.345	43.671	0	357.60	0	5.6750	0	34.0670	4	26.860	0	354.434	0	67.5	4	22.2	4	-1E+10	1	-1E+10	1	-1E+10	1	-1E+10	1	-1E+10	1	-1E+10	1
4901784	83	C	10/12/2017	10:50	-133.345	43.671	0	360.00	0	5.5210	0	34.0550	4	26.869	0	356.811	0	70.2	4	23.0	4	-1E+10	1	-1E+10	1	-1E+10	1	-1E+10	1	-1E+10	1	-1E+10	1
4901784	83	C	10/12/2017	10:50	-133.345	43.671	0	362.50	0	5.4220	0	34.0470	4	26.874	0	359.286	0	70.5	4	23.0	4	-1E+10	1	-1E+10	1	-1E+10	1	-1E+10	1	-1E+10	1	-1E+10	1
4901784	83	C	10/12/2017	10:50	-133.345	43.671	0	364.90	0	5.3990	0	34.0440	4	26.874	0	361.663	0	68.9	4	22.5	4	-1E+10	1	-1E+10	1	-1E+10	1	-1E+10	1	-1E+10	1	-1E+10	1
4901784	83	C	10/12/2017	10:50	-133.345	43.671	0	367.40	0	5.4320	0	34.0550	4	26.879	0	364.139	0	68.1	4	22.2	4	-1E+10	1	-1E+10	1	-1E+10	1	-1E+10	1	-1E+10	1	-1E+10	1
4901784	83	C	10/12/2017	10:50	-133.345	43.671	0	370.00	0	5.3800	0	34.0520	4	26.883	0	366.713	0	68.0	4	22.2	4	-1E+10	1	-1E+10	1	-1E+10	1	-1E+10	1	-1E+10	1	-1E+10	1
4901784	83	C	10/12/2017	10:50	-133.345	43.671	0	372.50	0	5.3740	0	34.0510	4	26.883	0	369.189	0	67.3	4	21.9	4	-1E+10	1	-1E+10	1	-1E+10	1	-1E+10	1	-1E+10	1	-1E+10	1
4901784	83	C	10/12/2017	10:50	-133.345	43.671	0	374.90	0	5.3570	0	34.0550	4	26.888	0	371.565	0	66.3	4	21.6	4	-1E+10	1	-1E+10	1	-1E+10	1	-1E+10	1	-1E+10	1	-1E+10	1
4901784	83	C	10/12/2017	10:50	-133.345	43.671	0	377.50	0	5.3540	0	34.0550	4	26.889	0	374.140	0	65.3	4	21.3	4	-1E+10	1	-1E+10	1	-1E+10	1	-1E+10	1	-1E+10	1	-1E+10	1
4901784	83	C	10/12/2017	10:50	-133.345	43.671	0	380.00	0	5.3360	0	34.0550	4	26.891	0	376.615	0	64.1	4	20.9	4	-1E+10	1	-1E+10	1	-1E+10	1	-1E+10	1	-1E+10	1	-1E+10	1
4901784	83	C	10/12/2017	10:50	-133.345	43.671	0	382.50	0	5.3260	0	34.0580	4	26.894	0	379.091	0	62.5	4	20.4	4	-1E+10	1	-1E+10	1	-1E+10	1	-1E+10	1	-1E+10	1	-1E+10	1
4901784	83	C	10/12/2017	10:50	-133.345	43.671	0	385.00	0	5.3010	0	34.0650	4	26.903	0	381.566	0	61.0	4	19.9	4	-1E+10	1	-1E+10	1	-1E+10	1	-1E+10	1	-1E+10	1	-1E+10	1
4901784	83	C	10/12/2017	10:50	-133.345	43.671	0	387.50	0	5.2740	0	34.0680	4	26.908	0	384.042	0	60.0	4	19.5	4	-1E+10	1	-1E+10	1	-1E+10	1	-1E+10	1	-1E+10	1	-1E+10	1
4901784	83	C	10/12/2017	10:50	-133.345	43.671	0	390.00	0	5.2590	0	34.0700	4	26.912	0	386.517	0	59.2	4	19.2	4	-1E+10	1	-1E+10	1	-1E+10	1	-1E+10	1	-1E+10	1	-1E+10	1
4901784	83	C	10/12/2017	10:50	-133.345	43.671	0	392.40	0	5.2370	0	34.0720	4	26.916	0	388.893	0	58.3	4	18.9	4	-1E+10	1	-1E+10	1	-1E+10	1	-1E+10	1	-1E+10	1	-1E+10	1
4901784	83	C	10/12/2017	10:50	-133.345	43.671	0	394.90	0	5.2150	0	34.0750	4	26.921	0	391.369	0	57.2	4	18.6	4	-1E+10	1	-1E+10	1	-1E+10	1	-1E+10	1	-1E+10	1	-1E+10	1
4901784	83	C	10/12/2017	10:50	-133.345	43.671	0	397.50	0	5.2040	0	34.0780	4	26.925	0	393.943	0	56.1	4	18.2	4	-1E+10	1	-1E+10	1	-1E+10	1	-1E+10	1	-1E+10	1	-1E+10	1
4901784	83	C	10/12/2017	10:50	-133.345	43.671	0	400.00	0	5.2020	0	34.0800	4	26.926	0	396.418	0	54.9	4	17.8	4	-1E+10	1	-1E+10	1	-1E+10	1	-1E+10	1	-1E+10	1	-1E+10	1
4901784	83	C	10/12/2017	10:50	-133.345	43.671	0	402.50	0	5.1920	0	34.0850	4	26.932	0	398.893	0	54.1	4	17.6	4	-1E+10	1	-1E+10	1	-1E+10	1	-1E+10	1	-1E+10	1	-1E+10	1
4901784	83	C	10/12/2017	10:50	-133.345	43.671	0	405.10	0	5.1870	0	34.0840	4	26.931	0	401.468	0	53.4	4	17.3	4	-1E+10	1	-1E+10	1	-1E+10	1	-1E+10	1	-1E+10	1	-1E+10	1
4901784	83	C	10/12/2017	10:50	-133.345	43.671	0	407.80	0	5.1630	0	34.0870	4	26.937	0	404.141	0	52.2	4	16.9	4	-1E+10	1	-1E+10	1	-1E+10	1	-1E+10	1	-1E+10	1	-1E+10	1
4901784	83	C	10/12/2017	10:50	-133.345	43.671	0	410.40	0	5.1650	0	34.0900	4	26.939	0	406.715	0	50.7	4	16.5	4	-1E+10	1	-1E+10	1	-1E+10	1	-1E+10	1	-1E+10	1	-1E+10	1
4901784	83	C	10/12/2017	10:50	-133.345	43.671	0	412.10	0	5.1750	0	34.0960	4	26.942	0	408.398	0	49.9	4	16.2	4	-1E+10	1	-1E+10	1	-1E+10	1	-1E+10	1	-1E+10	1	-1E+10	1
4901784	83	C	10/12/2017	10:50	-133.345	43.671	0	414.70	0	5.1580	0	34.1010	4	26.948	0	410.972	0	49.0	4	15.9	4	-1E+10	1	-1E+10	1	-1E+10	1	-1E+10	1	-1E+10	1	-1E+10	1
4901784	83	C	10/12/2017	10:50	-133.345	43.671	0	417.30	0	5.1420	0	34.1030	4	26.952	0	413.546	0	48.2	4	15.6	4	-1E+10	1	-1E+10	1	-1E+10	1	-1E+10	1	-1E+10	1	-1E+10	1
4901784	83	C	10/12/2017	10:50	-133.345	43.671	0	419.90	0	5.1430	0	34.1040	4	26.952	0	416.120	0	47.1	4	15.3	4	-1E+10	1	-1E+10	1	-1E+10	1	-1E+10	1	-1E+10	1	-1E+10	1
4901784	83	C	10/12/2017	10:50	-133.345	43.671	0	422.40	0	5.1390	0	34.1090	4	26.957	0	418.595	0	45.9	4	14.9	4	-1E+10	1	-1E+10	1	-1E+10	1	-1E+10	1	-1E+10	1	-1E+10	1
4901784	83	C	10/12/2017	10:50	-133.345	43.671	0	425.00	0	5.1460	0	34.1140	4	26.960	0	421.169	0	44.6	4	14.5	4	-1E+10	1	-1E+10	1	-1E+10	1	-1E+10	1	-1E+10	1	-1E+10	1
4901784	83	C	10/12/2017	10:50	-133.345	43.671	0	427.60	0	5.1540	0	34.1200	4	26.964	0	423.743	0	43.6	4	14.2	4	-1E+10	1	-1E+10	1	-1E+10	1	-1E+10	1	-1E+10	1	-1E+10	1
4901784	83	C	10/12/2017	10:50	-133.345	43.671	0	430.20	0	5.1480	0	34.1240	4	26.968	0	426.317	0	43.4	4	14.1	4	-1E+10	1	-1E+10	1	-1E+10	1	-1E+10	1	-1E+10	1	-1E+10	1
4901784	83	C	10/12/2017	10:50	-133.345	43.671	0	432.80	0	5.1120	0	34.1230	4	26.971	0	428.891	0	43.2	4	14.0	4	-1E+10	1	-1E+10	1	-1E+10	1	-1E+10	1	-1E+10	1	-1E+10	1
4901784	83	C	10/12/2017	10:50	-133.345	43.671	0	434.50	0	5.1020	0	34.1230	4	26.972	0	430.573	0	43.0	4	13.9	4	-1E+10	1	-1E+10	1	-1E+10	1	-1E+10	1	-1E+10	1	-1E+10	1
4901784	83	C	10/12/2017	10:50	-133.345	43.671	0	437.10	0	5.0790	0	34.1240	4	26.976	0	433.147	0	42.6	4	13.8	4	-1E+10	1	-1E+10	1	-1E+10	1	-1E+10	1	-1E+10	1	-1E+10	1
4901784	83	C	10/12/2017	10:50	-133.345	43.671	0	439.80	0	5.0720	0	34.1270	4	26.979	0	435.820	0	42.1	4	13.6	4	-1E+10	1	-1E+10	1	-1E+10	1	-1E+10	1	-1E+10	1	-1E+10	1
4901784	83	C	10/12/2017	10:50	-133.345	43.671	0	442.40	0	5.0520	0	34.1280	4	26.982	0	438.394	0	41.5	4	13.4	4	-1E+10	1	-1E+10	1	-1E+10	1	-1E+10	1	-1E+10	1	-1E+10	1
4901784	83	C	10/12/2017	10:50	-133.345	43.671	0	445.10	0	5.0320	0	34.1330	4	26.988	0	441.066	0	41.0	4	13.3	4	-1E+10	1	-1E+10	1	-1E+10	1	-1E+10	1	-1E+10	1	-1E+10	1
4901784	83	C	10/12/2017	10:50	-133.345	43.671	0	447.80	0	5.0150	0	34.1330	4	26.990	0	443.739	0	40.7	4	13.2	4	-1E+10	1	-1E+10	1	-1E+10	1	-1E+10	1	-1E+10	1	-1E+10	1
4901784	83	C	10/12/2017	10:50	-133.345	43.671	0	450.40	0	5.0080	0	34.1340	4	26.992	0	446.313	0	40.3	4	13.0	4	-1E+10	1	-1E+10	1	-1E+10	1	-1E+10	1	-1E+10	1	-1E+10	1
4901784	83	C	10/12/2017	10:50	-133.345	43.671	0	452.20	0	5.0080	0	34.1360	4	26.994	0	448.094	0	40.1	4	13.0	4	-1E+10	1	-1E+10	1	-1E+10	1	-1E+10	1	-1E+10	1	-1E+10	1
4901784	83	C	10/12/2017	10:50	-133.345	43.671	0	454.90	0	4.9400	0	34.1360	4	27.001	0	450.767	0	40.2	4	13.0	4	-1E+10	1	-1E+10	1	-1E+10	1	-1E+10	1	-1E+10	1	-1E+10	1
4901784	83	C	10/12/2017	10:50	-133.345	43.671	0	457.60	0	4.9120	0	34.1380	4	27.006	0	453.440	0	40.0	4	12.9	4	-1E+10	1	-1E+10	1	-1E+10	1	-1E+10	1	-1E+10	1	-1E+10	1
4901784	83	C	10/12/2017	10:50	-133.345	43.671	0	460.30	0	4.9170	0	34.1400	4	27.007	0	456.112	0	39.7	4	12.8	4	-1E+10	1	-1E+10	1	-1E+10	1	-1E+10	1	-1E+10	1	-1E+10	1
4901784	83	C	10/12/2017	10:50	-133.345	43.671	0	463.00	0	4.9060	0	34.1400	4	27.008	0	458.784	0	39.9	4	12.9	4	-1E+10	1	-1E+10	1	-1E+10	1	-1E+10	1	-1E+10	1	-1E+10	1
4901784	83	C	10/12/2017	10:50	-133.345	43.671	0	464.80	0	4.8610	0	34.1390	4	27.013	0	460.566	0	39.8	4	12.8	4	-1E+10	1	-1E+10	1	-1E+10	1	-1E+10	1	-1E+10	1	-1E+10	1
4901784	83	C	10/12/2017	10:50	-133.345	43.671	0	467.50	0	4.8470	0	34.1390	4	27.014	0	463.238	0	39.2	4	12.6	4	-1E+10	1	-1E+10	1	-1E+10	1	-1E+10	1	-1E+10	1	-1E+10	1
4901784	83	C	10/12/2017	10:50	-133.345	43.671	0	470.20	0	4.8380	0	34.1390	4	27.015	0	465.911	0	38.5	4	12.4	4	-1E+10	1	-1E+10	1	-1E+10	1	-1E+10	1	-1E+10	1	-1E+10	1
4901784	83	C	10/12/2017	10:50	-133.345	43.671	0	472.10	0	4.8270	0	34.1440	4	27.020	0	467.791	0	37.8	4	12.2	4	-1E+10	1	-1E+10	1	-1E+10	1	-1E+10	1	-1E+10	1	-1E+10	1
4901784	83	C	10/12/2017	10:50	-133.345	43.671	0	474.80	0	4.8230	0	34.1470	4	27.023	0	470.464	0	37.0	4	11.9	4	-1E+10	1	-1E+10	1	-1E+10	1	-1E+10	1	-1E+10	1	-1E+10	1
4901784	83	C	10/12/2017	10:50	-133.345	43.671	0	477.50	0	4.8180	0	34.1480	4	27.025	0	473.136	0	36.2	4	11.6	4	-1E+10	1	-1E+10	1	-1E+10	1	-1E+10	1	-1E+10	1	-1E+10	1
4901784	83	C	10/12/2017	10:50	-133.345	43.671	0	480.30	0	4.8230	0	34.1550	4	27.030	0	475.907	0	35.6	4	11.5	4	-1E+10	1	-1E+10	1	-1E+10	1	-1E+10	1	-1E+10	1	-1E+10	1
4901784	83	C	10/12/2017	10:50	-133.345	43.671	0	483.00	0	4.8150	0	34.1560	4	27.031	0	478.579	0	35.4	4	11.4	4	-1E+10	1	-1E+10	1	-1E+10	1	-1E+10	1	-1E+10	1	-1E+10	1
4901784	83	C	10/12/2017	10:50	-133.345	43.671	0	484.90	0	4.8130	0	34.1570	4	27.032	0	480.460	0	35.1	4	11.3	4	-1E+10	1	-1E+10	1	-1E+10	1	-1E+10	1	-1E+10	1	-1E+10	1
4901784	83	C	10/12/2017	10:50	-133.345	43.671	0	487.60	0	4.8100	0	34.1580	4	27.034	0	483.132	0	34.9	4	11.2	4	-1E+10	1	-1E+10	1	-1E+10	1	-1E+10	1	-1E+10	1	-1E+10	1
4901784	83	C	10/12/2017	10:50	-133.345	43.671	0	490.40	0	4.7980	0	34.1590	4	27.036	0	485.903	0	34.5	4	11.1	4	-1E+10	1	-1E+10	1	-1E+10	1	-1E+10	1	-1E+10	1	-1E+10	1
4901784	83	C	10/12/2017	10:50	-133.345	43.671	0	492.10	0	4.7960	0	34.1600	4	27.037	0	487.585	0	34.1	4	11.0	4	-1E+10	1	-1E+10	1	-1E+10	1	-1E+10	1	-1E+10	1	-1E+10	1
4901784	83	C	10/12/2017	10:50	-133.345	43.671	0	494.90	0	4.8000	0	34.1620	4	27.038	0	490.356	0	33.7	4	10.8	4	-1E+10	1	-1E+10	1	-1E+10	1	-1E+10	1	-1E+10	1	-1E+10	1
4901784	83	C	10/12/2017	10:50	-133.345	43.671	0	497.70	0	4.7920	0	34.1640	4	27.040	0	493.127	0	33.3	4	10.7	4	-1E+10	1	-1E+10	1	-1E+10	1	-1E+10	1	-1E+10	1	-1E+10	1
4901784	83	C	10/12/2017	10:50	-133.345	43.671	0	499.60	0	4.7830	0	34.1650	4	27.042	0	495.008	0	33.1	4	10.6	4	-1E+10	1	-1E+10	1	-1E+10	1	-1E+10	1	-1E+10	1	-1E+10	1
4901784	83	C	10/12/2017	10:50	-133.345	43.671	0	505.20	0	4.7380	0	34.1650	4	27.047	0	500.549	0	32.3	4	10.4	4	-1E+10	1	-1E+10	1	-1E+10	1	-1E+10	1	-1E+10	1	-1E+10	1
4901784	83	C	10/12/2017	10:50	-133.345	43.671	0	509.80	0	4.7040	0	34.1680	4	27.053	0	505.101	0	31.5	4	10.1	4	-1E+10	1	-1E+10	1	-1E+10	1	-1E+10	1	-1E+10	1	-1E+10	1
4901784	83	C	10/12/2017	10:50	-133.345	43.671	0	514.40	0	4.6940	0	34.1710	4	27.057	0	509.653	0	30.8	4	9.9	4	-1E+10	1	-1E+10	1	-1E+10	1	-1E+10	1	-1E+10	1	-1E+10	1
4901784	83	C	10/12/2017	10:50	-133.345	43.671	0	519.90	0	4.6830	0	34.1730	4	27.060	0	515.096	0	30.1	4	9.7	4	-1E+10	1	-1E+10	1	-1E+10	1	-1E+10	1	-1E+10	1	-1E+10	1
4901784	83	C	10/12/2017	10:50	-133.345	43.671	0	525.50	0	4.6300	0	34.1730	4	27.066	0	520.637	0	29.0	4	9.3	4	-1E+10	1	-1E+10	1	-1E+10	1	-1E+10	1	-1E+10	1	-1E+10	1
4901784	83	C	10/12/2017	10:50	-133.345	43.671	0	530.20	0	4.6330	0	34.1840	4	27.074	0	525.288	0	27.9	4	8.9	4	-1E+10	1	-1E+10	1	-1E+10	1	-1E+10	1	-1E+10	1	-1E+10	1
4901784	83	C	10/12/2017	10:50	-133.345	43.671	0	534.80	0	4.6150	0	34.1850	4	27.077	0	529.839	0	27.4	4	8.8	4	-1E+10	1	-1E+10	1	-1E+10	1	-1E+10	1	-1E+10	1	-1E+10	1
4901784	83	C	10/12/2017	10:50	-133.345	43.671	0	540.30	0	4.5750	0	34.1870	4	27.083	0	535.281	0	26.6	4	8.5	4	-1E+10	1	-1E+10	1	-1E+10	1	-1E+10	1	-1E+10	1	-1E+10	1
4901784	83	C	10/12/2017	10:50	-133.345	43.671	0	545.00	0	4.6070	0	34.1970	4	27.087	0	539.931	0	25.5	4	8.2	4	-1E+10	1	-1E+10	1	-1E+10	1	-1E+10	1	-1E+10	1	-1E+10	1
4901784	83	C	10/12/2017	10:50	-133.345	43.671	0	549.80	0	4.6240	0	34.2030	4	27.090	0	544.680	0	24.8	4	7.9	4	-1E+10	1	-1E+10	1	-1E+10	1	-1E+10	1	-1E+10	1	-1E+10	1
4901784	83	C	10/12/2017	10:50	-133.345	43.671	0	555.50	0	4.5970	0	34.2050	4	27.095	0	550.320	0	24.0	4	7.7	4	-1E+10	1	-1E+10	1	-1E+10	1	-1E+10	1	-1E+10	1	-1E+10	1
4901784	83	C	10/12/2017	10:50	-133.345	43.671	0	560.60	0	4.5870	0	34.2130	4	27.102	0	555.365	0	23.1	4	7.4	4	-1E+10	1	-1E+10	1	-1E+10	1	-1E+10	1	-1E+10	1	-1E+10	1
4901784	83	C	10/12/2017	10:50	-133.345	43.671	0	565.10	0	4.5890	0	34.2190	4	27.107	0	559.817	0	22.4	4	7.2	4	-1E+10	1	-1E+10	1	-1E+10	1	-1E+10	1	-1E+10	1	-1E+10	1
4901784	83	C	10/12/2017	10:50	-133.345	43.671	0	569.90	0	4.5520	0	34.2210	4	27.113	0	564.566	0	22.3	4	7.1	4	-1E+10	1	-1E+10	1	-1E+10	1	-1E+10	1	-1E+10	1	-1E+10	1
4901784	83	C	10/12/2017	10:50	-133.345	43.671	0	574.70	0	4.5220	0	34.2220	4	27.117	0	569.315	0	21.9	4	7.0	4	-1E+10	1	-1E+10	1	-1E+10	1	-1E+10	1	-1E+10	1	-1E+10	1
4901784	83	C	10/12/2017	10:50	-133.345	43.671	0	579.70	0	4.5160	0	34.2270	4	27.121	0	574.261	0	21.5	4	6.9	4	-1E+10	1	-1E+10	1	-1E+10	1	-1E+10	1	-1E+10	1	-1E+10	1
4901784	83	C	10/12/2017	10:50	-133.345	43.671	0	584.60	0	4.5060	0	34.2270	4	27.123	0	579.108	0	21.2	4	6.8	4	-1E+10	1	-1E+10	1	-1E+10	1	-1E+10	1	-1E+10	1	-1E+10	1
4901784	83	C	10/12/2017	10:50	-133.345	43.671	0	589.50	0	4.4930	0	34.2330	4	27.129	0	583.955	0	20.9	4	6.7	4	-1E+10	1	-1E+10	1	-1E+10	1	-1E+10	1	-1E+10	1	-1E+10	1
4901784	83	C	10/12/2017	10:50	-133.345	43.671	0	594.40	0	4.4750	0	34.2370	4	27.134	0	588.802	0	20.6	4	6.6	4	-1E+10	1	-1E+10	1	-1E+10	1	-1E+10	1	-1E+10	1	-1E+10	1
4901784	83	C	10/12/2017	10:50	-133.345	43.671	0	599.30	0	4.4540	0	34.2370	4	27.136	0	593.649	0	20.4	4	6.5	4	-1E+10	1	-1E+10	1	-1E+10	1	-1E+10	1	-1E+10	1	-1E+10	1
4901784	83	C	10/12/2017	10:50	-133.345	43.671	0	604.20	0	4.4130	0	34.2380	4	27.141	0	598.496	0	20.3	4	6.5	4	-1E+10	1	-1E+10	1	-1E+10	1	-1E+10	1	-1E+10	1	-1E+10	1
4901784	83	C	10/12/2017	10:50	-133.345	43.671	0	610.00	0	4.3930	0	34.2420	4	27.147	0	604.233	0	19.9	4	6.4	4	-1E+10	1	-1E+10	1	-1E+10	1	-1E+10	1	-1E+10	1	-1E+10	1
4901784	83	C	10/12/2017	10:50	-133.345	43.671	0	615.80	0	4.3800	0	34.2480	4	27.153	0	609.969	0	19.1	4	6.1	4	-1E+10	1	-1E+10	1	-1E+10	1	-1E+10	1	-1E+10	1	-1E+10	1
4901784	83	C	10/12/2017	10:50	-133.345	43.671	0	620.00	0	4.3730	0	34.2520	4	27.157	0	614.123	0	18.5	4	5.9	4	-1E+10	1	-1E+10	1	-1E+10	1	-1E+10	1	-1E+10	1	-1E+10	1
4901784	83	C	10/12/2017	10:50	-133.345	43.671	0	624.20	0	4.3720	0	34.2560	4	27.160	0	618.277	0	18.1	4	5.8	4	-1E+10	1	-1E+10	1	-1E+10	1	-1E+10	1	-1E+10	1	-1E+10	1
4901784	83	C	10/12/2017	10:50	-133.345	43.671	0	629.40	0	4.3520	0	34.2600	4	27.166	0	623.420	0	17.5	4	5.6	4	-1E+10	1	-1E+10	1	-1E+10	1	-1E+10	1	-1E+10	1	-1E+10	1
4901784	83	C	10/12/2017	10:50	-133.345	43.671	0	634.50	0	4.3330	0	34.2660	4	27.172	0	628.464	0	17.2	4	5.5	4	-1E+10	1	-1E+10	1	-1E+10	1	-1E+10	1	-1E+10	1	-1E+10	1
4901784	83	C	10/12/2017	10:50	-133.345	43.671	0	639.70	0	4.2780	0	34.2670	4	27.179	0	633.607	0	17.1	4	5.5	4	-1E+10	1	-1E+10	1	-1E+10	1	-1E+10	1	-1E+10	1	-1E+10	1
4901784	83	C	10/12/2017	10:50	-133.345	43.671	0	644.80	0	4.2370	0	34.2660	4	27.183	0	638.650	0	17.0	4	5.4	4	-1E+10	1	-1E+10	1	-1E+10	1	-1E+10	1	-1E+10	1	-1E+10	1
4901784	83	C	10/12/2017	10:50	-133.345	43.671	0	649.90	0	4.1930	0	34.2730	4	27.193	0	643.694	0	16.6	4	5.3	4	-1E+10	1	-1E+10	1	-1E+10	1	-1E+10	1	-1E+10	1	-1E+10	1
4901784	83	C	10/12/2017	10:50	-133.345	43.671	0	655.20	0	4.2020	0	34.2790	4	27.197	0	648.935	0	16.0	4	5.1	4	-1E+10	1	-1E+10	1	-1E+10	1	-1E+10	1	-1E+10	1	-1E+10	1
4901784	83	C	10/12/2017	10:50	-133.345	43.671	0	660.50	0	4.2020	0	34.2830	4	27.200	0	654.176	0	15.7	4	5.0	4	-1E+10	1	-1E+10	1	-1E+10	1	-1E+10	1	-1E+10	1	-1E+10	1
4901784	83	C	10/12/2017	10:50	-133.345	43.671	0	664.90	0	4.1890	0	34.2860	4	27.204	0	658.527	0	15.3	4	4.9	4	-1E+10	1	-1E+10	1	-1E+10	1	-1E+10	1	-1E+10	1	-1E+10	1
4901784	83	C	10/12/2017	10:50	-133.345	43.671	0	669.40	0	4.2200	0	34.2940	4	27.207	0	662.976	0	14.9	4	4.7	4	-1E+10	1	-1E+10	1	-1E+10	1	-1E+10	1	-1E+10	1	-1E+10	1
4901784	83	C	10/12/2017	10:50	-133.345	43.671	0	674.80	0	4.1960	0	34.2930	4	27.209	0	668.316	0	14.8	4	4.7	4	-1E+10	1	-1E+10	1	-1E+10	1	-1E+10	1	-1E+10	1	-1E+10	1
4901784	83	C	10/12/2017	10:50	-133.345	43.671	0	680.20	0	4.1650	0	34.2980	4	27.216	0	673.655	0	14.7	4	4.7	4	-1E+10	1	-1E+10	1	-1E+10	1	-1E+10	1	-1E+10	1	-1E+10	1
4901784	83	C	10/12/2017	10:50	-133.345	43.671	0	684.70	0	4.1180	0	34.2980	4	27.221	0	678.105	0	14.7	4	4.6	4	-1E+10	1	-1E+10	1	-1E+10	1	-1E+10	1	-1E+10	1	-1E+10	1
4901784	83	C	10/12/2017	10:50	-133.345	43.671	0	689.30	0	4.1060	0	34.3010	4	27.225	0	682.653	0	14.4	4	4.6	4	-1E+10	1	-1E+10	1	-1E+10	1	-1E+10	1	-1E+10	1	-1E+10	1
4901784	83	C	10/12/2017	10:50	-133.345	43.671	0	694.90	0	4.0890	0	34.3050	4	27.229	0	688.190	0	14.0	4	4.4	4	-1E+10	1	-1E+10	1	-1E+10	1	-1E+10	1	-1E+10	1	-1E+10	1
4901784	83	C	10/12/2017	10:50	-133.345	43.671	0	700.50	0	4.1160	0	34.3150	4	27.235	0	693.726	0	13.2	4	4.2	4	-1E+10	1	-1E+10	1	-1E+10	1	-1E+10	1	-1E+10	1	-1E+10	1
4901784	83	C	10/12/2017	10:50	-133.345	43.671	0	705.10	0	4.1430	0	34.3240	4	27.239	0	698.274	0	12.8	4	4.1	4	-1E+10	1	-1E+10	1	-1E+10	1	-1E+10	1	-1E+10	1	-1E+10	1
4901784	83	C	10/12/2017	10:50	-133.345	43.671	0	709.80	0	4.1320	0	34.3310	4	27.246	0	702.921	0	12.8	4	4.1	4	-1E+10	1	-1E+10	1	-1E+10	1	-1E+10	1	-1E+10	1	-1E+10	1
4901784	83	C	10/12/2017	10:50	-133.345	43.671	0	715.20	0	4.0820	0	34.3280	4	27.249	0	708.259	0	13.2	4	4.2	4	-1E+10	1	-1E+10	1	-1E+10	1	-1E+10	1	-1E+10	1	-1E+10	1
4901784	83	C	10/12/2017	10:50	-133.345	43.671	0	719.50	0	4.0360	0	34.3240	4	27.250	0	712.510	0	13.4	4	4.2	4	-1E+10	1	-1E+10	1	-1E+10	1	-1E+10	1	-1E+10	1	-1E+10	1
4901784	83	C	10/12/2017	10:50	-133.345	43.671	0	724.30	0	3.9920	0	34.3210	4	27.252	0	717.255	0	13.5	4	4.3	4	-1E+10	1	-1E+10	1	-1E+10	1	-1E+10	1	-1E+10	1	-1E+10	1
4901784	83	C	10/12/2017	10:50	-133.345	43.671	0	730.00	0	3.9740	0	34.3260	4	27.258	0	722.890	0	13.1	4	4.1	4	-1E+10	1	-1E+10	1	-1E+10	1	-1E+10	1	-1E+10	1	-1E+10	1
4901784	83	C	10/12/2017	10:50	-133.345	43.671	0	735.70	0	3.9800	0	34.3310	4	27.262	0	728.524	0	12.9	4	4.1	4	-1E+10	1	-1E+10	1	-1E+10	1	-1E+10	1	-1E+10	1	-1E+10	1
4901784	83	C	10/12/2017	10:50	-133.345	43.671	0	740.60	0	3.9510	0	34.3330	4	27.266	0	733.368	0	12.9	4	4.1	4	-1E+10	1	-1E+10	1	-1E+10	1	-1E+10	1	-1E+10	1	-1E+10	1
4901784	83	C	10/12/2017	10:50	-133.345	43.671	0	745.60	0	3.9260	0	34.3340	4	27.270	0	738.310	0	12.8	4	4.0	4	-1E+10	1	-1E+10	1	-1E+10	1	-1E+10	1	-1E+10	1	-1E+10	1
4901784	83	C	10/12/2017	10:50	-133.345	43.671	0	750.60	0	3.9130	0	34.3370	4	27.273	0	743.253	0	12.7	4	4.0	4	-1E+10	1	-1E+10	1	-1E+10	1	-1E+10	1	-1E+10	1	-1E+10	1
4901784	83	C	10/12/2017	10:50	-133.345	43.671	0	755.60	0	3.8840	0	34.3400	4	27.279	0	748.195	0	12.5	4	3.9	4	-1E+10	1	-1E+10	1	-1E+10	1	-1E+10	1	-1E+10	1	-1E+10	1
4901784	83	C	10/12/2017	10:50	-133.345	43.671	0	760.60	0	3.8680	0	34.3440	4	27.284	0	753.137	0	12.4	4	3.9	4	-1E+10	1	-1E+10	1	-1E+10	1	-1E+10	1	-1E+10	1	-1E+10	1
4901784	83	C	10/12/2017	10:50	-133.345	43.671	0	764.90	0	3.8600	0	34.3450	4	27.285	0	757.387	0	12.3	4	3.9	4	-1E+10	1	-1E+10	1	-1E+10	1	-1E+10	1	-1E+10	1	-1E+10	1
4901784	83	C	10/12/2017	10:50	-133.345	43.671	0	769.20	0	3.8490	0	34.3480	4	27.289	0	761.637	0	12.2	4	3.9	4	-1E+10	1	-1E+10	1	-1E+10	1	-1E+10	1	-1E+10	1	-1E+10	1
4901784	83	C	10/12/2017	10:50	-133.345	43.671	0	774.40	0	3.8370	0	34.3520	4	27.293	0	766.776	0	12.1	4	3.8	4	-1E+10	1	-1E+10	1	-1E+10	1	-1E+10	1	-1E+10	1	-1E+10	1
4901784	83	C	10/12/2017	10:50	-133.345	43.671	0	779.60	0	3.8320	0	34.3580	4	27.298	0	771.915	0	11.9	4	3.8	4	-1E+10	1	-1E+10	1	-1E+10	1	-1E+10	1	-1E+10	1	-1E+10	1
4901784	83	C	10/12/2017	10:50	-133.345	43.671	0	784.90	0	3.8160	0	34.3600	4	27.302	0	777.153	0	11.8	4	3.7	4	-1E+10	1	-1E+10	1	-1E+10	1	-1E+10	1	-1E+10	1	-1E+10	1
4901784	83	C	10/12/2017	10:50	-133.345	43.671	0	790.20	0	3.8030	0	34.3650	4	27.307	0	782.391	0	11.7	4	3.7	4	-1E+10	1	-1E+10	1	-1E+10	1	-1E+10	1	-1E+10	1	-1E+10	1
4901784	83	C	10/12/2017	10:50	-133.345	43.671	0	795.50	0	3.7900	0	34.3670	4	27.310	0	787.628	0	11.6	4	3.7	4	-1E+10	1	-1E+10	1	-1E+10	1	-1E+10	1	-1E+10	1	-1E+10	1
4901784	83	C	10/12/2017	10:50	-133.345	43.671	0	800.00	0	3.7790	0	34.3700	4	27.313	0	792.075	0	11.6	4	3.6	4	-1E+10	1	-1E+10	1	-1E+10	1	-1E+10	1	-1E+10	1	-1E+10	1
4901784	83	C	10/12/2017	10:50	-133.345	43.671	0	804.50	0	3.7700	0	34.3720	4	27.316	0	796.522	0	11.5	4	3.6	4	-1E+10	1	-1E+10	1	-1E+10	1	-1E+10	1	-1E+10	1	-1E+10	1
4901784	83	C	10/12/2017	10:50	-133.345	43.671	0	809.90	0	3.7570	0	34.3760	4	27.320	0	801.858	0	11.4	4	3.6	4	-1E+10	1	-1E+10	1	-1E+10	1	-1E+10	1	-1E+10	1	-1E+10	1
4901784	83	C	10/12/2017	10:50	-133.345	43.671	0	815.40	0	3.7390	0	34.3810	4	27.326	0	807.293	0	11.3	4	3.6	4	-1E+10	1	-1E+10	1	-1E+10	1	-1E+10	1	-1E+10	1	-1E+10	1
4901784	83	C	10/12/2017	10:50	-133.345	43.671	0	820.10	0	3.7260	0	34.3850	4	27.331	0	811.937	0	11.3	4	3.5	4	-1E+10	1	-1E+10	1	-1E+10	1	-1E+10	1	-1E+10	1	-1E+10	1
4901784	83	C	10/12/2017	10:50	-133.345	43.671	0	824.80	0	3.7040	0	34.3890	4	27.336	0	816.581	0	11.2	4	3.5	4	-1E+10	1	-1E+10	1	-1E+10	1	-1E+10	1	-1E+10	1	-1E+10	1
4901784	83	C	10/12/2017	10:50	-133.345	43.671	0	830.40	0	3.6880	0	34.3930	4	27.341	0	822.114	0	11.1	4	3.5	4	-1E+10	1	-1E+10	1	-1E+10	1	-1E+10	1	-1E+10	1	-1E+10	1
4901784	83	C	10/12/2017	10:50	-133.345	43.671	0	835.10	0	3.6770	0	34.3970	4	27.345	0	826.758	0	11.1	4	3.5	4	-1E+10	1	-1E+10	1	-1E+10	1	-1E+10	1	-1E+10	1	-1E+10	1
4901784	83	C	10/12/2017	10:50	-133.345	43.671	0	839.80	0	3.6670	0	34.3990	4	27.348	0	831.402	0	11.1	4	3.5	4	-1E+10	1	-1E+10	1	-1E+10	1	-1E+10	1	-1E+10	1	-1E+10	1
4901784	83	C	10/12/2017	10:50	-133.345	43.671	0	845.50	0	3.6600	0	34.4010	4	27.350	0	837.033	0	11.1	4	3.5	4	-1E+10	1	-1E+10	1	-1E+10	1	-1E+10	1	-1E+10	1	-1E+10	1
4901784	83	C	10/12/2017	10:50	-133.345	43.671	0	850.30	0	3.6570	0	34.4020	4	27.351	0	841.776	0	11.0	4	3.5	4	-1E+10	1	-1E+10	1	-1E+10	1	-1E+10	1	-1E+10	1	-1E+10	1
4901784	83	C	10/12/2017	10:50	-133.345	43.671	0	855.10	0	3.6490	0	34.4040	4	27.354	0	846.518	0	11.0	4	3.5	4	-1E+10	1	-1E+10	1	-1E+10	1	-1E+10	1	-1E+10	1	-1E+10	1
4901784	83	C	10/12/2017	10:50	-133.345	43.671	0	860.50	0	3.6400	0	34.4070	4	27.357	0	851.853	0	11.0	4	3.4	4	-1E+10	1	-1E+10	1	-1E+10	1	-1E+10	1	-1E+10	1	-1E+10	1
4901784	83	C	10/12/2017	10:50	-133.345	43.671	0	865.40	0	3.6390	0	34.4070	4	27.357	0	856.693	0	11.0	4	3.4	4	-1E+10	1	-1E+10	1	-1E+10	1	-1E+10	1	-1E+10	1	-1E+10	1
4901784	83	C	10/12/2017	10:50	-133.345	43.671	0	870.30	0	3.6320	0	34.4100	4	27.360	0	861.534	0	10.9	4	3.4	4	-1E+10	1	-1E+10	1	-1E+10	1	-1E+10	1	-1E+10	1	-1E+10	1
4901784	83	C	10/12/2017	10:50	-133.345	43.671	0	875.30	0	3.6260	0	34.4120	4	27.362	0	866.473	0	10.9	4	3.4	4	-1E+10	1	-1E+10	1	-1E+10	1	-1E+10	1	-1E+10	1	-1E+10	1
4901784	83	C	10/12/2017	10:50	-133.345	43.671	0	880.30	0	3.6180	0	34.4150	4	27.366	0	871.412	0	10.8	4	3.4	4	-1E+10	1	-1E+10	1	-1E+10	1	-1E+10	1	-1E+10	1	-1E+10	1
4901784	83	C	10/12/2017	10:50	-133.345	43.671	0	885.30	0	3.6050	0	34.4200	4	27.371	0	876.352	0	10.8	4	3.4	4	-1E+10	1	-1E+10	1	-1E+10	1	-1E+10	1	-1E+10	1	-1E+10	1
4901784	83	C	10/12/2017	10:50	-133.345	43.671	0	890.30	0	3.5970	0	34.4210	4	27.373	0	881.290	0	10.8	4	3.4	4	-1E+10	1	-1E+10	1	-1E+10	1	-1E+10	1	-1E+10	1	-1E+10	1
4901784	83	C	10/12/2017	10:50	-133.345	43.671	0	895.30	0	3.5850	0	34.4240	4	27.376	0	886.229	0	10.8	4	3.4	4	-1E+10	1	-1E+10	1	-1E+10	1	-1E+10	1	-1E+10	1	-1E+10	1
4901784	83	C	10/12/2017	10:50	-133.345	43.671	0	900.20	0	3.5770	0	34.4250	4	27.378	0	891.069	0	10.9	4	3.4	4	-1E+10	1	-1E+10	1	-1E+10	1	-1E+10	1	-1E+10	1	-1E+10	1
4901784	83	C	10/12/2017	10:50	-133.345	43.671	0	905.10	0	3.5640	0	34.4280	4	27.381	0	895.909	0	11.0	4	3.4	4	-1E+10	1	-1E+10	1	-1E+10	1	-1E+10	1	-1E+10	1	-1E+10	1
4901784	83	C	10/12/2017	10:50	-133.345	43.671	0	910.00	0	3.5550	0	34.4290	4	27.383	0	900.749	0	11.1	4	3.5	4	-1E+10	1	-1E+10	1	-1E+10	1	-1E+10	1	-1E+10	1	-1E+10	1
4901784	83	C	10/12/2017	10:50	-133.345	43.671	0	915.00	0	3.5440	0	34.4300	4	27.385	0	905.687	0	11.1	4	3.5	4	-1E+10	1	-1E+10	1	-1E+10	1	-1E+10	1	-1E+10	1	-1E+10	1
4901784	83	C	10/12/2017	10:50	-133.345	43.671	0	920.00	0	3.5290	0	34.4330	4	27.389	0	910.625	0	11.1	4	3.5	4	-1E+10	1	-1E+10	1	-1E+10	1	-1E+10	1	-1E+10	1	-1E+10	1
4901784	83	C	10/12/2017	10:50	-133.345	43.671	0	925.00	0	3.5140	0	34.4380	4	27.394	0	915.563	0	11.2	4	3.5	4	-1E+10	1	-1E+10	1	-1E+10	1	-1E+10	1	-1E+10	1	-1E+10	1
4901784	83	C	10/12/2017	10:50	-133.345	43.671	0	929.90	0	3.4990	0	34.4390	4	27.397	0	920.403	0	11.2	4	3.5	4	-1E+10	1	-1E+10	1	-1E+10	1	-1E+10	1	-1E+10	1	-1E+10	1
4901784	83	C	10/12/2017	10:50	-133.345	43.671	0	935.00	0	3.4810	0	34.4440	4	27.402	0	925.439	0	11.3	4	3.5	4	-1E+10	1	-1E+10	1	-1E+10	1	-1E+10	1	-1E+10	1	-1E+10	1
4901784	83	C	10/12/2017	10:50	-133.345	43.671	0	940.10	0	3.4730	0	34.4470	4	27.406	0	930.476	0	11.4	4	3.6	4	-1E+10	1	-1E+10	1	-1E+10	1	-1E+10	1	-1E+10	1	-1E+10	1
4901784	83	C	10/12/2017	10:50	-133.345	43.671	0	945.20	0	3.4680	0	34.4490	4	27.408	0	935.512	0	11.5	4	3.6	4	-1E+10	1	-1E+10	1	-1E+10	1	-1E+10	1	-1E+10	1	-1E+10	1
4901784	83	C	10/12/2017	10:50	-133.345	43.671	0	950.20	0	3.4580	0	34.4510	4	27.410	0	940.450	0	11.6	4	3.6	4	-1E+10	1	-1E+10	1	-1E+10	1	-1E+10	1	-1E+10	1	-1E+10	1
4901784	83	C	10/12/2017	10:50	-133.345	43.671	0	955.30	0	3.4440	0	34.4550	4	27.415	0	945.486	0	11.7	4	3.6	4	-1E+10	1	-1E+10	1	-1E+10	1	-1E+10	1	-1E+10	1	-1E+10	1
4901784	83	C	10/12/2017	10:50	-133.345	43.671	0	960.40	0	3.4340	0	34.4590	4	27.419	0	950.522	0	11.7	4	3.7	4	-1E+10	1	-1E+10	1	-1E+10	1	-1E+10	1	-1E+10	1	-1E+10	1
4901784	83	C	10/12/2017	10:50	-133.345	43.671	0	965.60	0	3.4300	0	34.4600	4	27.420	0	955.657	0	11.8	4	3.7	4	-1E+10	1	-1E+10	1	-1E+10	1	-1E+10	1	-1E+10	1	-1E+10	1
4901784	83	C	10/12/2017	10:50	-133.345	43.671	0	970.70	0	3.4210	0	34.4650	4	27.425	0	960.692	0	11.9	4	3.7	4	-1E+10	1	-1E+10	1	-1E+10	1	-1E+10	1	-1E+10	1	-1E+10	1
4901784	83	C	10/12/2017	10:50	-133.345	43.671	0	975.00	0	3.4090	0	34.4660	4	27.427	0	964.938	0	11.9	4	3.7	4	-1E+10	1	-1E+10	1	-1E+10	1	-1E+10	1	-1E+10	1	-1E+10	1
4901784	83	C	10/12/2017	10:50	-133.345	43.671	0	979.30	0	3.4030	0	34.4700	4	27.431	0	969.184	0	12.0	4	3.7	4	-1E+10	1	-1E+10	1	-1E+10	1	-1E+10	1	-1E+10	1	-1E+10	1
4901784	83	C	10/12/2017	10:50	-133.345	43.671	0	984.50	0	3.3920	0	34.4700	4	27.432	0	974.318	0	12.0	4	3.7	4	-1E+10	1	-1E+10	1	-1E+10	1	-1E+10	1	-1E+10	1	-1E+10	1
4901784	83	C	10/12/2017	10:50	-133.345	43.671	0	989.60	0	3.3810	0	34.4710	4	27.434	0	979.353	0	12.0	4	3.8	4	-1E+10	1	-1E+10	1	-1E+10	1	-1E+10	1	-1E+10	1	-1E+10	1
4901784	83	C	10/12/2017	10:50	-133.345	43.671	0	994.80	0	3.3770	0	34.4720	4	27.435	0	984.487	0	12.1	4	3.8	4	-1E+10	1	-1E+10	1	-1E+10	1	-1E+10	1	-1E+10	1	-1E+10	1
4901784	83	C	10/12/2017	10:50	-133.345	43.671	0	1000.00	0	3.3700	0	34.4730	4	27.437	0	989.621	0	12.2	4	3.8	4	-1E+10	1	-1E+10	1	-1E+10	1	-1E+10	1	-1E+10	1	-1E+10	1
4901784	83	C	10/12/2017	10:50	-133.345	43.671	0	1005.10	0	3.3600	0	34.4760	4	27.440	0	994.656	0	12.3	4	3.8	4	-1E+10	1	-1E+10	1	-1E+10	1	-1E+10	1	-1E+10	1	-1E+10	1
4901784	83	C	10/12/2017	10:50	-133.345	43.671	0	1010.30	0	3.3500	0	34.4780	4	27.443	0	999.790	0	12.4	4	3.9	4	-1E+10	1	-1E+10	1	-1E+10	1	-1E+10	1	-1E+10	1	-1E+10	1
4901784	83	C	10/12/2017	10:50	-133.345	43.671	0	1015.40	0	3.3430	0	34.4800	4	27.445	0	1004.824	0	12.5	4	3.9	4	-1E+10	1	-1E+10	1	-1E+10	1	-1E+10	1	-1E+10	1	-1E+10	1
4901784	83	C	10/12/2017	10:50	-133.345	43.671	0	1020.60	0	3.3330	0	34.4830	4	27.448	0	1009.958	0	12.7	4	3.9	4	-1E+10	1	-1E+10	1	-1E+10	1	-1E+10	1	-1E+10	1	-1E+10	1
4901784	83	C	10/12/2017	10:50	-133.345	43.671	0	1024.90	0	3.3250	0	34.4850	4	27.451	0	1014.203	0	12.8	4	4.0	4	-1E+10	1	-1E+10	1	-1E+10	1	-1E+10	1	-1E+10	1	-1E+10	1
4901784	83	C	10/12/2017	10:50	-133.345	43.671	0	1029.20	0	3.3170	0	34.4870	4	27.453	0	1018.447	0	12.8	4	4.0	4	-1E+10	1	-1E+10	1	-1E+10	1	-1E+10	1	-1E+10	1	-1E+10	1
4901784	83	C	10/12/2017	10:50	-133.345	43.671	0	1034.40	0	3.3000	0	34.4890	4	27.456	0	1023.580	0	12.9	4	4.0	4	-1E+10	1	-1E+10	1	-1E+10	1	-1E+10	1	-1E+10	1	-1E+10	1
4901784	83	C	10/12/2017	10:50	-133.345	43.671	0	1039.50	0	3.2940	0	34.4900	4	27.458	0	1028.614	0	12.9	4	4.0	4	-1E+10	1	-1E+10	1	-1E+10	1	-1E+10	1	-1E+10	1	-1E+10	1
4901784	83	C	10/12/2017	10:50	-133.345	43.671	0	1044.60	0	3.2860	0	34.4910	4	27.459	0	1033.648	0	13.0	4	4.0	4	-1E+10	1	-1E+10	1	-1E+10	1	-1E+10	1	-1E+10	1	-1E+10	1
4901784	83	C	10/12/2017	10:50	-133.345	43.671	0	1049.80	0	3.2800	0	34.4930	4	27.461	0	1038.781	0	13.1	4	4.1	4	-1E+10	1	-1E+10	1	-1E+10	1	-1E+10	1	-1E+10	1	-1E+10	1
4901784	83	C	10/12/2017	10:50	-133.345	43.671	0	1055.00	0	3.2710	0	34.4950	4	27.464	0	1043.914	0	13.2	4	4.1	4	-1E+10	1	-1E+10	1	-1E+10	1	-1E+10	1	-1E+10	1	-1E+10	1
4901784	83	C	10/12/2017	10:50	-133.345	43.671	0	1060.30	0	3.2590	0	34.4970	4	27.467	0	1049.145	0	13.4	4	4.2	4	-1E+10	1	-1E+10	1	-1E+10	1	-1E+10	1	-1E+10	1	-1E+10	1
4901784	83	C	10/12/2017	10:50	-133.345	43.671	0	1065.60	0	3.2460	0	34.4990	4	27.469	0	1054.375	0	13.6	4	4.2	4	-1E+10	1	-1E+10	1	-1E+10	1	-1E+10	1	-1E+10	1	-1E+10	1
4901784	83	C	10/12/2017	10:50	-133.345	43.671	0	1070.10	0	3.2370	0	34.5010	4	27.472	0	1058.817	0	13.6	4	4.2	4	-1E+10	1	-1E+10	1	-1E+10	1	-1E+10	1	-1E+10	1	-1E+10	1
4901784	83	C	10/12/2017	10:50	-133.345	43.671	0	1074.70	0	3.2280	0	34.5030	4	27.474	0	1063.357	0	13.7	4	4.3	4	-1E+10	1	-1E+10	1	-1E+10	1	-1E+10	1	-1E+10	1	-1E+10	1
4901784	83	C	10/12/2017	10:50	-133.345	43.671	0	1080.20	0	3.2200	0	34.5040	4	27.476	0	1068.784	0	13.8	4	4.3	4	-1E+10	1	-1E+10	1	-1E+10	1	-1E+10	1	-1E+10	1	-1E+10	1
4901784	83	C	10/12/2017	10:50	-133.345	43.671	0	1085.70	0	3.2140	0	34.5040	4	27.477	0	1074.212	0	14.0	4	4.3	4	-1E+10	1	-1E+10	1	-1E+10	1	-1E+10	1	-1E+10	1	-1E+10	1
4901784	83	C	10/12/2017	10:50	-133.345	43.671	0	1090.20	0	3.2070	0	34.5070	4	27.480	0	1078.653	0	14.2	4	4.4	4	-1E+10	1	-1E+10	1	-1E+10	1	-1E+10	1	-1E+10	1	-1E+10	1
4901784	83	C	10/12/2017	10:50	-133.345	43.671	0	1094.80	0	3.1990	0	34.5100	4	27.483	0	1083.193	0	14.3	4	4.5	4	-1E+10	1	-1E+10	1	-1E+10	1	-1E+10	1	-1E+10	1	-1E+10	1
4901784	83	C	10/12/2017	10:50	-133.345	43.671	0	1100.00	0	3.1980	0	34.5090	4	27.482	0	1088.324	0	14.4	4	4.5	4	-1E+10	1	-1E+10	1	-1E+10	1	-1E+10	1	-1E+10	1	-1E+10	1
4901784	83	C	10/12/2017	10:50	-133.345	43.671	0	1104.30	0	3.1960	0	34.5110	4	27.484	0	1092.567	0	14.5	4	4.5	4	-1E+10	1	-1E+10	1	-1E+10	1	-1E+10	1	-1E+10	1	-1E+10	1
4901784	83	C	10/12/2017	10:50	-133.345	43.671	0	1109.90	0	3.1850	0	34.5120	4	27.486	0	1098.093	0	14.6	4	4.5	4	-1E+10	1	-1E+10	1	-1E+10	1	-1E+10	1	-1E+10	1	-1E+10	1
4901784	83	C	10/12/2017	10:50	-133.345	43.671	0	1115.70	0	3.1770	0	34.5130	4	27.487	0	1103.816	0	14.6	4	4.5	4	-1E+10	1	-1E+10	1	-1E+10	1	-1E+10	1	-1E+10	1	-1E+10	1
4901784	83	C	10/12/2017	10:50	-133.345	43.671	0	1120.60	0	3.1640	0	34.5140	4	27.489	0	1108.651	0	14.7	4	4.6	4	-1E+10	1	-1E+10	1	-1E+10	1	-1E+10	1	-1E+10	1	-1E+10	1
4901784	83	C	10/12/2017	10:50	-133.345	43.671	0	1125.70	0	3.1580	0	34.5160	4	27.492	0	1113.683	0	14.8	4	4.6	4	-1E+10	1	-1E+10	1	-1E+10	1	-1E+10	1	-1E+10	1	-1E+10	1
4901784	83	C	10/12/2017	10:50	-133.345	43.671	0	1130.70	0	3.1480	0	34.5180	4	27.494	0	1118.616	0	14.9	4	4.6	4	-1E+10	1	-1E+10	1	-1E+10	1	-1E+10	1	-1E+10	1	-1E+10	1
4901784	83	C	10/12/2017	10:50	-133.345	43.671	0	1135.20	0	3.1400	0	34.5200	4	27.496	0	1123.056	0	15.0	4	4.7	4	-1E+10	1	-1E+10	1	-1E+10	1	-1E+10	1	-1E+10	1	-1E+10	1
4901784	83	C	10/12/2017	10:50	-133.345	43.671	0	1139.80	0	3.1310	0	34.5200	4	27.497	0	1127.595	0	15.1	4	4.7	4	-1E+10	1	-1E+10	1	-1E+10	1	-1E+10	1	-1E+10	1	-1E+10	1
4901784	83	C	10/12/2017	10:50	-133.345	43.671	0	1145.40	0	3.1240	0	34.5210	4	27.499	0	1133.120	0	15.2	4	4.7	4	-1E+10	1	-1E+10	1	-1E+10	1	-1E+10	1	-1E+10	1	-1E+10	1
4901784	83	C	10/12/2017	10:50	-133.345	43.671	0	1150.00	0	3.1160	0	34.5230	4	27.501	0	1137.658	0	15.2	4	4.7	4	-1E+10	1	-1E+10	1	-1E+10	1	-1E+10	1	-1E+10	1	-1E+10	1
4901784	83	C	10/12/2017	10:50	-133.345	43.671	0	1154.70	0	3.1130	0	34.5230	4	27.501	0	1142.295	0	15.3	4	4.7	4	-1E+10	1	-1E+10	1	-1E+10	1	-1E+10	1	-1E+10	1	-1E+10	1
4901784	83	C	10/12/2017	10:50	-133.345	43.671	0	1160.20	0	3.1020	0	34.5250	4	27.504	0	1147.721	0	15.4	4	4.8	4	-1E+10	1	-1E+10	1	-1E+10	1	-1E+10	1	-1E+10	1	-1E+10	1
4901784	83	C	10/12/2017	10:50	-133.345	43.671	0	1165.30	0	3.0990	0	34.5260	4	27.505	0	1152.752	0	15.5	4	4.8	4	-1E+10	1	-1E+10	1	-1E+10	1	-1E+10	1	-1E+10	1	-1E+10	1
4901784	83	C	10/12/2017	10:50	-133.345	43.671	0	1170.40	0	3.0950	0	34.5260	4	27.506	0	1157.783	0	15.5	4	4.8	4	-1E+10	1	-1E+10	1	-1E+10	1	-1E+10	1	-1E+10	1	-1E+10	1
4901784	83	C	10/12/2017	10:50	-133.345	43.671	0	1175.20	0	3.0840	0	34.5280	4	27.508	0	1162.518	0	15.6	4	4.8	4	-1E+10	1	-1E+10	1	-1E+10	1	-1E+10	1	-1E+10	1	-1E+10	1
4901784	83	C	10/12/2017	10:50	-133.345	43.671	0	1180.10	0	3.0780	0	34.5280	4	27.509	0	1167.351	0	15.7	4	4.8	4	-1E+10	1	-1E+10	1	-1E+10	1	-1E+10	1	-1E+10	1	-1E+10	1
4901784	83	C	10/12/2017	10:50	-133.345	43.671	0	1185.00	0	3.0740	0	34.5300	4	27.511	0	1172.185	0	15.8	4	4.9	4	-1E+10	1	-1E+10	1	-1E+10	1	-1E+10	1	-1E+10	1	-1E+10	1
4901784	83	C	10/12/2017	10:50	-133.345	43.671	0	1189.90	0	3.0700	0	34.5310	4	27.512	0	1177.018	0	15.9	4	4.9	4	-1E+10	1	-1E+10	1	-1E+10	1	-1E+10	1	-1E+10	1	-1E+10	1
4901784	83	C	10/12/2017	10:50	-133.345	43.671	0	1194.90	0	3.0670	0	34.5320	4	27.513	0	1181.950	0	16.1	4	5.0	4	-1E+10	1	-1E+10	1	-1E+10	1	-1E+10	1	-1E+10	1	-1E+10	1
4901784	83	C	10/12/2017	10:50	-133.345	43.671	0	1199.90	0	3.0580	0	34.5320	4	27.514	0	1186.882	0	16.2	4	5.0	4	-1E+10	1	-1E+10	1	-1E+10	1	-1E+10	1	-1E+10	1	-1E+10	1
4901784	83	C	10/12/2017	10:50	-133.345	43.671	0	1204.90	0	3.0460	0	34.5340	4	27.517	0	1191.813	0	16.3	4	5.0	4	-1E+10	1	-1E+10	1	-1E+10	1	-1E+10	1	-1E+10	1	-1E+10	1
4901784	83	C	10/12/2017	10:50	-133.345	43.671	0	1210.00	0	3.0410	0	34.5350	4	27.518	0	1196.843	0	16.4	4	5.1	4	-1E+10	1	-1E+10	1	-1E+10	1	-1E+10	1	-1E+10	1	-1E+10	1
4901784	83	C	10/12/2017	10:50	-133.345	43.671	0	1215.20	0	3.0340	0	34.5360	4	27.519	0	1201.972	0	16.6	4	5.1	4	-1E+10	1	-1E+10	1	-1E+10	1	-1E+10	1	-1E+10	1	-1E+10	1
4901784	83	C	10/12/2017	10:50	-133.345	43.671	0	1220.30	0	3.0190	0	34.5380	4	27.522	0	1207.002	0	16.8	4	5.2	4	-1E+10	1	-1E+10	1	-1E+10	1	-1E+10	1	-1E+10	1	-1E+10	1
4901784	83	C	10/12/2017	10:50	-133.345	43.671	0	1225.50	0	3.0100	0	34.5390	4	27.524	0	1212.130	0	16.9	4	5.2	4	-1E+10	1	-1E+10	1	-1E+10	1	-1E+10	1	-1E+10	1	-1E+10	1
4901784	83	C	10/12/2017	10:50	-133.345	43.671	0	1230.00	0	3.0040	0	34.5400	4	27.525	0	1216.568	0	17.1	4	5.3	4	-1E+10	1	-1E+10	1	-1E+10	1	-1E+10	1	-1E+10	1	-1E+10	1
4901784	83	C	10/12/2017	10:50	-133.345	43.671	0	1234.30	0	2.9950	0	34.5420	4	27.528	0	1220.809	0	17.2	4	5.3	4	-1E+10	1	-1E+10	1	-1E+10	1	-1E+10	1	-1E+10	1	-1E+10	1
4901784	83	C	10/12/2017	10:50	-133.345	43.671	0	1239.60	0	2.9870	0	34.5430	4	27.529	0	1226.035	0	17.3	4	5.4	4	-1E+10	1	-1E+10	1	-1E+10	1	-1E+10	1	-1E+10	1	-1E+10	1
4901784	83	C	10/12/2017	10:50	-133.345	43.671	0	1245.00	0	2.9770	0	34.5450	4	27.532	0	1231.360	0	17.6	4	5.4	4	-1E+10	1	-1E+10	1	-1E+10	1	-1E+10	1	-1E+10	1	-1E+10	1
4901784	83	C	10/12/2017	10:50	-133.345	43.671	0	1250.30	0	2.9660	0	34.5460	4	27.534	0	1236.587	0	17.8	4	5.5	4	-1E+10	1	-1E+10	1	-1E+10	1	-1E+10	1	-1E+10	1	-1E+10	1
4901784	83	C	10/12/2017	10:50	-133.345	43.671	0	1255.30	0	2.9570	0	34.5470	4	27.535	0	1241.517	0	18.1	4	5.6	4	-1E+10	1	-1E+10	1	-1E+10	1	-1E+10	1	-1E+10	1	-1E+10	1
4901784	83	C	10/12/2017	10:50	-133.345	43.671	0	1260.30	0	2.9400	0	34.5510	4	27.540	0	1246.447	0	18.3	4	5.7	4	-1E+10	1	-1E+10	1	-1E+10	1	-1E+10	1	-1E+10	1	-1E+10	1
4901784	83	C	10/12/2017	10:50	-133.345	43.671	0	1265.30	0	2.9300	0	34.5520	4	27.542	0	1251.378	0	18.5	4	5.7	4	-1E+10	1	-1E+10	1	-1E+10	1	-1E+10	1	-1E+10	1	-1E+10	1
4901784	83	C	10/12/2017	10:50	-133.345	43.671	0	1270.30	0	2.9280	0	34.5520	4	27.542	0	1256.308	0	18.7	4	5.8	4	-1E+10	1	-1E+10	1	-1E+10	1	-1E+10	1	-1E+10	1	-1E+10	1
4901784	83	C	10/12/2017	10:50	-133.345	43.671	0	1275.40	0	2.9190	0	34.5540	4	27.544	0	1261.336	0	18.9	4	5.8	4	-1E+10	1	-1E+10	1	-1E+10	1	-1E+10	1	-1E+10	1	-1E+10	1
4901784	83	C	10/12/2017	10:50	-133.345	43.671	0	1280.40	0	2.9070	0	34.5550	4	27.546	0	1266.266	0	19.1	4	5.9	4	-1E+10	1	-1E+10	1	-1E+10	1	-1E+10	1	-1E+10	1	-1E+10	1
4901784	83	C	10/12/2017	10:50	-133.345	43.671	0	1285.70	0	2.8970	0	34.5560	4	27.548	0	1271.491	0	19.3	4	6.0	4	-1E+10	1	-1E+10	1	-1E+10	1	-1E+10	1	-1E+10	1	-1E+10	1
4901784	83	C	10/12/2017	10:50	-133.345	43.671	0	1290.00	0	2.8870	0	34.5580	4	27.551	0	1275.731	0	19.6	4	6.0	4	-1E+10	1	-1E+10	1	-1E+10	1	-1E+10	1	-1E+10	1	-1E+10	1
4901784	83	C	10/12/2017	10:50	-133.345	43.671	0	1294.40	0	2.8730	0	34.5600	4	27.553	0	1280.069	0	19.8	4	6.1	4	-1E+10	1	-1E+10	1	-1E+10	1	-1E+10	1	-1E+10	1	-1E+10	1
4901784	83	C	10/12/2017	10:50	-133.345	43.671	0	1299.60	0	2.8650	0	34.5610	4	27.555	0	1285.195	0	19.9	4	6.1	4	-1E+10	1	-1E+10	1	-1E+10	1	-1E+10	1	-1E+10	1	-1E+10	1
4901784	83	C	10/12/2017	10:50	-133.345	43.671	0	1304.90	0	2.8590	0	34.5610	4	27.556	0	1290.421	0	20.0	4	6.2	4	-1E+10	1	-1E+10	1	-1E+10	1	-1E+10	1	-1E+10	1	-1E+10	1
4901784	83	C	10/12/2017	10:50	-133.345	43.671	0	1310.20	0	2.8540	0	34.5610	4	27.556	0	1295.645	0	20.3	4	6.2	4	-1E+10	1	-1E+10	1	-1E+10	1	-1E+10	1	-1E+10	1	-1E+10	1
4901784	83	C	10/12/2017	10:50	-133.345	43.671	0	1315.40	0	2.8400	0	34.5630	4	27.559	0	1300.772	0	20.6	4	6.3	4	-1E+10	1	-1E+10	1	-1E+10	1	-1E+10	1	-1E+10	1	-1E+10	1
4901784	83	C	10/12/2017	10:50	-133.345	43.671	0	1320.60	0	2.8320	0	34.5650	4	27.561	0	1305.898	0	20.7	4	6.4	4	-1E+10	1	-1E+10	1	-1E+10	1	-1E+10	1	-1E+10	1	-1E+10	1
4901784	83	C	10/12/2017	10:50	-133.345	43.671	0	1325.00	0	2.8290	0	34.5660	4	27.562	0	1310.235	0	20.8	4	6.4	4	-1E+10	1	-1E+10	1	-1E+10	1	-1E+10	1	-1E+10	1	-1E+10	1
4901784	83	C	10/12/2017	10:50	-133.345	43.671	0	1329.40	0	2.8280	0	34.5650	4	27.562	0	1314.572	0	20.8	4	6.4	4	-1E+10	1	-1E+10	1	-1E+10	1	-1E+10	1	-1E+10	1	-1E+10	1
4901784	83	C	10/12/2017	10:50	-133.345	43.671	0	1334.70	0	2.8290	0	34.5650	4	27.562	0	1319.797	0	21.0	4	6.5	4	-1E+10	1	-1E+10	1	-1E+10	1	-1E+10	1	-1E+10	1	-1E+10	1
4901784	83	C	10/12/2017	10:50	-133.345	43.671	0	1339.90	0	2.8170	0	34.5670	4	27.564	0	1324.922	0	21.3	4	6.5	4	-1E+10	1	-1E+10	1	-1E+10	1	-1E+10	1	-1E+10	1	-1E+10	1
4901784	83	C	10/12/2017	10:50	-133.345	43.671	0	1345.30	0	2.8060	0	34.5700	4	27.568	0	1330.245	0	21.5	4	6.6	4	-1E+10	1	-1E+10	1	-1E+10	1	-1E+10	1	-1E+10	1	-1E+10	1
4901784	83	C	10/12/2017	10:50	-133.345	43.671	0	1350.60	0	2.8000	0	34.5720	4	27.570	0	1335.469	0	21.6	4	6.7	4	-1E+10	1	-1E+10	1	-1E+10	1	-1E+10	1	-1E+10	1	-1E+10	1
4901784	83	C	10/12/2017	10:50	-133.345	43.671	0	1355.10	0	2.7960	0	34.5730	4	27.571	0	1339.904	0	21.7	4	6.7	4	-1E+10	1	-1E+10	1	-1E+10	1	-1E+10	1	-1E+10	1	-1E+10	1
4901784	83	C	10/12/2017	10:50	-133.345	43.671	0	1359.60	0	2.7930	0	34.5730	4	27.571	0	1344.339	0	21.9	4	6.7	4	-1E+10	1	-1E+10	1	-1E+10	1	-1E+10	1	-1E+10	1	-1E+10	1
4901784	83	C	10/12/2017	10:50	-133.345	43.671	0	1365.00	0	2.7890	0	34.5730	4	27.572	0	1349.661	0	22.1	4	6.8	4	-1E+10	1	-1E+10	1	-1E+10	1	-1E+10	1	-1E+10	1	-1E+10	1
4901784	83	C	10/12/2017	10:50	-133.345	43.671	0	1370.40	0	2.7770	0	34.5740	4	27.574	0	1354.983	0	22.4	4	6.9	4	-1E+10	1	-1E+10	1	-1E+10	1	-1E+10	1	-1E+10	1	-1E+10	1
4901784	83	C	10/12/2017	10:50	-133.345	43.671	0	1375.00	0	2.7680	0	34.5750	4	27.575	0	1359.517	0	22.6	4	6.9	4	-1E+10	1	-1E+10	1	-1E+10	1	-1E+10	1	-1E+10	1	-1E+10	1
4901784	83	C	10/12/2017	10:50	-133.345	43.671	0	1379.60	0	2.7600	0	34.5770	4	27.578	0	1364.050	0	22.8	4	7.0	4	-1E+10	1	-1E+10	1	-1E+10	1	-1E+10	1	-1E+10	1	-1E+10	1
4901784	83	C	10/12/2017	10:50	-133.345	43.671	0	1385.10	0	2.7490	0	34.5780	4	27.579	0	1369.470	0	23.0	4	7.1	4	-1E+10	1	-1E+10	1	-1E+10	1	-1E+10	1	-1E+10	1	-1E+10	1
4901784	83	C	10/12/2017	10:50	-133.345	43.671	0	1390.60	0	2.7390	0	34.5790	4	27.581	0	1374.890	0	23.2	4	7.1	4	-1E+10	1	-1E+10	1	-1E+10	1	-1E+10	1	-1E+10	1	-1E+10	1
4901784	83	C	10/12/2017	10:50	-133.345	43.671	0	1395.20	0	2.7270	0	34.5800	4	27.583	0	1379.423	0	23.4	4	7.2	4	-1E+10	1	-1E+10	1	-1E+10	1	-1E+10	1	-1E+10	1	-1E+10	1
4901784	83	C	10/12/2017	10:50	-133.345	43.671	0	1399.70	0	2.7180	0	34.5810	4	27.584	0	1383.858	0	23.6	4	7.2	4	-1E+10	1	-1E+10	1	-1E+10	1	-1E+10	1	-1E+10	1	-1E+10	1
4901784	83	C	10/12/2017	10:50	-133.345	43.671	0	1405.30	0	2.7070	0	34.5820	4	27.586	0	1389.376	0	23.8	4	7.3	4	-1E+10	1	-1E+10	1	-1E+10	1	-1E+10	1	-1E+10	1	-1E+10	1
4901784	83	C	10/12/2017	10:50	-133.345	43.671	0	1409.90	0	2.6990	0	34.5830	4	27.588	0	1393.908	0	24.0	4	7.4	4	-1E+10	1	-1E+10	1	-1E+10	1	-1E+10	1	-1E+10	1	-1E+10	1
4901784	83	C	10/12/2017	10:50	-133.345	43.671	0	1414.60	0	2.6890	0	34.5840	4	27.589	0	1398.540	0	24.2	4	7.4	4	-1E+10	1	-1E+10	1	-1E+10	1	-1E+10	1	-1E+10	1	-1E+10	1
4901784	83	C	10/12/2017	10:50	-133.345	43.671	0	1420.10	0	2.6840	0	34.5840	4	27.590	0	1403.959	0	24.4	4	7.5	4	-1E+10	1	-1E+10	1	-1E+10	1	-1E+10	1	-1E+10	1	-1E+10	1
4901784	83	C	10/12/2017	10:50	-133.345	43.671	0	1424.80	0	2.6740	0	34.5860	4	27.592	0	1408.590	0	24.5	4	7.5	4	-1E+10	1	-1E+10	1	-1E+10	1	-1E+10	1	-1E+10	1	-1E+10	1
4901784	83	C	10/12/2017	10:50	-133.345	43.671	0	1429.40	0	2.6610	0	34.5870	4	27.594	0	1413.122	0	24.8	4	7.6	4	-1E+10	1	-1E+10	1	-1E+10	1	-1E+10	1	-1E+10	1	-1E+10	1
4901784	83	C	10/12/2017	10:50	-133.345	43.671	0	1435.00	0	2.6490	0	34.5870	4	27.595	0	1418.639	0	25.0	4	7.7	4	-1E+10	1	-1E+10	1	-1E+10	1	-1E+10	1	-1E+10	1	-1E+10	1
4901784	83	C	10/12/2017	10:50	-133.345	43.671	0	1440.50	0	2.6330	0	34.5890	4	27.598	0	1424.058	0	25.3	4	7.7	4	-1E+10	1	-1E+10	1	-1E+10	1	-1E+10	1	-1E+10	1	-1E+10	1
4901784	83	C	10/12/2017	10:50	-133.345	43.671	0	1445.20	0	2.6250	0	34.5890	4	27.599	0	1428.689	0	25.5	4	7.8	4	-1E+10	1	-1E+10	1	-1E+10	1	-1E+10	1	-1E+10	1	-1E+10	1
4901784	83	C	10/12/2017	10:50	-133.345	43.671	0	1449.80	0	2.6130	0	34.5900	4	27.601	0	1433.221	0	25.7	4	7.9	4	-1E+10	1	-1E+10	1	-1E+10	1	-1E+10	1	-1E+10	1	-1E+10	1
4901784	83	C	10/12/2017	10:50	-133.345	43.671	0	1455.40	0	2.6000	0	34.5920	4	27.604	0	1438.737	0	25.9	4	7.9	4	-1E+10	1	-1E+10	1	-1E+10	1	-1E+10	1	-1E+10	1	-1E+10	1
4901784	83	C	10/12/2017	10:50	-133.345	43.671	0	1460.00	0	2.5910	0	34.5920	4	27.604	0	1443.269	0	26.0	4	8.0	4	-1E+10	1	-1E+10	1	-1E+10	1	-1E+10	1	-1E+10	1	-1E+10	1
4901784	83	C	10/12/2017	10:50	-133.345	43.671	0	1464.70	0	2.5810	0	34.5930	4	27.606	0	1447.899	0	26.2	4	8.0	4	-1E+10	1	-1E+10	1	-1E+10	1	-1E+10	1	-1E+10	1	-1E+10	1
4901784	83	C	10/12/2017	10:50	-133.345	43.671	0	1469.90	0	2.5640	0	34.5940	4	27.608	0	1453.022	0	26.4	4	8.1	4	-1E+10	1	-1E+10	1	-1E+10	1	-1E+10	1	-1E+10	1	-1E+10	1
4901784	83	C	10/12/2017	10:50	-133.345	43.671	0	1474.20	0	2.5610	0	34.5940	4	27.609	0	1457.257	0	26.6	4	8.1	4	-1E+10	1	-1E+10	1	-1E+10	1	-1E+10	1	-1E+10	1	-1E+10	1
4901784	83	C	10/12/2017	10:50	-133.345	43.671	0	1479.90	0	2.5500	0	34.5950	4	27.610	0	1462.872	0	26.9	4	8.2	4	-1E+10	1	-1E+10	1	-1E+10	1	-1E+10	1	-1E+10	1	-1E+10	1
4901784	83	C	10/12/2017	10:50	-133.345	43.671	0	1485.70	0	2.5350	0	34.5970	4	27.613	0	1468.585	0	27.4	4	8.4	4	-1E+10	1	-1E+10	1	-1E+10	1	-1E+10	1	-1E+10	1	-1E+10	1
4901784	83	C	10/12/2017	10:50	-133.345	43.671	0	1490.60	0	2.5170	0	34.5990	4	27.616	0	1473.412	0	27.8	4	8.5	4	-1E+10	1	-1E+10	1	-1E+10	1	-1E+10	1	-1E+10	1	-1E+10	1
4901784	83	C	10/12/2017	10:50	-133.345	43.671	0	1495.60	0	2.5100	0	34.6000	4	27.618	0	1478.337	0	28.1	4	8.6	4	-1E+10	1	-1E+10	1	-1E+10	1	-1E+10	1	-1E+10	1	-1E+10	1
4901784	83	C	10/12/2017	10:50	-133.345	43.671	0	1500.50	0	2.5040	0	34.6010	4	27.619	0	1483.163	0	28.5	4	8.7	4	-1E+10	1	-1E+10	1	-1E+10	1	-1E+10	1	-1E+10	1	-1E+10	1
4901784	83	C	10/12/2017	10:50	-133.345	43.671	0	1505.40	0	2.4880	0	34.6030	4	27.622	0	1487.989	0	28.8	4	8.8	4	-1E+10	1	-1E+10	1	-1E+10	1	-1E+10	1	-1E+10	1	-1E+10	1
4901784	83	C	10/12/2017	10:50	-133.345	43.671	0	1510.40	0	2.4800	0	34.6040	4	27.624	0	1492.914	0	29.1	4	8.9	4	-1E+10	1	-1E+10	1	-1E+10	1	-1E+10	1	-1E+10	1	-1E+10	1
4901784	83	C	10/12/2017	10:50	-133.345	43.671	0	1515.40	0	2.4710	0	34.6050	4	27.625	0	1497.838	0	29.3	4	8.9	4	-1E+10	1	-1E+10	1	-1E+10	1	-1E+10	1	-1E+10	1	-1E+10	1
4901784	83	C	10/12/2017	10:50	-133.345	43.671	0	1520.40	0	2.4680	0	34.6050	4	27.626	0	1502.762	0	29.5	4	9.0	4	-1E+10	1	-1E+10	1	-1E+10	1	-1E+10	1	-1E+10	1	-1E+10	1
4901784	83	C	10/12/2017	10:50	-133.345	43.671	0	1525.50	0	2.4600	0	34.6060	4	27.627	0	1507.785	0	29.8	4	9.1	4	-1E+10	1	-1E+10	1	-1E+10	1	-1E+10	1	-1E+10	1	-1E+10	1
4901784	83	C	10/12/2017	10:50	-133.345	43.671	0	1530.60	0	2.4490	0	34.6070	4	27.629	0	1512.807	0	30.1	4	9.2	4	-1E+10	1	-1E+10	1	-1E+10	1	-1E+10	1	-1E+10	1	-1E+10	1
4901784	83	C	10/12/2017	10:50	-133.345	43.671	0	1535.80	0	2.4410	0	34.6090	4	27.631	0	1517.928	0	30.3	4	9.2	4	-1E+10	1	-1E+10	1	-1E+10	1	-1E+10	1	-1E+10	1	-1E+10	1
4901784	83	C	10/12/2017	10:50	-133.345	43.671	0	1540.10	0	2.4380	0	34.6090	4	27.631	0	1522.163	0	30.5	4	9.3	4	-1E+10	1	-1E+10	1	-1E+10	1	-1E+10	1	-1E+10	1	-1E+10	1
4901784	83	C	10/12/2017	10:50	-133.345	43.671	0	1544.50	0	2.4300	0	34.6100	4	27.633	0	1526.496	0	30.6	4	9.3	4	-1E+10	1	-1E+10	1	-1E+10	1	-1E+10	1	-1E+10	1	-1E+10	1
4901784	83	C	10/12/2017	10:50	-133.345	43.671	0	1549.80	0	2.4270	0	34.6100	4	27.633	0	1531.715	0	30.7	4	9.4	4	-1E+10	1	-1E+10	1	-1E+10	1	-1E+10	1	-1E+10	1	-1E+10	1
4901784	83	C	10/12/2017	10:50	-133.345	43.671	0	1555.10	0	2.4240	0	34.6100	4	27.633	0	1536.934	0	30.9	4	9.4	4	-1E+10	1	-1E+10	1	-1E+10	1	-1E+10	1	-1E+10	1	-1E+10	1
4901784	83	C	10/12/2017	10:50	-133.345	43.671	0	1560.50	0	2.4170	0	34.6110	4	27.635	0	1542.251	0	31.2	4	9.5	4	-1E+10	1	-1E+10	1	-1E+10	1	-1E+10	1	-1E+10	1	-1E+10	1
4901784	83	C	10/12/2017	10:50	-133.345	43.671	0	1565.00	0	2.4130	0	34.6110	4	27.635	0	1546.682	0	31.4	4	9.6	4	-1E+10	1	-1E+10	1	-1E+10	1	-1E+10	1	-1E+10	1	-1E+10	1
4901784	83	C	10/12/2017	10:50	-133.345	43.671	0	1569.50	0	2.4060	0	34.6130	4	27.637	0	1551.113	0	31.8	4	9.7	4	-1E+10	1	-1E+10	1	-1E+10	1	-1E+10	1	-1E+10	1	-1E+10	1
4901784	83	C	10/12/2017	10:50	-133.345	43.671	0	1574.90	0	2.3940	0	34.6130	4	27.638	0	1556.430	0	32.1	4	9.8	4	-1E+10	1	-1E+10	1	-1E+10	1	-1E+10	1	-1E+10	1	-1E+10	1
4901784	83	C	10/12/2017	10:50	-133.345	43.671	0	1580.30	0	2.3860	0	34.6150	4	27.641	0	1561.746	0	32.4	4	9.9	4	-1E+10	1	-1E+10	1	-1E+10	1	-1E+10	1	-1E+10	1	-1E+10	1
4901784	83	C	10/12/2017	10:50	-133.345	43.671	0	1584.90	0	2.3830	0	34.6150	4	27.641	0	1566.275	0	32.7	4	10.0	4	-1E+10	1	-1E+10	1	-1E+10	1	-1E+10	1	-1E+10	1	-1E+10	1
4901784	83	C	10/12/2017	10:50	-133.345	43.671	0	1590.10	0	2.3720	0	34.6160	4	27.643	0	1571.395	0	33.1	4	10.1	4	-1E+10	1	-1E+10	1	-1E+10	1	-1E+10	1	-1E+10	1	-1E+10	1
4901784	83	C	10/12/2017	10:50	-133.345	43.671	0	1595.60	0	2.3640	0	34.6170	4	27.644	0	1576.810	0	33.5	4	10.2	4	-1E+10	1	-1E+10	1	-1E+10	1	-1E+10	1	-1E+10	1	-1E+10	1
4901784	83	C	10/12/2017	10:50	-133.345	43.671	0	1600.30	0	2.3540	0	34.6190	4	27.647	0	1581.437	0	33.9	4	10.3	4	-1E+10	1	-1E+10	1	-1E+10	1	-1E+10	1	-1E+10	1	-1E+10	1
4901784	83	C	10/12/2017	10:50	-133.345	43.671	0	1605.10	0	2.3460	0	34.6200	4	27.648	0	1586.162	0	34.3	4	10.4	4	-1E+10	1	-1E+10	1	-1E+10	1	-1E+10	1	-1E+10	1	-1E+10	1
4901784	83	C	10/12/2017	10:50	-133.345	43.671	0	1609.90	0	2.3340	0	34.6220	4	27.651	0	1590.888	0	34.8	4	10.6	4	-1E+10	1	-1E+10	1	-1E+10	1	-1E+10	1	-1E+10	1	-1E+10	1
4901784	83	C	10/12/2017	10:50	-133.345	43.671	0	1614.80	0	2.3230	0	34.6240	4	27.653	0	1595.711	0	35.0	4	10.6	4	-1E+10	1	-1E+10	1	-1E+10	1	-1E+10	1	-1E+10	1	-1E+10	1
4901784	83	C	10/12/2017	10:50	-133.345	43.671	0	1619.80	0	2.3180	0	34.6250	4	27.655	0	1600.633	0	35.2	4	10.7	4	-1E+10	1	-1E+10	1	-1E+10	1	-1E+10	1	-1E+10	1	-1E+10	1
4901784	83	C	10/12/2017	10:50	-133.345	43.671	0	1624.70	0	2.3130	0	34.6240	4	27.654	0	1605.457	0	35.4	4	10.8	4	-1E+10	1	-1E+10	1	-1E+10	1	-1E+10	1	-1E+10	1	-1E+10	1
4901784	83	C	10/12/2017	10:50	-133.345	43.671	0	1629.70	0	2.3040	0	34.6260	4	27.657	0	1610.378	0	35.7	4	10.8	4	-1E+10	1	-1E+10	1	-1E+10	1	-1E+10	1	-1E+10	1	-1E+10	1
4901784	83	C	10/12/2017	10:50	-133.345	43.671	0	1634.70	0	2.3010	0	34.6270	4	27.658	0	1615.300	0	36.0	4	10.9	4	-1E+10	1	-1E+10	1	-1E+10	1	-1E+10	1	-1E+10	1	-1E+10	1
4901784	83	C	10/12/2017	10:50	-133.345	43.671	0	1639.70	0	2.2960	0	34.6270	4	27.658	0	1620.222	0	36.3	4	11.0	4	-1E+10	1	-1E+10	1	-1E+10	1	-1E+10	1	-1E+10	1	-1E+10	1
4901784	83	C	10/12/2017	10:50	-133.345	43.671	0	1644.80	0	2.2920	0	34.6280	4	27.659	0	1625.242	0	36.5	4	11.1	4	-1E+10	1	-1E+10	1	-1E+10	1	-1E+10	1	-1E+10	1	-1E+10	1
4901784	83	C	10/12/2017	10:50	-133.345	43.671	0	1649.80	0	2.2900	0	34.6290	4	27.660	0	1630.163	0	36.8	4	11.2	4	-1E+10	1	-1E+10	1	-1E+10	1	-1E+10	1	-1E+10	1	-1E+10	1
4901784	83	C	10/12/2017	10:50	-133.345	43.671	0	1655.00	0	2.2820	0	34.6300	4	27.662	0	1635.281	0	37.3	4	11.3	4	-1E+10	1	-1E+10	1	-1E+10	1	-1E+10	1	-1E+10	1	-1E+10	1
4901784	83	C	10/12/2017	10:50	-133.345	43.671	0	1660.10	0	2.2770	0	34.6310	4	27.663	0	1640.300	0	37.7	4	11.4	4	-1E+10	1	-1E+10	1	-1E+10	1	-1E+10	1	-1E+10	1	-1E+10	1
4901784	83	C	10/12/2017	10:50	-133.345	43.671	0	1665.30	0	2.2740	0	34.6320	4	27.664	0	1645.418	0	38.0	4	11.6	4	-1E+10	1	-1E+10	1	-1E+10	1	-1E+10	1	-1E+10	1	-1E+10	1
4901784	83	C	10/12/2017	10:50	-133.345	43.671	0	1670.50	0	2.2650	0	34.6330	4	27.666	0	1650.536	0	38.6	4	11.7	4	-1E+10	1	-1E+10	1	-1E+10	1	-1E+10	1	-1E+10	1	-1E+10	1
4901784	83	C	10/12/2017	10:50	-133.345	43.671	0	1675.60	0	2.2510	0	34.6350	4	27.668	0	1655.555	0	39.2	4	11.9	4	-1E+10	1	-1E+10	1	-1E+10	1	-1E+10	1	-1E+10	1	-1E+10	1
4901784	83	C	10/12/2017	10:50	-133.345	43.671	0	1680.00	0	2.2390	0	34.6360	4	27.670	0	1659.885	0	39.6	4	12.0	4	-1E+10	1	-1E+10	1	-1E+10	1	-1E+10	1	-1E+10	1	-1E+10	1
4901784	83	C	10/12/2017	10:50	-133.345	43.671	0	1684.40	0	2.2300	0	34.6360	4	27.671	0	1664.215	0	39.9	4	12.1	4	-1E+10	1	-1E+10	1	-1E+10	1	-1E+10	1	-1E+10	1	-1E+10	1
4901784	83	C	10/12/2017	10:50	-133.345	43.671	0	1689.60	0	2.2220	0	34.6370	4	27.672	0	1669.333	0	40.3	4	12.2	4	-1E+10	1	-1E+10	1	-1E+10	1	-1E+10	1	-1E+10	1	-1E+10	1
4901784	83	C	10/12/2017	10:50	-133.345	43.671	0	1694.90	0	2.2160	0	34.6370	4	27.673	0	1674.548	0	40.6	4	12.3	4	-1E+10	1	-1E+10	1	-1E+10	1	-1E+10	1	-1E+10	1	-1E+10	1
4901784	83	C	10/12/2017	10:50	-133.345	43.671	0	1700.20	0	2.2080	0	34.6380	4	27.674	0	1679.763	0	41.0	4	12.4	4	-1E+10	1	-1E+10	1	-1E+10	1	-1E+10	1	-1E+10	1	-1E+10	1
4901784	83	C	10/12/2017	10:50	-133.345	43.671	0	1705.50	0	2.2030	0	34.6380	4	27.675	0	1684.979	0	41.3	4	12.5	4	-1E+10	1	-1E+10	1	-1E+10	1	-1E+10	1	-1E+10	1	-1E+10	1
4901784	83	C	10/12/2017	10:50	-133.345	43.671	0	1710.70	0	2.1940	0	34.6390	4	27.676	0	1690.095	0	41.7	4	12.7	4	-1E+10	1	-1E+10	1	-1E+10	1	-1E+10	1	-1E+10	1	-1E+10	1
4901784	83	C	10/12/2017	10:50	-133.345	43.671	0	1715.10	0	2.1880	0	34.6410	4	27.678	0	1694.425	0	42.0	4	12.7	4	-1E+10	1	-1E+10	1	-1E+10	1	-1E+10	1	-1E+10	1	-1E+10	1
4901784	83	C	10/12/2017	10:50	-133.345	43.671	0	1719.50	0	2.1840	0	34.6410	4	27.679	0	1698.754	0	42.2	4	12.8	4	-1E+10	1	-1E+10	1	-1E+10	1	-1E+10	1	-1E+10	1	-1E+10	1
4901784	83	C	10/12/2017	10:50	-133.345	43.671	0	1724.80	0	2.1750	0	34.6420	4	27.680	0	1703.969	0	42.7	4	12.9	4	-1E+10	1	-1E+10	1	-1E+10	1	-1E+10	1	-1E+10	1	-1E+10	1
4901784	83	C	10/12/2017	10:50	-133.345	43.671	0	1730.20	0	2.1690	0	34.6430	4	27.682	0	1709.282	0	43.1	4	13.1	4	-1E+10	1	-1E+10	1	-1E+10	1	-1E+10	1	-1E+10	1	-1E+10	1
4901784	83	C	10/12/2017	10:50	-133.345	43.671	0	1735.50	0	2.1620	0	34.6450	4	27.684	0	1714.497	0	43.6	4	13.2	4	-1E+10	1	-1E+10	1	-1E+10	1	-1E+10	1	-1E+10	1	-1E+10	1
4901784	83	C	10/12/2017	10:50	-133.345	43.671	0	1740.00	0	2.1560	0	34.6460	4	27.685	0	1718.924	0	43.9	4	13.3	4	-1E+10	1	-1E+10	1	-1E+10	1	-1E+10	1	-1E+10	1	-1E+10	1
4901784	83	C	10/12/2017	10:50	-133.345	43.671	0	1744.50	0	2.1510	0	34.6470	4	27.686	0	1723.351	0	44.1	4	13.4	4	-1E+10	1	-1E+10	1	-1E+10	1	-1E+10	1	-1E+10	1	-1E+10	1
4901784	83	C	10/12/2017	10:50	-133.345	43.671	0	1749.90	0	2.1460	0	34.6470	4	27.687	0	1728.664	0	44.5	4	13.5	4	-1E+10	1	-1E+10	1	-1E+10	1	-1E+10	1	-1E+10	1	-1E+10	1
4901784	83	C	10/12/2017	10:50	-133.345	43.671	0	1755.30	0	2.1400	0	34.6490	4	27.689	0	1733.976	0	44.9	4	13.6	4	-1E+10	1	-1E+10	1	-1E+10	1	-1E+10	1	-1E+10	1	-1E+10	1
4901784	83	C	10/12/2017	10:50	-133.345	43.671	0	1759.80	0	2.1340	0	34.6500	4	27.690	0	1738.403	0	45.1	4	13.7	4	-1E+10	1	-1E+10	1	-1E+10	1	-1E+10	1	-1E+10	1	-1E+10	1
4901784	83	C	10/12/2017	10:50	-133.345	43.671	0	1765.00	0	2.1280	0	34.6510	4	27.691	0	1743.518	0	45.4	4	13.8	4	-1E+10	1	-1E+10	1	-1E+10	1	-1E+10	1	-1E+10	1	-1E+10	1
4901784	83	C	10/12/2017	10:50	-133.345	43.671	0	1770.50	0	2.1210	0	34.6510	4	27.692	0	1748.929	0	45.7	4	13.8	4	-1E+10	1	-1E+10	1	-1E+10	1	-1E+10	1	-1E+10	1	-1E+10	1
4901784	83	C	10/12/2017	10:50	-133.345	43.671	0	1775.30	0	2.1180	0	34.6520	4	27.693	0	1753.651	0	46.0	4	13.9	4	-1E+10	1	-1E+10	1	-1E+10	1	-1E+10	1	-1E+10	1	-1E+10	1
4901784	83	C	10/12/2017	10:50	-133.345	43.671	0	1780.20	0	2.1130	0	34.6520	4	27.693	0	1758.470	0	46.4	4	14.0	4	-1E+10	1	-1E+10	1	-1E+10	1	-1E+10	1	-1E+10	1	-1E+10	1
4901784	83	C	10/12/2017	10:50	-133.345	43.671	0	1785.00	0	2.1100	0	34.6530	4	27.695	0	1763.192	0	46.8	4	14.2	4	-1E+10	1	-1E+10	1	-1E+10	1	-1E+10	1	-1E+10	1	-1E+10	1
4901784	83	C	10/12/2017	10:50	-133.345	43.671	0	1789.90	0	2.0970	0	34.6560	4	27.698	0	1768.012	0	47.4	4	14.3	4	-1E+10	1	-1E+10	1	-1E+10	1	-1E+10	1	-1E+10	1	-1E+10	1
4901784	83	C	10/12/2017	10:50	-133.345	43.671	0	1794.70	0	2.0910	0	34.6560	4	27.698	0	1772.733	0	47.8	4	14.4	4	-1E+10	1	-1E+10	1	-1E+10	1	-1E+10	1	-1E+10	1	-1E+10	1
4901784	83	C	10/12/2017	10:50	-133.345	43.671	0	1799.70	0	2.0830	0	34.6570	4	27.700	0	1777.651	0	48.1	4	14.6	4	-1E+10	1	-1E+10	1	-1E+10	1	-1E+10	1	-1E+10	1	-1E+10	1
4901784	83	C	10/12/2017	10:50	-133.345	43.671	0	1804.70	0	2.0780	0	34.6580	4	27.701	0	1782.569	0	48.4	4	14.6	4	-1E+10	1	-1E+10	1	-1E+10	1	-1E+10	1	-1E+10	1	-1E+10	1
4901784	83	C	10/12/2017	10:50	-133.345	43.671	0	1809.70	0	2.0750	0	34.6580	4	27.701	0	1787.486	0	48.6	4	14.7	4	-1E+10	1	-1E+10	1	-1E+10	1	-1E+10	1	-1E+10	1	-1E+10	1
4901784	83	C	10/12/2017	10:50	-133.345	43.671	0	1814.70	0	2.0700	0	34.6580	4	27.702	0	1792.404	0	48.9	4	14.8	4	-1E+10	1	-1E+10	1	-1E+10	1	-1E+10	1	-1E+10	1	-1E+10	1
4901784	83	C	10/12/2017	10:50	-133.345	43.671	0	1819.70	0	2.0670	0	34.6590	4	27.703	0	1797.321	0	49.3	4	14.9	4	-1E+10	1	-1E+10	1	-1E+10	1	-1E+10	1	-1E+10	1	-1E+10	1
4901784	83	C	10/12/2017	10:50	-133.345	43.671	0	1824.70	0	2.0620	0	34.6610	4	27.705	0	1802.239	0	49.6	4	15.0	4	-1E+10	1	-1E+10	1	-1E+10	1	-1E+10	1	-1E+10	1	-1E+10	1
4901784	83	C	10/12/2017	10:50	-133.345	43.671	0	1829.70	0	2.0550	0	34.6620	4	27.706	0	1807.156	0	50.1	4	15.1	4	-1E+10	1	-1E+10	1	-1E+10	1	-1E+10	1	-1E+10	1	-1E+10	1
4901784	83	C	10/12/2017	10:50	-133.345	43.671	0	1834.80	0	2.0480	0	34.6620	4	27.707	0	1812.171	0	50.4	4	15.2	4	-1E+10	1	-1E+10	1	-1E+10	1	-1E+10	1	-1E+10	1	-1E+10	1
4901784	83	C	10/12/2017	10:50	-133.345	43.671	0	1839.90	0	2.0420	0	34.6630	4	27.708	0	1817.187	0	50.8	4	15.3	4	-1E+10	1	-1E+10	1	-1E+10	1	-1E+10	1	-1E+10	1	-1E+10	1
4901784	83	C	10/12/2017	10:50	-133.345	43.671	0	1845.00	0	2.0400	0	34.6630	4	27.708	0	1822.202	0	51.1	4	15.4	4	-1E+10	1	-1E+10	1	-1E+10	1	-1E+10	1	-1E+10	1	-1E+10	1
4901784	83	C	10/12/2017	10:50	-133.345	43.671	0	1850.20	0	2.0330	0	34.6640	4	27.710	0	1827.315	0	51.5	4	15.5	4	-1E+10	1	-1E+10	1	-1E+10	1	-1E+10	1	-1E+10	1	-1E+10	1
4901784	83	C	10/12/2017	10:50	-133.345	43.671	0	1855.30	0	2.0290	0	34.6640	4	27.710	0	1832.330	0	51.8	4	15.6	4	-1E+10	1	-1E+10	1	-1E+10	1	-1E+10	1	-1E+10	1	-1E+10	1
4901784	83	C	10/12/2017	10:50	-133.345	43.671	0	1860.50	0	2.0260	0	34.6650	4	27.711	0	1837.443	0	52.2	4	15.8	4	-1E+10	1	-1E+10	1	-1E+10	1	-1E+10	1	-1E+10	1	-1E+10	1
4901784	83	C	10/12/2017	10:50	-133.345	43.671	0	1865.70	0	2.0240	0	34.6660	4	27.712	0	1842.556	0	52.7	4	15.9	4	-1E+10	1	-1E+10	1	-1E+10	1	-1E+10	1	-1E+10	1	-1E+10	1
4901784	83	C	10/12/2017	10:50	-133.345	43.671	0	1870.10	0	2.0190	0	34.6670	4	27.713	0	1846.883	0	53.0	4	16.0	4	-1E+10	1	-1E+10	1	-1E+10	1	-1E+10	1	-1E+10	1	-1E+10	1
4901784	83	C	10/12/2017	10:50	-133.345	43.671	0	1874.50	0	2.0160	0	34.6680	4	27.714	0	1851.209	0	53.3	4	16.1	4	-1E+10	1	-1E+10	1	-1E+10	1	-1E+10	1	-1E+10	1	-1E+10	1
4901784	83	C	10/12/2017	10:50	-133.345	43.671	0	1879.90	0	2.0160	0	34.6690	4	27.715	0	1856.518	0	53.6	4	16.2	4	-1E+10	1	-1E+10	1	-1E+10	1	-1E+10	1	-1E+10	1	-1E+10	1
4901784	83	C	10/12/2017	10:50	-133.345	43.671	0	1885.30	0	2.0130	0	34.6700	4	27.716	0	1861.828	0	53.8	4	16.2	4	-1E+10	1	-1E+10	1	-1E+10	1	-1E+10	1	-1E+10	1	-1E+10	1
4901784	83	C	10/12/2017	10:50	-133.345	43.671	0	1890.40	0	2.0100	0	34.6690	4	27.716	0	1866.842	0	54.0	4	16.3	4	-1E+10	1	-1E+10	1	-1E+10	1	-1E+10	1	-1E+10	1	-1E+10	1
4901784	83	C	10/12/2017	10:50	-133.345	43.671	0	1894.60	0	2.0040	0	34.6700	4	27.717	0	1870.971	0	54.1	4	16.3	4	-1E+10	1	-1E+10	1	-1E+10	1	-1E+10	1	-1E+10	1	-1E+10	1
4901784	83	C	10/12/2017	10:50	-133.345	43.671	0	1899.30	0	1.9970	0	34.6710	4	27.718	0	1875.592	0	54.2	4	16.4	4	-1E+10	1	-1E+10	1	-1E+10	1	-1E+10	1	-1E+10	1	-1E+10	1
4901784	83	C	10/12/2017	10:50	-133.345	43.671	0	1904.90	0	1.9950	0	34.6710	4	27.719	0	1881.097	0	54.4	4	16.4	4	-1E+10	1	-1E+10	1	-1E+10	1	-1E+10	1	-1E+10	1	-1E+10	1
4901784	83	C	10/12/2017	10:50	-133.345	43.671	0	1910.60	0	1.9920	0	34.6720	4	27.720	0	1886.700	0	54.7	4	16.5	4	-1E+10	1	-1E+10	1	-1E+10	1	-1E+10	1	-1E+10	1	-1E+10	1
4901784	83	C	10/12/2017	10:50	-133.345	43.671	0	1915.50	0	1.9890	0	34.6720	4	27.720	0	1891.517	0	54.9	4	16.6	4	-1E+10	1	-1E+10	1	-1E+10	1	-1E+10	1	-1E+10	1	-1E+10	1
4901784	83	C	10/12/2017	10:50	-133.345	43.671	0	1920.30	0	1.9860	0	34.6720	4	27.720	0	1896.236	0	55.3	4	16.7	4	-1E+10	1	-1E+10	1	-1E+10	1	-1E+10	1	-1E+10	1	-1E+10	1
4901784	83	C	10/12/2017	10:50	-133.345	43.671	0	1925.20	0	1.9830	0	34.6740	4	27.722	0	1901.053	0	55.6	4	16.8	4	-1E+10	1	-1E+10	1	-1E+10	1	-1E+10	1	-1E+10	1	-1E+10	1
4901784	83	C	10/12/2017	10:50	-133.345	43.671	0	1930.10	0	1.9790	0	34.6730	4	27.722	0	1905.869	0	55.9	4	16.8	4	-1E+10	1	-1E+10	1	-1E+10	1	-1E+10	1	-1E+10	1	-1E+10	1
4901784	83	C	10/12/2017	10:50	-133.345	43.671	0	1935.10	0	1.9790	0	34.6750	4	27.723	0	1910.784	0	56.2	4	17.0	4	-1E+10	1	-1E+10	1	-1E+10	1	-1E+10	1	-1E+10	1	-1E+10	1
4901784	83	C	10/12/2017	10:50	-133.345	43.671	0	1940.10	0	1.9800	0	34.6750	4	27.723	0	1915.699	0	56.5	4	17.1	4	-1E+10	1	-1E+10	1	-1E+10	1	-1E+10	1	-1E+10	1	-1E+10	1
4901784	83	C	10/12/2017	10:50	-133.345	43.671	0	1945.10	0	1.9780	0	34.6760	4	27.724	0	1920.613	0	56.7	4	17.1	4	-1E+10	1	-1E+10	1	-1E+10	1	-1E+10	1	-1E+10	1	-1E+10	1
4901784	83	C	10/12/2017	10:50	-133.345	43.671	0	1950.00	0	1.9760	0	34.6760	4	27.724	0	1925.430	0	57.0	4	17.2	4	-1E+10	1	-1E+10	1	-1E+10	1	-1E+10	1	-1E+10	1	-1E+10	1
4901784	83	C	10/12/2017	10:50	-133.345	43.671	0	1955.00	0	1.9740	0	34.6770	4	27.725	0	1930.344	0	57.5	4	17.3	4	-1E+10	1	-1E+10	1	-1E+10	1	-1E+10	1	-1E+10	1	-1E+10	1
4901784	83	C	10/12/2017	10:50	-133.345	43.671	0	1960.00	0	1.9720	0	34.6780	4	27.726	0	1935.258	0	57.8	4	17.4	4	-1E+10	1	-1E+10	1	-1E+10	1	-1E+10	1	-1E+10	1	-1E+10	1
4901784	83	C	10/12/2017	10:50	-133.345	43.671	0	1965.10	0	1.9710	0	34.6780	4	27.726	0	1940.270	0	58.1	4	17.5	4	-1E+10	1	-1E+10	1	-1E+10	1	-1E+10	1	-1E+10	1	-1E+10	1
4901784	83	C	10/12/2017	10:50	-133.345	43.671	0	1970.10	0	1.9680	0	34.6790	4	27.728	0	1945.184	0	58.5	4	17.6	4	-1E+10	1	-1E+10	1	-1E+10	1	-1E+10	1	-1E+10	1	-1E+10	1
4901784	83	C	10/12/2017	10:50	-133.345	43.671	0	1975.20	0	1.9640	0	34.6800	4	27.729	0	1950.197	0	58.9	4	17.8	4	-1E+10	1	-1E+10	1	-1E+10	1	-1E+10	1	-1E+10	1	-1E+10	1
4901784	83	C	10/12/2017	10:50	-133.345	43.671	0	1980.30	0	1.9590	0	34.6800	4	27.729	0	1955.209	0	59.2	4	17.9	4	-1E+10	1	-1E+10	1	-1E+10	1	-1E+10	1	-1E+10	1	-1E+10	1
4901784	83	C	10/12/2017	10:50	-133.345	43.671	0	1985.40	0	1.9570	0	34.6820	4	27.731	0	1960.221	0	59.3	4	17.9	4	-1E+10	1	-1E+10	1	-1E+10	1	-1E+10	1	-1E+10	1	-1E+10	1
4901784	83	C	10/12/2017	10:50	-133.345	43.671	0	1990.50	0	1.9520	0	34.6810	4	27.730	0	1965.232	0	59.4	4	17.9	4	-1E+10	1	-1E+10	1	-1E+10	1	-1E+10	1	-1E+10	1	-1E+10	1
4901784	83	C	10/12/2017	10:50	-133.345	43.671	0	1995.70	0	1.9470	0	34.6820	4	27.732	0	1970.342	0	59.6	4	18.0	4	-1E+10	1	-1E+10	1	-1E+10	1	-1E+10	1	-1E+10	1	-1E+10	1
4901784	83	C	10/12/2017	10:50	-133.345	43.671	0	2000.80	0	1.9420	0	34.6810	4	27.731	0	1975.354	0	59.6	4	17.9	4	-1E+10	1	-1E+10	1	-1E+10	1	-1E+10	1	-1E+10	1	-1E+10	1
4901784	83	C	10/12/2017	10:50	-133.345	43.671	0	2005.10	0	1.9330	0	34.6810	4	27.732	0	1979.579	0	59.7	4	18.0	4	-1E+10	1	-1E+10	1	-1E+10	1	-1E+10	1	-1E+10	1	-1E+10	1
4901784	83	C	10/12/2017	10:50	-133.345	43.671	0	2010.00	0	1.9300	0	34.6820	4	27.733	0	1984.394	0	60.0	4	18.1	4	-1E+10	1	-1E+10	1	-1E+10	1	-1E+10	1	-1E+10	1	-1E+10	1
4901784	83	C	10/12/2017	10:50	-133.345	43.671	0	2014.70	0	1.9290	0	34.6830	4	27.734	0	1989.012	0	60.2	4	18.1	4	-1E+10	1	-1E+10	1	-1E+10	1	-1E+10	1	-1E+10	1	-1E+10	1
4901784	83	C	10/12/2017	10:50	-133.345	43.671	0	2020.20	0	1.9280	0	34.6840	4	27.735	0	1994.417	0	60.5	4	18.2	4	-1E+10	1	-1E+10	1	-1E+10	1	-1E+10	1	-1E+10	1	-1E+10	1
4901784	83	C	10/12/2017	10:50	-133.345	43.671	0																										
4901784	84	C	10/22/2017	10:44	-133.402	43.887	0	2.30	0	15.7480	0	32.8660	4	24.164	0	2.282	0	240.4	4	97.0	4	-1E+10	1	-1E+10	1	-1E+10	1	-1E+10	1	-1E+10	1	-1E+10	1
4901784	84	C	10/22/2017	10:44	-133.402	43.887	0	3.30	0	15.7490	0	32.8650	4	24.163	0	3.274	0	240.4	4	97.0	4	-1E+10	1	-1E+10	1	-1E+10	1	-1E+10	1	-1E+10	1	-1E+10	1
4901784	84	C	10/22/2017	10:44	-133.402	43.887	0	4.50	0	15.7570	0	32.8660	4	24.162	0	4.464	0	240.2	4	97.0	4	-1E+10	1	-1E+10	1	-1E+10	1	-1E+10	1	-1E+10	1	-1E+10	1
4901784	84	C	10/22/2017	10:44	-133.402	43.887	0	5.90	0	15.7590	0	32.8650	4	24.161	0	5.853	0	240.1	4	96.9	4	-1E+10	1	-1E+10	1	-1E+10	1	-1E+10	1	-1E+10	1	-1E+10	1
4901784	84	C	10/22/2017	10:44	-133.402	43.887	0	7.30	0	15.7590	0	32.8650	4	24.161	0	7.241	0	240.0	4	96.9	4	-1E+10	1	-1E+10	1	-1E+10	1	-1E+10	1	-1E+10	1	-1E+10	1
4901784	84	C	10/22/2017	10:44	-133.402	43.887	0	8.70	0	15.7600	0	32.8660	4	24.162	0	8.630	0	239.9	4	96.8	4	-1E+10	1	-1E+10	1	-1E+10	1	-1E+10	1	-1E+10	1	-1E+10	1
4901784	84	C	10/22/2017	10:44	-133.402	43.887	0	10.20	0	15.7610	0	32.8660	4	24.161	0	10.118	0	239.8	4	96.8	4	-1E+10	1	-1E+10	1	-1E+10	1	-1E+10	1	-1E+10	1	-1E+10	1
4901784	84	C	10/22/2017	10:44	-133.402	43.887	0	11.80	0	15.7600	0	32.8640	4	24.160	0	11.705	0	239.7	4	96.7	4	-1E+10	1	-1E+10	1	-1E+10	1	-1E+10	1	-1E+10	1	-1E+10	1
4901784	84	C	10/22/2017	10:44	-133.402	43.887	0	13.40	0	15.7610	0	32.8660	4	24.162	0	13.292	0	239.8	4	96.8	4	-1E+10	1	-1E+10	1	-1E+10	1	-1E+10	1	-1E+10	1	-1E+10	1
4901784	84	C	10/22/2017	10:44	-133.402	43.887	0	15.00	0	15.7620	0	32.8660	4	24.161	0	14.879	0	239.6	4	96.7	4	-1E+10	1	-1E+10	1	-1E+10	1	-1E+10	1	-1E+10	1	-1E+10	1
4901784	84	C	10/22/2017	10:44	-133.402	43.887	0	16.90	0	15.7620	0	32.8650	4	24.161	0	16.764	0	239.5	4	96.7	4	-1E+10	1	-1E+10	1	-1E+10	1	-1E+10	1	-1E+10	1	-1E+10	1
4901784	84	C	10/22/2017	10:44	-133.402	43.887	0	18.70	0	15.7620	0	32.8660	4	24.161	0	18.549	0	239.5	4	96.7	4	-1E+10	1	-1E+10	1	-1E+10	1	-1E+10	1	-1E+10	1	-1E+10	1
4901784	84	C	10/22/2017	10:44	-133.402	43.887	0	20.60	0	15.7620	0	32.8660	4	24.162	0	20.434	0	239.2	4	96.6	4	-1E+10	1	-1E+10	1	-1E+10	1	-1E+10	1	-1E+10	1	-1E+10	1
4901784	84	C	10/22/2017	10:44	-133.402	43.887	0	22.50	0	15.7620	0	32.8650	4	24.161	0	22.318	0	239.1	4	96.5	4	-1E+10	1	-1E+10	1	-1E+10	1	-1E+10	1	-1E+10	1	-1E+10	1
4901784	84	C	10/22/2017	10:44	-133.402	43.887	0	24.50	0	15.7620	0	32.8650	4	24.161	0	24.302	0	239.3	4	96.6	4	-1E+10	1	-1E+10	1	-1E+10	1	-1E+10	1	-1E+10	1	-1E+10	1
4901784	84	C	10/22/2017	10:44	-133.402	43.887	0	26.50	0	15.7620	0	32.8660	4	24.162	0	26.286	0	239.0	4	96.5	4	-1E+10	1	-1E+10	1	-1E+10	1	-1E+10	1	-1E+10	1	-1E+10	1
4901784	84	C	10/22/2017	10:44	-133.402	43.887	0	28.40	0	15.7630	0	32.8660	4	24.162	0	28.170	0	239.0	4	96.5	4	-1E+10	1	-1E+10	1	-1E+10	1	-1E+10	1	-1E+10	1	-1E+10	1
4901784	84	C	10/22/2017	10:44	-133.402	43.887	0	30.20	0	15.7630	0	32.8640	4	24.160	0	29.956	0	238.8	4	96.4	4	-1E+10	1	-1E+10	1	-1E+10	1	-1E+10	1	-1E+10	1	-1E+10	1
4901784	84	C	10/22/2017	10:44	-133.402	43.887	0	32.00	0	15.7620	0	32.8640	4	24.160	0	31.741	0	238.8	4	96.4	4	-1E+10	1	-1E+10	1	-1E+10	1	-1E+10	1	-1E+10	1	-1E+10	1
4901784	84	C	10/22/2017	10:44	-133.402	43.887	0	33.80	0	15.7630	0	32.8630	4	24.159	0	33.526	0	238.6	4	96.3	4	-1E+10	1	-1E+10	1	-1E+10	1	-1E+10	1	-1E+10	1	-1E+10	1
4901784	84	C	10/22/2017	10:44	-133.402	43.887	0	35.70	0	15.7620	0	32.8630	4	24.160	0	35.411	0	238.4	4	96.2	4	-1E+10	1	-1E+10	1	-1E+10	1	-1E+10	1	-1E+10	1	-1E+10	1
4901784	84	C	10/22/2017	10:44	-133.402	43.887	0	37.50	0	15.7630	0	32.8630	4	24.160	0	37.196	0	238.3	4	96.2	4	-1E+10	1	-1E+10	1	-1E+10	1	-1E+10	1	-1E+10	1	-1E+10	1
4901784	84	C	10/22/2017	10:44	-133.402	43.887	0	39.30	0	15.7640	0	32.8630	4	24.159	0	38.981	0	238.3	4	96.2	4	-1E+10	1	-1E+10	1	-1E+10	1	-1E+10	1	-1E+10	1	-1E+10	1
4901784	84	C	10/22/2017	10:44	-133.402	43.887	0	41.00	0	15.7630	0	32.8630	4	24.160	0	40.667	0	238.2	4	96.2	4	-1E+10	1	-1E+10	1	-1E+10	1	-1E+10	1	-1E+10	1	-1E+10	1
4901784	84	C	10/22/2017	10:44	-133.402	43.887	0	42.70	0	15.7630	0	32.8630	4	24.160	0	42.353	0	238.1	4	96.1	4	-1E+10	1	-1E+10	1	-1E+10	1	-1E+10	1	-1E+10	1	-1E+10	1
4901784	84	C	10/22/2017	10:44	-133.402	43.887	0	44.50	0	15.7560	0	32.8660	4	24.164	0	44.139	0	238.3	4	96.2	4	-1E+10	1	-1E+10	1	-1E+10	1	-1E+10	1	-1E+10	1	-1E+10	1
4901784	84	C	10/22/2017	10:44	-133.402	43.887	0	46.20	0	15.7490	0	32.8690	4	24.168	0	45.825	0	238.4	4	96.2	4	-1E+10	1	-1E+10	1	-1E+10	1	-1E+10	1	-1E+10	1	-1E+10	1
4901784	84	C	10/22/2017	10:44	-133.402	43.887	0	48.00	0	15.7520	0	32.8660	4	24.165	0	47.610	0	238.4	4	96.2	4	-1E+10	1	-1E+10	1	-1E+10	1	-1E+10	1	-1E+10	1	-1E+10	1
4901784	84	C	10/22/2017	10:44	-133.402	43.887	0	49.70	0	15.7400	0	32.8670	4	24.168	0	49.296	0	238.9	4	96.4	4	-1E+10	1	-1E+10	1	-1E+10	1	-1E+10	1	-1E+10	1	-1E+10	1
4901784	84	C	10/22/2017	10:44	-133.402	43.887	0	51.50	0	15.7180	0	32.8640	4	24.171	0	51.081	0	239.3	4	96.5	4	-1E+10	1	-1E+10	1	-1E+10	1	-1E+10	1	-1E+10	1	-1E+10	1
4901784	84	C	10/22/2017	10:44	-133.402	43.887	0	53.20	0	15.7060	0	32.8610	4	24.171	0	52.767	0	239.8	4	96.7	4	-1E+10	1	-1E+10	1	-1E+10	1	-1E+10	1	-1E+10	1	-1E+10	1
4901784	84	C	10/22/2017	10:44	-133.402	43.887	0	54.80	0	15.6180	0	32.8670	4	24.195	0	54.354	0	241.2	4	97.1	4	-1E+10	1	-1E+10	1	-1E+10	1	-1E+10	1	-1E+10	1	-1E+10	1
4901784	84	C	10/22/2017	10:44	-133.402	43.887	0	56.30	0	15.5930	0	32.8610	4	24.196	0	55.841	0	242.0	4	97.3	4	-1E+10	1	-1E+10	1	-1E+10	1	-1E+10	1	-1E+10	1	-1E+10	1
4901784	84	C	10/22/2017	10:44	-133.402	43.887	0	57.80	0	15.3450	0	32.8840	4	24.269	0	57.329	0	243.9	4	97.7	4	-1E+10	1	-1E+10	1	-1E+10	1	-1E+10	1	-1E+10	1	-1E+10	1
4901784	84	C	10/22/2017	10:44	-133.402	43.887	0	59.30	0	15.0060	0	32.8890	4	24.346	0	58.816	0	246.7	4	98.1	4	-1E+10	1	-1E+10	1	-1E+10	1	-1E+10	1	-1E+10	1	-1E+10	1
4901784	84	C	10/22/2017	10:44	-133.402	43.887	0	61.10	0	14.5620	0	32.8910	4	24.443	0	60.601	0	248.7	4	98.1	4	-1E+10	1	-1E+10	1	-1E+10	1	-1E+10	1	-1E+10	1	-1E+10	1
4901784	84	C	10/22/2017	10:44	-133.402	43.887	0	61.60	0	14.4630	0	32.9000	4	24.471	0	61.097	0	249.3	4	98.1	4	-1E+10	1	-1E+10	1	-1E+10	1	-1E+10	1	-1E+10	1	-1E+10	1
4901784	84	C	10/22/2017	10:44	-133.402	43.887	0	62.80	0	14.1360	0	32.8880	4	24.530	0	62.287	0	250.7	4	98.0	4	-1E+10	1	-1E+10	1	-1E+10	1	-1E+10	1	-1E+10	1	-1E+10	1
4901784	84	C	10/22/2017	10:44	-133.402	43.887	0	64.20	0	13.5730	0	32.9020	4	24.656	0	63.675	0	252.1	4	97.5	4	-1E+10	1	-1E+10	1	-1E+10	1	-1E+10	1	-1E+10	1	-1E+10	1
4901784	84	C	10/22/2017	10:44	-133.402	43.887	0	65.70	0	13.0830	0	32.8940	4	24.748	0	65.163	0	254.0	4	97.2	4	-1E+10	1	-1E+10	1	-1E+10	1	-1E+10	1	-1E+10	1	-1E+10	1
4901784	84	C	10/22/2017	10:44	-133.402	43.887	0	67.30	0	12.3870	0	32.9090	4	24.894	0	66.750	0	254.7	4	96.1	4	-1E+10	1	-1E+10	1	-1E+10	1	-1E+10	1	-1E+10	1	-1E+10	1
4901784	84	C	10/22/2017	10:44	-133.402	43.887	0	68.90	0	11.7960	0	32.9190	4	25.013	0	68.336	0	256.7	4	95.7	4	-1E+10	1	-1E+10	1	-1E+10	1	-1E+10	1	-1E+10	1	-1E+10	1
4901784	84	C	10/22/2017	10:44	-133.402	43.887	0	70.40	0	11.5640	0	32.9230	4	25.059	0	69.824	0	256.0	4	95.0	4	-1E+10	1	-1E+10	1	-1E+10	1	-1E+10	1	-1E+10	1	-1E+10	1
4901784	84	C	10/22/2017	10:44	-133.402	43.887	0	72.00	0	11.1180	0	32.9480	4	25.159	0	71.410	0	256.6	4	94.3	4	-1E+10	1	-1E+10	1	-1E+10	1	-1E+10	1	-1E+10	1	-1E+10	1
4901784	84	C	10/22/2017	10:44	-133.402	43.887	0	73.50	0	10.9260	0	32.9520	4	25.196	0	72.898	0	255.0	4	93.4	4	-1E+10	1	-1E+10	1	-1E+10	1	-1E+10	1	-1E+10	1	-1E+10	1
4901784	84	C	10/22/2017	10:44	-133.402	43.887	0	75.10	0	10.6500	0	32.9600	4	25.251	0	74.484	0	252.4	4	91.9	4	-1E+10	1	-1E+10	1	-1E+10	1	-1E+10	1	-1E+10	1	-1E+10	1
4901784	84	C	10/22/2017	10:44	-133.402	43.887	0	76.70	0	10.5160	0	32.9580	4	25.272	0	76.071	0	253.4	4	92.0	4	-1E+10	1	-1E+10	1	-1E+10	1	-1E+10	1	-1E+10	1	-1E+10	1
4901784	84	C	10/22/2017	10:44	-133.402	43.887	0	78.30	0	10.2960	0	32.9620	4	25.313	0	77.658	0	254.6	4	92.0	4	-1E+10	1	-1E+10	1	-1E+10	1	-1E+10	1	-1E+10	1	-1E+10	1
4901784	84	C	10/22/2017	10:44	-133.402	43.887	0	80.30	0	10.0890	0	32.9830	4	25.364	0	79.641	0	254.0	4	91.3	4	-1E+10	1	-1E+10	1	-1E+10	1	-1E+10	1	-1E+10	1	-1E+10	1
4901784	84	C	10/22/2017	10:44	-133.402	43.887	0	80.70	0	9.9070	0	32.9800	4	25.392	0	80.037	0	254.6	4	91.2	4	-1E+10	1	-1E+10	1	-1E+10	1	-1E+10	1	-1E+10	1	-1E+10	1
4901784	84	C	10/22/2017	10:44	-133.402	43.887	0	82.30	0	9.8980	0	32.9750	4	25.390	0	81.624	0	254.3	4	91.1	4	-1E+10	1	-1E+10	1	-1E+10	1	-1E+10	1	-1E+10	1	-1E+10	1
4901784	84	C	10/22/2017	10:44	-133.402	43.887	0	83.70	0	9.8100	0	32.9790	4	25.408	0	83.012	0	252.4	4	90.2	4	-1E+10	1	-1E+10	1	-1E+10	1	-1E+10	1	-1E+10	1	-1E+10	1
4901784	84	C	10/22/2017	10:44	-133.402	43.887	0	85.10	0	9.6020	0	32.9840	4	25.446	0	84.400	0	250.8	4	89.2	4	-1E+10	1	-1E+10	1	-1E+10	1	-1E+10	1	-1E+10	1	-1E+10	1
4901784	84	C	10/22/2017	10:44	-133.402	43.887	0	86.60	0	9.5310	0	32.9880	4	25.460	0	85.888	0	248.3	4	88.2	4	-1E+10	1	-1E+10	1	-1E+10	1	-1E+10	1	-1E+10	1	-1E+10	1
4901784	84	C	10/22/2017	10:44	-133.402	43.887	0	88.10	0	9.5260	0	32.9900	4	25.463	0	87.375	0	244.2	4	86.8	4	-1E+10	1	-1E+10	1	-1E+10	1	-1E+10	1	-1E+10	1	-1E+10	1
4901784	84	C	10/22/2017	10:44	-133.402	43.887	0	89.50	0	9.5160	0	33.0050	4	25.476	0	88.763	0	239.3	4	85.0	4	-1E+10	1	-1E+10	1	-1E+10	1	-1E+10	1	-1E+10	1	-1E+10	1
4901784	84	C	10/22/2017	10:44	-133.402	43.887	0	90.90	0	9.4880	0	33.0270	4	25.498	0	90.152	0	234.5	4	83.3	4	-1E+10	1	-1E+10	1	-1E+10	1	-1E+10	1	-1E+10	1	-1E+10	1
4901784	84	C	10/22/2017	10:44	-133.402	43.887	0	92.50	0	9.4900	0	33.0590	4	25.522	0	91.738	0	229.8	4	81.6	4	-1E+10	1	-1E+10	1	-1E+10	1	-1E+10	1	-1E+10	1	-1E+10	1
4901784	84	C	10/22/2017	10:44	-133.402	43.887	0	94.10	0	9.4400	0	33.0890	4	25.554	0	93.324	0	226.7	4	80.4	4	-1E+10	1	-1E+10	1	-1E+10	1	-1E+10	1	-1E+10	1	-1E+10	1
4901784	84	C	10/22/2017	10:44	-133.402	43.887	0	95.70	0	9.3310	0	33.1010	4	25.581	0	94.911	0	223.3	4	79.0	4	-1E+10	1	-1E+10	1	-1E+10	1	-1E+10	1	-1E+10	1	-1E+10	1
4901784	84	C	10/22/2017	10:44	-133.402	43.887	0	97.40	0	9.3860	0	33.1530	4	25.613	0	96.596	0	219.0	4	77.6	4	-1E+10	1	-1E+10	1	-1E+10	1	-1E+10	1	-1E+10	1	-1E+10	1
4901784	84	C	10/22/2017	10:44	-133.402	43.887	0	99.30	0	9.2590	0	33.1810	4	25.655	0	98.480	0	217.1	4	76.8	4	-1E+10	1	-1E+10	1	-1E+10	1	-1E+10	1	-1E+10	1	-1E+10	1
4901784	84	C	10/22/2017	10:44	-133.402	43.887	0	99.80	0	9.2290	0	33.1840	4	25.662	0	98.976	0	217.4	4	76.8	4	-1E+10	1	-1E+10	1	-1E+10	1	-1E+10	1	-1E+10	1	-1E+10	1
4901784	84	C	10/22/2017	10:44	-133.402	43.887	0	102.60	0	9.1500	0	33.2250	4	25.707	0	101.752	0	211.4	4	74.6	4	-1E+10	1	-1E+10	1	-1E+10	1	-1E+10	1	-1E+10	1	-1E+10	1
4901784	84	C	10/22/2017	10:44	-133.402	43.887	0	104.70	0	9.1180	0	33.2560	4	25.736	0	103.834	0	206.6	4	72.9	4	-1E+10	1	-1E+10	1	-1E+10	1	-1E+10	1	-1E+10	1	-1E+10	1
4901784	84	C	10/22/2017	10:44	-133.402	43.887	0	107.50	0	9.1340	0	33.3070	4	25.774	0	106.611	0	199.4	4	70.4	4	-1E+10	1	-1E+10	1	-1E+10	1	-1E+10	1	-1E+10	1	-1E+10	1
4901784	84	C	10/22/2017	10:44	-133.402	43.887	0	110.40	0	9.1230	0	33.3780	4	25.831	0	109.486	0	195.4	4	69.0	4	-1E+10	1	-1E+10	1	-1E+10	1	-1E+10	1	-1E+10	1	-1E+10	1
4901784	84	C	10/22/2017	10:44	-133.402	43.887	0	112.70	0	9.0220	0	33.4020	4	25.866	0	111.766	0	195.3	4	68.8	4	-1E+10	1	-1E+10	1	-1E+10	1	-1E+10	1	-1E+10	1	-1E+10	1
4901784	84	C	10/22/2017	10:44	-133.402	43.887	0	114.90	0	8.8720	0	33.4420	4	25.921	0	113.947	0	192.8	4	67.7	4	-1E+10	1	-1E+10	1	-1E+10	1	-1E+10	1	-1E+10	1	-1E+10	1
4901784	84	C	10/22/2017	10:44	-133.402	43.887	0	117.90	0	8.8540	0	33.4840	4	25.956	0	116.922	0	185.8	4	65.3	4	-1E+10	1	-1E+10	1	-1E+10	1	-1E+10	1	-1E+10	1	-1E+10	1
4901784	84	C	10/22/2017	10:44	-133.402	43.887	0	120.40	0	8.8890	0	33.5280	4	25.985	0	119.400	0	180.2	4	63.4	4	-1E+10	1	-1E+10	1	-1E+10	1	-1E+10	1	-1E+10	1	-1E+10	1
4901784	84	C	10/22/2017	10:44	-133.402	43.887	0	122.80	0	8.8790	0	33.5660	4	26.017	0	121.779	0	177.5	4	62.4	4	-1E+10	1	-1E+10	1	-1E+10	1	-1E+10	1	-1E+10	1	-1E+10	1
4901784	84	C	10/22/2017	10:44	-133.402	43.887	0	125.50	0	8.8210	0	33.6200	4	26.068	0	124.456	0	178.2	4	62.6	4	-1E+10	1	-1E+10	1	-1E+10	1	-1E+10	1	-1E+10	1	-1E+10	1
4901784	84	C	10/22/2017	10:44	-133.402	43.887	0	127.20	0	8.8070	0	33.6220	4	26.072	0	126.142	0	178.9	4	62.9	4	-1E+10	1	-1E+10	1	-1E+10	1	-1E+10	1	-1E+10	1	-1E+10	1
4901784	84	C	10/22/2017	10:44	-133.402	43.887	0	130.00	0	8.7340	0	33.6990	4	26.144	0	128.917	0	180.2	4	63.3	4	-1E+10	1	-1E+10	1	-1E+10	1	-1E+10	1	-1E+10	1	-1E+10	1
4901784	84	C	10/22/2017	10:44	-133.402	43.887	0	132.50	0	8.7120	0	33.7280	4	26.170	0	131.396	0	179.8	4	63.1	4	-1E+10	1	-1E+10	1	-1E+10	1	-1E+10	1	-1E+10	1	-1E+10	1
4901784	84	C	10/22/2017	10:44	-133.402	43.887	0	135.10	0	8.6940	0	33.7460	4	26.187	0	133.973	0	178.0	4	62.4	4	-1E+10	1	-1E+10	1	-1E+10	1	-1E+10	1	-1E+10	1	-1E+10	1
4901784	84	C	10/22/2017	10:44	-133.402	43.887	0	137.70	0	8.6770	0	33.7690	4	26.207	0	136.551	0	175.3	4	61.5	4	-1E+10	1	-1E+10	1	-1E+10	1	-1E+10	1	-1E+10	1	-1E+10	1
4901784	84	C	10/22/2017	10:44	-133.402	43.887	0	139.60	0	8.6250	0	33.8070	4	26.245	0	138.434	0	172.4	4	60.4	4	-1E+10	1	-1E+10	1	-1E+10	1	-1E+10	1	-1E+10	1	-1E+10	1
4901784	84	C	10/22/2017	10:44	-133.402	43.887	0	142.40	0	8.6020	0	33.8380	4	26.273	0	141.210	0	167.9	4	58.8	4	-1E+10	1	-1E+10	1	-1E+10	1	-1E+10	1	-1E+10	1	-1E+10	1
4901784	84	C	10/22/2017	10:44	-133.402	43.887	0	145.10	0	8.5610	0	33.8660	4	26.301	0	143.886	0	161.1	4	56.4	4	-1E+10	1	-1E+10	1	-1E+10	1	-1E+10	1	-1E+10	1	-1E+10	1
4901784	84	C	10/22/2017	10:44	-133.402	43.887	0	146.90	0	8.5170	0	33.8840	4	26.322	0	145.671	0	155.0	4	54.2	4	-1E+10	1	-1E+10	1	-1E+10	1	-1E+10	1	-1E+10	1	-1E+10	1
4901784	84	C	10/22/2017	10:44	-133.402	43.887	0	149.70	0	8.4500	0	33.9030	4	26.347	0	148.446	0	145.1	4	50.7	4	-1E+10	1	-1E+10	1	-1E+10	1	-1E+10	1	-1E+10	1	-1E+10	1
4901784	84	C	10/22/2017	10:44	-133.402	43.887	0	152.50	0	8.3710	0	33.9120	4	26.366	0	151.222	0	134.1	4	46.8	4	-1E+10	1	-1E+10	1	-1E+10	1	-1E+10	1	-1E+10	1	-1E+10	1
4901784	84	C	10/22/2017	10:44	-133.402	43.887	0	154.50	0	8.2380	0	33.9100	4	26.385	0	153.204	0	128.2	4	44.6	4	-1E+10	1	-1E+10	1	-1E+10	1	-1E+10	1	-1E+10	1	-1E+10	1
4901784	84	C	10/22/2017	10:44	-133.402	43.887	0	157.30	0	8.1770	0	33.9210	4	26.403	0	155.980	0	125.6	4	43.6	4	-1E+10	1	-1E+10	1	-1E+10	1	-1E+10	1	-1E+10	1	-1E+10	1
4901784	84	C	10/22/2017	10:44	-133.402	43.887	0	160.10	0	8.1150	0	33.9280	4	26.418	0	158.755	0	124.0	4	43.0	4	-1E+10	1	-1E+10	1	-1E+10	1	-1E+10	1	-1E+10	1	-1E+10	1
4901784	84	C	10/22/2017	10:44	-133.402	43.887	0	162.00	0	8.0940	0	33.9300	4	26.422	0	160.638	0	124.0	4	43.0	4	-1E+10	1	-1E+10	1	-1E+10	1	-1E+10	1	-1E+10	1	-1E+10	1
4901784	84	C	10/22/2017	10:44	-133.402	43.887	0	164.80	0	8.0730	0	33.9370	4	26.431	0	163.414	0	123.0	4	42.6	4	-1E+10	1	-1E+10	1	-1E+10	1	-1E+10	1	-1E+10	1	-1E+10	1
4901784	84	C	10/22/2017	10:44	-133.402	43.887	0	167.70	0	8.0160	0	33.9420	4	26.443	0	166.288	0	122.0	4	42.2	4	-1E+10	1	-1E+10	1	-1E+10	1	-1E+10	1	-1E+10	1	-1E+10	1
4901784	84	C	10/22/2017	10:44	-133.402	43.887	0	169.50	0	7.9630	0	33.9510	4	26.458	0	168.072	0	122.1	4	42.2	4	-1E+10	1	-1E+10	1	-1E+10	1	-1E+10	1	-1E+10	1	-1E+10	1
4901784	84	C	10/22/2017	10:44	-133.402	43.887	0	172.10	0	7.8810	0	33.9670	4	26.483	0	170.649	0	124.4	4	42.9	4	-1E+10	1	-1E+10	1	-1E+10	1	-1E+10	1	-1E+10	1	-1E+10	1
4901784	84	C	10/22/2017	10:44	-133.402	43.887	0	174.70	0	7.8600	0	33.9780	4	26.495	0	173.226	0	125.3	4	43.2	4	-1E+10	1	-1E+10	1	-1E+10	1	-1E+10	1	-1E+10	1	-1E+10	1
4901784	84	C	10/22/2017	10:44	-133.402	43.887	0	177.90	0	7.8270	0	33.9780	4	26.499	0	176.398	0	124.8	4	43.0	4	-1E+10	1	-1E+10	1	-1E+10	1	-1E+10	1	-1E+10	1	-1E+10	1
4901784	84	C	10/22/2017	10:44	-133.402	43.887	0	180.20	0	7.7610	0	33.9900	4	26.519	0	178.678	0	126.6	4	43.6	4	-1E+10	1	-1E+10	1	-1E+10	1	-1E+10	1	-1E+10	1	-1E+10	1
4901784	84	C	10/22/2017	10:44	-133.402	43.887	0	182.70	0	7.7420	0	33.9930	4	26.524	0	181.155	0	127.2	4	43.8	4	-1E+10	1	-1E+10	1	-1E+10	1	-1E+10	1	-1E+10	1	-1E+10	1
4901784	84	C	10/22/2017	10:44	-133.402	43.887	0	185.10	0	7.7330	0	33.9940	4	26.526	0	183.534	0	126.5	4	43.5	4	-1E+10	1	-1E+10	1	-1E+10	1	-1E+10	1	-1E+10	1	-1E+10	1
4901784	84	C	10/22/2017	10:44	-133.402	43.887	0	187.60	0	7.7070	0	33.9950	4	26.530	0	186.012	0	125.2	4	43.0	4	-1E+10	1	-1E+10	1	-1E+10	1	-1E+10	1	-1E+10	1	-1E+10	1
4901784	84	C	10/22/2017	10:44	-133.402	43.887	0	190.10	0	7.6720	0	33.9980	4	26.538	0	188.489	0	125.1	4	43.0	4	-1E+10	1	-1E+10	1	-1E+10	1	-1E+10	1	-1E+10	1	-1E+10	1
4901784	84	C	10/22/2017	10:44	-133.402	43.887	0	192.50	0	7.6350	0	34.0000	4	26.545	0	190.868	0	123.4	4	42.4	4	-1E+10	1	-1E+10	1	-1E+10	1	-1E+10	1	-1E+10	1	-1E+10	1
4901784	84	C	10/22/2017	10:44	-133.402	43.887	0	194.90	0	7.6300	0	33.9980	4	26.544	0	193.247	0	123.1	4	42.3	4	-1E+10	1	-1E+10	1	-1E+10	1	-1E+10	1	-1E+10	1	-1E+10	1
4901784	84	C	10/22/2017	10:44	-133.402	43.887	0	197.50	0	7.5830	0	34.0010	4	26.553	0	195.823	0	123.3	4	42.3	4	-1E+10	1	-1E+10	1	-1E+10	1	-1E+10	1	-1E+10	1	-1E+10	1
4901784	84	C	10/22/2017	10:44	-133.402	43.887	0	200.10	0	7.5180	0	34.0050	4	26.565	0	198.400	0	124.2	4	42.5	4	-1E+10	1	-1E+10	1	-1E+10	1	-1E+10	1	-1E+10	1	-1E+10	1
4901784	84	C	10/22/2017	10:44	-133.402	43.887	0	202.60	0	7.4730	0	34.0070	4	26.573	0	200.877	0	124.4	4	42.5	4	-1E+10	1	-1E+10	1	-1E+10	1	-1E+10	1	-1E+10	1	-1E+10	1
4901784	84	C	10/22/2017	10:44	-133.402	43.887	0	205.00	0	7.4540	0	34.0070	4	26.576	0	203.256	0	126.2	4	43.1	4	-1E+10	1	-1E+10	1	-1E+10	1	-1E+10	1	-1E+10	1	-1E+10	1
4901784	84	C	10/22/2017	10:44	-133.402	43.887	0	207.40	0	7.4080	0	34.0100	4	26.585	0	205.634	0	129.3	4	44.2	4	-1E+10	1	-1E+10	1	-1E+10	1	-1E+10	1	-1E+10	1	-1E+10	1
4901784	84	C	10/22/2017	10:44	-133.402	43.887	0	209.80	0	7.3580	0	34.0110	4	26.593	0	208.013	0	133.1	4	45.4	4	-1E+10	1	-1E+10	1	-1E+10	1	-1E+10	1	-1E+10	1	-1E+10	1
4901784	84	C	10/22/2017	10:44	-133.402	43.887	0	212.40	0	7.3210	0	34.0120	4	26.599	0	210.589	0	134.7	4	45.9	4	-1E+10	1	-1E+10	1	-1E+10	1	-1E+10	1	-1E+10	1	-1E+10	1
4901784	84	C	10/22/2017	10:44	-133.402	43.887	0	215.10	0	7.3090	0	34.0080	4	26.598	0	213.265	0	134.8	4	45.9	4	-1E+10	1	-1E+10	1	-1E+10	1	-1E+10	1	-1E+10	1	-1E+10	1
4901784	84	C	10/22/2017	10:44	-133.402	43.887	0	217.60	0	7.2200	0	34.0120	4	26.613	0	215.742	0	133.9	4	45.5	4	-1E+10	1	-1E+10	1	-1E+10	1	-1E+10	1	-1E+10	1	-1E+10	1
4901784	84	C	10/22/2017	10:44	-133.402	43.887	0	220.20	0	7.1890	0	34.0110	4	26.617	0	218.319	0	132.5	4	45.0	4	-1E+10	1	-1E+10	1	-1E+10	1	-1E+10	1	-1E+10	1	-1E+10	1
4901784	84	C	10/22/2017	10:44	-133.402	43.887	0	222.80	0	7.1320	0	34.0130	4	26.626	0	220.895	0	130.3	4	44.2	4	-1E+10	1	-1E+10	1	-1E+10	1	-1E+10	1	-1E+10	1	-1E+10	1
4901784	84	C	10/22/2017	10:44	-133.402	43.887	0	225.40	0	7.0780	0	34.0140	4	26.634	0	223.471	0	127.4	4	43.2	4	-1E+10	1	-1E+10	1	-1E+10	1	-1E+10	1	-1E+10	1	-1E+10	1
4901784	84	C	10/22/2017	10:44	-133.402	43.887	0	227.10	0	7.0550	0	34.0150	4	26.638	0	225.156	0	125.3	4	42.5	4	-1E+10	1	-1E+10	1	-1E+10	1	-1E+10	1	-1E+10	1	-1E+10	1
4901784	84	C	10/22/2017	10:44	-133.402	43.887	0	229.80	0	7.0440	0	34.0160	4	26.641	0	227.831	0	122.7	4	41.6	4	-1E+10	1	-1E+10	1	-1E+10	1	-1E+10	1	-1E+10	1	-1E+10	1
4901784	84	C	10/22/2017	10:44	-133.402	43.887	0	232.50	0	7.0290	0	34.0160	4	26.643	0	230.507	0	120.8	4	40.9	4	-1E+10	1	-1E+10	1	-1E+10	1	-1E+10	1	-1E+10	1	-1E+10	1
4901784	84	C	10/22/2017	10:44	-133.402	43.887	0	235.10	0	7.0140	0	34.0180	4	26.646	0	233.083	0	118.9	4	40.2	4	-1E+10	1	-1E+10	1	-1E+10	1	-1E+10	1	-1E+10	1	-1E+10	1
4901784	84	C	10/22/2017	10:44	-133.402	43.887	0	237.70	0	6.9730	0	34.0190	4	26.653	0	235.659	0	118.3	4	40.0	4	-1E+10	1	-1E+10	1	-1E+10	1	-1E+10	1	-1E+10	1	-1E+10	1
4901784	84	C	10/22/2017	10:44	-133.402	43.887	0	240.30	0	6.9320	0	34.0180	4	26.658	0	238.235	0	118.9	4	40.2	4	-1E+10	1	-1E+10	1	-1E+10	1	-1E+10	1	-1E+10	1	-1E+10	1
4901784	84	C	10/22/2017	10:44	-133.402	43.887	0	243.00	0	6.8640	0	34.0180	4	26.667	0	240.910	0	119.2	4	40.2	4	-1E+10	1	-1E+10	1	-1E+10	1	-1E+10	1	-1E+10	1	-1E+10	1
4901784	84	C	10/22/2017	10:44	-133.402	43.887	0	244.80	0	6.8390	0	34.0180	4	26.670	0	242.694	0	119.1	4	40.1	4	-1E+10	1	-1E+10	1	-1E+10	1	-1E+10	1	-1E+10	1	-1E+10	1
4901784	84	C	10/22/2017	10:44	-133.402	43.887	0	247.50	0	6.8130	0	34.0160	4	26.672	0	245.369	0	118.5	4	39.9	4	-1E+10	1	-1E+10	1	-1E+10	1	-1E+10	1	-1E+10	1	-1E+10	1
4901784	84	C	10/22/2017	10:44	-133.402	43.887	0	250.10	0	6.7890	0	34.0150	4	26.675	0	247.945	0	116.4	4	39.2	4	-1E+10	1	-1E+10	1	-1E+10	1	-1E+10	1	-1E+10	1	-1E+10	1
4901784	84	C	10/22/2017	10:44	-133.402	43.887	0	252.70	0	6.7460	0	34.0180	4	26.683	0	250.521	0	113.4	4	38.1	4	-1E+10	1	-1E+10	1	-1E+10	1	-1E+10	1	-1E+10	1	-1E+10	1
4901784	84	C	10/22/2017	10:44	-133.402	43.887	0	255.40	0	6.7060	0	34.0190	4	26.689	0	253.196	0	110.8	4	37.2	4	-1E+10	1	-1E+10	1	-1E+10	1	-1E+10	1	-1E+10	1	-1E+10	1
4901784	84	C	10/22/2017	10:44	-133.402	43.887	0	257.10	0	6.7100	0	34.0230	4	26.692	0	254.881	0	109.1	4	36.7	4	-1E+10	1	-1E+10	1	-1E+10	1	-1E+10	1	-1E+10	1	-1E+10	1
4901784	84	C	10/22/2017	10:44	-133.402	43.887	0	259.80	0	6.6880	0	34.0240	4	26.695	0	257.556	0	108.4	4	36.4	4	-1E+10	1	-1E+10	1	-1E+10	1	-1E+10	1	-1E+10	1	-1E+10	1
4901784	84	C	10/22/2017	10:44	-133.402	43.887	0	262.50	0	6.6670	0	34.0240	4	26.698	0	260.231	0	107.8	4	36.2	4	-1E+10	1	-1E+10	1	-1E+10	1	-1E+10	1	-1E+10	1	-1E+10	1
4901784	84	C	10/22/2017	10:44	-133.402	43.887	0	265.20	0	6.6470	0	34.0240	4	26.701	0	262.906	0	107.2	4	36.0	4	-1E+10	1	-1E+10	1	-1E+10	1	-1E+10	1	-1E+10	1	-1E+10	1
4901784	84	C	10/22/2017	10:44	-133.402	43.887	0	267.90	0	6.5940	0	34.0230	4	26.707	0	265.580	0	106.6	4	35.7	4	-1E+10	1	-1E+10	1	-1E+10	1	-1E+10	1	-1E+10	1	-1E+10	1
4901784	84	C	10/22/2017	10:44	-133.402	43.887	0	269.70	0	6.5810	0	34.0230	4	26.709	0	267.364	0	105.5	4	35.4	4	-1E+10	1	-1E+10	1	-1E+10	1	-1E+10	1	-1E+10	1	-1E+10	1
4901784	84	C	10/22/2017	10:44	-133.402	43.887	0	272.40	0	6.5620	0	34.0230	4	26.712	0	270.038	0	103.7	4	34.7	4	-1E+10	1	-1E+10	1	-1E+10	1	-1E+10	1	-1E+10	1	-1E+10	1
4901784	84	C	10/22/2017	10:44	-133.402	43.887	0	275.10	0	6.5570	0	34.0230	4	26.712	0	272.713	0	101.9	4	34.1	4	-1E+10	1	-1E+10	1	-1E+10	1	-1E+10	1	-1E+10	1	-1E+10	1
4901784	84	C	10/22/2017	10:44	-133.402	43.887	0	277.80	0	6.5450	0	34.0270	4	26.717	0	275.388	0	100.5	4	33.7	4	-1E+10	1	-1E+10	1	-1E+10	1	-1E+10	1	-1E+10	1	-1E+10	1
4901784	84	C	10/22/2017	10:44	-133.402	43.887	0	280.50	0	6.5120	0	34.0250	4	26.720	0	278.063	0	100.4	4	33.6	4	-1E+10	1	-1E+10	1	-1E+10	1	-1E+10	1	-1E+10	1	-1E+10	1
4901784	84	C	10/22/2017	10:44	-133.402	43.887	0	282.30	0	6.4670	0	34.0260	4	26.726	0	279.846	0	100.2	4	33.5	4	-1E+10	1	-1E+10	1	-1E+10	1	-1E+10	1	-1E+10	1	-1E+10	1
4901784	84	C	10/22/2017	10:44	-133.402	43.887	0	284.90	0	6.4270	0	34.0250	4	26.731	0	282.422	0	100.3	4	33.5	4	-1E+10	1	-1E+10	1	-1E+10	1	-1E+10	1	-1E+10	1	-1E+10	1
4901784	84	C	10/22/2017	10:44	-133.402	43.887	0	287.50	0	6.4140	0	34.0250	4	26.733	0	284.997	0	100.5	4	33.5	4	-1E+10	1	-1E+10	1	-1E+10	1	-1E+10	1	-1E+10	1	-1E+10	1
4901784	84	C	10/22/2017	10:44	-133.402	43.887	0	290.10	0	6.3930	0	34.0250	4	26.735	0	287.573	0	101.2	4	33.8	4	-1E+10	1	-1E+10	1	-1E+10	1	-1E+10	1	-1E+10	1	-1E+10	1
4901784	84	C	10/22/2017	10:44	-133.402	43.887	0	292.70	0	6.3330	0	34.0230	4	26.742	0	290.148	0	101.8	4	33.9	4	-1E+10	1	-1E+10	1	-1E+10	1	-1E+10	1	-1E+10	1	-1E+10	1
4901784	84	C	10/22/2017	10:44	-133.402	43.887	0	294.50	0	6.3010	0	34.0230	4	26.746	0	291.931	0	101.8	4	33.9	4	-1E+10	1	-1E+10	1	-1E+10	1	-1E+10	1	-1E+10	1	-1E+10	1
4901784	84	C	10/22/2017	10:44	-133.402	43.887	0	297.20	0	6.2630	0	34.0230	4	26.751	0	294.606	0	102.6	4	34.1	4	-1E+10	1	-1E+10	1	-1E+10	1	-1E+10	1	-1E+10	1	-1E+10	1
4901784	84	C	10/22/2017	10:44	-133.402	43.887	0	299.80	0	6.2160	0	34.0210	4	26.755	0	297.181	0	103.9	4	34.5	4	-1E+10	1	-1E+10	1	-1E+10	1	-1E+10	1	-1E+10	1	-1E+10	1
4901784	84	C	10/22/2017	10:44	-133.402	43.887	0	302.40	0	6.1390	0	34.0130	4	26.759	0	299.757	0	106.0	4	35.1	4	-1E+10	1	-1E+10	1	-1E+10	1	-1E+10	1	-1E+10	1	-1E+10	1
4901784	84	C	10/22/2017	10:44	-133.402	43.887	0	305.00	0	6.0950	0	34.0090	4	26.761	0	302.332	0	106.4	4	35.2	4	-1E+10	1	-1E+10	1	-1E+10	1	-1E+10	1	-1E+10	1	-1E+10	1
4901784	84	C	10/22/2017	10:44	-133.402	43.887	0	307.70	0	6.0090	0	34.0040	4	26.768	0	305.007	0	105.7	4	35.0	4	-1E+10	1	-1E+10	1	-1E+10	1	-1E+10	1	-1E+10	1	-1E+10	1
4901784	84	C	10/22/2017	10:44	-133.402	43.887	0	310.30	0	5.9610	0	34.0070	4	26.776	0	307.582	0	104.2	4	34.4	4	-1E+10	1	-1E+10	1	-1E+10	1	-1E+10	1	-1E+10	1	-1E+10	1
4901784	84	C	10/22/2017	10:44	-133.402	43.887	0	312.90	0	5.9090	0	34.0030	4	26.780	0	310.157	0	104.0	4	34.3	4	-1E+10	1	-1E+10	1	-1E+10	1	-1E+10	1	-1E+10	1	-1E+10	1
4901784	84	C	10/22/2017	10:44	-133.402	43.887	0	315.50	0	5.8860	0	33.9980	4	26.779	0	312.732	0	102.6	4	33.8	4	-1E+10	1	-1E+10	1	-1E+10	1	-1E+10	1	-1E+10	1	-1E+10	1
4901784	84	C	10/22/2017	10:44	-133.402	43.887	0	317.20	0	5.8500	0	34.0000	4	26.785	0	314.416	0	100.9	4	33.2	4	-1E+10	1	-1E+10	1	-1E+10	1	-1E+10	1	-1E+10	1	-1E+10	1
4901784	84	C	10/22/2017	10:44	-133.402	43.887	0	319.80	0	5.8550	0	34.0060	4	26.789	0	316.991	0	98.1	4	32.3	4	-1E+10	1	-1E+10	1	-1E+10	1	-1E+10	1	-1E+10	1	-1E+10	1
4901784	84	C	10/22/2017	10:44	-133.402	43.887	0	322.40	0	5.8080	0	34.0090	4	26.797	0	319.566	0	96.6	4	31.8	4	-1E+10	1	-1E+10	1	-1E+10	1	-1E+10	1	-1E+10	1	-1E+10	1
4901784	84	C	10/22/2017	10:44	-133.402	43.887	0	325.10	0	5.7710	0	34.0080	4	26.801	0	322.241	0	95.0	4	31.2	4	-1E+10	1	-1E+10	1	-1E+10	1	-1E+10	1	-1E+10	1	-1E+10	1
4901784	84	C	10/22/2017	10:44	-133.402	43.887	0	327.70	0	5.7670	0	34.0110	4	26.804	0	324.816	0	92.8	4	30.5	4	-1E+10	1	-1E+10	1	-1E+10	1	-1E+10	1	-1E+10	1	-1E+10	1
4901784	84	C	10/22/2017	10:44	-133.402	43.887	0	330.30	0	5.7420	0	34.0130	4	26.808	0	327.391	0	90.4	4	29.7	4	-1E+10	1	-1E+10	1	-1E+10	1	-1E+10	1	-1E+10	1	-1E+10	1
4901784	84	C	10/22/2017	10:44	-133.402	43.887	0	333.00	0	5.7080	0	34.0180	4	26.816	0	330.065	0	87.8	4	28.8	4	-1E+10	1	-1E+10	1	-1E+10	1	-1E+10	1	-1E+10	1	-1E+10	1
4901784	84	C	10/22/2017	10:44	-133.402	43.887	0	334.80	0	5.6860	0	34.0180	4	26.819	0	331.848	0	85.7	4	28.1	4	-1E+10	1	-1E+10	1	-1E+10	1	-1E+10	1	-1E+10	1	-1E+10	1
4901784	84	C	10/22/2017	10:44	-133.402	43.887	0	337.50	0	5.7280	0	34.0310	4	26.824	0	334.522	0	82.8	4	27.2	4	-1E+10	1	-1E+10	1	-1E+10	1	-1E+10	1	-1E+10	1	-1E+10	1
4901784	84	C	10/22/2017	10:44	-133.402	43.887	0	340.20	0	5.7290	0	34.0340	4	26.827	0	337.196	0	82.0	4	26.9	4	-1E+10	1	-1E+10	1	-1E+10	1	-1E+10	1	-1E+10	1	-1E+10	1
4901784	84	C	10/22/2017	10:44	-133.402	43.887	0	342.80	0	5.6960	0	34.0320	4	26.829	0	339.770	0	82.2	4	27.0	4	-1E+10	1	-1E+10	1	-1E+10	1	-1E+10	1	-1E+10	1	-1E+10	1
4901784	84	C	10/22/2017	10:44	-133.402	43.887	0	345.50	0	5.6460	0	34.0300	4	26.834	0	342.444	0	82.3	4	27.0	4	-1E+10	1	-1E+10	1	-1E+10	1	-1E+10	1	-1E+10	1	-1E+10	1
4901784	84	C	10/22/2017	10:44	-133.402	43.887	0	347.30	0	5.5810	0	34.0280	4	26.840	0	344.227	0	82.5	4	27.0	4	-1E+10	1	-1E+10	1	-1E+10	1	-1E+10	1	-1E+10	1	-1E+10	1
4901784	84	C	10/22/2017	10:44	-133.402	43.887	0	350.00	0	5.5470	0	34.0250	4	26.842	0	346.901	0	82.7	4	27.0	4	-1E+10	1	-1E+10	1	-1E+10	1	-1E+10	1	-1E+10	1	-1E+10	1
4901784	84	C	10/22/2017	10:44	-133.402	43.887	0	352.60	0	5.4930	0	34.0220	4	26.846	0	349.476	0	82.3	4	26.9	4	-1E+10	1	-1E+10	1	-1E+10	1	-1E+10	1	-1E+10	1	-1E+10	1
4901784	84	C	10/22/2017	10:44	-133.402	43.887	0	354.50	0	5.4510	0	34.0210	4	26.850	0	351.357	0	81.8	4	26.7	4	-1E+10	1	-1E+10	1	-1E+10	1	-1E+10	1	-1E+10	1	-1E+10	1
4901784	84	C	10/22/2017	10:44	-133.402	43.887	0	357.20	0	5.3890	0	34.0200	4	26.857	0	354.031	0	81.1	4	26.4	4	-1E+10	1	-1E+10	1	-1E+10	1	-1E+10	1	-1E+10	1	-1E+10	1
4901784	84	C	10/22/2017	10:44	-133.402	43.887	0	360.00	0	5.3570	0	34.0190	4	26.860	0	356.804	0	79.8	4	26.0	4	-1E+10	1	-1E+10	1	-1E+10	1	-1E+10	1	-1E+10	1	-1E+10	1
4901784	84	C	10/22/2017	10:44	-133.402	43.887	0	362.80	0	5.3220	0	34.0220	4	26.866	0	359.576	0	78.5	4	25.6	4	-1E+10	1	-1E+10	1	-1E+10	1	-1E+10	1	-1E+10	1	-1E+10	1
4901784	84	C	10/22/2017	10:44	-133.402	43.887	0	365.60	0	5.2820	0	34.0230	4	26.872	0	362.349	0	78.2	4	25.4	4	-1E+10	1	-1E+10	1	-1E+10	1	-1E+10	1	-1E+10	1	-1E+10	1
4901784	84	C	10/22/2017	10:44	-133.402	43.887	0	367.40	0	5.2630	0	34.0200	4	26.871	0	364.131	0	78.0	4	25.4	4	-1E+10	1	-1E+10	1	-1E+10	1	-1E+10	1	-1E+10	1	-1E+10	1
4901784	84	C	10/22/2017	10:44	-133.402	43.887	0	370.20	0	5.2130	0	34.0210	4	26.878	0	366.904	0	77.4	4	25.1	4	-1E+10	1	-1E+10	1	-1E+10	1	-1E+10	1	-1E+10	1	-1E+10	1
4901784	84	C	10/22/2017	10:44	-133.402	43.887	0	373.00	0	5.2030	0	34.0230	4	26.881	0	369.677	0	76.8	4	24.9	4	-1E+10	1	-1E+10	1	-1E+10	1	-1E+10	1	-1E+10	1	-1E+10	1
4901784	84	C	10/22/2017	10:44	-133.402	43.887	0	374.80	0	5.1510	0	34.0200	4	26.884	0	371.459	0	76.5	4	24.8	4	-1E+10	1	-1E+10	1	-1E+10	1	-1E+10	1	-1E+10	1	-1E+10	1
4901784	84	C	10/22/2017	10:44	-133.402	43.887	0	377.70	0	5.1370	0	34.0210	4	26.887	0	374.331	0	75.5	4	24.5	4	-1E+10	1	-1E+10	1	-1E+10	1	-1E+10	1	-1E+10	1	-1E+10	1
4901784	84	C	10/22/2017	10:44	-133.402	43.887	0	380.50	0	5.1200	0	34.0240	4	26.891	0	377.103	0	74.1	4	24.0	4	-1E+10	1	-1E+10	1	-1E+10	1	-1E+10	1	-1E+10	1	-1E+10	1
4901784	84	C	10/22/2017	10:44	-133.402	43.887	0	383.00	0	5.0890	0	34.0300	4	26.900	0	379.578	0	73.2	4	23.7	4	-1E+10	1	-1E+10	1	-1E+10	1	-1E+10	1	-1E+10	1	-1E+10	1
4901784	84	C	10/22/2017	10:44	-133.402	43.887	0	384.90	0	5.0810	0	34.0310	4	26.901	0	381.460	0	72.6	4	23.5	4	-1E+10	1	-1E+10	1	-1E+10	1	-1E+10	1	-1E+10	1	-1E+10	1
4901784	84	C	10/22/2017	10:44	-133.402	43.887	0	387.30	0	5.0600	0	34.0330	4	26.905	0	383.836	0	72.1	4	23.3	4	-1E+10	1	-1E+10	1	-1E+10	1	-1E+10	1	-1E+10	1	-1E+10	1
4901784	84	C	10/22/2017	10:44	-133.402	43.887	0	389.70	0	5.0540	0	34.0340	4	26.907	0	386.212	0	71.7	4	23.2	4	-1E+10	1	-1E+10	1	-1E+10	1	-1E+10	1	-1E+10	1	-1E+10	1
4901784	84	C	10/22/2017	10:44	-133.402	43.887	0	392.10	0	5.0440	0	34.0360	4	26.910	0	388.589	0	71.1	4	23.0	4	-1E+10	1	-1E+10	1	-1E+10	1	-1E+10	1	-1E+10	1	-1E+10	1
4901784	84	C	10/22/2017	10:44	-133.402	43.887	0	395.30	0	5.0350	0	34.0370	4	26.911	0	391.757	0	70.1	4	22.7	4	-1E+10	1	-1E+10	1	-1E+10	1	-1E+10	1	-1E+10	1	-1E+10	1
4901784	84	C	10/22/2017	10:44	-133.402	43.887	0	397.80	0	5.0290	0	34.0390	4	26.914	0	394.232	0	69.5	4	22.5	4	-1E+10	1	-1E+10	1	-1E+10	1	-1E+10	1	-1E+10	1	-1E+10	1
4901784	84	C	10/22/2017	10:44	-133.402	43.887	0	400.20	0	5.0240	0	34.0400	4	26.915	0	396.608	0	68.8	4	22.3	4	-1E+10	1	-1E+10	1	-1E+10	1	-1E+10	1	-1E+10	1	-1E+10	1
4901784	84	C	10/22/2017	10:44	-133.402	43.887	0	402.60	0	5.0410	0	34.0440	4	26.916	0	398.984	0	68.2	4	22.1	4	-1E+10	1	-1E+10	1	-1E+10	1	-1E+10	1	-1E+10	1	-1E+10	1
4901784	84	C	10/22/2017	10:44	-133.402	43.887	0	405.00	0	4.9950	0	34.0430	4	26.921	0	401.361	0	67.7	4	21.9	4	-1E+10	1	-1E+10	1	-1E+10	1	-1E+10	1	-1E+10	1	-1E+10	1
4901784	84	C	10/22/2017	10:44	-133.402	43.887	0	407.50	0	4.9860	0	34.0450	4	26.923	0	403.836	0	67.1	4	21.7	4	-1E+10	1	-1E+10	1	-1E+10	1	-1E+10	1	-1E+10	1	-1E+10	1
4901784	84	C	10/22/2017	10:44	-133.402	43.887	0	410.00	0	4.9670	0	34.0480	4	26.928	0	406.311	0	66.4	4	21.4	4	-1E+10	1	-1E+10	1	-1E+10	1	-1E+10	1	-1E+10	1	-1E+10	1
4901784	84	C	10/22/2017	10:44	-133.402	43.887	0	412.50	0	4.9490	0	34.0490	4	26.931	0	408.786	0	65.8	4	21.2	4	-1E+10	1	-1E+10	1	-1E+10	1	-1E+10	1	-1E+10	1	-1E+10	1
4901784	84	C	10/22/2017	10:44	-133.402	43.887	0	415.00	0	4.9350	0	34.0520	4	26.935	0	411.261	0	65.3	4	21.1	4	-1E+10	1	-1E+10	1	-1E+10	1	-1E+10	1	-1E+10	1	-1E+10	1
4901784	84	C	10/22/2017	10:44	-133.402	43.887	0	417.40	0	4.9190	0	34.0540	4	26.938	0	413.637	0	64.8	4	20.9	4	-1E+10	1	-1E+10	1	-1E+10	1	-1E+10	1	-1E+10	1	-1E+10	1
4901784	84	C	10/22/2017	10:44	-133.402	43.887	0	420.00	0	4.9090	0	34.0560	4	26.941	0	416.211	0	64.2	4	20.7	4	-1E+10	1	-1E+10	1	-1E+10	1	-1E+10	1	-1E+10	1	-1E+10	1
4901784	84	C	10/22/2017	10:44	-133.402	43.887	0	422.50	0	4.9040	0	34.0550	4	26.941	0	418.686	0	63.6	4	20.5	4	-1E+10	1	-1E+10	1	-1E+10	1	-1E+10	1	-1E+10	1	-1E+10	1
4901784	84	C	10/22/2017	10:44	-133.402	43.887	0	425.00	0	4.8960	0	34.0560	4	26.943	0	421.161	0	62.4	4	20.1	4	-1E+10	1	-1E+10	1	-1E+10	1	-1E+10	1	-1E+10	1	-1E+10	1
4901784	84	C	10/22/2017	10:44	-133.402	43.887	0	427.60	0	4.8970	0	34.0570	4	26.943	0	423.734	0	60.9	4	19.6	4	-1E+10	1	-1E+10	1	-1E+10	1	-1E+10	1	-1E+10	1	-1E+10	1
4901784	84	C	10/22/2017	10:44	-133.402	43.887	0	430.20	0	4.8890	0	34.0640	4	26.950	0	426.308	0	59.6	4	19.2	4	-1E+10	1	-1E+10	1	-1E+10	1	-1E+10	1	-1E+10	1	-1E+10	1
4901784	84	C	10/22/2017	10:44	-133.402	43.887	0	432.70	0	4.8680	0	34.0680	4	26.955	0	428.783	0	58.8	4	18.9	4	-1E+10	1	-1E+10	1	-1E+10	1	-1E+10	1	-1E+10	1	-1E+10	1
4901784	84	C	10/22/2017	10:44	-133.402	43.887	0	435.30	0	4.8510	0	34.0720	4	26.960	0	431.357	0	57.9	4	18.6	4	-1E+10	1	-1E+10	1	-1E+10	1	-1E+10	1	-1E+10	1	-1E+10	1
4901784	84	C	10/22/2017	10:44	-133.402	43.887	0	437.90	0	4.8320	0	34.0750	4	26.965	0	433.931	0	57.1	4	18.4	4	-1E+10	1	-1E+10	1	-1E+10	1	-1E+10	1	-1E+10	1	-1E+10	1
4901784	84	C	10/22/2017	10:44	-133.402	43.887	0	439.70	0	4.8170	0	34.0780	4	26.969	0	435.712	0	56.7	4	18.3	4	-1E+10	1	-1E+10	1	-1E+10	1	-1E+10	1	-1E+10	1	-1E+10	1
4901784	84	C	10/22/2017	10:44	-133.402	43.887	0	442.30	0	4.8140	0	34.0790	4	26.970	0	438.286	0	56.0	4	18.0	4	-1E+10	1	-1E+10	1	-1E+10	1	-1E+10	1	-1E+10	1	-1E+10	1
4901784	84	C	10/22/2017	10:44	-133.402	43.887	0	444.90	0	4.7990	0	34.0820	4	26.974	0	440.860	0	55.3	4	17.8	4	-1E+10	1	-1E+10	1	-1E+10	1	-1E+10	1	-1E+10	1	-1E+10	1
4901784	84	C	10/22/2017	10:44	-133.402	43.887	0	447.60	0	4.7880	0	34.0840	4	26.977	0	443.532	0	54.6	4	17.5	4	-1E+10	1	-1E+10	1	-1E+10	1	-1E+10	1	-1E+10	1	-1E+10	1
4901784	84	C	10/22/2017	10:44	-133.402	43.887	0	450.20	0	4.7780	0	34.0870	4	26.980	0	446.106	0	53.9	4	17.3	4	-1E+10	1	-1E+10	1	-1E+10	1	-1E+10	1	-1E+10	1	-1E+10	1
4901784	84	C	10/22/2017	10:44	-133.402	43.887	0	452.80	0	4.7700	0	34.0880	4	26.982	0	448.679	0	53.2	4	17.1	4	-1E+10	1	-1E+10	1	-1E+10	1	-1E+10	1	-1E+10	1	-1E+10	1
4901784	84	C	10/22/2017	10:44	-133.402	43.887	0	455.50	0	4.7610	0	34.0900	4	26.985	0	451.352	0	52.4	4	16.8	4	-1E+10	1	-1E+10	1	-1E+10	1	-1E+10	1	-1E+10	1	-1E+10	1
4901784	84	C	10/22/2017	10:44	-133.402	43.887	0	457.30	0	4.7510	0	34.0930	4	26.988	0	453.134	0	51.7	4	16.6	4	-1E+10	1	-1E+10	1	-1E+10	1	-1E+10	1	-1E+10	1	-1E+10	1
4901784	84	C	10/22/2017	10:44	-133.402	43.887	0	459.90	0	4.7430	0	34.0950	4	26.991	0	455.707	0	51.0	4	16.4	4	-1E+10	1	-1E+10	1	-1E+10	1	-1E+10	1	-1E+10	1	-1E+10	1
4901784	84	C	10/22/2017	10:44	-133.402	43.887	0	462.50	0	4.7340	0	34.0970	4	26.993	0	458.280	0	50.5	4	16.2	4	-1E+10	1	-1E+10	1	-1E+10	1	-1E+10	1	-1E+10	1	-1E+10	1
4901784	84	C	10/22/2017	10:44	-133.402	43.887	0	465.20	0	4.7310	0	34.0970	4	26.994	0	460.953	0	49.8	4	16.0	4	-1E+10	1	-1E+10	1	-1E+10	1	-1E+10	1	-1E+10	1	-1E+10	1
4901784	84	C	10/22/2017	10:44	-133.402	43.887	0	467.90	0	4.7180	0	34.1000	4	26.998	0	463.625	0	49.0	4	15.7	4	-1E+10	1	-1E+10	1	-1E+10	1	-1E+10	1	-1E+10	1	-1E+10	1
4901784	84	C	10/22/2017	10:44	-133.402	43.887	0	469.70	0	4.7110	0	34.1000	4	26.998	0	465.407	0	48.6	4	15.6	4	-1E+10	1	-1E+10	1	-1E+10	1	-1E+10	1	-1E+10	1	-1E+10	1
4901784	84	C	10/22/2017	10:44	-133.402	43.887	0	472.40	0	4.6930	0	34.1040	4	27.004	0	468.079	0	47.8	4	15.3	4	-1E+10	1	-1E+10	1	-1E+10	1	-1E+10	1	-1E+10	1	-1E+10	1
4901784	84	C	10/22/2017	10:44	-133.402	43.887	0	475.10	0	4.6700	0	34.1050	4	27.007	0	470.751	0	47.1	4	15.1	4	-1E+10	1	-1E+10	1	-1E+10	1	-1E+10	1	-1E+10	1	-1E+10	1
4901784	84	C	10/22/2017	10:44	-133.402	43.887	0	477.90	0	4.6640	0	34.1090	4	27.011	0	473.522	0	46.5	4	14.9	4	-1E+10	1	-1E+10	1	-1E+10	1	-1E+10	1	-1E+10	1	-1E+10	1
4901784	84	C	10/22/2017	10:44	-133.402	43.887	0	480.60	0	4.6510	0	34.1110	4	27.014	0	476.195	0	45.8	4	14.7	4	-1E+10	1	-1E+10	1	-1E+10	1	-1E+10	1	-1E+10	1	-1E+10	1
4901784	84	C	10/22/2017	10:44	-133.402	43.887	0	482.40	0	4.6420	0	34.1130	4	27.016	0	477.976	0	45.4	4	14.5	4	-1E+10	1	-1E+10	1	-1E+10	1	-1E+10	1	-1E+10	1	-1E+10	1
4901784	84	C	10/22/2017	10:44	-133.402	43.887	0	485.20	0	4.6200	0	34.1170	4	27.022	0	480.747	0	44.8	4	14.4	4	-1E+10	1	-1E+10	1	-1E+10	1	-1E+10	1	-1E+10	1	-1E+10	1
4901784	84	C	10/22/2017	10:44	-133.402	43.887	0	487.90	0	4.6090	0	34.1190	4	27.025	0	483.419	0	44.3	4	14.2	4	-1E+10	1	-1E+10	1	-1E+10	1	-1E+10	1	-1E+10	1	-1E+10	1
4901784	84	C	10/22/2017	10:44	-133.402	43.887	0	489.70	0	4.5950	0	34.1170	4	27.025	0	485.201	0	44.0	4	14.1	4	-1E+10	1	-1E+10	1	-1E+10	1	-1E+10	1	-1E+10	1	-1E+10	1
4901784	84	C	10/22/2017	10:44	-133.402	43.887	0	492.40	0	4.6000	0	34.1200	4	27.027	0	487.873	0	43.5	4	13.9	4	-1E+10	1	-1E+10	1	-1E+10	1	-1E+10	1	-1E+10	1	-1E+10	1
4901784	84	C	10/22/2017	10:44	-133.402	43.887	0	495.20	0	4.5950	0	34.1210	4	27.028	0	490.643	0	42.6	4	13.6	4	-1E+10	1	-1E+10	1	-1E+10	1	-1E+10	1	-1E+10	1	-1E+10	1
4901784	84	C	10/22/2017	10:44	-133.402	43.887	0	497.10	0	4.5820	0	34.1240	4	27.032	0	492.524	0	41.8	4	13.4	4	-1E+10	1	-1E+10	1	-1E+10	1	-1E+10	1	-1E+10	1	-1E+10	1
4901784	84	C	10/22/2017	10:44	-133.402	43.887	0	499.90	0	4.5720	0	34.1270	4	27.035	0	495.295	0	41.1	4	13.1	4	-1E+10	1	-1E+10	1	-1E+10	1	-1E+10	1	-1E+10	1	-1E+10	1
4901784	84	C	10/22/2017	10:44	-133.402	43.887	0	504.50	0	4.5530	0	34.1320	4	27.041	0	499.847	0	40.2	4	12.9	4	-1E+10	1	-1E+10	1	-1E+10	1	-1E+10	1	-1E+10	1	-1E+10	1
4901784	84	C	10/22/2017	10:44	-133.402	43.887	0	510.10	0	4.5500	0	34.1370	4	27.046	0	505.388	0	39.3	4	12.6	4	-1E+10	1	-1E+10	1	-1E+10	1	-1E+10	1	-1E+10	1	-1E+10	1
4901784	84	C	10/22/2017	10:44	-133.402	43.887	0	515.40	0	4.5300	0	34.1440	4	27.053	0	510.633	0	37.8	4	12.1	4	-1E+10	1	-1E+10	1	-1E+10	1	-1E+10	1	-1E+10	1	-1E+10	1
4901784	84	C	10/22/2017	10:44	-133.402	43.887	0	520.30	0	4.5210	0	34.1480	4	27.058	0	515.481	0	36.2	4	11.6	4	-1E+10	1	-1E+10	1	-1E+10	1	-1E+10	1	-1E+10	1	-1E+10	1
4901784	84	C	10/22/2017	10:44	-133.402	43.887	0	525.20	0	4.5140	0	34.1540	4	27.063	0	520.330	0	34.6	4	11.1	4	-1E+10	1	-1E+10	1	-1E+10	1	-1E+10	1	-1E+10	1	-1E+10	1
4901784	84	C	10/22/2017	10:44	-133.402	43.887	0	530.10	0	4.5060	0	34.1600	4	27.069	0	525.178	0	33.4	4	10.7	4	-1E+10	1	-1E+10	1	-1E+10	1	-1E+10	1	-1E+10	1	-1E+10	1
4901784	84	C	10/22/2017	10:44	-133.402	43.887	0	535.00	0	4.4900	0	34.1640	4	27.074	0	530.027	0	32.5	4	10.4	4	-1E+10	1	-1E+10	1	-1E+10	1	-1E+10	1	-1E+10	1	-1E+10	1
4901784	84	C	10/22/2017	10:44	-133.402	43.887	0	540.00	0	4.4550	0	34.1690	4	27.082	0	534.974	0	31.5	4	10.1	4	-1E+10	1	-1E+10	1	-1E+10	1	-1E+10	1	-1E+10	1	-1E+10	1
4901784	84	C	10/22/2017	10:44	-133.402	43.887	0	545.00	0	4.4360	0	34.1740	4	27.088	0	539.921	0	30.5	4	9.7	4	-1E+10	1	-1E+10	1	-1E+10	1	-1E+10	1	-1E+10	1	-1E+10	1
4901784	84	C	10/22/2017	10:44	-133.402	43.887	0	550.00	0	4.4150	0	34.1790	4	27.094	0	544.867	0	29.5	4	9.4	4	-1E+10	1	-1E+10	1	-1E+10	1	-1E+10	1	-1E+10	1	-1E+10	1
4901784	84	C	10/22/2017	10:44	-133.402	43.887	0	555.00	0	4.4010	0	34.1840	4	27.099	0	549.814	0	28.6	4	9.1	4	-1E+10	1	-1E+10	1	-1E+10	1	-1E+10	1	-1E+10	1	-1E+10	1
4901784	84	C	10/22/2017	10:44	-133.402	43.887	0	560.00	0	4.3790	0	34.1880	4	27.105	0	554.761	0	27.7	4	8.8	4	-1E+10	1	-1E+10	1	-1E+10	1	-1E+10	1	-1E+10	1	-1E+10	1
4901784	84	C	10/22/2017	10:44	-133.402	43.887	0	565.10	0	4.3560	0	34.1930	4	27.111	0	559.806	0	26.9	4	8.6	4	-1E+10	1	-1E+10	1	-1E+10	1	-1E+10	1	-1E+10	1	-1E+10	1
4901784	84	C	10/22/2017	10:44	-133.402	43.887	0	570.20	0	4.3390	0	34.1980	4	27.117	0	564.852	0	26.3	4	8.4	4	-1E+10	1	-1E+10	1	-1E+10	1	-1E+10	1	-1E+10	1	-1E+10	1
4901784	84	C	10/22/2017	10:44	-133.402	43.887	0	575.30	0	4.3240	0	34.2020	4	27.122	0	569.897	0	25.7	4	8.2	4	-1E+10	1	-1E+10	1	-1E+10	1	-1E+10	1	-1E+10	1	-1E+10	1
4901784	84	C	10/22/2017	10:44	-133.402	43.887	0	580.60	0	4.3140	0	34.2050	4	27.126	0	575.140	0	25.2	4	8.0	4	-1E+10	1	-1E+10	1	-1E+10	1	-1E+10	1	-1E+10	1	-1E+10	1
4901784	84	C	10/22/2017	10:44	-133.402	43.887	0	585.70	0	4.3060	0	34.2070	4	27.128	0	580.185	0	24.5	4	7.8	4	-1E+10	1	-1E+10	1	-1E+10	1	-1E+10	1	-1E+10	1	-1E+10	1
4901784	84	C	10/22/2017	10:44	-133.402	43.887	0	590.10	0	4.2950	0	34.2110	4	27.132	0	584.537	0	23.8	4	7.6	4	-1E+10	1	-1E+10	1	-1E+10	1	-1E+10	1	-1E+10	1	-1E+10	1
4901784	84	C	10/22/2017	10:44	-133.402	43.887	0	594.50	0	4.2860	0	34.2170	4	27.138	0	588.889	0	22.9	4	7.3	4	-1E+10	1	-1E+10	1	-1E+10	1	-1E+10	1	-1E+10	1	-1E+10	1
4901784	84	C	10/22/2017	10:44	-133.402	43.887	0	599.70	0	4.2720	0	34.2230	4	27.144	0	594.033	0	22.1	4	7.0	4	-1E+10	1	-1E+10	1	-1E+10	1	-1E+10	1	-1E+10	1	-1E+10	1
4901784	84	C	10/22/2017	10:44	-133.402	43.887	0	605.00	0	4.2710	0	34.2290	4	27.149	0	599.275	0	21.1	4	6.7	4	-1E+10	1	-1E+10	1	-1E+10	1	-1E+10	1	-1E+10	1	-1E+10	1
4901784	84	C	10/22/2017	10:44	-133.402	43.887	0	610.30	0	4.2710	0	34.2360	4	27.155	0	604.517	0	20.2	4	6.4	4	-1E+10	1	-1E+10	1	-1E+10	1	-1E+10	1	-1E+10	1	-1E+10	1
4901784	84	C	10/22/2017	10:44	-133.402	43.887	0	614.80	0	4.2920	0	34.2430	4	27.158	0	608.968	0	19.4	4	6.2	4	-1E+10	1	-1E+10	1	-1E+10	1	-1E+10	1	-1E+10	1	-1E+10	1
4901784	84	C	10/22/2017	10:44	-133.402	43.887	0	619.30	0	4.2720	0	34.2460	4	27.163	0	613.419	0	19.0	4	6.0	4	-1E+10	1	-1E+10	1	-1E+10	1	-1E+10	1	-1E+10	1	-1E+10	1
4901784	84	C	10/22/2017	10:44	-133.402	43.887	0	624.70	0	4.2580	0	34.2510	4	27.168	0	618.759	0	18.5	4	5.9	4	-1E+10	1	-1E+10	1	-1E+10	1	-1E+10	1	-1E+10	1	-1E+10	1
4901784	84	C	10/22/2017	10:44	-133.402	43.887	0	630.00	0	4.2470	0	34.2540	4	27.172	0	624.001	0	17.9	4	5.7	4	-1E+10	1	-1E+10	1	-1E+10	1	-1E+10	1	-1E+10	1	-1E+10	1
4901784	84	C	10/22/2017	10:44	-133.402	43.887	0	635.30	0	4.2360	0	34.2630	4	27.180	0	629.243	0	17.2	4	5.5	4	-1E+10	1	-1E+10	1	-1E+10	1	-1E+10	1	-1E+10	1	-1E+10	1
4901784	84	C	10/22/2017	10:44	-133.402	43.887	0	640.60	0	4.1990	0	34.2680	4	27.188	0	634.484	0	16.9	4	5.4	4	-1E+10	1	-1E+10	1	-1E+10	1	-1E+10	1	-1E+10	1	-1E+10	1
4901784	84	C	10/22/2017	10:44	-133.402	43.887	0	645.10	0	4.2240	0	34.2720	4	27.189	0	638.934	0	16.3	4	5.2	4	-1E+10	1	-1E+10	1	-1E+10	1	-1E+10	1	-1E+10	1	-1E+10	1
4901784	84	C	10/22/2017	10:44	-133.402	43.887	0	649.70	0	4.2010	0	34.2760	4	27.194	0	643.483	0	16.3	4	5.2	4	-1E+10	1	-1E+10	1	-1E+10	1	-1E+10	1	-1E+10	1	-1E+10	1
4901784	84	C	10/22/2017	10:44	-133.402	43.887	0	655.10	0	4.1720	0	34.2790	4	27.200	0	648.823	0	15.8	4	5.0	4	-1E+10	1	-1E+10	1	-1E+10	1	-1E+10	1	-1E+10	1	-1E+10	1
4901784	84	C	10/22/2017	10:44	-133.402	43.887	0	660.60	0	4.1940	0	34.2880	4	27.205	0	654.262	0	15.1	4	4.8	4	-1E+10	1	-1E+10	1	-1E+10	1	-1E+10	1	-1E+10	1	-1E+10	1
4901784	84	C	10/22/2017	10:44	-133.402	43.887	0	665.20	0	4.2080	0	34.2930	4	27.207	0	658.810	0	14.8	4	4.7	4	-1E+10	1	-1E+10	1	-1E+10	1	-1E+10	1	-1E+10	1	-1E+10	1
4901784	84	C	10/22/2017	10:44	-133.402	43.887	0	669.80	0	4.2010	0	34.2960	4	27.211	0	663.359	0	14.7	4	4.7	4	-1E+10	1	-1E+10	1	-1E+10	1	-1E+10	1	-1E+10	1	-1E+10	1
4901784	84	C	10/22/2017	10:44	-133.402	43.887	0	675.30	0	4.1710	0	34.3000	4	27.217	0	668.797	0	14.6	4	4.6	4	-1E+10	1	-1E+10	1	-1E+10	1	-1E+10	1	-1E+10	1	-1E+10	1
4901784	84	C	10/22/2017	10:44	-133.402	43.887	0	679.90	0	4.1250	0	34.3000	4	27.222	0	673.345	0	14.5	4	4.6	4	-1E+10	1	-1E+10	1	-1E+10	1	-1E+10	1	-1E+10	1	-1E+10	1
4901784	84	C	10/22/2017	10:44	-133.402	43.887	0	684.50	0	4.1220	0	34.3050	4	27.226	0	677.893	0	14.2	4	4.5	4	-1E+10	1	-1E+10	1	-1E+10	1	-1E+10	1	-1E+10	1	-1E+10	1
4901784	84	C	10/22/2017	10:44	-133.402	43.887	0	690.10	0	4.1100	0	34.3090	4	27.230	0	683.430	0	14.0	4	4.4	4	-1E+10	1	-1E+10	1	-1E+10	1	-1E+10	1	-1E+10	1	-1E+10	1
4901784	84	C	10/22/2017	10:44	-133.402	43.887	0	695.60	0	4.0830	0	34.3110	4	27.235	0	688.868	0	13.8	4	4.4	4	-1E+10	1	-1E+10	1	-1E+10	1	-1E+10	1	-1E+10	1	-1E+10	1
4901784	84	C	10/22/2017	10:44	-133.402	43.887	0	700.20	0	4.0700	0	34.3160	4	27.240	0	693.416	0	13.5	4	4.3	4	-1E+10	1	-1E+10	1	-1E+10	1	-1E+10	1	-1E+10	1	-1E+10	1
4901784	84	C	10/22/2017	10:44	-133.402	43.887	0	704.80	0	4.0720	0	34.3220	4	27.245	0	697.964	0	13.3	4	4.2	4	-1E+10	1	-1E+10	1	-1E+10	1	-1E+10	1	-1E+10	1	-1E+10	1
4901784	84	C	10/22/2017	10:44	-133.402	43.887	0	710.30	0	4.0360	0	34.3230	4	27.249	0	703.401	0	13.3	4	4.2	4	-1E+10	1	-1E+10	1	-1E+10	1	-1E+10	1	-1E+10	1	-1E+10	1
4901784	84	C	10/22/2017	10:44	-133.402	43.887	0	715.50	0	4.0180	0	34.3270	4	27.254	0	708.542	0	13.1	4	4.1	4	-1E+10	1	-1E+10	1	-1E+10	1	-1E+10	1	-1E+10	1	-1E+10	1
4901784	84	C	10/22/2017	10:44	-133.402	43.887	0	720.30	0	4.0170	0	34.3300	4	27.257	0	713.287	0	12.8	4	4.1	4	-1E+10	1	-1E+10	1	-1E+10	1	-1E+10	1	-1E+10	1	-1E+10	1
4901784	84	C	10/22/2017	10:44	-133.402	43.887	0	725.10	0	4.0060	0	34.3330	4	27.261	0	718.032	0	12.7	4	4.0	4	-1E+10	1	-1E+10	1	-1E+10	1	-1E+10	1	-1E+10	1	-1E+10	1
4901784	84	C	10/22/2017	10:44	-133.402	43.887	0	729.90	0	3.9900	0	34.3370	4	27.265	0	722.777	0	12.5	4	4.0	4	-1E+10	1	-1E+10	1	-1E+10	1	-1E+10	1	-1E+10	1	-1E+10	1
4901784	84	C	10/22/2017	10:44	-133.402	43.887	0	734.80	0	3.9940	0	34.3420	4	27.269	0	727.620	0	12.4	4	3.9	4	-1E+10	1	-1E+10	1	-1E+10	1	-1E+10	1	-1E+10	1	-1E+10	1
4901784	84	C	10/22/2017	10:44	-133.402	43.887	0	739.60	0	3.9730	0	34.3450	4	27.274	0	732.365	0	12.3	4	3.9	4	-1E+10	1	-1E+10	1	-1E+10	1	-1E+10	1	-1E+10	1	-1E+10	1
4901784	84	C	10/22/2017	10:44	-133.402	43.887	0	744.60	0	3.9620	0	34.3480	4	27.277	0	737.307	0	12.2	4	3.8	4	-1E+10	1	-1E+10	1	-1E+10	1	-1E+10	1	-1E+10	1	-1E+10	1
4901784	84	C	10/22/2017	10:44	-133.402	43.887	0	749.60	0	3.9400	0	34.3510	4	27.282	0	742.249	0	12.1	4	3.8	4	-1E+10	1	-1E+10	1	-1E+10	1	-1E+10	1	-1E+10	1	-1E+10	1
4901784	84	C	10/22/2017	10:44	-133.402	43.887	0	754.60	0	3.9280	0	34.3540	4	27.285	0	747.191	0	11.9	4	3.8	4	-1E+10	1	-1E+10	1	-1E+10	1	-1E+10	1	-1E+10	1	-1E+10	1
4901784	84	C	10/22/2017	10:44	-133.402	43.887	0	759.60	0	3.9170	0	34.3580	4	27.290	0	752.133	0	11.9	4	3.7	4	-1E+10	1	-1E+10	1	-1E+10	1	-1E+10	1	-1E+10	1	-1E+10	1
4901784	84	C	10/22/2017	10:44	-133.402	43.887	0	764.70	0	3.9000	0	34.3610	4	27.294	0	757.174	0	11.8	4	3.7	4	-1E+10	1	-1E+10	1	-1E+10	1	-1E+10	1	-1E+10	1	-1E+10	1
4901784	84	C	10/22/2017	10:44	-133.402	43.887	0	769.80	0	3.8800	0	34.3640	4	27.298	0	762.214	0	11.7	4	3.7	4	-1E+10	1	-1E+10	1	-1E+10	1	-1E+10	1	-1E+10	1	-1E+10	1
4901784	84	C	10/22/2017	10:44	-133.402	43.887	0	774.80	0	3.8450	0	34.3650	4	27.303	0	767.156	0	11.8	4	3.7	4	-1E+10	1	-1E+10	1	-1E+10	1	-1E+10	1	-1E+10	1	-1E+10	1
4901784	84	C	10/22/2017	10:44	-133.402	43.887	0	779.90	0	3.8230	0	34.3660	4	27.306	0	772.196	0	11.7	4	3.7	4	-1E+10	1	-1E+10	1	-1E+10	1	-1E+10	1	-1E+10	1	-1E+10	1
4901784	84	C	10/22/2017	10:44	-133.402	43.887	0	785.00	0	3.8020	0	34.3670	4	27.309	0	777.236	0	11.6	4	3.7	4	-1E+10	1	-1E+10	1	-1E+10	1	-1E+10	1	-1E+10	1	-1E+10	1
4901784	84	C	10/22/2017	10:44	-133.402	43.887	0	790.10	0	3.7890	0	34.3720	4	27.314	0	782.276	0	11.5	4	3.6	4	-1E+10	1	-1E+10	1	-1E+10	1	-1E+10	1	-1E+10	1	-1E+10	1
4901784	84	C	10/22/2017	10:44	-133.402	43.887	0	795.30	0	3.7860	0	34.3750	4	27.317	0	787.415	0	11.4	4	3.6	4	-1E+10	1	-1E+10	1	-1E+10	1	-1E+10	1	-1E+10	1	-1E+10	1
4901784	84	C	10/22/2017	10:44	-133.402	43.887	0	800.50	0	3.7900	0	34.3780	4	27.319	0	792.554	0	11.3	4	3.6	4	-1E+10	1	-1E+10	1	-1E+10	1	-1E+10	1	-1E+10	1	-1E+10	1
4901784	84	C	10/22/2017	10:44	-133.402	43.887	0	804.90	0	3.7770	0	34.3770	4	27.319	0	796.902	0	11.3	4	3.6	4	-1E+10	1	-1E+10	1	-1E+10	1	-1E+10	1	-1E+10	1	-1E+10	1
4901784	84	C	10/22/2017	10:44	-133.402	43.887	0	809.30	0	3.7600	0	34.3800	4	27.323	0	801.249	0	11.3	4	3.6	4	-1E+10	1	-1E+10	1	-1E+10	1	-1E+10	1	-1E+10	1	-1E+10	1
4901784	84	C	10/22/2017	10:44	-133.402	43.887	0	814.70	0	3.7430	0	34.3840	4	27.328	0	806.585	0	11.3	4	3.5	4	-1E+10	1	-1E+10	1	-1E+10	1	-1E+10	1	-1E+10	1	-1E+10	1
4901784	84	C	10/22/2017	10:44	-133.402	43.887	0	820.00	0	3.7330	0	34.3870	4	27.332	0	811.822	0	11.2	4	3.5	4	-1E+10	1	-1E+10	1	-1E+10	1	-1E+10	1	-1E+10	1	-1E+10	1
4901784	84	C	10/22/2017	10:44	-133.402	43.887	0	825.40	0	3.7210	0	34.3900	4	27.335	0	817.158	0	11.2	4	3.5	4	-1E+10	1	-1E+10	1	-1E+10	1	-1E+10	1	-1E+10	1	-1E+10	1
4901784	84	C	10/22/2017	10:44	-133.402	43.887	0	829.90	0	3.7120	0	34.3920	4	27.338	0	821.604	0	11.2	4	3.5	4	-1E+10	1	-1E+10	1	-1E+10	1	-1E+10	1	-1E+10	1	-1E+10	1
4901784	84	C	10/22/2017	10:44	-133.402	43.887	0	834.40	0	3.6980	0	34.3950	4	27.342	0	826.050	0	11.2	4	3.5	4	-1E+10	1	-1E+10	1	-1E+10	1	-1E+10	1	-1E+10	1	-1E+10	1
4901784	84	C	10/22/2017	10:44	-133.402	43.887	0	839.90	0	3.6880	0	34.3960	4	27.343	0	831.484	0	11.2	4	3.5	4	-1E+10	1	-1E+10	1	-1E+10	1	-1E+10	1	-1E+10	1	-1E+10	1
4901784	84	C	10/22/2017	10:44	-133.402	43.887	0	845.40	0	3.6790	0	34.3970	4	27.345	0	836.918	0	11.1	4	3.5	4	-1E+10	1	-1E+10	1	-1E+10	1	-1E+10	1	-1E+10	1	-1E+10	1
4901784	84	C	10/22/2017	10:44	-133.402	43.887	0	849.90	0	3.6660	0	34.4000	4	27.349	0	841.364	0	11.1	4	3.5	4	-1E+10	1	-1E+10	1	-1E+10	1	-1E+10	1	-1E+10	1	-1E+10	1
4901784	84	C	10/22/2017	10:44	-133.402	43.887	0	854.40	0	3.6460	0	34.4050	4	27.355	0	845.810	0	11.1	4	3.5	4	-1E+10	1	-1E+10	1	-1E+10	1	-1E+10	1	-1E+10	1	-1E+10	1
4901784	84	C	10/22/2017	10:44	-133.402	43.887	0	859.90	0	3.6350	0	34.4090	4	27.359	0	851.243	0	11.0	4	3.5	4	-1E+10	1	-1E+10	1	-1E+10	1	-1E+10	1	-1E+10	1	-1E+10	1
4901784	84	C	10/22/2017	10:44	-133.402	43.887	0	865.30	0	3.6270	0	34.4110	4	27.362	0	856.578	0	11.0	4	3.4	4	-1E+10	1	-1E+10	1	-1E+10	1	-1E+10	1	-1E+10	1	-1E+10	1
4901784	84	C	10/22/2017	10:44	-133.402	43.887	0	869.90	0	3.6220	0	34.4120	4	27.363	0	861.122	0	10.9	4	3.4	4	-1E+10	1	-1E+10	1	-1E+10	1	-1E+10	1	-1E+10	1	-1E+10	1
4901784	84	C	10/22/2017	10:44	-133.402	43.887	0	874.50	0	3.6150	0	34.4130	4	27.364	0	865.666	0	11.0	4	3.4	4	-1E+10	1	-1E+10	1	-1E+10	1	-1E+10	1	-1E+10	1	-1E+10	1
4901784	84	C	10/22/2017	10:44	-133.402	43.887	0	880.00	0	3.6060	0	34.4150	4	27.367	0	871.099	0	11.0	4	3.5	4	-1E+10	1	-1E+10	1	-1E+10	1	-1E+10	1	-1E+10	1	-1E+10	1
4901784	84	C	10/22/2017	10:44	-133.402	43.887	0	885.30	0	3.5940	0	34.4180	4	27.370	0	876.334	0	11.1	4	3.5	4	-1E+10	1	-1E+10	1	-1E+10	1	-1E+10	1	-1E+10	1	-1E+10	1
4901784	84	C	10/22/2017	10:44	-133.402	43.887	0	889.60	0	3.5820	0	34.4210	4	27.374	0	880.581	0	11.1	4	3.5	4	-1E+10	1	-1E+10	1	-1E+10	1	-1E+10	1	-1E+10	1	-1E+10	1
4901784	84	C	10/22/2017	10:44	-133.402	43.887	0	894.30	0	3.5750	0	34.4230	4	27.376	0	885.224	0	11.1	4	3.5	4	-1E+10	1	-1E+10	1	-1E+10	1	-1E+10	1	-1E+10	1	-1E+10	1
4901784	84	C	10/22/2017	10:44	-133.402	43.887	0	900.00	0	3.5610	0	34.4270	4	27.381	0	890.854	0	11.0	4	3.5	4	-1E+10	1	-1E+10	1	-1E+10	1	-1E+10	1	-1E+10	1	-1E+10	1
4901784	84	C	10/22/2017	10:44	-133.402	43.887	0	905.60	0	3.5460	0	34.4310	4	27.386	0	896.385	0	11.0	4	3.4	4	-1E+10	1	-1E+10	1	-1E+10	1	-1E+10	1	-1E+10	1	-1E+10	1
4901784	84	C	10/22/2017	10:44	-133.402	43.887	0	910.50	0	3.5430	0	34.4330	4	27.388	0	901.225	0	11.0	4	3.4	4	-1E+10	1	-1E+10	1	-1E+10	1	-1E+10	1	-1E+10	1	-1E+10	1
4901784	84	C	10/22/2017	10:44	-133.402	43.887	0	915.40	0	3.5360	0	34.4360	4	27.391	0	906.064	0	11.0	4	3.4	4	-1E+10	1	-1E+10	1	-1E+10	1	-1E+10	1	-1E+10	1	-1E+10	1
4901784	84	C	10/22/2017	10:44	-133.402	43.887	0	920.40	0	3.5260	0	34.4380	4	27.393	0	911.002	0	11.1	4	3.5	4	-1E+10	1	-1E+10	1	-1E+10	1	-1E+10	1	-1E+10	1	-1E+10	1
4901784	84	C	10/22/2017	10:44	-133.402	43.887	0	925.50	0	3.5210	0	34.4390	4	27.395	0	916.039	0	11.1	4	3.5	4	-1E+10	1	-1E+10	1	-1E+10	1	-1E+10	1	-1E+10	1	-1E+10	1
4901784	84	C	10/22/2017	10:44	-133.402	43.887	0	930.50	0	3.5130	0	34.4410	4	27.397	0	920.977	0	11.2	4	3.5	4	-1E+10	1	-1E+10	1	-1E+10	1	-1E+10	1	-1E+10	1	-1E+10	1
4901784	84	C	10/22/2017	10:44	-133.402	43.887	0	935.50	0	3.4970	0	34.4470	4	27.403	0	925.915	0	11.2	4	3.5	4	-1E+10	1	-1E+10	1	-1E+10	1	-1E+10	1	-1E+10	1	-1E+10	1
4901784	84	C	10/22/2017	10:44	-133.402	43.887	0	940.60	0	3.4840	0	34.4490	4	27.406	0	930.951	0	11.3	4	3.5	4	-1E+10	1	-1E+10	1	-1E+10	1	-1E+10	1	-1E+10	1	-1E+10	1
4901784	84	C	10/22/2017	10:44	-133.402	43.887	0	945.70	0	3.4780	0	34.4510	4	27.408	0	935.987	0	11.4	4	3.6	4	-1E+10	1	-1E+10	1	-1E+10	1	-1E+10	1	-1E+10	1	-1E+10	1
4901784	84	C	10/22/2017	10:44	-133.402	43.887	0	950.00	0	3.4690	0	34.4520	4	27.410	0	940.234	0	11.4	4	3.6	4	-1E+10	1	-1E+10	1	-1E+10	1	-1E+10	1	-1E+10	1	-1E+10	1
4901784	84	C	10/22/2017	10:44	-133.402	43.887	0	954.30	0	3.4630	0	34.4520	4	27.411	0	944.480	0	11.5	4	3.6	4	-1E+10	1	-1E+10	1	-1E+10	1	-1E+10	1	-1E+10	1	-1E+10	1
4901784	84	C	10/22/2017	10:44	-133.402	43.887	0	959.50	0	3.4530	0	34.4530	4	27.412	0	949.614	0	11.5	4	3.6	4	-1E+10	1	-1E+10	1	-1E+10	1	-1E+10	1	-1E+10	1	-1E+10	1
4901784	84	C	10/22/2017	10:44	-133.402	43.887	0	964.70	0	3.4450	0	34.4550	4	27.415	0	954.749	0	11.6	4	3.6	4	-1E+10	1	-1E+10	1	-1E+10	1	-1E+10	1	-1E+10	1	-1E+10	1
4901784	84	C	10/22/2017	10:44	-133.402	43.887	0	969.90	0	3.4370	0	34.4590	4	27.419	0	959.883	0	11.6	4	3.6	4	-1E+10	1	-1E+10	1	-1E+10	1	-1E+10	1	-1E+10	1	-1E+10	1
4901784	84	C	10/22/2017	10:44	-133.402	43.887	0	975.10	0	3.4240	0	34.4640	4	27.424	0	965.018	0	11.7	4	3.7	4	-1E+10	1	-1E+10	1	-1E+10	1	-1E+10	1	-1E+10	1	-1E+10	1
4901784	84	C	10/22/2017	10:44	-133.402	43.887	0	980.40	0	3.4150	0	34.4660	4	27.427	0	970.251	0	11.8	4	3.7	4	-1E+10	1	-1E+10	1	-1E+10	1	-1E+10	1	-1E+10	1	-1E+10	1
4901784	84	C	10/22/2017	10:44	-133.402	43.887	0	985.70	0	3.4030	0	34.4690	4	27.430	0	975.483	0	11.9	4	3.7	4	-1E+10	1	-1E+10	1	-1E+10	1	-1E+10	1	-1E+10	1	-1E+10	1
4901784	84	C	10/22/2017	10:44	-133.402	43.887	0	990.10	0	3.3940	0	34.4700	4	27.432	0	979.828	0	12.0	4	3.7	4	-1E+10	1	-1E+10	1	-1E+10	1	-1E+10	1	-1E+10	1	-1E+10	1
4901784	84	C	10/22/2017	10:44	-133.402	43.887	0	994.60	0	3.3880	0	34.4710	4	27.433	0	984.270	0	12.0	4	3.7	4	-1E+10	1	-1E+10	1	-1E+10	1	-1E+10	1	-1E+10	1	-1E+10	1
4901784	84	C	10/22/2017	10:44	-133.402	43.887	0	1000.00	0	3.3780	0	34.4730	4	27.436	0	989.601	0	12.0	4	3.8	4	-1E+10	1	-1E+10	1	-1E+10	1	-1E+10	1	-1E+10	1	-1E+10	1
4901784	84	C	10/22/2017	10:44	-133.402	43.887	0	1005.40	0	3.3710	0	34.4740	4	27.437	0	994.933	0	12.2	4	3.8	4	-1E+10	1	-1E+10	1	-1E+10	1	-1E+10	1	-1E+10	1	-1E+10	1
4901784	84	C	10/22/2017	10:44	-133.402	43.887	0	1009.90	0	3.3650	0	34.4760	4	27.440	0	999.375	0	12.3	4	3.8	4	-1E+10	1	-1E+10	1	-1E+10	1	-1E+10	1	-1E+10	1	-1E+10	1
4901784	84	C	10/22/2017	10:44	-133.402	43.887	0	1014.30	0	3.3570	0	34.4770	4	27.441	0	1003.719	0	12.4	4	3.9	4	-1E+10	1	-1E+10	1	-1E+10	1	-1E+10	1	-1E+10	1	-1E+10	1
4901784	84	C	10/22/2017	10:44	-133.402	43.887	0	1019.70	0	3.3470	0	34.4810	4	27.445	0	1009.049	0	12.5	4	3.9	4	-1E+10	1	-1E+10	1	-1E+10	1	-1E+10	1	-1E+10	1	-1E+10	1
4901784	84	C	10/22/2017	10:44	-133.402	43.887	0	1025.20	0	3.3390	0	34.4830	4	27.448	0	1014.478	0	12.6	4	3.9	4	-1E+10	1	-1E+10	1	-1E+10	1	-1E+10	1	-1E+10	1	-1E+10	1
4901784	84	C	10/22/2017	10:44	-133.402	43.887	0	1030.60	0	3.3310	0	34.4850	4	27.450	0	1019.809	0	12.7	4	4.0	4	-1E+10	1	-1E+10	1	-1E+10	1	-1E+10	1	-1E+10	1	-1E+10	1
4901784	84	C	10/22/2017	10:44	-133.402	43.887	0	1035.20	0	3.3220	0	34.4870	4	27.453	0	1024.349	0	12.8	4	4.0	4	-1E+10	1	-1E+10	1	-1E+10	1	-1E+10	1	-1E+10	1	-1E+10	1
4901784	84	C	10/22/2017	10:44	-133.402	43.887	0	1039.70	0	3.3120	0	34.4890	4	27.455	0	1028.791	0	12.9	4	4.0	4	-1E+10	1	-1E+10	1	-1E+10	1	-1E+10	1	-1E+10	1	-1E+10	1
4901784	84	C	10/22/2017	10:44	-133.402	43.887	0	1045.20	0	3.2970	0	34.4910	4	27.458	0	1034.220	0	13.0	4	4.1	4	-1E+10	1	-1E+10	1	-1E+10	1	-1E+10	1	-1E+10	1	-1E+10	1
4901784	84	C	10/22/2017	10:44	-133.402	43.887	0	1049.80	0	3.2910	0	34.4940	4	27.461	0	1038.760	0	13.1	4	4.1	4	-1E+10	1	-1E+10	1	-1E+10	1	-1E+10	1	-1E+10	1	-1E+10	1
4901784	84	C	10/22/2017	10:44	-133.402	43.887	0	1054.40	0	3.2790	0	34.4960	4	27.464	0	1043.301	0	13.2	4	4.1	4	-1E+10	1	-1E+10	1	-1E+10	1	-1E+10	1	-1E+10	1	-1E+10	1
4901784	84	C	10/22/2017	10:44	-133.402	43.887	0	1059.90	0	3.2680	0	34.4980	4	27.467	0	1048.729	0	13.3	4	4.1	4	-1E+10	1	-1E+10	1	-1E+10	1	-1E+10	1	-1E+10	1	-1E+10	1
4901784	84	C	10/22/2017	10:44	-133.402	43.887	0	1065.40	0	3.2610	0	34.5000	4	27.469	0	1054.157	0	13.4	4	4.2	4	-1E+10	1	-1E+10	1	-1E+10	1	-1E+10	1	-1E+10	1	-1E+10	1
4901784	84	C	10/22/2017	10:44	-133.402	43.887	0	1070.60	0	3.2530	0	34.5010	4	27.470	0	1059.289	0	13.5	4	4.2	4	-1E+10	1	-1E+10	1	-1E+10	1	-1E+10	1	-1E+10	1	-1E+10	1
4901784	84	C	10/22/2017	10:44	-133.402	43.887	0	1075.40	0	3.2440	0	34.5030	4	27.473	0	1064.026	0	13.6	4	4.2	4	-1E+10	1	-1E+10	1	-1E+10	1	-1E+10	1	-1E+10	1	-1E+10	1
4901784	84	C	10/22/2017	10:44	-133.402	43.887	0	1080.30	0	3.2380	0	34.5050	4	27.475	0	1068.862	0	13.7	4	4.3	4	-1E+10	1	-1E+10	1	-1E+10	1	-1E+10	1	-1E+10	1	-1E+10	1
4901784	84	C	10/22/2017	10:44	-133.402	43.887	0	1085.10	0	3.2320	0	34.5050	4	27.476	0	1073.599	0	13.8	4	4.3	4	-1E+10	1	-1E+10	1	-1E+10	1	-1E+10	1	-1E+10	1	-1E+10	1
4901784	84	C	10/22/2017	10:44	-133.402	43.887	0	1090.10	0	3.2200	0	34.5070	4	27.478	0	1078.533	0	13.9	4	4.3	4	-1E+10	1	-1E+10	1	-1E+10	1	-1E+10	1	-1E+10	1	-1E+10	1
4901784	84	C	10/22/2017	10:44	-133.402	43.887	0	1094.90	0	3.2120	0	34.5080	4	27.480	0	1083.270	0	14.0	4	4.3	4	-1E+10	1	-1E+10	1	-1E+10	1	-1E+10	1	-1E+10	1	-1E+10	1
4901784	84	C	10/22/2017	10:44	-133.402	43.887	0	1099.80	0	3.2060	0	34.5090	4	27.481	0	1088.105	0	14.0	4	4.4	4	-1E+10	1	-1E+10	1	-1E+10	1	-1E+10	1	-1E+10	1	-1E+10	1
4901784	84	C	10/22/2017	10:44	-133.402	43.887	0	1104.80	0	3.1980	0	34.5110	4	27.484	0	1093.039	0	14.1	4	4.4	4	-1E+10	1	-1E+10	1	-1E+10	1	-1E+10	1	-1E+10	1	-1E+10	1
4901784	84	C	10/22/2017	10:44	-133.402	43.887	0	1109.80	0	3.1920	0	34.5120	4	27.485	0	1097.972	0	14.3	4	4.4	4	-1E+10	1	-1E+10	1	-1E+10	1	-1E+10	1	-1E+10	1	-1E+10	1
4901784	84	C	10/22/2017	10:44	-133.402	43.887	0	1114.80	0	3.1820	0	34.5140	4	27.488	0	1102.906	0	14.5	4	4.5	4	-1E+10	1	-1E+10	1	-1E+10	1	-1E+10	1	-1E+10	1	-1E+10	1
4901784	84	C	10/22/2017	10:44	-133.402	43.887	0	1119.80	0	3.1740	0	34.5160	4	27.490	0	1107.840	0	14.6	4	4.5	4	-1E+10	1	-1E+10	1	-1E+10	1	-1E+10	1	-1E+10	1	-1E+10	1
4901784	84	C	10/22/2017	10:44	-133.402	43.887	0	1125.00	0	3.1660	0	34.5170	4	27.492	0	1112.970	0	14.7	4	4.6	4	-1E+10	1	-1E+10	1	-1E+10	1	-1E+10	1	-1E+10	1	-1E+10	1
4901784	84	C	10/22/2017	10:44	-133.402	43.887	0	1130.10	0	3.1570	0	34.5180	4	27.493	0	1118.002	0	14.7	4	4.6	4	-1E+10	1	-1E+10	1	-1E+10	1	-1E+10	1	-1E+10	1	-1E+10	1
4901784	84	C	10/22/2017	10:44	-133.402	43.887	0	1135.30	0	3.1410	0	34.5200	4	27.496	0	1123.133	0	14.8	4	4.6	4	-1E+10	1	-1E+10	1	-1E+10	1	-1E+10	1	-1E+10	1	-1E+10	1
4901784	84	C	10/22/2017	10:44	-133.402	43.887	0	1140.40	0	3.1280	0	34.5210	4	27.498	0	1128.164	0	14.9	4	4.6	4	-1E+10	1	-1E+10	1	-1E+10	1	-1E+10	1	-1E+10	1	-1E+10	1
4901784	84	C	10/22/2017	10:44	-133.402	43.887	0	1145.60	0	3.1160	0	34.5230	4	27.501	0	1133.294	0	15.0	4	4.6	4	-1E+10	1	-1E+10	1	-1E+10	1	-1E+10	1	-1E+10	1	-1E+10	1
4901784	84	C	10/22/2017	10:44	-133.402	43.887	0	1149.90	0	3.1070	0	34.5240	4	27.503	0	1137.537	0	15.0	4	4.7	4	-1E+10	1	-1E+10	1	-1E+10	1	-1E+10	1	-1E+10	1	-1E+10	1
4901784	84	C	10/22/2017	10:44	-133.402	43.887	0	1154.30	0	3.0910	0	34.5260	4	27.506	0	1141.877	0	15.1	4	4.7	4	-1E+10	1	-1E+10	1	-1E+10	1	-1E+10	1	-1E+10	1	-1E+10	1
4901784	84	C	10/22/2017	10:44	-133.402	43.887	0	1159.50	0	3.0800	0	34.5270	4	27.508	0	1147.007	0	15.2	4	4.7	4	-1E+10	1	-1E+10	1	-1E+10	1	-1E+10	1	-1E+10	1	-1E+10	1
4901784	84	C	10/22/2017	10:44	-133.402	43.887	0	1164.80	0	3.0710	0	34.5280	4	27.509	0	1152.236	0	15.3	4	4.7	4	-1E+10	1	-1E+10	1	-1E+10	1	-1E+10	1	-1E+10	1	-1E+10	1
4901784	84	C	10/22/2017	10:44	-133.402	43.887	0	1170.10	0	3.0640	0	34.5290	4	27.511	0	1157.464	0	15.4	4	4.8	4	-1E+10	1	-1E+10	1	-1E+10	1	-1E+10	1	-1E+10	1	-1E+10	1
4901784	84	C	10/22/2017	10:44	-133.402	43.887	0	1175.40	0	3.0530	0	34.5310	4	27.513	0	1162.692	0	15.6	4	4.8	4	-1E+10	1	-1E+10	1	-1E+10	1	-1E+10	1	-1E+10	1	-1E+10	1
4901784	84	C	10/22/2017	10:44	-133.402	43.887	0	1180.60	0	3.0470	0	34.5320	4	27.515	0	1167.821	0	15.6	4	4.8	4	-1E+10	1	-1E+10	1	-1E+10	1	-1E+10	1	-1E+10	1	-1E+10	1
4901784	84	C	10/22/2017	10:44	-133.402	43.887	0	1185.00	0	3.0420	0	34.5330	4	27.516	0	1172.161	0	15.7	4	4.9	4	-1E+10	1	-1E+10	1	-1E+10	1	-1E+10	1	-1E+10	1	-1E+10	1
4901784	84	C	10/22/2017	10:44	-133.402	43.887	0	1189.40	0	3.0350	0	34.5330	4	27.517	0	1176.501	0	15.8	4	4.9	4	-1E+10	1	-1E+10	1	-1E+10	1	-1E+10	1	-1E+10	1	-1E+10	1
4901784	84	C	10/22/2017	10:44	-133.402	43.887	0	1194.70	0	3.0180	0	34.5360	4	27.521	0	1181.729	0	16.1	4	5.0	4	-1E+10	1	-1E+10	1	-1E+10	1	-1E+10	1	-1E+10	1	-1E+10	1
4901784	84	C	10/22/2017	10:44	-133.402	43.887	0	1200.00	0	3.0050	0	34.5380	4	27.523	0	1186.956	0	16.2	4	5.0	4	-1E+10	1	-1E+10	1	-1E+10	1	-1E+10	1	-1E+10	1	-1E+10	1
4901784	84	C	10/22/2017	10:44	-133.402	43.887	0	1205.30	0	2.9940	0	34.5390	4	27.525	0	1192.184	0	16.4	4	5.1	4	-1E+10	1	-1E+10	1	-1E+10	1	-1E+10	1	-1E+10	1	-1E+10	1
4901784	84	C	10/22/2017	10:44	-133.402	43.887	0	1210.60	0	2.9820	0	34.5410	4	27.528	0	1197.411	0	16.6	4	5.1	4	-1E+10	1	-1E+10	1	-1E+10	1	-1E+10	1	-1E+10	1	-1E+10	1
4901784	84	C	10/22/2017	10:44	-133.402	43.887	0	1215.10	0	2.9770	0	34.5410	4	27.529	0	1201.849	0	16.8	4	5.2	4	-1E+10	1	-1E+10	1	-1E+10	1	-1E+10	1	-1E+10	1	-1E+10	1
4901784	84	C	10/22/2017	10:44	-133.402	43.887	0	1219.70	0	2.9730	0	34.5410	4	27.529	0	1206.386	0	16.9	4	5.2	4	-1E+10	1	-1E+10	1	-1E+10	1	-1E+10	1	-1E+10	1	-1E+10	1
4901784	84	C	10/22/2017	10:44	-133.402	43.887	0	1225.10	0	2.9610	0	34.5440	4	27.532	0	1211.711	0	17.2	4	5.3	4	-1E+10	1	-1E+10	1	-1E+10	1	-1E+10	1	-1E+10	1	-1E+10	1
4901784	84	C	10/22/2017	10:44	-133.402	43.887	0	1230.40	0	2.9520	0	34.5460	4	27.535	0	1216.938	0	17.3	4	5.3	4	-1E+10	1	-1E+10	1	-1E+10	1	-1E+10	1	-1E+10	1	-1E+10	1
4901784	84	C	10/22/2017	10:44	-133.402	43.887	0	1235.00	0	2.9480	0	34.5460	4	27.535	0	1221.474	0	17.4	4	5.4	4	-1E+10	1	-1E+10	1	-1E+10	1	-1E+10	1	-1E+10	1	-1E+10	1
4901784	84	C	10/22/2017	10:44	-133.402	43.887	0	1239.60	0	2.9400	0	34.5460	4	27.536	0	1226.011	0	17.5	4	5.4	4	-1E+10	1	-1E+10	1	-1E+10	1	-1E+10	1	-1E+10	1	-1E+10	1
4901784	84	C	10/22/2017	10:44	-133.402	43.887	0	1245.10	0	2.9290	0	34.5480	4	27.539	0	1231.434	0	17.7	4	5.5	4	-1E+10	1	-1E+10	1	-1E+10	1	-1E+10	1	-1E+10	1	-1E+10	1
4901784	84	C	10/22/2017	10:44	-133.402	43.887	0	1249.70	0	2.9200	0	34.5500	4	27.541	0	1235.970	0	17.9	4	5.5	4	-1E+10	1	-1E+10	1	-1E+10	1	-1E+10	1	-1E+10	1	-1E+10	1
4901784	84	C	10/22/2017	10:44	-133.402	43.887	0	1254.40	0	2.9110	0	34.5510	4	27.543	0	1240.605	0	18.1	4	5.6	4	-1E+10	1	-1E+10	1	-1E+10	1	-1E+10	1	-1E+10	1	-1E+10	1
4901784	84	C	10/22/2017	10:44	-133.402	43.887	0	1260.00	0	2.9040	0	34.5530	4	27.545	0	1246.127	0	18.4	4	5.7	4	-1E+10	1	-1E+10	1	-1E+10	1	-1E+10	1	-1E+10	1	-1E+10	1
4901784	84	C	10/22/2017	10:44	-133.402	43.887	0	1264.80	0	2.8990	0	34.5540	4	27.546	0	1250.860	0	18.6	4	5.7	4	-1E+10	1	-1E+10	1	-1E+10	1	-1E+10	1	-1E+10	1	-1E+10	1
4901784	84	C	10/22/2017	10:44	-133.402	43.887	0	1269.50	0	2.8920	0	34.5550	4	27.548	0	1255.494	0	18.7	4	5.8	4	-1E+10	1	-1E+10	1	-1E+10	1	-1E+10	1	-1E+10	1	-1E+10	1
4901784	84	C	10/22/2017	10:44	-133.402	43.887	0	1275.10	0	2.8870	0	34.5560	4	27.549	0	1261.015	0	18.9	4	5.8	4	-1E+10	1	-1E+10	1	-1E+10	1	-1E+10	1	-1E+10	1	-1E+10	1
4901784	84	C	10/22/2017	10:44	-133.402	43.887	0	1280.50	0	2.8750	0	34.5570	4	27.551	0	1266.339	0	19.0	4	5.9	4	-1E+10	1	-1E+10	1	-1E+10	1	-1E+10	1	-1E+10	1	-1E+10	1
4901784	84	C	10/22/2017	10:44	-133.402	43.887	0	1285.40	0	2.8560	0	34.5590	4	27.554	0	1271.170	0	19.2	4	5.9	4	-1E+10	1	-1E+10	1	-1E+10	1	-1E+10	1	-1E+10	1	-1E+10	1
4901784	84	C	10/22/2017	10:44	-133.402	43.887	0	1290.40	0	2.8520	0	34.5600	4	27.555	0	1276.100	0	19.4	4	6.0	4	-1E+10	1	-1E+10	1	-1E+10	1	-1E+10	1	-1E+10	1	-1E+10	1
4901784	84	C	10/22/2017	10:44	-133.402	43.887	0	1295.40	0	2.8480	0	34.5610	4	27.556	0	1281.029	0	19.6	4	6.0	4	-1E+10	1	-1E+10	1	-1E+10	1	-1E+10	1	-1E+10	1	-1E+10	1
4901784	84	C	10/22/2017	10:44	-133.402	43.887	0	1300.40	0	2.8370	0	34.5620	4	27.558	0	1285.959	0	19.8	4	6.1	4	-1E+10	1	-1E+10	1	-1E+10	1	-1E+10	1	-1E+10	1	-1E+10	1
4901784	84	C	10/22/2017	10:44	-133.402	43.887	0	1305.40	0	2.8320	0	34.5630	4	27.560	0	1290.888	0	19.9	4	6.1	4	-1E+10	1	-1E+10	1	-1E+10	1	-1E+10	1	-1E+10	1	-1E+10	1
4901784	84	C	10/22/2017	10:44	-133.402	43.887	0	1310.50	0	2.8230	0	34.5650	4	27.562	0	1295.915	0	20.1	4	6.2	4	-1E+10	1	-1E+10	1	-1E+10	1	-1E+10	1	-1E+10	1	-1E+10	1
4901784	84	C	10/22/2017	10:44	-133.402	43.887	0	1315.60	0	2.8150	0	34.5660	4	27.563	0	1300.943	0	20.3	4	6.3	4	-1E+10	1	-1E+10	1	-1E+10	1	-1E+10	1	-1E+10	1	-1E+10	1
4901784	84	C	10/22/2017	10:44	-133.402	43.887	0	1320.70	0	2.8080	0	34.5680	4	27.566	0	1305.970	0	20.5	4	6.3	4	-1E+10	1	-1E+10	1	-1E+10	1	-1E+10	1	-1E+10	1	-1E+10	1
4901784	84	C	10/22/2017	10:44	-133.402	43.887	0	1324.90	0	2.8070	0	34.5680	4	27.566	0	1310.110	0	20.6	4	6.3	4	-1E+10	1	-1E+10	1	-1E+10	1	-1E+10	1	-1E+10	1	-1E+10	1
4901784	84	C	10/22/2017	10:44	-133.402	43.887	0	1329.30	0	2.7930	0	34.5690	4	27.568	0	1314.448	0	20.6	4	6.3	4	-1E+10	1	-1E+10	1	-1E+10	1	-1E+10	1	-1E+10	1	-1E+10	1
4901784	84	C	10/22/2017	10:44	-133.402	43.887	0	1334.40	0	2.7810	0	34.5690	4	27.569	0	1319.475	0	20.9	4	6.4	4	-1E+10	1	-1E+10	1	-1E+10	1	-1E+10	1	-1E+10	1	-1E+10	1
4901784	84	C	10/22/2017	10:44	-133.402	43.887	0	1339.50	0	2.7750	0	34.5700	4	27.570	0	1324.501	0	21.4	4	6.6	4	-1E+10	1	-1E+10	1	-1E+10	1	-1E+10	1	-1E+10	1	-1E+10	1
4901784	84	C	10/22/2017	10:44	-133.402	43.887	0	1344.80	0	2.7690	0	34.5730	4	27.573	0	1329.725	0	21.7	4	6.7	4	-1E+10	1	-1E+10	1	-1E+10	1	-1E+10	1	-1E+10	1	-1E+10	1
4901784	84	C	10/22/2017	10:44	-133.402	43.887	0	1349.90	0	2.7630	0	34.5750	4	27.575	0	1334.752	0	22.0	4	6.8	4	-1E+10	1	-1E+10	1	-1E+10	1	-1E+10	1	-1E+10	1	-1E+10	1
4901784	84	C	10/22/2017	10:44	-133.402	43.887	0	1355.10	0	2.7560	0	34.5760	4	27.577	0	1339.877	0	22.3	4	6.9	4	-1E+10	1	-1E+10	1	-1E+10	1	-1E+10	1	-1E+10	1	-1E+10	1
4901784	84	C	10/22/2017	10:44	-133.402	43.887	0	1360.30	0	2.7510	0	34.5780	4	27.579	0	1345.002	0	22.5	4	6.9	4	-1E+10	1	-1E+10	1	-1E+10	1	-1E+10	1	-1E+10	1	-1E+10	1
4901784	84	C	10/22/2017	10:44	-133.402	43.887	0	1365.10	0	2.7420	0	34.5790	4	27.581	0	1349.733	0	22.7	4	7.0	4	-1E+10	1	-1E+10	1	-1E+10	1	-1E+10	1	-1E+10	1	-1E+10	1
4901784	84	C	10/22/2017	10:44	-133.402	43.887	0	1369.80	0	2.7400	0	34.5800	4	27.582	0	1354.365	0	22.8	4	7.0	4	-1E+10	1	-1E+10	1	-1E+10	1	-1E+10	1	-1E+10	1	-1E+10	1
4901784	84	C	10/22/2017	10:44	-133.402	43.887	0	1375.50	0	2.7310	0	34.5810	4	27.583	0	1359.982	0	22.9	4	7.0	4	-1E+10	1	-1E+10	1	-1E+10	1	-1E+10	1	-1E+10	1	-1E+10	1
4901784	84	C	10/22/2017	10:44	-133.402	43.887	0	1380.20	0	2.7260	0	34.5810	4	27.584	0	1364.614	0	23.1	4	7.1	4	-1E+10	1	-1E+10	1	-1E+10	1	-1E+10	1	-1E+10	1	-1E+10	1
4901784	84	C	10/22/2017	10:44	-133.402	43.887	0	1384.90	0	2.7130	0	34.5820	4	27.586	0	1369.246	0	23.3	4	7.2	4	-1E+10	1	-1E+10	1	-1E+10	1	-1E+10	1	-1E+10	1	-1E+10	1
4901784	84	C	10/22/2017	10:44	-133.402	43.887	0	1389.70	0	2.7010	0	34.5820	4	27.587	0	1373.976	0	23.5	4	7.2	4	-1E+10	1	-1E+10	1	-1E+10	1	-1E+10	1	-1E+10	1	-1E+10	1
4901784	84	C	10/22/2017	10:44	-133.402	43.887	0	1394.50	0	2.6920	0	34.5820	4	27.587	0	1378.706	0	23.7	4	7.3	4	-1E+10	1	-1E+10	1	-1E+10	1	-1E+10	1	-1E+10	1	-1E+10	1
4901784	84	C	10/22/2017	10:44	-133.402	43.887	0	1400.20	0	2.6770	0	34.5840	4	27.590	0	1384.323	0	24.0	4	7.4	4	-1E+10	1	-1E+10	1	-1E+10	1	-1E+10	1	-1E+10	1	-1E+10	1
4901784	84	C	10/22/2017	10:44	-133.402	43.887	0	1404.90	0	2.6620	0	34.5860	4	27.593	0	1388.954	0	24.3	4	7.5	4	-1E+10	1	-1E+10	1	-1E+10	1	-1E+10	1	-1E+10	1	-1E+10	1
4901784	84	C	10/22/2017	10:44	-133.402	43.887	0	1409.70	0	2.6510	0	34.5870	4	27.595	0	1393.684	0	24.5	4	7.5	4	-1E+10	1	-1E+10	1	-1E+10	1	-1E+10	1	-1E+10	1	-1E+10	1
4901784	84	C	10/22/2017	10:44	-133.402	43.887	0	1415.40	0	2.6400	0	34.5870	4	27.596	0	1399.300	0	24.7	4	7.6	4	-1E+10	1	-1E+10	1	-1E+10	1	-1E+10	1	-1E+10	1	-1E+10	1
4901784	84	C	10/22/2017	10:44	-133.402	43.887	0	1420.10	0	2.6260	0	34.5890	4	27.599	0	1403.931	0	24.9	4	7.6	4	-1E+10	1	-1E+10	1	-1E+10	1	-1E+10	1	-1E+10	1	-1E+10	1
4901784	84	C	10/22/2017	10:44	-133.402	43.887	0	1424.90	0	2.6180	0	34.5900	4	27.600	0	1408.660	0	24.9	4	7.6	4	-1E+10	1	-1E+10	1	-1E+10	1	-1E+10	1	-1E+10	1	-1E+10	1
4901784	84	C	10/22/2017	10:44	-133.402	43.887	0	1429.80	0	2.6160	0	34.5900	4	27.601	0	1413.488	0	25.0	4	7.7	4	-1E+10	1	-1E+10	1	-1E+10	1	-1E+10	1	-1E+10	1	-1E+10	1
4901784	84	C	10/22/2017	10:44	-133.402	43.887	0	1434.70	0	2.6080	0	34.5910	4	27.602	0	1418.316	0	25.2	4	7.7	4	-1E+10	1	-1E+10	1	-1E+10	1	-1E+10	1	-1E+10	1	-1E+10	1
4901784	84	C	10/22/2017	10:44	-133.402	43.887	0	1439.60	0	2.5990	0	34.5920	4	27.604	0	1423.143	0	25.4	4	7.8	4	-1E+10	1	-1E+10	1	-1E+10	1	-1E+10	1	-1E+10	1	-1E+10	1
4901784	84	C	10/22/2017	10:44	-133.402	43.887	0	1444.50	0	2.5900	0	34.5930	4	27.605	0	1427.971	0	25.7	4	7.9	4	-1E+10	1	-1E+10	1	-1E+10	1	-1E+10	1	-1E+10	1	-1E+10	1
4901784	84	C	10/22/2017	10:44	-133.402	43.887	0	1450.30	0	2.5790	0	34.5950	4	27.608	0	1433.685	0	26.1	4	8.0	4	-1E+10	1	-1E+10	1	-1E+10	1	-1E+10	1	-1E+10	1	-1E+10	1
4901784	84	C	10/22/2017	10:44	-133.402	43.887	0	1455.10	0	2.5720	0	34.5960	4	27.609	0	1438.413	0	26.3	4	8.0	4	-1E+10	1	-1E+10	1	-1E+10	1	-1E+10	1	-1E+10	1	-1E+10	1
4901784	84	C	10/22/2017	10:44	-133.402	43.887	0	1460.10	0	2.5640	0	34.5960	4	27.610	0	1443.339	0	26.4	4	8.1	4	-1E+10	1	-1E+10	1	-1E+10	1	-1E+10	1	-1E+10	1	-1E+10	1
4901784	84	C	10/22/2017	10:44	-133.402	43.887	0	1465.10	0	2.5600	0	34.5960	4	27.610	0	1448.264	0	26.6	4	8.1	4	-1E+10	1	-1E+10	1	-1E+10	1	-1E+10	1	-1E+10	1	-1E+10	1
4901784	84	C	10/22/2017	10:44	-133.402	43.887	0	1470.20	0	2.5560	0	34.5970	4	27.611	0	1453.288	0	26.8	4	8.2	4	-1E+10	1	-1E+10	1	-1E+10	1	-1E+10	1	-1E+10	1	-1E+10	1
4901784	84	C	10/22/2017	10:44	-133.402	43.887	0	1475.30	0	2.5480	0	34.5980	4	27.613	0	1458.312	0	27.1	4	8.3	4	-1E+10	1	-1E+10	1	-1E+10	1	-1E+10	1	-1E+10	1	-1E+10	1
4901784	84	C	10/22/2017	10:44	-133.402	43.887	0	1479.50	0	2.5440	0	34.5980	4	27.613	0	1462.449	0	27.2	4	8.3	4	-1E+10	1	-1E+10	1	-1E+10	1	-1E+10	1	-1E+10	1	-1E+10	1
4901784	84	C	10/22/2017	10:44	-133.402	43.887	0	1484.60	0	2.5370	0	34.5980	4	27.614	0	1467.472	0	27.5	4	8.4	4	-1E+10	1	-1E+10	1	-1E+10	1	-1E+10	1	-1E+10	1	-1E+10	1
4901784	84	C	10/22/2017	10:44	-133.402	43.887	0	1489.70	0	2.5270	0	34.5990	4	27.616	0	1472.496	0	27.7	4	8.5	4	-1E+10	1	-1E+10	1	-1E+10	1	-1E+10	1	-1E+10	1	-1E+10	1
4901784	84	C	10/22/2017	10:44	-133.402	43.887	0	1494.70	0	2.5150	0	34.5990	4	27.617	0	1477.421	0	28.0	4	8.5	4	-1E+10	1	-1E+10	1	-1E+10	1	-1E+10	1	-1E+10	1	-1E+10	1
4901784	84	C	10/22/2017	10:44	-133.402	43.887	0	1500.00	0	2.5100	0	34.5990	4	27.617	0	1482.641	0	28.2	4	8.6	4	-1E+10	1	-1E+10	1	-1E+10	1	-1E+10	1	-1E+10	1	-1E+10	1
4901784	84	C	10/22/2017	10:44	-133.402	43.887	0	1504.80	0	2.5020	0	34.6010	4	27.619	0	1487.368	0	28.4	4	8.7	4	-1E+10	1	-1E+10	1	-1E+10	1	-1E+10	1	-1E+10	1	-1E+10	1
4901784	84	C	10/22/2017	10:44	-133.402	43.887	0	1509.60	0	2.4980	0	34.6020	4	27.621	0	1492.096	0	28.5	4	8.7	4	-1E+10	1	-1E+10	1	-1E+10	1	-1E+10	1	-1E+10	1	-1E+10	1
4901784	84	C	10/22/2017	10:44	-133.402	43.887	0	1514.60	0	2.4900	0	34.6030	4	27.622	0	1497.020	0	28.8	4	8.8	4	-1E+10	1	-1E+10	1	-1E+10	1	-1E+10	1	-1E+10	1	-1E+10	1
4901784	84	C	10/22/2017	10:44	-133.402	43.887	0	1519.50	0	2.4840	0	34.6040	4	27.623	0	1501.846	0	29.1	4	8.9	4	-1E+10	1	-1E+10	1	-1E+10	1	-1E+10	1	-1E+10	1	-1E+10	1
4901784	84	C	10/22/2017	10:44	-133.402	43.887	0	1524.50	0	2.4770	0	34.6040	4	27.624	0	1506.770	0	29.4	4	9.0	4	-1E+10	1	-1E+10	1	-1E+10	1	-1E+10	1	-1E+10	1	-1E+10	1
4901784	84	C	10/22/2017	10:44	-133.402	43.887	0	1529.60	0	2.4610	0	34.6060	4	27.627	0	1511.792	0	29.9	4	9.1	4	-1E+10	1	-1E+10	1	-1E+10	1	-1E+10	1	-1E+10	1	-1E+10	1
4901784	84	C	10/22/2017	10:44	-133.402	43.887	0	1534.60	0	2.4460	0	34.6080	4	27.630	0	1516.716	0	30.3	4	9.2	4	-1E+10	1	-1E+10	1	-1E+10	1	-1E+10	1	-1E+10	1	-1E+10	1
4901784	84	C	10/22/2017	10:44	-133.402	43.887	0	1539.70	0	2.4390	0	34.6090	4	27.631	0	1521.739	0	30.6	4	9.3	4	-1E+10	1	-1E+10	1	-1E+10	1	-1E+10	1	-1E+10	1	-1E+10	1
4901784	84	C	10/22/2017	10:44	-133.402	43.887	0	1544.80	0	2.4240	0	34.6100	4	27.633	0	1526.761	0	31.1	4	9.5	4	-1E+10	1	-1E+10	1	-1E+10	1	-1E+10	1	-1E+10	1	-1E+10	1
4901784	84	C	10/22/2017	10:44	-133.402	43.887	0	1549.90	0	2.4110	0	34.6110	4	27.635	0	1531.783	0	31.6	4	9.6	4	-1E+10	1	-1E+10	1	-1E+10	1	-1E+10	1	-1E+10	1	-1E+10	1
4901784	84	C	10/22/2017	10:44	-133.402	43.887	0	1555.00	0	2.3990	0	34.6130	4	27.638	0	1536.805	0	32.0	4	9.7	4	-1E+10	1	-1E+10	1	-1E+10	1	-1E+10	1	-1E+10	1	-1E+10	1
4901784	84	C	10/22/2017	10:44	-133.402	43.887	0	1560.10	0	2.3870	0	34.6150	4	27.640	0	1541.826	0	32.3	4	9.8	4	-1E+10	1	-1E+10	1	-1E+10	1	-1E+10	1	-1E+10	1	-1E+10	1
4901784	84	C	10/22/2017	10:44	-133.402	43.887	0	1565.20	0	2.3800	0	34.6150	4	27.641	0	1546.848	0	32.6	4	9.9	4	-1E+10	1	-1E+10	1	-1E+10	1	-1E+10	1	-1E+10	1	-1E+10	1
4901784	84	C	10/22/2017	10:44	-133.402	43.887	0	1570.40	0	2.3760	0	34.6160	4	27.642	0	1551.968	0	32.9	4	10.0	4	-1E+10	1	-1E+10	1	-1E+10	1	-1E+10	1	-1E+10	1	-1E+10	1
4901784	84	C	10/22/2017	10:44	-133.402	43.887	0	1575.60	0	2.3670	0	34.6170	4	27.644	0	1557.088	0	33.2	4	10.1	4	-1E+10	1	-1E+10	1	-1E+10	1	-1E+10	1	-1E+10	1	-1E+10	1
4901784	84	C	10/22/2017	10:44	-133.402	43.887	0	1580.00	0	2.3640	0	34.6160	4	27.643	0	1561.420	0	33.5	4	10.2	4	-1E+10	1	-1E+10	1	-1E+10	1	-1E+10	1	-1E+10	1	-1E+10	1
4901784	84	C	10/22/2017	10:44	-133.402	43.887	0	1584.40	0	2.3560	0	34.6170	4	27.645	0	1565.752	0	33.8	4	10.3	4	-1E+10	1	-1E+10	1	-1E+10	1	-1E+10	1	-1E+10	1	-1E+10	1
4901784	84	C	10/22/2017	10:44	-133.402	43.887	0	1589.70	0	2.3480	0	34.6190	4	27.647	0	1570.970	0	34.3	4	10.4	4	-1E+10	1	-1E+10	1	-1E+10	1	-1E+10	1	-1E+10	1	-1E+10	1
4901784	84	C	10/22/2017	10:44	-133.402	43.887	0	1595.10	0	2.3360	0	34.6210	4	27.650	0	1576.286	0	34.7	4	10.6	4	-1E+10	1	-1E+10	1	-1E+10	1	-1E+10	1	-1E+10	1	-1E+10	1
4901784	84	C	10/22/2017	10:44	-133.402	43.887	0	1600.50	0	2.3250	0	34.6230	4	27.652	0	1581.602	0	35.0	4	10.7	4	-1E+10	1	-1E+10	1	-1E+10	1	-1E+10	1	-1E+10	1	-1E+10	1
4901784	84	C	10/22/2017	10:44	-133.402	43.887	0	1604.90	0	2.3240	0	34.6230	4	27.652	0	1585.934	0	35.2	4	10.7	4	-1E+10	1	-1E+10	1	-1E+10	1	-1E+10	1	-1E+10	1	-1E+10	1
4901784	84	C	10/22/2017	10:44	-133.402	43.887	0	1609.30	0	2.3190	0	34.6240	4	27.654	0	1590.265	0	35.4	4	10.8	4	-1E+10	1	-1E+10	1	-1E+10	1	-1E+10	1	-1E+10	1	-1E+10	1
4901784	84	C	10/22/2017	10:44	-133.402	43.887	0	1614.50	0	2.3100	0	34.6250	4	27.655	0	1595.384	0	35.8	4	10.9	4	-1E+10	1	-1E+10	1	-1E+10	1	-1E+10	1	-1E+10	1	-1E+10	1
4901784	84	C	10/22/2017	10:44	-133.402	43.887	0	1619.30	0	2.3030	0	34.6260	4	27.657	0	1600.109	0	36.2	4	11.0	4	-1E+10	1	-1E+10	1	-1E+10	1	-1E+10	1	-1E+10	1	-1E+10	1
4901784	84	C	10/22/2017	10:44	-133.402	43.887	0	1625.00	0	2.2920	0	34.6270	4	27.658	0	1605.720	0	36.7	4	11.2	4	-1E+10	1	-1E+10	1	-1E+10	1	-1E+10	1	-1E+10	1	-1E+10	1
4901784	84	C	10/22/2017	10:44	-133.402	43.887	0	1630.70	0	2.2760	0	34.6290	4	27.661	0	1611.331	0	37.3	4	11.3	4	-1E+10	1	-1E+10	1	-1E+10	1	-1E+10	1	-1E+10	1	-1E+10	1
4901784	84	C	10/22/2017	10:44	-133.402	43.887	0	1635.60	0	2.2700	0	34.6290	4	27.662	0	1616.154	0	37.7	4	11.4	4	-1E+10	1	-1E+10	1	-1E+10	1	-1E+10	1	-1E+10	1	-1E+10	1
4901784	84	C	10/22/2017	10:44	-133.402	43.887	0	1640.60	0	2.2630	0	34.6310	4	27.664	0	1621.075	0	38.1	4	11.6	4	-1E+10	1	-1E+10	1	-1E+10	1	-1E+10	1	-1E+10	1	-1E+10	1
4901784	84	C	10/22/2017	10:44	-133.402	43.887	0	1645.70	0	2.2540	0	34.6320	4	27.665	0	1626.095	0	38.5	4	11.7	4	-1E+10	1	-1E+10	1	-1E+10	1	-1E+10	1	-1E+10	1	-1E+10	1
4901784	84	C	10/22/2017	10:44	-133.402	43.887	0	1650.70	0	2.2530	0	34.6330	4	27.666	0	1631.016	0	38.7	4	11.7	4	-1E+10	1	-1E+10	1	-1E+10	1	-1E+10	1	-1E+10	1	-1E+10	1
4901784	84	C	10/22/2017	10:44	-133.402	43.887	0	1655.80	0	2.2480	0	34.6340	4	27.668	0	1636.036	0	39.0	4	11.8	4	-1E+10	1	-1E+10	1	-1E+10	1	-1E+10	1	-1E+10	1	-1E+10	1
4901784	84	C	10/22/2017	10:44	-133.402	43.887	0	1660.00	0	2.2440	0	34.6350	4	27.669	0	1640.169	0	39.3	4	11.9	4	-1E+10	1	-1E+10	1	-1E+10	1	-1E+10	1	-1E+10	1	-1E+10	1
4901784	84	C	10/22/2017	10:44	-133.402	43.887	0	1664.40	0	2.2390	0	34.6360	4	27.670	0	1644.500	0	39.6	4	12.0	4	-1E+10	1	-1E+10	1	-1E+10	1	-1E+10	1	-1E+10	1	-1E+10	1
4901784	84	C	10/22/2017	10:44	-133.402	43.887	0	1669.60	0	2.2320	0	34.6350	4	27.670	0	1649.617	0	39.9	4	12.1	4	-1E+10	1	-1E+10	1	-1E+10	1	-1E+10	1	-1E+10	1	-1E+10	1
4901784	84	C	10/22/2017	10:44	-133.402	43.887	0	1674.80	0	2.2240	0	34.6350	4	27.670	0	1654.735	0	40.3	4	12.2	4	-1E+10	1	-1E+10	1	-1E+10	1	-1E+10	1	-1E+10	1	-1E+10	1
4901784	84	C	10/22/2017	10:44	-133.402	43.887	0	1680.00	0	2.2170	0	34.6360	4	27.672	0	1659.852	0	40.7	4	12.4	4	-1E+10	1	-1E+10	1	-1E+10	1	-1E+10	1	-1E+10	1	-1E+10	1
4901784	84	C	10/22/2017	10:44	-133.402	43.887	0	1685.30	0	2.2090	0	34.6380	4	27.674	0	1665.068	0	41.3	4	12.5	4	-1E+10	1	-1E+10	1	-1E+10	1	-1E+10	1	-1E+10	1	-1E+10	1
4901784	84	C	10/22/2017	10:44	-133.402	43.887	0	1690.60	0	2.2050	0	34.6400	4	27.676	0	1670.283	0	42.0	4	12.7	4	-1E+10	1	-1E+10	1	-1E+10	1	-1E+10	1	-1E+10	1	-1E+10	1
4901784	84	C	10/22/2017	10:44	-133.402	43.887	0	1695.10	0	2.2050	0	34.6420	4	27.678	0	1674.711	0	42.3	4	12.8	4	-1E+10	1	-1E+10	1	-1E+10	1	-1E+10	1	-1E+10	1	-1E+10	1
4901784	84	C	10/22/2017	10:44	-133.402	43.887	0	1699.60	0	2.1980	0	34.6420	4	27.678	0	1679.140	0	42.7	4	12.9	4	-1E+10	1	-1E+10	1	-1E+10	1	-1E+10	1	-1E+10	1	-1E+10	1
4901784	84	C	10/22/2017	10:44	-133.402	43.887	0	1705.00	0	2.1900	0	34.6440	4	27.681	0	1684.453	0	43.1	4	13.1	4	-1E+10	1	-1E+10	1	-1E+10	1	-1E+10	1	-1E+10	1	-1E+10	1
4901784	84	C	10/22/2017	10:44	-133.402	43.887	0	1710.40	0	2.1850	0	34.6450	4	27.682	0	1689.767	0	43.7	4	13.3	4	-1E+10	1	-1E+10	1	-1E+10	1	-1E+10	1	-1E+10	1	-1E+10	1
4901784	84	C	10/22/2017	10:44	-133.402	43.887	0	1715.00	0	2.1920	0	34.6470	4	27.683	0	1694.293	0	44.3	4	13.4	4	-1E+10	1	-1E+10	1	-1E+10	1	-1E+10	1	-1E+10	1	-1E+10	1
4901784	84	C	10/22/2017	10:44	-133.402	43.887	0	1720.20	0	2.1910	0	34.6470	4	27.683	0	1699.409	0	44.3	4	13.4	4	-1E+10	1	-1E+10	1	-1E+10	1	-1E+10	1	-1E+10	1	-1E+10	1
4901784	84	C	10/22/2017	10:44	-133.402	43.887	0	1725.30	0	2.1890	0	34.6470	4	27.683	0	1704.427	0	44.2	4	13.4	4	-1E+10	1	-1E+10	1	-1E+10	1	-1E+10	1	-1E+10	1	-1E+10	1
4901784	84	C	10/22/2017	10:44	-133.402	43.887	0	1730.10	0	2.1690	0	34.6450	4	27.683	0	1709.150	0	44.1	4	13.4	4	-1E+10	1	-1E+10	1	-1E+10	1	-1E+10	1	-1E+10	1	-1E+10	1
4901784	84	C	10/22/2017	10:44	-133.402	43.887	0	1735.00	0	2.1580	0	34.6460	4	27.685	0	1713.970	0	44.9	4	13.6	4	-1E+10	1	-1E+10	1	-1E+10	1	-1E+10	1	-1E+10	1	-1E+10	1
4901784	84	C	10/22/2017	10:44	-133.402	43.887	0	1740.00	0	2.1680	0	34.6500	4	27.687	0	1718.890	0	45.7	4	13.8	4	-1E+10	1	-1E+10	1	-1E+10	1	-1E+10	1	-1E+10	1	-1E+10	1
4901784	84	C	10/22/2017	10:44	-133.402	43.887	0	1744.90	0	2.1610	0	34.6500	4	27.688	0	1723.710	0	45.6	4	13.8	4	-1E+10	1	-1E+10	1	-1E+10	1	-1E+10	1	-1E+10	1	-1E+10	1
4901784	84	C	10/22/2017	10:44	-133.402	43.887	0	1749.90	0	2.1560	0	34.6500	4	27.688	0	1728.629	0	45.4	4	13.8	4	-1E+10	1	-1E+10	1	-1E+10	1	-1E+10	1	-1E+10	1	-1E+10	1
4901784	84	C	10/22/2017	10:44	-133.402	43.887	0	1754.90	0	2.1420	0	34.6490	4	27.689	0	1733.548	0	45.2	4	13.7	4	-1E+10	1	-1E+10	1	-1E+10	1	-1E+10	1	-1E+10	1	-1E+10	1
4901784	84	C	10/22/2017	10:44	-133.402	43.887	0	1759.90	0	2.1360	0	34.6480	4	27.688	0	1738.467	0	45.5	4	13.8	4	-1E+10	1	-1E+10	1	-1E+10	1	-1E+10	1	-1E+10	1	-1E+10	1
4901784	84	C	10/22/2017	10:44	-133.402	43.887	0	1765.00	0	2.1260	0	34.6520	4	27.692	0	1743.484	0	45.8	4	13.9	4	-1E+10	1	-1E+10	1	-1E+10	1	-1E+10	1	-1E+10	1	-1E+10	1
4901784	84	C	10/22/2017	10:44	-133.402	43.887	0	1770.00	0	2.1200	0	34.6530	4	27.694	0	1748.402	0	46.3	4	14.0	4	-1E+10	1	-1E+10	1	-1E+10	1	-1E+10	1	-1E+10	1	-1E+10	1
4901784	84	C	10/22/2017	10:44	-133.402	43.887	0	1775.10	0	2.1100	0	34.6550	4	27.696	0	1753.419	0	46.7	4	14.1	4	-1E+10	1	-1E+10	1	-1E+10	1	-1E+10	1	-1E+10	1	-1E+10	1
4901784	84	C	10/22/2017	10:44	-133.402	43.887	0	1780.20	0	2.1020	0	34.6560	4	27.698	0	1758.435	0	47.0	4	14.2	4	-1E+10	1	-1E+10	1	-1E+10	1	-1E+10	1	-1E+10	1	-1E+10	1
4901784	84	C	10/22/2017	10:44	-133.402	43.887	0	1785.30	0	2.0980	0	34.6570	4	27.699	0	1763.452	0	47.3	4	14.3	4	-1E+10	1	-1E+10	1	-1E+10	1	-1E+10	1	-1E+10	1	-1E+10	1
4901784	84	C	10/22/2017	10:44	-133.402	43.887	0	1790.40	0	2.0940	0	34.6580	4	27.700	0	1768.468	0	47.6	4	14.4	4	-1E+10	1	-1E+10	1	-1E+10	1	-1E+10	1	-1E+10	1	-1E+10	1
4901784	84	C	10/22/2017	10:44	-133.402	43.887	0	1795.50	0	2.0880	0	34.6590	4	27.701	0	1773.485	0	47.9	4	14.5	4	-1E+10	1	-1E+10	1	-1E+10	1	-1E+10	1	-1E+10	1	-1E+10	1
4901784	84	C	10/22/2017	10:44	-133.402	43.887	0	1800.60	0	2.0850	0	34.6600	4	27.702	0	1778.501	0	48.1	4	14.5	4	-1E+10	1	-1E+10	1	-1E+10	1	-1E+10	1	-1E+10	1	-1E+10	1
4901784	84	C	10/22/2017	10:44	-133.402	43.887	0	1804.90	0	2.0820	0	34.6610	4	27.703	0	1782.730	0	48.3	4	14.6	4	-1E+10	1	-1E+10	1	-1E+10	1	-1E+10	1	-1E+10	1	-1E+10	1
4901784	84	C	10/22/2017	10:44	-133.402	43.887	0	1809.30	0	2.0790	0	34.6610	4	27.704	0	1787.057	0	48.7	4	14.7	4	-1E+10	1	-1E+10	1	-1E+10	1	-1E+10	1	-1E+10	1	-1E+10	1
4901784	84	C	10/22/2017	10:44	-133.402	43.887	0	1814.40	0	2.0690	0	34.6620	4	27.705	0	1792.073	0	49.1	4	14.8	4	-1E+10	1	-1E+10	1	-1E+10	1	-1E+10	1	-1E+10	1	-1E+10	1
4901784	84	C	10/22/2017	10:44	-133.402	43.887	0	1819.70	0	2.0660	0	34.6590	4	27.703	0	1797.285	0	49.5	4	15.0	4	-1E+10	1	-1E+10	1	-1E+10	1	-1E+10	1	-1E+10	1	-1E+10	1
4901784	84	C	10/22/2017	10:44	-133.402	43.887	0	1824.90	0	2.0610	0	34.6590	4	27.703	0	1802.399	0	50.3	4	15.2	4	-1E+10	1	-1E+10	1	-1E+10	1	-1E+10	1	-1E+10	1	-1E+10	1
4901784	84	C	10/22/2017	10:44	-133.402	43.887	0	1830.20	0	2.0630	0	34.6630	4	27.706	0	1807.612	0	51.3	4	15.5	4	-1E+10	1	-1E+10	1	-1E+10	1	-1E+10	1	-1E+10	1	-1E+10	1
4901784	84	C	10/22/2017	10:44	-133.402	43.887	0	1835.50	0	2.0590	0	34.6640	4	27.708	0	1812.824	0	51.8	4	15.6	4	-1E+10	1	-1E+10	1	-1E+10	1	-1E+10	1	-1E+10	1	-1E+10	1
4901784	84	C	10/22/2017	10:44	-133.402	43.887	0	1839.90	0	2.0560	0	34.6650	4	27.709	0	1817.150	0	52.1	4	15.7	4	-1E+10	1	-1E+10	1	-1E+10	1	-1E+10	1	-1E+10	1	-1E+10	1
4901784	84	C	10/22/2017	10:44	-133.402	43.887	0	1844.40	0	2.0540	0	34.6660	4	27.710	0	1821.576	0	52.2	4	15.8	4	-1E+10	1	-1E+10	1	-1E+10	1	-1E+10	1	-1E+10	1	-1E+10	1
4901784	84	C	10/22/2017	10:44	-133.402	43.887	0	1849.70	0	2.0510	0	34.6650	4	27.709	0	1826.787	0	52.5	4	15.8	4	-1E+10	1	-1E+10	1	-1E+10	1	-1E+10	1	-1E+10	1	-1E+10	1
4901784	84	C	10/22/2017	10:44	-133.402	43.887	0	1855.10	0	2.0480	0	34.6660	4	27.710	0	1832.097	0	52.7	4	15.9	4	-1E+10	1	-1E+10	1	-1E+10	1	-1E+10	1	-1E+10	1	-1E+10	1
4901784	84	C	10/22/2017	10:44	-133.402	43.887	0	1860.40	0	2.0450	0	34.6670	4	27.711	0	1837.308	0	52.9	4	16.0	4	-1E+10	1	-1E+10	1	-1E+10	1	-1E+10	1	-1E+10	1	-1E+10	1
4901784	84	C	10/22/2017	10:44	-133.402	43.887	0	1864.90	0	2.0420	0	34.6670	4	27.712	0	1841.733	0	53.1	4	16.0	4	-1E+10	1	-1E+10	1	-1E+10	1	-1E+10	1	-1E+10	1	-1E+10	1
4901784	84	C	10/22/2017	10:44	-133.402	43.887	0	1869.40	0	2.0380	0	34.6680	4	27.713	0	1846.158	0	53.4	4	16.1	4	-1E+10	1	-1E+10	1	-1E+10	1	-1E+10	1	-1E+10	1	-1E+10	1
4901784	84	C	10/22/2017	10:44	-133.402	43.887	0	1874.80	0	2.0330	0	34.6700	4	27.715	0	1851.467	0	53.8	4	16.2	4	-1E+10	1	-1E+10	1	-1E+10	1	-1E+10	1	-1E+10	1	-1E+10	1
4901784	84	C	10/22/2017	10:44	-133.402	43.887	0	1880.20	0	2.0280	0	34.6700	4	27.715	0	1856.776	0	54.2	4	16.4	4	-1E+10	1	-1E+10	1	-1E+10	1	-1E+10	1	-1E+10	1	-1E+10	1
4901784	84	C	10/22/2017	10:44	-133.402	43.887	0	1885.60	0	2.0230	0	34.6700	4	27.716	0	1862.085	0	54.6	4	16.5	4	-1E+10	1	-1E+10	1	-1E+10	1	-1E+10	1	-1E+10	1	-1E+10	1
4901784	84	C	10/22/2017	10:44	-133.402	43.887	0	1890.20	0	2.0190	0	34.6710	4	27.717	0	1866.608	0	54.9	4	16.6	4	-1E+10	1	-1E+10	1	-1E+10	1	-1E+10	1	-1E+10	1	-1E+10	1
4901784	84	C	10/22/2017	10:44	-133.402	43.887	0	1894.80	0	2.0170	0	34.6710	4	27.717	0	1871.130	0	55.1	4	16.6	4	-1E+10	1	-1E+10	1	-1E+10	1	-1E+10	1	-1E+10	1	-1E+10	1
4901784	84	C	10/22/2017	10:44	-133.402	43.887	0	1900.10	0	2.0130	0	34.6720	4	27.718	0	1876.341	0	55.3	4	16.7	4	-1E+10	1	-1E+10	1	-1E+10	1	-1E+10	1	-1E+10	1	-1E+10	1
4901784	84	C	10/22/2017	10:44	-133.402	43.887	0	1905.40	0	2.0080	0	34.6720	4	27.718	0	1881.551	0	55.6	4	16.8	4	-1E+10	1	-1E+10	1	-1E+10	1	-1E+10	1	-1E+10	1	-1E+10	1
4901784	84	C	10/22/2017	10:44	-133.402	43.887	0	1910.20	0	2.0020	0	34.6730	4	27.720	0	1886.270	0	55.7	4	16.8	4	-1E+10	1	-1E+10	1	-1E+10	1	-1E+10	1	-1E+10	1	-1E+10	1
4901784	84	C	10/22/2017	10:44	-133.402	43.887	0	1915.10	0	1.9940	0	34.6730	4	27.720	0	1891.086	0	55.9	4	16.9	4	-1E+10	1	-1E+10	1	-1E+10	1	-1E+10	1	-1E+10	1	-1E+10	1
4901784	84	C	10/22/2017	10:44	-133.402	43.887	0	1919.90	0	1.9900	0	34.6740	4	27.721	0	1895.805	0	56.0	4	16.9	4	-1E+10	1	-1E+10	1	-1E+10	1	-1E+10	1	-1E+10	1	-1E+10	1
4901784	84	C	10/22/2017	10:44	-133.402	43.887	0	1924.80	0	1.9840	0	34.6740	4	27.722	0	1900.622	0	56.1	4	16.9	4	-1E+10	1	-1E+10	1	-1E+10	1	-1E+10	1	-1E+10	1	-1E+10	1
4901784	84	C	10/22/2017	10:44	-133.402	43.887	0	1929.70	0	1.9770	0	34.6740	4	27.723	0	1905.438	0	56.2	4	16.9	4	-1E+10	1	-1E+10	1	-1E+10	1	-1E+10	1	-1E+10	1	-1E+10	1
4901784	84	C	10/22/2017	10:44	-133.402	43.887	0	1934.70	0	1.9720	0	34.6750	4	27.724	0	1910.353	0	56.3	4	17.0	4	-1E+10	1	-1E+10	1	-1E+10	1	-1E+10	1	-1E+10	1	-1E+10	1
4901784	84	C	10/22/2017	10:44	-133.402	43.887	0	1939.70	0	1.9690	0	34.6750	4	27.724	0	1915.267	0	56.6	4	17.1	4	-1E+10	1	-1E+10	1	-1E+10	1	-1E+10	1	-1E+10	1	-1E+10	1
4901784	84	C	10/22/2017	10:44	-133.402	43.887	0	1944.70	0	1.9650	0	34.6750	4	27.724	0	1920.182	0	56.9	4	17.2	4	-1E+10	1	-1E+10	1	-1E+10	1	-1E+10	1	-1E+10	1	-1E+10	1
4901784	84	C	10/22/2017	10:44	-133.402	43.887	0	1949.60	0	1.9610	0	34.6770	4	27.726	0	1924.998	0	57.2	4	17.3	4	-1E+10	1	-1E+10	1	-1E+10	1	-1E+10	1	-1E+10	1	-1E+10	1
4901784	84	C	10/22/2017	10:44	-133.402	43.887	0	1954.70	0	1.9580	0	34.6780	4	27.727	0	1930.010	0	57.5	4	17.3	4	-1E+10	1	-1E+10	1	-1E+10	1	-1E+10	1	-1E+10	1	-1E+10	1
4901784	84	C	10/22/2017	10:44	-133.402	43.887	0	1959.60	0	1.9550	0	34.6780	4	27.728	0	1934.826	0	57.7	4	17.4	4	-1E+10	1	-1E+10	1	-1E+10	1	-1E+10	1	-1E+10	1	-1E+10	1
4901784	84	C	10/22/2017	10:44	-133.402	43.887	0	1964.70	0	1.9520	0	34.6780	4	27.728	0	1939.839	0	58.1	4	17.5	4	-1E+10	1	-1E+10	1	-1E+10	1	-1E+10	1	-1E+10	1	-1E+10	1
4901784	84	C	10/22/2017	10:44	-133.402	43.887	0	1969.70	0	1.9480	0	34.6790	4	27.729	0	1944.753	0	58.3	4	17.6	4	-1E+10	1	-1E+10	1	-1E+10	1	-1E+10	1	-1E+10	1	-1E+10	1
4901784	84	C	10/22/2017	10:44	-133.402	43.887	0	1974.90	0	1.9440	0	34.6790	4	27.729	0	1949.863	0	58.6	4	17.6	4	-1E+10	1	-1E+10	1	-1E+10	1	-1E+10	1	-1E+10	1	-1E+10	1
4901784	84	C	10/22/2017	10:44	-133.402	43.887	0	1980.00	0	1.9400	0	34.6800	4	27.730	0	1954.875	0	58.8	4	17.7	4	-1E+10	1	-1E+10	1	-1E+10	1	-1E+10	1	-1E+10	1	-1E+10	1
4901784	84	C	10/22/2017	10:44	-133.402	43.887	0	1985.10	0	1.9370	0	34.6800	4	27.731	0	1959.887	0	59.0	4	17.8	4	-1E+10	1	-1E+10	1	-1E+10	1	-1E+10	1	-1E+10	1	-1E+10	1
4901784	84	C	10/22/2017	10:44	-133.402	43.887	0	1990.30	0	1.9360	0	34.6800	4	27.731	0	1964.997	0	59.2	4	17.8	4	-1E+10	1	-1E+10	1	-1E+10	1	-1E+10	1	-1E+10	1	-1E+10	1
4901784	84	C	10/22/2017	10:44	-133.402	43.887	0	1995.50	0	1.9330	0	34.6810	4	27.732	0	1970.107	0	59.4	4	17.9	4	-1E+10	1	-1E+10	1	-1E+10	1	-1E+10	1	-1E+10	1	-1E+10	1
4901784	84	C	10/22/2017	10:44	-133.402	43.887	0	2000.70	0	1.9310	0	34.6820	4	27.733	0	1975.216	0	59.6	4	18.0	4	-1E+10	1	-1E+10	1	-1E+10	1	-1E+10	1	-1E+10	1	-1E+10	1
4901784	84	C	10/22/2017	10:44	-133.402	43.887	0	2005.00	0	1.9280	0	34.6830	4	27.734	0	1979.442	0	59.9	4	18.0	4	-1E+10	1	-1E+10	1	-1E+10	1	-1E+10	1	-1E+10	1	-1E+10	1
4901784	84	C	10/22/2017	10:44	-133.402	43.887	0	2009.60	0	1.9250	0	34.6830	4	27.734	0	1983.962	0	60.1	4	18.1	4	-1E+10	1	-1E+10	1	-1E+10	1	-1E+10	1	-1E+10	1	-1E+10	1
4901784	84	C	10/22/2017	10:44	-133.402	43.887	0	2014.50	0	1.9220	0	34.6830	4	27.734	0	1988.776	0	60.3	4	18.2	4	-1E+10	1	-1E+10	1	-1E+10	1	-1E+10	1	-1E+10	1	-1E+10	1
4901784	84	C	10/22/2017	10:44	-133.402	43.887	0	2019.80	0	1.9190	0	34.6830	4	27.735	0	1993.984	0	60.5	4	18.2	4	-1E+10	1	-1E+10	1	-1E+10	1	-1E+10	1	-1E+10	1	-1E+10	1
4901784	84	C	10/22/2017	10:44	-133.402	43.887	0																										
4901784	85	C	11/01/2017	10:47	-133.210	43.826	0	2.40	0	16.1720	0	33.0830	4	24.235	0	2.381	0	236.7	4	96.4	4	-1E+10	1	-1E+10	1	-1E+10	1	-1E+10	1	-1E+10	1	-1E+10	1
4901784	85	C	11/01/2017	10:47	-133.210	43.826	0	3.90	0	16.1760	0	33.0860	4	24.237	0	3.869	0	236.5	4	96.4	4	-1E+10	1	-1E+10	1	-1E+10	1	-1E+10	1	-1E+10	1	-1E+10	1
4901784	85	C	11/01/2017	10:47	-133.210	43.826	0	5.60	0	16.1770	0	33.0850	4	24.236	0	5.555	0	236.4	4	96.3	4	-1E+10	1	-1E+10	1	-1E+10	1	-1E+10	1	-1E+10	1	-1E+10	1
4901784	85	C	11/01/2017	10:47	-133.210	43.826	0	7.40	0	16.1730	0	33.0870	4	24.239	0	7.341	0	236.4	4	96.4	4	-1E+10	1	-1E+10	1	-1E+10	1	-1E+10	1	-1E+10	1	-1E+10	1
4901784	85	C	11/01/2017	10:47	-133.210	43.826	0	9.20	0	16.1750	0	33.0850	4	24.237	0	9.126	0	236.3	4	96.3	4	-1E+10	1	-1E+10	1	-1E+10	1	-1E+10	1	-1E+10	1	-1E+10	1
4901784	85	C	11/01/2017	10:47	-133.210	43.826	0	11.10	0	16.1750	0	33.0870	4	24.238	0	11.011	0	236.2	4	96.3	4	-1E+10	1	-1E+10	1	-1E+10	1	-1E+10	1	-1E+10	1	-1E+10	1
4901784	85	C	11/01/2017	10:47	-133.210	43.826	0	13.10	0	16.1750	0	33.0870	4	24.238	0	12.995	0	236.2	4	96.3	4	-1E+10	1	-1E+10	1	-1E+10	1	-1E+10	1	-1E+10	1	-1E+10	1
4901784	85	C	11/01/2017	10:47	-133.210	43.826	0	14.90	0	16.1740	0	33.0880	4	24.239	0	14.780	0	236.1	4	96.2	4	-1E+10	1	-1E+10	1	-1E+10	1	-1E+10	1	-1E+10	1	-1E+10	1
4901784	85	C	11/01/2017	10:47	-133.210	43.826	0	16.90	0	16.1770	0	33.0850	4	24.236	0	16.764	0	235.9	4	96.1	4	-1E+10	1	-1E+10	1	-1E+10	1	-1E+10	1	-1E+10	1	-1E+10	1
4901784	85	C	11/01/2017	10:47	-133.210	43.826	0	18.90	0	16.1780	0	33.0870	4	24.238	0	18.748	0	235.9	4	96.1	4	-1E+10	1	-1E+10	1	-1E+10	1	-1E+10	1	-1E+10	1	-1E+10	1
4901784	85	C	11/01/2017	10:47	-133.210	43.826	0	20.90	0	16.1780	0	33.0860	4	24.237	0	20.732	0	236.0	4	96.2	4	-1E+10	1	-1E+10	1	-1E+10	1	-1E+10	1	-1E+10	1	-1E+10	1
4901784	85	C	11/01/2017	10:47	-133.210	43.826	0	22.80	0	16.1780	0	33.0860	4	24.237	0	22.616	0	235.8	4	96.1	4	-1E+10	1	-1E+10	1	-1E+10	1	-1E+10	1	-1E+10	1	-1E+10	1
4901784	85	C	11/01/2017	10:47	-133.210	43.826	0	24.80	0	16.1790	0	33.0870	4	24.238	0	24.600	0	235.6	4	96.0	4	-1E+10	1	-1E+10	1	-1E+10	1	-1E+10	1	-1E+10	1	-1E+10	1
4901784	85	C	11/01/2017	10:47	-133.210	43.826	0	26.70	0	16.1790	0	33.0870	4	24.238	0	26.484	0	235.3	4	95.9	4	-1E+10	1	-1E+10	1	-1E+10	1	-1E+10	1	-1E+10	1	-1E+10	1
4901784	85	C	11/01/2017	10:47	-133.210	43.826	0	28.60	0	16.1780	0	33.0870	4	24.238	0	28.369	0	235.4	4	95.9	4	-1E+10	1	-1E+10	1	-1E+10	1	-1E+10	1	-1E+10	1	-1E+10	1
4901784	85	C	11/01/2017	10:47	-133.210	43.826	0	30.50	0	16.1790	0	33.0850	4	24.236	0	30.253	0	235.2	4	95.8	4	-1E+10	1	-1E+10	1	-1E+10	1	-1E+10	1	-1E+10	1	-1E+10	1
4901784	85	C	11/01/2017	10:47	-133.210	43.826	0	32.30	0	16.1790	0	33.0860	4	24.237	0	32.039	0	235.1	4	95.8	4	-1E+10	1	-1E+10	1	-1E+10	1	-1E+10	1	-1E+10	1	-1E+10	1
4901784	85	C	11/01/2017	10:47	-133.210	43.826	0	34.10	0	16.1790	0	33.0860	4	24.237	0	33.824	0	234.9	4	95.7	4	-1E+10	1	-1E+10	1	-1E+10	1	-1E+10	1	-1E+10	1	-1E+10	1
4901784	85	C	11/01/2017	10:47	-133.210	43.826	0	35.90	0	16.1800	0	33.0840	4	24.236	0	35.609	0	234.9	4	95.7	4	-1E+10	1	-1E+10	1	-1E+10	1	-1E+10	1	-1E+10	1	-1E+10	1
4901784	85	C	11/01/2017	10:47	-133.210	43.826	0	37.70	0	16.1800	0	33.0860	4	24.237	0	37.395	0	234.7	4	95.6	4	-1E+10	1	-1E+10	1	-1E+10	1	-1E+10	1	-1E+10	1	-1E+10	1
4901784	85	C	11/01/2017	10:47	-133.210	43.826	0	39.50	0	16.1800	0	33.0840	4	24.236	0	39.180	0	234.5	4	95.6	4	-1E+10	1	-1E+10	1	-1E+10	1	-1E+10	1	-1E+10	1	-1E+10	1
4901784	85	C	11/01/2017	10:47	-133.210	43.826	0	41.30	0	16.1810	0	33.0840	4	24.236	0	40.965	0	234.4	4	95.5	4	-1E+10	1	-1E+10	1	-1E+10	1	-1E+10	1	-1E+10	1	-1E+10	1
4901784	85	C	11/01/2017	10:47	-133.210	43.826	0	43.10	0	16.1810	0	33.0850	4	24.236	0	42.750	0	234.4	4	95.5	4	-1E+10	1	-1E+10	1	-1E+10	1	-1E+10	1	-1E+10	1	-1E+10	1
4901784	85	C	11/01/2017	10:47	-133.210	43.826	0	45.00	0	16.1810	0	33.0820	4	24.234	0	44.635	0	234.0	4	95.4	4	-1E+10	1	-1E+10	1	-1E+10	1	-1E+10	1	-1E+10	1	-1E+10	1
4901784	85	C	11/01/2017	10:47	-133.210	43.826	0	46.70	0	16.1820	0	33.0850	4	24.236	0	46.321	0	233.8	4	95.3	4	-1E+10	1	-1E+10	1	-1E+10	1	-1E+10	1	-1E+10	1	-1E+10	1
4901784	85	C	11/01/2017	10:47	-133.210	43.826	0	49.00	0	16.1830	0	33.0810	4	24.233	0	48.602	0	233.8	4	95.3	4	-1E+10	1	-1E+10	1	-1E+10	1	-1E+10	1	-1E+10	1	-1E+10	1
4901784	85	C	11/01/2017	10:47	-133.210	43.826	0	50.60	0	16.1780	0	33.0800	4	24.234	0	50.189	0	233.7	4	95.2	4	-1E+10	1	-1E+10	1	-1E+10	1	-1E+10	1	-1E+10	1	-1E+10	1
4901784	85	C	11/01/2017	10:47	-133.210	43.826	0	51.90	0	16.1770	0	33.0780	4	24.232	0	51.478	0	233.6	4	95.2	4	-1E+10	1	-1E+10	1	-1E+10	1	-1E+10	1	-1E+10	1	-1E+10	1
4901784	85	C	11/01/2017	10:47	-133.210	43.826	0	53.20	0	16.1750	0	33.0730	4	24.229	0	52.767	0	233.9	4	95.3	4	-1E+10	1	-1E+10	1	-1E+10	1	-1E+10	1	-1E+10	1	-1E+10	1
4901784	85	C	11/01/2017	10:47	-133.210	43.826	0	54.40	0	16.1640	0	33.0680	4	24.228	0	53.957	0	234.6	4	95.6	4	-1E+10	1	-1E+10	1	-1E+10	1	-1E+10	1	-1E+10	1	-1E+10	1
4901784	85	C	11/01/2017	10:47	-133.210	43.826	0	55.60	0	16.1590	0	33.0590	4	24.222	0	55.147	0	235.7	4	96.0	4	-1E+10	1	-1E+10	1	-1E+10	1	-1E+10	1	-1E+10	1	-1E+10	1
4901784	85	C	11/01/2017	10:47	-133.210	43.826	0	56.70	0	16.1550	0	33.0450	4	24.212	0	56.238	0	236.6	4	96.3	4	-1E+10	1	-1E+10	1	-1E+10	1	-1E+10	1	-1E+10	1	-1E+10	1
4901784	85	C	11/01/2017	10:47	-133.210	43.826	0	57.80	0	16.1440	0	33.0180	4	24.194	0	57.329	0	238.7	4	97.2	4	-1E+10	1	-1E+10	1	-1E+10	1	-1E+10	1	-1E+10	1	-1E+10	1
4901784	85	C	11/01/2017	10:47	-133.210	43.826	0	59.10	0	15.7520	0	32.9800	4	24.253	0	58.618	0	241.7	4	97.6	4	-1E+10	1	-1E+10	1	-1E+10	1	-1E+10	1	-1E+10	1	-1E+10	1
4901784	85	C	11/01/2017	10:47	-133.210	43.826	0	60.60	0	13.2460	0	32.9570	4	24.764	0	60.106	0	255.1	4	98.0	4	-1E+10	1	-1E+10	1	-1E+10	1	-1E+10	1	-1E+10	1	-1E+10	1
4901784	85	C	11/01/2017	10:47	-133.210	43.826	0	62.10	0	12.6720	0	32.9280	4	24.854	0	61.593	0	257.8	4	97.8	4	-1E+10	1	-1E+10	1	-1E+10	1	-1E+10	1	-1E+10	1	-1E+10	1
4901784	85	C	11/01/2017	10:47	-133.210	43.826	0	63.70	0	11.8250	0	32.9520	4	25.033	0	63.180	0	259.7	4	96.9	4	-1E+10	1	-1E+10	1	-1E+10	1	-1E+10	1	-1E+10	1	-1E+10	1
4901784	85	C	11/01/2017	10:47	-133.210	43.826	0	65.40	0	11.5260	0	32.9600	4	25.095	0	64.866	0	261.7	4	97.0	4	-1E+10	1	-1E+10	1	-1E+10	1	-1E+10	1	-1E+10	1	-1E+10	1
4901784	85	C	11/01/2017	10:47	-133.210	43.826	0	67.10	0	11.1050	0	32.9680	4	25.177	0	66.552	0	262.9	4	96.6	4	-1E+10	1	-1E+10	1	-1E+10	1	-1E+10	1	-1E+10	1	-1E+10	1
4901784	85	C	11/01/2017	10:47	-133.210	43.826	0	68.90	0	10.9670	0	32.9780	4	25.209	0	68.337	0	262.2	4	96.1	4	-1E+10	1	-1E+10	1	-1E+10	1	-1E+10	1	-1E+10	1	-1E+10	1
4901784	85	C	11/01/2017	10:47	-133.210	43.826	0	70.70	0	10.7110	0	32.9790	4	25.255	0	70.122	0	260.9	4	95.1	4	-1E+10	1	-1E+10	1	-1E+10	1	-1E+10	1	-1E+10	1	-1E+10	1
4901784	85	C	11/01/2017	10:47	-133.210	43.826	0	72.50	0	10.6530	0	32.9790	4	25.265	0	71.907	0	261.2	4	95.1	4	-1E+10	1	-1E+10	1	-1E+10	1	-1E+10	1	-1E+10	1	-1E+10	1
4901784	85	C	11/01/2017	10:47	-133.210	43.826	0	74.30	0	10.5920	0	32.9860	4	25.281	0	73.692	0	260.4	4	94.7	4	-1E+10	1	-1E+10	1	-1E+10	1	-1E+10	1	-1E+10	1	-1E+10	1
4901784	85	C	11/01/2017	10:47	-133.210	43.826	0	76.30	0	10.4610	0	32.9830	4	25.301	0	75.675	0	256.6	4	93.0	4	-1E+10	1	-1E+10	1	-1E+10	1	-1E+10	1	-1E+10	1	-1E+10	1
4901784	85	C	11/01/2017	10:47	-133.210	43.826	0	76.80	0	10.4360	0	32.9830	4	25.305	0	76.171	0	254.1	4	92.1	4	-1E+10	1	-1E+10	1	-1E+10	1	-1E+10	1	-1E+10	1	-1E+10	1
4901784	85	C	11/01/2017	10:47	-133.210	43.826	0	78.20	0	10.3040	0	32.9930	4	25.336	0	77.559	0	246.7	4	89.1	4	-1E+10	1	-1E+10	1	-1E+10	1	-1E+10	1	-1E+10	1	-1E+10	1
4901784	85	C	11/01/2017	10:47	-133.210	43.826	0	79.60	0	10.1300	0	33.0060	4	25.375	0	78.947	0	237.5	4	85.5	4	-1E+10	1	-1E+10	1	-1E+10	1	-1E+10	1	-1E+10	1	-1E+10	1
4901784	85	C	11/01/2017	10:47	-133.210	43.826	0	81.10	0	10.1020	0	33.0300	4	25.399	0	80.435	0	230.9	4	83.1	4	-1E+10	1	-1E+10	1	-1E+10	1	-1E+10	1	-1E+10	1	-1E+10	1
4901784	85	C	11/01/2017	10:47	-133.210	43.826	0	82.60	0	10.0060	0	33.0510	4	25.431	0	81.922	0	227.3	4	81.6	4	-1E+10	1	-1E+10	1	-1E+10	1	-1E+10	1	-1E+10	1	-1E+10	1
4901784	85	C	11/01/2017	10:47	-133.210	43.826	0	84.10	0	9.9750	0	33.0560	4	25.440	0	83.409	0	225.0	4	80.8	4	-1E+10	1	-1E+10	1	-1E+10	1	-1E+10	1	-1E+10	1	-1E+10	1
4901784	85	C	11/01/2017	10:47	-133.210	43.826	0	85.60	0	9.9260	0	33.1020	4	25.484	0	84.897	0	222.3	4	79.7	4	-1E+10	1	-1E+10	1	-1E+10	1	-1E+10	1	-1E+10	1	-1E+10	1
4901784	85	C	11/01/2017	10:47	-133.210	43.826	0	87.20	0	9.7940	0	33.1110	4	25.513	0	86.483	0	222.2	4	79.5	4	-1E+10	1	-1E+10	1	-1E+10	1	-1E+10	1	-1E+10	1	-1E+10	1
4901784	85	C	11/01/2017	10:47	-133.210	43.826	0	88.90	0	9.5940	0	33.0980	4	25.536	0	88.169	0	221.6	4	78.9	4	-1E+10	1	-1E+10	1	-1E+10	1	-1E+10	1	-1E+10	1	-1E+10	1
4901784	85	C	11/01/2017	10:47	-133.210	43.826	0	90.60	0	9.5270	0	33.1480	4	25.586	0	89.855	0	219.2	4	78.0	4	-1E+10	1	-1E+10	1	-1E+10	1	-1E+10	1	-1E+10	1	-1E+10	1
4901784	85	C	11/01/2017	10:47	-133.210	43.826	0	92.30	0	9.4970	0	33.1560	4	25.597	0	91.540	0	217.5	4	77.3	4	-1E+10	1	-1E+10	1	-1E+10	1	-1E+10	1	-1E+10	1	-1E+10	1
4901784	85	C	11/01/2017	10:47	-133.210	43.826	0	94.00	0	9.4270	0	33.1740	4	25.623	0	93.226	0	215.7	4	76.6	4	-1E+10	1	-1E+10	1	-1E+10	1	-1E+10	1	-1E+10	1	-1E+10	1
4901784	85	C	11/01/2017	10:47	-133.210	43.826	0	95.60	0	9.3900	0	33.1980	4	25.647	0	94.812	0	213.8	4	75.8	4	-1E+10	1	-1E+10	1	-1E+10	1	-1E+10	1	-1E+10	1	-1E+10	1
4901784	85	C	11/01/2017	10:47	-133.210	43.826	0	97.30	0	9.3950	0	33.2070	4	25.654	0	96.498	0	212.7	4	75.5	4	-1E+10	1	-1E+10	1	-1E+10	1	-1E+10	1	-1E+10	1	-1E+10	1
4901784	85	C	11/01/2017	10:47	-133.210	43.826	0	98.90	0	9.3800	0	33.2120	4	25.660	0	98.084	0	211.3	4	74.9	4	-1E+10	1	-1E+10	1	-1E+10	1	-1E+10	1	-1E+10	1	-1E+10	1
4901784	85	C	11/01/2017	10:47	-133.210	43.826	0	102.40	0	9.1990	0	33.2610	4	25.727	0	101.555	0	209.7	4	74.1	4	-1E+10	1	-1E+10	1	-1E+10	1	-1E+10	1	-1E+10	1	-1E+10	1
4901784	85	C	11/01/2017	10:47	-133.210	43.826	0	105.00	0	9.0730	0	33.2770	4	25.760	0	104.132	0	207.8	4	73.2	4	-1E+10	1	-1E+10	1	-1E+10	1	-1E+10	1	-1E+10	1	-1E+10	1
4901784	85	C	11/01/2017	10:47	-133.210	43.826	0	107.10	0	8.9070	0	33.3050	4	25.808	0	106.215	0	204.2	4	71.7	4	-1E+10	1	-1E+10	1	-1E+10	1	-1E+10	1	-1E+10	1	-1E+10	1
4901784	85	C	11/01/2017	10:47	-133.210	43.826	0	110.00	0	8.9250	0	33.3750	4	25.860	0	109.090	0	195.0	4	68.6	4	-1E+10	1	-1E+10	1	-1E+10	1	-1E+10	1	-1E+10	1	-1E+10	1
4901784	85	C	11/01/2017	10:47	-133.210	43.826	0	112.30	0	8.7990	0	33.4230	4	25.917	0	111.370	0	189.0	4	66.3	4	-1E+10	1	-1E+10	1	-1E+10	1	-1E+10	1	-1E+10	1	-1E+10	1
4901784	85	C	11/01/2017	10:47	-133.210	43.826	0	114.50	0	8.8790	0	33.4980	4	25.963	0	113.551	0	181.5	4	63.8	4	-1E+10	1	-1E+10	1	-1E+10	1	-1E+10	1	-1E+10	1	-1E+10	1
4901784	85	C	11/01/2017	10:47	-133.210	43.826	0	117.60	0	8.8680	0	33.5510	4	26.007	0	116.625	0	177.1	4	62.3	4	-1E+10	1	-1E+10	1	-1E+10	1	-1E+10	1	-1E+10	1	-1E+10	1
4901784	85	C	11/01/2017	10:47	-133.210	43.826	0	120.10	0	8.8510	0	33.5810	4	26.033	0	119.103	0	176.2	4	61.9	4	-1E+10	1	-1E+10	1	-1E+10	1	-1E+10	1	-1E+10	1	-1E+10	1
4901784	85	C	11/01/2017	10:47	-133.210	43.826	0	122.60	0	8.8310	0	33.6010	4	26.052	0	121.582	0	176.7	4	62.1	4	-1E+10	1	-1E+10	1	-1E+10	1	-1E+10	1	-1E+10	1	-1E+10	1
4901784	85	C	11/01/2017	10:47	-133.210	43.826	0	125.10	0	8.7490	0	33.6450	4	26.099	0	124.060	0	178.8	4	62.7	4	-1E+10	1	-1E+10	1	-1E+10	1	-1E+10	1	-1E+10	1	-1E+10	1
4901784	85	C	11/01/2017	10:47	-133.210	43.826	0	127.60	0	8.6890	0	33.6920	4	26.145	0	126.539	0	180.8	4	63.4	4	-1E+10	1	-1E+10	1	-1E+10	1	-1E+10	1	-1E+10	1	-1E+10	1
4901784	85	C	11/01/2017	10:47	-133.210	43.826	0	130.20	0	8.6160	0	33.7310	4	26.187	0	129.116	0	181.9	4	63.7	4	-1E+10	1	-1E+10	1	-1E+10	1	-1E+10	1	-1E+10	1	-1E+10	1
4901784	85	C	11/01/2017	10:47	-133.210	43.826	0	132.70	0	8.6090	0	33.7360	4	26.192	0	131.595	0	180.7	4	63.3	4	-1E+10	1	-1E+10	1	-1E+10	1	-1E+10	1	-1E+10	1	-1E+10	1
4901784	85	C	11/01/2017	10:47	-133.210	43.826	0	135.10	0	8.6030	0	33.7400	4	26.196	0	133.974	0	179.0	4	62.7	4	-1E+10	1	-1E+10	1	-1E+10	1	-1E+10	1	-1E+10	1	-1E+10	1
4901784	85	C	11/01/2017	10:47	-133.210	43.826	0	137.50	0	8.5900	0	33.7690	4	26.221	0	136.353	0	175.6	4	61.5	4	-1E+10	1	-1E+10	1	-1E+10	1	-1E+10	1	-1E+10	1	-1E+10	1
4901784	85	C	11/01/2017	10:47	-133.210	43.826	0	140.00	0	8.5750	0	33.8000	4	26.247	0	138.832	0	170.8	4	59.8	4	-1E+10	1	-1E+10	1	-1E+10	1	-1E+10	1	-1E+10	1	-1E+10	1
4901784	85	C	11/01/2017	10:47	-133.210	43.826	0	142.70	0	8.5560	0	33.8320	4	26.275	0	141.508	0	165.4	4	57.9	4	-1E+10	1	-1E+10	1	-1E+10	1	-1E+10	1	-1E+10	1	-1E+10	1
4901784	85	C	11/01/2017	10:47	-133.210	43.826	0	145.40	0	8.5220	0	33.8670	4	26.308	0	144.185	0	160.3	4	56.1	4	-1E+10	1	-1E+10	1	-1E+10	1	-1E+10	1	-1E+10	1	-1E+10	1
4901784	85	C	11/01/2017	10:47	-133.210	43.826	0	147.20	0	8.4980	0	33.8810	4	26.323	0	145.969	0	157.0	4	54.9	4	-1E+10	1	-1E+10	1	-1E+10	1	-1E+10	1	-1E+10	1	-1E+10	1
4901784	85	C	11/01/2017	10:47	-133.210	43.826	0	150.00	0	8.4560	0	33.9020	4	26.346	0	148.744	0	151.3	4	52.8	4	-1E+10	1	-1E+10	1	-1E+10	1	-1E+10	1	-1E+10	1	-1E+10	1
4901784	85	C	11/01/2017	10:47	-133.210	43.826	0	152.70	0	8.3510	0	33.9160	4	26.373	0	151.421	0	144.0	4	50.2	4	-1E+10	1	-1E+10	1	-1E+10	1	-1E+10	1	-1E+10	1	-1E+10	1
4901784	85	C	11/01/2017	10:47	-133.210	43.826	0	154.50	0	8.2790	0	33.9130	4	26.381	0	153.205	0	142.9	4	49.7	4	-1E+10	1	-1E+10	1	-1E+10	1	-1E+10	1	-1E+10	1	-1E+10	1
4901784	85	C	11/01/2017	10:47	-133.210	43.826	0	157.40	0	8.2790	0	33.9310	4	26.395	0	156.080	0	140.7	4	49.0	4	-1E+10	1	-1E+10	1	-1E+10	1	-1E+10	1	-1E+10	1	-1E+10	1
4901784	85	C	11/01/2017	10:47	-133.210	43.826	0	160.20	0	8.2160	0	33.9360	4	26.409	0	158.855	0	137.8	4	47.9	4	-1E+10	1	-1E+10	1	-1E+10	1	-1E+10	1	-1E+10	1	-1E+10	1
4901784	85	C	11/01/2017	10:47	-133.210	43.826	0	162.10	0	8.2050	0	33.9330	4	26.408	0	160.738	0	136.7	4	47.5	4	-1E+10	1	-1E+10	1	-1E+10	1	-1E+10	1	-1E+10	1	-1E+10	1
4901784	85	C	11/01/2017	10:47	-133.210	43.826	0	164.80	0	8.1600	0	33.9360	4	26.417	0	163.415	0	136.1	4	47.2	4	-1E+10	1	-1E+10	1	-1E+10	1	-1E+10	1	-1E+10	1	-1E+10	1
4901784	85	C	11/01/2017	10:47	-133.210	43.826	0	167.50	0	8.1280	0	33.9410	4	26.426	0	166.091	0	137.0	4	47.5	4	-1E+10	1	-1E+10	1	-1E+10	1	-1E+10	1	-1E+10	1	-1E+10	1
4901784	85	C	11/01/2017	10:47	-133.210	43.826	0	170.30	0	8.0560	0	33.9590	4	26.451	0	168.866	0	138.6	4	48.0	4	-1E+10	1	-1E+10	1	-1E+10	1	-1E+10	1	-1E+10	1	-1E+10	1
4901784	85	C	11/01/2017	10:47	-133.210	43.826	0	173.20	0	8.0270	0	33.9650	4	26.460	0	171.741	0	140.9	4	48.8	4	-1E+10	1	-1E+10	1	-1E+10	1	-1E+10	1	-1E+10	1	-1E+10	1
4901784	85	C	11/01/2017	10:47	-133.210	43.826	0	175.00	0	7.9910	0	33.9750	4	26.473	0	173.525	0	142.9	4	49.4	4	-1E+10	1	-1E+10	1	-1E+10	1	-1E+10	1	-1E+10	1	-1E+10	1
4901784	85	C	11/01/2017	10:47	-133.210	43.826	0	177.00	0	7.9600	0	33.9800	4	26.482	0	175.507	0	145.4	4	50.3	4	-1E+10	1	-1E+10	1	-1E+10	1	-1E+10	1	-1E+10	1	-1E+10	1
4901784	85	C	11/01/2017	10:47	-133.210	43.826	0	179.80	0	7.9290	0	33.9900	4	26.494	0	178.282	0	146.5	4	50.6	4	-1E+10	1	-1E+10	1	-1E+10	1	-1E+10	1	-1E+10	1	-1E+10	1
4901784	85	C	11/01/2017	10:47	-133.210	43.826	0	182.60	0	7.9230	0	33.9930	4	26.497	0	181.057	0	149.3	4	51.6	4	-1E+10	1	-1E+10	1	-1E+10	1	-1E+10	1	-1E+10	1	-1E+10	1
4901784	85	C	11/01/2017	10:47	-133.210	43.826	0	184.40	0	7.9210	0	33.9990	4	26.502	0	182.841	0	148.9	4	51.4	4	-1E+10	1	-1E+10	1	-1E+10	1	-1E+10	1	-1E+10	1	-1E+10	1
4901784	85	C	11/01/2017	10:47	-133.210	43.826	0	187.30	0	7.8680	0	34.0020	4	26.512	0	185.715	0	147.7	4	51.0	4	-1E+10	1	-1E+10	1	-1E+10	1	-1E+10	1	-1E+10	1	-1E+10	1
4901784	85	C	11/01/2017	10:47	-133.210	43.826	0	190.10	0	7.8270	0	34.0050	4	26.521	0	188.491	0	145.6	4	50.2	4	-1E+10	1	-1E+10	1	-1E+10	1	-1E+10	1	-1E+10	1	-1E+10	1
4901784	85	C	11/01/2017	10:47	-133.210	43.826	0	192.00	0	7.8090	0	34.0090	4	26.527	0	190.374	0	141.8	4	48.9	4	-1E+10	1	-1E+10	1	-1E+10	1	-1E+10	1	-1E+10	1	-1E+10	1
4901784	85	C	11/01/2017	10:47	-133.210	43.826	0	194.80	0	7.7080	0	34.0050	4	26.538	0	193.149	0	136.4	4	46.9	4	-1E+10	1	-1E+10	1	-1E+10	1	-1E+10	1	-1E+10	1	-1E+10	1
4901784	85	C	11/01/2017	10:47	-133.210	43.826	0	197.60	0	7.6650	0	34.0050	4	26.544	0	195.923	0	133.3	4	45.8	4	-1E+10	1	-1E+10	1	-1E+10	1	-1E+10	1	-1E+10	1	-1E+10	1
4901784	85	C	11/01/2017	10:47	-133.210	43.826	0	199.40	0	7.6110	0	34.0060	4	26.553	0	197.707	0	131.2	4	45.0	4	-1E+10	1	-1E+10	1	-1E+10	1	-1E+10	1	-1E+10	1	-1E+10	1
4901784	85	C	11/01/2017	10:47	-133.210	43.826	0	201.90	0	7.5700	0	34.0070	4	26.560	0	200.185	0	128.7	4	44.1	4	-1E+10	1	-1E+10	1	-1E+10	1	-1E+10	1	-1E+10	1	-1E+10	1
4901784	85	C	11/01/2017	10:47	-133.210	43.826	0	204.60	0	7.5330	0	34.0030	4	26.562	0	202.861	0	126.3	4	43.3	4	-1E+10	1	-1E+10	1	-1E+10	1	-1E+10	1	-1E+10	1	-1E+10	1
4901784	85	C	11/01/2017	10:47	-133.210	43.826	0	207.60	0	7.4740	0	34.0070	4	26.573	0	205.834	0	125.5	4	42.9	4	-1E+10	1	-1E+10	1	-1E+10	1	-1E+10	1	-1E+10	1	-1E+10	1
4901784	85	C	11/01/2017	10:47	-133.210	43.826	0	210.00	0	7.4370	0	34.0050	4	26.577	0	208.212	0	123.9	4	42.3	4	-1E+10	1	-1E+10	1	-1E+10	1	-1E+10	1	-1E+10	1	-1E+10	1
4901784	85	C	11/01/2017	10:47	-133.210	43.826	0	212.30	0	7.3740	0	34.0090	4	26.589	0	210.491	0	122.0	4	41.6	4	-1E+10	1	-1E+10	1	-1E+10	1	-1E+10	1	-1E+10	1	-1E+10	1
4901784	85	C	11/01/2017	10:47	-133.210	43.826	0	214.70	0	7.3390	0	34.0090	4	26.594	0	212.870	0	119.4	4	40.7	4	-1E+10	1	-1E+10	1	-1E+10	1	-1E+10	1	-1E+10	1	-1E+10	1
4901784	85	C	11/01/2017	10:47	-133.210	43.826	0	217.10	0	7.2690	0	34.0120	4	26.606	0	215.248	0	115.5	4	39.3	4	-1E+10	1	-1E+10	1	-1E+10	1	-1E+10	1	-1E+10	1	-1E+10	1
4901784	85	C	11/01/2017	10:47	-133.210	43.826	0	220.30	0	7.2210	0	34.0140	4	26.615	0	218.419	0	108.4	4	36.9	4	-1E+10	1	-1E+10	1	-1E+10	1	-1E+10	1	-1E+10	1	-1E+10	1
4901784	85	C	11/01/2017	10:47	-133.210	43.826	0	222.70	0	7.1680	0	34.0180	4	26.625	0	220.797	0	102.7	4	34.9	4	-1E+10	1	-1E+10	1	-1E+10	1	-1E+10	1	-1E+10	1	-1E+10	1
4901784	85	C	11/01/2017	10:47	-133.210	43.826	0	225.30	0	7.1500	0	34.0240	4	26.632	0	223.373	0	97.2	4	33.0	4	-1E+10	1	-1E+10	1	-1E+10	1	-1E+10	1	-1E+10	1	-1E+10	1
4901784	85	C	11/01/2017	10:47	-133.210	43.826	0	227.80	0	7.1170	0	34.0290	4	26.641	0	225.851	0	95.6	4	32.4	4	-1E+10	1	-1E+10	1	-1E+10	1	-1E+10	1	-1E+10	1	-1E+10	1
4901784	85	C	11/01/2017	10:47	-133.210	43.826	0	230.30	0	7.0840	0	34.0290	4	26.645	0	228.328	0	96.2	4	32.6	4	-1E+10	1	-1E+10	1	-1E+10	1	-1E+10	1	-1E+10	1	-1E+10	1
4901784	85	C	11/01/2017	10:47	-133.210	43.826	0	232.80	0	7.0480	0	34.0310	4	26.652	0	230.805	0	96.5	4	32.7	4	-1E+10	1	-1E+10	1	-1E+10	1	-1E+10	1	-1E+10	1	-1E+10	1
4901784	85	C	11/01/2017	10:47	-133.210	43.826	0	235.30	0	7.0260	0	34.0300	4	26.654	0	233.282	0	96.3	4	32.6	4	-1E+10	1	-1E+10	1	-1E+10	1	-1E+10	1	-1E+10	1	-1E+10	1
4901784	85	C	11/01/2017	10:47	-133.210	43.826	0	237.70	0	6.9930	0	34.0320	4	26.660	0	235.660	0	96.1	4	32.5	4	-1E+10	1	-1E+10	1	-1E+10	1	-1E+10	1	-1E+10	1	-1E+10	1
4901784	85	C	11/01/2017	10:47	-133.210	43.826	0	240.20	0	6.9560	0	34.0320	4	26.665	0	238.138	0	96.1	4	32.5	4	-1E+10	1	-1E+10	1	-1E+10	1	-1E+10	1	-1E+10	1	-1E+10	1
4901784	85	C	11/01/2017	10:47	-133.210	43.826	0	242.70	0	6.9460	0	34.0300	4	26.665	0	240.615	0	97.1	4	32.8	4	-1E+10	1	-1E+10	1	-1E+10	1	-1E+10	1	-1E+10	1	-1E+10	1
4901784	85	C	11/01/2017	10:47	-133.210	43.826	0	245.30	0	6.8530	0	34.0320	4	26.680	0	243.191	0	98.7	4	33.3	4	-1E+10	1	-1E+10	1	-1E+10	1	-1E+10	1	-1E+10	1	-1E+10	1
4901784	85	C	11/01/2017	10:47	-133.210	43.826	0	247.80	0	6.8180	0	34.0310	4	26.683	0	245.668	0	98.8	4	33.3	4	-1E+10	1	-1E+10	1	-1E+10	1	-1E+10	1	-1E+10	1	-1E+10	1
4901784	85	C	11/01/2017	10:47	-133.210	43.826	0	250.40	0	6.7480	0	34.0290	4	26.691	0	248.244	0	98.7	4	33.2	4	-1E+10	1	-1E+10	1	-1E+10	1	-1E+10	1	-1E+10	1	-1E+10	1
4901784	85	C	11/01/2017	10:47	-133.210	43.826	0	253.00	0	6.7020	0	34.0310	4	26.699	0	250.820	0	98.2	4	33.0	4	-1E+10	1	-1E+10	1	-1E+10	1	-1E+10	1	-1E+10	1	-1E+10	1
4901784	85	C	11/01/2017	10:47	-133.210	43.826	0	254.80	0	6.6620	0	34.0330	4	26.706	0	252.603	0	98.9	4	33.2	4	-1E+10	1	-1E+10	1	-1E+10	1	-1E+10	1	-1E+10	1	-1E+10	1
4901784	85	C	11/01/2017	10:47	-133.210	43.826	0	257.40	0	6.6410	0	34.0300	4	26.706	0	255.179	0	99.7	4	33.5	4	-1E+10	1	-1E+10	1	-1E+10	1	-1E+10	1	-1E+10	1	-1E+10	1
4901784	85	C	11/01/2017	10:47	-133.210	43.826	0	260.00	0	6.5930	0	34.0290	4	26.712	0	257.755	0	100.7	4	33.8	4	-1E+10	1	-1E+10	1	-1E+10	1	-1E+10	1	-1E+10	1	-1E+10	1
4901784	85	C	11/01/2017	10:47	-133.210	43.826	0	262.70	0	6.5430	0	34.0270	4	26.717	0	260.430	0	101.2	4	33.9	4	-1E+10	1	-1E+10	1	-1E+10	1	-1E+10	1	-1E+10	1	-1E+10	1
4901784	85	C	11/01/2017	10:47	-133.210	43.826	0	265.40	0	6.5080	0	34.0260	4	26.721	0	263.105	0	101.4	4	33.9	4	-1E+10	1	-1E+10	1	-1E+10	1	-1E+10	1	-1E+10	1	-1E+10	1
4901784	85	C	11/01/2017	10:47	-133.210	43.826	0	267.10	0	6.4700	0	34.0260	4	26.726	0	264.789	0	101.6	4	34.0	4	-1E+10	1	-1E+10	1	-1E+10	1	-1E+10	1	-1E+10	1	-1E+10	1
4901784	85	C	11/01/2017	10:47	-133.210	43.826	0	269.80	0	6.4350	0	34.0240	4	26.729	0	267.464	0	100.8	4	33.7	4	-1E+10	1	-1E+10	1	-1E+10	1	-1E+10	1	-1E+10	1	-1E+10	1
4901784	85	C	11/01/2017	10:47	-133.210	43.826	0	272.40	0	6.4280	0	34.0250	4	26.731	0	270.040	0	98.9	4	33.0	4	-1E+10	1	-1E+10	1	-1E+10	1	-1E+10	1	-1E+10	1	-1E+10	1
4901784	85	C	11/01/2017	10:47	-133.210	43.826	0	275.10	0	6.4220	0	34.0260	4	26.732	0	272.715	0	96.5	4	32.2	4	-1E+10	1	-1E+10	1	-1E+10	1	-1E+10	1	-1E+10	1	-1E+10	1
4901784	85	C	11/01/2017	10:47	-133.210	43.826	0	277.70	0	6.4270	0	34.0330	4	26.737	0	275.291	0	93.2	4	31.1	4	-1E+10	1	-1E+10	1	-1E+10	1	-1E+10	1	-1E+10	1	-1E+10	1
4901784	85	C	11/01/2017	10:47	-133.210	43.826	0	280.30	0	6.4020	0	34.0350	4	26.742	0	277.866	0	92.1	4	30.7	4	-1E+10	1	-1E+10	1	-1E+10	1	-1E+10	1	-1E+10	1	-1E+10	1
4901784	85	C	11/01/2017	10:47	-133.210	43.826	0	283.00	0	6.3800	0	34.0360	4	26.746	0	280.541	0	91.0	4	30.4	4	-1E+10	1	-1E+10	1	-1E+10	1	-1E+10	1	-1E+10	1	-1E+10	1
4901784	85	C	11/01/2017	10:47	-133.210	43.826	0	284.80	0	6.3550	0	34.0380	4	26.751	0	282.324	0	90.6	4	30.2	4	-1E+10	1	-1E+10	1	-1E+10	1	-1E+10	1	-1E+10	1	-1E+10	1
4901784	85	C	11/01/2017	10:47	-133.210	43.826	0	287.50	0	6.3240	0	34.0390	4	26.755	0	284.999	0	90.1	4	30.0	4	-1E+10	1	-1E+10	1	-1E+10	1	-1E+10	1	-1E+10	1	-1E+10	1
4901784	85	C	11/01/2017	10:47	-133.210	43.826	0	290.20	0	6.2890	0	34.0380	4	26.759	0	287.673	0	89.7	4	29.9	4	-1E+10	1	-1E+10	1	-1E+10	1	-1E+10	1	-1E+10	1	-1E+10	1
4901784	85	C	11/01/2017	10:47	-133.210	43.826	0	292.00	0	6.2490	0	34.0370	4	26.763	0	289.457	0	89.6	4	29.8	4	-1E+10	1	-1E+10	1	-1E+10	1	-1E+10	1	-1E+10	1	-1E+10	1
4901784	85	C	11/01/2017	10:47	-133.210	43.826	0	294.70	0	6.2120	0	34.0360	4	26.767	0	292.131	0	89.4	4	29.7	4	-1E+10	1	-1E+10	1	-1E+10	1	-1E+10	1	-1E+10	1	-1E+10	1
4901784	85	C	11/01/2017	10:47	-133.210	43.826	0	297.40	0	6.1980	0	34.0350	4	26.768	0	294.806	0	89.1	4	29.6	4	-1E+10	1	-1E+10	1	-1E+10	1	-1E+10	1	-1E+10	1	-1E+10	1
4901784	85	C	11/01/2017	10:47	-133.210	43.826	0	300.00	0	6.1850	0	34.0360	4	26.771	0	297.381	0	88.4	4	29.3	4	-1E+10	1	-1E+10	1	-1E+10	1	-1E+10	1	-1E+10	1	-1E+10	1
4901784	85	C	11/01/2017	10:47	-133.210	43.826	0	302.70	0	6.1430	0	34.0350	4	26.776	0	300.056	0	87.5	4	29.0	4	-1E+10	1	-1E+10	1	-1E+10	1	-1E+10	1	-1E+10	1	-1E+10	1
4901784	85	C	11/01/2017	10:47	-133.210	43.826	0	304.50	0	6.1200	0	34.0370	4	26.780	0	301.839	0	86.9	4	28.8	4	-1E+10	1	-1E+10	1	-1E+10	1	-1E+10	1	-1E+10	1	-1E+10	1
4901784	85	C	11/01/2017	10:47	-133.210	43.826	0	307.30	0	6.0670	0	34.0380	4	26.788	0	304.612	0	86.4	4	28.6	4	-1E+10	1	-1E+10	1	-1E+10	1	-1E+10	1	-1E+10	1	-1E+10	1
4901784	85	C	11/01/2017	10:47	-133.210	43.826	0	309.90	0	6.0630	0	34.0370	4	26.787	0	307.187	0	85.8	4	28.4	4	-1E+10	1	-1E+10	1	-1E+10	1	-1E+10	1	-1E+10	1	-1E+10	1
4901784	85	C	11/01/2017	10:47	-133.210	43.826	0	312.70	0	6.0250	0	34.0350	4	26.790	0	309.961	0	84.8	4	28.1	4	-1E+10	1	-1E+10	1	-1E+10	1	-1E+10	1	-1E+10	1	-1E+10	1
4901784	85	C	11/01/2017	10:47	-133.210	43.826	0	315.40	0	5.9840	0	34.0370	4	26.797	0	312.635	0	83.4	4	27.6	4	-1E+10	1	-1E+10	1	-1E+10	1	-1E+10	1	-1E+10	1	-1E+10	1
4901784	85	C	11/01/2017	10:47	-133.210	43.826	0	317.30	0	5.9510	0	34.0380	4	26.802	0	314.517	0	82.7	4	27.3	4	-1E+10	1	-1E+10	1	-1E+10	1	-1E+10	1	-1E+10	1	-1E+10	1
4901784	85	C	11/01/2017	10:47	-133.210	43.826	0	320.10	0	5.9140	0	34.0390	4	26.808	0	317.290	0	81.6	4	26.9	4	-1E+10	1	-1E+10	1	-1E+10	1	-1E+10	1	-1E+10	1	-1E+10	1
4901784	85	C	11/01/2017	10:47	-133.210	43.826	0	322.90	0	5.9030	0	34.0390	4	26.809	0	320.063	0	80.0	4	26.4	4	-1E+10	1	-1E+10	1	-1E+10	1	-1E+10	1	-1E+10	1	-1E+10	1
4901784	85	C	11/01/2017	10:47	-133.210	43.826	0	324.60	0	5.8870	0	34.0380	4	26.810	0	321.747	0	78.6	4	25.9	4	-1E+10	1	-1E+10	1	-1E+10	1	-1E+10	1	-1E+10	1	-1E+10	1
4901784	85	C	11/01/2017	10:47	-133.210	43.826	0	327.50	0	5.8670	0	34.0410	4	26.815	0	324.619	0	76.4	4	25.2	4	-1E+10	1	-1E+10	1	-1E+10	1	-1E+10	1	-1E+10	1	-1E+10	1
4901784	85	C	11/01/2017	10:47	-133.210	43.826	0	330.20	0	5.8440	0	34.0460	4	26.822	0	327.294	0	73.8	4	24.3	4	-1E+10	1	-1E+10	1	-1E+10	1	-1E+10	1	-1E+10	1	-1E+10	1
4901784	85	C	11/01/2017	10:47	-133.210	43.826	0	332.10	0	5.8400	0	34.0520	4	26.827	0	329.175	0	72.2	4	23.8	4	-1E+10	1	-1E+10	1	-1E+10	1	-1E+10	1	-1E+10	1	-1E+10	1
4901784	85	C	11/01/2017	10:47	-133.210	43.826	0	334.90	0	5.8340	0	34.0550	4	26.830	0	331.948	0	70.6	4	23.3	4	-1E+10	1	-1E+10	1	-1E+10	1	-1E+10	1	-1E+10	1	-1E+10	1
4901784	85	C	11/01/2017	10:47	-133.210	43.826	0	337.70	0	5.8170	0	34.0580	4	26.835	0	334.722	0	69.2	4	22.8	4	-1E+10	1	-1E+10	1	-1E+10	1	-1E+10	1	-1E+10	1	-1E+10	1
4901784	85	C	11/01/2017	10:47	-133.210	43.826	0	339.40	0	5.7950	0	34.0600	4	26.839	0	336.405	0	68.5	4	22.6	4	-1E+10	1	-1E+10	1	-1E+10	1	-1E+10	1	-1E+10	1	-1E+10	1
4901784	85	C	11/01/2017	10:47	-133.210	43.826	0	342.20	0	5.7640	0	34.0610	4	26.844	0	339.178	0	67.6	4	22.2	4	-1E+10	1	-1E+10	1	-1E+10	1	-1E+10	1	-1E+10	1	-1E+10	1
4901784	85	C	11/01/2017	10:47	-133.210	43.826	0	344.90	0	5.7100	0	34.0640	4	26.853	0	341.852	0	66.7	4	21.9	4	-1E+10	1	-1E+10	1	-1E+10	1	-1E+10	1	-1E+10	1	-1E+10	1
4901784	85	C	11/01/2017	10:47	-133.210	43.826	0	347.60	0	5.6970	0	34.0630	4	26.854	0	344.526	0	65.9	4	21.7	4	-1E+10	1	-1E+10	1	-1E+10	1	-1E+10	1	-1E+10	1	-1E+10	1
4901784	85	C	11/01/2017	10:47	-133.210	43.826	0	350.40	0	5.6660	0	34.0620	4	26.857	0	347.299	0	64.8	4	21.3	4	-1E+10	1	-1E+10	1	-1E+10	1	-1E+10	1	-1E+10	1	-1E+10	1
4901784	85	C	11/01/2017	10:47	-133.210	43.826	0	352.20	0	5.6510	0	34.0670	4	26.862	0	349.081	0	63.9	4	21.0	4	-1E+10	1	-1E+10	1	-1E+10	1	-1E+10	1	-1E+10	1	-1E+10	1
4901784	85	C	11/01/2017	10:47	-133.210	43.826	0	355.00	0	5.6420	0	34.0680	4	26.864	0	351.854	0	63.2	4	20.7	4	-1E+10	1	-1E+10	1	-1E+10	1	-1E+10	1	-1E+10	1	-1E+10	1
4901784	85	C	11/01/2017	10:47	-133.210	43.826	0	357.70	0	5.6450	0	34.0700	4	26.866	0	354.528	0	62.5	4	20.5	4	-1E+10	1	-1E+10	1	-1E+10	1	-1E+10	1	-1E+10	1	-1E+10	1
4901784	85	C	11/01/2017	10:47	-133.210	43.826	0	359.60	0	5.6330	0	34.0730	4	26.869	0	356.410	0	62.3	4	20.4	4	-1E+10	1	-1E+10	1	-1E+10	1	-1E+10	1	-1E+10	1	-1E+10	1
4901784	85	C	11/01/2017	10:47	-133.210	43.826	0	362.30	0	5.6060	0	34.0730	4	26.873	0	359.083	0	62.6	4	20.5	4	-1E+10	1	-1E+10	1	-1E+10	1	-1E+10	1	-1E+10	1	-1E+10	1
4901784	85	C	11/01/2017	10:47	-133.210	43.826	0	365.10	0	5.5750	0	34.0720	4	26.876	0	361.856	0	63.5	4	20.8	4	-1E+10	1	-1E+10	1	-1E+10	1	-1E+10	1	-1E+10	1	-1E+10	1
4901784	85	C	11/01/2017	10:47	-133.210	43.826	0	367.00	0	5.5200	0	34.0710	4	26.881	0	363.737	0	64.3	4	21.0	4	-1E+10	1	-1E+10	1	-1E+10	1	-1E+10	1	-1E+10	1	-1E+10	1
4901784	85	C	11/01/2017	10:47	-133.210	43.826	0	369.80	0	5.4620	0	34.0650	4	26.884	0	366.510	0	65.5	4	21.4	4	-1E+10	1	-1E+10	1	-1E+10	1	-1E+10	1	-1E+10	1	-1E+10	1
4901784	85	C	11/01/2017	10:47	-133.210	43.826	0	372.60	0	5.3880	0	34.0620	4	26.890	0	369.283	0	66.0	4	21.5	4	-1E+10	1	-1E+10	1	-1E+10	1	-1E+10	1	-1E+10	1	-1E+10	1
4901784	85	C	11/01/2017	10:47	-133.210	43.826	0	374.40	0	5.3640	0	34.0600	4	26.891	0	371.065	0	66.0	4	21.5	4	-1E+10	1	-1E+10	1	-1E+10	1	-1E+10	1	-1E+10	1	-1E+10	1
4901784	85	C	11/01/2017	10:47	-133.210	43.826	0	377.30	0	5.3520	0	34.0580	4	26.891	0	373.937	0	65.3	4	21.3	4	-1E+10	1	-1E+10	1	-1E+10	1	-1E+10	1	-1E+10	1	-1E+10	1
4901784	85	C	11/01/2017	10:47	-133.210	43.826	0	380.10	0	5.3400	0	34.0580	4	26.893	0	376.709	0	64.3	4	20.9	4	-1E+10	1	-1E+10	1	-1E+10	1	-1E+10	1	-1E+10	1	-1E+10	1
4901784	85	C	11/01/2017	10:47	-133.210	43.826	0	382.00	0	5.3370	0	34.0600	4	26.895	0	378.590	0	63.2	4	20.6	4	-1E+10	1	-1E+10	1	-1E+10	1	-1E+10	1	-1E+10	1	-1E+10	1
4901784	85	C	11/01/2017	10:47	-133.210	43.826	0	384.80	0	5.3570	0	34.0660	4	26.897	0	381.363	0	61.6	4	20.1	4	-1E+10	1	-1E+10	1	-1E+10	1	-1E+10	1	-1E+10	1	-1E+10	1
4901784	85	C	11/01/2017	10:47	-133.210	43.826	0	387.60	0	5.3710	0	34.0700	4	26.899	0	384.135	0	60.3	4	19.7	4	-1E+10	1	-1E+10	1	-1E+10	1	-1E+10	1	-1E+10	1	-1E+10	1
4901784	85	C	11/01/2017	10:47	-133.210	43.826	0	389.40	0	5.3460	0	34.0700	4	26.902	0	385.917	0	59.9	4	19.5	4	-1E+10	1	-1E+10	1	-1E+10	1	-1E+10	1	-1E+10	1	-1E+10	1
4901784	85	C	11/01/2017	10:47	-133.210	43.826	0	392.20	0	5.3010	0	34.0750	4	26.911	0	388.690	0	59.1	4	19.2	4	-1E+10	1	-1E+10	1	-1E+10	1	-1E+10	1	-1E+10	1	-1E+10	1
4901784	85	C	11/01/2017	10:47	-133.210	43.826	0	395.00	0	5.2870	0	34.0760	4	26.913	0	391.462	0	58.4	4	19.0	4	-1E+10	1	-1E+10	1	-1E+10	1	-1E+10	1	-1E+10	1	-1E+10	1
4901784	85	C	11/01/2017	10:47	-133.210	43.826	0	397.80	0	5.2640	0	34.0770	4	26.917	0	394.234	0	57.5	4	18.7	4	-1E+10	1	-1E+10	1	-1E+10	1	-1E+10	1	-1E+10	1	-1E+10	1
4901784	85	C	11/01/2017	10:47	-133.210	43.826	0	400.70	0	5.2340	0	34.0790	4	26.922	0	397.106	0	56.2	4	18.2	4	-1E+10	1	-1E+10	1	-1E+10	1	-1E+10	1	-1E+10	1	-1E+10	1
4901784	85	C	11/01/2017	10:47	-133.210	43.826	0	402.60	0	5.2280	0	34.0830	4	26.926	0	398.987	0	55.2	4	17.9	4	-1E+10	1	-1E+10	1	-1E+10	1	-1E+10	1	-1E+10	1	-1E+10	1
4901784	85	C	11/01/2017	10:47	-133.210	43.826	0	404.50	0	5.2160	0	34.0870	4	26.930	0	400.868	0	54.4	4	17.7	4	-1E+10	1	-1E+10	1	-1E+10	1	-1E+10	1	-1E+10	1	-1E+10	1
4901784	85	C	11/01/2017	10:47	-133.210	43.826	0	407.40	0	5.1960	0	34.0900	4	26.935	0	403.739	0	53.2	4	17.3	4	-1E+10	1	-1E+10	1	-1E+10	1	-1E+10	1	-1E+10	1	-1E+10	1
4901784	85	C	11/01/2017	10:47	-133.210	43.826	0	410.30	0	5.2030	0	34.0950	4	26.938	0	406.610	0	51.8	4	16.8	4	-1E+10	1	-1E+10	1	-1E+10	1	-1E+10	1	-1E+10	1	-1E+10	1
4901784	85	C	11/01/2017	10:47	-133.210	43.826	0	412.30	0	5.1940	0	34.0980	4	26.942	0	408.590	0	50.9	4	16.5	4	-1E+10	1	-1E+10	1	-1E+10	1	-1E+10	1	-1E+10	1	-1E+10	1
4901784	85	C	11/01/2017	10:47	-133.210	43.826	0	415.20	0	5.1930	0	34.0970	4	26.941	0	411.461	0	49.0	4	15.9	4	-1E+10	1	-1E+10	1	-1E+10	1	-1E+10	1	-1E+10	1	-1E+10	1
4901784	85	C	11/01/2017	10:47	-133.210	43.826	0	418.10	0	5.2730	0	34.1100	4	26.942	0	414.332	0	46.1	4	15.0	4	-1E+10	1	-1E+10	1	-1E+10	1	-1E+10	1	-1E+10	1	-1E+10	1
4901784	85	C	11/01/2017	10:47	-133.210	43.826	0	420.10	0	5.2470	0	34.1120	4	26.947	0	416.312	0	45.0	4	14.6	4	-1E+10	1	-1E+10	1	-1E+10	1	-1E+10	1	-1E+10	1	-1E+10	1
4901784	85	C	11/01/2017	10:47	-133.210	43.826	0	422.00	0	5.2910	0	34.1200	4	26.948	0	418.193	0	43.7	4	14.2	4	-1E+10	1	-1E+10	1	-1E+10	1	-1E+10	1	-1E+10	1	-1E+10	1
4901784	85	C	11/01/2017	10:47	-133.210	43.826	0	425.00	0	5.2870	0	34.1230	4	26.951	0	421.163	0	42.9	4	14.0	4	-1E+10	1	-1E+10	1	-1E+10	1	-1E+10	1	-1E+10	1	-1E+10	1
4901784	85	C	11/01/2017	10:47	-133.210	43.826	0	428.20	0	5.2900	0	34.1260	4	26.953	0	424.331	0	42.4	4	13.8	4	-1E+10	1	-1E+10	1	-1E+10	1	-1E+10	1	-1E+10	1	-1E+10	1
4901784	85	C	11/01/2017	10:47	-133.210	43.826	0	429.60	0	5.2630	0	34.1240	4	26.954	0	425.717	0	42.2	4	13.7	4	-1E+10	1	-1E+10	1	-1E+10	1	-1E+10	1	-1E+10	1	-1E+10	1
4901784	85	C	11/01/2017	10:47	-133.210	43.826	0	432.20	0	5.2220	0	34.1250	4	26.960	0	428.291	0	41.4	4	13.5	4	-1E+10	1	-1E+10	1	-1E+10	1	-1E+10	1	-1E+10	1	-1E+10	1
4901784	85	C	11/01/2017	10:47	-133.210	43.826	0	434.70	0	5.2270	0	34.1300	4	26.963	0	430.765	0	40.0	4	13.0	4	-1E+10	1	-1E+10	1	-1E+10	1	-1E+10	1	-1E+10	1	-1E+10	1
4901784	85	C	11/01/2017	10:47	-133.210	43.826	0	437.20	0	5.2390	0	34.1360	4	26.967	0	433.240	0	39.0	4	12.7	4	-1E+10	1	-1E+10	1	-1E+10	1	-1E+10	1	-1E+10	1	-1E+10	1
4901784	85	C	11/01/2017	10:47	-133.210	43.826	0	439.60	0	5.2580	0	34.1390	4	26.967	0	435.616	0	38.2	4	12.4	4	-1E+10	1	-1E+10	1	-1E+10	1	-1E+10	1	-1E+10	1	-1E+10	1
4901784	85	C	11/01/2017	10:47	-133.210	43.826	0	442.20	0	5.2240	0	34.1440	4	26.975	0	438.190	0	37.8	4	12.3	4	-1E+10	1	-1E+10	1	-1E+10	1	-1E+10	1	-1E+10	1	-1E+10	1
4901784	85	C	11/01/2017	10:47	-133.210	43.826	0	444.70	0	5.1880	0	34.1440	4	26.979	0	440.664	0	37.5	4	12.2	4	-1E+10	1	-1E+10	1	-1E+10	1	-1E+10	1	-1E+10	1	-1E+10	1
4901784	85	C	11/01/2017	10:47	-133.210	43.826	0	447.30	0	5.1910	0	34.1450	4	26.980	0	443.238	0	37.0	4	12.0	4	-1E+10	1	-1E+10	1	-1E+10	1	-1E+10	1	-1E+10	1	-1E+10	1
4901784	85	C	11/01/2017	10:47	-133.210	43.826	0	449.90	0	5.2010	0	34.1490	4	26.982	0	445.811	0	36.8	4	12.0	4	-1E+10	1	-1E+10	1	-1E+10	1	-1E+10	1	-1E+10	1	-1E+10	1
4901784	85	C	11/01/2017	10:47	-133.210	43.826	0	452.50	0	5.1770	0	34.1480	4	26.984	0	448.385	0	37.0	4	12.0	4	-1E+10	1	-1E+10	1	-1E+10	1	-1E+10	1	-1E+10	1	-1E+10	1
4901784	85	C	11/01/2017	10:47	-133.210	43.826	0	455.10	0	5.1550	0	34.1460	4	26.985	0	450.959	0	37.0	4	12.0	4	-1E+10	1	-1E+10	1	-1E+10	1	-1E+10	1	-1E+10	1	-1E+10	1
4901784	85	C	11/01/2017	10:47	-133.210	43.826	0	457.70	0	5.1090	0	34.1470	4	26.991	0	453.532	0	36.9	4	12.0	4	-1E+10	1	-1E+10	1	-1E+10	1	-1E+10	1	-1E+10	1	-1E+10	1
4901784	85	C	11/01/2017	10:47	-133.210	43.826	0	460.30	0	5.1030	0	34.1480	4	26.992	0	456.105	0	36.5	4	11.8	4	-1E+10	1	-1E+10	1	-1E+10	1	-1E+10	1	-1E+10	1	-1E+10	1
4901784	85	C	11/01/2017	10:47	-133.210	43.826	0	462.90	0	5.0700	0	34.1470	4	26.995	0	458.679	0	36.3	4	11.8	4	-1E+10	1	-1E+10	1	-1E+10	1	-1E+10	1	-1E+10	1	-1E+10	1
4901784	85	C	11/01/2017	10:47	-133.210	43.826	0	464.70	0	5.0480	0	34.1510	4	27.001	0	460.461	0	35.9	4	11.6	4	-1E+10	1	-1E+10	1	-1E+10	1	-1E+10	1	-1E+10	1	-1E+10	1
4901784	85	C	11/01/2017	10:47	-133.210	43.826	0	467.30	0	5.0450	0	34.1500	4	27.001	0	463.034	0	35.4	4	11.4	4	-1E+10	1	-1E+10	1	-1E+10	1	-1E+10	1	-1E+10	1	-1E+10	1
4901784	85	C	11/01/2017	10:47	-133.210	43.826	0	469.90	0	5.0730	0	34.1590	4	27.005	0	465.607	0	35.0	4	11.3	4	-1E+10	1	-1E+10	1	-1E+10	1	-1E+10	1	-1E+10	1	-1E+10	1
4901784	85	C	11/01/2017	10:47	-133.210	43.826	0	472.50	0	5.0170	0	34.1560	4	27.009	0	468.181	0	34.7	4	11.2	4	-1E+10	1	-1E+10	1	-1E+10	1	-1E+10	1	-1E+10	1	-1E+10	1
4901784	85	C	11/01/2017	10:47	-133.210	43.826	0	475.10	0	4.9840	0	34.1560	4	27.012	0	470.754	0	33.9	4	11.0	4	-1E+10	1	-1E+10	1	-1E+10	1	-1E+10	1	-1E+10	1	-1E+10	1
4901784	85	C	11/01/2017	10:47	-133.210	43.826	0	477.70	0	5.0370	0	34.1650	4	27.013	0	473.327	0	32.8	4	10.6	4	-1E+10	1	-1E+10	1	-1E+10	1	-1E+10	1	-1E+10	1	-1E+10	1
4901784	85	C	11/01/2017	10:47	-133.210	43.826	0	480.40	0	5.0390	0	34.1700	4	27.017	0	475.999	0	32.6	4	10.5	4	-1E+10	1	-1E+10	1	-1E+10	1	-1E+10	1	-1E+10	1	-1E+10	1
4901784	85	C	11/01/2017	10:47	-133.210	43.826	0	482.10	0	5.0020	0	34.1690	4	27.021	0	477.682	0	32.7	4	10.6	4	-1E+10	1	-1E+10	1	-1E+10	1	-1E+10	1	-1E+10	1	-1E+10	1
4901784	85	C	11/01/2017	10:47	-133.210	43.826	0	484.80	0	4.9670	0	34.1680	4	27.024	0	480.354	0	32.4	4	10.5	4	-1E+10	1	-1E+10	1	-1E+10	1	-1E+10	1	-1E+10	1	-1E+10	1
4901784	85	C	11/01/2017	10:47	-133.210	43.826	0	487.50	0	4.9480	0	34.1690	4	27.027	0	483.026	0	32.4	4	10.4	4	-1E+10	1	-1E+10	1	-1E+10	1	-1E+10	1	-1E+10	1	-1E+10	1
4901784	85	C	11/01/2017	10:47	-133.210	43.826	0	490.10	0	4.9450	0	34.1680	4	27.026	0	485.599	0	32.1	4	10.4	4	-1E+10	1	-1E+10	1	-1E+10	1	-1E+10	1	-1E+10	1	-1E+10	1
4901784	85	C	11/01/2017	10:47	-133.210	43.826	0	492.80	0	4.9430	0	34.1680	4	27.027	0	488.271	0	31.6	4	10.2	4	-1E+10	1	-1E+10	1	-1E+10	1	-1E+10	1	-1E+10	1	-1E+10	1
4901784	85	C	11/01/2017	10:47	-133.210	43.826	0	494.60	0	4.9390	0	34.1720	4	27.030	0	490.052	0	31.3	4	10.1	4	-1E+10	1	-1E+10	1	-1E+10	1	-1E+10	1	-1E+10	1	-1E+10	1
4901784	85	C	11/01/2017	10:47	-133.210	43.826	0	497.30	0	4.9400	0	34.1730	4	27.031	0	492.724	0	30.7	4	9.9	4	-1E+10	1	-1E+10	1	-1E+10	1	-1E+10	1	-1E+10	1	-1E+10	1
4901784	85	C	11/01/2017	10:47	-133.210	43.826	0	500.00	0	4.9470	0	34.1760	4	27.033	0	495.396	0	30.2	4	9.8	4	-1E+10	1	-1E+10	1	-1E+10	1	-1E+10	1	-1E+10	1	-1E+10	1
4901784	85	C	11/01/2017	10:47	-133.210	43.826	0	505.40	0	4.8790	0	34.1810	4	27.044	0	500.740	0	29.9	4	9.6	4	-1E+10	1	-1E+10	1	-1E+10	1	-1E+10	1	-1E+10	1	-1E+10	1
4901784	85	C	11/01/2017	10:47	-133.210	43.826	0	510.00	0	4.8410	0	34.1830	4	27.050	0	505.292	0	29.6	4	9.5	4	-1E+10	1	-1E+10	1	-1E+10	1	-1E+10	1	-1E+10	1	-1E+10	1
4901784	85	C	11/01/2017	10:47	-133.210	43.826	0	514.50	0	4.8120	0	34.1840	4	27.054	0	509.745	0	29.4	4	9.5	4	-1E+10	1	-1E+10	1	-1E+10	1	-1E+10	1	-1E+10	1	-1E+10	1
4901784	85	C	11/01/2017	10:47	-133.210	43.826	0	520.00	0	4.7920	0	34.1850	4	27.057	0	515.187	0	29.0	4	9.3	4	-1E+10	1	-1E+10	1	-1E+10	1	-1E+10	1	-1E+10	1	-1E+10	1
4901784	85	C	11/01/2017	10:47	-133.210	43.826	0	525.50	0	4.7810	0	34.1890	4	27.062	0	520.630	0	28.4	4	9.1	4	-1E+10	1	-1E+10	1	-1E+10	1	-1E+10	1	-1E+10	1	-1E+10	1
4901784	85	C	11/01/2017	10:47	-133.210	43.826	0	530.20	0	4.7790	0	34.1920	4	27.064	0	525.280	0	28.0	4	9.0	4	-1E+10	1	-1E+10	1	-1E+10	1	-1E+10	1	-1E+10	1	-1E+10	1
4901784	85	C	11/01/2017	10:47	-133.210	43.826	0	534.80	0	4.7340	0	34.1910	4	27.069	0	529.832	0	27.7	4	8.9	4	-1E+10	1	-1E+10	1	-1E+10	1	-1E+10	1	-1E+10	1	-1E+10	1
4901784	85	C	11/01/2017	10:47	-133.210	43.826	0	540.30	0	4.7120	0	34.1960	4	27.075	0	535.273	0	27.1	4	8.7	4	-1E+10	1	-1E+10	1	-1E+10	1	-1E+10	1	-1E+10	1	-1E+10	1
4901784	85	C	11/01/2017	10:47	-133.210	43.826	0	545.00	0	4.6730	0	34.1970	4	27.080	0	539.924	0	27.1	4	8.7	4	-1E+10	1	-1E+10	1	-1E+10	1	-1E+10	1	-1E+10	1	-1E+10	1
4901784	85	C	11/01/2017	10:47	-133.210	43.826	0	549.70	0	4.6680	0	34.1970	4	27.081	0	544.574	0	26.7	4	8.6	4	-1E+10	1	-1E+10	1	-1E+10	1	-1E+10	1	-1E+10	1	-1E+10	1
4901784	85	C	11/01/2017	10:47	-133.210	43.826	0	555.20	0	4.6080	0	34.1990	4	27.089	0	550.015	0	26.2	4	8.4	4	-1E+10	1	-1E+10	1	-1E+10	1	-1E+10	1	-1E+10	1	-1E+10	1
4901784	85	C	11/01/2017	10:47	-133.210	43.826	0	560.00	0	4.5860	0	34.2020	4	27.094	0	554.764	0	25.3	4	8.1	4	-1E+10	1	-1E+10	1	-1E+10	1	-1E+10	1	-1E+10	1	-1E+10	1
4901784	85	C	11/01/2017	10:47	-133.210	43.826	0	564.70	0	4.5330	0	34.2050	4	27.102	0	559.414	0	24.5	4	7.8	4	-1E+10	1	-1E+10	1	-1E+10	1	-1E+10	1	-1E+10	1	-1E+10	1
4901784	85	C	11/01/2017	10:47	-133.210	43.826	0	570.30	0	4.5160	0	34.2100	4	27.108	0	564.954	0	23.7	4	7.6	4	-1E+10	1	-1E+10	1	-1E+10	1	-1E+10	1	-1E+10	1	-1E+10	1
4901784	85	C	11/01/2017	10:47	-133.210	43.826	0	575.70	0	4.5090	0	34.2160	4	27.113	0	570.296	0	23.0	4	7.3	4	-1E+10	1	-1E+10	1	-1E+10	1	-1E+10	1	-1E+10	1	-1E+10	1
4901784	85	C	11/01/2017	10:47	-133.210	43.826	0	580.50	0	4.4960	0	34.2220	4	27.120	0	575.044	0	22.4	4	7.2	4	-1E+10	1	-1E+10	1	-1E+10	1	-1E+10	1	-1E+10	1	-1E+10	1
4901784	85	C	11/01/2017	10:47	-133.210	43.826	0	585.30	0	4.4800	0	34.2240	4	27.123	0	579.792	0	22.0	4	7.0	4	-1E+10	1	-1E+10	1	-1E+10	1	-1E+10	1	-1E+10	1	-1E+10	1
4901784	85	C	11/01/2017	10:47	-133.210	43.826	0	590.20	0	4.4640	0	34.2290	4	27.129	0	584.639	0	21.7	4	6.9	4	-1E+10	1	-1E+10	1	-1E+10	1	-1E+10	1	-1E+10	1	-1E+10	1
4901784	85	C	11/01/2017	10:47	-133.210	43.826	0	595.10	0	4.4540	0	34.2290	4	27.130	0	589.486	0	21.5	4	6.9	4	-1E+10	1	-1E+10	1	-1E+10	1	-1E+10	1	-1E+10	1	-1E+10	1
4901784	85	C	11/01/2017	10:47	-133.210	43.826	0	600.00	0	4.4400	0	34.2300	4	27.132	0	594.333	0	21.2	4	6.8	4	-1E+10	1	-1E+10	1	-1E+10	1	-1E+10	1	-1E+10	1	-1E+10	1
4901784	85	C	11/01/2017	10:47	-133.210	43.826	0	604.80	0	4.4080	0	34.2340	4	27.139	0	599.081	0	20.8	4	6.6	4	-1E+10	1	-1E+10	1	-1E+10	1	-1E+10	1	-1E+10	1	-1E+10	1
4901784	85	C	11/01/2017	10:47	-133.210	43.826	0	609.70	0	4.3860	0	34.2390	4	27.145	0	603.927	0	20.5	4	6.6	4	-1E+10	1	-1E+10	1	-1E+10	1	-1E+10	1	-1E+10	1	-1E+10	1
4901784	85	C	11/01/2017	10:47	-133.210	43.826	0	614.70	0	4.3780	0	34.2420	4	27.148	0	608.872	0	20.2	4	6.4	4	-1E+10	1	-1E+10	1	-1E+10	1	-1E+10	1	-1E+10	1	-1E+10	1
4901784	85	C	11/01/2017	10:47	-133.210	43.826	0	619.60	0	4.3620	0	34.2460	4	27.153	0	613.719	0	19.8	4	6.3	4	-1E+10	1	-1E+10	1	-1E+10	1	-1E+10	1	-1E+10	1	-1E+10	1
4901784	85	C	11/01/2017	10:47	-133.210	43.826	0	624.50	0	4.3540	0	34.2460	4	27.154	0	618.565	0	19.4	4	6.2	4	-1E+10	1	-1E+10	1	-1E+10	1	-1E+10	1	-1E+10	1	-1E+10	1
4901784	85	C	11/01/2017	10:47	-133.210	43.826	0	629.60	0	4.3140	0	34.2500	4	27.162	0	623.609	0	18.9	4	6.0	4	-1E+10	1	-1E+10	1	-1E+10	1	-1E+10	1	-1E+10	1	-1E+10	1
4901784	85	C	11/01/2017	10:47	-133.210	43.826	0	634.70	0	4.2740	0	34.2530	4	27.168	0	628.653	0	18.5	4	5.9	4	-1E+10	1	-1E+10	1	-1E+10	1	-1E+10	1	-1E+10	1	-1E+10	1
4901784	85	C	11/01/2017	10:47	-133.210	43.826	0	639.80	0	4.2400	0	34.2580	4	27.176	0	633.696	0	18.2	4	5.8	4	-1E+10	1	-1E+10	1	-1E+10	1	-1E+10	1	-1E+10	1	-1E+10	1
4901784	85	C	11/01/2017	10:47	-133.210	43.826	0	644.80	0	4.2210	0	34.2620	4	27.181	0	638.641	0	17.8	4	5.7	4	-1E+10	1	-1E+10	1	-1E+10	1	-1E+10	1	-1E+10	1	-1E+10	1
4901784	85	C	11/01/2017	10:47	-133.210	43.826	0	649.80	0	4.2060	0	34.2640	4	27.184	0	643.585	0	17.4	4	5.5	4	-1E+10	1	-1E+10	1	-1E+10	1	-1E+10	1	-1E+10	1	-1E+10	1
4901784	85	C	11/01/2017	10:47	-133.210	43.826	0	654.90	0	4.1830	0	34.2700	4	27.192	0	648.629	0	17.0	4	5.4	4	-1E+10	1	-1E+10	1	-1E+10	1	-1E+10	1	-1E+10	1	-1E+10	1
4901784	85	C	11/01/2017	10:47	-133.210	43.826	0	660.10	0	4.1590	0	34.2750	4	27.198	0	653.771	0	16.6	4	5.3	4	-1E+10	1	-1E+10	1	-1E+10	1	-1E+10	1	-1E+10	1	-1E+10	1
4901784	85	C	11/01/2017	10:47	-133.210	43.826	0	665.30	0	4.1510	0	34.2810	4	27.204	0	658.913	0	16.2	4	5.1	4	-1E+10	1	-1E+10	1	-1E+10	1	-1E+10	1	-1E+10	1	-1E+10	1
4901784	85	C	11/01/2017	10:47	-133.210	43.826	0	670.60	0	4.1290	0	34.2840	4	27.208	0	664.153	0	15.7	4	5.0	4	-1E+10	1	-1E+10	1	-1E+10	1	-1E+10	1	-1E+10	1	-1E+10	1
4901784	85	C	11/01/2017	10:47	-133.210	43.826	0	675.00	0	4.1120	0	34.2910	4	27.216	0	668.504	0	15.4	4	4.9	4	-1E+10	1	-1E+10	1	-1E+10	1	-1E+10	1	-1E+10	1	-1E+10	1
4901784	85	C	11/01/2017	10:47	-133.210	43.826	0	679.50	0	4.1030	0	34.2930	4	27.218	0	672.954	0	15.1	4	4.8	4	-1E+10	1	-1E+10	1	-1E+10	1	-1E+10	1	-1E+10	1	-1E+10	1
4901784	85	C	11/01/2017	10:47	-133.210	43.826	0	684.90	0	4.0730	0	34.2960	4	27.224	0	678.293	0	14.9	4	4.7	4	-1E+10	1	-1E+10	1	-1E+10	1	-1E+10	1	-1E+10	1	-1E+10	1
4901784	85	C	11/01/2017	10:47	-133.210	43.826	0	690.30	0	4.0490	0	34.3000	4	27.230	0	683.632	0	14.8	4	4.7	4	-1E+10	1	-1E+10	1	-1E+10	1	-1E+10	1	-1E+10	1	-1E+10	1
4901784	85	C	11/01/2017	10:47	-133.210	43.826	0	695.60	0	4.0290	0	34.3020	4	27.233	0	688.872	0	14.7	4	4.7	4	-1E+10	1	-1E+10	1	-1E+10	1	-1E+10	1	-1E+10	1	-1E+10	1
4901784	85	C	11/01/2017	10:47	-133.210	43.826	0	700.20	0	4.0260	0	34.3040	4	27.235	0	693.420	0	14.5	4	4.6	4	-1E+10	1	-1E+10	1	-1E+10	1	-1E+10	1	-1E+10	1	-1E+10	1
4901784	85	C	11/01/2017	10:47	-133.210	43.826	0	704.70	0	4.0350	0	34.3080	4	27.237	0	697.869	0	14.3	4	4.5	4	-1E+10	1	-1E+10	1	-1E+10	1	-1E+10	1	-1E+10	1	-1E+10	1
4901784	85	C	11/01/2017	10:47	-133.210	43.826	0	710.20	0	4.0320	0	34.3120	4	27.241	0	703.306	0	14.1	4	4.5	4	-1E+10	1	-1E+10	1	-1E+10	1	-1E+10	1	-1E+10	1	-1E+10	1
4901784	85	C	11/01/2017	10:47	-133.210	43.826	0	714.90	0	3.9920	0	34.3130	4	27.246	0	707.952	0	14.0	4	4.4	4	-1E+10	1	-1E+10	1	-1E+10	1	-1E+10	1	-1E+10	1	-1E+10	1
4901784	85	C	11/01/2017	10:47	-133.210	43.826	0	719.40	0	3.9940	0	34.3160	4	27.248	0	712.401	0	13.7	4	4.3	4	-1E+10	1	-1E+10	1	-1E+10	1	-1E+10	1	-1E+10	1	-1E+10	1
4901784	85	C	11/01/2017	10:47	-133.210	43.826	0	725.00	0	3.9680	0	34.3210	4	27.255	0	717.937	0	13.6	4	4.3	4	-1E+10	1	-1E+10	1	-1E+10	1	-1E+10	1	-1E+10	1	-1E+10	1
4901784	85	C	11/01/2017	10:47	-133.210	43.826	0	730.50	0	3.9490	0	34.3230	4	27.258	0	723.374	0	13.4	4	4.2	4	-1E+10	1	-1E+10	1	-1E+10	1	-1E+10	1	-1E+10	1	-1E+10	1
4901784	85	C	11/01/2017	10:47	-133.210	43.826	0	735.10	0	3.9390	0	34.3260	4	27.262	0	727.921	0	13.3	4	4.2	4	-1E+10	1	-1E+10	1	-1E+10	1	-1E+10	1	-1E+10	1	-1E+10	1
4901784	85	C	11/01/2017	10:47	-133.210	43.826	0	739.70	0	3.9270	0	34.3300	4	27.266	0	732.468	0	13.1	4	4.1	4	-1E+10	1	-1E+10	1	-1E+10	1	-1E+10	1	-1E+10	1	-1E+10	1
4901784	85	C	11/01/2017	10:47	-133.210	43.826	0	745.30	0	3.9070	0	34.3340	4	27.272	0	738.003	0	12.9	4	4.1	4	-1E+10	1	-1E+10	1	-1E+10	1	-1E+10	1	-1E+10	1	-1E+10	1
4901784	85	C	11/01/2017	10:47	-133.210	43.826	0	750.00	0	3.8940	0	34.3400	4	27.278	0	742.649	0	12.7	4	4.0	4	-1E+10	1	-1E+10	1	-1E+10	1	-1E+10	1	-1E+10	1	-1E+10	1
4901784	85	C	11/01/2017	10:47	-133.210	43.826	0	755.40	0	3.8860	0	34.3410	4	27.279	0	747.986	0	12.6	4	4.0	4	-1E+10	1	-1E+10	1	-1E+10	1	-1E+10	1	-1E+10	1	-1E+10	1
4901784	85	C	11/01/2017	10:47	-133.210	43.826	0	760.60	0	3.8740	0	34.3450	4	27.284	0	753.126	0	12.4	4	3.9	4	-1E+10	1	-1E+10	1	-1E+10	1	-1E+10	1	-1E+10	1	-1E+10	1
4901784	85	C	11/01/2017	10:47	-133.210	43.826	0	765.40	0	3.8630	0	34.3510	4	27.290	0	757.870	0	12.3	4	3.9	4	-1E+10	1	-1E+10	1	-1E+10	1	-1E+10	1	-1E+10	1	-1E+10	1
4901784	85	C	11/01/2017	10:47	-133.210	43.826	0	770.10	0	3.8520	0	34.3530	4	27.292	0	762.515	0	12.2	4	3.8	4	-1E+10	1	-1E+10	1	-1E+10	1	-1E+10	1	-1E+10	1	-1E+10	1
4901784	85	C	11/01/2017	10:47	-133.210	43.826	0	775.00	0	3.8390	0	34.3570	4	27.297	0	767.358	0	12.1	4	3.8	4	-1E+10	1	-1E+10	1	-1E+10	1	-1E+10	1	-1E+10	1	-1E+10	1
4901784	85	C	11/01/2017	10:47	-133.210	43.826	0	779.90	0	3.8350	0	34.3590	4	27.299	0	772.201	0	12.0	4	3.8	4	-1E+10	1	-1E+10	1	-1E+10	1	-1E+10	1	-1E+10	1	-1E+10	1
4901784	85	C	11/01/2017	10:47	-133.210	43.826	0	784.80	0	3.8260	0	34.3610	4	27.301	0	777.043	0	11.9	4	3.8	4	-1E+10	1	-1E+10	1	-1E+10	1	-1E+10	1	-1E+10	1	-1E+10	1
4901784	85	C	11/01/2017	10:47	-133.210	43.826	0	789.80	0	3.8100	0	34.3660	4	27.307	0	781.984	0	11.7	4	3.7	4	-1E+10	1	-1E+10	1	-1E+10	1	-1E+10	1	-1E+10	1	-1E+10	1
4901784	85	C	11/01/2017	10:47	-133.210	43.826	0	794.80	0	3.8160	0	34.3710	4	27.310	0	786.925	0	11.5	4	3.6	4	-1E+10	1	-1E+10	1	-1E+10	1	-1E+10	1	-1E+10	1	-1E+10	1
4901784	85	C	11/01/2017	10:47	-133.210	43.826	0	799.70	0	3.8190	0	34.3760	4	27.314	0	791.767	0	11.4	4	3.6	4	-1E+10	1	-1E+10	1	-1E+10	1	-1E+10	1	-1E+10	1	-1E+10	1
4901784	85	C	11/01/2017	10:47	-133.210	43.826	0	804.80	0	3.8010	0	34.3790	4	27.318	0	796.807	0	11.4	4	3.6	4	-1E+10	1	-1E+10	1	-1E+10	1	-1E+10	1	-1E+10	1	-1E+10	1
4901784	85	C	11/01/2017	10:47	-133.210	43.826	0	810.00	0	3.7820	0	34.3800	4	27.321	0	801.946	0	11.3	4	3.6	4	-1E+10	1	-1E+10	1	-1E+10	1	-1E+10	1	-1E+10	1	-1E+10	1
4901784	85	C	11/01/2017	10:47	-133.210	43.826	0	815.40	0	3.7540	0	34.3860	4	27.329	0	807.281	0	11.3	4	3.5	4	-1E+10	1	-1E+10	1	-1E+10	1	-1E+10	1	-1E+10	1	-1E+10	1
4901784	85	C	11/01/2017	10:47	-133.210	43.826	0	820.70	0	3.7340	0	34.3900	4	27.334	0	812.518	0	11.2	4	3.5	4	-1E+10	1	-1E+10	1	-1E+10	1	-1E+10	1	-1E+10	1	-1E+10	1
4901784	85	C	11/01/2017	10:47	-133.210	43.826	0	825.20	0	3.7200	0	34.3950	4	27.339	0	816.965	0	11.1	4	3.5	4	-1E+10	1	-1E+10	1	-1E+10	1	-1E+10	1	-1E+10	1	-1E+10	1
4901784	85	C	11/01/2017	10:47	-133.210	43.826	0	829.80	0	3.7210	0	34.3980	4	27.342	0	821.510	0	11.0	4	3.5	4	-1E+10	1	-1E+10	1	-1E+10	1	-1E+10	1	-1E+10	1	-1E+10	1
4901784	85	C	11/01/2017	10:47	-133.210	43.826	0	835.20	0	3.7210	0	34.4020	4	27.345	0	826.845	0	11.0	4	3.4	4	-1E+10	1	-1E+10	1	-1E+10	1	-1E+10	1	-1E+10	1	-1E+10	1
4901784	85	C	11/01/2017	10:47	-133.210	43.826	0	840.50	0	3.7130	0	34.4050	4	27.348	0	832.082	0	11.0	4	3.4	4	-1E+10	1	-1E+10	1	-1E+10	1	-1E+10	1	-1E+10	1	-1E+10	1
4901784	85	C	11/01/2017	10:47	-133.210	43.826	0	845.00	0	3.6890	0	34.4050	4	27.351	0	836.527	0	11.0	4	3.5	4	-1E+10	1	-1E+10	1	-1E+10	1	-1E+10	1	-1E+10	1	-1E+10	1
4901784	85	C	11/01/2017	10:47	-133.210	43.826	0	849.60	0	3.6690	0	34.4060	4	27.353	0	841.072	0	11.1	4	3.5	4	-1E+10	1	-1E+10	1	-1E+10	1	-1E+10	1	-1E+10	1	-1E+10	1
4901784	85	C	11/01/2017	10:47	-133.210	43.826	0	855.00	0	3.6400	0	34.4090	4	27.359	0	846.407	0	11.1	4	3.5	4	-1E+10	1	-1E+10	1	-1E+10	1	-1E+10	1	-1E+10	1	-1E+10	1
4901784	85	C	11/01/2017	10:47	-133.210	43.826	0	860.20	0	3.6290	0	34.4110	4	27.361	0	851.544	0	11.1	4	3.5	4	-1E+10	1	-1E+10	1	-1E+10	1	-1E+10	1	-1E+10	1	-1E+10	1
4901784	85	C	11/01/2017	10:47	-133.210	43.826	0	865.10	0	3.6160	0	34.4140	4	27.365	0	856.385	0	11.0	4	3.5	4	-1E+10	1	-1E+10	1	-1E+10	1	-1E+10	1	-1E+10	1	-1E+10	1
4901784	85	C	11/01/2017	10:47	-133.210	43.826	0	870.60	0	3.6040	0	34.4170	4	27.369	0	861.818	0	11.0	4	3.4	4	-1E+10	1	-1E+10	1	-1E+10	1	-1E+10	1	-1E+10	1	-1E+10	1
4901784	85	C	11/01/2017	10:47	-133.210	43.826	0	875.50	0	3.5920	0	34.4200	4	27.372	0	866.658	0	10.9	4	3.4	4	-1E+10	1	-1E+10	1	-1E+10	1	-1E+10	1	-1E+10	1	-1E+10	1
4901784	85	C	11/01/2017	10:47	-133.210	43.826	0	880.20	0	3.5750	0	34.4250	4	27.378	0	871.301	0	10.9	4	3.4	4	-1E+10	1	-1E+10	1	-1E+10	1	-1E+10	1	-1E+10	1	-1E+10	1
4901784	85	C	11/01/2017	10:47	-133.210	43.826	0	885.20	0	3.5640	0	34.4300	4	27.383	0	876.240	0	10.9	4	3.4	4	-1E+10	1	-1E+10	1	-1E+10	1	-1E+10	1	-1E+10	1	-1E+10	1
4901784	85	C	11/01/2017	10:47	-133.210	43.826	0	890.10	0	3.5550	0	34.4320	4	27.385	0	881.080	0	11.0	4	3.4	4	-1E+10	1	-1E+10	1	-1E+10	1	-1E+10	1	-1E+10	1	-1E+10	1
4901784	85	C	11/01/2017	10:47	-133.210	43.826	0	895.10	0	3.5470	0	34.4320	4	27.386	0	886.019	0	11.0	4	3.5	4	-1E+10	1	-1E+10	1	-1E+10	1	-1E+10	1	-1E+10	1	-1E+10	1
4901784	85	C	11/01/2017	10:47	-133.210	43.826	0	900.20	0	3.5370	0	34.4340	4	27.389	0	891.056	0	11.1	4	3.5	4	-1E+10	1	-1E+10	1	-1E+10	1	-1E+10	1	-1E+10	1	-1E+10	1
4901784	85	C	11/01/2017	10:47	-133.210	43.826	0	905.20	0	3.5260	0	34.4360	4	27.392	0	895.995	0	11.2	4	3.5	4	-1E+10	1	-1E+10	1	-1E+10	1	-1E+10	1	-1E+10	1	-1E+10	1
4901784	85	C	11/01/2017	10:47	-133.210	43.826	0	910.20	0	3.5170	0	34.4400	4	27.396	0	900.933	0	11.2	4	3.5	4	-1E+10	1	-1E+10	1	-1E+10	1	-1E+10	1	-1E+10	1	-1E+10	1
4901784	85	C	11/01/2017	10:47	-133.210	43.826	0	915.20	0	3.5090	0	34.4410	4	27.397	0	905.872	0	11.2	4	3.5	4	-1E+10	1	-1E+10	1	-1E+10	1	-1E+10	1	-1E+10	1	-1E+10	1
4901784	85	C	11/01/2017	10:47	-133.210	43.826	0	920.30	0	3.5010	0	34.4420	4	27.399	0	910.909	0	11.2	4	3.5	4	-1E+10	1	-1E+10	1	-1E+10	1	-1E+10	1	-1E+10	1	-1E+10	1
4901784	85	C	11/01/2017	10:47	-133.210	43.826	0	925.50	0	3.4900	0	34.4460	4	27.403	0	916.044	0	11.3	4	3.5	4	-1E+10	1	-1E+10	1	-1E+10	1	-1E+10	1	-1E+10	1	-1E+10	1
4901784	85	C	11/01/2017	10:47	-133.210	43.826	0	930.70	0	3.4850	0	34.4470	4	27.404	0	921.180	0	11.3	4	3.5	4	-1E+10	1	-1E+10	1	-1E+10	1	-1E+10	1	-1E+10	1	-1E+10	1
4901784	85	C	11/01/2017	10:47	-133.210	43.826	0	935.10	0	3.4810	0	34.4490	4	27.406	0	925.525	0	11.3	4	3.5	4	-1E+10	1	-1E+10	1	-1E+10	1	-1E+10	1	-1E+10	1	-1E+10	1
4901784	85	C	11/01/2017	10:47	-133.210	43.826	0	939.50	0	3.4740	0	34.4510	4	27.409	0	929.870	0	11.4	4	3.6	4	-1E+10	1	-1E+10	1	-1E+10	1	-1E+10	1	-1E+10	1	-1E+10	1
4901784	85	C	11/01/2017	10:47	-133.210	43.826	0	944.80	0	3.4640	0	34.4540	4	27.412	0	935.104	0	11.4	4	3.6	4	-1E+10	1	-1E+10	1	-1E+10	1	-1E+10	1	-1E+10	1	-1E+10	1
4901784	85	C	11/01/2017	10:47	-133.210	43.826	0	950.20	0	3.4530	0	34.4560	4	27.415	0	940.436	0	11.5	4	3.6	4	-1E+10	1	-1E+10	1	-1E+10	1	-1E+10	1	-1E+10	1	-1E+10	1
4901784	85	C	11/01/2017	10:47	-133.210	43.826	0	955.60	0	3.4380	0	34.4600	4	27.419	0	945.769	0	11.6	4	3.6	4	-1E+10	1	-1E+10	1	-1E+10	1	-1E+10	1	-1E+10	1	-1E+10	1
4901784	85	C	11/01/2017	10:47	-133.210	43.826	0	960.20	0	3.4280	0	34.4620	4	27.422	0	950.311	0	11.7	4	3.6	4	-1E+10	1	-1E+10	1	-1E+10	1	-1E+10	1	-1E+10	1	-1E+10	1
4901784	85	C	11/01/2017	10:47	-133.210	43.826	0	964.80	0	3.4230	0	34.4630	4	27.423	0	954.853	0	11.7	4	3.7	4	-1E+10	1	-1E+10	1	-1E+10	1	-1E+10	1	-1E+10	1	-1E+10	1
4901784	85	C	11/01/2017	10:47	-133.210	43.826	0	970.40	0	3.4140	0	34.4640	4	27.425	0	960.382	0	11.8	4	3.7	4	-1E+10	1	-1E+10	1	-1E+10	1	-1E+10	1	-1E+10	1	-1E+10	1
4901784	85	C	11/01/2017	10:47	-133.210	43.826	0	975.10	0	3.4070	0	34.4680	4	27.429	0	965.023	0	11.8	4	3.7	4	-1E+10	1	-1E+10	1	-1E+10	1	-1E+10	1	-1E+10	1	-1E+10	1
4901784	85	C	11/01/2017	10:47	-133.210	43.826	0	979.80	0	3.4000	0	34.4690	4	27.430	0	969.664	0	11.8	4	3.7	4	-1E+10	1	-1E+10	1	-1E+10	1	-1E+10	1	-1E+10	1	-1E+10	1
4901784	85	C	11/01/2017	10:47	-133.210	43.826	0	985.50	0	3.3920	0	34.4700	4	27.432	0	975.291	0	11.8	4	3.7	4	-1E+10	1	-1E+10	1	-1E+10	1	-1E+10	1	-1E+10	1	-1E+10	1
4901784	85	C	11/01/2017	10:47	-133.210	43.826	0	990.20	0	3.3840	0	34.4710	4	27.434	0	979.932	0	11.9	4	3.7	4	-1E+10	1	-1E+10	1	-1E+10	1	-1E+10	1	-1E+10	1	-1E+10	1
4901784	85	C	11/01/2017	10:47	-133.210	43.826	0	995.60	0	3.3740	0	34.4730	4	27.436	0	985.263	0	12.0	4	3.7	4	-1E+10	1	-1E+10	1	-1E+10	1	-1E+10	1	-1E+10	1	-1E+10	1
4901784	85	C	11/01/2017	10:47	-133.210	43.826	0	1000.60	0	3.3680	0	34.4750	4	27.438	0	990.199	0	12.0	4	3.7	4	-1E+10	1	-1E+10	1	-1E+10	1	-1E+10	1	-1E+10	1	-1E+10	1
4901784	85	C	11/01/2017	10:47	-133.210	43.826	0	1005.40	0	3.3630	0	34.4760	4	27.440	0	994.938	0	12.1	4	3.8	4	-1E+10	1	-1E+10	1	-1E+10	1	-1E+10	1	-1E+10	1	-1E+10	1
4901784	85	C	11/01/2017	10:47	-133.210	43.826	0	1010.20	0	3.3520	0	34.4800	4	27.444	0	999.677	0	12.2	4	3.8	4	-1E+10	1	-1E+10	1	-1E+10	1	-1E+10	1	-1E+10	1	-1E+10	1
4901784	85	C	11/01/2017	10:47	-133.210	43.826	0	1014.90	0	3.3490	0	34.4820	4	27.446	0	1004.316	0	12.3	4	3.8	4	-1E+10	1	-1E+10	1	-1E+10	1	-1E+10	1	-1E+10	1	-1E+10	1
4901784	85	C	11/01/2017	10:47	-133.210	43.826	0	1019.80	0	3.3420	0	34.4840	4	27.448	0	1009.154	0	12.4	4	3.9	4	-1E+10	1	-1E+10	1	-1E+10	1	-1E+10	1	-1E+10	1	-1E+10	1
4901784	85	C	11/01/2017	10:47	-133.210	43.826	0	1024.70	0	3.3350	0	34.4840	4	27.449	0	1013.991	0	12.4	4	3.9	4	-1E+10	1	-1E+10	1	-1E+10	1	-1E+10	1	-1E+10	1	-1E+10	1
4901784	85	C	11/01/2017	10:47	-133.210	43.826	0	1029.60	0	3.3250	0	34.4850	4	27.451	0	1018.827	0	12.5	4	3.9	4	-1E+10	1	-1E+10	1	-1E+10	1	-1E+10	1	-1E+10	1	-1E+10	1
4901784	85	C	11/01/2017	10:47	-133.210	43.826	0	1034.50	0	3.3140	0	34.4870	4	27.453	0	1023.664	0	12.6	4	3.9	4	-1E+10	1	-1E+10	1	-1E+10	1	-1E+10	1	-1E+10	1	-1E+10	1
4901784	85	C	11/01/2017	10:47	-133.210	43.826	0	1039.50	0	3.3050	0	34.4890	4	27.456	0	1028.600	0	12.7	4	4.0	4	-1E+10	1	-1E+10	1	-1E+10	1	-1E+10	1	-1E+10	1	-1E+10	1
4901784	85	C	11/01/2017	10:47	-133.210	43.826	0	1044.40	0	3.2970	0	34.4910	4	27.458	0	1033.436	0	12.8	4	4.0	4	-1E+10	1	-1E+10	1	-1E+10	1	-1E+10	1	-1E+10	1	-1E+10	1
4901784	85	C	11/01/2017	10:47	-133.210	43.826	0	1049.40	0	3.2880	0	34.4920	4	27.460	0	1038.371	0	12.9	4	4.0	4	-1E+10	1	-1E+10	1	-1E+10	1	-1E+10	1	-1E+10	1	-1E+10	1
4901784	85	C	11/01/2017	10:47	-133.210	43.826	0	1054.50	0	3.2770	0	34.4940	4	27.462	0	1043.405	0	13.0	4	4.0	4	-1E+10	1	-1E+10	1	-1E+10	1	-1E+10	1	-1E+10	1	-1E+10	1
4901784	85	C	11/01/2017	10:47	-133.210	43.826	0	1059.60	0	3.2720	0	34.4970	4	27.465	0	1048.439	0	13.1	4	4.1	4	-1E+10	1	-1E+10	1	-1E+10	1	-1E+10	1	-1E+10	1	-1E+10	1
4901784	85	C	11/01/2017	10:47	-133.210	43.826	0	1064.70	0	3.2640	0	34.4990	4	27.468	0	1053.472	0	13.2	4	4.1	4	-1E+10	1	-1E+10	1	-1E+10	1	-1E+10	1	-1E+10	1	-1E+10	1
4901784	85	C	11/01/2017	10:47	-133.210	43.826	0	1069.70	0	3.2550	0	34.5010	4	27.470	0	1058.407	0	13.2	4	4.1	4	-1E+10	1	-1E+10	1	-1E+10	1	-1E+10	1	-1E+10	1	-1E+10	1
4901784	85	C	11/01/2017	10:47	-133.210	43.826	0	1074.80	0	3.2510	0	34.5000	4	27.470	0	1063.440	0	13.3	4	4.1	4	-1E+10	1	-1E+10	1	-1E+10	1	-1E+10	1	-1E+10	1	-1E+10	1
4901784	85	C	11/01/2017	10:47	-133.210	43.826	0	1079.90	0	3.2420	0	34.5030	4	27.473	0	1068.473	0	13.4	4	4.2	4	-1E+10	1	-1E+10	1	-1E+10	1	-1E+10	1	-1E+10	1	-1E+10	1
4901784	85	C	11/01/2017	10:47	-133.210	43.826	0	1085.00	0	3.2250	0	34.5060	4	27.477	0	1073.506	0	13.5	4	4.2	4	-1E+10	1	-1E+10	1	-1E+10	1	-1E+10	1	-1E+10	1	-1E+10	1
4901784	85	C	11/01/2017	10:47	-133.210	43.826	0	1090.20	0	3.2160	0	34.5070	4	27.479	0	1078.638	0	13.7	4	4.3	4	-1E+10	1	-1E+10	1	-1E+10	1	-1E+10	1	-1E+10	1	-1E+10	1
4901784	85	C	11/01/2017	10:47	-133.210	43.826	0	1095.30	0	3.2130	0	34.5090	4	27.481	0	1083.670	0	14.0	4	4.3	4	-1E+10	1	-1E+10	1	-1E+10	1	-1E+10	1	-1E+10	1	-1E+10	1
4901784	85	C	11/01/2017	10:47	-133.210	43.826	0	1100.50	0	3.2170	0	34.5120	4	27.483	0	1088.802	0	14.2	4	4.4	4	-1E+10	1	-1E+10	1	-1E+10	1	-1E+10	1	-1E+10	1	-1E+10	1
4901784	85	C	11/01/2017	10:47	-133.210	43.826	0	1105.70	0	3.2150	0	34.5130	4	27.484	0	1093.933	0	14.3	4	4.5	4	-1E+10	1	-1E+10	1	-1E+10	1	-1E+10	1	-1E+10	1	-1E+10	1
4901784	85	C	11/01/2017	10:47	-133.210	43.826	0	1110.10	0	3.2070	0	34.5130	4	27.485	0	1098.275	0	14.5	4	4.5	4	-1E+10	1	-1E+10	1	-1E+10	1	-1E+10	1	-1E+10	1	-1E+10	1
4901784	85	C	11/01/2017	10:47	-133.210	43.826	0	1114.90	0	3.1930	0	34.5150	4	27.487	0	1103.011	0	14.6	4	4.5	4	-1E+10	1	-1E+10	1	-1E+10	1	-1E+10	1	-1E+10	1	-1E+10	1
4901784	85	C	11/01/2017	10:47	-133.210	43.826	0	1119.80	0	3.1720	0	34.5160	4	27.490	0	1107.846	0	14.6	4	4.5	4	-1E+10	1	-1E+10	1	-1E+10	1	-1E+10	1	-1E+10	1	-1E+10	1
4901784	85	C	11/01/2017	10:47	-133.210	43.826	0	1124.70	0	3.1680	0	34.5180	4	27.492	0	1112.680	0	14.9	4	4.6	4	-1E+10	1	-1E+10	1	-1E+10	1	-1E+10	1	-1E+10	1	-1E+10	1
4901784	85	C	11/01/2017	10:47	-133.210	43.826	0	1130.50	0	3.1530	0	34.5200	4	27.495	0	1118.403	0	14.9	4	4.6	4	-1E+10	1	-1E+10	1	-1E+10	1	-1E+10	1	-1E+10	1	-1E+10	1
4901784	85	C	11/01/2017	10:47	-133.210	43.826	0	1135.30	0	3.1420	0	34.5200	4	27.496	0	1123.139	0	15.0	4	4.7	4	-1E+10	1	-1E+10	1	-1E+10	1	-1E+10	1	-1E+10	1	-1E+10	1
4901784	85	C	11/01/2017	10:47	-133.210	43.826	0	1140.20	0	3.1370	0	34.5210	4	27.498	0	1127.973	0	15.1	4	4.7	4	-1E+10	1	-1E+10	1	-1E+10	1	-1E+10	1	-1E+10	1	-1E+10	1
4901784	85	C	11/01/2017	10:47	-133.210	43.826	0	1145.10	0	3.1330	0	34.5220	4	27.499	0	1132.807	0	15.1	4	4.7	4	-1E+10	1	-1E+10	1	-1E+10	1	-1E+10	1	-1E+10	1	-1E+10	1
4901784	85	C	11/01/2017	10:47	-133.210	43.826	0	1149.90	0	3.1300	0	34.5240	4	27.501	0	1137.543	0	15.3	4	4.7	4	-1E+10	1	-1E+10	1	-1E+10	1	-1E+10	1	-1E+10	1	-1E+10	1
4901784	85	C	11/01/2017	10:47	-133.210	43.826	0	1154.90	0	3.1260	0	34.5260	4	27.503	0	1142.476	0	15.4	4	4.8	4	-1E+10	1	-1E+10	1	-1E+10	1	-1E+10	1	-1E+10	1	-1E+10	1
4901784	85	C	11/01/2017	10:47	-133.210	43.826	0	1159.80	0	3.1140	0	34.5280	4	27.505	0	1147.310	0	15.5	4	4.8	4	-1E+10	1	-1E+10	1	-1E+10	1	-1E+10	1	-1E+10	1	-1E+10	1
4901784	85	C	11/01/2017	10:47	-133.210	43.826	0	1164.80	0	3.1050	0	34.5300	4	27.508	0	1152.242	0	15.6	4	4.8	4	-1E+10	1	-1E+10	1	-1E+10	1	-1E+10	1	-1E+10	1	-1E+10	1
4901784	85	C	11/01/2017	10:47	-133.210	43.826	0	1169.80	0	3.0960	0	34.5310	4	27.509	0	1157.174	0	15.7	4	4.9	4	-1E+10	1	-1E+10	1	-1E+10	1	-1E+10	1	-1E+10	1	-1E+10	1
4901784	85	C	11/01/2017	10:47	-133.210	43.826	0	1174.70	0	3.0870	0	34.5330	4	27.512	0	1162.008	0	15.8	4	4.9	4	-1E+10	1	-1E+10	1	-1E+10	1	-1E+10	1	-1E+10	1	-1E+10	1
4901784	85	C	11/01/2017	10:47	-133.210	43.826	0	1179.80	0	3.0740	0	34.5340	4	27.514	0	1167.039	0	15.9	4	4.9	4	-1E+10	1	-1E+10	1	-1E+10	1	-1E+10	1	-1E+10	1	-1E+10	1
4901784	85	C	11/01/2017	10:47	-133.210	43.826	0	1184.80	0	3.0660	0	34.5360	4	27.516	0	1171.971	0	16.0	4	4.9	4	-1E+10	1	-1E+10	1	-1E+10	1	-1E+10	1	-1E+10	1	-1E+10	1
4901784	85	C	11/01/2017	10:47	-133.210	43.826	0	1189.80	0	3.0610	0	34.5360	4	27.517	0	1176.903	0	16.1	4	5.0	4	-1E+10	1	-1E+10	1	-1E+10	1	-1E+10	1	-1E+10	1	-1E+10	1
4901784	85	C	11/01/2017	10:47	-133.210	43.826	0	1194.70	0	3.0470	0	34.5380	4	27.520	0	1181.736	0	16.2	4	5.0	4	-1E+10	1	-1E+10	1	-1E+10	1	-1E+10	1	-1E+10	1	-1E+10	1
4901784	85	C	11/01/2017	10:47	-133.210	43.826	0	1199.60	0	3.0390	0	34.5370	4	27.520	0	1186.569	0	16.3	4	5.0	4	-1E+10	1	-1E+10	1	-1E+10	1	-1E+10	1	-1E+10	1	-1E+10	1
4901784	85	C	11/01/2017	10:47	-133.210	43.826	0	1204.60	0	3.0300	0	34.5380	4	27.521	0	1191.500	0	16.4	4	5.1	4	-1E+10	1	-1E+10	1	-1E+10	1	-1E+10	1	-1E+10	1	-1E+10	1
4901784	85	C	11/01/2017	10:47	-133.210	43.826	0	1209.50	0	3.0190	0	34.5390	4	27.523	0	1196.333	0	16.5	4	5.1	4	-1E+10	1	-1E+10	1	-1E+10	1	-1E+10	1	-1E+10	1	-1E+10	1
4901784	85	C	11/01/2017	10:47	-133.210	43.826	0	1215.50	0	3.0140	0	34.5390	4	27.524	0	1202.250	0	16.7	4	5.2	4	-1E+10	1	-1E+10	1	-1E+10	1	-1E+10	1	-1E+10	1	-1E+10	1
4901784	85	C	11/01/2017	10:47	-133.210	43.826	0	1220.50	0	3.0020	0	34.5400	4	27.526	0	1207.182	0	16.8	4	5.2	4	-1E+10	1	-1E+10	1	-1E+10	1	-1E+10	1	-1E+10	1	-1E+10	1
4901784	85	C	11/01/2017	10:47	-133.210	43.826	0	1224.50	0	2.9970	0	34.5400	4	27.526	0	1211.126	0	17.0	4	5.2	4	-1E+10	1	-1E+10	1	-1E+10	1	-1E+10	1	-1E+10	1	-1E+10	1
4901784	85	C	11/01/2017	10:47	-133.210	43.826	0	1229.50	0	2.9870	0	34.5430	4	27.529	0	1216.057	0	17.1	4	5.3	4	-1E+10	1	-1E+10	1	-1E+10	1	-1E+10	1	-1E+10	1	-1E+10	1
4901784	85	C	11/01/2017	10:47	-133.210	43.826	0	1234.60	0	2.9810	0	34.5440	4	27.531	0	1221.087	0	17.1	4	5.3	4	-1E+10	1	-1E+10	1	-1E+10	1	-1E+10	1	-1E+10	1	-1E+10	1
4901784	85	C	11/01/2017	10:47	-133.210	43.826	0	1239.70	0	2.9660	0	34.5460	4	27.534	0	1226.116	0	17.1	4	5.3	4	-1E+10	1	-1E+10	1	-1E+10	1	-1E+10	1	-1E+10	1	-1E+10	1
4901784	85	C	11/01/2017	10:47	-133.210	43.826	0	1244.80	0	2.9540	0	34.5470	4	27.536	0	1231.145	0	17.3	4	5.3	4	-1E+10	1	-1E+10	1	-1E+10	1	-1E+10	1	-1E+10	1	-1E+10	1
4901784	85	C	11/01/2017	10:47	-133.210	43.826	0	1249.60	0	2.9520	0	34.5490	4	27.537	0	1235.879	0	17.5	4	5.4	4	-1E+10	1	-1E+10	1	-1E+10	1	-1E+10	1	-1E+10	1	-1E+10	1
4901784	85	C	11/01/2017	10:47	-133.210	43.826	0	1255.20	0	2.9440	0	34.5490	4	27.538	0	1241.401	0	17.7	4	5.4	4	-1E+10	1	-1E+10	1	-1E+10	1	-1E+10	1	-1E+10	1	-1E+10	1
4901784	85	C	11/01/2017	10:47	-133.210	43.826	0	1259.80	0	2.9290	0	34.5510	4	27.541	0	1245.937	0	17.8	4	5.5	4	-1E+10	1	-1E+10	1	-1E+10	1	-1E+10	1	-1E+10	1	-1E+10	1
4901784	85	C	11/01/2017	10:47	-133.210	43.826	0	1264.50	0	2.9190	0	34.5530	4	27.544	0	1250.571	0	18.0	4	5.6	4	-1E+10	1	-1E+10	1	-1E+10	1	-1E+10	1	-1E+10	1	-1E+10	1
4901784	85	C	11/01/2017	10:47	-133.210	43.826	0	1270.10	0	2.9130	0	34.5550	4	27.546	0	1256.092	0	18.3	4	5.6	4	-1E+10	1	-1E+10	1	-1E+10	1	-1E+10	1	-1E+10	1	-1E+10	1
4901784	85	C	11/01/2017	10:47	-133.210	43.826	0	1274.80	0	2.9060	0	34.5570	4	27.548	0	1260.727	0	18.4	4	5.7	4	-1E+10	1	-1E+10	1	-1E+10	1	-1E+10	1	-1E+10	1	-1E+10	1
4901784	85	C	11/01/2017	10:47	-133.210	43.826	0	1279.50	0	2.8940	0	34.5570	4	27.549	0	1265.360	0	18.6	4	5.7	4	-1E+10	1	-1E+10	1	-1E+10	1	-1E+10	1	-1E+10	1	-1E+10	1
4901784	85	C	11/01/2017	10:47	-133.210	43.826	0	1285.00	0	2.8810	0	34.5580	4	27.551	0	1270.783	0	18.8	4	5.8	4	-1E+10	1	-1E+10	1	-1E+10	1	-1E+10	1	-1E+10	1	-1E+10	1
4901784	85	C	11/01/2017	10:47	-133.210	43.826	0	1290.50	0	2.8730	0	34.5590	4	27.553	0	1276.206	0	19.0	4	5.9	4	-1E+10	1	-1E+10	1	-1E+10	1	-1E+10	1	-1E+10	1	-1E+10	1
4901784	85	C	11/01/2017	10:47	-133.210	43.826	0	1295.40	0	2.8680	0	34.5600	4	27.554	0	1281.036	0	19.2	4	5.9	4	-1E+10	1	-1E+10	1	-1E+10	1	-1E+10	1	-1E+10	1	-1E+10	1
4901784	85	C	11/01/2017	10:47	-133.210	43.826	0	1300.40	0	2.8580	0	34.5630	4	27.557	0	1285.966	0	19.5	4	6.0	4	-1E+10	1	-1E+10	1	-1E+10	1	-1E+10	1	-1E+10	1	-1E+10	1
4901784	85	C	11/01/2017	10:47	-133.210	43.826	0	1305.40	0	2.8490	0	34.5650	4	27.560	0	1290.895	0	19.8	4	6.1	4	-1E+10	1	-1E+10	1	-1E+10	1	-1E+10	1	-1E+10	1	-1E+10	1
4901784	85	C	11/01/2017	10:47	-133.210	43.826	0	1310.40	0	2.8380	0	34.5660	4	27.561	0	1295.824	0	20.0	4	6.2	4	-1E+10	1	-1E+10	1	-1E+10	1	-1E+10	1	-1E+10	1	-1E+10	1
4901784	85	C	11/01/2017	10:47	-133.210	43.826	0	1315.40	0	2.8280	0	34.5660	4	27.562	0	1300.753	0	20.3	4	6.2	4	-1E+10	1	-1E+10	1	-1E+10	1	-1E+10	1	-1E+10	1	-1E+10	1
4901784	85	C	11/01/2017	10:47	-133.210	43.826	0	1320.60	0	2.8220	0	34.5670	4	27.564	0	1305.879	0	20.6	4	6.3	4	-1E+10	1	-1E+10	1	-1E+10	1	-1E+10	1	-1E+10	1	-1E+10	1
4901784	85	C	11/01/2017	10:47	-133.210	43.826	0	1325.70	0	2.8050	0	34.5710	4	27.568	0	1310.906	0	20.9	4	6.4	4	-1E+10	1	-1E+10	1	-1E+10	1	-1E+10	1	-1E+10	1	-1E+10	1
4901784	85	C	11/01/2017	10:47	-133.210	43.826	0	1329.90	0	2.7970	0	34.5700	4	27.568	0	1315.046	0	21.1	4	6.5	4	-1E+10	1	-1E+10	1	-1E+10	1	-1E+10	1	-1E+10	1	-1E+10	1
4901784	85	C	11/01/2017	10:47	-133.210	43.826	0	1334.30	0	2.7930	0	34.5720	4	27.570	0	1319.383	0	21.3	4	6.6	4	-1E+10	1	-1E+10	1	-1E+10	1	-1E+10	1	-1E+10	1	-1E+10	1
4901784	85	C	11/01/2017	10:47	-133.210	43.826	0	1339.50	0	2.7900	0	34.5730	4	27.571	0	1324.509	0	21.5	4	6.6	4	-1E+10	1	-1E+10	1	-1E+10	1	-1E+10	1	-1E+10	1	-1E+10	1
4901784	85	C	11/01/2017	10:47	-133.210	43.826	0	1344.80	0	2.7870	0	34.5740	4	27.573	0	1329.733	0	21.7	4	6.7	4	-1E+10	1	-1E+10	1	-1E+10	1	-1E+10	1	-1E+10	1	-1E+10	1
4901784	85	C	11/01/2017	10:47	-133.210	43.826	0	1350.20	0	2.7770	0	34.5750	4	27.574	0	1335.055	0	21.8	4	6.7	4	-1E+10	1	-1E+10	1	-1E+10	1	-1E+10	1	-1E+10	1	-1E+10	1
4901784	85	C	11/01/2017	10:47	-133.210	43.826	0	1355.60	0	2.7720	0	34.5750	4	27.575	0	1340.378	0	21.9	4	6.7	4	-1E+10	1	-1E+10	1	-1E+10	1	-1E+10	1	-1E+10	1	-1E+10	1
4901784	85	C	11/01/2017	10:47	-133.210	43.826	0	1360.10	0	2.7650	0	34.5760	4	27.576	0	1344.813	0	22.1	4	6.8	4	-1E+10	1	-1E+10	1	-1E+10	1	-1E+10	1	-1E+10	1	-1E+10	1
4901784	85	C	11/01/2017	10:47	-133.210	43.826	0	1364.60	0	2.7600	0	34.5770	4	27.577	0	1349.248	0	22.3	4	6.8	4	-1E+10	1	-1E+10	1	-1E+10	1	-1E+10	1	-1E+10	1	-1E+10	1
4901784	85	C	11/01/2017	10:47	-133.210	43.826	0	1370.10	0	2.7520	0	34.5790	4	27.580	0	1354.668	0	22.4	4	6.9	4	-1E+10	1	-1E+10	1	-1E+10	1	-1E+10	1	-1E+10	1	-1E+10	1
4901784	85	C	11/01/2017	10:47	-133.210	43.826	0	1374.70	0	2.7430	0	34.5810	4	27.582	0	1359.202	0	22.5	4	6.9	4	-1E+10	1	-1E+10	1	-1E+10	1	-1E+10	1	-1E+10	1	-1E+10	1
4901784	85	C	11/01/2017	10:47	-133.210	43.826	0	1379.20	0	2.7390	0	34.5820	4	27.583	0	1363.636	0	22.6	4	6.9	4	-1E+10	1	-1E+10	1	-1E+10	1	-1E+10	1	-1E+10	1	-1E+10	1
4901784	85	C	11/01/2017	10:47	-133.210	43.826	0	1384.60	0	2.7380	0	34.5800	4	27.582	0	1368.958	0	22.7	4	7.0	4	-1E+10	1	-1E+10	1	-1E+10	1	-1E+10	1	-1E+10	1	-1E+10	1
4901784	85	C	11/01/2017	10:47	-133.210	43.826	0	1389.40	0	2.7360	0	34.5800	4	27.582	0	1373.688	0	22.8	4	7.0	4	-1E+10	1	-1E+10	1	-1E+10	1	-1E+10	1	-1E+10	1	-1E+10	1
4901784	85	C	11/01/2017	10:47	-133.210	43.826	0	1394.30	0	2.7270	0	34.5810	4	27.584	0	1378.517	0	23.0	4	7.1	4	-1E+10	1	-1E+10	1	-1E+10	1	-1E+10	1	-1E+10	1	-1E+10	1
4901784	85	C	11/01/2017	10:47	-133.210	43.826	0	1399.20	0	2.7180	0	34.5840	4	27.587	0	1383.345	0	23.2	4	7.1	4	-1E+10	1	-1E+10	1	-1E+10	1	-1E+10	1	-1E+10	1	-1E+10	1
4901784	85	C	11/01/2017	10:47	-133.210	43.826	0	1404.20	0	2.7040	0	34.5850	4	27.589	0	1388.272	0	23.4	4	7.2	4	-1E+10	1	-1E+10	1	-1E+10	1	-1E+10	1	-1E+10	1	-1E+10	1
4901784	85	C	11/01/2017	10:47	-133.210	43.826	0	1409.30	0	2.6950	0	34.5860	4	27.590	0	1393.297	0	23.5	4	7.2	4	-1E+10	1	-1E+10	1	-1E+10	1	-1E+10	1	-1E+10	1	-1E+10	1
4901784	85	C	11/01/2017	10:47	-133.210	43.826	0	1414.30	0	2.6900	0	34.5850	4	27.590	0	1398.224	0	23.7	4	7.3	4	-1E+10	1	-1E+10	1	-1E+10	1	-1E+10	1	-1E+10	1	-1E+10	1
4901784	85	C	11/01/2017	10:47	-133.210	43.826	0	1419.50	0	2.6850	0	34.5850	4	27.591	0	1403.348	0	23.9	4	7.3	4	-1E+10	1	-1E+10	1	-1E+10	1	-1E+10	1	-1E+10	1	-1E+10	1
4901784	85	C	11/01/2017	10:47	-133.210	43.826	0	1424.60	0	2.6780	0	34.5870	4	27.593	0	1408.372	0	24.1	4	7.4	4	-1E+10	1	-1E+10	1	-1E+10	1	-1E+10	1	-1E+10	1	-1E+10	1
4901784	85	C	11/01/2017	10:47	-133.210	43.826	0	1429.80	0	2.6670	0	34.5880	4	27.595	0	1413.496	0	24.3	4	7.4	4	-1E+10	1	-1E+10	1	-1E+10	1	-1E+10	1	-1E+10	1	-1E+10	1
4901784	85	C	11/01/2017	10:47	-133.210	43.826	0	1435.10	0	2.6560	0	34.5880	4	27.596	0	1418.718	0	24.4	4	7.5	4	-1E+10	1	-1E+10	1	-1E+10	1	-1E+10	1	-1E+10	1	-1E+10	1
4901784	85	C	11/01/2017	10:47	-133.210	43.826	0	1440.30	0	2.6430	0	34.5890	4	27.598	0	1423.841	0	24.6	4	7.5	4	-1E+10	1	-1E+10	1	-1E+10	1	-1E+10	1	-1E+10	1	-1E+10	1
4901784	85	C	11/01/2017	10:47	-133.210	43.826	0	1445.60	0	2.6340	0	34.5890	4	27.598	0	1429.062	0	24.9	4	7.6	4	-1E+10	1	-1E+10	1	-1E+10	1	-1E+10	1	-1E+10	1	-1E+10	1
4901784	85	C	11/01/2017	10:47	-133.210	43.826	0	1449.90	0	2.6240	0	34.5900	4	27.600	0	1433.299	0	25.1	4	7.7	4	-1E+10	1	-1E+10	1	-1E+10	1	-1E+10	1	-1E+10	1	-1E+10	1
4901784	85	C	11/01/2017	10:47	-133.210	43.826	0	1454.30	0	2.6200	0	34.5920	4	27.602	0	1437.633	0	25.4	4	7.8	4	-1E+10	1	-1E+10	1	-1E+10	1	-1E+10	1	-1E+10	1	-1E+10	1
4901784	85	C	11/01/2017	10:47	-133.210	43.826	0	1459.50	0	2.6050	0	34.5940	4	27.605	0	1442.756	0	25.7	4	7.9	4	-1E+10	1	-1E+10	1	-1E+10	1	-1E+10	1	-1E+10	1	-1E+10	1
4901784	85	C	11/01/2017	10:47	-133.210	43.826	0	1464.80	0	2.5920	0	34.5960	4	27.608	0	1447.977	0	26.0	4	7.9	4	-1E+10	1	-1E+10	1	-1E+10	1	-1E+10	1	-1E+10	1	-1E+10	1
4901784	85	C	11/01/2017	10:47	-133.210	43.826	0	1470.20	0	2.5850	0	34.5970	4	27.609	0	1453.296	0	26.2	4	8.0	4	-1E+10	1	-1E+10	1	-1E+10	1	-1E+10	1	-1E+10	1	-1E+10	1
4901784	85	C	11/01/2017	10:47	-133.210	43.826	0	1475.50	0	2.5770	0	34.5970	4	27.610	0	1458.517	0	26.4	4	8.1	4	-1E+10	1	-1E+10	1	-1E+10	1	-1E+10	1	-1E+10	1	-1E+10	1
4901784	85	C	11/01/2017	10:47	-133.210	43.826	0	1480.00	0	2.5660	0	34.5970	4	27.611	0	1462.950	0	26.6	4	8.1	4	-1E+10	1	-1E+10	1	-1E+10	1	-1E+10	1	-1E+10	1	-1E+10	1
4901784	85	C	11/01/2017	10:47	-133.210	43.826	0	1484.60	0	2.5590	0	34.5980	4	27.612	0	1467.481	0	26.8	4	8.2	4	-1E+10	1	-1E+10	1	-1E+10	1	-1E+10	1	-1E+10	1	-1E+10	1
4901784	85	C	11/01/2017	10:47	-133.210	43.826	0	1490.00	0	2.5510	0	34.5980	4	27.613	0	1472.800	0	27.1	4	8.3	4	-1E+10	1	-1E+10	1	-1E+10	1	-1E+10	1	-1E+10	1	-1E+10	1
4901784	85	C	11/01/2017	10:47	-133.210	43.826	0	1495.50	0	2.5410	0	34.5990	4	27.615	0	1478.217	0	27.4	4	8.4	4	-1E+10	1	-1E+10	1	-1E+10	1	-1E+10	1	-1E+10	1	-1E+10	1
4901784	85	C	11/01/2017	10:47	-133.210	43.826	0	1500.00	0	2.5350	0	34.6000	4	27.616	0	1482.649	0	27.7	4	8.5	4	-1E+10	1	-1E+10	1	-1E+10	1	-1E+10	1	-1E+10	1	-1E+10	1
4901784	85	C	11/01/2017	10:47	-133.210	43.826	0	1504.60	0	2.5220	0	34.6010	4	27.618	0	1487.180	0	28.0	4	8.6	4	-1E+10	1	-1E+10	1	-1E+10	1	-1E+10	1	-1E+10	1	-1E+10	1
4901784	85	C	11/01/2017	10:47	-133.210	43.826	0	1510.10	0	2.5100	0	34.6020	4	27.620	0	1492.597	0	28.3	4	8.6	4	-1E+10	1	-1E+10	1	-1E+10	1	-1E+10	1	-1E+10	1	-1E+10	1
4901784	85	C	11/01/2017	10:47	-133.210	43.826	0	1514.70	0	2.5020	0	34.6040	4	27.622	0	1497.127	0	28.5	4	8.7	4	-1E+10	1	-1E+10	1	-1E+10	1	-1E+10	1	-1E+10	1	-1E+10	1
4901784	85	C	11/01/2017	10:47	-133.210	43.826	0	1519.40	0	2.4960	0	34.6030	4	27.622	0	1501.756	0	28.7	4	8.8	4	-1E+10	1	-1E+10	1	-1E+10	1	-1E+10	1	-1E+10	1	-1E+10	1
4901784	85	C	11/01/2017	10:47	-133.210	43.826	0	1525.10	0	2.4870	0	34.6030	4	27.622	0	1507.369	0	29.0	4	8.9	4	-1E+10	1	-1E+10	1	-1E+10	1	-1E+10	1	-1E+10	1	-1E+10	1
4901784	85	C	11/01/2017	10:47	-133.210	43.826	0	1529.80	0	2.4770	0	34.6050	4	27.625	0	1511.998	0	29.3	4	8.9	4	-1E+10	1	-1E+10	1	-1E+10	1	-1E+10	1	-1E+10	1	-1E+10	1
4901784	85	C	11/01/2017	10:47	-133.210	43.826	0	1535.00	0	2.4660	0	34.6050	4	27.626	0	1517.119	0	29.6	4	9.0	4	-1E+10	1	-1E+10	1	-1E+10	1	-1E+10	1	-1E+10	1	-1E+10	1
4901784	85	C	11/01/2017	10:47	-133.210	43.826	0	1540.20	0	2.4580	0	34.6060	4	27.627	0	1522.239	0	29.9	4	9.1	4	-1E+10	1	-1E+10	1	-1E+10	1	-1E+10	1	-1E+10	1	-1E+10	1
4901784	85	C	11/01/2017	10:47	-133.210	43.826	0	1545.10	0	2.4490	0	34.6070	4	27.629	0	1527.065	0	30.1	4	9.2	4	-1E+10	1	-1E+10	1	-1E+10	1	-1E+10	1	-1E+10	1	-1E+10	1
4901784	85	C	11/01/2017	10:47	-133.210	43.826	0	1550.00	0	2.4410	0	34.6080	4	27.630	0	1531.890	0	30.4	4	9.3	4	-1E+10	1	-1E+10	1	-1E+10	1	-1E+10	1	-1E+10	1	-1E+10	1
4901784	85	C	11/01/2017	10:47	-133.210	43.826	0	1554.90	0	2.4340	0	34.6090	4	27.632	0	1536.715	0	30.6	4	9.3	4	-1E+10	1	-1E+10	1	-1E+10	1	-1E+10	1	-1E+10	1	-1E+10	1
4901784	85	C	11/01/2017	10:47	-133.210	43.826	0	1559.80	0	2.4280	0	34.6100	4	27.633	0	1541.540	0	30.8	4	9.4	4	-1E+10	1	-1E+10	1	-1E+10	1	-1E+10	1	-1E+10	1	-1E+10	1
4901784	85	C	11/01/2017	10:47	-133.210	43.826	0	1564.70	0	2.4230	0	34.6100	4	27.634	0	1546.364	0	31.1	4	9.5	4	-1E+10	1	-1E+10	1	-1E+10	1	-1E+10	1	-1E+10	1	-1E+10	1
4901784	85	C	11/01/2017	10:47	-133.210	43.826	0	1569.60	0	2.4150	0	34.6100	4	27.634	0	1551.189	0	31.4	4	9.6	4	-1E+10	1	-1E+10	1	-1E+10	1	-1E+10	1	-1E+10	1	-1E+10	1
4901784	85	C	11/01/2017	10:47	-133.210	43.826	0	1574.60	0	2.4030	0	34.6110	4	27.636	0	1556.112	0	31.8	4	9.7	4	-1E+10	1	-1E+10	1	-1E+10	1	-1E+10	1	-1E+10	1	-1E+10	1
4901784	85	C	11/01/2017	10:47	-133.210	43.826	0	1579.50	0	2.3940	0	34.6110	4	27.637	0	1560.936	0	32.1	4	9.8	4	-1E+10	1	-1E+10	1	-1E+10	1	-1E+10	1	-1E+10	1	-1E+10	1
4901784	85	C	11/01/2017	10:47	-133.210	43.826	0	1584.50	0	2.3870	0	34.6130	4	27.639	0	1565.859	0	32.4	4	9.9	4	-1E+10	1	-1E+10	1	-1E+10	1	-1E+10	1	-1E+10	1	-1E+10	1
4901784	85	C	11/01/2017	10:47	-133.210	43.826	0	1589.50	0	2.3800	0	34.6150	4	27.641	0	1570.782	0	32.8	4	10.0	4	-1E+10	1	-1E+10	1	-1E+10	1	-1E+10	1	-1E+10	1	-1E+10	1
4901784	85	C	11/01/2017	10:47	-133.210	43.826	0	1594.50	0	2.3710	0	34.6160	4	27.643	0	1575.704	0	33.1	4	10.1	4	-1E+10	1	-1E+10	1	-1E+10	1	-1E+10	1	-1E+10	1	-1E+10	1
4901784	85	C	11/01/2017	10:47	-133.210	43.826	0	1599.60	0	2.3660	0	34.6170	4	27.644	0	1580.725	0	33.5	4	10.2	4	-1E+10	1	-1E+10	1	-1E+10	1	-1E+10	1	-1E+10	1	-1E+10	1
4901784	85	C	11/01/2017	10:47	-133.210	43.826	0	1604.70	0	2.3570	0	34.6190	4	27.646	0	1585.746	0	33.9	4	10.3	4	-1E+10	1	-1E+10	1	-1E+10	1	-1E+10	1	-1E+10	1	-1E+10	1
4901784	85	C	11/01/2017	10:47	-133.210	43.826	0	1609.80	0	2.3530	0	34.6200	4	27.648	0	1590.766	0	34.4	4	10.5	4	-1E+10	1	-1E+10	1	-1E+10	1	-1E+10	1	-1E+10	1	-1E+10	1
4901784	85	C	11/01/2017	10:47	-133.210	43.826	0	1614.90	0	2.3580	0	34.6210	4	27.648	0	1595.787	0	35.2	4	10.7	4	-1E+10	1	-1E+10	1	-1E+10	1	-1E+10	1	-1E+10	1	-1E+10	1
4901784	85	C	11/01/2017	10:47	-133.210	43.826	0	1620.00	0	2.3530	0	34.6240	4	27.651	0	1600.807	0	35.9	4	10.9	4	-1E+10	1	-1E+10	1	-1E+10	1	-1E+10	1	-1E+10	1	-1E+10	1
4901784	85	C	11/01/2017	10:47	-133.210	43.826	0	1625.10	0	2.3480	0	34.6260	4	27.653	0	1605.827	0	36.4	4	11.1	4	-1E+10	1	-1E+10	1	-1E+10	1	-1E+10	1	-1E+10	1	-1E+10	1
4901784	85	C	11/01/2017	10:47	-133.210	43.826	0	1630.20	0	2.3430	0	34.6270	4	27.654	0	1610.848	0	36.7	4	11.2	4	-1E+10	1	-1E+10	1	-1E+10	1	-1E+10	1	-1E+10	1	-1E+10	1
4901784	85	C	11/01/2017	10:47	-133.210	43.826	0	1635.30	0	2.3400	0	34.6280	4	27.655	0	1615.868	0	36.8	4	11.2	4	-1E+10	1	-1E+10	1	-1E+10	1	-1E+10	1	-1E+10	1	-1E+10	1
4901784	85	C	11/01/2017	10:47	-133.210	43.826	0	1640.50	0	2.3390	0	34.6270	4	27.655	0	1620.986	0	36.9	4	11.2	4	-1E+10	1	-1E+10	1	-1E+10	1	-1E+10	1	-1E+10	1	-1E+10	1
4901784	85	C	11/01/2017	10:47	-133.210	43.826	0	1645.70	0	2.3340	0	34.6270	4	27.655	0	1626.104	0	36.9	4	11.2	4	-1E+10	1	-1E+10	1	-1E+10	1	-1E+10	1	-1E+10	1	-1E+10	1
4901784	85	C	11/01/2017	10:47	-133.210	43.826	0	1650.80	0	2.3180	0	34.6270	4	27.656	0	1631.124	0	37.0	4	11.3	4	-1E+10	1	-1E+10	1	-1E+10	1	-1E+10	1	-1E+10	1	-1E+10	1
4901784	85	C	11/01/2017	10:47	-133.210	43.826	0	1655.10	0	2.3040	0	34.6270	4	27.657	0	1635.356	0	37.1	4	11.3	4	-1E+10	1	-1E+10	1	-1E+10	1	-1E+10	1	-1E+10	1	-1E+10	1
4901784	85	C	11/01/2017	10:47	-133.210	43.826	0	1659.40	0	2.2980	0	34.6280	4	27.659	0	1639.588	0	37.3	4	11.3	4	-1E+10	1	-1E+10	1	-1E+10	1	-1E+10	1	-1E+10	1	-1E+10	1
4901784	85	C	11/01/2017	10:47	-133.210	43.826	0	1664.60	0	2.2850	0	34.6300	4	27.661	0	1644.706	0	37.8	4	11.5	4	-1E+10	1	-1E+10	1	-1E+10	1	-1E+10	1	-1E+10	1	-1E+10	1
4901784	85	C	11/01/2017	10:47	-133.210	43.826	0	1669.70	0	2.2760	0	34.6310	4	27.663	0	1649.725	0	38.1	4	11.6	4	-1E+10	1	-1E+10	1	-1E+10	1	-1E+10	1	-1E+10	1	-1E+10	1
4901784	85	C	11/01/2017	10:47	-133.210	43.826	0	1674.90	0	2.2740	0	34.6320	4	27.664	0	1654.843	0	38.4	4	11.7	4	-1E+10	1	-1E+10	1	-1E+10	1	-1E+10	1	-1E+10	1	-1E+10	1
4901784	85	C	11/01/2017	10:47	-133.210	43.826	0	1680.20	0	2.2710	0	34.6330	4	27.665	0	1660.058	0	39.1	4	11.9	4	-1E+10	1	-1E+10	1	-1E+10	1	-1E+10	1	-1E+10	1	-1E+10	1
4901784	85	C	11/01/2017	10:47	-133.210	43.826	0	1685.40	0	2.2720	0	34.6350	4	27.667	0	1665.176	0	39.7	4	12.0	4	-1E+10	1	-1E+10	1	-1E+10	1	-1E+10	1	-1E+10	1	-1E+10	1
4901784	85	C	11/01/2017	10:47	-133.210	43.826	0	1690.70	0	2.2640	0	34.6360	4	27.668	0	1670.391	0	40.1	4	12.2	4	-1E+10	1	-1E+10	1	-1E+10	1	-1E+10	1	-1E+10	1	-1E+10	1
4901784	85	C	11/01/2017	10:47	-133.210	43.826	0	1695.10	0	2.2560	0	34.6370	4	27.670	0	1674.721	0	40.3	4	12.2	4	-1E+10	1	-1E+10	1	-1E+10	1	-1E+10	1	-1E+10	1	-1E+10	1
4901784	85	C	11/01/2017	10:47	-133.210	43.826	0	1699.60	0	2.2510	0	34.6380	4	27.671	0	1679.149	0	40.6	4	12.3	4	-1E+10	1	-1E+10	1	-1E+10	1	-1E+10	1	-1E+10	1	-1E+10	1
4901784	85	C	11/01/2017	10:47	-133.210	43.826	0	1704.90	0	2.2460	0	34.6380	4	27.671	0	1684.364	0	41.0	4	12.4	4	-1E+10	1	-1E+10	1	-1E+10	1	-1E+10	1	-1E+10	1	-1E+10	1
4901784	85	C	11/01/2017	10:47	-133.210	43.826	0	1710.20	0	2.2410	0	34.6390	4	27.672	0	1689.579	0	41.3	4	12.5	4	-1E+10	1	-1E+10	1	-1E+10	1	-1E+10	1	-1E+10	1	-1E+10	1
4901784	85	C	11/01/2017	10:47	-133.210	43.826	0	1715.50	0	2.2360	0	34.6400	4	27.674	0	1694.794	0	41.7	4	12.7	4	-1E+10	1	-1E+10	1	-1E+10	1	-1E+10	1	-1E+10	1	-1E+10	1
4901784	85	C	11/01/2017	10:47	-133.210	43.826	0	1719.90	0	2.2270	0	34.6410	4	27.675	0	1699.123	0	42.1	4	12.8	4	-1E+10	1	-1E+10	1	-1E+10	1	-1E+10	1	-1E+10	1	-1E+10	1
4901784	85	C	11/01/2017	10:47	-133.210	43.826	0	1724.30	0	2.2210	0	34.6420	4	27.677	0	1703.453	0	42.4	4	12.9	4	-1E+10	1	-1E+10	1	-1E+10	1	-1E+10	1	-1E+10	1	-1E+10	1
4901784	85	C	11/01/2017	10:47	-133.210	43.826	0	1729.70	0	2.2140	0	34.6420	4	27.677	0	1708.766	0	42.7	4	13.0	4	-1E+10	1	-1E+10	1	-1E+10	1	-1E+10	1	-1E+10	1	-1E+10	1
4901784	85	C	11/01/2017	10:47	-133.210	43.826	0	1735.00	0	2.2100	0	34.6420	4	27.678	0	1713.980	0	43.0	4	13.0	4	-1E+10	1	-1E+10	1	-1E+10	1	-1E+10	1	-1E+10	1	-1E+10	1
4901784	85	C	11/01/2017	10:47	-133.210	43.826	0	1740.30	0	2.2050	0	34.6430	4	27.679	0	1719.194	0	43.2	4	13.1	4	-1E+10	1	-1E+10	1	-1E+10	1	-1E+10	1	-1E+10	1	-1E+10	1
4901784	85	C	11/01/2017	10:47	-133.210	43.826	0	1745.70	0	2.1970	0	34.6450	4	27.681	0	1724.507	0	43.6	4	13.2	4	-1E+10	1	-1E+10	1	-1E+10	1	-1E+10	1	-1E+10	1	-1E+10	1
4901784	85	C	11/01/2017	10:47	-133.210	43.826	0	1750.10	0	2.1940	0	34.6460	4	27.682	0	1728.836	0	43.9	4	13.3	4	-1E+10	1	-1E+10	1	-1E+10	1	-1E+10	1	-1E+10	1	-1E+10	1
4901784	85	C	11/01/2017	10:47	-133.210	43.826	0	1754.60	0	2.1900	0	34.6470	4	27.683	0	1733.263	0	44.2	4	13.4	4	-1E+10	1	-1E+10	1	-1E+10	1	-1E+10	1	-1E+10	1	-1E+10	1
4901784	85	C	11/01/2017	10:47	-133.210	43.826	0	1760.00	0	2.1850	0	34.6480	4	27.684	0	1738.575	0	44.5	4	13.5	4	-1E+10	1	-1E+10	1	-1E+10	1	-1E+10	1	-1E+10	1	-1E+10	1
4901784	85	C	11/01/2017	10:47	-133.210	43.826	0	1765.40	0	2.1750	0	34.6480	4	27.685	0	1743.887	0	44.9	4	13.6	4	-1E+10	1	-1E+10	1	-1E+10	1	-1E+10	1	-1E+10	1	-1E+10	1
4901784	85	C	11/01/2017	10:47	-133.210	43.826	0	1769.90	0	2.1700	0	34.6490	4	27.687	0	1748.314	0	45.1	4	13.7	4	-1E+10	1	-1E+10	1	-1E+10	1	-1E+10	1	-1E+10	1	-1E+10	1
4901784	85	C	11/01/2017	10:47	-133.210	43.826	0	1774.40	0	2.1650	0	34.6490	4	27.687	0	1752.740	0	45.5	4	13.8	4	-1E+10	1	-1E+10	1	-1E+10	1	-1E+10	1	-1E+10	1	-1E+10	1
4901784	85	C	11/01/2017	10:47	-133.210	43.826	0	1779.90	0	2.1570	0	34.6500	4	27.688	0	1758.150	0	46.0	4	13.9	4	-1E+10	1	-1E+10	1	-1E+10	1	-1E+10	1	-1E+10	1	-1E+10	1
4901784	85	C	11/01/2017	10:47	-133.210	43.826	0	1785.30	0	2.1490	0	34.6520	4	27.691	0	1763.462	0	46.4	4	14.1	4	-1E+10	1	-1E+10	1	-1E+10	1	-1E+10	1	-1E+10	1	-1E+10	1
4901784	85	C	11/01/2017	10:47	-133.210	43.826	0	1789.90	0	2.1400	0	34.6530	4	27.692	0	1767.986	0	46.8	4	14.2	4	-1E+10	1	-1E+10	1	-1E+10	1	-1E+10	1	-1E+10	1	-1E+10	1
4901784	85	C	11/01/2017	10:47	-133.210	43.826	0	1795.20	0	2.1340	0	34.6530	4	27.693	0	1773.199	0	47.1	4	14.2	4	-1E+10	1	-1E+10	1	-1E+10	1	-1E+10	1	-1E+10	1	-1E+10	1
4901784	85	C	11/01/2017	10:47	-133.210	43.826	0	1800.20	0	2.1300	0	34.6520	4	27.692	0	1778.117	0	47.3	4	14.3	4	-1E+10	1	-1E+10	1	-1E+10	1	-1E+10	1	-1E+10	1	-1E+10	1
4901784	85	C	11/01/2017	10:47	-133.210	43.826	0	1805.10	0	2.1260	0	34.6530	4	27.693	0	1782.937	0	47.5	4	14.4	4	-1E+10	1	-1E+10	1	-1E+10	1	-1E+10	1	-1E+10	1	-1E+10	1
4901784	85	C	11/01/2017	10:47	-133.210	43.826	0	1810.00	0	2.1180	0	34.6530	4	27.694	0	1787.756	0	47.6	4	14.4	4	-1E+10	1	-1E+10	1	-1E+10	1	-1E+10	1	-1E+10	1	-1E+10	1
4901784	85	C	11/01/2017	10:47	-133.210	43.826	0	1814.90	0	2.1150	0	34.6550	4	27.696	0	1792.575	0	48.2	4	14.6	4	-1E+10	1	-1E+10	1	-1E+10	1	-1E+10	1	-1E+10	1	-1E+10	1
4901784	85	C	11/01/2017	10:47	-133.210	43.826	0	1819.80	0	2.1100	0	34.6560	4	27.697	0	1797.394	0	48.5	4	14.7	4	-1E+10	1	-1E+10	1	-1E+10	1	-1E+10	1	-1E+10	1	-1E+10	1
4901784	85	C	11/01/2017	10:47	-133.210	43.826	0	1824.80	0	2.1040	0	34.6570	4	27.698	0	1802.311	0	48.6	4	14.7	4	-1E+10	1	-1E+10	1	-1E+10	1	-1E+10	1	-1E+10	1	-1E+10	1
4901784	85	C	11/01/2017	10:47	-133.210	43.826	0	1829.70	0	2.0940	0	34.6580	4	27.700	0	1807.130	0	48.5	4	14.7	4	-1E+10	1	-1E+10	1	-1E+10	1	-1E+10	1	-1E+10	1	-1E+10	1
4901784	85	C	11/01/2017	10:47	-133.210	43.826	0	1834.70	0	2.0900	0	34.6580	4	27.700	0	1812.047	0	48.6	4	14.7	4	-1E+10	1	-1E+10	1	-1E+10	1	-1E+10	1	-1E+10	1	-1E+10	1
4901784	85	C	11/01/2017	10:47	-133.210	43.826	0	1839.70	0	2.0860	0	34.6580	4	27.701	0	1816.964	0	48.8	4	14.8	4	-1E+10	1	-1E+10	1	-1E+10	1	-1E+10	1	-1E+10	1	-1E+10	1
4901784	85	C	11/01/2017	10:47	-133.210	43.826	0	1844.70	0	2.0810	0	34.6590	4	27.702	0	1821.881	0	49.0	4	14.8	4	-1E+10	1	-1E+10	1	-1E+10	1	-1E+10	1	-1E+10	1	-1E+10	1
4901784	85	C	11/01/2017	10:47	-133.210	43.826	0	1849.70	0	2.0770	0	34.6600	4	27.703	0	1826.797	0	49.3	4	14.9	4	-1E+10	1	-1E+10	1	-1E+10	1	-1E+10	1	-1E+10	1	-1E+10	1
4901784	85	C	11/01/2017	10:47	-133.210	43.826	0	1854.70	0	2.0720	0	34.6600	4	27.704	0	1831.714	0	49.6	4	15.0	4	-1E+10	1	-1E+10	1	-1E+10	1	-1E+10	1	-1E+10	1	-1E+10	1
4901784	85	C	11/01/2017	10:47	-133.210	43.826	0	1859.80	0	2.0670	0	34.6600	4	27.704	0	1836.729	0	50.0	4	15.1	4	-1E+10	1	-1E+10	1	-1E+10	1	-1E+10	1	-1E+10	1	-1E+10	1
4901784	85	C	11/01/2017	10:47	-133.210	43.826	0	1864.80	0	2.0610	0	34.6600	4	27.704	0	1841.645	0	50.4	4	15.2	4	-1E+10	1	-1E+10	1	-1E+10	1	-1E+10	1	-1E+10	1	-1E+10	1
4901784	85	C	11/01/2017	10:47	-133.210	43.826	0	1869.80	0	2.0540	0	34.6600	4	27.705	0	1846.561	0	50.7	4	15.3	4	-1E+10	1	-1E+10	1	-1E+10	1	-1E+10	1	-1E+10	1	-1E+10	1
4901784	85	C	11/01/2017	10:47	-133.210	43.826	0	1874.90	0	2.0500	0	34.6610	4	27.706	0	1851.576	0	51.0	4	15.4	4	-1E+10	1	-1E+10	1	-1E+10	1	-1E+10	1	-1E+10	1	-1E+10	1
4901784	85	C	11/01/2017	10:47	-133.210	43.826	0	1880.00	0	2.0440	0	34.6630	4	27.708	0	1856.590	0	51.4	4	15.5	4	-1E+10	1	-1E+10	1	-1E+10	1	-1E+10	1	-1E+10	1	-1E+10	1
4901784	85	C	11/01/2017	10:47	-133.210	43.826	0	1885.10	0	2.0390	0	34.6640	4	27.709	0	1861.604	0	51.6	4	15.6	4	-1E+10	1	-1E+10	1	-1E+10	1	-1E+10	1	-1E+10	1	-1E+10	1
4901784	85	C	11/01/2017	10:47	-133.210	43.826	0	1890.30	0	2.0360	0	34.6650	4	27.711	0	1866.717	0	51.9	4	15.7	4	-1E+10	1	-1E+10	1	-1E+10	1	-1E+10	1	-1E+10	1	-1E+10	1
4901784	85	C	11/01/2017	10:47	-133.210	43.826	0	1895.40	0	2.0320	0	34.6660	4	27.712	0	1871.731	0	52.2	4	15.8	4	-1E+10	1	-1E+10	1	-1E+10	1	-1E+10	1	-1E+10	1	-1E+10	1
4901784	85	C	11/01/2017	10:47	-133.210	43.826	0	1900.60	0	2.0280	0	34.6660	4	27.712	0	1876.843	0	52.5	4	15.9	4	-1E+10	1	-1E+10	1	-1E+10	1	-1E+10	1	-1E+10	1	-1E+10	1
4901784	85	C	11/01/2017	10:47	-133.210	43.826	0	1905.00	0	2.0230	0	34.6670	4	27.713	0	1881.168	0	52.8	4	15.9	4	-1E+10	1	-1E+10	1	-1E+10	1	-1E+10	1	-1E+10	1	-1E+10	1
4901784	85	C	11/01/2017	10:47	-133.210	43.826	0	1909.40	0	2.0200	0	34.6680	4	27.714	0	1885.494	0	53.1	4	16.0	4	-1E+10	1	-1E+10	1	-1E+10	1	-1E+10	1	-1E+10	1	-1E+10	1
4901784	85	C	11/01/2017	10:47	-133.210	43.826	0	1914.70	0	2.0140	0	34.6680	4	27.715	0	1890.704	0	53.4	4	16.1	4	-1E+10	1	-1E+10	1	-1E+10	1	-1E+10	1	-1E+10	1	-1E+10	1
4901784	85	C	11/01/2017	10:47	-133.210	43.826	0	1920.00	0	2.0110	0	34.6690	4	27.716	0	1895.914	0	53.7	4	16.2	4	-1E+10	1	-1E+10	1	-1E+10	1	-1E+10	1	-1E+10	1	-1E+10	1
4901784	85	C	11/01/2017	10:47	-133.210	43.826	0	1925.30	0	2.0070	0	34.6700	4	27.717	0	1901.124	0	54.0	4	16.3	4	-1E+10	1	-1E+10	1	-1E+10	1	-1E+10	1	-1E+10	1	-1E+10	1
4901784	85	C	11/01/2017	10:47	-133.210	43.826	0	1930.70	0	2.0030	0	34.6700	4	27.717	0	1906.432	0	54.4	4	16.4	4	-1E+10	1	-1E+10	1	-1E+10	1	-1E+10	1	-1E+10	1	-1E+10	1
4901784	85	C	11/01/2017	10:47	-133.210	43.826	0	1935.10	0	1.9990	0	34.6700	4	27.718	0	1910.757	0	54.7	4	16.5	4	-1E+10	1	-1E+10	1	-1E+10	1	-1E+10	1	-1E+10	1	-1E+10	1
4901784	85	C	11/01/2017	10:47	-133.210	43.826	0	1939.70	0	1.9950	0	34.6720	4	27.720	0	1915.278	0	54.9	4	16.6	4	-1E+10	1	-1E+10	1	-1E+10	1	-1E+10	1	-1E+10	1	-1E+10	1
4901784	85	C	11/01/2017	10:47	-133.210	43.826	0	1945.10	0	1.9910	0	34.6710	4	27.719	0	1920.586	0	55.2	4	16.7	4	-1E+10	1	-1E+10	1	-1E+10	1	-1E+10	1	-1E+10	1	-1E+10	1
4901784	85	C	11/01/2017	10:47	-133.210	43.826	0	1950.20	0	1.9850	0	34.6720	4	27.720	0	1925.598	0	55.6	4	16.8	4	-1E+10	1	-1E+10	1	-1E+10	1	-1E+10	1	-1E+10	1	-1E+10	1
4901784	85	C	11/01/2017	10:47	-133.210	43.826	0	1954.50	0	1.9830	0	34.6730	4	27.721	0	1929.825	0	55.8	4	16.8	4	-1E+10	1	-1E+10	1	-1E+10	1	-1E+10	1	-1E+10	1	-1E+10	1
4901784	85	C	11/01/2017	10:47	-133.210	43.826	0	1959.30	0	1.9790	0	34.6740	4	27.723	0	1934.542	0	56.2	4	16.9	4	-1E+10	1	-1E+10	1	-1E+10	1	-1E+10	1	-1E+10	1	-1E+10	1
4901784	85	C	11/01/2017	10:47	-133.210	43.826	0	1964.90	0	1.9730	0	34.6750	4	27.724	0	1940.046	0	56.5	4	17.0	4	-1E+10	1	-1E+10	1	-1E+10	1	-1E+10	1	-1E+10	1	-1E+10	1
4901784	85	C	11/01/2017	10:47	-133.210	43.826	0	1970.60	0	1.9680	0	34.6760	4	27.725	0	1945.648	0	56.9	4	17.1	4	-1E+10	1	-1E+10	1	-1E+10	1	-1E+10	1	-1E+10	1	-1E+10	1
4901784	85	C	11/01/2017	10:47	-133.210	43.826	0	1975.40	0	1.9650	0	34.6760	4	27.725	0	1950.365	0	57.1	4	17.2	4	-1E+10	1	-1E+10	1	-1E+10	1	-1E+10	1	-1E+10	1	-1E+10	1
4901784	85	C	11/01/2017	10:47	-133.210	43.826	0	1980.30	0	1.9630	0	34.6760	4	27.726	0	1955.181	0	57.5	4	17.3	4	-1E+10	1	-1E+10	1	-1E+10	1	-1E+10	1	-1E+10	1	-1E+10	1
4901784	85	C	11/01/2017	10:47	-133.210	43.826	0	1985.20	0	1.9570	0	34.6760	4	27.726	0	1959.996	0	57.8	4	17.4	4	-1E+10	1	-1E+10	1	-1E+10	1	-1E+10	1	-1E+10	1	-1E+10	1
4901784	85	C	11/01/2017	10:47	-133.210	43.826	0	1990.20	0	1.9520	0	34.6760	4	27.726	0	1964.909	0	58.1	4	17.5	4	-1E+10	1	-1E+10	1	-1E+10	1	-1E+10	1	-1E+10	1	-1E+10	1
4901784	85	C	11/01/2017	10:47	-133.210	43.826	0	1995.20	0	1.9500	0	34.6780	4	27.728	0	1969.823	0	58.4	4	17.6	4	-1E+10	1	-1E+10	1	-1E+10	1	-1E+10	1	-1E+10	1	-1E+10	1
4901784	85	C	11/01/2017	10:47	-133.210	43.826	0	2000.20	0	1.9460	0	34.6790	4	27.729	0	1974.736	0	58.7	4	17.7	4	-1E+10	1	-1E+10	1	-1E+10	1	-1E+10	1	-1E+10	1	-1E+10	1
4901784	85	C	11/01/2017	10:47	-133.210	43.826	0	2005.20	0	1.9440	0	34.6810	4	27.731	0	1979.649	0	58.9	4	17.7	4	-1E+10	1	-1E+10	1	-1E+10	1	-1E+10	1	-1E+10	1	-1E+10	1
4901784	85	C	11/01/2017	10:47	-133.210	43.826	0	2010.40	0	1.9410	0	34.6830	4	27.733	0	1984.759	0	59.1	4	17.8	4	-1E+10	1	-1E+10	1	-1E+10	1	-1E+10	1	-1E+10	1	-1E+10	1
4901784	85	C	11/01/2017	10:47	-133.210	43.826	0	2015.10	0	1.9380	0	34.6840	4	27.734	0	1989.377	0	59.4	4	17.9	4	-1E+10	1	-1E+10	1	-1E+10	1	-1E+10	1	-1E+10	1	-1E+10	1
4901784	85	C	11/01/2017	10:47	-133.210	43.826	0	2020.00	0	1.9350	0	34.6830	4	27.734	0	1994.192	0	59.5	4	17.9	4	-1E+10	1	-1E+10	1	-1E+10	1	-1E+10	1	-1E+10	1	-1E+10	1
4901784	85	C	11/01/2017	10:47	-133.210	43.826	0																										
4901784	86	C	11/11/2017	10:48	-133.349	43.697	0	3.30	0	15.0620	0	33.0150	4	24.429	0	3.274	0	240.0	4	95.7	4	-1E+10	1	-1E+10	1	-1E+10	1	-1E+10	1	-1E+10	1	-1E+10	1
4901784	86	C	11/11/2017	10:48	-133.349	43.697	0	4.90	0	15.0640	0	33.0150	4	24.429	0	4.861	0	240.0	4	95.6	4	-1E+10	1	-1E+10	1	-1E+10	1	-1E+10	1	-1E+10	1	-1E+10	1
4901784	86	C	11/11/2017	10:48	-133.349	43.697	0	6.50	0	15.0630	0	33.0150	4	24.429	0	6.448	0	239.9	4	95.6	4	-1E+10	1	-1E+10	1	-1E+10	1	-1E+10	1	-1E+10	1	-1E+10	1
4901784	86	C	11/11/2017	10:48	-133.349	43.697	0	8.20	0	15.0640	0	33.0160	4	24.430	0	8.134	0	239.8	4	95.6	4	-1E+10	1	-1E+10	1	-1E+10	1	-1E+10	1	-1E+10	1	-1E+10	1
4901784	86	C	11/11/2017	10:48	-133.349	43.697	0	9.90	0	15.0630	0	33.0150	4	24.429	0	9.821	0	239.8	4	95.6	4	-1E+10	1	-1E+10	1	-1E+10	1	-1E+10	1	-1E+10	1	-1E+10	1
4901784	86	C	11/11/2017	10:48	-133.349	43.697	0	11.80	0	15.0650	0	33.0160	4	24.430	0	11.705	0	239.6	4	95.5	4	-1E+10	1	-1E+10	1	-1E+10	1	-1E+10	1	-1E+10	1	-1E+10	1
4901784	86	C	11/11/2017	10:48	-133.349	43.697	0	13.60	0	15.0640	0	33.0170	4	24.431	0	13.491	0	239.5	4	95.5	4	-1E+10	1	-1E+10	1	-1E+10	1	-1E+10	1	-1E+10	1	-1E+10	1
4901784	86	C	11/11/2017	10:48	-133.349	43.697	0	15.50	0	15.0660	0	33.0170	4	24.431	0	15.375	0	239.5	4	95.5	4	-1E+10	1	-1E+10	1	-1E+10	1	-1E+10	1	-1E+10	1	-1E+10	1
4901784	86	C	11/11/2017	10:48	-133.349	43.697	0	17.50	0	15.0670	0	33.0170	4	24.430	0	17.359	0	239.4	4	95.4	4	-1E+10	1	-1E+10	1	-1E+10	1	-1E+10	1	-1E+10	1	-1E+10	1
4901784	86	C	11/11/2017	10:48	-133.349	43.697	0	19.40	0	15.0670	0	33.0180	4	24.431	0	19.244	0	239.5	4	95.5	4	-1E+10	1	-1E+10	1	-1E+10	1	-1E+10	1	-1E+10	1	-1E+10	1
4901784	86	C	11/11/2017	10:48	-133.349	43.697	0	21.40	0	15.0650	0	33.0190	4	24.432	0	21.228	0	239.4	4	95.4	4	-1E+10	1	-1E+10	1	-1E+10	1	-1E+10	1	-1E+10	1	-1E+10	1
4901784	86	C	11/11/2017	10:48	-133.349	43.697	0	23.30	0	15.0660	0	33.0190	4	24.432	0	23.112	0	239.2	4	95.3	4	-1E+10	1	-1E+10	1	-1E+10	1	-1E+10	1	-1E+10	1	-1E+10	1
4901784	86	C	11/11/2017	10:48	-133.349	43.697	0	25.30	0	15.0660	0	33.0190	4	24.432	0	25.096	0	239.1	4	95.3	4	-1E+10	1	-1E+10	1	-1E+10	1	-1E+10	1	-1E+10	1	-1E+10	1
4901784	86	C	11/11/2017	10:48	-133.349	43.697	0	27.30	0	15.0670	0	33.0190	4	24.432	0	27.080	0	239.1	4	95.3	4	-1E+10	1	-1E+10	1	-1E+10	1	-1E+10	1	-1E+10	1	-1E+10	1
4901784	86	C	11/11/2017	10:48	-133.349	43.697	0	29.40	0	15.0650	0	33.0180	4	24.432	0	29.163	0	239.0	4	95.2	4	-1E+10	1	-1E+10	1	-1E+10	1	-1E+10	1	-1E+10	1	-1E+10	1
4901784	86	C	11/11/2017	10:48	-133.349	43.697	0	31.40	0	15.0650	0	33.0170	4	24.431	0	31.146	0	239.0	4	95.2	4	-1E+10	1	-1E+10	1	-1E+10	1	-1E+10	1	-1E+10	1	-1E+10	1
4901784	86	C	11/11/2017	10:48	-133.349	43.697	0	33.40	0	15.0660	0	33.0170	4	24.431	0	33.130	0	238.8	4	95.2	4	-1E+10	1	-1E+10	1	-1E+10	1	-1E+10	1	-1E+10	1	-1E+10	1
4901784	86	C	11/11/2017	10:48	-133.349	43.697	0	35.40	0	15.0670	0	33.0170	4	24.431	0	35.114	0	238.8	4	95.2	4	-1E+10	1	-1E+10	1	-1E+10	1	-1E+10	1	-1E+10	1	-1E+10	1
4901784	86	C	11/11/2017	10:48	-133.349	43.697	0	37.40	0	15.0680	0	33.0160	4	24.430	0	37.098	0	238.5	4	95.1	4	-1E+10	1	-1E+10	1	-1E+10	1	-1E+10	1	-1E+10	1	-1E+10	1
4901784	86	C	11/11/2017	10:48	-133.349	43.697	0	39.40	0	15.0660	0	33.0160	4	24.431	0	39.081	0	238.3	4	95.0	4	-1E+10	1	-1E+10	1	-1E+10	1	-1E+10	1	-1E+10	1	-1E+10	1
4901784	86	C	11/11/2017	10:48	-133.349	43.697	0	41.40	0	15.0700	0	33.0160	4	24.430	0	41.065	0	238.2	4	94.9	4	-1E+10	1	-1E+10	1	-1E+10	1	-1E+10	1	-1E+10	1	-1E+10	1
4901784	86	C	11/11/2017	10:48	-133.349	43.697	0	43.40	0	15.0690	0	33.0150	4	24.429	0	43.048	0	238.0	4	94.9	4	-1E+10	1	-1E+10	1	-1E+10	1	-1E+10	1	-1E+10	1	-1E+10	1
4901784	86	C	11/11/2017	10:48	-133.349	43.697	0	45.40	0	15.0700	0	33.0160	4	24.430	0	45.032	0	237.8	4	94.8	4	-1E+10	1	-1E+10	1	-1E+10	1	-1E+10	1	-1E+10	1	-1E+10	1
4901784	86	C	11/11/2017	10:48	-133.349	43.697	0	47.40	0	15.0710	0	33.0150	4	24.429	0	47.015	0	237.8	4	94.8	4	-1E+10	1	-1E+10	1	-1E+10	1	-1E+10	1	-1E+10	1	-1E+10	1
4901784	86	C	11/11/2017	10:48	-133.349	43.697	0	49.30	0	15.0690	0	33.0150	4	24.429	0	48.900	0	237.6	4	94.7	4	-1E+10	1	-1E+10	1	-1E+10	1	-1E+10	1	-1E+10	1	-1E+10	1
4901784	86	C	11/11/2017	10:48	-133.349	43.697	0	51.30	0	15.0680	0	33.0160	4	24.430	0	50.883	0	237.3	4	94.6	4	-1E+10	1	-1E+10	1	-1E+10	1	-1E+10	1	-1E+10	1	-1E+10	1
4901784	86	C	11/11/2017	10:48	-133.349	43.697	0	53.40	0	15.0680	0	33.0150	4	24.430	0	52.966	0	237.4	4	94.6	4	-1E+10	1	-1E+10	1	-1E+10	1	-1E+10	1	-1E+10	1	-1E+10	1
4901784	86	C	11/11/2017	10:48	-133.349	43.697	0	53.90	0	15.0690	0	33.0150	4	24.430	0	53.462	0	237.1	4	94.5	4	-1E+10	1	-1E+10	1	-1E+10	1	-1E+10	1	-1E+10	1	-1E+10	1
4901784	86	C	11/11/2017	10:48	-133.349	43.697	0	55.30	0	15.0690	0	33.0150	4	24.430	0	54.850	0	236.8	4	94.4	4	-1E+10	1	-1E+10	1	-1E+10	1	-1E+10	1	-1E+10	1	-1E+10	1
4901784	86	C	11/11/2017	10:48	-133.349	43.697	0	56.80	0	15.0710	0	33.0150	4	24.429	0	56.338	0	236.9	4	94.4	4	-1E+10	1	-1E+10	1	-1E+10	1	-1E+10	1	-1E+10	1	-1E+10	1
4901784	86	C	11/11/2017	10:48	-133.349	43.697	0	58.30	0	15.0700	0	33.0120	4	24.427	0	57.826	0	236.4	4	94.2	4	-1E+10	1	-1E+10	1	-1E+10	1	-1E+10	1	-1E+10	1	-1E+10	1
4901784	86	C	11/11/2017	10:48	-133.349	43.697	0	59.70	0	15.0700	0	33.0080	4	24.424	0	59.214	0	236.5	4	94.3	4	-1E+10	1	-1E+10	1	-1E+10	1	-1E+10	1	-1E+10	1	-1E+10	1
4901784	86	C	11/11/2017	10:48	-133.349	43.697	0	61.10	0	15.0740	0	33.0040	4	24.420	0	60.602	0	236.3	4	94.2	4	-1E+10	1	-1E+10	1	-1E+10	1	-1E+10	1	-1E+10	1	-1E+10	1
4901784	86	C	11/11/2017	10:48	-133.349	43.697	0	62.50	0	15.0680	0	32.9960	4	24.415	0	61.991	0	236.4	4	94.2	4	-1E+10	1	-1E+10	1	-1E+10	1	-1E+10	1	-1E+10	1	-1E+10	1
4901784	86	C	11/11/2017	10:48	-133.349	43.697	0	63.80	0	15.0600	0	32.9820	4	24.406	0	63.280	0	236.3	4	94.1	4	-1E+10	1	-1E+10	1	-1E+10	1	-1E+10	1	-1E+10	1	-1E+10	1
4901784	86	C	11/11/2017	10:48	-133.349	43.697	0	65.20	0	15.0390	0	32.9530	4	24.389	0	64.668	0	236.9	4	94.3	4	-1E+10	1	-1E+10	1	-1E+10	1	-1E+10	1	-1E+10	1	-1E+10	1
4901784	86	C	11/11/2017	10:48	-133.349	43.697	0	66.50	0	14.0500	0	32.9540	4	24.599	0	65.957	0	240.2	4	93.8	4	-1E+10	1	-1E+10	1	-1E+10	1	-1E+10	1	-1E+10	1	-1E+10	1
4901784	86	C	11/11/2017	10:48	-133.349	43.697	0	68.10	0	13.2410	0	32.9170	4	24.734	0	67.544	0	241.9	4	92.9	4	-1E+10	1	-1E+10	1	-1E+10	1	-1E+10	1	-1E+10	1	-1E+10	1
4901784	86	C	11/11/2017	10:48	-133.349	43.697	0	69.90	0	11.6240	0	32.9560	4	25.074	0	69.329	0	248.9	4	92.5	4	-1E+10	1	-1E+10	1	-1E+10	1	-1E+10	1	-1E+10	1	-1E+10	1
4901784	86	C	11/11/2017	10:48	-133.349	43.697	0	71.70	0	11.3770	0	32.9510	4	25.115	0	71.114	0	249.0	4	92.0	4	-1E+10	1	-1E+10	1	-1E+10	1	-1E+10	1	-1E+10	1	-1E+10	1
4901784	86	C	11/11/2017	10:48	-133.349	43.697	0	73.50	0	11.1640	0	32.9650	4	25.164	0	72.899	0	248.1	4	91.3	4	-1E+10	1	-1E+10	1	-1E+10	1	-1E+10	1	-1E+10	1	-1E+10	1
4901784	86	C	11/11/2017	10:48	-133.349	43.697	0	75.30	0	11.0950	0	32.9610	4	25.173	0	74.684	0	247.8	4	91.0	4	-1E+10	1	-1E+10	1	-1E+10	1	-1E+10	1	-1E+10	1	-1E+10	1
4901784	86	C	11/11/2017	10:48	-133.349	43.697	0	77.20	0	11.0460	0	32.9580	4	25.180	0	76.568	0	246.5	4	90.5	4	-1E+10	1	-1E+10	1	-1E+10	1	-1E+10	1	-1E+10	1	-1E+10	1
4901784	86	C	11/11/2017	10:48	-133.349	43.697	0	79.00	0	10.9060	0	32.9690	4	25.213	0	78.353	0	244.9	4	89.6	4	-1E+10	1	-1E+10	1	-1E+10	1	-1E+10	1	-1E+10	1	-1E+10	1
4901784	86	C	11/11/2017	10:48	-133.349	43.697	0	80.70	0	10.8620	0	32.9710	4	25.222	0	80.039	0	242.8	4	88.8	4	-1E+10	1	-1E+10	1	-1E+10	1	-1E+10	1	-1E+10	1	-1E+10	1
4901784	86	C	11/11/2017	10:48	-133.349	43.697	0	82.90	0	10.8130	0	32.9690	4	25.229	0	82.220	0	238.7	4	87.2	4	-1E+10	1	-1E+10	1	-1E+10	1	-1E+10	1	-1E+10	1	-1E+10	1
4901784	86	C	11/11/2017	10:48	-133.349	43.697	0	84.60	0	10.6190	0	32.9820	4	25.273	0	83.906	0	233.7	4	85.0	4	-1E+10	1	-1E+10	1	-1E+10	1	-1E+10	1	-1E+10	1	-1E+10	1
4901784	86	C	11/11/2017	10:48	-133.349	43.697	0	86.10	0	10.4160	0	32.9970	4	25.320	0	85.394	0	230.3	4	83.4	4	-1E+10	1	-1E+10	1	-1E+10	1	-1E+10	1	-1E+10	1	-1E+10	1
4901784	86	C	11/11/2017	10:48	-133.349	43.697	0	87.50	0	10.2170	0	33.0200	4	25.372	0	86.782	0	225.7	4	81.4	4	-1E+10	1	-1E+10	1	-1E+10	1	-1E+10	1	-1E+10	1	-1E+10	1
4901784	86	C	11/11/2017	10:48	-133.349	43.697	0	89.00	0	10.0630	0	33.0570	4	25.427	0	88.269	0	221.9	4	79.8	4	-1E+10	1	-1E+10	1	-1E+10	1	-1E+10	1	-1E+10	1	-1E+10	1
4901784	86	C	11/11/2017	10:48	-133.349	43.697	0	90.50	0	9.9470	0	33.0910	4	25.472	0	89.756	0	218.9	4	78.5	4	-1E+10	1	-1E+10	1	-1E+10	1	-1E+10	1	-1E+10	1	-1E+10	1
4901784	86	C	11/11/2017	10:48	-133.349	43.697	0	92.20	0	9.8680	0	33.1070	4	25.498	0	91.442	0	215.7	4	77.3	4	-1E+10	1	-1E+10	1	-1E+10	1	-1E+10	1	-1E+10	1	-1E+10	1
4901784	86	C	11/11/2017	10:48	-133.349	43.697	0	92.60	0	9.8600	0	33.1100	4	25.502	0	91.839	0	214.3	4	76.7	4	-1E+10	1	-1E+10	1	-1E+10	1	-1E+10	1	-1E+10	1	-1E+10	1
4901784	86	C	11/11/2017	10:48	-133.349	43.697	0	93.80	0	9.8310	0	33.1170	4	25.512	0	93.029	0	210.3	4	75.3	4	-1E+10	1	-1E+10	1	-1E+10	1	-1E+10	1	-1E+10	1	-1E+10	1
4901784	86	C	11/11/2017	10:48	-133.349	43.697	0	95.00	0	9.7960	0	33.1250	4	25.524	0	94.218	0	205.4	4	73.5	4	-1E+10	1	-1E+10	1	-1E+10	1	-1E+10	1	-1E+10	1	-1E+10	1
4901784	86	C	11/11/2017	10:48	-133.349	43.697	0	96.20	0	9.7330	0	33.1430	4	25.549	0	95.408	0	199.2	4	71.2	4	-1E+10	1	-1E+10	1	-1E+10	1	-1E+10	1	-1E+10	1	-1E+10	1
4901784	86	C	11/11/2017	10:48	-133.349	43.697	0	97.40	0	9.5670	0	33.2100	4	25.628	0	96.598	0	193.0	4	68.7	4	-1E+10	1	-1E+10	1	-1E+10	1	-1E+10	1	-1E+10	1	-1E+10	1
4901784	86	C	11/11/2017	10:48	-133.349	43.697	0	98.80	0	9.4690	0	33.2680	4	25.689	0	97.986	0	187.1	4	66.5	4	-1E+10	1	-1E+10	1	-1E+10	1	-1E+10	1	-1E+10	1	-1E+10	1
4901784	86	C	11/11/2017	10:48	-133.349	43.697	0	100.10	0	9.4090	0	33.2990	4	25.723	0	99.275	0	181.1	4	64.3	4	-1E+10	1	-1E+10	1	-1E+10	1	-1E+10	1	-1E+10	1	-1E+10	1
4901784	86	C	11/11/2017	10:48	-133.349	43.697	0	102.20	0	9.2460	0	33.4090	4	25.835	0	101.357	0	173.0	4	61.3	4	-1E+10	1	-1E+10	1	-1E+10	1	-1E+10	1	-1E+10	1	-1E+10	1
4901784	86	C	11/11/2017	10:48	-133.349	43.697	0	105.20	0	9.1230	0	33.4910	4	25.919	0	104.332	0	167.3	4	59.1	4	-1E+10	1	-1E+10	1	-1E+10	1	-1E+10	1	-1E+10	1	-1E+10	1
4901784	86	C	11/11/2017	10:48	-133.349	43.697	0	107.60	0	9.0900	0	33.5070	4	25.937	0	106.712	0	163.3	4	57.7	4	-1E+10	1	-1E+10	1	-1E+10	1	-1E+10	1	-1E+10	1	-1E+10	1
4901784	86	C	11/11/2017	10:48	-133.349	43.697	0	110.00	0	9.0560	0	33.5280	4	25.959	0	109.091	0	158.6	4	56.0	4	-1E+10	1	-1E+10	1	-1E+10	1	-1E+10	1	-1E+10	1	-1E+10	1
4901784	86	C	11/11/2017	10:48	-133.349	43.697	0	112.40	0	8.9820	0	33.5750	4	26.007	0	111.471	0	153.9	4	54.3	4	-1E+10	1	-1E+10	1	-1E+10	1	-1E+10	1	-1E+10	1	-1E+10	1
4901784	86	C	11/11/2017	10:48	-133.349	43.697	0	114.80	0	8.9210	0	33.6050	4	26.040	0	113.850	0	150.7	4	53.1	4	-1E+10	1	-1E+10	1	-1E+10	1	-1E+10	1	-1E+10	1	-1E+10	1
4901784	86	C	11/11/2017	10:48	-133.349	43.697	0	117.30	0	8.8530	0	33.6400	4	26.079	0	116.329	0	147.8	4	52.0	4	-1E+10	1	-1E+10	1	-1E+10	1	-1E+10	1	-1E+10	1	-1E+10	1
4901784	86	C	11/11/2017	10:48	-133.349	43.697	0	119.80	0	8.8200	0	33.6580	4	26.098	0	118.807	0	145.0	4	51.0	4	-1E+10	1	-1E+10	1	-1E+10	1	-1E+10	1	-1E+10	1	-1E+10	1
4901784	86	C	11/11/2017	10:48	-133.349	43.697	0	122.40	0	8.7890	0	33.6690	4	26.111	0	121.385	0	141.6	4	49.8	4	-1E+10	1	-1E+10	1	-1E+10	1	-1E+10	1	-1E+10	1	-1E+10	1
4901784	86	C	11/11/2017	10:48	-133.349	43.697	0	125.10	0	8.7260	0	33.7010	4	26.146	0	124.062	0	138.1	4	48.5	4	-1E+10	1	-1E+10	1	-1E+10	1	-1E+10	1	-1E+10	1	-1E+10	1
4901784	86	C	11/11/2017	10:48	-133.349	43.697	0	127.70	0	8.6430	0	33.7390	4	26.189	0	126.639	0	135.2	4	47.4	4	-1E+10	1	-1E+10	1	-1E+10	1	-1E+10	1	-1E+10	1	-1E+10	1
4901784	86	C	11/11/2017	10:48	-133.349	43.697	0	130.00	0	8.6180	0	33.7480	4	26.200	0	128.920	0	132.7	4	46.5	4	-1E+10	1	-1E+10	1	-1E+10	1	-1E+10	1	-1E+10	1	-1E+10	1
4901784	86	C	11/11/2017	10:48	-133.349	43.697	0	132.50	0	8.5360	0	33.7820	4	26.239	0	131.398	0	129.5	4	45.3	4	-1E+10	1	-1E+10	1	-1E+10	1	-1E+10	1	-1E+10	1	-1E+10	1
4901784	86	C	11/11/2017	10:48	-133.349	43.697	0	134.80	0	8.4630	0	33.8110	4	26.273	0	133.678	0	127.5	4	44.5	4	-1E+10	1	-1E+10	1	-1E+10	1	-1E+10	1	-1E+10	1	-1E+10	1
4901784	86	C	11/11/2017	10:48	-133.349	43.697	0	137.20	0	8.4400	0	33.8190	4	26.283	0	136.057	0	125.2	4	43.7	4	-1E+10	1	-1E+10	1	-1E+10	1	-1E+10	1	-1E+10	1	-1E+10	1
4901784	86	C	11/11/2017	10:48	-133.349	43.697	0	140.40	0	8.3540	0	33.8460	4	26.317	0	139.230	0	122.0	4	42.5	4	-1E+10	1	-1E+10	1	-1E+10	1	-1E+10	1	-1E+10	1	-1E+10	1
4901784	86	C	11/11/2017	10:48	-133.349	43.697	0	142.80	0	8.2920	0	33.8660	4	26.342	0	141.609	0	120.1	4	41.8	4	-1E+10	1	-1E+10	1	-1E+10	1	-1E+10	1	-1E+10	1	-1E+10	1
4901784	86	C	11/11/2017	10:48	-133.349	43.697	0	145.30	0	8.2430	0	33.8820	4	26.362	0	144.087	0	118.4	4	41.1	4	-1E+10	1	-1E+10	1	-1E+10	1	-1E+10	1	-1E+10	1	-1E+10	1
4901784	86	C	11/11/2017	10:48	-133.349	43.697	0	147.70	0	8.2000	0	33.8930	4	26.377	0	146.466	0	116.9	4	40.6	4	-1E+10	1	-1E+10	1	-1E+10	1	-1E+10	1	-1E+10	1	-1E+10	1
4901784	86	C	11/11/2017	10:48	-133.349	43.697	0	150.20	0	8.1730	0	33.8980	4	26.385	0	148.944	0	115.4	4	40.1	4	-1E+10	1	-1E+10	1	-1E+10	1	-1E+10	1	-1E+10	1	-1E+10	1
4901784	86	C	11/11/2017	10:48	-133.349	43.697	0	152.60	0	8.1600	0	33.8980	4	26.387	0	151.324	0	113.6	4	39.4	4	-1E+10	1	-1E+10	1	-1E+10	1	-1E+10	1	-1E+10	1	-1E+10	1
4901784	86	C	11/11/2017	10:48	-133.349	43.697	0	155.10	0	8.0860	0	33.9160	4	26.412	0	153.802	0	112.3	4	38.9	4	-1E+10	1	-1E+10	1	-1E+10	1	-1E+10	1	-1E+10	1	-1E+10	1
4901784	86	C	11/11/2017	10:48	-133.349	43.697	0	157.70	0	8.0590	0	33.9210	4	26.420	0	156.379	0	111.6	4	38.7	4	-1E+10	1	-1E+10	1	-1E+10	1	-1E+10	1	-1E+10	1	-1E+10	1
4901784	86	C	11/11/2017	10:48	-133.349	43.697	0	160.20	0	8.0280	0	33.9280	4	26.430	0	158.857	0	110.6	4	38.3	4	-1E+10	1	-1E+10	1	-1E+10	1	-1E+10	1	-1E+10	1	-1E+10	1
4901784	86	C	11/11/2017	10:48	-133.349	43.697	0	162.80	0	7.9890	0	33.9350	4	26.442	0	161.434	0	109.7	4	37.9	4	-1E+10	1	-1E+10	1	-1E+10	1	-1E+10	1	-1E+10	1	-1E+10	1
4901784	86	C	11/11/2017	10:48	-133.349	43.697	0	165.40	0	7.9380	0	33.9440	4	26.456	0	164.011	0	109.0	4	37.6	4	-1E+10	1	-1E+10	1	-1E+10	1	-1E+10	1	-1E+10	1	-1E+10	1
4901784	86	C	11/11/2017	10:48	-133.349	43.697	0	167.90	0	7.9200	0	33.9470	4	26.461	0	166.489	0	108.3	4	37.4	4	-1E+10	1	-1E+10	1	-1E+10	1	-1E+10	1	-1E+10	1	-1E+10	1
4901784	86	C	11/11/2017	10:48	-133.349	43.697	0	170.40	0	7.8530	0	33.9580	4	26.480	0	168.967	0	107.5	4	37.1	4	-1E+10	1	-1E+10	1	-1E+10	1	-1E+10	1	-1E+10	1	-1E+10	1
4901784	86	C	11/11/2017	10:48	-133.349	43.697	0	173.00	0	7.7970	0	33.9670	4	26.495	0	171.544	0	106.8	4	36.8	4	-1E+10	1	-1E+10	1	-1E+10	1	-1E+10	1	-1E+10	1	-1E+10	1
4901784	86	C	11/11/2017	10:48	-133.349	43.697	0	174.70	0	7.7660	0	33.9710	4	26.503	0	173.229	0	106.5	4	36.7	4	-1E+10	1	-1E+10	1	-1E+10	1	-1E+10	1	-1E+10	1	-1E+10	1
4901784	86	C	11/11/2017	10:48	-133.349	43.697	0	177.20	0	7.7100	0	33.9800	4	26.518	0	175.707	0	106.4	4	36.6	4	-1E+10	1	-1E+10	1	-1E+10	1	-1E+10	1	-1E+10	1	-1E+10	1
4901784	86	C	11/11/2017	10:48	-133.349	43.697	0	179.70	0	7.6740	0	33.9840	4	26.526	0	178.185	0	105.5	4	36.2	4	-1E+10	1	-1E+10	1	-1E+10	1	-1E+10	1	-1E+10	1	-1E+10	1
4901784	86	C	11/11/2017	10:48	-133.349	43.697	0	182.20	0	7.6390	0	33.9870	4	26.534	0	180.663	0	104.3	4	35.8	4	-1E+10	1	-1E+10	1	-1E+10	1	-1E+10	1	-1E+10	1	-1E+10	1
4901784	86	C	11/11/2017	10:48	-133.349	43.697	0	184.80	0	7.5870	0	33.9930	4	26.546	0	183.240	0	104.2	4	35.7	4	-1E+10	1	-1E+10	1	-1E+10	1	-1E+10	1	-1E+10	1	-1E+10	1
4901784	86	C	11/11/2017	10:48	-133.349	43.697	0	187.30	0	7.5600	0	33.9950	4	26.551	0	185.718	0	104.1	4	35.7	4	-1E+10	1	-1E+10	1	-1E+10	1	-1E+10	1	-1E+10	1	-1E+10	1
4901784	86	C	11/11/2017	10:48	-133.349	43.697	0	189.90	0	7.5190	0	33.9980	4	26.560	0	188.295	0	103.2	4	35.3	4	-1E+10	1	-1E+10	1	-1E+10	1	-1E+10	1	-1E+10	1	-1E+10	1
4901784	86	C	11/11/2017	10:48	-133.349	43.697	0	192.50	0	7.4870	0	34.0010	4	26.567	0	190.871	0	103.7	4	35.5	4	-1E+10	1	-1E+10	1	-1E+10	1	-1E+10	1	-1E+10	1	-1E+10	1
4901784	86	C	11/11/2017	10:48	-133.349	43.697	0	195.10	0	7.4430	0	34.0050	4	26.576	0	193.448	0	104.4	4	35.7	4	-1E+10	1	-1E+10	1	-1E+10	1	-1E+10	1	-1E+10	1	-1E+10	1
4901784	86	C	11/11/2017	10:48	-133.349	43.697	0	197.60	0	7.4100	0	34.0070	4	26.582	0	195.926	0	105.2	4	35.9	4	-1E+10	1	-1E+10	1	-1E+10	1	-1E+10	1	-1E+10	1	-1E+10	1
4901784	86	C	11/11/2017	10:48	-133.349	43.697	0	200.20	0	7.3830	0	34.0100	4	26.589	0	198.503	0	105.9	4	36.1	4	-1E+10	1	-1E+10	1	-1E+10	1	-1E+10	1	-1E+10	1	-1E+10	1
4901784	86	C	11/11/2017	10:48	-133.349	43.697	0	202.70	0	7.3420	0	34.0100	4	26.594	0	200.980	0	108.8	4	37.1	4	-1E+10	1	-1E+10	1	-1E+10	1	-1E+10	1	-1E+10	1	-1E+10	1
4901784	86	C	11/11/2017	10:48	-133.349	43.697	0	205.20	0	7.3160	0	34.0100	4	26.598	0	203.458	0	110.3	4	37.6	4	-1E+10	1	-1E+10	1	-1E+10	1	-1E+10	1	-1E+10	1	-1E+10	1
4901784	86	C	11/11/2017	10:48	-133.349	43.697	0	207.80	0	7.2770	0	34.0100	4	26.603	0	206.034	0	111.8	4	38.1	4	-1E+10	1	-1E+10	1	-1E+10	1	-1E+10	1	-1E+10	1	-1E+10	1
4901784	86	C	11/11/2017	10:48	-133.349	43.697	0	210.30	0	7.2170	0	34.0130	4	26.614	0	208.512	0	111.0	4	37.7	4	-1E+10	1	-1E+10	1	-1E+10	1	-1E+10	1	-1E+10	1	-1E+10	1
4901784	86	C	11/11/2017	10:48	-133.349	43.697	0	212.10	0	7.1950	0	34.0120	4	26.617	0	210.296	0	108.5	4	36.9	4	-1E+10	1	-1E+10	1	-1E+10	1	-1E+10	1	-1E+10	1	-1E+10	1
4901784	86	C	11/11/2017	10:48	-133.349	43.697	0	214.70	0	7.1810	0	34.0150	4	26.621	0	212.872	0	102.6	4	34.9	4	-1E+10	1	-1E+10	1	-1E+10	1	-1E+10	1	-1E+10	1	-1E+10	1
4901784	86	C	11/11/2017	10:48	-133.349	43.697	0	217.30	0	7.1920	0	34.0200	4	26.623	0	215.449	0	98.9	4	33.6	4	-1E+10	1	-1E+10	1	-1E+10	1	-1E+10	1	-1E+10	1	-1E+10	1
4901784	86	C	11/11/2017	10:48	-133.349	43.697	0	220.00	0	7.1610	0	34.0200	4	26.628	0	218.124	0	100.2	4	34.0	4	-1E+10	1	-1E+10	1	-1E+10	1	-1E+10	1	-1E+10	1	-1E+10	1
4901784	86	C	11/11/2017	10:48	-133.349	43.697	0	222.60	0	7.0870	0	34.0200	4	26.638	0	220.701	0	101.8	4	34.5	4	-1E+10	1	-1E+10	1	-1E+10	1	-1E+10	1	-1E+10	1	-1E+10	1
4901784	86	C	11/11/2017	10:48	-133.349	43.697	0	225.20	0	7.0310	0	34.0220	4	26.647	0	223.277	0	103.1	4	34.9	4	-1E+10	1	-1E+10	1	-1E+10	1	-1E+10	1	-1E+10	1	-1E+10	1
4901784	86	C	11/11/2017	10:48	-133.349	43.697	0	227.90	0	6.9450	0	34.0220	4	26.659	0	225.953	0	103.7	4	35.0	4	-1E+10	1	-1E+10	1	-1E+10	1	-1E+10	1	-1E+10	1	-1E+10	1
4901784	86	C	11/11/2017	10:48	-133.349	43.697	0	229.70	0	6.9170	0	34.0240	4	26.664	0	227.736	0	102.8	4	34.7	4	-1E+10	1	-1E+10	1	-1E+10	1	-1E+10	1	-1E+10	1	-1E+10	1
4901784	86	C	11/11/2017	10:48	-133.349	43.697	0	232.40	0	6.8920	0	34.0240	4	26.668	0	230.412	0	101.9	4	34.4	4	-1E+10	1	-1E+10	1	-1E+10	1	-1E+10	1	-1E+10	1	-1E+10	1
4901784	86	C	11/11/2017	10:48	-133.349	43.697	0	235.10	0	6.8660	0	34.0260	4	26.673	0	233.087	0	100.6	4	33.9	4	-1E+10	1	-1E+10	1	-1E+10	1	-1E+10	1	-1E+10	1	-1E+10	1
4901784	86	C	11/11/2017	10:48	-133.349	43.697	0	237.80	0	6.8400	0	34.0280	4	26.678	0	235.762	0	100.0	4	33.7	4	-1E+10	1	-1E+10	1	-1E+10	1	-1E+10	1	-1E+10	1	-1E+10	1
4901784	86	C	11/11/2017	10:48	-133.349	43.697	0	240.50	0	6.8220	0	34.0260	4	26.679	0	238.438	0	99.8	4	33.6	4	-1E+10	1	-1E+10	1	-1E+10	1	-1E+10	1	-1E+10	1	-1E+10	1
4901784	86	C	11/11/2017	10:48	-133.349	43.697	0	242.40	0	6.7950	0	34.0270	4	26.683	0	240.320	0	99.3	4	33.5	4	-1E+10	1	-1E+10	1	-1E+10	1	-1E+10	1	-1E+10	1	-1E+10	1
4901784	86	C	11/11/2017	10:48	-133.349	43.697	0	245.10	0	6.7420	0	34.0280	4	26.691	0	242.995	0	98.9	4	33.3	4	-1E+10	1	-1E+10	1	-1E+10	1	-1E+10	1	-1E+10	1	-1E+10	1
4901784	86	C	11/11/2017	10:48	-133.349	43.697	0	247.90	0	6.6940	0	34.0290	4	26.698	0	245.770	0	98.8	4	33.2	4	-1E+10	1	-1E+10	1	-1E+10	1	-1E+10	1	-1E+10	1	-1E+10	1
4901784	86	C	11/11/2017	10:48	-133.349	43.697	0	249.70	0	6.6740	0	34.0280	4	26.700	0	247.553	0	98.8	4	33.2	4	-1E+10	1	-1E+10	1	-1E+10	1	-1E+10	1	-1E+10	1	-1E+10	1
4901784	86	C	11/11/2017	10:48	-133.349	43.697	0	252.40	0	6.6310	0	34.0260	4	26.705	0	250.228	0	98.2	4	32.9	4	-1E+10	1	-1E+10	1	-1E+10	1	-1E+10	1	-1E+10	1	-1E+10	1
4901784	86	C	11/11/2017	10:48	-133.349	43.697	0	255.10	0	6.6090	0	34.0290	4	26.710	0	252.903	0	97.6	4	32.7	4	-1E+10	1	-1E+10	1	-1E+10	1	-1E+10	1	-1E+10	1	-1E+10	1
4901784	86	C	11/11/2017	10:48	-133.349	43.697	0	257.00	0	6.5660	0	34.0290	4	26.716	0	254.786	0	98.3	4	32.9	4	-1E+10	1	-1E+10	1	-1E+10	1	-1E+10	1	-1E+10	1	-1E+10	1
4901784	86	C	11/11/2017	10:48	-133.349	43.697	0	259.70	0	6.5220	0	34.0270	4	26.720	0	257.461	0	100.1	4	33.5	4	-1E+10	1	-1E+10	1	-1E+10	1	-1E+10	1	-1E+10	1	-1E+10	1
4901784	86	C	11/11/2017	10:48	-133.349	43.697	0	262.50	0	6.4250	0	34.0230	4	26.729	0	260.235	0	102.5	4	34.2	4	-1E+10	1	-1E+10	1	-1E+10	1	-1E+10	1	-1E+10	1	-1E+10	1
4901784	86	C	11/11/2017	10:48	-133.349	43.697	0	265.20	0	6.3460	0	34.0210	4	26.738	0	262.910	0	105.2	4	35.1	4	-1E+10	1	-1E+10	1	-1E+10	1	-1E+10	1	-1E+10	1	-1E+10	1
4901784	86	C	11/11/2017	10:48	-133.349	43.697	0	268.00	0	6.2640	0	34.0130	4	26.742	0	265.684	0	107.1	4	35.6	4	-1E+10	1	-1E+10	1	-1E+10	1	-1E+10	1	-1E+10	1	-1E+10	1
4901784	86	C	11/11/2017	10:48	-133.349	43.697	0	269.80	0	6.2270	0	34.0110	4	26.745	0	267.467	0	107.8	4	35.8	4	-1E+10	1	-1E+10	1	-1E+10	1	-1E+10	1	-1E+10	1	-1E+10	1
4901784	86	C	11/11/2017	10:48	-133.349	43.697	0	272.60	0	6.1940	0	34.0070	4	26.747	0	270.241	0	108.5	4	36.0	4	-1E+10	1	-1E+10	1	-1E+10	1	-1E+10	1	-1E+10	1	-1E+10	1
4901784	86	C	11/11/2017	10:48	-133.349	43.697	0	275.20	0	6.1370	0	34.0070	4	26.754	0	272.817	0	108.4	4	35.9	4	-1E+10	1	-1E+10	1	-1E+10	1	-1E+10	1	-1E+10	1	-1E+10	1
4901784	86	C	11/11/2017	10:48	-133.349	43.697	0	277.10	0	6.0990	0	33.9990	4	26.752	0	274.699	0	107.5	4	35.6	4	-1E+10	1	-1E+10	1	-1E+10	1	-1E+10	1	-1E+10	1	-1E+10	1
4901784	86	C	11/11/2017	10:48	-133.349	43.697	0	279.80	0	6.0090	0	34.0040	4	26.768	0	277.374	0	105.0	4	34.7	4	-1E+10	1	-1E+10	1	-1E+10	1	-1E+10	1	-1E+10	1	-1E+10	1
4901784	86	C	11/11/2017	10:48	-133.349	43.697	0	282.60	0	6.0010	0	34.0040	4	26.769	0	280.148	0	101.5	4	33.6	4	-1E+10	1	-1E+10	1	-1E+10	1	-1E+10	1	-1E+10	1	-1E+10	1
4901784	86	C	11/11/2017	10:48	-133.349	43.697	0	284.40	0	5.9940	0	34.0100	4	26.774	0	281.931	0	98.2	4	32.5	4	-1E+10	1	-1E+10	1	-1E+10	1	-1E+10	1	-1E+10	1	-1E+10	1
4901784	86	C	11/11/2017	10:48	-133.349	43.697	0	287.50	0	6.0350	0	34.0190	4	26.776	0	285.002	0	94.3	4	31.2	4	-1E+10	1	-1E+10	1	-1E+10	1	-1E+10	1	-1E+10	1	-1E+10	1
4901784	86	C	11/11/2017	10:48	-133.349	43.697	0	290.30	0	6.0440	0	34.0220	4	26.778	0	287.776	0	91.0	4	30.1	4	-1E+10	1	-1E+10	1	-1E+10	1	-1E+10	1	-1E+10	1	-1E+10	1
4901784	86	C	11/11/2017	10:48	-133.349	43.697	0	292.70	0	6.0130	0	34.0250	4	26.784	0	290.153	0	89.1	4	29.5	4	-1E+10	1	-1E+10	1	-1E+10	1	-1E+10	1	-1E+10	1	-1E+10	1
4901784	86	C	11/11/2017	10:48	-133.349	43.697	0	295.10	0	5.9700	0	34.0280	4	26.792	0	292.531	0	87.3	4	28.8	4	-1E+10	1	-1E+10	1	-1E+10	1	-1E+10	1	-1E+10	1	-1E+10	1
4901784	86	C	11/11/2017	10:48	-133.349	43.697	0	297.50	0	5.9330	0	34.0320	4	26.799	0	294.908	0	87.0	4	28.7	4	-1E+10	1	-1E+10	1	-1E+10	1	-1E+10	1	-1E+10	1	-1E+10	1
4901784	86	C	11/11/2017	10:48	-133.349	43.697	0	299.80	0	5.9100	0	34.0300	4	26.801	0	297.187	0	86.9	4	28.7	4	-1E+10	1	-1E+10	1	-1E+10	1	-1E+10	1	-1E+10	1	-1E+10	1
4901784	86	C	11/11/2017	10:48	-133.349	43.697	0	302.30	0	5.8850	0	34.0290	4	26.803	0	299.663	0	86.7	4	28.6	4	-1E+10	1	-1E+10	1	-1E+10	1	-1E+10	1	-1E+10	1	-1E+10	1
4901784	86	C	11/11/2017	10:48	-133.349	43.697	0	305.40	0	5.8540	0	34.0290	4	26.807	0	302.734	0	85.8	4	28.3	4	-1E+10	1	-1E+10	1	-1E+10	1	-1E+10	1	-1E+10	1	-1E+10	1
4901784	86	C	11/11/2017	10:48	-133.349	43.697	0	307.80	0	5.8440	0	34.0280	4	26.807	0	305.111	0	84.6	4	27.9	4	-1E+10	1	-1E+10	1	-1E+10	1	-1E+10	1	-1E+10	1	-1E+10	1
4901784	86	C	11/11/2017	10:48	-133.349	43.697	0	310.20	0	5.8130	0	34.0310	4	26.814	0	307.488	0	83.3	4	27.4	4	-1E+10	1	-1E+10	1	-1E+10	1	-1E+10	1	-1E+10	1	-1E+10	1
4901784	86	C	11/11/2017	10:48	-133.349	43.697	0	312.70	0	5.7970	0	34.0330	4	26.817	0	309.964	0	82.3	4	27.1	4	-1E+10	1	-1E+10	1	-1E+10	1	-1E+10	1	-1E+10	1	-1E+10	1
4901784	86	C	11/11/2017	10:48	-133.349	43.697	0	315.10	0	5.7850	0	34.0320	4	26.818	0	312.342	0	80.9	4	26.6	4	-1E+10	1	-1E+10	1	-1E+10	1	-1E+10	1	-1E+10	1	-1E+10	1
4901784	86	C	11/11/2017	10:48	-133.349	43.697	0	317.50	0	5.7730	0	34.0330	4	26.820	0	314.719	0	78.7	4	25.9	4	-1E+10	1	-1E+10	1	-1E+10	1	-1E+10	1	-1E+10	1	-1E+10	1
4901784	86	C	11/11/2017	10:48	-133.349	43.697	0	320.00	0	5.7870	0	34.0420	4	26.826	0	317.195	0	75.2	4	24.7	4	-1E+10	1	-1E+10	1	-1E+10	1	-1E+10	1	-1E+10	1	-1E+10	1
4901784	86	C	11/11/2017	10:48	-133.349	43.697	0	322.50	0	5.8330	0	34.0510	4	26.827	0	319.671	0	73.1	4	24.1	4	-1E+10	1	-1E+10	1	-1E+10	1	-1E+10	1	-1E+10	1	-1E+10	1
4901784	86	C	11/11/2017	10:48	-133.349	43.697	0	325.00	0	5.8080	0	34.0500	4	26.829	0	322.147	0	72.6	4	23.9	4	-1E+10	1	-1E+10	1	-1E+10	1	-1E+10	1	-1E+10	1	-1E+10	1
4901784	86	C	11/11/2017	10:48	-133.349	43.697	0	327.50	0	5.7720	0	34.0510	4	26.835	0	324.623	0	72.2	4	23.7	4	-1E+10	1	-1E+10	1	-1E+10	1	-1E+10	1	-1E+10	1	-1E+10	1
4901784	86	C	11/11/2017	10:48	-133.349	43.697	0	330.00	0	5.7390	0	34.0510	4	26.839	0	327.099	0	71.7	4	23.6	4	-1E+10	1	-1E+10	1	-1E+10	1	-1E+10	1	-1E+10	1	-1E+10	1
4901784	86	C	11/11/2017	10:48	-133.349	43.697	0	332.50	0	5.7160	0	34.0510	4	26.842	0	329.575	0	71.3	4	23.4	4	-1E+10	1	-1E+10	1	-1E+10	1	-1E+10	1	-1E+10	1	-1E+10	1
4901784	86	C	11/11/2017	10:48	-133.349	43.697	0	335.10	0	5.6780	0	34.0500	4	26.845	0	332.151	0	70.9	4	23.3	4	-1E+10	1	-1E+10	1	-1E+10	1	-1E+10	1	-1E+10	1	-1E+10	1
4901784	86	C	11/11/2017	10:48	-133.349	43.697	0	337.60	0	5.6590	0	34.0500	4	26.848	0	334.626	0	70.1	4	23.0	4	-1E+10	1	-1E+10	1	-1E+10	1	-1E+10	1	-1E+10	1	-1E+10	1
4901784	86	C	11/11/2017	10:48	-133.349	43.697	0	340.20	0	5.6350	0	34.0520	4	26.852	0	337.201	0	68.9	4	22.6	4	-1E+10	1	-1E+10	1	-1E+10	1	-1E+10	1	-1E+10	1	-1E+10	1
4901784	86	C	11/11/2017	10:48	-133.349	43.697	0	342.70	0	5.6070	0	34.0540	4	26.857	0	339.677	0	67.9	4	22.3	4	-1E+10	1	-1E+10	1	-1E+10	1	-1E+10	1	-1E+10	1	-1E+10	1
4901784	86	C	11/11/2017	10:48	-133.349	43.697	0	345.30	0	5.5920	0	34.0550	4	26.860	0	342.252	0	67.0	4	22.0	4	-1E+10	1	-1E+10	1	-1E+10	1	-1E+10	1	-1E+10	1	-1E+10	1
4901784	86	C	11/11/2017	10:48	-133.349	43.697	0	347.90	0	5.5680	0	34.0570	4	26.864	0	344.827	0	66.0	4	21.6	4	-1E+10	1	-1E+10	1	-1E+10	1	-1E+10	1	-1E+10	1	-1E+10	1
4901784	86	C	11/11/2017	10:48	-133.349	43.697	0	349.60	0	5.5530	0	34.0580	4	26.867	0	346.511	0	65.3	4	21.4	4	-1E+10	1	-1E+10	1	-1E+10	1	-1E+10	1	-1E+10	1	-1E+10	1
4901784	86	C	11/11/2017	10:48	-133.349	43.697	0	352.20	0	5.5350	0	34.0610	4	26.872	0	349.086	0	64.5	4	21.1	4	-1E+10	1	-1E+10	1	-1E+10	1	-1E+10	1	-1E+10	1	-1E+10	1
4901784	86	C	11/11/2017	10:48	-133.349	43.697	0	354.70	0	5.5240	0	34.0610	4	26.873	0	351.561	0	63.7	4	20.8	4	-1E+10	1	-1E+10	1	-1E+10	1	-1E+10	1	-1E+10	1	-1E+10	1
4901784	86	C	11/11/2017	10:48	-133.349	43.697	0	357.30	0	5.4950	0	34.0640	4	26.879	0	354.136	0	62.8	4	20.5	4	-1E+10	1	-1E+10	1	-1E+10	1	-1E+10	1	-1E+10	1	-1E+10	1
4901784	86	C	11/11/2017	10:48	-133.349	43.697	0	359.90	0	5.4860	0	34.0650	4	26.881	0	356.711	0	62.0	4	20.3	4	-1E+10	1	-1E+10	1	-1E+10	1	-1E+10	1	-1E+10	1	-1E+10	1
4901784	86	C	11/11/2017	10:48	-133.349	43.697	0	362.40	0	5.4870	0	34.0660	4	26.881	0	359.187	0	61.0	4	19.9	4	-1E+10	1	-1E+10	1	-1E+10	1	-1E+10	1	-1E+10	1	-1E+10	1
4901784	86	C	11/11/2017	10:48	-133.349	43.697	0	365.00	0	5.4740	0	34.0680	4	26.885	0	361.761	0	59.7	4	19.5	4	-1E+10	1	-1E+10	1	-1E+10	1	-1E+10	1	-1E+10	1	-1E+10	1
4901784	86	C	11/11/2017	10:48	-133.349	43.697	0	367.60	0	5.4570	0	34.0710	4	26.889	0	364.336	0	58.3	4	19.0	4	-1E+10	1	-1E+10	1	-1E+10	1	-1E+10	1	-1E+10	1	-1E+10	1
4901784	86	C	11/11/2017	10:48	-133.349	43.697	0	370.20	0	5.4510	0	34.0740	4	26.892	0	366.911	0	56.7	4	18.5	4	-1E+10	1	-1E+10	1	-1E+10	1	-1E+10	1	-1E+10	1	-1E+10	1
4901784	86	C	11/11/2017	10:48	-133.349	43.697	0	372.80	0	5.4430	0	34.0790	4	26.897	0	369.485	0	54.8	4	17.9	4	-1E+10	1	-1E+10	1	-1E+10	1	-1E+10	1	-1E+10	1	-1E+10	1
4901784	86	C	11/11/2017	10:48	-133.349	43.697	0	375.40	0	5.4270	0	34.0850	4	26.904	0	372.060	0	53.1	4	17.3	4	-1E+10	1	-1E+10	1	-1E+10	1	-1E+10	1	-1E+10	1	-1E+10	1
4901784	86	C	11/11/2017	10:48	-133.349	43.697	0	377.20	0	5.4210	0	34.0860	4	26.905	0	373.842	0	52.1	4	17.0	4	-1E+10	1	-1E+10	1	-1E+10	1	-1E+10	1	-1E+10	1	-1E+10	1
4901784	86	C	11/11/2017	10:48	-133.349	43.697	0	379.80	0	5.4380	0	34.0950	4	26.910	0	376.416	0	50.5	4	16.5	4	-1E+10	1	-1E+10	1	-1E+10	1	-1E+10	1	-1E+10	1	-1E+10	1
4901784	86	C	11/11/2017	10:48	-133.349	43.697	0	382.40	0	5.4090	0	34.0990	4	26.917	0	378.991	0	49.6	4	16.2	4	-1E+10	1	-1E+10	1	-1E+10	1	-1E+10	1	-1E+10	1	-1E+10	1
4901784	86	C	11/11/2017	10:48	-133.349	43.697	0	385.10	0	5.3900	0	34.1010	4	26.921	0	381.664	0	48.7	4	15.9	4	-1E+10	1	-1E+10	1	-1E+10	1	-1E+10	1	-1E+10	1	-1E+10	1
4901784	86	C	11/11/2017	10:48	-133.349	43.697	0	387.80	0	5.3660	0	34.1050	4	26.927	0	384.338	0	48.0	4	15.7	4	-1E+10	1	-1E+10	1	-1E+10	1	-1E+10	1	-1E+10	1	-1E+10	1
4901784	86	C	11/11/2017	10:48	-133.349	43.697	0	389.60	0	5.3570	0	34.1060	4	26.929	0	386.120	0	47.6	4	15.5	4	-1E+10	1	-1E+10	1	-1E+10	1	-1E+10	1	-1E+10	1	-1E+10	1
4901784	86	C	11/11/2017	10:48	-133.349	43.697	0	392.30	0	5.3430	0	34.1070	4	26.931	0	388.793	0	47.0	4	15.3	4	-1E+10	1	-1E+10	1	-1E+10	1	-1E+10	1	-1E+10	1	-1E+10	1
4901784	86	C	11/11/2017	10:48	-133.349	43.697	0	395.00	0	5.3320	0	34.1080	4	26.933	0	391.467	0	46.3	4	15.1	4	-1E+10	1	-1E+10	1	-1E+10	1	-1E+10	1	-1E+10	1	-1E+10	1
4901784	86	C	11/11/2017	10:48	-133.349	43.697	0	397.60	0	5.3050	0	34.1130	4	26.940	0	394.041	0	45.3	4	14.7	4	-1E+10	1	-1E+10	1	-1E+10	1	-1E+10	1	-1E+10	1	-1E+10	1
4901784	86	C	11/11/2017	10:48	-133.349	43.697	0	400.40	0	5.2950	0	34.1170	4	26.945	0	396.813	0	44.4	4	14.4	4	-1E+10	1	-1E+10	1	-1E+10	1	-1E+10	1	-1E+10	1	-1E+10	1
4901784	86	C	11/11/2017	10:48	-133.349	43.697	0	402.10	0	5.2820	0	34.1200	4	26.949	0	398.496	0	43.9	4	14.3	4	-1E+10	1	-1E+10	1	-1E+10	1	-1E+10	1	-1E+10	1	-1E+10	1
4901784	86	C	11/11/2017	10:48	-133.349	43.697	0	404.80	0	5.2790	0	34.1210	4	26.950	0	401.170	0	43.3	4	14.1	4	-1E+10	1	-1E+10	1	-1E+10	1	-1E+10	1	-1E+10	1	-1E+10	1
4901784	86	C	11/11/2017	10:48	-133.349	43.697	0	407.50	0	5.2800	0	34.1230	4	26.951	0	403.843	0	42.5	4	13.8	4	-1E+10	1	-1E+10	1	-1E+10	1	-1E+10	1	-1E+10	1	-1E+10	1
4901784	86	C	11/11/2017	10:48	-133.349	43.697	0	410.20	0	5.2770	0	34.1260	4	26.954	0	406.516	0	41.6	4	13.5	4	-1E+10	1	-1E+10	1	-1E+10	1	-1E+10	1	-1E+10	1	-1E+10	1
4901784	86	C	11/11/2017	10:48	-133.349	43.697	0	412.90	0	5.2520	0	34.1310	4	26.961	0	409.189	0	41.2	4	13.4	4	-1E+10	1	-1E+10	1	-1E+10	1	-1E+10	1	-1E+10	1	-1E+10	1
4901784	86	C	11/11/2017	10:48	-133.349	43.697	0	414.70	0	5.2370	0	34.1300	4	26.962	0	410.971	0	41.0	4	13.3	4	-1E+10	1	-1E+10	1	-1E+10	1	-1E+10	1	-1E+10	1	-1E+10	1
4901784	86	C	11/11/2017	10:48	-133.349	43.697	0	417.50	0	5.2200	0	34.1340	4	26.967	0	413.743	0	40.7	4	13.2	4	-1E+10	1	-1E+10	1	-1E+10	1	-1E+10	1	-1E+10	1	-1E+10	1
4901784	86	C	11/11/2017	10:48	-133.349	43.697	0	420.20	0	5.1990	0	34.1360	4	26.971	0	416.416	0	40.9	4	13.3	4	-1E+10	1	-1E+10	1	-1E+10	1	-1E+10	1	-1E+10	1	-1E+10	1
4901784	86	C	11/11/2017	10:48	-133.349	43.697	0	422.00	0	5.1930	0	34.1340	4	26.970	0	418.198	0	41.0	4	13.3	4	-1E+10	1	-1E+10	1	-1E+10	1	-1E+10	1	-1E+10	1	-1E+10	1
4901784	86	C	11/11/2017	10:48	-133.349	43.697	0	424.70	0	5.1530	0	34.1330	4	26.974	0	420.871	0	41.4	4	13.4	4	-1E+10	1	-1E+10	1	-1E+10	1	-1E+10	1	-1E+10	1	-1E+10	1
4901784	86	C	11/11/2017	10:48	-133.349	43.697	0	427.40	0	5.1210	0	34.1320	4	26.977	0	423.544	0	41.7	4	13.5	4	-1E+10	1	-1E+10	1	-1E+10	1	-1E+10	1	-1E+10	1	-1E+10	1
4901784	86	C	11/11/2017	10:48	-133.349	43.697	0	430.10	0	5.0960	0	34.1320	4	26.980	0	426.217	0	42.0	4	13.6	4	-1E+10	1	-1E+10	1	-1E+10	1	-1E+10	1	-1E+10	1	-1E+10	1
4901784	86	C	11/11/2017	10:48	-133.349	43.697	0	432.90	0	5.0670	0	34.1300	4	26.982	0	428.989	0	42.4	4	13.7	4	-1E+10	1	-1E+10	1	-1E+10	1	-1E+10	1	-1E+10	1	-1E+10	1
4901784	86	C	11/11/2017	10:48	-133.349	43.697	0	434.80	0	5.0570	0	34.1290	4	26.982	0	430.869	0	42.5	4	13.8	4	-1E+10	1	-1E+10	1	-1E+10	1	-1E+10	1	-1E+10	1	-1E+10	1
4901784	86	C	11/11/2017	10:48	-133.349	43.697	0	437.60	0	5.0180	0	34.1280	4	26.986	0	433.641	0	42.6	4	13.8	4	-1E+10	1	-1E+10	1	-1E+10	1	-1E+10	1	-1E+10	1	-1E+10	1
4901784	86	C	11/11/2017	10:48	-133.349	43.697	0	440.40	0	5.0050	0	34.1290	4	26.988	0	436.413	0	42.4	4	13.7	4	-1E+10	1	-1E+10	1	-1E+10	1	-1E+10	1	-1E+10	1	-1E+10	1
4901784	86	C	11/11/2017	10:48	-133.349	43.697	0	442.20	0	4.9850	0	34.1280	4	26.990	0	438.195	0	42.4	4	13.7	4	-1E+10	1	-1E+10	1	-1E+10	1	-1E+10	1	-1E+10	1	-1E+10	1
4901784	86	C	11/11/2017	10:48	-133.349	43.697	0	445.00	0	4.9800	0	34.1290	4	26.991	0	440.966	0	42.1	4	13.6	4	-1E+10	1	-1E+10	1	-1E+10	1	-1E+10	1	-1E+10	1	-1E+10	1
4901784	86	C	11/11/2017	10:48	-133.349	43.697	0	447.80	0	4.9660	0	34.1310	4	26.994	0	443.738	0	42.2	4	13.6	4	-1E+10	1	-1E+10	1	-1E+10	1	-1E+10	1	-1E+10	1	-1E+10	1
4901784	86	C	11/11/2017	10:48	-133.349	43.697	0	449.70	0	4.9420	0	34.1300	4	26.996	0	445.619	0	42.3	4	13.7	4	-1E+10	1	-1E+10	1	-1E+10	1	-1E+10	1	-1E+10	1	-1E+10	1
4901784	86	C	11/11/2017	10:48	-133.349	43.697	0	452.60	0	4.9290	0	34.1300	4	26.998	0	448.489	0	42.5	4	13.7	4	-1E+10	1	-1E+10	1	-1E+10	1	-1E+10	1	-1E+10	1	-1E+10	1
4901784	86	C	11/11/2017	10:48	-133.349	43.697	0	455.40	0	4.8960	0	34.1270	4	26.999	0	451.261	0	42.6	4	13.7	4	-1E+10	1	-1E+10	1	-1E+10	1	-1E+10	1	-1E+10	1	-1E+10	1
4901784	86	C	11/11/2017	10:48	-133.349	43.697	0	457.30	0	4.8470	0	34.1240	4	27.002	0	453.141	0	42.4	4	13.6	4	-1E+10	1	-1E+10	1	-1E+10	1	-1E+10	1	-1E+10	1	-1E+10	1
4901784	86	C	11/11/2017	10:48	-133.349	43.697	0	460.20	0	4.8650	0	34.1290	4	27.004	0	456.012	0	41.7	4	13.4	4	-1E+10	1	-1E+10	1	-1E+10	1	-1E+10	1	-1E+10	1	-1E+10	1
4901784	86	C	11/11/2017	10:48	-133.349	43.697	0	463.10	0	4.8200	0	34.1290	4	27.009	0	458.882	0	41.4	4	13.3	4	-1E+10	1	-1E+10	1	-1E+10	1	-1E+10	1	-1E+10	1	-1E+10	1
4901784	86	C	11/11/2017	10:48	-133.349	43.697	0	465.00	0	4.8120	0	34.1320	4	27.013	0	460.763	0	41.3	4	13.3	4	-1E+10	1	-1E+10	1	-1E+10	1	-1E+10	1	-1E+10	1	-1E+10	1
4901784	86	C	11/11/2017	10:48	-133.349	43.697	0	466.80	0	4.8100	0	34.1310	4	27.012	0	462.544	0	41.2	4	13.3	4	-1E+10	1	-1E+10	1	-1E+10	1	-1E+10	1	-1E+10	1	-1E+10	1
4901784	86	C	11/11/2017	10:48	-133.349	43.697	0	469.70	0	4.7690	0	34.1310	4	27.017	0	465.415	0	41.4	4	13.3	4	-1E+10	1	-1E+10	1	-1E+10	1	-1E+10	1	-1E+10	1	-1E+10	1
4901784	86	C	11/11/2017	10:48	-133.349	43.697	0	472.60	0	4.7300	0	34.1300	4	27.020	0	468.285	0	41.5	4	13.3	4	-1E+10	1	-1E+10	1	-1E+10	1	-1E+10	1	-1E+10	1	-1E+10	1
4901784	86	C	11/11/2017	10:48	-133.349	43.697	0	474.50	0	4.6980	0	34.1280	4	27.022	0	470.166	0	41.5	4	13.3	4	-1E+10	1	-1E+10	1	-1E+10	1	-1E+10	1	-1E+10	1	-1E+10	1
4901784	86	C	11/11/2017	10:48	-133.349	43.697	0	477.00	0	4.6660	0	34.1290	4	27.026	0	472.640	0	41.4	4	13.3	4	-1E+10	1	-1E+10	1	-1E+10	1	-1E+10	1	-1E+10	1	-1E+10	1
4901784	86	C	11/11/2017	10:48	-133.349	43.697	0	479.70	0	4.6510	0	34.1300	4	27.029	0	475.312	0	41.1	4	13.2	4	-1E+10	1	-1E+10	1	-1E+10	1	-1E+10	1	-1E+10	1	-1E+10	1
4901784	86	C	11/11/2017	10:48	-133.349	43.697	0	482.90	0	4.6150	0	34.1310	4	27.034	0	478.479	0	40.8	4	13.1	4	-1E+10	1	-1E+10	1	-1E+10	1	-1E+10	1	-1E+10	1	-1E+10	1
4901784	86	C	11/11/2017	10:48	-133.349	43.697	0	485.20	0	4.5960	0	34.1320	4	27.037	0	480.755	0	40.3	4	12.9	4	-1E+10	1	-1E+10	1	-1E+10	1	-1E+10	1	-1E+10	1	-1E+10	1
4901784	86	C	11/11/2017	10:48	-133.349	43.697	0	487.70	0	4.5970	0	34.1340	4	27.038	0	483.230	0	39.7	4	12.7	4	-1E+10	1	-1E+10	1	-1E+10	1	-1E+10	1	-1E+10	1	-1E+10	1
4901784	86	C	11/11/2017	10:48	-133.349	43.697	0	490.10	0	4.5830	0	34.1370	4	27.042	0	485.605	0	39.7	4	12.7	4	-1E+10	1	-1E+10	1	-1E+10	1	-1E+10	1	-1E+10	1	-1E+10	1
4901784	86	C	11/11/2017	10:48	-133.349	43.697	0	492.60	0	4.5580	0	34.1390	4	27.046	0	488.079	0	39.8	4	12.7	4	-1E+10	1	-1E+10	1	-1E+10	1	-1E+10	1	-1E+10	1	-1E+10	1
4901784	86	C	11/11/2017	10:48	-133.349	43.697	0	495.00	0	4.5540	0	34.1390	4	27.047	0	490.454	0	40.0	4	12.8	4	-1E+10	1	-1E+10	1	-1E+10	1	-1E+10	1	-1E+10	1	-1E+10	1
4901784	86	C	11/11/2017	10:48	-133.349	43.697	0	497.40	0	4.5140	0	34.1390	4	27.051	0	492.829	0	40.2	4	12.8	4	-1E+10	1	-1E+10	1	-1E+10	1	-1E+10	1	-1E+10	1	-1E+10	1
4901784	86	C	11/11/2017	10:48	-133.349	43.697	0	499.80	0	4.5050	0	34.1400	4	27.053	0	495.204	0	40.0	4	12.8	4	-1E+10	1	-1E+10	1	-1E+10	1	-1E+10	1	-1E+10	1	-1E+10	1
4901784	86	C	11/11/2017	10:48	-133.349	43.697	0	504.60	0	4.4860	0	34.1430	4	27.057	0	499.954	0	39.4	4	12.6	4	-1E+10	1	-1E+10	1	-1E+10	1	-1E+10	1	-1E+10	1	-1E+10	1
4901784	86	C	11/11/2017	10:48	-133.349	43.697	0	509.50	0	4.4760	0	34.1450	4	27.060	0	504.803	0	38.5	4	12.3	4	-1E+10	1	-1E+10	1	-1E+10	1	-1E+10	1	-1E+10	1	-1E+10	1
4901784	86	C	11/11/2017	10:48	-133.349	43.697	0	514.50	0	4.4710	0	34.1510	4	27.065	0	509.751	0	36.9	4	11.8	4	-1E+10	1	-1E+10	1	-1E+10	1	-1E+10	1	-1E+10	1	-1E+10	1
4901784	86	C	11/11/2017	10:48	-133.349	43.697	0	519.40	0	4.4590	0	34.1560	4	27.071	0	514.600	0	36.0	4	11.5	4	-1E+10	1	-1E+10	1	-1E+10	1	-1E+10	1	-1E+10	1	-1E+10	1
4901784	86	C	11/11/2017	10:48	-133.349	43.697	0	524.40	0	4.4330	0	34.1600	4	27.077	0	519.547	0	34.9	4	11.1	4	-1E+10	1	-1E+10	1	-1E+10	1	-1E+10	1	-1E+10	1	-1E+10	1
4901784	86	C	11/11/2017	10:48	-133.349	43.697	0	529.30	0	4.4240	0	34.1660	4	27.082	0	524.396	0	33.4	4	10.6	4	-1E+10	1	-1E+10	1	-1E+10	1	-1E+10	1	-1E+10	1	-1E+10	1
4901784	86	C	11/11/2017	10:48	-133.349	43.697	0	534.20	0	4.4070	0	34.1710	4	27.088	0	529.244	0	32.0	4	10.2	4	-1E+10	1	-1E+10	1	-1E+10	1	-1E+10	1	-1E+10	1	-1E+10	1
4901784	86	C	11/11/2017	10:48	-133.349	43.697	0	539.20	0	4.3920	0	34.1780	4	27.095	0	534.191	0	30.8	4	9.8	4	-1E+10	1	-1E+10	1	-1E+10	1	-1E+10	1	-1E+10	1	-1E+10	1
4901784	86	C	11/11/2017	10:48	-133.349	43.697	0	544.30	0	4.3830	0	34.1810	4	27.099	0	539.237	0	29.9	4	9.5	4	-1E+10	1	-1E+10	1	-1E+10	1	-1E+10	1	-1E+10	1	-1E+10	1
4901784	86	C	11/11/2017	10:48	-133.349	43.697	0	549.30	0	4.3630	0	34.1860	4	27.105	0	544.184	0	29.1	4	9.3	4	-1E+10	1	-1E+10	1	-1E+10	1	-1E+10	1	-1E+10	1	-1E+10	1
4901784	86	C	11/11/2017	10:48	-133.349	43.697	0	554.40	0	4.3470	0	34.1890	4	27.109	0	549.230	0	28.2	4	9.0	4	-1E+10	1	-1E+10	1	-1E+10	1	-1E+10	1	-1E+10	1	-1E+10	1
4901784	86	C	11/11/2017	10:48	-133.349	43.697	0	559.40	0	4.3270	0	34.1950	4	27.116	0	554.177	0	27.5	4	8.8	4	-1E+10	1	-1E+10	1	-1E+10	1	-1E+10	1	-1E+10	1	-1E+10	1
4901784	86	C	11/11/2017	10:48	-133.349	43.697	0	564.40	0	4.3210	0	34.1970	4	27.118	0	559.124	0	26.7	4	8.5	4	-1E+10	1	-1E+10	1	-1E+10	1	-1E+10	1	-1E+10	1	-1E+10	1
4901784	86	C	11/11/2017	10:48	-133.349	43.697	0	569.60	0	4.3150	0	34.2010	4	27.122	0	564.268	0	25.5	4	8.1	4	-1E+10	1	-1E+10	1	-1E+10	1	-1E+10	1	-1E+10	1	-1E+10	1
4901784	86	C	11/11/2017	10:48	-133.349	43.697	0	574.70	0	4.3040	0	34.2090	4	27.130	0	569.313	0	23.8	4	7.6	4	-1E+10	1	-1E+10	1	-1E+10	1	-1E+10	1	-1E+10	1	-1E+10	1
4901784	86	C	11/11/2017	10:48	-133.349	43.697	0	579.80	0	4.3010	0	34.2190	4	27.138	0	574.358	0	21.9	4	7.0	4	-1E+10	1	-1E+10	1	-1E+10	1	-1E+10	1	-1E+10	1	-1E+10	1
4901784	86	C	11/11/2017	10:48	-133.349	43.697	0	585.00	0	4.3140	0	34.2310	4	27.146	0	579.502	0	20.2	4	6.4	4	-1E+10	1	-1E+10	1	-1E+10	1	-1E+10	1	-1E+10	1	-1E+10	1
4901784	86	C	11/11/2017	10:48	-133.349	43.697	0	590.10	0	4.3310	0	34.2460	4	27.156	0	584.547	0	18.1	4	5.8	4	-1E+10	1	-1E+10	1	-1E+10	1	-1E+10	1	-1E+10	1	-1E+10	1
4901784	86	C	11/11/2017	10:48	-133.349	43.697	0	595.30	0	4.4110	0	34.2630	4	27.161	0	589.691	0	16.9	4	5.4	4	-1E+10	1	-1E+10	1	-1E+10	1	-1E+10	1	-1E+10	1	-1E+10	1
4901784	86	C	11/11/2017	10:48	-133.349	43.697	0	600.50	0	4.4060	0	34.2690	4	27.167	0	594.834	0	16.8	4	5.4	4	-1E+10	1	-1E+10	1	-1E+10	1	-1E+10	1	-1E+10	1	-1E+10	1
4901784	86	C	11/11/2017	10:48	-133.349	43.697	0	604.90	0	4.3020	0	34.2610	4	27.172	0	599.187	0	16.5	4	5.2	4	-1E+10	1	-1E+10	1	-1E+10	1	-1E+10	1	-1E+10	1	-1E+10	1
4901784	86	C	11/11/2017	10:48	-133.349	43.697	0	609.40	0	4.3530	0	34.2730	4	27.176	0	603.638	0	15.0	4	4.8	4	-1E+10	1	-1E+10	1	-1E+10	1	-1E+10	1	-1E+10	1	-1E+10	1
4901784	86	C	11/11/2017	10:48	-133.349	43.697	0	614.80	0	4.4300	0	34.2920	4	27.183	0	608.979	0	14.1	4	4.5	4	-1E+10	1	-1E+10	1	-1E+10	1	-1E+10	1	-1E+10	1	-1E+10	1
4901784	86	C	11/11/2017	10:48	-133.349	43.697	0	620.20	0	4.4380	0	34.2980	4	27.187	0	614.320	0	13.6	4	4.3	4	-1E+10	1	-1E+10	1	-1E+10	1	-1E+10	1	-1E+10	1	-1E+10	1
4901784	86	C	11/11/2017	10:48	-133.349	43.697	0	625.60	0	4.4150	0	34.3040	4	27.194	0	619.660	0	13.2	4	4.2	4	-1E+10	1	-1E+10	1	-1E+10	1	-1E+10	1	-1E+10	1	-1E+10	1
4901784	86	C	11/11/2017	10:48	-133.349	43.697	0	630.30	0	4.4190	0	34.3080	4	27.197	0	624.309	0	12.9	4	4.1	4	-1E+10	1	-1E+10	1	-1E+10	1	-1E+10	1	-1E+10	1	-1E+10	1
4901784	86	C	11/11/2017	10:48	-133.349	43.697	0	634.80	0	4.4280	0	34.3110	4	27.198	0	628.759	0	12.7	4	4.1	4	-1E+10	1	-1E+10	1	-1E+10	1	-1E+10	1	-1E+10	1	-1E+10	1
4901784	86	C	11/11/2017	10:48	-133.349	43.697	0	640.40	0	4.4200	0	34.3130	4	27.201	0	634.297	0	12.5	4	4.0	4	-1E+10	1	-1E+10	1	-1E+10	1	-1E+10	1	-1E+10	1	-1E+10	1
4901784	86	C	11/11/2017	10:48	-133.349	43.697	0	645.10	0	4.3950	0	34.3180	4	27.207	0	638.945	0	12.3	4	3.9	4	-1E+10	1	-1E+10	1	-1E+10	1	-1E+10	1	-1E+10	1	-1E+10	1
4901784	86	C	11/11/2017	10:48	-133.349	43.697	0	649.70	0	4.3720	0	34.3230	4	27.214	0	643.494	0	12.2	4	3.9	4	-1E+10	1	-1E+10	1	-1E+10	1	-1E+10	1	-1E+10	1	-1E+10	1
4901784	86	C	11/11/2017	10:48	-133.349	43.697	0	655.30	0	4.3560	0	34.3260	4	27.218	0	649.032	0	12.1	4	3.9	4	-1E+10	1	-1E+10	1	-1E+10	1	-1E+10	1	-1E+10	1	-1E+10	1
4901784	86	C	11/11/2017	10:48	-133.349	43.697	0	659.90	0	4.3460	0	34.3280	4	27.221	0	653.581	0	12.0	4	3.8	4	-1E+10	1	-1E+10	1	-1E+10	1	-1E+10	1	-1E+10	1	-1E+10	1
4901784	86	C	11/11/2017	10:48	-133.349	43.697	0	664.60	0	4.3430	0	34.3290	4	27.222	0	658.228	0	11.9	4	3.8	4	-1E+10	1	-1E+10	1	-1E+10	1	-1E+10	1	-1E+10	1	-1E+10	1
4901784	86	C	11/11/2017	10:48	-133.349	43.697	0	670.30	0	4.3310	0	34.3330	4	27.226	0	663.865	0	11.8	4	3.7	4	-1E+10	1	-1E+10	1	-1E+10	1	-1E+10	1	-1E+10	1	-1E+10	1
4901784	86	C	11/11/2017	10:48	-133.349	43.697	0	675.30	0	4.3200	0	34.3370	4	27.231	0	668.809	0	11.6	4	3.7	4	-1E+10	1	-1E+10	1	-1E+10	1	-1E+10	1	-1E+10	1	-1E+10	1
4901784	86	C	11/11/2017	10:48	-133.349	43.697	0	679.90	0	4.3150	0	34.3380	4	27.232	0	673.357	0	11.5	4	3.7	4	-1E+10	1	-1E+10	1	-1E+10	1	-1E+10	1	-1E+10	1	-1E+10	1
4901784	86	C	11/11/2017	10:48	-133.349	43.697	0	684.90	0	4.2970	0	34.3440	4	27.239	0	678.301	0	11.4	4	3.6	4	-1E+10	1	-1E+10	1	-1E+10	1	-1E+10	1	-1E+10	1	-1E+10	1
4901784	86	C	11/11/2017	10:48	-133.349	43.697	0	689.90	0	4.2910	0	34.3460	4	27.241	0	683.244	0	11.3	4	3.6	4	-1E+10	1	-1E+10	1	-1E+10	1	-1E+10	1	-1E+10	1	-1E+10	1
4901784	86	C	11/11/2017	10:48	-133.349	43.697	0	694.80	0	4.2790	0	34.3500	4	27.245	0	688.089	0	11.2	4	3.6	4	-1E+10	1	-1E+10	1	-1E+10	1	-1E+10	1	-1E+10	1	-1E+10	1
4901784	86	C	11/11/2017	10:48	-133.349	43.697	0	699.90	0	4.2690	0	34.3530	4	27.249	0	693.131	0	11.2	4	3.6	4	-1E+10	1	-1E+10	1	-1E+10	1	-1E+10	1	-1E+10	1	-1E+10	1
4901784	86	C	11/11/2017	10:48	-133.349	43.697	0	705.10	0	4.2630	0	34.3560	4	27.252	0	698.272	0	11.1	4	3.5	4	-1E+10	1	-1E+10	1	-1E+10	1	-1E+10	1	-1E+10	1	-1E+10	1
4901784	86	C	11/11/2017	10:48	-133.349	43.697	0	710.30	0	4.2610	0	34.3560	4	27.252	0	703.413	0	11.0	4	3.5	4	-1E+10	1	-1E+10	1	-1E+10	1	-1E+10	1	-1E+10	1	-1E+10	1
4901784	86	C	11/11/2017	10:48	-133.349	43.697	0	715.50	0	4.2490	0	34.3590	4	27.256	0	708.554	0	11.0	4	3.5	4	-1E+10	1	-1E+10	1	-1E+10	1	-1E+10	1	-1E+10	1	-1E+10	1
4901784	86	C	11/11/2017	10:48	-133.349	43.697	0	719.90	0	4.2380	0	34.3610	4	27.259	0	712.904	0	10.9	4	3.5	4	-1E+10	1	-1E+10	1	-1E+10	1	-1E+10	1	-1E+10	1	-1E+10	1
4901784	86	C	11/11/2017	10:48	-133.349	43.697	0	724.30	0	4.2320	0	34.3620	4	27.260	0	717.253	0	10.9	4	3.5	4	-1E+10	1	-1E+10	1	-1E+10	1	-1E+10	1	-1E+10	1	-1E+10	1
4901784	86	C	11/11/2017	10:48	-133.349	43.697	0	729.60	0	4.2200	0	34.3630	4	27.262	0	722.493	0	10.8	4	3.4	4	-1E+10	1	-1E+10	1	-1E+10	1	-1E+10	1	-1E+10	1	-1E+10	1
4901784	86	C	11/11/2017	10:48	-133.349	43.697	0	735.00	0	4.1990	0	34.3660	4	27.267	0	727.831	0	10.7	4	3.4	4	-1E+10	1	-1E+10	1	-1E+10	1	-1E+10	1	-1E+10	1	-1E+10	1
4901784	86	C	11/11/2017	10:48	-133.349	43.697	0	740.40	0	4.1840	0	34.3680	4	27.270	0	733.169	0	10.7	4	3.4	4	-1E+10	1	-1E+10	1	-1E+10	1	-1E+10	1	-1E+10	1	-1E+10	1
4901784	86	C	11/11/2017	10:48	-133.349	43.697	0	744.90	0	4.1740	0	34.3710	4	27.274	0	737.617	0	10.6	4	3.4	4	-1E+10	1	-1E+10	1	-1E+10	1	-1E+10	1	-1E+10	1	-1E+10	1
4901784	86	C	11/11/2017	10:48	-133.349	43.697	0	749.40	0	4.1630	0	34.3740	4	27.277	0	742.065	0	10.6	4	3.4	4	-1E+10	1	-1E+10	1	-1E+10	1	-1E+10	1	-1E+10	1	-1E+10	1
4901784	86	C	11/11/2017	10:48	-133.349	43.697	0	754.90	0	4.1480	0	34.3770	4	27.281	0	747.501	0	10.5	4	3.3	4	-1E+10	1	-1E+10	1	-1E+10	1	-1E+10	1	-1E+10	1	-1E+10	1
4901784	86	C	11/11/2017	10:48	-133.349	43.697	0	760.50	0	4.1380	0	34.3800	4	27.285	0	753.036	0	10.4	4	3.3	4	-1E+10	1	-1E+10	1	-1E+10	1	-1E+10	1	-1E+10	1	-1E+10	1
4901784	86	C	11/11/2017	10:48	-133.349	43.697	0	765.20	0	4.1240	0	34.3830	4	27.289	0	757.681	0	10.4	4	3.3	4	-1E+10	1	-1E+10	1	-1E+10	1	-1E+10	1	-1E+10	1	-1E+10	1
4901784	86	C	11/11/2017	10:48	-133.349	43.697	0	769.80	0	4.1110	0	34.3850	4	27.291	0	762.228	0	10.3	4	3.3	4	-1E+10	1	-1E+10	1	-1E+10	1	-1E+10	1	-1E+10	1	-1E+10	1
4901784	86	C	11/11/2017	10:48	-133.349	43.697	0	775.40	0	4.0900	0	34.3890	4	27.297	0	767.762	0	10.3	4	3.3	4	-1E+10	1	-1E+10	1	-1E+10	1	-1E+10	1	-1E+10	1	-1E+10	1
4901784	86	C	11/11/2017	10:48	-133.349	43.697	0	780.10	0	4.0770	0	34.3920	4	27.301	0	772.407	0	10.2	4	3.2	4	-1E+10	1	-1E+10	1	-1E+10	1	-1E+10	1	-1E+10	1	-1E+10	1
4901784	86	C	11/11/2017	10:48	-133.349	43.697	0	784.80	0	4.0610	0	34.3940	4	27.304	0	777.052	0	10.2	4	3.2	4	-1E+10	1	-1E+10	1	-1E+10	1	-1E+10	1	-1E+10	1	-1E+10	1
4901784	86	C	11/11/2017	10:48	-133.349	43.697	0	790.50	0	4.0450	0	34.3960	4	27.307	0	782.685	0	10.2	4	3.2	4	-1E+10	1	-1E+10	1	-1E+10	1	-1E+10	1	-1E+10	1	-1E+10	1
4901784	86	C	11/11/2017	10:48	-133.349	43.697	0	795.30	0	4.0180	0	34.4000	4	27.313	0	787.429	0	10.3	4	3.2	4	-1E+10	1	-1E+10	1	-1E+10	1	-1E+10	1	-1E+10	1	-1E+10	1
4901784	86	C	11/11/2017	10:48	-133.349	43.697	0	800.10	0	3.9890	0	34.3990	4	27.315	0	792.172	0	10.3	4	3.3	4	-1E+10	1	-1E+10	1	-1E+10	1	-1E+10	1	-1E+10	1	-1E+10	1
4901784	86	C	11/11/2017	10:48	-133.349	43.697	0	804.80	0	3.9640	0	34.4000	4	27.319	0	796.817	0	10.4	4	3.3	4	-1E+10	1	-1E+10	1	-1E+10	1	-1E+10	1	-1E+10	1	-1E+10	1
4901784	86	C	11/11/2017	10:48	-133.349	43.697	0	809.50	0	3.9590	0	34.4030	4	27.322	0	801.461	0	10.4	4	3.3	4	-1E+10	1	-1E+10	1	-1E+10	1	-1E+10	1	-1E+10	1	-1E+10	1
4901784	86	C	11/11/2017	10:48	-133.349	43.697	0	815.10	0	3.9180	0	34.4010	4	27.324	0	806.995	0	10.6	4	3.3	4	-1E+10	1	-1E+10	1	-1E+10	1	-1E+10	1	-1E+10	1	-1E+10	1
4901784	86	C	11/11/2017	10:48	-133.349	43.697	0	819.70	0	3.8940	0	34.3990	4	27.325	0	811.540	0	10.7	4	3.4	4	-1E+10	1	-1E+10	1	-1E+10	1	-1E+10	1	-1E+10	1	-1E+10	1
4901784	86	C	11/11/2017	10:48	-133.349	43.697	0	824.40	0	3.8250	0	34.3950	4	27.329	0	816.184	0	10.9	4	3.4	4	-1E+10	1	-1E+10	1	-1E+10	1	-1E+10	1	-1E+10	1	-1E+10	1
4901784	86	C	11/11/2017	10:48	-133.349	43.697	0	830.00	0	3.7840	0	34.3940	4	27.332	0	821.717	0	11.0	4	3.5	4	-1E+10	1	-1E+10	1	-1E+10	1	-1E+10	1	-1E+10	1	-1E+10	1
4901784	86	C	11/11/2017	10:48	-133.349	43.697	0	835.50	0	3.7460	0	34.3930	4	27.335	0	827.151	0	11.0	4	3.5	4	-1E+10	1	-1E+10	1	-1E+10	1	-1E+10	1	-1E+10	1	-1E+10	1
4901784	86	C	11/11/2017	10:48	-133.349	43.697	0	840.10	0	3.7200	0	34.3950	4	27.339	0	831.696	0	11.1	4	3.5	4	-1E+10	1	-1E+10	1	-1E+10	1	-1E+10	1	-1E+10	1	-1E+10	1
4901784	86	C	11/11/2017	10:48	-133.349	43.697	0	844.70	0	3.6960	0	34.3940	4	27.341	0	836.241	0	11.1	4	3.5	4	-1E+10	1	-1E+10	1	-1E+10	1	-1E+10	1	-1E+10	1	-1E+10	1
4901784	86	C	11/11/2017	10:48	-133.349	43.697	0	850.30	0	3.6870	0	34.3960	4	27.344	0	841.774	0	11.1	4	3.5	4	-1E+10	1	-1E+10	1	-1E+10	1	-1E+10	1	-1E+10	1	-1E+10	1
4901784	86	C	11/11/2017	10:48	-133.349	43.697	0	854.90	0	3.6790	0	34.3980	4	27.346	0	846.318	0	11.1	4	3.5	4	-1E+10	1	-1E+10	1	-1E+10	1	-1E+10	1	-1E+10	1	-1E+10	1
4901784	86	C	11/11/2017	10:48	-133.349	43.697	0	859.60	0	3.6730	0	34.3990	4	27.347	0	850.961	0	11.0	4	3.5	4	-1E+10	1	-1E+10	1	-1E+10	1	-1E+10	1	-1E+10	1	-1E+10	1
4901784	86	C	11/11/2017	10:48	-133.349	43.697	0	865.20	0	3.6640	0	34.4020	4	27.351	0	856.494	0	11.0	4	3.5	4	-1E+10	1	-1E+10	1	-1E+10	1	-1E+10	1	-1E+10	1	-1E+10	1
4901784	86	C	11/11/2017	10:48	-133.349	43.697	0	869.90	0	3.6610	0	34.4040	4	27.353	0	861.137	0	11.0	4	3.5	4	-1E+10	1	-1E+10	1	-1E+10	1	-1E+10	1	-1E+10	1	-1E+10	1
4901784	86	C	11/11/2017	10:48	-133.349	43.697	0	874.50	0	3.6540	0	34.4050	4	27.354	0	865.681	0	11.0	4	3.5	4	-1E+10	1	-1E+10	1	-1E+10	1	-1E+10	1	-1E+10	1	-1E+10	1
4901784	86	C	11/11/2017	10:48	-133.349	43.697	0	880.20	0	3.6400	0	34.4080	4	27.358	0	871.312	0	11.0	4	3.5	4	-1E+10	1	-1E+10	1	-1E+10	1	-1E+10	1	-1E+10	1	-1E+10	1
4901784	86	C	11/11/2017	10:48	-133.349	43.697	0	884.90	0	3.6330	0	34.4090	4	27.359	0	875.954	0	11.1	4	3.5	4	-1E+10	1	-1E+10	1	-1E+10	1	-1E+10	1	-1E+10	1	-1E+10	1
4901784	86	C	11/11/2017	10:48	-133.349	43.697	0	889.70	0	3.6220	0	34.4120	4	27.363	0	880.696	0	11.1	4	3.5	4	-1E+10	1	-1E+10	1	-1E+10	1	-1E+10	1	-1E+10	1	-1E+10	1
4901784	86	C	11/11/2017	10:48	-133.349	43.697	0	895.20	0	3.6050	0	34.4160	4	27.368	0	886.128	0	11.1	4	3.5	4	-1E+10	1	-1E+10	1	-1E+10	1	-1E+10	1	-1E+10	1	-1E+10	1
4901784	86	C	11/11/2017	10:48	-133.349	43.697	0	899.90	0	3.5900	0	34.4200	4	27.373	0	890.771	0	11.1	4	3.5	4	-1E+10	1	-1E+10	1	-1E+10	1	-1E+10	1	-1E+10	1	-1E+10	1
4901784	86	C	11/11/2017	10:48	-133.349	43.697	0	904.90	0	3.5810	0	34.4230	4	27.376	0	895.709	0	11.1	4	3.5	4	-1E+10	1	-1E+10	1	-1E+10	1	-1E+10	1	-1E+10	1	-1E+10	1
4901784	86	C	11/11/2017	10:48	-133.349	43.697	0	910.10	0	3.5710	0	34.4250	4	27.378	0	900.845	0	11.1	4	3.5	4	-1E+10	1	-1E+10	1	-1E+10	1	-1E+10	1	-1E+10	1	-1E+10	1
4901784	86	C	11/11/2017	10:48	-133.349	43.697	0	914.90	0	3.5600	0	34.4280	4	27.382	0	905.586	0	11.1	4	3.5	4	-1E+10	1	-1E+10	1	-1E+10	1	-1E+10	1	-1E+10	1	-1E+10	1
4901784	86	C	11/11/2017	10:48	-133.349	43.697	0	919.80	0	3.5540	0	34.4290	4	27.383	0	910.426	0	11.1	4	3.5	4	-1E+10	1	-1E+10	1	-1E+10	1	-1E+10	1	-1E+10	1	-1E+10	1
4901784	86	C	11/11/2017	10:48	-133.349	43.697	0	924.70	0	3.5440	0	34.4320	4	27.387	0	915.265	0	11.1	4	3.5	4	-1E+10	1	-1E+10	1	-1E+10	1	-1E+10	1	-1E+10	1	-1E+10	1
4901784	86	C	11/11/2017	10:48	-133.349	43.697	0	929.50	0	3.5340	0	34.4340	4	27.389	0	920.005	0	11.1	4	3.5	4	-1E+10	1	-1E+10	1	-1E+10	1	-1E+10	1	-1E+10	1	-1E+10	1
4901784	86	C	11/11/2017	10:48	-133.349	43.697	0	934.40	0	3.5240	0	34.4360	4	27.392	0	924.845	0	11.1	4	3.5	4	-1E+10	1	-1E+10	1	-1E+10	1	-1E+10	1	-1E+10	1	-1E+10	1
4901784	86	C	11/11/2017	10:48	-133.349	43.697	0	939.30	0	3.5120	0	34.4390	4	27.396	0	929.684	0	11.2	4	3.5	4	-1E+10	1	-1E+10	1	-1E+10	1	-1E+10	1	-1E+10	1	-1E+10	1
4901784	86	C	11/11/2017	10:48	-133.349	43.697	0	944.20	0	3.5000	0	34.4420	4	27.399	0	934.522	0	11.2	4	3.5	4	-1E+10	1	-1E+10	1	-1E+10	1	-1E+10	1	-1E+10	1	-1E+10	1
4901784	86	C	11/11/2017	10:48	-133.349	43.697	0	950.00	0	3.4940	0	34.4440	4	27.401	0	940.250	0	11.3	4	3.5	4	-1E+10	1	-1E+10	1	-1E+10	1	-1E+10	1	-1E+10	1	-1E+10	1
4901784	86	C	11/11/2017	10:48	-133.349	43.697	0	955.70	0	3.4750	0	34.4480	4	27.406	0	945.879	0	11.3	4	3.5	4	-1E+10	1	-1E+10	1	-1E+10	1	-1E+10	1	-1E+10	1	-1E+10	1
4901784	86	C	11/11/2017	10:48	-133.349	43.697	0	960.70	0	3.4670	0	34.4510	4	27.410	0	950.816	0	11.4	4	3.6	4	-1E+10	1	-1E+10	1	-1E+10	1	-1E+10	1	-1E+10	1	-1E+10	1
4901784	86	C	11/11/2017	10:48	-133.349	43.697	0	965.70	0	3.4630	0	34.4520	4	27.411	0	955.753	0	11.4	4	3.6	4	-1E+10	1	-1E+10	1	-1E+10	1	-1E+10	1	-1E+10	1	-1E+10	1
4901784	86	C	11/11/2017	10:48	-133.349	43.697	0	970.70	0	3.4560	0	34.4540	4	27.413	0	960.690	0	11.5	4	3.6	4	-1E+10	1	-1E+10	1	-1E+10	1	-1E+10	1	-1E+10	1	-1E+10	1
4901784	86	C	11/11/2017	10:48	-133.349	43.697	0	975.70	0	3.4510	0	34.4540	4	27.414	0	965.627	0	11.5	4	3.6	4	-1E+10	1	-1E+10	1	-1E+10	1	-1E+10	1	-1E+10	1	-1E+10	1
4901784	86	C	11/11/2017	10:48	-133.349	43.697	0	980.70	0	3.4370	0	34.4580	4	27.418	0	970.564	0	11.6	4	3.6	4	-1E+10	1	-1E+10	1	-1E+10	1	-1E+10	1	-1E+10	1	-1E+10	1
4901784	86	C	11/11/2017	10:48	-133.349	43.697	0	985.70	0	3.4190	0	34.4630	4	27.424	0	975.501	0	11.7	4	3.7	4	-1E+10	1	-1E+10	1	-1E+10	1	-1E+10	1	-1E+10	1	-1E+10	1
4901784	86	C	11/11/2017	10:48	-133.349	43.697	0	990.00	0	3.4070	0	34.4660	4	27.427	0	979.746	0	11.8	4	3.7	4	-1E+10	1	-1E+10	1	-1E+10	1	-1E+10	1	-1E+10	1	-1E+10	1
4901784	86	C	11/11/2017	10:48	-133.349	43.697	0	994.30	0	3.3990	0	34.4670	4	27.429	0	983.991	0	11.8	4	3.7	4	-1E+10	1	-1E+10	1	-1E+10	1	-1E+10	1	-1E+10	1	-1E+10	1
4901784	86	C	11/11/2017	10:48	-133.349	43.697	0	999.50	0	3.3930	0	34.4680	4	27.430	0	989.125	0	11.8	4	3.7	4	-1E+10	1	-1E+10	1	-1E+10	1	-1E+10	1	-1E+10	1	-1E+10	1
4901784	86	C	11/11/2017	10:48	-133.349	43.697	0	1004.70	0	3.3800	0	34.4710	4	27.434	0	994.259	0	11.9	4	3.7	4	-1E+10	1	-1E+10	1	-1E+10	1	-1E+10	1	-1E+10	1	-1E+10	1
4901784	86	C	11/11/2017	10:48	-133.349	43.697	0	1009.80	0	3.3650	0	34.4740	4	27.438	0	999.294	0	12.0	4	3.7	4	-1E+10	1	-1E+10	1	-1E+10	1	-1E+10	1	-1E+10	1	-1E+10	1
4901784	86	C	11/11/2017	10:48	-133.349	43.697	0	1015.00	0	3.3590	0	34.4760	4	27.440	0	1004.427	0	12.0	4	3.7	4	-1E+10	1	-1E+10	1	-1E+10	1	-1E+10	1	-1E+10	1	-1E+10	1
4901784	86	C	11/11/2017	10:48	-133.349	43.697	0	1020.20	0	3.3540	0	34.4760	4	27.441	0	1009.560	0	12.1	4	3.8	4	-1E+10	1	-1E+10	1	-1E+10	1	-1E+10	1	-1E+10	1	-1E+10	1
4901784	86	C	11/11/2017	10:48	-133.349	43.697	0	1025.50	0	3.3510	0	34.4770	4	27.442	0	1014.792	0	12.2	4	3.8	4	-1E+10	1	-1E+10	1	-1E+10	1	-1E+10	1	-1E+10	1	-1E+10	1
4901784	86	C	11/11/2017	10:48	-133.349	43.697	0	1030.70	0	3.3420	0	34.4800	4	27.445	0	1019.925	0	12.5	4	3.9	4	-1E+10	1	-1E+10	1	-1E+10	1	-1E+10	1	-1E+10	1	-1E+10	1
4901784	86	C	11/11/2017	10:48	-133.349	43.697	0	1035.10	0	3.3430	0	34.4820	4	27.447	0	1024.269	0	12.7	4	4.0	4	-1E+10	1	-1E+10	1	-1E+10	1	-1E+10	1	-1E+10	1	-1E+10	1
4901784	86	C	11/11/2017	10:48	-133.349	43.697	0	1039.60	0	3.3350	0	34.4860	4	27.451	0	1028.711	0	12.9	4	4.0	4	-1E+10	1	-1E+10	1	-1E+10	1	-1E+10	1	-1E+10	1	-1E+10	1
4901784	86	C	11/11/2017	10:48	-133.349	43.697	0	1044.90	0	3.3280	0	34.4880	4	27.453	0	1033.942	0	13.1	4	4.1	4	-1E+10	1	-1E+10	1	-1E+10	1	-1E+10	1	-1E+10	1	-1E+10	1
4901784	86	C	11/11/2017	10:48	-133.349	43.697	0	1050.40	0	3.3170	0	34.4900	4	27.456	0	1039.371	0	13.2	4	4.1	4	-1E+10	1	-1E+10	1	-1E+10	1	-1E+10	1	-1E+10	1	-1E+10	1
4901784	86	C	11/11/2017	10:48	-133.349	43.697	0	1054.90	0	3.3120	0	34.4920	4	27.458	0	1043.812	0	13.3	4	4.1	4	-1E+10	1	-1E+10	1	-1E+10	1	-1E+10	1	-1E+10	1	-1E+10	1
4901784	86	C	11/11/2017	10:48	-133.349	43.697	0	1059.50	0	3.3040	0	34.4930	4	27.459	0	1048.352	0	13.4	4	4.2	4	-1E+10	1	-1E+10	1	-1E+10	1	-1E+10	1	-1E+10	1	-1E+10	1
4901784	86	C	11/11/2017	10:48	-133.349	43.697	0	1065.00	0	3.2950	0	34.4950	4	27.462	0	1053.781	0	13.5	4	4.2	4	-1E+10	1	-1E+10	1	-1E+10	1	-1E+10	1	-1E+10	1	-1E+10	1
4901784	86	C	11/11/2017	10:48	-133.349	43.697	0	1070.30	0	3.2870	0	34.4970	4	27.464	0	1059.012	0	13.6	4	4.2	4	-1E+10	1	-1E+10	1	-1E+10	1	-1E+10	1	-1E+10	1	-1E+10	1
4901784	86	C	11/11/2017	10:48	-133.349	43.697	0	1075.50	0	3.2800	0	34.4990	4	27.466	0	1064.144	0	13.7	4	4.3	4	-1E+10	1	-1E+10	1	-1E+10	1	-1E+10	1	-1E+10	1	-1E+10	1
4901784	86	C	11/11/2017	10:48	-133.349	43.697	0	1080.30	0	3.2710	0	34.5010	4	27.469	0	1068.881	0	13.8	4	4.3	4	-1E+10	1	-1E+10	1	-1E+10	1	-1E+10	1	-1E+10	1	-1E+10	1
4901784	86	C	11/11/2017	10:48	-133.349	43.697	0	1085.10	0	3.2620	0	34.5020	4	27.470	0	1073.618	0	13.9	4	4.3	4	-1E+10	1	-1E+10	1	-1E+10	1	-1E+10	1	-1E+10	1	-1E+10	1
4901784	86	C	11/11/2017	10:48	-133.349	43.697	0	1089.90	0	3.2570	0	34.5040	4	27.473	0	1078.355	0	14.0	4	4.4	4	-1E+10	1	-1E+10	1	-1E+10	1	-1E+10	1	-1E+10	1	-1E+10	1
4901784	86	C	11/11/2017	10:48	-133.349	43.697	0	1094.80	0	3.2500	0	34.5050	4	27.474	0	1083.190	0	14.1	4	4.4	4	-1E+10	1	-1E+10	1	-1E+10	1	-1E+10	1	-1E+10	1	-1E+10	1
4901784	86	C	11/11/2017	10:48	-133.349	43.697	0	1099.60	0	3.2440	0	34.5060	4	27.475	0	1087.927	0	14.2	4	4.4	4	-1E+10	1	-1E+10	1	-1E+10	1	-1E+10	1	-1E+10	1	-1E+10	1
4901784	86	C	11/11/2017	10:48	-133.349	43.697	0	1104.50	0	3.2350	0	34.5070	4	27.477	0	1092.762	0	14.2	4	4.4	4	-1E+10	1	-1E+10	1	-1E+10	1	-1E+10	1	-1E+10	1	-1E+10	1
4901784	86	C	11/11/2017	10:48	-133.349	43.697	0	1109.50	0	3.2260	0	34.5080	4	27.479	0	1097.696	0	14.3	4	4.5	4	-1E+10	1	-1E+10	1	-1E+10	1	-1E+10	1	-1E+10	1	-1E+10	1
4901784	86	C	11/11/2017	10:48	-133.349	43.697	0	1114.60	0	3.2130	0	34.5100	4	27.482	0	1102.728	0	14.4	4	4.5	4	-1E+10	1	-1E+10	1	-1E+10	1	-1E+10	1	-1E+10	1	-1E+10	1
4901784	86	C	11/11/2017	10:48	-133.349	43.697	0	1120.00	0	3.2000	0	34.5120	4	27.484	0	1108.056	0	14.4	4	4.5	4	-1E+10	1	-1E+10	1	-1E+10	1	-1E+10	1	-1E+10	1	-1E+10	1
4901784	86	C	11/11/2017	10:48	-133.349	43.697	0	1124.70	0	3.1950	0	34.5120	4	27.485	0	1112.694	0	14.5	4	4.5	4	-1E+10	1	-1E+10	1	-1E+10	1	-1E+10	1	-1E+10	1	-1E+10	1
4901784	86	C	11/11/2017	10:48	-133.349	43.697	0	1129.40	0	3.1790	0	34.5140	4	27.488	0	1117.331	0	14.5	4	4.5	4	-1E+10	1	-1E+10	1	-1E+10	1	-1E+10	1	-1E+10	1	-1E+10	1
4901784	86	C	11/11/2017	10:48	-133.349	43.697	0	1134.90	0	3.1720	0	34.5150	4	27.490	0	1122.758	0	14.6	4	4.5	4	-1E+10	1	-1E+10	1	-1E+10	1	-1E+10	1	-1E+10	1	-1E+10	1
4901784	86	C	11/11/2017	10:48	-133.349	43.697	0	1140.40	0	3.1650	0	34.5160	4	27.491	0	1128.184	0	14.7	4	4.6	4	-1E+10	1	-1E+10	1	-1E+10	1	-1E+10	1	-1E+10	1	-1E+10	1
4901784	86	C	11/11/2017	10:48	-133.349	43.697	0	1145.20	0	3.1580	0	34.5170	4	27.492	0	1132.920	0	14.8	4	4.6	4	-1E+10	1	-1E+10	1	-1E+10	1	-1E+10	1	-1E+10	1	-1E+10	1
4901784	86	C	11/11/2017	10:48	-133.349	43.697	0	1150.00	0	3.1530	0	34.5180	4	27.494	0	1137.655	0	14.9	4	4.6	4	-1E+10	1	-1E+10	1	-1E+10	1	-1E+10	1	-1E+10	1	-1E+10	1
4901784	86	C	11/11/2017	10:48	-133.349	43.697	0	1154.90	0	3.1400	0	34.5200	4	27.497	0	1142.489	0	15.0	4	4.7	4	-1E+10	1	-1E+10	1	-1E+10	1	-1E+10	1	-1E+10	1	-1E+10	1
4901784	86	C	11/11/2017	10:48	-133.349	43.697	0	1159.90	0	3.1250	0	34.5220	4	27.500	0	1147.422	0	15.1	4	4.7	4	-1E+10	1	-1E+10	1	-1E+10	1	-1E+10	1	-1E+10	1	-1E+10	1
4901784	86	C	11/11/2017	10:48	-133.349	43.697	0	1164.90	0	3.1150	0	34.5230	4	27.501	0	1152.354	0	15.2	4	4.7	4	-1E+10	1	-1E+10	1	-1E+10	1	-1E+10	1	-1E+10	1	-1E+10	1
4901784	86	C	11/11/2017	10:48	-133.349	43.697	0	1170.00	0	3.1070	0	34.5240	4	27.503	0	1157.385	0	15.3	4	4.8	4	-1E+10	1	-1E+10	1	-1E+10	1	-1E+10	1	-1E+10	1	-1E+10	1
4901784	86	C	11/11/2017	10:48	-133.349	43.697	0	1175.10	0	3.0950	0	34.5260	4	27.506	0	1162.416	0	15.4	4	4.8	4	-1E+10	1	-1E+10	1	-1E+10	1	-1E+10	1	-1E+10	1	-1E+10	1
4901784	86	C	11/11/2017	10:48	-133.349	43.697	0	1180.30	0	3.0820	0	34.5280	4	27.508	0	1167.546	0	15.5	4	4.8	4	-1E+10	1	-1E+10	1	-1E+10	1	-1E+10	1	-1E+10	1	-1E+10	1
4901784	86	C	11/11/2017	10:48	-133.349	43.697	0	1185.60	0	3.0760	0	34.5290	4	27.510	0	1172.774	0	15.6	4	4.8	4	-1E+10	1	-1E+10	1	-1E+10	1	-1E+10	1	-1E+10	1	-1E+10	1
4901784	86	C	11/11/2017	10:48	-133.349	43.697	0	1189.90	0	3.0710	0	34.5300	4	27.511	0	1177.015	0	15.6	4	4.8	4	-1E+10	1	-1E+10	1	-1E+10	1	-1E+10	1	-1E+10	1	-1E+10	1
4901784	86	C	11/11/2017	10:48	-133.349	43.697	0	1194.40	0	3.0620	0	34.5310	4	27.513	0	1181.454	0	15.7	4	4.9	4	-1E+10	1	-1E+10	1	-1E+10	1	-1E+10	1	-1E+10	1	-1E+10	1
4901784	86	C	11/11/2017	10:48	-133.349	43.697	0	1199.70	0	3.0540	0	34.5330	4	27.515	0	1186.681	0	15.8	4	4.9	4	-1E+10	1	-1E+10	1	-1E+10	1	-1E+10	1	-1E+10	1	-1E+10	1
4901784	86	C	11/11/2017	10:48	-133.349	43.697	0	1205.00	0	3.0430	0	34.5340	4	27.517	0	1191.909	0	15.9	4	4.9	4	-1E+10	1	-1E+10	1	-1E+10	1	-1E+10	1	-1E+10	1	-1E+10	1
4901784	86	C	11/11/2017	10:48	-133.349	43.697	0	1210.40	0	3.0360	0	34.5350	4	27.518	0	1197.235	0	16.0	4	5.0	4	-1E+10	1	-1E+10	1	-1E+10	1	-1E+10	1	-1E+10	1	-1E+10	1
4901784	86	C	11/11/2017	10:48	-133.349	43.697	0	1214.80	0	3.0270	0	34.5360	4	27.520	0	1201.574	0	16.1	4	5.0	4	-1E+10	1	-1E+10	1	-1E+10	1	-1E+10	1	-1E+10	1	-1E+10	1
4901784	86	C	11/11/2017	10:48	-133.349	43.697	0	1219.40	0	3.0170	0	34.5370	4	27.522	0	1206.111	0	16.3	4	5.0	4	-1E+10	1	-1E+10	1	-1E+10	1	-1E+10	1	-1E+10	1	-1E+10	1
4901784	86	C	11/11/2017	10:48	-133.349	43.697	0	1224.90	0	3.0060	0	34.5390	4	27.524	0	1211.535	0	16.4	4	5.1	4	-1E+10	1	-1E+10	1	-1E+10	1	-1E+10	1	-1E+10	1	-1E+10	1
4901784	86	C	11/11/2017	10:48	-133.349	43.697	0	1230.50	0	2.9960	0	34.5410	4	27.527	0	1217.058	0	16.6	4	5.1	4	-1E+10	1	-1E+10	1	-1E+10	1	-1E+10	1	-1E+10	1	-1E+10	1
4901784	86	C	11/11/2017	10:48	-133.349	43.697	0	1235.00	0	2.9900	0	34.5420	4	27.528	0	1221.496	0	16.7	4	5.2	4	-1E+10	1	-1E+10	1	-1E+10	1	-1E+10	1	-1E+10	1	-1E+10	1
4901784	86	C	11/11/2017	10:48	-133.349	43.697	0	1239.30	0	2.9770	0	34.5430	4	27.530	0	1225.736	0	16.9	4	5.2	4	-1E+10	1	-1E+10	1	-1E+10	1	-1E+10	1	-1E+10	1	-1E+10	1
4901784	86	C	11/11/2017	10:48	-133.349	43.697	0	1244.40	0	2.9690	0	34.5450	4	27.533	0	1230.766	0	17.1	4	5.3	4	-1E+10	1	-1E+10	1	-1E+10	1	-1E+10	1	-1E+10	1	-1E+10	1
4901784	86	C	11/11/2017	10:48	-133.349	43.697	0	1249.60	0	2.9580	0	34.5460	4	27.534	0	1235.893	0	17.2	4	5.3	4	-1E+10	1	-1E+10	1	-1E+10	1	-1E+10	1	-1E+10	1	-1E+10	1
4901784	86	C	11/11/2017	10:48	-133.349	43.697	0	1254.80	0	2.9510	0	34.5470	4	27.536	0	1241.021	0	17.4	4	5.4	4	-1E+10	1	-1E+10	1	-1E+10	1	-1E+10	1	-1E+10	1	-1E+10	1
4901784	86	C	11/11/2017	10:48	-133.349	43.697	0	1260.00	0	2.9410	0	34.5480	4	27.538	0	1246.148	0	17.6	4	5.4	4	-1E+10	1	-1E+10	1	-1E+10	1	-1E+10	1	-1E+10	1	-1E+10	1
4901784	86	C	11/11/2017	10:48	-133.349	43.697	0	1265.20	0	2.9290	0	34.5500	4	27.540	0	1251.276	0	17.8	4	5.5	4	-1E+10	1	-1E+10	1	-1E+10	1	-1E+10	1	-1E+10	1	-1E+10	1
4901784	86	C	11/11/2017	10:48	-133.349	43.697	0	1270.40	0	2.9160	0	34.5520	4	27.543	0	1256.403	0	18.0	4	5.6	4	-1E+10	1	-1E+10	1	-1E+10	1	-1E+10	1	-1E+10	1	-1E+10	1
4901784	86	C	11/11/2017	10:48	-133.349	43.697	0	1275.60	0	2.9100	0	34.5530	4	27.544	0	1261.530	0	18.2	4	5.6	4	-1E+10	1	-1E+10	1	-1E+10	1	-1E+10	1	-1E+10	1	-1E+10	1
4901784	86	C	11/11/2017	10:48	-133.349	43.697	0	1279.90	0	2.9010	0	34.5550	4	27.547	0	1265.770	0	18.3	4	5.6	4	-1E+10	1	-1E+10	1	-1E+10	1	-1E+10	1	-1E+10	1	-1E+10	1
4901784	86	C	11/11/2017	10:48	-133.349	43.697	0	1284.30	0	2.8950	0	34.5560	4	27.548	0	1270.108	0	18.4	4	5.7	4	-1E+10	1	-1E+10	1	-1E+10	1	-1E+10	1	-1E+10	1	-1E+10	1
4901784	86	C	11/11/2017	10:48	-133.349	43.697	0	1289.50	0	2.8890	0	34.5560	4	27.549	0	1275.235	0	18.6	4	5.7	4	-1E+10	1	-1E+10	1	-1E+10	1	-1E+10	1	-1E+10	1	-1E+10	1
4901784	86	C	11/11/2017	10:48	-133.349	43.697	0	1294.90	0	2.8800	0	34.5580	4	27.551	0	1280.559	0	18.8	4	5.8	4	-1E+10	1	-1E+10	1	-1E+10	1	-1E+10	1	-1E+10	1	-1E+10	1
4901784	86	C	11/11/2017	10:48	-133.349	43.697	0	1300.20	0	2.8700	0	34.5600	4	27.554	0	1285.784	0	19.1	4	5.9	4	-1E+10	1	-1E+10	1	-1E+10	1	-1E+10	1	-1E+10	1	-1E+10	1
4901784	86	C	11/11/2017	10:48	-133.349	43.697	0	1305.50	0	2.8660	0	34.5600	4	27.554	0	1291.009	0	19.3	4	5.9	4	-1E+10	1	-1E+10	1	-1E+10	1	-1E+10	1	-1E+10	1	-1E+10	1
4901784	86	C	11/11/2017	10:48	-133.349	43.697	0	1309.90	0	2.8530	0	34.5620	4	27.557	0	1295.347	0	19.6	4	6.0	4	-1E+10	1	-1E+10	1	-1E+10	1	-1E+10	1	-1E+10	1	-1E+10	1
4901784	86	C	11/11/2017	10:48	-133.349	43.697	0	1314.40	0	2.8450	0	34.5640	4	27.559	0	1299.783	0	19.8	4	6.1	4	-1E+10	1	-1E+10	1	-1E+10	1	-1E+10	1	-1E+10	1	-1E+10	1
4901784	86	C	11/11/2017	10:48	-133.349	43.697	0	1319.80	0	2.8360	0	34.5650	4	27.561	0	1305.106	0	20.0	4	6.2	4	-1E+10	1	-1E+10	1	-1E+10	1	-1E+10	1	-1E+10	1	-1E+10	1
4901784	86	C	11/11/2017	10:48	-133.349	43.697	0	1325.10	0	2.8240	0	34.5670	4	27.564	0	1310.330	0	20.3	4	6.2	4	-1E+10	1	-1E+10	1	-1E+10	1	-1E+10	1	-1E+10	1	-1E+10	1
4901784	86	C	11/11/2017	10:48	-133.349	43.697	0	1330.50	0	2.8130	0	34.5680	4	27.565	0	1315.653	0	20.6	4	6.3	4	-1E+10	1	-1E+10	1	-1E+10	1	-1E+10	1	-1E+10	1	-1E+10	1
4901784	86	C	11/11/2017	10:48	-133.349	43.697	0	1334.90	0	2.8030	0	34.5700	4	27.568	0	1319.991	0	20.9	4	6.4	4	-1E+10	1	-1E+10	1	-1E+10	1	-1E+10	1	-1E+10	1	-1E+10	1
4901784	86	C	11/11/2017	10:48	-133.349	43.697	0	1339.50	0	2.7950	0	34.5710	4	27.569	0	1324.525	0	21.1	4	6.5	4	-1E+10	1	-1E+10	1	-1E+10	1	-1E+10	1	-1E+10	1	-1E+10	1
4901784	86	C	11/11/2017	10:48	-133.349	43.697	0	1344.90	0	2.7810	0	34.5730	4	27.572	0	1329.847	0	21.4	4	6.6	4	-1E+10	1	-1E+10	1	-1E+10	1	-1E+10	1	-1E+10	1	-1E+10	1
4901784	86	C	11/11/2017	10:48	-133.349	43.697	0	1350.30	0	2.7730	0	34.5740	4	27.574	0	1335.170	0	21.6	4	6.6	4	-1E+10	1	-1E+10	1	-1E+10	1	-1E+10	1	-1E+10	1	-1E+10	1
4901784	86	C	11/11/2017	10:48	-133.349	43.697	0	1354.90	0	2.7620	0	34.5760	4	27.576	0	1339.704	0	21.8	4	6.7	4	-1E+10	1	-1E+10	1	-1E+10	1	-1E+10	1	-1E+10	1	-1E+10	1
4901784	86	C	11/11/2017	10:48	-133.349	43.697	0	1359.40	0	2.7570	0	34.5760	4	27.577	0	1344.139	0	21.9	4	6.7	4	-1E+10	1	-1E+10	1	-1E+10	1	-1E+10	1	-1E+10	1	-1E+10	1
4901784	86	C	11/11/2017	10:48	-133.349	43.697	0	1365.00	0	2.7520	0	34.5770	4	27.578	0	1349.658	0	22.1	4	6.8	4	-1E+10	1	-1E+10	1	-1E+10	1	-1E+10	1	-1E+10	1	-1E+10	1
4901784	86	C	11/11/2017	10:48	-133.349	43.697	0	1370.60	0	2.7420	0	34.5780	4	27.580	0	1355.177	0	22.4	4	6.9	4	-1E+10	1	-1E+10	1	-1E+10	1	-1E+10	1	-1E+10	1	-1E+10	1
4901784	86	C	11/11/2017	10:48	-133.349	43.697	0	1375.10	0	2.7320	0	34.5790	4	27.581	0	1359.612	0	22.6	4	6.9	4	-1E+10	1	-1E+10	1	-1E+10	1	-1E+10	1	-1E+10	1	-1E+10	1
4901784	86	C	11/11/2017	10:48	-133.349	43.697	0	1380.40	0	2.7260	0	34.5800	4	27.583	0	1364.835	0	22.8	4	7.0	4	-1E+10	1	-1E+10	1	-1E+10	1	-1E+10	1	-1E+10	1	-1E+10	1
4901784	86	C	11/11/2017	10:48	-133.349	43.697	0	1385.40	0	2.7140	0	34.5810	4	27.585	0	1369.763	0	23.0	4	7.1	4	-1E+10	1	-1E+10	1	-1E+10	1	-1E+10	1	-1E+10	1	-1E+10	1
4901784	86	C	11/11/2017	10:48	-133.349	43.697	0	1390.30	0	2.7040	0	34.5830	4	27.587	0	1374.591	0	23.3	4	7.1	4	-1E+10	1	-1E+10	1	-1E+10	1	-1E+10	1	-1E+10	1	-1E+10	1
4901784	86	C	11/11/2017	10:48	-133.349	43.697	0	1395.10	0	2.6970	0	34.5830	4	27.588	0	1379.321	0	23.5	4	7.2	4	-1E+10	1	-1E+10	1	-1E+10	1	-1E+10	1	-1E+10	1	-1E+10	1
4901784	86	C	11/11/2017	10:48	-133.349	43.697	0	1399.90	0	2.6830	0	34.5850	4	27.591	0	1384.051	0	23.8	4	7.3	4	-1E+10	1	-1E+10	1	-1E+10	1	-1E+10	1	-1E+10	1	-1E+10	1
4901784	86	C	11/11/2017	10:48	-133.349	43.697	0	1404.80	0	2.6720	0	34.5860	4	27.592	0	1388.880	0	23.9	4	7.3	4	-1E+10	1	-1E+10	1	-1E+10	1	-1E+10	1	-1E+10	1	-1E+10	1
4901784	86	C	11/11/2017	10:48	-133.349	43.697	0	1409.70	0	2.6650	0	34.5870	4	27.594	0	1393.708	0	24.1	4	7.4	4	-1E+10	1	-1E+10	1	-1E+10	1	-1E+10	1	-1E+10	1	-1E+10	1
4901784	86	C	11/11/2017	10:48	-133.349	43.697	0	1414.50	0	2.6570	0	34.5870	4	27.595	0	1398.438	0	24.3	4	7.5	4	-1E+10	1	-1E+10	1	-1E+10	1	-1E+10	1	-1E+10	1	-1E+10	1
4901784	86	C	11/11/2017	10:48	-133.349	43.697	0	1419.40	0	2.6460	0	34.5880	4	27.596	0	1403.266	0	24.6	4	7.5	4	-1E+10	1	-1E+10	1	-1E+10	1	-1E+10	1	-1E+10	1	-1E+10	1
4901784	86	C	11/11/2017	10:48	-133.349	43.697	0	1424.40	0	2.6330	0	34.5900	4	27.599	0	1408.192	0	24.9	4	7.6	4	-1E+10	1	-1E+10	1	-1E+10	1	-1E+10	1	-1E+10	1	-1E+10	1
4901784	86	C	11/11/2017	10:48	-133.349	43.697	0	1429.30	0	2.6210	0	34.5910	4	27.601	0	1413.020	0	25.1	4	7.7	4	-1E+10	1	-1E+10	1	-1E+10	1	-1E+10	1	-1E+10	1	-1E+10	1
4901784	86	C	11/11/2017	10:48	-133.349	43.697	0	1434.30	0	2.6160	0	34.5910	4	27.601	0	1417.946	0	25.3	4	7.7	4	-1E+10	1	-1E+10	1	-1E+10	1	-1E+10	1	-1E+10	1	-1E+10	1
4901784	86	C	11/11/2017	10:48	-133.349	43.697	0	1439.30	0	2.6050	0	34.5920	4	27.603	0	1422.873	0	25.5	4	7.8	4	-1E+10	1	-1E+10	1	-1E+10	1	-1E+10	1	-1E+10	1	-1E+10	1
4901784	86	C	11/11/2017	10:48	-133.349	43.697	0	1444.40	0	2.5940	0	34.5930	4	27.605	0	1427.897	0	25.7	4	7.9	4	-1E+10	1	-1E+10	1	-1E+10	1	-1E+10	1	-1E+10	1	-1E+10	1
4901784	86	C	11/11/2017	10:48	-133.349	43.697	0	1449.50	0	2.5850	0	34.5940	4	27.607	0	1432.921	0	26.0	4	7.9	4	-1E+10	1	-1E+10	1	-1E+10	1	-1E+10	1	-1E+10	1	-1E+10	1
4901784	86	C	11/11/2017	10:48	-133.349	43.697	0	1454.60	0	2.5760	0	34.5950	4	27.608	0	1437.946	0	26.2	4	8.0	4	-1E+10	1	-1E+10	1	-1E+10	1	-1E+10	1	-1E+10	1	-1E+10	1
4901784	86	C	11/11/2017	10:48	-133.349	43.697	0	1459.80	0	2.5650	0	34.5960	4	27.610	0	1443.069	0	26.4	4	8.1	4	-1E+10	1	-1E+10	1	-1E+10	1	-1E+10	1	-1E+10	1	-1E+10	1
4901784	86	C	11/11/2017	10:48	-133.349	43.697	0	1465.00	0	2.5610	0	34.5960	4	27.610	0	1448.191	0	26.7	4	8.2	4	-1E+10	1	-1E+10	1	-1E+10	1	-1E+10	1	-1E+10	1	-1E+10	1
4901784	86	C	11/11/2017	10:48	-133.349	43.697	0	1470.20	0	2.5480	0	34.5980	4	27.613	0	1453.313	0	27.0	4	8.3	4	-1E+10	1	-1E+10	1	-1E+10	1	-1E+10	1	-1E+10	1	-1E+10	1
4901784	86	C	11/11/2017	10:48	-133.349	43.697	0	1475.50	0	2.5370	0	34.5990	4	27.615	0	1458.534	0	27.4	4	8.4	4	-1E+10	1	-1E+10	1	-1E+10	1	-1E+10	1	-1E+10	1	-1E+10	1
4901784	86	C	11/11/2017	10:48	-133.349	43.697	0	1480.70	0	2.5250	0	34.6000	4	27.617	0	1463.657	0	27.7	4	8.5	4	-1E+10	1	-1E+10	1	-1E+10	1	-1E+10	1	-1E+10	1	-1E+10	1
4901784	86	C	11/11/2017	10:48	-133.349	43.697	0	1485.10	0	2.5170	0	34.6010	4	27.618	0	1467.991	0	27.9	4	8.5	4	-1E+10	1	-1E+10	1	-1E+10	1	-1E+10	1	-1E+10	1	-1E+10	1
4901784	86	C	11/11/2017	10:48	-133.349	43.697	0	1489.50	0	2.5090	0	34.6030	4	27.620	0	1472.325	0	28.2	4	8.6	4	-1E+10	1	-1E+10	1	-1E+10	1	-1E+10	1	-1E+10	1	-1E+10	1
4901784	86	C	11/11/2017	10:48	-133.349	43.697	0	1494.80	0	2.5010	0	34.6050	4	27.623	0	1477.545	0	28.4	4	8.7	4	-1E+10	1	-1E+10	1	-1E+10	1	-1E+10	1	-1E+10	1	-1E+10	1
4901784	86	C	11/11/2017	10:48	-133.349	43.697	0	1500.10	0	2.4910	0	34.6060	4	27.624	0	1482.765	0	28.8	4	8.8	4	-1E+10	1	-1E+10	1	-1E+10	1	-1E+10	1	-1E+10	1	-1E+10	1
4901784	86	C	11/11/2017	10:48	-133.349	43.697	0	1505.50	0	2.4790	0	34.6080	4	27.627	0	1488.084	0	29.1	4	8.9	4	-1E+10	1	-1E+10	1	-1E+10	1	-1E+10	1	-1E+10	1	-1E+10	1
4901784	86	C	11/11/2017	10:48	-133.349	43.697	0	1510.00	0	2.4720	0	34.6090	4	27.628	0	1492.516	0	29.4	4	9.0	4	-1E+10	1	-1E+10	1	-1E+10	1	-1E+10	1	-1E+10	1	-1E+10	1
4901784	86	C	11/11/2017	10:48	-133.349	43.697	0	1514.60	0	2.4630	0	34.6100	4	27.630	0	1497.046	0	29.6	4	9.0	4	-1E+10	1	-1E+10	1	-1E+10	1	-1E+10	1	-1E+10	1	-1E+10	1
4901784	86	C	11/11/2017	10:48	-133.349	43.697	0	1520.00	0	2.4520	0	34.6110	4	27.632	0	1502.365	0	29.9	4	9.1	4	-1E+10	1	-1E+10	1	-1E+10	1	-1E+10	1	-1E+10	1	-1E+10	1
4901784	86	C	11/11/2017	10:48	-133.349	43.697	0	1525.50	0	2.4460	0	34.6120	4	27.633	0	1507.781	0	30.2	4	9.2	4	-1E+10	1	-1E+10	1	-1E+10	1	-1E+10	1	-1E+10	1	-1E+10	1
4901784	86	C	11/11/2017	10:48	-133.349	43.697	0	1530.00	0	2.4390	0	34.6130	4	27.634	0	1512.213	0	30.5	4	9.3	4	-1E+10	1	-1E+10	1	-1E+10	1	-1E+10	1	-1E+10	1	-1E+10	1
4901784	86	C	11/11/2017	10:48	-133.349	43.697	0	1535.20	0	2.4290	0	34.6140	4	27.636	0	1517.334	0	30.9	4	9.4	4	-1E+10	1	-1E+10	1	-1E+10	1	-1E+10	1	-1E+10	1	-1E+10	1
4901784	86	C	11/11/2017	10:48	-133.349	43.697	0	1540.30	0	2.4170	0	34.6160	4	27.639	0	1522.356	0	31.2	4	9.5	4	-1E+10	1	-1E+10	1	-1E+10	1	-1E+10	1	-1E+10	1	-1E+10	1
4901784	86	C	11/11/2017	10:48	-133.349	43.697	0	1545.20	0	2.4110	0	34.6170	4	27.640	0	1527.181	0	31.5	4	9.6	4	-1E+10	1	-1E+10	1	-1E+10	1	-1E+10	1	-1E+10	1	-1E+10	1
4901784	86	C	11/11/2017	10:48	-133.349	43.697	0	1550.10	0	2.4020	0	34.6180	4	27.642	0	1532.006	0	31.8	4	9.7	4	-1E+10	1	-1E+10	1	-1E+10	1	-1E+10	1	-1E+10	1	-1E+10	1
4901784	86	C	11/11/2017	10:48	-133.349	43.697	0	1555.00	0	2.3980	0	34.6180	4	27.642	0	1536.831	0	32.0	4	9.7	4	-1E+10	1	-1E+10	1	-1E+10	1	-1E+10	1	-1E+10	1	-1E+10	1
4901784	86	C	11/11/2017	10:48	-133.349	43.697	0	1559.90	0	2.3890	0	34.6190	4	27.644	0	1541.656	0	32.3	4	9.8	4	-1E+10	1	-1E+10	1	-1E+10	1	-1E+10	1	-1E+10	1	-1E+10	1
4901784	86	C	11/11/2017	10:48	-133.349	43.697	0	1564.90	0	2.3800	0	34.6200	4	27.645	0	1546.580	0	32.6	4	9.9	4	-1E+10	1	-1E+10	1	-1E+10	1	-1E+10	1	-1E+10	1	-1E+10	1
4901784	86	C	11/11/2017	10:48	-133.349	43.697	0	1569.90	0	2.3760	0	34.6210	4	27.646	0	1551.503	0	32.8	4	10.0	4	-1E+10	1	-1E+10	1	-1E+10	1	-1E+10	1	-1E+10	1	-1E+10	1
4901784	86	C	11/11/2017	10:48	-133.349	43.697	0	1574.90	0	2.3690	0	34.6220	4	27.648	0	1556.426	0	33.1	4	10.1	4	-1E+10	1	-1E+10	1	-1E+10	1	-1E+10	1	-1E+10	1	-1E+10	1
4901784	86	C	11/11/2017	10:48	-133.349	43.697	0	1579.90	0	2.3640	0	34.6230	4	27.649	0	1561.349	0	33.4	4	10.2	4	-1E+10	1	-1E+10	1	-1E+10	1	-1E+10	1	-1E+10	1	-1E+10	1
4901784	86	C	11/11/2017	10:48	-133.349	43.697	0	1585.00	0	2.3560	0	34.6230	4	27.650	0	1566.370	0	33.9	4	10.3	4	-1E+10	1	-1E+10	1	-1E+10	1	-1E+10	1	-1E+10	1	-1E+10	1
4901784	86	C	11/11/2017	10:48	-133.349	43.697	0	1590.10	0	2.3500	0	34.6250	4	27.652	0	1571.391	0	34.3	4	10.4	4	-1E+10	1	-1E+10	1	-1E+10	1	-1E+10	1	-1E+10	1	-1E+10	1
4901784	86	C	11/11/2017	10:48	-133.349	43.697	0	1595.30	0	2.3400	0	34.6260	4	27.653	0	1576.511	0	34.6	4	10.5	4	-1E+10	1	-1E+10	1	-1E+10	1	-1E+10	1	-1E+10	1	-1E+10	1
4901784	86	C	11/11/2017	10:48	-133.349	43.697	0	1600.40	0	2.3280	0	34.6270	4	27.655	0	1581.531	0	35.0	4	10.6	4	-1E+10	1	-1E+10	1	-1E+10	1	-1E+10	1	-1E+10	1	-1E+10	1
4901784	86	C	11/11/2017	10:48	-133.349	43.697	0	1605.60	0	2.3250	0	34.6280	4	27.656	0	1586.651	0	35.4	4	10.8	4	-1E+10	1	-1E+10	1	-1E+10	1	-1E+10	1	-1E+10	1	-1E+10	1
4901784	86	C	11/11/2017	10:48	-133.349	43.697	0	1610.00	0	2.3180	0	34.6290	4	27.658	0	1590.982	0	35.8	4	10.9	4	-1E+10	1	-1E+10	1	-1E+10	1	-1E+10	1	-1E+10	1	-1E+10	1
4901784	86	C	11/11/2017	10:48	-133.349	43.697	0	1614.30	0	2.3120	0	34.6310	4	27.660	0	1595.215	0	36.4	4	11.1	4	-1E+10	1	-1E+10	1	-1E+10	1	-1E+10	1	-1E+10	1	-1E+10	1
4901784	86	C	11/11/2017	10:48	-133.349	43.697	0	1619.60	0	2.3100	0	34.6300	4	27.659	0	1600.432	0	37.0	4	11.2	4	-1E+10	1	-1E+10	1	-1E+10	1	-1E+10	1	-1E+10	1	-1E+10	1
4901784	86	C	11/11/2017	10:48	-133.349	43.697	0	1624.90	0	2.3120	0	34.6320	4	27.661	0	1605.650	0	37.3	4	11.3	4	-1E+10	1	-1E+10	1	-1E+10	1	-1E+10	1	-1E+10	1	-1E+10	1
4901784	86	C	11/11/2017	10:48	-133.349	43.697	0	1630.30	0	2.3110	0	34.6310	4	27.660	0	1610.965	0	37.5	4	11.4	4	-1E+10	1	-1E+10	1	-1E+10	1	-1E+10	1	-1E+10	1	-1E+10	1
4901784	86	C	11/11/2017	10:48	-133.349	43.697	0	1635.70	0	2.3020	0	34.6320	4	27.662	0	1616.281	0	37.8	4	11.5	4	-1E+10	1	-1E+10	1	-1E+10	1	-1E+10	1	-1E+10	1	-1E+10	1
4901784	86	C	11/11/2017	10:48	-133.349	43.697	0	1640.20	0	2.2950	0	34.6330	4	27.663	0	1620.710	0	37.9	4	11.5	4	-1E+10	1	-1E+10	1	-1E+10	1	-1E+10	1	-1E+10	1	-1E+10	1
4901784	86	C	11/11/2017	10:48	-133.349	43.697	0	1644.70	0	2.2860	0	34.6330	4	27.664	0	1625.139	0	38.3	4	11.6	4	-1E+10	1	-1E+10	1	-1E+10	1	-1E+10	1	-1E+10	1	-1E+10	1
4901784	86	C	11/11/2017	10:48	-133.349	43.697	0	1650.20	0	2.2770	0	34.6340	4	27.665	0	1630.553	0	38.5	4	11.7	4	-1E+10	1	-1E+10	1	-1E+10	1	-1E+10	1	-1E+10	1	-1E+10	1
4901784	86	C	11/11/2017	10:48	-133.349	43.697	0	1654.80	0	2.2660	0	34.6340	4	27.666	0	1635.080	0	38.8	4	11.8	4	-1E+10	1	-1E+10	1	-1E+10	1	-1E+10	1	-1E+10	1	-1E+10	1
4901784	86	C	11/11/2017	10:48	-133.349	43.697	0	1659.40	0	2.2570	0	34.6360	4	27.668	0	1639.608	0	39.4	4	12.0	4	-1E+10	1	-1E+10	1	-1E+10	1	-1E+10	1	-1E+10	1	-1E+10	1
4901784	86	C	11/11/2017	10:48	-133.349	43.697	0	1665.00	0	2.2490	0	34.6370	4	27.670	0	1645.119	0	39.8	4	12.1	4	-1E+10	1	-1E+10	1	-1E+10	1	-1E+10	1	-1E+10	1	-1E+10	1
4901784	86	C	11/11/2017	10:48	-133.349	43.697	0	1670.60	0	2.2420	0	34.6380	4	27.671	0	1650.630	0	40.3	4	12.2	4	-1E+10	1	-1E+10	1	-1E+10	1	-1E+10	1	-1E+10	1	-1E+10	1
4901784	86	C	11/11/2017	10:48	-133.349	43.697	0	1674.70	0	2.2350	0	34.6400	4	27.674	0	1654.665	0	40.6	4	12.3	4	-1E+10	1	-1E+10	1	-1E+10	1	-1E+10	1	-1E+10	1	-1E+10	1
4901784	86	C	11/11/2017	10:48	-133.349	43.697	0	1679.50	0	2.2240	0	34.6400	4	27.674	0	1659.389	0	40.7	4	12.4	4	-1E+10	1	-1E+10	1	-1E+10	1	-1E+10	1	-1E+10	1	-1E+10	1
4901784	86	C	11/11/2017	10:48	-133.349	43.697	0	1684.30	0	2.2150	0	34.6410	4	27.676	0	1664.113	0	40.9	4	12.4	4	-1E+10	1	-1E+10	1	-1E+10	1	-1E+10	1	-1E+10	1	-1E+10	1
4901784	86	C	11/11/2017	10:48	-133.349	43.697	0	1690.00	0	2.2090	0	34.6410	4	27.677	0	1669.722	0	41.1	4	12.5	4	-1E+10	1	-1E+10	1	-1E+10	1	-1E+10	1	-1E+10	1	-1E+10	1
4901784	86	C	11/11/2017	10:48	-133.349	43.697	0	1695.00	0	2.2040	0	34.6420	4	27.678	0	1674.642	0	41.4	4	12.5	4	-1E+10	1	-1E+10	1	-1E+10	1	-1E+10	1	-1E+10	1	-1E+10	1
4901784	86	C	11/11/2017	10:48	-133.349	43.697	0	1700.00	0	2.1990	0	34.6420	4	27.678	0	1679.563	0	41.7	4	12.6	4	-1E+10	1	-1E+10	1	-1E+10	1	-1E+10	1	-1E+10	1	-1E+10	1
4901784	86	C	11/11/2017	10:48	-133.349	43.697	0	1705.80	0	2.1930	0	34.6430	4	27.679	0	1685.270	0	42.1	4	12.8	4	-1E+10	1	-1E+10	1	-1E+10	1	-1E+10	1	-1E+10	1	-1E+10	1
4901784	86	C	11/11/2017	10:48	-133.349	43.697	0	1710.80	0	2.1860	0	34.6440	4	27.681	0	1690.190	0	42.6	4	12.9	4	-1E+10	1	-1E+10	1	-1E+10	1	-1E+10	1	-1E+10	1	-1E+10	1
4901784	86	C	11/11/2017	10:48	-133.349	43.697	0	1715.00	0	2.1780	0	34.6460	4	27.683	0	1694.322	0	42.9	4	13.0	4	-1E+10	1	-1E+10	1	-1E+10	1	-1E+10	1	-1E+10	1	-1E+10	1
4901784	86	C	11/11/2017	10:48	-133.349	43.697	0	1719.30	0	2.1770	0	34.6460	4	27.683	0	1698.553	0	43.1	4	13.1	4	-1E+10	1	-1E+10	1	-1E+10	1	-1E+10	1	-1E+10	1	-1E+10	1
4901784	86	C	11/11/2017	10:48	-133.349	43.697	0	1724.30	0	2.1700	0	34.6470	4	27.685	0	1703.473	0	43.5	4	13.2	4	-1E+10	1	-1E+10	1	-1E+10	1	-1E+10	1	-1E+10	1	-1E+10	1
4901784	86	C	11/11/2017	10:48	-133.349	43.697	0	1729.50	0	2.1690	0	34.6470	4	27.685	0	1708.589	0	43.7	4	13.2	4	-1E+10	1	-1E+10	1	-1E+10	1	-1E+10	1	-1E+10	1	-1E+10	1
4901784	86	C	11/11/2017	10:48	-133.349	43.697	0	1734.60	0	2.1680	0	34.6480	4	27.686	0	1713.607	0	43.9	4	13.3	4	-1E+10	1	-1E+10	1	-1E+10	1	-1E+10	1	-1E+10	1	-1E+10	1
4901784	86	C	11/11/2017	10:48	-133.349	43.697	0	1739.70	0	2.1650	0	34.6500	4	27.688	0	1718.624	0	44.1	4	13.4	4	-1E+10	1	-1E+10	1	-1E+10	1	-1E+10	1	-1E+10	1	-1E+10	1
4901784	86	C	11/11/2017	10:48	-133.349	43.697	0	1744.90	0	2.1620	0	34.6490	4	27.687	0	1723.740	0	44.3	4	13.4	4	-1E+10	1	-1E+10	1	-1E+10	1	-1E+10	1	-1E+10	1	-1E+10	1
4901784	86	C	11/11/2017	10:48	-133.349	43.697	0	1750.10	0	2.1550	0	34.6490	4	27.688	0	1728.856	0	44.5	4	13.5	4	-1E+10	1	-1E+10	1	-1E+10	1	-1E+10	1	-1E+10	1	-1E+10	1
4901784	86	C	11/11/2017	10:48	-133.349	43.697	0	1755.20	0	2.1510	0	34.6490	4	27.688	0	1733.873	0	45.0	4	13.6	4	-1E+10	1	-1E+10	1	-1E+10	1	-1E+10	1	-1E+10	1	-1E+10	1
4901784	86	C	11/11/2017	10:48	-133.349	43.697	0	1760.40	0	2.1460	0	34.6510	4	27.690	0	1738.989	0	45.6	4	13.8	4	-1E+10	1	-1E+10	1	-1E+10	1	-1E+10	1	-1E+10	1	-1E+10	1
4901784	86	C	11/11/2017	10:48	-133.349	43.697	0	1765.60	0	2.1410	0	34.6520	4	27.691	0	1744.104	0	45.8	4	13.9	4	-1E+10	1	-1E+10	1	-1E+10	1	-1E+10	1	-1E+10	1	-1E+10	1
4901784	86	C	11/11/2017	10:48	-133.349	43.697	0	1769.90	0	2.1330	0	34.6520	4	27.692	0	1748.334	0	45.9	4	13.9	4	-1E+10	1	-1E+10	1	-1E+10	1	-1E+10	1	-1E+10	1	-1E+10	1
4901784	86	C	11/11/2017	10:48	-133.349	43.697	0	1774.30	0	2.1310	0	34.6530	4	27.693	0	1752.663	0	46.2	4	14.0	4	-1E+10	1	-1E+10	1	-1E+10	1	-1E+10	1	-1E+10	1	-1E+10	1
4901784	86	C	11/11/2017	10:48	-133.349	43.697	0	1779.60	0	2.1250	0	34.6540	4	27.694	0	1757.876	0	46.4	4	14.1	4	-1E+10	1	-1E+10	1	-1E+10	1	-1E+10	1	-1E+10	1	-1E+10	1
4901784	86	C	11/11/2017	10:48	-133.349	43.697	0	1785.00	0	2.1240	0	34.6540	4	27.694	0	1763.188	0	46.8	4	14.2	4	-1E+10	1	-1E+10	1	-1E+10	1	-1E+10	1	-1E+10	1	-1E+10	1
4901784	86	C	11/11/2017	10:48	-133.349	43.697	0	1790.20	0	2.1180	0	34.6560	4	27.696	0	1768.303	0	47.4	4	14.3	4	-1E+10	1	-1E+10	1	-1E+10	1	-1E+10	1	-1E+10	1	-1E+10	1
4901784	86	C	11/11/2017	10:48	-133.349	43.697	0	1795.50	0	2.1080	0	34.6570	4	27.698	0	1773.516	0	47.6	4	14.4	4	-1E+10	1	-1E+10	1	-1E+10	1	-1E+10	1	-1E+10	1	-1E+10	1
4901784	86	C	11/11/2017	10:48	-133.349	43.697	0	1799.90	0	2.1010	0	34.6570	4	27.699	0	1777.843	0	47.7	4	14.4	4	-1E+10	1	-1E+10	1	-1E+10	1	-1E+10	1	-1E+10	1	-1E+10	1
4901784	86	C	11/11/2017	10:48	-133.349	43.697	0	1804.40	0	2.1000	0	34.6570	4	27.699	0	1782.269	0	47.9	4	14.5	4	-1E+10	1	-1E+10	1	-1E+10	1	-1E+10	1	-1E+10	1	-1E+10	1
4901784	86	C	11/11/2017	10:48	-133.349	43.697	0	1809.80	0	2.0960	0	34.6580	4	27.700	0	1787.580	0	48.2	4	14.6	4	-1E+10	1	-1E+10	1	-1E+10	1	-1E+10	1	-1E+10	1	-1E+10	1
4901784	86	C	11/11/2017	10:48	-133.349	43.697	0	1815.10	0	2.0930	0	34.6580	4	27.700	0	1792.793	0	48.4	4	14.6	4	-1E+10	1	-1E+10	1	-1E+10	1	-1E+10	1	-1E+10	1	-1E+10	1
4901784	86	C	11/11/2017	10:48	-133.349	43.697	0	1820.50	0	2.0890	0	34.6590	4	27.701	0	1798.104	0	48.7	4	14.7	4	-1E+10	1	-1E+10	1	-1E+10	1	-1E+10	1	-1E+10	1	-1E+10	1
4901784	86	C	11/11/2017	10:48	-133.349	43.697	0	1825.00	0	2.0860	0	34.6600	4	27.702	0	1802.529	0	48.9	4	14.8	4	-1E+10	1	-1E+10	1	-1E+10	1	-1E+10	1	-1E+10	1	-1E+10	1
4901784	86	C	11/11/2017	10:48	-133.349	43.697	0	1829.50	0	2.0820	0	34.6600	4	27.703	0	1806.955	0	49.0	4	14.8	4	-1E+10	1	-1E+10	1	-1E+10	1	-1E+10	1	-1E+10	1	-1E+10	1
4901784	86	C	11/11/2017	10:48	-133.349	43.697	0	1834.90	0	2.0760	0	34.6610	4	27.704	0	1812.265	0	49.1	4	14.8	4	-1E+10	1	-1E+10	1	-1E+10	1	-1E+10	1	-1E+10	1	-1E+10	1
4901784	86	C	11/11/2017	10:48	-133.349	43.697	0	1840.30	0	2.0670	0	34.6630	4	27.706	0	1817.576	0	49.3	4	14.9	4	-1E+10	1	-1E+10	1	-1E+10	1	-1E+10	1	-1E+10	1	-1E+10	1
4901784	86	C	11/11/2017	10:48	-133.349	43.697	0	1844.80	0	2.0660	0	34.6630	4	27.706	0	1822.001	0	49.5	4	15.0	4	-1E+10	1	-1E+10	1	-1E+10	1	-1E+10	1	-1E+10	1	-1E+10	1
4901784	86	C	11/11/2017	10:48	-133.349	43.697	0	1849.40	0	2.0590	0	34.6640	4	27.708	0	1826.524	0	49.8	4	15.1	4	-1E+10	1	-1E+10	1	-1E+10	1	-1E+10	1	-1E+10	1	-1E+10	1
4901784	86	C	11/11/2017	10:48	-133.349	43.697	0	1854.80	0	2.0550	0	34.6650	4	27.709	0	1831.834	0	50.1	4	15.1	4	-1E+10	1	-1E+10	1	-1E+10	1	-1E+10	1	-1E+10	1	-1E+10	1
4901784	86	C	11/11/2017	10:48	-133.349	43.697	0	1859.90	0	2.0510	0	34.6660	4	27.710	0	1836.849	0	50.5	4	15.2	4	-1E+10	1	-1E+10	1	-1E+10	1	-1E+10	1	-1E+10	1	-1E+10	1
4901784	86	C	11/11/2017	10:48	-133.349	43.697	0	1865.00	0	2.0450	0	34.6670	4	27.711	0	1841.864	0	50.7	4	15.3	4	-1E+10	1	-1E+10	1	-1E+10	1	-1E+10	1	-1E+10	1	-1E+10	1
4901784	86	C	11/11/2017	10:48	-133.349	43.697	0	1870.80	0	2.0450	0	34.6670	4	27.711	0	1847.567	0	50.9	4	15.4	4	-1E+10	1	-1E+10	1	-1E+10	1	-1E+10	1	-1E+10	1	-1E+10	1
4901784	86	C	11/11/2017	10:48	-133.349	43.697	0	1875.80	0	2.0420	0	34.6680	4	27.712	0	1852.483	0	51.3	4	15.5	4	-1E+10	1	-1E+10	1	-1E+10	1	-1E+10	1	-1E+10	1	-1E+10	1
4901784	86	C	11/11/2017	10:48	-133.349	43.697	0	1880.80	0	2.0360	0	34.6690	4	27.714	0	1857.399	0	51.6	4	15.6	4	-1E+10	1	-1E+10	1	-1E+10	1	-1E+10	1	-1E+10	1	-1E+10	1
4901784	86	C	11/11/2017	10:48	-133.349	43.697	0	1885.70	0	2.0350	0	34.6690	4	27.714	0	1862.216	0	51.8	4	15.7	4	-1E+10	1	-1E+10	1	-1E+10	1	-1E+10	1	-1E+10	1	-1E+10	1
4901784	86	C	11/11/2017	10:48	-133.349	43.697	0	1890.60	0	2.0320	0	34.6700	4	27.715	0	1867.034	0	52.2	4	15.8	4	-1E+10	1	-1E+10	1	-1E+10	1	-1E+10	1	-1E+10	1	-1E+10	1
4901784	86	C	11/11/2017	10:48	-133.349	43.697	0	1895.60	0	2.0280	0	34.6690	4	27.714	0	1871.949	0	52.6	4	15.9	4	-1E+10	1	-1E+10	1	-1E+10	1	-1E+10	1	-1E+10	1	-1E+10	1
4901784	86	C	11/11/2017	10:48	-133.349	43.697	0	1900.60	0	2.0230	0	34.6680	4	27.714	0	1876.865	0	53.0	4	16.0	4	-1E+10	1	-1E+10	1	-1E+10	1	-1E+10	1	-1E+10	1	-1E+10	1
4901784	86	C	11/11/2017	10:48	-133.349	43.697	0	1905.60	0	2.0170	0	34.6700	4	27.716	0	1881.780	0	53.4	4	16.1	4	-1E+10	1	-1E+10	1	-1E+10	1	-1E+10	1	-1E+10	1	-1E+10	1
4901784	86	C	11/11/2017	10:48	-133.349	43.697	0	1910.50	0	2.0150	0	34.6700	4	27.716	0	1886.598	0	53.6	4	16.2	4	-1E+10	1	-1E+10	1	-1E+10	1	-1E+10	1	-1E+10	1	-1E+10	1
4901784	86	C	11/11/2017	10:48	-133.349	43.697	0	1915.50	0	2.0120	0	34.6700	4	27.717	0	1891.513	0	53.8	4	16.2	4	-1E+10	1	-1E+10	1	-1E+10	1	-1E+10	1	-1E+10	1	-1E+10	1
4901784	86	C	11/11/2017	10:48	-133.349	43.697	0	1920.50	0	2.0100	0	34.6700	4	27.717	0	1896.428	0	54.0	4	16.3	4	-1E+10	1	-1E+10	1	-1E+10	1	-1E+10	1	-1E+10	1	-1E+10	1
4901784	86	C	11/11/2017	10:48	-133.349	43.697	0	1925.50	0	2.0080	0	34.6710	4	27.718	0	1901.343	0	54.3	4	16.4	4	-1E+10	1	-1E+10	1	-1E+10	1	-1E+10	1	-1E+10	1	-1E+10	1
4901784	86	C	11/11/2017	10:48	-133.349	43.697	0	1930.60	0	2.0040	0	34.6710	4	27.718	0	1906.356	0	54.5	4	16.4	4	-1E+10	1	-1E+10	1	-1E+10	1	-1E+10	1	-1E+10	1	-1E+10	1
4901784	86	C	11/11/2017	10:48	-133.349	43.697	0	1935.60	0	2.0020	0	34.6710	4	27.718	0	1911.271	0	54.8	4	16.5	4	-1E+10	1	-1E+10	1	-1E+10	1	-1E+10	1	-1E+10	1	-1E+10	1
4901784	86	C	11/11/2017	10:48	-133.349	43.697	0	1940.70	0	1.9940	0	34.6720	4	27.720	0	1916.284	0	55.2	4	16.6	4	-1E+10	1	-1E+10	1	-1E+10	1	-1E+10	1	-1E+10	1	-1E+10	1
4901784	86	C	11/11/2017	10:48	-133.349	43.697	0	1944.90	0	1.9910	0	34.6730	4	27.721	0	1920.412	0	55.4	4	16.7	4	-1E+10	1	-1E+10	1	-1E+10	1	-1E+10	1	-1E+10	1	-1E+10	1
4901784	86	C	11/11/2017	10:48	-133.349	43.697	0	1949.20	0	1.9890	0	34.6730	4	27.721	0	1924.638	0	55.6	4	16.8	4	-1E+10	1	-1E+10	1	-1E+10	1	-1E+10	1	-1E+10	1	-1E+10	1
4901784	86	C	11/11/2017	10:48	-133.349	43.697	0	1954.20	0	1.9880	0	34.6730	4	27.721	0	1929.553	0	55.9	4	16.9	4	-1E+10	1	-1E+10	1	-1E+10	1	-1E+10	1	-1E+10	1	-1E+10	1
4901784	86	C	11/11/2017	10:48	-133.349	43.697	0	1959.30	0	1.9840	0	34.6740	4	27.722	0	1934.565	0	56.3	4	17.0	4	-1E+10	1	-1E+10	1	-1E+10	1	-1E+10	1	-1E+10	1	-1E+10	1
4901784	86	C	11/11/2017	10:48	-133.349	43.697	0	1964.40	0	1.9790	0	34.6740	4	27.723	0	1939.578	0	56.6	4	17.1	4	-1E+10	1	-1E+10	1	-1E+10	1	-1E+10	1	-1E+10	1	-1E+10	1
4901784	86	C	11/11/2017	10:48	-133.349	43.697	0	1969.50	0	1.9750	0	34.6750	4	27.724	0	1944.590	0	56.9	4	17.2	4	-1E+10	1	-1E+10	1	-1E+10	1	-1E+10	1	-1E+10	1	-1E+10	1
4901784	86	C	11/11/2017	10:48	-133.349	43.697	0	1974.60	0	1.9730	0	34.6750	4	27.724	0	1949.602	0	57.1	4	17.2	4	-1E+10	1	-1E+10	1	-1E+10	1	-1E+10	1	-1E+10	1	-1E+10	1
4901784	86	C	11/11/2017	10:48	-133.349	43.697	0	1979.60	0	1.9680	0	34.6760	4	27.725	0	1954.516	0	57.3	4	17.3	4	-1E+10	1	-1E+10	1	-1E+10	1	-1E+10	1	-1E+10	1	-1E+10	1
4901784	86	C	11/11/2017	10:48	-133.349	43.697	0	1984.70	0	1.9660	0	34.6760	4	27.725	0	1959.528	0	57.5	4	17.3	4	-1E+10	1	-1E+10	1	-1E+10	1	-1E+10	1	-1E+10	1	-1E+10	1
4901784	86	C	11/11/2017	10:48	-133.349	43.697	0	1989.80	0	1.9640	0	34.6780	4	27.727	0	1964.540	0	57.7	4	17.4	4	-1E+10	1	-1E+10	1	-1E+10	1	-1E+10	1	-1E+10	1	-1E+10	1
4901784	86	C	11/11/2017	10:48	-133.349	43.697	0	1995.00	0	1.9610	0	34.6800	4	27.729	0	1969.650	0	57.9	4	17.4	4	-1E+10	1	-1E+10	1	-1E+10	1	-1E+10	1	-1E+10	1	-1E+10	1
4901784	86	C	11/11/2017	10:48	-133.349	43.697	0	2000.70	0	1.9590	0	34.6800	4	27.729	0	1975.251	0	58.1	4	17.5	4	-1E+10	1	-1E+10	1	-1E+10	1	-1E+10	1	-1E+10	1	-1E+10	1
4901784	86	C	11/11/2017	10:48	-133.349	43.697	0	2005.40	0	1.9550	0	34.6810	4	27.730	0	1979.869	0	58.3	4	17.6	4	-1E+10	1	-1E+10	1	-1E+10	1	-1E+10	1	-1E+10	1	-1E+10	1
4901784	86	C	11/11/2017	10:48	-133.349	43.697	0	2010.40	0	1.9520	0	34.6820	4	27.731	0	1984.782	0	58.5	4	17.6	4	-1E+10	1	-1E+10	1	-1E+10	1	-1E+10	1	-1E+10	1	-1E+10	1
4901784	86	C	11/11/2017	10:48	-133.349	43.697	0	2014.80	0	1.9500	0	34.6810	4	27.731	0	1989.106	0	58.7	4	17.7	4	-1E+10	1	-1E+10	1	-1E+10	1	-1E+10	1	-1E+10	1	-1E+10	1
4901784	86	C	11/11/2017	10:48	-133.349	43.697	0	2020.10	0	1.9450	0	34.6790	4	27.730	0	1994.313	0	58.9	4	17.7	4	-1E+10	1	-1E+10	1	-1E+10	1	-1E+10	1	-1E+10	1	-1E+10	1
4901784	86	C	11/11/2017	10:48	-133.349	43.697	0																										
4901784	87	C	11/21/2017	10:44	-133.508	43.824	0	2.70	0	13.6140	0	32.9210	4	24.661	0	2.678	0	246.2	4	95.2	4	-1E+10	1	-1E+10	1	-1E+10	1	-1E+10	1	-1E+10	1	-1E+10	1
4901784	87	C	11/21/2017	10:44	-133.508	43.824	0	3.80	0	13.6160	0	32.9050	4	24.648	0	3.770	0	246.0	4	95.2	4	-1E+10	1	-1E+10	1	-1E+10	1	-1E+10	1	-1E+10	1	-1E+10	1
4901784	87	C	11/21/2017	10:44	-133.508	43.824	0	5.30	0	13.6120	0	32.9230	4	24.663	0	5.257	0	246.0	4	95.2	4	-1E+10	1	-1E+10	1	-1E+10	1	-1E+10	1	-1E+10	1	-1E+10	1
4901784	87	C	11/21/2017	10:44	-133.508	43.824	0	7.10	0	13.6120	0	32.9220	4	24.662	0	7.043	0	245.9	4	95.1	4	-1E+10	1	-1E+10	1	-1E+10	1	-1E+10	1	-1E+10	1	-1E+10	1
4901784	87	C	11/21/2017	10:44	-133.508	43.824	0	8.70	0	13.6080	0	32.9240	4	24.664	0	8.630	0	246.0	4	95.2	4	-1E+10	1	-1E+10	1	-1E+10	1	-1E+10	1	-1E+10	1	-1E+10	1
4901784	87	C	11/21/2017	10:44	-133.508	43.824	0	10.40	0	13.6060	0	32.9240	4	24.665	0	10.316	0	246.1	4	95.2	4	-1E+10	1	-1E+10	1	-1E+10	1	-1E+10	1	-1E+10	1	-1E+10	1
4901784	87	C	11/21/2017	10:44	-133.508	43.824	0	12.00	0	13.6050	0	32.9250	4	24.666	0	11.904	0	245.8	4	95.1	4	-1E+10	1	-1E+10	1	-1E+10	1	-1E+10	1	-1E+10	1	-1E+10	1
4901784	87	C	11/21/2017	10:44	-133.508	43.824	0	13.60	0	13.6120	0	32.9250	4	24.664	0	13.491	0	245.8	4	95.1	4	-1E+10	1	-1E+10	1	-1E+10	1	-1E+10	1	-1E+10	1	-1E+10	1
4901784	87	C	11/21/2017	10:44	-133.508	43.824	0	15.30	0	13.6100	0	32.9250	4	24.665	0	15.177	0	245.8	4	95.1	4	-1E+10	1	-1E+10	1	-1E+10	1	-1E+10	1	-1E+10	1	-1E+10	1
4901784	87	C	11/21/2017	10:44	-133.508	43.824	0	17.00	0	13.6100	0	32.9260	4	24.666	0	16.863	0	245.6	4	95.0	4	-1E+10	1	-1E+10	1	-1E+10	1	-1E+10	1	-1E+10	1	-1E+10	1
4901784	87	C	11/21/2017	10:44	-133.508	43.824	0	18.70	0	13.6140	0	32.9280	4	24.666	0	18.549	0	245.5	4	95.0	4	-1E+10	1	-1E+10	1	-1E+10	1	-1E+10	1	-1E+10	1	-1E+10	1
4901784	87	C	11/21/2017	10:44	-133.508	43.824	0	20.50	0	13.6140	0	32.9290	4	24.667	0	20.335	0	245.6	4	95.0	4	-1E+10	1	-1E+10	1	-1E+10	1	-1E+10	1	-1E+10	1	-1E+10	1
4901784	87	C	11/21/2017	10:44	-133.508	43.824	0	22.40	0	13.6140	0	32.9280	4	24.667	0	22.219	0	245.5	4	95.0	4	-1E+10	1	-1E+10	1	-1E+10	1	-1E+10	1	-1E+10	1	-1E+10	1
4901784	87	C	11/21/2017	10:44	-133.508	43.824	0	24.10	0	13.6140	0	32.9280	4	24.667	0	23.906	0	245.4	4	95.0	4	-1E+10	1	-1E+10	1	-1E+10	1	-1E+10	1	-1E+10	1	-1E+10	1
4901784	87	C	11/21/2017	10:44	-133.508	43.824	0	25.90	0	13.6140	0	32.9260	4	24.665	0	25.691	0	245.3	4	94.9	4	-1E+10	1	-1E+10	1	-1E+10	1	-1E+10	1	-1E+10	1	-1E+10	1
4901784	87	C	11/21/2017	10:44	-133.508	43.824	0	27.70	0	13.6120	0	32.9270	4	24.666	0	27.476	0	245.0	4	94.8	4	-1E+10	1	-1E+10	1	-1E+10	1	-1E+10	1	-1E+10	1	-1E+10	1
4901784	87	C	11/21/2017	10:44	-133.508	43.824	0	29.50	0	13.6120	0	32.9260	4	24.666	0	29.262	0	244.9	4	94.8	4	-1E+10	1	-1E+10	1	-1E+10	1	-1E+10	1	-1E+10	1	-1E+10	1
4901784	87	C	11/21/2017	10:44	-133.508	43.824	0	31.30	0	13.6100	0	32.9260	4	24.666	0	31.047	0	244.9	4	94.7	4	-1E+10	1	-1E+10	1	-1E+10	1	-1E+10	1	-1E+10	1	-1E+10	1
4901784	87	C	11/21/2017	10:44	-133.508	43.824	0	33.20	0	13.6090	0	32.9270	4	24.667	0	32.931	0	244.7	4	94.7	4	-1E+10	1	-1E+10	1	-1E+10	1	-1E+10	1	-1E+10	1	-1E+10	1
4901784	87	C	11/21/2017	10:44	-133.508	43.824	0	34.90	0	13.6020	0	32.9280	4	24.669	0	34.618	0	244.7	4	94.7	4	-1E+10	1	-1E+10	1	-1E+10	1	-1E+10	1	-1E+10	1	-1E+10	1
4901784	87	C	11/21/2017	10:44	-133.508	43.824	0	36.70	0	13.6040	0	32.9270	4	24.668	0	36.403	0	244.5	4	94.6	4	-1E+10	1	-1E+10	1	-1E+10	1	-1E+10	1	-1E+10	1	-1E+10	1
4901784	87	C	11/21/2017	10:44	-133.508	43.824	0	38.50	0	13.6010	0	32.9280	4	24.670	0	38.188	0	244.4	4	94.5	4	-1E+10	1	-1E+10	1	-1E+10	1	-1E+10	1	-1E+10	1	-1E+10	1
4901784	87	C	11/21/2017	10:44	-133.508	43.824	0	40.30	0	13.5890	0	32.9280	4	24.672	0	39.973	0	244.1	4	94.4	4	-1E+10	1	-1E+10	1	-1E+10	1	-1E+10	1	-1E+10	1	-1E+10	1
4901784	87	C	11/21/2017	10:44	-133.508	43.824	0	42.20	0	13.5820	0	32.9280	4	24.674	0	41.858	0	243.9	4	94.3	4	-1E+10	1	-1E+10	1	-1E+10	1	-1E+10	1	-1E+10	1	-1E+10	1
4901784	87	C	11/21/2017	10:44	-133.508	43.824	0	44.10	0	13.5790	0	32.9270	4	24.674	0	43.742	0	243.8	4	94.3	4	-1E+10	1	-1E+10	1	-1E+10	1	-1E+10	1	-1E+10	1	-1E+10	1
4901784	87	C	11/21/2017	10:44	-133.508	43.824	0	45.90	0	13.5680	0	32.9250	4	24.674	0	45.527	0	243.5	4	94.1	4	-1E+10	1	-1E+10	1	-1E+10	1	-1E+10	1	-1E+10	1	-1E+10	1
4901784	87	C	11/21/2017	10:44	-133.508	43.824	0	47.70	0	13.5160	0	32.9320	4	24.690	0	47.312	0	243.5	4	94.0	4	-1E+10	1	-1E+10	1	-1E+10	1	-1E+10	1	-1E+10	1	-1E+10	1
4901784	87	C	11/21/2017	10:44	-133.508	43.824	0	49.50	0	13.4520	0	32.9290	4	24.701	0	49.098	0	243.3	4	93.8	4	-1E+10	1	-1E+10	1	-1E+10	1	-1E+10	1	-1E+10	1	-1E+10	1
4901784	87	C	11/21/2017	10:44	-133.508	43.824	0	51.40	0	13.3890	0	32.9240	4	24.710	0	50.982	0	243.4	4	93.7	4	-1E+10	1	-1E+10	1	-1E+10	1	-1E+10	1	-1E+10	1	-1E+10	1
4901784	87	C	11/21/2017	10:44	-133.508	43.824	0	53.10	0	13.3570	0	32.9150	4	24.709	0	52.668	0	243.2	4	93.6	4	-1E+10	1	-1E+10	1	-1E+10	1	-1E+10	1	-1E+10	1	-1E+10	1
4901784	87	C	11/21/2017	10:44	-133.508	43.824	0	54.80	0	13.2510	0	32.9000	4	24.719	0	54.354	0	243.3	4	93.4	4	-1E+10	1	-1E+10	1	-1E+10	1	-1E+10	1	-1E+10	1	-1E+10	1
4901784	87	C	11/21/2017	10:44	-133.508	43.824	0	56.40	0	13.1560	0	32.9040	4	24.741	0	55.941	0	243.3	4	93.2	4	-1E+10	1	-1E+10	1	-1E+10	1	-1E+10	1	-1E+10	1	-1E+10	1
4901784	87	C	11/21/2017	10:44	-133.508	43.824	0	58.10	0	13.1350	0	32.9140	4	24.753	0	57.627	0	242.8	4	93.0	4	-1E+10	1	-1E+10	1	-1E+10	1	-1E+10	1	-1E+10	1	-1E+10	1
4901784	87	C	11/21/2017	10:44	-133.508	43.824	0	59.90	0	13.1140	0	32.9160	4	24.758	0	59.412	0	242.1	4	92.7	4	-1E+10	1	-1E+10	1	-1E+10	1	-1E+10	1	-1E+10	1	-1E+10	1
4901784	87	C	11/21/2017	10:44	-133.508	43.824	0	61.80	0	13.0160	0	32.9250	4	24.785	0	61.296	0	241.5	4	92.3	4	-1E+10	1	-1E+10	1	-1E+10	1	-1E+10	1	-1E+10	1	-1E+10	1
4901784	87	C	11/21/2017	10:44	-133.508	43.824	0	64.20	0	12.7040	0	32.9040	4	24.830	0	63.676	0	241.7	4	91.8	4	-1E+10	1	-1E+10	1	-1E+10	1	-1E+10	1	-1E+10	1	-1E+10	1
4901784	87	C	11/21/2017	10:44	-133.508	43.824	0	66.00	0	12.4940	0	32.9000	4	24.867	0	65.461	0	241.0	4	91.1	4	-1E+10	1	-1E+10	1	-1E+10	1	-1E+10	1	-1E+10	1	-1E+10	1
4901784	87	C	11/21/2017	10:44	-133.508	43.824	0	67.40	0	12.2890	0	32.9080	4	24.912	0	66.849	0	240.9	4	90.7	4	-1E+10	1	-1E+10	1	-1E+10	1	-1E+10	1	-1E+10	1	-1E+10	1
4901784	87	C	11/21/2017	10:44	-133.508	43.824	0	68.90	0	12.1910	0	32.9080	4	24.931	0	68.337	0	239.7	4	90.1	4	-1E+10	1	-1E+10	1	-1E+10	1	-1E+10	1	-1E+10	1	-1E+10	1
4901784	87	C	11/21/2017	10:44	-133.508	43.824	0	70.40	0	12.0730	0	32.9050	4	24.951	0	69.824	0	238.6	4	89.4	4	-1E+10	1	-1E+10	1	-1E+10	1	-1E+10	1	-1E+10	1	-1E+10	1
4901784	87	C	11/21/2017	10:44	-133.508	43.824	0	72.00	0	11.9750	0	32.8900	4	24.958	0	71.411	0	236.2	4	88.4	4	-1E+10	1	-1E+10	1	-1E+10	1	-1E+10	1	-1E+10	1	-1E+10	1
4901784	87	C	11/21/2017	10:44	-133.508	43.824	0	73.70	0	11.0360	0	32.9670	4	25.188	0	73.097	0	236.9	4	86.9	4	-1E+10	1	-1E+10	1	-1E+10	1	-1E+10	1	-1E+10	1	-1E+10	1
4901784	87	C	11/21/2017	10:44	-133.508	43.824	0	75.40	0	10.8670	0	32.9720	4	25.222	0	74.782	0	235.8	4	86.2	4	-1E+10	1	-1E+10	1	-1E+10	1	-1E+10	1	-1E+10	1	-1E+10	1
4901784	87	C	11/21/2017	10:44	-133.508	43.824	0	77.00	0	10.7670	0	32.9790	4	25.245	0	76.369	0	233.4	4	85.2	4	-1E+10	1	-1E+10	1	-1E+10	1	-1E+10	1	-1E+10	1	-1E+10	1
4901784	87	C	11/21/2017	10:44	-133.508	43.824	0	78.70	0	10.6630	0	32.9870	4	25.269	0	78.055	0	230.8	4	84.0	4	-1E+10	1	-1E+10	1	-1E+10	1	-1E+10	1	-1E+10	1	-1E+10	1
4901784	87	C	11/21/2017	10:44	-133.508	43.824	0	80.30	0	10.5250	0	33.0050	4	25.307	0	79.641	0	227.6	4	82.6	4	-1E+10	1	-1E+10	1	-1E+10	1	-1E+10	1	-1E+10	1	-1E+10	1
4901784	87	C	11/21/2017	10:44	-133.508	43.824	0	81.90	0	10.4080	0	33.0230	4	25.341	0	81.228	0	224.5	4	81.3	4	-1E+10	1	-1E+10	1	-1E+10	1	-1E+10	1	-1E+10	1	-1E+10	1
4901784	87	C	11/21/2017	10:44	-133.508	43.824	0	83.50	0	10.3810	0	33.0230	4	25.346	0	82.814	0	220.9	4	80.0	4	-1E+10	1	-1E+10	1	-1E+10	1	-1E+10	1	-1E+10	1	-1E+10	1
4901784	87	C	11/21/2017	10:44	-133.508	43.824	0	85.10	0	10.2190	0	33.0580	4	25.401	0	84.401	0	216.6	4	78.1	4	-1E+10	1	-1E+10	1	-1E+10	1	-1E+10	1	-1E+10	1	-1E+10	1
4901784	87	C	11/21/2017	10:44	-133.508	43.824	0	86.70	0	10.0980	0	33.0850	4	25.442	0	85.987	0	213.4	4	76.8	4	-1E+10	1	-1E+10	1	-1E+10	1	-1E+10	1	-1E+10	1	-1E+10	1
4901784	87	C	11/21/2017	10:44	-133.508	43.824	0	88.30	0	10.0440	0	33.0970	4	25.461	0	87.574	0	209.7	4	75.4	4	-1E+10	1	-1E+10	1	-1E+10	1	-1E+10	1	-1E+10	1	-1E+10	1
4901784	87	C	11/21/2017	10:44	-133.508	43.824	0	90.00	0	9.9960	0	33.1090	4	25.478	0	89.260	0	205.0	4	73.7	4	-1E+10	1	-1E+10	1	-1E+10	1	-1E+10	1	-1E+10	1	-1E+10	1
4901784	87	C	11/21/2017	10:44	-133.508	43.824	0	91.70	0	9.8470	0	33.1650	4	25.547	0	90.945	0	200.2	4	71.7	4	-1E+10	1	-1E+10	1	-1E+10	1	-1E+10	1	-1E+10	1	-1E+10	1
4901784	87	C	11/21/2017	10:44	-133.508	43.824	0	93.80	0	9.7390	0	33.2030	4	25.594	0	93.028	0	195.4	4	69.8	4	-1E+10	1	-1E+10	1	-1E+10	1	-1E+10	1	-1E+10	1	-1E+10	1
4901784	87	C	11/21/2017	10:44	-133.508	43.824	0	95.40	0	9.6520	0	33.2330	4	25.632	0	94.614	0	190.1	4	67.9	4	-1E+10	1	-1E+10	1	-1E+10	1	-1E+10	1	-1E+10	1	-1E+10	1
4901784	87	C	11/21/2017	10:44	-133.508	43.824	0	96.80	0	9.5710	0	33.2660	4	25.671	0	96.002	0	185.4	4	66.1	4	-1E+10	1	-1E+10	1	-1E+10	1	-1E+10	1	-1E+10	1	-1E+10	1
4901784	87	C	11/21/2017	10:44	-133.508	43.824	0	98.20	0	9.4580	0	33.3260	4	25.736	0	97.390	0	180.7	4	64.3	4	-1E+10	1	-1E+10	1	-1E+10	1	-1E+10	1	-1E+10	1	-1E+10	1
4901784	87	C	11/21/2017	10:44	-133.508	43.824	0	99.70	0	9.4050	0	33.3460	4	25.761	0	98.878	0	177.0	4	62.9	4	-1E+10	1	-1E+10	1	-1E+10	1	-1E+10	1	-1E+10	1	-1E+10	1
4901784	87	C	11/21/2017	10:44	-133.508	43.824	0	102.80	0	9.2610	0	33.4220	4	25.843	0	101.951	0	167.9	4	59.5	4	-1E+10	1	-1E+10	1	-1E+10	1	-1E+10	1	-1E+10	1	-1E+10	1
4901784	87	C	11/21/2017	10:44	-133.508	43.824	0	105.10	0	9.1950	0	33.4630	4	25.886	0	104.232	0	162.5	4	57.5	4	-1E+10	1	-1E+10	1	-1E+10	1	-1E+10	1	-1E+10	1	-1E+10	1
4901784	87	C	11/21/2017	10:44	-133.508	43.824	0	107.50	0	9.1100	0	33.5080	4	25.935	0	106.611	0	157.2	4	55.5	4	-1E+10	1	-1E+10	1	-1E+10	1	-1E+10	1	-1E+10	1	-1E+10	1
4901784	87	C	11/21/2017	10:44	-133.508	43.824	0	110.00	0	9.0000	0	33.5650	4	25.997	0	109.090	0	152.2	4	53.7	4	-1E+10	1	-1E+10	1	-1E+10	1	-1E+10	1	-1E+10	1	-1E+10	1
4901784	87	C	11/21/2017	10:44	-133.508	43.824	0	113.10	0	8.8910	0	33.6200	4	26.057	0	112.163	0	148.3	4	52.2	4	-1E+10	1	-1E+10	1	-1E+10	1	-1E+10	1	-1E+10	1	-1E+10	1
4901784	87	C	11/21/2017	10:44	-133.508	43.824	0	114.90	0	8.8510	0	33.6390	4	26.078	0	113.948	0	146.3	4	51.4	4	-1E+10	1	-1E+10	1	-1E+10	1	-1E+10	1	-1E+10	1	-1E+10	1
4901784	87	C	11/21/2017	10:44	-133.508	43.824	0	117.10	0	8.8230	0	33.6500	4	26.091	0	116.129	0	143.5	4	50.4	4	-1E+10	1	-1E+10	1	-1E+10	1	-1E+10	1	-1E+10	1	-1E+10	1
4901784	87	C	11/21/2017	10:44	-133.508	43.824	0	120.10	0	8.7610	0	33.6780	4	26.123	0	119.103	0	139.5	4	49.0	4	-1E+10	1	-1E+10	1	-1E+10	1	-1E+10	1	-1E+10	1	-1E+10	1
4901784	87	C	11/21/2017	10:44	-133.508	43.824	0	122.50	0	8.7160	0	33.6970	4	26.145	0	121.483	0	136.5	4	47.9	4	-1E+10	1	-1E+10	1	-1E+10	1	-1E+10	1	-1E+10	1	-1E+10	1
4901784	87	C	11/21/2017	10:44	-133.508	43.824	0	124.90	0	8.5910	0	33.7550	4	26.209	0	123.862	0	134.4	4	47.0	4	-1E+10	1	-1E+10	1	-1E+10	1	-1E+10	1	-1E+10	1	-1E+10	1
4901784	87	C	11/21/2017	10:44	-133.508	43.824	0	127.50	0	8.5650	0	33.7660	4	26.222	0	126.440	0	133.0	4	46.5	4	-1E+10	1	-1E+10	1	-1E+10	1	-1E+10	1	-1E+10	1	-1E+10	1
4901784	87	C	11/21/2017	10:44	-133.508	43.824	0	130.20	0	8.5350	0	33.7790	4	26.237	0	129.116	0	131.3	4	45.9	4	-1E+10	1	-1E+10	1	-1E+10	1	-1E+10	1	-1E+10	1	-1E+10	1
4901784	87	C	11/21/2017	10:44	-133.508	43.824	0	132.80	0	8.5110	0	33.7880	4	26.248	0	131.694	0	129.4	4	45.2	4	-1E+10	1	-1E+10	1	-1E+10	1	-1E+10	1	-1E+10	1	-1E+10	1
4901784	87	C	11/21/2017	10:44	-133.508	43.824	0	134.60	0	8.5030	0	33.7900	4	26.250	0	133.478	0	127.8	4	44.6	4	-1E+10	1	-1E+10	1	-1E+10	1	-1E+10	1	-1E+10	1	-1E+10	1
4901784	87	C	11/21/2017	10:44	-133.508	43.824	0	137.40	0	8.4510	0	33.8100	4	26.274	0	136.254	0	124.6	4	43.5	4	-1E+10	1	-1E+10	1	-1E+10	1	-1E+10	1	-1E+10	1	-1E+10	1
4901784	87	C	11/21/2017	10:44	-133.508	43.824	0	140.10	0	8.3740	0	33.8350	4	26.305	0	138.931	0	121.3	4	42.3	4	-1E+10	1	-1E+10	1	-1E+10	1	-1E+10	1	-1E+10	1	-1E+10	1
4901784	87	C	11/21/2017	10:44	-133.508	43.824	0	142.80	0	8.3490	0	33.8390	4	26.312	0	141.607	0	118.4	4	41.2	4	-1E+10	1	-1E+10	1	-1E+10	1	-1E+10	1	-1E+10	1	-1E+10	1
4901784	87	C	11/21/2017	10:44	-133.508	43.824	0	145.50	0	8.2150	0	33.8800	4	26.365	0	144.284	0	115.7	4	40.2	4	-1E+10	1	-1E+10	1	-1E+10	1	-1E+10	1	-1E+10	1	-1E+10	1
4901784	87	C	11/21/2017	10:44	-133.508	43.824	0	147.20	0	8.1790	0	33.8900	4	26.378	0	145.969	0	114.5	4	39.8	4	-1E+10	1	-1E+10	1	-1E+10	1	-1E+10	1	-1E+10	1	-1E+10	1
4901784	87	C	11/21/2017	10:44	-133.508	43.824	0	149.90	0	8.1290	0	33.9020	4	26.395	0	148.645	0	112.8	4	39.1	4	-1E+10	1	-1E+10	1	-1E+10	1	-1E+10	1	-1E+10	1	-1E+10	1
4901784	87	C	11/21/2017	10:44	-133.508	43.824	0	152.50	0	8.0540	0	33.9200	4	26.420	0	151.223	0	111.4	4	38.6	4	-1E+10	1	-1E+10	1	-1E+10	1	-1E+10	1	-1E+10	1	-1E+10	1
4901784	87	C	11/21/2017	10:44	-133.508	43.824	0	155.20	0	8.0190	0	33.9270	4	26.431	0	153.899	0	110.5	4	38.2	4	-1E+10	1	-1E+10	1	-1E+10	1	-1E+10	1	-1E+10	1	-1E+10	1
4901784	87	C	11/21/2017	10:44	-133.508	43.824	0	157.90	0	7.9730	0	33.9370	4	26.446	0	156.575	0	109.6	4	37.9	4	-1E+10	1	-1E+10	1	-1E+10	1	-1E+10	1	-1E+10	1	-1E+10	1
4901784	87	C	11/21/2017	10:44	-133.508	43.824	0	159.70	0	7.9490	0	33.9410	4	26.452	0	158.360	0	109.0	4	37.7	4	-1E+10	1	-1E+10	1	-1E+10	1	-1E+10	1	-1E+10	1	-1E+10	1
4901784	87	C	11/21/2017	10:44	-133.508	43.824	0	162.50	0	7.9100	0	33.9480	4	26.464	0	161.135	0	107.5	4	37.1	4	-1E+10	1	-1E+10	1	-1E+10	1	-1E+10	1	-1E+10	1	-1E+10	1
4901784	87	C	11/21/2017	10:44	-133.508	43.824	0	165.20	0	7.8490	0	33.9570	4	26.480	0	163.811	0	106.3	4	36.6	4	-1E+10	1	-1E+10	1	-1E+10	1	-1E+10	1	-1E+10	1	-1E+10	1
4901784	87	C	11/21/2017	10:44	-133.508	43.824	0	167.00	0	7.8190	0	33.9620	4	26.488	0	165.595	0	105.9	4	36.5	4	-1E+10	1	-1E+10	1	-1E+10	1	-1E+10	1	-1E+10	1	-1E+10	1
4901784	87	C	11/21/2017	10:44	-133.508	43.824	0	169.70	0	7.8040	0	33.9640	4	26.492	0	168.272	0	105.6	4	36.4	4	-1E+10	1	-1E+10	1	-1E+10	1	-1E+10	1	-1E+10	1	-1E+10	1
4901784	87	C	11/21/2017	10:44	-133.508	43.824	0	172.20	0	7.7850	0	33.9660	4	26.496	0	170.749	0	105.3	4	36.2	4	-1E+10	1	-1E+10	1	-1E+10	1	-1E+10	1	-1E+10	1	-1E+10	1
4901784	87	C	11/21/2017	10:44	-133.508	43.824	0	174.90	0	7.7490	0	33.9710	4	26.505	0	173.426	0	105.0	4	36.1	4	-1E+10	1	-1E+10	1	-1E+10	1	-1E+10	1	-1E+10	1	-1E+10	1
4901784	87	C	11/21/2017	10:44	-133.508	43.824	0	177.60	0	7.7240	0	33.9750	4	26.512	0	176.102	0	105.2	4	36.2	4	-1E+10	1	-1E+10	1	-1E+10	1	-1E+10	1	-1E+10	1	-1E+10	1
4901784	87	C	11/21/2017	10:44	-133.508	43.824	0	180.30	0	7.7100	0	33.9760	4	26.515	0	178.778	0	105.7	4	36.3	4	-1E+10	1	-1E+10	1	-1E+10	1	-1E+10	1	-1E+10	1	-1E+10	1
4901784	87	C	11/21/2017	10:44	-133.508	43.824	0	183.00	0	7.6950	0	33.9770	4	26.518	0	181.454	0	106.4	4	36.6	4	-1E+10	1	-1E+10	1	-1E+10	1	-1E+10	1	-1E+10	1	-1E+10	1
4901784	87	C	11/21/2017	10:44	-133.508	43.824	0	184.80	0	7.6620	0	33.9820	4	26.527	0	183.238	0	106.8	4	36.7	4	-1E+10	1	-1E+10	1	-1E+10	1	-1E+10	1	-1E+10	1	-1E+10	1
4901784	87	C	11/21/2017	10:44	-133.508	43.824	0	187.50	0	7.5910	0	33.9900	4	26.543	0	185.914	0	106.7	4	36.6	4	-1E+10	1	-1E+10	1	-1E+10	1	-1E+10	1	-1E+10	1	-1E+10	1
4901784	87	C	11/21/2017	10:44	-133.508	43.824	0	190.20	0	7.5550	0	33.9920	4	26.550	0	188.590	0	105.8	4	36.2	4	-1E+10	1	-1E+10	1	-1E+10	1	-1E+10	1	-1E+10	1	-1E+10	1
4901784	87	C	11/21/2017	10:44	-133.508	43.824	0	192.80	0	7.5190	0	33.9940	4	26.557	0	191.166	0	104.9	4	35.9	4	-1E+10	1	-1E+10	1	-1E+10	1	-1E+10	1	-1E+10	1	-1E+10	1
4901784	87	C	11/21/2017	10:44	-133.508	43.824	0	195.50	0	7.4850	0	33.9960	4	26.563	0	193.842	0	104.5	4	35.7	4	-1E+10	1	-1E+10	1	-1E+10	1	-1E+10	1	-1E+10	1	-1E+10	1
4901784	87	C	11/21/2017	10:44	-133.508	43.824	0	197.20	0	7.4390	0	34.0000	4	26.573	0	195.527	0	104.1	4	35.6	4	-1E+10	1	-1E+10	1	-1E+10	1	-1E+10	1	-1E+10	1	-1E+10	1
4901784	87	C	11/21/2017	10:44	-133.508	43.824	0	200.00	0	7.3980	0	34.0030	4	26.581	0	198.302	0	103.8	4	35.4	4	-1E+10	1	-1E+10	1	-1E+10	1	-1E+10	1	-1E+10	1	-1E+10	1
4901784	87	C	11/21/2017	10:44	-133.508	43.824	0	202.70	0	7.3430	0	34.0060	4	26.591	0	200.978	0	103.8	4	35.4	4	-1E+10	1	-1E+10	1	-1E+10	1	-1E+10	1	-1E+10	1	-1E+10	1
4901784	87	C	11/21/2017	10:44	-133.508	43.824	0	204.50	0	7.3170	0	34.0080	4	26.596	0	202.762	0	104.2	4	35.5	4	-1E+10	1	-1E+10	1	-1E+10	1	-1E+10	1	-1E+10	1	-1E+10	1
4901784	87	C	11/21/2017	10:44	-133.508	43.824	0	207.30	0	7.2600	0	34.0090	4	26.605	0	205.536	0	104.8	4	35.7	4	-1E+10	1	-1E+10	1	-1E+10	1	-1E+10	1	-1E+10	1	-1E+10	1
4901784	87	C	11/21/2017	10:44	-133.508	43.824	0	210.00	0	7.2040	0	34.0140	4	26.617	0	208.212	0	104.4	4	35.5	4	-1E+10	1	-1E+10	1	-1E+10	1	-1E+10	1	-1E+10	1	-1E+10	1
4901784	87	C	11/21/2017	10:44	-133.508	43.824	0	212.80	0	7.1880	0	34.0140	4	26.619	0	210.987	0	104.9	4	35.7	4	-1E+10	1	-1E+10	1	-1E+10	1	-1E+10	1	-1E+10	1	-1E+10	1
4901784	87	C	11/21/2017	10:44	-133.508	43.824	0	215.50	0	7.1690	0	34.0140	4	26.622	0	213.662	0	107.1	4	36.4	4	-1E+10	1	-1E+10	1	-1E+10	1	-1E+10	1	-1E+10	1	-1E+10	1
4901784	87	C	11/21/2017	10:44	-133.508	43.824	0	217.30	0	7.1550	0	34.0130	4	26.623	0	215.446	0	109.6	4	37.2	4	-1E+10	1	-1E+10	1	-1E+10	1	-1E+10	1	-1E+10	1	-1E+10	1
4901784	87	C	11/21/2017	10:44	-133.508	43.824	0	220.10	0	7.0650	0	34.0140	4	26.636	0	218.221	0	114.3	4	38.7	4	-1E+10	1	-1E+10	1	-1E+10	1	-1E+10	1	-1E+10	1	-1E+10	1
4901784	87	C	11/21/2017	10:44	-133.508	43.824	0	222.80	0	6.9900	0	34.0130	4	26.646	0	220.896	0	117.3	4	39.7	4	-1E+10	1	-1E+10	1	-1E+10	1	-1E+10	1	-1E+10	1	-1E+10	1
4901784	87	C	11/21/2017	10:44	-133.508	43.824	0	224.50	0	6.9570	0	34.0120	4	26.649	0	222.581	0	118.0	4	39.9	4	-1E+10	1	-1E+10	1	-1E+10	1	-1E+10	1	-1E+10	1	-1E+10	1
4901784	87	C	11/21/2017	10:44	-133.508	43.824	0	227.30	0	6.9100	0	34.0110	4	26.655	0	225.355	0	118.1	4	39.9	4	-1E+10	1	-1E+10	1	-1E+10	1	-1E+10	1	-1E+10	1	-1E+10	1
4901784	87	C	11/21/2017	10:44	-133.508	43.824	0	229.90	0	6.8640	0	34.0110	4	26.661	0	227.932	0	117.5	4	39.6	4	-1E+10	1	-1E+10	1	-1E+10	1	-1E+10	1	-1E+10	1	-1E+10	1
4901784	87	C	11/21/2017	10:44	-133.508	43.824	0	232.60	0	6.8430	0	34.0090	4	26.663	0	230.607	0	116.5	4	39.3	4	-1E+10	1	-1E+10	1	-1E+10	1	-1E+10	1	-1E+10	1	-1E+10	1
4901784	87	C	11/21/2017	10:44	-133.508	43.824	0	235.20	0	6.8140	0	34.0070	4	26.665	0	233.183	0	115.9	4	39.1	4	-1E+10	1	-1E+10	1	-1E+10	1	-1E+10	1	-1E+10	1	-1E+10	1
4901784	87	C	11/21/2017	10:44	-133.508	43.824	0	237.00	0	6.7640	0	34.0080	4	26.672	0	234.967	0	116.0	4	39.0	4	-1E+10	1	-1E+10	1	-1E+10	1	-1E+10	1	-1E+10	1	-1E+10	1
4901784	87	C	11/21/2017	10:44	-133.508	43.824	0	239.80	0	6.6680	0	34.0050	4	26.683	0	237.741	0	114.9	4	38.6	4	-1E+10	1	-1E+10	1	-1E+10	1	-1E+10	1	-1E+10	1	-1E+10	1
4901784	87	C	11/21/2017	10:44	-133.508	43.824	0	242.60	0	6.5930	0	34.0050	4	26.693	0	240.516	0	112.7	4	37.8	4	-1E+10	1	-1E+10	1	-1E+10	1	-1E+10	1	-1E+10	1	-1E+10	1
4901784	87	C	11/21/2017	10:44	-133.508	43.824	0	244.40	0	6.5580	0	34.0060	4	26.698	0	242.299	0	111.1	4	37.2	4	-1E+10	1	-1E+10	1	-1E+10	1	-1E+10	1	-1E+10	1	-1E+10	1
4901784	87	C	11/21/2017	10:44	-133.508	43.824	0	247.20	0	6.5310	0	34.0080	4	26.703	0	245.073	0	106.7	4	35.7	4	-1E+10	1	-1E+10	1	-1E+10	1	-1E+10	1	-1E+10	1	-1E+10	1
4901784	87	C	11/21/2017	10:44	-133.508	43.824	0	250.00	0	6.5220	0	34.0170	4	26.712	0	247.848	0	102.5	4	34.3	4	-1E+10	1	-1E+10	1	-1E+10	1	-1E+10	1	-1E+10	1	-1E+10	1
4901784	87	C	11/21/2017	10:44	-133.508	43.824	0	252.80	0	6.5140	0	34.0170	4	26.713	0	250.622	0	100.8	4	33.7	4	-1E+10	1	-1E+10	1	-1E+10	1	-1E+10	1	-1E+10	1	-1E+10	1
4901784	87	C	11/21/2017	10:44	-133.508	43.824	0	255.60	0	6.4920	0	34.0180	4	26.717	0	253.396	0	99.1	4	33.2	4	-1E+10	1	-1E+10	1	-1E+10	1	-1E+10	1	-1E+10	1	-1E+10	1
4901784	87	C	11/21/2017	10:44	-133.508	43.824	0	257.50	0	6.4780	0	34.0190	4	26.719	0	255.278	0	98.3	4	32.9	4	-1E+10	1	-1E+10	1	-1E+10	1	-1E+10	1	-1E+10	1	-1E+10	1
4901784	87	C	11/21/2017	10:44	-133.508	43.824	0	260.30	0	6.4340	0	34.0210	4	26.727	0	258.052	0	98.0	4	32.7	4	-1E+10	1	-1E+10	1	-1E+10	1	-1E+10	1	-1E+10	1	-1E+10	1
4901784	87	C	11/21/2017	10:44	-133.508	43.824	0	263.10	0	6.3750	0	34.0200	4	26.733	0	260.827	0	98.7	4	32.9	4	-1E+10	1	-1E+10	1	-1E+10	1	-1E+10	1	-1E+10	1	-1E+10	1
4901784	87	C	11/21/2017	10:44	-133.508	43.824	0	265.00	0	6.3520	0	34.0190	4	26.736	0	262.709	0	99.3	4	33.1	4	-1E+10	1	-1E+10	1	-1E+10	1	-1E+10	1	-1E+10	1	-1E+10	1
4901784	87	C	11/21/2017	10:44	-133.508	43.824	0	266.90	0	6.2900	0	34.0180	4	26.743	0	264.591	0	100.3	4	33.4	4	-1E+10	1	-1E+10	1	-1E+10	1	-1E+10	1	-1E+10	1	-1E+10	1
4901784	87	C	11/21/2017	10:44	-133.508	43.824	0	269.70	0	6.2180	0	34.0150	4	26.750	0	267.365	0	101.2	4	33.6	4	-1E+10	1	-1E+10	1	-1E+10	1	-1E+10	1	-1E+10	1	-1E+10	1
4901784	87	C	11/21/2017	10:44	-133.508	43.824	0	272.50	0	6.1460	0	34.0140	4	26.758	0	270.139	0	101.3	4	33.6	4	-1E+10	1	-1E+10	1	-1E+10	1	-1E+10	1	-1E+10	1	-1E+10	1
4901784	87	C	11/21/2017	10:44	-133.508	43.824	0	275.10	0	6.1380	0	34.0140	4	26.759	0	272.715	0	101.0	4	33.5	4	-1E+10	1	-1E+10	1	-1E+10	1	-1E+10	1	-1E+10	1	-1E+10	1
4901784	87	C	11/21/2017	10:44	-133.508	43.824	0	277.70	0	6.1060	0	34.0130	4	26.763	0	275.291	0	100.3	4	33.2	4	-1E+10	1	-1E+10	1	-1E+10	1	-1E+10	1	-1E+10	1	-1E+10	1
4901784	87	C	11/21/2017	10:44	-133.508	43.824	0	280.10	0	6.0640	0	34.0130	4	26.768	0	277.668	0	99.8	4	33.0	4	-1E+10	1	-1E+10	1	-1E+10	1	-1E+10	1	-1E+10	1	-1E+10	1
4901784	87	C	11/21/2017	10:44	-133.508	43.824	0	282.50	0	6.0520	0	34.0110	4	26.768	0	280.046	0	98.3	4	32.6	4	-1E+10	1	-1E+10	1	-1E+10	1	-1E+10	1	-1E+10	1	-1E+10	1
4901784	87	C	11/21/2017	10:44	-133.508	43.824	0	284.90	0	5.9990	0	34.0120	4	26.775	0	282.423	0	96.0	4	31.7	4	-1E+10	1	-1E+10	1	-1E+10	1	-1E+10	1	-1E+10	1	-1E+10	1
4901784	87	C	11/21/2017	10:44	-133.508	43.824	0	287.30	0	5.9610	0	34.0160	4	26.783	0	284.801	0	93.1	4	30.7	4	-1E+10	1	-1E+10	1	-1E+10	1	-1E+10	1	-1E+10	1	-1E+10	1
4901784	87	C	11/21/2017	10:44	-133.508	43.824	0	289.70	0	5.9500	0	34.0190	4	26.787	0	287.178	0	90.3	4	29.8	4	-1E+10	1	-1E+10	1	-1E+10	1	-1E+10	1	-1E+10	1	-1E+10	1
4901784	87	C	11/21/2017	10:44	-133.508	43.824	0	292.20	0	5.9350	0	34.0220	4	26.791	0	289.655	0	88.1	4	29.1	4	-1E+10	1	-1E+10	1	-1E+10	1	-1E+10	1	-1E+10	1	-1E+10	1
4901784	87	C	11/21/2017	10:44	-133.508	43.824	0	294.70	0	5.9240	0	34.0250	4	26.795	0	292.131	0	86.4	4	28.5	4	-1E+10	1	-1E+10	1	-1E+10	1	-1E+10	1	-1E+10	1	-1E+10	1
4901784	87	C	11/21/2017	10:44	-133.508	43.824	0	297.20	0	5.9050	0	34.0250	4	26.797	0	294.608	0	85.0	4	28.1	4	-1E+10	1	-1E+10	1	-1E+10	1	-1E+10	1	-1E+10	1	-1E+10	1
4901784	87	C	11/21/2017	10:44	-133.508	43.824	0	300.40	0	5.8460	0	34.0280	4	26.807	0	297.777	0	83.2	4	27.4	4	-1E+10	1	-1E+10	1	-1E+10	1	-1E+10	1	-1E+10	1	-1E+10	1
4901784	87	C	11/21/2017	10:44	-133.508	43.824	0	302.80	0	5.8280	0	34.0280	4	26.809	0	300.155	0	81.5	4	26.8	4	-1E+10	1	-1E+10	1	-1E+10	1	-1E+10	1	-1E+10	1	-1E+10	1
4901784	87	C	11/21/2017	10:44	-133.508	43.824	0	305.30	0	5.8130	0	34.0320	4	26.814	0	302.631	0	79.4	4	26.1	4	-1E+10	1	-1E+10	1	-1E+10	1	-1E+10	1	-1E+10	1	-1E+10	1
4901784	87	C	11/21/2017	10:44	-133.508	43.824	0	307.70	0	5.7950	0	34.0360	4	26.820	0	305.008	0	77.5	4	25.5	4	-1E+10	1	-1E+10	1	-1E+10	1	-1E+10	1	-1E+10	1	-1E+10	1
4901784	87	C	11/21/2017	10:44	-133.508	43.824	0	310.10	0	5.7830	0	34.0380	4	26.823	0	307.386	0	76.3	4	25.1	4	-1E+10	1	-1E+10	1	-1E+10	1	-1E+10	1	-1E+10	1	-1E+10	1
4901784	87	C	11/21/2017	10:44	-133.508	43.824	0	312.60	0	5.7650	0	34.0390	4	26.826	0	309.862	0	75.2	4	24.7	4	-1E+10	1	-1E+10	1	-1E+10	1	-1E+10	1	-1E+10	1	-1E+10	1
4901784	87	C	11/21/2017	10:44	-133.508	43.824	0	315.10	0	5.7500	0	34.0420	4	26.830	0	312.338	0	74.7	4	24.6	4	-1E+10	1	-1E+10	1	-1E+10	1	-1E+10	1	-1E+10	1	-1E+10	1
4901784	87	C	11/21/2017	10:44	-133.508	43.824	0	317.60	0	5.7370	0	34.0420	4	26.832	0	314.814	0	74.3	4	24.4	4	-1E+10	1	-1E+10	1	-1E+10	1	-1E+10	1	-1E+10	1	-1E+10	1
4901784	87	C	11/21/2017	10:44	-133.508	43.824	0	320.00	0	5.7180	0	34.0420	4	26.834	0	317.191	0	73.8	4	24.3	4	-1E+10	1	-1E+10	1	-1E+10	1	-1E+10	1	-1E+10	1	-1E+10	1
4901784	87	C	11/21/2017	10:44	-133.508	43.824	0	322.50	0	5.7090	0	34.0420	4	26.835	0	319.667	0	73.3	4	24.1	4	-1E+10	1	-1E+10	1	-1E+10	1	-1E+10	1	-1E+10	1	-1E+10	1
4901784	87	C	11/21/2017	10:44	-133.508	43.824	0	325.00	0	5.6670	0	34.0410	4	26.840	0	322.143	0	72.7	4	23.9	4	-1E+10	1	-1E+10	1	-1E+10	1	-1E+10	1	-1E+10	1	-1E+10	1
4901784	87	C	11/21/2017	10:44	-133.508	43.824	0	327.60	0	5.6230	0	34.0420	4	26.846	0	324.719	0	72.1	4	23.6	4	-1E+10	1	-1E+10	1	-1E+10	1	-1E+10	1	-1E+10	1	-1E+10	1
4901784	87	C	11/21/2017	10:44	-133.508	43.824	0	330.10	0	5.6100	0	34.0420	4	26.847	0	327.195	0	71.3	4	23.4	4	-1E+10	1	-1E+10	1	-1E+10	1	-1E+10	1	-1E+10	1	-1E+10	1
4901784	87	C	11/21/2017	10:44	-133.508	43.824	0	332.60	0	5.5870	0	34.0430	4	26.851	0	329.671	0	70.2	4	23.0	4	-1E+10	1	-1E+10	1	-1E+10	1	-1E+10	1	-1E+10	1	-1E+10	1
4901784	87	C	11/21/2017	10:44	-133.508	43.824	0	335.20	0	5.5740	0	34.0440	4	26.853	0	332.246	0	68.6	4	22.5	4	-1E+10	1	-1E+10	1	-1E+10	1	-1E+10	1	-1E+10	1	-1E+10	1
4901784	87	C	11/21/2017	10:44	-133.508	43.824	0	337.80	0	5.5400	0	34.0500	4	26.862	0	334.821	0	66.8	4	21.9	4	-1E+10	1	-1E+10	1	-1E+10	1	-1E+10	1	-1E+10	1	-1E+10	1
4901784	87	C	11/21/2017	10:44	-133.508	43.824	0	340.40	0	5.5290	0	34.0550	4	26.867	0	337.396	0	66.0	4	21.6	4	-1E+10	1	-1E+10	1	-1E+10	1	-1E+10	1	-1E+10	1	-1E+10	1
4901784	87	C	11/21/2017	10:44	-133.508	43.824	0	343.00	0	5.5270	0	34.0550	4	26.868	0	339.971	0	65.2	4	21.3	4	-1E+10	1	-1E+10	1	-1E+10	1	-1E+10	1	-1E+10	1	-1E+10	1
4901784	87	C	11/21/2017	10:44	-133.508	43.824	0	344.70	0	5.5260	0	34.0560	4	26.869	0	341.654	0	64.6	4	21.1	4	-1E+10	1	-1E+10	1	-1E+10	1	-1E+10	1	-1E+10	1	-1E+10	1
4901784	87	C	11/21/2017	10:44	-133.508	43.824	0	347.30	0	5.5220	0	34.0560	4	26.869	0	344.229	0	63.2	4	20.7	4	-1E+10	1	-1E+10	1	-1E+10	1	-1E+10	1	-1E+10	1	-1E+10	1
4901784	87	C	11/21/2017	10:44	-133.508	43.824	0	349.90	0	5.4950	0	34.0620	4	26.877	0	346.804	0	61.5	4	20.1	4	-1E+10	1	-1E+10	1	-1E+10	1	-1E+10	1	-1E+10	1	-1E+10	1
4901784	87	C	11/21/2017	10:44	-133.508	43.824	0	352.60	0	5.4900	0	34.0680	4	26.883	0	349.478	0	60.3	4	19.7	4	-1E+10	1	-1E+10	1	-1E+10	1	-1E+10	1	-1E+10	1	-1E+10	1
4901784	87	C	11/21/2017	10:44	-133.508	43.824	0	355.20	0	5.4780	0	34.0710	4	26.886	0	352.052	0	59.7	4	19.5	4	-1E+10	1	-1E+10	1	-1E+10	1	-1E+10	1	-1E+10	1	-1E+10	1
4901784	87	C	11/21/2017	10:44	-133.508	43.824	0	357.00	0	5.4750	0	34.0710	4	26.887	0	353.835	0	59.4	4	19.4	4	-1E+10	1	-1E+10	1	-1E+10	1	-1E+10	1	-1E+10	1	-1E+10	1
4901784	87	C	11/21/2017	10:44	-133.508	43.824	0	359.70	0	5.4680	0	34.0730	4	26.889	0	356.509	0	59.1	4	19.3	4	-1E+10	1	-1E+10	1	-1E+10	1	-1E+10	1	-1E+10	1	-1E+10	1
4901784	87	C	11/21/2017	10:44	-133.508	43.824	0	362.30	0	5.4500	0	34.0730	4	26.891	0	359.083	0	59.0	4	19.3	4	-1E+10	1	-1E+10	1	-1E+10	1	-1E+10	1	-1E+10	1	-1E+10	1
4901784	87	C	11/21/2017	10:44	-133.508	43.824	0	364.90	0	5.3880	0	34.0720	4	26.898	0	361.658	0	59.0	4	19.2	4	-1E+10	1	-1E+10	1	-1E+10	1	-1E+10	1	-1E+10	1	-1E+10	1
4901784	87	C	11/21/2017	10:44	-133.508	43.824	0	367.60	0	5.3740	0	34.0720	4	26.900	0	364.332	0	58.5	4	19.1	4	-1E+10	1	-1E+10	1	-1E+10	1	-1E+10	1	-1E+10	1	-1E+10	1
4901784	87	C	11/21/2017	10:44	-133.508	43.824	0	370.30	0	5.3570	0	34.0730	4	26.902	0	367.005	0	57.7	4	18.8	4	-1E+10	1	-1E+10	1	-1E+10	1	-1E+10	1	-1E+10	1	-1E+10	1
4901784	87	C	11/21/2017	10:44	-133.508	43.824	0	372.90	0	5.3520	0	34.0780	4	26.907	0	369.580	0	56.7	4	18.5	4	-1E+10	1	-1E+10	1	-1E+10	1	-1E+10	1	-1E+10	1	-1E+10	1
4901784	87	C	11/21/2017	10:44	-133.508	43.824	0	374.70	0	5.3550	0	34.0790	4	26.907	0	371.362	0	56.5	4	18.4	4	-1E+10	1	-1E+10	1	-1E+10	1	-1E+10	1	-1E+10	1	-1E+10	1
4901784	87	C	11/21/2017	10:44	-133.508	43.824	0	377.40	0	5.3290	0	34.0780	4	26.910	0	374.036	0	56.3	4	18.3	4	-1E+10	1	-1E+10	1	-1E+10	1	-1E+10	1	-1E+10	1	-1E+10	1
4901784	87	C	11/21/2017	10:44	-133.508	43.824	0	380.10	0	5.3120	0	34.0800	4	26.913	0	376.709	0	55.9	4	18.2	4	-1E+10	1	-1E+10	1	-1E+10	1	-1E+10	1	-1E+10	1	-1E+10	1
4901784	87	C	11/21/2017	10:44	-133.508	43.824	0	382.70	0	5.2740	0	34.0800	4	26.918	0	379.284	0	55.7	4	18.1	4	-1E+10	1	-1E+10	1	-1E+10	1	-1E+10	1	-1E+10	1	-1E+10	1
4901784	87	C	11/21/2017	10:44	-133.508	43.824	0	385.40	0	5.2600	0	34.0800	4	26.919	0	381.957	0	55.2	4	17.9	4	-1E+10	1	-1E+10	1	-1E+10	1	-1E+10	1	-1E+10	1	-1E+10	1
4901784	87	C	11/21/2017	10:44	-133.508	43.824	0	387.30	0	5.2510	0	34.0800	4	26.921	0	383.838	0	54.7	4	17.8	4	-1E+10	1	-1E+10	1	-1E+10	1	-1E+10	1	-1E+10	1	-1E+10	1
4901784	87	C	11/21/2017	10:44	-133.508	43.824	0	390.00	0	5.2180	0	34.0800	4	26.924	0	386.512	0	53.4	4	17.4	4	-1E+10	1	-1E+10	1	-1E+10	1	-1E+10	1	-1E+10	1	-1E+10	1
4901784	87	C	11/21/2017	10:44	-133.508	43.824	0	392.70	0	5.2030	0	34.0880	4	26.933	0	389.185	0	51.8	4	16.8	4	-1E+10	1	-1E+10	1	-1E+10	1	-1E+10	1	-1E+10	1	-1E+10	1
4901784	87	C	11/21/2017	10:44	-133.508	43.824	0	394.60	0	5.2160	0	34.0880	4	26.931	0	391.066	0	50.5	4	16.4	4	-1E+10	1	-1E+10	1	-1E+10	1	-1E+10	1	-1E+10	1	-1E+10	1
4901784	87	C	11/21/2017	10:44	-133.508	43.824	0	397.30	0	5.2790	0	34.0970	4	26.931	0	393.739	0	49.2	4	16.0	4	-1E+10	1	-1E+10	1	-1E+10	1	-1E+10	1	-1E+10	1	-1E+10	1
4901784	87	C	11/21/2017	10:44	-133.508	43.824	0	400.10	0	5.2960	0	34.1010	4	26.932	0	396.512	0	49.5	4	16.1	4	-1E+10	1	-1E+10	1	-1E+10	1	-1E+10	1	-1E+10	1	-1E+10	1
4901784	87	C	11/21/2017	10:44	-133.508	43.824	0	402.00	0	5.2240	0	34.0990	4	26.939	0	398.393	0	49.9	4	16.2	4	-1E+10	1	-1E+10	1	-1E+10	1	-1E+10	1	-1E+10	1	-1E+10	1
4901784	87	C	11/21/2017	10:44	-133.508	43.824	0	404.80	0	5.1650	0	34.0930	4	26.941	0	401.165	0	49.1	4	15.9	4	-1E+10	1	-1E+10	1	-1E+10	1	-1E+10	1	-1E+10	1	-1E+10	1
4901784	87	C	11/21/2017	10:44	-133.508	43.824	0	407.50	0	5.1700	0	34.0980	4	26.944	0	403.838	0	47.5	4	15.4	4	-1E+10	1	-1E+10	1	-1E+10	1	-1E+10	1	-1E+10	1	-1E+10	1
4901784	87	C	11/21/2017	10:44	-133.508	43.824	0	409.90	0	5.1870	0	34.1040	4	26.947	0	406.214	0	46.6	4	15.1	4	-1E+10	1	-1E+10	1	-1E+10	1	-1E+10	1	-1E+10	1	-1E+10	1
4901784	87	C	11/21/2017	10:44	-133.508	43.824	0	412.60	0	5.1390	0	34.1060	4	26.954	0	408.887	0	45.9	4	14.9	4	-1E+10	1	-1E+10	1	-1E+10	1	-1E+10	1	-1E+10	1	-1E+10	1
4901784	87	C	11/21/2017	10:44	-133.508	43.824	0	415.00	0	5.1420	0	34.1090	4	26.956	0	411.263	0	45.2	4	14.6	4	-1E+10	1	-1E+10	1	-1E+10	1	-1E+10	1	-1E+10	1	-1E+10	1
4901784	87	C	11/21/2017	10:44	-133.508	43.824	0	417.40	0	5.1170	0	34.1100	4	26.960	0	413.639	0	44.2	4	14.3	4	-1E+10	1	-1E+10	1	-1E+10	1	-1E+10	1	-1E+10	1	-1E+10	1
4901784	87	C	11/21/2017	10:44	-133.508	43.824	0	419.80	0	5.1380	0	34.1180	4	26.964	0	416.015	0	43.1	4	14.0	4	-1E+10	1	-1E+10	1	-1E+10	1	-1E+10	1	-1E+10	1	-1E+10	1
4901784	87	C	11/21/2017	10:44	-133.508	43.824	0	422.20	0	5.1310	0	34.1200	4	26.966	0	418.391	0	42.9	4	13.9	4	-1E+10	1	-1E+10	1	-1E+10	1	-1E+10	1	-1E+10	1	-1E+10	1
4901784	87	C	11/21/2017	10:44	-133.508	43.824	0	425.40	0	5.0890	0	34.1200	4	26.971	0	421.559	0	43.3	4	14.0	4	-1E+10	1	-1E+10	1	-1E+10	1	-1E+10	1	-1E+10	1	-1E+10	1
4901784	87	C	11/21/2017	10:44	-133.508	43.824	0	427.80	0	5.0620	0	34.1170	4	26.972	0	423.935	0	43.5	4	14.1	4	-1E+10	1	-1E+10	1	-1E+10	1	-1E+10	1	-1E+10	1	-1E+10	1
4901784	87	C	11/21/2017	10:44	-133.508	43.824	0	430.20	0	5.0170	0	34.1170	4	26.977	0	426.311	0	43.8	4	14.2	4	-1E+10	1	-1E+10	1	-1E+10	1	-1E+10	1	-1E+10	1	-1E+10	1
4901784	87	C	11/21/2017	10:44	-133.508	43.824	0	432.70	0	5.0090	0	34.1170	4	26.978	0	428.786	0	44.1	4	14.2	4	-1E+10	1	-1E+10	1	-1E+10	1	-1E+10	1	-1E+10	1	-1E+10	1
4901784	87	C	11/21/2017	10:44	-133.508	43.824	0	435.10	0	4.9770	0	34.1150	4	26.980	0	431.161	0	44.4	4	14.3	4	-1E+10	1	-1E+10	1	-1E+10	1	-1E+10	1	-1E+10	1	-1E+10	1
4901784	87	C	11/21/2017	10:44	-133.508	43.824	0	437.50	0	4.9570	0	34.1130	4	26.981	0	433.537	0	44.6	4	14.4	4	-1E+10	1	-1E+10	1	-1E+10	1	-1E+10	1	-1E+10	1	-1E+10	1
4901784	87	C	11/21/2017	10:44	-133.508	43.824	0	440.00	0	4.9310	0	34.1110	4	26.982	0	436.012	0	44.7	4	14.4	4	-1E+10	1	-1E+10	1	-1E+10	1	-1E+10	1	-1E+10	1	-1E+10	1
4901784	87	C	11/21/2017	10:44	-133.508	43.824	0	442.40	0	4.9030	0	34.1100	4	26.985	0	438.388	0	44.7	4	14.4	4	-1E+10	1	-1E+10	1	-1E+10	1	-1E+10	1	-1E+10	1	-1E+10	1
4901784	87	C	11/21/2017	10:44	-133.508	43.824	0	444.90	0	4.8730	0	34.1100	4	26.988	0	440.862	0	44.5	4	14.3	4	-1E+10	1	-1E+10	1	-1E+10	1	-1E+10	1	-1E+10	1	-1E+10	1
4901784	87	C	11/21/2017	10:44	-133.508	43.824	0	447.30	0	4.8550	0	34.1090	4	26.989	0	443.238	0	44.1	4	14.2	4	-1E+10	1	-1E+10	1	-1E+10	1	-1E+10	1	-1E+10	1	-1E+10	1
4901784	87	C	11/21/2017	10:44	-133.508	43.824	0	449.80	0	4.8400	0	34.1090	4	26.991	0	445.713	0	43.3	4	13.9	4	-1E+10	1	-1E+10	1	-1E+10	1	-1E+10	1	-1E+10	1	-1E+10	1
4901784	87	C	11/21/2017	10:44	-133.508	43.824	0	452.30	0	4.8440	0	34.1160	4	26.996	0	448.187	0	42.6	4	13.7	4	-1E+10	1	-1E+10	1	-1E+10	1	-1E+10	1	-1E+10	1	-1E+10	1
4901784	87	C	11/21/2017	10:44	-133.508	43.824	0	454.70	0	4.8430	0	34.1190	4	26.999	0	450.563	0	42.4	4	13.6	4	-1E+10	1	-1E+10	1	-1E+10	1	-1E+10	1	-1E+10	1	-1E+10	1
4901784	87	C	11/21/2017	10:44	-133.508	43.824	0	457.30	0	4.8150	0	34.1180	4	27.001	0	453.136	0	42.3	4	13.6	4	-1E+10	1	-1E+10	1	-1E+10	1	-1E+10	1	-1E+10	1	-1E+10	1
4901784	87	C	11/21/2017	10:44	-133.508	43.824	0	459.80	0	4.7920	0	34.1170	4	27.003	0	455.611	0	42.0	4	13.5	4	-1E+10	1	-1E+10	1	-1E+10	1	-1E+10	1	-1E+10	1	-1E+10	1
4901784	87	C	11/21/2017	10:44	-133.508	43.824	0	462.40	0	4.7990	0	34.1200	4	27.004	0	458.184	0	41.3	4	13.3	4	-1E+10	1	-1E+10	1	-1E+10	1	-1E+10	1	-1E+10	1	-1E+10	1
4901784	87	C	11/21/2017	10:44	-133.508	43.824	0	464.90	0	4.8160	0	34.1250	4	27.007	0	460.659	0	41.0	4	13.2	4	-1E+10	1	-1E+10	1	-1E+10	1	-1E+10	1	-1E+10	1	-1E+10	1
4901784	87	C	11/21/2017	10:44	-133.508	43.824	0	467.40	0	4.7770	0	34.1220	4	27.009	0	463.133	0	41.1	4	13.2	4	-1E+10	1	-1E+10	1	-1E+10	1	-1E+10	1	-1E+10	1	-1E+10	1
4901784	87	C	11/21/2017	10:44	-133.508	43.824	0	469.90	0	4.7500	0	34.1210	4	27.011	0	465.607	0	40.8	4	13.1	4	-1E+10	1	-1E+10	1	-1E+10	1	-1E+10	1	-1E+10	1	-1E+10	1
4901784	87	C	11/21/2017	10:44	-133.508	43.824	0	472.40	0	4.7580	0	34.1240	4	27.012	0	468.082	0	40.2	4	12.9	4	-1E+10	1	-1E+10	1	-1E+10	1	-1E+10	1	-1E+10	1	-1E+10	1
4901784	87	C	11/21/2017	10:44	-133.508	43.824	0	474.90	0	4.7410	0	34.1260	4	27.016	0	470.556	0	39.9	4	12.8	4	-1E+10	1	-1E+10	1	-1E+10	1	-1E+10	1	-1E+10	1	-1E+10	1
4901784	87	C	11/21/2017	10:44	-133.508	43.824	0	477.40	0	4.7330	0	34.1260	4	27.017	0	473.030	0	39.5	4	12.7	4	-1E+10	1	-1E+10	1	-1E+10	1	-1E+10	1	-1E+10	1	-1E+10	1
4901784	87	C	11/21/2017	10:44	-133.508	43.824	0	479.90	0	4.7190	0	34.1280	4	27.020	0	475.505	0	39.0	4	12.5	4	-1E+10	1	-1E+10	1	-1E+10	1	-1E+10	1	-1E+10	1	-1E+10	1
4901784	87	C	11/21/2017	10:44	-133.508	43.824	0	482.50	0	4.7010	0	34.1280	4	27.022	0	478.078	0	38.2	4	12.3	4	-1E+10	1	-1E+10	1	-1E+10	1	-1E+10	1	-1E+10	1	-1E+10	1
4901784	87	C	11/21/2017	10:44	-133.508	43.824	0	485.00	0	4.7070	0	34.1330	4	27.025	0	480.552	0	37.0	4	11.9	4	-1E+10	1	-1E+10	1	-1E+10	1	-1E+10	1	-1E+10	1	-1E+10	1
4901784	87	C	11/21/2017	10:44	-133.508	43.824	0	487.60	0	4.7610	0	34.1440	4	27.028	0	483.125	0	35.8	4	11.5	4	-1E+10	1	-1E+10	1	-1E+10	1	-1E+10	1	-1E+10	1	-1E+10	1
4901784	87	C	11/21/2017	10:44	-133.508	43.824	0	490.20	0	4.7640	0	34.1460	4	27.029	0	485.698	0	35.5	4	11.4	4	-1E+10	1	-1E+10	1	-1E+10	1	-1E+10	1	-1E+10	1	-1E+10	1
4901784	87	C	11/21/2017	10:44	-133.508	43.824	0	492.70	0	4.7210	0	34.1470	4	27.035	0	488.172	0	35.5	4	11.4	4	-1E+10	1	-1E+10	1	-1E+10	1	-1E+10	1	-1E+10	1	-1E+10	1
4901784	87	C	11/21/2017	10:44	-133.508	43.824	0	495.30	0	4.7170	0	34.1470	4	27.035	0	490.745	0	35.5	4	11.4	4	-1E+10	1	-1E+10	1	-1E+10	1	-1E+10	1	-1E+10	1	-1E+10	1
4901784	87	C	11/21/2017	10:44	-133.508	43.824	0	497.80	0	4.7000	0	34.1460	4	27.036	0	493.219	0	35.4	4	11.4	4	-1E+10	1	-1E+10	1	-1E+10	1	-1E+10	1	-1E+10	1	-1E+10	1
4901784	87	C	11/21/2017	10:44	-133.508	43.824	0	500.40	0	4.6950	0	34.1480	4	27.039	0	495.792	0	35.2	4	11.3	4	-1E+10	1	-1E+10	1	-1E+10	1	-1E+10	1	-1E+10	1	-1E+10	1
4901784	87	C	11/21/2017	10:44	-133.508	43.824	0	504.60	0	4.6780	0	34.1460	4	27.039	0	499.949	0	35.0	4	11.2	4	-1E+10	1	-1E+10	1	-1E+10	1	-1E+10	1	-1E+10	1	-1E+10	1
4901784	87	C	11/21/2017	10:44	-133.508	43.824	0	509.80	0	4.6580	0	34.1480	4	27.043	0	505.094	0	33.8	4	10.8	4	-1E+10	1	-1E+10	1	-1E+10	1	-1E+10	1	-1E+10	1	-1E+10	1
4901784	87	C	11/21/2017	10:44	-133.508	43.824	0	515.00	0	4.6340	0	34.1560	4	27.052	0	510.240	0	32.2	4	10.3	4	-1E+10	1	-1E+10	1	-1E+10	1	-1E+10	1	-1E+10	1	-1E+10	1
4901784	87	C	11/21/2017	10:44	-133.508	43.824	0	520.20	0	4.6220	0	34.1610	4	27.057	0	515.385	0	31.1	4	10.0	4	-1E+10	1	-1E+10	1	-1E+10	1	-1E+10	1	-1E+10	1	-1E+10	1
4901784	87	C	11/21/2017	10:44	-133.508	43.824	0	525.40	0	4.5990	0	34.1630	4	27.061	0	520.531	0	30.9	4	9.9	4	-1E+10	1	-1E+10	1	-1E+10	1	-1E+10	1	-1E+10	1	-1E+10	1
4901784	87	C	11/21/2017	10:44	-133.508	43.824	0	530.70	0	4.5150	0	34.1630	4	27.070	0	525.775	0	30.5	4	9.7	4	-1E+10	1	-1E+10	1	-1E+10	1	-1E+10	1	-1E+10	1	-1E+10	1
4901784	87	C	11/21/2017	10:44	-133.508	43.824	0	535.10	0	4.4860	0	34.1670	4	27.077	0	530.129	0	29.7	4	9.5	4	-1E+10	1	-1E+10	1	-1E+10	1	-1E+10	1	-1E+10	1	-1E+10	1
4901784	87	C	11/21/2017	10:44	-133.508	43.824	0	539.50	0	4.4720	0	34.1700	4	27.081	0	534.482	0	29.0	4	9.3	4	-1E+10	1	-1E+10	1	-1E+10	1	-1E+10	1	-1E+10	1	-1E+10	1
4901784	87	C	11/21/2017	10:44	-133.508	43.824	0	544.80	0	4.4490	0	34.1740	4	27.086	0	539.726	0	28.2	4	9.0	4	-1E+10	1	-1E+10	1	-1E+10	1	-1E+10	1	-1E+10	1	-1E+10	1
4901784	87	C	11/21/2017	10:44	-133.508	43.824	0	550.10	0	4.4270	0	34.1790	4	27.093	0	544.970	0	27.2	4	8.7	4	-1E+10	1	-1E+10	1	-1E+10	1	-1E+10	1	-1E+10	1	-1E+10	1
4901784	87	C	11/21/2017	10:44	-133.508	43.824	0	555.50	0	4.4070	0	34.1860	4	27.100	0	550.312	0	26.2	4	8.4	4	-1E+10	1	-1E+10	1	-1E+10	1	-1E+10	1	-1E+10	1	-1E+10	1
4901784	87	C	11/21/2017	10:44	-133.508	43.824	0	559.90	0	4.3930	0	34.1930	4	27.107	0	554.665	0	25.6	4	8.2	4	-1E+10	1	-1E+10	1	-1E+10	1	-1E+10	1	-1E+10	1	-1E+10	1
4901784	87	C	11/21/2017	10:44	-133.508	43.824	0	564.30	0	4.3830	0	34.1950	4	27.110	0	559.018	0	24.9	4	7.9	4	-1E+10	1	-1E+10	1	-1E+10	1	-1E+10	1	-1E+10	1	-1E+10	1
4901784	87	C	11/21/2017	10:44	-133.508	43.824	0	569.70	0	4.3570	0	34.2020	4	27.119	0	564.360	0	24.0	4	7.6	4	-1E+10	1	-1E+10	1	-1E+10	1	-1E+10	1	-1E+10	1	-1E+10	1
4901784	87	C	11/21/2017	10:44	-133.508	43.824	0	575.00	0	4.3420	0	34.2070	4	27.124	0	569.603	0	23.0	4	7.3	4	-1E+10	1	-1E+10	1	-1E+10	1	-1E+10	1	-1E+10	1	-1E+10	1
4901784	87	C	11/21/2017	10:44	-133.508	43.824	0	580.30	0	4.3250	0	34.2140	4	27.132	0	574.846	0	21.9	4	7.0	4	-1E+10	1	-1E+10	1	-1E+10	1	-1E+10	1	-1E+10	1	-1E+10	1
4901784	87	C	11/21/2017	10:44	-133.508	43.824	0	585.70	0	4.3220	0	34.2240	4	27.140	0	580.188	0	20.2	4	6.4	4	-1E+10	1	-1E+10	1	-1E+10	1	-1E+10	1	-1E+10	1	-1E+10	1
4901784	87	C	11/21/2017	10:44	-133.508	43.824	0	590.10	0	4.3450	0	34.2380	4	27.149	0	584.540	0	19.0	4	6.1	4	-1E+10	1	-1E+10	1	-1E+10	1	-1E+10	1	-1E+10	1	-1E+10	1
4901784	87	C	11/21/2017	10:44	-133.508	43.824	0	594.70	0	4.3380	0	34.2430	4	27.153	0	589.091	0	18.7	4	6.0	4	-1E+10	1	-1E+10	1	-1E+10	1	-1E+10	1	-1E+10	1	-1E+10	1
4901784	87	C	11/21/2017	10:44	-133.508	43.824	0	600.10	0	4.2830	0	34.2460	4	27.162	0	594.432	0	18.4	4	5.8	4	-1E+10	1	-1E+10	1	-1E+10	1	-1E+10	1	-1E+10	1	-1E+10	1
4901784	87	C	11/21/2017	10:44	-133.508	43.824	0	605.60	0	4.2640	0	34.2510	4	27.168	0	599.872	0	17.9	4	5.7	4	-1E+10	1	-1E+10	1	-1E+10	1	-1E+10	1	-1E+10	1	-1E+10	1
4901784	87	C	11/21/2017	10:44	-133.508	43.824	0	610.10	0	4.2530	0	34.2520	4	27.170	0	604.323	0	17.4	4	5.5	4	-1E+10	1	-1E+10	1	-1E+10	1	-1E+10	1	-1E+10	1	-1E+10	1
4901784	87	C	11/21/2017	10:44	-133.508	43.824	0	614.60	0	4.2530	0	34.2560	4	27.173	0	608.774	0	16.9	4	5.4	4	-1E+10	1	-1E+10	1	-1E+10	1	-1E+10	1	-1E+10	1	-1E+10	1
4901784	87	C	11/21/2017	10:44	-133.508	43.824	0	620.00	0	4.2820	0	34.2670	4	27.179	0	614.115	0	16.2	4	5.2	4	-1E+10	1	-1E+10	1	-1E+10	1	-1E+10	1	-1E+10	1	-1E+10	1
4901784	87	C	11/21/2017	10:44	-133.508	43.824	0	625.40	0	4.2680	0	34.2710	4	27.183	0	619.455	0	16.0	4	5.1	4	-1E+10	1	-1E+10	1	-1E+10	1	-1E+10	1	-1E+10	1	-1E+10	1
4901784	87	C	11/21/2017	10:44	-133.508	43.824	0	629.90	0	4.2420	0	34.2760	4	27.190	0	623.906	0	15.8	4	5.0	4	-1E+10	1	-1E+10	1	-1E+10	1	-1E+10	1	-1E+10	1	-1E+10	1
4901784	87	C	11/21/2017	10:44	-133.508	43.824	0	634.40	0	4.2340	0	34.2790	4	27.193	0	628.356	0	15.5	4	4.9	4	-1E+10	1	-1E+10	1	-1E+10	1	-1E+10	1	-1E+10	1	-1E+10	1
4901784	87	C	11/21/2017	10:44	-133.508	43.824	0	639.90	0	4.2280	0	34.2830	4	27.197	0	633.795	0	15.3	4	4.9	4	-1E+10	1	-1E+10	1	-1E+10	1	-1E+10	1	-1E+10	1	-1E+10	1
4901784	87	C	11/21/2017	10:44	-133.508	43.824	0	645.40	0	4.2140	0	34.2850	4	27.200	0	639.235	0	15.1	4	4.8	4	-1E+10	1	-1E+10	1	-1E+10	1	-1E+10	1	-1E+10	1	-1E+10	1
4901784	87	C	11/21/2017	10:44	-133.508	43.824	0	650.10	0	4.2080	0	34.2870	4	27.202	0	643.882	0	15.0	4	4.8	4	-1E+10	1	-1E+10	1	-1E+10	1	-1E+10	1	-1E+10	1	-1E+10	1
4901784	87	C	11/21/2017	10:44	-133.508	43.824	0	654.70	0	4.2070	0	34.2890	4	27.204	0	648.431	0	14.8	4	4.7	4	-1E+10	1	-1E+10	1	-1E+10	1	-1E+10	1	-1E+10	1	-1E+10	1
4901784	87	C	11/21/2017	10:44	-133.508	43.824	0	660.30	0	4.2110	0	34.2950	4	27.209	0	653.969	0	14.4	4	4.6	4	-1E+10	1	-1E+10	1	-1E+10	1	-1E+10	1	-1E+10	1	-1E+10	1
4901784	87	C	11/21/2017	10:44	-133.508	43.824	0	665.00	0	4.2020	0	34.3000	4	27.214	0	658.616	0	14.2	4	4.5	4	-1E+10	1	-1E+10	1	-1E+10	1	-1E+10	1	-1E+10	1	-1E+10	1
4901784	87	C	11/21/2017	10:44	-133.508	43.824	0	669.80	0	4.1950	0	34.3030	4	27.217	0	663.363	0	13.9	4	4.4	4	-1E+10	1	-1E+10	1	-1E+10	1	-1E+10	1	-1E+10	1	-1E+10	1
4901784	87	C	11/21/2017	10:44	-133.508	43.824	0	675.40	0	4.1850	0	34.3090	4	27.223	0	668.900	0	13.6	4	4.3	4	-1E+10	1	-1E+10	1	-1E+10	1	-1E+10	1	-1E+10	1	-1E+10	1
4901784	87	C	11/21/2017	10:44	-133.508	43.824	0	680.20	0	4.1820	0	34.3130	4	27.226	0	673.646	0	13.3	4	4.2	4	-1E+10	1	-1E+10	1	-1E+10	1	-1E+10	1	-1E+10	1	-1E+10	1
4901784	87	C	11/21/2017	10:44	-133.508	43.824	0	685.00	0	4.1770	0	34.3180	4	27.231	0	678.392	0	13.0	4	4.1	4	-1E+10	1	-1E+10	1	-1E+10	1	-1E+10	1	-1E+10	1	-1E+10	1
4901784	87	C	11/21/2017	10:44	-133.508	43.824	0	690.40	0	4.1640	0	34.3240	4	27.237	0	683.731	0	12.8	4	4.0	4	-1E+10	1	-1E+10	1	-1E+10	1	-1E+10	1	-1E+10	1	-1E+10	1
4901784	87	C	11/21/2017	10:44	-133.508	43.824	0	695.40	0	4.1530	0	34.3250	4	27.239	0	688.674	0	12.7	4	4.0	4	-1E+10	1	-1E+10	1	-1E+10	1	-1E+10	1	-1E+10	1	-1E+10	1
4901784	87	C	11/21/2017	10:44	-133.508	43.824	0	700.40	0	4.1370	0	34.3270	4	27.242	0	693.618	0	12.5	4	4.0	4	-1E+10	1	-1E+10	1	-1E+10	1	-1E+10	1	-1E+10	1	-1E+10	1
4901784	87	C	11/21/2017	10:44	-133.508	43.824	0	705.40	0	4.1310	0	34.3320	4	27.247	0	698.561	0	12.2	4	3.9	4	-1E+10	1	-1E+10	1	-1E+10	1	-1E+10	1	-1E+10	1	-1E+10	1
4901784	87	C	11/21/2017	10:44	-133.508	43.824	0	710.40	0	4.1110	0	34.3390	4	27.254	0	703.504	0	11.9	4	3.8	4	-1E+10	1	-1E+10	1	-1E+10	1	-1E+10	1	-1E+10	1	-1E+10	1
4901784	87	C	11/21/2017	10:44	-133.508	43.824	0	715.50	0	4.1050	0	34.3430	4	27.258	0	708.546	0	11.7	4	3.7	4	-1E+10	1	-1E+10	1	-1E+10	1	-1E+10	1	-1E+10	1	-1E+10	1
4901784	87	C	11/21/2017	10:44	-133.508	43.824	0	719.90	0	4.0990	0	34.3470	4	27.262	0	712.895	0	11.5	4	3.6	4	-1E+10	1	-1E+10	1	-1E+10	1	-1E+10	1	-1E+10	1	-1E+10	1
4901784	87	C	11/21/2017	10:44	-133.508	43.824	0	724.30	0	4.1170	0	34.3540	4	27.266	0	717.245	0	11.2	4	3.6	4	-1E+10	1	-1E+10	1	-1E+10	1	-1E+10	1	-1E+10	1	-1E+10	1
4901784	87	C	11/21/2017	10:44	-133.508	43.824	0	729.60	0	4.1140	0	34.3580	4	27.269	0	722.484	0	11.0	4	3.5	4	-1E+10	1	-1E+10	1	-1E+10	1	-1E+10	1	-1E+10	1	-1E+10	1
4901784	87	C	11/21/2017	10:44	-133.508	43.824	0	735.00	0	4.1350	0	34.3660	4	27.274	0	727.822	0	10.7	4	3.4	4	-1E+10	1	-1E+10	1	-1E+10	1	-1E+10	1	-1E+10	1	-1E+10	1
4901784	87	C	11/21/2017	10:44	-133.508	43.824	0	740.30	0	4.1320	0	34.3680	4	27.276	0	733.061	0	10.6	4	3.4	4	-1E+10	1	-1E+10	1	-1E+10	1	-1E+10	1	-1E+10	1	-1E+10	1
4901784	87	C	11/21/2017	10:44	-133.508	43.824	0	744.80	0	4.1270	0	34.3700	4	27.278	0	737.509	0	10.6	4	3.3	4	-1E+10	1	-1E+10	1	-1E+10	1	-1E+10	1	-1E+10	1	-1E+10	1
4901784	87	C	11/21/2017	10:44	-133.508	43.824	0	749.40	0	4.1170	0	34.3730	4	27.281	0	742.056	0	10.5	4	3.3	4	-1E+10	1	-1E+10	1	-1E+10	1	-1E+10	1	-1E+10	1	-1E+10	1
4901784	87	C	11/21/2017	10:44	-133.508	43.824	0	754.80	0	4.1040	0	34.3790	4	27.287	0	747.393	0	10.3	4	3.3	4	-1E+10	1	-1E+10	1	-1E+10	1	-1E+10	1	-1E+10	1	-1E+10	1
4901784	87	C	11/21/2017	10:44	-133.508	43.824	0	760.20	0	4.0970	0	34.3850	4	27.293	0	752.731	0	10.3	4	3.3	4	-1E+10	1	-1E+10	1	-1E+10	1	-1E+10	1	-1E+10	1	-1E+10	1
4901784	87	C	11/21/2017	10:44	-133.508	43.824	0	764.90	0	4.0880	0	34.3890	4	27.297	0	757.376	0	10.2	4	3.2	4	-1E+10	1	-1E+10	1	-1E+10	1	-1E+10	1	-1E+10	1	-1E+10	1
4901784	87	C	11/21/2017	10:44	-133.508	43.824	0	769.50	0	4.0740	0	34.3910	4	27.300	0	761.922	0	10.2	4	3.2	4	-1E+10	1	-1E+10	1	-1E+10	1	-1E+10	1	-1E+10	1	-1E+10	1
4901784	87	C	11/21/2017	10:44	-133.508	43.824	0	775.00	0	4.0590	0	34.3930	4	27.303	0	767.358	0	10.2	4	3.2	4	-1E+10	1	-1E+10	1	-1E+10	1	-1E+10	1	-1E+10	1	-1E+10	1
4901784	87	C	11/21/2017	10:44	-133.508	43.824	0	780.50	0	4.0450	0	34.3950	4	27.306	0	772.794	0	10.2	4	3.2	4	-1E+10	1	-1E+10	1	-1E+10	1	-1E+10	1	-1E+10	1	-1E+10	1
4901784	87	C	11/21/2017	10:44	-133.508	43.824	0	785.10	0	4.0300	0	34.3970	4	27.309	0	777.340	0	10.2	4	3.2	4	-1E+10	1	-1E+10	1	-1E+10	1	-1E+10	1	-1E+10	1	-1E+10	1
4901784	87	C	11/21/2017	10:44	-133.508	43.824	0	790.10	0	4.0160	0	34.3990	4	27.313	0	782.281	0	10.2	4	3.2	4	-1E+10	1	-1E+10	1	-1E+10	1	-1E+10	1	-1E+10	1	-1E+10	1
4901784	87	C	11/21/2017	10:44	-133.508	43.824	0	795.20	0	4.0040	0	34.4040	4	27.318	0	787.321	0	10.2	4	3.2	4	-1E+10	1	-1E+10	1	-1E+10	1	-1E+10	1	-1E+10	1	-1E+10	1
4901784	87	C	11/21/2017	10:44	-133.508	43.824	0	799.90	0	3.9920	0	34.4090	4	27.323	0	791.965	0	10.2	4	3.2	4	-1E+10	1	-1E+10	1	-1E+10	1	-1E+10	1	-1E+10	1	-1E+10	1
4901784	87	C	11/21/2017	10:44	-133.508	43.824	0	804.70	0	3.9820	0	34.4120	4	27.326	0	796.709	0	10.2	4	3.2	4	-1E+10	1	-1E+10	1	-1E+10	1	-1E+10	1	-1E+10	1	-1E+10	1
4901784	87	C	11/21/2017	10:44	-133.508	43.824	0	809.60	0	3.9690	0	34.4160	4	27.331	0	801.550	0	10.2	4	3.2	4	-1E+10	1	-1E+10	1	-1E+10	1	-1E+10	1	-1E+10	1	-1E+10	1
4901784	87	C	11/21/2017	10:44	-133.508	43.824	0	814.40	0	3.9630	0	34.4180	4	27.333	0	806.294	0	10.3	4	3.2	4	-1E+10	1	-1E+10	1	-1E+10	1	-1E+10	1	-1E+10	1	-1E+10	1
4901784	87	C	11/21/2017	10:44	-133.508	43.824	0	819.30	0	3.9550	0	34.4180	4	27.334	0	811.135	0	10.3	4	3.2	4	-1E+10	1	-1E+10	1	-1E+10	1	-1E+10	1	-1E+10	1	-1E+10	1
4901784	87	C	11/21/2017	10:44	-133.508	43.824	0	824.20	0	3.9470	0	34.4190	4	27.336	0	815.977	0	10.3	4	3.2	4	-1E+10	1	-1E+10	1	-1E+10	1	-1E+10	1	-1E+10	1	-1E+10	1
4901784	87	C	11/21/2017	10:44	-133.508	43.824	0	829.20	0	3.9330	0	34.4200	4	27.338	0	820.917	0	10.3	4	3.3	4	-1E+10	1	-1E+10	1	-1E+10	1	-1E+10	1	-1E+10	1	-1E+10	1
4901784	87	C	11/21/2017	10:44	-133.508	43.824	0	834.30	0	3.9100	0	34.4220	4	27.342	0	825.956	0	10.3	4	3.3	4	-1E+10	1	-1E+10	1	-1E+10	1	-1E+10	1	-1E+10	1	-1E+10	1
4901784	87	C	11/21/2017	10:44	-133.508	43.824	0	839.30	0	3.8990	0	34.4230	4	27.344	0	830.896	0	10.3	4	3.3	4	-1E+10	1	-1E+10	1	-1E+10	1	-1E+10	1	-1E+10	1	-1E+10	1
4901784	87	C	11/21/2017	10:44	-133.508	43.824	0	844.40	0	3.8870	0	34.4240	4	27.346	0	835.935	0	10.4	4	3.3	4	-1E+10	1	-1E+10	1	-1E+10	1	-1E+10	1	-1E+10	1	-1E+10	1
4901784	87	C	11/21/2017	10:44	-133.508	43.824	0	849.40	0	3.8780	0	34.4260	4	27.348	0	840.875	0	10.4	4	3.3	4	-1E+10	1	-1E+10	1	-1E+10	1	-1E+10	1	-1E+10	1	-1E+10	1
4901784	87	C	11/21/2017	10:44	-133.508	43.824	0	854.50	0	3.8540	0	34.4280	4	27.353	0	845.913	0	10.4	4	3.3	4	-1E+10	1	-1E+10	1	-1E+10	1	-1E+10	1	-1E+10	1	-1E+10	1
4901784	87	C	11/21/2017	10:44	-133.508	43.824	0	859.50	0	3.8320	0	34.4300	4	27.356	0	850.853	0	10.4	4	3.3	4	-1E+10	1	-1E+10	1	-1E+10	1	-1E+10	1	-1E+10	1	-1E+10	1
4901784	87	C	11/21/2017	10:44	-133.508	43.824	0	864.60	0	3.8280	0	34.4300	4	27.357	0	855.891	0	10.4	4	3.3	4	-1E+10	1	-1E+10	1	-1E+10	1	-1E+10	1	-1E+10	1	-1E+10	1
4901784	87	C	11/21/2017	10:44	-133.508	43.824	0	869.70	0	3.8160	0	34.4320	4	27.360	0	860.929	0	10.5	4	3.3	4	-1E+10	1	-1E+10	1	-1E+10	1	-1E+10	1	-1E+10	1	-1E+10	1
4901784	87	C	11/21/2017	10:44	-133.508	43.824	0	874.90	0	3.8080	0	34.4340	4	27.362	0	866.066	0	10.5	4	3.3	4	-1E+10	1	-1E+10	1	-1E+10	1	-1E+10	1	-1E+10	1	-1E+10	1
4901784	87	C	11/21/2017	10:44	-133.508	43.824	0	880.00	0	3.7940	0	34.4350	4	27.364	0	871.104	0	10.6	4	3.3	4	-1E+10	1	-1E+10	1	-1E+10	1	-1E+10	1	-1E+10	1	-1E+10	1
4901784	87	C	11/21/2017	10:44	-133.508	43.824	0	885.30	0	3.7710	0	34.4350	4	27.367	0	876.339	0	10.6	4	3.3	4	-1E+10	1	-1E+10	1	-1E+10	1	-1E+10	1	-1E+10	1	-1E+10	1
4901784	87	C	11/21/2017	10:44	-133.508	43.824	0	890.50	0	3.7280	0	34.4320	4	27.369	0	881.476	0	10.7	4	3.4	4	-1E+10	1	-1E+10	1	-1E+10	1	-1E+10	1	-1E+10	1	-1E+10	1
4901784	87	C	11/21/2017	10:44	-133.508	43.824	0	895.70	0	3.6620	0	34.4270	4	27.371	0	886.612	0	10.8	4	3.4	4	-1E+10	1	-1E+10	1	-1E+10	1	-1E+10	1	-1E+10	1	-1E+10	1
4901784	87	C	11/21/2017	10:44	-133.508	43.824	0	900.00	0	3.6360	0	34.4250	4	27.372	0	890.859	0	10.9	4	3.4	4	-1E+10	1	-1E+10	1	-1E+10	1	-1E+10	1	-1E+10	1	-1E+10	1
4901784	87	C	11/21/2017	10:44	-133.508	43.824	0	904.40	0	3.5840	0	34.4210	4	27.374	0	895.205	0	11.0	4	3.5	4	-1E+10	1	-1E+10	1	-1E+10	1	-1E+10	1	-1E+10	1	-1E+10	1
4901784	87	C	11/21/2017	10:44	-133.508	43.824	0	909.50	0	3.5630	0	34.4220	4	27.377	0	900.242	0	11.1	4	3.5	4	-1E+10	1	-1E+10	1	-1E+10	1	-1E+10	1	-1E+10	1	-1E+10	1
4901784	87	C	11/21/2017	10:44	-133.508	43.824	0	914.80	0	3.5490	0	34.4240	4	27.380	0	905.477	0	11.2	4	3.5	4	-1E+10	1	-1E+10	1	-1E+10	1	-1E+10	1	-1E+10	1	-1E+10	1
4901784	87	C	11/21/2017	10:44	-133.508	43.824	0	920.10	0	3.5280	0	34.4290	4	27.386	0	910.711	0	11.3	4	3.5	4	-1E+10	1	-1E+10	1	-1E+10	1	-1E+10	1	-1E+10	1	-1E+10	1
4901784	87	C	11/21/2017	10:44	-133.508	43.824	0	925.40	0	3.5130	0	34.4320	4	27.390	0	915.946	0	11.3	4	3.5	4	-1E+10	1	-1E+10	1	-1E+10	1	-1E+10	1	-1E+10	1	-1E+10	1
4901784	87	C	11/21/2017	10:44	-133.508	43.824	0	929.90	0	3.5070	0	34.4340	4	27.392	0	920.390	0	11.3	4	3.5	4	-1E+10	1	-1E+10	1	-1E+10	1	-1E+10	1	-1E+10	1	-1E+10	1
4901784	87	C	11/21/2017	10:44	-133.508	43.824	0	934.30	0	3.4880	0	34.4380	4	27.397	0	924.735	0	11.3	4	3.5	4	-1E+10	1	-1E+10	1	-1E+10	1	-1E+10	1	-1E+10	1	-1E+10	1
4901784	87	C	11/21/2017	10:44	-133.508	43.824	0	939.60	0	3.4760	0	34.4410	4	27.401	0	929.969	0	11.4	4	3.6	4	-1E+10	1	-1E+10	1	-1E+10	1	-1E+10	1	-1E+10	1	-1E+10	1
4901784	87	C	11/21/2017	10:44	-133.508	43.824	0	944.90	0	3.4610	0	34.4450	4	27.405	0	935.203	0	11.5	4	3.6	4	-1E+10	1	-1E+10	1	-1E+10	1	-1E+10	1	-1E+10	1	-1E+10	1
4901784	87	C	11/21/2017	10:44	-133.508	43.824	0	950.30	0	3.4460	0	34.4490	4	27.410	0	940.535	0	11.5	4	3.6	4	-1E+10	1	-1E+10	1	-1E+10	1	-1E+10	1	-1E+10	1	-1E+10	1
4901784	87	C	11/21/2017	10:44	-133.508	43.824	0	955.60	0	3.4290	0	34.4530	4	27.415	0	945.769	0	11.6	4	3.6	4	-1E+10	1	-1E+10	1	-1E+10	1	-1E+10	1	-1E+10	1	-1E+10	1
4901784	87	C	11/21/2017	10:44	-133.508	43.824	0	960.00	0	3.4200	0	34.4550	4	27.417	0	950.114	0	11.7	4	3.6	4	-1E+10	1	-1E+10	1	-1E+10	1	-1E+10	1	-1E+10	1	-1E+10	1
4901784	87	C	11/21/2017	10:44	-133.508	43.824	0	964.50	0	3.4140	0	34.4560	4	27.419	0	954.557	0	11.8	4	3.7	4	-1E+10	1	-1E+10	1	-1E+10	1	-1E+10	1	-1E+10	1	-1E+10	1
4901784	87	C	11/21/2017	10:44	-133.508	43.824	0	969.90	0	3.4060	0	34.4590	4	27.422	0	959.889	0	11.9	4	3.7	4	-1E+10	1	-1E+10	1	-1E+10	1	-1E+10	1	-1E+10	1	-1E+10	1
4901784	87	C	11/21/2017	10:44	-133.508	43.824	0	975.30	0	3.3950	0	34.4620	4	27.425	0	965.221	0	12.0	4	3.7	4	-1E+10	1	-1E+10	1	-1E+10	1	-1E+10	1	-1E+10	1	-1E+10	1
4901784	87	C	11/21/2017	10:44	-133.508	43.824	0	980.60	0	3.3840	0	34.4650	4	27.429	0	970.454	0	12.1	4	3.8	4	-1E+10	1	-1E+10	1	-1E+10	1	-1E+10	1	-1E+10	1	-1E+10	1
4901784	87	C	11/21/2017	10:44	-133.508	43.824	0	985.10	0	3.3760	0	34.4670	4	27.431	0	974.897	0	12.2	4	3.8	4	-1E+10	1	-1E+10	1	-1E+10	1	-1E+10	1	-1E+10	1	-1E+10	1
4901784	87	C	11/21/2017	10:44	-133.508	43.824	0	989.70	0	3.3690	0	34.4690	4	27.433	0	979.438	0	12.3	4	3.8	4	-1E+10	1	-1E+10	1	-1E+10	1	-1E+10	1	-1E+10	1	-1E+10	1
4901784	87	C	11/21/2017	10:44	-133.508	43.824	0	995.10	0	3.3640	0	34.4710	4	27.436	0	984.770	0	12.3	4	3.8	4	-1E+10	1	-1E+10	1	-1E+10	1	-1E+10	1	-1E+10	1	-1E+10	1
4901784	87	C	11/21/2017	10:44	-133.508	43.824	0	1000.60	0	3.3610	0	34.4710	4	27.436	0	990.200	0	12.4	4	3.9	4	-1E+10	1	-1E+10	1	-1E+10	1	-1E+10	1	-1E+10	1	-1E+10	1
4901784	87	C	11/21/2017	10:44	-133.508	43.824	0	1005.20	0	3.3500	0	34.4740	4	27.439	0	994.741	0	12.6	4	3.9	4	-1E+10	1	-1E+10	1	-1E+10	1	-1E+10	1	-1E+10	1	-1E+10	1
4901784	87	C	11/21/2017	10:44	-133.508	43.824	0	1009.80	0	3.3410	0	34.4770	4	27.443	0	999.282	0	12.7	4	4.0	4	-1E+10	1	-1E+10	1	-1E+10	1	-1E+10	1	-1E+10	1	-1E+10	1
4901784	87	C	11/21/2017	10:44	-133.508	43.824	0	1015.20	0	3.3360	0	34.4790	4	27.445	0	1004.613	0	12.9	4	4.0	4	-1E+10	1	-1E+10	1	-1E+10	1	-1E+10	1	-1E+10	1	-1E+10	1
4901784	87	C	11/21/2017	10:44	-133.508	43.824	0	1019.80	0	3.3340	0	34.4810	4	27.446	0	1009.154	0	13.0	4	4.0	4	-1E+10	1	-1E+10	1	-1E+10	1	-1E+10	1	-1E+10	1	-1E+10	1
4901784	87	C	11/21/2017	10:44	-133.508	43.824	0	1024.50	0	3.3290	0	34.4820	4	27.448	0	1013.793	0	13.1	4	4.1	4	-1E+10	1	-1E+10	1	-1E+10	1	-1E+10	1	-1E+10	1	-1E+10	1
4901784	87	C	11/21/2017	10:44	-133.508	43.824	0	1030.10	0	3.3190	0	34.4850	4	27.451	0	1019.321	0	13.2	4	4.1	4	-1E+10	1	-1E+10	1	-1E+10	1	-1E+10	1	-1E+10	1	-1E+10	1
4901784	87	C	11/21/2017	10:44	-133.508	43.824	0	1034.80	0	3.3160	0	34.4870	4	27.453	0	1023.961	0	13.3	4	4.1	4	-1E+10	1	-1E+10	1	-1E+10	1	-1E+10	1	-1E+10	1	-1E+10	1
4901784	87	C	11/21/2017	10:44	-133.508	43.824	0	1040.20	0	3.3130	0	34.4880	4	27.454	0	1029.291	0	13.5	4	4.2	4	-1E+10	1	-1E+10	1	-1E+10	1	-1E+10	1	-1E+10	1	-1E+10	1
4901784	87	C	11/21/2017	10:44	-133.508	43.824	0	1045.40	0	3.3110	0	34.4890	4	27.455	0	1034.423	0	13.7	4	4.3	4	-1E+10	1	-1E+10	1	-1E+10	1	-1E+10	1	-1E+10	1	-1E+10	1
4901784	87	C	11/21/2017	10:44	-133.508	43.824	0	1050.20	0	3.3080	0	34.4920	4	27.458	0	1039.161	0	13.9	4	4.3	4	-1E+10	1	-1E+10	1	-1E+10	1	-1E+10	1	-1E+10	1	-1E+10	1
4901784	87	C	11/21/2017	10:44	-133.508	43.824	0	1055.10	0	3.3030	0	34.4930	4	27.459	0	1043.997	0	14.0	4	4.4	4	-1E+10	1	-1E+10	1	-1E+10	1	-1E+10	1	-1E+10	1	-1E+10	1
4901784	87	C	11/21/2017	10:44	-133.508	43.824	0	1060.10	0	3.2970	0	34.4950	4	27.461	0	1048.932	0	14.1	4	4.4	4	-1E+10	1	-1E+10	1	-1E+10	1	-1E+10	1	-1E+10	1	-1E+10	1
4901784	87	C	11/21/2017	10:44	-133.508	43.824	0	1065.00	0	3.2900	0	34.4970	4	27.464	0	1053.768	0	14.3	4	4.5	4	-1E+10	1	-1E+10	1	-1E+10	1	-1E+10	1	-1E+10	1	-1E+10	1
4901784	87	C	11/21/2017	10:44	-133.508	43.824	0	1070.10	0	3.2830	0	34.4990	4	27.466	0	1058.802	0	14.4	4	4.5	4	-1E+10	1	-1E+10	1	-1E+10	1	-1E+10	1	-1E+10	1	-1E+10	1
4901784	87	C	11/21/2017	10:44	-133.508	43.824	0	1075.10	0	3.2760	0	34.4990	4	27.467	0	1063.736	0	14.5	4	4.5	4	-1E+10	1	-1E+10	1	-1E+10	1	-1E+10	1	-1E+10	1	-1E+10	1
4901784	87	C	11/21/2017	10:44	-133.508	43.824	0	1080.10	0	3.2730	0	34.5010	4	27.469	0	1068.671	0	14.6	4	4.5	4	-1E+10	1	-1E+10	1	-1E+10	1	-1E+10	1	-1E+10	1	-1E+10	1
4901784	87	C	11/21/2017	10:44	-133.508	43.824	0	1085.20	0	3.2660	0	34.5020	4	27.470	0	1073.704	0	14.7	4	4.6	4	-1E+10	1	-1E+10	1	-1E+10	1	-1E+10	1	-1E+10	1	-1E+10	1
4901784	87	C	11/21/2017	10:44	-133.508	43.824	0	1090.40	0	3.2610	0	34.5030	4	27.471	0	1078.835	0	14.8	4	4.6	4	-1E+10	1	-1E+10	1	-1E+10	1	-1E+10	1	-1E+10	1	-1E+10	1
4901784	87	C	11/21/2017	10:44	-133.508	43.824	0	1095.70	0	3.2510	0	34.5050	4	27.474	0	1084.065	0	15.1	4	4.7	4	-1E+10	1	-1E+10	1	-1E+10	1	-1E+10	1	-1E+10	1	-1E+10	1
4901784	87	C	11/21/2017	10:44	-133.508	43.824	0	1100.10	0	3.2470	0	34.5070	4	27.476	0	1088.407	0	15.1	4	4.7	4	-1E+10	1	-1E+10	1	-1E+10	1	-1E+10	1	-1E+10	1	-1E+10	1
4901784	87	C	11/21/2017	10:44	-133.508	43.824	0	1104.50	0	3.2370	0	34.5080	4	27.478	0	1092.749	0	15.2	4	4.7	4	-1E+10	1	-1E+10	1	-1E+10	1	-1E+10	1	-1E+10	1	-1E+10	1
4901784	87	C	11/21/2017	10:44	-133.508	43.824	0	1109.90	0	3.2240	0	34.5090	4	27.480	0	1098.078	0	15.3	4	4.8	4	-1E+10	1	-1E+10	1	-1E+10	1	-1E+10	1	-1E+10	1	-1E+10	1
4901784	87	C	11/21/2017	10:44	-133.508	43.824	0	1115.30	0	3.2100	0	34.5110	4	27.483	0	1103.406	0	15.4	4	4.8	4	-1E+10	1	-1E+10	1	-1E+10	1	-1E+10	1	-1E+10	1	-1E+10	1
4901784	87	C	11/21/2017	10:44	-133.508	43.824	0	1119.90	0	3.2000	0	34.5130	4	27.485	0	1107.945	0	15.5	4	4.8	4	-1E+10	1	-1E+10	1	-1E+10	1	-1E+10	1	-1E+10	1	-1E+10	1
4901784	87	C	11/21/2017	10:44	-133.508	43.824	0	1124.50	0	3.1910	0	34.5140	4	27.487	0	1112.483	0	15.5	4	4.8	4	-1E+10	1	-1E+10	1	-1E+10	1	-1E+10	1	-1E+10	1	-1E+10	1
4901784	87	C	11/21/2017	10:44	-133.508	43.824	0	1130.00	0	3.1780	0	34.5160	4	27.490	0	1117.910	0	15.5	4	4.8	4	-1E+10	1	-1E+10	1	-1E+10	1	-1E+10	1	-1E+10	1	-1E+10	1
4901784	87	C	11/21/2017	10:44	-133.508	43.824	0	1135.10	0	3.1620	0	34.5160	4	27.491	0	1122.942	0	15.5	4	4.8	4	-1E+10	1	-1E+10	1	-1E+10	1	-1E+10	1	-1E+10	1	-1E+10	1
4901784	87	C	11/21/2017	10:44	-133.508	43.824	0	1140.00	0	3.1550	0	34.5170	4	27.493	0	1127.776	0	15.6	4	4.8	4	-1E+10	1	-1E+10	1	-1E+10	1	-1E+10	1	-1E+10	1	-1E+10	1
4901784	87	C	11/21/2017	10:44	-133.508	43.824	0	1145.70	0	3.1510	0	34.5180	4	27.494	0	1133.400	0	15.7	4	4.9	4	-1E+10	1	-1E+10	1	-1E+10	1	-1E+10	1	-1E+10	1	-1E+10	1
4901784	87	C	11/21/2017	10:44	-133.508	43.824	0	1150.60	0	3.1500	0	34.5180	4	27.494	0	1138.234	0	15.7	4	4.9	4	-1E+10	1	-1E+10	1	-1E+10	1	-1E+10	1	-1E+10	1	-1E+10	1
4901784	87	C	11/21/2017	10:44	-133.508	43.824	0	1155.40	0	3.1430	0	34.5190	4	27.496	0	1142.969	0	15.8	4	4.9	4	-1E+10	1	-1E+10	1	-1E+10	1	-1E+10	1	-1E+10	1	-1E+10	1
4901784	87	C	11/21/2017	10:44	-133.508	43.824	0	1160.40	0	3.1310	0	34.5200	4	27.497	0	1147.902	0	15.9	4	4.9	4	-1E+10	1	-1E+10	1	-1E+10	1	-1E+10	1	-1E+10	1	-1E+10	1
4901784	87	C	11/21/2017	10:44	-133.508	43.824	0	1165.30	0	3.1250	0	34.5230	4	27.500	0	1152.736	0	16.1	4	5.0	4	-1E+10	1	-1E+10	1	-1E+10	1	-1E+10	1	-1E+10	1	-1E+10	1
4901784	87	C	11/21/2017	10:44	-133.508	43.824	0	1170.30	0	3.1170	0	34.5250	4	27.503	0	1157.668	0	16.2	4	5.0	4	-1E+10	1	-1E+10	1	-1E+10	1	-1E+10	1	-1E+10	1	-1E+10	1
4901784	87	C	11/21/2017	10:44	-133.508	43.824	0	1175.30	0	3.1040	0	34.5270	4	27.506	0	1162.600	0	16.3	4	5.1	4	-1E+10	1	-1E+10	1	-1E+10	1	-1E+10	1	-1E+10	1	-1E+10	1
4901784	87	C	11/21/2017	10:44	-133.508	43.824	0	1179.70	0	3.0990	0	34.5270	4	27.506	0	1166.940	0	16.4	4	5.1	4	-1E+10	1	-1E+10	1	-1E+10	1	-1E+10	1	-1E+10	1	-1E+10	1
4901784	87	C	11/21/2017	10:44	-133.508	43.824	0	1184.20	0	3.0980	0	34.5260	4	27.505	0	1171.379	0	16.6	4	5.1	4	-1E+10	1	-1E+10	1	-1E+10	1	-1E+10	1	-1E+10	1	-1E+10	1
4901784	87	C	11/21/2017	10:44	-133.508	43.824	0	1189.40	0	3.0800	0	34.5280	4	27.509	0	1176.508	0	16.8	4	5.2	4	-1E+10	1	-1E+10	1	-1E+10	1	-1E+10	1	-1E+10	1	-1E+10	1
4901784	87	C	11/21/2017	10:44	-133.508	43.824	0	1194.90	0	3.0540	0	34.5310	4	27.513	0	1181.933	0	17.0	4	5.3	4	-1E+10	1	-1E+10	1	-1E+10	1	-1E+10	1	-1E+10	1	-1E+10	1
4901784	87	C	11/21/2017	10:44	-133.508	43.824	0	1200.50	0	3.0410	0	34.5330	4	27.516	0	1187.457	0	17.2	4	5.3	4	-1E+10	1	-1E+10	1	-1E+10	1	-1E+10	1	-1E+10	1	-1E+10	1
4901784	87	C	11/21/2017	10:44	-133.508	43.824	0	1205.10	0	3.0360	0	34.5350	4	27.518	0	1191.994	0	17.2	4	5.3	4	-1E+10	1	-1E+10	1	-1E+10	1	-1E+10	1	-1E+10	1	-1E+10	1
4901784	87	C	11/21/2017	10:44	-133.508	43.824	0	1209.80	0	3.0320	0	34.5340	4	27.518	0	1196.629	0	17.2	4	5.3	4	-1E+10	1	-1E+10	1	-1E+10	1	-1E+10	1	-1E+10	1	-1E+10	1
4901784	87	C	11/21/2017	10:44	-133.508	43.824	0	1215.40	0	3.0270	0	34.5350	4	27.519	0	1202.152	0	17.3	4	5.3	4	-1E+10	1	-1E+10	1	-1E+10	1	-1E+10	1	-1E+10	1	-1E+10	1
4901784	87	C	11/21/2017	10:44	-133.508	43.824	0	1220.20	0	3.0240	0	34.5360	4	27.520	0	1206.886	0	17.4	4	5.4	4	-1E+10	1	-1E+10	1	-1E+10	1	-1E+10	1	-1E+10	1	-1E+10	1
4901784	87	C	11/21/2017	10:44	-133.508	43.824	0	1225.00	0	3.0200	0	34.5370	4	27.522	0	1211.620	0	17.5	4	5.4	4	-1E+10	1	-1E+10	1	-1E+10	1	-1E+10	1	-1E+10	1	-1E+10	1
4901784	87	C	11/21/2017	10:44	-133.508	43.824	0	1229.70	0	3.0100	0	34.5380	4	27.523	0	1216.255	0	17.6	4	5.4	4	-1E+10	1	-1E+10	1	-1E+10	1	-1E+10	1	-1E+10	1	-1E+10	1
4901784	87	C	11/21/2017	10:44	-133.508	43.824	0	1234.50	0	3.0060	0	34.5400	4	27.525	0	1220.989	0	17.7	4	5.5	4	-1E+10	1	-1E+10	1	-1E+10	1	-1E+10	1	-1E+10	1	-1E+10	1
4901784	87	C	11/21/2017	10:44	-133.508	43.824	0	1240.30	0	2.9980	0	34.5400	4	27.526	0	1226.708	0	17.9	4	5.5	4	-1E+10	1	-1E+10	1	-1E+10	1	-1E+10	1	-1E+10	1	-1E+10	1
4901784	87	C	11/21/2017	10:44	-133.508	43.824	0	1245.10	0	2.9900	0	34.5410	4	27.528	0	1231.441	0	18.1	4	5.6	4	-1E+10	1	-1E+10	1	-1E+10	1	-1E+10	1	-1E+10	1	-1E+10	1
4901784	87	C	11/21/2017	10:44	-133.508	43.824	0	1250.00	0	2.9810	0	34.5420	4	27.529	0	1236.273	0	18.3	4	5.6	4	-1E+10	1	-1E+10	1	-1E+10	1	-1E+10	1	-1E+10	1	-1E+10	1
4901784	87	C	11/21/2017	10:44	-133.508	43.824	0	1254.90	0	2.9740	0	34.5430	4	27.531	0	1241.105	0	18.4	4	5.7	4	-1E+10	1	-1E+10	1	-1E+10	1	-1E+10	1	-1E+10	1	-1E+10	1
4901784	87	C	11/21/2017	10:44	-133.508	43.824	0	1259.80	0	2.9670	0	34.5440	4	27.532	0	1245.937	0	18.6	4	5.7	4	-1E+10	1	-1E+10	1	-1E+10	1	-1E+10	1	-1E+10	1	-1E+10	1
4901784	87	C	11/21/2017	10:44	-133.508	43.824	0	1264.80	0	2.9590	0	34.5460	4	27.534	0	1250.867	0	18.7	4	5.8	4	-1E+10	1	-1E+10	1	-1E+10	1	-1E+10	1	-1E+10	1	-1E+10	1
4901784	87	C	11/21/2017	10:44	-133.508	43.824	0	1269.80	0	2.9570	0	34.5460	4	27.535	0	1255.797	0	18.8	4	5.8	4	-1E+10	1	-1E+10	1	-1E+10	1	-1E+10	1	-1E+10	1	-1E+10	1
4901784	87	C	11/21/2017	10:44	-133.508	43.824	0	1274.80	0	2.9530	0	34.5470	4	27.536	0	1260.727	0	19.0	4	5.9	4	-1E+10	1	-1E+10	1	-1E+10	1	-1E+10	1	-1E+10	1	-1E+10	1
4901784	87	C	11/21/2017	10:44	-133.508	43.824	0	1279.90	0	2.9380	0	34.5490	4	27.539	0	1265.755	0	19.2	4	5.9	4	-1E+10	1	-1E+10	1	-1E+10	1	-1E+10	1	-1E+10	1	-1E+10	1
4901784	87	C	11/21/2017	10:44	-133.508	43.824	0	1284.90	0	2.9330	0	34.5500	4	27.540	0	1270.685	0	19.3	4	5.9	4	-1E+10	1	-1E+10	1	-1E+10	1	-1E+10	1	-1E+10	1	-1E+10	1
4901784	87	C	11/21/2017	10:44	-133.508	43.824	0	1290.00	0	2.9290	0	34.5500	4	27.540	0	1275.713	0	19.4	4	6.0	4	-1E+10	1	-1E+10	1	-1E+10	1	-1E+10	1	-1E+10	1	-1E+10	1
4901784	87	C	11/21/2017	10:44	-133.508	43.824	0	1295.10	0	2.9240	0	34.5510	4	27.542	0	1280.741	0	19.5	4	6.0	4	-1E+10	1	-1E+10	1	-1E+10	1	-1E+10	1	-1E+10	1	-1E+10	1
4901784	87	C	11/21/2017	10:44	-133.508	43.824	0	1300.20	0	2.9150	0	34.5520	4	27.543	0	1285.769	0	19.7	4	6.1	4	-1E+10	1	-1E+10	1	-1E+10	1	-1E+10	1	-1E+10	1	-1E+10	1
4901784	87	C	11/21/2017	10:44	-133.508	43.824	0	1305.30	0	2.9110	0	34.5520	4	27.544	0	1290.797	0	19.9	4	6.1	4	-1E+10	1	-1E+10	1	-1E+10	1	-1E+10	1	-1E+10	1	-1E+10	1
4901784	87	C	11/21/2017	10:44	-133.508	43.824	0	1310.40	0	2.8990	0	34.5540	4	27.546	0	1295.824	0	20.2	4	6.2	4	-1E+10	1	-1E+10	1	-1E+10	1	-1E+10	1	-1E+10	1	-1E+10	1
4901784	87	C	11/21/2017	10:44	-133.508	43.824	0	1315.30	0	2.8870	0	34.5570	4	27.550	0	1300.655	0	20.5	4	6.3	4	-1E+10	1	-1E+10	1	-1E+10	1	-1E+10	1	-1E+10	1	-1E+10	1
4901784	87	C	11/21/2017	10:44	-133.508	43.824	0	1320.00	0	2.8790	0	34.5580	4	27.552	0	1305.288	0	20.6	4	6.4	4	-1E+10	1	-1E+10	1	-1E+10	1	-1E+10	1	-1E+10	1	-1E+10	1
4901784	87	C	11/21/2017	10:44	-133.508	43.824	0	1324.90	0	2.8770	0	34.5590	4	27.553	0	1310.118	0	20.8	4	6.4	4	-1E+10	1	-1E+10	1	-1E+10	1	-1E+10	1	-1E+10	1	-1E+10	1
4901784	87	C	11/21/2017	10:44	-133.508	43.824	0	1329.70	0	2.8680	0	34.5600	4	27.554	0	1314.849	0	21.0	4	6.5	4	-1E+10	1	-1E+10	1	-1E+10	1	-1E+10	1	-1E+10	1	-1E+10	1
4901784	87	C	11/21/2017	10:44	-133.508	43.824	0	1334.60	0	2.8580	0	34.5620	4	27.557	0	1319.679	0	21.3	4	6.6	4	-1E+10	1	-1E+10	1	-1E+10	1	-1E+10	1	-1E+10	1	-1E+10	1
4901784	87	C	11/21/2017	10:44	-133.508	43.824	0	1339.50	0	2.8480	0	34.5630	4	27.558	0	1324.509	0	21.6	4	6.6	4	-1E+10	1	-1E+10	1	-1E+10	1	-1E+10	1	-1E+10	1	-1E+10	1
4901784	87	C	11/21/2017	10:44	-133.508	43.824	0	1344.40	0	2.8380	0	34.5650	4	27.561	0	1329.339	0	21.9	4	6.7	4	-1E+10	1	-1E+10	1	-1E+10	1	-1E+10	1	-1E+10	1	-1E+10	1
4901784	87	C	11/21/2017	10:44	-133.508	43.824	0	1349.30	0	2.8290	0	34.5670	4	27.563	0	1334.169	0	22.2	4	6.8	4	-1E+10	1	-1E+10	1	-1E+10	1	-1E+10	1	-1E+10	1	-1E+10	1
4901784	87	C	11/21/2017	10:44	-133.508	43.824	0	1355.00	0	2.8210	0	34.5680	4	27.565	0	1339.787	0	22.4	4	6.9	4	-1E+10	1	-1E+10	1	-1E+10	1	-1E+10	1	-1E+10	1	-1E+10	1
4901784	87	C	11/21/2017	10:44	-133.508	43.824	0	1360.80	0	2.8160	0	34.5690	4	27.566	0	1345.503	0	22.5	4	6.9	4	-1E+10	1	-1E+10	1	-1E+10	1	-1E+10	1	-1E+10	1	-1E+10	1
4901784	87	C	11/21/2017	10:44	-133.508	43.824	0	1365.80	0	2.8120	0	34.5700	4	27.567	0	1350.431	0	22.6	4	7.0	4	-1E+10	1	-1E+10	1	-1E+10	1	-1E+10	1	-1E+10	1	-1E+10	1
4901784	87	C	11/21/2017	10:44	-133.508	43.824	0	1370.00	0	2.8080	0	34.5700	4	27.568	0	1354.570	0	22.7	4	7.0	4	-1E+10	1	-1E+10	1	-1E+10	1	-1E+10	1	-1E+10	1	-1E+10	1
4901784	87	C	11/21/2017	10:44	-133.508	43.824	0	1375.00	0	2.7970	0	34.5710	4	27.569	0	1359.498	0	22.9	4	7.1	4	-1E+10	1	-1E+10	1	-1E+10	1	-1E+10	1	-1E+10	1	-1E+10	1
4901784	87	C	11/21/2017	10:44	-133.508	43.824	0	1380.80	0	2.7880	0	34.5720	4	27.571	0	1365.213	0	23.1	4	7.1	4	-1E+10	1	-1E+10	1	-1E+10	1	-1E+10	1	-1E+10	1	-1E+10	1
4901784	87	C	11/21/2017	10:44	-133.508	43.824	0	1385.00	0	2.7830	0	34.5720	4	27.572	0	1369.352	0	23.2	4	7.1	4	-1E+10	1	-1E+10	1	-1E+10	1	-1E+10	1	-1E+10	1	-1E+10	1
4901784	87	C	11/21/2017	10:44	-133.508	43.824	0	1389.20	0	2.7710	0	34.5730	4	27.573	0	1373.491	0	23.3	4	7.2	4	-1E+10	1	-1E+10	1	-1E+10	1	-1E+10	1	-1E+10	1	-1E+10	1
4901784	87	C	11/21/2017	10:44	-133.508	43.824	0	1394.20	0	2.7560	0	34.5740	4	27.576	0	1378.418	0	23.4	4	7.2	4	-1E+10	1	-1E+10	1	-1E+10	1	-1E+10	1	-1E+10	1	-1E+10	1
4901784	87	C	11/21/2017	10:44	-133.508	43.824	0	1399.30	0	2.7440	0	34.5740	4	27.577	0	1383.444	0	23.4	4	7.2	4	-1E+10	1	-1E+10	1	-1E+10	1	-1E+10	1	-1E+10	1	-1E+10	1
4901784	87	C	11/21/2017	10:44	-133.508	43.824	0	1404.40	0	2.7310	0	34.5740	4	27.578	0	1388.469	0	23.5	4	7.2	4	-1E+10	1	-1E+10	1	-1E+10	1	-1E+10	1	-1E+10	1	-1E+10	1
4901784	87	C	11/21/2017	10:44	-133.508	43.824	0	1409.50	0	2.7200	0	34.5750	4	27.580	0	1393.495	0	23.7	4	7.3	4	-1E+10	1	-1E+10	1	-1E+10	1	-1E+10	1	-1E+10	1	-1E+10	1
4901784	87	C	11/21/2017	10:44	-133.508	43.824	0	1414.60	0	2.7060	0	34.5760	4	27.582	0	1398.520	0	23.8	4	7.3	4	-1E+10	1	-1E+10	1	-1E+10	1	-1E+10	1	-1E+10	1	-1E+10	1
4901784	87	C	11/21/2017	10:44	-133.508	43.824	0	1419.70	0	2.6990	0	34.5780	4	27.584	0	1403.545	0	23.9	4	7.3	4	-1E+10	1	-1E+10	1	-1E+10	1	-1E+10	1	-1E+10	1	-1E+10	1
4901784	87	C	11/21/2017	10:44	-133.508	43.824	0	1424.80	0	2.6920	0	34.5790	4	27.585	0	1408.570	0	24.1	4	7.4	4	-1E+10	1	-1E+10	1	-1E+10	1	-1E+10	1	-1E+10	1	-1E+10	1
4901784	87	C	11/21/2017	10:44	-133.508	43.824	0	1430.00	0	2.6810	0	34.5800	4	27.587	0	1413.693	0	24.3	4	7.5	4	-1E+10	1	-1E+10	1	-1E+10	1	-1E+10	1	-1E+10	1	-1E+10	1
4901784	87	C	11/21/2017	10:44	-133.508	43.824	0	1435.20	0	2.6700	0	34.5800	4	27.588	0	1418.816	0	24.5	4	7.5	4	-1E+10	1	-1E+10	1	-1E+10	1	-1E+10	1	-1E+10	1	-1E+10	1
4901784	87	C	11/21/2017	10:44	-133.508	43.824	0	1440.40	0	2.6570	0	34.5790	4	27.588	0	1423.940	0	24.7	4	7.6	4	-1E+10	1	-1E+10	1	-1E+10	1	-1E+10	1	-1E+10	1	-1E+10	1
4901784	87	C	11/21/2017	10:44	-133.508	43.824	0	1445.50	0	2.6420	0	34.5800	4	27.590	0	1428.964	0	24.8	4	7.6	4	-1E+10	1	-1E+10	1	-1E+10	1	-1E+10	1	-1E+10	1	-1E+10	1
4901784	87	C	11/21/2017	10:44	-133.508	43.824	0	1450.70	0	2.6340	0	34.5800	4	27.591	0	1434.087	0	24.9	4	7.6	4	-1E+10	1	-1E+10	1	-1E+10	1	-1E+10	1	-1E+10	1	-1E+10	1
4901784	87	C	11/21/2017	10:44	-133.508	43.824	0	1455.10	0	2.6310	0	34.5810	4	27.592	0	1438.422	0	25.0	4	7.7	4	-1E+10	1	-1E+10	1	-1E+10	1	-1E+10	1	-1E+10	1	-1E+10	1
4901784	87	C	11/21/2017	10:44	-133.508	43.824	0	1459.50	0	2.6270	0	34.5810	4	27.593	0	1442.756	0	25.1	4	7.7	4	-1E+10	1	-1E+10	1	-1E+10	1	-1E+10	1	-1E+10	1	-1E+10	1
4901784	87	C	11/21/2017	10:44	-133.508	43.824	0	1465.00	0	2.6210	0	34.5810	4	27.593	0	1448.174	0	25.4	4	7.8	4	-1E+10	1	-1E+10	1	-1E+10	1	-1E+10	1	-1E+10	1	-1E+10	1
4901784	87	C	11/21/2017	10:44	-133.508	43.824	0	1470.30	0	2.6050	0	34.5830	4	27.596	0	1453.395	0	25.7	4	7.9	4	-1E+10	1	-1E+10	1	-1E+10	1	-1E+10	1	-1E+10	1	-1E+10	1
4901784	87	C	11/21/2017	10:44	-133.508	43.824	0	1475.70	0	2.5900	0	34.5840	4	27.598	0	1458.714	0	25.9	4	7.9	4	-1E+10	1	-1E+10	1	-1E+10	1	-1E+10	1	-1E+10	1	-1E+10	1
4901784	87	C	11/21/2017	10:44	-133.508	43.824	0	1480.10	0	2.5860	0	34.5840	4	27.599	0	1463.048	0	26.1	4	8.0	4	-1E+10	1	-1E+10	1	-1E+10	1	-1E+10	1	-1E+10	1	-1E+10	1
4901784	87	C	11/21/2017	10:44	-133.508	43.824	0	1484.60	0	2.5780	0	34.5850	4	27.600	0	1467.481	0	26.4	4	8.1	4	-1E+10	1	-1E+10	1	-1E+10	1	-1E+10	1	-1E+10	1	-1E+10	1
4901784	87	C	11/21/2017	10:44	-133.508	43.824	0	1490.00	0	2.5610	0	34.5890	4	27.605	0	1472.800	0	26.7	4	8.2	4	-1E+10	1	-1E+10	1	-1E+10	1	-1E+10	1	-1E+10	1	-1E+10	1
4901784	87	C	11/21/2017	10:44	-133.508	43.824	0	1495.40	0	2.5480	0	34.5910	4	27.608	0	1478.119	0	27.1	4	8.3	4	-1E+10	1	-1E+10	1	-1E+10	1	-1E+10	1	-1E+10	1	-1E+10	1
4901784	87	C	11/21/2017	10:44	-133.508	43.824	0	1500.00	0	2.5370	0	34.5930	4	27.610	0	1482.649	0	27.4	4	8.4	4	-1E+10	1	-1E+10	1	-1E+10	1	-1E+10	1	-1E+10	1	-1E+10	1
4901784	87	C	11/21/2017	10:44	-133.508	43.824	0	1504.50	0	2.5270	0	34.5940	4	27.612	0	1487.082	0	27.6	4	8.4	4	-1E+10	1	-1E+10	1	-1E+10	1	-1E+10	1	-1E+10	1	-1E+10	1
4901784	87	C	11/21/2017	10:44	-133.508	43.824	0	1509.90	0	2.5220	0	34.5940	4	27.612	0	1492.400	0	27.8	4	8.5	4	-1E+10	1	-1E+10	1	-1E+10	1	-1E+10	1	-1E+10	1	-1E+10	1
4901784	87	C	11/21/2017	10:44	-133.508	43.824	0	1515.30	0	2.5130	0	34.5950	4	27.614	0	1497.718	0	28.1	4	8.6	4	-1E+10	1	-1E+10	1	-1E+10	1	-1E+10	1	-1E+10	1	-1E+10	1
4901784	87	C	11/21/2017	10:44	-133.508	43.824	0	1519.80	0	2.5070	0	34.5950	4	27.614	0	1502.150	0	28.4	4	8.7	4	-1E+10	1	-1E+10	1	-1E+10	1	-1E+10	1	-1E+10	1	-1E+10	1
4901784	87	C	11/21/2017	10:44	-133.508	43.824	0	1524.30	0	2.4930	0	34.5940	4	27.615	0	1506.582	0	28.8	4	8.8	4	-1E+10	1	-1E+10	1	-1E+10	1	-1E+10	1	-1E+10	1	-1E+10	1
4901784	87	C	11/21/2017	10:44	-133.508	43.824	0	1529.80	0	2.4740	0	34.5960	4	27.618	0	1511.998	0	29.3	4	9.0	4	-1E+10	1	-1E+10	1	-1E+10	1	-1E+10	1	-1E+10	1	-1E+10	1
4901784	87	C	11/21/2017	10:44	-133.508	43.824	0	1535.30	0	2.4620	0	34.5970	4	27.620	0	1517.415	0	29.7	4	9.1	4	-1E+10	1	-1E+10	1	-1E+10	1	-1E+10	1	-1E+10	1	-1E+10	1
4901784	87	C	11/21/2017	10:44	-133.508	43.824	0	1539.80	0	2.4540	0	34.5980	4	27.621	0	1521.846	0	29.9	4	9.1	4	-1E+10	1	-1E+10	1	-1E+10	1	-1E+10	1	-1E+10	1	-1E+10	1
4901784	87	C	11/21/2017	10:44	-133.508	43.824	0	1544.40	0	2.4470	0	34.5990	4	27.623	0	1526.376	0	30.1	4	9.2	4	-1E+10	1	-1E+10	1	-1E+10	1	-1E+10	1	-1E+10	1	-1E+10	1
4901784	87	C	11/21/2017	10:44	-133.508	43.824	0	1549.90	0	2.4400	0	34.5990	4	27.623	0	1531.792	0	30.5	4	9.3	4	-1E+10	1	-1E+10	1	-1E+10	1	-1E+10	1	-1E+10	1	-1E+10	1
4901784	87	C	11/21/2017	10:44	-133.508	43.824	0	1555.30	0	2.4280	0	34.6010	4	27.626	0	1537.109	0	30.8	4	9.4	4	-1E+10	1	-1E+10	1	-1E+10	1	-1E+10	1	-1E+10	1	-1E+10	1
4901784	87	C	11/21/2017	10:44	-133.508	43.824	0	1560.60	0	2.4220	0	34.6020	4	27.627	0	1542.328	0	31.0	4	9.4	4	-1E+10	1	-1E+10	1	-1E+10	1	-1E+10	1	-1E+10	1	-1E+10	1
4901784	87	C	11/21/2017	10:44	-133.508	43.824	0	1565.50	0	2.4150	0	34.6020	4	27.628	0	1547.152	0	31.3	4	9.5	4	-1E+10	1	-1E+10	1	-1E+10	1	-1E+10	1	-1E+10	1	-1E+10	1
4901784	87	C	11/21/2017	10:44	-133.508	43.824	0	1570.40	0	2.4100	0	34.6030	4	27.629	0	1551.977	0	31.6	4	9.6	4	-1E+10	1	-1E+10	1	-1E+10	1	-1E+10	1	-1E+10	1	-1E+10	1
4901784	87	C	11/21/2017	10:44	-133.508	43.824	0	1575.20	0	2.3960	0	34.6040	4	27.631	0	1556.703	0	32.0	4	9.8	4	-1E+10	1	-1E+10	1	-1E+10	1	-1E+10	1	-1E+10	1	-1E+10	1
4901784	87	C	11/21/2017	10:44	-133.508	43.824	0	1580.20	0	2.3890	0	34.6060	4	27.633	0	1561.626	0	32.4	4	9.9	4	-1E+10	1	-1E+10	1	-1E+10	1	-1E+10	1	-1E+10	1	-1E+10	1
4901784	87	C	11/21/2017	10:44	-133.508	43.824	0	1585.00	0	2.3800	0	34.6060	4	27.634	0	1566.352	0	32.8	4	10.0	4	-1E+10	1	-1E+10	1	-1E+10	1	-1E+10	1	-1E+10	1	-1E+10	1
4901784	87	C	11/21/2017	10:44	-133.508	43.824	0	1590.00	0	2.3650	0	34.6080	4	27.637	0	1571.274	0	33.3	4	10.1	4	-1E+10	1	-1E+10	1	-1E+10	1	-1E+10	1	-1E+10	1	-1E+10	1
4901784	87	C	11/21/2017	10:44	-133.508	43.824	0	1594.90	0	2.3540	0	34.6090	4	27.639	0	1576.098	0	33.7	4	10.3	4	-1E+10	1	-1E+10	1	-1E+10	1	-1E+10	1	-1E+10	1	-1E+10	1
4901784	87	C	11/21/2017	10:44	-133.508	43.824	0	1599.90	0	2.3450	0	34.6110	4	27.641	0	1581.021	0	34.1	4	10.4	4	-1E+10	1	-1E+10	1	-1E+10	1	-1E+10	1	-1E+10	1	-1E+10	1
4901784	87	C	11/21/2017	10:44	-133.508	43.824	0	1605.00	0	2.3370	0	34.6140	4	27.644	0	1586.041	0	34.5	4	10.5	4	-1E+10	1	-1E+10	1	-1E+10	1	-1E+10	1	-1E+10	1	-1E+10	1
4901784	87	C	11/21/2017	10:44	-133.508	43.824	0	1610.00	0	2.3290	0	34.6150	4	27.646	0	1590.964	0	34.8	4	10.6	4	-1E+10	1	-1E+10	1	-1E+10	1	-1E+10	1	-1E+10	1	-1E+10	1
4901784	87	C	11/21/2017	10:44	-133.508	43.824	0	1615.10	0	2.3250	0	34.6160	4	27.647	0	1595.984	0	35.2	4	10.7	4	-1E+10	1	-1E+10	1	-1E+10	1	-1E+10	1	-1E+10	1	-1E+10	1
4901784	87	C	11/21/2017	10:44	-133.508	43.824	0	1620.20	0	2.3130	0	34.6180	4	27.649	0	1601.004	0	35.6	4	10.8	4	-1E+10	1	-1E+10	1	-1E+10	1	-1E+10	1	-1E+10	1	-1E+10	1
4901784	87	C	11/21/2017	10:44	-133.508	43.824	0	1625.30	0	2.3080	0	34.6190	4	27.651	0	1606.025	0	35.9	4	10.9	4	-1E+10	1	-1E+10	1	-1E+10	1	-1E+10	1	-1E+10	1	-1E+10	1
4901784	87	C	11/21/2017	10:44	-133.508	43.824	0	1630.50	0	2.2970	0	34.6200	4	27.652	0	1611.143	0	36.3	4	11.0	4	-1E+10	1	-1E+10	1	-1E+10	1	-1E+10	1	-1E+10	1	-1E+10	1
4901784	87	C	11/21/2017	10:44	-133.508	43.824	0	1635.70	0	2.2880	0	34.6210	4	27.654	0	1616.262	0	36.8	4	11.2	4	-1E+10	1	-1E+10	1	-1E+10	1	-1E+10	1	-1E+10	1	-1E+10	1
4901784	87	C	11/21/2017	10:44	-133.508	43.824	0	1640.00	0	2.2780	0	34.6230	4	27.656	0	1620.494	0	37.0	4	11.2	4	-1E+10	1	-1E+10	1	-1E+10	1	-1E+10	1	-1E+10	1	-1E+10	1
4901784	87	C	11/21/2017	10:44	-133.508	43.824	0	1644.20	0	2.2770	0	34.6230	4	27.656	0	1624.628	0	37.1	4	11.3	4	-1E+10	1	-1E+10	1	-1E+10	1	-1E+10	1	-1E+10	1	-1E+10	1
4901784	87	C	11/21/2017	10:44	-133.508	43.824	0	1649.50	0	2.2760	0	34.6230	4	27.656	0	1629.845	0	37.3	4	11.3	4	-1E+10	1	-1E+10	1	-1E+10	1	-1E+10	1	-1E+10	1	-1E+10	1
4901784	87	C	11/21/2017	10:44	-133.508	43.824	0	1654.80	0	2.2690	0	34.6240	4	27.658	0	1635.061	0	37.7	4	11.5	4	-1E+10	1	-1E+10	1	-1E+10	1	-1E+10	1	-1E+10	1	-1E+10	1
4901784	87	C	11/21/2017	10:44	-133.508	43.824	0	1660.00	0	2.2600	0	34.6260	4	27.660	0	1640.179	0	38.1	4	11.6	4	-1E+10	1	-1E+10	1	-1E+10	1	-1E+10	1	-1E+10	1	-1E+10	1
4901784	87	C	11/21/2017	10:44	-133.508	43.824	0	1665.30	0	2.2530	0	34.6270	4	27.662	0	1645.395	0	38.4	4	11.7	4	-1E+10	1	-1E+10	1	-1E+10	1	-1E+10	1	-1E+10	1	-1E+10	1
4901784	87	C	11/21/2017	10:44	-133.508	43.824	0	1670.60	0	2.2470	0	34.6270	4	27.662	0	1650.611	0	38.7	4	11.7	4	-1E+10	1	-1E+10	1	-1E+10	1	-1E+10	1	-1E+10	1	-1E+10	1
4901784	87	C	11/21/2017	10:44	-133.508	43.824	0	1675.00	0	2.2410	0	34.6280	4	27.663	0	1654.941	0	38.9	4	11.8	4	-1E+10	1	-1E+10	1	-1E+10	1	-1E+10	1	-1E+10	1	-1E+10	1
4901784	87	C	11/21/2017	10:44	-133.508	43.824	0	1679.30	0	2.2380	0	34.6260	4	27.662	0	1659.173	0	39.1	4	11.9	4	-1E+10	1	-1E+10	1	-1E+10	1	-1E+10	1	-1E+10	1	-1E+10	1
4901784	87	C	11/21/2017	10:44	-133.508	43.824	0	1684.50	0	2.2340	0	34.6260	4	27.662	0	1664.290	0	39.4	4	11.9	4	-1E+10	1	-1E+10	1	-1E+10	1	-1E+10	1	-1E+10	1	-1E+10	1
4901784	87	C	11/21/2017	10:44	-133.508	43.824	0	1689.60	0	2.2290	0	34.6270	4	27.664	0	1669.309	0	39.7	4	12.1	4	-1E+10	1	-1E+10	1	-1E+10	1	-1E+10	1	-1E+10	1	-1E+10	1
4901784	87	C	11/21/2017	10:44	-133.508	43.824	0	1694.90	0	2.2220	0	34.6280	4	27.665	0	1674.524	0	40.1	4	12.2	4	-1E+10	1	-1E+10	1	-1E+10	1	-1E+10	1	-1E+10	1	-1E+10	1
4901784	87	C	11/21/2017	10:44	-133.508	43.824	0	1700.30	0	2.2150	0	34.6300	4	27.667	0	1679.838	0	40.6	4	12.3	4	-1E+10	1	-1E+10	1	-1E+10	1	-1E+10	1	-1E+10	1	-1E+10	1
4901784	87	C	11/21/2017	10:44	-133.508	43.824	0	1705.70	0	2.2090	0	34.6310	4	27.669	0	1685.152	0	41.0	4	12.4	4	-1E+10	1	-1E+10	1	-1E+10	1	-1E+10	1	-1E+10	1	-1E+10	1
4901784	87	C	11/21/2017	10:44	-133.508	43.824	0	1710.20	0	2.2060	0	34.6310	4	27.669	0	1689.580	0	41.4	4	12.6	4	-1E+10	1	-1E+10	1	-1E+10	1	-1E+10	1	-1E+10	1	-1E+10	1
4901784	87	C	11/21/2017	10:44	-133.508	43.824	0	1714.80	0	2.2030	0	34.6330	4	27.671	0	1694.106	0	41.9	4	12.7	4	-1E+10	1	-1E+10	1	-1E+10	1	-1E+10	1	-1E+10	1	-1E+10	1
4901784	87	C	11/21/2017	10:44	-133.508	43.824	0	1720.20	0	2.2040	0	34.6340	4	27.671	0	1699.419	0	42.3	4	12.8	4	-1E+10	1	-1E+10	1	-1E+10	1	-1E+10	1	-1E+10	1	-1E+10	1
4901784	87	C	11/21/2017	10:44	-133.508	43.824	0	1725.60	0	2.2030	0	34.6350	4	27.672	0	1704.732	0	42.5	4	12.9	4	-1E+10	1	-1E+10	1	-1E+10	1	-1E+10	1	-1E+10	1	-1E+10	1
4901784	87	C	11/21/2017	10:44	-133.508	43.824	0	1730.40	0	2.1950	0	34.6350	4	27.673	0	1709.455	0	42.8	4	13.0	4	-1E+10	1	-1E+10	1	-1E+10	1	-1E+10	1	-1E+10	1	-1E+10	1
4901784	87	C	11/21/2017	10:44	-133.508	43.824	0	1735.30	0	2.1830	0	34.6380	4	27.676	0	1714.276	0	43.0	4	13.0	4	-1E+10	1	-1E+10	1	-1E+10	1	-1E+10	1	-1E+10	1	-1E+10	1
4901784	87	C	11/21/2017	10:44	-133.508	43.824	0	1740.40	0	2.1770	0	34.6400	4	27.679	0	1719.293	0	43.1	4	13.1	4	-1E+10	1	-1E+10	1	-1E+10	1	-1E+10	1	-1E+10	1	-1E+10	1
4901784	87	C	11/21/2017	10:44	-133.508	43.824	0	1745.30	0	2.1730	0	34.6400	4	27.679	0	1724.114	0	43.3	4	13.1	4	-1E+10	1	-1E+10	1	-1E+10	1	-1E+10	1	-1E+10	1	-1E+10	1
4901784	87	C	11/21/2017	10:44	-133.508	43.824	0	1750.40	0	2.1690	0	34.6400	4	27.679	0	1729.131	0	43.7	4	13.2	4	-1E+10	1	-1E+10	1	-1E+10	1	-1E+10	1	-1E+10	1	-1E+10	1
4901784	87	C	11/21/2017	10:44	-133.508	43.824	0	1755.50	0	2.1610	0	34.6390	4	27.679	0	1734.148	0	44.0	4	13.3	4	-1E+10	1	-1E+10	1	-1E+10	1	-1E+10	1	-1E+10	1	-1E+10	1
4901784	87	C	11/21/2017	10:44	-133.508	43.824	0	1760.60	0	2.1540	0	34.6400	4	27.681	0	1739.165	0	44.3	4	13.4	4	-1E+10	1	-1E+10	1	-1E+10	1	-1E+10	1	-1E+10	1	-1E+10	1
4901784	87	C	11/21/2017	10:44	-133.508	43.824	0	1764.90	0	2.1470	0	34.6400	4	27.681	0	1743.396	0	44.8	4	13.6	4	-1E+10	1	-1E+10	1	-1E+10	1	-1E+10	1	-1E+10	1	-1E+10	1
4901784	87	C	11/21/2017	10:44	-133.508	43.824	0	1769.30	0	2.1380	0	34.6420	4	27.683	0	1747.724	0	45.2	4	13.7	4	-1E+10	1	-1E+10	1	-1E+10	1	-1E+10	1	-1E+10	1	-1E+10	1
4901784	87	C	11/21/2017	10:44	-133.508	43.824	0	1774.60	0	2.1340	0	34.6430	4	27.685	0	1752.937	0	45.5	4	13.8	4	-1E+10	1	-1E+10	1	-1E+10	1	-1E+10	1	-1E+10	1	-1E+10	1
4901784	87	C	11/21/2017	10:44	-133.508	43.824	0	1779.80	0	2.1320	0	34.6430	4	27.685	0	1758.052	0	45.8	4	13.9	4	-1E+10	1	-1E+10	1	-1E+10	1	-1E+10	1	-1E+10	1	-1E+10	1
4901784	87	C	11/21/2017	10:44	-133.508	43.824	0	1785.10	0	2.1230	0	34.6440	4	27.686	0	1763.265	0	46.3	4	14.0	4	-1E+10	1	-1E+10	1	-1E+10	1	-1E+10	1	-1E+10	1	-1E+10	1
4901784	87	C	11/21/2017	10:44	-133.508	43.824	0	1790.50	0	2.1170	0	34.6460	4	27.688	0	1768.577	0	46.8	4	14.2	4	-1E+10	1	-1E+10	1	-1E+10	1	-1E+10	1	-1E+10	1	-1E+10	1
4901784	87	C	11/21/2017	10:44	-133.508	43.824	0	1795.00	0	2.1130	0	34.6470	4	27.690	0	1773.003	0	47.2	4	14.3	4	-1E+10	1	-1E+10	1	-1E+10	1	-1E+10	1	-1E+10	1	-1E+10	1
4901784	87	C	11/21/2017	10:44	-133.508	43.824	0	1799.50	0	2.1070	0	34.6480	4	27.691	0	1777.429	0	47.8	4	14.5	4	-1E+10	1	-1E+10	1	-1E+10	1	-1E+10	1	-1E+10	1	-1E+10	1
4901784	87	C	11/21/2017	10:44	-133.508	43.824	0	1804.90	0	2.1010	0	34.6510	4	27.694	0	1782.740	0	48.6	4	14.7	4	-1E+10	1	-1E+10	1	-1E+10	1	-1E+10	1	-1E+10	1	-1E+10	1
4901784	87	C	11/21/2017	10:44	-133.508	43.824	0	1810.40	0	2.0930	0	34.6510	4	27.694	0	1788.150	0	49.1	4	14.8	4	-1E+10	1	-1E+10	1	-1E+10	1	-1E+10	1	-1E+10	1	-1E+10	1
4901784	87	C	11/21/2017	10:44	-133.508	43.824	0	1815.00	0	2.0900	0	34.6510	4	27.695	0	1792.674	0	49.2	4	14.9	4	-1E+10	1	-1E+10	1	-1E+10	1	-1E+10	1	-1E+10	1	-1E+10	1
4901784	87	C	11/21/2017	10:44	-133.508	43.824	0	1819.60	0	2.0840	0	34.6510	4	27.695	0	1797.198	0	49.3	4	14.9	4	-1E+10	1	-1E+10	1	-1E+10	1	-1E+10	1	-1E+10	1	-1E+10	1
4901784	87	C	11/21/2017	10:44	-133.508	43.824	0	1825.00	0	2.0750	0	34.6520	4	27.697	0	1802.508	0	49.4	4	14.9	4	-1E+10	1	-1E+10	1	-1E+10	1	-1E+10	1	-1E+10	1	-1E+10	1
4901784	87	C	11/21/2017	10:44	-133.508	43.824	0	1830.40	0	2.0700	0	34.6520	4	27.697	0	1807.819	0	49.8	4	15.1	4	-1E+10	1	-1E+10	1	-1E+10	1	-1E+10	1	-1E+10	1	-1E+10	1
4901784	87	C	11/21/2017	10:44	-133.508	43.824	0	1835.30	0	2.0640	0	34.6540	4	27.699	0	1812.638	0	50.2	4	15.2	4	-1E+10	1	-1E+10	1	-1E+10	1	-1E+10	1	-1E+10	1	-1E+10	1
4901784	87	C	11/21/2017	10:44	-133.508	43.824	0	1840.20	0	2.0590	0	34.6550	4	27.700	0	1817.456	0	50.6	4	15.3	4	-1E+10	1	-1E+10	1	-1E+10	1	-1E+10	1	-1E+10	1	-1E+10	1
4901784	87	C	11/21/2017	10:44	-133.508	43.824	0	1845.20	0	2.0600	0	34.6550	4	27.700	0	1822.373	0	50.9	4	15.4	4	-1E+10	1	-1E+10	1	-1E+10	1	-1E+10	1	-1E+10	1	-1E+10	1
4901784	87	C	11/21/2017	10:44	-133.508	43.824	0	1850.10	0	2.0580	0	34.6550	4	27.701	0	1827.191	0	51.2	4	15.5	4	-1E+10	1	-1E+10	1	-1E+10	1	-1E+10	1	-1E+10	1	-1E+10	1
4901784	87	C	11/21/2017	10:44	-133.508	43.824	0	1855.10	0	2.0530	0	34.6560	4	27.702	0	1832.108	0	51.8	4	15.6	4	-1E+10	1	-1E+10	1	-1E+10	1	-1E+10	1	-1E+10	1	-1E+10	1
4901784	87	C	11/21/2017	10:44	-133.508	43.824	0	1860.10	0	2.0460	0	34.6570	4	27.703	0	1837.024	0	52.1	4	15.7	4	-1E+10	1	-1E+10	1	-1E+10	1	-1E+10	1	-1E+10	1	-1E+10	1
4901784	87	C	11/21/2017	10:44	-133.508	43.824	0	1865.10	0	2.0370	0	34.6610	4	27.707	0	1841.940	0	52.4	4	15.8	4	-1E+10	1	-1E+10	1	-1E+10	1	-1E+10	1	-1E+10	1	-1E+10	1
4901784	87	C	11/21/2017	10:44	-133.508	43.824	0	1870.10	0	2.0330	0	34.6620	4	27.708	0	1846.857	0	52.6	4	15.9	4	-1E+10	1	-1E+10	1	-1E+10	1	-1E+10	1	-1E+10	1	-1E+10	1
4901784	87	C	11/21/2017	10:44	-133.508	43.824	0	1875.20	0	2.0270	0	34.6630	4	27.710	0	1851.871	0	52.9	4	16.0	4	-1E+10	1	-1E+10	1	-1E+10	1	-1E+10	1	-1E+10	1	-1E+10	1
4901784	87	C	11/21/2017	10:44	-133.508	43.824	0	1880.40	0	2.0220	0	34.6630	4	27.710	0	1856.984	0	53.3	4	16.1	4	-1E+10	1	-1E+10	1	-1E+10	1	-1E+10	1	-1E+10	1	-1E+10	1
4901784	87	C	11/21/2017	10:44	-133.508	43.824	0	1885.50	0	2.0170	0	34.6630	4	27.710	0	1861.998	0	53.7	4	16.2	4	-1E+10	1	-1E+10	1	-1E+10	1	-1E+10	1	-1E+10	1	-1E+10	1
4901784	87	C	11/21/2017	10:44	-133.508	43.824	0	1890.60	0	2.0110	0	34.6620	4	27.710	0	1867.012	0	54.2	4	16.4	4	-1E+10	1	-1E+10	1	-1E+10	1	-1E+10	1	-1E+10	1	-1E+10	1
4901784	87	C	11/21/2017	10:44	-133.508	43.824	0	1894.90	0	2.0040	0	34.6640	4	27.712	0	1871.239	0	54.5	4	16.5	4	-1E+10	1	-1E+10	1	-1E+10	1	-1E+10	1	-1E+10	1	-1E+10	1
4901784	87	C	11/21/2017	10:44	-133.508	43.824	0	1899.20	0	2.0010	0	34.6640	4	27.713	0	1875.467	0	54.8	4	16.5	4	-1E+10	1	-1E+10	1	-1E+10	1	-1E+10	1	-1E+10	1	-1E+10	1
4901784	87	C	11/21/2017	10:44	-133.508	43.824	0	1904.40	0	2.0000	0	34.6640	4	27.713	0	1880.579	0	55.2	4	16.6	4	-1E+10	1	-1E+10	1	-1E+10	1	-1E+10	1	-1E+10	1	-1E+10	1
4901784	87	C	11/21/2017	10:44	-133.508	43.824	0	1909.60	0	1.9960	0	34.6650	4	27.714	0	1885.691	0	55.6	4	16.8	4	-1E+10	1	-1E+10	1	-1E+10	1	-1E+10	1	-1E+10	1	-1E+10	1
4901784	87	C	11/21/2017	10:44	-133.508	43.824	0	1914.90	0	1.9920	0	34.6660	4	27.715	0	1890.901	0	55.9	4	16.8	4	-1E+10	1	-1E+10	1	-1E+10	1	-1E+10	1	-1E+10	1	-1E+10	1
4901784	87	C	11/21/2017	10:44	-133.508	43.824	0	1920.20	0	1.9880	0	34.6660	4	27.715	0	1896.111	0	56.1	4	16.9	4	-1E+10	1	-1E+10	1	-1E+10	1	-1E+10	1	-1E+10	1	-1E+10	1
4901784	87	C	11/21/2017	10:44	-133.508	43.824	0	1925.50	0	1.9860	0	34.6670	4	27.716	0	1901.321	0	56.2	4	17.0	4	-1E+10	1	-1E+10	1	-1E+10	1	-1E+10	1	-1E+10	1	-1E+10	1
4901784	87	C	11/21/2017	10:44	-133.508	43.824	0	1929.90	0	1.9850	0	34.6670	4	27.716	0	1905.646	0	56.4	4	17.0	4	-1E+10	1	-1E+10	1	-1E+10	1	-1E+10	1	-1E+10	1	-1E+10	1
4901784	87	C	11/21/2017	10:44	-133.508	43.824	0	1934.40	0	1.9820	0	34.6670	4	27.717	0	1910.069	0	56.7	4	17.1	4	-1E+10	1	-1E+10	1	-1E+10	1	-1E+10	1	-1E+10	1	-1E+10	1
4901784	87	C	11/21/2017	10:44	-133.508	43.824	0	1939.70	0	1.9790	0	34.6680	4	27.718	0	1915.279	0	57.0	4	17.2	4	-1E+10	1	-1E+10	1	-1E+10	1	-1E+10	1	-1E+10	1	-1E+10	1
4901784	87	C	11/21/2017	10:44	-133.508	43.824	0	1945.10	0	1.9760	0	34.6680	4	27.718	0	1920.586	0	57.2	4	17.2	4	-1E+10	1	-1E+10	1	-1E+10	1	-1E+10	1	-1E+10	1	-1E+10	1
4901784	87	C	11/21/2017	10:44	-133.508	43.824	0	1950.50	0	1.9740	0	34.6680	4	27.718	0	1925.894	0	57.5	4	17.3	4	-1E+10	1	-1E+10	1	-1E+10	1	-1E+10	1	-1E+10	1	-1E+10	1
4901784	87	C	11/21/2017	10:44	-133.508	43.824	0	1955.00	0	1.9670	0	34.6690	4	27.719	0	1930.317	0	57.6	4	17.3	4	-1E+10	1	-1E+10	1	-1E+10	1	-1E+10	1	-1E+10	1	-1E+10	1
4901784	87	C	11/21/2017	10:44	-133.508	43.824	0	1959.50	0	1.9640	0	34.6690	4	27.720	0	1934.739	0	57.6	4	17.4	4	-1E+10	1	-1E+10	1	-1E+10	1	-1E+10	1	-1E+10	1	-1E+10	1
4901784	87	C	11/21/2017	10:44	-133.508	43.824	0	1965.00	0	1.9620	0	34.6690	4	27.720	0	1940.145	0	57.9	4	17.5	4	-1E+10	1	-1E+10	1	-1E+10	1	-1E+10	1	-1E+10	1	-1E+10	1
4901784	87	C	11/21/2017	10:44	-133.508	43.824	0	1970.30	0	1.9570	0	34.6700	4	27.721	0	1945.354	0	58.2	4	17.5	4	-1E+10	1	-1E+10	1	-1E+10	1	-1E+10	1	-1E+10	1	-1E+10	1
4901784	87	C	11/21/2017	10:44	-133.508	43.824	0	1975.60	0	1.9530	0	34.6700	4	27.721	0	1950.562	0	58.5	4	17.6	4	-1E+10	1	-1E+10	1	-1E+10	1	-1E+10	1	-1E+10	1	-1E+10	1
4901784	87	C	11/21/2017	10:44	-133.508	43.824	0	1980.50	0	1.9500	0	34.6710	4	27.723	0	1955.378	0	58.6	4	17.7	4	-1E+10	1	-1E+10	1	-1E+10	1	-1E+10	1	-1E+10	1	-1E+10	1
4901784	87	C	11/21/2017	10:44	-133.508	43.824	0	1985.30	0	1.9480	0	34.6710	4	27.723	0	1960.095	0	58.7	4	17.7	4	-1E+10	1	-1E+10	1	-1E+10	1	-1E+10	1	-1E+10	1	-1E+10	1
4901784	87	C	11/21/2017	10:44	-133.508	43.824	0	1990.20	0	1.9430	0	34.6710	4	27.723	0	1964.910	0	58.8	4	17.7	4	-1E+10	1	-1E+10	1	-1E+10	1	-1E+10	1	-1E+10	1	-1E+10	1
4901784	87	C	11/21/2017	10:44	-133.508	43.824	0	1995.10	0	1.9420	0	34.6710	4	27.723	0	1969.725	0	58.9	4	17.8	4	-1E+10	1	-1E+10	1	-1E+10	1	-1E+10	1	-1E+10	1	-1E+10	1
4901784	87	C	11/21/2017	10:44	-133.508	43.824	0	2000.10	0	1.9380	0	34.6710	4	27.724	0	1974.638	0	59.2	4	17.8	4	-1E+10	1	-1E+10	1	-1E+10	1	-1E+10	1	-1E+10	1	-1E+10	1
4901784	87	C	11/21/2017	10:44	-133.508	43.824	0	2005.10	0	1.9340	0	34.6720	4	27.725	0	1979.551	0	59.5	4	17.9	4	-1E+10	1	-1E+10	1	-1E+10	1	-1E+10	1	-1E+10	1	-1E+10	1
4901784	87	C	11/21/2017	10:44	-133.508	43.824	0	2010.20	0	1.9310	0	34.6730	4	27.726	0	1984.563	0	59.8	4	18.0	4	-1E+10	1	-1E+10	1	-1E+10	1	-1E+10	1	-1E+10	1	-1E+10	1
4901784	87	C	11/21/2017	10:44	-133.508	43.824	0	2015.10	0	1.9280	0	34.6730	4	27.726	0	1989.377	0	60.1	4	18.1	4	-1E+10	1	-1E+10	1	-1E+10	1	-1E+10	1	-1E+10	1	-1E+10	1
4901784	87	C	11/21/2017	10:44	-133.508	43.824	0	2020.10	0	1.9260	0	34.6740	4	27.727	0	1994.290	0	60.3	4	18.2	4	-1E+10	1	-1E+10	1	-1E+10	1	-1E+10	1	-1E+10	1	-1E+10	1
4901784	87	C	11/21/2017	10:44	-133.508	43.824	0																										
4901784	88	C	12/01/2017	10:46	-133.329	43.653	0	2.20	0	12.7310	0	32.8620	4	24.790	0	2.182	0	250.8	4	95.3	4	-1E+10	1	-1E+10	1	-1E+10	1	-1E+10	1	-1E+10	1	-1E+10	1
4901784	88	C	12/01/2017	10:46	-133.329	43.653	0	3.80	0	12.7320	0	32.8630	4	24.791	0	3.770	0	251.0	4	95.3	4	-1E+10	1	-1E+10	1	-1E+10	1	-1E+10	1	-1E+10	1	-1E+10	1
4901784	88	C	12/01/2017	10:46	-133.329	43.653	0	5.40	0	12.7320	0	32.8630	4	24.791	0	5.357	0	250.9	4	95.3	4	-1E+10	1	-1E+10	1	-1E+10	1	-1E+10	1	-1E+10	1	-1E+10	1
4901784	88	C	12/01/2017	10:46	-133.329	43.653	0	7.30	0	12.7300	0	32.8620	4	24.791	0	7.242	0	250.7	4	95.2	4	-1E+10	1	-1E+10	1	-1E+10	1	-1E+10	1	-1E+10	1	-1E+10	1
4901784	88	C	12/01/2017	10:46	-133.329	43.653	0	9.10	0	12.7310	0	32.8620	4	24.790	0	9.027	0	250.8	4	95.3	4	-1E+10	1	-1E+10	1	-1E+10	1	-1E+10	1	-1E+10	1	-1E+10	1
4901784	88	C	12/01/2017	10:46	-133.329	43.653	0	11.00	0	12.7320	0	32.8620	4	24.790	0	10.912	0	250.8	4	95.3	4	-1E+10	1	-1E+10	1	-1E+10	1	-1E+10	1	-1E+10	1	-1E+10	1
4901784	88	C	12/01/2017	10:46	-133.329	43.653	0	12.80	0	12.7330	0	32.8620	4	24.790	0	12.697	0	250.7	4	95.2	4	-1E+10	1	-1E+10	1	-1E+10	1	-1E+10	1	-1E+10	1	-1E+10	1
4901784	88	C	12/01/2017	10:46	-133.329	43.653	0	14.50	0	12.7310	0	32.8620	4	24.791	0	14.384	0	250.7	4	95.2	4	-1E+10	1	-1E+10	1	-1E+10	1	-1E+10	1	-1E+10	1	-1E+10	1
4901784	88	C	12/01/2017	10:46	-133.329	43.653	0	16.20	0	12.7330	0	32.8630	4	24.791	0	16.070	0	250.5	4	95.2	4	-1E+10	1	-1E+10	1	-1E+10	1	-1E+10	1	-1E+10	1	-1E+10	1
4901784	88	C	12/01/2017	10:46	-133.329	43.653	0	18.00	0	12.7330	0	32.8610	4	24.789	0	17.855	0	250.5	4	95.2	4	-1E+10	1	-1E+10	1	-1E+10	1	-1E+10	1	-1E+10	1	-1E+10	1
4901784	88	C	12/01/2017	10:46	-133.329	43.653	0	20.00	0	12.7300	0	32.8620	4	24.791	0	19.839	0	250.4	4	95.1	4	-1E+10	1	-1E+10	1	-1E+10	1	-1E+10	1	-1E+10	1	-1E+10	1
4901784	88	C	12/01/2017	10:46	-133.329	43.653	0	21.80	0	12.7300	0	32.8610	4	24.790	0	21.625	0	250.5	4	95.2	4	-1E+10	1	-1E+10	1	-1E+10	1	-1E+10	1	-1E+10	1	-1E+10	1
4901784	88	C	12/01/2017	10:46	-133.329	43.653	0	23.90	0	12.7320	0	32.8620	4	24.791	0	23.708	0	250.4	4	95.1	4	-1E+10	1	-1E+10	1	-1E+10	1	-1E+10	1	-1E+10	1	-1E+10	1
4901784	88	C	12/01/2017	10:46	-133.329	43.653	0	25.80	0	12.7270	0	32.8620	4	24.792	0	25.592	0	250.4	4	95.1	4	-1E+10	1	-1E+10	1	-1E+10	1	-1E+10	1	-1E+10	1	-1E+10	1
4901784	88	C	12/01/2017	10:46	-133.329	43.653	0	27.80	0	12.7230	0	32.8650	4	24.795	0	27.576	0	250.3	4	95.1	4	-1E+10	1	-1E+10	1	-1E+10	1	-1E+10	1	-1E+10	1	-1E+10	1
4901784	88	C	12/01/2017	10:46	-133.329	43.653	0	29.80	0	12.7160	0	32.8640	4	24.795	0	29.560	0	250.5	4	95.1	4	-1E+10	1	-1E+10	1	-1E+10	1	-1E+10	1	-1E+10	1	-1E+10	1
4901784	88	C	12/01/2017	10:46	-133.329	43.653	0	31.90	0	12.7290	0	32.8600	4	24.790	0	31.643	0	250.3	4	95.1	4	-1E+10	1	-1E+10	1	-1E+10	1	-1E+10	1	-1E+10	1	-1E+10	1
4901784	88	C	12/01/2017	10:46	-133.329	43.653	0	34.00	0	12.6980	0	32.8550	4	24.792	0	33.725	0	250.6	4	95.1	4	-1E+10	1	-1E+10	1	-1E+10	1	-1E+10	1	-1E+10	1	-1E+10	1
4901784	88	C	12/01/2017	10:46	-133.329	43.653	0	36.10	0	12.7310	0	32.8610	4	24.790	0	35.808	0	250.0	4	95.0	4	-1E+10	1	-1E+10	1	-1E+10	1	-1E+10	1	-1E+10	1	-1E+10	1
4901784	88	C	12/01/2017	10:46	-133.329	43.653	0	38.30	0	12.7090	0	32.8620	4	24.795	0	37.990	0	250.2	4	95.0	4	-1E+10	1	-1E+10	1	-1E+10	1	-1E+10	1	-1E+10	1	-1E+10	1
4901784	88	C	12/01/2017	10:46	-133.329	43.653	0	40.30	0	12.6990	0	32.8540	4	24.791	0	39.974	0	250.1	4	94.9	4	-1E+10	1	-1E+10	1	-1E+10	1	-1E+10	1	-1E+10	1	-1E+10	1
4901784	88	C	12/01/2017	10:46	-133.329	43.653	0	42.50	0	12.6870	0	32.8530	4	24.793	0	42.156	0	250.0	4	94.9	4	-1E+10	1	-1E+10	1	-1E+10	1	-1E+10	1	-1E+10	1	-1E+10	1
4901784	88	C	12/01/2017	10:46	-133.329	43.653	0	44.50	0	12.6820	0	32.8510	4	24.792	0	44.140	0	250.1	4	94.9	4	-1E+10	1	-1E+10	1	-1E+10	1	-1E+10	1	-1E+10	1	-1E+10	1
4901784	88	C	12/01/2017	10:46	-133.329	43.653	0	46.60	0	12.6670	0	32.8490	4	24.794	0	46.222	0	250.0	4	94.8	4	-1E+10	1	-1E+10	1	-1E+10	1	-1E+10	1	-1E+10	1	-1E+10	1
4901784	88	C	12/01/2017	10:46	-133.329	43.653	0	48.60	0	12.6600	0	32.8480	4	24.794	0	48.206	0	249.7	4	94.7	4	-1E+10	1	-1E+10	1	-1E+10	1	-1E+10	1	-1E+10	1	-1E+10	1
4901784	88	C	12/01/2017	10:46	-133.329	43.653	0	50.70	0	12.6470	0	32.8430	4	24.793	0	50.289	0	249.6	4	94.6	4	-1E+10	1	-1E+10	1	-1E+10	1	-1E+10	1	-1E+10	1	-1E+10	1
4901784	88	C	12/01/2017	10:46	-133.329	43.653	0	52.80	0	12.6370	0	32.8470	4	24.798	0	52.371	0	249.2	4	94.5	4	-1E+10	1	-1E+10	1	-1E+10	1	-1E+10	1	-1E+10	1	-1E+10	1
4901784	88	C	12/01/2017	10:46	-133.329	43.653	0	54.80	0	12.6180	0	32.8420	4	24.798	0	54.355	0	248.9	4	94.3	4	-1E+10	1	-1E+10	1	-1E+10	1	-1E+10	1	-1E+10	1	-1E+10	1
4901784	88	C	12/01/2017	10:46	-133.329	43.653	0	57.20	0	12.6010	0	32.8420	4	24.801	0	56.735	0	248.5	4	94.1	4	-1E+10	1	-1E+10	1	-1E+10	1	-1E+10	1	-1E+10	1	-1E+10	1
4901784	88	C	12/01/2017	10:46	-133.329	43.653	0	57.70	0	12.6010	0	32.8420	4	24.801	0	57.231	0	248.3	4	94.1	4	-1E+10	1	-1E+10	1	-1E+10	1	-1E+10	1	-1E+10	1	-1E+10	1
4901784	88	C	12/01/2017	10:46	-133.329	43.653	0	59.60	0	12.5910	0	32.8420	4	24.803	0	59.115	0	247.9	4	93.9	4	-1E+10	1	-1E+10	1	-1E+10	1	-1E+10	1	-1E+10	1	-1E+10	1
4901784	88	C	12/01/2017	10:46	-133.329	43.653	0	61.30	0	12.5830	0	32.8420	4	24.805	0	60.801	0	247.3	4	93.6	4	-1E+10	1	-1E+10	1	-1E+10	1	-1E+10	1	-1E+10	1	-1E+10	1
4901784	88	C	12/01/2017	10:46	-133.329	43.653	0	63.00	0	12.5820	0	32.8410	4	24.804	0	62.487	0	246.6	4	93.4	4	-1E+10	1	-1E+10	1	-1E+10	1	-1E+10	1	-1E+10	1	-1E+10	1
4901784	88	C	12/01/2017	10:46	-133.329	43.653	0	64.60	0	12.5770	0	32.8400	4	24.805	0	64.074	0	245.8	4	93.1	4	-1E+10	1	-1E+10	1	-1E+10	1	-1E+10	1	-1E+10	1	-1E+10	1
4901784	88	C	12/01/2017	10:46	-133.329	43.653	0	66.20	0	12.5750	0	32.8370	4	24.803	0	65.660	0	244.6	4	92.6	4	-1E+10	1	-1E+10	1	-1E+10	1	-1E+10	1	-1E+10	1	-1E+10	1
4901784	88	C	12/01/2017	10:46	-133.329	43.653	0	68.20	0	12.5740	0	32.8280	4	24.796	0	67.644	0	242.7	4	91.9	4	-1E+10	1	-1E+10	1	-1E+10	1	-1E+10	1	-1E+10	1	-1E+10	1
4901784	88	C	12/01/2017	10:46	-133.329	43.653	0	69.60	0	12.5720	0	32.8260	4	24.795	0	69.032	0	239.9	4	90.8	4	-1E+10	1	-1E+10	1	-1E+10	1	-1E+10	1	-1E+10	1	-1E+10	1
4901784	88	C	12/01/2017	10:46	-133.329	43.653	0	70.90	0	12.5280	0	32.8070	4	24.789	0	70.321	0	237.0	4	89.6	4	-1E+10	1	-1E+10	1	-1E+10	1	-1E+10	1	-1E+10	1	-1E+10	1
4901784	88	C	12/01/2017	10:46	-133.329	43.653	0	72.40	0	11.1710	0	32.9340	4	25.139	0	71.809	0	238.5	4	87.7	4	-1E+10	1	-1E+10	1	-1E+10	1	-1E+10	1	-1E+10	1	-1E+10	1
4901784	88	C	12/01/2017	10:46	-133.329	43.653	0	73.90	0	10.7680	0	32.9870	4	25.251	0	73.296	0	238.2	4	86.9	4	-1E+10	1	-1E+10	1	-1E+10	1	-1E+10	1	-1E+10	1	-1E+10	1
4901784	88	C	12/01/2017	10:46	-133.329	43.653	0	75.40	0	10.2850	0	32.9940	4	25.340	0	74.784	0	240.9	4	87.0	4	-1E+10	1	-1E+10	1	-1E+10	1	-1E+10	1	-1E+10	1	-1E+10	1
4901784	88	C	12/01/2017	10:46	-133.329	43.653	0	76.90	0	10.1120	0	33.0020	4	25.375	0	76.271	0	240.6	4	86.6	4	-1E+10	1	-1E+10	1	-1E+10	1	-1E+10	1	-1E+10	1	-1E+10	1
4901784	88	C	12/01/2017	10:46	-133.329	43.653	0	78.50	0	9.9750	0	33.0250	4	25.416	0	77.858	0	241.2	4	86.5	4	-1E+10	1	-1E+10	1	-1E+10	1	-1E+10	1	-1E+10	1	-1E+10	1
4901784	88	C	12/01/2017	10:46	-133.329	43.653	0	80.10	0	9.9120	0	33.0220	4	25.424	0	79.444	0	242.8	4	87.0	4	-1E+10	1	-1E+10	1	-1E+10	1	-1E+10	1	-1E+10	1	-1E+10	1
4901784	88	C	12/01/2017	10:46	-133.329	43.653	0	81.70	0	9.7990	0	33.0310	4	25.450	0	81.031	0	245.7	4	87.8	4	-1E+10	1	-1E+10	1	-1E+10	1	-1E+10	1	-1E+10	1	-1E+10	1
4901784	88	C	12/01/2017	10:46	-133.329	43.653	0	83.30	0	9.3310	0	33.0360	4	25.530	0	82.617	0	252.6	4	89.4	4	-1E+10	1	-1E+10	1	-1E+10	1	-1E+10	1	-1E+10	1	-1E+10	1
4901784	88	C	12/01/2017	10:46	-133.329	43.653	0	84.90	0	8.9370	0	33.0200	4	25.579	0	84.204	0	257.9	4	90.5	4	-1E+10	1	-1E+10	1	-1E+10	1	-1E+10	1	-1E+10	1	-1E+10	1
4901784	88	C	12/01/2017	10:46	-133.329	43.653	0	86.50	0	8.8130	0	33.0080	4	25.589	0	85.791	0	258.1	4	90.3	4	-1E+10	1	-1E+10	1	-1E+10	1	-1E+10	1	-1E+10	1	-1E+10	1
4901784	88	C	12/01/2017	10:46	-133.329	43.653	0	88.20	0	8.6820	0	33.0030	4	25.606	0	87.476	0	255.7	4	89.2	4	-1E+10	1	-1E+10	1	-1E+10	1	-1E+10	1	-1E+10	1	-1E+10	1
4901784	88	C	12/01/2017	10:46	-133.329	43.653	0	89.90	0	8.5770	0	33.0000	4	25.619	0	89.162	0	254.0	4	88.4	4	-1E+10	1	-1E+10	1	-1E+10	1	-1E+10	1	-1E+10	1	-1E+10	1
4901784	88	C	12/01/2017	10:46	-133.329	43.653	0	91.60	0	8.4910	0	33.0160	4	25.645	0	90.848	0	251.7	4	87.4	4	-1E+10	1	-1E+10	1	-1E+10	1	-1E+10	1	-1E+10	1	-1E+10	1
4901784	88	C	12/01/2017	10:46	-133.329	43.653	0	93.30	0	8.4150	0	33.0310	4	25.668	0	92.533	0	249.7	4	86.6	4	-1E+10	1	-1E+10	1	-1E+10	1	-1E+10	1	-1E+10	1	-1E+10	1
4901784	88	C	12/01/2017	10:46	-133.329	43.653	0	95.00	0	8.3640	0	33.0470	4	25.688	0	94.219	0	247.7	4	85.8	4	-1E+10	1	-1E+10	1	-1E+10	1	-1E+10	1	-1E+10	1	-1E+10	1
4901784	88	C	12/01/2017	10:46	-133.329	43.653	0	96.80	0	8.3490	0	33.0600	4	25.701	0	96.004	0	246.6	4	85.4	4	-1E+10	1	-1E+10	1	-1E+10	1	-1E+10	1	-1E+10	1	-1E+10	1
4901784	88	C	12/01/2017	10:46	-133.329	43.653	0	98.60	0	8.3570	0	33.0760	4	25.712	0	97.788	0	245.2	4	84.9	4	-1E+10	1	-1E+10	1	-1E+10	1	-1E+10	1	-1E+10	1	-1E+10	1
4901784	88	C	12/01/2017	10:46	-133.329	43.653	0	100.40	0	8.3150	0	33.0870	4	25.727	0	99.573	0	244.7	4	84.7	4	-1E+10	1	-1E+10	1	-1E+10	1	-1E+10	1	-1E+10	1	-1E+10	1
4901784	88	C	12/01/2017	10:46	-133.329	43.653	0	102.10	0	8.2890	0	33.0950	4	25.737	0	101.259	0	243.7	4	84.3	4	-1E+10	1	-1E+10	1	-1E+10	1	-1E+10	1	-1E+10	1	-1E+10	1
4901784	88	C	12/01/2017	10:46	-133.329	43.653	0	104.80	0	8.2240	0	33.1110	4	25.759	0	103.936	0	241.5	4	83.4	4	-1E+10	1	-1E+10	1	-1E+10	1	-1E+10	1	-1E+10	1	-1E+10	1
4901784	88	C	12/01/2017	10:46	-133.329	43.653	0	107.40	0	8.2410	0	33.1380	4	25.778	0	106.514	0	236.9	4	81.9	4	-1E+10	1	-1E+10	1	-1E+10	1	-1E+10	1	-1E+10	1	-1E+10	1
4901784	88	C	12/01/2017	10:46	-133.329	43.653	0	109.90	0	8.2630	0	33.1870	4	25.813	0	108.992	0	231.5	4	80.1	4	-1E+10	1	-1E+10	1	-1E+10	1	-1E+10	1	-1E+10	1	-1E+10	1
4901784	88	C	12/01/2017	10:46	-133.329	43.653	0	112.50	0	8.2970	0	33.2240	4	25.837	0	111.570	0	225.6	4	78.2	4	-1E+10	1	-1E+10	1	-1E+10	1	-1E+10	1	-1E+10	1	-1E+10	1
4901784	88	C	12/01/2017	10:46	-133.329	43.653	0	115.10	0	8.2850	0	33.2460	4	25.856	0	114.148	0	216.9	4	75.1	4	-1E+10	1	-1E+10	1	-1E+10	1	-1E+10	1	-1E+10	1	-1E+10	1
4901784	88	C	12/01/2017	10:46	-133.329	43.653	0	118.30	0	8.5080	0	33.3510	4	25.905	0	117.321	0	198.7	4	69.2	4	-1E+10	1	-1E+10	1	-1E+10	1	-1E+10	1	-1E+10	1	-1E+10	1
4901784	88	C	12/01/2017	10:46	-133.329	43.653	0	120.10	0	8.7770	0	33.4300	4	25.926	0	119.105	0	188.0	4	65.9	4	-1E+10	1	-1E+10	1	-1E+10	1	-1E+10	1	-1E+10	1	-1E+10	1
4901784	88	C	12/01/2017	10:46	-133.329	43.653	0	122.40	0	8.8820	0	33.4530	4	25.928	0	121.386	0	181.1	4	63.7	4	-1E+10	1	-1E+10	1	-1E+10	1	-1E+10	1	-1E+10	1	-1E+10	1
4901784	88	C	12/01/2017	10:46	-133.329	43.653	0	125.40	0	8.9090	0	33.5220	4	25.978	0	124.360	0	174.4	4	61.4	4	-1E+10	1	-1E+10	1	-1E+10	1	-1E+10	1	-1E+10	1	-1E+10	1
4901784	88	C	12/01/2017	10:46	-133.329	43.653	0	127.70	0	8.8670	0	33.5580	4	26.012	0	126.640	0	170.4	4	59.9	4	-1E+10	1	-1E+10	1	-1E+10	1	-1E+10	1	-1E+10	1	-1E+10	1
4901784	88	C	12/01/2017	10:46	-133.329	43.653	0	130.00	0	8.8550	0	33.5820	4	26.033	0	128.920	0	165.6	4	58.2	4	-1E+10	1	-1E+10	1	-1E+10	1	-1E+10	1	-1E+10	1	-1E+10	1
4901784	88	C	12/01/2017	10:46	-133.329	43.653	0	132.30	0	8.8530	0	33.5990	4	26.047	0	131.200	0	161.1	4	56.6	4	-1E+10	1	-1E+10	1	-1E+10	1	-1E+10	1	-1E+10	1	-1E+10	1
4901784	88	C	12/01/2017	10:46	-133.329	43.653	0	134.60	0	8.8000	0	33.6360	4	26.084	0	133.480	0	156.6	4	55.0	4	-1E+10	1	-1E+10	1	-1E+10	1	-1E+10	1	-1E+10	1	-1E+10	1
4901784	88	C	12/01/2017	10:46	-133.329	43.653	0	137.80	0	8.7330	0	33.6820	4	26.130	0	136.653	0	151.3	4	53.1	4	-1E+10	1	-1E+10	1	-1E+10	1	-1E+10	1	-1E+10	1	-1E+10	1
4901784	88	C	12/01/2017	10:46	-133.329	43.653	0	140.40	0	8.6900	0	33.7060	4	26.156	0	139.230	0	146.8	4	51.5	4	-1E+10	1	-1E+10	1	-1E+10	1	-1E+10	1	-1E+10	1	-1E+10	1
4901784	88	C	12/01/2017	10:46	-133.329	43.653	0	142.10	0	8.6330	0	33.7370	4	26.189	0	140.916	0	143.4	4	50.2	4	-1E+10	1	-1E+10	1	-1E+10	1	-1E+10	1	-1E+10	1	-1E+10	1
4901784	88	C	12/01/2017	10:46	-133.329	43.653	0	144.70	0	8.5770	0	33.7670	4	26.221	0	143.493	0	139.9	4	48.9	4	-1E+10	1	-1E+10	1	-1E+10	1	-1E+10	1	-1E+10	1	-1E+10	1
4901784	88	C	12/01/2017	10:46	-133.329	43.653	0	147.20	0	8.5390	0	33.7830	4	26.240	0	145.971	0	136.9	4	47.9	4	-1E+10	1	-1E+10	1	-1E+10	1	-1E+10	1	-1E+10	1	-1E+10	1
4901784	88	C	12/01/2017	10:46	-133.329	43.653	0	149.80	0	8.4770	0	33.8160	4	26.275	0	148.549	0	133.4	4	46.6	4	-1E+10	1	-1E+10	1	-1E+10	1	-1E+10	1	-1E+10	1	-1E+10	1
4901784	88	C	12/01/2017	10:46	-133.329	43.653	0	152.40	0	8.4190	0	33.8350	4	26.299	0	151.126	0	128.2	4	44.7	4	-1E+10	1	-1E+10	1	-1E+10	1	-1E+10	1	-1E+10	1	-1E+10	1
4901784	88	C	12/01/2017	10:46	-133.329	43.653	0	154.90	0	8.2740	0	33.8710	4	26.349	0	153.604	0	124.4	4	43.3	4	-1E+10	1	-1E+10	1	-1E+10	1	-1E+10	1	-1E+10	1	-1E+10	1
4901784	88	C	12/01/2017	10:46	-133.329	43.653	0	157.50	0	8.1810	0	33.8990	4	26.385	0	156.181	0	123.5	4	42.9	4	-1E+10	1	-1E+10	1	-1E+10	1	-1E+10	1	-1E+10	1	-1E+10	1
4901784	88	C	12/01/2017	10:46	-133.329	43.653	0	160.20	0	8.1100	0	33.9200	4	26.412	0	158.858	0	122.9	4	42.6	4	-1E+10	1	-1E+10	1	-1E+10	1	-1E+10	1	-1E+10	1	-1E+10	1
4901784	88	C	12/01/2017	10:46	-133.329	43.653	0	162.80	0	8.0810	0	33.9240	4	26.419	0	161.435	0	121.5	4	42.1	4	-1E+10	1	-1E+10	1	-1E+10	1	-1E+10	1	-1E+10	1	-1E+10	1
4901784	88	C	12/01/2017	10:46	-133.329	43.653	0	164.70	0	8.0560	0	33.9290	4	26.427	0	163.318	0	120.4	4	41.7	4	-1E+10	1	-1E+10	1	-1E+10	1	-1E+10	1	-1E+10	1	-1E+10	1
4901784	88	C	12/01/2017	10:46	-133.329	43.653	0	167.50	0	7.9800	0	33.9410	4	26.448	0	166.094	0	118.8	4	41.1	4	-1E+10	1	-1E+10	1	-1E+10	1	-1E+10	1	-1E+10	1	-1E+10	1
4901784	88	C	12/01/2017	10:46	-133.329	43.653	0	170.30	0	7.8960	0	33.9550	4	26.471	0	168.869	0	117.6	4	40.6	4	-1E+10	1	-1E+10	1	-1E+10	1	-1E+10	1	-1E+10	1	-1E+10	1
4901784	88	C	12/01/2017	10:46	-133.329	43.653	0	172.20	0	7.8760	0	33.9570	4	26.476	0	170.752	0	116.8	4	40.3	4	-1E+10	1	-1E+10	1	-1E+10	1	-1E+10	1	-1E+10	1	-1E+10	1
4901784	88	C	12/01/2017	10:46	-133.329	43.653	0	174.90	0	7.8320	0	33.9630	4	26.487	0	173.428	0	115.9	4	40.0	4	-1E+10	1	-1E+10	1	-1E+10	1	-1E+10	1	-1E+10	1	-1E+10	1
4901784	88	C	12/01/2017	10:46	-133.329	43.653	0	177.70	0	7.7760	0	33.9700	4	26.501	0	176.204	0	115.4	4	39.7	4	-1E+10	1	-1E+10	1	-1E+10	1	-1E+10	1	-1E+10	1	-1E+10	1
4901784	88	C	12/01/2017	10:46	-133.329	43.653	0	179.60	0	7.7610	0	33.9720	4	26.504	0	178.087	0	115.3	4	39.7	4	-1E+10	1	-1E+10	1	-1E+10	1	-1E+10	1	-1E+10	1	-1E+10	1
4901784	88	C	12/01/2017	10:46	-133.329	43.653	0	182.50	0	7.7380	0	33.9750	4	26.510	0	180.961	0	114.8	4	39.5	4	-1E+10	1	-1E+10	1	-1E+10	1	-1E+10	1	-1E+10	1	-1E+10	1
4901784	88	C	12/01/2017	10:46	-133.329	43.653	0	185.30	0	7.6970	0	33.9780	4	26.518	0	183.736	0	114.2	4	39.2	4	-1E+10	1	-1E+10	1	-1E+10	1	-1E+10	1	-1E+10	1	-1E+10	1
4901784	88	C	12/01/2017	10:46	-133.329	43.653	0	187.30	0	7.6650	0	33.9810	4	26.525	0	185.718	0	114.2	4	39.2	4	-1E+10	1	-1E+10	1	-1E+10	1	-1E+10	1	-1E+10	1	-1E+10	1
4901784	88	C	12/01/2017	10:46	-133.329	43.653	0	189.10	0	7.6450	0	33.9830	4	26.530	0	187.502	0	114.7	4	39.4	4	-1E+10	1	-1E+10	1	-1E+10	1	-1E+10	1	-1E+10	1	-1E+10	1
4901784	88	C	12/01/2017	10:46	-133.329	43.653	0	192.30	0	7.6020	0	33.9870	4	26.539	0	190.674	0	116.3	4	39.9	4	-1E+10	1	-1E+10	1	-1E+10	1	-1E+10	1	-1E+10	1	-1E+10	1
4901784	88	C	12/01/2017	10:46	-133.329	43.653	0	195.20	0	7.5480	0	33.9930	4	26.552	0	193.548	0	117.6	4	40.3	4	-1E+10	1	-1E+10	1	-1E+10	1	-1E+10	1	-1E+10	1	-1E+10	1
4901784	88	C	12/01/2017	10:46	-133.329	43.653	0	197.70	0	7.5200	0	33.9950	4	26.557	0	196.026	0	118.2	4	40.5	4	-1E+10	1	-1E+10	1	-1E+10	1	-1E+10	1	-1E+10	1	-1E+10	1
4901784	88	C	12/01/2017	10:46	-133.329	43.653	0	200.20	0	7.4780	0	33.9970	4	26.565	0	198.503	0	118.3	4	40.5	4	-1E+10	1	-1E+10	1	-1E+10	1	-1E+10	1	-1E+10	1	-1E+10	1
4901784	88	C	12/01/2017	10:46	-133.329	43.653	0	202.60	0	7.4250	0	34.0010	4	26.576	0	200.882	0	117.4	4	40.1	4	-1E+10	1	-1E+10	1	-1E+10	1	-1E+10	1	-1E+10	1	-1E+10	1
4901784	88	C	12/01/2017	10:46	-133.329	43.653	0	205.00	0	7.3860	0	34.0030	4	26.583	0	203.260	0	116.2	4	39.7	4	-1E+10	1	-1E+10	1	-1E+10	1	-1E+10	1	-1E+10	1	-1E+10	1
4901784	88	C	12/01/2017	10:46	-133.329	43.653	0	207.60	0	7.3530	0	34.0040	4	26.588	0	205.837	0	115.8	4	39.5	4	-1E+10	1	-1E+10	1	-1E+10	1	-1E+10	1	-1E+10	1	-1E+10	1
4901784	88	C	12/01/2017	10:46	-133.329	43.653	0	210.10	0	7.3100	0	34.0060	4	26.596	0	208.314	0	116.1	4	39.6	4	-1E+10	1	-1E+10	1	-1E+10	1	-1E+10	1	-1E+10	1	-1E+10	1
4901784	88	C	12/01/2017	10:46	-133.329	43.653	0	212.70	0	7.2690	0	34.0070	4	26.602	0	210.891	0	113.7	4	38.7	4	-1E+10	1	-1E+10	1	-1E+10	1	-1E+10	1	-1E+10	1	-1E+10	1
4901784	88	C	12/01/2017	10:46	-133.329	43.653	0	215.20	0	7.2140	0	34.0110	4	26.613	0	213.368	0	109.1	4	37.1	4	-1E+10	1	-1E+10	1	-1E+10	1	-1E+10	1	-1E+10	1	-1E+10	1
4901784	88	C	12/01/2017	10:46	-133.329	43.653	0	217.70	0	7.2080	0	34.0130	4	26.616	0	215.846	0	105.7	4	35.9	4	-1E+10	1	-1E+10	1	-1E+10	1	-1E+10	1	-1E+10	1	-1E+10	1
4901784	88	C	12/01/2017	10:46	-133.329	43.653	0	220.40	0	7.2000	0	34.0130	4	26.617	0	218.521	0	104.6	4	35.5	4	-1E+10	1	-1E+10	1	-1E+10	1	-1E+10	1	-1E+10	1	-1E+10	1
4901784	88	C	12/01/2017	10:46	-133.329	43.653	0	222.10	0	7.1900	0	34.0140	4	26.619	0	220.206	0	104.3	4	35.4	4	-1E+10	1	-1E+10	1	-1E+10	1	-1E+10	1	-1E+10	1	-1E+10	1
4901784	88	C	12/01/2017	10:46	-133.329	43.653	0	224.80	0	7.1810	0	34.0130	4	26.619	0	222.882	0	104.2	4	35.4	4	-1E+10	1	-1E+10	1	-1E+10	1	-1E+10	1	-1E+10	1	-1E+10	1
4901784	88	C	12/01/2017	10:46	-133.329	43.653	0	227.50	0	7.1330	0	34.0150	4	26.628	0	225.557	0	103.8	4	35.2	4	-1E+10	1	-1E+10	1	-1E+10	1	-1E+10	1	-1E+10	1	-1E+10	1
4901784	88	C	12/01/2017	10:46	-133.329	43.653	0	230.10	0	7.0780	0	34.0170	4	26.637	0	228.133	0	104.1	4	35.3	4	-1E+10	1	-1E+10	1	-1E+10	1	-1E+10	1	-1E+10	1	-1E+10	1
4901784	88	C	12/01/2017	10:46	-133.329	43.653	0	232.70	0	7.0560	0	34.0180	4	26.641	0	230.710	0	104.5	4	35.4	4	-1E+10	1	-1E+10	1	-1E+10	1	-1E+10	1	-1E+10	1	-1E+10	1
4901784	88	C	12/01/2017	10:46	-133.329	43.653	0	234.50	0	7.0120	0	34.0170	4	26.646	0	232.493	0	105.2	4	35.6	4	-1E+10	1	-1E+10	1	-1E+10	1	-1E+10	1	-1E+10	1	-1E+10	1
4901784	88	C	12/01/2017	10:46	-133.329	43.653	0	237.20	0	6.9660	0	34.0190	4	26.654	0	235.169	0	105.4	4	35.6	4	-1E+10	1	-1E+10	1	-1E+10	1	-1E+10	1	-1E+10	1	-1E+10	1
4901784	88	C	12/01/2017	10:46	-133.329	43.653	0	239.90	0	6.9500	0	34.0180	4	26.655	0	237.844	0	105.0	4	35.5	4	-1E+10	1	-1E+10	1	-1E+10	1	-1E+10	1	-1E+10	1	-1E+10	1
4901784	88	C	12/01/2017	10:46	-133.329	43.653	0	242.50	0	6.9370	0	34.0180	4	26.657	0	240.420	0	104.4	4	35.3	4	-1E+10	1	-1E+10	1	-1E+10	1	-1E+10	1	-1E+10	1	-1E+10	1
4901784	88	C	12/01/2017	10:46	-133.329	43.653	0	245.20	0	6.9000	0	34.0180	4	26.662	0	243.096	0	103.8	4	35.0	4	-1E+10	1	-1E+10	1	-1E+10	1	-1E+10	1	-1E+10	1	-1E+10	1
4901784	88	C	12/01/2017	10:46	-133.329	43.653	0	247.00	0	6.8580	0	34.0190	4	26.669	0	244.879	0	103.8	4	35.0	4	-1E+10	1	-1E+10	1	-1E+10	1	-1E+10	1	-1E+10	1	-1E+10	1
4901784	88	C	12/01/2017	10:46	-133.329	43.653	0	249.80	0	6.8060	0	34.0190	4	26.676	0	247.653	0	103.3	4	34.8	4	-1E+10	1	-1E+10	1	-1E+10	1	-1E+10	1	-1E+10	1	-1E+10	1
4901784	88	C	12/01/2017	10:46	-133.329	43.653	0	252.50	0	6.7730	0	34.0210	4	26.682	0	250.328	0	102.4	4	34.5	4	-1E+10	1	-1E+10	1	-1E+10	1	-1E+10	1	-1E+10	1	-1E+10	1
4901784	88	C	12/01/2017	10:46	-133.329	43.653	0	255.20	0	6.7520	0	34.0210	4	26.685	0	253.004	0	102.3	4	34.4	4	-1E+10	1	-1E+10	1	-1E+10	1	-1E+10	1	-1E+10	1	-1E+10	1
4901784	88	C	12/01/2017	10:46	-133.329	43.653	0	257.90	0	6.7160	0	34.0200	4	26.689	0	255.679	0	102.2	4	34.3	4	-1E+10	1	-1E+10	1	-1E+10	1	-1E+10	1	-1E+10	1	-1E+10	1
4901784	88	C	12/01/2017	10:46	-133.329	43.653	0	259.60	0	6.7020	0	34.0200	4	26.690	0	257.363	0	101.6	4	34.1	4	-1E+10	1	-1E+10	1	-1E+10	1	-1E+10	1	-1E+10	1	-1E+10	1
4901784	88	C	12/01/2017	10:46	-133.329	43.653	0	262.30	0	6.6860	0	34.0200	4	26.693	0	260.038	0	100.4	4	33.7	4	-1E+10	1	-1E+10	1	-1E+10	1	-1E+10	1	-1E+10	1	-1E+10	1
4901784	88	C	12/01/2017	10:46	-133.329	43.653	0	265.00	0	6.6400	0	34.0220	4	26.700	0	262.713	0	98.9	4	33.2	4	-1E+10	1	-1E+10	1	-1E+10	1	-1E+10	1	-1E+10	1	-1E+10	1
4901784	88	C	12/01/2017	10:46	-133.329	43.653	0	267.80	0	6.6220	0	34.0230	4	26.704	0	265.487	0	97.5	4	32.7	4	-1E+10	1	-1E+10	1	-1E+10	1	-1E+10	1	-1E+10	1	-1E+10	1
4901784	88	C	12/01/2017	10:46	-133.329	43.653	0	270.50	0	6.5910	0	34.0250	4	26.709	0	268.162	0	96.9	4	32.5	4	-1E+10	1	-1E+10	1	-1E+10	1	-1E+10	1	-1E+10	1	-1E+10	1
4901784	88	C	12/01/2017	10:46	-133.329	43.653	0	272.30	0	6.5580	0	34.0240	4	26.713	0	269.945	0	96.4	4	32.3	4	-1E+10	1	-1E+10	1	-1E+10	1	-1E+10	1	-1E+10	1	-1E+10	1
4901784	88	C	12/01/2017	10:46	-133.329	43.653	0	275.00	0	6.5240	0	34.0230	4	26.717	0	272.620	0	95.4	4	31.9	4	-1E+10	1	-1E+10	1	-1E+10	1	-1E+10	1	-1E+10	1	-1E+10	1
4901784	88	C	12/01/2017	10:46	-133.329	43.653	0	277.80	0	6.4830	0	34.0240	4	26.723	0	275.394	0	93.6	4	31.3	4	-1E+10	1	-1E+10	1	-1E+10	1	-1E+10	1	-1E+10	1	-1E+10	1
4901784	88	C	12/01/2017	10:46	-133.329	43.653	0	279.60	0	6.4620	0	34.0260	4	26.727	0	277.177	0	92.6	4	30.9	4	-1E+10	1	-1E+10	1	-1E+10	1	-1E+10	1	-1E+10	1	-1E+10	1
4901784	88	C	12/01/2017	10:46	-133.329	43.653	0	282.40	0	6.4480	0	34.0280	4	26.731	0	279.951	0	91.1	4	30.4	4	-1E+10	1	-1E+10	1	-1E+10	1	-1E+10	1	-1E+10	1	-1E+10	1
4901784	88	C	12/01/2017	10:46	-133.329	43.653	0	285.10	0	6.4220	0	34.0300	4	26.736	0	282.626	0	90.2	4	30.1	4	-1E+10	1	-1E+10	1	-1E+10	1	-1E+10	1	-1E+10	1	-1E+10	1
4901784	88	C	12/01/2017	10:46	-133.329	43.653	0	287.00	0	6.4020	0	34.0280	4	26.737	0	284.508	0	89.8	4	30.0	4	-1E+10	1	-1E+10	1	-1E+10	1	-1E+10	1	-1E+10	1	-1E+10	1
4901784	88	C	12/01/2017	10:46	-133.329	43.653	0	289.70	0	6.3490	0	34.0300	4	26.745	0	287.183	0	89.5	4	29.8	4	-1E+10	1	-1E+10	1	-1E+10	1	-1E+10	1	-1E+10	1	-1E+10	1
4901784	88	C	12/01/2017	10:46	-133.329	43.653	0	292.50	0	6.3290	0	34.0290	4	26.747	0	289.956	0	88.9	4	29.6	4	-1E+10	1	-1E+10	1	-1E+10	1	-1E+10	1	-1E+10	1	-1E+10	1
4901784	88	C	12/01/2017	10:46	-133.329	43.653	0	295.30	0	6.2900	0	34.0310	4	26.753	0	292.730	0	88.0	4	29.3	4	-1E+10	1	-1E+10	1	-1E+10	1	-1E+10	1	-1E+10	1	-1E+10	1
4901784	88	C	12/01/2017	10:46	-133.329	43.653	0	298.00	0	6.2550	0	34.0310	4	26.758	0	295.405	0	87.4	4	29.1	4	-1E+10	1	-1E+10	1	-1E+10	1	-1E+10	1	-1E+10	1	-1E+10	1
4901784	88	C	12/01/2017	10:46	-133.329	43.653	0	299.90	0	6.2260	0	34.0320	4	26.763	0	297.287	0	87.1	4	29.0	4	-1E+10	1	-1E+10	1	-1E+10	1	-1E+10	1	-1E+10	1	-1E+10	1
4901784	88	C	12/01/2017	10:46	-133.329	43.653	0	302.70	0	6.2100	0	34.0320	4	26.765	0	300.060	0	86.6	4	28.8	4	-1E+10	1	-1E+10	1	-1E+10	1	-1E+10	1	-1E+10	1	-1E+10	1
4901784	88	C	12/01/2017	10:46	-133.329	43.653	0	305.50	0	6.2090	0	34.0300	4	26.763	0	302.834	0	85.8	4	28.5	4	-1E+10	1	-1E+10	1	-1E+10	1	-1E+10	1	-1E+10	1	-1E+10	1
4901784	88	C	12/01/2017	10:46	-133.329	43.653	0	307.40	0	6.1830	0	34.0310	4	26.767	0	304.716	0	85.2	4	28.3	4	-1E+10	1	-1E+10	1	-1E+10	1	-1E+10	1	-1E+10	1	-1E+10	1
4901784	88	C	12/01/2017	10:46	-133.329	43.653	0	310.20	0	6.1300	0	34.0320	4	26.775	0	307.489	0	84.5	4	28.0	4	-1E+10	1	-1E+10	1	-1E+10	1	-1E+10	1	-1E+10	1	-1E+10	1
4901784	88	C	12/01/2017	10:46	-133.329	43.653	0	313.10	0	6.0780	0	34.0320	4	26.781	0	310.362	0	84.0	4	27.8	4	-1E+10	1	-1E+10	1	-1E+10	1	-1E+10	1	-1E+10	1	-1E+10	1
4901784	88	C	12/01/2017	10:46	-133.329	43.653	0	315.00	0	6.0670	0	34.0320	4	26.783	0	312.244	0	83.5	4	27.7	4	-1E+10	1	-1E+10	1	-1E+10	1	-1E+10	1	-1E+10	1	-1E+10	1
4901784	88	C	12/01/2017	10:46	-133.329	43.653	0	317.80	0	6.0460	0	34.0320	4	26.786	0	315.017	0	83.0	4	27.5	4	-1E+10	1	-1E+10	1	-1E+10	1	-1E+10	1	-1E+10	1	-1E+10	1
4901784	88	C	12/01/2017	10:46	-133.329	43.653	0	320.50	0	6.0170	0	34.0320	4	26.789	0	317.692	0	82.5	4	27.3	4	-1E+10	1	-1E+10	1	-1E+10	1	-1E+10	1	-1E+10	1	-1E+10	1
4901784	88	C	12/01/2017	10:46	-133.329	43.653	0	322.40	0	6.0130	0	34.0310	4	26.789	0	319.573	0	82.0	4	27.1	4	-1E+10	1	-1E+10	1	-1E+10	1	-1E+10	1	-1E+10	1	-1E+10	1
4901784	88	C	12/01/2017	10:46	-133.329	43.653	0	324.30	0	6.0000	0	34.0300	4	26.790	0	321.455	0	81.5	4	26.9	4	-1E+10	1	-1E+10	1	-1E+10	1	-1E+10	1	-1E+10	1	-1E+10	1
4901784	88	C	12/01/2017	10:46	-133.329	43.653	0	327.20	0	5.9680	0	34.0300	4	26.794	0	324.328	0	80.6	4	26.6	4	-1E+10	1	-1E+10	1	-1E+10	1	-1E+10	1	-1E+10	1	-1E+10	1
4901784	88	C	12/01/2017	10:46	-133.329	43.653	0	330.10	0	5.9080	0	34.0310	4	26.802	0	327.200	0	79.5	4	26.2	4	-1E+10	1	-1E+10	1	-1E+10	1	-1E+10	1	-1E+10	1	-1E+10	1
4901784	88	C	12/01/2017	10:46	-133.329	43.653	0	332.10	0	5.8950	0	34.0310	4	26.804	0	329.181	0	78.8	4	26.0	4	-1E+10	1	-1E+10	1	-1E+10	1	-1E+10	1	-1E+10	1	-1E+10	1
4901784	88	C	12/01/2017	10:46	-133.329	43.653	0	334.90	0	5.8690	0	34.0310	4	26.807	0	331.954	0	77.5	4	25.5	4	-1E+10	1	-1E+10	1	-1E+10	1	-1E+10	1	-1E+10	1	-1E+10	1
4901784	88	C	12/01/2017	10:46	-133.329	43.653	0	337.70	0	5.8280	0	34.0320	4	26.813	0	334.727	0	75.8	4	25.0	4	-1E+10	1	-1E+10	1	-1E+10	1	-1E+10	1	-1E+10	1	-1E+10	1
4901784	88	C	12/01/2017	10:46	-133.329	43.653	0	339.60	0	5.7950	0	34.0360	4	26.820	0	336.609	0	74.9	4	24.6	4	-1E+10	1	-1E+10	1	-1E+10	1	-1E+10	1	-1E+10	1	-1E+10	1
4901784	88	C	12/01/2017	10:46	-133.329	43.653	0	342.60	0	5.7740	0	34.0410	4	26.827	0	339.580	0	73.9	4	24.3	4	-1E+10	1	-1E+10	1	-1E+10	1	-1E+10	1	-1E+10	1	-1E+10	1
4901784	88	C	12/01/2017	10:46	-133.329	43.653	0	345.00	0	5.7610	0	34.0410	4	26.828	0	341.957	0	73.3	4	24.1	4	-1E+10	1	-1E+10	1	-1E+10	1	-1E+10	1	-1E+10	1	-1E+10	1
4901784	88	C	12/01/2017	10:46	-133.329	43.653	0	347.50	0	5.7470	0	34.0420	4	26.831	0	344.432	0	72.7	4	23.9	4	-1E+10	1	-1E+10	1	-1E+10	1	-1E+10	1	-1E+10	1	-1E+10	1
4901784	88	C	12/01/2017	10:46	-133.329	43.653	0	349.80	0	5.7350	0	34.0440	4	26.834	0	346.710	0	71.8	4	23.6	4	-1E+10	1	-1E+10	1	-1E+10	1	-1E+10	1	-1E+10	1	-1E+10	1
4901784	88	C	12/01/2017	10:46	-133.329	43.653	0	352.20	0	5.7250	0	34.0440	4	26.835	0	349.087	0	71.0	4	23.3	4	-1E+10	1	-1E+10	1	-1E+10	1	-1E+10	1	-1E+10	1	-1E+10	1
4901784	88	C	12/01/2017	10:46	-133.329	43.653	0	354.60	0	5.7100	0	34.0460	4	26.839	0	351.464	0	69.9	4	23.0	4	-1E+10	1	-1E+10	1	-1E+10	1	-1E+10	1	-1E+10	1	-1E+10	1
4901784	88	C	12/01/2017	10:46	-133.329	43.653	0	357.90	0	5.6790	0	34.0480	4	26.844	0	354.732	0	68.6	4	22.5	4	-1E+10	1	-1E+10	1	-1E+10	1	-1E+10	1	-1E+10	1	-1E+10	1
4901784	88	C	12/01/2017	10:46	-133.329	43.653	0	360.30	0	5.6640	0	34.0500	4	26.847	0	357.108	0	67.6	4	22.2	4	-1E+10	1	-1E+10	1	-1E+10	1	-1E+10	1	-1E+10	1	-1E+10	1
4901784	88	C	12/01/2017	10:46	-133.329	43.653	0	362.70	0	5.6650	0	34.0530	4	26.850	0	359.485	0	66.5	4	21.8	4	-1E+10	1	-1E+10	1	-1E+10	1	-1E+10	1	-1E+10	1	-1E+10	1
4901784	88	C	12/01/2017	10:46	-133.329	43.653	0	365.10	0	5.6620	0	34.0550	4	26.852	0	361.862	0	65.8	4	21.6	4	-1E+10	1	-1E+10	1	-1E+10	1	-1E+10	1	-1E+10	1	-1E+10	1
4901784	88	C	12/01/2017	10:46	-133.329	43.653	0	367.50	0	5.6490	0	34.0570	4	26.855	0	364.238	0	65.2	4	21.4	4	-1E+10	1	-1E+10	1	-1E+10	1	-1E+10	1	-1E+10	1	-1E+10	1
4901784	88	C	12/01/2017	10:46	-133.329	43.653	0	369.90	0	5.6210	0	34.0570	4	26.858	0	366.615	0	64.5	4	21.1	4	-1E+10	1	-1E+10	1	-1E+10	1	-1E+10	1	-1E+10	1	-1E+10	1
4901784	88	C	12/01/2017	10:46	-133.329	43.653	0	372.40	0	5.6110	0	34.0590	4	26.861	0	369.091	0	63.7	4	20.9	4	-1E+10	1	-1E+10	1	-1E+10	1	-1E+10	1	-1E+10	1	-1E+10	1
4901784	88	C	12/01/2017	10:46	-133.329	43.653	0	374.80	0	5.6010	0	34.0600	4	26.863	0	371.467	0	62.9	4	20.6	4	-1E+10	1	-1E+10	1	-1E+10	1	-1E+10	1	-1E+10	1	-1E+10	1
4901784	88	C	12/01/2017	10:46	-133.329	43.653	0	377.30	0	5.5920	0	34.0610	4	26.865	0	373.943	0	61.9	4	20.3	4	-1E+10	1	-1E+10	1	-1E+10	1	-1E+10	1	-1E+10	1	-1E+10	1
4901784	88	C	12/01/2017	10:46	-133.329	43.653	0	379.70	0	5.5830	0	34.0630	4	26.868	0	376.319	0	60.6	4	19.9	4	-1E+10	1	-1E+10	1	-1E+10	1	-1E+10	1	-1E+10	1	-1E+10	1
4901784	88	C	12/01/2017	10:46	-133.329	43.653	0	382.30	0	5.5710	0	34.0670	4	26.872	0	378.893	0	59.1	4	19.4	4	-1E+10	1	-1E+10	1	-1E+10	1	-1E+10	1	-1E+10	1	-1E+10	1
4901784	88	C	12/01/2017	10:46	-133.329	43.653	0	384.80	0	5.5600	0	34.0710	4	26.877	0	381.369	0	58.0	4	19.0	4	-1E+10	1	-1E+10	1	-1E+10	1	-1E+10	1	-1E+10	1	-1E+10	1
4901784	88	C	12/01/2017	10:46	-133.329	43.653	0	387.30	0	5.5550	0	34.0740	4	26.880	0	383.844	0	57.0	4	18.7	4	-1E+10	1	-1E+10	1	-1E+10	1	-1E+10	1	-1E+10	1	-1E+10	1
4901784	88	C	12/01/2017	10:46	-133.329	43.653	0	389.80	0	5.5490	0	34.0770	4	26.883	0	386.320	0	56.0	4	18.3	4	-1E+10	1	-1E+10	1	-1E+10	1	-1E+10	1	-1E+10	1	-1E+10	1
4901784	88	C	12/01/2017	10:46	-133.329	43.653	0	392.40	0	5.5410	0	34.0790	4	26.886	0	388.894	0	55.1	4	18.0	4	-1E+10	1	-1E+10	1	-1E+10	1	-1E+10	1	-1E+10	1	-1E+10	1
4901784	88	C	12/01/2017	10:46	-133.329	43.653	0	394.90	0	5.5360	0	34.0800	4	26.887	0	391.369	0	54.3	4	17.8	4	-1E+10	1	-1E+10	1	-1E+10	1	-1E+10	1	-1E+10	1	-1E+10	1
4901784	88	C	12/01/2017	10:46	-133.329	43.653	0	397.50	0	5.5240	0	34.0830	4	26.891	0	393.944	0	53.3	4	17.4	4	-1E+10	1	-1E+10	1	-1E+10	1	-1E+10	1	-1E+10	1	-1E+10	1
4901784	88	C	12/01/2017	10:46	-133.329	43.653	0	400.00	0	5.5090	0	34.0860	4	26.895	0	396.419	0	52.3	4	17.1	4	-1E+10	1	-1E+10	1	-1E+10	1	-1E+10	1	-1E+10	1	-1E+10	1
4901784	88	C	12/01/2017	10:46	-133.329	43.653	0	402.60	0	5.4990	0	34.0880	4	26.898	0	398.993	0	51.5	4	16.8	4	-1E+10	1	-1E+10	1	-1E+10	1	-1E+10	1	-1E+10	1	-1E+10	1
4901784	88	C	12/01/2017	10:46	-133.329	43.653	0	405.10	0	5.4540	0	34.0920	4	26.906	0	401.468	0	50.9	4	16.6	4	-1E+10	1	-1E+10	1	-1E+10	1	-1E+10	1	-1E+10	1	-1E+10	1
4901784	88	C	12/01/2017	10:46	-133.329	43.653	0	407.70	0	5.4470	0	34.0910	4	26.906	0	404.042	0	50.2	4	16.4	4	-1E+10	1	-1E+10	1	-1E+10	1	-1E+10	1	-1E+10	1	-1E+10	1
4901784	88	C	12/01/2017	10:46	-133.329	43.653	0	410.30	0	5.4260	0	34.0920	4	26.910	0	406.617	0	49.3	4	16.1	4	-1E+10	1	-1E+10	1	-1E+10	1	-1E+10	1	-1E+10	1	-1E+10	1
4901784	88	C	12/01/2017	10:46	-133.329	43.653	0	412.10	0	5.3890	0	34.0980	4	26.919	0	408.399	0	48.8	4	15.9	4	-1E+10	1	-1E+10	1	-1E+10	1	-1E+10	1	-1E+10	1	-1E+10	1
4901784	88	C	12/01/2017	10:46	-133.329	43.653	0	414.70	0	5.3810	0	34.1000	4	26.921	0	410.973	0	48.4	4	15.8	4	-1E+10	1	-1E+10	1	-1E+10	1	-1E+10	1	-1E+10	1	-1E+10	1
4901784	88	C	12/01/2017	10:46	-133.329	43.653	0	417.30	0	5.3740	0	34.1010	4	26.923	0	413.547	0	48.1	4	15.7	4	-1E+10	1	-1E+10	1	-1E+10	1	-1E+10	1	-1E+10	1	-1E+10	1
4901784	88	C	12/01/2017	10:46	-133.329	43.653	0	420.00	0	5.3580	0	34.1010	4	26.925	0	416.220	0	47.8	4	15.6	4	-1E+10	1	-1E+10	1	-1E+10	1	-1E+10	1	-1E+10	1	-1E+10	1
4901784	88	C	12/01/2017	10:46	-133.329	43.653	0	422.50	0	5.3250	0	34.1010	4	26.929	0	418.695	0	47.3	4	15.4	4	-1E+10	1	-1E+10	1	-1E+10	1	-1E+10	1	-1E+10	1	-1E+10	1
4901784	88	C	12/01/2017	10:46	-133.329	43.653	0	425.10	0	5.3050	0	34.1060	4	26.935	0	421.269	0	47.1	4	15.3	4	-1E+10	1	-1E+10	1	-1E+10	1	-1E+10	1	-1E+10	1	-1E+10	1
4901784	88	C	12/01/2017	10:46	-133.329	43.653	0	427.60	0	5.2960	0	34.1040	4	26.935	0	423.744	0	47.1	4	15.3	4	-1E+10	1	-1E+10	1	-1E+10	1	-1E+10	1	-1E+10	1	-1E+10	1
4901784	88	C	12/01/2017	10:46	-133.329	43.653	0	430.20	0	5.2810	0	34.1040	4	26.936	0	426.317	0	46.7	4	15.2	4	-1E+10	1	-1E+10	1	-1E+10	1	-1E+10	1	-1E+10	1	-1E+10	1
4901784	88	C	12/01/2017	10:46	-133.329	43.653	0	432.70	0	5.2740	0	34.1040	4	26.937	0	428.792	0	46.0	4	15.0	4	-1E+10	1	-1E+10	1	-1E+10	1	-1E+10	1	-1E+10	1	-1E+10	1
4901784	88	C	12/01/2017	10:46	-133.329	43.653	0	434.50	0	5.2750	0	34.1060	4	26.939	0	430.574	0	45.3	4	14.7	4	-1E+10	1	-1E+10	1	-1E+10	1	-1E+10	1	-1E+10	1	-1E+10	1
4901784	88	C	12/01/2017	10:46	-133.329	43.653	0	437.10	0	5.2530	0	34.1090	4	26.944	0	433.148	0	44.6	4	14.5	4	-1E+10	1	-1E+10	1	-1E+10	1	-1E+10	1	-1E+10	1	-1E+10	1
4901784	88	C	12/01/2017	10:46	-133.329	43.653	0	439.80	0	5.2190	0	34.1130	4	26.951	0	435.821	0	43.8	4	14.2	4	-1E+10	1	-1E+10	1	-1E+10	1	-1E+10	1	-1E+10	1	-1E+10	1
4901784	88	C	12/01/2017	10:46	-133.329	43.653	0	442.30	0	5.2130	0	34.1150	4	26.953	0	438.295	0	42.9	4	13.9	4	-1E+10	1	-1E+10	1	-1E+10	1	-1E+10	1	-1E+10	1	-1E+10	1
4901784	88	C	12/01/2017	10:46	-133.329	43.653	0	444.90	0	5.2170	0	34.1190	4	26.956	0	440.869	0	42.1	4	13.7	4	-1E+10	1	-1E+10	1	-1E+10	1	-1E+10	1	-1E+10	1	-1E+10	1
4901784	88	C	12/01/2017	10:46	-133.329	43.653	0	447.60	0	5.2130	0	34.1230	4	26.960	0	443.542	0	41.5	4	13.5	4	-1E+10	1	-1E+10	1	-1E+10	1	-1E+10	1	-1E+10	1	-1E+10	1
4901784	88	C	12/01/2017	10:46	-133.329	43.653	0	450.20	0	5.2040	0	34.1230	4	26.961	0	446.116	0	41.1	4	13.3	4	-1E+10	1	-1E+10	1	-1E+10	1	-1E+10	1	-1E+10	1	-1E+10	1
4901784	88	C	12/01/2017	10:46	-133.329	43.653	0	452.00	0	5.1980	0	34.1230	4	26.961	0	447.897	0	40.8	4	13.3	4	-1E+10	1	-1E+10	1	-1E+10	1	-1E+10	1	-1E+10	1	-1E+10	1
4901784	88	C	12/01/2017	10:46	-133.329	43.653	0	454.70	0	5.1700	0	34.1280	4	26.969	0	450.570	0	40.7	4	13.2	4	-1E+10	1	-1E+10	1	-1E+10	1	-1E+10	1	-1E+10	1	-1E+10	1
4901784	88	C	12/01/2017	10:46	-133.329	43.653	0	457.40	0	5.1060	0	34.1240	4	26.973	0	453.242	0	40.5	4	13.1	4	-1E+10	1	-1E+10	1	-1E+10	1	-1E+10	1	-1E+10	1	-1E+10	1
4901784	88	C	12/01/2017	10:46	-133.329	43.653	0	460.10	0	5.1140	0	34.1290	4	26.976	0	455.915	0	40.0	4	13.0	4	-1E+10	1	-1E+10	1	-1E+10	1	-1E+10	1	-1E+10	1	-1E+10	1
4901784	88	C	12/01/2017	10:46	-133.329	43.653	0	462.90	0	5.1150	0	34.1320	4	26.978	0	458.686	0	39.6	4	12.8	4	-1E+10	1	-1E+10	1	-1E+10	1	-1E+10	1	-1E+10	1	-1E+10	1
4901784	88	C	12/01/2017	10:46	-133.329	43.653	0	464.70	0	5.1180	0	34.1320	4	26.978	0	460.468	0	39.6	4	12.8	4	-1E+10	1	-1E+10	1	-1E+10	1	-1E+10	1	-1E+10	1	-1E+10	1
4901784	88	C	12/01/2017	10:46	-133.329	43.653	0	467.50	0	5.0790	0	34.1290	4	26.980	0	463.239	0	40.0	4	13.0	4	-1E+10	1	-1E+10	1	-1E+10	1	-1E+10	1	-1E+10	1	-1E+10	1
4901784	88	C	12/01/2017	10:46	-133.329	43.653	0	470.30	0	5.0110	0	34.1250	4	26.985	0	466.011	0	39.7	4	12.8	4	-1E+10	1	-1E+10	1	-1E+10	1	-1E+10	1	-1E+10	1	-1E+10	1
4901784	88	C	12/01/2017	10:46	-133.329	43.653	0	472.20	0	5.0290	0	34.1280	4	26.985	0	467.891	0	39.0	4	12.6	4	-1E+10	1	-1E+10	1	-1E+10	1	-1E+10	1	-1E+10	1	-1E+10	1
4901784	88	C	12/01/2017	10:46	-133.329	43.653	0	475.00	0	5.0460	0	34.1350	4	26.989	0	470.662	0	38.3	4	12.4	4	-1E+10	1	-1E+10	1	-1E+10	1	-1E+10	1	-1E+10	1	-1E+10	1
4901784	88	C	12/01/2017	10:46	-133.329	43.653	0	477.80	0	5.0250	0	34.1350	4	26.991	0	473.434	0	38.3	4	12.4	4	-1E+10	1	-1E+10	1	-1E+10	1	-1E+10	1	-1E+10	1	-1E+10	1
4901784	88	C	12/01/2017	10:46	-133.329	43.653	0	479.70	0	5.0000	0	34.1340	4	26.993	0	475.314	0	38.4	4	12.4	4	-1E+10	1	-1E+10	1	-1E+10	1	-1E+10	1	-1E+10	1	-1E+10	1
4901784	88	C	12/01/2017	10:46	-133.329	43.653	0	482.40	0	4.9600	0	34.1200	4	26.987	0	477.986	0	38.1	4	12.3	4	-1E+10	1	-1E+10	1	-1E+10	1	-1E+10	1	-1E+10	1	-1E+10	1
4901784	88	C	12/01/2017	10:46	-133.329	43.653	0	485.30	0	4.9380	0	34.1330	4	26.999	0	480.856	0	37.5	4	12.1	4	-1E+10	1	-1E+10	1	-1E+10	1	-1E+10	1	-1E+10	1	-1E+10	1
4901784	88	C	12/01/2017	10:46	-133.329	43.653	0	487.10	0	4.9270	0	34.1360	4	27.003	0	482.638	0	37.0	4	11.9	4	-1E+10	1	-1E+10	1	-1E+10	1	-1E+10	1	-1E+10	1	-1E+10	1
4901784	88	C	12/01/2017	10:46	-133.329	43.653	0	489.90	0	4.9190	0	34.1380	4	27.006	0	485.409	0	36.2	4	11.7	4	-1E+10	1	-1E+10	1	-1E+10	1	-1E+10	1	-1E+10	1	-1E+10	1
4901784	88	C	12/01/2017	10:46	-133.329	43.653	0	492.70	0	4.9070	0	34.1400	4	27.009	0	488.180	0	35.2	4	11.4	4	-1E+10	1	-1E+10	1	-1E+10	1	-1E+10	1	-1E+10	1	-1E+10	1
4901784	88	C	12/01/2017	10:46	-133.329	43.653	0	494.50	0	4.8980	0	34.1440	4	27.013	0	489.961	0	34.5	4	11.1	4	-1E+10	1	-1E+10	1	-1E+10	1	-1E+10	1	-1E+10	1	-1E+10	1
4901784	88	C	12/01/2017	10:46	-133.329	43.653	0	497.30	0	4.8950	0	34.1510	4	27.019	0	492.732	0	33.7	4	10.9	4	-1E+10	1	-1E+10	1	-1E+10	1	-1E+10	1	-1E+10	1	-1E+10	1
4901784	88	C	12/01/2017	10:46	-133.329	43.653	0	500.20	0	4.8900	0	34.1540	4	27.022	0	495.602	0	33.2	4	10.7	4	-1E+10	1	-1E+10	1	-1E+10	1	-1E+10	1	-1E+10	1	-1E+10	1
4901784	88	C	12/01/2017	10:46	-133.329	43.653	0	504.80	0	4.8740	0	34.1590	4	27.027	0	500.154	0	32.5	4	10.5	4	-1E+10	1	-1E+10	1	-1E+10	1	-1E+10	1	-1E+10	1	-1E+10	1
4901784	88	C	12/01/2017	10:46	-133.329	43.653	0	509.40	0	4.8600	0	34.1600	4	27.030	0	504.706	0	32.0	4	10.3	4	-1E+10	1	-1E+10	1	-1E+10	1	-1E+10	1	-1E+10	1	-1E+10	1
4901784	88	C	12/01/2017	10:46	-133.329	43.653	0	515.10	0	4.8430	0	34.1670	4	27.037	0	510.347	0	31.6	4	10.2	4	-1E+10	1	-1E+10	1	-1E+10	1	-1E+10	1	-1E+10	1	-1E+10	1
4901784	88	C	12/01/2017	10:46	-133.329	43.653	0	519.80	0	4.7160	0	34.1580	4	27.044	0	514.998	0	32.1	4	10.3	4	-1E+10	1	-1E+10	1	-1E+10	1	-1E+10	1	-1E+10	1	-1E+10	1
4901784	88	C	12/01/2017	10:46	-133.329	43.653	0	524.60	0	4.7520	0	34.1660	4	27.047	0	519.747	0	29.8	4	9.6	4	-1E+10	1	-1E+10	1	-1E+10	1	-1E+10	1	-1E+10	1	-1E+10	1
4901784	88	C	12/01/2017	10:46	-133.329	43.653	0	530.40	0	4.7060	0	34.1730	4	27.057	0	525.487	0	29.7	4	9.6	4	-1E+10	1	-1E+10	1	-1E+10	1	-1E+10	1	-1E+10	1	-1E+10	1
4901784	88	C	12/01/2017	10:46	-133.329	43.653	0	535.20	0	4.6810	0	34.1750	4	27.062	0	530.236	0	28.2	4	9.0	4	-1E+10	1	-1E+10	1	-1E+10	1	-1E+10	1	-1E+10	1	-1E+10	1
4901784	88	C	12/01/2017	10:46	-133.329	43.653	0	540.10	0	4.7310	0	34.1880	4	27.067	0	535.084	0	27.2	4	8.7	4	-1E+10	1	-1E+10	1	-1E+10	1	-1E+10	1	-1E+10	1	-1E+10	1
4901784	88	C	12/01/2017	10:46	-133.329	43.653	0	544.80	0	4.6750	0	34.1840	4	27.070	0	539.734	0	27.6	4	8.9	4	-1E+10	1	-1E+10	1	-1E+10	1	-1E+10	1	-1E+10	1	-1E+10	1
4901784	88	C	12/01/2017	10:46	-133.329	43.653	0	549.60	0	4.6220	0	34.1830	4	27.075	0	544.483	0	27.1	4	8.7	4	-1E+10	1	-1E+10	1	-1E+10	1	-1E+10	1	-1E+10	1	-1E+10	1
4901784	88	C	12/01/2017	10:46	-133.329	43.653	0	554.40	0	4.6120	0	34.1850	4	27.077	0	549.232	0	25.3	4	8.1	4	-1E+10	1	-1E+10	1	-1E+10	1	-1E+10	1	-1E+10	1	-1E+10	1
4901784	88	C	12/01/2017	10:46	-133.329	43.653	0	559.20	0	4.6720	0	34.2050	4	27.087	0	553.981	0	23.1	4	7.4	4	-1E+10	1	-1E+10	1	-1E+10	1	-1E+10	1	-1E+10	1	-1E+10	1
4901784	88	C	12/01/2017	10:46	-133.329	43.653	0	564.60	0	4.6940	0	34.2120	4	27.090	0	559.324	0	21.5	4	6.9	4	-1E+10	1	-1E+10	1	-1E+10	1	-1E+10	1	-1E+10	1	-1E+10	1
4901784	88	C	12/01/2017	10:46	-133.329	43.653	0	569.50	0	4.7130	0	34.2250	4	27.098	0	564.171	0	19.9	4	6.4	4	-1E+10	1	-1E+10	1	-1E+10	1	-1E+10	1	-1E+10	1	-1E+10	1
4901784	88	C	12/01/2017	10:46	-133.329	43.653	0	574.50	0	4.7250	0	34.2320	4	27.103	0	569.118	0	19.3	4	6.2	4	-1E+10	1	-1E+10	1	-1E+10	1	-1E+10	1	-1E+10	1	-1E+10	1
4901784	88	C	12/01/2017	10:46	-133.329	43.653	0	579.50	0	4.7110	0	34.2350	4	27.107	0	574.064	0	18.7	4	6.0	4	-1E+10	1	-1E+10	1	-1E+10	1	-1E+10	1	-1E+10	1	-1E+10	1
4901784	88	C	12/01/2017	10:46	-133.329	43.653	0	584.40	0	4.6910	0	34.2400	4	27.113	0	578.911	0	18.0	4	5.8	4	-1E+10	1	-1E+10	1	-1E+10	1	-1E+10	1	-1E+10	1	-1E+10	1
4901784	88	C	12/01/2017	10:46	-133.329	43.653	0	589.30	0	4.6800	0	34.2450	4	27.118	0	583.758	0	17.9	4	5.7	4	-1E+10	1	-1E+10	1	-1E+10	1	-1E+10	1	-1E+10	1	-1E+10	1
4901784	88	C	12/01/2017	10:46	-133.329	43.653	0	594.20	0	4.6370	0	34.2460	4	27.124	0	588.605	0	18.1	4	5.8	4	-1E+10	1	-1E+10	1	-1E+10	1	-1E+10	1	-1E+10	1	-1E+10	1
4901784	88	C	12/01/2017	10:46	-133.329	43.653	0	599.20	0	4.5840	0	34.2450	4	27.129	0	593.551	0	18.5	4	5.9	4	-1E+10	1	-1E+10	1	-1E+10	1	-1E+10	1	-1E+10	1	-1E+10	1
4901784	88	C	12/01/2017	10:46	-133.329	43.653	0	604.20	0	4.5380	0	34.2430	4	27.132	0	598.497	0	18.4	4	5.9	4	-1E+10	1	-1E+10	1	-1E+10	1	-1E+10	1	-1E+10	1	-1E+10	1
4901784	88	C	12/01/2017	10:46	-133.329	43.653	0	609.30	0	4.5310	0	34.2470	4	27.136	0	603.541	0	18.2	4	5.8	4	-1E+10	1	-1E+10	1	-1E+10	1	-1E+10	1	-1E+10	1	-1E+10	1
4901784	88	C	12/01/2017	10:46	-133.329	43.653	0	614.40	0	4.5020	0	34.2480	4	27.140	0	608.586	0	18.2	4	5.8	4	-1E+10	1	-1E+10	1	-1E+10	1	-1E+10	1	-1E+10	1	-1E+10	1
4901784	88	C	12/01/2017	10:46	-133.329	43.653	0	619.60	0	4.4620	0	34.2460	4	27.143	0	613.729	0	18.1	4	5.8	4	-1E+10	1	-1E+10	1	-1E+10	1	-1E+10	1	-1E+10	1	-1E+10	1
4901784	88	C	12/01/2017	10:46	-133.329	43.653	0	624.90	0	4.4420	0	34.2520	4	27.150	0	618.971	0	17.9	4	5.7	4	-1E+10	1	-1E+10	1	-1E+10	1	-1E+10	1	-1E+10	1	-1E+10	1
4901784	88	C	12/01/2017	10:46	-133.329	43.653	0	630.30	0	4.4290	0	34.2520	4	27.151	0	624.311	0	17.6	4	5.6	4	-1E+10	1	-1E+10	1	-1E+10	1	-1E+10	1	-1E+10	1	-1E+10	1
4901784	88	C	12/01/2017	10:46	-133.329	43.653	0	635.60	0	4.4090	0	34.2550	4	27.156	0	629.553	0	17.1	4	5.5	4	-1E+10	1	-1E+10	1	-1E+10	1	-1E+10	1	-1E+10	1	-1E+10	1
4901784	88	C	12/01/2017	10:46	-133.329	43.653	0	640.10	0	4.4170	0	34.2590	4	27.158	0	634.003	0	16.5	4	5.3	4	-1E+10	1	-1E+10	1	-1E+10	1	-1E+10	1	-1E+10	1	-1E+10	1
4901784	88	C	12/01/2017	10:46	-133.329	43.653	0	644.50	0	4.4390	0	34.2670	4	27.162	0	638.355	0	15.8	4	5.1	4	-1E+10	1	-1E+10	1	-1E+10	1	-1E+10	1	-1E+10	1	-1E+10	1
4901784	88	C	12/01/2017	10:46	-133.329	43.653	0	649.90	0	4.4440	0	34.2720	4	27.166	0	643.695	0	15.5	4	4.9	4	-1E+10	1	-1E+10	1	-1E+10	1	-1E+10	1	-1E+10	1	-1E+10	1
4901784	88	C	12/01/2017	10:46	-133.329	43.653	0	655.30	0	4.4330	0	34.2760	4	27.170	0	649.035	0	15.5	4	5.0	4	-1E+10	1	-1E+10	1	-1E+10	1	-1E+10	1	-1E+10	1	-1E+10	1
4901784	88	C	12/01/2017	10:46	-133.329	43.653	0	659.80	0	4.3730	0	34.2750	4	27.176	0	653.485	0	16.0	4	5.1	4	-1E+10	1	-1E+10	1	-1E+10	1	-1E+10	1	-1E+10	1	-1E+10	1
4901784	88	C	12/01/2017	10:46	-133.329	43.653	0	664.30	0	4.3280	0	34.2720	4	27.178	0	657.934	0	16.1	4	5.1	4	-1E+10	1	-1E+10	1	-1E+10	1	-1E+10	1	-1E+10	1	-1E+10	1
4901784	88	C	12/01/2017	10:46	-133.329	43.653	0	669.80	0	4.3110	0	34.2710	4	27.179	0	663.373	0	16.1	4	5.1	4	-1E+10	1	-1E+10	1	-1E+10	1	-1E+10	1	-1E+10	1	-1E+10	1
4901784	88	C	12/01/2017	10:46	-133.329	43.653	0	675.30	0	4.3120	0	34.2740	4	27.181	0	668.811	0	15.6	4	5.0	4	-1E+10	1	-1E+10	1	-1E+10	1	-1E+10	1	-1E+10	1	-1E+10	1
4901784	88	C	12/01/2017	10:46	-133.329	43.653	0	679.90	0	4.3130	0	34.2780	4	27.185	0	673.360	0	15.4	4	4.9	4	-1E+10	1	-1E+10	1	-1E+10	1	-1E+10	1	-1E+10	1	-1E+10	1
4901784	88	C	12/01/2017	10:46	-133.329	43.653	0	684.50	0	4.2870	0	34.2830	4	27.191	0	677.908	0	15.3	4	4.9	4	-1E+10	1	-1E+10	1	-1E+10	1	-1E+10	1	-1E+10	1	-1E+10	1
4901784	88	C	12/01/2017	10:46	-133.329	43.653	0	690.10	0	4.2240	0	34.2810	4	27.196	0	683.445	0	15.6	4	4.9	4	-1E+10	1	-1E+10	1	-1E+10	1	-1E+10	1	-1E+10	1	-1E+10	1
4901784	88	C	12/01/2017	10:46	-133.329	43.653	0	694.70	0	4.1520	0	34.2780	4	27.201	0	687.993	0	15.5	4	4.9	4	-1E+10	1	-1E+10	1	-1E+10	1	-1E+10	1	-1E+10	1	-1E+10	1
4901784	88	C	12/01/2017	10:46	-133.329	43.653	0	699.50	0	4.1400	0	34.2830	4	27.207	0	692.739	0	15.2	4	4.8	4	-1E+10	1	-1E+10	1	-1E+10	1	-1E+10	1	-1E+10	1	-1E+10	1
4901784	88	C	12/01/2017	10:46	-133.329	43.653	0	704.90	0	4.1560	0	34.2890	4	27.210	0	698.078	0	14.9	4	4.7	4	-1E+10	1	-1E+10	1	-1E+10	1	-1E+10	1	-1E+10	1	-1E+10	1
4901784	88	C	12/01/2017	10:46	-133.329	43.653	0	709.30	0	4.1430	0	34.2910	4	27.213	0	702.427	0	14.8	4	4.7	4	-1E+10	1	-1E+10	1	-1E+10	1	-1E+10	1	-1E+10	1	-1E+10	1
4901784	88	C	12/01/2017	10:46	-133.329	43.653	0	714.90	0	4.1040	0	34.2910	4	27.217	0	707.964	0	14.9	4	4.7	4	-1E+10	1	-1E+10	1	-1E+10	1	-1E+10	1	-1E+10	1	-1E+10	1
4901784	88	C	12/01/2017	10:46	-133.329	43.653	0	720.70	0	4.0670	0	34.2920	4	27.222	0	713.698	0	14.7	4	4.7	4	-1E+10	1	-1E+10	1	-1E+10	1	-1E+10	1	-1E+10	1	-1E+10	1
4901784	88	C	12/01/2017	10:46	-133.329	43.653	0	725.60	0	4.0470	0	34.2960	4	27.227	0	718.541	0	14.5	4	4.6	4	-1E+10	1	-1E+10	1	-1E+10	1	-1E+10	1	-1E+10	1	-1E+10	1
4901784	88	C	12/01/2017	10:46	-133.329	43.653	0	730.60	0	4.0340	0	34.2990	4	27.231	0	723.484	0	14.3	4	4.5	4	-1E+10	1	-1E+10	1	-1E+10	1	-1E+10	1	-1E+10	1	-1E+10	1
4901784	88	C	12/01/2017	10:46	-133.329	43.653	0	735.50	0	4.0190	0	34.3030	4	27.235	0	728.328	0	14.1	4	4.5	4	-1E+10	1	-1E+10	1	-1E+10	1	-1E+10	1	-1E+10	1	-1E+10	1
4901784	88	C	12/01/2017	10:46	-133.329	43.653	0	740.50	0	4.0130	0	34.3050	4	27.238	0	733.270	0	13.9	4	4.4	4	-1E+10	1	-1E+10	1	-1E+10	1	-1E+10	1	-1E+10	1	-1E+10	1
4901784	88	C	12/01/2017	10:46	-133.329	43.653	0	745.70	0	3.9930	0	34.3110	4	27.244	0	738.410	0	13.6	4	4.3	4	-1E+10	1	-1E+10	1	-1E+10	1	-1E+10	1	-1E+10	1	-1E+10	1
4901784	88	C	12/01/2017	10:46	-133.329	43.653	0	750.00	0	3.9810	0	34.3140	4	27.248	0	742.661	0	13.4	4	4.2	4	-1E+10	1	-1E+10	1	-1E+10	1	-1E+10	1	-1E+10	1	-1E+10	1
4901784	88	C	12/01/2017	10:46	-133.329	43.653	0	754.20	0	3.9680	0	34.3190	4	27.253	0	746.812	0	13.2	4	4.2	4	-1E+10	1	-1E+10	1	-1E+10	1	-1E+10	1	-1E+10	1	-1E+10	1
4901784	88	C	12/01/2017	10:46	-133.329	43.653	0	759.40	0	3.9470	0	34.3250	4	27.260	0	751.952	0	13.0	4	4.1	4	-1E+10	1	-1E+10	1	-1E+10	1	-1E+10	1	-1E+10	1	-1E+10	1
4901784	88	C	12/01/2017	10:46	-133.329	43.653	0	764.60	0	3.9340	0	34.3280	4	27.264	0	757.091	0	12.8	4	4.0	4	-1E+10	1	-1E+10	1	-1E+10	1	-1E+10	1	-1E+10	1	-1E+10	1
4901784	88	C	12/01/2017	10:46	-133.329	43.653	0	769.70	0	3.9210	0	34.3300	4	27.267	0	762.132	0	12.7	4	4.0	4	-1E+10	1	-1E+10	1	-1E+10	1	-1E+10	1	-1E+10	1	-1E+10	1
4901784	88	C	12/01/2017	10:46	-133.329	43.653	0	774.90	0	3.9020	0	34.3350	4	27.273	0	767.271	0	12.5	4	3.9	4	-1E+10	1	-1E+10	1	-1E+10	1	-1E+10	1	-1E+10	1	-1E+10	1
4901784	88	C	12/01/2017	10:46	-133.329	43.653	0	780.20	0	3.8800	0	34.3400	4	27.279	0	772.509	0	12.3	4	3.9	4	-1E+10	1	-1E+10	1	-1E+10	1	-1E+10	1	-1E+10	1	-1E+10	1
4901784	88	C	12/01/2017	10:46	-133.329	43.653	0	785.40	0	3.8660	0	34.3440	4	27.284	0	777.648	0	12.2	4	3.9	4	-1E+10	1	-1E+10	1	-1E+10	1	-1E+10	1	-1E+10	1	-1E+10	1
4901784	88	C	12/01/2017	10:46	-133.329	43.653	0	790.70	0	3.8590	0	34.3450	4	27.285	0	782.886	0	12.2	4	3.8	4	-1E+10	1	-1E+10	1	-1E+10	1	-1E+10	1	-1E+10	1	-1E+10	1
4901784	88	C	12/01/2017	10:46	-133.329	43.653	0	795.00	0	3.8450	0	34.3480	4	27.289	0	787.136	0	12.0	4	3.8	4	-1E+10	1	-1E+10	1	-1E+10	1	-1E+10	1	-1E+10	1	-1E+10	1
4901784	88	C	12/01/2017	10:46	-133.329	43.653	0	799.50	0	3.8280	0	34.3520	4	27.294	0	791.583	0	11.9	4	3.7	4	-1E+10	1	-1E+10	1	-1E+10	1	-1E+10	1	-1E+10	1	-1E+10	1
4901784	88	C	12/01/2017	10:46	-133.329	43.653	0	804.80	0	3.8100	0	34.3570	4	27.300	0	796.820	0	11.7	4	3.7	4	-1E+10	1	-1E+10	1	-1E+10	1	-1E+10	1	-1E+10	1	-1E+10	1
4901784	88	C	12/01/2017	10:46	-133.329	43.653	0	810.20	0	3.7870	0	34.3640	4	27.308	0	802.156	0	11.6	4	3.6	4	-1E+10	1	-1E+10	1	-1E+10	1	-1E+10	1	-1E+10	1	-1E+10	1
4901784	88	C	12/01/2017	10:46	-133.329	43.653	0	815.60	0	3.7670	0	34.3700	4	27.315	0	807.492	0	11.5	4	3.6	4	-1E+10	1	-1E+10	1	-1E+10	1	-1E+10	1	-1E+10	1	-1E+10	1
4901784	88	C	12/01/2017	10:46	-133.329	43.653	0	820.10	0	3.7530	0	34.3730	4	27.319	0	811.938	0	11.4	4	3.6	4	-1E+10	1	-1E+10	1	-1E+10	1	-1E+10	1	-1E+10	1	-1E+10	1
4901784	88	C	12/01/2017	10:46	-133.329	43.653	0	824.60	0	3.7340	0	34.3780	4	27.324	0	816.385	0	11.3	4	3.5	4	-1E+10	1	-1E+10	1	-1E+10	1	-1E+10	1	-1E+10	1	-1E+10	1
4901784	88	C	12/01/2017	10:46	-133.329	43.653	0	830.00	0	3.7150	0	34.3820	4	27.330	0	821.721	0	11.2	4	3.5	4	-1E+10	1	-1E+10	1	-1E+10	1	-1E+10	1	-1E+10	1	-1E+10	1
4901784	88	C	12/01/2017	10:46	-133.329	43.653	0	835.50	0	3.6980	0	34.3860	4	27.334	0	827.155	0	11.1	4	3.5	4	-1E+10	1	-1E+10	1	-1E+10	1	-1E+10	1	-1E+10	1	-1E+10	1
4901784	88	C	12/01/2017	10:46	-133.329	43.653	0	840.10	0	3.6780	0	34.3910	4	27.340	0	831.700	0	11.1	4	3.5	4	-1E+10	1	-1E+10	1	-1E+10	1	-1E+10	1	-1E+10	1	-1E+10	1
4901784	88	C	12/01/2017	10:46	-133.329	43.653	0	844.80	0	3.6630	0	34.3950	4	27.345	0	836.343	0	11.1	4	3.5	4	-1E+10	1	-1E+10	1	-1E+10	1	-1E+10	1	-1E+10	1	-1E+10	1
4901784	88	C	12/01/2017	10:46	-133.329	43.653	0	850.30	0	3.6610	0	34.3960	4	27.346	0	841.777	0	11.1	4	3.5	4	-1E+10	1	-1E+10	1	-1E+10	1	-1E+10	1	-1E+10	1	-1E+10	1
4901784	88	C	12/01/2017	10:46	-133.329	43.653	0	855.00	0	3.6570	0	34.3980	4	27.348	0	846.421	0	11.0	4	3.5	4	-1E+10	1	-1E+10	1	-1E+10	1	-1E+10	1	-1E+10	1	-1E+10	1
4901784	88	C	12/01/2017	10:46	-133.329	43.653	0	859.60	0	3.6460	0	34.4000	4	27.351	0	850.965	0	11.0	4	3.5	4	-1E+10	1	-1E+10	1	-1E+10	1	-1E+10	1	-1E+10	1	-1E+10	1
4901784	88	C	12/01/2017	10:46	-133.329	43.653	0	865.20	0	3.6390	0	34.4020	4	27.353	0	856.497	0	11.0	4	3.5	4	-1E+10	1	-1E+10	1	-1E+10	1	-1E+10	1	-1E+10	1	-1E+10	1
4901784	88	C	12/01/2017	10:46	-133.329	43.653	0	870.60	0	3.6340	0	34.4030	4	27.354	0	861.832	0	11.0	4	3.5	4	-1E+10	1	-1E+10	1	-1E+10	1	-1E+10	1	-1E+10	1	-1E+10	1
4901784	88	C	12/01/2017	10:46	-133.329	43.653	0	875.20	0	3.6210	0	34.4070	4	27.359	0	866.376	0	11.0	4	3.5	4	-1E+10	1	-1E+10	1	-1E+10	1	-1E+10	1	-1E+10	1	-1E+10	1
4901784	88	C	12/01/2017	10:46	-133.329	43.653	0	879.80	0	3.6000	0	34.4110	4	27.364	0	870.920	0	11.0	4	3.5	4	-1E+10	1	-1E+10	1	-1E+10	1	-1E+10	1	-1E+10	1	-1E+10	1
4901784	88	C	12/01/2017	10:46	-133.329	43.653	0	885.40	0	3.5860	0	34.4140	4	27.368	0	876.452	0	11.1	4	3.5	4	-1E+10	1	-1E+10	1	-1E+10	1	-1E+10	1	-1E+10	1	-1E+10	1
4901784	88	C	12/01/2017	10:46	-133.329	43.653	0	890.10	0	3.5740	0	34.4180	4	27.372	0	881.094	0	11.1	4	3.5	4	-1E+10	1	-1E+10	1	-1E+10	1	-1E+10	1	-1E+10	1	-1E+10	1
4901784	88	C	12/01/2017	10:46	-133.329	43.653	0	894.80	0	3.5660	0	34.4200	4	27.375	0	885.737	0	11.1	4	3.5	4	-1E+10	1	-1E+10	1	-1E+10	1	-1E+10	1	-1E+10	1	-1E+10	1
4901784	88	C	12/01/2017	10:46	-133.329	43.653	0	900.40	0	3.5580	0	34.4220	4	27.377	0	891.268	0	11.1	4	3.5	4	-1E+10	1	-1E+10	1	-1E+10	1	-1E+10	1	-1E+10	1	-1E+10	1
4901784	88	C	12/01/2017	10:46	-133.329	43.653	0	905.10	0	3.5550	0	34.4230	4	27.378	0	895.911	0	11.2	4	3.5	4	-1E+10	1	-1E+10	1	-1E+10	1	-1E+10	1	-1E+10	1	-1E+10	1
4901784	88	C	12/01/2017	10:46	-133.329	43.653	0	909.80	0	3.5430	0	34.4250	4	27.381	0	900.553	0	11.2	4	3.5	4	-1E+10	1	-1E+10	1	-1E+10	1	-1E+10	1	-1E+10	1	-1E+10	1
4901784	88	C	12/01/2017	10:46	-133.329	43.653	0	915.50	0	3.5260	0	34.4290	4	27.386	0	906.182	0	11.2	4	3.5	4	-1E+10	1	-1E+10	1	-1E+10	1	-1E+10	1	-1E+10	1	-1E+10	1
4901784	88	C	12/01/2017	10:46	-133.329	43.653	0	920.40	0	3.5170	0	34.4320	4	27.389	0	911.022	0	11.2	4	3.5	4	-1E+10	1	-1E+10	1	-1E+10	1	-1E+10	1	-1E+10	1	-1E+10	1
4901784	88	C	12/01/2017	10:46	-133.329	43.653	0	924.90	0	3.5100	0	34.4330	4	27.391	0	915.466	0	11.3	4	3.5	4	-1E+10	1	-1E+10	1	-1E+10	1	-1E+10	1	-1E+10	1	-1E+10	1
4901784	88	C	12/01/2017	10:46	-133.329	43.653	0	929.90	0	3.5000	0	34.4360	4	27.394	0	920.404	0	11.3	4	3.5	4	-1E+10	1	-1E+10	1	-1E+10	1	-1E+10	1	-1E+10	1	-1E+10	1
4901784	88	C	12/01/2017	10:46	-133.329	43.653	0	934.80	0	3.4820	0	34.4400	4	27.399	0	925.243	0	11.4	4	3.6	4	-1E+10	1	-1E+10	1	-1E+10	1	-1E+10	1	-1E+10	1	-1E+10	1
4901784	88	C	12/01/2017	10:46	-133.329	43.653	0	939.70	0	3.4740	0	34.4420	4	27.402	0	930.082	0	11.4	4	3.6	4	-1E+10	1	-1E+10	1	-1E+10	1	-1E+10	1	-1E+10	1	-1E+10	1
4901784	88	C	12/01/2017	10:46	-133.329	43.653	0	944.70	0	3.4590	0	34.4460	4	27.406	0	935.020	0	11.5	4	3.6	4	-1E+10	1	-1E+10	1	-1E+10	1	-1E+10	1	-1E+10	1	-1E+10	1
4901784	88	C	12/01/2017	10:46	-133.329	43.653	0	949.80	0	3.4400	0	34.4500	4	27.411	0	940.056	0	11.6	4	3.6	4	-1E+10	1	-1E+10	1	-1E+10	1	-1E+10	1	-1E+10	1	-1E+10	1
4901784	88	C	12/01/2017	10:46	-133.329	43.653	0	954.90	0	3.4330	0	34.4520	4	27.414	0	945.093	0	11.6	4	3.6	4	-1E+10	1	-1E+10	1	-1E+10	1	-1E+10	1	-1E+10	1	-1E+10	1
4901784	88	C	12/01/2017	10:46	-133.329	43.653	0	960.00	0	3.4230	0	34.4540	4	27.416	0	950.129	0	11.7	4	3.6	4	-1E+10	1	-1E+10	1	-1E+10	1	-1E+10	1	-1E+10	1	-1E+10	1
4901784	88	C	12/01/2017	10:46	-133.329	43.653	0	965.10	0	3.4140	0	34.4560	4	27.419	0	955.165	0	11.7	4	3.7	4	-1E+10	1	-1E+10	1	-1E+10	1	-1E+10	1	-1E+10	1	-1E+10	1
4901784	88	C	12/01/2017	10:46	-133.329	43.653	0	970.20	0	3.4040	0	34.4590	4	27.422	0	960.200	0	11.8	4	3.7	4	-1E+10	1	-1E+10	1	-1E+10	1	-1E+10	1	-1E+10	1	-1E+10	1
4901784	88	C	12/01/2017	10:46	-133.329	43.653	0	975.40	0	3.3890	0	34.4630	4	27.427	0	965.335	0	11.9	4	3.7	4	-1E+10	1	-1E+10	1	-1E+10	1	-1E+10	1	-1E+10	1	-1E+10	1
4901784	88	C	12/01/2017	10:46	-133.329	43.653	0	980.60	0	3.3790	0	34.4660	4	27.430	0	970.469	0	12.1	4	3.8	4	-1E+10	1	-1E+10	1	-1E+10	1	-1E+10	1	-1E+10	1	-1E+10	1
4901784	88	C	12/01/2017	10:46	-133.329	43.653	0	985.10	0	3.3680	0	34.4680	4	27.433	0	974.912	0	12.1	4	3.8	4	-1E+10	1	-1E+10	1	-1E+10	1	-1E+10	1	-1E+10	1	-1E+10	1
4901784	88	C	12/01/2017	10:46	-133.329	43.653	0	989.50	0	3.3610	0	34.4710	4	27.436	0	979.256	0	12.3	4	3.8	4	-1E+10	1	-1E+10	1	-1E+10	1	-1E+10	1	-1E+10	1	-1E+10	1
4901784	88	C	12/01/2017	10:46	-133.329	43.653	0	994.80	0	3.3520	0	34.4730	4	27.438	0	984.489	0	12.3	4	3.8	4	-1E+10	1	-1E+10	1	-1E+10	1	-1E+10	1	-1E+10	1	-1E+10	1
4901784	88	C	12/01/2017	10:46	-133.329	43.653	0	1000.30	0	3.3460	0	34.4740	4	27.440	0	989.919	0	12.4	4	3.9	4	-1E+10	1	-1E+10	1	-1E+10	1	-1E+10	1	-1E+10	1	-1E+10	1
4901784	88	C	12/01/2017	10:46	-133.329	43.653	0	1005.60	0	3.3380	0	34.4760	4	27.442	0	995.151	0	12.5	4	3.9	4	-1E+10	1	-1E+10	1	-1E+10	1	-1E+10	1	-1E+10	1	-1E+10	1
4901784	88	C	12/01/2017	10:46	-133.329	43.653	0	1010.20	0	3.3300	0	34.4780	4	27.444	0	999.693	0	12.7	4	3.9	4	-1E+10	1	-1E+10	1	-1E+10	1	-1E+10	1	-1E+10	1	-1E+10	1
4901784	88	C	12/01/2017	10:46	-133.329	43.653	0	1014.70	0	3.3190	0	34.4810	4	27.448	0	1004.135	0	12.9	4	4.0	4	-1E+10	1	-1E+10	1	-1E+10	1	-1E+10	1	-1E+10	1	-1E+10	1
4901784	88	C	12/01/2017	10:46	-133.329	43.653	0	1020.20	0	3.3080	0	34.4840	4	27.451	0	1009.565	0	13.1	4	4.1	4	-1E+10	1	-1E+10	1	-1E+10	1	-1E+10	1	-1E+10	1	-1E+10	1
4901784	88	C	12/01/2017	10:46	-133.329	43.653	0	1024.90	0	3.2990	0	34.4870	4	27.455	0	1014.204	0	13.3	4	4.1	4	-1E+10	1	-1E+10	1	-1E+10	1	-1E+10	1	-1E+10	1	-1E+10	1
4901784	88	C	12/01/2017	10:46	-133.329	43.653	0	1029.50	0	3.2970	0	34.4880	4	27.456	0	1018.745	0	13.5	4	4.2	4	-1E+10	1	-1E+10	1	-1E+10	1	-1E+10	1	-1E+10	1	-1E+10	1
4901784	88	C	12/01/2017	10:46	-133.329	43.653	0	1035.00	0	3.2880	0	34.4920	4	27.460	0	1024.174	0	13.7	4	4.3	4	-1E+10	1	-1E+10	1	-1E+10	1	-1E+10	1	-1E+10	1	-1E+10	1
4901784	88	C	12/01/2017	10:46	-133.329	43.653	0	1040.50	0	3.2740	0	34.4950	4	27.463	0	1029.603	0	13.9	4	4.3	4	-1E+10	1	-1E+10	1	-1E+10	1	-1E+10	1	-1E+10	1	-1E+10	1
4901784	88	C	12/01/2017	10:46	-133.329	43.653	0	1045.10	0	3.2650	0	34.4970	4	27.466	0	1034.144	0	14.1	4	4.4	4	-1E+10	1	-1E+10	1	-1E+10	1	-1E+10	1	-1E+10	1	-1E+10	1
4901784	88	C	12/01/2017	10:46	-133.329	43.653	0	1049.80	0	3.2610	0	34.4990	4	27.468	0	1038.783	0	14.2	4	4.4	4	-1E+10	1	-1E+10	1	-1E+10	1	-1E+10	1	-1E+10	1	-1E+10	1
4901784	88	C	12/01/2017	10:46	-133.329	43.653	0	1054.50	0	3.2580	0	34.5000	4	27.469	0	1043.422	0	14.2	4	4.4	4	-1E+10	1	-1E+10	1	-1E+10	1	-1E+10	1	-1E+10	1	-1E+10	1
4901784	88	C	12/01/2017	10:46	-133.329	43.653	0	1059.10	0	3.2530	0	34.5010	4	27.470	0	1047.962	0	14.3	4	4.5	4	-1E+10	1	-1E+10	1	-1E+10	1	-1E+10	1	-1E+10	1	-1E+10	1
4901784	88	C	12/01/2017	10:46	-133.329	43.653	0	1064.40	0	3.2430	0	34.5020	4	27.472	0	1053.193	0	14.4	4	4.5	4	-1E+10	1	-1E+10	1	-1E+10	1	-1E+10	1	-1E+10	1	-1E+10	1
4901784	88	C	12/01/2017	10:46	-133.329	43.653	0	1069.30	0	3.2350	0	34.5040	4	27.474	0	1058.029	0	14.5	4	4.5	4	-1E+10	1	-1E+10	1	-1E+10	1	-1E+10	1	-1E+10	1	-1E+10	1
4901784	88	C	12/01/2017	10:46	-133.329	43.653	0	1074.20	0	3.2290	0	34.5040	4	27.475	0	1062.865	0	14.6	4	4.5	4	-1E+10	1	-1E+10	1	-1E+10	1	-1E+10	1	-1E+10	1	-1E+10	1
4901784	88	C	12/01/2017	10:46	-133.329	43.653	0	1079.20	0	3.2190	0	34.5060	4	27.478	0	1067.799	0	14.7	4	4.6	4	-1E+10	1	-1E+10	1	-1E+10	1	-1E+10	1	-1E+10	1	-1E+10	1
4901784	88	C	12/01/2017	10:46	-133.329	43.653	0	1084.30	0	3.2100	0	34.5080	4	27.480	0	1072.833	0	14.9	4	4.6	4	-1E+10	1	-1E+10	1	-1E+10	1	-1E+10	1	-1E+10	1	-1E+10	1
4901784	88	C	12/01/2017	10:46	-133.329	43.653	0	1089.30	0	3.2000	0	34.5090	4	27.482	0	1077.767	0	15.0	4	4.6	4	-1E+10	1	-1E+10	1	-1E+10	1	-1E+10	1	-1E+10	1	-1E+10	1
4901784	88	C	12/01/2017	10:46	-133.329	43.653	0	1094.30	0	3.1850	0	34.5110	4	27.485	0	1082.701	0	15.1	4	4.7	4	-1E+10	1	-1E+10	1	-1E+10	1	-1E+10	1	-1E+10	1	-1E+10	1
4901784	88	C	12/01/2017	10:46	-133.329	43.653	0	1099.30	0	3.1780	0	34.5130	4	27.487	0	1087.635	0	15.1	4	4.7	4	-1E+10	1	-1E+10	1	-1E+10	1	-1E+10	1	-1E+10	1	-1E+10	1
4901784	88	C	12/01/2017	10:46	-133.329	43.653	0	1104.30	0	3.1720	0	34.5130	4	27.488	0	1092.569	0	15.2	4	4.7	4	-1E+10	1	-1E+10	1	-1E+10	1	-1E+10	1	-1E+10	1	-1E+10	1
4901784	88	C	12/01/2017	10:46	-133.329	43.653	0	1109.70	0	3.1630	0	34.5140	4	27.489	0	1097.897	0	15.3	4	4.8	4	-1E+10	1	-1E+10	1	-1E+10	1	-1E+10	1	-1E+10	1	-1E+10	1
4901784	88	C	12/01/2017	10:46	-133.329	43.653	0	1115.30	0	3.1540	0	34.5160	4	27.492	0	1103.423	0	15.5	4	4.8	4	-1E+10	1	-1E+10	1	-1E+10	1	-1E+10	1	-1E+10	1	-1E+10	1
4901784	88	C	12/01/2017	10:46	-133.329	43.653	0	1120.00	0	3.1450	0	34.5170	4	27.493	0	1108.061	0	15.6	4	4.8	4	-1E+10	1	-1E+10	1	-1E+10	1	-1E+10	1	-1E+10	1	-1E+10	1
4901784	88	C	12/01/2017	10:46	-133.329	43.653	0	1124.70	0	3.1370	0	34.5190	4	27.496	0	1112.698	0	15.8	4	4.9	4	-1E+10	1	-1E+10	1	-1E+10	1	-1E+10	1	-1E+10	1	-1E+10	1
4901784	88	C	12/01/2017	10:46	-133.329	43.653	0	1130.50	0	3.1300	0	34.5200	4	27.497	0	1118.421	0	16.0	4	5.0	4	-1E+10	1	-1E+10	1	-1E+10	1	-1E+10	1	-1E+10	1	-1E+10	1
4901784	88	C	12/01/2017	10:46	-133.329	43.653	0	1135.40	0	3.1300	0	34.5200	4	27.497	0	1123.255	0	16.1	4	5.0	4	-1E+10	1	-1E+10	1	-1E+10	1	-1E+10	1	-1E+10	1	-1E+10	1
4901784	88	C	12/01/2017	10:46	-133.329	43.653	0	1140.20	0	3.1270	0	34.5210	4	27.498	0	1127.991	0	16.2	4	5.0	4	-1E+10	1	-1E+10	1	-1E+10	1	-1E+10	1	-1E+10	1	-1E+10	1
4901784	88	C	12/01/2017	10:46	-133.329	43.653	0	1145.00	0	3.1240	0	34.5210	4	27.499	0	1132.727	0	16.3	4	5.0	4	-1E+10	1	-1E+10	1	-1E+10	1	-1E+10	1	-1E+10	1	-1E+10	1
4901784	88	C	12/01/2017	10:46	-133.329	43.653	0	1149.90	0	3.1190	0	34.5220	4	27.500	0	1137.561	0	16.4	4	5.1	4	-1E+10	1	-1E+10	1	-1E+10	1	-1E+10	1	-1E+10	1	-1E+10	1
4901784	88	C	12/01/2017	10:46	-133.329	43.653	0	1154.70	0	3.1080	0	34.5230	4	27.502	0	1142.297	0	16.5	4	5.1	4	-1E+10	1	-1E+10	1	-1E+10	1	-1E+10	1	-1E+10	1	-1E+10	1
4901784	88	C	12/01/2017	10:46	-133.329	43.653	0	1159.50	0	3.1020	0	34.5250	4	27.504	0	1147.032	0	16.5	4	5.1	4	-1E+10	1	-1E+10	1	-1E+10	1	-1E+10	1	-1E+10	1	-1E+10	1
4901784	88	C	12/01/2017	10:46	-133.329	43.653	0	1165.40	0	3.0930	0	34.5260	4	27.506	0	1152.852	0	16.7	4	5.2	4	-1E+10	1	-1E+10	1	-1E+10	1	-1E+10	1	-1E+10	1	-1E+10	1
4901784	88	C	12/01/2017	10:46	-133.329	43.653	0	1170.20	0	3.0790	0	34.5280	4	27.509	0	1157.587	0	16.8	4	5.2	4	-1E+10	1	-1E+10	1	-1E+10	1	-1E+10	1	-1E+10	1	-1E+10	1
4901784	88	C	12/01/2017	10:46	-133.329	43.653	0	1175.10	0	3.0690	0	34.5300	4	27.511	0	1162.421	0	17.0	4	5.2	4	-1E+10	1	-1E+10	1	-1E+10	1	-1E+10	1	-1E+10	1	-1E+10	1
4901784	88	C	12/01/2017	10:46	-133.329	43.653	0	1180.00	0	3.0630	0	34.5310	4	27.513	0	1167.255	0	17.0	4	5.3	4	-1E+10	1	-1E+10	1	-1E+10	1	-1E+10	1	-1E+10	1	-1E+10	1
4901784	88	C	12/01/2017	10:46	-133.329	43.653	0	1185.00	0	3.0570	0	34.5310	4	27.513	0	1172.187	0	17.2	4	5.3	4	-1E+10	1	-1E+10	1	-1E+10	1	-1E+10	1	-1E+10	1	-1E+10	1
4901784	88	C	12/01/2017	10:46	-133.329	43.653	0	1189.90	0	3.0470	0	34.5330	4	27.516	0	1177.020	0	17.3	4	5.4	4	-1E+10	1	-1E+10	1	-1E+10	1	-1E+10	1	-1E+10	1	-1E+10	1
4901784	88	C	12/01/2017	10:46	-133.329	43.653	0	1194.90	0	3.0310	0	34.5350	4	27.519	0	1181.952	0	17.5	4	5.4	4	-1E+10	1	-1E+10	1	-1E+10	1	-1E+10	1	-1E+10	1	-1E+10	1
4901784	88	C	12/01/2017	10:46	-133.329	43.653	0	1199.90	0	3.0200	0	34.5370	4	27.521	0	1186.884	0	17.6	4	5.4	4	-1E+10	1	-1E+10	1	-1E+10	1	-1E+10	1	-1E+10	1	-1E+10	1
4901784	88	C	12/01/2017	10:46	-133.329	43.653	0	1205.00	0	3.0080	0	34.5380	4	27.523	0	1191.914	0	17.7	4	5.5	4	-1E+10	1	-1E+10	1	-1E+10	1	-1E+10	1	-1E+10	1	-1E+10	1
4901784	88	C	12/01/2017	10:46	-133.329	43.653	0	1210.00	0	2.9970	0	34.5390	4	27.525	0	1196.845	0	17.7	4	5.5	4	-1E+10	1	-1E+10	1	-1E+10	1	-1E+10	1	-1E+10	1	-1E+10	1
4901784	88	C	12/01/2017	10:46	-133.329	43.653	0	1215.10	0	2.9900	0	34.5400	4	27.527	0	1201.875	0	17.8	4	5.5	4	-1E+10	1	-1E+10	1	-1E+10	1	-1E+10	1	-1E+10	1	-1E+10	1
4901784	88	C	12/01/2017	10:46	-133.329	43.653	0	1220.10	0	2.9840	0	34.5400	4	27.527	0	1206.806	0	17.8	4	5.5	4	-1E+10	1	-1E+10	1	-1E+10	1	-1E+10	1	-1E+10	1	-1E+10	1
4901784	88	C	12/01/2017	10:46	-133.329	43.653	0	1225.30	0	2.9750	0	34.5400	4	27.528	0	1211.935	0	18.0	4	5.5	4	-1E+10	1	-1E+10	1	-1E+10	1	-1E+10	1	-1E+10	1	-1E+10	1
4901784	88	C	12/01/2017	10:46	-133.329	43.653	0	1230.50	0	2.9650	0	34.5430	4	27.531	0	1217.063	0	18.3	4	5.6	4	-1E+10	1	-1E+10	1	-1E+10	1	-1E+10	1	-1E+10	1	-1E+10	1
4901784	88	C	12/01/2017	10:46	-133.329	43.653	0	1234.50	0	2.9630	0	34.5440	4	27.532	0	1221.008	0	18.5	4	5.7	4	-1E+10	1	-1E+10	1	-1E+10	1	-1E+10	1	-1E+10	1	-1E+10	1
4901784	88	C	12/01/2017	10:46	-133.329	43.653	0	1239.10	0	2.9520	0	34.5460	4	27.535	0	1225.544	0	18.6	4	5.8	4	-1E+10	1	-1E+10	1	-1E+10	1	-1E+10	1	-1E+10	1	-1E+10	1
4901784	88	C	12/01/2017	10:46	-133.329	43.653	0	1244.60	0	2.9490	0	34.5460	4	27.535	0	1230.968	0	18.7	4	5.8	4	-1E+10	1	-1E+10	1	-1E+10	1	-1E+10	1	-1E+10	1	-1E+10	1
4901784	88	C	12/01/2017	10:46	-133.329	43.653	0	1249.50	0	2.9330	0	34.5480	4	27.538	0	1235.800	0	19.0	4	5.9	4	-1E+10	1	-1E+10	1	-1E+10	1	-1E+10	1	-1E+10	1	-1E+10	1
4901784	88	C	12/01/2017	10:46	-133.329	43.653	0	1254.40	0	2.9260	0	34.5490	4	27.540	0	1240.632	0	19.3	4	5.9	4	-1E+10	1	-1E+10	1	-1E+10	1	-1E+10	1	-1E+10	1	-1E+10	1
4901784	88	C	12/01/2017	10:46	-133.329	43.653	0	1259.30	0	2.9250	0	34.5510	4	27.541	0	1245.463	0	19.6	4	6.0	4	-1E+10	1	-1E+10	1	-1E+10	1	-1E+10	1	-1E+10	1	-1E+10	1
4901784	88	C	12/01/2017	10:46	-133.329	43.653	0	1264.40	0	2.9130	0	34.5530	4	27.544	0	1250.492	0	19.9	4	6.1	4	-1E+10	1	-1E+10	1	-1E+10	1	-1E+10	1	-1E+10	1	-1E+10	1
4901784	88	C	12/01/2017	10:46	-133.329	43.653	0	1269.30	0	2.9030	0	34.5550	4	27.547	0	1255.324	0	20.1	4	6.2	4	-1E+10	1	-1E+10	1	-1E+10	1	-1E+10	1	-1E+10	1	-1E+10	1
4901784	88	C	12/01/2017	10:46	-133.329	43.653	0	1274.30	0	2.8870	0	34.5560	4	27.549	0	1260.254	0	20.3	4	6.3	4	-1E+10	1	-1E+10	1	-1E+10	1	-1E+10	1	-1E+10	1	-1E+10	1
4901784	88	C	12/01/2017	10:46	-133.329	43.653	0	1279.30	0	2.8670	0	34.5580	4	27.552	0	1265.184	0	20.6	4	6.3	4	-1E+10	1	-1E+10	1	-1E+10	1	-1E+10	1	-1E+10	1	-1E+10	1
4901784	88	C	12/01/2017	10:46	-133.329	43.653	0	1284.40	0	2.8670	0	34.5600	4	27.554	0	1270.212	0	20.9	4	6.4	4	-1E+10	1	-1E+10	1	-1E+10	1	-1E+10	1	-1E+10	1	-1E+10	1
4901784	88	C	12/01/2017	10:46	-133.329	43.653	0	1289.50	0	2.8640	0	34.5610	4	27.555	0	1275.240	0	20.9	4	6.4	4	-1E+10	1	-1E+10	1	-1E+10	1	-1E+10	1	-1E+10	1	-1E+10	1
4901784	88	C	12/01/2017	10:46	-133.329	43.653	0	1294.70	0	2.8530	0	34.5610	4	27.556	0	1280.367	0	21.0	4	6.5	4	-1E+10	1	-1E+10	1	-1E+10	1	-1E+10	1	-1E+10	1	-1E+10	1
4901784	88	C	12/01/2017	10:46	-133.329	43.653	0	1299.90	0	2.8470	0	34.5630	4	27.558	0	1285.493	0	21.2	4	6.5	4	-1E+10	1	-1E+10	1	-1E+10	1	-1E+10	1	-1E+10	1	-1E+10	1
4901784	88	C	12/01/2017	10:46	-133.329	43.653	0	1305.10	0	2.8460	0	34.5630	4	27.558	0	1290.620	0	21.4	4	6.6	4	-1E+10	1	-1E+10	1	-1E+10	1	-1E+10	1	-1E+10	1	-1E+10	1
4901784	88	C	12/01/2017	10:46	-133.329	43.653	0	1310.30	0	2.8350	0	34.5640	4	27.560	0	1295.746	0	21.6	4	6.7	4	-1E+10	1	-1E+10	1	-1E+10	1	-1E+10	1	-1E+10	1	-1E+10	1
4901784	88	C	12/01/2017	10:46	-133.329	43.653	0	1315.60	0	2.8260	0	34.5660	4	27.563	0	1300.971	0	22.0	4	6.8	4	-1E+10	1	-1E+10	1	-1E+10	1	-1E+10	1	-1E+10	1	-1E+10	1
4901784	88	C	12/01/2017	10:46	-133.329	43.653	0	1320.00	0	2.8220	0	34.5680	4	27.565	0	1305.308	0	22.2	4	6.8	4	-1E+10	1	-1E+10	1	-1E+10	1	-1E+10	1	-1E+10	1	-1E+10	1
4901784	88	C	12/01/2017	10:46	-133.329	43.653	0	1324.40	0	2.8170	0	34.5680	4	27.565	0	1309.646	0	22.2	4	6.8	4	-1E+10	1	-1E+10	1	-1E+10	1	-1E+10	1	-1E+10	1	-1E+10	1
4901784	88	C	12/01/2017	10:46	-133.329	43.653	0	1329.80	0	2.8140	0	34.5690	4	27.566	0	1314.969	0	22.4	4	6.9	4	-1E+10	1	-1E+10	1	-1E+10	1	-1E+10	1	-1E+10	1	-1E+10	1
4901784	88	C	12/01/2017	10:46	-133.329	43.653	0	1335.20	0	2.8060	0	34.5700	4	27.568	0	1320.292	0	22.5	4	6.9	4	-1E+10	1	-1E+10	1	-1E+10	1	-1E+10	1	-1E+10	1	-1E+10	1
4901784	88	C	12/01/2017	10:46	-133.329	43.653	0	1340.70	0	2.8020	0	34.5700	4	27.568	0	1325.713	0	22.6	4	6.9	4	-1E+10	1	-1E+10	1	-1E+10	1	-1E+10	1	-1E+10	1	-1E+10	1
4901784	88	C	12/01/2017	10:46	-133.329	43.653	0	1345.20	0	2.7970	0	34.5710	4	27.569	0	1330.148	0	22.6	4	7.0	4	-1E+10	1	-1E+10	1	-1E+10	1	-1E+10	1	-1E+10	1	-1E+10	1
4901784	88	C	12/01/2017	10:46	-133.329	43.653	0	1349.80	0	2.7900	0	34.5710	4	27.570	0	1334.682	0	22.7	4	7.0	4	-1E+10	1	-1E+10	1	-1E+10	1	-1E+10	1	-1E+10	1	-1E+10	1
4901784	88	C	12/01/2017	10:46	-133.329	43.653	0	1355.20	0	2.7830	0	34.5720	4	27.571	0	1340.005	0	22.7	4	7.0	4	-1E+10	1	-1E+10	1	-1E+10	1	-1E+10	1	-1E+10	1	-1E+10	1
4901784	88	C	12/01/2017	10:46	-133.329	43.653	0	1360.60	0	2.7730	0	34.5710	4	27.571	0	1345.327	0	22.6	4	7.0	4	-1E+10	1	-1E+10	1	-1E+10	1	-1E+10	1	-1E+10	1	-1E+10	1
4901784	88	C	12/01/2017	10:46	-133.329	43.653	0	1365.20	0	2.7530	0	34.5710	4	27.573	0	1349.861	0	22.6	4	6.9	4	-1E+10	1	-1E+10	1	-1E+10	1	-1E+10	1	-1E+10	1	-1E+10	1
4901784	88	C	12/01/2017	10:46	-133.329	43.653	0	1369.90	0	2.7470	0	34.5710	4	27.574	0	1354.493	0	22.8	4	7.0	4	-1E+10	1	-1E+10	1	-1E+10	1	-1E+10	1	-1E+10	1	-1E+10	1
4901784	88	C	12/01/2017	10:46	-133.329	43.653	0	1375.40	0	2.7340	0	34.5730	4	27.577	0	1359.913	0	23.1	4	7.1	4	-1E+10	1	-1E+10	1	-1E+10	1	-1E+10	1	-1E+10	1	-1E+10	1
4901784	88	C	12/01/2017	10:46	-133.329	43.653	0	1380.00	0	2.7250	0	34.5740	4	27.578	0	1364.447	0	23.3	4	7.1	4	-1E+10	1	-1E+10	1	-1E+10	1	-1E+10	1	-1E+10	1	-1E+10	1
4901784	88	C	12/01/2017	10:46	-133.329	43.653	0	1384.60	0	2.7160	0	34.5750	4	27.580	0	1368.980	0	23.4	4	7.2	4	-1E+10	1	-1E+10	1	-1E+10	1	-1E+10	1	-1E+10	1	-1E+10	1
4901784	88	C	12/01/2017	10:46	-133.329	43.653	0	1390.20	0	2.7030	0	34.5760	4	27.582	0	1374.498	0	23.6	4	7.3	4	-1E+10	1	-1E+10	1	-1E+10	1	-1E+10	1	-1E+10	1	-1E+10	1
4901784	88	C	12/01/2017	10:46	-133.329	43.653	0	1394.80	0	2.6940	0	34.5770	4	27.583	0	1379.031	0	23.8	4	7.3	4	-1E+10	1	-1E+10	1	-1E+10	1	-1E+10	1	-1E+10	1	-1E+10	1
4901784	88	C	12/01/2017	10:46	-133.329	43.653	0	1399.50	0	2.6830	0	34.5780	4	27.585	0	1383.663	0	23.9	4	7.3	4	-1E+10	1	-1E+10	1	-1E+10	1	-1E+10	1	-1E+10	1	-1E+10	1
4901784	88	C	12/01/2017	10:46	-133.329	43.653	0	1405.20	0	2.6720	0	34.5780	4	27.586	0	1389.280	0	24.1	4	7.4	4	-1E+10	1	-1E+10	1	-1E+10	1	-1E+10	1	-1E+10	1	-1E+10	1
4901784	88	C	12/01/2017	10:46	-133.329	43.653	0	1409.90	0	2.6610	0	34.5790	4	27.588	0	1393.911	0	24.2	4	7.4	4	-1E+10	1	-1E+10	1	-1E+10	1	-1E+10	1	-1E+10	1	-1E+10	1
4901784	88	C	12/01/2017	10:46	-133.329	43.653	0	1414.60	0	2.6570	0	34.5790	4	27.588	0	1398.542	0	24.3	4	7.5	4	-1E+10	1	-1E+10	1	-1E+10	1	-1E+10	1	-1E+10	1	-1E+10	1
4901784	88	C	12/01/2017	10:46	-133.329	43.653	0	1420.10	0	2.6430	0	34.5800	4	27.590	0	1403.961	0	24.6	4	7.5	4	-1E+10	1	-1E+10	1	-1E+10	1	-1E+10	1	-1E+10	1	-1E+10	1
4901784	88	C	12/01/2017	10:46	-133.329	43.653	0	1425.50	0	2.6350	0	34.5810	4	27.592	0	1409.282	0	24.8	4	7.6	4	-1E+10	1	-1E+10	1	-1E+10	1	-1E+10	1	-1E+10	1	-1E+10	1
4901784	88	C	12/01/2017	10:46	-133.329	43.653	0	1430.40	0	2.6220	0	34.5810	4	27.593	0	1414.110	0	25.1	4	7.7	4	-1E+10	1	-1E+10	1	-1E+10	1	-1E+10	1	-1E+10	1	-1E+10	1
4901784	88	C	12/01/2017	10:46	-133.329	43.653	0	1435.30	0	2.6120	0	34.5810	4	27.594	0	1418.937	0	25.3	4	7.7	4	-1E+10	1	-1E+10	1	-1E+10	1	-1E+10	1	-1E+10	1	-1E+10	1
4901784	88	C	12/01/2017	10:46	-133.329	43.653	0	1440.20	0	2.6020	0	34.5820	4	27.595	0	1423.765	0	25.5	4	7.8	4	-1E+10	1	-1E+10	1	-1E+10	1	-1E+10	1	-1E+10	1	-1E+10	1
4901784	88	C	12/01/2017	10:46	-133.329	43.653	0	1445.00	0	2.5950	0	34.5830	4	27.597	0	1428.494	0	25.7	4	7.9	4	-1E+10	1	-1E+10	1	-1E+10	1	-1E+10	1	-1E+10	1	-1E+10	1
4901784	88	C	12/01/2017	10:46	-133.329	43.653	0	1450.00	0	2.5870	0	34.5840	4	27.598	0	1433.420	0	25.9	4	7.9	4	-1E+10	1	-1E+10	1	-1E+10	1	-1E+10	1	-1E+10	1	-1E+10	1
4901784	88	C	12/01/2017	10:46	-133.329	43.653	0	1454.90	0	2.5790	0	34.5850	4	27.600	0	1438.247	0	26.1	4	8.0	4	-1E+10	1	-1E+10	1	-1E+10	1	-1E+10	1	-1E+10	1	-1E+10	1
4901784	88	C	12/01/2017	10:46	-133.329	43.653	0	1459.90	0	2.5690	0	34.5870	4	27.602	0	1443.173	0	26.3	4	8.0	4	-1E+10	1	-1E+10	1	-1E+10	1	-1E+10	1	-1E+10	1	-1E+10	1
4901784	88	C	12/01/2017	10:46	-133.329	43.653	0	1464.90	0	2.5630	0	34.5880	4	27.604	0	1448.099	0	26.5	4	8.1	4	-1E+10	1	-1E+10	1	-1E+10	1	-1E+10	1	-1E+10	1	-1E+10	1
4901784	88	C	12/01/2017	10:46	-133.329	43.653	0	1469.90	0	2.5580	0	34.5880	4	27.604	0	1453.024	0	26.7	4	8.2	4	-1E+10	1	-1E+10	1	-1E+10	1	-1E+10	1	-1E+10	1	-1E+10	1
4901784	88	C	12/01/2017	10:46	-133.329	43.653	0	1475.00	0	2.5470	0	34.5890	4	27.606	0	1458.048	0	27.1	4	8.3	4	-1E+10	1	-1E+10	1	-1E+10	1	-1E+10	1	-1E+10	1	-1E+10	1
4901784	88	C	12/01/2017	10:46	-133.329	43.653	0	1480.20	0	2.5360	0	34.5900	4	27.608	0	1463.170	0	27.4	4	8.4	4	-1E+10	1	-1E+10	1	-1E+10	1	-1E+10	1	-1E+10	1	-1E+10	1
4901784	88	C	12/01/2017	10:46	-133.329	43.653	0	1485.20	0	2.5230	0	34.5920	4	27.610	0	1468.095	0	27.7	4	8.5	4	-1E+10	1	-1E+10	1	-1E+10	1	-1E+10	1	-1E+10	1	-1E+10	1
4901784	88	C	12/01/2017	10:46	-133.329	43.653	0	1490.40	0	2.5160	0	34.5930	4	27.612	0	1473.217	0	27.9	4	8.5	4	-1E+10	1	-1E+10	1	-1E+10	1	-1E+10	1	-1E+10	1	-1E+10	1
4901784	88	C	12/01/2017	10:46	-133.329	43.653	0	1495.70	0	2.5050	0	34.5940	4	27.614	0	1478.438	0	28.3	4	8.6	4	-1E+10	1	-1E+10	1	-1E+10	1	-1E+10	1	-1E+10	1	-1E+10	1
4901784	88	C	12/01/2017	10:46	-133.329	43.653	0	1500.00	0	2.4960	0	34.5950	4	27.615	0	1482.673	0	28.6	4	8.7	4	-1E+10	1	-1E+10	1	-1E+10	1	-1E+10	1	-1E+10	1	-1E+10	1
4901784	88	C	12/01/2017	10:46	-133.329	43.653	0	1504.40	0	2.4870	0	34.5950	4	27.616	0	1487.007	0	28.9	4	8.8	4	-1E+10	1	-1E+10	1	-1E+10	1	-1E+10	1	-1E+10	1	-1E+10	1
4901784	88	C	12/01/2017	10:46	-133.329	43.653	0	1509.60	0	2.4720	0	34.5970	4	27.619	0	1492.128	0	29.3	4	8.9	4	-1E+10	1	-1E+10	1	-1E+10	1	-1E+10	1	-1E+10	1	-1E+10	1
4901784	88	C	12/01/2017	10:46	-133.329	43.653	0	1514.90	0	2.4630	0	34.5980	4	27.620	0	1497.348	0	29.6	4	9.0	4	-1E+10	1	-1E+10	1	-1E+10	1	-1E+10	1	-1E+10	1	-1E+10	1
4901784	88	C	12/01/2017	10:46	-133.329	43.653	0	1520.20	0	2.4520	0	34.5990	4	27.622	0	1502.568	0	29.9	4	9.1	4	-1E+10	1	-1E+10	1	-1E+10	1	-1E+10	1	-1E+10	1	-1E+10	1
4901784	88	C	12/01/2017	10:46	-133.329	43.653	0	1525.50	0	2.4450	0	34.6000	4	27.623	0	1507.787	0	30.2	4	9.2	4	-1E+10	1	-1E+10	1	-1E+10	1	-1E+10	1	-1E+10	1	-1E+10	1
4901784	88	C	12/01/2017	10:46	-133.329	43.653	0	1529.90	0	2.4370	0	34.6020	4	27.626	0	1512.121	0	30.5	4	9.3	4	-1E+10	1	-1E+10	1	-1E+10	1	-1E+10	1	-1E+10	1	-1E+10	1
4901784	88	C	12/01/2017	10:46	-133.329	43.653	0	1534.40	0	2.4320	0	34.6020	4	27.626	0	1516.552	0	30.8	4	9.4	4	-1E+10	1	-1E+10	1	-1E+10	1	-1E+10	1	-1E+10	1	-1E+10	1
4901784	88	C	12/01/2017	10:46	-133.329	43.653	0	1539.70	0	2.4190	0	34.6030	4	27.628	0	1521.771	0	31.3	4	9.5	4	-1E+10	1	-1E+10	1	-1E+10	1	-1E+10	1	-1E+10	1	-1E+10	1
4901784	88	C	12/01/2017	10:46	-133.329	43.653	0	1545.20	0	2.4100	0	34.6050	4	27.631	0	1527.188	0	31.8	4	9.7	4	-1E+10	1	-1E+10	1	-1E+10	1	-1E+10	1	-1E+10	1	-1E+10	1
4901784	88	C	12/01/2017	10:46	-133.329	43.653	0	1550.60	0	2.4000	0	34.6070	4	27.633	0	1532.505	0	32.3	4	9.8	4	-1E+10	1	-1E+10	1	-1E+10	1	-1E+10	1	-1E+10	1	-1E+10	1
4901784	88	C	12/01/2017	10:46	-133.329	43.653	0	1555.10	0	2.3940	0	34.6080	4	27.634	0	1536.936	0	32.5	4	9.9	4	-1E+10	1	-1E+10	1	-1E+10	1	-1E+10	1	-1E+10	1	-1E+10	1
4901784	88	C	12/01/2017	10:46	-133.329	43.653	0	1559.70	0	2.3880	0	34.6090	4	27.636	0	1541.466	0	32.8	4	10.0	4	-1E+10	1	-1E+10	1	-1E+10	1	-1E+10	1	-1E+10	1	-1E+10	1
4901784	88	C	12/01/2017	10:46	-133.329	43.653	0	1565.20	0	2.3780	0	34.6100	4	27.637	0	1546.881	0	33.1	4	10.1	4	-1E+10	1	-1E+10	1	-1E+10	1	-1E+10	1	-1E+10	1	-1E+10	1
4901784	88	C	12/01/2017	10:46	-133.329	43.653	0	1570.60	0	2.3730	0	34.6110	4	27.639	0	1552.198	0	33.3	4	10.1	4	-1E+10	1	-1E+10	1	-1E+10	1	-1E+10	1	-1E+10	1	-1E+10	1
4901784	88	C	12/01/2017	10:46	-133.329	43.653	0	1575.20	0	2.3680	0	34.6110	4	27.639	0	1556.728	0	33.5	4	10.2	4	-1E+10	1	-1E+10	1	-1E+10	1	-1E+10	1	-1E+10	1	-1E+10	1
4901784	88	C	12/01/2017	10:46	-133.329	43.653	0	1579.90	0	2.3590	0	34.6120	4	27.641	0	1561.355	0	33.8	4	10.3	4	-1E+10	1	-1E+10	1	-1E+10	1	-1E+10	1	-1E+10	1	-1E+10	1
4901784	88	C	12/01/2017	10:46	-133.329	43.653	0	1585.00	0	2.3500	0	34.6130	4	27.642	0	1566.376	0	34.1	4	10.4	4	-1E+10	1	-1E+10	1	-1E+10	1	-1E+10	1	-1E+10	1	-1E+10	1
4901784	88	C	12/01/2017	10:46	-133.329	43.653	0	1589.40	0	2.3460	0	34.6140	4	27.643	0	1570.708	0	34.3	4	10.4	4	-1E+10	1	-1E+10	1	-1E+10	1	-1E+10	1	-1E+10	1	-1E+10	1
4901784	88	C	12/01/2017	10:46	-133.329	43.653	0	1595.10	0	2.3380	0	34.6150	4	27.645	0	1576.320	0	34.7	4	10.6	4	-1E+10	1	-1E+10	1	-1E+10	1	-1E+10	1	-1E+10	1	-1E+10	1
4901784	88	C	12/01/2017	10:46	-133.329	43.653	0	1600.70	0	2.3290	0	34.6160	4	27.646	0	1581.833	0	35.2	4	10.7	4	-1E+10	1	-1E+10	1	-1E+10	1	-1E+10	1	-1E+10	1	-1E+10	1
4901784	88	C	12/01/2017	10:46	-133.329	43.653	0	1605.60	0	2.3210	0	34.6170	4	27.648	0	1586.657	0	35.6	4	10.8	4	-1E+10	1	-1E+10	1	-1E+10	1	-1E+10	1	-1E+10	1	-1E+10	1
4901784	88	C	12/01/2017	10:46	-133.329	43.653	0	1610.60	0	2.3120	0	34.6180	4	27.649	0	1591.579	0	35.9	4	10.9	4	-1E+10	1	-1E+10	1	-1E+10	1	-1E+10	1	-1E+10	1	-1E+10	1
4901784	88	C	12/01/2017	10:46	-133.329	43.653	0	1615.50	0	2.3070	0	34.6190	4	27.651	0	1596.403	0	36.2	4	11.0	4	-1E+10	1	-1E+10	1	-1E+10	1	-1E+10	1	-1E+10	1	-1E+10	1
4901784	88	C	12/01/2017	10:46	-133.329	43.653	0	1620.50	0	2.3020	0	34.6200	4	27.652	0	1601.325	0	36.5	4	11.1	4	-1E+10	1	-1E+10	1	-1E+10	1	-1E+10	1	-1E+10	1	-1E+10	1
4901784	88	C	12/01/2017	10:46	-133.329	43.653	0	1625.50	0	2.2970	0	34.6210	4	27.653	0	1606.247	0	36.8	4	11.2	4	-1E+10	1	-1E+10	1	-1E+10	1	-1E+10	1	-1E+10	1	-1E+10	1
4901784	88	C	12/01/2017	10:46	-133.329	43.653	0	1630.50	0	2.2920	0	34.6210	4	27.653	0	1611.169	0	37.2	4	11.3	4	-1E+10	1	-1E+10	1	-1E+10	1	-1E+10	1	-1E+10	1	-1E+10	1
4901784	88	C	12/01/2017	10:46	-133.329	43.653	0	1635.70	0	2.2860	0	34.6230	4	27.656	0	1616.287	0	37.5	4	11.4	4	-1E+10	1	-1E+10	1	-1E+10	1	-1E+10	1	-1E+10	1	-1E+10	1
4901784	88	C	12/01/2017	10:46	-133.329	43.653	0	1640.00	0	2.2830	0	34.6240	4	27.657	0	1620.520	0	37.8	4	11.5	4	-1E+10	1	-1E+10	1	-1E+10	1	-1E+10	1	-1E+10	1	-1E+10	1
4901784	88	C	12/01/2017	10:46	-133.329	43.653	0	1644.30	0	2.2790	0	34.6240	4	27.657	0	1624.752	0	37.9	4	11.5	4	-1E+10	1	-1E+10	1	-1E+10	1	-1E+10	1	-1E+10	1	-1E+10	1
4901784	88	C	12/01/2017	10:46	-133.329	43.653	0	1649.60	0	2.2720	0	34.6250	4	27.658	0	1629.969	0	38.3	4	11.6	4	-1E+10	1	-1E+10	1	-1E+10	1	-1E+10	1	-1E+10	1	-1E+10	1
4901784	88	C	12/01/2017	10:46	-133.329	43.653	0	1654.80	0	2.2660	0	34.6250	4	27.659	0	1635.087	0	38.6	4	11.7	4	-1E+10	1	-1E+10	1	-1E+10	1	-1E+10	1	-1E+10	1	-1E+10	1
4901784	88	C	12/01/2017	10:46	-133.329	43.653	0	1659.90	0	2.2610	0	34.6270	4	27.661	0	1640.106	0	38.9	4	11.8	4	-1E+10	1	-1E+10	1	-1E+10	1	-1E+10	1	-1E+10	1	-1E+10	1
4901784	88	C	12/01/2017	10:46	-133.329	43.653	0	1665.10	0	2.2600	0	34.6270	4	27.661	0	1645.224	0	39.2	4	11.9	4	-1E+10	1	-1E+10	1	-1E+10	1	-1E+10	1	-1E+10	1	-1E+10	1
4901784	88	C	12/01/2017	10:46	-133.329	43.653	0	1670.30	0	2.2580	0	34.6270	4	27.661	0	1650.342	0	39.4	4	12.0	4	-1E+10	1	-1E+10	1	-1E+10	1	-1E+10	1	-1E+10	1	-1E+10	1
4901784	88	C	12/01/2017	10:46	-133.329	43.653	0	1675.60	0	2.2510	0	34.6280	4	27.663	0	1655.558	0	39.8	4	12.1	4	-1E+10	1	-1E+10	1	-1E+10	1	-1E+10	1	-1E+10	1	-1E+10	1
4901784	88	C	12/01/2017	10:46	-133.329	43.653	0	1680.10	0	2.2430	0	34.6290	4	27.664	0	1659.986	0	40.2	4	12.2	4	-1E+10	1	-1E+10	1	-1E+10	1	-1E+10	1	-1E+10	1	-1E+10	1
4901784	88	C	12/01/2017	10:46	-133.329	43.653	0	1684.60	0	2.2340	0	34.6310	4	27.666	0	1664.415	0	40.6	4	12.3	4	-1E+10	1	-1E+10	1	-1E+10	1	-1E+10	1	-1E+10	1	-1E+10	1
4901784	88	C	12/01/2017	10:46	-133.329	43.653	0	1689.90	0	2.2250	0	34.6320	4	27.668	0	1669.631	0	41.0	4	12.4	4	-1E+10	1	-1E+10	1	-1E+10	1	-1E+10	1	-1E+10	1	-1E+10	1
4901784	88	C	12/01/2017	10:46	-133.329	43.653	0	1695.30	0	2.2160	0	34.6330	4	27.670	0	1674.945	0	41.1	4	12.5	4	-1E+10	1	-1E+10	1	-1E+10	1	-1E+10	1	-1E+10	1	-1E+10	1
4901784	88	C	12/01/2017	10:46	-133.329	43.653	0	1700.60	0	2.2110	0	34.6330	4	27.670	0	1680.160	0	41.2	4	12.5	4	-1E+10	1	-1E+10	1	-1E+10	1	-1E+10	1	-1E+10	1	-1E+10	1
4901784	88	C	12/01/2017	10:46	-133.329	43.653	0	1705.10	0	2.2040	0	34.6330	4	27.671	0	1684.588	0	41.4	4	12.5	4	-1E+10	1	-1E+10	1	-1E+10	1	-1E+10	1	-1E+10	1	-1E+10	1
4901784	88	C	12/01/2017	10:46	-133.329	43.653	0	1709.50	0	2.2000	0	34.6330	4	27.671	0	1688.917	0	41.5	4	12.6	4	-1E+10	1	-1E+10	1	-1E+10	1	-1E+10	1	-1E+10	1	-1E+10	1
4901784	88	C	12/01/2017	10:46	-133.329	43.653	0	1714.90	0	2.1940	0	34.6340	4	27.672	0	1694.231	0	41.8	4	12.7	4	-1E+10	1	-1E+10	1	-1E+10	1	-1E+10	1	-1E+10	1	-1E+10	1
4901784	88	C	12/01/2017	10:46	-133.329	43.653	0	1720.30	0	2.1900	0	34.6350	4	27.673	0	1699.544	0	42.0	4	12.7	4	-1E+10	1	-1E+10	1	-1E+10	1	-1E+10	1	-1E+10	1	-1E+10	1
4901784	88	C	12/01/2017	10:46	-133.329	43.653	0	1724.80	0	2.1890	0	34.6350	4	27.674	0	1703.972	0	42.2	4	12.8	4	-1E+10	1	-1E+10	1	-1E+10	1	-1E+10	1	-1E+10	1	-1E+10	1
4901784	88	C	12/01/2017	10:46	-133.329	43.653	0	1729.30	0	2.1850	0	34.6350	4	27.674	0	1708.399	0	42.6	4	12.9	4	-1E+10	1	-1E+10	1	-1E+10	1	-1E+10	1	-1E+10	1	-1E+10	1
4901784	88	C	12/01/2017	10:46	-133.329	43.653	0	1734.70	0	2.1740	0	34.6370	4	27.676	0	1713.712	0	43.2	4	13.1	4	-1E+10	1	-1E+10	1	-1E+10	1	-1E+10	1	-1E+10	1	-1E+10	1
4901784	88	C	12/01/2017	10:46	-133.329	43.653	0	1740.10	0	2.1690	0	34.6390	4	27.678	0	1719.025	0	43.8	4	13.3	4	-1E+10	1	-1E+10	1	-1E+10	1	-1E+10	1	-1E+10	1	-1E+10	1
4901784	88	C	12/01/2017	10:46	-133.329	43.653	0	1745.60	0	2.1670	0	34.6400	4	27.679	0	1724.436	0	44.2	4	13.4	4	-1E+10	1	-1E+10	1	-1E+10	1	-1E+10	1	-1E+10	1	-1E+10	1
4901784	88	C	12/01/2017	10:46	-133.329	43.653	0	1750.10	0	2.1650	0	34.6410	4	27.680	0	1728.863	0	44.4	4	13.5	4	-1E+10	1	-1E+10	1	-1E+10	1	-1E+10	1	-1E+10	1	-1E+10	1
4901784	88	C	12/01/2017	10:46	-133.329	43.653	0	1754.60	0	2.1590	0	34.6410	4	27.681	0	1733.290	0	44.8	4	13.6	4	-1E+10	1	-1E+10	1	-1E+10	1	-1E+10	1	-1E+10	1	-1E+10	1
4901784	88	C	12/01/2017	10:46	-133.329	43.653	0	1760.00	0	2.1540	0	34.6430	4	27.683	0	1738.603	0	45.4	4	13.7	4	-1E+10	1	-1E+10	1	-1E+10	1	-1E+10	1	-1E+10	1	-1E+10	1
4901784	88	C	12/01/2017	10:46	-133.329	43.653	0	1765.30	0	2.1430	0	34.6440	4	27.685	0	1743.817	0	45.6	4	13.8	4	-1E+10	1	-1E+10	1	-1E+10	1	-1E+10	1	-1E+10	1	-1E+10	1
4901784	88	C	12/01/2017	10:46	-133.329	43.653	0	1770.60	0	2.1370	0	34.6440	4	27.685	0	1749.030	0	45.9	4	13.9	4	-1E+10	1	-1E+10	1	-1E+10	1	-1E+10	1	-1E+10	1	-1E+10	1
4901784	88	C	12/01/2017	10:46	-133.329	43.653	0	1775.50	0	2.1330	0	34.6450	4	27.686	0	1753.850	0	46.1	4	13.9	4	-1E+10	1	-1E+10	1	-1E+10	1	-1E+10	1	-1E+10	1	-1E+10	1
4901784	88	C	12/01/2017	10:46	-133.329	43.653	0	1780.20	0	2.1270	0	34.6450	4	27.687	0	1758.473	0	46.3	4	14.0	4	-1E+10	1	-1E+10	1	-1E+10	1	-1E+10	1	-1E+10	1	-1E+10	1
4901784	88	C	12/01/2017	10:46	-133.329	43.653	0	1785.00	0	2.1210	0	34.6460	4	27.688	0	1763.195	0	46.5	4	14.1	4	-1E+10	1	-1E+10	1	-1E+10	1	-1E+10	1	-1E+10	1	-1E+10	1
4901784	88	C	12/01/2017	10:46	-133.329	43.653	0	1789.90	0	2.1180	0	34.6460	4	27.688	0	1768.015	0	46.9	4	14.2	4	-1E+10	1	-1E+10	1	-1E+10	1	-1E+10	1	-1E+10	1	-1E+10	1
4901784	88	C	12/01/2017	10:46	-133.329	43.653	0	1794.70	0	2.1140	0	34.6470	4	27.689	0	1772.736	0	47.4	4	14.3	4	-1E+10	1	-1E+10	1	-1E+10	1	-1E+10	1	-1E+10	1	-1E+10	1
4901784	88	C	12/01/2017	10:46	-133.329	43.653	0	1799.70	0	2.1090	0	34.6480	4	27.691	0	1777.654	0	47.8	4	14.5	4	-1E+10	1	-1E+10	1	-1E+10	1	-1E+10	1	-1E+10	1	-1E+10	1
4901784	88	C	12/01/2017	10:46	-133.329	43.653	0	1804.70	0	2.1050	0	34.6480	4	27.691	0	1782.572	0	48.2	4	14.6	4	-1E+10	1	-1E+10	1	-1E+10	1	-1E+10	1	-1E+10	1	-1E+10	1
4901784	88	C	12/01/2017	10:46	-133.329	43.653	0	1809.60	0	2.0990	0	34.6480	4	27.692	0	1787.391	0	48.6	4	14.7	4	-1E+10	1	-1E+10	1	-1E+10	1	-1E+10	1	-1E+10	1	-1E+10	1
4901784	88	C	12/01/2017	10:46	-133.329	43.653	0	1814.60	0	2.0950	0	34.6490	4	27.693	0	1792.309	0	48.9	4	14.8	4	-1E+10	1	-1E+10	1	-1E+10	1	-1E+10	1	-1E+10	1	-1E+10	1
4901784	88	C	12/01/2017	10:46	-133.329	43.653	0	1819.60	0	2.0900	0	34.6490	4	27.693	0	1797.226	0	49.0	4	14.8	4	-1E+10	1	-1E+10	1	-1E+10	1	-1E+10	1	-1E+10	1	-1E+10	1
4901784	88	C	12/01/2017	10:46	-133.329	43.653	0	1824.70	0	2.0860	0	34.6490	4	27.693	0	1802.242	0	49.2	4	14.9	4	-1E+10	1	-1E+10	1	-1E+10	1	-1E+10	1	-1E+10	1	-1E+10	1
4901784	88	C	12/01/2017	10:46	-133.329	43.653	0	1829.70	0	2.0840	0	34.6500	4	27.694	0	1807.159	0	49.5	4	15.0	4	-1E+10	1	-1E+10	1	-1E+10	1	-1E+10	1	-1E+10	1	-1E+10	1
4901784	88	C	12/01/2017	10:46	-133.329	43.653	0	1834.90	0	2.0770	0	34.6510	4	27.696	0	1812.273	0	49.8	4	15.0	4	-1E+10	1	-1E+10	1	-1E+10	1	-1E+10	1	-1E+10	1	-1E+10	1
4901784	88	C	12/01/2017	10:46	-133.329	43.653	0	1840.00	0	2.0720	0	34.6520	4	27.697	0	1817.288	0	50.1	4	15.1	4	-1E+10	1	-1E+10	1	-1E+10	1	-1E+10	1	-1E+10	1	-1E+10	1
4901784	88	C	12/01/2017	10:46	-133.329	43.653	0	1845.20	0	2.0670	0	34.6540	4	27.699	0	1822.402	0	50.4	4	15.2	4	-1E+10	1	-1E+10	1	-1E+10	1	-1E+10	1	-1E+10	1	-1E+10	1
4901784	88	C	12/01/2017	10:46	-133.329	43.653	0	1850.30	0	2.0660	0	34.6540	4	27.699	0	1827.417	0	50.5	4	15.3	4	-1E+10	1	-1E+10	1	-1E+10	1	-1E+10	1	-1E+10	1	-1E+10	1
4901784	88	C	12/01/2017	10:46	-133.329	43.653	0	1855.60	0	2.0620	0	34.6550	4	27.700	0	1832.628	0	50.8	4	15.3	4	-1E+10	1	-1E+10	1	-1E+10	1	-1E+10	1	-1E+10	1	-1E+10	1
4901784	88	C	12/01/2017	10:46	-133.329	43.653	0	1859.90	0	2.0600	0	34.6550	4	27.700	0	1836.857	0	51.0	4	15.4	4	-1E+10	1	-1E+10	1	-1E+10	1	-1E+10	1	-1E+10	1	-1E+10	1
4901784	88	C	12/01/2017	10:46	-133.329	43.653	0	1864.30	0	2.0570	0	34.6550	4	27.701	0	1841.183	0	51.3	4	15.5	4	-1E+10	1	-1E+10	1	-1E+10	1	-1E+10	1	-1E+10	1	-1E+10	1
4901784	88	C	12/01/2017	10:46	-133.329	43.653	0	1869.60	0	2.0520	0	34.6560	4	27.702	0	1846.394	0	51.7	4	15.6	4	-1E+10	1	-1E+10	1	-1E+10	1	-1E+10	1	-1E+10	1	-1E+10	1
4901784	88	C	12/01/2017	10:46	-133.329	43.653	0	1875.00	0	2.0480	0	34.6570	4	27.703	0	1851.704	0	51.9	4	15.7	4	-1E+10	1	-1E+10	1	-1E+10	1	-1E+10	1	-1E+10	1	-1E+10	1
4901784	88	C	12/01/2017	10:46	-133.329	43.653	0	1880.30	0	2.0390	0	34.6580	4	27.705	0	1856.915	0	52.3	4	15.8	4	-1E+10	1	-1E+10	1	-1E+10	1	-1E+10	1	-1E+10	1	-1E+10	1
4901784	88	C	12/01/2017	10:46	-133.329	43.653	0	1885.60	0	2.0330	0	34.6590	4	27.706	0	1862.126	0	52.8	4	16.0	4	-1E+10	1	-1E+10	1	-1E+10	1	-1E+10	1	-1E+10	1	-1E+10	1
4901784	88	C	12/01/2017	10:46	-133.329	43.653	0	1890.00	0	2.0290	0	34.6600	4	27.707	0	1866.452	0	53.3	4	16.1	4	-1E+10	1	-1E+10	1	-1E+10	1	-1E+10	1	-1E+10	1	-1E+10	1
4901784	88	C	12/01/2017	10:46	-133.329	43.653	0	1894.50	0	2.0240	0	34.6610	4	27.708	0	1870.876	0	53.6	4	16.2	4	-1E+10	1	-1E+10	1	-1E+10	1	-1E+10	1	-1E+10	1	-1E+10	1
4901784	88	C	12/01/2017	10:46	-133.329	43.653	0	1899.80	0	2.0170	0	34.6610	4	27.709	0	1876.086	0	53.9	4	16.3	4	-1E+10	1	-1E+10	1	-1E+10	1	-1E+10	1	-1E+10	1	-1E+10	1
4901784	88	C	12/01/2017	10:46	-133.329	43.653	0	1905.10	0	2.0130	0	34.6620	4	27.710	0	1881.297	0	54.2	4	16.3	4	-1E+10	1	-1E+10	1	-1E+10	1	-1E+10	1	-1E+10	1	-1E+10	1
4901784	88	C	12/01/2017	10:46	-133.329	43.653	0	1910.40	0	2.0060	0	34.6630	4	27.711	0	1886.507	0	54.5	4	16.4	4	-1E+10	1	-1E+10	1	-1E+10	1	-1E+10	1	-1E+10	1	-1E+10	1
4901784	88	C	12/01/2017	10:46	-133.329	43.653	0	1915.00	0	2.0010	0	34.6630	4	27.712	0	1891.029	0	54.8	4	16.5	4	-1E+10	1	-1E+10	1	-1E+10	1	-1E+10	1	-1E+10	1	-1E+10	1
4901784	88	C	12/01/2017	10:46	-133.329	43.653	0	1919.40	0	1.9970	0	34.6640	4	27.713	0	1895.354	0	55.1	4	16.6	4	-1E+10	1	-1E+10	1	-1E+10	1	-1E+10	1	-1E+10	1	-1E+10	1
4901784	88	C	12/01/2017	10:46	-133.329	43.653	0	1924.90	0	1.9940	0	34.6650	4	27.714	0	1900.761	0	55.5	4	16.7	4	-1E+10	1	-1E+10	1	-1E+10	1	-1E+10	1	-1E+10	1	-1E+10	1
4901784	88	C	12/01/2017	10:46	-133.329	43.653	0	1930.20	0	1.9900	0	34.6660	4	27.715	0	1905.971	0	55.8	4	16.8	4	-1E+10	1	-1E+10	1	-1E+10	1	-1E+10	1	-1E+10	1	-1E+10	1
4901784	88	C	12/01/2017	10:46	-133.329	43.653	0	1935.50	0	1.9850	0	34.6660	4	27.716	0	1911.180	0	56.0	4	16.9	4	-1E+10	1	-1E+10	1	-1E+10	1	-1E+10	1	-1E+10	1	-1E+10	1
4901784	88	C	12/01/2017	10:46	-133.329	43.653	0	1940.40	0	1.9830	0	34.6670	4	27.717	0	1915.997	0	56.3	4	17.0	4	-1E+10	1	-1E+10	1	-1E+10	1	-1E+10	1	-1E+10	1	-1E+10	1
4901784	88	C	12/01/2017	10:46	-133.329	43.653	0	1945.20	0	1.9790	0	34.6670	4	27.717	0	1920.715	0	56.6	4	17.1	4	-1E+10	1	-1E+10	1	-1E+10	1	-1E+10	1	-1E+10	1	-1E+10	1
4901784	88	C	12/01/2017	10:46	-133.329	43.653	0	1950.10	0	1.9760	0	34.6680	4	27.718	0	1925.531	0	57.0	4	17.2	4	-1E+10	1	-1E+10	1	-1E+10	1	-1E+10	1	-1E+10	1	-1E+10	1
4901784	88	C	12/01/2017	10:46	-133.329	43.653	0	1954.90	0	1.9710	0	34.6690	4	27.719	0	1930.249	0	57.2	4	17.2	4	-1E+10	1	-1E+10	1	-1E+10	1	-1E+10	1	-1E+10	1	-1E+10	1
4901784	88	C	12/01/2017	10:46	-133.329	43.653	0	1959.80	0	1.9670	0	34.6690	4	27.719	0	1935.065	0	57.3	4	17.3	4	-1E+10	1	-1E+10	1	-1E+10	1	-1E+10	1	-1E+10	1	-1E+10	1
4901784	88	C	12/01/2017	10:46	-133.329	43.653	0	1964.80	0	1.9630	0	34.6690	4	27.720	0	1939.979	0	57.5	4	17.3	4	-1E+10	1	-1E+10	1	-1E+10	1	-1E+10	1	-1E+10	1	-1E+10	1
4901784	88	C	12/01/2017	10:46	-133.329	43.653	0	1969.80	0	1.9600	0	34.6700	4	27.721	0	1944.893	0	57.9	4	17.4	4	-1E+10	1	-1E+10	1	-1E+10	1	-1E+10	1	-1E+10	1	-1E+10	1
4901784	88	C	12/01/2017	10:46	-133.329	43.653	0	1974.80	0	1.9550	0	34.6710	4	27.722	0	1949.807	0	58.2	4	17.5	4	-1E+10	1	-1E+10	1	-1E+10	1	-1E+10	1	-1E+10	1	-1E+10	1
4901784	88	C	12/01/2017	10:46	-133.329	43.653	0	1979.80	0	1.9520	0	34.6710	4	27.722	0	1954.721	0	58.5	4	17.6	4	-1E+10	1	-1E+10	1	-1E+10	1	-1E+10	1	-1E+10	1	-1E+10	1
4901784	88	C	12/01/2017	10:46	-133.329	43.653	0	1984.80	0	1.9490	0	34.6720	4	27.723	0	1959.634	0	58.7	4	17.7	4	-1E+10	1	-1E+10	1	-1E+10	1	-1E+10	1	-1E+10	1	-1E+10	1
4901784	88	C	12/01/2017	10:46	-133.329	43.653	0	1989.90	0	1.9450	0	34.6720	4	27.724	0	1964.646	0	58.9	4	17.7	4	-1E+10	1	-1E+10	1	-1E+10	1	-1E+10	1	-1E+10	1	-1E+10	1
4901784	88	C	12/01/2017	10:46	-133.329	43.653	0	1994.90	0	1.9420	0	34.6730	4	27.725	0	1969.560	0	59.0	4	17.8	4	-1E+10	1	-1E+10	1	-1E+10	1	-1E+10	1	-1E+10	1	-1E+10	1
4901784	88	C	12/01/2017	10:46	-133.329	43.653	0	2000.00	0	1.9400	0	34.6730	4	27.725	0	1974.571	0	59.2	4	17.8	4	-1E+10	1	-1E+10	1	-1E+10	1	-1E+10	1	-1E+10	1	-1E+10	1
4901784	88	C	12/01/2017	10:46	-133.329	43.653	0	2005.20	0	1.9380	0	34.6730	4	27.725	0	1979.681	0	59.3	4	17.9	4	-1E+10	1	-1E+10	1	-1E+10	1	-1E+10	1	-1E+10	1	-1E+10	1
4901784	88	C	12/01/2017	10:46	-133.329	43.653	0	2010.20	0	1.9370	0	34.6740	4	27.726	0	1984.594	0	59.5	4	17.9	4	-1E+10	1	-1E+10	1	-1E+10	1	-1E+10	1	-1E+10	1	-1E+10	1
4901784	88	C	12/01/2017	10:46	-133.329	43.653	0	2015.10	0	1.9330	0	34.6740	4	27.726	0	1989.409	0	59.7	4	18.0	4	-1E+10	1	-1E+10	1	-1E+10	1	-1E+10	1	-1E+10	1	-1E+10	1
4901784	88	C	12/01/2017	10:46	-133.329	43.653	0	2019.90	0	1.9290	0	34.6750	4	27.728	0	1994.125	0	59.8	4	18.0	4	-1E+10	1	-1E+10	1	-1E+10	1	-1E+10	1	-1E+10	1	-1E+10	1
4901784	88	C	12/01/2017	10:46	-133.329	43.653	0																										
4901784	89	C	12/11/2017	10:49	-133.576	43.701	0	2.70	0	12.6270	0	32.8830	4	24.827	0	2.678	0	253.2	4	96.0	4	-1E+10	1	-1E+10	1	-1E+10	1	-1E+10	1	-1E+10	1	-1E+10	1
4901784	89	C	12/11/2017	10:49	-133.576	43.701	0	4.80	0	12.6270	0	32.8830	4	24.827	0	4.762	0	253.3	4	96.0	4	-1E+10	1	-1E+10	1	-1E+10	1	-1E+10	1	-1E+10	1	-1E+10	1
4901784	89	C	12/11/2017	10:49	-133.576	43.701	0	6.70	0	12.6270	0	32.8830	4	24.827	0	6.646	0	253.2	4	96.0	4	-1E+10	1	-1E+10	1	-1E+10	1	-1E+10	1	-1E+10	1	-1E+10	1
4901784	89	C	12/11/2017	10:49	-133.576	43.701	0	8.30	0	12.6270	0	32.8830	4	24.827	0	8.233	0	253.0	4	95.9	4	-1E+10	1	-1E+10	1	-1E+10	1	-1E+10	1	-1E+10	1	-1E+10	1
4901784	89	C	12/11/2017	10:49	-133.576	43.701	0	9.80	0	12.6280	0	32.8830	4	24.827	0	9.721	0	253.0	4	95.9	4	-1E+10	1	-1E+10	1	-1E+10	1	-1E+10	1	-1E+10	1	-1E+10	1
4901784	89	C	12/11/2017	10:49	-133.576	43.701	0	11.40	0	12.6280	0	32.8830	4	24.827	0	11.309	0	252.9	4	95.9	4	-1E+10	1	-1E+10	1	-1E+10	1	-1E+10	1	-1E+10	1	-1E+10	1
4901784	89	C	12/11/2017	10:49	-133.576	43.701	0	12.90	0	12.6280	0	32.8830	4	24.827	0	12.796	0	253.0	4	95.9	4	-1E+10	1	-1E+10	1	-1E+10	1	-1E+10	1	-1E+10	1	-1E+10	1
4901784	89	C	12/11/2017	10:49	-133.576	43.701	0	14.50	0	12.6290	0	32.8830	4	24.827	0	14.384	0	252.8	4	95.9	4	-1E+10	1	-1E+10	1	-1E+10	1	-1E+10	1	-1E+10	1	-1E+10	1
4901784	89	C	12/11/2017	10:49	-133.576	43.701	0	16.10	0	12.6290	0	32.8830	4	24.827	0	15.971	0	252.8	4	95.9	4	-1E+10	1	-1E+10	1	-1E+10	1	-1E+10	1	-1E+10	1	-1E+10	1
4901784	89	C	12/11/2017	10:49	-133.576	43.701	0	17.80	0	12.6290	0	32.8830	4	24.827	0	17.657	0	252.9	4	95.9	4	-1E+10	1	-1E+10	1	-1E+10	1	-1E+10	1	-1E+10	1	-1E+10	1
4901784	89	C	12/11/2017	10:49	-133.576	43.701	0	19.40	0	12.6290	0	32.8830	4	24.827	0	19.244	0	252.9	4	95.9	4	-1E+10	1	-1E+10	1	-1E+10	1	-1E+10	1	-1E+10	1	-1E+10	1
4901784	89	C	12/11/2017	10:49	-133.576	43.701	0	21.10	0	12.6280	0	32.8830	4	24.827	0	20.930	0	252.7	4	95.8	4	-1E+10	1	-1E+10	1	-1E+10	1	-1E+10	1	-1E+10	1	-1E+10	1
4901784	89	C	12/11/2017	10:49	-133.576	43.701	0	22.80	0	12.6290	0	32.8830	4	24.827	0	22.616	0	252.7	4	95.8	4	-1E+10	1	-1E+10	1	-1E+10	1	-1E+10	1	-1E+10	1	-1E+10	1
4901784	89	C	12/11/2017	10:49	-133.576	43.701	0	24.40	0	12.6290	0	32.8830	4	24.827	0	24.203	0	252.7	4	95.8	4	-1E+10	1	-1E+10	1	-1E+10	1	-1E+10	1	-1E+10	1	-1E+10	1
4901784	89	C	12/11/2017	10:49	-133.576	43.701	0	26.10	0	12.6290	0	32.8830	4	24.827	0	25.890	0	252.4	4	95.7	4	-1E+10	1	-1E+10	1	-1E+10	1	-1E+10	1	-1E+10	1	-1E+10	1
4901784	89	C	12/11/2017	10:49	-133.576	43.701	0	27.90	0	12.6290	0	32.8830	4	24.827	0	27.675	0	252.4	4	95.7	4	-1E+10	1	-1E+10	1	-1E+10	1	-1E+10	1	-1E+10	1	-1E+10	1
4901784	89	C	12/11/2017	10:49	-133.576	43.701	0	29.60	0	12.6300	0	32.8830	4	24.827	0	29.361	0	252.4	4	95.7	4	-1E+10	1	-1E+10	1	-1E+10	1	-1E+10	1	-1E+10	1	-1E+10	1
4901784	89	C	12/11/2017	10:49	-133.576	43.701	0	31.40	0	12.6300	0	32.8830	4	24.827	0	31.146	0	252.3	4	95.7	4	-1E+10	1	-1E+10	1	-1E+10	1	-1E+10	1	-1E+10	1	-1E+10	1
4901784	89	C	12/11/2017	10:49	-133.576	43.701	0	33.10	0	12.6310	0	32.8830	4	24.827	0	32.833	0	252.3	4	95.7	4	-1E+10	1	-1E+10	1	-1E+10	1	-1E+10	1	-1E+10	1	-1E+10	1
4901784	89	C	12/11/2017	10:49	-133.576	43.701	0	34.80	0	12.6310	0	32.8830	4	24.827	0	34.519	0	252.2	4	95.6	4	-1E+10	1	-1E+10	1	-1E+10	1	-1E+10	1	-1E+10	1	-1E+10	1
4901784	89	C	12/11/2017	10:49	-133.576	43.701	0	36.30	0	12.6310	0	32.8830	4	24.827	0	36.006	0	252.0	4	95.5	4	-1E+10	1	-1E+10	1	-1E+10	1	-1E+10	1	-1E+10	1	-1E+10	1
4901784	89	C	12/11/2017	10:49	-133.576	43.701	0	37.80	0	12.6320	0	32.8830	4	24.827	0	37.494	0	252.0	4	95.6	4	-1E+10	1	-1E+10	1	-1E+10	1	-1E+10	1	-1E+10	1	-1E+10	1
4901784	89	C	12/11/2017	10:49	-133.576	43.701	0	39.40	0	12.6320	0	32.8830	4	24.827	0	39.081	0	251.7	4	95.5	4	-1E+10	1	-1E+10	1	-1E+10	1	-1E+10	1	-1E+10	1	-1E+10	1
4901784	89	C	12/11/2017	10:49	-133.576	43.701	0	41.10	0	12.6320	0	32.8830	4	24.827	0	40.767	0	251.7	4	95.4	4	-1E+10	1	-1E+10	1	-1E+10	1	-1E+10	1	-1E+10	1	-1E+10	1
4901784	89	C	12/11/2017	10:49	-133.576	43.701	0	42.70	0	12.6310	0	32.8830	4	24.827	0	42.354	0	251.6	4	95.4	4	-1E+10	1	-1E+10	1	-1E+10	1	-1E+10	1	-1E+10	1	-1E+10	1
4901784	89	C	12/11/2017	10:49	-133.576	43.701	0	44.20	0	12.6320	0	32.8830	4	24.827	0	43.842	0	251.4	4	95.3	4	-1E+10	1	-1E+10	1	-1E+10	1	-1E+10	1	-1E+10	1	-1E+10	1
4901784	89	C	12/11/2017	10:49	-133.576	43.701	0	45.80	0	12.6330	0	32.8820	4	24.826	0	45.429	0	251.3	4	95.3	4	-1E+10	1	-1E+10	1	-1E+10	1	-1E+10	1	-1E+10	1	-1E+10	1
4901784	89	C	12/11/2017	10:49	-133.576	43.701	0	47.50	0	12.6320	0	32.8820	4	24.826	0	47.115	0	251.0	4	95.2	4	-1E+10	1	-1E+10	1	-1E+10	1	-1E+10	1	-1E+10	1	-1E+10	1
4901784	89	C	12/11/2017	10:49	-133.576	43.701	0	49.10	0	12.6330	0	32.8820	4	24.826	0	48.701	0	250.9	4	95.1	4	-1E+10	1	-1E+10	1	-1E+10	1	-1E+10	1	-1E+10	1	-1E+10	1
4901784	89	C	12/11/2017	10:49	-133.576	43.701	0	50.70	0	12.6330	0	32.8820	4	24.826	0	50.288	0	250.6	4	95.0	4	-1E+10	1	-1E+10	1	-1E+10	1	-1E+10	1	-1E+10	1	-1E+10	1
4901784	89	C	12/11/2017	10:49	-133.576	43.701	0	52.30	0	12.6340	0	32.8810	4	24.825	0	51.875	0	250.1	4	94.8	4	-1E+10	1	-1E+10	1	-1E+10	1	-1E+10	1	-1E+10	1	-1E+10	1
4901784	89	C	12/11/2017	10:49	-133.576	43.701	0	54.10	0	12.6340	0	32.8790	4	24.824	0	53.660	0	249.7	4	94.7	4	-1E+10	1	-1E+10	1	-1E+10	1	-1E+10	1	-1E+10	1	-1E+10	1
4901784	89	C	12/11/2017	10:49	-133.576	43.701	0	54.50	0	12.6340	0	32.8790	4	24.824	0	54.057	0	249.6	4	94.6	4	-1E+10	1	-1E+10	1	-1E+10	1	-1E+10	1	-1E+10	1	-1E+10	1
4901784	89	C	12/11/2017	10:49	-133.576	43.701	0	55.80	0	12.6340	0	32.8760	4	24.821	0	55.346	0	248.9	4	94.4	4	-1E+10	1	-1E+10	1	-1E+10	1	-1E+10	1	-1E+10	1	-1E+10	1
4901784	89	C	12/11/2017	10:49	-133.576	43.701	0	57.10	0	12.6350	0	32.8720	4	24.818	0	56.635	0	248.3	4	94.1	4	-1E+10	1	-1E+10	1	-1E+10	1	-1E+10	1	-1E+10	1	-1E+10	1
4901784	89	C	12/11/2017	10:49	-133.576	43.701	0	58.40	0	12.6340	0	32.8650	4	24.813	0	57.925	0	247.4	4	93.8	4	-1E+10	1	-1E+10	1	-1E+10	1	-1E+10	1	-1E+10	1	-1E+10	1
4901784	89	C	12/11/2017	10:49	-133.576	43.701	0	59.60	0	12.4550	0	32.8640	4	24.846	0	59.115	0	246.9	4	93.2	4	-1E+10	1	-1E+10	1	-1E+10	1	-1E+10	1	-1E+10	1	-1E+10	1
4901784	89	C	12/11/2017	10:49	-133.576	43.701	0	60.90	0	12.4090	0	32.8530	4	24.847	0	60.404	0	246.1	4	92.9	4	-1E+10	1	-1E+10	1	-1E+10	1	-1E+10	1	-1E+10	1	-1E+10	1
4901784	89	C	12/11/2017	10:49	-133.576	43.701	0	62.20	0	12.2210	0	32.8440	4	24.875	0	61.693	0	245.3	4	92.2	4	-1E+10	1	-1E+10	1	-1E+10	1	-1E+10	1	-1E+10	1	-1E+10	1
4901784	89	C	12/11/2017	10:49	-133.576	43.701	0	63.40	0	11.8760	0	32.8490	4	24.944	0	62.883	0	245.6	4	91.6	4	-1E+10	1	-1E+10	1	-1E+10	1	-1E+10	1	-1E+10	1	-1E+10	1
4901784	89	C	12/11/2017	10:49	-133.576	43.701	0	64.90	0	11.2410	0	32.8820	4	25.085	0	64.371	0	247.6	4	91.2	4	-1E+10	1	-1E+10	1	-1E+10	1	-1E+10	1	-1E+10	1	-1E+10	1
4901784	89	C	12/11/2017	10:49	-133.576	43.701	0	66.40	0	10.9740	0	32.9070	4	25.152	0	65.858	0	248.2	4	90.9	4	-1E+10	1	-1E+10	1	-1E+10	1	-1E+10	1	-1E+10	1	-1E+10	1
4901784	89	C	12/11/2017	10:49	-133.576	43.701	0	68.00	0	10.6390	0	32.9450	4	25.241	0	67.445	0	248.0	4	90.2	4	-1E+10	1	-1E+10	1	-1E+10	1	-1E+10	1	-1E+10	1	-1E+10	1
4901784	89	C	12/11/2017	10:49	-133.576	43.701	0	69.60	0	10.3520	0	32.9510	4	25.295	0	69.032	0	249.7	4	90.3	4	-1E+10	1	-1E+10	1	-1E+10	1	-1E+10	1	-1E+10	1	-1E+10	1
4901784	89	C	12/11/2017	10:49	-133.576	43.701	0	71.10	0	10.1660	0	32.9630	4	25.336	0	70.519	0	250.3	4	90.1	4	-1E+10	1	-1E+10	1	-1E+10	1	-1E+10	1	-1E+10	1	-1E+10	1
4901784	89	C	12/11/2017	10:49	-133.576	43.701	0	72.60	0	10.0930	0	32.9600	4	25.346	0	72.007	0	250.8	4	90.2	4	-1E+10	1	-1E+10	1	-1E+10	1	-1E+10	1	-1E+10	1	-1E+10	1
4901784	89	C	12/11/2017	10:49	-133.576	43.701	0	74.30	0	9.8760	0	32.9700	4	25.389	0	73.692	0	252.6	4	90.4	4	-1E+10	1	-1E+10	1	-1E+10	1	-1E+10	1	-1E+10	1	-1E+10	1
4901784	89	C	12/11/2017	10:49	-133.576	43.701	0	75.90	0	9.6590	0	32.9780	4	25.431	0	75.279	0	254.9	4	90.8	4	-1E+10	1	-1E+10	1	-1E+10	1	-1E+10	1	-1E+10	1	-1E+10	1
4901784	89	C	12/11/2017	10:49	-133.576	43.701	0	77.70	0	9.3970	0	32.9830	4	25.478	0	77.064	0	257.7	4	91.3	4	-1E+10	1	-1E+10	1	-1E+10	1	-1E+10	1	-1E+10	1	-1E+10	1
4901784	89	C	12/11/2017	10:49	-133.576	43.701	0	79.40	0	9.3150	0	32.9810	4	25.489	0	78.750	0	258.9	4	91.5	4	-1E+10	1	-1E+10	1	-1E+10	1	-1E+10	1	-1E+10	1	-1E+10	1
4901784	89	C	12/11/2017	10:49	-133.576	43.701	0	81.10	0	9.2360	0	32.9810	4	25.502	0	80.436	0	257.7	4	91.0	4	-1E+10	1	-1E+10	1	-1E+10	1	-1E+10	1	-1E+10	1	-1E+10	1
4901784	89	C	12/11/2017	10:49	-133.576	43.701	0	82.80	0	9.0710	0	32.9910	4	25.536	0	82.121	0	255.5	4	89.9	4	-1E+10	1	-1E+10	1	-1E+10	1	-1E+10	1	-1E+10	1	-1E+10	1
4901784	89	C	12/11/2017	10:49	-133.576	43.701	0	84.50	0	8.9250	0	32.9930	4	25.560	0	83.807	0	254.9	4	89.4	4	-1E+10	1	-1E+10	1	-1E+10	1	-1E+10	1	-1E+10	1	-1E+10	1
4901784	89	C	12/11/2017	10:49	-133.576	43.701	0	86.20	0	8.8640	0	33.0000	4	25.575	0	85.493	0	254.1	4	89.0	4	-1E+10	1	-1E+10	1	-1E+10	1	-1E+10	1	-1E+10	1	-1E+10	1
4901784	89	C	12/11/2017	10:49	-133.576	43.701	0	87.80	0	8.8600	0	32.9950	4	25.572	0	87.079	0	253.6	4	88.8	4	-1E+10	1	-1E+10	1	-1E+10	1	-1E+10	1	-1E+10	1	-1E+10	1
4901784	89	C	12/11/2017	10:49	-133.576	43.701	0	89.60	0	8.7600	0	33.0080	4	25.598	0	88.864	0	253.1	4	88.4	4	-1E+10	1	-1E+10	1	-1E+10	1	-1E+10	1	-1E+10	1	-1E+10	1
4901784	89	C	12/11/2017	10:49	-133.576	43.701	0	91.30	0	8.7120	0	33.0070	4	25.604	0	90.550	0	252.3	4	88.0	4	-1E+10	1	-1E+10	1	-1E+10	1	-1E+10	1	-1E+10	1	-1E+10	1
4901784	89	C	12/11/2017	10:49	-133.576	43.701	0	93.10	0	8.6330	0	33.0120	4	25.620	0	92.335	0	251.5	4	87.6	4	-1E+10	1	-1E+10	1	-1E+10	1	-1E+10	1	-1E+10	1	-1E+10	1
4901784	89	C	12/11/2017	10:49	-133.576	43.701	0	94.90	0	8.5630	0	33.0240	4	25.640	0	94.119	0	250.5	4	87.2	4	-1E+10	1	-1E+10	1	-1E+10	1	-1E+10	1	-1E+10	1	-1E+10	1
4901784	89	C	12/11/2017	10:49	-133.576	43.701	0	96.60	0	8.5480	0	33.0230	4	25.642	0	95.805	0	249.1	4	86.6	4	-1E+10	1	-1E+10	1	-1E+10	1	-1E+10	1	-1E+10	1	-1E+10	1
4901784	89	C	12/11/2017	10:49	-133.576	43.701	0	98.40	0	8.4310	0	33.0320	4	25.666	0	97.590	0	247.7	4	85.9	4	-1E+10	1	-1E+10	1	-1E+10	1	-1E+10	1	-1E+10	1	-1E+10	1
4901784	89	C	12/11/2017	10:49	-133.576	43.701	0	100.20	0	8.4050	0	33.0400	4	25.677	0	99.374	0	245.2	4	85.0	4	-1E+10	1	-1E+10	1	-1E+10	1	-1E+10	1	-1E+10	1	-1E+10	1
4901784	89	C	12/11/2017	10:49	-133.576	43.701	0	102.00	0	8.4460	0	33.0750	4	25.698	0	101.159	0	241.8	4	83.9	4	-1E+10	1	-1E+10	1	-1E+10	1	-1E+10	1	-1E+10	1	-1E+10	1
4901784	89	C	12/11/2017	10:49	-133.576	43.701	0	104.70	0	8.4520	0	33.0980	4	25.715	0	103.836	0	238.6	4	82.9	4	-1E+10	1	-1E+10	1	-1E+10	1	-1E+10	1	-1E+10	1	-1E+10	1
4901784	89	C	12/11/2017	10:49	-133.576	43.701	0	107.30	0	8.4280	0	33.1060	4	25.725	0	106.414	0	234.6	4	81.4	4	-1E+10	1	-1E+10	1	-1E+10	1	-1E+10	1	-1E+10	1	-1E+10	1
4901784	89	C	12/11/2017	10:49	-133.576	43.701	0	110.10	0	8.4300	0	33.1670	4	25.773	0	109.190	0	230.2	4	79.9	4	-1E+10	1	-1E+10	1	-1E+10	1	-1E+10	1	-1E+10	1	-1E+10	1
4901784	89	C	12/11/2017	10:49	-133.576	43.701	0	113.30	0	8.3520	0	33.2120	4	25.820	0	112.363	0	227.5	4	78.9	4	-1E+10	1	-1E+10	1	-1E+10	1	-1E+10	1	-1E+10	1	-1E+10	1
4901784	89	C	12/11/2017	10:49	-133.576	43.701	0	115.00	0	8.3540	0	33.2300	4	25.833	0	114.048	0	225.2	4	78.1	4	-1E+10	1	-1E+10	1	-1E+10	1	-1E+10	1	-1E+10	1	-1E+10	1
4901784	89	C	12/11/2017	10:49	-133.576	43.701	0	117.20	0	8.2710	0	33.2890	4	25.892	0	116.230	0	222.5	4	77.0	4	-1E+10	1	-1E+10	1	-1E+10	1	-1E+10	1	-1E+10	1	-1E+10	1
4901784	89	C	12/11/2017	10:49	-133.576	43.701	0	120.10	0	8.3070	0	33.3620	4	25.944	0	119.105	0	216.9	4	75.2	4	-1E+10	1	-1E+10	1	-1E+10	1	-1E+10	1	-1E+10	1	-1E+10	1
4901784	89	C	12/11/2017	10:49	-133.576	43.701	0	122.40	0	8.3610	0	33.4140	4	25.977	0	121.385	0	212.9	4	74.0	4	-1E+10	1	-1E+10	1	-1E+10	1	-1E+10	1	-1E+10	1	-1E+10	1
4901784	89	C	12/11/2017	10:49	-133.576	43.701	0	124.70	0	8.3760	0	33.4540	4	26.006	0	123.665	0	208.8	4	72.6	4	-1E+10	1	-1E+10	1	-1E+10	1	-1E+10	1	-1E+10	1	-1E+10	1
4901784	89	C	12/11/2017	10:49	-133.576	43.701	0	127.80	0	8.4350	0	33.5090	4	26.040	0	126.739	0	202.1	4	70.4	4	-1E+10	1	-1E+10	1	-1E+10	1	-1E+10	1	-1E+10	1	-1E+10	1
4901784	89	C	12/11/2017	10:49	-133.576	43.701	0	130.30	0	8.4730	0	33.5820	4	26.092	0	129.217	0	197.9	4	69.0	4	-1E+10	1	-1E+10	1	-1E+10	1	-1E+10	1	-1E+10	1	-1E+10	1
4901784	89	C	12/11/2017	10:49	-133.576	43.701	0	132.80	0	8.4940	0	33.6720	4	26.159	0	131.695	0	194.4	4	67.8	4	-1E+10	1	-1E+10	1	-1E+10	1	-1E+10	1	-1E+10	1	-1E+10	1
4901784	89	C	12/11/2017	10:49	-133.576	43.701	0	135.30	0	8.5050	0	33.7160	4	26.192	0	134.174	0	191.0	4	66.7	4	-1E+10	1	-1E+10	1	-1E+10	1	-1E+10	1	-1E+10	1	-1E+10	1
4901784	89	C	12/11/2017	10:49	-133.576	43.701	0	137.10	0	8.5240	0	33.7470	4	26.214	0	135.958	0	187.7	4	65.6	4	-1E+10	1	-1E+10	1	-1E+10	1	-1E+10	1	-1E+10	1	-1E+10	1
4901784	89	C	12/11/2017	10:49	-133.576	43.701	0	139.80	0	8.5420	0	33.7920	4	26.246	0	138.635	0	182.0	4	63.6	4	-1E+10	1	-1E+10	1	-1E+10	1	-1E+10	1	-1E+10	1	-1E+10	1
4901784	89	C	12/11/2017	10:49	-133.576	43.701	0	142.50	0	8.5470	0	33.8120	4	26.261	0	141.311	0	174.7	4	61.1	4	-1E+10	1	-1E+10	1	-1E+10	1	-1E+10	1	-1E+10	1	-1E+10	1
4901784	89	C	12/11/2017	10:49	-133.576	43.701	0	145.10	0	8.5180	0	33.8450	4	26.291	0	143.889	0	165.7	4	57.9	4	-1E+10	1	-1E+10	1	-1E+10	1	-1E+10	1	-1E+10	1	-1E+10	1
4901784	89	C	12/11/2017	10:49	-133.576	43.701	0	147.70	0	8.4590	0	33.8720	4	26.322	0	146.466	0	160.7	4	56.1	4	-1E+10	1	-1E+10	1	-1E+10	1	-1E+10	1	-1E+10	1	-1E+10	1
4901784	89	C	12/11/2017	10:49	-133.576	43.701	0	149.50	0	8.4420	0	33.8850	4	26.334	0	148.251	0	160.3	4	56.0	4	-1E+10	1	-1E+10	1	-1E+10	1	-1E+10	1	-1E+10	1	-1E+10	1
4901784	89	C	12/11/2017	10:49	-133.576	43.701	0	152.20	0	8.4020	0	33.8940	4	26.348	0	150.927	0	161.0	4	56.2	4	-1E+10	1	-1E+10	1	-1E+10	1	-1E+10	1	-1E+10	1	-1E+10	1
4901784	89	C	12/11/2017	10:49	-133.576	43.701	0	155.00	0	8.3610	0	33.9310	4	26.383	0	153.703	0	163.7	4	57.1	4	-1E+10	1	-1E+10	1	-1E+10	1	-1E+10	1	-1E+10	1	-1E+10	1
4901784	89	C	12/11/2017	10:49	-133.576	43.701	0	156.90	0	8.3490	0	33.9530	4	26.402	0	155.586	0	165.7	4	57.8	4	-1E+10	1	-1E+10	1	-1E+10	1	-1E+10	1	-1E+10	1	-1E+10	1
4901784	89	C	12/11/2017	10:49	-133.576	43.701	0	159.80	0	8.3320	0	33.9580	4	26.409	0	158.460	0	169.4	4	59.0	4	-1E+10	1	-1E+10	1	-1E+10	1	-1E+10	1	-1E+10	1	-1E+10	1
4901784	89	C	12/11/2017	10:49	-133.576	43.701	0	162.70	0	8.3680	0	33.9840	4	26.424	0	161.335	0	172.0	4	60.0	4	-1E+10	1	-1E+10	1	-1E+10	1	-1E+10	1	-1E+10	1	-1E+10	1
4901784	89	C	12/11/2017	10:49	-133.576	43.701	0	164.60	0	8.3370	0	33.9890	4	26.432	0	163.218	0	171.4	4	59.7	4	-1E+10	1	-1E+10	1	-1E+10	1	-1E+10	1	-1E+10	1	-1E+10	1
4901784	89	C	12/11/2017	10:49	-133.576	43.701	0	167.60	0	8.3270	0	33.9980	4	26.441	0	166.192	0	168.5	4	58.7	4	-1E+10	1	-1E+10	1	-1E+10	1	-1E+10	1	-1E+10	1	-1E+10	1
4901784	89	C	12/11/2017	10:49	-133.576	43.701	0	170.50	0	8.2810	0	33.9950	4	26.445	0	169.066	0	164.0	4	57.1	4	-1E+10	1	-1E+10	1	-1E+10	1	-1E+10	1	-1E+10	1	-1E+10	1
4901784	89	C	12/11/2017	10:49	-133.576	43.701	0	172.40	0	8.2510	0	33.9980	4	26.452	0	170.950	0	160.0	4	55.7	4	-1E+10	1	-1E+10	1	-1E+10	1	-1E+10	1	-1E+10	1	-1E+10	1
4901784	89	C	12/11/2017	10:49	-133.576	43.701	0	174.30	0	8.1820	0	33.9950	4	26.460	0	172.833	0	154.8	4	53.8	4	-1E+10	1	-1E+10	1	-1E+10	1	-1E+10	1	-1E+10	1	-1E+10	1
4901784	89	C	12/11/2017	10:49	-133.576	43.701	0	176.90	0	8.1480	0	33.9920	4	26.463	0	175.410	0	146.9	4	51.0	4	-1E+10	1	-1E+10	1	-1E+10	1	-1E+10	1	-1E+10	1	-1E+10	1
4901784	89	C	12/11/2017	10:49	-133.576	43.701	0	179.60	0	8.0020	0	33.9780	4	26.474	0	178.086	0	133.7	4	46.3	4	-1E+10	1	-1E+10	1	-1E+10	1	-1E+10	1	-1E+10	1	-1E+10	1
4901784	89	C	12/11/2017	10:49	-133.576	43.701	0	182.70	0	7.8940	0	33.9710	4	26.484	0	181.158	0	128.4	4	44.3	4	-1E+10	1	-1E+10	1	-1E+10	1	-1E+10	1	-1E+10	1	-1E+10	1
4901784	89	C	12/11/2017	10:49	-133.576	43.701	0	185.00	0	7.8280	0	33.9700	4	26.493	0	183.438	0	127.2	4	43.8	4	-1E+10	1	-1E+10	1	-1E+10	1	-1E+10	1	-1E+10	1	-1E+10	1
4901784	89	C	12/11/2017	10:49	-133.576	43.701	0	187.50	0	7.8160	0	33.9720	4	26.496	0	185.916	0	129.5	4	44.6	4	-1E+10	1	-1E+10	1	-1E+10	1	-1E+10	1	-1E+10	1	-1E+10	1
4901784	89	C	12/11/2017	10:49	-133.576	43.701	0	189.80	0	7.7950	0	33.9740	4	26.501	0	188.195	0	132.9	4	45.8	4	-1E+10	1	-1E+10	1	-1E+10	1	-1E+10	1	-1E+10	1	-1E+10	1
4901784	89	C	12/11/2017	10:49	-133.576	43.701	0	192.30	0	7.7630	0	33.9800	4	26.511	0	190.673	0	139.5	4	48.0	4	-1E+10	1	-1E+10	1	-1E+10	1	-1E+10	1	-1E+10	1	-1E+10	1
4901784	89	C	12/11/2017	10:49	-133.576	43.701	0	195.40	0	7.7680	0	33.9920	4	26.519	0	193.745	0	152.2	4	52.4	4	-1E+10	1	-1E+10	1	-1E+10	1	-1E+10	1	-1E+10	1	-1E+10	1
4901784	89	C	12/11/2017	10:49	-133.576	43.701	0	197.80	0	7.8060	0	34.0040	4	26.523	0	196.124	0	159.4	4	54.9	4	-1E+10	1	-1E+10	1	-1E+10	1	-1E+10	1	-1E+10	1	-1E+10	1
4901784	89	C	12/11/2017	10:49	-133.576	43.701	0	200.20	0	7.7860	0	34.0060	4	26.528	0	198.502	0	159.6	4	55.0	4	-1E+10	1	-1E+10	1	-1E+10	1	-1E+10	1	-1E+10	1	-1E+10	1
4901784	89	C	12/11/2017	10:49	-133.576	43.701	0	202.60	0	7.7460	0	34.0070	4	26.534	0	200.881	0	159.7	4	54.9	4	-1E+10	1	-1E+10	1	-1E+10	1	-1E+10	1	-1E+10	1	-1E+10	1
4901784	89	C	12/11/2017	10:49	-133.576	43.701	0	205.10	0	7.7230	0	34.0060	4	26.537	0	203.358	0	158.1	4	54.4	4	-1E+10	1	-1E+10	1	-1E+10	1	-1E+10	1	-1E+10	1	-1E+10	1
4901784	89	C	12/11/2017	10:49	-133.576	43.701	0	207.60	0	7.6960	0	34.0040	4	26.539	0	205.836	0	156.2	4	53.7	4	-1E+10	1	-1E+10	1	-1E+10	1	-1E+10	1	-1E+10	1	-1E+10	1
4901784	89	C	12/11/2017	10:49	-133.576	43.701	0	210.10	0	7.6300	0	34.0060	4	26.550	0	208.314	0	154.6	4	53.0	4	-1E+10	1	-1E+10	1	-1E+10	1	-1E+10	1	-1E+10	1	-1E+10	1
4901784	89	C	12/11/2017	10:49	-133.576	43.701	0	212.60	0	7.5870	0	34.0050	4	26.556	0	210.791	0	154.4	4	52.9	4	-1E+10	1	-1E+10	1	-1E+10	1	-1E+10	1	-1E+10	1	-1E+10	1
4901784	89	C	12/11/2017	10:49	-133.576	43.701	0	215.10	0	7.5490	0	34.0060	4	26.562	0	213.268	0	153.1	4	52.5	4	-1E+10	1	-1E+10	1	-1E+10	1	-1E+10	1	-1E+10	1	-1E+10	1
4901784	89	C	12/11/2017	10:49	-133.576	43.701	0	217.60	0	7.5110	0	34.0040	4	26.566	0	215.746	0	151.0	4	51.7	4	-1E+10	1	-1E+10	1	-1E+10	1	-1E+10	1	-1E+10	1	-1E+10	1
4901784	89	C	12/11/2017	10:49	-133.576	43.701	0	220.10	0	7.4700	0	34.0030	4	26.571	0	218.223	0	148.0	4	50.6	4	-1E+10	1	-1E+10	1	-1E+10	1	-1E+10	1	-1E+10	1	-1E+10	1
4901784	89	C	12/11/2017	10:49	-133.576	43.701	0	222.60	0	7.4250	0	34.0020	4	26.577	0	220.701	0	143.9	4	49.2	4	-1E+10	1	-1E+10	1	-1E+10	1	-1E+10	1	-1E+10	1	-1E+10	1
4901784	89	C	12/11/2017	10:49	-133.576	43.701	0	225.10	0	7.3750	0	34.0020	4	26.584	0	223.178	0	137.8	4	47.0	4	-1E+10	1	-1E+10	1	-1E+10	1	-1E+10	1	-1E+10	1	-1E+10	1
4901784	89	C	12/11/2017	10:49	-133.576	43.701	0	227.60	0	7.3100	0	34.0020	4	26.593	0	225.655	0	129.1	4	44.0	4	-1E+10	1	-1E+10	1	-1E+10	1	-1E+10	1	-1E+10	1	-1E+10	1
4901784	89	C	12/11/2017	10:49	-133.576	43.701	0	230.20	0	7.2710	0	34.0020	4	26.598	0	228.232	0	121.8	4	41.5	4	-1E+10	1	-1E+10	1	-1E+10	1	-1E+10	1	-1E+10	1	-1E+10	1
4901784	89	C	12/11/2017	10:49	-133.576	43.701	0	232.80	0	7.2190	0	34.0040	4	26.607	0	230.808	0	120.3	4	40.9	4	-1E+10	1	-1E+10	1	-1E+10	1	-1E+10	1	-1E+10	1	-1E+10	1
4901784	89	C	12/11/2017	10:49	-133.576	43.701	0	235.30	0	7.1630	0	34.0040	4	26.615	0	233.285	0	123.8	4	42.0	4	-1E+10	1	-1E+10	1	-1E+10	1	-1E+10	1	-1E+10	1	-1E+10	1
4901784	89	C	12/11/2017	10:49	-133.576	43.701	0	237.80	0	7.0790	0	34.0040	4	26.627	0	235.762	0	126.7	4	43.0	4	-1E+10	1	-1E+10	1	-1E+10	1	-1E+10	1	-1E+10	1	-1E+10	1
4901784	89	C	12/11/2017	10:49	-133.576	43.701	0	239.50	0	7.0450	0	34.0030	4	26.630	0	237.447	0	125.7	4	42.6	4	-1E+10	1	-1E+10	1	-1E+10	1	-1E+10	1	-1E+10	1	-1E+10	1
4901784	89	C	12/11/2017	10:49	-133.576	43.701	0	242.10	0	7.0090	0	34.0050	4	26.637	0	240.023	0	124.5	4	42.1	4	-1E+10	1	-1E+10	1	-1E+10	1	-1E+10	1	-1E+10	1	-1E+10	1
4901784	89	C	12/11/2017	10:49	-133.576	43.701	0	244.70	0	6.9810	0	34.0060	4	26.642	0	242.599	0	124.0	4	41.9	4	-1E+10	1	-1E+10	1	-1E+10	1	-1E+10	1	-1E+10	1	-1E+10	1
4901784	89	C	12/11/2017	10:49	-133.576	43.701	0	247.40	0	6.9450	0	34.0040	4	26.645	0	245.274	0	124.5	4	42.1	4	-1E+10	1	-1E+10	1	-1E+10	1	-1E+10	1	-1E+10	1	-1E+10	1
4901784	89	C	12/11/2017	10:49	-133.576	43.701	0	250.00	0	6.9050	0	34.0020	4	26.649	0	247.850	0	125.6	4	42.4	4	-1E+10	1	-1E+10	1	-1E+10	1	-1E+10	1	-1E+10	1	-1E+10	1
4901784	89	C	12/11/2017	10:49	-133.576	43.701	0	252.70	0	6.8210	0	34.0010	4	26.659	0	250.525	0	125.7	4	42.3	4	-1E+10	1	-1E+10	1	-1E+10	1	-1E+10	1	-1E+10	1	-1E+10	1
4901784	89	C	12/11/2017	10:49	-133.576	43.701	0	255.30	0	6.7970	0	34.0030	4	26.664	0	253.102	0	123.1	4	41.4	4	-1E+10	1	-1E+10	1	-1E+10	1	-1E+10	1	-1E+10	1	-1E+10	1
4901784	89	C	12/11/2017	10:49	-133.576	43.701	0	257.10	0	6.7890	0	34.0010	4	26.664	0	254.885	0	121.6	4	40.9	4	-1E+10	1	-1E+10	1	-1E+10	1	-1E+10	1	-1E+10	1	-1E+10	1
4901784	89	C	12/11/2017	10:49	-133.576	43.701	0	259.70	0	6.7560	0	34.0050	4	26.671	0	257.461	0	117.6	4	39.6	4	-1E+10	1	-1E+10	1	-1E+10	1	-1E+10	1	-1E+10	1	-1E+10	1
4901784	89	C	12/11/2017	10:49	-133.576	43.701	0	262.30	0	6.7510	0	34.0100	4	26.676	0	260.037	0	113.9	4	38.3	4	-1E+10	1	-1E+10	1	-1E+10	1	-1E+10	1	-1E+10	1	-1E+10	1
4901784	89	C	12/11/2017	10:49	-133.576	43.701	0	265.00	0	6.7540	0	34.0090	4	26.675	0	262.712	0	113.3	4	38.1	4	-1E+10	1	-1E+10	1	-1E+10	1	-1E+10	1	-1E+10	1	-1E+10	1
4901784	89	C	12/11/2017	10:49	-133.576	43.701	0	267.60	0	6.7460	0	34.0090	4	26.676	0	265.288	0	113.2	4	38.1	4	-1E+10	1	-1E+10	1	-1E+10	1	-1E+10	1	-1E+10	1	-1E+10	1
4901784	89	C	12/11/2017	10:49	-133.576	43.701	0	270.30	0	6.6810	0	34.0050	4	26.682	0	267.963	0	113.9	4	38.3	4	-1E+10	1	-1E+10	1	-1E+10	1	-1E+10	1	-1E+10	1	-1E+10	1
4901784	89	C	12/11/2017	10:49	-133.576	43.701	0	272.90	0	6.6570	0	34.0070	4	26.686	0	270.538	0	115.8	4	38.9	4	-1E+10	1	-1E+10	1	-1E+10	1	-1E+10	1	-1E+10	1	-1E+10	1
4901784	89	C	12/11/2017	10:49	-133.576	43.701	0	274.70	0	6.5660	0	34.0030	4	26.695	0	272.322	0	118.9	4	39.8	4	-1E+10	1	-1E+10	1	-1E+10	1	-1E+10	1	-1E+10	1	-1E+10	1
4901784	89	C	12/11/2017	10:49	-133.576	43.701	0	277.50	0	6.4600	0	33.9970	4	26.704	0	275.096	0	117.7	4	39.3	4	-1E+10	1	-1E+10	1	-1E+10	1	-1E+10	1	-1E+10	1	-1E+10	1
4901784	89	C	12/11/2017	10:49	-133.576	43.701	0	280.10	0	6.4140	0	33.9970	4	26.710	0	277.671	0	112.6	4	37.6	4	-1E+10	1	-1E+10	1	-1E+10	1	-1E+10	1	-1E+10	1	-1E+10	1
4901784	89	C	12/11/2017	10:49	-133.576	43.701	0	282.80	0	6.4200	0	34.0030	4	26.714	0	280.346	0	106.0	4	35.4	4	-1E+10	1	-1E+10	1	-1E+10	1	-1E+10	1	-1E+10	1	-1E+10	1
4901784	89	C	12/11/2017	10:49	-133.576	43.701	0	285.50	0	6.4370	0	34.0100	4	26.718	0	283.021	0	100.9	4	33.7	4	-1E+10	1	-1E+10	1	-1E+10	1	-1E+10	1	-1E+10	1	-1E+10	1
4901784	89	C	12/11/2017	10:49	-133.576	43.701	0	287.30	0	6.4400	0	34.0110	4	26.718	0	284.804	0	97.8	4	32.7	4	-1E+10	1	-1E+10	1	-1E+10	1	-1E+10	1	-1E+10	1	-1E+10	1
4901784	89	C	12/11/2017	10:49	-133.576	43.701	0	290.00	0	6.4370	0	34.0180	4	26.724	0	287.479	0	94.6	4	31.6	4	-1E+10	1	-1E+10	1	-1E+10	1	-1E+10	1	-1E+10	1	-1E+10	1
4901784	89	C	12/11/2017	10:49	-133.576	43.701	0	292.60	0	6.4120	0	34.0200	4	26.729	0	290.054	0	92.6	4	30.9	4	-1E+10	1	-1E+10	1	-1E+10	1	-1E+10	1	-1E+10	1	-1E+10	1
4901784	89	C	12/11/2017	10:49	-133.576	43.701	0	294.40	0	6.3990	0	34.0210	4	26.732	0	291.837	0	91.1	4	30.4	4	-1E+10	1	-1E+10	1	-1E+10	1	-1E+10	1	-1E+10	1	-1E+10	1
4901784	89	C	12/11/2017	10:49	-133.576	43.701	0	297.20	0	6.3740	0	34.0220	4	26.736	0	294.611	0	88.8	4	29.6	4	-1E+10	1	-1E+10	1	-1E+10	1	-1E+10	1	-1E+10	1	-1E+10	1
4901784	89	C	12/11/2017	10:49	-133.576	43.701	0	299.90	0	6.3250	0	34.0280	4	26.747	0	297.285	0	86.9	4	29.0	4	-1E+10	1	-1E+10	1	-1E+10	1	-1E+10	1	-1E+10	1	-1E+10	1
4901784	89	C	12/11/2017	10:49	-133.576	43.701	0	302.60	0	6.3100	0	34.0280	4	26.749	0	299.960	0	85.2	4	28.4	4	-1E+10	1	-1E+10	1	-1E+10	1	-1E+10	1	-1E+10	1	-1E+10	1
4901784	89	C	12/11/2017	10:49	-133.576	43.701	0	305.30	0	6.3000	0	34.0300	4	26.752	0	302.634	0	83.1	4	27.7	4	-1E+10	1	-1E+10	1	-1E+10	1	-1E+10	1	-1E+10	1	-1E+10	1
4901784	89	C	12/11/2017	10:49	-133.576	43.701	0	307.10	0	6.2710	0	34.0330	4	26.758	0	304.417	0	82.2	4	27.3	4	-1E+10	1	-1E+10	1	-1E+10	1	-1E+10	1	-1E+10	1	-1E+10	1
4901784	89	C	12/11/2017	10:49	-133.576	43.701	0	309.90	0	6.2450	0	34.0360	4	26.763	0	307.191	0	81.1	4	27.0	4	-1E+10	1	-1E+10	1	-1E+10	1	-1E+10	1	-1E+10	1	-1E+10	1
4901784	89	C	12/11/2017	10:49	-133.576	43.701	0	312.60	0	6.2320	0	34.0360	4	26.765	0	309.865	0	80.3	4	26.7	4	-1E+10	1	-1E+10	1	-1E+10	1	-1E+10	1	-1E+10	1	-1E+10	1
4901784	89	C	12/11/2017	10:49	-133.576	43.701	0	314.50	0	6.2230	0	34.0370	4	26.767	0	311.747	0	79.8	4	26.5	4	-1E+10	1	-1E+10	1	-1E+10	1	-1E+10	1	-1E+10	1	-1E+10	1
4901784	89	C	12/11/2017	10:49	-133.576	43.701	0	317.20	0	6.1900	0	34.0360	4	26.770	0	314.422	0	79.1	4	26.3	4	-1E+10	1	-1E+10	1	-1E+10	1	-1E+10	1	-1E+10	1	-1E+10	1
4901784	89	C	12/11/2017	10:49	-133.576	43.701	0	320.00	0	6.1440	0	34.0370	4	26.777	0	317.195	0	77.9	4	25.8	4	-1E+10	1	-1E+10	1	-1E+10	1	-1E+10	1	-1E+10	1	-1E+10	1
4901784	89	C	12/11/2017	10:49	-133.576	43.701	0	322.70	0	6.1140	0	34.0390	4	26.783	0	319.869	0	76.5	4	25.4	4	-1E+10	1	-1E+10	1	-1E+10	1	-1E+10	1	-1E+10	1	-1E+10	1
4901784	89	C	12/11/2017	10:49	-133.576	43.701	0	325.40	0	6.0930	0	34.0410	4	26.787	0	322.543	0	75.6	4	25.1	4	-1E+10	1	-1E+10	1	-1E+10	1	-1E+10	1	-1E+10	1	-1E+10	1
4901784	89	C	12/11/2017	10:49	-133.576	43.701	0	327.30	0	6.0860	0	34.0400	4	26.787	0	324.425	0	75.3	4	25.0	4	-1E+10	1	-1E+10	1	-1E+10	1	-1E+10	1	-1E+10	1	-1E+10	1
4901784	89	C	12/11/2017	10:49	-133.576	43.701	0	330.10	0	6.0390	0	34.0390	4	26.792	0	327.198	0	74.8	4	24.8	4	-1E+10	1	-1E+10	1	-1E+10	1	-1E+10	1	-1E+10	1	-1E+10	1
4901784	89	C	12/11/2017	10:49	-133.576	43.701	0	332.80	0	5.9510	0	34.0410	4	26.805	0	329.872	0	74.4	4	24.6	4	-1E+10	1	-1E+10	1	-1E+10	1	-1E+10	1	-1E+10	1	-1E+10	1
4901784	89	C	12/11/2017	10:49	-133.576	43.701	0	334.70	0	5.9090	0	34.0420	4	26.811	0	331.754	0	74.7	4	24.6	4	-1E+10	1	-1E+10	1	-1E+10	1	-1E+10	1	-1E+10	1	-1E+10	1
4901784	89	C	12/11/2017	10:49	-133.576	43.701	0	337.50	0	5.8560	0	34.0370	4	26.813	0	334.527	0	74.9	4	24.7	4	-1E+10	1	-1E+10	1	-1E+10	1	-1E+10	1	-1E+10	1	-1E+10	1
4901784	89	C	12/11/2017	10:49	-133.576	43.701	0	340.30	0	5.8020	0	34.0330	4	26.817	0	337.300	0	74.0	4	24.3	4	-1E+10	1	-1E+10	1	-1E+10	1	-1E+10	1	-1E+10	1	-1E+10	1
4901784	89	C	12/11/2017	10:49	-133.576	43.701	0	342.20	0	5.7860	0	34.0350	4	26.820	0	339.182	0	72.6	4	23.9	4	-1E+10	1	-1E+10	1	-1E+10	1	-1E+10	1	-1E+10	1	-1E+10	1
4901784	89	C	12/11/2017	10:49	-133.576	43.701	0	345.00	0	5.7690	0	34.0400	4	26.827	0	341.955	0	70.8	4	23.3	4	-1E+10	1	-1E+10	1	-1E+10	1	-1E+10	1	-1E+10	1	-1E+10	1
4901784	89	C	12/11/2017	10:49	-133.576	43.701	0	347.70	0	5.7560	0	34.0430	4	26.831	0	344.629	0	69.1	4	22.7	4	-1E+10	1	-1E+10	1	-1E+10	1	-1E+10	1	-1E+10	1	-1E+10	1
4901784	89	C	12/11/2017	10:49	-133.576	43.701	0	349.60	0	5.7430	0	34.0470	4	26.835	0	346.511	0	68.1	4	22.4	4	-1E+10	1	-1E+10	1	-1E+10	1	-1E+10	1	-1E+10	1	-1E+10	1
4901784	89	C	12/11/2017	10:49	-133.576	43.701	0	352.40	0	5.7360	0	34.0480	4	26.837	0	349.284	0	66.5	4	21.8	4	-1E+10	1	-1E+10	1	-1E+10	1	-1E+10	1	-1E+10	1	-1E+10	1
4901784	89	C	12/11/2017	10:49	-133.576	43.701	0	355.10	0	5.7290	0	34.0510	4	26.840	0	351.957	0	64.7	4	21.3	4	-1E+10	1	-1E+10	1	-1E+10	1	-1E+10	1	-1E+10	1	-1E+10	1
4901784	89	C	12/11/2017	10:49	-133.576	43.701	0	357.80	0	5.7130	0	34.0570	4	26.847	0	354.631	0	63.3	4	20.8	4	-1E+10	1	-1E+10	1	-1E+10	1	-1E+10	1	-1E+10	1	-1E+10	1
4901784	89	C	12/11/2017	10:49	-133.576	43.701	0	360.60	0	5.6950	0	34.0580	4	26.850	0	357.404	0	62.5	4	20.5	4	-1E+10	1	-1E+10	1	-1E+10	1	-1E+10	1	-1E+10	1	-1E+10	1
4901784	89	C	12/11/2017	10:49	-133.576	43.701	0	362.40	0	5.6850	0	34.0580	4	26.851	0	359.186	0	61.8	4	20.3	4	-1E+10	1	-1E+10	1	-1E+10	1	-1E+10	1	-1E+10	1	-1E+10	1
4901784	89	C	12/11/2017	10:49	-133.576	43.701	0	364.40	0	5.6750	0	34.0580	4	26.852	0	361.167	0	60.9	4	20.0	4	-1E+10	1	-1E+10	1	-1E+10	1	-1E+10	1	-1E+10	1	-1E+10	1
4901784	89	C	12/11/2017	10:49	-133.576	43.701	0	367.20	0	5.6570	0	34.0620	4	26.858	0	363.940	0	59.3	4	19.5	4	-1E+10	1	-1E+10	1	-1E+10	1	-1E+10	1	-1E+10	1	-1E+10	1
4901784	89	C	12/11/2017	10:49	-133.576	43.701	0	369.90	0	5.6340	0	34.0650	4	26.863	0	366.613	0	57.6	4	18.9	4	-1E+10	1	-1E+10	1	-1E+10	1	-1E+10	1	-1E+10	1	-1E+10	1
4901784	89	C	12/11/2017	10:49	-133.576	43.701	0	372.70	0	5.6250	0	34.0720	4	26.870	0	369.386	0	55.5	4	18.2	4	-1E+10	1	-1E+10	1	-1E+10	1	-1E+10	1	-1E+10	1	-1E+10	1
4901784	89	C	12/11/2017	10:49	-133.576	43.701	0	375.40	0	5.6270	0	34.0780	4	26.874	0	372.059	0	54.2	4	17.8	4	-1E+10	1	-1E+10	1	-1E+10	1	-1E+10	1	-1E+10	1	-1E+10	1
4901784	89	C	12/11/2017	10:49	-133.576	43.701	0	377.20	0	5.6320	0	34.0770	4	26.873	0	373.842	0	53.4	4	17.5	4	-1E+10	1	-1E+10	1	-1E+10	1	-1E+10	1	-1E+10	1	-1E+10	1
4901784	89	C	12/11/2017	10:49	-133.576	43.701	0	380.00	0	5.6050	0	34.0810	4	26.879	0	376.614	0	52.3	4	17.1	4	-1E+10	1	-1E+10	1	-1E+10	1	-1E+10	1	-1E+10	1	-1E+10	1
4901784	89	C	12/11/2017	10:49	-133.576	43.701	0	382.70	0	5.5690	0	34.0850	4	26.887	0	379.288	0	51.1	4	16.7	4	-1E+10	1	-1E+10	1	-1E+10	1	-1E+10	1	-1E+10	1	-1E+10	1
4901784	89	C	12/11/2017	10:49	-133.576	43.701	0	384.60	0	5.5630	0	34.0870	4	26.889	0	381.169	0	50.4	4	16.5	4	-1E+10	1	-1E+10	1	-1E+10	1	-1E+10	1	-1E+10	1	-1E+10	1
4901784	89	C	12/11/2017	10:49	-133.576	43.701	0	387.50	0	5.5380	0	34.0900	4	26.895	0	384.041	0	49.5	4	16.2	4	-1E+10	1	-1E+10	1	-1E+10	1	-1E+10	1	-1E+10	1	-1E+10	1
4901784	89	C	12/11/2017	10:49	-133.576	43.701	0	390.20	0	5.5320	0	34.0930	4	26.898	0	386.714	0	48.5	4	15.9	4	-1E+10	1	-1E+10	1	-1E+10	1	-1E+10	1	-1E+10	1	-1E+10	1
4901784	89	C	12/11/2017	10:49	-133.576	43.701	0	392.00	0	5.5310	0	34.0930	4	26.898	0	388.496	0	47.9	4	15.7	4	-1E+10	1	-1E+10	1	-1E+10	1	-1E+10	1	-1E+10	1	-1E+10	1
4901784	89	C	12/11/2017	10:49	-133.576	43.701	0	394.80	0	5.4950	0	34.0990	4	26.907	0	391.269	0	46.8	4	15.3	4	-1E+10	1	-1E+10	1	-1E+10	1	-1E+10	1	-1E+10	1	-1E+10	1
4901784	89	C	12/11/2017	10:49	-133.576	43.701	0	397.60	0	5.4640	0	34.1020	4	26.913	0	394.041	0	46.1	4	15.1	4	-1E+10	1	-1E+10	1	-1E+10	1	-1E+10	1	-1E+10	1	-1E+10	1
4901784	89	C	12/11/2017	10:49	-133.576	43.701	0	399.90	0	5.4490	0	34.1030	4	26.916	0	396.318	0	45.5	4	14.9	4	-1E+10	1	-1E+10	1	-1E+10	1	-1E+10	1	-1E+10	1	-1E+10	1
4901784	89	C	12/11/2017	10:49	-133.576	43.701	0	402.60	0	5.4330	0	34.1060	4	26.920	0	398.991	0	44.9	4	14.7	4	-1E+10	1	-1E+10	1	-1E+10	1	-1E+10	1	-1E+10	1	-1E+10	1
4901784	89	C	12/11/2017	10:49	-133.576	43.701	0	405.00	0	5.4150	0	34.1080	4	26.924	0	401.367	0	44.5	4	14.5	4	-1E+10	1	-1E+10	1	-1E+10	1	-1E+10	1	-1E+10	1	-1E+10	1
4901784	89	C	12/11/2017	10:49	-133.576	43.701	0	407.30	0	5.4050	0	34.1090	4	26.926	0	403.645	0	44.1	4	14.4	4	-1E+10	1	-1E+10	1	-1E+10	1	-1E+10	1	-1E+10	1	-1E+10	1
4901784	89	C	12/11/2017	10:49	-133.576	43.701	0	410.40	0	5.3960	0	34.1110	4	26.928	0	406.714	0	43.3	4	14.1	4	-1E+10	1	-1E+10	1	-1E+10	1	-1E+10	1	-1E+10	1	-1E+10	1
4901784	89	C	12/11/2017	10:49	-133.576	43.701	0	412.80	0	5.3710	0	34.1110	4	26.931	0	409.090	0	42.9	4	14.0	4	-1E+10	1	-1E+10	1	-1E+10	1	-1E+10	1	-1E+10	1	-1E+10	1
4901784	89	C	12/11/2017	10:49	-133.576	43.701	0	415.20	0	5.3410	0	34.1140	4	26.937	0	411.466	0	42.1	4	13.7	4	-1E+10	1	-1E+10	1	-1E+10	1	-1E+10	1	-1E+10	1	-1E+10	1
4901784	89	C	12/11/2017	10:49	-133.576	43.701	0	417.50	0	5.3300	0	34.1150	4	26.939	0	413.743	0	41.5	4	13.5	4	-1E+10	1	-1E+10	1	-1E+10	1	-1E+10	1	-1E+10	1	-1E+10	1
4901784	89	C	12/11/2017	10:49	-133.576	43.701	0	419.90	0	5.3070	0	34.1190	4	26.945	0	416.119	0	40.8	4	13.3	4	-1E+10	1	-1E+10	1	-1E+10	1	-1E+10	1	-1E+10	1	-1E+10	1
4901784	89	C	12/11/2017	10:49	-133.576	43.701	0	422.40	0	5.2880	0	34.1210	4	26.949	0	418.594	0	40.3	4	13.1	4	-1E+10	1	-1E+10	1	-1E+10	1	-1E+10	1	-1E+10	1	-1E+10	1
4901784	89	C	12/11/2017	10:49	-133.576	43.701	0	424.90	0	5.2570	0	34.1230	4	26.954	0	421.069	0	39.7	4	12.9	4	-1E+10	1	-1E+10	1	-1E+10	1	-1E+10	1	-1E+10	1	-1E+10	1
4901784	89	C	12/11/2017	10:49	-133.576	43.701	0	427.20	0	5.2240	0	34.1260	4	26.961	0	423.346	0	39.1	4	12.7	4	-1E+10	1	-1E+10	1	-1E+10	1	-1E+10	1	-1E+10	1	-1E+10	1
4901784	89	C	12/11/2017	10:49	-133.576	43.701	0	429.70	0	5.2260	0	34.1290	4	26.963	0	425.821	0	38.6	4	12.5	4	-1E+10	1	-1E+10	1	-1E+10	1	-1E+10	1	-1E+10	1	-1E+10	1
4901784	89	C	12/11/2017	10:49	-133.576	43.701	0	432.30	0	5.2200	0	34.1300	4	26.964	0	428.394	0	38.0	4	12.3	4	-1E+10	1	-1E+10	1	-1E+10	1	-1E+10	1	-1E+10	1	-1E+10	1
4901784	89	C	12/11/2017	10:49	-133.576	43.701	0	434.80	0	5.2100	0	34.1330	4	26.968	0	430.869	0	37.4	4	12.1	4	-1E+10	1	-1E+10	1	-1E+10	1	-1E+10	1	-1E+10	1	-1E+10	1
4901784	89	C	12/11/2017	10:49	-133.576	43.701	0	437.30	0	5.2010	0	34.1350	4	26.970	0	433.344	0	36.8	4	12.0	4	-1E+10	1	-1E+10	1	-1E+10	1	-1E+10	1	-1E+10	1	-1E+10	1
4901784	89	C	12/11/2017	10:49	-133.576	43.701	0	439.90	0	5.1980	0	34.1370	4	26.972	0	435.918	0	36.2	4	11.7	4	-1E+10	1	-1E+10	1	-1E+10	1	-1E+10	1	-1E+10	1	-1E+10	1
4901784	89	C	12/11/2017	10:49	-133.576	43.701	0	442.50	0	5.1940	0	34.1410	4	26.976	0	438.492	0	35.7	4	11.6	4	-1E+10	1	-1E+10	1	-1E+10	1	-1E+10	1	-1E+10	1	-1E+10	1
4901784	89	C	12/11/2017	10:49	-133.576	43.701	0	445.10	0	5.1790	0	34.1410	4	26.978	0	441.065	0	35.3	4	11.5	4	-1E+10	1	-1E+10	1	-1E+10	1	-1E+10	1	-1E+10	1	-1E+10	1
4901784	89	C	12/11/2017	10:49	-133.576	43.701	0	447.80	0	5.1670	0	34.1430	4	26.981	0	443.738	0	34.8	4	11.3	4	-1E+10	1	-1E+10	1	-1E+10	1	-1E+10	1	-1E+10	1	-1E+10	1
4901784	89	C	12/11/2017	10:49	-133.576	43.701	0	450.40	0	5.1530	0	34.1450	4	26.984	0	446.311	0	34.4	4	11.2	4	-1E+10	1	-1E+10	1	-1E+10	1	-1E+10	1	-1E+10	1	-1E+10	1
4901784	89	C	12/11/2017	10:49	-133.576	43.701	0	453.00	0	5.1410	0	34.1470	4	26.987	0	448.885	0	34.0	4	11.0	4	-1E+10	1	-1E+10	1	-1E+10	1	-1E+10	1	-1E+10	1	-1E+10	1
4901784	89	C	12/11/2017	10:49	-133.576	43.701	0	454.70	0	5.1200	0	34.1490	4	26.991	0	450.568	0	33.8	4	11.0	4	-1E+10	1	-1E+10	1	-1E+10	1	-1E+10	1	-1E+10	1	-1E+10	1
4901784	89	C	12/11/2017	10:49	-133.576	43.701	0	457.40	0	5.1170	0	34.1490	4	26.991	0	453.240	0	33.5	4	10.9	4	-1E+10	1	-1E+10	1	-1E+10	1	-1E+10	1	-1E+10	1	-1E+10	1
4901784	89	C	12/11/2017	10:49	-133.576	43.701	0	460.00	0	5.1080	0	34.1500	4	26.993	0	455.814	0	33.0	4	10.7	4	-1E+10	1	-1E+10	1	-1E+10	1	-1E+10	1	-1E+10	1	-1E+10	1
4901784	89	C	12/11/2017	10:49	-133.576	43.701	0	462.70	0	5.0910	0	34.1520	4	26.997	0	458.486	0	32.4	4	10.5	4	-1E+10	1	-1E+10	1	-1E+10	1	-1E+10	1	-1E+10	1	-1E+10	1
4901784	89	C	12/11/2017	10:49	-133.576	43.701	0	465.30	0	5.0630	0	34.1550	4	27.002	0	461.060	0	31.9	4	10.3	4	-1E+10	1	-1E+10	1	-1E+10	1	-1E+10	1	-1E+10	1	-1E+10	1
4901784	89	C	12/11/2017	10:49	-133.576	43.701	0	467.10	0	5.0550	0	34.1550	4	27.003	0	462.841	0	31.5	4	10.2	4	-1E+10	1	-1E+10	1	-1E+10	1	-1E+10	1	-1E+10	1	-1E+10	1
4901784	89	C	12/11/2017	10:49	-133.576	43.701	0	469.80	0	5.0550	0	34.1590	4	27.007	0	465.514	0	31.0	4	10.0	4	-1E+10	1	-1E+10	1	-1E+10	1	-1E+10	1	-1E+10	1	-1E+10	1
4901784	89	C	12/11/2017	10:49	-133.576	43.701	0	472.60	0	5.0490	0	34.1610	4	27.009	0	468.285	0	30.5	4	9.9	4	-1E+10	1	-1E+10	1	-1E+10	1	-1E+10	1	-1E+10	1	-1E+10	1
4901784	89	C	12/11/2017	10:49	-133.576	43.701	0	475.30	0	5.0280	0	34.1640	4	27.014	0	470.957	0	30.1	4	9.7	4	-1E+10	1	-1E+10	1	-1E+10	1	-1E+10	1	-1E+10	1	-1E+10	1
4901784	89	C	12/11/2017	10:49	-133.576	43.701	0	478.00	0	5.0140	0	34.1670	4	27.018	0	473.629	0	29.6	4	9.6	4	-1E+10	1	-1E+10	1	-1E+10	1	-1E+10	1	-1E+10	1	-1E+10	1
4901784	89	C	12/11/2017	10:49	-133.576	43.701	0	479.90	0	5.0070	0	34.1680	4	27.019	0	475.510	0	29.4	4	9.5	4	-1E+10	1	-1E+10	1	-1E+10	1	-1E+10	1	-1E+10	1	-1E+10	1
4901784	89	C	12/11/2017	10:49	-133.576	43.701	0	482.60	0	4.9970	0	34.1710	4	27.023	0	478.182	0	29.0	4	9.4	4	-1E+10	1	-1E+10	1	-1E+10	1	-1E+10	1	-1E+10	1	-1E+10	1
4901784	89	C	12/11/2017	10:49	-133.576	43.701	0	485.40	0	4.9930	0	34.1720	4	27.024	0	480.953	0	28.6	4	9.2	4	-1E+10	1	-1E+10	1	-1E+10	1	-1E+10	1	-1E+10	1	-1E+10	1
4901784	89	C	12/11/2017	10:49	-133.576	43.701	0	487.30	0	4.9900	0	34.1730	4	27.025	0	482.834	0	28.3	4	9.2	4	-1E+10	1	-1E+10	1	-1E+10	1	-1E+10	1	-1E+10	1	-1E+10	1
4901784	89	C	12/11/2017	10:49	-133.576	43.701	0	490.10	0	4.9720	0	34.1750	4	27.029	0	485.605	0	28.0	4	9.1	4	-1E+10	1	-1E+10	1	-1E+10	1	-1E+10	1	-1E+10	1	-1E+10	1
4901784	89	C	12/11/2017	10:49	-133.576	43.701	0	493.00	0	4.9640	0	34.1760	4	27.031	0	488.475	0	27.5	4	8.9	4	-1E+10	1	-1E+10	1	-1E+10	1	-1E+10	1	-1E+10	1	-1E+10	1
4901784	89	C	12/11/2017	10:49	-133.576	43.701	0	494.90	0	4.9670	0	34.1770	4	27.031	0	490.355	0	27.1	4	8.8	4	-1E+10	1	-1E+10	1	-1E+10	1	-1E+10	1	-1E+10	1	-1E+10	1
4901784	89	C	12/11/2017	10:49	-133.576	43.701	0	497.70	0	4.9700	0	34.1810	4	27.034	0	493.126	0	26.6	4	8.6	4	-1E+10	1	-1E+10	1	-1E+10	1	-1E+10	1	-1E+10	1	-1E+10	1
4901784	89	C	12/11/2017	10:49	-133.576	43.701	0	500.50	0	4.9610	0	34.1850	4	27.038	0	495.897	0	26.1	4	8.4	4	-1E+10	1	-1E+10	1	-1E+10	1	-1E+10	1	-1E+10	1	-1E+10	1
4901784	89	C	12/11/2017	10:49	-133.576	43.701	0	505.50	0	4.9250	0	34.1870	4	27.044	0	500.845	0	25.5	4	8.2	4	-1E+10	1	-1E+10	1	-1E+10	1	-1E+10	1	-1E+10	1	-1E+10	1
4901784	89	C	12/11/2017	10:49	-133.576	43.701	0	509.90	0	4.8960	0	34.1920	4	27.051	0	505.199	0	24.8	4	8.0	4	-1E+10	1	-1E+10	1	-1E+10	1	-1E+10	1	-1E+10	1	-1E+10	1
4901784	89	C	12/11/2017	10:49	-133.576	43.701	0	514.70	0	4.8660	0	34.1960	4	27.058	0	509.949	0	23.9	4	7.7	4	-1E+10	1	-1E+10	1	-1E+10	1	-1E+10	1	-1E+10	1	-1E+10	1
4901784	89	C	12/11/2017	10:49	-133.576	43.701	0	519.60	0	4.8540	0	34.2000	4	27.062	0	514.798	0	22.9	4	7.4	4	-1E+10	1	-1E+10	1	-1E+10	1	-1E+10	1	-1E+10	1	-1E+10	1
4901784	89	C	12/11/2017	10:49	-133.576	43.701	0	524.60	0	4.8350	0	34.2100	4	27.072	0	519.745	0	21.9	4	7.0	4	-1E+10	1	-1E+10	1	-1E+10	1	-1E+10	1	-1E+10	1	-1E+10	1
4901784	89	C	12/11/2017	10:49	-133.576	43.701	0	529.50	0	4.8180	0	34.2130	4	27.077	0	524.594	0	21.5	4	6.9	4	-1E+10	1	-1E+10	1	-1E+10	1	-1E+10	1	-1E+10	1	-1E+10	1
4901784	89	C	12/11/2017	10:49	-133.576	43.701	0	534.40	0	4.7790	0	34.2160	4	27.084	0	529.442	0	21.1	4	6.8	4	-1E+10	1	-1E+10	1	-1E+10	1	-1E+10	1	-1E+10	1	-1E+10	1
4901784	89	C	12/11/2017	10:49	-133.576	43.701	0	539.40	0	4.7540	0	34.2190	4	27.089	0	534.389	0	20.5	4	6.6	4	-1E+10	1	-1E+10	1	-1E+10	1	-1E+10	1	-1E+10	1	-1E+10	1
4901784	89	C	12/11/2017	10:49	-133.576	43.701	0	544.40	0	4.7430	0	34.2220	4	27.092	0	539.336	0	20.1	4	6.5	4	-1E+10	1	-1E+10	1	-1E+10	1	-1E+10	1	-1E+10	1	-1E+10	1
4901784	89	C	12/11/2017	10:49	-133.576	43.701	0	549.40	0	4.7350	0	34.2250	4	27.096	0	544.283	0	19.6	4	6.3	4	-1E+10	1	-1E+10	1	-1E+10	1	-1E+10	1	-1E+10	1	-1E+10	1
4901784	89	C	12/11/2017	10:49	-133.576	43.701	0	554.40	0	4.7220	0	34.2290	4	27.100	0	549.230	0	19.0	4	6.1	4	-1E+10	1	-1E+10	1	-1E+10	1	-1E+10	1	-1E+10	1	-1E+10	1
4901784	89	C	12/11/2017	10:49	-133.576	43.701	0	559.40	0	4.7230	0	34.2350	4	27.105	0	554.177	0	18.3	4	5.9	4	-1E+10	1	-1E+10	1	-1E+10	1	-1E+10	1	-1E+10	1	-1E+10	1
4901784	89	C	12/11/2017	10:49	-133.576	43.701	0	564.50	0	4.6950	0	34.2380	4	27.111	0	559.222	0	17.9	4	5.7	4	-1E+10	1	-1E+10	1	-1E+10	1	-1E+10	1	-1E+10	1	-1E+10	1
4901784	89	C	12/11/2017	10:49	-133.576	43.701	0	569.70	0	4.6800	0	34.2430	4	27.116	0	564.367	0	17.3	4	5.6	4	-1E+10	1	-1E+10	1	-1E+10	1	-1E+10	1	-1E+10	1	-1E+10	1
4901784	89	C	12/11/2017	10:49	-133.576	43.701	0	574.90	0	4.6590	0	34.2460	4	27.121	0	569.511	0	16.8	4	5.4	4	-1E+10	1	-1E+10	1	-1E+10	1	-1E+10	1	-1E+10	1	-1E+10	1
4901784	89	C	12/11/2017	10:49	-133.576	43.701	0	580.10	0	4.6350	0	34.2550	4	27.131	0	574.655	0	16.2	4	5.2	4	-1E+10	1	-1E+10	1	-1E+10	1	-1E+10	1	-1E+10	1	-1E+10	1
4901784	89	C	12/11/2017	10:49	-133.576	43.701	0	585.30	0	4.5940	0	34.2570	4	27.137	0	579.799	0	16.0	4	5.1	4	-1E+10	1	-1E+10	1	-1E+10	1	-1E+10	1	-1E+10	1	-1E+10	1
4901784	89	C	12/11/2017	10:49	-133.576	43.701	0	590.60	0	4.5840	0	34.2620	4	27.142	0	585.042	0	15.4	4	4.9	4	-1E+10	1	-1E+10	1	-1E+10	1	-1E+10	1	-1E+10	1	-1E+10	1
4901784	89	C	12/11/2017	10:49	-133.576	43.701	0	595.00	0	4.5790	0	34.2660	4	27.146	0	589.394	0	15.2	4	4.9	4	-1E+10	1	-1E+10	1	-1E+10	1	-1E+10	1	-1E+10	1	-1E+10	1
4901784	89	C	12/11/2017	10:49	-133.576	43.701	0	599.40	0	4.5470	0	34.2710	4	27.153	0	593.746	0	14.8	4	4.7	4	-1E+10	1	-1E+10	1	-1E+10	1	-1E+10	1	-1E+10	1	-1E+10	1
4901784	89	C	12/11/2017	10:49	-133.576	43.701	0	604.70	0	4.5420	0	34.2760	4	27.158	0	598.989	0	14.5	4	4.6	4	-1E+10	1	-1E+10	1	-1E+10	1	-1E+10	1	-1E+10	1	-1E+10	1
4901784	89	C	12/11/2017	10:49	-133.576	43.701	0	610.00	0	4.5240	0	34.2790	4	27.162	0	604.231	0	14.3	4	4.6	4	-1E+10	1	-1E+10	1	-1E+10	1	-1E+10	1	-1E+10	1	-1E+10	1
4901784	89	C	12/11/2017	10:49	-133.576	43.701	0	615.30	0	4.5080	0	34.2810	4	27.166	0	609.473	0	14.1	4	4.5	4	-1E+10	1	-1E+10	1	-1E+10	1	-1E+10	1	-1E+10	1	-1E+10	1
4901784	89	C	12/11/2017	10:49	-133.576	43.701	0	620.60	0	4.4890	0	34.2850	4	27.171	0	614.715	0	13.8	4	4.4	4	-1E+10	1	-1E+10	1	-1E+10	1	-1E+10	1	-1E+10	1	-1E+10	1
4901784	89	C	12/11/2017	10:49	-133.576	43.701	0	625.00	0	4.4790	0	34.2880	4	27.174	0	619.067	0	13.5	4	4.3	4	-1E+10	1	-1E+10	1	-1E+10	1	-1E+10	1	-1E+10	1	-1E+10	1
4901784	89	C	12/11/2017	10:49	-133.576	43.701	0	629.50	0	4.4720	0	34.2930	4	27.179	0	623.517	0	13.3	4	4.3	4	-1E+10	1	-1E+10	1	-1E+10	1	-1E+10	1	-1E+10	1	-1E+10	1
4901784	89	C	12/11/2017	10:49	-133.576	43.701	0	634.90	0	4.4540	0	34.2940	4	27.182	0	628.858	0	13.2	4	4.2	4	-1E+10	1	-1E+10	1	-1E+10	1	-1E+10	1	-1E+10	1	-1E+10	1
4901784	89	C	12/11/2017	10:49	-133.576	43.701	0	640.30	0	4.4380	0	34.2980	4	27.187	0	634.198	0	12.8	4	4.1	4	-1E+10	1	-1E+10	1	-1E+10	1	-1E+10	1	-1E+10	1	-1E+10	1
4901784	89	C	12/11/2017	10:49	-133.576	43.701	0	645.60	0	4.4190	0	34.3050	4	27.194	0	639.439	0	12.5	4	4.0	4	-1E+10	1	-1E+10	1	-1E+10	1	-1E+10	1	-1E+10	1	-1E+10	1
4901784	89	C	12/11/2017	10:49	-133.576	43.701	0	650.00	0	4.4030	0	34.3110	4	27.201	0	643.791	0	12.2	4	3.9	4	-1E+10	1	-1E+10	1	-1E+10	1	-1E+10	1	-1E+10	1	-1E+10	1
4901784	89	C	12/11/2017	10:49	-133.576	43.701	0	654.40	0	4.3910	0	34.3140	4	27.205	0	648.142	0	12.0	4	3.8	4	-1E+10	1	-1E+10	1	-1E+10	1	-1E+10	1	-1E+10	1	-1E+10	1
4901784	89	C	12/11/2017	10:49	-133.576	43.701	0	659.70	0	4.3730	0	34.3190	4	27.211	0	653.383	0	11.8	4	3.8	4	-1E+10	1	-1E+10	1	-1E+10	1	-1E+10	1	-1E+10	1	-1E+10	1
4901784	89	C	12/11/2017	10:49	-133.576	43.701	0	665.00	0	4.3460	0	34.3240	4	27.217	0	658.624	0	11.7	4	3.7	4	-1E+10	1	-1E+10	1	-1E+10	1	-1E+10	1	-1E+10	1	-1E+10	1
4901784	89	C	12/11/2017	10:49	-133.576	43.701	0	670.40	0	4.3330	0	34.3260	4	27.220	0	663.963	0	11.6	4	3.7	4	-1E+10	1	-1E+10	1	-1E+10	1	-1E+10	1	-1E+10	1	-1E+10	1
4901784	89	C	12/11/2017	10:49	-133.576	43.701	0	674.90	0	4.3260	0	34.3270	4	27.222	0	668.413	0	11.5	4	3.7	4	-1E+10	1	-1E+10	1	-1E+10	1	-1E+10	1	-1E+10	1	-1E+10	1
4901784	89	C	12/11/2017	10:49	-133.576	43.701	0	679.30	0	4.3130	0	34.3300	4	27.226	0	672.764	0	11.3	4	3.6	4	-1E+10	1	-1E+10	1	-1E+10	1	-1E+10	1	-1E+10	1	-1E+10	1
4901784	89	C	12/11/2017	10:49	-133.576	43.701	0	684.60	0	4.2850	0	34.3370	4	27.234	0	678.004	0	11.2	4	3.6	4	-1E+10	1	-1E+10	1	-1E+10	1	-1E+10	1	-1E+10	1	-1E+10	1
4901784	89	C	12/11/2017	10:49	-133.576	43.701	0	690.10	0	4.2770	0	34.3400	4	27.238	0	683.442	0	11.1	4	3.5	4	-1E+10	1	-1E+10	1	-1E+10	1	-1E+10	1	-1E+10	1	-1E+10	1
4901784	89	C	12/11/2017	10:49	-133.576	43.701	0	695.50	0	4.2660	0	34.3420	4	27.240	0	688.781	0	11.0	4	3.5	4	-1E+10	1	-1E+10	1	-1E+10	1	-1E+10	1	-1E+10	1	-1E+10	1
4901784	89	C	12/11/2017	10:49	-133.576	43.701	0	700.00	0	4.2550	0	34.3460	4	27.245	0	693.230	0	10.9	4	3.5	4	-1E+10	1	-1E+10	1	-1E+10	1	-1E+10	1	-1E+10	1	-1E+10	1
4901784	89	C	12/11/2017	10:49	-133.576	43.701	0	704.50	0	4.2460	0	34.3480	4	27.247	0	697.679	0	10.8	4	3.4	4	-1E+10	1	-1E+10	1	-1E+10	1	-1E+10	1	-1E+10	1	-1E+10	1
4901784	89	C	12/11/2017	10:49	-133.576	43.701	0	709.80	0	4.2320	0	34.3510	4	27.251	0	702.919	0	10.7	4	3.4	4	-1E+10	1	-1E+10	1	-1E+10	1	-1E+10	1	-1E+10	1	-1E+10	1
4901784	89	C	12/11/2017	10:49	-133.576	43.701	0	715.20	0	4.2220	0	34.3540	4	27.255	0	708.257	0	10.7	4	3.4	4	-1E+10	1	-1E+10	1	-1E+10	1	-1E+10	1	-1E+10	1	-1E+10	1
4901784	89	C	12/11/2017	10:49	-133.576	43.701	0	720.70	0	4.2160	0	34.3550	4	27.256	0	713.694	0	10.7	4	3.4	4	-1E+10	1	-1E+10	1	-1E+10	1	-1E+10	1	-1E+10	1	-1E+10	1
4901784	89	C	12/11/2017	10:49	-133.576	43.701	0	725.20	0	4.2070	0	34.3570	4	27.259	0	718.143	0	10.6	4	3.4	4	-1E+10	1	-1E+10	1	-1E+10	1	-1E+10	1	-1E+10	1	-1E+10	1
4901784	89	C	12/11/2017	10:49	-133.576	43.701	0	729.90	0	4.2030	0	34.3580	4	27.260	0	722.789	0	10.6	4	3.4	4	-1E+10	1	-1E+10	1	-1E+10	1	-1E+10	1	-1E+10	1	-1E+10	1
4901784	89	C	12/11/2017	10:49	-133.576	43.701	0	735.40	0	4.1950	0	34.3590	4	27.262	0	728.226	0	10.5	4	3.3	4	-1E+10	1	-1E+10	1	-1E+10	1	-1E+10	1	-1E+10	1	-1E+10	1
4901784	89	C	12/11/2017	10:49	-133.576	43.701	0	739.90	0	4.1850	0	34.3630	4	27.266	0	732.674	0	10.5	4	3.3	4	-1E+10	1	-1E+10	1	-1E+10	1	-1E+10	1	-1E+10	1	-1E+10	1
4901784	89	C	12/11/2017	10:49	-133.576	43.701	0	744.50	0	4.1780	0	34.3640	4	27.268	0	737.221	0	10.5	4	3.3	4	-1E+10	1	-1E+10	1	-1E+10	1	-1E+10	1	-1E+10	1	-1E+10	1
4901784	89	C	12/11/2017	10:49	-133.576	43.701	0	749.90	0	4.1710	0	34.3650	4	27.269	0	742.559	0	10.4	4	3.3	4	-1E+10	1	-1E+10	1	-1E+10	1	-1E+10	1	-1E+10	1	-1E+10	1
4901784	89	C	12/11/2017	10:49	-133.576	43.701	0	755.30	0	4.1540	0	34.3690	4	27.274	0	747.896	0	10.4	4	3.3	4	-1E+10	1	-1E+10	1	-1E+10	1	-1E+10	1	-1E+10	1	-1E+10	1
4901784	89	C	12/11/2017	10:49	-133.576	43.701	0	760.60	0	4.1360	0	34.3730	4	27.279	0	753.134	0	10.3	4	3.3	4	-1E+10	1	-1E+10	1	-1E+10	1	-1E+10	1	-1E+10	1	-1E+10	1
4901784	89	C	12/11/2017	10:49	-133.576	43.701	0	765.20	0	4.1290	0	34.3740	4	27.281	0	757.681	0	10.3	4	3.3	4	-1E+10	1	-1E+10	1	-1E+10	1	-1E+10	1	-1E+10	1	-1E+10	1
4901784	89	C	12/11/2017	10:49	-133.576	43.701	0	769.80	0	4.1190	0	34.3750	4	27.283	0	762.227	0	10.3	4	3.3	4	-1E+10	1	-1E+10	1	-1E+10	1	-1E+10	1	-1E+10	1	-1E+10	1
4901784	89	C	12/11/2017	10:49	-133.576	43.701	0	775.30	0	4.1080	0	34.3770	4	27.285	0	767.663	0	10.2	4	3.2	4	-1E+10	1	-1E+10	1	-1E+10	1	-1E+10	1	-1E+10	1	-1E+10	1
4901784	89	C	12/11/2017	10:49	-133.576	43.701	0	780.00	0	4.0830	0	34.3830	4	27.293	0	772.308	0	10.2	4	3.2	4	-1E+10	1	-1E+10	1	-1E+10	1	-1E+10	1	-1E+10	1	-1E+10	1
4901784	89	C	12/11/2017	10:49	-133.576	43.701	0	784.60	0	4.0740	0	34.3850	4	27.295	0	776.854	0	10.2	4	3.2	4	-1E+10	1	-1E+10	1	-1E+10	1	-1E+10	1	-1E+10	1	-1E+10	1
4901784	89	C	12/11/2017	10:49	-133.576	43.701	0	790.00	0	4.0660	0	34.3870	4	27.298	0	782.191	0	10.2	4	3.2	4	-1E+10	1	-1E+10	1	-1E+10	1	-1E+10	1	-1E+10	1	-1E+10	1
4901784	89	C	12/11/2017	10:49	-133.576	43.701	0	794.40	0	4.0530	0	34.3900	4	27.302	0	786.539	0	10.2	4	3.2	4	-1E+10	1	-1E+10	1	-1E+10	1	-1E+10	1	-1E+10	1	-1E+10	1
4901784	89	C	12/11/2017	10:49	-133.576	43.701	0	800.00	0	4.0390	0	34.3930	4	27.305	0	792.073	0	10.1	4	3.2	4	-1E+10	1	-1E+10	1	-1E+10	1	-1E+10	1	-1E+10	1	-1E+10	1
4901784	89	C	12/11/2017	10:49	-133.576	43.701	0	805.80	0	4.0200	0	34.3970	4	27.311	0	797.805	0	10.1	4	3.2	4	-1E+10	1	-1E+10	1	-1E+10	1	-1E+10	1	-1E+10	1	-1E+10	1
4901784	89	C	12/11/2017	10:49	-133.576	43.701	0	810.70	0	4.0050	0	34.4010	4	27.315	0	802.647	0	10.1	4	3.2	4	-1E+10	1	-1E+10	1	-1E+10	1	-1E+10	1	-1E+10	1	-1E+10	1
4901784	89	C	12/11/2017	10:49	-133.576	43.701	0	815.80	0	3.9900	0	34.4030	4	27.319	0	807.686	0	10.2	4	3.2	4	-1E+10	1	-1E+10	1	-1E+10	1	-1E+10	1	-1E+10	1	-1E+10	1
4901784	89	C	12/11/2017	10:49	-133.576	43.701	0	820.00	0	3.9770	0	34.4060	4	27.322	0	811.836	0	10.2	4	3.2	4	-1E+10	1	-1E+10	1	-1E+10	1	-1E+10	1	-1E+10	1	-1E+10	1
4901784	89	C	12/11/2017	10:49	-133.576	43.701	0	824.30	0	3.9650	0	34.4090	4	27.326	0	816.085	0	10.2	4	3.2	4	-1E+10	1	-1E+10	1	-1E+10	1	-1E+10	1	-1E+10	1	-1E+10	1
4901784	89	C	12/11/2017	10:49	-133.576	43.701	0	829.50	0	3.9520	0	34.4110	4	27.329	0	821.223	0	10.2	4	3.2	4	-1E+10	1	-1E+10	1	-1E+10	1	-1E+10	1	-1E+10	1	-1E+10	1
4901784	89	C	12/11/2017	10:49	-133.576	43.701	0	834.80	0	3.9310	0	34.4140	4	27.333	0	826.459	0	10.2	4	3.2	4	-1E+10	1	-1E+10	1	-1E+10	1	-1E+10	1	-1E+10	1	-1E+10	1
4901784	89	C	12/11/2017	10:49	-133.576	43.701	0	840.10	0	3.9190	0	34.4150	4	27.336	0	831.696	0	10.3	4	3.2	4	-1E+10	1	-1E+10	1	-1E+10	1	-1E+10	1	-1E+10	1	-1E+10	1
4901784	89	C	12/11/2017	10:49	-133.576	43.701	0	845.50	0	3.9020	0	34.4170	4	27.339	0	837.031	0	10.3	4	3.2	4	-1E+10	1	-1E+10	1	-1E+10	1	-1E+10	1	-1E+10	1	-1E+10	1
4901784	89	C	12/11/2017	10:49	-133.576	43.701	0	850.00	0	3.8960	0	34.4200	4	27.342	0	841.477	0	10.3	4	3.3	4	-1E+10	1	-1E+10	1	-1E+10	1	-1E+10	1	-1E+10	1	-1E+10	1
4901784	89	C	12/11/2017	10:49	-133.576	43.701	0	854.50	0	3.8930	0	34.4220	4	27.344	0	845.923	0	10.3	4	3.3	4	-1E+10	1	-1E+10	1	-1E+10	1	-1E+10	1	-1E+10	1	-1E+10	1
4901784	89	C	12/11/2017	10:49	-133.576	43.701	0	859.60	0	3.8750	0	34.4220	4	27.346	0	850.961	0	10.3	4	3.3	4	-1E+10	1	-1E+10	1	-1E+10	1	-1E+10	1	-1E+10	1	-1E+10	1
4901784	89	C	12/11/2017	10:49	-133.576	43.701	0	865.10	0	3.8680	0	34.4240	4	27.348	0	856.395	0	10.4	4	3.3	4	-1E+10	1	-1E+10	1	-1E+10	1	-1E+10	1	-1E+10	1	-1E+10	1
4901784	89	C	12/11/2017	10:49	-133.576	43.701	0	870.50	0	3.8400	0	34.4220	4	27.349	0	861.729	0	10.5	4	3.3	4	-1E+10	1	-1E+10	1	-1E+10	1	-1E+10	1	-1E+10	1	-1E+10	1
4901784	89	C	12/11/2017	10:49	-133.576	43.701	0	875.40	0	3.7920	0	34.4220	4	27.354	0	866.570	0	10.5	4	3.3	4	-1E+10	1	-1E+10	1	-1E+10	1	-1E+10	1	-1E+10	1	-1E+10	1
4901784	89	C	12/11/2017	10:49	-133.576	43.701	0	880.30	0	3.7930	0	34.4270	4	27.358	0	871.410	0	10.6	4	3.3	4	-1E+10	1	-1E+10	1	-1E+10	1	-1E+10	1	-1E+10	1	-1E+10	1
4901784	89	C	12/11/2017	10:49	-133.576	43.701	0	885.30	0	3.8240	0	34.4330	4	27.360	0	876.349	0	10.6	4	3.3	4	-1E+10	1	-1E+10	1	-1E+10	1	-1E+10	1	-1E+10	1	-1E+10	1
4901784	89	C	12/11/2017	10:49	-133.576	43.701	0	890.30	0	3.8230	0	34.4340	4	27.361	0	881.288	0	10.6	4	3.3	4	-1E+10	1	-1E+10	1	-1E+10	1	-1E+10	1	-1E+10	1	-1E+10	1
4901784	89	C	12/11/2017	10:49	-133.576	43.701	0	895.40	0	3.7980	0	34.4350	4	27.364	0	886.326	0	10.6	4	3.3	4	-1E+10	1	-1E+10	1	-1E+10	1	-1E+10	1	-1E+10	1	-1E+10	1
4901784	89	C	12/11/2017	10:49	-133.576	43.701	0	900.60	0	3.7800	0	34.4370	4	27.367	0	891.462	0	10.7	4	3.4	4	-1E+10	1	-1E+10	1	-1E+10	1	-1E+10	1	-1E+10	1	-1E+10	1
4901784	89	C	12/11/2017	10:49	-133.576	43.701	0	905.70	0	3.7500	0	34.4350	4	27.369	0	896.499	0	10.7	4	3.4	4	-1E+10	1	-1E+10	1	-1E+10	1	-1E+10	1	-1E+10	1	-1E+10	1
4901784	89	C	12/11/2017	10:49	-133.576	43.701	0	910.00	0	3.7300	0	34.4350	4	27.371	0	900.746	0	10.7	4	3.4	4	-1E+10	1	-1E+10	1	-1E+10	1	-1E+10	1	-1E+10	1	-1E+10	1
4901784	89	C	12/11/2017	10:49	-133.576	43.701	0	914.30	0	3.7180	0	34.4340	4	27.371	0	904.993	0	10.8	4	3.4	4	-1E+10	1	-1E+10	1	-1E+10	1	-1E+10	1	-1E+10	1	-1E+10	1
4901784	89	C	12/11/2017	10:49	-133.576	43.701	0	919.50	0	3.6170	0	34.4250	4	27.374	0	910.129	0	10.9	4	3.4	4	-1E+10	1	-1E+10	1	-1E+10	1	-1E+10	1	-1E+10	1	-1E+10	1
4901784	89	C	12/11/2017	10:49	-133.576	43.701	0	924.80	0	3.5700	0	34.4210	4	27.375	0	915.363	0	10.9	4	3.4	4	-1E+10	1	-1E+10	1	-1E+10	1	-1E+10	1	-1E+10	1	-1E+10	1
4901784	89	C	12/11/2017	10:49	-133.576	43.701	0	930.10	0	3.5590	0	34.4230	4	27.378	0	920.598	0	10.9	4	3.4	4	-1E+10	1	-1E+10	1	-1E+10	1	-1E+10	1	-1E+10	1	-1E+10	1
4901784	89	C	12/11/2017	10:49	-133.576	43.701	0	935.50	0	3.5570	0	34.4250	4	27.380	0	925.931	0	11.0	4	3.4	4	-1E+10	1	-1E+10	1	-1E+10	1	-1E+10	1	-1E+10	1	-1E+10	1
4901784	89	C	12/11/2017	10:49	-133.576	43.701	0	939.90	0	3.5390	0	34.4280	4	27.384	0	930.276	0	11.0	4	3.5	4	-1E+10	1	-1E+10	1	-1E+10	1	-1E+10	1	-1E+10	1	-1E+10	1
4901784	89	C	12/11/2017	10:49	-133.576	43.701	0	944.40	0	3.5260	0	34.4280	4	27.385	0	934.720	0	11.1	4	3.5	4	-1E+10	1	-1E+10	1	-1E+10	1	-1E+10	1	-1E+10	1	-1E+10	1
4901784	89	C	12/11/2017	10:49	-133.576	43.701	0	949.90	0	3.5180	0	34.4290	4	27.387	0	940.151	0	11.1	4	3.5	4	-1E+10	1	-1E+10	1	-1E+10	1	-1E+10	1	-1E+10	1	-1E+10	1
4901784	89	C	12/11/2017	10:49	-133.576	43.701	0	955.20	0	3.5060	0	34.4320	4	27.391	0	945.385	0	11.2	4	3.5	4	-1E+10	1	-1E+10	1	-1E+10	1	-1E+10	1	-1E+10	1	-1E+10	1
4901784	89	C	12/11/2017	10:49	-133.576	43.701	0	959.80	0	3.4920	0	34.4350	4	27.394	0	949.927	0	11.3	4	3.5	4	-1E+10	1	-1E+10	1	-1E+10	1	-1E+10	1	-1E+10	1	-1E+10	1
4901784	89	C	12/11/2017	10:49	-133.576	43.701	0	964.30	0	3.4830	0	34.4380	4	27.398	0	954.370	0	11.3	4	3.5	4	-1E+10	1	-1E+10	1	-1E+10	1	-1E+10	1	-1E+10	1	-1E+10	1
4901784	89	C	12/11/2017	10:49	-133.576	43.701	0	969.90	0	3.4720	0	34.4400	4	27.400	0	959.900	0	11.4	4	3.6	4	-1E+10	1	-1E+10	1	-1E+10	1	-1E+10	1	-1E+10	1	-1E+10	1
4901784	89	C	12/11/2017	10:49	-133.576	43.701	0	975.40	0	3.4650	0	34.4420	4	27.403	0	965.330	0	11.4	4	3.6	4	-1E+10	1	-1E+10	1	-1E+10	1	-1E+10	1	-1E+10	1	-1E+10	1
4901784	89	C	12/11/2017	10:49	-133.576	43.701	0	980.00	0	3.4540	0	34.4450	4	27.406	0	969.872	0	11.5	4	3.6	4	-1E+10	1	-1E+10	1	-1E+10	1	-1E+10	1	-1E+10	1	-1E+10	1
4901784	89	C	12/11/2017	10:49	-133.576	43.701	0	984.70	0	3.4460	0	34.4460	4	27.408	0	974.513	0	11.5	4	3.6	4	-1E+10	1	-1E+10	1	-1E+10	1	-1E+10	1	-1E+10	1	-1E+10	1
4901784	89	C	12/11/2017	10:49	-133.576	43.701	0	990.30	0	3.4350	0	34.4490	4	27.411	0	980.042	0	11.6	4	3.6	4	-1E+10	1	-1E+10	1	-1E+10	1	-1E+10	1	-1E+10	1	-1E+10	1
4901784	89	C	12/11/2017	10:49	-133.576	43.701	0	995.00	0	3.4280	0	34.4510	4	27.414	0	984.682	0	11.7	4	3.6	4	-1E+10	1	-1E+10	1	-1E+10	1	-1E+10	1	-1E+10	1	-1E+10	1
4901784	89	C	12/11/2017	10:49	-133.576	43.701	0	999.60	0	3.4180	0	34.4530	4	27.416	0	989.223	0	11.7	4	3.7	4	-1E+10	1	-1E+10	1	-1E+10	1	-1E+10	1	-1E+10	1	-1E+10	1
4901784	89	C	12/11/2017	10:49	-133.576	43.701	0	1005.20	0	3.4070	0	34.4560	4	27.420	0	994.752	0	11.8	4	3.7	4	-1E+10	1	-1E+10	1	-1E+10	1	-1E+10	1	-1E+10	1	-1E+10	1
4901784	89	C	12/11/2017	10:49	-133.576	43.701	0	1009.90	0	3.3970	0	34.4590	4	27.423	0	999.392	0	11.9	4	3.7	4	-1E+10	1	-1E+10	1	-1E+10	1	-1E+10	1	-1E+10	1	-1E+10	1
4901784	89	C	12/11/2017	10:49	-133.576	43.701	0	1014.70	0	3.3880	0	34.4610	4	27.425	0	1004.131	0	12.0	4	3.7	4	-1E+10	1	-1E+10	1	-1E+10	1	-1E+10	1	-1E+10	1	-1E+10	1
4901784	89	C	12/11/2017	10:49	-133.576	43.701	0	1019.50	0	3.3810	0	34.4620	4	27.427	0	1008.869	0	12.0	4	3.7	4	-1E+10	1	-1E+10	1	-1E+10	1	-1E+10	1	-1E+10	1	-1E+10	1
4901784	89	C	12/11/2017	10:49	-133.576	43.701	0	1024.10	0	3.3710	0	34.4640	4	27.429	0	1013.410	0	12.1	4	3.8	4	-1E+10	1	-1E+10	1	-1E+10	1	-1E+10	1	-1E+10	1	-1E+10	1
4901784	89	C	12/11/2017	10:49	-133.576	43.701	0	1029.50	0	3.3600	0	34.4680	4	27.434	0	1018.740	0	12.2	4	3.8	4	-1E+10	1	-1E+10	1	-1E+10	1	-1E+10	1	-1E+10	1	-1E+10	1
4901784	89	C	12/11/2017	10:49	-133.576	43.701	0	1034.50	0	3.3480	0	34.4700	4	27.437	0	1023.676	0	12.3	4	3.8	4	-1E+10	1	-1E+10	1	-1E+10	1	-1E+10	1	-1E+10	1	-1E+10	1
4901784	89	C	12/11/2017	10:49	-133.576	43.701	0	1039.40	0	3.3380	0	34.4720	4	27.439	0	1028.513	0	12.5	4	3.9	4	-1E+10	1	-1E+10	1	-1E+10	1	-1E+10	1	-1E+10	1	-1E+10	1
4901784	89	C	12/11/2017	10:49	-133.576	43.701	0	1044.30	0	3.3260	0	34.4760	4	27.443	0	1033.349	0	12.6	4	3.9	4	-1E+10	1	-1E+10	1	-1E+10	1	-1E+10	1	-1E+10	1	-1E+10	1
4901784	89	C	12/11/2017	10:49	-133.576	43.701	0	1049.30	0	3.3170	0	34.4790	4	27.447	0	1038.285	0	12.7	4	4.0	4	-1E+10	1	-1E+10	1	-1E+10	1	-1E+10	1	-1E+10	1	-1E+10	1
4901784	89	C	12/11/2017	10:49	-133.576	43.701	0	1054.30	0	3.3160	0	34.4790	4	27.447	0	1043.220	0	12.8	4	4.0	4	-1E+10	1	-1E+10	1	-1E+10	1	-1E+10	1	-1E+10	1	-1E+10	1
4901784	89	C	12/11/2017	10:49	-133.576	43.701	0	1059.40	0	3.3100	0	34.4800	4	27.448	0	1048.253	0	12.9	4	4.0	4	-1E+10	1	-1E+10	1	-1E+10	1	-1E+10	1	-1E+10	1	-1E+10	1
4901784	89	C	12/11/2017	10:49	-133.576	43.701	0	1064.50	0	3.3000	0	34.4820	4	27.451	0	1053.287	0	13.0	4	4.0	4	-1E+10	1	-1E+10	1	-1E+10	1	-1E+10	1	-1E+10	1	-1E+10	1
4901784	89	C	12/11/2017	10:49	-133.576	43.701	0	1069.60	0	3.2940	0	34.4840	4	27.453	0	1058.320	0	13.1	4	4.1	4	-1E+10	1	-1E+10	1	-1E+10	1	-1E+10	1	-1E+10	1	-1E+10	1
4901784	89	C	12/11/2017	10:49	-133.576	43.701	0	1074.70	0	3.2840	0	34.4860	4	27.456	0	1063.354	0	13.3	4	4.1	4	-1E+10	1	-1E+10	1	-1E+10	1	-1E+10	1	-1E+10	1	-1E+10	1
4901784	89	C	12/11/2017	10:49	-133.576	43.701	0	1079.80	0	3.2770	0	34.4870	4	27.457	0	1068.387	0	13.4	4	4.2	4	-1E+10	1	-1E+10	1	-1E+10	1	-1E+10	1	-1E+10	1	-1E+10	1
4901784	89	C	12/11/2017	10:49	-133.576	43.701	0	1085.00	0	3.2700	0	34.4900	4	27.460	0	1073.519	0	13.5	4	4.2	4	-1E+10	1	-1E+10	1	-1E+10	1	-1E+10	1	-1E+10	1	-1E+10	1
4901784	89	C	12/11/2017	10:49	-133.576	43.701	0	1090.20	0	3.2620	0	34.4910	4	27.462	0	1078.650	0	13.7	4	4.3	4	-1E+10	1	-1E+10	1	-1E+10	1	-1E+10	1	-1E+10	1	-1E+10	1
4901784	89	C	12/11/2017	10:49	-133.576	43.701	0	1095.30	0	3.2520	0	34.4940	4	27.465	0	1083.683	0	13.9	4	4.3	4	-1E+10	1	-1E+10	1	-1E+10	1	-1E+10	1	-1E+10	1	-1E+10	1
4901784	89	C	12/11/2017	10:49	-133.576	43.701	0	1100.50	0	3.2460	0	34.4960	4	27.467	0	1088.814	0	14.0	4	4.3	4	-1E+10	1	-1E+10	1	-1E+10	1	-1E+10	1	-1E+10	1	-1E+10	1
4901784	89	C	12/11/2017	10:49	-133.576	43.701	0	1105.70	0	3.2410	0	34.4970	4	27.469	0	1093.945	0	14.1	4	4.4	4	-1E+10	1	-1E+10	1	-1E+10	1	-1E+10	1	-1E+10	1	-1E+10	1
4901784	89	C	12/11/2017	10:49	-133.576	43.701	0	1110.00	0	3.2370	0	34.4980	4	27.470	0	1098.189	0	14.2	4	4.4	4	-1E+10	1	-1E+10	1	-1E+10	1	-1E+10	1	-1E+10	1	-1E+10	1
4901784	89	C	12/11/2017	10:49	-133.576	43.701	0	1114.40	0	3.2280	0	34.4990	4	27.471	0	1102.530	0	14.3	4	4.4	4	-1E+10	1	-1E+10	1	-1E+10	1	-1E+10	1	-1E+10	1	-1E+10	1
4901784	89	C	12/11/2017	10:49	-133.576	43.701	0	1119.90	0	3.2140	0	34.5010	4	27.474	0	1107.957	0	14.4	4	4.5	4	-1E+10	1	-1E+10	1	-1E+10	1	-1E+10	1	-1E+10	1	-1E+10	1
4901784	89	C	12/11/2017	10:49	-133.576	43.701	0	1124.70	0	3.2060	0	34.5030	4	27.477	0	1112.693	0	14.5	4	4.5	4	-1E+10	1	-1E+10	1	-1E+10	1	-1E+10	1	-1E+10	1	-1E+10	1
4901784	89	C	12/11/2017	10:49	-133.576	43.701	0	1129.60	0	3.1990	0	34.5040	4	27.478	0	1117.528	0	14.5	4	4.5	4	-1E+10	1	-1E+10	1	-1E+10	1	-1E+10	1	-1E+10	1	-1E+10	1
4901784	89	C	12/11/2017	10:49	-133.576	43.701	0	1135.30	0	3.1950	0	34.5040	4	27.479	0	1123.152	0	14.6	4	4.5	4	-1E+10	1	-1E+10	1	-1E+10	1	-1E+10	1	-1E+10	1	-1E+10	1
4901784	89	C	12/11/2017	10:49	-133.576	43.701	0	1140.10	0	3.1790	0	34.5070	4	27.483	0	1127.887	0	14.7	4	4.5	4	-1E+10	1	-1E+10	1	-1E+10	1	-1E+10	1	-1E+10	1	-1E+10	1
4901784	89	C	12/11/2017	10:49	-133.576	43.701	0	1145.00	0	3.1740	0	34.5070	4	27.483	0	1132.722	0	14.7	4	4.6	4	-1E+10	1	-1E+10	1	-1E+10	1	-1E+10	1	-1E+10	1	-1E+10	1
4901784	89	C	12/11/2017	10:49	-133.576	43.701	0	1149.90	0	3.1670	0	34.5080	4	27.484	0	1137.556	0	14.8	4	4.6	4	-1E+10	1	-1E+10	1	-1E+10	1	-1E+10	1	-1E+10	1	-1E+10	1
4901784	89	C	12/11/2017	10:49	-133.576	43.701	0	1154.80	0	3.1550	0	34.5100	4	27.487	0	1142.390	0	14.8	4	4.6	4	-1E+10	1	-1E+10	1	-1E+10	1	-1E+10	1	-1E+10	1	-1E+10	1
4901784	89	C	12/11/2017	10:49	-133.576	43.701	0	1160.60	0	3.1480	0	34.5100	4	27.488	0	1148.112	0	14.8	4	4.6	4	-1E+10	1	-1E+10	1	-1E+10	1	-1E+10	1	-1E+10	1	-1E+10	1
4901784	89	C	12/11/2017	10:49	-133.576	43.701	0	1165.40	0	3.1440	0	34.5120	4	27.490	0	1152.847	0	14.9	4	4.6	4	-1E+10	1	-1E+10	1	-1E+10	1	-1E+10	1	-1E+10	1	-1E+10	1
4901784	89	C	12/11/2017	10:49	-133.576	43.701	0	1170.40	0	3.1400	0	34.5120	4	27.490	0	1157.780	0	15.0	4	4.6	4	-1E+10	1	-1E+10	1	-1E+10	1	-1E+10	1	-1E+10	1	-1E+10	1
4901784	89	C	12/11/2017	10:49	-133.576	43.701	0	1175.20	0	3.1330	0	34.5130	4	27.492	0	1162.514	0	15.0	4	4.7	4	-1E+10	1	-1E+10	1	-1E+10	1	-1E+10	1	-1E+10	1	-1E+10	1
4901784	89	C	12/11/2017	10:49	-133.576	43.701	0	1180.10	0	3.1210	0	34.5140	4	27.494	0	1167.348	0	15.1	4	4.7	4	-1E+10	1	-1E+10	1	-1E+10	1	-1E+10	1	-1E+10	1	-1E+10	1
4901784	89	C	12/11/2017	10:49	-133.576	43.701	0	1184.90	0	3.1140	0	34.5150	4	27.495	0	1172.083	0	15.2	4	4.7	4	-1E+10	1	-1E+10	1	-1E+10	1	-1E+10	1	-1E+10	1	-1E+10	1
4901784	89	C	12/11/2017	10:49	-133.576	43.701	0	1189.80	0	3.1030	0	34.5160	4	27.497	0	1176.916	0	15.4	4	4.8	4	-1E+10	1	-1E+10	1	-1E+10	1	-1E+10	1	-1E+10	1	-1E+10	1
4901784	89	C	12/11/2017	10:49	-133.576	43.701	0	1194.70	0	3.0920	0	34.5180	4	27.500	0	1181.749	0	15.5	4	4.8	4	-1E+10	1	-1E+10	1	-1E+10	1	-1E+10	1	-1E+10	1	-1E+10	1
4901784	89	C	12/11/2017	10:49	-133.576	43.701	0	1199.60	0	3.0810	0	34.5190	4	27.501	0	1186.582	0	15.6	4	4.8	4	-1E+10	1	-1E+10	1	-1E+10	1	-1E+10	1	-1E+10	1	-1E+10	1
4901784	89	C	12/11/2017	10:49	-133.576	43.701	0	1205.50	0	3.0700	0	34.5210	4	27.504	0	1192.402	0	15.7	4	4.9	4	-1E+10	1	-1E+10	1	-1E+10	1	-1E+10	1	-1E+10	1	-1E+10	1
4901784	89	C	12/11/2017	10:49	-133.576	43.701	0	1210.50	0	3.0550	0	34.5230	4	27.507	0	1197.333	0	15.9	4	4.9	4	-1E+10	1	-1E+10	1	-1E+10	1	-1E+10	1	-1E+10	1	-1E+10	1
4901784	89	C	12/11/2017	10:49	-133.576	43.701	0	1215.40	0	3.0400	0	34.5240	4	27.509	0	1202.166	0	16.0	4	5.0	4	-1E+10	1	-1E+10	1	-1E+10	1	-1E+10	1	-1E+10	1	-1E+10	1
4901784	89	C	12/11/2017	10:49	-133.576	43.701	0	1220.40	0	3.0290	0	34.5260	4	27.512	0	1207.097	0	16.1	4	5.0	4	-1E+10	1	-1E+10	1	-1E+10	1	-1E+10	1	-1E+10	1	-1E+10	1
4901784	89	C	12/11/2017	10:49	-133.576	43.701	0	1225.40	0	3.0240	0	34.5260	4	27.512	0	1212.028	0	16.3	4	5.0	4	-1E+10	1	-1E+10	1	-1E+10	1	-1E+10	1	-1E+10	1	-1E+10	1
4901784	89	C	12/11/2017	10:49	-133.576	43.701	0	1230.40	0	3.0080	0	34.5290	4	27.516	0	1216.959	0	16.4	4	5.1	4	-1E+10	1	-1E+10	1	-1E+10	1	-1E+10	1	-1E+10	1	-1E+10	1
4901784	89	C	12/11/2017	10:49	-133.576	43.701	0	1235.40	0	3.0020	0	34.5290	4	27.517	0	1221.890	0	16.6	4	5.1	4	-1E+10	1	-1E+10	1	-1E+10	1	-1E+10	1	-1E+10	1	-1E+10	1
4901784	89	C	12/11/2017	10:49	-133.576	43.701	0	1240.40	0	2.9890	0	34.5320	4	27.520	0	1226.821	0	16.8	4	5.2	4	-1E+10	1	-1E+10	1	-1E+10	1	-1E+10	1	-1E+10	1	-1E+10	1
4901784	89	C	12/11/2017	10:49	-133.576	43.701	0	1245.40	0	2.9760	0	34.5330	4	27.522	0	1231.751	0	17.0	4	5.3	4	-1E+10	1	-1E+10	1	-1E+10	1	-1E+10	1	-1E+10	1	-1E+10	1
4901784	89	C	12/11/2017	10:49	-133.576	43.701	0	1250.30	0	2.9630	0	34.5360	4	27.526	0	1236.583	0	17.3	4	5.3	4	-1E+10	1	-1E+10	1	-1E+10	1	-1E+10	1	-1E+10	1	-1E+10	1
4901784	89	C	12/11/2017	10:49	-133.576	43.701	0	1255.10	0	2.9520	0	34.5370	4	27.528	0	1241.316	0	17.5	4	5.4	4	-1E+10	1	-1E+10	1	-1E+10	1	-1E+10	1	-1E+10	1	-1E+10	1
4901784	89	C	12/11/2017	10:49	-133.576	43.701	0	1259.80	0	2.9440	0	34.5380	4	27.529	0	1245.951	0	17.7	4	5.5	4	-1E+10	1	-1E+10	1	-1E+10	1	-1E+10	1	-1E+10	1	-1E+10	1
4901784	89	C	12/11/2017	10:49	-133.576	43.701	0	1264.40	0	2.9330	0	34.5400	4	27.532	0	1250.487	0	18.0	4	5.5	4	-1E+10	1	-1E+10	1	-1E+10	1	-1E+10	1	-1E+10	1	-1E+10	1
4901784	89	C	12/11/2017	10:49	-133.576	43.701	0	1269.90	0	2.9170	0	34.5430	4	27.536	0	1255.910	0	18.2	4	5.6	4	-1E+10	1	-1E+10	1	-1E+10	1	-1E+10	1	-1E+10	1	-1E+10	1
4901784	89	C	12/11/2017	10:49	-133.576	43.701	0	1275.40	0	2.9090	0	34.5440	4	27.537	0	1261.333	0	18.4	4	5.7	4	-1E+10	1	-1E+10	1	-1E+10	1	-1E+10	1	-1E+10	1	-1E+10	1
4901784	89	C	12/11/2017	10:49	-133.576	43.701	0	1280.00	0	2.9030	0	34.5460	4	27.540	0	1265.868	0	18.6	4	5.7	4	-1E+10	1	-1E+10	1	-1E+10	1	-1E+10	1	-1E+10	1	-1E+10	1
4901784	89	C	12/11/2017	10:49	-133.576	43.701	0	1284.70	0	2.8970	0	34.5460	4	27.540	0	1270.502	0	18.7	4	5.8	4	-1E+10	1	-1E+10	1	-1E+10	1	-1E+10	1	-1E+10	1	-1E+10	1
4901784	89	C	12/11/2017	10:49	-133.576	43.701	0	1290.10	0	2.8850	0	34.5480	4	27.543	0	1275.826	0	19.0	4	5.9	4	-1E+10	1	-1E+10	1	-1E+10	1	-1E+10	1	-1E+10	1	-1E+10	1
4901784	89	C	12/11/2017	10:49	-133.576	43.701	0	1295.60	0	2.8710	0	34.5490	4	27.545	0	1281.248	0	19.3	4	5.9	4	-1E+10	1	-1E+10	1	-1E+10	1	-1E+10	1	-1E+10	1	-1E+10	1
4901784	89	C	12/11/2017	10:49	-133.576	43.701	0	1300.40	0	2.8580	0	34.5520	4	27.548	0	1285.981	0	19.5	4	6.0	4	-1E+10	1	-1E+10	1	-1E+10	1	-1E+10	1	-1E+10	1	-1E+10	1
4901784	89	C	12/11/2017	10:49	-133.576	43.701	0	1305.20	0	2.8510	0	34.5530	4	27.550	0	1290.713	0	19.7	4	6.1	4	-1E+10	1	-1E+10	1	-1E+10	1	-1E+10	1	-1E+10	1	-1E+10	1
4901784	89	C	12/11/2017	10:49	-133.576	43.701	0	1310.10	0	2.8450	0	34.5540	4	27.551	0	1295.543	0	19.9	4	6.1	4	-1E+10	1	-1E+10	1	-1E+10	1	-1E+10	1	-1E+10	1	-1E+10	1
4901784	89	C	12/11/2017	10:49	-133.576	43.701	0	1315.10	0	2.8320	0	34.5550	4	27.553	0	1300.472	0	20.2	4	6.2	4	-1E+10	1	-1E+10	1	-1E+10	1	-1E+10	1	-1E+10	1	-1E+10	1
4901784	89	C	12/11/2017	10:49	-133.576	43.701	0	1320.10	0	2.8230	0	34.5570	4	27.556	0	1305.401	0	20.5	4	6.3	4	-1E+10	1	-1E+10	1	-1E+10	1	-1E+10	1	-1E+10	1	-1E+10	1
4901784	89	C	12/11/2017	10:49	-133.576	43.701	0	1325.10	0	2.8120	0	34.5590	4	27.558	0	1310.330	0	20.6	4	6.3	4	-1E+10	1	-1E+10	1	-1E+10	1	-1E+10	1	-1E+10	1	-1E+10	1
4901784	89	C	12/11/2017	10:49	-133.576	43.701	0	1330.30	0	2.8060	0	34.5590	4	27.559	0	1315.456	0	20.7	4	6.4	4	-1E+10	1	-1E+10	1	-1E+10	1	-1E+10	1	-1E+10	1	-1E+10	1
4901784	89	C	12/11/2017	10:49	-133.576	43.701	0	1335.40	0	2.8040	0	34.5600	4	27.560	0	1320.483	0	20.8	4	6.4	4	-1E+10	1	-1E+10	1	-1E+10	1	-1E+10	1	-1E+10	1	-1E+10	1
4901784	89	C	12/11/2017	10:49	-133.576	43.701	0	1340.60	0	2.8000	0	34.5600	4	27.560	0	1325.608	0	21.0	4	6.5	4	-1E+10	1	-1E+10	1	-1E+10	1	-1E+10	1	-1E+10	1	-1E+10	1
4901784	89	C	12/11/2017	10:49	-133.576	43.701	0	1344.90	0	2.7950	0	34.5610	4	27.561	0	1329.847	0	21.2	4	6.5	4	-1E+10	1	-1E+10	1	-1E+10	1	-1E+10	1	-1E+10	1	-1E+10	1
4901784	89	C	12/11/2017	10:49	-133.576	43.701	0	1349.40	0	2.7860	0	34.5620	4	27.563	0	1334.282	0	21.3	4	6.6	4	-1E+10	1	-1E+10	1	-1E+10	1	-1E+10	1	-1E+10	1	-1E+10	1
4901784	89	C	12/11/2017	10:49	-133.576	43.701	0	1354.70	0	2.7780	0	34.5630	4	27.565	0	1339.506	0	21.6	4	6.6	4	-1E+10	1	-1E+10	1	-1E+10	1	-1E+10	1	-1E+10	1	-1E+10	1
4901784	89	C	12/11/2017	10:49	-133.576	43.701	0	1360.00	0	2.7640	0	34.5650	4	27.567	0	1344.730	0	21.8	4	6.7	4	-1E+10	1	-1E+10	1	-1E+10	1	-1E+10	1	-1E+10	1	-1E+10	1
4901784	89	C	12/11/2017	10:49	-133.576	43.701	0	1365.30	0	2.7590	0	34.5650	4	27.568	0	1349.953	0	22.0	4	6.8	4	-1E+10	1	-1E+10	1	-1E+10	1	-1E+10	1	-1E+10	1	-1E+10	1
4901784	89	C	12/11/2017	10:49	-133.576	43.701	0	1370.70	0	2.7480	0	34.5670	4	27.570	0	1355.275	0	22.2	4	6.8	4	-1E+10	1	-1E+10	1	-1E+10	1	-1E+10	1	-1E+10	1	-1E+10	1
4901784	89	C	12/11/2017	10:49	-133.576	43.701	0	1375.20	0	2.7380	0	34.5680	4	27.572	0	1359.710	0	22.4	4	6.9	4	-1E+10	1	-1E+10	1	-1E+10	1	-1E+10	1	-1E+10	1	-1E+10	1
4901784	89	C	12/11/2017	10:49	-133.576	43.701	0	1379.70	0	2.7340	0	34.5690	4	27.573	0	1364.145	0	22.5	4	6.9	4	-1E+10	1	-1E+10	1	-1E+10	1	-1E+10	1	-1E+10	1	-1E+10	1
4901784	89	C	12/11/2017	10:49	-133.576	43.701	0	1385.20	0	2.7310	0	34.5690	4	27.574	0	1369.565	0	22.6	4	7.0	4	-1E+10	1	-1E+10	1	-1E+10	1	-1E+10	1	-1E+10	1	-1E+10	1
4901784	89	C	12/11/2017	10:49	-133.576	43.701	0	1390.60	0	2.7220	0	34.5700	4	27.575	0	1374.886	0	22.9	4	7.0	4	-1E+10	1	-1E+10	1	-1E+10	1	-1E+10	1	-1E+10	1	-1E+10	1
4901784	89	C	12/11/2017	10:49	-133.576	43.701	0	1395.20	0	2.7140	0	34.5710	4	27.577	0	1379.419	0	23.0	4	7.1	4	-1E+10	1	-1E+10	1	-1E+10	1	-1E+10	1	-1E+10	1	-1E+10	1
4901784	89	C	12/11/2017	10:49	-133.576	43.701	0	1399.80	0	2.7080	0	34.5720	4	27.578	0	1383.952	0	23.2	4	7.1	4	-1E+10	1	-1E+10	1	-1E+10	1	-1E+10	1	-1E+10	1	-1E+10	1
4901784	89	C	12/11/2017	10:49	-133.576	43.701	0	1405.20	0	2.6980	0	34.5730	4	27.580	0	1389.273	0	23.3	4	7.2	4	-1E+10	1	-1E+10	1	-1E+10	1	-1E+10	1	-1E+10	1	-1E+10	1
4901784	89	C	12/11/2017	10:49	-133.576	43.701	0	1410.50	0	2.6910	0	34.5740	4	27.581	0	1394.496	0	23.5	4	7.2	4	-1E+10	1	-1E+10	1	-1E+10	1	-1E+10	1	-1E+10	1	-1E+10	1
4901784	89	C	12/11/2017	10:49	-133.576	43.701	0	1415.40	0	2.6840	0	34.5740	4	27.582	0	1399.324	0	23.7	4	7.3	4	-1E+10	1	-1E+10	1	-1E+10	1	-1E+10	1	-1E+10	1	-1E+10	1
4901784	89	C	12/11/2017	10:49	-133.576	43.701	0	1420.20	0	2.6770	0	34.5750	4	27.583	0	1404.053	0	23.8	4	7.3	4	-1E+10	1	-1E+10	1	-1E+10	1	-1E+10	1	-1E+10	1	-1E+10	1
4901784	89	C	12/11/2017	10:49	-133.576	43.701	0	1425.10	0	2.6710	0	34.5760	4	27.585	0	1408.881	0	24.0	4	7.4	4	-1E+10	1	-1E+10	1	-1E+10	1	-1E+10	1	-1E+10	1	-1E+10	1
4901784	89	C	12/11/2017	10:49	-133.576	43.701	0	1430.00	0	2.6630	0	34.5770	4	27.586	0	1413.709	0	24.2	4	7.4	4	-1E+10	1	-1E+10	1	-1E+10	1	-1E+10	1	-1E+10	1	-1E+10	1
4901784	89	C	12/11/2017	10:49	-133.576	43.701	0	1434.90	0	2.6540	0	34.5780	4	27.588	0	1418.537	0	24.4	4	7.5	4	-1E+10	1	-1E+10	1	-1E+10	1	-1E+10	1	-1E+10	1	-1E+10	1
4901784	89	C	12/11/2017	10:49	-133.576	43.701	0	1439.90	0	2.6470	0	34.5780	4	27.588	0	1423.463	0	24.5	4	7.5	4	-1E+10	1	-1E+10	1	-1E+10	1	-1E+10	1	-1E+10	1	-1E+10	1
4901784	89	C	12/11/2017	10:49	-133.576	43.701	0	1444.90	0	2.6360	0	34.5790	4	27.590	0	1428.389	0	24.8	4	7.6	4	-1E+10	1	-1E+10	1	-1E+10	1	-1E+10	1	-1E+10	1	-1E+10	1
4901784	89	C	12/11/2017	10:49	-133.576	43.701	0	1449.90	0	2.6260	0	34.5800	4	27.592	0	1433.315	0	25.0	4	7.7	4	-1E+10	1	-1E+10	1	-1E+10	1	-1E+10	1	-1E+10	1	-1E+10	1
4901784	89	C	12/11/2017	10:49	-133.576	43.701	0	1455.00	0	2.6150	0	34.5810	4	27.594	0	1438.339	0	25.3	4	7.7	4	-1E+10	1	-1E+10	1	-1E+10	1	-1E+10	1	-1E+10	1	-1E+10	1
4901784	89	C	12/11/2017	10:49	-133.576	43.701	0	1460.00	0	2.6030	0	34.5830	4	27.596	0	1443.265	0	25.6	4	7.8	4	-1E+10	1	-1E+10	1	-1E+10	1	-1E+10	1	-1E+10	1	-1E+10	1
4901784	89	C	12/11/2017	10:49	-133.576	43.701	0	1465.10	0	2.5930	0	34.5830	4	27.597	0	1448.289	0	25.8	4	7.9	4	-1E+10	1	-1E+10	1	-1E+10	1	-1E+10	1	-1E+10	1	-1E+10	1
4901784	89	C	12/11/2017	10:49	-133.576	43.701	0	1470.30	0	2.5830	0	34.5850	4	27.600	0	1453.412	0	26.1	4	8.0	4	-1E+10	1	-1E+10	1	-1E+10	1	-1E+10	1	-1E+10	1	-1E+10	1
4901784	89	C	12/11/2017	10:49	-133.576	43.701	0	1475.40	0	2.5740	0	34.5850	4	27.600	0	1458.435	0	26.5	4	8.1	4	-1E+10	1	-1E+10	1	-1E+10	1	-1E+10	1	-1E+10	1	-1E+10	1
4901784	89	C	12/11/2017	10:49	-133.576	43.701	0	1480.60	0	2.5610	0	34.5860	4	27.602	0	1463.557	0	26.9	4	8.2	4	-1E+10	1	-1E+10	1	-1E+10	1	-1E+10	1	-1E+10	1	-1E+10	1
4901784	89	C	12/11/2017	10:49	-133.576	43.701	0	1485.00	0	2.5470	0	34.5880	4	27.605	0	1467.892	0	27.2	4	8.3	4	-1E+10	1	-1E+10	1	-1E+10	1	-1E+10	1	-1E+10	1	-1E+10	1
4901784	89	C	12/11/2017	10:49	-133.576	43.701	0	1489.30	0	2.5370	0	34.5890	4	27.607	0	1472.127	0	27.5	4	8.4	4	-1E+10	1	-1E+10	1	-1E+10	1	-1E+10	1	-1E+10	1	-1E+10	1
4901784	89	C	12/11/2017	10:49	-133.576	43.701	0	1494.60	0	2.5230	0	34.5910	4	27.610	0	1477.347	0	27.8	4	8.5	4	-1E+10	1	-1E+10	1	-1E+10	1	-1E+10	1	-1E+10	1	-1E+10	1
4901784	89	C	12/11/2017	10:49	-133.576	43.701	0	1499.90	0	2.5140	0	34.5920	4	27.611	0	1482.568	0	28.0	4	8.6	4	-1E+10	1	-1E+10	1	-1E+10	1	-1E+10	1	-1E+10	1	-1E+10	1
4901784	89	C	12/11/2017	10:49	-133.576	43.701	0	1505.20	0	2.5120	0	34.5920	4	27.611	0	1487.788	0	28.1	4	8.6	4	-1E+10	1	-1E+10	1	-1E+10	1	-1E+10	1	-1E+10	1	-1E+10	1
4901784	89	C	12/11/2017	10:49	-133.576	43.701	0	1510.40	0	2.5030	0	34.5930	4	27.613	0	1492.909	0	28.4	4	8.7	4	-1E+10	1	-1E+10	1	-1E+10	1	-1E+10	1	-1E+10	1	-1E+10	1
4901784	89	C	12/11/2017	10:49	-133.576	43.701	0	1515.60	0	2.4930	0	34.5940	4	27.615	0	1498.031	0	28.7	4	8.8	4	-1E+10	1	-1E+10	1	-1E+10	1	-1E+10	1	-1E+10	1	-1E+10	1
4901784	89	C	12/11/2017	10:49	-133.576	43.701	0	1520.80	0	2.4860	0	34.5940	4	27.615	0	1503.152	0	29.1	4	8.9	4	-1E+10	1	-1E+10	1	-1E+10	1	-1E+10	1	-1E+10	1	-1E+10	1
4901784	89	C	12/11/2017	10:49	-133.576	43.701	0	1525.10	0	2.4760	0	34.5960	4	27.618	0	1507.387	0	29.5	4	9.0	4	-1E+10	1	-1E+10	1	-1E+10	1	-1E+10	1	-1E+10	1	-1E+10	1
4901784	89	C	12/11/2017	10:49	-133.576	43.701	0	1529.50	0	2.4670	0	34.5970	4	27.619	0	1511.720	0	29.7	4	9.1	4	-1E+10	1	-1E+10	1	-1E+10	1	-1E+10	1	-1E+10	1	-1E+10	1
4901784	89	C	12/11/2017	10:49	-133.576	43.701	0	1534.70	0	2.4540	0	34.5970	4	27.620	0	1516.841	0	30.0	4	9.2	4	-1E+10	1	-1E+10	1	-1E+10	1	-1E+10	1	-1E+10	1	-1E+10	1
4901784	89	C	12/11/2017	10:49	-133.576	43.701	0	1540.00	0	2.4450	0	34.5990	4	27.623	0	1522.060	0	30.2	4	9.2	4	-1E+10	1	-1E+10	1	-1E+10	1	-1E+10	1	-1E+10	1	-1E+10	1
4901784	89	C	12/11/2017	10:49	-133.576	43.701	0	1545.30	0	2.4420	0	34.5990	4	27.623	0	1527.279	0	30.5	4	9.3	4	-1E+10	1	-1E+10	1	-1E+10	1	-1E+10	1	-1E+10	1	-1E+10	1
4901784	89	C	12/11/2017	10:49	-133.576	43.701	0	1549.80	0	2.4380	0	34.6000	4	27.624	0	1531.710	0	30.7	4	9.4	4	-1E+10	1	-1E+10	1	-1E+10	1	-1E+10	1	-1E+10	1	-1E+10	1
4901784	89	C	12/11/2017	10:49	-133.576	43.701	0	1554.30	0	2.4280	0	34.6010	4	27.626	0	1536.142	0	31.0	4	9.4	4	-1E+10	1	-1E+10	1	-1E+10	1	-1E+10	1	-1E+10	1	-1E+10	1
4901784	89	C	12/11/2017	10:49	-133.576	43.701	0	1559.70	0	2.4210	0	34.6010	4	27.627	0	1541.459	0	31.3	4	9.5	4	-1E+10	1	-1E+10	1	-1E+10	1	-1E+10	1	-1E+10	1	-1E+10	1
4901784	89	C	12/11/2017	10:49	-133.576	43.701	0	1565.00	0	2.4070	0	34.6020	4	27.628	0	1546.677	0	31.7	4	9.7	4	-1E+10	1	-1E+10	1	-1E+10	1	-1E+10	1	-1E+10	1	-1E+10	1
4901784	89	C	12/11/2017	10:49	-133.576	43.701	0	1570.40	0	2.3990	0	34.6040	4	27.631	0	1551.994	0	32.2	4	9.8	4	-1E+10	1	-1E+10	1	-1E+10	1	-1E+10	1	-1E+10	1	-1E+10	1
4901784	89	C	12/11/2017	10:49	-133.576	43.701	0	1574.80	0	2.3870	0	34.6050	4	27.633	0	1556.327	0	32.6	4	9.9	4	-1E+10	1	-1E+10	1	-1E+10	1	-1E+10	1	-1E+10	1	-1E+10	1
4901784	89	C	12/11/2017	10:49	-133.576	43.701	0	1579.30	0	2.3790	0	34.6060	4	27.634	0	1560.757	0	33.0	4	10.1	4	-1E+10	1	-1E+10	1	-1E+10	1	-1E+10	1	-1E+10	1	-1E+10	1
4901784	89	C	12/11/2017	10:49	-133.576	43.701	0	1584.70	0	2.3700	0	34.6080	4	27.636	0	1566.074	0	33.5	4	10.2	4	-1E+10	1	-1E+10	1	-1E+10	1	-1E+10	1	-1E+10	1	-1E+10	1
4901784	89	C	12/11/2017	10:49	-133.576	43.701	0	1590.10	0	2.3590	0	34.6090	4	27.638	0	1571.390	0	34.0	4	10.3	4	-1E+10	1	-1E+10	1	-1E+10	1	-1E+10	1	-1E+10	1	-1E+10	1
4901784	89	C	12/11/2017	10:49	-133.576	43.701	0	1595.50	0	2.3450	0	34.6110	4	27.641	0	1576.707	0	34.4	4	10.5	4	-1E+10	1	-1E+10	1	-1E+10	1	-1E+10	1	-1E+10	1	-1E+10	1
4901784	89	C	12/11/2017	10:49	-133.576	43.701	0	1600.00	0	2.3380	0	34.6120	4	27.642	0	1581.137	0	34.8	4	10.6	4	-1E+10	1	-1E+10	1	-1E+10	1	-1E+10	1	-1E+10	1	-1E+10	1
4901784	89	C	12/11/2017	10:49	-133.576	43.701	0	1604.50	0	2.3310	0	34.6130	4	27.644	0	1585.567	0	35.1	4	10.7	4	-1E+10	1	-1E+10	1	-1E+10	1	-1E+10	1	-1E+10	1	-1E+10	1
4901784	89	C	12/11/2017	10:49	-133.576	43.701	0	1610.00	0	2.3240	0	34.6140	4	27.645	0	1590.982	0	35.6	4	10.8	4	-1E+10	1	-1E+10	1	-1E+10	1	-1E+10	1	-1E+10	1	-1E+10	1
4901784	89	C	12/11/2017	10:49	-133.576	43.701	0	1615.50	0	2.3150	0	34.6160	4	27.648	0	1596.396	0	36.0	4	11.0	4	-1E+10	1	-1E+10	1	-1E+10	1	-1E+10	1	-1E+10	1	-1E+10	1
4901784	89	C	12/11/2017	10:49	-133.576	43.701	0	1620.10	0	2.3080	0	34.6160	4	27.648	0	1600.924	0	36.4	4	11.1	4	-1E+10	1	-1E+10	1	-1E+10	1	-1E+10	1	-1E+10	1	-1E+10	1
4901784	89	C	12/11/2017	10:49	-133.576	43.701	0	1624.60	0	2.2990	0	34.6170	4	27.650	0	1605.354	0	36.8	4	11.2	4	-1E+10	1	-1E+10	1	-1E+10	1	-1E+10	1	-1E+10	1	-1E+10	1
4901784	89	C	12/11/2017	10:49	-133.576	43.701	0	1630.10	0	2.2860	0	34.6190	4	27.652	0	1610.768	0	37.3	4	11.3	4	-1E+10	1	-1E+10	1	-1E+10	1	-1E+10	1	-1E+10	1	-1E+10	1
4901784	89	C	12/11/2017	10:49	-133.576	43.701	0	1634.80	0	2.2800	0	34.6200	4	27.654	0	1615.394	0	37.9	4	11.5	4	-1E+10	1	-1E+10	1	-1E+10	1	-1E+10	1	-1E+10	1	-1E+10	1
4901784	89	C	12/11/2017	10:49	-133.576	43.701	0	1640.00	0	2.2730	0	34.6220	4	27.656	0	1620.512	0	38.6	4	11.7	4	-1E+10	1	-1E+10	1	-1E+10	1	-1E+10	1	-1E+10	1	-1E+10	1
4901784	89	C	12/11/2017	10:49	-133.576	43.701	0	1645.60	0	2.2620	0	34.6240	4	27.658	0	1626.024	0	39.2	4	11.9	4	-1E+10	1	-1E+10	1	-1E+10	1	-1E+10	1	-1E+10	1	-1E+10	1
4901784	89	C	12/11/2017	10:49	-133.576	43.701	0	1650.40	0	2.2560	0	34.6260	4	27.660	0	1630.749	0	39.5	4	12.0	4	-1E+10	1	-1E+10	1	-1E+10	1	-1E+10	1	-1E+10	1	-1E+10	1
4901784	89	C	12/11/2017	10:49	-133.576	43.701	0	1655.20	0	2.2500	0	34.6250	4	27.660	0	1635.473	0	39.6	4	12.0	4	-1E+10	1	-1E+10	1	-1E+10	1	-1E+10	1	-1E+10	1	-1E+10	1
4901784	89	C	12/11/2017	10:49	-133.576	43.701	0	1660.10	0	2.2460	0	34.6260	4	27.661	0	1640.296	0	39.8	4	12.1	4	-1E+10	1	-1E+10	1	-1E+10	1	-1E+10	1	-1E+10	1	-1E+10	1
4901784	89	C	12/11/2017	10:49	-133.576	43.701	0	1664.90	0	2.2430	0	34.6260	4	27.662	0	1645.020	0	40.1	4	12.2	4	-1E+10	1	-1E+10	1	-1E+10	1	-1E+10	1	-1E+10	1	-1E+10	1
4901784	89	C	12/11/2017	10:49	-133.576	43.701	0	1669.90	0	2.2250	0	34.6270	4	27.664	0	1649.941	0	40.4	4	12.3	4	-1E+10	1	-1E+10	1	-1E+10	1	-1E+10	1	-1E+10	1	-1E+10	1
4901784	89	C	12/11/2017	10:49	-133.576	43.701	0	1674.80	0	2.2150	0	34.6280	4	27.666	0	1654.763	0	40.8	4	12.4	4	-1E+10	1	-1E+10	1	-1E+10	1	-1E+10	1	-1E+10	1	-1E+10	1
4901784	89	C	12/11/2017	10:49	-133.576	43.701	0	1679.90	0	2.2070	0	34.6290	4	27.667	0	1659.782	0	41.4	4	12.5	4	-1E+10	1	-1E+10	1	-1E+10	1	-1E+10	1	-1E+10	1	-1E+10	1
4901784	89	C	12/11/2017	10:49	-133.576	43.701	0	1684.90	0	2.2010	0	34.6310	4	27.669	0	1664.703	0	41.9	4	12.7	4	-1E+10	1	-1E+10	1	-1E+10	1	-1E+10	1	-1E+10	1	-1E+10	1
4901784	89	C	12/11/2017	10:49	-133.576	43.701	0	1689.90	0	2.2020	0	34.6330	4	27.671	0	1669.623	0	42.5	4	12.9	4	-1E+10	1	-1E+10	1	-1E+10	1	-1E+10	1	-1E+10	1	-1E+10	1
4901784	89	C	12/11/2017	10:49	-133.576	43.701	0	1695.00	0	2.1990	0	34.6340	4	27.672	0	1674.642	0	42.8	4	13.0	4	-1E+10	1	-1E+10	1	-1E+10	1	-1E+10	1	-1E+10	1	-1E+10	1
4901784	89	C	12/11/2017	10:49	-133.576	43.701	0	1700.20	0	2.1920	0	34.6340	4	27.672	0	1679.759	0	43.1	4	13.1	4	-1E+10	1	-1E+10	1	-1E+10	1	-1E+10	1	-1E+10	1	-1E+10	1
4901784	89	C	12/11/2017	10:49	-133.576	43.701	0	1705.30	0	2.1780	0	34.6350	4	27.674	0	1684.777	0	43.4	4	13.1	4	-1E+10	1	-1E+10	1	-1E+10	1	-1E+10	1	-1E+10	1	-1E+10	1
4901784	89	C	12/11/2017	10:49	-133.576	43.701	0	1710.50	0	2.1690	0	34.6360	4	27.676	0	1689.894	0	43.6	4	13.2	4	-1E+10	1	-1E+10	1	-1E+10	1	-1E+10	1	-1E+10	1	-1E+10	1
4901784	89	C	12/11/2017	10:49	-133.576	43.701	0	1715.70	0	2.1620	0	34.6360	4	27.676	0	1695.010	0	43.8	4	13.3	4	-1E+10	1	-1E+10	1	-1E+10	1	-1E+10	1	-1E+10	1	-1E+10	1
4901784	89	C	12/11/2017	10:49	-133.576	43.701	0	1720.00	0	2.1570	0	34.6370	4	27.678	0	1699.241	0	44.0	4	13.3	4	-1E+10	1	-1E+10	1	-1E+10	1	-1E+10	1	-1E+10	1	-1E+10	1
4901784	89	C	12/11/2017	10:49	-133.576	43.701	0	1724.30	0	2.1520	0	34.6370	4	27.678	0	1703.472	0	44.5	4	13.5	4	-1E+10	1	-1E+10	1	-1E+10	1	-1E+10	1	-1E+10	1	-1E+10	1
4901784	89	C	12/11/2017	10:49	-133.576	43.701	0	1729.40	0	2.1410	0	34.6390	4	27.681	0	1708.490	0	45.1	4	13.6	4	-1E+10	1	-1E+10	1	-1E+10	1	-1E+10	1	-1E+10	1	-1E+10	1
4901784	89	C	12/11/2017	10:49	-133.576	43.701	0	1734.60	0	2.1320	0	34.6400	4	27.682	0	1713.606	0	45.5	4	13.8	4	-1E+10	1	-1E+10	1	-1E+10	1	-1E+10	1	-1E+10	1	-1E+10	1
4901784	89	C	12/11/2017	10:49	-133.576	43.701	0	1739.90	0	2.1230	0	34.6410	4	27.684	0	1718.821	0	45.8	4	13.9	4	-1E+10	1	-1E+10	1	-1E+10	1	-1E+10	1	-1E+10	1	-1E+10	1
4901784	89	C	12/11/2017	10:49	-133.576	43.701	0	1745.10	0	2.1160	0	34.6420	4	27.685	0	1723.937	0	46.3	4	14.0	4	-1E+10	1	-1E+10	1	-1E+10	1	-1E+10	1	-1E+10	1	-1E+10	1
4901784	89	C	12/11/2017	10:49	-133.576	43.701	0	1750.40	0	2.1100	0	34.6420	4	27.685	0	1729.151	0	46.6	4	14.1	4	-1E+10	1	-1E+10	1	-1E+10	1	-1E+10	1	-1E+10	1	-1E+10	1
4901784	89	C	12/11/2017	10:49	-133.576	43.701	0	1755.70	0	2.1040	0	34.6430	4	27.687	0	1734.365	0	47.1	4	14.2	4	-1E+10	1	-1E+10	1	-1E+10	1	-1E+10	1	-1E+10	1	-1E+10	1
4901784	89	C	12/11/2017	10:49	-133.576	43.701	0	1760.00	0	2.0970	0	34.6440	4	27.688	0	1738.595	0	47.5	4	14.4	4	-1E+10	1	-1E+10	1	-1E+10	1	-1E+10	1	-1E+10	1	-1E+10	1
4901784	89	C	12/11/2017	10:49	-133.576	43.701	0	1764.40	0	2.0900	0	34.6460	4	27.690	0	1742.923	0	47.8	4	14.5	4	-1E+10	1	-1E+10	1	-1E+10	1	-1E+10	1	-1E+10	1	-1E+10	1
4901784	89	C	12/11/2017	10:49	-133.576	43.701	0	1769.80	0	2.0880	0	34.6470	4	27.691	0	1748.235	0	48.1	4	14.5	4	-1E+10	1	-1E+10	1	-1E+10	1	-1E+10	1	-1E+10	1	-1E+10	1
4901784	89	C	12/11/2017	10:49	-133.576	43.701	0	1775.10	0	2.0840	0	34.6460	4	27.691	0	1753.449	0	48.5	4	14.7	4	-1E+10	1	-1E+10	1	-1E+10	1	-1E+10	1	-1E+10	1	-1E+10	1
4901784	89	C	12/11/2017	10:49	-133.576	43.701	0	1780.50	0	2.0750	0	34.6480	4	27.693	0	1758.761	0	49.1	4	14.8	4	-1E+10	1	-1E+10	1	-1E+10	1	-1E+10	1	-1E+10	1	-1E+10	1
4901784	89	C	12/11/2017	10:49	-133.576	43.701	0	1785.00	0	2.0670	0	34.6500	4	27.695	0	1763.187	0	49.5	4	15.0	4	-1E+10	1	-1E+10	1	-1E+10	1	-1E+10	1	-1E+10	1	-1E+10	1
4901784	89	C	12/11/2017	10:49	-133.576	43.701	0	1789.50	0	2.0620	0	34.6500	4	27.696	0	1767.613	0	49.9	4	15.1	4	-1E+10	1	-1E+10	1	-1E+10	1	-1E+10	1	-1E+10	1	-1E+10	1
4901784	89	C	12/11/2017	10:49	-133.576	43.701	0	1795.00	0	2.0560	0	34.6510	4	27.697	0	1773.023	0	50.3	4	15.2	4	-1E+10	1	-1E+10	1	-1E+10	1	-1E+10	1	-1E+10	1	-1E+10	1
4901784	89	C	12/11/2017	10:49	-133.576	43.701	0	1800.40	0	2.0540	0	34.6520	4	27.698	0	1778.334	0	50.6	4	15.3	4	-1E+10	1	-1E+10	1	-1E+10	1	-1E+10	1	-1E+10	1	-1E+10	1
4901784	89	C	12/11/2017	10:49	-133.576	43.701	0	1804.90	0	2.0490	0	34.6530	4	27.699	0	1782.760	0	50.9	4	15.4	4	-1E+10	1	-1E+10	1	-1E+10	1	-1E+10	1	-1E+10	1	-1E+10	1
4901784	89	C	12/11/2017	10:49	-133.576	43.701	0	1809.50	0	2.0450	0	34.6530	4	27.700	0	1787.285	0	51.2	4	15.5	4	-1E+10	1	-1E+10	1	-1E+10	1	-1E+10	1	-1E+10	1	-1E+10	1
4901784	89	C	12/11/2017	10:49	-133.576	43.701	0	1815.00	0	2.0380	0	34.6540	4	27.701	0	1792.694	0	51.5	4	15.6	4	-1E+10	1	-1E+10	1	-1E+10	1	-1E+10	1	-1E+10	1	-1E+10	1
4901784	89	C	12/11/2017	10:49	-133.576	43.701	0	1820.10	0	2.0320	0	34.6550	4	27.702	0	1797.710	0	51.8	4	15.7	4	-1E+10	1	-1E+10	1	-1E+10	1	-1E+10	1	-1E+10	1	-1E+10	1
4901784	89	C	12/11/2017	10:49	-133.576	43.701	0	1824.40	0	2.0300	0	34.6560	4	27.703	0	1801.939	0	52.1	4	15.7	4	-1E+10	1	-1E+10	1	-1E+10	1	-1E+10	1	-1E+10	1	-1E+10	1
4901784	89	C	12/11/2017	10:49	-133.576	43.701	0	1830.10	0	2.0250	0	34.6560	4	27.704	0	1807.544	0	52.6	4	15.9	4	-1E+10	1	-1E+10	1	-1E+10	1	-1E+10	1	-1E+10	1	-1E+10	1
4901784	89	C	12/11/2017	10:49	-133.576	43.701	0	1835.80	0	2.0180	0	34.6570	4	27.705	0	1813.150	0	52.9	4	16.0	4	-1E+10	1	-1E+10	1	-1E+10	1	-1E+10	1	-1E+10	1	-1E+10	1
4901784	89	C	12/11/2017	10:49	-133.576	43.701	0	1840.70	0	2.0110	0	34.6580	4	27.707	0	1817.968	0	53.1	4	16.0	4	-1E+10	1	-1E+10	1	-1E+10	1	-1E+10	1	-1E+10	1	-1E+10	1
4901784	89	C	12/11/2017	10:49	-133.576	43.701	0	1845.60	0	2.0080	0	34.6590	4	27.708	0	1822.787	0	53.3	4	16.1	4	-1E+10	1	-1E+10	1	-1E+10	1	-1E+10	1	-1E+10	1	-1E+10	1
4901784	89	C	12/11/2017	10:49	-133.576	43.701	0	1850.60	0	2.0060	0	34.6600	4	27.709	0	1827.703	0	53.5	4	16.1	4	-1E+10	1	-1E+10	1	-1E+10	1	-1E+10	1	-1E+10	1	-1E+10	1
4901784	89	C	12/11/2017	10:49	-133.576	43.701	0	1855.60	0	2.0030	0	34.6590	4	27.708	0	1832.620	0	53.7	4	16.2	4	-1E+10	1	-1E+10	1	-1E+10	1	-1E+10	1	-1E+10	1	-1E+10	1
4901784	89	C	12/11/2017	10:49	-133.576	43.701	0	1860.70	0	2.0010	0	34.6590	4	27.708	0	1837.635	0	53.9	4	16.3	4	-1E+10	1	-1E+10	1	-1E+10	1	-1E+10	1	-1E+10	1	-1E+10	1
4901784	89	C	12/11/2017	10:49	-133.576	43.701	0	1865.70	0	1.9970	0	34.6590	4	27.709	0	1842.551	0	54.2	4	16.3	4	-1E+10	1	-1E+10	1	-1E+10	1	-1E+10	1	-1E+10	1	-1E+10	1
4901784	89	C	12/11/2017	10:49	-133.576	43.701	0	1870.80	0	1.9950	0	34.6600	4	27.710	0	1847.566	0	54.4	4	16.4	4	-1E+10	1	-1E+10	1	-1E+10	1	-1E+10	1	-1E+10	1	-1E+10	1
4901784	89	C	12/11/2017	10:49	-133.576	43.701	0	1875.80	0	1.9910	0	34.6600	4	27.710	0	1852.482	0	54.8	4	16.5	4	-1E+10	1	-1E+10	1	-1E+10	1	-1E+10	1	-1E+10	1	-1E+10	1
4901784	89	C	12/11/2017	10:49	-133.576	43.701	0	1880.00	0	1.9880	0	34.6610	4	27.711	0	1856.611	0	55.0	4	16.6	4	-1E+10	1	-1E+10	1	-1E+10	1	-1E+10	1	-1E+10	1	-1E+10	1
4901784	89	C	12/11/2017	10:49	-133.576	43.701	0	1884.20	0	1.9840	0	34.6620	4	27.712	0	1860.741	0	55.3	4	16.7	4	-1E+10	1	-1E+10	1	-1E+10	1	-1E+10	1	-1E+10	1	-1E+10	1
4901784	89	C	12/11/2017	10:49	-133.576	43.701	0	1889.30	0	1.9840	0	34.6630	4	27.713	0	1865.755	0	55.8	4	16.8	4	-1E+10	1	-1E+10	1	-1E+10	1	-1E+10	1	-1E+10	1	-1E+10	1
4901784	89	C	12/11/2017	10:49	-133.576	43.701	0	1894.40	0	1.9820	0	34.6630	4	27.713	0	1870.769	0	56.0	4	16.9	4	-1E+10	1	-1E+10	1	-1E+10	1	-1E+10	1	-1E+10	1	-1E+10	1
4901784	89	C	12/11/2017	10:49	-133.576	43.701	0	1899.50	0	1.9790	0	34.6640	4	27.714	0	1875.783	0	56.3	4	17.0	4	-1E+10	1	-1E+10	1	-1E+10	1	-1E+10	1	-1E+10	1	-1E+10	1
4901784	89	C	12/11/2017	10:49	-133.576	43.701	0	1904.70	0	1.9780	0	34.6640	4	27.714	0	1880.895	0	56.6	4	17.1	4	-1E+10	1	-1E+10	1	-1E+10	1	-1E+10	1	-1E+10	1	-1E+10	1
4901784	89	C	12/11/2017	10:49	-133.576	43.701	0	1909.90	0	1.9720	0	34.6650	4	27.716	0	1886.007	0	57.0	4	17.2	4	-1E+10	1	-1E+10	1	-1E+10	1	-1E+10	1	-1E+10	1	-1E+10	1
4901784	89	C	12/11/2017	10:49	-133.576	43.701	0	1915.20	0	1.9680	0	34.6650	4	27.716	0	1891.217	0	57.4	4	17.3	4	-1E+10	1	-1E+10	1	-1E+10	1	-1E+10	1	-1E+10	1	-1E+10	1
4901784	89	C	12/11/2017	10:49	-133.576	43.701	0	1920.60	0	1.9630	0	34.6660	4	27.717	0	1896.525	0	57.7	4	17.4	4	-1E+10	1	-1E+10	1	-1E+10	1	-1E+10	1	-1E+10	1	-1E+10	1
4901784	89	C	12/11/2017	10:49	-133.576	43.701	0	1925.10	0	1.9620	0	34.6670	4	27.718	0	1900.949	0	57.8	4	17.4	4	-1E+10	1	-1E+10	1	-1E+10	1	-1E+10	1	-1E+10	1	-1E+10	1
4901784	89	C	12/11/2017	10:49	-133.576	43.701	0	1929.50	0	1.9610	0	34.6670	4	27.718	0	1905.274	0	58.1	4	17.5	4	-1E+10	1	-1E+10	1	-1E+10	1	-1E+10	1	-1E+10	1	-1E+10	1
4901784	89	C	12/11/2017	10:49	-133.576	43.701	0	1934.80	0	1.9560	0	34.6680	4	27.719	0	1910.484	0	58.5	4	17.6	4	-1E+10	1	-1E+10	1	-1E+10	1	-1E+10	1	-1E+10	1	-1E+10	1
4901784	89	C	12/11/2017	10:49	-133.576	43.701	0	1940.20	0	1.9510	0	34.6690	4	27.721	0	1915.792	0	58.7	4	17.7	4	-1E+10	1	-1E+10	1	-1E+10	1	-1E+10	1	-1E+10	1	-1E+10	1
4901784	89	C	12/11/2017	10:49	-133.576	43.701	0	1944.80	0	1.9470	0	34.6690	4	27.721	0	1920.313	0	59.0	4	17.8	4	-1E+10	1	-1E+10	1	-1E+10	1	-1E+10	1	-1E+10	1	-1E+10	1
4901784	89	C	12/11/2017	10:49	-133.576	43.701	0	1949.90	0	1.9420	0	34.6700	4	27.722	0	1925.326	0	59.2	4	17.8	4	-1E+10	1	-1E+10	1	-1E+10	1	-1E+10	1	-1E+10	1	-1E+10	1
4901784	89	C	12/11/2017	10:49	-133.576	43.701	0	1955.50	0	1.9360	0	34.6700	4	27.723	0	1930.830	0	59.5	4	17.9	4	-1E+10	1	-1E+10	1	-1E+10	1	-1E+10	1	-1E+10	1	-1E+10	1
4901784	89	C	12/11/2017	10:49	-133.576	43.701	0	1960.30	0	1.9340	0	34.6700	4	27.723	0	1935.548	0	59.7	4	18.0	4	-1E+10	1	-1E+10	1	-1E+10	1	-1E+10	1	-1E+10	1	-1E+10	1
4901784	89	C	12/11/2017	10:49	-133.576	43.701	0	1965.10	0	1.9310	0	34.6710	4	27.724	0	1940.265	0	59.9	4	18.1	4	-1E+10	1	-1E+10	1	-1E+10	1	-1E+10	1	-1E+10	1	-1E+10	1
4901784	89	C	12/11/2017	10:49	-133.576	43.701	0	1970.00	0	1.9270	0	34.6710	4	27.724	0	1945.081	0	60.2	4	18.1	4	-1E+10	1	-1E+10	1	-1E+10	1	-1E+10	1	-1E+10	1	-1E+10	1
4901784	89	C	12/11/2017	10:49	-133.576	43.701	0	1974.90	0	1.9250	0	34.6720	4	27.725	0	1949.896	0	60.4	4	18.2	4	-1E+10	1	-1E+10	1	-1E+10	1	-1E+10	1	-1E+10	1	-1E+10	1
4901784	89	C	12/11/2017	10:49	-133.576	43.701	0	1979.80	0	1.9230	0	34.6720	4	27.725	0	1954.712	0	60.5	4	18.2	4	-1E+10	1	-1E+10	1	-1E+10	1	-1E+10	1	-1E+10	1	-1E+10	1
4901784	89	C	12/11/2017	10:49	-133.576	43.701	0	1984.80	0	1.9190	0	34.6730	4	27.726	0	1959.626	0	60.7	4	18.3	4	-1E+10	1	-1E+10	1	-1E+10	1	-1E+10	1	-1E+10	1	-1E+10	1
4901784	89	C	12/11/2017	10:49	-133.576	43.701	0	1989.80	0	1.9170	0	34.6740	4	27.727	0	1964.539	0	61.0	4	18.4	4	-1E+10	1	-1E+10	1	-1E+10	1	-1E+10	1	-1E+10	1	-1E+10	1
4901784	89	C	12/11/2017	10:49	-133.576	43.701	0	1994.90	0	1.9160	0	34.6740	4	27.728	0	1969.551	0	61.2	4	18.4	4	-1E+10	1	-1E+10	1	-1E+10	1	-1E+10	1	-1E+10	1	-1E+10	1
4901784	89	C	12/11/2017	10:49	-133.576	43.701	0	2000.00	0	1.9140	0	34.6750	4	27.729	0	1974.562	0	61.4	4	18.5	4	-1E+10	1	-1E+10	1	-1E+10	1	-1E+10	1	-1E+10	1	-1E+10	1
4901784	89	C	12/11/2017	10:49	-133.576	43.701	0	2005.00	0	1.9090	0	34.6750	4	27.729	0	1979.476	0	61.6	4	18.6	4	-1E+10	1	-1E+10	1	-1E+10	1	-1E+10	1	-1E+10	1	-1E+10	1
4901784	89	C	12/11/2017	10:49	-133.576	43.701	0	2010.10	0	1.9070	0	34.6750	4	27.729	0	1984.487	0	61.8	4	18.6	4	-1E+10	1	-1E+10	1	-1E+10	1	-1E+10	1	-1E+10	1	-1E+10	1
4901784	89	C	12/11/2017	10:49	-133.576	43.701	0	2015.10	0	1.9050	0	34.6760	4	27.730	0	1989.400	0	62.1	4	18.7	4	-1E+10	1	-1E+10	1	-1E+10	1	-1E+10	1	-1E+10	1	-1E+10	1
4901784	89	C	12/11/2017	10:49	-133.576	43.701	0	2020.10	0	1.9030	0	34.6770	4	27.731	0	1994.313	0	62.3	4	18.7	4	-1E+10	1	-1E+10	1	-1E+10	1	-1E+10	1	-1E+10	1	-1E+10	1
4901784	89	C	12/11/2017	10:49	-133.576	43.701	0																										
4901784	90	C	12/21/2017	10:45	-133.280	43.607	0	2.20	0	11.8930	0	32.8180	4	24.915	0	2.182	0	258.2	4	96.4	4	-1E+10	1	-1E+10	1	-1E+10	1	-1E+10	1	-1E+10	1	-1E+10	1
4901784	90	C	12/21/2017	10:45	-133.280	43.607	0	3.90	0	11.8950	0	32.8170	4	24.914	0	3.869	0	258.2	4	96.4	4	-1E+10	1	-1E+10	1	-1E+10	1	-1E+10	1	-1E+10	1	-1E+10	1
4901784	90	C	12/21/2017	10:45	-133.280	43.607	0	5.80	0	11.9060	0	32.8170	4	24.912	0	5.754	0	258.1	4	96.4	4	-1E+10	1	-1E+10	1	-1E+10	1	-1E+10	1	-1E+10	1	-1E+10	1
4901784	90	C	12/21/2017	10:45	-133.280	43.607	0	7.60	0	11.9040	0	32.8170	4	24.913	0	7.539	0	258.0	4	96.3	4	-1E+10	1	-1E+10	1	-1E+10	1	-1E+10	1	-1E+10	1	-1E+10	1
4901784	90	C	12/21/2017	10:45	-133.280	43.607	0	9.50	0	11.9040	0	32.8180	4	24.913	0	9.424	0	258.0	4	96.3	4	-1E+10	1	-1E+10	1	-1E+10	1	-1E+10	1	-1E+10	1	-1E+10	1
4901784	90	C	12/21/2017	10:45	-133.280	43.607	0	11.40	0	11.9040	0	32.8180	4	24.913	0	11.309	0	257.9	4	96.3	4	-1E+10	1	-1E+10	1	-1E+10	1	-1E+10	1	-1E+10	1	-1E+10	1
4901784	90	C	12/21/2017	10:45	-133.280	43.607	0	13.30	0	11.9060	0	32.8180	4	24.913	0	13.193	0	257.6	4	96.2	4	-1E+10	1	-1E+10	1	-1E+10	1	-1E+10	1	-1E+10	1	-1E+10	1
4901784	90	C	12/21/2017	10:45	-133.280	43.607	0	15.20	0	11.9070	0	32.8180	4	24.913	0	15.078	0	257.9	4	96.3	4	-1E+10	1	-1E+10	1	-1E+10	1	-1E+10	1	-1E+10	1	-1E+10	1
4901784	90	C	12/21/2017	10:45	-133.280	43.607	0	17.10	0	11.9060	0	32.8150	4	24.911	0	16.963	0	257.8	4	96.2	4	-1E+10	1	-1E+10	1	-1E+10	1	-1E+10	1	-1E+10	1	-1E+10	1
4901784	90	C	12/21/2017	10:45	-133.280	43.607	0	18.90	0	11.9070	0	32.8160	4	24.912	0	18.748	0	257.8	4	96.3	4	-1E+10	1	-1E+10	1	-1E+10	1	-1E+10	1	-1E+10	1	-1E+10	1
4901784	90	C	12/21/2017	10:45	-133.280	43.607	0	20.70	0	11.9070	0	32.8180	4	24.913	0	20.534	0	257.7	4	96.2	4	-1E+10	1	-1E+10	1	-1E+10	1	-1E+10	1	-1E+10	1	-1E+10	1
4901784	90	C	12/21/2017	10:45	-133.280	43.607	0	22.50	0	11.9070	0	32.8170	4	24.912	0	22.319	0	257.6	4	96.2	4	-1E+10	1	-1E+10	1	-1E+10	1	-1E+10	1	-1E+10	1	-1E+10	1
4901784	90	C	12/21/2017	10:45	-133.280	43.607	0	24.20	0	11.9040	0	32.8170	4	24.913	0	24.005	0	257.4	4	96.1	4	-1E+10	1	-1E+10	1	-1E+10	1	-1E+10	1	-1E+10	1	-1E+10	1
4901784	90	C	12/21/2017	10:45	-133.280	43.607	0	25.90	0	11.9040	0	32.8170	4	24.913	0	25.691	0	257.5	4	96.1	4	-1E+10	1	-1E+10	1	-1E+10	1	-1E+10	1	-1E+10	1	-1E+10	1
4901784	90	C	12/21/2017	10:45	-133.280	43.607	0	27.50	0	11.9050	0	32.8170	4	24.913	0	27.278	0	257.4	4	96.1	4	-1E+10	1	-1E+10	1	-1E+10	1	-1E+10	1	-1E+10	1	-1E+10	1
4901784	90	C	12/21/2017	10:45	-133.280	43.607	0	29.30	0	11.8990	0	32.8170	4	24.914	0	29.064	0	257.4	4	96.1	4	-1E+10	1	-1E+10	1	-1E+10	1	-1E+10	1	-1E+10	1	-1E+10	1
4901784	90	C	12/21/2017	10:45	-133.280	43.607	0	31.20	0	11.9000	0	32.8160	4	24.913	0	30.948	0	257.5	4	96.1	4	-1E+10	1	-1E+10	1	-1E+10	1	-1E+10	1	-1E+10	1	-1E+10	1
4901784	90	C	12/21/2017	10:45	-133.280	43.607	0	33.00	0	11.8940	0	32.8120	4	24.911	0	32.734	0	257.4	4	96.1	4	-1E+10	1	-1E+10	1	-1E+10	1	-1E+10	1	-1E+10	1	-1E+10	1
4901784	90	C	12/21/2017	10:45	-133.280	43.607	0	34.90	0	11.9030	0	32.8170	4	24.913	0	34.618	0	257.2	4	96.0	4	-1E+10	1	-1E+10	1	-1E+10	1	-1E+10	1	-1E+10	1	-1E+10	1
4901784	90	C	12/21/2017	10:45	-133.280	43.607	0	36.90	0	11.8970	0	32.8130	4	24.912	0	36.602	0	257.4	4	96.1	4	-1E+10	1	-1E+10	1	-1E+10	1	-1E+10	1	-1E+10	1	-1E+10	1
4901784	90	C	12/21/2017	10:45	-133.280	43.607	0	38.80	0	11.8900	0	32.8130	4	24.913	0	38.486	0	257.2	4	96.0	4	-1E+10	1	-1E+10	1	-1E+10	1	-1E+10	1	-1E+10	1	-1E+10	1
4901784	90	C	12/21/2017	10:45	-133.280	43.607	0	40.80	0	11.8900	0	32.8120	4	24.912	0	40.470	0	257.1	4	96.0	4	-1E+10	1	-1E+10	1	-1E+10	1	-1E+10	1	-1E+10	1	-1E+10	1
4901784	90	C	12/21/2017	10:45	-133.280	43.607	0	42.70	0	11.8880	0	32.8110	4	24.912	0	42.354	0	257.1	4	96.0	4	-1E+10	1	-1E+10	1	-1E+10	1	-1E+10	1	-1E+10	1	-1E+10	1
4901784	90	C	12/21/2017	10:45	-133.280	43.607	0	44.50	0	11.8870	0	32.8130	4	24.914	0	44.140	0	257.0	4	95.9	4	-1E+10	1	-1E+10	1	-1E+10	1	-1E+10	1	-1E+10	1	-1E+10	1
4901784	90	C	12/21/2017	10:45	-133.280	43.607	0	46.30	0	11.8790	0	32.8100	4	24.913	0	45.925	0	256.9	4	95.9	4	-1E+10	1	-1E+10	1	-1E+10	1	-1E+10	1	-1E+10	1	-1E+10	1
4901784	90	C	12/21/2017	10:45	-133.280	43.607	0	48.10	0	11.9040	0	32.8140	4	24.911	0	47.710	0	256.8	4	95.9	4	-1E+10	1	-1E+10	1	-1E+10	1	-1E+10	1	-1E+10	1	-1E+10	1
4901784	90	C	12/21/2017	10:45	-133.280	43.607	0	49.90	0	11.9040	0	32.8150	4	24.912	0	49.495	0	256.4	4	95.7	4	-1E+10	1	-1E+10	1	-1E+10	1	-1E+10	1	-1E+10	1	-1E+10	1
4901784	90	C	12/21/2017	10:45	-133.280	43.607	0	51.90	0	11.9060	0	32.8160	4	24.913	0	51.479	0	256.5	4	95.7	4	-1E+10	1	-1E+10	1	-1E+10	1	-1E+10	1	-1E+10	1	-1E+10	1
4901784	90	C	12/21/2017	10:45	-133.280	43.607	0	53.80	0	11.9050	0	32.8160	4	24.913	0	53.363	0	256.2	4	95.6	4	-1E+10	1	-1E+10	1	-1E+10	1	-1E+10	1	-1E+10	1	-1E+10	1
4901784	90	C	12/21/2017	10:45	-133.280	43.607	0	55.70	0	11.9050	0	32.8150	4	24.912	0	55.248	0	256.1	4	95.6	4	-1E+10	1	-1E+10	1	-1E+10	1	-1E+10	1	-1E+10	1	-1E+10	1
4901784	90	C	12/21/2017	10:45	-133.280	43.607	0	57.60	0	11.9060	0	32.8140	4	24.911	0	57.132	0	255.8	4	95.5	4	-1E+10	1	-1E+10	1	-1E+10	1	-1E+10	1	-1E+10	1	-1E+10	1
4901784	90	C	12/21/2017	10:45	-133.280	43.607	0	59.60	0	11.9030	0	32.8140	4	24.912	0	59.115	0	255.5	4	95.4	4	-1E+10	1	-1E+10	1	-1E+10	1	-1E+10	1	-1E+10	1	-1E+10	1
4901784	90	C	12/21/2017	10:45	-133.280	43.607	0	61.50	0	11.8490	0	32.7970	4	24.909	0	61.000	0	255.5	4	95.3	4	-1E+10	1	-1E+10	1	-1E+10	1	-1E+10	1	-1E+10	1	-1E+10	1
4901784	90	C	12/21/2017	10:45	-133.280	43.607	0	63.30	0	11.8810	0	32.8020	4	24.907	0	62.785	0	255.4	4	95.3	4	-1E+10	1	-1E+10	1	-1E+10	1	-1E+10	1	-1E+10	1	-1E+10	1
4901784	90	C	12/21/2017	10:45	-133.280	43.607	0	65.40	0	11.8170	0	32.7870	4	24.907	0	64.867	0	255.0	4	95.0	4	-1E+10	1	-1E+10	1	-1E+10	1	-1E+10	1	-1E+10	1	-1E+10	1
4901784	90	C	12/21/2017	10:45	-133.280	43.607	0	65.90	0	11.8100	0	32.7880	4	24.909	0	65.363	0	254.9	4	94.9	4	-1E+10	1	-1E+10	1	-1E+10	1	-1E+10	1	-1E+10	1	-1E+10	1
4901784	90	C	12/21/2017	10:45	-133.280	43.607	0	67.50	0	11.7490	0	32.7810	4	24.915	0	66.950	0	255.0	4	94.9	4	-1E+10	1	-1E+10	1	-1E+10	1	-1E+10	1	-1E+10	1	-1E+10	1
4901784	90	C	12/21/2017	10:45	-133.280	43.607	0	69.00	0	11.7450	0	32.7780	4	24.913	0	68.437	0	254.3	4	94.6	4	-1E+10	1	-1E+10	1	-1E+10	1	-1E+10	1	-1E+10	1	-1E+10	1
4901784	90	C	12/21/2017	10:45	-133.280	43.607	0	70.40	0	11.6460	0	32.7710	4	24.926	0	69.826	0	254.0	4	94.3	4	-1E+10	1	-1E+10	1	-1E+10	1	-1E+10	1	-1E+10	1	-1E+10	1
4901784	90	C	12/21/2017	10:45	-133.280	43.607	0	71.90	0	11.5360	0	32.7720	4	24.947	0	71.313	0	253.5	4	93.9	4	-1E+10	1	-1E+10	1	-1E+10	1	-1E+10	1	-1E+10	1	-1E+10	1
4901784	90	C	12/21/2017	10:45	-133.280	43.607	0	73.30	0	11.4220	0	32.7790	4	24.973	0	72.701	0	253.2	4	93.5	4	-1E+10	1	-1E+10	1	-1E+10	1	-1E+10	1	-1E+10	1	-1E+10	1
4901784	90	C	12/21/2017	10:45	-133.280	43.607	0	74.60	0	11.1510	0	32.8160	4	25.050	0	73.991	0	253.6	4	93.2	4	-1E+10	1	-1E+10	1	-1E+10	1	-1E+10	1	-1E+10	1	-1E+10	1
4901784	90	C	12/21/2017	10:45	-133.280	43.607	0	76.10	0	11.0940	0	32.8020	4	25.050	0	75.478	0	253.0	4	92.8	4	-1E+10	1	-1E+10	1	-1E+10	1	-1E+10	1	-1E+10	1	-1E+10	1
4901784	90	C	12/21/2017	10:45	-133.280	43.607	0	77.70	0	10.5010	0	32.8580	4	25.197	0	77.065	0	253.8	4	92.0	4	-1E+10	1	-1E+10	1	-1E+10	1	-1E+10	1	-1E+10	1	-1E+10	1
4901784	90	C	12/21/2017	10:45	-133.280	43.607	0	79.30	0	9.7250	0	32.9050	4	25.364	0	78.651	0	257.7	4	91.9	4	-1E+10	1	-1E+10	1	-1E+10	1	-1E+10	1	-1E+10	1	-1E+10	1
4901784	90	C	12/21/2017	10:45	-133.280	43.607	0	81.10	0	9.1810	0	32.9700	4	25.502	0	80.436	0	258.1	4	91.0	4	-1E+10	1	-1E+10	1	-1E+10	1	-1E+10	1	-1E+10	1	-1E+10	1
4901784	90	C	12/21/2017	10:45	-133.280	43.607	0	82.90	0	8.9460	0	32.9840	4	25.550	0	82.221	0	259.7	4	91.1	4	-1E+10	1	-1E+10	1	-1E+10	1	-1E+10	1	-1E+10	1	-1E+10	1
4901784	90	C	12/21/2017	10:45	-133.280	43.607	0	85.20	0	8.8400	0	32.9850	4	25.567	0	84.502	0	259.5	4	90.8	4	-1E+10	1	-1E+10	1	-1E+10	1	-1E+10	1	-1E+10	1	-1E+10	1
4901784	90	C	12/21/2017	10:45	-133.280	43.607	0	87.00	0	8.6280	0	32.9940	4	25.607	0	86.287	0	259.7	4	90.5	4	-1E+10	1	-1E+10	1	-1E+10	1	-1E+10	1	-1E+10	1	-1E+10	1
4901784	90	C	12/21/2017	10:45	-133.280	43.607	0	88.50	0	8.5630	0	33.0110	4	25.630	0	87.774	0	259.2	4	90.2	4	-1E+10	1	-1E+10	1	-1E+10	1	-1E+10	1	-1E+10	1	-1E+10	1
4901784	90	C	12/21/2017	10:45	-133.280	43.607	0	90.00	0	8.5030	0	33.0050	4	25.634	0	89.261	0	259.7	4	90.2	4	-1E+10	1	-1E+10	1	-1E+10	1	-1E+10	1	-1E+10	1	-1E+10	1
4901784	90	C	12/21/2017	10:45	-133.280	43.607	0	91.60	0	8.4220	0	33.0020	4	25.644	0	90.848	0	259.8	4	90.1	4	-1E+10	1	-1E+10	1	-1E+10	1	-1E+10	1	-1E+10	1	-1E+10	1
4901784	90	C	12/21/2017	10:45	-133.280	43.607	0	93.20	0	8.3150	0	33.0030	4	25.661	0	92.434	0	260.0	4	89.9	4	-1E+10	1	-1E+10	1	-1E+10	1	-1E+10	1	-1E+10	1	-1E+10	1
4901784	90	C	12/21/2017	10:45	-133.280	43.607	0	94.90	0	8.2850	0	33.0060	4	25.668	0	94.120	0	259.5	4	89.7	4	-1E+10	1	-1E+10	1	-1E+10	1	-1E+10	1	-1E+10	1	-1E+10	1
4901784	90	C	12/21/2017	10:45	-133.280	43.607	0	96.50	0	8.2780	0	33.0070	4	25.670	0	95.707	0	259.1	4	89.6	4	-1E+10	1	-1E+10	1	-1E+10	1	-1E+10	1	-1E+10	1	-1E+10	1
4901784	90	C	12/21/2017	10:45	-133.280	43.607	0	98.10	0	8.2390	0	33.0100	4	25.678	0	97.293	0	258.3	4	89.2	4	-1E+10	1	-1E+10	1	-1E+10	1	-1E+10	1	-1E+10	1	-1E+10	1
4901784	90	C	12/21/2017	10:45	-133.280	43.607	0	99.80	0	8.1990	0	33.0110	4	25.685	0	98.979	0	257.6	4	88.9	4	-1E+10	1	-1E+10	1	-1E+10	1	-1E+10	1	-1E+10	1	-1E+10	1
4901784	90	C	12/21/2017	10:45	-133.280	43.607	0	102.40	0	8.1220	0	33.0220	4	25.705	0	101.557	0	256.0	4	88.2	4	-1E+10	1	-1E+10	1	-1E+10	1	-1E+10	1	-1E+10	1	-1E+10	1
4901784	90	C	12/21/2017	10:45	-133.280	43.607	0	105.00	0	8.1040	0	33.0210	4	25.706	0	104.135	0	253.8	4	87.4	4	-1E+10	1	-1E+10	1	-1E+10	1	-1E+10	1	-1E+10	1	-1E+10	1
4901784	90	C	12/21/2017	10:45	-133.280	43.607	0	107.60	0	8.0750	0	33.0420	4	25.727	0	106.712	0	250.2	4	86.1	4	-1E+10	1	-1E+10	1	-1E+10	1	-1E+10	1	-1E+10	1	-1E+10	1
4901784	90	C	12/21/2017	10:45	-133.280	43.607	0	110.30	0	8.1060	0	33.0700	4	25.745	0	109.389	0	245.3	4	84.5	4	-1E+10	1	-1E+10	1	-1E+10	1	-1E+10	1	-1E+10	1	-1E+10	1
4901784	90	C	12/21/2017	10:45	-133.280	43.607	0	112.10	0	8.2060	0	33.1010	4	25.754	0	111.174	0	241.2	4	83.3	4	-1E+10	1	-1E+10	1	-1E+10	1	-1E+10	1	-1E+10	1	-1E+10	1
4901784	90	C	12/21/2017	10:45	-133.280	43.607	0	114.90	0	8.1030	0	33.1410	4	25.801	0	113.950	0	236.4	4	81.5	4	-1E+10	1	-1E+10	1	-1E+10	1	-1E+10	1	-1E+10	1	-1E+10	1
4901784	90	C	12/21/2017	10:45	-133.280	43.607	0	117.10	0	8.1510	0	33.1710	4	25.817	0	116.131	0	229.9	4	79.3	4	-1E+10	1	-1E+10	1	-1E+10	1	-1E+10	1	-1E+10	1	-1E+10	1
4901784	90	C	12/21/2017	10:45	-133.280	43.607	0	120.00	0	8.2870	0	33.2380	4	25.850	0	119.007	0	218.1	4	75.5	4	-1E+10	1	-1E+10	1	-1E+10	1	-1E+10	1	-1E+10	1	-1E+10	1
4901784	90	C	12/21/2017	10:45	-133.280	43.607	0	122.30	0	8.5450	0	33.3220	4	25.877	0	121.287	0	210.1	4	73.2	4	-1E+10	1	-1E+10	1	-1E+10	1	-1E+10	1	-1E+10	1	-1E+10	1
4901784	90	C	12/21/2017	10:45	-133.280	43.607	0	124.70	0	8.3780	0	33.3720	4	25.941	0	123.666	0	207.8	4	72.2	4	-1E+10	1	-1E+10	1	-1E+10	1	-1E+10	1	-1E+10	1	-1E+10	1
4901784	90	C	12/21/2017	10:45	-133.280	43.607	0	127.20	0	8.4220	0	33.4000	4	25.957	0	126.145	0	202.0	4	70.2	4	-1E+10	1	-1E+10	1	-1E+10	1	-1E+10	1	-1E+10	1	-1E+10	1
4901784	90	C	12/21/2017	10:45	-133.280	43.607	0	129.80	0	8.4740	0	33.4750	4	26.008	0	128.722	0	194.8	4	67.9	4	-1E+10	1	-1E+10	1	-1E+10	1	-1E+10	1	-1E+10	1	-1E+10	1
4901784	90	C	12/21/2017	10:45	-133.280	43.607	0	132.50	0	8.5840	0	33.5570	4	26.055	0	131.399	0	189.9	4	66.3	4	-1E+10	1	-1E+10	1	-1E+10	1	-1E+10	1	-1E+10	1	-1E+10	1
4901784	90	C	12/21/2017	10:45	-133.280	43.607	0	135.10	0	8.5880	0	33.5750	4	26.069	0	133.977	0	187.7	4	65.6	4	-1E+10	1	-1E+10	1	-1E+10	1	-1E+10	1	-1E+10	1	-1E+10	1
4901784	90	C	12/21/2017	10:45	-133.280	43.607	0	137.80	0	8.5670	0	33.6120	4	26.101	0	136.653	0	185.8	4	64.9	4	-1E+10	1	-1E+10	1	-1E+10	1	-1E+10	1	-1E+10	1	-1E+10	1
4901784	90	C	12/21/2017	10:45	-133.280	43.607	0	139.70	0	8.5720	0	33.6360	4	26.119	0	138.537	0	184.9	4	64.6	4	-1E+10	1	-1E+10	1	-1E+10	1	-1E+10	1	-1E+10	1	-1E+10	1
4901784	90	C	12/21/2017	10:45	-133.280	43.607	0	142.40	0	8.5600	0	33.6600	4	26.140	0	141.214	0	184.0	4	64.3	4	-1E+10	1	-1E+10	1	-1E+10	1	-1E+10	1	-1E+10	1	-1E+10	1
4901784	90	C	12/21/2017	10:45	-133.280	43.607	0	145.10	0	8.5370	0	33.7000	4	26.175	0	143.890	0	182.6	4	63.8	4	-1E+10	1	-1E+10	1	-1E+10	1	-1E+10	1	-1E+10	1	-1E+10	1
4901784	90	C	12/21/2017	10:45	-133.280	43.607	0	146.90	0	8.5340	0	33.7150	4	26.187	0	145.674	0	181.5	4	63.4	4	-1E+10	1	-1E+10	1	-1E+10	1	-1E+10	1	-1E+10	1	-1E+10	1
4901784	90	C	12/21/2017	10:45	-133.280	43.607	0	149.80	0	8.5280	0	33.7330	4	26.202	0	148.549	0	178.8	4	62.5	4	-1E+10	1	-1E+10	1	-1E+10	1	-1E+10	1	-1E+10	1	-1E+10	1
4901784	90	C	12/21/2017	10:45	-133.280	43.607	0	152.80	0	8.5210	0	33.7970	4	26.253	0	151.523	0	177.3	4	62.0	4	-1E+10	1	-1E+10	1	-1E+10	1	-1E+10	1	-1E+10	1	-1E+10	1
4901784	90	C	12/21/2017	10:45	-133.280	43.607	0	154.80	0	8.5060	0	33.8300	4	26.282	0	153.506	0	178.0	4	62.2	4	-1E+10	1	-1E+10	1	-1E+10	1	-1E+10	1	-1E+10	1	-1E+10	1
4901784	90	C	12/21/2017	10:45	-133.280	43.607	0	157.70	0	8.5040	0	33.8700	4	26.313	0	156.380	0	177.6	4	62.1	4	-1E+10	1	-1E+10	1	-1E+10	1	-1E+10	1	-1E+10	1	-1E+10	1
4901784	90	C	12/21/2017	10:45	-133.280	43.607	0	160.60	0	8.4960	0	33.8900	4	26.330	0	159.255	0	176.7	4	61.8	4	-1E+10	1	-1E+10	1	-1E+10	1	-1E+10	1	-1E+10	1	-1E+10	1
4901784	90	C	12/21/2017	10:45	-133.280	43.607	0	162.60	0	8.4840	0	33.9110	4	26.349	0	161.237	0	175.5	4	61.3	4	-1E+10	1	-1E+10	1	-1E+10	1	-1E+10	1	-1E+10	1	-1E+10	1
4901784	90	C	12/21/2017	10:45	-133.280	43.607	0	164.50	0	8.4400	0	33.9330	4	26.373	0	163.121	0	174.7	4	61.0	4	-1E+10	1	-1E+10	1	-1E+10	1	-1E+10	1	-1E+10	1	-1E+10	1
4901784	90	C	12/21/2017	10:45	-133.280	43.607	0	167.50	0	8.4070	0	33.9470	4	26.389	0	166.094	0	174.6	4	60.9	4	-1E+10	1	-1E+10	1	-1E+10	1	-1E+10	1	-1E+10	1	-1E+10	1
4901784	90	C	12/21/2017	10:45	-133.280	43.607	0	170.30	0	8.3870	0	33.9550	4	26.398	0	168.870	0	174.0	4	60.7	4	-1E+10	1	-1E+10	1	-1E+10	1	-1E+10	1	-1E+10	1	-1E+10	1
4901784	90	C	12/21/2017	10:45	-133.280	43.607	0	172.10	0	8.3540	0	33.9660	4	26.412	0	170.654	0	173.6	4	60.5	4	-1E+10	1	-1E+10	1	-1E+10	1	-1E+10	1	-1E+10	1	-1E+10	1
4901784	90	C	12/21/2017	10:45	-133.280	43.607	0	174.90	0	8.3330	0	33.9720	4	26.420	0	173.429	0	172.5	4	60.1	4	-1E+10	1	-1E+10	1	-1E+10	1	-1E+10	1	-1E+10	1	-1E+10	1
4901784	90	C	12/21/2017	10:45	-133.280	43.607	0	177.70	0	8.2880	0	33.9770	4	26.430	0	176.204	0	171.3	4	59.6	4	-1E+10	1	-1E+10	1	-1E+10	1	-1E+10	1	-1E+10	1	-1E+10	1
4901784	90	C	12/21/2017	10:45	-133.280	43.607	0	179.60	0	8.2590	0	33.9800	4	26.437	0	178.088	0	170.4	4	59.3	4	-1E+10	1	-1E+10	1	-1E+10	1	-1E+10	1	-1E+10	1	-1E+10	1
4901784	90	C	12/21/2017	10:45	-133.280	43.607	0	182.30	0	8.2140	0	33.9840	4	26.447	0	180.764	0	169.0	4	58.8	4	-1E+10	1	-1E+10	1	-1E+10	1	-1E+10	1	-1E+10	1	-1E+10	1
4901784	90	C	12/21/2017	10:45	-133.280	43.607	0	185.10	0	8.1510	0	33.9880	4	26.460	0	183.539	0	167.4	4	58.1	4	-1E+10	1	-1E+10	1	-1E+10	1	-1E+10	1	-1E+10	1	-1E+10	1
4901784	90	C	12/21/2017	10:45	-133.280	43.607	0	186.90	0	8.1190	0	33.9890	4	26.465	0	185.323	0	166.1	4	57.6	4	-1E+10	1	-1E+10	1	-1E+10	1	-1E+10	1	-1E+10	1	-1E+10	1
4901784	90	C	12/21/2017	10:45	-133.280	43.607	0	189.70	0	8.0960	0	33.9910	4	26.470	0	188.098	0	163.4	4	56.7	4	-1E+10	1	-1E+10	1	-1E+10	1	-1E+10	1	-1E+10	1	-1E+10	1
4901784	90	C	12/21/2017	10:45	-133.280	43.607	0	192.30	0	8.0430	0	33.9930	4	26.480	0	190.675	0	160.8	4	55.7	4	-1E+10	1	-1E+10	1	-1E+10	1	-1E+10	1	-1E+10	1	-1E+10	1
4901784	90	C	12/21/2017	10:45	-133.280	43.607	0	195.10	0	7.9970	0	33.9940	4	26.487	0	193.450	0	158.1	4	54.7	4	-1E+10	1	-1E+10	1	-1E+10	1	-1E+10	1	-1E+10	1	-1E+10	1
4901784	90	C	12/21/2017	10:45	-133.280	43.607	0	197.70	0	7.9420	0	33.9940	4	26.495	0	196.027	0	153.9	4	53.2	4	-1E+10	1	-1E+10	1	-1E+10	1	-1E+10	1	-1E+10	1	-1E+10	1
4901784	90	C	12/21/2017	10:45	-133.280	43.607	0	199.50	0	7.9220	0	33.9930	4	26.498	0	197.810	0	150.5	4	52.0	4	-1E+10	1	-1E+10	1	-1E+10	1	-1E+10	1	-1E+10	1	-1E+10	1
4901784	90	C	12/21/2017	10:45	-133.280	43.607	0	202.30	0	7.8430	0	33.9950	4	26.511	0	200.585	0	145.9	4	50.3	4	-1E+10	1	-1E+10	1	-1E+10	1	-1E+10	1	-1E+10	1	-1E+10	1
4901784	90	C	12/21/2017	10:45	-133.280	43.607	0	205.00	0	7.7640	0	33.9950	4	26.522	0	203.261	0	142.0	4	48.9	4	-1E+10	1	-1E+10	1	-1E+10	1	-1E+10	1	-1E+10	1	-1E+10	1
4901784	90	C	12/21/2017	10:45	-133.280	43.607	0	207.80	0	7.7190	0	33.9940	4	26.528	0	206.036	0	140.2	4	48.2	4	-1E+10	1	-1E+10	1	-1E+10	1	-1E+10	1	-1E+10	1	-1E+10	1
4901784	90	C	12/21/2017	10:45	-133.280	43.607	0	210.60	0	7.6940	0	33.9930	4	26.531	0	208.811	0	140.2	4	48.2	4	-1E+10	1	-1E+10	1	-1E+10	1	-1E+10	1	-1E+10	1	-1E+10	1
4901784	90	C	12/21/2017	10:45	-133.280	43.607	0	212.40	0	7.6670	0	33.9950	4	26.536	0	210.595	0	139.5	4	47.9	4	-1E+10	1	-1E+10	1	-1E+10	1	-1E+10	1	-1E+10	1	-1E+10	1
4901784	90	C	12/21/2017	10:45	-133.280	43.607	0	214.80	0	7.6170	0	33.9960	4	26.544	0	212.973	0	137.8	4	47.3	4	-1E+10	1	-1E+10	1	-1E+10	1	-1E+10	1	-1E+10	1	-1E+10	1
4901784	90	C	12/21/2017	10:45	-133.280	43.607	0	217.40	0	7.5740	0	33.9970	4	26.551	0	215.550	0	136.5	4	46.8	4	-1E+10	1	-1E+10	1	-1E+10	1	-1E+10	1	-1E+10	1	-1E+10	1
4901784	90	C	12/21/2017	10:45	-133.280	43.607	0	219.70	0	7.5310	0	33.9970	4	26.558	0	217.829	0	136.1	4	46.6	4	-1E+10	1	-1E+10	1	-1E+10	1	-1E+10	1	-1E+10	1	-1E+10	1
4901784	90	C	12/21/2017	10:45	-133.280	43.607	0	222.00	0	7.5180	0	33.9970	4	26.559	0	220.108	0	138.1	4	47.3	4	-1E+10	1	-1E+10	1	-1E+10	1	-1E+10	1	-1E+10	1	-1E+10	1
4901784	90	C	12/21/2017	10:45	-133.280	43.607	0	225.20	0	7.4500	0	34.0010	4	26.572	0	223.279	0	140.9	4	48.1	4	-1E+10	1	-1E+10	1	-1E+10	1	-1E+10	1	-1E+10	1	-1E+10	1
4901784	90	C	12/21/2017	10:45	-133.280	43.607	0	227.60	0	7.4110	0	34.0000	4	26.577	0	225.657	0	140.7	4	48.1	4	-1E+10	1	-1E+10	1	-1E+10	1	-1E+10	1	-1E+10	1	-1E+10	1
4901784	90	C	12/21/2017	10:45	-133.280	43.607	0	230.00	0	7.3920	0	34.0000	4	26.580	0	228.035	0	140.4	4	47.9	4	-1E+10	1	-1E+10	1	-1E+10	1	-1E+10	1	-1E+10	1	-1E+10	1
4901784	90	C	12/21/2017	10:45	-133.280	43.607	0	232.50	0	7.3530	0	34.0010	4	26.586	0	230.513	0	140.2	4	47.8	4	-1E+10	1	-1E+10	1	-1E+10	1	-1E+10	1	-1E+10	1	-1E+10	1
4901784	90	C	12/21/2017	10:45	-133.280	43.607	0	234.90	0	7.3420	0	34.0010	4	26.588	0	232.891	0	139.0	4	47.4	4	-1E+10	1	-1E+10	1	-1E+10	1	-1E+10	1	-1E+10	1	-1E+10	1
4901784	90	C	12/21/2017	10:45	-133.280	43.607	0	237.30	0	7.3270	0	34.0010	4	26.590	0	235.269	0	137.9	4	47.0	4	-1E+10	1	-1E+10	1	-1E+10	1	-1E+10	1	-1E+10	1	-1E+10	1
4901784	90	C	12/21/2017	10:45	-133.280	43.607	0	239.70	0	7.2880	0	34.0020	4	26.596	0	237.647	0	137.3	4	46.7	4	-1E+10	1	-1E+10	1	-1E+10	1	-1E+10	1	-1E+10	1	-1E+10	1
4901784	90	C	12/21/2017	10:45	-133.280	43.607	0	242.20	0	7.2640	0	34.0020	4	26.599	0	240.124	0	137.4	4	46.8	4	-1E+10	1	-1E+10	1	-1E+10	1	-1E+10	1	-1E+10	1	-1E+10	1
4901784	90	C	12/21/2017	10:45	-133.280	43.607	0	244.70	0	7.2500	0	34.0000	4	26.600	0	242.601	0	137.4	4	46.7	4	-1E+10	1	-1E+10	1	-1E+10	1	-1E+10	1	-1E+10	1	-1E+10	1
4901784	90	C	12/21/2017	10:45	-133.280	43.607	0	247.20	0	7.2270	0	33.9990	4	26.602	0	245.078	0	137.7	4	46.8	4	-1E+10	1	-1E+10	1	-1E+10	1	-1E+10	1	-1E+10	1	-1E+10	1
4901784	90	C	12/21/2017	10:45	-133.280	43.607	0	249.70	0	7.1650	0	34.0000	4	26.612	0	247.555	0	138.9	4	47.2	4	-1E+10	1	-1E+10	1	-1E+10	1	-1E+10	1	-1E+10	1	-1E+10	1
4901784	90	C	12/21/2017	10:45	-133.280	43.607	0	252.20	0	7.1270	0	34.0000	4	26.617	0	250.032	0	139.8	4	47.4	4	-1E+10	1	-1E+10	1	-1E+10	1	-1E+10	1	-1E+10	1	-1E+10	1
4901784	90	C	12/21/2017	10:45	-133.280	43.607	0	254.70	0	7.1210	0	33.9990	4	26.617	0	252.509	0	140.7	4	47.7	4	-1E+10	1	-1E+10	1	-1E+10	1	-1E+10	1	-1E+10	1	-1E+10	1
4901784	90	C	12/21/2017	10:45	-133.280	43.607	0	257.30	0	7.0970	0	33.9960	4	26.618	0	255.085	0	141.7	4	48.0	4	-1E+10	1	-1E+10	1	-1E+10	1	-1E+10	1	-1E+10	1	-1E+10	1
4901784	90	C	12/21/2017	10:45	-133.280	43.607	0	259.90	0	7.0280	0	33.9930	4	26.625	0	257.661	0	141.9	4	48.0	4	-1E+10	1	-1E+10	1	-1E+10	1	-1E+10	1	-1E+10	1	-1E+10	1
4901784	90	C	12/21/2017	10:45	-133.280	43.607	0	262.50	0	6.9940	0	33.9930	4	26.630	0	260.237	0	141.0	4	47.7	4	-1E+10	1	-1E+10	1	-1E+10	1	-1E+10	1	-1E+10	1	-1E+10	1
4901784	90	C	12/21/2017	10:45	-133.280	43.607	0	265.10	0	6.9840	0	33.9930	4	26.631	0	262.813	0	139.4	4	47.1	4	-1E+10	1	-1E+10	1	-1E+10	1	-1E+10	1	-1E+10	1	-1E+10	1
4901784	90	C	12/21/2017	10:45	-133.280	43.607	0	267.80	0	6.9600	0	33.9920	4	26.634	0	265.488	0	137.1	4	46.3	4	-1E+10	1	-1E+10	1	-1E+10	1	-1E+10	1	-1E+10	1	-1E+10	1
4901784	90	C	12/21/2017	10:45	-133.280	43.607	0	269.60	0	6.9370	0	33.9930	4	26.638	0	267.272	0	135.5	4	45.8	4	-1E+10	1	-1E+10	1	-1E+10	1	-1E+10	1	-1E+10	1	-1E+10	1
4901784	90	C	12/21/2017	10:45	-133.280	43.607	0	272.40	0	6.9020	0	33.9930	4	26.643	0	270.045	0	131.5	4	44.4	4	-1E+10	1	-1E+10	1	-1E+10	1	-1E+10	1	-1E+10	1	-1E+10	1
4901784	90	C	12/21/2017	10:45	-133.280	43.607	0	275.00	0	6.8650	0	33.9950	4	26.649	0	272.621	0	126.3	4	42.6	4	-1E+10	1	-1E+10	1	-1E+10	1	-1E+10	1	-1E+10	1	-1E+10	1
4901784	90	C	12/21/2017	10:45	-133.280	43.607	0	277.70	0	6.8600	0	34.0000	4	26.654	0	275.296	0	121.3	4	40.9	4	-1E+10	1	-1E+10	1	-1E+10	1	-1E+10	1	-1E+10	1	-1E+10	1
4901784	90	C	12/21/2017	10:45	-133.280	43.607	0	280.40	0	6.8140	0	34.0020	4	26.662	0	277.971	0	118.3	4	39.9	4	-1E+10	1	-1E+10	1	-1E+10	1	-1E+10	1	-1E+10	1	-1E+10	1
4901784	90	C	12/21/2017	10:45	-133.280	43.607	0	282.10	0	6.7940	0	34.0030	4	26.665	0	279.655	0	117.7	4	39.6	4	-1E+10	1	-1E+10	1	-1E+10	1	-1E+10	1	-1E+10	1	-1E+10	1
4901784	90	C	12/21/2017	10:45	-133.280	43.607	0	284.90	0	6.7290	0	34.0030	4	26.674	0	282.429	0	116.3	4	39.1	4	-1E+10	1	-1E+10	1	-1E+10	1	-1E+10	1	-1E+10	1	-1E+10	1
4901784	90	C	12/21/2017	10:45	-133.280	43.607	0	287.60	0	6.7130	0	34.0090	4	26.681	0	285.104	0	115.3	4	38.8	4	-1E+10	1	-1E+10	1	-1E+10	1	-1E+10	1	-1E+10	1	-1E+10	1
4901784	90	C	12/21/2017	10:45	-133.280	43.607	0	290.30	0	6.6600	0	34.0040	4	26.684	0	287.778	0	117.6	4	39.5	4	-1E+10	1	-1E+10	1	-1E+10	1	-1E+10	1	-1E+10	1	-1E+10	1
4901784	90	C	12/21/2017	10:45	-133.280	43.607	0	293.10	0	6.6410	0	34.0010	4	26.684	0	290.552	0	119.7	4	40.2	4	-1E+10	1	-1E+10	1	-1E+10	1	-1E+10	1	-1E+10	1	-1E+10	1
4901784	90	C	12/21/2017	10:45	-133.280	43.607	0	295.00	0	6.5840	0	34.0010	4	26.692	0	292.434	0	122.7	4	41.1	4	-1E+10	1	-1E+10	1	-1E+10	1	-1E+10	1	-1E+10	1	-1E+10	1
4901784	90	C	12/21/2017	10:45	-133.280	43.607	0	297.80	0	6.4710	0	33.9880	4	26.696	0	295.208	0	124.6	4	41.6	4	-1E+10	1	-1E+10	1	-1E+10	1	-1E+10	1	-1E+10	1	-1E+10	1
4901784	90	C	12/21/2017	10:45	-133.280	43.607	0	300.60	0	6.4440	0	33.9840	4	26.697	0	297.981	0	123.3	4	41.2	4	-1E+10	1	-1E+10	1	-1E+10	1	-1E+10	1	-1E+10	1	-1E+10	1
4901784	90	C	12/21/2017	10:45	-133.280	43.607	0	302.40	0	6.4220	0	33.9850	4	26.700	0	299.764	0	122.4	4	40.9	4	-1E+10	1	-1E+10	1	-1E+10	1	-1E+10	1	-1E+10	1	-1E+10	1
4901784	90	C	12/21/2017	10:45	-133.280	43.607	0	304.40	0	6.3540	0	33.9850	4	26.709	0	301.746	0	121.9	4	40.6	4	-1E+10	1	-1E+10	1	-1E+10	1	-1E+10	1	-1E+10	1	-1E+10	1
4901784	90	C	12/21/2017	10:45	-133.280	43.607	0	307.30	0	6.3010	0	33.9830	4	26.714	0	304.618	0	120.8	4	40.2	4	-1E+10	1	-1E+10	1	-1E+10	1	-1E+10	1	-1E+10	1	-1E+10	1
4901784	90	C	12/21/2017	10:45	-133.280	43.607	0	310.20	0	6.2710	0	33.9820	4	26.717	0	307.491	0	119.3	4	39.7	4	-1E+10	1	-1E+10	1	-1E+10	1	-1E+10	1	-1E+10	1	-1E+10	1
4901784	90	C	12/21/2017	10:45	-133.280	43.607	0	312.10	0	6.2530	0	33.9800	4	26.718	0	309.373	0	117.7	4	39.1	4	-1E+10	1	-1E+10	1	-1E+10	1	-1E+10	1	-1E+10	1	-1E+10	1
4901784	90	C	12/21/2017	10:45	-133.280	43.607	0	314.90	0	6.1810	0	33.9840	4	26.731	0	312.146	0	115.0	4	38.2	4	-1E+10	1	-1E+10	1	-1E+10	1	-1E+10	1	-1E+10	1	-1E+10	1
4901784	90	C	12/21/2017	10:45	-133.280	43.607	0	317.70	0	6.1510	0	33.9870	4	26.737	0	314.920	0	112.5	4	37.3	4	-1E+10	1	-1E+10	1	-1E+10	1	-1E+10	1	-1E+10	1	-1E+10	1
4901784	90	C	12/21/2017	10:45	-133.280	43.607	0	320.20	0	6.1280	0	33.9880	4	26.740	0	317.396	0	111.9	4	37.1	4	-1E+10	1	-1E+10	1	-1E+10	1	-1E+10	1	-1E+10	1	-1E+10	1
4901784	90	C	12/21/2017	10:45	-133.280	43.607	0	322.90	0	6.0820	0	33.9870	4	26.746	0	320.070	0	110.8	4	36.7	4	-1E+10	1	-1E+10	1	-1E+10	1	-1E+10	1	-1E+10	1	-1E+10	1
4901784	90	C	12/21/2017	10:45	-133.280	43.607	0	325.20	0	6.0590	0	33.9860	4	26.748	0	322.348	0	109.7	4	36.3	4	-1E+10	1	-1E+10	1	-1E+10	1	-1E+10	1	-1E+10	1	-1E+10	1
4901784	90	C	12/21/2017	10:45	-133.280	43.607	0	327.50	0	6.0050	0	33.9840	4	26.753	0	324.626	0	107.9	4	35.7	4	-1E+10	1	-1E+10	1	-1E+10	1	-1E+10	1	-1E+10	1	-1E+10	1
4901784	90	C	12/21/2017	10:45	-133.280	43.607	0	329.90	0	5.9180	0	33.9810	4	26.761	0	327.003	0	104.8	4	34.6	4	-1E+10	1	-1E+10	1	-1E+10	1	-1E+10	1	-1E+10	1	-1E+10	1
4901784	90	C	12/21/2017	10:45	-133.280	43.607	0	332.30	0	5.9220	0	33.9890	4	26.767	0	329.380	0	100.9	4	33.3	4	-1E+10	1	-1E+10	1	-1E+10	1	-1E+10	1	-1E+10	1	-1E+10	1
4901784	90	C	12/21/2017	10:45	-133.280	43.607	0	334.80	0	5.9080	0	33.9910	4	26.771	0	331.856	0	98.0	4	32.3	4	-1E+10	1	-1E+10	1	-1E+10	1	-1E+10	1	-1E+10	1	-1E+10	1
4901784	90	C	12/21/2017	10:45	-133.280	43.607	0	337.10	0	5.9310	0	34.0030	4	26.777	0	334.134	0	94.4	4	31.2	4	-1E+10	1	-1E+10	1	-1E+10	1	-1E+10	1	-1E+10	1	-1E+10	1
4901784	90	C	12/21/2017	10:45	-133.280	43.607	0	340.30	0	5.8530	0	34.0020	4	26.786	0	337.303	0	92.2	4	30.4	4	-1E+10	1	-1E+10	1	-1E+10	1	-1E+10	1	-1E+10	1	-1E+10	1
4901784	90	C	12/21/2017	10:45	-133.280	43.607	0	342.80	0	5.8060	0	34.0080	4	26.797	0	339.779	0	89.9	4	29.6	4	-1E+10	1	-1E+10	1	-1E+10	1	-1E+10	1	-1E+10	1	-1E+10	1
4901784	90	C	12/21/2017	10:45	-133.280	43.607	0	345.20	0	5.8120	0	34.0110	4	26.798	0	342.156	0	88.0	4	29.0	4	-1E+10	1	-1E+10	1	-1E+10	1	-1E+10	1	-1E+10	1	-1E+10	1
4901784	90	C	12/21/2017	10:45	-133.280	43.607	0	347.60	0	5.8000	0	34.0170	4	26.805	0	344.533	0	86.7	4	28.5	4	-1E+10	1	-1E+10	1	-1E+10	1	-1E+10	1	-1E+10	1	-1E+10	1
4901784	90	C	12/21/2017	10:45	-133.280	43.607	0	350.10	0	5.7950	0	34.0150	4	26.804	0	347.009	0	85.7	4	28.2	4	-1E+10	1	-1E+10	1	-1E+10	1	-1E+10	1	-1E+10	1	-1E+10	1
4901784	90	C	12/21/2017	10:45	-133.280	43.607	0	352.60	0	5.7760	0	34.0140	4	26.805	0	349.485	0	85.1	4	28.0	4	-1E+10	1	-1E+10	1	-1E+10	1	-1E+10	1	-1E+10	1	-1E+10	1
4901784	90	C	12/21/2017	10:45	-133.280	43.607	0	355.10	0	5.7050	0	34.0110	4	26.812	0	351.960	0	85.7	4	28.1	4	-1E+10	1	-1E+10	1	-1E+10	1	-1E+10	1	-1E+10	1	-1E+10	1
4901784	90	C	12/21/2017	10:45	-133.280	43.607	0	357.60	0	5.5140	0	33.9980	4	26.824	0	354.436	0	85.0	4	27.8	4	-1E+10	1	-1E+10	1	-1E+10	1	-1E+10	1	-1E+10	1	-1E+10	1
4901784	90	C	12/21/2017	10:45	-133.280	43.607	0	360.10	0	5.4900	0	34.0000	4	26.829	0	356.912	0	79.6	4	26.0	4	-1E+10	1	-1E+10	1	-1E+10	1	-1E+10	1	-1E+10	1	-1E+10	1
4901784	90	C	12/21/2017	10:45	-133.280	43.607	0	362.70	0	5.5860	0	34.0230	4	26.835	0	359.487	0	73.9	4	24.2	4	-1E+10	1	-1E+10	1	-1E+10	1	-1E+10	1	-1E+10	1	-1E+10	1
4901784	90	C	12/21/2017	10:45	-133.280	43.607	0	365.30	0	5.6510	0	34.0370	4	26.839	0	362.061	0	69.7	4	22.9	4	-1E+10	1	-1E+10	1	-1E+10	1	-1E+10	1	-1E+10	1	-1E+10	1
4901784	90	C	12/21/2017	10:45	-133.280	43.607	0	367.80	0	5.7270	0	34.0430	4	26.834	0	364.537	0	66.7	4	21.9	4	-1E+10	1	-1E+10	1	-1E+10	1	-1E+10	1	-1E+10	1	-1E+10	1
4901784	90	C	12/21/2017	10:45	-133.280	43.607	0	370.40	0	5.6830	0	34.0520	4	26.847	0	367.112	0	66.0	4	21.7	4	-1E+10	1	-1E+10	1	-1E+10	1	-1E+10	1	-1E+10	1	-1E+10	1
4901784	90	C	12/21/2017	10:45	-133.280	43.607	0	372.90	0	5.6330	0	34.0510	4	26.852	0	369.587	0	65.4	4	21.4	4	-1E+10	1	-1E+10	1	-1E+10	1	-1E+10	1	-1E+10	1	-1E+10	1
4901784	90	C	12/21/2017	10:45	-133.280	43.607	0	374.60	0	5.6580	0	34.0560	4	26.853	0	371.271	0	64.7	4	21.2	4	-1E+10	1	-1E+10	1	-1E+10	1	-1E+10	1	-1E+10	1	-1E+10	1
4901784	90	C	12/21/2017	10:45	-133.280	43.607	0	377.10	0	5.6630	0	34.0580	4	26.854	0	373.746	0	65.0	4	21.3	4	-1E+10	1	-1E+10	1	-1E+10	1	-1E+10	1	-1E+10	1	-1E+10	1
4901784	90	C	12/21/2017	10:45	-133.280	43.607	0	379.60	0	5.5700	0	34.0510	4	26.860	0	376.222	0	66.0	4	21.6	4	-1E+10	1	-1E+10	1	-1E+10	1	-1E+10	1	-1E+10	1	-1E+10	1
4901784	90	C	12/21/2017	10:45	-133.280	43.607	0	382.20	0	5.4930	0	34.0410	4	26.861	0	378.796	0	65.3	4	21.3	4	-1E+10	1	-1E+10	1	-1E+10	1	-1E+10	1	-1E+10	1	-1E+10	1
4901784	90	C	12/21/2017	10:45	-133.280	43.607	0	384.70	0	5.4450	0	34.0440	4	26.869	0	381.272	0	63.3	4	20.7	4	-1E+10	1	-1E+10	1	-1E+10	1	-1E+10	1	-1E+10	1	-1E+10	1
4901784	90	C	12/21/2017	10:45	-133.280	43.607	0	387.20	0	5.4560	0	34.0540	4	26.876	0	383.747	0	60.0	4	19.6	4	-1E+10	1	-1E+10	1	-1E+10	1	-1E+10	1	-1E+10	1	-1E+10	1
4901784	90	C	12/21/2017	10:45	-133.280	43.607	0	389.70	0	5.5490	0	34.0700	4	26.877	0	386.222	0	58.6	4	19.2	4	-1E+10	1	-1E+10	1	-1E+10	1	-1E+10	1	-1E+10	1	-1E+10	1
4901784	90	C	12/21/2017	10:45	-133.280	43.607	0	392.10	0	5.5140	0	34.0680	4	26.880	0	388.599	0	58.9	4	19.2	4	-1E+10	1	-1E+10	1	-1E+10	1	-1E+10	1	-1E+10	1	-1E+10	1
4901784	90	C	12/21/2017	10:45	-133.280	43.607	0	395.40	0	5.3600	0	34.0580	4	26.890	0	391.866	0	58.3	4	19.0	4	-1E+10	1	-1E+10	1	-1E+10	1	-1E+10	1	-1E+10	1	-1E+10	1
4901784	90	C	12/21/2017	10:45	-133.280	43.607	0	397.90	0	5.3840	0	34.0680	4	26.896	0	394.341	0	55.4	4	18.1	4	-1E+10	1	-1E+10	1	-1E+10	1	-1E+10	1	-1E+10	1	-1E+10	1
4901784	90	C	12/21/2017	10:45	-133.280	43.607	0	399.60	0	5.3900	0	34.0730	4	26.899	0	396.025	0	54.3	4	17.7	4	-1E+10	1	-1E+10	1	-1E+10	1	-1E+10	1	-1E+10	1	-1E+10	1
4901784	90	C	12/21/2017	10:45	-133.280	43.607	0	402.10	0	5.3640	0	34.0810	4	26.908	0	398.500	0	53.1	4	17.3	4	-1E+10	1	-1E+10	1	-1E+10	1	-1E+10	1	-1E+10	1	-1E+10	1
4901784	90	C	12/21/2017	10:45	-133.280	43.607	0	404.60	0	5.3590	0	34.0850	4	26.912	0	400.975	0	52.4	4	17.1	4	-1E+10	1	-1E+10	1	-1E+10	1	-1E+10	1	-1E+10	1	-1E+10	1
4901784	90	C	12/21/2017	10:45	-133.280	43.607	0	407.10	0	5.3370	0	34.0840	4	26.914	0	403.450	0	52.0	4	16.9	4	-1E+10	1	-1E+10	1	-1E+10	1	-1E+10	1	-1E+10	1	-1E+10	1
4901784	90	C	12/21/2017	10:45	-133.280	43.607	0	409.60	0	5.3160	0	34.0850	4	26.917	0	405.925	0	51.2	4	16.7	4	-1E+10	1	-1E+10	1	-1E+10	1	-1E+10	1	-1E+10	1	-1E+10	1
4901784	90	C	12/21/2017	10:45	-133.280	43.607	0	412.10	0	5.3130	0	34.0870	4	26.919	0	408.400	0	50.4	4	16.4	4	-1E+10	1	-1E+10	1	-1E+10	1	-1E+10	1	-1E+10	1	-1E+10	1
4901784	90	C	12/21/2017	10:45	-133.280	43.607	0	414.60	0	5.3040	0	34.0890	4	26.922	0	410.875	0	49.4	4	16.1	4	-1E+10	1	-1E+10	1	-1E+10	1	-1E+10	1	-1E+10	1	-1E+10	1
4901784	90	C	12/21/2017	10:45	-133.280	43.607	0	417.10	0	5.3210	0	34.0960	4	26.925	0	413.350	0	48.4	4	15.8	4	-1E+10	1	-1E+10	1	-1E+10	1	-1E+10	1	-1E+10	1	-1E+10	1
4901784	90	C	12/21/2017	10:45	-133.280	43.607	0	420.40	0	5.3100	0	34.1000	4	26.930	0	416.618	0	47.9	4	15.6	4	-1E+10	1	-1E+10	1	-1E+10	1	-1E+10	1	-1E+10	1	-1E+10	1
4901784	90	C	12/21/2017	10:45	-133.280	43.607	0	422.80	0	5.2720	0	34.0990	4	26.934	0	418.993	0	48.0	4	15.6	4	-1E+10	1	-1E+10	1	-1E+10	1	-1E+10	1	-1E+10	1	-1E+10	1
4901784	90	C	12/21/2017	10:45	-133.280	43.607	0	425.30	0	5.2570	0	34.0970	4	26.934	0	421.468	0	47.8	4	15.6	4	-1E+10	1	-1E+10	1	-1E+10	1	-1E+10	1	-1E+10	1	-1E+10	1
4901784	90	C	12/21/2017	10:45	-133.280	43.607	0	427.80	0	5.2370	0	34.0960	4	26.935	0	423.943	0	47.3	4	15.4	4	-1E+10	1	-1E+10	1	-1E+10	1	-1E+10	1	-1E+10	1	-1E+10	1
4901784	90	C	12/21/2017	10:45	-133.280	43.607	0	430.30	0	5.2090	0	34.0980	4	26.940	0	426.418	0	46.2	4	15.0	4	-1E+10	1	-1E+10	1	-1E+10	1	-1E+10	1	-1E+10	1	-1E+10	1
4901784	90	C	12/21/2017	10:45	-133.280	43.607	0	432.80	0	5.2100	0	34.1020	4	26.943	0	428.893	0	44.6	4	14.5	4	-1E+10	1	-1E+10	1	-1E+10	1	-1E+10	1	-1E+10	1	-1E+10	1
4901784	90	C	12/21/2017	10:45	-133.280	43.607	0	435.30	0	5.2420	0	34.1130	4	26.948	0	431.368	0	43.2	4	14.0	4	-1E+10	1	-1E+10	1	-1E+10	1	-1E+10	1	-1E+10	1	-1E+10	1
4901784	90	C	12/21/2017	10:45	-133.280	43.607	0	437.80	0	5.2350	0	34.1140	4	26.950	0	433.843	0	42.5	4	13.8	4	-1E+10	1	-1E+10	1	-1E+10	1	-1E+10	1	-1E+10	1	-1E+10	1
4901784	90	C	12/21/2017	10:45	-133.280	43.607	0	440.20	0	5.2300	0	34.1170	4	26.953	0	436.219	0	41.8	4	13.6	4	-1E+10	1	-1E+10	1	-1E+10	1	-1E+10	1	-1E+10	1	-1E+10	1
4901784	90	C	12/21/2017	10:45	-133.280	43.607	0	442.70	0	5.2260	0	34.1190	4	26.955	0	438.693	0	40.9	4	13.3	4	-1E+10	1	-1E+10	1	-1E+10	1	-1E+10	1	-1E+10	1	-1E+10	1
4901784	90	C	12/21/2017	10:45	-133.280	43.607	0	445.10	0	5.2360	0	34.1220	4	26.956	0	441.069	0	40.1	4	13.0	4	-1E+10	1	-1E+10	1	-1E+10	1	-1E+10	1	-1E+10	1	-1E+10	1
4901784	90	C	12/21/2017	10:45	-133.280	43.607	0	447.60	0	5.2370	0	34.1250	4	26.958	0	443.544	0	39.4	4	12.8	4	-1E+10	1	-1E+10	1	-1E+10	1	-1E+10	1	-1E+10	1	-1E+10	1
4901784	90	C	12/21/2017	10:45	-133.280	43.607	0	450.10	0	5.2320	0	34.1270	4	26.961	0	446.018	0	38.8	4	12.6	4	-1E+10	1	-1E+10	1	-1E+10	1	-1E+10	1	-1E+10	1	-1E+10	1
4901784	90	C	12/21/2017	10:45	-133.280	43.607	0	452.60	0	5.2100	0	34.1310	4	26.966	0	448.493	0	38.4	4	12.5	4	-1E+10	1	-1E+10	1	-1E+10	1	-1E+10	1	-1E+10	1	-1E+10	1
4901784	90	C	12/21/2017	10:45	-133.280	43.607	0	455.10	0	5.1910	0	34.1330	4	26.970	0	450.968	0	38.0	4	12.3	4	-1E+10	1	-1E+10	1	-1E+10	1	-1E+10	1	-1E+10	1	-1E+10	1
4901784	90	C	12/21/2017	10:45	-133.280	43.607	0	457.60	0	5.1740	0	34.1330	4	26.972	0	453.442	0	37.8	4	12.3	4	-1E+10	1	-1E+10	1	-1E+10	1	-1E+10	1	-1E+10	1	-1E+10	1
4901784	90	C	12/21/2017	10:45	-133.280	43.607	0	460.00	0	5.1370	0	34.1320	4	26.976	0	455.818	0	37.5	4	12.1	4	-1E+10	1	-1E+10	1	-1E+10	1	-1E+10	1	-1E+10	1	-1E+10	1
4901784	90	C	12/21/2017	10:45	-133.280	43.607	0	462.50	0	5.1300	0	34.1380	4	26.981	0	458.292	0	37.2	4	12.1	4	-1E+10	1	-1E+10	1	-1E+10	1	-1E+10	1	-1E+10	1	-1E+10	1
4901784	90	C	12/21/2017	10:45	-133.280	43.607	0	465.00	0	5.1100	0	34.1390	4	26.984	0	460.767	0	37.4	4	12.1	4	-1E+10	1	-1E+10	1	-1E+10	1	-1E+10	1	-1E+10	1	-1E+10	1
4901784	90	C	12/21/2017	10:45	-133.280	43.607	0	467.50	0	5.1000	0	34.1400	4	26.986	0	463.241	0	38.0	4	12.3	4	-1E+10	1	-1E+10	1	-1E+10	1	-1E+10	1	-1E+10	1	-1E+10	1
4901784	90	C	12/21/2017	10:45	-133.280	43.607	0	470.00	0	5.0170	0	34.1310	4	26.989	0	465.716	0	38.5	4	12.4	4	-1E+10	1	-1E+10	1	-1E+10	1	-1E+10	1	-1E+10	1	-1E+10	1
4901784	90	C	12/21/2017	10:45	-133.280	43.607	0	472.50	0	4.9740	0	34.1330	4	26.995	0	468.190	0	38.4	4	12.4	4	-1E+10	1	-1E+10	1	-1E+10	1	-1E+10	1	-1E+10	1	-1E+10	1
4901784	90	C	12/21/2017	10:45	-133.280	43.607	0	474.90	0	4.9770	0	34.1330	4	26.995	0	470.565	0	38.1	4	12.3	4	-1E+10	1	-1E+10	1	-1E+10	1	-1E+10	1	-1E+10	1	-1E+10	1
4901784	90	C	12/21/2017	10:45	-133.280	43.607	0	477.40	0	4.9860	0	34.1340	4	26.995	0	473.040	0	37.9	4	12.2	4	-1E+10	1	-1E+10	1	-1E+10	1	-1E+10	1	-1E+10	1	-1E+10	1
4901784	90	C	12/21/2017	10:45	-133.280	43.607	0	479.80	0	4.9330	0	34.1330	4	27.000	0	475.415	0	37.9	4	12.2	4	-1E+10	1	-1E+10	1	-1E+10	1	-1E+10	1	-1E+10	1	-1E+10	1
4901784	90	C	12/21/2017	10:45	-133.280	43.607	0	482.30	0	4.9230	0	34.1360	4	27.003	0	477.889	0	37.4	4	12.1	4	-1E+10	1	-1E+10	1	-1E+10	1	-1E+10	1	-1E+10	1	-1E+10	1
4901784	90	C	12/21/2017	10:45	-133.280	43.607	0	484.80	0	4.9100	0	34.1370	4	27.006	0	480.364	0	37.3	4	12.0	4	-1E+10	1	-1E+10	1	-1E+10	1	-1E+10	1	-1E+10	1	-1E+10	1
4901784	90	C	12/21/2017	10:45	-133.280	43.607	0	487.30	0	4.8960	0	34.1360	4	27.007	0	482.838	0	37.1	4	12.0	4	-1E+10	1	-1E+10	1	-1E+10	1	-1E+10	1	-1E+10	1	-1E+10	1
4901784	90	C	12/21/2017	10:45	-133.280	43.607	0	489.80	0	4.8740	0	34.1360	4	27.009	0	485.312	0	36.8	4	11.9	4	-1E+10	1	-1E+10	1	-1E+10	1	-1E+10	1	-1E+10	1	-1E+10	1
4901784	90	C	12/21/2017	10:45	-133.280	43.607	0	492.40	0	4.8490	0	34.1370	4	27.013	0	487.885	0	36.2	4	11.6	4	-1E+10	1	-1E+10	1	-1E+10	1	-1E+10	1	-1E+10	1	-1E+10	1
4901784	90	C	12/21/2017	10:45	-133.280	43.607	0	494.90	0	4.8530	0	34.1410	4	27.015	0	490.359	0	35.1	4	11.3	4	-1E+10	1	-1E+10	1	-1E+10	1	-1E+10	1	-1E+10	1	-1E+10	1
4901784	90	C	12/21/2017	10:45	-133.280	43.607	0	497.40	0	4.8640	0	34.1440	4	27.017	0	492.833	0	34.2	4	11.0	4	-1E+10	1	-1E+10	1	-1E+10	1	-1E+10	1	-1E+10	1	-1E+10	1
4901784	90	C	12/21/2017	10:45	-133.280	43.607	0	500.00	0	4.8640	0	34.1460	4	27.018	0	495.406	0	32.9	4	10.6	4	-1E+10	1	-1E+10	1	-1E+10	1	-1E+10	1	-1E+10	1	-1E+10	1
4901784	90	C	12/21/2017	10:45	-133.280	43.607	0	504.20	0	4.9040	0	34.1600	4	27.025	0	499.563	0	30.6	4	9.9	4	-1E+10	1	-1E+10	1	-1E+10	1	-1E+10	1	-1E+10	1	-1E+10	1
4901784	90	C	12/21/2017	10:45	-133.280	43.607	0	509.40	0	4.9260	0	34.1690	4	27.030	0	504.709	0	29.4	4	9.5	4	-1E+10	1	-1E+10	1	-1E+10	1	-1E+10	1	-1E+10	1	-1E+10	1
4901784	90	C	12/21/2017	10:45	-133.280	43.607	0	514.60	0	4.8900	0	34.1730	4	27.037	0	509.854	0	28.8	4	9.3	4	-1E+10	1	-1E+10	1	-1E+10	1	-1E+10	1	-1E+10	1	-1E+10	1
4901784	90	C	12/21/2017	10:45	-133.280	43.607	0	519.80	0	4.8590	0	34.1750	4	27.042	0	515.000	0	28.6	4	9.2	4	-1E+10	1	-1E+10	1	-1E+10	1	-1E+10	1	-1E+10	1	-1E+10	1
4901784	90	C	12/21/2017	10:45	-133.280	43.607	0	524.90	0	4.8360	0	34.1760	4	27.045	0	520.047	0	28.7	4	9.3	4	-1E+10	1	-1E+10	1	-1E+10	1	-1E+10	1	-1E+10	1	-1E+10	1
4901784	90	C	12/21/2017	10:45	-133.280	43.607	0	530.10	0	4.6930	0	34.1720	4	27.058	0	525.192	0	29.0	4	9.3	4	-1E+10	1	-1E+10	1	-1E+10	1	-1E+10	1	-1E+10	1	-1E+10	1
4901784	90	C	12/21/2017	10:45	-133.280	43.607	0	535.50	0	4.6720	0	34.1770	4	27.064	0	530.535	0	26.4	4	8.5	4	-1E+10	1	-1E+10	1	-1E+10	1	-1E+10	1	-1E+10	1	-1E+10	1
4901784	90	C	12/21/2017	10:45	-133.280	43.607	0	540.70	0	4.6910	0	34.1920	4	27.074	0	535.680	0	24.7	4	7.9	4	-1E+10	1	-1E+10	1	-1E+10	1	-1E+10	1	-1E+10	1	-1E+10	1
4901784	90	C	12/21/2017	10:45	-133.280	43.607	0	545.10	0	4.7130	0	34.2010	4	27.079	0	540.033	0	23.3	4	7.5	4	-1E+10	1	-1E+10	1	-1E+10	1	-1E+10	1	-1E+10	1	-1E+10	1
4901784	90	C	12/21/2017	10:45	-133.280	43.607	0	549.50	0	4.7260	0	34.2090	4	27.084	0	544.387	0	22.7	4	7.3	4	-1E+10	1	-1E+10	1	-1E+10	1	-1E+10	1	-1E+10	1	-1E+10	1
4901784	90	C	12/21/2017	10:45	-133.280	43.607	0	554.80	0	4.7050	0	34.2090	4	27.086	0	549.631	0	22.5	4	7.2	4	-1E+10	1	-1E+10	1	-1E+10	1	-1E+10	1	-1E+10	1	-1E+10	1
4901784	90	C	12/21/2017	10:45	-133.280	43.607	0	560.30	0	4.6810	0	34.2110	4	27.091	0	555.072	0	21.8	4	7.0	4	-1E+10	1	-1E+10	1	-1E+10	1	-1E+10	1	-1E+10	1	-1E+10	1
4901784	90	C	12/21/2017	10:45	-133.280	43.607	0	564.90	0	4.6500	0	34.2190	4	27.100	0	559.623	0	21.2	4	6.8	4	-1E+10	1	-1E+10	1	-1E+10	1	-1E+10	1	-1E+10	1	-1E+10	1
4901784	90	C	12/21/2017	10:45	-133.280	43.607	0	569.60	0	4.6340	0	34.2190	4	27.102	0	564.273	0	20.9	4	6.7	4	-1E+10	1	-1E+10	1	-1E+10	1	-1E+10	1	-1E+10	1	-1E+10	1
4901784	90	C	12/21/2017	10:45	-133.280	43.607	0	575.20	0	4.5940	0	34.2260	4	27.112	0	569.813	0	20.2	4	6.5	4	-1E+10	1	-1E+10	1	-1E+10	1	-1E+10	1	-1E+10	1	-1E+10	1
4901784	90	C	12/21/2017	10:45	-133.280	43.607	0	580.50	0	4.5830	0	34.2320	4	27.118	0	575.056	0	19.5	4	6.3	4	-1E+10	1	-1E+10	1	-1E+10	1	-1E+10	1	-1E+10	1	-1E+10	1
4901784	90	C	12/21/2017	10:45	-133.280	43.607	0	585.30	0	4.5680	0	34.2340	4	27.121	0	579.804	0	19.3	4	6.2	4	-1E+10	1	-1E+10	1	-1E+10	1	-1E+10	1	-1E+10	1	-1E+10	1
4901784	90	C	12/21/2017	10:45	-133.280	43.607	0	590.20	0	4.5250	0	34.2350	4	27.127	0	584.651	0	19.1	4	6.1	4	-1E+10	1	-1E+10	1	-1E+10	1	-1E+10	1	-1E+10	1	-1E+10	1
4901784	90	C	12/21/2017	10:45	-133.280	43.607	0	595.10	0	4.4930	0	34.2380	4	27.133	0	589.498	0	18.8	4	6.0	4	-1E+10	1	-1E+10	1	-1E+10	1	-1E+10	1	-1E+10	1	-1E+10	1
4901784	90	C	12/21/2017	10:45	-133.280	43.607	0	599.90	0	4.4700	0	34.2420	4	27.139	0	594.246	0	18.3	4	5.9	4	-1E+10	1	-1E+10	1	-1E+10	1	-1E+10	1	-1E+10	1	-1E+10	1
4901784	90	C	12/21/2017	10:45	-133.280	43.607	0	604.80	0	4.4530	0	34.2470	4	27.144	0	599.093	0	17.9	4	5.7	4	-1E+10	1	-1E+10	1	-1E+10	1	-1E+10	1	-1E+10	1	-1E+10	1
4901784	90	C	12/21/2017	10:45	-133.280	43.607	0	609.80	0	4.4490	0	34.2500	4	27.147	0	604.038	0	17.2	4	5.5	4	-1E+10	1	-1E+10	1	-1E+10	1	-1E+10	1	-1E+10	1	-1E+10	1
4901784	90	C	12/21/2017	10:45	-133.280	43.607	0	614.70	0	4.4470	0	34.2560	4	27.152	0	608.885	0	16.2	4	5.2	4	-1E+10	1	-1E+10	1	-1E+10	1	-1E+10	1	-1E+10	1	-1E+10	1
4901784	90	C	12/21/2017	10:45	-133.280	43.607	0	619.90	0	4.4560	0	34.2690	4	27.162	0	614.028	0	15.2	4	4.8	4	-1E+10	1	-1E+10	1	-1E+10	1	-1E+10	1	-1E+10	1	-1E+10	1
4901784	90	C	12/21/2017	10:45	-133.280	43.607	0	625.10	0	4.4550	0	34.2770	4	27.168	0	619.171	0	14.6	4	4.7	4	-1E+10	1	-1E+10	1	-1E+10	1	-1E+10	1	-1E+10	1	-1E+10	1
4901784	90	C	12/21/2017	10:45	-133.280	43.607	0	630.30	0	4.4410	0	34.2820	4	27.174	0	624.314	0	14.4	4	4.6	4	-1E+10	1	-1E+10	1	-1E+10	1	-1E+10	1	-1E+10	1	-1E+10	1
4901784	90	C	12/21/2017	10:45	-133.280	43.607	0	635.40	0	4.4190	0	34.2820	4	27.176	0	629.358	0	14.3	4	4.6	4	-1E+10	1	-1E+10	1	-1E+10	1	-1E+10	1	-1E+10	1	-1E+10	1
4901784	90	C	12/21/2017	10:45	-133.280	43.607	0	640.50	0	4.3860	0	34.2880	4	27.184	0	634.401	0	14.1	4	4.5	4	-1E+10	1	-1E+10	1	-1E+10	1	-1E+10	1	-1E+10	1	-1E+10	1
4901784	90	C	12/21/2017	10:45	-133.280	43.607	0	645.70	0	4.3680	0	34.2900	4	27.188	0	639.544	0	13.9	4	4.4	4	-1E+10	1	-1E+10	1	-1E+10	1	-1E+10	1	-1E+10	1	-1E+10	1
4901784	90	C	12/21/2017	10:45	-133.280	43.607	0	650.00	0	4.3460	0	34.2940	4	27.194	0	643.796	0	13.7	4	4.4	4	-1E+10	1	-1E+10	1	-1E+10	1	-1E+10	1	-1E+10	1	-1E+10	1
4901784	90	C	12/21/2017	10:45	-133.280	43.607	0	654.30	0	4.3390	0	34.2970	4	27.197	0	648.049	0	13.4	4	4.3	4	-1E+10	1	-1E+10	1	-1E+10	1	-1E+10	1	-1E+10	1	-1E+10	1
4901784	90	C	12/21/2017	10:45	-133.280	43.607	0	659.50	0	4.3280	0	34.3030	4	27.203	0	653.191	0	13.1	4	4.2	4	-1E+10	1	-1E+10	1	-1E+10	1	-1E+10	1	-1E+10	1	-1E+10	1
4901784	90	C	12/21/2017	10:45	-133.280	43.607	0	664.80	0	4.3170	0	34.3070	4	27.207	0	658.432	0	12.7	4	4.1	4	-1E+10	1	-1E+10	1	-1E+10	1	-1E+10	1	-1E+10	1	-1E+10	1
4901784	90	C	12/21/2017	10:45	-133.280	43.607	0	670.20	0	4.3070	0	34.3130	4	27.213	0	663.771	0	12.5	4	4.0	4	-1E+10	1	-1E+10	1	-1E+10	1	-1E+10	1	-1E+10	1	-1E+10	1
4901784	90	C	12/21/2017	10:45	-133.280	43.607	0	675.60	0	4.2920	0	34.3180	4	27.219	0	669.111	0	12.2	4	3.9	4	-1E+10	1	-1E+10	1	-1E+10	1	-1E+10	1	-1E+10	1	-1E+10	1
4901784	90	C	12/21/2017	10:45	-133.280	43.607	0	680.10	0	4.2750	0	34.3250	4	27.226	0	673.560	0	11.9	4	3.8	4	-1E+10	1	-1E+10	1	-1E+10	1	-1E+10	1	-1E+10	1	-1E+10	1
4901784	90	C	12/21/2017	10:45	-133.280	43.607	0	684.60	0	4.2650	0	34.3280	4	27.229	0	678.010	0	11.8	4	3.8	4	-1E+10	1	-1E+10	1	-1E+10	1	-1E+10	1	-1E+10	1	-1E+10	1
4901784	90	C	12/21/2017	10:45	-133.280	43.607	0	690.20	0	4.2540	0	34.3300	4	27.232	0	683.547	0	11.6	4	3.7	4	-1E+10	1	-1E+10	1	-1E+10	1	-1E+10	1	-1E+10	1	-1E+10	1
4901784	90	C	12/21/2017	10:45	-133.280	43.607	0	694.80	0	4.2490	0	34.3330	4	27.235	0	688.095	0	11.5	4	3.6	4	-1E+10	1	-1E+10	1	-1E+10	1	-1E+10	1	-1E+10	1	-1E+10	1
4901784	90	C	12/21/2017	10:45	-133.280	43.607	0	699.40	0	4.2350	0	34.3390	4	27.241	0	692.643	0	11.3	4	3.6	4	-1E+10	1	-1E+10	1	-1E+10	1	-1E+10	1	-1E+10	1	-1E+10	1
4901784	90	C	12/21/2017	10:45	-133.280	43.607	0	705.00	0	4.2280	0	34.3420	4	27.245	0	698.179	0	11.2	4	3.6	4	-1E+10	1	-1E+10	1	-1E+10	1	-1E+10	1	-1E+10	1	-1E+10	1
4901784	90	C	12/21/2017	10:45	-133.280	43.607	0	709.90	0	4.2210	0	34.3450	4	27.248	0	703.024	0	11.1	4	3.5	4	-1E+10	1	-1E+10	1	-1E+10	1	-1E+10	1	-1E+10	1	-1E+10	1
4901784	90	C	12/21/2017	10:45	-133.280	43.607	0	715.00	0	4.2120	0	34.3490	4	27.252	0	708.066	0	11.0	4	3.5	4	-1E+10	1	-1E+10	1	-1E+10	1	-1E+10	1	-1E+10	1	-1E+10	1
4901784	90	C	12/21/2017	10:45	-133.280	43.607	0	720.40	0	4.2090	0	34.3500	4	27.253	0	713.404	0	10.9	4	3.5	4	-1E+10	1	-1E+10	1	-1E+10	1	-1E+10	1	-1E+10	1	-1E+10	1
4901784	90	C	12/21/2017	10:45	-133.280	43.607	0	725.30	0	4.2030	0	34.3530	4	27.256	0	718.248	0	10.8	4	3.4	4	-1E+10	1	-1E+10	1	-1E+10	1	-1E+10	1	-1E+10	1	-1E+10	1
4901784	90	C	12/21/2017	10:45	-133.280	43.607	0	730.20	0	4.1970	0	34.3550	4	27.258	0	723.092	0	10.7	4	3.4	4	-1E+10	1	-1E+10	1	-1E+10	1	-1E+10	1	-1E+10	1	-1E+10	1
4901784	90	C	12/21/2017	10:45	-133.280	43.607	0	735.00	0	4.1850	0	34.3620	4	27.265	0	727.837	0	10.6	4	3.4	4	-1E+10	1	-1E+10	1	-1E+10	1	-1E+10	1	-1E+10	1	-1E+10	1
4901784	90	C	12/21/2017	10:45	-133.280	43.607	0	740.00	0	4.1840	0	34.3640	4	27.267	0	732.779	0	10.6	4	3.4	4	-1E+10	1	-1E+10	1	-1E+10	1	-1E+10	1	-1E+10	1	-1E+10	1
4901784	90	C	12/21/2017	10:45	-133.280	43.607	0	744.90	0	4.1790	0	34.3670	4	27.270	0	737.623	0	10.5	4	3.3	4	-1E+10	1	-1E+10	1	-1E+10	1	-1E+10	1	-1E+10	1	-1E+10	1
4901784	90	C	12/21/2017	10:45	-133.280	43.607	0	749.90	0	4.1740	0	34.3690	4	27.272	0	742.565	0	10.5	4	3.3	4	-1E+10	1	-1E+10	1	-1E+10	1	-1E+10	1	-1E+10	1	-1E+10	1
4901784	90	C	12/21/2017	10:45	-133.280	43.607	0	755.10	0	4.1630	0	34.3720	4	27.276	0	747.705	0	10.4	4	3.3	4	-1E+10	1	-1E+10	1	-1E+10	1	-1E+10	1	-1E+10	1	-1E+10	1
4901784	90	C	12/21/2017	10:45	-133.280	43.607	0	760.20	0	4.1470	0	34.3740	4	27.279	0	752.746	0	10.4	4	3.3	4	-1E+10	1	-1E+10	1	-1E+10	1	-1E+10	1	-1E+10	1	-1E+10	1
4901784	90	C	12/21/2017	10:45	-133.280	43.607	0	765.30	0	4.1300	0	34.3740	4	27.281	0	757.786	0	10.4	4	3.3	4	-1E+10	1	-1E+10	1	-1E+10	1	-1E+10	1	-1E+10	1	-1E+10	1
4901784	90	C	12/21/2017	10:45	-133.280	43.607	0	770.60	0	4.1110	0	34.3760	4	27.284	0	763.025	0	10.4	4	3.3	4	-1E+10	1	-1E+10	1	-1E+10	1	-1E+10	1	-1E+10	1	-1E+10	1
4901784	90	C	12/21/2017	10:45	-133.280	43.607	0	774.90	0	4.0970	0	34.3770	4	27.287	0	767.275	0	10.5	4	3.3	4	-1E+10	1	-1E+10	1	-1E+10	1	-1E+10	1	-1E+10	1	-1E+10	1
4901784	90	C	12/21/2017	10:45	-133.280	43.607	0	779.30	0	4.0860	0	34.3770	4	27.288	0	771.623	0	10.5	4	3.3	4	-1E+10	1	-1E+10	1	-1E+10	1	-1E+10	1	-1E+10	1	-1E+10	1
4901784	90	C	12/21/2017	10:45	-133.280	43.607	0	784.80	0	4.0520	0	34.3770	4	27.291	0	777.059	0	10.6	4	3.4	4	-1E+10	1	-1E+10	1	-1E+10	1	-1E+10	1	-1E+10	1	-1E+10	1
4901784	90	C	12/21/2017	10:45	-133.280	43.607	0	790.30	0	4.0160	0	34.3760	4	27.294	0	782.494	0	10.6	4	3.4	4	-1E+10	1	-1E+10	1	-1E+10	1	-1E+10	1	-1E+10	1	-1E+10	1
4901784	90	C	12/21/2017	10:45	-133.280	43.607	0	794.90	0	4.0040	0	34.3770	4	27.296	0	787.040	0	10.6	4	3.4	4	-1E+10	1	-1E+10	1	-1E+10	1	-1E+10	1	-1E+10	1	-1E+10	1
4901784	90	C	12/21/2017	10:45	-133.280	43.607	0	799.40	0	3.9840	0	34.3800	4	27.301	0	791.487	0	10.6	4	3.4	4	-1E+10	1	-1E+10	1	-1E+10	1	-1E+10	1	-1E+10	1	-1E+10	1
4901784	90	C	12/21/2017	10:45	-133.280	43.607	0	804.90	0	3.9620	0	34.3830	4	27.305	0	796.922	0	10.6	4	3.3	4	-1E+10	1	-1E+10	1	-1E+10	1	-1E+10	1	-1E+10	1	-1E+10	1
4901784	90	C	12/21/2017	10:45	-133.280	43.607	0	809.60	0	3.9540	0	34.3880	4	27.310	0	801.566	0	10.6	4	3.3	4	-1E+10	1	-1E+10	1	-1E+10	1	-1E+10	1	-1E+10	1	-1E+10	1
4901784	90	C	12/21/2017	10:45	-133.280	43.607	0	814.20	0	3.9240	0	34.3870	4	27.313	0	806.112	0	10.6	4	3.4	4	-1E+10	1	-1E+10	1	-1E+10	1	-1E+10	1	-1E+10	1	-1E+10	1
4901784	90	C	12/21/2017	10:45	-133.280	43.607	0	819.60	0	3.8910	0	34.3880	4	27.317	0	811.448	0	10.7	4	3.4	4	-1E+10	1	-1E+10	1	-1E+10	1	-1E+10	1	-1E+10	1	-1E+10	1
4901784	90	C	12/21/2017	10:45	-133.280	43.607	0	824.40	0	3.8820	0	34.3910	4	27.320	0	816.191	0	10.7	4	3.4	4	-1E+10	1	-1E+10	1	-1E+10	1	-1E+10	1	-1E+10	1	-1E+10	1
4901784	90	C	12/21/2017	10:45	-133.280	43.607	0	830.00	0	3.8420	0	34.3920	4	27.325	0	821.724	0	10.7	4	3.4	4	-1E+10	1	-1E+10	1	-1E+10	1	-1E+10	1	-1E+10	1	-1E+10	1
4901784	90	C	12/21/2017	10:45	-133.280	43.607	0	835.80	0	3.7980	0	34.3920	4	27.329	0	827.455	0	10.8	4	3.4	4	-1E+10	1	-1E+10	1	-1E+10	1	-1E+10	1	-1E+10	1	-1E+10	1
4901784	90	C	12/21/2017	10:45	-133.280	43.607	0	840.70	0	3.7610	0	34.3930	4	27.334	0	832.296	0	10.8	4	3.4	4	-1E+10	1	-1E+10	1	-1E+10	1	-1E+10	1	-1E+10	1	-1E+10	1
4901784	90	C	12/21/2017	10:45	-133.280	43.607	0	845.70	0	3.7750	0	34.3980	4	27.336	0	837.236	0	10.8	4	3.4	4	-1E+10	1	-1E+10	1	-1E+10	1	-1E+10	1	-1E+10	1	-1E+10	1
4901784	90	C	12/21/2017	10:45	-133.280	43.607	0	850.00	0	3.7620	0	34.3990	4	27.339	0	841.484	0	10.8	4	3.4	4	-1E+10	1	-1E+10	1	-1E+10	1	-1E+10	1	-1E+10	1	-1E+10	1
4901784	90	C	12/21/2017	10:45	-133.280	43.607	0	854.30	0	3.7550	0	34.3990	4	27.339	0	845.733	0	10.8	4	3.4	4	-1E+10	1	-1E+10	1	-1E+10	1	-1E+10	1	-1E+10	1	-1E+10	1
4901784	90	C	12/21/2017	10:45	-133.280	43.607	0	859.30	0	3.7340	0	34.3980	4	27.341	0	850.672	0	10.9	4	3.4	4	-1E+10	1	-1E+10	1	-1E+10	1	-1E+10	1	-1E+10	1	-1E+10	1
4901784	90	C	12/21/2017	10:45	-133.280	43.607	0	864.40	0	3.7180	0	34.3990	4	27.343	0	855.711	0	10.9	4	3.4	4	-1E+10	1	-1E+10	1	-1E+10	1	-1E+10	1	-1E+10	1	-1E+10	1
4901784	90	C	12/21/2017	10:45	-133.280	43.607	0	869.50	0	3.7040	0	34.4000	4	27.345	0	860.749	0	10.9	4	3.4	4	-1E+10	1	-1E+10	1	-1E+10	1	-1E+10	1	-1E+10	1	-1E+10	1
4901784	90	C	12/21/2017	10:45	-133.280	43.607	0	874.70	0	3.6890	0	34.3990	4	27.346	0	865.886	0	11.0	4	3.4	4	-1E+10	1	-1E+10	1	-1E+10	1	-1E+10	1	-1E+10	1	-1E+10	1
4901784	90	C	12/21/2017	10:45	-133.280	43.607	0	879.90	0	3.6680	0	34.3990	4	27.348	0	871.023	0	11.0	4	3.4	4	-1E+10	1	-1E+10	1	-1E+10	1	-1E+10	1	-1E+10	1	-1E+10	1
4901784	90	C	12/21/2017	10:45	-133.280	43.607	0	885.10	0	3.6600	0	34.4010	4	27.350	0	876.159	0	11.0	4	3.4	4	-1E+10	1	-1E+10	1	-1E+10	1	-1E+10	1	-1E+10	1	-1E+10	1
4901784	90	C	12/21/2017	10:45	-133.280	43.607	0	890.30	0	3.6420	0	34.4030	4	27.354	0	881.296	0	11.0	4	3.4	4	-1E+10	1	-1E+10	1	-1E+10	1	-1E+10	1	-1E+10	1	-1E+10	1
4901784	90	C	12/21/2017	10:45	-133.280	43.607	0	895.50	0	3.6310	0	34.4060	4	27.357	0	886.432	0	11.0	4	3.4	4	-1E+10	1	-1E+10	1	-1E+10	1	-1E+10	1	-1E+10	1	-1E+10	1
4901784	90	C	12/21/2017	10:45	-133.280	43.607	0	899.90	0	3.6250	0	34.4080	4	27.360	0	890.778	0	11.0	4	3.4	4	-1E+10	1	-1E+10	1	-1E+10	1	-1E+10	1	-1E+10	1	-1E+10	1
4901784	90	C	12/21/2017	10:45	-133.280	43.607	0	904.30	0	3.6310	0	34.4100	4	27.361	0	895.124	0	11.0	4	3.4	4	-1E+10	1	-1E+10	1	-1E+10	1	-1E+10	1	-1E+10	1	-1E+10	1
4901784	90	C	12/21/2017	10:45	-133.280	43.607	0	909.50	0	3.6310	0	34.4150	4	27.365	0	900.260	0	10.9	4	3.4	4	-1E+10	1	-1E+10	1	-1E+10	1	-1E+10	1	-1E+10	1	-1E+10	1
4901784	90	C	12/21/2017	10:45	-133.280	43.607	0	914.70	0	3.6430	0	34.4220	4	27.369	0	905.396	0	10.9	4	3.4	4	-1E+10	1	-1E+10	1	-1E+10	1	-1E+10	1	-1E+10	1	-1E+10	1
4901784	90	C	12/21/2017	10:45	-133.280	43.607	0	919.90	0	3.6310	0	34.4220	4	27.370	0	910.532	0	11.0	4	3.4	4	-1E+10	1	-1E+10	1	-1E+10	1	-1E+10	1	-1E+10	1	-1E+10	1
4901784	90	C	12/21/2017	10:45	-133.280	43.607	0	925.20	0	3.6050	0	34.4190	4	27.370	0	915.766	0	11.1	4	3.5	4	-1E+10	1	-1E+10	1	-1E+10	1	-1E+10	1	-1E+10	1	-1E+10	1
4901784	90	C	12/21/2017	10:45	-133.280	43.607	0	930.40	0	3.5680	0	34.4190	4	27.374	0	920.902	0	11.1	4	3.5	4	-1E+10	1	-1E+10	1	-1E+10	1	-1E+10	1	-1E+10	1	-1E+10	1
4901784	90	C	12/21/2017	10:45	-133.280	43.607	0	935.60	0	3.5600	0	34.4200	4	27.376	0	926.037	0	11.1	4	3.5	4	-1E+10	1	-1E+10	1	-1E+10	1	-1E+10	1	-1E+10	1	-1E+10	1
4901784	90	C	12/21/2017	10:45	-133.280	43.607	0	940.70	0	3.5540	0	34.4220	4	27.378	0	931.074	0	11.1	4	3.5	4	-1E+10	1	-1E+10	1	-1E+10	1	-1E+10	1	-1E+10	1	-1E+10	1
4901784	90	C	12/21/2017	10:45	-133.280	43.607	0	945.80	0	3.5440	0	34.4250	4	27.381	0	936.110	0	11.2	4	3.5	4	-1E+10	1	-1E+10	1	-1E+10	1	-1E+10	1	-1E+10	1	-1E+10	1
4901784	90	C	12/21/2017	10:45	-133.280	43.607	0	950.10	0	3.5370	0	34.4280	4	27.384	0	940.357	0	11.2	4	3.5	4	-1E+10	1	-1E+10	1	-1E+10	1	-1E+10	1	-1E+10	1	-1E+10	1
4901784	90	C	12/21/2017	10:45	-133.280	43.607	0	954.30	0	3.5290	0	34.4310	4	27.388	0	944.504	0	11.2	4	3.5	4	-1E+10	1	-1E+10	1	-1E+10	1	-1E+10	1	-1E+10	1	-1E+10	1
4901784	90	C	12/21/2017	10:45	-133.280	43.607	0	959.30	0	3.5930	0	34.4440	4	27.392	0	949.441	0	11.2	4	3.5	4	-1E+10	1	-1E+10	1	-1E+10	1	-1E+10	1	-1E+10	1	-1E+10	1
4901784	90	C	12/21/2017	10:45	-133.280	43.607	0	964.40	0	3.5350	0	34.4460	4	27.399	0	954.477	0	11.2	4	3.5	4	-1E+10	1	-1E+10	1	-1E+10	1	-1E+10	1	-1E+10	1	-1E+10	1
4901784	90	C	12/21/2017	10:45	-133.280	43.607	0	969.40	0	3.5370	0	34.4480	4	27.401	0	959.415	0	11.3	4	3.5	4	-1E+10	1	-1E+10	1	-1E+10	1	-1E+10	1	-1E+10	1	-1E+10	1
4901784	90	C	12/21/2017	10:45	-133.280	43.607	0	974.50	0	3.4830	0	34.4470	4	27.405	0	964.450	0	11.3	4	3.5	4	-1E+10	1	-1E+10	1	-1E+10	1	-1E+10	1	-1E+10	1	-1E+10	1
4901784	90	C	12/21/2017	10:45	-133.280	43.607	0	979.70	0	3.4580	0	34.4480	4	27.408	0	969.585	0	11.4	4	3.6	4	-1E+10	1	-1E+10	1	-1E+10	1	-1E+10	1	-1E+10	1	-1E+10	1
4901784	90	C	12/21/2017	10:45	-133.280	43.607	0	984.90	0	3.4520	0	34.4480	4	27.409	0	974.719	0	11.5	4	3.6	4	-1E+10	1	-1E+10	1	-1E+10	1	-1E+10	1	-1E+10	1	-1E+10	1
4901784	90	C	12/21/2017	10:45	-133.280	43.607	0	990.00	0	3.4500	0	34.4480	4	27.409	0	979.754	0	11.5	4	3.6	4	-1E+10	1	-1E+10	1	-1E+10	1	-1E+10	1	-1E+10	1	-1E+10	1
4901784	90	C	12/21/2017	10:45	-133.280	43.607	0	994.90	0	3.4430	0	34.4490	4	27.410	0	984.592	0	11.6	4	3.6	4	-1E+10	1	-1E+10	1	-1E+10	1	-1E+10	1	-1E+10	1	-1E+10	1
4901784	90	C	12/21/2017	10:45	-133.280	43.607	0	999.80	0	3.4290	0	34.4520	4	27.414	0	989.430	0	11.6	4	3.6	4	-1E+10	1	-1E+10	1	-1E+10	1	-1E+10	1	-1E+10	1	-1E+10	1
4901784	90	C	12/21/2017	10:45	-133.280	43.607	0	1004.80	0	3.4240	0	34.4530	4	27.416	0	994.366	0	11.7	4	3.6	4	-1E+10	1	-1E+10	1	-1E+10	1	-1E+10	1	-1E+10	1	-1E+10	1
4901784	90	C	12/21/2017	10:45	-133.280	43.607	0	1009.80	0	3.4130	0	34.4560	4	27.419	0	999.302	0	11.7	4	3.7	4	-1E+10	1	-1E+10	1	-1E+10	1	-1E+10	1	-1E+10	1	-1E+10	1
4901784	90	C	12/21/2017	10:45	-133.280	43.607	0	1014.90	0	3.4040	0	34.4580	4	27.422	0	1004.337	0	11.8	4	3.7	4	-1E+10	1	-1E+10	1	-1E+10	1	-1E+10	1	-1E+10	1	-1E+10	1
4901784	90	C	12/21/2017	10:45	-133.280	43.607	0	1020.00	0	3.3980	0	34.4590	4	27.423	0	1009.371	0	11.9	4	3.7	4	-1E+10	1	-1E+10	1	-1E+10	1	-1E+10	1	-1E+10	1	-1E+10	1
4901784	90	C	12/21/2017	10:45	-133.280	43.607	0	1025.00	0	3.3870	0	34.4620	4	27.426	0	1014.307	0	12.0	4	3.7	4	-1E+10	1	-1E+10	1	-1E+10	1	-1E+10	1	-1E+10	1	-1E+10	1
4901784	90	C	12/21/2017	10:45	-133.280	43.607	0	1030.00	0	3.3780	0	34.4640	4	27.429	0	1019.243	0	12.1	4	3.8	4	-1E+10	1	-1E+10	1	-1E+10	1	-1E+10	1	-1E+10	1	-1E+10	1
4901784	90	C	12/21/2017	10:45	-133.280	43.607	0	1035.10	0	3.3660	0	34.4670	4	27.432	0	1024.277	0	12.2	4	3.8	4	-1E+10	1	-1E+10	1	-1E+10	1	-1E+10	1	-1E+10	1	-1E+10	1
4901784	90	C	12/21/2017	10:45	-133.280	43.607	0	1040.10	0	3.3590	0	34.4690	4	27.435	0	1029.213	0	12.3	4	3.8	4	-1E+10	1	-1E+10	1	-1E+10	1	-1E+10	1	-1E+10	1	-1E+10	1
4901784	90	C	12/21/2017	10:45	-133.280	43.607	0	1045.20	0	3.3460	0	34.4730	4	27.439	0	1034.247	0	12.4	4	3.9	4	-1E+10	1	-1E+10	1	-1E+10	1	-1E+10	1	-1E+10	1	-1E+10	1
4901784	90	C	12/21/2017	10:45	-133.280	43.607	0	1050.30	0	3.3380	0	34.4750	4	27.442	0	1039.281	0	12.5	4	3.9	4	-1E+10	1	-1E+10	1	-1E+10	1	-1E+10	1	-1E+10	1	-1E+10	1
4901784	90	C	12/21/2017	10:45	-133.280	43.607	0	1055.40	0	3.3330	0	34.4750	4	27.442	0	1044.314	0	12.7	4	3.9	4	-1E+10	1	-1E+10	1	-1E+10	1	-1E+10	1	-1E+10	1	-1E+10	1
4901784	90	C	12/21/2017	10:45	-133.280	43.607	0	1060.50	0	3.3200	0	34.4800	4	27.447	0	1049.348	0	12.9	4	4.0	4	-1E+10	1	-1E+10	1	-1E+10	1	-1E+10	1	-1E+10	1	-1E+10	1
4901784	90	C	12/21/2017	10:45	-133.280	43.607	0	1065.60	0	3.3130	0	34.4820	4	27.450	0	1054.382	0	13.1	4	4.1	4	-1E+10	1	-1E+10	1	-1E+10	1	-1E+10	1	-1E+10	1	-1E+10	1
4901784	90	C	12/21/2017	10:45	-133.280	43.607	0	1070.60	0	3.3030	0	34.4860	4	27.454	0	1059.316	0	13.4	4	4.2	4	-1E+10	1	-1E+10	1	-1E+10	1	-1E+10	1	-1E+10	1	-1E+10	1
4901784	90	C	12/21/2017	10:45	-133.280	43.607	0	1075.70	0	3.2880	0	34.4880	4	27.457	0	1064.350	0	13.6	4	4.2	4	-1E+10	1	-1E+10	1	-1E+10	1	-1E+10	1	-1E+10	1	-1E+10	1
4901784	90	C	12/21/2017	10:45	-133.280	43.607	0	1080.00	0	3.2760	0	34.4910	4	27.460	0	1068.593	0	13.7	4	4.3	4	-1E+10	1	-1E+10	1	-1E+10	1	-1E+10	1	-1E+10	1	-1E+10	1
4901784	90	C	12/21/2017	10:45	-133.280	43.607	0	1084.30	0	3.2660	0	34.4940	4	27.464	0	1072.837	0	13.8	4	4.3	4	-1E+10	1	-1E+10	1	-1E+10	1	-1E+10	1	-1E+10	1	-1E+10	1
4901784	90	C	12/21/2017	10:45	-133.280	43.607	0	1089.40	0	3.2600	0	34.4950	4	27.465	0	1077.870	0	13.9	4	4.3	4	-1E+10	1	-1E+10	1	-1E+10	1	-1E+10	1	-1E+10	1	-1E+10	1
4901784	90	C	12/21/2017	10:45	-133.280	43.607	0	1094.70	0	3.2530	0	34.4960	4	27.467	0	1083.100	0	14.1	4	4.4	4	-1E+10	1	-1E+10	1	-1E+10	1	-1E+10	1	-1E+10	1	-1E+10	1
4901784	90	C	12/21/2017	10:45	-133.280	43.607	0	1099.90	0	3.2460	0	34.4980	4	27.469	0	1088.232	0	14.2	4	4.4	4	-1E+10	1	-1E+10	1	-1E+10	1	-1E+10	1	-1E+10	1	-1E+10	1
4901784	90	C	12/21/2017	10:45	-133.280	43.607	0	1105.20	0	3.2390	0	34.5000	4	27.471	0	1093.462	0	14.3	4	4.5	4	-1E+10	1	-1E+10	1	-1E+10	1	-1E+10	1	-1E+10	1	-1E+10	1
4901784	90	C	12/21/2017	10:45	-133.280	43.607	0	1109.90	0	3.2310	0	34.5010	4	27.473	0	1098.100	0	14.5	4	4.5	4	-1E+10	1	-1E+10	1	-1E+10	1	-1E+10	1	-1E+10	1	-1E+10	1
4901784	90	C	12/21/2017	10:45	-133.280	43.607	0	1114.80	0	3.2200	0	34.5030	4	27.475	0	1102.935	0	14.6	4	4.5	4	-1E+10	1	-1E+10	1	-1E+10	1	-1E+10	1	-1E+10	1	-1E+10	1
4901784	90	C	12/21/2017	10:45	-133.280	43.607	0	1120.30	0	3.2020	0	34.5060	4	27.479	0	1108.362	0	14.6	4	4.5	4	-1E+10	1	-1E+10	1	-1E+10	1	-1E+10	1	-1E+10	1	-1E+10	1
4901784	90	C	12/21/2017	10:45	-133.280	43.607	0	1125.30	0	3.1930	0	34.5060	4	27.480	0	1113.295	0	14.7	4	4.6	4	-1E+10	1	-1E+10	1	-1E+10	1	-1E+10	1	-1E+10	1	-1E+10	1
4901784	90	C	12/21/2017	10:45	-133.280	43.607	0	1130.50	0	3.1780	0	34.5080	4	27.483	0	1118.426	0	14.8	4	4.6	4	-1E+10	1	-1E+10	1	-1E+10	1	-1E+10	1	-1E+10	1	-1E+10	1
4901784	90	C	12/21/2017	10:45	-133.280	43.607	0	1135.70	0	3.1680	0	34.5100	4	27.486	0	1123.556	0	14.9	4	4.6	4	-1E+10	1	-1E+10	1	-1E+10	1	-1E+10	1	-1E+10	1	-1E+10	1
4901784	90	C	12/21/2017	10:45	-133.280	43.607	0	1140.20	0	3.1580	0	34.5110	4	27.488	0	1127.996	0	15.0	4	4.7	4	-1E+10	1	-1E+10	1	-1E+10	1	-1E+10	1	-1E+10	1	-1E+10	1
4901784	90	C	12/21/2017	10:45	-133.280	43.607	0	1144.60	0	3.1470	0	34.5120	4	27.489	0	1132.337	0	15.1	4	4.7	4	-1E+10	1	-1E+10	1	-1E+10	1	-1E+10	1	-1E+10	1	-1E+10	1
4901784	90	C	12/21/2017	10:45	-133.280	43.607	0	1150.10	0	3.1310	0	34.5140	4	27.493	0	1137.763	0	15.3	4	4.7	4	-1E+10	1	-1E+10	1	-1E+10	1	-1E+10	1	-1E+10	1	-1E+10	1
4901784	90	C	12/21/2017	10:45	-133.280	43.607	0	1154.90	0	3.1170	0	34.5170	4	27.496	0	1142.499	0	15.4	4	4.8	4	-1E+10	1	-1E+10	1	-1E+10	1	-1E+10	1	-1E+10	1	-1E+10	1
4901784	90	C	12/21/2017	10:45	-133.280	43.607	0	1159.50	0	3.1060	0	34.5180	4	27.498	0	1147.037	0	15.6	4	4.8	4	-1E+10	1	-1E+10	1	-1E+10	1	-1E+10	1	-1E+10	1	-1E+10	1
4901784	90	C	12/21/2017	10:45	-133.280	43.607	0	1165.00	0	3.0880	0	34.5200	4	27.501	0	1152.463	0	15.8	4	4.9	4	-1E+10	1	-1E+10	1	-1E+10	1	-1E+10	1	-1E+10	1	-1E+10	1
4901784	90	C	12/21/2017	10:45	-133.280	43.607	0	1170.60	0	3.0800	0	34.5230	4	27.505	0	1157.987	0	16.0	4	5.0	4	-1E+10	1	-1E+10	1	-1E+10	1	-1E+10	1	-1E+10	1	-1E+10	1
4901784	90	C	12/21/2017	10:45	-133.280	43.607	0	1175.50	0	3.0740	0	34.5240	4	27.506	0	1162.821	0	16.2	4	5.0	4	-1E+10	1	-1E+10	1	-1E+10	1	-1E+10	1	-1E+10	1	-1E+10	1
4901784	90	C	12/21/2017	10:45	-133.280	43.607	0	1180.60	0	3.0660	0	34.5240	4	27.507	0	1167.851	0	16.3	4	5.0	4	-1E+10	1	-1E+10	1	-1E+10	1	-1E+10	1	-1E+10	1	-1E+10	1
4901784	90	C	12/21/2017	10:45	-133.280	43.607	0	1185.60	0	3.0560	0	34.5260	4	27.509	0	1172.783	0	16.3	4	5.1	4	-1E+10	1	-1E+10	1	-1E+10	1	-1E+10	1	-1E+10	1	-1E+10	1
4901784	90	C	12/21/2017	10:45	-133.280	43.607	0	1190.70	0	3.0420	0	34.5280	4	27.512	0	1177.814	0	16.5	4	5.1	4	-1E+10	1	-1E+10	1	-1E+10	1	-1E+10	1	-1E+10	1	-1E+10	1
4901784	90	C	12/21/2017	10:45	-133.280	43.607	0	1195.00	0	3.0380	0	34.5280	4	27.513	0	1182.055	0	16.5	4	5.1	4	-1E+10	1	-1E+10	1	-1E+10	1	-1E+10	1	-1E+10	1	-1E+10	1
4901784	90	C	12/21/2017	10:45	-133.280	43.607	0	1199.40	0	3.0340	0	34.5290	4	27.514	0	1186.395	0	16.6	4	5.1	4	-1E+10	1	-1E+10	1	-1E+10	1	-1E+10	1	-1E+10	1	-1E+10	1
4901784	90	C	12/21/2017	10:45	-133.280	43.607	0	1204.70	0	3.0200	0	34.5300	4	27.516	0	1191.623	0	16.7	4	5.2	4	-1E+10	1	-1E+10	1	-1E+10	1	-1E+10	1	-1E+10	1	-1E+10	1
4901784	90	C	12/21/2017	10:45	-133.280	43.607	0	1209.90	0	3.0060	0	34.5320	4	27.519	0	1196.752	0	16.9	4	5.2	4	-1E+10	1	-1E+10	1	-1E+10	1	-1E+10	1	-1E+10	1	-1E+10	1
4901784	90	C	12/21/2017	10:45	-133.280	43.607	0	1215.30	0	2.9960	0	34.5330	4	27.520	0	1202.078	0	17.0	4	5.3	4	-1E+10	1	-1E+10	1	-1E+10	1	-1E+10	1	-1E+10	1	-1E+10	1
4901784	90	C	12/21/2017	10:45	-133.280	43.607	0	1220.70	0	2.9860	0	34.5350	4	27.523	0	1207.403	0	17.2	4	5.3	4	-1E+10	1	-1E+10	1	-1E+10	1	-1E+10	1	-1E+10	1	-1E+10	1
4901784	90	C	12/21/2017	10:45	-133.280	43.607	0	1225.20	0	2.9780	0	34.5350	4	27.524	0	1211.841	0	17.4	4	5.4	4	-1E+10	1	-1E+10	1	-1E+10	1	-1E+10	1	-1E+10	1	-1E+10	1
4901784	90	C	12/21/2017	10:45	-133.280	43.607	0	1229.70	0	2.9690	0	34.5370	4	27.526	0	1216.279	0	17.6	4	5.4	4	-1E+10	1	-1E+10	1	-1E+10	1	-1E+10	1	-1E+10	1	-1E+10	1
4901784	90	C	12/21/2017	10:45	-133.280	43.607	0	1235.20	0	2.9610	0	34.5390	4	27.528	0	1221.703	0	17.7	4	5.5	4	-1E+10	1	-1E+10	1	-1E+10	1	-1E+10	1	-1E+10	1	-1E+10	1
4901784	90	C	12/21/2017	10:45	-133.280	43.607	0	1240.70	0	2.9530	0	34.5410	4	27.531	0	1227.127	0	17.9	4	5.5	4	-1E+10	1	-1E+10	1	-1E+10	1	-1E+10	1	-1E+10	1	-1E+10	1
4901784	90	C	12/21/2017	10:45	-133.280	43.607	0	1245.00	0	2.9490	0	34.5410	4	27.531	0	1231.368	0	17.9	4	5.5	4	-1E+10	1	-1E+10	1	-1E+10	1	-1E+10	1	-1E+10	1	-1E+10	1
4901784	90	C	12/21/2017	10:45	-133.280	43.607	0	1249.40	0	2.9440	0	34.5410	4	27.532	0	1235.706	0	18.0	4	5.5	4	-1E+10	1	-1E+10	1	-1E+10	1	-1E+10	1	-1E+10	1	-1E+10	1
4901784	90	C	12/21/2017	10:45	-133.280	43.607	0	1254.70	0	2.9390	0	34.5420	4	27.533	0	1240.933	0	18.1	4	5.6	4	-1E+10	1	-1E+10	1	-1E+10	1	-1E+10	1	-1E+10	1	-1E+10	1
4901784	90	C	12/21/2017	10:45	-133.280	43.607	0	1260.00	0	2.9300	0	34.5430	4	27.535	0	1246.159	0	18.3	4	5.6	4	-1E+10	1	-1E+10	1	-1E+10	1	-1E+10	1	-1E+10	1	-1E+10	1
4901784	90	C	12/21/2017	10:45	-133.280	43.607	0	1265.40	0	2.9230	0	34.5440	4	27.536	0	1251.484	0	18.5	4	5.7	4	-1E+10	1	-1E+10	1	-1E+10	1	-1E+10	1	-1E+10	1	-1E+10	1
4901784	90	C	12/21/2017	10:45	-133.280	43.607	0	1269.80	0	2.9170	0	34.5450	4	27.537	0	1255.822	0	18.7	4	5.8	4	-1E+10	1	-1E+10	1	-1E+10	1	-1E+10	1	-1E+10	1	-1E+10	1
4901784	90	C	12/21/2017	10:45	-133.280	43.607	0	1274.30	0	2.9120	0	34.5470	4	27.539	0	1260.259	0	18.8	4	5.8	4	-1E+10	1	-1E+10	1	-1E+10	1	-1E+10	1	-1E+10	1	-1E+10	1
4901784	90	C	12/21/2017	10:45	-133.280	43.607	0	1279.70	0	2.9050	0	34.5480	4	27.541	0	1265.583	0	19.0	4	5.9	4	-1E+10	1	-1E+10	1	-1E+10	1	-1E+10	1	-1E+10	1	-1E+10	1
4901784	90	C	12/21/2017	10:45	-133.280	43.607	0	1285.20	0	2.8980	0	34.5490	4	27.542	0	1271.006	0	19.2	4	5.9	4	-1E+10	1	-1E+10	1	-1E+10	1	-1E+10	1	-1E+10	1	-1E+10	1
4901784	90	C	12/21/2017	10:45	-133.280	43.607	0	1289.80	0	2.8960	0	34.5490	4	27.543	0	1275.541	0	19.3	4	5.9	4	-1E+10	1	-1E+10	1	-1E+10	1	-1E+10	1	-1E+10	1	-1E+10	1
4901784	90	C	12/21/2017	10:45	-133.280	43.607	0	1294.40	0	2.8890	0	34.5500	4	27.544	0	1280.077	0	19.5	4	6.0	4	-1E+10	1	-1E+10	1	-1E+10	1	-1E+10	1	-1E+10	1	-1E+10	1
4901784	90	C	12/21/2017	10:45	-133.280	43.607	0	1299.80	0	2.8760	0	34.5530	4	27.548	0	1285.400	0	19.8	4	6.1	4	-1E+10	1	-1E+10	1	-1E+10	1	-1E+10	1	-1E+10	1	-1E+10	1
4901784	90	C	12/21/2017	10:45	-133.280	43.607	0	1305.40	0	2.8690	0	34.5540	4	27.549	0	1290.921	0	19.9	4	6.1	4	-1E+10	1	-1E+10	1	-1E+10	1	-1E+10	1	-1E+10	1	-1E+10	1
4901784	90	C	12/21/2017	10:45	-133.280	43.607	0	1310.00	0	2.8620	0	34.5550	4	27.551	0	1295.456	0	20.0	4	6.2	4	-1E+10	1	-1E+10	1	-1E+10	1	-1E+10	1	-1E+10	1	-1E+10	1
4901784	90	C	12/21/2017	10:45	-133.280	43.607	0	1314.60	0	2.8560	0	34.5560	4	27.552	0	1299.991	0	20.2	4	6.2	4	-1E+10	1	-1E+10	1	-1E+10	1	-1E+10	1	-1E+10	1	-1E+10	1
4901784	90	C	12/21/2017	10:45	-133.280	43.607	0	1320.10	0	2.8500	0	34.5560	4	27.552	0	1305.412	0	20.4	4	6.3	4	-1E+10	1	-1E+10	1	-1E+10	1	-1E+10	1	-1E+10	1	-1E+10	1
4901784	90	C	12/21/2017	10:45	-133.280	43.607	0	1325.60	0	2.8350	0	34.5590	4	27.556	0	1310.834	0	20.7	4	6.4	4	-1E+10	1	-1E+10	1	-1E+10	1	-1E+10	1	-1E+10	1	-1E+10	1
4901784	90	C	12/21/2017	10:45	-133.280	43.607	0	1330.20	0	2.8250	0	34.5600	4	27.558	0	1315.369	0	20.9	4	6.4	4	-1E+10	1	-1E+10	1	-1E+10	1	-1E+10	1	-1E+10	1	-1E+10	1
4901784	90	C	12/21/2017	10:45	-133.280	43.607	0	1334.80	0	2.8210	0	34.5600	4	27.558	0	1319.903	0	21.0	4	6.4	4	-1E+10	1	-1E+10	1	-1E+10	1	-1E+10	1	-1E+10	1	-1E+10	1
4901784	90	C	12/21/2017	10:45	-133.280	43.607	0	1340.30	0	2.8100	0	34.5610	4	27.560	0	1325.324	0	21.2	4	6.5	4	-1E+10	1	-1E+10	1	-1E+10	1	-1E+10	1	-1E+10	1	-1E+10	1
4901784	90	C	12/21/2017	10:45	-133.280	43.607	0	1345.00	0	2.8090	0	34.5620	4	27.561	0	1329.957	0	21.3	4	6.6	4	-1E+10	1	-1E+10	1	-1E+10	1	-1E+10	1	-1E+10	1	-1E+10	1
4901784	90	C	12/21/2017	10:45	-133.280	43.607	0	1349.50	0	2.8010	0	34.5630	4	27.563	0	1334.392	0	21.4	4	6.6	4	-1E+10	1	-1E+10	1	-1E+10	1	-1E+10	1	-1E+10	1	-1E+10	1
4901784	90	C	12/21/2017	10:45	-133.280	43.607	0	1355.00	0	2.7910	0	34.5630	4	27.563	0	1339.813	0	21.4	4	6.6	4	-1E+10	1	-1E+10	1	-1E+10	1	-1E+10	1	-1E+10	1	-1E+10	1
4901784	90	C	12/21/2017	10:45	-133.280	43.607	0	1360.40	0	2.7820	0	34.5640	4	27.565	0	1345.136	0	21.5	4	6.6	4	-1E+10	1	-1E+10	1	-1E+10	1	-1E+10	1	-1E+10	1	-1E+10	1
4901784	90	C	12/21/2017	10:45	-133.280	43.607	0	1365.00	0	2.7790	0	34.5640	4	27.565	0	1349.669	0	21.6	4	6.6	4	-1E+10	1	-1E+10	1	-1E+10	1	-1E+10	1	-1E+10	1	-1E+10	1
4901784	90	C	12/21/2017	10:45	-133.280	43.607	0	1369.70	0	2.7750	0	34.5650	4	27.567	0	1354.301	0	21.8	4	6.7	4	-1E+10	1	-1E+10	1	-1E+10	1	-1E+10	1	-1E+10	1	-1E+10	1
4901784	90	C	12/21/2017	10:45	-133.280	43.607	0	1375.30	0	2.7680	0	34.5670	4	27.569	0	1359.820	0	22.0	4	6.8	4	-1E+10	1	-1E+10	1	-1E+10	1	-1E+10	1	-1E+10	1	-1E+10	1
4901784	90	C	12/21/2017	10:45	-133.280	43.607	0	1379.90	0	2.7650	0	34.5670	4	27.569	0	1364.354	0	22.1	4	6.8	4	-1E+10	1	-1E+10	1	-1E+10	1	-1E+10	1	-1E+10	1	-1E+10	1
4901784	90	C	12/21/2017	10:45	-133.280	43.607	0	1384.50	0	2.7550	0	34.5670	4	27.570	0	1368.887	0	22.2	4	6.8	4	-1E+10	1	-1E+10	1	-1E+10	1	-1E+10	1	-1E+10	1	-1E+10	1
4901784	90	C	12/21/2017	10:45	-133.280	43.607	0	1390.00	0	2.7470	0	34.5680	4	27.572	0	1374.307	0	22.4	4	6.9	4	-1E+10	1	-1E+10	1	-1E+10	1	-1E+10	1	-1E+10	1	-1E+10	1
4901784	90	C	12/21/2017	10:45	-133.280	43.607	0	1395.40	0	2.7340	0	34.5700	4	27.574	0	1379.628	0	22.7	4	7.0	4	-1E+10	1	-1E+10	1	-1E+10	1	-1E+10	1	-1E+10	1	-1E+10	1
4901784	90	C	12/21/2017	10:45	-133.280	43.607	0	1400.00	0	2.7280	0	34.5700	4	27.575	0	1384.161	0	22.9	4	7.0	4	-1E+10	1	-1E+10	1	-1E+10	1	-1E+10	1	-1E+10	1	-1E+10	1
4901784	90	C	12/21/2017	10:45	-133.280	43.607	0	1404.60	0	2.7210	0	34.5710	4	27.576	0	1388.694	0	23.1	4	7.1	4	-1E+10	1	-1E+10	1	-1E+10	1	-1E+10	1	-1E+10	1	-1E+10	1
4901784	90	C	12/21/2017	10:45	-133.280	43.607	0	1410.10	0	2.7120	0	34.5720	4	27.578	0	1394.114	0	23.2	4	7.1	4	-1E+10	1	-1E+10	1	-1E+10	1	-1E+10	1	-1E+10	1	-1E+10	1
4901784	90	C	12/21/2017	10:45	-133.280	43.607	0	1414.80	0	2.7030	0	34.5730	4	27.579	0	1398.745	0	23.4	4	7.2	4	-1E+10	1	-1E+10	1	-1E+10	1	-1E+10	1	-1E+10	1	-1E+10	1
4901784	90	C	12/21/2017	10:45	-133.280	43.607	0	1419.50	0	2.6930	0	34.5730	4	27.580	0	1403.376	0	23.6	4	7.2	4	-1E+10	1	-1E+10	1	-1E+10	1	-1E+10	1	-1E+10	1	-1E+10	1
4901784	90	C	12/21/2017	10:45	-133.280	43.607	0	1425.10	0	2.6790	0	34.5750	4	27.583	0	1408.894	0	23.9	4	7.3	4	-1E+10	1	-1E+10	1	-1E+10	1	-1E+10	1	-1E+10	1	-1E+10	1
4901784	90	C	12/21/2017	10:45	-133.280	43.607	0	1429.80	0	2.6680	0	34.5760	4	27.585	0	1413.525	0	24.1	4	7.4	4	-1E+10	1	-1E+10	1	-1E+10	1	-1E+10	1	-1E+10	1	-1E+10	1
4901784	90	C	12/21/2017	10:45	-133.280	43.607	0	1434.50	0	2.6580	0	34.5770	4	27.587	0	1418.155	0	24.3	4	7.4	4	-1E+10	1	-1E+10	1	-1E+10	1	-1E+10	1	-1E+10	1	-1E+10	1
4901784	90	C	12/21/2017	10:45	-133.280	43.607	0	1440.20	0	2.6520	0	34.5780	4	27.588	0	1423.771	0	24.4	4	7.5	4	-1E+10	1	-1E+10	1	-1E+10	1	-1E+10	1	-1E+10	1	-1E+10	1
4901784	90	C	12/21/2017	10:45	-133.280	43.607	0	1444.80	0	2.6450	0	34.5790	4	27.589	0	1428.303	0	24.5	4	7.5	4	-1E+10	1	-1E+10	1	-1E+10	1	-1E+10	1	-1E+10	1	-1E+10	1
4901784	90	C	12/21/2017	10:45	-133.280	43.607	0	1450.10	0	2.6420	0	34.5790	4	27.590	0	1433.525	0	24.7	4	7.6	4	-1E+10	1	-1E+10	1	-1E+10	1	-1E+10	1	-1E+10	1	-1E+10	1
4901784	90	C	12/21/2017	10:45	-133.280	43.607	0	1455.20	0	2.6340	0	34.5800	4	27.591	0	1438.549	0	24.9	4	7.6	4	-1E+10	1	-1E+10	1	-1E+10	1	-1E+10	1	-1E+10	1	-1E+10	1
4901784	90	C	12/21/2017	10:45	-133.280	43.607	0	1460.10	0	2.6260	0	34.5810	4	27.593	0	1443.376	0	25.1	4	7.7	4	-1E+10	1	-1E+10	1	-1E+10	1	-1E+10	1	-1E+10	1	-1E+10	1
4901784	90	C	12/21/2017	10:45	-133.280	43.607	0	1464.80	0	2.6130	0	34.5820	4	27.595	0	1448.006	0	25.4	4	7.8	4	-1E+10	1	-1E+10	1	-1E+10	1	-1E+10	1	-1E+10	1	-1E+10	1
4901784	90	C	12/21/2017	10:45	-133.280	43.607	0	1469.70	0	2.6030	0	34.5820	4	27.596	0	1452.833	0	25.6	4	7.8	4	-1E+10	1	-1E+10	1	-1E+10	1	-1E+10	1	-1E+10	1	-1E+10	1
4901784	90	C	12/21/2017	10:45	-133.280	43.607	0	1474.60	0	2.5950	0	34.5830	4	27.597	0	1457.660	0	25.8	4	7.9	4	-1E+10	1	-1E+10	1	-1E+10	1	-1E+10	1	-1E+10	1	-1E+10	1
4901784	90	C	12/21/2017	10:45	-133.280	43.607	0	1479.50	0	2.5890	0	34.5840	4	27.598	0	1462.487	0	26.0	4	7.9	4	-1E+10	1	-1E+10	1	-1E+10	1	-1E+10	1	-1E+10	1	-1E+10	1
4901784	90	C	12/21/2017	10:45	-133.280	43.607	0	1484.50	0	2.5820	0	34.5850	4	27.600	0	1467.412	0	26.2	4	8.0	4	-1E+10	1	-1E+10	1	-1E+10	1	-1E+10	1	-1E+10	1	-1E+10	1
4901784	90	C	12/21/2017	10:45	-133.280	43.607	0	1489.50	0	2.5710	0	34.5850	4	27.601	0	1472.337	0	26.5	4	8.1	4	-1E+10	1	-1E+10	1	-1E+10	1	-1E+10	1	-1E+10	1	-1E+10	1
4901784	90	C	12/21/2017	10:45	-133.280	43.607	0	1494.50	0	2.5580	0	34.5870	4	27.603	0	1477.262	0	26.8	4	8.2	4	-1E+10	1	-1E+10	1	-1E+10	1	-1E+10	1	-1E+10	1	-1E+10	1
4901784	90	C	12/21/2017	10:45	-133.280	43.607	0	1499.50	0	2.5500	0	34.5880	4	27.605	0	1482.187	0	27.1	4	8.3	4	-1E+10	1	-1E+10	1	-1E+10	1	-1E+10	1	-1E+10	1	-1E+10	1
4901784	90	C	12/21/2017	10:45	-133.280	43.607	0	1504.50	0	2.5380	0	34.5890	4	27.607	0	1487.111	0	27.4	4	8.4	4	-1E+10	1	-1E+10	1	-1E+10	1	-1E+10	1	-1E+10	1	-1E+10	1
4901784	90	C	12/21/2017	10:45	-133.280	43.607	0	1509.50	0	2.5270	0	34.5910	4	27.609	0	1492.036	0	27.7	4	8.5	4	-1E+10	1	-1E+10	1	-1E+10	1	-1E+10	1	-1E+10	1	-1E+10	1
4901784	90	C	12/21/2017	10:45	-133.280	43.607	0	1514.50	0	2.5210	0	34.5910	4	27.610	0	1496.960	0	27.9	4	8.5	4	-1E+10	1	-1E+10	1	-1E+10	1	-1E+10	1	-1E+10	1	-1E+10	1
4901784	90	C	12/21/2017	10:45	-133.280	43.607	0	1519.60	0	2.5130	0	34.5920	4	27.611	0	1501.983	0	28.2	4	8.6	4	-1E+10	1	-1E+10	1	-1E+10	1	-1E+10	1	-1E+10	1	-1E+10	1
4901784	90	C	12/21/2017	10:45	-133.280	43.607	0	1524.80	0	2.5060	0	34.5930	4	27.613	0	1507.104	0	28.4	4	8.7	4	-1E+10	1	-1E+10	1	-1E+10	1	-1E+10	1	-1E+10	1	-1E+10	1
4901784	90	C	12/21/2017	10:45	-133.280	43.607	0	1529.90	0	2.4950	0	34.5930	4	27.614	0	1512.127	0	28.7	4	8.8	4	-1E+10	1	-1E+10	1	-1E+10	1	-1E+10	1	-1E+10	1	-1E+10	1
4901784	90	C	12/21/2017	10:45	-133.280	43.607	0	1535.00	0	2.4890	0	34.5950	4	27.616	0	1517.149	0	29.0	4	8.8	4	-1E+10	1	-1E+10	1	-1E+10	1	-1E+10	1	-1E+10	1	-1E+10	1
4901784	90	C	12/21/2017	10:45	-133.280	43.607	0	1540.10	0	2.4780	0	34.5960	4	27.618	0	1522.172	0	29.4	4	9.0	4	-1E+10	1	-1E+10	1	-1E+10	1	-1E+10	1	-1E+10	1	-1E+10	1
4901784	90	C	12/21/2017	10:45	-133.280	43.607	0	1545.30	0	2.4670	0	34.5970	4	27.619	0	1527.293	0	29.7	4	9.1	4	-1E+10	1	-1E+10	1	-1E+10	1	-1E+10	1	-1E+10	1	-1E+10	1
4901784	90	C	12/21/2017	10:45	-133.280	43.607	0	1550.60	0	2.4550	0	34.5990	4	27.622	0	1532.512	0	30.0	4	9.1	4	-1E+10	1	-1E+10	1	-1E+10	1	-1E+10	1	-1E+10	1	-1E+10	1
4901784	90	C	12/21/2017	10:45	-133.280	43.607	0	1555.00	0	2.4530	0	34.5990	4	27.622	0	1536.844	0	30.2	4	9.2	4	-1E+10	1	-1E+10	1	-1E+10	1	-1E+10	1	-1E+10	1	-1E+10	1
4901784	90	C	12/21/2017	10:45	-133.280	43.607	0	1559.40	0	2.4480	0	34.5990	4	27.623	0	1541.177	0	30.4	4	9.3	4	-1E+10	1	-1E+10	1	-1E+10	1	-1E+10	1	-1E+10	1	-1E+10	1
4901784	90	C	12/21/2017	10:45	-133.280	43.607	0	1564.80	0	2.4400	0	34.6000	4	27.624	0	1546.494	0	30.7	4	9.4	4	-1E+10	1	-1E+10	1	-1E+10	1	-1E+10	1	-1E+10	1	-1E+10	1
4901784	90	C	12/21/2017	10:45	-133.280	43.607	0	1570.10	0	2.4280	0	34.6010	4	27.626	0	1551.713	0	31.1	4	9.5	4	-1E+10	1	-1E+10	1	-1E+10	1	-1E+10	1	-1E+10	1	-1E+10	1
4901784	90	C	12/21/2017	10:45	-133.280	43.607	0	1575.50	0	2.4180	0	34.6030	4	27.628	0	1557.030	0	31.5	4	9.6	4	-1E+10	1	-1E+10	1	-1E+10	1	-1E+10	1	-1E+10	1	-1E+10	1
4901784	90	C	12/21/2017	10:45	-133.280	43.607	0	1580.10	0	2.4080	0	34.6040	4	27.630	0	1561.559	0	31.9	4	9.7	4	-1E+10	1	-1E+10	1	-1E+10	1	-1E+10	1	-1E+10	1	-1E+10	1
4901784	90	C	12/21/2017	10:45	-133.280	43.607	0	1584.60	0	2.4010	0	34.6050	4	27.632	0	1565.989	0	32.3	4	9.8	4	-1E+10	1	-1E+10	1	-1E+10	1	-1E+10	1	-1E+10	1	-1E+10	1
4901784	90	C	12/21/2017	10:45	-133.280	43.607	0	1590.00	0	2.3930	0	34.6070	4	27.634	0	1571.306	0	32.7	4	10.0	4	-1E+10	1	-1E+10	1	-1E+10	1	-1E+10	1	-1E+10	1	-1E+10	1
4901784	90	C	12/21/2017	10:45	-133.280	43.607	0	1595.50	0	2.3940	0	34.6080	4	27.635	0	1576.721	0	33.1	4	10.1	4	-1E+10	1	-1E+10	1	-1E+10	1	-1E+10	1	-1E+10	1	-1E+10	1
4901784	90	C	12/21/2017	10:45	-133.280	43.607	0	1600.00	0	2.3940	0	34.6100	4	27.636	0	1581.151	0	33.4	4	10.2	4	-1E+10	1	-1E+10	1	-1E+10	1	-1E+10	1	-1E+10	1	-1E+10	1
4901784	90	C	12/21/2017	10:45	-133.280	43.607	0	1604.60	0	2.3930	0	34.6100	4	27.636	0	1585.679	0	33.5	4	10.2	4	-1E+10	1	-1E+10	1	-1E+10	1	-1E+10	1	-1E+10	1	-1E+10	1
4901784	90	C	12/21/2017	10:45	-133.280	43.607	0	1610.00	0	2.3780	0	34.6100	4	27.638	0	1590.995	0	33.8	4	10.3	4	-1E+10	1	-1E+10	1	-1E+10	1	-1E+10	1	-1E+10	1	-1E+10	1
4901784	90	C	12/21/2017	10:45	-133.280	43.607	0	1615.50	0	2.3730	0	34.6110	4	27.639	0	1596.410	0	34.0	4	10.4	4	-1E+10	1	-1E+10	1	-1E+10	1	-1E+10	1	-1E+10	1	-1E+10	1
4901784	90	C	12/21/2017	10:45	-133.280	43.607	0	1620.00	0	2.3670	0	34.6120	4	27.640	0	1600.840	0	34.2	4	10.4	4	-1E+10	1	-1E+10	1	-1E+10	1	-1E+10	1	-1E+10	1	-1E+10	1
4901784	90	C	12/21/2017	10:45	-133.280	43.607	0	1624.70	0	2.3630	0	34.6120	4	27.640	0	1605.466	0	34.4	4	10.5	4	-1E+10	1	-1E+10	1	-1E+10	1	-1E+10	1	-1E+10	1	-1E+10	1
4901784	90	C	12/21/2017	10:45	-133.280	43.607	0	1630.20	0	2.3580	0	34.6120	4	27.641	0	1610.880	0	34.6	4	10.5	4	-1E+10	1	-1E+10	1	-1E+10	1	-1E+10	1	-1E+10	1	-1E+10	1
4901784	90	C	12/21/2017	10:45	-133.280	43.607	0	1634.80	0	2.3550	0	34.6140	4	27.643	0	1615.408	0	34.9	4	10.6	4	-1E+10	1	-1E+10	1	-1E+10	1	-1E+10	1	-1E+10	1	-1E+10	1
4901784	90	C	12/21/2017	10:45	-133.280	43.607	0	1639.60	0	2.3510	0	34.6140	4	27.643	0	1620.133	0	35.4	4	10.8	4	-1E+10	1	-1E+10	1	-1E+10	1	-1E+10	1	-1E+10	1	-1E+10	1
4901784	90	C	12/21/2017	10:45	-133.280	43.607	0	1644.90	0	2.3440	0	34.6160	4	27.645	0	1625.350	0	35.8	4	10.9	4	-1E+10	1	-1E+10	1	-1E+10	1	-1E+10	1	-1E+10	1	-1E+10	1
4901784	90	C	12/21/2017	10:45	-133.280	43.607	0	1649.70	0	2.3400	0	34.6170	4	27.647	0	1630.074	0	36.1	4	11.0	4	-1E+10	1	-1E+10	1	-1E+10	1	-1E+10	1	-1E+10	1	-1E+10	1
4901784	90	C	12/21/2017	10:45	-133.280	43.607	0	1654.60	0	2.3370	0	34.6170	4	27.647	0	1634.897	0	36.5	4	11.1	4	-1E+10	1	-1E+10	1	-1E+10	1	-1E+10	1	-1E+10	1	-1E+10	1
4901784	90	C	12/21/2017	10:45	-133.280	43.607	0	1659.60	0	2.3200	0	34.6190	4	27.650	0	1639.818	0	36.9	4	11.2	4	-1E+10	1	-1E+10	1	-1E+10	1	-1E+10	1	-1E+10	1	-1E+10	1
4901784	90	C	12/21/2017	10:45	-133.280	43.607	0	1664.60	0	2.3080	0	34.6200	4	27.652	0	1644.739	0	37.3	4	11.3	4	-1E+10	1	-1E+10	1	-1E+10	1	-1E+10	1	-1E+10	1	-1E+10	1
4901784	90	C	12/21/2017	10:45	-133.280	43.607	0	1669.50	0	2.2960	0	34.6210	4	27.653	0	1649.562	0	37.6	4	11.4	4	-1E+10	1	-1E+10	1	-1E+10	1	-1E+10	1	-1E+10	1	-1E+10	1
4901784	90	C	12/21/2017	10:45	-133.280	43.607	0	1674.40	0	2.2820	0	34.6220	4	27.655	0	1654.384	0	38.0	4	11.5	4	-1E+10	1	-1E+10	1	-1E+10	1	-1E+10	1	-1E+10	1	-1E+10	1
4901784	90	C	12/21/2017	10:45	-133.280	43.607	0	1679.50	0	2.2690	0	34.6230	4	27.657	0	1659.403	0	38.6	4	11.7	4	-1E+10	1	-1E+10	1	-1E+10	1	-1E+10	1	-1E+10	1	-1E+10	1
4901784	90	C	12/21/2017	10:45	-133.280	43.607	0	1684.60	0	2.2600	0	34.6250	4	27.660	0	1664.422	0	39.1	4	11.9	4	-1E+10	1	-1E+10	1	-1E+10	1	-1E+10	1	-1E+10	1	-1E+10	1
4901784	90	C	12/21/2017	10:45	-133.280	43.607	0	1689.70	0	2.2570	0	34.6260	4	27.661	0	1669.441	0	39.5	4	12.0	4	-1E+10	1	-1E+10	1	-1E+10	1	-1E+10	1	-1E+10	1	-1E+10	1
4901784	90	C	12/21/2017	10:45	-133.280	43.607	0	1694.90	0	2.2530	0	34.6270	4	27.662	0	1674.558	0	39.8	4	12.1	4	-1E+10	1	-1E+10	1	-1E+10	1	-1E+10	1	-1E+10	1	-1E+10	1
4901784	90	C	12/21/2017	10:45	-133.280	43.607	0	1700.10	0	2.2460	0	34.6280	4	27.663	0	1679.675	0	40.0	4	12.1	4	-1E+10	1	-1E+10	1	-1E+10	1	-1E+10	1	-1E+10	1	-1E+10	1
4901784	90	C	12/21/2017	10:45	-133.280	43.607	0	1705.30	0	2.2410	0	34.6290	4	27.664	0	1684.792	0	40.2	4	12.2	4	-1E+10	1	-1E+10	1	-1E+10	1	-1E+10	1	-1E+10	1	-1E+10	1
4901784	90	C	12/21/2017	10:45	-133.280	43.607	0	1710.60	0	2.2380	0	34.6290	4	27.665	0	1690.007	0	40.5	4	12.3	4	-1E+10	1	-1E+10	1	-1E+10	1	-1E+10	1	-1E+10	1	-1E+10	1
4901784	90	C	12/21/2017	10:45	-133.280	43.607	0	1714.90	0	2.2330	0	34.6300	4	27.666	0	1694.238	0	40.9	4	12.4	4	-1E+10	1	-1E+10	1	-1E+10	1	-1E+10	1	-1E+10	1	-1E+10	1
4901784	90	C	12/21/2017	10:45	-133.280	43.607	0	1719.40	0	2.2260	0	34.6310	4	27.667	0	1698.666	0	41.1	4	12.5	4	-1E+10	1	-1E+10	1	-1E+10	1	-1E+10	1	-1E+10	1	-1E+10	1
4901784	90	C	12/21/2017	10:45	-133.280	43.607	0	1724.80	0	2.2160	0	34.6310	4	27.668	0	1703.979	0	41.2	4	12.5	4	-1E+10	1	-1E+10	1	-1E+10	1	-1E+10	1	-1E+10	1	-1E+10	1
4901784	90	C	12/21/2017	10:45	-133.280	43.607	0	1730.20	0	2.2110	0	34.6310	4	27.669	0	1709.292	0	41.4	4	12.5	4	-1E+10	1	-1E+10	1	-1E+10	1	-1E+10	1	-1E+10	1	-1E+10	1
4901784	90	C	12/21/2017	10:45	-133.280	43.607	0	1735.50	0	2.2060	0	34.6320	4	27.670	0	1714.507	0	41.6	4	12.6	4	-1E+10	1	-1E+10	1	-1E+10	1	-1E+10	1	-1E+10	1	-1E+10	1
4901784	90	C	12/21/2017	10:45	-133.280	43.607	0	1740.00	0	2.2010	0	34.6320	4	27.670	0	1718.934	0	41.9	4	12.7	4	-1E+10	1	-1E+10	1	-1E+10	1	-1E+10	1	-1E+10	1	-1E+10	1
4901784	90	C	12/21/2017	10:45	-133.280	43.607	0	1744.50	0	2.1860	0	34.6320	4	27.671	0	1723.361	0	42.2	4	12.8	4	-1E+10	1	-1E+10	1	-1E+10	1	-1E+10	1	-1E+10	1	-1E+10	1
4901784	90	C	12/21/2017	10:45	-133.280	43.607	0	1749.80	0	2.1780	0	34.6340	4	27.674	0	1728.576	0	42.8	4	13.0	4	-1E+10	1	-1E+10	1	-1E+10	1	-1E+10	1	-1E+10	1	-1E+10	1
4901784	90	C	12/21/2017	10:45	-133.280	43.607	0	1755.20	0	2.1760	0	34.6350	4	27.675	0	1733.888	0	43.1	4	13.0	4	-1E+10	1	-1E+10	1	-1E+10	1	-1E+10	1	-1E+10	1	-1E+10	1
4901784	90	C	12/21/2017	10:45	-133.280	43.607	0	1760.70	0	2.1740	0	34.6360	4	27.676	0	1739.299	0	43.3	4	13.1	4	-1E+10	1	-1E+10	1	-1E+10	1	-1E+10	1	-1E+10	1	-1E+10	1
4901784	90	C	12/21/2017	10:45	-133.280	43.607	0	1765.40	0	2.1700	0	34.6360	4	27.676	0	1743.922	0	43.4	4	13.2	4	-1E+10	1	-1E+10	1	-1E+10	1	-1E+10	1	-1E+10	1	-1E+10	1
4901784	90	C	12/21/2017	10:45	-133.280	43.607	0	1769.80	0	2.1580	0	34.6360	4	27.677	0	1748.251	0	43.7	4	13.2	4	-1E+10	1	-1E+10	1	-1E+10	1	-1E+10	1	-1E+10	1	-1E+10	1
4901784	90	C	12/21/2017	10:45	-133.280	43.607	0	1774.60	0	2.1520	0	34.6370	4	27.678	0	1752.972	0	43.9	4	13.3	4	-1E+10	1	-1E+10	1	-1E+10	1	-1E+10	1	-1E+10	1	-1E+10	1
4901784	90	C	12/21/2017	10:45	-133.280	43.607	0	1779.40	0	2.1470	0	34.6380	4	27.680	0	1757.694	0	44.2	4	13.4	4	-1E+10	1	-1E+10	1	-1E+10	1	-1E+10	1	-1E+10	1	-1E+10	1
4901784	90	C	12/21/2017	10:45	-133.280	43.607	0	1784.30	0	2.1440	0	34.6390	4	27.681	0	1762.514	0	44.6	4	13.5	4	-1E+10	1	-1E+10	1	-1E+10	1	-1E+10	1	-1E+10	1	-1E+10	1
4901784	90	C	12/21/2017	10:45	-133.280	43.607	0	1790.00	0	2.1420	0	34.6400	4	27.682	0	1768.121	0	45.2	4	13.7	4	-1E+10	1	-1E+10	1	-1E+10	1	-1E+10	1	-1E+10	1	-1E+10	1
4901784	90	C	12/21/2017	10:45	-133.280	43.607	0	1795.70	0	2.1290	0	34.6420	4	27.684	0	1773.727	0	45.5	4	13.8	4	-1E+10	1	-1E+10	1	-1E+10	1	-1E+10	1	-1E+10	1	-1E+10	1
4901784	90	C	12/21/2017	10:45	-133.280	43.607	0	1800.80	0	2.1230	0	34.6410	4	27.684	0	1778.743	0	45.7	4	13.8	4	-1E+10	1	-1E+10	1	-1E+10	1	-1E+10	1	-1E+10	1	-1E+10	1
4901784	90	C	12/21/2017	10:45	-133.280	43.607	0	1805.80	0	2.1210	0	34.6420	4	27.685	0	1783.661	0	45.9	4	13.9	4	-1E+10	1	-1E+10	1	-1E+10	1	-1E+10	1	-1E+10	1	-1E+10	1
4901784	90	C	12/21/2017	10:45	-133.280	43.607	0	1810.00	0	2.1200	0	34.6430	4	27.686	0	1787.792	0	46.1	4	13.9	4	-1E+10	1	-1E+10	1	-1E+10	1	-1E+10	1	-1E+10	1	-1E+10	1
4901784	90	C	12/21/2017	10:45	-133.280	43.607	0	1814.20	0	2.1150	0	34.6440	4	27.687	0	1791.923	0	46.3	4	14.0	4	-1E+10	1	-1E+10	1	-1E+10	1	-1E+10	1	-1E+10	1	-1E+10	1
4901784	90	C	12/21/2017	10:45	-133.280	43.607	0	1819.30	0	2.1140	0	34.6430	4	27.686	0	1796.939	0	46.5	4	14.1	4	-1E+10	1	-1E+10	1	-1E+10	1	-1E+10	1	-1E+10	1	-1E+10	1
4901784	90	C	12/21/2017	10:45	-133.280	43.607	0	1824.40	0	2.1140	0	34.6440	4	27.687	0	1801.954	0	46.8	4	14.1	4	-1E+10	1	-1E+10	1	-1E+10	1	-1E+10	1	-1E+10	1	-1E+10	1
4901784	90	C	12/21/2017	10:45	-133.280	43.607	0	1829.60	0	2.1080	0	34.6450	4	27.689	0	1807.068	0	47.1	4	14.3	4	-1E+10	1	-1E+10	1	-1E+10	1	-1E+10	1	-1E+10	1	-1E+10	1
4901784	90	C	12/21/2017	10:45	-133.280	43.607	0	1834.80	0	2.1040	0	34.6460	4	27.690	0	1812.182	0	47.6	4	14.4	4	-1E+10	1	-1E+10	1	-1E+10	1	-1E+10	1	-1E+10	1	-1E+10	1
4901784	90	C	12/21/2017	10:45	-133.280	43.607	0	1840.10	0	2.1000	0	34.6470	4	27.691	0	1817.394	0	48.0	4	14.5	4	-1E+10	1	-1E+10	1	-1E+10	1	-1E+10	1	-1E+10	1	-1E+10	1
4901784	90	C	12/21/2017	10:45	-133.280	43.607	0	1845.30	0	2.0960	0	34.6480	4	27.692	0	1822.508	0	48.2	4	14.6	4	-1E+10	1	-1E+10	1	-1E+10	1	-1E+10	1	-1E+10	1	-1E+10	1
4901784	90	C	12/21/2017	10:45	-133.280	43.607	0	1850.50	0	2.0950	0	34.6480	4	27.692	0	1827.621	0	48.4	4	14.6	4	-1E+10	1	-1E+10	1	-1E+10	1	-1E+10	1	-1E+10	1	-1E+10	1
4901784	90	C	12/21/2017	10:45	-133.280	43.607	0	1855.70	0	2.0870	0	34.6490	4	27.694	0	1832.734	0	48.7	4	14.7	4	-1E+10	1	-1E+10	1	-1E+10	1	-1E+10	1	-1E+10	1	-1E+10	1
4901784	90	C	12/21/2017	10:45	-133.280	43.607	0	1860.00	0	2.0840	0	34.6490	4	27.694	0	1836.963	0	48.8	4	14.8	4	-1E+10	1	-1E+10	1	-1E+10	1	-1E+10	1	-1E+10	1	-1E+10	1
4901784	90	C	12/21/2017	10:45	-133.280	43.607	0	1864.30	0	2.0830	0	34.6490	4	27.694	0	1841.191	0	49.0	4	14.8	4	-1E+10	1	-1E+10	1	-1E+10	1	-1E+10	1	-1E+10	1	-1E+10	1
4901784	90	C	12/21/2017	10:45	-133.280	43.607	0	1869.60	0	2.0770	0	34.6500	4	27.695	0	1846.402	0	49.3	4	14.9	4	-1E+10	1	-1E+10	1	-1E+10	1	-1E+10	1	-1E+10	1	-1E+10	1
4901784	90	C	12/21/2017	10:45	-133.280	43.607	0	1874.90	0	2.0720	0	34.6500	4	27.696	0	1851.613	0	49.6	4	15.0	4	-1E+10	1	-1E+10	1	-1E+10	1	-1E+10	1	-1E+10	1	-1E+10	1
4901784	90	C	12/21/2017	10:45	-133.280	43.607	0	1880.20	0	2.0690	0	34.6510	4	27.697	0	1856.824	0	49.8	4	15.1	4	-1E+10	1	-1E+10	1	-1E+10	1	-1E+10	1	-1E+10	1	-1E+10	1
4901784	90	C	12/21/2017	10:45	-133.280	43.607	0	1885.50	0	2.0660	0	34.6520	4	27.698	0	1862.035	0	50.1	4	15.1	4	-1E+10	1	-1E+10	1	-1E+10	1	-1E+10	1	-1E+10	1	-1E+10	1
4901784	90	C	12/21/2017	10:45	-133.280	43.607	0	1890.00	0	2.0620	0	34.6530	4	27.699	0	1866.459	0	50.3	4	15.2	4	-1E+10	1	-1E+10	1	-1E+10	1	-1E+10	1	-1E+10	1	-1E+10	1
4901784	90	C	12/21/2017	10:45	-133.280	43.607	0	1894.50	0	2.0580	0	34.6530	4	27.699	0	1870.884	0	50.6	4	15.3	4	-1E+10	1	-1E+10	1	-1E+10	1	-1E+10	1	-1E+10	1	-1E+10	1
4901784	90	C	12/21/2017	10:45	-133.280	43.607	0	1899.90	0	2.0530	0	34.6540	4	27.700	0	1876.193	0	51.0	4	15.4	4	-1E+10	1	-1E+10	1	-1E+10	1	-1E+10	1	-1E+10	1	-1E+10	1
4901784	90	C	12/21/2017	10:45	-133.280	43.607	0	1905.30	0	2.0460	0	34.6540	4	27.701	0	1881.501	0	51.5	4	15.6	4	-1E+10	1	-1E+10	1	-1E+10	1	-1E+10	1	-1E+10	1	-1E+10	1
4901784	90	C	12/21/2017	10:45	-133.280	43.607	0	1909.80	0	2.0400	0	34.6550	4	27.702	0	1885.925	0	51.9	4	15.7	4	-1E+10	1	-1E+10	1	-1E+10	1	-1E+10	1	-1E+10	1	-1E+10	1
4901784	90	C	12/21/2017	10:45	-133.280	43.607	0	1914.40	0	2.0360	0	34.6560	4	27.704	0	1890.447	0	52.3	4	15.8	4	-1E+10	1	-1E+10	1	-1E+10	1	-1E+10	1	-1E+10	1	-1E+10	1
4901784	90	C	12/21/2017	10:45	-133.280	43.607	0	1920.10	0	2.0310	0	34.6570	4	27.705	0	1896.050	0	52.6	4	15.9	4	-1E+10	1	-1E+10	1	-1E+10	1	-1E+10	1	-1E+10	1	-1E+10	1
4901784	90	C	12/21/2017	10:45	-133.280	43.607	0	1925.20	0	2.0270	0	34.6580	4	27.706	0	1901.064	0	52.9	4	16.0	4	-1E+10	1	-1E+10	1	-1E+10	1	-1E+10	1	-1E+10	1	-1E+10	1
4901784	90	C	12/21/2017	10:45	-133.280	43.607	0	1930.00	0	2.0240	0	34.6580	4	27.706	0	1905.782	0	53.1	4	16.0	4	-1E+10	1	-1E+10	1	-1E+10	1	-1E+10	1	-1E+10	1	-1E+10	1
4901784	90	C	12/21/2017	10:45	-133.280	43.607	0	1934.80	0	2.0200	0	34.6590	4	27.707	0	1910.501	0	53.4	4	16.1	4	-1E+10	1	-1E+10	1	-1E+10	1	-1E+10	1	-1E+10	1	-1E+10	1
4901784	90	C	12/21/2017	10:45	-133.280	43.607	0	1939.60	0	2.0170	0	34.6600	4	27.708	0	1915.219	0	53.7	4	16.2	4	-1E+10	1	-1E+10	1	-1E+10	1	-1E+10	1	-1E+10	1	-1E+10	1
4901784	90	C	12/21/2017	10:45	-133.280	43.607	0	1944.50	0	2.0100	0	34.6610	4	27.710	0	1920.035	0	54.2	4	16.3	4	-1E+10	1	-1E+10	1	-1E+10	1	-1E+10	1	-1E+10	1	-1E+10	1
4901784	90	C	12/21/2017	10:45	-133.280	43.607	0	1949.30	0	2.0050	0	34.6620	4	27.711	0	1924.753	0	54.5	4	16.4	4	-1E+10	1	-1E+10	1	-1E+10	1	-1E+10	1	-1E+10	1	-1E+10	1
4901784	90	C	12/21/2017	10:45	-133.280	43.607	0	1955.00	0	2.0010	0	34.6620	4	27.711	0	1930.355	0	54.9	4	16.6	4	-1E+10	1	-1E+10	1	-1E+10	1	-1E+10	1	-1E+10	1	-1E+10	1
4901784	90	C	12/21/2017	10:45	-133.280	43.607	0	1960.70	0	1.9940	0	34.6630	4	27.713	0	1935.957	0	55.4	4	16.7	4	-1E+10	1	-1E+10	1	-1E+10	1	-1E+10	1	-1E+10	1	-1E+10	1
4901784	90	C	12/21/2017	10:45	-133.280	43.607	0	1965.60	0	1.9890	0	34.6640	4	27.714	0	1940.773	0	55.8	4	16.8	4	-1E+10	1	-1E+10	1	-1E+10	1	-1E+10	1	-1E+10	1	-1E+10	1
4901784	90	C	12/21/2017	10:45	-133.280	43.607	0	1970.60	0	1.9860	0	34.6640	4	27.714	0	1945.687	0	55.9	4	16.9	4	-1E+10	1	-1E+10	1	-1E+10	1	-1E+10	1	-1E+10	1	-1E+10	1
4901784	90	C	12/21/2017	10:45	-133.280	43.607	0	1975.50	0	1.9840	0	34.6650	4	27.715	0	1950.503	0	56.1	4	16.9	4	-1E+10	1	-1E+10	1	-1E+10	1	-1E+10	1	-1E+10	1	-1E+10	1
4901784	90	C	12/21/2017	10:45	-133.280	43.607	0	1980.60	0	1.9830	0	34.6650	4	27.715	0	1955.515	0	56.3	4	17.0	4	-1E+10	1	-1E+10	1	-1E+10	1	-1E+10	1	-1E+10	1	-1E+10	1
4901784	90	C	12/21/2017	10:45	-133.280	43.607	0	1985.60	0	1.9810	0	34.6650	4	27.715	0	1960.429	0	56.5	4	17.0	4	-1E+10	1	-1E+10	1	-1E+10	1	-1E+10	1	-1E+10	1	-1E+10	1
4901784	90	C	12/21/2017	10:45	-133.280	43.607	0	1990.60	0	1.9770	0	34.6660	4	27.717	0	1965.342	0	56.7	4	17.1	4	-1E+10	1	-1E+10	1	-1E+10	1	-1E+10	1	-1E+10	1	-1E+10	1
4901784	90	C	12/21/2017	10:45	-133.280	43.607	0	1995.60	0	1.9740	0	34.6660	4	27.717	0	1970.256	0	56.9	4	17.2	4	-1E+10	1	-1E+10	1	-1E+10	1	-1E+10	1	-1E+10	1	-1E+10	1
4901784	90	C	12/21/2017	10:45	-133.280	43.607	0	2000.70	0	1.9690	0	34.6670	4	27.718	0	1975.267	0	57.3	4	17.3	4	-1E+10	1	-1E+10	1	-1E+10	1	-1E+10	1	-1E+10	1	-1E+10	1
4901784	90	C	12/21/2017	10:45	-133.280	43.607	0	2005.00	0	1.9640	0	34.6680	4	27.719	0	1979.493	0	57.6	4	17.3	4	-1E+10	1	-1E+10	1	-1E+10	1	-1E+10	1	-1E+10	1	-1E+10	1
4901784	90	C	12/21/2017	10:45	-133.280	43.607	0	2009.50	0	1.9610	0	34.6680	4	27.719	0	1983.915	0	57.8	4	17.4	4	-1E+10	1	-1E+10	1	-1E+10	1	-1E+10	1	-1E+10	1	-1E+10	1
4901784	90	C	12/21/2017	10:45	-133.280	43.607	0	2014.90	0	1.9560	0	34.6690	4	27.721	0	1989.221	0	58.1	4	17.5	4	-1E+10	1	-1E+10	1	-1E+10	1	-1E+10	1	-1E+10	1	-1E+10	1
4901784	90	C	12/21/2017	10:45	-133.280	43.607	0	2020.20	0	1.9530	0	34.6700	4	27.722	0	1994.428	0	58.3	4	17.6	4	-1E+10	1	-1E+10	1	-1E+10	1	-1E+10	1	-1E+10	1	-1E+10	1
4901784	90	C	12/21/2017	10:45	-133.280	43.607	0																										
4901784	91	C	12/31/2017	10:49	-133.423	43.694	0	2.10	0	12.0390	0	32.8710	4	24.929	0	2.083	0	256.8	4	96.2	4	-1E+10	1	-1E+10	1	-1E+10	1	-1E+10	1	-1E+10	1	-1E+10	1
4901784	91	C	12/31/2017	10:49	-133.423	43.694	0	3.50	0	12.0390	0	32.8710	4	24.929	0	3.472	0	256.8	4	96.2	4	-1E+10	1	-1E+10	1	-1E+10	1	-1E+10	1	-1E+10	1	-1E+10	1
4901784	91	C	12/31/2017	10:49	-133.423	43.694	0	4.70	0	12.0390	0	32.8700	4	24.929	0	4.662	0	256.8	4	96.2	4	-1E+10	1	-1E+10	1	-1E+10	1	-1E+10	1	-1E+10	1	-1E+10	1
4901784	91	C	12/31/2017	10:49	-133.423	43.694	0	6.20	0	12.0390	0	32.8710	4	24.929	0	6.150	0	256.8	4	96.2	4	-1E+10	1	-1E+10	1	-1E+10	1	-1E+10	1	-1E+10	1	-1E+10	1
4901784	91	C	12/31/2017	10:49	-133.423	43.694	0	7.80	0	12.0380	0	32.8720	4	24.930	0	7.737	0	256.7	4	96.1	4	-1E+10	1	-1E+10	1	-1E+10	1	-1E+10	1	-1E+10	1	-1E+10	1
4901784	91	C	12/31/2017	10:49	-133.423	43.694	0	9.40	0	12.0380	0	32.8710	4	24.930	0	9.325	0	256.6	4	96.1	4	-1E+10	1	-1E+10	1	-1E+10	1	-1E+10	1	-1E+10	1	-1E+10	1
4901784	91	C	12/31/2017	10:49	-133.423	43.694	0	11.20	0	12.0380	0	32.8720	4	24.930	0	11.110	0	256.6	4	96.1	4	-1E+10	1	-1E+10	1	-1E+10	1	-1E+10	1	-1E+10	1	-1E+10	1
4901784	91	C	12/31/2017	10:49	-133.423	43.694	0	12.90	0	12.0370	0	32.8700	4	24.929	0	12.796	0	256.5	4	96.1	4	-1E+10	1	-1E+10	1	-1E+10	1	-1E+10	1	-1E+10	1	-1E+10	1
4901784	91	C	12/31/2017	10:49	-133.423	43.694	0	14.80	0	12.0400	0	32.8710	4	24.929	0	14.681	0	256.4	4	96.0	4	-1E+10	1	-1E+10	1	-1E+10	1	-1E+10	1	-1E+10	1	-1E+10	1
4901784	91	C	12/31/2017	10:49	-133.423	43.694	0	16.70	0	12.0380	0	32.8720	4	24.931	0	16.566	0	256.5	4	96.0	4	-1E+10	1	-1E+10	1	-1E+10	1	-1E+10	1	-1E+10	1	-1E+10	1
4901784	91	C	12/31/2017	10:49	-133.423	43.694	0	18.70	0	12.0390	0	32.8720	4	24.930	0	18.550	0	256.3	4	96.0	4	-1E+10	1	-1E+10	1	-1E+10	1	-1E+10	1	-1E+10	1	-1E+10	1
4901784	91	C	12/31/2017	10:49	-133.423	43.694	0	20.70	0	12.0400	0	32.8720	4	24.930	0	20.533	0	256.1	4	95.9	4	-1E+10	1	-1E+10	1	-1E+10	1	-1E+10	1	-1E+10	1	-1E+10	1
4901784	91	C	12/31/2017	10:49	-133.423	43.694	0	22.40	0	12.0400	0	32.8700	4	24.929	0	22.220	0	256.2	4	95.9	4	-1E+10	1	-1E+10	1	-1E+10	1	-1E+10	1	-1E+10	1	-1E+10	1
4901784	91	C	12/31/2017	10:49	-133.423	43.694	0	24.20	0	12.0400	0	32.8710	4	24.930	0	24.005	0	256.1	4	95.9	4	-1E+10	1	-1E+10	1	-1E+10	1	-1E+10	1	-1E+10	1	-1E+10	1
4901784	91	C	12/31/2017	10:49	-133.423	43.694	0	26.00	0	12.0400	0	32.8720	4	24.930	0	25.790	0	256.0	4	95.9	4	-1E+10	1	-1E+10	1	-1E+10	1	-1E+10	1	-1E+10	1	-1E+10	1
4901784	91	C	12/31/2017	10:49	-133.423	43.694	0	27.90	0	12.0400	0	32.8710	4	24.930	0	27.675	0	256.0	4	95.9	4	-1E+10	1	-1E+10	1	-1E+10	1	-1E+10	1	-1E+10	1	-1E+10	1
4901784	91	C	12/31/2017	10:49	-133.423	43.694	0	29.90	0	12.0390	0	32.8720	4	24.931	0	29.659	0	256.0	4	95.9	4	-1E+10	1	-1E+10	1	-1E+10	1	-1E+10	1	-1E+10	1	-1E+10	1
4901784	91	C	12/31/2017	10:49	-133.423	43.694	0	31.70	0	12.0390	0	32.8710	4	24.930	0	31.444	0	255.8	4	95.8	4	-1E+10	1	-1E+10	1	-1E+10	1	-1E+10	1	-1E+10	1	-1E+10	1
4901784	91	C	12/31/2017	10:49	-133.423	43.694	0	33.70	0	12.0390	0	32.8710	4	24.930	0	33.428	0	255.8	4	95.8	4	-1E+10	1	-1E+10	1	-1E+10	1	-1E+10	1	-1E+10	1	-1E+10	1
4901784	91	C	12/31/2017	10:49	-133.423	43.694	0	35.60	0	12.0400	0	32.8710	4	24.930	0	35.312	0	255.8	4	95.8	4	-1E+10	1	-1E+10	1	-1E+10	1	-1E+10	1	-1E+10	1	-1E+10	1
4901784	91	C	12/31/2017	10:49	-133.423	43.694	0	37.60	0	12.0420	0	32.8710	4	24.930	0	37.296	0	255.5	4	95.7	4	-1E+10	1	-1E+10	1	-1E+10	1	-1E+10	1	-1E+10	1	-1E+10	1
4901784	91	C	12/31/2017	10:49	-133.423	43.694	0	39.70	0	12.0430	0	32.8710	4	24.929	0	39.379	0	255.4	4	95.7	4	-1E+10	1	-1E+10	1	-1E+10	1	-1E+10	1	-1E+10	1	-1E+10	1
4901784	91	C	12/31/2017	10:49	-133.423	43.694	0	41.70	0	12.0430	0	32.8710	4	24.929	0	41.362	0	255.5	4	95.7	4	-1E+10	1	-1E+10	1	-1E+10	1	-1E+10	1	-1E+10	1	-1E+10	1
4901784	91	C	12/31/2017	10:49	-133.423	43.694	0	43.50	0	12.0440	0	32.8710	4	24.929	0	43.148	0	255.3	4	95.6	4	-1E+10	1	-1E+10	1	-1E+10	1	-1E+10	1	-1E+10	1	-1E+10	1
4901784	91	C	12/31/2017	10:49	-133.423	43.694	0	45.40	0	12.0430	0	32.8700	4	24.929	0	45.032	0	254.8	4	95.4	4	-1E+10	1	-1E+10	1	-1E+10	1	-1E+10	1	-1E+10	1	-1E+10	1
4901784	91	C	12/31/2017	10:49	-133.423	43.694	0	47.20	0	12.0420	0	32.8700	4	24.929	0	46.817	0	254.9	4	95.5	4	-1E+10	1	-1E+10	1	-1E+10	1	-1E+10	1	-1E+10	1	-1E+10	1
4901784	91	C	12/31/2017	10:49	-133.423	43.694	0	49.10	0	12.0430	0	32.8700	4	24.929	0	48.702	0	254.8	4	95.4	4	-1E+10	1	-1E+10	1	-1E+10	1	-1E+10	1	-1E+10	1	-1E+10	1
4901784	91	C	12/31/2017	10:49	-133.423	43.694	0	51.00	0	12.0450	0	32.8690	4	24.928	0	50.586	0	254.3	4	95.3	4	-1E+10	1	-1E+10	1	-1E+10	1	-1E+10	1	-1E+10	1	-1E+10	1
4901784	91	C	12/31/2017	10:49	-133.423	43.694	0	53.10	0	12.0320	0	32.8700	4	24.931	0	52.669	0	254.3	4	95.2	4	-1E+10	1	-1E+10	1	-1E+10	1	-1E+10	1	-1E+10	1	-1E+10	1
4901784	91	C	12/31/2017	10:49	-133.423	43.694	0	55.20	0	12.0190	0	32.8710	4	24.934	0	54.751	0	254.0	4	95.1	4	-1E+10	1	-1E+10	1	-1E+10	1	-1E+10	1	-1E+10	1	-1E+10	1
4901784	91	C	12/31/2017	10:49	-133.423	43.694	0	57.20	0	12.0180	0	32.8690	4	24.933	0	56.735	0	253.7	4	95.0	4	-1E+10	1	-1E+10	1	-1E+10	1	-1E+10	1	-1E+10	1	-1E+10	1
4901784	91	C	12/31/2017	10:49	-133.423	43.694	0	59.20	0	12.0160	0	32.8680	4	24.933	0	58.718	0	253.6	4	94.9	4	-1E+10	1	-1E+10	1	-1E+10	1	-1E+10	1	-1E+10	1	-1E+10	1
4901784	91	C	12/31/2017	10:49	-133.423	43.694	0	61.40	0	12.0020	0	32.8670	4	24.934	0	60.900	0	253.2	4	94.7	4	-1E+10	1	-1E+10	1	-1E+10	1	-1E+10	1	-1E+10	1	-1E+10	1
4901784	91	C	12/31/2017	10:49	-133.423	43.694	0	61.90	0	11.9980	0	32.8660	4	24.934	0	61.396	0	252.9	4	94.6	4	-1E+10	1	-1E+10	1	-1E+10	1	-1E+10	1	-1E+10	1	-1E+10	1
4901784	91	C	12/31/2017	10:49	-133.423	43.694	0	63.50	0	11.9950	0	32.8620	4	24.932	0	62.982	0	252.6	4	94.5	4	-1E+10	1	-1E+10	1	-1E+10	1	-1E+10	1	-1E+10	1	-1E+10	1
4901784	91	C	12/31/2017	10:49	-133.423	43.694	0	65.00	0	11.9890	0	32.8560	4	24.928	0	64.470	0	251.9	4	94.2	4	-1E+10	1	-1E+10	1	-1E+10	1	-1E+10	1	-1E+10	1	-1E+10	1
4901784	91	C	12/31/2017	10:49	-133.423	43.694	0	66.20	0	11.9450	0	32.8460	4	24.929	0	65.660	0	251.0	4	93.8	4	-1E+10	1	-1E+10	1	-1E+10	1	-1E+10	1	-1E+10	1	-1E+10	1
4901784	91	C	12/31/2017	10:49	-133.423	43.694	0	67.60	0	11.7190	0	32.8520	4	24.975	0	67.048	0	250.8	4	93.3	4	-1E+10	1	-1E+10	1	-1E+10	1	-1E+10	1	-1E+10	1	-1E+10	1
4901784	91	C	12/31/2017	10:49	-133.423	43.694	0	69.00	0	11.2070	0	32.9040	4	25.109	0	68.437	0	251.9	4	92.7	4	-1E+10	1	-1E+10	1	-1E+10	1	-1E+10	1	-1E+10	1	-1E+10	1
4901784	91	C	12/31/2017	10:49	-133.423	43.694	0	70.90	0	10.4650	0	32.9160	4	25.248	0	70.321	0	255.5	4	92.6	4	-1E+10	1	-1E+10	1	-1E+10	1	-1E+10	1	-1E+10	1	-1E+10	1
4901784	91	C	12/31/2017	10:49	-133.423	43.694	0	72.50	0	9.6050	0	32.9540	4	25.421	0	71.908	0	258.0	4	91.8	4	-1E+10	1	-1E+10	1	-1E+10	1	-1E+10	1	-1E+10	1	-1E+10	1
4901784	91	C	12/31/2017	10:49	-133.423	43.694	0	73.90	0	9.3910	0	32.9420	4	25.447	0	73.296	0	259.7	4	91.9	4	-1E+10	1	-1E+10	1	-1E+10	1	-1E+10	1	-1E+10	1	-1E+10	1
4901784	91	C	12/31/2017	10:49	-133.423	43.694	0	75.30	0	8.9370	0	32.9690	4	25.539	0	74.684	0	261.2	4	91.6	4	-1E+10	1	-1E+10	1	-1E+10	1	-1E+10	1	-1E+10	1	-1E+10	1
4901784	91	C	12/31/2017	10:49	-133.423	43.694	0	76.80	0	8.8440	0	32.9760	4	25.559	0	76.172	0	260.9	4	91.3	4	-1E+10	1	-1E+10	1	-1E+10	1	-1E+10	1	-1E+10	1	-1E+10	1
4901784	91	C	12/31/2017	10:49	-133.423	43.694	0	78.30	0	8.7590	0	32.9840	4	25.579	0	77.659	0	260.7	4	91.1	4	-1E+10	1	-1E+10	1	-1E+10	1	-1E+10	1	-1E+10	1	-1E+10	1
4901784	91	C	12/31/2017	10:49	-133.423	43.694	0	79.80	0	8.6870	0	32.9920	4	25.596	0	79.146	0	260.4	4	90.8	4	-1E+10	1	-1E+10	1	-1E+10	1	-1E+10	1	-1E+10	1	-1E+10	1
4901784	91	C	12/31/2017	10:49	-133.423	43.694	0	81.30	0	8.6350	0	32.9960	4	25.607	0	80.634	0	260.4	4	90.7	4	-1E+10	1	-1E+10	1	-1E+10	1	-1E+10	1	-1E+10	1	-1E+10	1
4901784	91	C	12/31/2017	10:49	-133.423	43.694	0	82.90	0	8.5970	0	32.9960	4	25.613	0	82.220	0	260.4	4	90.6	4	-1E+10	1	-1E+10	1	-1E+10	1	-1E+10	1	-1E+10	1	-1E+10	1
4901784	91	C	12/31/2017	10:49	-133.423	43.694	0	84.50	0	8.5580	0	32.9980	4	25.620	0	83.807	0	260.1	4	90.5	4	-1E+10	1	-1E+10	1	-1E+10	1	-1E+10	1	-1E+10	1	-1E+10	1
4901784	91	C	12/31/2017	10:49	-133.423	43.694	0	86.10	0	8.5040	0	33.0000	4	25.630	0	85.394	0	260.2	4	90.4	4	-1E+10	1	-1E+10	1	-1E+10	1	-1E+10	1	-1E+10	1	-1E+10	1
4901784	91	C	12/31/2017	10:49	-133.423	43.694	0	87.80	0	8.4680	0	33.0090	4	25.643	0	87.079	0	260.1	4	90.3	4	-1E+10	1	-1E+10	1	-1E+10	1	-1E+10	1	-1E+10	1	-1E+10	1
4901784	91	C	12/31/2017	10:49	-133.423	43.694	0	89.50	0	8.4130	0	33.0080	4	25.650	0	88.765	0	260.3	4	90.3	4	-1E+10	1	-1E+10	1	-1E+10	1	-1E+10	1	-1E+10	1	-1E+10	1
4901784	91	C	12/31/2017	10:49	-133.423	43.694	0	91.10	0	8.3950	0	33.0110	4	25.655	0	90.351	0	260.1	4	90.2	4	-1E+10	1	-1E+10	1	-1E+10	1	-1E+10	1	-1E+10	1	-1E+10	1
4901784	91	C	12/31/2017	10:49	-133.423	43.694	0	92.80	0	8.3770	0	33.0150	4	25.661	0	92.037	0	260.1	4	90.1	4	-1E+10	1	-1E+10	1	-1E+10	1	-1E+10	1	-1E+10	1	-1E+10	1
4901784	91	C	12/31/2017	10:49	-133.423	43.694	0	94.50	0	8.3070	0	33.0160	4	25.672	0	93.723	0	260.0	4	89.9	4	-1E+10	1	-1E+10	1	-1E+10	1	-1E+10	1	-1E+10	1	-1E+10	1
4901784	91	C	12/31/2017	10:49	-133.423	43.694	0	96.20	0	8.2360	0	33.0150	4	25.682	0	95.408	0	260.3	4	89.9	4	-1E+10	1	-1E+10	1	-1E+10	1	-1E+10	1	-1E+10	1	-1E+10	1
4901784	91	C	12/31/2017	10:49	-133.423	43.694	0	97.90	0	8.2230	0	33.0140	4	25.683	0	97.094	0	260.2	4	89.8	4	-1E+10	1	-1E+10	1	-1E+10	1	-1E+10	1	-1E+10	1	-1E+10	1
4901784	91	C	12/31/2017	10:49	-133.423	43.694	0	99.60	0	8.2160	0	33.0150	4	25.685	0	98.780	0	260.0	4	89.7	4	-1E+10	1	-1E+10	1	-1E+10	1	-1E+10	1	-1E+10	1	-1E+10	1
4901784	91	C	12/31/2017	10:49	-133.423	43.694	0	102.30	0	8.2140	0	33.0350	4	25.701	0	101.457	0	259.9	4	89.7	4	-1E+10	1	-1E+10	1	-1E+10	1	-1E+10	1	-1E+10	1	-1E+10	1
4901784	91	C	12/31/2017	10:49	-133.423	43.694	0	104.90	0	8.1960	0	33.0410	4	25.709	0	104.035	0	260.2	4	89.8	4	-1E+10	1	-1E+10	1	-1E+10	1	-1E+10	1	-1E+10	1	-1E+10	1
4901784	91	C	12/31/2017	10:49	-133.423	43.694	0	107.50	0	8.1280	0	33.0450	4	25.722	0	106.612	0	260.3	4	89.7	4	-1E+10	1	-1E+10	1	-1E+10	1	-1E+10	1	-1E+10	1	-1E+10	1
4901784	91	C	12/31/2017	10:49	-133.423	43.694	0	110.10	0	8.0790	0	33.0460	4	25.730	0	109.190	0	259.5	4	89.3	4	-1E+10	1	-1E+10	1	-1E+10	1	-1E+10	1	-1E+10	1	-1E+10	1
4901784	91	C	12/31/2017	10:49	-133.423	43.694	0	112.70	0	8.0400	0	33.0490	4	25.738	0	111.768	0	257.5	4	88.6	4	-1E+10	1	-1E+10	1	-1E+10	1	-1E+10	1	-1E+10	1	-1E+10	1
4901784	91	C	12/31/2017	10:49	-133.423	43.694	0	115.40	0	7.9900	0	33.0530	4	25.748	0	114.445	0	255.1	4	87.6	4	-1E+10	1	-1E+10	1	-1E+10	1	-1E+10	1	-1E+10	1	-1E+10	1
4901784	91	C	12/31/2017	10:49	-133.423	43.694	0	117.20	0	7.9590	0	33.0550	4	25.754	0	116.230	0	252.9	4	86.8	4	-1E+10	1	-1E+10	1	-1E+10	1	-1E+10	1	-1E+10	1	-1E+10	1
4901784	91	C	12/31/2017	10:49	-133.423	43.694	0	120.00	0	7.9600	0	33.0690	4	25.765	0	119.006	0	247.3	4	84.9	4	-1E+10	1	-1E+10	1	-1E+10	1	-1E+10	1	-1E+10	1	-1E+10	1
4901784	91	C	12/31/2017	10:49	-133.423	43.694	0	122.20	0	8.0400	0	33.1000	4	25.778	0	121.187	0	240.1	4	82.6	4	-1E+10	1	-1E+10	1	-1E+10	1	-1E+10	1	-1E+10	1	-1E+10	1
4901784	91	C	12/31/2017	10:49	-133.423	43.694	0	125.10	0	8.2010	0	33.1590	4	25.801	0	124.062	0	228.6	4	79.0	4	-1E+10	1	-1E+10	1	-1E+10	1	-1E+10	1	-1E+10	1	-1E+10	1
4901784	91	C	12/31/2017	10:49	-133.423	43.694	0	127.30	0	8.2900	0	33.2070	4	25.825	0	126.243	0	221.6	4	76.7	4	-1E+10	1	-1E+10	1	-1E+10	1	-1E+10	1	-1E+10	1	-1E+10	1
4901784	91	C	12/31/2017	10:49	-133.423	43.694	0	129.60	0	8.3930	0	33.2630	4	25.854	0	128.523	0	212.7	4	73.9	4	-1E+10	1	-1E+10	1	-1E+10	1	-1E+10	1	-1E+10	1	-1E+10	1
4901784	91	C	12/31/2017	10:49	-133.423	43.694	0	132.80	0	8.5100	0	33.3360	4	25.893	0	131.696	0	203.1	4	70.7	4	-1E+10	1	-1E+10	1	-1E+10	1	-1E+10	1	-1E+10	1	-1E+10	1
4901784	91	C	12/31/2017	10:49	-133.423	43.694	0	135.10	0	8.5630	0	33.3790	4	25.919	0	133.976	0	196.2	4	68.4	4	-1E+10	1	-1E+10	1	-1E+10	1	-1E+10	1	-1E+10	1	-1E+10	1
4901784	91	C	12/31/2017	10:49	-133.423	43.694	0	137.60	0	8.5520	0	33.4730	4	25.994	0	136.454	0	190.5	4	66.5	4	-1E+10	1	-1E+10	1	-1E+10	1	-1E+10	1	-1E+10	1	-1E+10	1
4901784	91	C	12/31/2017	10:49	-133.423	43.694	0	140.00	0	8.5710	0	33.4890	4	26.004	0	138.833	0	185.0	4	64.6	4	-1E+10	1	-1E+10	1	-1E+10	1	-1E+10	1	-1E+10	1	-1E+10	1
4901784	91	C	12/31/2017	10:49	-133.423	43.694	0	142.60	0	8.6120	0	33.5490	4	26.045	0	141.411	0	178.4	4	62.4	4	-1E+10	1	-1E+10	1	-1E+10	1	-1E+10	1	-1E+10	1	-1E+10	1
4901784	91	C	12/31/2017	10:49	-133.423	43.694	0	145.10	0	8.6390	0	33.6070	4	26.086	0	143.889	0	175.7	4	61.5	4	-1E+10	1	-1E+10	1	-1E+10	1	-1E+10	1	-1E+10	1	-1E+10	1
4901784	91	C	12/31/2017	10:49	-133.423	43.694	0	147.60	0	8.5860	0	33.6450	4	26.124	0	146.367	0	175.2	4	61.3	4	-1E+10	1	-1E+10	1	-1E+10	1	-1E+10	1	-1E+10	1	-1E+10	1
4901784	91	C	12/31/2017	10:49	-133.423	43.694	0	150.00	0	8.5230	0	33.6790	4	26.161	0	148.746	0	172.6	4	60.3	4	-1E+10	1	-1E+10	1	-1E+10	1	-1E+10	1	-1E+10	1	-1E+10	1
4901784	91	C	12/31/2017	10:49	-133.423	43.694	0	152.60	0	8.5190	0	33.7180	4	26.192	0	151.324	0	164.4	4	57.4	4	-1E+10	1	-1E+10	1	-1E+10	1	-1E+10	1	-1E+10	1	-1E+10	1
4901784	91	C	12/31/2017	10:49	-133.423	43.694	0	155.30	0	8.5240	0	33.7770	4	26.237	0	154.000	0	159.5	4	55.7	4	-1E+10	1	-1E+10	1	-1E+10	1	-1E+10	1	-1E+10	1	-1E+10	1
4901784	91	C	12/31/2017	10:49	-133.423	43.694	0	157.10	0	8.4830	0	33.7990	4	26.261	0	155.784	0	163.4	4	57.1	4	-1E+10	1	-1E+10	1	-1E+10	1	-1E+10	1	-1E+10	1	-1E+10	1
4901784	91	C	12/31/2017	10:49	-133.423	43.694	0	159.90	0	8.4590	0	33.8580	4	26.311	0	158.560	0	168.6	4	58.9	4	-1E+10	1	-1E+10	1	-1E+10	1	-1E+10	1	-1E+10	1	-1E+10	1
4901784	91	C	12/31/2017	10:49	-133.423	43.694	0	162.70	0	8.4440	0	33.8870	4	26.336	0	161.335	0	167.1	4	58.4	4	-1E+10	1	-1E+10	1	-1E+10	1	-1E+10	1	-1E+10	1	-1E+10	1
4901784	91	C	12/31/2017	10:49	-133.423	43.694	0	164.60	0	8.3980	0	33.9070	4	26.359	0	163.218	0	165.0	4	57.6	4	-1E+10	1	-1E+10	1	-1E+10	1	-1E+10	1	-1E+10	1	-1E+10	1
4901784	91	C	12/31/2017	10:49	-133.423	43.694	0	167.40	0	8.3320	0	33.9240	4	26.382	0	165.994	0	165.0	4	57.5	4	-1E+10	1	-1E+10	1	-1E+10	1	-1E+10	1	-1E+10	1	-1E+10	1
4901784	91	C	12/31/2017	10:49	-133.423	43.694	0	170.20	0	8.3150	0	33.9330	4	26.392	0	168.769	0	166.4	4	57.9	4	-1E+10	1	-1E+10	1	-1E+10	1	-1E+10	1	-1E+10	1	-1E+10	1
4901784	91	C	12/31/2017	10:49	-133.423	43.694	0	172.10	0	8.2800	0	33.9500	4	26.410	0	170.652	0	167.0	4	58.1	4	-1E+10	1	-1E+10	1	-1E+10	1	-1E+10	1	-1E+10	1	-1E+10	1
4901784	91	C	12/31/2017	10:49	-133.423	43.694	0	175.00	0	8.2640	0	33.9540	4	26.416	0	173.527	0	168.7	4	58.7	4	-1E+10	1	-1E+10	1	-1E+10	1	-1E+10	1	-1E+10	1	-1E+10	1
4901784	91	C	12/31/2017	10:49	-133.423	43.694	0	177.80	0	8.2030	0	33.9710	4	26.438	0	176.302	0	170.0	4	59.1	4	-1E+10	1	-1E+10	1	-1E+10	1	-1E+10	1	-1E+10	1	-1E+10	1
4901784	91	C	12/31/2017	10:49	-133.423	43.694	0	179.70	0	8.1820	0	33.9740	4	26.444	0	178.185	0	170.5	4	59.2	4	-1E+10	1	-1E+10	1	-1E+10	1	-1E+10	1	-1E+10	1	-1E+10	1
4901784	91	C	12/31/2017	10:49	-133.423	43.694	0	182.60	0	8.1620	0	33.9820	4	26.453	0	181.060	0	171.0	4	59.4	4	-1E+10	1	-1E+10	1	-1E+10	1	-1E+10	1	-1E+10	1	-1E+10	1
4901784	91	C	12/31/2017	10:49	-133.423	43.694	0	185.00	0	8.1440	0	33.9860	4	26.459	0	183.438	0	170.8	4	59.3	4	-1E+10	1	-1E+10	1	-1E+10	1	-1E+10	1	-1E+10	1	-1E+10	1
4901784	91	C	12/31/2017	10:49	-133.423	43.694	0	187.40	0	8.1300	0	33.9870	4	26.462	0	185.817	0	170.2	4	59.1	4	-1E+10	1	-1E+10	1	-1E+10	1	-1E+10	1	-1E+10	1	-1E+10	1
4901784	91	C	12/31/2017	10:49	-133.423	43.694	0	189.80	0	8.1030	0	33.9890	4	26.468	0	188.195	0	169.5	4	58.8	4	-1E+10	1	-1E+10	1	-1E+10	1	-1E+10	1	-1E+10	1	-1E+10	1
4901784	91	C	12/31/2017	10:49	-133.423	43.694	0	192.10	0	8.0720	0	33.9890	4	26.472	0	190.475	0	168.5	4	58.4	4	-1E+10	1	-1E+10	1	-1E+10	1	-1E+10	1	-1E+10	1	-1E+10	1
4901784	91	C	12/31/2017	10:49	-133.423	43.694	0	194.60	0	8.0050	0	33.9910	4	26.484	0	192.953	0	167.6	4	58.0	4	-1E+10	1	-1E+10	1	-1E+10	1	-1E+10	1	-1E+10	1	-1E+10	1
4901784	91	C	12/31/2017	10:49	-133.423	43.694	0	197.80	0	7.9730	0	33.9910	4	26.489	0	196.124	0	166.7	4	57.7	4	-1E+10	1	-1E+10	1	-1E+10	1	-1E+10	1	-1E+10	1	-1E+10	1
4901784	91	C	12/31/2017	10:49	-133.423	43.694	0	200.30	0	7.9210	0	33.9930	4	26.498	0	198.602	0	165.8	4	57.3	4	-1E+10	1	-1E+10	1	-1E+10	1	-1E+10	1	-1E+10	1	-1E+10	1
4901784	91	C	12/31/2017	10:49	-133.423	43.694	0	202.70	0	7.8860	0	33.9930	4	26.503	0	200.980	0	164.8	4	56.9	4	-1E+10	1	-1E+10	1	-1E+10	1	-1E+10	1	-1E+10	1	-1E+10	1
4901784	91	C	12/31/2017	10:49	-133.423	43.694	0	205.20	0	7.8290	0	33.9950	4	26.513	0	203.458	0	163.7	4	56.4	4	-1E+10	1	-1E+10	1	-1E+10	1	-1E+10	1	-1E+10	1	-1E+10	1
4901784	91	C	12/31/2017	10:49	-133.423	43.694	0	207.70	0	7.8200	0	33.9940	4	26.513	0	205.935	0	162.6	4	56.0	4	-1E+10	1	-1E+10	1	-1E+10	1	-1E+10	1	-1E+10	1	-1E+10	1
4901784	91	C	12/31/2017	10:49	-133.423	43.694	0	210.10	0	7.7660	0	33.9930	4	26.521	0	208.314	0	160.9	4	55.4	4	-1E+10	1	-1E+10	1	-1E+10	1	-1E+10	1	-1E+10	1	-1E+10	1
4901784	91	C	12/31/2017	10:49	-133.423	43.694	0	212.60	0	7.7280	0	33.9930	4	26.526	0	210.791	0	159.4	4	54.8	4	-1E+10	1	-1E+10	1	-1E+10	1	-1E+10	1	-1E+10	1	-1E+10	1
4901784	91	C	12/31/2017	10:49	-133.423	43.694	0	215.00	0	7.6790	0	33.9940	4	26.534	0	213.169	0	158.0	4	54.3	4	-1E+10	1	-1E+10	1	-1E+10	1	-1E+10	1	-1E+10	1	-1E+10	1
4901784	91	C	12/31/2017	10:49	-133.423	43.694	0	217.40	0	7.6630	0	33.9970	4	26.539	0	215.548	0	155.7	4	53.5	4	-1E+10	1	-1E+10	1	-1E+10	1	-1E+10	1	-1E+10	1	-1E+10	1
4901784	91	C	12/31/2017	10:49	-133.423	43.694	0	219.90	0	7.6400	0	33.9960	4	26.541	0	218.025	0	152.3	4	52.3	4	-1E+10	1	-1E+10	1	-1E+10	1	-1E+10	1	-1E+10	1	-1E+10	1
4901784	91	C	12/31/2017	10:49	-133.423	43.694	0	222.30	0	7.5930	0	33.9960	4	26.548	0	220.403	0	148.8	4	51.0	4	-1E+10	1	-1E+10	1	-1E+10	1	-1E+10	1	-1E+10	1	-1E+10	1
4901784	91	C	12/31/2017	10:49	-133.423	43.694	0	224.80	0	7.5540	0	33.9960	4	26.554	0	222.881	0	145.6	4	49.9	4	-1E+10	1	-1E+10	1	-1E+10	1	-1E+10	1	-1E+10	1	-1E+10	1
4901784	91	C	12/31/2017	10:49	-133.423	43.694	0	227.30	0	7.5010	0	33.9960	4	26.561	0	225.358	0	140.2	4	48.0	4	-1E+10	1	-1E+10	1	-1E+10	1	-1E+10	1	-1E+10	1	-1E+10	1
4901784	91	C	12/31/2017	10:49	-133.423	43.694	0	229.80	0	7.4790	0	33.9970	4	26.565	0	227.835	0	132.6	4	45.4	4	-1E+10	1	-1E+10	1	-1E+10	1	-1E+10	1	-1E+10	1	-1E+10	1
4901784	91	C	12/31/2017	10:49	-133.423	43.694	0	232.30	0	7.4460	0	33.9970	4	26.570	0	230.313	0	126.7	4	43.3	4	-1E+10	1	-1E+10	1	-1E+10	1	-1E+10	1	-1E+10	1	-1E+10	1
4901784	91	C	12/31/2017	10:49	-133.423	43.694	0	234.80	0	7.4140	0	33.9990	4	26.576	0	232.790	0	120.2	4	41.0	4	-1E+10	1	-1E+10	1	-1E+10	1	-1E+10	1	-1E+10	1	-1E+10	1
4901784	91	C	12/31/2017	10:49	-133.423	43.694	0	237.30	0	7.3870	0	34.0000	4	26.581	0	235.267	0	122.9	4	41.9	4	-1E+10	1	-1E+10	1	-1E+10	1	-1E+10	1	-1E+10	1	-1E+10	1
4901784	91	C	12/31/2017	10:49	-133.423	43.694	0	239.70	0	7.3430	0	34.0010	4	26.588	0	237.645	0	125.2	4	42.7	4	-1E+10	1	-1E+10	1	-1E+10	1	-1E+10	1	-1E+10	1	-1E+10	1
4901784	91	C	12/31/2017	10:49	-133.423	43.694	0	242.10	0	7.3090	0	34.0000	4	26.592	0	240.023	0	124.8	4	42.5	4	-1E+10	1	-1E+10	1	-1E+10	1	-1E+10	1	-1E+10	1	-1E+10	1
4901784	91	C	12/31/2017	10:49	-133.423	43.694	0	244.60	0	7.2380	0	34.0030	4	26.604	0	242.500	0	121.6	4	41.4	4	-1E+10	1	-1E+10	1	-1E+10	1	-1E+10	1	-1E+10	1	-1E+10	1
4901784	91	C	12/31/2017	10:49	-133.423	43.694	0	247.10	0	7.1870	0	34.0070	4	26.614	0	244.977	0	122.0	4	41.5	4	-1E+10	1	-1E+10	1	-1E+10	1	-1E+10	1	-1E+10	1	-1E+10	1
4901784	91	C	12/31/2017	10:49	-133.423	43.694	0	249.60	0	7.1470	0	34.0080	4	26.621	0	247.454	0	124.6	4	42.3	4	-1E+10	1	-1E+10	1	-1E+10	1	-1E+10	1	-1E+10	1	-1E+10	1
4901784	91	C	12/31/2017	10:49	-133.423	43.694	0	252.20	0	7.1340	0	34.0070	4	26.622	0	250.030	0	129.2	4	43.8	4	-1E+10	1	-1E+10	1	-1E+10	1	-1E+10	1	-1E+10	1	-1E+10	1
4901784	91	C	12/31/2017	10:49	-133.423	43.694	0	254.80	0	7.0980	0	34.0060	4	26.626	0	252.606	0	136.5	4	46.3	4	-1E+10	1	-1E+10	1	-1E+10	1	-1E+10	1	-1E+10	1	-1E+10	1
4901784	91	C	12/31/2017	10:49	-133.423	43.694	0	257.30	0	7.0190	0	34.0030	4	26.634	0	255.083	0	138.3	4	46.8	4	-1E+10	1	-1E+10	1	-1E+10	1	-1E+10	1	-1E+10	1	-1E+10	1
4901784	91	C	12/31/2017	10:49	-133.423	43.694	0	259.80	0	6.9610	0	34.0030	4	26.642	0	257.560	0	136.5	4	46.1	4	-1E+10	1	-1E+10	1	-1E+10	1	-1E+10	1	-1E+10	1	-1E+10	1
4901784	91	C	12/31/2017	10:49	-133.423	43.694	0	262.40	0	6.9380	0	34.0030	4	26.645	0	260.136	0	133.7	4	45.2	4	-1E+10	1	-1E+10	1	-1E+10	1	-1E+10	1	-1E+10	1	-1E+10	1
4901784	91	C	12/31/2017	10:49	-133.423	43.694	0	264.90	0	6.9220	0	34.0040	4	26.648	0	262.613	0	130.8	4	44.2	4	-1E+10	1	-1E+10	1	-1E+10	1	-1E+10	1	-1E+10	1	-1E+10	1
4901784	91	C	12/31/2017	10:49	-133.423	43.694	0	267.50	0	6.9140	0	34.0050	4	26.650	0	265.189	0	132.0	4	44.6	4	-1E+10	1	-1E+10	1	-1E+10	1	-1E+10	1	-1E+10	1	-1E+10	1
4901784	91	C	12/31/2017	10:49	-133.423	43.694	0	270.00	0	6.8790	0	34.0040	4	26.654	0	267.666	0	134.7	4	45.5	4	-1E+10	1	-1E+10	1	-1E+10	1	-1E+10	1	-1E+10	1	-1E+10	1
4901784	91	C	12/31/2017	10:49	-133.423	43.694	0	272.50	0	6.8200	0	34.0070	4	26.665	0	270.142	0	135.4	4	45.6	4	-1E+10	1	-1E+10	1	-1E+10	1	-1E+10	1	-1E+10	1	-1E+10	1
4901784	91	C	12/31/2017	10:49	-133.423	43.694	0	275.00	0	6.7740	0	34.0080	4	26.672	0	272.619	0	134.3	4	45.2	4	-1E+10	1	-1E+10	1	-1E+10	1	-1E+10	1	-1E+10	1	-1E+10	1
4901784	91	C	12/31/2017	10:49	-133.423	43.694	0	277.50	0	6.7530	0	34.0080	4	26.674	0	275.096	0	133.1	4	44.8	4	-1E+10	1	-1E+10	1	-1E+10	1	-1E+10	1	-1E+10	1	-1E+10	1
4901784	91	C	12/31/2017	10:49	-133.423	43.694	0	280.10	0	6.7270	0	34.0090	4	26.679	0	277.672	0	131.9	4	44.4	4	-1E+10	1	-1E+10	1	-1E+10	1	-1E+10	1	-1E+10	1	-1E+10	1
4901784	91	C	12/31/2017	10:49	-133.423	43.694	0	282.60	0	6.6770	0	34.0080	4	26.685	0	280.148	0	130.7	4	43.9	4	-1E+10	1	-1E+10	1	-1E+10	1	-1E+10	1	-1E+10	1	-1E+10	1
4901784	91	C	12/31/2017	10:49	-133.423	43.694	0	285.20	0	6.6420	0	34.0070	4	26.689	0	282.724	0	129.4	4	43.4	4	-1E+10	1	-1E+10	1	-1E+10	1	-1E+10	1	-1E+10	1	-1E+10	1
4901784	91	C	12/31/2017	10:49	-133.423	43.694	0	287.80	0	6.5830	0	34.0100	4	26.699	0	285.299	0	128.1	4	42.9	4	-1E+10	1	-1E+10	1	-1E+10	1	-1E+10	1	-1E+10	1	-1E+10	1
4901784	91	C	12/31/2017	10:49	-133.423	43.694	0	290.30	0	6.5310	0	34.0140	4	26.709	0	287.776	0	127.0	4	42.5	4	-1E+10	1	-1E+10	1	-1E+10	1	-1E+10	1	-1E+10	1	-1E+10	1
4901784	91	C	12/31/2017	10:49	-133.423	43.694	0	292.10	0	6.4980	0	34.0100	4	26.710	0	289.559	0	126.4	4	42.3	4	-1E+10	1	-1E+10	1	-1E+10	1	-1E+10	1	-1E+10	1	-1E+10	1
4901784	91	C	12/31/2017	10:49	-133.423	43.694	0	294.80	0	6.4840	0	34.0110	4	26.713	0	292.234	0	125.5	4	42.0	4	-1E+10	1	-1E+10	1	-1E+10	1	-1E+10	1	-1E+10	1	-1E+10	1
4901784	91	C	12/31/2017	10:49	-133.423	43.694	0	297.50	0	6.4380	0	34.0090	4	26.717	0	294.908	0	124.4	4	41.6	4	-1E+10	1	-1E+10	1	-1E+10	1	-1E+10	1	-1E+10	1	-1E+10	1
4901784	91	C	12/31/2017	10:49	-133.423	43.694	0	300.00	0	6.3620	0	34.0030	4	26.722	0	297.385	0	123.8	4	41.3	4	-1E+10	1	-1E+10	1	-1E+10	1	-1E+10	1	-1E+10	1	-1E+10	1
4901784	91	C	12/31/2017	10:49	-133.423	43.694	0	302.60	0	6.3240	0	34.0030	4	26.727	0	299.960	0	123.3	4	41.1	4	-1E+10	1	-1E+10	1	-1E+10	1	-1E+10	1	-1E+10	1	-1E+10	1
4901784	91	C	12/31/2017	10:49	-133.423	43.694	0	305.30	0	6.3060	0	34.0020	4	26.729	0	302.635	0	122.8	4	40.9	4	-1E+10	1	-1E+10	1	-1E+10	1	-1E+10	1	-1E+10	1	-1E+10	1
4901784	91	C	12/31/2017	10:49	-133.423	43.694	0	308.00	0	6.2970	0	34.0010	4	26.729	0	305.309	0	122.2	4	40.7	4	-1E+10	1	-1E+10	1	-1E+10	1	-1E+10	1	-1E+10	1	-1E+10	1
4901784	91	C	12/31/2017	10:49	-133.423	43.694	0	309.70	0	6.2890	0	34.0000	4	26.729	0	306.993	0	121.8	4	40.5	4	-1E+10	1	-1E+10	1	-1E+10	1	-1E+10	1	-1E+10	1	-1E+10	1
4901784	91	C	12/31/2017	10:49	-133.423	43.694	0	312.30	0	6.2660	0	33.9980	4	26.731	0	309.568	0	120.7	4	40.2	4	-1E+10	1	-1E+10	1	-1E+10	1	-1E+10	1	-1E+10	1	-1E+10	1
4901784	91	C	12/31/2017	10:49	-133.423	43.694	0	314.90	0	6.2290	0	33.9940	4	26.732	0	312.144	0	119.5	4	39.7	4	-1E+10	1	-1E+10	1	-1E+10	1	-1E+10	1	-1E+10	1	-1E+10	1
4901784	91	C	12/31/2017	10:49	-133.423	43.694	0	317.50	0	6.1690	0	33.9930	4	26.739	0	314.719	0	118.1	4	39.2	4	-1E+10	1	-1E+10	1	-1E+10	1	-1E+10	1	-1E+10	1	-1E+10	1
4901784	91	C	12/31/2017	10:49	-133.423	43.694	0	320.10	0	6.1290	0	33.9920	4	26.744	0	317.294	0	116.7	4	38.7	4	-1E+10	1	-1E+10	1	-1E+10	1	-1E+10	1	-1E+10	1	-1E+10	1
4901784	91	C	12/31/2017	10:49	-133.423	43.694	0	322.80	0	6.0830	0	33.9920	4	26.749	0	319.968	0	115.1	4	38.1	4	-1E+10	1	-1E+10	1	-1E+10	1	-1E+10	1	-1E+10	1	-1E+10	1
4901784	91	C	12/31/2017	10:49	-133.423	43.694	0	325.40	0	6.0340	0	33.9910	4	26.755	0	322.544	0	113.7	4	37.6	4	-1E+10	1	-1E+10	1	-1E+10	1	-1E+10	1	-1E+10	1	-1E+10	1
4901784	91	C	12/31/2017	10:49	-133.423	43.694	0	327.10	0	5.9850	0	33.9890	4	26.759	0	324.227	0	112.8	4	37.3	4	-1E+10	1	-1E+10	1	-1E+10	1	-1E+10	1	-1E+10	1	-1E+10	1
4901784	91	C	12/31/2017	10:49	-133.423	43.694	0	329.70	0	5.9540	0	33.9900	4	26.764	0	326.802	0	111.7	4	36.9	4	-1E+10	1	-1E+10	1	-1E+10	1	-1E+10	1	-1E+10	1	-1E+10	1
4901784	91	C	12/31/2017	10:49	-133.423	43.694	0	332.40	0	5.9240	0	33.9910	4	26.769	0	329.476	0	110.5	4	36.4	4	-1E+10	1	-1E+10	1	-1E+10	1	-1E+10	1	-1E+10	1	-1E+10	1
4901784	91	C	12/31/2017	10:49	-133.423	43.694	0	335.10	0	5.9020	0	33.9890	4	26.770	0	332.151	0	109.1	4	36.0	4	-1E+10	1	-1E+10	1	-1E+10	1	-1E+10	1	-1E+10	1	-1E+10	1
4901784	91	C	12/31/2017	10:49	-133.423	43.694	0	337.80	0	5.8570	0	33.9980	4	26.782	0	334.825	0	107.4	4	35.4	4	-1E+10	1	-1E+10	1	-1E+10	1	-1E+10	1	-1E+10	1	-1E+10	1
4901784	91	C	12/31/2017	10:49	-133.423	43.694	0	339.60	0	5.8160	0	33.9960	4	26.786	0	336.607	0	106.7	4	35.1	4	-1E+10	1	-1E+10	1	-1E+10	1	-1E+10	1	-1E+10	1	-1E+10	1
4901784	91	C	12/31/2017	10:49	-133.423	43.694	0	342.40	0	5.8030	0	33.9940	4	26.786	0	339.380	0	105.0	4	34.6	4	-1E+10	1	-1E+10	1	-1E+10	1	-1E+10	1	-1E+10	1	-1E+10	1
4901784	91	C	12/31/2017	10:49	-133.423	43.694	0	345.10	0	5.7110	0	33.9940	4	26.797	0	342.054	0	103.4	4	33.9	4	-1E+10	1	-1E+10	1	-1E+10	1	-1E+10	1	-1E+10	1	-1E+10	1
4901784	91	C	12/31/2017	10:49	-133.423	43.694	0	347.80	0	5.6750	0	33.9930	4	26.801	0	344.728	0	102.4	4	33.6	4	-1E+10	1	-1E+10	1	-1E+10	1	-1E+10	1	-1E+10	1	-1E+10	1
4901784	91	C	12/31/2017	10:49	-133.423	43.694	0	350.50	0	5.6540	0	33.9920	4	26.803	0	347.402	0	101.6	4	33.3	4	-1E+10	1	-1E+10	1	-1E+10	1	-1E+10	1	-1E+10	1	-1E+10	1
4901784	91	C	12/31/2017	10:49	-133.423	43.694	0	352.30	0	5.6490	0	33.9910	4	26.802	0	349.185	0	100.9	4	33.1	4	-1E+10	1	-1E+10	1	-1E+10	1	-1E+10	1	-1E+10	1	-1E+10	1
4901784	91	C	12/31/2017	10:49	-133.423	43.694	0	355.10	0	5.6250	0	33.9930	4	26.807	0	351.958	0	99.6	4	32.6	4	-1E+10	1	-1E+10	1	-1E+10	1	-1E+10	1	-1E+10	1	-1E+10	1
4901784	91	C	12/31/2017	10:49	-133.423	43.694	0	357.80	0	5.5480	0	33.9990	4	26.821	0	354.631	0	98.6	4	32.3	4	-1E+10	1	-1E+10	1	-1E+10	1	-1E+10	1	-1E+10	1	-1E+10	1
4901784	91	C	12/31/2017	10:49	-133.423	43.694	0	359.70	0	5.5500	0	33.9980	4	26.820	0	356.513	0	98.3	4	32.2	4	-1E+10	1	-1E+10	1	-1E+10	1	-1E+10	1	-1E+10	1	-1E+10	1
4901784	91	C	12/31/2017	10:49	-133.423	43.694	0	362.40	0	5.5190	0	34.0000	4	26.825	0	359.187	0	97.9	4	32.0	4	-1E+10	1	-1E+10	1	-1E+10	1	-1E+10	1	-1E+10	1	-1E+10	1
4901784	91	C	12/31/2017	10:49	-133.423	43.694	0	365.20	0	5.5040	0	34.0020	4	26.829	0	361.959	0	97.3	4	31.8	4	-1E+10	1	-1E+10	1	-1E+10	1	-1E+10	1	-1E+10	1	-1E+10	1
4901784	91	C	12/31/2017	10:49	-133.423	43.694	0	367.00	0	5.4880	0	34.0030	4	26.831	0	363.742	0	96.9	4	31.7	4	-1E+10	1	-1E+10	1	-1E+10	1	-1E+10	1	-1E+10	1	-1E+10	1
4901784	91	C	12/31/2017	10:49	-133.423	43.694	0	369.90	0	5.4710	0	34.0060	4	26.836	0	366.614	0	96.2	4	31.4	4	-1E+10	1	-1E+10	1	-1E+10	1	-1E+10	1	-1E+10	1	-1E+10	1
4901784	91	C	12/31/2017	10:49	-133.423	43.694	0	372.70	0	5.4480	0	34.0060	4	26.839	0	369.386	0	95.4	4	31.1	4	-1E+10	1	-1E+10	1	-1E+10	1	-1E+10	1	-1E+10	1	-1E+10	1
4901784	91	C	12/31/2017	10:49	-133.423	43.694	0	374.60	0	5.4400	0	34.0060	4	26.840	0	371.268	0	94.7	4	30.9	4	-1E+10	1	-1E+10	1	-1E+10	1	-1E+10	1	-1E+10	1	-1E+10	1
4901784	91	C	12/31/2017	10:49	-133.423	43.694	0	377.40	0	5.4130	0	34.0060	4	26.843	0	374.040	0	93.9	4	30.6	4	-1E+10	1	-1E+10	1	-1E+10	1	-1E+10	1	-1E+10	1	-1E+10	1
4901784	91	C	12/31/2017	10:49	-133.423	43.694	0	380.80	0	5.3890	0	34.0090	4	26.848	0	377.407	0	93.0	4	30.3	4	-1E+10	1	-1E+10	1	-1E+10	1	-1E+10	1	-1E+10	1	-1E+10	1
4901784	91	C	12/31/2017	10:49	-133.423	43.694	0	382.70	0	5.3800	0	34.0090	4	26.849	0	379.288	0	92.2	4	30.1	4	-1E+10	1	-1E+10	1	-1E+10	1	-1E+10	1	-1E+10	1	-1E+10	1
4901784	91	C	12/31/2017	10:49	-133.423	43.694	0	385.10	0	5.3610	0	34.0110	4	26.853	0	381.665	0	90.7	4	29.6	4	-1E+10	1	-1E+10	1	-1E+10	1	-1E+10	1	-1E+10	1	-1E+10	1
4901784	91	C	12/31/2017	10:49	-133.423	43.694	0	387.60	0	5.3460	0	34.0090	4	26.853	0	384.140	0	89.3	4	29.1	4	-1E+10	1	-1E+10	1	-1E+10	1	-1E+10	1	-1E+10	1	-1E+10	1
4901784	91	C	12/31/2017	10:49	-133.423	43.694	0	390.10	0	5.3070	0	34.0100	4	26.859	0	386.615	0	87.8	4	28.6	4	-1E+10	1	-1E+10	1	-1E+10	1	-1E+10	1	-1E+10	1	-1E+10	1
4901784	91	C	12/31/2017	10:49	-133.423	43.694	0	392.50	0	5.2620	0	34.0120	4	26.865	0	388.992	0	86.6	4	28.1	4	-1E+10	1	-1E+10	1	-1E+10	1	-1E+10	1	-1E+10	1	-1E+10	1
4901784	91	C	12/31/2017	10:49	-133.423	43.694	0	395.00	0	5.2450	0	34.0110	4	26.867	0	391.467	0	85.5	4	27.8	4	-1E+10	1	-1E+10	1	-1E+10	1	-1E+10	1	-1E+10	1	-1E+10	1
4901784	91	C	12/31/2017	10:49	-133.423	43.694	0	397.40	0	5.2180	0	34.0110	4	26.870	0	393.843	0	84.8	4	27.5	4	-1E+10	1	-1E+10	1	-1E+10	1	-1E+10	1	-1E+10	1	-1E+10	1
4901784	91	C	12/31/2017	10:49	-133.423	43.694	0	399.90	0	5.2070	0	34.0140	4	26.873	0	396.318	0	84.3	4	27.4	4	-1E+10	1	-1E+10	1	-1E+10	1	-1E+10	1	-1E+10	1	-1E+10	1
4901784	91	C	12/31/2017	10:49	-133.423	43.694	0	402.40	0	5.2020	0	34.0160	4	26.876	0	398.794	0	83.3	4	27.0	4	-1E+10	1	-1E+10	1	-1E+10	1	-1E+10	1	-1E+10	1	-1E+10	1
4901784	91	C	12/31/2017	10:49	-133.423	43.694	0	404.80	0	5.1910	0	34.0150	4	26.876	0	401.170	0	81.7	4	26.5	4	-1E+10	1	-1E+10	1	-1E+10	1	-1E+10	1	-1E+10	1	-1E+10	1
4901784	91	C	12/31/2017	10:49	-133.423	43.694	0	407.30	0	5.1430	0	34.0150	4	26.882	0	403.645	0	80.4	4	26.0	4	-1E+10	1	-1E+10	1	-1E+10	1	-1E+10	1	-1E+10	1	-1E+10	1
4901784	91	C	12/31/2017	10:49	-133.423	43.694	0	409.80	0	5.1170	0	34.0190	4	26.888	0	406.120	0	79.7	4	25.8	4	-1E+10	1	-1E+10	1	-1E+10	1	-1E+10	1	-1E+10	1	-1E+10	1
4901784	91	C	12/31/2017	10:49	-133.423	43.694	0	412.20	0	5.1020	0	34.0190	4	26.890	0	408.496	0	79.8	4	25.8	4	-1E+10	1	-1E+10	1	-1E+10	1	-1E+10	1	-1E+10	1	-1E+10	1
4901784	91	C	12/31/2017	10:49	-133.423	43.694	0	414.70	0	5.1000	0	34.0240	4	26.894	0	410.971	0	79.7	4	25.8	4	-1E+10	1	-1E+10	1	-1E+10	1	-1E+10	1	-1E+10	1	-1E+10	1
4901784	91	C	12/31/2017	10:49	-133.423	43.694	0	417.20	0	5.0940	0	34.0280	4	26.898	0	413.446	0	78.9	4	25.5	4	-1E+10	1	-1E+10	1	-1E+10	1	-1E+10	1	-1E+10	1	-1E+10	1
4901784	91	C	12/31/2017	10:49	-133.423	43.694	0	419.70	0	5.0780	0	34.0290	4	26.900	0	415.921	0	77.8	4	25.2	4	-1E+10	1	-1E+10	1	-1E+10	1	-1E+10	1	-1E+10	1	-1E+10	1
4901784	91	C	12/31/2017	10:49	-133.423	43.694	0	422.20	0	5.0500	0	34.0330	4	26.907	0	418.396	0	76.7	4	24.8	4	-1E+10	1	-1E+10	1	-1E+10	1	-1E+10	1	-1E+10	1	-1E+10	1
4901784	91	C	12/31/2017	10:49	-133.423	43.694	0	424.90	0	5.0300	0	34.0350	4	26.911	0	421.069	0	75.6	4	24.4	4	-1E+10	1	-1E+10	1	-1E+10	1	-1E+10	1	-1E+10	1	-1E+10	1
4901784	91	C	12/31/2017	10:49	-133.423	43.694	0	427.50	0	5.0080	0	34.0380	4	26.916	0	423.643	0	74.6	4	24.1	4	-1E+10	1	-1E+10	1	-1E+10	1	-1E+10	1	-1E+10	1	-1E+10	1
4901784	91	C	12/31/2017	10:49	-133.423	43.694	0	430.00	0	4.9900	0	34.0390	4	26.918	0	426.118	0	73.8	4	23.8	4	-1E+10	1	-1E+10	1	-1E+10	1	-1E+10	1	-1E+10	1	-1E+10	1
4901784	91	C	12/31/2017	10:49	-133.423	43.694	0	432.60	0	4.9770	0	34.0410	4	26.922	0	428.692	0	73.0	4	23.6	4	-1E+10	1	-1E+10	1	-1E+10	1	-1E+10	1	-1E+10	1	-1E+10	1
4901784	91	C	12/31/2017	10:49	-133.423	43.694	0	435.10	0	4.9610	0	34.0440	4	26.926	0	431.167	0	72.2	4	23.3	4	-1E+10	1	-1E+10	1	-1E+10	1	-1E+10	1	-1E+10	1	-1E+10	1
4901784	91	C	12/31/2017	10:49	-133.423	43.694	0	437.70	0	4.9520	0	34.0450	4	26.928	0	433.740	0	71.5	4	23.1	4	-1E+10	1	-1E+10	1	-1E+10	1	-1E+10	1	-1E+10	1	-1E+10	1
4901784	91	C	12/31/2017	10:49	-133.423	43.694	0	440.30	0	4.9420	0	34.0470	4	26.930	0	436.314	0	70.7	4	22.8	4	-1E+10	1	-1E+10	1	-1E+10	1	-1E+10	1	-1E+10	1	-1E+10	1
4901784	91	C	12/31/2017	10:49	-133.423	43.694	0	442.90	0	4.9400	0	34.0470	4	26.931	0	438.888	0	69.9	4	22.5	4	-1E+10	1	-1E+10	1	-1E+10	1	-1E+10	1	-1E+10	1	-1E+10	1
4901784	91	C	12/31/2017	10:49	-133.423	43.694	0	444.60	0	4.9300	0	34.0480	4	26.933	0	440.571	0	69.1	4	22.3	4	-1E+10	1	-1E+10	1	-1E+10	1	-1E+10	1	-1E+10	1	-1E+10	1
4901784	91	C	12/31/2017	10:49	-133.423	43.694	0	447.20	0	4.9180	0	34.0500	4	26.935	0	443.144	0	67.6	4	21.8	4	-1E+10	1	-1E+10	1	-1E+10	1	-1E+10	1	-1E+10	1	-1E+10	1
4901784	91	C	12/31/2017	10:49	-133.423	43.694	0	449.80	0	4.9110	0	34.0510	4	26.937	0	445.718	0	65.9	4	21.2	4	-1E+10	1	-1E+10	1	-1E+10	1	-1E+10	1	-1E+10	1	-1E+10	1
4901784	91	C	12/31/2017	10:49	-133.423	43.694	0	452.50	0	4.8920	0	34.0550	4	26.942	0	448.390	0	63.0	4	20.3	4	-1E+10	1	-1E+10	1	-1E+10	1	-1E+10	1	-1E+10	1	-1E+10	1
4901784	91	C	12/31/2017	10:49	-133.423	43.694	0	455.10	0	4.8660	0	34.0590	4	26.949	0	450.964	0	60.2	4	19.4	4	-1E+10	1	-1E+10	1	-1E+10	1	-1E+10	1	-1E+10	1	-1E+10	1
4901784	91	C	12/31/2017	10:49	-133.423	43.694	0	457.80	0	4.8610	0	34.0650	4	26.954	0	453.636	0	57.3	4	18.5	4	-1E+10	1	-1E+10	1	-1E+10	1	-1E+10	1	-1E+10	1	-1E+10	1
4901784	91	C	12/31/2017	10:49	-133.423	43.694	0	460.50	0	4.8670	0	34.0720	4	26.959	0	456.309	0	53.8	4	17.3	4	-1E+10	1	-1E+10	1	-1E+10	1	-1E+10	1	-1E+10	1	-1E+10	1
4901784	91	C	12/31/2017	10:49	-133.423	43.694	0	462.30	0	4.9060	0	34.0810	4	26.962	0	458.091	0	51.1	4	16.5	4	-1E+10	1	-1E+10	1	-1E+10	1	-1E+10	1	-1E+10	1	-1E+10	1
4901784	91	C	12/31/2017	10:49	-133.423	43.694	0	465.00	0	4.9460	0	34.0920	4	26.966	0	460.763	0	47.7	4	15.4	4	-1E+10	1	-1E+10	1	-1E+10	1	-1E+10	1	-1E+10	1	-1E+10	1
4901784	91	C	12/31/2017	10:49	-133.423	43.694	0	467.70	0	5.0120	0	34.1110	4	26.973	0	463.435	0	44.8	4	14.5	4	-1E+10	1	-1E+10	1	-1E+10	1	-1E+10	1	-1E+10	1	-1E+10	1
4901784	91	C	12/31/2017	10:49	-133.423	43.694	0	469.50	0	5.0230	0	34.1160	4	26.976	0	465.217	0	44.4	4	14.4	4	-1E+10	1	-1E+10	1	-1E+10	1	-1E+10	1	-1E+10	1	-1E+10	1
4901784	91	C	12/31/2017	10:49	-133.423	43.694	0	472.20	0	4.9870	0	34.1120	4	26.977	0	467.889	0	44.3	4	14.3	4	-1E+10	1	-1E+10	1	-1E+10	1	-1E+10	1	-1E+10	1	-1E+10	1
4901784	91	C	12/31/2017	10:49	-133.423	43.694	0	475.00	0	4.8770	0	34.1080	4	26.986	0	470.661	0	43.3	4	13.9	4	-1E+10	1	-1E+10	1	-1E+10	1	-1E+10	1	-1E+10	1	-1E+10	1
4901784	91	C	12/31/2017	10:49	-133.423	43.694	0	477.80	0	4.9570	0	34.1210	4	26.988	0	473.432	0	41.2	4	13.3	4	-1E+10	1	-1E+10	1	-1E+10	1	-1E+10	1	-1E+10	1	-1E+10	1
4901784	91	C	12/31/2017	10:49	-133.423	43.694	0	480.60	0	4.9960	0	34.1300	4	26.990	0	476.203	0	40.3	4	13.0	4	-1E+10	1	-1E+10	1	-1E+10	1	-1E+10	1	-1E+10	1	-1E+10	1
4901784	91	C	12/31/2017	10:49	-133.423	43.694	0	482.40	0	5.0090	0	34.1320	4	26.991	0	477.984	0	40.3	4	13.0	4	-1E+10	1	-1E+10	1	-1E+10	1	-1E+10	1	-1E+10	1	-1E+10	1
4901784	91	C	12/31/2017	10:49	-133.423	43.694	0	485.10	0	4.9660	0	34.1280	4	26.992	0	480.657	0	41.0	4	13.2	4	-1E+10	1	-1E+10	1	-1E+10	1	-1E+10	1	-1E+10	1	-1E+10	1
4901784	91	C	12/31/2017	10:49	-133.423	43.694	0	487.70	0	4.8760	0	34.1240	4	26.999	0	483.230	0	41.2	4	13.3	4	-1E+10	1	-1E+10	1	-1E+10	1	-1E+10	1	-1E+10	1	-1E+10	1
4901784	91	C	12/31/2017	10:49	-133.423	43.694	0	489.50	0	4.8470	0	34.1210	4	27.000	0	485.011	0	40.7	4	13.1	4	-1E+10	1	-1E+10	1	-1E+10	1	-1E+10	1	-1E+10	1	-1E+10	1
4901784	91	C	12/31/2017	10:49	-133.423	43.694	0	492.30	0	4.8460	0	34.1300	4	27.007	0	487.782	0	39.7	4	12.8	4	-1E+10	1	-1E+10	1	-1E+10	1	-1E+10	1	-1E+10	1	-1E+10	1
4901784	91	C	12/31/2017	10:49	-133.423	43.694	0	495.00	0	4.8440	0	34.1330	4	27.010	0	490.454	0	39.4	4	12.7	4	-1E+10	1	-1E+10	1	-1E+10	1	-1E+10	1	-1E+10	1	-1E+10	1
4901784	91	C	12/31/2017	10:49	-133.423	43.694	0	497.70	0	4.8450	0	34.1330	4	27.010	0	493.126	0	39.5	4	12.7	4	-1E+10	1	-1E+10	1	-1E+10	1	-1E+10	1	-1E+10	1	-1E+10	1
4901784	91	C	12/31/2017	10:49	-133.423	43.694	0	500.40	0	4.8010	0	34.1310	4	27.013	0	495.798	0	39.8	4	12.8	4	-1E+10	1	-1E+10	1	-1E+10	1	-1E+10	1	-1E+10	1	-1E+10	1
4901784	91	C	12/31/2017	10:49	-133.423	43.694	0	505.00	0	4.7370	0	34.1290	4	27.019	0	500.350	0	38.3	4	12.3	4	-1E+10	1	-1E+10	1	-1E+10	1	-1E+10	1	-1E+10	1	-1E+10	1
4901784	91	C	12/31/2017	10:49	-133.423	43.694	0	509.60	0	4.7480	0	34.1400	4	27.026	0	504.902	0	34.7	4	11.2	4	-1E+10	1	-1E+10	1	-1E+10	1	-1E+10	1	-1E+10	1	-1E+10	1
4901784	91	C	12/31/2017	10:49	-133.423	43.694	0	515.00	0	4.7940	0	34.1580	4	27.036	0	510.246	0	31.1	4	10.0	4	-1E+10	1	-1E+10	1	-1E+10	1	-1E+10	1	-1E+10	1	-1E+10	1
4901784	91	C	12/31/2017	10:49	-133.423	43.694	0	520.50	0	4.8530	0	34.1750	4	27.043	0	515.688	0	28.0	4	9.0	4	-1E+10	1	-1E+10	1	-1E+10	1	-1E+10	1	-1E+10	1	-1E+10	1
4901784	91	C	12/31/2017	10:49	-133.423	43.694	0	525.20	0	4.8840	0	34.1850	4	27.047	0	520.339	0	27.0	4	8.7	4	-1E+10	1	-1E+10	1	-1E+10	1	-1E+10	1	-1E+10	1	-1E+10	1
4901784	91	C	12/31/2017	10:49	-133.423	43.694	0	529.90	0	4.8770	0	34.1880	4	27.050	0	524.990	0	26.4	4	8.5	4	-1E+10	1	-1E+10	1	-1E+10	1	-1E+10	1	-1E+10	1	-1E+10	1
4901784	91	C	12/31/2017	10:49	-133.423	43.694	0	534.60	0	4.8700	0	34.1910	4	27.054	0	529.640	0	25.7	4	8.3	4	-1E+10	1	-1E+10	1	-1E+10	1	-1E+10	1	-1E+10	1	-1E+10	1
4901784	91	C	12/31/2017	10:49	-133.423	43.694	0	539.40	0	4.8580	0	34.1940	4	27.057	0	534.390	0	25.0	4	8.0	4	-1E+10	1	-1E+10	1	-1E+10	1	-1E+10	1	-1E+10	1	-1E+10	1
4901784	91	C	12/31/2017	10:49	-133.423	43.694	0	545.10	0	4.8410	0	34.1980	4	27.062	0	540.029	0	24.0	4	7.7	4	-1E+10	1	-1E+10	1	-1E+10	1	-1E+10	1	-1E+10	1	-1E+10	1
4901784	91	C	12/31/2017	10:49	-133.423	43.694	0	549.80	0	4.8260	0	34.2040	4	27.069	0	544.679	0	23.2	4	7.5	4	-1E+10	1	-1E+10	1	-1E+10	1	-1E+10	1	-1E+10	1	-1E+10	1
4901784	91	C	12/31/2017	10:49	-133.423	43.694	0	554.60	0	4.8050	0	34.2080	4	27.074	0	549.428	0	22.5	4	7.2	4	-1E+10	1	-1E+10	1	-1E+10	1	-1E+10	1	-1E+10	1	-1E+10	1
4901784	91	C	12/31/2017	10:49	-133.423	43.694	0	559.30	0	4.7820	0	34.2150	4	27.083	0	554.078	0	21.9	4	7.1	4	-1E+10	1	-1E+10	1	-1E+10	1	-1E+10	1	-1E+10	1	-1E+10	1
4901784	91	C	12/31/2017	10:49	-133.423	43.694	0	564.20	0	4.7690	0	34.2170	4	27.086	0	558.926	0	21.8	4	7.0	4	-1E+10	1	-1E+10	1	-1E+10	1	-1E+10	1	-1E+10	1	-1E+10	1
4901784	91	C	12/31/2017	10:49	-133.423	43.694	0	569.50	0	4.7590	0	34.2180	4	27.088	0	564.169	0	21.5	4	6.9	4	-1E+10	1	-1E+10	1	-1E+10	1	-1E+10	1	-1E+10	1	-1E+10	1
4901784	91	C	12/31/2017	10:49	-133.423	43.694	0	574.30	0	4.7500	0	34.2190	4	27.089	0	568.918	0	21.2	4	6.8	4	-1E+10	1	-1E+10	1	-1E+10	1	-1E+10	1	-1E+10	1	-1E+10	1
4901784	91	C	12/31/2017	10:49	-133.423	43.694	0	579.20	0	4.7380	0	34.2200	4	27.092	0	573.765	0	20.8	4	6.7	4	-1E+10	1	-1E+10	1	-1E+10	1	-1E+10	1	-1E+10	1	-1E+10	1
4901784	91	C	12/31/2017	10:49	-133.423	43.694	0	585.00	0	4.7150	0	34.2240	4	27.097	0	579.502	0	20.2	4	6.5	4	-1E+10	1	-1E+10	1	-1E+10	1	-1E+10	1	-1E+10	1	-1E+10	1
4901784	91	C	12/31/2017	10:49	-133.423	43.694	0	590.70	0	4.6870	0	34.2270	4	27.103	0	585.141	0	19.8	4	6.4	4	-1E+10	1	-1E+10	1	-1E+10	1	-1E+10	1	-1E+10	1	-1E+10	1
4901784	91	C	12/31/2017	10:49	-133.423	43.694	0	595.60	0	4.6630	0	34.2320	4	27.110	0	589.988	0	19.3	4	6.2	4	-1E+10	1	-1E+10	1	-1E+10	1	-1E+10	1	-1E+10	1	-1E+10	1
4901784	91	C	12/31/2017	10:49	-133.423	43.694	0	600.50	0	4.6590	0	34.2340	4	27.112	0	594.835	0	18.9	4	6.1	4	-1E+10	1	-1E+10	1	-1E+10	1	-1E+10	1	-1E+10	1	-1E+10	1
4901784	91	C	12/31/2017	10:49	-133.423	43.694	0	605.50	0	4.6500	0	34.2380	4	27.116	0	599.780	0	18.4	4	5.9	4	-1E+10	1	-1E+10	1	-1E+10	1	-1E+10	1	-1E+10	1	-1E+10	1
4901784	91	C	12/31/2017	10:49	-133.423	43.694	0	610.50	0	4.6410	0	34.2410	4	27.119	0	604.726	0	18.0	4	5.8	4	-1E+10	1	-1E+10	1	-1E+10	1	-1E+10	1	-1E+10	1	-1E+10	1
4901784	91	C	12/31/2017	10:49	-133.423	43.694	0	615.60	0	4.6200	0	34.2450	4	27.125	0	609.770	0	17.5	4	5.6	4	-1E+10	1	-1E+10	1	-1E+10	1	-1E+10	1	-1E+10	1	-1E+10	1
4901784	91	C	12/31/2017	10:49	-133.423	43.694	0	620.70	0	4.5950	0	34.2490	4	27.131	0	614.814	0	17.1	4	5.5	4	-1E+10	1	-1E+10	1	-1E+10	1	-1E+10	1	-1E+10	1	-1E+10	1
4901784	91	C	12/31/2017	10:49	-133.423	43.694	0	625.00	0	4.5760	0	34.2540	4	27.137	0	619.067	0	16.8	4	5.4	4	-1E+10	1	-1E+10	1	-1E+10	1	-1E+10	1	-1E+10	1	-1E+10	1
4901784	91	C	12/31/2017	10:49	-133.423	43.694	0	629.20	0	4.5650	0	34.2560	4	27.140	0	623.221	0	16.6	4	5.3	4	-1E+10	1	-1E+10	1	-1E+10	1	-1E+10	1	-1E+10	1	-1E+10	1
4901784	91	C	12/31/2017	10:49	-133.423	43.694	0	634.30	0	4.5570	0	34.2580	4	27.142	0	628.265	0	16.4	4	5.2	4	-1E+10	1	-1E+10	1	-1E+10	1	-1E+10	1	-1E+10	1	-1E+10	1
4901784	91	C	12/31/2017	10:49	-133.423	43.694	0	639.50	0	4.5470	0	34.2600	4	27.145	0	633.407	0	16.0	4	5.1	4	-1E+10	1	-1E+10	1	-1E+10	1	-1E+10	1	-1E+10	1	-1E+10	1
4901784	91	C	12/31/2017	10:49	-133.423	43.694	0	644.80	0	4.5260	0	34.2660	4	27.152	0	638.649	0	15.5	4	4.9	4	-1E+10	1	-1E+10	1	-1E+10	1	-1E+10	1	-1E+10	1	-1E+10	1
4901784	91	C	12/31/2017	10:49	-133.423	43.694	0	649.90	0	4.5170	0	34.2730	4	27.159	0	643.692	0	15.1	4	4.8	4	-1E+10	1	-1E+10	1	-1E+10	1	-1E+10	1	-1E+10	1	-1E+10	1
4901784	91	C	12/31/2017	10:49	-133.423	43.694	0	655.10	0	4.4950	0	34.2750	4	27.163	0	648.834	0	15.2	4	4.8	4	-1E+10	1	-1E+10	1	-1E+10	1	-1E+10	1	-1E+10	1	-1E+10	1
4901784	91	C	12/31/2017	10:49	-133.423	43.694	0	660.30	0	4.4450	0	34.2750	4	27.168	0	653.977	0	15.3	4	4.9	4	-1E+10	1	-1E+10	1	-1E+10	1	-1E+10	1	-1E+10	1	-1E+10	1
4901784	91	C	12/31/2017	10:49	-133.423	43.694	0	665.40	0	4.4030	0	34.2760	4	27.173	0	659.020	0	15.3	4	4.9	4	-1E+10	1	-1E+10	1	-1E+10	1	-1E+10	1	-1E+10	1	-1E+10	1
4901784	91	C	12/31/2017	10:49	-133.423	43.694	0	670.60	0	4.3710	0	34.2770	4	27.178	0	664.161	0	15.5	4	4.9	4	-1E+10	1	-1E+10	1	-1E+10	1	-1E+10	1	-1E+10	1	-1E+10	1
4901784	91	C	12/31/2017	10:49	-133.423	43.694	0	675.00	0	4.3360	0	34.2750	4	27.180	0	668.512	0	15.6	4	5.0	4	-1E+10	1	-1E+10	1	-1E+10	1	-1E+10	1	-1E+10	1	-1E+10	1
4901784	91	C	12/31/2017	10:49	-133.423	43.694	0	679.50	0	4.3100	0	34.2750	4	27.182	0	672.962	0	15.6	4	5.0	4	-1E+10	1	-1E+10	1	-1E+10	1	-1E+10	1	-1E+10	1	-1E+10	1
4901784	91	C	12/31/2017	10:49	-133.423	43.694	0	685.00	0	4.2540	0	34.2760	4	27.189	0	678.400	0	15.4	4	4.9	4	-1E+10	1	-1E+10	1	-1E+10	1	-1E+10	1	-1E+10	1	-1E+10	1
4901784	91	C	12/31/2017	10:49	-133.423	43.694	0	690.40	0	4.2550	0	34.2810	4	27.193	0	683.739	0	14.9	4	4.8	4	-1E+10	1	-1E+10	1	-1E+10	1	-1E+10	1	-1E+10	1	-1E+10	1
4901784	91	C	12/31/2017	10:49	-133.423	43.694	0	694.90	0	4.2660	0	34.2870	4	27.197	0	688.188	0	14.4	4	4.6	4	-1E+10	1	-1E+10	1	-1E+10	1	-1E+10	1	-1E+10	1	-1E+10	1
4901784	91	C	12/31/2017	10:49	-133.423	43.694	0	699.60	0	4.2660	0	34.2880	4	27.198	0	692.835	0	13.8	4	4.4	4	-1E+10	1	-1E+10	1	-1E+10	1	-1E+10	1	-1E+10	1	-1E+10	1
4901784	91	C	12/31/2017	10:49	-133.423	43.694	0	705.10	0	4.2900	0	34.3030	4	27.207	0	698.272	0	12.9	4	4.1	4	-1E+10	1	-1E+10	1	-1E+10	1	-1E+10	1	-1E+10	1	-1E+10	1
4901784	91	C	12/31/2017	10:49	-133.423	43.694	0	710.00	0	4.3160	0	34.3180	4	27.216	0	703.117	0	12.3	4	3.9	4	-1E+10	1	-1E+10	1	-1E+10	1	-1E+10	1	-1E+10	1	-1E+10	1
4901784	91	C	12/31/2017	10:49	-133.423	43.694	0	715.40	0	4.3210	0	34.3220	4	27.219	0	708.455	0	12.1	4	3.8	4	-1E+10	1	-1E+10	1	-1E+10	1	-1E+10	1	-1E+10	1	-1E+10	1
4901784	91	C	12/31/2017	10:49	-133.423	43.694	0	720.10	0	4.3110	0	34.3240	4	27.222	0	713.102	0	11.9	4	3.8	4	-1E+10	1	-1E+10	1	-1E+10	1	-1E+10	1	-1E+10	1	-1E+10	1
4901784	91	C	12/31/2017	10:49	-133.423	43.694	0	724.90	0	4.3020	0	34.3270	4	27.225	0	717.847	0	11.8	4	3.7	4	-1E+10	1	-1E+10	1	-1E+10	1	-1E+10	1	-1E+10	1	-1E+10	1
4901784	91	C	12/31/2017	10:49	-133.423	43.694	0	729.80	0	4.2870	0	34.3320	4	27.231	0	722.691	0	11.6	4	3.7	4	-1E+10	1	-1E+10	1	-1E+10	1	-1E+10	1	-1E+10	1	-1E+10	1
4901784	91	C	12/31/2017	10:49	-133.423	43.694	0	734.70	0	4.2700	0	34.3360	4	27.236	0	727.534	0	11.4	4	3.6	4	-1E+10	1	-1E+10	1	-1E+10	1	-1E+10	1	-1E+10	1	-1E+10	1
4901784	91	C	12/31/2017	10:49	-133.423	43.694	0	739.60	0	4.2570	0	34.3410	4	27.241	0	732.378	0	11.3	4	3.6	4	-1E+10	1	-1E+10	1	-1E+10	1	-1E+10	1	-1E+10	1	-1E+10	1
4901784	91	C	12/31/2017	10:49	-133.423	43.694	0	744.60	0	4.2410	0	34.3420	4	27.244	0	737.320	0	11.2	4	3.6	4	-1E+10	1	-1E+10	1	-1E+10	1	-1E+10	1	-1E+10	1	-1E+10	1
4901784	91	C	12/31/2017	10:49	-133.423	43.694	0	749.60	0	4.2300	0	34.3470	4	27.249	0	742.262	0	11.0	4	3.5	4	-1E+10	1	-1E+10	1	-1E+10	1	-1E+10	1	-1E+10	1	-1E+10	1
4901784	91	C	12/31/2017	10:49	-133.423	43.694	0	754.60	0	4.2260	0	34.3520	4	27.253	0	747.205	0	10.9	4	3.5	4	-1E+10	1	-1E+10	1	-1E+10	1	-1E+10	1	-1E+10	1	-1E+10	1
4901784	91	C	12/31/2017	10:49	-133.423	43.694	0	759.60	0	4.2180	0	34.3540	4	27.256	0	752.147	0	10.8	4	3.4	4	-1E+10	1	-1E+10	1	-1E+10	1	-1E+10	1	-1E+10	1	-1E+10	1
4901784	91	C	12/31/2017	10:49	-133.423	43.694	0	764.60	0	4.2060	0	34.3570	4	27.259	0	757.088	0	10.7	4	3.4	4	-1E+10	1	-1E+10	1	-1E+10	1	-1E+10	1	-1E+10	1	-1E+10	1
4901784	91	C	12/31/2017	10:49	-133.423	43.694	0	769.60	0	4.1840	0	34.3620	4	27.266	0	762.030	0	10.6	4	3.4	4	-1E+10	1	-1E+10	1	-1E+10	1	-1E+10	1	-1E+10	1	-1E+10	1
4901784	91	C	12/31/2017	10:49	-133.423	43.694	0	774.80	0	4.1660	0	34.3660	4	27.271	0	767.170	0	10.5	4	3.3	4	-1E+10	1	-1E+10	1	-1E+10	1	-1E+10	1	-1E+10	1	-1E+10	1
4901784	91	C	12/31/2017	10:49	-133.423	43.694	0	780.00	0	4.1540	0	34.3690	4	27.274	0	772.309	0	10.4	4	3.3	4	-1E+10	1	-1E+10	1	-1E+10	1	-1E+10	1	-1E+10	1	-1E+10	1
4901784	91	C	12/31/2017	10:49	-133.423	43.694	0	785.10	0	4.1440	0	34.3720	4	27.278	0	777.349	0	10.4	4	3.3	4	-1E+10	1	-1E+10	1	-1E+10	1	-1E+10	1	-1E+10	1	-1E+10	1
4901784	91	C	12/31/2017	10:49	-133.423	43.694	0	790.30	0	4.1250	0	34.3750	4	27.282	0	782.488	0	10.4	4	3.3	4	-1E+10	1	-1E+10	1	-1E+10	1	-1E+10	1	-1E+10	1	-1E+10	1
4901784	91	C	12/31/2017	10:49	-133.423	43.694	0	795.50	0	4.1010	0	34.3780	4	27.287	0	787.627	0	10.3	4	3.3	4	-1E+10	1	-1E+10	1	-1E+10	1	-1E+10	1	-1E+10	1	-1E+10	1
4901784	91	C	12/31/2017	10:49	-133.423	43.694	0	800.70	0	4.0850	0	34.3800	4	27.290	0	792.765	0	10.3	4	3.3	4	-1E+10	1	-1E+10	1	-1E+10	1	-1E+10	1	-1E+10	1	-1E+10	1
4901784	91	C	12/31/2017	10:49	-133.423	43.694	0	805.00	0	4.0730	0	34.3820	4	27.293	0	797.014	0	10.3	4	3.3	4	-1E+10	1	-1E+10	1	-1E+10	1	-1E+10	1	-1E+10	1	-1E+10	1
4901784	91	C	12/31/2017	10:49	-133.423	43.694	0	809.30	0	4.0540	0	34.3860	4	27.298	0	801.264	0	10.3	4	3.2	4	-1E+10	1	-1E+10	1	-1E+10	1	-1E+10	1	-1E+10	1	-1E+10	1
4901784	91	C	12/31/2017	10:49	-133.423	43.694	0	814.50	0	4.0430	0	34.3900	4	27.303	0	806.402	0	10.2	4	3.2	4	-1E+10	1	-1E+10	1	-1E+10	1	-1E+10	1	-1E+10	1	-1E+10	1
4901784	91	C	12/31/2017	10:49	-133.423	43.694	0	819.70	0	4.0370	0	34.3930	4	27.306	0	811.540	0	10.2	4	3.2	4	-1E+10	1	-1E+10	1	-1E+10	1	-1E+10	1	-1E+10	1	-1E+10	1
4901784	91	C	12/31/2017	10:49	-133.423	43.694	0	825.00	0	4.0180	0	34.3970	4	27.311	0	816.777	0	10.2	4	3.2	4	-1E+10	1	-1E+10	1	-1E+10	1	-1E+10	1	-1E+10	1	-1E+10	1
4901784	91	C	12/31/2017	10:49	-133.423	43.694	0	830.40	0	4.0000	0	34.4020	4	27.317	0	822.113	0	10.2	4	3.2	4	-1E+10	1	-1E+10	1	-1E+10	1	-1E+10	1	-1E+10	1	-1E+10	1
4901784	91	C	12/31/2017	10:49	-133.423	43.694	0	834.90	0	3.9810	0	34.4030	4	27.320	0	826.559	0	10.2	4	3.2	4	-1E+10	1	-1E+10	1	-1E+10	1	-1E+10	1	-1E+10	1	-1E+10	1
4901784	91	C	12/31/2017	10:49	-133.423	43.694	0	839.30	0	3.9840	0	34.4080	4	27.323	0	830.906	0	10.2	4	3.2	4	-1E+10	1	-1E+10	1	-1E+10	1	-1E+10	1	-1E+10	1	-1E+10	1
4901784	91	C	12/31/2017	10:49	-133.423	43.694	0	844.70	0	3.9660	0	34.4090	4	27.326	0	836.241	0	10.2	4	3.2	4	-1E+10	1	-1E+10	1	-1E+10	1	-1E+10	1	-1E+10	1	-1E+10	1
4901784	91	C	12/31/2017	10:49	-133.423	43.694	0	850.10	0	3.9430	0	34.4090	4	27.328	0	841.576	0	10.3	4	3.3	4	-1E+10	1	-1E+10	1	-1E+10	1	-1E+10	1	-1E+10	1	-1E+10	1
4901784	91	C	12/31/2017	10:49	-133.423	43.694	0	855.40	0	3.9210	0	34.4070	4	27.329	0	846.812	0	10.4	4	3.3	4	-1E+10	1	-1E+10	1	-1E+10	1	-1E+10	1	-1E+10	1	-1E+10	1
4901784	91	C	12/31/2017	10:49	-133.423	43.694	0	859.90	0	3.8890	0	34.4080	4	27.333	0	851.258	0	10.4	4	3.3	4	-1E+10	1	-1E+10	1	-1E+10	1	-1E+10	1	-1E+10	1	-1E+10	1
4901784	91	C	12/31/2017	10:49	-133.423	43.694	0	864.50	0	3.8780	0	34.4090	4	27.335	0	855.802	0	10.5	4	3.3	4	-1E+10	1	-1E+10	1	-1E+10	1	-1E+10	1	-1E+10	1	-1E+10	1
4901784	91	C	12/31/2017	10:49	-133.423	43.694	0	869.90	0	3.8620	0	34.4120	4	27.339	0	861.137	0	10.5	4	3.3	4	-1E+10	1	-1E+10	1	-1E+10	1	-1E+10	1	-1E+10	1	-1E+10	1
4901784	91	C	12/31/2017	10:49	-133.423	43.694	0	875.30	0	3.8490	0	34.4120	4	27.340	0	866.471	0	10.6	4	3.3	4	-1E+10	1	-1E+10	1	-1E+10	1	-1E+10	1	-1E+10	1	-1E+10	1
4901784	91	C	12/31/2017	10:49	-133.423	43.694	0	880.70	0	3.7890	0	34.4080	4	27.343	0	871.806	0	10.7	4	3.4	4	-1E+10	1	-1E+10	1	-1E+10	1	-1E+10	1	-1E+10	1	-1E+10	1
4901784	91	C	12/31/2017	10:49	-133.423	43.694	0	885.20	0	3.7600	0	34.4070	4	27.345	0	876.251	0	10.8	4	3.4	4	-1E+10	1	-1E+10	1	-1E+10	1	-1E+10	1	-1E+10	1	-1E+10	1
4901784	91	C	12/31/2017	10:49	-133.423	43.694	0	889.80	0	3.7420	0	34.4070	4	27.347	0	880.795	0	10.8	4	3.4	4	-1E+10	1	-1E+10	1	-1E+10	1	-1E+10	1	-1E+10	1	-1E+10	1
4901784	91	C	12/31/2017	10:49	-133.423	43.694	0	895.30	0	3.6970	0	34.4080	4	27.353	0	886.227	0	10.8	4	3.4	4	-1E+10	1	-1E+10	1	-1E+10	1	-1E+10	1	-1E+10	1	-1E+10	1
4901784	91	C	12/31/2017	10:49	-133.423	43.694	0	899.80	0	3.7050	0	34.4130	4	27.356	0	890.672	0	10.8	4	3.4	4	-1E+10	1	-1E+10	1	-1E+10	1	-1E+10	1	-1E+10	1	-1E+10	1
4901784	91	C	12/31/2017	10:49	-133.423	43.694	0	904.40	0	3.6830	0	34.4160	4	27.360	0	895.216	0	10.8	4	3.4	4	-1E+10	1	-1E+10	1	-1E+10	1	-1E+10	1	-1E+10	1	-1E+10	1
4901784	91	C	12/31/2017	10:49	-133.423	43.694	0	910.00	0	3.6970	0	34.4200	4	27.362	0	900.747	0	10.8	4	3.4	4	-1E+10	1	-1E+10	1	-1E+10	1	-1E+10	1	-1E+10	1	-1E+10	1
4901784	91	C	12/31/2017	10:49	-133.423	43.694	0	915.20	0	3.6730	0	34.4230	4	27.367	0	905.883	0	10.9	4	3.4	4	-1E+10	1	-1E+10	1	-1E+10	1	-1E+10	1	-1E+10	1	-1E+10	1
4901784	91	C	12/31/2017	10:49	-133.423	43.694	0	919.40	0	3.6430	0	34.4230	4	27.370	0	910.031	0	10.9	4	3.4	4	-1E+10	1	-1E+10	1	-1E+10	1	-1E+10	1	-1E+10	1	-1E+10	1
4901784	91	C	12/31/2017	10:49	-133.423	43.694	0	924.20	0	3.6290	0	34.4280	4	27.375	0	914.771	0	10.9	4	3.4	4	-1E+10	1	-1E+10	1	-1E+10	1	-1E+10	1	-1E+10	1	-1E+10	1
4901784	91	C	12/31/2017	10:49	-133.423	43.694	0	929.20	0	3.6380	0	34.4340	4	27.379	0	919.709	0	10.9	4	3.4	4	-1E+10	1	-1E+10	1	-1E+10	1	-1E+10	1	-1E+10	1	-1E+10	1
4901784	91	C	12/31/2017	10:49	-133.423	43.694	0	934.20	0	3.6110	0	34.4360	4	27.384	0	924.647	0	11.0	4	3.4	4	-1E+10	1	-1E+10	1	-1E+10	1	-1E+10	1	-1E+10	1	-1E+10	1
4901784	91	C	12/31/2017	10:49	-133.423	43.694	0	939.20	0	3.6040	0	34.4370	4	27.385	0	929.585	0	11.0	4	3.5	4	-1E+10	1	-1E+10	1	-1E+10	1	-1E+10	1	-1E+10	1	-1E+10	1
4901784	91	C	12/31/2017	10:49	-133.423	43.694	0	945.00	0	3.5940	0	34.4380	4	27.387	0	935.313	0	11.1	4	3.5	4	-1E+10	1	-1E+10	1	-1E+10	1	-1E+10	1	-1E+10	1	-1E+10	1
4901784	91	C	12/31/2017	10:49	-133.423	43.694	0	950.80	0	3.5660	0	34.4380	4	27.390	0	941.040	0	11.1	4	3.5	4	-1E+10	1	-1E+10	1	-1E+10	1	-1E+10	1	-1E+10	1	-1E+10	1
4901784	91	C	12/31/2017	10:49	-133.423	43.694	0	955.10	0	3.5240	0	34.4360	4	27.392	0	945.286	0	11.2	4	3.5	4	-1E+10	1	-1E+10	1	-1E+10	1	-1E+10	1	-1E+10	1	-1E+10	1
4901784	91	C	12/31/2017	10:49	-133.423	43.694	0	959.30	0	3.5020	0	34.4380	4	27.396	0	949.434	0	11.2	4	3.5	4	-1E+10	1	-1E+10	1	-1E+10	1	-1E+10	1	-1E+10	1	-1E+10	1
4901784	91	C	12/31/2017	10:49	-133.423	43.694	0	964.40	0	3.4890	0	34.4410	4	27.400	0	954.470	0	11.2	4	3.5	4	-1E+10	1	-1E+10	1	-1E+10	1	-1E+10	1	-1E+10	1	-1E+10	1
4901784	91	C	12/31/2017	10:49	-133.423	43.694	0	969.50	0	3.4790	0	34.4420	4	27.401	0	959.505	0	11.3	4	3.5	4	-1E+10	1	-1E+10	1	-1E+10	1	-1E+10	1	-1E+10	1	-1E+10	1
4901784	91	C	12/31/2017	10:49	-133.423	43.694	0	974.70	0	3.4610	0	34.4460	4	27.406	0	964.640	0	11.4	4	3.6	4	-1E+10	1	-1E+10	1	-1E+10	1	-1E+10	1	-1E+10	1	-1E+10	1
4901784	91	C	12/31/2017	10:49	-133.423	43.694	0	979.80	0	3.4440	0	34.4500	4	27.411	0	969.675	0	11.4	4	3.6	4	-1E+10	1	-1E+10	1	-1E+10	1	-1E+10	1	-1E+10	1	-1E+10	1
4901784	91	C	12/31/2017	10:49	-133.423	43.694	0	985.10	0	3.4370	0	34.4520	4	27.413	0	974.908	0	11.5	4	3.6	4	-1E+10	1	-1E+10	1	-1E+10	1	-1E+10	1	-1E+10	1	-1E+10	1
4901784	91	C	12/31/2017	10:49	-133.423	43.694	0	990.40	0	3.4290	0	34.4540	4	27.416	0	980.141	0	11.6	4	3.6	4	-1E+10	1	-1E+10	1	-1E+10	1	-1E+10	1	-1E+10	1	-1E+10	1
4901784	91	C	12/31/2017	10:49	-133.423	43.694	0	995.70	0	3.4140	0	34.4570	4	27.420	0	985.374	0	11.7	4	3.7	4	-1E+10	1	-1E+10	1	-1E+10	1	-1E+10	1	-1E+10	1	-1E+10	1
4901784	91	C	12/31/2017	10:49	-133.423	43.694	0	1000.10	0	3.4020	0	34.4600	4	27.423	0	989.718	0	11.9	4	3.7	4	-1E+10	1	-1E+10	1	-1E+10	1	-1E+10	1	-1E+10	1	-1E+10	1
4901784	91	C	12/31/2017	10:49	-133.423	43.694	0	1004.50	0	3.3900	0	34.4630	4	27.427	0	994.062	0	12.0	4	3.7	4	-1E+10	1	-1E+10	1	-1E+10	1	-1E+10	1	-1E+10	1	-1E+10	1
4901784	91	C	12/31/2017	10:49	-133.423	43.694	0	1010.00	0	3.3790	0	34.4660	4	27.430	0	999.491	0	12.1	4	3.8	4	-1E+10	1	-1E+10	1	-1E+10	1	-1E+10	1	-1E+10	1	-1E+10	1
4901784	91	C	12/31/2017	10:49	-133.423	43.694	0	1015.40	0	3.3700	0	34.4690	4	27.434	0	1004.822	0	12.2	4	3.8	4	-1E+10	1	-1E+10	1	-1E+10	1	-1E+10	1	-1E+10	1	-1E+10	1
4901784	91	C	12/31/2017	10:49	-133.423	43.694	0	1020.00	0	3.3620	0	34.4710	4	27.436	0	1009.363	0	12.4	4	3.9	4	-1E+10	1	-1E+10	1	-1E+10	1	-1E+10	1	-1E+10	1	-1E+10	1
4901784	91	C	12/31/2017	10:49	-133.423	43.694	0	1024.50	0	3.3570	0	34.4730	4	27.438	0	1013.805	0	12.5	4	3.9	4	-1E+10	1	-1E+10	1	-1E+10	1	-1E+10	1	-1E+10	1	-1E+10	1
4901784	91	C	12/31/2017	10:49	-133.423	43.694	0	1030.00	0	3.3530	0	34.4750	4	27.440	0	1019.235	0	12.6	4	3.9	4	-1E+10	1	-1E+10	1	-1E+10	1	-1E+10	1	-1E+10	1	-1E+10	1
4901784	91	C	12/31/2017	10:49	-133.423	43.694	0	1035.60	0	3.3430	0	34.4770	4	27.443	0	1024.762	0	12.7	4	4.0	4	-1E+10	1	-1E+10	1	-1E+10	1	-1E+10	1	-1E+10	1	-1E+10	1
4901784	91	C	12/31/2017	10:49	-133.423	43.694	0	1040.20	0	3.3390	0	34.4790	4	27.445	0	1029.303	0	12.8	4	4.0	4	-1E+10	1	-1E+10	1	-1E+10	1	-1E+10	1	-1E+10	1	-1E+10	1
4901784	91	C	12/31/2017	10:49	-133.423	43.694	0	1044.80	0	3.3350	0	34.4790	4	27.445	0	1033.844	0	12.9	4	4.0	4	-1E+10	1	-1E+10	1	-1E+10	1	-1E+10	1	-1E+10	1	-1E+10	1
4901784	91	C	12/31/2017	10:49	-133.423	43.694	0	1050.40	0	3.3270	0	34.4820	4	27.448	0	1039.371	0	13.1	4	4.1	4	-1E+10	1	-1E+10	1	-1E+10	1	-1E+10	1	-1E+10	1	-1E+10	1
4901784	91	C	12/31/2017	10:49	-133.423	43.694	0	1055.10	0	3.3170	0	34.4860	4	27.452	0	1044.010	0	13.3	4	4.1	4	-1E+10	1	-1E+10	1	-1E+10	1	-1E+10	1	-1E+10	1	-1E+10	1
4901784	91	C	12/31/2017	10:49	-133.423	43.694	0	1059.90	0	3.3150	0	34.4870	4	27.453	0	1048.748	0	13.4	4	4.2	4	-1E+10	1	-1E+10	1	-1E+10	1	-1E+10	1	-1E+10	1	-1E+10	1
4901784	91	C	12/31/2017	10:49	-133.423	43.694	0	1065.50	0	3.3080	0	34.4890	4	27.456	0	1054.274	0	13.6	4	4.2	4	-1E+10	1	-1E+10	1	-1E+10	1	-1E+10	1	-1E+10	1	-1E+10	1
4901784	91	C	12/31/2017	10:49	-133.423	43.694	0	1070.10	0	3.2990	0	34.4910	4	27.458	0	1058.814	0	13.7	4	4.3	4	-1E+10	1	-1E+10	1	-1E+10	1	-1E+10	1	-1E+10	1	-1E+10	1
4901784	91	C	12/31/2017	10:49	-133.423	43.694	0	1074.70	0	3.2940	0	34.4920	4	27.459	0	1063.354	0	13.8	4	4.3	4	-1E+10	1	-1E+10	1	-1E+10	1	-1E+10	1	-1E+10	1	-1E+10	1
4901784	91	C	12/31/2017	10:49	-133.423	43.694	0	1080.20	0	3.2890	0	34.4940	4	27.462	0	1068.782	0	13.9	4	4.3	4	-1E+10	1	-1E+10	1	-1E+10	1	-1E+10	1	-1E+10	1	-1E+10	1
4901784	91	C	12/31/2017	10:49	-133.423	43.694	0	1085.30	0	3.2760	0	34.4960	4	27.464	0	1073.815	0	14.1	4	4.4	4	-1E+10	1	-1E+10	1	-1E+10	1	-1E+10	1	-1E+10	1	-1E+10	1
4901784	91	C	12/31/2017	10:49	-133.423	43.694	0	1089.50	0	3.2680	0	34.4980	4	27.467	0	1077.960	0	14.2	4	4.4	4	-1E+10	1	-1E+10	1	-1E+10	1	-1E+10	1	-1E+10	1	-1E+10	1
4901784	91	C	12/31/2017	10:49	-133.423	43.694	0	1094.30	0	3.2600	0	34.5000	4	27.469	0	1082.697	0	14.4	4	4.5	4	-1E+10	1	-1E+10	1	-1E+10	1	-1E+10	1	-1E+10	1	-1E+10	1
4901784	91	C	12/31/2017	10:49	-133.423	43.694	0	1099.90	0	3.2470	0	34.5030	4	27.473	0	1088.223	0	14.6	4	4.5	4	-1E+10	1	-1E+10	1	-1E+10	1	-1E+10	1	-1E+10	1	-1E+10	1
4901784	91	C	12/31/2017	10:49	-133.423	43.694	0	1105.50	0	3.2440	0	34.5040	4	27.474	0	1093.749	0	14.7	4	4.6	4	-1E+10	1	-1E+10	1	-1E+10	1	-1E+10	1	-1E+10	1	-1E+10	1
4901784	91	C	12/31/2017	10:49	-133.423	43.694	0	1110.40	0	3.2380	0	34.5060	4	27.476	0	1098.584	0	15.0	4	4.6	4	-1E+10	1	-1E+10	1	-1E+10	1	-1E+10	1	-1E+10	1	-1E+10	1
4901784	91	C	12/31/2017	10:49	-133.423	43.694	0	1115.30	0	3.2300	0	34.5080	4	27.478	0	1103.419	0	15.2	4	4.7	4	-1E+10	1	-1E+10	1	-1E+10	1	-1E+10	1	-1E+10	1	-1E+10	1
4901784	91	C	12/31/2017	10:49	-133.423	43.694	0	1120.40	0	3.2190	0	34.5110	4	27.482	0	1108.451	0	15.4	4	4.8	4	-1E+10	1	-1E+10	1	-1E+10	1	-1E+10	1	-1E+10	1	-1E+10	1
4901784	91	C	12/31/2017	10:49	-133.423	43.694	0	1125.60	0	3.2120	0	34.5130	4	27.484	0	1113.582	0	15.5	4	4.8	4	-1E+10	1	-1E+10	1	-1E+10	1	-1E+10	1	-1E+10	1	-1E+10	1
4901784	91	C	12/31/2017	10:49	-133.423	43.694	0	1130.00	0	3.2000	0	34.5140	4	27.486	0	1117.923	0	15.6	4	4.8	4	-1E+10	1	-1E+10	1	-1E+10	1	-1E+10	1	-1E+10	1	-1E+10	1
4901784	91	C	12/31/2017	10:49	-133.423	43.694	0	1134.50	0	3.1860	0	34.5150	4	27.488	0	1122.363	0	15.6	4	4.8	4	-1E+10	1	-1E+10	1	-1E+10	1	-1E+10	1	-1E+10	1	-1E+10	1
4901784	91	C	12/31/2017	10:49	-133.423	43.694	0	1139.90	0	3.1690	0	34.5170	4	27.491	0	1127.691	0	15.8	4	4.9	4	-1E+10	1	-1E+10	1	-1E+10	1	-1E+10	1	-1E+10	1	-1E+10	1
4901784	91	C	12/31/2017	10:49	-133.423	43.694	0	1145.30	0	3.1570	0	34.5190	4	27.494	0	1133.019	0	16.0	4	4.9	4	-1E+10	1	-1E+10	1	-1E+10	1	-1E+10	1	-1E+10	1	-1E+10	1
4901784	91	C	12/31/2017	10:49	-133.423	43.694	0	1149.80	0	3.1510	0	34.5200	4	27.496	0	1137.458	0	16.0	4	5.0	4	-1E+10	1	-1E+10	1	-1E+10	1	-1E+10	1	-1E+10	1	-1E+10	1
4901784	91	C	12/31/2017	10:49	-133.423	43.694	0	1154.30	0	3.1450	0	34.5200	4	27.496	0	1141.898	0	16.1	4	5.0	4	-1E+10	1	-1E+10	1	-1E+10	1	-1E+10	1	-1E+10	1	-1E+10	1
4901784	91	C	12/31/2017	10:49	-133.423	43.694	0	1159.70	0	3.1330	0	34.5220	4	27.499	0	1147.225	0	16.3	4	5.0	4	-1E+10	1	-1E+10	1	-1E+10	1	-1E+10	1	-1E+10	1	-1E+10	1
4901784	91	C	12/31/2017	10:49	-133.423	43.694	0	1165.20	0	3.1200	0	34.5240	4	27.502	0	1152.651	0	16.4	4	5.1	4	-1E+10	1	-1E+10	1	-1E+10	1	-1E+10	1	-1E+10	1	-1E+10	1
4901784	91	C	12/31/2017	10:49	-133.423	43.694	0	1169.80	0	3.1090	0	34.5250	4	27.504	0	1157.188	0	16.5	4	5.1	4	-1E+10	1	-1E+10	1	-1E+10	1	-1E+10	1	-1E+10	1	-1E+10	1
4901784	91	C	12/31/2017	10:49	-133.423	43.694	0	1174.50	0	3.0980	0	34.5270	4	27.506	0	1161.825	0	16.7	4	5.2	4	-1E+10	1	-1E+10	1	-1E+10	1	-1E+10	1	-1E+10	1	-1E+10	1
4901784	91	C	12/31/2017	10:49	-133.423	43.694	0	1180.10	0	3.0730	0	34.5300	4	27.511	0	1167.349	0	16.9	4	5.2	4	-1E+10	1	-1E+10	1	-1E+10	1	-1E+10	1	-1E+10	1	-1E+10	1
4901784	91	C	12/31/2017	10:49	-133.423	43.694	0	1184.80	0	3.0650	0	34.5310	4	27.512	0	1171.985	0	17.1	4	5.3	4	-1E+10	1	-1E+10	1	-1E+10	1	-1E+10	1	-1E+10	1	-1E+10	1
4901784	91	C	12/31/2017	10:49	-133.423	43.694	0	1189.50	0	3.0520	0	34.5330	4	27.515	0	1176.621	0	17.2	4	5.3	4	-1E+10	1	-1E+10	1	-1E+10	1	-1E+10	1	-1E+10	1	-1E+10	1
4901784	91	C	12/31/2017	10:49	-133.423	43.694	0	1195.10	0	3.0380	0	34.5350	4	27.518	0	1182.144	0	17.4	4	5.4	4	-1E+10	1	-1E+10	1	-1E+10	1	-1E+10	1	-1E+10	1	-1E+10	1
4901784	91	C	12/31/2017	10:49	-133.423	43.694	0	1199.90	0	3.0270	0	34.5370	4	27.521	0	1186.879	0	17.5	4	5.4	4	-1E+10	1	-1E+10	1	-1E+10	1	-1E+10	1	-1E+10	1	-1E+10	1
4901784	91	C	12/31/2017	10:49	-133.423	43.694	0	1204.70	0	3.0200	0	34.5380	4	27.522	0	1191.613	0	17.6	4	5.5	4	-1E+10	1	-1E+10	1	-1E+10	1	-1E+10	1	-1E+10	1	-1E+10	1
4901784	91	C	12/31/2017	10:49	-133.423	43.694	0	1210.40	0	3.0100	0	34.5390	4	27.524	0	1197.235	0	17.8	4	5.5	4	-1E+10	1	-1E+10	1	-1E+10	1	-1E+10	1	-1E+10	1	-1E+10	1
4901784	91	C	12/31/2017	10:49	-133.423	43.694	0	1215.20	0	3.0010	0	34.5410	4	27.526	0	1201.969	0	18.0	4	5.6	4	-1E+10	1	-1E+10	1	-1E+10	1	-1E+10	1	-1E+10	1	-1E+10	1
4901784	91	C	12/31/2017	10:49	-133.423	43.694	0	1220.20	0	2.9960	0	34.5410	4	27.527	0	1206.900	0	18.1	4	5.6	4	-1E+10	1	-1E+10	1	-1E+10	1	-1E+10	1	-1E+10	1	-1E+10	1
4901784	91	C	12/31/2017	10:49	-133.423	43.694	0	1225.10	0	2.9900	0	34.5420	4	27.528	0	1211.733	0	18.1	4	5.6	4	-1E+10	1	-1E+10	1	-1E+10	1	-1E+10	1	-1E+10	1	-1E+10	1
4901784	91	C	12/31/2017	10:49	-133.423	43.694	0	1230.20	0	2.9860	0	34.5420	4	27.529	0	1216.762	0	18.3	4	5.6	4	-1E+10	1	-1E+10	1	-1E+10	1	-1E+10	1	-1E+10	1	-1E+10	1
4901784	91	C	12/31/2017	10:49	-133.423	43.694	0	1235.20	0	2.9750	0	34.5450	4	27.532	0	1221.693	0	18.5	4	5.7	4	-1E+10	1	-1E+10	1	-1E+10	1	-1E+10	1	-1E+10	1	-1E+10	1
4901784	91	C	12/31/2017	10:49	-133.423	43.694	0	1240.30	0	2.9670	0	34.5460	4	27.534	0	1226.723	0	18.6	4	5.8	4	-1E+10	1	-1E+10	1	-1E+10	1	-1E+10	1	-1E+10	1	-1E+10	1
4901784	91	C	12/31/2017	10:49	-133.423	43.694	0	1245.20	0	2.9610	0	34.5470	4	27.535	0	1231.555	0	18.8	4	5.8	4	-1E+10	1	-1E+10	1	-1E+10	1	-1E+10	1	-1E+10	1	-1E+10	1
4901784	91	C	12/31/2017	10:49	-133.423	43.694	0	1250.20	0	2.9580	0	34.5470	4	27.535	0	1236.485	0	18.9	4	5.8	4	-1E+10	1	-1E+10	1	-1E+10	1	-1E+10	1	-1E+10	1	-1E+10	1
4901784	91	C	12/31/2017	10:49	-133.423	43.694	0	1255.00	0	2.9550	0	34.5480	4	27.536	0	1241.219	0	19.1	4	5.9	4	-1E+10	1	-1E+10	1	-1E+10	1	-1E+10	1	-1E+10	1	-1E+10	1
4901784	91	C	12/31/2017	10:49	-133.423	43.694	0	1260.30	0	2.9420	0	34.5500	4	27.539	0	1246.445	0	19.2	4	5.9	4	-1E+10	1	-1E+10	1	-1E+10	1	-1E+10	1	-1E+10	1	-1E+10	1
4901784	91	C	12/31/2017	10:49	-133.423	43.694	0	1265.40	0	2.9340	0	34.5510	4	27.541	0	1251.473	0	19.3	4	6.0	4	-1E+10	1	-1E+10	1	-1E+10	1	-1E+10	1	-1E+10	1	-1E+10	1
4901784	91	C	12/31/2017	10:49	-133.423	43.694	0	1270.20	0	2.9300	0	34.5520	4	27.542	0	1256.206	0	19.4	4	6.0	4	-1E+10	1	-1E+10	1	-1E+10	1	-1E+10	1	-1E+10	1	-1E+10	1
4901784	91	C	12/31/2017	10:49	-133.423	43.694	0	1275.10	0	2.9200	0	34.5530	4	27.544	0	1261.038	0	19.6	4	6.1	4	-1E+10	1	-1E+10	1	-1E+10	1	-1E+10	1	-1E+10	1	-1E+10	1
4901784	91	C	12/31/2017	10:49	-133.423	43.694	0	1280.00	0	2.9130	0	34.5540	4	27.545	0	1265.869	0	19.9	4	6.1	4	-1E+10	1	-1E+10	1	-1E+10	1	-1E+10	1	-1E+10	1	-1E+10	1
4901784	91	C	12/31/2017	10:49	-133.423	43.694	0	1284.90	0	2.9050	0	34.5560	4	27.547	0	1270.700	0	20.2	4	6.2	4	-1E+10	1	-1E+10	1	-1E+10	1	-1E+10	1	-1E+10	1	-1E+10	1
4901784	91	C	12/31/2017	10:49	-133.423	43.694	0	1289.90	0	2.8910	0	34.5580	4	27.550	0	1275.630	0	20.4	4	6.3	4	-1E+10	1	-1E+10	1	-1E+10	1	-1E+10	1	-1E+10	1	-1E+10	1
4901784	91	C	12/31/2017	10:49	-133.423	43.694	0	1294.90	0	2.8850	0	34.5590	4	27.552	0	1280.559	0	20.6	4	6.4	4	-1E+10	1	-1E+10	1	-1E+10	1	-1E+10	1	-1E+10	1	-1E+10	1
4901784	91	C	12/31/2017	10:49	-133.423	43.694	0	1299.80	0	2.8740	0	34.5600	4	27.553	0	1285.390	0	21.0	4	6.5	4	-1E+10	1	-1E+10	1	-1E+10	1	-1E+10	1	-1E+10	1	-1E+10	1
4901784	91	C	12/31/2017	10:49	-133.423	43.694	0	1304.80	0	2.8650	0	34.5630	4	27.557	0	1290.319	0	21.3	4	6.6	4	-1E+10	1	-1E+10	1	-1E+10	1	-1E+10	1	-1E+10	1	-1E+10	1
4901784	91	C	12/31/2017	10:49	-133.423	43.694	0	1309.90	0	2.8590	0	34.5640	4	27.558	0	1295.347	0	21.5	4	6.6	4	-1E+10	1	-1E+10	1	-1E+10	1	-1E+10	1	-1E+10	1	-1E+10	1
4901784	91	C	12/31/2017	10:49	-133.423	43.694	0	1315.00	0	2.8380	0	34.5660	4	27.561	0	1300.374	0	21.7	4	6.7	4	-1E+10	1	-1E+10	1	-1E+10	1	-1E+10	1	-1E+10	1	-1E+10	1
4901784	91	C	12/31/2017	10:49	-133.423	43.694	0	1320.20	0	2.8250	0	34.5680	4	27.564	0	1305.500	0	21.9	4	6.8	4	-1E+10	1	-1E+10	1	-1E+10	1	-1E+10	1	-1E+10	1	-1E+10	1
4901784	91	C	12/31/2017	10:49	-133.423	43.694	0	1325.40	0	2.8180	0	34.5690	4	27.566	0	1310.626	0	22.2	4	6.8	4	-1E+10	1	-1E+10	1	-1E+10	1	-1E+10	1	-1E+10	1	-1E+10	1
4901784	91	C	12/31/2017	10:49	-133.423	43.694	0	1330.60	0	2.8080	0	34.5700	4	27.567	0	1315.752	0	22.3	4	6.9	4	-1E+10	1	-1E+10	1	-1E+10	1	-1E+10	1	-1E+10	1	-1E+10	1
4901784	91	C	12/31/2017	10:49	-133.423	43.694	0	1334.90	0	2.8040	0	34.5710	4	27.569	0	1319.991	0	22.4	4	6.9	4	-1E+10	1	-1E+10	1	-1E+10	1	-1E+10	1	-1E+10	1	-1E+10	1
4901784	91	C	12/31/2017	10:49	-133.423	43.694	0	1339.20	0	2.7990	0	34.5710	4	27.569	0	1324.229	0	22.4	4	6.9	4	-1E+10	1	-1E+10	1	-1E+10	1	-1E+10	1	-1E+10	1	-1E+10	1
4901784	91	C	12/31/2017	10:49	-133.423	43.694	0	1344.50	0	2.7950	0	34.5710	4	27.569	0	1329.453	0	22.4	4	6.9	4	-1E+10	1	-1E+10	1	-1E+10	1	-1E+10	1	-1E+10	1	-1E+10	1
4901784	91	C	12/31/2017	10:49	-133.423	43.694	0	1349.80	0	2.7860	0	34.5710	4	27.570	0	1334.677	0	22.4	4	6.9	4	-1E+10	1	-1E+10	1	-1E+10	1	-1E+10	1	-1E+10	1	-1E+10	1
4901784	91	C	12/31/2017	10:49	-133.423	43.694	0	1355.10	0	2.7790	0	34.5720	4	27.572	0	1339.901	0	22.6	4	6.9	4	-1E+10	1	-1E+10	1	-1E+10	1	-1E+10	1	-1E+10	1	-1E+10	1
4901784	91	C	12/31/2017	10:49	-133.423	43.694	0	1360.50	0	2.7710	0	34.5730	4	27.573	0	1345.223	0	22.8	4	7.0	4	-1E+10	1	-1E+10	1	-1E+10	1	-1E+10	1	-1E+10	1	-1E+10	1
4901784	91	C	12/31/2017	10:49	-133.423	43.694	0	1364.90	0	2.7630	0	34.5740	4	27.575	0	1349.560	0	22.9	4	7.0	4	-1E+10	1	-1E+10	1	-1E+10	1	-1E+10	1	-1E+10	1	-1E+10	1
4901784	91	C	12/31/2017	10:49	-133.423	43.694	0	1369.40	0	2.7610	0	34.5750	4	27.576	0	1353.995	0	23.0	4	7.1	4	-1E+10	1	-1E+10	1	-1E+10	1	-1E+10	1	-1E+10	1	-1E+10	1
4901784	91	C	12/31/2017	10:49	-133.423	43.694	0	1374.80	0	2.7530	0	34.5750	4	27.576	0	1359.317	0	23.0	4	7.1	4	-1E+10	1	-1E+10	1	-1E+10	1	-1E+10	1	-1E+10	1	-1E+10	1
4901784	91	C	12/31/2017	10:49	-133.423	43.694	0	1380.20	0	2.7450	0	34.5750	4	27.577	0	1364.638	0	23.1	4	7.1	4	-1E+10	1	-1E+10	1	-1E+10	1	-1E+10	1	-1E+10	1	-1E+10	1
4901784	91	C	12/31/2017	10:49	-133.423	43.694	0	1385.60	0	2.7410	0	34.5760	4	27.578	0	1369.960	0	23.2	4	7.1	4	-1E+10	1	-1E+10	1	-1E+10	1	-1E+10	1	-1E+10	1	-1E+10	1
4901784	91	C	12/31/2017	10:49	-133.423	43.694	0	1390.10	0	2.7360	0	34.5760	4	27.579	0	1374.394	0	23.4	4	7.2	4	-1E+10	1	-1E+10	1	-1E+10	1	-1E+10	1	-1E+10	1	-1E+10	1
4901784	91	C	12/31/2017	10:49	-133.423	43.694	0	1394.70	0	2.7170	0	34.5770	4	27.581	0	1378.927	0	23.6	4	7.2	4	-1E+10	1	-1E+10	1	-1E+10	1	-1E+10	1	-1E+10	1	-1E+10	1
4901784	91	C	12/31/2017	10:49	-133.423	43.694	0	1400.20	0	2.7060	0	34.5780	4	27.583	0	1384.347	0	23.8	4	7.3	4	-1E+10	1	-1E+10	1	-1E+10	1	-1E+10	1	-1E+10	1	-1E+10	1
4901784	91	C	12/31/2017	10:49	-133.423	43.694	0	1404.80	0	2.7020	0	34.5780	4	27.583	0	1388.880	0	23.9	4	7.3	4	-1E+10	1	-1E+10	1	-1E+10	1	-1E+10	1	-1E+10	1	-1E+10	1
4901784	91	C	12/31/2017	10:49	-133.423	43.694	0	1409.40	0	2.6940	0	34.5780	4	27.584	0	1393.413	0	24.0	4	7.4	4	-1E+10	1	-1E+10	1	-1E+10	1	-1E+10	1	-1E+10	1	-1E+10	1
4901784	91	C	12/31/2017	10:49	-133.423	43.694	0	1415.00	0	2.6850	0	34.5780	4	27.585	0	1398.931	0	24.1	4	7.4	4	-1E+10	1	-1E+10	1	-1E+10	1	-1E+10	1	-1E+10	1	-1E+10	1
4901784	91	C	12/31/2017	10:49	-133.423	43.694	0	1419.70	0	2.6760	0	34.5790	4	27.587	0	1403.562	0	24.2	4	7.4	4	-1E+10	1	-1E+10	1	-1E+10	1	-1E+10	1	-1E+10	1	-1E+10	1
4901784	91	C	12/31/2017	10:49	-133.423	43.694	0	1425.00	0	2.6720	0	34.5790	4	27.587	0	1408.784	0	24.3	4	7.4	4	-1E+10	1	-1E+10	1	-1E+10	1	-1E+10	1	-1E+10	1	-1E+10	1
4901784	91	C	12/31/2017	10:49	-133.423	43.694	0	1430.60	0	2.6640	0	34.5790	4	27.588	0	1414.301	0	24.4	4	7.5	4	-1E+10	1	-1E+10	1	-1E+10	1	-1E+10	1	-1E+10	1	-1E+10	1
4901784	91	C	12/31/2017	10:49	-133.423	43.694	0	1435.30	0	2.6540	0	34.5800	4	27.589	0	1418.932	0	24.5	4	7.5	4	-1E+10	1	-1E+10	1	-1E+10	1	-1E+10	1	-1E+10	1	-1E+10	1
4901784	91	C	12/31/2017	10:49	-133.423	43.694	0	1440.20	0	2.6460	0	34.5800	4	27.590	0	1423.760	0	24.7	4	7.6	4	-1E+10	1	-1E+10	1	-1E+10	1	-1E+10	1	-1E+10	1	-1E+10	1
4901784	91	C	12/31/2017	10:49	-133.423	43.694	0	1445.00	0	2.6370	0	34.5810	4	27.592	0	1428.489	0	24.9	4	7.6	4	-1E+10	1	-1E+10	1	-1E+10	1	-1E+10	1	-1E+10	1	-1E+10	1
4901784	91	C	12/31/2017	10:49	-133.423	43.694	0	1450.00	0	2.6300	0	34.5820	4	27.593	0	1433.414	0	25.1	4	7.7	4	-1E+10	1	-1E+10	1	-1E+10	1	-1E+10	1	-1E+10	1	-1E+10	1
4901784	91	C	12/31/2017	10:49	-133.423	43.694	0	1455.00	0	2.6210	0	34.5820	4	27.594	0	1438.340	0	25.3	4	7.7	4	-1E+10	1	-1E+10	1	-1E+10	1	-1E+10	1	-1E+10	1	-1E+10	1
4901784	91	C	12/31/2017	10:49	-133.423	43.694	0	1460.00	0	2.6100	0	34.5830	4	27.596	0	1443.266	0	25.6	4	7.8	4	-1E+10	1	-1E+10	1	-1E+10	1	-1E+10	1	-1E+10	1	-1E+10	1
4901784	91	C	12/31/2017	10:49	-133.423	43.694	0	1465.00	0	2.5980	0	34.5840	4	27.598	0	1448.191	0	25.8	4	7.9	4	-1E+10	1	-1E+10	1	-1E+10	1	-1E+10	1	-1E+10	1	-1E+10	1
4901784	91	C	12/31/2017	10:49	-133.423	43.694	0	1470.10	0	2.5900	0	34.5850	4	27.599	0	1453.215	0	26.1	4	8.0	4	-1E+10	1	-1E+10	1	-1E+10	1	-1E+10	1	-1E+10	1	-1E+10	1
4901784	91	C	12/31/2017	10:49	-133.423	43.694	0	1475.30	0	2.5770	0	34.5860	4	27.601	0	1458.338	0	26.4	4	8.1	4	-1E+10	1	-1E+10	1	-1E+10	1	-1E+10	1	-1E+10	1	-1E+10	1
4901784	91	C	12/31/2017	10:49	-133.423	43.694	0	1480.40	0	2.5650	0	34.5880	4	27.604	0	1463.361	0	26.7	4	8.2	4	-1E+10	1	-1E+10	1	-1E+10	1	-1E+10	1	-1E+10	1	-1E+10	1
4901784	91	C	12/31/2017	10:49	-133.423	43.694	0	1485.60	0	2.5500	0	34.5900	4	27.607	0	1468.484	0	27.0	4	8.2	4	-1E+10	1	-1E+10	1	-1E+10	1	-1E+10	1	-1E+10	1	-1E+10	1
4901784	91	C	12/31/2017	10:49	-133.423	43.694	0	1489.90	0	2.5480	0	34.5900	4	27.607	0	1472.719	0	27.1	4	8.3	4	-1E+10	1	-1E+10	1	-1E+10	1	-1E+10	1	-1E+10	1	-1E+10	1
4901784	91	C	12/31/2017	10:49	-133.423	43.694	0	1494.30	0	2.5470	0	34.5900	4	27.607	0	1477.053	0	27.1	4	8.3	4	-1E+10	1	-1E+10	1	-1E+10	1	-1E+10	1	-1E+10	1	-1E+10	1
4901784	91	C	12/31/2017	10:49	-133.423	43.694	0	1499.50	0	2.5400	0	34.5900	4	27.607	0	1482.175	0	27.4	4	8.4	4	-1E+10	1	-1E+10	1	-1E+10	1	-1E+10	1	-1E+10	1	-1E+10	1
4901784	91	C	12/31/2017	10:49	-133.423	43.694	0	1504.80	0	2.5280	0	34.5920	4	27.610	0	1487.395	0	27.7	4	8.5	4	-1E+10	1	-1E+10	1	-1E+10	1	-1E+10	1	-1E+10	1	-1E+10	1
4901784	91	C	12/31/2017	10:49	-133.423	43.694	0	1510.20	0	2.5200	0	34.5930	4	27.612	0	1492.713	0	27.9	4	8.5	4	-1E+10	1	-1E+10	1	-1E+10	1	-1E+10	1	-1E+10	1	-1E+10	1
4901784	91	C	12/31/2017	10:49	-133.423	43.694	0	1515.50	0	2.5150	0	34.5940	4	27.613	0	1497.933	0	28.0	4	8.6	4	-1E+10	1	-1E+10	1	-1E+10	1	-1E+10	1	-1E+10	1	-1E+10	1
4901784	91	C	12/31/2017	10:49	-133.423	43.694	0	1520.00	0	2.5090	0	34.5940	4	27.613	0	1502.365	0	28.2	4	8.6	4	-1E+10	1	-1E+10	1	-1E+10	1	-1E+10	1	-1E+10	1	-1E+10	1
4901784	91	C	12/31/2017	10:49	-133.423	43.694	0	1524.50	0	2.5040	0	34.5950	4	27.615	0	1506.797	0	28.4	4	8.7	4	-1E+10	1	-1E+10	1	-1E+10	1	-1E+10	1	-1E+10	1	-1E+10	1
4901784	91	C	12/31/2017	10:49	-133.423	43.694	0	1530.00	0	2.5000	0	34.5950	4	27.615	0	1512.213	0	28.6	4	8.7	4	-1E+10	1	-1E+10	1	-1E+10	1	-1E+10	1	-1E+10	1	-1E+10	1
4901784	91	C	12/31/2017	10:49	-133.423	43.694	0	1535.50	0	2.4890	0	34.5960	4	27.617	0	1517.630	0	28.8	4	8.8	4	-1E+10	1	-1E+10	1	-1E+10	1	-1E+10	1	-1E+10	1	-1E+10	1
4901784	91	C	12/31/2017	10:49	-133.423	43.694	0	1540.10	0	2.4840	0	34.5970	4	27.618	0	1522.159	0	29.0	4	8.9	4	-1E+10	1	-1E+10	1	-1E+10	1	-1E+10	1	-1E+10	1	-1E+10	1
4901784	91	C	12/31/2017	10:49	-133.423	43.694	0	1544.50	0	2.4780	0	34.5970	4	27.618	0	1526.492	0	29.2	4	8.9	4	-1E+10	1	-1E+10	1	-1E+10	1	-1E+10	1	-1E+10	1	-1E+10	1
4901784	91	C	12/31/2017	10:49	-133.423	43.694	0	1549.70	0	2.4710	0	34.5990	4	27.621	0	1531.613	0	29.4	4	9.0	4	-1E+10	1	-1E+10	1	-1E+10	1	-1E+10	1	-1E+10	1	-1E+10	1
4901784	91	C	12/31/2017	10:49	-133.423	43.694	0	1554.40	0	2.4660	0	34.5990	4	27.621	0	1536.241	0	29.6	4	9.0	4	-1E+10	1	-1E+10	1	-1E+10	1	-1E+10	1	-1E+10	1	-1E+10	1
4901784	91	C	12/31/2017	10:49	-133.423	43.694	0	1560.00	0	2.4560	0	34.6000	4	27.623	0	1541.755	0	29.9	4	9.1	4	-1E+10	1	-1E+10	1	-1E+10	1	-1E+10	1	-1E+10	1	-1E+10	1
4901784	91	C	12/31/2017	10:49	-133.423	43.694	0	1565.60	0	2.4500	0	34.6000	4	27.623	0	1547.269	0	30.1	4	9.2	4	-1E+10	1	-1E+10	1	-1E+10	1	-1E+10	1	-1E+10	1	-1E+10	1
4901784	91	C	12/31/2017	10:49	-133.423	43.694	0	1570.50	0	2.4450	0	34.6010	4	27.625	0	1552.094	0	30.3	4	9.2	4	-1E+10	1	-1E+10	1	-1E+10	1	-1E+10	1	-1E+10	1	-1E+10	1
4901784	91	C	12/31/2017	10:49	-133.423	43.694	0	1575.30	0	2.4420	0	34.6020	4	27.626	0	1556.820	0	30.4	4	9.3	4	-1E+10	1	-1E+10	1	-1E+10	1	-1E+10	1	-1E+10	1	-1E+10	1
4901784	91	C	12/31/2017	10:49	-133.423	43.694	0	1580.30	0	2.4370	0	34.6020	4	27.626	0	1561.743	0	30.7	4	9.4	4	-1E+10	1	-1E+10	1	-1E+10	1	-1E+10	1	-1E+10	1	-1E+10	1
4901784	91	C	12/31/2017	10:49	-133.423	43.694	0	1585.30	0	2.4250	0	34.6030	4	27.628	0	1566.666	0	31.0	4	9.5	4	-1E+10	1	-1E+10	1	-1E+10	1	-1E+10	1	-1E+10	1	-1E+10	1
4901784	91	C	12/31/2017	10:49	-133.423	43.694	0	1590.30	0	2.4180	0	34.6040	4	27.629	0	1571.588	0	31.3	4	9.5	4	-1E+10	1	-1E+10	1	-1E+10	1	-1E+10	1	-1E+10	1	-1E+10	1
4901784	91	C	12/31/2017	10:49	-133.423	43.694	0	1595.40	0	2.4130	0	34.6050	4	27.631	0	1576.609	0	31.6	4	9.6	4	-1E+10	1	-1E+10	1	-1E+10	1	-1E+10	1	-1E+10	1	-1E+10	1
4901784	91	C	12/31/2017	10:49	-133.423	43.694	0	1600.40	0	2.4020	0	34.6060	4	27.632	0	1581.532	0	32.0	4	9.7	4	-1E+10	1	-1E+10	1	-1E+10	1	-1E+10	1	-1E+10	1	-1E+10	1
4901784	91	C	12/31/2017	10:49	-133.423	43.694	0	1605.50	0	2.3900	0	34.6070	4	27.634	0	1586.553	0	32.5	4	9.9	4	-1E+10	1	-1E+10	1	-1E+10	1	-1E+10	1	-1E+10	1	-1E+10	1
4901784	91	C	12/31/2017	10:49	-133.423	43.694	0	1610.50	0	2.3740	0	34.6090	4	27.637	0	1591.475	0	32.9	4	10.0	4	-1E+10	1	-1E+10	1	-1E+10	1	-1E+10	1	-1E+10	1	-1E+10	1
4901784	91	C	12/31/2017	10:49	-133.423	43.694	0	1615.60	0	2.3700	0	34.6100	4	27.638	0	1596.495	0	33.2	4	10.1	4	-1E+10	1	-1E+10	1	-1E+10	1	-1E+10	1	-1E+10	1	-1E+10	1
4901784	91	C	12/31/2017	10:49	-133.423	43.694	0	1620.80	0	2.3620	0	34.6110	4	27.640	0	1601.614	0	33.6	4	10.2	4	-1E+10	1	-1E+10	1	-1E+10	1	-1E+10	1	-1E+10	1	-1E+10	1
4901784	91	C	12/31/2017	10:49	-133.423	43.694	0	1625.10	0	2.3540	0	34.6120	4	27.641	0	1605.847	0	33.9	4	10.3	4	-1E+10	1	-1E+10	1	-1E+10	1	-1E+10	1	-1E+10	1	-1E+10	1
4901784	91	C	12/31/2017	10:49	-133.423	43.694	0	1629.50	0	2.3490	0	34.6130	4	27.642	0	1610.178	0	34.2	4	10.4	4	-1E+10	1	-1E+10	1	-1E+10	1	-1E+10	1	-1E+10	1	-1E+10	1
4901784	91	C	12/31/2017	10:49	-133.423	43.694	0	1634.80	0	2.3380	0	34.6150	4	27.645	0	1615.395	0	34.6	4	10.5	4	-1E+10	1	-1E+10	1	-1E+10	1	-1E+10	1	-1E+10	1	-1E+10	1
4901784	91	C	12/31/2017	10:49	-133.423	43.694	0	1640.10	0	2.3310	0	34.6160	4	27.646	0	1620.612	0	34.9	4	10.6	4	-1E+10	1	-1E+10	1	-1E+10	1	-1E+10	1	-1E+10	1	-1E+10	1
4901784	91	C	12/31/2017	10:49	-133.423	43.694	0	1645.50	0	2.3280	0	34.6160	4	27.647	0	1625.927	0	35.1	4	10.7	4	-1E+10	1	-1E+10	1	-1E+10	1	-1E+10	1	-1E+10	1	-1E+10	1
4901784	91	C	12/31/2017	10:49	-133.423	43.694	0	1649.90	0	2.3260	0	34.6170	4	27.648	0	1630.258	0	35.4	4	10.8	4	-1E+10	1	-1E+10	1	-1E+10	1	-1E+10	1	-1E+10	1	-1E+10	1
4901784	91	C	12/31/2017	10:49	-133.423	43.694	0	1654.50	0	2.3170	0	34.6170	4	27.648	0	1634.785	0	35.6	4	10.8	4	-1E+10	1	-1E+10	1	-1E+10	1	-1E+10	1	-1E+10	1	-1E+10	1
4901784	91	C	12/31/2017	10:49	-133.423	43.694	0	1659.90	0	2.3130	0	34.6180	4	27.650	0	1640.100	0	36.0	4	10.9	4	-1E+10	1	-1E+10	1	-1E+10	1	-1E+10	1	-1E+10	1	-1E+10	1
4901784	91	C	12/31/2017	10:49	-133.423	43.694	0	1665.30	0	2.3050	0	34.6190	4	27.651	0	1645.415	0	36.2	4	11.0	4	-1E+10	1	-1E+10	1	-1E+10	1	-1E+10	1	-1E+10	1	-1E+10	1
4901784	91	C	12/31/2017	10:49	-133.423	43.694	0	1669.80	0	2.3020	0	34.6200	4	27.652	0	1649.844	0	36.3	4	11.0	4	-1E+10	1	-1E+10	1	-1E+10	1	-1E+10	1	-1E+10	1	-1E+10	1
4901784	91	C	12/31/2017	10:49	-133.423	43.694	0	1674.40	0	2.2980	0	34.6200	4	27.652	0	1654.371	0	36.5	4	11.1	4	-1E+10	1	-1E+10	1	-1E+10	1	-1E+10	1	-1E+10	1	-1E+10	1
4901784	91	C	12/31/2017	10:49	-133.423	43.694	0	1679.90	0	2.2920	0	34.6200	4	27.653	0	1659.783	0	36.8	4	11.2	4	-1E+10	1	-1E+10	1	-1E+10	1	-1E+10	1	-1E+10	1	-1E+10	1
4901784	91	C	12/31/2017	10:49	-133.423	43.694	0	1685.50	0	2.2890	0	34.6210	4	27.654	0	1665.294	0	37.1	4	11.3	4	-1E+10	1	-1E+10	1	-1E+10	1	-1E+10	1	-1E+10	1	-1E+10	1
4901784	91	C	12/31/2017	10:49	-133.423	43.694	0	1689.60	0	2.2850	0	34.6220	4	27.655	0	1669.329	0	37.3	4	11.3	4	-1E+10	1	-1E+10	1	-1E+10	1	-1E+10	1	-1E+10	1	-1E+10	1
4901784	91	C	12/31/2017	10:49	-133.423	43.694	0	1694.50	0	2.2800	0	34.6220	4	27.656	0	1674.151	0	37.5	4	11.4	4	-1E+10	1	-1E+10	1	-1E+10	1	-1E+10	1	-1E+10	1	-1E+10	1
4901784	91	C	12/31/2017	10:49	-133.423	43.694	0	1699.50	0	2.2700	0	34.6230	4	27.657	0	1679.071	0	37.7	4	11.4	4	-1E+10	1	-1E+10	1	-1E+10	1	-1E+10	1	-1E+10	1	-1E+10	1
4901784	91	C	12/31/2017	10:49	-133.423	43.694	0	1704.40	0	2.2690	0	34.6240	4	27.658	0	1683.893	0	37.8	4	11.5	4	-1E+10	1	-1E+10	1	-1E+10	1	-1E+10	1	-1E+10	1	-1E+10	1
4901784	91	C	12/31/2017	10:49	-133.423	43.694	0	1709.40	0	2.2670	0	34.6240	4	27.658	0	1688.813	0	38.1	4	11.6	4	-1E+10	1	-1E+10	1	-1E+10	1	-1E+10	1	-1E+10	1	-1E+10	1
4901784	91	C	12/31/2017	10:49	-133.423	43.694	0	1714.40	0	2.2620	0	34.6250	4	27.660	0	1693.732	0	38.6	4	11.7	4	-1E+10	1	-1E+10	1	-1E+10	1	-1E+10	1	-1E+10	1	-1E+10	1
4901784	91	C	12/31/2017	10:49	-133.423	43.694	0	1719.50	0	2.2530	0	34.6260	4	27.661	0	1698.751	0	39.1	4	11.9	4	-1E+10	1	-1E+10	1	-1E+10	1	-1E+10	1	-1E+10	1	-1E+10	1
4901784	91	C	12/31/2017	10:49	-133.423	43.694	0	1724.50	0	2.2420	0	34.6270	4	27.663	0	1703.670	0	39.5	4	12.0	4	-1E+10	1	-1E+10	1	-1E+10	1	-1E+10	1	-1E+10	1	-1E+10	1
4901784	91	C	12/31/2017	10:49	-133.423	43.694	0	1729.60	0	2.2320	0	34.6290	4	27.665	0	1708.688	0	39.9	4	12.1	4	-1E+10	1	-1E+10	1	-1E+10	1	-1E+10	1	-1E+10	1	-1E+10	1
4901784	91	C	12/31/2017	10:49	-133.423	43.694	0	1734.70	0	2.2280	0	34.6290	4	27.666	0	1713.706	0	40.2	4	12.2	4	-1E+10	1	-1E+10	1	-1E+10	1	-1E+10	1	-1E+10	1	-1E+10	1
4901784	91	C	12/31/2017	10:49	-133.423	43.694	0	1739.90	0	2.2230	0	34.6300	4	27.667	0	1718.822	0	40.6	4	12.3	4	-1E+10	1	-1E+10	1	-1E+10	1	-1E+10	1	-1E+10	1	-1E+10	1
4901784	91	C	12/31/2017	10:49	-133.423	43.694	0	1745.00	0	2.2110	0	34.6310	4	27.669	0	1723.839	0	41.0	4	12.4	4	-1E+10	1	-1E+10	1	-1E+10	1	-1E+10	1	-1E+10	1	-1E+10	1
4901784	91	C	12/31/2017	10:49	-133.423	43.694	0	1750.20	0	2.2020	0	34.6320	4	27.670	0	1728.955	0	41.4	4	12.6	4	-1E+10	1	-1E+10	1	-1E+10	1	-1E+10	1	-1E+10	1	-1E+10	1
4901784	91	C	12/31/2017	10:49	-133.423	43.694	0	1755.40	0	2.1940	0	34.6340	4	27.673	0	1734.071	0	41.9	4	12.7	4	-1E+10	1	-1E+10	1	-1E+10	1	-1E+10	1	-1E+10	1	-1E+10	1
4901784	91	C	12/31/2017	10:49	-133.423	43.694	0	1760.60	0	2.1850	0	34.6350	4	27.674	0	1739.186	0	42.1	4	12.8	4	-1E+10	1	-1E+10	1	-1E+10	1	-1E+10	1	-1E+10	1	-1E+10	1
4901784	91	C	12/31/2017	10:49	-133.423	43.694	0	1765.00	0	2.1840	0	34.6350	4	27.674	0	1743.515	0	42.3	4	12.8	4	-1E+10	1	-1E+10	1	-1E+10	1	-1E+10	1	-1E+10	1	-1E+10	1
4901784	91	C	12/31/2017	10:49	-133.423	43.694	0	1769.30	0	2.1810	0	34.6350	4	27.674	0	1747.745	0	42.5	4	12.9	4	-1E+10	1	-1E+10	1	-1E+10	1	-1E+10	1	-1E+10	1	-1E+10	1
4901784	91	C	12/31/2017	10:49	-133.423	43.694	0	1774.60	0	2.1770	0	34.6370	4	27.676	0	1752.958	0	42.7	4	12.9	4	-1E+10	1	-1E+10	1	-1E+10	1	-1E+10	1	-1E+10	1	-1E+10	1
4901784	91	C	12/31/2017	10:49	-133.423	43.694	0	1779.90	0	2.1750	0	34.6370	4	27.677	0	1758.172	0	42.9	4	13.0	4	-1E+10	1	-1E+10	1	-1E+10	1	-1E+10	1	-1E+10	1	-1E+10	1
4901784	91	C	12/31/2017	10:49	-133.423	43.694	0	1785.30	0	2.1700	0	34.6370	4	27.677	0	1763.483	0	43.3	4	13.1	4	-1E+10	1	-1E+10	1	-1E+10	1	-1E+10	1	-1E+10	1	-1E+10	1
4901784	91	C	12/31/2017	10:49	-133.423	43.694	0	1789.80	0	2.1670	0	34.6380	4	27.678	0	1767.910	0	43.6	4	13.2	4	-1E+10	1	-1E+10	1	-1E+10	1	-1E+10	1	-1E+10	1	-1E+10	1
4901784	91	C	12/31/2017	10:49	-133.423	43.694	0	1794.30	0	2.1620	0	34.6390	4	27.679	0	1772.336	0	43.9	4	13.3	4	-1E+10	1	-1E+10	1	-1E+10	1	-1E+10	1	-1E+10	1	-1E+10	1
4901784	91	C	12/31/2017	10:49	-133.423	43.694	0	1799.80	0	2.1590	0	34.6400	4	27.680	0	1777.745	0	44.2	4	13.4	4	-1E+10	1	-1E+10	1	-1E+10	1	-1E+10	1	-1E+10	1	-1E+10	1
4901784	91	C	12/31/2017	10:49	-133.423	43.694	0	1805.30	0	2.1570	0	34.6400	4	27.681	0	1783.155	0	44.6	4	13.5	4	-1E+10	1	-1E+10	1	-1E+10	1	-1E+10	1	-1E+10	1	-1E+10	1
4901784	91	C	12/31/2017	10:49	-133.423	43.694	0	1809.90	0	2.1500	0	34.6420	4	27.683	0	1787.679	0	45.2	4	13.7	4	-1E+10	1	-1E+10	1	-1E+10	1	-1E+10	1	-1E+10	1	-1E+10	1
4901784	91	C	12/31/2017	10:49	-133.423	43.694	0	1814.50	0	2.1430	0	34.6430	4	27.684	0	1792.203	0	45.6	4	13.8	4	-1E+10	1	-1E+10	1	-1E+10	1	-1E+10	1	-1E+10	1	-1E+10	1
4901784	91	C	12/31/2017	10:49	-133.423	43.694	0	1820.10	0	2.1320	0	34.6440	4	27.686	0	1797.711	0	46.3	4	14.0	4	-1E+10	1	-1E+10	1	-1E+10	1	-1E+10	1	-1E+10	1	-1E+10	1
4901784	91	C	12/31/2017	10:49	-133.423	43.694	0	1825.60	0	2.1260	0	34.6450	4	27.687	0	1803.120	0	46.7	4	14.1	4	-1E+10	1	-1E+10	1	-1E+10	1	-1E+10	1	-1E+10	1	-1E+10	1
4901784	91	C	12/31/2017	10:49	-133.423	43.694	0	1830.20	0	2.1150	0	34.6460	4	27.689	0	1807.644	0	47.1	4	14.3	4	-1E+10	1	-1E+10	1	-1E+10	1	-1E+10	1	-1E+10	1	-1E+10	1
4901784	91	C	12/31/2017	10:49	-133.423	43.694	0	1834.80	0	2.1060	0	34.6470	4	27.690	0	1812.167	0	47.4	4	14.3	4	-1E+10	1	-1E+10	1	-1E+10	1	-1E+10	1	-1E+10	1	-1E+10	1
4901784	91	C	12/31/2017	10:49	-133.423	43.694	0	1840.40	0	2.1020	0	34.6480	4	27.692	0	1817.674	0	47.7	4	14.4	4	-1E+10	1	-1E+10	1	-1E+10	1	-1E+10	1	-1E+10	1	-1E+10	1
4901784	91	C	12/31/2017	10:49	-133.423	43.694	0	1845.00	0	2.0960	0	34.6490	4	27.693	0	1822.198	0	48.1	4	14.5	4	-1E+10	1	-1E+10	1	-1E+10	1	-1E+10	1	-1E+10	1	-1E+10	1
4901784	91	C	12/31/2017	10:49	-133.423	43.694	0	1849.60	0	2.0920	0	34.6500	4	27.694	0	1826.721	0	48.4	4	14.6	4	-1E+10	1	-1E+10	1	-1E+10	1	-1E+10	1	-1E+10	1	-1E+10	1
4901784	91	C	12/31/2017	10:49	-133.423	43.694	0	1855.20	0	2.0880	0	34.6510	4	27.695	0	1832.228	0	48.9	4	14.8	4	-1E+10	1	-1E+10	1	-1E+10	1	-1E+10	1	-1E+10	1	-1E+10	1
4901784	91	C	12/31/2017	10:49	-133.423	43.694	0	1859.80	0	2.0810	0	34.6520	4	27.696	0	1836.751	0	49.3	4	14.9	4	-1E+10	1	-1E+10	1	-1E+10	1	-1E+10	1	-1E+10	1	-1E+10	1
4901784	91	C	12/31/2017	10:49	-133.423	43.694	0	1864.50	0	2.0760	0	34.6520	4	27.697	0	1841.372	0	49.6	4	15.0	4	-1E+10	1	-1E+10	1	-1E+10	1	-1E+10	1	-1E+10	1	-1E+10	1
4901784	91	C	12/31/2017	10:49	-133.423	43.694	0	1870.00	0	2.0700	0	34.6530	4	27.698	0	1846.780	0	49.9	4	15.1	4	-1E+10	1	-1E+10	1	-1E+10	1	-1E+10	1	-1E+10	1	-1E+10	1
4901784	91	C	12/31/2017	10:49	-133.423	43.694	0	1875.60	0	2.0650	0	34.6530	4	27.699	0	1852.286	0	50.2	4	15.2	4	-1E+10	1	-1E+10	1	-1E+10	1	-1E+10	1	-1E+10	1	-1E+10	1
4901784	91	C	12/31/2017	10:49	-133.423	43.694	0	1880.20	0	2.0610	0	34.6540	4	27.700	0	1856.809	0	50.5	4	15.3	4	-1E+10	1	-1E+10	1	-1E+10	1	-1E+10	1	-1E+10	1	-1E+10	1
4901784	91	C	12/31/2017	10:49	-133.423	43.694	0	1884.80	0	2.0550	0	34.6550	4	27.701	0	1861.332	0	50.9	4	15.4	4	-1E+10	1	-1E+10	1	-1E+10	1	-1E+10	1	-1E+10	1	-1E+10	1
4901784	91	C	12/31/2017	10:49	-133.423	43.694	0	1890.40	0	2.0500	0	34.6560	4	27.702	0	1866.838	0	51.4	4	15.5	4	-1E+10	1	-1E+10	1	-1E+10	1	-1E+10	1	-1E+10	1	-1E+10	1
4901784	91	C	12/31/2017	10:49	-133.423	43.694	0	1895.00	0	2.0450	0	34.6570	4	27.703	0	1871.360	0	51.9	4	15.7	4	-1E+10	1	-1E+10	1	-1E+10	1	-1E+10	1	-1E+10	1	-1E+10	1
4901784	91	C	12/31/2017	10:49	-133.423	43.694	0	1900.20	0	2.0390	0	34.6580	4	27.705	0	1876.472	0	52.4	4	15.8	4	-1E+10	1	-1E+10	1	-1E+10	1	-1E+10	1	-1E+10	1	-1E+10	1
4901784	91	C	12/31/2017	10:49	-133.423	43.694	0	1905.30	0	2.0290	0	34.6600	4	27.707	0	1881.486	0	52.8	4	15.9	4	-1E+10	1	-1E+10	1	-1E+10	1	-1E+10	1	-1E+10	1	-1E+10	1
4901784	91	C	12/31/2017	10:49	-133.423	43.694	0	1910.20	0	2.0240	0	34.6600	4	27.708	0	1886.303	0	53.0	4	16.0	4	-1E+10	1	-1E+10	1	-1E+10	1	-1E+10	1	-1E+10	1	-1E+10	1
4901784	91	C	12/31/2017	10:49	-133.423	43.694	0	1915.10	0	2.0230	0	34.6600	4	27.708	0	1891.120	0	53.2	4	16.0	4	-1E+10	1	-1E+10	1	-1E+10	1	-1E+10	1	-1E+10	1	-1E+10	1
4901784	91	C	12/31/2017	10:49	-133.423	43.694	0	1920.00	0	2.0210	0	34.6610	4	27.709	0	1895.937	0	53.3	4	16.1	4	-1E+10	1	-1E+10	1	-1E+10	1	-1E+10	1	-1E+10	1	-1E+10	1
4901784	91	C	12/31/2017	10:49	-133.423	43.694	0	1925.00	0	2.0180	0	34.6610	4	27.709	0	1900.852	0	53.6	4	16.2	4	-1E+10	1	-1E+10	1	-1E+10	1	-1E+10	1	-1E+10	1	-1E+10	1
4901784	91	C	12/31/2017	10:49	-133.423	43.694	0	1929.90	0	2.0140	0	34.6620	4	27.710	0	1905.669	0	53.8	4	16.2	4	-1E+10	1	-1E+10	1	-1E+10	1	-1E+10	1	-1E+10	1	-1E+10	1
4901784	91	C	12/31/2017	10:49	-133.423	43.694	0	1934.90	0	2.0110	0	34.6620	4	27.710	0	1910.583	0	54.1	4	16.3	4	-1E+10	1	-1E+10	1	-1E+10	1	-1E+10	1	-1E+10	1	-1E+10	1
4901784	91	C	12/31/2017	10:49	-133.423	43.694	0	1939.80	0	2.0050	0	34.6630	4	27.712	0	1915.400	0	54.4	4	16.4	4	-1E+10	1	-1E+10	1	-1E+10	1	-1E+10	1	-1E+10	1	-1E+10	1
4901784	91	C	12/31/2017	10:49	-133.423	43.694	0	1944.80	0	2.0010	0	34.6630	4	27.712	0	1920.314	0	54.7	4	16.5	4	-1E+10	1	-1E+10	1	-1E+10	1	-1E+10	1	-1E+10	1	-1E+10	1
4901784	91	C	12/31/2017	10:49	-133.423	43.694	0	1949.80	0	1.9980	0	34.6640	4	27.713	0	1925.229	0	54.9	4	16.6	4	-1E+10	1	-1E+10	1	-1E+10	1	-1E+10	1	-1E+10	1	-1E+10	1
4901784	91	C	12/31/2017	10:49	-133.423	43.694	0	1954.80	0	1.9950	0	34.6650	4	27.714	0	1930.143	0	55.2	4	16.6	4	-1E+10	1	-1E+10	1	-1E+10	1	-1E+10	1	-1E+10	1	-1E+10	1
4901784	91	C	12/31/2017	10:49	-133.423	43.694	0	1959.80	0	1.9940	0	34.6650	4	27.714	0	1935.057	0	55.4	4	16.7	4	-1E+10	1	-1E+10	1	-1E+10	1	-1E+10	1	-1E+10	1	-1E+10	1
4901784	91	C	12/31/2017	10:49	-133.423	43.694	0	1964.90	0	1.9900	0	34.6650	4	27.715	0	1940.070	0	55.7	4	16.8	4	-1E+10	1	-1E+10	1	-1E+10	1	-1E+10	1	-1E+10	1	-1E+10	1
4901784	91	C	12/31/2017	10:49	-133.423	43.694	0	1970.00	0	1.9850	0	34.6670	4	27.717	0	1945.082	0	56.0	4	16.9	4	-1E+10	1	-1E+10	1	-1E+10	1	-1E+10	1	-1E+10	1	-1E+10	1
4901784	91	C	12/31/2017	10:49	-133.423	43.694	0	1975.00	0	1.9830	0	34.6670	4	27.717	0	1949.996	0	56.2	4	16.9	4	-1E+10	1	-1E+10	1	-1E+10	1	-1E+10	1	-1E+10	1	-1E+10	1
4901784	91	C	12/31/2017	10:49	-133.423	43.694	0	1980.10	0	1.9800	0	34.6670	4	27.717	0	1955.008	0	56.4	4	17.0	4	-1E+10	1	-1E+10	1	-1E+10	1	-1E+10	1	-1E+10	1	-1E+10	1
4901784	91	C	12/31/2017	10:49	-133.423	43.694	0	1985.20	0	1.9770	0	34.6680	4	27.718	0	1960.020	0	56.6	4	17.1	4	-1E+10	1	-1E+10	1	-1E+10	1	-1E+10	1	-1E+10	1	-1E+10	1
4901784	91	C	12/31/2017	10:49	-133.423	43.694	0	1990.30	0	1.9750	0	34.6690	4	27.719	0	1965.032	0	56.8	4	17.1	4	-1E+10	1	-1E+10	1	-1E+10	1	-1E+10	1	-1E+10	1	-1E+10	1
4901784	91	C	12/31/2017	10:49	-133.423	43.694	0	1995.50	0	1.9710	0	34.6700	4	27.720	0	1970.142	0	57.2	4	17.2	4	-1E+10	1	-1E+10	1	-1E+10	1	-1E+10	1	-1E+10	1	-1E+10	1
4901784	91	C	12/31/2017	10:49	-133.423	43.694	0	2000.60	0	1.9670	0	34.6710	4	27.721	0	1975.153	0	57.6	4	17.4	4	-1E+10	1	-1E+10	1	-1E+10	1	-1E+10	1	-1E+10	1	-1E+10	1
4901784	91	C	12/31/2017	10:49	-133.423	43.694	0	2005.80	0	1.9640	0	34.6720	4	27.722	0	1980.263	0	57.7	4	17.4	4	-1E+10	1	-1E+10	1	-1E+10	1	-1E+10	1	-1E+10	1	-1E+10	1
4901784	91	C	12/31/2017	10:49	-133.423	43.694	0	2010.10	0	1.9610	0	34.6720	4	27.723	0	1984.488	0	57.9	4	17.4	4	-1E+10	1	-1E+10	1	-1E+10	1	-1E+10	1	-1E+10	1	-1E+10	1
4901784	91	C	12/31/2017	10:49	-133.423	43.694	0	2014.20	0	1.9600	0	34.6720	4	27.723	0	1988.517	0	58.1	4	17.5	4	-1E+10	1	-1E+10	1	-1E+10	1	-1E+10	1	-1E+10	1	-1E+10	1
4901784	91	C	12/31/2017	10:49	-133.423	43.694	0	2020.40	0	1.9570	0	34.6730	4	27.724	0	1994.609	0	58.4	4	17.6	4	-1E+10	1	-1E+10	1	-1E+10	1	-1E+10	1	-1E+10	1	-1E+10	1
4901784	91	C	12/31/2017	10:49	-133.423	43.694	0																										
4901784	92	C	01/10/2018	10:47	-133.295	43.548	0	3.10	0	11.8240	0	32.8630	4	24.963	0	3.075	0	257.2	4	95.9	4	-1E+10	1	-1E+10	1	-1E+10	1	-1E+10	1	-1E+10	1	-1E+10	1
4901784	92	C	01/10/2018	10:47	-133.295	43.548	0	4.90	0	11.8250	0	32.8630	4	24.963	0	4.861	0	257.1	4	95.9	4	-1E+10	1	-1E+10	1	-1E+10	1	-1E+10	1	-1E+10	1	-1E+10	1
4901784	92	C	01/10/2018	10:47	-133.295	43.548	0	6.60	0	11.8250	0	32.8630	4	24.963	0	6.547	0	257.0	4	95.8	4	-1E+10	1	-1E+10	1	-1E+10	1	-1E+10	1	-1E+10	1	-1E+10	1
4901784	92	C	01/10/2018	10:47	-133.295	43.548	0	8.70	0	11.8260	0	32.8630	4	24.963	0	8.630	0	257.0	4	95.8	4	-1E+10	1	-1E+10	1	-1E+10	1	-1E+10	1	-1E+10	1	-1E+10	1
4901784	92	C	01/10/2018	10:47	-133.295	43.548	0	10.60	0	11.8260	0	32.8630	4	24.963	0	10.515	0	257.0	4	95.8	4	-1E+10	1	-1E+10	1	-1E+10	1	-1E+10	1	-1E+10	1	-1E+10	1
4901784	92	C	01/10/2018	10:47	-133.295	43.548	0	12.70	0	11.8260	0	32.8630	4	24.963	0	12.598	0	257.0	4	95.8	4	-1E+10	1	-1E+10	1	-1E+10	1	-1E+10	1	-1E+10	1	-1E+10	1
4901784	92	C	01/10/2018	10:47	-133.295	43.548	0	14.80	0	11.8270	0	32.8620	4	24.962	0	14.681	0	257.0	4	95.8	4	-1E+10	1	-1E+10	1	-1E+10	1	-1E+10	1	-1E+10	1	-1E+10	1
4901784	92	C	01/10/2018	10:47	-133.295	43.548	0	16.80	0	11.8260	0	32.8630	4	24.963	0	16.665	0	256.8	4	95.7	4	-1E+10	1	-1E+10	1	-1E+10	1	-1E+10	1	-1E+10	1	-1E+10	1
4901784	92	C	01/10/2018	10:47	-133.295	43.548	0	19.00	0	11.8270	0	32.8630	4	24.963	0	18.847	0	256.8	4	95.8	4	-1E+10	1	-1E+10	1	-1E+10	1	-1E+10	1	-1E+10	1	-1E+10	1
4901784	92	C	01/10/2018	10:47	-133.295	43.548	0	21.20	0	11.8270	0	32.8630	4	24.963	0	21.030	0	256.8	4	95.7	4	-1E+10	1	-1E+10	1	-1E+10	1	-1E+10	1	-1E+10	1	-1E+10	1
4901784	92	C	01/10/2018	10:47	-133.295	43.548	0	23.40	0	11.8270	0	32.8630	4	24.963	0	23.212	0	256.7	4	95.7	4	-1E+10	1	-1E+10	1	-1E+10	1	-1E+10	1	-1E+10	1	-1E+10	1
4901784	92	C	01/10/2018	10:47	-133.295	43.548	0	25.50	0	11.8270	0	32.8630	4	24.963	0	25.295	0	256.6	4	95.7	4	-1E+10	1	-1E+10	1	-1E+10	1	-1E+10	1	-1E+10	1	-1E+10	1
4901784	92	C	01/10/2018	10:47	-133.295	43.548	0	27.60	0	11.8270	0	32.8630	4	24.963	0	27.378	0	256.6	4	95.7	4	-1E+10	1	-1E+10	1	-1E+10	1	-1E+10	1	-1E+10	1	-1E+10	1
4901784	92	C	01/10/2018	10:47	-133.295	43.548	0	29.60	0	11.8280	0	32.8630	4	24.963	0	29.362	0	256.4	4	95.6	4	-1E+10	1	-1E+10	1	-1E+10	1	-1E+10	1	-1E+10	1	-1E+10	1
4901784	92	C	01/10/2018	10:47	-133.295	43.548	0	31.70	0	11.8280	0	32.8630	4	24.963	0	31.444	0	256.4	4	95.6	4	-1E+10	1	-1E+10	1	-1E+10	1	-1E+10	1	-1E+10	1	-1E+10	1
4901784	92	C	01/10/2018	10:47	-133.295	43.548	0	34.10	0	11.8290	0	32.8630	4	24.963	0	33.825	0	256.4	4	95.6	4	-1E+10	1	-1E+10	1	-1E+10	1	-1E+10	1	-1E+10	1	-1E+10	1
4901784	92	C	01/10/2018	10:47	-133.295	43.548	0	34.80	0	11.8290	0	32.8630	4	24.963	0	34.519	0	256.3	4	95.5	4	-1E+10	1	-1E+10	1	-1E+10	1	-1E+10	1	-1E+10	1	-1E+10	1
4901784	92	C	01/10/2018	10:47	-133.295	43.548	0	36.60	0	11.8300	0	32.8620	4	24.962	0	36.305	0	256.3	4	95.6	4	-1E+10	1	-1E+10	1	-1E+10	1	-1E+10	1	-1E+10	1	-1E+10	1
4901784	92	C	01/10/2018	10:47	-133.295	43.548	0	38.40	0	11.8290	0	32.8630	4	24.963	0	38.090	0	256.2	4	95.5	4	-1E+10	1	-1E+10	1	-1E+10	1	-1E+10	1	-1E+10	1	-1E+10	1
4901784	92	C	01/10/2018	10:47	-133.295	43.548	0	40.10	0	11.8300	0	32.8630	4	24.963	0	39.776	0	256.0	4	95.4	4	-1E+10	1	-1E+10	1	-1E+10	1	-1E+10	1	-1E+10	1	-1E+10	1
4901784	92	C	01/10/2018	10:47	-133.295	43.548	0	41.70	0	11.8300	0	32.8620	4	24.962	0	41.363	0	255.8	4	95.4	4	-1E+10	1	-1E+10	1	-1E+10	1	-1E+10	1	-1E+10	1	-1E+10	1
4901784	92	C	01/10/2018	10:47	-133.295	43.548	0	43.40	0	11.8300	0	32.8630	4	24.963	0	43.049	0	256.0	4	95.4	4	-1E+10	1	-1E+10	1	-1E+10	1	-1E+10	1	-1E+10	1	-1E+10	1
4901784	92	C	01/10/2018	10:47	-133.295	43.548	0	44.90	0	11.8300	0	32.8630	4	24.963	0	44.537	0	255.7	4	95.3	4	-1E+10	1	-1E+10	1	-1E+10	1	-1E+10	1	-1E+10	1	-1E+10	1
4901784	92	C	01/10/2018	10:47	-133.295	43.548	0	46.40	0	11.8300	0	32.8630	4	24.963	0	46.024	0	255.6	4	95.3	4	-1E+10	1	-1E+10	1	-1E+10	1	-1E+10	1	-1E+10	1	-1E+10	1
4901784	92	C	01/10/2018	10:47	-133.295	43.548	0	47.80	0	11.8310	0	32.8620	4	24.962	0	47.413	0	255.5	4	95.3	4	-1E+10	1	-1E+10	1	-1E+10	1	-1E+10	1	-1E+10	1	-1E+10	1
4901784	92	C	01/10/2018	10:47	-133.295	43.548	0	49.40	0	11.8310	0	32.8620	4	24.962	0	49.000	0	255.4	4	95.2	4	-1E+10	1	-1E+10	1	-1E+10	1	-1E+10	1	-1E+10	1	-1E+10	1
4901784	92	C	01/10/2018	10:47	-133.295	43.548	0	51.00	0	11.8310	0	32.8620	4	24.962	0	50.587	0	255.2	4	95.1	4	-1E+10	1	-1E+10	1	-1E+10	1	-1E+10	1	-1E+10	1	-1E+10	1
4901784	92	C	01/10/2018	10:47	-133.295	43.548	0	52.70	0	11.8310	0	32.8620	4	24.962	0	52.273	0	255.1	4	95.1	4	-1E+10	1	-1E+10	1	-1E+10	1	-1E+10	1	-1E+10	1	-1E+10	1
4901784	92	C	01/10/2018	10:47	-133.295	43.548	0	54.90	0	11.8320	0	32.8620	4	24.962	0	54.454	0	254.8	4	95.0	4	-1E+10	1	-1E+10	1	-1E+10	1	-1E+10	1	-1E+10	1	-1E+10	1
4901784	92	C	01/10/2018	10:47	-133.295	43.548	0	56.70	0	11.8320	0	32.8610	4	24.961	0	56.240	0	254.5	4	94.9	4	-1E+10	1	-1E+10	1	-1E+10	1	-1E+10	1	-1E+10	1	-1E+10	1
4901784	92	C	01/10/2018	10:47	-133.295	43.548	0	58.30	0	11.8320	0	32.8610	4	24.961	0	57.826	0	254.2	4	94.8	4	-1E+10	1	-1E+10	1	-1E+10	1	-1E+10	1	-1E+10	1	-1E+10	1
4901784	92	C	01/10/2018	10:47	-133.295	43.548	0	59.90	0	11.8330	0	32.8600	4	24.960	0	59.413	0	253.9	4	94.7	4	-1E+10	1	-1E+10	1	-1E+10	1	-1E+10	1	-1E+10	1	-1E+10	1
4901784	92	C	01/10/2018	10:47	-133.295	43.548	0	61.40	0	11.8330	0	32.8580	4	24.959	0	60.901	0	253.4	4	94.5	4	-1E+10	1	-1E+10	1	-1E+10	1	-1E+10	1	-1E+10	1	-1E+10	1
4901784	92	C	01/10/2018	10:47	-133.295	43.548	0	62.90	0	11.8330	0	32.8550	4	24.957	0	62.388	0	253.2	4	94.4	4	-1E+10	1	-1E+10	1	-1E+10	1	-1E+10	1	-1E+10	1	-1E+10	1
4901784	92	C	01/10/2018	10:47	-133.295	43.548	0	64.80	0	11.8180	0	32.8520	4	24.957	0	64.273	0	252.3	4	94.0	4	-1E+10	1	-1E+10	1	-1E+10	1	-1E+10	1	-1E+10	1	-1E+10	1
4901784	92	C	01/10/2018	10:47	-133.295	43.548	0	66.20	0	11.8190	0	32.8410	4	24.948	0	65.661	0	251.6	4	93.8	4	-1E+10	1	-1E+10	1	-1E+10	1	-1E+10	1	-1E+10	1	-1E+10	1
4901784	92	C	01/10/2018	10:47	-133.295	43.548	0	67.20	0	11.8160	0	32.8250	4	24.937	0	66.653	0	250.7	4	93.4	4	-1E+10	1	-1E+10	1	-1E+10	1	-1E+10	1	-1E+10	1	-1E+10	1
4901784	92	C	01/10/2018	10:47	-133.295	43.548	0	68.40	0	11.6040	0	32.8540	4	24.998	0	67.843	0	249.3	4	92.5	4	-1E+10	1	-1E+10	1	-1E+10	1	-1E+10	1	-1E+10	1	-1E+10	1
4901784	92	C	01/10/2018	10:47	-133.295	43.548	0	69.70	0	10.2570	0	32.9220	4	25.288	0	69.132	0	255.1	4	92.0	4	-1E+10	1	-1E+10	1	-1E+10	1	-1E+10	1	-1E+10	1	-1E+10	1
4901784	92	C	01/10/2018	10:47	-133.295	43.548	0	71.20	0	9.4430	0	32.9880	4	25.474	0	70.619	0	259.4	4	92.0	4	-1E+10	1	-1E+10	1	-1E+10	1	-1E+10	1	-1E+10	1	-1E+10	1
4901784	92	C	01/10/2018	10:47	-133.295	43.548	0	72.70	0	9.2240	0	32.9770	4	25.501	0	72.107	0	261.5	4	92.3	4	-1E+10	1	-1E+10	1	-1E+10	1	-1E+10	1	-1E+10	1	-1E+10	1
4901784	92	C	01/10/2018	10:47	-133.295	43.548	0	74.20	0	9.0440	0	32.9890	4	25.538	0	73.594	0	262.2	4	92.2	4	-1E+10	1	-1E+10	1	-1E+10	1	-1E+10	1	-1E+10	1	-1E+10	1
4901784	92	C	01/10/2018	10:47	-133.295	43.548	0	75.70	0	8.8480	0	33.0040	4	25.581	0	75.082	0	262.8	4	92.0	4	-1E+10	1	-1E+10	1	-1E+10	1	-1E+10	1	-1E+10	1	-1E+10	1
4901784	92	C	01/10/2018	10:47	-133.295	43.548	0	77.20	0	8.7700	0	33.0050	4	25.593	0	76.569	0	263.4	4	92.1	4	-1E+10	1	-1E+10	1	-1E+10	1	-1E+10	1	-1E+10	1	-1E+10	1
4901784	92	C	01/10/2018	10:47	-133.295	43.548	0	78.80	0	8.7190	0	33.0170	4	25.611	0	78.156	0	263.1	4	91.8	4	-1E+10	1	-1E+10	1	-1E+10	1	-1E+10	1	-1E+10	1	-1E+10	1
4901784	92	C	01/10/2018	10:47	-133.295	43.548	0	80.50	0	8.5700	0	33.0350	4	25.648	0	79.842	0	263.3	4	91.6	4	-1E+10	1	-1E+10	1	-1E+10	1	-1E+10	1	-1E+10	1	-1E+10	1
4901784	92	C	01/10/2018	10:47	-133.295	43.548	0	82.10	0	8.5350	0	33.0310	4	25.650	0	81.428	0	263.0	4	91.5	4	-1E+10	1	-1E+10	1	-1E+10	1	-1E+10	1	-1E+10	1	-1E+10	1
4901784	92	C	01/10/2018	10:47	-133.295	43.548	0	83.70	0	8.4230	0	33.0350	4	25.670	0	83.015	0	262.9	4	91.2	4	-1E+10	1	-1E+10	1	-1E+10	1	-1E+10	1	-1E+10	1	-1E+10	1
4901784	92	C	01/10/2018	10:47	-133.295	43.548	0	85.40	0	8.4030	0	33.0350	4	25.673	0	84.701	0	262.8	4	91.1	4	-1E+10	1	-1E+10	1	-1E+10	1	-1E+10	1	-1E+10	1	-1E+10	1
4901784	92	C	01/10/2018	10:47	-133.295	43.548	0	87.00	0	8.3910	0	33.0360	4	25.675	0	86.287	0	262.1	4	90.9	4	-1E+10	1	-1E+10	1	-1E+10	1	-1E+10	1	-1E+10	1	-1E+10	1
4901784	92	C	01/10/2018	10:47	-133.295	43.548	0	88.60	0	8.3570	0	33.0410	4	25.684	0	87.874	0	261.7	4	90.6	4	-1E+10	1	-1E+10	1	-1E+10	1	-1E+10	1	-1E+10	1	-1E+10	1
4901784	92	C	01/10/2018	10:47	-133.295	43.548	0	90.20	0	8.3270	0	33.0490	4	25.695	0	89.460	0	261.5	4	90.5	4	-1E+10	1	-1E+10	1	-1E+10	1	-1E+10	1	-1E+10	1	-1E+10	1
4901784	92	C	01/10/2018	10:47	-133.295	43.548	0	91.80	0	8.3320	0	33.0540	4	25.698	0	91.047	0	260.9	4	90.3	4	-1E+10	1	-1E+10	1	-1E+10	1	-1E+10	1	-1E+10	1	-1E+10	1
4901784	92	C	01/10/2018	10:47	-133.295	43.548	0	93.50	0	8.2840	0	33.0560	4	25.707	0	92.732	0	260.4	4	90.1	4	-1E+10	1	-1E+10	1	-1E+10	1	-1E+10	1	-1E+10	1	-1E+10	1
4901784	92	C	01/10/2018	10:47	-133.295	43.548	0	95.10	0	8.2050	0	33.0540	4	25.717	0	94.319	0	260.3	4	89.9	4	-1E+10	1	-1E+10	1	-1E+10	1	-1E+10	1	-1E+10	1	-1E+10	1
4901784	92	C	01/10/2018	10:47	-133.295	43.548	0	96.80	0	8.2050	0	33.0610	4	25.723	0	96.005	0	259.9	4	89.7	4	-1E+10	1	-1E+10	1	-1E+10	1	-1E+10	1	-1E+10	1	-1E+10	1
4901784	92	C	01/10/2018	10:47	-133.295	43.548	0	98.50	0	8.2080	0	33.0670	4	25.727	0	97.690	0	259.5	4	89.6	4	-1E+10	1	-1E+10	1	-1E+10	1	-1E+10	1	-1E+10	1	-1E+10	1
4901784	92	C	01/10/2018	10:47	-133.295	43.548	0	100.30	0	8.2060	0	33.0680	4	25.728	0	99.475	0	259.0	4	89.4	4	-1E+10	1	-1E+10	1	-1E+10	1	-1E+10	1	-1E+10	1	-1E+10	1
4901784	92	C	01/10/2018	10:47	-133.295	43.548	0	102.90	0	8.1580	0	33.0720	4	25.738	0	102.053	0	258.4	4	89.1	4	-1E+10	1	-1E+10	1	-1E+10	1	-1E+10	1	-1E+10	1	-1E+10	1
4901784	92	C	01/10/2018	10:47	-133.295	43.548	0	105.40	0	8.1070	0	33.0770	4	25.750	0	104.532	0	257.9	4	88.8	4	-1E+10	1	-1E+10	1	-1E+10	1	-1E+10	1	-1E+10	1	-1E+10	1
4901784	92	C	01/10/2018	10:47	-133.295	43.548	0	107.10	0	8.0680	0	33.0750	4	25.754	0	106.217	0	257.4	4	88.6	4	-1E+10	1	-1E+10	1	-1E+10	1	-1E+10	1	-1E+10	1	-1E+10	1
4901784	92	C	01/10/2018	10:47	-133.295	43.548	0	109.70	0	8.0590	0	33.0750	4	25.755	0	108.795	0	256.2	4	88.2	4	-1E+10	1	-1E+10	1	-1E+10	1	-1E+10	1	-1E+10	1	-1E+10	1
4901784	92	C	01/10/2018	10:47	-133.295	43.548	0	112.80	0	8.0330	0	33.0760	4	25.760	0	111.869	0	253.8	4	87.3	4	-1E+10	1	-1E+10	1	-1E+10	1	-1E+10	1	-1E+10	1	-1E+10	1
4901784	92	C	01/10/2018	10:47	-133.295	43.548	0	115.20	0	8.0090	0	33.0920	4	25.776	0	114.248	0	250.1	4	86.0	4	-1E+10	1	-1E+10	1	-1E+10	1	-1E+10	1	-1E+10	1	-1E+10	1
4901784	92	C	01/10/2018	10:47	-133.295	43.548	0	117.40	0	8.0210	0	33.1200	4	25.796	0	116.429	0	245.9	4	84.6	4	-1E+10	1	-1E+10	1	-1E+10	1	-1E+10	1	-1E+10	1	-1E+10	1
4901784	92	C	01/10/2018	10:47	-133.295	43.548	0	119.50	0	8.0730	0	33.1710	4	25.829	0	118.512	0	241.3	4	83.1	4	-1E+10	1	-1E+10	1	-1E+10	1	-1E+10	1	-1E+10	1	-1E+10	1
4901784	92	C	01/10/2018	10:47	-133.295	43.548	0	122.50	0	8.1340	0	33.2340	4	25.869	0	121.486	0	234.2	4	80.8	4	-1E+10	1	-1E+10	1	-1E+10	1	-1E+10	1	-1E+10	1	-1E+10	1
4901784	92	C	01/10/2018	10:47	-133.295	43.548	0	124.90	0	8.2160	0	33.3290	4	25.932	0	123.865	0	228.9	4	79.2	4	-1E+10	1	-1E+10	1	-1E+10	1	-1E+10	1	-1E+10	1	-1E+10	1
4901784	92	C	01/10/2018	10:47	-133.295	43.548	0	127.20	0	8.2410	0	33.3560	4	25.949	0	126.145	0	224.8	4	77.8	4	-1E+10	1	-1E+10	1	-1E+10	1	-1E+10	1	-1E+10	1	-1E+10	1
4901784	92	C	01/10/2018	10:47	-133.295	43.548	0	130.30	0	8.2790	0	33.4130	4	25.988	0	129.219	0	218.8	4	75.9	4	-1E+10	1	-1E+10	1	-1E+10	1	-1E+10	1	-1E+10	1	-1E+10	1
4901784	92	C	01/10/2018	10:47	-133.295	43.548	0	132.70	0	8.3080	0	33.4550	4	26.017	0	131.598	0	213.8	4	74.2	4	-1E+10	1	-1E+10	1	-1E+10	1	-1E+10	1	-1E+10	1	-1E+10	1
4901784	92	C	01/10/2018	10:47	-133.295	43.548	0	135.20	0	8.4710	0	33.5730	4	26.085	0	134.077	0	208.9	4	72.8	4	-1E+10	1	-1E+10	1	-1E+10	1	-1E+10	1	-1E+10	1	-1E+10	1
4901784	92	C	01/10/2018	10:47	-133.295	43.548	0	137.70	0	8.5010	0	33.6120	4	26.111	0	136.555	0	205.5	4	71.7	4	-1E+10	1	-1E+10	1	-1E+10	1	-1E+10	1	-1E+10	1	-1E+10	1
4901784	92	C	01/10/2018	10:47	-133.295	43.548	0	140.40	0	8.5210	0	33.6600	4	26.146	0	139.232	0	202.8	4	70.8	4	-1E+10	1	-1E+10	1	-1E+10	1	-1E+10	1	-1E+10	1	-1E+10	1
4901784	92	C	01/10/2018	10:47	-133.295	43.548	0	143.00	0	8.5360	0	33.6890	4	26.166	0	141.809	0	200.3	4	70.0	4	-1E+10	1	-1E+10	1	-1E+10	1	-1E+10	1	-1E+10	1	-1E+10	1
4901784	92	C	01/10/2018	10:47	-133.295	43.548	0	144.70	0	8.5470	0	33.7050	4	26.177	0	143.494	0	198.7	4	69.4	4	-1E+10	1	-1E+10	1	-1E+10	1	-1E+10	1	-1E+10	1	-1E+10	1
4901784	92	C	01/10/2018	10:47	-133.295	43.548	0	147.40	0	8.5650	0	33.7430	4	26.204	0	146.171	0	196.0	4	68.6	4	-1E+10	1	-1E+10	1	-1E+10	1	-1E+10	1	-1E+10	1	-1E+10	1
4901784	92	C	01/10/2018	10:47	-133.295	43.548	0	150.10	0	8.5820	0	33.7820	4	26.232	0	148.847	0	193.6	4	67.7	4	-1E+10	1	-1E+10	1	-1E+10	1	-1E+10	1	-1E+10	1	-1E+10	1
4901784	92	C	01/10/2018	10:47	-133.295	43.548	0	151.90	0	8.5860	0	33.7940	4	26.241	0	150.632	0	192.3	4	67.3	4	-1E+10	1	-1E+10	1	-1E+10	1	-1E+10	1	-1E+10	1	-1E+10	1
4901784	92	C	01/10/2018	10:47	-133.295	43.548	0	154.60	0	8.5920	0	33.8420	4	26.278	0	153.308	0	190.2	4	66.6	4	-1E+10	1	-1E+10	1	-1E+10	1	-1E+10	1	-1E+10	1	-1E+10	1
4901784	92	C	01/10/2018	10:47	-133.295	43.548	0	157.20	0	8.6000	0	33.8580	4	26.289	0	155.885	0	188.7	4	66.1	4	-1E+10	1	-1E+10	1	-1E+10	1	-1E+10	1	-1E+10	1	-1E+10	1
4901784	92	C	01/10/2018	10:47	-133.295	43.548	0	159.80	0	8.6040	0	33.9100	4	26.329	0	158.463	0	187.8	4	65.8	4	-1E+10	1	-1E+10	1	-1E+10	1	-1E+10	1	-1E+10	1	-1E+10	1
4901784	92	C	01/10/2018	10:47	-133.295	43.548	0	162.50	0	8.6070	0	33.9350	4	26.349	0	161.139	0	187.5	4	65.7	4	-1E+10	1	-1E+10	1	-1E+10	1	-1E+10	1	-1E+10	1	-1E+10	1
4901784	92	C	01/10/2018	10:47	-133.295	43.548	0	165.10	0	8.6100	0	33.9460	4	26.357	0	163.716	0	187.5	4	65.8	4	-1E+10	1	-1E+10	1	-1E+10	1	-1E+10	1	-1E+10	1	-1E+10	1
4901784	92	C	01/10/2018	10:47	-133.295	43.548	0	167.80	0	8.6300	0	33.9780	4	26.379	0	166.393	0	187.4	4	65.7	4	-1E+10	1	-1E+10	1	-1E+10	1	-1E+10	1	-1E+10	1	-1E+10	1
4901784	92	C	01/10/2018	10:47	-133.295	43.548	0	169.60	0	8.6290	0	33.9850	4	26.385	0	168.177	0	187.0	4	65.6	4	-1E+10	1	-1E+10	1	-1E+10	1	-1E+10	1	-1E+10	1	-1E+10	1
4901784	92	C	01/10/2018	10:47	-133.295	43.548	0	172.40	0	8.6250	0	34.0160	4	26.409	0	170.952	0	186.5	4	65.4	4	-1E+10	1	-1E+10	1	-1E+10	1	-1E+10	1	-1E+10	1	-1E+10	1
4901784	92	C	01/10/2018	10:47	-133.295	43.548	0	175.30	0	8.6220	0	34.0290	4	26.420	0	173.827	0	185.9	4	65.2	4	-1E+10	1	-1E+10	1	-1E+10	1	-1E+10	1	-1E+10	1	-1E+10	1
4901784	92	C	01/10/2018	10:47	-133.295	43.548	0	177.10	0	8.6250	0	34.0370	4	26.426	0	175.611	0	185.3	4	65.0	4	-1E+10	1	-1E+10	1	-1E+10	1	-1E+10	1	-1E+10	1	-1E+10	1
4901784	92	C	01/10/2018	10:47	-133.295	43.548	0	180.00	0	8.6000	0	34.0480	4	26.439	0	178.485	0	183.8	4	64.5	4	-1E+10	1	-1E+10	1	-1E+10	1	-1E+10	1	-1E+10	1	-1E+10	1
4901784	92	C	01/10/2018	10:47	-133.295	43.548	0	182.80	0	8.5280	0	34.0530	4	26.454	0	181.260	0	182.5	4	63.9	4	-1E+10	1	-1E+10	1	-1E+10	1	-1E+10	1	-1E+10	1	-1E+10	1
4901784	92	C	01/10/2018	10:47	-133.295	43.548	0	184.60	0	8.4870	0	34.0520	4	26.459	0	183.044	0	182.0	4	63.7	4	-1E+10	1	-1E+10	1	-1E+10	1	-1E+10	1	-1E+10	1	-1E+10	1
4901784	92	C	01/10/2018	10:47	-133.295	43.548	0	187.30	0	8.4640	0	34.0520	4	26.463	0	185.720	0	181.0	4	63.3	4	-1E+10	1	-1E+10	1	-1E+10	1	-1E+10	1	-1E+10	1	-1E+10	1
4901784	92	C	01/10/2018	10:47	-133.295	43.548	0	189.90	0	8.4510	0	34.0500	4	26.463	0	188.297	0	179.7	4	62.8	4	-1E+10	1	-1E+10	1	-1E+10	1	-1E+10	1	-1E+10	1	-1E+10	1
4901784	92	C	01/10/2018	10:47	-133.295	43.548	0	192.60	0	8.3950	0	34.0480	4	26.470	0	190.973	0	178.5	4	62.3	4	-1E+10	1	-1E+10	1	-1E+10	1	-1E+10	1	-1E+10	1	-1E+10	1
4901784	92	C	01/10/2018	10:47	-133.295	43.548	0	195.20	0	8.3470	0	34.0490	4	26.478	0	193.550	0	176.9	4	61.7	4	-1E+10	1	-1E+10	1	-1E+10	1	-1E+10	1	-1E+10	1	-1E+10	1
4901784	92	C	01/10/2018	10:47	-133.295	43.548	0	197.80	0	8.3090	0	34.0480	4	26.483	0	196.127	0	175.5	4	61.2	4	-1E+10	1	-1E+10	1	-1E+10	1	-1E+10	1	-1E+10	1	-1E+10	1
4901784	92	C	01/10/2018	10:47	-133.295	43.548	0	200.50	0	8.2100	0	34.0440	4	26.495	0	198.803	0	173.9	4	60.5	4	-1E+10	1	-1E+10	1	-1E+10	1	-1E+10	1	-1E+10	1	-1E+10	1
4901784	92	C	01/10/2018	10:47	-133.295	43.548	0	202.20	0	8.1750	0	34.0410	4	26.498	0	200.487	0	173.1	4	60.2	4	-1E+10	1	-1E+10	1	-1E+10	1	-1E+10	1	-1E+10	1	-1E+10	1
4901784	92	C	01/10/2018	10:47	-133.295	43.548	0	204.90	0	8.1300	0	34.0400	4	26.504	0	203.163	0	172.3	4	59.8	4	-1E+10	1	-1E+10	1	-1E+10	1	-1E+10	1	-1E+10	1	-1E+10	1
4901784	92	C	01/10/2018	10:47	-133.295	43.548	0	207.60	0	8.0920	0	34.0420	4	26.511	0	205.839	0	171.9	4	59.6	4	-1E+10	1	-1E+10	1	-1E+10	1	-1E+10	1	-1E+10	1	-1E+10	1
4901784	92	C	01/10/2018	10:47	-133.295	43.548	0	209.50	0	8.0850	0	34.0430	4	26.513	0	207.722	0	171.4	4	59.5	4	-1E+10	1	-1E+10	1	-1E+10	1	-1E+10	1	-1E+10	1	-1E+10	1
4901784	92	C	01/10/2018	10:47	-133.295	43.548	0	212.20	0	8.0830	0	34.0440	4	26.514	0	210.398	0	170.7	4	59.2	4	-1E+10	1	-1E+10	1	-1E+10	1	-1E+10	1	-1E+10	1	-1E+10	1
4901784	92	C	01/10/2018	10:47	-133.295	43.548	0	214.90	0	8.0770	0	34.0440	4	26.515	0	213.073	0	169.7	4	58.8	4	-1E+10	1	-1E+10	1	-1E+10	1	-1E+10	1	-1E+10	1	-1E+10	1
4901784	92	C	01/10/2018	10:47	-133.295	43.548	0	217.70	0	8.0570	0	34.0440	4	26.518	0	215.848	0	168.0	4	58.2	4	-1E+10	1	-1E+10	1	-1E+10	1	-1E+10	1	-1E+10	1	-1E+10	1
4901784	92	C	01/10/2018	10:47	-133.295	43.548	0	220.40	0	8.0100	0	34.0450	4	26.526	0	218.524	0	166.4	4	57.6	4	-1E+10	1	-1E+10	1	-1E+10	1	-1E+10	1	-1E+10	1	-1E+10	1
4901784	92	C	01/10/2018	10:47	-133.295	43.548	0	222.30	0	8.0020	0	34.0430	4	26.526	0	220.406	0	164.8	4	57.0	4	-1E+10	1	-1E+10	1	-1E+10	1	-1E+10	1	-1E+10	1	-1E+10	1
4901784	92	C	01/10/2018	10:47	-133.295	43.548	0	225.00	0	7.9000	0	34.0410	4	26.539	0	223.082	0	162.3	4	56.1	4	-1E+10	1	-1E+10	1	-1E+10	1	-1E+10	1	-1E+10	1	-1E+10	1
4901784	92	C	01/10/2018	10:47	-133.295	43.548	0	227.90	0	7.7460	0	34.0340	4	26.556	0	225.956	0	160.1	4	55.1	4	-1E+10	1	-1E+10	1	-1E+10	1	-1E+10	1	-1E+10	1	-1E+10	1
4901784	92	C	01/10/2018	10:47	-133.295	43.548	0	229.70	0	7.7220	0	34.0310	4	26.557	0	227.739	0	159.2	4	54.8	4	-1E+10	1	-1E+10	1	-1E+10	1	-1E+10	1	-1E+10	1	-1E+10	1
4901784	92	C	01/10/2018	10:47	-133.295	43.548	0	232.60	0	7.6590	0	34.0320	4	26.567	0	230.613	0	157.9	4	54.2	4	-1E+10	1	-1E+10	1	-1E+10	1	-1E+10	1	-1E+10	1	-1E+10	1
4901784	92	C	01/10/2018	10:47	-133.295	43.548	0	235.30	0	7.6220	0	34.0300	4	26.571	0	233.288	0	156.4	4	53.7	4	-1E+10	1	-1E+10	1	-1E+10	1	-1E+10	1	-1E+10	1	-1E+10	1
4901784	92	C	01/10/2018	10:47	-133.295	43.548	0	237.20	0	7.5920	0	34.0300	4	26.575	0	235.171	0	155.6	4	53.3	4	-1E+10	1	-1E+10	1	-1E+10	1	-1E+10	1	-1E+10	1	-1E+10	1
4901784	92	C	01/10/2018	10:47	-133.295	43.548	0	240.00	0	7.5380	0	34.0290	4	26.582	0	237.945	0	154.1	4	52.8	4	-1E+10	1	-1E+10	1	-1E+10	1	-1E+10	1	-1E+10	1	-1E+10	1
4901784	92	C	01/10/2018	10:47	-133.295	43.548	0	242.80	0	7.5000	0	34.0290	4	26.588	0	240.720	0	152.6	4	52.2	4	-1E+10	1	-1E+10	1	-1E+10	1	-1E+10	1	-1E+10	1	-1E+10	1
4901784	92	C	01/10/2018	10:47	-133.295	43.548	0	244.60	0	7.4860	0	34.0310	4	26.591	0	242.503	0	151.5	4	51.8	4	-1E+10	1	-1E+10	1	-1E+10	1	-1E+10	1	-1E+10	1	-1E+10	1
4901784	92	C	01/10/2018	10:47	-133.295	43.548	0	247.40	0	7.4300	0	34.0310	4	26.599	0	245.278	0	149.7	4	51.1	4	-1E+10	1	-1E+10	1	-1E+10	1	-1E+10	1	-1E+10	1	-1E+10	1
4901784	92	C	01/10/2018	10:47	-133.295	43.548	0	250.80	0	7.3190	0	34.0300	4	26.614	0	248.647	0	147.8	4	50.4	4	-1E+10	1	-1E+10	1	-1E+10	1	-1E+10	1	-1E+10	1	-1E+10	1
4901784	92	C	01/10/2018	10:47	-133.295	43.548	0	252.70	0	7.2810	0	34.0280	4	26.618	0	250.529	0	147.1	4	50.1	4	-1E+10	1	-1E+10	1	-1E+10	1	-1E+10	1	-1E+10	1	-1E+10	1
4901784	92	C	01/10/2018	10:47	-133.295	43.548	0	255.10	0	7.2470	0	34.0290	4	26.623	0	252.907	0	146.2	4	49.7	4	-1E+10	1	-1E+10	1	-1E+10	1	-1E+10	1	-1E+10	1	-1E+10	1
4901784	92	C	01/10/2018	10:47	-133.295	43.548	0	257.50	0	7.2200	0	34.0310	4	26.629	0	255.285	0	145.3	4	49.4	4	-1E+10	1	-1E+10	1	-1E+10	1	-1E+10	1	-1E+10	1	-1E+10	1
4901784	92	C	01/10/2018	10:47	-133.295	43.548	0	259.90	0	7.2090	0	34.0300	4	26.629	0	257.663	0	144.2	4	49.0	4	-1E+10	1	-1E+10	1	-1E+10	1	-1E+10	1	-1E+10	1	-1E+10	1
4901784	92	C	01/10/2018	10:47	-133.295	43.548	0	262.30	0	7.1550	0	34.0290	4	26.636	0	260.041	0	143.1	4	48.6	4	-1E+10	1	-1E+10	1	-1E+10	1	-1E+10	1	-1E+10	1	-1E+10	1
4901784	92	C	01/10/2018	10:47	-133.295	43.548	0	264.80	0	7.1310	0	34.0300	4	26.640	0	262.517	0	142.1	4	48.2	4	-1E+10	1	-1E+10	1	-1E+10	1	-1E+10	1	-1E+10	1	-1E+10	1
4901784	92	C	01/10/2018	10:47	-133.295	43.548	0	267.20	0	7.0900	0	34.0290	4	26.645	0	264.895	0	141.0	4	47.8	4	-1E+10	1	-1E+10	1	-1E+10	1	-1E+10	1	-1E+10	1	-1E+10	1
4901784	92	C	01/10/2018	10:47	-133.295	43.548	0	269.70	0	7.0710	0	34.0290	4	26.648	0	267.372	0	139.9	4	47.4	4	-1E+10	1	-1E+10	1	-1E+10	1	-1E+10	1	-1E+10	1	-1E+10	1
4901784	92	C	01/10/2018	10:47	-133.295	43.548	0	272.20	0	7.0320	0	34.0280	4	26.652	0	269.849	0	138.6	4	46.9	4	-1E+10	1	-1E+10	1	-1E+10	1	-1E+10	1	-1E+10	1	-1E+10	1
4901784	92	C	01/10/2018	10:47	-133.295	43.548	0	274.70	0	6.9940	0	34.0270	4	26.657	0	272.326	0	137.3	4	46.4	4	-1E+10	1	-1E+10	1	-1E+10	1	-1E+10	1	-1E+10	1	-1E+10	1
4901784	92	C	01/10/2018	10:47	-133.295	43.548	0	277.30	0	6.9240	0	34.0240	4	26.664	0	274.901	0	135.9	4	45.9	4	-1E+10	1	-1E+10	1	-1E+10	1	-1E+10	1	-1E+10	1	-1E+10	1
4901784	92	C	01/10/2018	10:47	-133.295	43.548	0	279.80	0	6.8690	0	34.0220	4	26.670	0	277.378	0	134.8	4	45.5	4	-1E+10	1	-1E+10	1	-1E+10	1	-1E+10	1	-1E+10	1	-1E+10	1
4901784	92	C	01/10/2018	10:47	-133.295	43.548	0	282.40	0	6.8250	0	34.0200	4	26.674	0	279.954	0	133.6	4	45.0	4	-1E+10	1	-1E+10	1	-1E+10	1	-1E+10	1	-1E+10	1	-1E+10	1
4901784	92	C	01/10/2018	10:47	-133.295	43.548	0	285.00	0	6.8030	0	34.0180	4	26.676	0	282.530	0	132.3	4	44.5	4	-1E+10	1	-1E+10	1	-1E+10	1	-1E+10	1	-1E+10	1	-1E+10	1
4901784	92	C	01/10/2018	10:47	-133.295	43.548	0	287.60	0	6.7140	0	34.0140	4	26.684	0	285.105	0	130.3	4	43.8	4	-1E+10	1	-1E+10	1	-1E+10	1	-1E+10	1	-1E+10	1	-1E+10	1
4901784	92	C	01/10/2018	10:47	-133.295	43.548	0	290.20	0	6.6210	0	34.0120	4	26.695	0	287.681	0	129.1	4	43.3	4	-1E+10	1	-1E+10	1	-1E+10	1	-1E+10	1	-1E+10	1	-1E+10	1
4901784	92	C	01/10/2018	10:47	-133.295	43.548	0	292.80	0	6.5740	0	34.0080	4	26.698	0	290.256	0	127.9	4	42.8	4	-1E+10	1	-1E+10	1	-1E+10	1	-1E+10	1	-1E+10	1	-1E+10	1
4901784	92	C	01/10/2018	10:47	-133.295	43.548	0	294.60	0	6.5390	0	34.0070	4	26.702	0	292.040	0	127.0	4	42.5	4	-1E+10	1	-1E+10	1	-1E+10	1	-1E+10	1	-1E+10	1	-1E+10	1
4901784	92	C	01/10/2018	10:47	-133.295	43.548	0	297.30	0	6.4830	0	34.0060	4	26.709	0	294.714	0	125.7	4	42.0	4	-1E+10	1	-1E+10	1	-1E+10	1	-1E+10	1	-1E+10	1	-1E+10	1
4901784	92	C	01/10/2018	10:47	-133.295	43.548	0	299.90	0	6.4380	0	34.0070	4	26.715	0	297.290	0	124.4	4	41.5	4	-1E+10	1	-1E+10	1	-1E+10	1	-1E+10	1	-1E+10	1	-1E+10	1
4901784	92	C	01/10/2018	10:47	-133.295	43.548	0	302.60	0	6.4040	0	34.0050	4	26.718	0	299.964	0	123.1	4	41.1	4	-1E+10	1	-1E+10	1	-1E+10	1	-1E+10	1	-1E+10	1	-1E+10	1
4901784	92	C	01/10/2018	10:47	-133.295	43.548	0	305.20	0	6.3540	0	34.0050	4	26.725	0	302.540	0	121.6	4	40.5	4	-1E+10	1	-1E+10	1	-1E+10	1	-1E+10	1	-1E+10	1	-1E+10	1
4901784	92	C	01/10/2018	10:47	-133.295	43.548	0	307.00	0	6.3140	0	34.0020	4	26.728	0	304.323	0	120.7	4	40.2	4	-1E+10	1	-1E+10	1	-1E+10	1	-1E+10	1	-1E+10	1	-1E+10	1
4901784	92	C	01/10/2018	10:47	-133.295	43.548	0	309.70	0	6.2710	0	34.0000	4	26.732	0	306.997	0	119.0	4	39.6	4	-1E+10	1	-1E+10	1	-1E+10	1	-1E+10	1	-1E+10	1	-1E+10	1
4901784	92	C	01/10/2018	10:47	-133.295	43.548	0	312.40	0	6.1720	0	34.0010	4	26.745	0	309.672	0	117.2	4	38.9	4	-1E+10	1	-1E+10	1	-1E+10	1	-1E+10	1	-1E+10	1	-1E+10	1
4901784	92	C	01/10/2018	10:47	-133.295	43.548	0	315.10	0	6.1280	0	34.0000	4	26.750	0	312.346	0	116.5	4	38.6	4	-1E+10	1	-1E+10	1	-1E+10	1	-1E+10	1	-1E+10	1	-1E+10	1
4901784	92	C	01/10/2018	10:47	-133.295	43.548	0	317.90	0	6.1110	0	34.0000	4	26.752	0	315.119	0	115.6	4	38.3	4	-1E+10	1	-1E+10	1	-1E+10	1	-1E+10	1	-1E+10	1	-1E+10	1
4901784	92	C	01/10/2018	10:47	-133.295	43.548	0	319.60	0	6.1060	0	33.9980	4	26.751	0	316.803	0	114.8	4	38.1	4	-1E+10	1	-1E+10	1	-1E+10	1	-1E+10	1	-1E+10	1	-1E+10	1
4901784	92	C	01/10/2018	10:47	-133.295	43.548	0	322.40	0	6.0430	0	33.9980	4	26.759	0	319.576	0	113.5	4	37.6	4	-1E+10	1	-1E+10	1	-1E+10	1	-1E+10	1	-1E+10	1	-1E+10	1
4901784	92	C	01/10/2018	10:47	-133.295	43.548	0	325.10	0	6.0090	0	33.9980	4	26.763	0	322.251	0	112.4	4	37.2	4	-1E+10	1	-1E+10	1	-1E+10	1	-1E+10	1	-1E+10	1	-1E+10	1
4901784	92	C	01/10/2018	10:47	-133.295	43.548	0	327.80	0	5.9620	0	33.9980	4	26.769	0	324.925	0	111.2	4	36.7	4	-1E+10	1	-1E+10	1	-1E+10	1	-1E+10	1	-1E+10	1	-1E+10	1
4901784	92	C	01/10/2018	10:47	-133.295	43.548	0	330.60	0	5.9010	0	33.9990	4	26.778	0	327.698	0	110.4	4	36.4	4	-1E+10	1	-1E+10	1	-1E+10	1	-1E+10	1	-1E+10	1	-1E+10	1
4901784	92	C	01/10/2018	10:47	-133.295	43.548	0	332.40	0	5.8870	0	33.9990	4	26.779	0	329.481	0	110.2	4	36.3	4	-1E+10	1	-1E+10	1	-1E+10	1	-1E+10	1	-1E+10	1	-1E+10	1
4901784	92	C	01/10/2018	10:47	-133.295	43.548	0	335.20	0	5.8720	0	33.9990	4	26.781	0	332.254	0	109.8	4	36.2	4	-1E+10	1	-1E+10	1	-1E+10	1	-1E+10	1	-1E+10	1	-1E+10	1
4901784	92	C	01/10/2018	10:47	-133.295	43.548	0	338.10	0	5.8710	0	33.9990	4	26.781	0	335.126	0	109.5	4	36.1	4	-1E+10	1	-1E+10	1	-1E+10	1	-1E+10	1	-1E+10	1	-1E+10	1
4901784	92	C	01/10/2018	10:47	-133.295	43.548	0	340.00	0	5.8690	0	33.9980	4	26.781	0	337.008	0	109.1	4	36.0	4	-1E+10	1	-1E+10	1	-1E+10	1	-1E+10	1	-1E+10	1	-1E+10	1
4901784	92	C	01/10/2018	10:47	-133.295	43.548	0	341.90	0	5.8670	0	33.9970	4	26.780	0	338.890	0	108.6	4	35.8	4	-1E+10	1	-1E+10	1	-1E+10	1	-1E+10	1	-1E+10	1	-1E+10	1
4901784	92	C	01/10/2018	10:47	-133.295	43.548	0	344.90	0	5.8470	0	33.9970	4	26.783	0	341.861	0	107.7	4	35.5	4	-1E+10	1	-1E+10	1	-1E+10	1	-1E+10	1	-1E+10	1	-1E+10	1
4901784	92	C	01/10/2018	10:47	-133.295	43.548	0	347.30	0	5.8240	0	33.9960	4	26.785	0	344.238	0	106.8	4	35.2	4	-1E+10	1	-1E+10	1	-1E+10	1	-1E+10	1	-1E+10	1	-1E+10	1
4901784	92	C	01/10/2018	10:47	-133.295	43.548	0	350.40	0	5.7690	0	33.9980	4	26.793	0	347.308	0	105.3	4	34.6	4	-1E+10	1	-1E+10	1	-1E+10	1	-1E+10	1	-1E+10	1	-1E+10	1
4901784	92	C	01/10/2018	10:47	-133.295	43.548	0	352.80	0	5.7360	0	33.9980	4	26.797	0	349.685	0	104.4	4	34.3	4	-1E+10	1	-1E+10	1	-1E+10	1	-1E+10	1	-1E+10	1	-1E+10	1
4901784	92	C	01/10/2018	10:47	-133.295	43.548	0	355.10	0	5.7290	0	33.9970	4	26.798	0	351.962	0	103.1	4	33.9	4	-1E+10	1	-1E+10	1	-1E+10	1	-1E+10	1	-1E+10	1	-1E+10	1
4901784	92	C	01/10/2018	10:47	-133.295	43.548	0	357.50	0	5.7000	0	33.9970	4	26.801	0	354.339	0	101.3	4	33.3	4	-1E+10	1	-1E+10	1	-1E+10	1	-1E+10	1	-1E+10	1	-1E+10	1
4901784	92	C	01/10/2018	10:47	-133.295	43.548	0	359.90	0	5.6520	0	33.9980	4	26.808	0	356.716	0	99.7	4	32.7	4	-1E+10	1	-1E+10	1	-1E+10	1	-1E+10	1	-1E+10	1	-1E+10	1
4901784	92	C	01/10/2018	10:47	-133.295	43.548	0	362.40	0	5.5800	0	34.0040	4	26.821	0	359.191	0	98.0	4	32.1	4	-1E+10	1	-1E+10	1	-1E+10	1	-1E+10	1	-1E+10	1	-1E+10	1
4901784	92	C	01/10/2018	10:47	-133.295	43.548	0	364.80	0	5.5700	0	34.0040	4	26.822	0	361.568	0	96.9	4	31.7	4	-1E+10	1	-1E+10	1	-1E+10	1	-1E+10	1	-1E+10	1	-1E+10	1
4901784	92	C	01/10/2018	10:47	-133.295	43.548	0	367.20	0	5.5620	0	34.0040	4	26.823	0	363.945	0	95.8	4	31.3	4	-1E+10	1	-1E+10	1	-1E+10	1	-1E+10	1	-1E+10	1	-1E+10	1
4901784	92	C	01/10/2018	10:47	-133.295	43.548	0	369.80	0	5.5520	0	34.0050	4	26.825	0	366.519	0	94.3	4	30.9	4	-1E+10	1	-1E+10	1	-1E+10	1	-1E+10	1	-1E+10	1	-1E+10	1
4901784	92	C	01/10/2018	10:47	-133.295	43.548	0	372.90	0	5.5440	0	34.0040	4	26.826	0	369.589	0	92.1	4	30.1	4	-1E+10	1	-1E+10	1	-1E+10	1	-1E+10	1	-1E+10	1	-1E+10	1
4901784	92	C	01/10/2018	10:47	-133.295	43.548	0	375.40	0	5.5160	0	34.0070	4	26.831	0	372.065	0	89.9	4	29.4	4	-1E+10	1	-1E+10	1	-1E+10	1	-1E+10	1	-1E+10	1	-1E+10	1
4901784	92	C	01/10/2018	10:47	-133.295	43.548	0	377.90	0	5.4980	0	34.0080	4	26.834	0	374.540	0	88.1	4	28.8	4	-1E+10	1	-1E+10	1	-1E+10	1	-1E+10	1	-1E+10	1	-1E+10	1
4901784	92	C	01/10/2018	10:47	-133.295	43.548	0	380.40	0	5.4740	0	34.0100	4	26.839	0	377.016	0	86.3	4	28.2	4	-1E+10	1	-1E+10	1	-1E+10	1	-1E+10	1	-1E+10	1	-1E+10	1
4901784	92	C	01/10/2018	10:47	-133.295	43.548	0	382.90	0	5.4420	0	34.0120	4	26.844	0	379.491	0	84.5	4	27.6	4	-1E+10	1	-1E+10	1	-1E+10	1	-1E+10	1	-1E+10	1	-1E+10	1
4901784	92	C	01/10/2018	10:47	-133.295	43.548	0	385.30	0	5.3910	0	34.0150	4	26.853	0	381.868	0	82.1	4	26.8	4	-1E+10	1	-1E+10	1	-1E+10	1	-1E+10	1	-1E+10	1	-1E+10	1
4901784	92	C	01/10/2018	10:47	-133.295	43.548	0	387.70	0	5.3850	0	34.0190	4	26.857	0	384.244	0	79.5	4	25.9	4	-1E+10	1	-1E+10	1	-1E+10	1	-1E+10	1	-1E+10	1	-1E+10	1
4901784	92	C	01/10/2018	10:47	-133.295	43.548	0	390.30	0	5.3750	0	34.0210	4	26.859	0	386.818	0	77.0	4	25.1	4	-1E+10	1	-1E+10	1	-1E+10	1	-1E+10	1	-1E+10	1	-1E+10	1
4901784	92	C	01/10/2018	10:47	-133.295	43.548	0	392.80	0	5.3750	0	34.0260	4	26.863	0	389.294	0	73.7	4	24.0	4	-1E+10	1	-1E+10	1	-1E+10	1	-1E+10	1	-1E+10	1	-1E+10	1
4901784	92	C	01/10/2018	10:47	-133.295	43.548	0	395.30	0	5.3790	0	34.0330	4	26.868	0	391.769	0	71.3	4	23.2	4	-1E+10	1	-1E+10	1	-1E+10	1	-1E+10	1	-1E+10	1	-1E+10	1
4901784	92	C	01/10/2018	10:47	-133.295	43.548	0	397.80	0	5.3500	0	34.0350	4	26.873	0	394.244	0	69.6	4	22.7	4	-1E+10	1	-1E+10	1	-1E+10	1	-1E+10	1	-1E+10	1	-1E+10	1
4901784	92	C	01/10/2018	10:47	-133.295	43.548	0	400.30	0	5.2910	0	34.0410	4	26.885	0	396.720	0	67.3	4	21.9	4	-1E+10	1	-1E+10	1	-1E+10	1	-1E+10	1	-1E+10	1	-1E+10	1
4901784	92	C	01/10/2018	10:47	-133.295	43.548	0	402.90	0	5.2820	0	34.0500	4	26.893	0	399.294	0	65.0	4	21.1	4	-1E+10	1	-1E+10	1	-1E+10	1	-1E+10	1	-1E+10	1	-1E+10	1
4901784	92	C	01/10/2018	10:47	-133.295	43.548	0	405.50	0	5.2980	0	34.0550	4	26.895	0	401.868	0	63.3	4	20.6	4	-1E+10	1	-1E+10	1	-1E+10	1	-1E+10	1	-1E+10	1	-1E+10	1
4901784	92	C	01/10/2018	10:47	-133.295	43.548	0	407.20	0	5.3020	0	34.0560	4	26.896	0	403.551	0	62.5	4	20.3	4	-1E+10	1	-1E+10	1	-1E+10	1	-1E+10	1	-1E+10	1	-1E+10	1
4901784	92	C	01/10/2018	10:47	-133.295	43.548	0	409.80	0	5.3060	0	34.0580	4	26.897	0	406.125	0	61.3	4	19.9	4	-1E+10	1	-1E+10	1	-1E+10	1	-1E+10	1	-1E+10	1	-1E+10	1
4901784	92	C	01/10/2018	10:47	-133.295	43.548	0	412.40	0	5.3090	0	34.0600	4	26.898	0	408.700	0	59.9	4	19.5	4	-1E+10	1	-1E+10	1	-1E+10	1	-1E+10	1	-1E+10	1	-1E+10	1
4901784	92	C	01/10/2018	10:47	-133.295	43.548	0	414.90	0	5.2990	0	34.0650	4	26.903	0	411.175	0	58.4	4	19.0	4	-1E+10	1	-1E+10	1	-1E+10	1	-1E+10	1	-1E+10	1	-1E+10	1
4901784	92	C	01/10/2018	10:47	-133.295	43.548	0	417.40	0	5.2880	0	34.0700	4	26.909	0	413.650	0	57.1	4	18.6	4	-1E+10	1	-1E+10	1	-1E+10	1	-1E+10	1	-1E+10	1	-1E+10	1
4901784	92	C	01/10/2018	10:47	-133.295	43.548	0	420.00	0	5.2800	0	34.0720	4	26.911	0	416.224	0	56.0	4	18.2	4	-1E+10	1	-1E+10	1	-1E+10	1	-1E+10	1	-1E+10	1	-1E+10	1
4901784	92	C	01/10/2018	10:47	-133.295	43.548	0	422.60	0	5.2710	0	34.0760	4	26.915	0	418.798	0	55.0	4	17.9	4	-1E+10	1	-1E+10	1	-1E+10	1	-1E+10	1	-1E+10	1	-1E+10	1
4901784	92	C	01/10/2018	10:47	-133.295	43.548	0	425.10	0	5.2620	0	34.0790	4	26.919	0	421.273	0	54.3	4	17.6	4	-1E+10	1	-1E+10	1	-1E+10	1	-1E+10	1	-1E+10	1	-1E+10	1
4901784	92	C	01/10/2018	10:47	-133.295	43.548	0	427.70	0	5.2570	0	34.0810	4	26.921	0	423.847	0	53.5	4	17.4	4	-1E+10	1	-1E+10	1	-1E+10	1	-1E+10	1	-1E+10	1	-1E+10	1
4901784	92	C	01/10/2018	10:47	-133.295	43.548	0	430.30	0	5.2560	0	34.0810	4	26.921	0	426.421	0	52.6	4	17.1	4	-1E+10	1	-1E+10	1	-1E+10	1	-1E+10	1	-1E+10	1	-1E+10	1
4901784	92	C	01/10/2018	10:47	-133.295	43.548	0	432.80	0	5.2480	0	34.0830	4	26.924	0	428.895	0	51.2	4	16.6	4	-1E+10	1	-1E+10	1	-1E+10	1	-1E+10	1	-1E+10	1	-1E+10	1
4901784	92	C	01/10/2018	10:47	-133.295	43.548	0	434.50	0	5.2360	0	34.0890	4	26.930	0	430.578	0	50.1	4	16.3	4	-1E+10	1	-1E+10	1	-1E+10	1	-1E+10	1	-1E+10	1	-1E+10	1
4901784	92	C	01/10/2018	10:47	-133.295	43.548	0	437.20	0	5.2330	0	34.0930	4	26.933	0	433.251	0	49.1	4	16.0	4	-1E+10	1	-1E+10	1	-1E+10	1	-1E+10	1	-1E+10	1	-1E+10	1
4901784	92	C	01/10/2018	10:47	-133.295	43.548	0	439.80	0	5.2340	0	34.0950	4	26.935	0	435.825	0	47.9	4	15.6	4	-1E+10	1	-1E+10	1	-1E+10	1	-1E+10	1	-1E+10	1	-1E+10	1
4901784	92	C	01/10/2018	10:47	-133.295	43.548	0	442.50	0	5.2240	0	34.0980	4	26.938	0	438.498	0	46.7	4	15.2	4	-1E+10	1	-1E+10	1	-1E+10	1	-1E+10	1	-1E+10	1	-1E+10	1
4901784	92	C	01/10/2018	10:47	-133.295	43.548	0	445.20	0	5.2160	0	34.1000	4	26.941	0	441.170	0	45.1	4	14.6	4	-1E+10	1	-1E+10	1	-1E+10	1	-1E+10	1	-1E+10	1	-1E+10	1
4901784	92	C	01/10/2018	10:47	-133.295	43.548	0	447.00	0	5.1890	0	34.1070	4	26.950	0	442.952	0	44.1	4	14.3	4	-1E+10	1	-1E+10	1	-1E+10	1	-1E+10	1	-1E+10	1	-1E+10	1
4901784	92	C	01/10/2018	10:47	-133.295	43.548	0	449.70	0	5.1520	0	34.1140	4	26.960	0	445.625	0	43.2	4	14.0	4	-1E+10	1	-1E+10	1	-1E+10	1	-1E+10	1	-1E+10	1	-1E+10	1
4901784	92	C	01/10/2018	10:47	-133.295	43.548	0	452.50	0	5.1380	0	34.1160	4	26.963	0	448.396	0	42.3	4	13.7	4	-1E+10	1	-1E+10	1	-1E+10	1	-1E+10	1	-1E+10	1	-1E+10	1
4901784	92	C	01/10/2018	10:47	-133.295	43.548	0	455.20	0	5.1160	0	34.1200	4	26.969	0	451.069	0	41.5	4	13.4	4	-1E+10	1	-1E+10	1	-1E+10	1	-1E+10	1	-1E+10	1	-1E+10	1
4901784	92	C	01/10/2018	10:47	-133.295	43.548	0	457.90	0	5.1080	0	34.1220	4	26.971	0	453.742	0	40.7	4	13.2	4	-1E+10	1	-1E+10	1	-1E+10	1	-1E+10	1	-1E+10	1	-1E+10	1
4901784	92	C	01/10/2018	10:47	-133.295	43.548	0	459.70	0	5.0940	0	34.1270	4	26.977	0	455.523	0	40.1	4	13.0	4	-1E+10	1	-1E+10	1	-1E+10	1	-1E+10	1	-1E+10	1	-1E+10	1
4901784	92	C	01/10/2018	10:47	-133.295	43.548	0	462.50	0	5.0840	0	34.1290	4	26.979	0	458.295	0	39.5	4	12.8	4	-1E+10	1	-1E+10	1	-1E+10	1	-1E+10	1	-1E+10	1	-1E+10	1
4901784	92	C	01/10/2018	10:47	-133.295	43.548	0	465.30	0	5.0810	0	34.1320	4	26.982	0	461.066	0	38.9	4	12.6	4	-1E+10	1	-1E+10	1	-1E+10	1	-1E+10	1	-1E+10	1	-1E+10	1
4901784	92	C	01/10/2018	10:47	-133.295	43.548	0	467.20	0	5.0860	0	34.1340	4	26.983	0	462.947	0	38.5	4	12.5	4	-1E+10	1	-1E+10	1	-1E+10	1	-1E+10	1	-1E+10	1	-1E+10	1
4901784	92	C	01/10/2018	10:47	-133.295	43.548	0	469.90	0	5.0750	0	34.1350	4	26.985	0	465.619	0	38.0	4	12.3	4	-1E+10	1	-1E+10	1	-1E+10	1	-1E+10	1	-1E+10	1	-1E+10	1
4901784	92	C	01/10/2018	10:47	-133.295	43.548	0	472.60	0	5.0650	0	34.1390	4	26.990	0	468.292	0	37.3	4	12.1	4	-1E+10	1	-1E+10	1	-1E+10	1	-1E+10	1	-1E+10	1	-1E+10	1
4901784	92	C	01/10/2018	10:47	-133.295	43.548	0	474.40	0	5.0660	0	34.1400	4	26.990	0	470.073	0	36.9	4	12.0	4	-1E+10	1	-1E+10	1	-1E+10	1	-1E+10	1	-1E+10	1	-1E+10	1
4901784	92	C	01/10/2018	10:47	-133.295	43.548	0	477.30	0	5.0500	0	34.1440	4	26.995	0	472.943	0	36.5	4	11.8	4	-1E+10	1	-1E+10	1	-1E+10	1	-1E+10	1	-1E+10	1	-1E+10	1
4901784	92	C	01/10/2018	10:47	-133.295	43.548	0	480.00	0	5.0360	0	34.1460	4	26.999	0	475.616	0	36.3	4	11.7	4	-1E+10	1	-1E+10	1	-1E+10	1	-1E+10	1	-1E+10	1	-1E+10	1
4901784	92	C	01/10/2018	10:47	-133.295	43.548	0	482.80	0	5.0300	0	34.1470	4	27.000	0	478.387	0	36.1	4	11.7	4	-1E+10	1	-1E+10	1	-1E+10	1	-1E+10	1	-1E+10	1	-1E+10	1
4901784	92	C	01/10/2018	10:47	-133.295	43.548	0	485.60	0	5.0280	0	34.1470	4	27.000	0	481.158	0	35.9	4	11.6	4	-1E+10	1	-1E+10	1	-1E+10	1	-1E+10	1	-1E+10	1	-1E+10	1
4901784	92	C	01/10/2018	10:47	-133.295	43.548	0	487.40	0	5.0270	0	34.1470	4	27.000	0	482.939	0	35.8	4	11.6	4	-1E+10	1	-1E+10	1	-1E+10	1	-1E+10	1	-1E+10	1	-1E+10	1
4901784	92	C	01/10/2018	10:47	-133.295	43.548	0	489.30	0	5.0260	0	34.1470	4	27.001	0	484.820	0	35.5	4	11.5	4	-1E+10	1	-1E+10	1	-1E+10	1	-1E+10	1	-1E+10	1	-1E+10	1
4901784	92	C	01/10/2018	10:47	-133.295	43.548	0	492.40	0	5.0200	0	34.1490	4	27.003	0	487.888	0	35.2	4	11.4	4	-1E+10	1	-1E+10	1	-1E+10	1	-1E+10	1	-1E+10	1	-1E+10	1
4901784	92	C	01/10/2018	10:47	-133.295	43.548	0	495.20	0	5.0030	0	34.1500	4	27.006	0	490.659	0	34.7	4	11.2	4	-1E+10	1	-1E+10	1	-1E+10	1	-1E+10	1	-1E+10	1	-1E+10	1
4901784	92	C	01/10/2018	10:47	-133.295	43.548	0	497.70	0	4.9910	0	34.1540	4	27.010	0	493.133	0	34.3	4	11.1	4	-1E+10	1	-1E+10	1	-1E+10	1	-1E+10	1	-1E+10	1	-1E+10	1
4901784	92	C	01/10/2018	10:47	-133.295	43.548	0	500.20	0	4.9890	0	34.1540	4	27.010	0	495.607	0	34.0	4	11.0	4	-1E+10	1	-1E+10	1	-1E+10	1	-1E+10	1	-1E+10	1	-1E+10	1
4901784	92	C	01/10/2018	10:47	-133.295	43.548	0	505.10	0	4.9820	0	34.1570	4	27.014	0	500.456	0	33.3	4	10.8	4	-1E+10	1	-1E+10	1	-1E+10	1	-1E+10	1	-1E+10	1	-1E+10	1
4901784	92	C	01/10/2018	10:47	-133.295	43.548	0	510.10	0	4.9770	0	34.1580	4	27.015	0	505.404	0	32.3	4	10.4	4	-1E+10	1	-1E+10	1	-1E+10	1	-1E+10	1	-1E+10	1	-1E+10	1
4901784	92	C	01/10/2018	10:47	-133.295	43.548	0	514.90	0	4.9640	0	34.1630	4	27.021	0	510.154	0	30.9	4	10.0	4	-1E+10	1	-1E+10	1	-1E+10	1	-1E+10	1	-1E+10	1	-1E+10	1
4901784	92	C	01/10/2018	10:47	-133.295	43.548	0	519.90	0	4.9320	0	34.1710	4	27.031	0	515.102	0	29.3	4	9.4	4	-1E+10	1	-1E+10	1	-1E+10	1	-1E+10	1	-1E+10	1	-1E+10	1
4901784	92	C	01/10/2018	10:47	-133.295	43.548	0	524.90	0	4.9050	0	34.1780	4	27.039	0	520.049	0	28.0	4	9.0	4	-1E+10	1	-1E+10	1	-1E+10	1	-1E+10	1	-1E+10	1	-1E+10	1
4901784	92	C	01/10/2018	10:47	-133.295	43.548	0	529.90	0	4.8780	0	34.1850	4	27.048	0	524.997	0	26.8	4	8.7	4	-1E+10	1	-1E+10	1	-1E+10	1	-1E+10	1	-1E+10	1	-1E+10	1
4901784	92	C	01/10/2018	10:47	-133.295	43.548	0	535.00	0	4.8650	0	34.1900	4	27.053	0	530.043	0	25.9	4	8.4	4	-1E+10	1	-1E+10	1	-1E+10	1	-1E+10	1	-1E+10	1	-1E+10	1
4901784	92	C	01/10/2018	10:47	-133.295	43.548	0	540.00	0	4.8420	0	34.1950	4	27.060	0	534.990	0	25.5	4	8.2	4	-1E+10	1	-1E+10	1	-1E+10	1	-1E+10	1	-1E+10	1	-1E+10	1
4901784	92	C	01/10/2018	10:47	-133.295	43.548	0	545.10	0	4.8120	0	34.1970	4	27.065	0	540.036	0	25.0	4	8.1	4	-1E+10	1	-1E+10	1	-1E+10	1	-1E+10	1	-1E+10	1	-1E+10	1
4901784	92	C	01/10/2018	10:47	-133.295	43.548	0	550.10	0	4.8010	0	34.1980	4	27.067	0	544.983	0	24.6	4	7.9	4	-1E+10	1	-1E+10	1	-1E+10	1	-1E+10	1	-1E+10	1	-1E+10	1
4901784	92	C	01/10/2018	10:47	-133.295	43.548	0	555.20	0	4.7830	0	34.2020	4	27.072	0	550.029	0	24.4	4	7.8	4	-1E+10	1	-1E+10	1	-1E+10	1	-1E+10	1	-1E+10	1	-1E+10	1
4901784	92	C	01/10/2018	10:47	-133.295	43.548	0	560.30	0	4.6950	0	34.2000	4	27.080	0	555.075	0	24.5	4	7.9	4	-1E+10	1	-1E+10	1	-1E+10	1	-1E+10	1	-1E+10	1	-1E+10	1
4901784	92	C	01/10/2018	10:47	-133.295	43.548	0	565.40	0	4.6450	0	34.2040	4	27.089	0	560.121	0	23.7	4	7.6	4	-1E+10	1	-1E+10	1	-1E+10	1	-1E+10	1	-1E+10	1	-1E+10	1
4901784	92	C	01/10/2018	10:47	-133.295	43.548	0	570.50	0	4.6680	0	34.2110	4	27.092	0	565.166	0	23.1	4	7.4	4	-1E+10	1	-1E+10	1	-1E+10	1	-1E+10	1	-1E+10	1	-1E+10	1
4901784	92	C	01/10/2018	10:47	-133.295	43.548	0	575.60	0	4.6340	0	34.2110	4	27.096	0	570.211	0	22.9	4	7.3	4	-1E+10	1	-1E+10	1	-1E+10	1	-1E+10	1	-1E+10	1	-1E+10	1
4901784	92	C	01/10/2018	10:47	-133.295	43.548	0	579.90	0	4.6000	0	34.2120	4	27.100	0	574.465	0	22.5	4	7.2	4	-1E+10	1	-1E+10	1	-1E+10	1	-1E+10	1	-1E+10	1	-1E+10	1
4901784	92	C	01/10/2018	10:47	-133.295	43.548	0	584.30	0	4.5740	0	34.2160	4	27.106	0	578.818	0	21.9	4	7.0	4	-1E+10	1	-1E+10	1	-1E+10	1	-1E+10	1	-1E+10	1	-1E+10	1
4901784	92	C	01/10/2018	10:47	-133.295	43.548	0	589.70	0	4.5780	0	34.2220	4	27.111	0	584.160	0	20.9	4	6.7	4	-1E+10	1	-1E+10	1	-1E+10	1	-1E+10	1	-1E+10	1	-1E+10	1
4901784	92	C	01/10/2018	10:47	-133.295	43.548	0	594.90	0	4.5850	0	34.2270	4	27.114	0	589.303	0	20.4	4	6.5	4	-1E+10	1	-1E+10	1	-1E+10	1	-1E+10	1	-1E+10	1	-1E+10	1
4901784	92	C	01/10/2018	10:47	-133.295	43.548	0	600.30	0	4.5500	0	34.2300	4	27.120	0	594.645	0	20.0	4	6.4	4	-1E+10	1	-1E+10	1	-1E+10	1	-1E+10	1	-1E+10	1	-1E+10	1
4901784	92	C	01/10/2018	10:47	-133.295	43.548	0	605.60	0	4.5380	0	34.2350	4	27.126	0	599.887	0	19.2	4	6.2	4	-1E+10	1	-1E+10	1	-1E+10	1	-1E+10	1	-1E+10	1	-1E+10	1
4901784	92	C	01/10/2018	10:47	-133.295	43.548	0	609.90	0	4.5310	0	34.2390	4	27.130	0	604.140	0	18.7	4	6.0	4	-1E+10	1	-1E+10	1	-1E+10	1	-1E+10	1	-1E+10	1	-1E+10	1
4901784	92	C	01/10/2018	10:47	-133.295	43.548	0	614.40	0	4.5280	0	34.2460	4	27.136	0	608.591	0	18.2	4	5.8	4	-1E+10	1	-1E+10	1	-1E+10	1	-1E+10	1	-1E+10	1	-1E+10	1
4901784	92	C	01/10/2018	10:47	-133.295	43.548	0	619.90	0	4.5250	0	34.2500	4	27.139	0	614.031	0	17.9	4	5.7	4	-1E+10	1	-1E+10	1	-1E+10	1	-1E+10	1	-1E+10	1	-1E+10	1
4901784	92	C	01/10/2018	10:47	-133.295	43.548	0	625.30	0	4.4940	0	34.2500	4	27.143	0	619.372	0	17.8	4	5.7	4	-1E+10	1	-1E+10	1	-1E+10	1	-1E+10	1	-1E+10	1	-1E+10	1
4901784	92	C	01/10/2018	10:47	-133.295	43.548	0	630.70	0	4.4790	0	34.2540	4	27.147	0	624.713	0	17.4	4	5.6	4	-1E+10	1	-1E+10	1	-1E+10	1	-1E+10	1	-1E+10	1	-1E+10	1
4901784	92	C	01/10/2018	10:47	-133.295	43.548	0	635.10	0	4.4770	0	34.2550	4	27.148	0	629.064	0	17.1	4	5.5	4	-1E+10	1	-1E+10	1	-1E+10	1	-1E+10	1	-1E+10	1	-1E+10	1
4901784	92	C	01/10/2018	10:47	-133.295	43.548	0	639.60	0	4.4730	0	34.2590	4	27.152	0	633.515	0	16.7	4	5.3	4	-1E+10	1	-1E+10	1	-1E+10	1	-1E+10	1	-1E+10	1	-1E+10	1
4901784	92	C	01/10/2018	10:47	-133.295	43.548	0	645.00	0	4.4740	0	34.2640	4	27.156	0	638.855	0	16.1	4	5.2	4	-1E+10	1	-1E+10	1	-1E+10	1	-1E+10	1	-1E+10	1	-1E+10	1
4901784	92	C	01/10/2018	10:47	-133.295	43.548	0	650.40	0	4.4690	0	34.2690	4	27.161	0	644.195	0	15.7	4	5.0	4	-1E+10	1	-1E+10	1	-1E+10	1	-1E+10	1	-1E+10	1	-1E+10	1
4901784	92	C	01/10/2018	10:47	-133.295	43.548	0	654.90	0	4.4590	0	34.2720	4	27.164	0	648.645	0	15.4	4	4.9	4	-1E+10	1	-1E+10	1	-1E+10	1	-1E+10	1	-1E+10	1	-1E+10	1
4901784	92	C	01/10/2018	10:47	-133.295	43.548	0	659.40	0	4.4590	0	34.2770	4	27.168	0	653.095	0	14.8	4	4.7	4	-1E+10	1	-1E+10	1	-1E+10	1	-1E+10	1	-1E+10	1	-1E+10	1
4901784	92	C	01/10/2018	10:47	-133.295	43.548	0	665.00	0	4.4570	0	34.2840	4	27.174	0	658.633	0	14.4	4	4.6	4	-1E+10	1	-1E+10	1	-1E+10	1	-1E+10	1	-1E+10	1	-1E+10	1
4901784	92	C	01/10/2018	10:47	-133.295	43.548	0	670.60	0	4.4510	0	34.2890	4	27.179	0	664.170	0	14.1	4	4.5	4	-1E+10	1	-1E+10	1	-1E+10	1	-1E+10	1	-1E+10	1	-1E+10	1
4901784	92	C	01/10/2018	10:47	-133.295	43.548	0	675.10	0	4.4410	0	34.2920	4	27.182	0	668.620	0	13.9	4	4.4	4	-1E+10	1	-1E+10	1	-1E+10	1	-1E+10	1	-1E+10	1	-1E+10	1
4901784	92	C	01/10/2018	10:47	-133.295	43.548	0	679.70	0	4.4280	0	34.2950	4	27.186	0	673.169	0	13.8	4	4.4	4	-1E+10	1	-1E+10	1	-1E+10	1	-1E+10	1	-1E+10	1	-1E+10	1
4901784	92	C	01/10/2018	10:47	-133.295	43.548	0	685.20	0	4.4220	0	34.2970	4	27.188	0	678.607	0	13.7	4	4.4	4	-1E+10	1	-1E+10	1	-1E+10	1	-1E+10	1	-1E+10	1	-1E+10	1
4901784	92	C	01/10/2018	10:47	-133.295	43.548	0	689.80	0	4.4180	0	34.2970	4	27.189	0	683.155	0	13.5	4	4.3	4	-1E+10	1	-1E+10	1	-1E+10	1	-1E+10	1	-1E+10	1	-1E+10	1
4901784	92	C	01/10/2018	10:47	-133.295	43.548	0	694.30	0	4.4070	0	34.3000	4	27.192	0	687.604	0	13.3	4	4.3	4	-1E+10	1	-1E+10	1	-1E+10	1	-1E+10	1	-1E+10	1	-1E+10	1
4901784	92	C	01/10/2018	10:47	-133.295	43.548	0	699.80	0	4.3880	0	34.3030	4	27.197	0	693.042	0	13.1	4	4.2	4	-1E+10	1	-1E+10	1	-1E+10	1	-1E+10	1	-1E+10	1	-1E+10	1
4901784	92	C	01/10/2018	10:47	-133.295	43.548	0	705.50	0	4.3650	0	34.3080	4	27.203	0	698.677	0	12.9	4	4.1	4	-1E+10	1	-1E+10	1	-1E+10	1	-1E+10	1	-1E+10	1	-1E+10	1
4901784	92	C	01/10/2018	10:47	-133.295	43.548	0	710.20	0	4.3440	0	34.3120	4	27.209	0	703.324	0	12.6	4	4.0	4	-1E+10	1	-1E+10	1	-1E+10	1	-1E+10	1	-1E+10	1	-1E+10	1
4901784	92	C	01/10/2018	10:47	-133.295	43.548	0	714.90	0	4.3210	0	34.3170	4	27.215	0	707.971	0	12.4	4	3.9	4	-1E+10	1	-1E+10	1	-1E+10	1	-1E+10	1	-1E+10	1	-1E+10	1
4901784	92	C	01/10/2018	10:47	-133.295	43.548	0	720.60	0	4.3060	0	34.3240	4	27.222	0	713.606	0	12.1	4	3.9	4	-1E+10	1	-1E+10	1	-1E+10	1	-1E+10	1	-1E+10	1	-1E+10	1
4901784	92	C	01/10/2018	10:47	-133.295	43.548	0	725.60	0	4.2940	0	34.3280	4	27.227	0	718.548	0	12.0	4	3.8	4	-1E+10	1	-1E+10	1	-1E+10	1	-1E+10	1	-1E+10	1	-1E+10	1
4901784	92	C	01/10/2018	10:47	-133.295	43.548	0	730.10	0	4.2910	0	34.3300	4	27.229	0	722.997	0	11.8	4	3.8	4	-1E+10	1	-1E+10	1	-1E+10	1	-1E+10	1	-1E+10	1	-1E+10	1
4901784	92	C	01/10/2018	10:47	-133.295	43.548	0	734.90	0	4.2780	0	34.3340	4	27.233	0	727.742	0	11.7	4	3.7	4	-1E+10	1	-1E+10	1	-1E+10	1	-1E+10	1	-1E+10	1	-1E+10	1
4901784	92	C	01/10/2018	10:47	-133.295	43.548	0	739.80	0	4.2700	0	34.3370	4	27.236	0	732.585	0	11.5	4	3.7	4	-1E+10	1	-1E+10	1	-1E+10	1	-1E+10	1	-1E+10	1	-1E+10	1
4901784	92	C	01/10/2018	10:47	-133.295	43.548	0	744.70	0	4.2620	0	34.3440	4	27.243	0	737.429	0	11.2	4	3.6	4	-1E+10	1	-1E+10	1	-1E+10	1	-1E+10	1	-1E+10	1	-1E+10	1
4901784	92	C	01/10/2018	10:47	-133.295	43.548	0	749.80	0	4.2540	0	34.3470	4	27.246	0	742.470	0	11.1	4	3.5	4	-1E+10	1	-1E+10	1	-1E+10	1	-1E+10	1	-1E+10	1	-1E+10	1
4901784	92	C	01/10/2018	10:47	-133.295	43.548	0	754.90	0	4.2480	0	34.3510	4	27.250	0	747.511	0	11.0	4	3.5	4	-1E+10	1	-1E+10	1	-1E+10	1	-1E+10	1	-1E+10	1	-1E+10	1
4901784	92	C	01/10/2018	10:47	-133.295	43.548	0	760.00	0	4.2450	0	34.3520	4	27.251	0	752.552	0	10.9	4	3.5	4	-1E+10	1	-1E+10	1	-1E+10	1	-1E+10	1	-1E+10	1	-1E+10	1
4901784	92	C	01/10/2018	10:47	-133.295	43.548	0	765.10	0	4.2220	0	34.3600	4	27.260	0	757.593	0	10.7	4	3.4	4	-1E+10	1	-1E+10	1	-1E+10	1	-1E+10	1	-1E+10	1	-1E+10	1
4901784	92	C	01/10/2018	10:47	-133.295	43.548	0	770.20	0	4.2020	0	34.3640	4	27.265	0	762.634	0	10.6	4	3.4	4	-1E+10	1	-1E+10	1	-1E+10	1	-1E+10	1	-1E+10	1	-1E+10	1
4901784	92	C	01/10/2018	10:47	-133.295	43.548	0	775.40	0	4.1830	0	34.3680	4	27.271	0	767.773	0	10.5	4	3.3	4	-1E+10	1	-1E+10	1	-1E+10	1	-1E+10	1	-1E+10	1	-1E+10	1
4901784	92	C	01/10/2018	10:47	-133.295	43.548	0	780.70	0	4.1730	0	34.3700	4	27.273	0	773.011	0	10.5	4	3.3	4	-1E+10	1	-1E+10	1	-1E+10	1	-1E+10	1	-1E+10	1	-1E+10	1
4901784	92	C	01/10/2018	10:47	-133.295	43.548	0	785.10	0	4.1600	0	34.3710	4	27.275	0	777.359	0	10.4	4	3.3	4	-1E+10	1	-1E+10	1	-1E+10	1	-1E+10	1	-1E+10	1	-1E+10	1
4901784	92	C	01/10/2018	10:47	-133.295	43.548	0	789.50	0	4.1410	0	34.3730	4	27.279	0	781.708	0	10.5	4	3.3	4	-1E+10	1	-1E+10	1	-1E+10	1	-1E+10	1	-1E+10	1	-1E+10	1
4901784	92	C	01/10/2018	10:47	-133.295	43.548	0	794.70	0	4.1240	0	34.3770	4	27.284	0	786.847	0	10.4	4	3.3	4	-1E+10	1	-1E+10	1	-1E+10	1	-1E+10	1	-1E+10	1	-1E+10	1
4901784	92	C	01/10/2018	10:47	-133.295	43.548	0	800.10	0	4.1060	0	34.3800	4	27.288	0	792.183	0	10.3	4	3.3	4	-1E+10	1	-1E+10	1	-1E+10	1	-1E+10	1	-1E+10	1	-1E+10	1
4901784	92	C	01/10/2018	10:47	-133.295	43.548	0	805.20	0	4.0890	0	34.3840	4	27.293	0	797.223	0	10.3	4	3.3	4	-1E+10	1	-1E+10	1	-1E+10	1	-1E+10	1	-1E+10	1	-1E+10	1
4901784	92	C	01/10/2018	10:47	-133.295	43.548	0	810.50	0	4.0780	0	34.3850	4	27.295	0	802.460	0	10.3	4	3.3	4	-1E+10	1	-1E+10	1	-1E+10	1	-1E+10	1	-1E+10	1	-1E+10	1
4901784	92	C	01/10/2018	10:47	-133.295	43.548	0	814.90	0	4.0610	0	34.3870	4	27.299	0	806.808	0	10.3	4	3.3	4	-1E+10	1	-1E+10	1	-1E+10	1	-1E+10	1	-1E+10	1	-1E+10	1
4901784	92	C	01/10/2018	10:47	-133.295	43.548	0	819.30	0	4.0290	0	34.3880	4	27.303	0	811.156	0	10.4	4	3.3	4	-1E+10	1	-1E+10	1	-1E+10	1	-1E+10	1	-1E+10	1	-1E+10	1
4901784	92	C	01/10/2018	10:47	-133.295	43.548	0	824.50	0	3.9970	0	34.3900	4	27.308	0	816.294	0	10.4	4	3.3	4	-1E+10	1	-1E+10	1	-1E+10	1	-1E+10	1	-1E+10	1	-1E+10	1
4901784	92	C	01/10/2018	10:47	-133.295	43.548	0	829.90	0	3.9850	0	34.3940	4	27.312	0	821.630	0	10.4	4	3.3	4	-1E+10	1	-1E+10	1	-1E+10	1	-1E+10	1	-1E+10	1	-1E+10	1
4901784	92	C	01/10/2018	10:47	-133.295	43.548	0	835.10	0	3.9680	0	34.3980	4	27.317	0	826.768	0	10.3	4	3.3	4	-1E+10	1	-1E+10	1	-1E+10	1	-1E+10	1	-1E+10	1	-1E+10	1
4901784	92	C	01/10/2018	10:47	-133.295	43.548	0	840.40	0	3.9520	0	34.4020	4	27.322	0	832.004	0	10.3	4	3.3	4	-1E+10	1	-1E+10	1	-1E+10	1	-1E+10	1	-1E+10	1	-1E+10	1
4901784	92	C	01/10/2018	10:47	-133.295	43.548	0	845.70	0	3.9440	0	34.4040	4	27.324	0	837.241	0	10.3	4	3.3	4	-1E+10	1	-1E+10	1	-1E+10	1	-1E+10	1	-1E+10	1	-1E+10	1
4901784	92	C	01/10/2018	10:47	-133.295	43.548	0	850.10	0	3.9370	0	34.4050	4	27.326	0	841.588	0	10.3	4	3.3	4	-1E+10	1	-1E+10	1	-1E+10	1	-1E+10	1	-1E+10	1	-1E+10	1
4901784	92	C	01/10/2018	10:47	-133.295	43.548	0	854.60	0	3.9330	0	34.4070	4	27.328	0	846.033	0	10.3	4	3.3	4	-1E+10	1	-1E+10	1	-1E+10	1	-1E+10	1	-1E+10	1	-1E+10	1
4901784	92	C	01/10/2018	10:47	-133.295	43.548	0	860.00	0	3.9140	0	34.4090	4	27.331	0	851.368	0	10.4	4	3.3	4	-1E+10	1	-1E+10	1	-1E+10	1	-1E+10	1	-1E+10	1	-1E+10	1
4901784	92	C	01/10/2018	10:47	-133.295	43.548	0	865.30	0	3.8960	0	34.4100	4	27.334	0	856.604	0	10.4	4	3.3	4	-1E+10	1	-1E+10	1	-1E+10	1	-1E+10	1	-1E+10	1	-1E+10	1
4901784	92	C	01/10/2018	10:47	-133.295	43.548	0	869.90	0	3.8700	0	34.4100	4	27.337	0	861.149	0	10.5	4	3.3	4	-1E+10	1	-1E+10	1	-1E+10	1	-1E+10	1	-1E+10	1	-1E+10	1
4901784	92	C	01/10/2018	10:47	-133.295	43.548	0	874.50	0	3.8320	0	34.4110	4	27.341	0	865.693	0	10.6	4	3.3	4	-1E+10	1	-1E+10	1	-1E+10	1	-1E+10	1	-1E+10	1	-1E+10	1
4901784	92	C	01/10/2018	10:47	-133.295	43.548	0	880.10	0	3.8160	0	34.4100	4	27.342	0	871.225	0	10.6	4	3.3	4	-1E+10	1	-1E+10	1	-1E+10	1	-1E+10	1	-1E+10	1	-1E+10	1
4901784	92	C	01/10/2018	10:47	-133.295	43.548	0	884.80	0	3.8070	0	34.4140	4	27.346	0	875.868	0	10.6	4	3.3	4	-1E+10	1	-1E+10	1	-1E+10	1	-1E+10	1	-1E+10	1	-1E+10	1
4901784	92	C	01/10/2018	10:47	-133.295	43.548	0	889.50	0	3.8010	0	34.4150	4	27.348	0	880.510	0	10.6	4	3.3	4	-1E+10	1	-1E+10	1	-1E+10	1	-1E+10	1	-1E+10	1	-1E+10	1
4901784	92	C	01/10/2018	10:47	-133.295	43.548	0	895.10	0	3.7950	0	34.4150	4	27.348	0	886.042	0	10.7	4	3.4	4	-1E+10	1	-1E+10	1	-1E+10	1	-1E+10	1	-1E+10	1	-1E+10	1
4901784	92	C	01/10/2018	10:47	-133.295	43.548	0	899.80	0	3.7860	0	34.4150	4	27.349	0	890.684	0	10.7	4	3.4	4	-1E+10	1	-1E+10	1	-1E+10	1	-1E+10	1	-1E+10	1	-1E+10	1
4901784	92	C	01/10/2018	10:47	-133.295	43.548	0	904.70	0	3.7260	0	34.4170	4	27.357	0	895.524	0	10.8	4	3.4	4	-1E+10	1	-1E+10	1	-1E+10	1	-1E+10	1	-1E+10	1	-1E+10	1
4901784	92	C	01/10/2018	10:47	-133.295	43.548	0	910.00	0	3.6890	0	34.4210	4	27.364	0	900.759	0	10.8	4	3.4	4	-1E+10	1	-1E+10	1	-1E+10	1	-1E+10	1	-1E+10	1	-1E+10	1
4901784	92	C	01/10/2018	10:47	-133.295	43.548	0	914.70	0	3.6610	0	34.4320	4	27.375	0	905.401	0	10.8	4	3.4	4	-1E+10	1	-1E+10	1	-1E+10	1	-1E+10	1	-1E+10	1	-1E+10	1
4901784	92	C	01/10/2018	10:47	-133.295	43.548	0	919.50	0	3.6460	0	34.4330	4	27.378	0	910.142	0	10.9	4	3.4	4	-1E+10	1	-1E+10	1	-1E+10	1	-1E+10	1	-1E+10	1	-1E+10	1
4901784	92	C	01/10/2018	10:47	-133.295	43.548	0	924.40	0	3.6230	0	34.4310	4	27.378	0	914.981	0	11.0	4	3.4	4	-1E+10	1	-1E+10	1	-1E+10	1	-1E+10	1	-1E+10	1	-1E+10	1
4901784	92	C	01/10/2018	10:47	-133.295	43.548	0	929.40	0	3.5810	0	34.4300	4	27.382	0	919.919	0	11.1	4	3.5	4	-1E+10	1	-1E+10	1	-1E+10	1	-1E+10	1	-1E+10	1	-1E+10	1
4901784	92	C	01/10/2018	10:47	-133.295	43.548	0	934.40	0	3.5590	0	34.4290	4	27.383	0	924.857	0	11.1	4	3.5	4	-1E+10	1	-1E+10	1	-1E+10	1	-1E+10	1	-1E+10	1	-1E+10	1
4901784	92	C	01/10/2018	10:47	-133.295	43.548	0	939.40	0	3.5370	0	34.4320	4	27.388	0	929.795	0	11.2	4	3.5	4	-1E+10	1	-1E+10	1	-1E+10	1	-1E+10	1	-1E+10	1	-1E+10	1
4901784	92	C	01/10/2018	10:47	-133.295	43.548	0	944.40	0	3.5350	0	34.4320	4	27.388	0	934.733	0	11.2	4	3.5	4	-1E+10	1	-1E+10	1	-1E+10	1	-1E+10	1	-1E+10	1	-1E+10	1
4901784	92	C	01/10/2018	10:47	-133.295	43.548	0	949.50	0	3.5220	0	34.4350	4	27.391	0	939.769	0	11.2	4	3.5	4	-1E+10	1	-1E+10	1	-1E+10	1	-1E+10	1	-1E+10	1	-1E+10	1
4901784	92	C	01/10/2018	10:47	-133.295	43.548	0	954.60	0	3.5170	0	34.4360	4	27.393	0	944.805	0	11.2	4	3.5	4	-1E+10	1	-1E+10	1	-1E+10	1	-1E+10	1	-1E+10	1	-1E+10	1
4901784	92	C	01/10/2018	10:47	-133.295	43.548	0	959.80	0	3.5090	0	34.4380	4	27.395	0	949.940	0	11.2	4	3.5	4	-1E+10	1	-1E+10	1	-1E+10	1	-1E+10	1	-1E+10	1	-1E+10	1
4901784	92	C	01/10/2018	10:47	-133.295	43.548	0	965.00	0	3.5010	0	34.4390	4	27.397	0	955.075	0	11.3	4	3.5	4	-1E+10	1	-1E+10	1	-1E+10	1	-1E+10	1	-1E+10	1	-1E+10	1
4901784	92	C	01/10/2018	10:47	-133.295	43.548	0	970.30	0	3.4870	0	34.4430	4	27.401	0	960.308	0	11.3	4	3.5	4	-1E+10	1	-1E+10	1	-1E+10	1	-1E+10	1	-1E+10	1	-1E+10	1
4901784	92	C	01/10/2018	10:47	-133.295	43.548	0	975.60	0	3.4730	0	34.4460	4	27.405	0	965.542	0	11.4	4	3.6	4	-1E+10	1	-1E+10	1	-1E+10	1	-1E+10	1	-1E+10	1	-1E+10	1
4901784	92	C	01/10/2018	10:47	-133.295	43.548	0	980.10	0	3.4610	0	34.4490	4	27.409	0	969.985	0	11.4	4	3.6	4	-1E+10	1	-1E+10	1	-1E+10	1	-1E+10	1	-1E+10	1	-1E+10	1
4901784	92	C	01/10/2018	10:47	-133.295	43.548	0	984.50	0	3.4510	0	34.4510	4	27.411	0	974.329	0	11.5	4	3.6	4	-1E+10	1	-1E+10	1	-1E+10	1	-1E+10	1	-1E+10	1	-1E+10	1
4901784	92	C	01/10/2018	10:47	-133.295	43.548	0	989.90	0	3.4440	0	34.4530	4	27.414	0	979.661	0	11.5	4	3.6	4	-1E+10	1	-1E+10	1	-1E+10	1	-1E+10	1	-1E+10	1	-1E+10	1
4901784	92	C	01/10/2018	10:47	-133.295	43.548	0	995.30	0	3.4410	0	34.4540	4	27.415	0	984.992	0	11.6	4	3.6	4	-1E+10	1	-1E+10	1	-1E+10	1	-1E+10	1	-1E+10	1	-1E+10	1
4901784	92	C	01/10/2018	10:47	-133.295	43.548	0	1000.70	0	3.4280	0	34.4570	4	27.418	0	990.324	0	11.7	4	3.7	4	-1E+10	1	-1E+10	1	-1E+10	1	-1E+10	1	-1E+10	1	-1E+10	1
4901784	92	C	01/10/2018	10:47	-133.295	43.548	0	1005.10	0	3.4180	0	34.4600	4	27.422	0	994.667	0	11.8	4	3.7	4	-1E+10	1	-1E+10	1	-1E+10	1	-1E+10	1	-1E+10	1	-1E+10	1
4901784	92	C	01/10/2018	10:47	-133.295	43.548	0	1009.60	0	3.4080	0	34.4630	4	27.425	0	999.110	0	11.9	4	3.7	4	-1E+10	1	-1E+10	1	-1E+10	1	-1E+10	1	-1E+10	1	-1E+10	1
4901784	92	C	01/10/2018	10:47	-133.295	43.548	0	1014.90	0	3.3930	0	34.4670	4	27.430	0	1004.342	0	12.1	4	3.8	4	-1E+10	1	-1E+10	1	-1E+10	1	-1E+10	1	-1E+10	1	-1E+10	1
4901784	92	C	01/10/2018	10:47	-133.295	43.548	0	1020.30	0	3.3820	0	34.4700	4	27.433	0	1009.673	0	12.2	4	3.8	4	-1E+10	1	-1E+10	1	-1E+10	1	-1E+10	1	-1E+10	1	-1E+10	1
4901784	92	C	01/10/2018	10:47	-133.295	43.548	0	1025.60	0	3.3730	0	34.4720	4	27.436	0	1014.905	0	12.4	4	3.9	4	-1E+10	1	-1E+10	1	-1E+10	1	-1E+10	1	-1E+10	1	-1E+10	1
4901784	92	C	01/10/2018	10:47	-133.295	43.548	0	1030.00	0	3.3610	0	34.4770	4	27.441	0	1019.248	0	12.6	4	3.9	4	-1E+10	1	-1E+10	1	-1E+10	1	-1E+10	1	-1E+10	1	-1E+10	1
4901784	92	C	01/10/2018	10:47	-133.295	43.548	0	1034.60	0	3.3530	0	34.4790	4	27.443	0	1023.789	0	12.7	4	4.0	4	-1E+10	1	-1E+10	1	-1E+10	1	-1E+10	1	-1E+10	1	-1E+10	1
4901784	92	C	01/10/2018	10:47	-133.295	43.548	0	1040.00	0	3.3490	0	34.4810	4	27.445	0	1029.120	0	12.9	4	4.0	4	-1E+10	1	-1E+10	1	-1E+10	1	-1E+10	1	-1E+10	1	-1E+10	1
4901784	92	C	01/10/2018	10:47	-133.295	43.548	0	1045.50	0	3.3400	0	34.4840	4	27.449	0	1034.548	0	13.0	4	4.1	4	-1E+10	1	-1E+10	1	-1E+10	1	-1E+10	1	-1E+10	1	-1E+10	1
4901784	92	C	01/10/2018	10:47	-133.295	43.548	0	1050.10	0	3.3320	0	34.4860	4	27.451	0	1039.089	0	13.1	4	4.1	4	-1E+10	1	-1E+10	1	-1E+10	1	-1E+10	1	-1E+10	1	-1E+10	1
4901784	92	C	01/10/2018	10:47	-133.295	43.548	0	1054.70	0	3.3290	0	34.4870	4	27.452	0	1043.629	0	13.2	4	4.1	4	-1E+10	1	-1E+10	1	-1E+10	1	-1E+10	1	-1E+10	1	-1E+10	1
4901784	92	C	01/10/2018	10:47	-133.295	43.548	0	1060.30	0	3.3280	0	34.4880	4	27.453	0	1049.156	0	13.4	4	4.2	4	-1E+10	1	-1E+10	1	-1E+10	1	-1E+10	1	-1E+10	1	-1E+10	1
4901784	92	C	01/10/2018	10:47	-133.295	43.548	0	1065.00	0	3.3200	0	34.4910	4	27.456	0	1053.795	0	13.6	4	4.2	4	-1E+10	1	-1E+10	1	-1E+10	1	-1E+10	1	-1E+10	1	-1E+10	1
4901784	92	C	01/10/2018	10:47	-133.295	43.548	0	1069.70	0	3.3090	0	34.4940	4	27.460	0	1058.434	0	13.8	4	4.3	4	-1E+10	1	-1E+10	1	-1E+10	1	-1E+10	1	-1E+10	1	-1E+10	1
4901784	92	C	01/10/2018	10:47	-133.295	43.548	0	1075.30	0	3.3010	0	34.4960	4	27.462	0	1063.961	0	14.0	4	4.4	4	-1E+10	1	-1E+10	1	-1E+10	1	-1E+10	1	-1E+10	1	-1E+10	1
4901784	92	C	01/10/2018	10:47	-133.295	43.548	0	1079.90	0	3.2920	0	34.4990	4	27.465	0	1068.501	0	14.1	4	4.4	4	-1E+10	1	-1E+10	1	-1E+10	1	-1E+10	1	-1E+10	1	-1E+10	1
4901784	92	C	01/10/2018	10:47	-133.295	43.548	0	1084.80	0	3.2880	0	34.5000	4	27.466	0	1073.336	0	14.2	4	4.4	4	-1E+10	1	-1E+10	1	-1E+10	1	-1E+10	1	-1E+10	1	-1E+10	1
4901784	92	C	01/10/2018	10:47	-133.295	43.548	0	1090.00	0	3.2820	0	34.5010	4	27.468	0	1078.468	0	14.4	4	4.5	4	-1E+10	1	-1E+10	1	-1E+10	1	-1E+10	1	-1E+10	1	-1E+10	1
4901784	92	C	01/10/2018	10:47	-133.295	43.548	0	1094.80	0	3.2710	0	34.5040	4	27.471	0	1083.205	0	14.6	4	4.5	4	-1E+10	1	-1E+10	1	-1E+10	1	-1E+10	1	-1E+10	1	-1E+10	1
4901784	92	C	01/10/2018	10:47	-133.295	43.548	0	1099.60	0	3.2610	0	34.5060	4	27.474	0	1087.942	0	14.7	4	4.6	4	-1E+10	1	-1E+10	1	-1E+10	1	-1E+10	1	-1E+10	1	-1E+10	1
4901784	92	C	01/10/2018	10:47	-133.295	43.548	0	1104.50	0	3.2560	0	34.5070	4	27.475	0	1092.777	0	14.8	4	4.6	4	-1E+10	1	-1E+10	1	-1E+10	1	-1E+10	1	-1E+10	1	-1E+10	1
4901784	92	C	01/10/2018	10:47	-133.295	43.548	0	1109.40	0	3.2480	0	34.5080	4	27.477	0	1097.612	0	15.0	4	4.7	4	-1E+10	1	-1E+10	1	-1E+10	1	-1E+10	1	-1E+10	1	-1E+10	1
4901784	92	C	01/10/2018	10:47	-133.295	43.548	0	1114.40	0	3.2320	0	34.5110	4	27.481	0	1102.546	0	15.1	4	4.7	4	-1E+10	1	-1E+10	1	-1E+10	1	-1E+10	1	-1E+10	1	-1E+10	1
4901784	92	C	01/10/2018	10:47	-133.295	43.548	0	1119.60	0	3.2210	0	34.5140	4	27.484	0	1107.677	0	15.2	4	4.7	4	-1E+10	1	-1E+10	1	-1E+10	1	-1E+10	1	-1E+10	1	-1E+10	1
4901784	92	C	01/10/2018	10:47	-133.295	43.548	0	1124.90	0	3.2200	0	34.5140	4	27.484	0	1112.906	0	15.2	4	4.7	4	-1E+10	1	-1E+10	1	-1E+10	1	-1E+10	1	-1E+10	1	-1E+10	1
4901784	92	C	01/10/2018	10:47	-133.295	43.548	0	1130.30	0	3.2150	0	34.5140	4	27.485	0	1118.234	0	15.3	4	4.7	4	-1E+10	1	-1E+10	1	-1E+10	1	-1E+10	1	-1E+10	1	-1E+10	1
4901784	92	C	01/10/2018	10:47	-133.295	43.548	0	1135.70	0	3.2010	0	34.5160	4	27.488	0	1123.562	0	15.4	4	4.8	4	-1E+10	1	-1E+10	1	-1E+10	1	-1E+10	1	-1E+10	1	-1E+10	1
4901784	92	C	01/10/2018	10:47	-133.295	43.548	0	1140.10	0	3.1920	0	34.5170	4	27.489	0	1127.903	0	15.5	4	4.8	4	-1E+10	1	-1E+10	1	-1E+10	1	-1E+10	1	-1E+10	1	-1E+10	1
4901784	92	C	01/10/2018	10:47	-133.295	43.548	0	1144.60	0	3.1870	0	34.5180	4	27.491	0	1132.343	0	15.6	4	4.9	4	-1E+10	1	-1E+10	1	-1E+10	1	-1E+10	1	-1E+10	1	-1E+10	1
4901784	92	C	01/10/2018	10:47	-133.295	43.548	0	1150.20	0	3.1790	0	34.5200	4	27.493	0	1137.868	0	15.8	4	4.9	4	-1E+10	1	-1E+10	1	-1E+10	1	-1E+10	1	-1E+10	1	-1E+10	1
4901784	92	C	01/10/2018	10:47	-133.295	43.548	0	1154.90	0	3.1720	0	34.5220	4	27.495	0	1142.505	0	15.9	4	4.9	4	-1E+10	1	-1E+10	1	-1E+10	1	-1E+10	1	-1E+10	1	-1E+10	1
4901784	92	C	01/10/2018	10:47	-133.295	43.548	0	1159.50	0	3.1550	0	34.5220	4	27.497	0	1147.043	0	15.8	4	4.9	4	-1E+10	1	-1E+10	1	-1E+10	1	-1E+10	1	-1E+10	1	-1E+10	1
4901784	92	C	01/10/2018	10:47	-133.295	43.548	0	1165.00	0	3.1430	0	34.5230	4	27.499	0	1152.469	0	15.9	4	4.9	4	-1E+10	1	-1E+10	1	-1E+10	1	-1E+10	1	-1E+10	1	-1E+10	1
4901784	92	C	01/10/2018	10:47	-133.295	43.548	0	1170.60	0	3.1420	0	34.5240	4	27.500	0	1157.993	0	16.0	4	5.0	4	-1E+10	1	-1E+10	1	-1E+10	1	-1E+10	1	-1E+10	1	-1E+10	1
4901784	92	C	01/10/2018	10:47	-133.295	43.548	0	1175.30	0	3.1330	0	34.5250	4	27.501	0	1162.630	0	16.2	4	5.0	4	-1E+10	1	-1E+10	1	-1E+10	1	-1E+10	1	-1E+10	1	-1E+10	1
4901784	92	C	01/10/2018	10:47	-133.295	43.548	0	1180.00	0	3.1280	0	34.5280	4	27.504	0	1167.266	0	16.4	4	5.1	4	-1E+10	1	-1E+10	1	-1E+10	1	-1E+10	1	-1E+10	1	-1E+10	1
4901784	92	C	01/10/2018	10:47	-133.295	43.548	0	1184.70	0	3.1140	0	34.5290	4	27.506	0	1171.902	0	16.4	4	5.1	4	-1E+10	1	-1E+10	1	-1E+10	1	-1E+10	1	-1E+10	1	-1E+10	1
4901784	92	C	01/10/2018	10:47	-133.295	43.548	0	1189.50	0	3.1050	0	34.5290	4	27.507	0	1176.637	0	16.5	4	5.1	4	-1E+10	1	-1E+10	1	-1E+10	1	-1E+10	1	-1E+10	1	-1E+10	1
4901784	92	C	01/10/2018	10:47	-133.295	43.548	0	1195.20	0	3.1060	0	34.5300	4	27.508	0	1182.259	0	16.8	4	5.2	4	-1E+10	1	-1E+10	1	-1E+10	1	-1E+10	1	-1E+10	1	-1E+10	1
4901784	92	C	01/10/2018	10:47	-133.295	43.548	0	1200.00	0	3.1040	0	34.5320	4	27.510	0	1186.994	0	16.9	4	5.2	4	-1E+10	1	-1E+10	1	-1E+10	1	-1E+10	1	-1E+10	1	-1E+10	1
4901784	92	C	01/10/2018	10:47	-133.295	43.548	0	1204.80	0	3.0930	0	34.5340	4	27.512	0	1191.728	0	17.0	4	5.3	4	-1E+10	1	-1E+10	1	-1E+10	1	-1E+10	1	-1E+10	1	-1E+10	1
4901784	92	C	01/10/2018	10:47	-133.295	43.548	0	1209.60	0	3.0900	0	34.5340	4	27.513	0	1196.462	0	17.1	4	5.3	4	-1E+10	1	-1E+10	1	-1E+10	1	-1E+10	1	-1E+10	1	-1E+10	1
4901784	92	C	01/10/2018	10:47	-133.295	43.548	0	1214.50	0	3.0820	0	34.5350	4	27.514	0	1201.295	0	17.3	4	5.3	4	-1E+10	1	-1E+10	1	-1E+10	1	-1E+10	1	-1E+10	1	-1E+10	1
4901784	92	C	01/10/2018	10:47	-133.295	43.548	0	1220.30	0	3.0670	0	34.5370	4	27.517	0	1207.015	0	17.4	4	5.4	4	-1E+10	1	-1E+10	1	-1E+10	1	-1E+10	1	-1E+10	1	-1E+10	1
4901784	92	C	01/10/2018	10:47	-133.295	43.548	0	1225.20	0	3.0590	0	34.5380	4	27.519	0	1211.848	0	17.5	4	5.4	4	-1E+10	1	-1E+10	1	-1E+10	1	-1E+10	1	-1E+10	1	-1E+10	1
4901784	92	C	01/10/2018	10:47	-133.295	43.548	0	1230.20	0	3.0540	0	34.5390	4	27.520	0	1216.779	0	17.6	4	5.4	4	-1E+10	1	-1E+10	1	-1E+10	1	-1E+10	1	-1E+10	1	-1E+10	1
4901784	92	C	01/10/2018	10:47	-133.295	43.548	0	1235.10	0	3.0470	0	34.5400	4	27.522	0	1221.611	0	17.7	4	5.5	4	-1E+10	1	-1E+10	1	-1E+10	1	-1E+10	1	-1E+10	1	-1E+10	1
4901784	92	C	01/10/2018	10:47	-133.295	43.548	0	1239.90	0	3.0390	0	34.5410	4	27.523	0	1226.345	0	17.8	4	5.5	4	-1E+10	1	-1E+10	1	-1E+10	1	-1E+10	1	-1E+10	1	-1E+10	1
4901784	92	C	01/10/2018	10:47	-133.295	43.548	0	1244.80	0	3.0340	0	34.5420	4	27.524	0	1231.177	0	18.0	4	5.6	4	-1E+10	1	-1E+10	1	-1E+10	1	-1E+10	1	-1E+10	1	-1E+10	1
4901784	92	C	01/10/2018	10:47	-133.295	43.548	0	1249.30	0	3.0230	0	34.5430	4	27.526	0	1235.615	0	18.1	4	5.6	4	-1E+10	1	-1E+10	1	-1E+10	1	-1E+10	1	-1E+10	1	-1E+10	1
4901784	92	C	01/10/2018	10:47	-133.295	43.548	0	1254.80	0	3.0110	0	34.5450	4	27.529	0	1241.038	0	18.3	4	5.7	4	-1E+10	1	-1E+10	1	-1E+10	1	-1E+10	1	-1E+10	1	-1E+10	1
4901784	92	C	01/10/2018	10:47	-133.295	43.548	0	1260.30	0	3.0050	0	34.5460	4	27.530	0	1246.462	0	18.5	4	5.7	4	-1E+10	1	-1E+10	1	-1E+10	1	-1E+10	1	-1E+10	1	-1E+10	1
4901784	92	C	01/10/2018	10:47	-133.295	43.548	0	1264.90	0	2.9980	0	34.5470	4	27.532	0	1250.997	0	18.7	4	5.8	4	-1E+10	1	-1E+10	1	-1E+10	1	-1E+10	1	-1E+10	1	-1E+10	1
4901784	92	C	01/10/2018	10:47	-133.295	43.548	0	1270.20	0	2.9860	0	34.5490	4	27.534	0	1256.223	0	18.9	4	5.8	4	-1E+10	1	-1E+10	1	-1E+10	1	-1E+10	1	-1E+10	1	-1E+10	1
4901784	92	C	01/10/2018	10:47	-133.295	43.548	0	1275.30	0	2.9790	0	34.5510	4	27.537	0	1261.252	0	19.0	4	5.9	4	-1E+10	1	-1E+10	1	-1E+10	1	-1E+10	1	-1E+10	1	-1E+10	1
4901784	92	C	01/10/2018	10:47	-133.295	43.548	0	1280.20	0	2.9770	0	34.5510	4	27.537	0	1266.083	0	19.1	4	5.9	4	-1E+10	1	-1E+10	1	-1E+10	1	-1E+10	1	-1E+10	1	-1E+10	1
4901784	92	C	01/10/2018	10:47	-133.295	43.548	0	1285.10	0	2.9720	0	34.5520	4	27.538	0	1270.914	0	19.3	4	6.0	4	-1E+10	1	-1E+10	1	-1E+10	1	-1E+10	1	-1E+10	1	-1E+10	1
4901784	92	C	01/10/2018	10:47	-133.295	43.548	0	1290.10	0	2.9670	0	34.5530	4	27.540	0	1275.844	0	19.5	4	6.0	4	-1E+10	1	-1E+10	1	-1E+10	1	-1E+10	1	-1E+10	1	-1E+10	1
4901784	92	C	01/10/2018	10:47	-133.295	43.548	0	1295.00	0	2.9590	0	34.5550	4	27.542	0	1280.675	0	19.8	4	6.1	4	-1E+10	1	-1E+10	1	-1E+10	1	-1E+10	1	-1E+10	1	-1E+10	1
4901784	92	C	01/10/2018	10:47	-133.295	43.548	0	1300.00	0	2.9520	0	34.5560	4	27.543	0	1285.604	0	20.0	4	6.2	4	-1E+10	1	-1E+10	1	-1E+10	1	-1E+10	1	-1E+10	1	-1E+10	1
4901784	92	C	01/10/2018	10:47	-133.295	43.548	0	1305.00	0	2.9430	0	34.5580	4	27.546	0	1290.534	0	20.1	4	6.2	4	-1E+10	1	-1E+10	1	-1E+10	1	-1E+10	1	-1E+10	1	-1E+10	1
4901784	92	C	01/10/2018	10:47	-133.295	43.548	0	1310.00	0	2.9400	0	34.5580	4	27.546	0	1295.463	0	20.3	4	6.3	4	-1E+10	1	-1E+10	1	-1E+10	1	-1E+10	1	-1E+10	1	-1E+10	1
4901784	92	C	01/10/2018	10:47	-133.295	43.548	0	1315.00	0	2.9370	0	34.5600	4	27.548	0	1300.392	0	20.6	4	6.3	4	-1E+10	1	-1E+10	1	-1E+10	1	-1E+10	1	-1E+10	1	-1E+10	1
4901784	92	C	01/10/2018	10:47	-133.295	43.548	0	1320.00	0	2.9260	0	34.5610	4	27.550	0	1305.321	0	20.8	4	6.4	4	-1E+10	1	-1E+10	1	-1E+10	1	-1E+10	1	-1E+10	1	-1E+10	1
4901784	92	C	01/10/2018	10:47	-133.295	43.548	0	1325.10	0	2.9200	0	34.5620	4	27.551	0	1310.348	0	21.0	4	6.5	4	-1E+10	1	-1E+10	1	-1E+10	1	-1E+10	1	-1E+10	1	-1E+10	1
4901784	92	C	01/10/2018	10:47	-133.295	43.548	0	1330.30	0	2.9110	0	34.5640	4	27.554	0	1315.474	0	21.2	4	6.5	4	-1E+10	1	-1E+10	1	-1E+10	1	-1E+10	1	-1E+10	1	-1E+10	1
4901784	92	C	01/10/2018	10:47	-133.295	43.548	0	1335.40	0	2.9000	0	34.5650	4	27.555	0	1320.502	0	21.4	4	6.6	4	-1E+10	1	-1E+10	1	-1E+10	1	-1E+10	1	-1E+10	1	-1E+10	1
4901784	92	C	01/10/2018	10:47	-133.295	43.548	0	1340.60	0	2.8840	0	34.5670	4	27.558	0	1325.627	0	21.7	4	6.7	4	-1E+10	1	-1E+10	1	-1E+10	1	-1E+10	1	-1E+10	1	-1E+10	1
4901784	92	C	01/10/2018	10:47	-133.295	43.548	0	1344.90	0	2.8790	0	34.5680	4	27.560	0	1329.866	0	21.9	4	6.7	4	-1E+10	1	-1E+10	1	-1E+10	1	-1E+10	1	-1E+10	1	-1E+10	1
4901784	92	C	01/10/2018	10:47	-133.295	43.548	0	1349.30	0	2.8700	0	34.5690	4	27.561	0	1334.203	0	22.1	4	6.8	4	-1E+10	1	-1E+10	1	-1E+10	1	-1E+10	1	-1E+10	1	-1E+10	1
4901784	92	C	01/10/2018	10:47	-133.295	43.548	0	1354.60	0	2.8600	0	34.5700	4	27.563	0	1339.426	0	22.3	4	6.9	4	-1E+10	1	-1E+10	1	-1E+10	1	-1E+10	1	-1E+10	1	-1E+10	1
4901784	92	C	01/10/2018	10:47	-133.295	43.548	0	1359.90	0	2.8530	0	34.5710	4	27.564	0	1344.650	0	22.5	4	6.9	4	-1E+10	1	-1E+10	1	-1E+10	1	-1E+10	1	-1E+10	1	-1E+10	1
4901784	92	C	01/10/2018	10:47	-133.295	43.548	0	1365.10	0	2.8400	0	34.5730	4	27.567	0	1349.775	0	22.7	4	7.0	4	-1E+10	1	-1E+10	1	-1E+10	1	-1E+10	1	-1E+10	1	-1E+10	1
4901784	92	C	01/10/2018	10:47	-133.295	43.548	0	1370.40	0	2.8320	0	34.5740	4	27.569	0	1354.999	0	22.9	4	7.1	4	-1E+10	1	-1E+10	1	-1E+10	1	-1E+10	1	-1E+10	1	-1E+10	1
4901784	92	C	01/10/2018	10:47	-133.295	43.548	0	1375.60	0	2.8200	0	34.5750	4	27.571	0	1360.123	0	23.1	4	7.1	4	-1E+10	1	-1E+10	1	-1E+10	1	-1E+10	1	-1E+10	1	-1E+10	1
4901784	92	C	01/10/2018	10:47	-133.295	43.548	0	1380.10	0	2.8160	0	34.5760	4	27.572	0	1364.558	0	23.2	4	7.1	4	-1E+10	1	-1E+10	1	-1E+10	1	-1E+10	1	-1E+10	1	-1E+10	1
4901784	92	C	01/10/2018	10:47	-133.295	43.548	0	1384.50	0	2.8130	0	34.5760	4	27.572	0	1368.894	0	23.3	4	7.2	4	-1E+10	1	-1E+10	1	-1E+10	1	-1E+10	1	-1E+10	1	-1E+10	1
4901784	92	C	01/10/2018	10:47	-133.295	43.548	0	1389.90	0	2.8040	0	34.5770	4	27.574	0	1374.216	0	23.4	4	7.2	4	-1E+10	1	-1E+10	1	-1E+10	1	-1E+10	1	-1E+10	1	-1E+10	1
4901784	92	C	01/10/2018	10:47	-133.295	43.548	0	1395.30	0	2.7970	0	34.5780	4	27.575	0	1379.537	0	23.6	4	7.2	4	-1E+10	1	-1E+10	1	-1E+10	1	-1E+10	1	-1E+10	1	-1E+10	1
4901784	92	C	01/10/2018	10:47	-133.295	43.548	0	1399.90	0	2.7910	0	34.5780	4	27.576	0	1384.070	0	23.7	4	7.3	4	-1E+10	1	-1E+10	1	-1E+10	1	-1E+10	1	-1E+10	1	-1E+10	1
4901784	92	C	01/10/2018	10:47	-133.295	43.548	0	1404.50	0	2.7830	0	34.5790	4	27.577	0	1388.603	0	23.8	4	7.3	4	-1E+10	1	-1E+10	1	-1E+10	1	-1E+10	1	-1E+10	1	-1E+10	1
4901784	92	C	01/10/2018	10:47	-133.295	43.548	0	1410.00	0	2.7760	0	34.5800	4	27.579	0	1394.023	0	23.9	4	7.4	4	-1E+10	1	-1E+10	1	-1E+10	1	-1E+10	1	-1E+10	1	-1E+10	1
4901784	92	C	01/10/2018	10:47	-133.295	43.548	0	1414.70	0	2.7700	0	34.5800	4	27.579	0	1398.654	0	24.0	4	7.4	4	-1E+10	1	-1E+10	1	-1E+10	1	-1E+10	1	-1E+10	1	-1E+10	1
4901784	92	C	01/10/2018	10:47	-133.295	43.548	0	1419.20	0	2.7640	0	34.5800	4	27.580	0	1403.088	0	24.0	4	7.4	4	-1E+10	1	-1E+10	1	-1E+10	1	-1E+10	1	-1E+10	1	-1E+10	1
4901784	92	C	01/10/2018	10:47	-133.295	43.548	0	1424.60	0	2.7450	0	34.5810	4	27.582	0	1408.409	0	24.1	4	7.4	4	-1E+10	1	-1E+10	1	-1E+10	1	-1E+10	1	-1E+10	1	-1E+10	1
4901784	92	C	01/10/2018	10:47	-133.295	43.548	0	1429.50	0	2.7400	0	34.5810	4	27.583	0	1413.237	0	24.3	4	7.5	4	-1E+10	1	-1E+10	1	-1E+10	1	-1E+10	1	-1E+10	1	-1E+10	1
4901784	92	C	01/10/2018	10:47	-133.295	43.548	0	1434.40	0	2.7350	0	34.5820	4	27.584	0	1418.064	0	24.5	4	7.5	4	-1E+10	1	-1E+10	1	-1E+10	1	-1E+10	1	-1E+10	1	-1E+10	1
4901784	92	C	01/10/2018	10:47	-133.295	43.548	0	1439.30	0	2.7200	0	34.5830	4	27.586	0	1422.892	0	24.7	4	7.6	4	-1E+10	1	-1E+10	1	-1E+10	1	-1E+10	1	-1E+10	1	-1E+10	1
4901784	92	C	01/10/2018	10:47	-133.295	43.548	0	1445.00	0	2.7050	0	34.5840	4	27.588	0	1428.508	0	24.8	4	7.6	4	-1E+10	1	-1E+10	1	-1E+10	1	-1E+10	1	-1E+10	1	-1E+10	1
4901784	92	C	01/10/2018	10:47	-133.295	43.548	0	1450.80	0	2.6930	0	34.5840	4	27.589	0	1434.222	0	24.9	4	7.6	4	-1E+10	1	-1E+10	1	-1E+10	1	-1E+10	1	-1E+10	1	-1E+10	1
4901784	92	C	01/10/2018	10:47	-133.295	43.548	0	1455.70	0	2.6870	0	34.5850	4	27.591	0	1439.049	0	24.9	4	7.6	4	-1E+10	1	-1E+10	1	-1E+10	1	-1E+10	1	-1E+10	1	-1E+10	1
4901784	92	C	01/10/2018	10:47	-133.295	43.548	0	1460.00	0	2.6820	0	34.5850	4	27.591	0	1443.285	0	24.9	4	7.6	4	-1E+10	1	-1E+10	1	-1E+10	1	-1E+10	1	-1E+10	1	-1E+10	1
4901784	92	C	01/10/2018	10:47	-133.295	43.548	0	1464.30	0	2.6700	0	34.5850	4	27.592	0	1447.521	0	24.8	4	7.6	4	-1E+10	1	-1E+10	1	-1E+10	1	-1E+10	1	-1E+10	1	-1E+10	1
4901784	92	C	01/10/2018	10:47	-133.295	43.548	0	1469.40	0	2.6580	0	34.5850	4	27.593	0	1452.545	0	24.9	4	7.6	4	-1E+10	1	-1E+10	1	-1E+10	1	-1E+10	1	-1E+10	1	-1E+10	1
4901784	92	C	01/10/2018	10:47	-133.295	43.548	0	1474.60	0	2.6520	0	34.5850	4	27.594	0	1457.668	0	25.2	4	7.7	4	-1E+10	1	-1E+10	1	-1E+10	1	-1E+10	1	-1E+10	1	-1E+10	1
4901784	92	C	01/10/2018	10:47	-133.295	43.548	0	1479.90	0	2.6410	0	34.5870	4	27.596	0	1462.889	0	25.5	4	7.8	4	-1E+10	1	-1E+10	1	-1E+10	1	-1E+10	1	-1E+10	1	-1E+10	1
4901784	92	C	01/10/2018	10:47	-133.295	43.548	0	1485.10	0	2.6310	0	34.5870	4	27.597	0	1468.011	0	25.6	4	7.9	4	-1E+10	1	-1E+10	1	-1E+10	1	-1E+10	1	-1E+10	1	-1E+10	1
4901784	92	C	01/10/2018	10:47	-133.295	43.548	0	1490.30	0	2.6160	0	34.5880	4	27.599	0	1473.133	0	25.8	4	7.9	4	-1E+10	1	-1E+10	1	-1E+10	1	-1E+10	1	-1E+10	1	-1E+10	1
4901784	92	C	01/10/2018	10:47	-133.295	43.548	0	1495.60	0	2.6080	0	34.5890	4	27.601	0	1478.353	0	25.9	4	7.9	4	-1E+10	1	-1E+10	1	-1E+10	1	-1E+10	1	-1E+10	1	-1E+10	1
4901784	92	C	01/10/2018	10:47	-133.295	43.548	0	1499.90	0	2.5990	0	34.5900	4	27.602	0	1482.589	0	26.0	4	8.0	4	-1E+10	1	-1E+10	1	-1E+10	1	-1E+10	1	-1E+10	1	-1E+10	1
4901784	92	C	01/10/2018	10:47	-133.295	43.548	0	1504.40	0	2.5880	0	34.5900	4	27.603	0	1487.021	0	26.2	4	8.0	4	-1E+10	1	-1E+10	1	-1E+10	1	-1E+10	1	-1E+10	1	-1E+10	1
4901784	92	C	01/10/2018	10:47	-133.295	43.548	0	1509.70	0	2.5810	0	34.5910	4	27.605	0	1492.241	0	26.4	4	8.1	4	-1E+10	1	-1E+10	1	-1E+10	1	-1E+10	1	-1E+10	1	-1E+10	1
4901784	92	C	01/10/2018	10:47	-133.295	43.548	0	1515.10	0	2.5700	0	34.5920	4	27.607	0	1497.559	0	26.7	4	8.2	4	-1E+10	1	-1E+10	1	-1E+10	1	-1E+10	1	-1E+10	1	-1E+10	1
4901784	92	C	01/10/2018	10:47	-133.295	43.548	0	1520.40	0	2.5600	0	34.5930	4	27.608	0	1502.779	0	26.9	4	8.2	4	-1E+10	1	-1E+10	1	-1E+10	1	-1E+10	1	-1E+10	1	-1E+10	1
4901784	92	C	01/10/2018	10:47	-133.295	43.548	0	1525.00	0	2.5520	0	34.5940	4	27.610	0	1507.310	0	27.1	4	8.3	4	-1E+10	1	-1E+10	1	-1E+10	1	-1E+10	1	-1E+10	1	-1E+10	1
4901784	92	C	01/10/2018	10:47	-133.295	43.548	0	1529.50	0	2.5440	0	34.5940	4	27.611	0	1511.741	0	27.3	4	8.4	4	-1E+10	1	-1E+10	1	-1E+10	1	-1E+10	1	-1E+10	1	-1E+10	1
4901784	92	C	01/10/2018	10:47	-133.295	43.548	0	1535.00	0	2.5320	0	34.5960	4	27.613	0	1517.158	0	27.6	4	8.4	4	-1E+10	1	-1E+10	1	-1E+10	1	-1E+10	1	-1E+10	1	-1E+10	1
4901784	92	C	01/10/2018	10:47	-133.295	43.548	0	1540.40	0	2.5260	0	34.5960	4	27.614	0	1522.475	0	27.8	4	8.5	4	-1E+10	1	-1E+10	1	-1E+10	1	-1E+10	1	-1E+10	1	-1E+10	1
4901784	92	C	01/10/2018	10:47	-133.295	43.548	0	1545.00	0	2.5230	0	34.5970	4	27.615	0	1527.005	0	28.0	4	8.5	4	-1E+10	1	-1E+10	1	-1E+10	1	-1E+10	1	-1E+10	1	-1E+10	1
4901784	92	C	01/10/2018	10:47	-133.295	43.548	0	1549.60	0	2.5140	0	34.5970	4	27.616	0	1531.535	0	28.3	4	8.6	4	-1E+10	1	-1E+10	1	-1E+10	1	-1E+10	1	-1E+10	1	-1E+10	1
4901784	92	C	01/10/2018	10:47	-133.295	43.548	0	1555.10	0	2.4990	0	34.5990	4	27.618	0	1536.951	0	28.7	4	8.8	4	-1E+10	1	-1E+10	1	-1E+10	1	-1E+10	1	-1E+10	1	-1E+10	1
4901784	92	C	01/10/2018	10:47	-133.295	43.548	0	1559.80	0	2.4890	0	34.6000	4	27.620	0	1541.579	0	29.0	4	8.8	4	-1E+10	1	-1E+10	1	-1E+10	1	-1E+10	1	-1E+10	1	-1E+10	1
4901784	92	C	01/10/2018	10:47	-133.295	43.548	0	1564.40	0	2.4790	0	34.6010	4	27.622	0	1546.109	0	29.3	4	8.9	4	-1E+10	1	-1E+10	1	-1E+10	1	-1E+10	1	-1E+10	1	-1E+10	1
4901784	92	C	01/10/2018	10:47	-133.295	43.548	0	1570.00	0	2.4680	0	34.6020	4	27.624	0	1551.623	0	29.6	4	9.0	4	-1E+10	1	-1E+10	1	-1E+10	1	-1E+10	1	-1E+10	1	-1E+10	1
4901784	92	C	01/10/2018	10:47	-133.295	43.548	0	1574.70	0	2.4620	0	34.6030	4	27.625	0	1556.250	0	29.9	4	9.1	4	-1E+10	1	-1E+10	1	-1E+10	1	-1E+10	1	-1E+10	1	-1E+10	1
4901784	92	C	01/10/2018	10:47	-133.295	43.548	0	1579.50	0	2.4520	0	34.6040	4	27.626	0	1560.976	0	30.3	4	9.2	4	-1E+10	1	-1E+10	1	-1E+10	1	-1E+10	1	-1E+10	1	-1E+10	1
4901784	92	C	01/10/2018	10:47	-133.295	43.548	0	1585.20	0	2.4390	0	34.6050	4	27.628	0	1566.588	0	30.7	4	9.3	4	-1E+10	1	-1E+10	1	-1E+10	1	-1E+10	1	-1E+10	1	-1E+10	1
4901784	92	C	01/10/2018	10:47	-133.295	43.548	0	1589.90	0	2.4320	0	34.6060	4	27.630	0	1571.216	0	30.9	4	9.4	4	-1E+10	1	-1E+10	1	-1E+10	1	-1E+10	1	-1E+10	1	-1E+10	1
4901784	92	C	01/10/2018	10:47	-133.295	43.548	0	1594.50	0	2.4220	0	34.6080	4	27.632	0	1575.745	0	31.3	4	9.5	4	-1E+10	1	-1E+10	1	-1E+10	1	-1E+10	1	-1E+10	1	-1E+10	1
4901784	92	C	01/10/2018	10:47	-133.295	43.548	0	1600.00	0	2.4100	0	34.6090	4	27.634	0	1581.159	0	31.6	4	9.6	4	-1E+10	1	-1E+10	1	-1E+10	1	-1E+10	1	-1E+10	1	-1E+10	1
4901784	92	C	01/10/2018	10:47	-133.295	43.548	0	1605.50	0	2.4070	0	34.6090	4	27.634	0	1586.574	0	31.8	4	9.7	4	-1E+10	1	-1E+10	1	-1E+10	1	-1E+10	1	-1E+10	1	-1E+10	1
4901784	92	C	01/10/2018	10:47	-133.295	43.548	0	1610.40	0	2.4040	0	34.6100	4	27.635	0	1591.398	0	32.0	4	9.7	4	-1E+10	1	-1E+10	1	-1E+10	1	-1E+10	1	-1E+10	1	-1E+10	1
4901784	92	C	01/10/2018	10:47	-133.295	43.548	0	1615.20	0	2.3950	0	34.6110	4	27.637	0	1596.123	0	32.4	4	9.9	4	-1E+10	1	-1E+10	1	-1E+10	1	-1E+10	1	-1E+10	1	-1E+10	1
4901784	92	C	01/10/2018	10:47	-133.295	43.548	0	1620.10	0	2.3850	0	34.6120	4	27.639	0	1600.947	0	32.7	4	10.0	4	-1E+10	1	-1E+10	1	-1E+10	1	-1E+10	1	-1E+10	1	-1E+10	1
4901784	92	C	01/10/2018	10:47	-133.295	43.548	0	1625.00	0	2.3760	0	34.6130	4	27.640	0	1605.770	0	33.0	4	10.1	4	-1E+10	1	-1E+10	1	-1E+10	1	-1E+10	1	-1E+10	1	-1E+10	1
4901784	92	C	01/10/2018	10:47	-133.295	43.548	0	1630.00	0	2.3710	0	34.6140	4	27.641	0	1610.692	0	33.4	4	10.2	4	-1E+10	1	-1E+10	1	-1E+10	1	-1E+10	1	-1E+10	1	-1E+10	1
4901784	92	C	01/10/2018	10:47	-133.295	43.548	0	1634.90	0	2.3610	0	34.6150	4	27.643	0	1615.515	0	34.0	4	10.3	4	-1E+10	1	-1E+10	1	-1E+10	1	-1E+10	1	-1E+10	1	-1E+10	1
4901784	92	C	01/10/2018	10:47	-133.295	43.548	0	1639.90	0	2.3450	0	34.6180	4	27.647	0	1620.437	0	34.5	4	10.5	4	-1E+10	1	-1E+10	1	-1E+10	1	-1E+10	1	-1E+10	1	-1E+10	1
4901784	92	C	01/10/2018	10:47	-133.295	43.548	0	1644.90	0	2.3430	0	34.6180	4	27.647	0	1625.358	0	34.7	4	10.6	4	-1E+10	1	-1E+10	1	-1E+10	1	-1E+10	1	-1E+10	1	-1E+10	1
4901784	92	C	01/10/2018	10:47	-133.295	43.548	0	1649.90	0	2.3340	0	34.6200	4	27.649	0	1630.280	0	35.2	4	10.7	4	-1E+10	1	-1E+10	1	-1E+10	1	-1E+10	1	-1E+10	1	-1E+10	1
4901784	92	C	01/10/2018	10:47	-133.295	43.548	0	1654.90	0	2.3250	0	34.6210	4	27.651	0	1635.201	0	35.5	4	10.8	4	-1E+10	1	-1E+10	1	-1E+10	1	-1E+10	1	-1E+10	1	-1E+10	1
4901784	92	C	01/10/2018	10:47	-133.295	43.548	0	1660.00	0	2.3160	0	34.6220	4	27.653	0	1640.221	0	35.7	4	10.9	4	-1E+10	1	-1E+10	1	-1E+10	1	-1E+10	1	-1E+10	1	-1E+10	1
4901784	92	C	01/10/2018	10:47	-133.295	43.548	0	1665.00	0	2.3110	0	34.6230	4	27.654	0	1645.142	0	36.0	4	10.9	4	-1E+10	1	-1E+10	1	-1E+10	1	-1E+10	1	-1E+10	1	-1E+10	1
4901784	92	C	01/10/2018	10:47	-133.295	43.548	0	1670.10	0	2.3080	0	34.6230	4	27.654	0	1650.161	0	36.3	4	11.0	4	-1E+10	1	-1E+10	1	-1E+10	1	-1E+10	1	-1E+10	1	-1E+10	1
4901784	92	C	01/10/2018	10:47	-133.295	43.548	0	1675.10	0	2.2990	0	34.6240	4	27.656	0	1655.082	0	36.7	4	11.2	4	-1E+10	1	-1E+10	1	-1E+10	1	-1E+10	1	-1E+10	1	-1E+10	1
4901784	92	C	01/10/2018	10:47	-133.295	43.548	0	1680.10	0	2.2870	0	34.6260	4	27.658	0	1660.002	0	37.1	4	11.3	4	-1E+10	1	-1E+10	1	-1E+10	1	-1E+10	1	-1E+10	1	-1E+10	1
4901784	92	C	01/10/2018	10:47	-133.295	43.548	0	1685.20	0	2.2820	0	34.6260	4	27.659	0	1665.021	0	37.5	4	11.4	4	-1E+10	1	-1E+10	1	-1E+10	1	-1E+10	1	-1E+10	1	-1E+10	1
4901784	92	C	01/10/2018	10:47	-133.295	43.548	0	1690.40	0	2.2720	0	34.6270	4	27.660	0	1670.139	0	37.9	4	11.5	4	-1E+10	1	-1E+10	1	-1E+10	1	-1E+10	1	-1E+10	1	-1E+10	1
4901784	92	C	01/10/2018	10:47	-133.295	43.548	0	1695.50	0	2.2600	0	34.6290	4	27.663	0	1675.157	0	38.4	4	11.7	4	-1E+10	1	-1E+10	1	-1E+10	1	-1E+10	1	-1E+10	1	-1E+10	1
4901784	92	C	01/10/2018	10:47	-133.295	43.548	0	1700.60	0	2.2510	0	34.6300	4	27.664	0	1680.176	0	38.8	4	11.8	4	-1E+10	1	-1E+10	1	-1E+10	1	-1E+10	1	-1E+10	1	-1E+10	1
4901784	92	C	01/10/2018	10:47	-133.295	43.548	0	1705.80	0	2.2460	0	34.6310	4	27.666	0	1685.293	0	39.1	4	11.9	4	-1E+10	1	-1E+10	1	-1E+10	1	-1E+10	1	-1E+10	1	-1E+10	1
4901784	92	C	01/10/2018	10:47	-133.295	43.548	0	1710.00	0	2.2430	0	34.6320	4	27.667	0	1689.426	0	39.4	4	12.0	4	-1E+10	1	-1E+10	1	-1E+10	1	-1E+10	1	-1E+10	1	-1E+10	1
4901784	92	C	01/10/2018	10:47	-133.295	43.548	0	1714.30	0	2.2370	0	34.6330	4	27.668	0	1693.657	0	39.8	4	12.1	4	-1E+10	1	-1E+10	1	-1E+10	1	-1E+10	1	-1E+10	1	-1E+10	1
4901784	92	C	01/10/2018	10:47	-133.295	43.548	0	1719.50	0	2.2310	0	34.6330	4	27.669	0	1698.773	0	40.3	4	12.2	4	-1E+10	1	-1E+10	1	-1E+10	1	-1E+10	1	-1E+10	1	-1E+10	1
4901784	92	C	01/10/2018	10:47	-133.295	43.548	0	1724.80	0	2.2230	0	34.6340	4	27.670	0	1703.988	0	40.9	4	12.4	4	-1E+10	1	-1E+10	1	-1E+10	1	-1E+10	1	-1E+10	1	-1E+10	1
4901784	92	C	01/10/2018	10:47	-133.295	43.548	0	1730.20	0	2.2050	0	34.6370	4	27.674	0	1709.301	0	41.5	4	12.6	4	-1E+10	1	-1E+10	1	-1E+10	1	-1E+10	1	-1E+10	1	-1E+10	1
4901784	92	C	01/10/2018	10:47	-133.295	43.548	0	1735.50	0	2.1980	0	34.6370	4	27.674	0	1714.516	0	42.0	4	12.7	4	-1E+10	1	-1E+10	1	-1E+10	1	-1E+10	1	-1E+10	1	-1E+10	1
4901784	92	C	01/10/2018	10:47	-133.295	43.548	0	1739.90	0	2.1840	0	34.6390	4	27.677	0	1718.845	0	42.5	4	12.9	4	-1E+10	1	-1E+10	1	-1E+10	1	-1E+10	1	-1E+10	1	-1E+10	1
4901784	92	C	01/10/2018	10:47	-133.295	43.548	0	1744.30	0	2.1760	0	34.6400	4	27.679	0	1723.174	0	42.9	4	13.0	4	-1E+10	1	-1E+10	1	-1E+10	1	-1E+10	1	-1E+10	1	-1E+10	1
4901784	92	C	01/10/2018	10:47	-133.295	43.548	0	1749.70	0	2.1660	0	34.6410	4	27.680	0	1728.486	0	43.4	4	13.1	4	-1E+10	1	-1E+10	1	-1E+10	1	-1E+10	1	-1E+10	1	-1E+10	1
4901784	92	C	01/10/2018	10:47	-133.295	43.548	0	1755.10	0	2.1570	0	34.6430	4	27.683	0	1733.799	0	43.8	4	13.3	4	-1E+10	1	-1E+10	1	-1E+10	1	-1E+10	1	-1E+10	1	-1E+10	1
4901784	92	C	01/10/2018	10:47	-133.295	43.548	0	1760.60	0	2.1510	0	34.6430	4	27.683	0	1739.210	0	44.1	4	13.4	4	-1E+10	1	-1E+10	1	-1E+10	1	-1E+10	1	-1E+10	1	-1E+10	1
4901784	92	C	01/10/2018	10:47	-133.295	43.548	0	1764.60	0	2.1460	0	34.6440	4	27.684	0	1743.145	0	44.5	4	13.5	4	-1E+10	1	-1E+10	1	-1E+10	1	-1E+10	1	-1E+10	1	-1E+10	1
4901784	92	C	01/10/2018	10:47	-133.295	43.548	0	1769.40	0	2.1400	0	34.6450	4	27.686	0	1747.867	0	44.8	4	13.6	4	-1E+10	1	-1E+10	1	-1E+10	1	-1E+10	1	-1E+10	1	-1E+10	1
4901784	92	C	01/10/2018	10:47	-133.295	43.548	0	1774.20	0	2.1360	0	34.6460	4	27.687	0	1752.588	0	45.2	4	13.7	4	-1E+10	1	-1E+10	1	-1E+10	1	-1E+10	1	-1E+10	1	-1E+10	1
4901784	92	C	01/10/2018	10:47	-133.295	43.548	0	1779.90	0	2.1250	0	34.6470	4	27.689	0	1758.195	0	45.8	4	13.9	4	-1E+10	1	-1E+10	1	-1E+10	1	-1E+10	1	-1E+10	1	-1E+10	1
4901784	92	C	01/10/2018	10:47	-133.295	43.548	0	1785.70	0	2.1170	0	34.6480	4	27.690	0	1763.900	0	46.2	4	14.0	4	-1E+10	1	-1E+10	1	-1E+10	1	-1E+10	1	-1E+10	1	-1E+10	1
4901784	92	C	01/10/2018	10:47	-133.295	43.548	0	1790.60	0	2.1130	0	34.6490	4	27.691	0	1768.720	0	46.7	4	14.1	4	-1E+10	1	-1E+10	1	-1E+10	1	-1E+10	1	-1E+10	1	-1E+10	1
4901784	92	C	01/10/2018	10:47	-133.295	43.548	0	1795.60	0	2.1020	0	34.6510	4	27.694	0	1773.638	0	47.5	4	14.4	4	-1E+10	1	-1E+10	1	-1E+10	1	-1E+10	1	-1E+10	1	-1E+10	1
4901784	92	C	01/10/2018	10:47	-133.295	43.548	0	1800.60	0	2.0990	0	34.6520	4	27.695	0	1778.556	0	48.0	4	14.5	4	-1E+10	1	-1E+10	1	-1E+10	1	-1E+10	1	-1E+10	1	-1E+10	1
4901784	92	C	01/10/2018	10:47	-133.295	43.548	0	1805.70	0	2.1010	0	34.6530	4	27.695	0	1783.572	0	48.6	4	14.7	4	-1E+10	1	-1E+10	1	-1E+10	1	-1E+10	1	-1E+10	1	-1E+10	1
4901784	92	C	01/10/2018	10:47	-133.295	43.548	0	1809.90	0	2.1000	0	34.6550	4	27.697	0	1787.703	0	49.0	4	14.8	4	-1E+10	1	-1E+10	1	-1E+10	1	-1E+10	1	-1E+10	1	-1E+10	1
4901784	92	C	01/10/2018	10:47	-133.295	43.548	0	1814.20	0	2.0970	0	34.6560	4	27.698	0	1791.932	0	49.3	4	14.9	4	-1E+10	1	-1E+10	1	-1E+10	1	-1E+10	1	-1E+10	1	-1E+10	1
4901784	92	C	01/10/2018	10:47	-133.295	43.548	0	1819.40	0	2.0940	0	34.6560	4	27.698	0	1797.047	0	49.6	4	15.0	4	-1E+10	1	-1E+10	1	-1E+10	1	-1E+10	1	-1E+10	1	-1E+10	1
4901784	92	C	01/10/2018	10:47	-133.295	43.548	0	1824.50	0	2.0860	0	34.6570	4	27.700	0	1802.062	0	49.9	4	15.1	4	-1E+10	1	-1E+10	1	-1E+10	1	-1E+10	1	-1E+10	1	-1E+10	1
4901784	92	C	01/10/2018	10:47	-133.295	43.548	0	1829.60	0	2.0840	0	34.6570	4	27.700	0	1807.078	0	50.2	4	15.2	4	-1E+10	1	-1E+10	1	-1E+10	1	-1E+10	1	-1E+10	1	-1E+10	1
4901784	92	C	01/10/2018	10:47	-133.295	43.548	0	1834.70	0	2.0790	0	34.6580	4	27.701	0	1812.093	0	50.5	4	15.3	4	-1E+10	1	-1E+10	1	-1E+10	1	-1E+10	1	-1E+10	1	-1E+10	1
4901784	92	C	01/10/2018	10:47	-133.295	43.548	0	1839.90	0	2.0730	0	34.6590	4	27.703	0	1817.207	0	50.8	4	15.4	4	-1E+10	1	-1E+10	1	-1E+10	1	-1E+10	1	-1E+10	1	-1E+10	1
4901784	92	C	01/10/2018	10:47	-133.295	43.548	0	1845.10	0	2.0690	0	34.6590	4	27.703	0	1822.321	0	51.1	4	15.4	4	-1E+10	1	-1E+10	1	-1E+10	1	-1E+10	1	-1E+10	1	-1E+10	1
4901784	92	C	01/10/2018	10:47	-133.295	43.548	0	1850.40	0	2.0630	0	34.6600	4	27.704	0	1827.533	0	51.5	4	15.6	4	-1E+10	1	-1E+10	1	-1E+10	1	-1E+10	1	-1E+10	1	-1E+10	1
4901784	92	C	01/10/2018	10:47	-133.295	43.548	0	1854.90	0	2.0580	0	34.6610	4	27.705	0	1831.958	0	51.7	4	15.6	4	-1E+10	1	-1E+10	1	-1E+10	1	-1E+10	1	-1E+10	1	-1E+10	1
4901784	92	C	01/10/2018	10:47	-133.295	43.548	0	1859.30	0	2.0550	0	34.6620	4	27.706	0	1836.284	0	52.0	4	15.7	4	-1E+10	1	-1E+10	1	-1E+10	1	-1E+10	1	-1E+10	1	-1E+10	1
4901784	92	C	01/10/2018	10:47	-133.295	43.548	0	1864.70	0	2.0480	0	34.6620	4	27.707	0	1841.594	0	52.3	4	15.8	4	-1E+10	1	-1E+10	1	-1E+10	1	-1E+10	1	-1E+10	1	-1E+10	1
4901784	92	C	01/10/2018	10:47	-133.295	43.548	0	1870.10	0	2.0460	0	34.6620	4	27.707	0	1846.904	0	52.5	4	15.9	4	-1E+10	1	-1E+10	1	-1E+10	1	-1E+10	1	-1E+10	1	-1E+10	1
4901784	92	C	01/10/2018	10:47	-133.295	43.548	0	1875.10	0	2.0400	0	34.6640	4	27.709	0	1851.820	0	52.7	4	15.9	4	-1E+10	1	-1E+10	1	-1E+10	1	-1E+10	1	-1E+10	1	-1E+10	1
4901784	92	C	01/10/2018	10:47	-133.295	43.548	0	1880.10	0	2.0400	0	34.6640	4	27.709	0	1856.736	0	52.9	4	16.0	4	-1E+10	1	-1E+10	1	-1E+10	1	-1E+10	1	-1E+10	1	-1E+10	1
4901784	92	C	01/10/2018	10:47	-133.295	43.548	0	1885.70	0	2.0360	0	34.6640	4	27.710	0	1862.242	0	53.4	4	16.1	4	-1E+10	1	-1E+10	1	-1E+10	1	-1E+10	1	-1E+10	1	-1E+10	1
4901784	92	C	01/10/2018	10:47	-133.295	43.548	0	1890.50	0	2.0320	0	34.6650	4	27.711	0	1866.961	0	53.7	4	16.2	4	-1E+10	1	-1E+10	1	-1E+10	1	-1E+10	1	-1E+10	1	-1E+10	1
4901784	92	C	01/10/2018	10:47	-133.295	43.548	0	1895.30	0	2.0280	0	34.6660	4	27.712	0	1871.680	0	53.9	4	16.3	4	-1E+10	1	-1E+10	1	-1E+10	1	-1E+10	1	-1E+10	1	-1E+10	1
4901784	92	C	01/10/2018	10:47	-133.295	43.548	0	1900.20	0	2.0260	0	34.6660	4	27.712	0	1876.498	0	54.2	4	16.4	4	-1E+10	1	-1E+10	1	-1E+10	1	-1E+10	1	-1E+10	1	-1E+10	1
4901784	92	C	01/10/2018	10:47	-133.295	43.548	0	1905.10	0	2.0210	0	34.6670	4	27.713	0	1881.315	0	54.5	4	16.5	4	-1E+10	1	-1E+10	1	-1E+10	1	-1E+10	1	-1E+10	1	-1E+10	1
4901784	92	C	01/10/2018	10:47	-133.295	43.548	0	1910.10	0	2.0190	0	34.6670	4	27.714	0	1886.230	0	54.8	4	16.5	4	-1E+10	1	-1E+10	1	-1E+10	1	-1E+10	1	-1E+10	1	-1E+10	1
4901784	92	C	01/10/2018	10:47	-133.295	43.548	0	1915.10	0	2.0120	0	34.6680	4	27.715	0	1891.146	0	55.2	4	16.7	4	-1E+10	1	-1E+10	1	-1E+10	1	-1E+10	1	-1E+10	1	-1E+10	1
4901784	92	C	01/10/2018	10:47	-133.295	43.548	0	1920.20	0	2.0090	0	34.6690	4	27.716	0	1896.159	0	55.4	4	16.7	4	-1E+10	1	-1E+10	1	-1E+10	1	-1E+10	1	-1E+10	1	-1E+10	1
4901784	92	C	01/10/2018	10:47	-133.295	43.548	0	1925.30	0	2.0060	0	34.6690	4	27.716	0	1901.173	0	55.7	4	16.8	4	-1E+10	1	-1E+10	1	-1E+10	1	-1E+10	1	-1E+10	1	-1E+10	1
4901784	92	C	01/10/2018	10:47	-133.295	43.548	0	1930.40	0	2.0000	0	34.6710	4	27.718	0	1906.186	0	56.0	4	16.9	4	-1E+10	1	-1E+10	1	-1E+10	1	-1E+10	1	-1E+10	1	-1E+10	1
4901784	92	C	01/10/2018	10:47	-133.295	43.548	0	1935.60	0	1.9980	0	34.6710	4	27.719	0	1911.297	0	56.2	4	17.0	4	-1E+10	1	-1E+10	1	-1E+10	1	-1E+10	1	-1E+10	1	-1E+10	1
4901784	92	C	01/10/2018	10:47	-133.295	43.548	0	1939.90	0	1.9940	0	34.6720	4	27.720	0	1915.524	0	56.4	4	17.0	4	-1E+10	1	-1E+10	1	-1E+10	1	-1E+10	1	-1E+10	1	-1E+10	1
4901784	92	C	01/10/2018	10:47	-133.295	43.548	0	1944.30	0	1.9910	0	34.6720	4	27.720	0	1919.849	0	56.5	4	17.0	4	-1E+10	1	-1E+10	1	-1E+10	1	-1E+10	1	-1E+10	1	-1E+10	1
4901784	92	C	01/10/2018	10:47	-133.295	43.548	0	1949.50	0	1.9900	0	34.6720	4	27.720	0	1924.960	0	56.6	4	17.1	4	-1E+10	1	-1E+10	1	-1E+10	1	-1E+10	1	-1E+10	1	-1E+10	1
4901784	92	C	01/10/2018	10:47	-133.295	43.548	0	1954.80	0	1.9890	0	34.6720	4	27.720	0	1930.169	0	56.7	4	17.1	4	-1E+10	1	-1E+10	1	-1E+10	1	-1E+10	1	-1E+10	1	-1E+10	1
4901784	92	C	01/10/2018	10:47	-133.295	43.548	0	1960.10	0	1.9880	0	34.6720	4	27.720	0	1935.378	0	56.9	4	17.2	4	-1E+10	1	-1E+10	1	-1E+10	1	-1E+10	1	-1E+10	1	-1E+10	1
4901784	92	C	01/10/2018	10:47	-133.295	43.548	0	1965.40	0	1.9850	0	34.6730	4	27.721	0	1940.587	0	57.2	4	17.3	4	-1E+10	1	-1E+10	1	-1E+10	1	-1E+10	1	-1E+10	1	-1E+10	1
4901784	92	C	01/10/2018	10:47	-133.295	43.548	0	1969.90	0	1.9790	0	34.6740	4	27.723	0	1945.010	0	57.5	4	17.3	4	-1E+10	1	-1E+10	1	-1E+10	1	-1E+10	1	-1E+10	1	-1E+10	1
4901784	92	C	01/10/2018	10:47	-133.295	43.548	0	1974.40	0	1.9770	0	34.6740	4	27.723	0	1949.433	0	57.8	4	17.4	4	-1E+10	1	-1E+10	1	-1E+10	1	-1E+10	1	-1E+10	1	-1E+10	1
4901784	92	C	01/10/2018	10:47	-133.295	43.548	0	1979.80	0	1.9710	0	34.6750	4	27.724	0	1954.740	0	58.2	4	17.5	4	-1E+10	1	-1E+10	1	-1E+10	1	-1E+10	1	-1E+10	1	-1E+10	1
4901784	92	C	01/10/2018	10:47	-133.295	43.548	0	1985.30	0	1.9670	0	34.6750	4	27.724	0	1960.145	0	58.5	4	17.6	4	-1E+10	1	-1E+10	1	-1E+10	1	-1E+10	1	-1E+10	1	-1E+10	1
4901784	92	C	01/10/2018	10:47	-133.295	43.548	0	1989.90	0	1.9620	0	34.6760	4	27.726	0	1964.665	0	58.7	4	17.7	4	-1E+10	1	-1E+10	1	-1E+10	1	-1E+10	1	-1E+10	1	-1E+10	1
4901784	92	C	01/10/2018	10:47	-133.295	43.548	0	1995.00	0	1.9590	0	34.6770	4	27.727	0	1969.677	0	59.0	4	17.8	4	-1E+10	1	-1E+10	1	-1E+10	1	-1E+10	1	-1E+10	1	-1E+10	1
4901784	92	C	01/10/2018	10:47	-133.295	43.548	0	2000.50	0	1.9570	0	34.6770	4	27.727	0	1975.082	0	59.3	4	17.9	4	-1E+10	1	-1E+10	1	-1E+10	1	-1E+10	1	-1E+10	1	-1E+10	1
4901784	92	C	01/10/2018	10:47	-133.295	43.548	0	2005.30	0	1.9520	0	34.6780	4	27.728	0	1979.798	0	59.4	4	17.9	4	-1E+10	1	-1E+10	1	-1E+10	1	-1E+10	1	-1E+10	1	-1E+10	1
4901784	92	C	01/10/2018	10:47	-133.295	43.548	0	2010.10	0	1.9500	0	34.6780	4	27.728	0	1984.515	0	59.5	4	17.9	4	-1E+10	1	-1E+10	1	-1E+10	1	-1E+10	1	-1E+10	1	-1E+10	1
4901784	92	C	01/10/2018	10:47	-133.295	43.548	0	2014.80	0	1.9490	0	34.6780	4	27.728	0	1989.133	0	59.6	4	18.0	4	-1E+10	1	-1E+10	1	-1E+10	1	-1E+10	1	-1E+10	1	-1E+10	1
4901784	92	C	01/10/2018	10:47	-133.295	43.548	0	2019.40	0	1.9470	0	34.6780	4	27.729	0	1993.653	0	59.8	4	18.0	4	-1E+10	1	-1E+10	1	-1E+10	1	-1E+10	1	-1E+10	1	-1E+10	1
4901784	92	C	01/10/2018	10:47	-133.295	43.548	0																										
4901784	93	C	01/20/2018	10:49	-133.172	43.665	0	3.10	0	11.1010	0	32.8650	4	25.096	0	3.075	0	260.5	4	95.6	4	-1E+10	1	-1E+10	1	-1E+10	1	-1E+10	1	-1E+10	1	-1E+10	1
4901784	93	C	01/20/2018	10:49	-133.172	43.665	0	4.70	0	11.1010	0	32.8650	4	25.096	0	4.662	0	260.3	4	95.6	4	-1E+10	1	-1E+10	1	-1E+10	1	-1E+10	1	-1E+10	1	-1E+10	1
4901784	93	C	01/20/2018	10:49	-133.172	43.665	0	6.50	0	11.1030	0	32.8650	4	25.096	0	6.448	0	260.4	4	95.6	4	-1E+10	1	-1E+10	1	-1E+10	1	-1E+10	1	-1E+10	1	-1E+10	1
4901784	93	C	01/20/2018	10:49	-133.172	43.665	0	8.20	0	11.1040	0	32.8660	4	25.096	0	8.134	0	260.4	4	95.6	4	-1E+10	1	-1E+10	1	-1E+10	1	-1E+10	1	-1E+10	1	-1E+10	1
4901784	93	C	01/20/2018	10:49	-133.172	43.665	0	10.00	0	11.1020	0	32.8650	4	25.096	0	9.920	0	260.5	4	95.7	4	-1E+10	1	-1E+10	1	-1E+10	1	-1E+10	1	-1E+10	1	-1E+10	1
4901784	93	C	01/20/2018	10:49	-133.172	43.665	0	12.20	0	11.1040	0	32.8650	4	25.096	0	12.102	0	260.4	4	95.6	4	-1E+10	1	-1E+10	1	-1E+10	1	-1E+10	1	-1E+10	1	-1E+10	1
4901784	93	C	01/20/2018	10:49	-133.172	43.665	0	12.70	0	11.1040	0	32.8650	4	25.096	0	12.598	0	260.5	4	95.7	4	-1E+10	1	-1E+10	1	-1E+10	1	-1E+10	1	-1E+10	1	-1E+10	1
4901784	93	C	01/20/2018	10:49	-133.172	43.665	0	14.20	0	11.1030	0	32.8650	4	25.096	0	14.086	0	260.3	4	95.6	4	-1E+10	1	-1E+10	1	-1E+10	1	-1E+10	1	-1E+10	1	-1E+10	1
4901784	93	C	01/20/2018	10:49	-133.172	43.665	0	15.60	0	11.1030	0	32.8650	4	25.096	0	15.475	0	260.2	4	95.5	4	-1E+10	1	-1E+10	1	-1E+10	1	-1E+10	1	-1E+10	1	-1E+10	1
4901784	93	C	01/20/2018	10:49	-133.172	43.665	0	17.10	0	11.1030	0	32.8650	4	25.096	0	16.963	0	260.4	4	95.6	4	-1E+10	1	-1E+10	1	-1E+10	1	-1E+10	1	-1E+10	1	-1E+10	1
4901784	93	C	01/20/2018	10:49	-133.172	43.665	0	18.50	0	11.1030	0	32.8650	4	25.096	0	18.351	0	260.3	4	95.6	4	-1E+10	1	-1E+10	1	-1E+10	1	-1E+10	1	-1E+10	1	-1E+10	1
4901784	93	C	01/20/2018	10:49	-133.172	43.665	0	20.00	0	11.1020	0	32.8650	4	25.096	0	19.839	0	260.3	4	95.6	4	-1E+10	1	-1E+10	1	-1E+10	1	-1E+10	1	-1E+10	1	-1E+10	1
4901784	93	C	01/20/2018	10:49	-133.172	43.665	0	21.40	0	11.1010	0	32.8650	4	25.096	0	21.228	0	260.1	4	95.5	4	-1E+10	1	-1E+10	1	-1E+10	1	-1E+10	1	-1E+10	1	-1E+10	1
4901784	93	C	01/20/2018	10:49	-133.172	43.665	0	23.10	0	11.1030	0	32.8650	4	25.096	0	22.914	0	260.2	4	95.5	4	-1E+10	1	-1E+10	1	-1E+10	1	-1E+10	1	-1E+10	1	-1E+10	1
4901784	93	C	01/20/2018	10:49	-133.172	43.665	0	24.90	0	11.0960	0	32.8650	4	25.097	0	24.699	0	260.2	4	95.5	4	-1E+10	1	-1E+10	1	-1E+10	1	-1E+10	1	-1E+10	1	-1E+10	1
4901784	93	C	01/20/2018	10:49	-133.172	43.665	0	26.60	0	11.0930	0	32.8650	4	25.098	0	26.386	0	260.2	4	95.5	4	-1E+10	1	-1E+10	1	-1E+10	1	-1E+10	1	-1E+10	1	-1E+10	1
4901784	93	C	01/20/2018	10:49	-133.172	43.665	0	28.30	0	11.0930	0	32.8650	4	25.098	0	28.072	0	260.3	4	95.5	4	-1E+10	1	-1E+10	1	-1E+10	1	-1E+10	1	-1E+10	1	-1E+10	1
4901784	93	C	01/20/2018	10:49	-133.172	43.665	0	30.10	0	11.0940	0	32.8640	4	25.097	0	29.857	0	260.0	4	95.5	4	-1E+10	1	-1E+10	1	-1E+10	1	-1E+10	1	-1E+10	1	-1E+10	1
4901784	93	C	01/20/2018	10:49	-133.172	43.665	0	31.80	0	11.0940	0	32.8650	4	25.098	0	31.543	0	260.0	4	95.5	4	-1E+10	1	-1E+10	1	-1E+10	1	-1E+10	1	-1E+10	1	-1E+10	1
4901784	93	C	01/20/2018	10:49	-133.172	43.665	0	33.50	0	11.0930	0	32.8650	4	25.098	0	33.229	0	260.0	4	95.4	4	-1E+10	1	-1E+10	1	-1E+10	1	-1E+10	1	-1E+10	1	-1E+10	1
4901784	93	C	01/20/2018	10:49	-133.172	43.665	0	35.40	0	11.0970	0	32.8640	4	25.097	0	35.114	0	259.9	4	95.4	4	-1E+10	1	-1E+10	1	-1E+10	1	-1E+10	1	-1E+10	1	-1E+10	1
4901784	93	C	01/20/2018	10:49	-133.172	43.665	0	37.20	0	11.0950	0	32.8650	4	25.098	0	36.899	0	260.0	4	95.4	4	-1E+10	1	-1E+10	1	-1E+10	1	-1E+10	1	-1E+10	1	-1E+10	1
4901784	93	C	01/20/2018	10:49	-133.172	43.665	0	39.00	0	11.0950	0	32.8650	4	25.098	0	38.685	0	259.8	4	95.4	4	-1E+10	1	-1E+10	1	-1E+10	1	-1E+10	1	-1E+10	1	-1E+10	1
4901784	93	C	01/20/2018	10:49	-133.172	43.665	0	40.90	0	11.0920	0	32.8650	4	25.098	0	40.569	0	259.8	4	95.4	4	-1E+10	1	-1E+10	1	-1E+10	1	-1E+10	1	-1E+10	1	-1E+10	1
4901784	93	C	01/20/2018	10:49	-133.172	43.665	0	42.90	0	11.0910	0	32.8650	4	25.099	0	42.553	0	259.7	4	95.3	4	-1E+10	1	-1E+10	1	-1E+10	1	-1E+10	1	-1E+10	1	-1E+10	1
4901784	93	C	01/20/2018	10:49	-133.172	43.665	0	45.00	0	11.0890	0	32.8660	4	25.100	0	44.635	0	259.8	4	95.3	4	-1E+10	1	-1E+10	1	-1E+10	1	-1E+10	1	-1E+10	1	-1E+10	1
4901784	93	C	01/20/2018	10:49	-133.172	43.665	0	46.90	0	11.0930	0	32.8650	4	25.098	0	46.520	0	259.6	4	95.3	4	-1E+10	1	-1E+10	1	-1E+10	1	-1E+10	1	-1E+10	1	-1E+10	1
4901784	93	C	01/20/2018	10:49	-133.172	43.665	0	48.90	0	11.0920	0	32.8650	4	25.098	0	48.503	0	259.6	4	95.3	4	-1E+10	1	-1E+10	1	-1E+10	1	-1E+10	1	-1E+10	1	-1E+10	1
4901784	93	C	01/20/2018	10:49	-133.172	43.665	0	50.80	0	11.0940	0	32.8640	4	25.097	0	50.388	0	259.5	4	95.3	4	-1E+10	1	-1E+10	1	-1E+10	1	-1E+10	1	-1E+10	1	-1E+10	1
4901784	93	C	01/20/2018	10:49	-133.172	43.665	0	52.60	0	11.0900	0	32.8650	4	25.099	0	52.173	0	259.6	4	95.3	4	-1E+10	1	-1E+10	1	-1E+10	1	-1E+10	1	-1E+10	1	-1E+10	1
4901784	93	C	01/20/2018	10:49	-133.172	43.665	0	54.40	0	11.0900	0	32.8650	4	25.099	0	53.958	0	259.3	4	95.2	4	-1E+10	1	-1E+10	1	-1E+10	1	-1E+10	1	-1E+10	1	-1E+10	1
4901784	93	C	01/20/2018	10:49	-133.172	43.665	0	56.20	0	11.0890	0	32.8660	4	25.100	0	55.743	0	259.2	4	95.2	4	-1E+10	1	-1E+10	1	-1E+10	1	-1E+10	1	-1E+10	1	-1E+10	1
4901784	93	C	01/20/2018	10:49	-133.172	43.665	0	58.20	0	11.0950	0	32.8650	4	25.098	0	57.727	0	259.2	4	95.2	4	-1E+10	1	-1E+10	1	-1E+10	1	-1E+10	1	-1E+10	1	-1E+10	1
4901784	93	C	01/20/2018	10:49	-133.172	43.665	0	60.20	0	11.0910	0	32.8660	4	25.100	0	59.710	0	258.9	4	95.1	4	-1E+10	1	-1E+10	1	-1E+10	1	-1E+10	1	-1E+10	1	-1E+10	1
4901784	93	C	01/20/2018	10:49	-133.172	43.665	0	62.10	0	11.0970	0	32.8640	4	25.097	0	61.594	0	258.8	4	95.0	4	-1E+10	1	-1E+10	1	-1E+10	1	-1E+10	1	-1E+10	1	-1E+10	1
4901784	93	C	01/20/2018	10:49	-133.172	43.665	0	63.90	0	11.0940	0	32.8640	4	25.098	0	63.379	0	258.7	4	95.0	4	-1E+10	1	-1E+10	1	-1E+10	1	-1E+10	1	-1E+10	1	-1E+10	1
4901784	93	C	01/20/2018	10:49	-133.172	43.665	0	65.70	0	11.0930	0	32.8640	4	25.098	0	65.164	0	258.7	4	95.0	4	-1E+10	1	-1E+10	1	-1E+10	1	-1E+10	1	-1E+10	1	-1E+10	1
4901784	93	C	01/20/2018	10:49	-133.172	43.665	0	67.50	0	11.0930	0	32.8630	4	25.097	0	66.949	0	258.3	4	94.8	4	-1E+10	1	-1E+10	1	-1E+10	1	-1E+10	1	-1E+10	1	-1E+10	1
4901784	93	C	01/20/2018	10:49	-133.172	43.665	0	69.30	0	11.0920	0	32.8630	4	25.097	0	68.734	0	258.1	4	94.8	4	-1E+10	1	-1E+10	1	-1E+10	1	-1E+10	1	-1E+10	1	-1E+10	1
4901784	93	C	01/20/2018	10:49	-133.172	43.665	0	71.00	0	11.0920	0	32.8630	4	25.097	0	70.420	0	257.8	4	94.6	4	-1E+10	1	-1E+10	1	-1E+10	1	-1E+10	1	-1E+10	1	-1E+10	1
4901784	93	C	01/20/2018	10:49	-133.172	43.665	0	72.70	0	11.0950	0	32.8620	4	25.096	0	72.106	0	257.6	4	94.6	4	-1E+10	1	-1E+10	1	-1E+10	1	-1E+10	1	-1E+10	1	-1E+10	1
4901784	93	C	01/20/2018	10:49	-133.172	43.665	0	74.40	0	11.1000	0	32.8600	4	25.094	0	73.792	0	257.4	4	94.5	4	-1E+10	1	-1E+10	1	-1E+10	1	-1E+10	1	-1E+10	1	-1E+10	1
4901784	93	C	01/20/2018	10:49	-133.172	43.665	0	76.20	0	11.0970	0	32.8580	4	25.093	0	75.577	0	256.7	4	94.2	4	-1E+10	1	-1E+10	1	-1E+10	1	-1E+10	1	-1E+10	1	-1E+10	1
4901784	93	C	01/20/2018	10:49	-133.172	43.665	0	76.70	0	11.0960	0	32.8570	4	25.092	0	76.073	0	256.5	4	94.2	4	-1E+10	1	-1E+10	1	-1E+10	1	-1E+10	1	-1E+10	1	-1E+10	1
4901784	93	C	01/20/2018	10:49	-133.172	43.665	0	78.00	0	11.0920	0	32.8530	4	25.090	0	77.362	0	256.0	4	94.0	4	-1E+10	1	-1E+10	1	-1E+10	1	-1E+10	1	-1E+10	1	-1E+10	1
4901784	93	C	01/20/2018	10:49	-133.172	43.665	0	79.30	0	11.0930	0	32.8490	4	25.087	0	78.651	0	255.4	4	93.7	4	-1E+10	1	-1E+10	1	-1E+10	1	-1E+10	1	-1E+10	1	-1E+10	1
4901784	93	C	01/20/2018	10:49	-133.172	43.665	0	80.50	0	11.0920	0	32.8390	4	25.079	0	79.841	0	254.3	4	93.4	4	-1E+10	1	-1E+10	1	-1E+10	1	-1E+10	1	-1E+10	1	-1E+10	1
4901784	93	C	01/20/2018	10:49	-133.172	43.665	0	81.80	0	11.0900	0	32.8260	4	25.069	0	81.130	0	253.1	4	92.9	4	-1E+10	1	-1E+10	1	-1E+10	1	-1E+10	1	-1E+10	1	-1E+10	1
4901784	93	C	01/20/2018	10:49	-133.172	43.665	0	83.10	0	11.0980	0	32.7960	4	25.044	0	82.419	0	251.2	4	92.2	4	-1E+10	1	-1E+10	1	-1E+10	1	-1E+10	1	-1E+10	1	-1E+10	1
4901784	93	C	01/20/2018	10:49	-133.172	43.665	0	84.50	0	10.4710	0	32.8130	4	25.167	0	83.807	0	248.8	4	90.1	4	-1E+10	1	-1E+10	1	-1E+10	1	-1E+10	1	-1E+10	1	-1E+10	1
4901784	93	C	01/20/2018	10:49	-133.172	43.665	0	86.10	0	8.6230	0	33.0270	4	25.633	0	85.394	0	258.9	4	90.2	4	-1E+10	1	-1E+10	1	-1E+10	1	-1E+10	1	-1E+10	1	-1E+10	1
4901784	93	C	01/20/2018	10:49	-133.172	43.665	0	87.70	0	8.4580	0	33.0360	4	25.665	0	86.980	0	260.0	4	90.3	4	-1E+10	1	-1E+10	1	-1E+10	1	-1E+10	1	-1E+10	1	-1E+10	1
4901784	93	C	01/20/2018	10:49	-133.172	43.665	0	89.30	0	8.4160	0	33.0370	4	25.672	0	88.567	0	259.9	4	90.1	4	-1E+10	1	-1E+10	1	-1E+10	1	-1E+10	1	-1E+10	1	-1E+10	1
4901784	93	C	01/20/2018	10:49	-133.172	43.665	0	91.00	0	8.3860	0	33.0340	4	25.675	0	90.253	0	259.9	4	90.1	4	-1E+10	1	-1E+10	1	-1E+10	1	-1E+10	1	-1E+10	1	-1E+10	1
4901784	93	C	01/20/2018	10:49	-133.172	43.665	0	92.70	0	8.2840	0	33.0360	4	25.691	0	91.938	0	259.8	4	89.8	4	-1E+10	1	-1E+10	1	-1E+10	1	-1E+10	1	-1E+10	1	-1E+10	1
4901784	93	C	01/20/2018	10:49	-133.172	43.665	0	94.40	0	8.2140	0	33.0380	4	25.703	0	93.624	0	259.9	4	89.7	4	-1E+10	1	-1E+10	1	-1E+10	1	-1E+10	1	-1E+10	1	-1E+10	1
4901784	93	C	01/20/2018	10:49	-133.172	43.665	0	96.10	0	8.1720	0	33.0390	4	25.710	0	95.309	0	260.2	4	89.7	4	-1E+10	1	-1E+10	1	-1E+10	1	-1E+10	1	-1E+10	1	-1E+10	1
4901784	93	C	01/20/2018	10:49	-133.172	43.665	0	97.80	0	8.1410	0	33.0410	4	25.717	0	96.995	0	260.1	4	89.6	4	-1E+10	1	-1E+10	1	-1E+10	1	-1E+10	1	-1E+10	1	-1E+10	1
4901784	93	C	01/20/2018	10:49	-133.172	43.665	0	99.50	0	8.0970	0	33.0380	4	25.721	0	98.681	0	260.3	4	89.6	4	-1E+10	1	-1E+10	1	-1E+10	1	-1E+10	1	-1E+10	1	-1E+10	1
4901784	93	C	01/20/2018	10:49	-133.172	43.665	0	102.90	0	8.0370	0	33.0370	4	25.729	0	102.052	0	259.9	4	89.4	4	-1E+10	1	-1E+10	1	-1E+10	1	-1E+10	1	-1E+10	1	-1E+10	1
4901784	93	C	01/20/2018	10:49	-133.172	43.665	0	104.60	0	8.0050	0	33.0420	4	25.737	0	103.737	0	259.8	4	89.3	4	-1E+10	1	-1E+10	1	-1E+10	1	-1E+10	1	-1E+10	1	-1E+10	1
4901784	93	C	01/20/2018	10:49	-133.172	43.665	0	107.10	0	7.9950	0	33.0440	4	25.740	0	106.216	0	259.4	4	89.1	4	-1E+10	1	-1E+10	1	-1E+10	1	-1E+10	1	-1E+10	1	-1E+10	1
4901784	93	C	01/20/2018	10:49	-133.172	43.665	0	109.70	0	7.9760	0	33.0460	4	25.745	0	108.794	0	258.5	4	88.8	4	-1E+10	1	-1E+10	1	-1E+10	1	-1E+10	1	-1E+10	1	-1E+10	1
4901784	93	C	01/20/2018	10:49	-133.172	43.665	0	112.20	0	7.9460	0	33.0540	4	25.755	0	111.273	0	257.7	4	88.5	4	-1E+10	1	-1E+10	1	-1E+10	1	-1E+10	1	-1E+10	1	-1E+10	1
4901784	93	C	01/20/2018	10:49	-133.172	43.665	0	114.70	0	7.9390	0	33.0660	4	25.766	0	113.751	0	255.9	4	87.8	4	-1E+10	1	-1E+10	1	-1E+10	1	-1E+10	1	-1E+10	1	-1E+10	1
4901784	93	C	01/20/2018	10:49	-133.172	43.665	0	117.20	0	7.9720	0	33.0880	4	25.778	0	116.230	0	253.7	4	87.2	4	-1E+10	1	-1E+10	1	-1E+10	1	-1E+10	1	-1E+10	1	-1E+10	1
4901784	93	C	01/20/2018	10:49	-133.172	43.665	0	119.80	0	8.0250	0	33.1120	4	25.790	0	118.808	0	250.2	4	86.1	4	-1E+10	1	-1E+10	1	-1E+10	1	-1E+10	1	-1E+10	1	-1E+10	1
4901784	93	C	01/20/2018	10:49	-133.172	43.665	0	122.30	0	8.0520	0	33.1350	4	25.804	0	121.286	0	245.7	4	84.6	4	-1E+10	1	-1E+10	1	-1E+10	1	-1E+10	1	-1E+10	1	-1E+10	1
4901784	93	C	01/20/2018	10:49	-133.172	43.665	0	125.40	0	8.1120	0	33.1840	4	25.833	0	124.360	0	239.1	4	82.5	4	-1E+10	1	-1E+10	1	-1E+10	1	-1E+10	1	-1E+10	1	-1E+10	1
4901784	93	C	01/20/2018	10:49	-133.172	43.665	0	127.80	0	8.1980	0	33.2760	4	25.893	0	126.739	0	232.0	4	80.2	4	-1E+10	1	-1E+10	1	-1E+10	1	-1E+10	1	-1E+10	1	-1E+10	1
4901784	93	C	01/20/2018	10:49	-133.172	43.665	0	129.90	0	8.2390	0	33.3240	4	25.925	0	128.821	0	226.7	4	78.5	4	-1E+10	1	-1E+10	1	-1E+10	1	-1E+10	1	-1E+10	1	-1E+10	1
4901784	93	C	01/20/2018	10:49	-133.172	43.665	0	132.10	0	8.2600	0	33.3740	4	25.961	0	131.002	0	220.8	4	76.5	4	-1E+10	1	-1E+10	1	-1E+10	1	-1E+10	1	-1E+10	1	-1E+10	1
4901784	93	C	01/20/2018	10:49	-133.172	43.665	0	135.20	0	8.3360	0	33.4680	4	26.023	0	134.075	0	212.8	4	73.9	4	-1E+10	1	-1E+10	1	-1E+10	1	-1E+10	1	-1E+10	1	-1E+10	1
4901784	93	C	01/20/2018	10:49	-133.172	43.665	0	137.60	0	8.4000	0	33.5610	4	26.087	0	136.454	0	207.1	4	72.1	4	-1E+10	1	-1E+10	1	-1E+10	1	-1E+10	1	-1E+10	1	-1E+10	1
4901784	93	C	01/20/2018	10:49	-133.172	43.665	0	140.10	0	8.4300	0	33.6150	4	26.124	0	138.933	0	201.4	4	70.2	4	-1E+10	1	-1E+10	1	-1E+10	1	-1E+10	1	-1E+10	1	-1E+10	1
4901784	93	C	01/20/2018	10:49	-133.172	43.665	0	142.80	0	8.5000	0	33.7300	4	26.204	0	141.609	0	196.2	4	68.5	4	-1E+10	1	-1E+10	1	-1E+10	1	-1E+10	1	-1E+10	1	-1E+10	1
4901784	93	C	01/20/2018	10:49	-133.172	43.665	0	145.40	0	8.5250	0	33.7820	4	26.241	0	144.187	0	193.0	4	67.5	4	-1E+10	1	-1E+10	1	-1E+10	1	-1E+10	1	-1E+10	1	-1E+10	1
4901784	93	C	01/20/2018	10:49	-133.172	43.665	0	147.90	0	8.5470	0	33.8330	4	26.278	0	146.665	0	190.0	4	66.5	4	-1E+10	1	-1E+10	1	-1E+10	1	-1E+10	1	-1E+10	1	-1E+10	1
4901784	93	C	01/20/2018	10:49	-133.172	43.665	0	149.80	0	8.5550	0	33.8730	4	26.308	0	148.548	0	188.5	4	66.0	4	-1E+10	1	-1E+10	1	-1E+10	1	-1E+10	1	-1E+10	1	-1E+10	1
4901784	93	C	01/20/2018	10:49	-133.172	43.665	0	152.50	0	8.5580	0	33.8930	4	26.323	0	151.225	0	186.6	4	65.3	4	-1E+10	1	-1E+10	1	-1E+10	1	-1E+10	1	-1E+10	1	-1E+10	1
4901784	93	C	01/20/2018	10:49	-133.172	43.665	0	155.10	0	8.5490	0	33.9230	4	26.348	0	153.802	0	184.6	4	64.6	4	-1E+10	1	-1E+10	1	-1E+10	1	-1E+10	1	-1E+10	1	-1E+10	1
4901784	93	C	01/20/2018	10:49	-133.172	43.665	0	156.90	0	8.5320	0	33.9510	4	26.373	0	155.586	0	183.5	4	64.2	4	-1E+10	1	-1E+10	1	-1E+10	1	-1E+10	1	-1E+10	1	-1E+10	1
4901784	93	C	01/20/2018	10:49	-133.172	43.665	0	159.70	0	8.4970	0	33.9740	4	26.396	0	158.362	0	182.6	4	63.9	4	-1E+10	1	-1E+10	1	-1E+10	1	-1E+10	1	-1E+10	1	-1E+10	1
4901784	93	C	01/20/2018	10:49	-133.172	43.665	0	162.40	0	8.4660	0	33.9930	4	26.416	0	161.038	0	182.1	4	63.7	4	-1E+10	1	-1E+10	1	-1E+10	1	-1E+10	1	-1E+10	1	-1E+10	1
4901784	93	C	01/20/2018	10:49	-133.172	43.665	0	165.10	0	8.4480	0	33.9980	4	26.422	0	163.715	0	181.3	4	63.4	4	-1E+10	1	-1E+10	1	-1E+10	1	-1E+10	1	-1E+10	1	-1E+10	1
4901784	93	C	01/20/2018	10:49	-133.172	43.665	0	167.90	0	8.4180	0	34.0060	4	26.433	0	166.490	0	180.6	4	63.1	4	-1E+10	1	-1E+10	1	-1E+10	1	-1E+10	1	-1E+10	1	-1E+10	1
4901784	93	C	01/20/2018	10:49	-133.172	43.665	0	169.80	0	8.4070	0	34.0070	4	26.436	0	168.373	0	180.2	4	62.9	4	-1E+10	1	-1E+10	1	-1E+10	1	-1E+10	1	-1E+10	1	-1E+10	1
4901784	93	C	01/20/2018	10:49	-133.172	43.665	0	172.70	0	8.3760	0	34.0110	4	26.444	0	171.248	0	179.3	4	62.6	4	-1E+10	1	-1E+10	1	-1E+10	1	-1E+10	1	-1E+10	1	-1E+10	1
4901784	93	C	01/20/2018	10:49	-133.172	43.665	0	175.50	0	8.3390	0	34.0140	4	26.452	0	174.023	0	178.3	4	62.2	4	-1E+10	1	-1E+10	1	-1E+10	1	-1E+10	1	-1E+10	1	-1E+10	1
4901784	93	C	01/20/2018	10:49	-133.172	43.665	0	177.50	0	8.3140	0	34.0150	4	26.456	0	176.005	0	177.7	4	61.9	4	-1E+10	1	-1E+10	1	-1E+10	1	-1E+10	1	-1E+10	1	-1E+10	1
4901784	93	C	01/20/2018	10:49	-133.172	43.665	0	179.40	0	8.2550	0	34.0200	4	26.469	0	177.888	0	177.1	4	61.6	4	-1E+10	1	-1E+10	1	-1E+10	1	-1E+10	1	-1E+10	1	-1E+10	1
4901784	93	C	01/20/2018	10:49	-133.172	43.665	0	182.20	0	8.2340	0	34.0210	4	26.473	0	180.664	0	176.2	4	61.3	4	-1E+10	1	-1E+10	1	-1E+10	1	-1E+10	1	-1E+10	1	-1E+10	1
4901784	93	C	01/20/2018	10:49	-133.172	43.665	0	185.00	0	8.2130	0	34.0210	4	26.476	0	183.439	0	175.2	4	60.9	4	-1E+10	1	-1E+10	1	-1E+10	1	-1E+10	1	-1E+10	1	-1E+10	1
4901784	93	C	01/20/2018	10:49	-133.172	43.665	0	187.00	0	8.1670	0	34.0230	4	26.485	0	185.421	0	174.4	4	60.6	4	-1E+10	1	-1E+10	1	-1E+10	1	-1E+10	1	-1E+10	1	-1E+10	1
4901784	93	C	01/20/2018	10:49	-133.172	43.665	0	189.50	0	8.1450	0	34.0220	4	26.487	0	187.899	0	173.5	4	60.2	4	-1E+10	1	-1E+10	1	-1E+10	1	-1E+10	1	-1E+10	1	-1E+10	1
4901784	93	C	01/20/2018	10:49	-133.172	43.665	0	192.30	0	8.1110	0	34.0220	4	26.492	0	190.674	0	172.3	4	59.8	4	-1E+10	1	-1E+10	1	-1E+10	1	-1E+10	1	-1E+10	1	-1E+10	1
4901784	93	C	01/20/2018	10:49	-133.172	43.665	0	194.80	0	8.0880	0	34.0200	4	26.494	0	193.151	0	170.9	4	59.3	4	-1E+10	1	-1E+10	1	-1E+10	1	-1E+10	1	-1E+10	1	-1E+10	1
4901784	93	C	01/20/2018	10:49	-133.172	43.665	0	197.30	0	8.0240	0	34.0220	4	26.505	0	195.629	0	169.4	4	58.7	4	-1E+10	1	-1E+10	1	-1E+10	1	-1E+10	1	-1E+10	1	-1E+10	1
4901784	93	C	01/20/2018	10:49	-133.172	43.665	0	199.80	0	7.9720	0	34.0230	4	26.514	0	198.107	0	168.2	4	58.2	4	-1E+10	1	-1E+10	1	-1E+10	1	-1E+10	1	-1E+10	1	-1E+10	1
4901784	93	C	01/20/2018	10:49	-133.172	43.665	0	202.30	0	7.9190	0	34.0240	4	26.522	0	200.584	0	167.2	4	57.7	4	-1E+10	1	-1E+10	1	-1E+10	1	-1E+10	1	-1E+10	1	-1E+10	1
4901784	93	C	01/20/2018	10:49	-133.172	43.665	0	204.80	0	7.8730	0	34.0250	4	26.530	0	203.062	0	166.3	4	57.4	4	-1E+10	1	-1E+10	1	-1E+10	1	-1E+10	1	-1E+10	1	-1E+10	1
4901784	93	C	01/20/2018	10:49	-133.172	43.665	0	207.20	0	7.8440	0	34.0250	4	26.534	0	205.440	0	165.7	4	57.1	4	-1E+10	1	-1E+10	1	-1E+10	1	-1E+10	1	-1E+10	1	-1E+10	1
4901784	93	C	01/20/2018	10:49	-133.172	43.665	0	209.70	0	7.8350	0	34.0240	4	26.535	0	207.918	0	165.1	4	56.9	4	-1E+10	1	-1E+10	1	-1E+10	1	-1E+10	1	-1E+10	1	-1E+10	1
4901784	93	C	01/20/2018	10:49	-133.172	43.665	0	212.20	0	7.8150	0	34.0250	4	26.539	0	210.395	0	164.2	4	56.6	4	-1E+10	1	-1E+10	1	-1E+10	1	-1E+10	1	-1E+10	1	-1E+10	1
4901784	93	C	01/20/2018	10:49	-133.172	43.665	0	214.70	0	7.8000	0	34.0240	4	26.540	0	212.873	0	163.0	4	56.2	4	-1E+10	1	-1E+10	1	-1E+10	1	-1E+10	1	-1E+10	1	-1E+10	1
4901784	93	C	01/20/2018	10:49	-133.172	43.665	0	217.20	0	7.7660	0	34.0230	4	26.544	0	215.350	0	161.9	4	55.7	4	-1E+10	1	-1E+10	1	-1E+10	1	-1E+10	1	-1E+10	1	-1E+10	1
4901784	93	C	01/20/2018	10:49	-133.172	43.665	0	219.70	0	7.7250	0	34.0230	4	26.550	0	217.828	0	160.7	4	55.3	4	-1E+10	1	-1E+10	1	-1E+10	1	-1E+10	1	-1E+10	1	-1E+10	1
4901784	93	C	01/20/2018	10:49	-133.172	43.665	0	222.30	0	7.6860	0	34.0250	4	26.557	0	220.404	0	159.6	4	54.9	4	-1E+10	1	-1E+10	1	-1E+10	1	-1E+10	1	-1E+10	1	-1E+10	1
4901784	93	C	01/20/2018	10:49	-133.172	43.665	0	224.90	0	7.6400	0	34.0250	4	26.564	0	222.980	0	158.4	4	54.4	4	-1E+10	1	-1E+10	1	-1E+10	1	-1E+10	1	-1E+10	1	-1E+10	1
4901784	93	C	01/20/2018	10:49	-133.172	43.665	0	227.50	0	7.6240	0	34.0250	4	26.566	0	225.557	0	157.5	4	54.0	4	-1E+10	1	-1E+10	1	-1E+10	1	-1E+10	1	-1E+10	1	-1E+10	1
4901784	93	C	01/20/2018	10:49	-133.172	43.665	0	230.00	0	7.5970	0	34.0220	4	26.568	0	228.034	0	155.9	4	53.5	4	-1E+10	1	-1E+10	1	-1E+10	1	-1E+10	1	-1E+10	1	-1E+10	1
4901784	93	C	01/20/2018	10:49	-133.172	43.665	0	232.50	0	7.5160	0	34.0270	4	26.584	0	230.511	0	154.8	4	53.0	4	-1E+10	1	-1E+10	1	-1E+10	1	-1E+10	1	-1E+10	1	-1E+10	1
4901784	93	C	01/20/2018	10:49	-133.172	43.665	0	235.00	0	7.4940	0	34.0260	4	26.586	0	232.989	0	153.9	4	52.7	4	-1E+10	1	-1E+10	1	-1E+10	1	-1E+10	1	-1E+10	1	-1E+10	1
4901784	93	C	01/20/2018	10:49	-133.172	43.665	0	237.50	0	7.4740	0	34.0250	4	26.588	0	235.466	0	152.9	4	52.3	4	-1E+10	1	-1E+10	1	-1E+10	1	-1E+10	1	-1E+10	1	-1E+10	1
4901784	93	C	01/20/2018	10:49	-133.172	43.665	0	240.00	0	7.4430	0	34.0260	4	26.593	0	237.943	0	151.7	4	51.8	4	-1E+10	1	-1E+10	1	-1E+10	1	-1E+10	1	-1E+10	1	-1E+10	1
4901784	93	C	01/20/2018	10:49	-133.172	43.665	0	242.60	0	7.4080	0	34.0250	4	26.597	0	240.519	0	150.4	4	51.4	4	-1E+10	1	-1E+10	1	-1E+10	1	-1E+10	1	-1E+10	1	-1E+10	1
4901784	93	C	01/20/2018	10:49	-133.172	43.665	0	245.20	0	7.3570	0	34.0250	4	26.605	0	243.095	0	149.1	4	50.8	4	-1E+10	1	-1E+10	1	-1E+10	1	-1E+10	1	-1E+10	1	-1E+10	1
4901784	93	C	01/20/2018	10:49	-133.172	43.665	0	247.80	0	7.3320	0	34.0270	4	26.610	0	245.671	0	147.6	4	50.3	4	-1E+10	1	-1E+10	1	-1E+10	1	-1E+10	1	-1E+10	1	-1E+10	1
4901784	93	C	01/20/2018	10:49	-133.172	43.665	0	250.40	0	7.2630	0	34.0250	4	26.618	0	248.248	0	146.1	4	49.7	4	-1E+10	1	-1E+10	1	-1E+10	1	-1E+10	1	-1E+10	1	-1E+10	1
4901784	93	C	01/20/2018	10:49	-133.172	43.665	0	252.10	0	7.2280	0	34.0250	4	26.623	0	249.932	0	145.4	4	49.4	4	-1E+10	1	-1E+10	1	-1E+10	1	-1E+10	1	-1E+10	1	-1E+10	1
4901784	93	C	01/20/2018	10:49	-133.172	43.665	0	254.80	0	7.1900	0	34.0290	4	26.631	0	252.607	0	144.1	4	49.0	4	-1E+10	1	-1E+10	1	-1E+10	1	-1E+10	1	-1E+10	1	-1E+10	1
4901784	93	C	01/20/2018	10:49	-133.172	43.665	0	257.50	0	7.1750	0	34.0320	4	26.636	0	255.282	0	143.0	4	48.6	4	-1E+10	1	-1E+10	1	-1E+10	1	-1E+10	1	-1E+10	1	-1E+10	1
4901784	93	C	01/20/2018	10:49	-133.172	43.665	0	260.10	0	7.1370	0	34.0310	4	26.640	0	257.858	0	142.1	4	48.2	4	-1E+10	1	-1E+10	1	-1E+10	1	-1E+10	1	-1E+10	1	-1E+10	1
4901784	93	C	01/20/2018	10:49	-133.172	43.665	0	262.80	0	7.1230	0	34.0310	4	26.642	0	260.533	0	141.2	4	47.9	4	-1E+10	1	-1E+10	1	-1E+10	1	-1E+10	1	-1E+10	1	-1E+10	1
4901784	93	C	01/20/2018	10:49	-133.172	43.665	0	264.60	0	7.0740	0	34.0300	4	26.648	0	262.316	0	140.6	4	47.7	4	-1E+10	1	-1E+10	1	-1E+10	1	-1E+10	1	-1E+10	1	-1E+10	1
4901784	93	C	01/20/2018	10:49	-133.172	43.665	0	267.30	0	7.0500	0	34.0290	4	26.651	0	264.991	0	139.8	4	47.4	4	-1E+10	1	-1E+10	1	-1E+10	1	-1E+10	1	-1E+10	1	-1E+10	1
4901784	93	C	01/20/2018	10:49	-133.172	43.665	0	269.90	0	7.0060	0	34.0270	4	26.655	0	267.567	0	139.1	4	47.1	4	-1E+10	1	-1E+10	1	-1E+10	1	-1E+10	1	-1E+10	1	-1E+10	1
4901784	93	C	01/20/2018	10:49	-133.172	43.665	0	272.60	0	6.9780	0	34.0290	4	26.661	0	270.242	0	138.4	4	46.8	4	-1E+10	1	-1E+10	1	-1E+10	1	-1E+10	1	-1E+10	1	-1E+10	1
4901784	93	C	01/20/2018	10:49	-133.172	43.665	0	275.20	0	6.9710	0	34.0300	4	26.662	0	272.818	0	137.9	4	46.6	4	-1E+10	1	-1E+10	1	-1E+10	1	-1E+10	1	-1E+10	1	-1E+10	1
4901784	93	C	01/20/2018	10:49	-133.172	43.665	0	277.00	0	6.9700	0	34.0300	4	26.662	0	274.601	0	137.4	4	46.5	4	-1E+10	1	-1E+10	1	-1E+10	1	-1E+10	1	-1E+10	1	-1E+10	1
4901784	93	C	01/20/2018	10:49	-133.172	43.665	0	279.60	0	6.9610	0	34.0280	4	26.662	0	277.177	0	136.4	4	46.1	4	-1E+10	1	-1E+10	1	-1E+10	1	-1E+10	1	-1E+10	1	-1E+10	1
4901784	93	C	01/20/2018	10:49	-133.172	43.665	0	282.20	0	6.9240	0	34.0270	4	26.666	0	279.753	0	135.3	4	45.7	4	-1E+10	1	-1E+10	1	-1E+10	1	-1E+10	1	-1E+10	1	-1E+10	1
4901784	93	C	01/20/2018	10:49	-133.172	43.665	0	284.70	0	6.8800	0	34.0270	4	26.672	0	282.229	0	134.5	4	45.4	4	-1E+10	1	-1E+10	1	-1E+10	1	-1E+10	1	-1E+10	1	-1E+10	1
4901784	93	C	01/20/2018	10:49	-133.172	43.665	0	287.30	0	6.8470	0	34.0260	4	26.676	0	284.805	0	133.4	4	45.0	4	-1E+10	1	-1E+10	1	-1E+10	1	-1E+10	1	-1E+10	1	-1E+10	1
4901784	93	C	01/20/2018	10:49	-133.172	43.665	0	289.90	0	6.8150	0	34.0260	4	26.680	0	287.381	0	132.4	4	44.6	4	-1E+10	1	-1E+10	1	-1E+10	1	-1E+10	1	-1E+10	1	-1E+10	1
4901784	93	C	01/20/2018	10:49	-133.172	43.665	0	292.60	0	6.7800	0	34.0230	4	26.683	0	290.055	0	131.1	4	44.1	4	-1E+10	1	-1E+10	1	-1E+10	1	-1E+10	1	-1E+10	1	-1E+10	1
4901784	93	C	01/20/2018	10:49	-133.172	43.665	0	295.30	0	6.7200	0	34.0240	4	26.692	0	292.730	0	129.9	4	43.7	4	-1E+10	1	-1E+10	1	-1E+10	1	-1E+10	1	-1E+10	1	-1E+10	1
4901784	93	C	01/20/2018	10:49	-133.172	43.665	0	297.90	0	6.6830	0	34.0200	4	26.693	0	295.305	0	128.8	4	43.3	4	-1E+10	1	-1E+10	1	-1E+10	1	-1E+10	1	-1E+10	1	-1E+10	1
4901784	93	C	01/20/2018	10:49	-133.172	43.665	0	299.70	0	6.6240	0	34.0180	4	26.700	0	297.088	0	128.0	4	42.9	4	-1E+10	1	-1E+10	1	-1E+10	1	-1E+10	1	-1E+10	1	-1E+10	1
4901784	93	C	01/20/2018	10:49	-133.172	43.665	0	302.30	0	6.5840	0	34.0170	4	26.704	0	299.664	0	127.0	4	42.5	4	-1E+10	1	-1E+10	1	-1E+10	1	-1E+10	1	-1E+10	1	-1E+10	1
4901784	93	C	01/20/2018	10:49	-133.172	43.665	0	305.00	0	6.5340	0	34.0130	4	26.708	0	302.338	0	125.9	4	42.1	4	-1E+10	1	-1E+10	1	-1E+10	1	-1E+10	1	-1E+10	1	-1E+10	1
4901784	93	C	01/20/2018	10:49	-133.172	43.665	0	307.70	0	6.4740	0	34.0080	4	26.712	0	305.013	0	124.6	4	41.7	4	-1E+10	1	-1E+10	1	-1E+10	1	-1E+10	1	-1E+10	1	-1E+10	1
4901784	93	C	01/20/2018	10:49	-133.172	43.665	0	310.30	0	6.4350	0	34.0040	4	26.714	0	307.588	0	122.9	4	41.1	4	-1E+10	1	-1E+10	1	-1E+10	1	-1E+10	1	-1E+10	1	-1E+10	1
4901784	93	C	01/20/2018	10:49	-133.172	43.665	0	312.10	0	6.3610	0	34.0030	4	26.722	0	309.371	0	121.9	4	40.6	4	-1E+10	1	-1E+10	1	-1E+10	1	-1E+10	1	-1E+10	1	-1E+10	1
4901784	93	C	01/20/2018	10:49	-133.172	43.665	0	314.80	0	6.3170	0	33.9990	4	26.725	0	312.045	0	120.1	4	40.0	4	-1E+10	1	-1E+10	1	-1E+10	1	-1E+10	1	-1E+10	1	-1E+10	1
4901784	93	C	01/20/2018	10:49	-133.172	43.665	0	317.40	0	6.2270	0	33.9990	4	26.737	0	314.621	0	118.2	4	39.3	4	-1E+10	1	-1E+10	1	-1E+10	1	-1E+10	1	-1E+10	1	-1E+10	1
4901784	93	C	01/20/2018	10:49	-133.172	43.665	0	320.00	0	6.1640	0	33.9970	4	26.743	0	317.196	0	116.6	4	38.7	4	-1E+10	1	-1E+10	1	-1E+10	1	-1E+10	1	-1E+10	1	-1E+10	1
4901784	93	C	01/20/2018	10:49	-133.172	43.665	0	322.60	0	6.1150	0	33.9970	4	26.749	0	319.771	0	114.9	4	38.1	4	-1E+10	1	-1E+10	1	-1E+10	1	-1E+10	1	-1E+10	1	-1E+10	1
4901784	93	C	01/20/2018	10:49	-133.172	43.665	0	325.30	0	6.0500	0	33.9960	4	26.757	0	322.445	0	113.3	4	37.5	4	-1E+10	1	-1E+10	1	-1E+10	1	-1E+10	1	-1E+10	1	-1E+10	1
4901784	93	C	01/20/2018	10:49	-133.172	43.665	0	327.90	0	6.0000	0	33.9950	4	26.762	0	325.020	0	112.1	4	37.1	4	-1E+10	1	-1E+10	1	-1E+10	1	-1E+10	1	-1E+10	1	-1E+10	1
4901784	93	C	01/20/2018	10:49	-133.172	43.665	0	329.70	0	5.9720	0	33.9960	4	26.766	0	326.803	0	111.1	4	36.7	4	-1E+10	1	-1E+10	1	-1E+10	1	-1E+10	1	-1E+10	1	-1E+10	1
4901784	93	C	01/20/2018	10:49	-133.172	43.665	0	332.40	0	5.9350	0	33.9950	4	26.770	0	329.477	0	109.7	4	36.2	4	-1E+10	1	-1E+10	1	-1E+10	1	-1E+10	1	-1E+10	1	-1E+10	1
4901784	93	C	01/20/2018	10:49	-133.172	43.665	0	335.00	0	5.8730	0	33.9960	4	26.779	0	332.052	0	108.5	4	35.7	4	-1E+10	1	-1E+10	1	-1E+10	1	-1E+10	1	-1E+10	1	-1E+10	1
4901784	93	C	01/20/2018	10:49	-133.172	43.665	0	337.70	0	5.8440	0	33.9960	4	26.782	0	334.727	0	107.6	4	35.5	4	-1E+10	1	-1E+10	1	-1E+10	1	-1E+10	1	-1E+10	1	-1E+10	1
4901784	93	C	01/20/2018	10:49	-133.172	43.665	0	340.40	0	5.8320	0	33.9940	4	26.782	0	337.401	0	106.7	4	35.1	4	-1E+10	1	-1E+10	1	-1E+10	1	-1E+10	1	-1E+10	1	-1E+10	1
4901784	93	C	01/20/2018	10:49	-133.172	43.665	0	342.30	0	5.8260	0	33.9920	4	26.782	0	339.282	0	106.0	4	34.9	4	-1E+10	1	-1E+10	1	-1E+10	1	-1E+10	1	-1E+10	1	-1E+10	1
4901784	93	C	01/20/2018	10:49	-133.172	43.665	0	345.00	0	5.7790	0	33.9930	4	26.788	0	341.956	0	104.7	4	34.4	4	-1E+10	1	-1E+10	1	-1E+10	1	-1E+10	1	-1E+10	1	-1E+10	1
4901784	93	C	01/20/2018	10:49	-133.172	43.665	0	347.70	0	5.7340	0	33.9940	4	26.794	0	344.630	0	103.6	4	34.0	4	-1E+10	1	-1E+10	1	-1E+10	1	-1E+10	1	-1E+10	1	-1E+10	1
4901784	93	C	01/20/2018	10:49	-133.172	43.665	0	349.60	0	5.7060	0	33.9940	4	26.798	0	346.512	0	103.2	4	33.9	4	-1E+10	1	-1E+10	1	-1E+10	1	-1E+10	1	-1E+10	1	-1E+10	1
4901784	93	C	01/20/2018	10:49	-133.172	43.665	0	352.30	0	5.6810	0	33.9960	4	26.803	0	349.186	0	102.8	4	33.7	4	-1E+10	1	-1E+10	1	-1E+10	1	-1E+10	1	-1E+10	1	-1E+10	1
4901784	93	C	01/20/2018	10:49	-133.172	43.665	0	355.00	0	5.6780	0	33.9950	4	26.802	0	351.860	0	102.2	4	33.5	4	-1E+10	1	-1E+10	1	-1E+10	1	-1E+10	1	-1E+10	1	-1E+10	1
4901784	93	C	01/20/2018	10:49	-133.172	43.665	0	357.80	0	5.6420	0	33.9970	4	26.808	0	354.632	0	101.3	4	33.2	4	-1E+10	1	-1E+10	1	-1E+10	1	-1E+10	1	-1E+10	1	-1E+10	1
4901784	93	C	01/20/2018	10:49	-133.172	43.665	0	360.60	0	5.6130	0	33.9980	4	26.812	0	357.405	0	100.4	4	32.9	4	-1E+10	1	-1E+10	1	-1E+10	1	-1E+10	1	-1E+10	1	-1E+10	1
4901784	93	C	01/20/2018	10:49	-133.172	43.665	0	362.40	0	5.5960	0	33.9980	4	26.815	0	359.188	0	99.6	4	32.6	4	-1E+10	1	-1E+10	1	-1E+10	1	-1E+10	1	-1E+10	1	-1E+10	1
4901784	93	C	01/20/2018	10:49	-133.172	43.665	0	365.20	0	5.5740	0	33.9960	4	26.816	0	361.960	0	98.1	4	32.1	4	-1E+10	1	-1E+10	1	-1E+10	1	-1E+10	1	-1E+10	1	-1E+10	1
4901784	93	C	01/20/2018	10:49	-133.172	43.665	0	368.00	0	5.5130	0	33.9980	4	26.825	0	364.733	0	96.7	4	31.6	4	-1E+10	1	-1E+10	1	-1E+10	1	-1E+10	1	-1E+10	1	-1E+10	1
4901784	93	C	01/20/2018	10:49	-133.172	43.665	0	369.80	0	5.5020	0	33.9970	4	26.825	0	366.515	0	95.9	4	31.3	4	-1E+10	1	-1E+10	1	-1E+10	1	-1E+10	1	-1E+10	1	-1E+10	1
4901784	93	C	01/20/2018	10:49	-133.172	43.665	0	372.50	0	5.4430	0	34.0000	4	26.834	0	369.189	0	94.7	4	30.9	4	-1E+10	1	-1E+10	1	-1E+10	1	-1E+10	1	-1E+10	1	-1E+10	1
4901784	93	C	01/20/2018	10:49	-133.172	43.665	0	375.20	0	5.4220	0	34.0000	4	26.837	0	371.863	0	93.7	4	30.6	4	-1E+10	1	-1E+10	1	-1E+10	1	-1E+10	1	-1E+10	1	-1E+10	1
4901784	93	C	01/20/2018	10:49	-133.172	43.665	0	377.00	0	5.4120	0	34.0000	4	26.838	0	373.645	0	92.7	4	30.2	4	-1E+10	1	-1E+10	1	-1E+10	1	-1E+10	1	-1E+10	1	-1E+10	1
4901784	93	C	01/20/2018	10:49	-133.172	43.665	0	379.80	0	5.3890	0	34.0000	4	26.841	0	376.418	0	90.7	4	29.6	4	-1E+10	1	-1E+10	1	-1E+10	1	-1E+10	1	-1E+10	1	-1E+10	1
4901784	93	C	01/20/2018	10:49	-133.172	43.665	0	382.60	0	5.3620	0	34.0010	4	26.845	0	379.190	0	88.2	4	28.7	4	-1E+10	1	-1E+10	1	-1E+10	1	-1E+10	1	-1E+10	1	-1E+10	1
4901784	93	C	01/20/2018	10:49	-133.172	43.665	0	384.50	0	5.3020	0	34.0030	4	26.854	0	381.071	0	86.6	4	28.2	4	-1E+10	1	-1E+10	1	-1E+10	1	-1E+10	1	-1E+10	1	-1E+10	1
4901784	93	C	01/20/2018	10:49	-133.172	43.665	0	387.30	0	5.2540	0	34.0050	4	26.861	0	383.844	0	84.7	4	27.5	4	-1E+10	1	-1E+10	1	-1E+10	1	-1E+10	1	-1E+10	1	-1E+10	1
4901784	93	C	01/20/2018	10:49	-133.172	43.665	0	390.70	0	5.2410	0	34.0050	4	26.862	0	387.210	0	83.0	4	26.9	4	-1E+10	1	-1E+10	1	-1E+10	1	-1E+10	1	-1E+10	1	-1E+10	1
4901784	93	C	01/20/2018	10:49	-133.172	43.665	0	392.60	0	5.2310	0	34.0030	4	26.862	0	389.092	0	81.5	4	26.5	4	-1E+10	1	-1E+10	1	-1E+10	1	-1E+10	1	-1E+10	1	-1E+10	1
4901784	93	C	01/20/2018	10:49	-133.172	43.665	0	395.10	0	5.1700	0	34.0090	4	26.874	0	391.567	0	79.3	4	25.7	4	-1E+10	1	-1E+10	1	-1E+10	1	-1E+10	1	-1E+10	1	-1E+10	1
4901784	93	C	01/20/2018	10:49	-133.172	43.665	0	397.50	0	5.1360	0	34.0110	4	26.879	0	393.943	0	78.0	4	25.3	4	-1E+10	1	-1E+10	1	-1E+10	1	-1E+10	1	-1E+10	1	-1E+10	1
4901784	93	C	01/20/2018	10:49	-133.172	43.665	0	399.90	0	5.1130	0	34.0130	4	26.884	0	396.319	0	76.7	4	24.8	4	-1E+10	1	-1E+10	1	-1E+10	1	-1E+10	1	-1E+10	1	-1E+10	1
4901784	93	C	01/20/2018	10:49	-133.172	43.665	0	402.30	0	5.0760	0	34.0160	4	26.890	0	398.696	0	75.3	4	24.4	4	-1E+10	1	-1E+10	1	-1E+10	1	-1E+10	1	-1E+10	1	-1E+10	1
4901784	93	C	01/20/2018	10:49	-133.172	43.665	0	404.70	0	5.0480	0	34.0190	4	26.896	0	401.072	0	74.4	4	24.1	4	-1E+10	1	-1E+10	1	-1E+10	1	-1E+10	1	-1E+10	1	-1E+10	1
4901784	93	C	01/20/2018	10:49	-133.172	43.665	0	407.10	0	5.0150	0	34.0230	4	26.903	0	403.448	0	73.6	4	23.8	4	-1E+10	1	-1E+10	1	-1E+10	1	-1E+10	1	-1E+10	1	-1E+10	1
4901784	93	C	01/20/2018	10:49	-133.172	43.665	0	409.60	0	5.0010	0	34.0250	4	26.906	0	405.923	0	73.1	4	23.6	4	-1E+10	1	-1E+10	1	-1E+10	1	-1E+10	1	-1E+10	1	-1E+10	1
4901784	93	C	01/20/2018	10:49	-133.172	43.665	0	412.90	0	4.9920	0	34.0260	4	26.908	0	409.190	0	72.6	4	23.5	4	-1E+10	1	-1E+10	1	-1E+10	1	-1E+10	1	-1E+10	1	-1E+10	1
4901784	93	C	01/20/2018	10:49	-133.172	43.665	0	415.40	0	4.9870	0	34.0260	4	26.908	0	411.665	0	72.3	4	23.3	4	-1E+10	1	-1E+10	1	-1E+10	1	-1E+10	1	-1E+10	1	-1E+10	1
4901784	93	C	01/20/2018	10:49	-133.172	43.665	0	417.90	0	4.9830	0	34.0260	4	26.909	0	414.140	0	71.7	4	23.2	4	-1E+10	1	-1E+10	1	-1E+10	1	-1E+10	1	-1E+10	1	-1E+10	1
4901784	93	C	01/20/2018	10:49	-133.172	43.665	0	420.40	0	4.9760	0	34.0260	4	26.910	0	416.615	0	71.0	4	22.9	4	-1E+10	1	-1E+10	1	-1E+10	1	-1E+10	1	-1E+10	1	-1E+10	1
4901784	93	C	01/20/2018	10:49	-133.172	43.665	0	422.10	0	4.9550	0	34.0290	4	26.914	0	418.298	0	70.4	4	22.7	4	-1E+10	1	-1E+10	1	-1E+10	1	-1E+10	1	-1E+10	1	-1E+10	1
4901784	93	C	01/20/2018	10:49	-133.172	43.665	0	424.60	0	4.9440	0	34.0290	4	26.916	0	420.773	0	69.5	4	22.4	4	-1E+10	1	-1E+10	1	-1E+10	1	-1E+10	1	-1E+10	1	-1E+10	1
4901784	93	C	01/20/2018	10:49	-133.172	43.665	0	427.90	0	4.9140	0	34.0330	4	26.922	0	424.040	0	68.5	4	22.1	4	-1E+10	1	-1E+10	1	-1E+10	1	-1E+10	1	-1E+10	1	-1E+10	1
4901784	93	C	01/20/2018	10:49	-133.172	43.665	0	430.40	0	4.9050	0	34.0350	4	26.925	0	426.515	0	68.0	4	21.9	4	-1E+10	1	-1E+10	1	-1E+10	1	-1E+10	1	-1E+10	1	-1E+10	1
4901784	93	C	01/20/2018	10:49	-133.172	43.665	0	432.90	0	4.8980	0	34.0360	4	26.926	0	428.990	0	67.4	4	21.7	4	-1E+10	1	-1E+10	1	-1E+10	1	-1E+10	1	-1E+10	1	-1E+10	1
4901784	93	C	01/20/2018	10:49	-133.172	43.665	0	435.40	0	4.8870	0	34.0370	4	26.929	0	431.465	0	66.6	4	21.5	4	-1E+10	1	-1E+10	1	-1E+10	1	-1E+10	1	-1E+10	1	-1E+10	1
4901784	93	C	01/20/2018	10:49	-133.172	43.665	0	437.10	0	4.8650	0	34.0410	4	26.934	0	433.148	0	66.2	4	21.3	4	-1E+10	1	-1E+10	1	-1E+10	1	-1E+10	1	-1E+10	1	-1E+10	1
4901784	93	C	01/20/2018	10:49	-133.172	43.665	0	439.70	0	4.8600	0	34.0420	4	26.936	0	435.721	0	65.9	4	21.2	4	-1E+10	1	-1E+10	1	-1E+10	1	-1E+10	1	-1E+10	1	-1E+10	1
4901784	93	C	01/20/2018	10:49	-133.172	43.665	0	442.20	0	4.8570	0	34.0420	4	26.936	0	438.196	0	65.5	4	21.1	4	-1E+10	1	-1E+10	1	-1E+10	1	-1E+10	1	-1E+10	1	-1E+10	1
4901784	93	C	01/20/2018	10:49	-133.172	43.665	0	444.70	0	4.8500	0	34.0430	4	26.938	0	440.671	0	64.8	4	20.9	4	-1E+10	1	-1E+10	1	-1E+10	1	-1E+10	1	-1E+10	1	-1E+10	1
4901784	93	C	01/20/2018	10:49	-133.172	43.665	0	447.20	0	4.8310	0	34.0460	4	26.942	0	443.145	0	64.1	4	20.6	4	-1E+10	1	-1E+10	1	-1E+10	1	-1E+10	1	-1E+10	1	-1E+10	1
4901784	93	C	01/20/2018	10:49	-133.172	43.665	0	449.70	0	4.8260	0	34.0470	4	26.943	0	445.620	0	63.7	4	20.5	4	-1E+10	1	-1E+10	1	-1E+10	1	-1E+10	1	-1E+10	1	-1E+10	1
4901784	93	C	01/20/2018	10:49	-133.172	43.665	0	452.20	0	4.8210	0	34.0480	4	26.945	0	448.095	0	63.0	4	20.3	4	-1E+10	1	-1E+10	1	-1E+10	1	-1E+10	1	-1E+10	1	-1E+10	1
4901784	93	C	01/20/2018	10:49	-133.172	43.665	0	454.70	0	4.8120	0	34.0500	4	26.947	0	450.569	0	62.3	4	20.0	4	-1E+10	1	-1E+10	1	-1E+10	1	-1E+10	1	-1E+10	1	-1E+10	1
4901784	93	C	01/20/2018	10:49	-133.172	43.665	0	457.20	0	4.8020	0	34.0510	4	26.949	0	453.044	0	61.3	4	19.7	4	-1E+10	1	-1E+10	1	-1E+10	1	-1E+10	1	-1E+10	1	-1E+10	1
4901784	93	C	01/20/2018	10:49	-133.172	43.665	0	459.70	0	4.7870	0	34.0540	4	26.953	0	455.518	0	60.5	4	19.4	4	-1E+10	1	-1E+10	1	-1E+10	1	-1E+10	1	-1E+10	1	-1E+10	1
4901784	93	C	01/20/2018	10:49	-133.172	43.665	0	462.30	0	4.7770	0	34.0560	4	26.956	0	458.092	0	59.8	4	19.2	4	-1E+10	1	-1E+10	1	-1E+10	1	-1E+10	1	-1E+10	1	-1E+10	1
4901784	93	C	01/20/2018	10:49	-133.172	43.665	0	464.90	0	4.7650	0	34.0600	4	26.961	0	460.665	0	58.9	4	18.9	4	-1E+10	1	-1E+10	1	-1E+10	1	-1E+10	1	-1E+10	1	-1E+10	1
4901784	93	C	01/20/2018	10:49	-133.172	43.665	0	467.40	0	4.7550	0	34.0630	4	26.964	0	463.140	0	58.2	4	18.7	4	-1E+10	1	-1E+10	1	-1E+10	1	-1E+10	1	-1E+10	1	-1E+10	1
4901784	93	C	01/20/2018	10:49	-133.172	43.665	0	469.90	0	4.7480	0	34.0650	4	26.967	0	465.614	0	57.6	4	18.5	4	-1E+10	1	-1E+10	1	-1E+10	1	-1E+10	1	-1E+10	1	-1E+10	1
4901784	93	C	01/20/2018	10:49	-133.172	43.665	0	472.50	0	4.7420	0	34.0660	4	26.968	0	468.188	0	57.0	4	18.3	4	-1E+10	1	-1E+10	1	-1E+10	1	-1E+10	1	-1E+10	1	-1E+10	1
4901784	93	C	01/20/2018	10:49	-133.172	43.665	0	475.10	0	4.7380	0	34.0680	4	26.970	0	470.761	0	56.4	4	18.1	4	-1E+10	1	-1E+10	1	-1E+10	1	-1E+10	1	-1E+10	1	-1E+10	1
4901784	93	C	01/20/2018	10:49	-133.172	43.665	0	477.70	0	4.7340	0	34.0700	4	26.972	0	473.334	0	55.8	4	17.9	4	-1E+10	1	-1E+10	1	-1E+10	1	-1E+10	1	-1E+10	1	-1E+10	1
4901784	93	C	01/20/2018	10:49	-133.172	43.665	0	480.40	0	4.7250	0	34.0730	4	26.976	0	476.006	0	55.4	4	17.8	4	-1E+10	1	-1E+10	1	-1E+10	1	-1E+10	1	-1E+10	1	-1E+10	1
4901784	93	C	01/20/2018	10:49	-133.172	43.665	0	483.00	0	4.7240	0	34.0740	4	26.976	0	478.580	0	55.1	4	17.7	4	-1E+10	1	-1E+10	1	-1E+10	1	-1E+10	1	-1E+10	1	-1E+10	1
4901784	93	C	01/20/2018	10:49	-133.172	43.665	0	484.70	0	4.7230	0	34.0740	4	26.977	0	480.262	0	54.7	4	17.6	4	-1E+10	1	-1E+10	1	-1E+10	1	-1E+10	1	-1E+10	1	-1E+10	1
4901784	93	C	01/20/2018	10:49	-133.172	43.665	0	487.30	0	4.7140	0	34.0780	4	26.981	0	482.835	0	54.1	4	17.3	4	-1E+10	1	-1E+10	1	-1E+10	1	-1E+10	1	-1E+10	1	-1E+10	1
4901784	93	C	01/20/2018	10:49	-133.172	43.665	0	490.00	0	4.6990	0	34.0860	4	26.989	0	485.507	0	53.6	4	17.2	4	-1E+10	1	-1E+10	1	-1E+10	1	-1E+10	1	-1E+10	1	-1E+10	1
4901784	93	C	01/20/2018	10:49	-133.172	43.665	0	492.60	0	4.6950	0	34.0870	4	26.990	0	488.080	0	53.2	4	17.1	4	-1E+10	1	-1E+10	1	-1E+10	1	-1E+10	1	-1E+10	1	-1E+10	1
4901784	93	C	01/20/2018	10:49	-133.172	43.665	0	495.30	0	4.6830	0	34.0900	4	26.994	0	490.753	0	52.8	4	16.9	4	-1E+10	1	-1E+10	1	-1E+10	1	-1E+10	1	-1E+10	1	-1E+10	1
4901784	93	C	01/20/2018	10:49	-133.172	43.665	0	497.00	0	4.6750	0	34.0930	4	26.997	0	492.435	0	52.5	4	16.8	4	-1E+10	1	-1E+10	1	-1E+10	1	-1E+10	1	-1E+10	1	-1E+10	1
4901784	93	C	01/20/2018	10:49	-133.172	43.665	0	499.70	0	4.6680	0	34.0950	4	26.999	0	495.107	0	52.0	4	16.7	4	-1E+10	1	-1E+10	1	-1E+10	1	-1E+10	1	-1E+10	1	-1E+10	1
4901784	93	C	01/20/2018	10:49	-133.172	43.665	0	505.10	0	4.6560	0	34.0990	4	27.004	0	500.451	0	50.1	4	16.1	4	-1E+10	1	-1E+10	1	-1E+10	1	-1E+10	1	-1E+10	1	-1E+10	1
4901784	93	C	01/20/2018	10:49	-133.172	43.665	0	509.60	0	4.6290	0	34.1050	4	27.012	0	504.904	0	47.4	4	15.2	4	-1E+10	1	-1E+10	1	-1E+10	1	-1E+10	1	-1E+10	1	-1E+10	1
4901784	93	C	01/20/2018	10:49	-133.172	43.665	0	515.10	0	4.6110	0	34.1180	4	27.024	0	510.346	0	44.6	4	14.3	4	-1E+10	1	-1E+10	1	-1E+10	1	-1E+10	1	-1E+10	1	-1E+10	1
4901784	93	C	01/20/2018	10:49	-133.172	43.665	0	520.60	0	4.6050	0	34.1240	4	27.030	0	515.789	0	42.4	4	13.6	4	-1E+10	1	-1E+10	1	-1E+10	1	-1E+10	1	-1E+10	1	-1E+10	1
4901784	93	C	01/20/2018	10:49	-133.172	43.665	0	525.60	0	4.6060	0	34.1320	4	27.036	0	520.736	0	39.2	4	12.5	4	-1E+10	1	-1E+10	1	-1E+10	1	-1E+10	1	-1E+10	1	-1E+10	1
4901784	93	C	01/20/2018	10:49	-133.172	43.665	0	529.90	0	4.6420	0	34.1480	4	27.045	0	524.991	0	35.2	4	11.3	4	-1E+10	1	-1E+10	1	-1E+10	1	-1E+10	1	-1E+10	1	-1E+10	1
4901784	93	C	01/20/2018	10:49	-133.172	43.665	0	534.70	0	4.6650	0	34.1590	4	27.051	0	529.741	0	32.3	4	10.4	4	-1E+10	1	-1E+10	1	-1E+10	1	-1E+10	1	-1E+10	1	-1E+10	1
4901784	93	C	01/20/2018	10:49	-133.172	43.665	0	539.50	0	4.7050	0	34.1730	4	27.058	0	534.490	0	28.9	4	9.3	4	-1E+10	1	-1E+10	1	-1E+10	1	-1E+10	1	-1E+10	1	-1E+10	1
4901784	93	C	01/20/2018	10:49	-133.172	43.665	0	544.40	0	4.7390	0	34.1850	4	27.063	0	539.338	0	26.8	4	8.6	4	-1E+10	1	-1E+10	1	-1E+10	1	-1E+10	1	-1E+10	1	-1E+10	1
4901784	93	C	01/20/2018	10:49	-133.172	43.665	0	549.20	0	4.7380	0	34.1960	4	27.072	0	544.087	0	25.0	4	8.0	4	-1E+10	1	-1E+10	1	-1E+10	1	-1E+10	1	-1E+10	1	-1E+10	1
4901784	93	C	01/20/2018	10:49	-133.172	43.665	0	555.00	0	4.7180	0	34.2030	4	27.080	0	549.825	0	24.1	4	7.7	4	-1E+10	1	-1E+10	1	-1E+10	1	-1E+10	1	-1E+10	1	-1E+10	1
4901784	93	C	01/20/2018	10:49	-133.172	43.665	0	560.00	0	4.6910	0	34.2070	4	27.086	0	554.772	0	23.5	4	7.5	4	-1E+10	1	-1E+10	1	-1E+10	1	-1E+10	1	-1E+10	1	-1E+10	1
4901784	93	C	01/20/2018	10:49	-133.172	43.665	0	564.20	0	4.6830	0	34.2090	4	27.089	0	558.927	0	23.0	4	7.4	4	-1E+10	1	-1E+10	1	-1E+10	1	-1E+10	1	-1E+10	1	-1E+10	1
4901784	93	C	01/20/2018	10:49	-133.172	43.665	0	569.30	0	4.6530	0	34.2130	4	27.095	0	563.973	0	22.3	4	7.1	4	-1E+10	1	-1E+10	1	-1E+10	1	-1E+10	1	-1E+10	1	-1E+10	1
4901784	93	C	01/20/2018	10:49	-133.172	43.665	0	574.30	0	4.6310	0	34.2180	4	27.102	0	568.919	0	21.7	4	7.0	4	-1E+10	1	-1E+10	1	-1E+10	1	-1E+10	1	-1E+10	1	-1E+10	1
4901784	93	C	01/20/2018	10:49	-133.172	43.665	0	579.60	0	4.6220	0	34.2210	4	27.105	0	574.162	0	20.9	4	6.7	4	-1E+10	1	-1E+10	1	-1E+10	1	-1E+10	1	-1E+10	1	-1E+10	1
4901784	93	C	01/20/2018	10:49	-133.172	43.665	0	584.90	0	4.6070	0	34.2260	4	27.111	0	579.405	0	20.1	4	6.4	4	-1E+10	1	-1E+10	1	-1E+10	1	-1E+10	1	-1E+10	1	-1E+10	1
4901784	93	C	01/20/2018	10:49	-133.172	43.665	0	590.30	0	4.5810	0	34.2340	4	27.120	0	584.747	0	19.2	4	6.1	4	-1E+10	1	-1E+10	1	-1E+10	1	-1E+10	1	-1E+10	1	-1E+10	1
4901784	93	C	01/20/2018	10:49	-133.172	43.665	0	595.70	0	4.5630	0	34.2390	4	27.126	0	590.088	0	18.4	4	5.9	4	-1E+10	1	-1E+10	1	-1E+10	1	-1E+10	1	-1E+10	1	-1E+10	1
4901784	93	C	01/20/2018	10:49	-133.172	43.665	0	600.10	0	4.5350	0	34.2470	4	27.135	0	594.441	0	17.7	4	5.7	4	-1E+10	1	-1E+10	1	-1E+10	1	-1E+10	1	-1E+10	1	-1E+10	1
4901784	93	C	01/20/2018	10:49	-133.172	43.665	0	604.60	0	4.5260	0	34.2530	4	27.141	0	598.892	0	17.1	4	5.5	4	-1E+10	1	-1E+10	1	-1E+10	1	-1E+10	1	-1E+10	1	-1E+10	1
4901784	93	C	01/20/2018	10:49	-133.172	43.665	0	610.00	0	4.5170	0	34.2590	4	27.147	0	604.233	0	16.4	4	5.3	4	-1E+10	1	-1E+10	1	-1E+10	1	-1E+10	1	-1E+10	1	-1E+10	1
4901784	93	C	01/20/2018	10:49	-133.172	43.665	0	615.60	0	4.5060	0	34.2670	4	27.155	0	609.772	0	15.9	4	5.1	4	-1E+10	1	-1E+10	1	-1E+10	1	-1E+10	1	-1E+10	1	-1E+10	1
4901784	93	C	01/20/2018	10:49	-133.172	43.665	0	620.20	0	4.4980	0	34.2710	4	27.159	0	614.321	0	15.6	4	5.0	4	-1E+10	1	-1E+10	1	-1E+10	1	-1E+10	1	-1E+10	1	-1E+10	1
4901784	93	C	01/20/2018	10:49	-133.172	43.665	0	624.90	0	4.4870	0	34.2730	4	27.162	0	618.970	0	15.4	4	4.9	4	-1E+10	1	-1E+10	1	-1E+10	1	-1E+10	1	-1E+10	1	-1E+10	1
4901784	93	C	01/20/2018	10:49	-133.172	43.665	0	630.50	0	4.4580	0	34.2770	4	27.168	0	624.508	0	15.1	4	4.8	4	-1E+10	1	-1E+10	1	-1E+10	1	-1E+10	1	-1E+10	1	-1E+10	1
4901784	93	C	01/20/2018	10:49	-133.172	43.665	0	635.20	0	4.4360	0	34.2810	4	27.173	0	629.157	0	14.9	4	4.7	4	-1E+10	1	-1E+10	1	-1E+10	1	-1E+10	1	-1E+10	1	-1E+10	1
4901784	93	C	01/20/2018	10:49	-133.172	43.665	0	639.90	0	4.4230	0	34.2850	4	27.178	0	633.805	0	14.5	4	4.6	4	-1E+10	1	-1E+10	1	-1E+10	1	-1E+10	1	-1E+10	1	-1E+10	1
4901784	93	C	01/20/2018	10:49	-133.172	43.665	0	645.60	0	4.4180	0	34.2890	4	27.182	0	639.442	0	14.3	4	4.6	4	-1E+10	1	-1E+10	1	-1E+10	1	-1E+10	1	-1E+10	1	-1E+10	1
4901784	93	C	01/20/2018	10:49	-133.172	43.665	0	650.40	0	4.4150	0	34.2910	4	27.184	0	644.188	0	14.1	4	4.5	4	-1E+10	1	-1E+10	1	-1E+10	1	-1E+10	1	-1E+10	1	-1E+10	1
4901784	93	C	01/20/2018	10:49	-133.172	43.665	0	655.20	0	4.4140	0	34.2940	4	27.186	0	648.935	0	13.8	4	4.4	4	-1E+10	1	-1E+10	1	-1E+10	1	-1E+10	1	-1E+10	1	-1E+10	1
4901784	93	C	01/20/2018	10:49	-133.172	43.665	0	659.90	0	4.4070	0	34.2970	4	27.189	0	653.583	0	13.6	4	4.3	4	-1E+10	1	-1E+10	1	-1E+10	1	-1E+10	1	-1E+10	1	-1E+10	1
4901784	93	C	01/20/2018	10:49	-133.172	43.665	0	664.70	0	4.4000	0	34.3000	4	27.193	0	658.329	0	13.4	4	4.3	4	-1E+10	1	-1E+10	1	-1E+10	1	-1E+10	1	-1E+10	1	-1E+10	1
4901784	93	C	01/20/2018	10:49	-133.172	43.665	0	670.40	0	4.3730	0	34.3040	4	27.199	0	663.966	0	13.3	4	4.2	4	-1E+10	1	-1E+10	1	-1E+10	1	-1E+10	1	-1E+10	1	-1E+10	1
4901784	93	C	01/20/2018	10:49	-133.172	43.665	0	675.20	0	4.3590	0	34.3050	4	27.201	0	668.712	0	13.2	4	4.2	4	-1E+10	1	-1E+10	1	-1E+10	1	-1E+10	1	-1E+10	1	-1E+10	1
4901784	93	C	01/20/2018	10:49	-133.172	43.665	0	680.10	0	4.3430	0	34.3070	4	27.204	0	673.557	0	13.2	4	4.2	4	-1E+10	1	-1E+10	1	-1E+10	1	-1E+10	1	-1E+10	1	-1E+10	1
4901784	93	C	01/20/2018	10:49	-133.172	43.665	0	685.00	0	4.3230	0	34.3070	4	27.207	0	678.402	0	13.2	4	4.2	4	-1E+10	1	-1E+10	1	-1E+10	1	-1E+10	1	-1E+10	1	-1E+10	1
4901784	93	C	01/20/2018	10:49	-133.172	43.665	0	689.80	0	4.3170	0	34.3070	4	27.207	0	683.148	0	13.1	4	4.2	4	-1E+10	1	-1E+10	1	-1E+10	1	-1E+10	1	-1E+10	1	-1E+10	1
4901784	93	C	01/20/2018	10:49	-133.172	43.665	0	694.60	0	4.3130	0	34.3110	4	27.211	0	687.893	0	12.8	4	4.1	4	-1E+10	1	-1E+10	1	-1E+10	1	-1E+10	1	-1E+10	1	-1E+10	1
4901784	93	C	01/20/2018	10:49	-133.172	43.665	0	699.50	0	4.3170	0	34.3170	4	27.215	0	692.738	0	12.6	4	4.0	4	-1E+10	1	-1E+10	1	-1E+10	1	-1E+10	1	-1E+10	1	-1E+10	1
4901784	93	C	01/20/2018	10:49	-133.172	43.665	0	705.30	0	4.3020	0	34.3190	4	27.219	0	698.472	0	12.5	4	4.0	4	-1E+10	1	-1E+10	1	-1E+10	1	-1E+10	1	-1E+10	1	-1E+10	1
4901784	93	C	01/20/2018	10:49	-133.172	43.665	0	710.30	0	4.2940	0	34.3190	4	27.219	0	703.415	0	12.5	4	4.0	4	-1E+10	1	-1E+10	1	-1E+10	1	-1E+10	1	-1E+10	1	-1E+10	1
4901784	93	C	01/20/2018	10:49	-133.172	43.665	0	714.90	0	4.2590	0	34.3210	4	27.225	0	707.963	0	12.6	4	4.0	4	-1E+10	1	-1E+10	1	-1E+10	1	-1E+10	1	-1E+10	1	-1E+10	1
4901784	93	C	01/20/2018	10:49	-133.172	43.665	0	719.90	0	4.2330	0	34.3200	4	27.227	0	712.906	0	12.7	4	4.0	4	-1E+10	1	-1E+10	1	-1E+10	1	-1E+10	1	-1E+10	1	-1E+10	1
4901784	93	C	01/20/2018	10:49	-133.172	43.665	0	724.80	0	4.2050	0	34.3190	4	27.229	0	717.750	0	12.8	4	4.1	4	-1E+10	1	-1E+10	1	-1E+10	1	-1E+10	1	-1E+10	1	-1E+10	1
4901784	93	C	01/20/2018	10:49	-133.172	43.665	0	729.80	0	4.1820	0	34.3170	4	27.230	0	722.693	0	12.9	4	4.1	4	-1E+10	1	-1E+10	1	-1E+10	1	-1E+10	1	-1E+10	1	-1E+10	1
4901784	93	C	01/20/2018	10:49	-133.172	43.665	0	734.80	0	4.1250	0	34.3190	4	27.237	0	727.635	0	12.9	4	4.1	4	-1E+10	1	-1E+10	1	-1E+10	1	-1E+10	1	-1E+10	1	-1E+10	1
4901784	93	C	01/20/2018	10:49	-133.172	43.665	0	739.70	0	4.1150	0	34.3220	4	27.241	0	732.479	0	12.7	4	4.0	4	-1E+10	1	-1E+10	1	-1E+10	1	-1E+10	1	-1E+10	1	-1E+10	1
4901784	93	C	01/20/2018	10:49	-133.172	43.665	0	744.60	0	4.1020	0	34.3260	4	27.245	0	737.322	0	12.5	4	4.0	4	-1E+10	1	-1E+10	1	-1E+10	1	-1E+10	1	-1E+10	1	-1E+10	1
4901784	93	C	01/20/2018	10:49	-133.172	43.665	0	749.60	0	4.0930	0	34.3310	4	27.250	0	742.265	0	12.3	4	3.9	4	-1E+10	1	-1E+10	1	-1E+10	1	-1E+10	1	-1E+10	1	-1E+10	1
4901784	93	C	01/20/2018	10:49	-133.172	43.665	0	754.60	0	4.0900	0	34.3350	4	27.254	0	747.207	0	12.1	4	3.8	4	-1E+10	1	-1E+10	1	-1E+10	1	-1E+10	1	-1E+10	1	-1E+10	1
4901784	93	C	01/20/2018	10:49	-133.172	43.665	0	759.60	0	4.0770	0	34.3380	4	27.258	0	752.149	0	11.9	4	3.8	4	-1E+10	1	-1E+10	1	-1E+10	1	-1E+10	1	-1E+10	1	-1E+10	1
4901784	93	C	01/20/2018	10:49	-133.172	43.665	0	764.70	0	4.0860	0	34.3430	4	27.261	0	757.189	0	11.6	4	3.7	4	-1E+10	1	-1E+10	1	-1E+10	1	-1E+10	1	-1E+10	1	-1E+10	1
4901784	93	C	01/20/2018	10:49	-133.172	43.665	0	769.70	0	4.0680	0	34.3500	4	27.268	0	762.131	0	11.4	4	3.6	4	-1E+10	1	-1E+10	1	-1E+10	1	-1E+10	1	-1E+10	1	-1E+10	1
4901784	93	C	01/20/2018	10:49	-133.172	43.665	0	774.70	0	4.0650	0	34.3550	4	27.272	0	767.073	0	11.2	4	3.5	4	-1E+10	1	-1E+10	1	-1E+10	1	-1E+10	1	-1E+10	1	-1E+10	1
4901784	93	C	01/20/2018	10:49	-133.172	43.665	0	779.60	0	4.0710	0	34.3640	4	27.279	0	771.915	0	10.9	4	3.5	4	-1E+10	1	-1E+10	1	-1E+10	1	-1E+10	1	-1E+10	1	-1E+10	1
4901784	93	C	01/20/2018	10:49	-133.172	43.665	0	784.70	0	4.0680	0	34.3670	4	27.282	0	776.956	0	10.9	4	3.5	4	-1E+10	1	-1E+10	1	-1E+10	1	-1E+10	1	-1E+10	1	-1E+10	1
4901784	93	C	01/20/2018	10:49	-133.172	43.665	0	789.70	0	4.0360	0	34.3650	4	27.283	0	781.897	0	10.9	4	3.4	4	-1E+10	1	-1E+10	1	-1E+10	1	-1E+10	1	-1E+10	1	-1E+10	1
4901784	93	C	01/20/2018	10:49	-133.172	43.665	0	794.70	0	4.0510	0	34.3720	4	27.288	0	786.838	0	10.6	4	3.4	4	-1E+10	1	-1E+10	1	-1E+10	1	-1E+10	1	-1E+10	1	-1E+10	1
4901784	93	C	01/20/2018	10:49	-133.172	43.665	0	799.60	0	4.0540	0	34.3800	4	27.294	0	791.680	0	10.4	4	3.3	4	-1E+10	1	-1E+10	1	-1E+10	1	-1E+10	1	-1E+10	1	-1E+10	1
4901784	93	C	01/20/2018	10:49	-133.172	43.665	0	804.60	0	4.0530	0	34.3850	4	27.298	0	796.621	0	10.3	4	3.3	4	-1E+10	1	-1E+10	1	-1E+10	1	-1E+10	1	-1E+10	1	-1E+10	1
4901784	93	C	01/20/2018	10:49	-133.172	43.665	0	809.60	0	4.0440	0	34.3870	4	27.300	0	801.562	0	10.3	4	3.3	4	-1E+10	1	-1E+10	1	-1E+10	1	-1E+10	1	-1E+10	1	-1E+10	1
4901784	93	C	01/20/2018	10:49	-133.172	43.665	0	814.60	0	4.0270	0	34.3910	4	27.305	0	806.503	0	10.3	4	3.3	4	-1E+10	1	-1E+10	1	-1E+10	1	-1E+10	1	-1E+10	1	-1E+10	1
4901784	93	C	01/20/2018	10:49	-133.172	43.665	0	819.70	0	4.0180	0	34.3920	4	27.307	0	811.542	0	10.3	4	3.3	4	-1E+10	1	-1E+10	1	-1E+10	1	-1E+10	1	-1E+10	1	-1E+10	1
4901784	93	C	01/20/2018	10:49	-133.172	43.665	0	824.80	0	4.0010	0	34.3940	4	27.310	0	816.582	0	10.3	4	3.3	4	-1E+10	1	-1E+10	1	-1E+10	1	-1E+10	1	-1E+10	1	-1E+10	1
4901784	93	C	01/20/2018	10:49	-133.172	43.665	0	830.00	0	3.9860	0	34.3980	4	27.315	0	821.720	0	10.3	4	3.2	4	-1E+10	1	-1E+10	1	-1E+10	1	-1E+10	1	-1E+10	1	-1E+10	1
4901784	93	C	01/20/2018	10:49	-133.172	43.665	0	835.30	0	3.9790	0	34.4010	4	27.318	0	826.956	0	10.2	4	3.2	4	-1E+10	1	-1E+10	1	-1E+10	1	-1E+10	1	-1E+10	1	-1E+10	1
4901784	93	C	01/20/2018	10:49	-133.172	43.665	0	840.50	0	3.9650	0	34.4030	4	27.321	0	832.094	0	10.2	4	3.2	4	-1E+10	1	-1E+10	1	-1E+10	1	-1E+10	1	-1E+10	1	-1E+10	1
4901784	93	C	01/20/2018	10:49	-133.172	43.665	0	845.70	0	3.9510	0	34.4070	4	27.326	0	837.232	0	10.2	4	3.2	4	-1E+10	1	-1E+10	1	-1E+10	1	-1E+10	1	-1E+10	1	-1E+10	1
4901784	93	C	01/20/2018	10:49	-133.172	43.665	0	850.10	0	3.9470	0	34.4100	4	27.329	0	841.579	0	10.2	4	3.2	4	-1E+10	1	-1E+10	1	-1E+10	1	-1E+10	1	-1E+10	1	-1E+10	1
4901784	93	C	01/20/2018	10:49	-133.172	43.665	0	854.50	0	3.9340	0	34.4130	4	27.333	0	845.926	0	10.3	4	3.2	4	-1E+10	1	-1E+10	1	-1E+10	1	-1E+10	1	-1E+10	1	-1E+10	1
4901784	93	C	01/20/2018	10:49	-133.172	43.665	0	859.80	0	3.8970	0	34.4150	4	27.338	0	851.162	0	10.3	4	3.3	4	-1E+10	1	-1E+10	1	-1E+10	1	-1E+10	1	-1E+10	1	-1E+10	1
4901784	93	C	01/20/2018	10:49	-133.172	43.665	0	865.20	0	3.8890	0	34.4150	4	27.339	0	856.496	0	10.4	4	3.3	4	-1E+10	1	-1E+10	1	-1E+10	1	-1E+10	1	-1E+10	1	-1E+10	1
4901784	93	C	01/20/2018	10:49	-133.172	43.665	0	870.50	0	3.8520	0	34.4150	4	27.343	0	861.732	0	10.5	4	3.3	4	-1E+10	1	-1E+10	1	-1E+10	1	-1E+10	1	-1E+10	1	-1E+10	1
4901784	93	C	01/20/2018	10:49	-133.172	43.665	0	874.90	0	3.8260	0	34.4180	4	27.348	0	866.079	0	10.5	4	3.3	4	-1E+10	1	-1E+10	1	-1E+10	1	-1E+10	1	-1E+10	1	-1E+10	1
4901784	93	C	01/20/2018	10:49	-133.172	43.665	0	879.30	0	3.8070	0	34.4220	4	27.353	0	870.425	0	10.5	4	3.3	4	-1E+10	1	-1E+10	1	-1E+10	1	-1E+10	1	-1E+10	1	-1E+10	1
4901784	93	C	01/20/2018	10:49	-133.172	43.665	0	884.50	0	3.7980	0	34.4240	4	27.355	0	875.562	0	10.5	4	3.3	4	-1E+10	1	-1E+10	1	-1E+10	1	-1E+10	1	-1E+10	1	-1E+10	1
4901784	93	C	01/20/2018	10:49	-133.172	43.665	0	889.70	0	3.7980	0	34.4290	4	27.359	0	880.698	0	10.6	4	3.3	4	-1E+10	1	-1E+10	1	-1E+10	1	-1E+10	1	-1E+10	1	-1E+10	1
4901784	93	C	01/20/2018	10:49	-133.172	43.665	0	895.10	0	3.7530	0	34.4270	4	27.362	0	886.032	0	10.7	4	3.4	4	-1E+10	1	-1E+10	1	-1E+10	1	-1E+10	1	-1E+10	1	-1E+10	1
4901784	93	C	01/20/2018	10:49	-133.172	43.665	0	900.70	0	3.6500	0	34.4210	4	27.368	0	891.564	0	10.9	4	3.4	4	-1E+10	1	-1E+10	1	-1E+10	1	-1E+10	1	-1E+10	1	-1E+10	1
4901784	93	C	01/20/2018	10:49	-133.172	43.665	0	905.50	0	3.6150	0	34.4220	4	27.372	0	896.305	0	11.0	4	3.4	4	-1E+10	1	-1E+10	1	-1E+10	1	-1E+10	1	-1E+10	1	-1E+10	1
4901784	93	C	01/20/2018	10:49	-133.172	43.665	0	910.40	0	3.5980	0	34.4230	4	27.374	0	901.144	0	11.0	4	3.5	4	-1E+10	1	-1E+10	1	-1E+10	1	-1E+10	1	-1E+10	1	-1E+10	1
4901784	93	C	01/20/2018	10:49	-133.172	43.665	0	915.40	0	3.5730	0	34.4240	4	27.377	0	906.083	0	11.1	4	3.5	4	-1E+10	1	-1E+10	1	-1E+10	1	-1E+10	1	-1E+10	1	-1E+10	1
4901784	93	C	01/20/2018	10:49	-133.172	43.665	0	920.30	0	3.5600	0	34.4260	4	27.380	0	910.922	0	11.1	4	3.5	4	-1E+10	1	-1E+10	1	-1E+10	1	-1E+10	1	-1E+10	1	-1E+10	1
4901784	93	C	01/20/2018	10:49	-133.172	43.665	0	925.40	0	3.5500	0	34.4280	4	27.383	0	915.959	0	11.1	4	3.5	4	-1E+10	1	-1E+10	1	-1E+10	1	-1E+10	1	-1E+10	1	-1E+10	1
4901784	93	C	01/20/2018	10:49	-133.172	43.665	0	930.40	0	3.5410	0	34.4290	4	27.385	0	920.897	0	11.2	4	3.5	4	-1E+10	1	-1E+10	1	-1E+10	1	-1E+10	1	-1E+10	1	-1E+10	1
4901784	93	C	01/20/2018	10:49	-133.172	43.665	0	935.50	0	3.5220	0	34.4330	4	27.390	0	925.934	0	11.2	4	3.5	4	-1E+10	1	-1E+10	1	-1E+10	1	-1E+10	1	-1E+10	1	-1E+10	1
4901784	93	C	01/20/2018	10:49	-133.172	43.665	0	940.60	0	3.5130	0	34.4360	4	27.393	0	930.970	0	11.2	4	3.5	4	-1E+10	1	-1E+10	1	-1E+10	1	-1E+10	1	-1E+10	1	-1E+10	1
4901784	93	C	01/20/2018	10:49	-133.172	43.665	0	945.70	0	3.5030	0	34.4380	4	27.396	0	936.007	0	11.3	4	3.5	4	-1E+10	1	-1E+10	1	-1E+10	1	-1E+10	1	-1E+10	1	-1E+10	1
4901784	93	C	01/20/2018	10:49	-133.172	43.665	0	950.00	0	3.4910	0	34.4410	4	27.399	0	940.253	0	11.3	4	3.5	4	-1E+10	1	-1E+10	1	-1E+10	1	-1E+10	1	-1E+10	1	-1E+10	1
4901784	93	C	01/20/2018	10:49	-133.172	43.665	0	954.30	0	3.4850	0	34.4430	4	27.401	0	944.499	0	11.4	4	3.5	4	-1E+10	1	-1E+10	1	-1E+10	1	-1E+10	1	-1E+10	1	-1E+10	1
4901784	93	C	01/20/2018	10:49	-133.172	43.665	0	959.60	0	3.4780	0	34.4440	4	27.403	0	949.733	0	11.4	4	3.6	4	-1E+10	1	-1E+10	1	-1E+10	1	-1E+10	1	-1E+10	1	-1E+10	1
4901784	93	C	01/20/2018	10:49	-133.172	43.665	0	965.00	0	3.4650	0	34.4470	4	27.407	0	955.065	0	11.5	4	3.6	4	-1E+10	1	-1E+10	1	-1E+10	1	-1E+10	1	-1E+10	1	-1E+10	1
4901784	93	C	01/20/2018	10:49	-133.172	43.665	0	970.30	0	3.4550	0	34.4500	4	27.410	0	960.298	0	11.5	4	3.6	4	-1E+10	1	-1E+10	1	-1E+10	1	-1E+10	1	-1E+10	1	-1E+10	1
4901784	93	C	01/20/2018	10:49	-133.172	43.665	0	975.70	0	3.4400	0	34.4540	4	27.415	0	965.630	0	11.6	4	3.6	4	-1E+10	1	-1E+10	1	-1E+10	1	-1E+10	1	-1E+10	1	-1E+10	1
4901784	93	C	01/20/2018	10:49	-133.172	43.665	0	980.20	0	3.4290	0	34.4560	4	27.417	0	970.073	0	11.6	4	3.6	4	-1E+10	1	-1E+10	1	-1E+10	1	-1E+10	1	-1E+10	1	-1E+10	1
4901784	93	C	01/20/2018	10:49	-133.172	43.665	0	984.70	0	3.4240	0	34.4580	4	27.419	0	974.516	0	11.7	4	3.7	4	-1E+10	1	-1E+10	1	-1E+10	1	-1E+10	1	-1E+10	1	-1E+10	1
4901784	93	C	01/20/2018	10:49	-133.172	43.665	0	990.10	0	3.4160	0	34.4600	4	27.422	0	979.848	0	11.8	4	3.7	4	-1E+10	1	-1E+10	1	-1E+10	1	-1E+10	1	-1E+10	1	-1E+10	1
4901784	93	C	01/20/2018	10:49	-133.172	43.665	0	995.60	0	3.4070	0	34.4620	4	27.424	0	985.278	0	11.9	4	3.7	4	-1E+10	1	-1E+10	1	-1E+10	1	-1E+10	1	-1E+10	1	-1E+10	1
4901784	93	C	01/20/2018	10:49	-133.172	43.665	0	1000.10	0	3.4010	0	34.4630	4	27.426	0	989.720	0	11.9	4	3.7	4	-1E+10	1	-1E+10	1	-1E+10	1	-1E+10	1	-1E+10	1	-1E+10	1
4901784	93	C	01/20/2018	10:49	-133.172	43.665	0	1004.70	0	3.3890	0	34.4670	4	27.430	0	994.262	0	12.0	4	3.7	4	-1E+10	1	-1E+10	1	-1E+10	1	-1E+10	1	-1E+10	1	-1E+10	1
4901784	93	C	01/20/2018	10:49	-133.172	43.665	0	1010.20	0	3.3800	0	34.4690	4	27.433	0	999.692	0	12.2	4	3.8	4	-1E+10	1	-1E+10	1	-1E+10	1	-1E+10	1	-1E+10	1	-1E+10	1
4901784	93	C	01/20/2018	10:49	-133.172	43.665	0	1014.80	0	3.3720	0	34.4720	4	27.436	0	1004.233	0	12.3	4	3.8	4	-1E+10	1	-1E+10	1	-1E+10	1	-1E+10	1	-1E+10	1	-1E+10	1
4901784	93	C	01/20/2018	10:49	-133.172	43.665	0	1019.30	0	3.3670	0	34.4740	4	27.438	0	1008.675	0	12.4	4	3.9	4	-1E+10	1	-1E+10	1	-1E+10	1	-1E+10	1	-1E+10	1	-1E+10	1
4901784	93	C	01/20/2018	10:49	-133.172	43.665	0	1024.70	0	3.3520	0	34.4780	4	27.442	0	1014.006	0	12.7	4	3.9	4	-1E+10	1	-1E+10	1	-1E+10	1	-1E+10	1	-1E+10	1	-1E+10	1
4901784	93	C	01/20/2018	10:49	-133.172	43.665	0	1029.50	0	3.3480	0	34.4800	4	27.444	0	1018.744	0	12.8	4	4.0	4	-1E+10	1	-1E+10	1	-1E+10	1	-1E+10	1	-1E+10	1	-1E+10	1
4901784	93	C	01/20/2018	10:49	-133.172	43.665	0	1034.40	0	3.3440	0	34.4810	4	27.446	0	1023.581	0	13.0	4	4.0	4	-1E+10	1	-1E+10	1	-1E+10	1	-1E+10	1	-1E+10	1	-1E+10	1
4901784	93	C	01/20/2018	10:49	-133.172	43.665	0	1040.00	0	3.3440	0	34.4840	4	27.448	0	1029.109	0	13.2	4	4.1	4	-1E+10	1	-1E+10	1	-1E+10	1	-1E+10	1	-1E+10	1	-1E+10	1
4901784	93	C	01/20/2018	10:49	-133.172	43.665	0	1045.70	0	3.3370	0	34.4870	4	27.451	0	1034.735	0	13.5	4	4.2	4	-1E+10	1	-1E+10	1	-1E+10	1	-1E+10	1	-1E+10	1	-1E+10	1
4901784	93	C	01/20/2018	10:49	-133.172	43.665	0	1050.60	0	3.3330	0	34.4890	4	27.453	0	1039.571	0	13.6	4	4.2	4	-1E+10	1	-1E+10	1	-1E+10	1	-1E+10	1	-1E+10	1	-1E+10	1
4901784	93	C	01/20/2018	10:49	-133.172	43.665	0	1055.50	0	3.3300	0	34.4900	4	27.454	0	1044.408	0	13.7	4	4.3	4	-1E+10	1	-1E+10	1	-1E+10	1	-1E+10	1	-1E+10	1	-1E+10	1
4901784	93	C	01/20/2018	10:49	-133.172	43.665	0	1060.50	0	3.3250	0	34.4920	4	27.456	0	1049.343	0	13.9	4	4.3	4	-1E+10	1	-1E+10	1	-1E+10	1	-1E+10	1	-1E+10	1	-1E+10	1
4901784	93	C	01/20/2018	10:49	-133.172	43.665	0	1065.60	0	3.3220	0	34.4930	4	27.458	0	1054.376	0	14.0	4	4.4	4	-1E+10	1	-1E+10	1	-1E+10	1	-1E+10	1	-1E+10	1	-1E+10	1
4901784	93	C	01/20/2018	10:49	-133.172	43.665	0	1070.60	0	3.3180	0	34.4950	4	27.460	0	1059.311	0	14.2	4	4.4	4	-1E+10	1	-1E+10	1	-1E+10	1	-1E+10	1	-1E+10	1	-1E+10	1
4901784	93	C	01/20/2018	10:49	-133.172	43.665	0	1075.70	0	3.3140	0	34.4970	4	27.462	0	1064.344	0	14.4	4	4.5	4	-1E+10	1	-1E+10	1	-1E+10	1	-1E+10	1	-1E+10	1	-1E+10	1
4901784	93	C	01/20/2018	10:49	-133.172	43.665	0	1080.80	0	3.3060	0	34.5000	4	27.465	0	1069.377	0	14.5	4	4.5	4	-1E+10	1	-1E+10	1	-1E+10	1	-1E+10	1	-1E+10	1	-1E+10	1
4901784	93	C	01/20/2018	10:49	-133.172	43.665	0	1085.00	0	3.3020	0	34.5010	4	27.466	0	1073.522	0	14.5	4	4.5	4	-1E+10	1	-1E+10	1	-1E+10	1	-1E+10	1	-1E+10	1	-1E+10	1
4901784	93	C	01/20/2018	10:49	-133.172	43.665	0	1089.30	0	3.3000	0	34.5010	4	27.466	0	1077.766	0	14.6	4	4.5	4	-1E+10	1	-1E+10	1	-1E+10	1	-1E+10	1	-1E+10	1	-1E+10	1
4901784	93	C	01/20/2018	10:49	-133.172	43.665	0	1094.50	0	3.2980	0	34.5020	4	27.467	0	1082.897	0	14.7	4	4.6	4	-1E+10	1	-1E+10	1	-1E+10	1	-1E+10	1	-1E+10	1	-1E+10	1
4901784	93	C	01/20/2018	10:49	-133.172	43.665	0	1099.70	0	3.2910	0	34.5040	4	27.469	0	1088.029	0	14.8	4	4.6	4	-1E+10	1	-1E+10	1	-1E+10	1	-1E+10	1	-1E+10	1	-1E+10	1
4901784	93	C	01/20/2018	10:49	-133.172	43.665	0	1105.20	0	3.2790	0	34.5060	4	27.472	0	1093.456	0	15.0	4	4.7	4	-1E+10	1	-1E+10	1	-1E+10	1	-1E+10	1	-1E+10	1	-1E+10	1
4901784	93	C	01/20/2018	10:49	-133.172	43.665	0	1110.60	0	3.2750	0	34.5070	4	27.473	0	1098.784	0	15.2	4	4.7	4	-1E+10	1	-1E+10	1	-1E+10	1	-1E+10	1	-1E+10	1	-1E+10	1
4901784	93	C	01/20/2018	10:49	-133.172	43.665	0	1115.40	0	3.2700	0	34.5090	4	27.476	0	1103.521	0	15.3	4	4.8	4	-1E+10	1	-1E+10	1	-1E+10	1	-1E+10	1	-1E+10	1	-1E+10	1
4901784	93	C	01/20/2018	10:49	-133.172	43.665	0	1120.20	0	3.2640	0	34.5100	4	27.477	0	1108.257	0	15.5	4	4.8	4	-1E+10	1	-1E+10	1	-1E+10	1	-1E+10	1	-1E+10	1	-1E+10	1
4901784	93	C	01/20/2018	10:49	-133.172	43.665	0	1125.00	0	3.2540	0	34.5130	4	27.480	0	1112.993	0	15.6	4	4.9	4	-1E+10	1	-1E+10	1	-1E+10	1	-1E+10	1	-1E+10	1	-1E+10	1
4901784	93	C	01/20/2018	10:49	-133.172	43.665	0	1129.90	0	3.2460	0	34.5140	4	27.482	0	1117.828	0	15.7	4	4.9	4	-1E+10	1	-1E+10	1	-1E+10	1	-1E+10	1	-1E+10	1	-1E+10	1
4901784	93	C	01/20/2018	10:49	-133.172	43.665	0	1134.80	0	3.2410	0	34.5150	4	27.483	0	1122.662	0	15.8	4	4.9	4	-1E+10	1	-1E+10	1	-1E+10	1	-1E+10	1	-1E+10	1	-1E+10	1
4901784	93	C	01/20/2018	10:49	-133.172	43.665	0	1139.50	0	3.2290	0	34.5170	4	27.486	0	1127.299	0	15.9	4	4.9	4	-1E+10	1	-1E+10	1	-1E+10	1	-1E+10	1	-1E+10	1	-1E+10	1
4901784	93	C	01/20/2018	10:49	-133.172	43.665	0	1145.40	0	3.2120	0	34.5180	4	27.488	0	1133.120	0	15.9	4	4.9	4	-1E+10	1	-1E+10	1	-1E+10	1	-1E+10	1	-1E+10	1	-1E+10	1
4901784	93	C	01/20/2018	10:49	-133.172	43.665	0	1150.20	0	3.2070	0	34.5190	4	27.490	0	1137.856	0	16.0	4	5.0	4	-1E+10	1	-1E+10	1	-1E+10	1	-1E+10	1	-1E+10	1	-1E+10	1
4901784	93	C	01/20/2018	10:49	-133.172	43.665	0	1154.90	0	3.2020	0	34.5200	4	27.491	0	1142.493	0	16.0	4	5.0	4	-1E+10	1	-1E+10	1	-1E+10	1	-1E+10	1	-1E+10	1	-1E+10	1
4901784	93	C	01/20/2018	10:49	-133.172	43.665	0	1159.70	0	3.1920	0	34.5210	4	27.493	0	1147.228	0	16.1	4	5.0	4	-1E+10	1	-1E+10	1	-1E+10	1	-1E+10	1	-1E+10	1	-1E+10	1
4901784	93	C	01/20/2018	10:49	-133.172	43.665	0	1164.50	0	3.1860	0	34.5220	4	27.494	0	1151.963	0	16.2	4	5.0	4	-1E+10	1	-1E+10	1	-1E+10	1	-1E+10	1	-1E+10	1	-1E+10	1
4901784	93	C	01/20/2018	10:49	-133.172	43.665	0	1170.30	0	3.1760	0	34.5230	4	27.496	0	1157.685	0	16.3	4	5.1	4	-1E+10	1	-1E+10	1	-1E+10	1	-1E+10	1	-1E+10	1	-1E+10	1
4901784	93	C	01/20/2018	10:49	-133.172	43.665	0	1175.10	0	3.1700	0	34.5240	4	27.497	0	1162.420	0	16.4	4	5.1	4	-1E+10	1	-1E+10	1	-1E+10	1	-1E+10	1	-1E+10	1	-1E+10	1
4901784	93	C	01/20/2018	10:49	-133.172	43.665	0	1180.00	0	3.1640	0	34.5250	4	27.499	0	1167.253	0	16.5	4	5.1	4	-1E+10	1	-1E+10	1	-1E+10	1	-1E+10	1	-1E+10	1	-1E+10	1
4901784	93	C	01/20/2018	10:49	-133.172	43.665	0	1184.90	0	3.1540	0	34.5270	4	27.501	0	1172.087	0	16.6	4	5.1	4	-1E+10	1	-1E+10	1	-1E+10	1	-1E+10	1	-1E+10	1	-1E+10	1
4901784	93	C	01/20/2018	10:49	-133.172	43.665	0	1189.80	0	3.1490	0	34.5270	4	27.502	0	1176.920	0	16.6	4	5.1	4	-1E+10	1	-1E+10	1	-1E+10	1	-1E+10	1	-1E+10	1	-1E+10	1
4901784	93	C	01/20/2018	10:49	-133.172	43.665	0	1194.70	0	3.1450	0	34.5280	4	27.503	0	1181.753	0	16.6	4	5.2	4	-1E+10	1	-1E+10	1	-1E+10	1	-1E+10	1	-1E+10	1	-1E+10	1
4901784	93	C	01/20/2018	10:49	-133.172	43.665	0	1199.70	0	3.1380	0	34.5290	4	27.504	0	1186.685	0	16.7	4	5.2	4	-1E+10	1	-1E+10	1	-1E+10	1	-1E+10	1	-1E+10	1	-1E+10	1
4901784	93	C	01/20/2018	10:49	-133.172	43.665	0	1205.50	0	3.1320	0	34.5290	4	27.505	0	1192.406	0	16.8	4	5.2	4	-1E+10	1	-1E+10	1	-1E+10	1	-1E+10	1	-1E+10	1	-1E+10	1
4901784	93	C	01/20/2018	10:49	-133.172	43.665	0	1210.40	0	3.1270	0	34.5300	4	27.506	0	1197.238	0	17.0	4	5.3	4	-1E+10	1	-1E+10	1	-1E+10	1	-1E+10	1	-1E+10	1	-1E+10	1
4901784	93	C	01/20/2018	10:49	-133.172	43.665	0	1215.30	0	3.1130	0	34.5320	4	27.509	0	1202.071	0	17.1	4	5.3	4	-1E+10	1	-1E+10	1	-1E+10	1	-1E+10	1	-1E+10	1	-1E+10	1
4901784	93	C	01/20/2018	10:49	-133.172	43.665	0	1220.30	0	3.0960	0	34.5340	4	27.512	0	1207.002	0	17.3	4	5.3	4	-1E+10	1	-1E+10	1	-1E+10	1	-1E+10	1	-1E+10	1	-1E+10	1
4901784	93	C	01/20/2018	10:49	-133.172	43.665	0	1225.20	0	3.0880	0	34.5350	4	27.514	0	1211.835	0	17.4	4	5.4	4	-1E+10	1	-1E+10	1	-1E+10	1	-1E+10	1	-1E+10	1	-1E+10	1
4901784	93	C	01/20/2018	10:49	-133.172	43.665	0	1230.20	0	3.0760	0	34.5360	4	27.516	0	1216.766	0	17.5	4	5.4	4	-1E+10	1	-1E+10	1	-1E+10	1	-1E+10	1	-1E+10	1	-1E+10	1
4901784	93	C	01/20/2018	10:49	-133.172	43.665	0	1235.00	0	3.0520	0	34.5380	4	27.520	0	1221.500	0	17.7	4	5.5	4	-1E+10	1	-1E+10	1	-1E+10	1	-1E+10	1	-1E+10	1	-1E+10	1
4901784	93	C	01/20/2018	10:49	-133.172	43.665	0	1240.50	0	3.0370	0	34.5410	4	27.523	0	1226.923	0	17.9	4	5.5	4	-1E+10	1	-1E+10	1	-1E+10	1	-1E+10	1	-1E+10	1	-1E+10	1
4901784	93	C	01/20/2018	10:49	-133.172	43.665	0	1245.30	0	3.0330	0	34.5420	4	27.524	0	1231.657	0	18.0	4	5.6	4	-1E+10	1	-1E+10	1	-1E+10	1	-1E+10	1	-1E+10	1	-1E+10	1
4901784	93	C	01/20/2018	10:49	-133.172	43.665	0	1249.90	0	3.0290	0	34.5430	4	27.526	0	1236.193	0	18.2	4	5.6	4	-1E+10	1	-1E+10	1	-1E+10	1	-1E+10	1	-1E+10	1	-1E+10	1
4901784	93	C	01/20/2018	10:49	-133.172	43.665	0	1255.40	0	3.0200	0	34.5440	4	27.527	0	1241.616	0	18.3	4	5.7	4	-1E+10	1	-1E+10	1	-1E+10	1	-1E+10	1	-1E+10	1	-1E+10	1
4901784	93	C	01/20/2018	10:49	-133.172	43.665	0	1259.90	0	3.0180	0	34.5440	4	27.528	0	1246.054	0	18.4	4	5.7	4	-1E+10	1	-1E+10	1	-1E+10	1	-1E+10	1	-1E+10	1	-1E+10	1
4901784	93	C	01/20/2018	10:49	-133.172	43.665	0	1264.50	0	3.0100	0	34.5460	4	27.530	0	1250.589	0	18.6	4	5.8	4	-1E+10	1	-1E+10	1	-1E+10	1	-1E+10	1	-1E+10	1	-1E+10	1
4901784	93	C	01/20/2018	10:49	-133.172	43.665	0	1269.90	0	3.0030	0	34.5480	4	27.532	0	1255.914	0	18.8	4	5.8	4	-1E+10	1	-1E+10	1	-1E+10	1	-1E+10	1	-1E+10	1	-1E+10	1
4901784	93	C	01/20/2018	10:49	-133.172	43.665	0	1275.40	0	2.9950	0	34.5490	4	27.534	0	1261.337	0	19.0	4	5.9	4	-1E+10	1	-1E+10	1	-1E+10	1	-1E+10	1	-1E+10	1	-1E+10	1
4901784	93	C	01/20/2018	10:49	-133.172	43.665	0	1280.00	0	2.9880	0	34.5500	4	27.535	0	1265.872	0	19.2	4	5.9	4	-1E+10	1	-1E+10	1	-1E+10	1	-1E+10	1	-1E+10	1	-1E+10	1
4901784	93	C	01/20/2018	10:49	-133.172	43.665	0	1284.60	0	2.9790	0	34.5530	4	27.538	0	1270.408	0	19.4	4	6.0	4	-1E+10	1	-1E+10	1	-1E+10	1	-1E+10	1	-1E+10	1	-1E+10	1
4901784	93	C	01/20/2018	10:49	-133.172	43.665	0	1290.00	0	2.9760	0	34.5530	4	27.539	0	1275.732	0	19.5	4	6.0	4	-1E+10	1	-1E+10	1	-1E+10	1	-1E+10	1	-1E+10	1	-1E+10	1
4901784	93	C	01/20/2018	10:49	-133.172	43.665	0	1295.50	0	2.9710	0	34.5540	4	27.540	0	1281.154	0	19.7	4	6.1	4	-1E+10	1	-1E+10	1	-1E+10	1	-1E+10	1	-1E+10	1	-1E+10	1
4901784	93	C	01/20/2018	10:49	-133.172	43.665	0	1300.10	0	2.9640	0	34.5550	4	27.541	0	1285.689	0	19.9	4	6.1	4	-1E+10	1	-1E+10	1	-1E+10	1	-1E+10	1	-1E+10	1	-1E+10	1
4901784	93	C	01/20/2018	10:49	-133.172	43.665	0	1304.80	0	2.9510	0	34.5560	4	27.543	0	1290.323	0	20.1	4	6.2	4	-1E+10	1	-1E+10	1	-1E+10	1	-1E+10	1	-1E+10	1	-1E+10	1
4901784	93	C	01/20/2018	10:49	-133.172	43.665	0	1310.40	0	2.9330	0	34.5590	4	27.547	0	1295.843	0	20.3	4	6.3	4	-1E+10	1	-1E+10	1	-1E+10	1	-1E+10	1	-1E+10	1	-1E+10	1
4901784	93	C	01/20/2018	10:49	-133.172	43.665	0	1315.20	0	2.9280	0	34.5590	4	27.548	0	1300.575	0	20.4	4	6.3	4	-1E+10	1	-1E+10	1	-1E+10	1	-1E+10	1	-1E+10	1	-1E+10	1
4901784	93	C	01/20/2018	10:49	-133.172	43.665	0	1319.80	0	2.9200	0	34.5600	4	27.549	0	1305.110	0	20.7	4	6.4	4	-1E+10	1	-1E+10	1	-1E+10	1	-1E+10	1	-1E+10	1	-1E+10	1
4901784	93	C	01/20/2018	10:49	-133.172	43.665	0	1324.80	0	2.9040	0	34.5620	4	27.553	0	1310.039	0	21.0	4	6.5	4	-1E+10	1	-1E+10	1	-1E+10	1	-1E+10	1	-1E+10	1	-1E+10	1
4901784	93	C	01/20/2018	10:49	-133.172	43.665	0	1329.80	0	2.8960	0	34.5640	4	27.555	0	1314.967	0	21.2	4	6.5	4	-1E+10	1	-1E+10	1	-1E+10	1	-1E+10	1	-1E+10	1	-1E+10	1
4901784	93	C	01/20/2018	10:49	-133.172	43.665	0	1334.80	0	2.8850	0	34.5650	4	27.557	0	1319.896	0	21.5	4	6.6	4	-1E+10	1	-1E+10	1	-1E+10	1	-1E+10	1	-1E+10	1	-1E+10	1
4901784	93	C	01/20/2018	10:49	-133.172	43.665	0	1339.90	0	2.8720	0	34.5670	4	27.559	0	1324.923	0	21.9	4	6.7	4	-1E+10	1	-1E+10	1	-1E+10	1	-1E+10	1	-1E+10	1	-1E+10	1
4901784	93	C	01/20/2018	10:49	-133.172	43.665	0	1344.90	0	2.8600	0	34.5700	4	27.563	0	1329.851	0	22.1	4	6.8	4	-1E+10	1	-1E+10	1	-1E+10	1	-1E+10	1	-1E+10	1	-1E+10	1
4901784	93	C	01/20/2018	10:49	-133.172	43.665	0	1350.00	0	2.8560	0	34.5700	4	27.563	0	1334.878	0	22.2	4	6.8	4	-1E+10	1	-1E+10	1	-1E+10	1	-1E+10	1	-1E+10	1	-1E+10	1
4901784	93	C	01/20/2018	10:49	-133.172	43.665	0	1355.00	0	2.8540	0	34.5700	4	27.564	0	1339.806	0	22.4	4	6.9	4	-1E+10	1	-1E+10	1	-1E+10	1	-1E+10	1	-1E+10	1	-1E+10	1
4901784	93	C	01/20/2018	10:49	-133.172	43.665	0	1360.00	0	2.8450	0	34.5720	4	27.566	0	1344.734	0	22.8	4	7.0	4	-1E+10	1	-1E+10	1	-1E+10	1	-1E+10	1	-1E+10	1	-1E+10	1
4901784	93	C	01/20/2018	10:49	-133.172	43.665	0	1365.10	0	2.8350	0	34.5740	4	27.568	0	1349.761	0	23.0	4	7.1	4	-1E+10	1	-1E+10	1	-1E+10	1	-1E+10	1	-1E+10	1	-1E+10	1
4901784	93	C	01/20/2018	10:49	-133.172	43.665	0	1370.10	0	2.8250	0	34.5750	4	27.570	0	1354.688	0	23.3	4	7.2	4	-1E+10	1	-1E+10	1	-1E+10	1	-1E+10	1	-1E+10	1	-1E+10	1
4901784	93	C	01/20/2018	10:49	-133.172	43.665	0	1375.20	0	2.8100	0	34.5770	4	27.573	0	1359.715	0	23.5	4	7.2	4	-1E+10	1	-1E+10	1	-1E+10	1	-1E+10	1	-1E+10	1	-1E+10	1
4901784	93	C	01/20/2018	10:49	-133.172	43.665	0	1380.40	0	2.8050	0	34.5780	4	27.574	0	1364.839	0	23.6	4	7.3	4	-1E+10	1	-1E+10	1	-1E+10	1	-1E+10	1	-1E+10	1	-1E+10	1
4901784	93	C	01/20/2018	10:49	-133.172	43.665	0	1385.60	0	2.8000	0	34.5780	4	27.575	0	1369.964	0	23.8	4	7.3	4	-1E+10	1	-1E+10	1	-1E+10	1	-1E+10	1	-1E+10	1	-1E+10	1
4901784	93	C	01/20/2018	10:49	-133.172	43.665	0	1390.70	0	2.7920	0	34.5790	4	27.576	0	1374.990	0	23.9	4	7.3	4	-1E+10	1	-1E+10	1	-1E+10	1	-1E+10	1	-1E+10	1	-1E+10	1
4901784	93	C	01/20/2018	10:49	-133.172	43.665	0	1395.10	0	2.7840	0	34.5790	4	27.577	0	1379.325	0	23.9	4	7.4	4	-1E+10	1	-1E+10	1	-1E+10	1	-1E+10	1	-1E+10	1	-1E+10	1
4901784	93	C	01/20/2018	10:49	-133.172	43.665	0	1399.40	0	2.7720	0	34.5800	4	27.579	0	1383.563	0	24.0	4	7.4	4	-1E+10	1	-1E+10	1	-1E+10	1	-1E+10	1	-1E+10	1	-1E+10	1
4901784	93	C	01/20/2018	10:49	-133.172	43.665	0	1404.60	0	2.7620	0	34.5800	4	27.580	0	1388.687	0	24.0	4	7.4	4	-1E+10	1	-1E+10	1	-1E+10	1	-1E+10	1	-1E+10	1	-1E+10	1
4901784	93	C	01/20/2018	10:49	-133.172	43.665	0	1409.80	0	2.7480	0	34.5800	4	27.581	0	1393.811	0	24.0	4	7.4	4	-1E+10	1	-1E+10	1	-1E+10	1	-1E+10	1	-1E+10	1	-1E+10	1
4901784	93	C	01/20/2018	10:49	-133.172	43.665	0	1415.10	0	2.7370	0	34.5800	4	27.582	0	1399.033	0	24.2	4	7.4	4	-1E+10	1	-1E+10	1	-1E+10	1	-1E+10	1	-1E+10	1	-1E+10	1
4901784	93	C	01/20/2018	10:49	-133.172	43.665	0	1420.40	0	2.7190	0	34.5820	4	27.585	0	1404.255	0	24.6	4	7.5	4	-1E+10	1	-1E+10	1	-1E+10	1	-1E+10	1	-1E+10	1	-1E+10	1
4901784	93	C	01/20/2018	10:49	-133.172	43.665	0	1425.60	0	2.7090	0	34.5830	4	27.587	0	1409.379	0	24.9	4	7.6	4	-1E+10	1	-1E+10	1	-1E+10	1	-1E+10	1	-1E+10	1	-1E+10	1
4901784	93	C	01/20/2018	10:49	-133.172	43.665	0	1430.00	0	2.6930	0	34.5850	4	27.590	0	1413.714	0	25.0	4	7.7	4	-1E+10	1	-1E+10	1	-1E+10	1	-1E+10	1	-1E+10	1	-1E+10	1
4901784	93	C	01/20/2018	10:49	-133.172	43.665	0	1434.50	0	2.6820	0	34.5850	4	27.591	0	1418.148	0	25.0	4	7.7	4	-1E+10	1	-1E+10	1	-1E+10	1	-1E+10	1	-1E+10	1	-1E+10	1
4901784	93	C	01/20/2018	10:49	-133.172	43.665	0	1439.90	0	2.6790	0	34.5850	4	27.591	0	1423.468	0	24.9	4	7.6	4	-1E+10	1	-1E+10	1	-1E+10	1	-1E+10	1	-1E+10	1	-1E+10	1
4901784	93	C	01/20/2018	10:49	-133.172	43.665	0	1445.30	0	2.6750	0	34.5840	4	27.591	0	1428.788	0	24.9	4	7.6	4	-1E+10	1	-1E+10	1	-1E+10	1	-1E+10	1	-1E+10	1	-1E+10	1
4901784	93	C	01/20/2018	10:49	-133.172	43.665	0	1450.70	0	2.6600	0	34.5840	4	27.592	0	1434.108	0	25.0	4	7.7	4	-1E+10	1	-1E+10	1	-1E+10	1	-1E+10	1	-1E+10	1	-1E+10	1
4901784	93	C	01/20/2018	10:49	-133.172	43.665	0	1455.20	0	2.6350	0	34.5860	4	27.596	0	1438.541	0	25.2	4	7.7	4	-1E+10	1	-1E+10	1	-1E+10	1	-1E+10	1	-1E+10	1	-1E+10	1
4901784	93	C	01/20/2018	10:49	-133.172	43.665	0	1460.00	0	2.6220	0	34.5870	4	27.598	0	1443.270	0	25.4	4	7.8	4	-1E+10	1	-1E+10	1	-1E+10	1	-1E+10	1	-1E+10	1	-1E+10	1
4901784	93	C	01/20/2018	10:49	-133.172	43.665	0	1465.10	0	2.6130	0	34.5880	4	27.599	0	1448.294	0	25.6	4	7.8	4	-1E+10	1	-1E+10	1	-1E+10	1	-1E+10	1	-1E+10	1	-1E+10	1
4901784	93	C	01/20/2018	10:49	-133.172	43.665	0	1469.90	0	2.6080	0	34.5880	4	27.600	0	1453.022	0	25.8	4	7.9	4	-1E+10	1	-1E+10	1	-1E+10	1	-1E+10	1	-1E+10	1	-1E+10	1
4901784	93	C	01/20/2018	10:49	-133.172	43.665	0	1474.70	0	2.6020	0	34.5890	4	27.601	0	1457.751	0	26.0	4	8.0	4	-1E+10	1	-1E+10	1	-1E+10	1	-1E+10	1	-1E+10	1	-1E+10	1
4901784	93	C	01/20/2018	10:49	-133.172	43.665	0	1479.50	0	2.5890	0	34.5900	4	27.603	0	1462.479	0	26.4	4	8.1	4	-1E+10	1	-1E+10	1	-1E+10	1	-1E+10	1	-1E+10	1	-1E+10	1
4901784	93	C	01/20/2018	10:49	-133.172	43.665	0	1484.40	0	2.5730	0	34.5910	4	27.605	0	1467.306	0	26.7	4	8.2	4	-1E+10	1	-1E+10	1	-1E+10	1	-1E+10	1	-1E+10	1	-1E+10	1
4901784	93	C	01/20/2018	10:49	-133.172	43.665	0	1489.30	0	2.5600	0	34.5920	4	27.607	0	1472.132	0	27.0	4	8.3	4	-1E+10	1	-1E+10	1	-1E+10	1	-1E+10	1	-1E+10	1	-1E+10	1
4901784	93	C	01/20/2018	10:49	-133.172	43.665	0	1495.00	0	2.5460	0	34.5940	4	27.610	0	1477.746	0	27.3	4	8.3	4	-1E+10	1	-1E+10	1	-1E+10	1	-1E+10	1	-1E+10	1	-1E+10	1
4901784	93	C	01/20/2018	10:49	-133.172	43.665	0	1500.70	0	2.5310	0	34.5960	4	27.613	0	1483.361	0	27.6	4	8.4	4	-1E+10	1	-1E+10	1	-1E+10	1	-1E+10	1	-1E+10	1	-1E+10	1
4901784	93	C	01/20/2018	10:49	-133.172	43.665	0	1505.70	0	2.5250	0	34.5960	4	27.614	0	1488.285	0	27.7	4	8.5	4	-1E+10	1	-1E+10	1	-1E+10	1	-1E+10	1	-1E+10	1	-1E+10	1
4901784	93	C	01/20/2018	10:49	-133.172	43.665	0	1510.60	0	2.5190	0	34.5960	4	27.614	0	1493.111	0	27.9	4	8.5	4	-1E+10	1	-1E+10	1	-1E+10	1	-1E+10	1	-1E+10	1	-1E+10	1
4901784	93	C	01/20/2018	10:49	-133.172	43.665	0	1515.60	0	2.5110	0	34.5970	4	27.616	0	1498.036	0	28.2	4	8.6	4	-1E+10	1	-1E+10	1	-1E+10	1	-1E+10	1	-1E+10	1	-1E+10	1
4901784	93	C	01/20/2018	10:49	-133.172	43.665	0	1520.50	0	2.5030	0	34.5980	4	27.617	0	1502.862	0	28.5	4	8.7	4	-1E+10	1	-1E+10	1	-1E+10	1	-1E+10	1	-1E+10	1	-1E+10	1
4901784	93	C	01/20/2018	10:49	-133.172	43.665	0	1525.60	0	2.4920	0	34.5990	4	27.619	0	1507.884	0	28.8	4	8.8	4	-1E+10	1	-1E+10	1	-1E+10	1	-1E+10	1	-1E+10	1	-1E+10	1
4901784	93	C	01/20/2018	10:49	-133.172	43.665	0	1530.70	0	2.4790	0	34.6010	4	27.622	0	1512.907	0	29.1	4	8.9	4	-1E+10	1	-1E+10	1	-1E+10	1	-1E+10	1	-1E+10	1	-1E+10	1
4901784	93	C	01/20/2018	10:49	-133.172	43.665	0	1535.80	0	2.4720	0	34.6010	4	27.622	0	1517.929	0	29.3	4	8.9	4	-1E+10	1	-1E+10	1	-1E+10	1	-1E+10	1	-1E+10	1	-1E+10	1
4901784	93	C	01/20/2018	10:49	-133.172	43.665	0	1540.00	0	2.4670	0	34.6020	4	27.623	0	1522.065	0	29.5	4	9.0	4	-1E+10	1	-1E+10	1	-1E+10	1	-1E+10	1	-1E+10	1	-1E+10	1
4901784	93	C	01/20/2018	10:49	-133.172	43.665	0	1544.30	0	2.4650	0	34.6020	4	27.624	0	1526.300	0	29.6	4	9.0	4	-1E+10	1	-1E+10	1	-1E+10	1	-1E+10	1	-1E+10	1	-1E+10	1
4901784	93	C	01/20/2018	10:49	-133.172	43.665	0	1549.40	0	2.4560	0	34.6030	4	27.625	0	1531.322	0	29.9	4	9.1	4	-1E+10	1	-1E+10	1	-1E+10	1	-1E+10	1	-1E+10	1	-1E+10	1
4901784	93	C	01/20/2018	10:49	-133.172	43.665	0	1554.60	0	2.4500	0	34.6040	4	27.626	0	1536.442	0	30.1	4	9.2	4	-1E+10	1	-1E+10	1	-1E+10	1	-1E+10	1	-1E+10	1	-1E+10	1
4901784	93	C	01/20/2018	10:49	-133.172	43.665	0	1559.80	0	2.4420	0	34.6040	4	27.627	0	1541.563	0	30.5	4	9.3	4	-1E+10	1	-1E+10	1	-1E+10	1	-1E+10	1	-1E+10	1	-1E+10	1
4901784	93	C	01/20/2018	10:49	-133.172	43.665	0	1565.00	0	2.4320	0	34.6060	4	27.630	0	1546.683	0	30.8	4	9.4	4	-1E+10	1	-1E+10	1	-1E+10	1	-1E+10	1	-1E+10	1	-1E+10	1
4901784	93	C	01/20/2018	10:49	-133.172	43.665	0	1570.30	0	2.4230	0	34.6070	4	27.631	0	1551.901	0	31.2	4	9.5	4	-1E+10	1	-1E+10	1	-1E+10	1	-1E+10	1	-1E+10	1	-1E+10	1
4901784	93	C	01/20/2018	10:49	-133.172	43.665	0	1575.60	0	2.4120	0	34.6080	4	27.633	0	1557.120	0	31.5	4	9.6	4	-1E+10	1	-1E+10	1	-1E+10	1	-1E+10	1	-1E+10	1	-1E+10	1
4901784	93	C	01/20/2018	10:49	-133.172	43.665	0	1580.00	0	2.4040	0	34.6090	4	27.634	0	1561.452	0	31.8	4	9.7	4	-1E+10	1	-1E+10	1	-1E+10	1	-1E+10	1	-1E+10	1	-1E+10	1
4901784	93	C	01/20/2018	10:49	-133.172	43.665	0	1584.50	0	2.3940	0	34.6100	4	27.636	0	1565.882	0	32.1	4	9.8	4	-1E+10	1	-1E+10	1	-1E+10	1	-1E+10	1	-1E+10	1	-1E+10	1
4901784	93	C	01/20/2018	10:49	-133.172	43.665	0	1590.60	0	2.3900	0	34.6100	4	27.636	0	1571.888	0	32.4	4	9.9	4	-1E+10	1	-1E+10	1	-1E+10	1	-1E+10	1	-1E+10	1	-1E+10	1
4901784	93	C	01/20/2018	10:49	-133.172	43.665	0	1595.60	0	2.3820	0	34.6110	4	27.638	0	1576.811	0	32.9	4	10.0	4	-1E+10	1	-1E+10	1	-1E+10	1	-1E+10	1	-1E+10	1	-1E+10	1
4901784	93	C	01/20/2018	10:49	-133.172	43.665	0	1600.20	0	2.3700	0	34.6140	4	27.641	0	1581.339	0	33.4	4	10.2	4	-1E+10	1	-1E+10	1	-1E+10	1	-1E+10	1	-1E+10	1	-1E+10	1
4901784	93	C	01/20/2018	10:49	-133.172	43.665	0	1604.90	0	2.3600	0	34.6150	4	27.643	0	1585.966	0	33.9	4	10.3	4	-1E+10	1	-1E+10	1	-1E+10	1	-1E+10	1	-1E+10	1	-1E+10	1
4901784	93	C	01/20/2018	10:49	-133.172	43.665	0	1609.70	0	2.3490	0	34.6160	4	27.645	0	1590.692	0	34.3	4	10.4	4	-1E+10	1	-1E+10	1	-1E+10	1	-1E+10	1	-1E+10	1	-1E+10	1
4901784	93	C	01/20/2018	10:49	-133.172	43.665	0	1614.50	0	2.3350	0	34.6170	4	27.647	0	1595.417	0	34.9	4	10.6	4	-1E+10	1	-1E+10	1	-1E+10	1	-1E+10	1	-1E+10	1	-1E+10	1
4901784	93	C	01/20/2018	10:49	-133.172	43.665	0	1619.40	0	2.3170	0	34.6200	4	27.651	0	1600.240	0	35.4	4	10.8	4	-1E+10	1	-1E+10	1	-1E+10	1	-1E+10	1	-1E+10	1	-1E+10	1
4901784	93	C	01/20/2018	10:49	-133.172	43.665	0	1624.40	0	2.3090	0	34.6210	4	27.652	0	1605.162	0	35.7	4	10.8	4	-1E+10	1	-1E+10	1	-1E+10	1	-1E+10	1	-1E+10	1	-1E+10	1
4901784	93	C	01/20/2018	10:49	-133.172	43.665	0	1629.50	0	2.3070	0	34.6210	4	27.652	0	1610.183	0	35.9	4	10.9	4	-1E+10	1	-1E+10	1	-1E+10	1	-1E+10	1	-1E+10	1	-1E+10	1
4901784	93	C	01/20/2018	10:49	-133.172	43.665	0	1634.50	0	2.3000	0	34.6220	4	27.654	0	1615.104	0	36.2	4	11.0	4	-1E+10	1	-1E+10	1	-1E+10	1	-1E+10	1	-1E+10	1	-1E+10	1
4901784	93	C	01/20/2018	10:49	-133.172	43.665	0	1639.50	0	2.2950	0	34.6230	4	27.655	0	1620.026	0	36.4	4	11.1	4	-1E+10	1	-1E+10	1	-1E+10	1	-1E+10	1	-1E+10	1	-1E+10	1
4901784	93	C	01/20/2018	10:49	-133.172	43.665	0	1644.50	0	2.2910	0	34.6230	4	27.655	0	1624.947	0	36.7	4	11.1	4	-1E+10	1	-1E+10	1	-1E+10	1	-1E+10	1	-1E+10	1	-1E+10	1
4901784	93	C	01/20/2018	10:49	-133.172	43.665	0	1649.60	0	2.2870	0	34.6230	4	27.656	0	1629.967	0	37.1	4	11.3	4	-1E+10	1	-1E+10	1	-1E+10	1	-1E+10	1	-1E+10	1	-1E+10	1
4901784	93	C	01/20/2018	10:49	-133.172	43.665	0	1654.60	0	2.2710	0	34.6260	4	27.659	0	1634.888	0	37.8	4	11.5	4	-1E+10	1	-1E+10	1	-1E+10	1	-1E+10	1	-1E+10	1	-1E+10	1
4901784	93	C	01/20/2018	10:49	-133.172	43.665	0	1659.70	0	2.2630	0	34.6280	4	27.662	0	1639.908	0	38.1	4	11.6	4	-1E+10	1	-1E+10	1	-1E+10	1	-1E+10	1	-1E+10	1	-1E+10	1
4901784	93	C	01/20/2018	10:49	-133.172	43.665	0	1664.90	0	2.2590	0	34.6280	4	27.662	0	1645.026	0	38.5	4	11.7	4	-1E+10	1	-1E+10	1	-1E+10	1	-1E+10	1	-1E+10	1	-1E+10	1
4901784	93	C	01/20/2018	10:49	-133.172	43.665	0	1670.00	0	2.2500	0	34.6290	4	27.664	0	1650.045	0	38.9	4	11.8	4	-1E+10	1	-1E+10	1	-1E+10	1	-1E+10	1	-1E+10	1	-1E+10	1
4901784	93	C	01/20/2018	10:49	-133.172	43.665	0	1675.20	0	2.2430	0	34.6300	4	27.665	0	1655.162	0	39.2	4	11.9	4	-1E+10	1	-1E+10	1	-1E+10	1	-1E+10	1	-1E+10	1	-1E+10	1
4901784	93	C	01/20/2018	10:49	-133.172	43.665	0	1680.50	0	2.2360	0	34.6310	4	27.666	0	1660.378	0	39.6	4	12.0	4	-1E+10	1	-1E+10	1	-1E+10	1	-1E+10	1	-1E+10	1	-1E+10	1
4901784	93	C	01/20/2018	10:49	-133.172	43.665	0	1684.90	0	2.2300	0	34.6320	4	27.668	0	1664.708	0	39.9	4	12.1	4	-1E+10	1	-1E+10	1	-1E+10	1	-1E+10	1	-1E+10	1	-1E+10	1
4901784	93	C	01/20/2018	10:49	-133.172	43.665	0	1689.30	0	2.2250	0	34.6330	4	27.669	0	1669.038	0	40.1	4	12.2	4	-1E+10	1	-1E+10	1	-1E+10	1	-1E+10	1	-1E+10	1	-1E+10	1
4901784	93	C	01/20/2018	10:49	-133.172	43.665	0	1694.70	0	2.2210	0	34.6330	4	27.669	0	1674.352	0	40.3	4	12.2	4	-1E+10	1	-1E+10	1	-1E+10	1	-1E+10	1	-1E+10	1	-1E+10	1
4901784	93	C	01/20/2018	10:49	-133.172	43.665	0	1700.30	0	2.2140	0	34.6340	4	27.671	0	1679.863	0	40.7	4	12.3	4	-1E+10	1	-1E+10	1	-1E+10	1	-1E+10	1	-1E+10	1	-1E+10	1
4901784	93	C	01/20/2018	10:49	-133.172	43.665	0	1705.10	0	2.2090	0	34.6350	4	27.672	0	1684.586	0	40.9	4	12.4	4	-1E+10	1	-1E+10	1	-1E+10	1	-1E+10	1	-1E+10	1	-1E+10	1
4901784	93	C	01/20/2018	10:49	-133.172	43.665	0	1709.80	0	2.2030	0	34.6350	4	27.672	0	1689.211	0	41.3	4	12.5	4	-1E+10	1	-1E+10	1	-1E+10	1	-1E+10	1	-1E+10	1	-1E+10	1
4901784	93	C	01/20/2018	10:49	-133.172	43.665	0	1715.40	0	2.1970	0	34.6360	4	27.674	0	1694.721	0	41.5	4	12.6	4	-1E+10	1	-1E+10	1	-1E+10	1	-1E+10	1	-1E+10	1	-1E+10	1
4901784	93	C	01/20/2018	10:49	-133.172	43.665	0	1720.10	0	2.1940	0	34.6370	4	27.675	0	1699.346	0	41.7	4	12.6	4	-1E+10	1	-1E+10	1	-1E+10	1	-1E+10	1	-1E+10	1	-1E+10	1
4901784	93	C	01/20/2018	10:49	-133.172	43.665	0	1724.80	0	2.1920	0	34.6370	4	27.675	0	1703.970	0	42.0	4	12.7	4	-1E+10	1	-1E+10	1	-1E+10	1	-1E+10	1	-1E+10	1	-1E+10	1
4901784	93	C	01/20/2018	10:49	-133.172	43.665	0	1730.50	0	2.1870	0	34.6380	4	27.676	0	1709.578	0	42.4	4	12.8	4	-1E+10	1	-1E+10	1	-1E+10	1	-1E+10	1	-1E+10	1	-1E+10	1
4901784	93	C	01/20/2018	10:49	-133.172	43.665	0	1735.20	0	2.1800	0	34.6390	4	27.677	0	1714.202	0	42.7	4	12.9	4	-1E+10	1	-1E+10	1	-1E+10	1	-1E+10	1	-1E+10	1	-1E+10	1
4901784	93	C	01/20/2018	10:49	-133.172	43.665	0	1739.90	0	2.1740	0	34.6400	4	27.679	0	1718.827	0	43.0	4	13.0	4	-1E+10	1	-1E+10	1	-1E+10	1	-1E+10	1	-1E+10	1	-1E+10	1
4901784	93	C	01/20/2018	10:49	-133.172	43.665	0	1745.50	0	2.1680	0	34.6410	4	27.680	0	1724.336	0	43.2	4	13.1	4	-1E+10	1	-1E+10	1	-1E+10	1	-1E+10	1	-1E+10	1	-1E+10	1
4901784	93	C	01/20/2018	10:49	-133.172	43.665	0	1750.20	0	2.1670	0	34.6410	4	27.680	0	1728.960	0	43.5	4	13.2	4	-1E+10	1	-1E+10	1	-1E+10	1	-1E+10	1	-1E+10	1	-1E+10	1
4901784	93	C	01/20/2018	10:49	-133.172	43.665	0	1754.90	0	2.1590	0	34.6420	4	27.682	0	1733.584	0	43.8	4	13.3	4	-1E+10	1	-1E+10	1	-1E+10	1	-1E+10	1	-1E+10	1	-1E+10	1
4901784	93	C	01/20/2018	10:49	-133.172	43.665	0	1759.90	0	2.1560	0	34.6430	4	27.683	0	1738.502	0	44.1	4	13.4	4	-1E+10	1	-1E+10	1	-1E+10	1	-1E+10	1	-1E+10	1	-1E+10	1
4901784	93	C	01/20/2018	10:49	-133.172	43.665	0	1764.80	0	2.1490	0	34.6430	4	27.683	0	1743.323	0	44.6	4	13.5	4	-1E+10	1	-1E+10	1	-1E+10	1	-1E+10	1	-1E+10	1	-1E+10	1
4901784	93	C	01/20/2018	10:49	-133.172	43.665	0	1769.70	0	2.1400	0	34.6450	4	27.686	0	1748.143	0	45.0	4	13.6	4	-1E+10	1	-1E+10	1	-1E+10	1	-1E+10	1	-1E+10	1	-1E+10	1
4901784	93	C	01/20/2018	10:49	-133.172	43.665	0	1774.60	0	2.1360	0	34.6460	4	27.687	0	1752.963	0	45.2	4	13.7	4	-1E+10	1	-1E+10	1	-1E+10	1	-1E+10	1	-1E+10	1	-1E+10	1
4901784	93	C	01/20/2018	10:49	-133.172	43.665	0	1779.40	0	2.1340	0	34.6460	4	27.687	0	1757.685	0	45.3	4	13.7	4	-1E+10	1	-1E+10	1	-1E+10	1	-1E+10	1	-1E+10	1	-1E+10	1
4901784	93	C	01/20/2018	10:49	-133.172	43.665	0	1784.40	0	2.1330	0	34.6470	4	27.688	0	1762.603	0	45.5	4	13.8	4	-1E+10	1	-1E+10	1	-1E+10	1	-1E+10	1	-1E+10	1	-1E+10	1
4901784	93	C	01/20/2018	10:49	-133.172	43.665	0	1789.30	0	2.1310	0	34.6470	4	27.688	0	1767.423	0	45.8	4	13.8	4	-1E+10	1	-1E+10	1	-1E+10	1	-1E+10	1	-1E+10	1	-1E+10	1
4901784	93	C	01/20/2018	10:49	-133.172	43.665	0	1794.30	0	2.1230	0	34.6480	4	27.690	0	1772.341	0	46.1	4	14.0	4	-1E+10	1	-1E+10	1	-1E+10	1	-1E+10	1	-1E+10	1	-1E+10	1
4901784	93	C	01/20/2018	10:49	-133.172	43.665	0	1799.30	0	2.1190	0	34.6490	4	27.691	0	1777.259	0	46.4	4	14.1	4	-1E+10	1	-1E+10	1	-1E+10	1	-1E+10	1	-1E+10	1	-1E+10	1
4901784	93	C	01/20/2018	10:49	-133.172	43.665	0	1804.30	0	2.1120	0	34.6490	4	27.691	0	1782.176	0	46.8	4	14.2	4	-1E+10	1	-1E+10	1	-1E+10	1	-1E+10	1	-1E+10	1	-1E+10	1
4901784	93	C	01/20/2018	10:49	-133.172	43.665	0	1809.20	0	2.1060	0	34.6510	4	27.693	0	1786.996	0	47.1	4	14.2	4	-1E+10	1	-1E+10	1	-1E+10	1	-1E+10	1	-1E+10	1	-1E+10	1
4901784	93	C	01/20/2018	10:49	-133.172	43.665	0	1814.20	0	2.1030	0	34.6510	4	27.694	0	1791.913	0	47.3	4	14.3	4	-1E+10	1	-1E+10	1	-1E+10	1	-1E+10	1	-1E+10	1	-1E+10	1
4901784	93	C	01/20/2018	10:49	-133.172	43.665	0	1819.30	0	2.1000	0	34.6510	4	27.694	0	1796.929	0	47.4	4	14.3	4	-1E+10	1	-1E+10	1	-1E+10	1	-1E+10	1	-1E+10	1	-1E+10	1
4901784	93	C	01/20/2018	10:49	-133.172	43.665	0	1824.40	0	2.0970	0	34.6520	4	27.695	0	1801.945	0	47.6	4	14.4	4	-1E+10	1	-1E+10	1	-1E+10	1	-1E+10	1	-1E+10	1	-1E+10	1
4901784	93	C	01/20/2018	10:49	-133.172	43.665	0	1829.50	0	2.0960	0	34.6520	4	27.695	0	1806.960	0	47.7	4	14.4	4	-1E+10	1	-1E+10	1	-1E+10	1	-1E+10	1	-1E+10	1	-1E+10	1
4901784	93	C	01/20/2018	10:49	-133.172	43.665	0	1834.50	0	2.0950	0	34.6520	4	27.695	0	1811.877	0	47.9	4	14.5	4	-1E+10	1	-1E+10	1	-1E+10	1	-1E+10	1	-1E+10	1	-1E+10	1
4901784	93	C	01/20/2018	10:49	-133.172	43.665	0	1839.50	0	2.0890	0	34.6530	4	27.697	0	1816.794	0	48.2	4	14.6	4	-1E+10	1	-1E+10	1	-1E+10	1	-1E+10	1	-1E+10	1	-1E+10	1
4901784	93	C	01/20/2018	10:49	-133.172	43.665	0	1844.60	0	2.0870	0	34.6540	4	27.698	0	1821.810	0	48.3	4	14.6	4	-1E+10	1	-1E+10	1	-1E+10	1	-1E+10	1	-1E+10	1	-1E+10	1
4901784	93	C	01/20/2018	10:49	-133.172	43.665	0	1849.70	0	2.0840	0	34.6540	4	27.698	0	1826.825	0	48.6	4	14.7	4	-1E+10	1	-1E+10	1	-1E+10	1	-1E+10	1	-1E+10	1	-1E+10	1
4901784	93	C	01/20/2018	10:49	-133.172	43.665	0	1854.80	0	2.0800	0	34.6550	4	27.699	0	1831.840	0	48.8	4	14.7	4	-1E+10	1	-1E+10	1	-1E+10	1	-1E+10	1	-1E+10	1	-1E+10	1
4901784	93	C	01/20/2018	10:49	-133.172	43.665	0	1860.00	0	2.0790	0	34.6550	4	27.699	0	1836.953	0	48.9	4	14.8	4	-1E+10	1	-1E+10	1	-1E+10	1	-1E+10	1	-1E+10	1	-1E+10	1
4901784	93	C	01/20/2018	10:49	-133.172	43.665	0	1865.20	0	2.0770	0	34.6550	4	27.699	0	1842.066	0	49.2	4	14.9	4	-1E+10	1	-1E+10	1	-1E+10	1	-1E+10	1	-1E+10	1	-1E+10	1
4901784	93	C	01/20/2018	10:49	-133.172	43.665	0	1870.30	0	2.0720	0	34.6550	4	27.700	0	1847.080	0	49.5	4	15.0	4	-1E+10	1	-1E+10	1	-1E+10	1	-1E+10	1	-1E+10	1	-1E+10	1
4901784	93	C	01/20/2018	10:49	-133.172	43.665	0	1875.50	0	2.0600	0	34.6560	4	27.701	0	1852.193	0	50.0	4	15.1	4	-1E+10	1	-1E+10	1	-1E+10	1	-1E+10	1	-1E+10	1	-1E+10	1
4901784	93	C	01/20/2018	10:49	-133.172	43.665	0	1880.70	0	2.0550	0	34.6570	4	27.703	0	1857.306	0	50.4	4	15.2	4	-1E+10	1	-1E+10	1	-1E+10	1	-1E+10	1	-1E+10	1	-1E+10	1
4901784	93	C	01/20/2018	10:49	-133.172	43.665	0	1885.10	0	2.0510	0	34.6580	4	27.704	0	1861.632	0	50.7	4	15.3	4	-1E+10	1	-1E+10	1	-1E+10	1	-1E+10	1	-1E+10	1	-1E+10	1
4901784	93	C	01/20/2018	10:49	-133.172	43.665	0	1889.50	0	2.0430	0	34.6590	4	27.705	0	1865.958	0	51.1	4	15.4	4	-1E+10	1	-1E+10	1	-1E+10	1	-1E+10	1	-1E+10	1	-1E+10	1
4901784	93	C	01/20/2018	10:49	-133.172	43.665	0	1894.80	0	2.0410	0	34.6600	4	27.706	0	1871.169	0	51.3	4	15.5	4	-1E+10	1	-1E+10	1	-1E+10	1	-1E+10	1	-1E+10	1	-1E+10	1
4901784	93	C	01/20/2018	10:49	-133.172	43.665	0	1900.20	0	2.0400	0	34.6600	4	27.706	0	1876.477	0	51.6	4	15.6	4	-1E+10	1	-1E+10	1	-1E+10	1	-1E+10	1	-1E+10	1	-1E+10	1
4901784	93	C	01/20/2018	10:49	-133.172	43.665	0	1905.60	0	2.0350	0	34.6610	4	27.708	0	1881.786	0	52.2	4	15.8	4	-1E+10	1	-1E+10	1	-1E+10	1	-1E+10	1	-1E+10	1	-1E+10	1
4901784	93	C	01/20/2018	10:49	-133.172	43.665	0	1910.10	0	2.0310	0	34.6620	4	27.709	0	1886.210	0	52.4	4	15.8	4	-1E+10	1	-1E+10	1	-1E+10	1	-1E+10	1	-1E+10	1	-1E+10	1
4901784	93	C	01/20/2018	10:49	-133.172	43.665	0	1914.70	0	2.0290	0	34.6620	4	27.709	0	1890.732	0	52.7	4	15.9	4	-1E+10	1	-1E+10	1	-1E+10	1	-1E+10	1	-1E+10	1	-1E+10	1
4901784	93	C	01/20/2018	10:49	-133.172	43.665	0	1920.10	0	2.0270	0	34.6630	4	27.710	0	1896.040	0	53.1	4	16.0	4	-1E+10	1	-1E+10	1	-1E+10	1	-1E+10	1	-1E+10	1	-1E+10	1
4901784	93	C	01/20/2018	10:49	-133.172	43.665	0	1924.80	0	2.0240	0	34.6640	4	27.711	0	1900.661	0	53.5	4	16.1	4	-1E+10	1	-1E+10	1	-1E+10	1	-1E+10	1	-1E+10	1	-1E+10	1
4901784	93	C	01/20/2018	10:49	-133.172	43.665	0	1929.30	0	2.0190	0	34.6650	4	27.712	0	1905.084	0	53.7	4	16.2	4	-1E+10	1	-1E+10	1	-1E+10	1	-1E+10	1	-1E+10	1	-1E+10	1
4901784	93	C	01/20/2018	10:49	-133.172	43.665	0	1934.80	0	2.0170	0	34.6650	4	27.712	0	1910.490	0	53.9	4	16.3	4	-1E+10	1	-1E+10	1	-1E+10	1	-1E+10	1	-1E+10	1	-1E+10	1
4901784	93	C	01/20/2018	10:49	-133.172	43.665	0	1940.30	0	2.0130	0	34.6660	4	27.713	0	1915.896	0	54.1	4	16.3	4	-1E+10	1	-1E+10	1	-1E+10	1	-1E+10	1	-1E+10	1	-1E+10	1
4901784	93	C	01/20/2018	10:49	-133.172	43.665	0	1945.70	0	2.0090	0	34.6660	4	27.714	0	1921.204	0	54.3	4	16.4	4	-1E+10	1	-1E+10	1	-1E+10	1	-1E+10	1	-1E+10	1	-1E+10	1
4901784	93	C	01/20/2018	10:49	-133.172	43.665	0	1950.20	0	2.0040	0	34.6670	4	27.715	0	1925.627	0	54.5	4	16.5	4	-1E+10	1	-1E+10	1	-1E+10	1	-1E+10	1	-1E+10	1	-1E+10	1
4901784	93	C	01/20/2018	10:49	-133.172	43.665	0	1955.40	0	2.0010	0	34.6670	4	27.715	0	1930.738	0	54.7	4	16.5	4	-1E+10	1	-1E+10	1	-1E+10	1	-1E+10	1	-1E+10	1	-1E+10	1
4901784	93	C	01/20/2018	10:49	-133.172	43.665	0	1960.50	0	1.9970	0	34.6680	4	27.716	0	1935.751	0	55.0	4	16.6	4	-1E+10	1	-1E+10	1	-1E+10	1	-1E+10	1	-1E+10	1	-1E+10	1
4901784	93	C	01/20/2018	10:49	-133.172	43.665	0	1965.30	0	1.9910	0	34.6690	4	27.718	0	1940.468	0	55.2	4	16.7	4	-1E+10	1	-1E+10	1	-1E+10	1	-1E+10	1	-1E+10	1	-1E+10	1
4901784	93	C	01/20/2018	10:49	-133.172	43.665	0	1970.20	0	1.9890	0	34.6690	4	27.718	0	1945.284	0	55.3	4	16.7	4	-1E+10	1	-1E+10	1	-1E+10	1	-1E+10	1	-1E+10	1	-1E+10	1
4901784	93	C	01/20/2018	10:49	-133.172	43.665	0	1975.00	0	1.9880	0	34.6690	4	27.718	0	1950.001	0	55.5	4	16.7	4	-1E+10	1	-1E+10	1	-1E+10	1	-1E+10	1	-1E+10	1	-1E+10	1
4901784	93	C	01/20/2018	10:49	-133.172	43.665	0	1980.00	0	1.9860	0	34.6690	4	27.718	0	1954.915	0	55.7	4	16.8	4	-1E+10	1	-1E+10	1	-1E+10	1	-1E+10	1	-1E+10	1	-1E+10	1
4901784	93	C	01/20/2018	10:49	-133.172	43.665	0	1985.00	0	1.9830	0	34.6700	4	27.719	0	1959.829	0	55.9	4	16.9	4	-1E+10	1	-1E+10	1	-1E+10	1	-1E+10	1	-1E+10	1	-1E+10	1
4901784	93	C	01/20/2018	10:49	-133.172	43.665	0	1989.90	0	1.9810	0	34.6700	4	27.719	0	1964.644	0	56.1	4	16.9	4	-1E+10	1	-1E+10	1	-1E+10	1	-1E+10	1	-1E+10	1	-1E+10	1
4901784	93	C	01/20/2018	10:49	-133.172	43.665	0	1994.90	0	1.9780	0	34.6700	4	27.720	0	1969.557	0	56.4	4	17.0	4	-1E+10	1	-1E+10	1	-1E+10	1	-1E+10	1	-1E+10	1	-1E+10	1
4901784	93	C	01/20/2018	10:49	-133.172	43.665	0	2000.00	0	1.9740	0	34.6710	4	27.721	0	1974.569	0	56.7	4	17.1	4	-1E+10	1	-1E+10	1	-1E+10	1	-1E+10	1	-1E+10	1	-1E+10	1
4901784	93	C	01/20/2018	10:49	-133.172	43.665	0	2005.50	0	1.9700	0	34.6720	4	27.722	0	1979.974	0	57.1	4	17.2	4	-1E+10	1	-1E+10	1	-1E+10	1	-1E+10	1	-1E+10	1	-1E+10	1
4901784	93	C	01/20/2018	10:49	-133.172	43.665	0	2010.00	0	1.9640	0	34.6720	4	27.722	0	1984.395	0	57.3	4	17.3	4	-1E+10	1	-1E+10	1	-1E+10	1	-1E+10	1	-1E+10	1	-1E+10	1
4901784	93	C	01/20/2018	10:49	-133.172	43.665	0	2015.30	0	1.9610	0	34.6740	4	27.724	0	1989.603	0	57.5	4	17.3	4	-1E+10	1	-1E+10	1	-1E+10	1	-1E+10	1	-1E+10	1	-1E+10	1
4901784	93	C	01/20/2018	10:49	-133.172	43.665	0	2020.20	0	1.9590	0	34.6740	4	27.725	0	1994.418	0	57.7	4	17.4	4	-1E+10	1	-1E+10	1	-1E+10	1	-1E+10	1	-1E+10	1	-1E+10	1
4901784	93	C	01/20/2018	10:49	-133.172	43.665	0																										
4901784	94	C	01/30/2018	10:46	-133.168	43.496	0	2.70	0	10.5070	0	32.8500	4	25.188	0	2.678	0	263.5	4	95.5	4	-1E+10	1	-1E+10	1	-1E+10	1	-1E+10	1	-1E+10	1	-1E+10	1
4901784	94	C	01/30/2018	10:46	-133.168	43.496	0	4.10	0	10.5060	0	32.8500	4	25.188	0	4.067	0	263.5	4	95.5	4	-1E+10	1	-1E+10	1	-1E+10	1	-1E+10	1	-1E+10	1	-1E+10	1
4901784	94	C	01/30/2018	10:46	-133.168	43.496	0	5.60	0	10.5060	0	32.8500	4	25.188	0	5.555	0	263.6	4	95.6	4	-1E+10	1	-1E+10	1	-1E+10	1	-1E+10	1	-1E+10	1	-1E+10	1
4901784	94	C	01/30/2018	10:46	-133.168	43.496	0	7.50	0	10.5060	0	32.8500	4	25.188	0	7.440	0	263.4	4	95.5	4	-1E+10	1	-1E+10	1	-1E+10	1	-1E+10	1	-1E+10	1	-1E+10	1
4901784	94	C	01/30/2018	10:46	-133.168	43.496	0	7.90	0	10.5050	0	32.8500	4	25.189	0	7.837	0	263.5	4	95.5	4	-1E+10	1	-1E+10	1	-1E+10	1	-1E+10	1	-1E+10	1	-1E+10	1
4901784	94	C	01/30/2018	10:46	-133.168	43.496	0	9.70	0	10.5100	0	32.8500	4	25.188	0	9.622	0	263.4	4	95.5	4	-1E+10	1	-1E+10	1	-1E+10	1	-1E+10	1	-1E+10	1	-1E+10	1
4901784	94	C	01/30/2018	10:46	-133.168	43.496	0	11.40	0	10.5050	0	32.8500	4	25.189	0	11.309	0	263.3	4	95.5	4	-1E+10	1	-1E+10	1	-1E+10	1	-1E+10	1	-1E+10	1	-1E+10	1
4901784	94	C	01/30/2018	10:46	-133.168	43.496	0	13.00	0	10.5010	0	32.8500	4	25.189	0	12.896	0	263.5	4	95.5	4	-1E+10	1	-1E+10	1	-1E+10	1	-1E+10	1	-1E+10	1	-1E+10	1
4901784	94	C	01/30/2018	10:46	-133.168	43.496	0	14.40	0	10.5020	0	32.8500	4	25.189	0	14.285	0	263.3	4	95.4	4	-1E+10	1	-1E+10	1	-1E+10	1	-1E+10	1	-1E+10	1	-1E+10	1
4901784	94	C	01/30/2018	10:46	-133.168	43.496	0	15.90	0	10.5020	0	32.8500	4	25.189	0	15.773	0	263.3	4	95.5	4	-1E+10	1	-1E+10	1	-1E+10	1	-1E+10	1	-1E+10	1	-1E+10	1
4901784	94	C	01/30/2018	10:46	-133.168	43.496	0	17.50	0	10.5020	0	32.8500	4	25.189	0	17.360	0	263.4	4	95.5	4	-1E+10	1	-1E+10	1	-1E+10	1	-1E+10	1	-1E+10	1	-1E+10	1
4901784	94	C	01/30/2018	10:46	-133.168	43.496	0	19.10	0	10.5040	0	32.8500	4	25.189	0	18.947	0	263.2	4	95.4	4	-1E+10	1	-1E+10	1	-1E+10	1	-1E+10	1	-1E+10	1	-1E+10	1
4901784	94	C	01/30/2018	10:46	-133.168	43.496	0	20.70	0	10.5080	0	32.8500	4	25.188	0	20.534	0	263.1	4	95.4	4	-1E+10	1	-1E+10	1	-1E+10	1	-1E+10	1	-1E+10	1	-1E+10	1
4901784	94	C	01/30/2018	10:46	-133.168	43.496	0	22.40	0	10.5080	0	32.8500	4	25.188	0	22.220	0	263.3	4	95.5	4	-1E+10	1	-1E+10	1	-1E+10	1	-1E+10	1	-1E+10	1	-1E+10	1
4901784	94	C	01/30/2018	10:46	-133.168	43.496	0	24.10	0	10.5070	0	32.8500	4	25.189	0	23.906	0	263.2	4	95.4	4	-1E+10	1	-1E+10	1	-1E+10	1	-1E+10	1	-1E+10	1	-1E+10	1
4901784	94	C	01/30/2018	10:46	-133.168	43.496	0	25.90	0	10.5070	0	32.8500	4	25.189	0	25.692	0	263.2	4	95.4	4	-1E+10	1	-1E+10	1	-1E+10	1	-1E+10	1	-1E+10	1	-1E+10	1
4901784	94	C	01/30/2018	10:46	-133.168	43.496	0	27.70	0	10.5150	0	32.8500	4	25.187	0	27.477	0	263.1	4	95.4	4	-1E+10	1	-1E+10	1	-1E+10	1	-1E+10	1	-1E+10	1	-1E+10	1
4901784	94	C	01/30/2018	10:46	-133.168	43.496	0	29.50	0	10.5090	0	32.8500	4	25.188	0	29.263	0	263.1	4	95.4	4	-1E+10	1	-1E+10	1	-1E+10	1	-1E+10	1	-1E+10	1	-1E+10	1
4901784	94	C	01/30/2018	10:46	-133.168	43.496	0	31.10	0	10.5090	0	32.8490	4	25.188	0	30.850	0	263.3	4	95.4	4	-1E+10	1	-1E+10	1	-1E+10	1	-1E+10	1	-1E+10	1	-1E+10	1
4901784	94	C	01/30/2018	10:46	-133.168	43.496	0	32.80	0	10.5090	0	32.8500	4	25.188	0	32.536	0	263.2	4	95.4	4	-1E+10	1	-1E+10	1	-1E+10	1	-1E+10	1	-1E+10	1	-1E+10	1
4901784	94	C	01/30/2018	10:46	-133.168	43.496	0	34.50	0	10.5100	0	32.8500	4	25.188	0	34.222	0	263.4	4	95.5	4	-1E+10	1	-1E+10	1	-1E+10	1	-1E+10	1	-1E+10	1	-1E+10	1
4901784	94	C	01/30/2018	10:46	-133.168	43.496	0	36.20	0	10.5100	0	32.8500	4	25.188	0	35.908	0	263.1	4	95.4	4	-1E+10	1	-1E+10	1	-1E+10	1	-1E+10	1	-1E+10	1	-1E+10	1
4901784	94	C	01/30/2018	10:46	-133.168	43.496	0	37.90	0	10.5150	0	32.8500	4	25.187	0	37.594	0	263.1	4	95.4	4	-1E+10	1	-1E+10	1	-1E+10	1	-1E+10	1	-1E+10	1	-1E+10	1
4901784	94	C	01/30/2018	10:46	-133.168	43.496	0	39.70	0	10.5160	0	32.8500	4	25.187	0	39.379	0	262.8	4	95.3	4	-1E+10	1	-1E+10	1	-1E+10	1	-1E+10	1	-1E+10	1	-1E+10	1
4901784	94	C	01/30/2018	10:46	-133.168	43.496	0	41.30	0	10.5160	0	32.8500	4	25.187	0	40.966	0	263.1	4	95.4	4	-1E+10	1	-1E+10	1	-1E+10	1	-1E+10	1	-1E+10	1	-1E+10	1
4901784	94	C	01/30/2018	10:46	-133.168	43.496	0	43.10	0	10.5160	0	32.8500	4	25.187	0	42.752	0	263.0	4	95.4	4	-1E+10	1	-1E+10	1	-1E+10	1	-1E+10	1	-1E+10	1	-1E+10	1
4901784	94	C	01/30/2018	10:46	-133.168	43.496	0	44.90	0	10.5160	0	32.8500	4	25.187	0	44.537	0	263.0	4	95.4	4	-1E+10	1	-1E+10	1	-1E+10	1	-1E+10	1	-1E+10	1	-1E+10	1
4901784	94	C	01/30/2018	10:46	-133.168	43.496	0	46.60	0	10.5170	0	32.8500	4	25.187	0	46.223	0	262.8	4	95.3	4	-1E+10	1	-1E+10	1	-1E+10	1	-1E+10	1	-1E+10	1	-1E+10	1
4901784	94	C	01/30/2018	10:46	-133.168	43.496	0	48.40	0	10.5160	0	32.8500	4	25.187	0	48.008	0	262.8	4	95.3	4	-1E+10	1	-1E+10	1	-1E+10	1	-1E+10	1	-1E+10	1	-1E+10	1
4901784	94	C	01/30/2018	10:46	-133.168	43.496	0	50.00	0	10.5170	0	32.8490	4	25.187	0	49.595	0	262.8	4	95.3	4	-1E+10	1	-1E+10	1	-1E+10	1	-1E+10	1	-1E+10	1	-1E+10	1
4901784	94	C	01/30/2018	10:46	-133.168	43.496	0	51.70	0	10.5170	0	32.8500	4	25.187	0	51.281	0	262.8	4	95.3	4	-1E+10	1	-1E+10	1	-1E+10	1	-1E+10	1	-1E+10	1	-1E+10	1
4901784	94	C	01/30/2018	10:46	-133.168	43.496	0	53.60	0	10.5170	0	32.8500	4	25.187	0	53.165	0	262.7	4	95.3	4	-1E+10	1	-1E+10	1	-1E+10	1	-1E+10	1	-1E+10	1	-1E+10	1
4901784	94	C	01/30/2018	10:46	-133.168	43.496	0	55.30	0	10.5170	0	32.8500	4	25.187	0	54.851	0	262.5	4	95.2	4	-1E+10	1	-1E+10	1	-1E+10	1	-1E+10	1	-1E+10	1	-1E+10	1
4901784	94	C	01/30/2018	10:46	-133.168	43.496	0	57.10	0	10.5140	0	32.8500	4	25.188	0	56.637	0	262.7	4	95.2	4	-1E+10	1	-1E+10	1	-1E+10	1	-1E+10	1	-1E+10	1	-1E+10	1
4901784	94	C	01/30/2018	10:46	-133.168	43.496	0	58.70	0	10.5160	0	32.8490	4	25.187	0	58.223	0	262.5	4	95.2	4	-1E+10	1	-1E+10	1	-1E+10	1	-1E+10	1	-1E+10	1	-1E+10	1
4901784	94	C	01/30/2018	10:46	-133.168	43.496	0	60.40	0	10.5150	0	32.8500	4	25.188	0	59.909	0	262.5	4	95.2	4	-1E+10	1	-1E+10	1	-1E+10	1	-1E+10	1	-1E+10	1	-1E+10	1
4901784	94	C	01/30/2018	10:46	-133.168	43.496	0	62.10	0	10.5180	0	32.8490	4	25.187	0	61.595	0	262.4	4	95.1	4	-1E+10	1	-1E+10	1	-1E+10	1	-1E+10	1	-1E+10	1	-1E+10	1
4901784	94	C	01/30/2018	10:46	-133.168	43.496	0	63.90	0	10.5170	0	32.8490	4	25.187	0	63.380	0	262.4	4	95.1	4	-1E+10	1	-1E+10	1	-1E+10	1	-1E+10	1	-1E+10	1	-1E+10	1
4901784	94	C	01/30/2018	10:46	-133.168	43.496	0	65.50	0	10.5180	0	32.8490	4	25.187	0	64.967	0	262.2	4	95.1	4	-1E+10	1	-1E+10	1	-1E+10	1	-1E+10	1	-1E+10	1	-1E+10	1
4901784	94	C	01/30/2018	10:46	-133.168	43.496	0	67.30	0	10.5180	0	32.8490	4	25.187	0	66.752	0	262.3	4	95.1	4	-1E+10	1	-1E+10	1	-1E+10	1	-1E+10	1	-1E+10	1	-1E+10	1
4901784	94	C	01/30/2018	10:46	-133.168	43.496	0	69.00	0	10.5180	0	32.8490	4	25.187	0	68.438	0	261.9	4	95.0	4	-1E+10	1	-1E+10	1	-1E+10	1	-1E+10	1	-1E+10	1	-1E+10	1
4901784	94	C	01/30/2018	10:46	-133.168	43.496	0	70.80	0	10.5180	0	32.8490	4	25.187	0	70.223	0	261.8	4	94.9	4	-1E+10	1	-1E+10	1	-1E+10	1	-1E+10	1	-1E+10	1	-1E+10	1
4901784	94	C	01/30/2018	10:46	-133.168	43.496	0	72.40	0	10.5190	0	32.8490	4	25.187	0	71.810	0	261.7	4	94.9	4	-1E+10	1	-1E+10	1	-1E+10	1	-1E+10	1	-1E+10	1	-1E+10	1
4901784	94	C	01/30/2018	10:46	-133.168	43.496	0	74.20	0	10.5190	0	32.8480	4	25.186	0	73.595	0	261.5	4	94.8	4	-1E+10	1	-1E+10	1	-1E+10	1	-1E+10	1	-1E+10	1	-1E+10	1
4901784	94	C	01/30/2018	10:46	-133.168	43.496	0	75.80	0	10.5180	0	32.8480	4	25.186	0	75.181	0	261.1	4	94.7	4	-1E+10	1	-1E+10	1	-1E+10	1	-1E+10	1	-1E+10	1	-1E+10	1
4901784	94	C	01/30/2018	10:46	-133.168	43.496	0	77.50	0	10.5180	0	32.8480	4	25.186	0	76.867	0	260.9	4	94.6	4	-1E+10	1	-1E+10	1	-1E+10	1	-1E+10	1	-1E+10	1	-1E+10	1
4901784	94	C	01/30/2018	10:46	-133.168	43.496	0	79.40	0	10.5190	0	32.8460	4	25.184	0	78.751	0	260.4	4	94.4	4	-1E+10	1	-1E+10	1	-1E+10	1	-1E+10	1	-1E+10	1	-1E+10	1
4901784	94	C	01/30/2018	10:46	-133.168	43.496	0	79.90	0	10.5180	0	32.8460	4	25.185	0	79.247	0	260.4	4	94.4	4	-1E+10	1	-1E+10	1	-1E+10	1	-1E+10	1	-1E+10	1	-1E+10	1
4901784	94	C	01/30/2018	10:46	-133.168	43.496	0	81.40	0	10.5200	0	32.8440	4	25.183	0	80.735	0	259.8	4	94.2	4	-1E+10	1	-1E+10	1	-1E+10	1	-1E+10	1	-1E+10	1	-1E+10	1
4901784	94	C	01/30/2018	10:46	-133.168	43.496	0	83.00	0	10.5200	0	32.8410	4	25.180	0	82.321	0	258.8	4	93.8	4	-1E+10	1	-1E+10	1	-1E+10	1	-1E+10	1	-1E+10	1	-1E+10	1
4901784	94	C	01/30/2018	10:46	-133.168	43.496	0	84.30	0	10.4730	0	32.8430	4	25.190	0	83.610	0	257.8	4	93.4	4	-1E+10	1	-1E+10	1	-1E+10	1	-1E+10	1	-1E+10	1	-1E+10	1
4901784	94	C	01/30/2018	10:46	-133.168	43.496	0	85.70	0	10.4280	0	32.8440	4	25.199	0	84.998	0	256.9	4	93.0	4	-1E+10	1	-1E+10	1	-1E+10	1	-1E+10	1	-1E+10	1	-1E+10	1
4901784	94	C	01/30/2018	10:46	-133.168	43.496	0	87.00	0	10.2960	0	32.8550	4	25.230	0	86.288	0	256.6	4	92.6	4	-1E+10	1	-1E+10	1	-1E+10	1	-1E+10	1	-1E+10	1	-1E+10	1
4901784	94	C	01/30/2018	10:46	-133.168	43.496	0	88.40	0	10.1970	0	32.8710	4	25.259	0	87.676	0	255.1	4	91.9	4	-1E+10	1	-1E+10	1	-1E+10	1	-1E+10	1	-1E+10	1	-1E+10	1
4901784	94	C	01/30/2018	10:46	-133.168	43.496	0	90.00	0	9.9100	0	32.8890	4	25.321	0	89.262	0	254.6	4	91.1	4	-1E+10	1	-1E+10	1	-1E+10	1	-1E+10	1	-1E+10	1	-1E+10	1
4901784	94	C	01/30/2018	10:46	-133.168	43.496	0	91.40	0	9.5720	0	32.9330	4	25.411	0	90.651	0	255.6	4	90.9	4	-1E+10	1	-1E+10	1	-1E+10	1	-1E+10	1	-1E+10	1	-1E+10	1
4901784	94	C	01/30/2018	10:46	-133.168	43.496	0	93.20	0	9.3230	0	32.9550	4	25.468	0	92.435	0	255.6	4	90.4	4	-1E+10	1	-1E+10	1	-1E+10	1	-1E+10	1	-1E+10	1	-1E+10	1
4901784	94	C	01/30/2018	10:46	-133.168	43.496	0	94.90	0	9.0470	0	32.9880	4	25.537	0	94.121	0	256.0	4	90.0	4	-1E+10	1	-1E+10	1	-1E+10	1	-1E+10	1	-1E+10	1	-1E+10	1
4901784	94	C	01/30/2018	10:46	-133.168	43.496	0	96.70	0	8.7390	0	33.0170	4	25.608	0	95.906	0	256.7	4	89.6	4	-1E+10	1	-1E+10	1	-1E+10	1	-1E+10	1	-1E+10	1	-1E+10	1
4901784	94	C	01/30/2018	10:46	-133.168	43.496	0	98.50	0	8.4320	0	33.0450	4	25.676	0	97.691	0	257.5	4	89.3	4	-1E+10	1	-1E+10	1	-1E+10	1	-1E+10	1	-1E+10	1	-1E+10	1
4901784	94	C	01/30/2018	10:46	-133.168	43.496	0	100.30	0	8.2660	0	33.0650	4	25.717	0	99.475	0	258.2	4	89.3	4	-1E+10	1	-1E+10	1	-1E+10	1	-1E+10	1	-1E+10	1	-1E+10	1
4901784	94	C	01/30/2018	10:46	-133.168	43.496	0	102.20	0	8.2350	0	33.0690	4	25.725	0	101.359	0	257.7	4	89.0	4	-1E+10	1	-1E+10	1	-1E+10	1	-1E+10	1	-1E+10	1	-1E+10	1
4901784	94	C	01/30/2018	10:46	-133.168	43.496	0	105.00	0	8.1710	0	33.0760	4	25.740	0	104.136	0	257.1	4	88.7	4	-1E+10	1	-1E+10	1	-1E+10	1	-1E+10	1	-1E+10	1	-1E+10	1
4901784	94	C	01/30/2018	10:46	-133.168	43.496	0	107.70	0	8.1260	0	33.0870	4	25.755	0	106.813	0	256.5	4	88.4	4	-1E+10	1	-1E+10	1	-1E+10	1	-1E+10	1	-1E+10	1	-1E+10	1
4901784	94	C	01/30/2018	10:46	-133.168	43.496	0	109.50	0	8.1240	0	33.0870	4	25.755	0	108.597	0	256.1	4	88.3	4	-1E+10	1	-1E+10	1	-1E+10	1	-1E+10	1	-1E+10	1	-1E+10	1
4901784	94	C	01/30/2018	10:46	-133.168	43.496	0	112.20	0	8.1130	0	33.1030	4	25.770	0	111.274	0	254.9	4	87.8	4	-1E+10	1	-1E+10	1	-1E+10	1	-1E+10	1	-1E+10	1	-1E+10	1
4901784	94	C	01/30/2018	10:46	-133.168	43.496	0	115.00	0	8.1120	0	33.1170	4	25.781	0	114.051	0	253.9	4	87.5	4	-1E+10	1	-1E+10	1	-1E+10	1	-1E+10	1	-1E+10	1	-1E+10	1
4901784	94	C	01/30/2018	10:46	-133.168	43.496	0	116.90	0	8.1130	0	33.1210	4	25.784	0	115.934	0	253.1	4	87.2	4	-1E+10	1	-1E+10	1	-1E+10	1	-1E+10	1	-1E+10	1	-1E+10	1
4901784	94	C	01/30/2018	10:46	-133.168	43.496	0	119.70	0	8.1150	0	33.1360	4	25.795	0	118.710	0	251.5	4	86.7	4	-1E+10	1	-1E+10	1	-1E+10	1	-1E+10	1	-1E+10	1	-1E+10	1
4901784	94	C	01/30/2018	10:46	-133.168	43.496	0	122.50	0	8.1150	0	33.1540	4	25.809	0	121.486	0	249.5	4	86.0	4	-1E+10	1	-1E+10	1	-1E+10	1	-1E+10	1	-1E+10	1	-1E+10	1
4901784	94	C	01/30/2018	10:46	-133.168	43.496	0	124.40	0	8.1100	0	33.1720	4	25.824	0	123.370	0	248.0	4	85.5	4	-1E+10	1	-1E+10	1	-1E+10	1	-1E+10	1	-1E+10	1	-1E+10	1
4901784	94	C	01/30/2018	10:46	-133.168	43.496	0	127.30	0	8.1390	0	33.1960	4	25.839	0	126.245	0	245.2	4	84.6	4	-1E+10	1	-1E+10	1	-1E+10	1	-1E+10	1	-1E+10	1	-1E+10	1
4901784	94	C	01/30/2018	10:46	-133.168	43.496	0	130.00	0	8.1700	0	33.2280	4	25.860	0	128.922	0	242.3	4	83.7	4	-1E+10	1	-1E+10	1	-1E+10	1	-1E+10	1	-1E+10	1	-1E+10	1
4901784	94	C	01/30/2018	10:46	-133.168	43.496	0	132.40	0	8.1710	0	33.2650	4	25.888	0	131.301	0	239.5	4	82.7	4	-1E+10	1	-1E+10	1	-1E+10	1	-1E+10	1	-1E+10	1	-1E+10	1
4901784	94	C	01/30/2018	10:46	-133.168	43.496	0	135.10	0	8.2100	0	33.3220	4	25.927	0	133.978	0	235.9	4	81.6	4	-1E+10	1	-1E+10	1	-1E+10	1	-1E+10	1	-1E+10	1	-1E+10	1
4901784	94	C	01/30/2018	10:46	-133.168	43.496	0	137.30	0	8.2250	0	33.3390	4	25.939	0	136.159	0	232.8	4	80.6	4	-1E+10	1	-1E+10	1	-1E+10	1	-1E+10	1	-1E+10	1	-1E+10	1
4901784	94	C	01/30/2018	10:46	-133.168	43.496	0	139.70	0	8.2590	0	33.3760	4	25.963	0	138.538	0	229.1	4	79.4	4	-1E+10	1	-1E+10	1	-1E+10	1	-1E+10	1	-1E+10	1	-1E+10	1
4901784	94	C	01/30/2018	10:46	-133.168	43.496	0	142.60	0	8.2900	0	33.4350	4	26.004	0	141.413	0	223.2	4	77.4	4	-1E+10	1	-1E+10	1	-1E+10	1	-1E+10	1	-1E+10	1	-1E+10	1
4901784	94	C	01/30/2018	10:46	-133.168	43.496	0	144.90	0	8.3140	0	33.4850	4	26.040	0	143.693	0	217.9	4	75.7	4	-1E+10	1	-1E+10	1	-1E+10	1	-1E+10	1	-1E+10	1	-1E+10	1
4901784	94	C	01/30/2018	10:46	-133.168	43.496	0	147.20	0	8.3820	0	33.5950	4	26.116	0	145.973	0	212.2	4	73.8	4	-1E+10	1	-1E+10	1	-1E+10	1	-1E+10	1	-1E+10	1	-1E+10	1
4901784	94	C	01/30/2018	10:46	-133.168	43.496	0	149.70	0	8.4510	0	33.6850	4	26.176	0	148.452	0	207.3	4	72.3	4	-1E+10	1	-1E+10	1	-1E+10	1	-1E+10	1	-1E+10	1	-1E+10	1
4901784	94	C	01/30/2018	10:46	-133.168	43.496	0	152.00	0	8.4800	0	33.7570	4	26.228	0	150.732	0	203.3	4	71.0	4	-1E+10	1	-1E+10	1	-1E+10	1	-1E+10	1	-1E+10	1	-1E+10	1
4901784	94	C	01/30/2018	10:46	-133.168	43.496	0	155.30	0	8.5710	0	33.8630	4	26.298	0	154.003	0	198.4	4	69.5	4	-1E+10	1	-1E+10	1	-1E+10	1	-1E+10	1	-1E+10	1	-1E+10	1
4901784	94	C	01/30/2018	10:46	-133.168	43.496	0	157.90	0	8.6270	0	33.9280	4	26.340	0	156.580	0	196.0	4	68.7	4	-1E+10	1	-1E+10	1	-1E+10	1	-1E+10	1	-1E+10	1	-1E+10	1
4901784	94	C	01/30/2018	10:46	-133.168	43.496	0	159.80	0	8.6160	0	33.9550	4	26.363	0	158.464	0	195.4	4	68.5	4	-1E+10	1	-1E+10	1	-1E+10	1	-1E+10	1	-1E+10	1	-1E+10	1
4901784	94	C	01/30/2018	10:46	-133.168	43.496	0	162.10	0	8.6580	0	33.9810	4	26.377	0	160.743	0	195.2	4	68.5	4	-1E+10	1	-1E+10	1	-1E+10	1	-1E+10	1	-1E+10	1	-1E+10	1
4901784	94	C	01/30/2018	10:46	-133.168	43.496	0	164.70	0	8.6660	0	33.9890	4	26.382	0	163.321	0	194.5	4	68.3	4	-1E+10	1	-1E+10	1	-1E+10	1	-1E+10	1	-1E+10	1	-1E+10	1
4901784	94	C	01/30/2018	10:46	-133.168	43.496	0	167.70	0	8.7100	0	34.0120	4	26.393	0	166.294	0	193.2	4	67.9	4	-1E+10	1	-1E+10	1	-1E+10	1	-1E+10	1	-1E+10	1	-1E+10	1
4901784	94	C	01/30/2018	10:46	-133.168	43.496	0	169.90	0	8.7390	0	34.0360	4	26.407	0	168.475	0	191.9	4	67.5	4	-1E+10	1	-1E+10	1	-1E+10	1	-1E+10	1	-1E+10	1	-1E+10	1
4901784	94	C	01/30/2018	10:46	-133.168	43.496	0	172.30	0	8.7360	0	34.0460	4	26.416	0	170.854	0	191.0	4	67.2	4	-1E+10	1	-1E+10	1	-1E+10	1	-1E+10	1	-1E+10	1	-1E+10	1
4901784	94	C	01/30/2018	10:46	-133.168	43.496	0	174.70	0	8.7330	0	34.0470	4	26.417	0	173.233	0	190.1	4	66.9	4	-1E+10	1	-1E+10	1	-1E+10	1	-1E+10	1	-1E+10	1	-1E+10	1
4901784	94	C	01/30/2018	10:46	-133.168	43.496	0	177.00	0	8.7050	0	34.0580	4	26.430	0	175.512	0	189.1	4	66.5	4	-1E+10	1	-1E+10	1	-1E+10	1	-1E+10	1	-1E+10	1	-1E+10	1
4901784	94	C	01/30/2018	10:46	-133.168	43.496	0	180.20	0	8.6940	0	34.0700	4	26.441	0	178.684	0	188.0	4	66.1	4	-1E+10	1	-1E+10	1	-1E+10	1	-1E+10	1	-1E+10	1	-1E+10	1
4901784	94	C	01/30/2018	10:46	-133.168	43.496	0	182.60	0	8.6720	0	34.0720	4	26.446	0	181.063	0	187.5	4	65.9	4	-1E+10	1	-1E+10	1	-1E+10	1	-1E+10	1	-1E+10	1	-1E+10	1
4901784	94	C	01/30/2018	10:46	-133.168	43.496	0	185.10	0	8.6460	0	34.0750	4	26.453	0	183.541	0	187.0	4	65.7	4	-1E+10	1	-1E+10	1	-1E+10	1	-1E+10	1	-1E+10	1	-1E+10	1
4901784	94	C	01/30/2018	10:46	-133.168	43.496	0	187.60	0	8.6410	0	34.0740	4	26.453	0	186.018	0	186.5	4	65.5	4	-1E+10	1	-1E+10	1	-1E+10	1	-1E+10	1	-1E+10	1	-1E+10	1
4901784	94	C	01/30/2018	10:46	-133.168	43.496	0	190.10	0	8.6290	0	34.0750	4	26.455	0	188.496	0	185.8	4	65.2	4	-1E+10	1	-1E+10	1	-1E+10	1	-1E+10	1	-1E+10	1	-1E+10	1
4901784	94	C	01/30/2018	10:46	-133.168	43.496	0	192.60	0	8.6110	0	34.0750	4	26.458	0	190.974	0	185.1	4	65.0	4	-1E+10	1	-1E+10	1	-1E+10	1	-1E+10	1	-1E+10	1	-1E+10	1
4901784	94	C	01/30/2018	10:46	-133.168	43.496	0	195.10	0	8.5780	0	34.0760	4	26.464	0	193.452	0	184.5	4	64.7	4	-1E+10	1	-1E+10	1	-1E+10	1	-1E+10	1	-1E+10	1	-1E+10	1
4901784	94	C	01/30/2018	10:46	-133.168	43.496	0	197.70	0	8.5630	0	34.0750	4	26.466	0	196.029	0	183.8	4	64.4	4	-1E+10	1	-1E+10	1	-1E+10	1	-1E+10	1	-1E+10	1	-1E+10	1
4901784	94	C	01/30/2018	10:46	-133.168	43.496	0	200.20	0	8.5490	0	34.0740	4	26.467	0	198.506	0	183.0	4	64.1	4	-1E+10	1	-1E+10	1	-1E+10	1	-1E+10	1	-1E+10	1	-1E+10	1
4901784	94	C	01/30/2018	10:46	-133.168	43.496	0	202.80	0	8.4970	0	34.0730	4	26.474	0	201.083	0	182.0	4	63.7	4	-1E+10	1	-1E+10	1	-1E+10	1	-1E+10	1	-1E+10	1	-1E+10	1
4901784	94	C	01/30/2018	10:46	-133.168	43.496	0	205.40	0	8.4720	0	34.0710	4	26.477	0	203.660	0	181.2	4	63.4	4	-1E+10	1	-1E+10	1	-1E+10	1	-1E+10	1	-1E+10	1	-1E+10	1
4901784	94	C	01/30/2018	10:46	-133.168	43.496	0	208.00	0	8.4410	0	34.0710	4	26.481	0	206.236	0	180.2	4	63.0	4	-1E+10	1	-1E+10	1	-1E+10	1	-1E+10	1	-1E+10	1	-1E+10	1
4901784	94	C	01/30/2018	10:46	-133.168	43.496	0	209.70	0	8.4020	0	34.0710	4	26.487	0	207.921	0	179.6	4	62.7	4	-1E+10	1	-1E+10	1	-1E+10	1	-1E+10	1	-1E+10	1	-1E+10	1
4901784	94	C	01/30/2018	10:46	-133.168	43.496	0	212.40	0	8.3790	0	34.0690	4	26.489	0	210.597	0	178.5	4	62.3	4	-1E+10	1	-1E+10	1	-1E+10	1	-1E+10	1	-1E+10	1	-1E+10	1
4901784	94	C	01/30/2018	10:46	-133.168	43.496	0	215.00	0	8.3500	0	34.0670	4	26.492	0	213.173	0	177.5	4	61.9	4	-1E+10	1	-1E+10	1	-1E+10	1	-1E+10	1	-1E+10	1	-1E+10	1
4901784	94	C	01/30/2018	10:46	-133.168	43.496	0	217.70	0	8.3120	0	34.0660	4	26.497	0	215.849	0	176.0	4	61.3	4	-1E+10	1	-1E+10	1	-1E+10	1	-1E+10	1	-1E+10	1	-1E+10	1
4901784	94	C	01/30/2018	10:46	-133.168	43.496	0	220.40	0	8.2670	0	34.0620	4	26.501	0	218.525	0	174.7	4	60.8	4	-1E+10	1	-1E+10	1	-1E+10	1	-1E+10	1	-1E+10	1	-1E+10	1
4901784	94	C	01/30/2018	10:46	-133.168	43.496	0	222.10	0	8.2360	0	34.0600	4	26.504	0	220.209	0	173.5	4	60.4	4	-1E+10	1	-1E+10	1	-1E+10	1	-1E+10	1	-1E+10	1	-1E+10	1
4901784	94	C	01/30/2018	10:46	-133.168	43.496	0	224.90	0	8.1930	0	34.0560	4	26.507	0	222.984	0	171.7	4	59.7	4	-1E+10	1	-1E+10	1	-1E+10	1	-1E+10	1	-1E+10	1	-1E+10	1
4901784	94	C	01/30/2018	10:46	-133.168	43.496	0	227.60	0	8.1140	0	34.0520	4	26.516	0	225.659	0	169.9	4	59.0	4	-1E+10	1	-1E+10	1	-1E+10	1	-1E+10	1	-1E+10	1	-1E+10	1
4901784	94	C	01/30/2018	10:46	-133.168	43.496	0	230.40	0	8.0520	0	34.0520	4	26.525	0	228.434	0	168.1	4	58.3	4	-1E+10	1	-1E+10	1	-1E+10	1	-1E+10	1	-1E+10	1	-1E+10	1
4901784	94	C	01/30/2018	10:46	-133.168	43.496	0	233.10	0	7.9850	0	34.0490	4	26.533	0	231.109	0	166.5	4	57.6	4	-1E+10	1	-1E+10	1	-1E+10	1	-1E+10	1	-1E+10	1	-1E+10	1
4901784	94	C	01/30/2018	10:46	-133.168	43.496	0	234.90	0	7.9560	0	34.0480	4	26.536	0	232.893	0	165.4	4	57.2	4	-1E+10	1	-1E+10	1	-1E+10	1	-1E+10	1	-1E+10	1	-1E+10	1
4901784	94	C	01/30/2018	10:46	-133.168	43.496	0	237.60	0	7.9100	0	34.0490	4	26.544	0	235.569	0	163.6	4	56.5	4	-1E+10	1	-1E+10	1	-1E+10	1	-1E+10	1	-1E+10	1	-1E+10	1
4901784	94	C	01/30/2018	10:46	-133.168	43.496	0	240.40	0	7.8520	0	34.0440	4	26.549	0	238.343	0	161.7	4	55.8	4	-1E+10	1	-1E+10	1	-1E+10	1	-1E+10	1	-1E+10	1	-1E+10	1
4901784	94	C	01/30/2018	10:46	-133.168	43.496	0	242.30	0	7.7870	0	34.0430	4	26.557	0	240.226	0	160.4	4	55.3	4	-1E+10	1	-1E+10	1	-1E+10	1	-1E+10	1	-1E+10	1	-1E+10	1
4901784	94	C	01/30/2018	10:46	-133.168	43.496	0	245.00	0	7.7250	0	34.0390	4	26.563	0	242.901	0	159.3	4	54.8	4	-1E+10	1	-1E+10	1	-1E+10	1	-1E+10	1	-1E+10	1	-1E+10	1
4901784	94	C	01/30/2018	10:46	-133.168	43.496	0	247.70	0	7.6720	0	34.0420	4	26.573	0	245.576	0	158.1	4	54.3	4	-1E+10	1	-1E+10	1	-1E+10	1	-1E+10	1	-1E+10	1	-1E+10	1
4901784	94	C	01/30/2018	10:46	-133.168	43.496	0	249.50	0	7.6370	0	34.0430	4	26.579	0	247.360	0	157.6	4	54.1	4	-1E+10	1	-1E+10	1	-1E+10	1	-1E+10	1	-1E+10	1	-1E+10	1
4901784	94	C	01/30/2018	10:46	-133.168	43.496	0	252.30	0	7.6210	0	34.0410	4	26.580	0	250.134	0	157.0	4	53.9	4	-1E+10	1	-1E+10	1	-1E+10	1	-1E+10	1	-1E+10	1	-1E+10	1
4901784	94	C	01/30/2018	10:46	-133.168	43.496	0	255.00	0	7.6100	0	34.0400	4	26.581	0	252.809	0	156.3	4	53.6	4	-1E+10	1	-1E+10	1	-1E+10	1	-1E+10	1	-1E+10	1	-1E+10	1
4901784	94	C	01/30/2018	10:46	-133.168	43.496	0	257.60	0	7.5920	0	34.0400	4	26.583	0	255.385	0	155.4	4	53.3	4	-1E+10	1	-1E+10	1	-1E+10	1	-1E+10	1	-1E+10	1	-1E+10	1
4901784	94	C	01/30/2018	10:46	-133.168	43.496	0	260.40	0	7.5710	0	34.0400	4	26.586	0	258.159	0	154.3	4	52.9	4	-1E+10	1	-1E+10	1	-1E+10	1	-1E+10	1	-1E+10	1	-1E+10	1
4901784	94	C	01/30/2018	10:46	-133.168	43.496	0	262.20	0	7.5570	0	34.0390	4	26.588	0	259.943	0	153.4	4	52.6	4	-1E+10	1	-1E+10	1	-1E+10	1	-1E+10	1	-1E+10	1	-1E+10	1
4901784	94	C	01/30/2018	10:46	-133.168	43.496	0	265.10	0	7.5150	0	34.0390	4	26.594	0	262.816	0	151.9	4	52.0	4	-1E+10	1	-1E+10	1	-1E+10	1	-1E+10	1	-1E+10	1	-1E+10	1
4901784	94	C	01/30/2018	10:46	-133.168	43.496	0	267.90	0	7.5010	0	34.0360	4	26.593	0	265.590	0	150.2	4	51.4	4	-1E+10	1	-1E+10	1	-1E+10	1	-1E+10	1	-1E+10	1	-1E+10	1
4901784	94	C	01/30/2018	10:46	-133.168	43.496	0	269.80	0	7.4100	0	34.0380	4	26.608	0	267.472	0	149.0	4	50.9	4	-1E+10	1	-1E+10	1	-1E+10	1	-1E+10	1	-1E+10	1	-1E+10	1
4901784	94	C	01/30/2018	10:46	-133.168	43.496	0	272.60	0	7.3750	0	34.0370	4	26.612	0	270.246	0	147.6	4	50.4	4	-1E+10	1	-1E+10	1	-1E+10	1	-1E+10	1	-1E+10	1	-1E+10	1
4901784	94	C	01/30/2018	10:46	-133.168	43.496	0	275.40	0	7.3240	0	34.0370	4	26.619	0	273.020	0	146.1	4	49.8	4	-1E+10	1	-1E+10	1	-1E+10	1	-1E+10	1	-1E+10	1	-1E+10	1
4901784	94	C	01/30/2018	10:46	-133.168	43.496	0	277.30	0	7.3030	0	34.0350	4	26.620	0	274.903	0	145.1	4	49.4	4	-1E+10	1	-1E+10	1	-1E+10	1	-1E+10	1	-1E+10	1	-1E+10	1
4901784	94	C	01/30/2018	10:46	-133.168	43.496	0	280.10	0	7.2440	0	34.0350	4	26.629	0	277.677	0	143.5	4	48.8	4	-1E+10	1	-1E+10	1	-1E+10	1	-1E+10	1	-1E+10	1	-1E+10	1
4901784	94	C	01/30/2018	10:46	-133.168	43.496	0	282.90	0	7.1830	0	34.0320	4	26.635	0	280.450	0	142.0	4	48.2	4	-1E+10	1	-1E+10	1	-1E+10	1	-1E+10	1	-1E+10	1	-1E+10	1
4901784	94	C	01/30/2018	10:46	-133.168	43.496	0	284.70	0	7.1440	0	34.0320	4	26.640	0	282.234	0	141.0	4	47.9	4	-1E+10	1	-1E+10	1	-1E+10	1	-1E+10	1	-1E+10	1	-1E+10	1
4901784	94	C	01/30/2018	10:46	-133.168	43.496	0	287.50	0	7.0800	0	34.0270	4	26.645	0	285.008	0	139.8	4	47.4	4	-1E+10	1	-1E+10	1	-1E+10	1	-1E+10	1	-1E+10	1	-1E+10	1
4901784	94	C	01/30/2018	10:46	-133.168	43.496	0	290.20	0	7.0220	0	34.0240	4	26.651	0	287.682	0	138.6	4	46.9	4	-1E+10	1	-1E+10	1	-1E+10	1	-1E+10	1	-1E+10	1	-1E+10	1
4901784	94	C	01/30/2018	10:46	-133.168	43.496	0	292.10	0	6.9780	0	34.0220	4	26.655	0	289.564	0	137.9	4	46.6	4	-1E+10	1	-1E+10	1	-1E+10	1	-1E+10	1	-1E+10	1	-1E+10	1
4901784	94	C	01/30/2018	10:46	-133.168	43.496	0	295.00	0	6.9330	0	34.0210	4	26.661	0	292.437	0	136.6	4	46.1	4	-1E+10	1	-1E+10	1	-1E+10	1	-1E+10	1	-1E+10	1	-1E+10	1
4901784	94	C	01/30/2018	10:46	-133.168	43.496	0	297.80	0	6.8820	0	34.0200	4	26.667	0	295.211	0	135.4	4	45.7	4	-1E+10	1	-1E+10	1	-1E+10	1	-1E+10	1	-1E+10	1	-1E+10	1
4901784	94	C	01/30/2018	10:46	-133.168	43.496	0	299.80	0	6.8670	0	34.0200	4	26.669	0	297.192	0	134.6	4	45.4	4	-1E+10	1	-1E+10	1	-1E+10	1	-1E+10	1	-1E+10	1	-1E+10	1
4901784	94	C	01/30/2018	10:46	-133.168	43.496	0	302.60	0	6.8170	0	34.0190	4	26.675	0	299.966	0	133.1	4	44.9	4	-1E+10	1	-1E+10	1	-1E+10	1	-1E+10	1	-1E+10	1	-1E+10	1
4901784	94	C	01/30/2018	10:46	-133.168	43.496	0	305.40	0	6.7680	0	34.0180	4	26.681	0	302.739	0	131.9	4	44.4	4	-1E+10	1	-1E+10	1	-1E+10	1	-1E+10	1	-1E+10	1	-1E+10	1
4901784	94	C	01/30/2018	10:46	-133.168	43.496	0	307.30	0	6.7570	0	34.0170	4	26.681	0	304.621	0	130.8	4	44.0	4	-1E+10	1	-1E+10	1	-1E+10	1	-1E+10	1	-1E+10	1	-1E+10	1
4901784	94	C	01/30/2018	10:46	-133.168	43.496	0	310.00	0	6.6730	0	34.0160	4	26.692	0	307.296	0	129.3	4	43.4	4	-1E+10	1	-1E+10	1	-1E+10	1	-1E+10	1	-1E+10	1	-1E+10	1
4901784	94	C	01/30/2018	10:46	-133.168	43.496	0	312.80	0	6.6210	0	34.0170	4	26.700	0	310.069	0	128.1	4	43.0	4	-1E+10	1	-1E+10	1	-1E+10	1	-1E+10	1	-1E+10	1	-1E+10	1
4901784	94	C	01/30/2018	10:46	-133.168	43.496	0	314.60	0	6.5950	0	34.0160	4	26.702	0	311.852	0	127.1	4	42.6	4	-1E+10	1	-1E+10	1	-1E+10	1	-1E+10	1	-1E+10	1	-1E+10	1
4901784	94	C	01/30/2018	10:46	-133.168	43.496	0	317.30	0	6.5490	0	34.0180	4	26.710	0	314.527	0	125.8	4	42.1	4	-1E+10	1	-1E+10	1	-1E+10	1	-1E+10	1	-1E+10	1	-1E+10	1
4901784	94	C	01/30/2018	10:46	-133.168	43.496	0	320.10	0	6.5070	0	34.0180	4	26.715	0	317.300	0	124.6	4	41.7	4	-1E+10	1	-1E+10	1	-1E+10	1	-1E+10	1	-1E+10	1	-1E+10	1
4901784	94	C	01/30/2018	10:46	-133.168	43.496	0	322.00	0	6.4920	0	34.0170	4	26.717	0	319.182	0	123.7	4	41.4	4	-1E+10	1	-1E+10	1	-1E+10	1	-1E+10	1	-1E+10	1	-1E+10	1
4901784	94	C	01/30/2018	10:46	-133.168	43.496	0	324.80	0	6.4420	0	34.0140	4	26.721	0	321.955	0	122.2	4	40.8	4	-1E+10	1	-1E+10	1	-1E+10	1	-1E+10	1	-1E+10	1	-1E+10	1
4901784	94	C	01/30/2018	10:46	-133.168	43.496	0	327.60	0	6.3510	0	34.0090	4	26.729	0	324.728	0	120.6	4	40.2	4	-1E+10	1	-1E+10	1	-1E+10	1	-1E+10	1	-1E+10	1	-1E+10	1
4901784	94	C	01/30/2018	10:46	-133.168	43.496	0	329.50	0	6.3190	0	34.0090	4	26.733	0	326.610	0	119.4	4	39.8	4	-1E+10	1	-1E+10	1	-1E+10	1	-1E+10	1	-1E+10	1	-1E+10	1
4901784	94	C	01/30/2018	10:46	-133.168	43.496	0	332.40	0	6.2430	0	34.0110	4	26.744	0	329.483	0	117.8	4	39.2	4	-1E+10	1	-1E+10	1	-1E+10	1	-1E+10	1	-1E+10	1	-1E+10	1
4901784	94	C	01/30/2018	10:46	-133.168	43.496	0	335.20	0	6.1660	0	34.0110	4	26.754	0	332.256	0	116.4	4	38.6	4	-1E+10	1	-1E+10	1	-1E+10	1	-1E+10	1	-1E+10	1	-1E+10	1
4901784	94	C	01/30/2018	10:46	-133.168	43.496	0	337.10	0	6.1450	0	34.0080	4	26.754	0	334.138	0	115.8	4	38.4	4	-1E+10	1	-1E+10	1	-1E+10	1	-1E+10	1	-1E+10	1	-1E+10	1
4901784	94	C	01/30/2018	10:46	-133.168	43.496	0	340.00	0	6.0980	0	34.0090	4	26.761	0	337.010	0	114.8	4	38.0	4	-1E+10	1	-1E+10	1	-1E+10	1	-1E+10	1	-1E+10	1	-1E+10	1
4901784	94	C	01/30/2018	10:46	-133.168	43.496	0	342.80	0	6.0730	0	34.0090	4	26.764	0	339.783	0	113.6	4	37.6	4	-1E+10	1	-1E+10	1	-1E+10	1	-1E+10	1	-1E+10	1	-1E+10	1
4901784	94	C	01/30/2018	10:46	-133.168	43.496	0	344.80	0	6.0580	0	34.0080	4	26.765	0	341.763	0	112.6	4	37.3	4	-1E+10	1	-1E+10	1	-1E+10	1	-1E+10	1	-1E+10	1	-1E+10	1
4901784	94	C	01/30/2018	10:46	-133.168	43.496	0	347.60	0	6.0110	0	34.0060	4	26.770	0	344.537	0	110.9	4	36.7	4	-1E+10	1	-1E+10	1	-1E+10	1	-1E+10	1	-1E+10	1	-1E+10	1
4901784	94	C	01/30/2018	10:46	-133.168	43.496	0	350.50	0	5.9610	0	34.0050	4	26.775	0	347.409	0	108.7	4	35.9	4	-1E+10	1	-1E+10	1	-1E+10	1	-1E+10	1	-1E+10	1	-1E+10	1
4901784	94	C	01/30/2018	10:46	-133.168	43.496	0	352.40	0	5.8650	0	34.0050	4	26.787	0	349.290	0	107.4	4	35.4	4	-1E+10	1	-1E+10	1	-1E+10	1	-1E+10	1	-1E+10	1	-1E+10	1
4901784	94	C	01/30/2018	10:46	-133.168	43.496	0	354.20	0	5.8390	0	34.0010	4	26.787	0	351.073	0	106.7	4	35.1	4	-1E+10	1	-1E+10	1	-1E+10	1	-1E+10	1	-1E+10	1	-1E+10	1
4901784	94	C	01/30/2018	10:46	-133.168	43.496	0	357.40	0	5.8170	0	34.0000	4	26.789	0	354.242	0	105.0	4	34.6	4	-1E+10	1	-1E+10	1	-1E+10	1	-1E+10	1	-1E+10	1	-1E+10	1
4901784	94	C	01/30/2018	10:46	-133.168	43.496	0	360.30	0	5.7740	0	33.9990	4	26.794	0	357.114	0	102.4	4	33.7	4	-1E+10	1	-1E+10	1	-1E+10	1	-1E+10	1	-1E+10	1	-1E+10	1
4901784	94	C	01/30/2018	10:46	-133.168	43.496	0	362.70	0	5.6920	0	33.9970	4	26.802	0	359.490	0	100.4	4	33.0	4	-1E+10	1	-1E+10	1	-1E+10	1	-1E+10	1	-1E+10	1	-1E+10	1
4901784	94	C	01/30/2018	10:46	-133.168	43.496	0	365.10	0	5.6300	0	33.9960	4	26.809	0	361.867	0	99.0	4	32.4	4	-1E+10	1	-1E+10	1	-1E+10	1	-1E+10	1	-1E+10	1	-1E+10	1
4901784	94	C	01/30/2018	10:46	-133.168	43.496	0	367.60	0	5.5880	0	33.9980	4	26.816	0	364.343	0	98.1	4	32.1	4	-1E+10	1	-1E+10	1	-1E+10	1	-1E+10	1	-1E+10	1	-1E+10	1
4901784	94	C	01/30/2018	10:46	-133.168	43.496	0	370.00	0	5.5560	0	34.0000	4	26.821	0	366.719	0	97.2	4	31.8	4	-1E+10	1	-1E+10	1	-1E+10	1	-1E+10	1	-1E+10	1	-1E+10	1
4901784	94	C	01/30/2018	10:46	-133.168	43.496	0	372.50	0	5.5410	0	34.0000	4	26.823	0	369.195	0	96.5	4	31.5	4	-1E+10	1	-1E+10	1	-1E+10	1	-1E+10	1	-1E+10	1	-1E+10	1
4901784	94	C	01/30/2018	10:46	-133.168	43.496	0	375.00	0	5.5270	0	33.9980	4	26.823	0	371.670	0	95.6	4	31.3	4	-1E+10	1	-1E+10	1	-1E+10	1	-1E+10	1	-1E+10	1	-1E+10	1
4901784	94	C	01/30/2018	10:46	-133.168	43.496	0	377.50	0	5.5030	0	34.0000	4	26.827	0	374.146	0	94.7	4	30.9	4	-1E+10	1	-1E+10	1	-1E+10	1	-1E+10	1	-1E+10	1	-1E+10	1
4901784	94	C	01/30/2018	10:46	-133.168	43.496	0	380.10	0	5.4710	0	34.0020	4	26.833	0	376.721	0	93.8	4	30.6	4	-1E+10	1	-1E+10	1	-1E+10	1	-1E+10	1	-1E+10	1	-1E+10	1
4901784	94	C	01/30/2018	10:46	-133.168	43.496	0	382.60	0	5.4360	0	34.0040	4	26.839	0	379.196	0	92.8	4	30.3	4	-1E+10	1	-1E+10	1	-1E+10	1	-1E+10	1	-1E+10	1	-1E+10	1
4901784	94	C	01/30/2018	10:46	-133.168	43.496	0	385.10	0	5.4190	0	34.0040	4	26.841	0	381.672	0	92.0	4	30.0	4	-1E+10	1	-1E+10	1	-1E+10	1	-1E+10	1	-1E+10	1	-1E+10	1
4901784	94	C	01/30/2018	10:46	-133.168	43.496	0	387.60	0	5.3940	0	34.0070	4	26.846	0	384.147	0	90.8	4	29.6	4	-1E+10	1	-1E+10	1	-1E+10	1	-1E+10	1	-1E+10	1	-1E+10	1
4901784	94	C	01/30/2018	10:46	-133.168	43.496	0	390.10	0	5.3550	0	34.0110	4	26.854	0	386.622	0	89.5	4	29.1	4	-1E+10	1	-1E+10	1	-1E+10	1	-1E+10	1	-1E+10	1	-1E+10	1
4901784	94	C	01/30/2018	10:46	-133.168	43.496	0	392.60	0	5.3160	0	34.0140	4	26.861	0	389.098	0	88.2	4	28.7	4	-1E+10	1	-1E+10	1	-1E+10	1	-1E+10	1	-1E+10	1	-1E+10	1
4901784	94	C	01/30/2018	10:46	-133.168	43.496	0	395.20	0	5.2990	0	34.0160	4	26.864	0	391.672	0	86.8	4	28.2	4	-1E+10	1	-1E+10	1	-1E+10	1	-1E+10	1	-1E+10	1	-1E+10	1
4901784	94	C	01/30/2018	10:46	-133.168	43.496	0	397.80	0	5.2690	0	34.0190	4	26.870	0	394.246	0	85.3	4	27.7	4	-1E+10	1	-1E+10	1	-1E+10	1	-1E+10	1	-1E+10	1	-1E+10	1
4901784	94	C	01/30/2018	10:46	-133.168	43.496	0	400.40	0	5.2620	0	34.0220	4	26.873	0	396.821	0	83.9	4	27.3	4	-1E+10	1	-1E+10	1	-1E+10	1	-1E+10	1	-1E+10	1	-1E+10	1
4901784	94	C	01/30/2018	10:46	-133.168	43.496	0	402.20	0	5.2510	0	34.0220	4	26.875	0	398.603	0	82.9	4	27.0	4	-1E+10	1	-1E+10	1	-1E+10	1	-1E+10	1	-1E+10	1	-1E+10	1
4901784	94	C	01/30/2018	10:46	-133.168	43.496	0	404.70	0	5.2360	0	34.0250	4	26.879	0	401.078	0	80.9	4	26.3	4	-1E+10	1	-1E+10	1	-1E+10	1	-1E+10	1	-1E+10	1	-1E+10	1
4901784	94	C	01/30/2018	10:46	-133.168	43.496	0	407.30	0	5.2170	0	34.0280	4	26.884	0	403.652	0	79.3	4	25.8	4	-1E+10	1	-1E+10	1	-1E+10	1	-1E+10	1	-1E+10	1	-1E+10	1
4901784	94	C	01/30/2018	10:46	-133.168	43.496	0	410.00	0	5.2000	0	34.0290	4	26.886	0	406.325	0	76.7	4	24.9	4	-1E+10	1	-1E+10	1	-1E+10	1	-1E+10	1	-1E+10	1	-1E+10	1
4901784	94	C	01/30/2018	10:46	-133.168	43.496	0	412.60	0	5.2250	0	34.0370	4	26.890	0	408.900	0	73.0	4	23.7	4	-1E+10	1	-1E+10	1	-1E+10	1	-1E+10	1	-1E+10	1	-1E+10	1
4901784	94	C	01/30/2018	10:46	-133.168	43.496	0	415.30	0	5.2280	0	34.0410	4	26.893	0	411.573	0	70.9	4	23.0	4	-1E+10	1	-1E+10	1	-1E+10	1	-1E+10	1	-1E+10	1	-1E+10	1
4901784	94	C	01/30/2018	10:46	-133.168	43.496	0	418.00	0	5.2140	0	34.0470	4	26.899	0	414.246	0	69.1	4	22.4	4	-1E+10	1	-1E+10	1	-1E+10	1	-1E+10	1	-1E+10	1	-1E+10	1
4901784	94	C	01/30/2018	10:46	-133.168	43.496	0	419.70	0	5.1850	0	34.0470	4	26.902	0	415.929	0	68.3	4	22.2	4	-1E+10	1	-1E+10	1	-1E+10	1	-1E+10	1	-1E+10	1	-1E+10	1
4901784	94	C	01/30/2018	10:46	-133.168	43.496	0	422.30	0	5.1860	0	34.0530	4	26.907	0	418.503	0	67.3	4	21.9	4	-1E+10	1	-1E+10	1	-1E+10	1	-1E+10	1	-1E+10	1	-1E+10	1
4901784	94	C	01/30/2018	10:46	-133.168	43.496	0	424.90	0	5.1130	0	34.0530	4	26.915	0	421.077	0	67.4	4	21.8	4	-1E+10	1	-1E+10	1	-1E+10	1	-1E+10	1	-1E+10	1	-1E+10	1
4901784	94	C	01/30/2018	10:46	-133.168	43.496	0	427.60	0	5.0980	0	34.0580	4	26.921	0	423.750	0	66.4	4	21.5	4	-1E+10	1	-1E+10	1	-1E+10	1	-1E+10	1	-1E+10	1	-1E+10	1
4901784	94	C	01/30/2018	10:46	-133.168	43.496	0	430.20	0	5.0540	0	34.0630	4	26.930	0	426.324	0	66.0	4	21.4	4	-1E+10	1	-1E+10	1	-1E+10	1	-1E+10	1	-1E+10	1	-1E+10	1
4901784	94	C	01/30/2018	10:46	-133.168	43.496	0	432.00	0	5.0360	0	34.0590	4	26.929	0	428.106	0	65.1	4	21.1	4	-1E+10	1	-1E+10	1	-1E+10	1	-1E+10	1	-1E+10	1	-1E+10	1
4901784	94	C	01/30/2018	10:46	-133.168	43.496	0	434.80	0	5.0190	0	34.0600	4	26.932	0	430.877	0	63.3	4	20.4	4	-1E+10	1	-1E+10	1	-1E+10	1	-1E+10	1	-1E+10	1	-1E+10	1
4901784	94	C	01/30/2018	10:46	-133.168	43.496	0	437.50	0	5.0030	0	34.0620	4	26.935	0	433.550	0	60.5	4	19.5	4	-1E+10	1	-1E+10	1	-1E+10	1	-1E+10	1	-1E+10	1	-1E+10	1
4901784	94	C	01/30/2018	10:46	-133.168	43.496	0	440.30	0	5.0270	0	34.0750	4	26.943	0	436.322	0	56.8	4	18.4	4	-1E+10	1	-1E+10	1	-1E+10	1	-1E+10	1	-1E+10	1	-1E+10	1
4901784	94	C	01/30/2018	10:46	-133.168	43.496	0	443.00	0	5.0540	0	34.0830	4	26.946	0	438.995	0	55.3	4	17.9	4	-1E+10	1	-1E+10	1	-1E+10	1	-1E+10	1	-1E+10	1	-1E+10	1
4901784	94	C	01/30/2018	10:46	-133.168	43.496	0	444.80	0	5.0090	0	34.0820	4	26.951	0	440.777	0	54.9	4	17.7	4	-1E+10	1	-1E+10	1	-1E+10	1	-1E+10	1	-1E+10	1	-1E+10	1
4901784	94	C	01/30/2018	10:46	-133.168	43.496	0	447.60	0	4.9860	0	34.0850	4	26.956	0	443.548	0	53.6	4	17.3	4	-1E+10	1	-1E+10	1	-1E+10	1	-1E+10	1	-1E+10	1	-1E+10	1
4901784	94	C	01/30/2018	10:46	-133.168	43.496	0	450.40	0	4.9990	0	34.0880	4	26.956	0	446.320	0	51.9	4	16.8	4	-1E+10	1	-1E+10	1	-1E+10	1	-1E+10	1	-1E+10	1	-1E+10	1
4901784	94	C	01/30/2018	10:46	-133.168	43.496	0	452.20	0	5.0170	0	34.0910	4	26.957	0	448.102	0	50.7	4	16.4	4	-1E+10	1	-1E+10	1	-1E+10	1	-1E+10	1	-1E+10	1	-1E+10	1
4901784	94	C	01/30/2018	10:46	-133.168	43.496	0	455.00	0	4.9870	0	34.0950	4	26.963	0	450.873	0	49.2	4	15.9	4	-1E+10	1	-1E+10	1	-1E+10	1	-1E+10	1	-1E+10	1	-1E+10	1
4901784	94	C	01/30/2018	10:46	-133.168	43.496	0	457.90	0	4.9660	0	34.1020	4	26.971	0	453.744	0	47.5	4	15.4	4	-1E+10	1	-1E+10	1	-1E+10	1	-1E+10	1	-1E+10	1	-1E+10	1
4901784	94	C	01/30/2018	10:46	-133.168	43.496	0	459.80	0	4.9640	0	34.1030	4	26.972	0	455.624	0	46.4	4	15.0	4	-1E+10	1	-1E+10	1	-1E+10	1	-1E+10	1	-1E+10	1	-1E+10	1
4901784	94	C	01/30/2018	10:46	-133.168	43.496	0	462.60	0	4.9510	0	34.1110	4	26.980	0	458.396	0	45.0	4	14.5	4	-1E+10	1	-1E+10	1	-1E+10	1	-1E+10	1	-1E+10	1	-1E+10	1
4901784	94	C	01/30/2018	10:46	-133.168	43.496	0	465.50	0	4.9510	0	34.1170	4	26.985	0	461.266	0	43.9	4	14.2	4	-1E+10	1	-1E+10	1	-1E+10	1	-1E+10	1	-1E+10	1	-1E+10	1
4901784	94	C	01/30/2018	10:46	-133.168	43.496	0	467.40	0	4.9540	0	34.1180	4	26.986	0	463.147	0	43.3	4	14.0	4	-1E+10	1	-1E+10	1	-1E+10	1	-1E+10	1	-1E+10	1	-1E+10	1
4901784	94	C	01/30/2018	10:46	-133.168	43.496	0	470.30	0	4.9560	0	34.1190	4	26.986	0	466.017	0	42.2	4	13.6	4	-1E+10	1	-1E+10	1	-1E+10	1	-1E+10	1	-1E+10	1	-1E+10	1
4901784	94	C	01/30/2018	10:46	-133.168	43.496	0	473.40	0	4.9620	0	34.1220	4	26.988	0	469.086	0	40.7	4	13.2	4	-1E+10	1	-1E+10	1	-1E+10	1	-1E+10	1	-1E+10	1	-1E+10	1
4901784	94	C	01/30/2018	10:46	-133.168	43.496	0	474.80	0	4.9710	0	34.1270	4	26.991	0	470.471	0	39.5	4	12.8	4	-1E+10	1	-1E+10	1	-1E+10	1	-1E+10	1	-1E+10	1	-1E+10	1
4901784	94	C	01/30/2018	10:46	-133.168	43.496	0	477.30	0	4.9910	0	34.1370	4	26.997	0	472.946	0	38.0	4	12.3	4	-1E+10	1	-1E+10	1	-1E+10	1	-1E+10	1	-1E+10	1	-1E+10	1
4901784	94	C	01/30/2018	10:46	-133.168	43.496	0	479.70	0	4.9890	0	34.1400	4	26.999	0	475.321	0	37.4	4	12.1	4	-1E+10	1	-1E+10	1	-1E+10	1	-1E+10	1	-1E+10	1	-1E+10	1
4901784	94	C	01/30/2018	10:46	-133.168	43.496	0	482.90	0	4.9890	0	34.1430	4	27.002	0	478.488	0	36.5	4	11.8	4	-1E+10	1	-1E+10	1	-1E+10	1	-1E+10	1	-1E+10	1	-1E+10	1
4901784	94	C	01/30/2018	10:46	-133.168	43.496	0	485.30	0	4.9870	0	34.1450	4	27.003	0	480.863	0	35.8	4	11.6	4	-1E+10	1	-1E+10	1	-1E+10	1	-1E+10	1	-1E+10	1	-1E+10	1
4901784	94	C	01/30/2018	10:46	-133.168	43.496	0	487.70	0	4.9870	0	34.1490	4	27.007	0	483.239	0	35.0	4	11.3	4	-1E+10	1	-1E+10	1	-1E+10	1	-1E+10	1	-1E+10	1	-1E+10	1
4901784	94	C	01/30/2018	10:46	-133.168	43.496	0	490.20	0	4.9960	0	34.1530	4	27.009	0	485.713	0	34.4	4	11.1	4	-1E+10	1	-1E+10	1	-1E+10	1	-1E+10	1	-1E+10	1	-1E+10	1
4901784	94	C	01/30/2018	10:46	-133.168	43.496	0	492.70	0	4.9940	0	34.1530	4	27.009	0	488.187	0	33.9	4	10.9	4	-1E+10	1	-1E+10	1	-1E+10	1	-1E+10	1	-1E+10	1	-1E+10	1
4901784	94	C	01/30/2018	10:46	-133.168	43.496	0	495.20	0	4.9870	0	34.1540	4	27.011	0	490.661	0	33.1	4	10.7	4	-1E+10	1	-1E+10	1	-1E+10	1	-1E+10	1	-1E+10	1	-1E+10	1
4901784	94	C	01/30/2018	10:46	-133.168	43.496	0	497.70	0	4.9870	0	34.1590	4	27.015	0	493.135	0	32.1	4	10.4	4	-1E+10	1	-1E+10	1	-1E+10	1	-1E+10	1	-1E+10	1	-1E+10	1
4901784	94	C	01/30/2018	10:46	-133.168	43.496	0	500.20	0	4.9700	0	34.1680	4	27.024	0	495.609	0	31.5	4	10.2	4	-1E+10	1	-1E+10	1	-1E+10	1	-1E+10	1	-1E+10	1	-1E+10	1
4901784	94	C	01/30/2018	10:46	-133.168	43.496	0	505.30	0	4.9650	0	34.1690	4	27.025	0	500.656	0	31.0	4	10.0	4	-1E+10	1	-1E+10	1	-1E+10	1	-1E+10	1	-1E+10	1	-1E+10	1
4901784	94	C	01/30/2018	10:46	-133.168	43.496	0	510.30	0	4.9500	0	34.1720	4	27.029	0	505.604	0	30.4	4	9.8	4	-1E+10	1	-1E+10	1	-1E+10	1	-1E+10	1	-1E+10	1	-1E+10	1
4901784	94	C	01/30/2018	10:46	-133.168	43.496	0	515.40	0	4.9440	0	34.1740	4	27.032	0	510.651	0	29.9	4	9.7	4	-1E+10	1	-1E+10	1	-1E+10	1	-1E+10	1	-1E+10	1	-1E+10	1
4901784	94	C	01/30/2018	10:46	-133.168	43.496	0	520.50	0	4.9340	0	34.1760	4	27.034	0	515.698	0	29.3	4	9.5	4	-1E+10	1	-1E+10	1	-1E+10	1	-1E+10	1	-1E+10	1	-1E+10	1
4901784	94	C	01/30/2018	10:46	-133.168	43.496	0	525.70	0	4.9180	0	34.1800	4	27.039	0	520.843	0	28.5	4	9.2	4	-1E+10	1	-1E+10	1	-1E+10	1	-1E+10	1	-1E+10	1	-1E+10	1
4901784	94	C	01/30/2018	10:46	-133.168	43.496	0	530.70	0	4.9030	0	34.1830	4	27.043	0	525.791	0	27.8	4	9.0	4	-1E+10	1	-1E+10	1	-1E+10	1	-1E+10	1	-1E+10	1	-1E+10	1
4901784	94	C	01/30/2018	10:46	-133.168	43.496	0	535.00	0	4.8800	0	34.1880	4	27.050	0	530.046	0	27.2	4	8.8	4	-1E+10	1	-1E+10	1	-1E+10	1	-1E+10	1	-1E+10	1	-1E+10	1
4901784	94	C	01/30/2018	10:46	-133.168	43.496	0	539.40	0	4.8710	0	34.1890	4	27.052	0	534.399	0	26.9	4	8.7	4	-1E+10	1	-1E+10	1	-1E+10	1	-1E+10	1	-1E+10	1	-1E+10	1
4901784	94	C	01/30/2018	10:46	-133.168	43.496	0	544.50	0	4.8570	0	34.1910	4	27.055	0	539.445	0	26.4	4	8.5	4	-1E+10	1	-1E+10	1	-1E+10	1	-1E+10	1	-1E+10	1	-1E+10	1
4901784	94	C	01/30/2018	10:46	-133.168	43.496	0	549.70	0	4.8250	0	34.1930	4	27.060	0	544.590	0	26.1	4	8.4	4	-1E+10	1	-1E+10	1	-1E+10	1	-1E+10	1	-1E+10	1	-1E+10	1
4901784	94	C	01/30/2018	10:46	-133.168	43.496	0	554.70	0	4.7990	0	34.1950	4	27.065	0	549.537	0	25.7	4	8.3	4	-1E+10	1	-1E+10	1	-1E+10	1	-1E+10	1	-1E+10	1	-1E+10	1
4901784	94	C	01/30/2018	10:46	-133.168	43.496	0	559.80	0	4.7930	0	34.1980	4	27.068	0	554.583	0	25.1	4	8.1	4	-1E+10	1	-1E+10	1	-1E+10	1	-1E+10	1	-1E+10	1	-1E+10	1
4901784	94	C	01/30/2018	10:46	-133.168	43.496	0	565.00	0	4.7760	0	34.2000	4	27.071	0	559.728	0	24.6	4	7.9	4	-1E+10	1	-1E+10	1	-1E+10	1	-1E+10	1	-1E+10	1	-1E+10	1
4901784	94	C	01/30/2018	10:46	-133.168	43.496	0	570.10	0	4.7490	0	34.2040	4	27.078	0	564.773	0	24.0	4	7.7	4	-1E+10	1	-1E+10	1	-1E+10	1	-1E+10	1	-1E+10	1	-1E+10	1
4901784	94	C	01/30/2018	10:46	-133.168	43.496	0	575.20	0	4.7000	0	34.2070	4	27.085	0	569.818	0	23.4	4	7.5	4	-1E+10	1	-1E+10	1	-1E+10	1	-1E+10	1	-1E+10	1	-1E+10	1
4901784	94	C	01/30/2018	10:46	-133.168	43.496	0	580.30	0	4.7070	0	34.2130	4	27.090	0	574.864	0	22.4	4	7.2	4	-1E+10	1	-1E+10	1	-1E+10	1	-1E+10	1	-1E+10	1	-1E+10	1
4901784	94	C	01/30/2018	10:46	-133.168	43.496	0	585.40	0	4.7020	0	34.2180	4	27.094	0	579.909	0	21.8	4	7.0	4	-1E+10	1	-1E+10	1	-1E+10	1	-1E+10	1	-1E+10	1	-1E+10	1
4901784	94	C	01/30/2018	10:46	-133.168	43.496	0	590.70	0	4.6980	0	34.2220	4	27.098	0	585.152	0	21.3	4	6.8	4	-1E+10	1	-1E+10	1	-1E+10	1	-1E+10	1	-1E+10	1	-1E+10	1
4901784	94	C	01/30/2018	10:46	-133.168	43.496	0	595.00	0	4.6840	0	34.2240	4	27.101	0	589.405	0	20.8	4	6.7	4	-1E+10	1	-1E+10	1	-1E+10	1	-1E+10	1	-1E+10	1	-1E+10	1
4901784	94	C	01/30/2018	10:46	-133.168	43.496	0	599.30	0	4.6800	0	34.2270	4	27.104	0	593.659	0	20.1	4	6.5	4	-1E+10	1	-1E+10	1	-1E+10	1	-1E+10	1	-1E+10	1	-1E+10	1
4901784	94	C	01/30/2018	10:46	-133.168	43.496	0	604.40	0	4.6390	0	34.2350	4	27.115	0	598.703	0	19.3	4	6.2	4	-1E+10	1	-1E+10	1	-1E+10	1	-1E+10	1	-1E+10	1	-1E+10	1
4901784	94	C	01/30/2018	10:46	-133.168	43.496	0	609.60	0	4.6080	0	34.2410	4	27.123	0	603.847	0	18.9	4	6.1	4	-1E+10	1	-1E+10	1	-1E+10	1	-1E+10	1	-1E+10	1	-1E+10	1
4901784	94	C	01/30/2018	10:46	-133.168	43.496	0	615.00	0	4.5960	0	34.2420	4	27.125	0	609.188	0	18.5	4	5.9	4	-1E+10	1	-1E+10	1	-1E+10	1	-1E+10	1	-1E+10	1	-1E+10	1
4901784	94	C	01/30/2018	10:46	-133.168	43.496	0	620.30	0	4.5790	0	34.2450	4	27.129	0	614.430	0	18.0	4	5.8	4	-1E+10	1	-1E+10	1	-1E+10	1	-1E+10	1	-1E+10	1	-1E+10	1
4901784	94	C	01/30/2018	10:46	-133.168	43.496	0	625.60	0	4.5470	0	34.2530	4	27.139	0	619.672	0	17.4	4	5.6	4	-1E+10	1	-1E+10	1	-1E+10	1	-1E+10	1	-1E+10	1	-1E+10	1
4901784	94	C	01/30/2018	10:46	-133.168	43.496	0	630.10	0	4.5330	0	34.2580	4	27.145	0	624.122	0	17.1	4	5.5	4	-1E+10	1	-1E+10	1	-1E+10	1	-1E+10	1	-1E+10	1	-1E+10	1
4901784	94	C	01/30/2018	10:46	-133.168	43.496	0	634.70	0	4.5280	0	34.2600	4	27.147	0	628.672	0	16.8	4	5.4	4	-1E+10	1	-1E+10	1	-1E+10	1	-1E+10	1	-1E+10	1	-1E+10	1
4901784	94	C	01/30/2018	10:46	-133.168	43.496	0	640.20	0	4.5220	0	34.2620	4	27.149	0	634.111	0	16.4	4	5.3	4	-1E+10	1	-1E+10	1	-1E+10	1	-1E+10	1	-1E+10	1	-1E+10	1
4901784	94	C	01/30/2018	10:46	-133.168	43.496	0	645.60	0	4.5060	0	34.2680	4	27.156	0	639.452	0	16.0	4	5.1	4	-1E+10	1	-1E+10	1	-1E+10	1	-1E+10	1	-1E+10	1	-1E+10	1
4901784	94	C	01/30/2018	10:46	-133.168	43.496	0	650.00	0	4.4920	0	34.2730	4	27.161	0	643.803	0	15.6	4	5.0	4	-1E+10	1	-1E+10	1	-1E+10	1	-1E+10	1	-1E+10	1	-1E+10	1
4901784	94	C	01/30/2018	10:46	-133.168	43.496	0	654.50	0	4.4790	0	34.2760	4	27.165	0	648.253	0	15.4	4	4.9	4	-1E+10	1	-1E+10	1	-1E+10	1	-1E+10	1	-1E+10	1	-1E+10	1
4901784	94	C	01/30/2018	10:46	-133.168	43.496	0	659.90	0	4.4680	0	34.2790	4	27.169	0	653.593	0	15.1	4	4.8	4	-1E+10	1	-1E+10	1	-1E+10	1	-1E+10	1	-1E+10	1	-1E+10	1
4901784	94	C	01/30/2018	10:46	-133.168	43.496	0	665.30	0	4.4530	0	34.2830	4	27.173	0	658.933	0	14.7	4	4.7	4	-1E+10	1	-1E+10	1	-1E+10	1	-1E+10	1	-1E+10	1	-1E+10	1
4901784	94	C	01/30/2018	10:46	-133.168	43.496	0	669.80	0	4.4430	0	34.2870	4	27.178	0	663.383	0	14.4	4	4.6	4	-1E+10	1	-1E+10	1	-1E+10	1	-1E+10	1	-1E+10	1	-1E+10	1
4901784	94	C	01/30/2018	10:46	-133.168	43.496	0	674.40	0	4.4420	0	34.2920	4	27.182	0	667.931	0	14.1	4	4.5	4	-1E+10	1	-1E+10	1	-1E+10	1	-1E+10	1	-1E+10	1	-1E+10	1
4901784	94	C	01/30/2018	10:46	-133.168	43.496	0	679.90	0	4.4290	0	34.2960	4	27.187	0	673.370	0	13.8	4	4.4	4	-1E+10	1	-1E+10	1	-1E+10	1	-1E+10	1	-1E+10	1	-1E+10	1
4901784	94	C	01/30/2018	10:46	-133.168	43.496	0	685.40	0	4.4120	0	34.3010	4	27.192	0	678.808	0	13.5	4	4.3	4	-1E+10	1	-1E+10	1	-1E+10	1	-1E+10	1	-1E+10	1	-1E+10	1
4901784	94	C	01/30/2018	10:46	-133.168	43.496	0	690.00	0	4.4010	0	34.3030	4	27.195	0	683.356	0	13.3	4	4.3	4	-1E+10	1	-1E+10	1	-1E+10	1	-1E+10	1	-1E+10	1	-1E+10	1
4901784	94	C	01/30/2018	10:46	-133.168	43.496	0	694.70	0	4.3850	0	34.3070	4	27.200	0	688.003	0	13.1	4	4.2	4	-1E+10	1	-1E+10	1	-1E+10	1	-1E+10	1	-1E+10	1	-1E+10	1
4901784	94	C	01/30/2018	10:46	-133.168	43.496	0	700.40	0	4.3720	0	34.3110	4	27.205	0	693.639	0	12.9	4	4.1	4	-1E+10	1	-1E+10	1	-1E+10	1	-1E+10	1	-1E+10	1	-1E+10	1
4901784	94	C	01/30/2018	10:46	-133.168	43.496	0	705.00	0	4.3660	0	34.3130	4	27.207	0	698.186	0	12.8	4	4.1	4	-1E+10	1	-1E+10	1	-1E+10	1	-1E+10	1	-1E+10	1	-1E+10	1
4901784	94	C	01/30/2018	10:46	-133.168	43.496	0	709.70	0	4.3570	0	34.3160	4	27.210	0	702.833	0	12.6	4	4.0	4	-1E+10	1	-1E+10	1	-1E+10	1	-1E+10	1	-1E+10	1	-1E+10	1
4901784	94	C	01/30/2018	10:46	-133.168	43.496	0	715.20	0	4.3410	0	34.3200	4	27.215	0	708.271	0	12.4	4	3.9	4	-1E+10	1	-1E+10	1	-1E+10	1	-1E+10	1	-1E+10	1	-1E+10	1
4901784	94	C	01/30/2018	10:46	-133.168	43.496	0	719.90	0	4.3260	0	34.3240	4	27.220	0	712.917	0	12.1	4	3.9	4	-1E+10	1	-1E+10	1	-1E+10	1	-1E+10	1	-1E+10	1	-1E+10	1
4901784	94	C	01/30/2018	10:46	-133.168	43.496	0	725.30	0	4.3040	0	34.3320	4	27.229	0	718.255	0	11.9	4	3.8	4	-1E+10	1	-1E+10	1	-1E+10	1	-1E+10	1	-1E+10	1	-1E+10	1
4901784	94	C	01/30/2018	10:46	-133.168	43.496	0	730.40	0	4.2940	0	34.3340	4	27.231	0	723.297	0	11.9	4	3.8	4	-1E+10	1	-1E+10	1	-1E+10	1	-1E+10	1	-1E+10	1	-1E+10	1
4901784	94	C	01/30/2018	10:46	-133.168	43.496	0	735.30	0	4.2920	0	34.3350	4	27.233	0	728.141	0	11.8	4	3.8	4	-1E+10	1	-1E+10	1	-1E+10	1	-1E+10	1	-1E+10	1	-1E+10	1
4901784	94	C	01/30/2018	10:46	-133.168	43.496	0	740.10	0	4.2740	0	34.3370	4	27.236	0	732.886	0	11.7	4	3.7	4	-1E+10	1	-1E+10	1	-1E+10	1	-1E+10	1	-1E+10	1	-1E+10	1
4901784	94	C	01/30/2018	10:46	-133.168	43.496	0	745.00	0	4.2460	0	34.3420	4	27.243	0	737.729	0	11.6	4	3.7	4	-1E+10	1	-1E+10	1	-1E+10	1	-1E+10	1	-1E+10	1	-1E+10	1
4901784	94	C	01/30/2018	10:46	-133.168	43.496	0	749.80	0	4.2180	0	34.3430	4	27.247	0	742.474	0	11.6	4	3.7	4	-1E+10	1	-1E+10	1	-1E+10	1	-1E+10	1	-1E+10	1	-1E+10	1
4901784	94	C	01/30/2018	10:46	-133.168	43.496	0	754.70	0	4.2060	0	34.3430	4	27.248	0	747.317	0	11.5	4	3.7	4	-1E+10	1	-1E+10	1	-1E+10	1	-1E+10	1	-1E+10	1	-1E+10	1
4901784	94	C	01/30/2018	10:46	-133.168	43.496	0	759.50	0	4.1840	0	34.3490	4	27.255	0	752.062	0	11.4	4	3.6	4	-1E+10	1	-1E+10	1	-1E+10	1	-1E+10	1	-1E+10	1	-1E+10	1
4901784	94	C	01/30/2018	10:46	-133.168	43.496	0	764.40	0	4.1530	0	34.3530	4	27.262	0	756.905	0	11.4	4	3.6	4	-1E+10	1	-1E+10	1	-1E+10	1	-1E+10	1	-1E+10	1	-1E+10	1
4901784	94	C	01/30/2018	10:46	-133.168	43.496	0	769.30	0	4.1390	0	34.3530	4	27.263	0	761.748	0	11.3	4	3.6	4	-1E+10	1	-1E+10	1	-1E+10	1	-1E+10	1	-1E+10	1	-1E+10	1
4901784	94	C	01/30/2018	10:46	-133.168	43.496	0	774.40	0	4.1390	0	34.3590	4	27.268	0	766.788	0	11.1	4	3.5	4	-1E+10	1	-1E+10	1	-1E+10	1	-1E+10	1	-1E+10	1	-1E+10	1
4901784	94	C	01/30/2018	10:46	-133.168	43.496	0	779.40	0	4.1380	0	34.3620	4	27.270	0	771.730	0	11.0	4	3.5	4	-1E+10	1	-1E+10	1	-1E+10	1	-1E+10	1	-1E+10	1	-1E+10	1
4901784	94	C	01/30/2018	10:46	-133.168	43.496	0	784.60	0	4.1240	0	34.3640	4	27.274	0	776.869	0	11.1	4	3.5	4	-1E+10	1	-1E+10	1	-1E+10	1	-1E+10	1	-1E+10	1	-1E+10	1
4901784	94	C	01/30/2018	10:46	-133.168	43.496	0	789.80	0	4.1010	0	34.3630	4	27.275	0	782.008	0	11.2	4	3.6	4	-1E+10	1	-1E+10	1	-1E+10	1	-1E+10	1	-1E+10	1	-1E+10	1
4901784	94	C	01/30/2018	10:46	-133.168	43.496	0	794.90	0	4.0380	0	34.3580	4	27.278	0	787.048	0	11.4	4	3.6	4	-1E+10	1	-1E+10	1	-1E+10	1	-1E+10	1	-1E+10	1	-1E+10	1
4901784	94	C	01/30/2018	10:46	-133.168	43.496	0	800.20	0	4.0120	0	34.3630	4	27.284	0	792.286	0	11.1	4	3.5	4	-1E+10	1	-1E+10	1	-1E+10	1	-1E+10	1	-1E+10	1	-1E+10	1
4901784	94	C	01/30/2018	10:46	-133.168	43.496	0	805.50	0	4.0170	0	34.3730	4	27.292	0	797.523	0	10.9	4	3.4	4	-1E+10	1	-1E+10	1	-1E+10	1	-1E+10	1	-1E+10	1	-1E+10	1
4901784	94	C	01/30/2018	10:46	-133.168	43.496	0	809.90	0	4.0140	0	34.3790	4	27.297	0	801.871	0	10.7	4	3.4	4	-1E+10	1	-1E+10	1	-1E+10	1	-1E+10	1	-1E+10	1	-1E+10	1
4901784	94	C	01/30/2018	10:46	-133.168	43.496	0	814.40	0	4.0090	0	34.3810	4	27.299	0	806.318	0	10.7	4	3.4	4	-1E+10	1	-1E+10	1	-1E+10	1	-1E+10	1	-1E+10	1	-1E+10	1
4901784	94	C	01/30/2018	10:46	-133.168	43.496	0	819.80	0	3.9890	0	34.3850	4	27.304	0	811.654	0	10.7	4	3.4	4	-1E+10	1	-1E+10	1	-1E+10	1	-1E+10	1	-1E+10	1	-1E+10	1
4901784	94	C	01/30/2018	10:46	-133.168	43.496	0	824.80	0	3.9700	0	34.3880	4	27.309	0	816.594	0	10.7	4	3.4	4	-1E+10	1	-1E+10	1	-1E+10	1	-1E+10	1	-1E+10	1	-1E+10	1
4901784	94	C	01/30/2018	10:46	-133.168	43.496	0	829.40	0	3.9580	0	34.3890	4	27.311	0	821.140	0	10.7	4	3.4	4	-1E+10	1	-1E+10	1	-1E+10	1	-1E+10	1	-1E+10	1	-1E+10	1
4901784	94	C	01/30/2018	10:46	-133.168	43.496	0	834.90	0	3.9410	0	34.3910	4	27.314	0	826.574	0	10.6	4	3.4	4	-1E+10	1	-1E+10	1	-1E+10	1	-1E+10	1	-1E+10	1	-1E+10	1
4901784	94	C	01/30/2018	10:46	-133.168	43.496	0	840.50	0	3.9210	0	34.3980	4	27.322	0	832.107	0	10.6	4	3.3	4	-1E+10	1	-1E+10	1	-1E+10	1	-1E+10	1	-1E+10	1	-1E+10	1
4901784	94	C	01/30/2018	10:46	-133.168	43.496	0	845.40	0	3.9120	0	34.4000	4	27.324	0	836.948	0	10.5	4	3.3	4	-1E+10	1	-1E+10	1	-1E+10	1	-1E+10	1	-1E+10	1	-1E+10	1
4901784	94	C	01/30/2018	10:46	-133.168	43.496	0	850.30	0	3.9060	0	34.4040	4	27.328	0	841.789	0	10.5	4	3.3	4	-1E+10	1	-1E+10	1	-1E+10	1	-1E+10	1	-1E+10	1	-1E+10	1
4901784	94	C	01/30/2018	10:46	-133.168	43.496	0	855.20	0	3.9020	0	34.4090	4	27.333	0	846.630	0	10.4	4	3.3	4	-1E+10	1	-1E+10	1	-1E+10	1	-1E+10	1	-1E+10	1	-1E+10	1
4901784	94	C	01/30/2018	10:46	-133.168	43.496	0	860.20	0	3.8900	0	34.4130	4	27.337	0	851.570	0	10.4	4	3.3	4	-1E+10	1	-1E+10	1	-1E+10	1	-1E+10	1	-1E+10	1	-1E+10	1
4901784	94	C	01/30/2018	10:46	-133.168	43.496	0	865.20	0	3.8940	0	34.4170	4	27.340	0	856.510	0	10.3	4	3.2	4	-1E+10	1	-1E+10	1	-1E+10	1	-1E+10	1	-1E+10	1	-1E+10	1
4901784	94	C	01/30/2018	10:46	-133.168	43.496	0	870.20	0	3.9000	0	34.4210	4	27.342	0	861.449	0	10.3	4	3.2	4	-1E+10	1	-1E+10	1	-1E+10	1	-1E+10	1	-1E+10	1	-1E+10	1
4901784	94	C	01/30/2018	10:46	-133.168	43.496	0	875.30	0	3.8970	0	34.4230	4	27.344	0	866.487	0	10.3	4	3.2	4	-1E+10	1	-1E+10	1	-1E+10	1	-1E+10	1	-1E+10	1	-1E+10	1
4901784	94	C	01/30/2018	10:46	-133.168	43.496	0	880.40	0	3.8860	0	34.4250	4	27.347	0	871.525	0	10.3	4	3.3	4	-1E+10	1	-1E+10	1	-1E+10	1	-1E+10	1	-1E+10	1	-1E+10	1
4901784	94	C	01/30/2018	10:46	-133.168	43.496	0	885.60	0	3.8760	0	34.4260	4	27.349	0	876.662	0	10.4	4	3.3	4	-1E+10	1	-1E+10	1	-1E+10	1	-1E+10	1	-1E+10	1	-1E+10	1
4901784	94	C	01/30/2018	10:46	-133.168	43.496	0	889.90	0	3.8620	0	34.4270	4	27.351	0	880.910	0	10.4	4	3.3	4	-1E+10	1	-1E+10	1	-1E+10	1	-1E+10	1	-1E+10	1	-1E+10	1
4901784	94	C	01/30/2018	10:46	-133.168	43.496	0	894.30	0	3.8440	0	34.4270	4	27.353	0	885.256	0	10.5	4	3.3	4	-1E+10	1	-1E+10	1	-1E+10	1	-1E+10	1	-1E+10	1	-1E+10	1
4901784	94	C	01/30/2018	10:46	-133.168	43.496	0	899.60	0	3.7870	0	34.4290	4	27.360	0	890.491	0	10.6	4	3.3	4	-1E+10	1	-1E+10	1	-1E+10	1	-1E+10	1	-1E+10	1	-1E+10	1
4901784	94	C	01/30/2018	10:46	-133.168	43.496	0	904.80	0	3.7900	0	34.4310	4	27.362	0	895.627	0	10.6	4	3.3	4	-1E+10	1	-1E+10	1	-1E+10	1	-1E+10	1	-1E+10	1	-1E+10	1
4901784	94	C	01/30/2018	10:46	-133.168	43.496	0	910.10	0	3.7420	0	34.4290	4	27.365	0	900.862	0	10.7	4	3.4	4	-1E+10	1	-1E+10	1	-1E+10	1	-1E+10	1	-1E+10	1	-1E+10	1
4901784	94	C	01/30/2018	10:46	-133.168	43.496	0	915.30	0	3.7280	0	34.4300	4	27.367	0	905.998	0	10.7	4	3.4	4	-1E+10	1	-1E+10	1	-1E+10	1	-1E+10	1	-1E+10	1	-1E+10	1
4901784	94	C	01/30/2018	10:46	-133.168	43.496	0	919.80	0	3.7060	0	34.4290	4	27.369	0	910.443	0	10.7	4	3.4	4	-1E+10	1	-1E+10	1	-1E+10	1	-1E+10	1	-1E+10	1	-1E+10	1
4901784	94	C	01/30/2018	10:46	-133.168	43.496	0	924.30	0	3.6870	0	34.4300	4	27.371	0	914.887	0	10.8	4	3.4	4	-1E+10	1	-1E+10	1	-1E+10	1	-1E+10	1	-1E+10	1	-1E+10	1
4901784	94	C	01/30/2018	10:46	-133.168	43.496	0	929.80	0	3.6480	0	34.4320	4	27.377	0	920.319	0	10.9	4	3.4	4	-1E+10	1	-1E+10	1	-1E+10	1	-1E+10	1	-1E+10	1	-1E+10	1
4901784	94	C	01/30/2018	10:46	-133.168	43.496	0	935.20	0	3.6330	0	34.4330	4	27.379	0	925.652	0	10.9	4	3.4	4	-1E+10	1	-1E+10	1	-1E+10	1	-1E+10	1	-1E+10	1	-1E+10	1
4901784	94	C	01/30/2018	10:46	-133.168	43.496	0	940.70	0	3.6250	0	34.4340	4	27.381	0	931.083	0	10.9	4	3.4	4	-1E+10	1	-1E+10	1	-1E+10	1	-1E+10	1	-1E+10	1	-1E+10	1
4901784	94	C	01/30/2018	10:46	-133.168	43.496	0	945.10	0	3.5910	0	34.4350	4	27.385	0	935.429	0	11.0	4	3.4	4	-1E+10	1	-1E+10	1	-1E+10	1	-1E+10	1	-1E+10	1	-1E+10	1
4901784	94	C	01/30/2018	10:46	-133.168	43.496	0	949.70	0	3.5790	0	34.4340	4	27.385	0	939.971	0	11.0	4	3.5	4	-1E+10	1	-1E+10	1	-1E+10	1	-1E+10	1	-1E+10	1	-1E+10	1
4901784	94	C	01/30/2018	10:46	-133.168	43.496	0	955.10	0	3.5580	0	34.4340	4	27.387	0	945.304	0	11.1	4	3.5	4	-1E+10	1	-1E+10	1	-1E+10	1	-1E+10	1	-1E+10	1	-1E+10	1
4901784	94	C	01/30/2018	10:46	-133.168	43.496	0	960.50	0	3.5490	0	34.4360	4	27.390	0	950.636	0	11.1	4	3.5	4	-1E+10	1	-1E+10	1	-1E+10	1	-1E+10	1	-1E+10	1	-1E+10	1
4901784	94	C	01/30/2018	10:46	-133.168	43.496	0	965.10	0	3.5410	0	34.4410	4	27.395	0	955.178	0	11.1	4	3.5	4	-1E+10	1	-1E+10	1	-1E+10	1	-1E+10	1	-1E+10	1	-1E+10	1
4901784	94	C	01/30/2018	10:46	-133.168	43.496	0	969.60	0	3.5460	0	34.4460	4	27.398	0	959.622	0	11.2	4	3.5	4	-1E+10	1	-1E+10	1	-1E+10	1	-1E+10	1	-1E+10	1	-1E+10	1
4901784	94	C	01/30/2018	10:46	-133.168	43.496	0	975.10	0	3.5300	0	34.4480	4	27.401	0	965.053	0	11.2	4	3.5	4	-1E+10	1	-1E+10	1	-1E+10	1	-1E+10	1	-1E+10	1	-1E+10	1
4901784	94	C	01/30/2018	10:46	-133.168	43.496	0	980.60	0	3.5190	0	34.4480	4	27.402	0	970.483	0	11.2	4	3.5	4	-1E+10	1	-1E+10	1	-1E+10	1	-1E+10	1	-1E+10	1	-1E+10	1
4901784	94	C	01/30/2018	10:46	-133.168	43.496	0	985.20	0	3.5100	0	34.4480	4	27.403	0	975.025	0	11.3	4	3.5	4	-1E+10	1	-1E+10	1	-1E+10	1	-1E+10	1	-1E+10	1	-1E+10	1
4901784	94	C	01/30/2018	10:46	-133.168	43.496	0	989.80	0	3.4860	0	34.4500	4	27.407	0	979.567	0	11.4	4	3.6	4	-1E+10	1	-1E+10	1	-1E+10	1	-1E+10	1	-1E+10	1	-1E+10	1
4901784	94	C	01/30/2018	10:46	-133.168	43.496	0	995.40	0	3.4660	0	34.4510	4	27.410	0	985.096	0	11.4	4	3.6	4	-1E+10	1	-1E+10	1	-1E+10	1	-1E+10	1	-1E+10	1	-1E+10	1
4901784	94	C	01/30/2018	10:46	-133.168	43.496	0	999.90	0	3.4510	0	34.4550	4	27.415	0	989.538	0	11.5	4	3.6	4	-1E+10	1	-1E+10	1	-1E+10	1	-1E+10	1	-1E+10	1	-1E+10	1
4901784	94	C	01/30/2018	10:46	-133.168	43.496	0	1004.40	0	3.4430	0	34.4570	4	27.417	0	993.981	0	11.5	4	3.6	4	-1E+10	1	-1E+10	1	-1E+10	1	-1E+10	1	-1E+10	1	-1E+10	1
4901784	94	C	01/30/2018	10:46	-133.168	43.496	0	1009.80	0	3.4380	0	34.4580	4	27.418	0	999.312	0	11.6	4	3.6	4	-1E+10	1	-1E+10	1	-1E+10	1	-1E+10	1	-1E+10	1	-1E+10	1
4901784	94	C	01/30/2018	10:46	-133.168	43.496	0	1015.20	0	3.4200	0	34.4620	4	27.423	0	1004.643	0	11.7	4	3.6	4	-1E+10	1	-1E+10	1	-1E+10	1	-1E+10	1	-1E+10	1	-1E+10	1
4901784	94	C	01/30/2018	10:46	-133.168	43.496	0	1019.80	0	3.4100	0	34.4650	4	27.427	0	1009.184	0	11.8	4	3.7	4	-1E+10	1	-1E+10	1	-1E+10	1	-1E+10	1	-1E+10	1	-1E+10	1
4901784	94	C	01/30/2018	10:46	-133.168	43.496	0	1024.40	0	3.3940	0	34.4690	4	27.431	0	1013.725	0	11.8	4	3.7	4	-1E+10	1	-1E+10	1	-1E+10	1	-1E+10	1	-1E+10	1	-1E+10	1
4901784	94	C	01/30/2018	10:46	-133.168	43.496	0	1030.10	0	3.3870	0	34.4710	4	27.434	0	1019.352	0	11.9	4	3.7	4	-1E+10	1	-1E+10	1	-1E+10	1	-1E+10	1	-1E+10	1	-1E+10	1
4901784	94	C	01/30/2018	10:46	-133.168	43.496	0	1034.70	0	3.3830	0	34.4720	4	27.435	0	1023.893	0	12.0	4	3.7	4	-1E+10	1	-1E+10	1	-1E+10	1	-1E+10	1	-1E+10	1	-1E+10	1
4901784	94	C	01/30/2018	10:46	-133.168	43.496	0	1039.40	0	3.3790	0	34.4730	4	27.436	0	1028.532	0	12.1	4	3.8	4	-1E+10	1	-1E+10	1	-1E+10	1	-1E+10	1	-1E+10	1	-1E+10	1
4901784	94	C	01/30/2018	10:46	-133.168	43.496	0	1045.00	0	3.3710	0	34.4760	4	27.439	0	1034.060	0	12.2	4	3.8	4	-1E+10	1	-1E+10	1	-1E+10	1	-1E+10	1	-1E+10	1	-1E+10	1
4901784	94	C	01/30/2018	10:46	-133.168	43.496	0	1050.30	0	3.3610	0	34.4780	4	27.442	0	1039.291	0	12.3	4	3.8	4	-1E+10	1	-1E+10	1	-1E+10	1	-1E+10	1	-1E+10	1	-1E+10	1
4901784	94	C	01/30/2018	10:46	-133.168	43.496	0	1054.60	0	3.3580	0	34.4790	4	27.443	0	1043.536	0	12.4	4	3.8	4	-1E+10	1	-1E+10	1	-1E+10	1	-1E+10	1	-1E+10	1	-1E+10	1
4901784	94	C	01/30/2018	10:46	-133.168	43.496	0	1060.00	0	3.3470	0	34.4810	4	27.446	0	1048.865	0	12.4	4	3.9	4	-1E+10	1	-1E+10	1	-1E+10	1	-1E+10	1	-1E+10	1	-1E+10	1
4901784	94	C	01/30/2018	10:46	-133.168	43.496	0	1065.50	0	3.3330	0	34.4840	4	27.449	0	1054.294	0	12.5	4	3.9	4	-1E+10	1	-1E+10	1	-1E+10	1	-1E+10	1	-1E+10	1	-1E+10	1
4901784	94	C	01/30/2018	10:46	-133.168	43.496	0	1070.30	0	3.3260	0	34.4860	4	27.452	0	1059.031	0	12.7	4	3.9	4	-1E+10	1	-1E+10	1	-1E+10	1	-1E+10	1	-1E+10	1	-1E+10	1
4901784	94	C	01/30/2018	10:46	-133.168	43.496	0	1075.20	0	3.3190	0	34.4880	4	27.454	0	1063.867	0	12.8	4	4.0	4	-1E+10	1	-1E+10	1	-1E+10	1	-1E+10	1	-1E+10	1	-1E+10	1
4901784	94	C	01/30/2018	10:46	-133.168	43.496	0	1080.10	0	3.3150	0	34.4890	4	27.455	0	1068.703	0	12.9	4	4.0	4	-1E+10	1	-1E+10	1	-1E+10	1	-1E+10	1	-1E+10	1	-1E+10	1
4901784	94	C	01/30/2018	10:46	-133.168	43.496	0	1085.10	0	3.2980	0	34.4930	4	27.460	0	1073.638	0	13.1	4	4.1	4	-1E+10	1	-1E+10	1	-1E+10	1	-1E+10	1	-1E+10	1	-1E+10	1
4901784	94	C	01/30/2018	10:46	-133.168	43.496	0	1090.00	0	3.2880	0	34.4960	4	27.463	0	1078.473	0	13.3	4	4.1	4	-1E+10	1	-1E+10	1	-1E+10	1	-1E+10	1	-1E+10	1	-1E+10	1
4901784	94	C	01/30/2018	10:46	-133.168	43.496	0	1095.00	0	3.2830	0	34.4970	4	27.465	0	1083.407	0	13.4	4	4.2	4	-1E+10	1	-1E+10	1	-1E+10	1	-1E+10	1	-1E+10	1	-1E+10	1
4901784	94	C	01/30/2018	10:46	-133.168	43.496	0	1100.00	0	3.2730	0	34.5000	4	27.468	0	1088.342	0	13.7	4	4.2	4	-1E+10	1	-1E+10	1	-1E+10	1	-1E+10	1	-1E+10	1	-1E+10	1
4901784	94	C	01/30/2018	10:46	-133.168	43.496	0	1105.00	0	3.2720	0	34.5010	4	27.469	0	1093.276	0	13.9	4	4.3	4	-1E+10	1	-1E+10	1	-1E+10	1	-1E+10	1	-1E+10	1	-1E+10	1
4901784	94	C	01/30/2018	10:46	-133.168	43.496	0	1110.10	0	3.2630	0	34.5030	4	27.471	0	1098.308	0	14.1	4	4.4	4	-1E+10	1	-1E+10	1	-1E+10	1	-1E+10	1	-1E+10	1	-1E+10	1
4901784	94	C	01/30/2018	10:46	-133.168	43.496	0	1115.20	0	3.2550	0	34.5060	4	27.475	0	1103.340	0	14.4	4	4.5	4	-1E+10	1	-1E+10	1	-1E+10	1	-1E+10	1	-1E+10	1	-1E+10	1
4901784	94	C	01/30/2018	10:46	-133.168	43.496	0	1120.20	0	3.2470	0	34.5100	4	27.478	0	1108.274	0	14.6	4	4.5	4	-1E+10	1	-1E+10	1	-1E+10	1	-1E+10	1	-1E+10	1	-1E+10	1
4901784	94	C	01/30/2018	10:46	-133.168	43.496	0	1125.40	0	3.2410	0	34.5100	4	27.479	0	1113.405	0	14.7	4	4.6	4	-1E+10	1	-1E+10	1	-1E+10	1	-1E+10	1	-1E+10	1	-1E+10	1
4901784	94	C	01/30/2018	10:46	-133.168	43.496	0	1130.60	0	3.2270	0	34.5130	4	27.483	0	1118.536	0	14.9	4	4.6	4	-1E+10	1	-1E+10	1	-1E+10	1	-1E+10	1	-1E+10	1	-1E+10	1
4901784	94	C	01/30/2018	10:46	-133.168	43.496	0	1135.70	0	3.2140	0	34.5150	4	27.486	0	1123.568	0	15.0	4	4.7	4	-1E+10	1	-1E+10	1	-1E+10	1	-1E+10	1	-1E+10	1	-1E+10	1
4901784	94	C	01/30/2018	10:46	-133.168	43.496	0	1140.00	0	3.2030	0	34.5170	4	27.488	0	1127.810	0	15.1	4	4.7	4	-1E+10	1	-1E+10	1	-1E+10	1	-1E+10	1	-1E+10	1	-1E+10	1
4901784	94	C	01/30/2018	10:46	-133.168	43.496	0	1144.20	0	3.1970	0	34.5180	4	27.490	0	1131.954	0	15.2	4	4.7	4	-1E+10	1	-1E+10	1	-1E+10	1	-1E+10	1	-1E+10	1	-1E+10	1
4901784	94	C	01/30/2018	10:46	-133.168	43.496	0	1149.40	0	3.1900	0	34.5190	4	27.491	0	1137.084	0	15.3	4	4.8	4	-1E+10	1	-1E+10	1	-1E+10	1	-1E+10	1	-1E+10	1	-1E+10	1
4901784	94	C	01/30/2018	10:46	-133.168	43.496	0	1154.60	0	3.1800	0	34.5200	4	27.493	0	1142.214	0	15.4	4	4.8	4	-1E+10	1	-1E+10	1	-1E+10	1	-1E+10	1	-1E+10	1	-1E+10	1
4901784	94	C	01/30/2018	10:46	-133.168	43.496	0	1159.80	0	3.1650	0	34.5220	4	27.496	0	1147.345	0	15.5	4	4.8	4	-1E+10	1	-1E+10	1	-1E+10	1	-1E+10	1	-1E+10	1	-1E+10	1
4901784	94	C	01/30/2018	10:46	-133.168	43.496	0	1165.10	0	3.1570	0	34.5230	4	27.497	0	1152.573	0	15.5	4	4.8	4	-1E+10	1	-1E+10	1	-1E+10	1	-1E+10	1	-1E+10	1	-1E+10	1
4901784	94	C	01/30/2018	10:46	-133.168	43.496	0	1170.40	0	3.1430	0	34.5240	4	27.500	0	1157.801	0	15.6	4	4.8	4	-1E+10	1	-1E+10	1	-1E+10	1	-1E+10	1	-1E+10	1	-1E+10	1
4901784	94	C	01/30/2018	10:46	-133.168	43.496	0	1174.80	0	3.1370	0	34.5250	4	27.501	0	1162.142	0	15.7	4	4.9	4	-1E+10	1	-1E+10	1	-1E+10	1	-1E+10	1	-1E+10	1	-1E+10	1
4901784	94	C	01/30/2018	10:46	-133.168	43.496	0	1179.30	0	3.1260	0	34.5260	4	27.503	0	1166.581	0	15.8	4	4.9	4	-1E+10	1	-1E+10	1	-1E+10	1	-1E+10	1	-1E+10	1	-1E+10	1
4901784	94	C	01/30/2018	10:46	-133.168	43.496	0	1184.60	0	3.1130	0	34.5280	4	27.506	0	1171.809	0	15.9	4	4.9	4	-1E+10	1	-1E+10	1	-1E+10	1	-1E+10	1	-1E+10	1	-1E+10	1
4901784	94	C	01/30/2018	10:46	-133.168	43.496	0	1190.00	0	3.1050	0	34.5290	4	27.507	0	1177.136	0	16.1	4	5.0	4	-1E+10	1	-1E+10	1	-1E+10	1	-1E+10	1	-1E+10	1	-1E+10	1
4901784	94	C	01/30/2018	10:46	-133.168	43.496	0	1195.30	0	3.0950	0	34.5310	4	27.510	0	1182.363	0	16.2	4	5.0	4	-1E+10	1	-1E+10	1	-1E+10	1	-1E+10	1	-1E+10	1	-1E+10	1
4901784	94	C	01/30/2018	10:46	-133.168	43.496	0	1200.70	0	3.0850	0	34.5330	4	27.512	0	1187.690	0	16.4	4	5.1	4	-1E+10	1	-1E+10	1	-1E+10	1	-1E+10	1	-1E+10	1	-1E+10	1
4901784	94	C	01/30/2018	10:46	-133.168	43.496	0	1205.20	0	3.0760	0	34.5350	4	27.515	0	1192.128	0	16.5	4	5.1	4	-1E+10	1	-1E+10	1	-1E+10	1	-1E+10	1	-1E+10	1	-1E+10	1
4901784	94	C	01/30/2018	10:46	-133.168	43.496	0	1209.60	0	3.0700	0	34.5350	4	27.515	0	1196.468	0	16.5	4	5.1	4	-1E+10	1	-1E+10	1	-1E+10	1	-1E+10	1	-1E+10	1	-1E+10	1
4901784	94	C	01/30/2018	10:46	-133.168	43.496	0	1214.90	0	3.0580	0	34.5360	4	27.517	0	1201.695	0	16.5	4	5.1	4	-1E+10	1	-1E+10	1	-1E+10	1	-1E+10	1	-1E+10	1	-1E+10	1
4901784	94	C	01/30/2018	10:46	-133.168	43.496	0	1220.30	0	3.0480	0	34.5360	4	27.518	0	1207.021	0	16.6	4	5.1	4	-1E+10	1	-1E+10	1	-1E+10	1	-1E+10	1	-1E+10	1	-1E+10	1
4901784	94	C	01/30/2018	10:46	-133.168	43.496	0	1225.70	0	3.0390	0	34.5370	4	27.520	0	1212.347	0	16.7	4	5.2	4	-1E+10	1	-1E+10	1	-1E+10	1	-1E+10	1	-1E+10	1	-1E+10	1
4901784	94	C	01/30/2018	10:46	-133.168	43.496	0	1230.20	0	3.0330	0	34.5390	4	27.522	0	1216.785	0	16.8	4	5.2	4	-1E+10	1	-1E+10	1	-1E+10	1	-1E+10	1	-1E+10	1	-1E+10	1
4901784	94	C	01/30/2018	10:46	-133.168	43.496	0	1234.60	0	3.0260	0	34.5400	4	27.523	0	1221.124	0	16.8	4	5.2	4	-1E+10	1	-1E+10	1	-1E+10	1	-1E+10	1	-1E+10	1	-1E+10	1
4901784	94	C	01/30/2018	10:46	-133.168	43.496	0	1239.90	0	3.0200	0	34.5390	4	27.523	0	1226.351	0	16.9	4	5.2	4	-1E+10	1	-1E+10	1	-1E+10	1	-1E+10	1	-1E+10	1	-1E+10	1
4901784	94	C	01/30/2018	10:46	-133.168	43.496	0	1245.30	0	3.0130	0	34.5400	4	27.525	0	1231.676	0	17.1	4	5.3	4	-1E+10	1	-1E+10	1	-1E+10	1	-1E+10	1	-1E+10	1	-1E+10	1
4901784	94	C	01/30/2018	10:46	-133.168	43.496	0	1250.60	0	2.9970	0	34.5420	4	27.528	0	1236.902	0	17.4	4	5.4	4	-1E+10	1	-1E+10	1	-1E+10	1	-1E+10	1	-1E+10	1	-1E+10	1
4901784	94	C	01/30/2018	10:46	-133.168	43.496	0	1255.10	0	2.9880	0	34.5440	4	27.530	0	1241.340	0	17.6	4	5.4	4	-1E+10	1	-1E+10	1	-1E+10	1	-1E+10	1	-1E+10	1	-1E+10	1
4901784	94	C	01/30/2018	10:46	-133.168	43.496	0	1259.60	0	2.9800	0	34.5460	4	27.533	0	1245.777	0	17.9	4	5.5	4	-1E+10	1	-1E+10	1	-1E+10	1	-1E+10	1	-1E+10	1	-1E+10	1
4901784	94	C	01/30/2018	10:46	-133.168	43.496	0	1265.10	0	2.9680	0	34.5490	4	27.536	0	1251.201	0	18.2	4	5.6	4	-1E+10	1	-1E+10	1	-1E+10	1	-1E+10	1	-1E+10	1	-1E+10	1
4901784	94	C	01/30/2018	10:46	-133.168	43.496	0	1270.40	0	2.9580	0	34.5510	4	27.539	0	1256.427	0	18.5	4	5.7	4	-1E+10	1	-1E+10	1	-1E+10	1	-1E+10	1	-1E+10	1	-1E+10	1
4901784	94	C	01/30/2018	10:46	-133.168	43.496	0	1275.60	0	2.9430	0	34.5530	4	27.542	0	1261.554	0	18.7	4	5.8	4	-1E+10	1	-1E+10	1	-1E+10	1	-1E+10	1	-1E+10	1	-1E+10	1
4901784	94	C	01/30/2018	10:46	-133.168	43.496	0	1280.30	0	2.9300	0	34.5540	4	27.544	0	1266.188	0	18.9	4	5.8	4	-1E+10	1	-1E+10	1	-1E+10	1	-1E+10	1	-1E+10	1	-1E+10	1
4901784	94	C	01/30/2018	10:46	-133.168	43.496	0	1285.00	0	2.9140	0	34.5560	4	27.547	0	1270.822	0	19.1	4	5.9	4	-1E+10	1	-1E+10	1	-1E+10	1	-1E+10	1	-1E+10	1	-1E+10	1
4901784	94	C	01/30/2018	10:46	-133.168	43.496	0	1289.90	0	2.9050	0	34.5570	4	27.548	0	1275.653	0	19.2	4	5.9	4	-1E+10	1	-1E+10	1	-1E+10	1	-1E+10	1	-1E+10	1	-1E+10	1
4901784	94	C	01/30/2018	10:46	-133.168	43.496	0	1294.70	0	2.8970	0	34.5580	4	27.550	0	1280.385	0	19.3	4	5.9	4	-1E+10	1	-1E+10	1	-1E+10	1	-1E+10	1	-1E+10	1	-1E+10	1
4901784	94	C	01/30/2018	10:46	-133.168	43.496	0	1299.60	0	2.8870	0	34.5590	4	27.551	0	1285.216	0	19.4	4	6.0	4	-1E+10	1	-1E+10	1	-1E+10	1	-1E+10	1	-1E+10	1	-1E+10	1
4901784	94	C	01/30/2018	10:46	-133.168	43.496	0	1304.60	0	2.8810	0	34.5590	4	27.552	0	1290.146	0	19.6	4	6.0	4	-1E+10	1	-1E+10	1	-1E+10	1	-1E+10	1	-1E+10	1	-1E+10	1
4901784	94	C	01/30/2018	10:46	-133.168	43.496	0	1309.60	0	2.8740	0	34.5610	4	27.554	0	1295.075	0	20.0	4	6.2	4	-1E+10	1	-1E+10	1	-1E+10	1	-1E+10	1	-1E+10	1	-1E+10	1
4901784	94	C	01/30/2018	10:46	-133.168	43.496	0	1314.60	0	2.8510	0	34.5630	4	27.558	0	1300.004	0	20.3	4	6.3	4	-1E+10	1	-1E+10	1	-1E+10	1	-1E+10	1	-1E+10	1	-1E+10	1
4901784	94	C	01/30/2018	10:46	-133.168	43.496	0	1319.60	0	2.8430	0	34.5660	4	27.561	0	1304.933	0	20.7	4	6.4	4	-1E+10	1	-1E+10	1	-1E+10	1	-1E+10	1	-1E+10	1	-1E+10	1
4901784	94	C	01/30/2018	10:46	-133.168	43.496	0	1324.70	0	2.8310	0	34.5680	4	27.564	0	1309.960	0	21.0	4	6.5	4	-1E+10	1	-1E+10	1	-1E+10	1	-1E+10	1	-1E+10	1	-1E+10	1
4901784	94	C	01/30/2018	10:46	-133.168	43.496	0	1329.90	0	2.8220	0	34.5690	4	27.565	0	1315.086	0	21.1	4	6.5	4	-1E+10	1	-1E+10	1	-1E+10	1	-1E+10	1	-1E+10	1	-1E+10	1
4901784	94	C	01/30/2018	10:46	-133.168	43.496	0	1335.00	0	2.8190	0	34.5700	4	27.566	0	1320.114	0	21.3	4	6.6	4	-1E+10	1	-1E+10	1	-1E+10	1	-1E+10	1	-1E+10	1	-1E+10	1
4901784	94	C	01/30/2018	10:46	-133.168	43.496	0	1340.10	0	2.8160	0	34.5710	4	27.568	0	1325.141	0	21.5	4	6.6	4	-1E+10	1	-1E+10	1	-1E+10	1	-1E+10	1	-1E+10	1	-1E+10	1
4901784	94	C	01/30/2018	10:46	-133.168	43.496	0	1345.20	0	2.8060	0	34.5720	4	27.569	0	1330.168	0	21.7	4	6.7	4	-1E+10	1	-1E+10	1	-1E+10	1	-1E+10	1	-1E+10	1	-1E+10	1
4901784	94	C	01/30/2018	10:46	-133.168	43.496	0	1350.40	0	2.7930	0	34.5730	4	27.571	0	1335.293	0	21.8	4	6.7	4	-1E+10	1	-1E+10	1	-1E+10	1	-1E+10	1	-1E+10	1	-1E+10	1
4901784	94	C	01/30/2018	10:46	-133.168	43.496	0	1355.60	0	2.7840	0	34.5740	4	27.573	0	1340.418	0	22.0	4	6.8	4	-1E+10	1	-1E+10	1	-1E+10	1	-1E+10	1	-1E+10	1	-1E+10	1
4901784	94	C	01/30/2018	10:46	-133.168	43.496	0	1360.00	0	2.7760	0	34.5740	4	27.574	0	1344.755	0	22.2	4	6.8	4	-1E+10	1	-1E+10	1	-1E+10	1	-1E+10	1	-1E+10	1	-1E+10	1
4901784	94	C	01/30/2018	10:46	-133.168	43.496	0	1364.90	0	2.7670	0	34.5760	4	27.576	0	1349.585	0	22.4	4	6.9	4	-1E+10	1	-1E+10	1	-1E+10	1	-1E+10	1	-1E+10	1	-1E+10	1
4901784	94	C	01/30/2018	10:46	-133.168	43.496	0	1370.30	0	2.7580	0	34.5770	4	27.578	0	1354.907	0	22.6	4	6.9	4	-1E+10	1	-1E+10	1	-1E+10	1	-1E+10	1	-1E+10	1	-1E+10	1
4901784	94	C	01/30/2018	10:46	-133.168	43.496	0	1375.30	0	2.7530	0	34.5780	4	27.579	0	1359.834	0	22.7	4	7.0	4	-1E+10	1	-1E+10	1	-1E+10	1	-1E+10	1	-1E+10	1	-1E+10	1
4901784	94	C	01/30/2018	10:46	-133.168	43.496	0	1380.30	0	2.7430	0	34.5780	4	27.580	0	1364.762	0	22.9	4	7.0	4	-1E+10	1	-1E+10	1	-1E+10	1	-1E+10	1	-1E+10	1	-1E+10	1
4901784	94	C	01/30/2018	10:46	-133.168	43.496	0	1385.30	0	2.7430	0	34.5790	4	27.581	0	1369.689	0	23.1	4	7.1	4	-1E+10	1	-1E+10	1	-1E+10	1	-1E+10	1	-1E+10	1	-1E+10	1
4901784	94	C	01/30/2018	10:46	-133.168	43.496	0	1390.30	0	2.7330	0	34.5800	4	27.582	0	1374.617	0	23.2	4	7.1	4	-1E+10	1	-1E+10	1	-1E+10	1	-1E+10	1	-1E+10	1	-1E+10	1
4901784	94	C	01/30/2018	10:46	-133.168	43.496	0	1395.30	0	2.7200	0	34.5810	4	27.584	0	1379.544	0	23.3	4	7.1	4	-1E+10	1	-1E+10	1	-1E+10	1	-1E+10	1	-1E+10	1	-1E+10	1
4901784	94	C	01/30/2018	10:46	-133.168	43.496	0	1400.30	0	2.7150	0	34.5810	4	27.585	0	1384.471	0	23.4	4	7.2	4	-1E+10	1	-1E+10	1	-1E+10	1	-1E+10	1	-1E+10	1	-1E+10	1
4901784	94	C	01/30/2018	10:46	-133.168	43.496	0	1405.40	0	2.7130	0	34.5810	4	27.585	0	1389.497	0	23.4	4	7.2	4	-1E+10	1	-1E+10	1	-1E+10	1	-1E+10	1	-1E+10	1	-1E+10	1
4901784	94	C	01/30/2018	10:46	-133.168	43.496	0	1410.50	0	2.7090	0	34.5820	4	27.586	0	1394.522	0	23.6	4	7.2	4	-1E+10	1	-1E+10	1	-1E+10	1	-1E+10	1	-1E+10	1	-1E+10	1
4901784	94	C	01/30/2018	10:46	-133.168	43.496	0	1415.60	0	2.7000	0	34.5820	4	27.587	0	1399.548	0	23.7	4	7.3	4	-1E+10	1	-1E+10	1	-1E+10	1	-1E+10	1	-1E+10	1	-1E+10	1
4901784	94	C	01/30/2018	10:46	-133.168	43.496	0	1419.90	0	2.6870	0	34.5830	4	27.589	0	1403.785	0	24.0	4	7.3	4	-1E+10	1	-1E+10	1	-1E+10	1	-1E+10	1	-1E+10	1	-1E+10	1
4901784	94	C	01/30/2018	10:46	-133.168	43.496	0	1424.20	0	2.6770	0	34.5840	4	27.591	0	1408.021	0	24.1	4	7.4	4	-1E+10	1	-1E+10	1	-1E+10	1	-1E+10	1	-1E+10	1	-1E+10	1
4901784	94	C	01/30/2018	10:46	-133.168	43.496	0	1429.40	0	2.6670	0	34.5850	4	27.592	0	1413.145	0	24.3	4	7.5	4	-1E+10	1	-1E+10	1	-1E+10	1	-1E+10	1	-1E+10	1	-1E+10	1
4901784	94	C	01/30/2018	10:46	-133.168	43.496	0	1434.70	0	2.6530	0	34.5870	4	27.595	0	1418.367	0	24.5	4	7.5	4	-1E+10	1	-1E+10	1	-1E+10	1	-1E+10	1	-1E+10	1	-1E+10	1
4901784	94	C	01/30/2018	10:46	-133.168	43.496	0	1439.90	0	2.6500	0	34.5870	4	27.595	0	1423.490	0	24.6	4	7.5	4	-1E+10	1	-1E+10	1	-1E+10	1	-1E+10	1	-1E+10	1	-1E+10	1
4901784	94	C	01/30/2018	10:46	-133.168	43.496	0	1445.10	0	2.6440	0	34.5870	4	27.596	0	1428.613	0	24.8	4	7.6	4	-1E+10	1	-1E+10	1	-1E+10	1	-1E+10	1	-1E+10	1	-1E+10	1
4901784	94	C	01/30/2018	10:46	-133.168	43.496	0	1450.30	0	2.6290	0	34.5880	4	27.598	0	1433.736	0	25.0	4	7.7	4	-1E+10	1	-1E+10	1	-1E+10	1	-1E+10	1	-1E+10	1	-1E+10	1
4901784	94	C	01/30/2018	10:46	-133.168	43.496	0	1455.50	0	2.6190	0	34.5890	4	27.600	0	1438.859	0	25.3	4	7.7	4	-1E+10	1	-1E+10	1	-1E+10	1	-1E+10	1	-1E+10	1	-1E+10	1
4901784	94	C	01/30/2018	10:46	-133.168	43.496	0	1460.70	0	2.6090	0	34.5900	4	27.601	0	1443.982	0	25.5	4	7.8	4	-1E+10	1	-1E+10	1	-1E+10	1	-1E+10	1	-1E+10	1	-1E+10	1
4901784	94	C	01/30/2018	10:46	-133.168	43.496	0	1465.00	0	2.5970	0	34.5910	4	27.603	0	1448.218	0	25.8	4	7.9	4	-1E+10	1	-1E+10	1	-1E+10	1	-1E+10	1	-1E+10	1	-1E+10	1
4901784	94	C	01/30/2018	10:46	-133.168	43.496	0	1469.40	0	2.5870	0	34.5920	4	27.605	0	1452.553	0	26.0	4	8.0	4	-1E+10	1	-1E+10	1	-1E+10	1	-1E+10	1	-1E+10	1	-1E+10	1
4901784	94	C	01/30/2018	10:46	-133.168	43.496	0	1474.70	0	2.5780	0	34.5930	4	27.606	0	1457.773	0	26.3	4	8.0	4	-1E+10	1	-1E+10	1	-1E+10	1	-1E+10	1	-1E+10	1	-1E+10	1
4901784	94	C	01/30/2018	10:46	-133.168	43.496	0	1479.90	0	2.5660	0	34.5940	4	27.608	0	1462.896	0	26.6	4	8.1	4	-1E+10	1	-1E+10	1	-1E+10	1	-1E+10	1	-1E+10	1	-1E+10	1
4901784	94	C	01/30/2018	10:46	-133.168	43.496	0	1485.20	0	2.5520	0	34.5960	4	27.611	0	1468.116	0	26.9	4	8.2	4	-1E+10	1	-1E+10	1	-1E+10	1	-1E+10	1	-1E+10	1	-1E+10	1
4901784	94	C	01/30/2018	10:46	-133.168	43.496	0	1490.40	0	2.5430	0	34.5970	4	27.613	0	1473.239	0	27.2	4	8.3	4	-1E+10	1	-1E+10	1	-1E+10	1	-1E+10	1	-1E+10	1	-1E+10	1
4901784	94	C	01/30/2018	10:46	-133.168	43.496	0	1495.40	0	2.5330	0	34.5980	4	27.614	0	1478.164	0	27.4	4	8.4	4	-1E+10	1	-1E+10	1	-1E+10	1	-1E+10	1	-1E+10	1	-1E+10	1
4901784	94	C	01/30/2018	10:46	-133.168	43.496	0	1500.30	0	2.5300	0	34.5980	4	27.615	0	1482.990	0	27.5	4	8.4	4	-1E+10	1	-1E+10	1	-1E+10	1	-1E+10	1	-1E+10	1	-1E+10	1
4901784	94	C	01/30/2018	10:46	-133.168	43.496	0	1505.30	0	2.5260	0	34.5990	4	27.616	0	1487.915	0	27.8	4	8.5	4	-1E+10	1	-1E+10	1	-1E+10	1	-1E+10	1	-1E+10	1	-1E+10	1
4901784	94	C	01/30/2018	10:46	-133.168	43.496	0	1510.30	0	2.5180	0	34.6000	4	27.617	0	1492.839	0	28.1	4	8.6	4	-1E+10	1	-1E+10	1	-1E+10	1	-1E+10	1	-1E+10	1	-1E+10	1
4901784	94	C	01/30/2018	10:46	-133.168	43.496	0	1515.30	0	2.5110	0	34.6010	4	27.619	0	1497.764	0	28.4	4	8.7	4	-1E+10	1	-1E+10	1	-1E+10	1	-1E+10	1	-1E+10	1	-1E+10	1
4901784	94	C	01/30/2018	10:46	-133.168	43.496	0	1520.40	0	2.5020	0	34.6020	4	27.620	0	1502.787	0	28.6	4	8.7	4	-1E+10	1	-1E+10	1	-1E+10	1	-1E+10	1	-1E+10	1	-1E+10	1
4901784	94	C	01/30/2018	10:46	-133.168	43.496	0	1525.40	0	2.4980	0	34.6030	4	27.622	0	1507.711	0	28.9	4	8.8	4	-1E+10	1	-1E+10	1	-1E+10	1	-1E+10	1	-1E+10	1	-1E+10	1
4901784	94	C	01/30/2018	10:46	-133.168	43.496	0	1530.50	0	2.4900	0	34.6040	4	27.623	0	1512.733	0	29.1	4	8.9	4	-1E+10	1	-1E+10	1	-1E+10	1	-1E+10	1	-1E+10	1	-1E+10	1
4901784	94	C	01/30/2018	10:46	-133.168	43.496	0	1535.70	0	2.4830	0	34.6050	4	27.624	0	1517.854	0	29.4	4	9.0	4	-1E+10	1	-1E+10	1	-1E+10	1	-1E+10	1	-1E+10	1	-1E+10	1
4901784	94	C	01/30/2018	10:46	-133.168	43.496	0	1540.00	0	2.4800	0	34.6050	4	27.625	0	1522.089	0	29.5	4	9.0	4	-1E+10	1	-1E+10	1	-1E+10	1	-1E+10	1	-1E+10	1	-1E+10	1
4901784	94	C	01/30/2018	10:46	-133.168	43.496	0	1544.30	0	2.4750	0	34.6060	4	27.626	0	1526.323	0	29.8	4	9.1	4	-1E+10	1	-1E+10	1	-1E+10	1	-1E+10	1	-1E+10	1	-1E+10	1
4901784	94	C	01/30/2018	10:46	-133.168	43.496	0	1549.50	0	2.4670	0	34.6060	4	27.627	0	1531.444	0	30.1	4	9.2	4	-1E+10	1	-1E+10	1	-1E+10	1	-1E+10	1	-1E+10	1	-1E+10	1
4901784	94	C	01/30/2018	10:46	-133.168	43.496	0	1554.70	0	2.4530	0	34.6070	4	27.629	0	1536.565	0	30.5	4	9.3	4	-1E+10	1	-1E+10	1	-1E+10	1	-1E+10	1	-1E+10	1	-1E+10	1
4901784	94	C	01/30/2018	10:46	-133.168	43.496	0	1560.00	0	2.4340	0	34.6090	4	27.632	0	1541.783	0	30.9	4	9.4	4	-1E+10	1	-1E+10	1	-1E+10	1	-1E+10	1	-1E+10	1	-1E+10	1
4901784	94	C	01/30/2018	10:46	-133.168	43.496	0	1565.20	0	2.4200	0	34.6100	4	27.634	0	1546.904	0	31.3	4	9.5	4	-1E+10	1	-1E+10	1	-1E+10	1	-1E+10	1	-1E+10	1	-1E+10	1
4901784	94	C	01/30/2018	10:46	-133.168	43.496	0	1570.40	0	2.4140	0	34.6110	4	27.635	0	1552.024	0	31.5	4	9.6	4	-1E+10	1	-1E+10	1	-1E+10	1	-1E+10	1	-1E+10	1	-1E+10	1
4901784	94	C	01/30/2018	10:46	-133.168	43.496	0	1575.70	0	2.4100	0	34.6110	4	27.636	0	1557.242	0	31.9	4	9.7	4	-1E+10	1	-1E+10	1	-1E+10	1	-1E+10	1	-1E+10	1	-1E+10	1
4901784	94	C	01/30/2018	10:46	-133.168	43.496	0	1580.10	0	2.4020	0	34.6120	4	27.637	0	1561.575	0	32.3	4	9.8	4	-1E+10	1	-1E+10	1	-1E+10	1	-1E+10	1	-1E+10	1	-1E+10	1
4901784	94	C	01/30/2018	10:46	-133.168	43.496	0	1584.50	0	2.3870	0	34.6140	4	27.640	0	1565.907	0	32.8	4	10.0	4	-1E+10	1	-1E+10	1	-1E+10	1	-1E+10	1	-1E+10	1	-1E+10	1
4901784	94	C	01/30/2018	10:46	-133.168	43.496	0	1589.90	0	2.3730	0	34.6160	4	27.643	0	1571.223	0	33.3	4	10.1	4	-1E+10	1	-1E+10	1	-1E+10	1	-1E+10	1	-1E+10	1	-1E+10	1
4901784	94	C	01/30/2018	10:46	-133.168	43.496	0	1595.40	0	2.3650	0	34.6170	4	27.644	0	1576.638	0	33.6	4	10.2	4	-1E+10	1	-1E+10	1	-1E+10	1	-1E+10	1	-1E+10	1	-1E+10	1
4901784	94	C	01/30/2018	10:46	-133.168	43.496	0	1599.90	0	2.3630	0	34.6180	4	27.645	0	1581.069	0	33.8	4	10.3	4	-1E+10	1	-1E+10	1	-1E+10	1	-1E+10	1	-1E+10	1	-1E+10	1
4901784	94	C	01/30/2018	10:46	-133.168	43.496	0	1604.40	0	2.3580	0	34.6180	4	27.646	0	1585.499	0	34.2	4	10.4	4	-1E+10	1	-1E+10	1	-1E+10	1	-1E+10	1	-1E+10	1	-1E+10	1
4901784	94	C	01/30/2018	10:46	-133.168	43.496	0	1610.00	0	2.3450	0	34.6200	4	27.648	0	1591.012	0	34.7	4	10.6	4	-1E+10	1	-1E+10	1	-1E+10	1	-1E+10	1	-1E+10	1	-1E+10	1
4901784	94	C	01/30/2018	10:46	-133.168	43.496	0	1614.60	0	2.3310	0	34.6220	4	27.651	0	1595.540	0	35.1	4	10.7	4	-1E+10	1	-1E+10	1	-1E+10	1	-1E+10	1	-1E+10	1	-1E+10	1
4901784	94	C	01/30/2018	10:46	-133.168	43.496	0	1619.10	0	2.3260	0	34.6230	4	27.652	0	1599.970	0	35.4	4	10.8	4	-1E+10	1	-1E+10	1	-1E+10	1	-1E+10	1	-1E+10	1	-1E+10	1
4901784	94	C	01/30/2018	10:46	-133.168	43.496	0	1624.50	0	2.3190	0	34.6240	4	27.654	0	1605.286	0	35.8	4	10.9	4	-1E+10	1	-1E+10	1	-1E+10	1	-1E+10	1	-1E+10	1	-1E+10	1
4901784	94	C	01/30/2018	10:46	-133.168	43.496	0	1629.40	0	2.3210	0	34.6250	4	27.654	0	1610.109	0	36.1	4	11.0	4	-1E+10	1	-1E+10	1	-1E+10	1	-1E+10	1	-1E+10	1	-1E+10	1
4901784	94	C	01/30/2018	10:46	-133.168	43.496	0	1634.30	0	2.3190	0	34.6250	4	27.655	0	1614.933	0	36.5	4	11.1	4	-1E+10	1	-1E+10	1	-1E+10	1	-1E+10	1	-1E+10	1	-1E+10	1
4901784	94	C	01/30/2018	10:46	-133.168	43.496	0	1640.00	0	2.3100	0	34.6270	4	27.657	0	1620.543	0	37.3	4	11.3	4	-1E+10	1	-1E+10	1	-1E+10	1	-1E+10	1	-1E+10	1	-1E+10	1
4901784	94	C	01/30/2018	10:46	-133.168	43.496	0	1645.70	0	2.3140	0	34.6300	4	27.659	0	1626.154	0	38.1	4	11.6	4	-1E+10	1	-1E+10	1	-1E+10	1	-1E+10	1	-1E+10	1	-1E+10	1
4901784	94	C	01/30/2018	10:46	-133.168	43.496	0	1650.70	0	2.3110	0	34.6310	4	27.660	0	1631.075	0	38.4	4	11.7	4	-1E+10	1	-1E+10	1	-1E+10	1	-1E+10	1	-1E+10	1	-1E+10	1
4901784	94	C	01/30/2018	10:46	-133.168	43.496	0	1655.60	0	2.3020	0	34.6320	4	27.662	0	1635.898	0	38.8	4	11.8	4	-1E+10	1	-1E+10	1	-1E+10	1	-1E+10	1	-1E+10	1	-1E+10	1
4901784	94	C	01/30/2018	10:46	-133.168	43.496	0	1660.60	0	2.2960	0	34.6320	4	27.662	0	1640.819	0	38.9	4	11.8	4	-1E+10	1	-1E+10	1	-1E+10	1	-1E+10	1	-1E+10	1	-1E+10	1
4901784	94	C	01/30/2018	10:46	-133.168	43.496	0	1665.50	0	2.2800	0	34.6330	4	27.664	0	1645.642	0	39.2	4	11.9	4	-1E+10	1	-1E+10	1	-1E+10	1	-1E+10	1	-1E+10	1	-1E+10	1
4901784	94	C	01/30/2018	10:46	-133.168	43.496	0	1670.60	0	2.2690	0	34.6340	4	27.666	0	1650.661	0	39.5	4	12.0	4	-1E+10	1	-1E+10	1	-1E+10	1	-1E+10	1	-1E+10	1	-1E+10	1
4901784	94	C	01/30/2018	10:46	-133.168	43.496	0	1675.60	0	2.2670	0	34.6340	4	27.666	0	1655.582	0	39.9	4	12.1	4	-1E+10	1	-1E+10	1	-1E+10	1	-1E+10	1	-1E+10	1	-1E+10	1
4901784	94	C	01/30/2018	10:46	-133.168	43.496	0	1680.70	0	2.2660	0	34.6360	4	27.668	0	1660.601	0	40.4	4	12.3	4	-1E+10	1	-1E+10	1	-1E+10	1	-1E+10	1	-1E+10	1	-1E+10	1
4901784	94	C	01/30/2018	10:46	-133.168	43.496	0	1685.00	0	2.2600	0	34.6370	4	27.669	0	1664.833	0	40.6	4	12.3	4	-1E+10	1	-1E+10	1	-1E+10	1	-1E+10	1	-1E+10	1	-1E+10	1
4901784	94	C	01/30/2018	10:46	-133.168	43.496	0	1689.30	0	2.2600	0	34.6370	4	27.669	0	1669.064	0	41.0	4	12.4	4	-1E+10	1	-1E+10	1	-1E+10	1	-1E+10	1	-1E+10	1	-1E+10	1
4901784	94	C	01/30/2018	10:46	-133.168	43.496	0	1694.50	0	2.2550	0	34.6390	4	27.671	0	1674.182	0	41.4	4	12.6	4	-1E+10	1	-1E+10	1	-1E+10	1	-1E+10	1	-1E+10	1	-1E+10	1
4901784	94	C	01/30/2018	10:46	-133.168	43.496	0	1699.80	0	2.2450	0	34.6400	4	27.673	0	1679.397	0	41.8	4	12.7	4	-1E+10	1	-1E+10	1	-1E+10	1	-1E+10	1	-1E+10	1	-1E+10	1
4901784	94	C	01/30/2018	10:46	-133.168	43.496	0	1705.10	0	2.2380	0	34.6410	4	27.674	0	1684.612	0	42.1	4	12.8	4	-1E+10	1	-1E+10	1	-1E+10	1	-1E+10	1	-1E+10	1	-1E+10	1
4901784	94	C	01/30/2018	10:46	-133.168	43.496	0	1710.30	0	2.2350	0	34.6410	4	27.675	0	1689.729	0	42.2	4	12.8	4	-1E+10	1	-1E+10	1	-1E+10	1	-1E+10	1	-1E+10	1	-1E+10	1
4901784	94	C	01/30/2018	10:46	-133.168	43.496	0	1715.70	0	2.2330	0	34.6410	4	27.675	0	1695.043	0	42.6	4	12.9	4	-1E+10	1	-1E+10	1	-1E+10	1	-1E+10	1	-1E+10	1	-1E+10	1
4901784	94	C	01/30/2018	10:46	-133.168	43.496	0	1720.10	0	2.2270	0	34.6420	4	27.676	0	1699.372	0	43.0	4	13.0	4	-1E+10	1	-1E+10	1	-1E+10	1	-1E+10	1	-1E+10	1	-1E+10	1
4901784	94	C	01/30/2018	10:46	-133.168	43.496	0	1724.70	0	2.2150	0	34.6430	4	27.678	0	1703.898	0	43.3	4	13.1	4	-1E+10	1	-1E+10	1	-1E+10	1	-1E+10	1	-1E+10	1	-1E+10	1
4901784	94	C	01/30/2018	10:46	-133.168	43.496	0	1730.10	0	2.2100	0	34.6440	4	27.679	0	1709.211	0	43.7	4	13.2	4	-1E+10	1	-1E+10	1	-1E+10	1	-1E+10	1	-1E+10	1	-1E+10	1
4901784	94	C	01/30/2018	10:46	-133.168	43.496	0	1735.50	0	2.1990	0	34.6450	4	27.681	0	1714.524	0	44.1	4	13.4	4	-1E+10	1	-1E+10	1	-1E+10	1	-1E+10	1	-1E+10	1	-1E+10	1
4901784	94	C	01/30/2018	10:46	-133.168	43.496	0	1740.10	0	2.1930	0	34.6450	4	27.681	0	1719.050	0	44.4	4	13.5	4	-1E+10	1	-1E+10	1	-1E+10	1	-1E+10	1	-1E+10	1	-1E+10	1
4901784	94	C	01/30/2018	10:46	-133.168	43.496	0	1744.60	0	2.1800	0	34.6470	4	27.684	0	1723.477	0	44.7	4	13.6	4	-1E+10	1	-1E+10	1	-1E+10	1	-1E+10	1	-1E+10	1	-1E+10	1
4901784	94	C	01/30/2018	10:46	-133.168	43.496	0	1750.10	0	2.1720	0	34.6470	4	27.685	0	1728.888	0	44.9	4	13.6	4	-1E+10	1	-1E+10	1	-1E+10	1	-1E+10	1	-1E+10	1	-1E+10	1
4901784	94	C	01/30/2018	10:46	-133.168	43.496	0	1755.60	0	2.1690	0	34.6480	4	27.686	0	1734.299	0	45.1	4	13.7	4	-1E+10	1	-1E+10	1	-1E+10	1	-1E+10	1	-1E+10	1	-1E+10	1
4901784	94	C	01/30/2018	10:46	-133.168	43.496	0	1760.30	0	2.1660	0	34.6480	4	27.686	0	1738.923	0	45.4	4	13.7	4	-1E+10	1	-1E+10	1	-1E+10	1	-1E+10	1	-1E+10	1	-1E+10	1
4901784	94	C	01/30/2018	10:46	-133.168	43.496	0	1764.90	0	2.1560	0	34.6490	4	27.688	0	1743.448	0	45.7	4	13.8	4	-1E+10	1	-1E+10	1	-1E+10	1	-1E+10	1	-1E+10	1	-1E+10	1
4901784	94	C	01/30/2018	10:46	-133.168	43.496	0	1770.50	0	2.1530	0	34.6500	4	27.689	0	1748.957	0	46.0	4	13.9	4	-1E+10	1	-1E+10	1	-1E+10	1	-1E+10	1	-1E+10	1	-1E+10	1
4901784	94	C	01/30/2018	10:46	-133.168	43.496	0	1775.20	0	2.1460	0	34.6500	4	27.689	0	1753.580	0	46.3	4	14.0	4	-1E+10	1	-1E+10	1	-1E+10	1	-1E+10	1	-1E+10	1	-1E+10	1
4901784	94	C	01/30/2018	10:46	-133.168	43.496	0	1779.80	0	2.1340	0	34.6510	4	27.691	0	1758.106	0	46.7	4	14.1	4	-1E+10	1	-1E+10	1	-1E+10	1	-1E+10	1	-1E+10	1	-1E+10	1
4901784	94	C	01/30/2018	10:46	-133.168	43.496	0	1784.70	0	2.1290	0	34.6520	4	27.692	0	1762.925	0	47.3	4	14.3	4	-1E+10	1	-1E+10	1	-1E+10	1	-1E+10	1	-1E+10	1	-1E+10	1
4901784	94	C	01/30/2018	10:46	-133.168	43.496	0	1789.50	0	2.1260	0	34.6540	4	27.694	0	1767.647	0	47.7	4	14.4	4	-1E+10	1	-1E+10	1	-1E+10	1	-1E+10	1	-1E+10	1	-1E+10	1
4901784	94	C	01/30/2018	10:46	-133.168	43.496	0	1794.40	0	2.1170	0	34.6550	4	27.696	0	1772.467	0	47.9	4	14.5	4	-1E+10	1	-1E+10	1	-1E+10	1	-1E+10	1	-1E+10	1	-1E+10	1
4901784	94	C	01/30/2018	10:46	-133.168	43.496	0	1799.40	0	2.1150	0	34.6540	4	27.695	0	1777.385	0	48.3	4	14.6	4	-1E+10	1	-1E+10	1	-1E+10	1	-1E+10	1	-1E+10	1	-1E+10	1
4901784	94	C	01/30/2018	10:46	-133.168	43.496	0	1805.10	0	2.1070	0	34.6560	4	27.697	0	1782.991	0	48.7	4	14.7	4	-1E+10	1	-1E+10	1	-1E+10	1	-1E+10	1	-1E+10	1	-1E+10	1
4901784	94	C	01/30/2018	10:46	-133.168	43.496	0	1810.80	0	2.0970	0	34.6570	4	27.699	0	1788.597	0	49.2	4	14.9	4	-1E+10	1	-1E+10	1	-1E+10	1	-1E+10	1	-1E+10	1	-1E+10	1
4901784	94	C	01/30/2018	10:46	-133.168	43.496	0	1815.80	0	2.0920	0	34.6580	4	27.700	0	1793.515	0	49.5	4	15.0	4	-1E+10	1	-1E+10	1	-1E+10	1	-1E+10	1	-1E+10	1	-1E+10	1
4901784	94	C	01/30/2018	10:46	-133.168	43.496	0	1820.70	0	2.0880	0	34.6580	4	27.700	0	1798.334	0	50.0	4	15.1	4	-1E+10	1	-1E+10	1	-1E+10	1	-1E+10	1	-1E+10	1	-1E+10	1
4901784	94	C	01/30/2018	10:46	-133.168	43.496	0	1825.70	0	2.0800	0	34.6590	4	27.702	0	1803.251	0	50.4	4	15.2	4	-1E+10	1	-1E+10	1	-1E+10	1	-1E+10	1	-1E+10	1	-1E+10	1
4901784	94	C	01/30/2018	10:46	-133.168	43.496	0	1830.60	0	2.0720	0	34.6600	4	27.703	0	1808.070	0	50.9	4	15.4	4	-1E+10	1	-1E+10	1	-1E+10	1	-1E+10	1	-1E+10	1	-1E+10	1
4901784	94	C	01/30/2018	10:46	-133.168	43.496	0	1835.70	0	2.0630	0	34.6620	4	27.706	0	1813.086	0	51.4	4	15.5	4	-1E+10	1	-1E+10	1	-1E+10	1	-1E+10	1	-1E+10	1	-1E+10	1
4901784	94	C	01/30/2018	10:46	-133.168	43.496	0	1840.70	0	2.0570	0	34.6620	4	27.706	0	1818.003	0	51.8	4	15.6	4	-1E+10	1	-1E+10	1	-1E+10	1	-1E+10	1	-1E+10	1	-1E+10	1
4901784	94	C	01/30/2018	10:46	-133.168	43.496	0	1845.00	0	2.0500	0	34.6640	4	27.708	0	1822.231	0	52.1	4	15.7	4	-1E+10	1	-1E+10	1	-1E+10	1	-1E+10	1	-1E+10	1	-1E+10	1
4901784	94	C	01/30/2018	10:46	-133.168	43.496	0	1849.30	0	2.0420	0	34.6640	4	27.709	0	1826.460	0	52.3	4	15.8	4	-1E+10	1	-1E+10	1	-1E+10	1	-1E+10	1	-1E+10	1	-1E+10	1
4901784	94	C	01/30/2018	10:46	-133.168	43.496	0	1854.60	0	2.0390	0	34.6650	4	27.710	0	1831.671	0	52.3	4	15.8	4	-1E+10	1	-1E+10	1	-1E+10	1	-1E+10	1	-1E+10	1	-1E+10	1
4901784	94	C	01/30/2018	10:46	-133.168	43.496	0	1859.90	0	2.0380	0	34.6650	4	27.710	0	1836.883	0	52.4	4	15.8	4	-1E+10	1	-1E+10	1	-1E+10	1	-1E+10	1	-1E+10	1	-1E+10	1
4901784	94	C	01/30/2018	10:46	-133.168	43.496	0	1865.20	0	2.0300	0	34.6650	4	27.711	0	1842.094	0	52.5	4	15.8	4	-1E+10	1	-1E+10	1	-1E+10	1	-1E+10	1	-1E+10	1	-1E+10	1
4901784	94	C	01/30/2018	10:46	-133.168	43.496	0	1870.50	0	2.0280	0	34.6650	4	27.711	0	1847.306	0	52.5	4	15.9	4	-1E+10	1	-1E+10	1	-1E+10	1	-1E+10	1	-1E+10	1	-1E+10	1
4901784	94	C	01/30/2018	10:46	-133.168	43.496	0	1875.50	0	2.0230	0	34.6650	4	27.711	0	1852.222	0	52.5	4	15.9	4	-1E+10	1	-1E+10	1	-1E+10	1	-1E+10	1	-1E+10	1	-1E+10	1
4901784	94	C	01/30/2018	10:46	-133.168	43.496	0	1879.70	0	2.0210	0	34.6650	4	27.712	0	1856.352	0	52.7	4	15.9	4	-1E+10	1	-1E+10	1	-1E+10	1	-1E+10	1	-1E+10	1	-1E+10	1
4901784	94	C	01/30/2018	10:46	-133.168	43.496	0	1884.40	0	2.0190	0	34.6650	4	27.712	0	1860.973	0	52.9	4	16.0	4	-1E+10	1	-1E+10	1	-1E+10	1	-1E+10	1	-1E+10	1	-1E+10	1
4901784	94	C	01/30/2018	10:46	-133.168	43.496	0	1889.90	0	2.0130	0	34.6670	4	27.714	0	1866.380	0	53.2	4	16.1	4	-1E+10	1	-1E+10	1	-1E+10	1	-1E+10	1	-1E+10	1	-1E+10	1
4901784	94	C	01/30/2018	10:46	-133.168	43.496	0	1895.60	0	2.0110	0	34.6670	4	27.714	0	1871.984	0	53.5	4	16.1	4	-1E+10	1	-1E+10	1	-1E+10	1	-1E+10	1	-1E+10	1	-1E+10	1
4901784	94	C	01/30/2018	10:46	-133.168	43.496	0	1900.40	0	2.0100	0	34.6670	4	27.714	0	1876.703	0	53.7	4	16.2	4	-1E+10	1	-1E+10	1	-1E+10	1	-1E+10	1	-1E+10	1	-1E+10	1
4901784	94	C	01/30/2018	10:46	-133.168	43.496	0	1905.40	0	2.0060	0	34.6680	4	27.715	0	1881.619	0	53.9	4	16.3	4	-1E+10	1	-1E+10	1	-1E+10	1	-1E+10	1	-1E+10	1	-1E+10	1
4901784	94	C	01/30/2018	10:46	-133.168	43.496	0	1910.30	0	2.0050	0	34.6680	4	27.715	0	1886.436	0	54.0	4	16.3	4	-1E+10	1	-1E+10	1	-1E+10	1	-1E+10	1	-1E+10	1	-1E+10	1
4901784	94	C	01/30/2018	10:46	-133.168	43.496	0	1915.20	0	2.0030	0	34.6690	4	27.716	0	1891.253	0	54.2	4	16.3	4	-1E+10	1	-1E+10	1	-1E+10	1	-1E+10	1	-1E+10	1	-1E+10	1
4901784	94	C	01/30/2018	10:46	-133.168	43.496	0	1920.10	0	2.0010	0	34.6690	4	27.717	0	1896.070	0	54.4	4	16.4	4	-1E+10	1	-1E+10	1	-1E+10	1	-1E+10	1	-1E+10	1	-1E+10	1
4901784	94	C	01/30/2018	10:46	-133.168	43.496	0	1925.00	0	2.0000	0	34.6690	4	27.717	0	1900.887	0	54.6	4	16.5	4	-1E+10	1	-1E+10	1	-1E+10	1	-1E+10	1	-1E+10	1	-1E+10	1
4901784	94	C	01/30/2018	10:46	-133.168	43.496	0	1930.00	0	1.9950	0	34.6700	4	27.718	0	1905.802	0	54.9	4	16.6	4	-1E+10	1	-1E+10	1	-1E+10	1	-1E+10	1	-1E+10	1	-1E+10	1
4901784	94	C	01/30/2018	10:46	-133.168	43.496	0	1935.00	0	1.9880	0	34.6710	4	27.719	0	1910.717	0	55.2	4	16.6	4	-1E+10	1	-1E+10	1	-1E+10	1	-1E+10	1	-1E+10	1	-1E+10	1
4901784	94	C	01/30/2018	10:46	-133.168	43.496	0	1940.00	0	1.9860	0	34.6710	4	27.720	0	1915.631	0	55.4	4	16.7	4	-1E+10	1	-1E+10	1	-1E+10	1	-1E+10	1	-1E+10	1	-1E+10	1
4901784	94	C	01/30/2018	10:46	-133.168	43.496	0	1945.10	0	1.9840	0	34.6720	4	27.721	0	1920.644	0	55.6	4	16.8	4	-1E+10	1	-1E+10	1	-1E+10	1	-1E+10	1	-1E+10	1	-1E+10	1
4901784	94	C	01/30/2018	10:46	-133.168	43.496	0	1950.10	0	1.9830	0	34.6720	4	27.721	0	1925.559	0	55.7	4	16.8	4	-1E+10	1	-1E+10	1	-1E+10	1	-1E+10	1	-1E+10	1	-1E+10	1
4901784	94	C	01/30/2018	10:46	-133.168	43.496	0	1955.10	0	1.9790	0	34.6720	4	27.721	0	1930.473	0	55.9	4	16.9	4	-1E+10	1	-1E+10	1	-1E+10	1	-1E+10	1	-1E+10	1	-1E+10	1
4901784	94	C	01/30/2018	10:46	-133.168	43.496	0	1960.20	0	1.9780	0	34.6720	4	27.721	0	1935.486	0	56.1	4	16.9	4	-1E+10	1	-1E+10	1	-1E+10	1	-1E+10	1	-1E+10	1	-1E+10	1
4901784	94	C	01/30/2018	10:46	-133.168	43.496	0	1965.30	0	1.9730	0	34.6730	4	27.722	0	1940.498	0	56.5	4	17.0	4	-1E+10	1	-1E+10	1	-1E+10	1	-1E+10	1	-1E+10	1	-1E+10	1
4901784	94	C	01/30/2018	10:46	-133.168	43.496	0	1970.40	0	1.9700	0	34.6740	4	27.723	0	1945.511	0	56.7	4	17.1	4	-1E+10	1	-1E+10	1	-1E+10	1	-1E+10	1	-1E+10	1	-1E+10	1
4901784	94	C	01/30/2018	10:46	-133.168	43.496	0	1975.50	0	1.9670	0	34.6740	4	27.724	0	1950.523	0	57.0	4	17.2	4	-1E+10	1	-1E+10	1	-1E+10	1	-1E+10	1	-1E+10	1	-1E+10	1
4901784	94	C	01/30/2018	10:46	-133.168	43.496	0	1980.60	0	1.9640	0	34.6750	4	27.725	0	1955.535	0	57.4	4	17.3	4	-1E+10	1	-1E+10	1	-1E+10	1	-1E+10	1	-1E+10	1	-1E+10	1
4901784	94	C	01/30/2018	10:46	-133.168	43.496	0	1985.70	0	1.9600	0	34.6760	4	27.726	0	1960.547	0	57.8	4	17.4	4	-1E+10	1	-1E+10	1	-1E+10	1	-1E+10	1	-1E+10	1	-1E+10	1
4901784	94	C	01/30/2018	10:46	-133.168	43.496	0	1990.00	0	1.9550	0	34.6760	4	27.726	0	1964.773	0	58.1	4	17.5	4	-1E+10	1	-1E+10	1	-1E+10	1	-1E+10	1	-1E+10	1	-1E+10	1
4901784	94	C	01/30/2018	10:46	-133.168	43.496	0	1994.30	0	1.9490	0	34.6770	4	27.727	0	1968.999	0	58.3	4	17.6	4	-1E+10	1	-1E+10	1	-1E+10	1	-1E+10	1	-1E+10	1	-1E+10	1
4901784	94	C	01/30/2018	10:46	-133.168	43.496	0	1999.50	0	1.9490	0	34.6770	4	27.728	0	1974.108	0	58.4	4	17.6	4	-1E+10	1	-1E+10	1	-1E+10	1	-1E+10	1	-1E+10	1	-1E+10	1
4901784	94	C	01/30/2018	10:46	-133.168	43.496	0	2005.40	0	1.9450	0	34.6780	4	27.729	0	1979.906	0	58.7	4	17.7	4	-1E+10	1	-1E+10	1	-1E+10	1	-1E+10	1	-1E+10	1	-1E+10	1
4901784	94	C	01/30/2018	10:46	-133.168	43.496	0	2010.30	0	1.9400	0	34.6780	4	27.729	0	1984.721	0	58.8	4	17.7	4	-1E+10	1	-1E+10	1	-1E+10	1	-1E+10	1	-1E+10	1	-1E+10	1
4901784	94	C	01/30/2018	10:46	-133.168	43.496	0	2015.30	0	1.9380	0	34.6790	4	27.730	0	1989.634	0	59.0	4	17.8	4	-1E+10	1	-1E+10	1	-1E+10	1	-1E+10	1	-1E+10	1	-1E+10	1
4901784	94	C	01/30/2018	10:46	-133.168	43.496	0	2019.90	0	1.9360	0	34.6790	4	27.730	0	1994.154	0	59.1	4	17.8	4	-1E+10	1	-1E+10	1	-1E+10	1	-1E+10	1	-1E+10	1	-1E+10	1
4901784	94	C	01/30/2018	10:46	-133.168	43.496	0																										
4901784	95	C	02/09/2018	10:49	-133.058	43.665	0	2.70	0	10.9160	0	32.8470	4	25.115	0	2.678	0	269.8	4	98.7	4	-1E+10	1	-1E+10	1	-1E+10	1	-1E+10	1	-1E+10	1	-1E+10	1
4901784	95	C	02/09/2018	10:49	-133.058	43.665	0	4.40	0	10.9180	0	32.8470	4	25.114	0	4.365	0	269.8	4	98.7	4	-1E+10	1	-1E+10	1	-1E+10	1	-1E+10	1	-1E+10	1	-1E+10	1
4901784	95	C	02/09/2018	10:49	-133.058	43.665	0	6.00	0	10.9160	0	32.8460	4	25.114	0	5.952	0	269.5	4	98.5	4	-1E+10	1	-1E+10	1	-1E+10	1	-1E+10	1	-1E+10	1	-1E+10	1
4901784	95	C	02/09/2018	10:49	-133.058	43.665	0	7.80	0	10.9180	0	32.8450	4	25.113	0	7.737	0	269.5	4	98.6	4	-1E+10	1	-1E+10	1	-1E+10	1	-1E+10	1	-1E+10	1	-1E+10	1
4901784	95	C	02/09/2018	10:49	-133.058	43.665	0	9.50	0	10.8880	0	32.8440	4	25.117	0	9.424	0	269.4	4	98.5	4	-1E+10	1	-1E+10	1	-1E+10	1	-1E+10	1	-1E+10	1	-1E+10	1
4901784	95	C	02/09/2018	10:49	-133.058	43.665	0	11.20	0	10.8810	0	32.8440	4	25.119	0	11.110	0	269.0	4	98.3	4	-1E+10	1	-1E+10	1	-1E+10	1	-1E+10	1	-1E+10	1	-1E+10	1
4901784	95	C	02/09/2018	10:49	-133.058	43.665	0	12.90	0	10.8640	0	32.8440	4	25.122	0	12.796	0	268.5	4	98.1	4	-1E+10	1	-1E+10	1	-1E+10	1	-1E+10	1	-1E+10	1	-1E+10	1
4901784	95	C	02/09/2018	10:49	-133.058	43.665	0	14.50	0	10.7870	0	32.8490	4	25.139	0	14.384	0	267.9	4	97.7	4	-1E+10	1	-1E+10	1	-1E+10	1	-1E+10	1	-1E+10	1	-1E+10	1
4901784	95	C	02/09/2018	10:49	-133.058	43.665	0	16.20	0	10.7270	0	32.8510	4	25.151	0	16.070	0	267.6	4	97.5	4	-1E+10	1	-1E+10	1	-1E+10	1	-1E+10	1	-1E+10	1	-1E+10	1
4901784	95	C	02/09/2018	10:49	-133.058	43.665	0	18.00	0	10.6480	0	32.8540	4	25.167	0	17.855	0	267.0	4	97.1	4	-1E+10	1	-1E+10	1	-1E+10	1	-1E+10	1	-1E+10	1	-1E+10	1
4901784	95	C	02/09/2018	10:49	-133.058	43.665	0	19.80	0	10.6320	0	32.8560	4	25.172	0	19.641	0	266.4	4	96.8	4	-1E+10	1	-1E+10	1	-1E+10	1	-1E+10	1	-1E+10	1	-1E+10	1
4901784	95	C	02/09/2018	10:49	-133.058	43.665	0	21.50	0	10.6180	0	32.8550	4	25.173	0	21.327	0	266.0	4	96.7	4	-1E+10	1	-1E+10	1	-1E+10	1	-1E+10	1	-1E+10	1	-1E+10	1
4901784	95	C	02/09/2018	10:49	-133.058	43.665	0	23.30	0	10.6190	0	32.8560	4	25.174	0	23.112	0	265.8	4	96.6	4	-1E+10	1	-1E+10	1	-1E+10	1	-1E+10	1	-1E+10	1	-1E+10	1
4901784	95	C	02/09/2018	10:49	-133.058	43.665	0	25.10	0	10.6130	0	32.8560	4	25.175	0	24.898	0	265.3	4	96.4	4	-1E+10	1	-1E+10	1	-1E+10	1	-1E+10	1	-1E+10	1	-1E+10	1
4901784	95	C	02/09/2018	10:49	-133.058	43.665	0	26.90	0	10.6100	0	32.8560	4	25.176	0	26.683	0	264.8	4	96.2	4	-1E+10	1	-1E+10	1	-1E+10	1	-1E+10	1	-1E+10	1	-1E+10	1
4901784	95	C	02/09/2018	10:49	-133.058	43.665	0	28.70	0	10.6110	0	32.8570	4	25.176	0	28.469	0	264.4	4	96.1	4	-1E+10	1	-1E+10	1	-1E+10	1	-1E+10	1	-1E+10	1	-1E+10	1
4901784	95	C	02/09/2018	10:49	-133.058	43.665	0	30.50	0	10.6120	0	32.8590	4	25.178	0	30.254	0	264.0	4	95.9	4	-1E+10	1	-1E+10	1	-1E+10	1	-1E+10	1	-1E+10	1	-1E+10	1
4901784	95	C	02/09/2018	10:49	-133.058	43.665	0	32.20	0	10.6080	0	32.8590	4	25.178	0	31.940	0	263.5	4	95.7	4	-1E+10	1	-1E+10	1	-1E+10	1	-1E+10	1	-1E+10	1	-1E+10	1
4901784	95	C	02/09/2018	10:49	-133.058	43.665	0	34.00	0	10.5830	0	32.8560	4	25.180	0	33.725	0	263.0	4	95.5	4	-1E+10	1	-1E+10	1	-1E+10	1	-1E+10	1	-1E+10	1	-1E+10	1
4901784	95	C	02/09/2018	10:49	-133.058	43.665	0	35.80	0	10.5760	0	32.8550	4	25.181	0	35.511	0	262.8	4	95.4	4	-1E+10	1	-1E+10	1	-1E+10	1	-1E+10	1	-1E+10	1	-1E+10	1
4901784	95	C	02/09/2018	10:49	-133.058	43.665	0	37.50	0	10.5740	0	32.8560	4	25.182	0	37.197	0	262.6	4	95.3	4	-1E+10	1	-1E+10	1	-1E+10	1	-1E+10	1	-1E+10	1	-1E+10	1
4901784	95	C	02/09/2018	10:49	-133.058	43.665	0	39.20	0	10.5770	0	32.8570	4	25.182	0	38.883	0	262.5	4	95.3	4	-1E+10	1	-1E+10	1	-1E+10	1	-1E+10	1	-1E+10	1	-1E+10	1
4901784	95	C	02/09/2018	10:49	-133.058	43.665	0	41.00	0	10.5780	0	32.8590	4	25.184	0	40.668	0	262.4	4	95.3	4	-1E+10	1	-1E+10	1	-1E+10	1	-1E+10	1	-1E+10	1	-1E+10	1
4901784	95	C	02/09/2018	10:49	-133.058	43.665	0	42.80	0	10.5780	0	32.8590	4	25.184	0	42.453	0	262.1	4	95.2	4	-1E+10	1	-1E+10	1	-1E+10	1	-1E+10	1	-1E+10	1	-1E+10	1
4901784	95	C	02/09/2018	10:49	-133.058	43.665	0	44.50	0	10.5810	0	32.8600	4	25.184	0	44.139	0	262.0	4	95.1	4	-1E+10	1	-1E+10	1	-1E+10	1	-1E+10	1	-1E+10	1	-1E+10	1
4901784	95	C	02/09/2018	10:49	-133.058	43.665	0	46.30	0	10.5790	0	32.8600	4	25.184	0	45.925	0	261.8	4	95.0	4	-1E+10	1	-1E+10	1	-1E+10	1	-1E+10	1	-1E+10	1	-1E+10	1
4901784	95	C	02/09/2018	10:49	-133.058	43.665	0	48.00	0	10.5790	0	32.8600	4	25.184	0	47.611	0	261.6	4	95.0	4	-1E+10	1	-1E+10	1	-1E+10	1	-1E+10	1	-1E+10	1	-1E+10	1
4901784	95	C	02/09/2018	10:49	-133.058	43.665	0	49.80	0	10.5780	0	32.8600	4	25.185	0	49.396	0	261.6	4	95.0	4	-1E+10	1	-1E+10	1	-1E+10	1	-1E+10	1	-1E+10	1	-1E+10	1
4901784	95	C	02/09/2018	10:49	-133.058	43.665	0	51.60	0	10.5770	0	32.8600	4	25.185	0	51.181	0	261.3	4	94.9	4	-1E+10	1	-1E+10	1	-1E+10	1	-1E+10	1	-1E+10	1	-1E+10	1
4901784	95	C	02/09/2018	10:49	-133.058	43.665	0	53.30	0	10.5760	0	32.8600	4	25.185	0	52.867	0	261.2	4	94.8	4	-1E+10	1	-1E+10	1	-1E+10	1	-1E+10	1	-1E+10	1	-1E+10	1
4901784	95	C	02/09/2018	10:49	-133.058	43.665	0	55.10	0	10.5730	0	32.8600	4	25.186	0	54.652	0	261.0	4	94.8	4	-1E+10	1	-1E+10	1	-1E+10	1	-1E+10	1	-1E+10	1	-1E+10	1
4901784	95	C	02/09/2018	10:49	-133.058	43.665	0	56.70	0	10.5710	0	32.8590	4	25.185	0	56.239	0	260.8	4	94.7	4	-1E+10	1	-1E+10	1	-1E+10	1	-1E+10	1	-1E+10	1	-1E+10	1
4901784	95	C	02/09/2018	10:49	-133.058	43.665	0	58.60	0	10.5700	0	32.8590	4	25.185	0	58.123	0	260.8	4	94.7	4	-1E+10	1	-1E+10	1	-1E+10	1	-1E+10	1	-1E+10	1	-1E+10	1
4901784	95	C	02/09/2018	10:49	-133.058	43.665	0	60.30	0	10.5660	0	32.8580	4	25.185	0	59.809	0	260.2	4	94.5	4	-1E+10	1	-1E+10	1	-1E+10	1	-1E+10	1	-1E+10	1	-1E+10	1
4901784	95	C	02/09/2018	10:49	-133.058	43.665	0	62.10	0	10.5460	0	32.8550	4	25.186	0	61.594	0	260.4	4	94.5	4	-1E+10	1	-1E+10	1	-1E+10	1	-1E+10	1	-1E+10	1	-1E+10	1
4901784	95	C	02/09/2018	10:49	-133.058	43.665	0	63.90	0	10.5450	0	32.8560	4	25.187	0	63.379	0	260.3	4	94.4	4	-1E+10	1	-1E+10	1	-1E+10	1	-1E+10	1	-1E+10	1	-1E+10	1
4901784	95	C	02/09/2018	10:49	-133.058	43.665	0	65.60	0	10.5290	0	32.8530	4	25.188	0	65.065	0	260.0	4	94.3	4	-1E+10	1	-1E+10	1	-1E+10	1	-1E+10	1	-1E+10	1	-1E+10	1
4901784	95	C	02/09/2018	10:49	-133.058	43.665	0	67.40	0	10.5080	0	32.8500	4	25.189	0	66.850	0	259.9	4	94.2	4	-1E+10	1	-1E+10	1	-1E+10	1	-1E+10	1	-1E+10	1	-1E+10	1
4901784	95	C	02/09/2018	10:49	-133.058	43.665	0	69.20	0	10.4940	0	32.8470	4	25.189	0	68.635	0	259.4	4	94.0	4	-1E+10	1	-1E+10	1	-1E+10	1	-1E+10	1	-1E+10	1	-1E+10	1
4901784	95	C	02/09/2018	10:49	-133.058	43.665	0	71.00	0	10.4810	0	32.8450	4	25.190	0	70.420	0	259.0	4	93.8	4	-1E+10	1	-1E+10	1	-1E+10	1	-1E+10	1	-1E+10	1	-1E+10	1
4901784	95	C	02/09/2018	10:49	-133.058	43.665	0	73.30	0	10.4600	0	32.8420	4	25.191	0	72.701	0	258.5	4	93.6	4	-1E+10	1	-1E+10	1	-1E+10	1	-1E+10	1	-1E+10	1	-1E+10	1
4901784	95	C	02/09/2018	10:49	-133.058	43.665	0	74.90	0	10.4520	0	32.8380	4	25.190	0	74.288	0	257.6	4	93.3	4	-1E+10	1	-1E+10	1	-1E+10	1	-1E+10	1	-1E+10	1	-1E+10	1
4901784	95	C	02/09/2018	10:49	-133.058	43.665	0	76.30	0	10.4520	0	32.8330	4	25.186	0	75.676	0	256.6	4	92.9	4	-1E+10	1	-1E+10	1	-1E+10	1	-1E+10	1	-1E+10	1	-1E+10	1
4901784	95	C	02/09/2018	10:49	-133.058	43.665	0	77.60	0	10.4470	0	32.8250	4	25.180	0	76.965	0	255.0	4	92.3	4	-1E+10	1	-1E+10	1	-1E+10	1	-1E+10	1	-1E+10	1	-1E+10	1
4901784	95	C	02/09/2018	10:49	-133.058	43.665	0	79.00	0	10.3990	0	32.8350	4	25.196	0	78.353	0	253.5	4	91.7	4	-1E+10	1	-1E+10	1	-1E+10	1	-1E+10	1	-1E+10	1	-1E+10	1
4901784	95	C	02/09/2018	10:49	-133.058	43.665	0	80.40	0	9.8580	0	32.9090	4	25.345	0	79.742	0	252.2	4	90.2	4	-1E+10	1	-1E+10	1	-1E+10	1	-1E+10	1	-1E+10	1	-1E+10	1
4901784	95	C	02/09/2018	10:49	-133.058	43.665	0	81.90	0	9.3560	0	32.9560	4	25.463	0	81.229	0	254.6	4	90.1	4	-1E+10	1	-1E+10	1	-1E+10	1	-1E+10	1	-1E+10	1	-1E+10	1
4901784	95	C	02/09/2018	10:49	-133.058	43.665	0	83.40	0	9.1230	0	32.9770	4	25.517	0	82.716	0	255.2	4	89.9	4	-1E+10	1	-1E+10	1	-1E+10	1	-1E+10	1	-1E+10	1	-1E+10	1
4901784	95	C	02/09/2018	10:49	-133.058	43.665	0	85.10	0	8.7850	0	33.0160	4	25.600	0	84.402	0	256.3	4	89.6	4	-1E+10	1	-1E+10	1	-1E+10	1	-1E+10	1	-1E+10	1	-1E+10	1
4901784	95	C	02/09/2018	10:49	-133.058	43.665	0	86.60	0	8.4840	0	33.0440	4	25.668	0	85.890	0	257.9	4	89.6	4	-1E+10	1	-1E+10	1	-1E+10	1	-1E+10	1	-1E+10	1	-1E+10	1
4901784	95	C	02/09/2018	10:49	-133.058	43.665	0	88.30	0	8.4290	0	33.0500	4	25.681	0	87.575	0	258.0	4	89.5	4	-1E+10	1	-1E+10	1	-1E+10	1	-1E+10	1	-1E+10	1	-1E+10	1
4901784	95	C	02/09/2018	10:49	-133.058	43.665	0	90.00	0	8.4210	0	33.0490	4	25.681	0	89.261	0	258.0	4	89.5	4	-1E+10	1	-1E+10	1	-1E+10	1	-1E+10	1	-1E+10	1	-1E+10	1
4901784	95	C	02/09/2018	10:49	-133.058	43.665	0	91.70	0	8.3970	0	33.0510	4	25.686	0	90.947	0	257.9	4	89.4	4	-1E+10	1	-1E+10	1	-1E+10	1	-1E+10	1	-1E+10	1	-1E+10	1
4901784	95	C	02/09/2018	10:49	-133.058	43.665	0	93.30	0	8.3740	0	33.0520	4	25.691	0	92.533	0	257.7	4	89.3	4	-1E+10	1	-1E+10	1	-1E+10	1	-1E+10	1	-1E+10	1	-1E+10	1
4901784	95	C	02/09/2018	10:49	-133.058	43.665	0	95.10	0	8.3440	0	33.0540	4	25.697	0	94.318	0	257.7	4	89.2	4	-1E+10	1	-1E+10	1	-1E+10	1	-1E+10	1	-1E+10	1	-1E+10	1
4901784	95	C	02/09/2018	10:49	-133.058	43.665	0	96.80	0	8.2730	0	33.0610	4	25.713	0	96.004	0	257.6	4	89.1	4	-1E+10	1	-1E+10	1	-1E+10	1	-1E+10	1	-1E+10	1	-1E+10	1
4901784	95	C	02/09/2018	10:49	-133.058	43.665	0	98.50	0	8.2180	0	33.0670	4	25.726	0	97.689	0	257.6	4	88.9	4	-1E+10	1	-1E+10	1	-1E+10	1	-1E+10	1	-1E+10	1	-1E+10	1
4901784	95	C	02/09/2018	10:49	-133.058	43.665	0	100.30	0	8.2020	0	33.0670	4	25.728	0	99.474	0	257.5	4	88.9	4	-1E+10	1	-1E+10	1	-1E+10	1	-1E+10	1	-1E+10	1	-1E+10	1
4901784	95	C	02/09/2018	10:49	-133.058	43.665	0	102.90	0	8.1780	0	33.0690	4	25.733	0	102.052	0	257.1	4	88.7	4	-1E+10	1	-1E+10	1	-1E+10	1	-1E+10	1	-1E+10	1	-1E+10	1
4901784	95	C	02/09/2018	10:49	-133.058	43.665	0	105.50	0	8.1570	0	33.0720	4	25.739	0	104.630	0	256.6	4	88.5	4	-1E+10	1	-1E+10	1	-1E+10	1	-1E+10	1	-1E+10	1	-1E+10	1
4901784	95	C	02/09/2018	10:49	-133.058	43.665	0	107.30	0	8.1280	0	33.0760	4	25.746	0	106.414	0	256.2	4	88.3	4	-1E+10	1	-1E+10	1	-1E+10	1	-1E+10	1	-1E+10	1	-1E+10	1
4901784	95	C	02/09/2018	10:49	-133.058	43.665	0	109.90	0	8.0750	0	33.0840	4	25.760	0	108.992	0	255.5	4	88.0	4	-1E+10	1	-1E+10	1	-1E+10	1	-1E+10	1	-1E+10	1	-1E+10	1
4901784	95	C	02/09/2018	10:49	-133.058	43.665	0	112.40	0	8.0570	0	33.0880	4	25.766	0	111.471	0	254.2	4	87.5	4	-1E+10	1	-1E+10	1	-1E+10	1	-1E+10	1	-1E+10	1	-1E+10	1
4901784	95	C	02/09/2018	10:49	-133.058	43.665	0	115.00	0	8.0570	0	33.0990	4	25.775	0	114.049	0	252.2	4	86.8	4	-1E+10	1	-1E+10	1	-1E+10	1	-1E+10	1	-1E+10	1	-1E+10	1
4901784	95	C	02/09/2018	10:49	-133.058	43.665	0	117.60	0	8.0780	0	33.1250	4	25.792	0	116.627	0	249.6	4	86.0	4	-1E+10	1	-1E+10	1	-1E+10	1	-1E+10	1	-1E+10	1	-1E+10	1
4901784	95	C	02/09/2018	10:49	-133.058	43.665	0	120.20	0	8.1280	0	33.1530	4	25.807	0	119.204	0	246.5	4	85.0	4	-1E+10	1	-1E+10	1	-1E+10	1	-1E+10	1	-1E+10	1	-1E+10	1
4901784	95	C	02/09/2018	10:49	-133.058	43.665	0	122.90	0	8.1390	0	33.1610	4	25.811	0	121.881	0	243.0	4	83.8	4	-1E+10	1	-1E+10	1	-1E+10	1	-1E+10	1	-1E+10	1	-1E+10	1
4901784	95	C	02/09/2018	10:49	-133.058	43.665	0	124.60	0	8.1740	0	33.1980	4	25.835	0	123.566	0	239.6	4	82.8	4	-1E+10	1	-1E+10	1	-1E+10	1	-1E+10	1	-1E+10	1	-1E+10	1
4901784	95	C	02/09/2018	10:49	-133.058	43.665	0	127.40	0	8.2340	0	33.2630	4	25.877	0	126.342	0	234.5	4	81.1	4	-1E+10	1	-1E+10	1	-1E+10	1	-1E+10	1	-1E+10	1	-1E+10	1
4901784	95	C	02/09/2018	10:49	-133.058	43.665	0	130.10	0	8.3070	0	33.3330	4	25.922	0	129.019	0	230.1	4	79.8	4	-1E+10	1	-1E+10	1	-1E+10	1	-1E+10	1	-1E+10	1	-1E+10	1
4901784	95	C	02/09/2018	10:49	-133.058	43.665	0	131.90	0	8.3390	0	33.3680	4	25.944	0	130.804	0	228.5	4	79.3	4	-1E+10	1	-1E+10	1	-1E+10	1	-1E+10	1	-1E+10	1	-1E+10	1
4901784	95	C	02/09/2018	10:49	-133.058	43.665	0	134.90	0	8.3550	0	33.4190	4	25.982	0	133.778	0	226.2	4	78.6	4	-1E+10	1	-1E+10	1	-1E+10	1	-1E+10	1	-1E+10	1	-1E+10	1
4901784	95	C	02/09/2018	10:49	-133.058	43.665	0	137.70	0	8.3620	0	33.4530	4	26.008	0	136.553	0	224.5	4	78.0	4	-1E+10	1	-1E+10	1	-1E+10	1	-1E+10	1	-1E+10	1	-1E+10	1
4901784	95	C	02/09/2018	10:49	-133.058	43.665	0	139.90	0	8.3800	0	33.4740	4	26.021	0	138.734	0	223.4	4	77.7	4	-1E+10	1	-1E+10	1	-1E+10	1	-1E+10	1	-1E+10	1	-1E+10	1
4901784	95	C	02/09/2018	10:49	-133.058	43.665	0	142.90	0	8.3430	0	33.5120	4	26.057	0	141.708	0	222.5	4	77.3	4	-1E+10	1	-1E+10	1	-1E+10	1	-1E+10	1	-1E+10	1	-1E+10	1
4901784	95	C	02/09/2018	10:49	-133.058	43.665	0	145.20	0	8.3310	0	33.5450	4	26.084	0	143.988	0	221.6	4	77.0	4	-1E+10	1	-1E+10	1	-1E+10	1	-1E+10	1	-1E+10	1	-1E+10	1
4901784	95	C	02/09/2018	10:49	-133.058	43.665	0	147.50	0	8.3320	0	33.5480	4	26.087	0	146.268	0	220.3	4	76.5	4	-1E+10	1	-1E+10	1	-1E+10	1	-1E+10	1	-1E+10	1	-1E+10	1
4901784	95	C	02/09/2018	10:49	-133.058	43.665	0	149.90	0	8.3560	0	33.5660	4	26.097	0	148.648	0	218.2	4	75.9	4	-1E+10	1	-1E+10	1	-1E+10	1	-1E+10	1	-1E+10	1	-1E+10	1
4901784	95	C	02/09/2018	10:49	-133.058	43.665	0	152.40	0	8.3700	0	33.5780	4	26.105	0	151.126	0	216.3	4	75.2	4	-1E+10	1	-1E+10	1	-1E+10	1	-1E+10	1	-1E+10	1	-1E+10	1
4901784	95	C	02/09/2018	10:49	-133.058	43.665	0	154.80	0	8.3790	0	33.6000	4	26.121	0	153.505	0	213.8	4	74.4	4	-1E+10	1	-1E+10	1	-1E+10	1	-1E+10	1	-1E+10	1	-1E+10	1
4901784	95	C	02/09/2018	10:49	-133.058	43.665	0	157.30	0	8.4090	0	33.6640	4	26.166	0	155.983	0	210.9	4	73.5	4	-1E+10	1	-1E+10	1	-1E+10	1	-1E+10	1	-1E+10	1	-1E+10	1
4901784	95	C	02/09/2018	10:49	-133.058	43.665	0	159.80	0	8.4300	0	33.6980	4	26.190	0	158.461	0	208.8	4	72.8	4	-1E+10	1	-1E+10	1	-1E+10	1	-1E+10	1	-1E+10	1	-1E+10	1
4901784	95	C	02/09/2018	10:49	-133.058	43.665	0	162.50	0	8.4530	0	33.7420	4	26.221	0	161.137	0	206.3	4	72.0	4	-1E+10	1	-1E+10	1	-1E+10	1	-1E+10	1	-1E+10	1	-1E+10	1
4901784	95	C	02/09/2018	10:49	-133.058	43.665	0	165.10	0	8.4720	0	33.7660	4	26.237	0	163.715	0	203.5	4	71.0	4	-1E+10	1	-1E+10	1	-1E+10	1	-1E+10	1	-1E+10	1	-1E+10	1
4901784	95	C	02/09/2018	10:49	-133.058	43.665	0	167.70	0	8.5180	0	33.8000	4	26.256	0	166.292	0	200.7	4	70.1	4	-1E+10	1	-1E+10	1	-1E+10	1	-1E+10	1	-1E+10	1	-1E+10	1
4901784	95	C	02/09/2018	10:49	-133.058	43.665	0	170.40	0	8.5800	0	33.8670	4	26.300	0	168.968	0	198.4	4	69.5	4	-1E+10	1	-1E+10	1	-1E+10	1	-1E+10	1	-1E+10	1	-1E+10	1
4901784	95	C	02/09/2018	10:49	-133.058	43.665	0	172.20	0	8.5860	0	33.8750	4	26.305	0	170.752	0	197.7	4	69.2	4	-1E+10	1	-1E+10	1	-1E+10	1	-1E+10	1	-1E+10	1	-1E+10	1
4901784	95	C	02/09/2018	10:49	-133.058	43.665	0	174.50	0	8.5980	0	33.8920	4	26.316	0	173.032	0	196.4	4	68.8	4	-1E+10	1	-1E+10	1	-1E+10	1	-1E+10	1	-1E+10	1	-1E+10	1
4901784	95	C	02/09/2018	10:49	-133.058	43.665	0	177.10	0	8.6180	0	33.9130	4	26.330	0	175.609	0	195.0	4	68.4	4	-1E+10	1	-1E+10	1	-1E+10	1	-1E+10	1	-1E+10	1	-1E+10	1
4901784	95	C	02/09/2018	10:49	-133.058	43.665	0	180.10	0	8.6260	0	33.9300	4	26.342	0	178.582	0	193.2	4	67.7	4	-1E+10	1	-1E+10	1	-1E+10	1	-1E+10	1	-1E+10	1	-1E+10	1
4901784	95	C	02/09/2018	10:49	-133.058	43.665	0	182.40	0	8.6100	0	33.9500	4	26.360	0	180.862	0	191.8	4	67.3	4	-1E+10	1	-1E+10	1	-1E+10	1	-1E+10	1	-1E+10	1	-1E+10	1
4901784	95	C	02/09/2018	10:49	-133.058	43.665	0	184.70	0	8.6040	0	33.9620	4	26.371	0	183.141	0	190.9	4	66.9	4	-1E+10	1	-1E+10	1	-1E+10	1	-1E+10	1	-1E+10	1	-1E+10	1
4901784	95	C	02/09/2018	10:49	-133.058	43.665	0	187.80	0	8.6280	0	33.9880	4	26.387	0	186.214	0	189.6	4	66.5	4	-1E+10	1	-1E+10	1	-1E+10	1	-1E+10	1	-1E+10	1	-1E+10	1
4901784	95	C	02/09/2018	10:49	-133.058	43.665	0	190.20	0	8.6370	0	33.9970	4	26.393	0	188.592	0	188.4	4	66.1	4	-1E+10	1	-1E+10	1	-1E+10	1	-1E+10	1	-1E+10	1	-1E+10	1
4901784	95	C	02/09/2018	10:49	-133.058	43.665	0	192.70	0	8.6330	0	34.0010	4	26.397	0	191.070	0	186.7	4	65.5	4	-1E+10	1	-1E+10	1	-1E+10	1	-1E+10	1	-1E+10	1	-1E+10	1
4901784	95	C	02/09/2018	10:49	-133.058	43.665	0	195.10	0	8.6050	0	34.0150	4	26.412	0	193.449	0	184.8	4	64.8	4	-1E+10	1	-1E+10	1	-1E+10	1	-1E+10	1	-1E+10	1	-1E+10	1
4901784	95	C	02/09/2018	10:49	-133.058	43.665	0	197.60	0	8.5630	0	34.0180	4	26.421	0	195.926	0	183.3	4	64.2	4	-1E+10	1	-1E+10	1	-1E+10	1	-1E+10	1	-1E+10	1	-1E+10	1
4901784	95	C	02/09/2018	10:49	-133.058	43.665	0	200.10	0	8.5380	0	34.0210	4	26.427	0	198.404	0	182.5	4	63.9	4	-1E+10	1	-1E+10	1	-1E+10	1	-1E+10	1	-1E+10	1	-1E+10	1
4901784	95	C	02/09/2018	10:49	-133.058	43.665	0	202.50	0	8.5070	0	34.0320	4	26.441	0	200.782	0	181.8	4	63.6	4	-1E+10	1	-1E+10	1	-1E+10	1	-1E+10	1	-1E+10	1	-1E+10	1
4901784	95	C	02/09/2018	10:49	-133.058	43.665	0	205.10	0	8.4810	0	34.0390	4	26.450	0	203.359	0	181.1	4	63.4	4	-1E+10	1	-1E+10	1	-1E+10	1	-1E+10	1	-1E+10	1	-1E+10	1
4901784	95	C	02/09/2018	10:49	-133.058	43.665	0	207.60	0	8.4630	0	34.0400	4	26.454	0	205.837	0	181.0	4	63.3	4	-1E+10	1	-1E+10	1	-1E+10	1	-1E+10	1	-1E+10	1	-1E+10	1
4901784	95	C	02/09/2018	10:49	-133.058	43.665	0	210.20	0	8.4390	0	34.0420	4	26.459	0	208.413	0	180.7	4	63.1	4	-1E+10	1	-1E+10	1	-1E+10	1	-1E+10	1	-1E+10	1	-1E+10	1
4901784	95	C	02/09/2018	10:49	-133.058	43.665	0	212.70	0	8.4240	0	34.0540	4	26.471	0	210.891	0	180.4	4	63.0	4	-1E+10	1	-1E+10	1	-1E+10	1	-1E+10	1	-1E+10	1	-1E+10	1
4901784	95	C	02/09/2018	10:49	-133.058	43.665	0	215.30	0	8.3810	0	34.0650	4	26.486	0	213.467	0	179.6	4	62.7	4	-1E+10	1	-1E+10	1	-1E+10	1	-1E+10	1	-1E+10	1	-1E+10	1
4901784	95	C	02/09/2018	10:49	-133.058	43.665	0	217.80	0	8.3600	0	34.0660	4	26.490	0	215.945	0	178.7	4	62.4	4	-1E+10	1	-1E+10	1	-1E+10	1	-1E+10	1	-1E+10	1	-1E+10	1
4901784	95	C	02/09/2018	10:49	-133.058	43.665	0	220.40	0	8.3290	0	34.0630	4	26.492	0	218.521	0	177.7	4	62.0	4	-1E+10	1	-1E+10	1	-1E+10	1	-1E+10	1	-1E+10	1	-1E+10	1
4901784	95	C	02/09/2018	10:49	-133.058	43.665	0	222.10	0	8.2960	0	34.0590	4	26.494	0	220.206	0	177.2	4	61.7	4	-1E+10	1	-1E+10	1	-1E+10	1	-1E+10	1	-1E+10	1	-1E+10	1
4901784	95	C	02/09/2018	10:49	-133.058	43.665	0	224.80	0	8.2650	0	34.0660	4	26.504	0	222.881	0	176.0	4	61.3	4	-1E+10	1	-1E+10	1	-1E+10	1	-1E+10	1	-1E+10	1	-1E+10	1
4901784	95	C	02/09/2018	10:49	-133.058	43.665	0	227.40	0	8.2340	0	34.0640	4	26.508	0	225.458	0	174.7	4	60.8	4	-1E+10	1	-1E+10	1	-1E+10	1	-1E+10	1	-1E+10	1	-1E+10	1
4901784	95	C	02/09/2018	10:49	-133.058	43.665	0	230.00	0	8.1900	0	34.0610	4	26.512	0	228.034	0	173.4	4	60.3	4	-1E+10	1	-1E+10	1	-1E+10	1	-1E+10	1	-1E+10	1	-1E+10	1
4901784	95	C	02/09/2018	10:49	-133.058	43.665	0	232.70	0	8.1610	0	34.0580	4	26.514	0	230.710	0	171.9	4	59.7	4	-1E+10	1	-1E+10	1	-1E+10	1	-1E+10	1	-1E+10	1	-1E+10	1
4901784	95	C	02/09/2018	10:49	-133.058	43.665	0	234.50	0	8.1320	0	34.0560	4	26.517	0	232.493	0	170.7	4	59.3	4	-1E+10	1	-1E+10	1	-1E+10	1	-1E+10	1	-1E+10	1	-1E+10	1
4901784	95	C	02/09/2018	10:49	-133.058	43.665	0	237.10	0	8.0650	0	34.0480	4	26.520	0	235.069	0	169.3	4	58.7	4	-1E+10	1	-1E+10	1	-1E+10	1	-1E+10	1	-1E+10	1	-1E+10	1
4901784	95	C	02/09/2018	10:49	-133.058	43.665	0	239.80	0	7.9920	0	34.0420	4	26.526	0	237.745	0	168.1	4	58.2	4	-1E+10	1	-1E+10	1	-1E+10	1	-1E+10	1	-1E+10	1	-1E+10	1
4901784	95	C	02/09/2018	10:49	-133.058	43.665	0	242.30	0	7.9950	0	34.0460	4	26.529	0	240.222	0	166.6	4	57.6	4	-1E+10	1	-1E+10	1	-1E+10	1	-1E+10	1	-1E+10	1	-1E+10	1
4901784	95	C	02/09/2018	10:49	-133.058	43.665	0	244.90	0	7.9420	0	34.0450	4	26.536	0	242.798	0	164.3	4	56.8	4	-1E+10	1	-1E+10	1	-1E+10	1	-1E+10	1	-1E+10	1	-1E+10	1
4901784	95	C	02/09/2018	10:49	-133.058	43.665	0	247.50	0	7.8710	0	34.0400	4	26.543	0	245.374	0	162.5	4	56.1	4	-1E+10	1	-1E+10	1	-1E+10	1	-1E+10	1	-1E+10	1	-1E+10	1
4901784	95	C	02/09/2018	10:49	-133.058	43.665	0	250.10	0	7.8030	0	34.0370	4	26.550	0	247.950	0	160.8	4	55.4	4	-1E+10	1	-1E+10	1	-1E+10	1	-1E+10	1	-1E+10	1	-1E+10	1
4901784	95	C	02/09/2018	10:49	-133.058	43.665	0	252.70	0	7.7530	0	34.0390	4	26.559	0	250.526	0	159.2	4	54.8	4	-1E+10	1	-1E+10	1	-1E+10	1	-1E+10	1	-1E+10	1	-1E+10	1
4901784	95	C	02/09/2018	10:49	-133.058	43.665	0	255.20	0	7.6940	0	34.0360	4	26.565	0	253.003	0	157.6	4	54.2	4	-1E+10	1	-1E+10	1	-1E+10	1	-1E+10	1	-1E+10	1	-1E+10	1
4901784	95	C	02/09/2018	10:49	-133.058	43.665	0	257.90	0	7.6190	0	34.0350	4	26.575	0	255.678	0	156.4	4	53.7	4	-1E+10	1	-1E+10	1	-1E+10	1	-1E+10	1	-1E+10	1	-1E+10	1
4901784	95	C	02/09/2018	10:49	-133.058	43.665	0	260.50	0	7.5890	0	34.0350	4	26.580	0	258.254	0	155.5	4	53.3	4	-1E+10	1	-1E+10	1	-1E+10	1	-1E+10	1	-1E+10	1	-1E+10	1
4901784	95	C	02/09/2018	10:49	-133.058	43.665	0	262.20	0	7.5740	0	34.0340	4	26.581	0	259.939	0	154.5	4	53.0	4	-1E+10	1	-1E+10	1	-1E+10	1	-1E+10	1	-1E+10	1	-1E+10	1
4901784	95	C	02/09/2018	10:49	-133.058	43.665	0	264.80	0	7.5140	0	34.0350	4	26.591	0	262.515	0	153.3	4	52.5	4	-1E+10	1	-1E+10	1	-1E+10	1	-1E+10	1	-1E+10	1	-1E+10	1
4901784	95	C	02/09/2018	10:49	-133.058	43.665	0	267.40	0	7.4750	0	34.0340	4	26.595	0	265.090	0	152.3	4	52.1	4	-1E+10	1	-1E+10	1	-1E+10	1	-1E+10	1	-1E+10	1	-1E+10	1
4901784	95	C	02/09/2018	10:49	-133.058	43.665	0	269.90	0	7.4490	0	34.0330	4	26.598	0	267.567	0	151.1	4	51.6	4	-1E+10	1	-1E+10	1	-1E+10	1	-1E+10	1	-1E+10	1	-1E+10	1
4901784	95	C	02/09/2018	10:49	-133.058	43.665	0	272.40	0	7.4140	0	34.0330	4	26.603	0	270.044	0	149.9	4	51.2	4	-1E+10	1	-1E+10	1	-1E+10	1	-1E+10	1	-1E+10	1	-1E+10	1
4901784	95	C	02/09/2018	10:49	-133.058	43.665	0	274.90	0	7.3800	0	34.0310	4	26.606	0	272.521	0	148.6	4	50.7	4	-1E+10	1	-1E+10	1	-1E+10	1	-1E+10	1	-1E+10	1	-1E+10	1
4901784	95	C	02/09/2018	10:49	-133.058	43.665	0	277.40	0	7.3300	0	34.0260	4	26.610	0	274.997	0	147.2	4	50.2	4	-1E+10	1	-1E+10	1	-1E+10	1	-1E+10	1	-1E+10	1	-1E+10	1
4901784	95	C	02/09/2018	10:49	-133.058	43.665	0	279.90	0	7.2560	0	34.0260	4	26.620	0	277.474	0	145.7	4	49.6	4	-1E+10	1	-1E+10	1	-1E+10	1	-1E+10	1	-1E+10	1	-1E+10	1
4901784	95	C	02/09/2018	10:49	-133.058	43.665	0	282.30	0	7.2240	0	34.0240	4	26.623	0	279.852	0	144.6	4	49.2	4	-1E+10	1	-1E+10	1	-1E+10	1	-1E+10	1	-1E+10	1	-1E+10	1
4901784	95	C	02/09/2018	10:49	-133.058	43.665	0	284.90	0	7.1770	0	34.0250	4	26.630	0	282.427	0	143.0	4	48.6	4	-1E+10	1	-1E+10	1	-1E+10	1	-1E+10	1	-1E+10	1	-1E+10	1
4901784	95	C	02/09/2018	10:49	-133.058	43.665	0	287.40	0	7.1350	0	34.0250	4	26.636	0	284.904	0	141.7	4	48.1	4	-1E+10	1	-1E+10	1	-1E+10	1	-1E+10	1	-1E+10	1	-1E+10	1
4901784	95	C	02/09/2018	10:49	-133.058	43.665	0	290.00	0	7.0980	0	34.0250	4	26.641	0	287.480	0	139.9	4	47.4	4	-1E+10	1	-1E+10	1	-1E+10	1	-1E+10	1	-1E+10	1	-1E+10	1
4901784	95	C	02/09/2018	10:49	-133.058	43.665	0	292.50	0	7.0530	0	34.0230	4	26.646	0	289.956	0	138.1	4	46.8	4	-1E+10	1	-1E+10	1	-1E+10	1	-1E+10	1	-1E+10	1	-1E+10	1
4901784	95	C	02/09/2018	10:49	-133.058	43.665	0	295.00	0	6.9470	0	34.0210	4	26.659	0	292.433	0	136.2	4	46.0	4	-1E+10	1	-1E+10	1	-1E+10	1	-1E+10	1	-1E+10	1	-1E+10	1
4901784	95	C	02/09/2018	10:49	-133.058	43.665	0	297.50	0	6.9060	0	34.0210	4	26.664	0	294.909	0	134.4	4	45.4	4	-1E+10	1	-1E+10	1	-1E+10	1	-1E+10	1	-1E+10	1	-1E+10	1
4901784	95	C	02/09/2018	10:49	-133.058	43.665	0	300.00	0	6.7710	0	34.0170	4	26.679	0	297.386	0	133.2	4	44.8	4	-1E+10	1	-1E+10	1	-1E+10	1	-1E+10	1	-1E+10	1	-1E+10	1
4901784	95	C	02/09/2018	10:49	-133.058	43.665	0	302.60	0	6.7340	0	34.0160	4	26.684	0	299.961	0	132.1	4	44.4	4	-1E+10	1	-1E+10	1	-1E+10	1	-1E+10	1	-1E+10	1	-1E+10	1
4901784	95	C	02/09/2018	10:49	-133.058	43.665	0	305.20	0	6.7090	0	34.0160	4	26.687	0	302.536	0	130.8	4	44.0	4	-1E+10	1	-1E+10	1	-1E+10	1	-1E+10	1	-1E+10	1	-1E+10	1
4901784	95	C	02/09/2018	10:49	-133.058	43.665	0	307.80	0	6.6920	0	34.0200	4	26.692	0	305.112	0	129.0	4	43.3	4	-1E+10	1	-1E+10	1	-1E+10	1	-1E+10	1	-1E+10	1	-1E+10	1
4901784	95	C	02/09/2018	10:49	-133.058	43.665	0	309.60	0	6.6370	0	34.0200	4	26.700	0	306.895	0	128.2	4	43.0	4	-1E+10	1	-1E+10	1	-1E+10	1	-1E+10	1	-1E+10	1	-1E+10	1
4901784	95	C	02/09/2018	10:49	-133.058	43.665	0	312.20	0	6.5930	0	34.0170	4	26.703	0	309.470	0	126.6	4	42.5	4	-1E+10	1	-1E+10	1	-1E+10	1	-1E+10	1	-1E+10	1	-1E+10	1
4901784	95	C	02/09/2018	10:49	-133.058	43.665	0	314.80	0	6.5140	0	34.0170	4	26.714	0	312.045	0	125.3	4	41.9	4	-1E+10	1	-1E+10	1	-1E+10	1	-1E+10	1	-1E+10	1	-1E+10	1
4901784	95	C	02/09/2018	10:49	-133.058	43.665	0	317.40	0	6.4890	0	34.0170	4	26.717	0	314.621	0	124.0	4	41.5	4	-1E+10	1	-1E+10	1	-1E+10	1	-1E+10	1	-1E+10	1	-1E+10	1
4901784	95	C	02/09/2018	10:49	-133.058	43.665	0	320.00	0	6.4350	0	34.0150	4	26.722	0	317.196	0	122.6	4	40.9	4	-1E+10	1	-1E+10	1	-1E+10	1	-1E+10	1	-1E+10	1	-1E+10	1
4901784	95	C	02/09/2018	10:49	-133.058	43.665	0	322.60	0	6.3880	0	34.0140	4	26.728	0	319.771	0	121.0	4	40.4	4	-1E+10	1	-1E+10	1	-1E+10	1	-1E+10	1	-1E+10	1	-1E+10	1
4901784	95	C	02/09/2018	10:49	-133.058	43.665	0	325.30	0	6.3290	0	34.0100	4	26.732	0	322.445	0	119.6	4	39.8	4	-1E+10	1	-1E+10	1	-1E+10	1	-1E+10	1	-1E+10	1	-1E+10	1
4901784	95	C	02/09/2018	10:49	-133.058	43.665	0	327.10	0	6.2830	0	34.0110	4	26.739	0	324.228	0	118.4	4	39.4	4	-1E+10	1	-1E+10	1	-1E+10	1	-1E+10	1	-1E+10	1	-1E+10	1
4901784	95	C	02/09/2018	10:49	-133.058	43.665	0	329.90	0	6.2390	0	34.0110	4	26.745	0	327.001	0	116.9	4	38.9	4	-1E+10	1	-1E+10	1	-1E+10	1	-1E+10	1	-1E+10	1	-1E+10	1
4901784	95	C	02/09/2018	10:49	-133.058	43.665	0	332.60	0	6.1920	0	34.0090	4	26.749	0	329.675	0	115.2	4	38.3	4	-1E+10	1	-1E+10	1	-1E+10	1	-1E+10	1	-1E+10	1	-1E+10	1
4901784	95	C	02/09/2018	10:49	-133.058	43.665	0	335.30	0	6.0950	0	34.0120	4	26.764	0	332.350	0	113.7	4	37.7	4	-1E+10	1	-1E+10	1	-1E+10	1	-1E+10	1	-1E+10	1	-1E+10	1
4901784	95	C	02/09/2018	10:49	-133.058	43.665	0	338.00	0	6.0590	0	34.0100	4	26.767	0	335.024	0	112.3	4	37.2	4	-1E+10	1	-1E+10	1	-1E+10	1	-1E+10	1	-1E+10	1	-1E+10	1
4901784	95	C	02/09/2018	10:49	-133.058	43.665	0	339.90	0	6.0050	0	34.0090	4	26.773	0	336.905	0	111.4	4	36.8	4	-1E+10	1	-1E+10	1	-1E+10	1	-1E+10	1	-1E+10	1	-1E+10	1
4901784	95	C	02/09/2018	10:49	-133.058	43.665	0	342.70	0	5.9530	0	34.0080	4	26.778	0	339.678	0	110.1	4	36.4	4	-1E+10	1	-1E+10	1	-1E+10	1	-1E+10	1	-1E+10	1	-1E+10	1
4901784	95	C	02/09/2018	10:49	-133.058	43.665	0	345.40	0	5.9080	0	34.0080	4	26.784	0	342.352	0	108.9	4	35.9	4	-1E+10	1	-1E+10	1	-1E+10	1	-1E+10	1	-1E+10	1	-1E+10	1
4901784	95	C	02/09/2018	10:49	-133.058	43.665	0	347.30	0	5.8820	0	34.0080	4	26.787	0	344.234	0	107.9	4	35.6	4	-1E+10	1	-1E+10	1	-1E+10	1	-1E+10	1	-1E+10	1	-1E+10	1
4901784	95	C	02/09/2018	10:49	-133.058	43.665	0	350.00	0	5.8220	0	34.0040	4	26.792	0	346.908	0	106.7	4	35.1	4	-1E+10	1	-1E+10	1	-1E+10	1	-1E+10	1	-1E+10	1	-1E+10	1
4901784	95	C	02/09/2018	10:49	-133.058	43.665	0	352.80	0	5.7830	0	34.0040	4	26.796	0	349.681	0	105.7	4	34.8	4	-1E+10	1	-1E+10	1	-1E+10	1	-1E+10	1	-1E+10	1	-1E+10	1
4901784	95	C	02/09/2018	10:49	-133.058	43.665	0	354.70	0	5.7700	0	34.0060	4	26.800	0	351.562	0	105.1	4	34.6	4	-1E+10	1	-1E+10	1	-1E+10	1	-1E+10	1	-1E+10	1	-1E+10	1
4901784	95	C	02/09/2018	10:49	-133.058	43.665	0	357.50	0	5.7160	0	34.0060	4	26.806	0	354.335	0	104.1	4	34.2	4	-1E+10	1	-1E+10	1	-1E+10	1	-1E+10	1	-1E+10	1	-1E+10	1
4901784	95	C	02/09/2018	10:49	-133.058	43.665	0	360.90	0	5.6850	0	34.0060	4	26.810	0	357.702	0	103.3	4	33.9	4	-1E+10	1	-1E+10	1	-1E+10	1	-1E+10	1	-1E+10	1	-1E+10	1
4901784	95	C	02/09/2018	10:49	-133.058	43.665	0	362.80	0	5.6710	0	34.0070	4	26.813	0	359.584	0	102.7	4	33.7	4	-1E+10	1	-1E+10	1	-1E+10	1	-1E+10	1	-1E+10	1	-1E+10	1
4901784	95	C	02/09/2018	10:49	-133.058	43.665	0	365.30	0	5.6520	0	34.0060	4	26.814	0	362.059	0	101.6	4	33.3	4	-1E+10	1	-1E+10	1	-1E+10	1	-1E+10	1	-1E+10	1	-1E+10	1
4901784	95	C	02/09/2018	10:49	-133.058	43.665	0	367.70	0	5.6000	0	34.0060	4	26.820	0	364.436	0	100.5	4	32.9	4	-1E+10	1	-1E+10	1	-1E+10	1	-1E+10	1	-1E+10	1	-1E+10	1
4901784	95	C	02/09/2018	10:49	-133.058	43.665	0	370.10	0	5.5730	0	34.0060	4	26.824	0	366.813	0	99.7	4	32.6	4	-1E+10	1	-1E+10	1	-1E+10	1	-1E+10	1	-1E+10	1	-1E+10	1
4901784	95	C	02/09/2018	10:49	-133.058	43.665	0	372.50	0	5.5590	0	34.0060	4	26.825	0	369.189	0	98.8	4	32.3	4	-1E+10	1	-1E+10	1	-1E+10	1	-1E+10	1	-1E+10	1	-1E+10	1
4901784	95	C	02/09/2018	10:49	-133.058	43.665	0	374.90	0	5.5230	0	34.0060	4	26.830	0	371.566	0	97.8	4	32.0	4	-1E+10	1	-1E+10	1	-1E+10	1	-1E+10	1	-1E+10	1	-1E+10	1
4901784	95	C	02/09/2018	10:49	-133.058	43.665	0	377.30	0	5.4880	0	34.0060	4	26.834	0	373.942	0	97.0	4	31.7	4	-1E+10	1	-1E+10	1	-1E+10	1	-1E+10	1	-1E+10	1	-1E+10	1
4901784	95	C	02/09/2018	10:49	-133.058	43.665	0	379.80	0	5.4520	0	34.0130	4	26.844	0	376.418	0	95.9	4	31.3	4	-1E+10	1	-1E+10	1	-1E+10	1	-1E+10	1	-1E+10	1	-1E+10	1
4901784	95	C	02/09/2018	10:49	-133.058	43.665	0	382.30	0	5.4200	0	34.0130	4	26.848	0	378.893	0	95.0	4	31.0	4	-1E+10	1	-1E+10	1	-1E+10	1	-1E+10	1	-1E+10	1	-1E+10	1
4901784	95	C	02/09/2018	10:49	-133.058	43.665	0	384.70	0	5.4040	0	34.0140	4	26.850	0	381.269	0	93.7	4	30.6	4	-1E+10	1	-1E+10	1	-1E+10	1	-1E+10	1	-1E+10	1	-1E+10	1
4901784	95	C	02/09/2018	10:49	-133.058	43.665	0	387.30	0	5.3770	0	34.0150	4	26.854	0	383.844	0	92.7	4	30.2	4	-1E+10	1	-1E+10	1	-1E+10	1	-1E+10	1	-1E+10	1	-1E+10	1
4901784	95	C	02/09/2018	10:49	-133.058	43.665	0	389.80	0	5.3500	0	34.0140	4	26.857	0	386.319	0	91.4	4	29.8	4	-1E+10	1	-1E+10	1	-1E+10	1	-1E+10	1	-1E+10	1	-1E+10	1
4901784	95	C	02/09/2018	10:49	-133.058	43.665	0	392.40	0	5.2840	0	34.0190	4	26.868	0	388.894	0	89.9	4	29.2	4	-1E+10	1	-1E+10	1	-1E+10	1	-1E+10	1	-1E+10	1	-1E+10	1
4901784	95	C	02/09/2018	10:49	-133.058	43.665	0	395.00	0	5.2630	0	34.0200	4	26.872	0	391.468	0	89.1	4	29.0	4	-1E+10	1	-1E+10	1	-1E+10	1	-1E+10	1	-1E+10	1	-1E+10	1
4901784	95	C	02/09/2018	10:49	-133.058	43.665	0	397.60	0	5.2420	0	34.0230	4	26.877	0	394.042	0	88.9	4	28.9	4	-1E+10	1	-1E+10	1	-1E+10	1	-1E+10	1	-1E+10	1	-1E+10	1
4901784	95	C	02/09/2018	10:49	-133.058	43.665	0	400.20	0	5.2310	0	34.0240	4	26.879	0	396.616	0	88.8	4	28.8	4	-1E+10	1	-1E+10	1	-1E+10	1	-1E+10	1	-1E+10	1	-1E+10	1
4901784	95	C	02/09/2018	10:49	-133.058	43.665	0	402.80	0	5.2250	0	34.0240	4	26.879	0	399.191	0	88.0	4	28.6	4	-1E+10	1	-1E+10	1	-1E+10	1	-1E+10	1	-1E+10	1	-1E+10	1
4901784	95	C	02/09/2018	10:49	-133.058	43.665	0	404.60	0	5.2160	0	34.0240	4	26.880	0	400.973	0	87.4	4	28.4	4	-1E+10	1	-1E+10	1	-1E+10	1	-1E+10	1	-1E+10	1	-1E+10	1
4901784	95	C	02/09/2018	10:49	-133.058	43.665	0	407.20	0	5.1970	0	34.0260	4	26.884	0	403.547	0	86.4	4	28.0	4	-1E+10	1	-1E+10	1	-1E+10	1	-1E+10	1	-1E+10	1	-1E+10	1
4901784	95	C	02/09/2018	10:49	-133.058	43.665	0	409.80	0	5.1830	0	34.0270	4	26.887	0	406.121	0	85.2	4	27.6	4	-1E+10	1	-1E+10	1	-1E+10	1	-1E+10	1	-1E+10	1	-1E+10	1
4901784	95	C	02/09/2018	10:49	-133.058	43.665	0	412.50	0	5.1520	0	34.0300	4	26.893	0	408.794	0	83.9	4	27.2	4	-1E+10	1	-1E+10	1	-1E+10	1	-1E+10	1	-1E+10	1	-1E+10	1
4901784	95	C	02/09/2018	10:49	-133.058	43.665	0	415.20	0	5.1160	0	34.0330	4	26.899	0	411.467	0	82.9	4	26.8	4	-1E+10	1	-1E+10	1	-1E+10	1	-1E+10	1	-1E+10	1	-1E+10	1
4901784	95	C	02/09/2018	10:49	-133.058	43.665	0	417.00	0	5.1040	0	34.0350	4	26.902	0	413.249	0	82.4	4	26.7	4	-1E+10	1	-1E+10	1	-1E+10	1	-1E+10	1	-1E+10	1	-1E+10	1
4901784	95	C	02/09/2018	10:49	-133.058	43.665	0	419.70	0	5.0920	0	34.0360	4	26.904	0	415.922	0	81.7	4	26.4	4	-1E+10	1	-1E+10	1	-1E+10	1	-1E+10	1	-1E+10	1	-1E+10	1
4901784	95	C	02/09/2018	10:49	-133.058	43.665	0	422.40	0	5.0810	0	34.0370	4	26.906	0	418.595	0	80.8	4	26.2	4	-1E+10	1	-1E+10	1	-1E+10	1	-1E+10	1	-1E+10	1	-1E+10	1
4901784	95	C	02/09/2018	10:49	-133.058	43.665	0	425.20	0	5.0710	0	34.0390	4	26.909	0	421.367	0	79.9	4	25.8	4	-1E+10	1	-1E+10	1	-1E+10	1	-1E+10	1	-1E+10	1	-1E+10	1
4901784	95	C	02/09/2018	10:49	-133.058	43.665	0	427.80	0	5.0420	0	34.0410	4	26.914	0	423.941	0	79.3	4	25.7	4	-1E+10	1	-1E+10	1	-1E+10	1	-1E+10	1	-1E+10	1	-1E+10	1
4901784	95	C	02/09/2018	10:49	-133.058	43.665	0	429.60	0	5.0400	0	34.0410	4	26.914	0	425.723	0	78.8	4	25.5	4	-1E+10	1	-1E+10	1	-1E+10	1	-1E+10	1	-1E+10	1	-1E+10	1
4901784	95	C	02/09/2018	10:49	-133.058	43.665	0	432.30	0	5.0230	0	34.0430	4	26.918	0	428.396	0	77.7	4	25.1	4	-1E+10	1	-1E+10	1	-1E+10	1	-1E+10	1	-1E+10	1	-1E+10	1
4901784	95	C	02/09/2018	10:49	-133.058	43.665	0	435.00	0	5.0120	0	34.0460	4	26.922	0	431.069	0	76.6	4	24.8	4	-1E+10	1	-1E+10	1	-1E+10	1	-1E+10	1	-1E+10	1	-1E+10	1
4901784	95	C	02/09/2018	10:49	-133.058	43.665	0	437.80	0	4.9910	0	34.0480	4	26.926	0	433.840	0	76.0	4	24.5	4	-1E+10	1	-1E+10	1	-1E+10	1	-1E+10	1	-1E+10	1	-1E+10	1
4901784	95	C	02/09/2018	10:49	-133.058	43.665	0	440.50	0	4.9760	0	34.0490	4	26.928	0	436.513	0	74.9	4	24.2	4	-1E+10	1	-1E+10	1	-1E+10	1	-1E+10	1	-1E+10	1	-1E+10	1
4901784	95	C	02/09/2018	10:49	-133.058	43.665	0	442.20	0	4.9720	0	34.0490	4	26.929	0	438.196	0	74.0	4	23.9	4	-1E+10	1	-1E+10	1	-1E+10	1	-1E+10	1	-1E+10	1	-1E+10	1
4901784	95	C	02/09/2018	10:49	-133.058	43.665	0	444.90	0	4.9480	0	34.0550	4	26.936	0	440.869	0	72.4	4	23.4	4	-1E+10	1	-1E+10	1	-1E+10	1	-1E+10	1	-1E+10	1	-1E+10	1
4901784	95	C	02/09/2018	10:49	-133.058	43.665	0	447.60	0	4.9520	0	34.0560	4	26.936	0	443.541	0	71.0	4	22.9	4	-1E+10	1	-1E+10	1	-1E+10	1	-1E+10	1	-1E+10	1	-1E+10	1
4901784	95	C	02/09/2018	10:49	-133.058	43.665	0	450.30	0	4.9450	0	34.0610	4	26.941	0	446.214	0	69.8	4	22.5	4	-1E+10	1	-1E+10	1	-1E+10	1	-1E+10	1	-1E+10	1	-1E+10	1
4901784	95	C	02/09/2018	10:49	-133.058	43.665	0	453.00	0	4.9510	0	34.0620	4	26.941	0	448.887	0	68.8	4	22.2	4	-1E+10	1	-1E+10	1	-1E+10	1	-1E+10	1	-1E+10	1	-1E+10	1
4901784	95	C	02/09/2018	10:49	-133.058	43.665	0	454.80	0	4.9510	0	34.0630	4	26.942	0	450.668	0	68.2	4	22.0	4	-1E+10	1	-1E+10	1	-1E+10	1	-1E+10	1	-1E+10	1	-1E+10	1
4901784	95	C	02/09/2018	10:49	-133.058	43.665	0	457.50	0	4.9420	0	34.0650	4	26.945	0	453.341	0	67.4	4	21.8	4	-1E+10	1	-1E+10	1	-1E+10	1	-1E+10	1	-1E+10	1	-1E+10	1
4901784	95	C	02/09/2018	10:49	-133.058	43.665	0	460.20	0	4.9190	0	34.0680	4	26.950	0	456.013	0	66.7	4	21.5	4	-1E+10	1	-1E+10	1	-1E+10	1	-1E+10	1	-1E+10	1	-1E+10	1
4901784	95	C	02/09/2018	10:49	-133.058	43.665	0	462.10	0	4.9200	0	34.0680	4	26.950	0	457.894	0	66.2	4	21.3	4	-1E+10	1	-1E+10	1	-1E+10	1	-1E+10	1	-1E+10	1	-1E+10	1
4901784	95	C	02/09/2018	10:49	-133.058	43.665	0	464.80	0	4.9090	0	34.0680	4	26.951	0	460.566	0	65.4	4	21.1	4	-1E+10	1	-1E+10	1	-1E+10	1	-1E+10	1	-1E+10	1	-1E+10	1
4901784	95	C	02/09/2018	10:49	-133.058	43.665	0	467.50	0	4.8760	0	34.0700	4	26.956	0	463.239	0	64.2	4	20.7	4	-1E+10	1	-1E+10	1	-1E+10	1	-1E+10	1	-1E+10	1	-1E+10	1
4901784	95	C	02/09/2018	10:49	-133.058	43.665	0	469.40	0	4.8810	0	34.0720	4	26.957	0	465.119	0	62.9	4	20.3	4	-1E+10	1	-1E+10	1	-1E+10	1	-1E+10	1	-1E+10	1	-1E+10	1
4901784	95	C	02/09/2018	10:49	-133.058	43.665	0	472.20	0	4.8980	0	34.0770	4	26.959	0	467.891	0	61.1	4	19.7	4	-1E+10	1	-1E+10	1	-1E+10	1	-1E+10	1	-1E+10	1	-1E+10	1
4901784	95	C	02/09/2018	10:49	-133.058	43.665	0	475.00	0	4.8640	0	34.0770	4	26.963	0	470.662	0	59.6	4	19.2	4	-1E+10	1	-1E+10	1	-1E+10	1	-1E+10	1	-1E+10	1	-1E+10	1
4901784	95	C	02/09/2018	10:49	-133.058	43.665	0	477.70	0	4.8520	0	34.0810	4	26.968	0	473.334	0	57.0	4	18.3	4	-1E+10	1	-1E+10	1	-1E+10	1	-1E+10	1	-1E+10	1	-1E+10	1
4901784	95	C	02/09/2018	10:49	-133.058	43.665	0	480.50	0	4.8930	0	34.0910	4	26.971	0	476.105	0	54.3	4	17.5	4	-1E+10	1	-1E+10	1	-1E+10	1	-1E+10	1	-1E+10	1	-1E+10	1
4901784	95	C	02/09/2018	10:49	-133.058	43.665	0	482.40	0	4.8510	0	34.0910	4	26.976	0	477.986	0	53.2	4	17.1	4	-1E+10	1	-1E+10	1	-1E+10	1	-1E+10	1	-1E+10	1	-1E+10	1
4901784	95	C	02/09/2018	10:49	-133.058	43.665	0	485.20	0	4.8530	0	34.0940	4	26.978	0	480.757	0	50.3	4	16.2	4	-1E+10	1	-1E+10	1	-1E+10	1	-1E+10	1	-1E+10	1	-1E+10	1
4901784	95	C	02/09/2018	10:49	-133.058	43.665	0	487.90	0	4.9090	0	34.1080	4	26.983	0	483.429	0	46.6	4	15.0	4	-1E+10	1	-1E+10	1	-1E+10	1	-1E+10	1	-1E+10	1	-1E+10	1
4901784	95	C	02/09/2018	10:49	-133.058	43.665	0	489.80	0	4.9110	0	34.1100	4	26.984	0	485.309	0	45.5	4	14.7	4	-1E+10	1	-1E+10	1	-1E+10	1	-1E+10	1	-1E+10	1	-1E+10	1
4901784	95	C	02/09/2018	10:49	-133.058	43.665	0	492.60	0	4.9150	0	34.1160	4	26.989	0	488.080	0	43.8	4	14.1	4	-1E+10	1	-1E+10	1	-1E+10	1	-1E+10	1	-1E+10	1	-1E+10	1
4901784	95	C	02/09/2018	10:49	-133.058	43.665	0	495.40	0	4.9220	0	34.1200	4	26.991	0	490.851	0	42.4	4	13.7	4	-1E+10	1	-1E+10	1	-1E+10	1	-1E+10	1	-1E+10	1	-1E+10	1
4901784	95	C	02/09/2018	10:49	-133.058	43.665	0	497.30	0	4.9210	0	34.1210	4	26.992	0	492.732	0	41.3	4	13.3	4	-1E+10	1	-1E+10	1	-1E+10	1	-1E+10	1	-1E+10	1	-1E+10	1
4901784	95	C	02/09/2018	10:49	-133.058	43.665	0	500.00	0	4.9140	0	34.1290	4	26.999	0	495.404	0	39.8	4	12.8	4	-1E+10	1	-1E+10	1	-1E+10	1	-1E+10	1	-1E+10	1	-1E+10	1
4901784	95	C	02/09/2018	10:49	-133.058	43.665	0	504.70	0	4.9110	0	34.1370	4	27.006	0	500.055	0	37.8	4	12.2	4	-1E+10	1	-1E+10	1	-1E+10	1	-1E+10	1	-1E+10	1	-1E+10	1
4901784	95	C	02/09/2018	10:49	-133.058	43.665	0	510.30	0	4.8880	0	34.1440	4	27.014	0	505.597	0	36.6	4	11.8	4	-1E+10	1	-1E+10	1	-1E+10	1	-1E+10	1	-1E+10	1	-1E+10	1
4901784	95	C	02/09/2018	10:49	-133.058	43.665	0	514.90	0	4.8790	0	34.1470	4	27.017	0	510.149	0	35.6	4	11.5	4	-1E+10	1	-1E+10	1	-1E+10	1	-1E+10	1	-1E+10	1	-1E+10	1
4901784	95	C	02/09/2018	10:49	-133.058	43.665	0	519.70	0	4.8680	0	34.1520	4	27.023	0	514.898	0	34.6	4	11.2	4	-1E+10	1	-1E+10	1	-1E+10	1	-1E+10	1	-1E+10	1	-1E+10	1
4901784	95	C	02/09/2018	10:49	-133.058	43.665	0	525.50	0	4.8450	0	34.1560	4	27.028	0	520.637	0	33.9	4	10.9	4	-1E+10	1	-1E+10	1	-1E+10	1	-1E+10	1	-1E+10	1	-1E+10	1
4901784	95	C	02/09/2018	10:49	-133.058	43.665	0	530.10	0	4.8250	0	34.1590	4	27.033	0	525.189	0	33.2	4	10.7	4	-1E+10	1	-1E+10	1	-1E+10	1	-1E+10	1	-1E+10	1	-1E+10	1
4901784	95	C	02/09/2018	10:49	-133.058	43.665	0	534.80	0	4.8220	0	34.1620	4	27.036	0	529.839	0	32.5	4	10.5	4	-1E+10	1	-1E+10	1	-1E+10	1	-1E+10	1	-1E+10	1	-1E+10	1
4901784	95	C	02/09/2018	10:49	-133.058	43.665	0	540.60	0	4.8090	0	34.1670	4	27.041	0	535.578	0	32.7	4	10.5	4	-1E+10	1	-1E+10	1	-1E+10	1	-1E+10	1	-1E+10	1	-1E+10	1
4901784	95	C	02/09/2018	10:49	-133.058	43.665	0	545.30	0	4.7270	0	34.1630	4	27.047	0	540.228	0	33.7	4	10.8	4	-1E+10	1	-1E+10	1	-1E+10	1	-1E+10	1	-1E+10	1	-1E+10	1
4901784	95	C	02/09/2018	10:49	-133.058	43.665	0	550.00	0	4.7070	0	34.1650	4	27.051	0	544.879	0	33.8	4	10.9	4	-1E+10	1	-1E+10	1	-1E+10	1	-1E+10	1	-1E+10	1	-1E+10	1
4901784	95	C	02/09/2018	10:49	-133.058	43.665	0	554.70	0	4.6670	0	34.1660	4	27.056	0	549.529	0	34.5	4	11.1	4	-1E+10	1	-1E+10	1	-1E+10	1	-1E+10	1	-1E+10	1	-1E+10	1
4901784	95	C	02/09/2018	10:49	-133.058	43.665	0	559.50	0	4.6340	0	34.1630	4	27.058	0	554.277	0	35.1	4	11.3	4	-1E+10	1	-1E+10	1	-1E+10	1	-1E+10	1	-1E+10	1	-1E+10	1
4901784	95	C	02/09/2018	10:49	-133.058	43.665	0	565.20	0	4.5640	0	34.1570	4	27.061	0	559.917	0	33.6	4	10.7	4	-1E+10	1	-1E+10	1	-1E+10	1	-1E+10	1	-1E+10	1	-1E+10	1
4901784	95	C	02/09/2018	10:49	-133.058	43.665	0	569.80	0	4.6120	0	34.1710	4	27.066	0	564.467	0	28.7	4	9.2	4	-1E+10	1	-1E+10	1	-1E+10	1	-1E+10	1	-1E+10	1	-1E+10	1
4901784	95	C	02/09/2018	10:49	-133.058	43.665	0	574.40	0	4.7360	0	34.1920	4	27.070	0	569.018	0	25.5	4	8.2	4	-1E+10	1	-1E+10	1	-1E+10	1	-1E+10	1	-1E+10	1	-1E+10	1
4901784	95	C	02/09/2018	10:49	-133.058	43.665	0	579.90	0	4.7440	0	34.2010	4	27.076	0	574.459	0	23.9	4	7.7	4	-1E+10	1	-1E+10	1	-1E+10	1	-1E+10	1	-1E+10	1	-1E+10	1
4901784	95	C	02/09/2018	10:49	-133.058	43.665	0	585.50	0	4.7210	0	34.2090	4	27.085	0	579.999	0	22.8	4	7.3	4	-1E+10	1	-1E+10	1	-1E+10	1	-1E+10	1	-1E+10	1	-1E+10	1
4901784	95	C	02/09/2018	10:49	-133.058	43.665	0	590.10	0	4.7020	0	34.2160	4	27.093	0	584.549	0	22.0	4	7.1	4	-1E+10	1	-1E+10	1	-1E+10	1	-1E+10	1	-1E+10	1	-1E+10	1
4901784	95	C	02/09/2018	10:49	-133.058	43.665	0	594.70	0	4.6880	0	34.2200	4	27.097	0	589.099	0	21.4	4	6.9	4	-1E+10	1	-1E+10	1	-1E+10	1	-1E+10	1	-1E+10	1	-1E+10	1
4901784	95	C	02/09/2018	10:49	-133.058	43.665	0	600.30	0	4.6700	0	34.2260	4	27.104	0	594.638	0	20.8	4	6.7	4	-1E+10	1	-1E+10	1	-1E+10	1	-1E+10	1	-1E+10	1	-1E+10	1
4901784	95	C	02/09/2018	10:49	-133.058	43.665	0	604.90	0	4.6660	0	34.2290	4	27.107	0	599.188	0	20.4	4	6.6	4	-1E+10	1	-1E+10	1	-1E+10	1	-1E+10	1	-1E+10	1	-1E+10	1
4901784	95	C	02/09/2018	10:49	-133.058	43.665	0	609.70	0	4.6630	0	34.2310	4	27.109	0	603.936	0	19.9	4	6.4	4	-1E+10	1	-1E+10	1	-1E+10	1	-1E+10	1	-1E+10	1	-1E+10	1
4901784	95	C	02/09/2018	10:49	-133.058	43.665	0	615.40	0	4.6530	0	34.2360	4	27.114	0	609.574	0	19.3	4	6.2	4	-1E+10	1	-1E+10	1	-1E+10	1	-1E+10	1	-1E+10	1	-1E+10	1
4901784	95	C	02/09/2018	10:49	-133.058	43.665	0	620.10	0	4.6400	0	34.2400	4	27.119	0	614.222	0	18.9	4	6.1	4	-1E+10	1	-1E+10	1	-1E+10	1	-1E+10	1	-1E+10	1	-1E+10	1
4901784	95	C	02/09/2018	10:49	-133.058	43.665	0	624.80	0	4.6320	0	34.2420	4	27.121	0	618.871	0	18.5	4	5.9	4	-1E+10	1	-1E+10	1	-1E+10	1	-1E+10	1	-1E+10	1	-1E+10	1
4901784	95	C	02/09/2018	10:49	-133.058	43.665	0	630.50	0	4.6120	0	34.2470	4	27.127	0	624.508	0	18.0	4	5.8	4	-1E+10	1	-1E+10	1	-1E+10	1	-1E+10	1	-1E+10	1	-1E+10	1
4901784	95	C	02/09/2018	10:49	-133.058	43.665	0	635.30	0	4.6050	0	34.2500	4	27.131	0	629.255	0	17.6	4	5.6	4	-1E+10	1	-1E+10	1	-1E+10	1	-1E+10	1	-1E+10	1	-1E+10	1
4901784	95	C	02/09/2018	10:49	-133.058	43.665	0	639.90	0	4.5900	0	34.2520	4	27.134	0	633.805	0	17.2	4	5.5	4	-1E+10	1	-1E+10	1	-1E+10	1	-1E+10	1	-1E+10	1	-1E+10	1
4901784	95	C	02/09/2018	10:49	-133.058	43.665	0	645.40	0	4.5350	0	34.2590	4	27.145	0	639.244	0	16.8	4	5.4	4	-1E+10	1	-1E+10	1	-1E+10	1	-1E+10	1	-1E+10	1	-1E+10	1
4901784	95	C	02/09/2018	10:49	-133.058	43.665	0	650.10	0	4.5150	0	34.2650	4	27.152	0	643.892	0	16.4	4	5.3	4	-1E+10	1	-1E+10	1	-1E+10	1	-1E+10	1	-1E+10	1	-1E+10	1
4901784	95	C	02/09/2018	10:49	-133.058	43.665	0	654.90	0	4.4860	0	34.2680	4	27.158	0	648.638	0	16.2	4	5.2	4	-1E+10	1	-1E+10	1	-1E+10	1	-1E+10	1	-1E+10	1	-1E+10	1
4901784	95	C	02/09/2018	10:49	-133.058	43.665	0	660.60	0	4.4410	0	34.2720	4	27.166	0	654.275	0	16.1	4	5.2	4	-1E+10	1	-1E+10	1	-1E+10	1	-1E+10	1	-1E+10	1	-1E+10	1
4901784	95	C	02/09/2018	10:49	-133.058	43.665	0	665.30	0	4.4120	0	34.2740	4	27.171	0	658.923	0	16.1	4	5.2	4	-1E+10	1	-1E+10	1	-1E+10	1	-1E+10	1	-1E+10	1	-1E+10	1
4901784	95	C	02/09/2018	10:49	-133.058	43.665	0	670.10	0	4.3950	0	34.2720	4	27.171	0	663.669	0	16.1	4	5.1	4	-1E+10	1	-1E+10	1	-1E+10	1	-1E+10	1	-1E+10	1	-1E+10	1
4901784	95	C	02/09/2018	10:49	-133.058	43.665	0	675.60	0	4.3400	0	34.2770	4	27.181	0	669.107	0	15.6	4	5.0	4	-1E+10	1	-1E+10	1	-1E+10	1	-1E+10	1	-1E+10	1	-1E+10	1
4901784	95	C	02/09/2018	10:49	-133.058	43.665	0	680.50	0	4.3380	0	34.2850	4	27.187	0	673.952	0	15.2	4	4.8	4	-1E+10	1	-1E+10	1	-1E+10	1	-1E+10	1	-1E+10	1	-1E+10	1
4901784	95	C	02/09/2018	10:49	-133.058	43.665	0	685.40	0	4.3190	0	34.2880	4	27.192	0	678.797	0	15.1	4	4.8	4	-1E+10	1	-1E+10	1	-1E+10	1	-1E+10	1	-1E+10	1	-1E+10	1
4901784	95	C	02/09/2018	10:49	-133.058	43.665	0	690.40	0	4.3010	0	34.2900	4	27.195	0	683.741	0	15.0	4	4.8	4	-1E+10	1	-1E+10	1	-1E+10	1	-1E+10	1	-1E+10	1	-1E+10	1
4901784	95	C	02/09/2018	10:49	-133.058	43.665	0	695.40	0	4.2910	0	34.2900	4	27.197	0	688.684	0	15.0	4	4.8	4	-1E+10	1	-1E+10	1	-1E+10	1	-1E+10	1	-1E+10	1	-1E+10	1
4901784	95	C	02/09/2018	10:49	-133.058	43.665	0	700.50	0	4.2720	0	34.2910	4	27.199	0	693.727	0	14.8	4	4.7	4	-1E+10	1	-1E+10	1	-1E+10	1	-1E+10	1	-1E+10	1	-1E+10	1
4901784	95	C	02/09/2018	10:49	-133.058	43.665	0	705.50	0	4.2450	0	34.2940	4	27.205	0	698.670	0	14.7	4	4.7	4	-1E+10	1	-1E+10	1	-1E+10	1	-1E+10	1	-1E+10	1	-1E+10	1
4901784	95	C	02/09/2018	10:49	-133.058	43.665	0	710.60	0	4.2120	0	34.2960	4	27.210	0	703.712	0	14.6	4	4.6	4	-1E+10	1	-1E+10	1	-1E+10	1	-1E+10	1	-1E+10	1	-1E+10	1
4901784	95	C	02/09/2018	10:49	-133.058	43.665	0	715.70	0	4.1810	0	34.2990	4	27.215	0	708.754	0	14.5	4	4.6	4	-1E+10	1	-1E+10	1	-1E+10	1	-1E+10	1	-1E+10	1	-1E+10	1
4901784	95	C	02/09/2018	10:49	-133.058	43.665	0	720.10	0	4.1730	0	34.3000	4	27.217	0	713.104	0	14.5	4	4.6	4	-1E+10	1	-1E+10	1	-1E+10	1	-1E+10	1	-1E+10	1	-1E+10	1
4901784	95	C	02/09/2018	10:49	-133.058	43.665	0	724.50	0	4.1610	0	34.2990	4	27.218	0	717.453	0	14.4	4	4.6	4	-1E+10	1	-1E+10	1	-1E+10	1	-1E+10	1	-1E+10	1	-1E+10	1
4901784	95	C	02/09/2018	10:49	-133.058	43.665	0	729.80	0	4.1280	0	34.3030	4	27.224	0	722.693	0	14.3	4	4.5	4	-1E+10	1	-1E+10	1	-1E+10	1	-1E+10	1	-1E+10	1	-1E+10	1
4901784	95	C	02/09/2018	10:49	-133.058	43.665	0	735.10	0	4.0810	0	34.3040	4	27.230	0	727.932	0	14.2	4	4.5	4	-1E+10	1	-1E+10	1	-1E+10	1	-1E+10	1	-1E+10	1	-1E+10	1
4901784	95	C	02/09/2018	10:49	-133.058	43.665	0	740.30	0	4.0500	0	34.3070	4	27.235	0	733.072	0	13.9	4	4.4	4	-1E+10	1	-1E+10	1	-1E+10	1	-1E+10	1	-1E+10	1	-1E+10	1
4901784	95	C	02/09/2018	10:49	-133.058	43.665	0	745.20	0	4.0070	0	34.3150	4	27.246	0	737.915	0	13.6	4	4.3	4	-1E+10	1	-1E+10	1	-1E+10	1	-1E+10	1	-1E+10	1	-1E+10	1
4901784	95	C	02/09/2018	10:49	-133.058	43.665	0	750.60	0	3.9940	0	34.3180	4	27.250	0	743.253	0	13.4	4	4.2	4	-1E+10	1	-1E+10	1	-1E+10	1	-1E+10	1	-1E+10	1	-1E+10	1
4901784	95	C	02/09/2018	10:49	-133.058	43.665	0	755.30	0	3.9770	0	34.3250	4	27.257	0	747.898	0	13.2	4	4.2	4	-1E+10	1	-1E+10	1	-1E+10	1	-1E+10	1	-1E+10	1	-1E+10	1
4901784	95	C	02/09/2018	10:49	-133.058	43.665	0	760.20	0	3.9760	0	34.3260	4	27.258	0	752.742	0	12.9	4	4.1	4	-1E+10	1	-1E+10	1	-1E+10	1	-1E+10	1	-1E+10	1	-1E+10	1
4901784	95	C	02/09/2018	10:49	-133.058	43.665	0	765.20	0	3.9750	0	34.3310	4	27.262	0	757.684	0	12.5	4	3.9	4	-1E+10	1	-1E+10	1	-1E+10	1	-1E+10	1	-1E+10	1	-1E+10	1
4901784	95	C	02/09/2018	10:49	-133.058	43.665	0	770.10	0	3.9810	0	34.3420	4	27.271	0	762.526	0	12.1	4	3.8	4	-1E+10	1	-1E+10	1	-1E+10	1	-1E+10	1	-1E+10	1	-1E+10	1
4901784	95	C	02/09/2018	10:49	-133.058	43.665	0	775.20	0	3.9720	0	34.3470	4	27.276	0	767.567	0	11.9	4	3.7	4	-1E+10	1	-1E+10	1	-1E+10	1	-1E+10	1	-1E+10	1	-1E+10	1
4901784	95	C	02/09/2018	10:49	-133.058	43.665	0	780.40	0	3.9640	0	34.3540	4	27.282	0	772.706	0	11.7	4	3.7	4	-1E+10	1	-1E+10	1	-1E+10	1	-1E+10	1	-1E+10	1	-1E+10	1
4901784	95	C	02/09/2018	10:49	-133.058	43.665	0	785.60	0	3.9610	0	34.3580	4	27.285	0	777.845	0	11.5	4	3.6	4	-1E+10	1	-1E+10	1	-1E+10	1	-1E+10	1	-1E+10	1	-1E+10	1
4901784	95	C	02/09/2018	10:49	-133.058	43.665	0	789.90	0	3.9470	0	34.3600	4	27.289	0	782.095	0	11.4	4	3.6	4	-1E+10	1	-1E+10	1	-1E+10	1	-1E+10	1	-1E+10	1	-1E+10	1
4901784	95	C	02/09/2018	10:49	-133.058	43.665	0	794.40	0	3.9470	0	34.3640	4	27.292	0	786.542	0	11.3	4	3.6	4	-1E+10	1	-1E+10	1	-1E+10	1	-1E+10	1	-1E+10	1	-1E+10	1
4901784	95	C	02/09/2018	10:49	-133.058	43.665	0	799.70	0	3.9420	0	34.3680	4	27.295	0	791.779	0	11.2	4	3.5	4	-1E+10	1	-1E+10	1	-1E+10	1	-1E+10	1	-1E+10	1	-1E+10	1
4901784	95	C	02/09/2018	10:49	-133.058	43.665	0	805.20	0	3.9420	0	34.3730	4	27.299	0	797.214	0	11.1	4	3.5	4	-1E+10	1	-1E+10	1	-1E+10	1	-1E+10	1	-1E+10	1	-1E+10	1
4901784	95	C	02/09/2018	10:49	-133.058	43.665	0	809.80	0	3.9390	0	34.3740	4	27.301	0	801.760	0	11.0	4	3.5	4	-1E+10	1	-1E+10	1	-1E+10	1	-1E+10	1	-1E+10	1	-1E+10	1
4901784	95	C	02/09/2018	10:49	-133.058	43.665	0	814.40	0	3.9350	0	34.3770	4	27.303	0	806.305	0	10.9	4	3.4	4	-1E+10	1	-1E+10	1	-1E+10	1	-1E+10	1	-1E+10	1	-1E+10	1
4901784	95	C	02/09/2018	10:49	-133.058	43.665	0	819.90	0	3.9170	0	34.3820	4	27.309	0	811.740	0	10.9	4	3.4	4	-1E+10	1	-1E+10	1	-1E+10	1	-1E+10	1	-1E+10	1	-1E+10	1
4901784	95	C	02/09/2018	10:49	-133.058	43.665	0	824.80	0	3.9100	0	34.3820	4	27.310	0	816.582	0	10.8	4	3.4	4	-1E+10	1	-1E+10	1	-1E+10	1	-1E+10	1	-1E+10	1	-1E+10	1
4901784	95	C	02/09/2018	10:49	-133.058	43.665	0	830.00	0	3.9070	0	34.3860	4	27.314	0	821.720	0	10.7	4	3.4	4	-1E+10	1	-1E+10	1	-1E+10	1	-1E+10	1	-1E+10	1	-1E+10	1
4901784	95	C	02/09/2018	10:49	-133.058	43.665	0	835.60	0	3.9170	0	34.3930	4	27.318	0	827.253	0	10.6	4	3.3	4	-1E+10	1	-1E+10	1	-1E+10	1	-1E+10	1	-1E+10	1	-1E+10	1
4901784	95	C	02/09/2018	10:49	-133.058	43.665	0	840.30	0	3.9240	0	34.3960	4	27.320	0	831.896	0	10.6	4	3.3	4	-1E+10	1	-1E+10	1	-1E+10	1	-1E+10	1	-1E+10	1	-1E+10	1
4901784	95	C	02/09/2018	10:49	-133.058	43.665	0	845.10	0	3.8970	0	34.3950	4	27.322	0	836.639	0	10.6	4	3.3	4	-1E+10	1	-1E+10	1	-1E+10	1	-1E+10	1	-1E+10	1	-1E+10	1
4901784	95	C	02/09/2018	10:49	-133.058	43.665	0	849.90	0	3.8800	0	34.3990	4	27.327	0	841.381	0	10.5	4	3.3	4	-1E+10	1	-1E+10	1	-1E+10	1	-1E+10	1	-1E+10	1	-1E+10	1
4901784	95	C	02/09/2018	10:49	-133.058	43.665	0	854.80	0	3.8940	0	34.4030	4	27.329	0	846.222	0	10.4	4	3.3	4	-1E+10	1	-1E+10	1	-1E+10	1	-1E+10	1	-1E+10	1	-1E+10	1
4901784	95	C	02/09/2018	10:49	-133.058	43.665	0	859.80	0	3.8940	0	34.4090	4	27.333	0	851.162	0	10.4	4	3.3	4	-1E+10	1	-1E+10	1	-1E+10	1	-1E+10	1	-1E+10	1	-1E+10	1
4901784	95	C	02/09/2018	10:49	-133.058	43.665	0	864.80	0	3.8800	0	34.4130	4	27.338	0	856.101	0	10.4	4	3.3	4	-1E+10	1	-1E+10	1	-1E+10	1	-1E+10	1	-1E+10	1	-1E+10	1
4901784	95	C	02/09/2018	10:49	-133.058	43.665	0	869.80	0	3.8630	0	34.4130	4	27.340	0	861.041	0	10.4	4	3.3	4	-1E+10	1	-1E+10	1	-1E+10	1	-1E+10	1	-1E+10	1	-1E+10	1
4901784	95	C	02/09/2018	10:49	-133.058	43.665	0	874.80	0	3.8450	0	34.4160	4	27.344	0	865.980	0	10.4	4	3.3	4	-1E+10	1	-1E+10	1	-1E+10	1	-1E+10	1	-1E+10	1	-1E+10	1
4901784	95	C	02/09/2018	10:49	-133.058	43.665	0	879.90	0	3.8410	0	34.4200	4	27.348	0	871.018	0	10.4	4	3.3	4	-1E+10	1	-1E+10	1	-1E+10	1	-1E+10	1	-1E+10	1	-1E+10	1
4901784	95	C	02/09/2018	10:49	-133.058	43.665	0	884.90	0	3.8360	0	34.4220	4	27.350	0	875.957	0	10.5	4	3.3	4	-1E+10	1	-1E+10	1	-1E+10	1	-1E+10	1	-1E+10	1	-1E+10	1
4901784	95	C	02/09/2018	10:49	-133.058	43.665	0	889.90	0	3.8200	0	34.4240	4	27.353	0	880.896	0	10.5	4	3.3	4	-1E+10	1	-1E+10	1	-1E+10	1	-1E+10	1	-1E+10	1	-1E+10	1
4901784	95	C	02/09/2018	10:49	-133.058	43.665	0	894.90	0	3.8060	0	34.4270	4	27.357	0	885.835	0	10.5	4	3.3	4	-1E+10	1	-1E+10	1	-1E+10	1	-1E+10	1	-1E+10	1	-1E+10	1
4901784	95	C	02/09/2018	10:49	-133.058	43.665	0	899.90	0	3.7970	0	34.4270	4	27.358	0	890.773	0	10.5	4	3.3	4	-1E+10	1	-1E+10	1	-1E+10	1	-1E+10	1	-1E+10	1	-1E+10	1
4901784	95	C	02/09/2018	10:49	-133.058	43.665	0	905.00	0	3.7800	0	34.4300	4	27.362	0	895.811	0	10.5	4	3.3	4	-1E+10	1	-1E+10	1	-1E+10	1	-1E+10	1	-1E+10	1	-1E+10	1
4901784	95	C	02/09/2018	10:49	-133.058	43.665	0	910.00	0	3.7590	0	34.4320	4	27.366	0	900.749	0	10.6	4	3.3	4	-1E+10	1	-1E+10	1	-1E+10	1	-1E+10	1	-1E+10	1	-1E+10	1
4901784	95	C	02/09/2018	10:49	-133.058	43.665	0	915.00	0	3.7520	0	34.4370	4	27.370	0	905.688	0	10.6	4	3.3	4	-1E+10	1	-1E+10	1	-1E+10	1	-1E+10	1	-1E+10	1	-1E+10	1
4901784	95	C	02/09/2018	10:49	-133.058	43.665	0	920.10	0	3.7460	0	34.4380	4	27.372	0	910.725	0	10.6	4	3.3	4	-1E+10	1	-1E+10	1	-1E+10	1	-1E+10	1	-1E+10	1	-1E+10	1
4901784	95	C	02/09/2018	10:49	-133.058	43.665	0	925.20	0	3.7300	0	34.4410	4	27.376	0	915.761	0	10.6	4	3.3	4	-1E+10	1	-1E+10	1	-1E+10	1	-1E+10	1	-1E+10	1	-1E+10	1
4901784	95	C	02/09/2018	10:49	-133.058	43.665	0	930.40	0	3.7150	0	34.4430	4	27.379	0	920.897	0	10.7	4	3.3	4	-1E+10	1	-1E+10	1	-1E+10	1	-1E+10	1	-1E+10	1	-1E+10	1
4901784	95	C	02/09/2018	10:49	-133.058	43.665	0	935.50	0	3.6940	0	34.4440	4	27.382	0	925.934	0	10.7	4	3.4	4	-1E+10	1	-1E+10	1	-1E+10	1	-1E+10	1	-1E+10	1	-1E+10	1
4901784	95	C	02/09/2018	10:49	-133.058	43.665	0	940.60	0	3.6630	0	34.4460	4	27.386	0	930.970	0	10.9	4	3.4	4	-1E+10	1	-1E+10	1	-1E+10	1	-1E+10	1	-1E+10	1	-1E+10	1
4901784	95	C	02/09/2018	10:49	-133.058	43.665	0	945.70	0	3.6410	0	34.4460	4	27.389	0	936.007	0	10.9	4	3.4	4	-1E+10	1	-1E+10	1	-1E+10	1	-1E+10	1	-1E+10	1	-1E+10	1
4901784	95	C	02/09/2018	10:49	-133.058	43.665	0	950.80	0	3.6260	0	34.4470	4	27.391	0	941.043	0	11.0	4	3.4	4	-1E+10	1	-1E+10	1	-1E+10	1	-1E+10	1	-1E+10	1	-1E+10	1
4901784	95	C	02/09/2018	10:49	-133.058	43.665	0	955.80	0	3.6090	0	34.4490	4	27.394	0	945.980	0	11.0	4	3.5	4	-1E+10	1	-1E+10	1	-1E+10	1	-1E+10	1	-1E+10	1	-1E+10	1
4901784	95	C	02/09/2018	10:49	-133.058	43.665	0	960.80	0	3.5600	0	34.4460	4	27.397	0	950.917	0	11.1	4	3.5	4	-1E+10	1	-1E+10	1	-1E+10	1	-1E+10	1	-1E+10	1	-1E+10	1
4901784	95	C	02/09/2018	10:49	-133.058	43.665	0	965.80	0	3.5220	0	34.4450	4	27.400	0	955.855	0	11.2	4	3.5	4	-1E+10	1	-1E+10	1	-1E+10	1	-1E+10	1	-1E+10	1	-1E+10	1
4901784	95	C	02/09/2018	10:49	-133.058	43.665	0	970.80	0	3.5060	0	34.4480	4	27.404	0	960.792	0	11.3	4	3.5	4	-1E+10	1	-1E+10	1	-1E+10	1	-1E+10	1	-1E+10	1	-1E+10	1
4901784	95	C	02/09/2018	10:49	-133.058	43.665	0	975.70	0	3.4930	0	34.4500	4	27.406	0	965.630	0	11.3	4	3.5	4	-1E+10	1	-1E+10	1	-1E+10	1	-1E+10	1	-1E+10	1	-1E+10	1
4901784	95	C	02/09/2018	10:49	-133.058	43.665	0	980.80	0	3.4780	0	34.4530	4	27.410	0	970.665	0	11.4	4	3.6	4	-1E+10	1	-1E+10	1	-1E+10	1	-1E+10	1	-1E+10	1	-1E+10	1
4901784	95	C	02/09/2018	10:49	-133.058	43.665	0	985.00	0	3.4710	0	34.4570	4	27.414	0	974.812	0	11.4	4	3.6	4	-1E+10	1	-1E+10	1	-1E+10	1	-1E+10	1	-1E+10	1	-1E+10	1
4901784	95	C	02/09/2018	10:49	-133.058	43.665	0	989.30	0	3.4590	0	34.4590	4	27.417	0	979.058	0	11.5	4	3.6	4	-1E+10	1	-1E+10	1	-1E+10	1	-1E+10	1	-1E+10	1	-1E+10	1
4901784	95	C	02/09/2018	10:49	-133.058	43.665	0	994.30	0	3.4430	0	34.4600	4	27.419	0	983.994	0	11.6	4	3.6	4	-1E+10	1	-1E+10	1	-1E+10	1	-1E+10	1	-1E+10	1	-1E+10	1
4901784	95	C	02/09/2018	10:49	-133.058	43.665	0	999.50	0	3.4250	0	34.4630	4	27.423	0	989.128	0	11.6	4	3.6	4	-1E+10	1	-1E+10	1	-1E+10	1	-1E+10	1	-1E+10	1	-1E+10	1
4901784	95	C	02/09/2018	10:49	-133.058	43.665	0	1004.50	0	3.4180	0	34.4660	4	27.426	0	994.064	0	11.7	4	3.7	4	-1E+10	1	-1E+10	1	-1E+10	1	-1E+10	1	-1E+10	1	-1E+10	1
4901784	95	C	02/09/2018	10:49	-133.058	43.665	0	1009.50	0	3.4120	0	34.4680	4	27.429	0	999.000	0	11.8	4	3.7	4	-1E+10	1	-1E+10	1	-1E+10	1	-1E+10	1	-1E+10	1	-1E+10	1
4901784	95	C	02/09/2018	10:49	-133.058	43.665	0	1014.50	0	3.4030	0	34.4700	4	27.431	0	1003.937	0	11.9	4	3.7	4	-1E+10	1	-1E+10	1	-1E+10	1	-1E+10	1	-1E+10	1	-1E+10	1
4901784	95	C	02/09/2018	10:49	-133.058	43.665	0	1019.50	0	3.3890	0	34.4730	4	27.435	0	1008.872	0	12.0	4	3.7	4	-1E+10	1	-1E+10	1	-1E+10	1	-1E+10	1	-1E+10	1	-1E+10	1
4901784	95	C	02/09/2018	10:49	-133.058	43.665	0	1024.40	0	3.3690	0	34.4760	4	27.439	0	1013.710	0	12.2	4	3.8	4	-1E+10	1	-1E+10	1	-1E+10	1	-1E+10	1	-1E+10	1	-1E+10	1
4901784	95	C	02/09/2018	10:49	-133.058	43.665	0	1029.50	0	3.3530	0	34.4800	4	27.444	0	1018.744	0	12.3	4	3.8	4	-1E+10	1	-1E+10	1	-1E+10	1	-1E+10	1	-1E+10	1	-1E+10	1
4901784	95	C	02/09/2018	10:49	-133.058	43.665	0	1034.50	0	3.3520	0	34.4800	4	27.444	0	1023.679	0	12.4	4	3.8	4	-1E+10	1	-1E+10	1	-1E+10	1	-1E+10	1	-1E+10	1	-1E+10	1
4901784	95	C	02/09/2018	10:49	-133.058	43.665	0	1039.60	0	3.3460	0	34.4820	4	27.446	0	1028.714	0	12.5	4	3.9	4	-1E+10	1	-1E+10	1	-1E+10	1	-1E+10	1	-1E+10	1	-1E+10	1
4901784	95	C	02/09/2018	10:49	-133.058	43.665	0	1044.70	0	3.3380	0	34.4840	4	27.449	0	1033.748	0	12.7	4	4.0	4	-1E+10	1	-1E+10	1	-1E+10	1	-1E+10	1	-1E+10	1	-1E+10	1
4901784	95	C	02/09/2018	10:49	-133.058	43.665	0	1049.80	0	3.3280	0	34.4870	4	27.452	0	1038.782	0	12.9	4	4.0	4	-1E+10	1	-1E+10	1	-1E+10	1	-1E+10	1	-1E+10	1	-1E+10	1
4901784	95	C	02/09/2018	10:49	-133.058	43.665	0	1054.90	0	3.3180	0	34.4900	4	27.455	0	1043.815	0	13.0	4	4.1	4	-1E+10	1	-1E+10	1	-1E+10	1	-1E+10	1	-1E+10	1	-1E+10	1
4901784	95	C	02/09/2018	10:49	-133.058	43.665	0	1059.90	0	3.3110	0	34.4910	4	27.457	0	1048.750	0	13.1	4	4.1	4	-1E+10	1	-1E+10	1	-1E+10	1	-1E+10	1	-1E+10	1	-1E+10	1
4901784	95	C	02/09/2018	10:49	-133.058	43.665	0	1065.00	0	3.3030	0	34.4930	4	27.459	0	1053.784	0	13.2	4	4.1	4	-1E+10	1	-1E+10	1	-1E+10	1	-1E+10	1	-1E+10	1	-1E+10	1
4901784	95	C	02/09/2018	10:49	-133.058	43.665	0	1070.00	0	3.2960	0	34.4950	4	27.462	0	1058.719	0	13.3	4	4.1	4	-1E+10	1	-1E+10	1	-1E+10	1	-1E+10	1	-1E+10	1	-1E+10	1
4901784	95	C	02/09/2018	10:49	-133.058	43.665	0	1075.10	0	3.2870	0	34.4970	4	27.464	0	1063.752	0	13.4	4	4.2	4	-1E+10	1	-1E+10	1	-1E+10	1	-1E+10	1	-1E+10	1	-1E+10	1
4901784	95	C	02/09/2018	10:49	-133.058	43.665	0	1080.20	0	3.2810	0	34.4980	4	27.465	0	1068.785	0	13.5	4	4.2	4	-1E+10	1	-1E+10	1	-1E+10	1	-1E+10	1	-1E+10	1	-1E+10	1
4901784	95	C	02/09/2018	10:49	-133.058	43.665	0	1085.40	0	3.2810	0	34.4990	4	27.466	0	1073.917	0	13.7	4	4.2	4	-1E+10	1	-1E+10	1	-1E+10	1	-1E+10	1	-1E+10	1	-1E+10	1
4901784	95	C	02/09/2018	10:49	-133.058	43.665	0	1090.50	0	3.2710	0	34.5010	4	27.469	0	1078.950	0	13.8	4	4.3	4	-1E+10	1	-1E+10	1	-1E+10	1	-1E+10	1	-1E+10	1	-1E+10	1
4901784	95	C	02/09/2018	10:49	-133.058	43.665	0	1095.60	0	3.2680	0	34.5020	4	27.470	0	1083.983	0	13.9	4	4.3	4	-1E+10	1	-1E+10	1	-1E+10	1	-1E+10	1	-1E+10	1	-1E+10	1
4901784	95	C	02/09/2018	10:49	-133.058	43.665	0	1099.90	0	3.2660	0	34.5020	4	27.470	0	1088.226	0	14.1	4	4.4	4	-1E+10	1	-1E+10	1	-1E+10	1	-1E+10	1	-1E+10	1	-1E+10	1
4901784	95	C	02/09/2018	10:49	-133.058	43.665	0	1104.20	0	3.2580	0	34.5050	4	27.473	0	1092.469	0	14.3	4	4.5	4	-1E+10	1	-1E+10	1	-1E+10	1	-1E+10	1	-1E+10	1	-1E+10	1
4901784	95	C	02/09/2018	10:49	-133.058	43.665	0	1109.40	0	3.2510	0	34.5070	4	27.476	0	1097.600	0	14.5	4	4.5	4	-1E+10	1	-1E+10	1	-1E+10	1	-1E+10	1	-1E+10	1	-1E+10	1
4901784	95	C	02/09/2018	10:49	-133.058	43.665	0	1114.50	0	3.2300	0	34.5110	4	27.481	0	1102.633	0	14.6	4	4.5	4	-1E+10	1	-1E+10	1	-1E+10	1	-1E+10	1	-1E+10	1	-1E+10	1
4901784	95	C	02/09/2018	10:49	-133.058	43.665	0	1119.70	0	3.2170	0	34.5130	4	27.484	0	1107.763	0	14.7	4	4.6	4	-1E+10	1	-1E+10	1	-1E+10	1	-1E+10	1	-1E+10	1	-1E+10	1
4901784	95	C	02/09/2018	10:49	-133.058	43.665	0	1124.90	0	3.2090	0	34.5140	4	27.485	0	1112.894	0	14.8	4	4.6	4	-1E+10	1	-1E+10	1	-1E+10	1	-1E+10	1	-1E+10	1	-1E+10	1
4901784	95	C	02/09/2018	10:49	-133.058	43.665	0	1130.10	0	3.2030	0	34.5150	4	27.487	0	1118.025	0	15.0	4	4.7	4	-1E+10	1	-1E+10	1	-1E+10	1	-1E+10	1	-1E+10	1	-1E+10	1
4901784	95	C	02/09/2018	10:49	-133.058	43.665	0	1135.40	0	3.1960	0	34.5170	4	27.489	0	1123.254	0	15.2	4	4.7	4	-1E+10	1	-1E+10	1	-1E+10	1	-1E+10	1	-1E+10	1	-1E+10	1
4901784	95	C	02/09/2018	10:49	-133.058	43.665	0	1140.60	0	3.1850	0	34.5180	4	27.491	0	1128.385	0	15.3	4	4.7	4	-1E+10	1	-1E+10	1	-1E+10	1	-1E+10	1	-1E+10	1	-1E+10	1
4901784	95	C	02/09/2018	10:49	-133.058	43.665	0	1145.00	0	3.1770	0	34.5200	4	27.493	0	1132.726	0	15.4	4	4.8	4	-1E+10	1	-1E+10	1	-1E+10	1	-1E+10	1	-1E+10	1	-1E+10	1
4901784	95	C	02/09/2018	10:49	-133.058	43.665	0	1149.50	0	3.1610	0	34.5220	4	27.496	0	1137.165	0	15.6	4	4.8	4	-1E+10	1	-1E+10	1	-1E+10	1	-1E+10	1	-1E+10	1	-1E+10	1
4901784	95	C	02/09/2018	10:49	-133.058	43.665	0	1154.90	0	3.1500	0	34.5240	4	27.499	0	1142.493	0	15.7	4	4.9	4	-1E+10	1	-1E+10	1	-1E+10	1	-1E+10	1	-1E+10	1	-1E+10	1
4901784	95	C	02/09/2018	10:49	-133.058	43.665	0	1160.40	0	3.1450	0	34.5250	4	27.500	0	1147.918	0	15.8	4	4.9	4	-1E+10	1	-1E+10	1	-1E+10	1	-1E+10	1	-1E+10	1	-1E+10	1
4901784	95	C	02/09/2018	10:49	-133.058	43.665	0	1164.90	0	3.1410	0	34.5250	4	27.501	0	1152.358	0	15.9	4	4.9	4	-1E+10	1	-1E+10	1	-1E+10	1	-1E+10	1	-1E+10	1	-1E+10	1
4901784	95	C	02/09/2018	10:49	-133.058	43.665	0	1169.70	0	3.1230	0	34.5280	4	27.505	0	1157.093	0	16.1	4	5.0	4	-1E+10	1	-1E+10	1	-1E+10	1	-1E+10	1	-1E+10	1	-1E+10	1
4901784	95	C	02/09/2018	10:49	-133.058	43.665	0	1174.80	0	3.1050	0	34.5300	4	27.508	0	1162.124	0	16.2	4	5.0	4	-1E+10	1	-1E+10	1	-1E+10	1	-1E+10	1	-1E+10	1	-1E+10	1
4901784	95	C	02/09/2018	10:49	-133.058	43.665	0	1179.60	0	3.0940	0	34.5320	4	27.511	0	1166.859	0	16.3	4	5.0	4	-1E+10	1	-1E+10	1	-1E+10	1	-1E+10	1	-1E+10	1	-1E+10	1
4901784	95	C	02/09/2018	10:49	-133.058	43.665	0	1184.50	0	3.0860	0	34.5330	4	27.512	0	1171.692	0	16.4	4	5.1	4	-1E+10	1	-1E+10	1	-1E+10	1	-1E+10	1	-1E+10	1	-1E+10	1
4901784	95	C	02/09/2018	10:49	-133.058	43.665	0	1189.40	0	3.0790	0	34.5330	4	27.513	0	1176.525	0	16.6	4	5.1	4	-1E+10	1	-1E+10	1	-1E+10	1	-1E+10	1	-1E+10	1	-1E+10	1
4901784	95	C	02/09/2018	10:49	-133.058	43.665	0	1194.30	0	3.0620	0	34.5360	4	27.517	0	1181.359	0	16.7	4	5.2	4	-1E+10	1	-1E+10	1	-1E+10	1	-1E+10	1	-1E+10	1	-1E+10	1
4901784	95	C	02/09/2018	10:49	-133.058	43.665	0	1200.00	0	3.0590	0	34.5370	4	27.518	0	1186.981	0	16.8	4	5.2	4	-1E+10	1	-1E+10	1	-1E+10	1	-1E+10	1	-1E+10	1	-1E+10	1
4901784	95	C	02/09/2018	10:49	-133.058	43.665	0	1205.80	0	3.0560	0	34.5380	4	27.519	0	1192.701	0	16.9	4	5.2	4	-1E+10	1	-1E+10	1	-1E+10	1	-1E+10	1	-1E+10	1	-1E+10	1
4901784	95	C	02/09/2018	10:49	-133.058	43.665	0	1210.70	0	3.0470	0	34.5380	4	27.520	0	1197.534	0	17.0	4	5.3	4	-1E+10	1	-1E+10	1	-1E+10	1	-1E+10	1	-1E+10	1	-1E+10	1
4901784	95	C	02/09/2018	10:49	-133.058	43.665	0	1215.70	0	3.0310	0	34.5400	4	27.523	0	1202.466	0	17.1	4	5.3	4	-1E+10	1	-1E+10	1	-1E+10	1	-1E+10	1	-1E+10	1	-1E+10	1
4901784	95	C	02/09/2018	10:49	-133.058	43.665	0	1220.00	0	3.0250	0	34.5410	4	27.524	0	1206.706	0	17.3	4	5.3	4	-1E+10	1	-1E+10	1	-1E+10	1	-1E+10	1	-1E+10	1	-1E+10	1
4901784	95	C	02/09/2018	10:49	-133.058	43.665	0	1224.20	0	3.0180	0	34.5420	4	27.526	0	1210.849	0	17.3	4	5.4	4	-1E+10	1	-1E+10	1	-1E+10	1	-1E+10	1	-1E+10	1	-1E+10	1
4901784	95	C	02/09/2018	10:49	-133.058	43.665	0	1229.40	0	3.0120	0	34.5430	4	27.527	0	1215.977	0	17.4	4	5.4	4	-1E+10	1	-1E+10	1	-1E+10	1	-1E+10	1	-1E+10	1	-1E+10	1
4901784	95	C	02/09/2018	10:49	-133.058	43.665	0	1234.50	0	3.0060	0	34.5440	4	27.528	0	1221.006	0	17.5	4	5.4	4	-1E+10	1	-1E+10	1	-1E+10	1	-1E+10	1	-1E+10	1	-1E+10	1
4901784	95	C	02/09/2018	10:49	-133.058	43.665	0	1239.70	0	2.9960	0	34.5440	4	27.529	0	1226.134	0	17.7	4	5.5	4	-1E+10	1	-1E+10	1	-1E+10	1	-1E+10	1	-1E+10	1	-1E+10	1
4901784	95	C	02/09/2018	10:49	-133.058	43.665	0	1245.00	0	2.9880	0	34.5470	4	27.533	0	1231.361	0	17.9	4	5.5	4	-1E+10	1	-1E+10	1	-1E+10	1	-1E+10	1	-1E+10	1	-1E+10	1
4901784	95	C	02/09/2018	10:49	-133.058	43.665	0	1250.20	0	2.9850	0	34.5470	4	27.533	0	1236.489	0	18.0	4	5.6	4	-1E+10	1	-1E+10	1	-1E+10	1	-1E+10	1	-1E+10	1	-1E+10	1
4901784	95	C	02/09/2018	10:49	-133.058	43.665	0	1255.40	0	2.9760	0	34.5490	4	27.535	0	1241.616	0	18.2	4	5.6	4	-1E+10	1	-1E+10	1	-1E+10	1	-1E+10	1	-1E+10	1	-1E+10	1
4901784	95	C	02/09/2018	10:49	-133.058	43.665	0	1260.70	0	2.9660	0	34.5500	4	27.537	0	1246.842	0	18.4	4	5.7	4	-1E+10	1	-1E+10	1	-1E+10	1	-1E+10	1	-1E+10	1	-1E+10	1
4901784	95	C	02/09/2018	10:49	-133.058	43.665	0	1265.20	0	2.9610	0	34.5510	4	27.538	0	1251.280	0	18.6	4	5.7	4	-1E+10	1	-1E+10	1	-1E+10	1	-1E+10	1	-1E+10	1	-1E+10	1
4901784	95	C	02/09/2018	10:49	-133.058	43.665	0	1269.60	0	2.9590	0	34.5520	4	27.539	0	1255.618	0	18.7	4	5.8	4	-1E+10	1	-1E+10	1	-1E+10	1	-1E+10	1	-1E+10	1	-1E+10	1
4901784	95	C	02/09/2018	10:49	-133.058	43.665	0	1274.90	0	2.9550	0	34.5530	4	27.540	0	1260.844	0	19.0	4	5.9	4	-1E+10	1	-1E+10	1	-1E+10	1	-1E+10	1	-1E+10	1	-1E+10	1
4901784	95	C	02/09/2018	10:49	-133.058	43.665	0	1280.30	0	2.9400	0	34.5550	4	27.543	0	1266.168	0	19.3	4	6.0	4	-1E+10	1	-1E+10	1	-1E+10	1	-1E+10	1	-1E+10	1	-1E+10	1
4901784	95	C	02/09/2018	10:49	-133.058	43.665	0	1284.90	0	2.9270	0	34.5570	4	27.546	0	1270.703	0	19.6	4	6.0	4	-1E+10	1	-1E+10	1	-1E+10	1	-1E+10	1	-1E+10	1	-1E+10	1
4901784	95	C	02/09/2018	10:49	-133.058	43.665	0	1289.60	0	2.9210	0	34.5580	4	27.548	0	1275.337	0	19.8	4	6.1	4	-1E+10	1	-1E+10	1	-1E+10	1	-1E+10	1	-1E+10	1	-1E+10	1
4901784	95	C	02/09/2018	10:49	-133.058	43.665	0	1295.10	0	2.9040	0	34.5610	4	27.552	0	1280.760	0	20.0	4	6.2	4	-1E+10	1	-1E+10	1	-1E+10	1	-1E+10	1	-1E+10	1	-1E+10	1
4901784	95	C	02/09/2018	10:49	-133.058	43.665	0	1300.50	0	2.8920	0	34.5630	4	27.554	0	1286.083	0	20.3	4	6.2	4	-1E+10	1	-1E+10	1	-1E+10	1	-1E+10	1	-1E+10	1	-1E+10	1
4901784	95	C	02/09/2018	10:49	-133.058	43.665	0	1305.50	0	2.8880	0	34.5630	4	27.555	0	1291.013	0	20.5	4	6.3	4	-1E+10	1	-1E+10	1	-1E+10	1	-1E+10	1	-1E+10	1	-1E+10	1
4901784	95	C	02/09/2018	10:49	-133.058	43.665	0	1310.50	0	2.8760	0	34.5650	4	27.557	0	1295.942	0	20.7	4	6.4	4	-1E+10	1	-1E+10	1	-1E+10	1	-1E+10	1	-1E+10	1	-1E+10	1
4901784	95	C	02/09/2018	10:49	-133.058	43.665	0	1315.50	0	2.8650	0	34.5670	4	27.560	0	1300.871	0	20.9	4	6.4	4	-1E+10	1	-1E+10	1	-1E+10	1	-1E+10	1	-1E+10	1	-1E+10	1
4901784	95	C	02/09/2018	10:49	-133.058	43.665	0	1320.60	0	2.8600	0	34.5670	4	27.560	0	1305.898	0	21.1	4	6.5	4	-1E+10	1	-1E+10	1	-1E+10	1	-1E+10	1	-1E+10	1	-1E+10	1
4901784	95	C	02/09/2018	10:49	-133.058	43.665	0	1325.70	0	2.8560	0	34.5680	4	27.562	0	1310.926	0	21.2	4	6.5	4	-1E+10	1	-1E+10	1	-1E+10	1	-1E+10	1	-1E+10	1	-1E+10	1
4901784	95	C	02/09/2018	10:49	-133.058	43.665	0	1330.80	0	2.8460	0	34.5690	4	27.563	0	1315.953	0	21.4	4	6.6	4	-1E+10	1	-1E+10	1	-1E+10	1	-1E+10	1	-1E+10	1	-1E+10	1
4901784	95	C	02/09/2018	10:49	-133.058	43.665	0	1335.10	0	2.8310	0	34.5710	4	27.566	0	1320.192	0	21.6	4	6.6	4	-1E+10	1	-1E+10	1	-1E+10	1	-1E+10	1	-1E+10	1	-1E+10	1
4901784	95	C	02/09/2018	10:49	-133.058	43.665	0	1339.40	0	2.8220	0	34.5710	4	27.567	0	1324.430	0	21.7	4	6.7	4	-1E+10	1	-1E+10	1	-1E+10	1	-1E+10	1	-1E+10	1	-1E+10	1
4901784	95	C	02/09/2018	10:49	-133.058	43.665	0	1345.00	0	2.8150	0	34.5730	4	27.569	0	1329.950	0	21.8	4	6.7	4	-1E+10	1	-1E+10	1	-1E+10	1	-1E+10	1	-1E+10	1	-1E+10	1
4901784	95	C	02/09/2018	10:49	-133.058	43.665	0	1349.90	0	2.8120	0	34.5730	4	27.570	0	1334.779	0	21.9	4	6.7	4	-1E+10	1	-1E+10	1	-1E+10	1	-1E+10	1	-1E+10	1	-1E+10	1
4901784	95	C	02/09/2018	10:49	-133.058	43.665	0	1354.60	0	2.8070	0	34.5740	4	27.571	0	1339.412	0	22.0	4	6.8	4	-1E+10	1	-1E+10	1	-1E+10	1	-1E+10	1	-1E+10	1	-1E+10	1
4901784	95	C	02/09/2018	10:49	-133.058	43.665	0	1359.70	0	2.8000	0	34.5740	4	27.571	0	1344.438	0	22.1	4	6.8	4	-1E+10	1	-1E+10	1	-1E+10	1	-1E+10	1	-1E+10	1	-1E+10	1
4901784	95	C	02/09/2018	10:49	-133.058	43.665	0	1364.80	0	2.7990	0	34.5750	4	27.572	0	1349.465	0	22.3	4	6.9	4	-1E+10	1	-1E+10	1	-1E+10	1	-1E+10	1	-1E+10	1	-1E+10	1
4901784	95	C	02/09/2018	10:49	-133.058	43.665	0	1370.00	0	2.7940	0	34.5750	4	27.573	0	1354.590	0	22.5	4	6.9	4	-1E+10	1	-1E+10	1	-1E+10	1	-1E+10	1	-1E+10	1	-1E+10	1
4901784	95	C	02/09/2018	10:49	-133.058	43.665	0	1375.20	0	2.7840	0	34.5770	4	27.575	0	1359.714	0	22.7	4	7.0	4	-1E+10	1	-1E+10	1	-1E+10	1	-1E+10	1	-1E+10	1	-1E+10	1
4901784	95	C	02/09/2018	10:49	-133.058	43.665	0	1380.50	0	2.7770	0	34.5780	4	27.577	0	1364.938	0	22.9	4	7.1	4	-1E+10	1	-1E+10	1	-1E+10	1	-1E+10	1	-1E+10	1	-1E+10	1
4901784	95	C	02/09/2018	10:49	-133.058	43.665	0	1385.70	0	2.7740	0	34.5790	4	27.578	0	1370.062	0	23.0	4	7.1	4	-1E+10	1	-1E+10	1	-1E+10	1	-1E+10	1	-1E+10	1	-1E+10	1
4901784	95	C	02/09/2018	10:49	-133.058	43.665	0	1390.20	0	2.7700	0	34.5790	4	27.578	0	1374.497	0	23.0	4	7.1	4	-1E+10	1	-1E+10	1	-1E+10	1	-1E+10	1	-1E+10	1	-1E+10	1
4901784	95	C	02/09/2018	10:49	-133.058	43.665	0	1394.70	0	2.7650	0	34.5790	4	27.579	0	1378.931	0	23.1	4	7.1	4	-1E+10	1	-1E+10	1	-1E+10	1	-1E+10	1	-1E+10	1	-1E+10	1
4901784	95	C	02/09/2018	10:49	-133.058	43.665	0	1400.30	0	2.7560	0	34.5790	4	27.580	0	1384.450	0	23.2	4	7.1	4	-1E+10	1	-1E+10	1	-1E+10	1	-1E+10	1	-1E+10	1	-1E+10	1
4901784	95	C	02/09/2018	10:49	-133.058	43.665	0	1405.00	0	2.7420	0	34.5800	4	27.582	0	1389.081	0	23.3	4	7.2	4	-1E+10	1	-1E+10	1	-1E+10	1	-1E+10	1	-1E+10	1	-1E+10	1
4901784	95	C	02/09/2018	10:49	-133.058	43.665	0	1409.70	0	2.7280	0	34.5810	4	27.584	0	1393.712	0	23.5	4	7.2	4	-1E+10	1	-1E+10	1	-1E+10	1	-1E+10	1	-1E+10	1	-1E+10	1
4901784	95	C	02/09/2018	10:49	-133.058	43.665	0	1415.30	0	2.7210	0	34.5820	4	27.585	0	1399.230	0	23.7	4	7.3	4	-1E+10	1	-1E+10	1	-1E+10	1	-1E+10	1	-1E+10	1	-1E+10	1
4901784	95	C	02/09/2018	10:49	-133.058	43.665	0	1420.00	0	2.7160	0	34.5830	4	27.586	0	1403.861	0	23.8	4	7.3	4	-1E+10	1	-1E+10	1	-1E+10	1	-1E+10	1	-1E+10	1	-1E+10	1
4901784	95	C	02/09/2018	10:49	-133.058	43.665	0	1424.70	0	2.7100	0	34.5830	4	27.587	0	1408.492	0	24.0	4	7.4	4	-1E+10	1	-1E+10	1	-1E+10	1	-1E+10	1	-1E+10	1	-1E+10	1
4901784	95	C	02/09/2018	10:49	-133.058	43.665	0	1430.40	0	2.6910	0	34.5840	4	27.589	0	1414.108	0	24.2	4	7.4	4	-1E+10	1	-1E+10	1	-1E+10	1	-1E+10	1	-1E+10	1	-1E+10	1
4901784	95	C	02/09/2018	10:49	-133.058	43.665	0	1435.20	0	2.6790	0	34.5860	4	27.592	0	1418.837	0	24.4	4	7.5	4	-1E+10	1	-1E+10	1	-1E+10	1	-1E+10	1	-1E+10	1	-1E+10	1
4901784	95	C	02/09/2018	10:49	-133.058	43.665	0	1440.00	0	2.6760	0	34.5860	4	27.592	0	1423.566	0	24.5	4	7.5	4	-1E+10	1	-1E+10	1	-1E+10	1	-1E+10	1	-1E+10	1	-1E+10	1
4901784	95	C	02/09/2018	10:49	-133.058	43.665	0	1444.80	0	2.6690	0	34.5870	4	27.594	0	1428.295	0	24.6	4	7.5	4	-1E+10	1	-1E+10	1	-1E+10	1	-1E+10	1	-1E+10	1	-1E+10	1
4901784	95	C	02/09/2018	10:49	-133.058	43.665	0	1449.70	0	2.6650	0	34.5870	4	27.594	0	1433.123	0	24.7	4	7.6	4	-1E+10	1	-1E+10	1	-1E+10	1	-1E+10	1	-1E+10	1	-1E+10	1
4901784	95	C	02/09/2018	10:49	-133.058	43.665	0	1454.60	0	2.6630	0	34.5870	4	27.594	0	1437.950	0	24.8	4	7.6	4	-1E+10	1	-1E+10	1	-1E+10	1	-1E+10	1	-1E+10	1	-1E+10	1
4901784	95	C	02/09/2018	10:49	-133.058	43.665	0	1459.60	0	2.6530	0	34.5870	4	27.595	0	1442.876	0	25.0	4	7.7	4	-1E+10	1	-1E+10	1	-1E+10	1	-1E+10	1	-1E+10	1	-1E+10	1
4901784	95	C	02/09/2018	10:49	-133.058	43.665	0	1464.60	0	2.6410	0	34.5880	4	27.597	0	1447.801	0	25.1	4	7.7	4	-1E+10	1	-1E+10	1	-1E+10	1	-1E+10	1	-1E+10	1	-1E+10	1
4901784	95	C	02/09/2018	10:49	-133.058	43.665	0	1469.60	0	2.6260	0	34.5890	4	27.599	0	1452.727	0	25.3	4	7.7	4	-1E+10	1	-1E+10	1	-1E+10	1	-1E+10	1	-1E+10	1	-1E+10	1
4901784	95	C	02/09/2018	10:49	-133.058	43.665	0	1474.70	0	2.6090	0	34.5910	4	27.602	0	1457.751	0	25.6	4	7.8	4	-1E+10	1	-1E+10	1	-1E+10	1	-1E+10	1	-1E+10	1	-1E+10	1
4901784	95	C	02/09/2018	10:49	-133.058	43.665	0	1479.60	0	2.6030	0	34.5910	4	27.603	0	1462.577	0	25.8	4	7.9	4	-1E+10	1	-1E+10	1	-1E+10	1	-1E+10	1	-1E+10	1	-1E+10	1
4901784	95	C	02/09/2018	10:49	-133.058	43.665	0	1484.60	0	2.5920	0	34.5920	4	27.605	0	1467.502	0	26.1	4	8.0	4	-1E+10	1	-1E+10	1	-1E+10	1	-1E+10	1	-1E+10	1	-1E+10	1
4901784	95	C	02/09/2018	10:49	-133.058	43.665	0	1489.70	0	2.5780	0	34.5930	4	27.607	0	1472.526	0	26.4	4	8.1	4	-1E+10	1	-1E+10	1	-1E+10	1	-1E+10	1	-1E+10	1	-1E+10	1
4901784	95	C	02/09/2018	10:49	-133.058	43.665	0	1494.80	0	2.5690	0	34.5940	4	27.608	0	1477.549	0	26.7	4	8.2	4	-1E+10	1	-1E+10	1	-1E+10	1	-1E+10	1	-1E+10	1	-1E+10	1
4901784	95	C	02/09/2018	10:49	-133.058	43.665	0	1499.80	0	2.5610	0	34.5950	4	27.610	0	1482.474	0	27.0	4	8.3	4	-1E+10	1	-1E+10	1	-1E+10	1	-1E+10	1	-1E+10	1	-1E+10	1
4901784	95	C	02/09/2018	10:49	-133.058	43.665	0	1505.40	0	2.5460	0	34.5960	4	27.612	0	1487.990	0	27.4	4	8.4	4	-1E+10	1	-1E+10	1	-1E+10	1	-1E+10	1	-1E+10	1	-1E+10	1
4901784	95	C	02/09/2018	10:49	-133.058	43.665	0	1510.10	0	2.5310	0	34.5980	4	27.615	0	1492.619	0	27.7	4	8.5	4	-1E+10	1	-1E+10	1	-1E+10	1	-1E+10	1	-1E+10	1	-1E+10	1
4901784	95	C	02/09/2018	10:49	-133.058	43.665	0	1514.80	0	2.5200	0	34.5990	4	27.616	0	1497.248	0	28.0	4	8.5	4	-1E+10	1	-1E+10	1	-1E+10	1	-1E+10	1	-1E+10	1	-1E+10	1
4901784	95	C	02/09/2018	10:49	-133.058	43.665	0	1520.50	0	2.5100	0	34.6000	4	27.618	0	1502.861	0	28.3	4	8.6	4	-1E+10	1	-1E+10	1	-1E+10	1	-1E+10	1	-1E+10	1	-1E+10	1
4901784	95	C	02/09/2018	10:49	-133.058	43.665	0	1525.30	0	2.4980	0	34.6020	4	27.621	0	1507.589	0	28.5	4	8.7	4	-1E+10	1	-1E+10	1	-1E+10	1	-1E+10	1	-1E+10	1	-1E+10	1
4901784	95	C	02/09/2018	10:49	-133.058	43.665	0	1529.80	0	2.4920	0	34.6020	4	27.621	0	1512.020	0	28.7	4	8.8	4	-1E+10	1	-1E+10	1	-1E+10	1	-1E+10	1	-1E+10	1	-1E+10	1
4901784	95	C	02/09/2018	10:49	-133.058	43.665	0	1534.70	0	2.4880	0	34.6030	4	27.622	0	1516.846	0	28.9	4	8.8	4	-1E+10	1	-1E+10	1	-1E+10	1	-1E+10	1	-1E+10	1	-1E+10	1
4901784	95	C	02/09/2018	10:49	-133.058	43.665	0	1539.70	0	2.4840	0	34.6040	4	27.624	0	1521.770	0	29.1	4	8.9	4	-1E+10	1	-1E+10	1	-1E+10	1	-1E+10	1	-1E+10	1	-1E+10	1
4901784	95	C	02/09/2018	10:49	-133.058	43.665	0	1544.70	0	2.4770	0	34.6040	4	27.624	0	1526.693	0	29.4	4	9.0	4	-1E+10	1	-1E+10	1	-1E+10	1	-1E+10	1	-1E+10	1	-1E+10	1
4901784	95	C	02/09/2018	10:49	-133.058	43.665	0	1549.60	0	2.4660	0	34.6050	4	27.626	0	1531.519	0	29.8	4	9.1	4	-1E+10	1	-1E+10	1	-1E+10	1	-1E+10	1	-1E+10	1	-1E+10	1
4901784	95	C	02/09/2018	10:49	-133.058	43.665	0	1554.60	0	2.4540	0	34.6070	4	27.629	0	1536.442	0	30.2	4	9.2	4	-1E+10	1	-1E+10	1	-1E+10	1	-1E+10	1	-1E+10	1	-1E+10	1
4901784	95	C	02/09/2018	10:49	-133.058	43.665	0	1559.70	0	2.4490	0	34.6080	4	27.630	0	1541.464	0	30.4	4	9.3	4	-1E+10	1	-1E+10	1	-1E+10	1	-1E+10	1	-1E+10	1	-1E+10	1
4901784	95	C	02/09/2018	10:49	-133.058	43.665	0	1564.70	0	2.4470	0	34.6090	4	27.631	0	1546.387	0	30.5	4	9.3	4	-1E+10	1	-1E+10	1	-1E+10	1	-1E+10	1	-1E+10	1	-1E+10	1
4901784	95	C	02/09/2018	10:49	-133.058	43.665	0	1569.80	0	2.4450	0	34.6090	4	27.631	0	1551.409	0	30.6	4	9.3	4	-1E+10	1	-1E+10	1	-1E+10	1	-1E+10	1	-1E+10	1	-1E+10	1
4901784	95	C	02/09/2018	10:49	-133.058	43.665	0	1574.80	0	2.4450	0	34.6090	4	27.631	0	1556.332	0	30.8	4	9.4	4	-1E+10	1	-1E+10	1	-1E+10	1	-1E+10	1	-1E+10	1	-1E+10	1
4901784	95	C	02/09/2018	10:49	-133.058	43.665	0	1579.80	0	2.4390	0	34.6100	4	27.632	0	1561.255	0	31.2	4	9.5	4	-1E+10	1	-1E+10	1	-1E+10	1	-1E+10	1	-1E+10	1	-1E+10	1
4901784	95	C	02/09/2018	10:49	-133.058	43.665	0	1584.90	0	2.4290	0	34.6110	4	27.634	0	1566.276	0	31.7	4	9.7	4	-1E+10	1	-1E+10	1	-1E+10	1	-1E+10	1	-1E+10	1	-1E+10	1
4901784	95	C	02/09/2018	10:49	-133.058	43.665	0	1590.10	0	2.4090	0	34.6130	4	27.637	0	1571.396	0	32.3	4	9.8	4	-1E+10	1	-1E+10	1	-1E+10	1	-1E+10	1	-1E+10	1	-1E+10	1
4901784	95	C	02/09/2018	10:49	-133.058	43.665	0	1595.20	0	2.3920	0	34.6150	4	27.640	0	1576.417	0	33.0	4	10.0	4	-1E+10	1	-1E+10	1	-1E+10	1	-1E+10	1	-1E+10	1	-1E+10	1
4901784	95	C	02/09/2018	10:49	-133.058	43.665	0	1600.40	0	2.3790	0	34.6160	4	27.642	0	1581.536	0	33.5	4	10.2	4	-1E+10	1	-1E+10	1	-1E+10	1	-1E+10	1	-1E+10	1	-1E+10	1
4901784	95	C	02/09/2018	10:49	-133.058	43.665	0	1605.50	0	2.3640	0	34.6180	4	27.645	0	1586.557	0	34.0	4	10.3	4	-1E+10	1	-1E+10	1	-1E+10	1	-1E+10	1	-1E+10	1	-1E+10	1
4901784	95	C	02/09/2018	10:49	-133.058	43.665	0	1610.70	0	2.3510	0	34.6190	4	27.647	0	1591.676	0	34.3	4	10.4	4	-1E+10	1	-1E+10	1	-1E+10	1	-1E+10	1	-1E+10	1	-1E+10	1
4901784	95	C	02/09/2018	10:49	-133.058	43.665	0	1615.10	0	2.3430	0	34.6210	4	27.649	0	1596.007	0	34.6	4	10.5	4	-1E+10	1	-1E+10	1	-1E+10	1	-1E+10	1	-1E+10	1	-1E+10	1
4901784	95	C	02/09/2018	10:49	-133.058	43.665	0	1619.50	0	2.3380	0	34.6220	4	27.650	0	1600.339	0	34.8	4	10.6	4	-1E+10	1	-1E+10	1	-1E+10	1	-1E+10	1	-1E+10	1	-1E+10	1
4901784	95	C	02/09/2018	10:49	-133.058	43.665	0	1624.80	0	2.3350	0	34.6220	4	27.651	0	1605.556	0	35.1	4	10.7	4	-1E+10	1	-1E+10	1	-1E+10	1	-1E+10	1	-1E+10	1	-1E+10	1
4901784	95	C	02/09/2018	10:49	-133.058	43.665	0	1630.00	0	2.3290	0	34.6230	4	27.652	0	1610.675	0	35.4	4	10.8	4	-1E+10	1	-1E+10	1	-1E+10	1	-1E+10	1	-1E+10	1	-1E+10	1
4901784	95	C	02/09/2018	10:49	-133.058	43.665	0	1635.30	0	2.3210	0	34.6240	4	27.654	0	1615.892	0	35.8	4	10.9	4	-1E+10	1	-1E+10	1	-1E+10	1	-1E+10	1	-1E+10	1	-1E+10	1
4901784	95	C	02/09/2018	10:49	-133.058	43.665	0	1640.60	0	2.3170	0	34.6250	4	27.655	0	1621.108	0	36.0	4	11.0	4	-1E+10	1	-1E+10	1	-1E+10	1	-1E+10	1	-1E+10	1	-1E+10	1
4901784	95	C	02/09/2018	10:49	-133.058	43.665	0	1645.00	0	2.3150	0	34.6250	4	27.655	0	1625.439	0	36.1	4	11.0	4	-1E+10	1	-1E+10	1	-1E+10	1	-1E+10	1	-1E+10	1	-1E+10	1
4901784	95	C	02/09/2018	10:49	-133.058	43.665	0	1649.50	0	2.3120	0	34.6260	4	27.656	0	1629.869	0	36.3	4	11.0	4	-1E+10	1	-1E+10	1	-1E+10	1	-1E+10	1	-1E+10	1	-1E+10	1
4901784	95	C	02/09/2018	10:49	-133.058	43.665	0	1654.90	0	2.3020	0	34.6260	4	27.657	0	1635.183	0	36.7	4	11.1	4	-1E+10	1	-1E+10	1	-1E+10	1	-1E+10	1	-1E+10	1	-1E+10	1
4901784	95	C	02/09/2018	10:49	-133.058	43.665	0	1660.40	0	2.2950	0	34.6270	4	27.658	0	1640.597	0	37.1	4	11.3	4	-1E+10	1	-1E+10	1	-1E+10	1	-1E+10	1	-1E+10	1	-1E+10	1
4901784	95	C	02/09/2018	10:49	-133.058	43.665	0	1664.80	0	2.2860	0	34.6290	4	27.661	0	1644.927	0	37.4	4	11.4	4	-1E+10	1	-1E+10	1	-1E+10	1	-1E+10	1	-1E+10	1	-1E+10	1
4901784	95	C	02/09/2018	10:49	-133.058	43.665	0	1669.30	0	2.2800	0	34.6290	4	27.661	0	1649.356	0	37.6	4	11.4	4	-1E+10	1	-1E+10	1	-1E+10	1	-1E+10	1	-1E+10	1	-1E+10	1
4901784	95	C	02/09/2018	10:49	-133.058	43.665	0	1674.70	0	2.2720	0	34.6300	4	27.663	0	1654.670	0	37.9	4	11.5	4	-1E+10	1	-1E+10	1	-1E+10	1	-1E+10	1	-1E+10	1	-1E+10	1
4901784	95	C	02/09/2018	10:49	-133.058	43.665	0	1680.20	0	2.2690	0	34.6300	4	27.663	0	1660.083	0	38.2	4	11.6	4	-1E+10	1	-1E+10	1	-1E+10	1	-1E+10	1	-1E+10	1	-1E+10	1
4901784	95	C	02/09/2018	10:49	-133.058	43.665	0	1684.90	0	2.2560	0	34.6310	4	27.665	0	1664.708	0	38.7	4	11.7	4	-1E+10	1	-1E+10	1	-1E+10	1	-1E+10	1	-1E+10	1	-1E+10	1
4901784	95	C	02/09/2018	10:49	-133.058	43.665	0	1689.50	0	2.2460	0	34.6320	4	27.666	0	1669.235	0	39.1	4	11.9	4	-1E+10	1	-1E+10	1	-1E+10	1	-1E+10	1	-1E+10	1	-1E+10	1
4901784	95	C	02/09/2018	10:49	-133.058	43.665	0	1695.10	0	2.2370	0	34.6340	4	27.669	0	1674.746	0	39.5	4	12.0	4	-1E+10	1	-1E+10	1	-1E+10	1	-1E+10	1	-1E+10	1	-1E+10	1
4901784	95	C	02/09/2018	10:49	-133.058	43.665	0	1700.60	0	2.2310	0	34.6350	4	27.670	0	1680.158	0	39.9	4	12.1	4	-1E+10	1	-1E+10	1	-1E+10	1	-1E+10	1	-1E+10	1	-1E+10	1
4901784	95	C	02/09/2018	10:49	-133.058	43.665	0	1705.20	0	2.2270	0	34.6350	4	27.670	0	1684.684	0	40.3	4	12.2	4	-1E+10	1	-1E+10	1	-1E+10	1	-1E+10	1	-1E+10	1	-1E+10	1
4901784	95	C	02/09/2018	10:49	-133.058	43.665	0	1709.80	0	2.2160	0	34.6370	4	27.673	0	1689.211	0	40.7	4	12.3	4	-1E+10	1	-1E+10	1	-1E+10	1	-1E+10	1	-1E+10	1	-1E+10	1
4901784	95	C	02/09/2018	10:49	-133.058	43.665	0	1715.20	0	2.2090	0	34.6380	4	27.674	0	1694.524	0	41.1	4	12.4	4	-1E+10	1	-1E+10	1	-1E+10	1	-1E+10	1	-1E+10	1	-1E+10	1
4901784	95	C	02/09/2018	10:49	-133.058	43.665	0	1720.60	0	2.2030	0	34.6390	4	27.676	0	1699.837	0	41.4	4	12.5	4	-1E+10	1	-1E+10	1	-1E+10	1	-1E+10	1	-1E+10	1	-1E+10	1
4901784	95	C	02/09/2018	10:49	-133.058	43.665	0	1725.40	0	2.1970	0	34.6400	4	27.677	0	1704.560	0	41.7	4	12.6	4	-1E+10	1	-1E+10	1	-1E+10	1	-1E+10	1	-1E+10	1	-1E+10	1
4901784	95	C	02/09/2018	10:49	-133.058	43.665	0	1730.30	0	2.1940	0	34.6410	4	27.678	0	1709.381	0	41.9	4	12.7	4	-1E+10	1	-1E+10	1	-1E+10	1	-1E+10	1	-1E+10	1	-1E+10	1
4901784	95	C	02/09/2018	10:49	-133.058	43.665	0	1735.30	0	2.1920	0	34.6410	4	27.678	0	1714.301	0	42.1	4	12.8	4	-1E+10	1	-1E+10	1	-1E+10	1	-1E+10	1	-1E+10	1	-1E+10	1
4901784	95	C	02/09/2018	10:49	-133.058	43.665	0	1740.20	0	2.1880	0	34.6420	4	27.679	0	1719.121	0	42.3	4	12.8	4	-1E+10	1	-1E+10	1	-1E+10	1	-1E+10	1	-1E+10	1	-1E+10	1
4901784	95	C	02/09/2018	10:49	-133.058	43.665	0	1745.10	0	2.1830	0	34.6420	4	27.680	0	1723.942	0	42.5	4	12.9	4	-1E+10	1	-1E+10	1	-1E+10	1	-1E+10	1	-1E+10	1	-1E+10	1
4901784	95	C	02/09/2018	10:49	-133.058	43.665	0	1750.10	0	2.1800	0	34.6430	4	27.681	0	1728.861	0	42.6	4	12.9	4	-1E+10	1	-1E+10	1	-1E+10	1	-1E+10	1	-1E+10	1	-1E+10	1
4901784	95	C	02/09/2018	10:49	-133.058	43.665	0	1755.00	0	2.1790	0	34.6430	4	27.681	0	1733.682	0	42.7	4	12.9	4	-1E+10	1	-1E+10	1	-1E+10	1	-1E+10	1	-1E+10	1	-1E+10	1
4901784	95	C	02/09/2018	10:49	-133.058	43.665	0	1760.00	0	2.1760	0	34.6430	4	27.681	0	1738.601	0	42.8	4	13.0	4	-1E+10	1	-1E+10	1	-1E+10	1	-1E+10	1	-1E+10	1	-1E+10	1
4901784	95	C	02/09/2018	10:49	-133.058	43.665	0	1764.90	0	2.1750	0	34.6440	4	27.682	0	1743.421	0	43.0	4	13.0	4	-1E+10	1	-1E+10	1	-1E+10	1	-1E+10	1	-1E+10	1	-1E+10	1
4901784	95	C	02/09/2018	10:49	-133.058	43.665	0	1769.90	0	2.1740	0	34.6440	4	27.682	0	1748.340	0	43.2	4	13.1	4	-1E+10	1	-1E+10	1	-1E+10	1	-1E+10	1	-1E+10	1	-1E+10	1
4901784	95	C	02/09/2018	10:49	-133.058	43.665	0	1774.90	0	2.1700	0	34.6440	4	27.683	0	1753.258	0	43.5	4	13.2	4	-1E+10	1	-1E+10	1	-1E+10	1	-1E+10	1	-1E+10	1	-1E+10	1
4901784	95	C	02/09/2018	10:49	-133.058	43.665	0	1780.00	0	2.1620	0	34.6450	4	27.684	0	1758.275	0	43.9	4	13.3	4	-1E+10	1	-1E+10	1	-1E+10	1	-1E+10	1	-1E+10	1	-1E+10	1
4901784	95	C	02/09/2018	10:49	-133.058	43.665	0	1785.10	0	2.1580	0	34.6460	4	27.685	0	1763.291	0	44.2	4	13.4	4	-1E+10	1	-1E+10	1	-1E+10	1	-1E+10	1	-1E+10	1	-1E+10	1
4901784	95	C	02/09/2018	10:49	-133.058	43.665	0	1790.10	0	2.1530	0	34.6460	4	27.686	0	1768.209	0	44.8	4	13.6	4	-1E+10	1	-1E+10	1	-1E+10	1	-1E+10	1	-1E+10	1	-1E+10	1
4901784	95	C	02/09/2018	10:49	-133.058	43.665	0	1795.30	0	2.1360	0	34.6490	4	27.689	0	1773.324	0	45.4	4	13.7	4	-1E+10	1	-1E+10	1	-1E+10	1	-1E+10	1	-1E+10	1	-1E+10	1
4901784	95	C	02/09/2018	10:49	-133.058	43.665	0	1800.60	0	2.1300	0	34.6500	4	27.691	0	1778.537	0	45.6	4	13.8	4	-1E+10	1	-1E+10	1	-1E+10	1	-1E+10	1	-1E+10	1	-1E+10	1
4901784	95	C	02/09/2018	10:49	-133.058	43.665	0	1804.90	0	2.1280	0	34.6500	4	27.691	0	1782.766	0	45.7	4	13.8	4	-1E+10	1	-1E+10	1	-1E+10	1	-1E+10	1	-1E+10	1	-1E+10	1
4901784	95	C	02/09/2018	10:49	-133.058	43.665	0	1809.30	0	2.1260	0	34.6510	4	27.692	0	1787.094	0	45.8	4	13.9	4	-1E+10	1	-1E+10	1	-1E+10	1	-1E+10	1	-1E+10	1	-1E+10	1
4901784	95	C	02/09/2018	10:49	-133.058	43.665	0	1814.60	0	2.1250	0	34.6510	4	27.692	0	1792.306	0	45.9	4	13.9	4	-1E+10	1	-1E+10	1	-1E+10	1	-1E+10	1	-1E+10	1	-1E+10	1
4901784	95	C	02/09/2018	10:49	-133.058	43.665	0	1820.00	0	2.1230	0	34.6510	4	27.692	0	1797.617	0	46.0	4	13.9	4	-1E+10	1	-1E+10	1	-1E+10	1	-1E+10	1	-1E+10	1	-1E+10	1
4901784	95	C	02/09/2018	10:49	-133.058	43.665	0	1825.30	0	2.1220	0	34.6510	4	27.692	0	1802.830	0	46.1	4	14.0	4	-1E+10	1	-1E+10	1	-1E+10	1	-1E+10	1	-1E+10	1	-1E+10	1
4901784	95	C	02/09/2018	10:49	-133.058	43.665	0	1830.60	0	2.1210	0	34.6510	4	27.692	0	1808.042	0	46.3	4	14.0	4	-1E+10	1	-1E+10	1	-1E+10	1	-1E+10	1	-1E+10	1	-1E+10	1
4901784	95	C	02/09/2018	10:49	-133.058	43.665	0	1835.00	0	2.1190	0	34.6520	4	27.693	0	1812.369	0	46.5	4	14.1	4	-1E+10	1	-1E+10	1	-1E+10	1	-1E+10	1	-1E+10	1	-1E+10	1
4901784	95	C	02/09/2018	10:49	-133.058	43.665	0	1839.60	0	2.1160	0	34.6520	4	27.694	0	1816.893	0	46.7	4	14.1	4	-1E+10	1	-1E+10	1	-1E+10	1	-1E+10	1	-1E+10	1	-1E+10	1
4901784	95	C	02/09/2018	10:49	-133.058	43.665	0	1845.00	0	2.1120	0	34.6520	4	27.694	0	1822.203	0	47.2	4	14.3	4	-1E+10	1	-1E+10	1	-1E+10	1	-1E+10	1	-1E+10	1	-1E+10	1
4901784	95	C	02/09/2018	10:49	-133.058	43.665	0	1850.50	0	2.1020	0	34.6530	4	27.696	0	1827.611	0	47.8	4	14.5	4	-1E+10	1	-1E+10	1	-1E+10	1	-1E+10	1	-1E+10	1	-1E+10	1
4901784	95	C	02/09/2018	10:49	-133.058	43.665	0	1855.10	0	2.0900	0	34.6560	4	27.699	0	1832.134	0	48.4	4	14.6	4	-1E+10	1	-1E+10	1	-1E+10	1	-1E+10	1	-1E+10	1	-1E+10	1
4901784	95	C	02/09/2018	10:49	-133.058	43.665	0	1859.70	0	2.0830	0	34.6560	4	27.700	0	1836.658	0	48.6	4	14.7	4	-1E+10	1	-1E+10	1	-1E+10	1	-1E+10	1	-1E+10	1	-1E+10	1
4901784	95	C	02/09/2018	10:49	-133.058	43.665	0	1865.20	0	2.0800	0	34.6570	4	27.701	0	1842.066	0	48.8	4	14.8	4	-1E+10	1	-1E+10	1	-1E+10	1	-1E+10	1	-1E+10	1	-1E+10	1
4901784	95	C	02/09/2018	10:49	-133.058	43.665	0	1869.80	0	2.0790	0	34.6570	4	27.701	0	1846.589	0	49.0	4	14.8	4	-1E+10	1	-1E+10	1	-1E+10	1	-1E+10	1	-1E+10	1	-1E+10	1
4901784	95	C	02/09/2018	10:49	-133.058	43.665	0	1874.40	0	2.0770	0	34.6570	4	27.701	0	1851.112	0	49.2	4	14.9	4	-1E+10	1	-1E+10	1	-1E+10	1	-1E+10	1	-1E+10	1	-1E+10	1
4901784	95	C	02/09/2018	10:49	-133.058	43.665	0	1879.90	0	2.0700	0	34.6580	4	27.702	0	1856.519	0	49.6	4	15.0	4	-1E+10	1	-1E+10	1	-1E+10	1	-1E+10	1	-1E+10	1	-1E+10	1
4901784	95	C	02/09/2018	10:49	-133.058	43.665	0	1885.50	0	2.0650	0	34.6590	4	27.703	0	1862.025	0	49.9	4	15.1	4	-1E+10	1	-1E+10	1	-1E+10	1	-1E+10	1	-1E+10	1	-1E+10	1
4901784	95	C	02/09/2018	10:49	-133.058	43.665	0	1890.20	0	2.0620	0	34.6590	4	27.704	0	1866.646	0	50.3	4	15.2	4	-1E+10	1	-1E+10	1	-1E+10	1	-1E+10	1	-1E+10	1	-1E+10	1
4901784	95	C	02/09/2018	10:49	-133.058	43.665	0	1894.90	0	2.0570	0	34.6600	4	27.705	0	1871.267	0	50.7	4	15.3	4	-1E+10	1	-1E+10	1	-1E+10	1	-1E+10	1	-1E+10	1	-1E+10	1
4901784	95	C	02/09/2018	10:49	-133.058	43.665	0	1900.40	0	2.0460	0	34.6610	4	27.707	0	1876.674	0	51.4	4	15.5	4	-1E+10	1	-1E+10	1	-1E+10	1	-1E+10	1	-1E+10	1	-1E+10	1
4901784	95	C	02/09/2018	10:49	-133.058	43.665	0	1904.60	0	2.0380	0	34.6630	4	27.709	0	1880.803	0	51.9	4	15.7	4	-1E+10	1	-1E+10	1	-1E+10	1	-1E+10	1	-1E+10	1	-1E+10	1
4901784	95	C	02/09/2018	10:49	-133.058	43.665	0	1909.50	0	2.0350	0	34.6640	4	27.710	0	1885.620	0	52.2	4	15.8	4	-1E+10	1	-1E+10	1	-1E+10	1	-1E+10	1	-1E+10	1	-1E+10	1
4901784	95	C	02/09/2018	10:49	-133.058	43.665	0	1914.40	0	2.0320	0	34.6640	4	27.710	0	1890.437	0	52.7	4	15.9	4	-1E+10	1	-1E+10	1	-1E+10	1	-1E+10	1	-1E+10	1	-1E+10	1
4901784	95	C	02/09/2018	10:49	-133.058	43.665	0	1919.30	0	2.0230	0	34.6660	4	27.713	0	1895.254	0	53.1	4	16.0	4	-1E+10	1	-1E+10	1	-1E+10	1	-1E+10	1	-1E+10	1	-1E+10	1
4901784	95	C	02/09/2018	10:49	-133.058	43.665	0	1925.00	0	2.0160	0	34.6670	4	27.714	0	1900.857	0	53.4	4	16.1	4	-1E+10	1	-1E+10	1	-1E+10	1	-1E+10	1	-1E+10	1	-1E+10	1
4901784	95	C	02/09/2018	10:49	-133.058	43.665	0	1930.70	0	2.0150	0	34.6670	4	27.714	0	1906.460	0	53.7	4	16.2	4	-1E+10	1	-1E+10	1	-1E+10	1	-1E+10	1	-1E+10	1	-1E+10	1
4901784	95	C	02/09/2018	10:49	-133.058	43.665	0	1935.60	0	2.0120	0	34.6680	4	27.715	0	1911.277	0	54.1	4	16.3	4	-1E+10	1	-1E+10	1	-1E+10	1	-1E+10	1	-1E+10	1	-1E+10	1
4901784	95	C	02/09/2018	10:49	-133.058	43.665	0	1940.50	0	2.0050	0	34.6690	4	27.716	0	1916.093	0	54.5	4	16.4	4	-1E+10	1	-1E+10	1	-1E+10	1	-1E+10	1	-1E+10	1	-1E+10	1
4901784	95	C	02/09/2018	10:49	-133.058	43.665	0	1945.50	0	1.9940	0	34.6700	4	27.718	0	1921.007	0	54.8	4	16.5	4	-1E+10	1	-1E+10	1	-1E+10	1	-1E+10	1	-1E+10	1	-1E+10	1
4901784	95	C	02/09/2018	10:49	-133.058	43.665	0	1950.50	0	1.9920	0	34.6700	4	27.718	0	1925.922	0	55.0	4	16.6	4	-1E+10	1	-1E+10	1	-1E+10	1	-1E+10	1	-1E+10	1	-1E+10	1
4901784	95	C	02/09/2018	10:49	-133.058	43.665	0	1955.50	0	1.9890	0	34.6710	4	27.719	0	1930.836	0	55.2	4	16.7	4	-1E+10	1	-1E+10	1	-1E+10	1	-1E+10	1	-1E+10	1	-1E+10	1
4901784	95	C	02/09/2018	10:49	-133.058	43.665	0	1960.60	0	1.9850	0	34.6710	4	27.720	0	1935.849	0	55.4	4	16.7	4	-1E+10	1	-1E+10	1	-1E+10	1	-1E+10	1	-1E+10	1	-1E+10	1
4901784	95	C	02/09/2018	10:49	-133.058	43.665	0	1965.70	0	1.9830	0	34.6720	4	27.721	0	1940.861	0	55.6	4	16.8	4	-1E+10	1	-1E+10	1	-1E+10	1	-1E+10	1	-1E+10	1	-1E+10	1
4901784	95	C	02/09/2018	10:49	-133.058	43.665	0	1970.70	0	1.9800	0	34.6720	4	27.721	0	1945.775	0	55.8	4	16.8	4	-1E+10	1	-1E+10	1	-1E+10	1	-1E+10	1	-1E+10	1	-1E+10	1
4901784	95	C	02/09/2018	10:49	-133.058	43.665	0	1975.80	0	1.9780	0	34.6730	4	27.722	0	1950.787	0	56.1	4	16.9	4	-1E+10	1	-1E+10	1	-1E+10	1	-1E+10	1	-1E+10	1	-1E+10	1
4901784	95	C	02/09/2018	10:49	-133.058	43.665	0	1980.00	0	1.9770	0	34.6730	4	27.722	0	1954.915	0	56.3	4	17.0	4	-1E+10	1	-1E+10	1	-1E+10	1	-1E+10	1	-1E+10	1	-1E+10	1
4901784	95	C	02/09/2018	10:49	-133.058	43.665	0	1984.20	0	1.9750	0	34.6730	4	27.722	0	1959.042	0	56.6	4	17.1	4	-1E+10	1	-1E+10	1	-1E+10	1	-1E+10	1	-1E+10	1	-1E+10	1
4901784	95	C	02/09/2018	10:49	-133.058	43.665	0	1989.20	0	1.9690	0	34.6740	4	27.724	0	1963.956	0	57.0	4	17.2	4	-1E+10	1	-1E+10	1	-1E+10	1	-1E+10	1	-1E+10	1	-1E+10	1
4901784	95	C	02/09/2018	10:49	-133.058	43.665	0	1994.30	0	1.9650	0	34.6750	4	27.725	0	1968.968	0	57.3	4	17.3	4	-1E+10	1	-1E+10	1	-1E+10	1	-1E+10	1	-1E+10	1	-1E+10	1
4901784	95	C	02/09/2018	10:49	-133.058	43.665	0	1999.40	0	1.9610	0	34.6760	4	27.726	0	1973.979	0	57.6	4	17.4	4	-1E+10	1	-1E+10	1	-1E+10	1	-1E+10	1	-1E+10	1	-1E+10	1
4901784	95	C	02/09/2018	10:49	-133.058	43.665	0	2004.50	0	1.9570	0	34.6760	4	27.726	0	1978.991	0	57.8	4	17.4	4	-1E+10	1	-1E+10	1	-1E+10	1	-1E+10	1	-1E+10	1	-1E+10	1
4901784	95	C	02/09/2018	10:49	-133.058	43.665	0	2009.70	0	1.9540	0	34.6770	4	27.727	0	1984.100	0	58.1	4	17.5	4	-1E+10	1	-1E+10	1	-1E+10	1	-1E+10	1	-1E+10	1	-1E+10	1
4901784	95	C	02/09/2018	10:49	-133.058	43.665	0	2014.80	0	1.9500	0	34.6770	4	27.728	0	1989.112	0	58.4	4	17.6	4	-1E+10	1	-1E+10	1	-1E+10	1	-1E+10	1	-1E+10	1	-1E+10	1
4901784	95	C	02/09/2018	10:49	-133.058	43.665	0	2019.70	0	1.9450	0	34.6780	4	27.729	0	1993.926	0	58.7	4	17.7	4	-1E+10	1	-1E+10	1	-1E+10	1	-1E+10	1	-1E+10	1	-1E+10	1
4901784	95	C	02/09/2018	10:49	-133.058	43.665	0																										
4901784	96	C	02/19/2018	10:44	-133.076	43.436	0	2.90	0	10.3580	0	32.8620	4	25.223	0	2.877	0	267.4	4	96.6	4	-1E+10	1	-1E+10	1	-1E+10	1	-1E+10	1	-1E+10	1	-1E+10	1
4901784	96	C	02/19/2018	10:44	-133.076	43.436	0	4.40	0	10.3600	0	32.8620	4	25.223	0	4.365	0	267.6	4	96.7	4	-1E+10	1	-1E+10	1	-1E+10	1	-1E+10	1	-1E+10	1	-1E+10	1
4901784	96	C	02/19/2018	10:44	-133.076	43.436	0	6.00	0	10.3590	0	32.8620	4	25.223	0	5.952	0	267.5	4	96.7	4	-1E+10	1	-1E+10	1	-1E+10	1	-1E+10	1	-1E+10	1	-1E+10	1
4901784	96	C	02/19/2018	10:44	-133.076	43.436	0	7.60	0	10.3600	0	32.8620	4	25.223	0	7.539	0	267.4	4	96.7	4	-1E+10	1	-1E+10	1	-1E+10	1	-1E+10	1	-1E+10	1	-1E+10	1
4901784	96	C	02/19/2018	10:44	-133.076	43.436	0	9.30	0	10.3590	0	32.8620	4	25.223	0	9.226	0	267.4	4	96.6	4	-1E+10	1	-1E+10	1	-1E+10	1	-1E+10	1	-1E+10	1	-1E+10	1
4901784	96	C	02/19/2018	10:44	-133.076	43.436	0	11.10	0	10.3590	0	32.8620	4	25.223	0	11.011	0	267.4	4	96.6	4	-1E+10	1	-1E+10	1	-1E+10	1	-1E+10	1	-1E+10	1	-1E+10	1
4901784	96	C	02/19/2018	10:44	-133.076	43.436	0	12.90	0	10.3610	0	32.8620	4	25.223	0	12.797	0	267.4	4	96.6	4	-1E+10	1	-1E+10	1	-1E+10	1	-1E+10	1	-1E+10	1	-1E+10	1
4901784	96	C	02/19/2018	10:44	-133.076	43.436	0	14.70	0	10.3580	0	32.8620	4	25.223	0	14.582	0	267.5	4	96.7	4	-1E+10	1	-1E+10	1	-1E+10	1	-1E+10	1	-1E+10	1	-1E+10	1
4901784	96	C	02/19/2018	10:44	-133.076	43.436	0	16.50	0	10.3590	0	32.8620	4	25.223	0	16.368	0	267.3	4	96.6	4	-1E+10	1	-1E+10	1	-1E+10	1	-1E+10	1	-1E+10	1	-1E+10	1
4901784	96	C	02/19/2018	10:44	-133.076	43.436	0	18.10	0	10.3590	0	32.8620	4	25.223	0	17.955	0	267.2	4	96.6	4	-1E+10	1	-1E+10	1	-1E+10	1	-1E+10	1	-1E+10	1	-1E+10	1
4901784	96	C	02/19/2018	10:44	-133.076	43.436	0	19.80	0	10.3590	0	32.8620	4	25.223	0	19.641	0	267.4	4	96.6	4	-1E+10	1	-1E+10	1	-1E+10	1	-1E+10	1	-1E+10	1	-1E+10	1
4901784	96	C	02/19/2018	10:44	-133.076	43.436	0	21.50	0	10.3590	0	32.8620	4	25.223	0	21.327	0	267.2	4	96.6	4	-1E+10	1	-1E+10	1	-1E+10	1	-1E+10	1	-1E+10	1	-1E+10	1
4901784	96	C	02/19/2018	10:44	-133.076	43.436	0	23.00	0	10.3590	0	32.8620	4	25.223	0	22.815	0	267.3	4	96.6	4	-1E+10	1	-1E+10	1	-1E+10	1	-1E+10	1	-1E+10	1	-1E+10	1
4901784	96	C	02/19/2018	10:44	-133.076	43.436	0	24.40	0	10.3600	0	32.8620	4	25.223	0	24.204	0	267.4	4	96.6	4	-1E+10	1	-1E+10	1	-1E+10	1	-1E+10	1	-1E+10	1	-1E+10	1
4901784	96	C	02/19/2018	10:44	-133.076	43.436	0	26.00	0	10.3600	0	32.8620	4	25.223	0	25.791	0	267.3	4	96.6	4	-1E+10	1	-1E+10	1	-1E+10	1	-1E+10	1	-1E+10	1	-1E+10	1
4901784	96	C	02/19/2018	10:44	-133.076	43.436	0	27.70	0	10.3620	0	32.8610	4	25.222	0	27.477	0	267.3	4	96.6	4	-1E+10	1	-1E+10	1	-1E+10	1	-1E+10	1	-1E+10	1	-1E+10	1
4901784	96	C	02/19/2018	10:44	-133.076	43.436	0	29.40	0	10.3600	0	32.8620	4	25.223	0	29.163	0	267.2	4	96.6	4	-1E+10	1	-1E+10	1	-1E+10	1	-1E+10	1	-1E+10	1	-1E+10	1
4901784	96	C	02/19/2018	10:44	-133.076	43.436	0	31.10	0	10.3600	0	32.8620	4	25.223	0	30.850	0	267.1	4	96.5	4	-1E+10	1	-1E+10	1	-1E+10	1	-1E+10	1	-1E+10	1	-1E+10	1
4901784	96	C	02/19/2018	10:44	-133.076	43.436	0	33.00	0	10.3600	0	32.8620	4	25.223	0	32.734	0	267.2	4	96.6	4	-1E+10	1	-1E+10	1	-1E+10	1	-1E+10	1	-1E+10	1	-1E+10	1
4901784	96	C	02/19/2018	10:44	-133.076	43.436	0	35.00	0	10.3620	0	32.8610	4	25.222	0	34.718	0	267.3	4	96.6	4	-1E+10	1	-1E+10	1	-1E+10	1	-1E+10	1	-1E+10	1	-1E+10	1
4901784	96	C	02/19/2018	10:44	-133.076	43.436	0	36.90	0	10.3630	0	32.8610	4	25.222	0	36.602	0	267.1	4	96.5	4	-1E+10	1	-1E+10	1	-1E+10	1	-1E+10	1	-1E+10	1	-1E+10	1
4901784	96	C	02/19/2018	10:44	-133.076	43.436	0	39.00	0	10.3630	0	32.8620	4	25.223	0	38.685	0	267.2	4	96.6	4	-1E+10	1	-1E+10	1	-1E+10	1	-1E+10	1	-1E+10	1	-1E+10	1
4901784	96	C	02/19/2018	10:44	-133.076	43.436	0	41.00	0	10.3630	0	32.8610	4	25.222	0	40.669	0	267.2	4	96.6	4	-1E+10	1	-1E+10	1	-1E+10	1	-1E+10	1	-1E+10	1	-1E+10	1
4901784	96	C	02/19/2018	10:44	-133.076	43.436	0	42.80	0	10.3640	0	32.8620	4	25.223	0	42.454	0	267.0	4	96.5	4	-1E+10	1	-1E+10	1	-1E+10	1	-1E+10	1	-1E+10	1	-1E+10	1
4901784	96	C	02/19/2018	10:44	-133.076	43.436	0	44.70	0	10.3640	0	32.8620	4	25.223	0	44.339	0	266.9	4	96.5	4	-1E+10	1	-1E+10	1	-1E+10	1	-1E+10	1	-1E+10	1	-1E+10	1
4901784	96	C	02/19/2018	10:44	-133.076	43.436	0	46.60	0	10.3650	0	32.8610	4	25.222	0	46.223	0	267.0	4	96.5	4	-1E+10	1	-1E+10	1	-1E+10	1	-1E+10	1	-1E+10	1	-1E+10	1
4901784	96	C	02/19/2018	10:44	-133.076	43.436	0	48.30	0	10.3640	0	32.8620	4	25.223	0	47.909	0	267.0	4	96.5	4	-1E+10	1	-1E+10	1	-1E+10	1	-1E+10	1	-1E+10	1	-1E+10	1
4901784	96	C	02/19/2018	10:44	-133.076	43.436	0	50.20	0	10.3650	0	32.8620	4	25.223	0	49.794	0	267.1	4	96.5	4	-1E+10	1	-1E+10	1	-1E+10	1	-1E+10	1	-1E+10	1	-1E+10	1
4901784	96	C	02/19/2018	10:44	-133.076	43.436	0	52.00	0	10.3650	0	32.8620	4	25.223	0	51.579	0	266.9	4	96.5	4	-1E+10	1	-1E+10	1	-1E+10	1	-1E+10	1	-1E+10	1	-1E+10	1
4901784	96	C	02/19/2018	10:44	-133.076	43.436	0	53.80	0	10.3650	0	32.8620	4	25.223	0	53.364	0	266.9	4	96.5	4	-1E+10	1	-1E+10	1	-1E+10	1	-1E+10	1	-1E+10	1	-1E+10	1
4901784	96	C	02/19/2018	10:44	-133.076	43.436	0	55.50	0	10.3640	0	32.8610	4	25.222	0	55.050	0	266.8	4	96.4	4	-1E+10	1	-1E+10	1	-1E+10	1	-1E+10	1	-1E+10	1	-1E+10	1
4901784	96	C	02/19/2018	10:44	-133.076	43.436	0	57.30	0	10.3650	0	32.8610	4	25.222	0	56.835	0	266.8	4	96.4	4	-1E+10	1	-1E+10	1	-1E+10	1	-1E+10	1	-1E+10	1	-1E+10	1
4901784	96	C	02/19/2018	10:44	-133.076	43.436	0	59.10	0	10.3640	0	32.8620	4	25.223	0	58.620	0	266.7	4	96.4	4	-1E+10	1	-1E+10	1	-1E+10	1	-1E+10	1	-1E+10	1	-1E+10	1
4901784	96	C	02/19/2018	10:44	-133.076	43.436	0	60.90	0	10.3640	0	32.8620	4	25.223	0	60.405	0	266.8	4	96.4	4	-1E+10	1	-1E+10	1	-1E+10	1	-1E+10	1	-1E+10	1	-1E+10	1
4901784	96	C	02/19/2018	10:44	-133.076	43.436	0	62.80	0	10.3640	0	32.8620	4	25.223	0	62.290	0	266.7	4	96.4	4	-1E+10	1	-1E+10	1	-1E+10	1	-1E+10	1	-1E+10	1	-1E+10	1
4901784	96	C	02/19/2018	10:44	-133.076	43.436	0	64.60	0	10.3640	0	32.8620	4	25.223	0	64.075	0	266.8	4	96.4	4	-1E+10	1	-1E+10	1	-1E+10	1	-1E+10	1	-1E+10	1	-1E+10	1
4901784	96	C	02/19/2018	10:44	-133.076	43.436	0	66.50	0	10.3640	0	32.8620	4	25.223	0	65.959	0	266.7	4	96.4	4	-1E+10	1	-1E+10	1	-1E+10	1	-1E+10	1	-1E+10	1	-1E+10	1
4901784	96	C	02/19/2018	10:44	-133.076	43.436	0	68.30	0	10.3670	0	32.8620	4	25.223	0	67.744	0	266.5	4	96.3	4	-1E+10	1	-1E+10	1	-1E+10	1	-1E+10	1	-1E+10	1	-1E+10	1
4901784	96	C	02/19/2018	10:44	-133.076	43.436	0	70.20	0	10.3670	0	32.8620	4	25.223	0	69.628	0	266.5	4	96.3	4	-1E+10	1	-1E+10	1	-1E+10	1	-1E+10	1	-1E+10	1	-1E+10	1
4901784	96	C	02/19/2018	10:44	-133.076	43.436	0	72.10	0	10.3670	0	32.8610	4	25.222	0	71.513	0	266.2	4	96.2	4	-1E+10	1	-1E+10	1	-1E+10	1	-1E+10	1	-1E+10	1	-1E+10	1
4901784	96	C	02/19/2018	10:44	-133.076	43.436	0	74.00	0	10.3660	0	32.8620	4	25.223	0	73.397	0	266.3	4	96.3	4	-1E+10	1	-1E+10	1	-1E+10	1	-1E+10	1	-1E+10	1	-1E+10	1
4901784	96	C	02/19/2018	10:44	-133.076	43.436	0	76.00	0	10.3650	0	32.8620	4	25.223	0	75.380	0	266.1	4	96.2	4	-1E+10	1	-1E+10	1	-1E+10	1	-1E+10	1	-1E+10	1	-1E+10	1
4901784	96	C	02/19/2018	10:44	-133.076	43.436	0	77.90	0	10.3680	0	32.8620	4	25.223	0	77.264	0	265.7	4	96.0	4	-1E+10	1	-1E+10	1	-1E+10	1	-1E+10	1	-1E+10	1	-1E+10	1
4901784	96	C	02/19/2018	10:44	-133.076	43.436	0	79.90	0	10.3670	0	32.8610	4	25.222	0	79.248	0	265.8	4	96.1	4	-1E+10	1	-1E+10	1	-1E+10	1	-1E+10	1	-1E+10	1	-1E+10	1
4901784	96	C	02/19/2018	10:44	-133.076	43.436	0	81.80	0	10.3650	0	32.8610	4	25.223	0	81.132	0	265.6	4	96.0	4	-1E+10	1	-1E+10	1	-1E+10	1	-1E+10	1	-1E+10	1	-1E+10	1
4901784	96	C	02/19/2018	10:44	-133.076	43.436	0	83.80	0	10.3630	0	32.8620	4	25.224	0	83.115	0	265.2	4	95.8	4	-1E+10	1	-1E+10	1	-1E+10	1	-1E+10	1	-1E+10	1	-1E+10	1
4901784	96	C	02/19/2018	10:44	-133.076	43.436	0	85.70	0	10.3570	0	32.8630	4	25.226	0	84.999	0	265.2	4	95.8	4	-1E+10	1	-1E+10	1	-1E+10	1	-1E+10	1	-1E+10	1	-1E+10	1
4901784	96	C	02/19/2018	10:44	-133.076	43.436	0	87.50	0	10.3500	0	32.8640	4	25.228	0	86.784	0	264.8	4	95.7	4	-1E+10	1	-1E+10	1	-1E+10	1	-1E+10	1	-1E+10	1	-1E+10	1
4901784	96	C	02/19/2018	10:44	-133.076	43.436	0	89.40	0	10.3500	0	32.8630	4	25.227	0	88.668	0	264.4	4	95.5	4	-1E+10	1	-1E+10	1	-1E+10	1	-1E+10	1	-1E+10	1	-1E+10	1
4901784	96	C	02/19/2018	10:44	-133.076	43.436	0	91.20	0	10.3630	0	32.8600	4	25.222	0	90.453	0	263.9	4	95.4	4	-1E+10	1	-1E+10	1	-1E+10	1	-1E+10	1	-1E+10	1	-1E+10	1
4901784	96	C	02/19/2018	10:44	-133.076	43.436	0	93.30	0	10.3510	0	32.8600	4	25.224	0	92.535	0	263.4	4	95.2	4	-1E+10	1	-1E+10	1	-1E+10	1	-1E+10	1	-1E+10	1	-1E+10	1
4901784	96	C	02/19/2018	10:44	-133.076	43.436	0	93.80	0	10.3470	0	32.8610	4	25.226	0	93.031	0	263.0	4	95.0	4	-1E+10	1	-1E+10	1	-1E+10	1	-1E+10	1	-1E+10	1	-1E+10	1
4901784	96	C	02/19/2018	10:44	-133.076	43.436	0	95.40	0	10.3470	0	32.8580	4	25.224	0	94.617	0	262.0	4	94.6	4	-1E+10	1	-1E+10	1	-1E+10	1	-1E+10	1	-1E+10	1	-1E+10	1
4901784	96	C	02/19/2018	10:44	-133.076	43.436	0	96.80	0	10.2990	0	32.8630	4	25.236	0	96.006	0	260.8	4	94.1	4	-1E+10	1	-1E+10	1	-1E+10	1	-1E+10	1	-1E+10	1	-1E+10	1
4901784	96	C	02/19/2018	10:44	-133.076	43.436	0	98.30	0	10.2970	0	32.8590	4	25.233	0	97.493	0	259.6	4	93.7	4	-1E+10	1	-1E+10	1	-1E+10	1	-1E+10	1	-1E+10	1	-1E+10	1
4901784	96	C	02/19/2018	10:44	-133.076	43.436	0	99.60	0	10.2720	0	32.8560	4	25.235	0	98.782	0	257.8	4	93.0	4	-1E+10	1	-1E+10	1	-1E+10	1	-1E+10	1	-1E+10	1	-1E+10	1
4901784	96	C	02/19/2018	10:44	-133.076	43.436	0	102.40	0	10.0670	0	32.8750	4	25.284	0	101.558	0	252.6	4	90.7	4	-1E+10	1	-1E+10	1	-1E+10	1	-1E+10	1	-1E+10	1	-1E+10	1
4901784	96	C	02/19/2018	10:44	-133.076	43.436	0	104.90	0	9.2480	0	32.9610	4	25.485	0	104.037	0	253.7	4	89.6	4	-1E+10	1	-1E+10	1	-1E+10	1	-1E+10	1	-1E+10	1	-1E+10	1
4901784	96	C	02/19/2018	10:44	-133.076	43.436	0	107.50	0	8.4970	0	33.0460	4	25.668	0	106.615	0	256.2	4	89.0	4	-1E+10	1	-1E+10	1	-1E+10	1	-1E+10	1	-1E+10	1	-1E+10	1
4901784	96	C	02/19/2018	10:44	-133.076	43.436	0	110.10	0	8.3860	0	33.0520	4	25.689	0	109.193	0	257.1	4	89.1	4	-1E+10	1	-1E+10	1	-1E+10	1	-1E+10	1	-1E+10	1	-1E+10	1
4901784	96	C	02/19/2018	10:44	-133.076	43.436	0	112.70	0	8.3610	0	33.0510	4	25.692	0	111.771	0	256.8	4	89.0	4	-1E+10	1	-1E+10	1	-1E+10	1	-1E+10	1	-1E+10	1	-1E+10	1
4901784	96	C	02/19/2018	10:44	-133.076	43.436	0	114.50	0	8.3140	0	33.0550	4	25.702	0	113.555	0	256.4	4	88.7	4	-1E+10	1	-1E+10	1	-1E+10	1	-1E+10	1	-1E+10	1	-1E+10	1
4901784	96	C	02/19/2018	10:44	-133.076	43.436	0	117.20	0	8.1530	0	33.0690	4	25.737	0	116.232	0	256.4	4	88.4	4	-1E+10	1	-1E+10	1	-1E+10	1	-1E+10	1	-1E+10	1	-1E+10	1
4901784	96	C	02/19/2018	10:44	-133.076	43.436	0	120.00	0	8.1000	0	33.0730	4	25.748	0	119.008	0	256.1	4	88.2	4	-1E+10	1	-1E+10	1	-1E+10	1	-1E+10	1	-1E+10	1	-1E+10	1
4901784	96	C	02/19/2018	10:44	-133.076	43.436	0	122.70	0	8.0940	0	33.0820	4	25.756	0	121.685	0	254.9	4	87.8	4	-1E+10	1	-1E+10	1	-1E+10	1	-1E+10	1	-1E+10	1	-1E+10	1
4901784	96	C	02/19/2018	10:44	-133.076	43.436	0	125.60	0	8.0940	0	33.1010	4	25.771	0	124.561	0	253.3	4	87.2	4	-1E+10	1	-1E+10	1	-1E+10	1	-1E+10	1	-1E+10	1	-1E+10	1
4901784	96	C	02/19/2018	10:44	-133.076	43.436	0	127.50	0	8.1040	0	33.1090	4	25.776	0	126.444	0	252.1	4	86.9	4	-1E+10	1	-1E+10	1	-1E+10	1	-1E+10	1	-1E+10	1	-1E+10	1
4901784	96	C	02/19/2018	10:44	-133.076	43.436	0	130.30	0	8.1160	0	33.1360	4	25.795	0	129.220	0	250.1	4	86.2	4	-1E+10	1	-1E+10	1	-1E+10	1	-1E+10	1	-1E+10	1	-1E+10	1
4901784	96	C	02/19/2018	10:44	-133.076	43.436	0	132.90	0	8.1280	0	33.1630	4	25.815	0	131.798	0	248.0	4	85.5	4	-1E+10	1	-1E+10	1	-1E+10	1	-1E+10	1	-1E+10	1	-1E+10	1
4901784	96	C	02/19/2018	10:44	-133.076	43.436	0	135.30	0	8.1460	0	33.1890	4	25.833	0	134.177	0	246.3	4	85.0	4	-1E+10	1	-1E+10	1	-1E+10	1	-1E+10	1	-1E+10	1	-1E+10	1
4901784	96	C	02/19/2018	10:44	-133.076	43.436	0	137.80	0	8.1580	0	33.2140	4	25.850	0	136.656	0	243.7	4	84.1	4	-1E+10	1	-1E+10	1	-1E+10	1	-1E+10	1	-1E+10	1	-1E+10	1
4901784	96	C	02/19/2018	10:44	-133.076	43.436	0	140.20	0	8.1750	0	33.2420	4	25.870	0	139.035	0	241.2	4	83.3	4	-1E+10	1	-1E+10	1	-1E+10	1	-1E+10	1	-1E+10	1	-1E+10	1
4901784	96	C	02/19/2018	10:44	-133.076	43.436	0	142.60	0	8.1850	0	33.2620	4	25.884	0	141.414	0	238.5	4	82.4	4	-1E+10	1	-1E+10	1	-1E+10	1	-1E+10	1	-1E+10	1	-1E+10	1
4901784	96	C	02/19/2018	10:44	-133.076	43.436	0	145.00	0	8.2100	0	33.2850	4	25.899	0	143.793	0	234.9	4	81.2	4	-1E+10	1	-1E+10	1	-1E+10	1	-1E+10	1	-1E+10	1	-1E+10	1
4901784	96	C	02/19/2018	10:44	-133.076	43.436	0	147.40	0	8.2550	0	33.3530	4	25.945	0	146.172	0	231.1	4	80.1	4	-1E+10	1	-1E+10	1	-1E+10	1	-1E+10	1	-1E+10	1	-1E+10	1
4901784	96	C	02/19/2018	10:44	-133.076	43.436	0	149.70	0	8.2740	0	33.3840	4	25.967	0	148.452	0	228.2	4	79.1	4	-1E+10	1	-1E+10	1	-1E+10	1	-1E+10	1	-1E+10	1	-1E+10	1
4901784	96	C	02/19/2018	10:44	-133.076	43.436	0	152.00	0	8.3010	0	33.4070	4	25.981	0	150.732	0	224.4	4	77.8	4	-1E+10	1	-1E+10	1	-1E+10	1	-1E+10	1	-1E+10	1	-1E+10	1
4901784	96	C	02/19/2018	10:44	-133.076	43.436	0	155.20	0	8.3350	0	33.4750	4	26.029	0	153.905	0	218.3	4	75.8	4	-1E+10	1	-1E+10	1	-1E+10	1	-1E+10	1	-1E+10	1	-1E+10	1
4901784	96	C	02/19/2018	10:44	-133.076	43.436	0	157.70	0	8.3730	0	33.5800	4	26.106	0	156.383	0	213.4	4	74.2	4	-1E+10	1	-1E+10	1	-1E+10	1	-1E+10	1	-1E+10	1	-1E+10	1
4901784	96	C	02/19/2018	10:44	-133.076	43.436	0	160.30	0	8.4310	0	33.6740	4	26.171	0	158.960	0	209.6	4	73.0	4	-1E+10	1	-1E+10	1	-1E+10	1	-1E+10	1	-1E+10	1	-1E+10	1
4901784	96	C	02/19/2018	10:44	-133.076	43.436	0	162.80	0	8.4730	0	33.7370	4	26.214	0	161.438	0	206.8	4	72.2	4	-1E+10	1	-1E+10	1	-1E+10	1	-1E+10	1	-1E+10	1	-1E+10	1
4901784	96	C	02/19/2018	10:44	-133.076	43.436	0	164.50	0	8.4790	0	33.7550	4	26.227	0	163.123	0	205.6	4	71.8	4	-1E+10	1	-1E+10	1	-1E+10	1	-1E+10	1	-1E+10	1	-1E+10	1
4901784	96	C	02/19/2018	10:44	-133.076	43.436	0	167.20	0	8.5100	0	33.8000	4	26.258	0	165.800	0	203.4	4	71.1	4	-1E+10	1	-1E+10	1	-1E+10	1	-1E+10	1	-1E+10	1	-1E+10	1
4901784	96	C	02/19/2018	10:44	-133.076	43.436	0	169.90	0	8.5370	0	33.8340	4	26.280	0	168.476	0	201.6	4	70.5	4	-1E+10	1	-1E+10	1	-1E+10	1	-1E+10	1	-1E+10	1	-1E+10	1
4901784	96	C	02/19/2018	10:44	-133.076	43.436	0	172.60	0	8.5500	0	33.8480	4	26.289	0	171.152	0	200.0	4	70.0	4	-1E+10	1	-1E+10	1	-1E+10	1	-1E+10	1	-1E+10	1	-1E+10	1
4901784	96	C	02/19/2018	10:44	-133.076	43.436	0	175.50	0	8.5680	0	33.8680	4	26.302	0	174.027	0	198.0	4	69.3	4	-1E+10	1	-1E+10	1	-1E+10	1	-1E+10	1	-1E+10	1	-1E+10	1
4901784	96	C	02/19/2018	10:44	-133.076	43.436	0	177.30	0	8.5970	0	33.9060	4	26.328	0	175.811	0	196.5	4	68.9	4	-1E+10	1	-1E+10	1	-1E+10	1	-1E+10	1	-1E+10	1	-1E+10	1
4901784	96	C	02/19/2018	10:44	-133.076	43.436	0	180.00	0	8.6270	0	33.9370	4	26.347	0	178.487	0	195.1	4	68.4	4	-1E+10	1	-1E+10	1	-1E+10	1	-1E+10	1	-1E+10	1	-1E+10	1
4901784	96	C	02/19/2018	10:44	-133.076	43.436	0	182.90	0	8.6670	0	33.9820	4	26.377	0	181.361	0	193.6	4	68.0	4	-1E+10	1	-1E+10	1	-1E+10	1	-1E+10	1	-1E+10	1	-1E+10	1
4901784	96	C	02/19/2018	10:44	-133.076	43.436	0	184.70	0	8.6830	0	34.0020	4	26.390	0	183.145	0	192.8	4	67.7	4	-1E+10	1	-1E+10	1	-1E+10	1	-1E+10	1	-1E+10	1	-1E+10	1
4901784	96	C	02/19/2018	10:44	-133.076	43.436	0	187.50	0	8.6970	0	34.0210	4	26.403	0	185.920	0	192.0	4	67.5	4	-1E+10	1	-1E+10	1	-1E+10	1	-1E+10	1	-1E+10	1	-1E+10	1
4901784	96	C	02/19/2018	10:44	-133.076	43.436	0	190.30	0	8.7010	0	34.0310	4	26.410	0	188.696	0	191.3	4	67.3	4	-1E+10	1	-1E+10	1	-1E+10	1	-1E+10	1	-1E+10	1	-1E+10	1
4901784	96	C	02/19/2018	10:44	-133.076	43.436	0	192.10	0	8.6990	0	34.0400	4	26.417	0	190.480	0	191.0	4	67.1	4	-1E+10	1	-1E+10	1	-1E+10	1	-1E+10	1	-1E+10	1	-1E+10	1
4901784	96	C	02/19/2018	10:44	-133.076	43.436	0	194.90	0	8.6970	0	34.0450	4	26.421	0	193.255	0	190.4	4	66.9	4	-1E+10	1	-1E+10	1	-1E+10	1	-1E+10	1	-1E+10	1	-1E+10	1
4901784	96	C	02/19/2018	10:44	-133.076	43.436	0	198.20	0	8.6950	0	34.0490	4	26.425	0	196.525	0	189.9	4	66.8	4	-1E+10	1	-1E+10	1	-1E+10	1	-1E+10	1	-1E+10	1	-1E+10	1
4901784	96	C	02/19/2018	10:44	-133.076	43.436	0	200.10	0	8.6950	0	34.0520	4	26.427	0	198.408	0	189.5	4	66.6	4	-1E+10	1	-1E+10	1	-1E+10	1	-1E+10	1	-1E+10	1	-1E+10	1
4901784	96	C	02/19/2018	10:44	-133.076	43.436	0	202.40	0	8.6900	0	34.0580	4	26.433	0	200.688	0	188.8	4	66.3	4	-1E+10	1	-1E+10	1	-1E+10	1	-1E+10	1	-1E+10	1	-1E+10	1
4901784	96	C	02/19/2018	10:44	-133.076	43.436	0	204.80	0	8.6880	0	34.0600	4	26.435	0	203.066	0	188.2	4	66.1	4	-1E+10	1	-1E+10	1	-1E+10	1	-1E+10	1	-1E+10	1	-1E+10	1
4901784	96	C	02/19/2018	10:44	-133.076	43.436	0	207.10	0	8.6780	0	34.0650	4	26.440	0	205.346	0	187.3	4	65.8	4	-1E+10	1	-1E+10	1	-1E+10	1	-1E+10	1	-1E+10	1	-1E+10	1
4901784	96	C	02/19/2018	10:44	-133.076	43.436	0	210.30	0	8.6620	0	34.0690	4	26.446	0	208.517	0	186.0	4	65.4	4	-1E+10	1	-1E+10	1	-1E+10	1	-1E+10	1	-1E+10	1	-1E+10	1
4901784	96	C	02/19/2018	10:44	-133.076	43.436	0	212.70	0	8.6180	0	34.0750	4	26.457	0	210.895	0	185.2	4	65.0	4	-1E+10	1	-1E+10	1	-1E+10	1	-1E+10	1	-1E+10	1	-1E+10	1
4901784	96	C	02/19/2018	10:44	-133.076	43.436	0	215.10	0	8.6040	0	34.0750	4	26.460	0	213.274	0	184.4	4	64.7	4	-1E+10	1	-1E+10	1	-1E+10	1	-1E+10	1	-1E+10	1	-1E+10	1
4901784	96	C	02/19/2018	10:44	-133.076	43.436	0	217.50	0	8.5710	0	34.0750	4	26.465	0	215.652	0	183.5	4	64.3	4	-1E+10	1	-1E+10	1	-1E+10	1	-1E+10	1	-1E+10	1	-1E+10	1
4901784	96	C	02/19/2018	10:44	-133.076	43.436	0	219.90	0	8.5430	0	34.0760	4	26.470	0	218.030	0	182.6	4	64.0	4	-1E+10	1	-1E+10	1	-1E+10	1	-1E+10	1	-1E+10	1	-1E+10	1
4901784	96	C	02/19/2018	10:44	-133.076	43.436	0	222.30	0	8.5280	0	34.0750	4	26.471	0	220.409	0	181.7	4	63.6	4	-1E+10	1	-1E+10	1	-1E+10	1	-1E+10	1	-1E+10	1	-1E+10	1
4901784	96	C	02/19/2018	10:44	-133.076	43.436	0	224.90	0	8.4910	0	34.0750	4	26.477	0	222.985	0	180.5	4	63.2	4	-1E+10	1	-1E+10	1	-1E+10	1	-1E+10	1	-1E+10	1	-1E+10	1
4901784	96	C	02/19/2018	10:44	-133.076	43.436	0	227.40	0	8.4470	0	34.0740	4	26.483	0	225.463	0	179.1	4	62.6	4	-1E+10	1	-1E+10	1	-1E+10	1	-1E+10	1	-1E+10	1	-1E+10	1
4901784	96	C	02/19/2018	10:44	-133.076	43.436	0	229.90	0	8.4030	0	34.0720	4	26.488	0	227.940	0	177.9	4	62.1	4	-1E+10	1	-1E+10	1	-1E+10	1	-1E+10	1	-1E+10	1	-1E+10	1
4901784	96	C	02/19/2018	10:44	-133.076	43.436	0	232.50	0	8.3700	0	34.0690	4	26.491	0	230.516	0	176.3	4	61.6	4	-1E+10	1	-1E+10	1	-1E+10	1	-1E+10	1	-1E+10	1	-1E+10	1
4901784	96	C	02/19/2018	10:44	-133.076	43.436	0	235.00	0	8.2770	0	34.0680	4	26.504	0	232.993	0	174.9	4	60.9	4	-1E+10	1	-1E+10	1	-1E+10	1	-1E+10	1	-1E+10	1	-1E+10	1
4901784	96	C	02/19/2018	10:44	-133.076	43.436	0	237.50	0	8.2390	0	34.0650	4	26.508	0	235.471	0	173.6	4	60.4	4	-1E+10	1	-1E+10	1	-1E+10	1	-1E+10	1	-1E+10	1	-1E+10	1
4901784	96	C	02/19/2018	10:44	-133.076	43.436	0	240.10	0	8.1760	0	34.0640	4	26.516	0	238.047	0	172.3	4	59.9	4	-1E+10	1	-1E+10	1	-1E+10	1	-1E+10	1	-1E+10	1	-1E+10	1
4901784	96	C	02/19/2018	10:44	-133.076	43.436	0	242.70	0	8.1320	0	34.0620	4	26.521	0	240.623	0	171.4	4	59.5	4	-1E+10	1	-1E+10	1	-1E+10	1	-1E+10	1	-1E+10	1	-1E+10	1
4901784	96	C	02/19/2018	10:44	-133.076	43.436	0	245.30	0	8.1080	0	34.0600	4	26.523	0	243.199	0	169.9	4	59.0	4	-1E+10	1	-1E+10	1	-1E+10	1	-1E+10	1	-1E+10	1	-1E+10	1
4901784	96	C	02/19/2018	10:44	-133.076	43.436	0	247.90	0	8.0380	0	34.0580	4	26.532	0	245.776	0	168.7	4	58.5	4	-1E+10	1	-1E+10	1	-1E+10	1	-1E+10	1	-1E+10	1	-1E+10	1
4901784	96	C	02/19/2018	10:44	-133.076	43.436	0	249.60	0	8.0310	0	34.0570	4	26.533	0	247.460	0	167.8	4	58.1	4	-1E+10	1	-1E+10	1	-1E+10	1	-1E+10	1	-1E+10	1	-1E+10	1
4901784	96	C	02/19/2018	10:44	-133.076	43.436	0	252.20	0	7.9820	0	34.0560	4	26.539	0	250.036	0	166.4	4	57.6	4	-1E+10	1	-1E+10	1	-1E+10	1	-1E+10	1	-1E+10	1	-1E+10	1
4901784	96	C	02/19/2018	10:44	-133.076	43.436	0	254.80	0	7.9380	0	34.0550	4	26.545	0	252.612	0	165.0	4	57.0	4	-1E+10	1	-1E+10	1	-1E+10	1	-1E+10	1	-1E+10	1	-1E+10	1
4901784	96	C	02/19/2018	10:44	-133.076	43.436	0	257.30	0	7.9110	0	34.0530	4	26.547	0	255.089	0	163.4	4	56.5	4	-1E+10	1	-1E+10	1	-1E+10	1	-1E+10	1	-1E+10	1	-1E+10	1
4901784	96	C	02/19/2018	10:44	-133.076	43.436	0	260.00	0	7.8470	0	34.0510	4	26.555	0	257.764	0	161.6	4	55.7	4	-1E+10	1	-1E+10	1	-1E+10	1	-1E+10	1	-1E+10	1	-1E+10	1
4901784	96	C	02/19/2018	10:44	-133.076	43.436	0	262.60	0	7.7970	0	34.0490	4	26.561	0	260.340	0	159.9	4	55.1	4	-1E+10	1	-1E+10	1	-1E+10	1	-1E+10	1	-1E+10	1	-1E+10	1
4901784	96	C	02/19/2018	10:44	-133.076	43.436	0	265.20	0	7.7490	0	34.0480	4	26.567	0	262.916	0	158.1	4	54.4	4	-1E+10	1	-1E+10	1	-1E+10	1	-1E+10	1	-1E+10	1	-1E+10	1
4901784	96	C	02/19/2018	10:44	-133.076	43.436	0	267.70	0	7.6950	0	34.0460	4	26.573	0	265.393	0	155.9	4	53.6	4	-1E+10	1	-1E+10	1	-1E+10	1	-1E+10	1	-1E+10	1	-1E+10	1
4901784	96	C	02/19/2018	10:44	-133.076	43.436	0	270.20	0	7.5840	0	34.0420	4	26.586	0	267.870	0	154.1	4	52.8	4	-1E+10	1	-1E+10	1	-1E+10	1	-1E+10	1	-1E+10	1	-1E+10	1
4901784	96	C	02/19/2018	10:44	-133.076	43.436	0	272.70	0	7.5360	0	34.0430	4	26.594	0	270.347	0	152.8	4	52.3	4	-1E+10	1	-1E+10	1	-1E+10	1	-1E+10	1	-1E+10	1	-1E+10	1
4901784	96	C	02/19/2018	10:44	-133.076	43.436	0	275.30	0	7.5070	0	34.0440	4	26.599	0	272.923	0	151.6	4	51.9	4	-1E+10	1	-1E+10	1	-1E+10	1	-1E+10	1	-1E+10	1	-1E+10	1
4901784	96	C	02/19/2018	10:44	-133.076	43.436	0	277.10	0	7.4610	0	34.0400	4	26.602	0	274.706	0	150.7	4	51.5	4	-1E+10	1	-1E+10	1	-1E+10	1	-1E+10	1	-1E+10	1	-1E+10	1
4901784	96	C	02/19/2018	10:44	-133.076	43.436	0	279.70	0	7.4010	0	34.0400	4	26.611	0	277.282	0	149.7	4	51.1	4	-1E+10	1	-1E+10	1	-1E+10	1	-1E+10	1	-1E+10	1	-1E+10	1
4901784	96	C	02/19/2018	10:44	-133.076	43.436	0	282.30	0	7.3740	0	34.0380	4	26.613	0	279.858	0	148.9	4	50.8	4	-1E+10	1	-1E+10	1	-1E+10	1	-1E+10	1	-1E+10	1	-1E+10	1
4901784	96	C	02/19/2018	10:44	-133.076	43.436	0	285.00	0	7.3420	0	34.0370	4	26.617	0	282.532	0	148.0	4	50.5	4	-1E+10	1	-1E+10	1	-1E+10	1	-1E+10	1	-1E+10	1	-1E+10	1
4901784	96	C	02/19/2018	10:44	-133.076	43.436	0	287.60	0	7.3030	0	34.0360	4	26.621	0	285.108	0	147.2	4	50.2	4	-1E+10	1	-1E+10	1	-1E+10	1	-1E+10	1	-1E+10	1	-1E+10	1
4901784	96	C	02/19/2018	10:44	-133.076	43.436	0	290.30	0	7.2820	0	34.0350	4	26.624	0	287.783	0	146.5	4	49.9	4	-1E+10	1	-1E+10	1	-1E+10	1	-1E+10	1	-1E+10	1	-1E+10	1
4901784	96	C	02/19/2018	10:44	-133.076	43.436	0	292.90	0	7.2680	0	34.0340	4	26.625	0	290.358	0	145.5	4	49.5	4	-1E+10	1	-1E+10	1	-1E+10	1	-1E+10	1	-1E+10	1	-1E+10	1
4901784	96	C	02/19/2018	10:44	-133.076	43.436	0	294.80	0	7.2400	0	34.0340	4	26.629	0	292.241	0	144.8	4	49.3	4	-1E+10	1	-1E+10	1	-1E+10	1	-1E+10	1	-1E+10	1	-1E+10	1
4901784	96	C	02/19/2018	10:44	-133.076	43.436	0	297.40	0	7.2280	0	34.0310	4	26.628	0	294.816	0	143.3	4	48.7	4	-1E+10	1	-1E+10	1	-1E+10	1	-1E+10	1	-1E+10	1	-1E+10	1
4901784	96	C	02/19/2018	10:44	-133.076	43.436	0	300.00	0	7.2060	0	34.0290	4	26.630	0	297.392	0	141.4	4	48.1	4	-1E+10	1	-1E+10	1	-1E+10	1	-1E+10	1	-1E+10	1	-1E+10	1
4901784	96	C	02/19/2018	10:44	-133.076	43.436	0	302.60	0	7.1140	0	34.0260	4	26.640	0	299.967	0	138.9	4	47.1	4	-1E+10	1	-1E+10	1	-1E+10	1	-1E+10	1	-1E+10	1	-1E+10	1
4901784	96	C	02/19/2018	10:44	-133.076	43.436	0	305.20	0	7.0020	0	34.0260	4	26.655	0	302.543	0	137.0	4	46.4	4	-1E+10	1	-1E+10	1	-1E+10	1	-1E+10	1	-1E+10	1	-1E+10	1
4901784	96	C	02/19/2018	10:44	-133.076	43.436	0	307.10	0	6.9380	0	34.0250	4	26.663	0	304.425	0	135.9	4	45.9	4	-1E+10	1	-1E+10	1	-1E+10	1	-1E+10	1	-1E+10	1	-1E+10	1
4901784	96	C	02/19/2018	10:44	-133.076	43.436	0	309.80	0	6.8880	0	34.0240	4	26.669	0	307.099	0	134.5	4	45.4	4	-1E+10	1	-1E+10	1	-1E+10	1	-1E+10	1	-1E+10	1	-1E+10	1
4901784	96	C	02/19/2018	10:44	-133.076	43.436	0	312.60	0	6.8650	0	34.0210	4	26.670	0	309.873	0	132.7	4	44.8	4	-1E+10	1	-1E+10	1	-1E+10	1	-1E+10	1	-1E+10	1	-1E+10	1
4901784	96	C	02/19/2018	10:44	-133.076	43.436	0	314.40	0	6.7720	0	34.0210	4	26.683	0	311.656	0	131.3	4	44.2	4	-1E+10	1	-1E+10	1	-1E+10	1	-1E+10	1	-1E+10	1	-1E+10	1
4901784	96	C	02/19/2018	10:44	-133.076	43.436	0	317.30	0	6.6970	0	34.0200	4	26.692	0	314.528	0	130.2	4	43.8	4	-1E+10	1	-1E+10	1	-1E+10	1	-1E+10	1	-1E+10	1	-1E+10	1
4901784	96	C	02/19/2018	10:44	-133.076	43.436	0	320.10	0	6.6500	0	34.0200	4	26.698	0	317.302	0	129.3	4	43.4	4	-1E+10	1	-1E+10	1	-1E+10	1	-1E+10	1	-1E+10	1	-1E+10	1
4901784	96	C	02/19/2018	10:44	-133.076	43.436	0	322.00	0	6.6420	0	34.0200	4	26.699	0	319.184	0	128.4	4	43.1	4	-1E+10	1	-1E+10	1	-1E+10	1	-1E+10	1	-1E+10	1	-1E+10	1
4901784	96	C	02/19/2018	10:44	-133.076	43.436	0	324.80	0	6.5840	0	34.0190	4	26.706	0	321.957	0	127.4	4	42.7	4	-1E+10	1	-1E+10	1	-1E+10	1	-1E+10	1	-1E+10	1	-1E+10	1
4901784	96	C	02/19/2018	10:44	-133.076	43.436	0	327.60	0	6.5290	0	34.0180	4	26.713	0	324.730	0	126.5	4	42.3	4	-1E+10	1	-1E+10	1	-1E+10	1	-1E+10	1	-1E+10	1	-1E+10	1
4901784	96	C	02/19/2018	10:44	-133.076	43.436	0	329.40	0	6.5240	0	34.0180	4	26.713	0	326.513	0	125.9	4	42.1	4	-1E+10	1	-1E+10	1	-1E+10	1	-1E+10	1	-1E+10	1	-1E+10	1
4901784	96	C	02/19/2018	10:44	-133.076	43.436	0	332.20	0	6.4940	0	34.0160	4	26.716	0	329.286	0	124.8	4	41.7	4	-1E+10	1	-1E+10	1	-1E+10	1	-1E+10	1	-1E+10	1	-1E+10	1
4901784	96	C	02/19/2018	10:44	-133.076	43.436	0	334.80	0	6.4300	0	34.0170	4	26.725	0	331.861	0	123.7	4	41.3	4	-1E+10	1	-1E+10	1	-1E+10	1	-1E+10	1	-1E+10	1	-1E+10	1
4901784	96	C	02/19/2018	10:44	-133.076	43.436	0	337.60	0	6.4150	0	34.0150	4	26.725	0	334.635	0	122.7	4	41.0	4	-1E+10	1	-1E+10	1	-1E+10	1	-1E+10	1	-1E+10	1	-1E+10	1
4901784	96	C	02/19/2018	10:44	-133.076	43.436	0	340.50	0	6.3960	0	34.0130	4	26.726	0	337.507	0	121.4	4	40.5	4	-1E+10	1	-1E+10	1	-1E+10	1	-1E+10	1	-1E+10	1	-1E+10	1
4901784	96	C	02/19/2018	10:44	-133.076	43.436	0	342.30	0	6.3680	0	34.0120	4	26.729	0	339.289	0	120.4	4	40.1	4	-1E+10	1	-1E+10	1	-1E+10	1	-1E+10	1	-1E+10	1	-1E+10	1
4901784	96	C	02/19/2018	10:44	-133.076	43.436	0	345.20	0	6.3150	0	34.0110	4	26.735	0	342.162	0	118.6	4	39.5	4	-1E+10	1	-1E+10	1	-1E+10	1	-1E+10	1	-1E+10	1	-1E+10	1
4901784	96	C	02/19/2018	10:44	-133.076	43.436	0	348.10	0	6.2240	0	34.0070	4	26.744	0	345.034	0	117.1	4	38.9	4	-1E+10	1	-1E+10	1	-1E+10	1	-1E+10	1	-1E+10	1	-1E+10	1
4901784	96	C	02/19/2018	10:44	-133.076	43.436	0	350.00	0	6.2070	0	34.0070	4	26.746	0	346.915	0	116.2	4	38.6	4	-1E+10	1	-1E+10	1	-1E+10	1	-1E+10	1	-1E+10	1	-1E+10	1
4901784	96	C	02/19/2018	10:44	-133.076	43.436	0	351.90	0	6.1850	0	34.0050	4	26.747	0	348.797	0	115.2	4	38.3	4	-1E+10	1	-1E+10	1	-1E+10	1	-1E+10	1	-1E+10	1	-1E+10	1
4901784	96	C	02/19/2018	10:44	-133.076	43.436	0	354.70	0	6.1420	0	34.0050	4	26.753	0	351.570	0	113.8	4	37.8	4	-1E+10	1	-1E+10	1	-1E+10	1	-1E+10	1	-1E+10	1	-1E+10	1
4901784	96	C	02/19/2018	10:44	-133.076	43.436	0	357.50	0	6.1070	0	34.0040	4	26.756	0	354.343	0	112.2	4	37.2	4	-1E+10	1	-1E+10	1	-1E+10	1	-1E+10	1	-1E+10	1	-1E+10	1
4901784	96	C	02/19/2018	10:44	-133.076	43.436	0	359.40	0	6.0740	0	34.0030	4	26.760	0	356.224	0	111.1	4	36.8	4	-1E+10	1	-1E+10	1	-1E+10	1	-1E+10	1	-1E+10	1	-1E+10	1
4901784	96	C	02/19/2018	10:44	-133.076	43.436	0	362.30	0	6.0210	0	34.0020	4	26.765	0	359.096	0	109.5	4	36.2	4	-1E+10	1	-1E+10	1	-1E+10	1	-1E+10	1	-1E+10	1	-1E+10	1
4901784	96	C	02/19/2018	10:44	-133.076	43.436	0	365.10	0	5.9360	0	34.0030	4	26.777	0	361.869	0	108.0	4	35.6	4	-1E+10	1	-1E+10	1	-1E+10	1	-1E+10	1	-1E+10	1	-1E+10	1
4901784	96	C	02/19/2018	10:44	-133.076	43.436	0	367.00	0	5.9260	0	34.0020	4	26.777	0	363.751	0	107.3	4	35.4	4	-1E+10	1	-1E+10	1	-1E+10	1	-1E+10	1	-1E+10	1	-1E+10	1
4901784	96	C	02/19/2018	10:44	-133.076	43.436	0	369.90	0	5.9120	0	34.0010	4	26.778	0	366.622	0	105.9	4	34.9	4	-1E+10	1	-1E+10	1	-1E+10	1	-1E+10	1	-1E+10	1	-1E+10	1
4901784	96	C	02/19/2018	10:44	-133.076	43.436	0	372.70	0	5.8500	0	34.0020	4	26.787	0	369.395	0	104.3	4	34.4	4	-1E+10	1	-1E+10	1	-1E+10	1	-1E+10	1	-1E+10	1	-1E+10	1
4901784	96	C	02/19/2018	10:44	-133.076	43.436	0	374.60	0	5.8250	0	34.0030	4	26.791	0	371.276	0	103.6	4	34.1	4	-1E+10	1	-1E+10	1	-1E+10	1	-1E+10	1	-1E+10	1	-1E+10	1
4901784	96	C	02/19/2018	10:44	-133.076	43.436	0	377.50	0	5.7760	0	34.0040	4	26.798	0	374.148	0	102.3	4	33.7	4	-1E+10	1	-1E+10	1	-1E+10	1	-1E+10	1	-1E+10	1	-1E+10	1
4901784	96	C	02/19/2018	10:44	-133.076	43.436	0	379.90	0	5.7340	0	34.0050	4	26.804	0	376.525	0	101.1	4	33.2	4	-1E+10	1	-1E+10	1	-1E+10	1	-1E+10	1	-1E+10	1	-1E+10	1
4901784	96	C	02/19/2018	10:44	-133.076	43.436	0	382.20	0	5.7040	0	34.0060	4	26.808	0	378.802	0	99.5	4	32.7	4	-1E+10	1	-1E+10	1	-1E+10	1	-1E+10	1	-1E+10	1	-1E+10	1
4901784	96	C	02/19/2018	10:44	-133.076	43.436	0	384.70	0	5.6630	0	34.0070	4	26.814	0	381.278	0	97.9	4	32.1	4	-1E+10	1	-1E+10	1	-1E+10	1	-1E+10	1	-1E+10	1	-1E+10	1
4901784	96	C	02/19/2018	10:44	-133.076	43.436	0	387.90	0	5.6420	0	34.0090	4	26.818	0	384.446	0	95.5	4	31.3	4	-1E+10	1	-1E+10	1	-1E+10	1	-1E+10	1	-1E+10	1	-1E+10	1
4901784	96	C	02/19/2018	10:44	-133.076	43.436	0	390.30	0	5.6280	0	34.0090	4	26.820	0	386.822	0	93.7	4	30.7	4	-1E+10	1	-1E+10	1	-1E+10	1	-1E+10	1	-1E+10	1	-1E+10	1
4901784	96	C	02/19/2018	10:44	-133.076	43.436	0	392.70	0	5.5950	0	34.0110	4	26.825	0	389.199	0	91.5	4	30.0	4	-1E+10	1	-1E+10	1	-1E+10	1	-1E+10	1	-1E+10	1	-1E+10	1
4901784	96	C	02/19/2018	10:44	-133.076	43.436	0	395.10	0	5.5570	0	34.0170	4	26.835	0	391.575	0	89.4	4	29.3	4	-1E+10	1	-1E+10	1	-1E+10	1	-1E+10	1	-1E+10	1	-1E+10	1
4901784	96	C	02/19/2018	10:44	-133.076	43.436	0	397.50	0	5.5440	0	34.0180	4	26.837	0	393.952	0	88.1	4	28.8	4	-1E+10	1	-1E+10	1	-1E+10	1	-1E+10	1	-1E+10	1	-1E+10	1
4901784	96	C	02/19/2018	10:44	-133.076	43.436	0	400.00	0	5.5390	0	34.0180	4	26.838	0	396.427	0	86.9	4	28.4	4	-1E+10	1	-1E+10	1	-1E+10	1	-1E+10	1	-1E+10	1	-1E+10	1
4901784	96	C	02/19/2018	10:44	-133.076	43.436	0	402.50	0	5.5340	0	34.0190	4	26.839	0	398.902	0	85.2	4	27.9	4	-1E+10	1	-1E+10	1	-1E+10	1	-1E+10	1	-1E+10	1	-1E+10	1
4901784	96	C	02/19/2018	10:44	-133.076	43.436	0	405.00	0	5.5210	0	34.0190	4	26.841	0	401.377	0	83.1	4	27.2	4	-1E+10	1	-1E+10	1	-1E+10	1	-1E+10	1	-1E+10	1	-1E+10	1
4901784	96	C	02/19/2018	10:44	-133.076	43.436	0	407.40	0	5.4800	0	34.0230	4	26.849	0	403.753	0	80.7	4	26.4	4	-1E+10	1	-1E+10	1	-1E+10	1	-1E+10	1	-1E+10	1	-1E+10	1
4901784	96	C	02/19/2018	10:44	-133.076	43.436	0	409.90	0	5.4440	0	34.0260	4	26.855	0	406.229	0	78.7	4	25.7	4	-1E+10	1	-1E+10	1	-1E+10	1	-1E+10	1	-1E+10	1	-1E+10	1
4901784	96	C	02/19/2018	10:44	-133.076	43.436	0	412.40	0	5.4160	0	34.0300	4	26.862	0	408.704	0	76.7	4	25.0	4	-1E+10	1	-1E+10	1	-1E+10	1	-1E+10	1	-1E+10	1	-1E+10	1
4901784	96	C	02/19/2018	10:44	-133.076	43.436	0	414.90	0	5.3920	0	34.0340	4	26.868	0	411.179	0	75.0	4	24.5	4	-1E+10	1	-1E+10	1	-1E+10	1	-1E+10	1	-1E+10	1	-1E+10	1
4901784	96	C	02/19/2018	10:44	-133.076	43.436	0	417.40	0	5.3670	0	34.0360	4	26.872	0	413.654	0	73.8	4	24.1	4	-1E+10	1	-1E+10	1	-1E+10	1	-1E+10	1	-1E+10	1	-1E+10	1
4901784	96	C	02/19/2018	10:44	-133.076	43.436	0	419.90	0	5.3600	0	34.0360	4	26.873	0	416.129	0	72.5	4	23.6	4	-1E+10	1	-1E+10	1	-1E+10	1	-1E+10	1	-1E+10	1	-1E+10	1
4901784	96	C	02/19/2018	10:44	-133.076	43.436	0	422.30	0	5.3010	0	34.0390	4	26.883	0	418.505	0	70.9	4	23.1	4	-1E+10	1	-1E+10	1	-1E+10	1	-1E+10	1	-1E+10	1	-1E+10	1
4901784	96	C	02/19/2018	10:44	-133.076	43.436	0	424.90	0	5.2760	0	34.0430	4	26.889	0	421.079	0	69.3	4	22.5	4	-1E+10	1	-1E+10	1	-1E+10	1	-1E+10	1	-1E+10	1	-1E+10	1
4901784	96	C	02/19/2018	10:44	-133.076	43.436	0	427.40	0	5.2450	0	34.0450	4	26.894	0	423.554	0	67.8	4	22.0	4	-1E+10	1	-1E+10	1	-1E+10	1	-1E+10	1	-1E+10	1	-1E+10	1
4901784	96	C	02/19/2018	10:44	-133.076	43.436	0	429.90	0	5.2550	0	34.0500	4	26.897	0	426.029	0	66.1	4	21.5	4	-1E+10	1	-1E+10	1	-1E+10	1	-1E+10	1	-1E+10	1	-1E+10	1
4901784	96	C	02/19/2018	10:44	-133.076	43.436	0	432.40	0	5.2300	0	34.0540	4	26.903	0	428.504	0	64.7	4	21.0	4	-1E+10	1	-1E+10	1	-1E+10	1	-1E+10	1	-1E+10	1	-1E+10	1
4901784	96	C	02/19/2018	10:44	-133.076	43.436	0	434.90	0	5.2230	0	34.0560	4	26.905	0	430.979	0	63.4	4	20.6	4	-1E+10	1	-1E+10	1	-1E+10	1	-1E+10	1	-1E+10	1	-1E+10	1
4901784	96	C	02/19/2018	10:44	-133.076	43.436	0	437.40	0	5.1970	0	34.0630	4	26.914	0	433.454	0	62.3	4	20.2	4	-1E+10	1	-1E+10	1	-1E+10	1	-1E+10	1	-1E+10	1	-1E+10	1
4901784	96	C	02/19/2018	10:44	-133.076	43.436	0	439.90	0	5.1890	0	34.0650	4	26.916	0	435.928	0	61.7	4	20.0	4	-1E+10	1	-1E+10	1	-1E+10	1	-1E+10	1	-1E+10	1	-1E+10	1
4901784	96	C	02/19/2018	10:44	-133.076	43.436	0	442.50	0	5.1750	0	34.0660	4	26.919	0	438.502	0	61.0	4	19.8	4	-1E+10	1	-1E+10	1	-1E+10	1	-1E+10	1	-1E+10	1	-1E+10	1
4901784	96	C	02/19/2018	10:44	-133.076	43.436	0	445.10	0	5.1530	0	34.0670	4	26.922	0	441.076	0	60.3	4	19.6	4	-1E+10	1	-1E+10	1	-1E+10	1	-1E+10	1	-1E+10	1	-1E+10	1
4901784	96	C	02/19/2018	10:44	-133.076	43.436	0	447.80	0	5.1500	0	34.0690	4	26.924	0	443.749	0	59.3	4	19.2	4	-1E+10	1	-1E+10	1	-1E+10	1	-1E+10	1	-1E+10	1	-1E+10	1
4901784	96	C	02/19/2018	10:44	-133.076	43.436	0	450.30	0	5.1340	0	34.0710	4	26.928	0	446.223	0	58.1	4	18.8	4	-1E+10	1	-1E+10	1	-1E+10	1	-1E+10	1	-1E+10	1	-1E+10	1
4901784	96	C	02/19/2018	10:44	-133.076	43.436	0	452.90	0	5.1200	0	34.0750	4	26.932	0	448.797	0	56.8	4	18.4	4	-1E+10	1	-1E+10	1	-1E+10	1	-1E+10	1	-1E+10	1	-1E+10	1
4901784	96	C	02/19/2018	10:44	-133.076	43.436	0	455.40	0	5.1090	0	34.0760	4	26.934	0	451.272	0	55.1	4	17.9	4	-1E+10	1	-1E+10	1	-1E+10	1	-1E+10	1	-1E+10	1	-1E+10	1
4901784	96	C	02/19/2018	10:44	-133.076	43.436	0	457.10	0	5.1120	0	34.0810	4	26.938	0	452.954	0	53.5	4	17.3	4	-1E+10	1	-1E+10	1	-1E+10	1	-1E+10	1	-1E+10	1	-1E+10	1
4901784	96	C	02/19/2018	10:44	-133.076	43.436	0	459.70	0	5.1290	0	34.0900	4	26.943	0	455.528	0	51.2	4	16.6	4	-1E+10	1	-1E+10	1	-1E+10	1	-1E+10	1	-1E+10	1	-1E+10	1
4901784	96	C	02/19/2018	10:44	-133.076	43.436	0	462.30	0	5.1480	0	34.1000	4	26.949	0	458.102	0	49.7	4	16.1	4	-1E+10	1	-1E+10	1	-1E+10	1	-1E+10	1	-1E+10	1	-1E+10	1
4901784	96	C	02/19/2018	10:44	-133.076	43.436	0	464.90	0	5.1440	0	34.1010	4	26.950	0	460.675	0	49.0	4	15.9	4	-1E+10	1	-1E+10	1	-1E+10	1	-1E+10	1	-1E+10	1	-1E+10	1
4901784	96	C	02/19/2018	10:44	-133.076	43.436	0	467.50	0	5.1370	0	34.1040	4	26.954	0	463.249	0	48.4	4	15.7	4	-1E+10	1	-1E+10	1	-1E+10	1	-1E+10	1	-1E+10	1	-1E+10	1
4901784	96	C	02/19/2018	10:44	-133.076	43.436	0	470.10	0	5.1370	0	34.1060	4	26.955	0	465.822	0	47.8	4	15.5	4	-1E+10	1	-1E+10	1	-1E+10	1	-1E+10	1	-1E+10	1	-1E+10	1
4901784	96	C	02/19/2018	10:44	-133.076	43.436	0	472.70	0	5.1340	0	34.1080	4	26.957	0	468.395	0	47.3	4	15.3	4	-1E+10	1	-1E+10	1	-1E+10	1	-1E+10	1	-1E+10	1	-1E+10	1
4901784	96	C	02/19/2018	10:44	-133.076	43.436	0	475.30	0	5.1260	0	34.1090	4	26.959	0	470.969	0	46.7	4	15.1	4	-1E+10	1	-1E+10	1	-1E+10	1	-1E+10	1	-1E+10	1	-1E+10	1
4901784	96	C	02/19/2018	10:44	-133.076	43.436	0	477.90	0	5.1180	0	34.1110	4	26.961	0	473.542	0	46.1	4	14.9	4	-1E+10	1	-1E+10	1	-1E+10	1	-1E+10	1	-1E+10	1	-1E+10	1
4901784	96	C	02/19/2018	10:44	-133.076	43.436	0	479.60	0	5.1120	0	34.1130	4	26.964	0	475.225	0	45.7	4	14.8	4	-1E+10	1	-1E+10	1	-1E+10	1	-1E+10	1	-1E+10	1	-1E+10	1
4901784	96	C	02/19/2018	10:44	-133.076	43.436	0	482.30	0	5.1030	0	34.1150	4	26.966	0	477.897	0	45.2	4	14.7	4	-1E+10	1	-1E+10	1	-1E+10	1	-1E+10	1	-1E+10	1	-1E+10	1
4901784	96	C	02/19/2018	10:44	-133.076	43.436	0	484.90	0	5.0890	0	34.1170	4	26.970	0	480.470	0	44.7	4	14.5	4	-1E+10	1	-1E+10	1	-1E+10	1	-1E+10	1	-1E+10	1	-1E+10	1
4901784	96	C	02/19/2018	10:44	-133.076	43.436	0	487.60	0	5.0810	0	34.1190	4	26.972	0	483.142	0	44.3	4	14.3	4	-1E+10	1	-1E+10	1	-1E+10	1	-1E+10	1	-1E+10	1	-1E+10	1
4901784	96	C	02/19/2018	10:44	-133.076	43.436	0	490.30	0	5.0770	0	34.1190	4	26.973	0	485.815	0	43.8	4	14.2	4	-1E+10	1	-1E+10	1	-1E+10	1	-1E+10	1	-1E+10	1	-1E+10	1
4901784	96	C	02/19/2018	10:44	-133.076	43.436	0	492.10	0	5.0700	0	34.1210	4	26.975	0	487.596	0	43.4	4	14.0	4	-1E+10	1	-1E+10	1	-1E+10	1	-1E+10	1	-1E+10	1	-1E+10	1
4901784	96	C	02/19/2018	10:44	-133.076	43.436	0	494.80	0	5.0690	0	34.1220	4	26.976	0	490.268	0	42.7	4	13.8	4	-1E+10	1	-1E+10	1	-1E+10	1	-1E+10	1	-1E+10	1	-1E+10	1
4901784	96	C	02/19/2018	10:44	-133.076	43.436	0	497.50	0	5.0680	0	34.1240	4	26.978	0	492.940	0	42.1	4	13.6	4	-1E+10	1	-1E+10	1	-1E+10	1	-1E+10	1	-1E+10	1	-1E+10	1
4901784	96	C	02/19/2018	10:44	-133.076	43.436	0	500.20	0	5.0580	0	34.1250	4	26.980	0	495.612	0	41.5	4	13.4	4	-1E+10	1	-1E+10	1	-1E+10	1	-1E+10	1	-1E+10	1	-1E+10	1
4901784	96	C	02/19/2018	10:44	-133.076	43.436	0	504.60	0	5.0120	0	34.1300	4	26.989	0	499.967	0	40.3	4	13.0	4	-1E+10	1	-1E+10	1	-1E+10	1	-1E+10	1	-1E+10	1	-1E+10	1
4901784	96	C	02/19/2018	10:44	-133.076	43.436	0	510.00	0	4.9750	0	34.1370	4	26.999	0	505.310	0	38.7	4	12.5	4	-1E+10	1	-1E+10	1	-1E+10	1	-1E+10	1	-1E+10	1	-1E+10	1
4901784	96	C	02/19/2018	10:44	-133.076	43.436	0	515.50	0	4.9670	0	34.1430	4	27.004	0	510.753	0	37.4	4	12.1	4	-1E+10	1	-1E+10	1	-1E+10	1	-1E+10	1	-1E+10	1	-1E+10	1
4901784	96	C	02/19/2018	10:44	-133.076	43.436	0	520.10	0	4.9610	0	34.1470	4	27.008	0	515.305	0	36.5	4	11.8	4	-1E+10	1	-1E+10	1	-1E+10	1	-1E+10	1	-1E+10	1	-1E+10	1
4901784	96	C	02/19/2018	10:44	-133.076	43.436	0	524.80	0	4.9560	0	34.1500	4	27.011	0	519.956	0	35.9	4	11.6	4	-1E+10	1	-1E+10	1	-1E+10	1	-1E+10	1	-1E+10	1	-1E+10	1
4901784	96	C	02/19/2018	10:44	-133.076	43.436	0	530.40	0	4.9390	0	34.1530	4	27.016	0	525.497	0	35.4	4	11.4	4	-1E+10	1	-1E+10	1	-1E+10	1	-1E+10	1	-1E+10	1	-1E+10	1
4901784	96	C	02/19/2018	10:44	-133.076	43.436	0	535.30	0	4.9070	0	34.1540	4	27.020	0	530.345	0	35.1	4	11.3	4	-1E+10	1	-1E+10	1	-1E+10	1	-1E+10	1	-1E+10	1	-1E+10	1
4901784	96	C	02/19/2018	10:44	-133.076	43.436	0	539.80	0	4.8970	0	34.1560	4	27.023	0	534.798	0	34.5	4	11.1	4	-1E+10	1	-1E+10	1	-1E+10	1	-1E+10	1	-1E+10	1	-1E+10	1
4901784	96	C	02/19/2018	10:44	-133.076	43.436	0	544.60	0	4.8810	0	34.1580	4	27.026	0	539.547	0	33.5	4	10.8	4	-1E+10	1	-1E+10	1	-1E+10	1	-1E+10	1	-1E+10	1	-1E+10	1
4901784	96	C	02/19/2018	10:44	-133.076	43.436	0	549.50	0	4.8590	0	34.1640	4	27.033	0	544.395	0	32.4	4	10.4	4	-1E+10	1	-1E+10	1	-1E+10	1	-1E+10	1	-1E+10	1	-1E+10	1
4901784	96	C	02/19/2018	10:44	-133.076	43.436	0	554.30	0	4.8370	0	34.1670	4	27.038	0	549.145	0	31.6	4	10.2	4	-1E+10	1	-1E+10	1	-1E+10	1	-1E+10	1	-1E+10	1	-1E+10	1
4901784	96	C	02/19/2018	10:44	-133.076	43.436	0	559.30	0	4.8180	0	34.1730	4	27.045	0	554.091	0	30.1	4	9.7	4	-1E+10	1	-1E+10	1	-1E+10	1	-1E+10	1	-1E+10	1	-1E+10	1
4901784	96	C	02/19/2018	10:44	-133.076	43.436	0	564.30	0	4.8140	0	34.1790	4	27.051	0	559.038	0	29.1	4	9.4	4	-1E+10	1	-1E+10	1	-1E+10	1	-1E+10	1	-1E+10	1	-1E+10	1
4901784	96	C	02/19/2018	10:44	-133.076	43.436	0	570.00	0	4.8060	0	34.1840	4	27.055	0	564.677	0	27.6	4	8.9	4	-1E+10	1	-1E+10	1	-1E+10	1	-1E+10	1	-1E+10	1	-1E+10	1
4901784	96	C	02/19/2018	10:44	-133.076	43.436	0	575.00	0	4.7790	0	34.1910	4	27.064	0	569.624	0	26.4	4	8.5	4	-1E+10	1	-1E+10	1	-1E+10	1	-1E+10	1	-1E+10	1	-1E+10	1
4901784	96	C	02/19/2018	10:44	-133.076	43.436	0	579.20	0	4.7610	0	34.1970	4	27.071	0	573.779	0	25.8	4	8.3	4	-1E+10	1	-1E+10	1	-1E+10	1	-1E+10	1	-1E+10	1	-1E+10	1
4901784	96	C	02/19/2018	10:44	-133.076	43.436	0	584.30	0	4.7500	0	34.1990	4	27.074	0	578.824	0	25.2	4	8.1	4	-1E+10	1	-1E+10	1	-1E+10	1	-1E+10	1	-1E+10	1	-1E+10	1
4901784	96	C	02/19/2018	10:44	-133.076	43.436	0	589.30	0	4.7380	0	34.2030	4	27.078	0	583.770	0	24.5	4	7.9	4	-1E+10	1	-1E+10	1	-1E+10	1	-1E+10	1	-1E+10	1	-1E+10	1
4901784	96	C	02/19/2018	10:44	-133.076	43.436	0	594.40	0	4.7220	0	34.2090	4	27.085	0	588.815	0	23.7	4	7.6	4	-1E+10	1	-1E+10	1	-1E+10	1	-1E+10	1	-1E+10	1	-1E+10	1
4901784	96	C	02/19/2018	10:44	-133.076	43.436	0	599.50	0	4.7070	0	34.2120	4	27.089	0	593.860	0	23.3	4	7.5	4	-1E+10	1	-1E+10	1	-1E+10	1	-1E+10	1	-1E+10	1	-1E+10	1
4901784	96	C	02/19/2018	10:44	-133.076	43.436	0	604.60	0	4.6850	0	34.2150	4	27.094	0	598.904	0	22.9	4	7.3	4	-1E+10	1	-1E+10	1	-1E+10	1	-1E+10	1	-1E+10	1	-1E+10	1
4901784	96	C	02/19/2018	10:44	-133.076	43.436	0	609.80	0	4.6630	0	34.2180	4	27.099	0	604.048	0	22.4	4	7.2	4	-1E+10	1	-1E+10	1	-1E+10	1	-1E+10	1	-1E+10	1	-1E+10	1
4901784	96	C	02/19/2018	10:44	-133.076	43.436	0	615.00	0	4.6440	0	34.2220	4	27.104	0	609.191	0	21.6	4	6.9	4	-1E+10	1	-1E+10	1	-1E+10	1	-1E+10	1	-1E+10	1	-1E+10	1
4901784	96	C	02/19/2018	10:44	-133.076	43.436	0	620.20	0	4.6280	0	34.2280	4	27.110	0	614.334	0	20.9	4	6.7	4	-1E+10	1	-1E+10	1	-1E+10	1	-1E+10	1	-1E+10	1	-1E+10	1
4901784	96	C	02/19/2018	10:44	-133.076	43.436	0	625.60	0	4.6170	0	34.2340	4	27.116	0	619.675	0	20.0	4	6.4	4	-1E+10	1	-1E+10	1	-1E+10	1	-1E+10	1	-1E+10	1	-1E+10	1
4901784	96	C	02/19/2018	10:44	-133.076	43.436	0	629.90	0	4.6080	0	34.2380	4	27.121	0	623.928	0	19.4	4	6.2	4	-1E+10	1	-1E+10	1	-1E+10	1	-1E+10	1	-1E+10	1	-1E+10	1
4901784	96	C	02/19/2018	10:44	-133.076	43.436	0	634.30	0	4.5950	0	34.2440	4	27.127	0	628.280	0	18.8	4	6.0	4	-1E+10	1	-1E+10	1	-1E+10	1	-1E+10	1	-1E+10	1	-1E+10	1
4901784	96	C	02/19/2018	10:44	-133.076	43.436	0	639.50	0	4.5760	0	34.2470	4	27.131	0	633.422	0	18.2	4	5.8	4	-1E+10	1	-1E+10	1	-1E+10	1	-1E+10	1	-1E+10	1	-1E+10	1
4901784	96	C	02/19/2018	10:44	-133.076	43.436	0	644.80	0	4.5470	0	34.2570	4	27.143	0	638.664	0	17.6	4	5.6	4	-1E+10	1	-1E+10	1	-1E+10	1	-1E+10	1	-1E+10	1	-1E+10	1
4901784	96	C	02/19/2018	10:44	-133.076	43.436	0	650.10	0	4.5220	0	34.2610	4	27.148	0	643.905	0	17.3	4	5.5	4	-1E+10	1	-1E+10	1	-1E+10	1	-1E+10	1	-1E+10	1	-1E+10	1
4901784	96	C	02/19/2018	10:44	-133.076	43.436	0	655.60	0	4.5110	0	34.2630	4	27.151	0	649.344	0	17.1	4	5.5	4	-1E+10	1	-1E+10	1	-1E+10	1	-1E+10	1	-1E+10	1	-1E+10	1
4901784	96	C	02/19/2018	10:44	-133.076	43.436	0	660.10	0	4.5090	0	34.2640	4	27.152	0	653.794	0	16.8	4	5.4	4	-1E+10	1	-1E+10	1	-1E+10	1	-1E+10	1	-1E+10	1	-1E+10	1
4901784	96	C	02/19/2018	10:44	-133.076	43.436	0	664.60	0	4.5080	0	34.2670	4	27.155	0	658.244	0	16.5	4	5.3	4	-1E+10	1	-1E+10	1	-1E+10	1	-1E+10	1	-1E+10	1	-1E+10	1
4901784	96	C	02/19/2018	10:44	-133.076	43.436	0	670.10	0	4.4910	0	34.2700	4	27.159	0	663.683	0	16.2	4	5.2	4	-1E+10	1	-1E+10	1	-1E+10	1	-1E+10	1	-1E+10	1	-1E+10	1
4901784	96	C	02/19/2018	10:44	-133.076	43.436	0	675.50	0	4.4740	0	34.2750	4	27.165	0	669.023	0	15.8	4	5.0	4	-1E+10	1	-1E+10	1	-1E+10	1	-1E+10	1	-1E+10	1	-1E+10	1
4901784	96	C	02/19/2018	10:44	-133.076	43.436	0	680.10	0	4.4660	0	34.2770	4	27.167	0	673.571	0	15.6	4	5.0	4	-1E+10	1	-1E+10	1	-1E+10	1	-1E+10	1	-1E+10	1	-1E+10	1
4901784	96	C	02/19/2018	10:44	-133.076	43.436	0	684.70	0	4.4490	0	34.2790	4	27.171	0	678.119	0	15.4	4	4.9	4	-1E+10	1	-1E+10	1	-1E+10	1	-1E+10	1	-1E+10	1	-1E+10	1
4901784	96	C	02/19/2018	10:44	-133.076	43.436	0	690.00	0	4.4300	0	34.2810	4	27.175	0	683.360	0	15.2	4	4.8	4	-1E+10	1	-1E+10	1	-1E+10	1	-1E+10	1	-1E+10	1	-1E+10	1
4901784	96	C	02/19/2018	10:44	-133.076	43.436	0	694.40	0	4.3990	0	34.2870	4	27.183	0	687.710	0	14.9	4	4.7	4	-1E+10	1	-1E+10	1	-1E+10	1	-1E+10	1	-1E+10	1	-1E+10	1
4901784	96	C	02/19/2018	10:44	-133.076	43.436	0	699.90	0	4.3580	0	34.2920	4	27.191	0	693.148	0	14.6	4	4.7	4	-1E+10	1	-1E+10	1	-1E+10	1	-1E+10	1	-1E+10	1	-1E+10	1
4901784	96	C	02/19/2018	10:44	-133.076	43.436	0	705.50	0	4.3250	0	34.2960	4	27.198	0	698.685	0	14.3	4	4.5	4	-1E+10	1	-1E+10	1	-1E+10	1	-1E+10	1	-1E+10	1	-1E+10	1
4901784	96	C	02/19/2018	10:44	-133.076	43.436	0	710.30	0	4.3210	0	34.3010	4	27.202	0	703.430	0	13.9	4	4.4	4	-1E+10	1	-1E+10	1	-1E+10	1	-1E+10	1	-1E+10	1	-1E+10	1
4901784	96	C	02/19/2018	10:44	-133.076	43.436	0	715.20	0	4.3160	0	34.3060	4	27.207	0	708.274	0	13.4	4	4.3	4	-1E+10	1	-1E+10	1	-1E+10	1	-1E+10	1	-1E+10	1	-1E+10	1
4901784	96	C	02/19/2018	10:44	-133.076	43.436	0	720.10	0	4.3160	0	34.3140	4	27.213	0	713.119	0	12.9	4	4.1	4	-1E+10	1	-1E+10	1	-1E+10	1	-1E+10	1	-1E+10	1	-1E+10	1
4901784	96	C	02/19/2018	10:44	-133.076	43.436	0	725.00	0	4.3270	0	34.3210	4	27.218	0	717.963	0	12.5	4	4.0	4	-1E+10	1	-1E+10	1	-1E+10	1	-1E+10	1	-1E+10	1	-1E+10	1
4901784	96	C	02/19/2018	10:44	-133.076	43.436	0	730.00	0	4.3140	0	34.3260	4	27.223	0	722.906	0	12.2	4	3.9	4	-1E+10	1	-1E+10	1	-1E+10	1	-1E+10	1	-1E+10	1	-1E+10	1
4901784	96	C	02/19/2018	10:44	-133.076	43.436	0	735.00	0	4.3000	0	34.3300	4	27.228	0	727.848	0	12.0	4	3.8	4	-1E+10	1	-1E+10	1	-1E+10	1	-1E+10	1	-1E+10	1	-1E+10	1
4901784	96	C	02/19/2018	10:44	-133.076	43.436	0	740.00	0	4.2820	0	34.3340	4	27.233	0	732.791	0	11.8	4	3.8	4	-1E+10	1	-1E+10	1	-1E+10	1	-1E+10	1	-1E+10	1	-1E+10	1
4901784	96	C	02/19/2018	10:44	-133.076	43.436	0	745.10	0	4.2830	0	34.3400	4	27.238	0	737.832	0	11.6	4	3.7	4	-1E+10	1	-1E+10	1	-1E+10	1	-1E+10	1	-1E+10	1	-1E+10	1
4901784	96	C	02/19/2018	10:44	-133.076	43.436	0	750.20	0	4.2720	0	34.3440	4	27.242	0	742.873	0	11.4	4	3.6	4	-1E+10	1	-1E+10	1	-1E+10	1	-1E+10	1	-1E+10	1	-1E+10	1
4901784	96	C	02/19/2018	10:44	-133.076	43.436	0	755.20	0	4.2560	0	34.3470	4	27.246	0	747.815	0	11.3	4	3.6	4	-1E+10	1	-1E+10	1	-1E+10	1	-1E+10	1	-1E+10	1	-1E+10	1
4901784	96	C	02/19/2018	10:44	-133.076	43.436	0	760.30	0	4.2380	0	34.3520	4	27.252	0	752.856	0	11.1	4	3.5	4	-1E+10	1	-1E+10	1	-1E+10	1	-1E+10	1	-1E+10	1	-1E+10	1
4901784	96	C	02/19/2018	10:44	-133.076	43.436	0	765.40	0	4.2290	0	34.3550	4	27.255	0	757.897	0	11.0	4	3.5	4	-1E+10	1	-1E+10	1	-1E+10	1	-1E+10	1	-1E+10	1	-1E+10	1
4901784	96	C	02/19/2018	10:44	-133.076	43.436	0	770.50	0	4.2060	0	34.3580	4	27.260	0	762.938	0	10.8	4	3.4	4	-1E+10	1	-1E+10	1	-1E+10	1	-1E+10	1	-1E+10	1	-1E+10	1
4901784	96	C	02/19/2018	10:44	-133.076	43.436	0	775.80	0	4.1910	0	34.3640	4	27.267	0	768.176	0	10.8	4	3.4	4	-1E+10	1	-1E+10	1	-1E+10	1	-1E+10	1	-1E+10	1	-1E+10	1
4901784	96	C	02/19/2018	10:44	-133.076	43.436	0	780.10	0	4.1700	0	34.3660	4	27.270	0	772.426	0	10.7	4	3.4	4	-1E+10	1	-1E+10	1	-1E+10	1	-1E+10	1	-1E+10	1	-1E+10	1
4901784	96	C	02/19/2018	10:44	-133.076	43.436	0	784.40	0	4.1440	0	34.3710	4	27.277	0	776.676	0	10.7	4	3.4	4	-1E+10	1	-1E+10	1	-1E+10	1	-1E+10	1	-1E+10	1	-1E+10	1
4901784	96	C	02/19/2018	10:44	-133.076	43.436	0	789.60	0	4.1040	0	34.3750	4	27.284	0	781.815	0	10.7	4	3.4	4	-1E+10	1	-1E+10	1	-1E+10	1	-1E+10	1	-1E+10	1	-1E+10	1
4901784	96	C	02/19/2018	10:44	-133.076	43.436	0	794.80	0	4.0890	0	34.3780	4	27.288	0	786.954	0	10.6	4	3.4	4	-1E+10	1	-1E+10	1	-1E+10	1	-1E+10	1	-1E+10	1	-1E+10	1
4901784	96	C	02/19/2018	10:44	-133.076	43.436	0	799.90	0	4.0780	0	34.3790	4	27.290	0	791.994	0	10.6	4	3.3	4	-1E+10	1	-1E+10	1	-1E+10	1	-1E+10	1	-1E+10	1	-1E+10	1
4901784	96	C	02/19/2018	10:44	-133.076	43.436	0	805.10	0	4.0630	0	34.3840	4	27.296	0	797.132	0	10.5	4	3.3	4	-1E+10	1	-1E+10	1	-1E+10	1	-1E+10	1	-1E+10	1	-1E+10	1
4901784	96	C	02/19/2018	10:44	-133.076	43.436	0	810.30	0	4.0500	0	34.3910	4	27.303	0	802.271	0	10.4	4	3.3	4	-1E+10	1	-1E+10	1	-1E+10	1	-1E+10	1	-1E+10	1	-1E+10	1
4901784	96	C	02/19/2018	10:44	-133.076	43.436	0	815.40	0	4.0400	0	34.3960	4	27.308	0	807.311	0	10.3	4	3.3	4	-1E+10	1	-1E+10	1	-1E+10	1	-1E+10	1	-1E+10	1	-1E+10	1
4901784	96	C	02/19/2018	10:44	-133.076	43.436	0	820.60	0	4.0360	0	34.3980	4	27.310	0	812.449	0	10.3	4	3.3	4	-1E+10	1	-1E+10	1	-1E+10	1	-1E+10	1	-1E+10	1	-1E+10	1
4901784	96	C	02/19/2018	10:44	-133.076	43.436	0	825.00	0	4.0300	0	34.4000	4	27.312	0	816.797	0	10.3	4	3.3	4	-1E+10	1	-1E+10	1	-1E+10	1	-1E+10	1	-1E+10	1	-1E+10	1
4901784	96	C	02/19/2018	10:44	-133.076	43.436	0	829.40	0	4.0160	0	34.4020	4	27.315	0	821.144	0	10.3	4	3.2	4	-1E+10	1	-1E+10	1	-1E+10	1	-1E+10	1	-1E+10	1	-1E+10	1
4901784	96	C	02/19/2018	10:44	-133.076	43.436	0	834.60	0	4.0080	0	34.4030	4	27.317	0	826.282	0	10.3	4	3.2	4	-1E+10	1	-1E+10	1	-1E+10	1	-1E+10	1	-1E+10	1	-1E+10	1
4901784	96	C	02/19/2018	10:44	-133.076	43.436	0	839.90	0	4.0080	0	34.4030	4	27.317	0	831.519	0	10.3	4	3.2	4	-1E+10	1	-1E+10	1	-1E+10	1	-1E+10	1	-1E+10	1	-1E+10	1
4901784	96	C	02/19/2018	10:44	-133.076	43.436	0	845.30	0	4.0030	0	34.4040	4	27.318	0	836.854	0	10.3	4	3.2	4	-1E+10	1	-1E+10	1	-1E+10	1	-1E+10	1	-1E+10	1	-1E+10	1
4901784	96	C	02/19/2018	10:44	-133.076	43.436	0	850.70	0	3.9880	0	34.4080	4	27.323	0	842.189	0	10.3	4	3.2	4	-1E+10	1	-1E+10	1	-1E+10	1	-1E+10	1	-1E+10	1	-1E+10	1
4901784	96	C	02/19/2018	10:44	-133.076	43.436	0	855.10	0	3.9820	0	34.4100	4	27.325	0	846.536	0	10.2	4	3.2	4	-1E+10	1	-1E+10	1	-1E+10	1	-1E+10	1	-1E+10	1	-1E+10	1
4901784	96	C	02/19/2018	10:44	-133.076	43.436	0	859.60	0	3.9780	0	34.4100	4	27.326	0	850.982	0	10.2	4	3.2	4	-1E+10	1	-1E+10	1	-1E+10	1	-1E+10	1	-1E+10	1	-1E+10	1
4901784	96	C	02/19/2018	10:44	-133.076	43.436	0	865.00	0	3.9670	0	34.4120	4	27.328	0	856.317	0	10.3	4	3.2	4	-1E+10	1	-1E+10	1	-1E+10	1	-1E+10	1	-1E+10	1	-1E+10	1
4901784	96	C	02/19/2018	10:44	-133.076	43.436	0	870.40	0	3.9460	0	34.4130	4	27.331	0	861.652	0	10.3	4	3.3	4	-1E+10	1	-1E+10	1	-1E+10	1	-1E+10	1	-1E+10	1	-1E+10	1
4901784	96	C	02/19/2018	10:44	-133.076	43.436	0	874.80	0	3.9230	0	34.4140	4	27.335	0	865.998	0	10.3	4	3.3	4	-1E+10	1	-1E+10	1	-1E+10	1	-1E+10	1	-1E+10	1	-1E+10	1
4901784	96	C	02/19/2018	10:44	-133.076	43.436	0	879.40	0	3.9100	0	34.4150	4	27.337	0	870.542	0	10.4	4	3.3	4	-1E+10	1	-1E+10	1	-1E+10	1	-1E+10	1	-1E+10	1	-1E+10	1
4901784	96	C	02/19/2018	10:44	-133.076	43.436	0	885.00	0	3.8550	0	34.4180	4	27.345	0	876.074	0	10.5	4	3.3	4	-1E+10	1	-1E+10	1	-1E+10	1	-1E+10	1	-1E+10	1	-1E+10	1
4901784	96	C	02/19/2018	10:44	-133.076	43.436	0	889.90	0	3.8310	0	34.4200	4	27.349	0	880.915	0	10.5	4	3.3	4	-1E+10	1	-1E+10	1	-1E+10	1	-1E+10	1	-1E+10	1	-1E+10	1
4901784	96	C	02/19/2018	10:44	-133.076	43.436	0	895.30	0	3.8170	0	34.4200	4	27.350	0	886.249	0	10.6	4	3.3	4	-1E+10	1	-1E+10	1	-1E+10	1	-1E+10	1	-1E+10	1	-1E+10	1
4901784	96	C	02/19/2018	10:44	-133.076	43.436	0	900.10	0	3.7960	0	34.4200	4	27.352	0	890.990	0	10.6	4	3.3	4	-1E+10	1	-1E+10	1	-1E+10	1	-1E+10	1	-1E+10	1	-1E+10	1
4901784	96	C	02/19/2018	10:44	-133.076	43.436	0	904.90	0	3.7820	0	34.4200	4	27.354	0	895.731	0	10.6	4	3.3	4	-1E+10	1	-1E+10	1	-1E+10	1	-1E+10	1	-1E+10	1	-1E+10	1
4901784	96	C	02/19/2018	10:44	-133.076	43.436	0	909.70	0	3.7590	0	34.4220	4	27.358	0	900.472	0	10.7	4	3.4	4	-1E+10	1	-1E+10	1	-1E+10	1	-1E+10	1	-1E+10	1	-1E+10	1
4901784	96	C	02/19/2018	10:44	-133.076	43.436	0	914.50	0	3.7500	0	34.4220	4	27.359	0	905.213	0	10.7	4	3.4	4	-1E+10	1	-1E+10	1	-1E+10	1	-1E+10	1	-1E+10	1	-1E+10	1
4901784	96	C	02/19/2018	10:44	-133.076	43.436	0	919.40	0	3.7390	0	34.4230	4	27.361	0	910.053	0	10.7	4	3.4	4	-1E+10	1	-1E+10	1	-1E+10	1	-1E+10	1	-1E+10	1	-1E+10	1
4901784	96	C	02/19/2018	10:44	-133.076	43.436	0	924.30	0	3.7290	0	34.4260	4	27.364	0	914.892	0	10.7	4	3.4	4	-1E+10	1	-1E+10	1	-1E+10	1	-1E+10	1	-1E+10	1	-1E+10	1
4901784	96	C	02/19/2018	10:44	-133.076	43.436	0	929.20	0	3.7240	0	34.4310	4	27.368	0	919.731	0	10.7	4	3.4	4	-1E+10	1	-1E+10	1	-1E+10	1	-1E+10	1	-1E+10	1	-1E+10	1
4901784	96	C	02/19/2018	10:44	-133.076	43.436	0	934.20	0	3.7300	0	34.4340	4	27.370	0	924.669	0	10.7	4	3.4	4	-1E+10	1	-1E+10	1	-1E+10	1	-1E+10	1	-1E+10	1	-1E+10	1
4901784	96	C	02/19/2018	10:44	-133.076	43.436	0	939.20	0	3.7030	0	34.4370	4	27.375	0	929.607	0	10.7	4	3.4	4	-1E+10	1	-1E+10	1	-1E+10	1	-1E+10	1	-1E+10	1	-1E+10	1
4901784	96	C	02/19/2018	10:44	-133.076	43.436	0	944.30	0	3.6750	0	34.4390	4	27.380	0	934.644	0	10.8	4	3.4	4	-1E+10	1	-1E+10	1	-1E+10	1	-1E+10	1	-1E+10	1	-1E+10	1
4901784	96	C	02/19/2018	10:44	-133.076	43.436	0	949.30	0	3.6430	0	34.4420	4	27.385	0	939.581	0	10.8	4	3.4	4	-1E+10	1	-1E+10	1	-1E+10	1	-1E+10	1	-1E+10	1	-1E+10	1
4901784	96	C	02/19/2018	10:44	-133.076	43.436	0	954.50	0	3.6410	0	34.4450	4	27.388	0	944.716	0	10.9	4	3.4	4	-1E+10	1	-1E+10	1	-1E+10	1	-1E+10	1	-1E+10	1	-1E+10	1
4901784	96	C	02/19/2018	10:44	-133.076	43.436	0	959.60	0	3.6310	0	34.4470	4	27.391	0	949.753	0	10.9	4	3.4	4	-1E+10	1	-1E+10	1	-1E+10	1	-1E+10	1	-1E+10	1	-1E+10	1
4901784	96	C	02/19/2018	10:44	-133.076	43.436	0	964.70	0	3.6140	0	34.4480	4	27.393	0	954.789	0	11.0	4	3.4	4	-1E+10	1	-1E+10	1	-1E+10	1	-1E+10	1	-1E+10	1	-1E+10	1
4901784	96	C	02/19/2018	10:44	-133.076	43.436	0	969.70	0	3.5670	0	34.4490	4	27.398	0	959.726	0	11.1	4	3.5	4	-1E+10	1	-1E+10	1	-1E+10	1	-1E+10	1	-1E+10	1	-1E+10	1
4901784	96	C	02/19/2018	10:44	-133.076	43.436	0	974.90	0	3.5430	0	34.4490	4	27.401	0	964.860	0	11.2	4	3.5	4	-1E+10	1	-1E+10	1	-1E+10	1	-1E+10	1	-1E+10	1	-1E+10	1
4901784	96	C	02/19/2018	10:44	-133.076	43.436	0	980.00	0	3.5200	0	34.4510	4	27.405	0	969.896	0	11.2	4	3.5	4	-1E+10	1	-1E+10	1	-1E+10	1	-1E+10	1	-1E+10	1	-1E+10	1
4901784	96	C	02/19/2018	10:44	-133.076	43.436	0	985.10	0	3.4980	0	34.4520	4	27.408	0	974.932	0	11.3	4	3.5	4	-1E+10	1	-1E+10	1	-1E+10	1	-1E+10	1	-1E+10	1	-1E+10	1
4901784	96	C	02/19/2018	10:44	-133.076	43.436	0	990.30	0	3.4810	0	34.4540	4	27.411	0	980.066	0	11.4	4	3.5	4	-1E+10	1	-1E+10	1	-1E+10	1	-1E+10	1	-1E+10	1	-1E+10	1
4901784	96	C	02/19/2018	10:44	-133.076	43.436	0	995.50	0	3.4710	0	34.4550	4	27.413	0	985.200	0	11.4	4	3.6	4	-1E+10	1	-1E+10	1	-1E+10	1	-1E+10	1	-1E+10	1	-1E+10	1
4901784	96	C	02/19/2018	10:44	-133.076	43.436	0	1000.70	0	3.4540	0	34.4590	4	27.417	0	990.334	0	11.5	4	3.6	4	-1E+10	1	-1E+10	1	-1E+10	1	-1E+10	1	-1E+10	1	-1E+10	1
4901784	96	C	02/19/2018	10:44	-133.076	43.436	0	1005.10	0	3.4460	0	34.4610	4	27.420	0	994.678	0	11.5	4	3.6	4	-1E+10	1	-1E+10	1	-1E+10	1	-1E+10	1	-1E+10	1	-1E+10	1
4901784	96	C	02/19/2018	10:44	-133.076	43.436	0	1009.50	0	3.4370	0	34.4630	4	27.422	0	999.022	0	11.6	4	3.6	4	-1E+10	1	-1E+10	1	-1E+10	1	-1E+10	1	-1E+10	1	-1E+10	1
4901784	96	C	02/19/2018	10:44	-133.076	43.436	0	1014.80	0	3.4260	0	34.4650	4	27.425	0	1004.254	0	11.7	4	3.6	4	-1E+10	1	-1E+10	1	-1E+10	1	-1E+10	1	-1E+10	1	-1E+10	1
4901784	96	C	02/19/2018	10:44	-133.076	43.436	0	1020.00	0	3.4180	0	34.4670	4	27.427	0	1009.387	0	11.8	4	3.7	4	-1E+10	1	-1E+10	1	-1E+10	1	-1E+10	1	-1E+10	1	-1E+10	1
4901784	96	C	02/19/2018	10:44	-133.076	43.436	0	1025.40	0	3.4090	0	34.4690	4	27.430	0	1014.718	0	11.9	4	3.7	4	-1E+10	1	-1E+10	1	-1E+10	1	-1E+10	1	-1E+10	1	-1E+10	1
4901784	96	C	02/19/2018	10:44	-133.076	43.436	0	1030.00	0	3.3920	0	34.4730	4	27.435	0	1019.259	0	12.1	4	3.8	4	-1E+10	1	-1E+10	1	-1E+10	1	-1E+10	1	-1E+10	1	-1E+10	1
4901784	96	C	02/19/2018	10:44	-133.076	43.436	0	1034.70	0	3.3850	0	34.4750	4	27.437	0	1023.899	0	12.1	4	3.8	4	-1E+10	1	-1E+10	1	-1E+10	1	-1E+10	1	-1E+10	1	-1E+10	1
4901784	96	C	02/19/2018	10:44	-133.076	43.436	0	1040.30	0	3.3760	0	34.4770	4	27.440	0	1029.426	0	12.2	4	3.8	4	-1E+10	1	-1E+10	1	-1E+10	1	-1E+10	1	-1E+10	1	-1E+10	1
4901784	96	C	02/19/2018	10:44	-133.076	43.436	0	1045.00	0	3.3700	0	34.4790	4	27.442	0	1034.066	0	12.3	4	3.8	4	-1E+10	1	-1E+10	1	-1E+10	1	-1E+10	1	-1E+10	1	-1E+10	1
4901784	96	C	02/19/2018	10:44	-133.076	43.436	0	1050.30	0	3.3610	0	34.4820	4	27.445	0	1039.297	0	12.4	4	3.9	4	-1E+10	1	-1E+10	1	-1E+10	1	-1E+10	1	-1E+10	1	-1E+10	1
4901784	96	C	02/19/2018	10:44	-133.076	43.436	0	1055.50	0	3.3580	0	34.4820	4	27.445	0	1044.430	0	12.5	4	3.9	4	-1E+10	1	-1E+10	1	-1E+10	1	-1E+10	1	-1E+10	1	-1E+10	1
4901784	96	C	02/19/2018	10:44	-133.076	43.436	0	1060.30	0	3.3520	0	34.4840	4	27.448	0	1049.167	0	12.7	4	3.9	4	-1E+10	1	-1E+10	1	-1E+10	1	-1E+10	1	-1E+10	1	-1E+10	1
4901784	96	C	02/19/2018	10:44	-133.076	43.436	0	1065.20	0	3.3440	0	34.4870	4	27.451	0	1054.004	0	12.8	4	4.0	4	-1E+10	1	-1E+10	1	-1E+10	1	-1E+10	1	-1E+10	1	-1E+10	1
4901784	96	C	02/19/2018	10:44	-133.076	43.436	0	1070.10	0	3.3410	0	34.4880	4	27.452	0	1058.840	0	12.9	4	4.0	4	-1E+10	1	-1E+10	1	-1E+10	1	-1E+10	1	-1E+10	1	-1E+10	1
4901784	96	C	02/19/2018	10:44	-133.076	43.436	0	1075.10	0	3.3380	0	34.4890	4	27.453	0	1063.774	0	13.0	4	4.0	4	-1E+10	1	-1E+10	1	-1E+10	1	-1E+10	1	-1E+10	1	-1E+10	1
4901784	96	C	02/19/2018	10:44	-133.076	43.436	0	1080.00	0	3.3310	0	34.4910	4	27.455	0	1068.610	0	13.1	4	4.1	4	-1E+10	1	-1E+10	1	-1E+10	1	-1E+10	1	-1E+10	1	-1E+10	1
4901784	96	C	02/19/2018	10:44	-133.076	43.436	0	1085.00	0	3.3220	0	34.4940	4	27.458	0	1073.545	0	13.2	4	4.1	4	-1E+10	1	-1E+10	1	-1E+10	1	-1E+10	1	-1E+10	1	-1E+10	1
4901784	96	C	02/19/2018	10:44	-133.076	43.436	0	1090.00	0	3.3190	0	34.4950	4	27.460	0	1078.479	0	13.3	4	4.2	4	-1E+10	1	-1E+10	1	-1E+10	1	-1E+10	1	-1E+10	1	-1E+10	1
4901784	96	C	02/19/2018	10:44	-133.076	43.436	0	1095.00	0	3.3160	0	34.4950	4	27.460	0	1083.413	0	13.5	4	4.2	4	-1E+10	1	-1E+10	1	-1E+10	1	-1E+10	1	-1E+10	1	-1E+10	1
4901784	96	C	02/19/2018	10:44	-133.076	43.436	0	1100.10	0	3.3050	0	34.4990	4	27.464	0	1088.446	0	13.7	4	4.3	4	-1E+10	1	-1E+10	1	-1E+10	1	-1E+10	1	-1E+10	1	-1E+10	1
4901784	96	C	02/19/2018	10:44	-133.076	43.436	0	1105.20	0	3.2990	0	34.5000	4	27.466	0	1093.479	0	13.9	4	4.3	4	-1E+10	1	-1E+10	1	-1E+10	1	-1E+10	1	-1E+10	1	-1E+10	1
4901784	96	C	02/19/2018	10:44	-133.076	43.436	0	1110.40	0	3.2940	0	34.5030	4	27.468	0	1098.610	0	14.2	4	4.4	4	-1E+10	1	-1E+10	1	-1E+10	1	-1E+10	1	-1E+10	1	-1E+10	1
4901784	96	C	02/19/2018	10:44	-133.076	43.436	0	1115.50	0	3.2900	0	34.5060	4	27.471	0	1103.643	0	14.6	4	4.5	4	-1E+10	1	-1E+10	1	-1E+10	1	-1E+10	1	-1E+10	1	-1E+10	1
4901784	96	C	02/19/2018	10:44	-133.076	43.436	0	1119.90	0	3.2810	0	34.5100	4	27.475	0	1107.984	0	14.7	4	4.6	4	-1E+10	1	-1E+10	1	-1E+10	1	-1E+10	1	-1E+10	1	-1E+10	1
4901784	96	C	02/19/2018	10:44	-133.076	43.436	0	1124.30	0	3.2770	0	34.5100	4	27.476	0	1112.326	0	14.8	4	4.6	4	-1E+10	1	-1E+10	1	-1E+10	1	-1E+10	1	-1E+10	1	-1E+10	1
4901784	96	C	02/19/2018	10:44	-133.076	43.436	0	1129.50	0	3.2640	0	34.5130	4	27.479	0	1117.457	0	14.9	4	4.6	4	-1E+10	1	-1E+10	1	-1E+10	1	-1E+10	1	-1E+10	1	-1E+10	1
4901784	96	C	02/19/2018	10:44	-133.076	43.436	0	1134.80	0	3.2590	0	34.5140	4	27.481	0	1122.686	0	15.1	4	4.7	4	-1E+10	1	-1E+10	1	-1E+10	1	-1E+10	1	-1E+10	1	-1E+10	1
4901784	96	C	02/19/2018	10:44	-133.076	43.436	0	1140.10	0	3.2540	0	34.5150	4	27.482	0	1127.915	0	15.2	4	4.7	4	-1E+10	1	-1E+10	1	-1E+10	1	-1E+10	1	-1E+10	1	-1E+10	1
4901784	96	C	02/19/2018	10:44	-133.076	43.436	0	1145.30	0	3.2510	0	34.5160	4	27.483	0	1133.046	0	15.3	4	4.8	4	-1E+10	1	-1E+10	1	-1E+10	1	-1E+10	1	-1E+10	1	-1E+10	1
4901784	96	C	02/19/2018	10:44	-133.076	43.436	0	1150.70	0	3.2300	0	34.5190	4	27.487	0	1138.373	0	15.4	4	4.8	4	-1E+10	1	-1E+10	1	-1E+10	1	-1E+10	1	-1E+10	1	-1E+10	1
4901784	96	C	02/19/2018	10:44	-133.076	43.436	0	1155.20	0	3.2230	0	34.5200	4	27.489	0	1142.813	0	15.6	4	4.8	4	-1E+10	1	-1E+10	1	-1E+10	1	-1E+10	1	-1E+10	1	-1E+10	1
4901784	96	C	02/19/2018	10:44	-133.076	43.436	0	1159.70	0	3.2160	0	34.5220	4	27.491	0	1147.252	0	15.6	4	4.9	4	-1E+10	1	-1E+10	1	-1E+10	1	-1E+10	1	-1E+10	1	-1E+10	1
4901784	96	C	02/19/2018	10:44	-133.076	43.436	0	1165.20	0	3.2060	0	34.5230	4	27.493	0	1152.678	0	15.8	4	4.9	4	-1E+10	1	-1E+10	1	-1E+10	1	-1E+10	1	-1E+10	1	-1E+10	1
4901784	96	C	02/19/2018	10:44	-133.076	43.436	0	1170.60	0	3.2010	0	34.5240	4	27.494	0	1158.005	0	15.9	4	5.0	4	-1E+10	1	-1E+10	1	-1E+10	1	-1E+10	1	-1E+10	1	-1E+10	1
4901784	96	C	02/19/2018	10:44	-133.076	43.436	0	1175.30	0	3.1840	0	34.5260	4	27.497	0	1162.642	0	16.1	4	5.0	4	-1E+10	1	-1E+10	1	-1E+10	1	-1E+10	1	-1E+10	1	-1E+10	1
4901784	96	C	02/19/2018	10:44	-133.076	43.436	0	1179.80	0	3.1680	0	34.5290	4	27.501	0	1167.081	0	16.2	4	5.0	4	-1E+10	1	-1E+10	1	-1E+10	1	-1E+10	1	-1E+10	1	-1E+10	1
4901784	96	C	02/19/2018	10:44	-133.076	43.436	0	1185.40	0	3.1580	0	34.5300	4	27.503	0	1172.605	0	16.3	4	5.1	4	-1E+10	1	-1E+10	1	-1E+10	1	-1E+10	1	-1E+10	1	-1E+10	1
4901784	96	C	02/19/2018	10:44	-133.076	43.436	0	1190.00	0	3.1530	0	34.5310	4	27.504	0	1177.142	0	16.4	4	5.1	4	-1E+10	1	-1E+10	1	-1E+10	1	-1E+10	1	-1E+10	1	-1E+10	1
4901784	96	C	02/19/2018	10:44	-133.076	43.436	0	1194.60	0	3.1460	0	34.5320	4	27.506	0	1181.679	0	16.5	4	5.1	4	-1E+10	1	-1E+10	1	-1E+10	1	-1E+10	1	-1E+10	1	-1E+10	1
4901784	96	C	02/19/2018	10:44	-133.076	43.436	0	1200.10	0	3.1320	0	34.5340	4	27.509	0	1187.104	0	16.7	4	5.2	4	-1E+10	1	-1E+10	1	-1E+10	1	-1E+10	1	-1E+10	1	-1E+10	1
4901784	96	C	02/19/2018	10:44	-133.076	43.436	0	1205.50	0	3.1210	0	34.5360	4	27.511	0	1192.431	0	16.8	4	5.2	4	-1E+10	1	-1E+10	1	-1E+10	1	-1E+10	1	-1E+10	1	-1E+10	1
4901784	96	C	02/19/2018	10:44	-133.076	43.436	0	1210.10	0	3.1140	0	34.5370	4	27.513	0	1196.968	0	16.9	4	5.2	4	-1E+10	1	-1E+10	1	-1E+10	1	-1E+10	1	-1E+10	1	-1E+10	1
4901784	96	C	02/19/2018	10:44	-133.076	43.436	0	1214.60	0	3.1080	0	34.5380	4	27.514	0	1201.406	0	17.0	4	5.3	4	-1E+10	1	-1E+10	1	-1E+10	1	-1E+10	1	-1E+10	1	-1E+10	1
4901784	96	C	02/19/2018	10:44	-133.076	43.436	0	1220.20	0	3.1020	0	34.5380	4	27.515	0	1206.929	0	17.1	4	5.3	4	-1E+10	1	-1E+10	1	-1E+10	1	-1E+10	1	-1E+10	1	-1E+10	1
4901784	96	C	02/19/2018	10:44	-133.076	43.436	0	1224.90	0	3.0940	0	34.5390	4	27.516	0	1211.565	0	17.2	4	5.3	4	-1E+10	1	-1E+10	1	-1E+10	1	-1E+10	1	-1E+10	1	-1E+10	1
4901784	96	C	02/19/2018	10:44	-133.076	43.436	0	1230.20	0	3.0770	0	34.5420	4	27.520	0	1216.791	0	17.4	4	5.4	4	-1E+10	1	-1E+10	1	-1E+10	1	-1E+10	1	-1E+10	1	-1E+10	1
4901784	96	C	02/19/2018	10:44	-133.076	43.436	0	1235.30	0	3.0730	0	34.5420	4	27.521	0	1221.821	0	17.4	4	5.4	4	-1E+10	1	-1E+10	1	-1E+10	1	-1E+10	1	-1E+10	1	-1E+10	1
4901784	96	C	02/19/2018	10:44	-133.076	43.436	0	1240.10	0	3.0630	0	34.5430	4	27.523	0	1226.555	0	17.6	4	5.4	4	-1E+10	1	-1E+10	1	-1E+10	1	-1E+10	1	-1E+10	1	-1E+10	1
4901784	96	C	02/19/2018	10:44	-133.076	43.436	0	1245.00	0	3.0500	0	34.5450	4	27.525	0	1231.387	0	17.7	4	5.5	4	-1E+10	1	-1E+10	1	-1E+10	1	-1E+10	1	-1E+10	1	-1E+10	1
4901784	96	C	02/19/2018	10:44	-133.076	43.436	0	1249.90	0	3.0380	0	34.5460	4	27.527	0	1236.219	0	17.8	4	5.5	4	-1E+10	1	-1E+10	1	-1E+10	1	-1E+10	1	-1E+10	1	-1E+10	1
4901784	96	C	02/19/2018	10:44	-133.076	43.436	0	1254.90	0	3.0300	0	34.5460	4	27.528	0	1241.150	0	17.8	4	5.5	4	-1E+10	1	-1E+10	1	-1E+10	1	-1E+10	1	-1E+10	1	-1E+10	1
4901784	96	C	02/19/2018	10:44	-133.076	43.436	0	1259.90	0	3.0190	0	34.5480	4	27.531	0	1246.080	0	18.0	4	5.6	4	-1E+10	1	-1E+10	1	-1E+10	1	-1E+10	1	-1E+10	1	-1E+10	1
4901784	96	C	02/19/2018	10:44	-133.076	43.436	0	1264.90	0	3.0070	0	34.5490	4	27.533	0	1251.010	0	18.2	4	5.6	4	-1E+10	1	-1E+10	1	-1E+10	1	-1E+10	1	-1E+10	1	-1E+10	1
4901784	96	C	02/19/2018	10:44	-133.076	43.436	0	1269.90	0	2.9870	0	34.5520	4	27.537	0	1255.940	0	18.5	4	5.7	4	-1E+10	1	-1E+10	1	-1E+10	1	-1E+10	1	-1E+10	1	-1E+10	1
4901784	96	C	02/19/2018	10:44	-133.076	43.436	0	1275.00	0	2.9820	0	34.5530	4	27.538	0	1260.969	0	18.8	4	5.8	4	-1E+10	1	-1E+10	1	-1E+10	1	-1E+10	1	-1E+10	1	-1E+10	1
4901784	96	C	02/19/2018	10:44	-133.076	43.436	0	1280.00	0	2.9790	0	34.5550	4	27.540	0	1265.899	0	19.0	4	5.9	4	-1E+10	1	-1E+10	1	-1E+10	1	-1E+10	1	-1E+10	1	-1E+10	1
4901784	96	C	02/19/2018	10:44	-133.076	43.436	0	1285.10	0	2.9730	0	34.5570	4	27.542	0	1270.927	0	19.3	4	5.9	4	-1E+10	1	-1E+10	1	-1E+10	1	-1E+10	1	-1E+10	1	-1E+10	1
4901784	96	C	02/19/2018	10:44	-133.076	43.436	0	1290.30	0	2.9640	0	34.5580	4	27.544	0	1276.054	0	19.4	4	6.0	4	-1E+10	1	-1E+10	1	-1E+10	1	-1E+10	1	-1E+10	1	-1E+10	1
4901784	96	C	02/19/2018	10:44	-133.076	43.436	0	1295.50	0	2.9590	0	34.5590	4	27.545	0	1281.181	0	19.6	4	6.0	4	-1E+10	1	-1E+10	1	-1E+10	1	-1E+10	1	-1E+10	1	-1E+10	1
4901784	96	C	02/19/2018	10:44	-133.076	43.436	0	1300.80	0	2.9510	0	34.5600	4	27.547	0	1286.406	0	19.8	4	6.1	4	-1E+10	1	-1E+10	1	-1E+10	1	-1E+10	1	-1E+10	1	-1E+10	1
4901784	96	C	02/19/2018	10:44	-133.076	43.436	0	1305.10	0	2.9440	0	34.5610	4	27.548	0	1290.646	0	19.9	4	6.1	4	-1E+10	1	-1E+10	1	-1E+10	1	-1E+10	1	-1E+10	1	-1E+10	1
4901784	96	C	02/19/2018	10:44	-133.076	43.436	0	1309.60	0	2.9370	0	34.5620	4	27.550	0	1295.082	0	20.0	4	6.2	4	-1E+10	1	-1E+10	1	-1E+10	1	-1E+10	1	-1E+10	1	-1E+10	1
4901784	96	C	02/19/2018	10:44	-133.076	43.436	0	1315.00	0	2.9320	0	34.5630	4	27.551	0	1300.405	0	20.1	4	6.2	4	-1E+10	1	-1E+10	1	-1E+10	1	-1E+10	1	-1E+10	1	-1E+10	1
4901784	96	C	02/19/2018	10:44	-133.076	43.436	0	1320.30	0	2.9280	0	34.5640	4	27.552	0	1305.630	0	20.3	4	6.3	4	-1E+10	1	-1E+10	1	-1E+10	1	-1E+10	1	-1E+10	1	-1E+10	1
4901784	96	C	02/19/2018	10:44	-133.076	43.436	0	1324.80	0	2.9210	0	34.5650	4	27.553	0	1310.066	0	20.4	4	6.3	4	-1E+10	1	-1E+10	1	-1E+10	1	-1E+10	1	-1E+10	1	-1E+10	1
4901784	96	C	02/19/2018	10:44	-133.076	43.436	0	1329.30	0	2.9180	0	34.5650	4	27.554	0	1314.502	0	20.6	4	6.4	4	-1E+10	1	-1E+10	1	-1E+10	1	-1E+10	1	-1E+10	1	-1E+10	1
4901784	96	C	02/19/2018	10:44	-133.076	43.436	0	1334.70	0	2.9020	0	34.5670	4	27.557	0	1319.825	0	20.9	4	6.5	4	-1E+10	1	-1E+10	1	-1E+10	1	-1E+10	1	-1E+10	1	-1E+10	1
4901784	96	C	02/19/2018	10:44	-133.076	43.436	0	1340.20	0	2.8920	0	34.5690	4	27.559	0	1325.247	0	21.2	4	6.5	4	-1E+10	1	-1E+10	1	-1E+10	1	-1E+10	1	-1E+10	1	-1E+10	1
4901784	96	C	02/19/2018	10:44	-133.076	43.436	0	1345.30	0	2.8850	0	34.5700	4	27.561	0	1330.274	0	21.3	4	6.6	4	-1E+10	1	-1E+10	1	-1E+10	1	-1E+10	1	-1E+10	1	-1E+10	1
4901784	96	C	02/19/2018	10:44	-133.076	43.436	0	1349.40	0	2.8790	0	34.5710	4	27.562	0	1334.315	0	21.5	4	6.6	4	-1E+10	1	-1E+10	1	-1E+10	1	-1E+10	1	-1E+10	1	-1E+10	1
4901784	96	C	02/19/2018	10:44	-133.076	43.436	0	1354.90	0	2.8750	0	34.5720	4	27.563	0	1339.736	0	21.6	4	6.7	4	-1E+10	1	-1E+10	1	-1E+10	1	-1E+10	1	-1E+10	1	-1E+10	1
4901784	96	C	02/19/2018	10:44	-133.076	43.436	0	1360.70	0	2.8640	0	34.5730	4	27.565	0	1345.452	0	21.9	4	6.7	4	-1E+10	1	-1E+10	1	-1E+10	1	-1E+10	1	-1E+10	1	-1E+10	1
4901784	96	C	02/19/2018	10:44	-133.076	43.436	0	1365.10	0	2.8550	0	34.5750	4	27.568	0	1349.789	0	22.1	4	6.8	4	-1E+10	1	-1E+10	1	-1E+10	1	-1E+10	1	-1E+10	1	-1E+10	1
4901784	96	C	02/19/2018	10:44	-133.076	43.436	0	1369.40	0	2.8440	0	34.5760	4	27.569	0	1354.027	0	22.3	4	6.9	4	-1E+10	1	-1E+10	1	-1E+10	1	-1E+10	1	-1E+10	1	-1E+10	1
4901784	96	C	02/19/2018	10:44	-133.076	43.436	0	1374.60	0	2.8360	0	34.5770	4	27.571	0	1359.152	0	22.6	4	6.9	4	-1E+10	1	-1E+10	1	-1E+10	1	-1E+10	1	-1E+10	1	-1E+10	1
4901784	96	C	02/19/2018	10:44	-133.076	43.436	0	1379.80	0	2.8240	0	34.5790	4	27.574	0	1364.277	0	22.8	4	7.0	4	-1E+10	1	-1E+10	1	-1E+10	1	-1E+10	1	-1E+10	1	-1E+10	1
4901784	96	C	02/19/2018	10:44	-133.076	43.436	0	1385.00	0	2.8140	0	34.5800	4	27.575	0	1369.401	0	23.0	4	7.1	4	-1E+10	1	-1E+10	1	-1E+10	1	-1E+10	1	-1E+10	1	-1E+10	1
4901784	96	C	02/19/2018	10:44	-133.076	43.436	0	1390.30	0	2.8090	0	34.5810	4	27.577	0	1374.624	0	23.1	4	7.1	4	-1E+10	1	-1E+10	1	-1E+10	1	-1E+10	1	-1E+10	1	-1E+10	1
4901784	96	C	02/19/2018	10:44	-133.076	43.436	0	1395.60	0	2.8030	0	34.5810	4	27.577	0	1379.847	0	23.3	4	7.2	4	-1E+10	1	-1E+10	1	-1E+10	1	-1E+10	1	-1E+10	1	-1E+10	1
4901784	96	C	02/19/2018	10:44	-133.076	43.436	0	1400.00	0	2.7960	0	34.5820	4	27.579	0	1384.183	0	23.4	4	7.2	4	-1E+10	1	-1E+10	1	-1E+10	1	-1E+10	1	-1E+10	1	-1E+10	1
4901784	96	C	02/19/2018	10:44	-133.076	43.436	0	1404.50	0	2.7900	0	34.5830	4	27.580	0	1388.618	0	23.4	4	7.2	4	-1E+10	1	-1E+10	1	-1E+10	1	-1E+10	1	-1E+10	1	-1E+10	1
4901784	96	C	02/19/2018	10:44	-133.076	43.436	0	1409.90	0	2.7870	0	34.5830	4	27.580	0	1393.939	0	23.4	4	7.2	4	-1E+10	1	-1E+10	1	-1E+10	1	-1E+10	1	-1E+10	1	-1E+10	1
4901784	96	C	02/19/2018	10:44	-133.076	43.436	0	1415.30	0	2.7810	0	34.5830	4	27.581	0	1399.260	0	23.4	4	7.2	4	-1E+10	1	-1E+10	1	-1E+10	1	-1E+10	1	-1E+10	1	-1E+10	1
4901784	96	C	02/19/2018	10:44	-133.076	43.436	0	1419.90	0	2.7770	0	34.5820	4	27.580	0	1403.792	0	23.3	4	7.2	4	-1E+10	1	-1E+10	1	-1E+10	1	-1E+10	1	-1E+10	1	-1E+10	1
4901784	96	C	02/19/2018	10:44	-133.076	43.436	0	1424.50	0	2.7690	0	34.5830	4	27.582	0	1408.325	0	23.5	4	7.2	4	-1E+10	1	-1E+10	1	-1E+10	1	-1E+10	1	-1E+10	1	-1E+10	1
4901784	96	C	02/19/2018	10:44	-133.076	43.436	0	1430.00	0	2.7620	0	34.5840	4	27.583	0	1413.744	0	23.6	4	7.2	4	-1E+10	1	-1E+10	1	-1E+10	1	-1E+10	1	-1E+10	1	-1E+10	1
4901784	96	C	02/19/2018	10:44	-133.076	43.436	0	1435.60	0	2.7570	0	34.5840	4	27.584	0	1419.261	0	23.7	4	7.3	4	-1E+10	1	-1E+10	1	-1E+10	1	-1E+10	1	-1E+10	1	-1E+10	1
4901784	96	C	02/19/2018	10:44	-133.076	43.436	0	1440.20	0	2.7510	0	34.5850	4	27.585	0	1423.793	0	23.8	4	7.3	4	-1E+10	1	-1E+10	1	-1E+10	1	-1E+10	1	-1E+10	1	-1E+10	1
4901784	96	C	02/19/2018	10:44	-133.076	43.436	0	1444.80	0	2.7380	0	34.5840	4	27.585	0	1428.326	0	23.8	4	7.3	4	-1E+10	1	-1E+10	1	-1E+10	1	-1E+10	1	-1E+10	1	-1E+10	1
4901784	96	C	02/19/2018	10:44	-133.076	43.436	0	1450.40	0	2.7230	0	34.5850	4	27.588	0	1433.843	0	24.0	4	7.4	4	-1E+10	1	-1E+10	1	-1E+10	1	-1E+10	1	-1E+10	1	-1E+10	1
4901784	96	C	02/19/2018	10:44	-133.076	43.436	0	1455.10	0	2.7110	0	34.5860	4	27.589	0	1438.473	0	24.2	4	7.4	4	-1E+10	1	-1E+10	1	-1E+10	1	-1E+10	1	-1E+10	1	-1E+10	1
4901784	96	C	02/19/2018	10:44	-133.076	43.436	0	1459.70	0	2.7030	0	34.5870	4	27.591	0	1443.005	0	24.3	4	7.5	4	-1E+10	1	-1E+10	1	-1E+10	1	-1E+10	1	-1E+10	1	-1E+10	1
4901784	96	C	02/19/2018	10:44	-133.076	43.436	0	1465.20	0	2.6840	0	34.5880	4	27.593	0	1448.423	0	24.3	4	7.5	4	-1E+10	1	-1E+10	1	-1E+10	1	-1E+10	1	-1E+10	1	-1E+10	1
4901784	96	C	02/19/2018	10:44	-133.076	43.436	0	1469.80	0	2.6820	0	34.5880	4	27.594	0	1452.955	0	24.4	4	7.5	4	-1E+10	1	-1E+10	1	-1E+10	1	-1E+10	1	-1E+10	1	-1E+10	1
4901784	96	C	02/19/2018	10:44	-133.076	43.436	0	1474.40	0	2.6750	0	34.5880	4	27.594	0	1457.486	0	24.5	4	7.5	4	-1E+10	1	-1E+10	1	-1E+10	1	-1E+10	1	-1E+10	1	-1E+10	1
4901784	96	C	02/19/2018	10:44	-133.076	43.436	0	1479.70	0	2.6640	0	34.5890	4	27.596	0	1462.707	0	24.7	4	7.6	4	-1E+10	1	-1E+10	1	-1E+10	1	-1E+10	1	-1E+10	1	-1E+10	1
4901784	96	C	02/19/2018	10:44	-133.076	43.436	0	1485.10	0	2.6570	0	34.5890	4	27.597	0	1468.026	0	25.0	4	7.7	4	-1E+10	1	-1E+10	1	-1E+10	1	-1E+10	1	-1E+10	1	-1E+10	1
4901784	96	C	02/19/2018	10:44	-133.076	43.436	0	1490.30	0	2.6410	0	34.5910	4	27.600	0	1473.148	0	25.3	4	7.8	4	-1E+10	1	-1E+10	1	-1E+10	1	-1E+10	1	-1E+10	1	-1E+10	1
4901784	96	C	02/19/2018	10:44	-133.076	43.436	0	1495.30	0	2.6270	0	34.5930	4	27.602	0	1478.073	0	25.6	4	7.8	4	-1E+10	1	-1E+10	1	-1E+10	1	-1E+10	1	-1E+10	1	-1E+10	1
4901784	96	C	02/19/2018	10:44	-133.076	43.436	0	1500.40	0	2.6190	0	34.5930	4	27.603	0	1483.097	0	25.6	4	7.8	4	-1E+10	1	-1E+10	1	-1E+10	1	-1E+10	1	-1E+10	1	-1E+10	1
4901784	96	C	02/19/2018	10:44	-133.076	43.436	0	1505.50	0	2.6160	0	34.5930	4	27.603	0	1488.120	0	25.6	4	7.8	4	-1E+10	1	-1E+10	1	-1E+10	1	-1E+10	1	-1E+10	1	-1E+10	1
4901784	96	C	02/19/2018	10:44	-133.076	43.436	0	1510.50	0	2.6110	0	34.5930	4	27.604	0	1493.044	0	25.7	4	7.9	4	-1E+10	1	-1E+10	1	-1E+10	1	-1E+10	1	-1E+10	1	-1E+10	1
4901784	96	C	02/19/2018	10:44	-133.076	43.436	0	1515.60	0	2.6010	0	34.5940	4	27.606	0	1498.067	0	26.0	4	8.0	4	-1E+10	1	-1E+10	1	-1E+10	1	-1E+10	1	-1E+10	1	-1E+10	1
4901784	96	C	02/19/2018	10:44	-133.076	43.436	0	1520.70	0	2.5850	0	34.5960	4	27.609	0	1503.090	0	26.3	4	8.0	4	-1E+10	1	-1E+10	1	-1E+10	1	-1E+10	1	-1E+10	1	-1E+10	1
4901784	96	C	02/19/2018	10:44	-133.076	43.436	0	1525.00	0	2.5790	0	34.5960	4	27.609	0	1507.325	0	26.4	4	8.1	4	-1E+10	1	-1E+10	1	-1E+10	1	-1E+10	1	-1E+10	1	-1E+10	1
4901784	96	C	02/19/2018	10:44	-133.076	43.436	0	1529.30	0	2.5770	0	34.5960	4	27.609	0	1511.560	0	26.5	4	8.1	4	-1E+10	1	-1E+10	1	-1E+10	1	-1E+10	1	-1E+10	1	-1E+10	1
4901784	96	C	02/19/2018	10:44	-133.076	43.436	0	1534.40	0	2.5730	0	34.5960	4	27.610	0	1516.583	0	26.8	4	8.2	4	-1E+10	1	-1E+10	1	-1E+10	1	-1E+10	1	-1E+10	1	-1E+10	1
4901784	96	C	02/19/2018	10:44	-133.076	43.436	0	1539.60	0	2.5550	0	34.5980	4	27.613	0	1521.703	0	27.2	4	8.3	4	-1E+10	1	-1E+10	1	-1E+10	1	-1E+10	1	-1E+10	1	-1E+10	1
4901784	96	C	02/19/2018	10:44	-133.076	43.436	0	1544.80	0	2.5460	0	34.5990	4	27.614	0	1526.824	0	27.5	4	8.4	4	-1E+10	1	-1E+10	1	-1E+10	1	-1E+10	1	-1E+10	1	-1E+10	1
4901784	96	C	02/19/2018	10:44	-133.076	43.436	0	1550.00	0	2.5310	0	34.6010	4	27.617	0	1531.945	0	27.8	4	8.5	4	-1E+10	1	-1E+10	1	-1E+10	1	-1E+10	1	-1E+10	1	-1E+10	1
4901784	96	C	02/19/2018	10:44	-133.076	43.436	0	1555.20	0	2.5180	0	34.6020	4	27.619	0	1537.065	0	28.1	4	8.6	4	-1E+10	1	-1E+10	1	-1E+10	1	-1E+10	1	-1E+10	1	-1E+10	1
4901784	96	C	02/19/2018	10:44	-133.076	43.436	0	1560.50	0	2.5120	0	34.6030	4	27.621	0	1542.284	0	28.4	4	8.7	4	-1E+10	1	-1E+10	1	-1E+10	1	-1E+10	1	-1E+10	1	-1E+10	1
4901784	96	C	02/19/2018	10:44	-133.076	43.436	0	1565.70	0	2.5040	0	34.6030	4	27.621	0	1547.405	0	28.7	4	8.8	4	-1E+10	1	-1E+10	1	-1E+10	1	-1E+10	1	-1E+10	1	-1E+10	1
4901784	96	C	02/19/2018	10:44	-133.076	43.436	0	1570.10	0	2.4920	0	34.6050	4	27.624	0	1551.737	0	29.1	4	8.9	4	-1E+10	1	-1E+10	1	-1E+10	1	-1E+10	1	-1E+10	1	-1E+10	1
4901784	96	C	02/19/2018	10:44	-133.076	43.436	0	1574.50	0	2.4790	0	34.6060	4	27.626	0	1556.069	0	29.4	4	9.0	4	-1E+10	1	-1E+10	1	-1E+10	1	-1E+10	1	-1E+10	1	-1E+10	1
4901784	96	C	02/19/2018	10:44	-133.076	43.436	0	1579.80	0	2.4690	0	34.6070	4	27.627	0	1561.288	0	29.8	4	9.1	4	-1E+10	1	-1E+10	1	-1E+10	1	-1E+10	1	-1E+10	1	-1E+10	1
4901784	96	C	02/19/2018	10:44	-133.076	43.436	0	1585.20	0	2.4550	0	34.6090	4	27.630	0	1566.605	0	30.2	4	9.2	4	-1E+10	1	-1E+10	1	-1E+10	1	-1E+10	1	-1E+10	1	-1E+10	1
4901784	96	C	02/19/2018	10:44	-133.076	43.436	0	1590.50	0	2.4480	0	34.6100	4	27.632	0	1571.823	0	30.5	4	9.3	4	-1E+10	1	-1E+10	1	-1E+10	1	-1E+10	1	-1E+10	1	-1E+10	1
4901784	96	C	02/19/2018	10:44	-133.076	43.436	0	1595.00	0	2.4430	0	34.6110	4	27.633	0	1576.253	0	30.7	4	9.4	4	-1E+10	1	-1E+10	1	-1E+10	1	-1E+10	1	-1E+10	1	-1E+10	1
4901784	96	C	02/19/2018	10:44	-133.076	43.436	0	1599.80	0	2.4360	0	34.6120	4	27.634	0	1580.979	0	30.9	4	9.4	4	-1E+10	1	-1E+10	1	-1E+10	1	-1E+10	1	-1E+10	1	-1E+10	1
4901784	96	C	02/19/2018	10:44	-133.076	43.436	0	1605.00	0	2.4290	0	34.6120	4	27.635	0	1586.098	0	31.2	4	9.5	4	-1E+10	1	-1E+10	1	-1E+10	1	-1E+10	1	-1E+10	1	-1E+10	1
4901784	96	C	02/19/2018	10:44	-133.076	43.436	0	1609.80	0	2.4210	0	34.6130	4	27.636	0	1590.824	0	31.5	4	9.6	4	-1E+10	1	-1E+10	1	-1E+10	1	-1E+10	1	-1E+10	1	-1E+10	1
4901784	96	C	02/19/2018	10:44	-133.076	43.436	0	1614.60	0	2.4110	0	34.6140	4	27.638	0	1595.549	0	31.8	4	9.7	4	-1E+10	1	-1E+10	1	-1E+10	1	-1E+10	1	-1E+10	1	-1E+10	1
4901784	96	C	02/19/2018	10:44	-133.076	43.436	0	1619.40	0	2.4040	0	34.6150	4	27.640	0	1600.274	0	32.2	4	9.8	4	-1E+10	1	-1E+10	1	-1E+10	1	-1E+10	1	-1E+10	1	-1E+10	1
4901784	96	C	02/19/2018	10:44	-133.076	43.436	0	1624.20	0	2.3900	0	34.6170	4	27.642	0	1604.999	0	32.8	4	10.0	4	-1E+10	1	-1E+10	1	-1E+10	1	-1E+10	1	-1E+10	1	-1E+10	1
4901784	96	C	02/19/2018	10:44	-133.076	43.436	0	1630.00	0	2.3810	0	34.6180	4	27.644	0	1610.709	0	33.4	4	10.2	4	-1E+10	1	-1E+10	1	-1E+10	1	-1E+10	1	-1E+10	1	-1E+10	1
4901784	96	C	02/19/2018	10:44	-133.076	43.436	0	1635.70	0	2.3650	0	34.6200	4	27.647	0	1616.320	0	34.0	4	10.3	4	-1E+10	1	-1E+10	1	-1E+10	1	-1E+10	1	-1E+10	1	-1E+10	1
4901784	96	C	02/19/2018	10:44	-133.076	43.436	0	1640.60	0	2.3500	0	34.6220	4	27.650	0	1621.143	0	34.6	4	10.5	4	-1E+10	1	-1E+10	1	-1E+10	1	-1E+10	1	-1E+10	1	-1E+10	1
4901784	96	C	02/19/2018	10:44	-133.076	43.436	0	1645.50	0	2.3400	0	34.6240	4	27.652	0	1625.966	0	35.1	4	10.7	4	-1E+10	1	-1E+10	1	-1E+10	1	-1E+10	1	-1E+10	1	-1E+10	1
4901784	96	C	02/19/2018	10:44	-133.076	43.436	0	1650.60	0	2.3390	0	34.6250	4	27.653	0	1630.986	0	35.4	4	10.8	4	-1E+10	1	-1E+10	1	-1E+10	1	-1E+10	1	-1E+10	1	-1E+10	1
4901784	96	C	02/19/2018	10:44	-133.076	43.436	0	1655.70	0	2.3340	0	34.6260	4	27.654	0	1636.005	0	36.0	4	11.0	4	-1E+10	1	-1E+10	1	-1E+10	1	-1E+10	1	-1E+10	1	-1E+10	1
4901784	96	C	02/19/2018	10:44	-133.076	43.436	0	1660.00	0	2.3200	0	34.6280	4	27.657	0	1640.238	0	36.5	4	11.1	4	-1E+10	1	-1E+10	1	-1E+10	1	-1E+10	1	-1E+10	1	-1E+10	1
4901784	96	C	02/19/2018	10:44	-133.076	43.436	0	1664.20	0	2.3160	0	34.6290	4	27.658	0	1644.371	0	36.7	4	11.2	4	-1E+10	1	-1E+10	1	-1E+10	1	-1E+10	1	-1E+10	1	-1E+10	1
4901784	96	C	02/19/2018	10:44	-133.076	43.436	0	1669.50	0	2.3130	0	34.6290	4	27.658	0	1649.588	0	37.2	4	11.3	4	-1E+10	1	-1E+10	1	-1E+10	1	-1E+10	1	-1E+10	1	-1E+10	1
4901784	96	C	02/19/2018	10:44	-133.076	43.436	0	1674.70	0	2.3080	0	34.6310	4	27.660	0	1654.705	0	37.8	4	11.5	4	-1E+10	1	-1E+10	1	-1E+10	1	-1E+10	1	-1E+10	1	-1E+10	1
4901784	96	C	02/19/2018	10:44	-133.076	43.436	0	1680.00	0	2.3100	0	34.6330	4	27.662	0	1659.921	0	38.3	4	11.7	4	-1E+10	1	-1E+10	1	-1E+10	1	-1E+10	1	-1E+10	1	-1E+10	1
4901784	96	C	02/19/2018	10:44	-133.076	43.436	0	1685.30	0	2.3120	0	34.6340	4	27.663	0	1665.137	0	38.8	4	11.8	4	-1E+10	1	-1E+10	1	-1E+10	1	-1E+10	1	-1E+10	1	-1E+10	1
4901784	96	C	02/19/2018	10:44	-133.076	43.436	0	1690.60	0	2.3090	0	34.6350	4	27.664	0	1670.353	0	39.0	4	11.9	4	-1E+10	1	-1E+10	1	-1E+10	1	-1E+10	1	-1E+10	1	-1E+10	1
4901784	96	C	02/19/2018	10:44	-133.076	43.436	0	1695.00	0	2.3030	0	34.6350	4	27.664	0	1674.683	0	39.2	4	11.9	4	-1E+10	1	-1E+10	1	-1E+10	1	-1E+10	1	-1E+10	1	-1E+10	1
4901784	96	C	02/19/2018	10:44	-133.076	43.436	0	1699.40	0	2.3000	0	34.6360	4	27.665	0	1679.013	0	39.3	4	12.0	4	-1E+10	1	-1E+10	1	-1E+10	1	-1E+10	1	-1E+10	1	-1E+10	1
4901784	96	C	02/19/2018	10:44	-133.076	43.436	0	1704.70	0	2.2940	0	34.6360	4	27.666	0	1684.228	0	39.6	4	12.0	4	-1E+10	1	-1E+10	1	-1E+10	1	-1E+10	1	-1E+10	1	-1E+10	1
4901784	96	C	02/19/2018	10:44	-133.076	43.436	0	1710.00	0	2.2840	0	34.6370	4	27.667	0	1689.443	0	40.0	4	12.2	4	-1E+10	1	-1E+10	1	-1E+10	1	-1E+10	1	-1E+10	1	-1E+10	1
4901784	96	C	02/19/2018	10:44	-133.076	43.436	0	1715.30	0	2.2770	0	34.6380	4	27.669	0	1694.658	0	40.3	4	12.2	4	-1E+10	1	-1E+10	1	-1E+10	1	-1E+10	1	-1E+10	1	-1E+10	1
4901784	96	C	02/19/2018	10:44	-133.076	43.436	0	1719.80	0	2.2740	0	34.6390	4	27.670	0	1699.086	0	40.5	4	12.3	4	-1E+10	1	-1E+10	1	-1E+10	1	-1E+10	1	-1E+10	1	-1E+10	1
4901784	96	C	02/19/2018	10:44	-133.076	43.436	0	1724.20	0	2.2680	0	34.6390	4	27.670	0	1703.416	0	40.8	4	12.4	4	-1E+10	1	-1E+10	1	-1E+10	1	-1E+10	1	-1E+10	1	-1E+10	1
4901784	96	C	02/19/2018	10:44	-133.076	43.436	0	1729.50	0	2.2570	0	34.6400	4	27.672	0	1708.630	0	40.9	4	12.4	4	-1E+10	1	-1E+10	1	-1E+10	1	-1E+10	1	-1E+10	1	-1E+10	1
4901784	96	C	02/19/2018	10:44	-133.076	43.436	0	1735.10	0	2.2520	0	34.6410	4	27.673	0	1714.140	0	41.1	4	12.5	4	-1E+10	1	-1E+10	1	-1E+10	1	-1E+10	1	-1E+10	1	-1E+10	1
4901784	96	C	02/19/2018	10:44	-133.076	43.436	0	1740.70	0	2.2490	0	34.6420	4	27.674	0	1719.650	0	41.3	4	12.5	4	-1E+10	1	-1E+10	1	-1E+10	1	-1E+10	1	-1E+10	1	-1E+10	1
4901784	96	C	02/19/2018	10:44	-133.076	43.436	0	1745.60	0	2.2490	0	34.6410	4	27.674	0	1724.471	0	41.5	4	12.6	4	-1E+10	1	-1E+10	1	-1E+10	1	-1E+10	1	-1E+10	1	-1E+10	1
4901784	96	C	02/19/2018	10:44	-133.076	43.436	0	1750.60	0	2.2440	0	34.6420	4	27.675	0	1729.390	0	41.8	4	12.7	4	-1E+10	1	-1E+10	1	-1E+10	1	-1E+10	1	-1E+10	1	-1E+10	1
4901784	96	C	02/19/2018	10:44	-133.076	43.436	0	1755.50	0	2.2390	0	34.6430	4	27.676	0	1734.210	0	42.0	4	12.7	4	-1E+10	1	-1E+10	1	-1E+10	1	-1E+10	1	-1E+10	1	-1E+10	1
4901784	96	C	02/19/2018	10:44	-133.076	43.436	0	1760.50	0	2.2360	0	34.6430	4	27.676	0	1739.129	0	42.1	4	12.8	4	-1E+10	1	-1E+10	1	-1E+10	1	-1E+10	1	-1E+10	1	-1E+10	1
4901784	96	C	02/19/2018	10:44	-133.076	43.436	0	1765.50	0	2.2300	0	34.6430	4	27.677	0	1744.048	0	42.4	4	12.9	4	-1E+10	1	-1E+10	1	-1E+10	1	-1E+10	1	-1E+10	1	-1E+10	1
4901784	96	C	02/19/2018	10:44	-133.076	43.436	0	1770.40	0	2.2200	0	34.6440	4	27.679	0	1748.868	0	42.9	4	13.0	4	-1E+10	1	-1E+10	1	-1E+10	1	-1E+10	1	-1E+10	1	-1E+10	1
4901784	96	C	02/19/2018	10:44	-133.076	43.436	0	1775.30	0	2.2080	0	34.6460	4	27.681	0	1753.689	0	43.5	4	13.2	4	-1E+10	1	-1E+10	1	-1E+10	1	-1E+10	1	-1E+10	1	-1E+10	1
4901784	96	C	02/19/2018	10:44	-133.076	43.436	0	1780.30	0	2.2000	0	34.6470	4	27.683	0	1758.607	0	43.9	4	13.3	4	-1E+10	1	-1E+10	1	-1E+10	1	-1E+10	1	-1E+10	1	-1E+10	1
4901784	96	C	02/19/2018	10:44	-133.076	43.436	0	1785.30	0	2.1920	0	34.6480	4	27.684	0	1763.525	0	44.2	4	13.4	4	-1E+10	1	-1E+10	1	-1E+10	1	-1E+10	1	-1E+10	1	-1E+10	1
4901784	96	C	02/19/2018	10:44	-133.076	43.436	0	1790.40	0	2.1850	0	34.6480	4	27.685	0	1768.542	0	44.6	4	13.5	4	-1E+10	1	-1E+10	1	-1E+10	1	-1E+10	1	-1E+10	1	-1E+10	1
4901784	96	C	02/19/2018	10:44	-133.076	43.436	0	1795.60	0	2.1740	0	34.6500	4	27.687	0	1773.657	0	45.1	4	13.7	4	-1E+10	1	-1E+10	1	-1E+10	1	-1E+10	1	-1E+10	1	-1E+10	1
4901784	96	C	02/19/2018	10:44	-133.076	43.436	0	1800.70	0	2.1650	0	34.6510	4	27.689	0	1778.673	0	45.5	4	13.8	4	-1E+10	1	-1E+10	1	-1E+10	1	-1E+10	1	-1E+10	1	-1E+10	1
4901784	96	C	02/19/2018	10:44	-133.076	43.436	0	1805.00	0	2.1650	0	34.6510	4	27.689	0	1782.902	0	45.7	4	13.8	4	-1E+10	1	-1E+10	1	-1E+10	1	-1E+10	1	-1E+10	1	-1E+10	1
4901784	96	C	02/19/2018	10:44	-133.076	43.436	0	1809.20	0	2.1580	0	34.6520	4	27.690	0	1787.033	0	46.0	4	13.9	4	-1E+10	1	-1E+10	1	-1E+10	1	-1E+10	1	-1E+10	1	-1E+10	1
4901784	96	C	02/19/2018	10:44	-133.076	43.436	0	1814.30	0	2.1470	0	34.6530	4	27.692	0	1792.049	0	46.4	4	14.0	4	-1E+10	1	-1E+10	1	-1E+10	1	-1E+10	1	-1E+10	1	-1E+10	1
4901784	96	C	02/19/2018	10:44	-133.076	43.436	0	1819.50	0	2.1390	0	34.6540	4	27.693	0	1797.164	0	46.6	4	14.1	4	-1E+10	1	-1E+10	1	-1E+10	1	-1E+10	1	-1E+10	1	-1E+10	1
4901784	96	C	02/19/2018	10:44	-133.076	43.436	0	1824.70	0	2.1340	0	34.6540	4	27.694	0	1802.278	0	46.9	4	14.2	4	-1E+10	1	-1E+10	1	-1E+10	1	-1E+10	1	-1E+10	1	-1E+10	1
4901784	96	C	02/19/2018	10:44	-133.076	43.436	0	1829.90	0	2.1250	0	34.6550	4	27.695	0	1807.392	0	47.3	4	14.3	4	-1E+10	1	-1E+10	1	-1E+10	1	-1E+10	1	-1E+10	1	-1E+10	1
4901784	96	C	02/19/2018	10:44	-133.076	43.436	0	1835.10	0	2.1170	0	34.6560	4	27.697	0	1812.506	0	47.7	4	14.4	4	-1E+10	1	-1E+10	1	-1E+10	1	-1E+10	1	-1E+10	1	-1E+10	1
4901784	96	C	02/19/2018	10:44	-133.076	43.436	0	1840.30	0	2.1100	0	34.6570	4	27.698	0	1817.619	0	47.9	4	14.5	4	-1E+10	1	-1E+10	1	-1E+10	1	-1E+10	1	-1E+10	1	-1E+10	1
4901784	96	C	02/19/2018	10:44	-133.076	43.436	0	1845.50	0	2.1040	0	34.6570	4	27.699	0	1822.733	0	48.0	4	14.5	4	-1E+10	1	-1E+10	1	-1E+10	1	-1E+10	1	-1E+10	1	-1E+10	1
4901784	96	C	02/19/2018	10:44	-133.076	43.436	0	1850.70	0	2.0950	0	34.6580	4	27.700	0	1827.846	0	48.2	4	14.6	4	-1E+10	1	-1E+10	1	-1E+10	1	-1E+10	1	-1E+10	1	-1E+10	1
4901784	96	C	02/19/2018	10:44	-133.076	43.436	0	1855.00	0	2.0920	0	34.6580	4	27.700	0	1832.075	0	48.4	4	14.6	4	-1E+10	1	-1E+10	1	-1E+10	1	-1E+10	1	-1E+10	1	-1E+10	1
4901784	96	C	02/19/2018	10:44	-133.076	43.436	0	1859.30	0	2.0890	0	34.6590	4	27.701	0	1836.303	0	48.7	4	14.7	4	-1E+10	1	-1E+10	1	-1E+10	1	-1E+10	1	-1E+10	1	-1E+10	1
4901784	96	C	02/19/2018	10:44	-133.076	43.436	0	1864.40	0	2.0830	0	34.6600	4	27.703	0	1841.318	0	49.2	4	14.9	4	-1E+10	1	-1E+10	1	-1E+10	1	-1E+10	1	-1E+10	1	-1E+10	1
4901784	96	C	02/19/2018	10:44	-133.076	43.436	0	1869.60	0	2.0780	0	34.6610	4	27.704	0	1846.431	0	49.6	4	15.0	4	-1E+10	1	-1E+10	1	-1E+10	1	-1E+10	1	-1E+10	1	-1E+10	1
4901784	96	C	02/19/2018	10:44	-133.076	43.436	0	1874.80	0	2.0740	0	34.6610	4	27.704	0	1851.544	0	49.9	4	15.1	4	-1E+10	1	-1E+10	1	-1E+10	1	-1E+10	1	-1E+10	1	-1E+10	1
4901784	96	C	02/19/2018	10:44	-133.076	43.436	0	1880.00	0	2.0690	0	34.6620	4	27.706	0	1856.657	0	50.3	4	15.2	4	-1E+10	1	-1E+10	1	-1E+10	1	-1E+10	1	-1E+10	1	-1E+10	1
4901784	96	C	02/19/2018	10:44	-133.076	43.436	0	1885.10	0	2.0620	0	34.6630	4	27.707	0	1861.671	0	50.5	4	15.3	4	-1E+10	1	-1E+10	1	-1E+10	1	-1E+10	1	-1E+10	1	-1E+10	1
4901784	96	C	02/19/2018	10:44	-133.076	43.436	0	1890.30	0	2.0610	0	34.6630	4	27.707	0	1866.784	0	50.8	4	15.3	4	-1E+10	1	-1E+10	1	-1E+10	1	-1E+10	1	-1E+10	1	-1E+10	1
4901784	96	C	02/19/2018	10:44	-133.076	43.436	0	1895.50	0	2.0570	0	34.6640	4	27.708	0	1871.896	0	51.0	4	15.4	4	-1E+10	1	-1E+10	1	-1E+10	1	-1E+10	1	-1E+10	1	-1E+10	1
4901784	96	C	02/19/2018	10:44	-133.076	43.436	0	1900.70	0	2.0550	0	34.6640	4	27.708	0	1877.009	0	51.3	4	15.5	4	-1E+10	1	-1E+10	1	-1E+10	1	-1E+10	1	-1E+10	1	-1E+10	1
4901784	96	C	02/19/2018	10:44	-133.076	43.436	0	1905.10	0	2.0510	0	34.6650	4	27.710	0	1881.334	0	51.6	4	15.6	4	-1E+10	1	-1E+10	1	-1E+10	1	-1E+10	1	-1E+10	1	-1E+10	1
4901784	96	C	02/19/2018	10:44	-133.076	43.436	0	1909.50	0	2.0450	0	34.6660	4	27.711	0	1885.660	0	52.1	4	15.7	4	-1E+10	1	-1E+10	1	-1E+10	1	-1E+10	1	-1E+10	1	-1E+10	1
4901784	96	C	02/19/2018	10:44	-133.076	43.436	0	1914.80	0	2.0380	0	34.6670	4	27.712	0	1890.870	0	52.5	4	15.9	4	-1E+10	1	-1E+10	1	-1E+10	1	-1E+10	1	-1E+10	1	-1E+10	1
4901784	96	C	02/19/2018	10:44	-133.076	43.436	0	1920.10	0	2.0350	0	34.6680	4	27.713	0	1896.080	0	52.7	4	15.9	4	-1E+10	1	-1E+10	1	-1E+10	1	-1E+10	1	-1E+10	1	-1E+10	1
4901784	96	C	02/19/2018	10:44	-133.076	43.436	0	1925.40	0	2.0330	0	34.6680	4	27.713	0	1901.290	0	53.0	4	16.0	4	-1E+10	1	-1E+10	1	-1E+10	1	-1E+10	1	-1E+10	1	-1E+10	1
4901784	96	C	02/19/2018	10:44	-133.076	43.436	0	1930.70	0	2.0290	0	34.6690	4	27.715	0	1906.500	0	53.4	4	16.1	4	-1E+10	1	-1E+10	1	-1E+10	1	-1E+10	1	-1E+10	1	-1E+10	1
4901784	96	C	02/19/2018	10:44	-133.076	43.436	0	1935.20	0	2.0230	0	34.6700	4	27.716	0	1910.924	0	53.8	4	16.2	4	-1E+10	1	-1E+10	1	-1E+10	1	-1E+10	1	-1E+10	1	-1E+10	1
4901784	96	C	02/19/2018	10:44	-133.076	43.436	0	1939.70	0	2.0180	0	34.6700	4	27.716	0	1915.347	0	54.2	4	16.3	4	-1E+10	1	-1E+10	1	-1E+10	1	-1E+10	1	-1E+10	1	-1E+10	1
4901784	96	C	02/19/2018	10:44	-133.076	43.436	0	1945.00	0	2.0120	0	34.6710	4	27.718	0	1920.557	0	54.6	4	16.5	4	-1E+10	1	-1E+10	1	-1E+10	1	-1E+10	1	-1E+10	1	-1E+10	1
4901784	96	C	02/19/2018	10:44	-133.076	43.436	0	1950.30	0	2.0060	0	34.6720	4	27.719	0	1925.766	0	54.9	4	16.6	4	-1E+10	1	-1E+10	1	-1E+10	1	-1E+10	1	-1E+10	1	-1E+10	1
4901784	96	C	02/19/2018	10:44	-133.076	43.436	0	1954.80	0	2.0040	0	34.6730	4	27.720	0	1930.189	0	55.2	4	16.6	4	-1E+10	1	-1E+10	1	-1E+10	1	-1E+10	1	-1E+10	1	-1E+10	1
4901784	96	C	02/19/2018	10:44	-133.076	43.436	0	1959.60	0	2.0000	0	34.6740	4	27.721	0	1934.907	0	55.6	4	16.8	4	-1E+10	1	-1E+10	1	-1E+10	1	-1E+10	1	-1E+10	1	-1E+10	1
4901784	96	C	02/19/2018	10:44	-133.076	43.436	0	1964.80	0	1.9960	0	34.6740	4	27.721	0	1940.018	0	55.9	4	16.8	4	-1E+10	1	-1E+10	1	-1E+10	1	-1E+10	1	-1E+10	1	-1E+10	1
4901784	96	C	02/19/2018	10:44	-133.076	43.436	0	1969.60	0	1.9930	0	34.6750	4	27.722	0	1944.735	0	56.2	4	17.0	4	-1E+10	1	-1E+10	1	-1E+10	1	-1E+10	1	-1E+10	1	-1E+10	1
4901784	96	C	02/19/2018	10:44	-133.076	43.436	0	1974.50	0	1.9890	0	34.6760	4	27.724	0	1949.551	0	56.5	4	17.0	4	-1E+10	1	-1E+10	1	-1E+10	1	-1E+10	1	-1E+10	1	-1E+10	1
4901784	96	C	02/19/2018	10:44	-133.076	43.436	0	1979.30	0	1.9860	0	34.6760	4	27.724	0	1954.268	0	56.8	4	17.1	4	-1E+10	1	-1E+10	1	-1E+10	1	-1E+10	1	-1E+10	1	-1E+10	1
4901784	96	C	02/19/2018	10:44	-133.076	43.436	0	1985.00	0	1.9830	0	34.6770	4	27.725	0	1959.870	0	57.2	4	17.3	4	-1E+10	1	-1E+10	1	-1E+10	1	-1E+10	1	-1E+10	1	-1E+10	1
4901784	96	C	02/19/2018	10:44	-133.076	43.436	0	1990.80	0	1.9760	0	34.6780	4	27.726	0	1965.570	0	57.8	4	17.4	4	-1E+10	1	-1E+10	1	-1E+10	1	-1E+10	1	-1E+10	1	-1E+10	1
4901784	96	C	02/19/2018	10:44	-133.076	43.436	0	1995.70	0	1.9710	0	34.6790	4	27.727	0	1970.385	0	58.0	4	17.5	4	-1E+10	1	-1E+10	1	-1E+10	1	-1E+10	1	-1E+10	1	-1E+10	1
4901784	96	C	02/19/2018	10:44	-133.076	43.436	0	2000.50	0	1.9690	0	34.6790	4	27.728	0	1975.102	0	58.1	4	17.5	4	-1E+10	1	-1E+10	1	-1E+10	1	-1E+10	1	-1E+10	1	-1E+10	1
4901784	96	C	02/19/2018	10:44	-133.076	43.436	0	2005.20	0	1.9670	0	34.6790	4	27.728	0	1979.721	0	58.3	4	17.6	4	-1E+10	1	-1E+10	1	-1E+10	1	-1E+10	1	-1E+10	1	-1E+10	1
4901784	96	C	02/19/2018	10:44	-133.076	43.436	0	2009.80	0	1.9640	0	34.6800	4	27.729	0	1984.241	0	58.6	4	17.7	4	-1E+10	1	-1E+10	1	-1E+10	1	-1E+10	1	-1E+10	1	-1E+10	1
4901784	96	C	02/19/2018	10:44	-133.076	43.436	0	2015.20	0	1.9610	0	34.6810	4	27.730	0	1989.547	0	58.8	4	17.7	4	-1E+10	1	-1E+10	1	-1E+10	1	-1E+10	1	-1E+10	1	-1E+10	1
4901784	96	C	02/19/2018	10:44	-133.076	43.436	0	2019.00	0	1.9600	0	34.6810	4	27.730	0	1993.281	0	57.5	8	17.3	8	-1E+10	1	-1E+10	1	-1E+10	1	-1E+10	1	-1E+10	1	-1E+10	1
4901784	96	C	02/19/2018	10:44	-133.076	43.436	0																										
4901784	97	C	03/01/2018	10:43	-132.893	43.536	0	2.50	0	10.1400	0	32.8900	4	25.282	0	2.480	0	268.7	4	96.7	4	-1E+10	1	-1E+10	1	-1E+10	1	-1E+10	1	-1E+10	1	-1E+10	1
4901784	97	C	03/01/2018	10:43	-132.893	43.536	0	3.70	0	10.1420	0	32.8890	4	25.281	0	3.670	0	268.6	4	96.6	4	-1E+10	1	-1E+10	1	-1E+10	1	-1E+10	1	-1E+10	1	-1E+10	1
4901784	97	C	03/01/2018	10:43	-132.893	43.536	0	5.20	0	10.1430	0	32.8900	4	25.281	0	5.158	0	268.6	4	96.6	4	-1E+10	1	-1E+10	1	-1E+10	1	-1E+10	1	-1E+10	1	-1E+10	1
4901784	97	C	03/01/2018	10:43	-132.893	43.536	0	6.30	0	10.1450	0	32.8890	4	25.280	0	6.250	0	268.7	4	96.7	4	-1E+10	1	-1E+10	1	-1E+10	1	-1E+10	1	-1E+10	1	-1E+10	1
4901784	97	C	03/01/2018	10:43	-132.893	43.536	0	7.70	0	10.1480	0	32.8890	4	25.280	0	7.638	0	268.7	4	96.7	4	-1E+10	1	-1E+10	1	-1E+10	1	-1E+10	1	-1E+10	1	-1E+10	1
4901784	97	C	03/01/2018	10:43	-132.893	43.536	0	9.00	0	10.1480	0	32.8890	4	25.280	0	8.928	0	268.5	4	96.6	4	-1E+10	1	-1E+10	1	-1E+10	1	-1E+10	1	-1E+10	1	-1E+10	1
4901784	97	C	03/01/2018	10:43	-132.893	43.536	0	10.40	0	10.1470	0	32.8900	4	25.281	0	10.317	0	268.7	4	96.7	4	-1E+10	1	-1E+10	1	-1E+10	1	-1E+10	1	-1E+10	1	-1E+10	1
4901784	97	C	03/01/2018	10:43	-132.893	43.536	0	12.10	0	10.1540	0	32.8880	4	25.278	0	12.003	0	268.7	4	96.7	4	-1E+10	1	-1E+10	1	-1E+10	1	-1E+10	1	-1E+10	1	-1E+10	1
4901784	97	C	03/01/2018	10:43	-132.893	43.536	0	13.90	0	10.1580	0	32.8890	4	25.278	0	13.789	0	268.6	4	96.7	4	-1E+10	1	-1E+10	1	-1E+10	1	-1E+10	1	-1E+10	1	-1E+10	1
4901784	97	C	03/01/2018	10:43	-132.893	43.536	0	15.40	0	10.1580	0	32.8890	4	25.278	0	15.276	0	268.5	4	96.6	4	-1E+10	1	-1E+10	1	-1E+10	1	-1E+10	1	-1E+10	1	-1E+10	1
4901784	97	C	03/01/2018	10:43	-132.893	43.536	0	17.20	0	10.1580	0	32.8900	4	25.279	0	17.062	0	268.5	4	96.7	4	-1E+10	1	-1E+10	1	-1E+10	1	-1E+10	1	-1E+10	1	-1E+10	1
4901784	97	C	03/01/2018	10:43	-132.893	43.536	0	19.10	0	10.1590	0	32.8890	4	25.278	0	18.947	0	268.6	4	96.7	4	-1E+10	1	-1E+10	1	-1E+10	1	-1E+10	1	-1E+10	1	-1E+10	1
4901784	97	C	03/01/2018	10:43	-132.893	43.536	0	20.90	0	10.1590	0	32.8890	4	25.278	0	20.732	0	268.5	4	96.6	4	-1E+10	1	-1E+10	1	-1E+10	1	-1E+10	1	-1E+10	1	-1E+10	1
4901784	97	C	03/01/2018	10:43	-132.893	43.536	0	22.90	0	10.1600	0	32.8890	4	25.278	0	22.716	0	268.6	4	96.7	4	-1E+10	1	-1E+10	1	-1E+10	1	-1E+10	1	-1E+10	1	-1E+10	1
4901784	97	C	03/01/2018	10:43	-132.893	43.536	0	24.90	0	10.1600	0	32.8890	4	25.278	0	24.700	0	268.5	4	96.6	4	-1E+10	1	-1E+10	1	-1E+10	1	-1E+10	1	-1E+10	1	-1E+10	1
4901784	97	C	03/01/2018	10:43	-132.893	43.536	0	26.90	0	10.1600	0	32.8890	4	25.278	0	26.684	0	268.5	4	96.6	4	-1E+10	1	-1E+10	1	-1E+10	1	-1E+10	1	-1E+10	1	-1E+10	1
4901784	97	C	03/01/2018	10:43	-132.893	43.536	0	28.80	0	10.1600	0	32.8900	4	25.279	0	28.568	0	268.5	4	96.6	4	-1E+10	1	-1E+10	1	-1E+10	1	-1E+10	1	-1E+10	1	-1E+10	1
4901784	97	C	03/01/2018	10:43	-132.893	43.536	0	30.70	0	10.1610	0	32.8890	4	25.278	0	30.453	0	268.4	4	96.6	4	-1E+10	1	-1E+10	1	-1E+10	1	-1E+10	1	-1E+10	1	-1E+10	1
4901784	97	C	03/01/2018	10:43	-132.893	43.536	0	32.70	0	10.1610	0	32.8890	4	25.278	0	32.436	0	268.5	4	96.6	4	-1E+10	1	-1E+10	1	-1E+10	1	-1E+10	1	-1E+10	1	-1E+10	1
4901784	97	C	03/01/2018	10:43	-132.893	43.536	0	34.50	0	10.1610	0	32.8890	4	25.278	0	34.222	0	268.4	4	96.6	4	-1E+10	1	-1E+10	1	-1E+10	1	-1E+10	1	-1E+10	1	-1E+10	1
4901784	97	C	03/01/2018	10:43	-132.893	43.536	0	36.50	0	10.1620	0	32.8890	4	25.278	0	36.205	0	268.6	4	96.7	4	-1E+10	1	-1E+10	1	-1E+10	1	-1E+10	1	-1E+10	1	-1E+10	1
4901784	97	C	03/01/2018	10:43	-132.893	43.536	0	38.50	0	10.1620	0	32.8890	4	25.278	0	38.189	0	268.3	4	96.6	4	-1E+10	1	-1E+10	1	-1E+10	1	-1E+10	1	-1E+10	1	-1E+10	1
4901784	97	C	03/01/2018	10:43	-132.893	43.536	0	40.40	0	10.1620	0	32.8890	4	25.278	0	40.074	0	268.3	4	96.6	4	-1E+10	1	-1E+10	1	-1E+10	1	-1E+10	1	-1E+10	1	-1E+10	1
4901784	97	C	03/01/2018	10:43	-132.893	43.536	0	42.40	0	10.1630	0	32.8890	4	25.278	0	42.057	0	268.5	4	96.6	4	-1E+10	1	-1E+10	1	-1E+10	1	-1E+10	1	-1E+10	1	-1E+10	1
4901784	97	C	03/01/2018	10:43	-132.893	43.536	0	44.30	0	10.1630	0	32.8890	4	25.278	0	43.942	0	268.4	4	96.6	4	-1E+10	1	-1E+10	1	-1E+10	1	-1E+10	1	-1E+10	1	-1E+10	1
4901784	97	C	03/01/2018	10:43	-132.893	43.536	0	46.20	0	10.1620	0	32.8890	4	25.278	0	45.826	0	268.4	4	96.6	4	-1E+10	1	-1E+10	1	-1E+10	1	-1E+10	1	-1E+10	1	-1E+10	1
4901784	97	C	03/01/2018	10:43	-132.893	43.536	0	48.30	0	10.1630	0	32.8890	4	25.278	0	47.909	0	268.2	4	96.6	4	-1E+10	1	-1E+10	1	-1E+10	1	-1E+10	1	-1E+10	1	-1E+10	1
4901784	97	C	03/01/2018	10:43	-132.893	43.536	0	50.30	0	10.1630	0	32.8890	4	25.278	0	49.892	0	268.1	4	96.5	4	-1E+10	1	-1E+10	1	-1E+10	1	-1E+10	1	-1E+10	1	-1E+10	1
4901784	97	C	03/01/2018	10:43	-132.893	43.536	0	52.40	0	10.1640	0	32.8890	4	25.278	0	51.975	0	268.2	4	96.5	4	-1E+10	1	-1E+10	1	-1E+10	1	-1E+10	1	-1E+10	1	-1E+10	1
4901784	97	C	03/01/2018	10:43	-132.893	43.536	0	54.40	0	10.1640	0	32.8890	4	25.278	0	53.959	0	268.4	4	96.6	4	-1E+10	1	-1E+10	1	-1E+10	1	-1E+10	1	-1E+10	1	-1E+10	1
4901784	97	C	03/01/2018	10:43	-132.893	43.536	0	56.50	0	10.1640	0	32.8890	4	25.278	0	56.041	0	268.1	4	96.5	4	-1E+10	1	-1E+10	1	-1E+10	1	-1E+10	1	-1E+10	1	-1E+10	1
4901784	97	C	03/01/2018	10:43	-132.893	43.536	0	58.50	0	10.1640	0	32.8890	4	25.278	0	58.025	0	268.1	4	96.5	4	-1E+10	1	-1E+10	1	-1E+10	1	-1E+10	1	-1E+10	1	-1E+10	1
4901784	97	C	03/01/2018	10:43	-132.893	43.536	0	60.60	0	10.1650	0	32.8890	4	25.278	0	60.107	0	268.1	4	96.5	4	-1E+10	1	-1E+10	1	-1E+10	1	-1E+10	1	-1E+10	1	-1E+10	1
4901784	97	C	03/01/2018	10:43	-132.893	43.536	0	62.70	0	10.1650	0	32.8890	4	25.278	0	62.190	0	267.9	4	96.4	4	-1E+10	1	-1E+10	1	-1E+10	1	-1E+10	1	-1E+10	1	-1E+10	1
4901784	97	C	03/01/2018	10:43	-132.893	43.536	0	64.80	0	10.1660	0	32.8890	4	25.278	0	64.273	0	268.1	4	96.5	4	-1E+10	1	-1E+10	1	-1E+10	1	-1E+10	1	-1E+10	1	-1E+10	1
4901784	97	C	03/01/2018	10:43	-132.893	43.536	0	66.80	0	10.1660	0	32.8890	4	25.278	0	66.256	0	267.8	4	96.4	4	-1E+10	1	-1E+10	1	-1E+10	1	-1E+10	1	-1E+10	1	-1E+10	1
4901784	97	C	03/01/2018	10:43	-132.893	43.536	0	68.80	0	10.1660	0	32.8890	4	25.278	0	68.239	0	267.9	4	96.4	4	-1E+10	1	-1E+10	1	-1E+10	1	-1E+10	1	-1E+10	1	-1E+10	1
4901784	97	C	03/01/2018	10:43	-132.893	43.536	0	70.90	0	10.1660	0	32.8890	4	25.278	0	70.322	0	267.7	4	96.4	4	-1E+10	1	-1E+10	1	-1E+10	1	-1E+10	1	-1E+10	1	-1E+10	1
4901784	97	C	03/01/2018	10:43	-132.893	43.536	0	72.80	0	10.1660	0	32.8890	4	25.278	0	72.206	0	267.7	4	96.4	4	-1E+10	1	-1E+10	1	-1E+10	1	-1E+10	1	-1E+10	1	-1E+10	1
4901784	97	C	03/01/2018	10:43	-132.893	43.536	0	74.90	0	10.1670	0	32.8890	4	25.278	0	74.289	0	267.5	4	96.3	4	-1E+10	1	-1E+10	1	-1E+10	1	-1E+10	1	-1E+10	1	-1E+10	1
4901784	97	C	03/01/2018	10:43	-132.893	43.536	0	76.90	0	10.1670	0	32.8890	4	25.278	0	76.272	0	267.5	4	96.3	4	-1E+10	1	-1E+10	1	-1E+10	1	-1E+10	1	-1E+10	1	-1E+10	1
4901784	97	C	03/01/2018	10:43	-132.893	43.536	0	78.90	0	10.1670	0	32.8890	4	25.278	0	78.255	0	267.2	4	96.2	4	-1E+10	1	-1E+10	1	-1E+10	1	-1E+10	1	-1E+10	1	-1E+10	1
4901784	97	C	03/01/2018	10:43	-132.893	43.536	0	80.90	0	10.1670	0	32.8890	4	25.278	0	80.238	0	267.2	4	96.2	4	-1E+10	1	-1E+10	1	-1E+10	1	-1E+10	1	-1E+10	1	-1E+10	1
4901784	97	C	03/01/2018	10:43	-132.893	43.536	0	82.70	0	10.1670	0	32.8890	4	25.278	0	82.023	0	267.0	4	96.1	4	-1E+10	1	-1E+10	1	-1E+10	1	-1E+10	1	-1E+10	1	-1E+10	1
4901784	97	C	03/01/2018	10:43	-132.893	43.536	0	84.60	0	10.1670	0	32.8880	4	25.277	0	83.907	0	266.7	4	96.0	4	-1E+10	1	-1E+10	1	-1E+10	1	-1E+10	1	-1E+10	1	-1E+10	1
4901784	97	C	03/01/2018	10:43	-132.893	43.536	0	86.50	0	10.1670	0	32.8880	4	25.277	0	85.791	0	266.6	4	96.0	4	-1E+10	1	-1E+10	1	-1E+10	1	-1E+10	1	-1E+10	1	-1E+10	1
4901784	97	C	03/01/2018	10:43	-132.893	43.536	0	88.40	0	10.1670	0	32.8880	4	25.277	0	87.675	0	266.3	4	95.9	4	-1E+10	1	-1E+10	1	-1E+10	1	-1E+10	1	-1E+10	1	-1E+10	1
4901784	97	C	03/01/2018	10:43	-132.893	43.536	0	90.30	0	10.1540	0	32.8900	4	25.281	0	89.560	0	266.0	4	95.7	4	-1E+10	1	-1E+10	1	-1E+10	1	-1E+10	1	-1E+10	1	-1E+10	1
4901784	97	C	03/01/2018	10:43	-132.893	43.536	0	92.40	0	10.1520	0	32.8890	4	25.281	0	91.642	0	265.6	4	95.6	4	-1E+10	1	-1E+10	1	-1E+10	1	-1E+10	1	-1E+10	1	-1E+10	1
4901784	97	C	03/01/2018	10:43	-132.893	43.536	0	92.90	0	10.1520	0	32.8880	4	25.280	0	92.138	0	265.2	4	95.4	4	-1E+10	1	-1E+10	1	-1E+10	1	-1E+10	1	-1E+10	1	-1E+10	1
4901784	97	C	03/01/2018	10:43	-132.893	43.536	0	94.40	0	10.1500	0	32.8870	4	25.279	0	93.625	0	264.7	4	95.2	4	-1E+10	1	-1E+10	1	-1E+10	1	-1E+10	1	-1E+10	1	-1E+10	1
4901784	97	C	03/01/2018	10:43	-132.893	43.536	0	96.00	0	10.1560	0	32.8840	4	25.276	0	95.211	0	263.8	4	94.9	4	-1E+10	1	-1E+10	1	-1E+10	1	-1E+10	1	-1E+10	1	-1E+10	1
4901784	97	C	03/01/2018	10:43	-132.893	43.536	0	97.50	0	10.1430	0	32.8830	4	25.278	0	96.699	0	262.5	4	94.4	4	-1E+10	1	-1E+10	1	-1E+10	1	-1E+10	1	-1E+10	1	-1E+10	1
4901784	97	C	03/01/2018	10:43	-132.893	43.536	0	99.00	0	10.1420	0	32.8800	4	25.275	0	98.186	0	260.9	4	93.9	4	-1E+10	1	-1E+10	1	-1E+10	1	-1E+10	1	-1E+10	1	-1E+10	1
4901784	97	C	03/01/2018	10:43	-132.893	43.536	0	100.40	0	10.1330	0	32.8720	4	25.271	0	99.574	0	258.9	4	93.1	4	-1E+10	1	-1E+10	1	-1E+10	1	-1E+10	1	-1E+10	1	-1E+10	1
4901784	97	C	03/01/2018	10:43	-132.893	43.536	0	102.50	0	9.8750	0	32.8960	4	25.332	0	101.656	0	255.3	4	91.3	4	-1E+10	1	-1E+10	1	-1E+10	1	-1E+10	1	-1E+10	1	-1E+10	1
4901784	97	C	03/01/2018	10:43	-132.893	43.536	0	104.70	0	9.4140	0	32.9350	4	25.438	0	103.838	0	253.3	4	89.7	4	-1E+10	1	-1E+10	1	-1E+10	1	-1E+10	1	-1E+10	1	-1E+10	1
4901784	97	C	03/01/2018	10:43	-132.893	43.536	0	107.30	0	8.5310	0	33.0440	4	25.661	0	106.416	0	254.7	4	88.6	4	-1E+10	1	-1E+10	1	-1E+10	1	-1E+10	1	-1E+10	1	-1E+10	1
4901784	97	C	03/01/2018	10:43	-132.893	43.536	0	109.90	0	8.2630	0	33.0650	4	25.718	0	108.994	0	256.1	4	88.5	4	-1E+10	1	-1E+10	1	-1E+10	1	-1E+10	1	-1E+10	1	-1E+10	1
4901784	97	C	03/01/2018	10:43	-132.893	43.536	0	112.50	0	8.2300	0	33.0660	4	25.723	0	111.571	0	256.4	4	88.6	4	-1E+10	1	-1E+10	1	-1E+10	1	-1E+10	1	-1E+10	1	-1E+10	1
4901784	97	C	03/01/2018	10:43	-132.893	43.536	0	115.10	0	8.1800	0	33.0680	4	25.732	0	114.149	0	255.9	4	88.3	4	-1E+10	1	-1E+10	1	-1E+10	1	-1E+10	1	-1E+10	1	-1E+10	1
4901784	97	C	03/01/2018	10:43	-132.893	43.536	0	117.60	0	8.0280	0	33.0630	4	25.751	0	116.628	0	256.1	4	88.1	4	-1E+10	1	-1E+10	1	-1E+10	1	-1E+10	1	-1E+10	1	-1E+10	1
4901784	97	C	03/01/2018	10:43	-132.893	43.536	0	120.20	0	7.9040	0	33.0560	4	25.763	0	119.206	0	255.9	4	87.7	4	-1E+10	1	-1E+10	1	-1E+10	1	-1E+10	1	-1E+10	1	-1E+10	1
4901784	97	C	03/01/2018	10:43	-132.893	43.536	0	122.80	0	7.9180	0	33.0780	4	25.779	0	121.783	0	254.5	4	87.3	4	-1E+10	1	-1E+10	1	-1E+10	1	-1E+10	1	-1E+10	1	-1E+10	1
4901784	97	C	03/01/2018	10:43	-132.893	43.536	0	125.40	0	7.8570	0	33.0830	4	25.791	0	124.361	0	253.5	4	86.9	4	-1E+10	1	-1E+10	1	-1E+10	1	-1E+10	1	-1E+10	1	-1E+10	1
4901784	97	C	03/01/2018	10:43	-132.893	43.536	0	127.10	0	7.9040	0	33.1040	4	25.801	0	126.046	0	252.2	4	86.5	4	-1E+10	1	-1E+10	1	-1E+10	1	-1E+10	1	-1E+10	1	-1E+10	1
4901784	97	C	03/01/2018	10:43	-132.893	43.536	0	129.80	0	7.9560	0	33.1170	4	25.804	0	128.723	0	250.2	4	85.9	4	-1E+10	1	-1E+10	1	-1E+10	1	-1E+10	1	-1E+10	1	-1E+10	1
4901784	97	C	03/01/2018	10:43	-132.893	43.536	0	132.40	0	8.0410	0	33.1390	4	25.809	0	131.301	0	247.6	4	85.2	4	-1E+10	1	-1E+10	1	-1E+10	1	-1E+10	1	-1E+10	1	-1E+10	1
4901784	97	C	03/01/2018	10:43	-132.893	43.536	0	134.90	0	8.0470	0	33.1680	4	25.831	0	133.779	0	245.2	4	84.4	4	-1E+10	1	-1E+10	1	-1E+10	1	-1E+10	1	-1E+10	1	-1E+10	1
4901784	97	C	03/01/2018	10:43	-132.893	43.536	0	137.60	0	8.1370	0	33.1970	4	25.840	0	136.456	0	241.9	4	83.5	4	-1E+10	1	-1E+10	1	-1E+10	1	-1E+10	1	-1E+10	1	-1E+10	1
4901784	97	C	03/01/2018	10:43	-132.893	43.536	0	140.30	0	8.1870	0	33.2270	4	25.856	0	139.133	0	238.9	4	82.5	4	-1E+10	1	-1E+10	1	-1E+10	1	-1E+10	1	-1E+10	1	-1E+10	1
4901784	97	C	03/01/2018	10:43	-132.893	43.536	0	143.30	0	8.2180	0	33.2650	4	25.882	0	142.107	0	236.0	4	81.6	4	-1E+10	1	-1E+10	1	-1E+10	1	-1E+10	1	-1E+10	1	-1E+10	1
4901784	97	C	03/01/2018	10:43	-132.893	43.536	0	144.60	0	8.2200	0	33.2830	4	25.895	0	143.395	0	234.4	4	81.1	4	-1E+10	1	-1E+10	1	-1E+10	1	-1E+10	1	-1E+10	1	-1E+10	1
4901784	97	C	03/01/2018	10:43	-132.893	43.536	0	147.60	0	8.1640	0	33.3170	4	25.931	0	146.369	0	230.8	4	79.8	4	-1E+10	1	-1E+10	1	-1E+10	1	-1E+10	1	-1E+10	1	-1E+10	1
4901784	97	C	03/01/2018	10:43	-132.893	43.536	0	149.80	0	8.1460	0	33.3610	4	25.968	0	148.550	0	227.0	4	78.4	4	-1E+10	1	-1E+10	1	-1E+10	1	-1E+10	1	-1E+10	1	-1E+10	1
4901784	97	C	03/01/2018	10:43	-132.893	43.536	0	152.00	0	8.1770	0	33.4240	4	26.013	0	150.731	0	222.9	4	77.1	4	-1E+10	1	-1E+10	1	-1E+10	1	-1E+10	1	-1E+10	1	-1E+10	1
4901784	97	C	03/01/2018	10:43	-132.893	43.536	0	155.20	0	8.2240	0	33.4740	4	26.045	0	153.903	0	217.7	4	75.4	4	-1E+10	1	-1E+10	1	-1E+10	1	-1E+10	1	-1E+10	1	-1E+10	1
4901784	97	C	03/01/2018	10:43	-132.893	43.536	0	157.60	0	8.2830	0	33.5470	4	26.093	0	156.282	0	212.9	4	73.9	4	-1E+10	1	-1E+10	1	-1E+10	1	-1E+10	1	-1E+10	1	-1E+10	1
4901784	97	C	03/01/2018	10:43	-132.893	43.536	0	160.00	0	8.3490	0	33.6090	4	26.132	0	158.661	0	208.4	4	72.5	4	-1E+10	1	-1E+10	1	-1E+10	1	-1E+10	1	-1E+10	1	-1E+10	1
4901784	97	C	03/01/2018	10:43	-132.893	43.536	0	163.00	0	8.4080	0	33.6940	4	26.190	0	161.635	0	204.1	4	71.1	4	-1E+10	1	-1E+10	1	-1E+10	1	-1E+10	1	-1E+10	1	-1E+10	1
4901784	97	C	03/01/2018	10:43	-132.893	43.536	0	165.50	0	8.4720	0	33.7580	4	26.231	0	164.113	0	200.9	4	70.1	4	-1E+10	1	-1E+10	1	-1E+10	1	-1E+10	1	-1E+10	1	-1E+10	1
4901784	97	C	03/01/2018	10:43	-132.893	43.536	0	167.70	0	8.5100	0	33.7980	4	26.256	0	166.294	0	198.9	4	69.5	4	-1E+10	1	-1E+10	1	-1E+10	1	-1E+10	1	-1E+10	1	-1E+10	1
4901784	97	C	03/01/2018	10:43	-132.893	43.536	0	169.90	0	8.5330	0	33.8290	4	26.277	0	168.474	0	197.1	4	68.9	4	-1E+10	1	-1E+10	1	-1E+10	1	-1E+10	1	-1E+10	1	-1E+10	1
4901784	97	C	03/01/2018	10:43	-132.893	43.536	0	172.80	0	8.5490	0	33.8570	4	26.297	0	171.349	0	194.5	4	68.0	4	-1E+10	1	-1E+10	1	-1E+10	1	-1E+10	1	-1E+10	1	-1E+10	1
4901784	97	C	03/01/2018	10:43	-132.893	43.536	0	175.10	0	8.5670	0	33.8910	4	26.320	0	173.628	0	192.2	4	67.3	4	-1E+10	1	-1E+10	1	-1E+10	1	-1E+10	1	-1E+10	1	-1E+10	1
4901784	97	C	03/01/2018	10:43	-132.893	43.536	0	177.50	0	8.5800	0	33.9180	4	26.340	0	176.007	0	190.4	4	66.7	4	-1E+10	1	-1E+10	1	-1E+10	1	-1E+10	1	-1E+10	1	-1E+10	1
4901784	97	C	03/01/2018	10:43	-132.893	43.536	0	179.90	0	8.5960	0	33.9680	4	26.376	0	178.386	0	188.7	4	66.1	4	-1E+10	1	-1E+10	1	-1E+10	1	-1E+10	1	-1E+10	1	-1E+10	1
4901784	97	C	03/01/2018	10:43	-132.893	43.536	0	182.30	0	8.5940	0	33.9930	4	26.396	0	180.765	0	187.7	4	65.8	4	-1E+10	1	-1E+10	1	-1E+10	1	-1E+10	1	-1E+10	1	-1E+10	1
4901784	97	C	03/01/2018	10:43	-132.893	43.536	0	184.70	0	8.5930	0	34.0070	4	26.408	0	183.144	0	186.9	4	65.5	4	-1E+10	1	-1E+10	1	-1E+10	1	-1E+10	1	-1E+10	1	-1E+10	1
4901784	97	C	03/01/2018	10:43	-132.893	43.536	0	187.10	0	8.5810	0	34.0210	4	26.420	0	185.522	0	186.5	4	65.4	4	-1E+10	1	-1E+10	1	-1E+10	1	-1E+10	1	-1E+10	1	-1E+10	1
4901784	97	C	03/01/2018	10:43	-132.893	43.536	0	190.40	0	8.5810	0	34.0300	4	26.428	0	188.793	0	185.7	4	65.1	4	-1E+10	1	-1E+10	1	-1E+10	1	-1E+10	1	-1E+10	1	-1E+10	1
4901784	97	C	03/01/2018	10:43	-132.893	43.536	0	192.90	0	8.5630	0	34.0370	4	26.436	0	191.271	0	185.4	4	65.0	4	-1E+10	1	-1E+10	1	-1E+10	1	-1E+10	1	-1E+10	1	-1E+10	1
4901784	97	C	03/01/2018	10:43	-132.893	43.536	0	195.30	0	8.5590	0	34.0520	4	26.448	0	193.649	0	184.7	4	64.7	4	-1E+10	1	-1E+10	1	-1E+10	1	-1E+10	1	-1E+10	1	-1E+10	1
4901784	97	C	03/01/2018	10:43	-132.893	43.536	0	197.90	0	8.5340	0	34.0590	4	26.458	0	196.226	0	184.0	4	64.5	4	-1E+10	1	-1E+10	1	-1E+10	1	-1E+10	1	-1E+10	1	-1E+10	1
4901784	97	C	03/01/2018	10:43	-132.893	43.536	0	199.60	0	8.5230	0	34.0610	4	26.461	0	197.911	0	183.6	4	64.3	4	-1E+10	1	-1E+10	1	-1E+10	1	-1E+10	1	-1E+10	1	-1E+10	1
4901784	97	C	03/01/2018	10:43	-132.893	43.536	0	202.20	0	8.5160	0	34.0610	4	26.462	0	200.488	0	182.9	4	64.1	4	-1E+10	1	-1E+10	1	-1E+10	1	-1E+10	1	-1E+10	1	-1E+10	1
4901784	97	C	03/01/2018	10:43	-132.893	43.536	0	204.80	0	8.5110	0	34.0640	4	26.465	0	203.064	0	181.8	4	63.7	4	-1E+10	1	-1E+10	1	-1E+10	1	-1E+10	1	-1E+10	1	-1E+10	1
4901784	97	C	03/01/2018	10:43	-132.893	43.536	0	207.40	0	8.4740	0	34.0710	4	26.476	0	205.641	0	180.5	4	63.2	4	-1E+10	1	-1E+10	1	-1E+10	1	-1E+10	1	-1E+10	1	-1E+10	1
4901784	97	C	03/01/2018	10:43	-132.893	43.536	0	210.10	0	8.4390	0	34.0690	4	26.480	0	208.317	0	178.9	4	62.6	4	-1E+10	1	-1E+10	1	-1E+10	1	-1E+10	1	-1E+10	1	-1E+10	1
4901784	97	C	03/01/2018	10:43	-132.893	43.536	0	212.70	0	8.3630	0	34.0650	4	26.489	0	210.893	0	177.8	4	62.0	4	-1E+10	1	-1E+10	1	-1E+10	1	-1E+10	1	-1E+10	1	-1E+10	1
4901784	97	C	03/01/2018	10:43	-132.893	43.536	0	215.30	0	8.3130	0	34.0650	4	26.496	0	213.470	0	176.4	4	61.5	4	-1E+10	1	-1E+10	1	-1E+10	1	-1E+10	1	-1E+10	1	-1E+10	1
4901784	97	C	03/01/2018	10:43	-132.893	43.536	0	217.00	0	8.2510	0	34.0650	4	26.506	0	215.155	0	175.7	4	61.2	4	-1E+10	1	-1E+10	1	-1E+10	1	-1E+10	1	-1E+10	1	-1E+10	1
4901784	97	C	03/01/2018	10:43	-132.893	43.536	0	219.70	0	8.2140	0	34.0600	4	26.507	0	217.830	0	174.8	4	60.8	4	-1E+10	1	-1E+10	1	-1E+10	1	-1E+10	1	-1E+10	1	-1E+10	1
4901784	97	C	03/01/2018	10:43	-132.893	43.536	0	222.50	0	8.1730	0	34.0570	4	26.511	0	220.605	0	173.8	4	60.4	4	-1E+10	1	-1E+10	1	-1E+10	1	-1E+10	1	-1E+10	1	-1E+10	1
4901784	97	C	03/01/2018	10:43	-132.893	43.536	0	225.20	0	8.1600	0	34.0580	4	26.514	0	223.280	0	172.9	4	60.1	4	-1E+10	1	-1E+10	1	-1E+10	1	-1E+10	1	-1E+10	1	-1E+10	1
4901784	97	C	03/01/2018	10:43	-132.893	43.536	0	227.90	0	8.0960	0	34.0570	4	26.523	0	225.956	0	171.7	4	59.6	4	-1E+10	1	-1E+10	1	-1E+10	1	-1E+10	1	-1E+10	1	-1E+10	1
4901784	97	C	03/01/2018	10:43	-132.893	43.536	0	229.70	0	8.0620	0	34.0550	4	26.526	0	227.740	0	171.3	4	59.4	4	-1E+10	1	-1E+10	1	-1E+10	1	-1E+10	1	-1E+10	1	-1E+10	1
4901784	97	C	03/01/2018	10:43	-132.893	43.536	0	232.50	0	8.0320	0	34.0550	4	26.531	0	230.514	0	170.8	4	59.2	4	-1E+10	1	-1E+10	1	-1E+10	1	-1E+10	1	-1E+10	1	-1E+10	1
4901784	97	C	03/01/2018	10:43	-132.893	43.536	0	235.30	0	8.0330	0	34.0610	4	26.535	0	233.289	0	170.2	4	59.0	4	-1E+10	1	-1E+10	1	-1E+10	1	-1E+10	1	-1E+10	1	-1E+10	1
4901784	97	C	03/01/2018	10:43	-132.893	43.536	0	237.10	0	8.0260	0	34.0620	4	26.537	0	235.072	0	169.3	4	58.6	4	-1E+10	1	-1E+10	1	-1E+10	1	-1E+10	1	-1E+10	1	-1E+10	1
4901784	97	C	03/01/2018	10:43	-132.893	43.536	0	239.90	0	7.9690	0	34.0610	4	26.545	0	237.847	0	168.2	4	58.2	4	-1E+10	1	-1E+10	1	-1E+10	1	-1E+10	1	-1E+10	1	-1E+10	1
4901784	97	C	03/01/2018	10:43	-132.893	43.536	0	242.60	0	7.9330	0	34.0620	4	26.551	0	240.522	0	167.0	4	57.7	4	-1E+10	1	-1E+10	1	-1E+10	1	-1E+10	1	-1E+10	1	-1E+10	1
4901784	97	C	03/01/2018	10:43	-132.893	43.536	0	244.50	0	7.9230	0	34.0620	4	26.552	0	242.405	0	166.2	4	57.4	4	-1E+10	1	-1E+10	1	-1E+10	1	-1E+10	1	-1E+10	1	-1E+10	1
4901784	97	C	03/01/2018	10:43	-132.893	43.536	0	247.20	0	7.9140	0	34.0610	4	26.553	0	245.080	0	164.4	4	56.8	4	-1E+10	1	-1E+10	1	-1E+10	1	-1E+10	1	-1E+10	1	-1E+10	1
4901784	97	C	03/01/2018	10:43	-132.893	43.536	0	250.00	0	7.8390	0	34.0570	4	26.561	0	247.854	0	162.3	4	56.0	4	-1E+10	1	-1E+10	1	-1E+10	1	-1E+10	1	-1E+10	1	-1E+10	1
4901784	97	C	03/01/2018	10:43	-132.893	43.536	0	252.80	0	7.7630	0	34.0570	4	26.572	0	250.628	0	160.2	4	55.2	4	-1E+10	1	-1E+10	1	-1E+10	1	-1E+10	1	-1E+10	1	-1E+10	1
4901784	97	C	03/01/2018	10:43	-132.893	43.536	0	255.60	0	7.7240	0	34.0560	4	26.577	0	253.403	0	158.5	4	54.5	4	-1E+10	1	-1E+10	1	-1E+10	1	-1E+10	1	-1E+10	1	-1E+10	1
4901784	97	C	03/01/2018	10:43	-132.893	43.536	0	257.40	0	7.7180	0	34.0570	4	26.578	0	255.186	0	157.3	4	54.1	4	-1E+10	1	-1E+10	1	-1E+10	1	-1E+10	1	-1E+10	1	-1E+10	1
4901784	97	C	03/01/2018	10:43	-132.893	43.536	0	260.20	0	7.6610	0	34.0550	4	26.585	0	257.960	0	154.7	4	53.1	4	-1E+10	1	-1E+10	1	-1E+10	1	-1E+10	1	-1E+10	1	-1E+10	1
4901784	97	C	03/01/2018	10:43	-132.893	43.536	0	263.00	0	7.5710	0	34.0550	4	26.598	0	260.734	0	152.5	4	52.3	4	-1E+10	1	-1E+10	1	-1E+10	1	-1E+10	1	-1E+10	1	-1E+10	1
4901784	97	C	03/01/2018	10:43	-132.893	43.536	0	264.80	0	7.4820	0	34.0550	4	26.611	0	262.518	0	151.6	4	51.9	4	-1E+10	1	-1E+10	1	-1E+10	1	-1E+10	1	-1E+10	1	-1E+10	1
4901784	97	C	03/01/2018	10:43	-132.893	43.536	0	267.60	0	7.4520	0	34.0520	4	26.613	0	265.292	0	150.8	4	51.6	4	-1E+10	1	-1E+10	1	-1E+10	1	-1E+10	1	-1E+10	1	-1E+10	1
4901784	97	C	03/01/2018	10:43	-132.893	43.536	0	270.40	0	7.4410	0	34.0510	4	26.614	0	268.066	0	149.6	4	51.1	4	-1E+10	1	-1E+10	1	-1E+10	1	-1E+10	1	-1E+10	1	-1E+10	1
4901784	97	C	03/01/2018	10:43	-132.893	43.536	0	272.20	0	7.3950	0	34.0520	4	26.621	0	269.849	0	148.7	4	50.8	4	-1E+10	1	-1E+10	1	-1E+10	1	-1E+10	1	-1E+10	1	-1E+10	1
4901784	97	C	03/01/2018	10:43	-132.893	43.536	0	275.00	0	7.3670	0	34.0500	4	26.623	0	272.623	0	147.8	4	50.4	4	-1E+10	1	-1E+10	1	-1E+10	1	-1E+10	1	-1E+10	1	-1E+10	1
4901784	97	C	03/01/2018	10:43	-132.893	43.536	0	277.80	0	7.3430	0	34.0490	4	26.626	0	275.397	0	146.8	4	50.1	4	-1E+10	1	-1E+10	1	-1E+10	1	-1E+10	1	-1E+10	1	-1E+10	1
4901784	97	C	03/01/2018	10:43	-132.893	43.536	0	279.60	0	7.3250	0	34.0470	4	26.627	0	277.180	0	145.9	4	49.7	4	-1E+10	1	-1E+10	1	-1E+10	1	-1E+10	1	-1E+10	1	-1E+10	1
4901784	97	C	03/01/2018	10:43	-132.893	43.536	0	282.30	0	7.2710	0	34.0450	4	26.633	0	279.855	0	144.7	4	49.3	4	-1E+10	1	-1E+10	1	-1E+10	1	-1E+10	1	-1E+10	1	-1E+10	1
4901784	97	C	03/01/2018	10:43	-132.893	43.536	0	285.10	0	7.2280	0	34.0430	4	26.637	0	282.629	0	143.6	4	48.8	4	-1E+10	1	-1E+10	1	-1E+10	1	-1E+10	1	-1E+10	1	-1E+10	1
4901784	97	C	03/01/2018	10:43	-132.893	43.536	0	287.80	0	7.1830	0	34.0400	4	26.641	0	285.304	0	142.5	4	48.4	4	-1E+10	1	-1E+10	1	-1E+10	1	-1E+10	1	-1E+10	1	-1E+10	1
4901784	97	C	03/01/2018	10:43	-132.893	43.536	0	290.60	0	7.1550	0	34.0400	4	26.645	0	288.077	0	141.0	4	47.9	4	-1E+10	1	-1E+10	1	-1E+10	1	-1E+10	1	-1E+10	1	-1E+10	1
4901784	97	C	03/01/2018	10:43	-132.893	43.536	0	292.40	0	7.1260	0	34.0370	4	26.647	0	289.861	0	140.2	4	47.6	4	-1E+10	1	-1E+10	1	-1E+10	1	-1E+10	1	-1E+10	1	-1E+10	1
4901784	97	C	03/01/2018	10:43	-132.893	43.536	0	295.10	0	7.0470	0	34.0350	4	26.656	0	292.535	0	138.7	4	47.0	4	-1E+10	1	-1E+10	1	-1E+10	1	-1E+10	1	-1E+10	1	-1E+10	1
4901784	97	C	03/01/2018	10:43	-132.893	43.536	0	297.80	0	6.9900	0	34.0340	4	26.663	0	295.210	0	137.7	4	46.6	4	-1E+10	1	-1E+10	1	-1E+10	1	-1E+10	1	-1E+10	1	-1E+10	1
4901784	97	C	03/01/2018	10:43	-132.893	43.536	0	299.60	0	6.9820	0	34.0330	4	26.664	0	296.993	0	136.9	4	46.3	4	-1E+10	1	-1E+10	1	-1E+10	1	-1E+10	1	-1E+10	1	-1E+10	1
4901784	97	C	03/01/2018	10:43	-132.893	43.536	0	302.30	0	6.9610	0	34.0310	4	26.665	0	299.667	0	135.6	4	45.8	4	-1E+10	1	-1E+10	1	-1E+10	1	-1E+10	1	-1E+10	1	-1E+10	1
4901784	97	C	03/01/2018	10:43	-132.893	43.536	0	305.00	0	6.9190	0	34.0250	4	26.666	0	302.342	0	134.0	4	45.3	4	-1E+10	1	-1E+10	1	-1E+10	1	-1E+10	1	-1E+10	1	-1E+10	1
4901784	97	C	03/01/2018	10:43	-132.893	43.536	0	307.80	0	6.8220	0	34.0220	4	26.677	0	305.115	0	132.2	4	44.6	4	-1E+10	1	-1E+10	1	-1E+10	1	-1E+10	1	-1E+10	1	-1E+10	1
4901784	97	C	03/01/2018	10:43	-132.893	43.536	0	310.50	0	6.7630	0	34.0190	4	26.682	0	307.790	0	130.5	4	43.9	4	-1E+10	1	-1E+10	1	-1E+10	1	-1E+10	1	-1E+10	1	-1E+10	1
4901784	97	C	03/01/2018	10:43	-132.893	43.536	0	312.30	0	6.6660	0	34.0200	4	26.696	0	309.573	0	129.6	4	43.5	4	-1E+10	1	-1E+10	1	-1E+10	1	-1E+10	1	-1E+10	1	-1E+10	1
4901784	97	C	03/01/2018	10:43	-132.893	43.536	0	315.10	0	6.6230	0	34.0170	4	26.699	0	312.346	0	128.6	4	43.1	4	-1E+10	1	-1E+10	1	-1E+10	1	-1E+10	1	-1E+10	1	-1E+10	1
4901784	97	C	03/01/2018	10:43	-132.893	43.536	0	317.90	0	6.5730	0	34.0180	4	26.707	0	315.120	0	127.9	4	42.8	4	-1E+10	1	-1E+10	1	-1E+10	1	-1E+10	1	-1E+10	1	-1E+10	1
4901784	97	C	03/01/2018	10:43	-132.893	43.536	0	319.70	0	6.5680	0	34.0170	4	26.707	0	316.903	0	127.4	4	42.7	4	-1E+10	1	-1E+10	1	-1E+10	1	-1E+10	1	-1E+10	1	-1E+10	1
4901784	97	C	03/01/2018	10:43	-132.893	43.536	0	322.50	0	6.5500	0	34.0160	4	26.708	0	319.676	0	126.2	4	42.3	4	-1E+10	1	-1E+10	1	-1E+10	1	-1E+10	1	-1E+10	1	-1E+10	1
4901784	97	C	03/01/2018	10:43	-132.893	43.536	0	325.30	0	6.5090	0	34.0160	4	26.714	0	322.449	0	124.9	4	41.8	4	-1E+10	1	-1E+10	1	-1E+10	1	-1E+10	1	-1E+10	1	-1E+10	1
4901784	97	C	03/01/2018	10:43	-132.893	43.536	0	327.10	0	6.4710	0	34.0150	4	26.718	0	324.232	0	124.1	4	41.5	4	-1E+10	1	-1E+10	1	-1E+10	1	-1E+10	1	-1E+10	1	-1E+10	1
4901784	97	C	03/01/2018	10:43	-132.893	43.536	0	329.80	0	6.4360	0	34.0140	4	26.722	0	326.906	0	123.0	4	41.1	4	-1E+10	1	-1E+10	1	-1E+10	1	-1E+10	1	-1E+10	1	-1E+10	1
4901784	97	C	03/01/2018	10:43	-132.893	43.536	0	332.60	0	6.3910	0	34.0130	4	26.727	0	329.679	0	121.9	4	40.7	4	-1E+10	1	-1E+10	1	-1E+10	1	-1E+10	1	-1E+10	1	-1E+10	1
4901784	97	C	03/01/2018	10:43	-132.893	43.536	0	334.40	0	6.3890	0	34.0110	4	26.725	0	331.462	0	121.1	4	40.4	4	-1E+10	1	-1E+10	1	-1E+10	1	-1E+10	1	-1E+10	1	-1E+10	1
4901784	97	C	03/01/2018	10:43	-132.893	43.536	0	337.20	0	6.3490	0	34.0120	4	26.731	0	334.235	0	119.5	4	39.8	4	-1E+10	1	-1E+10	1	-1E+10	1	-1E+10	1	-1E+10	1	-1E+10	1
4901784	97	C	03/01/2018	10:43	-132.893	43.536	0	340.10	0	6.3000	0	34.0080	4	26.735	0	337.107	0	117.8	4	39.2	4	-1E+10	1	-1E+10	1	-1E+10	1	-1E+10	1	-1E+10	1	-1E+10	1
4901784	97	C	03/01/2018	10:43	-132.893	43.536	0	342.00	0	6.2450	0	34.0090	4	26.742	0	338.989	0	116.6	4	38.8	4	-1E+10	1	-1E+10	1	-1E+10	1	-1E+10	1	-1E+10	1	-1E+10	1
4901784	97	C	03/01/2018	10:43	-132.893	43.536	0	344.90	0	6.2030	0	34.0070	4	26.746	0	341.861	0	115.3	4	38.3	4	-1E+10	1	-1E+10	1	-1E+10	1	-1E+10	1	-1E+10	1	-1E+10	1
4901784	97	C	03/01/2018	10:43	-132.893	43.536	0	347.70	0	6.1520	0	34.0060	4	26.752	0	344.634	0	113.5	4	37.7	4	-1E+10	1	-1E+10	1	-1E+10	1	-1E+10	1	-1E+10	1	-1E+10	1
4901784	97	C	03/01/2018	10:43	-132.893	43.536	0	349.60	0	6.0830	0	34.0070	4	26.761	0	346.516	0	112.5	4	37.3	4	-1E+10	1	-1E+10	1	-1E+10	1	-1E+10	1	-1E+10	1	-1E+10	1
4901784	97	C	03/01/2018	10:43	-132.893	43.536	0	352.40	0	6.0600	0	34.0060	4	26.764	0	349.289	0	111.2	4	36.8	4	-1E+10	1	-1E+10	1	-1E+10	1	-1E+10	1	-1E+10	1	-1E+10	1
4901784	97	C	03/01/2018	10:43	-132.893	43.536	0	355.20	0	6.0380	0	34.0040	4	26.765	0	352.062	0	109.5	4	36.2	4	-1E+10	1	-1E+10	1	-1E+10	1	-1E+10	1	-1E+10	1	-1E+10	1
4901784	97	C	03/01/2018	10:43	-132.893	43.536	0	357.10	0	5.9930	0	34.0030	4	26.770	0	353.943	0	108.3	4	35.8	4	-1E+10	1	-1E+10	1	-1E+10	1	-1E+10	1	-1E+10	1	-1E+10	1
4901784	97	C	03/01/2018	10:43	-132.893	43.536	0	359.90	0	5.9230	0	34.0040	4	26.779	0	356.716	0	107.0	4	35.3	4	-1E+10	1	-1E+10	1	-1E+10	1	-1E+10	1	-1E+10	1	-1E+10	1
4901784	97	C	03/01/2018	10:43	-132.893	43.536	0	362.80	0	5.8800	0	34.0040	4	26.785	0	359.588	0	105.9	4	34.9	4	-1E+10	1	-1E+10	1	-1E+10	1	-1E+10	1	-1E+10	1	-1E+10	1
4901784	97	C	03/01/2018	10:43	-132.893	43.536	0	364.70	0	5.8520	0	34.0040	4	26.788	0	361.470	0	105.3	4	34.7	4	-1E+10	1	-1E+10	1	-1E+10	1	-1E+10	1	-1E+10	1	-1E+10	1
4901784	97	C	03/01/2018	10:43	-132.893	43.536	0	367.10	0	5.8140	0	34.0050	4	26.794	0	363.846	0	104.7	4	34.5	4	-1E+10	1	-1E+10	1	-1E+10	1	-1E+10	1	-1E+10	1	-1E+10	1
4901784	97	C	03/01/2018	10:43	-132.893	43.536	0	369.70	0	5.8030	0	34.0050	4	26.795	0	366.421	0	104.3	4	34.3	4	-1E+10	1	-1E+10	1	-1E+10	1	-1E+10	1	-1E+10	1	-1E+10	1
4901784	97	C	03/01/2018	10:43	-132.893	43.536	0	372.90	0	5.7830	0	34.0040	4	26.797	0	369.590	0	103.5	4	34.0	4	-1E+10	1	-1E+10	1	-1E+10	1	-1E+10	1	-1E+10	1	-1E+10	1
4901784	97	C	03/01/2018	10:43	-132.893	43.536	0	375.30	0	5.7620	0	34.0040	4	26.799	0	371.966	0	103.1	4	33.9	4	-1E+10	1	-1E+10	1	-1E+10	1	-1E+10	1	-1E+10	1	-1E+10	1
4901784	97	C	03/01/2018	10:43	-132.893	43.536	0	377.70	0	5.7410	0	34.0050	4	26.803	0	374.343	0	102.3	4	33.6	4	-1E+10	1	-1E+10	1	-1E+10	1	-1E+10	1	-1E+10	1	-1E+10	1
4901784	97	C	03/01/2018	10:43	-132.893	43.536	0	380.10	0	5.7100	0	34.0050	4	26.806	0	376.719	0	101.6	4	33.4	4	-1E+10	1	-1E+10	1	-1E+10	1	-1E+10	1	-1E+10	1	-1E+10	1
4901784	97	C	03/01/2018	10:43	-132.893	43.536	0	382.50	0	5.6880	0	34.0060	4	26.810	0	379.096	0	100.7	4	33.0	4	-1E+10	1	-1E+10	1	-1E+10	1	-1E+10	1	-1E+10	1	-1E+10	1
4901784	97	C	03/01/2018	10:43	-132.893	43.536	0	384.90	0	5.6420	0	34.0070	4	26.816	0	381.472	0	99.6	4	32.6	4	-1E+10	1	-1E+10	1	-1E+10	1	-1E+10	1	-1E+10	1	-1E+10	1
4901784	97	C	03/01/2018	10:43	-132.893	43.536	0	387.40	0	5.6040	0	34.0090	4	26.823	0	383.947	0	98.4	4	32.2	4	-1E+10	1	-1E+10	1	-1E+10	1	-1E+10	1	-1E+10	1	-1E+10	1
4901784	97	C	03/01/2018	10:43	-132.893	43.536	0	389.80	0	5.5960	0	34.0070	4	26.822	0	386.324	0	97.2	4	31.8	4	-1E+10	1	-1E+10	1	-1E+10	1	-1E+10	1	-1E+10	1	-1E+10	1
4901784	97	C	03/01/2018	10:43	-132.893	43.536	0	392.20	0	5.5620	0	34.0070	4	26.826	0	388.700	0	95.5	4	31.3	4	-1E+10	1	-1E+10	1	-1E+10	1	-1E+10	1	-1E+10	1	-1E+10	1
4901784	97	C	03/01/2018	10:43	-132.893	43.536	0	395.40	0	5.5000	0	34.0090	4	26.835	0	391.869	0	93.4	4	30.5	4	-1E+10	1	-1E+10	1	-1E+10	1	-1E+10	1	-1E+10	1	-1E+10	1
4901784	97	C	03/01/2018	10:43	-132.893	43.536	0	397.90	0	5.4600	0	34.0110	4	26.841	0	394.344	0	91.9	4	30.0	4	-1E+10	1	-1E+10	1	-1E+10	1	-1E+10	1	-1E+10	1	-1E+10	1
4901784	97	C	03/01/2018	10:43	-132.893	43.536	0	399.60	0	5.4450	0	34.0120	4	26.844	0	396.027	0	91.0	4	29.7	4	-1E+10	1	-1E+10	1	-1E+10	1	-1E+10	1	-1E+10	1	-1E+10	1
4901784	97	C	03/01/2018	10:43	-132.893	43.536	0	402.20	0	5.4210	0	34.0150	4	26.849	0	398.601	0	89.6	4	29.2	4	-1E+10	1	-1E+10	1	-1E+10	1	-1E+10	1	-1E+10	1	-1E+10	1
4901784	97	C	03/01/2018	10:43	-132.893	43.536	0	404.70	0	5.4080	0	34.0160	4	26.852	0	401.077	0	88.1	4	28.7	4	-1E+10	1	-1E+10	1	-1E+10	1	-1E+10	1	-1E+10	1	-1E+10	1
4901784	97	C	03/01/2018	10:43	-132.893	43.536	0	407.20	0	5.3910	0	34.0170	4	26.854	0	403.552	0	86.2	4	28.1	4	-1E+10	1	-1E+10	1	-1E+10	1	-1E+10	1	-1E+10	1	-1E+10	1
4901784	97	C	03/01/2018	10:43	-132.893	43.536	0	409.60	0	5.3700	0	34.0190	4	26.859	0	405.928	0	84.0	4	27.4	4	-1E+10	1	-1E+10	1	-1E+10	1	-1E+10	1	-1E+10	1	-1E+10	1
4901784	97	C	03/01/2018	10:43	-132.893	43.536	0	412.20	0	5.3390	0	34.0210	4	26.864	0	408.502	0	81.6	4	26.6	4	-1E+10	1	-1E+10	1	-1E+10	1	-1E+10	1	-1E+10	1	-1E+10	1
4901784	97	C	03/01/2018	10:43	-132.893	43.536	0	414.80	0	5.2980	0	34.0240	4	26.871	0	411.076	0	79.1	4	25.7	4	-1E+10	1	-1E+10	1	-1E+10	1	-1E+10	1	-1E+10	1	-1E+10	1
4901784	97	C	03/01/2018	10:43	-132.893	43.536	0	417.30	0	5.2590	0	34.0310	4	26.881	0	413.551	0	77.0	4	25.0	4	-1E+10	1	-1E+10	1	-1E+10	1	-1E+10	1	-1E+10	1	-1E+10	1
4901784	97	C	03/01/2018	10:43	-132.893	43.536	0	419.70	0	5.2410	0	34.0340	4	26.886	0	415.927	0	75.3	4	24.5	4	-1E+10	1	-1E+10	1	-1E+10	1	-1E+10	1	-1E+10	1	-1E+10	1
4901784	97	C	03/01/2018	10:43	-132.893	43.536	0	422.30	0	5.2290	0	34.0380	4	26.890	0	418.501	0	73.4	4	23.8	4	-1E+10	1	-1E+10	1	-1E+10	1	-1E+10	1	-1E+10	1	-1E+10	1
4901784	97	C	03/01/2018	10:43	-132.893	43.536	0	424.90	0	5.2100	0	34.0460	4	26.899	0	421.075	0	71.6	4	23.2	4	-1E+10	1	-1E+10	1	-1E+10	1	-1E+10	1	-1E+10	1	-1E+10	1
4901784	97	C	03/01/2018	10:43	-132.893	43.536	0	427.50	0	5.1850	0	34.0500	4	26.905	0	423.649	0	71.3	4	23.1	4	-1E+10	1	-1E+10	1	-1E+10	1	-1E+10	1	-1E+10	1	-1E+10	1
4901784	97	C	03/01/2018	10:43	-132.893	43.536	0	430.10	0	5.1710	0	34.0500	4	26.906	0	426.223	0	70.9	4	23.0	4	-1E+10	1	-1E+10	1	-1E+10	1	-1E+10	1	-1E+10	1	-1E+10	1
4901784	97	C	03/01/2018	10:43	-132.893	43.536	0	432.70	0	5.1640	0	34.0500	4	26.907	0	428.797	0	70.2	4	22.8	4	-1E+10	1	-1E+10	1	-1E+10	1	-1E+10	1	-1E+10	1	-1E+10	1
4901784	97	C	03/01/2018	10:43	-132.893	43.536	0	435.30	0	5.1460	0	34.0530	4	26.912	0	431.371	0	69.0	4	22.4	4	-1E+10	1	-1E+10	1	-1E+10	1	-1E+10	1	-1E+10	1	-1E+10	1
4901784	97	C	03/01/2018	10:43	-132.893	43.536	0	437.10	0	5.1360	0	34.0560	4	26.915	0	433.153	0	68.1	4	22.1	4	-1E+10	1	-1E+10	1	-1E+10	1	-1E+10	1	-1E+10	1	-1E+10	1
4901784	97	C	03/01/2018	10:43	-132.893	43.536	0	439.70	0	5.1350	0	34.0580	4	26.917	0	435.726	0	66.3	4	21.5	4	-1E+10	1	-1E+10	1	-1E+10	1	-1E+10	1	-1E+10	1	-1E+10	1
4901784	97	C	03/01/2018	10:43	-132.893	43.536	0	442.30	0	5.1410	0	34.0620	4	26.920	0	438.300	0	64.3	4	20.9	4	-1E+10	1	-1E+10	1	-1E+10	1	-1E+10	1	-1E+10	1	-1E+10	1
4901784	97	C	03/01/2018	10:43	-132.893	43.536	0	444.90	0	5.1340	0	34.0670	4	26.924	0	440.874	0	62.9	4	20.4	4	-1E+10	1	-1E+10	1	-1E+10	1	-1E+10	1	-1E+10	1	-1E+10	1
4901784	97	C	03/01/2018	10:43	-132.893	43.536	0	447.60	0	5.1250	0	34.0710	4	26.929	0	443.547	0	61.7	4	20.0	4	-1E+10	1	-1E+10	1	-1E+10	1	-1E+10	1	-1E+10	1	-1E+10	1
4901784	97	C	03/01/2018	10:43	-132.893	43.536	0	450.20	0	5.1210	0	34.0750	4	26.932	0	446.120	0	60.8	4	19.7	4	-1E+10	1	-1E+10	1	-1E+10	1	-1E+10	1	-1E+10	1	-1E+10	1
4901784	97	C	03/01/2018	10:43	-132.893	43.536	0	452.80	0	5.1140	0	34.0770	4	26.935	0	448.694	0	60.1	4	19.5	4	-1E+10	1	-1E+10	1	-1E+10	1	-1E+10	1	-1E+10	1	-1E+10	1
4901784	97	C	03/01/2018	10:43	-132.893	43.536	0	455.30	0	5.1000	0	34.0770	4	26.936	0	451.169	0	58.9	4	19.1	4	-1E+10	1	-1E+10	1	-1E+10	1	-1E+10	1	-1E+10	1	-1E+10	1
4901784	97	C	03/01/2018	10:43	-132.893	43.536	0	457.90	0	5.0930	0	34.0800	4	26.939	0	453.742	0	57.3	4	18.6	4	-1E+10	1	-1E+10	1	-1E+10	1	-1E+10	1	-1E+10	1	-1E+10	1
4901784	97	C	03/01/2018	10:43	-132.893	43.536	0	459.60	0	5.0970	0	34.0850	4	26.943	0	455.425	0	56.4	4	18.3	4	-1E+10	1	-1E+10	1	-1E+10	1	-1E+10	1	-1E+10	1	-1E+10	1
4901784	97	C	03/01/2018	10:43	-132.893	43.536	0	462.40	0	5.0840	0	34.0870	4	26.946	0	458.196	0	55.2	4	17.9	4	-1E+10	1	-1E+10	1	-1E+10	1	-1E+10	1	-1E+10	1	-1E+10	1
4901784	97	C	03/01/2018	10:43	-132.893	43.536	0	465.10	0	5.0750	0	34.0910	4	26.950	0	460.869	0	53.9	4	17.5	4	-1E+10	1	-1E+10	1	-1E+10	1	-1E+10	1	-1E+10	1	-1E+10	1
4901784	97	C	03/01/2018	10:43	-132.893	43.536	0	467.70	0	5.0670	0	34.0950	4	26.954	0	463.442	0	53.1	4	17.2	4	-1E+10	1	-1E+10	1	-1E+10	1	-1E+10	1	-1E+10	1	-1E+10	1
4901784	97	C	03/01/2018	10:43	-132.893	43.536	0	470.40	0	5.0680	0	34.0960	4	26.955	0	466.115	0	51.9	4	16.8	4	-1E+10	1	-1E+10	1	-1E+10	1	-1E+10	1	-1E+10	1	-1E+10	1
4901784	97	C	03/01/2018	10:43	-132.893	43.536	0	472.10	0	5.0650	0	34.1000	4	26.959	0	467.797	0	51.1	4	16.5	4	-1E+10	1	-1E+10	1	-1E+10	1	-1E+10	1	-1E+10	1	-1E+10	1
4901784	97	C	03/01/2018	10:43	-132.893	43.536	0	474.80	0	5.0560	0	34.1020	4	26.961	0	470.470	0	50.0	4	16.2	4	-1E+10	1	-1E+10	1	-1E+10	1	-1E+10	1	-1E+10	1	-1E+10	1
4901784	97	C	03/01/2018	10:43	-132.893	43.536	0	477.50	0	5.0370	0	34.1070	4	26.967	0	473.142	0	48.8	4	15.8	4	-1E+10	1	-1E+10	1	-1E+10	1	-1E+10	1	-1E+10	1	-1E+10	1
4901784	97	C	03/01/2018	10:43	-132.893	43.536	0	480.20	0	5.0350	0	34.1100	4	26.970	0	475.814	0	47.8	4	15.5	4	-1E+10	1	-1E+10	1	-1E+10	1	-1E+10	1	-1E+10	1	-1E+10	1
4901784	97	C	03/01/2018	10:43	-132.893	43.536	0	482.90	0	5.0350	0	34.1130	4	26.973	0	478.486	0	46.8	4	15.1	4	-1E+10	1	-1E+10	1	-1E+10	1	-1E+10	1	-1E+10	1	-1E+10	1
4901784	97	C	03/01/2018	10:43	-132.893	43.536	0	484.60	0	5.0310	0	34.1150	4	26.975	0	480.169	0	46.2	4	14.9	4	-1E+10	1	-1E+10	1	-1E+10	1	-1E+10	1	-1E+10	1	-1E+10	1
4901784	97	C	03/01/2018	10:43	-132.893	43.536	0	487.40	0	5.0260	0	34.1170	4	26.977	0	482.940	0	45.1	4	14.6	4	-1E+10	1	-1E+10	1	-1E+10	1	-1E+10	1	-1E+10	1	-1E+10	1
4901784	97	C	03/01/2018	10:43	-132.893	43.536	0	490.10	0	5.0120	0	34.1200	4	26.981	0	485.612	0	43.7	4	14.1	4	-1E+10	1	-1E+10	1	-1E+10	1	-1E+10	1	-1E+10	1	-1E+10	1
4901784	97	C	03/01/2018	10:43	-132.893	43.536	0	492.80	0	4.9930	0	34.1270	4	26.988	0	488.284	0	42.4	4	13.7	4	-1E+10	1	-1E+10	1	-1E+10	1	-1E+10	1	-1E+10	1	-1E+10	1
4901784	97	C	03/01/2018	10:43	-132.893	43.536	0	495.50	0	4.9910	0	34.1290	4	26.990	0	490.956	0	41.1	4	13.3	4	-1E+10	1	-1E+10	1	-1E+10	1	-1E+10	1	-1E+10	1	-1E+10	1
4901784	97	C	03/01/2018	10:43	-132.893	43.536	0	497.30	0	4.9970	0	34.1360	4	26.995	0	492.738	0	40.1	4	13.0	4	-1E+10	1	-1E+10	1	-1E+10	1	-1E+10	1	-1E+10	1	-1E+10	1
4901784	97	C	03/01/2018	10:43	-132.893	43.536	0	500.00	0	4.9950	0	34.1380	4	26.997	0	495.410	0	39.3	4	12.7	4	-1E+10	1	-1E+10	1	-1E+10	1	-1E+10	1	-1E+10	1	-1E+10	1
4901784	97	C	03/01/2018	10:43	-132.893	43.536	0	504.60	0	4.9830	0	34.1450	4	27.004	0	499.962	0	37.9	4	12.3	4	-1E+10	1	-1E+10	1	-1E+10	1	-1E+10	1	-1E+10	1	-1E+10	1
4901784	97	C	03/01/2018	10:43	-132.893	43.536	0	510.10	0	4.9690	0	34.1500	4	27.010	0	505.405	0	36.5	4	11.8	4	-1E+10	1	-1E+10	1	-1E+10	1	-1E+10	1	-1E+10	1	-1E+10	1
4901784	97	C	03/01/2018	10:43	-132.893	43.536	0	514.70	0	4.9780	0	34.1550	4	27.013	0	509.957	0	35.6	4	11.5	4	-1E+10	1	-1E+10	1	-1E+10	1	-1E+10	1	-1E+10	1	-1E+10	1
4901784	97	C	03/01/2018	10:43	-132.893	43.536	0	519.40	0	4.9690	0	34.1570	4	27.015	0	514.608	0	34.7	4	11.2	4	-1E+10	1	-1E+10	1	-1E+10	1	-1E+10	1	-1E+10	1	-1E+10	1
4901784	97	C	03/01/2018	10:43	-132.893	43.536	0	525.10	0	4.9480	0	34.1620	4	27.022	0	520.248	0	33.7	4	10.9	4	-1E+10	1	-1E+10	1	-1E+10	1	-1E+10	1	-1E+10	1	-1E+10	1
4901784	97	C	03/01/2018	10:43	-132.893	43.536	0	530.40	0	4.9360	0	34.1660	4	27.026	0	525.492	0	32.2	4	10.4	4	-1E+10	1	-1E+10	1	-1E+10	1	-1E+10	1	-1E+10	1	-1E+10	1
4901784	97	C	03/01/2018	10:43	-132.893	43.536	0	535.20	0	4.9390	0	34.1730	4	27.031	0	530.242	0	30.7	4	9.9	4	-1E+10	1	-1E+10	1	-1E+10	1	-1E+10	1	-1E+10	1	-1E+10	1
4901784	97	C	03/01/2018	10:43	-132.893	43.536	0	540.10	0	4.9230	0	34.1790	4	27.038	0	535.090	0	29.8	4	9.6	4	-1E+10	1	-1E+10	1	-1E+10	1	-1E+10	1	-1E+10	1	-1E+10	1
4901784	97	C	03/01/2018	10:43	-132.893	43.536	0	545.10	0	4.9090	0	34.1820	4	27.042	0	540.037	0	29.1	4	9.4	4	-1E+10	1	-1E+10	1	-1E+10	1	-1E+10	1	-1E+10	1	-1E+10	1
4901784	97	C	03/01/2018	10:43	-132.893	43.536	0	550.00	0	4.8890	0	34.1860	4	27.048	0	544.885	0	28.5	4	9.2	4	-1E+10	1	-1E+10	1	-1E+10	1	-1E+10	1	-1E+10	1	-1E+10	1
4901784	97	C	03/01/2018	10:43	-132.893	43.536	0	555.00	0	4.8690	0	34.1880	4	27.051	0	549.832	0	28.0	4	9.0	4	-1E+10	1	-1E+10	1	-1E+10	1	-1E+10	1	-1E+10	1	-1E+10	1
4901784	97	C	03/01/2018	10:43	-132.893	43.536	0	560.00	0	4.8560	0	34.1910	4	27.055	0	554.779	0	27.1	4	8.7	4	-1E+10	1	-1E+10	1	-1E+10	1	-1E+10	1	-1E+10	1	-1E+10	1
4901784	97	C	03/01/2018	10:43	-132.893	43.536	0	565.00	0	4.8290	0	34.1960	4	27.062	0	559.725	0	26.1	4	8.4	4	-1E+10	1	-1E+10	1	-1E+10	1	-1E+10	1	-1E+10	1	-1E+10	1
4901784	97	C	03/01/2018	10:43	-132.893	43.536	0	570.20	0	4.7830	0	34.2010	4	27.071	0	564.870	0	25.2	4	8.1	4	-1E+10	1	-1E+10	1	-1E+10	1	-1E+10	1	-1E+10	1	-1E+10	1
4901784	97	C	03/01/2018	10:43	-132.893	43.536	0	575.30	0	4.7770	0	34.2080	4	27.078	0	569.915	0	23.4	4	7.5	4	-1E+10	1	-1E+10	1	-1E+10	1	-1E+10	1	-1E+10	1	-1E+10	1
4901784	97	C	03/01/2018	10:43	-132.893	43.536	0	580.40	0	4.7420	0	34.2180	4	27.090	0	574.960	0	22.3	4	7.2	4	-1E+10	1	-1E+10	1	-1E+10	1	-1E+10	1	-1E+10	1	-1E+10	1
4901784	97	C	03/01/2018	10:43	-132.893	43.536	0	585.60	0	4.7220	0	34.2240	4	27.097	0	580.104	0	21.4	4	6.9	4	-1E+10	1	-1E+10	1	-1E+10	1	-1E+10	1	-1E+10	1	-1E+10	1
4901784	97	C	03/01/2018	10:43	-132.893	43.536	0	590.80	0	4.6750	0	34.2300	4	27.107	0	585.248	0	20.8	4	6.7	4	-1E+10	1	-1E+10	1	-1E+10	1	-1E+10	1	-1E+10	1	-1E+10	1
4901784	97	C	03/01/2018	10:43	-132.893	43.536	0	595.10	0	4.6600	0	34.2330	4	27.111	0	589.502	0	20.5	4	6.6	4	-1E+10	1	-1E+10	1	-1E+10	1	-1E+10	1	-1E+10	1	-1E+10	1
4901784	97	C	03/01/2018	10:43	-132.893	43.536	0	599.60	0	4.6400	0	34.2350	4	27.115	0	593.953	0	20.1	4	6.4	4	-1E+10	1	-1E+10	1	-1E+10	1	-1E+10	1	-1E+10	1	-1E+10	1
4901784	97	C	03/01/2018	10:43	-132.893	43.536	0	604.90	0	4.6110	0	34.2410	4	27.123	0	599.196	0	19.5	4	6.3	4	-1E+10	1	-1E+10	1	-1E+10	1	-1E+10	1	-1E+10	1	-1E+10	1
4901784	97	C	03/01/2018	10:43	-132.893	43.536	0	610.30	0	4.5910	0	34.2440	4	27.127	0	604.537	0	18.9	4	6.1	4	-1E+10	1	-1E+10	1	-1E+10	1	-1E+10	1	-1E+10	1	-1E+10	1
4901784	97	C	03/01/2018	10:43	-132.893	43.536	0	615.70	0	4.5660	0	34.2510	4	27.135	0	609.878	0	18.3	4	5.9	4	-1E+10	1	-1E+10	1	-1E+10	1	-1E+10	1	-1E+10	1	-1E+10	1
4901784	97	C	03/01/2018	10:43	-132.893	43.536	0	620.00	0	4.5560	0	34.2530	4	27.138	0	614.131	0	17.8	4	5.7	4	-1E+10	1	-1E+10	1	-1E+10	1	-1E+10	1	-1E+10	1	-1E+10	1
4901784	97	C	03/01/2018	10:43	-132.893	43.536	0	624.50	0	4.5340	0	34.2590	4	27.145	0	618.582	0	17.0	4	5.4	4	-1E+10	1	-1E+10	1	-1E+10	1	-1E+10	1	-1E+10	1	-1E+10	1
4901784	97	C	03/01/2018	10:43	-132.893	43.536	0	629.80	0	4.4990	0	34.2710	4	27.159	0	623.823	0	16.3	4	5.2	4	-1E+10	1	-1E+10	1	-1E+10	1	-1E+10	1	-1E+10	1	-1E+10	1
4901784	97	C	03/01/2018	10:43	-132.893	43.536	0	635.20	0	4.4900	0	34.2740	4	27.162	0	629.164	0	15.9	4	5.1	4	-1E+10	1	-1E+10	1	-1E+10	1	-1E+10	1	-1E+10	1	-1E+10	1
4901784	97	C	03/01/2018	10:43	-132.893	43.536	0	639.80	0	4.4810	0	34.2780	4	27.166	0	633.713	0	15.5	4	5.0	4	-1E+10	1	-1E+10	1	-1E+10	1	-1E+10	1	-1E+10	1	-1E+10	1
4901784	97	C	03/01/2018	10:43	-132.893	43.536	0	644.30	0	4.4700	0	34.2820	4	27.171	0	638.164	0	15.0	4	4.8	4	-1E+10	1	-1E+10	1	-1E+10	1	-1E+10	1	-1E+10	1	-1E+10	1
4901784	97	C	03/01/2018	10:43	-132.893	43.536	0	649.70	0	4.4490	0	34.2900	4	27.179	0	643.504	0	14.5	4	4.6	4	-1E+10	1	-1E+10	1	-1E+10	1	-1E+10	1	-1E+10	1	-1E+10	1
4901784	97	C	03/01/2018	10:43	-132.893	43.536	0	655.10	0	4.4310	0	34.2970	4	27.187	0	648.844	0	14.1	4	4.5	4	-1E+10	1	-1E+10	1	-1E+10	1	-1E+10	1	-1E+10	1	-1E+10	1
4901784	97	C	03/01/2018	10:43	-132.893	43.536	0	660.50	0	4.4220	0	34.2990	4	27.189	0	654.184	0	13.8	4	4.4	4	-1E+10	1	-1E+10	1	-1E+10	1	-1E+10	1	-1E+10	1	-1E+10	1
4901784	97	C	03/01/2018	10:43	-132.893	43.536	0	665.00	0	4.4120	0	34.3020	4	27.193	0	658.634	0	13.5	4	4.3	4	-1E+10	1	-1E+10	1	-1E+10	1	-1E+10	1	-1E+10	1	-1E+10	1
4901784	97	C	03/01/2018	10:43	-132.893	43.536	0	669.60	0	4.3800	0	34.3100	4	27.203	0	663.182	0	13.2	4	4.2	4	-1E+10	1	-1E+10	1	-1E+10	1	-1E+10	1	-1E+10	1	-1E+10	1
4901784	97	C	03/01/2018	10:43	-132.893	43.536	0	675.10	0	4.3550	0	34.3160	4	27.210	0	668.621	0	13.0	4	4.1	4	-1E+10	1	-1E+10	1	-1E+10	1	-1E+10	1	-1E+10	1	-1E+10	1
4901784	97	C	03/01/2018	10:43	-132.893	43.536	0	680.50	0	4.3350	0	34.3200	4	27.216	0	673.960	0	12.8	4	4.1	4	-1E+10	1	-1E+10	1	-1E+10	1	-1E+10	1	-1E+10	1	-1E+10	1
4901784	97	C	03/01/2018	10:43	-132.893	43.536	0	685.00	0	4.2980	0	34.3220	4	27.221	0	678.410	0	12.8	4	4.1	4	-1E+10	1	-1E+10	1	-1E+10	1	-1E+10	1	-1E+10	1	-1E+10	1
4901784	97	C	03/01/2018	10:43	-132.893	43.536	0	689.60	0	4.2600	0	34.3250	4	27.228	0	682.958	0	12.7	4	4.0	4	-1E+10	1	-1E+10	1	-1E+10	1	-1E+10	1	-1E+10	1	-1E+10	1
4901784	97	C	03/01/2018	10:43	-132.893	43.536	0	695.20	0	4.2410	0	34.3270	4	27.231	0	688.495	0	12.5	4	4.0	4	-1E+10	1	-1E+10	1	-1E+10	1	-1E+10	1	-1E+10	1	-1E+10	1
4901784	97	C	03/01/2018	10:43	-132.893	43.536	0	699.80	0	4.2100	0	34.3320	4	27.238	0	693.043	0	12.3	4	3.9	4	-1E+10	1	-1E+10	1	-1E+10	1	-1E+10	1	-1E+10	1	-1E+10	1
4901784	97	C	03/01/2018	10:43	-132.893	43.536	0	704.40	0	4.1810	0	34.3390	4	27.247	0	697.591	0	12.2	4	3.9	4	-1E+10	1	-1E+10	1	-1E+10	1	-1E+10	1	-1E+10	1	-1E+10	1
4901784	97	C	03/01/2018	10:43	-132.893	43.536	0	709.70	0	4.1640	0	34.3430	4	27.252	0	702.831	0	11.9	4	3.8	4	-1E+10	1	-1E+10	1	-1E+10	1	-1E+10	1	-1E+10	1	-1E+10	1
4901784	97	C	03/01/2018	10:43	-132.893	43.536	0	714.50	0	4.1480	0	34.3490	4	27.259	0	707.576	0	11.6	4	3.7	4	-1E+10	1	-1E+10	1	-1E+10	1	-1E+10	1	-1E+10	1	-1E+10	1
4901784	97	C	03/01/2018	10:43	-132.893	43.536	0	719.30	0	4.1450	0	34.3570	4	27.265	0	712.321	0	11.4	4	3.6	4	-1E+10	1	-1E+10	1	-1E+10	1	-1E+10	1	-1E+10	1	-1E+10	1
4901784	97	C	03/01/2018	10:43	-132.893	43.536	0	724.90	0	4.1440	0	34.3610	4	27.269	0	717.857	0	11.2	4	3.5	4	-1E+10	1	-1E+10	1	-1E+10	1	-1E+10	1	-1E+10	1	-1E+10	1
4901784	97	C	03/01/2018	10:43	-132.893	43.536	0	730.70	0	4.1420	0	34.3650	4	27.272	0	723.591	0	11.0	4	3.5	4	-1E+10	1	-1E+10	1	-1E+10	1	-1E+10	1	-1E+10	1	-1E+10	1
4901784	97	C	03/01/2018	10:43	-132.893	43.536	0	735.60	0	4.1370	0	34.3700	4	27.277	0	728.435	0	10.9	4	3.5	4	-1E+10	1	-1E+10	1	-1E+10	1	-1E+10	1	-1E+10	1	-1E+10	1
4901784	97	C	03/01/2018	10:43	-132.893	43.536	0	740.50	0	4.1200	0	34.3720	4	27.280	0	733.278	0	10.9	4	3.4	4	-1E+10	1	-1E+10	1	-1E+10	1	-1E+10	1	-1E+10	1	-1E+10	1
4901784	97	C	03/01/2018	10:43	-132.893	43.536	0	745.60	0	4.1140	0	34.3730	4	27.281	0	738.319	0	10.8	4	3.4	4	-1E+10	1	-1E+10	1	-1E+10	1	-1E+10	1	-1E+10	1	-1E+10	1
4901784	97	C	03/01/2018	10:43	-132.893	43.536	0	750.70	0	4.1040	0	34.3760	4	27.285	0	743.361	0	10.7	4	3.4	4	-1E+10	1	-1E+10	1	-1E+10	1	-1E+10	1	-1E+10	1	-1E+10	1
4901784	97	C	03/01/2018	10:43	-132.893	43.536	0	754.90	0	4.1000	0	34.3790	4	27.288	0	747.512	0	10.7	4	3.4	4	-1E+10	1	-1E+10	1	-1E+10	1	-1E+10	1	-1E+10	1	-1E+10	1
4901784	97	C	03/01/2018	10:43	-132.893	43.536	0	759.30	0	4.0880	0	34.3800	4	27.290	0	751.861	0	10.6	4	3.4	4	-1E+10	1	-1E+10	1	-1E+10	1	-1E+10	1	-1E+10	1	-1E+10	1
4901784	97	C	03/01/2018	10:43	-132.893	43.536	0	764.60	0	4.0760	0	34.3840	4	27.294	0	757.100	0	10.5	4	3.3	4	-1E+10	1	-1E+10	1	-1E+10	1	-1E+10	1	-1E+10	1	-1E+10	1
4901784	97	C	03/01/2018	10:43	-132.893	43.536	0	769.70	0	4.0610	0	34.3870	4	27.298	0	762.140	0	10.5	4	3.3	4	-1E+10	1	-1E+10	1	-1E+10	1	-1E+10	1	-1E+10	1	-1E+10	1
4901784	97	C	03/01/2018	10:43	-132.893	43.536	0	774.90	0	4.0440	0	34.3900	4	27.302	0	767.280	0	10.4	4	3.3	4	-1E+10	1	-1E+10	1	-1E+10	1	-1E+10	1	-1E+10	1	-1E+10	1
4901784	97	C	03/01/2018	10:43	-132.893	43.536	0	780.20	0	4.0350	0	34.3950	4	27.307	0	772.518	0	10.3	4	3.3	4	-1E+10	1	-1E+10	1	-1E+10	1	-1E+10	1	-1E+10	1	-1E+10	1
4901784	97	C	03/01/2018	10:43	-132.893	43.536	0	785.60	0	4.0250	0	34.3980	4	27.311	0	777.854	0	10.3	4	3.3	4	-1E+10	1	-1E+10	1	-1E+10	1	-1E+10	1	-1E+10	1	-1E+10	1
4901784	97	C	03/01/2018	10:43	-132.893	43.536	0	790.10	0	3.9960	0	34.4020	4	27.317	0	782.302	0	10.3	4	3.3	4	-1E+10	1	-1E+10	1	-1E+10	1	-1E+10	1	-1E+10	1	-1E+10	1
4901784	97	C	03/01/2018	10:43	-132.893	43.536	0	794.70	0	3.9850	0	34.4050	4	27.321	0	786.848	0	10.3	4	3.3	4	-1E+10	1	-1E+10	1	-1E+10	1	-1E+10	1	-1E+10	1	-1E+10	1
4901784	97	C	03/01/2018	10:43	-132.893	43.536	0	800.10	0	3.9770	0	34.4070	4	27.323	0	792.184	0	10.3	4	3.2	4	-1E+10	1	-1E+10	1	-1E+10	1	-1E+10	1	-1E+10	1	-1E+10	1
4901784	97	C	03/01/2018	10:43	-132.893	43.536	0	805.50	0	3.9720	0	34.4090	4	27.325	0	797.520	0	10.2	4	3.2	4	-1E+10	1	-1E+10	1	-1E+10	1	-1E+10	1	-1E+10	1	-1E+10	1
4901784	97	C	03/01/2018	10:43	-132.893	43.536	0	810.20	0	3.9650	0	34.4110	4	27.327	0	802.165	0	10.2	4	3.2	4	-1E+10	1	-1E+10	1	-1E+10	1	-1E+10	1	-1E+10	1	-1E+10	1
4901784	97	C	03/01/2018	10:43	-132.893	43.536	0	814.90	0	3.9460	0	34.4160	4	27.333	0	806.809	0	10.2	4	3.2	4	-1E+10	1	-1E+10	1	-1E+10	1	-1E+10	1	-1E+10	1	-1E+10	1
4901784	97	C	03/01/2018	10:43	-132.893	43.536	0	820.50	0	3.9340	0	34.4180	4	27.336	0	812.342	0	10.3	4	3.2	4	-1E+10	1	-1E+10	1	-1E+10	1	-1E+10	1	-1E+10	1	-1E+10	1
4901784	97	C	03/01/2018	10:43	-132.893	43.536	0	825.20	0	3.9210	0	34.4200	4	27.339	0	816.987	0	10.3	4	3.2	4	-1E+10	1	-1E+10	1	-1E+10	1	-1E+10	1	-1E+10	1	-1E+10	1
4901784	97	C	03/01/2018	10:43	-132.893	43.536	0	830.00	0	3.9140	0	34.4210	4	27.341	0	821.729	0	10.3	4	3.2	4	-1E+10	1	-1E+10	1	-1E+10	1	-1E+10	1	-1E+10	1	-1E+10	1
4901784	97	C	03/01/2018	10:43	-132.893	43.536	0	835.60	0	3.9060	0	34.4230	4	27.343	0	827.262	0	10.3	4	3.2	4	-1E+10	1	-1E+10	1	-1E+10	1	-1E+10	1	-1E+10	1	-1E+10	1
4901784	97	C	03/01/2018	10:43	-132.893	43.536	0	840.20	0	3.9000	0	34.4240	4	27.345	0	831.807	0	10.3	4	3.2	4	-1E+10	1	-1E+10	1	-1E+10	1	-1E+10	1	-1E+10	1	-1E+10	1
4901784	97	C	03/01/2018	10:43	-132.893	43.536	0	845.00	0	3.8900	0	34.4270	4	27.348	0	836.550	0	10.3	4	3.2	4	-1E+10	1	-1E+10	1	-1E+10	1	-1E+10	1	-1E+10	1	-1E+10	1
4901784	97	C	03/01/2018	10:43	-132.893	43.536	0	850.30	0	3.8840	0	34.4290	4	27.350	0	841.786	0	10.3	4	3.2	4	-1E+10	1	-1E+10	1	-1E+10	1	-1E+10	1	-1E+10	1	-1E+10	1
4901784	97	C	03/01/2018	10:43	-132.893	43.536	0	854.50	0	3.8700	0	34.4290	4	27.352	0	845.936	0	10.4	4	3.3	4	-1E+10	1	-1E+10	1	-1E+10	1	-1E+10	1	-1E+10	1	-1E+10	1
4901784	97	C	03/01/2018	10:43	-132.893	43.536	0	860.00	0	3.8470	0	34.4270	4	27.352	0	851.369	0	10.4	4	3.3	4	-1E+10	1	-1E+10	1	-1E+10	1	-1E+10	1	-1E+10	1	-1E+10	1
4901784	97	C	03/01/2018	10:43	-132.893	43.536	0	865.70	0	3.8290	0	34.4270	4	27.354	0	857.000	0	10.5	4	3.3	4	-1E+10	1	-1E+10	1	-1E+10	1	-1E+10	1	-1E+10	1	-1E+10	1
4901784	97	C	03/01/2018	10:43	-132.893	43.536	0	870.50	0	3.8230	0	34.4270	4	27.355	0	861.742	0	10.5	4	3.3	4	-1E+10	1	-1E+10	1	-1E+10	1	-1E+10	1	-1E+10	1	-1E+10	1
4901784	97	C	03/01/2018	10:43	-132.893	43.536	0	875.30	0	3.8030	0	34.4260	4	27.356	0	866.484	0	10.6	4	3.3	4	-1E+10	1	-1E+10	1	-1E+10	1	-1E+10	1	-1E+10	1	-1E+10	1
4901784	97	C	03/01/2018	10:43	-132.893	43.536	0	880.20	0	3.7690	0	34.4260	4	27.360	0	871.325	0	10.6	4	3.3	4	-1E+10	1	-1E+10	1	-1E+10	1	-1E+10	1	-1E+10	1	-1E+10	1
4901784	97	C	03/01/2018	10:43	-132.893	43.536	0	885.20	0	3.7490	0	34.4270	4	27.362	0	876.264	0	10.7	4	3.4	4	-1E+10	1	-1E+10	1	-1E+10	1	-1E+10	1	-1E+10	1	-1E+10	1
4901784	97	C	03/01/2018	10:43	-132.893	43.536	0	890.30	0	3.7320	0	34.4290	4	27.366	0	881.301	0	10.7	4	3.4	4	-1E+10	1	-1E+10	1	-1E+10	1	-1E+10	1	-1E+10	1	-1E+10	1
4901784	97	C	03/01/2018	10:43	-132.893	43.536	0	895.30	0	3.7190	0	34.4290	4	27.367	0	886.240	0	10.7	4	3.4	4	-1E+10	1	-1E+10	1	-1E+10	1	-1E+10	1	-1E+10	1	-1E+10	1
4901784	97	C	03/01/2018	10:43	-132.893	43.536	0	900.40	0	3.7010	0	34.4300	4	27.370	0	891.278	0	10.8	4	3.4	4	-1E+10	1	-1E+10	1	-1E+10	1	-1E+10	1	-1E+10	1	-1E+10	1
4901784	97	C	03/01/2018	10:43	-132.893	43.536	0	905.40	0	3.6840	0	34.4300	4	27.371	0	896.217	0	10.8	4	3.4	4	-1E+10	1	-1E+10	1	-1E+10	1	-1E+10	1	-1E+10	1	-1E+10	1
4901784	97	C	03/01/2018	10:43	-132.893	43.536	0	910.50	0	3.6630	0	34.4330	4	27.376	0	901.254	0	10.8	4	3.4	4	-1E+10	1	-1E+10	1	-1E+10	1	-1E+10	1	-1E+10	1	-1E+10	1
4901784	97	C	03/01/2018	10:43	-132.893	43.536	0	915.60	0	3.6570	0	34.4330	4	27.377	0	906.291	0	10.8	4	3.4	4	-1E+10	1	-1E+10	1	-1E+10	1	-1E+10	1	-1E+10	1	-1E+10	1
4901784	97	C	03/01/2018	10:43	-132.893	43.536	0	920.60	0	3.6480	0	34.4350	4	27.379	0	911.229	0	10.9	4	3.4	4	-1E+10	1	-1E+10	1	-1E+10	1	-1E+10	1	-1E+10	1	-1E+10	1
4901784	97	C	03/01/2018	10:43	-132.893	43.536	0	925.60	0	3.6370	0	34.4360	4	27.381	0	916.167	0	10.9	4	3.4	4	-1E+10	1	-1E+10	1	-1E+10	1	-1E+10	1	-1E+10	1	-1E+10	1
4901784	97	C	03/01/2018	10:43	-132.893	43.536	0	930.60	0	3.6210	0	34.4390	4	27.385	0	921.105	0	10.9	4	3.4	4	-1E+10	1	-1E+10	1	-1E+10	1	-1E+10	1	-1E+10	1	-1E+10	1
4901784	97	C	03/01/2018	10:43	-132.893	43.536	0	935.60	0	3.6120	0	34.4420	4	27.388	0	926.043	0	10.9	4	3.4	4	-1E+10	1	-1E+10	1	-1E+10	1	-1E+10	1	-1E+10	1	-1E+10	1
4901784	97	C	03/01/2018	10:43	-132.893	43.536	0	940.00	0	3.6090	0	34.4430	4	27.389	0	930.389	0	10.9	4	3.4	4	-1E+10	1	-1E+10	1	-1E+10	1	-1E+10	1	-1E+10	1	-1E+10	1
4901784	97	C	03/01/2018	10:43	-132.893	43.536	0	944.30	0	3.6010	0	34.4430	4	27.390	0	934.635	0	11.0	4	3.4	4	-1E+10	1	-1E+10	1	-1E+10	1	-1E+10	1	-1E+10	1	-1E+10	1
4901784	97	C	03/01/2018	10:43	-132.893	43.536	0	949.50	0	3.5810	0	34.4440	4	27.393	0	939.770	0	11.1	4	3.5	4	-1E+10	1	-1E+10	1	-1E+10	1	-1E+10	1	-1E+10	1	-1E+10	1
4901784	97	C	03/01/2018	10:43	-132.893	43.536	0	954.70	0	3.5570	0	34.4470	4	27.398	0	944.905	0	11.1	4	3.5	4	-1E+10	1	-1E+10	1	-1E+10	1	-1E+10	1	-1E+10	1	-1E+10	1
4901784	97	C	03/01/2018	10:43	-132.893	43.536	0	959.90	0	3.5350	0	34.4490	4	27.401	0	950.040	0	11.2	4	3.5	4	-1E+10	1	-1E+10	1	-1E+10	1	-1E+10	1	-1E+10	1	-1E+10	1
4901784	97	C	03/01/2018	10:43	-132.893	43.536	0	965.20	0	3.5220	0	34.4500	4	27.404	0	955.274	0	11.2	4	3.5	4	-1E+10	1	-1E+10	1	-1E+10	1	-1E+10	1	-1E+10	1	-1E+10	1
4901784	97	C	03/01/2018	10:43	-132.893	43.536	0	970.40	0	3.5060	0	34.4530	4	27.407	0	960.408	0	11.3	4	3.5	4	-1E+10	1	-1E+10	1	-1E+10	1	-1E+10	1	-1E+10	1	-1E+10	1
4901784	97	C	03/01/2018	10:43	-132.893	43.536	0	975.70	0	3.4910	0	34.4550	4	27.411	0	965.641	0	11.4	4	3.6	4	-1E+10	1	-1E+10	1	-1E+10	1	-1E+10	1	-1E+10	1	-1E+10	1
4901784	97	C	03/01/2018	10:43	-132.893	43.536	0	980.10	0	3.4770	0	34.4590	4	27.415	0	969.986	0	11.5	4	3.6	4	-1E+10	1	-1E+10	1	-1E+10	1	-1E+10	1	-1E+10	1	-1E+10	1
4901784	97	C	03/01/2018	10:43	-132.893	43.536	0	984.50	0	3.4560	0	34.4620	4	27.420	0	974.330	0	11.6	4	3.6	4	-1E+10	1	-1E+10	1	-1E+10	1	-1E+10	1	-1E+10	1	-1E+10	1
4901784	97	C	03/01/2018	10:43	-132.893	43.536	0	989.70	0	3.4340	0	34.4660	4	27.425	0	979.464	0	11.8	4	3.7	4	-1E+10	1	-1E+10	1	-1E+10	1	-1E+10	1	-1E+10	1	-1E+10	1
4901784	97	C	03/01/2018	10:43	-132.893	43.536	0	995.10	0	3.4140	0	34.4710	4	27.431	0	984.796	0	12.0	4	3.7	4	-1E+10	1	-1E+10	1	-1E+10	1	-1E+10	1	-1E+10	1	-1E+10	1
4901784	97	C	03/01/2018	10:43	-132.893	43.536	0	1000.40	0	3.4020	0	34.4740	4	27.434	0	990.028	0	12.1	4	3.8	4	-1E+10	1	-1E+10	1	-1E+10	1	-1E+10	1	-1E+10	1	-1E+10	1
4901784	97	C	03/01/2018	10:43	-132.893	43.536	0	1005.60	0	3.3950	0	34.4760	4	27.437	0	995.162	0	12.2	4	3.8	4	-1E+10	1	-1E+10	1	-1E+10	1	-1E+10	1	-1E+10	1	-1E+10	1
4901784	97	C	03/01/2018	10:43	-132.893	43.536	0	1010.00	0	3.3870	0	34.4800	4	27.441	0	999.506	0	12.3	4	3.8	4	-1E+10	1	-1E+10	1	-1E+10	1	-1E+10	1	-1E+10	1	-1E+10	1
4901784	97	C	03/01/2018	10:43	-132.893	43.536	0	1014.40	0	3.3820	0	34.4800	4	27.441	0	1003.850	0	12.4	4	3.9	4	-1E+10	1	-1E+10	1	-1E+10	1	-1E+10	1	-1E+10	1	-1E+10	1
4901784	97	C	03/01/2018	10:43	-132.893	43.536	0	1019.80	0	3.3740	0	34.4820	4	27.444	0	1009.181	0	12.5	4	3.9	4	-1E+10	1	-1E+10	1	-1E+10	1	-1E+10	1	-1E+10	1	-1E+10	1
4901784	97	C	03/01/2018	10:43	-132.893	43.536	0	1025.10	0	3.3630	0	34.4860	4	27.448	0	1014.413	0	12.6	4	3.9	4	-1E+10	1	-1E+10	1	-1E+10	1	-1E+10	1	-1E+10	1	-1E+10	1
4901784	97	C	03/01/2018	10:43	-132.893	43.536	0	1030.40	0	3.3590	0	34.4870	4	27.449	0	1019.644	0	12.7	4	4.0	4	-1E+10	1	-1E+10	1	-1E+10	1	-1E+10	1	-1E+10	1	-1E+10	1
4901784	97	C	03/01/2018	10:43	-132.893	43.536	0	1034.80	0	3.3550	0	34.4890	4	27.451	0	1023.988	0	12.8	4	4.0	4	-1E+10	1	-1E+10	1	-1E+10	1	-1E+10	1	-1E+10	1	-1E+10	1
4901784	97	C	03/01/2018	10:43	-132.893	43.536	0	1039.30	0	3.3540	0	34.4890	4	27.451	0	1028.430	0	12.9	4	4.0	4	-1E+10	1	-1E+10	1	-1E+10	1	-1E+10	1	-1E+10	1	-1E+10	1
4901784	97	C	03/01/2018	10:43	-132.893	43.536	0	1044.80	0	3.3540	0	34.4900	4	27.452	0	1033.859	0	13.0	4	4.0	4	-1E+10	1	-1E+10	1	-1E+10	1	-1E+10	1	-1E+10	1	-1E+10	1
4901784	97	C	03/01/2018	10:43	-132.893	43.536	0	1050.30	0	3.3490	0	34.4920	4	27.454	0	1039.288	0	13.2	4	4.1	4	-1E+10	1	-1E+10	1	-1E+10	1	-1E+10	1	-1E+10	1	-1E+10	1
4901784	97	C	03/01/2018	10:43	-132.893	43.536	0	1054.80	0	3.3430	0	34.4940	4	27.456	0	1043.729	0	13.3	4	4.1	4	-1E+10	1	-1E+10	1	-1E+10	1	-1E+10	1	-1E+10	1	-1E+10	1
4901784	97	C	03/01/2018	10:43	-132.893	43.536	0	1059.40	0	3.3370	0	34.4960	4	27.458	0	1048.269	0	13.5	4	4.2	4	-1E+10	1	-1E+10	1	-1E+10	1	-1E+10	1	-1E+10	1	-1E+10	1
4901784	97	C	03/01/2018	10:43	-132.893	43.536	0	1064.90	0	3.3280	0	34.4980	4	27.461	0	1053.698	0	13.7	4	4.3	4	-1E+10	1	-1E+10	1	-1E+10	1	-1E+10	1	-1E+10	1	-1E+10	1
4901784	97	C	03/01/2018	10:43	-132.893	43.536	0	1070.40	0	3.3180	0	34.5020	4	27.465	0	1059.126	0	13.9	4	4.3	4	-1E+10	1	-1E+10	1	-1E+10	1	-1E+10	1	-1E+10	1	-1E+10	1
4901784	97	C	03/01/2018	10:43	-132.893	43.536	0	1074.90	0	3.3100	0	34.5040	4	27.468	0	1063.567	0	14.2	4	4.4	4	-1E+10	1	-1E+10	1	-1E+10	1	-1E+10	1	-1E+10	1	-1E+10	1
4901784	97	C	03/01/2018	10:43	-132.893	43.536	0	1079.80	0	3.3060	0	34.5070	4	27.470	0	1068.403	0	14.5	4	4.5	4	-1E+10	1	-1E+10	1	-1E+10	1	-1E+10	1	-1E+10	1	-1E+10	1
4901784	97	C	03/01/2018	10:43	-132.893	43.536	0	1084.90	0	3.3010	0	34.5110	4	27.474	0	1073.436	0	14.8	4	4.6	4	-1E+10	1	-1E+10	1	-1E+10	1	-1E+10	1	-1E+10	1	-1E+10	1
4901784	97	C	03/01/2018	10:43	-132.893	43.536	0	1089.60	0	3.2980	0	34.5130	4	27.476	0	1078.074	0	15.0	4	4.7	4	-1E+10	1	-1E+10	1	-1E+10	1	-1E+10	1	-1E+10	1	-1E+10	1
4901784	97	C	03/01/2018	10:43	-132.893	43.536	0	1095.10	0	3.2900	0	34.5150	4	27.478	0	1083.502	0	15.2	4	4.7	4	-1E+10	1	-1E+10	1	-1E+10	1	-1E+10	1	-1E+10	1	-1E+10	1
4901784	97	C	03/01/2018	10:43	-132.893	43.536	0	1100.60	0	3.2810	0	34.5180	4	27.482	0	1088.930	0	15.4	4	4.8	4	-1E+10	1	-1E+10	1	-1E+10	1	-1E+10	1	-1E+10	1	-1E+10	1
4901784	97	C	03/01/2018	10:43	-132.893	43.536	0	1105.50	0	3.2740	0	34.5190	4	27.483	0	1093.765	0	15.6	4	4.8	4	-1E+10	1	-1E+10	1	-1E+10	1	-1E+10	1	-1E+10	1	-1E+10	1
4901784	97	C	03/01/2018	10:43	-132.893	43.536	0	1109.80	0	3.2700	0	34.5210	4	27.485	0	1098.008	0	15.7	4	4.9	4	-1E+10	1	-1E+10	1	-1E+10	1	-1E+10	1	-1E+10	1	-1E+10	1
4901784	97	C	03/01/2018	10:43	-132.893	43.536	0	1114.30	0	3.2640	0	34.5220	4	27.486	0	1102.448	0	15.9	4	4.9	4	-1E+10	1	-1E+10	1	-1E+10	1	-1E+10	1	-1E+10	1	-1E+10	1
4901784	97	C	03/01/2018	10:43	-132.893	43.536	0	1119.70	0	3.2600	0	34.5250	4	27.489	0	1107.777	0	16.1	4	5.0	4	-1E+10	1	-1E+10	1	-1E+10	1	-1E+10	1	-1E+10	1	-1E+10	1
4901784	97	C	03/01/2018	10:43	-132.893	43.536	0	1124.90	0	3.2450	0	34.5260	4	27.491	0	1112.908	0	16.1	4	5.0	4	-1E+10	1	-1E+10	1	-1E+10	1	-1E+10	1	-1E+10	1	-1E+10	1
4901784	97	C	03/01/2018	10:43	-132.893	43.536	0	1130.30	0	3.2360	0	34.5280	4	27.494	0	1118.236	0	16.3	4	5.1	4	-1E+10	1	-1E+10	1	-1E+10	1	-1E+10	1	-1E+10	1	-1E+10	1
4901784	97	C	03/01/2018	10:43	-132.893	43.536	0	1134.80	0	3.2220	0	34.5300	4	27.497	0	1122.676	0	16.4	4	5.1	4	-1E+10	1	-1E+10	1	-1E+10	1	-1E+10	1	-1E+10	1	-1E+10	1
4901784	97	C	03/01/2018	10:43	-132.893	43.536	0	1139.40	0	3.2180	0	34.5310	4	27.498	0	1127.214	0	16.5	4	5.1	4	-1E+10	1	-1E+10	1	-1E+10	1	-1E+10	1	-1E+10	1	-1E+10	1
4901784	97	C	03/01/2018	10:43	-132.893	43.536	0	1144.90	0	3.2100	0	34.5320	4	27.500	0	1132.640	0	16.6	4	5.2	4	-1E+10	1	-1E+10	1	-1E+10	1	-1E+10	1	-1E+10	1	-1E+10	1
4901784	97	C	03/01/2018	10:43	-132.893	43.536	0	1150.40	0	3.2030	0	34.5330	4	27.501	0	1138.067	0	16.7	4	5.2	4	-1E+10	1	-1E+10	1	-1E+10	1	-1E+10	1	-1E+10	1	-1E+10	1
4901784	97	C	03/01/2018	10:43	-132.893	43.536	0	1155.00	0	3.1910	0	34.5350	4	27.504	0	1142.605	0	16.8	4	5.2	4	-1E+10	1	-1E+10	1	-1E+10	1	-1E+10	1	-1E+10	1	-1E+10	1
4901784	97	C	03/01/2018	10:43	-132.893	43.536	0	1159.70	0	3.1840	0	34.5350	4	27.505	0	1147.242	0	16.9	4	5.2	4	-1E+10	1	-1E+10	1	-1E+10	1	-1E+10	1	-1E+10	1	-1E+10	1
4901784	97	C	03/01/2018	10:43	-132.893	43.536	0	1165.30	0	3.1750	0	34.5370	4	27.507	0	1152.766	0	17.0	4	5.3	4	-1E+10	1	-1E+10	1	-1E+10	1	-1E+10	1	-1E+10	1	-1E+10	1
4901784	97	C	03/01/2018	10:43	-132.893	43.536	0	1170.00	0	3.1690	0	34.5380	4	27.508	0	1157.403	0	17.2	4	5.3	4	-1E+10	1	-1E+10	1	-1E+10	1	-1E+10	1	-1E+10	1	-1E+10	1
4901784	97	C	03/01/2018	10:43	-132.893	43.536	0	1174.60	0	3.1580	0	34.5400	4	27.511	0	1161.940	0	17.3	4	5.4	4	-1E+10	1	-1E+10	1	-1E+10	1	-1E+10	1	-1E+10	1	-1E+10	1
4901784	97	C	03/01/2018	10:43	-132.893	43.536	0	1180.10	0	3.1470	0	34.5410	4	27.513	0	1167.366	0	17.4	4	5.4	4	-1E+10	1	-1E+10	1	-1E+10	1	-1E+10	1	-1E+10	1	-1E+10	1
4901784	97	C	03/01/2018	10:43	-132.893	43.536	0	1184.90	0	3.1450	0	34.5430	4	27.515	0	1172.101	0	17.5	4	5.4	4	-1E+10	1	-1E+10	1	-1E+10	1	-1E+10	1	-1E+10	1	-1E+10	1
4901784	97	C	03/01/2018	10:43	-132.893	43.536	0	1189.60	0	3.1400	0	34.5420	4	27.514	0	1176.737	0	17.5	4	5.4	4	-1E+10	1	-1E+10	1	-1E+10	1	-1E+10	1	-1E+10	1	-1E+10	1
4901784	97	C	03/01/2018	10:43	-132.893	43.536	0	1195.30	0	3.1150	0	34.5430	4	27.518	0	1182.359	0	17.6	4	5.4	4	-1E+10	1	-1E+10	1	-1E+10	1	-1E+10	1	-1E+10	1	-1E+10	1
4901784	97	C	03/01/2018	10:43	-132.893	43.536	0	1200.00	0	3.1160	0	34.5450	4	27.519	0	1186.995	0	17.8	4	5.5	4	-1E+10	1	-1E+10	1	-1E+10	1	-1E+10	1	-1E+10	1	-1E+10	1
4901784	97	C	03/01/2018	10:43	-132.893	43.536	0	1205.00	0	3.1060	0	34.5460	4	27.521	0	1191.927	0	18.1	4	5.6	4	-1E+10	1	-1E+10	1	-1E+10	1	-1E+10	1	-1E+10	1	-1E+10	1
4901784	97	C	03/01/2018	10:43	-132.893	43.536	0	1209.90	0	3.0990	0	34.5490	4	27.524	0	1196.759	0	18.5	4	5.7	4	-1E+10	1	-1E+10	1	-1E+10	1	-1E+10	1	-1E+10	1	-1E+10	1
4901784	97	C	03/01/2018	10:43	-132.893	43.536	0	1214.80	0	3.1070	0	34.5510	4	27.525	0	1201.592	0	18.8	4	5.8	4	-1E+10	1	-1E+10	1	-1E+10	1	-1E+10	1	-1E+10	1	-1E+10	1
4901784	97	C	03/01/2018	10:43	-132.893	43.536	0	1219.80	0	3.1020	0	34.5530	4	27.527	0	1206.524	0	18.9	4	5.9	4	-1E+10	1	-1E+10	1	-1E+10	1	-1E+10	1	-1E+10	1	-1E+10	1
4901784	97	C	03/01/2018	10:43	-132.893	43.536	0	1224.70	0	3.0960	0	34.5540	4	27.528	0	1211.356	0	18.8	4	5.8	4	-1E+10	1	-1E+10	1	-1E+10	1	-1E+10	1	-1E+10	1	-1E+10	1
4901784	97	C	03/01/2018	10:43	-132.893	43.536	0	1229.60	0	3.0770	0	34.5530	4	27.529	0	1216.189	0	18.6	4	5.8	4	-1E+10	1	-1E+10	1	-1E+10	1	-1E+10	1	-1E+10	1	-1E+10	1
4901784	97	C	03/01/2018	10:43	-132.893	43.536	0	1234.40	0	3.0640	0	34.5530	4	27.530	0	1220.922	0	18.7	4	5.8	4	-1E+10	1	-1E+10	1	-1E+10	1	-1E+10	1	-1E+10	1	-1E+10	1
4901784	97	C	03/01/2018	10:43	-132.893	43.536	0	1240.00	0	3.0520	0	34.5550	4	27.533	0	1226.445	0	18.9	4	5.9	4	-1E+10	1	-1E+10	1	-1E+10	1	-1E+10	1	-1E+10	1	-1E+10	1
4901784	97	C	03/01/2018	10:43	-132.893	43.536	0	1244.70	0	3.0510	0	34.5570	4	27.535	0	1231.080	0	19.1	4	5.9	4	-1E+10	1	-1E+10	1	-1E+10	1	-1E+10	1	-1E+10	1	-1E+10	1
4901784	97	C	03/01/2018	10:43	-132.893	43.536	0	1250.00	0	3.0410	0	34.5570	4	27.536	0	1236.306	0	19.3	4	6.0	4	-1E+10	1	-1E+10	1	-1E+10	1	-1E+10	1	-1E+10	1	-1E+10	1
4901784	97	C	03/01/2018	10:43	-132.893	43.536	0	1255.60	0	3.0390	0	34.5600	4	27.538	0	1241.828	0	19.7	4	6.1	4	-1E+10	1	-1E+10	1	-1E+10	1	-1E+10	1	-1E+10	1	-1E+10	1
4901784	97	C	03/01/2018	10:43	-132.893	43.536	0	1260.30	0	3.0420	0	34.5610	4	27.539	0	1246.463	0	19.9	4	6.2	4	-1E+10	1	-1E+10	1	-1E+10	1	-1E+10	1	-1E+10	1	-1E+10	1
4901784	97	C	03/01/2018	10:43	-132.893	43.536	0	1265.10	0	3.0370	0	34.5620	4	27.540	0	1251.196	0	20.1	4	6.2	4	-1E+10	1	-1E+10	1	-1E+10	1	-1E+10	1	-1E+10	1	-1E+10	1
4901784	97	C	03/01/2018	10:43	-132.893	43.536	0	1270.00	0	3.0210	0	34.5630	4	27.543	0	1256.027	0	20.2	4	6.3	4	-1E+10	1	-1E+10	1	-1E+10	1	-1E+10	1	-1E+10	1	-1E+10	1
4901784	97	C	03/01/2018	10:43	-132.893	43.536	0	1275.00	0	3.0060	0	34.5640	4	27.545	0	1260.957	0	20.3	4	6.3	4	-1E+10	1	-1E+10	1	-1E+10	1	-1E+10	1	-1E+10	1	-1E+10	1
4901784	97	C	03/01/2018	10:43	-132.893	43.536	0	1279.90	0	2.9910	0	34.5660	4	27.548	0	1265.789	0	20.4	4	6.3	4	-1E+10	1	-1E+10	1	-1E+10	1	-1E+10	1	-1E+10	1	-1E+10	1
4901784	97	C	03/01/2018	10:43	-132.893	43.536	0	1284.80	0	2.9700	0	34.5660	4	27.550	0	1270.620	0	20.5	4	6.3	4	-1E+10	1	-1E+10	1	-1E+10	1	-1E+10	1	-1E+10	1	-1E+10	1
4901784	97	C	03/01/2018	10:43	-132.893	43.536	0	1289.90	0	2.9540	0	34.5680	4	27.553	0	1275.648	0	20.6	4	6.4	4	-1E+10	1	-1E+10	1	-1E+10	1	-1E+10	1	-1E+10	1	-1E+10	1
4901784	97	C	03/01/2018	10:43	-132.893	43.536	0	1294.90	0	2.9430	0	34.5700	4	27.555	0	1280.578	0	20.9	4	6.4	4	-1E+10	1	-1E+10	1	-1E+10	1	-1E+10	1	-1E+10	1	-1E+10	1
4901784	97	C	03/01/2018	10:43	-132.893	43.536	0	1300.00	0	2.9370	0	34.5710	4	27.557	0	1285.606	0	21.1	4	6.5	4	-1E+10	1	-1E+10	1	-1E+10	1	-1E+10	1	-1E+10	1	-1E+10	1
4901784	97	C	03/01/2018	10:43	-132.893	43.536	0	1305.20	0	2.9370	0	34.5720	4	27.557	0	1290.732	0	21.2	4	6.5	4	-1E+10	1	-1E+10	1	-1E+10	1	-1E+10	1	-1E+10	1	-1E+10	1
4901784	97	C	03/01/2018	10:43	-132.893	43.536	0	1310.30	0	2.9350	0	34.5720	4	27.558	0	1295.760	0	21.2	4	6.6	4	-1E+10	1	-1E+10	1	-1E+10	1	-1E+10	1	-1E+10	1	-1E+10	1
4901784	97	C	03/01/2018	10:43	-132.893	43.536	0	1315.40	0	2.9270	0	34.5720	4	27.558	0	1300.788	0	21.3	4	6.6	4	-1E+10	1	-1E+10	1	-1E+10	1	-1E+10	1	-1E+10	1	-1E+10	1
4901784	97	C	03/01/2018	10:43	-132.893	43.536	0	1320.60	0	2.9220	0	34.5730	4	27.560	0	1305.914	0	21.4	4	6.6	4	-1E+10	1	-1E+10	1	-1E+10	1	-1E+10	1	-1E+10	1	-1E+10	1
4901784	97	C	03/01/2018	10:43	-132.893	43.536	0	1325.70	0	2.9200	0	34.5740	4	27.561	0	1310.941	0	21.6	4	6.7	4	-1E+10	1	-1E+10	1	-1E+10	1	-1E+10	1	-1E+10	1	-1E+10	1
4901784	97	C	03/01/2018	10:43	-132.893	43.536	0	1330.00	0	2.9180	0	34.5750	4	27.562	0	1315.180	0	21.7	4	6.7	4	-1E+10	1	-1E+10	1	-1E+10	1	-1E+10	1	-1E+10	1	-1E+10	1
4901784	97	C	03/01/2018	10:43	-132.893	43.536	0	1334.40	0	2.9160	0	34.5760	4	27.563	0	1319.517	0	21.9	4	6.7	4	-1E+10	1	-1E+10	1	-1E+10	1	-1E+10	1	-1E+10	1	-1E+10	1
4901784	97	C	03/01/2018	10:43	-132.893	43.536	0	1339.70	0	2.9150	0	34.5760	4	27.563	0	1324.741	0	22.0	4	6.8	4	-1E+10	1	-1E+10	1	-1E+10	1	-1E+10	1	-1E+10	1	-1E+10	1
4901784	97	C	03/01/2018	10:43	-132.893	43.536	0	1344.90	0	2.9120	0	34.5760	4	27.563	0	1329.867	0	22.2	4	6.8	4	-1E+10	1	-1E+10	1	-1E+10	1	-1E+10	1	-1E+10	1	-1E+10	1
4901784	97	C	03/01/2018	10:43	-132.893	43.536	0	1350.20	0	2.8860	0	34.5790	4	27.568	0	1335.091	0	22.5	4	6.9	4	-1E+10	1	-1E+10	1	-1E+10	1	-1E+10	1	-1E+10	1	-1E+10	1
4901784	97	C	03/01/2018	10:43	-132.893	43.536	0	1355.60	0	2.8730	0	34.5800	4	27.570	0	1340.413	0	22.6	4	7.0	4	-1E+10	1	-1E+10	1	-1E+10	1	-1E+10	1	-1E+10	1	-1E+10	1
4901784	97	C	03/01/2018	10:43	-132.893	43.536	0	1360.10	0	2.8640	0	34.5810	4	27.572	0	1344.849	0	22.7	4	7.0	4	-1E+10	1	-1E+10	1	-1E+10	1	-1E+10	1	-1E+10	1	-1E+10	1
4901784	97	C	03/01/2018	10:43	-132.893	43.536	0	1364.50	0	2.8470	0	34.5810	4	27.573	0	1349.185	0	22.8	4	7.0	4	-1E+10	1	-1E+10	1	-1E+10	1	-1E+10	1	-1E+10	1	-1E+10	1
4901784	97	C	03/01/2018	10:43	-132.893	43.536	0	1369.90	0	2.8400	0	34.5820	4	27.574	0	1354.507	0	23.0	4	7.1	4	-1E+10	1	-1E+10	1	-1E+10	1	-1E+10	1	-1E+10	1	-1E+10	1
4901784	97	C	03/01/2018	10:43	-132.893	43.536	0	1375.20	0	2.8170	0	34.5830	4	27.577	0	1359.731	0	23.3	4	7.2	4	-1E+10	1	-1E+10	1	-1E+10	1	-1E+10	1	-1E+10	1	-1E+10	1
4901784	97	C	03/01/2018	10:43	-132.893	43.536	0	1380.60	0	2.8080	0	34.5850	4	27.580	0	1365.052	0	23.5	4	7.2	4	-1E+10	1	-1E+10	1	-1E+10	1	-1E+10	1	-1E+10	1	-1E+10	1
4901784	97	C	03/01/2018	10:43	-132.893	43.536	0	1385.10	0	2.8030	0	34.5860	4	27.581	0	1369.487	0	23.5	4	7.2	4	-1E+10	1	-1E+10	1	-1E+10	1	-1E+10	1	-1E+10	1	-1E+10	1
4901784	97	C	03/01/2018	10:43	-132.893	43.536	0	1389.60	0	2.7990	0	34.5860	4	27.581	0	1373.922	0	23.5	4	7.2	4	-1E+10	1	-1E+10	1	-1E+10	1	-1E+10	1	-1E+10	1	-1E+10	1
4901784	97	C	03/01/2018	10:43	-132.893	43.536	0	1395.10	0	2.7840	0	34.5860	4	27.583	0	1379.342	0	23.6	4	7.2	4	-1E+10	1	-1E+10	1	-1E+10	1	-1E+10	1	-1E+10	1	-1E+10	1
4901784	97	C	03/01/2018	10:43	-132.893	43.536	0	1399.70	0	2.7750	0	34.5860	4	27.584	0	1383.875	0	23.6	4	7.3	4	-1E+10	1	-1E+10	1	-1E+10	1	-1E+10	1	-1E+10	1	-1E+10	1
4901784	97	C	03/01/2018	10:43	-132.893	43.536	0	1404.40	0	2.7650	0	34.5870	4	27.585	0	1388.506	0	23.8	4	7.3	4	-1E+10	1	-1E+10	1	-1E+10	1	-1E+10	1	-1E+10	1	-1E+10	1
4901784	97	C	03/01/2018	10:43	-132.893	43.536	0	1410.00	0	2.7590	0	34.5880	4	27.587	0	1394.024	0	24.0	4	7.4	4	-1E+10	1	-1E+10	1	-1E+10	1	-1E+10	1	-1E+10	1	-1E+10	1
4901784	97	C	03/01/2018	10:43	-132.893	43.536	0	1415.60	0	2.7460	0	34.5890	4	27.589	0	1399.542	0	24.1	4	7.4	4	-1E+10	1	-1E+10	1	-1E+10	1	-1E+10	1	-1E+10	1	-1E+10	1
4901784	97	C	03/01/2018	10:43	-132.893	43.536	0	1420.30	0	2.7400	0	34.5890	4	27.589	0	1404.173	0	24.2	4	7.4	4	-1E+10	1	-1E+10	1	-1E+10	1	-1E+10	1	-1E+10	1	-1E+10	1
4901784	97	C	03/01/2018	10:43	-132.893	43.536	0	1424.90	0	2.7340	0	34.5890	4	27.590	0	1408.706	0	24.3	4	7.5	4	-1E+10	1	-1E+10	1	-1E+10	1	-1E+10	1	-1E+10	1	-1E+10	1
4901784	97	C	03/01/2018	10:43	-132.893	43.536	0	1430.50	0	2.7170	0	34.5910	4	27.593	0	1414.223	0	24.6	4	7.5	4	-1E+10	1	-1E+10	1	-1E+10	1	-1E+10	1	-1E+10	1	-1E+10	1
4901784	97	C	03/01/2018	10:43	-132.893	43.536	0	1434.70	0	2.7090	0	34.5910	4	27.593	0	1418.361	0	24.7	4	7.6	4	-1E+10	1	-1E+10	1	-1E+10	1	-1E+10	1	-1E+10	1	-1E+10	1
4901784	97	C	03/01/2018	10:43	-132.893	43.536	0	1439.50	0	2.7000	0	34.5920	4	27.595	0	1423.091	0	24.8	4	7.6	4	-1E+10	1	-1E+10	1	-1E+10	1	-1E+10	1	-1E+10	1	-1E+10	1
4901784	97	C	03/01/2018	10:43	-132.893	43.536	0	1444.40	0	2.6900	0	34.5920	4	27.596	0	1427.918	0	25.0	4	7.7	4	-1E+10	1	-1E+10	1	-1E+10	1	-1E+10	1	-1E+10	1	-1E+10	1
4901784	97	C	03/01/2018	10:43	-132.893	43.536	0	1450.10	0	2.6660	0	34.5940	4	27.600	0	1433.534	0	25.2	4	7.7	4	-1E+10	1	-1E+10	1	-1E+10	1	-1E+10	1	-1E+10	1	-1E+10	1
4901784	97	C	03/01/2018	10:43	-132.893	43.536	0	1455.80	0	2.6530	0	34.5950	4	27.602	0	1439.149	0	25.3	4	7.8	4	-1E+10	1	-1E+10	1	-1E+10	1	-1E+10	1	-1E+10	1	-1E+10	1
4901784	97	C	03/01/2018	10:43	-132.893	43.536	0	1460.80	0	2.6480	0	34.5950	4	27.602	0	1444.075	0	25.5	4	7.8	4	-1E+10	1	-1E+10	1	-1E+10	1	-1E+10	1	-1E+10	1	-1E+10	1
4901784	97	C	03/01/2018	10:43	-132.893	43.536	0	1465.80	0	2.6300	0	34.5960	4	27.604	0	1449.001	0	25.7	4	7.9	4	-1E+10	1	-1E+10	1	-1E+10	1	-1E+10	1	-1E+10	1	-1E+10	1
4901784	97	C	03/01/2018	10:43	-132.893	43.536	0	1470.70	0	2.6200	0	34.5970	4	27.606	0	1453.828	0	25.9	4	7.9	4	-1E+10	1	-1E+10	1	-1E+10	1	-1E+10	1	-1E+10	1	-1E+10	1
4901784	97	C	03/01/2018	10:43	-132.893	43.536	0	1475.70	0	2.6150	0	34.5970	4	27.607	0	1458.753	0	26.0	4	8.0	4	-1E+10	1	-1E+10	1	-1E+10	1	-1E+10	1	-1E+10	1	-1E+10	1
4901784	97	C	03/01/2018	10:43	-132.893	43.536	0	1480.80	0	2.6080	0	34.5980	4	27.608	0	1463.777	0	26.1	4	8.0	4	-1E+10	1	-1E+10	1	-1E+10	1	-1E+10	1	-1E+10	1	-1E+10	1
4901784	97	C	03/01/2018	10:43	-132.893	43.536	0	1485.80	0	2.5980	0	34.5980	4	27.609	0	1468.702	0	26.3	4	8.1	4	-1E+10	1	-1E+10	1	-1E+10	1	-1E+10	1	-1E+10	1	-1E+10	1
4901784	97	C	03/01/2018	10:43	-132.893	43.536	0	1490.00	0	2.5880	0	34.5990	4	27.611	0	1472.839	0	26.4	4	8.1	4	-1E+10	1	-1E+10	1	-1E+10	1	-1E+10	1	-1E+10	1	-1E+10	1
4901784	97	C	03/01/2018	10:43	-132.893	43.536	0	1494.20	0	2.5830	0	34.5990	4	27.611	0	1476.976	0	26.5	4	8.1	4	-1E+10	1	-1E+10	1	-1E+10	1	-1E+10	1	-1E+10	1	-1E+10	1
4901784	97	C	03/01/2018	10:43	-132.893	43.536	0	1499.30	0	2.5770	0	34.6000	4	27.612	0	1481.999	0	26.7	4	8.2	4	-1E+10	1	-1E+10	1	-1E+10	1	-1E+10	1	-1E+10	1	-1E+10	1
4901784	97	C	03/01/2018	10:43	-132.893	43.536	0	1504.40	0	2.5710	0	34.6010	4	27.614	0	1487.023	0	26.8	4	8.2	4	-1E+10	1	-1E+10	1	-1E+10	1	-1E+10	1	-1E+10	1	-1E+10	1
4901784	97	C	03/01/2018	10:43	-132.893	43.536	0	1509.40	0	2.5640	0	34.6010	4	27.614	0	1491.947	0	26.9	4	8.2	4	-1E+10	1	-1E+10	1	-1E+10	1	-1E+10	1	-1E+10	1	-1E+10	1
4901784	97	C	03/01/2018	10:43	-132.893	43.536	0	1514.50	0	2.5590	0	34.6010	4	27.615	0	1496.970	0	27.1	4	8.3	4	-1E+10	1	-1E+10	1	-1E+10	1	-1E+10	1	-1E+10	1	-1E+10	1
4901784	97	C	03/01/2018	10:43	-132.893	43.536	0	1519.70	0	2.5480	0	34.6030	4	27.617	0	1502.091	0	27.4	4	8.4	4	-1E+10	1	-1E+10	1	-1E+10	1	-1E+10	1	-1E+10	1	-1E+10	1
4901784	97	C	03/01/2018	10:43	-132.893	43.536	0	1524.90	0	2.5410	0	34.6030	4	27.618	0	1507.213	0	27.6	4	8.4	4	-1E+10	1	-1E+10	1	-1E+10	1	-1E+10	1	-1E+10	1	-1E+10	1
4901784	97	C	03/01/2018	10:43	-132.893	43.536	0	1530.10	0	2.5310	0	34.6040	4	27.620	0	1512.334	0	27.8	4	8.5	4	-1E+10	1	-1E+10	1	-1E+10	1	-1E+10	1	-1E+10	1	-1E+10	1
4901784	97	C	03/01/2018	10:43	-132.893	43.536	0	1535.40	0	2.5230	0	34.6050	4	27.621	0	1517.553	0	28.0	4	8.6	4	-1E+10	1	-1E+10	1	-1E+10	1	-1E+10	1	-1E+10	1	-1E+10	1
4901784	97	C	03/01/2018	10:43	-132.893	43.536	0	1540.60	0	2.5150	0	34.6060	4	27.623	0	1522.674	0	28.3	4	8.6	4	-1E+10	1	-1E+10	1	-1E+10	1	-1E+10	1	-1E+10	1	-1E+10	1
4901784	97	C	03/01/2018	10:43	-132.893	43.536	0	1545.00	0	2.5090	0	34.6060	4	27.623	0	1527.007	0	28.5	4	8.7	4	-1E+10	1	-1E+10	1	-1E+10	1	-1E+10	1	-1E+10	1	-1E+10	1
4901784	97	C	03/01/2018	10:43	-132.893	43.536	0	1549.30	0	2.5030	0	34.6070	4	27.624	0	1531.241	0	28.7	4	8.8	4	-1E+10	1	-1E+10	1	-1E+10	1	-1E+10	1	-1E+10	1	-1E+10	1
4901784	97	C	03/01/2018	10:43	-132.893	43.536	0	1554.60	0	2.4890	0	34.6080	4	27.626	0	1536.460	0	29.0	4	8.9	4	-1E+10	1	-1E+10	1	-1E+10	1	-1E+10	1	-1E+10	1	-1E+10	1
4901784	97	C	03/01/2018	10:43	-132.893	43.536	0	1559.90	0	2.4800	0	34.6090	4	27.628	0	1541.679	0	29.3	4	8.9	4	-1E+10	1	-1E+10	1	-1E+10	1	-1E+10	1	-1E+10	1	-1E+10	1
4901784	97	C	03/01/2018	10:43	-132.893	43.536	0	1565.30	0	2.4730	0	34.6100	4	27.629	0	1546.996	0	29.6	4	9.0	4	-1E+10	1	-1E+10	1	-1E+10	1	-1E+10	1	-1E+10	1	-1E+10	1
4901784	97	C	03/01/2018	10:43	-132.893	43.536	0	1570.60	0	2.4640	0	34.6110	4	27.631	0	1552.215	0	30.1	4	9.2	4	-1E+10	1	-1E+10	1	-1E+10	1	-1E+10	1	-1E+10	1	-1E+10	1
4901784	97	C	03/01/2018	10:43	-132.893	43.536	0	1575.10	0	2.4570	0	34.6120	4	27.632	0	1556.646	0	30.5	4	9.3	4	-1E+10	1	-1E+10	1	-1E+10	1	-1E+10	1	-1E+10	1	-1E+10	1
4901784	97	C	03/01/2018	10:43	-132.893	43.536	0	1579.60	0	2.4480	0	34.6140	4	27.635	0	1561.076	0	31.1	4	9.5	4	-1E+10	1	-1E+10	1	-1E+10	1	-1E+10	1	-1E+10	1	-1E+10	1
4901784	97	C	03/01/2018	10:43	-132.893	43.536	0	1585.00	0	2.4390	0	34.6170	4	27.638	0	1566.393	0	31.6	4	9.6	4	-1E+10	1	-1E+10	1	-1E+10	1	-1E+10	1	-1E+10	1	-1E+10	1
4901784	97	C	03/01/2018	10:43	-132.893	43.536	0	1590.40	0	2.4300	0	34.6190	4	27.640	0	1571.710	0	32.0	4	9.8	4	-1E+10	1	-1E+10	1	-1E+10	1	-1E+10	1	-1E+10	1	-1E+10	1
4901784	97	C	03/01/2018	10:43	-132.893	43.536	0	1594.90	0	2.4130	0	34.6190	4	27.642	0	1576.140	0	32.2	4	9.8	4	-1E+10	1	-1E+10	1	-1E+10	1	-1E+10	1	-1E+10	1	-1E+10	1
4901784	97	C	03/01/2018	10:43	-132.893	43.536	0	1599.40	0	2.4060	0	34.6200	4	27.643	0	1580.570	0	32.4	4	9.9	4	-1E+10	1	-1E+10	1	-1E+10	1	-1E+10	1	-1E+10	1	-1E+10	1
4901784	97	C	03/01/2018	10:43	-132.893	43.536	0	1604.70	0	2.3950	0	34.6190	4	27.643	0	1585.788	0	32.5	4	9.9	4	-1E+10	1	-1E+10	1	-1E+10	1	-1E+10	1	-1E+10	1	-1E+10	1
4901784	97	C	03/01/2018	10:43	-132.893	43.536	0	1610.00	0	2.3850	0	34.6200	4	27.645	0	1591.006	0	33.0	4	10.0	4	-1E+10	1	-1E+10	1	-1E+10	1	-1E+10	1	-1E+10	1	-1E+10	1
4901784	97	C	03/01/2018	10:43	-132.893	43.536	0	1615.50	0	2.3690	0	34.6220	4	27.648	0	1596.420	0	33.4	4	10.2	4	-1E+10	1	-1E+10	1	-1E+10	1	-1E+10	1	-1E+10	1	-1E+10	1
4901784	97	C	03/01/2018	10:43	-132.893	43.536	0	1619.90	0	2.3610	0	34.6230	4	27.649	0	1600.752	0	33.8	4	10.3	4	-1E+10	1	-1E+10	1	-1E+10	1	-1E+10	1	-1E+10	1	-1E+10	1
4901784	97	C	03/01/2018	10:43	-132.893	43.536	0	1624.50	0	2.3560	0	34.6250	4	27.651	0	1605.280	0	34.2	4	10.4	4	-1E+10	1	-1E+10	1	-1E+10	1	-1E+10	1	-1E+10	1	-1E+10	1
4901784	97	C	03/01/2018	10:43	-132.893	43.536	0	1629.90	0	2.3530	0	34.6260	4	27.653	0	1610.595	0	34.5	4	10.5	4	-1E+10	1	-1E+10	1	-1E+10	1	-1E+10	1	-1E+10	1	-1E+10	1
4901784	97	C	03/01/2018	10:43	-132.893	43.536	0	1635.30	0	2.3530	0	34.6270	4	27.653	0	1615.911	0	34.8	4	10.6	4	-1E+10	1	-1E+10	1	-1E+10	1	-1E+10	1	-1E+10	1	-1E+10	1
4901784	97	C	03/01/2018	10:43	-132.893	43.536	0	1640.70	0	2.3480	0	34.6270	4	27.654	0	1621.226	0	35.3	4	10.7	4	-1E+10	1	-1E+10	1	-1E+10	1	-1E+10	1	-1E+10	1	-1E+10	1
4901784	97	C	03/01/2018	10:43	-132.893	43.536	0	1645.20	0	2.3350	0	34.6300	4	27.657	0	1625.655	0	35.7	4	10.9	4	-1E+10	1	-1E+10	1	-1E+10	1	-1E+10	1	-1E+10	1	-1E+10	1
4901784	97	C	03/01/2018	10:43	-132.893	43.536	0	1649.70	0	2.3200	0	34.6300	4	27.659	0	1630.085	0	35.9	4	10.9	4	-1E+10	1	-1E+10	1	-1E+10	1	-1E+10	1	-1E+10	1	-1E+10	1
4901784	97	C	03/01/2018	10:43	-132.893	43.536	0	1655.10	0	2.3150	0	34.6300	4	27.659	0	1635.400	0	36.2	4	11.0	4	-1E+10	1	-1E+10	1	-1E+10	1	-1E+10	1	-1E+10	1	-1E+10	1
4901784	97	C	03/01/2018	10:43	-132.893	43.536	0	1659.70	0	2.3090	0	34.6310	4	27.660	0	1639.927	0	36.4	4	11.1	4	-1E+10	1	-1E+10	1	-1E+10	1	-1E+10	1	-1E+10	1	-1E+10	1
4901784	97	C	03/01/2018	10:43	-132.893	43.536	0	1664.10	0	2.3090	0	34.6320	4	27.661	0	1644.258	0	36.6	4	11.1	4	-1E+10	1	-1E+10	1	-1E+10	1	-1E+10	1	-1E+10	1	-1E+10	1
4901784	97	C	03/01/2018	10:43	-132.893	43.536	0	1669.50	0	2.3080	0	34.6320	4	27.661	0	1649.572	0	37.0	4	11.2	4	-1E+10	1	-1E+10	1	-1E+10	1	-1E+10	1	-1E+10	1	-1E+10	1
4901784	97	C	03/01/2018	10:43	-132.893	43.536	0	1674.30	0	2.3080	0	34.6340	4	27.663	0	1654.296	0	37.4	4	11.4	4	-1E+10	1	-1E+10	1	-1E+10	1	-1E+10	1	-1E+10	1	-1E+10	1
4901784	97	C	03/01/2018	10:43	-132.893	43.536	0	1680.00	0	2.3020	0	34.6350	4	27.664	0	1659.906	0	37.9	4	11.5	4	-1E+10	1	-1E+10	1	-1E+10	1	-1E+10	1	-1E+10	1	-1E+10	1
4901784	97	C	03/01/2018	10:43	-132.893	43.536	0	1685.80	0	2.2960	0	34.6360	4	27.666	0	1665.614	0	38.5	4	11.7	4	-1E+10	1	-1E+10	1	-1E+10	1	-1E+10	1	-1E+10	1	-1E+10	1
4901784	97	C	03/01/2018	10:43	-132.893	43.536	0	1690.80	0	2.2870	0	34.6390	4	27.669	0	1670.534	0	39.0	4	11.9	4	-1E+10	1	-1E+10	1	-1E+10	1	-1E+10	1	-1E+10	1	-1E+10	1
4901784	97	C	03/01/2018	10:43	-132.893	43.536	0	1695.80	0	2.2810	0	34.6390	4	27.669	0	1675.455	0	39.2	4	11.9	4	-1E+10	1	-1E+10	1	-1E+10	1	-1E+10	1	-1E+10	1	-1E+10	1
4901784	97	C	03/01/2018	10:43	-132.893	43.536	0	1700.00	0	2.2800	0	34.6400	4	27.670	0	1679.588	0	39.3	4	11.9	4	-1E+10	1	-1E+10	1	-1E+10	1	-1E+10	1	-1E+10	1	-1E+10	1
4901784	97	C	03/01/2018	10:43	-132.893	43.536	0	1704.20	0	2.2760	0	34.6400	4	27.670	0	1683.720	0	39.5	4	12.0	4	-1E+10	1	-1E+10	1	-1E+10	1	-1E+10	1	-1E+10	1	-1E+10	1
4901784	97	C	03/01/2018	10:43	-132.893	43.536	0	1709.30	0	2.2750	0	34.6410	4	27.671	0	1688.739	0	39.6	4	12.0	4	-1E+10	1	-1E+10	1	-1E+10	1	-1E+10	1	-1E+10	1	-1E+10	1
4901784	97	C	03/01/2018	10:43	-132.893	43.536	0	1714.30	0	2.2750	0	34.6400	4	27.671	0	1693.659	0	39.7	4	12.1	4	-1E+10	1	-1E+10	1	-1E+10	1	-1E+10	1	-1E+10	1	-1E+10	1
4901784	97	C	03/01/2018	10:43	-132.893	43.536	0	1719.30	0	2.2710	0	34.6410	4	27.672	0	1698.579	0	40.1	4	12.2	4	-1E+10	1	-1E+10	1	-1E+10	1	-1E+10	1	-1E+10	1	-1E+10	1
4901784	97	C	03/01/2018	10:43	-132.893	43.536	0	1724.30	0	2.2620	0	34.6410	4	27.673	0	1703.498	0	40.7	4	12.4	4	-1E+10	1	-1E+10	1	-1E+10	1	-1E+10	1	-1E+10	1	-1E+10	1
4901784	97	C	03/01/2018	10:43	-132.893	43.536	0	1729.30	0	2.2390	0	34.6440	4	27.677	0	1708.418	0	41.5	4	12.6	4	-1E+10	1	-1E+10	1	-1E+10	1	-1E+10	1	-1E+10	1	-1E+10	1
4901784	97	C	03/01/2018	10:43	-132.893	43.536	0	1734.30	0	2.2260	0	34.6450	4	27.679	0	1713.337	0	42.0	4	12.7	4	-1E+10	1	-1E+10	1	-1E+10	1	-1E+10	1	-1E+10	1	-1E+10	1
4901784	97	C	03/01/2018	10:43	-132.893	43.536	0	1739.40	0	2.2130	0	34.6460	4	27.681	0	1718.355	0	42.6	4	12.9	4	-1E+10	1	-1E+10	1	-1E+10	1	-1E+10	1	-1E+10	1	-1E+10	1
4901784	97	C	03/01/2018	10:43	-132.893	43.536	0	1744.50	0	2.1950	0	34.6480	4	27.684	0	1723.373	0	43.1	4	13.1	4	-1E+10	1	-1E+10	1	-1E+10	1	-1E+10	1	-1E+10	1	-1E+10	1
4901784	97	C	03/01/2018	10:43	-132.893	43.536	0	1749.90	0	2.1850	0	34.6500	4	27.686	0	1728.685	0	43.2	4	13.1	4	-1E+10	1	-1E+10	1	-1E+10	1	-1E+10	1	-1E+10	1	-1E+10	1
4901784	97	C	03/01/2018	10:43	-132.893	43.536	0	1755.30	0	2.1850	0	34.6500	4	27.686	0	1733.998	0	43.2	4	13.1	4	-1E+10	1	-1E+10	1	-1E+10	1	-1E+10	1	-1E+10	1	-1E+10	1
4901784	97	C	03/01/2018	10:43	-132.893	43.536	0	1760.60	0	2.1850	0	34.6500	4	27.686	0	1739.212	0	43.2	4	13.1	4	-1E+10	1	-1E+10	1	-1E+10	1	-1E+10	1	-1E+10	1	-1E+10	1
4901784	97	C	03/01/2018	10:43	-132.893	43.536	0	1765.10	0	2.1850	0	34.6500	4	27.686	0	1743.638	0	43.2	4	13.1	4	-1E+10	1	-1E+10	1	-1E+10	1	-1E+10	1	-1E+10	1	-1E+10	1
4901784	97	C	03/01/2018	10:43	-132.893	43.536	0	1769.60	0	2.1840	0	34.6490	4	27.685	0	1748.065	0	43.2	4	13.1	4	-1E+10	1	-1E+10	1	-1E+10	1	-1E+10	1	-1E+10	1	-1E+10	1
4901784	97	C	03/01/2018	10:43	-132.893	43.536	0	1775.00	0	2.1830	0	34.6490	4	27.686	0	1753.377	0	43.3	4	13.1	4	-1E+10	1	-1E+10	1	-1E+10	1	-1E+10	1	-1E+10	1	-1E+10	1
4901784	97	C	03/01/2018	10:43	-132.893	43.536	0	1780.40	0	2.1760	0	34.6500	4	27.687	0	1758.689	0	43.4	4	13.2	4	-1E+10	1	-1E+10	1	-1E+10	1	-1E+10	1	-1E+10	1	-1E+10	1
4901784	97	C	03/01/2018	10:43	-132.893	43.536	0	1785.30	0	2.1740	0	34.6500	4	27.687	0	1763.509	0	43.6	4	13.2	4	-1E+10	1	-1E+10	1	-1E+10	1	-1E+10	1	-1E+10	1	-1E+10	1
4901784	97	C	03/01/2018	10:43	-132.893	43.536	0	1789.40	0	2.1720	0	34.6500	4	27.687	0	1767.542	0	43.8	4	13.3	4	-1E+10	1	-1E+10	1	-1E+10	1	-1E+10	1	-1E+10	1	-1E+10	1
4901784	97	C	03/01/2018	10:43	-132.893	43.536	0	1794.90	0	2.1650	0	34.6510	4	27.689	0	1772.952	0	44.4	4	13.5	4	-1E+10	1	-1E+10	1	-1E+10	1	-1E+10	1	-1E+10	1	-1E+10	1
4901784	97	C	03/01/2018	10:43	-132.893	43.536	0	1800.50	0	2.1500	0	34.6520	4	27.691	0	1778.460	0	45.5	4	13.8	4	-1E+10	1	-1E+10	1	-1E+10	1	-1E+10	1	-1E+10	1	-1E+10	1
4901784	97	C	03/01/2018	10:43	-132.893	43.536	0	1805.40	0	2.1300	0	34.6550	4	27.695	0	1783.279	0	46.2	4	14.0	4	-1E+10	1	-1E+10	1	-1E+10	1	-1E+10	1	-1E+10	1	-1E+10	1
4901784	97	C	03/01/2018	10:43	-132.893	43.536	0	1810.20	0	2.1180	0	34.6570	4	27.697	0	1788.000	0	46.6	4	14.1	4	-1E+10	1	-1E+10	1	-1E+10	1	-1E+10	1	-1E+10	1	-1E+10	1
4901784	97	C	03/01/2018	10:43	-132.893	43.536	0	1815.10	0	2.1130	0	34.6580	4	27.698	0	1792.820	0	46.7	4	14.1	4	-1E+10	1	-1E+10	1	-1E+10	1	-1E+10	1	-1E+10	1	-1E+10	1
4901784	97	C	03/01/2018	10:43	-132.893	43.536	0	1820.00	0	2.1110	0	34.6580	4	27.699	0	1797.639	0	47.0	4	14.2	4	-1E+10	1	-1E+10	1	-1E+10	1	-1E+10	1	-1E+10	1	-1E+10	1
4901784	97	C	03/01/2018	10:43	-132.893	43.536	0	1825.10	0	2.1090	0	34.6580	4	27.699	0	1802.654	0	47.3	4	14.3	4	-1E+10	1	-1E+10	1	-1E+10	1	-1E+10	1	-1E+10	1	-1E+10	1
4901784	97	C	03/01/2018	10:43	-132.893	43.536	0	1830.20	0	2.1010	0	34.6590	4	27.700	0	1807.670	0	47.8	4	14.5	4	-1E+10	1	-1E+10	1	-1E+10	1	-1E+10	1	-1E+10	1	-1E+10	1
4901784	97	C	03/01/2018	10:43	-132.893	43.536	0	1835.20	0	2.0880	0	34.6610	4	27.703	0	1812.587	0	48.4	4	14.6	4	-1E+10	1	-1E+10	1	-1E+10	1	-1E+10	1	-1E+10	1	-1E+10	1
4901784	97	C	03/01/2018	10:43	-132.893	43.536	0	1840.20	0	2.0820	0	34.6620	4	27.704	0	1817.504	0	48.7	4	14.7	4	-1E+10	1	-1E+10	1	-1E+10	1	-1E+10	1	-1E+10	1	-1E+10	1
4901784	97	C	03/01/2018	10:43	-132.893	43.536	0	1845.20	0	2.0760	0	34.6630	4	27.706	0	1822.421	0	49.1	4	14.9	4	-1E+10	1	-1E+10	1	-1E+10	1	-1E+10	1	-1E+10	1	-1E+10	1
4901784	97	C	03/01/2018	10:43	-132.893	43.536	0	1850.30	0	2.0720	0	34.6630	4	27.706	0	1827.436	0	49.5	4	15.0	4	-1E+10	1	-1E+10	1	-1E+10	1	-1E+10	1	-1E+10	1	-1E+10	1
4901784	97	C	03/01/2018	10:43	-132.893	43.536	0	1855.30	0	2.0680	0	34.6640	4	27.707	0	1832.353	0	49.9	4	15.1	4	-1E+10	1	-1E+10	1	-1E+10	1	-1E+10	1	-1E+10	1	-1E+10	1
4901784	97	C	03/01/2018	10:43	-132.893	43.536	0	1860.50	0	2.0660	0	34.6640	4	27.707	0	1837.466	0	50.2	4	15.2	4	-1E+10	1	-1E+10	1	-1E+10	1	-1E+10	1	-1E+10	1	-1E+10	1
4901784	97	C	03/01/2018	10:43	-132.893	43.536	0	1865.70	0	2.0580	0	34.6660	4	27.710	0	1842.579	0	50.8	4	15.3	4	-1E+10	1	-1E+10	1	-1E+10	1	-1E+10	1	-1E+10	1	-1E+10	1
4901784	97	C	03/01/2018	10:43	-132.893	43.536	0	1870.00	0	2.0520	0	34.6670	4	27.711	0	1846.807	0	51.1	4	15.4	4	-1E+10	1	-1E+10	1	-1E+10	1	-1E+10	1	-1E+10	1	-1E+10	1
4901784	97	C	03/01/2018	10:43	-132.893	43.536	0	1874.40	0	2.0500	0	34.6670	4	27.711	0	1851.134	0	51.4	4	15.5	4	-1E+10	1	-1E+10	1	-1E+10	1	-1E+10	1	-1E+10	1	-1E+10	1
4901784	97	C	03/01/2018	10:43	-132.893	43.536	0	1879.60	0	2.0450	0	34.6690	4	27.713	0	1856.246	0	51.8	4	15.6	4	-1E+10	1	-1E+10	1	-1E+10	1	-1E+10	1	-1E+10	1	-1E+10	1
4901784	97	C	03/01/2018	10:43	-132.893	43.536	0	1884.80	0	2.0430	0	34.6690	4	27.713	0	1861.359	0	52.1	4	15.7	4	-1E+10	1	-1E+10	1	-1E+10	1	-1E+10	1	-1E+10	1	-1E+10	1
4901784	97	C	03/01/2018	10:43	-132.893	43.536	0	1890.10	0	2.0410	0	34.6690	4	27.713	0	1866.570	0	52.6	4	15.9	4	-1E+10	1	-1E+10	1	-1E+10	1	-1E+10	1	-1E+10	1	-1E+10	1
4901784	97	C	03/01/2018	10:43	-132.893	43.536	0	1895.50	0	2.0290	0	34.6710	4	27.716	0	1871.879	0	53.1	4	16.0	4	-1E+10	1	-1E+10	1	-1E+10	1	-1E+10	1	-1E+10	1	-1E+10	1
4901784	97	C	03/01/2018	10:43	-132.893	43.536	0	1900.10	0	2.0250	0	34.6720	4	27.717	0	1876.401	0	53.4	4	16.1	4	-1E+10	1	-1E+10	1	-1E+10	1	-1E+10	1	-1E+10	1	-1E+10	1
4901784	97	C	03/01/2018	10:43	-132.893	43.536	0	1904.70	0	2.0230	0	34.6720	4	27.717	0	1880.924	0	53.6	4	16.2	4	-1E+10	1	-1E+10	1	-1E+10	1	-1E+10	1	-1E+10	1	-1E+10	1
4901784	97	C	03/01/2018	10:43	-132.893	43.536	0	1910.10	0	2.0180	0	34.6730	4	27.718	0	1886.232	0	54.1	4	16.3	4	-1E+10	1	-1E+10	1	-1E+10	1	-1E+10	1	-1E+10	1	-1E+10	1
4901784	97	C	03/01/2018	10:43	-132.893	43.536	0	1915.50	0	2.0120	0	34.6740	4	27.720	0	1891.541	0	54.5	4	16.5	4	-1E+10	1	-1E+10	1	-1E+10	1	-1E+10	1	-1E+10	1	-1E+10	1
4901784	97	C	03/01/2018	10:43	-132.893	43.536	0	1920.30	0	2.0060	0	34.6750	4	27.721	0	1896.260	0	54.8	4	16.5	4	-1E+10	1	-1E+10	1	-1E+10	1	-1E+10	1	-1E+10	1	-1E+10	1
4901784	97	C	03/01/2018	10:43	-132.893	43.536	0	1925.30	0	2.0030	0	34.6760	4	27.722	0	1901.175	0	55.1	4	16.6	4	-1E+10	1	-1E+10	1	-1E+10	1	-1E+10	1	-1E+10	1	-1E+10	1
4901784	97	C	03/01/2018	10:43	-132.893	43.536	0	1930.20	0	1.9960	0	34.6770	4	27.724	0	1905.991	0	55.5	4	16.7	4	-1E+10	1	-1E+10	1	-1E+10	1	-1E+10	1	-1E+10	1	-1E+10	1
4901784	97	C	03/01/2018	10:43	-132.893	43.536	0	1935.00	0	1.9950	0	34.6770	4	27.724	0	1910.710	0	55.6	4	16.8	4	-1E+10	1	-1E+10	1	-1E+10	1	-1E+10	1	-1E+10	1	-1E+10	1
4901784	97	C	03/01/2018	10:43	-132.893	43.536	0	1940.00	0	1.9930	0	34.6770	4	27.724	0	1915.624	0	55.8	4	16.8	4	-1E+10	1	-1E+10	1	-1E+10	1	-1E+10	1	-1E+10	1	-1E+10	1
4901784	97	C	03/01/2018	10:43	-132.893	43.536	0	1944.90	0	1.9900	0	34.6780	4	27.725	0	1920.441	0	56.2	4	16.9	4	-1E+10	1	-1E+10	1	-1E+10	1	-1E+10	1	-1E+10	1	-1E+10	1
4901784	97	C	03/01/2018	10:43	-132.893	43.536	0	1949.90	0	1.9840	0	34.6790	4	27.726	0	1925.355	0	56.6	4	17.1	4	-1E+10	1	-1E+10	1	-1E+10	1	-1E+10	1	-1E+10	1	-1E+10	1
4901784	97	C	03/01/2018	10:43	-132.893	43.536	0	1954.90	0	1.9790	0	34.6790	4	27.727	0	1930.270	0	57.1	4	17.2	4	-1E+10	1	-1E+10	1	-1E+10	1	-1E+10	1	-1E+10	1	-1E+10	1
4901784	97	C	03/01/2018	10:43	-132.893	43.536	0	1960.00	0	1.9730	0	34.6810	4	27.729	0	1935.282	0	57.6	4	17.4	4	-1E+10	1	-1E+10	1	-1E+10	1	-1E+10	1	-1E+10	1	-1E+10	1
4901784	97	C	03/01/2018	10:43	-132.893	43.536	0	1965.10	0	1.9670	0	34.6820	4	27.730	0	1940.295	0	57.9	4	17.5	4	-1E+10	1	-1E+10	1	-1E+10	1	-1E+10	1	-1E+10	1	-1E+10	1
4901784	97	C	03/01/2018	10:43	-132.893	43.536	0	1970.20	0	1.9640	0	34.6820	4	27.730	0	1945.307	0	58.1	4	17.5	4	-1E+10	1	-1E+10	1	-1E+10	1	-1E+10	1	-1E+10	1	-1E+10	1
4901784	97	C	03/01/2018	10:43	-132.893	43.536	0	1975.20	0	1.9610	0	34.6820	4	27.730	0	1950.221	0	58.3	4	17.6	4	-1E+10	1	-1E+10	1	-1E+10	1	-1E+10	1	-1E+10	1	-1E+10	1
4901784	97	C	03/01/2018	10:43	-132.893	43.536	0	1980.30	0	1.9590	0	34.6830	4	27.731	0	1955.233	0	58.5	4	17.6	4	-1E+10	1	-1E+10	1	-1E+10	1	-1E+10	1	-1E+10	1	-1E+10	1
4901784	97	C	03/01/2018	10:43	-132.893	43.536	0	1985.40	0	1.9570	0	34.6830	4	27.732	0	1960.245	0	58.7	4	17.7	4	-1E+10	1	-1E+10	1	-1E+10	1	-1E+10	1	-1E+10	1	-1E+10	1
4901784	97	C	03/01/2018	10:43	-132.893	43.536	0	1990.60	0	1.9540	0	34.6840	4	27.733	0	1965.355	0	58.9	4	17.8	4	-1E+10	1	-1E+10	1	-1E+10	1	-1E+10	1	-1E+10	1	-1E+10	1
4901784	97	C	03/01/2018	10:43	-132.893	43.536	0	1995.70	0	1.9500	0	34.6840	4	27.733	0	1970.367	0	59.2	4	17.8	4	-1E+10	1	-1E+10	1	-1E+10	1	-1E+10	1	-1E+10	1	-1E+10	1
4901784	97	C	03/01/2018	10:43	-132.893	43.536	0	2000.10	0	1.9490	0	34.6850	4	27.734	0	1974.691	0	59.2	4	17.9	4	-1E+10	1	-1E+10	1	-1E+10	1	-1E+10	1	-1E+10	1	-1E+10	1
4901784	97	C	03/01/2018	10:43	-132.893	43.536	0	2005.00	0	1.9490	0	34.6850	4	27.734	0	1979.506	0	59.3	4	17.9	4	-1E+10	1	-1E+10	1	-1E+10	1	-1E+10	1	-1E+10	1	-1E+10	1
4901784	97	C	03/01/2018	10:43	-132.893	43.536	0	2009.90	0	1.9470	0	34.6850	4	27.734	0	1984.321	0	59.5	4	17.9	4	-1E+10	1	-1E+10	1	-1E+10	1	-1E+10	1	-1E+10	1	-1E+10	1
4901784	97	C	03/01/2018	10:43	-132.893	43.536	0	2015.30	0	1.9460	0	34.6860	4	27.735	0	1989.627	0	59.6	4	18.0	4	-1E+10	1	-1E+10	1	-1E+10	1	-1E+10	1	-1E+10	1	-1E+10	1
4901784	97	C	03/01/2018	10:43	-132.893	43.536	0	2020.20	0	1.9440	0	34.6860	4	27.735	0	1994.441	0	58.3	8	17.6	8	-1E+10	1	-1E+10	1	-1E+10	1	-1E+10	1	-1E+10	1	-1E+10	1
4901784	97	C	03/01/2018	10:43	-132.893	43.536	0																										
4901784	98	C	03/11/2018	10:49	-132.985	43.393	0	3.00	0	10.0250	0	32.8910	4	25.302	0	2.976	0	269.6	4	96.8	4	-1E+10	1	-1E+10	1	-1E+10	1	-1E+10	1	-1E+10	1	-1E+10	1
4901784	98	C	03/11/2018	10:49	-132.985	43.393	0	4.30	0	10.0250	0	32.8910	4	25.302	0	4.266	0	269.3	4	96.7	4	-1E+10	1	-1E+10	1	-1E+10	1	-1E+10	1	-1E+10	1	-1E+10	1
4901784	98	C	03/11/2018	10:49	-132.985	43.393	0	5.60	0	10.0260	0	32.8910	4	25.302	0	5.555	0	269.3	4	96.6	4	-1E+10	1	-1E+10	1	-1E+10	1	-1E+10	1	-1E+10	1	-1E+10	1
4901784	98	C	03/11/2018	10:49	-132.985	43.393	0	7.20	0	10.0240	0	32.8910	4	25.302	0	7.142	0	269.2	4	96.6	4	-1E+10	1	-1E+10	1	-1E+10	1	-1E+10	1	-1E+10	1	-1E+10	1
4901784	98	C	03/11/2018	10:49	-132.985	43.393	0	8.90	0	10.0230	0	32.8900	4	25.301	0	8.829	0	269.0	4	96.5	4	-1E+10	1	-1E+10	1	-1E+10	1	-1E+10	1	-1E+10	1	-1E+10	1
4901784	98	C	03/11/2018	10:49	-132.985	43.393	0	10.60	0	10.0140	0	32.8910	4	25.304	0	10.515	0	269.0	4	96.5	4	-1E+10	1	-1E+10	1	-1E+10	1	-1E+10	1	-1E+10	1	-1E+10	1
4901784	98	C	03/11/2018	10:49	-132.985	43.393	0	12.30	0	10.0130	0	32.8910	4	25.304	0	12.202	0	268.8	4	96.4	4	-1E+10	1	-1E+10	1	-1E+10	1	-1E+10	1	-1E+10	1	-1E+10	1
4901784	98	C	03/11/2018	10:49	-132.985	43.393	0	14.00	0	10.0110	0	32.8900	4	25.303	0	13.888	0	268.9	4	96.5	4	-1E+10	1	-1E+10	1	-1E+10	1	-1E+10	1	-1E+10	1	-1E+10	1
4901784	98	C	03/11/2018	10:49	-132.985	43.393	0	15.80	0	10.0050	0	32.8920	4	25.306	0	15.673	0	268.7	4	96.4	4	-1E+10	1	-1E+10	1	-1E+10	1	-1E+10	1	-1E+10	1	-1E+10	1
4901784	98	C	03/11/2018	10:49	-132.985	43.393	0	17.60	0	9.9950	0	32.8950	4	25.310	0	17.459	0	268.6	4	96.3	4	-1E+10	1	-1E+10	1	-1E+10	1	-1E+10	1	-1E+10	1	-1E+10	1
4901784	98	C	03/11/2018	10:49	-132.985	43.393	0	19.50	0	9.9940	0	32.8950	4	25.310	0	19.344	0	268.6	4	96.3	4	-1E+10	1	-1E+10	1	-1E+10	1	-1E+10	1	-1E+10	1	-1E+10	1
4901784	98	C	03/11/2018	10:49	-132.985	43.393	0	21.20	0	9.9920	0	32.8940	4	25.310	0	21.030	0	268.7	4	96.4	4	-1E+10	1	-1E+10	1	-1E+10	1	-1E+10	1	-1E+10	1	-1E+10	1
4901784	98	C	03/11/2018	10:49	-132.985	43.393	0	23.10	0	9.9910	0	32.8940	4	25.310	0	22.915	0	268.8	4	96.4	4	-1E+10	1	-1E+10	1	-1E+10	1	-1E+10	1	-1E+10	1	-1E+10	1
4901784	98	C	03/11/2018	10:49	-132.985	43.393	0	24.90	0	9.9930	0	32.8940	4	25.310	0	24.700	0	268.7	4	96.4	4	-1E+10	1	-1E+10	1	-1E+10	1	-1E+10	1	-1E+10	1	-1E+10	1
4901784	98	C	03/11/2018	10:49	-132.985	43.393	0	26.80	0	9.9930	0	32.8940	4	25.310	0	26.585	0	268.8	4	96.4	4	-1E+10	1	-1E+10	1	-1E+10	1	-1E+10	1	-1E+10	1	-1E+10	1
4901784	98	C	03/11/2018	10:49	-132.985	43.393	0	28.70	0	9.9940	0	32.8950	4	25.311	0	28.469	0	268.9	4	96.4	4	-1E+10	1	-1E+10	1	-1E+10	1	-1E+10	1	-1E+10	1	-1E+10	1
4901784	98	C	03/11/2018	10:49	-132.985	43.393	0	30.40	0	9.9940	0	32.8950	4	25.311	0	30.155	0	268.9	4	96.4	4	-1E+10	1	-1E+10	1	-1E+10	1	-1E+10	1	-1E+10	1	-1E+10	1
4901784	98	C	03/11/2018	10:49	-132.985	43.393	0	32.30	0	9.9950	0	32.8950	4	25.310	0	32.040	0	269.0	4	96.5	4	-1E+10	1	-1E+10	1	-1E+10	1	-1E+10	1	-1E+10	1	-1E+10	1
4901784	98	C	03/11/2018	10:49	-132.985	43.393	0	34.10	0	9.9940	0	32.8950	4	25.311	0	33.825	0	269.1	4	96.5	4	-1E+10	1	-1E+10	1	-1E+10	1	-1E+10	1	-1E+10	1	-1E+10	1
4901784	98	C	03/11/2018	10:49	-132.985	43.393	0	35.90	0	9.9980	0	32.8960	4	25.311	0	35.611	0	269.2	4	96.5	4	-1E+10	1	-1E+10	1	-1E+10	1	-1E+10	1	-1E+10	1	-1E+10	1
4901784	98	C	03/11/2018	10:49	-132.985	43.393	0	37.70	0	9.9980	0	32.8960	4	25.311	0	37.396	0	269.1	4	96.5	4	-1E+10	1	-1E+10	1	-1E+10	1	-1E+10	1	-1E+10	1	-1E+10	1
4901784	98	C	03/11/2018	10:49	-132.985	43.393	0	39.50	0	10.0010	0	32.8970	4	25.311	0	39.181	0	269.3	4	96.6	4	-1E+10	1	-1E+10	1	-1E+10	1	-1E+10	1	-1E+10	1	-1E+10	1
4901784	98	C	03/11/2018	10:49	-132.985	43.393	0	41.40	0	10.0030	0	32.8960	4	25.310	0	41.066	0	269.3	4	96.6	4	-1E+10	1	-1E+10	1	-1E+10	1	-1E+10	1	-1E+10	1	-1E+10	1
4901784	98	C	03/11/2018	10:49	-132.985	43.393	0	43.10	0	10.0020	0	32.8970	4	25.311	0	42.752	0	269.3	4	96.6	4	-1E+10	1	-1E+10	1	-1E+10	1	-1E+10	1	-1E+10	1	-1E+10	1
4901784	98	C	03/11/2018	10:49	-132.985	43.393	0	45.00	0	10.0040	0	32.8970	4	25.311	0	44.636	0	269.5	4	96.7	4	-1E+10	1	-1E+10	1	-1E+10	1	-1E+10	1	-1E+10	1	-1E+10	1
4901784	98	C	03/11/2018	10:49	-132.985	43.393	0	46.80	0	10.0050	0	32.8980	4	25.311	0	46.422	0	269.5	4	96.7	4	-1E+10	1	-1E+10	1	-1E+10	1	-1E+10	1	-1E+10	1	-1E+10	1
4901784	98	C	03/11/2018	10:49	-132.985	43.393	0	48.60	0	10.0060	0	32.8990	4	25.312	0	48.207	0	269.4	4	96.7	4	-1E+10	1	-1E+10	1	-1E+10	1	-1E+10	1	-1E+10	1	-1E+10	1
4901784	98	C	03/11/2018	10:49	-132.985	43.393	0	50.40	0	10.0040	0	32.8980	4	25.312	0	49.992	0	269.5	4	96.7	4	-1E+10	1	-1E+10	1	-1E+10	1	-1E+10	1	-1E+10	1	-1E+10	1
4901784	98	C	03/11/2018	10:49	-132.985	43.393	0	52.20	0	10.0150	0	32.9010	4	25.312	0	51.777	0	269.5	4	96.7	4	-1E+10	1	-1E+10	1	-1E+10	1	-1E+10	1	-1E+10	1	-1E+10	1
4901784	98	C	03/11/2018	10:49	-132.985	43.393	0	54.00	0	10.0190	0	32.9020	4	25.312	0	53.563	0	269.4	4	96.7	4	-1E+10	1	-1E+10	1	-1E+10	1	-1E+10	1	-1E+10	1	-1E+10	1
4901784	98	C	03/11/2018	10:49	-132.985	43.393	0	55.80	0	10.0180	0	32.9030	4	25.313	0	55.348	0	269.2	4	96.6	4	-1E+10	1	-1E+10	1	-1E+10	1	-1E+10	1	-1E+10	1	-1E+10	1
4901784	98	C	03/11/2018	10:49	-132.985	43.393	0	57.60	0	10.0160	0	32.9030	4	25.314	0	57.133	0	269.1	4	96.6	4	-1E+10	1	-1E+10	1	-1E+10	1	-1E+10	1	-1E+10	1	-1E+10	1
4901784	98	C	03/11/2018	10:49	-132.985	43.393	0	59.40	0	10.0160	0	32.9020	4	25.313	0	58.918	0	269.0	4	96.5	4	-1E+10	1	-1E+10	1	-1E+10	1	-1E+10	1	-1E+10	1	-1E+10	1
4901784	98	C	03/11/2018	10:49	-132.985	43.393	0	61.20	0	10.0160	0	32.9020	4	25.313	0	60.703	0	268.8	4	96.4	4	-1E+10	1	-1E+10	1	-1E+10	1	-1E+10	1	-1E+10	1	-1E+10	1
4901784	98	C	03/11/2018	10:49	-132.985	43.393	0	63.00	0	10.0150	0	32.9030	4	25.314	0	62.488	0	268.8	4	96.5	4	-1E+10	1	-1E+10	1	-1E+10	1	-1E+10	1	-1E+10	1	-1E+10	1
4901784	98	C	03/11/2018	10:49	-132.985	43.393	0	64.80	0	10.0150	0	32.9020	4	25.313	0	64.273	0	268.6	4	96.4	4	-1E+10	1	-1E+10	1	-1E+10	1	-1E+10	1	-1E+10	1	-1E+10	1
4901784	98	C	03/11/2018	10:49	-132.985	43.393	0	66.60	0	10.0140	0	32.9020	4	25.313	0	66.059	0	268.5	4	96.3	4	-1E+10	1	-1E+10	1	-1E+10	1	-1E+10	1	-1E+10	1	-1E+10	1
4901784	98	C	03/11/2018	10:49	-132.985	43.393	0	68.40	0	10.0150	0	32.9020	4	25.313	0	67.844	0	268.3	4	96.3	4	-1E+10	1	-1E+10	1	-1E+10	1	-1E+10	1	-1E+10	1	-1E+10	1
4901784	98	C	03/11/2018	10:49	-132.985	43.393	0	70.20	0	10.0150	0	32.9020	4	25.313	0	69.629	0	268.1	4	96.2	4	-1E+10	1	-1E+10	1	-1E+10	1	-1E+10	1	-1E+10	1	-1E+10	1
4901784	98	C	03/11/2018	10:49	-132.985	43.393	0	72.10	0	10.0130	0	32.9020	4	25.314	0	71.513	0	268.1	4	96.2	4	-1E+10	1	-1E+10	1	-1E+10	1	-1E+10	1	-1E+10	1	-1E+10	1
4901784	98	C	03/11/2018	10:49	-132.985	43.393	0	73.90	0	10.0120	0	32.9020	4	25.314	0	73.298	0	267.9	4	96.1	4	-1E+10	1	-1E+10	1	-1E+10	1	-1E+10	1	-1E+10	1	-1E+10	1
4901784	98	C	03/11/2018	10:49	-132.985	43.393	0	75.70	0	10.0110	0	32.9020	4	25.314	0	75.083	0	267.6	4	96.0	4	-1E+10	1	-1E+10	1	-1E+10	1	-1E+10	1	-1E+10	1	-1E+10	1
4901784	98	C	03/11/2018	10:49	-132.985	43.393	0	77.50	0	10.0090	0	32.9010	4	25.314	0	76.868	0	267.6	4	96.0	4	-1E+10	1	-1E+10	1	-1E+10	1	-1E+10	1	-1E+10	1	-1E+10	1
4901784	98	C	03/11/2018	10:49	-132.985	43.393	0	79.30	0	10.0050	0	32.9010	4	25.314	0	78.653	0	267.2	4	95.8	4	-1E+10	1	-1E+10	1	-1E+10	1	-1E+10	1	-1E+10	1	-1E+10	1
4901784	98	C	03/11/2018	10:49	-132.985	43.393	0	81.20	0	10.0050	0	32.9010	4	25.314	0	80.537	0	267.0	4	95.8	4	-1E+10	1	-1E+10	1	-1E+10	1	-1E+10	1	-1E+10	1	-1E+10	1
4901784	98	C	03/11/2018	10:49	-132.985	43.393	0	83.00	0	10.0000	0	32.9000	4	25.314	0	82.322	0	267.0	4	95.8	4	-1E+10	1	-1E+10	1	-1E+10	1	-1E+10	1	-1E+10	1	-1E+10	1
4901784	98	C	03/11/2018	10:49	-132.985	43.393	0	84.90	0	9.9990	0	32.9000	4	25.315	0	84.206	0	266.3	4	95.5	4	-1E+10	1	-1E+10	1	-1E+10	1	-1E+10	1	-1E+10	1	-1E+10	1
4901784	98	C	03/11/2018	10:49	-132.985	43.393	0	86.70	0	9.9980	0	32.8990	4	25.314	0	85.991	0	266.2	4	95.5	4	-1E+10	1	-1E+10	1	-1E+10	1	-1E+10	1	-1E+10	1	-1E+10	1
4901784	98	C	03/11/2018	10:49	-132.985	43.393	0	88.50	0	9.9940	0	32.8990	4	25.315	0	87.776	0	265.7	4	95.3	4	-1E+10	1	-1E+10	1	-1E+10	1	-1E+10	1	-1E+10	1	-1E+10	1
4901784	98	C	03/11/2018	10:49	-132.985	43.393	0	90.90	0	9.9880	0	32.8970	4	25.314	0	90.156	0	265.1	4	95.1	4	-1E+10	1	-1E+10	1	-1E+10	1	-1E+10	1	-1E+10	1	-1E+10	1
4901784	98	C	03/11/2018	10:49	-132.985	43.393	0	92.80	0	9.9870	0	32.8960	4	25.314	0	92.040	0	264.2	4	94.7	4	-1E+10	1	-1E+10	1	-1E+10	1	-1E+10	1	-1E+10	1	-1E+10	1
4901784	98	C	03/11/2018	10:49	-132.985	43.393	0	94.30	0	9.9840	0	32.8940	4	25.313	0	93.527	0	263.3	4	94.4	4	-1E+10	1	-1E+10	1	-1E+10	1	-1E+10	1	-1E+10	1	-1E+10	1
4901784	98	C	03/11/2018	10:49	-132.985	43.393	0	95.70	0	9.9800	0	32.8930	4	25.313	0	94.915	0	262.2	4	94.0	4	-1E+10	1	-1E+10	1	-1E+10	1	-1E+10	1	-1E+10	1	-1E+10	1
4901784	98	C	03/11/2018	10:49	-132.985	43.393	0	97.10	0	9.9730	0	32.8880	4	25.310	0	96.303	0	261.0	4	93.6	4	-1E+10	1	-1E+10	1	-1E+10	1	-1E+10	1	-1E+10	1	-1E+10	1
4901784	98	C	03/11/2018	10:49	-132.985	43.393	0	98.60	0	9.9310	0	32.8900	4	25.318	0	97.791	0	259.1	4	92.8	4	-1E+10	1	-1E+10	1	-1E+10	1	-1E+10	1	-1E+10	1	-1E+10	1
4901784	98	C	03/11/2018	10:49	-132.985	43.393	0	100.10	0	9.8270	0	32.8920	4	25.337	0	99.278	0	257.4	4	92.0	4	-1E+10	1	-1E+10	1	-1E+10	1	-1E+10	1	-1E+10	1	-1E+10	1
4901784	98	C	03/11/2018	10:49	-132.985	43.393	0	102.30	0	9.4870	0	32.9280	4	25.421	0	101.459	0	255.1	4	90.5	4	-1E+10	1	-1E+10	1	-1E+10	1	-1E+10	1	-1E+10	1	-1E+10	1
4901784	98	C	03/11/2018	10:49	-132.985	43.393	0	104.80	0	9.1320	0	32.9650	4	25.506	0	103.938	0	253.1	4	89.1	4	-1E+10	1	-1E+10	1	-1E+10	1	-1E+10	1	-1E+10	1	-1E+10	1
4901784	98	C	03/11/2018	10:49	-132.985	43.393	0	107.40	0	8.4600	0	33.0360	4	25.665	0	106.516	0	254.4	4	88.3	4	-1E+10	1	-1E+10	1	-1E+10	1	-1E+10	1	-1E+10	1	-1E+10	1
4901784	98	C	03/11/2018	10:49	-132.985	43.393	0	110.00	0	8.2070	0	33.0570	4	25.720	0	109.094	0	255.2	4	88.1	4	-1E+10	1	-1E+10	1	-1E+10	1	-1E+10	1	-1E+10	1	-1E+10	1
4901784	98	C	03/11/2018	10:49	-132.985	43.393	0	112.70	0	8.0030	0	33.0730	4	25.762	0	111.771	0	255.5	4	87.8	4	-1E+10	1	-1E+10	1	-1E+10	1	-1E+10	1	-1E+10	1	-1E+10	1
4901784	98	C	03/11/2018	10:49	-132.985	43.393	0	115.40	0	7.9490	0	33.0790	4	25.775	0	114.448	0	255.2	4	87.6	4	-1E+10	1	-1E+10	1	-1E+10	1	-1E+10	1	-1E+10	1	-1E+10	1
4901784	98	C	03/11/2018	10:49	-132.985	43.393	0	117.30	0	7.9330	0	33.0850	4	25.782	0	116.332	0	254.9	4	87.5	4	-1E+10	1	-1E+10	1	-1E+10	1	-1E+10	1	-1E+10	1	-1E+10	1
4901784	98	C	03/11/2018	10:49	-132.985	43.393	0	120.00	0	7.9790	0	33.1060	4	25.792	0	119.009	0	253.5	4	87.1	4	-1E+10	1	-1E+10	1	-1E+10	1	-1E+10	1	-1E+10	1	-1E+10	1
4901784	98	C	03/11/2018	10:49	-132.985	43.393	0	122.70	0	7.9920	0	33.1180	4	25.799	0	121.686	0	252.4	4	86.8	4	-1E+10	1	-1E+10	1	-1E+10	1	-1E+10	1	-1E+10	1	-1E+10	1
4901784	98	C	03/11/2018	10:49	-132.985	43.393	0	124.50	0	8.0180	0	33.1300	4	25.805	0	123.470	0	251.4	4	86.5	4	-1E+10	1	-1E+10	1	-1E+10	1	-1E+10	1	-1E+10	1	-1E+10	1
4901784	98	C	03/11/2018	10:49	-132.985	43.393	0	127.20	0	7.9910	0	33.1340	4	25.812	0	126.147	0	250.2	4	86.0	4	-1E+10	1	-1E+10	1	-1E+10	1	-1E+10	1	-1E+10	1	-1E+10	1
4901784	98	C	03/11/2018	10:49	-132.985	43.393	0	129.90	0	7.9730	0	33.1470	4	25.825	0	128.824	0	248.5	4	85.4	4	-1E+10	1	-1E+10	1	-1E+10	1	-1E+10	1	-1E+10	1	-1E+10	1
4901784	98	C	03/11/2018	10:49	-132.985	43.393	0	132.30	0	8.0080	0	33.1820	4	25.847	0	131.203	0	246.6	4	84.8	4	-1E+10	1	-1E+10	1	-1E+10	1	-1E+10	1	-1E+10	1	-1E+10	1
4901784	98	C	03/11/2018	10:49	-132.985	43.393	0	135.00	0	8.0340	0	33.2090	4	25.865	0	133.880	0	244.2	4	84.1	4	-1E+10	1	-1E+10	1	-1E+10	1	-1E+10	1	-1E+10	1	-1E+10	1
4901784	98	C	03/11/2018	10:49	-132.985	43.393	0	137.20	0	8.0520	0	33.2330	4	25.881	0	136.061	0	241.6	4	83.2	4	-1E+10	1	-1E+10	1	-1E+10	1	-1E+10	1	-1E+10	1	-1E+10	1
4901784	98	C	03/11/2018	10:49	-132.985	43.393	0	139.50	0	8.0770	0	33.2590	4	25.898	0	138.341	0	238.5	4	82.2	4	-1E+10	1	-1E+10	1	-1E+10	1	-1E+10	1	-1E+10	1	-1E+10	1
4901784	98	C	03/11/2018	10:49	-132.985	43.393	0	142.60	0	8.1290	0	33.3360	4	25.951	0	141.415	0	233.2	4	80.5	4	-1E+10	1	-1E+10	1	-1E+10	1	-1E+10	1	-1E+10	1	-1E+10	1
4901784	98	C	03/11/2018	10:49	-132.985	43.393	0	145.00	0	8.1560	0	33.4000	4	25.997	0	143.794	0	229.4	4	79.3	4	-1E+10	1	-1E+10	1	-1E+10	1	-1E+10	1	-1E+10	1	-1E+10	1
4901784	98	C	03/11/2018	10:49	-132.985	43.393	0	147.60	0	8.1950	0	33.4450	4	26.026	0	146.371	0	225.5	4	78.0	4	-1E+10	1	-1E+10	1	-1E+10	1	-1E+10	1	-1E+10	1	-1E+10	1
4901784	98	C	03/11/2018	10:49	-132.985	43.393	0	150.20	0	8.2450	0	33.4990	4	26.061	0	148.949	0	221.5	4	76.8	4	-1E+10	1	-1E+10	1	-1E+10	1	-1E+10	1	-1E+10	1	-1E+10	1
4901784	98	C	03/11/2018	10:49	-132.985	43.393	0	152.80	0	8.3090	0	33.5770	4	26.113	0	151.526	0	217.9	4	75.7	4	-1E+10	1	-1E+10	1	-1E+10	1	-1E+10	1	-1E+10	1	-1E+10	1
4901784	98	C	03/11/2018	10:49	-132.985	43.393	0	155.40	0	8.3290	0	33.6040	4	26.131	0	154.103	0	214.7	4	74.6	4	-1E+10	1	-1E+10	1	-1E+10	1	-1E+10	1	-1E+10	1	-1E+10	1
4901784	98	C	03/11/2018	10:49	-132.985	43.393	0	157.10	0	8.3450	0	33.6270	4	26.147	0	155.789	0	212.2	4	73.8	4	-1E+10	1	-1E+10	1	-1E+10	1	-1E+10	1	-1E+10	1	-1E+10	1
4901784	98	C	03/11/2018	10:49	-132.985	43.393	0	159.70	0	8.4130	0	33.7060	4	26.199	0	158.366	0	208.7	4	72.7	4	-1E+10	1	-1E+10	1	-1E+10	1	-1E+10	1	-1E+10	1	-1E+10	1
4901784	98	C	03/11/2018	10:49	-132.985	43.393	0	162.30	0	8.4440	0	33.7450	4	26.225	0	160.943	0	206.5	4	72.0	4	-1E+10	1	-1E+10	1	-1E+10	1	-1E+10	1	-1E+10	1	-1E+10	1
4901784	98	C	03/11/2018	10:49	-132.985	43.393	0	165.00	0	8.4690	0	33.7880	4	26.255	0	163.619	0	204.1	4	71.3	4	-1E+10	1	-1E+10	1	-1E+10	1	-1E+10	1	-1E+10	1	-1E+10	1
4901784	98	C	03/11/2018	10:49	-132.985	43.393	0	167.80	0	8.4880	0	33.8120	4	26.270	0	166.395	0	201.3	4	70.3	4	-1E+10	1	-1E+10	1	-1E+10	1	-1E+10	1	-1E+10	1	-1E+10	1
4901784	98	C	03/11/2018	10:49	-132.985	43.393	0	169.60	0	8.5120	0	33.8330	4	26.283	0	168.179	0	198.9	4	69.5	4	-1E+10	1	-1E+10	1	-1E+10	1	-1E+10	1	-1E+10	1	-1E+10	1
4901784	98	C	03/11/2018	10:49	-132.985	43.393	0	172.30	0	8.5430	0	33.8680	4	26.306	0	170.855	0	196.0	4	68.6	4	-1E+10	1	-1E+10	1	-1E+10	1	-1E+10	1	-1E+10	1	-1E+10	1
4901784	98	C	03/11/2018	10:49	-132.985	43.393	0	175.00	0	8.5920	0	33.9420	4	26.357	0	173.532	0	192.9	4	67.6	4	-1E+10	1	-1E+10	1	-1E+10	1	-1E+10	1	-1E+10	1	-1E+10	1
4901784	98	C	03/11/2018	10:49	-132.985	43.393	0	177.70	0	8.6040	0	33.9640	4	26.372	0	176.208	0	191.7	4	67.2	4	-1E+10	1	-1E+10	1	-1E+10	1	-1E+10	1	-1E+10	1	-1E+10	1
4901784	98	C	03/11/2018	10:49	-132.985	43.393	0	180.50	0	8.6130	0	33.9830	4	26.386	0	178.983	0	190.6	4	66.9	4	-1E+10	1	-1E+10	1	-1E+10	1	-1E+10	1	-1E+10	1	-1E+10	1
4901784	98	C	03/11/2018	10:49	-132.985	43.393	0	182.40	0	8.6140	0	33.9870	4	26.389	0	180.866	0	190.0	4	66.6	4	-1E+10	1	-1E+10	1	-1E+10	1	-1E+10	1	-1E+10	1	-1E+10	1
4901784	98	C	03/11/2018	10:49	-132.985	43.393	0	184.40	0	8.6190	0	34.0070	4	26.404	0	182.849	0	189.5	4	66.5	4	-1E+10	1	-1E+10	1	-1E+10	1	-1E+10	1	-1E+10	1	-1E+10	1
4901784	98	C	03/11/2018	10:49	-132.985	43.393	0	187.30	0	8.6210	0	34.0210	4	26.414	0	185.723	0	188.8	4	66.2	4	-1E+10	1	-1E+10	1	-1E+10	1	-1E+10	1	-1E+10	1	-1E+10	1
4901784	98	C	03/11/2018	10:49	-132.985	43.393	0	190.20	0	8.6210	0	34.0260	4	26.418	0	188.597	0	188.3	4	66.1	4	-1E+10	1	-1E+10	1	-1E+10	1	-1E+10	1	-1E+10	1	-1E+10	1
4901784	98	C	03/11/2018	10:49	-132.985	43.393	0	192.20	0	8.6140	0	34.0400	4	26.430	0	190.579	0	187.9	4	65.9	4	-1E+10	1	-1E+10	1	-1E+10	1	-1E+10	1	-1E+10	1	-1E+10	1
4901784	98	C	03/11/2018	10:49	-132.985	43.393	0	194.10	0	8.6120	0	34.0450	4	26.435	0	192.462	0	187.5	4	65.8	4	-1E+10	1	-1E+10	1	-1E+10	1	-1E+10	1	-1E+10	1	-1E+10	1
4901784	98	C	03/11/2018	10:49	-132.985	43.393	0	197.30	0	8.6100	0	34.0500	4	26.439	0	195.634	0	187.0	4	65.6	4	-1E+10	1	-1E+10	1	-1E+10	1	-1E+10	1	-1E+10	1	-1E+10	1
4901784	98	C	03/11/2018	10:49	-132.985	43.393	0	200.20	0	8.6080	0	34.0580	4	26.445	0	198.508	0	186.2	4	65.3	4	-1E+10	1	-1E+10	1	-1E+10	1	-1E+10	1	-1E+10	1	-1E+10	1
4901784	98	C	03/11/2018	10:49	-132.985	43.393	0	202.70	0	8.5900	0	34.0630	4	26.452	0	200.986	0	185.4	4	65.0	4	-1E+10	1	-1E+10	1	-1E+10	1	-1E+10	1	-1E+10	1	-1E+10	1
4901784	98	C	03/11/2018	10:49	-132.985	43.393	0	205.10	0	8.5900	0	34.0700	4	26.458	0	203.364	0	184.7	4	64.8	4	-1E+10	1	-1E+10	1	-1E+10	1	-1E+10	1	-1E+10	1	-1E+10	1
4901784	98	C	03/11/2018	10:49	-132.985	43.393	0	207.60	0	8.5840	0	34.0760	4	26.463	0	205.842	0	183.3	4	64.3	4	-1E+10	1	-1E+10	1	-1E+10	1	-1E+10	1	-1E+10	1	-1E+10	1
4901784	98	C	03/11/2018	10:49	-132.985	43.393	0	210.10	0	8.5320	0	34.0820	4	26.476	0	208.319	0	182.0	4	63.7	4	-1E+10	1	-1E+10	1	-1E+10	1	-1E+10	1	-1E+10	1	-1E+10	1
4901784	98	C	03/11/2018	10:49	-132.985	43.393	0	212.60	0	8.4860	0	34.0820	4	26.483	0	210.797	0	180.6	4	63.2	4	-1E+10	1	-1E+10	1	-1E+10	1	-1E+10	1	-1E+10	1	-1E+10	1
4901784	98	C	03/11/2018	10:49	-132.985	43.393	0	215.20	0	8.4370	0	34.0800	4	26.489	0	213.374	0	179.4	4	62.7	4	-1E+10	1	-1E+10	1	-1E+10	1	-1E+10	1	-1E+10	1	-1E+10	1
4901784	98	C	03/11/2018	10:49	-132.985	43.393	0	217.70	0	8.3890	0	34.0780	4	26.495	0	215.851	0	178.2	4	62.2	4	-1E+10	1	-1E+10	1	-1E+10	1	-1E+10	1	-1E+10	1	-1E+10	1
4901784	98	C	03/11/2018	10:49	-132.985	43.393	0	220.20	0	8.3280	0	34.0760	4	26.503	0	218.329	0	177.1	4	61.8	4	-1E+10	1	-1E+10	1	-1E+10	1	-1E+10	1	-1E+10	1	-1E+10	1
4901784	98	C	03/11/2018	10:49	-132.985	43.393	0	222.80	0	8.2970	0	34.0750	4	26.507	0	220.905	0	176.1	4	61.4	4	-1E+10	1	-1E+10	1	-1E+10	1	-1E+10	1	-1E+10	1	-1E+10	1
4901784	98	C	03/11/2018	10:49	-132.985	43.393	0	225.30	0	8.2740	0	34.0740	4	26.509	0	223.382	0	174.8	4	60.9	4	-1E+10	1	-1E+10	1	-1E+10	1	-1E+10	1	-1E+10	1	-1E+10	1
4901784	98	C	03/11/2018	10:49	-132.985	43.393	0	227.90	0	8.2170	0	34.0710	4	26.516	0	225.959	0	173.6	4	60.4	4	-1E+10	1	-1E+10	1	-1E+10	1	-1E+10	1	-1E+10	1	-1E+10	1
4901784	98	C	03/11/2018	10:49	-132.985	43.393	0	230.40	0	8.1790	0	34.0690	4	26.520	0	228.436	0	172.5	4	60.0	4	-1E+10	1	-1E+10	1	-1E+10	1	-1E+10	1	-1E+10	1	-1E+10	1
4901784	98	C	03/11/2018	10:49	-132.985	43.393	0	232.10	0	8.1530	0	34.0670	4	26.522	0	230.121	0	171.7	4	59.7	4	-1E+10	1	-1E+10	1	-1E+10	1	-1E+10	1	-1E+10	1	-1E+10	1
4901784	98	C	03/11/2018	10:49	-132.985	43.393	0	234.70	0	8.1110	0	34.0700	4	26.531	0	232.697	0	170.5	4	59.2	4	-1E+10	1	-1E+10	1	-1E+10	1	-1E+10	1	-1E+10	1	-1E+10	1
4901784	98	C	03/11/2018	10:49	-132.985	43.393	0	237.30	0	8.0670	0	34.0680	4	26.536	0	235.273	0	169.1	4	58.6	4	-1E+10	1	-1E+10	1	-1E+10	1	-1E+10	1	-1E+10	1	-1E+10	1
4901784	98	C	03/11/2018	10:49	-132.985	43.393	0	239.80	0	8.0030	0	34.0670	4	26.544	0	237.751	0	167.7	4	58.1	4	-1E+10	1	-1E+10	1	-1E+10	1	-1E+10	1	-1E+10	1	-1E+10	1
4901784	98	C	03/11/2018	10:49	-132.985	43.393	0	242.30	0	7.9480	0	34.0660	4	26.552	0	240.228	0	166.6	4	57.6	4	-1E+10	1	-1E+10	1	-1E+10	1	-1E+10	1	-1E+10	1	-1E+10	1
4901784	98	C	03/11/2018	10:49	-132.985	43.393	0	244.90	0	7.9330	0	34.0650	4	26.553	0	242.804	0	165.3	4	57.1	4	-1E+10	1	-1E+10	1	-1E+10	1	-1E+10	1	-1E+10	1	-1E+10	1
4901784	98	C	03/11/2018	10:49	-132.985	43.393	0	247.40	0	7.8910	0	34.0630	4	26.558	0	245.281	0	163.9	4	56.6	4	-1E+10	1	-1E+10	1	-1E+10	1	-1E+10	1	-1E+10	1	-1E+10	1
4901784	98	C	03/11/2018	10:49	-132.985	43.393	0	250.00	0	7.8480	0	34.0610	4	26.563	0	247.857	0	162.2	4	56.0	4	-1E+10	1	-1E+10	1	-1E+10	1	-1E+10	1	-1E+10	1	-1E+10	1
4901784	98	C	03/11/2018	10:49	-132.985	43.393	0	252.60	0	7.7900	0	34.0570	4	26.568	0	250.434	0	160.7	4	55.4	4	-1E+10	1	-1E+10	1	-1E+10	1	-1E+10	1	-1E+10	1	-1E+10	1
4901784	98	C	03/11/2018	10:49	-132.985	43.393	0	255.20	0	7.7270	0	34.0570	4	26.577	0	253.010	0	159.6	4	54.9	4	-1E+10	1	-1E+10	1	-1E+10	1	-1E+10	1	-1E+10	1	-1E+10	1
4901784	98	C	03/11/2018	10:49	-132.985	43.393	0	257.70	0	7.6920	0	34.0580	4	26.583	0	255.487	0	158.7	4	54.6	4	-1E+10	1	-1E+10	1	-1E+10	1	-1E+10	1	-1E+10	1	-1E+10	1
4901784	98	C	03/11/2018	10:49	-132.985	43.393	0	260.30	0	7.6770	0	34.0570	4	26.584	0	258.063	0	157.4	4	54.1	4	-1E+10	1	-1E+10	1	-1E+10	1	-1E+10	1	-1E+10	1	-1E+10	1
4901784	98	C	03/11/2018	10:49	-132.985	43.393	0	262.80	0	7.6210	0	34.0570	4	26.593	0	260.540	0	155.8	4	53.5	4	-1E+10	1	-1E+10	1	-1E+10	1	-1E+10	1	-1E+10	1	-1E+10	1
4901784	98	C	03/11/2018	10:49	-132.985	43.393	0	265.40	0	7.5750	0	34.0550	4	26.598	0	263.116	0	154.6	4	53.0	4	-1E+10	1	-1E+10	1	-1E+10	1	-1E+10	1	-1E+10	1	-1E+10	1
4901784	98	C	03/11/2018	10:49	-132.985	43.393	0	267.90	0	7.5490	0	34.0510	4	26.598	0	265.592	0	153.3	4	52.5	4	-1E+10	1	-1E+10	1	-1E+10	1	-1E+10	1	-1E+10	1	-1E+10	1
4901784	98	C	03/11/2018	10:49	-132.985	43.393	0	270.40	0	7.5280	0	34.0490	4	26.600	0	268.069	0	151.6	4	51.9	4	-1E+10	1	-1E+10	1	-1E+10	1	-1E+10	1	-1E+10	1	-1E+10	1
4901784	98	C	03/11/2018	10:49	-132.985	43.393	0	272.90	0	7.4570	0	34.0500	4	26.611	0	270.546	0	149.6	4	51.2	4	-1E+10	1	-1E+10	1	-1E+10	1	-1E+10	1	-1E+10	1	-1E+10	1
4901784	98	C	03/11/2018	10:49	-132.985	43.393	0	275.40	0	7.4010	0	34.0490	4	26.618	0	273.023	0	147.8	4	50.5	4	-1E+10	1	-1E+10	1	-1E+10	1	-1E+10	1	-1E+10	1	-1E+10	1
4901784	98	C	03/11/2018	10:49	-132.985	43.393	0	278.00	0	7.3390	0	34.0480	4	26.626	0	275.599	0	146.2	4	49.9	4	-1E+10	1	-1E+10	1	-1E+10	1	-1E+10	1	-1E+10	1	-1E+10	1
4901784	98	C	03/11/2018	10:49	-132.985	43.393	0	279.60	0	7.3020	0	34.0450	4	26.629	0	277.184	0	145.2	4	49.5	4	-1E+10	1	-1E+10	1	-1E+10	1	-1E+10	1	-1E+10	1	-1E+10	1
4901784	98	C	03/11/2018	10:49	-132.985	43.393	0	282.10	0	7.2480	0	34.0420	4	26.634	0	279.661	0	143.7	4	48.9	4	-1E+10	1	-1E+10	1	-1E+10	1	-1E+10	1	-1E+10	1	-1E+10	1
4901784	98	C	03/11/2018	10:49	-132.985	43.393	0	284.60	0	7.1750	0	34.0400	4	26.642	0	282.137	0	142.3	4	48.4	4	-1E+10	1	-1E+10	1	-1E+10	1	-1E+10	1	-1E+10	1	-1E+10	1
4901784	98	C	03/11/2018	10:49	-132.985	43.393	0	287.20	0	7.1310	0	34.0380	4	26.647	0	284.713	0	141.0	4	47.9	4	-1E+10	1	-1E+10	1	-1E+10	1	-1E+10	1	-1E+10	1	-1E+10	1
4901784	98	C	03/11/2018	10:49	-132.985	43.393	0	289.70	0	7.0860	0	34.0370	4	26.652	0	287.190	0	139.8	4	47.4	4	-1E+10	1	-1E+10	1	-1E+10	1	-1E+10	1	-1E+10	1	-1E+10	1
4901784	98	C	03/11/2018	10:49	-132.985	43.393	0	292.30	0	7.0310	0	34.0380	4	26.661	0	289.765	0	138.5	4	46.9	4	-1E+10	1	-1E+10	1	-1E+10	1	-1E+10	1	-1E+10	1	-1E+10	1
4901784	98	C	03/11/2018	10:49	-132.985	43.393	0	294.90	0	7.0090	0	34.0370	4	26.663	0	292.341	0	137.4	4	46.5	4	-1E+10	1	-1E+10	1	-1E+10	1	-1E+10	1	-1E+10	1	-1E+10	1
4901784	98	C	03/11/2018	10:49	-132.985	43.393	0	297.50	0	6.9560	0	34.0380	4	26.671	0	294.916	0	136.1	4	46.0	4	-1E+10	1	-1E+10	1	-1E+10	1	-1E+10	1	-1E+10	1	-1E+10	1
4901784	98	C	03/11/2018	10:49	-132.985	43.393	0	300.00	0	6.8920	0	34.0350	4	26.677	0	297.393	0	135.1	4	45.6	4	-1E+10	1	-1E+10	1	-1E+10	1	-1E+10	1	-1E+10	1	-1E+10	1
4901784	98	C	03/11/2018	10:49	-132.985	43.393	0	302.60	0	6.8690	0	34.0350	4	26.680	0	299.968	0	134.3	4	45.3	4	-1E+10	1	-1E+10	1	-1E+10	1	-1E+10	1	-1E+10	1	-1E+10	1
4901784	98	C	03/11/2018	10:49	-132.985	43.393	0	305.10	0	6.8400	0	34.0350	4	26.684	0	302.445	0	133.2	4	44.9	4	-1E+10	1	-1E+10	1	-1E+10	1	-1E+10	1	-1E+10	1	-1E+10	1
4901784	98	C	03/11/2018	10:49	-132.985	43.393	0	307.70	0	6.7980	0	34.0340	4	26.689	0	305.020	0	132.4	4	44.6	4	-1E+10	1	-1E+10	1	-1E+10	1	-1E+10	1	-1E+10	1	-1E+10	1
4901784	98	C	03/11/2018	10:49	-132.985	43.393	0	310.30	0	6.7790	0	34.0330	4	26.691	0	307.596	0	131.5	4	44.3	4	-1E+10	1	-1E+10	1	-1E+10	1	-1E+10	1	-1E+10	1	-1E+10	1
4901784	98	C	03/11/2018	10:49	-132.985	43.393	0	312.80	0	6.7510	0	34.0330	4	26.695	0	310.072	0	130.5	4	43.9	4	-1E+10	1	-1E+10	1	-1E+10	1	-1E+10	1	-1E+10	1	-1E+10	1
4901784	98	C	03/11/2018	10:49	-132.985	43.393	0	315.40	0	6.7000	0	34.0280	4	26.698	0	312.648	0	129.3	4	43.5	4	-1E+10	1	-1E+10	1	-1E+10	1	-1E+10	1	-1E+10	1	-1E+10	1
4901784	98	C	03/11/2018	10:49	-132.985	43.393	0	317.10	0	6.6660	0	34.0240	4	26.699	0	314.331	0	128.6	4	43.2	4	-1E+10	1	-1E+10	1	-1E+10	1	-1E+10	1	-1E+10	1	-1E+10	1
4901784	98	C	03/11/2018	10:49	-132.985	43.393	0	319.70	0	6.6210	0	34.0240	4	26.705	0	316.907	0	127.2	4	42.7	4	-1E+10	1	-1E+10	1	-1E+10	1	-1E+10	1	-1E+10	1	-1E+10	1
4901784	98	C	03/11/2018	10:49	-132.985	43.393	0	322.30	0	6.5420	0	34.0240	4	26.716	0	319.482	0	125.9	4	42.2	4	-1E+10	1	-1E+10	1	-1E+10	1	-1E+10	1	-1E+10	1	-1E+10	1
4901784	98	C	03/11/2018	10:49	-132.985	43.393	0	325.00	0	6.5140	0	34.0210	4	26.717	0	322.156	0	124.7	4	41.7	4	-1E+10	1	-1E+10	1	-1E+10	1	-1E+10	1	-1E+10	1	-1E+10	1
4901784	98	C	03/11/2018	10:49	-132.985	43.393	0	327.60	0	6.4680	0	34.0210	4	26.723	0	324.732	0	123.6	4	41.3	4	-1E+10	1	-1E+10	1	-1E+10	1	-1E+10	1	-1E+10	1	-1E+10	1
4901784	98	C	03/11/2018	10:49	-132.985	43.393	0	330.30	0	6.4390	0	34.0200	4	26.726	0	327.406	0	122.3	4	40.8	4	-1E+10	1	-1E+10	1	-1E+10	1	-1E+10	1	-1E+10	1	-1E+10	1
4901784	98	C	03/11/2018	10:49	-132.985	43.393	0	332.90	0	6.3860	0	34.0190	4	26.732	0	329.981	0	121.0	4	40.4	4	-1E+10	1	-1E+10	1	-1E+10	1	-1E+10	1	-1E+10	1	-1E+10	1
4901784	98	C	03/11/2018	10:49	-132.985	43.393	0	334.70	0	6.3410	0	34.0110	4	26.732	0	331.764	0	120.2	4	40.0	4	-1E+10	1	-1E+10	1	-1E+10	1	-1E+10	1	-1E+10	1	-1E+10	1
4901784	98	C	03/11/2018	10:49	-132.985	43.393	0	337.40	0	6.3120	0	34.0160	4	26.739	0	334.438	0	119.1	4	39.7	4	-1E+10	1	-1E+10	1	-1E+10	1	-1E+10	1	-1E+10	1	-1E+10	1
4901784	98	C	03/11/2018	10:49	-132.985	43.393	0	340.00	0	6.2760	0	34.0150	4	26.743	0	337.013	0	118.0	4	39.3	4	-1E+10	1	-1E+10	1	-1E+10	1	-1E+10	1	-1E+10	1	-1E+10	1
4901784	98	C	03/11/2018	10:49	-132.985	43.393	0	342.60	0	6.2280	0	34.0130	4	26.748	0	339.588	0	116.9	4	38.9	4	-1E+10	1	-1E+10	1	-1E+10	1	-1E+10	1	-1E+10	1	-1E+10	1
4901784	98	C	03/11/2018	10:49	-132.985	43.393	0	345.20	0	6.1780	0	34.0130	4	26.754	0	342.163	0	115.8	4	38.4	4	-1E+10	1	-1E+10	1	-1E+10	1	-1E+10	1	-1E+10	1	-1E+10	1
4901784	98	C	03/11/2018	10:49	-132.985	43.393	0	347.80	0	6.1320	0	34.0130	4	26.760	0	344.738	0	114.9	4	38.1	4	-1E+10	1	-1E+10	1	-1E+10	1	-1E+10	1	-1E+10	1	-1E+10	1
4901784	98	C	03/11/2018	10:49	-132.985	43.393	0	350.50	0	6.1130	0	34.0120	4	26.762	0	347.412	0	114.0	4	37.8	4	-1E+10	1	-1E+10	1	-1E+10	1	-1E+10	1	-1E+10	1	-1E+10	1
4901784	98	C	03/11/2018	10:49	-132.985	43.393	0	352.20	0	6.1070	0	34.0120	4	26.762	0	349.095	0	113.2	4	37.5	4	-1E+10	1	-1E+10	1	-1E+10	1	-1E+10	1	-1E+10	1	-1E+10	1
4901784	98	C	03/11/2018	10:49	-132.985	43.393	0	354.80	0	6.0660	0	34.0120	4	26.768	0	351.670	0	112.0	4	37.1	4	-1E+10	1	-1E+10	1	-1E+10	1	-1E+10	1	-1E+10	1	-1E+10	1
4901784	98	C	03/11/2018	10:49	-132.985	43.393	0	357.50	0	6.0430	0	34.0100	4	26.769	0	354.344	0	110.7	4	36.6	4	-1E+10	1	-1E+10	1	-1E+10	1	-1E+10	1	-1E+10	1	-1E+10	1
4901784	98	C	03/11/2018	10:49	-132.985	43.393	0	360.20	0	5.9900	0	34.0100	4	26.776	0	357.018	0	109.2	4	36.1	4	-1E+10	1	-1E+10	1	-1E+10	1	-1E+10	1	-1E+10	1	-1E+10	1
4901784	98	C	03/11/2018	10:49	-132.985	43.393	0	362.80	0	5.9260	0	34.0100	4	26.784	0	359.593	0	108.0	4	35.6	4	-1E+10	1	-1E+10	1	-1E+10	1	-1E+10	1	-1E+10	1	-1E+10	1
4901784	98	C	03/11/2018	10:49	-132.985	43.393	0	364.60	0	5.9000	0	34.0100	4	26.787	0	361.375	0	107.4	4	35.4	4	-1E+10	1	-1E+10	1	-1E+10	1	-1E+10	1	-1E+10	1	-1E+10	1
4901784	98	C	03/11/2018	10:49	-132.985	43.393	0	367.20	0	5.8860	0	34.0080	4	26.787	0	363.950	0	106.2	4	35.0	4	-1E+10	1	-1E+10	1	-1E+10	1	-1E+10	1	-1E+10	1	-1E+10	1
4901784	98	C	03/11/2018	10:49	-132.985	43.393	0	369.90	0	5.8480	0	34.0090	4	26.793	0	366.624	0	104.7	4	34.5	4	-1E+10	1	-1E+10	1	-1E+10	1	-1E+10	1	-1E+10	1	-1E+10	1
4901784	98	C	03/11/2018	10:49	-132.985	43.393	0	372.60	0	5.7870	0	34.0090	4	26.800	0	369.297	0	103.4	4	34.0	4	-1E+10	1	-1E+10	1	-1E+10	1	-1E+10	1	-1E+10	1	-1E+10	1
4901784	98	C	03/11/2018	10:49	-132.985	43.393	0	375.40	0	5.7510	0	34.0100	4	26.805	0	372.070	0	102.2	4	33.6	4	-1E+10	1	-1E+10	1	-1E+10	1	-1E+10	1	-1E+10	1	-1E+10	1
4901784	98	C	03/11/2018	10:49	-132.985	43.393	0	377.10	0	5.7010	0	34.0140	4	26.815	0	373.753	0	101.3	4	33.3	4	-1E+10	1	-1E+10	1	-1E+10	1	-1E+10	1	-1E+10	1	-1E+10	1
4901784	98	C	03/11/2018	10:49	-132.985	43.393	0	379.80	0	5.6790	0	34.0110	4	26.815	0	376.427	0	100.6	4	33.0	4	-1E+10	1	-1E+10	1	-1E+10	1	-1E+10	1	-1E+10	1	-1E+10	1
4901784	98	C	03/11/2018	10:49	-132.985	43.393	0	382.60	0	5.6620	0	34.0100	4	26.816	0	379.200	0	99.7	4	32.7	4	-1E+10	1	-1E+10	1	-1E+10	1	-1E+10	1	-1E+10	1	-1E+10	1
4901784	98	C	03/11/2018	10:49	-132.985	43.393	0	385.20	0	5.6400	0	34.0100	4	26.819	0	381.774	0	98.6	4	32.3	4	-1E+10	1	-1E+10	1	-1E+10	1	-1E+10	1	-1E+10	1	-1E+10	1
4901784	98	C	03/11/2018	10:49	-132.985	43.393	0	387.90	0	5.6200	0	34.0090	4	26.821	0	384.448	0	97.4	4	31.9	4	-1E+10	1	-1E+10	1	-1E+10	1	-1E+10	1	-1E+10	1	-1E+10	1
4901784	98	C	03/11/2018	10:49	-132.985	43.393	0	389.70	0	5.5840	0	34.0100	4	26.826	0	386.230	0	96.4	4	31.6	4	-1E+10	1	-1E+10	1	-1E+10	1	-1E+10	1	-1E+10	1	-1E+10	1
4901784	98	C	03/11/2018	10:49	-132.985	43.393	0	392.50	0	5.5500	0	34.0100	4	26.830	0	389.002	0	95.0	4	31.1	4	-1E+10	1	-1E+10	1	-1E+10	1	-1E+10	1	-1E+10	1	-1E+10	1
4901784	98	C	03/11/2018	10:49	-132.985	43.393	0	395.20	0	5.5230	0	34.0080	4	26.832	0	391.676	0	93.1	4	30.4	4	-1E+10	1	-1E+10	1	-1E+10	1	-1E+10	1	-1E+10	1	-1E+10	1
4901784	98	C	03/11/2018	10:49	-132.985	43.393	0	397.10	0	5.4600	0	34.0150	4	26.845	0	393.557	0	91.7	4	29.9	4	-1E+10	1	-1E+10	1	-1E+10	1	-1E+10	1	-1E+10	1	-1E+10	1
4901784	98	C	03/11/2018	10:49	-132.985	43.393	0	399.80	0	5.4150	0	34.0150	4	26.850	0	396.230	0	90.4	4	29.5	4	-1E+10	1	-1E+10	1	-1E+10	1	-1E+10	1	-1E+10	1	-1E+10	1
4901784	98	C	03/11/2018	10:49	-132.985	43.393	0	402.50	0	5.3720	0	34.0160	4	26.856	0	398.904	0	89.2	4	29.1	4	-1E+10	1	-1E+10	1	-1E+10	1	-1E+10	1	-1E+10	1	-1E+10	1
4901784	98	C	03/11/2018	10:49	-132.985	43.393	0	405.00	0	5.3420	0	34.0190	4	26.862	0	401.379	0	88.6	4	28.9	4	-1E+10	1	-1E+10	1	-1E+10	1	-1E+10	1	-1E+10	1	-1E+10	1
4901784	98	C	03/11/2018	10:49	-132.985	43.393	0	407.60	0	5.3350	0	34.0190	4	26.863	0	403.953	0	87.6	4	28.5	4	-1E+10	1	-1E+10	1	-1E+10	1	-1E+10	1	-1E+10	1	-1E+10	1
4901784	98	C	03/11/2018	10:49	-132.985	43.393	0	409.90	0	5.3160	0	34.0210	4	26.866	0	406.230	0	86.3	4	28.1	4	-1E+10	1	-1E+10	1	-1E+10	1	-1E+10	1	-1E+10	1	-1E+10	1
4901784	98	C	03/11/2018	10:49	-132.985	43.393	0	412.30	0	5.2850	0	34.0220	4	26.871	0	408.606	0	85.1	4	27.7	4	-1E+10	1	-1E+10	1	-1E+10	1	-1E+10	1	-1E+10	1	-1E+10	1
4901784	98	C	03/11/2018	10:49	-132.985	43.393	0	414.70	0	5.2460	0	34.0260	4	26.879	0	410.983	0	83.9	4	27.2	4	-1E+10	1	-1E+10	1	-1E+10	1	-1E+10	1	-1E+10	1	-1E+10	1
4901784	98	C	03/11/2018	10:49	-132.985	43.393	0	417.10	0	5.2320	0	34.0280	4	26.882	0	413.359	0	83.1	4	27.0	4	-1E+10	1	-1E+10	1	-1E+10	1	-1E+10	1	-1E+10	1	-1E+10	1
4901784	98	C	03/11/2018	10:49	-132.985	43.393	0	420.30	0	5.2260	0	34.0280	4	26.883	0	416.527	0	81.6	4	26.5	4	-1E+10	1	-1E+10	1	-1E+10	1	-1E+10	1	-1E+10	1	-1E+10	1
4901784	98	C	03/11/2018	10:49	-132.985	43.393	0	422.90	0	5.2000	0	34.0320	4	26.889	0	419.101	0	80.0	4	26.0	4	-1E+10	1	-1E+10	1	-1E+10	1	-1E+10	1	-1E+10	1	-1E+10	1
4901784	98	C	03/11/2018	10:49	-132.985	43.393	0	425.30	0	5.1870	0	34.0360	4	26.893	0	421.477	0	78.7	4	25.5	4	-1E+10	1	-1E+10	1	-1E+10	1	-1E+10	1	-1E+10	1	-1E+10	1
4901784	98	C	03/11/2018	10:49	-132.985	43.393	0	427.80	0	5.1780	0	34.0400	4	26.898	0	423.952	0	77.5	4	25.1	4	-1E+10	1	-1E+10	1	-1E+10	1	-1E+10	1	-1E+10	1	-1E+10	1
4901784	98	C	03/11/2018	10:49	-132.985	43.393	0	430.30	0	5.1730	0	34.0420	4	26.900	0	426.427	0	76.5	4	24.8	4	-1E+10	1	-1E+10	1	-1E+10	1	-1E+10	1	-1E+10	1	-1E+10	1
4901784	98	C	03/11/2018	10:49	-132.985	43.393	0	432.70	0	5.1660	0	34.0440	4	26.902	0	428.803	0	75.4	4	24.5	4	-1E+10	1	-1E+10	1	-1E+10	1	-1E+10	1	-1E+10	1	-1E+10	1
4901784	98	C	03/11/2018	10:49	-132.985	43.393	0	435.20	0	5.1590	0	34.0470	4	26.906	0	431.277	0	74.5	4	24.2	4	-1E+10	1	-1E+10	1	-1E+10	1	-1E+10	1	-1E+10	1	-1E+10	1
4901784	98	C	03/11/2018	10:49	-132.985	43.393	0	437.60	0	5.1530	0	34.0490	4	26.908	0	433.653	0	73.6	4	23.9	4	-1E+10	1	-1E+10	1	-1E+10	1	-1E+10	1	-1E+10	1	-1E+10	1
4901784	98	C	03/11/2018	10:49	-132.985	43.393	0	440.10	0	5.1470	0	34.0500	4	26.909	0	436.128	0	72.8	4	23.6	4	-1E+10	1	-1E+10	1	-1E+10	1	-1E+10	1	-1E+10	1	-1E+10	1
4901784	98	C	03/11/2018	10:49	-132.985	43.393	0	442.50	0	5.1450	0	34.0490	4	26.909	0	438.504	0	71.5	4	23.2	4	-1E+10	1	-1E+10	1	-1E+10	1	-1E+10	1	-1E+10	1	-1E+10	1
4901784	98	C	03/11/2018	10:49	-132.985	43.393	0	445.10	0	5.1360	0	34.0540	4	26.914	0	441.078	0	70.0	4	22.7	4	-1E+10	1	-1E+10	1	-1E+10	1	-1E+10	1	-1E+10	1	-1E+10	1
4901784	98	C	03/11/2018	10:49	-132.985	43.393	0	447.70	0	5.1250	0	34.0580	4	26.918	0	443.651	0	68.1	4	22.1	4	-1E+10	1	-1E+10	1	-1E+10	1	-1E+10	1	-1E+10	1	-1E+10	1
4901784	98	C	03/11/2018	10:49	-132.985	43.393	0	450.10	0	5.1100	0	34.0630	4	26.924	0	446.027	0	66.6	4	21.6	4	-1E+10	1	-1E+10	1	-1E+10	1	-1E+10	1	-1E+10	1	-1E+10	1
4901784	98	C	03/11/2018	10:49	-132.985	43.393	0	452.60	0	5.1050	0	34.0680	4	26.929	0	448.502	0	65.3	4	21.2	4	-1E+10	1	-1E+10	1	-1E+10	1	-1E+10	1	-1E+10	1	-1E+10	1
4901784	98	C	03/11/2018	10:49	-132.985	43.393	0	455.30	0	5.1020	0	34.0710	4	26.931	0	451.174	0	64.5	4	20.9	4	-1E+10	1	-1E+10	1	-1E+10	1	-1E+10	1	-1E+10	1	-1E+10	1
4901784	98	C	03/11/2018	10:49	-132.985	43.393	0	457.80	0	5.1030	0	34.0720	4	26.932	0	453.649	0	63.6	4	20.6	4	-1E+10	1	-1E+10	1	-1E+10	1	-1E+10	1	-1E+10	1	-1E+10	1
4901784	98	C	03/11/2018	10:49	-132.985	43.393	0	460.30	0	5.0920	0	34.0760	4	26.936	0	456.124	0	62.7	4	20.3	4	-1E+10	1	-1E+10	1	-1E+10	1	-1E+10	1	-1E+10	1	-1E+10	1
4901784	98	C	03/11/2018	10:49	-132.985	43.393	0	462.90	0	5.0800	0	34.0780	4	26.939	0	458.697	0	62.2	4	20.1	4	-1E+10	1	-1E+10	1	-1E+10	1	-1E+10	1	-1E+10	1	-1E+10	1
4901784	98	C	03/11/2018	10:49	-132.985	43.393	0	464.60	0	5.0760	0	34.0780	4	26.940	0	460.380	0	62.0	4	20.1	4	-1E+10	1	-1E+10	1	-1E+10	1	-1E+10	1	-1E+10	1	-1E+10	1
4901784	98	C	03/11/2018	10:49	-132.985	43.393	0	467.10	0	5.0630	0	34.0790	4	26.942	0	462.854	0	61.5	4	19.9	4	-1E+10	1	-1E+10	1	-1E+10	1	-1E+10	1	-1E+10	1	-1E+10	1
4901784	98	C	03/11/2018	10:49	-132.985	43.393	0	469.70	0	5.0540	0	34.0790	4	26.943	0	465.428	0	60.8	4	19.7	4	-1E+10	1	-1E+10	1	-1E+10	1	-1E+10	1	-1E+10	1	-1E+10	1
4901784	98	C	03/11/2018	10:49	-132.985	43.393	0	472.30	0	5.0470	0	34.0790	4	26.944	0	468.001	0	59.8	4	19.3	4	-1E+10	1	-1E+10	1	-1E+10	1	-1E+10	1	-1E+10	1	-1E+10	1
4901784	98	C	03/11/2018	10:49	-132.985	43.393	0	474.90	0	5.0270	0	34.0820	4	26.949	0	470.575	0	58.6	4	18.9	4	-1E+10	1	-1E+10	1	-1E+10	1	-1E+10	1	-1E+10	1	-1E+10	1
4901784	98	C	03/11/2018	10:49	-132.985	43.393	0	477.50	0	5.0200	0	34.0850	4	26.952	0	473.148	0	56.7	4	18.3	4	-1E+10	1	-1E+10	1	-1E+10	1	-1E+10	1	-1E+10	1	-1E+10	1
4901784	98	C	03/11/2018	10:49	-132.985	43.393	0	480.20	0	5.0210	0	34.0900	4	26.956	0	475.820	0	54.8	4	17.7	4	-1E+10	1	-1E+10	1	-1E+10	1	-1E+10	1	-1E+10	1	-1E+10	1
4901784	98	C	03/11/2018	10:49	-132.985	43.393	0	482.80	0	5.0150	0	34.0980	4	26.963	0	478.394	0	52.0	4	16.8	4	-1E+10	1	-1E+10	1	-1E+10	1	-1E+10	1	-1E+10	1	-1E+10	1
4901784	98	C	03/11/2018	10:49	-132.985	43.393	0	485.50	0	5.0080	0	34.1090	4	26.972	0	481.066	0	49.7	4	16.1	4	-1E+10	1	-1E+10	1	-1E+10	1	-1E+10	1	-1E+10	1	-1E+10	1
4901784	98	C	03/11/2018	10:49	-132.985	43.393	0	487.20	0	5.0120	0	34.1130	4	26.975	0	482.748	0	48.7	4	15.7	4	-1E+10	1	-1E+10	1	-1E+10	1	-1E+10	1	-1E+10	1	-1E+10	1
4901784	98	C	03/11/2018	10:49	-132.985	43.393	0	489.90	0	5.0120	0	34.1180	4	26.979	0	485.421	0	47.3	4	15.3	4	-1E+10	1	-1E+10	1	-1E+10	1	-1E+10	1	-1E+10	1	-1E+10	1
4901784	98	C	03/11/2018	10:49	-132.985	43.393	0	492.50	0	5.0070	0	34.1200	4	26.981	0	487.994	0	46.1	4	14.9	4	-1E+10	1	-1E+10	1	-1E+10	1	-1E+10	1	-1E+10	1	-1E+10	1
4901784	98	C	03/11/2018	10:49	-132.985	43.393	0	495.20	0	5.0050	0	34.1240	4	26.985	0	490.666	0	44.5	4	14.4	4	-1E+10	1	-1E+10	1	-1E+10	1	-1E+10	1	-1E+10	1	-1E+10	1
4901784	98	C	03/11/2018	10:49	-132.985	43.393	0	497.90	0	5.0030	0	34.1280	4	26.988	0	493.338	0	43.0	4	13.9	4	-1E+10	1	-1E+10	1	-1E+10	1	-1E+10	1	-1E+10	1	-1E+10	1
4901784	98	C	03/11/2018	10:49	-132.985	43.393	0	499.70	0	5.0110	0	34.1350	4	26.993	0	495.119	0	42.1	4	13.6	4	-1E+10	1	-1E+10	1	-1E+10	1	-1E+10	1	-1E+10	1	-1E+10	1
4901784	98	C	03/11/2018	10:49	-132.985	43.393	0	505.10	0	4.9880	0	34.1400	4	26.999	0	500.463	0	40.3	4	13.0	4	-1E+10	1	-1E+10	1	-1E+10	1	-1E+10	1	-1E+10	1	-1E+10	1
4901784	98	C	03/11/2018	10:49	-132.985	43.393	0	510.60	0	4.9540	0	34.1470	4	27.009	0	505.906	0	38.7	4	12.5	4	-1E+10	1	-1E+10	1	-1E+10	1	-1E+10	1	-1E+10	1	-1E+10	1
4901784	98	C	03/11/2018	10:49	-132.985	43.393	0	515.10	0	4.9170	0	34.1510	4	27.016	0	510.359	0	37.3	4	12.0	4	-1E+10	1	-1E+10	1	-1E+10	1	-1E+10	1	-1E+10	1	-1E+10	1
4901784	98	C	03/11/2018	10:49	-132.985	43.393	0	519.60	0	4.9020	0	34.1610	4	27.026	0	514.812	0	35.9	4	11.6	4	-1E+10	1	-1E+10	1	-1E+10	1	-1E+10	1	-1E+10	1	-1E+10	1
4901784	98	C	03/11/2018	10:49	-132.985	43.393	0	525.10	0	4.8960	0	34.1650	4	27.030	0	520.255	0	35.4	4	11.4	4	-1E+10	1	-1E+10	1	-1E+10	1	-1E+10	1	-1E+10	1	-1E+10	1
4901784	98	C	03/11/2018	10:49	-132.985	43.393	0	530.50	0	4.8850	0	34.1650	4	27.031	0	525.598	0	35.2	4	11.3	4	-1E+10	1	-1E+10	1	-1E+10	1	-1E+10	1	-1E+10	1	-1E+10	1
4901784	98	C	03/11/2018	10:49	-132.985	43.393	0	535.00	0	4.8620	0	34.1650	4	27.034	0	530.051	0	34.6	4	11.1	4	-1E+10	1	-1E+10	1	-1E+10	1	-1E+10	1	-1E+10	1	-1E+10	1
4901784	98	C	03/11/2018	10:49	-132.985	43.393	0	539.40	0	4.8320	0	34.1700	4	27.041	0	534.404	0	33.6	4	10.8	4	-1E+10	1	-1E+10	1	-1E+10	1	-1E+10	1	-1E+10	1	-1E+10	1
4901784	98	C	03/11/2018	10:49	-132.985	43.393	0	544.90	0	4.8040	0	34.1760	4	27.049	0	539.846	0	32.1	4	10.3	4	-1E+10	1	-1E+10	1	-1E+10	1	-1E+10	1	-1E+10	1	-1E+10	1
4901784	98	C	03/11/2018	10:49	-132.985	43.393	0	550.20	0	4.8110	0	34.1810	4	27.052	0	545.090	0	31.0	4	10.0	4	-1E+10	1	-1E+10	1	-1E+10	1	-1E+10	1	-1E+10	1	-1E+10	1
4901784	98	C	03/11/2018	10:49	-132.985	43.393	0	554.60	0	4.8150	0	34.1860	4	27.056	0	549.443	0	30.0	4	9.7	4	-1E+10	1	-1E+10	1	-1E+10	1	-1E+10	1	-1E+10	1	-1E+10	1
4901784	98	C	03/11/2018	10:49	-132.985	43.393	0	560.10	0	4.8150	0	34.1910	4	27.060	0	554.885	0	29.0	4	9.3	4	-1E+10	1	-1E+10	1	-1E+10	1	-1E+10	1	-1E+10	1	-1E+10	1
4901784	98	C	03/11/2018	10:49	-132.985	43.393	0	565.80	0	4.7850	0	34.1970	4	27.068	0	560.524	0	29.1	4	9.4	4	-1E+10	1	-1E+10	1	-1E+10	1	-1E+10	1	-1E+10	1	-1E+10	1
4901784	98	C	03/11/2018	10:49	-132.985	43.393	0	570.60	0	4.7200	0	34.1910	4	27.071	0	565.273	0	29.7	4	9.5	4	-1E+10	1	-1E+10	1	-1E+10	1	-1E+10	1	-1E+10	1	-1E+10	1
4901784	98	C	03/11/2018	10:49	-132.985	43.393	0	575.50	0	4.6850	0	34.1920	4	27.075	0	570.121	0	29.0	4	9.3	4	-1E+10	1	-1E+10	1	-1E+10	1	-1E+10	1	-1E+10	1	-1E+10	1
4901784	98	C	03/11/2018	10:49	-132.985	43.393	0	580.60	0	4.6720	0	34.1970	4	27.081	0	575.166	0	28.1	4	9.0	4	-1E+10	1	-1E+10	1	-1E+10	1	-1E+10	1	-1E+10	1	-1E+10	1
4901784	98	C	03/11/2018	10:49	-132.985	43.393	0	585.60	0	4.6750	0	34.2020	4	27.084	0	580.112	0	27.3	4	8.8	4	-1E+10	1	-1E+10	1	-1E+10	1	-1E+10	1	-1E+10	1	-1E+10	1
4901784	98	C	03/11/2018	10:49	-132.985	43.393	0	590.70	0	4.6640	0	34.2040	4	27.087	0	585.157	0	26.7	4	8.6	4	-1E+10	1	-1E+10	1	-1E+10	1	-1E+10	1	-1E+10	1	-1E+10	1
4901784	98	C	03/11/2018	10:49	-132.985	43.393	0	595.70	0	4.6520	0	34.2080	4	27.092	0	590.103	0	25.8	4	8.3	4	-1E+10	1	-1E+10	1	-1E+10	1	-1E+10	1	-1E+10	1	-1E+10	1
4901784	98	C	03/11/2018	10:49	-132.985	43.393	0	600.70	0	4.6400	0	34.2150	4	27.099	0	595.049	0	25.0	4	8.0	4	-1E+10	1	-1E+10	1	-1E+10	1	-1E+10	1	-1E+10	1	-1E+10	1
4901784	98	C	03/11/2018	10:49	-132.985	43.393	0	605.60	0	4.6350	0	34.2170	4	27.101	0	599.896	0	24.3	4	7.8	4	-1E+10	1	-1E+10	1	-1E+10	1	-1E+10	1	-1E+10	1	-1E+10	1
4901784	98	C	03/11/2018	10:49	-132.985	43.393	0	610.60	0	4.6290	0	34.2230	4	27.106	0	604.841	0	23.6	4	7.6	4	-1E+10	1	-1E+10	1	-1E+10	1	-1E+10	1	-1E+10	1	-1E+10	1
4901784	98	C	03/11/2018	10:49	-132.985	43.393	0	615.60	0	4.6290	0	34.2250	4	27.108	0	609.787	0	23.2	4	7.4	4	-1E+10	1	-1E+10	1	-1E+10	1	-1E+10	1	-1E+10	1	-1E+10	1
4901784	98	C	03/11/2018	10:49	-132.985	43.393	0	620.70	0	4.6250	0	34.2280	4	27.111	0	614.831	0	22.7	4	7.3	4	-1E+10	1	-1E+10	1	-1E+10	1	-1E+10	1	-1E+10	1	-1E+10	1
4901784	98	C	03/11/2018	10:49	-132.985	43.393	0	625.70	0	4.6130	0	34.2300	4	27.114	0	619.777	0	22.1	4	7.1	4	-1E+10	1	-1E+10	1	-1E+10	1	-1E+10	1	-1E+10	1	-1E+10	1
4901784	98	C	03/11/2018	10:49	-132.985	43.393	0	630.00	0	4.6000	0	34.2340	4	27.118	0	624.029	0	21.4	4	6.9	4	-1E+10	1	-1E+10	1	-1E+10	1	-1E+10	1	-1E+10	1	-1E+10	1
4901784	98	C	03/11/2018	10:49	-132.985	43.393	0	634.30	0	4.5890	0	34.2400	4	27.124	0	628.282	0	20.7	4	6.6	4	-1E+10	1	-1E+10	1	-1E+10	1	-1E+10	1	-1E+10	1	-1E+10	1
4901784	98	C	03/11/2018	10:49	-132.985	43.393	0	639.30	0	4.5530	0	34.2460	4	27.133	0	633.227	0	20.1	4	6.4	4	-1E+10	1	-1E+10	1	-1E+10	1	-1E+10	1	-1E+10	1	-1E+10	1
4901784	98	C	03/11/2018	10:49	-132.985	43.393	0	644.30	0	4.5470	0	34.2500	4	27.137	0	638.172	0	19.5	4	6.2	4	-1E+10	1	-1E+10	1	-1E+10	1	-1E+10	1	-1E+10	1	-1E+10	1
4901784	98	C	03/11/2018	10:49	-132.985	43.393	0	649.40	0	4.5560	0	34.2550	4	27.140	0	643.216	0	18.7	4	6.0	4	-1E+10	1	-1E+10	1	-1E+10	1	-1E+10	1	-1E+10	1	-1E+10	1
4901784	98	C	03/11/2018	10:49	-132.985	43.393	0	654.50	0	4.5530	0	34.2590	4	27.144	0	648.259	0	18.1	4	5.8	4	-1E+10	1	-1E+10	1	-1E+10	1	-1E+10	1	-1E+10	1	-1E+10	1
4901784	98	C	03/11/2018	10:49	-132.985	43.393	0	659.60	0	4.5360	0	34.2630	4	27.149	0	653.302	0	17.5	4	5.6	4	-1E+10	1	-1E+10	1	-1E+10	1	-1E+10	1	-1E+10	1	-1E+10	1
4901784	98	C	03/11/2018	10:49	-132.985	43.393	0	664.70	0	4.5170	0	34.2710	4	27.157	0	658.346	0	16.7	4	5.4	4	-1E+10	1	-1E+10	1	-1E+10	1	-1E+10	1	-1E+10	1	-1E+10	1
4901784	98	C	03/11/2018	10:49	-132.985	43.393	0	669.90	0	4.5110	0	34.2770	4	27.163	0	663.488	0	16.2	4	5.2	4	-1E+10	1	-1E+10	1	-1E+10	1	-1E+10	1	-1E+10	1	-1E+10	1
4901784	98	C	03/11/2018	10:49	-132.985	43.393	0	675.20	0	4.4690	0	34.2830	4	27.172	0	668.729	0	15.8	4	5.1	4	-1E+10	1	-1E+10	1	-1E+10	1	-1E+10	1	-1E+10	1	-1E+10	1
4901784	98	C	03/11/2018	10:49	-132.985	43.393	0	680.50	0	4.4660	0	34.2880	4	27.176	0	673.969	0	15.3	4	4.9	4	-1E+10	1	-1E+10	1	-1E+10	1	-1E+10	1	-1E+10	1	-1E+10	1
4901784	98	C	03/11/2018	10:49	-132.985	43.393	0	685.10	0	4.4630	0	34.2920	4	27.180	0	678.518	0	15.0	4	4.8	4	-1E+10	1	-1E+10	1	-1E+10	1	-1E+10	1	-1E+10	1	-1E+10	1
4901784	98	C	03/11/2018	10:49	-132.985	43.393	0	689.70	0	4.4530	0	34.2950	4	27.183	0	683.066	0	14.8	4	4.7	4	-1E+10	1	-1E+10	1	-1E+10	1	-1E+10	1	-1E+10	1	-1E+10	1
4901784	98	C	03/11/2018	10:49	-132.985	43.393	0	695.10	0	4.4400	0	34.2980	4	27.187	0	688.405	0	14.6	4	4.7	4	-1E+10	1	-1E+10	1	-1E+10	1	-1E+10	1	-1E+10	1	-1E+10	1
4901784	98	C	03/11/2018	10:49	-132.985	43.393	0	700.40	0	4.4290	0	34.3010	4	27.191	0	693.645	0	14.3	4	4.6	4	-1E+10	1	-1E+10	1	-1E+10	1	-1E+10	1	-1E+10	1	-1E+10	1
4901784	98	C	03/11/2018	10:49	-132.985	43.393	0	704.90	0	4.4190	0	34.3030	4	27.193	0	698.094	0	14.1	4	4.5	4	-1E+10	1	-1E+10	1	-1E+10	1	-1E+10	1	-1E+10	1	-1E+10	1
4901784	98	C	03/11/2018	10:49	-132.985	43.393	0	709.40	0	4.4070	0	34.3080	4	27.199	0	702.543	0	13.9	4	4.4	4	-1E+10	1	-1E+10	1	-1E+10	1	-1E+10	1	-1E+10	1	-1E+10	1
4901784	98	C	03/11/2018	10:49	-132.985	43.393	0	714.90	0	4.3800	0	34.3100	4	27.203	0	707.981	0	13.9	4	4.4	4	-1E+10	1	-1E+10	1	-1E+10	1	-1E+10	1	-1E+10	1	-1E+10	1
4901784	98	C	03/11/2018	10:49	-132.985	43.393	0	720.50	0	4.3280	0	34.3120	4	27.210	0	713.517	0	13.8	4	4.4	4	-1E+10	1	-1E+10	1	-1E+10	1	-1E+10	1	-1E+10	1	-1E+10	1
4901784	98	C	03/11/2018	10:49	-132.985	43.393	0	725.20	0	4.3180	0	34.3160	4	27.215	0	718.163	0	13.6	4	4.3	4	-1E+10	1	-1E+10	1	-1E+10	1	-1E+10	1	-1E+10	1	-1E+10	1
4901784	98	C	03/11/2018	10:49	-132.985	43.393	0	729.90	0	4.3060	0	34.3190	4	27.218	0	722.810	0	13.4	4	4.3	4	-1E+10	1	-1E+10	1	-1E+10	1	-1E+10	1	-1E+10	1	-1E+10	1
4901784	98	C	03/11/2018	10:49	-132.985	43.393	0	734.70	0	4.2980	0	34.3220	4	27.222	0	727.555	0	13.3	4	4.2	4	-1E+10	1	-1E+10	1	-1E+10	1	-1E+10	1	-1E+10	1	-1E+10	1
4901784	98	C	03/11/2018	10:49	-132.985	43.393	0	739.40	0	4.2890	0	34.3220	4	27.223	0	732.201	0	13.1	4	4.2	4	-1E+10	1	-1E+10	1	-1E+10	1	-1E+10	1	-1E+10	1	-1E+10	1
4901784	98	C	03/11/2018	10:49	-132.985	43.393	0	745.00	0	4.2730	0	34.3270	4	27.228	0	737.736	0	12.9	4	4.1	4	-1E+10	1	-1E+10	1	-1E+10	1	-1E+10	1	-1E+10	1	-1E+10	1
4901784	98	C	03/11/2018	10:49	-132.985	43.393	0	750.60	0	4.2330	0	34.3300	4	27.235	0	743.272	0	12.7	4	4.0	4	-1E+10	1	-1E+10	1	-1E+10	1	-1E+10	1	-1E+10	1	-1E+10	1
4901784	98	C	03/11/2018	10:49	-132.985	43.393	0	755.30	0	4.2310	0	34.3340	4	27.238	0	747.917	0	12.3	4	3.9	4	-1E+10	1	-1E+10	1	-1E+10	1	-1E+10	1	-1E+10	1	-1E+10	1
4901784	98	C	03/11/2018	10:49	-132.985	43.393	0	760.10	0	4.2400	0	34.3430	4	27.245	0	752.662	0	11.9	4	3.8	4	-1E+10	1	-1E+10	1	-1E+10	1	-1E+10	1	-1E+10	1	-1E+10	1
4901784	98	C	03/11/2018	10:49	-132.985	43.393	0	764.80	0	4.2310	0	34.3490	4	27.250	0	757.307	0	11.8	4	3.7	4	-1E+10	1	-1E+10	1	-1E+10	1	-1E+10	1	-1E+10	1	-1E+10	1
4901784	98	C	03/11/2018	10:49	-132.985	43.393	0	769.60	0	4.2150	0	34.3520	4	27.254	0	762.051	0	11.7	4	3.7	4	-1E+10	1	-1E+10	1	-1E+10	1	-1E+10	1	-1E+10	1	-1E+10	1
4901784	98	C	03/11/2018	10:49	-132.985	43.393	0	775.30	0	4.1730	0	34.3530	4	27.260	0	767.685	0	11.7	4	3.7	4	-1E+10	1	-1E+10	1	-1E+10	1	-1E+10	1	-1E+10	1	-1E+10	1
4901784	98	C	03/11/2018	10:49	-132.985	43.393	0	780.10	0	4.1670	0	34.3570	4	27.263	0	772.429	0	11.6	4	3.7	4	-1E+10	1	-1E+10	1	-1E+10	1	-1E+10	1	-1E+10	1	-1E+10	1
4901784	98	C	03/11/2018	10:49	-132.985	43.393	0	785.00	0	4.1720	0	34.3600	4	27.265	0	777.272	0	11.4	4	3.6	4	-1E+10	1	-1E+10	1	-1E+10	1	-1E+10	1	-1E+10	1	-1E+10	1
4901784	98	C	03/11/2018	10:49	-132.985	43.393	0	790.50	0	4.1790	0	34.3640	4	27.268	0	782.707	0	11.2	4	3.5	4	-1E+10	1	-1E+10	1	-1E+10	1	-1E+10	1	-1E+10	1	-1E+10	1
4901784	98	C	03/11/2018	10:49	-132.985	43.393	0	795.40	0	4.1730	0	34.3690	4	27.273	0	787.550	0	11.1	4	3.5	4	-1E+10	1	-1E+10	1	-1E+10	1	-1E+10	1	-1E+10	1	-1E+10	1
4901784	98	C	03/11/2018	10:49	-132.985	43.393	0	800.50	0	4.1600	0	34.3690	4	27.274	0	792.590	0	11.2	4	3.5	4	-1E+10	1	-1E+10	1	-1E+10	1	-1E+10	1	-1E+10	1	-1E+10	1
4901784	98	C	03/11/2018	10:49	-132.985	43.393	0	805.50	0	4.1190	0	34.3690	4	27.278	0	797.531	0	11.4	4	3.6	4	-1E+10	1	-1E+10	1	-1E+10	1	-1E+10	1	-1E+10	1	-1E+10	1
4901784	98	C	03/11/2018	10:49	-132.985	43.393	0	810.60	0	4.0550	0	34.3660	4	27.282	0	802.570	0	11.5	4	3.6	4	-1E+10	1	-1E+10	1	-1E+10	1	-1E+10	1	-1E+10	1	-1E+10	1
4901784	98	C	03/11/2018	10:49	-132.985	43.393	0	815.50	0	4.0270	0	34.3660	4	27.285	0	807.412	0	11.5	4	3.6	4	-1E+10	1	-1E+10	1	-1E+10	1	-1E+10	1	-1E+10	1	-1E+10	1
4901784	98	C	03/11/2018	10:49	-132.985	43.393	0	820.50	0	4.0260	0	34.3720	4	27.290	0	812.353	0	11.1	4	3.5	4	-1E+10	1	-1E+10	1	-1E+10	1	-1E+10	1	-1E+10	1	-1E+10	1
4901784	98	C	03/11/2018	10:49	-132.985	43.393	0	825.30	0	4.0430	0	34.3820	4	27.297	0	817.096	0	10.8	4	3.4	4	-1E+10	1	-1E+10	1	-1E+10	1	-1E+10	1	-1E+10	1	-1E+10	1
4901784	98	C	03/11/2018	10:49	-132.985	43.393	0	830.20	0	4.0610	0	34.3880	4	27.300	0	821.938	0	10.7	4	3.4	4	-1E+10	1	-1E+10	1	-1E+10	1	-1E+10	1	-1E+10	1	-1E+10	1
4901784	98	C	03/11/2018	10:49	-132.985	43.393	0	835.30	0	4.0460	0	34.3900	4	27.303	0	826.977	0	10.6	4	3.4	4	-1E+10	1	-1E+10	1	-1E+10	1	-1E+10	1	-1E+10	1	-1E+10	1
4901784	98	C	03/11/2018	10:49	-132.985	43.393	0	840.30	0	4.0180	0	34.3950	4	27.310	0	831.917	0	10.5	4	3.3	4	-1E+10	1	-1E+10	1	-1E+10	1	-1E+10	1	-1E+10	1	-1E+10	1
4901784	98	C	03/11/2018	10:49	-132.985	43.393	0	845.20	0	3.9960	0	34.4020	4	27.317	0	836.759	0	10.5	4	3.3	4	-1E+10	1	-1E+10	1	-1E+10	1	-1E+10	1	-1E+10	1	-1E+10	1
4901784	98	C	03/11/2018	10:49	-132.985	43.393	0	850.20	0	3.9810	0	34.4070	4	27.323	0	841.699	0	10.4	4	3.3	4	-1E+10	1	-1E+10	1	-1E+10	1	-1E+10	1	-1E+10	1	-1E+10	1
4901784	98	C	03/11/2018	10:49	-132.985	43.393	0	855.30	0	3.9680	0	34.4090	4	27.326	0	846.737	0	10.4	4	3.3	4	-1E+10	1	-1E+10	1	-1E+10	1	-1E+10	1	-1E+10	1	-1E+10	1
4901784	98	C	03/11/2018	10:49	-132.985	43.393	0	860.50	0	3.9600	0	34.4110	4	27.328	0	851.875	0	10.4	4	3.3	4	-1E+10	1	-1E+10	1	-1E+10	1	-1E+10	1	-1E+10	1	-1E+10	1
4901784	98	C	03/11/2018	10:49	-132.985	43.393	0	865.60	0	3.9490	0	34.4150	4	27.333	0	856.913	0	10.4	4	3.3	4	-1E+10	1	-1E+10	1	-1E+10	1	-1E+10	1	-1E+10	1	-1E+10	1
4901784	98	C	03/11/2018	10:49	-132.985	43.393	0	870.70	0	3.9300	0	34.4190	4	27.338	0	861.951	0	10.4	4	3.3	4	-1E+10	1	-1E+10	1	-1E+10	1	-1E+10	1	-1E+10	1	-1E+10	1
4901784	98	C	03/11/2018	10:49	-132.985	43.393	0	875.10	0	3.9190	0	34.4200	4	27.340	0	866.298	0	10.4	4	3.3	4	-1E+10	1	-1E+10	1	-1E+10	1	-1E+10	1	-1E+10	1	-1E+10	1
4901784	98	C	03/11/2018	10:49	-132.985	43.393	0	879.50	0	3.9100	0	34.4210	4	27.342	0	870.645	0	10.4	4	3.3	4	-1E+10	1	-1E+10	1	-1E+10	1	-1E+10	1	-1E+10	1	-1E+10	1
4901784	98	C	03/11/2018	10:49	-132.985	43.393	0	884.80	0	3.8910	0	34.4230	4	27.345	0	875.880	0	10.4	4	3.3	4	-1E+10	1	-1E+10	1	-1E+10	1	-1E+10	1	-1E+10	1	-1E+10	1
4901784	98	C	03/11/2018	10:49	-132.985	43.393	0	890.10	0	3.8520	0	34.4270	4	27.352	0	881.115	0	10.5	4	3.3	4	-1E+10	1	-1E+10	1	-1E+10	1	-1E+10	1	-1E+10	1	-1E+10	1
4901784	98	C	03/11/2018	10:49	-132.985	43.393	0	895.40	0	3.8270	0	34.4300	4	27.357	0	886.351	0	10.5	4	3.3	4	-1E+10	1	-1E+10	1	-1E+10	1	-1E+10	1	-1E+10	1	-1E+10	1
4901784	98	C	03/11/2018	10:49	-132.985	43.393	0	899.80	0	3.8140	0	34.4310	4	27.359	0	890.697	0	10.5	4	3.3	4	-1E+10	1	-1E+10	1	-1E+10	1	-1E+10	1	-1E+10	1	-1E+10	1
4901784	98	C	03/11/2018	10:49	-132.985	43.393	0	904.30	0	3.7900	0	34.4340	4	27.364	0	895.142	0	10.6	4	3.3	4	-1E+10	1	-1E+10	1	-1E+10	1	-1E+10	1	-1E+10	1	-1E+10	1
4901784	98	C	03/11/2018	10:49	-132.985	43.393	0	909.70	0	3.7770	0	34.4350	4	27.366	0	900.476	0	10.6	4	3.3	4	-1E+10	1	-1E+10	1	-1E+10	1	-1E+10	1	-1E+10	1	-1E+10	1
4901784	98	C	03/11/2018	10:49	-132.985	43.393	0	915.10	0	3.7650	0	34.4350	4	27.367	0	905.809	0	10.6	4	3.3	4	-1E+10	1	-1E+10	1	-1E+10	1	-1E+10	1	-1E+10	1	-1E+10	1
4901784	98	C	03/11/2018	10:49	-132.985	43.393	0	920.40	0	3.7380	0	34.4360	4	27.371	0	911.044	0	10.7	4	3.4	4	-1E+10	1	-1E+10	1	-1E+10	1	-1E+10	1	-1E+10	1	-1E+10	1
4901784	98	C	03/11/2018	10:49	-132.985	43.393	0	924.90	0	3.7160	0	34.4370	4	27.374	0	915.488	0	10.7	4	3.4	4	-1E+10	1	-1E+10	1	-1E+10	1	-1E+10	1	-1E+10	1	-1E+10	1
4901784	98	C	03/11/2018	10:49	-132.985	43.393	0	929.40	0	3.6910	0	34.4370	4	27.376	0	919.932	0	10.8	4	3.4	4	-1E+10	1	-1E+10	1	-1E+10	1	-1E+10	1	-1E+10	1	-1E+10	1
4901784	98	C	03/11/2018	10:49	-132.985	43.393	0	934.80	0	3.6610	0	34.4380	4	27.380	0	925.266	0	10.9	4	3.4	4	-1E+10	1	-1E+10	1	-1E+10	1	-1E+10	1	-1E+10	1	-1E+10	1
4901784	98	C	03/11/2018	10:49	-132.985	43.393	0	940.20	0	3.6370	0	34.4410	4	27.385	0	930.598	0	10.9	4	3.4	4	-1E+10	1	-1E+10	1	-1E+10	1	-1E+10	1	-1E+10	1	-1E+10	1
4901784	98	C	03/11/2018	10:49	-132.985	43.393	0	945.40	0	3.6130	0	34.4440	4	27.390	0	935.734	0	10.9	4	3.4	4	-1E+10	1	-1E+10	1	-1E+10	1	-1E+10	1	-1E+10	1	-1E+10	1
4901784	98	C	03/11/2018	10:49	-132.985	43.393	0	950.20	0	3.5990	0	34.4500	4	27.396	0	940.474	0	11.0	4	3.4	4	-1E+10	1	-1E+10	1	-1E+10	1	-1E+10	1	-1E+10	1	-1E+10	1
4901784	98	C	03/11/2018	10:49	-132.985	43.393	0	955.00	0	3.5960	0	34.4510	4	27.397	0	945.214	0	11.0	4	3.4	4	-1E+10	1	-1E+10	1	-1E+10	1	-1E+10	1	-1E+10	1	-1E+10	1
4901784	98	C	03/11/2018	10:49	-132.985	43.393	0	959.90	0	3.5910	0	34.4520	4	27.398	0	950.053	0	11.0	4	3.4	4	-1E+10	1	-1E+10	1	-1E+10	1	-1E+10	1	-1E+10	1	-1E+10	1
4901784	98	C	03/11/2018	10:49	-132.985	43.393	0	964.70	0	3.5790	0	34.4530	4	27.400	0	954.792	0	11.1	4	3.5	4	-1E+10	1	-1E+10	1	-1E+10	1	-1E+10	1	-1E+10	1	-1E+10	1
4901784	98	C	03/11/2018	10:49	-132.985	43.393	0	969.60	0	3.5580	0	34.4540	4	27.403	0	959.631	0	11.1	4	3.5	4	-1E+10	1	-1E+10	1	-1E+10	1	-1E+10	1	-1E+10	1	-1E+10	1
4901784	98	C	03/11/2018	10:49	-132.985	43.393	0	974.70	0	3.5290	0	34.4550	4	27.407	0	964.667	0	11.2	4	3.5	4	-1E+10	1	-1E+10	1	-1E+10	1	-1E+10	1	-1E+10	1	-1E+10	1
4901784	98	C	03/11/2018	10:49	-132.985	43.393	0	979.80	0	3.5150	0	34.4560	4	27.409	0	969.702	0	11.3	4	3.5	4	-1E+10	1	-1E+10	1	-1E+10	1	-1E+10	1	-1E+10	1	-1E+10	1
4901784	98	C	03/11/2018	10:49	-132.985	43.393	0	984.80	0	3.5030	0	34.4580	4	27.412	0	974.639	0	11.4	4	3.5	4	-1E+10	1	-1E+10	1	-1E+10	1	-1E+10	1	-1E+10	1	-1E+10	1
4901784	98	C	03/11/2018	10:49	-132.985	43.393	0	989.90	0	3.4780	0	34.4620	4	27.417	0	979.675	0	11.4	4	3.6	4	-1E+10	1	-1E+10	1	-1E+10	1	-1E+10	1	-1E+10	1	-1E+10	1
4901784	98	C	03/11/2018	10:49	-132.985	43.393	0	994.90	0	3.4710	0	34.4630	4	27.419	0	984.611	0	11.5	4	3.6	4	-1E+10	1	-1E+10	1	-1E+10	1	-1E+10	1	-1E+10	1	-1E+10	1
4901784	98	C	03/11/2018	10:49	-132.985	43.393	0	1000.10	0	3.4570	0	34.4670	4	27.424	0	989.745	0	11.6	4	3.6	4	-1E+10	1	-1E+10	1	-1E+10	1	-1E+10	1	-1E+10	1	-1E+10	1
4901784	98	C	03/11/2018	10:49	-132.985	43.393	0	1005.20	0	3.4460	0	34.4700	4	27.427	0	994.780	0	11.7	4	3.6	4	-1E+10	1	-1E+10	1	-1E+10	1	-1E+10	1	-1E+10	1	-1E+10	1
4901784	98	C	03/11/2018	10:49	-132.985	43.393	0	1010.30	0	3.4400	0	34.4720	4	27.429	0	999.815	0	11.7	4	3.7	4	-1E+10	1	-1E+10	1	-1E+10	1	-1E+10	1	-1E+10	1	-1E+10	1
4901784	98	C	03/11/2018	10:49	-132.985	43.393	0	1015.50	0	3.4360	0	34.4720	4	27.430	0	1004.949	0	11.8	4	3.7	4	-1E+10	1	-1E+10	1	-1E+10	1	-1E+10	1	-1E+10	1	-1E+10	1
4901784	98	C	03/11/2018	10:49	-132.985	43.393	0	1020.70	0	3.4290	0	34.4740	4	27.432	0	1010.082	0	11.8	4	3.7	4	-1E+10	1	-1E+10	1	-1E+10	1	-1E+10	1	-1E+10	1	-1E+10	1
4901784	98	C	03/11/2018	10:49	-132.985	43.393	0	1025.10	0	3.4240	0	34.4760	4	27.434	0	1014.426	0	11.8	4	3.7	4	-1E+10	1	-1E+10	1	-1E+10	1	-1E+10	1	-1E+10	1	-1E+10	1
4901784	98	C	03/11/2018	10:49	-132.985	43.393	0	1029.60	0	3.4160	0	34.4770	4	27.436	0	1018.868	0	11.9	4	3.7	4	-1E+10	1	-1E+10	1	-1E+10	1	-1E+10	1	-1E+10	1	-1E+10	1
4901784	98	C	03/11/2018	10:49	-132.985	43.393	0	1035.00	0	3.4090	0	34.4790	4	27.438	0	1024.199	0	11.9	4	3.7	4	-1E+10	1	-1E+10	1	-1E+10	1	-1E+10	1	-1E+10	1	-1E+10	1
4901784	98	C	03/11/2018	10:49	-132.985	43.393	0	1040.40	0	3.4000	0	34.4820	4	27.441	0	1029.529	0	12.0	4	3.7	4	-1E+10	1	-1E+10	1	-1E+10	1	-1E+10	1	-1E+10	1	-1E+10	1
4901784	98	C	03/11/2018	10:49	-132.985	43.393	0	1045.00	0	3.3960	0	34.4830	4	27.442	0	1034.070	0	12.1	4	3.8	4	-1E+10	1	-1E+10	1	-1E+10	1	-1E+10	1	-1E+10	1	-1E+10	1
4901784	98	C	03/11/2018	10:49	-132.985	43.393	0	1049.50	0	3.3880	0	34.4850	4	27.445	0	1038.512	0	12.2	4	3.8	4	-1E+10	1	-1E+10	1	-1E+10	1	-1E+10	1	-1E+10	1	-1E+10	1
4901784	98	C	03/11/2018	10:49	-132.985	43.393	0	1054.90	0	3.3760	0	34.4880	4	27.448	0	1043.842	0	12.4	4	3.9	4	-1E+10	1	-1E+10	1	-1E+10	1	-1E+10	1	-1E+10	1	-1E+10	1
4901784	98	C	03/11/2018	10:49	-132.985	43.393	0	1060.30	0	3.3660	0	34.4910	4	27.452	0	1049.171	0	12.6	4	3.9	4	-1E+10	1	-1E+10	1	-1E+10	1	-1E+10	1	-1E+10	1	-1E+10	1
4901784	98	C	03/11/2018	10:49	-132.985	43.393	0	1064.90	0	3.3600	0	34.4930	4	27.454	0	1053.712	0	12.8	4	4.0	4	-1E+10	1	-1E+10	1	-1E+10	1	-1E+10	1	-1E+10	1	-1E+10	1
4901784	98	C	03/11/2018	10:49	-132.985	43.393	0	1069.50	0	3.3500	0	34.4960	4	27.457	0	1058.252	0	13.1	4	4.1	4	-1E+10	1	-1E+10	1	-1E+10	1	-1E+10	1	-1E+10	1	-1E+10	1
4901784	98	C	03/11/2018	10:49	-132.985	43.393	0	1075.10	0	3.3390	0	34.5010	4	27.462	0	1063.779	0	13.4	4	4.2	4	-1E+10	1	-1E+10	1	-1E+10	1	-1E+10	1	-1E+10	1	-1E+10	1
4901784	98	C	03/11/2018	10:49	-132.985	43.393	0	1079.70	0	3.3300	0	34.5040	4	27.466	0	1068.318	0	13.5	4	4.2	4	-1E+10	1	-1E+10	1	-1E+10	1	-1E+10	1	-1E+10	1	-1E+10	1
4901784	98	C	03/11/2018	10:49	-132.985	43.393	0	1084.70	0	3.3240	0	34.5060	4	27.468	0	1073.253	0	13.6	4	4.2	4	-1E+10	1	-1E+10	1	-1E+10	1	-1E+10	1	-1E+10	1	-1E+10	1
4901784	98	C	03/11/2018	10:49	-132.985	43.393	0	1089.90	0	3.3160	0	34.5080	4	27.470	0	1078.385	0	13.8	4	4.3	4	-1E+10	1	-1E+10	1	-1E+10	1	-1E+10	1	-1E+10	1	-1E+10	1
4901784	98	C	03/11/2018	10:49	-132.985	43.393	0	1094.60	0	3.3100	0	34.5090	4	27.472	0	1083.023	0	14.0	4	4.4	4	-1E+10	1	-1E+10	1	-1E+10	1	-1E+10	1	-1E+10	1	-1E+10	1
4901784	98	C	03/11/2018	10:49	-132.985	43.393	0	1099.50	0	3.2990	0	34.5120	4	27.475	0	1087.858	0	14.3	4	4.4	4	-1E+10	1	-1E+10	1	-1E+10	1	-1E+10	1	-1E+10	1	-1E+10	1
4901784	98	C	03/11/2018	10:49	-132.985	43.393	0	1104.40	0	3.2850	0	34.5170	4	27.480	0	1092.694	0	14.5	4	4.5	4	-1E+10	1	-1E+10	1	-1E+10	1	-1E+10	1	-1E+10	1	-1E+10	1
4901784	98	C	03/11/2018	10:49	-132.985	43.393	0	1109.50	0	3.2800	0	34.5180	4	27.482	0	1097.726	0	14.8	4	4.6	4	-1E+10	1	-1E+10	1	-1E+10	1	-1E+10	1	-1E+10	1	-1E+10	1
4901784	98	C	03/11/2018	10:49	-132.985	43.393	0	1114.70	0	3.2770	0	34.5210	4	27.484	0	1102.858	0	14.9	4	4.6	4	-1E+10	1	-1E+10	1	-1E+10	1	-1E+10	1	-1E+10	1	-1E+10	1
4901784	98	C	03/11/2018	10:49	-132.985	43.393	0	1120.10	0	3.2660	0	34.5220	4	27.486	0	1108.186	0	15.0	4	4.7	4	-1E+10	1	-1E+10	1	-1E+10	1	-1E+10	1	-1E+10	1	-1E+10	1
4901784	98	C	03/11/2018	10:49	-132.985	43.393	0	1125.50	0	3.2560	0	34.5240	4	27.489	0	1113.514	0	15.2	4	4.7	4	-1E+10	1	-1E+10	1	-1E+10	1	-1E+10	1	-1E+10	1	-1E+10	1
4901784	98	C	03/11/2018	10:49	-132.985	43.393	0	1130.10	0	3.2480	0	34.5270	4	27.492	0	1118.053	0	15.4	4	4.8	4	-1E+10	1	-1E+10	1	-1E+10	1	-1E+10	1	-1E+10	1	-1E+10	1
4901784	98	C	03/11/2018	10:49	-132.985	43.393	0	1134.60	0	3.2410	0	34.5280	4	27.494	0	1122.493	0	15.5	4	4.8	4	-1E+10	1	-1E+10	1	-1E+10	1	-1E+10	1	-1E+10	1	-1E+10	1
4901784	98	C	03/11/2018	10:49	-132.985	43.393	0	1140.20	0	3.2330	0	34.5300	4	27.496	0	1128.018	0	15.5	4	4.8	4	-1E+10	1	-1E+10	1	-1E+10	1	-1E+10	1	-1E+10	1	-1E+10	1
4901784	98	C	03/11/2018	10:49	-132.985	43.393	0	1144.80	0	3.2340	0	34.5300	4	27.496	0	1132.557	0	15.7	4	4.9	4	-1E+10	1	-1E+10	1	-1E+10	1	-1E+10	1	-1E+10	1	-1E+10	1
4901784	98	C	03/11/2018	10:49	-132.985	43.393	0	1149.50	0	3.2290	0	34.5310	4	27.497	0	1137.194	0	15.9	4	5.0	4	-1E+10	1	-1E+10	1	-1E+10	1	-1E+10	1	-1E+10	1	-1E+10	1
4901784	98	C	03/11/2018	10:49	-132.985	43.393	0	1155.10	0	3.2310	0	34.5340	4	27.499	0	1142.719	0	16.4	4	5.1	4	-1E+10	1	-1E+10	1	-1E+10	1	-1E+10	1	-1E+10	1	-1E+10	1
4901784	98	C	03/11/2018	10:49	-132.985	43.393	0	1160.30	0	3.2320	0	34.5370	4	27.502	0	1147.849	0	16.6	4	5.2	4	-1E+10	1	-1E+10	1	-1E+10	1	-1E+10	1	-1E+10	1	-1E+10	1
4901784	98	C	03/11/2018	10:49	-132.985	43.393	0	1165.30	0	3.2140	0	34.5390	4	27.505	0	1152.781	0	16.8	4	5.2	4	-1E+10	1	-1E+10	1	-1E+10	1	-1E+10	1	-1E+10	1	-1E+10	1
4901784	98	C	03/11/2018	10:49	-132.985	43.393	0	1170.00	0	3.2120	0	34.5410	4	27.507	0	1157.418	0	17.0	4	5.3	4	-1E+10	1	-1E+10	1	-1E+10	1	-1E+10	1	-1E+10	1	-1E+10	1
4901784	98	C	03/11/2018	10:49	-132.985	43.393	0	1174.90	0	3.2040	0	34.5420	4	27.508	0	1162.252	0	17.2	4	5.3	4	-1E+10	1	-1E+10	1	-1E+10	1	-1E+10	1	-1E+10	1	-1E+10	1
4901784	98	C	03/11/2018	10:49	-132.985	43.393	0	1179.90	0	3.1940	0	34.5440	4	27.511	0	1167.184	0	17.3	4	5.4	4	-1E+10	1	-1E+10	1	-1E+10	1	-1E+10	1	-1E+10	1	-1E+10	1
4901784	98	C	03/11/2018	10:49	-132.985	43.393	0	1184.90	0	3.1900	0	34.5450	4	27.512	0	1172.116	0	17.5	4	5.4	4	-1E+10	1	-1E+10	1	-1E+10	1	-1E+10	1	-1E+10	1	-1E+10	1
4901784	98	C	03/11/2018	10:49	-132.985	43.393	0	1189.90	0	3.1880	0	34.5470	4	27.514	0	1177.048	0	17.6	4	5.5	4	-1E+10	1	-1E+10	1	-1E+10	1	-1E+10	1	-1E+10	1	-1E+10	1
4901784	98	C	03/11/2018	10:49	-132.985	43.393	0	1194.90	0	3.1750	0	34.5480	4	27.516	0	1181.980	0	17.6	4	5.5	4	-1E+10	1	-1E+10	1	-1E+10	1	-1E+10	1	-1E+10	1	-1E+10	1
4901784	98	C	03/11/2018	10:49	-132.985	43.393	0	1200.00	0	3.1630	0	34.5480	4	27.517	0	1187.011	0	17.6	4	5.5	4	-1E+10	1	-1E+10	1	-1E+10	1	-1E+10	1	-1E+10	1	-1E+10	1
4901784	98	C	03/11/2018	10:49	-132.985	43.393	0	1205.20	0	3.1560	0	34.5490	4	27.519	0	1192.139	0	17.7	4	5.5	4	-1E+10	1	-1E+10	1	-1E+10	1	-1E+10	1	-1E+10	1	-1E+10	1
4901784	98	C	03/11/2018	10:49	-132.985	43.393	0	1210.50	0	3.1520	0	34.5500	4	27.520	0	1197.367	0	17.8	4	5.5	4	-1E+10	1	-1E+10	1	-1E+10	1	-1E+10	1	-1E+10	1	-1E+10	1
4901784	98	C	03/11/2018	10:49	-132.985	43.393	0	1215.70	0	3.1430	0	34.5510	4	27.521	0	1202.496	0	17.9	4	5.5	4	-1E+10	1	-1E+10	1	-1E+10	1	-1E+10	1	-1E+10	1	-1E+10	1
4901784	98	C	03/11/2018	10:49	-132.985	43.393	0	1220.10	0	3.1380	0	34.5510	4	27.522	0	1206.835	0	17.9	4	5.5	4	-1E+10	1	-1E+10	1	-1E+10	1	-1E+10	1	-1E+10	1	-1E+10	1
4901784	98	C	03/11/2018	10:49	-132.985	43.393	0	1224.50	0	3.1370	0	34.5510	4	27.522	0	1211.175	0	17.9	4	5.6	4	-1E+10	1	-1E+10	1	-1E+10	1	-1E+10	1	-1E+10	1	-1E+10	1
4901784	98	C	03/11/2018	10:49	-132.985	43.393	0	1229.70	0	3.1290	0	34.5530	4	27.524	0	1216.303	0	18.1	4	5.6	4	-1E+10	1	-1E+10	1	-1E+10	1	-1E+10	1	-1E+10	1	-1E+10	1
4901784	98	C	03/11/2018	10:49	-132.985	43.393	0	1234.60	0	3.1210	0	34.5540	4	27.526	0	1221.136	0	18.2	4	5.6	4	-1E+10	1	-1E+10	1	-1E+10	1	-1E+10	1	-1E+10	1	-1E+10	1
4901784	98	C	03/11/2018	10:49	-132.985	43.393	0	1239.70	0	3.1130	0	34.5550	4	27.528	0	1226.165	0	18.4	4	5.7	4	-1E+10	1	-1E+10	1	-1E+10	1	-1E+10	1	-1E+10	1	-1E+10	1
4901784	98	C	03/11/2018	10:49	-132.985	43.393	0	1244.60	0	3.1070	0	34.5580	4	27.531	0	1230.997	0	18.8	4	5.8	4	-1E+10	1	-1E+10	1	-1E+10	1	-1E+10	1	-1E+10	1	-1E+10	1
4901784	98	C	03/11/2018	10:49	-132.985	43.393	0	1249.50	0	3.0980	0	34.5590	4	27.532	0	1235.829	0	19.0	4	5.9	4	-1E+10	1	-1E+10	1	-1E+10	1	-1E+10	1	-1E+10	1	-1E+10	1
4901784	98	C	03/11/2018	10:49	-132.985	43.393	0	1254.50	0	3.0860	0	34.5620	4	27.536	0	1240.760	0	19.3	4	6.0	4	-1E+10	1	-1E+10	1	-1E+10	1	-1E+10	1	-1E+10	1	-1E+10	1
4901784	98	C	03/11/2018	10:49	-132.985	43.393	0	1259.60	0	3.0850	0	34.5630	4	27.537	0	1245.789	0	19.5	4	6.0	4	-1E+10	1	-1E+10	1	-1E+10	1	-1E+10	1	-1E+10	1	-1E+10	1
4901784	98	C	03/11/2018	10:49	-132.985	43.393	0	1264.60	0	3.0730	0	34.5640	4	27.539	0	1250.719	0	19.5	4	6.0	4	-1E+10	1	-1E+10	1	-1E+10	1	-1E+10	1	-1E+10	1	-1E+10	1
4901784	98	C	03/11/2018	10:49	-132.985	43.393	0	1269.70	0	3.0560	0	34.5640	4	27.540	0	1255.748	0	19.7	4	6.1	4	-1E+10	1	-1E+10	1	-1E+10	1	-1E+10	1	-1E+10	1	-1E+10	1
4901784	98	C	03/11/2018	10:49	-132.985	43.393	0	1274.80	0	3.0520	0	34.5680	4	27.544	0	1260.777	0	20.3	4	6.3	4	-1E+10	1	-1E+10	1	-1E+10	1	-1E+10	1	-1E+10	1	-1E+10	1
4901784	98	C	03/11/2018	10:49	-132.985	43.393	0	1279.90	0	3.0550	0	34.5700	4	27.545	0	1265.805	0	20.4	4	6.3	4	-1E+10	1	-1E+10	1	-1E+10	1	-1E+10	1	-1E+10	1	-1E+10	1
4901784	98	C	03/11/2018	10:49	-132.985	43.393	0	1285.10	0	3.0440	0	34.5710	4	27.547	0	1270.932	0	20.6	4	6.4	4	-1E+10	1	-1E+10	1	-1E+10	1	-1E+10	1	-1E+10	1	-1E+10	1
4901784	98	C	03/11/2018	10:49	-132.985	43.393	0	1290.40	0	3.0370	0	34.5720	4	27.548	0	1276.158	0	20.8	4	6.4	4	-1E+10	1	-1E+10	1	-1E+10	1	-1E+10	1	-1E+10	1	-1E+10	1
4901784	98	C	03/11/2018	10:49	-132.985	43.393	0	1295.70	0	3.0170	0	34.5740	4	27.552	0	1281.383	0	20.9	4	6.5	4	-1E+10	1	-1E+10	1	-1E+10	1	-1E+10	1	-1E+10	1	-1E+10	1
4901784	98	C	03/11/2018	10:49	-132.985	43.393	0	1300.10	0	3.0090	0	34.5750	4	27.553	0	1285.721	0	21.1	4	6.5	4	-1E+10	1	-1E+10	1	-1E+10	1	-1E+10	1	-1E+10	1	-1E+10	1
4901784	98	C	03/11/2018	10:49	-132.985	43.393	0	1304.50	0	3.0060	0	34.5760	4	27.555	0	1290.059	0	21.4	4	6.6	4	-1E+10	1	-1E+10	1	-1E+10	1	-1E+10	1	-1E+10	1	-1E+10	1
4901784	98	C	03/11/2018	10:49	-132.985	43.393	0	1309.90	0	3.0010	0	34.5780	4	27.557	0	1295.383	0	21.7	4	6.7	4	-1E+10	1	-1E+10	1	-1E+10	1	-1E+10	1	-1E+10	1	-1E+10	1
4901784	98	C	03/11/2018	10:49	-132.985	43.393	0	1315.20	0	2.9970	0	34.5790	4	27.558	0	1300.608	0	21.9	4	6.8	4	-1E+10	1	-1E+10	1	-1E+10	1	-1E+10	1	-1E+10	1	-1E+10	1
4901784	98	C	03/11/2018	10:49	-132.985	43.393	0	1320.60	0	2.9910	0	34.5820	4	27.561	0	1305.931	0	22.2	4	6.8	4	-1E+10	1	-1E+10	1	-1E+10	1	-1E+10	1	-1E+10	1	-1E+10	1
4901784	98	C	03/11/2018	10:49	-132.985	43.393	0	1325.10	0	2.9840	0	34.5820	4	27.561	0	1310.367	0	22.2	4	6.9	4	-1E+10	1	-1E+10	1	-1E+10	1	-1E+10	1	-1E+10	1	-1E+10	1
4901784	98	C	03/11/2018	10:49	-132.985	43.393	0	1329.60	0	2.9760	0	34.5830	4	27.563	0	1314.803	0	22.2	4	6.9	4	-1E+10	1	-1E+10	1	-1E+10	1	-1E+10	1	-1E+10	1	-1E+10	1
4901784	98	C	03/11/2018	10:49	-132.985	43.393	0	1335.00	0	2.9680	0	34.5830	4	27.564	0	1320.126	0	22.3	4	6.9	4	-1E+10	1	-1E+10	1	-1E+10	1	-1E+10	1	-1E+10	1	-1E+10	1
4901784	98	C	03/11/2018	10:49	-132.985	43.393	0	1340.40	0	2.9540	0	34.5830	4	27.565	0	1325.449	0	22.3	4	6.9	4	-1E+10	1	-1E+10	1	-1E+10	1	-1E+10	1	-1E+10	1	-1E+10	1
4901784	98	C	03/11/2018	10:49	-132.985	43.393	0	1344.90	0	2.9400	0	34.5840	4	27.567	0	1329.885	0	22.4	4	6.9	4	-1E+10	1	-1E+10	1	-1E+10	1	-1E+10	1	-1E+10	1	-1E+10	1
4901784	98	C	03/11/2018	10:49	-132.985	43.393	0	1349.50	0	2.9310	0	34.5840	4	27.568	0	1334.419	0	22.5	4	6.9	4	-1E+10	1	-1E+10	1	-1E+10	1	-1E+10	1	-1E+10	1	-1E+10	1
4901784	98	C	03/11/2018	10:49	-132.985	43.393	0	1354.90	0	2.9300	0	34.5860	4	27.570	0	1339.741	0	22.8	4	7.0	4	-1E+10	1	-1E+10	1	-1E+10	1	-1E+10	1	-1E+10	1	-1E+10	1
4901784	98	C	03/11/2018	10:49	-132.985	43.393	0	1360.40	0	2.9220	0	34.5880	4	27.572	0	1345.162	0	23.1	4	7.1	4	-1E+10	1	-1E+10	1	-1E+10	1	-1E+10	1	-1E+10	1	-1E+10	1
4901784	98	C	03/11/2018	10:49	-132.985	43.393	0	1364.90	0	2.9160	0	34.5890	4	27.573	0	1349.597	0	23.1	4	7.1	4	-1E+10	1	-1E+10	1	-1E+10	1	-1E+10	1	-1E+10	1	-1E+10	1
4901784	98	C	03/11/2018	10:49	-132.985	43.393	0	1369.60	0	2.9060	0	34.5880	4	27.573	0	1354.229	0	23.1	4	7.1	4	-1E+10	1	-1E+10	1	-1E+10	1	-1E+10	1	-1E+10	1	-1E+10	1
4901784	98	C	03/11/2018	10:49	-132.985	43.393	0	1375.10	0	2.8960	0	34.5890	4	27.575	0	1359.650	0	23.2	4	7.1	4	-1E+10	1	-1E+10	1	-1E+10	1	-1E+10	1	-1E+10	1	-1E+10	1
4901784	98	C	03/11/2018	10:49	-132.985	43.393	0	1379.70	0	2.8830	0	34.5890	4	27.576	0	1364.183	0	23.3	4	7.2	4	-1E+10	1	-1E+10	1	-1E+10	1	-1E+10	1	-1E+10	1	-1E+10	1
4901784	98	C	03/11/2018	10:49	-132.985	43.393	0	1384.40	0	2.8770	0	34.5900	4	27.578	0	1368.815	0	23.4	4	7.2	4	-1E+10	1	-1E+10	1	-1E+10	1	-1E+10	1	-1E+10	1	-1E+10	1
4901784	98	C	03/11/2018	10:49	-132.985	43.393	0	1390.00	0	2.8690	0	34.5910	4	27.579	0	1374.334	0	23.6	4	7.3	4	-1E+10	1	-1E+10	1	-1E+10	1	-1E+10	1	-1E+10	1	-1E+10	1
4901784	98	C	03/11/2018	10:49	-132.985	43.393	0	1395.60	0	2.8560	0	34.5920	4	27.581	0	1379.853	0	23.7	4	7.3	4	-1E+10	1	-1E+10	1	-1E+10	1	-1E+10	1	-1E+10	1	-1E+10	1
4901784	98	C	03/11/2018	10:49	-132.985	43.393	0	1400.30	0	2.8500	0	34.5930	4	27.583	0	1384.484	0	23.7	4	7.3	4	-1E+10	1	-1E+10	1	-1E+10	1	-1E+10	1	-1E+10	1	-1E+10	1
4901784	98	C	03/11/2018	10:49	-132.985	43.393	0	1404.90	0	2.8450	0	34.5930	4	27.583	0	1389.017	0	23.8	4	7.3	4	-1E+10	1	-1E+10	1	-1E+10	1	-1E+10	1	-1E+10	1	-1E+10	1
4901784	98	C	03/11/2018	10:49	-132.985	43.393	0	1409.70	0	2.8430	0	34.5930	4	27.583	0	1393.747	0	23.9	4	7.3	4	-1E+10	1	-1E+10	1	-1E+10	1	-1E+10	1	-1E+10	1	-1E+10	1
4901784	98	C	03/11/2018	10:49	-132.985	43.393	0	1414.50	0	2.8380	0	34.5930	4	27.584	0	1398.477	0	24.0	4	7.4	4	-1E+10	1	-1E+10	1	-1E+10	1	-1E+10	1	-1E+10	1	-1E+10	1
4901784	98	C	03/11/2018	10:49	-132.985	43.393	0	1419.40	0	2.8240	0	34.5940	4	27.586	0	1403.305	0	24.1	4	7.4	4	-1E+10	1	-1E+10	1	-1E+10	1	-1E+10	1	-1E+10	1	-1E+10	1
4901784	98	C	03/11/2018	10:49	-132.985	43.393	0	1424.30	0	2.8160	0	34.5940	4	27.587	0	1408.133	0	24.1	4	7.4	4	-1E+10	1	-1E+10	1	-1E+10	1	-1E+10	1	-1E+10	1	-1E+10	1
4901784	98	C	03/11/2018	10:49	-132.985	43.393	0	1429.20	0	2.8070	0	34.5950	4	27.588	0	1412.961	0	24.1	4	7.4	4	-1E+10	1	-1E+10	1	-1E+10	1	-1E+10	1	-1E+10	1	-1E+10	1
4901784	98	C	03/11/2018	10:49	-132.985	43.393	0	1435.00	0	2.7980	0	34.5950	4	27.589	0	1418.676	0	24.1	4	7.4	4	-1E+10	1	-1E+10	1	-1E+10	1	-1E+10	1	-1E+10	1	-1E+10	1
4901784	98	C	03/11/2018	10:49	-132.985	43.393	0	1440.80	0	2.7900	0	34.5950	4	27.590	0	1424.390	0	24.2	4	7.4	4	-1E+10	1	-1E+10	1	-1E+10	1	-1E+10	1	-1E+10	1	-1E+10	1
4901784	98	C	03/11/2018	10:49	-132.985	43.393	0	1445.80	0	2.7740	0	34.5950	4	27.591	0	1429.316	0	24.2	4	7.5	4	-1E+10	1	-1E+10	1	-1E+10	1	-1E+10	1	-1E+10	1	-1E+10	1
4901784	98	C	03/11/2018	10:49	-132.985	43.393	0	1450.80	0	2.7610	0	34.5960	4	27.593	0	1434.242	0	24.3	4	7.5	4	-1E+10	1	-1E+10	1	-1E+10	1	-1E+10	1	-1E+10	1	-1E+10	1
4901784	98	C	03/11/2018	10:49	-132.985	43.393	0	1455.80	0	2.7520	0	34.5970	4	27.595	0	1439.168	0	24.4	4	7.5	4	-1E+10	1	-1E+10	1	-1E+10	1	-1E+10	1	-1E+10	1	-1E+10	1
4901784	98	C	03/11/2018	10:49	-132.985	43.393	0	1460.00	0	2.7440	0	34.5970	4	27.595	0	1443.306	0	24.4	4	7.5	4	-1E+10	1	-1E+10	1	-1E+10	1	-1E+10	1	-1E+10	1	-1E+10	1
4901784	98	C	03/11/2018	10:49	-132.985	43.393	0	1464.30	0	2.7420	0	34.5970	4	27.596	0	1447.542	0	24.4	4	7.5	4	-1E+10	1	-1E+10	1	-1E+10	1	-1E+10	1	-1E+10	1	-1E+10	1
4901784	98	C	03/11/2018	10:49	-132.985	43.393	0	1469.40	0	2.7390	0	34.5970	4	27.596	0	1452.566	0	24.5	4	7.5	4	-1E+10	1	-1E+10	1	-1E+10	1	-1E+10	1	-1E+10	1	-1E+10	1
4901784	98	C	03/11/2018	10:49	-132.985	43.393	0	1474.60	0	2.7350	0	34.5970	4	27.596	0	1457.689	0	24.5	4	7.5	4	-1E+10	1	-1E+10	1	-1E+10	1	-1E+10	1	-1E+10	1	-1E+10	1
4901784	98	C	03/11/2018	10:49	-132.985	43.393	0	1479.80	0	2.7190	0	34.5980	4	27.599	0	1462.811	0	24.6	4	7.6	4	-1E+10	1	-1E+10	1	-1E+10	1	-1E+10	1	-1E+10	1	-1E+10	1
4901784	98	C	03/11/2018	10:49	-132.985	43.393	0	1484.90	0	2.7070	0	34.5980	4	27.600	0	1467.835	0	24.8	4	7.6	4	-1E+10	1	-1E+10	1	-1E+10	1	-1E+10	1	-1E+10	1	-1E+10	1
4901784	98	C	03/11/2018	10:49	-132.985	43.393	0	1490.10	0	2.6960	0	34.5990	4	27.601	0	1472.957	0	24.9	4	7.6	4	-1E+10	1	-1E+10	1	-1E+10	1	-1E+10	1	-1E+10	1	-1E+10	1
4901784	98	C	03/11/2018	10:49	-132.985	43.393	0	1495.30	0	2.6870	0	34.6000	4	27.603	0	1478.079	0	25.0	4	7.7	4	-1E+10	1	-1E+10	1	-1E+10	1	-1E+10	1	-1E+10	1	-1E+10	1
4901784	98	C	03/11/2018	10:49	-132.985	43.393	0	1500.60	0	2.6800	0	34.6000	4	27.604	0	1483.299	0	25.1	4	7.7	4	-1E+10	1	-1E+10	1	-1E+10	1	-1E+10	1	-1E+10	1	-1E+10	1
4901784	98	C	03/11/2018	10:49	-132.985	43.393	0	1505.00	0	2.6750	0	34.6000	4	27.604	0	1487.633	0	25.2	4	7.7	4	-1E+10	1	-1E+10	1	-1E+10	1	-1E+10	1	-1E+10	1	-1E+10	1
4901784	98	C	03/11/2018	10:49	-132.985	43.393	0	1509.40	0	2.6710	0	34.6000	4	27.604	0	1491.967	0	25.4	4	7.8	4	-1E+10	1	-1E+10	1	-1E+10	1	-1E+10	1	-1E+10	1	-1E+10	1
4901784	98	C	03/11/2018	10:49	-132.985	43.393	0	1514.70	0	2.6490	0	34.6010	4	27.607	0	1497.187	0	25.6	4	7.9	4	-1E+10	1	-1E+10	1	-1E+10	1	-1E+10	1	-1E+10	1	-1E+10	1
4901784	98	C	03/11/2018	10:49	-132.985	43.393	0	1520.00	0	2.6290	0	34.6030	4	27.610	0	1502.407	0	25.9	4	7.9	4	-1E+10	1	-1E+10	1	-1E+10	1	-1E+10	1	-1E+10	1	-1E+10	1
4901784	98	C	03/11/2018	10:49	-132.985	43.393	0	1525.30	0	2.6160	0	34.6040	4	27.612	0	1507.627	0	26.1	4	8.0	4	-1E+10	1	-1E+10	1	-1E+10	1	-1E+10	1	-1E+10	1	-1E+10	1
4901784	98	C	03/11/2018	10:49	-132.985	43.393	0	1529.80	0	2.6070	0	34.6050	4	27.614	0	1512.058	0	26.2	4	8.0	4	-1E+10	1	-1E+10	1	-1E+10	1	-1E+10	1	-1E+10	1	-1E+10	1
4901784	98	C	03/11/2018	10:49	-132.985	43.393	0	1534.30	0	2.6030	0	34.6040	4	27.614	0	1516.490	0	26.4	4	8.1	4	-1E+10	1	-1E+10	1	-1E+10	1	-1E+10	1	-1E+10	1	-1E+10	1
4901784	98	C	03/11/2018	10:49	-132.985	43.393	0	1539.70	0	2.5890	0	34.6060	4	27.616	0	1521.808	0	26.7	4	8.2	4	-1E+10	1	-1E+10	1	-1E+10	1	-1E+10	1	-1E+10	1	-1E+10	1
4901784	98	C	03/11/2018	10:49	-132.985	43.393	0	1545.00	0	2.5740	0	34.6070	4	27.618	0	1527.027	0	26.9	4	8.2	4	-1E+10	1	-1E+10	1	-1E+10	1	-1E+10	1	-1E+10	1	-1E+10	1
4901784	98	C	03/11/2018	10:49	-132.985	43.393	0	1550.40	0	2.5670	0	34.6070	4	27.619	0	1532.345	0	27.2	4	8.3	4	-1E+10	1	-1E+10	1	-1E+10	1	-1E+10	1	-1E+10	1	-1E+10	1
4901784	98	C	03/11/2018	10:49	-132.985	43.393	0	1554.90	0	2.5540	0	34.6090	4	27.622	0	1536.776	0	27.4	4	8.4	4	-1E+10	1	-1E+10	1	-1E+10	1	-1E+10	1	-1E+10	1	-1E+10	1
4901784	98	C	03/11/2018	10:49	-132.985	43.393	0	1559.40	0	2.5450	0	34.6090	4	27.623	0	1541.207	0	27.6	4	8.4	4	-1E+10	1	-1E+10	1	-1E+10	1	-1E+10	1	-1E+10	1	-1E+10	1
4901784	98	C	03/11/2018	10:49	-132.985	43.393	0	1564.70	0	2.5370	0	34.6100	4	27.624	0	1546.426	0	27.9	4	8.5	4	-1E+10	1	-1E+10	1	-1E+10	1	-1E+10	1	-1E+10	1	-1E+10	1
4901784	98	C	03/11/2018	10:49	-132.985	43.393	0	1570.10	0	2.5240	0	34.6110	4	27.626	0	1551.743	0	28.3	4	8.6	4	-1E+10	1	-1E+10	1	-1E+10	1	-1E+10	1	-1E+10	1	-1E+10	1
4901784	98	C	03/11/2018	10:49	-132.985	43.393	0	1575.50	0	2.5150	0	34.6130	4	27.628	0	1557.060	0	28.5	4	8.7	4	-1E+10	1	-1E+10	1	-1E+10	1	-1E+10	1	-1E+10	1	-1E+10	1
4901784	98	C	03/11/2018	10:49	-132.985	43.393	0	1580.00	0	2.5080	0	34.6130	4	27.629	0	1561.491	0	28.9	4	8.8	4	-1E+10	1	-1E+10	1	-1E+10	1	-1E+10	1	-1E+10	1	-1E+10	1
4901784	98	C	03/11/2018	10:49	-132.985	43.393	0	1584.30	0	2.4870	0	34.6150	4	27.632	0	1565.725	0	29.4	4	9.0	4	-1E+10	1	-1E+10	1	-1E+10	1	-1E+10	1	-1E+10	1	-1E+10	1
4901784	98	C	03/11/2018	10:49	-132.985	43.393	0	1589.60	0	2.4660	0	34.6170	4	27.636	0	1570.943	0	29.9	4	9.1	4	-1E+10	1	-1E+10	1	-1E+10	1	-1E+10	1	-1E+10	1	-1E+10	1
4901784	98	C	03/11/2018	10:49	-132.985	43.393	0	1595.00	0	2.4560	0	34.6180	4	27.637	0	1576.259	0	30.2	4	9.2	4	-1E+10	1	-1E+10	1	-1E+10	1	-1E+10	1	-1E+10	1	-1E+10	1
4901784	98	C	03/11/2018	10:49	-132.985	43.393	0	1600.40	0	2.4480	0	34.6190	4	27.639	0	1581.576	0	30.6	4	9.3	4	-1E+10	1	-1E+10	1	-1E+10	1	-1E+10	1	-1E+10	1	-1E+10	1
4901784	98	C	03/11/2018	10:49	-132.985	43.393	0	1604.90	0	2.4380	0	34.6210	4	27.641	0	1586.006	0	31.0	4	9.5	4	-1E+10	1	-1E+10	1	-1E+10	1	-1E+10	1	-1E+10	1	-1E+10	1
4901784	98	C	03/11/2018	10:49	-132.985	43.393	0	1609.50	0	2.4290	0	34.6220	4	27.643	0	1590.535	0	31.4	4	9.6	4	-1E+10	1	-1E+10	1	-1E+10	1	-1E+10	1	-1E+10	1	-1E+10	1
4901784	98	C	03/11/2018	10:49	-132.985	43.393	0	1614.90	0	2.4250	0	34.6240	4	27.645	0	1595.851	0	31.8	4	9.7	4	-1E+10	1	-1E+10	1	-1E+10	1	-1E+10	1	-1E+10	1	-1E+10	1
4901784	98	C	03/11/2018	10:49	-132.985	43.393	0	1620.30	0	2.4210	0	34.6250	4	27.646	0	1601.167	0	32.2	4	9.8	4	-1E+10	1	-1E+10	1	-1E+10	1	-1E+10	1	-1E+10	1	-1E+10	1
4901784	98	C	03/11/2018	10:49	-132.985	43.393	0	1625.60	0	2.4180	0	34.6260	4	27.647	0	1606.384	0	32.7	4	10.0	4	-1E+10	1	-1E+10	1	-1E+10	1	-1E+10	1	-1E+10	1	-1E+10	1
4901784	98	C	03/11/2018	10:49	-132.985	43.393	0	1630.50	0	2.3960	0	34.6290	4	27.651	0	1611.207	0	33.5	4	10.2	4	-1E+10	1	-1E+10	1	-1E+10	1	-1E+10	1	-1E+10	1	-1E+10	1
4901784	98	C	03/11/2018	10:49	-132.985	43.393	0	1635.40	0	2.3830	0	34.6300	4	27.653	0	1616.031	0	33.8	4	10.3	4	-1E+10	1	-1E+10	1	-1E+10	1	-1E+10	1	-1E+10	1	-1E+10	1
4901784	98	C	03/11/2018	10:49	-132.985	43.393	0	1640.30	0	2.3740	0	34.6310	4	27.655	0	1620.854	0	34.2	4	10.4	4	-1E+10	1	-1E+10	1	-1E+10	1	-1E+10	1	-1E+10	1	-1E+10	1
4901784	98	C	03/11/2018	10:49	-132.985	43.393	0	1645.20	0	2.3600	0	34.6320	4	27.657	0	1625.677	0	34.6	4	10.5	4	-1E+10	1	-1E+10	1	-1E+10	1	-1E+10	1	-1E+10	1	-1E+10	1
4901784	98	C	03/11/2018	10:49	-132.985	43.393	0	1650.10	0	2.3410	0	34.6330	4	27.659	0	1630.500	0	35.3	4	10.7	4	-1E+10	1	-1E+10	1	-1E+10	1	-1E+10	1	-1E+10	1	-1E+10	1
4901784	98	C	03/11/2018	10:49	-132.985	43.393	0	1655.10	0	2.3280	0	34.6350	4	27.662	0	1635.421	0	35.7	4	10.9	4	-1E+10	1	-1E+10	1	-1E+10	1	-1E+10	1	-1E+10	1	-1E+10	1
4901784	98	C	03/11/2018	10:49	-132.985	43.393	0	1660.20	0	2.3190	0	34.6360	4	27.664	0	1640.441	0	36.0	4	10.9	4	-1E+10	1	-1E+10	1	-1E+10	1	-1E+10	1	-1E+10	1	-1E+10	1
4901784	98	C	03/11/2018	10:49	-132.985	43.393	0	1665.20	0	2.3090	0	34.6370	4	27.665	0	1645.362	0	36.4	4	11.1	4	-1E+10	1	-1E+10	1	-1E+10	1	-1E+10	1	-1E+10	1	-1E+10	1
4901784	98	C	03/11/2018	10:49	-132.985	43.393	0	1670.20	0	2.2990	0	34.6390	4	27.668	0	1650.283	0	36.7	4	11.2	4	-1E+10	1	-1E+10	1	-1E+10	1	-1E+10	1	-1E+10	1	-1E+10	1
4901784	98	C	03/11/2018	10:49	-132.985	43.393	0	1675.30	0	2.2980	0	34.6390	4	27.668	0	1655.302	0	36.9	4	11.2	4	-1E+10	1	-1E+10	1	-1E+10	1	-1E+10	1	-1E+10	1	-1E+10	1
4901784	98	C	03/11/2018	10:49	-132.985	43.393	0	1680.50	0	2.2950	0	34.6390	4	27.668	0	1660.420	0	37.1	4	11.3	4	-1E+10	1	-1E+10	1	-1E+10	1	-1E+10	1	-1E+10	1	-1E+10	1
4901784	98	C	03/11/2018	10:49	-132.985	43.393	0	1685.60	0	2.2870	0	34.6400	4	27.669	0	1665.439	0	37.5	4	11.4	4	-1E+10	1	-1E+10	1	-1E+10	1	-1E+10	1	-1E+10	1	-1E+10	1
4901784	98	C	03/11/2018	10:49	-132.985	43.393	0	1690.80	0	2.2680	0	34.6420	4	27.673	0	1670.556	0	38.1	4	11.6	4	-1E+10	1	-1E+10	1	-1E+10	1	-1E+10	1	-1E+10	1	-1E+10	1
4901784	98	C	03/11/2018	10:49	-132.985	43.393	0	1695.10	0	2.2610	0	34.6430	4	27.674	0	1674.788	0	38.5	4	11.7	4	-1E+10	1	-1E+10	1	-1E+10	1	-1E+10	1	-1E+10	1	-1E+10	1
4901784	98	C	03/11/2018	10:49	-132.985	43.393	0	1699.40	0	2.2530	0	34.6440	4	27.675	0	1679.019	0	38.9	4	11.8	4	-1E+10	1	-1E+10	1	-1E+10	1	-1E+10	1	-1E+10	1	-1E+10	1
4901784	98	C	03/11/2018	10:49	-132.985	43.393	0	1704.60	0	2.2470	0	34.6450	4	27.677	0	1684.136	0	39.4	4	11.9	4	-1E+10	1	-1E+10	1	-1E+10	1	-1E+10	1	-1E+10	1	-1E+10	1
4901784	98	C	03/11/2018	10:49	-132.985	43.393	0	1709.80	0	2.2440	0	34.6460	4	27.678	0	1689.253	0	39.9	4	12.1	4	-1E+10	1	-1E+10	1	-1E+10	1	-1E+10	1	-1E+10	1	-1E+10	1
4901784	98	C	03/11/2018	10:49	-132.985	43.393	0	1715.00	0	2.2410	0	34.6480	4	27.680	0	1694.370	0	40.4	4	12.3	4	-1E+10	1	-1E+10	1	-1E+10	1	-1E+10	1	-1E+10	1	-1E+10	1
4901784	98	C	03/11/2018	10:49	-132.985	43.393	0	1720.20	0	2.2370	0	34.6490	4	27.681	0	1699.486	0	40.9	4	12.4	4	-1E+10	1	-1E+10	1	-1E+10	1	-1E+10	1	-1E+10	1	-1E+10	1
4901784	98	C	03/11/2018	10:49	-132.985	43.393	0	1725.40	0	2.2290	0	34.6500	4	27.682	0	1704.603	0	41.5	4	12.6	4	-1E+10	1	-1E+10	1	-1E+10	1	-1E+10	1	-1E+10	1	-1E+10	1
4901784	98	C	03/11/2018	10:49	-132.985	43.393	0	1729.90	0	2.2260	0	34.6510	4	27.683	0	1709.031	0	42.0	4	12.7	4	-1E+10	1	-1E+10	1	-1E+10	1	-1E+10	1	-1E+10	1	-1E+10	1
4901784	98	C	03/11/2018	10:49	-132.985	43.393	0	1734.30	0	2.2220	0	34.6530	4	27.685	0	1713.360	0	42.4	4	12.9	4	-1E+10	1	-1E+10	1	-1E+10	1	-1E+10	1	-1E+10	1	-1E+10	1
4901784	98	C	03/11/2018	10:49	-132.985	43.393	0	1739.70	0	2.2110	0	34.6540	4	27.687	0	1718.673	0	42.8	4	13.0	4	-1E+10	1	-1E+10	1	-1E+10	1	-1E+10	1	-1E+10	1	-1E+10	1
4901784	98	C	03/11/2018	10:49	-132.985	43.393	0	1745.10	0	2.2040	0	34.6550	4	27.688	0	1723.986	0	43.0	4	13.0	4	-1E+10	1	-1E+10	1	-1E+10	1	-1E+10	1	-1E+10	1	-1E+10	1
4901784	98	C	03/11/2018	10:49	-132.985	43.393	0	1750.40	0	2.1970	0	34.6550	4	27.689	0	1729.200	0	43.2	4	13.1	4	-1E+10	1	-1E+10	1	-1E+10	1	-1E+10	1	-1E+10	1	-1E+10	1
4901784	98	C	03/11/2018	10:49	-132.985	43.393	0	1754.90	0	2.1940	0	34.6560	4	27.690	0	1733.627	0	43.3	4	13.1	4	-1E+10	1	-1E+10	1	-1E+10	1	-1E+10	1	-1E+10	1	-1E+10	1
4901784	98	C	03/11/2018	10:49	-132.985	43.393	0	1759.30	0	2.1830	0	34.6560	4	27.691	0	1737.956	0	43.4	4	13.2	4	-1E+10	1	-1E+10	1	-1E+10	1	-1E+10	1	-1E+10	1	-1E+10	1
4901784	98	C	03/11/2018	10:49	-132.985	43.393	0	1764.80	0	2.1770	0	34.6570	4	27.692	0	1743.366	0	43.5	4	13.2	4	-1E+10	1	-1E+10	1	-1E+10	1	-1E+10	1	-1E+10	1	-1E+10	1
4901784	98	C	03/11/2018	10:49	-132.985	43.393	0	1770.20	0	2.1710	0	34.6570	4	27.693	0	1748.678	0	43.7	4	13.2	4	-1E+10	1	-1E+10	1	-1E+10	1	-1E+10	1	-1E+10	1	-1E+10	1
4901784	98	C	03/11/2018	10:49	-132.985	43.393	0	1774.80	0	2.1700	0	34.6570	4	27.693	0	1753.204	0	43.9	4	13.3	4	-1E+10	1	-1E+10	1	-1E+10	1	-1E+10	1	-1E+10	1	-1E+10	1
4901784	98	C	03/11/2018	10:49	-132.985	43.393	0	1779.40	0	2.1630	0	34.6580	4	27.694	0	1757.729	0	44.3	4	13.4	4	-1E+10	1	-1E+10	1	-1E+10	1	-1E+10	1	-1E+10	1	-1E+10	1
4901784	98	C	03/11/2018	10:49	-132.985	43.393	0	1785.00	0	2.1540	0	34.6590	4	27.696	0	1763.237	0	44.7	4	13.5	4	-1E+10	1	-1E+10	1	-1E+10	1	-1E+10	1	-1E+10	1	-1E+10	1
4901784	98	C	03/11/2018	10:49	-132.985	43.393	0	1790.50	0	2.1480	0	34.6600	4	27.697	0	1768.647	0	45.0	4	13.6	4	-1E+10	1	-1E+10	1	-1E+10	1	-1E+10	1	-1E+10	1	-1E+10	1
4901784	98	C	03/11/2018	10:49	-132.985	43.393	0	1795.30	0	2.1450	0	34.6600	4	27.697	0	1773.369	0	45.2	4	13.7	4	-1E+10	1	-1E+10	1	-1E+10	1	-1E+10	1	-1E+10	1	-1E+10	1
4901784	98	C	03/11/2018	10:49	-132.985	43.393	0	1799.90	0	2.1420	0	34.6610	4	27.699	0	1777.893	0	45.5	4	13.8	4	-1E+10	1	-1E+10	1	-1E+10	1	-1E+10	1	-1E+10	1	-1E+10	1
4901784	98	C	03/11/2018	10:49	-132.985	43.393	0	1805.50	0	2.1390	0	34.6620	4	27.700	0	1783.401	0	45.8	4	13.9	4	-1E+10	1	-1E+10	1	-1E+10	1	-1E+10	1	-1E+10	1	-1E+10	1
4901784	98	C	03/11/2018	10:49	-132.985	43.393	0	1810.10	0	2.1410	0	34.6630	4	27.700	0	1787.926	0	46.2	4	14.0	4	-1E+10	1	-1E+10	1	-1E+10	1	-1E+10	1	-1E+10	1	-1E+10	1
4901784	98	C	03/11/2018	10:49	-132.985	43.393	0	1814.70	0	2.1440	0	34.6640	4	27.701	0	1792.450	0	46.5	4	14.1	4	-1E+10	1	-1E+10	1	-1E+10	1	-1E+10	1	-1E+10	1	-1E+10	1
4901784	98	C	03/11/2018	10:49	-132.985	43.393	0	1820.10	0	2.1390	0	34.6650	4	27.702	0	1797.761	0	46.8	4	14.2	4	-1E+10	1	-1E+10	1	-1E+10	1	-1E+10	1	-1E+10	1	-1E+10	1
4901784	98	C	03/11/2018	10:49	-132.985	43.393	0	1825.60	0	2.1370	0	34.6660	4	27.703	0	1803.170	0	46.9	4	14.2	4	-1E+10	1	-1E+10	1	-1E+10	1	-1E+10	1	-1E+10	1	-1E+10	1
4901784	98	C	03/11/2018	10:49	-132.985	43.393	0	1830.50	0	2.1310	0	34.6650	4	27.703	0	1807.989	0	47.1	4	14.2	4	-1E+10	1	-1E+10	1	-1E+10	1	-1E+10	1	-1E+10	1	-1E+10	1
4901784	98	C	03/11/2018	10:49	-132.985	43.393	0	1835.40	0	2.1250	0	34.6660	4	27.704	0	1812.808	0	47.1	4	14.3	4	-1E+10	1	-1E+10	1	-1E+10	1	-1E+10	1	-1E+10	1	-1E+10	1
4901784	98	C	03/11/2018	10:49	-132.985	43.393	0	1840.40	0	2.1260	0	34.6660	4	27.704	0	1817.725	0	47.3	4	14.3	4	-1E+10	1	-1E+10	1	-1E+10	1	-1E+10	1	-1E+10	1	-1E+10	1
4901784	98	C	03/11/2018	10:49	-132.985	43.393	0	1845.50	0	2.1220	0	34.6660	4	27.704	0	1822.740	0	47.6	4	14.4	4	-1E+10	1	-1E+10	1	-1E+10	1	-1E+10	1	-1E+10	1	-1E+10	1
4901784	98	C	03/11/2018	10:49	-132.985	43.393	0	1850.60	0	2.1180	0	34.6680	4	27.706	0	1827.755	0	48.0	4	14.5	4	-1E+10	1	-1E+10	1	-1E+10	1	-1E+10	1	-1E+10	1	-1E+10	1
4901784	98	C	03/11/2018	10:49	-132.985	43.393	0	1855.70	0	2.1160	0	34.6690	4	27.707	0	1832.770	0	48.6	4	14.7	4	-1E+10	1	-1E+10	1	-1E+10	1	-1E+10	1	-1E+10	1	-1E+10	1
4901784	98	C	03/11/2018	10:49	-132.985	43.393	0	1860.00	0	2.1090	0	34.6700	4	27.709	0	1836.999	0	48.9	4	14.8	4	-1E+10	1	-1E+10	1	-1E+10	1	-1E+10	1	-1E+10	1	-1E+10	1
4901784	98	C	03/11/2018	10:49	-132.985	43.393	0	1864.30	0	2.1070	0	34.6700	4	27.709	0	1841.227	0	49.1	4	14.9	4	-1E+10	1	-1E+10	1	-1E+10	1	-1E+10	1	-1E+10	1	-1E+10	1
4901784	98	C	03/11/2018	10:49	-132.985	43.393	0	1869.50	0	2.1030	0	34.6710	4	27.710	0	1846.340	0	49.4	4	14.9	4	-1E+10	1	-1E+10	1	-1E+10	1	-1E+10	1	-1E+10	1	-1E+10	1
4901784	98	C	03/11/2018	10:49	-132.985	43.393	0	1874.70	0	2.1000	0	34.6710	4	27.710	0	1851.453	0	49.8	4	15.1	4	-1E+10	1	-1E+10	1	-1E+10	1	-1E+10	1	-1E+10	1	-1E+10	1
4901784	98	C	03/11/2018	10:49	-132.985	43.393	0	1880.00	0	2.0920	0	34.6730	4	27.713	0	1856.664	0	50.3	4	15.2	4	-1E+10	1	-1E+10	1	-1E+10	1	-1E+10	1	-1E+10	1	-1E+10	1
4901784	98	C	03/11/2018	10:49	-132.985	43.393	0	1885.30	0	2.0850	0	34.6740	4	27.714	0	1861.875	0	50.7	4	15.3	4	-1E+10	1	-1E+10	1	-1E+10	1	-1E+10	1	-1E+10	1	-1E+10	1
4901784	98	C	03/11/2018	10:49	-132.985	43.393	0	1890.60	0	2.0800	0	34.6740	4	27.714	0	1867.086	0	51.0	4	15.4	4	-1E+10	1	-1E+10	1	-1E+10	1	-1E+10	1	-1E+10	1	-1E+10	1
4901784	98	C	03/11/2018	10:49	-132.985	43.393	0	1895.10	0	2.0740	0	34.6760	4	27.716	0	1871.510	0	51.2	4	15.5	4	-1E+10	1	-1E+10	1	-1E+10	1	-1E+10	1	-1E+10	1	-1E+10	1
4901784	98	C	03/11/2018	10:49	-132.985	43.393	0	1900.30	0	2.0730	0	34.6750	4	27.716	0	1876.623	0	51.4	4	15.5	4	-1E+10	1	-1E+10	1	-1E+10	1	-1E+10	1	-1E+10	1	-1E+10	1
4901784	98	C	03/11/2018	10:49	-132.985	43.393	0	1905.30	0	2.0690	0	34.6760	4	27.717	0	1881.538	0	51.7	4	15.6	4	-1E+10	1	-1E+10	1	-1E+10	1	-1E+10	1	-1E+10	1	-1E+10	1
4901784	98	C	03/11/2018	10:49	-132.985	43.393	0	1910.10	0	2.0670	0	34.6760	4	27.717	0	1886.257	0	52.0	4	15.7	4	-1E+10	1	-1E+10	1	-1E+10	1	-1E+10	1	-1E+10	1	-1E+10	1
4901784	98	C	03/11/2018	10:49	-132.985	43.393	0	1915.00	0	2.0600	0	34.6770	4	27.718	0	1891.074	0	52.5	4	15.9	4	-1E+10	1	-1E+10	1	-1E+10	1	-1E+10	1	-1E+10	1	-1E+10	1
4901784	98	C	03/11/2018	10:49	-132.985	43.393	0	1920.00	0	2.0520	0	34.6780	4	27.720	0	1895.990	0	53.0	4	16.0	4	-1E+10	1	-1E+10	1	-1E+10	1	-1E+10	1	-1E+10	1	-1E+10	1
4901784	98	C	03/11/2018	10:49	-132.985	43.393	0	1925.00	0	2.0450	0	34.6790	4	27.721	0	1900.905	0	53.4	4	16.1	4	-1E+10	1	-1E+10	1	-1E+10	1	-1E+10	1	-1E+10	1	-1E+10	1
4901784	98	C	03/11/2018	10:49	-132.985	43.393	0	1930.00	0	2.0390	0	34.6800	4	27.723	0	1905.820	0	53.9	4	16.3	4	-1E+10	1	-1E+10	1	-1E+10	1	-1E+10	1	-1E+10	1	-1E+10	1
4901784	98	C	03/11/2018	10:49	-132.985	43.393	0	1935.10	0	2.0310	0	34.6810	4	27.724	0	1910.833	0	54.3	4	16.4	4	-1E+10	1	-1E+10	1	-1E+10	1	-1E+10	1	-1E+10	1	-1E+10	1
4901784	98	C	03/11/2018	10:49	-132.985	43.393	0	1940.20	0	2.0260	0	34.6820	4	27.725	0	1915.846	0	54.8	4	16.5	4	-1E+10	1	-1E+10	1	-1E+10	1	-1E+10	1	-1E+10	1	-1E+10	1
4901784	98	C	03/11/2018	10:49	-132.985	43.393	0	1945.20	0	2.0170	0	34.6830	4	27.727	0	1920.761	0	55.3	4	16.7	4	-1E+10	1	-1E+10	1	-1E+10	1	-1E+10	1	-1E+10	1	-1E+10	1
4901784	98	C	03/11/2018	10:49	-132.985	43.393	0	1950.30	0	2.0090	0	34.6840	4	27.728	0	1925.774	0	55.8	4	16.8	4	-1E+10	1	-1E+10	1	-1E+10	1	-1E+10	1	-1E+10	1	-1E+10	1
4901784	98	C	03/11/2018	10:49	-132.985	43.393	0	1955.40	0	2.0010	0	34.6850	4	27.730	0	1930.786	0	56.1	4	16.9	4	-1E+10	1	-1E+10	1	-1E+10	1	-1E+10	1	-1E+10	1	-1E+10	1
4901784	98	C	03/11/2018	10:49	-132.985	43.393	0	1960.50	0	1.9990	0	34.6850	4	27.730	0	1935.799	0	56.3	4	17.0	4	-1E+10	1	-1E+10	1	-1E+10	1	-1E+10	1	-1E+10	1	-1E+10	1
4901784	98	C	03/11/2018	10:49	-132.985	43.393	0	1965.70	0	1.9980	0	34.6850	4	27.730	0	1940.910	0	56.5	4	17.1	4	-1E+10	1	-1E+10	1	-1E+10	1	-1E+10	1	-1E+10	1	-1E+10	1
4901784	98	C	03/11/2018	10:49	-132.985	43.393	0	1970.80	0	1.9930	0	34.6860	4	27.731	0	1945.922	0	57.1	4	17.2	4	-1E+10	1	-1E+10	1	-1E+10	1	-1E+10	1	-1E+10	1	-1E+10	1
4901784	98	C	03/11/2018	10:49	-132.985	43.393	0	1975.10	0	1.9840	0	34.6870	4	27.733	0	1950.148	0	57.6	4	17.4	4	-1E+10	1	-1E+10	1	-1E+10	1	-1E+10	1	-1E+10	1	-1E+10	1
4901784	98	C	03/11/2018	10:49	-132.985	43.393	0	1979.40	0	1.9750	0	34.6880	4	27.734	0	1954.374	0	58.2	4	17.6	4	-1E+10	1	-1E+10	1	-1E+10	1	-1E+10	1	-1E+10	1	-1E+10	1
4901784	98	C	03/11/2018	10:49	-132.985	43.393	0	1984.60	0	1.9610	0	34.6900	4	27.737	0	1959.485	0	58.7	4	17.7	4	-1E+10	1	-1E+10	1	-1E+10	1	-1E+10	1	-1E+10	1	-1E+10	1
4901784	98	C	03/11/2018	10:49	-132.985	43.393	0	1989.80	0	1.9530	0	34.6900	4	27.738	0	1964.595	0	59.0	4	17.8	4	-1E+10	1	-1E+10	1	-1E+10	1	-1E+10	1	-1E+10	1	-1E+10	1
4901784	98	C	03/11/2018	10:49	-132.985	43.393	0	1995.10	0	1.9480	0	34.6910	4	27.739	0	1969.803	0	59.2	4	17.8	4	-1E+10	1	-1E+10	1	-1E+10	1	-1E+10	1	-1E+10	1	-1E+10	1
4901784	98	C	03/11/2018	10:49	-132.985	43.393	0	2000.40	0	1.9450	0	34.6920	4	27.740	0	1975.012	0	59.4	4	17.9	4	-1E+10	1	-1E+10	1	-1E+10	1	-1E+10	1	-1E+10	1	-1E+10	1
4901784	98	C	03/11/2018	10:49	-132.985	43.393	0	2005.00	0	1.9430	0	34.6920	4	27.740	0	1979.532	0	59.5	4	17.9	4	-1E+10	1	-1E+10	1	-1E+10	1	-1E+10	1	-1E+10	1	-1E+10	1
4901784	98	C	03/11/2018	10:49	-132.985	43.393	0	2010.00	0	1.9420	0	34.6920	4	27.740	0	1984.445	0	59.7	4	18.0	4	-1E+10	1	-1E+10	1	-1E+10	1	-1E+10	1	-1E+10	1	-1E+10	1
4901784	98	C	03/11/2018	10:49	-132.985	43.393	0	2015.20	0	1.9390	0	34.6920	4	27.740	0	1989.555	0	59.9	4	18.1	4	-1E+10	1	-1E+10	1	-1E+10	1	-1E+10	1	-1E+10	1	-1E+10	1
4901784	98	C	03/11/2018	10:49	-132.985	43.393	0	2020.40	0	1.9350	0	34.6930	4	27.742	0	1994.664	0	60.2	4	18.1	4	-1E+10	1	-1E+10	1	-1E+10	1	-1E+10	1	-1E+10	1	-1E+10	1
4901784	98	C	03/11/2018	10:49	-132.985	43.393	0																										
4901784	99	C	03/21/2018	10:41	-132.886	43.416	0	3.30	0	9.6140	0	32.8030	4	25.301	0	3.274	0	272.1	4	96.7	4	-1E+10	1	-1E+10	1	-1E+10	1	-1E+10	1	-1E+10	1	-1E+10	1
4901784	99	C	03/21/2018	10:41	-132.886	43.416	0	4.90	0	9.6110	0	32.8030	4	25.301	0	4.861	0	272.1	4	96.7	4	-1E+10	1	-1E+10	1	-1E+10	1	-1E+10	1	-1E+10	1	-1E+10	1
4901784	99	C	03/21/2018	10:41	-132.886	43.416	0	6.60	0	9.6160	0	32.8030	4	25.300	0	6.547	0	272.1	4	96.7	4	-1E+10	1	-1E+10	1	-1E+10	1	-1E+10	1	-1E+10	1	-1E+10	1
4901784	99	C	03/21/2018	10:41	-132.886	43.416	0	8.30	0	9.6160	0	32.8030	4	25.300	0	8.234	0	272.0	4	96.7	4	-1E+10	1	-1E+10	1	-1E+10	1	-1E+10	1	-1E+10	1	-1E+10	1
4901784	99	C	03/21/2018	10:41	-132.886	43.416	0	10.10	0	9.6150	0	32.8030	4	25.301	0	10.019	0	271.9	4	96.7	4	-1E+10	1	-1E+10	1	-1E+10	1	-1E+10	1	-1E+10	1	-1E+10	1
4901784	99	C	03/21/2018	10:41	-132.886	43.416	0	11.90	0	9.6160	0	32.8030	4	25.301	0	11.805	0	271.7	4	96.6	4	-1E+10	1	-1E+10	1	-1E+10	1	-1E+10	1	-1E+10	1	-1E+10	1
4901784	99	C	03/21/2018	10:41	-132.886	43.416	0	13.70	0	9.6150	0	32.8030	4	25.301	0	13.590	0	271.8	4	96.6	4	-1E+10	1	-1E+10	1	-1E+10	1	-1E+10	1	-1E+10	1	-1E+10	1
4901784	99	C	03/21/2018	10:41	-132.886	43.416	0	15.60	0	9.6170	0	32.8040	4	25.301	0	15.475	0	271.8	4	96.6	4	-1E+10	1	-1E+10	1	-1E+10	1	-1E+10	1	-1E+10	1	-1E+10	1
4901784	99	C	03/21/2018	10:41	-132.886	43.416	0	17.60	0	9.6160	0	32.8030	4	25.301	0	17.459	0	271.8	4	96.6	4	-1E+10	1	-1E+10	1	-1E+10	1	-1E+10	1	-1E+10	1	-1E+10	1
4901784	99	C	03/21/2018	10:41	-132.886	43.416	0	19.50	0	9.6170	0	32.8040	4	25.301	0	19.344	0	271.7	4	96.6	4	-1E+10	1	-1E+10	1	-1E+10	1	-1E+10	1	-1E+10	1	-1E+10	1
4901784	99	C	03/21/2018	10:41	-132.886	43.416	0	21.40	0	9.6180	0	32.8030	4	25.300	0	21.228	0	271.8	4	96.6	4	-1E+10	1	-1E+10	1	-1E+10	1	-1E+10	1	-1E+10	1	-1E+10	1
4901784	99	C	03/21/2018	10:41	-132.886	43.416	0	23.20	0	9.6170	0	32.8030	4	25.301	0	23.014	0	271.8	4	96.6	4	-1E+10	1	-1E+10	1	-1E+10	1	-1E+10	1	-1E+10	1	-1E+10	1
4901784	99	C	03/21/2018	10:41	-132.886	43.416	0	25.10	0	9.6180	0	32.8040	4	25.301	0	24.898	0	271.8	4	96.6	4	-1E+10	1	-1E+10	1	-1E+10	1	-1E+10	1	-1E+10	1	-1E+10	1
4901784	99	C	03/21/2018	10:41	-132.886	43.416	0	27.10	0	9.6170	0	32.8040	4	25.301	0	26.882	0	271.9	4	96.7	4	-1E+10	1	-1E+10	1	-1E+10	1	-1E+10	1	-1E+10	1	-1E+10	1
4901784	99	C	03/21/2018	10:41	-132.886	43.416	0	29.00	0	9.6170	0	32.8040	4	25.301	0	28.767	0	271.8	4	96.6	4	-1E+10	1	-1E+10	1	-1E+10	1	-1E+10	1	-1E+10	1	-1E+10	1
4901784	99	C	03/21/2018	10:41	-132.886	43.416	0	30.90	0	9.6160	0	32.8040	4	25.302	0	30.651	0	271.9	4	96.7	4	-1E+10	1	-1E+10	1	-1E+10	1	-1E+10	1	-1E+10	1	-1E+10	1
4901784	99	C	03/21/2018	10:41	-132.886	43.416	0	32.70	0	9.6160	0	32.8040	4	25.302	0	32.437	0	271.8	4	96.6	4	-1E+10	1	-1E+10	1	-1E+10	1	-1E+10	1	-1E+10	1	-1E+10	1
4901784	99	C	03/21/2018	10:41	-132.886	43.416	0	34.70	0	9.6160	0	32.8040	4	25.302	0	34.420	0	271.8	4	96.6	4	-1E+10	1	-1E+10	1	-1E+10	1	-1E+10	1	-1E+10	1	-1E+10	1
4901784	99	C	03/21/2018	10:41	-132.886	43.416	0	36.60	0	9.6160	0	32.8040	4	25.302	0	36.305	0	271.7	4	96.6	4	-1E+10	1	-1E+10	1	-1E+10	1	-1E+10	1	-1E+10	1	-1E+10	1
4901784	99	C	03/21/2018	10:41	-132.886	43.416	0	38.50	0	9.6140	0	32.8030	4	25.301	0	38.189	0	271.8	4	96.6	4	-1E+10	1	-1E+10	1	-1E+10	1	-1E+10	1	-1E+10	1	-1E+10	1
4901784	99	C	03/21/2018	10:41	-132.886	43.416	0	40.40	0	9.6150	0	32.8030	4	25.301	0	40.074	0	271.7	4	96.6	4	-1E+10	1	-1E+10	1	-1E+10	1	-1E+10	1	-1E+10	1	-1E+10	1
4901784	99	C	03/21/2018	10:41	-132.886	43.416	0	42.30	0	9.6150	0	32.8040	4	25.302	0	41.958	0	271.5	4	96.5	4	-1E+10	1	-1E+10	1	-1E+10	1	-1E+10	1	-1E+10	1	-1E+10	1
4901784	99	C	03/21/2018	10:41	-132.886	43.416	0	44.20	0	9.6160	0	32.8040	4	25.302	0	43.843	0	271.9	4	96.6	4	-1E+10	1	-1E+10	1	-1E+10	1	-1E+10	1	-1E+10	1	-1E+10	1
4901784	99	C	03/21/2018	10:41	-132.886	43.416	0	46.00	0	9.6170	0	32.8030	4	25.301	0	45.628	0	271.5	4	96.5	4	-1E+10	1	-1E+10	1	-1E+10	1	-1E+10	1	-1E+10	1	-1E+10	1
4901784	99	C	03/21/2018	10:41	-132.886	43.416	0	47.90	0	9.6150	0	32.8030	4	25.301	0	47.513	0	271.7	4	96.6	4	-1E+10	1	-1E+10	1	-1E+10	1	-1E+10	1	-1E+10	1	-1E+10	1
4901784	99	C	03/21/2018	10:41	-132.886	43.416	0	49.80	0	9.6150	0	32.8030	4	25.301	0	49.397	0	271.6	4	96.5	4	-1E+10	1	-1E+10	1	-1E+10	1	-1E+10	1	-1E+10	1	-1E+10	1
4901784	99	C	03/21/2018	10:41	-132.886	43.416	0	51.60	0	9.6160	0	32.8030	4	25.301	0	51.182	0	271.6	4	96.5	4	-1E+10	1	-1E+10	1	-1E+10	1	-1E+10	1	-1E+10	1	-1E+10	1
4901784	99	C	03/21/2018	10:41	-132.886	43.416	0	53.50	0	9.6150	0	32.8030	4	25.301	0	53.067	0	271.5	4	96.5	4	-1E+10	1	-1E+10	1	-1E+10	1	-1E+10	1	-1E+10	1	-1E+10	1
4901784	99	C	03/21/2018	10:41	-132.886	43.416	0	55.40	0	9.6220	0	32.8040	4	25.301	0	54.951	0	271.6	4	96.6	4	-1E+10	1	-1E+10	1	-1E+10	1	-1E+10	1	-1E+10	1	-1E+10	1
4901784	99	C	03/21/2018	10:41	-132.886	43.416	0	57.30	0	9.6230	0	32.8040	4	25.301	0	56.835	0	271.4	4	96.5	4	-1E+10	1	-1E+10	1	-1E+10	1	-1E+10	1	-1E+10	1	-1E+10	1
4901784	99	C	03/21/2018	10:41	-132.886	43.416	0	59.20	0	9.6240	0	32.8030	4	25.300	0	58.720	0	271.2	4	96.4	4	-1E+10	1	-1E+10	1	-1E+10	1	-1E+10	1	-1E+10	1	-1E+10	1
4901784	99	C	03/21/2018	10:41	-132.886	43.416	0	61.10	0	9.6230	0	32.8040	4	25.301	0	60.604	0	271.3	4	96.4	4	-1E+10	1	-1E+10	1	-1E+10	1	-1E+10	1	-1E+10	1	-1E+10	1
4901784	99	C	03/21/2018	10:41	-132.886	43.416	0	63.10	0	9.6230	0	32.8040	4	25.301	0	62.587	0	271.2	4	96.4	4	-1E+10	1	-1E+10	1	-1E+10	1	-1E+10	1	-1E+10	1	-1E+10	1
4901784	99	C	03/21/2018	10:41	-132.886	43.416	0	65.00	0	9.6230	0	32.8040	4	25.301	0	64.472	0	270.9	4	96.3	4	-1E+10	1	-1E+10	1	-1E+10	1	-1E+10	1	-1E+10	1	-1E+10	1
4901784	99	C	03/21/2018	10:41	-132.886	43.416	0	66.90	0	9.6230	0	32.8030	4	25.300	0	66.356	0	270.8	4	96.3	4	-1E+10	1	-1E+10	1	-1E+10	1	-1E+10	1	-1E+10	1	-1E+10	1
4901784	99	C	03/21/2018	10:41	-132.886	43.416	0	68.80	0	9.6230	0	32.8020	4	25.300	0	68.240	0	270.5	4	96.2	4	-1E+10	1	-1E+10	1	-1E+10	1	-1E+10	1	-1E+10	1	-1E+10	1
4901784	99	C	03/21/2018	10:41	-132.886	43.416	0	70.70	0	9.6090	0	32.8000	4	25.300	0	70.124	0	270.1	4	96.0	4	-1E+10	1	-1E+10	1	-1E+10	1	-1E+10	1	-1E+10	1	-1E+10	1
4901784	99	C	03/21/2018	10:41	-132.886	43.416	0	72.50	0	9.5870	0	32.7990	4	25.303	0	71.909	0	270.2	4	96.0	4	-1E+10	1	-1E+10	1	-1E+10	1	-1E+10	1	-1E+10	1	-1E+10	1
4901784	99	C	03/21/2018	10:41	-132.886	43.416	0	74.40	0	9.5780	0	32.7990	4	25.305	0	73.794	0	270.1	4	95.9	4	-1E+10	1	-1E+10	1	-1E+10	1	-1E+10	1	-1E+10	1	-1E+10	1
4901784	99	C	03/21/2018	10:41	-132.886	43.416	0	76.30	0	9.5730	0	32.7980	4	25.305	0	75.678	0	269.7	4	95.8	4	-1E+10	1	-1E+10	1	-1E+10	1	-1E+10	1	-1E+10	1	-1E+10	1
4901784	99	C	03/21/2018	10:41	-132.886	43.416	0	78.20	0	9.5690	0	32.7980	4	25.305	0	77.562	0	269.8	4	95.8	4	-1E+10	1	-1E+10	1	-1E+10	1	-1E+10	1	-1E+10	1	-1E+10	1
4901784	99	C	03/21/2018	10:41	-132.886	43.416	0	80.10	0	9.5720	0	32.7970	4	25.304	0	79.446	0	269.4	4	95.7	4	-1E+10	1	-1E+10	1	-1E+10	1	-1E+10	1	-1E+10	1	-1E+10	1
4901784	99	C	03/21/2018	10:41	-132.886	43.416	0	82.00	0	9.5470	0	32.7960	4	25.308	0	81.330	0	269.4	4	95.6	4	-1E+10	1	-1E+10	1	-1E+10	1	-1E+10	1	-1E+10	1	-1E+10	1
4901784	99	C	03/21/2018	10:41	-132.886	43.416	0	83.90	0	9.5430	0	32.7950	4	25.307	0	83.214	0	269.2	4	95.5	4	-1E+10	1	-1E+10	1	-1E+10	1	-1E+10	1	-1E+10	1	-1E+10	1
4901784	99	C	03/21/2018	10:41	-132.886	43.416	0	85.80	0	9.5270	0	32.7940	4	25.309	0	85.098	0	269.1	4	95.5	4	-1E+10	1	-1E+10	1	-1E+10	1	-1E+10	1	-1E+10	1	-1E+10	1
4901784	99	C	03/21/2018	10:41	-132.886	43.416	0	87.70	0	9.5130	0	32.7940	4	25.312	0	86.982	0	268.9	4	95.4	4	-1E+10	1	-1E+10	1	-1E+10	1	-1E+10	1	-1E+10	1	-1E+10	1
4901784	99	C	03/21/2018	10:41	-132.886	43.416	0	89.60	0	9.4980	0	32.7910	4	25.312	0	88.866	0	269.0	4	95.4	4	-1E+10	1	-1E+10	1	-1E+10	1	-1E+10	1	-1E+10	1	-1E+10	1
4901784	99	C	03/21/2018	10:41	-132.886	43.416	0	91.50	0	9.4710	0	32.7890	4	25.314	0	90.750	0	269.1	4	95.4	4	-1E+10	1	-1E+10	1	-1E+10	1	-1E+10	1	-1E+10	1	-1E+10	1
4901784	99	C	03/21/2018	10:41	-132.886	43.416	0	93.40	0	9.4640	0	32.7880	4	25.315	0	92.634	0	268.8	4	95.2	4	-1E+10	1	-1E+10	1	-1E+10	1	-1E+10	1	-1E+10	1	-1E+10	1
4901784	99	C	03/21/2018	10:41	-132.886	43.416	0	95.30	0	9.4620	0	32.7880	4	25.315	0	94.518	0	268.8	4	95.2	4	-1E+10	1	-1E+10	1	-1E+10	1	-1E+10	1	-1E+10	1	-1E+10	1
4901784	99	C	03/21/2018	10:41	-132.886	43.416	0	97.20	0	9.4610	0	32.7870	4	25.315	0	96.402	0	268.5	4	95.1	4	-1E+10	1	-1E+10	1	-1E+10	1	-1E+10	1	-1E+10	1	-1E+10	1
4901784	99	C	03/21/2018	10:41	-132.886	43.416	0	99.10	0	9.4550	0	32.7860	4	25.315	0	98.286	0	268.3	4	95.0	4	-1E+10	1	-1E+10	1	-1E+10	1	-1E+10	1	-1E+10	1	-1E+10	1
4901784	99	C	03/21/2018	10:41	-132.886	43.416	0	102.90	0	9.4430	0	32.7840	4	25.315	0	102.054	0	267.7	4	94.8	4	-1E+10	1	-1E+10	1	-1E+10	1	-1E+10	1	-1E+10	1	-1E+10	1
4901784	99	C	03/21/2018	10:41	-132.886	43.416	0	105.30	0	9.4100	0	32.7800	4	25.317	0	104.434	0	267.1	4	94.5	4	-1E+10	1	-1E+10	1	-1E+10	1	-1E+10	1	-1E+10	1	-1E+10	1
4901784	99	C	03/21/2018	10:41	-132.886	43.416	0	108.00	0	9.4030	0	32.7810	4	25.319	0	107.111	0	265.7	4	94.0	4	-1E+10	1	-1E+10	1	-1E+10	1	-1E+10	1	-1E+10	1	-1E+10	1
4901784	99	C	03/21/2018	10:41	-132.886	43.416	0	110.30	0	9.3930	0	32.7820	4	25.322	0	109.391	0	263.9	4	93.3	4	-1E+10	1	-1E+10	1	-1E+10	1	-1E+10	1	-1E+10	1	-1E+10	1
4901784	99	C	03/21/2018	10:41	-132.886	43.416	0	112.60	0	9.3720	0	32.7780	4	25.322	0	111.672	0	261.3	4	92.4	4	-1E+10	1	-1E+10	1	-1E+10	1	-1E+10	1	-1E+10	1	-1E+10	1
4901784	99	C	03/21/2018	10:41	-132.886	43.416	0	114.90	0	9.3670	0	32.7740	4	25.320	0	113.952	0	257.1	4	90.9	4	-1E+10	1	-1E+10	1	-1E+10	1	-1E+10	1	-1E+10	1	-1E+10	1
4901784	99	C	03/21/2018	10:41	-132.886	43.416	0	117.10	0	9.0860	0	32.8600	4	25.432	0	116.133	0	252.6	4	88.8	4	-1E+10	1	-1E+10	1	-1E+10	1	-1E+10	1	-1E+10	1	-1E+10	1
4901784	99	C	03/21/2018	10:41	-132.886	43.416	0	119.70	0	8.3810	0	33.0220	4	25.666	0	118.711	0	251.3	4	87.1	4	-1E+10	1	-1E+10	1	-1E+10	1	-1E+10	1	-1E+10	1	-1E+10	1
4901784	99	C	03/21/2018	10:41	-132.886	43.416	0	122.40	0	8.1460	0	33.0650	4	25.735	0	121.388	0	251.8	4	86.8	4	-1E+10	1	-1E+10	1	-1E+10	1	-1E+10	1	-1E+10	1	-1E+10	1
4901784	99	C	03/21/2018	10:41	-132.886	43.416	0	125.70	0	7.9980	0	33.0900	4	25.776	0	124.660	0	250.8	4	86.2	4	-1E+10	1	-1E+10	1	-1E+10	1	-1E+10	1	-1E+10	1	-1E+10	1
4901784	99	C	03/21/2018	10:41	-132.886	43.416	0	127.50	0	7.9810	0	33.1040	4	25.790	0	126.444	0	249.4	4	85.7	4	-1E+10	1	-1E+10	1	-1E+10	1	-1E+10	1	-1E+10	1	-1E+10	1
4901784	99	C	03/21/2018	10:41	-132.886	43.416	0	129.60	0	7.9950	0	33.1560	4	25.829	0	128.526	0	247.0	4	84.9	4	-1E+10	1	-1E+10	1	-1E+10	1	-1E+10	1	-1E+10	1	-1E+10	1
4901784	99	C	03/21/2018	10:41	-132.886	43.416	0	132.50	0	8.0440	0	33.2090	4	25.863	0	131.401	0	244.3	4	84.1	4	-1E+10	1	-1E+10	1	-1E+10	1	-1E+10	1	-1E+10	1	-1E+10	1
4901784	99	C	03/21/2018	10:41	-132.886	43.416	0	135.40	0	8.0630	0	33.2330	4	25.879	0	134.276	0	242.0	4	83.4	4	-1E+10	1	-1E+10	1	-1E+10	1	-1E+10	1	-1E+10	1	-1E+10	1
4901784	99	C	03/21/2018	10:41	-132.886	43.416	0	137.60	0	8.0710	0	33.2480	4	25.890	0	136.458	0	239.7	4	82.6	4	-1E+10	1	-1E+10	1	-1E+10	1	-1E+10	1	-1E+10	1	-1E+10	1
4901784	99	C	03/21/2018	10:41	-132.886	43.416	0	140.00	0	8.0790	0	33.2690	4	25.905	0	138.837	0	236.9	4	81.7	4	-1E+10	1	-1E+10	1	-1E+10	1	-1E+10	1	-1E+10	1	-1E+10	1
4901784	99	C	03/21/2018	10:41	-132.886	43.416	0	142.50	0	8.1270	0	33.3510	4	25.963	0	141.315	0	233.4	4	80.6	4	-1E+10	1	-1E+10	1	-1E+10	1	-1E+10	1	-1E+10	1	-1E+10	1
4901784	99	C	03/21/2018	10:41	-132.886	43.416	0	145.00	0	8.1560	0	33.3860	4	25.986	0	143.793	0	231.1	4	79.9	4	-1E+10	1	-1E+10	1	-1E+10	1	-1E+10	1	-1E+10	1	-1E+10	1
4901784	99	C	03/21/2018	10:41	-132.886	43.416	0	147.50	0	8.1610	0	33.3940	4	25.991	0	146.272	0	228.6	4	79.0	4	-1E+10	1	-1E+10	1	-1E+10	1	-1E+10	1	-1E+10	1	-1E+10	1
4901784	99	C	03/21/2018	10:41	-132.886	43.416	0	150.00	0	8.1880	0	33.4360	4	26.020	0	148.750	0	224.9	4	77.8	4	-1E+10	1	-1E+10	1	-1E+10	1	-1E+10	1	-1E+10	1	-1E+10	1
4901784	99	C	03/21/2018	10:41	-132.886	43.416	0	152.40	0	8.2280	0	33.5110	4	26.073	0	151.129	0	220.6	4	76.5	4	-1E+10	1	-1E+10	1	-1E+10	1	-1E+10	1	-1E+10	1	-1E+10	1
4901784	99	C	03/21/2018	10:41	-132.886	43.416	0	154.60	0	8.2850	0	33.5990	4	26.134	0	153.310	0	217.3	4	75.5	4	-1E+10	1	-1E+10	1	-1E+10	1	-1E+10	1	-1E+10	1	-1E+10	1
4901784	99	C	03/21/2018	10:41	-132.886	43.416	0	157.10	0	8.3220	0	33.6500	4	26.168	0	155.788	0	214.2	4	74.5	4	-1E+10	1	-1E+10	1	-1E+10	1	-1E+10	1	-1E+10	1	-1E+10	1
4901784	99	C	03/21/2018	10:41	-132.886	43.416	0	160.00	0	8.3560	0	33.7020	4	26.204	0	158.663	0	210.5	4	73.3	4	-1E+10	1	-1E+10	1	-1E+10	1	-1E+10	1	-1E+10	1	-1E+10	1
4901784	99	C	03/21/2018	10:41	-132.886	43.416	0	162.30	0	8.3890	0	33.7460	4	26.234	0	160.943	0	207.8	4	72.4	4	-1E+10	1	-1E+10	1	-1E+10	1	-1E+10	1	-1E+10	1	-1E+10	1
4901784	99	C	03/21/2018	10:41	-132.886	43.416	0	164.70	0	8.4180	0	33.7890	4	26.263	0	163.322	0	205.7	4	71.7	4	-1E+10	1	-1E+10	1	-1E+10	1	-1E+10	1	-1E+10	1	-1E+10	1
4901784	99	C	03/21/2018	10:41	-132.886	43.416	0	167.90	0	8.4340	0	33.8120	4	26.279	0	166.494	0	203.9	4	71.1	4	-1E+10	1	-1E+10	1	-1E+10	1	-1E+10	1	-1E+10	1	-1E+10	1
4901784	99	C	03/21/2018	10:41	-132.886	43.416	0	170.30	0	8.4400	0	33.8300	4	26.292	0	168.873	0	202.2	4	70.6	4	-1E+10	1	-1E+10	1	-1E+10	1	-1E+10	1	-1E+10	1	-1E+10	1
4901784	99	C	03/21/2018	10:41	-132.886	43.416	0	172.70	0	8.4600	0	33.8530	4	26.307	0	171.252	0	200.3	4	69.9	4	-1E+10	1	-1E+10	1	-1E+10	1	-1E+10	1	-1E+10	1	-1E+10	1
4901784	99	C	03/21/2018	10:41	-132.886	43.416	0	175.20	0	8.4880	0	33.8860	4	26.329	0	173.730	0	198.3	4	69.3	4	-1E+10	1	-1E+10	1	-1E+10	1	-1E+10	1	-1E+10	1	-1E+10	1
4901784	99	C	03/21/2018	10:41	-132.886	43.416	0	177.70	0	8.5070	0	33.9130	4	26.347	0	176.207	0	196.8	4	68.8	4	-1E+10	1	-1E+10	1	-1E+10	1	-1E+10	1	-1E+10	1	-1E+10	1
4901784	99	C	03/21/2018	10:41	-132.886	43.416	0	180.20	0	8.5210	0	33.9310	4	26.359	0	178.685	0	195.9	4	68.5	4	-1E+10	1	-1E+10	1	-1E+10	1	-1E+10	1	-1E+10	1	-1E+10	1
4901784	99	C	03/21/2018	10:41	-132.886	43.416	0	182.60	0	8.5330	0	33.9460	4	26.369	0	181.064	0	194.8	4	68.2	4	-1E+10	1	-1E+10	1	-1E+10	1	-1E+10	1	-1E+10	1	-1E+10	1
4901784	99	C	03/21/2018	10:41	-132.886	43.416	0	185.10	0	8.5420	0	33.9570	4	26.376	0	183.542	0	193.4	4	67.7	4	-1E+10	1	-1E+10	1	-1E+10	1	-1E+10	1	-1E+10	1	-1E+10	1
4901784	99	C	03/21/2018	10:41	-132.886	43.416	0	187.60	0	8.5590	0	33.9830	4	26.394	0	186.020	0	191.7	4	67.1	4	-1E+10	1	-1E+10	1	-1E+10	1	-1E+10	1	-1E+10	1	-1E+10	1
4901784	99	C	03/21/2018	10:41	-132.886	43.416	0	190.10	0	8.5700	0	34.0120	4	26.415	0	188.498	0	190.1	4	66.6	4	-1E+10	1	-1E+10	1	-1E+10	1	-1E+10	1	-1E+10	1	-1E+10	1
4901784	99	C	03/21/2018	10:41	-132.886	43.416	0	192.60	0	8.5660	0	34.0180	4	26.420	0	190.975	0	188.7	4	66.1	4	-1E+10	1	-1E+10	1	-1E+10	1	-1E+10	1	-1E+10	1	-1E+10	1
4901784	99	C	03/21/2018	10:41	-132.886	43.416	0	195.20	0	8.5590	0	34.0190	4	26.422	0	193.552	0	186.9	4	65.5	4	-1E+10	1	-1E+10	1	-1E+10	1	-1E+10	1	-1E+10	1	-1E+10	1
4901784	99	C	03/21/2018	10:41	-132.886	43.416	0	197.80	0	8.5180	0	34.0380	4	26.444	0	196.129	0	185.2	4	64.9	4	-1E+10	1	-1E+10	1	-1E+10	1	-1E+10	1	-1E+10	1	-1E+10	1
4901784	99	C	03/21/2018	10:41	-132.886	43.416	0	200.30	0	8.4840	0	34.0440	4	26.454	0	198.607	0	184.3	4	64.5	4	-1E+10	1	-1E+10	1	-1E+10	1	-1E+10	1	-1E+10	1	-1E+10	1
4901784	99	C	03/21/2018	10:41	-132.886	43.416	0	202.80	0	8.4790	0	34.0470	4	26.457	0	201.084	0	183.3	4	64.1	4	-1E+10	1	-1E+10	1	-1E+10	1	-1E+10	1	-1E+10	1	-1E+10	1
4901784	99	C	03/21/2018	10:41	-132.886	43.416	0	205.30	0	8.4290	0	34.0520	4	26.468	0	203.562	0	182.0	4	63.6	4	-1E+10	1	-1E+10	1	-1E+10	1	-1E+10	1	-1E+10	1	-1E+10	1
4901784	99	C	03/21/2018	10:41	-132.886	43.416	0	207.90	0	8.4020	0	34.0520	4	26.472	0	206.139	0	181.1	4	63.2	4	-1E+10	1	-1E+10	1	-1E+10	1	-1E+10	1	-1E+10	1	-1E+10	1
4901784	99	C	03/21/2018	10:41	-132.886	43.416	0	210.40	0	8.3810	0	34.0520	4	26.476	0	208.616	0	180.1	4	62.9	4	-1E+10	1	-1E+10	1	-1E+10	1	-1E+10	1	-1E+10	1	-1E+10	1
4901784	99	C	03/21/2018	10:41	-132.886	43.416	0	212.90	0	8.3610	0	34.0530	4	26.480	0	211.094	0	178.9	4	62.4	4	-1E+10	1	-1E+10	1	-1E+10	1	-1E+10	1	-1E+10	1	-1E+10	1
4901784	99	C	03/21/2018	10:41	-132.886	43.416	0	215.40	0	8.3440	0	34.0530	4	26.482	0	213.571	0	177.7	4	62.0	4	-1E+10	1	-1E+10	1	-1E+10	1	-1E+10	1	-1E+10	1	-1E+10	1
4901784	99	C	03/21/2018	10:41	-132.886	43.416	0	217.90	0	8.2940	0	34.0540	4	26.491	0	216.049	0	176.4	4	61.5	4	-1E+10	1	-1E+10	1	-1E+10	1	-1E+10	1	-1E+10	1	-1E+10	1
4901784	99	C	03/21/2018	10:41	-132.886	43.416	0	220.40	0	8.2710	0	34.0530	4	26.493	0	218.526	0	175.1	4	61.0	4	-1E+10	1	-1E+10	1	-1E+10	1	-1E+10	1	-1E+10	1	-1E+10	1
4901784	99	C	03/21/2018	10:41	-132.886	43.416	0	222.90	0	8.2600	0	34.0530	4	26.495	0	221.004	0	173.3	4	60.4	4	-1E+10	1	-1E+10	1	-1E+10	1	-1E+10	1	-1E+10	1	-1E+10	1
4901784	99	C	03/21/2018	10:41	-132.886	43.416	0	225.30	0	8.2030	0	34.0510	4	26.502	0	223.382	0	171.1	4	59.5	4	-1E+10	1	-1E+10	1	-1E+10	1	-1E+10	1	-1E+10	1	-1E+10	1
4901784	99	C	03/21/2018	10:41	-132.886	43.416	0	227.80	0	8.0750	0	34.0550	4	26.524	0	225.859	0	169.4	4	58.7	4	-1E+10	1	-1E+10	1	-1E+10	1	-1E+10	1	-1E+10	1	-1E+10	1
4901784	99	C	03/21/2018	10:41	-132.886	43.416	0	230.40	0	8.0160	0	34.0530	4	26.531	0	228.436	0	168.7	4	58.4	4	-1E+10	1	-1E+10	1	-1E+10	1	-1E+10	1	-1E+10	1	-1E+10	1
4901784	99	C	03/21/2018	10:41	-132.886	43.416	0	232.10	0	8.0110	0	34.0530	4	26.532	0	230.120	0	168.0	4	58.2	4	-1E+10	1	-1E+10	1	-1E+10	1	-1E+10	1	-1E+10	1	-1E+10	1
4901784	99	C	03/21/2018	10:41	-132.886	43.416	0	234.60	0	8.0060	0	34.0520	4	26.532	0	232.598	0	167.0	4	57.8	4	-1E+10	1	-1E+10	1	-1E+10	1	-1E+10	1	-1E+10	1	-1E+10	1
4901784	99	C	03/21/2018	10:41	-132.886	43.416	0	237.20	0	7.9990	0	34.0490	4	26.531	0	235.174	0	165.3	4	57.2	4	-1E+10	1	-1E+10	1	-1E+10	1	-1E+10	1	-1E+10	1	-1E+10	1
4901784	99	C	03/21/2018	10:41	-132.886	43.416	0	239.80	0	7.9280	0	34.0490	4	26.541	0	237.750	0	163.4	4	56.5	4	-1E+10	1	-1E+10	1	-1E+10	1	-1E+10	1	-1E+10	1	-1E+10	1
4901784	99	C	03/21/2018	10:41	-132.886	43.416	0	242.30	0	7.8560	0	34.0470	4	26.550	0	240.227	0	161.7	4	55.8	4	-1E+10	1	-1E+10	1	-1E+10	1	-1E+10	1	-1E+10	1	-1E+10	1
4901784	99	C	03/21/2018	10:41	-132.886	43.416	0	244.90	0	7.7760	0	34.0480	4	26.563	0	242.804	0	160.2	4	55.2	4	-1E+10	1	-1E+10	1	-1E+10	1	-1E+10	1	-1E+10	1	-1E+10	1
4901784	99	C	03/21/2018	10:41	-132.886	43.416	0	247.40	0	7.7620	0	34.0460	4	26.563	0	245.281	0	159.1	4	54.8	4	-1E+10	1	-1E+10	1	-1E+10	1	-1E+10	1	-1E+10	1	-1E+10	1
4901784	99	C	03/21/2018	10:41	-132.886	43.416	0	250.00	0	7.7230	0	34.0450	4	26.568	0	247.857	0	157.6	4	54.2	4	-1E+10	1	-1E+10	1	-1E+10	1	-1E+10	1	-1E+10	1	-1E+10	1
4901784	99	C	03/21/2018	10:41	-132.886	43.416	0	252.50	0	7.6650	0	34.0450	4	26.577	0	250.334	0	156.2	4	53.7	4	-1E+10	1	-1E+10	1	-1E+10	1	-1E+10	1	-1E+10	1	-1E+10	1
4901784	99	C	03/21/2018	10:41	-132.886	43.416	0	255.20	0	7.6120	0	34.0500	4	26.588	0	253.009	0	155.1	4	53.2	4	-1E+10	1	-1E+10	1	-1E+10	1	-1E+10	1	-1E+10	1	-1E+10	1
4901784	99	C	03/21/2018	10:41	-132.886	43.416	0	257.80	0	7.5930	0	34.0560	4	26.596	0	255.585	0	153.7	4	52.7	4	-1E+10	1	-1E+10	1	-1E+10	1	-1E+10	1	-1E+10	1	-1E+10	1
4901784	99	C	03/21/2018	10:41	-132.886	43.416	0	259.60	0	7.5830	0	34.0570	4	26.598	0	257.369	0	152.9	4	52.4	4	-1E+10	1	-1E+10	1	-1E+10	1	-1E+10	1	-1E+10	1	-1E+10	1
4901784	99	C	03/21/2018	10:41	-132.886	43.416	0	262.20	0	7.5410	0	34.0570	4	26.604	0	259.945	0	151.4	4	51.9	4	-1E+10	1	-1E+10	1	-1E+10	1	-1E+10	1	-1E+10	1	-1E+10	1
4901784	99	C	03/21/2018	10:41	-132.886	43.416	0	264.70	0	7.5090	0	34.0550	4	26.607	0	262.422	0	149.7	4	51.2	4	-1E+10	1	-1E+10	1	-1E+10	1	-1E+10	1	-1E+10	1	-1E+10	1
4901784	99	C	03/21/2018	10:41	-132.886	43.416	0	267.40	0	7.4320	0	34.0620	4	26.623	0	265.097	0	148.2	4	50.7	4	-1E+10	1	-1E+10	1	-1E+10	1	-1E+10	1	-1E+10	1	-1E+10	1
4901784	99	C	03/21/2018	10:41	-132.886	43.416	0	270.00	0	7.3780	0	34.0600	4	26.630	0	267.672	0	147.5	4	50.3	4	-1E+10	1	-1E+10	1	-1E+10	1	-1E+10	1	-1E+10	1	-1E+10	1
4901784	99	C	03/21/2018	10:41	-132.886	43.416	0	272.70	0	7.3740	0	34.0590	4	26.629	0	270.347	0	146.7	4	50.1	4	-1E+10	1	-1E+10	1	-1E+10	1	-1E+10	1	-1E+10	1	-1E+10	1
4901784	99	C	03/21/2018	10:41	-132.886	43.416	0	275.30	0	7.3430	0	34.0600	4	26.635	0	272.923	0	145.6	4	49.7	4	-1E+10	1	-1E+10	1	-1E+10	1	-1E+10	1	-1E+10	1	-1E+10	1
4901784	99	C	03/21/2018	10:41	-132.886	43.416	0	277.10	0	7.3200	0	34.0600	4	26.638	0	274.707	0	145.0	4	49.4	4	-1E+10	1	-1E+10	1	-1E+10	1	-1E+10	1	-1E+10	1	-1E+10	1
4901784	99	C	03/21/2018	10:41	-132.886	43.416	0	279.70	0	7.3080	0	34.0570	4	26.637	0	277.282	0	144.1	4	49.1	4	-1E+10	1	-1E+10	1	-1E+10	1	-1E+10	1	-1E+10	1	-1E+10	1
4901784	99	C	03/21/2018	10:41	-132.886	43.416	0	282.40	0	7.2880	0	34.0560	4	26.639	0	279.957	0	142.9	4	48.7	4	-1E+10	1	-1E+10	1	-1E+10	1	-1E+10	1	-1E+10	1	-1E+10	1
4901784	99	C	03/21/2018	10:41	-132.886	43.416	0	285.00	0	7.2460	0	34.0550	4	26.644	0	282.533	0	141.3	4	48.1	4	-1E+10	1	-1E+10	1	-1E+10	1	-1E+10	1	-1E+10	1	-1E+10	1
4901784	99	C	03/21/2018	10:41	-132.886	43.416	0	287.60	0	7.2060	0	34.0510	4	26.647	0	285.109	0	139.4	4	47.4	4	-1E+10	1	-1E+10	1	-1E+10	1	-1E+10	1	-1E+10	1	-1E+10	1
4901784	99	C	03/21/2018	10:41	-132.886	43.416	0	290.30	0	7.0890	0	34.0540	4	26.665	0	287.783	0	138.5	4	47.0	4	-1E+10	1	-1E+10	1	-1E+10	1	-1E+10	1	-1E+10	1	-1E+10	1
4901784	99	C	03/21/2018	10:41	-132.886	43.416	0	292.90	0	7.0790	0	34.0530	4	26.666	0	290.359	0	137.8	4	46.7	4	-1E+10	1	-1E+10	1	-1E+10	1	-1E+10	1	-1E+10	1	-1E+10	1
4901784	99	C	03/21/2018	10:41	-132.886	43.416	0	294.70	0	7.0720	0	34.0510	4	26.665	0	292.142	0	137.1	4	46.5	4	-1E+10	1	-1E+10	1	-1E+10	1	-1E+10	1	-1E+10	1	-1E+10	1
4901784	99	C	03/21/2018	10:41	-132.886	43.416	0	297.40	0	7.0170	0	34.0480	4	26.671	0	294.817	0	136.0	4	46.0	4	-1E+10	1	-1E+10	1	-1E+10	1	-1E+10	1	-1E+10	1	-1E+10	1
4901784	99	C	03/21/2018	10:41	-132.886	43.416	0	300.20	0	6.9800	0	34.0480	4	26.676	0	297.590	0	135.0	4	45.7	4	-1E+10	1	-1E+10	1	-1E+10	1	-1E+10	1	-1E+10	1	-1E+10	1
4901784	99	C	03/21/2018	10:41	-132.886	43.416	0	302.00	0	6.9790	0	34.0480	4	26.676	0	299.374	0	134.1	4	45.4	4	-1E+10	1	-1E+10	1	-1E+10	1	-1E+10	1	-1E+10	1	-1E+10	1
4901784	99	C	03/21/2018	10:41	-132.886	43.416	0	304.70	0	6.9430	0	34.0470	4	26.680	0	302.048	0	132.5	4	44.8	4	-1E+10	1	-1E+10	1	-1E+10	1	-1E+10	1	-1E+10	1	-1E+10	1
4901784	99	C	03/21/2018	10:41	-132.886	43.416	0	307.40	0	6.8990	0	34.0450	4	26.684	0	304.723	0	130.8	4	44.2	4	-1E+10	1	-1E+10	1	-1E+10	1	-1E+10	1	-1E+10	1	-1E+10	1
4901784	99	C	03/21/2018	10:41	-132.886	43.416	0	310.00	0	6.8360	0	34.0410	4	26.690	0	307.298	0	128.8	4	43.4	4	-1E+10	1	-1E+10	1	-1E+10	1	-1E+10	1	-1E+10	1	-1E+10	1
4901784	99	C	03/21/2018	10:41	-132.886	43.416	0	312.70	0	6.7390	0	34.0350	4	26.698	0	309.972	0	126.9	4	42.7	4	-1E+10	1	-1E+10	1	-1E+10	1	-1E+10	1	-1E+10	1	-1E+10	1
4901784	99	C	03/21/2018	10:41	-132.886	43.416	0	314.50	0	6.7260	0	34.0360	4	26.701	0	311.755	0	125.6	4	42.2	4	-1E+10	1	-1E+10	1	-1E+10	1	-1E+10	1	-1E+10	1	-1E+10	1
4901784	99	C	03/21/2018	10:41	-132.886	43.416	0	317.20	0	6.5800	0	34.0270	4	26.713	0	314.430	0	123.8	4	41.5	4	-1E+10	1	-1E+10	1	-1E+10	1	-1E+10	1	-1E+10	1	-1E+10	1
4901784	99	C	03/21/2018	10:41	-132.886	43.416	0	320.10	0	6.4700	0	34.0200	4	26.722	0	317.302	0	122.3	4	40.9	4	-1E+10	1	-1E+10	1	-1E+10	1	-1E+10	1	-1E+10	1	-1E+10	1
4901784	99	C	03/21/2018	10:41	-132.886	43.416	0	321.90	0	6.4100	0	34.0180	4	26.728	0	319.085	0	121.6	4	40.6	4	-1E+10	1	-1E+10	1	-1E+10	1	-1E+10	1	-1E+10	1	-1E+10	1
4901784	99	C	03/21/2018	10:41	-132.886	43.416	0	324.70	0	6.3610	0	34.0140	4	26.731	0	321.858	0	120.7	4	40.3	4	-1E+10	1	-1E+10	1	-1E+10	1	-1E+10	1	-1E+10	1	-1E+10	1
4901784	99	C	03/21/2018	10:41	-132.886	43.416	0	327.50	0	6.3260	0	34.0140	4	26.736	0	324.632	0	120.0	4	40.0	4	-1E+10	1	-1E+10	1	-1E+10	1	-1E+10	1	-1E+10	1	-1E+10	1
4901784	99	C	03/21/2018	10:41	-132.886	43.416	0	329.90	0	6.3110	0	34.0120	4	26.736	0	327.009	0	119.2	4	39.7	4	-1E+10	1	-1E+10	1	-1E+10	1	-1E+10	1	-1E+10	1	-1E+10	1
4901784	99	C	03/21/2018	10:41	-132.886	43.416	0	332.60	0	6.2800	0	34.0110	4	26.739	0	329.683	0	118.1	4	39.3	4	-1E+10	1	-1E+10	1	-1E+10	1	-1E+10	1	-1E+10	1	-1E+10	1
4901784	99	C	03/21/2018	10:41	-132.886	43.416	0	335.00	0	6.2330	0	34.0110	4	26.745	0	332.060	0	117.3	4	39.0	4	-1E+10	1	-1E+10	1	-1E+10	1	-1E+10	1	-1E+10	1	-1E+10	1
4901784	99	C	03/21/2018	10:41	-132.886	43.416	0	337.30	0	6.1990	0	34.0120	4	26.751	0	334.338	0	116.7	4	38.8	4	-1E+10	1	-1E+10	1	-1E+10	1	-1E+10	1	-1E+10	1	-1E+10	1
4901784	99	C	03/21/2018	10:41	-132.886	43.416	0	339.70	0	6.1830	0	34.0160	4	26.756	0	336.715	0	116.6	4	38.7	4	-1E+10	1	-1E+10	1	-1E+10	1	-1E+10	1	-1E+10	1	-1E+10	1
4901784	99	C	03/21/2018	10:41	-132.886	43.416	0	342.10	0	6.1890	0	34.0190	4	26.757	0	339.092	0	116.5	4	38.7	4	-1E+10	1	-1E+10	1	-1E+10	1	-1E+10	1	-1E+10	1	-1E+10	1
4901784	99	C	03/21/2018	10:41	-132.886	43.416	0	345.30	0	6.1930	0	34.0210	4	26.759	0	342.261	0	116.2	4	38.6	4	-1E+10	1	-1E+10	1	-1E+10	1	-1E+10	1	-1E+10	1	-1E+10	1
4901784	99	C	03/21/2018	10:41	-132.886	43.416	0	347.80	0	6.1990	0	34.0260	4	26.762	0	344.737	0	115.8	4	38.5	4	-1E+10	1	-1E+10	1	-1E+10	1	-1E+10	1	-1E+10	1	-1E+10	1
4901784	99	C	03/21/2018	10:41	-132.886	43.416	0	350.20	0	6.1860	0	34.0270	4	26.764	0	347.114	0	115.2	4	38.3	4	-1E+10	1	-1E+10	1	-1E+10	1	-1E+10	1	-1E+10	1	-1E+10	1
4901784	99	C	03/21/2018	10:41	-132.886	43.416	0	352.70	0	6.1660	0	34.0270	4	26.767	0	349.590	0	114.7	4	38.1	4	-1E+10	1	-1E+10	1	-1E+10	1	-1E+10	1	-1E+10	1	-1E+10	1
4901784	99	C	03/21/2018	10:41	-132.886	43.416	0	355.20	0	6.1480	0	34.0270	4	26.769	0	352.066	0	114.0	4	37.8	4	-1E+10	1	-1E+10	1	-1E+10	1	-1E+10	1	-1E+10	1	-1E+10	1
4901784	99	C	03/21/2018	10:41	-132.886	43.416	0	357.70	0	6.1380	0	34.0290	4	26.772	0	354.541	0	113.4	4	37.6	4	-1E+10	1	-1E+10	1	-1E+10	1	-1E+10	1	-1E+10	1	-1E+10	1
4901784	99	C	03/21/2018	10:41	-132.886	43.416	0	360.30	0	6.1030	0	34.0320	4	26.779	0	357.116	0	112.6	4	37.3	4	-1E+10	1	-1E+10	1	-1E+10	1	-1E+10	1	-1E+10	1	-1E+10	1
4901784	99	C	03/21/2018	10:41	-132.886	43.416	0	362.80	0	6.0750	0	34.0310	4	26.782	0	359.592	0	111.9	4	37.1	4	-1E+10	1	-1E+10	1	-1E+10	1	-1E+10	1	-1E+10	1	-1E+10	1
4901784	99	C	03/21/2018	10:41	-132.886	43.416	0	365.30	0	6.0450	0	34.0310	4	26.785	0	362.068	0	111.2	4	36.8	4	-1E+10	1	-1E+10	1	-1E+10	1	-1E+10	1	-1E+10	1	-1E+10	1
4901784	99	C	03/21/2018	10:41	-132.886	43.416	0	367.80	0	6.0120	0	34.0320	4	26.790	0	364.543	0	110.5	4	36.5	4	-1E+10	1	-1E+10	1	-1E+10	1	-1E+10	1	-1E+10	1	-1E+10	1
4901784	99	C	03/21/2018	10:41	-132.886	43.416	0	370.40	0	5.9720	0	34.0320	4	26.795	0	367.118	0	109.9	4	36.3	4	-1E+10	1	-1E+10	1	-1E+10	1	-1E+10	1	-1E+10	1	-1E+10	1
4901784	99	C	03/21/2018	10:41	-132.886	43.416	0	372.90	0	5.9500	0	34.0310	4	26.797	0	369.594	0	109.4	4	36.1	4	-1E+10	1	-1E+10	1	-1E+10	1	-1E+10	1	-1E+10	1	-1E+10	1
4901784	99	C	03/21/2018	10:41	-132.886	43.416	0	374.60	0	5.9440	0	34.0300	4	26.797	0	371.277	0	108.9	4	36.0	4	-1E+10	1	-1E+10	1	-1E+10	1	-1E+10	1	-1E+10	1	-1E+10	1
4901784	99	C	03/21/2018	10:41	-132.886	43.416	0	377.10	0	5.9160	0	34.0310	4	26.802	0	373.753	0	108.2	4	35.7	4	-1E+10	1	-1E+10	1	-1E+10	1	-1E+10	1	-1E+10	1	-1E+10	1
4901784	99	C	03/21/2018	10:41	-132.886	43.416	0	379.60	0	5.8950	0	34.0290	4	26.803	0	376.228	0	107.2	4	35.4	4	-1E+10	1	-1E+10	1	-1E+10	1	-1E+10	1	-1E+10	1	-1E+10	1
4901784	99	C	03/21/2018	10:41	-132.886	43.416	0	382.10	0	5.8590	0	34.0280	4	26.806	0	378.704	0	106.2	4	35.0	4	-1E+10	1	-1E+10	1	-1E+10	1	-1E+10	1	-1E+10	1	-1E+10	1
4901784	99	C	03/21/2018	10:41	-132.886	43.416	0	384.70	0	5.7860	0	34.0270	4	26.815	0	381.278	0	105.1	4	34.6	4	-1E+10	1	-1E+10	1	-1E+10	1	-1E+10	1	-1E+10	1	-1E+10	1
4901784	99	C	03/21/2018	10:41	-132.886	43.416	0	387.20	0	5.7550	0	34.0270	4	26.818	0	383.754	0	104.3	4	34.3	4	-1E+10	1	-1E+10	1	-1E+10	1	-1E+10	1	-1E+10	1	-1E+10	1
4901784	99	C	03/21/2018	10:41	-132.886	43.416	0	389.70	0	5.7200	0	34.0260	4	26.822	0	386.229	0	103.4	4	34.0	4	-1E+10	1	-1E+10	1	-1E+10	1	-1E+10	1	-1E+10	1	-1E+10	1
4901784	99	C	03/21/2018	10:41	-132.886	43.416	0	392.30	0	5.6920	0	34.0250	4	26.825	0	388.803	0	102.5	4	33.6	4	-1E+10	1	-1E+10	1	-1E+10	1	-1E+10	1	-1E+10	1	-1E+10	1
4901784	99	C	03/21/2018	10:41	-132.886	43.416	0	394.90	0	5.6580	0	34.0270	4	26.830	0	391.378	0	101.4	4	33.3	4	-1E+10	1	-1E+10	1	-1E+10	1	-1E+10	1	-1E+10	1	-1E+10	1
4901784	99	C	03/21/2018	10:41	-132.886	43.416	0	397.40	0	5.6270	0	34.0260	4	26.833	0	393.853	0	100.3	4	32.9	4	-1E+10	1	-1E+10	1	-1E+10	1	-1E+10	1	-1E+10	1	-1E+10	1
4901784	99	C	03/21/2018	10:41	-132.886	43.416	0	400.10	0	5.5800	0	34.0280	4	26.841	0	396.527	0	99.3	4	32.5	4	-1E+10	1	-1E+10	1	-1E+10	1	-1E+10	1	-1E+10	1	-1E+10	1
4901784	99	C	03/21/2018	10:41	-132.886	43.416	0	402.70	0	5.5440	0	34.0290	4	26.846	0	399.101	0	98.3	4	32.2	4	-1E+10	1	-1E+10	1	-1E+10	1	-1E+10	1	-1E+10	1	-1E+10	1
4901784	99	C	03/21/2018	10:41	-132.886	43.416	0	405.20	0	5.5260	0	34.0280	4	26.847	0	401.576	0	97.4	4	31.9	4	-1E+10	1	-1E+10	1	-1E+10	1	-1E+10	1	-1E+10	1	-1E+10	1
4901784	99	C	03/21/2018	10:41	-132.886	43.416	0	407.80	0	5.4950	0	34.0290	4	26.852	0	404.150	0	96.4	4	31.5	4	-1E+10	1	-1E+10	1	-1E+10	1	-1E+10	1	-1E+10	1	-1E+10	1
4901784	99	C	03/21/2018	10:41	-132.886	43.416	0	410.40	0	5.4580	0	34.0300	4	26.857	0	406.724	0	95.4	4	31.1	4	-1E+10	1	-1E+10	1	-1E+10	1	-1E+10	1	-1E+10	1	-1E+10	1
4901784	99	C	03/21/2018	10:41	-132.886	43.416	0	412.10	0	5.4280	0	34.0310	4	26.861	0	408.408	0	94.8	4	30.9	4	-1E+10	1	-1E+10	1	-1E+10	1	-1E+10	1	-1E+10	1	-1E+10	1
4901784	99	C	03/21/2018	10:41	-132.886	43.416	0	414.60	0	5.3950	0	34.0320	4	26.866	0	410.883	0	94.1	4	30.7	4	-1E+10	1	-1E+10	1	-1E+10	1	-1E+10	1	-1E+10	1	-1E+10	1
4901784	99	C	03/21/2018	10:41	-132.886	43.416	0	417.10	0	5.3700	0	34.0330	4	26.870	0	413.358	0	93.4	4	30.4	4	-1E+10	1	-1E+10	1	-1E+10	1	-1E+10	1	-1E+10	1	-1E+10	1
4901784	99	C	03/21/2018	10:41	-132.886	43.416	0	419.70	0	5.3590	0	34.0330	4	26.871	0	415.932	0	92.8	4	30.2	4	-1E+10	1	-1E+10	1	-1E+10	1	-1E+10	1	-1E+10	1	-1E+10	1
4901784	99	C	03/21/2018	10:41	-132.886	43.416	0	422.30	0	5.3520	0	34.0310	4	26.870	0	418.506	0	91.9	4	29.9	4	-1E+10	1	-1E+10	1	-1E+10	1	-1E+10	1	-1E+10	1	-1E+10	1
4901784	99	C	03/21/2018	10:41	-132.886	43.416	0	424.80	0	5.3250	0	34.0330	4	26.875	0	420.981	0	90.7	4	29.5	4	-1E+10	1	-1E+10	1	-1E+10	1	-1E+10	1	-1E+10	1	-1E+10	1
4901784	99	C	03/21/2018	10:41	-132.886	43.416	0	427.40	0	5.2970	0	34.0340	4	26.879	0	423.555	0	89.6	4	29.1	4	-1E+10	1	-1E+10	1	-1E+10	1	-1E+10	1	-1E+10	1	-1E+10	1
4901784	99	C	03/21/2018	10:41	-132.886	43.416	0	430.00	0	5.2650	0	34.0360	4	26.884	0	426.129	0	88.1	4	28.7	4	-1E+10	1	-1E+10	1	-1E+10	1	-1E+10	1	-1E+10	1	-1E+10	1
4901784	99	C	03/21/2018	10:41	-132.886	43.416	0	432.50	0	5.2390	0	34.0380	4	26.889	0	428.604	0	86.9	4	28.2	4	-1E+10	1	-1E+10	1	-1E+10	1	-1E+10	1	-1E+10	1	-1E+10	1
4901784	99	C	03/21/2018	10:41	-132.886	43.416	0	435.10	0	5.2140	0	34.0400	4	26.894	0	431.178	0	85.6	4	27.8	4	-1E+10	1	-1E+10	1	-1E+10	1	-1E+10	1	-1E+10	1	-1E+10	1
4901784	99	C	03/21/2018	10:41	-132.886	43.416	0	437.70	0	5.1780	0	34.0420	4	26.899	0	433.751	0	84.4	4	27.4	4	-1E+10	1	-1E+10	1	-1E+10	1	-1E+10	1	-1E+10	1	-1E+10	1
4901784	99	C	03/21/2018	10:41	-132.886	43.416	0	439.50	0	5.1520	0	34.0440	4	26.904	0	435.533	0	83.7	4	27.1	4	-1E+10	1	-1E+10	1	-1E+10	1	-1E+10	1	-1E+10	1	-1E+10	1
4901784	99	C	03/21/2018	10:41	-132.886	43.416	0	442.10	0	5.1270	0	34.0440	4	26.907	0	438.107	0	82.7	4	26.8	4	-1E+10	1	-1E+10	1	-1E+10	1	-1E+10	1	-1E+10	1	-1E+10	1
4901784	99	C	03/21/2018	10:41	-132.886	43.416	0	444.70	0	5.0930	0	34.0440	4	26.911	0	440.681	0	81.4	4	26.4	4	-1E+10	1	-1E+10	1	-1E+10	1	-1E+10	1	-1E+10	1	-1E+10	1
4901784	99	C	03/21/2018	10:41	-132.886	43.416	0	447.30	0	5.0390	0	34.0440	4	26.917	0	443.255	0	80.0	4	25.9	4	-1E+10	1	-1E+10	1	-1E+10	1	-1E+10	1	-1E+10	1	-1E+10	1
4901784	99	C	03/21/2018	10:41	-132.886	43.416	0	450.00	0	5.0110	0	34.0450	4	26.921	0	445.927	0	78.6	4	25.4	4	-1E+10	1	-1E+10	1	-1E+10	1	-1E+10	1	-1E+10	1	-1E+10	1
4901784	99	C	03/21/2018	10:41	-132.886	43.416	0	452.70	0	4.9780	0	34.0500	4	26.929	0	448.600	0	76.9	4	24.8	4	-1E+10	1	-1E+10	1	-1E+10	1	-1E+10	1	-1E+10	1	-1E+10	1
4901784	99	C	03/21/2018	10:41	-132.886	43.416	0	455.40	0	4.9560	0	34.0550	4	26.935	0	451.273	0	75.3	4	24.3	4	-1E+10	1	-1E+10	1	-1E+10	1	-1E+10	1	-1E+10	1	-1E+10	1
4901784	99	C	03/21/2018	10:41	-132.886	43.416	0	457.10	0	4.9440	0	34.0580	4	26.939	0	452.955	0	74.2	4	23.9	4	-1E+10	1	-1E+10	1	-1E+10	1	-1E+10	1	-1E+10	1	-1E+10	1
4901784	99	C	03/21/2018	10:41	-132.886	43.416	0	459.90	0	4.9090	0	34.0610	4	26.945	0	455.727	0	72.7	4	23.4	4	-1E+10	1	-1E+10	1	-1E+10	1	-1E+10	1	-1E+10	1	-1E+10	1
4901784	99	C	03/21/2018	10:41	-132.886	43.416	0	462.50	0	4.8680	0	34.0600	4	26.949	0	458.300	0	71.5	4	23.0	4	-1E+10	1	-1E+10	1	-1E+10	1	-1E+10	1	-1E+10	1	-1E+10	1
4901784	99	C	03/21/2018	10:41	-132.886	43.416	0	465.20	0	4.8440	0	34.0630	4	26.954	0	460.973	0	70.4	4	22.7	4	-1E+10	1	-1E+10	1	-1E+10	1	-1E+10	1	-1E+10	1	-1E+10	1
4901784	99	C	03/21/2018	10:41	-132.886	43.416	0	467.90	0	4.8180	0	34.0660	4	26.960	0	463.645	0	69.4	4	22.3	4	-1E+10	1	-1E+10	1	-1E+10	1	-1E+10	1	-1E+10	1	-1E+10	1
4901784	99	C	03/21/2018	10:41	-132.886	43.416	0	469.70	0	4.8040	0	34.0680	4	26.963	0	465.427	0	68.9	4	22.1	4	-1E+10	1	-1E+10	1	-1E+10	1	-1E+10	1	-1E+10	1	-1E+10	1
4901784	99	C	03/21/2018	10:41	-132.886	43.416	0	472.30	0	4.7960	0	34.0700	4	26.965	0	468.000	0	67.9	4	21.8	4	-1E+10	1	-1E+10	1	-1E+10	1	-1E+10	1	-1E+10	1	-1E+10	1
4901784	99	C	03/21/2018	10:41	-132.886	43.416	0	475.00	0	4.7820	0	34.0730	4	26.969	0	470.673	0	67.0	4	21.5	4	-1E+10	1	-1E+10	1	-1E+10	1	-1E+10	1	-1E+10	1	-1E+10	1
4901784	99	C	03/21/2018	10:41	-132.886	43.416	0	477.80	0	4.7690	0	34.0750	4	26.972	0	473.444	0	66.0	4	21.2	4	-1E+10	1	-1E+10	1	-1E+10	1	-1E+10	1	-1E+10	1	-1E+10	1
4901784	99	C	03/21/2018	10:41	-132.886	43.416	0	480.60	0	4.7530	0	34.0790	4	26.977	0	476.215	0	64.8	4	20.8	4	-1E+10	1	-1E+10	1	-1E+10	1	-1E+10	1	-1E+10	1	-1E+10	1
4901784	99	C	03/21/2018	10:41	-132.886	43.416	0	482.40	0	4.7560	0	34.0830	4	26.980	0	477.997	0	64.0	4	20.5	4	-1E+10	1	-1E+10	1	-1E+10	1	-1E+10	1	-1E+10	1	-1E+10	1
4901784	99	C	03/21/2018	10:41	-132.886	43.416	0	485.20	0	4.7570	0	34.0860	4	26.982	0	480.768	0	62.7	4	20.1	4	-1E+10	1	-1E+10	1	-1E+10	1	-1E+10	1	-1E+10	1	-1E+10	1
4901784	99	C	03/21/2018	10:41	-132.886	43.416	0	488.00	0	4.7550	0	34.0870	4	26.983	0	483.539	0	61.1	4	19.6	4	-1E+10	1	-1E+10	1	-1E+10	1	-1E+10	1	-1E+10	1	-1E+10	1
4901784	99	C	03/21/2018	10:41	-132.886	43.416	0	490.00	0	4.7410	0	34.0910	4	26.988	0	485.519	0	59.8	4	19.2	4	-1E+10	1	-1E+10	1	-1E+10	1	-1E+10	1	-1E+10	1	-1E+10	1
4901784	99	C	03/21/2018	10:41	-132.886	43.416	0	492.80	0	4.7340	0	34.0960	4	26.993	0	488.290	0	57.1	4	18.3	4	-1E+10	1	-1E+10	1	-1E+10	1	-1E+10	1	-1E+10	1	-1E+10	1
4901784	99	C	03/21/2018	10:41	-132.886	43.416	0	495.50	0	4.7570	0	34.1030	4	26.996	0	490.962	0	54.6	4	17.6	4	-1E+10	1	-1E+10	1	-1E+10	1	-1E+10	1	-1E+10	1	-1E+10	1
4901784	99	C	03/21/2018	10:41	-132.886	43.416	0	497.30	0	4.7710	0	34.1060	4	26.997	0	492.743	0	53.3	4	17.1	4	-1E+10	1	-1E+10	1	-1E+10	1	-1E+10	1	-1E+10	1	-1E+10	1
4901784	99	C	03/21/2018	10:41	-132.886	43.416	0	500.20	0	4.7770	0	34.1130	4	27.002	0	495.613	0	52.6	4	16.9	4	-1E+10	1	-1E+10	1	-1E+10	1	-1E+10	1	-1E+10	1	-1E+10	1
4901784	99	C	03/21/2018	10:41	-132.886	43.416	0	504.90	0	4.7650	0	34.1150	4	27.005	0	500.264	0	52.4	4	16.9	4	-1E+10	1	-1E+10	1	-1E+10	1	-1E+10	1	-1E+10	1	-1E+10	1
4901784	99	C	03/21/2018	10:41	-132.886	43.416	0	510.50	0	4.7280	0	34.1150	4	27.009	0	505.806	0	52.5	4	16.9	4	-1E+10	1	-1E+10	1	-1E+10	1	-1E+10	1	-1E+10	1	-1E+10	1
4901784	99	C	03/21/2018	10:41	-132.886	43.416	0	515.30	0	4.7000	0	34.1160	4	27.013	0	510.556	0	51.8	4	16.6	4	-1E+10	1	-1E+10	1	-1E+10	1	-1E+10	1	-1E+10	1	-1E+10	1
4901784	99	C	03/21/2018	10:41	-132.886	43.416	0	520.10	0	4.6670	0	34.1200	4	27.020	0	515.306	0	50.9	4	16.3	4	-1E+10	1	-1E+10	1	-1E+10	1	-1E+10	1	-1E+10	1	-1E+10	1
4901784	99	C	03/21/2018	10:41	-132.886	43.416	0	525.60	0	4.6450	0	34.1240	4	27.025	0	520.748	0	49.9	4	16.0	4	-1E+10	1	-1E+10	1	-1E+10	1	-1E+10	1	-1E+10	1	-1E+10	1
4901784	99	C	03/21/2018	10:41	-132.886	43.416	0	530.40	0	4.6310	0	34.1270	4	27.029	0	525.498	0	48.9	4	15.7	4	-1E+10	1	-1E+10	1	-1E+10	1	-1E+10	1	-1E+10	1	-1E+10	1
4901784	99	C	03/21/2018	10:41	-132.886	43.416	0	535.30	0	4.6200	0	34.1310	4	27.034	0	530.346	0	47.9	4	15.3	4	-1E+10	1	-1E+10	1	-1E+10	1	-1E+10	1	-1E+10	1	-1E+10	1
4901784	99	C	03/21/2018	10:41	-132.886	43.416	0	540.10	0	4.5960	0	34.1340	4	27.039	0	535.096	0	46.9	4	15.0	4	-1E+10	1	-1E+10	1	-1E+10	1	-1E+10	1	-1E+10	1	-1E+10	1
4901784	99	C	03/21/2018	10:41	-132.886	43.416	0	545.10	0	4.5830	0	34.1370	4	27.042	0	540.043	0	45.6	4	14.6	4	-1E+10	1	-1E+10	1	-1E+10	1	-1E+10	1	-1E+10	1	-1E+10	1
4901784	99	C	03/21/2018	10:41	-132.886	43.416	0	550.10	0	4.5710	0	34.1410	4	27.047	0	544.990	0	44.2	4	14.1	4	-1E+10	1	-1E+10	1	-1E+10	1	-1E+10	1	-1E+10	1	-1E+10	1
4901784	99	C	03/21/2018	10:41	-132.886	43.416	0	555.20	0	4.5610	0	34.1430	4	27.050	0	550.036	0	42.4	4	13.6	4	-1E+10	1	-1E+10	1	-1E+10	1	-1E+10	1	-1E+10	1	-1E+10	1
4901784	99	C	03/21/2018	10:41	-132.886	43.416	0	560.30	0	4.5390	0	34.1500	4	27.058	0	555.082	0	39.3	4	12.6	4	-1E+10	1	-1E+10	1	-1E+10	1	-1E+10	1	-1E+10	1	-1E+10	1
4901784	99	C	03/21/2018	10:41	-132.886	43.416	0	565.40	0	4.5300	0	34.1640	4	27.070	0	560.127	0	36.9	4	11.8	4	-1E+10	1	-1E+10	1	-1E+10	1	-1E+10	1	-1E+10	1	-1E+10	1
4901784	99	C	03/21/2018	10:41	-132.886	43.416	0	570.50	0	4.5520	0	34.1700	4	27.072	0	565.173	0	35.2	4	11.2	4	-1E+10	1	-1E+10	1	-1E+10	1	-1E+10	1	-1E+10	1	-1E+10	1
4901784	99	C	03/21/2018	10:41	-132.886	43.416	0	575.70	0	4.5100	0	34.1700	4	27.077	0	570.317	0	33.9	4	10.8	4	-1E+10	1	-1E+10	1	-1E+10	1	-1E+10	1	-1E+10	1	-1E+10	1
4901784	99	C	03/21/2018	10:41	-132.886	43.416	0	580.10	0	4.4820	0	34.1760	4	27.085	0	574.670	0	30.5	4	9.7	4	-1E+10	1	-1E+10	1	-1E+10	1	-1E+10	1	-1E+10	1	-1E+10	1
4901784	99	C	03/21/2018	10:41	-132.886	43.416	0	584.60	0	4.6080	0	34.2020	4	27.092	0	579.122	0	26.4	4	8.5	4	-1E+10	1	-1E+10	1	-1E+10	1	-1E+10	1	-1E+10	1	-1E+10	1
4901784	99	C	03/21/2018	10:41	-132.886	43.416	0	589.90	0	4.6270	0	34.2100	4	27.096	0	584.365	0	25.6	4	8.2	4	-1E+10	1	-1E+10	1	-1E+10	1	-1E+10	1	-1E+10	1	-1E+10	1
4901784	99	C	03/21/2018	10:41	-132.886	43.416	0	595.40	0	4.6050	0	34.2120	4	27.100	0	589.805	0	25.2	4	8.1	4	-1E+10	1	-1E+10	1	-1E+10	1	-1E+10	1	-1E+10	1	-1E+10	1
4901784	99	C	03/21/2018	10:41	-132.886	43.416	0	599.90	0	4.6030	0	34.2140	4	27.102	0	594.256	0	24.5	4	7.9	4	-1E+10	1	-1E+10	1	-1E+10	1	-1E+10	1	-1E+10	1	-1E+10	1
4901784	99	C	03/21/2018	10:41	-132.886	43.416	0	604.40	0	4.5780	0	34.2190	4	27.109	0	598.708	0	24.0	4	7.7	4	-1E+10	1	-1E+10	1	-1E+10	1	-1E+10	1	-1E+10	1	-1E+10	1
4901784	99	C	03/21/2018	10:41	-132.886	43.416	0	610.00	0	4.5510	0	34.2230	4	27.115	0	604.247	0	23.7	4	7.6	4	-1E+10	1	-1E+10	1	-1E+10	1	-1E+10	1	-1E+10	1	-1E+10	1
4901784	99	C	03/21/2018	10:41	-132.886	43.416	0	615.60	0	4.5330	0	34.2240	4	27.118	0	609.786	0	23.2	4	7.4	4	-1E+10	1	-1E+10	1	-1E+10	1	-1E+10	1	-1E+10	1	-1E+10	1
4901784	99	C	03/21/2018	10:41	-132.886	43.416	0	620.30	0	4.5070	0	34.2270	4	27.123	0	614.434	0	22.8	4	7.3	4	-1E+10	1	-1E+10	1	-1E+10	1	-1E+10	1	-1E+10	1	-1E+10	1
4901784	99	C	03/21/2018	10:41	-132.886	43.416	0	625.10	0	4.4740	0	34.2320	4	27.130	0	619.182	0	22.2	4	7.1	4	-1E+10	1	-1E+10	1	-1E+10	1	-1E+10	1	-1E+10	1	-1E+10	1
4901784	99	C	03/21/2018	10:41	-132.886	43.416	0	629.80	0	4.4620	0	34.2360	4	27.135	0	623.830	0	21.8	4	7.0	4	-1E+10	1	-1E+10	1	-1E+10	1	-1E+10	1	-1E+10	1	-1E+10	1
4901784	99	C	03/21/2018	10:41	-132.886	43.416	0	634.50	0	4.4280	0	34.2370	4	27.139	0	628.479	0	21.4	4	6.8	4	-1E+10	1	-1E+10	1	-1E+10	1	-1E+10	1	-1E+10	1	-1E+10	1
4901784	99	C	03/21/2018	10:41	-132.886	43.416	0	640.10	0	4.4170	0	34.2440	4	27.146	0	634.017	0	20.0	4	6.4	4	-1E+10	1	-1E+10	1	-1E+10	1	-1E+10	1	-1E+10	1	-1E+10	1
4901784	99	C	03/21/2018	10:41	-132.886	43.416	0	644.70	0	4.4450	0	34.2540	4	27.151	0	638.566	0	19.1	4	6.1	4	-1E+10	1	-1E+10	1	-1E+10	1	-1E+10	1	-1E+10	1	-1E+10	1
4901784	99	C	03/21/2018	10:41	-132.886	43.416	0	649.50	0	4.4510	0	34.2580	4	27.154	0	643.313	0	18.5	4	5.9	4	-1E+10	1	-1E+10	1	-1E+10	1	-1E+10	1	-1E+10	1	-1E+10	1
4901784	99	C	03/21/2018	10:41	-132.886	43.416	0	655.30	0	4.4470	0	34.2620	4	27.157	0	649.049	0	17.9	4	5.7	4	-1E+10	1	-1E+10	1	-1E+10	1	-1E+10	1	-1E+10	1	-1E+10	1
4901784	99	C	03/21/2018	10:41	-132.886	43.416	0	660.10	0	4.4390	0	34.2670	4	27.162	0	653.796	0	17.5	4	5.6	4	-1E+10	1	-1E+10	1	-1E+10	1	-1E+10	1	-1E+10	1	-1E+10	1
4901784	99	C	03/21/2018	10:41	-132.886	43.416	0	665.00	0	4.4240	0	34.2720	4	27.168	0	658.641	0	16.7	4	5.3	4	-1E+10	1	-1E+10	1	-1E+10	1	-1E+10	1	-1E+10	1	-1E+10	1
4901784	99	C	03/21/2018	10:41	-132.886	43.416	0	669.70	0	4.4470	0	34.2790	4	27.171	0	663.289	0	16.1	4	5.2	4	-1E+10	1	-1E+10	1	-1E+10	1	-1E+10	1	-1E+10	1	-1E+10	1
4901784	99	C	03/21/2018	10:41	-132.886	43.416	0	674.50	0	4.4400	0	34.2820	4	27.174	0	668.035	0	15.9	4	5.1	4	-1E+10	1	-1E+10	1	-1E+10	1	-1E+10	1	-1E+10	1	-1E+10	1
4901784	99	C	03/21/2018	10:41	-132.886	43.416	0	680.40	0	4.4250	0	34.2860	4	27.179	0	673.869	0	15.6	4	5.0	4	-1E+10	1	-1E+10	1	-1E+10	1	-1E+10	1	-1E+10	1	-1E+10	1
4901784	99	C	03/21/2018	10:41	-132.886	43.416	0	685.20	0	4.4160	0	34.2890	4	27.182	0	678.615	0	15.4	4	4.9	4	-1E+10	1	-1E+10	1	-1E+10	1	-1E+10	1	-1E+10	1	-1E+10	1
4901784	99	C	03/21/2018	10:41	-132.886	43.416	0	690.20	0	4.3990	0	34.2910	4	27.186	0	683.559	0	15.1	4	4.8	4	-1E+10	1	-1E+10	1	-1E+10	1	-1E+10	1	-1E+10	1	-1E+10	1
4901784	99	C	03/21/2018	10:41	-132.886	43.416	0	694.60	0	4.3940	0	34.2950	4	27.190	0	687.909	0	14.9	4	4.7	4	-1E+10	1	-1E+10	1	-1E+10	1	-1E+10	1	-1E+10	1	-1E+10	1
4901784	99	C	03/21/2018	10:41	-132.886	43.416	0	699.50	0	4.3790	0	34.2980	4	27.194	0	692.754	0	14.7	4	4.7	4	-1E+10	1	-1E+10	1	-1E+10	1	-1E+10	1	-1E+10	1	-1E+10	1
4901784	99	C	03/21/2018	10:41	-132.886	43.416	0	704.40	0	4.3360	0	34.2990	4	27.199	0	697.598	0	14.8	4	4.7	4	-1E+10	1	-1E+10	1	-1E+10	1	-1E+10	1	-1E+10	1	-1E+10	1
4901784	99	C	03/21/2018	10:41	-132.886	43.416	0	709.40	0	4.2740	0	34.3010	4	27.207	0	702.542	0	14.7	4	4.7	4	-1E+10	1	-1E+10	1	-1E+10	1	-1E+10	1	-1E+10	1	-1E+10	1
4901784	99	C	03/21/2018	10:41	-132.886	43.416	0	714.30	0	4.2360	0	34.3060	4	27.215	0	707.386	0	14.1	4	4.5	4	-1E+10	1	-1E+10	1	-1E+10	1	-1E+10	1	-1E+10	1	-1E+10	1
4901784	99	C	03/21/2018	10:41	-132.886	43.416	0	719.20	0	4.2620	0	34.3190	4	27.223	0	712.230	0	13.3	4	4.2	4	-1E+10	1	-1E+10	1	-1E+10	1	-1E+10	1	-1E+10	1	-1E+10	1
4901784	99	C	03/21/2018	10:41	-132.886	43.416	0	724.20	0	4.2770	0	34.3270	4	27.228	0	717.173	0	13.0	4	4.1	4	-1E+10	1	-1E+10	1	-1E+10	1	-1E+10	1	-1E+10	1	-1E+10	1
4901784	99	C	03/21/2018	10:41	-132.886	43.416	0	729.20	0	4.2610	0	34.3270	4	27.229	0	722.116	0	12.9	4	4.1	4	-1E+10	1	-1E+10	1	-1E+10	1	-1E+10	1	-1E+10	1	-1E+10	1
4901784	99	C	03/21/2018	10:41	-132.886	43.416	0	734.30	0	4.2580	0	34.3300	4	27.232	0	727.158	0	12.8	4	4.1	4	-1E+10	1	-1E+10	1	-1E+10	1	-1E+10	1	-1E+10	1	-1E+10	1
4901784	99	C	03/21/2018	10:41	-132.886	43.416	0	739.50	0	4.2340	0	34.3320	4	27.236	0	732.298	0	12.7	4	4.0	4	-1E+10	1	-1E+10	1	-1E+10	1	-1E+10	1	-1E+10	1	-1E+10	1
4901784	99	C	03/21/2018	10:41	-132.886	43.416	0	744.70	0	4.2160	0	34.3330	4	27.239	0	737.438	0	12.6	4	4.0	4	-1E+10	1	-1E+10	1	-1E+10	1	-1E+10	1	-1E+10	1	-1E+10	1
4901784	99	C	03/21/2018	10:41	-132.886	43.416	0	749.80	0	4.2080	0	34.3360	4	27.242	0	742.479	0	12.2	4	3.9	4	-1E+10	1	-1E+10	1	-1E+10	1	-1E+10	1	-1E+10	1	-1E+10	1
4901784	99	C	03/21/2018	10:41	-132.886	43.416	0	755.10	0	4.2250	0	34.3470	4	27.249	0	747.718	0	11.6	4	3.7	4	-1E+10	1	-1E+10	1	-1E+10	1	-1E+10	1	-1E+10	1	-1E+10	1
4901784	99	C	03/21/2018	10:41	-132.886	43.416	0	760.50	0	4.2060	0	34.3550	4	27.258	0	753.055	0	11.5	4	3.6	4	-1E+10	1	-1E+10	1	-1E+10	1	-1E+10	1	-1E+10	1	-1E+10	1
4901784	99	C	03/21/2018	10:41	-132.886	43.416	0	765.70	0	4.1840	0	34.3570	4	27.262	0	758.195	0	11.3	4	3.6	4	-1E+10	1	-1E+10	1	-1E+10	1	-1E+10	1	-1E+10	1	-1E+10	1
4901784	99	C	03/21/2018	10:41	-132.886	43.416	0	770.10	0	4.1680	0	34.3630	4	27.268	0	762.544	0	11.2	4	3.6	4	-1E+10	1	-1E+10	1	-1E+10	1	-1E+10	1	-1E+10	1	-1E+10	1
4901784	99	C	03/21/2018	10:41	-132.886	43.416	0	774.40	0	4.1630	0	34.3650	4	27.270	0	766.794	0	11.1	4	3.5	4	-1E+10	1	-1E+10	1	-1E+10	1	-1E+10	1	-1E+10	1	-1E+10	1
4901784	99	C	03/21/2018	10:41	-132.886	43.416	0	779.70	0	4.1500	0	34.3690	4	27.275	0	772.032	0	11.0	4	3.5	4	-1E+10	1	-1E+10	1	-1E+10	1	-1E+10	1	-1E+10	1	-1E+10	1
4901784	99	C	03/21/2018	10:41	-132.886	43.416	0	785.10	0	4.1290	0	34.3730	4	27.280	0	777.369	0	10.9	4	3.5	4	-1E+10	1	-1E+10	1	-1E+10	1	-1E+10	1	-1E+10	1	-1E+10	1
4901784	99	C	03/21/2018	10:41	-132.886	43.416	0	790.50	0	4.1030	0	34.3750	4	27.285	0	782.706	0	10.9	4	3.5	4	-1E+10	1	-1E+10	1	-1E+10	1	-1E+10	1	-1E+10	1	-1E+10	1
4901784	99	C	03/21/2018	10:41	-132.886	43.416	0	795.10	0	4.0610	0	34.3790	4	27.292	0	787.252	0	10.9	4	3.4	4	-1E+10	1	-1E+10	1	-1E+10	1	-1E+10	1	-1E+10	1	-1E+10	1
4901784	99	C	03/21/2018	10:41	-132.886	43.416	0	799.70	0	4.0280	0	34.3840	4	27.299	0	791.797	0	10.7	4	3.4	4	-1E+10	1	-1E+10	1	-1E+10	1	-1E+10	1	-1E+10	1	-1E+10	1
4901784	99	C	03/21/2018	10:41	-132.886	43.416	0	805.20	0	4.0270	0	34.3900	4	27.304	0	797.233	0	10.6	4	3.3	4	-1E+10	1	-1E+10	1	-1E+10	1	-1E+10	1	-1E+10	1	-1E+10	1
4901784	99	C	03/21/2018	10:41	-132.886	43.416	0	809.70	0	4.0290	0	34.3960	4	27.309	0	801.679	0	10.5	4	3.3	4	-1E+10	1	-1E+10	1	-1E+10	1	-1E+10	1	-1E+10	1	-1E+10	1
4901784	99	C	03/21/2018	10:41	-132.886	43.416	0	814.40	0	4.0170	0	34.4000	4	27.313	0	806.324	0	10.5	4	3.3	4	-1E+10	1	-1E+10	1	-1E+10	1	-1E+10	1	-1E+10	1	-1E+10	1
4901784	99	C	03/21/2018	10:41	-132.886	43.416	0	819.90	0	4.0090	0	34.4010	4	27.315	0	811.759	0	10.5	4	3.3	4	-1E+10	1	-1E+10	1	-1E+10	1	-1E+10	1	-1E+10	1	-1E+10	1
4901784	99	C	03/21/2018	10:41	-132.886	43.416	0	825.50	0	3.9970	0	34.4030	4	27.318	0	817.292	0	10.4	4	3.3	4	-1E+10	1	-1E+10	1	-1E+10	1	-1E+10	1	-1E+10	1	-1E+10	1
4901784	99	C	03/21/2018	10:41	-132.886	43.416	0	830.40	0	3.9740	0	34.4060	4	27.323	0	822.134	0	10.4	4	3.3	4	-1E+10	1	-1E+10	1	-1E+10	1	-1E+10	1	-1E+10	1	-1E+10	1
4901784	99	C	03/21/2018	10:41	-132.886	43.416	0	834.80	0	3.9650	0	34.4100	4	27.327	0	826.481	0	10.4	4	3.3	4	-1E+10	1	-1E+10	1	-1E+10	1	-1E+10	1	-1E+10	1	-1E+10	1
4901784	99	C	03/21/2018	10:41	-132.886	43.416	0	839.70	0	3.9550	0	34.4150	4	27.332	0	831.323	0	10.3	4	3.3	4	-1E+10	1	-1E+10	1	-1E+10	1	-1E+10	1	-1E+10	1	-1E+10	1
4901784	99	C	03/21/2018	10:41	-132.886	43.416	0	844.60	0	3.9280	0	34.4180	4	27.337	0	836.164	0	10.4	4	3.3	4	-1E+10	1	-1E+10	1	-1E+10	1	-1E+10	1	-1E+10	1	-1E+10	1
4901784	99	C	03/21/2018	10:41	-132.886	43.416	0	849.40	0	3.9080	0	34.4200	4	27.341	0	840.906	0	10.4	4	3.3	4	-1E+10	1	-1E+10	1	-1E+10	1	-1E+10	1	-1E+10	1	-1E+10	1
4901784	99	C	03/21/2018	10:41	-132.886	43.416	0	855.00	0	3.8880	0	34.4220	4	27.344	0	846.439	0	10.4	4	3.3	4	-1E+10	1	-1E+10	1	-1E+10	1	-1E+10	1	-1E+10	1	-1E+10	1
4901784	99	C	03/21/2018	10:41	-132.886	43.416	0	860.70	0	3.8490	0	34.4250	4	27.351	0	852.070	0	10.5	4	3.3	4	-1E+10	1	-1E+10	1	-1E+10	1	-1E+10	1	-1E+10	1	-1E+10	1
4901784	99	C	03/21/2018	10:41	-132.886	43.416	0	865.50	0	3.8230	0	34.4270	4	27.355	0	856.812	0	10.5	4	3.3	4	-1E+10	1	-1E+10	1	-1E+10	1	-1E+10	1	-1E+10	1	-1E+10	1
4901784	99	C	03/21/2018	10:41	-132.886	43.416	0	870.60	0	3.7710	0	34.4300	4	27.363	0	861.851	0	10.6	4	3.3	4	-1E+10	1	-1E+10	1	-1E+10	1	-1E+10	1	-1E+10	1	-1E+10	1
4901784	99	C	03/21/2018	10:41	-132.886	43.416	0	875.50	0	3.7210	0	34.4330	4	27.370	0	866.691	0	10.7	4	3.4	4	-1E+10	1	-1E+10	1	-1E+10	1	-1E+10	1	-1E+10	1	-1E+10	1
4901784	99	C	03/21/2018	10:41	-132.886	43.416	0	880.60	0	3.7130	0	34.4340	4	27.372	0	871.729	0	10.7	4	3.4	4	-1E+10	1	-1E+10	1	-1E+10	1	-1E+10	1	-1E+10	1	-1E+10	1
4901784	99	C	03/21/2018	10:41	-132.886	43.416	0	885.60	0	3.6940	0	34.4350	4	27.374	0	876.669	0	10.8	4	3.4	4	-1E+10	1	-1E+10	1	-1E+10	1	-1E+10	1	-1E+10	1	-1E+10	1
4901784	99	C	03/21/2018	10:41	-132.886	43.416	0	890.60	0	3.6590	0	34.4380	4	27.380	0	881.608	0	10.8	4	3.4	4	-1E+10	1	-1E+10	1	-1E+10	1	-1E+10	1	-1E+10	1	-1E+10	1
4901784	99	C	03/21/2018	10:41	-132.886	43.416	0	895.80	0	3.6490	0	34.4390	4	27.382	0	886.744	0	10.9	4	3.4	4	-1E+10	1	-1E+10	1	-1E+10	1	-1E+10	1	-1E+10	1	-1E+10	1
4901784	99	C	03/21/2018	10:41	-132.886	43.416	0	900.80	0	3.6270	0	34.4400	4	27.385	0	891.683	0	10.9	4	3.4	4	-1E+10	1	-1E+10	1	-1E+10	1	-1E+10	1	-1E+10	1	-1E+10	1
4901784	99	C	03/21/2018	10:41	-132.886	43.416	0	905.00	0	3.6110	0	34.4420	4	27.388	0	895.831	0	11.0	4	3.4	4	-1E+10	1	-1E+10	1	-1E+10	1	-1E+10	1	-1E+10	1	-1E+10	1
4901784	99	C	03/21/2018	10:41	-132.886	43.416	0	909.40	0	3.5940	0	34.4430	4	27.391	0	900.177	0	11.0	4	3.5	4	-1E+10	1	-1E+10	1	-1E+10	1	-1E+10	1	-1E+10	1	-1E+10	1
4901784	99	C	03/21/2018	10:41	-132.886	43.416	0	914.50	0	3.5850	0	34.4430	4	27.391	0	905.215	0	11.1	4	3.5	4	-1E+10	1	-1E+10	1	-1E+10	1	-1E+10	1	-1E+10	1	-1E+10	1
4901784	99	C	03/21/2018	10:41	-132.886	43.416	0	919.70	0	3.5510	0	34.4480	4	27.399	0	910.350	0	11.2	4	3.5	4	-1E+10	1	-1E+10	1	-1E+10	1	-1E+10	1	-1E+10	1	-1E+10	1
4901784	99	C	03/21/2018	10:41	-132.886	43.416	0	924.80	0	3.5260	0	34.4520	4	27.404	0	915.387	0	11.3	4	3.5	4	-1E+10	1	-1E+10	1	-1E+10	1	-1E+10	1	-1E+10	1	-1E+10	1
4901784	99	C	03/21/2018	10:41	-132.886	43.416	0	929.90	0	3.4920	0	34.4580	4	27.413	0	920.424	0	11.4	4	3.6	4	-1E+10	1	-1E+10	1	-1E+10	1	-1E+10	1	-1E+10	1	-1E+10	1
4901784	99	C	03/21/2018	10:41	-132.886	43.416	0	935.10	0	3.4750	0	34.4600	4	27.416	0	925.560	0	11.5	4	3.6	4	-1E+10	1	-1E+10	1	-1E+10	1	-1E+10	1	-1E+10	1	-1E+10	1
4901784	99	C	03/21/2018	10:41	-132.886	43.416	0	940.40	0	3.4560	0	34.4650	4	27.422	0	930.794	0	11.6	4	3.6	4	-1E+10	1	-1E+10	1	-1E+10	1	-1E+10	1	-1E+10	1	-1E+10	1
4901784	99	C	03/21/2018	10:41	-132.886	43.416	0	945.60	0	3.4460	0	34.4670	4	27.424	0	935.929	0	11.8	4	3.7	4	-1E+10	1	-1E+10	1	-1E+10	1	-1E+10	1	-1E+10	1	-1E+10	1
4901784	99	C	03/21/2018	10:41	-132.886	43.416	0	950.10	0	3.4350	0	34.4700	4	27.428	0	940.373	0	11.9	4	3.7	4	-1E+10	1	-1E+10	1	-1E+10	1	-1E+10	1	-1E+10	1	-1E+10	1
4901784	99	C	03/21/2018	10:41	-132.886	43.416	0	954.70	0	3.4210	0	34.4740	4	27.432	0	944.916	0	12.0	4	3.8	4	-1E+10	1	-1E+10	1	-1E+10	1	-1E+10	1	-1E+10	1	-1E+10	1
4901784	99	C	03/21/2018	10:41	-132.886	43.416	0	960.20	0	3.4100	0	34.4770	4	27.436	0	950.347	0	12.2	4	3.8	4	-1E+10	1	-1E+10	1	-1E+10	1	-1E+10	1	-1E+10	1	-1E+10	1
4901784	99	C	03/21/2018	10:41	-132.886	43.416	0	964.80	0	3.3940	0	34.4820	4	27.441	0	954.889	0	12.5	4	3.9	4	-1E+10	1	-1E+10	1	-1E+10	1	-1E+10	1	-1E+10	1	-1E+10	1
4901784	99	C	03/21/2018	10:41	-132.886	43.416	0	969.50	0	3.3750	0	34.4880	4	27.448	0	959.530	0	12.6	4	3.9	4	-1E+10	1	-1E+10	1	-1E+10	1	-1E+10	1	-1E+10	1	-1E+10	1
4901784	99	C	03/21/2018	10:41	-132.886	43.416	0	975.00	0	3.3750	0	34.4890	4	27.449	0	964.961	0	12.7	4	4.0	4	-1E+10	1	-1E+10	1	-1E+10	1	-1E+10	1	-1E+10	1	-1E+10	1
4901784	99	C	03/21/2018	10:41	-132.886	43.416	0	980.50	0	3.3740	0	34.4890	4	27.449	0	970.392	0	12.8	4	4.0	4	-1E+10	1	-1E+10	1	-1E+10	1	-1E+10	1	-1E+10	1	-1E+10	1
4901784	99	C	03/21/2018	10:41	-132.886	43.416	0	985.10	0	3.3740	0	34.4890	4	27.449	0	974.933	0	13.0	4	4.0	4	-1E+10	1	-1E+10	1	-1E+10	1	-1E+10	1	-1E+10	1	-1E+10	1
4901784	99	C	03/21/2018	10:41	-132.886	43.416	0	989.60	0	3.3570	0	34.4950	4	27.455	0	979.376	0	13.2	4	4.1	4	-1E+10	1	-1E+10	1	-1E+10	1	-1E+10	1	-1E+10	1	-1E+10	1
4901784	99	C	03/21/2018	10:41	-132.886	43.416	0	995.10	0	3.3500	0	34.4980	4	27.458	0	984.807	0	13.4	4	4.2	4	-1E+10	1	-1E+10	1	-1E+10	1	-1E+10	1	-1E+10	1	-1E+10	1
4901784	99	C	03/21/2018	10:41	-132.886	43.416	0	1000.50	0	3.3460	0	34.4990	4	27.460	0	990.138	0	13.6	4	4.2	4	-1E+10	1	-1E+10	1	-1E+10	1	-1E+10	1	-1E+10	1	-1E+10	1
4901784	99	C	03/21/2018	10:41	-132.886	43.416	0	1005.10	0	3.3390	0	34.5020	4	27.463	0	994.680	0	13.9	4	4.3	4	-1E+10	1	-1E+10	1	-1E+10	1	-1E+10	1	-1E+10	1	-1E+10	1
4901784	99	C	03/21/2018	10:41	-132.886	43.416	0	1009.60	0	3.3290	0	34.5060	4	27.467	0	999.122	0	14.1	4	4.4	4	-1E+10	1	-1E+10	1	-1E+10	1	-1E+10	1	-1E+10	1	-1E+10	1
4901784	99	C	03/21/2018	10:41	-132.886	43.416	0	1015.20	0	3.3250	0	34.5090	4	27.470	0	1004.651	0	14.3	4	4.5	4	-1E+10	1	-1E+10	1	-1E+10	1	-1E+10	1	-1E+10	1	-1E+10	1
4901784	99	C	03/21/2018	10:41	-132.886	43.416	0	1019.80	0	3.3190	0	34.5110	4	27.472	0	1009.192	0	14.6	4	4.5	4	-1E+10	1	-1E+10	1	-1E+10	1	-1E+10	1	-1E+10	1	-1E+10	1
4901784	99	C	03/21/2018	10:41	-132.886	43.416	0	1024.50	0	3.3110	0	34.5140	4	27.475	0	1013.832	0	14.9	4	4.6	4	-1E+10	1	-1E+10	1	-1E+10	1	-1E+10	1	-1E+10	1	-1E+10	1
4901784	99	C	03/21/2018	10:41	-132.886	43.416	0	1030.00	0	3.3070	0	34.5170	4	27.478	0	1019.261	0	15.2	4	4.7	4	-1E+10	1	-1E+10	1	-1E+10	1	-1E+10	1	-1E+10	1	-1E+10	1
4901784	99	C	03/21/2018	10:41	-132.886	43.416	0	1035.40	0	3.3110	0	34.5200	4	27.480	0	1024.591	0	15.6	4	4.9	4	-1E+10	1	-1E+10	1	-1E+10	1	-1E+10	1	-1E+10	1	-1E+10	1
4901784	99	C	03/21/2018	10:41	-132.886	43.416	0	1040.30	0	3.3100	0	34.5230	4	27.482	0	1029.428	0	15.9	4	4.9	4	-1E+10	1	-1E+10	1	-1E+10	1	-1E+10	1	-1E+10	1	-1E+10	1
4901784	99	C	03/21/2018	10:41	-132.886	43.416	0	1045.30	0	3.3060	0	34.5250	4	27.484	0	1034.364	0	16.1	4	5.0	4	-1E+10	1	-1E+10	1	-1E+10	1	-1E+10	1	-1E+10	1	-1E+10	1
4901784	99	C	03/21/2018	10:41	-132.886	43.416	0	1050.20	0	3.3030	0	34.5260	4	27.486	0	1039.200	0	16.3	4	5.1	4	-1E+10	1	-1E+10	1	-1E+10	1	-1E+10	1	-1E+10	1	-1E+10	1
4901784	99	C	03/21/2018	10:41	-132.886	43.416	0	1055.20	0	3.2990	0	34.5290	4	27.488	0	1044.135	0	16.7	4	5.2	4	-1E+10	1	-1E+10	1	-1E+10	1	-1E+10	1	-1E+10	1	-1E+10	1
4901784	99	C	03/21/2018	10:41	-132.886	43.416	0	1060.30	0	3.2930	0	34.5320	4	27.491	0	1049.169	0	17.1	4	5.3	4	-1E+10	1	-1E+10	1	-1E+10	1	-1E+10	1	-1E+10	1	-1E+10	1
4901784	99	C	03/21/2018	10:41	-132.886	43.416	0	1065.30	0	3.2920	0	34.5360	4	27.495	0	1054.104	0	17.6	4	5.5	4	-1E+10	1	-1E+10	1	-1E+10	1	-1E+10	1	-1E+10	1	-1E+10	1
4901784	99	C	03/21/2018	10:41	-132.886	43.416	0	1070.30	0	3.2930	0	34.5390	4	27.497	0	1059.039	0	17.8	4	5.5	4	-1E+10	1	-1E+10	1	-1E+10	1	-1E+10	1	-1E+10	1	-1E+10	1
4901784	99	C	03/21/2018	10:41	-132.886	43.416	0	1075.30	0	3.2910	0	34.5400	4	27.498	0	1063.974	0	18.0	4	5.6	4	-1E+10	1	-1E+10	1	-1E+10	1	-1E+10	1	-1E+10	1	-1E+10	1
4901784	99	C	03/21/2018	10:41	-132.886	43.416	0	1080.50	0	3.2880	0	34.5420	4	27.500	0	1069.106	0	18.2	4	5.7	4	-1E+10	1	-1E+10	1	-1E+10	1	-1E+10	1	-1E+10	1	-1E+10	1
4901784	99	C	03/21/2018	10:41	-132.886	43.416	0	1085.10	0	3.2830	0	34.5440	4	27.502	0	1073.645	0	18.4	4	5.7	4	-1E+10	1	-1E+10	1	-1E+10	1	-1E+10	1	-1E+10	1	-1E+10	1
4901784	99	C	03/21/2018	10:41	-132.886	43.416	0	1089.90	0	3.2820	0	34.5450	4	27.503	0	1078.383	0	18.6	4	5.8	4	-1E+10	1	-1E+10	1	-1E+10	1	-1E+10	1	-1E+10	1	-1E+10	1
4901784	99	C	03/21/2018	10:41	-132.886	43.416	0	1095.60	0	3.2810	0	34.5480	4	27.505	0	1084.008	0	19.0	4	5.9	4	-1E+10	1	-1E+10	1	-1E+10	1	-1E+10	1	-1E+10	1	-1E+10	1
4901784	99	C	03/21/2018	10:41	-132.886	43.416	0	1100.40	0	3.2810	0	34.5500	4	27.507	0	1088.744	0	19.2	4	6.0	4	-1E+10	1	-1E+10	1	-1E+10	1	-1E+10	1	-1E+10	1	-1E+10	1
4901784	99	C	03/21/2018	10:41	-132.886	43.416	0	1105.20	0	3.2840	0	34.5510	4	27.508	0	1093.481	0	19.6	4	6.1	4	-1E+10	1	-1E+10	1	-1E+10	1	-1E+10	1	-1E+10	1	-1E+10	1
4901784	99	C	03/21/2018	10:41	-132.886	43.416	0	1110.00	0	3.2900	0	34.5530	4	27.509	0	1098.218	0	20.0	4	6.2	4	-1E+10	1	-1E+10	1	-1E+10	1	-1E+10	1	-1E+10	1	-1E+10	1
4901784	99	C	03/21/2018	10:41	-132.886	43.416	0	1114.90	0	3.2880	0	34.5560	4	27.511	0	1103.053	0	20.1	4	6.3	4	-1E+10	1	-1E+10	1	-1E+10	1	-1E+10	1	-1E+10	1	-1E+10	1
4901784	99	C	03/21/2018	10:41	-132.886	43.416	0	1119.80	0	3.2850	0	34.5570	4	27.512	0	1107.888	0	20.3	4	6.3	4	-1E+10	1	-1E+10	1	-1E+10	1	-1E+10	1	-1E+10	1	-1E+10	1
4901784	99	C	03/21/2018	10:41	-132.886	43.416	0	1124.80	0	3.2820	0	34.5590	4	27.514	0	1112.821	0	20.4	4	6.3	4	-1E+10	1	-1E+10	1	-1E+10	1	-1E+10	1	-1E+10	1	-1E+10	1
4901784	99	C	03/21/2018	10:41	-132.886	43.416	0	1129.80	0	3.2800	0	34.5590	4	27.515	0	1117.755	0	20.4	4	6.4	4	-1E+10	1	-1E+10	1	-1E+10	1	-1E+10	1	-1E+10	1	-1E+10	1
4901784	99	C	03/21/2018	10:41	-132.886	43.416	0	1134.80	0	3.2770	0	34.5600	4	27.516	0	1122.688	0	20.6	4	6.4	4	-1E+10	1	-1E+10	1	-1E+10	1	-1E+10	1	-1E+10	1	-1E+10	1
4901784	99	C	03/21/2018	10:41	-132.886	43.416	0	1139.80	0	3.2740	0	34.5610	4	27.517	0	1127.621	0	20.8	4	6.5	4	-1E+10	1	-1E+10	1	-1E+10	1	-1E+10	1	-1E+10	1	-1E+10	1
4901784	99	C	03/21/2018	10:41	-132.886	43.416	0	1144.90	0	3.2730	0	34.5620	4	27.518	0	1132.653	0	20.9	4	6.5	4	-1E+10	1	-1E+10	1	-1E+10	1	-1E+10	1	-1E+10	1	-1E+10	1
4901784	99	C	03/21/2018	10:41	-132.886	43.416	0	1150.10	0	3.2680	0	34.5630	4	27.519	0	1137.783	0	21.0	4	6.5	4	-1E+10	1	-1E+10	1	-1E+10	1	-1E+10	1	-1E+10	1	-1E+10	1
4901784	99	C	03/21/2018	10:41	-132.886	43.416	0	1155.30	0	3.2610	0	34.5640	4	27.521	0	1142.914	0	21.3	4	6.6	4	-1E+10	1	-1E+10	1	-1E+10	1	-1E+10	1	-1E+10	1	-1E+10	1
4901784	99	C	03/21/2018	10:41	-132.886	43.416	0	1160.60	0	3.2590	0	34.5670	4	27.523	0	1148.142	0	21.6	4	6.7	4	-1E+10	1	-1E+10	1	-1E+10	1	-1E+10	1	-1E+10	1	-1E+10	1
4901784	99	C	03/21/2018	10:41	-132.886	43.416	0	1165.00	0	3.2610	0	34.5680	4	27.524	0	1152.483	0	21.8	4	6.8	4	-1E+10	1	-1E+10	1	-1E+10	1	-1E+10	1	-1E+10	1	-1E+10	1
4901784	99	C	03/21/2018	10:41	-132.886	43.416	0	1169.30	0	3.2610	0	34.5690	4	27.525	0	1156.725	0	22.1	4	6.9	4	-1E+10	1	-1E+10	1	-1E+10	1	-1E+10	1	-1E+10	1	-1E+10	1
4901784	99	C	03/21/2018	10:41	-132.886	43.416	0	1174.70	0	3.2590	0	34.5730	4	27.528	0	1162.052	0	22.7	4	7.1	4	-1E+10	1	-1E+10	1	-1E+10	1	-1E+10	1	-1E+10	1	-1E+10	1
4901784	99	C	03/21/2018	10:41	-132.886	43.416	0	1180.10	0	3.2640	0	34.5760	4	27.530	0	1167.379	0	22.9	4	7.1	4	-1E+10	1	-1E+10	1	-1E+10	1	-1E+10	1	-1E+10	1	-1E+10	1
4901784	99	C	03/21/2018	10:41	-132.886	43.416	0	1185.50	0	3.2620	0	34.5760	4	27.530	0	1172.705	0	23.1	4	7.2	4	-1E+10	1	-1E+10	1	-1E+10	1	-1E+10	1	-1E+10	1	-1E+10	1
4901784	99	C	03/21/2018	10:41	-132.886	43.416	0	1190.10	0	3.2600	0	34.5770	4	27.531	0	1177.243	0	23.2	4	7.2	4	-1E+10	1	-1E+10	1	-1E+10	1	-1E+10	1	-1E+10	1	-1E+10	1
4901784	99	C	03/21/2018	10:41	-132.886	43.416	0	1194.70	0	3.2580	0	34.5780	4	27.532	0	1181.780	0	23.4	4	7.3	4	-1E+10	1	-1E+10	1	-1E+10	1	-1E+10	1	-1E+10	1	-1E+10	1
4901784	99	C	03/21/2018	10:41	-132.886	43.416	0	1200.20	0	3.2530	0	34.5800	4	27.534	0	1187.205	0	23.6	4	7.3	4	-1E+10	1	-1E+10	1	-1E+10	1	-1E+10	1	-1E+10	1	-1E+10	1
4901784	99	C	03/21/2018	10:41	-132.886	43.416	0	1204.80	0	3.2540	0	34.5800	4	27.534	0	1191.743	0	23.7	4	7.4	4	-1E+10	1	-1E+10	1	-1E+10	1	-1E+10	1	-1E+10	1	-1E+10	1
4901784	99	C	03/21/2018	10:41	-132.886	43.416	0	1209.50	0	3.2520	0	34.5820	4	27.536	0	1196.378	0	24.0	4	7.5	4	-1E+10	1	-1E+10	1	-1E+10	1	-1E+10	1	-1E+10	1	-1E+10	1
4901784	99	C	03/21/2018	10:41	-132.886	43.416	0	1215.10	0	3.2450	0	34.5840	4	27.538	0	1201.901	0	24.2	4	7.5	4	-1E+10	1	-1E+10	1	-1E+10	1	-1E+10	1	-1E+10	1	-1E+10	1
4901784	99	C	03/21/2018	10:41	-132.886	43.416	0	1220.40	0	3.2390	0	34.5850	4	27.540	0	1207.129	0	24.3	4	7.6	4	-1E+10	1	-1E+10	1	-1E+10	1	-1E+10	1	-1E+10	1	-1E+10	1
4901784	99	C	03/21/2018	10:41	-132.886	43.416	0	1225.50	0	3.2320	0	34.5860	4	27.541	0	1212.159	0	24.5	4	7.6	4	-1E+10	1	-1E+10	1	-1E+10	1	-1E+10	1	-1E+10	1	-1E+10	1
4901784	99	C	03/21/2018	10:41	-132.886	43.416	0	1230.60	0	3.2300	0	34.5870	4	27.542	0	1217.188	0	24.7	4	7.7	4	-1E+10	1	-1E+10	1	-1E+10	1	-1E+10	1	-1E+10	1	-1E+10	1
4901784	99	C	03/21/2018	10:41	-132.886	43.416	0	1235.70	0	3.2290	0	34.5870	4	27.542	0	1222.218	0	24.8	4	7.7	4	-1E+10	1	-1E+10	1	-1E+10	1	-1E+10	1	-1E+10	1	-1E+10	1
4901784	99	C	03/21/2018	10:41	-132.886	43.416	0	1240.00	0	3.2230	0	34.5880	4	27.544	0	1226.458	0	24.9	4	7.7	4	-1E+10	1	-1E+10	1	-1E+10	1	-1E+10	1	-1E+10	1	-1E+10	1
4901784	99	C	03/21/2018	10:41	-132.886	43.416	0	1244.40	0	3.2140	0	34.5900	4	27.546	0	1230.798	0	25.0	4	7.8	4	-1E+10	1	-1E+10	1	-1E+10	1	-1E+10	1	-1E+10	1	-1E+10	1
4901784	99	C	03/21/2018	10:41	-132.886	43.416	0	1249.60	0	3.2110	0	34.5900	4	27.547	0	1235.925	0	25.0	4	7.8	4	-1E+10	1	-1E+10	1	-1E+10	1	-1E+10	1	-1E+10	1	-1E+10	1
4901784	99	C	03/21/2018	10:41	-132.886	43.416	0	1254.80	0	3.2060	0	34.5910	4	27.548	0	1241.053	0	25.1	4	7.8	4	-1E+10	1	-1E+10	1	-1E+10	1	-1E+10	1	-1E+10	1	-1E+10	1
4901784	99	C	03/21/2018	10:41	-132.886	43.416	0	1260.00	0	3.2010	0	34.5900	4	27.548	0	1246.181	0	25.1	4	7.8	4	-1E+10	1	-1E+10	1	-1E+10	1	-1E+10	1	-1E+10	1	-1E+10	1
4901784	99	C	03/21/2018	10:41	-132.886	43.416	0	1265.10	0	3.1870	0	34.5910	4	27.550	0	1251.210	0	25.0	4	7.8	4	-1E+10	1	-1E+10	1	-1E+10	1	-1E+10	1	-1E+10	1	-1E+10	1
4901784	99	C	03/21/2018	10:41	-132.886	43.416	0	1270.30	0	3.1690	0	34.5910	4	27.551	0	1256.337	0	25.1	4	7.8	4	-1E+10	1	-1E+10	1	-1E+10	1	-1E+10	1	-1E+10	1	-1E+10	1
4901784	99	C	03/21/2018	10:41	-132.886	43.416	0	1275.50	0	3.1590	0	34.5920	4	27.553	0	1261.464	0	25.2	4	7.8	4	-1E+10	1	-1E+10	1	-1E+10	1	-1E+10	1	-1E+10	1	-1E+10	1
4901784	99	C	03/21/2018	10:41	-132.886	43.416	0	1280.00	0	3.1520	0	34.5930	4	27.555	0	1265.901	0	25.3	4	7.9	4	-1E+10	1	-1E+10	1	-1E+10	1	-1E+10	1	-1E+10	1	-1E+10	1
4901784	99	C	03/21/2018	10:41	-132.886	43.416	0	1284.40	0	3.1490	0	34.5930	4	27.555	0	1270.240	0	25.3	4	7.8	4	-1E+10	1	-1E+10	1	-1E+10	1	-1E+10	1	-1E+10	1	-1E+10	1
4901784	99	C	03/21/2018	10:41	-132.886	43.416	0	1289.90	0	3.1450	0	34.5930	4	27.555	0	1275.662	0	25.3	4	7.9	4	-1E+10	1	-1E+10	1	-1E+10	1	-1E+10	1	-1E+10	1	-1E+10	1
4901784	99	C	03/21/2018	10:41	-132.886	43.416	0	1295.30	0	3.1410	0	34.5930	4	27.556	0	1280.986	0	25.5	4	7.9	4	-1E+10	1	-1E+10	1	-1E+10	1	-1E+10	1	-1E+10	1	-1E+10	1
4901784	99	C	03/21/2018	10:41	-132.886	43.416	0	1299.90	0	3.1300	0	34.5940	4	27.558	0	1285.522	0	25.6	4	7.9	4	-1E+10	1	-1E+10	1	-1E+10	1	-1E+10	1	-1E+10	1	-1E+10	1
4901784	99	C	03/21/2018	10:41	-132.886	43.416	0	1304.40	0	3.0980	0	34.5950	4	27.561	0	1289.958	0	25.6	4	7.9	4	-1E+10	1	-1E+10	1	-1E+10	1	-1E+10	1	-1E+10	1	-1E+10	1
4901784	99	C	03/21/2018	10:41	-132.886	43.416	0	1309.70	0	3.0540	0	34.5970	4	27.567	0	1295.183	0	25.6	4	7.9	4	-1E+10	1	-1E+10	1	-1E+10	1	-1E+10	1	-1E+10	1	-1E+10	1
4901784	99	C	03/21/2018	10:41	-132.886	43.416	0	1315.10	0	3.0360	0	34.5980	4	27.569	0	1300.506	0	25.6	4	7.9	4	-1E+10	1	-1E+10	1	-1E+10	1	-1E+10	1	-1E+10	1	-1E+10	1
4901784	99	C	03/21/2018	10:41	-132.886	43.416	0	1320.60	0	3.0350	0	34.5980	4	27.570	0	1305.928	0	25.6	4	7.9	4	-1E+10	1	-1E+10	1	-1E+10	1	-1E+10	1	-1E+10	1	-1E+10	1
4901784	99	C	03/21/2018	10:41	-132.886	43.416	0	1325.20	0	3.0340	0	34.5980	4	27.570	0	1310.463	0	25.7	4	7.9	4	-1E+10	1	-1E+10	1	-1E+10	1	-1E+10	1	-1E+10	1	-1E+10	1
4901784	99	C	03/21/2018	10:41	-132.886	43.416	0	1329.80	0	3.0300	0	34.5980	4	27.570	0	1314.998	0	25.7	4	8.0	4	-1E+10	1	-1E+10	1	-1E+10	1	-1E+10	1	-1E+10	1	-1E+10	1
4901784	99	C	03/21/2018	10:41	-132.886	43.416	0	1335.30	0	3.0260	0	34.5980	4	27.571	0	1320.419	0	25.7	4	7.9	4	-1E+10	1	-1E+10	1	-1E+10	1	-1E+10	1	-1E+10	1	-1E+10	1
4901784	99	C	03/21/2018	10:41	-132.886	43.416	0	1340.00	0	3.0240	0	34.5980	4	27.571	0	1325.052	0	25.7	4	7.9	4	-1E+10	1	-1E+10	1	-1E+10	1	-1E+10	1	-1E+10	1	-1E+10	1
4901784	99	C	03/21/2018	10:41	-132.886	43.416	0	1344.60	0	3.0210	0	34.5980	4	27.571	0	1329.586	0	25.7	4	7.9	4	-1E+10	1	-1E+10	1	-1E+10	1	-1E+10	1	-1E+10	1	-1E+10	1
4901784	99	C	03/21/2018	10:41	-132.886	43.416	0	1350.10	0	3.0180	0	34.5980	4	27.571	0	1335.007	0	25.7	4	7.9	4	-1E+10	1	-1E+10	1	-1E+10	1	-1E+10	1	-1E+10	1	-1E+10	1
4901784	99	C	03/21/2018	10:41	-132.886	43.416	0	1354.80	0	3.0150	0	34.5980	4	27.572	0	1339.640	0	25.6	4	7.9	4	-1E+10	1	-1E+10	1	-1E+10	1	-1E+10	1	-1E+10	1	-1E+10	1
4901784	99	C	03/21/2018	10:41	-132.886	43.416	0	1359.70	0	3.0050	0	34.5980	4	27.573	0	1344.469	0	25.6	4	7.9	4	-1E+10	1	-1E+10	1	-1E+10	1	-1E+10	1	-1E+10	1	-1E+10	1
4901784	99	C	03/21/2018	10:41	-132.886	43.416	0	1364.90	0	3.0000	0	34.5980	4	27.573	0	1349.595	0	25.6	4	7.9	4	-1E+10	1	-1E+10	1	-1E+10	1	-1E+10	1	-1E+10	1	-1E+10	1
4901784	99	C	03/21/2018	10:41	-132.886	43.416	0	1369.70	0	2.9930	0	34.5980	4	27.574	0	1354.325	0	25.6	4	7.9	4	-1E+10	1	-1E+10	1	-1E+10	1	-1E+10	1	-1E+10	1	-1E+10	1
4901784	99	C	03/21/2018	10:41	-132.886	43.416	0	1374.50	0	2.9890	0	34.5980	4	27.574	0	1359.056	0	25.6	4	7.9	4	-1E+10	1	-1E+10	1	-1E+10	1	-1E+10	1	-1E+10	1	-1E+10	1
4901784	99	C	03/21/2018	10:41	-132.886	43.416	0	1379.50	0	2.9830	0	34.5980	4	27.575	0	1363.984	0	25.5	4	7.9	4	-1E+10	1	-1E+10	1	-1E+10	1	-1E+10	1	-1E+10	1	-1E+10	1
4901784	99	C	03/21/2018	10:41	-132.886	43.416	0	1384.50	0	2.9720	0	34.5980	4	27.576	0	1368.911	0	25.6	4	7.9	4	-1E+10	1	-1E+10	1	-1E+10	1	-1E+10	1	-1E+10	1	-1E+10	1
4901784	99	C	03/21/2018	10:41	-132.886	43.416	0	1389.40	0	2.9590	0	34.5980	4	27.577	0	1373.740	0	25.6	4	7.9	4	-1E+10	1	-1E+10	1	-1E+10	1	-1E+10	1	-1E+10	1	-1E+10	1
4901784	99	C	03/21/2018	10:41	-132.886	43.416	0	1394.40	0	2.9500	0	34.5990	4	27.579	0	1378.667	0	25.5	4	7.9	4	-1E+10	1	-1E+10	1	-1E+10	1	-1E+10	1	-1E+10	1	-1E+10	1
4901784	99	C	03/21/2018	10:41	-132.886	43.416	0	1399.40	0	2.9490	0	34.5990	4	27.579	0	1383.595	0	25.5	4	7.9	4	-1E+10	1	-1E+10	1	-1E+10	1	-1E+10	1	-1E+10	1	-1E+10	1
4901784	99	C	03/21/2018	10:41	-132.886	43.416	0	1404.40	0	2.9450	0	34.5980	4	27.578	0	1388.522	0	25.5	4	7.9	4	-1E+10	1	-1E+10	1	-1E+10	1	-1E+10	1	-1E+10	1	-1E+10	1
4901784	99	C	03/21/2018	10:41	-132.886	43.416	0	1409.50	0	2.9340	0	34.5980	4	27.579	0	1393.547	0	25.4	4	7.8	4	-1E+10	1	-1E+10	1	-1E+10	1	-1E+10	1	-1E+10	1	-1E+10	1
4901784	99	C	03/21/2018	10:41	-132.886	43.416	0	1414.50	0	2.9250	0	34.5980	4	27.580	0	1398.474	0	25.4	4	7.8	4	-1E+10	1	-1E+10	1	-1E+10	1	-1E+10	1	-1E+10	1	-1E+10	1
4901784	99	C	03/21/2018	10:41	-132.886	43.416	0	1419.50	0	2.9130	0	34.5980	4	27.581	0	1403.401	0	25.4	4	7.8	4	-1E+10	1	-1E+10	1	-1E+10	1	-1E+10	1	-1E+10	1	-1E+10	1
4901784	99	C	03/21/2018	10:41	-132.886	43.416	0	1424.60	0	2.9060	0	34.5980	4	27.582	0	1408.426	0	25.4	4	7.8	4	-1E+10	1	-1E+10	1	-1E+10	1	-1E+10	1	-1E+10	1	-1E+10	1
4901784	99	C	03/21/2018	10:41	-132.886	43.416	0	1429.60	0	2.9010	0	34.5980	4	27.582	0	1413.352	0	25.3	4	7.8	4	-1E+10	1	-1E+10	1	-1E+10	1	-1E+10	1	-1E+10	1	-1E+10	1
4901784	99	C	03/21/2018	10:41	-132.886	43.416	0	1434.70	0	2.8940	0	34.5980	4	27.583	0	1418.377	0	25.3	4	7.8	4	-1E+10	1	-1E+10	1	-1E+10	1	-1E+10	1	-1E+10	1	-1E+10	1
4901784	99	C	03/21/2018	10:41	-132.886	43.416	0	1439.70	0	2.8860	0	34.5980	4	27.584	0	1423.303	0	25.3	4	7.8	4	-1E+10	1	-1E+10	1	-1E+10	1	-1E+10	1	-1E+10	1	-1E+10	1
4901784	99	C	03/21/2018	10:41	-132.886	43.416	0	1444.80	0	2.8780	0	34.5980	4	27.584	0	1428.328	0	25.3	4	7.8	4	-1E+10	1	-1E+10	1	-1E+10	1	-1E+10	1	-1E+10	1	-1E+10	1
4901784	99	C	03/21/2018	10:41	-132.886	43.416	0	1449.90	0	2.8700	0	34.5980	4	27.585	0	1433.353	0	25.3	4	7.8	4	-1E+10	1	-1E+10	1	-1E+10	1	-1E+10	1	-1E+10	1	-1E+10	1
4901784	99	C	03/21/2018	10:41	-132.886	43.416	0	1454.90	0	2.8660	0	34.5980	4	27.586	0	1438.279	0	25.3	4	7.8	4	-1E+10	1	-1E+10	1	-1E+10	1	-1E+10	1	-1E+10	1	-1E+10	1
4901784	99	C	03/21/2018	10:41	-132.886	43.416	0	1460.00	0	2.8560	0	34.5980	4	27.587	0	1443.303	0	25.3	4	7.8	4	-1E+10	1	-1E+10	1	-1E+10	1	-1E+10	1	-1E+10	1	-1E+10	1
4901784	99	C	03/21/2018	10:41	-132.886	43.416	0	1465.00	0	2.8460	0	34.5980	4	27.587	0	1448.229	0	25.3	4	7.8	4	-1E+10	1	-1E+10	1	-1E+10	1	-1E+10	1	-1E+10	1	-1E+10	1
4901784	99	C	03/21/2018	10:41	-132.886	43.416	0	1470.10	0	2.8390	0	34.5990	4	27.589	0	1453.253	0	25.3	4	7.8	4	-1E+10	1	-1E+10	1	-1E+10	1	-1E+10	1	-1E+10	1	-1E+10	1
4901784	99	C	03/21/2018	10:41	-132.886	43.416	0	1475.20	0	2.8330	0	34.5990	4	27.589	0	1458.277	0	25.3	4	7.8	4	-1E+10	1	-1E+10	1	-1E+10	1	-1E+10	1	-1E+10	1	-1E+10	1
4901784	99	C	03/21/2018	10:41	-132.886	43.416	0	1480.20	0	2.8300	0	34.5990	4	27.590	0	1463.202	0	25.3	4	7.8	4	-1E+10	1	-1E+10	1	-1E+10	1	-1E+10	1	-1E+10	1	-1E+10	1
4901784	99	C	03/21/2018	10:41	-132.886	43.416	0	1485.30	0	2.8210	0	34.5990	4	27.591	0	1468.226	0	25.3	4	7.8	4	-1E+10	1	-1E+10	1	-1E+10	1	-1E+10	1	-1E+10	1	-1E+10	1
4901784	99	C	03/21/2018	10:41	-132.886	43.416	0	1490.50	0	2.8120	0	34.5990	4	27.591	0	1473.348	0	25.3	4	7.8	4	-1E+10	1	-1E+10	1	-1E+10	1	-1E+10	1	-1E+10	1	-1E+10	1
4901784	99	C	03/21/2018	10:41	-132.886	43.416	0	1495.70	0	2.8070	0	34.5990	4	27.592	0	1478.470	0	25.3	4	7.8	4	-1E+10	1	-1E+10	1	-1E+10	1	-1E+10	1	-1E+10	1	-1E+10	1
4901784	99	C	03/21/2018	10:41	-132.886	43.416	0	1500.10	0	2.8020	0	34.5990	4	27.592	0	1482.804	0	25.3	4	7.8	4	-1E+10	1	-1E+10	1	-1E+10	1	-1E+10	1	-1E+10	1	-1E+10	1
4901784	99	C	03/21/2018	10:41	-132.886	43.416	0	1504.40	0	2.7930	0	34.5990	4	27.593	0	1487.039	0	25.3	4	7.8	4	-1E+10	1	-1E+10	1	-1E+10	1	-1E+10	1	-1E+10	1	-1E+10	1
4901784	99	C	03/21/2018	10:41	-132.886	43.416	0	1509.60	0	2.7820	0	34.5990	4	27.594	0	1492.161	0	25.3	4	7.8	4	-1E+10	1	-1E+10	1	-1E+10	1	-1E+10	1	-1E+10	1	-1E+10	1
4901784	99	C	03/21/2018	10:41	-132.886	43.416	0	1514.90	0	2.7750	0	34.5990	4	27.595	0	1497.381	0	25.4	4	7.8	4	-1E+10	1	-1E+10	1	-1E+10	1	-1E+10	1	-1E+10	1	-1E+10	1
4901784	99	C	03/21/2018	10:41	-132.886	43.416	0	1520.30	0	2.7550	0	34.5990	4	27.597	0	1502.699	0	25.5	4	7.8	4	-1E+10	1	-1E+10	1	-1E+10	1	-1E+10	1	-1E+10	1	-1E+10	1
4901784	99	C	03/21/2018	10:41	-132.886	43.416	0	1524.80	0	2.7370	0	34.6000	4	27.599	0	1507.131	0	25.5	4	7.8	4	-1E+10	1	-1E+10	1	-1E+10	1	-1E+10	1	-1E+10	1	-1E+10	1
4901784	99	C	03/21/2018	10:41	-132.886	43.416	0	1529.30	0	2.7250	0	34.6000	4	27.600	0	1511.563	0	25.6	4	7.9	4	-1E+10	1	-1E+10	1	-1E+10	1	-1E+10	1	-1E+10	1	-1E+10	1
4901784	99	C	03/21/2018	10:41	-132.886	43.416	0	1534.70	0	2.7010	0	34.6010	4	27.603	0	1516.881	0	25.7	4	7.9	4	-1E+10	1	-1E+10	1	-1E+10	1	-1E+10	1	-1E+10	1	-1E+10	1
4901784	99	C	03/21/2018	10:41	-132.886	43.416	0	1540.00	0	2.6810	0	34.6010	4	27.605	0	1522.100	0	25.8	4	7.9	4	-1E+10	1	-1E+10	1	-1E+10	1	-1E+10	1	-1E+10	1	-1E+10	1
4901784	99	C	03/21/2018	10:41	-132.886	43.416	0	1545.40	0	2.6720	0	34.6020	4	27.606	0	1527.418	0	25.9	4	7.9	4	-1E+10	1	-1E+10	1	-1E+10	1	-1E+10	1	-1E+10	1	-1E+10	1
4901784	99	C	03/21/2018	10:41	-132.886	43.416	0	1549.90	0	2.6680	0	34.6020	4	27.607	0	1531.849	0	26.0	4	8.0	4	-1E+10	1	-1E+10	1	-1E+10	1	-1E+10	1	-1E+10	1	-1E+10	1
4901784	99	C	03/21/2018	10:41	-132.886	43.416	0	1554.30	0	2.6610	0	34.6020	4	27.607	0	1536.182	0	26.1	4	8.0	4	-1E+10	1	-1E+10	1	-1E+10	1	-1E+10	1	-1E+10	1	-1E+10	1
4901784	99	C	03/21/2018	10:41	-132.886	43.416	0	1559.60	0	2.6420	0	34.6030	4	27.610	0	1541.401	0	26.3	4	8.1	4	-1E+10	1	-1E+10	1	-1E+10	1	-1E+10	1	-1E+10	1	-1E+10	1
4901784	99	C	03/21/2018	10:41	-132.886	43.416	0	1564.90	0	2.6230	0	34.6040	4	27.612	0	1546.620	0	26.5	4	8.1	4	-1E+10	1	-1E+10	1	-1E+10	1	-1E+10	1	-1E+10	1	-1E+10	1
4901784	99	C	03/21/2018	10:41	-132.886	43.416	0	1570.20	0	2.6150	0	34.6040	4	27.613	0	1551.838	0	26.7	4	8.2	4	-1E+10	1	-1E+10	1	-1E+10	1	-1E+10	1	-1E+10	1	-1E+10	1
4901784	99	C	03/21/2018	10:41	-132.886	43.416	0	1575.50	0	2.5980	0	34.6060	4	27.616	0	1557.057	0	26.9	4	8.2	4	-1E+10	1	-1E+10	1	-1E+10	1	-1E+10	1	-1E+10	1	-1E+10	1
4901784	99	C	03/21/2018	10:41	-132.886	43.416	0	1579.90	0	2.5900	0	34.6060	4	27.617	0	1561.389	0	27.1	4	8.3	4	-1E+10	1	-1E+10	1	-1E+10	1	-1E+10	1	-1E+10	1	-1E+10	1
4901784	99	C	03/21/2018	10:41	-132.886	43.416	0	1584.40	0	2.5870	0	34.6060	4	27.617	0	1565.820	0	27.3	4	8.4	4	-1E+10	1	-1E+10	1	-1E+10	1	-1E+10	1	-1E+10	1	-1E+10	1
4901784	99	C	03/21/2018	10:41	-132.886	43.416	0	1589.80	0	2.5670	0	34.6080	4	27.620	0	1571.137	0	27.8	4	8.5	4	-1E+10	1	-1E+10	1	-1E+10	1	-1E+10	1	-1E+10	1	-1E+10	1
4901784	99	C	03/21/2018	10:41	-132.886	43.416	0	1595.10	0	2.5440	0	34.6090	4	27.623	0	1576.355	0	28.2	4	8.6	4	-1E+10	1	-1E+10	1	-1E+10	1	-1E+10	1	-1E+10	1	-1E+10	1
4901784	99	C	03/21/2018	10:41	-132.886	43.416	0	1600.50	0	2.5230	0	34.6110	4	27.626	0	1581.671	0	28.5	4	8.7	4	-1E+10	1	-1E+10	1	-1E+10	1	-1E+10	1	-1E+10	1	-1E+10	1
4901784	99	C	03/21/2018	10:41	-132.886	43.416	0	1604.90	0	2.5170	0	34.6120	4	27.628	0	1586.003	0	28.7	4	8.8	4	-1E+10	1	-1E+10	1	-1E+10	1	-1E+10	1	-1E+10	1	-1E+10	1
4901784	99	C	03/21/2018	10:41	-132.886	43.416	0	1609.40	0	2.5090	0	34.6120	4	27.628	0	1590.433	0	29.1	4	8.9	4	-1E+10	1	-1E+10	1	-1E+10	1	-1E+10	1	-1E+10	1	-1E+10	1
4901784	99	C	03/21/2018	10:41	-132.886	43.416	0	1614.80	0	2.4910	0	34.6140	4	27.632	0	1595.749	0	29.6	4	9.0	4	-1E+10	1	-1E+10	1	-1E+10	1	-1E+10	1	-1E+10	1	-1E+10	1
4901784	99	C	03/21/2018	10:41	-132.886	43.416	0	1620.20	0	2.4710	0	34.6160	4	27.635	0	1601.065	0	30.1	4	9.2	4	-1E+10	1	-1E+10	1	-1E+10	1	-1E+10	1	-1E+10	1	-1E+10	1
4901784	99	C	03/21/2018	10:41	-132.886	43.416	0	1625.60	0	2.4580	0	34.6180	4	27.638	0	1606.380	0	30.7	4	9.4	4	-1E+10	1	-1E+10	1	-1E+10	1	-1E+10	1	-1E+10	1	-1E+10	1
4901784	99	C	03/21/2018	10:41	-132.886	43.416	0	1630.10	0	2.4480	0	34.6190	4	27.639	0	1610.810	0	31.1	4	9.5	4	-1E+10	1	-1E+10	1	-1E+10	1	-1E+10	1	-1E+10	1	-1E+10	1
4901784	99	C	03/21/2018	10:41	-132.886	43.416	0	1634.60	0	2.4350	0	34.6200	4	27.641	0	1615.240	0	31.6	4	9.6	4	-1E+10	1	-1E+10	1	-1E+10	1	-1E+10	1	-1E+10	1	-1E+10	1
4901784	99	C	03/21/2018	10:41	-132.886	43.416	0	1640.10	0	2.4160	0	34.6230	4	27.645	0	1620.654	0	32.1	4	9.8	4	-1E+10	1	-1E+10	1	-1E+10	1	-1E+10	1	-1E+10	1	-1E+10	1
4901784	99	C	03/21/2018	10:41	-132.886	43.416	0	1645.50	0	2.4110	0	34.6230	4	27.646	0	1625.969	0	32.4	4	9.9	4	-1E+10	1	-1E+10	1	-1E+10	1	-1E+10	1	-1E+10	1	-1E+10	1
4901784	99	C	03/21/2018	10:41	-132.886	43.416	0	1650.00	0	2.4050	0	34.6240	4	27.647	0	1630.398	0	32.9	4	10.0	4	-1E+10	1	-1E+10	1	-1E+10	1	-1E+10	1	-1E+10	1	-1E+10	1
4901784	99	C	03/21/2018	10:41	-132.886	43.416	0	1654.60	0	2.3860	0	34.6270	4	27.651	0	1634.926	0	33.5	4	10.2	4	-1E+10	1	-1E+10	1	-1E+10	1	-1E+10	1	-1E+10	1	-1E+10	1
4901784	99	C	03/21/2018	10:41	-132.886	43.416	0	1660.10	0	2.3720	0	34.6280	4	27.653	0	1640.339	0	34.0	4	10.4	4	-1E+10	1	-1E+10	1	-1E+10	1	-1E+10	1	-1E+10	1	-1E+10	1
4901784	99	C	03/21/2018	10:41	-132.886	43.416	0	1665.60	0	2.3580	0	34.6300	4	27.656	0	1645.752	0	34.7	4	10.6	4	-1E+10	1	-1E+10	1	-1E+10	1	-1E+10	1	-1E+10	1	-1E+10	1
4901784	99	C	03/21/2018	10:41	-132.886	43.416	0	1670.10	0	2.3440	0	34.6330	4	27.659	0	1650.181	0	35.2	4	10.7	4	-1E+10	1	-1E+10	1	-1E+10	1	-1E+10	1	-1E+10	1	-1E+10	1
4901784	99	C	03/21/2018	10:41	-132.886	43.416	0	1674.60	0	2.3390	0	34.6330	4	27.660	0	1654.610	0	35.5	4	10.8	4	-1E+10	1	-1E+10	1	-1E+10	1	-1E+10	1	-1E+10	1	-1E+10	1
4901784	99	C	03/21/2018	10:41	-132.886	43.416	0	1680.10	0	2.3340	0	34.6340	4	27.661	0	1660.023	0	36.2	4	11.0	4	-1E+10	1	-1E+10	1	-1E+10	1	-1E+10	1	-1E+10	1	-1E+10	1
4901784	99	C	03/21/2018	10:41	-132.886	43.416	0	1685.60	0	2.3160	0	34.6360	4	27.664	0	1665.435	0	36.8	4	11.2	4	-1E+10	1	-1E+10	1	-1E+10	1	-1E+10	1	-1E+10	1	-1E+10	1
4901784	99	C	03/21/2018	10:41	-132.886	43.416	0	1690.10	0	2.2990	0	34.6390	4	27.668	0	1669.864	0	37.3	4	11.3	4	-1E+10	1	-1E+10	1	-1E+10	1	-1E+10	1	-1E+10	1	-1E+10	1
4901784	99	C	03/21/2018	10:41	-132.886	43.416	0	1694.60	0	2.2970	0	34.6390	4	27.668	0	1674.292	0	37.6	4	11.4	4	-1E+10	1	-1E+10	1	-1E+10	1	-1E+10	1	-1E+10	1	-1E+10	1
4901784	99	C	03/21/2018	10:41	-132.886	43.416	0	1700.10	0	2.2930	0	34.6400	4	27.669	0	1679.705	0	38.1	4	11.6	4	-1E+10	1	-1E+10	1	-1E+10	1	-1E+10	1	-1E+10	1	-1E+10	1
4901784	99	C	03/21/2018	10:41	-132.886	43.416	0	1705.50	0	2.2820	0	34.6420	4	27.672	0	1685.018	0	38.4	4	11.7	4	-1E+10	1	-1E+10	1	-1E+10	1	-1E+10	1	-1E+10	1	-1E+10	1
4901784	99	C	03/21/2018	10:41	-132.886	43.416	0	1710.00	0	2.2710	0	34.6420	4	27.672	0	1689.446	0	38.6	4	11.7	4	-1E+10	1	-1E+10	1	-1E+10	1	-1E+10	1	-1E+10	1	-1E+10	1
4901784	99	C	03/21/2018	10:41	-132.886	43.416	0	1714.50	0	2.2630	0	34.6430	4	27.674	0	1693.874	0	39.1	4	11.9	4	-1E+10	1	-1E+10	1	-1E+10	1	-1E+10	1	-1E+10	1	-1E+10	1
4901784	99	C	03/21/2018	10:41	-132.886	43.416	0	1720.00	0	2.2540	0	34.6450	4	27.676	0	1699.286	0	39.4	4	12.0	4	-1E+10	1	-1E+10	1	-1E+10	1	-1E+10	1	-1E+10	1	-1E+10	1
4901784	99	C	03/21/2018	10:41	-132.886	43.416	0	1725.50	0	2.2490	0	34.6450	4	27.677	0	1704.698	0	39.7	4	12.1	4	-1E+10	1	-1E+10	1	-1E+10	1	-1E+10	1	-1E+10	1	-1E+10	1
4901784	99	C	03/21/2018	10:41	-132.886	43.416	0	1730.10	0	2.2390	0	34.6450	4	27.678	0	1709.224	0	40.2	4	12.2	4	-1E+10	1	-1E+10	1	-1E+10	1	-1E+10	1	-1E+10	1	-1E+10	1
4901784	99	C	03/21/2018	10:41	-132.886	43.416	0	1734.60	0	2.2280	0	34.6470	4	27.680	0	1713.651	0	40.8	4	12.4	4	-1E+10	1	-1E+10	1	-1E+10	1	-1E+10	1	-1E+10	1	-1E+10	1
4901784	99	C	03/21/2018	10:41	-132.886	43.416	0	1740.10	0	2.2180	0	34.6490	4	27.683	0	1719.063	0	41.3	4	12.5	4	-1E+10	1	-1E+10	1	-1E+10	1	-1E+10	1	-1E+10	1	-1E+10	1
4901784	99	C	03/21/2018	10:41	-132.886	43.416	0	1745.60	0	2.2090	0	34.6500	4	27.684	0	1724.474	0	42.0	4	12.7	4	-1E+10	1	-1E+10	1	-1E+10	1	-1E+10	1	-1E+10	1	-1E+10	1
4901784	99	C	03/21/2018	10:41	-132.886	43.416	0	1750.30	0	2.1990	0	34.6520	4	27.687	0	1729.098	0	42.5	4	12.9	4	-1E+10	1	-1E+10	1	-1E+10	1	-1E+10	1	-1E+10	1	-1E+10	1
4901784	99	C	03/21/2018	10:41	-132.886	43.416	0	1754.90	0	2.1960	0	34.6530	4	27.688	0	1733.623	0	42.9	4	13.0	4	-1E+10	1	-1E+10	1	-1E+10	1	-1E+10	1	-1E+10	1	-1E+10	1
4901784	99	C	03/21/2018	10:41	-132.886	43.416	0	1759.80	0	2.1910	0	34.6530	4	27.688	0	1738.444	0	43.4	4	13.2	4	-1E+10	1	-1E+10	1	-1E+10	1	-1E+10	1	-1E+10	1	-1E+10	1
4901784	99	C	03/21/2018	10:41	-132.886	43.416	0	1764.80	0	2.1800	0	34.6550	4	27.691	0	1743.363	0	44.1	4	13.4	4	-1E+10	1	-1E+10	1	-1E+10	1	-1E+10	1	-1E+10	1	-1E+10	1
4901784	99	C	03/21/2018	10:41	-132.886	43.416	0	1769.80	0	2.1680	0	34.6570	4	27.693	0	1748.281	0	44.5	4	13.5	4	-1E+10	1	-1E+10	1	-1E+10	1	-1E+10	1	-1E+10	1	-1E+10	1
4901784	99	C	03/21/2018	10:41	-132.886	43.416	0	1774.70	0	2.1530	0	34.6590	4	27.696	0	1753.102	0	45.0	4	13.6	4	-1E+10	1	-1E+10	1	-1E+10	1	-1E+10	1	-1E+10	1	-1E+10	1
4901784	99	C	03/21/2018	10:41	-132.886	43.416	0	1779.80	0	2.1480	0	34.6590	4	27.696	0	1758.118	0	45.2	4	13.7	4	-1E+10	1	-1E+10	1	-1E+10	1	-1E+10	1	-1E+10	1	-1E+10	1
4901784	99	C	03/21/2018	10:41	-132.886	43.416	0	1784.80	0	2.1450	0	34.6590	4	27.697	0	1763.037	0	45.5	4	13.8	4	-1E+10	1	-1E+10	1	-1E+10	1	-1E+10	1	-1E+10	1	-1E+10	1
4901784	99	C	03/21/2018	10:41	-132.886	43.416	0	1789.80	0	2.1390	0	34.6610	4	27.699	0	1767.955	0	45.7	4	13.8	4	-1E+10	1	-1E+10	1	-1E+10	1	-1E+10	1	-1E+10	1	-1E+10	1
4901784	99	C	03/21/2018	10:41	-132.886	43.416	0	1794.80	0	2.1350	0	34.6610	4	27.699	0	1772.873	0	45.9	4	13.9	4	-1E+10	1	-1E+10	1	-1E+10	1	-1E+10	1	-1E+10	1	-1E+10	1
4901784	99	C	03/21/2018	10:41	-132.886	43.416	0	1800.00	0	2.1340	0	34.6620	4	27.700	0	1777.988	0	46.0	4	13.9	4	-1E+10	1	-1E+10	1	-1E+10	1	-1E+10	1	-1E+10	1	-1E+10	1
4901784	99	C	03/21/2018	10:41	-132.886	43.416	0	1805.20	0	2.1320	0	34.6620	4	27.700	0	1783.102	0	46.3	4	14.0	4	-1E+10	1	-1E+10	1	-1E+10	1	-1E+10	1	-1E+10	1	-1E+10	1
4901784	99	C	03/21/2018	10:41	-132.886	43.416	0	1810.40	0	2.1280	0	34.6620	4	27.701	0	1788.217	0	46.6	4	14.1	4	-1E+10	1	-1E+10	1	-1E+10	1	-1E+10	1	-1E+10	1	-1E+10	1
4901784	99	C	03/21/2018	10:41	-132.886	43.416	0	1815.60	0	2.1200	0	34.6630	4	27.702	0	1793.331	0	47.0	4	14.2	4	-1E+10	1	-1E+10	1	-1E+10	1	-1E+10	1	-1E+10	1	-1E+10	1
4901784	99	C	03/21/2018	10:41	-132.886	43.416	0	1820.00	0	2.1150	0	34.6640	4	27.703	0	1797.659	0	47.3	4	14.3	4	-1E+10	1	-1E+10	1	-1E+10	1	-1E+10	1	-1E+10	1	-1E+10	1
4901784	99	C	03/21/2018	10:41	-132.886	43.416	0	1824.50	0	2.1100	0	34.6650	4	27.704	0	1802.084	0	47.6	4	14.4	4	-1E+10	1	-1E+10	1	-1E+10	1	-1E+10	1	-1E+10	1	-1E+10	1
4901784	99	C	03/21/2018	10:41	-132.886	43.416	0	1829.80	0	2.1070	0	34.6650	4	27.705	0	1807.297	0	48.0	4	14.5	4	-1E+10	1	-1E+10	1	-1E+10	1	-1E+10	1	-1E+10	1	-1E+10	1
4901784	99	C	03/21/2018	10:41	-132.886	43.416	0	1835.20	0	2.1040	0	34.6660	4	27.706	0	1812.607	0	48.6	4	14.7	4	-1E+10	1	-1E+10	1	-1E+10	1	-1E+10	1	-1E+10	1	-1E+10	1
4901784	99	C	03/21/2018	10:41	-132.886	43.416	0	1839.70	0	2.0970	0	34.6680	4	27.708	0	1817.033	0	49.2	4	14.9	4	-1E+10	1	-1E+10	1	-1E+10	1	-1E+10	1	-1E+10	1	-1E+10	1
4901784	99	C	03/21/2018	10:41	-132.886	43.416	0	1844.20	0	2.0870	0	34.6690	4	27.710	0	1821.458	0	49.9	4	15.1	4	-1E+10	1	-1E+10	1	-1E+10	1	-1E+10	1	-1E+10	1	-1E+10	1
4901784	99	C	03/21/2018	10:41	-132.886	43.416	0	1849.50	0	2.0770	0	34.6720	4	27.713	0	1826.670	0	50.3	4	15.2	4	-1E+10	1	-1E+10	1	-1E+10	1	-1E+10	1	-1E+10	1	-1E+10	1
4901784	99	C	03/21/2018	10:41	-132.886	43.416	0	1854.30	0	2.0750	0	34.6720	4	27.713	0	1831.390	0	50.5	4	15.3	4	-1E+10	1	-1E+10	1	-1E+10	1	-1E+10	1	-1E+10	1	-1E+10	1
4901784	99	C	03/21/2018	10:41	-132.886	43.416	0	1860.00	0	2.0720	0	34.6720	4	27.713	0	1836.995	0	50.8	4	15.4	4	-1E+10	1	-1E+10	1	-1E+10	1	-1E+10	1	-1E+10	1	-1E+10	1
4901784	99	C	03/21/2018	10:41	-132.886	43.416	0	1865.70	0	2.0650	0	34.6730	4	27.715	0	1842.600	0	51.3	4	15.5	4	-1E+10	1	-1E+10	1	-1E+10	1	-1E+10	1	-1E+10	1	-1E+10	1
4901784	99	C	03/21/2018	10:41	-132.886	43.416	0	1870.70	0	2.0610	0	34.6740	4	27.716	0	1847.516	0	51.6	4	15.6	4	-1E+10	1	-1E+10	1	-1E+10	1	-1E+10	1	-1E+10	1	-1E+10	1
4901784	99	C	03/21/2018	10:41	-132.886	43.416	0	1875.70	0	2.0570	0	34.6740	4	27.716	0	1852.432	0	51.9	4	15.7	4	-1E+10	1	-1E+10	1	-1E+10	1	-1E+10	1	-1E+10	1	-1E+10	1
4901784	99	C	03/21/2018	10:41	-132.886	43.416	0	1879.90	0	2.0520	0	34.6750	4	27.717	0	1856.562	0	52.3	4	15.8	4	-1E+10	1	-1E+10	1	-1E+10	1	-1E+10	1	-1E+10	1	-1E+10	1
4901784	99	C	03/21/2018	10:41	-132.886	43.416	0	1884.20	0	2.0430	0	34.6760	4	27.719	0	1860.790	0	52.7	4	15.9	4	-1E+10	1	-1E+10	1	-1E+10	1	-1E+10	1	-1E+10	1	-1E+10	1
4901784	99	C	03/21/2018	10:41	-132.886	43.416	0	1889.40	0	2.0380	0	34.6770	4	27.720	0	1865.902	0	53.2	4	16.1	4	-1E+10	1	-1E+10	1	-1E+10	1	-1E+10	1	-1E+10	1	-1E+10	1
4901784	99	C	03/21/2018	10:41	-132.886	43.416	0	1894.70	0	2.0330	0	34.6780	4	27.721	0	1871.113	0	53.5	4	16.2	4	-1E+10	1	-1E+10	1	-1E+10	1	-1E+10	1	-1E+10	1	-1E+10	1
4901784	99	C	03/21/2018	10:41	-132.886	43.416	0	1900.00	0	2.0260	0	34.6790	4	27.723	0	1876.324	0	53.9	4	16.3	4	-1E+10	1	-1E+10	1	-1E+10	1	-1E+10	1	-1E+10	1	-1E+10	1
4901784	99	C	03/21/2018	10:41	-132.886	43.416	0	1905.30	0	2.0210	0	34.6790	4	27.723	0	1881.534	0	54.4	4	16.4	4	-1E+10	1	-1E+10	1	-1E+10	1	-1E+10	1	-1E+10	1	-1E+10	1
4901784	99	C	03/21/2018	10:41	-132.886	43.416	0	1910.50	0	2.0120	0	34.6800	4	27.725	0	1886.647	0	55.0	4	16.6	4	-1E+10	1	-1E+10	1	-1E+10	1	-1E+10	1	-1E+10	1	-1E+10	1
4901784	99	C	03/21/2018	10:41	-132.886	43.416	0	1914.90	0	2.0030	0	34.6820	4	27.727	0	1890.972	0	55.4	4	16.7	4	-1E+10	1	-1E+10	1	-1E+10	1	-1E+10	1	-1E+10	1	-1E+10	1
4901784	99	C	03/21/2018	10:41	-132.886	43.416	0	1919.30	0	1.9970	0	34.6820	4	27.727	0	1895.298	0	55.7	4	16.8	4	-1E+10	1	-1E+10	1	-1E+10	1	-1E+10	1	-1E+10	1	-1E+10	1
4901784	99	C	03/21/2018	10:41	-132.886	43.416	0	1924.70	0	1.9910	0	34.6830	4	27.729	0	1900.606	0	56.0	4	16.9	4	-1E+10	1	-1E+10	1	-1E+10	1	-1E+10	1	-1E+10	1	-1E+10	1
4901784	99	C	03/21/2018	10:41	-132.886	43.416	0	1930.00	0	1.9890	0	34.6840	4	27.730	0	1905.816	0	56.4	4	17.0	4	-1E+10	1	-1E+10	1	-1E+10	1	-1E+10	1	-1E+10	1	-1E+10	1
4901784	99	C	03/21/2018	10:41	-132.886	43.416	0	1935.30	0	1.9840	0	34.6850	4	27.731	0	1911.026	0	56.8	4	17.1	4	-1E+10	1	-1E+10	1	-1E+10	1	-1E+10	1	-1E+10	1	-1E+10	1
4901784	99	C	03/21/2018	10:41	-132.886	43.416	0	1939.90	0	1.9810	0	34.6850	4	27.731	0	1915.547	0	57.0	4	17.2	4	-1E+10	1	-1E+10	1	-1E+10	1	-1E+10	1	-1E+10	1	-1E+10	1
4901784	99	C	03/21/2018	10:41	-132.886	43.416	0	1945.10	0	1.9780	0	34.6860	4	27.732	0	1920.658	0	57.4	4	17.3	4	-1E+10	1	-1E+10	1	-1E+10	1	-1E+10	1	-1E+10	1	-1E+10	1
4901784	99	C	03/21/2018	10:41	-132.886	43.416	0	1950.20	0	1.9730	0	34.6870	4	27.733	0	1925.671	0	57.9	4	17.5	4	-1E+10	1	-1E+10	1	-1E+10	1	-1E+10	1	-1E+10	1	-1E+10	1
4901784	99	C	03/21/2018	10:41	-132.886	43.416	0	1955.10	0	1.9630	0	34.6880	4	27.735	0	1930.488	0	58.4	4	17.6	4	-1E+10	1	-1E+10	1	-1E+10	1	-1E+10	1	-1E+10	1	-1E+10	1
4901784	99	C	03/21/2018	10:41	-132.886	43.416	0	1960.00	0	1.9580	0	34.6890	4	27.736	0	1935.304	0	58.6	4	17.7	4	-1E+10	1	-1E+10	1	-1E+10	1	-1E+10	1	-1E+10	1	-1E+10	1
4901784	99	C	03/21/2018	10:41	-132.886	43.416	0	1965.00	0	1.9580	0	34.6890	4	27.736	0	1940.218	0	58.6	4	17.7	4	-1E+10	1	-1E+10	1	-1E+10	1	-1E+10	1	-1E+10	1	-1E+10	1
4901784	99	C	03/21/2018	10:41	-132.886	43.416	0	1970.00	0	1.9570	0	34.6890	4	27.736	0	1945.132	0	58.7	4	17.7	4	-1E+10	1	-1E+10	1	-1E+10	1	-1E+10	1	-1E+10	1	-1E+10	1
4901784	99	C	03/21/2018	10:41	-132.886	43.416	0	1975.00	0	1.9570	0	34.6890	4	27.736	0	1950.046	0	58.8	4	17.7	4	-1E+10	1	-1E+10	1	-1E+10	1	-1E+10	1	-1E+10	1	-1E+10	1
4901784	99	C	03/21/2018	10:41	-132.886	43.416	0	1980.00	0	1.9550	0	34.6900	4	27.737	0	1954.960	0	59.0	4	17.8	4	-1E+10	1	-1E+10	1	-1E+10	1	-1E+10	1	-1E+10	1	-1E+10	1
4901784	99	C	03/21/2018	10:41	-132.886	43.416	0	1985.70	0	1.9530	0	34.6900	4	27.738	0	1960.562	0	59.2	4	17.8	4	-1E+10	1	-1E+10	1	-1E+10	1	-1E+10	1	-1E+10	1	-1E+10	1
4901784	99	C	03/21/2018	10:41	-132.886	43.416	0	1990.50	0	1.9510	0	34.6900	4	27.738	0	1965.279	0	59.3	4	17.9	4	-1E+10	1	-1E+10	1	-1E+10	1	-1E+10	1	-1E+10	1	-1E+10	1
4901784	99	C	03/21/2018	10:41	-132.886	43.416	0	1995.40	0	1.9480	0	34.6910	4	27.739	0	1970.094	0	59.5	4	17.9	4	-1E+10	1	-1E+10	1	-1E+10	1	-1E+10	1	-1E+10	1	-1E+10	1
4901784	99	C	03/21/2018	10:41	-132.886	43.416	0	1999.90	0	1.9440	0	34.6910	4	27.739	0	1974.516	0	59.6	4	18.0	4	-1E+10	1	-1E+10	1	-1E+10	1	-1E+10	1	-1E+10	1	-1E+10	1
4901784	99	C	03/21/2018	10:41	-132.886	43.416	0	2005.00	0	1.9410	0	34.6920	4	27.740	0	1979.528	0	59.7	4	18.0	4	-1E+10	1	-1E+10	1	-1E+10	1	-1E+10	1	-1E+10	1	-1E+10	1
4901784	99	C	03/21/2018	10:41	-132.886	43.416	0	2008.20	0	1.9400	0	34.6920	4	27.740	0	1982.672	0	58.0	8	17.5	8	-1E+10	1	-1E+10	1	-1E+10	1	-1E+10	1	-1E+10	1	-1E+10	1
4901784	99	C	03/21/2018	10:41	-132.886	43.416	0																										
4901784	100	C	03/31/2018	10:43	-132.721	43.384	0	2.50	0	10.3670	0	32.8340	4	25.200	0	2.480	0	272.0	4	98.3	4	-1E+10	1	-1E+10	1	-1E+10	1	-1E+10	1	-1E+10	1	-1E+10	1
4901784	100	C	03/31/2018	10:43	-132.721	43.384	0	4.00	0	10.1950	0	32.8270	4	25.223	0	3.968	0	272.8	4	98.2	4	-1E+10	1	-1E+10	1	-1E+10	1	-1E+10	1	-1E+10	1	-1E+10	1
4901784	100	C	03/31/2018	10:43	-132.721	43.384	0	5.60	0	10.0330	0	32.8320	4	25.254	0	5.555	0	273.5	4	98.1	4	-1E+10	1	-1E+10	1	-1E+10	1	-1E+10	1	-1E+10	1	-1E+10	1
4901784	100	C	03/31/2018	10:43	-132.721	43.384	0	7.30	0	9.9410	0	32.8340	4	25.271	0	7.242	0	273.7	4	98.0	4	-1E+10	1	-1E+10	1	-1E+10	1	-1E+10	1	-1E+10	1	-1E+10	1
4901784	100	C	03/31/2018	10:43	-132.721	43.384	0	9.00	0	9.9140	0	32.8250	4	25.269	0	8.928	0	274.2	4	98.1	4	-1E+10	1	-1E+10	1	-1E+10	1	-1E+10	1	-1E+10	1	-1E+10	1
4901784	100	C	03/31/2018	10:43	-132.721	43.384	0	10.70	0	9.8640	0	32.8270	4	25.279	0	10.614	0	273.8	4	97.9	4	-1E+10	1	-1E+10	1	-1E+10	1	-1E+10	1	-1E+10	1	-1E+10	1
4901784	100	C	03/31/2018	10:43	-132.721	43.384	0	12.40	0	9.8090	0	32.8270	4	25.288	0	12.301	0	273.9	4	97.8	4	-1E+10	1	-1E+10	1	-1E+10	1	-1E+10	1	-1E+10	1	-1E+10	1
4901784	100	C	03/31/2018	10:43	-132.721	43.384	0	14.10	0	9.7480	0	32.8290	4	25.299	0	13.987	0	274.0	4	97.7	4	-1E+10	1	-1E+10	1	-1E+10	1	-1E+10	1	-1E+10	1	-1E+10	1
4901784	100	C	03/31/2018	10:43	-132.721	43.384	0	15.80	0	9.7330	0	32.8270	4	25.300	0	15.673	0	274.0	4	97.7	4	-1E+10	1	-1E+10	1	-1E+10	1	-1E+10	1	-1E+10	1	-1E+10	1
4901784	100	C	03/31/2018	10:43	-132.721	43.384	0	17.50	0	9.7100	0	32.8270	4	25.304	0	17.360	0	273.6	4	97.5	4	-1E+10	1	-1E+10	1	-1E+10	1	-1E+10	1	-1E+10	1	-1E+10	1
4901784	100	C	03/31/2018	10:43	-132.721	43.384	0	19.20	0	9.7070	0	32.8280	4	25.305	0	19.046	0	273.3	4	97.4	4	-1E+10	1	-1E+10	1	-1E+10	1	-1E+10	1	-1E+10	1	-1E+10	1
4901784	100	C	03/31/2018	10:43	-132.721	43.384	0	21.00	0	9.7030	0	32.8280	4	25.306	0	20.832	0	272.8	4	97.2	4	-1E+10	1	-1E+10	1	-1E+10	1	-1E+10	1	-1E+10	1	-1E+10	1
4901784	100	C	03/31/2018	10:43	-132.721	43.384	0	22.70	0	9.6900	0	32.8290	4	25.309	0	22.518	0	272.5	4	97.0	4	-1E+10	1	-1E+10	1	-1E+10	1	-1E+10	1	-1E+10	1	-1E+10	1
4901784	100	C	03/31/2018	10:43	-132.721	43.384	0	24.50	0	9.6850	0	32.8300	4	25.311	0	24.303	0	272.1	4	96.9	4	-1E+10	1	-1E+10	1	-1E+10	1	-1E+10	1	-1E+10	1	-1E+10	1
4901784	100	C	03/31/2018	10:43	-132.721	43.384	0	26.20	0	9.6770	0	32.8290	4	25.311	0	25.990	0	271.9	4	96.8	4	-1E+10	1	-1E+10	1	-1E+10	1	-1E+10	1	-1E+10	1	-1E+10	1
4901784	100	C	03/31/2018	10:43	-132.721	43.384	0	27.90	0	9.6320	0	32.8250	4	25.315	0	27.676	0	271.9	4	96.7	4	-1E+10	1	-1E+10	1	-1E+10	1	-1E+10	1	-1E+10	1	-1E+10	1
4901784	100	C	03/31/2018	10:43	-132.721	43.384	0	29.70	0	9.6230	0	32.8240	4	25.316	0	29.461	0	271.8	4	96.7	4	-1E+10	1	-1E+10	1	-1E+10	1	-1E+10	1	-1E+10	1	-1E+10	1
4901784	100	C	03/31/2018	10:43	-132.721	43.384	0	31.50	0	9.5970	0	32.8230	4	25.320	0	31.247	0	271.4	4	96.5	4	-1E+10	1	-1E+10	1	-1E+10	1	-1E+10	1	-1E+10	1	-1E+10	1
4901784	100	C	03/31/2018	10:43	-132.721	43.384	0	33.20	0	9.5790	0	32.8210	4	25.321	0	32.933	0	271.4	4	96.4	4	-1E+10	1	-1E+10	1	-1E+10	1	-1E+10	1	-1E+10	1	-1E+10	1
4901784	100	C	03/31/2018	10:43	-132.721	43.384	0	34.90	0	9.5580	0	32.8190	4	25.323	0	34.619	0	271.3	4	96.3	4	-1E+10	1	-1E+10	1	-1E+10	1	-1E+10	1	-1E+10	1	-1E+10	1
4901784	100	C	03/31/2018	10:43	-132.721	43.384	0	36.60	0	9.5210	0	32.8150	4	25.326	0	36.305	0	271.0	4	96.1	4	-1E+10	1	-1E+10	1	-1E+10	1	-1E+10	1	-1E+10	1	-1E+10	1
4901784	100	C	03/31/2018	10:43	-132.721	43.384	0	38.40	0	9.4940	0	32.8120	4	25.328	0	38.090	0	271.0	4	96.1	4	-1E+10	1	-1E+10	1	-1E+10	1	-1E+10	1	-1E+10	1	-1E+10	1
4901784	100	C	03/31/2018	10:43	-132.721	43.384	0	40.10	0	9.4340	0	32.8080	4	25.334	0	39.777	0	271.1	4	96.0	4	-1E+10	1	-1E+10	1	-1E+10	1	-1E+10	1	-1E+10	1	-1E+10	1
4901784	100	C	03/31/2018	10:43	-132.721	43.384	0	41.80	0	9.3960	0	32.8070	4	25.340	0	41.463	0	271.2	4	95.9	4	-1E+10	1	-1E+10	1	-1E+10	1	-1E+10	1	-1E+10	1	-1E+10	1
4901784	100	C	03/31/2018	10:43	-132.721	43.384	0	43.60	0	9.3730	0	32.8030	4	25.340	0	43.248	0	271.3	4	95.9	4	-1E+10	1	-1E+10	1	-1E+10	1	-1E+10	1	-1E+10	1	-1E+10	1
4901784	100	C	03/31/2018	10:43	-132.721	43.384	0	45.40	0	9.3640	0	32.8020	4	25.341	0	45.033	0	271.3	4	95.9	4	-1E+10	1	-1E+10	1	-1E+10	1	-1E+10	1	-1E+10	1	-1E+10	1
4901784	100	C	03/31/2018	10:43	-132.721	43.384	0	47.10	0	9.3510	0	32.8010	4	25.342	0	46.719	0	271.2	4	95.8	4	-1E+10	1	-1E+10	1	-1E+10	1	-1E+10	1	-1E+10	1	-1E+10	1
4901784	100	C	03/31/2018	10:43	-132.721	43.384	0	48.90	0	9.3170	0	32.7990	4	25.346	0	48.505	0	271.1	4	95.7	4	-1E+10	1	-1E+10	1	-1E+10	1	-1E+10	1	-1E+10	1	-1E+10	1
4901784	100	C	03/31/2018	10:43	-132.721	43.384	0	50.60	0	9.3060	0	32.7990	4	25.348	0	50.191	0	271.1	4	95.7	4	-1E+10	1	-1E+10	1	-1E+10	1	-1E+10	1	-1E+10	1	-1E+10	1
4901784	100	C	03/31/2018	10:43	-132.721	43.384	0	52.30	0	9.2950	0	32.7980	4	25.349	0	51.877	0	271.1	4	95.7	4	-1E+10	1	-1E+10	1	-1E+10	1	-1E+10	1	-1E+10	1	-1E+10	1
4901784	100	C	03/31/2018	10:43	-132.721	43.384	0	54.10	0	9.2870	0	32.7970	4	25.349	0	53.662	0	271.0	4	95.6	4	-1E+10	1	-1E+10	1	-1E+10	1	-1E+10	1	-1E+10	1	-1E+10	1
4901784	100	C	03/31/2018	10:43	-132.721	43.384	0	55.90	0	9.2750	0	32.7960	4	25.351	0	55.447	0	270.8	4	95.5	4	-1E+10	1	-1E+10	1	-1E+10	1	-1E+10	1	-1E+10	1	-1E+10	1
4901784	100	C	03/31/2018	10:43	-132.721	43.384	0	57.70	0	9.2720	0	32.7950	4	25.350	0	57.232	0	270.7	4	95.5	4	-1E+10	1	-1E+10	1	-1E+10	1	-1E+10	1	-1E+10	1	-1E+10	1
4901784	100	C	03/31/2018	10:43	-132.721	43.384	0	59.40	0	9.2680	0	32.7970	4	25.353	0	58.918	0	270.6	4	95.5	4	-1E+10	1	-1E+10	1	-1E+10	1	-1E+10	1	-1E+10	1	-1E+10	1
4901784	100	C	03/31/2018	10:43	-132.721	43.384	0	61.20	0	9.2660	0	32.7940	4	25.351	0	60.703	0	270.6	4	95.5	4	-1E+10	1	-1E+10	1	-1E+10	1	-1E+10	1	-1E+10	1	-1E+10	1
4901784	100	C	03/31/2018	10:43	-132.721	43.384	0	63.00	0	9.2590	0	32.7930	4	25.351	0	62.488	0	270.6	4	95.4	4	-1E+10	1	-1E+10	1	-1E+10	1	-1E+10	1	-1E+10	1	-1E+10	1
4901784	100	C	03/31/2018	10:43	-132.721	43.384	0	64.70	0	9.2490	0	32.7920	4	25.352	0	64.174	0	270.6	4	95.4	4	-1E+10	1	-1E+10	1	-1E+10	1	-1E+10	1	-1E+10	1	-1E+10	1
4901784	100	C	03/31/2018	10:43	-132.721	43.384	0	66.50	0	9.2380	0	32.7920	4	25.354	0	65.959	0	270.5	4	95.3	4	-1E+10	1	-1E+10	1	-1E+10	1	-1E+10	1	-1E+10	1	-1E+10	1
4901784	100	C	03/31/2018	10:43	-132.721	43.384	0	68.30	0	9.2290	0	32.7900	4	25.353	0	67.744	0	270.3	4	95.3	4	-1E+10	1	-1E+10	1	-1E+10	1	-1E+10	1	-1E+10	1	-1E+10	1
4901784	100	C	03/31/2018	10:43	-132.721	43.384	0	70.10	0	9.2240	0	32.7900	4	25.354	0	69.530	0	270.3	4	95.3	4	-1E+10	1	-1E+10	1	-1E+10	1	-1E+10	1	-1E+10	1	-1E+10	1
4901784	100	C	03/31/2018	10:43	-132.721	43.384	0	71.90	0	9.2170	0	32.7900	4	25.355	0	71.315	0	270.4	4	95.3	4	-1E+10	1	-1E+10	1	-1E+10	1	-1E+10	1	-1E+10	1	-1E+10	1
4901784	100	C	03/31/2018	10:43	-132.721	43.384	0	73.70	0	9.2090	0	32.7890	4	25.356	0	73.100	0	270.1	4	95.2	4	-1E+10	1	-1E+10	1	-1E+10	1	-1E+10	1	-1E+10	1	-1E+10	1
4901784	100	C	03/31/2018	10:43	-132.721	43.384	0	75.50	0	9.2050	0	32.7890	4	25.357	0	74.885	0	270.3	4	95.2	4	-1E+10	1	-1E+10	1	-1E+10	1	-1E+10	1	-1E+10	1	-1E+10	1
4901784	100	C	03/31/2018	10:43	-132.721	43.384	0	77.30	0	9.2030	0	32.7890	4	25.357	0	76.670	0	270.0	4	95.1	4	-1E+10	1	-1E+10	1	-1E+10	1	-1E+10	1	-1E+10	1	-1E+10	1
4901784	100	C	03/31/2018	10:43	-132.721	43.384	0	79.10	0	9.2020	0	32.7900	4	25.358	0	78.455	0	270.3	4	95.2	4	-1E+10	1	-1E+10	1	-1E+10	1	-1E+10	1	-1E+10	1	-1E+10	1
4901784	100	C	03/31/2018	10:43	-132.721	43.384	0	80.90	0	9.2000	0	32.7900	4	25.358	0	80.240	0	270.0	4	95.1	4	-1E+10	1	-1E+10	1	-1E+10	1	-1E+10	1	-1E+10	1	-1E+10	1
4901784	100	C	03/31/2018	10:43	-132.721	43.384	0	82.70	0	9.1950	0	32.7910	4	25.360	0	82.024	0	270.1	4	95.1	4	-1E+10	1	-1E+10	1	-1E+10	1	-1E+10	1	-1E+10	1	-1E+10	1
4901784	100	C	03/31/2018	10:43	-132.721	43.384	0	84.50	0	9.1910	0	32.7900	4	25.360	0	83.809	0	270.1	4	95.1	4	-1E+10	1	-1E+10	1	-1E+10	1	-1E+10	1	-1E+10	1	-1E+10	1
4901784	100	C	03/31/2018	10:43	-132.721	43.384	0	86.30	0	9.1910	0	32.7910	4	25.361	0	85.594	0	270.2	4	95.2	4	-1E+10	1	-1E+10	1	-1E+10	1	-1E+10	1	-1E+10	1	-1E+10	1
4901784	100	C	03/31/2018	10:43	-132.721	43.384	0	88.20	0	9.1900	0	32.7910	4	25.361	0	87.478	0	270.0	4	95.1	4	-1E+10	1	-1E+10	1	-1E+10	1	-1E+10	1	-1E+10	1	-1E+10	1
4901784	100	C	03/31/2018	10:43	-132.721	43.384	0	90.00	0	9.1910	0	32.7910	4	25.361	0	89.263	0	269.8	4	95.0	4	-1E+10	1	-1E+10	1	-1E+10	1	-1E+10	1	-1E+10	1	-1E+10	1
4901784	100	C	03/31/2018	10:43	-132.721	43.384	0	91.80	0	9.1920	0	32.7920	4	25.361	0	91.048	0	269.7	4	95.0	4	-1E+10	1	-1E+10	1	-1E+10	1	-1E+10	1	-1E+10	1	-1E+10	1
4901784	100	C	03/31/2018	10:43	-132.721	43.384	0	93.60	0	9.1900	0	32.7920	4	25.362	0	92.833	0	269.8	4	95.0	4	-1E+10	1	-1E+10	1	-1E+10	1	-1E+10	1	-1E+10	1	-1E+10	1
4901784	100	C	03/31/2018	10:43	-132.721	43.384	0	95.40	0	9.1880	0	32.7910	4	25.361	0	94.618	0	269.5	4	94.9	4	-1E+10	1	-1E+10	1	-1E+10	1	-1E+10	1	-1E+10	1	-1E+10	1
4901784	100	C	03/31/2018	10:43	-132.721	43.384	0	97.20	0	9.1880	0	32.7920	4	25.362	0	96.403	0	269.1	4	94.8	4	-1E+10	1	-1E+10	1	-1E+10	1	-1E+10	1	-1E+10	1	-1E+10	1
4901784	100	C	03/31/2018	10:43	-132.721	43.384	0	99.10	0	9.1890	0	32.7920	4	25.362	0	98.287	0	268.8	4	94.6	4	-1E+10	1	-1E+10	1	-1E+10	1	-1E+10	1	-1E+10	1	-1E+10	1
4901784	100	C	03/31/2018	10:43	-132.721	43.384	0	102.30	0	9.1840	0	32.7920	4	25.363	0	101.460	0	267.3	4	94.1	4	-1E+10	1	-1E+10	1	-1E+10	1	-1E+10	1	-1E+10	1	-1E+10	1
4901784	100	C	03/31/2018	10:43	-132.721	43.384	0	105.10	0	9.1800	0	32.7900	4	25.362	0	104.236	0	265.2	4	93.4	4	-1E+10	1	-1E+10	1	-1E+10	1	-1E+10	1	-1E+10	1	-1E+10	1
4901784	100	C	03/31/2018	10:43	-132.721	43.384	0	107.90	0	9.1610	0	32.7960	4	25.370	0	107.012	0	261.3	4	92.0	4	-1E+10	1	-1E+10	1	-1E+10	1	-1E+10	1	-1E+10	1	-1E+10	1
4901784	100	C	03/31/2018	10:43	-132.721	43.384	0	110.20	0	9.1490	0	32.7980	4	25.373	0	109.293	0	257.0	4	90.4	4	-1E+10	1	-1E+10	1	-1E+10	1	-1E+10	1	-1E+10	1	-1E+10	1
4901784	100	C	03/31/2018	10:43	-132.721	43.384	0	112.40	0	8.8620	0	32.9340	4	25.524	0	111.474	0	253.3	4	88.6	4	-1E+10	1	-1E+10	1	-1E+10	1	-1E+10	1	-1E+10	1	-1E+10	1
4901784	100	C	03/31/2018	10:43	-132.721	43.384	0	115.40	0	8.7070	0	33.0310	4	25.624	0	114.448	0	250.4	4	87.4	4	-1E+10	1	-1E+10	1	-1E+10	1	-1E+10	1	-1E+10	1	-1E+10	1
4901784	100	C	03/31/2018	10:43	-132.721	43.384	0	117.70	0	8.3280	0	33.0680	4	25.710	0	116.729	0	251.1	4	86.9	4	-1E+10	1	-1E+10	1	-1E+10	1	-1E+10	1	-1E+10	1	-1E+10	1
4901784	100	C	03/31/2018	10:43	-132.721	43.384	0	120.20	0	8.1340	0	33.0870	4	25.754	0	119.207	0	251.1	4	86.6	4	-1E+10	1	-1E+10	1	-1E+10	1	-1E+10	1	-1E+10	1	-1E+10	1
4901784	100	C	03/31/2018	10:43	-132.721	43.384	0	122.60	0	8.0530	0	33.1170	4	25.789	0	121.587	0	250.0	4	86.1	4	-1E+10	1	-1E+10	1	-1E+10	1	-1E+10	1	-1E+10	1	-1E+10	1
4901784	100	C	03/31/2018	10:43	-132.721	43.384	0	125.10	0	8.0620	0	33.1490	4	25.813	0	124.065	0	248.6	4	85.6	4	-1E+10	1	-1E+10	1	-1E+10	1	-1E+10	1	-1E+10	1	-1E+10	1
4901784	100	C	03/31/2018	10:43	-132.721	43.384	0	127.60	0	8.0770	0	33.1750	4	25.832	0	126.544	0	246.6	4	85.0	4	-1E+10	1	-1E+10	1	-1E+10	1	-1E+10	1	-1E+10	1	-1E+10	1
4901784	100	C	03/31/2018	10:43	-132.721	43.384	0	130.20	0	8.0540	0	33.2030	4	25.857	0	129.122	0	244.8	4	84.3	4	-1E+10	1	-1E+10	1	-1E+10	1	-1E+10	1	-1E+10	1	-1E+10	1
4901784	100	C	03/31/2018	10:43	-132.721	43.384	0	132.70	0	8.0690	0	33.2270	4	25.874	0	131.600	0	242.9	4	83.7	4	-1E+10	1	-1E+10	1	-1E+10	1	-1E+10	1	-1E+10	1	-1E+10	1
4901784	100	C	03/31/2018	10:43	-132.721	43.384	0	135.30	0	8.0810	0	33.2550	4	25.894	0	134.178	0	239.8	4	82.7	4	-1E+10	1	-1E+10	1	-1E+10	1	-1E+10	1	-1E+10	1	-1E+10	1
4901784	100	C	03/31/2018	10:43	-132.721	43.384	0	137.80	0	8.0930	0	33.2900	4	25.920	0	136.656	0	236.4	4	81.5	4	-1E+10	1	-1E+10	1	-1E+10	1	-1E+10	1	-1E+10	1	-1E+10	1
4901784	100	C	03/31/2018	10:43	-132.721	43.384	0	140.10	0	8.1090	0	33.3300	4	25.949	0	138.936	0	233.4	4	80.5	4	-1E+10	1	-1E+10	1	-1E+10	1	-1E+10	1	-1E+10	1	-1E+10	1
4901784	100	C	03/31/2018	10:43	-132.721	43.384	0	142.50	0	8.1350	0	33.3850	4	25.988	0	141.316	0	228.2	4	78.8	4	-1E+10	1	-1E+10	1	-1E+10	1	-1E+10	1	-1E+10	1	-1E+10	1
4901784	100	C	03/31/2018	10:43	-132.721	43.384	0	145.40	0	8.2040	0	33.4960	4	26.065	0	144.190	0	223.2	4	77.3	4	-1E+10	1	-1E+10	1	-1E+10	1	-1E+10	1	-1E+10	1	-1E+10	1
4901784	100	C	03/31/2018	10:43	-132.721	43.384	0	147.60	0	8.2120	0	33.5070	4	26.072	0	146.371	0	220.4	4	76.3	4	-1E+10	1	-1E+10	1	-1E+10	1	-1E+10	1	-1E+10	1	-1E+10	1
4901784	100	C	03/31/2018	10:43	-132.721	43.384	0	149.80	0	8.2520	0	33.5600	4	26.108	0	148.552	0	216.2	4	75.0	4	-1E+10	1	-1E+10	1	-1E+10	1	-1E+10	1	-1E+10	1	-1E+10	1
4901784	100	C	03/31/2018	10:43	-132.721	43.384	0	152.90	0	8.3030	0	33.6270	4	26.153	0	151.625	0	210.5	4	73.1	4	-1E+10	1	-1E+10	1	-1E+10	1	-1E+10	1	-1E+10	1	-1E+10	1
4901784	100	C	03/31/2018	10:43	-132.721	43.384	0	155.10	0	8.3500	0	33.6810	4	26.188	0	153.806	0	205.6	4	71.5	4	-1E+10	1	-1E+10	1	-1E+10	1	-1E+10	1	-1E+10	1	-1E+10	1
4901784	100	C	03/31/2018	10:43	-132.721	43.384	0	157.50	0	8.4110	0	33.7470	4	26.231	0	156.185	0	200.9	4	70.0	4	-1E+10	1	-1E+10	1	-1E+10	1	-1E+10	1	-1E+10	1	-1E+10	1
4901784	100	C	03/31/2018	10:43	-132.721	43.384	0	159.90	0	8.4570	0	33.8060	4	26.270	0	158.564	0	197.3	4	68.9	4	-1E+10	1	-1E+10	1	-1E+10	1	-1E+10	1	-1E+10	1	-1E+10	1
4901784	100	C	03/31/2018	10:43	-132.721	43.384	0	162.30	0	8.4810	0	33.8450	4	26.297	0	160.943	0	195.8	4	68.4	4	-1E+10	1	-1E+10	1	-1E+10	1	-1E+10	1	-1E+10	1	-1E+10	1
4901784	100	C	03/31/2018	10:43	-132.721	43.384	0	164.70	0	8.4950	0	33.8610	4	26.308	0	163.322	0	194.9	4	68.1	4	-1E+10	1	-1E+10	1	-1E+10	1	-1E+10	1	-1E+10	1	-1E+10	1
4901784	100	C	03/31/2018	10:43	-132.721	43.384	0	167.30	0	8.5230	0	33.8940	4	26.329	0	165.899	0	192.5	4	67.3	4	-1E+10	1	-1E+10	1	-1E+10	1	-1E+10	1	-1E+10	1	-1E+10	1
4901784	100	C	03/31/2018	10:43	-132.721	43.384	0	169.90	0	8.5380	0	33.9200	4	26.348	0	168.477	0	190.2	4	66.6	4	-1E+10	1	-1E+10	1	-1E+10	1	-1E+10	1	-1E+10	1	-1E+10	1
4901784	100	C	03/31/2018	10:43	-132.721	43.384	0	172.60	0	8.5640	0	33.9690	4	26.382	0	171.153	0	187.7	4	65.7	4	-1E+10	1	-1E+10	1	-1E+10	1	-1E+10	1	-1E+10	1	-1E+10	1
4901784	100	C	03/31/2018	10:43	-132.721	43.384	0	175.20	0	8.5620	0	34.0070	4	26.412	0	173.730	0	185.9	4	65.1	4	-1E+10	1	-1E+10	1	-1E+10	1	-1E+10	1	-1E+10	1	-1E+10	1
4901784	100	C	03/31/2018	10:43	-132.721	43.384	0	177.80	0	8.5570	0	34.0130	4	26.418	0	176.307	0	184.3	4	64.6	4	-1E+10	1	-1E+10	1	-1E+10	1	-1E+10	1	-1E+10	1	-1E+10	1
4901784	100	C	03/31/2018	10:43	-132.721	43.384	0	180.50	0	8.5090	0	34.0350	4	26.442	0	178.983	0	182.4	4	63.8	4	-1E+10	1	-1E+10	1	-1E+10	1	-1E+10	1	-1E+10	1	-1E+10	1
4901784	100	C	03/31/2018	10:43	-132.721	43.384	0	182.20	0	8.4760	0	34.0440	4	26.454	0	180.668	0	181.6	4	63.5	4	-1E+10	1	-1E+10	1	-1E+10	1	-1E+10	1	-1E+10	1	-1E+10	1
4901784	100	C	03/31/2018	10:43	-132.721	43.384	0	184.90	0	8.4620	0	34.0510	4	26.462	0	183.344	0	180.4	4	63.1	4	-1E+10	1	-1E+10	1	-1E+10	1	-1E+10	1	-1E+10	1	-1E+10	1
4901784	100	C	03/31/2018	10:43	-132.721	43.384	0	187.60	0	8.3770	0	34.0560	4	26.479	0	186.020	0	179.3	4	62.6	4	-1E+10	1	-1E+10	1	-1E+10	1	-1E+10	1	-1E+10	1	-1E+10	1
4901784	100	C	03/31/2018	10:43	-132.721	43.384	0	189.50	0	8.3730	0	34.0550	4	26.479	0	187.904	0	178.6	4	62.3	4	-1E+10	1	-1E+10	1	-1E+10	1	-1E+10	1	-1E+10	1	-1E+10	1
4901784	100	C	03/31/2018	10:43	-132.721	43.384	0	192.30	0	8.3310	0	34.0530	4	26.484	0	190.679	0	177.5	4	61.9	4	-1E+10	1	-1E+10	1	-1E+10	1	-1E+10	1	-1E+10	1	-1E+10	1
4901784	100	C	03/31/2018	10:43	-132.721	43.384	0	195.10	0	8.2730	0	34.0540	4	26.493	0	193.454	0	176.9	4	61.6	4	-1E+10	1	-1E+10	1	-1E+10	1	-1E+10	1	-1E+10	1	-1E+10	1
4901784	100	C	03/31/2018	10:43	-132.721	43.384	0	197.00	0	8.2680	0	34.0670	4	26.504	0	195.337	0	176.2	4	61.4	4	-1E+10	1	-1E+10	1	-1E+10	1	-1E+10	1	-1E+10	1	-1E+10	1
4901784	100	C	03/31/2018	10:43	-132.721	43.384	0	199.90	0	8.2330	0	34.0680	4	26.510	0	198.211	0	175.2	4	61.0	4	-1E+10	1	-1E+10	1	-1E+10	1	-1E+10	1	-1E+10	1	-1E+10	1
4901784	100	C	03/31/2018	10:43	-132.721	43.384	0	202.30	0	8.1840	0	34.0730	4	26.522	0	200.589	0	173.7	4	60.4	4	-1E+10	1	-1E+10	1	-1E+10	1	-1E+10	1	-1E+10	1	-1E+10	1
4901784	100	C	03/31/2018	10:43	-132.721	43.384	0	204.70	0	8.0930	0	34.0680	4	26.531	0	202.968	0	172.6	4	59.9	4	-1E+10	1	-1E+10	1	-1E+10	1	-1E+10	1	-1E+10	1	-1E+10	1
4901784	100	C	03/31/2018	10:43	-132.721	43.384	0	207.00	0	8.0910	0	34.0700	4	26.533	0	205.247	0	171.3	4	59.4	4	-1E+10	1	-1E+10	1	-1E+10	1	-1E+10	1	-1E+10	1	-1E+10	1
4901784	100	C	03/31/2018	10:43	-132.721	43.384	0	210.10	0	8.0040	0	34.0680	4	26.545	0	208.320	0	168.9	4	58.5	4	-1E+10	1	-1E+10	1	-1E+10	1	-1E+10	1	-1E+10	1	-1E+10	1
4901784	100	C	03/31/2018	10:43	-132.721	43.384	0	212.50	0	7.9690	0	34.0650	4	26.548	0	210.698	0	167.1	4	57.8	4	-1E+10	1	-1E+10	1	-1E+10	1	-1E+10	1	-1E+10	1	-1E+10	1
4901784	100	C	03/31/2018	10:43	-132.721	43.384	0	214.90	0	7.8740	0	34.0550	4	26.554	0	213.076	0	165.2	4	57.0	4	-1E+10	1	-1E+10	1	-1E+10	1	-1E+10	1	-1E+10	1	-1E+10	1
4901784	100	C	03/31/2018	10:43	-132.721	43.384	0	217.40	0	7.8200	0	34.0520	4	26.559	0	215.554	0	163.7	4	56.4	4	-1E+10	1	-1E+10	1	-1E+10	1	-1E+10	1	-1E+10	1	-1E+10	1
4901784	100	C	03/31/2018	10:43	-132.721	43.384	0	219.80	0	7.7260	0	34.0500	4	26.571	0	217.932	0	163.1	4	56.1	4	-1E+10	1	-1E+10	1	-1E+10	1	-1E+10	1	-1E+10	1	-1E+10	1
4901784	100	C	03/31/2018	10:43	-132.721	43.384	0	222.20	0	7.7390	0	34.0570	4	26.575	0	220.311	0	162.8	4	56.0	4	-1E+10	1	-1E+10	1	-1E+10	1	-1E+10	1	-1E+10	1	-1E+10	1
4901784	100	C	03/31/2018	10:43	-132.721	43.384	0	224.60	0	7.7180	0	34.0580	4	26.579	0	222.689	0	161.6	4	55.6	4	-1E+10	1	-1E+10	1	-1E+10	1	-1E+10	1	-1E+10	1	-1E+10	1
4901784	100	C	03/31/2018	10:43	-132.721	43.384	0	227.80	0	7.6940	0	34.0540	4	26.579	0	225.860	0	159.3	4	54.8	4	-1E+10	1	-1E+10	1	-1E+10	1	-1E+10	1	-1E+10	1	-1E+10	1
4901784	100	C	03/31/2018	10:43	-132.721	43.384	0	230.20	0	7.6450	0	34.0490	4	26.582	0	228.238	0	157.2	4	54.0	4	-1E+10	1	-1E+10	1	-1E+10	1	-1E+10	1	-1E+10	1	-1E+10	1
4901784	100	C	03/31/2018	10:43	-132.721	43.384	0	232.70	0	7.5580	0	34.0490	4	26.595	0	230.715	0	156.0	4	53.5	4	-1E+10	1	-1E+10	1	-1E+10	1	-1E+10	1	-1E+10	1	-1E+10	1
4901784	100	C	03/31/2018	10:43	-132.721	43.384	0	235.20	0	7.5410	0	34.0480	4	26.597	0	233.193	0	154.6	4	53.0	4	-1E+10	1	-1E+10	1	-1E+10	1	-1E+10	1	-1E+10	1	-1E+10	1
4901784	100	C	03/31/2018	10:43	-132.721	43.384	0	237.60	0	7.5120	0	34.0480	4	26.601	0	235.571	0	152.6	4	52.2	4	-1E+10	1	-1E+10	1	-1E+10	1	-1E+10	1	-1E+10	1	-1E+10	1
4901784	100	C	03/31/2018	10:43	-132.721	43.384	0	240.10	0	7.4730	0	34.0450	4	26.604	0	238.048	0	150.3	4	51.4	4	-1E+10	1	-1E+10	1	-1E+10	1	-1E+10	1	-1E+10	1	-1E+10	1
4901784	100	C	03/31/2018	10:43	-132.721	43.384	0	242.60	0	7.4070	0	34.0410	4	26.610	0	240.525	0	147.7	4	50.4	4	-1E+10	1	-1E+10	1	-1E+10	1	-1E+10	1	-1E+10	1	-1E+10	1
4901784	100	C	03/31/2018	10:43	-132.721	43.384	0	245.20	0	7.3220	0	34.0380	4	26.620	0	243.102	0	145.3	4	49.5	4	-1E+10	1	-1E+10	1	-1E+10	1	-1E+10	1	-1E+10	1	-1E+10	1
4901784	100	C	03/31/2018	10:43	-132.721	43.384	0	247.70	0	7.2320	0	34.0370	4	26.632	0	245.579	0	143.4	4	48.8	4	-1E+10	1	-1E+10	1	-1E+10	1	-1E+10	1	-1E+10	1	-1E+10	1
4901784	100	C	03/31/2018	10:43	-132.721	43.384	0	250.20	0	7.1820	0	34.0340	4	26.636	0	248.056	0	142.0	4	48.2	4	-1E+10	1	-1E+10	1	-1E+10	1	-1E+10	1	-1E+10	1	-1E+10	1
4901784	100	C	03/31/2018	10:43	-132.721	43.384	0	252.80	0	7.1700	0	34.0320	4	26.636	0	250.632	0	140.4	4	47.7	4	-1E+10	1	-1E+10	1	-1E+10	1	-1E+10	1	-1E+10	1	-1E+10	1
4901784	100	C	03/31/2018	10:43	-132.721	43.384	0	255.40	0	7.1410	0	34.0300	4	26.639	0	253.208	0	138.5	4	47.0	4	-1E+10	1	-1E+10	1	-1E+10	1	-1E+10	1	-1E+10	1	-1E+10	1
4901784	100	C	03/31/2018	10:43	-132.721	43.384	0	257.10	0	7.0910	0	34.0270	4	26.643	0	254.892	0	137.2	4	46.5	4	-1E+10	1	-1E+10	1	-1E+10	1	-1E+10	1	-1E+10	1	-1E+10	1
4901784	100	C	03/31/2018	10:43	-132.721	43.384	0	259.70	0	7.0230	0	34.0250	4	26.651	0	257.468	0	136.3	4	46.1	4	-1E+10	1	-1E+10	1	-1E+10	1	-1E+10	1	-1E+10	1	-1E+10	1
4901784	100	C	03/31/2018	10:43	-132.721	43.384	0	262.20	0	6.9970	0	34.0250	4	26.655	0	259.945	0	136.9	4	46.3	4	-1E+10	1	-1E+10	1	-1E+10	1	-1E+10	1	-1E+10	1	-1E+10	1
4901784	100	C	03/31/2018	10:43	-132.721	43.384	0	264.80	0	6.9520	0	34.0290	4	26.664	0	262.521	0	136.1	4	46.0	4	-1E+10	1	-1E+10	1	-1E+10	1	-1E+10	1	-1E+10	1	-1E+10	1
4901784	100	C	03/31/2018	10:43	-132.721	43.384	0	267.40	0	6.9100	0	34.0260	4	26.667	0	265.097	0	134.5	4	45.4	4	-1E+10	1	-1E+10	1	-1E+10	1	-1E+10	1	-1E+10	1	-1E+10	1
4901784	100	C	03/31/2018	10:43	-132.721	43.384	0	270.00	0	6.8400	0	34.0250	4	26.676	0	267.673	0	132.4	4	44.6	4	-1E+10	1	-1E+10	1	-1E+10	1	-1E+10	1	-1E+10	1	-1E+10	1
4901784	100	C	03/31/2018	10:43	-132.721	43.384	0	272.60	0	6.7700	0	34.0230	4	26.684	0	270.249	0	130.2	4	43.8	4	-1E+10	1	-1E+10	1	-1E+10	1	-1E+10	1	-1E+10	1	-1E+10	1
4901784	100	C	03/31/2018	10:43	-132.721	43.384	0	275.30	0	6.6800	0	34.0210	4	26.694	0	272.924	0	128.1	4	43.0	4	-1E+10	1	-1E+10	1	-1E+10	1	-1E+10	1	-1E+10	1	-1E+10	1
4901784	100	C	03/31/2018	10:43	-132.721	43.384	0	278.00	0	6.6150	0	34.0200	4	26.702	0	275.599	0	126.7	4	42.5	4	-1E+10	1	-1E+10	1	-1E+10	1	-1E+10	1	-1E+10	1	-1E+10	1
4901784	100	C	03/31/2018	10:43	-132.721	43.384	0	279.80	0	6.6010	0	34.0200	4	26.704	0	277.382	0	125.4	4	42.0	4	-1E+10	1	-1E+10	1	-1E+10	1	-1E+10	1	-1E+10	1	-1E+10	1
4901784	100	C	03/31/2018	10:43	-132.721	43.384	0	282.40	0	6.5250	0	34.0210	4	26.715	0	279.958	0	123.6	4	41.4	4	-1E+10	1	-1E+10	1	-1E+10	1	-1E+10	1	-1E+10	1	-1E+10	1
4901784	100	C	03/31/2018	10:43	-132.721	43.384	0	285.10	0	6.5110	0	34.0200	4	26.716	0	282.633	0	121.7	4	40.7	4	-1E+10	1	-1E+10	1	-1E+10	1	-1E+10	1	-1E+10	1	-1E+10	1
4901784	100	C	03/31/2018	10:43	-132.721	43.384	0	287.70	0	6.4820	0	34.0220	4	26.721	0	285.209	0	119.4	4	39.9	4	-1E+10	1	-1E+10	1	-1E+10	1	-1E+10	1	-1E+10	1	-1E+10	1
4901784	100	C	03/31/2018	10:43	-132.721	43.384	0	290.40	0	6.4520	0	34.0210	4	26.725	0	287.883	0	117.3	4	39.2	4	-1E+10	1	-1E+10	1	-1E+10	1	-1E+10	1	-1E+10	1	-1E+10	1
4901784	100	C	03/31/2018	10:43	-132.721	43.384	0	292.20	0	6.4430	0	34.0210	4	26.726	0	289.666	0	115.7	4	38.6	4	-1E+10	1	-1E+10	1	-1E+10	1	-1E+10	1	-1E+10	1	-1E+10	1
4901784	100	C	03/31/2018	10:43	-132.721	43.384	0	294.90	0	6.4240	0	34.0200	4	26.727	0	292.341	0	113.1	4	37.8	4	-1E+10	1	-1E+10	1	-1E+10	1	-1E+10	1	-1E+10	1	-1E+10	1
4901784	100	C	03/31/2018	10:43	-132.721	43.384	0	297.50	0	6.3960	0	34.0220	4	26.733	0	294.917	0	111.0	4	37.0	4	-1E+10	1	-1E+10	1	-1E+10	1	-1E+10	1	-1E+10	1	-1E+10	1
4901784	100	C	03/31/2018	10:43	-132.721	43.384	0	300.20	0	6.3490	0	34.0220	4	26.739	0	297.591	0	109.9	4	36.6	4	-1E+10	1	-1E+10	1	-1E+10	1	-1E+10	1	-1E+10	1	-1E+10	1
4901784	100	C	03/31/2018	10:43	-132.721	43.384	0	302.90	0	6.3030	0	34.0240	4	26.746	0	300.266	0	109.2	4	36.4	4	-1E+10	1	-1E+10	1	-1E+10	1	-1E+10	1	-1E+10	1	-1E+10	1
4901784	100	C	03/31/2018	10:43	-132.721	43.384	0	304.70	0	6.2880	0	34.0220	4	26.747	0	302.049	0	109.1	4	36.3	4	-1E+10	1	-1E+10	1	-1E+10	1	-1E+10	1	-1E+10	1	-1E+10	1
4901784	100	C	03/31/2018	10:43	-132.721	43.384	0	307.50	0	6.2790	0	34.0200	4	26.746	0	304.823	0	109.0	4	36.3	4	-1E+10	1	-1E+10	1	-1E+10	1	-1E+10	1	-1E+10	1	-1E+10	1
4901784	100	C	03/31/2018	10:43	-132.721	43.384	0	310.20	0	6.2330	0	34.0180	4	26.751	0	307.497	0	109.0	4	36.2	4	-1E+10	1	-1E+10	1	-1E+10	1	-1E+10	1	-1E+10	1	-1E+10	1
4901784	100	C	03/31/2018	10:43	-132.721	43.384	0	312.00	0	6.1740	0	34.0170	4	26.757	0	309.280	0	109.2	4	36.2	4	-1E+10	1	-1E+10	1	-1E+10	1	-1E+10	1	-1E+10	1	-1E+10	1
4901784	100	C	03/31/2018	10:43	-132.721	43.384	0	314.70	0	6.1310	0	34.0170	4	26.763	0	311.954	0	108.8	4	36.1	4	-1E+10	1	-1E+10	1	-1E+10	1	-1E+10	1	-1E+10	1	-1E+10	1
4901784	100	C	03/31/2018	10:43	-132.721	43.384	0	317.40	0	6.0950	0	34.0170	4	26.768	0	314.629	0	108.9	4	36.1	4	-1E+10	1	-1E+10	1	-1E+10	1	-1E+10	1	-1E+10	1	-1E+10	1
4901784	100	C	03/31/2018	10:43	-132.721	43.384	0	320.00	0	6.0800	0	34.0150	4	26.768	0	317.204	0	109.4	4	36.2	4	-1E+10	1	-1E+10	1	-1E+10	1	-1E+10	1	-1E+10	1	-1E+10	1
4901784	100	C	03/31/2018	10:43	-132.721	43.384	0	322.60	0	6.0620	0	34.0130	4	26.769	0	319.779	0	110.3	4	36.5	4	-1E+10	1	-1E+10	1	-1E+10	1	-1E+10	1	-1E+10	1	-1E+10	1
4901784	100	C	03/31/2018	10:43	-132.721	43.384	0	324.50	0	6.0010	0	34.0130	4	26.776	0	321.661	0	111.0	4	36.7	4	-1E+10	1	-1E+10	1	-1E+10	1	-1E+10	1	-1E+10	1	-1E+10	1
4901784	100	C	03/31/2018	10:43	-132.721	43.384	0	327.20	0	5.9470	0	34.0130	4	26.783	0	324.336	0	110.4	4	36.5	4	-1E+10	1	-1E+10	1	-1E+10	1	-1E+10	1	-1E+10	1	-1E+10	1
4901784	100	C	03/31/2018	10:43	-132.721	43.384	0	329.80	0	5.9030	0	34.0130	4	26.789	0	326.911	0	109.4	4	36.1	4	-1E+10	1	-1E+10	1	-1E+10	1	-1E+10	1	-1E+10	1	-1E+10	1
4901784	100	C	03/31/2018	10:43	-132.721	43.384	0	332.50	0	5.8820	0	34.0130	4	26.791	0	329.585	0	108.4	4	35.7	4	-1E+10	1	-1E+10	1	-1E+10	1	-1E+10	1	-1E+10	1	-1E+10	1
4901784	100	C	03/31/2018	10:43	-132.721	43.384	0	335.20	0	5.8660	0	34.0120	4	26.792	0	332.259	0	107.1	4	35.3	4	-1E+10	1	-1E+10	1	-1E+10	1	-1E+10	1	-1E+10	1	-1E+10	1
4901784	100	C	03/31/2018	10:43	-132.721	43.384	0	337.10	0	5.8280	0	34.0140	4	26.799	0	334.141	0	106.4	4	35.0	4	-1E+10	1	-1E+10	1	-1E+10	1	-1E+10	1	-1E+10	1	-1E+10	1
4901784	100	C	03/31/2018	10:43	-132.721	43.384	0	339.80	0	5.8190	0	34.0130	4	26.799	0	336.815	0	105.4	4	34.7	4	-1E+10	1	-1E+10	1	-1E+10	1	-1E+10	1	-1E+10	1	-1E+10	1
4901784	100	C	03/31/2018	10:43	-132.721	43.384	0	342.60	0	5.7930	0	34.0120	4	26.801	0	339.588	0	104.3	4	34.3	4	-1E+10	1	-1E+10	1	-1E+10	1	-1E+10	1	-1E+10	1	-1E+10	1
4901784	100	C	03/31/2018	10:43	-132.721	43.384	0	345.30	0	5.7630	0	34.0130	4	26.806	0	342.262	0	103.1	4	33.9	4	-1E+10	1	-1E+10	1	-1E+10	1	-1E+10	1	-1E+10	1	-1E+10	1
4901784	100	C	03/31/2018	10:43	-132.721	43.384	0	348.00	0	5.7280	0	34.0130	4	26.810	0	344.936	0	102.1	4	33.5	4	-1E+10	1	-1E+10	1	-1E+10	1	-1E+10	1	-1E+10	1	-1E+10	1
4901784	100	C	03/31/2018	10:43	-132.721	43.384	0	349.80	0	5.7100	0	34.0120	4	26.812	0	346.719	0	101.6	4	33.4	4	-1E+10	1	-1E+10	1	-1E+10	1	-1E+10	1	-1E+10	1	-1E+10	1
4901784	100	C	03/31/2018	10:43	-132.721	43.384	0	352.50	0	5.6810	0	34.0130	4	26.816	0	349.393	0	100.9	4	33.1	4	-1E+10	1	-1E+10	1	-1E+10	1	-1E+10	1	-1E+10	1	-1E+10	1
4901784	100	C	03/31/2018	10:43	-132.721	43.384	0	355.10	0	5.6540	0	34.0140	4	26.820	0	351.968	0	100.5	4	33.0	4	-1E+10	1	-1E+10	1	-1E+10	1	-1E+10	1	-1E+10	1	-1E+10	1
4901784	100	C	03/31/2018	10:43	-132.721	43.384	0	357.70	0	5.6330	0	34.0160	4	26.824	0	354.542	0	100.0	4	32.8	4	-1E+10	1	-1E+10	1	-1E+10	1	-1E+10	1	-1E+10	1	-1E+10	1
4901784	100	C	03/31/2018	10:43	-132.721	43.384	0	360.30	0	5.6000	0	34.0180	4	26.830	0	357.117	0	99.4	4	32.5	4	-1E+10	1	-1E+10	1	-1E+10	1	-1E+10	1	-1E+10	1	-1E+10	1
4901784	100	C	03/31/2018	10:43	-132.721	43.384	0	362.10	0	5.5860	0	34.0180	4	26.832	0	358.900	0	98.9	4	32.4	4	-1E+10	1	-1E+10	1	-1E+10	1	-1E+10	1	-1E+10	1	-1E+10	1
4901784	100	C	03/31/2018	10:43	-132.721	43.384	0	364.80	0	5.5590	0	34.0190	4	26.836	0	361.574	0	97.9	4	32.1	4	-1E+10	1	-1E+10	1	-1E+10	1	-1E+10	1	-1E+10	1	-1E+10	1
4901784	100	C	03/31/2018	10:43	-132.721	43.384	0	367.30	0	5.5340	0	34.0190	4	26.839	0	364.049	0	96.9	4	31.7	4	-1E+10	1	-1E+10	1	-1E+10	1	-1E+10	1	-1E+10	1	-1E+10	1
4901784	100	C	03/31/2018	10:43	-132.721	43.384	0	369.90	0	5.4930	0	34.0190	4	26.844	0	366.624	0	95.8	4	31.3	4	-1E+10	1	-1E+10	1	-1E+10	1	-1E+10	1	-1E+10	1	-1E+10	1
4901784	100	C	03/31/2018	10:43	-132.721	43.384	0	372.50	0	5.4360	0	34.0230	4	26.854	0	369.199	0	94.9	4	31.0	4	-1E+10	1	-1E+10	1	-1E+10	1	-1E+10	1	-1E+10	1	-1E+10	1
4901784	100	C	03/31/2018	10:43	-132.721	43.384	0	375.10	0	5.4250	0	34.0230	4	26.855	0	371.773	0	94.2	4	30.7	4	-1E+10	1	-1E+10	1	-1E+10	1	-1E+10	1	-1E+10	1	-1E+10	1
4901784	100	C	03/31/2018	10:43	-132.721	43.384	0	377.70	0	5.3910	0	34.0260	4	26.861	0	374.348	0	93.2	4	30.4	4	-1E+10	1	-1E+10	1	-1E+10	1	-1E+10	1	-1E+10	1	-1E+10	1
4901784	100	C	03/31/2018	10:43	-132.721	43.384	0	380.30	0	5.3700	0	34.0270	4	26.865	0	376.922	0	92.3	4	30.1	4	-1E+10	1	-1E+10	1	-1E+10	1	-1E+10	1	-1E+10	1	-1E+10	1
4901784	100	C	03/31/2018	10:43	-132.721	43.384	0	382.90	0	5.3670	0	34.0260	4	26.864	0	379.497	0	90.9	4	29.6	4	-1E+10	1	-1E+10	1	-1E+10	1	-1E+10	1	-1E+10	1	-1E+10	1
4901784	100	C	03/31/2018	10:43	-132.721	43.384	0	384.70	0	5.3580	0	34.0250	4	26.864	0	381.279	0	89.6	4	29.2	4	-1E+10	1	-1E+10	1	-1E+10	1	-1E+10	1	-1E+10	1	-1E+10	1
4901784	100	C	03/31/2018	10:43	-132.721	43.384	0	387.30	0	5.3030	0	34.0260	4	26.872	0	383.854	0	87.3	4	28.4	4	-1E+10	1	-1E+10	1	-1E+10	1	-1E+10	1	-1E+10	1	-1E+10	1
4901784	100	C	03/31/2018	10:43	-132.721	43.384	0	389.90	0	5.2320	0	34.0290	4	26.882	0	386.428	0	85.6	4	27.8	4	-1E+10	1	-1E+10	1	-1E+10	1	-1E+10	1	-1E+10	1	-1E+10	1
4901784	100	C	03/31/2018	10:43	-132.721	43.384	0	392.60	0	5.2150	0	34.0290	4	26.884	0	389.102	0	84.8	4	27.5	4	-1E+10	1	-1E+10	1	-1E+10	1	-1E+10	1	-1E+10	1	-1E+10	1
4901784	100	C	03/31/2018	10:43	-132.721	43.384	0	395.30	0	5.2080	0	34.0300	4	26.886	0	391.775	0	83.9	4	27.2	4	-1E+10	1	-1E+10	1	-1E+10	1	-1E+10	1	-1E+10	1	-1E+10	1
4901784	100	C	03/31/2018	10:43	-132.721	43.384	0	397.10	0	5.1950	0	34.0300	4	26.888	0	393.557	0	82.9	4	26.9	4	-1E+10	1	-1E+10	1	-1E+10	1	-1E+10	1	-1E+10	1	-1E+10	1
4901784	100	C	03/31/2018	10:43	-132.721	43.384	0	399.80	0	5.1690	0	34.0330	4	26.893	0	396.231	0	81.4	4	26.4	4	-1E+10	1	-1E+10	1	-1E+10	1	-1E+10	1	-1E+10	1	-1E+10	1
4901784	100	C	03/31/2018	10:43	-132.721	43.384	0	402.50	0	5.1330	0	34.0390	4	26.902	0	398.904	0	79.5	4	25.8	4	-1E+10	1	-1E+10	1	-1E+10	1	-1E+10	1	-1E+10	1	-1E+10	1
4901784	100	C	03/31/2018	10:43	-132.721	43.384	0	405.20	0	5.1340	0	34.0420	4	26.904	0	401.577	0	77.3	4	25.0	4	-1E+10	1	-1E+10	1	-1E+10	1	-1E+10	1	-1E+10	1	-1E+10	1
4901784	100	C	03/31/2018	10:43	-132.721	43.384	0	408.00	0	5.1340	0	34.0420	4	26.904	0	404.349	0	75.9	4	24.6	4	-1E+10	1	-1E+10	1	-1E+10	1	-1E+10	1	-1E+10	1	-1E+10	1
4901784	100	C	03/31/2018	10:43	-132.721	43.384	0	409.80	0	5.1250	0	34.0430	4	26.906	0	406.132	0	75.3	4	24.4	4	-1E+10	1	-1E+10	1	-1E+10	1	-1E+10	1	-1E+10	1	-1E+10	1
4901784	100	C	03/31/2018	10:43	-132.721	43.384	0	412.60	0	5.1170	0	34.0450	4	26.909	0	408.904	0	74.3	4	24.1	4	-1E+10	1	-1E+10	1	-1E+10	1	-1E+10	1	-1E+10	1	-1E+10	1
4901784	100	C	03/31/2018	10:43	-132.721	43.384	0	415.40	0	5.1100	0	34.0460	4	26.910	0	411.676	0	73.3	4	23.8	4	-1E+10	1	-1E+10	1	-1E+10	1	-1E+10	1	-1E+10	1	-1E+10	1
4901784	100	C	03/31/2018	10:43	-132.721	43.384	0	417.30	0	5.1020	0	34.0490	4	26.914	0	413.557	0	72.5	4	23.5	4	-1E+10	1	-1E+10	1	-1E+10	1	-1E+10	1	-1E+10	1	-1E+10	1
4901784	100	C	03/31/2018	10:43	-132.721	43.384	0	419.20	0	5.1050	0	34.0510	4	26.915	0	415.438	0	71.8	4	23.3	4	-1E+10	1	-1E+10	1	-1E+10	1	-1E+10	1	-1E+10	1	-1E+10	1
4901784	100	C	03/31/2018	10:43	-132.721	43.384	0	422.30	0	5.0980	0	34.0530	4	26.917	0	418.507	0	70.8	4	22.9	4	-1E+10	1	-1E+10	1	-1E+10	1	-1E+10	1	-1E+10	1	-1E+10	1
4901784	100	C	03/31/2018	10:43	-132.721	43.384	0	425.10	0	5.0990	0	34.0570	4	26.920	0	421.279	0	69.7	4	22.6	4	-1E+10	1	-1E+10	1	-1E+10	1	-1E+10	1	-1E+10	1	-1E+10	1
4901784	100	C	03/31/2018	10:43	-132.721	43.384	0	427.50	0	5.0980	0	34.0600	4	26.923	0	423.655	0	70.2	4	22.7	4	-1E+10	1	-1E+10	1	-1E+10	1	-1E+10	1	-1E+10	1	-1E+10	1
4901784	100	C	03/31/2018	10:43	-132.721	43.384	0	429.90	0	5.0750	0	34.0580	4	26.924	0	426.031	0	71.0	4	23.0	4	-1E+10	1	-1E+10	1	-1E+10	1	-1E+10	1	-1E+10	1	-1E+10	1
4901784	100	C	03/31/2018	10:43	-132.721	43.384	0	432.30	0	5.0540	0	34.0590	4	26.927	0	428.407	0	72.9	4	23.6	4	-1E+10	1	-1E+10	1	-1E+10	1	-1E+10	1	-1E+10	1	-1E+10	1
4901784	100	C	03/31/2018	10:43	-132.721	43.384	0	434.80	0	4.9700	0	34.0540	4	26.933	0	430.882	0	74.0	4	23.9	4	-1E+10	1	-1E+10	1	-1E+10	1	-1E+10	1	-1E+10	1	-1E+10	1
4901784	100	C	03/31/2018	10:43	-132.721	43.384	0	437.20	0	4.9490	0	34.0560	4	26.937	0	433.258	0	72.1	4	23.3	4	-1E+10	1	-1E+10	1	-1E+10	1	-1E+10	1	-1E+10	1	-1E+10	1
4901784	100	C	03/31/2018	10:43	-132.721	43.384	0	440.40	0	4.9620	0	34.0620	4	26.940	0	436.425	0	70.1	4	22.6	4	-1E+10	1	-1E+10	1	-1E+10	1	-1E+10	1	-1E+10	1	-1E+10	1
4901784	100	C	03/31/2018	10:43	-132.721	43.384	0	442.80	0	4.9450	0	34.0620	4	26.942	0	438.801	0	70.0	4	22.6	4	-1E+10	1	-1E+10	1	-1E+10	1	-1E+10	1	-1E+10	1	-1E+10	1
4901784	100	C	03/31/2018	10:43	-132.721	43.384	0	445.20	0	4.9010	0	34.0630	4	26.948	0	441.177	0	69.3	4	22.3	4	-1E+10	1	-1E+10	1	-1E+10	1	-1E+10	1	-1E+10	1	-1E+10	1
4901784	100	C	03/31/2018	10:43	-132.721	43.384	0	447.70	0	4.8840	0	34.0640	4	26.950	0	443.652	0	68.2	4	22.0	4	-1E+10	1	-1E+10	1	-1E+10	1	-1E+10	1	-1E+10	1	-1E+10	1
4901784	100	C	03/31/2018	10:43	-132.721	43.384	0	450.20	0	4.8710	0	34.0640	4	26.952	0	446.127	0	66.7	4	21.5	4	-1E+10	1	-1E+10	1	-1E+10	1	-1E+10	1	-1E+10	1	-1E+10	1
4901784	100	C	03/31/2018	10:43	-132.721	43.384	0	452.70	0	4.8330	0	34.0670	4	26.959	0	448.601	0	65.6	4	21.1	4	-1E+10	1	-1E+10	1	-1E+10	1	-1E+10	1	-1E+10	1	-1E+10	1
4901784	100	C	03/31/2018	10:43	-132.721	43.384	0	455.20	0	4.8090	0	34.0720	4	26.965	0	451.076	0	65.3	4	21.0	4	-1E+10	1	-1E+10	1	-1E+10	1	-1E+10	1	-1E+10	1	-1E+10	1
4901784	100	C	03/31/2018	10:43	-132.721	43.384	0	457.60	0	4.7960	0	34.0760	4	26.970	0	453.451	0	65.1	4	20.9	4	-1E+10	1	-1E+10	1	-1E+10	1	-1E+10	1	-1E+10	1	-1E+10	1
4901784	100	C	03/31/2018	10:43	-132.721	43.384	0	460.10	0	4.7990	0	34.0790	4	26.972	0	455.926	0	64.9	4	20.9	4	-1E+10	1	-1E+10	1	-1E+10	1	-1E+10	1	-1E+10	1	-1E+10	1
4901784	100	C	03/31/2018	10:43	-132.721	43.384	0	462.60	0	4.8060	0	34.0800	4	26.972	0	458.401	0	64.6	4	20.8	4	-1E+10	1	-1E+10	1	-1E+10	1	-1E+10	1	-1E+10	1	-1E+10	1
4901784	100	C	03/31/2018	10:43	-132.721	43.384	0	465.10	0	4.8130	0	34.0860	4	26.976	0	460.875	0	63.9	4	20.6	4	-1E+10	1	-1E+10	1	-1E+10	1	-1E+10	1	-1E+10	1	-1E+10	1
4901784	100	C	03/31/2018	10:43	-132.721	43.384	0	467.60	0	4.8010	0	34.0910	4	26.981	0	463.350	0	63.3	4	20.4	4	-1E+10	1	-1E+10	1	-1E+10	1	-1E+10	1	-1E+10	1	-1E+10	1
4901784	100	C	03/31/2018	10:43	-132.721	43.384	0	470.10	0	4.8030	0	34.0920	4	26.982	0	465.824	0	62.7	4	20.2	4	-1E+10	1	-1E+10	1	-1E+10	1	-1E+10	1	-1E+10	1	-1E+10	1
4901784	100	C	03/31/2018	10:43	-132.721	43.384	0	472.70	0	4.7950	0	34.0940	4	26.984	0	468.398	0	62.0	4	19.9	4	-1E+10	1	-1E+10	1	-1E+10	1	-1E+10	1	-1E+10	1	-1E+10	1
4901784	100	C	03/31/2018	10:43	-132.721	43.384	0	475.30	0	4.7870	0	34.0970	4	26.988	0	470.971	0	61.3	4	19.7	4	-1E+10	1	-1E+10	1	-1E+10	1	-1E+10	1	-1E+10	1	-1E+10	1
4901784	100	C	03/31/2018	10:43	-132.721	43.384	0	477.90	0	4.7770	0	34.0990	4	26.990	0	473.544	0	60.6	4	19.5	4	-1E+10	1	-1E+10	1	-1E+10	1	-1E+10	1	-1E+10	1	-1E+10	1
4901784	100	C	03/31/2018	10:43	-132.721	43.384	0	479.60	0	4.7740	0	34.0990	4	26.991	0	475.227	0	60.1	4	19.3	4	-1E+10	1	-1E+10	1	-1E+10	1	-1E+10	1	-1E+10	1	-1E+10	1
4901784	100	C	03/31/2018	10:43	-132.721	43.384	0	482.30	0	4.7640	0	34.1010	4	26.993	0	477.899	0	59.2	4	19.0	4	-1E+10	1	-1E+10	1	-1E+10	1	-1E+10	1	-1E+10	1	-1E+10	1
4901784	100	C	03/31/2018	10:43	-132.721	43.384	0	484.90	0	4.7560	0	34.1010	4	26.994	0	480.472	0	58.2	4	18.7	4	-1E+10	1	-1E+10	1	-1E+10	1	-1E+10	1	-1E+10	1	-1E+10	1
4901784	100	C	03/31/2018	10:43	-132.721	43.384	0	487.60	0	4.7320	0	34.1070	4	27.002	0	483.145	0	57.1	4	18.3	4	-1E+10	1	-1E+10	1	-1E+10	1	-1E+10	1	-1E+10	1	-1E+10	1
4901784	100	C	03/31/2018	10:43	-132.721	43.384	0	490.20	0	4.7160	0	34.1110	4	27.007	0	485.718	0	56.3	4	18.1	4	-1E+10	1	-1E+10	1	-1E+10	1	-1E+10	1	-1E+10	1	-1E+10	1
4901784	100	C	03/31/2018	10:43	-132.721	43.384	0	492.00	0	4.7100	0	34.1110	4	27.007	0	487.499	0	55.9	4	17.9	4	-1E+10	1	-1E+10	1	-1E+10	1	-1E+10	1	-1E+10	1	-1E+10	1
4901784	100	C	03/31/2018	10:43	-132.721	43.384	0	494.70	0	4.6970	0	34.1140	4	27.011	0	490.171	0	55.2	4	17.7	4	-1E+10	1	-1E+10	1	-1E+10	1	-1E+10	1	-1E+10	1	-1E+10	1
4901784	100	C	03/31/2018	10:43	-132.721	43.384	0	497.40	0	4.6800	0	34.1160	4	27.015	0	492.843	0	54.7	4	17.5	4	-1E+10	1	-1E+10	1	-1E+10	1	-1E+10	1	-1E+10	1	-1E+10	1
4901784	100	C	03/31/2018	10:43	-132.721	43.384	0	500.10	0	4.6730	0	34.1160	4	27.016	0	495.516	0	54.2	4	17.4	4	-1E+10	1	-1E+10	1	-1E+10	1	-1E+10	1	-1E+10	1	-1E+10	1
4901784	100	C	03/31/2018	10:43	-132.721	43.384	0	504.60	0	4.6340	0	34.1210	4	27.024	0	499.969	0	53.0	4	17.0	4	-1E+10	1	-1E+10	1	-1E+10	1	-1E+10	1	-1E+10	1	-1E+10	1
4901784	100	C	03/31/2018	10:43	-132.721	43.384	0	509.70	0	4.6090	0	34.1270	4	27.031	0	505.016	0	51.9	4	16.6	4	-1E+10	1	-1E+10	1	-1E+10	1	-1E+10	1	-1E+10	1	-1E+10	1
4901784	100	C	03/31/2018	10:43	-132.721	43.384	0	514.50	0	4.6040	0	34.1290	4	27.034	0	509.766	0	51.1	4	16.4	4	-1E+10	1	-1E+10	1	-1E+10	1	-1E+10	1	-1E+10	1	-1E+10	1
4901784	100	C	03/31/2018	10:43	-132.721	43.384	0	519.30	0	4.5940	0	34.1310	4	27.036	0	514.516	0	50.1	4	16.1	4	-1E+10	1	-1E+10	1	-1E+10	1	-1E+10	1	-1E+10	1	-1E+10	1
4901784	100	C	03/31/2018	10:43	-132.721	43.384	0	525.00	0	4.5740	0	34.1350	4	27.042	0	520.156	0	48.9	4	15.7	4	-1E+10	1	-1E+10	1	-1E+10	1	-1E+10	1	-1E+10	1	-1E+10	1
4901784	100	C	03/31/2018	10:43	-132.721	43.384	0	530.80	0	4.5530	0	34.1380	4	27.046	0	525.895	0	47.5	4	15.2	4	-1E+10	1	-1E+10	1	-1E+10	1	-1E+10	1	-1E+10	1	-1E+10	1
4901784	100	C	03/31/2018	10:43	-132.721	43.384	0	535.00	0	4.5300	0	34.1430	4	27.053	0	530.051	0	46.6	4	14.9	4	-1E+10	1	-1E+10	1	-1E+10	1	-1E+10	1	-1E+10	1	-1E+10	1
4901784	100	C	03/31/2018	10:43	-132.721	43.384	0	539.20	0	4.5250	0	34.1440	4	27.054	0	534.207	0	45.8	4	14.6	4	-1E+10	1	-1E+10	1	-1E+10	1	-1E+10	1	-1E+10	1	-1E+10	1
4901784	100	C	03/31/2018	10:43	-132.721	43.384	0	544.30	0	4.5050	0	34.1480	4	27.060	0	539.253	0	44.4	4	14.2	4	-1E+10	1	-1E+10	1	-1E+10	1	-1E+10	1	-1E+10	1	-1E+10	1
4901784	100	C	03/31/2018	10:43	-132.721	43.384	0	550.00	0	4.4790	0	34.1530	4	27.066	0	544.893	0	43.0	4	13.7	4	-1E+10	1	-1E+10	1	-1E+10	1	-1E+10	1	-1E+10	1	-1E+10	1
4901784	100	C	03/31/2018	10:43	-132.721	43.384	0	555.80	0	4.4600	0	34.1560	4	27.071	0	550.631	0	41.8	4	13.3	4	-1E+10	1	-1E+10	1	-1E+10	1	-1E+10	1	-1E+10	1	-1E+10	1
4901784	100	C	03/31/2018	10:43	-132.721	43.384	0	560.80	0	4.4370	0	34.1620	4	27.078	0	555.578	0	40.7	4	13.0	4	-1E+10	1	-1E+10	1	-1E+10	1	-1E+10	1	-1E+10	1	-1E+10	1
4901784	100	C	03/31/2018	10:43	-132.721	43.384	0	565.80	0	4.4210	0	34.1660	4	27.083	0	560.525	0	39.8	4	12.7	4	-1E+10	1	-1E+10	1	-1E+10	1	-1E+10	1	-1E+10	1	-1E+10	1
4901784	100	C	03/31/2018	10:43	-132.721	43.384	0	570.00	0	4.4120	0	34.1680	4	27.086	0	564.680	0	39.1	4	12.5	4	-1E+10	1	-1E+10	1	-1E+10	1	-1E+10	1	-1E+10	1	-1E+10	1
4901784	100	C	03/31/2018	10:43	-132.721	43.384	0	574.30	0	4.3960	0	34.1720	4	27.091	0	568.934	0	38.2	4	12.2	4	-1E+10	1	-1E+10	1	-1E+10	1	-1E+10	1	-1E+10	1	-1E+10	1
4901784	100	C	03/31/2018	10:43	-132.721	43.384	0	579.50	0	4.3840	0	34.1750	4	27.094	0	574.078	0	37.3	4	11.9	4	-1E+10	1	-1E+10	1	-1E+10	1	-1E+10	1	-1E+10	1	-1E+10	1
4901784	100	C	03/31/2018	10:43	-132.721	43.384	0	584.50	0	4.3690	0	34.1790	4	27.099	0	579.024	0	36.3	4	11.6	4	-1E+10	1	-1E+10	1	-1E+10	1	-1E+10	1	-1E+10	1	-1E+10	1
4901784	100	C	03/31/2018	10:43	-132.721	43.384	0	589.40	0	4.3510	0	34.1840	4	27.105	0	583.872	0	35.5	4	11.3	4	-1E+10	1	-1E+10	1	-1E+10	1	-1E+10	1	-1E+10	1	-1E+10	1
4901784	100	C	03/31/2018	10:43	-132.721	43.384	0	594.40	0	4.3450	0	34.1870	4	27.108	0	588.818	0	34.8	4	11.1	4	-1E+10	1	-1E+10	1	-1E+10	1	-1E+10	1	-1E+10	1	-1E+10	1
4901784	100	C	03/31/2018	10:43	-132.721	43.384	0	599.50	0	4.3290	0	34.1910	4	27.113	0	593.862	0	33.7	4	10.7	4	-1E+10	1	-1E+10	1	-1E+10	1	-1E+10	1	-1E+10	1	-1E+10	1
4901784	100	C	03/31/2018	10:43	-132.721	43.384	0	604.40	0	4.3200	0	34.1930	4	27.116	0	598.709	0	32.8	4	10.4	4	-1E+10	1	-1E+10	1	-1E+10	1	-1E+10	1	-1E+10	1	-1E+10	1
4901784	100	C	03/31/2018	10:43	-132.721	43.384	0	609.40	0	4.2990	0	34.1970	4	27.121	0	603.655	0	31.7	4	10.1	4	-1E+10	1	-1E+10	1	-1E+10	1	-1E+10	1	-1E+10	1	-1E+10	1
4901784	100	C	03/31/2018	10:43	-132.721	43.384	0	614.50	0	4.2900	0	34.1990	4	27.124	0	608.699	0	30.9	4	9.8	4	-1E+10	1	-1E+10	1	-1E+10	1	-1E+10	1	-1E+10	1	-1E+10	1
4901784	100	C	03/31/2018	10:43	-132.721	43.384	0	619.50	0	4.2730	0	34.2040	4	27.129	0	613.645	0	29.7	4	9.4	4	-1E+10	1	-1E+10	1	-1E+10	1	-1E+10	1	-1E+10	1	-1E+10	1
4901784	100	C	03/31/2018	10:43	-132.721	43.384	0	624.50	0	4.2510	0	34.2110	4	27.137	0	618.590	0	28.9	4	9.2	4	-1E+10	1	-1E+10	1	-1E+10	1	-1E+10	1	-1E+10	1	-1E+10	1
4901784	100	C	03/31/2018	10:43	-132.721	43.384	0	629.60	0	4.2440	0	34.2130	4	27.140	0	623.634	0	28.3	4	9.0	4	-1E+10	1	-1E+10	1	-1E+10	1	-1E+10	1	-1E+10	1	-1E+10	1
4901784	100	C	03/31/2018	10:43	-132.721	43.384	0	634.60	0	4.2300	0	34.2170	4	27.144	0	628.579	0	27.4	4	8.7	4	-1E+10	1	-1E+10	1	-1E+10	1	-1E+10	1	-1E+10	1	-1E+10	1
4901784	100	C	03/31/2018	10:43	-132.721	43.384	0	639.70	0	4.2070	0	34.2240	4	27.152	0	633.623	0	26.6	4	8.4	4	-1E+10	1	-1E+10	1	-1E+10	1	-1E+10	1	-1E+10	1	-1E+10	1
4901784	100	C	03/31/2018	10:43	-132.721	43.384	0	644.70	0	4.1970	0	34.2270	4	27.156	0	638.568	0	25.9	4	8.2	4	-1E+10	1	-1E+10	1	-1E+10	1	-1E+10	1	-1E+10	1	-1E+10	1
4901784	100	C	03/31/2018	10:43	-132.721	43.384	0	649.70	0	4.1820	0	34.2320	4	27.161	0	643.513	0	25.2	4	8.0	4	-1E+10	1	-1E+10	1	-1E+10	1	-1E+10	1	-1E+10	1	-1E+10	1
4901784	100	C	03/31/2018	10:43	-132.721	43.384	0	654.80	0	4.1670	0	34.2370	4	27.167	0	648.556	0	24.4	4	7.7	4	-1E+10	1	-1E+10	1	-1E+10	1	-1E+10	1	-1E+10	1	-1E+10	1
4901784	100	C	03/31/2018	10:43	-132.721	43.384	0	659.80	0	4.1410	0	34.2440	4	27.175	0	653.501	0	23.4	4	7.4	4	-1E+10	1	-1E+10	1	-1E+10	1	-1E+10	1	-1E+10	1	-1E+10	1
4901784	100	C	03/31/2018	10:43	-132.721	43.384	0	664.70	0	4.1320	0	34.2480	4	27.179	0	658.346	0	22.4	4	7.1	4	-1E+10	1	-1E+10	1	-1E+10	1	-1E+10	1	-1E+10	1	-1E+10	1
4901784	100	C	03/31/2018	10:43	-132.721	43.384	0	669.80	0	4.1340	0	34.2530	4	27.183	0	663.389	0	21.0	4	6.7	4	-1E+10	1	-1E+10	1	-1E+10	1	-1E+10	1	-1E+10	1	-1E+10	1
4901784	100	C	03/31/2018	10:43	-132.721	43.384	0	674.80	0	4.1330	0	34.2570	4	27.187	0	668.334	0	20.5	4	6.5	4	-1E+10	1	-1E+10	1	-1E+10	1	-1E+10	1	-1E+10	1	-1E+10	1
4901784	100	C	03/31/2018	10:43	-132.721	43.384	0	679.80	0	4.1260	0	34.2590	4	27.189	0	673.278	0	20.2	4	6.4	4	-1E+10	1	-1E+10	1	-1E+10	1	-1E+10	1	-1E+10	1	-1E+10	1
4901784	100	C	03/31/2018	10:43	-132.721	43.384	0	684.90	0	4.1030	0	34.2620	4	27.194	0	678.320	0	19.6	4	6.2	4	-1E+10	1	-1E+10	1	-1E+10	1	-1E+10	1	-1E+10	1	-1E+10	1
4901784	100	C	03/31/2018	10:43	-132.721	43.384	0	690.00	0	4.0900	0	34.2690	4	27.201	0	683.363	0	18.7	4	5.9	4	-1E+10	1	-1E+10	1	-1E+10	1	-1E+10	1	-1E+10	1	-1E+10	1
4901784	100	C	03/31/2018	10:43	-132.721	43.384	0	695.10	0	4.0710	0	34.2750	4	27.207	0	688.406	0	18.2	4	5.8	4	-1E+10	1	-1E+10	1	-1E+10	1	-1E+10	1	-1E+10	1	-1E+10	1
4901784	100	C	03/31/2018	10:43	-132.721	43.384	0	700.30	0	4.0540	0	34.2780	4	27.212	0	693.547	0	17.7	4	5.6	4	-1E+10	1	-1E+10	1	-1E+10	1	-1E+10	1	-1E+10	1	-1E+10	1
4901784	100	C	03/31/2018	10:43	-132.721	43.384	0	705.60	0	4.0490	0	34.2850	4	27.218	0	698.787	0	16.9	4	5.3	4	-1E+10	1	-1E+10	1	-1E+10	1	-1E+10	1	-1E+10	1	-1E+10	1
4901784	100	C	03/31/2018	10:43	-132.721	43.384	0	709.90	0	4.0710	0	34.2940	4	27.223	0	703.038	0	16.1	4	5.1	4	-1E+10	1	-1E+10	1	-1E+10	1	-1E+10	1	-1E+10	1	-1E+10	1
4901784	100	C	03/31/2018	10:43	-132.721	43.384	0	714.40	0	4.0840	0	34.2990	4	27.225	0	707.487	0	15.8	4	5.0	4	-1E+10	1	-1E+10	1	-1E+10	1	-1E+10	1	-1E+10	1	-1E+10	1
4901784	100	C	03/31/2018	10:43	-132.721	43.384	0	719.70	0	4.0270	0	34.3020	4	27.234	0	712.727	0	15.5	4	4.9	4	-1E+10	1	-1E+10	1	-1E+10	1	-1E+10	1	-1E+10	1	-1E+10	1
4901784	100	C	03/31/2018	10:43	-132.721	43.384	0	725.50	0	4.0410	0	34.3090	4	27.238	0	718.460	0	15.0	4	4.7	4	-1E+10	1	-1E+10	1	-1E+10	1	-1E+10	1	-1E+10	1	-1E+10	1
4901784	100	C	03/31/2018	10:43	-132.721	43.384	0	730.50	0	4.0070	0	34.3140	4	27.245	0	723.403	0	14.5	4	4.6	4	-1E+10	1	-1E+10	1	-1E+10	1	-1E+10	1	-1E+10	1	-1E+10	1
4901784	100	C	03/31/2018	10:43	-132.721	43.384	0	735.10	0	4.0060	0	34.3200	4	27.250	0	727.950	0	13.9	4	4.4	4	-1E+10	1	-1E+10	1	-1E+10	1	-1E+10	1	-1E+10	1	-1E+10	1
4901784	100	C	03/31/2018	10:43	-132.721	43.384	0	739.80	0	4.0340	0	34.3290	4	27.255	0	732.597	0	13.2	4	4.2	4	-1E+10	1	-1E+10	1	-1E+10	1	-1E+10	1	-1E+10	1	-1E+10	1
4901784	100	C	03/31/2018	10:43	-132.721	43.384	0	744.60	0	4.0620	0	34.3410	4	27.261	0	737.341	0	12.3	4	3.9	4	-1E+10	1	-1E+10	1	-1E+10	1	-1E+10	1	-1E+10	1	-1E+10	1
4901784	100	C	03/31/2018	10:43	-132.721	43.384	0	749.40	0	4.1100	0	34.3570	4	27.269	0	742.086	0	11.6	4	3.7	4	-1E+10	1	-1E+10	1	-1E+10	1	-1E+10	1	-1E+10	1	-1E+10	1
4901784	100	C	03/31/2018	10:43	-132.721	43.384	0	754.30	0	4.1220	0	34.3650	4	27.274	0	746.929	0	11.2	4	3.6	4	-1E+10	1	-1E+10	1	-1E+10	1	-1E+10	1	-1E+10	1	-1E+10	1
4901784	100	C	03/31/2018	10:43	-132.721	43.384	0	759.30	0	4.1290	0	34.3690	4	27.277	0	751.872	0	11.0	4	3.5	4	-1E+10	1	-1E+10	1	-1E+10	1	-1E+10	1	-1E+10	1	-1E+10	1
4901784	100	C	03/31/2018	10:43	-132.721	43.384	0	764.20	0	4.1250	0	34.3750	4	27.282	0	756.715	0	10.8	4	3.4	4	-1E+10	1	-1E+10	1	-1E+10	1	-1E+10	1	-1E+10	1	-1E+10	1
4901784	100	C	03/31/2018	10:43	-132.721	43.384	0	769.20	0	4.1010	0	34.3820	4	27.290	0	761.657	0	10.8	4	3.4	4	-1E+10	1	-1E+10	1	-1E+10	1	-1E+10	1	-1E+10	1	-1E+10	1
4901784	100	C	03/31/2018	10:43	-132.721	43.384	0	774.30	0	4.0860	0	34.3840	4	27.293	0	766.697	0	10.8	4	3.4	4	-1E+10	1	-1E+10	1	-1E+10	1	-1E+10	1	-1E+10	1	-1E+10	1
4901784	100	C	03/31/2018	10:43	-132.721	43.384	0	779.30	0	4.0780	0	34.3830	4	27.293	0	771.639	0	10.9	4	3.4	4	-1E+10	1	-1E+10	1	-1E+10	1	-1E+10	1	-1E+10	1	-1E+10	1
4901784	100	C	03/31/2018	10:43	-132.721	43.384	0	784.40	0	4.0260	0	34.3830	4	27.299	0	776.679	0	11.0	4	3.5	4	-1E+10	1	-1E+10	1	-1E+10	1	-1E+10	1	-1E+10	1	-1E+10	1
4901784	100	C	03/31/2018	10:43	-132.721	43.384	0	789.60	0	4.0000	0	34.3840	4	27.302	0	781.818	0	11.0	4	3.5	4	-1E+10	1	-1E+10	1	-1E+10	1	-1E+10	1	-1E+10	1	-1E+10	1
4901784	100	C	03/31/2018	10:43	-132.721	43.384	0	794.80	0	3.9740	0	34.3860	4	27.307	0	786.957	0	10.9	4	3.4	4	-1E+10	1	-1E+10	1	-1E+10	1	-1E+10	1	-1E+10	1	-1E+10	1
4901784	100	C	03/31/2018	10:43	-132.721	43.384	0	800.00	0	3.9820	0	34.3900	4	27.309	0	792.096	0	10.8	4	3.4	4	-1E+10	1	-1E+10	1	-1E+10	1	-1E+10	1	-1E+10	1	-1E+10	1
4901784	100	C	03/31/2018	10:43	-132.721	43.384	0	805.30	0	3.9820	0	34.3930	4	27.311	0	797.334	0	10.8	4	3.4	4	-1E+10	1	-1E+10	1	-1E+10	1	-1E+10	1	-1E+10	1	-1E+10	1
4901784	100	C	03/31/2018	10:43	-132.721	43.384	0	809.90	0	3.9620	0	34.3930	4	27.313	0	801.879	0	10.7	4	3.4	4	-1E+10	1	-1E+10	1	-1E+10	1	-1E+10	1	-1E+10	1	-1E+10	1
4901784	100	C	03/31/2018	10:43	-132.721	43.384	0	814.40	0	3.9500	0	34.3960	4	27.317	0	806.326	0	10.6	4	3.4	4	-1E+10	1	-1E+10	1	-1E+10	1	-1E+10	1	-1E+10	1	-1E+10	1
4901784	100	C	03/31/2018	10:43	-132.721	43.384	0	819.80	0	3.9610	0	34.4030	4	27.322	0	811.662	0	10.5	4	3.3	4	-1E+10	1	-1E+10	1	-1E+10	1	-1E+10	1	-1E+10	1	-1E+10	1
4901784	100	C	03/31/2018	10:43	-132.721	43.384	0	825.40	0	3.9570	0	34.4060	4	27.324	0	817.196	0	10.5	4	3.3	4	-1E+10	1	-1E+10	1	-1E+10	1	-1E+10	1	-1E+10	1	-1E+10	1
4901784	100	C	03/31/2018	10:43	-132.721	43.384	0	830.00	0	3.9410	0	34.4070	4	27.327	0	821.741	0	10.5	4	3.3	4	-1E+10	1	-1E+10	1	-1E+10	1	-1E+10	1	-1E+10	1	-1E+10	1
4901784	100	C	03/31/2018	10:43	-132.721	43.384	0	834.70	0	3.9160	0	34.4130	4	27.334	0	826.385	0	10.4	4	3.3	4	-1E+10	1	-1E+10	1	-1E+10	1	-1E+10	1	-1E+10	1	-1E+10	1
4901784	100	C	03/31/2018	10:43	-132.721	43.384	0	840.20	0	3.9040	0	34.4180	4	27.339	0	831.819	0	10.4	4	3.3	4	-1E+10	1	-1E+10	1	-1E+10	1	-1E+10	1	-1E+10	1	-1E+10	1
4901784	100	C	03/31/2018	10:43	-132.721	43.384	0	845.50	0	3.8930	0	34.4220	4	27.344	0	837.056	0	10.4	4	3.3	4	-1E+10	1	-1E+10	1	-1E+10	1	-1E+10	1	-1E+10	1	-1E+10	1
4901784	100	C	03/31/2018	10:43	-132.721	43.384	0	850.40	0	3.8760	0	34.4250	4	27.348	0	841.897	0	10.4	4	3.3	4	-1E+10	1	-1E+10	1	-1E+10	1	-1E+10	1	-1E+10	1	-1E+10	1
4901784	100	C	03/31/2018	10:43	-132.721	43.384	0	855.20	0	3.8460	0	34.4290	4	27.354	0	846.639	0	10.5	4	3.3	4	-1E+10	1	-1E+10	1	-1E+10	1	-1E+10	1	-1E+10	1	-1E+10	1
4901784	100	C	03/31/2018	10:43	-132.721	43.384	0	860.10	0	3.8120	0	34.4320	4	27.360	0	851.480	0	10.5	4	3.3	4	-1E+10	1	-1E+10	1	-1E+10	1	-1E+10	1	-1E+10	1	-1E+10	1
4901784	100	C	03/31/2018	10:43	-132.721	43.384	0	865.10	0	3.7970	0	34.4320	4	27.362	0	856.420	0	10.5	4	3.3	4	-1E+10	1	-1E+10	1	-1E+10	1	-1E+10	1	-1E+10	1	-1E+10	1
4901784	100	C	03/31/2018	10:43	-132.721	43.384	0	870.10	0	3.7840	0	34.4320	4	27.363	0	861.359	0	10.6	4	3.3	4	-1E+10	1	-1E+10	1	-1E+10	1	-1E+10	1	-1E+10	1	-1E+10	1
4901784	100	C	03/31/2018	10:43	-132.721	43.384	0	875.20	0	3.7580	0	34.4330	4	27.366	0	866.397	0	10.6	4	3.3	4	-1E+10	1	-1E+10	1	-1E+10	1	-1E+10	1	-1E+10	1	-1E+10	1
4901784	100	C	03/31/2018	10:43	-132.721	43.384	0	880.40	0	3.7250	0	34.4360	4	27.372	0	871.534	0	10.7	4	3.4	4	-1E+10	1	-1E+10	1	-1E+10	1	-1E+10	1	-1E+10	1	-1E+10	1
4901784	100	C	03/31/2018	10:43	-132.721	43.384	0	885.50	0	3.6920	0	34.4380	4	27.377	0	876.572	0	10.8	4	3.4	4	-1E+10	1	-1E+10	1	-1E+10	1	-1E+10	1	-1E+10	1	-1E+10	1
4901784	100	C	03/31/2018	10:43	-132.721	43.384	0	889.90	0	3.6730	0	34.4400	4	27.380	0	880.919	0	10.8	4	3.4	4	-1E+10	1	-1E+10	1	-1E+10	1	-1E+10	1	-1E+10	1	-1E+10	1
4901784	100	C	03/31/2018	10:43	-132.721	43.384	0	894.30	0	3.6630	0	34.4400	4	27.381	0	885.265	0	10.8	4	3.4	4	-1E+10	1	-1E+10	1	-1E+10	1	-1E+10	1	-1E+10	1	-1E+10	1
4901784	100	C	03/31/2018	10:43	-132.721	43.384	0	899.70	0	3.6410	0	34.4420	4	27.385	0	890.599	0	10.9	4	3.4	4	-1E+10	1	-1E+10	1	-1E+10	1	-1E+10	1	-1E+10	1	-1E+10	1
4901784	100	C	03/31/2018	10:43	-132.721	43.384	0	905.00	0	3.6240	0	34.4420	4	27.387	0	895.834	0	11.0	4	3.4	4	-1E+10	1	-1E+10	1	-1E+10	1	-1E+10	1	-1E+10	1	-1E+10	1
4901784	100	C	03/31/2018	10:43	-132.721	43.384	0	910.40	0	3.5770	0	34.4470	4	27.395	0	901.168	0	11.1	4	3.5	4	-1E+10	1	-1E+10	1	-1E+10	1	-1E+10	1	-1E+10	1	-1E+10	1
4901784	100	C	03/31/2018	10:43	-132.721	43.384	0	914.90	0	3.5440	0	34.4520	4	27.403	0	905.612	0	11.2	4	3.5	4	-1E+10	1	-1E+10	1	-1E+10	1	-1E+10	1	-1E+10	1	-1E+10	1
4901784	100	C	03/31/2018	10:43	-132.721	43.384	0	919.40	0	3.5170	0	34.4550	4	27.408	0	910.057	0	11.4	4	3.6	4	-1E+10	1	-1E+10	1	-1E+10	1	-1E+10	1	-1E+10	1	-1E+10	1
4901784	100	C	03/31/2018	10:43	-132.721	43.384	0	924.80	0	3.4840	0	34.4620	4	27.416	0	915.390	0	11.5	4	3.6	4	-1E+10	1	-1E+10	1	-1E+10	1	-1E+10	1	-1E+10	1	-1E+10	1
4901784	100	C	03/31/2018	10:43	-132.721	43.384	0	930.40	0	3.4640	0	34.4670	4	27.422	0	920.921	0	11.6	4	3.6	4	-1E+10	1	-1E+10	1	-1E+10	1	-1E+10	1	-1E+10	1	-1E+10	1
4901784	100	C	03/31/2018	10:43	-132.721	43.384	0	934.90	0	3.4570	0	34.4680	4	27.424	0	925.365	0	11.7	4	3.6	4	-1E+10	1	-1E+10	1	-1E+10	1	-1E+10	1	-1E+10	1	-1E+10	1
4901784	100	C	03/31/2018	10:43	-132.721	43.384	0	939.50	0	3.4530	0	34.4690	4	27.425	0	929.908	0	11.7	4	3.7	4	-1E+10	1	-1E+10	1	-1E+10	1	-1E+10	1	-1E+10	1	-1E+10	1
4901784	100	C	03/31/2018	10:43	-132.721	43.384	0	944.90	0	3.4460	0	34.4700	4	27.427	0	935.241	0	11.8	4	3.7	4	-1E+10	1	-1E+10	1	-1E+10	1	-1E+10	1	-1E+10	1	-1E+10	1
4901784	100	C	03/31/2018	10:43	-132.721	43.384	0	950.30	0	3.4340	0	34.4740	4	27.431	0	940.573	0	11.9	4	3.7	4	-1E+10	1	-1E+10	1	-1E+10	1	-1E+10	1	-1E+10	1	-1E+10	1
4901784	100	C	03/31/2018	10:43	-132.721	43.384	0	955.60	0	3.4260	0	34.4760	4	27.433	0	945.807	0	11.9	4	3.7	4	-1E+10	1	-1E+10	1	-1E+10	1	-1E+10	1	-1E+10	1	-1E+10	1
4901784	100	C	03/31/2018	10:43	-132.721	43.384	0	960.10	0	3.4230	0	34.4770	4	27.434	0	950.251	0	12.0	4	3.7	4	-1E+10	1	-1E+10	1	-1E+10	1	-1E+10	1	-1E+10	1	-1E+10	1
4901784	100	C	03/31/2018	10:43	-132.721	43.384	0	964.60	0	3.4210	0	34.4770	4	27.435	0	954.694	0	12.0	4	3.8	4	-1E+10	1	-1E+10	1	-1E+10	1	-1E+10	1	-1E+10	1	-1E+10	1
4901784	100	C	03/31/2018	10:43	-132.721	43.384	0	969.80	0	3.4150	0	34.4790	4	27.437	0	959.829	0	12.2	4	3.8	4	-1E+10	1	-1E+10	1	-1E+10	1	-1E+10	1	-1E+10	1	-1E+10	1
4901784	100	C	03/31/2018	10:43	-132.721	43.384	0	975.20	0	3.4060	0	34.4810	4	27.439	0	965.161	0	12.3	4	3.8	4	-1E+10	1	-1E+10	1	-1E+10	1	-1E+10	1	-1E+10	1	-1E+10	1
4901784	100	C	03/31/2018	10:43	-132.721	43.384	0	980.70	0	3.3930	0	34.4860	4	27.445	0	970.592	0	12.4	4	3.9	4	-1E+10	1	-1E+10	1	-1E+10	1	-1E+10	1	-1E+10	1	-1E+10	1
4901784	100	C	03/31/2018	10:43	-132.721	43.384	0	985.20	0	3.3920	0	34.4860	4	27.445	0	975.035	0	12.4	4	3.9	4	-1E+10	1	-1E+10	1	-1E+10	1	-1E+10	1	-1E+10	1	-1E+10	1
4901784	100	C	03/31/2018	10:43	-132.721	43.384	0	989.80	0	3.3900	0	34.4860	4	27.445	0	979.577	0	12.6	4	3.9	4	-1E+10	1	-1E+10	1	-1E+10	1	-1E+10	1	-1E+10	1	-1E+10	1
4901784	100	C	03/31/2018	10:43	-132.721	43.384	0	995.20	0	3.3850	0	34.4880	4	27.447	0	984.908	0	12.8	4	4.0	4	-1E+10	1	-1E+10	1	-1E+10	1	-1E+10	1	-1E+10	1	-1E+10	1
4901784	100	C	03/31/2018	10:43	-132.721	43.384	0	1000.60	0	3.3710	0	34.4930	4	27.452	0	990.240	0	13.2	4	4.1	4	-1E+10	1	-1E+10	1	-1E+10	1	-1E+10	1	-1E+10	1	-1E+10	1
4901784	100	C	03/31/2018	10:43	-132.721	43.384	0	1005.20	0	3.3560	0	34.4990	4	27.459	0	994.781	0	13.4	4	4.2	4	-1E+10	1	-1E+10	1	-1E+10	1	-1E+10	1	-1E+10	1	-1E+10	1
4901784	100	C	03/31/2018	10:43	-132.721	43.384	0	1009.80	0	3.3470	0	34.5020	4	27.462	0	999.323	0	13.7	4	4.3	4	-1E+10	1	-1E+10	1	-1E+10	1	-1E+10	1	-1E+10	1	-1E+10	1
4901784	100	C	03/31/2018	10:43	-132.721	43.384	0	1015.20	0	3.3370	0	34.5060	4	27.466	0	1004.654	0	14.0	4	4.4	4	-1E+10	1	-1E+10	1	-1E+10	1	-1E+10	1	-1E+10	1	-1E+10	1
4901784	100	C	03/31/2018	10:43	-132.721	43.384	0	1019.90	0	3.3310	0	34.5090	4	27.469	0	1009.293	0	14.3	4	4.4	4	-1E+10	1	-1E+10	1	-1E+10	1	-1E+10	1	-1E+10	1	-1E+10	1
4901784	100	C	03/31/2018	10:43	-132.721	43.384	0	1024.50	0	3.3280	0	34.5110	4	27.471	0	1013.834	0	14.6	4	4.5	4	-1E+10	1	-1E+10	1	-1E+10	1	-1E+10	1	-1E+10	1	-1E+10	1
4901784	100	C	03/31/2018	10:43	-132.721	43.384	0	1029.90	0	3.3190	0	34.5160	4	27.476	0	1019.165	0	14.9	4	4.6	4	-1E+10	1	-1E+10	1	-1E+10	1	-1E+10	1	-1E+10	1	-1E+10	1
4901784	100	C	03/31/2018	10:43	-132.721	43.384	0	1035.50	0	3.3170	0	34.5180	4	27.478	0	1024.693	0	15.2	4	4.7	4	-1E+10	1	-1E+10	1	-1E+10	1	-1E+10	1	-1E+10	1	-1E+10	1
4901784	100	C	03/31/2018	10:43	-132.721	43.384	0	1040.00	0	3.3150	0	34.5200	4	27.480	0	1029.135	0	15.7	4	4.9	4	-1E+10	1	-1E+10	1	-1E+10	1	-1E+10	1	-1E+10	1	-1E+10	1
4901784	100	C	03/31/2018	10:43	-132.721	43.384	0	1044.60	0	3.3110	0	34.5260	4	27.485	0	1033.676	0	16.1	4	5.0	4	-1E+10	1	-1E+10	1	-1E+10	1	-1E+10	1	-1E+10	1	-1E+10	1
4901784	100	C	03/31/2018	10:43	-132.721	43.384	0	1050.00	0	3.3090	0	34.5290	4	27.487	0	1039.006	0	16.4	4	5.1	4	-1E+10	1	-1E+10	1	-1E+10	1	-1E+10	1	-1E+10	1	-1E+10	1
4901784	100	C	03/31/2018	10:43	-132.721	43.384	0	1055.50	0	3.3080	0	34.5320	4	27.490	0	1044.435	0	16.7	4	5.2	4	-1E+10	1	-1E+10	1	-1E+10	1	-1E+10	1	-1E+10	1	-1E+10	1
4901784	100	C	03/31/2018	10:43	-132.721	43.384	0	1060.20	0	3.3080	0	34.5330	4	27.491	0	1049.074	0	16.8	4	5.2	4	-1E+10	1	-1E+10	1	-1E+10	1	-1E+10	1	-1E+10	1	-1E+10	1
4901784	100	C	03/31/2018	10:43	-132.721	43.384	0	1064.90	0	3.3080	0	34.5330	4	27.491	0	1053.712	0	16.9	4	5.3	4	-1E+10	1	-1E+10	1	-1E+10	1	-1E+10	1	-1E+10	1	-1E+10	1
4901784	100	C	03/31/2018	10:43	-132.721	43.384	0	1070.50	0	3.3080	0	34.5340	4	27.492	0	1059.239	0	17.2	4	5.4	4	-1E+10	1	-1E+10	1	-1E+10	1	-1E+10	1	-1E+10	1	-1E+10	1
4901784	100	C	03/31/2018	10:43	-132.721	43.384	0	1075.10	0	3.3050	0	34.5380	4	27.495	0	1063.779	0	17.6	4	5.5	4	-1E+10	1	-1E+10	1	-1E+10	1	-1E+10	1	-1E+10	1	-1E+10	1
4901784	100	C	03/31/2018	10:43	-132.721	43.384	0	1079.70	0	3.3040	0	34.5400	4	27.497	0	1068.319	0	17.8	4	5.5	4	-1E+10	1	-1E+10	1	-1E+10	1	-1E+10	1	-1E+10	1	-1E+10	1
4901784	100	C	03/31/2018	10:43	-132.721	43.384	0	1085.00	0	3.3040	0	34.5420	4	27.498	0	1073.550	0	17.9	4	5.6	4	-1E+10	1	-1E+10	1	-1E+10	1	-1E+10	1	-1E+10	1	-1E+10	1
4901784	100	C	03/31/2018	10:43	-132.721	43.384	0	1090.00	0	3.3040	0	34.5430	4	27.499	0	1078.484	0	18.1	4	5.6	4	-1E+10	1	-1E+10	1	-1E+10	1	-1E+10	1	-1E+10	1	-1E+10	1
4901784	100	C	03/31/2018	10:43	-132.721	43.384	0	1095.50	0	3.3040	0	34.5450	4	27.501	0	1083.912	0	18.4	4	5.7	4	-1E+10	1	-1E+10	1	-1E+10	1	-1E+10	1	-1E+10	1	-1E+10	1
4901784	100	C	03/31/2018	10:43	-132.721	43.384	0	1100.40	0	3.3040	0	34.5460	4	27.502	0	1088.747	0	18.6	4	5.8	4	-1E+10	1	-1E+10	1	-1E+10	1	-1E+10	1	-1E+10	1	-1E+10	1
4901784	100	C	03/31/2018	10:43	-132.721	43.384	0	1105.20	0	3.3040	0	34.5470	4	27.503	0	1093.484	0	18.8	4	5.9	4	-1E+10	1	-1E+10	1	-1E+10	1	-1E+10	1	-1E+10	1	-1E+10	1
4901784	100	C	03/31/2018	10:43	-132.721	43.384	0	1110.10	0	3.3030	0	34.5500	4	27.505	0	1098.319	0	19.1	4	5.9	4	-1E+10	1	-1E+10	1	-1E+10	1	-1E+10	1	-1E+10	1	-1E+10	1
4901784	100	C	03/31/2018	10:43	-132.721	43.384	0	1115.00	0	3.3020	0	34.5510	4	27.506	0	1103.154	0	19.3	4	6.0	4	-1E+10	1	-1E+10	1	-1E+10	1	-1E+10	1	-1E+10	1	-1E+10	1
4901784	100	C	03/31/2018	10:43	-132.721	43.384	0	1120.20	0	3.3020	0	34.5530	4	27.508	0	1108.285	0	19.4	4	6.0	4	-1E+10	1	-1E+10	1	-1E+10	1	-1E+10	1	-1E+10	1	-1E+10	1
4901784	100	C	03/31/2018	10:43	-132.721	43.384	0	1125.60	0	3.3020	0	34.5530	4	27.508	0	1113.614	0	19.5	4	6.1	4	-1E+10	1	-1E+10	1	-1E+10	1	-1E+10	1	-1E+10	1	-1E+10	1
4901784	100	C	03/31/2018	10:43	-132.721	43.384	0	1130.20	0	3.3010	0	34.5540	4	27.509	0	1118.153	0	19.7	4	6.1	4	-1E+10	1	-1E+10	1	-1E+10	1	-1E+10	1	-1E+10	1	-1E+10	1
4901784	100	C	03/31/2018	10:43	-132.721	43.384	0	1134.60	0	3.3000	0	34.5550	4	27.510	0	1122.494	0	20.0	4	6.2	4	-1E+10	1	-1E+10	1	-1E+10	1	-1E+10	1	-1E+10	1	-1E+10	1
4901784	100	C	03/31/2018	10:43	-132.721	43.384	0	1140.10	0	3.2980	0	34.5580	4	27.512	0	1127.920	0	20.3	4	6.3	4	-1E+10	1	-1E+10	1	-1E+10	1	-1E+10	1	-1E+10	1	-1E+10	1
4901784	100	C	03/31/2018	10:43	-132.721	43.384	0	1145.60	0	3.2960	0	34.5610	4	27.515	0	1133.347	0	20.6	4	6.4	4	-1E+10	1	-1E+10	1	-1E+10	1	-1E+10	1	-1E+10	1	-1E+10	1
4901784	100	C	03/31/2018	10:43	-132.721	43.384	0	1150.00	0	3.2960	0	34.5620	4	27.516	0	1137.688	0	20.7	4	6.4	4	-1E+10	1	-1E+10	1	-1E+10	1	-1E+10	1	-1E+10	1	-1E+10	1
4901784	100	C	03/31/2018	10:43	-132.721	43.384	0	1154.60	0	3.2950	0	34.5620	4	27.516	0	1142.226	0	20.7	4	6.4	4	-1E+10	1	-1E+10	1	-1E+10	1	-1E+10	1	-1E+10	1	-1E+10	1
4901784	100	C	03/31/2018	10:43	-132.721	43.384	0	1159.50	0	3.2950	0	34.5630	4	27.517	0	1147.060	0	20.8	4	6.5	4	-1E+10	1	-1E+10	1	-1E+10	1	-1E+10	1	-1E+10	1	-1E+10	1
4901784	100	C	03/31/2018	10:43	-132.721	43.384	0	1164.50	0	3.2940	0	34.5630	4	27.517	0	1151.993	0	20.9	4	6.5	4	-1E+10	1	-1E+10	1	-1E+10	1	-1E+10	1	-1E+10	1	-1E+10	1
4901784	100	C	03/31/2018	10:43	-132.721	43.384	0	1170.00	0	3.2930	0	34.5640	4	27.518	0	1157.419	0	21.1	4	6.6	4	-1E+10	1	-1E+10	1	-1E+10	1	-1E+10	1	-1E+10	1	-1E+10	1
4901784	100	C	03/31/2018	10:43	-132.721	43.384	0	1175.70	0	3.2870	0	34.5670	4	27.521	0	1163.042	0	21.6	4	6.7	4	-1E+10	1	-1E+10	1	-1E+10	1	-1E+10	1	-1E+10	1	-1E+10	1
4901784	100	C	03/31/2018	10:43	-132.721	43.384	0	1180.60	0	3.2860	0	34.5700	4	27.523	0	1167.875	0	21.8	4	6.8	4	-1E+10	1	-1E+10	1	-1E+10	1	-1E+10	1	-1E+10	1	-1E+10	1
4901784	100	C	03/31/2018	10:43	-132.721	43.384	0	1185.50	0	3.2850	0	34.5710	4	27.524	0	1172.709	0	22.0	4	6.8	4	-1E+10	1	-1E+10	1	-1E+10	1	-1E+10	1	-1E+10	1	-1E+10	1
4901784	100	C	03/31/2018	10:43	-132.721	43.384	0	1190.50	0	3.2840	0	34.5720	4	27.525	0	1177.641	0	22.2	4	6.9	4	-1E+10	1	-1E+10	1	-1E+10	1	-1E+10	1	-1E+10	1	-1E+10	1
4901784	100	C	03/31/2018	10:43	-132.721	43.384	0	1195.30	0	3.2820	0	34.5730	4	27.526	0	1182.376	0	22.4	4	7.0	4	-1E+10	1	-1E+10	1	-1E+10	1	-1E+10	1	-1E+10	1	-1E+10	1
4901784	100	C	03/31/2018	10:43	-132.721	43.384	0	1200.30	0	3.2810	0	34.5750	4	27.528	0	1187.307	0	22.5	4	7.0	4	-1E+10	1	-1E+10	1	-1E+10	1	-1E+10	1	-1E+10	1	-1E+10	1
4901784	100	C	03/31/2018	10:43	-132.721	43.384	0	1205.30	0	3.2800	0	34.5750	4	27.528	0	1192.239	0	22.6	4	7.0	4	-1E+10	1	-1E+10	1	-1E+10	1	-1E+10	1	-1E+10	1	-1E+10	1
4901784	100	C	03/31/2018	10:43	-132.721	43.384	0	1210.40	0	3.2790	0	34.5760	4	27.529	0	1197.269	0	22.7	4	7.1	4	-1E+10	1	-1E+10	1	-1E+10	1	-1E+10	1	-1E+10	1	-1E+10	1
4901784	100	C	03/31/2018	10:43	-132.721	43.384	0	1215.60	0	3.2780	0	34.5760	4	27.529	0	1202.398	0	22.9	4	7.1	4	-1E+10	1	-1E+10	1	-1E+10	1	-1E+10	1	-1E+10	1	-1E+10	1
4901784	100	C	03/31/2018	10:43	-132.721	43.384	0	1220.10	0	3.2770	0	34.5770	4	27.530	0	1206.836	0	23.1	4	7.2	4	-1E+10	1	-1E+10	1	-1E+10	1	-1E+10	1	-1E+10	1	-1E+10	1
4901784	100	C	03/31/2018	10:43	-132.721	43.384	0	1224.50	0	3.2720	0	34.5800	4	27.533	0	1211.176	0	23.4	4	7.3	4	-1E+10	1	-1E+10	1	-1E+10	1	-1E+10	1	-1E+10	1	-1E+10	1
4901784	100	C	03/31/2018	10:43	-132.721	43.384	0	1229.80	0	3.2660	0	34.5820	4	27.535	0	1216.403	0	23.6	4	7.3	4	-1E+10	1	-1E+10	1	-1E+10	1	-1E+10	1	-1E+10	1	-1E+10	1
4901784	100	C	03/31/2018	10:43	-132.721	43.384	0	1235.10	0	3.2640	0	34.5820	4	27.535	0	1221.630	0	23.8	4	7.4	4	-1E+10	1	-1E+10	1	-1E+10	1	-1E+10	1	-1E+10	1	-1E+10	1
4901784	100	C	03/31/2018	10:43	-132.721	43.384	0	1240.60	0	3.2590	0	34.5840	4	27.537	0	1227.054	0	24.2	4	7.5	4	-1E+10	1	-1E+10	1	-1E+10	1	-1E+10	1	-1E+10	1	-1E+10	1
4901784	100	C	03/31/2018	10:43	-132.721	43.384	0	1245.10	0	3.2450	0	34.5870	4	27.541	0	1231.491	0	24.5	4	7.6	4	-1E+10	1	-1E+10	1	-1E+10	1	-1E+10	1	-1E+10	1	-1E+10	1
4901784	100	C	03/31/2018	10:43	-132.721	43.384	0	1249.30	0	3.2400	0	34.5870	4	27.542	0	1235.633	0	24.7	4	7.7	4	-1E+10	1	-1E+10	1	-1E+10	1	-1E+10	1	-1E+10	1	-1E+10	1
4901784	100	C	03/31/2018	10:43	-132.721	43.384	0	1254.40	0	3.2200	0	34.5900	4	27.546	0	1240.662	0	24.9	4	7.8	4	-1E+10	1	-1E+10	1	-1E+10	1	-1E+10	1	-1E+10	1	-1E+10	1
4901784	100	C	03/31/2018	10:43	-132.721	43.384	0	1259.40	0	3.1980	0	34.5930	4	27.550	0	1245.593	0	25.2	4	7.8	4	-1E+10	1	-1E+10	1	-1E+10	1	-1E+10	1	-1E+10	1	-1E+10	1
4901784	100	C	03/31/2018	10:43	-132.721	43.384	0	1264.40	0	3.1850	0	34.5940	4	27.552	0	1250.523	0	25.3	4	7.9	4	-1E+10	1	-1E+10	1	-1E+10	1	-1E+10	1	-1E+10	1	-1E+10	1
4901784	100	C	03/31/2018	10:43	-132.721	43.384	0	1269.50	0	3.1740	0	34.5950	4	27.554	0	1255.552	0	25.4	4	7.9	4	-1E+10	1	-1E+10	1	-1E+10	1	-1E+10	1	-1E+10	1	-1E+10	1
4901784	100	C	03/31/2018	10:43	-132.721	43.384	0	1274.70	0	3.1640	0	34.5960	4	27.556	0	1260.679	0	25.5	4	7.9	4	-1E+10	1	-1E+10	1	-1E+10	1	-1E+10	1	-1E+10	1	-1E+10	1
4901784	100	C	03/31/2018	10:43	-132.721	43.384	0	1280.00	0	3.1510	0	34.5970	4	27.558	0	1265.905	0	25.5	4	7.9	4	-1E+10	1	-1E+10	1	-1E+10	1	-1E+10	1	-1E+10	1	-1E+10	1
4901784	100	C	03/31/2018	10:43	-132.721	43.384	0	1285.20	0	3.1390	0	34.5970	4	27.559	0	1271.032	0	25.6	4	7.9	4	-1E+10	1	-1E+10	1	-1E+10	1	-1E+10	1	-1E+10	1	-1E+10	1
4901784	100	C	03/31/2018	10:43	-132.721	43.384	0	1290.50	0	3.1340	0	34.5970	4	27.560	0	1276.258	0	25.6	4	7.9	4	-1E+10	1	-1E+10	1	-1E+10	1	-1E+10	1	-1E+10	1	-1E+10	1
4901784	100	C	03/31/2018	10:43	-132.721	43.384	0	1295.00	0	3.1310	0	34.5980	4	27.561	0	1280.694	0	25.6	4	7.9	4	-1E+10	1	-1E+10	1	-1E+10	1	-1E+10	1	-1E+10	1	-1E+10	1
4901784	100	C	03/31/2018	10:43	-132.721	43.384	0	1299.30	0	3.1210	0	34.5980	4	27.562	0	1284.934	0	25.6	4	7.9	4	-1E+10	1	-1E+10	1	-1E+10	1	-1E+10	1	-1E+10	1	-1E+10	1
4901784	100	C	03/31/2018	10:43	-132.721	43.384	0	1304.60	0	3.1170	0	34.5980	4	27.562	0	1290.159	0	25.6	4	7.9	4	-1E+10	1	-1E+10	1	-1E+10	1	-1E+10	1	-1E+10	1	-1E+10	1
4901784	100	C	03/31/2018	10:43	-132.721	43.384	0	1309.90	0	3.1160	0	34.5980	4	27.562	0	1295.384	0	25.6	4	7.9	4	-1E+10	1	-1E+10	1	-1E+10	1	-1E+10	1	-1E+10	1	-1E+10	1
4901784	100	C	03/31/2018	10:43	-132.721	43.384	0	1315.20	0	3.1140	0	34.5970	4	27.562	0	1300.609	0	25.6	4	8.0	4	-1E+10	1	-1E+10	1	-1E+10	1	-1E+10	1	-1E+10	1	-1E+10	1
4901784	100	C	03/31/2018	10:43	-132.721	43.384	0	1320.50	0	3.0830	0	34.5990	4	27.566	0	1305.834	0	25.7	4	8.0	4	-1E+10	1	-1E+10	1	-1E+10	1	-1E+10	1	-1E+10	1	-1E+10	1
4901784	100	C	03/31/2018	10:43	-132.721	43.384	0	1324.90	0	3.0710	0	34.5990	4	27.567	0	1310.171	0	25.7	4	8.0	4	-1E+10	1	-1E+10	1	-1E+10	1	-1E+10	1	-1E+10	1	-1E+10	1
4901784	100	C	03/31/2018	10:43	-132.721	43.384	0	1329.40	0	3.0660	0	34.5990	4	27.568	0	1314.607	0	25.7	4	8.0	4	-1E+10	1	-1E+10	1	-1E+10	1	-1E+10	1	-1E+10	1	-1E+10	1
4901784	100	C	03/31/2018	10:43	-132.721	43.384	0	1334.80	0	3.0570	0	34.6000	4	27.569	0	1319.930	0	25.7	4	7.9	4	-1E+10	1	-1E+10	1	-1E+10	1	-1E+10	1	-1E+10	1	-1E+10	1
4901784	100	C	03/31/2018	10:43	-132.721	43.384	0	1340.30	0	3.0450	0	34.5990	4	27.570	0	1325.351	0	25.7	4	7.9	4	-1E+10	1	-1E+10	1	-1E+10	1	-1E+10	1	-1E+10	1	-1E+10	1
4901784	100	C	03/31/2018	10:43	-132.721	43.384	0	1344.90	0	3.0250	0	34.6000	4	27.572	0	1329.886	0	25.6	4	7.9	4	-1E+10	1	-1E+10	1	-1E+10	1	-1E+10	1	-1E+10	1	-1E+10	1
4901784	100	C	03/31/2018	10:43	-132.721	43.384	0	1349.70	0	3.0160	0	34.6000	4	27.573	0	1334.617	0	25.6	4	7.9	4	-1E+10	1	-1E+10	1	-1E+10	1	-1E+10	1	-1E+10	1	-1E+10	1
4901784	100	C	03/31/2018	10:43	-132.721	43.384	0	1355.20	0	3.0040	0	34.5990	4	27.573	0	1340.038	0	25.6	4	7.9	4	-1E+10	1	-1E+10	1	-1E+10	1	-1E+10	1	-1E+10	1	-1E+10	1
4901784	100	C	03/31/2018	10:43	-132.721	43.384	0	1359.90	0	2.9880	0	34.6000	4	27.576	0	1344.670	0	25.6	4	7.9	4	-1E+10	1	-1E+10	1	-1E+10	1	-1E+10	1	-1E+10	1	-1E+10	1
4901784	100	C	03/31/2018	10:43	-132.721	43.384	0	1365.20	0	2.9850	0	34.6000	4	27.576	0	1349.894	0	25.5	4	7.9	4	-1E+10	1	-1E+10	1	-1E+10	1	-1E+10	1	-1E+10	1	-1E+10	1
4901784	100	C	03/31/2018	10:43	-132.721	43.384	0	1370.30	0	2.9660	0	34.6000	4	27.578	0	1354.921	0	25.5	4	7.9	4	-1E+10	1	-1E+10	1	-1E+10	1	-1E+10	1	-1E+10	1	-1E+10	1
4901784	100	C	03/31/2018	10:43	-132.721	43.384	0	1375.10	0	2.9450	0	34.6010	4	27.580	0	1359.651	0	25.5	4	7.9	4	-1E+10	1	-1E+10	1	-1E+10	1	-1E+10	1	-1E+10	1	-1E+10	1
4901784	100	C	03/31/2018	10:43	-132.721	43.384	0	1380.00	0	2.9420	0	34.6000	4	27.580	0	1364.480	0	25.5	4	7.9	4	-1E+10	1	-1E+10	1	-1E+10	1	-1E+10	1	-1E+10	1	-1E+10	1
4901784	100	C	03/31/2018	10:43	-132.721	43.384	0	1384.90	0	2.9400	0	34.6000	4	27.580	0	1369.309	0	25.5	4	7.9	4	-1E+10	1	-1E+10	1	-1E+10	1	-1E+10	1	-1E+10	1	-1E+10	1
4901784	100	C	03/31/2018	10:43	-132.721	43.384	0	1389.80	0	2.9220	0	34.6010	4	27.583	0	1374.138	0	25.5	4	7.9	4	-1E+10	1	-1E+10	1	-1E+10	1	-1E+10	1	-1E+10	1	-1E+10	1
4901784	100	C	03/31/2018	10:43	-132.721	43.384	0	1394.80	0	2.9110	0	34.6010	4	27.584	0	1379.066	0	25.5	4	7.9	4	-1E+10	1	-1E+10	1	-1E+10	1	-1E+10	1	-1E+10	1	-1E+10	1
4901784	100	C	03/31/2018	10:43	-132.721	43.384	0	1399.80	0	2.9100	0	34.6010	4	27.584	0	1383.993	0	25.5	4	7.9	4	-1E+10	1	-1E+10	1	-1E+10	1	-1E+10	1	-1E+10	1	-1E+10	1
4901784	100	C	03/31/2018	10:43	-132.721	43.384	0	1404.70	0	2.9110	0	34.6000	4	27.583	0	1388.821	0	25.5	4	7.9	4	-1E+10	1	-1E+10	1	-1E+10	1	-1E+10	1	-1E+10	1	-1E+10	1
4901784	100	C	03/31/2018	10:43	-132.721	43.384	0	1409.70	0	2.9020	0	34.6010	4	27.584	0	1393.748	0	25.5	4	7.9	4	-1E+10	1	-1E+10	1	-1E+10	1	-1E+10	1	-1E+10	1	-1E+10	1
4901784	100	C	03/31/2018	10:43	-132.721	43.384	0	1414.70	0	2.8930	0	34.6010	4	27.585	0	1398.675	0	25.4	4	7.8	4	-1E+10	1	-1E+10	1	-1E+10	1	-1E+10	1	-1E+10	1	-1E+10	1
4901784	100	C	03/31/2018	10:43	-132.721	43.384	0	1419.90	0	2.8860	0	34.6010	4	27.586	0	1403.799	0	25.4	4	7.8	4	-1E+10	1	-1E+10	1	-1E+10	1	-1E+10	1	-1E+10	1	-1E+10	1
4901784	100	C	03/31/2018	10:43	-132.721	43.384	0	1424.90	0	2.8800	0	34.6010	4	27.587	0	1408.726	0	25.4	4	7.8	4	-1E+10	1	-1E+10	1	-1E+10	1	-1E+10	1	-1E+10	1	-1E+10	1
4901784	100	C	03/31/2018	10:43	-132.721	43.384	0	1430.00	0	2.8720	0	34.6010	4	27.587	0	1413.751	0	25.4	4	7.8	4	-1E+10	1	-1E+10	1	-1E+10	1	-1E+10	1	-1E+10	1	-1E+10	1
4901784	100	C	03/31/2018	10:43	-132.721	43.384	0	1435.00	0	2.8700	0	34.6010	4	27.587	0	1418.677	0	25.4	4	7.8	4	-1E+10	1	-1E+10	1	-1E+10	1	-1E+10	1	-1E+10	1	-1E+10	1
4901784	100	C	03/31/2018	10:43	-132.721	43.384	0	1440.00	0	2.8660	0	34.6010	4	27.588	0	1423.603	0	25.4	4	7.8	4	-1E+10	1	-1E+10	1	-1E+10	1	-1E+10	1	-1E+10	1	-1E+10	1
4901784	100	C	03/31/2018	10:43	-132.721	43.384	0	1445.10	0	2.8570	0	34.6010	4	27.589	0	1428.628	0	25.4	4	7.8	4	-1E+10	1	-1E+10	1	-1E+10	1	-1E+10	1	-1E+10	1	-1E+10	1
4901784	100	C	03/31/2018	10:43	-132.721	43.384	0	1450.30	0	2.8510	0	34.6010	4	27.589	0	1433.751	0	25.4	4	7.8	4	-1E+10	1	-1E+10	1	-1E+10	1	-1E+10	1	-1E+10	1	-1E+10	1
4901784	100	C	03/31/2018	10:43	-132.721	43.384	0	1455.50	0	2.8440	0	34.6010	4	27.590	0	1438.874	0	25.4	4	7.8	4	-1E+10	1	-1E+10	1	-1E+10	1	-1E+10	1	-1E+10	1	-1E+10	1
4901784	100	C	03/31/2018	10:43	-132.721	43.384	0	1460.70	0	2.8240	0	34.6010	4	27.592	0	1443.997	0	25.4	4	7.8	4	-1E+10	1	-1E+10	1	-1E+10	1	-1E+10	1	-1E+10	1	-1E+10	1
4901784	100	C	03/31/2018	10:43	-132.721	43.384	0	1465.10	0	2.8210	0	34.6010	4	27.592	0	1448.331	0	25.3	4	7.8	4	-1E+10	1	-1E+10	1	-1E+10	1	-1E+10	1	-1E+10	1	-1E+10	1
4901784	100	C	03/31/2018	10:43	-132.721	43.384	0	1469.30	0	2.8160	0	34.6010	4	27.592	0	1452.469	0	25.3	4	7.8	4	-1E+10	1	-1E+10	1	-1E+10	1	-1E+10	1	-1E+10	1	-1E+10	1
4901784	100	C	03/31/2018	10:43	-132.721	43.384	0	1474.40	0	2.8090	0	34.6010	4	27.593	0	1457.493	0	25.3	4	7.8	4	-1E+10	1	-1E+10	1	-1E+10	1	-1E+10	1	-1E+10	1	-1E+10	1
4901784	100	C	03/31/2018	10:43	-132.721	43.384	0	1479.60	0	2.8060	0	34.6010	4	27.593	0	1462.615	0	25.3	4	7.8	4	-1E+10	1	-1E+10	1	-1E+10	1	-1E+10	1	-1E+10	1	-1E+10	1
4901784	100	C	03/31/2018	10:43	-132.721	43.384	0	1484.70	0	2.8030	0	34.6010	4	27.594	0	1467.639	0	25.4	4	7.8	4	-1E+10	1	-1E+10	1	-1E+10	1	-1E+10	1	-1E+10	1	-1E+10	1
4901784	100	C	03/31/2018	10:43	-132.721	43.384	0	1489.90	0	2.7870	0	34.6010	4	27.595	0	1472.761	0	25.4	4	7.8	4	-1E+10	1	-1E+10	1	-1E+10	1	-1E+10	1	-1E+10	1	-1E+10	1
4901784	100	C	03/31/2018	10:43	-132.721	43.384	0	1495.10	0	2.7690	0	34.6020	4	27.598	0	1477.883	0	25.4	4	7.8	4	-1E+10	1	-1E+10	1	-1E+10	1	-1E+10	1	-1E+10	1	-1E+10	1
4901784	100	C	03/31/2018	10:43	-132.721	43.384	0	1500.40	0	2.7560	0	34.6020	4	27.599	0	1483.104	0	25.4	4	7.8	4	-1E+10	1	-1E+10	1	-1E+10	1	-1E+10	1	-1E+10	1	-1E+10	1
4901784	100	C	03/31/2018	10:43	-132.721	43.384	0	1505.60	0	2.7440	0	34.6010	4	27.599	0	1488.225	0	25.4	4	7.8	4	-1E+10	1	-1E+10	1	-1E+10	1	-1E+10	1	-1E+10	1	-1E+10	1
4901784	100	C	03/31/2018	10:43	-132.721	43.384	0	1509.90	0	2.7210	0	34.6020	4	27.602	0	1492.460	0	25.5	4	7.8	4	-1E+10	1	-1E+10	1	-1E+10	1	-1E+10	1	-1E+10	1	-1E+10	1
4901784	100	C	03/31/2018	10:43	-132.721	43.384	0	1514.20	0	2.7090	0	34.6030	4	27.604	0	1496.696	0	25.6	4	7.9	4	-1E+10	1	-1E+10	1	-1E+10	1	-1E+10	1	-1E+10	1	-1E+10	1
4901784	100	C	03/31/2018	10:43	-132.721	43.384	0	1519.40	0	2.7030	0	34.6030	4	27.604	0	1501.817	0	25.7	4	7.9	4	-1E+10	1	-1E+10	1	-1E+10	1	-1E+10	1	-1E+10	1	-1E+10	1
4901784	100	C	03/31/2018	10:43	-132.721	43.384	0	1524.50	0	2.6940	0	34.6030	4	27.605	0	1506.840	0	25.7	4	7.9	4	-1E+10	1	-1E+10	1	-1E+10	1	-1E+10	1	-1E+10	1	-1E+10	1
4901784	100	C	03/31/2018	10:43	-132.721	43.384	0	1529.60	0	2.6770	0	34.6030	4	27.606	0	1511.863	0	25.8	4	7.9	4	-1E+10	1	-1E+10	1	-1E+10	1	-1E+10	1	-1E+10	1	-1E+10	1
4901784	100	C	03/31/2018	10:43	-132.721	43.384	0	1534.80	0	2.6440	0	34.6040	4	27.610	0	1516.984	0	26.1	4	8.0	4	-1E+10	1	-1E+10	1	-1E+10	1	-1E+10	1	-1E+10	1	-1E+10	1
4901784	100	C	03/31/2018	10:43	-132.721	43.384	0	1540.00	0	2.6220	0	34.6060	4	27.614	0	1522.105	0	26.3	4	8.1	4	-1E+10	1	-1E+10	1	-1E+10	1	-1E+10	1	-1E+10	1	-1E+10	1
4901784	100	C	03/31/2018	10:43	-132.721	43.384	0	1545.20	0	2.6110	0	34.6070	4	27.615	0	1527.225	0	26.5	4	8.1	4	-1E+10	1	-1E+10	1	-1E+10	1	-1E+10	1	-1E+10	1	-1E+10	1
4901784	100	C	03/31/2018	10:43	-132.721	43.384	0	1550.50	0	2.6040	0	34.6070	4	27.616	0	1532.444	0	26.7	4	8.2	4	-1E+10	1	-1E+10	1	-1E+10	1	-1E+10	1	-1E+10	1	-1E+10	1
4901784	100	C	03/31/2018	10:43	-132.721	43.384	0	1555.70	0	2.5970	0	34.6080	4	27.617	0	1537.565	0	26.8	4	8.2	4	-1E+10	1	-1E+10	1	-1E+10	1	-1E+10	1	-1E+10	1	-1E+10	1
4901784	100	C	03/31/2018	10:43	-132.721	43.384	0	1560.10	0	2.5950	0	34.6080	4	27.618	0	1541.898	0	26.9	4	8.2	4	-1E+10	1	-1E+10	1	-1E+10	1	-1E+10	1	-1E+10	1	-1E+10	1
4901784	100	C	03/31/2018	10:43	-132.721	43.384	0	1564.40	0	2.5900	0	34.6080	4	27.618	0	1546.132	0	27.2	4	8.3	4	-1E+10	1	-1E+10	1	-1E+10	1	-1E+10	1	-1E+10	1	-1E+10	1
4901784	100	C	03/31/2018	10:43	-132.721	43.384	0	1569.70	0	2.5750	0	34.6100	4	27.621	0	1551.350	0	27.5	4	8.4	4	-1E+10	1	-1E+10	1	-1E+10	1	-1E+10	1	-1E+10	1	-1E+10	1
4901784	100	C	03/31/2018	10:43	-132.721	43.384	0	1575.00	0	2.5630	0	34.6110	4	27.623	0	1556.569	0	27.7	4	8.5	4	-1E+10	1	-1E+10	1	-1E+10	1	-1E+10	1	-1E+10	1	-1E+10	1
4901784	100	C	03/31/2018	10:43	-132.721	43.384	0	1580.20	0	2.5570	0	34.6110	4	27.623	0	1561.689	0	28.0	4	8.6	4	-1E+10	1	-1E+10	1	-1E+10	1	-1E+10	1	-1E+10	1	-1E+10	1
4901784	100	C	03/31/2018	10:43	-132.721	43.384	0	1585.30	0	2.5420	0	34.6120	4	27.625	0	1566.711	0	28.5	4	8.7	4	-1E+10	1	-1E+10	1	-1E+10	1	-1E+10	1	-1E+10	1	-1E+10	1
4901784	100	C	03/31/2018	10:43	-132.721	43.384	0	1590.50	0	2.5140	0	34.6140	4	27.629	0	1571.830	0	29.3	4	9.0	4	-1E+10	1	-1E+10	1	-1E+10	1	-1E+10	1	-1E+10	1	-1E+10	1
4901784	100	C	03/31/2018	10:43	-132.721	43.384	0	1595.70	0	2.4860	0	34.6170	4	27.634	0	1576.950	0	30.0	4	9.2	4	-1E+10	1	-1E+10	1	-1E+10	1	-1E+10	1	-1E+10	1	-1E+10	1
4901784	100	C	03/31/2018	10:43	-132.721	43.384	0	1600.00	0	2.4530	0	34.6210	4	27.640	0	1581.183	0	30.6	4	9.3	4	-1E+10	1	-1E+10	1	-1E+10	1	-1E+10	1	-1E+10	1	-1E+10	1
4901784	100	C	03/31/2018	10:43	-132.721	43.384	0	1604.40	0	2.4470	0	34.6210	4	27.641	0	1585.515	0	30.8	4	9.4	4	-1E+10	1	-1E+10	1	-1E+10	1	-1E+10	1	-1E+10	1	-1E+10	1
4901784	100	C	03/31/2018	10:43	-132.721	43.384	0	1609.80	0	2.4450	0	34.6210	4	27.641	0	1590.831	0	31.4	4	9.6	4	-1E+10	1	-1E+10	1	-1E+10	1	-1E+10	1	-1E+10	1	-1E+10	1
4901784	100	C	03/31/2018	10:43	-132.721	43.384	0	1615.10	0	2.4150	0	34.6250	4	27.647	0	1596.049	0	32.3	4	9.8	4	-1E+10	1	-1E+10	1	-1E+10	1	-1E+10	1	-1E+10	1	-1E+10	1
4901784	100	C	03/31/2018	10:43	-132.721	43.384	0	1620.30	0	2.3990	0	34.6270	4	27.650	0	1601.168	0	33.0	4	10.0	4	-1E+10	1	-1E+10	1	-1E+10	1	-1E+10	1	-1E+10	1	-1E+10	1
4901784	100	C	03/31/2018	10:43	-132.721	43.384	0	1624.80	0	2.3870	0	34.6290	4	27.652	0	1605.598	0	33.6	4	10.2	4	-1E+10	1	-1E+10	1	-1E+10	1	-1E+10	1	-1E+10	1	-1E+10	1
4901784	100	C	03/31/2018	10:43	-132.721	43.384	0	1629.30	0	2.3680	0	34.6320	4	27.656	0	1610.027	0	34.1	4	10.4	4	-1E+10	1	-1E+10	1	-1E+10	1	-1E+10	1	-1E+10	1	-1E+10	1
4901784	100	C	03/31/2018	10:43	-132.721	43.384	0	1634.70	0	2.3570	0	34.6330	4	27.658	0	1615.343	0	34.5	4	10.5	4	-1E+10	1	-1E+10	1	-1E+10	1	-1E+10	1	-1E+10	1	-1E+10	1
4901784	100	C	03/31/2018	10:43	-132.721	43.384	0	1640.20	0	2.3510	0	34.6340	4	27.659	0	1620.757	0	34.9	4	10.6	4	-1E+10	1	-1E+10	1	-1E+10	1	-1E+10	1	-1E+10	1	-1E+10	1
4901784	100	C	03/31/2018	10:43	-132.721	43.384	0	1645.60	0	2.3430	0	34.6350	4	27.661	0	1626.072	0	35.2	4	10.7	4	-1E+10	1	-1E+10	1	-1E+10	1	-1E+10	1	-1E+10	1	-1E+10	1
4901784	100	C	03/31/2018	10:43	-132.721	43.384	0	1650.20	0	2.3370	0	34.6360	4	27.662	0	1630.600	0	35.7	4	10.9	4	-1E+10	1	-1E+10	1	-1E+10	1	-1E+10	1	-1E+10	1	-1E+10	1
4901784	100	C	03/31/2018	10:43	-132.721	43.384	0	1654.70	0	2.3260	0	34.6380	4	27.665	0	1635.029	0	36.2	4	11.0	4	-1E+10	1	-1E+10	1	-1E+10	1	-1E+10	1	-1E+10	1	-1E+10	1
4901784	100	C	03/31/2018	10:43	-132.721	43.384	0	1660.20	0	2.3140	0	34.6390	4	27.666	0	1640.442	0	36.8	4	11.2	4	-1E+10	1	-1E+10	1	-1E+10	1	-1E+10	1	-1E+10	1	-1E+10	1
4901784	100	C	03/31/2018	10:43	-132.721	43.384	0	1664.70	0	2.3080	0	34.6400	4	27.668	0	1644.871	0	37.2	4	11.3	4	-1E+10	1	-1E+10	1	-1E+10	1	-1E+10	1	-1E+10	1	-1E+10	1
4901784	100	C	03/31/2018	10:43	-132.721	43.384	0	1669.10	0	2.2930	0	34.6420	4	27.670	0	1649.202	0	37.6	4	11.4	4	-1E+10	1	-1E+10	1	-1E+10	1	-1E+10	1	-1E+10	1	-1E+10	1
4901784	100	C	03/31/2018	10:43	-132.721	43.384	0	1674.50	0	2.2750	0	34.6430	4	27.673	0	1654.516	0	38.2	4	11.6	4	-1E+10	1	-1E+10	1	-1E+10	1	-1E+10	1	-1E+10	1	-1E+10	1
4901784	100	C	03/31/2018	10:43	-132.721	43.384	0	1679.30	0	2.2670	0	34.6440	4	27.674	0	1659.240	0	38.5	4	11.7	4	-1E+10	1	-1E+10	1	-1E+10	1	-1E+10	1	-1E+10	1	-1E+10	1
4901784	100	C	03/31/2018	10:43	-132.721	43.384	0	1684.20	0	2.2620	0	34.6450	4	27.675	0	1664.062	0	38.7	4	11.8	4	-1E+10	1	-1E+10	1	-1E+10	1	-1E+10	1	-1E+10	1	-1E+10	1
4901784	100	C	03/31/2018	10:43	-132.721	43.384	0	1689.20	0	2.2560	0	34.6450	4	27.676	0	1668.983	0	39.2	4	11.9	4	-1E+10	1	-1E+10	1	-1E+10	1	-1E+10	1	-1E+10	1	-1E+10	1
4901784	100	C	03/31/2018	10:43	-132.721	43.384	0	1694.20	0	2.2460	0	34.6470	4	27.678	0	1673.903	0	39.8	4	12.1	4	-1E+10	1	-1E+10	1	-1E+10	1	-1E+10	1	-1E+10	1	-1E+10	1
4901784	100	C	03/31/2018	10:43	-132.721	43.384	0	1699.20	0	2.2360	0	34.6480	4	27.680	0	1678.824	0	40.5	4	12.3	4	-1E+10	1	-1E+10	1	-1E+10	1	-1E+10	1	-1E+10	1	-1E+10	1
4901784	100	C	03/31/2018	10:43	-132.721	43.384	0	1704.20	0	2.2210	0	34.6500	4	27.683	0	1683.744	0	41.2	4	12.5	4	-1E+10	1	-1E+10	1	-1E+10	1	-1E+10	1	-1E+10	1	-1E+10	1
4901784	100	C	03/31/2018	10:43	-132.721	43.384	0	1709.30	0	2.2110	0	34.6520	4	27.685	0	1688.762	0	41.8	4	12.7	4	-1E+10	1	-1E+10	1	-1E+10	1	-1E+10	1	-1E+10	1	-1E+10	1
4901784	100	C	03/31/2018	10:43	-132.721	43.384	0	1714.50	0	2.2020	0	34.6540	4	27.688	0	1693.879	0	42.2	4	12.8	4	-1E+10	1	-1E+10	1	-1E+10	1	-1E+10	1	-1E+10	1	-1E+10	1
4901784	100	C	03/31/2018	10:43	-132.721	43.384	0	1719.70	0	2.1960	0	34.6540	4	27.688	0	1698.996	0	42.7	4	12.9	4	-1E+10	1	-1E+10	1	-1E+10	1	-1E+10	1	-1E+10	1	-1E+10	1
4901784	100	C	03/31/2018	10:43	-132.721	43.384	0	1724.90	0	2.1850	0	34.6560	4	27.691	0	1704.112	0	43.1	4	13.1	4	-1E+10	1	-1E+10	1	-1E+10	1	-1E+10	1	-1E+10	1	-1E+10	1
4901784	100	C	03/31/2018	10:43	-132.721	43.384	0	1730.00	0	2.1790	0	34.6570	4	27.692	0	1709.130	0	43.4	4	13.2	4	-1E+10	1	-1E+10	1	-1E+10	1	-1E+10	1	-1E+10	1	-1E+10	1
4901784	100	C	03/31/2018	10:43	-132.721	43.384	0	1735.30	0	2.1760	0	34.6580	4	27.693	0	1714.345	0	43.7	4	13.2	4	-1E+10	1	-1E+10	1	-1E+10	1	-1E+10	1	-1E+10	1	-1E+10	1
4901784	100	C	03/31/2018	10:43	-132.721	43.384	0	1740.50	0	2.1730	0	34.6580	4	27.693	0	1719.461	0	43.9	4	13.3	4	-1E+10	1	-1E+10	1	-1E+10	1	-1E+10	1	-1E+10	1	-1E+10	1
4901784	100	C	03/31/2018	10:43	-132.721	43.384	0	1744.90	0	2.1720	0	34.6590	4	27.694	0	1723.790	0	44.2	4	13.4	4	-1E+10	1	-1E+10	1	-1E+10	1	-1E+10	1	-1E+10	1	-1E+10	1
4901784	100	C	03/31/2018	10:43	-132.721	43.384	0	1749.40	0	2.1650	0	34.6590	4	27.695	0	1728.217	0	44.6	4	13.5	4	-1E+10	1	-1E+10	1	-1E+10	1	-1E+10	1	-1E+10	1	-1E+10	1
4901784	100	C	03/31/2018	10:43	-132.721	43.384	0	1754.60	0	2.1550	0	34.6610	4	27.697	0	1733.333	0	45.0	4	13.6	4	-1E+10	1	-1E+10	1	-1E+10	1	-1E+10	1	-1E+10	1	-1E+10	1
4901784	100	C	03/31/2018	10:43	-132.721	43.384	0	1759.80	0	2.1480	0	34.6620	4	27.699	0	1738.449	0	45.3	4	13.7	4	-1E+10	1	-1E+10	1	-1E+10	1	-1E+10	1	-1E+10	1	-1E+10	1
4901784	100	C	03/31/2018	10:43	-132.721	43.384	0	1765.20	0	2.1460	0	34.6620	4	27.699	0	1743.761	0	45.5	4	13.8	4	-1E+10	1	-1E+10	1	-1E+10	1	-1E+10	1	-1E+10	1	-1E+10	1
4901784	100	C	03/31/2018	10:43	-132.721	43.384	0	1770.50	0	2.1410	0	34.6620	4	27.699	0	1748.975	0	45.8	4	13.9	4	-1E+10	1	-1E+10	1	-1E+10	1	-1E+10	1	-1E+10	1	-1E+10	1
4901784	100	C	03/31/2018	10:43	-132.721	43.384	0	1774.90	0	2.1360	0	34.6630	4	27.700	0	1753.303	0	46.1	4	13.9	4	-1E+10	1	-1E+10	1	-1E+10	1	-1E+10	1	-1E+10	1	-1E+10	1
4901784	100	C	03/31/2018	10:43	-132.721	43.384	0	1779.40	0	2.1280	0	34.6640	4	27.702	0	1757.730	0	46.4	4	14.0	4	-1E+10	1	-1E+10	1	-1E+10	1	-1E+10	1	-1E+10	1	-1E+10	1
4901784	100	C	03/31/2018	10:43	-132.721	43.384	0	1784.90	0	2.1220	0	34.6650	4	27.703	0	1763.140	0	46.8	4	14.2	4	-1E+10	1	-1E+10	1	-1E+10	1	-1E+10	1	-1E+10	1	-1E+10	1
4901784	100	C	03/31/2018	10:43	-132.721	43.384	0	1790.30	0	2.1120	0	34.6660	4	27.705	0	1768.452	0	47.2	4	14.3	4	-1E+10	1	-1E+10	1	-1E+10	1	-1E+10	1	-1E+10	1	-1E+10	1
4901784	100	C	03/31/2018	10:43	-132.721	43.384	0	1794.90	0	2.1090	0	34.6660	4	27.705	0	1772.977	0	47.4	4	14.3	4	-1E+10	1	-1E+10	1	-1E+10	1	-1E+10	1	-1E+10	1	-1E+10	1
4901784	100	C	03/31/2018	10:43	-132.721	43.384	0	1799.40	0	2.1030	0	34.6670	4	27.706	0	1777.403	0	47.8	4	14.4	4	-1E+10	1	-1E+10	1	-1E+10	1	-1E+10	1	-1E+10	1	-1E+10	1
4901784	100	C	03/31/2018	10:43	-132.721	43.384	0	1804.90	0	2.0980	0	34.6680	4	27.708	0	1782.813	0	48.0	4	14.5	4	-1E+10	1	-1E+10	1	-1E+10	1	-1E+10	1	-1E+10	1	-1E+10	1
4901784	100	C	03/31/2018	10:43	-132.721	43.384	0	1810.40	0	2.0940	0	34.6690	4	27.709	0	1788.222	0	48.3	4	14.6	4	-1E+10	1	-1E+10	1	-1E+10	1	-1E+10	1	-1E+10	1	-1E+10	1
4901784	100	C	03/31/2018	10:43	-132.721	43.384	0	1815.10	0	2.0900	0	34.6690	4	27.709	0	1792.845	0	48.6	4	14.7	4	-1E+10	1	-1E+10	1	-1E+10	1	-1E+10	1	-1E+10	1	-1E+10	1
4901784	100	C	03/31/2018	10:43	-132.721	43.384	0	1819.70	0	2.0850	0	34.6700	4	27.710	0	1797.369	0	48.9	4	14.8	4	-1E+10	1	-1E+10	1	-1E+10	1	-1E+10	1	-1E+10	1	-1E+10	1
4901784	100	C	03/31/2018	10:43	-132.721	43.384	0	1824.80	0	2.0790	0	34.6710	4	27.712	0	1802.385	0	49.1	4	14.9	4	-1E+10	1	-1E+10	1	-1E+10	1	-1E+10	1	-1E+10	1	-1E+10	1
4901784	100	C	03/31/2018	10:43	-132.721	43.384	0	1830.00	0	2.0770	0	34.6710	4	27.712	0	1807.499	0	49.3	4	14.9	4	-1E+10	1	-1E+10	1	-1E+10	1	-1E+10	1	-1E+10	1	-1E+10	1
4901784	100	C	03/31/2018	10:43	-132.721	43.384	0	1835.70	0	2.0760	0	34.6710	4	27.712	0	1813.104	0	49.5	4	15.0	4	-1E+10	1	-1E+10	1	-1E+10	1	-1E+10	1	-1E+10	1	-1E+10	1
4901784	100	C	03/31/2018	10:43	-132.721	43.384	0	1840.50	0	2.0720	0	34.6720	4	27.713	0	1817.825	0	49.9	4	15.1	4	-1E+10	1	-1E+10	1	-1E+10	1	-1E+10	1	-1E+10	1	-1E+10	1
4901784	100	C	03/31/2018	10:43	-132.721	43.384	0	1845.40	0	2.0600	0	34.6730	4	27.715	0	1822.643	0	50.3	4	15.2	4	-1E+10	1	-1E+10	1	-1E+10	1	-1E+10	1	-1E+10	1	-1E+10	1
4901784	100	C	03/31/2018	10:43	-132.721	43.384	0	1850.40	0	2.0560	0	34.6740	4	27.716	0	1827.560	0	50.5	4	15.3	4	-1E+10	1	-1E+10	1	-1E+10	1	-1E+10	1	-1E+10	1	-1E+10	1
4901784	100	C	03/31/2018	10:43	-132.721	43.384	0	1855.40	0	2.0520	0	34.6740	4	27.716	0	1832.477	0	51.0	4	15.4	4	-1E+10	1	-1E+10	1	-1E+10	1	-1E+10	1	-1E+10	1	-1E+10	1
4901784	100	C	03/31/2018	10:43	-132.721	43.384	0	1860.40	0	2.0410	0	34.6750	4	27.718	0	1837.394	0	51.5	4	15.6	4	-1E+10	1	-1E+10	1	-1E+10	1	-1E+10	1	-1E+10	1	-1E+10	1
4901784	100	C	03/31/2018	10:43	-132.721	43.384	0	1865.40	0	2.0340	0	34.6760	4	27.719	0	1842.310	0	52.1	4	15.7	4	-1E+10	1	-1E+10	1	-1E+10	1	-1E+10	1	-1E+10	1	-1E+10	1
4901784	100	C	03/31/2018	10:43	-132.721	43.384	0	1870.40	0	2.0250	0	34.6780	4	27.722	0	1847.226	0	52.5	4	15.9	4	-1E+10	1	-1E+10	1	-1E+10	1	-1E+10	1	-1E+10	1	-1E+10	1
4901784	100	C	03/31/2018	10:43	-132.721	43.384	0	1875.60	0	2.0200	0	34.6780	4	27.722	0	1852.339	0	52.9	4	16.0	4	-1E+10	1	-1E+10	1	-1E+10	1	-1E+10	1	-1E+10	1	-1E+10	1
4901784	100	C	03/31/2018	10:43	-132.721	43.384	0	1880.80	0	2.0130	0	34.6800	4	27.724	0	1857.452	0	53.2	4	16.1	4	-1E+10	1	-1E+10	1	-1E+10	1	-1E+10	1	-1E+10	1	-1E+10	1
4901784	100	C	03/31/2018	10:43	-132.721	43.384	0	1885.10	0	2.0110	0	34.6800	4	27.724	0	1861.680	0	53.3	4	16.1	4	-1E+10	1	-1E+10	1	-1E+10	1	-1E+10	1	-1E+10	1	-1E+10	1
4901784	100	C	03/31/2018	10:43	-132.721	43.384	0	1889.50	0	2.0100	0	34.6800	4	27.725	0	1866.006	0	53.5	4	16.1	4	-1E+10	1	-1E+10	1	-1E+10	1	-1E+10	1	-1E+10	1	-1E+10	1
4901784	100	C	03/31/2018	10:43	-132.721	43.384	0	1894.80	0	2.0080	0	34.6810	4	27.726	0	1871.217	0	53.6	4	16.2	4	-1E+10	1	-1E+10	1	-1E+10	1	-1E+10	1	-1E+10	1	-1E+10	1
4901784	100	C	03/31/2018	10:43	-132.721	43.384	0	1900.10	0	2.0060	0	34.6810	4	27.726	0	1876.428	0	53.9	4	16.3	4	-1E+10	1	-1E+10	1	-1E+10	1	-1E+10	1	-1E+10	1	-1E+10	1
4901784	100	C	03/31/2018	10:43	-132.721	43.384	0	1905.40	0	2.0030	0	34.6820	4	27.727	0	1881.638	0	54.2	4	16.3	4	-1E+10	1	-1E+10	1	-1E+10	1	-1E+10	1	-1E+10	1	-1E+10	1
4901784	100	C	03/31/2018	10:43	-132.721	43.384	0	1909.80	0	2.0000	0	34.6820	4	27.727	0	1885.964	0	54.4	4	16.4	4	-1E+10	1	-1E+10	1	-1E+10	1	-1E+10	1	-1E+10	1	-1E+10	1
4901784	100	C	03/31/2018	10:43	-132.721	43.384	0	1914.30	0	1.9970	0	34.6830	4	27.728	0	1890.388	0	54.8	4	16.5	4	-1E+10	1	-1E+10	1	-1E+10	1	-1E+10	1	-1E+10	1	-1E+10	1
4901784	100	C	03/31/2018	10:43	-132.721	43.384	0	1919.70	0	1.9880	0	34.6840	4	27.730	0	1895.696	0	55.2	4	16.7	4	-1E+10	1	-1E+10	1	-1E+10	1	-1E+10	1	-1E+10	1	-1E+10	1
4901784	100	C	03/31/2018	10:43	-132.721	43.384	0	1925.00	0	1.9830	0	34.6850	4	27.731	0	1900.906	0	55.5	4	16.7	4	-1E+10	1	-1E+10	1	-1E+10	1	-1E+10	1	-1E+10	1	-1E+10	1
4901784	100	C	03/31/2018	10:43	-132.721	43.384	0	1930.40	0	1.9800	0	34.6850	4	27.731	0	1906.215	0	55.8	4	16.8	4	-1E+10	1	-1E+10	1	-1E+10	1	-1E+10	1	-1E+10	1	-1E+10	1
4901784	100	C	03/31/2018	10:43	-132.721	43.384	0	1934.90	0	1.9770	0	34.6860	4	27.732	0	1910.638	0	55.9	4	16.9	4	-1E+10	1	-1E+10	1	-1E+10	1	-1E+10	1	-1E+10	1	-1E+10	1
4901784	100	C	03/31/2018	10:43	-132.721	43.384	0	1939.70	0	1.9750	0	34.6860	4	27.732	0	1915.356	0	56.1	4	16.9	4	-1E+10	1	-1E+10	1	-1E+10	1	-1E+10	1	-1E+10	1	-1E+10	1
4901784	100	C	03/31/2018	10:43	-132.721	43.384	0	1944.80	0	1.9720	0	34.6860	4	27.733	0	1920.369	0	56.4	4	17.0	4	-1E+10	1	-1E+10	1	-1E+10	1	-1E+10	1	-1E+10	1	-1E+10	1
4901784	100	C	03/31/2018	10:43	-132.721	43.384	0	1949.70	0	1.9690	0	34.6870	4	27.734	0	1925.185	0	56.7	4	17.1	4	-1E+10	1	-1E+10	1	-1E+10	1	-1E+10	1	-1E+10	1	-1E+10	1
4901784	100	C	03/31/2018	10:43	-132.721	43.384	0	1954.50	0	1.9650	0	34.6870	4	27.734	0	1929.903	0	57.0	4	17.2	4	-1E+10	1	-1E+10	1	-1E+10	1	-1E+10	1	-1E+10	1	-1E+10	1
4901784	100	C	03/31/2018	10:43	-132.721	43.384	0	1959.40	0	1.9610	0	34.6880	4	27.735	0	1934.719	0	57.4	4	17.3	4	-1E+10	1	-1E+10	1	-1E+10	1	-1E+10	1	-1E+10	1	-1E+10	1
4901784	100	C	03/31/2018	10:43	-132.721	43.384	0	1965.00	0	1.9540	0	34.6890	4	27.737	0	1940.223	0	57.8	4	17.4	4	-1E+10	1	-1E+10	1	-1E+10	1	-1E+10	1	-1E+10	1	-1E+10	1
4901784	100	C	03/31/2018	10:43	-132.721	43.384	0	1970.70	0	1.9520	0	34.6900	4	27.738	0	1945.826	0	57.9	4	17.5	4	-1E+10	1	-1E+10	1	-1E+10	1	-1E+10	1	-1E+10	1	-1E+10	1
4901784	100	C	03/31/2018	10:43	-132.721	43.384	0	1975.60	0	1.9510	0	34.6900	4	27.738	0	1950.641	0	58.0	4	17.5	4	-1E+10	1	-1E+10	1	-1E+10	1	-1E+10	1	-1E+10	1	-1E+10	1
4901784	100	C	03/31/2018	10:43	-132.721	43.384	0	1980.60	0	1.9500	0	34.6900	4	27.738	0	1955.555	0	58.3	4	17.6	4	-1E+10	1	-1E+10	1	-1E+10	1	-1E+10	1	-1E+10	1	-1E+10	1
4901784	100	C	03/31/2018	10:43	-132.721	43.384	0	1985.60	0	1.9470	0	34.6910	4	27.739	0	1960.469	0	58.6	4	17.6	4	-1E+10	1	-1E+10	1	-1E+10	1	-1E+10	1	-1E+10	1	-1E+10	1
4901784	100	C	03/31/2018	10:43	-132.721	43.384	0	1990.50	0	1.9450	0	34.6910	4	27.739	0	1965.284	0	58.8	4	17.7	4	-1E+10	1	-1E+10	1	-1E+10	1	-1E+10	1	-1E+10	1	-1E+10	1
4901784	100	C	03/31/2018	10:43	-132.721	43.384	0	1995.50	0	1.9410	0	34.6920	4	27.740	0	1970.198	0	59.0	4	17.8	4	-1E+10	1	-1E+10	1	-1E+10	1	-1E+10	1	-1E+10	1	-1E+10	1
4901784	100	C	03/31/2018	10:43	-132.721	43.384	0	2000.70	0	1.9380	0	34.6920	4	27.740	0	1975.308	0	59.3	4	17.9	4	-1E+10	1	-1E+10	1	-1E+10	1	-1E+10	1	-1E+10	1	-1E+10	1
4901784	100	C	03/31/2018	10:43	-132.721	43.384	0	2005.00	0	1.9370	0	34.6930	4	27.741	0	1979.533	0	59.3	4	17.9	4	-1E+10	1	-1E+10	1	-1E+10	1	-1E+10	1	-1E+10	1	-1E+10	1
4901784	100	C	03/31/2018	10:43	-132.721	43.384	0	2009.50	0	1.9360	0	34.6930	4	27.741	0	1983.955	0	59.5	4	17.9	4	-1E+10	1	-1E+10	1	-1E+10	1	-1E+10	1	-1E+10	1	-1E+10	1
4901784	100	C	03/31/2018	10:43	-132.721	43.384	0	2015.00	0	1.9340	0	34.6930	4	27.742	0	1989.360	0	59.6	4	18.0	4	-1E+10	1	-1E+10	1	-1E+10	1	-1E+10	1	-1E+10	1	-1E+10	1
4901784	100	C	03/31/2018	10:43	-132.721	43.384	0	2020.00	0	1.9330	0	34.6930	4	27.742	0	1994.273	0	59.7	4	18.0	4	-1E+10	1	-1E+10	1	-1E+10	1	-1E+10	1	-1E+10	1	-1E+10	1
4901784	100	C	03/31/2018	10:43	-132.721	43.384	0																										
4901784	101	C	04/10/2018	10:44	-132.608	43.366	0	2.40	0	9.8160	0	32.8330	4	25.291	0	2.381	0	268.8	4	96.0	4	-1E+10	1	-1E+10	1	-1E+10	1	-1E+10	1	-1E+10	1	-1E+10	1
4901784	101	C	04/10/2018	10:44	-132.608	43.366	0	3.70	0	9.8200	0	32.8340	4	25.291	0	3.670	0	268.9	4	96.0	4	-1E+10	1	-1E+10	1	-1E+10	1	-1E+10	1	-1E+10	1	-1E+10	1
4901784	101	C	04/10/2018	10:44	-132.608	43.366	0	5.00	0	9.8190	0	32.8340	4	25.291	0	4.960	0	268.8	4	96.0	4	-1E+10	1	-1E+10	1	-1E+10	1	-1E+10	1	-1E+10	1	-1E+10	1
4901784	101	C	04/10/2018	10:44	-132.608	43.366	0	6.40	0	9.8180	0	32.8340	4	25.292	0	6.349	0	268.8	4	96.0	4	-1E+10	1	-1E+10	1	-1E+10	1	-1E+10	1	-1E+10	1	-1E+10	1
4901784	101	C	04/10/2018	10:44	-132.608	43.366	0	8.00	0	9.8160	0	32.8340	4	25.292	0	7.936	0	268.7	4	96.0	4	-1E+10	1	-1E+10	1	-1E+10	1	-1E+10	1	-1E+10	1	-1E+10	1
4901784	101	C	04/10/2018	10:44	-132.608	43.366	0	9.60	0	9.8180	0	32.8340	4	25.292	0	9.523	0	268.8	4	96.0	4	-1E+10	1	-1E+10	1	-1E+10	1	-1E+10	1	-1E+10	1	-1E+10	1
4901784	101	C	04/10/2018	10:44	-132.608	43.366	0	11.20	0	9.8190	0	32.8340	4	25.292	0	11.110	0	268.8	4	96.0	4	-1E+10	1	-1E+10	1	-1E+10	1	-1E+10	1	-1E+10	1	-1E+10	1
4901784	101	C	04/10/2018	10:44	-132.608	43.366	0	12.90	0	9.8190	0	32.8340	4	25.292	0	12.797	0	268.8	4	96.0	4	-1E+10	1	-1E+10	1	-1E+10	1	-1E+10	1	-1E+10	1	-1E+10	1
4901784	101	C	04/10/2018	10:44	-132.608	43.366	0	14.60	0	9.8190	0	32.8340	4	25.292	0	14.483	0	268.6	4	95.9	4	-1E+10	1	-1E+10	1	-1E+10	1	-1E+10	1	-1E+10	1	-1E+10	1
4901784	101	C	04/10/2018	10:44	-132.608	43.366	0	16.30	0	9.8190	0	32.8330	4	25.291	0	16.169	0	268.7	4	96.0	4	-1E+10	1	-1E+10	1	-1E+10	1	-1E+10	1	-1E+10	1	-1E+10	1
4901784	101	C	04/10/2018	10:44	-132.608	43.366	0	18.00	0	9.8220	0	32.8340	4	25.291	0	17.856	0	268.7	4	96.0	4	-1E+10	1	-1E+10	1	-1E+10	1	-1E+10	1	-1E+10	1	-1E+10	1
4901784	101	C	04/10/2018	10:44	-132.608	43.366	0	19.80	0	9.8220	0	32.8330	4	25.290	0	19.641	0	268.7	4	96.0	4	-1E+10	1	-1E+10	1	-1E+10	1	-1E+10	1	-1E+10	1	-1E+10	1
4901784	101	C	04/10/2018	10:44	-132.608	43.366	0	21.50	0	9.8210	0	32.8330	4	25.291	0	21.328	0	268.8	4	96.0	4	-1E+10	1	-1E+10	1	-1E+10	1	-1E+10	1	-1E+10	1	-1E+10	1
4901784	101	C	04/10/2018	10:44	-132.608	43.366	0	23.20	0	9.8200	0	32.8340	4	25.292	0	23.014	0	268.7	4	96.0	4	-1E+10	1	-1E+10	1	-1E+10	1	-1E+10	1	-1E+10	1	-1E+10	1
4901784	101	C	04/10/2018	10:44	-132.608	43.366	0	24.80	0	9.8200	0	32.8340	4	25.292	0	24.601	0	268.8	4	96.0	4	-1E+10	1	-1E+10	1	-1E+10	1	-1E+10	1	-1E+10	1	-1E+10	1
4901784	101	C	04/10/2018	10:44	-132.608	43.366	0	26.50	0	9.8200	0	32.8340	4	25.292	0	26.287	0	268.6	4	95.9	4	-1E+10	1	-1E+10	1	-1E+10	1	-1E+10	1	-1E+10	1	-1E+10	1
4901784	101	C	04/10/2018	10:44	-132.608	43.366	0	28.30	0	9.8200	0	32.8340	4	25.292	0	28.073	0	268.5	4	95.9	4	-1E+10	1	-1E+10	1	-1E+10	1	-1E+10	1	-1E+10	1	-1E+10	1
4901784	101	C	04/10/2018	10:44	-132.608	43.366	0	30.10	0	9.8200	0	32.8340	4	25.292	0	29.858	0	268.8	4	96.0	4	-1E+10	1	-1E+10	1	-1E+10	1	-1E+10	1	-1E+10	1	-1E+10	1
4901784	101	C	04/10/2018	10:44	-132.608	43.366	0	31.80	0	9.8200	0	32.8340	4	25.292	0	31.544	0	268.7	4	96.0	4	-1E+10	1	-1E+10	1	-1E+10	1	-1E+10	1	-1E+10	1	-1E+10	1
4901784	101	C	04/10/2018	10:44	-132.608	43.366	0	33.50	0	9.8200	0	32.8340	4	25.292	0	33.230	0	268.7	4	96.0	4	-1E+10	1	-1E+10	1	-1E+10	1	-1E+10	1	-1E+10	1	-1E+10	1
4901784	101	C	04/10/2018	10:44	-132.608	43.366	0	35.20	0	9.8210	0	32.8340	4	25.292	0	34.917	0	268.7	4	96.0	4	-1E+10	1	-1E+10	1	-1E+10	1	-1E+10	1	-1E+10	1	-1E+10	1
4901784	101	C	04/10/2018	10:44	-132.608	43.366	0	36.90	0	9.8210	0	32.8340	4	25.292	0	36.603	0	268.7	4	96.0	4	-1E+10	1	-1E+10	1	-1E+10	1	-1E+10	1	-1E+10	1	-1E+10	1
4901784	101	C	04/10/2018	10:44	-132.608	43.366	0	38.60	0	9.8210	0	32.8340	4	25.292	0	38.289	0	268.8	4	96.0	4	-1E+10	1	-1E+10	1	-1E+10	1	-1E+10	1	-1E+10	1	-1E+10	1
4901784	101	C	04/10/2018	10:44	-132.608	43.366	0	40.20	0	9.8220	0	32.8340	4	25.292	0	39.876	0	268.5	4	95.9	4	-1E+10	1	-1E+10	1	-1E+10	1	-1E+10	1	-1E+10	1	-1E+10	1
4901784	101	C	04/10/2018	10:44	-132.608	43.366	0	41.70	0	9.8210	0	32.8340	4	25.292	0	41.364	0	268.5	4	95.9	4	-1E+10	1	-1E+10	1	-1E+10	1	-1E+10	1	-1E+10	1	-1E+10	1
4901784	101	C	04/10/2018	10:44	-132.608	43.366	0	43.40	0	9.8220	0	32.8340	4	25.292	0	43.050	0	268.5	4	95.9	4	-1E+10	1	-1E+10	1	-1E+10	1	-1E+10	1	-1E+10	1	-1E+10	1
4901784	101	C	04/10/2018	10:44	-132.608	43.366	0	45.20	0	9.8210	0	32.8340	4	25.292	0	44.835	0	268.6	4	95.9	4	-1E+10	1	-1E+10	1	-1E+10	1	-1E+10	1	-1E+10	1	-1E+10	1
4901784	101	C	04/10/2018	10:44	-132.608	43.366	0	47.00	0	9.8190	0	32.8350	4	25.293	0	46.620	0	268.3	4	95.8	4	-1E+10	1	-1E+10	1	-1E+10	1	-1E+10	1	-1E+10	1	-1E+10	1
4901784	101	C	04/10/2018	10:44	-132.608	43.366	0	48.80	0	9.8190	0	32.8350	4	25.293	0	48.405	0	268.3	4	95.8	4	-1E+10	1	-1E+10	1	-1E+10	1	-1E+10	1	-1E+10	1	-1E+10	1
4901784	101	C	04/10/2018	10:44	-132.608	43.366	0	50.70	0	9.8190	0	32.8350	4	25.293	0	50.290	0	268.4	4	95.9	4	-1E+10	1	-1E+10	1	-1E+10	1	-1E+10	1	-1E+10	1	-1E+10	1
4901784	101	C	04/10/2018	10:44	-132.608	43.366	0	52.60	0	9.8200	0	32.8350	4	25.293	0	52.174	0	268.4	4	95.9	4	-1E+10	1	-1E+10	1	-1E+10	1	-1E+10	1	-1E+10	1	-1E+10	1
4901784	101	C	04/10/2018	10:44	-132.608	43.366	0	54.50	0	9.8200	0	32.8350	4	25.293	0	54.059	0	268.3	4	95.8	4	-1E+10	1	-1E+10	1	-1E+10	1	-1E+10	1	-1E+10	1	-1E+10	1
4901784	101	C	04/10/2018	10:44	-132.608	43.366	0	56.30	0	9.8190	0	32.8360	4	25.294	0	55.844	0	268.2	4	95.8	4	-1E+10	1	-1E+10	1	-1E+10	1	-1E+10	1	-1E+10	1	-1E+10	1
4901784	101	C	04/10/2018	10:44	-132.608	43.366	0	58.30	0	9.8200	0	32.8350	4	25.293	0	57.827	0	268.4	4	95.9	4	-1E+10	1	-1E+10	1	-1E+10	1	-1E+10	1	-1E+10	1	-1E+10	1
4901784	101	C	04/10/2018	10:44	-132.608	43.366	0	60.20	0	9.8190	0	32.8350	4	25.293	0	59.712	0	268.3	4	95.8	4	-1E+10	1	-1E+10	1	-1E+10	1	-1E+10	1	-1E+10	1	-1E+10	1
4901784	101	C	04/10/2018	10:44	-132.608	43.366	0	62.10	0	9.8200	0	32.8350	4	25.293	0	61.596	0	268.4	4	95.8	4	-1E+10	1	-1E+10	1	-1E+10	1	-1E+10	1	-1E+10	1	-1E+10	1
4901784	101	C	04/10/2018	10:44	-132.608	43.366	0	64.00	0	9.8200	0	32.8350	4	25.293	0	63.480	0	268.3	4	95.8	4	-1E+10	1	-1E+10	1	-1E+10	1	-1E+10	1	-1E+10	1	-1E+10	1
4901784	101	C	04/10/2018	10:44	-132.608	43.366	0	65.80	0	9.8200	0	32.8350	4	25.293	0	65.265	0	268.2	4	95.8	4	-1E+10	1	-1E+10	1	-1E+10	1	-1E+10	1	-1E+10	1	-1E+10	1
4901784	101	C	04/10/2018	10:44	-132.608	43.366	0	67.70	0	9.8200	0	32.8350	4	25.293	0	67.150	0	268.2	4	95.8	4	-1E+10	1	-1E+10	1	-1E+10	1	-1E+10	1	-1E+10	1	-1E+10	1
4901784	101	C	04/10/2018	10:44	-132.608	43.366	0	69.50	0	9.8190	0	32.8360	4	25.294	0	68.935	0	268.1	4	95.8	4	-1E+10	1	-1E+10	1	-1E+10	1	-1E+10	1	-1E+10	1	-1E+10	1
4901784	101	C	04/10/2018	10:44	-132.608	43.366	0	71.50	0	9.8160	0	32.8360	4	25.295	0	70.918	0	268.0	4	95.7	4	-1E+10	1	-1E+10	1	-1E+10	1	-1E+10	1	-1E+10	1	-1E+10	1
4901784	101	C	04/10/2018	10:44	-132.608	43.366	0	73.40	0	9.8130	0	32.8370	4	25.296	0	72.802	0	267.9	4	95.7	4	-1E+10	1	-1E+10	1	-1E+10	1	-1E+10	1	-1E+10	1	-1E+10	1
4901784	101	C	04/10/2018	10:44	-132.608	43.366	0	75.30	0	9.8160	0	32.8360	4	25.295	0	74.686	0	267.9	4	95.7	4	-1E+10	1	-1E+10	1	-1E+10	1	-1E+10	1	-1E+10	1	-1E+10	1
4901784	101	C	04/10/2018	10:44	-132.608	43.366	0	77.00	0	9.8190	0	32.8350	4	25.294	0	76.372	0	267.9	4	95.7	4	-1E+10	1	-1E+10	1	-1E+10	1	-1E+10	1	-1E+10	1	-1E+10	1
4901784	101	C	04/10/2018	10:44	-132.608	43.366	0	78.90	0	9.8130	0	32.8360	4	25.295	0	78.256	0	267.7	4	95.6	4	-1E+10	1	-1E+10	1	-1E+10	1	-1E+10	1	-1E+10	1	-1E+10	1
4901784	101	C	04/10/2018	10:44	-132.608	43.366	0	80.80	0	9.8110	0	32.8370	4	25.296	0	80.141	0	267.5	4	95.5	4	-1E+10	1	-1E+10	1	-1E+10	1	-1E+10	1	-1E+10	1	-1E+10	1
4901784	101	C	04/10/2018	10:44	-132.608	43.366	0	82.70	0	9.8110	0	32.8360	4	25.296	0	82.025	0	267.6	4	95.5	4	-1E+10	1	-1E+10	1	-1E+10	1	-1E+10	1	-1E+10	1	-1E+10	1
4901784	101	C	04/10/2018	10:44	-132.608	43.366	0	84.60	0	9.7990	0	32.8370	4	25.299	0	83.909	0	267.2	4	95.4	4	-1E+10	1	-1E+10	1	-1E+10	1	-1E+10	1	-1E+10	1	-1E+10	1
4901784	101	C	04/10/2018	10:44	-132.608	43.366	0	86.40	0	9.7880	0	32.8410	4	25.303	0	85.694	0	267.2	4	95.4	4	-1E+10	1	-1E+10	1	-1E+10	1	-1E+10	1	-1E+10	1	-1E+10	1
4901784	101	C	04/10/2018	10:44	-132.608	43.366	0	88.30	0	9.7820	0	32.8390	4	25.303	0	87.578	0	267.0	4	95.3	4	-1E+10	1	-1E+10	1	-1E+10	1	-1E+10	1	-1E+10	1	-1E+10	1
4901784	101	C	04/10/2018	10:44	-132.608	43.366	0	90.00	0	9.7890	0	32.8390	4	25.302	0	89.263	0	267.0	4	95.3	4	-1E+10	1	-1E+10	1	-1E+10	1	-1E+10	1	-1E+10	1	-1E+10	1
4901784	101	C	04/10/2018	10:44	-132.608	43.366	0	91.80	0	9.7860	0	32.8380	4	25.302	0	91.048	0	266.7	4	95.2	4	-1E+10	1	-1E+10	1	-1E+10	1	-1E+10	1	-1E+10	1	-1E+10	1
4901784	101	C	04/10/2018	10:44	-132.608	43.366	0	93.50	0	9.7740	0	32.8380	4	25.304	0	92.734	0	266.6	4	95.1	4	-1E+10	1	-1E+10	1	-1E+10	1	-1E+10	1	-1E+10	1	-1E+10	1
4901784	101	C	04/10/2018	10:44	-132.608	43.366	0	95.40	0	9.7680	0	32.8390	4	25.305	0	94.618	0	266.5	4	95.1	4	-1E+10	1	-1E+10	1	-1E+10	1	-1E+10	1	-1E+10	1	-1E+10	1
4901784	101	C	04/10/2018	10:44	-132.608	43.366	0	97.10	0	9.7640	0	32.8380	4	25.305	0	96.304	0	266.3	4	95.0	4	-1E+10	1	-1E+10	1	-1E+10	1	-1E+10	1	-1E+10	1	-1E+10	1
4901784	101	C	04/10/2018	10:44	-132.608	43.366	0	98.90	0	9.7560	0	32.8380	4	25.307	0	98.088	0	266.0	4	94.9	4	-1E+10	1	-1E+10	1	-1E+10	1	-1E+10	1	-1E+10	1	-1E+10	1
4901784	101	C	04/10/2018	10:44	-132.608	43.366	0	102.30	0	9.7310	0	32.8370	4	25.310	0	101.460	0	264.8	4	94.4	4	-1E+10	1	-1E+10	1	-1E+10	1	-1E+10	1	-1E+10	1	-1E+10	1
4901784	101	C	04/10/2018	10:44	-132.608	43.366	0	104.80	0	9.7230	0	32.8350	4	25.310	0	103.939	0	263.8	4	94.0	4	-1E+10	1	-1E+10	1	-1E+10	1	-1E+10	1	-1E+10	1	-1E+10	1
4901784	101	C	04/10/2018	10:44	-132.608	43.366	0	107.40	0	9.6870	0	32.8340	4	25.315	0	106.517	0	262.0	4	93.3	4	-1E+10	1	-1E+10	1	-1E+10	1	-1E+10	1	-1E+10	1	-1E+10	1
4901784	101	C	04/10/2018	10:44	-132.608	43.366	0	109.90	0	9.5940	0	32.8440	4	25.338	0	108.995	0	260.0	4	92.4	4	-1E+10	1	-1E+10	1	-1E+10	1	-1E+10	1	-1E+10	1	-1E+10	1
4901784	101	C	04/10/2018	10:44	-132.608	43.366	0	112.50	0	9.3720	0	32.8700	4	25.394	0	111.573	0	258.4	4	91.4	4	-1E+10	1	-1E+10	1	-1E+10	1	-1E+10	1	-1E+10	1	-1E+10	1
4901784	101	C	04/10/2018	10:44	-132.608	43.366	0	115.20	0	9.0990	0	32.9090	4	25.468	0	114.250	0	256.5	4	90.2	4	-1E+10	1	-1E+10	1	-1E+10	1	-1E+10	1	-1E+10	1	-1E+10	1
4901784	101	C	04/10/2018	10:44	-132.608	43.366	0	117.40	0	8.9520	0	32.9330	4	25.510	0	116.431	0	255.0	4	89.4	4	-1E+10	1	-1E+10	1	-1E+10	1	-1E+10	1	-1E+10	1	-1E+10	1
4901784	101	C	04/10/2018	10:44	-132.608	43.366	0	120.40	0	8.8380	0	32.9510	4	25.541	0	119.406	0	251.3	4	87.9	4	-1E+10	1	-1E+10	1	-1E+10	1	-1E+10	1	-1E+10	1	-1E+10	1
4901784	101	C	04/10/2018	10:44	-132.608	43.366	0	122.60	0	8.7410	0	32.9560	4	25.560	0	121.587	0	247.3	4	86.3	4	-1E+10	1	-1E+10	1	-1E+10	1	-1E+10	1	-1E+10	1	-1E+10	1
4901784	101	C	04/10/2018	10:44	-132.608	43.366	0	124.90	0	8.3280	0	33.0320	4	25.682	0	123.867	0	243.2	4	84.2	4	-1E+10	1	-1E+10	1	-1E+10	1	-1E+10	1	-1E+10	1	-1E+10	1
4901784	101	C	04/10/2018	10:44	-132.608	43.366	0	127.30	0	8.1230	0	33.0920	4	25.760	0	126.247	0	237.9	4	82.0	4	-1E+10	1	-1E+10	1	-1E+10	1	-1E+10	1	-1E+10	1	-1E+10	1
4901784	101	C	04/10/2018	10:44	-132.608	43.366	0	129.90	0	8.0990	0	33.1690	4	25.824	0	128.824	0	232.2	4	80.0	4	-1E+10	1	-1E+10	1	-1E+10	1	-1E+10	1	-1E+10	1	-1E+10	1
4901784	101	C	04/10/2018	10:44	-132.608	43.366	0	132.70	0	8.1550	0	33.2310	4	25.864	0	131.600	0	227.7	4	78.6	4	-1E+10	1	-1E+10	1	-1E+10	1	-1E+10	1	-1E+10	1	-1E+10	1
4901784	101	C	04/10/2018	10:44	-132.608	43.366	0	134.50	0	8.1790	0	33.2670	4	25.889	0	133.385	0	225.3	4	77.9	4	-1E+10	1	-1E+10	1	-1E+10	1	-1E+10	1	-1E+10	1	-1E+10	1
4901784	101	C	04/10/2018	10:44	-132.608	43.366	0	137.40	0	8.2100	0	33.3120	4	25.920	0	136.260	0	221.4	4	76.6	4	-1E+10	1	-1E+10	1	-1E+10	1	-1E+10	1	-1E+10	1	-1E+10	1
4901784	101	C	04/10/2018	10:44	-132.608	43.366	0	140.20	0	8.2480	0	33.3710	4	25.960	0	139.036	0	218.5	4	75.7	4	-1E+10	1	-1E+10	1	-1E+10	1	-1E+10	1	-1E+10	1	-1E+10	1
4901784	101	C	04/10/2018	10:44	-132.608	43.366	0	142.60	0	8.2530	0	33.3780	4	25.965	0	141.415	0	216.6	4	75.0	4	-1E+10	1	-1E+10	1	-1E+10	1	-1E+10	1	-1E+10	1	-1E+10	1
4901784	101	C	04/10/2018	10:44	-132.608	43.366	0	144.90	0	8.2560	0	33.3850	4	25.970	0	143.695	0	214.2	4	74.2	4	-1E+10	1	-1E+10	1	-1E+10	1	-1E+10	1	-1E+10	1	-1E+10	1
4901784	101	C	04/10/2018	10:44	-132.608	43.366	0	147.20	0	8.2720	0	33.4090	4	25.987	0	145.975	0	210.6	4	73.0	4	-1E+10	1	-1E+10	1	-1E+10	1	-1E+10	1	-1E+10	1	-1E+10	1
4901784	101	C	04/10/2018	10:44	-132.608	43.366	0	149.60	0	8.2940	0	33.4480	4	26.014	0	148.354	0	206.7	4	71.7	4	-1E+10	1	-1E+10	1	-1E+10	1	-1E+10	1	-1E+10	1	-1E+10	1
4901784	101	C	04/10/2018	10:44	-132.608	43.366	0	152.10	0	8.3170	0	33.5020	4	26.053	0	150.833	0	202.4	4	70.3	4	-1E+10	1	-1E+10	1	-1E+10	1	-1E+10	1	-1E+10	1	-1E+10	1
4901784	101	C	04/10/2018	10:44	-132.608	43.366	0	154.70	0	8.3400	0	33.5520	4	26.089	0	153.410	0	198.7	4	69.1	4	-1E+10	1	-1E+10	1	-1E+10	1	-1E+10	1	-1E+10	1	-1E+10	1
4901784	101	C	04/10/2018	10:44	-132.608	43.366	0	157.10	0	8.3580	0	33.5950	4	26.120	0	155.789	0	195.4	4	68.0	4	-1E+10	1	-1E+10	1	-1E+10	1	-1E+10	1	-1E+10	1	-1E+10	1
4901784	101	C	04/10/2018	10:44	-132.608	43.366	0	159.60	0	8.3850	0	33.6370	4	26.149	0	158.267	0	192.5	4	67.0	4	-1E+10	1	-1E+10	1	-1E+10	1	-1E+10	1	-1E+10	1	-1E+10	1
4901784	101	C	04/10/2018	10:44	-132.608	43.366	0	162.10	0	8.3870	0	33.6630	4	26.169	0	160.745	0	189.5	4	66.0	4	-1E+10	1	-1E+10	1	-1E+10	1	-1E+10	1	-1E+10	1	-1E+10	1
4901784	101	C	04/10/2018	10:44	-132.608	43.366	0	164.60	0	8.3630	0	33.7030	4	26.204	0	163.223	0	186.0	4	64.7	4	-1E+10	1	-1E+10	1	-1E+10	1	-1E+10	1	-1E+10	1	-1E+10	1
4901784	101	C	04/10/2018	10:44	-132.608	43.366	0	167.10	0	8.3890	0	33.7850	4	26.264	0	165.702	0	182.8	4	63.7	4	-1E+10	1	-1E+10	1	-1E+10	1	-1E+10	1	-1E+10	1	-1E+10	1
4901784	101	C	04/10/2018	10:44	-132.608	43.366	0	169.60	0	8.4010	0	33.8280	4	26.296	0	168.180	0	181.4	4	63.3	4	-1E+10	1	-1E+10	1	-1E+10	1	-1E+10	1	-1E+10	1	-1E+10	1
4901784	101	C	04/10/2018	10:44	-132.608	43.366	0	172.10	0	8.4040	0	33.8390	4	26.304	0	170.658	0	180.0	4	62.8	4	-1E+10	1	-1E+10	1	-1E+10	1	-1E+10	1	-1E+10	1	-1E+10	1
4901784	101	C	04/10/2018	10:44	-132.608	43.366	0	175.40	0	8.4120	0	33.8710	4	26.328	0	173.929	0	177.8	4	62.0	4	-1E+10	1	-1E+10	1	-1E+10	1	-1E+10	1	-1E+10	1	-1E+10	1
4901784	101	C	04/10/2018	10:44	-132.608	43.366	0	177.80	0	8.4030	0	33.9050	4	26.356	0	176.307	0	176.4	4	61.6	4	-1E+10	1	-1E+10	1	-1E+10	1	-1E+10	1	-1E+10	1	-1E+10	1
4901784	101	C	04/10/2018	10:44	-132.608	43.366	0	180.30	0	8.3890	0	33.9320	4	26.380	0	178.785	0	175.4	4	61.2	4	-1E+10	1	-1E+10	1	-1E+10	1	-1E+10	1	-1E+10	1	-1E+10	1
4901784	101	C	04/10/2018	10:44	-132.608	43.366	0	182.80	0	8.3690	0	33.9570	4	26.403	0	181.263	0	174.7	4	60.9	4	-1E+10	1	-1E+10	1	-1E+10	1	-1E+10	1	-1E+10	1	-1E+10	1
4901784	101	C	04/10/2018	10:44	-132.608	43.366	0	184.50	0	8.3580	0	33.9670	4	26.412	0	182.948	0	174.5	4	60.9	4	-1E+10	1	-1E+10	1	-1E+10	1	-1E+10	1	-1E+10	1	-1E+10	1
4901784	101	C	04/10/2018	10:44	-132.608	43.366	0	187.20	0	8.3480	0	33.9760	4	26.421	0	185.624	0	173.9	4	60.6	4	-1E+10	1	-1E+10	1	-1E+10	1	-1E+10	1	-1E+10	1	-1E+10	1
4901784	101	C	04/10/2018	10:44	-132.608	43.366	0	189.90	0	8.3260	0	33.9870	4	26.433	0	188.300	0	173.6	4	60.5	4	-1E+10	1	-1E+10	1	-1E+10	1	-1E+10	1	-1E+10	1	-1E+10	1
4901784	101	C	04/10/2018	10:44	-132.608	43.366	0	192.50	0	8.3150	0	33.9900	4	26.437	0	190.877	0	173.2	4	60.4	4	-1E+10	1	-1E+10	1	-1E+10	1	-1E+10	1	-1E+10	1	-1E+10	1
4901784	101	C	04/10/2018	10:44	-132.608	43.366	0	195.20	0	8.3000	0	33.9940	4	26.442	0	193.553	0	172.9	4	60.2	4	-1E+10	1	-1E+10	1	-1E+10	1	-1E+10	1	-1E+10	1	-1E+10	1
4901784	101	C	04/10/2018	10:44	-132.608	43.366	0	197.10	0	8.2940	0	33.9950	4	26.444	0	195.436	0	172.6	4	60.1	4	-1E+10	1	-1E+10	1	-1E+10	1	-1E+10	1	-1E+10	1	-1E+10	1
4901784	101	C	04/10/2018	10:44	-132.608	43.366	0	199.90	0	8.2560	0	34.0060	4	26.458	0	198.211	0	172.3	4	60.0	4	-1E+10	1	-1E+10	1	-1E+10	1	-1E+10	1	-1E+10	1	-1E+10	1
4901784	101	C	04/10/2018	10:44	-132.608	43.366	0	202.70	0	8.2520	0	34.0070	4	26.460	0	200.986	0	172.0	4	59.9	4	-1E+10	1	-1E+10	1	-1E+10	1	-1E+10	1	-1E+10	1	-1E+10	1
4901784	101	C	04/10/2018	10:44	-132.608	43.366	0	204.60	0	8.2490	0	34.0080	4	26.461	0	202.869	0	171.7	4	59.7	4	-1E+10	1	-1E+10	1	-1E+10	1	-1E+10	1	-1E+10	1	-1E+10	1
4901784	101	C	04/10/2018	10:44	-132.608	43.366	0	207.40	0	8.2390	0	34.0090	4	26.463	0	205.644	0	171.0	4	59.5	4	-1E+10	1	-1E+10	1	-1E+10	1	-1E+10	1	-1E+10	1	-1E+10	1
4901784	101	C	04/10/2018	10:44	-132.608	43.366	0	210.20	0	8.2150	0	34.0120	4	26.469	0	208.419	0	170.3	4	59.2	4	-1E+10	1	-1E+10	1	-1E+10	1	-1E+10	1	-1E+10	1	-1E+10	1
4901784	101	C	04/10/2018	10:44	-132.608	43.366	0	212.10	0	8.1900	0	34.0150	4	26.475	0	210.302	0	169.7	4	59.0	4	-1E+10	1	-1E+10	1	-1E+10	1	-1E+10	1	-1E+10	1	-1E+10	1
4901784	101	C	04/10/2018	10:44	-132.608	43.366	0	215.00	0	8.1590	0	34.0180	4	26.482	0	213.176	0	168.8	4	58.6	4	-1E+10	1	-1E+10	1	-1E+10	1	-1E+10	1	-1E+10	1	-1E+10	1
4901784	101	C	04/10/2018	10:44	-132.608	43.366	0	217.90	0	8.1460	0	34.0170	4	26.484	0	216.050	0	167.7	4	58.2	4	-1E+10	1	-1E+10	1	-1E+10	1	-1E+10	1	-1E+10	1	-1E+10	1
4901784	101	C	04/10/2018	10:44	-132.608	43.366	0	219.80	0	8.1300	0	34.0160	4	26.485	0	217.933	0	166.7	4	57.9	4	-1E+10	1	-1E+10	1	-1E+10	1	-1E+10	1	-1E+10	1	-1E+10	1
4901784	101	C	04/10/2018	10:44	-132.608	43.366	0	222.70	0	8.0750	0	34.0200	4	26.497	0	220.806	0	165.0	4	57.2	4	-1E+10	1	-1E+10	1	-1E+10	1	-1E+10	1	-1E+10	1	-1E+10	1
4901784	101	C	04/10/2018	10:44	-132.608	43.366	0	225.50	0	7.9530	0	34.0240	4	26.518	0	223.581	0	163.7	4	56.6	4	-1E+10	1	-1E+10	1	-1E+10	1	-1E+10	1	-1E+10	1	-1E+10	1
4901784	101	C	04/10/2018	10:44	-132.608	43.366	0	227.40	0	7.9150	0	34.0260	4	26.525	0	225.464	0	162.9	4	56.3	4	-1E+10	1	-1E+10	1	-1E+10	1	-1E+10	1	-1E+10	1	-1E+10	1
4901784	101	C	04/10/2018	10:44	-132.608	43.366	0	229.30	0	7.8940	0	34.0260	4	26.528	0	227.347	0	162.1	4	56.0	4	-1E+10	1	-1E+10	1	-1E+10	1	-1E+10	1	-1E+10	1	-1E+10	1
4901784	101	C	04/10/2018	10:44	-132.608	43.366	0	232.40	0	7.8290	0	34.0270	4	26.538	0	230.419	0	161.0	4	55.5	4	-1E+10	1	-1E+10	1	-1E+10	1	-1E+10	1	-1E+10	1	-1E+10	1
4901784	101	C	04/10/2018	10:44	-132.608	43.366	0	235.30	0	7.7900	0	34.0290	4	26.546	0	233.292	0	159.6	4	55.0	4	-1E+10	1	-1E+10	1	-1E+10	1	-1E+10	1	-1E+10	1	-1E+10	1
4901784	101	C	04/10/2018	10:44	-132.608	43.366	0	237.70	0	7.7590	0	34.0270	4	26.549	0	235.670	0	158.6	4	54.6	4	-1E+10	1	-1E+10	1	-1E+10	1	-1E+10	1	-1E+10	1	-1E+10	1
4901784	101	C	04/10/2018	10:44	-132.608	43.366	0	240.10	0	7.7380	0	34.0260	4	26.551	0	238.049	0	157.2	4	54.1	4	-1E+10	1	-1E+10	1	-1E+10	1	-1E+10	1	-1E+10	1	-1E+10	1
4901784	101	C	04/10/2018	10:44	-132.608	43.366	0	242.50	0	7.6990	0	34.0250	4	26.556	0	240.427	0	155.5	4	53.4	4	-1E+10	1	-1E+10	1	-1E+10	1	-1E+10	1	-1E+10	1	-1E+10	1
4901784	101	C	04/10/2018	10:44	-132.608	43.366	0	245.00	0	7.6400	0	34.0230	4	26.563	0	242.904	0	154.1	4	52.9	4	-1E+10	1	-1E+10	1	-1E+10	1	-1E+10	1	-1E+10	1	-1E+10	1
4901784	101	C	04/10/2018	10:44	-132.608	43.366	0	247.40	0	7.6130	0	34.0240	4	26.568	0	245.282	0	152.9	4	52.5	4	-1E+10	1	-1E+10	1	-1E+10	1	-1E+10	1	-1E+10	1	-1E+10	1
4901784	101	C	04/10/2018	10:44	-132.608	43.366	0	249.80	0	7.5790	0	34.0240	4	26.572	0	247.660	0	151.7	4	52.0	4	-1E+10	1	-1E+10	1	-1E+10	1	-1E+10	1	-1E+10	1	-1E+10	1
4901784	101	C	04/10/2018	10:44	-132.608	43.366	0	252.30	0	7.5490	0	34.0230	4	26.576	0	250.137	0	150.7	4	51.6	4	-1E+10	1	-1E+10	1	-1E+10	1	-1E+10	1	-1E+10	1	-1E+10	1
4901784	101	C	04/10/2018	10:44	-132.608	43.366	0	254.80	0	7.5240	0	34.0230	4	26.580	0	252.614	0	149.7	4	51.3	4	-1E+10	1	-1E+10	1	-1E+10	1	-1E+10	1	-1E+10	1	-1E+10	1
4901784	101	C	04/10/2018	10:44	-132.608	43.366	0	257.20	0	7.4930	0	34.0220	4	26.583	0	254.992	0	148.6	4	50.9	4	-1E+10	1	-1E+10	1	-1E+10	1	-1E+10	1	-1E+10	1	-1E+10	1
4901784	101	C	04/10/2018	10:44	-132.608	43.366	0	259.70	0	7.4520	0	34.0220	4	26.589	0	257.469	0	147.5	4	50.4	4	-1E+10	1	-1E+10	1	-1E+10	1	-1E+10	1	-1E+10	1	-1E+10	1
4901784	101	C	04/10/2018	10:44	-132.608	43.366	0	262.20	0	7.4130	0	34.0220	4	26.595	0	259.946	0	146.3	4	50.0	4	-1E+10	1	-1E+10	1	-1E+10	1	-1E+10	1	-1E+10	1	-1E+10	1
4901784	101	C	04/10/2018	10:44	-132.608	43.366	0	264.60	0	7.3590	0	34.0210	4	26.601	0	262.324	0	145.0	4	49.5	4	-1E+10	1	-1E+10	1	-1E+10	1	-1E+10	1	-1E+10	1	-1E+10	1
4901784	101	C	04/10/2018	10:44	-132.608	43.366	0	267.10	0	7.2830	0	34.0210	4	26.612	0	264.801	0	143.9	4	49.0	4	-1E+10	1	-1E+10	1	-1E+10	1	-1E+10	1	-1E+10	1	-1E+10	1
4901784	101	C	04/10/2018	10:44	-132.608	43.366	0	269.60	0	7.2330	0	34.0200	4	26.618	0	267.277	0	142.8	4	48.6	4	-1E+10	1	-1E+10	1	-1E+10	1	-1E+10	1	-1E+10	1	-1E+10	1
4901784	101	C	04/10/2018	10:44	-132.608	43.366	0	272.30	0	7.1710	0	34.0190	4	26.626	0	269.952	0	141.5	4	48.1	4	-1E+10	1	-1E+10	1	-1E+10	1	-1E+10	1	-1E+10	1	-1E+10	1
4901784	101	C	04/10/2018	10:44	-132.608	43.366	0	274.80	0	7.1100	0	34.0190	4	26.635	0	272.429	0	140.6	4	47.7	4	-1E+10	1	-1E+10	1	-1E+10	1	-1E+10	1	-1E+10	1	-1E+10	1
4901784	101	C	04/10/2018	10:44	-132.608	43.366	0	277.40	0	7.0720	0	34.0200	4	26.641	0	275.005	0	139.8	4	47.4	4	-1E+10	1	-1E+10	1	-1E+10	1	-1E+10	1	-1E+10	1	-1E+10	1
4901784	101	C	04/10/2018	10:44	-132.608	43.366	0	279.90	0	7.0250	0	34.0200	4	26.647	0	277.482	0	139.0	4	47.1	4	-1E+10	1	-1E+10	1	-1E+10	1	-1E+10	1	-1E+10	1	-1E+10	1
4901784	101	C	04/10/2018	10:44	-132.608	43.366	0	282.50	0	7.0100	0	34.0190	4	26.648	0	280.058	0	138.1	4	46.7	4	-1E+10	1	-1E+10	1	-1E+10	1	-1E+10	1	-1E+10	1	-1E+10	1
4901784	101	C	04/10/2018	10:44	-132.608	43.366	0	285.00	0	6.9720	0	34.0200	4	26.654	0	282.534	0	136.7	4	46.2	4	-1E+10	1	-1E+10	1	-1E+10	1	-1E+10	1	-1E+10	1	-1E+10	1
4901784	101	C	04/10/2018	10:44	-132.608	43.366	0	287.60	0	6.9270	0	34.0180	4	26.659	0	285.110	0	135.7	4	45.8	4	-1E+10	1	-1E+10	1	-1E+10	1	-1E+10	1	-1E+10	1	-1E+10	1
4901784	101	C	04/10/2018	10:44	-132.608	43.366	0	290.10	0	6.8920	0	34.0180	4	26.664	0	287.587	0	134.3	4	45.3	4	-1E+10	1	-1E+10	1	-1E+10	1	-1E+10	1	-1E+10	1	-1E+10	1
4901784	101	C	04/10/2018	10:44	-132.608	43.366	0	292.70	0	6.8500	0	34.0150	4	26.667	0	290.162	0	132.9	4	44.8	4	-1E+10	1	-1E+10	1	-1E+10	1	-1E+10	1	-1E+10	1	-1E+10	1
4901784	101	C	04/10/2018	10:44	-132.608	43.366	0	295.30	0	6.8090	0	34.0140	4	26.672	0	292.738	0	131.4	4	44.2	4	-1E+10	1	-1E+10	1	-1E+10	1	-1E+10	1	-1E+10	1	-1E+10	1
4901784	101	C	04/10/2018	10:44	-132.608	43.366	0	297.00	0	6.7880	0	34.0120	4	26.673	0	294.422	0	130.1	4	43.8	4	-1E+10	1	-1E+10	1	-1E+10	1	-1E+10	1	-1E+10	1	-1E+10	1
4901784	101	C	04/10/2018	10:44	-132.608	43.366	0	299.70	0	6.7180	0	34.0130	4	26.683	0	297.097	0	128.3	4	43.1	4	-1E+10	1	-1E+10	1	-1E+10	1	-1E+10	1	-1E+10	1	-1E+10	1
4901784	101	C	04/10/2018	10:44	-132.608	43.366	0	302.40	0	6.6670	0	34.0120	4	26.689	0	299.771	0	126.4	4	42.4	4	-1E+10	1	-1E+10	1	-1E+10	1	-1E+10	1	-1E+10	1	-1E+10	1
4901784	101	C	04/10/2018	10:44	-132.608	43.366	0	305.10	0	6.6400	0	34.0120	4	26.693	0	302.446	0	124.1	4	41.6	4	-1E+10	1	-1E+10	1	-1E+10	1	-1E+10	1	-1E+10	1	-1E+10	1
4901784	101	C	04/10/2018	10:44	-132.608	43.366	0	307.70	0	6.6010	0	34.0130	4	26.699	0	305.021	0	121.8	4	40.8	4	-1E+10	1	-1E+10	1	-1E+10	1	-1E+10	1	-1E+10	1	-1E+10	1
4901784	101	C	04/10/2018	10:44	-132.608	43.366	0	309.50	0	6.5820	0	34.0130	4	26.701	0	306.804	0	120.6	4	40.4	4	-1E+10	1	-1E+10	1	-1E+10	1	-1E+10	1	-1E+10	1	-1E+10	1
4901784	101	C	04/10/2018	10:44	-132.608	43.366	0	312.20	0	6.5020	0	34.0150	4	26.714	0	309.479	0	119.1	4	39.8	4	-1E+10	1	-1E+10	1	-1E+10	1	-1E+10	1	-1E+10	1	-1E+10	1
4901784	101	C	04/10/2018	10:44	-132.608	43.366	0	315.00	0	6.4350	0	34.0140	4	26.722	0	312.252	0	118.3	4	39.5	4	-1E+10	1	-1E+10	1	-1E+10	1	-1E+10	1	-1E+10	1	-1E+10	1
4901784	101	C	04/10/2018	10:44	-132.608	43.366	0	317.60	0	6.4150	0	34.0140	4	26.724	0	314.827	0	117.1	4	39.1	4	-1E+10	1	-1E+10	1	-1E+10	1	-1E+10	1	-1E+10	1	-1E+10	1
4901784	101	C	04/10/2018	10:44	-132.608	43.366	0	320.30	0	6.3850	0	34.0130	4	26.727	0	317.502	0	116.0	4	38.7	4	-1E+10	1	-1E+10	1	-1E+10	1	-1E+10	1	-1E+10	1	-1E+10	1
4901784	101	C	04/10/2018	10:44	-132.608	43.366	0	322.00	0	6.3870	0	34.0150	4	26.729	0	319.186	0	115.1	4	38.4	4	-1E+10	1	-1E+10	1	-1E+10	1	-1E+10	1	-1E+10	1	-1E+10	1
4901784	101	C	04/10/2018	10:44	-132.608	43.366	0	324.70	0	6.3370	0	34.0140	4	26.734	0	321.860	0	113.9	4	38.0	4	-1E+10	1	-1E+10	1	-1E+10	1	-1E+10	1	-1E+10	1	-1E+10	1
4901784	101	C	04/10/2018	10:44	-132.608	43.366	0	327.40	0	6.2880	0	34.0120	4	26.739	0	324.534	0	113.1	4	37.6	4	-1E+10	1	-1E+10	1	-1E+10	1	-1E+10	1	-1E+10	1	-1E+10	1
4901784	101	C	04/10/2018	10:44	-132.608	43.366	0	330.10	0	6.2140	0	34.0110	4	26.748	0	327.208	0	111.7	4	37.1	4	-1E+10	1	-1E+10	1	-1E+10	1	-1E+10	1	-1E+10	1	-1E+10	1
4901784	101	C	04/10/2018	10:44	-132.608	43.366	0	332.80	0	6.1790	0	34.0110	4	26.752	0	329.883	0	109.5	4	36.4	4	-1E+10	1	-1E+10	1	-1E+10	1	-1E+10	1	-1E+10	1	-1E+10	1
4901784	101	C	04/10/2018	10:44	-132.608	43.366	0	334.60	0	6.1570	0	34.0140	4	26.757	0	331.665	0	108.0	4	35.8	4	-1E+10	1	-1E+10	1	-1E+10	1	-1E+10	1	-1E+10	1	-1E+10	1
4901784	101	C	04/10/2018	10:44	-132.608	43.366	0	337.40	0	6.1280	0	34.0160	4	26.763	0	334.439	0	107.1	4	35.5	4	-1E+10	1	-1E+10	1	-1E+10	1	-1E+10	1	-1E+10	1	-1E+10	1
4901784	101	C	04/10/2018	10:44	-132.608	43.366	0	340.10	0	6.0950	0	34.0160	4	26.767	0	337.113	0	106.7	4	35.4	4	-1E+10	1	-1E+10	1	-1E+10	1	-1E+10	1	-1E+10	1	-1E+10	1
4901784	101	C	04/10/2018	10:44	-132.608	43.366	0	341.90	0	6.0650	0	34.0130	4	26.768	0	338.895	0	106.4	4	35.2	4	-1E+10	1	-1E+10	1	-1E+10	1	-1E+10	1	-1E+10	1	-1E+10	1
4901784	101	C	04/10/2018	10:44	-132.608	43.366	0	344.80	0	6.0060	0	34.0140	4	26.777	0	341.768	0	105.2	4	34.8	4	-1E+10	1	-1E+10	1	-1E+10	1	-1E+10	1	-1E+10	1	-1E+10	1
4901784	101	C	04/10/2018	10:44	-132.608	43.366	0	347.50	0	5.9800	0	34.0150	4	26.781	0	344.442	0	104.4	4	34.5	4	-1E+10	1	-1E+10	1	-1E+10	1	-1E+10	1	-1E+10	1	-1E+10	1
4901784	101	C	04/10/2018	10:44	-132.608	43.366	0	349.40	0	5.9710	0	34.0150	4	26.782	0	346.323	0	103.8	4	34.3	4	-1E+10	1	-1E+10	1	-1E+10	1	-1E+10	1	-1E+10	1	-1E+10	1
4901784	101	C	04/10/2018	10:44	-132.608	43.366	0	352.30	0	5.9710	0	34.0140	4	26.781	0	349.195	0	102.7	4	33.9	4	-1E+10	1	-1E+10	1	-1E+10	1	-1E+10	1	-1E+10	1	-1E+10	1
4901784	101	C	04/10/2018	10:44	-132.608	43.366	0	355.00	0	5.9490	0	34.0150	4	26.785	0	351.869	0	101.3	4	33.5	4	-1E+10	1	-1E+10	1	-1E+10	1	-1E+10	1	-1E+10	1	-1E+10	1
4901784	101	C	04/10/2018	10:44	-132.608	43.366	0	356.90	0	5.9360	0	34.0140	4	26.786	0	353.751	0	100.3	4	33.1	4	-1E+10	1	-1E+10	1	-1E+10	1	-1E+10	1	-1E+10	1	-1E+10	1
4901784	101	C	04/10/2018	10:44	-132.608	43.366	0	359.70	0	5.9090	0	34.0170	4	26.791	0	356.524	0	98.5	4	32.5	4	-1E+10	1	-1E+10	1	-1E+10	1	-1E+10	1	-1E+10	1	-1E+10	1
4901784	101	C	04/10/2018	10:44	-132.608	43.366	0	362.40	0	5.8530	0	34.0160	4	26.797	0	359.198	0	97.1	4	32.0	4	-1E+10	1	-1E+10	1	-1E+10	1	-1E+10	1	-1E+10	1	-1E+10	1
4901784	101	C	04/10/2018	10:44	-132.608	43.366	0	365.10	0	5.7720	0	34.0170	4	26.808	0	361.871	0	96.1	4	31.6	4	-1E+10	1	-1E+10	1	-1E+10	1	-1E+10	1	-1E+10	1	-1E+10	1
4901784	101	C	04/10/2018	10:44	-132.608	43.366	0	368.40	0	5.7300	0	34.0160	4	26.813	0	365.139	0	94.7	4	31.1	4	-1E+10	1	-1E+10	1	-1E+10	1	-1E+10	1	-1E+10	1	-1E+10	1
4901784	101	C	04/10/2018	10:44	-132.608	43.366	0	370.30	0	5.7090	0	34.0160	4	26.815	0	367.021	0	93.4	4	30.7	4	-1E+10	1	-1E+10	1	-1E+10	1	-1E+10	1	-1E+10	1	-1E+10	1
4901784	101	C	04/10/2018	10:44	-132.608	43.366	0	372.50	0	5.6730	0	34.0180	4	26.821	0	369.199	0	91.4	4	30.0	4	-1E+10	1	-1E+10	1	-1E+10	1	-1E+10	1	-1E+10	1	-1E+10	1
4901784	101	C	04/10/2018	10:44	-132.608	43.366	0	374.90	0	5.6470	0	34.0220	4	26.827	0	371.576	0	89.6	4	29.4	4	-1E+10	1	-1E+10	1	-1E+10	1	-1E+10	1	-1E+10	1	-1E+10	1
4901784	101	C	04/10/2018	10:44	-132.608	43.366	0	377.20	0	5.6530	0	34.0270	4	26.831	0	373.853	0	88.1	4	28.9	4	-1E+10	1	-1E+10	1	-1E+10	1	-1E+10	1	-1E+10	1	-1E+10	1
4901784	101	C	04/10/2018	10:44	-132.608	43.366	0	380.30	0	5.6510	0	34.0290	4	26.833	0	376.923	0	86.8	4	28.5	4	-1E+10	1	-1E+10	1	-1E+10	1	-1E+10	1	-1E+10	1	-1E+10	1
4901784	101	C	04/10/2018	10:44	-132.608	43.366	0	382.70	0	5.6440	0	34.0300	4	26.834	0	379.300	0	85.8	4	28.1	4	-1E+10	1	-1E+10	1	-1E+10	1	-1E+10	1	-1E+10	1	-1E+10	1
4901784	101	C	04/10/2018	10:44	-132.608	43.366	0	385.00	0	5.6120	0	34.0320	4	26.840	0	381.577	0	85.4	4	28.0	4	-1E+10	1	-1E+10	1	-1E+10	1	-1E+10	1	-1E+10	1	-1E+10	1
4901784	101	C	04/10/2018	10:44	-132.608	43.366	0	387.40	0	5.5970	0	34.0310	4	26.841	0	383.953	0	85.0	4	27.8	4	-1E+10	1	-1E+10	1	-1E+10	1	-1E+10	1	-1E+10	1	-1E+10	1
4901784	101	C	04/10/2018	10:44	-132.608	43.366	0	389.70	0	5.5820	0	34.0300	4	26.842	0	386.231	0	84.4	4	27.6	4	-1E+10	1	-1E+10	1	-1E+10	1	-1E+10	1	-1E+10	1	-1E+10	1
4901784	101	C	04/10/2018	10:44	-132.608	43.366	0	392.10	0	5.5720	0	34.0290	4	26.842	0	388.607	0	83.3	4	27.3	4	-1E+10	1	-1E+10	1	-1E+10	1	-1E+10	1	-1E+10	1	-1E+10	1
4901784	101	C	04/10/2018	10:44	-132.608	43.366	0	394.60	0	5.5290	0	34.0330	4	26.851	0	391.083	0	82.4	4	26.9	4	-1E+10	1	-1E+10	1	-1E+10	1	-1E+10	1	-1E+10	1	-1E+10	1
4901784	101	C	04/10/2018	10:44	-132.608	43.366	0	397.10	0	5.5120	0	34.0370	4	26.856	0	393.558	0	81.8	4	26.7	4	-1E+10	1	-1E+10	1	-1E+10	1	-1E+10	1	-1E+10	1	-1E+10	1
4901784	101	C	04/10/2018	10:44	-132.608	43.366	0	399.60	0	5.5000	0	34.0350	4	26.856	0	396.033	0	81.6	4	26.7	4	-1E+10	1	-1E+10	1	-1E+10	1	-1E+10	1	-1E+10	1	-1E+10	1
4901784	101	C	04/10/2018	10:44	-132.608	43.366	0	402.80	0	5.4900	0	34.0340	4	26.856	0	399.202	0	81.2	4	26.5	4	-1E+10	1	-1E+10	1	-1E+10	1	-1E+10	1	-1E+10	1	-1E+10	1
4901784	101	C	04/10/2018	10:44	-132.608	43.366	0	405.30	0	5.4280	0	34.0310	4	26.861	0	401.677	0	81.6	4	26.6	4	-1E+10	1	-1E+10	1	-1E+10	1	-1E+10	1	-1E+10	1	-1E+10	1
4901784	101	C	04/10/2018	10:44	-132.608	43.366	0	407.80	0	5.3660	0	34.0290	4	26.867	0	404.152	0	81.2	4	26.5	4	-1E+10	1	-1E+10	1	-1E+10	1	-1E+10	1	-1E+10	1	-1E+10	1
4901784	101	C	04/10/2018	10:44	-132.608	43.366	0	410.30	0	5.3520	0	34.0300	4	26.869	0	406.627	0	80.2	4	26.1	4	-1E+10	1	-1E+10	1	-1E+10	1	-1E+10	1	-1E+10	1	-1E+10	1
4901784	101	C	04/10/2018	10:44	-132.608	43.366	0	412.80	0	5.3350	0	34.0310	4	26.872	0	409.102	0	78.8	4	25.7	4	-1E+10	1	-1E+10	1	-1E+10	1	-1E+10	1	-1E+10	1	-1E+10	1
4901784	101	C	04/10/2018	10:44	-132.608	43.366	0	415.30	0	5.3110	0	34.0330	4	26.877	0	411.578	0	77.2	4	25.1	4	-1E+10	1	-1E+10	1	-1E+10	1	-1E+10	1	-1E+10	1	-1E+10	1
4901784	101	C	04/10/2018	10:44	-132.608	43.366	0	417.80	0	5.3240	0	34.0370	4	26.878	0	414.053	0	75.4	4	24.5	4	-1E+10	1	-1E+10	1	-1E+10	1	-1E+10	1	-1E+10	1	-1E+10	1
4901784	101	C	04/10/2018	10:44	-132.608	43.366	0	420.30	0	5.2950	0	34.0440	4	26.887	0	416.528	0	74.4	4	24.2	4	-1E+10	1	-1E+10	1	-1E+10	1	-1E+10	1	-1E+10	1	-1E+10	1
4901784	101	C	04/10/2018	10:44	-132.608	43.366	0	422.80	0	5.2830	0	34.0430	4	26.888	0	419.003	0	73.7	4	24.0	4	-1E+10	1	-1E+10	1	-1E+10	1	-1E+10	1	-1E+10	1	-1E+10	1
4901784	101	C	04/10/2018	10:44	-132.608	43.366	0	425.40	0	5.2550	0	34.0460	4	26.894	0	421.577	0	73.0	4	23.7	4	-1E+10	1	-1E+10	1	-1E+10	1	-1E+10	1	-1E+10	1	-1E+10	1
4901784	101	C	04/10/2018	10:44	-132.608	43.366	0	427.90	0	5.2440	0	34.0470	4	26.896	0	424.052	0	72.5	4	23.5	4	-1E+10	1	-1E+10	1	-1E+10	1	-1E+10	1	-1E+10	1	-1E+10	1
4901784	101	C	04/10/2018	10:44	-132.608	43.366	0	430.40	0	5.2410	0	34.0470	4	26.896	0	426.527	0	72.0	4	23.4	4	-1E+10	1	-1E+10	1	-1E+10	1	-1E+10	1	-1E+10	1	-1E+10	1
4901784	101	C	04/10/2018	10:44	-132.608	43.366	0	432.10	0	5.2370	0	34.0460	4	26.896	0	428.210	0	71.6	4	23.3	4	-1E+10	1	-1E+10	1	-1E+10	1	-1E+10	1	-1E+10	1	-1E+10	1
4901784	101	C	04/10/2018	10:44	-132.608	43.366	0	434.70	0	5.2100	0	34.0450	4	26.898	0	430.784	0	71.0	4	23.0	4	-1E+10	1	-1E+10	1	-1E+10	1	-1E+10	1	-1E+10	1	-1E+10	1
4901784	101	C	04/10/2018	10:44	-132.608	43.366	0	437.20	0	5.0870	0	34.0450	4	26.912	0	433.258	0	70.3	4	22.8	4	-1E+10	1	-1E+10	1	-1E+10	1	-1E+10	1	-1E+10	1	-1E+10	1
4901784	101	C	04/10/2018	10:44	-132.608	43.366	0	439.80	0	5.0510	0	34.0490	4	26.920	0	435.832	0	69.6	4	22.5	4	-1E+10	1	-1E+10	1	-1E+10	1	-1E+10	1	-1E+10	1	-1E+10	1
4901784	101	C	04/10/2018	10:44	-132.608	43.366	0	442.30	0	5.0210	0	34.0500	4	26.924	0	438.307	0	68.7	4	22.2	4	-1E+10	1	-1E+10	1	-1E+10	1	-1E+10	1	-1E+10	1	-1E+10	1
4901784	101	C	04/10/2018	10:44	-132.608	43.366	0	444.80	0	5.0160	0	34.0510	4	26.925	0	440.782	0	67.5	4	21.8	4	-1E+10	1	-1E+10	1	-1E+10	1	-1E+10	1	-1E+10	1	-1E+10	1
4901784	101	C	04/10/2018	10:44	-132.608	43.366	0	447.40	0	5.0110	0	34.0510	4	26.926	0	443.356	0	65.8	4	21.3	4	-1E+10	1	-1E+10	1	-1E+10	1	-1E+10	1	-1E+10	1	-1E+10	1
4901784	101	C	04/10/2018	10:44	-132.608	43.366	0	450.00	0	5.0020	0	34.0550	4	26.930	0	445.929	0	63.5	4	20.5	4	-1E+10	1	-1E+10	1	-1E+10	1	-1E+10	1	-1E+10	1	-1E+10	1
4901784	101	C	04/10/2018	10:44	-132.608	43.366	0	452.60	0	4.9810	0	34.0670	4	26.942	0	448.503	0	61.1	4	19.7	4	-1E+10	1	-1E+10	1	-1E+10	1	-1E+10	1	-1E+10	1	-1E+10	1
4901784	101	C	04/10/2018	10:44	-132.608	43.366	0	455.20	0	4.9530	0	34.0740	4	26.951	0	451.077	0	59.7	4	19.3	4	-1E+10	1	-1E+10	1	-1E+10	1	-1E+10	1	-1E+10	1	-1E+10	1
4901784	101	C	04/10/2018	10:44	-132.608	43.366	0	457.80	0	4.9440	0	34.0770	4	26.954	0	453.650	0	58.4	4	18.8	4	-1E+10	1	-1E+10	1	-1E+10	1	-1E+10	1	-1E+10	1	-1E+10	1
4901784	101	C	04/10/2018	10:44	-132.608	43.366	0	460.40	0	4.9290	0	34.0790	4	26.957	0	456.224	0	56.9	4	18.4	4	-1E+10	1	-1E+10	1	-1E+10	1	-1E+10	1	-1E+10	1	-1E+10	1
4901784	101	C	04/10/2018	10:44	-132.608	43.366	0	463.00	0	4.9000	0	34.0850	4	26.965	0	458.797	0	55.3	4	17.8	4	-1E+10	1	-1E+10	1	-1E+10	1	-1E+10	1	-1E+10	1	-1E+10	1
4901784	101	C	04/10/2018	10:44	-132.608	43.366	0	464.80	0	4.8760	0	34.0930	4	26.974	0	460.579	0	54.4	4	17.5	4	-1E+10	1	-1E+10	1	-1E+10	1	-1E+10	1	-1E+10	1	-1E+10	1
4901784	101	C	04/10/2018	10:44	-132.608	43.366	0	467.50	0	4.8680	0	34.0940	4	26.976	0	463.252	0	53.7	4	17.3	4	-1E+10	1	-1E+10	1	-1E+10	1	-1E+10	1	-1E+10	1	-1E+10	1
4901784	101	C	04/10/2018	10:44	-132.608	43.366	0	470.20	0	4.8580	0	34.0960	4	26.979	0	465.924	0	52.8	4	17.0	4	-1E+10	1	-1E+10	1	-1E+10	1	-1E+10	1	-1E+10	1	-1E+10	1
4901784	101	C	04/10/2018	10:44	-132.608	43.366	0	472.00	0	4.8550	0	34.0970	4	26.980	0	467.706	0	52.2	4	16.8	4	-1E+10	1	-1E+10	1	-1E+10	1	-1E+10	1	-1E+10	1	-1E+10	1
4901784	101	C	04/10/2018	10:44	-132.608	43.366	0	474.70	0	4.8480	0	34.0990	4	26.982	0	470.378	0	51.0	4	16.4	4	-1E+10	1	-1E+10	1	-1E+10	1	-1E+10	1	-1E+10	1	-1E+10	1
4901784	101	C	04/10/2018	10:44	-132.608	43.366	0	477.30	0	4.8260	0	34.1060	4	26.990	0	472.951	0	50.0	4	16.1	4	-1E+10	1	-1E+10	1	-1E+10	1	-1E+10	1	-1E+10	1	-1E+10	1
4901784	101	C	04/10/2018	10:44	-132.608	43.366	0	479.90	0	4.8190	0	34.1060	4	26.991	0	475.525	0	49.1	4	15.8	4	-1E+10	1	-1E+10	1	-1E+10	1	-1E+10	1	-1E+10	1	-1E+10	1
4901784	101	C	04/10/2018	10:44	-132.608	43.366	0	482.60	0	4.8050	0	34.1120	4	26.998	0	478.197	0	47.9	4	15.4	4	-1E+10	1	-1E+10	1	-1E+10	1	-1E+10	1	-1E+10	1	-1E+10	1
4901784	101	C	04/10/2018	10:44	-132.608	43.366	0	485.30	0	4.7730	0	34.1140	4	27.003	0	480.869	0	47.0	4	15.1	4	-1E+10	1	-1E+10	1	-1E+10	1	-1E+10	1	-1E+10	1	-1E+10	1
4901784	101	C	04/10/2018	10:44	-132.608	43.366	0	488.00	0	4.7710	0	34.1190	4	27.007	0	483.541	0	46.1	4	14.8	4	-1E+10	1	-1E+10	1	-1E+10	1	-1E+10	1	-1E+10	1	-1E+10	1
4901784	101	C	04/10/2018	10:44	-132.608	43.366	0	489.80	0	4.7720	0	34.1200	4	27.008	0	485.323	0	45.6	4	14.6	4	-1E+10	1	-1E+10	1	-1E+10	1	-1E+10	1	-1E+10	1	-1E+10	1
4901784	101	C	04/10/2018	10:44	-132.608	43.366	0	492.40	0	4.7800	0	34.1230	4	27.009	0	487.896	0	44.5	4	14.3	4	-1E+10	1	-1E+10	1	-1E+10	1	-1E+10	1	-1E+10	1	-1E+10	1
4901784	101	C	04/10/2018	10:44	-132.608	43.366	0	495.10	0	4.7840	0	34.1290	4	27.014	0	490.568	0	43.7	4	14.1	4	-1E+10	1	-1E+10	1	-1E+10	1	-1E+10	1	-1E+10	1	-1E+10	1
4901784	101	C	04/10/2018	10:44	-132.608	43.366	0	497.80	0	4.7540	0	34.1280	4	27.016	0	493.240	0	43.2	4	13.9	4	-1E+10	1	-1E+10	1	-1E+10	1	-1E+10	1	-1E+10	1	-1E+10	1
4901784	101	C	04/10/2018	10:44	-132.608	43.366	0	500.50	0	4.7210	0	34.1290	4	27.021	0	495.912	0	42.3	4	13.6	4	-1E+10	1	-1E+10	1	-1E+10	1	-1E+10	1	-1E+10	1	-1E+10	1
4901784	101	C	04/10/2018	10:44	-132.608	43.366	0	505.00	0	4.6980	0	34.1400	4	27.032	0	500.366	0	40.5	4	13.0	4	-1E+10	1	-1E+10	1	-1E+10	1	-1E+10	1	-1E+10	1	-1E+10	1
4901784	101	C	04/10/2018	10:44	-132.608	43.366	0	509.60	0	4.6800	0	34.1420	4	27.035	0	504.918	0	39.2	4	12.6	4	-1E+10	1	-1E+10	1	-1E+10	1	-1E+10	1	-1E+10	1	-1E+10	1
4901784	101	C	04/10/2018	10:44	-132.608	43.366	0	515.00	0	4.6610	0	34.1520	4	27.046	0	510.262	0	36.9	4	11.8	4	-1E+10	1	-1E+10	1	-1E+10	1	-1E+10	1	-1E+10	1	-1E+10	1
4901784	101	C	04/10/2018	10:44	-132.608	43.366	0	520.40	0	4.6430	0	34.1660	4	27.059	0	515.605	0	35.1	4	11.3	4	-1E+10	1	-1E+10	1	-1E+10	1	-1E+10	1	-1E+10	1	-1E+10	1
4901784	101	C	04/10/2018	10:44	-132.608	43.366	0	525.10	0	4.6230	0	34.1700	4	27.064	0	520.256	0	34.4	4	11.0	4	-1E+10	1	-1E+10	1	-1E+10	1	-1E+10	1	-1E+10	1	-1E+10	1
4901784	101	C	04/10/2018	10:44	-132.608	43.366	0	529.80	0	4.6000	0	34.1730	4	27.069	0	524.907	0	33.8	4	10.8	4	-1E+10	1	-1E+10	1	-1E+10	1	-1E+10	1	-1E+10	1	-1E+10	1
4901784	101	C	04/10/2018	10:44	-132.608	43.366	0	534.80	0	4.5780	0	34.1760	4	27.074	0	529.854	0	33.1	4	10.6	4	-1E+10	1	-1E+10	1	-1E+10	1	-1E+10	1	-1E+10	1	-1E+10	1
4901784	101	C	04/10/2018	10:44	-132.608	43.366	0	540.00	0	4.5580	0	34.1810	4	27.080	0	534.999	0	31.9	4	10.2	4	-1E+10	1	-1E+10	1	-1E+10	1	-1E+10	1	-1E+10	1	-1E+10	1
4901784	101	C	04/10/2018	10:44	-132.608	43.366	0	545.60	0	4.5500	0	34.1880	4	27.087	0	540.540	0	30.7	4	9.8	4	-1E+10	1	-1E+10	1	-1E+10	1	-1E+10	1	-1E+10	1	-1E+10	1
4901784	101	C	04/10/2018	10:44	-132.608	43.366	0	550.30	0	4.5450	0	34.1920	4	27.090	0	545.190	0	30.0	4	9.6	4	-1E+10	1	-1E+10	1	-1E+10	1	-1E+10	1	-1E+10	1	-1E+10	1
4901784	101	C	04/10/2018	10:44	-132.608	43.366	0	555.30	0	4.5370	0	34.1960	4	27.094	0	550.137	0	29.2	4	9.4	4	-1E+10	1	-1E+10	1	-1E+10	1	-1E+10	1	-1E+10	1	-1E+10	1
4901784	101	C	04/10/2018	10:44	-132.608	43.366	0	560.30	0	4.5350	0	34.1990	4	27.097	0	555.084	0	28.4	4	9.1	4	-1E+10	1	-1E+10	1	-1E+10	1	-1E+10	1	-1E+10	1	-1E+10	1
4901784	101	C	04/10/2018	10:44	-132.608	43.366	0	565.30	0	4.5260	0	34.2030	4	27.101	0	560.031	0	27.5	4	8.8	4	-1E+10	1	-1E+10	1	-1E+10	1	-1E+10	1	-1E+10	1	-1E+10	1
4901784	101	C	04/10/2018	10:44	-132.608	43.366	0	570.40	0	4.5250	0	34.2080	4	27.105	0	565.077	0	26.6	4	8.5	4	-1E+10	1	-1E+10	1	-1E+10	1	-1E+10	1	-1E+10	1	-1E+10	1
4901784	101	C	04/10/2018	10:44	-132.608	43.366	0	575.50	0	4.5080	0	34.2120	4	27.110	0	570.122	0	26.3	4	8.4	4	-1E+10	1	-1E+10	1	-1E+10	1	-1E+10	1	-1E+10	1	-1E+10	1
4901784	101	C	04/10/2018	10:44	-132.608	43.366	0	580.70	0	4.4770	0	34.2140	4	27.115	0	575.266	0	26.9	4	8.6	4	-1E+10	1	-1E+10	1	-1E+10	1	-1E+10	1	-1E+10	1	-1E+10	1
4901784	101	C	04/10/2018	10:44	-132.608	43.366	0	585.00	0	4.4150	0	34.2110	4	27.120	0	579.520	0	27.8	4	8.9	4	-1E+10	1	-1E+10	1	-1E+10	1	-1E+10	1	-1E+10	1	-1E+10	1
4901784	101	C	04/10/2018	10:44	-132.608	43.366	0	589.30	0	4.3240	0	34.2080	4	27.127	0	583.774	0	28.6	4	9.1	4	-1E+10	1	-1E+10	1	-1E+10	1	-1E+10	1	-1E+10	1	-1E+10	1
4901784	101	C	04/10/2018	10:44	-132.608	43.366	0	594.50	0	4.2850	0	34.2070	4	27.130	0	588.918	0	27.9	4	8.9	4	-1E+10	1	-1E+10	1	-1E+10	1	-1E+10	1	-1E+10	1	-1E+10	1
4901784	101	C	04/10/2018	10:44	-132.608	43.366	0	599.80	0	4.2360	0	34.2190	4	27.145	0	594.160	0	27.1	4	8.6	4	-1E+10	1	-1E+10	1	-1E+10	1	-1E+10	1	-1E+10	1	-1E+10	1
4901784	101	C	04/10/2018	10:44	-132.608	43.366	0	605.10	0	4.2230	0	34.2210	4	27.148	0	599.403	0	26.4	4	8.4	4	-1E+10	1	-1E+10	1	-1E+10	1	-1E+10	1	-1E+10	1	-1E+10	1
4901784	101	C	04/10/2018	10:44	-132.608	43.366	0	610.50	0	4.1960	0	34.2290	4	27.157	0	604.744	0	25.6	4	8.1	4	-1E+10	1	-1E+10	1	-1E+10	1	-1E+10	1	-1E+10	1	-1E+10	1
4901784	101	C	04/10/2018	10:44	-132.608	43.366	0	615.00	0	4.1790	0	34.2330	4	27.162	0	609.195	0	25.1	4	8.0	4	-1E+10	1	-1E+10	1	-1E+10	1	-1E+10	1	-1E+10	1	-1E+10	1
4901784	101	C	04/10/2018	10:44	-132.608	43.366	0	619.50	0	4.1660	0	34.2370	4	27.167	0	613.646	0	24.6	4	7.8	4	-1E+10	1	-1E+10	1	-1E+10	1	-1E+10	1	-1E+10	1	-1E+10	1
4901784	101	C	04/10/2018	10:44	-132.608	43.366	0	624.80	0	4.1500	0	34.2410	4	27.172	0	618.888	0	23.9	4	7.6	4	-1E+10	1	-1E+10	1	-1E+10	1	-1E+10	1	-1E+10	1	-1E+10	1
4901784	101	C	04/10/2018	10:44	-132.608	43.366	0	630.20	0	4.1270	0	34.2480	4	27.180	0	624.229	0	23.3	4	7.4	4	-1E+10	1	-1E+10	1	-1E+10	1	-1E+10	1	-1E+10	1	-1E+10	1
4901784	101	C	04/10/2018	10:44	-132.608	43.366	0	634.80	0	4.1180	0	34.2510	4	27.183	0	628.778	0	22.9	4	7.2	4	-1E+10	1	-1E+10	1	-1E+10	1	-1E+10	1	-1E+10	1	-1E+10	1
4901784	101	C	04/10/2018	10:44	-132.608	43.366	0	639.30	0	4.1070	0	34.2540	4	27.187	0	633.229	0	22.5	4	7.1	4	-1E+10	1	-1E+10	1	-1E+10	1	-1E+10	1	-1E+10	1	-1E+10	1
4901784	101	C	04/10/2018	10:44	-132.608	43.366	0	644.80	0	4.0990	0	34.2570	4	27.190	0	638.668	0	22.0	4	7.0	4	-1E+10	1	-1E+10	1	-1E+10	1	-1E+10	1	-1E+10	1	-1E+10	1
4901784	101	C	04/10/2018	10:44	-132.608	43.366	0	650.30	0	4.0830	0	34.2620	4	27.196	0	644.107	0	21.4	4	6.8	4	-1E+10	1	-1E+10	1	-1E+10	1	-1E+10	1	-1E+10	1	-1E+10	1
4901784	101	C	04/10/2018	10:44	-132.608	43.366	0	654.90	0	4.0710	0	34.2650	4	27.199	0	648.656	0	20.9	4	6.6	4	-1E+10	1	-1E+10	1	-1E+10	1	-1E+10	1	-1E+10	1	-1E+10	1
4901784	101	C	04/10/2018	10:44	-132.608	43.366	0	659.60	0	4.0560	0	34.2690	4	27.204	0	653.304	0	20.4	4	6.4	4	-1E+10	1	-1E+10	1	-1E+10	1	-1E+10	1	-1E+10	1	-1E+10	1
4901784	101	C	04/10/2018	10:44	-132.608	43.366	0	665.10	0	4.0370	0	34.2760	4	27.212	0	658.743	0	19.8	4	6.3	4	-1E+10	1	-1E+10	1	-1E+10	1	-1E+10	1	-1E+10	1	-1E+10	1
4901784	101	C	04/10/2018	10:44	-132.608	43.366	0	669.80	0	4.0270	0	34.2790	4	27.215	0	663.391	0	19.5	4	6.2	4	-1E+10	1	-1E+10	1	-1E+10	1	-1E+10	1	-1E+10	1	-1E+10	1
4901784	101	C	04/10/2018	10:44	-132.608	43.366	0	674.50	0	4.0180	0	34.2820	4	27.218	0	668.038	0	19.1	4	6.1	4	-1E+10	1	-1E+10	1	-1E+10	1	-1E+10	1	-1E+10	1	-1E+10	1
4901784	101	C	04/10/2018	10:44	-132.608	43.366	0	680.30	0	4.0080	0	34.2850	4	27.222	0	673.773	0	18.8	4	5.9	4	-1E+10	1	-1E+10	1	-1E+10	1	-1E+10	1	-1E+10	1	-1E+10	1
4901784	101	C	04/10/2018	10:44	-132.608	43.366	0	685.10	0	4.0020	0	34.2870	4	27.224	0	678.519	0	18.5	4	5.8	4	-1E+10	1	-1E+10	1	-1E+10	1	-1E+10	1	-1E+10	1	-1E+10	1
4901784	101	C	04/10/2018	10:44	-132.608	43.366	0	689.90	0	3.9920	0	34.2900	4	27.227	0	683.265	0	18.1	4	5.7	4	-1E+10	1	-1E+10	1	-1E+10	1	-1E+10	1	-1E+10	1	-1E+10	1
4901784	101	C	04/10/2018	10:44	-132.608	43.366	0	694.70	0	3.9800	0	34.2940	4	27.232	0	688.011	0	17.8	4	5.6	4	-1E+10	1	-1E+10	1	-1E+10	1	-1E+10	1	-1E+10	1	-1E+10	1
4901784	101	C	04/10/2018	10:44	-132.608	43.366	0	699.60	0	3.9740	0	34.2950	4	27.233	0	692.856	0	17.6	4	5.5	4	-1E+10	1	-1E+10	1	-1E+10	1	-1E+10	1	-1E+10	1	-1E+10	1
4901784	101	C	04/10/2018	10:44	-132.608	43.366	0	705.00	0	3.9610	0	34.3000	4	27.239	0	698.195	0	17.3	4	5.5	4	-1E+10	1	-1E+10	1	-1E+10	1	-1E+10	1	-1E+10	1	-1E+10	1
4901784	101	C	04/10/2018	10:44	-132.608	43.366	0	709.40	0	3.9590	0	34.3000	4	27.239	0	702.545	0	17.1	4	5.4	4	-1E+10	1	-1E+10	1	-1E+10	1	-1E+10	1	-1E+10	1	-1E+10	1
4901784	101	C	04/10/2018	10:44	-132.608	43.366	0	715.00	0	3.9520	0	34.3030	4	27.242	0	708.081	0	16.9	4	5.3	4	-1E+10	1	-1E+10	1	-1E+10	1	-1E+10	1	-1E+10	1	-1E+10	1
4901784	101	C	04/10/2018	10:44	-132.608	43.366	0	720.70	0	3.9490	0	34.3040	4	27.243	0	713.716	0	16.7	4	5.3	4	-1E+10	1	-1E+10	1	-1E+10	1	-1E+10	1	-1E+10	1	-1E+10	1
4901784	101	C	04/10/2018	10:44	-132.608	43.366	0	725.60	0	3.9430	0	34.3050	4	27.245	0	718.560	0	16.5	4	5.2	4	-1E+10	1	-1E+10	1	-1E+10	1	-1E+10	1	-1E+10	1	-1E+10	1
4901784	101	C	04/10/2018	10:44	-132.608	43.366	0	730.60	0	3.9350	0	34.3080	4	27.248	0	723.503	0	16.1	4	5.1	4	-1E+10	1	-1E+10	1	-1E+10	1	-1E+10	1	-1E+10	1	-1E+10	1
4901784	101	C	04/10/2018	10:44	-132.608	43.366	0	735.60	0	3.9260	0	34.3100	4	27.250	0	728.446	0	15.7	4	5.0	4	-1E+10	1	-1E+10	1	-1E+10	1	-1E+10	1	-1E+10	1	-1E+10	1
4901784	101	C	04/10/2018	10:44	-132.608	43.366	0	740.50	0	3.9100	0	34.3160	4	27.257	0	733.290	0	15.2	4	4.8	4	-1E+10	1	-1E+10	1	-1E+10	1	-1E+10	1	-1E+10	1	-1E+10	1
4901784	101	C	04/10/2018	10:44	-132.608	43.366	0	745.40	0	3.8910	0	34.3220	4	27.264	0	738.133	0	14.8	4	4.7	4	-1E+10	1	-1E+10	1	-1E+10	1	-1E+10	1	-1E+10	1	-1E+10	1
4901784	101	C	04/10/2018	10:44	-132.608	43.366	0	750.40	0	3.8720	0	34.3280	4	27.270	0	743.076	0	14.4	4	4.6	4	-1E+10	1	-1E+10	1	-1E+10	1	-1E+10	1	-1E+10	1	-1E+10	1
4901784	101	C	04/10/2018	10:44	-132.608	43.366	0	755.40	0	3.8650	0	34.3300	4	27.273	0	748.018	0	14.1	4	4.4	4	-1E+10	1	-1E+10	1	-1E+10	1	-1E+10	1	-1E+10	1	-1E+10	1
4901784	101	C	04/10/2018	10:44	-132.608	43.366	0	760.40	0	3.8590	0	34.3370	4	27.279	0	752.960	0	13.7	4	4.3	4	-1E+10	1	-1E+10	1	-1E+10	1	-1E+10	1	-1E+10	1	-1E+10	1
4901784	101	C	04/10/2018	10:44	-132.608	43.366	0	765.50	0	3.8570	0	34.3410	4	27.282	0	758.001	0	13.4	4	4.2	4	-1E+10	1	-1E+10	1	-1E+10	1	-1E+10	1	-1E+10	1	-1E+10	1
4901784	101	C	04/10/2018	10:44	-132.608	43.366	0	770.40	0	3.8550	0	34.3440	4	27.285	0	762.844	0	13.1	4	4.1	4	-1E+10	1	-1E+10	1	-1E+10	1	-1E+10	1	-1E+10	1	-1E+10	1
4901784	101	C	04/10/2018	10:44	-132.608	43.366	0	775.30	0	3.8400	0	34.3510	4	27.292	0	767.687	0	12.7	4	4.0	4	-1E+10	1	-1E+10	1	-1E+10	1	-1E+10	1	-1E+10	1	-1E+10	1
4901784	101	C	04/10/2018	10:44	-132.608	43.366	0	780.40	0	3.8370	0	34.3570	4	27.297	0	772.727	0	12.5	4	3.9	4	-1E+10	1	-1E+10	1	-1E+10	1	-1E+10	1	-1E+10	1	-1E+10	1
4901784	101	C	04/10/2018	10:44	-132.608	43.366	0	785.50	0	3.8380	0	34.3580	4	27.298	0	777.768	0	12.2	4	3.8	4	-1E+10	1	-1E+10	1	-1E+10	1	-1E+10	1	-1E+10	1	-1E+10	1
4901784	101	C	04/10/2018	10:44	-132.608	43.366	0	790.60	0	3.8330	0	34.3660	4	27.305	0	782.808	0	11.7	4	3.7	4	-1E+10	1	-1E+10	1	-1E+10	1	-1E+10	1	-1E+10	1	-1E+10	1
4901784	101	C	04/10/2018	10:44	-132.608	43.366	0	794.90	0	3.8350	0	34.3770	4	27.313	0	787.058	0	11.4	4	3.6	4	-1E+10	1	-1E+10	1	-1E+10	1	-1E+10	1	-1E+10	1	-1E+10	1
4901784	101	C	04/10/2018	10:44	-132.608	43.366	0	799.30	0	3.8640	0	34.3860	4	27.318	0	791.406	0	11.1	4	3.5	4	-1E+10	1	-1E+10	1	-1E+10	1	-1E+10	1	-1E+10	1	-1E+10	1
4901784	101	C	04/10/2018	10:44	-132.608	43.366	0	804.60	0	3.8850	0	34.3920	4	27.320	0	796.643	0	10.9	4	3.5	4	-1E+10	1	-1E+10	1	-1E+10	1	-1E+10	1	-1E+10	1	-1E+10	1
4901784	101	C	04/10/2018	10:44	-132.608	43.366	0	809.80	0	3.9060	0	34.3970	4	27.322	0	801.782	0	10.8	4	3.4	4	-1E+10	1	-1E+10	1	-1E+10	1	-1E+10	1	-1E+10	1	-1E+10	1
4901784	101	C	04/10/2018	10:44	-132.608	43.366	0	815.20	0	3.9170	0	34.4000	4	27.324	0	807.118	0	10.7	4	3.4	4	-1E+10	1	-1E+10	1	-1E+10	1	-1E+10	1	-1E+10	1	-1E+10	1
4901784	101	C	04/10/2018	10:44	-132.608	43.366	0	820.60	0	3.9290	0	34.4020	4	27.324	0	812.454	0	10.6	4	3.3	4	-1E+10	1	-1E+10	1	-1E+10	1	-1E+10	1	-1E+10	1	-1E+10	1
4901784	101	C	04/10/2018	10:44	-132.608	43.366	0	825.00	0	3.9330	0	34.4050	4	27.326	0	816.802	0	10.5	4	3.3	4	-1E+10	1	-1E+10	1	-1E+10	1	-1E+10	1	-1E+10	1	-1E+10	1
4901784	101	C	04/10/2018	10:44	-132.608	43.366	0	829.50	0	3.9370	0	34.4100	4	27.330	0	821.248	0	10.4	4	3.3	4	-1E+10	1	-1E+10	1	-1E+10	1	-1E+10	1	-1E+10	1	-1E+10	1
4901784	101	C	04/10/2018	10:44	-132.608	43.366	0	834.90	0	3.9200	0	34.4160	4	27.336	0	826.584	0	10.4	4	3.3	4	-1E+10	1	-1E+10	1	-1E+10	1	-1E+10	1	-1E+10	1	-1E+10	1
4901784	101	C	04/10/2018	10:44	-132.608	43.366	0	840.20	0	3.9160	0	34.4200	4	27.340	0	831.821	0	10.3	4	3.3	4	-1E+10	1	-1E+10	1	-1E+10	1	-1E+10	1	-1E+10	1	-1E+10	1
4901784	101	C	04/10/2018	10:44	-132.608	43.366	0	845.60	0	3.9100	0	34.4210	4	27.341	0	837.156	0	10.3	4	3.3	4	-1E+10	1	-1E+10	1	-1E+10	1	-1E+10	1	-1E+10	1	-1E+10	1
4901784	101	C	04/10/2018	10:44	-132.608	43.366	0	850.20	0	3.9050	0	34.4230	4	27.343	0	841.701	0	10.3	4	3.3	4	-1E+10	1	-1E+10	1	-1E+10	1	-1E+10	1	-1E+10	1	-1E+10	1
4901784	101	C	04/10/2018	10:44	-132.608	43.366	0	854.80	0	3.8870	0	34.4240	4	27.346	0	846.245	0	10.4	4	3.3	4	-1E+10	1	-1E+10	1	-1E+10	1	-1E+10	1	-1E+10	1	-1E+10	1
4901784	101	C	04/10/2018	10:44	-132.608	43.366	0	860.30	0	3.8750	0	34.4260	4	27.349	0	851.679	0	10.4	4	3.3	4	-1E+10	1	-1E+10	1	-1E+10	1	-1E+10	1	-1E+10	1	-1E+10	1
4901784	101	C	04/10/2018	10:44	-132.608	43.366	0	865.00	0	3.8570	0	34.4290	4	27.353	0	856.322	0	10.4	4	3.3	4	-1E+10	1	-1E+10	1	-1E+10	1	-1E+10	1	-1E+10	1	-1E+10	1
4901784	101	C	04/10/2018	10:44	-132.608	43.366	0	869.60	0	3.8400	0	34.4310	4	27.356	0	860.867	0	10.4	4	3.3	4	-1E+10	1	-1E+10	1	-1E+10	1	-1E+10	1	-1E+10	1	-1E+10	1
4901784	101	C	04/10/2018	10:44	-132.608	43.366	0	875.10	0	3.8190	0	34.4340	4	27.361	0	866.300	0	10.5	4	3.3	4	-1E+10	1	-1E+10	1	-1E+10	1	-1E+10	1	-1E+10	1	-1E+10	1
4901784	101	C	04/10/2018	10:44	-132.608	43.366	0	880.60	0	3.7900	0	34.4370	4	27.366	0	871.733	0	10.5	4	3.3	4	-1E+10	1	-1E+10	1	-1E+10	1	-1E+10	1	-1E+10	1	-1E+10	1
4901784	101	C	04/10/2018	10:44	-132.608	43.366	0	885.30	0	3.7670	0	34.4370	4	27.369	0	876.376	0	10.6	4	3.3	4	-1E+10	1	-1E+10	1	-1E+10	1	-1E+10	1	-1E+10	1	-1E+10	1
4901784	101	C	04/10/2018	10:44	-132.608	43.366	0	889.80	0	3.7410	0	34.4390	4	27.373	0	880.821	0	10.7	4	3.3	4	-1E+10	1	-1E+10	1	-1E+10	1	-1E+10	1	-1E+10	1	-1E+10	1
4901784	101	C	04/10/2018	10:44	-132.608	43.366	0	895.40	0	3.7230	0	34.4400	4	27.375	0	886.353	0	10.7	4	3.4	4	-1E+10	1	-1E+10	1	-1E+10	1	-1E+10	1	-1E+10	1	-1E+10	1
4901784	101	C	04/10/2018	10:44	-132.608	43.366	0	900.00	0	3.7140	0	34.4400	4	27.376	0	890.897	0	10.7	4	3.4	4	-1E+10	1	-1E+10	1	-1E+10	1	-1E+10	1	-1E+10	1	-1E+10	1
4901784	101	C	04/10/2018	10:44	-132.608	43.366	0	904.60	0	3.7090	0	34.4400	4	27.377	0	895.440	0	10.7	4	3.4	4	-1E+10	1	-1E+10	1	-1E+10	1	-1E+10	1	-1E+10	1	-1E+10	1
4901784	101	C	04/10/2018	10:44	-132.608	43.366	0	910.20	0	3.7070	0	34.4400	4	27.377	0	900.972	0	10.7	4	3.4	4	-1E+10	1	-1E+10	1	-1E+10	1	-1E+10	1	-1E+10	1	-1E+10	1
4901784	101	C	04/10/2018	10:44	-132.608	43.366	0	914.80	0	3.7030	0	34.4390	4	27.377	0	905.515	0	10.8	4	3.4	4	-1E+10	1	-1E+10	1	-1E+10	1	-1E+10	1	-1E+10	1	-1E+10	1
4901784	101	C	04/10/2018	10:44	-132.608	43.366	0	919.40	0	3.6580	0	34.4430	4	27.384	0	910.058	0	10.9	4	3.4	4	-1E+10	1	-1E+10	1	-1E+10	1	-1E+10	1	-1E+10	1	-1E+10	1
4901784	101	C	04/10/2018	10:44	-132.608	43.366	0	924.90	0	3.6110	0	34.4480	4	27.393	0	915.490	0	11.0	4	3.4	4	-1E+10	1	-1E+10	1	-1E+10	1	-1E+10	1	-1E+10	1	-1E+10	1
4901784	101	C	04/10/2018	10:44	-132.608	43.366	0	929.70	0	3.5810	0	34.4520	4	27.399	0	920.231	0	11.0	4	3.5	4	-1E+10	1	-1E+10	1	-1E+10	1	-1E+10	1	-1E+10	1	-1E+10	1
4901784	101	C	04/10/2018	10:44	-132.608	43.366	0	934.50	0	3.5760	0	34.4520	4	27.400	0	924.972	0	11.1	4	3.5	4	-1E+10	1	-1E+10	1	-1E+10	1	-1E+10	1	-1E+10	1	-1E+10	1
4901784	101	C	04/10/2018	10:44	-132.608	43.366	0	940.20	0	3.5610	0	34.4530	4	27.402	0	930.601	0	11.2	4	3.5	4	-1E+10	1	-1E+10	1	-1E+10	1	-1E+10	1	-1E+10	1	-1E+10	1
4901784	101	C	04/10/2018	10:44	-132.608	43.366	0	944.90	0	3.5320	0	34.4580	4	27.409	0	935.242	0	11.2	4	3.5	4	-1E+10	1	-1E+10	1	-1E+10	1	-1E+10	1	-1E+10	1	-1E+10	1
4901784	101	C	04/10/2018	10:44	-132.608	43.366	0	949.50	0	3.5170	0	34.4600	4	27.412	0	939.785	0	11.3	4	3.5	4	-1E+10	1	-1E+10	1	-1E+10	1	-1E+10	1	-1E+10	1	-1E+10	1
4901784	101	C	04/10/2018	10:44	-132.608	43.366	0	955.20	0	3.5060	0	34.4610	4	27.414	0	945.414	0	11.4	4	3.6	4	-1E+10	1	-1E+10	1	-1E+10	1	-1E+10	1	-1E+10	1	-1E+10	1
4901784	101	C	04/10/2018	10:44	-132.608	43.366	0	959.90	0	3.4940	0	34.4630	4	27.417	0	950.055	0	11.5	4	3.6	4	-1E+10	1	-1E+10	1	-1E+10	1	-1E+10	1	-1E+10	1	-1E+10	1
4901784	101	C	04/10/2018	10:44	-132.608	43.366	0	964.50	0	3.4690	0	34.4680	4	27.423	0	954.597	0	11.7	4	3.7	4	-1E+10	1	-1E+10	1	-1E+10	1	-1E+10	1	-1E+10	1	-1E+10	1
4901784	101	C	04/10/2018	10:44	-132.608	43.366	0	970.30	0	3.4410	0	34.4750	4	27.431	0	960.324	0	12.0	4	3.7	4	-1E+10	1	-1E+10	1	-1E+10	1	-1E+10	1	-1E+10	1	-1E+10	1
4901784	101	C	04/10/2018	10:44	-132.608	43.366	0	974.50	0	3.4270	0	34.4780	4	27.435	0	964.472	0	12.1	4	3.8	4	-1E+10	1	-1E+10	1	-1E+10	1	-1E+10	1	-1E+10	1	-1E+10	1
4901784	101	C	04/10/2018	10:44	-132.608	43.366	0	979.50	0	3.4210	0	34.4790	4	27.436	0	969.409	0	12.3	4	3.8	4	-1E+10	1	-1E+10	1	-1E+10	1	-1E+10	1	-1E+10	1	-1E+10	1
4901784	101	C	04/10/2018	10:44	-132.608	43.366	0	984.50	0	3.3940	0	34.4870	4	27.445	0	974.345	0	12.7	4	4.0	4	-1E+10	1	-1E+10	1	-1E+10	1	-1E+10	1	-1E+10	1	-1E+10	1
4901784	101	C	04/10/2018	10:44	-132.608	43.366	0	989.40	0	3.3790	0	34.4920	4	27.451	0	979.184	0	12.9	4	4.0	4	-1E+10	1	-1E+10	1	-1E+10	1	-1E+10	1	-1E+10	1	-1E+10	1
4901784	101	C	04/10/2018	10:44	-132.608	43.366	0	994.40	0	3.3680	0	34.4960	4	27.455	0	984.120	0	13.2	4	4.1	4	-1E+10	1	-1E+10	1	-1E+10	1	-1E+10	1	-1E+10	1	-1E+10	1
4901784	101	C	04/10/2018	10:44	-132.608	43.366	0	999.50	0	3.3480	0	34.5020	4	27.462	0	989.155	0	13.5	4	4.2	4	-1E+10	1	-1E+10	1	-1E+10	1	-1E+10	1	-1E+10	1	-1E+10	1
4901784	101	C	04/10/2018	10:44	-132.608	43.366	0	1004.60	0	3.3320	0	34.5070	4	27.467	0	994.190	0	13.8	4	4.3	4	-1E+10	1	-1E+10	1	-1E+10	1	-1E+10	1	-1E+10	1	-1E+10	1
4901784	101	C	04/10/2018	10:44	-132.608	43.366	0	1009.80	0	3.3260	0	34.5090	4	27.470	0	999.324	0	14.0	4	4.3	4	-1E+10	1	-1E+10	1	-1E+10	1	-1E+10	1	-1E+10	1	-1E+10	1
4901784	101	C	04/10/2018	10:44	-132.608	43.366	0	1014.80	0	3.3190	0	34.5120	4	27.473	0	1004.260	0	14.3	4	4.4	4	-1E+10	1	-1E+10	1	-1E+10	1	-1E+10	1	-1E+10	1	-1E+10	1
4901784	101	C	04/10/2018	10:44	-132.608	43.366	0	1020.10	0	3.3110	0	34.5160	4	27.477	0	1009.493	0	14.8	4	4.6	4	-1E+10	1	-1E+10	1	-1E+10	1	-1E+10	1	-1E+10	1	-1E+10	1
4901784	101	C	04/10/2018	10:44	-132.608	43.366	0	1025.30	0	3.3100	0	34.5200	4	27.480	0	1014.626	0	15.2	4	4.7	4	-1E+10	1	-1E+10	1	-1E+10	1	-1E+10	1	-1E+10	1	-1E+10	1
4901784	101	C	04/10/2018	10:44	-132.608	43.366	0	1030.50	0	3.3080	0	34.5240	4	27.483	0	1019.759	0	15.8	4	4.9	4	-1E+10	1	-1E+10	1	-1E+10	1	-1E+10	1	-1E+10	1	-1E+10	1
4901784	101	C	04/10/2018	10:44	-132.608	43.366	0	1035.70	0	3.3020	0	34.5290	4	27.488	0	1024.892	0	16.3	4	5.1	4	-1E+10	1	-1E+10	1	-1E+10	1	-1E+10	1	-1E+10	1	-1E+10	1
4901784	101	C	04/10/2018	10:44	-132.608	43.366	0	1040.10	0	3.3010	0	34.5320	4	27.490	0	1029.236	0	16.6	4	5.2	4	-1E+10	1	-1E+10	1	-1E+10	1	-1E+10	1	-1E+10	1	-1E+10	1
4901784	101	C	04/10/2018	10:44	-132.608	43.366	0	1044.50	0	3.3010	0	34.5350	4	27.493	0	1033.579	0	17.0	4	5.3	4	-1E+10	1	-1E+10	1	-1E+10	1	-1E+10	1	-1E+10	1	-1E+10	1
4901784	101	C	04/10/2018	10:44	-132.608	43.366	0	1049.70	0	3.3000	0	34.5380	4	27.495	0	1038.711	0	17.4	4	5.4	4	-1E+10	1	-1E+10	1	-1E+10	1	-1E+10	1	-1E+10	1	-1E+10	1
4901784	101	C	04/10/2018	10:44	-132.608	43.366	0	1055.00	0	3.2980	0	34.5420	4	27.499	0	1043.943	0	17.9	4	5.6	4	-1E+10	1	-1E+10	1	-1E+10	1	-1E+10	1	-1E+10	1	-1E+10	1
4901784	101	C	04/10/2018	10:44	-132.608	43.366	0	1060.40	0	3.2970	0	34.5450	4	27.501	0	1049.273	0	18.2	4	5.7	4	-1E+10	1	-1E+10	1	-1E+10	1	-1E+10	1	-1E+10	1	-1E+10	1
4901784	101	C	04/10/2018	10:44	-132.608	43.366	0	1064.80	0	3.2980	0	34.5460	4	27.502	0	1053.616	0	18.3	4	5.7	4	-1E+10	1	-1E+10	1	-1E+10	1	-1E+10	1	-1E+10	1	-1E+10	1
4901784	101	C	04/10/2018	10:44	-132.608	43.366	0	1069.30	0	3.2990	0	34.5470	4	27.503	0	1058.057	0	18.6	4	5.8	4	-1E+10	1	-1E+10	1	-1E+10	1	-1E+10	1	-1E+10	1	-1E+10	1
4901784	101	C	04/10/2018	10:44	-132.608	43.366	0	1074.70	0	3.2970	0	34.5500	4	27.505	0	1063.386	0	19.0	4	5.9	4	-1E+10	1	-1E+10	1	-1E+10	1	-1E+10	1	-1E+10	1	-1E+10	1
4901784	101	C	04/10/2018	10:44	-132.608	43.366	0	1080.30	0	3.2950	0	34.5520	4	27.507	0	1068.913	0	19.3	4	6.0	4	-1E+10	1	-1E+10	1	-1E+10	1	-1E+10	1	-1E+10	1	-1E+10	1
4901784	101	C	04/10/2018	10:44	-132.608	43.366	0	1084.90	0	3.2930	0	34.5540	4	27.509	0	1073.453	0	19.6	4	6.1	4	-1E+10	1	-1E+10	1	-1E+10	1	-1E+10	1	-1E+10	1	-1E+10	1
4901784	101	C	04/10/2018	10:44	-132.608	43.366	0	1089.40	0	3.2900	0	34.5570	4	27.512	0	1077.894	0	20.0	4	6.2	4	-1E+10	1	-1E+10	1	-1E+10	1	-1E+10	1	-1E+10	1	-1E+10	1
4901784	101	C	04/10/2018	10:44	-132.608	43.366	0	1095.00	0	3.2880	0	34.5610	4	27.515	0	1083.420	0	20.2	4	6.3	4	-1E+10	1	-1E+10	1	-1E+10	1	-1E+10	1	-1E+10	1	-1E+10	1
4901784	101	C	04/10/2018	10:44	-132.608	43.366	0	1099.70	0	3.2880	0	34.5610	4	27.515	0	1088.058	0	20.4	4	6.3	4	-1E+10	1	-1E+10	1	-1E+10	1	-1E+10	1	-1E+10	1	-1E+10	1
4901784	101	C	04/10/2018	10:44	-132.608	43.366	0	1104.90	0	3.2880	0	34.5620	4	27.516	0	1093.190	0	20.6	4	6.4	4	-1E+10	1	-1E+10	1	-1E+10	1	-1E+10	1	-1E+10	1	-1E+10	1
4901784	101	C	04/10/2018	10:44	-132.608	43.366	0	1110.40	0	3.2880	0	34.5650	4	27.518	0	1098.617	0	20.9	4	6.5	4	-1E+10	1	-1E+10	1	-1E+10	1	-1E+10	1	-1E+10	1	-1E+10	1
4901784	101	C	04/10/2018	10:44	-132.608	43.366	0	1115.30	0	3.2850	0	34.5660	4	27.520	0	1103.452	0	21.0	4	6.5	4	-1E+10	1	-1E+10	1	-1E+10	1	-1E+10	1	-1E+10	1	-1E+10	1
4901784	101	C	04/10/2018	10:44	-132.608	43.366	0	1120.50	0	3.2840	0	34.5670	4	27.521	0	1108.583	0	21.1	4	6.6	4	-1E+10	1	-1E+10	1	-1E+10	1	-1E+10	1	-1E+10	1	-1E+10	1
4901784	101	C	04/10/2018	10:44	-132.608	43.366	0	1125.00	0	3.2830	0	34.5670	4	27.521	0	1113.024	0	21.3	4	6.6	4	-1E+10	1	-1E+10	1	-1E+10	1	-1E+10	1	-1E+10	1	-1E+10	1
4901784	101	C	04/10/2018	10:44	-132.608	43.366	0	1129.60	0	3.2800	0	34.5690	4	27.523	0	1117.562	0	21.5	4	6.7	4	-1E+10	1	-1E+10	1	-1E+10	1	-1E+10	1	-1E+10	1	-1E+10	1
4901784	101	C	04/10/2018	10:44	-132.608	43.366	0	1135.00	0	3.2790	0	34.5700	4	27.524	0	1122.891	0	21.7	4	6.8	4	-1E+10	1	-1E+10	1	-1E+10	1	-1E+10	1	-1E+10	1	-1E+10	1
4901784	101	C	04/10/2018	10:44	-132.608	43.366	0	1140.40	0	3.2760	0	34.5720	4	27.525	0	1128.218	0	22.1	4	6.9	4	-1E+10	1	-1E+10	1	-1E+10	1	-1E+10	1	-1E+10	1	-1E+10	1
4901784	101	C	04/10/2018	10:44	-132.608	43.366	0	1145.10	0	3.2750	0	34.5740	4	27.527	0	1132.856	0	22.3	4	6.9	4	-1E+10	1	-1E+10	1	-1E+10	1	-1E+10	1	-1E+10	1	-1E+10	1
4901784	101	C	04/10/2018	10:44	-132.608	43.366	0	1149.70	0	3.2720	0	34.5770	4	27.530	0	1137.394	0	22.7	4	7.1	4	-1E+10	1	-1E+10	1	-1E+10	1	-1E+10	1	-1E+10	1	-1E+10	1
4901784	101	C	04/10/2018	10:44	-132.608	43.366	0	1155.20	0	3.2680	0	34.5790	4	27.532	0	1142.820	0	22.9	4	7.1	4	-1E+10	1	-1E+10	1	-1E+10	1	-1E+10	1	-1E+10	1	-1E+10	1
4901784	101	C	04/10/2018	10:44	-132.608	43.366	0	1159.90	0	3.2620	0	34.5800	4	27.533	0	1147.457	0	23.0	4	7.2	4	-1E+10	1	-1E+10	1	-1E+10	1	-1E+10	1	-1E+10	1	-1E+10	1
4901784	101	C	04/10/2018	10:44	-132.608	43.366	0	1164.60	0	3.2610	0	34.5810	4	27.534	0	1152.094	0	23.2	4	7.2	4	-1E+10	1	-1E+10	1	-1E+10	1	-1E+10	1	-1E+10	1	-1E+10	1
4901784	101	C	04/10/2018	10:44	-132.608	43.366	0	1170.30	0	3.2620	0	34.5810	4	27.534	0	1157.717	0	23.3	4	7.3	4	-1E+10	1	-1E+10	1	-1E+10	1	-1E+10	1	-1E+10	1	-1E+10	1
4901784	101	C	04/10/2018	10:44	-132.608	43.366	0	1175.00	0	3.2610	0	34.5830	4	27.536	0	1162.353	0	23.6	4	7.3	4	-1E+10	1	-1E+10	1	-1E+10	1	-1E+10	1	-1E+10	1	-1E+10	1
4901784	101	C	04/10/2018	10:44	-132.608	43.366	0	1179.80	0	3.2560	0	34.5850	4	27.538	0	1167.088	0	23.7	4	7.4	4	-1E+10	1	-1E+10	1	-1E+10	1	-1E+10	1	-1E+10	1	-1E+10	1
4901784	101	C	04/10/2018	10:44	-132.608	43.366	0	1184.70	0	3.2550	0	34.5850	4	27.538	0	1171.922	0	23.8	4	7.4	4	-1E+10	1	-1E+10	1	-1E+10	1	-1E+10	1	-1E+10	1	-1E+10	1
4901784	101	C	04/10/2018	10:44	-132.608	43.366	0	1189.50	0	3.2540	0	34.5860	4	27.539	0	1176.657	0	23.9	4	7.4	4	-1E+10	1	-1E+10	1	-1E+10	1	-1E+10	1	-1E+10	1	-1E+10	1
4901784	101	C	04/10/2018	10:44	-132.608	43.366	0	1195.20	0	3.2500	0	34.5860	4	27.539	0	1182.279	0	24.2	4	7.5	4	-1E+10	1	-1E+10	1	-1E+10	1	-1E+10	1	-1E+10	1	-1E+10	1
4901784	101	C	04/10/2018	10:44	-132.608	43.366	0	1200.00	0	3.2340	0	34.5900	4	27.544	0	1187.014	0	24.5	4	7.6	4	-1E+10	1	-1E+10	1	-1E+10	1	-1E+10	1	-1E+10	1	-1E+10	1
4901784	101	C	04/10/2018	10:44	-132.608	43.366	0	1204.90	0	3.2300	0	34.5900	4	27.545	0	1191.847	0	24.6	4	7.6	4	-1E+10	1	-1E+10	1	-1E+10	1	-1E+10	1	-1E+10	1	-1E+10	1
4901784	101	C	04/10/2018	10:44	-132.608	43.366	0	1209.90	0	3.2230	0	34.5910	4	27.546	0	1196.778	0	24.8	4	7.7	4	-1E+10	1	-1E+10	1	-1E+10	1	-1E+10	1	-1E+10	1	-1E+10	1
4901784	101	C	04/10/2018	10:44	-132.608	43.366	0	1214.80	0	3.2110	0	34.5930	4	27.549	0	1201.611	0	25.0	4	7.8	4	-1E+10	1	-1E+10	1	-1E+10	1	-1E+10	1	-1E+10	1	-1E+10	1
4901784	101	C	04/10/2018	10:44	-132.608	43.366	0	1219.70	0	3.1960	0	34.5950	4	27.552	0	1206.444	0	25.1	4	7.8	4	-1E+10	1	-1E+10	1	-1E+10	1	-1E+10	1	-1E+10	1	-1E+10	1
4901784	101	C	04/10/2018	10:44	-132.608	43.366	0	1224.80	0	3.1890	0	34.5950	4	27.552	0	1211.474	0	25.2	4	7.8	4	-1E+10	1	-1E+10	1	-1E+10	1	-1E+10	1	-1E+10	1	-1E+10	1
4901784	101	C	04/10/2018	10:44	-132.608	43.366	0	1229.80	0	3.1850	0	34.5960	4	27.554	0	1216.405	0	25.3	4	7.9	4	-1E+10	1	-1E+10	1	-1E+10	1	-1E+10	1	-1E+10	1	-1E+10	1
4901784	101	C	04/10/2018	10:44	-132.608	43.366	0	1234.70	0	3.1630	0	34.5970	4	27.557	0	1221.237	0	25.4	4	7.9	4	-1E+10	1	-1E+10	1	-1E+10	1	-1E+10	1	-1E+10	1	-1E+10	1
4901784	101	C	04/10/2018	10:44	-132.608	43.366	0	1239.70	0	3.1520	0	34.5980	4	27.558	0	1226.168	0	25.4	4	7.9	4	-1E+10	1	-1E+10	1	-1E+10	1	-1E+10	1	-1E+10	1	-1E+10	1
4901784	101	C	04/10/2018	10:44	-132.608	43.366	0	1244.60	0	3.1430	0	34.5980	4	27.559	0	1231.000	0	25.4	4	7.9	4	-1E+10	1	-1E+10	1	-1E+10	1	-1E+10	1	-1E+10	1	-1E+10	1
4901784	101	C	04/10/2018	10:44	-132.608	43.366	0	1249.70	0	3.1370	0	34.5980	4	27.560	0	1236.030	0	25.4	4	7.9	4	-1E+10	1	-1E+10	1	-1E+10	1	-1E+10	1	-1E+10	1	-1E+10	1
4901784	101	C	04/10/2018	10:44	-132.608	43.366	0	1254.60	0	3.1310	0	34.5980	4	27.560	0	1240.862	0	25.4	4	7.9	4	-1E+10	1	-1E+10	1	-1E+10	1	-1E+10	1	-1E+10	1	-1E+10	1
4901784	101	C	04/10/2018	10:44	-132.608	43.366	0	1260.20	0	3.1090	0	34.5990	4	27.563	0	1246.384	0	25.5	4	7.9	4	-1E+10	1	-1E+10	1	-1E+10	1	-1E+10	1	-1E+10	1	-1E+10	1
4901784	101	C	04/10/2018	10:44	-132.608	43.366	0	1264.80	0	3.1040	0	34.6000	4	27.565	0	1250.920	0	25.5	4	7.9	4	-1E+10	1	-1E+10	1	-1E+10	1	-1E+10	1	-1E+10	1	-1E+10	1
4901784	101	C	04/10/2018	10:44	-132.608	43.366	0	1269.20	0	3.0970	0	34.6000	4	27.565	0	1255.258	0	25.5	4	7.9	4	-1E+10	1	-1E+10	1	-1E+10	1	-1E+10	1	-1E+10	1	-1E+10	1
4901784	101	C	04/10/2018	10:44	-132.608	43.366	0	1274.50	0	3.0970	0	34.6000	4	27.565	0	1260.484	0	25.5	4	7.9	4	-1E+10	1	-1E+10	1	-1E+10	1	-1E+10	1	-1E+10	1	-1E+10	1
4901784	101	C	04/10/2018	10:44	-132.608	43.366	0	1280.10	0	3.0980	0	34.6000	4	27.565	0	1266.006	0	25.5	4	7.9	4	-1E+10	1	-1E+10	1	-1E+10	1	-1E+10	1	-1E+10	1	-1E+10	1
4901784	101	C	04/10/2018	10:44	-132.608	43.366	0	1285.70	0	3.0950	0	34.6000	4	27.566	0	1271.527	0	25.6	4	7.9	4	-1E+10	1	-1E+10	1	-1E+10	1	-1E+10	1	-1E+10	1	-1E+10	1
4901784	101	C	04/10/2018	10:44	-132.608	43.366	0	1290.60	0	3.0880	0	34.6000	4	27.566	0	1276.358	0	25.6	4	7.9	4	-1E+10	1	-1E+10	1	-1E+10	1	-1E+10	1	-1E+10	1	-1E+10	1
4901784	101	C	04/10/2018	10:44	-132.608	43.366	0	1295.60	0	3.0800	0	34.6000	4	27.567	0	1281.288	0	25.6	4	7.9	4	-1E+10	1	-1E+10	1	-1E+10	1	-1E+10	1	-1E+10	1	-1E+10	1
4901784	101	C	04/10/2018	10:44	-132.608	43.366	0	1300.50	0	3.0690	0	34.6000	4	27.568	0	1286.119	0	25.6	4	7.9	4	-1E+10	1	-1E+10	1	-1E+10	1	-1E+10	1	-1E+10	1	-1E+10	1
4901784	101	C	04/10/2018	10:44	-132.608	43.366	0	1305.40	0	3.0430	0	34.6010	4	27.571	0	1290.950	0	25.6	4	7.9	4	-1E+10	1	-1E+10	1	-1E+10	1	-1E+10	1	-1E+10	1	-1E+10	1
4901784	101	C	04/10/2018	10:44	-132.608	43.366	0	1310.40	0	3.0210	0	34.6010	4	27.573	0	1295.879	0	25.6	4	7.9	4	-1E+10	1	-1E+10	1	-1E+10	1	-1E+10	1	-1E+10	1	-1E+10	1
4901784	101	C	04/10/2018	10:44	-132.608	43.366	0	1315.40	0	2.9880	0	34.6020	4	27.577	0	1300.808	0	25.6	4	7.9	4	-1E+10	1	-1E+10	1	-1E+10	1	-1E+10	1	-1E+10	1	-1E+10	1
4901784	101	C	04/10/2018	10:44	-132.608	43.366	0	1320.40	0	2.9780	0	34.6020	4	27.578	0	1305.737	0	25.5	4	7.9	4	-1E+10	1	-1E+10	1	-1E+10	1	-1E+10	1	-1E+10	1	-1E+10	1
4901784	101	C	04/10/2018	10:44	-132.608	43.366	0	1325.30	0	2.9780	0	34.6020	4	27.578	0	1310.568	0	25.5	4	7.9	4	-1E+10	1	-1E+10	1	-1E+10	1	-1E+10	1	-1E+10	1	-1E+10	1
4901784	101	C	04/10/2018	10:44	-132.608	43.366	0	1330.20	0	2.9780	0	34.6020	4	27.578	0	1315.398	0	25.5	4	7.9	4	-1E+10	1	-1E+10	1	-1E+10	1	-1E+10	1	-1E+10	1	-1E+10	1
4901784	101	C	04/10/2018	10:44	-132.608	43.366	0	1335.40	0	2.9780	0	34.6020	4	27.578	0	1320.524	0	25.5	4	7.9	4	-1E+10	1	-1E+10	1	-1E+10	1	-1E+10	1	-1E+10	1	-1E+10	1
4901784	101	C	04/10/2018	10:44	-132.608	43.366	0	1340.40	0	2.9780	0	34.6020	4	27.578	0	1325.452	0	25.5	4	7.9	4	-1E+10	1	-1E+10	1	-1E+10	1	-1E+10	1	-1E+10	1	-1E+10	1
4901784	101	C	04/10/2018	10:44	-132.608	43.366	0	1345.40	0	2.9780	0	34.6020	4	27.578	0	1330.381	0	25.5	4	7.9	4	-1E+10	1	-1E+10	1	-1E+10	1	-1E+10	1	-1E+10	1	-1E+10	1
4901784	101	C	04/10/2018	10:44	-132.608	43.366	0	1350.60	0	2.9740	0	34.6010	4	27.578	0	1335.506	0	25.5	4	7.9	4	-1E+10	1	-1E+10	1	-1E+10	1	-1E+10	1	-1E+10	1	-1E+10	1
4901784	101	C	04/10/2018	10:44	-132.608	43.366	0	1355.10	0	2.9750	0	34.6010	4	27.578	0	1339.942	0	25.4	4	7.9	4	-1E+10	1	-1E+10	1	-1E+10	1	-1E+10	1	-1E+10	1	-1E+10	1
4901784	101	C	04/10/2018	10:44	-132.608	43.366	0	1359.50	0	2.9450	0	34.6020	4	27.581	0	1344.278	0	25.4	4	7.8	4	-1E+10	1	-1E+10	1	-1E+10	1	-1E+10	1	-1E+10	1	-1E+10	1
4901784	101	C	04/10/2018	10:44	-132.608	43.366	0	1364.80	0	2.9270	0	34.6020	4	27.583	0	1349.502	0	25.4	4	7.8	4	-1E+10	1	-1E+10	1	-1E+10	1	-1E+10	1	-1E+10	1	-1E+10	1
4901784	101	C	04/10/2018	10:44	-132.608	43.366	0	1370.10	0	2.9220	0	34.6020	4	27.583	0	1354.726	0	25.4	4	7.8	4	-1E+10	1	-1E+10	1	-1E+10	1	-1E+10	1	-1E+10	1	-1E+10	1
4901784	101	C	04/10/2018	10:44	-132.608	43.366	0	1375.50	0	2.9130	0	34.6020	4	27.584	0	1360.048	0	25.4	4	7.8	4	-1E+10	1	-1E+10	1	-1E+10	1	-1E+10	1	-1E+10	1	-1E+10	1
4901784	101	C	04/10/2018	10:44	-132.608	43.366	0	1380.00	0	2.9080	0	34.6020	4	27.585	0	1364.483	0	25.4	4	7.8	4	-1E+10	1	-1E+10	1	-1E+10	1	-1E+10	1	-1E+10	1	-1E+10	1
4901784	101	C	04/10/2018	10:44	-132.608	43.366	0	1384.50	0	2.8990	0	34.6020	4	27.585	0	1368.917	0	25.3	4	7.8	4	-1E+10	1	-1E+10	1	-1E+10	1	-1E+10	1	-1E+10	1	-1E+10	1
4901784	101	C	04/10/2018	10:44	-132.608	43.366	0	1389.90	0	2.8930	0	34.6020	4	27.586	0	1374.239	0	25.3	4	7.8	4	-1E+10	1	-1E+10	1	-1E+10	1	-1E+10	1	-1E+10	1	-1E+10	1
4901784	101	C	04/10/2018	10:44	-132.608	43.366	0	1395.30	0	2.8880	0	34.6020	4	27.586	0	1379.561	0	25.3	4	7.8	4	-1E+10	1	-1E+10	1	-1E+10	1	-1E+10	1	-1E+10	1	-1E+10	1
4901784	101	C	04/10/2018	10:44	-132.608	43.366	0	1399.90	0	2.8810	0	34.6020	4	27.587	0	1384.094	0	25.3	4	7.8	4	-1E+10	1	-1E+10	1	-1E+10	1	-1E+10	1	-1E+10	1	-1E+10	1
4901784	101	C	04/10/2018	10:44	-132.608	43.366	0	1404.40	0	2.8780	0	34.6020	4	27.587	0	1388.528	0	25.3	4	7.8	4	-1E+10	1	-1E+10	1	-1E+10	1	-1E+10	1	-1E+10	1	-1E+10	1
4901784	101	C	04/10/2018	10:44	-132.608	43.366	0	1410.40	0	2.8540	0	34.6020	4	27.590	0	1394.440	0	25.3	4	7.8	4	-1E+10	1	-1E+10	1	-1E+10	1	-1E+10	1	-1E+10	1	-1E+10	1
4901784	101	C	04/10/2018	10:44	-132.608	43.366	0	1415.40	0	2.8340	0	34.6020	4	27.591	0	1399.367	0	25.3	4	7.8	4	-1E+10	1	-1E+10	1	-1E+10	1	-1E+10	1	-1E+10	1	-1E+10	1
4901784	101	C	04/10/2018	10:44	-132.608	43.366	0	1420.10	0	2.8320	0	34.6020	4	27.592	0	1403.998	0	25.3	4	7.8	4	-1E+10	1	-1E+10	1	-1E+10	1	-1E+10	1	-1E+10	1	-1E+10	1
4901784	101	C	04/10/2018	10:44	-132.608	43.366	0	1424.90	0	2.8250	0	34.6020	4	27.592	0	1408.728	0	25.2	4	7.8	4	-1E+10	1	-1E+10	1	-1E+10	1	-1E+10	1	-1E+10	1	-1E+10	1
4901784	101	C	04/10/2018	10:44	-132.608	43.366	0	1429.70	0	2.7950	0	34.6020	4	27.595	0	1413.457	0	25.2	4	7.8	4	-1E+10	1	-1E+10	1	-1E+10	1	-1E+10	1	-1E+10	1	-1E+10	1
4901784	101	C	04/10/2018	10:44	-132.608	43.366	0	1434.60	0	2.7880	0	34.6030	4	27.596	0	1418.285	0	25.3	4	7.8	4	-1E+10	1	-1E+10	1	-1E+10	1	-1E+10	1	-1E+10	1	-1E+10	1
4901784	101	C	04/10/2018	10:44	-132.608	43.366	0	1439.50	0	2.7840	0	34.6030	4	27.597	0	1423.113	0	25.3	4	7.8	4	-1E+10	1	-1E+10	1	-1E+10	1	-1E+10	1	-1E+10	1	-1E+10	1
4901784	101	C	04/10/2018	10:44	-132.608	43.366	0	1444.30	0	2.7790	0	34.6030	4	27.597	0	1427.842	0	25.3	4	7.8	4	-1E+10	1	-1E+10	1	-1E+10	1	-1E+10	1	-1E+10	1	-1E+10	1
4901784	101	C	04/10/2018	10:44	-132.608	43.366	0	1449.30	0	2.7740	0	34.6030	4	27.598	0	1432.768	0	25.3	4	7.8	4	-1E+10	1	-1E+10	1	-1E+10	1	-1E+10	1	-1E+10	1	-1E+10	1
4901784	101	C	04/10/2018	10:44	-132.608	43.366	0	1454.20	0	2.7700	0	34.6030	4	27.598	0	1437.596	0	25.3	4	7.8	4	-1E+10	1	-1E+10	1	-1E+10	1	-1E+10	1	-1E+10	1	-1E+10	1
4901784	101	C	04/10/2018	10:44	-132.608	43.366	0	1460.00	0	2.7610	0	34.6030	4	27.599	0	1443.310	0	25.4	4	7.8	4	-1E+10	1	-1E+10	1	-1E+10	1	-1E+10	1	-1E+10	1	-1E+10	1
4901784	101	C	04/10/2018	10:44	-132.608	43.366	0	1465.00	0	2.7470	0	34.6040	4	27.601	0	1448.235	0	25.5	4	7.8	4	-1E+10	1	-1E+10	1	-1E+10	1	-1E+10	1	-1E+10	1	-1E+10	1
4901784	101	C	04/10/2018	10:44	-132.608	43.366	0	1470.00	0	2.7370	0	34.6040	4	27.602	0	1453.161	0	25.5	4	7.8	4	-1E+10	1	-1E+10	1	-1E+10	1	-1E+10	1	-1E+10	1	-1E+10	1
4901784	101	C	04/10/2018	10:44	-132.608	43.366	0	1475.80	0	2.7320	0	34.6040	4	27.602	0	1458.875	0	25.5	4	7.8	4	-1E+10	1	-1E+10	1	-1E+10	1	-1E+10	1	-1E+10	1	-1E+10	1
4901784	101	C	04/10/2018	10:44	-132.608	43.366	0	1480.00	0	2.7280	0	34.6040	4	27.603	0	1463.012	0	25.5	4	7.8	4	-1E+10	1	-1E+10	1	-1E+10	1	-1E+10	1	-1E+10	1	-1E+10	1
4901784	101	C	04/10/2018	10:44	-132.608	43.366	0	1484.20	0	2.7240	0	34.6040	4	27.603	0	1467.149	0	25.6	4	7.8	4	-1E+10	1	-1E+10	1	-1E+10	1	-1E+10	1	-1E+10	1	-1E+10	1
4901784	101	C	04/10/2018	10:44	-132.608	43.366	0	1489.30	0	2.7190	0	34.6040	4	27.603	0	1472.173	0	25.6	4	7.9	4	-1E+10	1	-1E+10	1	-1E+10	1	-1E+10	1	-1E+10	1	-1E+10	1
4901784	101	C	04/10/2018	10:44	-132.608	43.366	0	1494.30	0	2.6940	0	34.6050	4	27.606	0	1477.098	0	25.7	4	7.9	4	-1E+10	1	-1E+10	1	-1E+10	1	-1E+10	1	-1E+10	1	-1E+10	1
4901784	101	C	04/10/2018	10:44	-132.608	43.366	0	1499.50	0	2.6790	0	34.6050	4	27.608	0	1482.220	0	25.8	4	7.9	4	-1E+10	1	-1E+10	1	-1E+10	1	-1E+10	1	-1E+10	1	-1E+10	1
4901784	101	C	04/10/2018	10:44	-132.608	43.366	0	1504.60	0	2.6630	0	34.6060	4	27.610	0	1487.243	0	26.0	4	8.0	4	-1E+10	1	-1E+10	1	-1E+10	1	-1E+10	1	-1E+10	1	-1E+10	1
4901784	101	C	04/10/2018	10:44	-132.608	43.366	0	1509.80	0	2.6480	0	34.6060	4	27.611	0	1492.365	0	26.1	4	8.0	4	-1E+10	1	-1E+10	1	-1E+10	1	-1E+10	1	-1E+10	1	-1E+10	1
4901784	101	C	04/10/2018	10:44	-132.608	43.366	0	1515.00	0	2.6330	0	34.6070	4	27.613	0	1497.486	0	26.3	4	8.1	4	-1E+10	1	-1E+10	1	-1E+10	1	-1E+10	1	-1E+10	1	-1E+10	1
4901784	101	C	04/10/2018	10:44	-132.608	43.366	0	1520.20	0	2.6090	0	34.6080	4	27.616	0	1502.607	0	26.5	4	8.1	4	-1E+10	1	-1E+10	1	-1E+10	1	-1E+10	1	-1E+10	1	-1E+10	1
4901784	101	C	04/10/2018	10:44	-132.608	43.366	0	1525.50	0	2.5950	0	34.6090	4	27.618	0	1507.827	0	26.7	4	8.2	4	-1E+10	1	-1E+10	1	-1E+10	1	-1E+10	1	-1E+10	1	-1E+10	1
4901784	101	C	04/10/2018	10:44	-132.608	43.366	0	1529.90	0	2.5880	0	34.6100	4	27.620	0	1512.161	0	26.9	4	8.2	4	-1E+10	1	-1E+10	1	-1E+10	1	-1E+10	1	-1E+10	1	-1E+10	1
4901784	101	C	04/10/2018	10:44	-132.608	43.366	0	1534.30	0	2.5780	0	34.6100	4	27.620	0	1516.494	0	27.0	4	8.3	4	-1E+10	1	-1E+10	1	-1E+10	1	-1E+10	1	-1E+10	1	-1E+10	1
4901784	101	C	04/10/2018	10:44	-132.608	43.366	0	1539.50	0	2.5720	0	34.6110	4	27.622	0	1521.615	0	27.3	4	8.3	4	-1E+10	1	-1E+10	1	-1E+10	1	-1E+10	1	-1E+10	1	-1E+10	1
4901784	101	C	04/10/2018	10:44	-132.608	43.366	0	1544.90	0	2.5600	0	34.6120	4	27.624	0	1526.933	0	27.7	4	8.5	4	-1E+10	1	-1E+10	1	-1E+10	1	-1E+10	1	-1E+10	1	-1E+10	1
4901784	101	C	04/10/2018	10:44	-132.608	43.366	0	1550.30	0	2.5470	0	34.6130	4	27.626	0	1532.250	0	27.9	4	8.5	4	-1E+10	1	-1E+10	1	-1E+10	1	-1E+10	1	-1E+10	1	-1E+10	1
4901784	101	C	04/10/2018	10:44	-132.608	43.366	0	1555.70	0	2.5340	0	34.6140	4	27.628	0	1537.568	0	28.2	4	8.6	4	-1E+10	1	-1E+10	1	-1E+10	1	-1E+10	1	-1E+10	1	-1E+10	1
4901784	101	C	04/10/2018	10:44	-132.608	43.366	0	1560.20	0	2.5270	0	34.6150	4	27.629	0	1541.999	0	28.6	4	8.7	4	-1E+10	1	-1E+10	1	-1E+10	1	-1E+10	1	-1E+10	1	-1E+10	1
4901784	101	C	04/10/2018	10:44	-132.608	43.366	0	1564.60	0	2.5100	0	34.6160	4	27.631	0	1546.331	0	29.0	4	8.9	4	-1E+10	1	-1E+10	1	-1E+10	1	-1E+10	1	-1E+10	1	-1E+10	1
4901784	101	C	04/10/2018	10:44	-132.608	43.366	0	1570.10	0	2.4930	0	34.6180	4	27.634	0	1551.747	0	29.4	4	9.0	4	-1E+10	1	-1E+10	1	-1E+10	1	-1E+10	1	-1E+10	1	-1E+10	1
4901784	101	C	04/10/2018	10:44	-132.608	43.366	0	1575.40	0	2.4870	0	34.6190	4	27.636	0	1556.966	0	29.6	4	9.0	4	-1E+10	1	-1E+10	1	-1E+10	1	-1E+10	1	-1E+10	1	-1E+10	1
4901784	101	C	04/10/2018	10:44	-132.608	43.366	0	1580.00	0	2.4800	0	34.6200	4	27.637	0	1561.495	0	29.7	4	9.1	4	-1E+10	1	-1E+10	1	-1E+10	1	-1E+10	1	-1E+10	1	-1E+10	1
4901784	101	C	04/10/2018	10:44	-132.608	43.366	0	1585.20	0	2.4760	0	34.6210	4	27.638	0	1566.615	0	29.9	4	9.1	4	-1E+10	1	-1E+10	1	-1E+10	1	-1E+10	1	-1E+10	1	-1E+10	1
4901784	101	C	04/10/2018	10:44	-132.608	43.366	0	1590.30	0	2.4710	0	34.6210	4	27.639	0	1571.636	0	30.1	4	9.2	4	-1E+10	1	-1E+10	1	-1E+10	1	-1E+10	1	-1E+10	1	-1E+10	1
4901784	101	C	04/10/2018	10:44	-132.608	43.366	0	1595.10	0	2.4660	0	34.6220	4	27.640	0	1576.362	0	30.3	4	9.2	4	-1E+10	1	-1E+10	1	-1E+10	1	-1E+10	1	-1E+10	1	-1E+10	1
4901784	101	C	04/10/2018	10:44	-132.608	43.366	0	1600.00	0	2.4620	0	34.6220	4	27.640	0	1581.186	0	30.5	4	9.3	4	-1E+10	1	-1E+10	1	-1E+10	1	-1E+10	1	-1E+10	1	-1E+10	1
4901784	101	C	04/10/2018	10:44	-132.608	43.366	0	1604.90	0	2.4530	0	34.6230	4	27.642	0	1586.010	0	30.9	4	9.4	4	-1E+10	1	-1E+10	1	-1E+10	1	-1E+10	1	-1E+10	1	-1E+10	1
4901784	101	C	04/10/2018	10:44	-132.608	43.366	0	1609.70	0	2.4420	0	34.6250	4	27.644	0	1590.735	0	31.3	4	9.5	4	-1E+10	1	-1E+10	1	-1E+10	1	-1E+10	1	-1E+10	1	-1E+10	1
4901784	101	C	04/10/2018	10:44	-132.608	43.366	0	1614.60	0	2.4370	0	34.6250	4	27.645	0	1595.559	0	31.8	4	9.7	4	-1E+10	1	-1E+10	1	-1E+10	1	-1E+10	1	-1E+10	1	-1E+10	1
4901784	101	C	04/10/2018	10:44	-132.608	43.366	0	1619.50	0	2.4170	0	34.6270	4	27.648	0	1600.383	0	32.5	4	9.9	4	-1E+10	1	-1E+10	1	-1E+10	1	-1E+10	1	-1E+10	1	-1E+10	1
4901784	101	C	04/10/2018	10:44	-132.608	43.366	0	1624.40	0	2.3990	0	34.6300	4	27.652	0	1605.207	0	32.9	4	10.0	4	-1E+10	1	-1E+10	1	-1E+10	1	-1E+10	1	-1E+10	1	-1E+10	1
4901784	101	C	04/10/2018	10:44	-132.608	43.366	0	1629.40	0	2.3940	0	34.6310	4	27.653	0	1610.129	0	33.2	4	10.1	4	-1E+10	1	-1E+10	1	-1E+10	1	-1E+10	1	-1E+10	1	-1E+10	1
4901784	101	C	04/10/2018	10:44	-132.608	43.366	0	1634.40	0	2.3880	0	34.6310	4	27.654	0	1615.050	0	33.6	4	10.2	4	-1E+10	1	-1E+10	1	-1E+10	1	-1E+10	1	-1E+10	1	-1E+10	1
4901784	101	C	04/10/2018	10:44	-132.608	43.366	0	1639.40	0	2.3730	0	34.6330	4	27.657	0	1619.972	0	34.2	4	10.4	4	-1E+10	1	-1E+10	1	-1E+10	1	-1E+10	1	-1E+10	1	-1E+10	1
4901784	101	C	04/10/2018	10:44	-132.608	43.366	0	1644.50	0	2.3570	0	34.6350	4	27.660	0	1624.992	0	34.6	4	10.5	4	-1E+10	1	-1E+10	1	-1E+10	1	-1E+10	1	-1E+10	1	-1E+10	1
4901784	101	C	04/10/2018	10:44	-132.608	43.366	0	1649.60	0	2.3480	0	34.6360	4	27.661	0	1630.012	0	34.8	4	10.6	4	-1E+10	1	-1E+10	1	-1E+10	1	-1E+10	1	-1E+10	1	-1E+10	1
4901784	101	C	04/10/2018	10:44	-132.608	43.366	0	1654.70	0	2.3450	0	34.6370	4	27.662	0	1635.032	0	35.0	4	10.7	4	-1E+10	1	-1E+10	1	-1E+10	1	-1E+10	1	-1E+10	1	-1E+10	1
4901784	101	C	04/10/2018	10:44	-132.608	43.366	0	1659.90	0	2.3420	0	34.6370	4	27.662	0	1640.150	0	35.4	4	10.8	4	-1E+10	1	-1E+10	1	-1E+10	1	-1E+10	1	-1E+10	1	-1E+10	1
4901784	101	C	04/10/2018	10:44	-132.608	43.366	0	1665.00	0	2.3300	0	34.6380	4	27.664	0	1645.169	0	36.1	4	11.0	4	-1E+10	1	-1E+10	1	-1E+10	1	-1E+10	1	-1E+10	1	-1E+10	1
4901784	101	C	04/10/2018	10:44	-132.608	43.366	0	1670.20	0	2.3070	0	34.6400	4	27.668	0	1650.287	0	36.8	4	11.2	4	-1E+10	1	-1E+10	1	-1E+10	1	-1E+10	1	-1E+10	1	-1E+10	1
4901784	101	C	04/10/2018	10:44	-132.608	43.366	0	1675.40	0	2.2920	0	34.6420	4	27.671	0	1655.405	0	37.3	4	11.3	4	-1E+10	1	-1E+10	1	-1E+10	1	-1E+10	1	-1E+10	1	-1E+10	1
4901784	101	C	04/10/2018	10:44	-132.608	43.366	0	1680.70	0	2.2840	0	34.6440	4	27.673	0	1660.621	0	37.8	4	11.5	4	-1E+10	1	-1E+10	1	-1E+10	1	-1E+10	1	-1E+10	1	-1E+10	1
4901784	101	C	04/10/2018	10:44	-132.608	43.366	0	1685.00	0	2.2770	0	34.6440	4	27.673	0	1664.853	0	38.2	4	11.6	4	-1E+10	1	-1E+10	1	-1E+10	1	-1E+10	1	-1E+10	1	-1E+10	1
4901784	101	C	04/10/2018	10:44	-132.608	43.366	0	1689.50	0	2.2700	0	34.6460	4	27.676	0	1669.281	0	38.7	4	11.8	4	-1E+10	1	-1E+10	1	-1E+10	1	-1E+10	1	-1E+10	1	-1E+10	1
4901784	101	C	04/10/2018	10:44	-132.608	43.366	0	1694.70	0	2.2630	0	34.6480	4	27.678	0	1674.398	0	39.3	4	11.9	4	-1E+10	1	-1E+10	1	-1E+10	1	-1E+10	1	-1E+10	1	-1E+10	1
4901784	101	C	04/10/2018	10:44	-132.608	43.366	0	1700.00	0	2.2490	0	34.6490	4	27.680	0	1679.614	0	39.6	4	12.0	4	-1E+10	1	-1E+10	1	-1E+10	1	-1E+10	1	-1E+10	1	-1E+10	1
4901784	101	C	04/10/2018	10:44	-132.608	43.366	0	1705.30	0	2.2450	0	34.6500	4	27.681	0	1684.829	0	39.8	4	12.1	4	-1E+10	1	-1E+10	1	-1E+10	1	-1E+10	1	-1E+10	1	-1E+10	1
4901784	101	C	04/10/2018	10:44	-132.608	43.366	0	1710.60	0	2.2420	0	34.6500	4	27.681	0	1690.045	0	40.0	4	12.1	4	-1E+10	1	-1E+10	1	-1E+10	1	-1E+10	1	-1E+10	1	-1E+10	1
4901784	101	C	04/10/2018	10:44	-132.608	43.366	0	1715.10	0	2.2350	0	34.6510	4	27.683	0	1694.473	0	40.4	4	12.3	4	-1E+10	1	-1E+10	1	-1E+10	1	-1E+10	1	-1E+10	1	-1E+10	1
4901784	101	C	04/10/2018	10:44	-132.608	43.366	0	1719.50	0	2.2320	0	34.6510	4	27.683	0	1698.802	0	40.7	4	12.4	4	-1E+10	1	-1E+10	1	-1E+10	1	-1E+10	1	-1E+10	1	-1E+10	1
4901784	101	C	04/10/2018	10:44	-132.608	43.366	0	1724.90	0	2.2220	0	34.6520	4	27.685	0	1704.115	0	41.4	4	12.6	4	-1E+10	1	-1E+10	1	-1E+10	1	-1E+10	1	-1E+10	1	-1E+10	1
4901784	101	C	04/10/2018	10:44	-132.608	43.366	0	1730.30	0	2.2080	0	34.6550	4	27.688	0	1709.429	0	41.9	4	12.7	4	-1E+10	1	-1E+10	1	-1E+10	1	-1E+10	1	-1E+10	1	-1E+10	1
4901784	101	C	04/10/2018	10:44	-132.608	43.366	0	1734.90	0	2.2050	0	34.6550	4	27.688	0	1713.954	0	42.2	4	12.8	4	-1E+10	1	-1E+10	1	-1E+10	1	-1E+10	1	-1E+10	1	-1E+10	1
4901784	101	C	04/10/2018	10:44	-132.608	43.366	0	1739.40	0	2.1990	0	34.6560	4	27.690	0	1718.382	0	42.5	4	12.9	4	-1E+10	1	-1E+10	1	-1E+10	1	-1E+10	1	-1E+10	1	-1E+10	1
4901784	101	C	04/10/2018	10:44	-132.608	43.366	0	1744.90	0	2.1890	0	34.6580	4	27.692	0	1723.793	0	42.9	4	13.0	4	-1E+10	1	-1E+10	1	-1E+10	1	-1E+10	1	-1E+10	1	-1E+10	1
4901784	101	C	04/10/2018	10:44	-132.608	43.366	0	1750.40	0	2.1860	0	34.6580	4	27.692	0	1729.204	0	43.1	4	13.1	4	-1E+10	1	-1E+10	1	-1E+10	1	-1E+10	1	-1E+10	1	-1E+10	1
4901784	101	C	04/10/2018	10:44	-132.608	43.366	0	1754.60	0	2.1860	0	34.6580	4	27.692	0	1733.336	0	43.4	4	13.1	4	-1E+10	1	-1E+10	1	-1E+10	1	-1E+10	1	-1E+10	1	-1E+10	1
4901784	101	C	04/10/2018	10:44	-132.608	43.366	0	1759.40	0	2.1750	0	34.6590	4	27.694	0	1738.058	0	44.1	4	13.4	4	-1E+10	1	-1E+10	1	-1E+10	1	-1E+10	1	-1E+10	1	-1E+10	1
4901784	101	C	04/10/2018	10:44	-132.608	43.366	0	1765.10	0	2.1600	0	34.6620	4	27.698	0	1743.666	0	44.6	4	13.5	4	-1E+10	1	-1E+10	1	-1E+10	1	-1E+10	1	-1E+10	1	-1E+10	1
4901784	101	C	04/10/2018	10:44	-132.608	43.366	0	1770.80	0	2.1570	0	34.6620	4	27.698	0	1749.273	0	44.8	4	13.6	4	-1E+10	1	-1E+10	1	-1E+10	1	-1E+10	1	-1E+10	1	-1E+10	1
4901784	101	C	04/10/2018	10:44	-132.608	43.366	0	1775.70	0	2.1550	0	34.6620	4	27.698	0	1754.093	0	45.0	4	13.6	4	-1E+10	1	-1E+10	1	-1E+10	1	-1E+10	1	-1E+10	1	-1E+10	1
4901784	101	C	04/10/2018	10:44	-132.608	43.366	0	1780.70	0	2.1430	0	34.6630	4	27.700	0	1759.012	0	45.2	4	13.7	4	-1E+10	1	-1E+10	1	-1E+10	1	-1E+10	1	-1E+10	1	-1E+10	1
4901784	101	C	04/10/2018	10:44	-132.608	43.366	0	1785.70	0	2.1310	0	34.6640	4	27.702	0	1763.930	0	45.6	4	13.8	4	-1E+10	1	-1E+10	1	-1E+10	1	-1E+10	1	-1E+10	1	-1E+10	1
4901784	101	C	04/10/2018	10:44	-132.608	43.366	0	1789.90	0	2.1310	0	34.6640	4	27.702	0	1768.062	0	45.9	4	13.9	4	-1E+10	1	-1E+10	1	-1E+10	1	-1E+10	1	-1E+10	1	-1E+10	1
4901784	101	C	04/10/2018	10:44	-132.608	43.366	0	1794.20	0	2.1270	0	34.6650	4	27.703	0	1772.291	0	46.3	4	14.0	4	-1E+10	1	-1E+10	1	-1E+10	1	-1E+10	1	-1E+10	1	-1E+10	1
4901784	101	C	04/10/2018	10:44	-132.608	43.366	0	1799.30	0	2.1200	0	34.6660	4	27.704	0	1777.308	0	46.6	4	14.1	4	-1E+10	1	-1E+10	1	-1E+10	1	-1E+10	1	-1E+10	1	-1E+10	1
4901784	101	C	04/10/2018	10:44	-132.608	43.366	0	1804.40	0	2.1180	0	34.6670	4	27.705	0	1782.324	0	46.6	4	14.1	4	-1E+10	1	-1E+10	1	-1E+10	1	-1E+10	1	-1E+10	1	-1E+10	1
4901784	101	C	04/10/2018	10:44	-132.608	43.366	0	1809.60	0	2.1160	0	34.6670	4	27.705	0	1787.438	0	46.7	4	14.1	4	-1E+10	1	-1E+10	1	-1E+10	1	-1E+10	1	-1E+10	1	-1E+10	1
4901784	101	C	04/10/2018	10:44	-132.608	43.366	0	1814.80	0	2.1160	0	34.6670	4	27.705	0	1792.553	0	47.0	4	14.2	4	-1E+10	1	-1E+10	1	-1E+10	1	-1E+10	1	-1E+10	1	-1E+10	1
4901784	101	C	04/10/2018	10:44	-132.608	43.366	0	1820.10	0	2.1150	0	34.6680	4	27.706	0	1797.765	0	47.4	4	14.3	4	-1E+10	1	-1E+10	1	-1E+10	1	-1E+10	1	-1E+10	1	-1E+10	1
4901784	101	C	04/10/2018	10:44	-132.608	43.366	0	1825.30	0	2.1090	0	34.6690	4	27.708	0	1802.880	0	47.8	4	14.5	4	-1E+10	1	-1E+10	1	-1E+10	1	-1E+10	1	-1E+10	1	-1E+10	1
4901784	101	C	04/10/2018	10:44	-132.608	43.366	0	1830.60	0	2.1040	0	34.6700	4	27.709	0	1808.092	0	48.0	4	14.5	4	-1E+10	1	-1E+10	1	-1E+10	1	-1E+10	1	-1E+10	1	-1E+10	1
4901784	101	C	04/10/2018	10:44	-132.608	43.366	0	1835.10	0	2.1010	0	34.6700	4	27.709	0	1812.517	0	48.3	4	14.6	4	-1E+10	1	-1E+10	1	-1E+10	1	-1E+10	1	-1E+10	1	-1E+10	1
4901784	101	C	04/10/2018	10:44	-132.608	43.366	0	1839.60	0	2.0930	0	34.6710	4	27.711	0	1816.943	0	48.5	4	14.7	4	-1E+10	1	-1E+10	1	-1E+10	1	-1E+10	1	-1E+10	1	-1E+10	1
4901784	101	C	04/10/2018	10:44	-132.608	43.366	0	1844.90	0	2.0860	0	34.6710	4	27.711	0	1822.155	0	48.8	4	14.8	4	-1E+10	1	-1E+10	1	-1E+10	1	-1E+10	1	-1E+10	1	-1E+10	1
4901784	101	C	04/10/2018	10:44	-132.608	43.366	0	1850.30	0	2.0790	0	34.6720	4	27.713	0	1827.465	0	49.0	4	14.8	4	-1E+10	1	-1E+10	1	-1E+10	1	-1E+10	1	-1E+10	1	-1E+10	1
4901784	101	C	04/10/2018	10:44	-132.608	43.366	0	1855.30	0	2.0760	0	34.6730	4	27.714	0	1832.382	0	49.1	4	14.8	4	-1E+10	1	-1E+10	1	-1E+10	1	-1E+10	1	-1E+10	1	-1E+10	1
4901784	101	C	04/10/2018	10:44	-132.608	43.366	0	1859.50	0	2.0730	0	34.6730	4	27.714	0	1836.512	0	49.2	4	14.9	4	-1E+10	1	-1E+10	1	-1E+10	1	-1E+10	1	-1E+10	1	-1E+10	1
4901784	101	C	04/10/2018	10:44	-132.608	43.366	0	1865.00	0	2.0700	0	34.6730	4	27.714	0	1841.920	0	49.5	4	14.9	4	-1E+10	1	-1E+10	1	-1E+10	1	-1E+10	1	-1E+10	1	-1E+10	1
4901784	101	C	04/10/2018	10:44	-132.608	43.366	0	1870.60	0	2.0660	0	34.6740	4	27.715	0	1847.426	0	49.9	4	15.1	4	-1E+10	1	-1E+10	1	-1E+10	1	-1E+10	1	-1E+10	1	-1E+10	1
4901784	101	C	04/10/2018	10:44	-132.608	43.366	0	1875.50	0	2.0600	0	34.6750	4	27.717	0	1852.244	0	50.1	4	15.1	4	-1E+10	1	-1E+10	1	-1E+10	1	-1E+10	1	-1E+10	1	-1E+10	1
4901784	101	C	04/10/2018	10:44	-132.608	43.366	0	1880.40	0	2.0580	0	34.6750	4	27.717	0	1857.062	0	50.3	4	15.2	4	-1E+10	1	-1E+10	1	-1E+10	1	-1E+10	1	-1E+10	1	-1E+10	1
4901784	101	C	04/10/2018	10:44	-132.608	43.366	0	1885.30	0	2.0520	0	34.6760	4	27.718	0	1861.880	0	50.5	4	15.3	4	-1E+10	1	-1E+10	1	-1E+10	1	-1E+10	1	-1E+10	1	-1E+10	1
4901784	101	C	04/10/2018	10:44	-132.608	43.366	0	1890.20	0	2.0490	0	34.6760	4	27.718	0	1866.698	0	50.8	4	15.3	4	-1E+10	1	-1E+10	1	-1E+10	1	-1E+10	1	-1E+10	1	-1E+10	1
4901784	101	C	04/10/2018	10:44	-132.608	43.366	0	1895.10	0	2.0450	0	34.6760	4	27.719	0	1871.515	0	51.0	4	15.4	4	-1E+10	1	-1E+10	1	-1E+10	1	-1E+10	1	-1E+10	1	-1E+10	1
4901784	101	C	04/10/2018	10:44	-132.608	43.366	0	1900.00	0	2.0420	0	34.6770	4	27.720	0	1876.333	0	51.3	4	15.5	4	-1E+10	1	-1E+10	1	-1E+10	1	-1E+10	1	-1E+10	1	-1E+10	1
4901784	101	C	04/10/2018	10:44	-132.608	43.366	0	1905.00	0	2.0360	0	34.6780	4	27.721	0	1881.248	0	51.9	4	15.7	4	-1E+10	1	-1E+10	1	-1E+10	1	-1E+10	1	-1E+10	1	-1E+10	1
4901784	101	C	04/10/2018	10:44	-132.608	43.366	0	1910.00	0	2.0270	0	34.6790	4	27.723	0	1886.164	0	52.3	4	15.8	4	-1E+10	1	-1E+10	1	-1E+10	1	-1E+10	1	-1E+10	1	-1E+10	1
4901784	101	C	04/10/2018	10:44	-132.608	43.366	0	1915.10	0	2.0220	0	34.6800	4	27.724	0	1891.177	0	52.6	4	15.9	4	-1E+10	1	-1E+10	1	-1E+10	1	-1E+10	1	-1E+10	1	-1E+10	1
4901784	101	C	04/10/2018	10:44	-132.608	43.366	0	1920.20	0	2.0180	0	34.6800	4	27.724	0	1896.191	0	53.0	4	16.0	4	-1E+10	1	-1E+10	1	-1E+10	1	-1E+10	1	-1E+10	1	-1E+10	1
4901784	101	C	04/10/2018	10:44	-132.608	43.366	0	1925.20	0	2.0110	0	34.6810	4	27.726	0	1901.106	0	53.4	4	16.1	4	-1E+10	1	-1E+10	1	-1E+10	1	-1E+10	1	-1E+10	1	-1E+10	1
4901784	101	C	04/10/2018	10:44	-132.608	43.366	0	1930.30	0	2.0060	0	34.6820	4	27.727	0	1906.120	0	53.8	4	16.2	4	-1E+10	1	-1E+10	1	-1E+10	1	-1E+10	1	-1E+10	1	-1E+10	1
4901784	101	C	04/10/2018	10:44	-132.608	43.366	0	1935.50	0	2.0010	0	34.6830	4	27.728	0	1911.231	0	54.1	4	16.3	4	-1E+10	1	-1E+10	1	-1E+10	1	-1E+10	1	-1E+10	1	-1E+10	1
4901784	101	C	04/10/2018	10:44	-132.608	43.366	0	1940.60	0	2.0000	0	34.6840	4	27.729	0	1916.244	0	54.3	4	16.4	4	-1E+10	1	-1E+10	1	-1E+10	1	-1E+10	1	-1E+10	1	-1E+10	1
4901784	101	C	04/10/2018	10:44	-132.608	43.366	0	1944.90	0	1.9980	0	34.6840	4	27.729	0	1920.471	0	54.5	4	16.4	4	-1E+10	1	-1E+10	1	-1E+10	1	-1E+10	1	-1E+10	1	-1E+10	1
4901784	101	C	04/10/2018	10:44	-132.608	43.366	0	1949.30	0	1.9950	0	34.6840	4	27.729	0	1924.796	0	54.8	4	16.5	4	-1E+10	1	-1E+10	1	-1E+10	1	-1E+10	1	-1E+10	1	-1E+10	1
4901784	101	C	04/10/2018	10:44	-132.608	43.366	0	1954.60	0	1.9880	0	34.6860	4	27.731	0	1930.005	0	55.3	4	16.7	4	-1E+10	1	-1E+10	1	-1E+10	1	-1E+10	1	-1E+10	1	-1E+10	1
4901784	101	C	04/10/2018	10:44	-132.608	43.366	0	1959.90	0	1.9830	0	34.6860	4	27.732	0	1935.214	0	55.7	4	16.8	4	-1E+10	1	-1E+10	1	-1E+10	1	-1E+10	1	-1E+10	1	-1E+10	1
4901784	101	C	04/10/2018	10:44	-132.608	43.366	0	1965.10	0	1.9770	0	34.6870	4	27.733	0	1940.325	0	56.0	4	16.9	4	-1E+10	1	-1E+10	1	-1E+10	1	-1E+10	1	-1E+10	1	-1E+10	1
4901784	101	C	04/10/2018	10:44	-132.608	43.366	0	1970.50	0	1.9730	0	34.6880	4	27.734	0	1945.632	0	56.3	4	17.0	4	-1E+10	1	-1E+10	1	-1E+10	1	-1E+10	1	-1E+10	1	-1E+10	1
4901784	101	C	04/10/2018	10:44	-132.608	43.366	0	1974.90	0	1.9690	0	34.6890	4	27.735	0	1949.957	0	56.7	4	17.1	4	-1E+10	1	-1E+10	1	-1E+10	1	-1E+10	1	-1E+10	1	-1E+10	1
4901784	101	C	04/10/2018	10:44	-132.608	43.366	0	1979.40	0	1.9660	0	34.6890	4	27.736	0	1954.379	0	57.0	4	17.2	4	-1E+10	1	-1E+10	1	-1E+10	1	-1E+10	1	-1E+10	1	-1E+10	1
4901784	101	C	04/10/2018	10:44	-132.608	43.366	0	1984.80	0	1.9610	0	34.6900	4	27.737	0	1959.686	0	57.4	4	17.3	4	-1E+10	1	-1E+10	1	-1E+10	1	-1E+10	1	-1E+10	1	-1E+10	1
4901784	101	C	04/10/2018	10:44	-132.608	43.366	0	1990.20	0	1.9580	0	34.6910	4	27.738	0	1964.993	0	57.8	4	17.4	4	-1E+10	1	-1E+10	1	-1E+10	1	-1E+10	1	-1E+10	1	-1E+10	1
4901784	101	C	04/10/2018	10:44	-132.608	43.366	0	1995.50	0	1.9510	0	34.6910	4	27.739	0	1970.201	0	58.4	4	17.6	4	-1E+10	1	-1E+10	1	-1E+10	1	-1E+10	1	-1E+10	1	-1E+10	1
4901784	101	C	04/10/2018	10:44	-132.608	43.366	0	2000.10	0	1.9440	0	34.6930	4	27.741	0	1974.722	0	58.9	4	17.8	4	-1E+10	1	-1E+10	1	-1E+10	1	-1E+10	1	-1E+10	1	-1E+10	1
4901784	101	C	04/10/2018	10:44	-132.608	43.366	0	2005.20	0	1.9360	0	34.6940	4	27.742	0	1979.733	0	59.3	4	17.9	4	-1E+10	1	-1E+10	1	-1E+10	1	-1E+10	1	-1E+10	1	-1E+10	1
4901784	101	C	04/10/2018	10:44	-132.608	43.366	0	2010.60	0	1.9310	0	34.6950	4	27.743	0	1985.040	0	59.6	4	18.0	4	-1E+10	1	-1E+10	1	-1E+10	1	-1E+10	1	-1E+10	1	-1E+10	1
4901784	101	C	04/10/2018	10:44	-132.608	43.366	0	2015.20	0	1.9300	0	34.6950	4	27.744	0	1989.560	0	59.8	4	18.0	4	-1E+10	1	-1E+10	1	-1E+10	1	-1E+10	1	-1E+10	1	-1E+10	1
4901784	101	C	04/10/2018	10:44	-132.608	43.366	0	2019.70	0	1.9280	0	34.6950	4	27.744	0	1993.981	0	60.0	4	18.1	4	-1E+10	1	-1E+10	1	-1E+10	1	-1E+10	1	-1E+10	1	-1E+10	1
4901784	101	C	04/10/2018	10:44	-132.608	43.366	0																										
4901784	102	C	04/20/2018	10:40	-132.405	43.340	0	3.30	0	9.9050	0	32.8210	4	25.267	0	3.274	0	272.6	4	97.5	4	-1E+10	1	-1E+10	1	-1E+10	1	-1E+10	1	-1E+10	1	-1E+10	1
4901784	102	C	04/20/2018	10:40	-132.405	43.340	0	4.80	0	9.9060	0	32.8220	4	25.268	0	4.762	0	272.5	4	97.5	4	-1E+10	1	-1E+10	1	-1E+10	1	-1E+10	1	-1E+10	1	-1E+10	1
4901784	102	C	04/20/2018	10:40	-132.405	43.340	0	6.50	0	9.9060	0	32.8230	4	25.269	0	6.448	0	272.5	4	97.5	4	-1E+10	1	-1E+10	1	-1E+10	1	-1E+10	1	-1E+10	1	-1E+10	1
4901784	102	C	04/20/2018	10:40	-132.405	43.340	0	8.30	0	9.9060	0	32.8200	4	25.266	0	8.234	0	272.5	4	97.5	4	-1E+10	1	-1E+10	1	-1E+10	1	-1E+10	1	-1E+10	1	-1E+10	1
4901784	102	C	04/20/2018	10:40	-132.405	43.340	0	10.10	0	9.9070	0	32.8210	4	25.267	0	10.019	0	272.4	4	97.5	4	-1E+10	1	-1E+10	1	-1E+10	1	-1E+10	1	-1E+10	1	-1E+10	1
4901784	102	C	04/20/2018	10:40	-132.405	43.340	0	11.80	0	9.9070	0	32.8230	4	25.268	0	11.706	0	272.3	4	97.4	4	-1E+10	1	-1E+10	1	-1E+10	1	-1E+10	1	-1E+10	1	-1E+10	1
4901784	102	C	04/20/2018	10:40	-132.405	43.340	0	13.70	0	9.9070	0	32.8220	4	25.268	0	13.590	0	272.1	4	97.3	4	-1E+10	1	-1E+10	1	-1E+10	1	-1E+10	1	-1E+10	1	-1E+10	1
4901784	102	C	04/20/2018	10:40	-132.405	43.340	0	15.50	0	9.9050	0	32.8220	4	25.268	0	15.376	0	271.9	4	97.3	4	-1E+10	1	-1E+10	1	-1E+10	1	-1E+10	1	-1E+10	1	-1E+10	1
4901784	102	C	04/20/2018	10:40	-132.405	43.340	0	17.30	0	9.8940	0	32.8240	4	25.271	0	17.161	0	271.8	4	97.2	4	-1E+10	1	-1E+10	1	-1E+10	1	-1E+10	1	-1E+10	1	-1E+10	1
4901784	102	C	04/20/2018	10:40	-132.405	43.340	0	19.10	0	9.8520	0	32.8220	4	25.277	0	18.947	0	271.9	4	97.2	4	-1E+10	1	-1E+10	1	-1E+10	1	-1E+10	1	-1E+10	1	-1E+10	1
4901784	102	C	04/20/2018	10:40	-132.405	43.340	0	21.00	0	9.8410	0	32.8230	4	25.280	0	20.832	0	271.8	4	97.1	4	-1E+10	1	-1E+10	1	-1E+10	1	-1E+10	1	-1E+10	1	-1E+10	1
4901784	102	C	04/20/2018	10:40	-132.405	43.340	0	22.80	0	9.8420	0	32.8230	4	25.279	0	22.617	0	271.6	4	97.0	4	-1E+10	1	-1E+10	1	-1E+10	1	-1E+10	1	-1E+10	1	-1E+10	1
4901784	102	C	04/20/2018	10:40	-132.405	43.340	0	24.50	0	9.8390	0	32.8230	4	25.280	0	24.303	0	271.6	4	97.0	4	-1E+10	1	-1E+10	1	-1E+10	1	-1E+10	1	-1E+10	1	-1E+10	1
4901784	102	C	04/20/2018	10:40	-132.405	43.340	0	26.40	0	9.8380	0	32.8230	4	25.280	0	26.188	0	271.4	4	97.0	4	-1E+10	1	-1E+10	1	-1E+10	1	-1E+10	1	-1E+10	1	-1E+10	1
4901784	102	C	04/20/2018	10:40	-132.405	43.340	0	28.20	0	9.8390	0	32.8230	4	25.280	0	27.973	0	271.3	4	96.9	4	-1E+10	1	-1E+10	1	-1E+10	1	-1E+10	1	-1E+10	1	-1E+10	1
4901784	102	C	04/20/2018	10:40	-132.405	43.340	0	30.00	0	9.8380	0	32.8230	4	25.280	0	29.759	0	271.2	4	96.9	4	-1E+10	1	-1E+10	1	-1E+10	1	-1E+10	1	-1E+10	1	-1E+10	1
4901784	102	C	04/20/2018	10:40	-132.405	43.340	0	31.80	0	9.8340	0	32.8230	4	25.281	0	31.544	0	271.1	4	96.8	4	-1E+10	1	-1E+10	1	-1E+10	1	-1E+10	1	-1E+10	1	-1E+10	1
4901784	102	C	04/20/2018	10:40	-132.405	43.340	0	33.60	0	9.8350	0	32.8230	4	25.281	0	33.330	0	271.3	4	96.9	4	-1E+10	1	-1E+10	1	-1E+10	1	-1E+10	1	-1E+10	1	-1E+10	1
4901784	102	C	04/20/2018	10:40	-132.405	43.340	0	35.50	0	9.8330	0	32.8240	4	25.282	0	35.214	0	271.3	4	96.9	4	-1E+10	1	-1E+10	1	-1E+10	1	-1E+10	1	-1E+10	1	-1E+10	1
4901784	102	C	04/20/2018	10:40	-132.405	43.340	0	37.30	0	9.8330	0	32.8230	4	25.281	0	37.000	0	271.0	4	96.8	4	-1E+10	1	-1E+10	1	-1E+10	1	-1E+10	1	-1E+10	1	-1E+10	1
4901784	102	C	04/20/2018	10:40	-132.405	43.340	0	39.20	0	9.8330	0	32.8240	4	25.282	0	38.884	0	271.1	4	96.8	4	-1E+10	1	-1E+10	1	-1E+10	1	-1E+10	1	-1E+10	1	-1E+10	1
4901784	102	C	04/20/2018	10:40	-132.405	43.340	0	41.00	0	9.8330	0	32.8230	4	25.281	0	40.669	0	270.9	4	96.8	4	-1E+10	1	-1E+10	1	-1E+10	1	-1E+10	1	-1E+10	1	-1E+10	1
4901784	102	C	04/20/2018	10:40	-132.405	43.340	0	42.80	0	9.8320	0	32.8230	4	25.281	0	42.455	0	270.8	4	96.7	4	-1E+10	1	-1E+10	1	-1E+10	1	-1E+10	1	-1E+10	1	-1E+10	1
4901784	102	C	04/20/2018	10:40	-132.405	43.340	0	44.60	0	9.8310	0	32.8230	4	25.282	0	44.240	0	270.8	4	96.7	4	-1E+10	1	-1E+10	1	-1E+10	1	-1E+10	1	-1E+10	1	-1E+10	1
4901784	102	C	04/20/2018	10:40	-132.405	43.340	0	46.40	0	9.8290	0	32.8230	4	25.282	0	46.025	0	270.4	4	96.6	4	-1E+10	1	-1E+10	1	-1E+10	1	-1E+10	1	-1E+10	1	-1E+10	1
4901784	102	C	04/20/2018	10:40	-132.405	43.340	0	48.20	0	9.8260	0	32.8230	4	25.282	0	47.810	0	270.3	4	96.6	4	-1E+10	1	-1E+10	1	-1E+10	1	-1E+10	1	-1E+10	1	-1E+10	1
4901784	102	C	04/20/2018	10:40	-132.405	43.340	0	50.10	0	9.8250	0	32.8220	4	25.282	0	49.695	0	270.2	4	96.5	4	-1E+10	1	-1E+10	1	-1E+10	1	-1E+10	1	-1E+10	1	-1E+10	1
4901784	102	C	04/20/2018	10:40	-132.405	43.340	0	51.80	0	9.8220	0	32.8220	4	25.282	0	51.381	0	269.9	4	96.4	4	-1E+10	1	-1E+10	1	-1E+10	1	-1E+10	1	-1E+10	1	-1E+10	1
4901784	102	C	04/20/2018	10:40	-132.405	43.340	0	53.60	0	9.8210	0	32.8220	4	25.283	0	53.166	0	270.1	4	96.5	4	-1E+10	1	-1E+10	1	-1E+10	1	-1E+10	1	-1E+10	1	-1E+10	1
4901784	102	C	04/20/2018	10:40	-132.405	43.340	0	55.40	0	9.8180	0	32.8220	4	25.283	0	54.951	0	269.6	4	96.3	4	-1E+10	1	-1E+10	1	-1E+10	1	-1E+10	1	-1E+10	1	-1E+10	1
4901784	102	C	04/20/2018	10:40	-132.405	43.340	0	57.20	0	9.8160	0	32.8220	4	25.284	0	56.737	0	269.5	4	96.2	4	-1E+10	1	-1E+10	1	-1E+10	1	-1E+10	1	-1E+10	1	-1E+10	1
4901784	102	C	04/20/2018	10:40	-132.405	43.340	0	59.00	0	9.8160	0	32.8220	4	25.284	0	58.522	0	269.4	4	96.2	4	-1E+10	1	-1E+10	1	-1E+10	1	-1E+10	1	-1E+10	1	-1E+10	1
4901784	102	C	04/20/2018	10:40	-132.405	43.340	0	60.80	0	9.8160	0	32.8230	4	25.284	0	60.307	0	269.1	4	96.1	4	-1E+10	1	-1E+10	1	-1E+10	1	-1E+10	1	-1E+10	1	-1E+10	1
4901784	102	C	04/20/2018	10:40	-132.405	43.340	0	62.60	0	9.8110	0	32.8220	4	25.284	0	62.092	0	269.0	4	96.1	4	-1E+10	1	-1E+10	1	-1E+10	1	-1E+10	1	-1E+10	1	-1E+10	1
4901784	102	C	04/20/2018	10:40	-132.405	43.340	0	64.40	0	9.8070	0	32.8220	4	25.285	0	63.877	0	268.9	4	96.0	4	-1E+10	1	-1E+10	1	-1E+10	1	-1E+10	1	-1E+10	1	-1E+10	1
4901784	102	C	04/20/2018	10:40	-132.405	43.340	0	66.20	0	9.8020	0	32.8210	4	25.285	0	65.662	0	268.8	4	96.0	4	-1E+10	1	-1E+10	1	-1E+10	1	-1E+10	1	-1E+10	1	-1E+10	1
4901784	102	C	04/20/2018	10:40	-132.405	43.340	0	68.10	0	9.7990	0	32.8200	4	25.285	0	67.546	0	268.6	4	95.9	4	-1E+10	1	-1E+10	1	-1E+10	1	-1E+10	1	-1E+10	1	-1E+10	1
4901784	102	C	04/20/2018	10:40	-132.405	43.340	0	69.80	0	9.7950	0	32.8210	4	25.286	0	69.232	0	268.2	4	95.7	4	-1E+10	1	-1E+10	1	-1E+10	1	-1E+10	1	-1E+10	1	-1E+10	1
4901784	102	C	04/20/2018	10:40	-132.405	43.340	0	71.60	0	9.7910	0	32.8190	4	25.286	0	71.017	0	267.8	4	95.6	4	-1E+10	1	-1E+10	1	-1E+10	1	-1E+10	1	-1E+10	1	-1E+10	1
4901784	102	C	04/20/2018	10:40	-132.405	43.340	0	73.40	0	9.7730	0	32.8180	4	25.288	0	72.802	0	267.4	4	95.4	4	-1E+10	1	-1E+10	1	-1E+10	1	-1E+10	1	-1E+10	1	-1E+10	1
4901784	102	C	04/20/2018	10:40	-132.405	43.340	0	75.20	0	9.7590	0	32.8160	4	25.289	0	74.587	0	267.0	4	95.2	4	-1E+10	1	-1E+10	1	-1E+10	1	-1E+10	1	-1E+10	1	-1E+10	1
4901784	102	C	04/20/2018	10:40	-132.405	43.340	0	77.00	0	9.7440	0	32.8140	4	25.289	0	76.372	0	266.6	4	95.0	4	-1E+10	1	-1E+10	1	-1E+10	1	-1E+10	1	-1E+10	1	-1E+10	1
4901784	102	C	04/20/2018	10:40	-132.405	43.340	0	78.80	0	9.7250	0	32.8110	4	25.290	0	78.157	0	266.2	4	94.8	4	-1E+10	1	-1E+10	1	-1E+10	1	-1E+10	1	-1E+10	1	-1E+10	1
4901784	102	C	04/20/2018	10:40	-132.405	43.340	0	80.60	0	9.6830	0	32.8060	4	25.293	0	79.942	0	265.6	4	94.5	4	-1E+10	1	-1E+10	1	-1E+10	1	-1E+10	1	-1E+10	1	-1E+10	1
4901784	102	C	04/20/2018	10:40	-132.405	43.340	0	82.80	0	9.6310	0	32.7980	4	25.295	0	82.124	0	264.3	4	94.0	4	-1E+10	1	-1E+10	1	-1E+10	1	-1E+10	1	-1E+10	1	-1E+10	1
4901784	102	C	04/20/2018	10:40	-132.405	43.340	0	84.60	0	9.5990	0	32.7920	4	25.296	0	83.909	0	262.4	4	93.2	4	-1E+10	1	-1E+10	1	-1E+10	1	-1E+10	1	-1E+10	1	-1E+10	1
4901784	102	C	04/20/2018	10:40	-132.405	43.340	0	85.80	0	9.5560	0	32.7890	4	25.301	0	85.099	0	260.3	4	92.4	4	-1E+10	1	-1E+10	1	-1E+10	1	-1E+10	1	-1E+10	1	-1E+10	1
4901784	102	C	04/20/2018	10:40	-132.405	43.340	0	87.30	0	9.6220	0	32.8160	4	25.311	0	86.586	0	256.7	4	91.3	4	-1E+10	1	-1E+10	1	-1E+10	1	-1E+10	1	-1E+10	1	-1E+10	1
4901784	102	C	04/20/2018	10:40	-132.405	43.340	0	88.60	0	9.4130	0	32.8590	4	25.378	0	87.875	0	254.1	4	90.0	4	-1E+10	1	-1E+10	1	-1E+10	1	-1E+10	1	-1E+10	1	-1E+10	1
4901784	102	C	04/20/2018	10:40	-132.405	43.340	0	90.10	0	9.1050	0	32.9080	4	25.466	0	89.363	0	253.9	4	89.3	4	-1E+10	1	-1E+10	1	-1E+10	1	-1E+10	1	-1E+10	1	-1E+10	1
4901784	102	C	04/20/2018	10:40	-132.405	43.340	0	91.50	0	8.8750	0	32.9510	4	25.535	0	90.751	0	253.7	4	88.8	4	-1E+10	1	-1E+10	1	-1E+10	1	-1E+10	1	-1E+10	1	-1E+10	1
4901784	102	C	04/20/2018	10:40	-132.405	43.340	0	92.90	0	8.8540	0	32.9520	4	25.539	0	92.139	0	252.3	4	88.3	4	-1E+10	1	-1E+10	1	-1E+10	1	-1E+10	1	-1E+10	1	-1E+10	1
4901784	102	C	04/20/2018	10:40	-132.405	43.340	0	94.40	0	8.8060	0	32.9540	4	25.548	0	93.627	0	250.4	4	87.5	4	-1E+10	1	-1E+10	1	-1E+10	1	-1E+10	1	-1E+10	1	-1E+10	1
4901784	102	C	04/20/2018	10:40	-132.405	43.340	0	95.90	0	8.5080	0	33.0020	4	25.631	0	95.114	0	249.4	4	86.6	4	-1E+10	1	-1E+10	1	-1E+10	1	-1E+10	1	-1E+10	1	-1E+10	1
4901784	102	C	04/20/2018	10:40	-132.405	43.340	0	97.60	0	8.4490	0	33.0040	4	25.642	0	96.800	0	247.6	4	85.9	4	-1E+10	1	-1E+10	1	-1E+10	1	-1E+10	1	-1E+10	1	-1E+10	1
4901784	102	C	04/20/2018	10:40	-132.405	43.340	0	99.30	0	8.1430	0	33.0740	4	25.742	0	98.485	0	246.3	4	84.9	4	-1E+10	1	-1E+10	1	-1E+10	1	-1E+10	1	-1E+10	1	-1E+10	1
4901784	102	C	04/20/2018	10:40	-132.405	43.340	0	102.80	0	7.9280	0	33.1410	4	25.826	0	101.956	0	245.2	4	84.2	4	-1E+10	1	-1E+10	1	-1E+10	1	-1E+10	1	-1E+10	1	-1E+10	1
4901784	102	C	04/20/2018	10:40	-132.405	43.340	0	104.70	0	7.9310	0	33.1640	4	25.844	0	103.840	0	244.1	4	83.8	4	-1E+10	1	-1E+10	1	-1E+10	1	-1E+10	1	-1E+10	1	-1E+10	1
4901784	102	C	04/20/2018	10:40	-132.405	43.340	0	107.30	0	7.9420	0	33.1780	4	25.853	0	106.418	0	242.2	4	83.2	4	-1E+10	1	-1E+10	1	-1E+10	1	-1E+10	1	-1E+10	1	-1E+10	1
4901784	102	C	04/20/2018	10:40	-132.405	43.340	0	110.00	0	7.9690	0	33.2030	4	25.869	0	109.095	0	240.2	4	82.6	4	-1E+10	1	-1E+10	1	-1E+10	1	-1E+10	1	-1E+10	1	-1E+10	1
4901784	102	C	04/20/2018	10:40	-132.405	43.340	0	112.60	0	7.9800	0	33.2200	4	25.881	0	111.673	0	238.6	4	82.1	4	-1E+10	1	-1E+10	1	-1E+10	1	-1E+10	1	-1E+10	1	-1E+10	1
4901784	102	C	04/20/2018	10:40	-132.405	43.340	0	115.20	0	7.9790	0	33.2470	4	25.902	0	114.250	0	236.3	4	81.3	4	-1E+10	1	-1E+10	1	-1E+10	1	-1E+10	1	-1E+10	1	-1E+10	1
4901784	102	C	04/20/2018	10:40	-132.405	43.340	0	117.10	0	8.0090	0	33.2740	4	25.919	0	116.134	0	234.3	4	80.7	4	-1E+10	1	-1E+10	1	-1E+10	1	-1E+10	1	-1E+10	1	-1E+10	1
4901784	102	C	04/20/2018	10:40	-132.405	43.340	0	119.80	0	8.0390	0	33.2940	4	25.930	0	118.811	0	231.4	4	79.7	4	-1E+10	1	-1E+10	1	-1E+10	1	-1E+10	1	-1E+10	1	-1E+10	1
4901784	102	C	04/20/2018	10:40	-132.405	43.340	0	123.20	0	8.0750	0	33.3280	4	25.952	0	122.182	0	227.4	4	78.4	4	-1E+10	1	-1E+10	1	-1E+10	1	-1E+10	1	-1E+10	1	-1E+10	1
4901784	102	C	04/20/2018	10:40	-132.405	43.340	0	125.00	0	8.1070	0	33.3590	4	25.972	0	123.967	0	224.3	4	77.4	4	-1E+10	1	-1E+10	1	-1E+10	1	-1E+10	1	-1E+10	1	-1E+10	1
4901784	102	C	04/20/2018	10:40	-132.405	43.340	0	127.30	0	8.1550	0	33.4040	4	26.000	0	126.247	0	220.4	4	76.2	4	-1E+10	1	-1E+10	1	-1E+10	1	-1E+10	1	-1E+10	1	-1E+10	1
4901784	102	C	04/20/2018	10:40	-132.405	43.340	0	130.40	0	8.2150	0	33.4390	4	26.018	0	129.320	0	215.7	4	74.7	4	-1E+10	1	-1E+10	1	-1E+10	1	-1E+10	1	-1E+10	1	-1E+10	1
4901784	102	C	04/20/2018	10:40	-132.405	43.340	0	132.80	0	8.2650	0	33.4800	4	26.043	0	131.700	0	212.5	4	73.7	4	-1E+10	1	-1E+10	1	-1E+10	1	-1E+10	1	-1E+10	1	-1E+10	1
4901784	102	C	04/20/2018	10:40	-132.405	43.340	0	135.20	0	8.2800	0	33.4930	4	26.051	0	134.079	0	209.9	4	72.8	4	-1E+10	1	-1E+10	1	-1E+10	1	-1E+10	1	-1E+10	1	-1E+10	1
4901784	102	C	04/20/2018	10:40	-132.405	43.340	0	137.80	0	8.3070	0	33.5150	4	26.064	0	136.657	0	206.6	4	71.7	4	-1E+10	1	-1E+10	1	-1E+10	1	-1E+10	1	-1E+10	1	-1E+10	1
4901784	102	C	04/20/2018	10:40	-132.405	43.340	0	140.20	0	8.3370	0	33.5410	4	26.080	0	139.036	0	203.4	4	70.7	4	-1E+10	1	-1E+10	1	-1E+10	1	-1E+10	1	-1E+10	1	-1E+10	1
4901784	102	C	04/20/2018	10:40	-132.405	43.340	0	142.70	0	8.3610	0	33.5800	4	26.107	0	141.514	0	200.6	4	69.7	4	-1E+10	1	-1E+10	1	-1E+10	1	-1E+10	1	-1E+10	1	-1E+10	1
4901784	102	C	04/20/2018	10:40	-132.405	43.340	0	145.20	0	8.3810	0	33.6120	4	26.129	0	143.993	0	197.3	4	68.7	4	-1E+10	1	-1E+10	1	-1E+10	1	-1E+10	1	-1E+10	1	-1E+10	1
4901784	102	C	04/20/2018	10:40	-132.405	43.340	0	147.80	0	8.4100	0	33.6440	4	26.150	0	146.570	0	194.2	4	67.6	4	-1E+10	1	-1E+10	1	-1E+10	1	-1E+10	1	-1E+10	1	-1E+10	1
4901784	102	C	04/20/2018	10:40	-132.405	43.340	0	150.30	0	8.4280	0	33.6860	4	26.181	0	149.049	0	192.5	4	67.1	4	-1E+10	1	-1E+10	1	-1E+10	1	-1E+10	1	-1E+10	1	-1E+10	1
4901784	102	C	04/20/2018	10:40	-132.405	43.340	0	152.90	0	8.4480	0	33.7440	4	26.223	0	151.626	0	191.0	4	66.6	4	-1E+10	1	-1E+10	1	-1E+10	1	-1E+10	1	-1E+10	1	-1E+10	1
4901784	102	C	04/20/2018	10:40	-132.405	43.340	0	154.70	0	8.4660	0	33.7890	4	26.256	0	153.410	0	190.4	4	66.5	4	-1E+10	1	-1E+10	1	-1E+10	1	-1E+10	1	-1E+10	1	-1E+10	1
4901784	102	C	04/20/2018	10:40	-132.405	43.340	0	157.30	0	8.4870	0	33.8540	4	26.303	0	155.988	0	188.9	4	66.0	4	-1E+10	1	-1E+10	1	-1E+10	1	-1E+10	1	-1E+10	1	-1E+10	1
4901784	102	C	04/20/2018	10:40	-132.405	43.340	0	160.00	0	8.4980	0	33.8970	4	26.335	0	158.664	0	186.0	4	65.0	4	-1E+10	1	-1E+10	1	-1E+10	1	-1E+10	1	-1E+10	1	-1E+10	1
4901784	102	C	04/20/2018	10:40	-132.405	43.340	0	161.90	0	8.4880	0	33.9260	4	26.360	0	160.547	0	184.7	4	64.6	4	-1E+10	1	-1E+10	1	-1E+10	1	-1E+10	1	-1E+10	1	-1E+10	1
4901784	102	C	04/20/2018	10:40	-132.405	43.340	0	164.80	0	8.4960	0	33.9550	4	26.381	0	163.422	0	185.8	4	65.0	4	-1E+10	1	-1E+10	1	-1E+10	1	-1E+10	1	-1E+10	1	-1E+10	1
4901784	102	C	04/20/2018	10:40	-132.405	43.340	0	167.60	0	8.5760	0	33.9960	4	26.401	0	166.198	0	187.0	4	65.5	4	-1E+10	1	-1E+10	1	-1E+10	1	-1E+10	1	-1E+10	1	-1E+10	1
4901784	102	C	04/20/2018	10:40	-132.405	43.340	0	169.50	0	8.5720	0	34.0250	4	26.425	0	168.081	0	185.5	4	65.0	4	-1E+10	1	-1E+10	1	-1E+10	1	-1E+10	1	-1E+10	1	-1E+10	1
4901784	102	C	04/20/2018	10:40	-132.405	43.340	0	172.50	0	8.5690	0	34.0350	4	26.433	0	171.054	0	184.4	4	64.6	4	-1E+10	1	-1E+10	1	-1E+10	1	-1E+10	1	-1E+10	1	-1E+10	1
4901784	102	C	04/20/2018	10:40	-132.405	43.340	0	175.40	0	8.5550	0	34.0430	4	26.441	0	173.929	0	182.7	4	64.0	4	-1E+10	1	-1E+10	1	-1E+10	1	-1E+10	1	-1E+10	1	-1E+10	1
4901784	102	C	04/20/2018	10:40	-132.405	43.340	0	177.30	0	8.5400	0	34.0500	4	26.449	0	175.812	0	181.9	4	63.7	4	-1E+10	1	-1E+10	1	-1E+10	1	-1E+10	1	-1E+10	1	-1E+10	1
4901784	102	C	04/20/2018	10:40	-132.405	43.340	0	180.20	0	8.5030	0	34.0560	4	26.460	0	178.687	0	180.5	4	63.2	4	-1E+10	1	-1E+10	1	-1E+10	1	-1E+10	1	-1E+10	1	-1E+10	1
4901784	102	C	04/20/2018	10:40	-132.405	43.340	0	183.10	0	8.4530	0	34.0560	4	26.467	0	181.561	0	179.2	4	62.7	4	-1E+10	1	-1E+10	1	-1E+10	1	-1E+10	1	-1E+10	1	-1E+10	1
4901784	102	C	04/20/2018	10:40	-132.405	43.340	0	185.00	0	8.4220	0	34.0550	4	26.471	0	183.444	0	178.6	4	62.4	4	-1E+10	1	-1E+10	1	-1E+10	1	-1E+10	1	-1E+10	1	-1E+10	1
4901784	102	C	04/20/2018	10:40	-132.405	43.340	0	187.10	0	8.3860	0	34.0630	4	26.483	0	185.526	0	178.1	4	62.2	4	-1E+10	1	-1E+10	1	-1E+10	1	-1E+10	1	-1E+10	1	-1E+10	1
4901784	102	C	04/20/2018	10:40	-132.405	43.340	0	190.00	0	8.3440	0	34.0610	4	26.488	0	188.400	0	177.4	4	61.9	4	-1E+10	1	-1E+10	1	-1E+10	1	-1E+10	1	-1E+10	1	-1E+10	1
4901784	102	C	04/20/2018	10:40	-132.405	43.340	0	193.00	0	8.3220	0	34.0650	4	26.495	0	191.373	0	176.9	4	61.7	4	-1E+10	1	-1E+10	1	-1E+10	1	-1E+10	1	-1E+10	1	-1E+10	1
4901784	102	C	04/20/2018	10:40	-132.405	43.340	0	195.00	0	8.3170	0	34.0650	4	26.495	0	193.355	0	176.4	4	61.5	4	-1E+10	1	-1E+10	1	-1E+10	1	-1E+10	1	-1E+10	1	-1E+10	1
4901784	102	C	04/20/2018	10:40	-132.405	43.340	0	197.00	0	8.3050	0	34.0650	4	26.497	0	195.338	0	175.7	4	61.2	4	-1E+10	1	-1E+10	1	-1E+10	1	-1E+10	1	-1E+10	1	-1E+10	1
4901784	102	C	04/20/2018	10:40	-132.405	43.340	0	199.50	0	8.2760	0	34.0680	4	26.504	0	197.815	0	174.4	4	60.8	4	-1E+10	1	-1E+10	1	-1E+10	1	-1E+10	1	-1E+10	1	-1E+10	1
4901784	102	C	04/20/2018	10:40	-132.405	43.340	0	202.40	0	8.2340	0	34.0650	4	26.508	0	200.689	0	172.1	4	59.9	4	-1E+10	1	-1E+10	1	-1E+10	1	-1E+10	1	-1E+10	1	-1E+10	1
4901784	102	C	04/20/2018	10:40	-132.405	43.340	0	204.90	0	8.1740	0	34.0630	4	26.515	0	203.167	0	169.5	4	58.9	4	-1E+10	1	-1E+10	1	-1E+10	1	-1E+10	1	-1E+10	1	-1E+10	1
4901784	102	C	04/20/2018	10:40	-132.405	43.340	0	207.40	0	8.1100	0	34.0590	4	26.522	0	205.645	0	166.6	4	57.8	4	-1E+10	1	-1E+10	1	-1E+10	1	-1E+10	1	-1E+10	1	-1E+10	1
4901784	102	C	04/20/2018	10:40	-132.405	43.340	0	209.90	0	8.0440	0	34.0520	4	26.526	0	208.122	0	162.9	4	56.4	4	-1E+10	1	-1E+10	1	-1E+10	1	-1E+10	1	-1E+10	1	-1E+10	1
4901784	102	C	04/20/2018	10:40	-132.405	43.340	0	212.40	0	7.8940	0	34.0400	4	26.539	0	210.600	0	160.1	4	55.3	4	-1E+10	1	-1E+10	1	-1E+10	1	-1E+10	1	-1E+10	1	-1E+10	1
4901784	102	C	04/20/2018	10:40	-132.405	43.340	0	214.80	0	7.7830	0	34.0310	4	26.548	0	212.978	0	159.7	4	55.0	4	-1E+10	1	-1E+10	1	-1E+10	1	-1E+10	1	-1E+10	1	-1E+10	1
4901784	102	C	04/20/2018	10:40	-132.405	43.340	0	217.20	0	7.8040	0	34.0420	4	26.554	0	215.357	0	161.0	4	55.5	4	-1E+10	1	-1E+10	1	-1E+10	1	-1E+10	1	-1E+10	1	-1E+10	1
4901784	102	C	04/20/2018	10:40	-132.405	43.340	0	219.70	0	7.8120	0	34.0510	4	26.560	0	217.834	0	160.1	4	55.2	4	-1E+10	1	-1E+10	1	-1E+10	1	-1E+10	1	-1E+10	1	-1E+10	1
4901784	102	C	04/20/2018	10:40	-132.405	43.340	0	222.20	0	7.7460	0	34.0500	4	26.568	0	220.312	0	158.0	4	54.4	4	-1E+10	1	-1E+10	1	-1E+10	1	-1E+10	1	-1E+10	1	-1E+10	1
4901784	102	C	04/20/2018	10:40	-132.405	43.340	0	224.70	0	7.6980	0	34.0470	4	26.573	0	222.789	0	156.3	4	53.7	4	-1E+10	1	-1E+10	1	-1E+10	1	-1E+10	1	-1E+10	1	-1E+10	1
4901784	102	C	04/20/2018	10:40	-132.405	43.340	0	227.30	0	7.6880	0	34.0460	4	26.574	0	225.365	0	154.5	4	53.1	4	-1E+10	1	-1E+10	1	-1E+10	1	-1E+10	1	-1E+10	1	-1E+10	1
4901784	102	C	04/20/2018	10:40	-132.405	43.340	0	229.90	0	7.6270	0	34.0430	4	26.580	0	227.942	0	152.0	4	52.2	4	-1E+10	1	-1E+10	1	-1E+10	1	-1E+10	1	-1E+10	1	-1E+10	1
4901784	102	C	04/20/2018	10:40	-132.405	43.340	0	232.50	0	7.5950	0	34.0380	4	26.581	0	230.518	0	149.0	4	51.1	4	-1E+10	1	-1E+10	1	-1E+10	1	-1E+10	1	-1E+10	1	-1E+10	1
4901784	102	C	04/20/2018	10:40	-132.405	43.340	0	235.00	0	7.5020	0	34.0320	4	26.589	0	232.996	0	145.8	4	49.9	4	-1E+10	1	-1E+10	1	-1E+10	1	-1E+10	1	-1E+10	1	-1E+10	1
4901784	102	C	04/20/2018	10:40	-132.405	43.340	0	237.50	0	7.4630	0	34.0270	4	26.591	0	235.473	0	143.4	4	49.0	4	-1E+10	1	-1E+10	1	-1E+10	1	-1E+10	1	-1E+10	1	-1E+10	1
4901784	102	C	04/20/2018	10:40	-132.405	43.340	0	240.10	0	7.4300	0	34.0230	4	26.593	0	238.049	0	140.6	4	48.0	4	-1E+10	1	-1E+10	1	-1E+10	1	-1E+10	1	-1E+10	1	-1E+10	1
4901784	102	C	04/20/2018	10:40	-132.405	43.340	0	242.70	0	7.3480	0	34.0260	4	26.607	0	240.625	0	138.4	4	47.2	4	-1E+10	1	-1E+10	1	-1E+10	1	-1E+10	1	-1E+10	1	-1E+10	1
4901784	102	C	04/20/2018	10:40	-132.405	43.340	0	245.20	0	7.2910	0	34.0260	4	26.615	0	243.103	0	137.9	4	47.0	4	-1E+10	1	-1E+10	1	-1E+10	1	-1E+10	1	-1E+10	1	-1E+10	1
4901784	102	C	04/20/2018	10:40	-132.405	43.340	0	247.70	0	7.2400	0	34.0260	4	26.622	0	245.580	0	138.4	4	47.1	4	-1E+10	1	-1E+10	1	-1E+10	1	-1E+10	1	-1E+10	1	-1E+10	1
4901784	102	C	04/20/2018	10:40	-132.405	43.340	0	250.30	0	7.2060	0	34.0270	4	26.627	0	248.156	0	139.1	4	47.3	4	-1E+10	1	-1E+10	1	-1E+10	1	-1E+10	1	-1E+10	1	-1E+10	1
4901784	102	C	04/20/2018	10:40	-132.405	43.340	0	252.00	0	7.1880	0	34.0290	4	26.631	0	249.840	0	140.0	4	47.6	4	-1E+10	1	-1E+10	1	-1E+10	1	-1E+10	1	-1E+10	1	-1E+10	1
4901784	102	C	04/20/2018	10:40	-132.405	43.340	0	254.70	0	7.1780	0	34.0340	4	26.637	0	252.515	0	141.4	4	48.0	4	-1E+10	1	-1E+10	1	-1E+10	1	-1E+10	1	-1E+10	1	-1E+10	1
4901784	102	C	04/20/2018	10:40	-132.405	43.340	0	257.30	0	7.1700	0	34.0380	4	26.641	0	255.092	0	141.2	4	48.0	4	-1E+10	1	-1E+10	1	-1E+10	1	-1E+10	1	-1E+10	1	-1E+10	1
4901784	102	C	04/20/2018	10:40	-132.405	43.340	0	259.90	0	7.1070	0	34.0390	4	26.651	0	257.668	0	140.3	4	47.6	4	-1E+10	1	-1E+10	1	-1E+10	1	-1E+10	1	-1E+10	1	-1E+10	1
4901784	102	C	04/20/2018	10:40	-132.405	43.340	0	262.50	0	7.0880	0	34.0370	4	26.652	0	260.244	0	139.5	4	47.3	4	-1E+10	1	-1E+10	1	-1E+10	1	-1E+10	1	-1E+10	1	-1E+10	1
4901784	102	C	04/20/2018	10:40	-132.405	43.340	0	265.20	0	7.0420	0	34.0380	4	26.659	0	262.919	0	138.6	4	46.9	4	-1E+10	1	-1E+10	1	-1E+10	1	-1E+10	1	-1E+10	1	-1E+10	1
4901784	102	C	04/20/2018	10:40	-132.405	43.340	0	267.90	0	7.0100	0	34.0380	4	26.663	0	265.594	0	137.6	4	46.6	4	-1E+10	1	-1E+10	1	-1E+10	1	-1E+10	1	-1E+10	1	-1E+10	1
4901784	102	C	04/20/2018	10:40	-132.405	43.340	0	269.70	0	6.9680	0	34.0390	4	26.670	0	267.377	0	136.6	4	46.2	4	-1E+10	1	-1E+10	1	-1E+10	1	-1E+10	1	-1E+10	1	-1E+10	1
4901784	102	C	04/20/2018	10:40	-132.405	43.340	0	272.30	0	6.9140	0	34.0400	4	26.678	0	269.953	0	135.6	4	45.8	4	-1E+10	1	-1E+10	1	-1E+10	1	-1E+10	1	-1E+10	1	-1E+10	1
4901784	102	C	04/20/2018	10:40	-132.405	43.340	0	275.10	0	6.8700	0	34.0390	4	26.683	0	272.727	0	134.6	4	45.4	4	-1E+10	1	-1E+10	1	-1E+10	1	-1E+10	1	-1E+10	1	-1E+10	1
4901784	102	C	04/20/2018	10:40	-132.405	43.340	0	276.90	0	6.8340	0	34.0390	4	26.688	0	274.510	0	134.1	4	45.2	4	-1E+10	1	-1E+10	1	-1E+10	1	-1E+10	1	-1E+10	1	-1E+10	1
4901784	102	C	04/20/2018	10:40	-132.405	43.340	0	279.70	0	6.8090	0	34.0400	4	26.692	0	277.284	0	133.5	4	45.0	4	-1E+10	1	-1E+10	1	-1E+10	1	-1E+10	1	-1E+10	1	-1E+10	1
4901784	102	C	04/20/2018	10:40	-132.405	43.340	0	282.40	0	6.8060	0	34.0370	4	26.690	0	279.959	0	132.5	4	44.6	4	-1E+10	1	-1E+10	1	-1E+10	1	-1E+10	1	-1E+10	1	-1E+10	1
4901784	102	C	04/20/2018	10:40	-132.405	43.340	0	285.20	0	6.7880	0	34.0360	4	26.692	0	282.733	0	131.2	4	44.2	4	-1E+10	1	-1E+10	1	-1E+10	1	-1E+10	1	-1E+10	1	-1E+10	1
4901784	102	C	04/20/2018	10:40	-132.405	43.340	0	287.80	0	6.7070	0	34.0330	4	26.700	0	285.309	0	129.6	4	43.6	4	-1E+10	1	-1E+10	1	-1E+10	1	-1E+10	1	-1E+10	1	-1E+10	1
4901784	102	C	04/20/2018	10:40	-132.405	43.340	0	289.70	0	6.6760	0	34.0320	4	26.704	0	287.191	0	129.3	4	43.4	4	-1E+10	1	-1E+10	1	-1E+10	1	-1E+10	1	-1E+10	1	-1E+10	1
4901784	102	C	04/20/2018	10:40	-132.405	43.340	0	292.50	0	6.6550	0	34.0320	4	26.707	0	289.965	0	128.6	4	43.2	4	-1E+10	1	-1E+10	1	-1E+10	1	-1E+10	1	-1E+10	1	-1E+10	1
4901784	102	C	04/20/2018	10:40	-132.405	43.340	0	295.30	0	6.6310	0	34.0310	4	26.709	0	292.739	0	127.6	4	42.8	4	-1E+10	1	-1E+10	1	-1E+10	1	-1E+10	1	-1E+10	1	-1E+10	1
4901784	102	C	04/20/2018	10:40	-132.405	43.340	0	297.10	0	6.6130	0	34.0290	4	26.710	0	294.522	0	126.7	4	42.5	4	-1E+10	1	-1E+10	1	-1E+10	1	-1E+10	1	-1E+10	1	-1E+10	1
4901784	102	C	04/20/2018	10:40	-132.405	43.340	0	300.00	0	6.5670	0	34.0290	4	26.716	0	297.394	0	125.7	4	42.1	4	-1E+10	1	-1E+10	1	-1E+10	1	-1E+10	1	-1E+10	1	-1E+10	1
4901784	102	C	04/20/2018	10:40	-132.405	43.340	0	302.80	0	6.5160	0	34.0300	4	26.723	0	300.168	0	124.1	4	41.5	4	-1E+10	1	-1E+10	1	-1E+10	1	-1E+10	1	-1E+10	1	-1E+10	1
4901784	102	C	04/20/2018	10:40	-132.405	43.340	0	304.70	0	6.4400	0	34.0260	4	26.730	0	302.050	0	123.2	4	41.2	4	-1E+10	1	-1E+10	1	-1E+10	1	-1E+10	1	-1E+10	1	-1E+10	1
4901784	102	C	04/20/2018	10:40	-132.405	43.340	0	307.60	0	6.4100	0	34.0240	4	26.733	0	304.923	0	121.4	4	40.5	4	-1E+10	1	-1E+10	1	-1E+10	1	-1E+10	1	-1E+10	1	-1E+10	1
4901784	102	C	04/20/2018	10:40	-132.405	43.340	0	310.40	0	6.3020	0	34.0230	4	26.746	0	307.696	0	119.3	4	39.7	4	-1E+10	1	-1E+10	1	-1E+10	1	-1E+10	1	-1E+10	1	-1E+10	1
4901784	102	C	04/20/2018	10:40	-132.405	43.340	0	312.40	0	6.2870	0	34.0230	4	26.748	0	309.677	0	118.1	4	39.3	4	-1E+10	1	-1E+10	1	-1E+10	1	-1E+10	1	-1E+10	1	-1E+10	1
4901784	102	C	04/20/2018	10:40	-132.405	43.340	0	314.30	0	6.2820	0	34.0210	4	26.747	0	311.559	0	116.5	4	38.8	4	-1E+10	1	-1E+10	1	-1E+10	1	-1E+10	1	-1E+10	1	-1E+10	1
4901784	102	C	04/20/2018	10:40	-132.405	43.340	0	317.40	0	6.1950	0	34.0220	4	26.759	0	314.630	0	114.4	4	38.0	4	-1E+10	1	-1E+10	1	-1E+10	1	-1E+10	1	-1E+10	1	-1E+10	1
4901784	102	C	04/20/2018	10:40	-132.405	43.340	0	320.30	0	6.1680	0	34.0220	4	26.762	0	317.503	0	113.5	4	37.7	4	-1E+10	1	-1E+10	1	-1E+10	1	-1E+10	1	-1E+10	1	-1E+10	1
4901784	102	C	04/20/2018	10:40	-132.405	43.340	0	322.80	0	6.1170	0	34.0230	4	26.770	0	319.979	0	112.7	4	37.4	4	-1E+10	1	-1E+10	1	-1E+10	1	-1E+10	1	-1E+10	1	-1E+10	1
4901784	102	C	04/20/2018	10:40	-132.405	43.340	0	325.10	0	6.0810	0	34.0220	4	26.773	0	322.257	0	111.2	4	36.8	4	-1E+10	1	-1E+10	1	-1E+10	1	-1E+10	1	-1E+10	1	-1E+10	1
4901784	102	C	04/20/2018	10:40	-132.405	43.340	0	327.50	0	6.0500	0	34.0240	4	26.779	0	324.634	0	109.1	4	36.1	4	-1E+10	1	-1E+10	1	-1E+10	1	-1E+10	1	-1E+10	1	-1E+10	1
4901784	102	C	04/20/2018	10:40	-132.405	43.340	0	329.90	0	6.0340	0	34.0260	4	26.782	0	327.011	0	107.2	4	35.5	4	-1E+10	1	-1E+10	1	-1E+10	1	-1E+10	1	-1E+10	1	-1E+10	1
4901784	102	C	04/20/2018	10:40	-132.405	43.340	0	332.30	0	6.0090	0	34.0270	4	26.786	0	329.388	0	105.5	4	34.9	4	-1E+10	1	-1E+10	1	-1E+10	1	-1E+10	1	-1E+10	1	-1E+10	1
4901784	102	C	04/20/2018	10:40	-132.405	43.340	0	334.80	0	5.9970	0	34.0270	4	26.788	0	331.864	0	103.9	4	34.4	4	-1E+10	1	-1E+10	1	-1E+10	1	-1E+10	1	-1E+10	1	-1E+10	1
4901784	102	C	04/20/2018	10:40	-132.405	43.340	0	337.20	0	5.9910	0	34.0270	4	26.789	0	334.241	0	101.6	4	33.6	4	-1E+10	1	-1E+10	1	-1E+10	1	-1E+10	1	-1E+10	1	-1E+10	1
4901784	102	C	04/20/2018	10:40	-132.405	43.340	0	339.70	0	5.9740	0	34.0280	4	26.792	0	336.717	0	98.5	4	32.6	4	-1E+10	1	-1E+10	1	-1E+10	1	-1E+10	1	-1E+10	1	-1E+10	1
4901784	102	C	04/20/2018	10:40	-132.405	43.340	0	342.20	0	5.9560	0	34.0330	4	26.798	0	339.193	0	95.3	4	31.5	4	-1E+10	1	-1E+10	1	-1E+10	1	-1E+10	1	-1E+10	1	-1E+10	1
4901784	102	C	04/20/2018	10:40	-132.405	43.340	0	344.70	0	5.9350	0	34.0380	4	26.804	0	341.669	0	93.8	4	31.0	4	-1E+10	1	-1E+10	1	-1E+10	1	-1E+10	1	-1E+10	1	-1E+10	1
4901784	102	C	04/20/2018	10:40	-132.405	43.340	0	347.10	0	5.8950	0	34.0350	4	26.807	0	344.046	0	93.7	4	30.9	4	-1E+10	1	-1E+10	1	-1E+10	1	-1E+10	1	-1E+10	1	-1E+10	1
4901784	102	C	04/20/2018	10:40	-132.405	43.340	0	349.70	0	5.8740	0	34.0330	4	26.808	0	346.621	0	93.4	4	30.8	4	-1E+10	1	-1E+10	1	-1E+10	1	-1E+10	1	-1E+10	1	-1E+10	1
4901784	102	C	04/20/2018	10:40	-132.405	43.340	0	352.10	0	5.8230	0	34.0320	4	26.814	0	348.998	0	93.0	4	30.6	4	-1E+10	1	-1E+10	1	-1E+10	1	-1E+10	1	-1E+10	1	-1E+10	1
4901784	102	C	04/20/2018	10:40	-132.405	43.340	0	354.60	0	5.7850	0	34.0310	4	26.818	0	351.474	0	92.8	4	30.5	4	-1E+10	1	-1E+10	1	-1E+10	1	-1E+10	1	-1E+10	1	-1E+10	1
4901784	102	C	04/20/2018	10:40	-132.405	43.340	0	357.20	0	5.7420	0	34.0290	4	26.821	0	354.049	0	92.6	4	30.5	4	-1E+10	1	-1E+10	1	-1E+10	1	-1E+10	1	-1E+10	1	-1E+10	1
4901784	102	C	04/20/2018	10:40	-132.405	43.340	0	360.40	0	5.7030	0	34.0250	4	26.823	0	357.218	0	92.0	4	30.2	4	-1E+10	1	-1E+10	1	-1E+10	1	-1E+10	1	-1E+10	1	-1E+10	1
4901784	102	C	04/20/2018	10:40	-132.405	43.340	0	362.90	0	5.5950	0	34.0260	4	26.837	0	359.694	0	91.4	4	29.9	4	-1E+10	1	-1E+10	1	-1E+10	1	-1E+10	1	-1E+10	1	-1E+10	1
4901784	102	C	04/20/2018	10:40	-132.405	43.340	0	365.40	0	5.5820	0	34.0270	4	26.839	0	362.169	0	90.7	4	29.7	4	-1E+10	1	-1E+10	1	-1E+10	1	-1E+10	1	-1E+10	1	-1E+10	1
4901784	102	C	04/20/2018	10:40	-132.405	43.340	0	367.80	0	5.5680	0	34.0270	4	26.841	0	364.546	0	90.0	4	29.5	4	-1E+10	1	-1E+10	1	-1E+10	1	-1E+10	1	-1E+10	1	-1E+10	1
4901784	102	C	04/20/2018	10:40	-132.405	43.340	0	370.30	0	5.5490	0	34.0260	4	26.842	0	367.022	0	88.8	4	29.1	4	-1E+10	1	-1E+10	1	-1E+10	1	-1E+10	1	-1E+10	1	-1E+10	1
4901784	102	C	04/20/2018	10:40	-132.405	43.340	0	372.90	0	5.5240	0	34.0290	4	26.848	0	369.596	0	87.7	4	28.7	4	-1E+10	1	-1E+10	1	-1E+10	1	-1E+10	1	-1E+10	1	-1E+10	1
4901784	102	C	04/20/2018	10:40	-132.405	43.340	0	375.40	0	5.5130	0	34.0300	4	26.850	0	372.072	0	86.6	4	28.3	4	-1E+10	1	-1E+10	1	-1E+10	1	-1E+10	1	-1E+10	1	-1E+10	1
4901784	102	C	04/20/2018	10:40	-132.405	43.340	0	377.90	0	5.5030	0	34.0300	4	26.851	0	374.547	0	85.3	4	27.9	4	-1E+10	1	-1E+10	1	-1E+10	1	-1E+10	1	-1E+10	1	-1E+10	1
4901784	102	C	04/20/2018	10:40	-132.405	43.340	0	379.50	0	5.4970	0	34.0290	4	26.851	0	376.132	0	84.0	4	27.5	4	-1E+10	1	-1E+10	1	-1E+10	1	-1E+10	1	-1E+10	1	-1E+10	1
4901784	102	C	04/20/2018	10:40	-132.405	43.340	0	382.10	0	5.4550	0	34.0360	4	26.862	0	378.706	0	82.3	4	26.9	4	-1E+10	1	-1E+10	1	-1E+10	1	-1E+10	1	-1E+10	1	-1E+10	1
4901784	102	C	04/20/2018	10:40	-132.405	43.340	0	384.70	0	5.4260	0	34.0390	4	26.867	0	381.281	0	81.4	4	26.5	4	-1E+10	1	-1E+10	1	-1E+10	1	-1E+10	1	-1E+10	1	-1E+10	1
4901784	102	C	04/20/2018	10:40	-132.405	43.340	0	387.30	0	5.4170	0	34.0410	4	26.870	0	383.855	0	80.7	4	26.3	4	-1E+10	1	-1E+10	1	-1E+10	1	-1E+10	1	-1E+10	1	-1E+10	1
4901784	102	C	04/20/2018	10:40	-132.405	43.340	0	389.90	0	5.4010	0	34.0420	4	26.873	0	386.430	0	80.0	4	26.1	4	-1E+10	1	-1E+10	1	-1E+10	1	-1E+10	1	-1E+10	1	-1E+10	1
4901784	102	C	04/20/2018	10:40	-132.405	43.340	0	392.60	0	5.3830	0	34.0430	4	26.876	0	389.103	0	79.3	4	25.9	4	-1E+10	1	-1E+10	1	-1E+10	1	-1E+10	1	-1E+10	1	-1E+10	1
4901784	102	C	04/20/2018	10:40	-132.405	43.340	0	395.20	0	5.3720	0	34.0430	4	26.877	0	391.678	0	78.9	4	25.7	4	-1E+10	1	-1E+10	1	-1E+10	1	-1E+10	1	-1E+10	1	-1E+10	1
4901784	102	C	04/20/2018	10:40	-132.405	43.340	0	397.10	0	5.3690	0	34.0420	4	26.877	0	393.559	0	78.4	4	25.6	4	-1E+10	1	-1E+10	1	-1E+10	1	-1E+10	1	-1E+10	1	-1E+10	1
4901784	102	C	04/20/2018	10:40	-132.405	43.340	0	399.80	0	5.3410	0	34.0420	4	26.880	0	396.232	0	77.7	4	25.3	4	-1E+10	1	-1E+10	1	-1E+10	1	-1E+10	1	-1E+10	1	-1E+10	1
4901784	102	C	04/20/2018	10:40	-132.405	43.340	0	402.60	0	5.3060	0	34.0390	4	26.882	0	399.005	0	76.8	4	25.0	4	-1E+10	1	-1E+10	1	-1E+10	1	-1E+10	1	-1E+10	1	-1E+10	1
4901784	102	C	04/20/2018	10:40	-132.405	43.340	0	404.50	0	5.2360	0	34.0420	4	26.892	0	400.886	0	76.2	4	24.7	4	-1E+10	1	-1E+10	1	-1E+10	1	-1E+10	1	-1E+10	1	-1E+10	1
4901784	102	C	04/20/2018	10:40	-132.405	43.340	0	407.20	0	5.2220	0	34.0410	4	26.893	0	403.559	0	75.0	4	24.4	4	-1E+10	1	-1E+10	1	-1E+10	1	-1E+10	1	-1E+10	1	-1E+10	1
4901784	102	C	04/20/2018	10:40	-132.405	43.340	0	409.90	0	5.1710	0	34.0460	4	26.903	0	406.232	0	73.4	4	23.8	4	-1E+10	1	-1E+10	1	-1E+10	1	-1E+10	1	-1E+10	1	-1E+10	1
4901784	102	C	04/20/2018	10:40	-132.405	43.340	0	412.70	0	5.1340	0	34.0510	4	26.911	0	409.004	0	72.4	4	23.5	4	-1E+10	1	-1E+10	1	-1E+10	1	-1E+10	1	-1E+10	1	-1E+10	1
4901784	102	C	04/20/2018	10:40	-132.405	43.340	0	415.40	0	5.1230	0	34.0510	4	26.913	0	411.678	0	71.8	4	23.3	4	-1E+10	1	-1E+10	1	-1E+10	1	-1E+10	1	-1E+10	1	-1E+10	1
4901784	102	C	04/20/2018	10:40	-132.405	43.340	0	417.20	0	5.1110	0	34.0530	4	26.916	0	413.460	0	71.3	4	23.1	4	-1E+10	1	-1E+10	1	-1E+10	1	-1E+10	1	-1E+10	1	-1E+10	1
4901784	102	C	04/20/2018	10:40	-132.405	43.340	0	419.50	0	5.0920	0	34.0550	4	26.919	0	415.737	0	70.7	4	22.9	4	-1E+10	1	-1E+10	1	-1E+10	1	-1E+10	1	-1E+10	1	-1E+10	1
4901784	102	C	04/20/2018	10:40	-132.405	43.340	0	422.10	0	5.0660	0	34.0560	4	26.923	0	418.311	0	70.0	4	22.7	4	-1E+10	1	-1E+10	1	-1E+10	1	-1E+10	1	-1E+10	1	-1E+10	1
4901784	102	C	04/20/2018	10:40	-132.405	43.340	0	425.10	0	5.0410	0	34.0580	4	26.928	0	421.281	0	69.4	4	22.4	4	-1E+10	1	-1E+10	1	-1E+10	1	-1E+10	1	-1E+10	1	-1E+10	1
4901784	102	C	04/20/2018	10:40	-132.405	43.340	0	427.30	0	5.0290	0	34.0590	4	26.930	0	423.459	0	69.0	4	22.3	4	-1E+10	1	-1E+10	1	-1E+10	1	-1E+10	1	-1E+10	1	-1E+10	1
4901784	102	C	04/20/2018	10:40	-132.405	43.340	0	429.50	0	5.0240	0	34.0610	4	26.932	0	425.637	0	68.6	4	22.2	4	-1E+10	1	-1E+10	1	-1E+10	1	-1E+10	1	-1E+10	1	-1E+10	1
4901784	102	C	04/20/2018	10:40	-132.405	43.340	0	432.40	0	5.0230	0	34.0620	4	26.933	0	428.508	0	68.3	4	22.1	4	-1E+10	1	-1E+10	1	-1E+10	1	-1E+10	1	-1E+10	1	-1E+10	1
4901784	102	C	04/20/2018	10:40	-132.405	43.340	0	435.20	0	5.0240	0	34.0630	4	26.934	0	431.280	0	67.8	4	21.9	4	-1E+10	1	-1E+10	1	-1E+10	1	-1E+10	1	-1E+10	1	-1E+10	1
4901784	102	C	04/20/2018	10:40	-132.405	43.340	0	437.20	0	5.0230	0	34.0630	4	26.934	0	433.259	0	66.5	4	21.5	4	-1E+10	1	-1E+10	1	-1E+10	1	-1E+10	1	-1E+10	1	-1E+10	1
4901784	102	C	04/20/2018	10:40	-132.405	43.340	0	439.40	0	5.0210	0	34.0640	4	26.935	0	435.437	0	65.1	4	21.0	4	-1E+10	1	-1E+10	1	-1E+10	1	-1E+10	1	-1E+10	1	-1E+10	1
4901784	102	C	04/20/2018	10:40	-132.405	43.340	0	442.50	0	5.0020	0	34.0680	4	26.940	0	438.506	0	63.7	4	20.6	4	-1E+10	1	-1E+10	1	-1E+10	1	-1E+10	1	-1E+10	1	-1E+10	1
4901784	102	C	04/20/2018	10:40	-132.405	43.340	0	445.80	0	4.9810	0	34.0700	4	26.944	0	441.773	0	62.3	4	20.1	4	-1E+10	1	-1E+10	1	-1E+10	1	-1E+10	1	-1E+10	1	-1E+10	1
4901784	102	C	04/20/2018	10:40	-132.405	43.340	0	447.90	0	4.9610	0	34.0760	4	26.951	0	443.852	0	61.3	4	19.8	4	-1E+10	1	-1E+10	1	-1E+10	1	-1E+10	1	-1E+10	1	-1E+10	1
4901784	102	C	04/20/2018	10:40	-132.405	43.340	0	450.10	0	4.9540	0	34.0760	4	26.952	0	446.029	0	60.4	4	19.5	4	-1E+10	1	-1E+10	1	-1E+10	1	-1E+10	1	-1E+10	1	-1E+10	1
4901784	102	C	04/20/2018	10:40	-132.405	43.340	0	452.30	0	4.9340	0	34.0790	4	26.957	0	448.207	0	59.4	4	19.2	4	-1E+10	1	-1E+10	1	-1E+10	1	-1E+10	1	-1E+10	1	-1E+10	1
4901784	102	C	04/20/2018	10:40	-132.405	43.340	0	454.50	0	4.9280	0	34.0790	4	26.957	0	450.385	0	58.4	4	18.8	4	-1E+10	1	-1E+10	1	-1E+10	1	-1E+10	1	-1E+10	1	-1E+10	1
4901784	102	C	04/20/2018	10:40	-132.405	43.340	0	456.70	0	4.9090	0	34.0850	4	26.964	0	452.562	0	57.1	4	18.4	4	-1E+10	1	-1E+10	1	-1E+10	1	-1E+10	1	-1E+10	1	-1E+10	1
4901784	102	C	04/20/2018	10:40	-132.405	43.340	0	459.90	0	4.8960	0	34.0910	4	26.971	0	455.730	0	55.6	4	17.9	4	-1E+10	1	-1E+10	1	-1E+10	1	-1E+10	1	-1E+10	1	-1E+10	1
4901784	102	C	04/20/2018	10:40	-132.405	43.340	0	463.10	0	4.8690	0	34.0970	4	26.978	0	458.897	0	54.7	4	17.6	4	-1E+10	1	-1E+10	1	-1E+10	1	-1E+10	1	-1E+10	1	-1E+10	1
4901784	102	C	04/20/2018	10:40	-132.405	43.340	0	465.30	0	4.8580	0	34.1000	4	26.982	0	461.075	0	54.2	4	17.5	4	-1E+10	1	-1E+10	1	-1E+10	1	-1E+10	1	-1E+10	1	-1E+10	1
4901784	102	C	04/20/2018	10:40	-132.405	43.340	0	467.50	0	4.8550	0	34.1010	4	26.983	0	463.253	0	53.8	4	17.3	4	-1E+10	1	-1E+10	1	-1E+10	1	-1E+10	1	-1E+10	1	-1E+10	1
4901784	102	C	04/20/2018	10:40	-132.405	43.340	0	469.60	0	4.8530	0	34.1010	4	26.983	0	465.331	0	53.4	4	17.2	4	-1E+10	1	-1E+10	1	-1E+10	1	-1E+10	1	-1E+10	1	-1E+10	1
4901784	102	C	04/20/2018	10:40	-132.405	43.340	0	471.80	0	4.8490	0	34.1020	4	26.985	0	467.509	0	52.9	4	17.0	4	-1E+10	1	-1E+10	1	-1E+10	1	-1E+10	1	-1E+10	1	-1E+10	1
4901784	102	C	04/20/2018	10:40	-132.405	43.340	0	475.00	0	4.8410	0	34.1030	4	26.986	0	470.676	0	51.9	4	16.7	4	-1E+10	1	-1E+10	1	-1E+10	1	-1E+10	1	-1E+10	1	-1E+10	1
4901784	102	C	04/20/2018	10:40	-132.405	43.340	0	478.20	0	4.8280	0	34.1060	4	26.990	0	473.843	0	50.6	4	16.3	4	-1E+10	1	-1E+10	1	-1E+10	1	-1E+10	1	-1E+10	1	-1E+10	1
4901784	102	C	04/20/2018	10:40	-132.405	43.340	0	480.40	0	4.8230	0	34.1100	4	26.994	0	476.021	0	49.7	4	16.0	4	-1E+10	1	-1E+10	1	-1E+10	1	-1E+10	1	-1E+10	1	-1E+10	1
4901784	102	C	04/20/2018	10:40	-132.405	43.340	0	482.50	0	4.8120	0	34.1120	4	26.997	0	478.099	0	48.8	4	15.7	4	-1E+10	1	-1E+10	1	-1E+10	1	-1E+10	1	-1E+10	1	-1E+10	1
4901784	102	C	04/20/2018	10:40	-132.405	43.340	0	484.70	0	4.8020	0	34.1160	4	27.001	0	480.276	0	47.9	4	15.4	4	-1E+10	1	-1E+10	1	-1E+10	1	-1E+10	1	-1E+10	1	-1E+10	1
4901784	102	C	04/20/2018	10:40	-132.405	43.340	0	486.80	0	4.8090	0	34.1210	4	27.004	0	482.355	0	46.9	4	15.1	4	-1E+10	1	-1E+10	1	-1E+10	1	-1E+10	1	-1E+10	1	-1E+10	1
4901784	102	C	04/20/2018	10:40	-132.405	43.340	0	490.00	0	4.8080	0	34.1270	4	27.009	0	485.522	0	46.1	4	14.8	4	-1E+10	1	-1E+10	1	-1E+10	1	-1E+10	1	-1E+10	1	-1E+10	1
4901784	102	C	04/20/2018	10:40	-132.405	43.340	0	493.20	0	4.8030	0	34.1290	4	27.011	0	488.689	0	45.6	4	14.7	4	-1E+10	1	-1E+10	1	-1E+10	1	-1E+10	1	-1E+10	1	-1E+10	1
4901784	102	C	04/20/2018	10:40	-132.405	43.340	0	495.30	0	4.8000	0	34.1300	4	27.013	0	490.767	0	45.3	4	14.6	4	-1E+10	1	-1E+10	1	-1E+10	1	-1E+10	1	-1E+10	1	-1E+10	1
4901784	102	C	04/20/2018	10:40	-132.405	43.340	0	497.50	0	4.7940	0	34.1310	4	27.014	0	492.944	0	45.0	4	14.5	4	-1E+10	1	-1E+10	1	-1E+10	1	-1E+10	1	-1E+10	1	-1E+10	1
4901784	102	C	04/20/2018	10:40	-132.405	43.340	0	499.70	0	4.7820	0	34.1320	4	27.016	0	495.122	0	44.8	4	14.4	4	-1E+10	1	-1E+10	1	-1E+10	1	-1E+10	1	-1E+10	1	-1E+10	1
4901784	102	C	04/20/2018	10:40	-132.405	43.340	0	505.00	0	4.7260	0	34.1320	4	27.022	0	500.367	0	43.6	4	14.0	4	-1E+10	1	-1E+10	1	-1E+10	1	-1E+10	1	-1E+10	1	-1E+10	1
4901784	102	C	04/20/2018	10:40	-132.405	43.340	0	510.30	0	4.7450	0	34.1420	4	27.028	0	505.612	0	42.0	4	13.5	4	-1E+10	1	-1E+10	1	-1E+10	1	-1E+10	1	-1E+10	1	-1E+10	1
4901784	102	C	04/20/2018	10:40	-132.405	43.340	0	515.60	0	4.7240	0	34.1470	4	27.035	0	510.856	0	41.7	4	13.4	4	-1E+10	1	-1E+10	1	-1E+10	1	-1E+10	1	-1E+10	1	-1E+10	1
4901784	102	C	04/20/2018	10:40	-132.405	43.340	0	519.80	0	4.6960	0	34.1490	4	27.039	0	515.013	0	41.9	4	13.5	4	-1E+10	1	-1E+10	1	-1E+10	1	-1E+10	1	-1E+10	1	-1E+10	1
4901784	102	C	04/20/2018	10:40	-132.405	43.340	0	525.10	0	4.6830	0	34.1490	4	27.041	0	520.257	0	40.9	4	13.1	4	-1E+10	1	-1E+10	1	-1E+10	1	-1E+10	1	-1E+10	1	-1E+10	1
4901784	102	C	04/20/2018	10:40	-132.405	43.340	0	530.30	0	4.6520	0	34.1520	4	27.047	0	525.403	0	38.8	4	12.4	4	-1E+10	1	-1E+10	1	-1E+10	1	-1E+10	1	-1E+10	1	-1E+10	1
4901784	102	C	04/20/2018	10:40	-132.405	43.340	0	534.60	0	4.6360	0	34.1620	4	27.056	0	529.657	0	35.5	4	11.4	4	-1E+10	1	-1E+10	1	-1E+10	1	-1E+10	1	-1E+10	1	-1E+10	1
4901784	102	C	04/20/2018	10:40	-132.405	43.340	0	539.90	0	4.6240	0	34.1760	4	27.069	0	534.902	0	33.1	4	10.6	4	-1E+10	1	-1E+10	1	-1E+10	1	-1E+10	1	-1E+10	1	-1E+10	1
4901784	102	C	04/20/2018	10:40	-132.405	43.340	0	545.10	0	4.6060	0	34.1840	4	27.077	0	540.047	0	31.5	4	10.1	4	-1E+10	1	-1E+10	1	-1E+10	1	-1E+10	1	-1E+10	1	-1E+10	1
4901784	102	C	04/20/2018	10:40	-132.405	43.340	0	550.30	0	4.5930	0	34.1900	4	27.083	0	545.192	0	30.5	4	9.8	4	-1E+10	1	-1E+10	1	-1E+10	1	-1E+10	1	-1E+10	1	-1E+10	1
4901784	102	C	04/20/2018	10:40	-132.405	43.340	0	555.50	0	4.5930	0	34.1940	4	27.087	0	550.337	0	29.9	4	9.6	4	-1E+10	1	-1E+10	1	-1E+10	1	-1E+10	1	-1E+10	1	-1E+10	1
4901784	102	C	04/20/2018	10:40	-132.405	43.340	0	559.70	0	4.5820	0	34.1970	4	27.090	0	554.492	0	29.8	4	9.5	4	-1E+10	1	-1E+10	1	-1E+10	1	-1E+10	1	-1E+10	1	-1E+10	1
4901784	102	C	04/20/2018	10:40	-132.405	43.340	0	564.90	0	4.5190	0	34.1980	4	27.098	0	559.637	0	29.5	4	9.4	4	-1E+10	1	-1E+10	1	-1E+10	1	-1E+10	1	-1E+10	1	-1E+10	1
4901784	102	C	04/20/2018	10:40	-132.405	43.340	0	570.00	0	4.4880	0	34.2030	4	27.105	0	564.682	0	28.9	4	9.2	4	-1E+10	1	-1E+10	1	-1E+10	1	-1E+10	1	-1E+10	1	-1E+10	1
4901784	102	C	04/20/2018	10:40	-132.405	43.340	0	575.00	0	4.4580	0	34.2070	4	27.112	0	569.629	0	28.1	4	9.0	4	-1E+10	1	-1E+10	1	-1E+10	1	-1E+10	1	-1E+10	1	-1E+10	1
4901784	102	C	04/20/2018	10:40	-132.405	43.340	0	580.10	0	4.4340	0	34.2120	4	27.118	0	574.674	0	27.7	4	8.8	4	-1E+10	1	-1E+10	1	-1E+10	1	-1E+10	1	-1E+10	1	-1E+10	1
4901784	102	C	04/20/2018	10:40	-132.405	43.340	0	585.20	0	4.4250	0	34.2130	4	27.120	0	579.719	0	27.4	4	8.7	4	-1E+10	1	-1E+10	1	-1E+10	1	-1E+10	1	-1E+10	1	-1E+10	1
4901784	102	C	04/20/2018	10:40	-132.405	43.340	0	590.30	0	4.3790	0	34.2150	4	27.127	0	584.764	0	27.2	4	8.7	4	-1E+10	1	-1E+10	1	-1E+10	1	-1E+10	1	-1E+10	1	-1E+10	1
4901784	102	C	04/20/2018	10:40	-132.405	43.340	0	595.30	0	4.3490	0	34.2170	4	27.132	0	589.710	0	27.1	4	8.6	4	-1E+10	1	-1E+10	1	-1E+10	1	-1E+10	1	-1E+10	1	-1E+10	1
4901784	102	C	04/20/2018	10:40	-132.405	43.340	0	600.30	0	4.3330	0	34.2180	4	27.134	0	594.656	0	27.0	4	8.6	4	-1E+10	1	-1E+10	1	-1E+10	1	-1E+10	1	-1E+10	1	-1E+10	1
4901784	102	C	04/20/2018	10:40	-132.405	43.340	0	605.20	0	4.3070	0	34.2200	4	27.138	0	599.503	0	26.9	4	8.6	4	-1E+10	1	-1E+10	1	-1E+10	1	-1E+10	1	-1E+10	1	-1E+10	1
4901784	102	C	04/20/2018	10:40	-132.405	43.340	0	610.30	0	4.2960	0	34.2210	4	27.140	0	604.548	0	26.7	4	8.5	4	-1E+10	1	-1E+10	1	-1E+10	1	-1E+10	1	-1E+10	1	-1E+10	1
4901784	102	C	04/20/2018	10:40	-132.405	43.340	0	615.40	0	4.2830	0	34.2210	4	27.142	0	609.592	0	26.5	4	8.4	4	-1E+10	1	-1E+10	1	-1E+10	1	-1E+10	1	-1E+10	1	-1E+10	1
4901784	102	C	04/20/2018	10:40	-132.405	43.340	0	620.40	0	4.2650	0	34.2230	4	27.145	0	614.538	0	26.0	4	8.3	4	-1E+10	1	-1E+10	1	-1E+10	1	-1E+10	1	-1E+10	1	-1E+10	1
4901784	102	C	04/20/2018	10:40	-132.405	43.340	0	625.30	0	4.2560	0	34.2270	4	27.150	0	619.384	0	25.1	4	8.0	4	-1E+10	1	-1E+10	1	-1E+10	1	-1E+10	1	-1E+10	1	-1E+10	1
4901784	102	C	04/20/2018	10:40	-132.405	43.340	0	630.20	0	4.2570	0	34.2350	4	27.156	0	624.230	0	24.6	4	7.8	4	-1E+10	1	-1E+10	1	-1E+10	1	-1E+10	1	-1E+10	1	-1E+10	1
4901784	102	C	04/20/2018	10:40	-132.405	43.340	0	635.10	0	4.2160	0	34.2360	4	27.161	0	629.076	0	24.6	4	7.8	4	-1E+10	1	-1E+10	1	-1E+10	1	-1E+10	1	-1E+10	1	-1E+10	1
4901784	102	C	04/20/2018	10:40	-132.405	43.340	0	640.00	0	4.1950	0	34.2360	4	27.163	0	633.923	0	24.4	4	7.7	4	-1E+10	1	-1E+10	1	-1E+10	1	-1E+10	1	-1E+10	1	-1E+10	1
4901784	102	C	04/20/2018	10:40	-132.405	43.340	0	644.90	0	4.1710	0	34.2410	4	27.170	0	638.769	0	24.0	4	7.6	4	-1E+10	1	-1E+10	1	-1E+10	1	-1E+10	1	-1E+10	1	-1E+10	1
4901784	102	C	04/20/2018	10:40	-132.405	43.340	0	649.90	0	4.1620	0	34.2430	4	27.172	0	643.713	0	23.7	4	7.5	4	-1E+10	1	-1E+10	1	-1E+10	1	-1E+10	1	-1E+10	1	-1E+10	1
4901784	102	C	04/20/2018	10:40	-132.405	43.340	0	654.70	0	4.1430	0	34.2460	4	27.177	0	648.460	0	23.1	4	7.3	4	-1E+10	1	-1E+10	1	-1E+10	1	-1E+10	1	-1E+10	1	-1E+10	1
4901784	102	C	04/20/2018	10:40	-132.405	43.340	0	660.50	0	4.1220	0	34.2510	4	27.183	0	654.196	0	22.4	4	7.1	4	-1E+10	1	-1E+10	1	-1E+10	1	-1E+10	1	-1E+10	1	-1E+10	1
4901784	102	C	04/20/2018	10:40	-132.405	43.340	0	665.30	0	4.1020	0	34.2590	4	27.191	0	658.942	0	21.6	4	6.9	4	-1E+10	1	-1E+10	1	-1E+10	1	-1E+10	1	-1E+10	1	-1E+10	1
4901784	102	C	04/20/2018	10:40	-132.405	43.340	0	670.10	0	4.0850	0	34.2630	4	27.196	0	663.689	0	21.0	4	6.6	4	-1E+10	1	-1E+10	1	-1E+10	1	-1E+10	1	-1E+10	1	-1E+10	1
4901784	102	C	04/20/2018	10:40	-132.405	43.340	0	674.90	0	4.0670	0	34.2670	4	27.201	0	668.435	0	20.4	4	6.5	4	-1E+10	1	-1E+10	1	-1E+10	1	-1E+10	1	-1E+10	1	-1E+10	1
4901784	102	C	04/20/2018	10:40	-132.405	43.340	0	679.80	0	4.0460	0	34.2750	4	27.210	0	673.280	0	19.8	4	6.3	4	-1E+10	1	-1E+10	1	-1E+10	1	-1E+10	1	-1E+10	1	-1E+10	1
4901784	102	C	04/20/2018	10:40	-132.405	43.340	0	685.50	0	4.0280	0	34.2790	4	27.215	0	678.916	0	19.2	4	6.1	4	-1E+10	1	-1E+10	1	-1E+10	1	-1E+10	1	-1E+10	1	-1E+10	1
4901784	102	C	04/20/2018	10:40	-132.405	43.340	0	690.10	0	4.0140	0	34.2840	4	27.220	0	683.465	0	18.8	4	5.9	4	-1E+10	1	-1E+10	1	-1E+10	1	-1E+10	1	-1E+10	1	-1E+10	1
4901784	102	C	04/20/2018	10:40	-132.405	43.340	0	694.80	0	4.0020	0	34.2870	4	27.224	0	688.112	0	18.3	4	5.8	4	-1E+10	1	-1E+10	1	-1E+10	1	-1E+10	1	-1E+10	1	-1E+10	1
4901784	102	C	04/20/2018	10:40	-132.405	43.340	0	700.30	0	3.9820	0	34.2920	4	27.230	0	693.550	0	17.5	4	5.5	4	-1E+10	1	-1E+10	1	-1E+10	1	-1E+10	1	-1E+10	1	-1E+10	1
4901784	102	C	04/20/2018	10:40	-132.405	43.340	0	705.70	0	3.9510	0	34.3040	4	27.243	0	698.889	0	16.8	4	5.3	4	-1E+10	1	-1E+10	1	-1E+10	1	-1E+10	1	-1E+10	1	-1E+10	1
4901784	102	C	04/20/2018	10:40	-132.405	43.340	0	710.30	0	3.9380	0	34.3080	4	27.247	0	703.436	0	16.4	4	5.2	4	-1E+10	1	-1E+10	1	-1E+10	1	-1E+10	1	-1E+10	1	-1E+10	1
4901784	102	C	04/20/2018	10:40	-132.405	43.340	0	714.80	0	3.9250	0	34.3120	4	27.252	0	707.885	0	16.0	4	5.1	4	-1E+10	1	-1E+10	1	-1E+10	1	-1E+10	1	-1E+10	1	-1E+10	1
4901784	102	C	04/20/2018	10:40	-132.405	43.340	0	720.20	0	3.9090	0	34.3170	4	27.258	0	713.224	0	15.6	4	4.9	4	-1E+10	1	-1E+10	1	-1E+10	1	-1E+10	1	-1E+10	1	-1E+10	1
4901784	102	C	04/20/2018	10:40	-132.405	43.340	0	725.60	0	3.8950	0	34.3210	4	27.262	0	718.562	0	15.2	4	4.8	4	-1E+10	1	-1E+10	1	-1E+10	1	-1E+10	1	-1E+10	1	-1E+10	1
4901784	102	C	04/20/2018	10:40	-132.405	43.340	0	730.20	0	3.8810	0	34.3270	4	27.268	0	723.110	0	14.9	4	4.7	4	-1E+10	1	-1E+10	1	-1E+10	1	-1E+10	1	-1E+10	1	-1E+10	1
4901784	102	C	04/20/2018	10:40	-132.405	43.340	0	734.80	0	3.8720	0	34.3290	4	27.271	0	727.657	0	14.6	4	4.6	4	-1E+10	1	-1E+10	1	-1E+10	1	-1E+10	1	-1E+10	1	-1E+10	1
4901784	102	C	04/20/2018	10:40	-132.405	43.340	0	740.30	0	3.8590	0	34.3330	4	27.275	0	733.094	0	14.4	4	4.5	4	-1E+10	1	-1E+10	1	-1E+10	1	-1E+10	1	-1E+10	1	-1E+10	1
4901784	102	C	04/20/2018	10:40	-132.405	43.340	0	745.60	0	3.8470	0	34.3370	4	27.280	0	738.333	0	14.1	4	4.4	4	-1E+10	1	-1E+10	1	-1E+10	1	-1E+10	1	-1E+10	1	-1E+10	1
4901784	102	C	04/20/2018	10:40	-132.405	43.340	0	750.20	0	3.8330	0	34.3410	4	27.285	0	742.880	0	13.9	4	4.4	4	-1E+10	1	-1E+10	1	-1E+10	1	-1E+10	1	-1E+10	1	-1E+10	1
4901784	102	C	04/20/2018	10:40	-132.405	43.340	0	754.70	0	3.8220	0	34.3450	4	27.289	0	747.328	0	13.8	4	4.3	4	-1E+10	1	-1E+10	1	-1E+10	1	-1E+10	1	-1E+10	1	-1E+10	1
4901784	102	C	04/20/2018	10:40	-132.405	43.340	0	759.90	0	3.8150	0	34.3470	4	27.291	0	752.468	0	13.6	4	4.3	4	-1E+10	1	-1E+10	1	-1E+10	1	-1E+10	1	-1E+10	1	-1E+10	1
4901784	102	C	04/20/2018	10:40	-132.405	43.340	0	765.20	0	3.8080	0	34.3480	4	27.293	0	757.706	0	13.3	4	4.2	4	-1E+10	1	-1E+10	1	-1E+10	1	-1E+10	1	-1E+10	1	-1E+10	1
4901784	102	C	04/20/2018	10:40	-132.405	43.340	0	770.40	0	3.7870	0	34.3550	4	27.300	0	762.846	0	13.0	4	4.1	4	-1E+10	1	-1E+10	1	-1E+10	1	-1E+10	1	-1E+10	1	-1E+10	1
4901784	102	C	04/20/2018	10:40	-132.405	43.340	0	775.60	0	3.7750	0	34.3610	4	27.306	0	767.985	0	12.6	4	4.0	4	-1E+10	1	-1E+10	1	-1E+10	1	-1E+10	1	-1E+10	1	-1E+10	1
4901784	102	C	04/20/2018	10:40	-132.405	43.340	0	780.10	0	3.7740	0	34.3680	4	27.312	0	772.433	0	12.2	4	3.8	4	-1E+10	1	-1E+10	1	-1E+10	1	-1E+10	1	-1E+10	1	-1E+10	1
4901784	102	C	04/20/2018	10:40	-132.405	43.340	0	784.50	0	3.7800	0	34.3720	4	27.315	0	776.781	0	12.0	4	3.8	4	-1E+10	1	-1E+10	1	-1E+10	1	-1E+10	1	-1E+10	1	-1E+10	1
4901784	102	C	04/20/2018	10:40	-132.405	43.340	0	790.00	0	3.7530	0	34.3790	4	27.323	0	782.217	0	11.6	4	3.6	4	-1E+10	1	-1E+10	1	-1E+10	1	-1E+10	1	-1E+10	1	-1E+10	1
4901784	102	C	04/20/2018	10:40	-132.405	43.340	0	795.50	0	3.7770	0	34.3900	4	27.329	0	787.652	0	11.2	4	3.5	4	-1E+10	1	-1E+10	1	-1E+10	1	-1E+10	1	-1E+10	1	-1E+10	1
4901784	102	C	04/20/2018	10:40	-132.405	43.340	0	800.10	0	3.7890	0	34.3960	4	27.333	0	792.198	0	11.1	4	3.5	4	-1E+10	1	-1E+10	1	-1E+10	1	-1E+10	1	-1E+10	1	-1E+10	1
4901784	102	C	04/20/2018	10:40	-132.405	43.340	0	804.80	0	3.8020	0	34.3990	4	27.334	0	796.843	0	10.9	4	3.4	4	-1E+10	1	-1E+10	1	-1E+10	1	-1E+10	1	-1E+10	1	-1E+10	1
4901784	102	C	04/20/2018	10:40	-132.405	43.340	0	810.40	0	3.8420	0	34.4060	4	27.336	0	802.377	0	10.7	4	3.4	4	-1E+10	1	-1E+10	1	-1E+10	1	-1E+10	1	-1E+10	1	-1E+10	1
4901784	102	C	04/20/2018	10:40	-132.405	43.340	0	814.90	0	3.8470	0	34.4070	4	27.336	0	806.824	0	10.6	4	3.3	4	-1E+10	1	-1E+10	1	-1E+10	1	-1E+10	1	-1E+10	1	-1E+10	1
4901784	102	C	04/20/2018	10:40	-132.405	43.340	0	819.50	0	3.8590	0	34.4140	4	27.341	0	811.369	0	10.5	4	3.3	4	-1E+10	1	-1E+10	1	-1E+10	1	-1E+10	1	-1E+10	1	-1E+10	1
4901784	102	C	04/20/2018	10:40	-132.405	43.340	0	825.20	0	3.8540	0	34.4210	4	27.347	0	817.001	0	10.4	4	3.3	4	-1E+10	1	-1E+10	1	-1E+10	1	-1E+10	1	-1E+10	1	-1E+10	1
4901784	102	C	04/20/2018	10:40	-132.405	43.340	0	829.80	0	3.8550	0	34.4240	4	27.349	0	821.547	0	10.4	4	3.3	4	-1E+10	1	-1E+10	1	-1E+10	1	-1E+10	1	-1E+10	1	-1E+10	1
4901784	102	C	04/20/2018	10:40	-132.405	43.340	0	834.30	0	3.8570	0	34.4270	4	27.351	0	825.993	0	10.4	4	3.3	4	-1E+10	1	-1E+10	1	-1E+10	1	-1E+10	1	-1E+10	1	-1E+10	1
4901784	102	C	04/20/2018	10:40	-132.405	43.340	0	839.70	0	3.8530	0	34.4300	4	27.354	0	831.328	0	10.4	4	3.3	4	-1E+10	1	-1E+10	1	-1E+10	1	-1E+10	1	-1E+10	1	-1E+10	1
4901784	102	C	04/20/2018	10:40	-132.405	43.340	0	845.30	0	3.8350	0	34.4350	4	27.360	0	836.861	0	10.4	4	3.3	4	-1E+10	1	-1E+10	1	-1E+10	1	-1E+10	1	-1E+10	1	-1E+10	1
4901784	102	C	04/20/2018	10:40	-132.405	43.340	0	849.80	0	3.8230	0	34.4380	4	27.364	0	841.307	0	10.4	4	3.3	4	-1E+10	1	-1E+10	1	-1E+10	1	-1E+10	1	-1E+10	1	-1E+10	1
4901784	102	C	04/20/2018	10:40	-132.405	43.340	0	854.40	0	3.8180	0	34.4380	4	27.364	0	845.852	0	10.4	4	3.3	4	-1E+10	1	-1E+10	1	-1E+10	1	-1E+10	1	-1E+10	1	-1E+10	1
4901784	102	C	04/20/2018	10:40	-132.405	43.340	0	859.90	0	3.8010	0	34.4410	4	27.368	0	851.286	0	10.5	4	3.3	4	-1E+10	1	-1E+10	1	-1E+10	1	-1E+10	1	-1E+10	1	-1E+10	1
4901784	102	C	04/20/2018	10:40	-132.405	43.340	0	865.40	0	3.7720	0	34.4430	4	27.373	0	856.720	0	10.5	4	3.3	4	-1E+10	1	-1E+10	1	-1E+10	1	-1E+10	1	-1E+10	1	-1E+10	1
4901784	102	C	04/20/2018	10:40	-132.405	43.340	0	870.10	0	3.7580	0	34.4450	4	27.376	0	861.363	0	10.6	4	3.3	4	-1E+10	1	-1E+10	1	-1E+10	1	-1E+10	1	-1E+10	1	-1E+10	1
4901784	102	C	04/20/2018	10:40	-132.405	43.340	0	874.70	0	3.7450	0	34.4460	4	27.378	0	865.907	0	10.6	4	3.3	4	-1E+10	1	-1E+10	1	-1E+10	1	-1E+10	1	-1E+10	1	-1E+10	1
4901784	102	C	04/20/2018	10:40	-132.405	43.340	0	880.30	0	3.7160	0	34.4470	4	27.382	0	871.439	0	10.7	4	3.4	4	-1E+10	1	-1E+10	1	-1E+10	1	-1E+10	1	-1E+10	1	-1E+10	1
4901784	102	C	04/20/2018	10:40	-132.405	43.340	0	885.00	0	3.6870	0	34.4490	4	27.386	0	876.082	0	10.8	4	3.4	4	-1E+10	1	-1E+10	1	-1E+10	1	-1E+10	1	-1E+10	1	-1E+10	1
4901784	102	C	04/20/2018	10:40	-132.405	43.340	0	889.70	0	3.6680	0	34.4490	4	27.388	0	880.725	0	10.8	4	3.4	4	-1E+10	1	-1E+10	1	-1E+10	1	-1E+10	1	-1E+10	1	-1E+10	1
4901784	102	C	04/20/2018	10:40	-132.405	43.340	0	895.40	0	3.6430	0	34.4500	4	27.391	0	886.355	0	10.9	4	3.4	4	-1E+10	1	-1E+10	1	-1E+10	1	-1E+10	1	-1E+10	1	-1E+10	1
4901784	102	C	04/20/2018	10:40	-132.405	43.340	0	899.90	0	3.6180	0	34.4500	4	27.394	0	890.800	0	11.0	4	3.4	4	-1E+10	1	-1E+10	1	-1E+10	1	-1E+10	1	-1E+10	1	-1E+10	1
4901784	102	C	04/20/2018	10:40	-132.405	43.340	0	904.40	0	3.5900	0	34.4530	4	27.399	0	895.245	0	11.0	4	3.5	4	-1E+10	1	-1E+10	1	-1E+10	1	-1E+10	1	-1E+10	1	-1E+10	1
4901784	102	C	04/20/2018	10:40	-132.405	43.340	0	909.80	0	3.5650	0	34.4570	4	27.405	0	900.579	0	11.1	4	3.5	4	-1E+10	1	-1E+10	1	-1E+10	1	-1E+10	1	-1E+10	1	-1E+10	1
4901784	102	C	04/20/2018	10:40	-132.405	43.340	0	915.30	0	3.5480	0	34.4590	4	27.408	0	906.011	0	11.2	4	3.5	4	-1E+10	1	-1E+10	1	-1E+10	1	-1E+10	1	-1E+10	1	-1E+10	1
4901784	102	C	04/20/2018	10:40	-132.405	43.340	0	920.00	0	3.5360	0	34.4610	4	27.411	0	910.653	0	11.2	4	3.5	4	-1E+10	1	-1E+10	1	-1E+10	1	-1E+10	1	-1E+10	1	-1E+10	1
4901784	102	C	04/20/2018	10:40	-132.405	43.340	0	924.70	0	3.5210	0	34.4630	4	27.414	0	915.295	0	11.3	4	3.5	4	-1E+10	1	-1E+10	1	-1E+10	1	-1E+10	1	-1E+10	1	-1E+10	1
4901784	102	C	04/20/2018	10:40	-132.405	43.340	0	930.40	0	3.5110	0	34.4630	4	27.415	0	920.925	0	11.4	4	3.6	4	-1E+10	1	-1E+10	1	-1E+10	1	-1E+10	1	-1E+10	1	-1E+10	1
4901784	102	C	04/20/2018	10:40	-132.405	43.340	0	935.00	0	3.4950	0	34.4670	4	27.419	0	925.468	0	11.5	4	3.6	4	-1E+10	1	-1E+10	1	-1E+10	1	-1E+10	1	-1E+10	1	-1E+10	1
4901784	102	C	04/20/2018	10:40	-132.405	43.340	0	939.50	0	3.4750	0	34.4700	4	27.424	0	929.912	0	11.6	4	3.6	4	-1E+10	1	-1E+10	1	-1E+10	1	-1E+10	1	-1E+10	1	-1E+10	1
4901784	102	C	04/20/2018	10:40	-132.405	43.340	0	944.90	0	3.4540	0	34.4750	4	27.430	0	935.245	0	11.8	4	3.7	4	-1E+10	1	-1E+10	1	-1E+10	1	-1E+10	1	-1E+10	1	-1E+10	1
4901784	102	C	04/20/2018	10:40	-132.405	43.340	0	950.50	0	3.4370	0	34.4780	4	27.434	0	940.775	0	11.9	4	3.7	4	-1E+10	1	-1E+10	1	-1E+10	1	-1E+10	1	-1E+10	1	-1E+10	1
4901784	102	C	04/20/2018	10:40	-132.405	43.340	0	955.10	0	3.4290	0	34.4810	4	27.437	0	945.317	0	11.9	4	3.7	4	-1E+10	1	-1E+10	1	-1E+10	1	-1E+10	1	-1E+10	1	-1E+10	1
4901784	102	C	04/20/2018	10:40	-132.405	43.340	0	959.60	0	3.4280	0	34.4810	4	27.437	0	949.761	0	12.0	4	3.7	4	-1E+10	1	-1E+10	1	-1E+10	1	-1E+10	1	-1E+10	1	-1E+10	1
4901784	102	C	04/20/2018	10:40	-132.405	43.340	0	965.20	0	3.4220	0	34.4820	4	27.439	0	955.291	0	12.2	4	3.8	4	-1E+10	1	-1E+10	1	-1E+10	1	-1E+10	1	-1E+10	1	-1E+10	1
4901784	102	C	04/20/2018	10:40	-132.405	43.340	0	970.60	0	3.4070	0	34.4860	4	27.443	0	960.623	0	12.4	4	3.9	4	-1E+10	1	-1E+10	1	-1E+10	1	-1E+10	1	-1E+10	1	-1E+10	1
4901784	102	C	04/20/2018	10:40	-132.405	43.340	0	975.30	0	3.3910	0	34.4920	4	27.450	0	965.264	0	12.5	4	3.9	4	-1E+10	1	-1E+10	1	-1E+10	1	-1E+10	1	-1E+10	1	-1E+10	1
4901784	102	C	04/20/2018	10:40	-132.405	43.340	0	980.00	0	3.3860	0	34.4920	4	27.450	0	969.905	0	12.6	4	3.9	4	-1E+10	1	-1E+10	1	-1E+10	1	-1E+10	1	-1E+10	1	-1E+10	1
4901784	102	C	04/20/2018	10:40	-132.405	43.340	0	984.70	0	3.3790	0	34.4940	4	27.452	0	974.545	0	12.7	4	4.0	4	-1E+10	1	-1E+10	1	-1E+10	1	-1E+10	1	-1E+10	1	-1E+10	1
4901784	102	C	04/20/2018	10:40	-132.405	43.340	0	989.40	0	3.3730	0	34.4970	4	27.455	0	979.186	0	12.9	4	4.0	4	-1E+10	1	-1E+10	1	-1E+10	1	-1E+10	1	-1E+10	1	-1E+10	1
4901784	102	C	04/20/2018	10:40	-132.405	43.340	0	995.20	0	3.3680	0	34.4990	4	27.457	0	984.912	0	13.0	4	4.1	4	-1E+10	1	-1E+10	1	-1E+10	1	-1E+10	1	-1E+10	1	-1E+10	1
4901784	102	C	04/20/2018	10:40	-132.405	43.340	0	1000.00	0	3.3650	0	34.4990	4	27.458	0	989.651	0	13.2	4	4.1	4	-1E+10	1	-1E+10	1	-1E+10	1	-1E+10	1	-1E+10	1	-1E+10	1
4901784	102	C	04/20/2018	10:40	-132.405	43.340	0	1004.80	0	3.3520	0	34.5030	4	27.462	0	994.390	0	13.5	4	4.2	4	-1E+10	1	-1E+10	1	-1E+10	1	-1E+10	1	-1E+10	1	-1E+10	1
4901784	102	C	04/20/2018	10:40	-132.405	43.340	0	1009.80	0	3.3430	0	34.5070	4	27.466	0	999.327	0	13.8	4	4.3	4	-1E+10	1	-1E+10	1	-1E+10	1	-1E+10	1	-1E+10	1	-1E+10	1
4901784	102	C	04/20/2018	10:40	-132.405	43.340	0	1015.00	0	3.3290	0	34.5130	4	27.472	0	1004.460	0	14.2	4	4.4	4	-1E+10	1	-1E+10	1	-1E+10	1	-1E+10	1	-1E+10	1	-1E+10	1
4901784	102	C	04/20/2018	10:40	-132.405	43.340	0	1020.10	0	3.3180	0	34.5170	4	27.477	0	1009.495	0	14.6	4	4.5	4	-1E+10	1	-1E+10	1	-1E+10	1	-1E+10	1	-1E+10	1	-1E+10	1
4901784	102	C	04/20/2018	10:40	-132.405	43.340	0	1025.20	0	3.3050	0	34.5220	4	27.482	0	1014.530	0	14.9	4	4.6	4	-1E+10	1	-1E+10	1	-1E+10	1	-1E+10	1	-1E+10	1	-1E+10	1
4901784	102	C	04/20/2018	10:40	-132.405	43.340	0	1030.20	0	3.3020	0	34.5230	4	27.483	0	1019.465	0	15.1	4	4.7	4	-1E+10	1	-1E+10	1	-1E+10	1	-1E+10	1	-1E+10	1	-1E+10	1
4901784	102	C	04/20/2018	10:40	-132.405	43.340	0	1035.30	0	3.2980	0	34.5260	4	27.486	0	1024.500	0	15.7	4	4.9	4	-1E+10	1	-1E+10	1	-1E+10	1	-1E+10	1	-1E+10	1	-1E+10	1
4901784	102	C	04/20/2018	10:40	-132.405	43.340	0	1040.50	0	3.2930	0	34.5330	4	27.492	0	1029.633	0	16.3	4	5.1	4	-1E+10	1	-1E+10	1	-1E+10	1	-1E+10	1	-1E+10	1	-1E+10	1
4901784	102	C	04/20/2018	10:40	-132.405	43.340	0	1044.70	0	3.2920	0	34.5360	4	27.494	0	1033.779	0	16.4	4	5.1	4	-1E+10	1	-1E+10	1	-1E+10	1	-1E+10	1	-1E+10	1	-1E+10	1
4901784	102	C	04/20/2018	10:40	-132.405	43.340	0	1050.00	0	3.2920	0	34.5360	4	27.495	0	1039.010	0	16.7	4	5.2	4	-1E+10	1	-1E+10	1	-1E+10	1	-1E+10	1	-1E+10	1	-1E+10	1
4901784	102	C	04/20/2018	10:40	-132.405	43.340	0	1055.10	0	3.2940	0	34.5380	4	27.496	0	1044.044	0	17.1	4	5.3	4	-1E+10	1	-1E+10	1	-1E+10	1	-1E+10	1	-1E+10	1	-1E+10	1
4901784	102	C	04/20/2018	10:40	-132.405	43.340	0	1060.10	0	3.2970	0	34.5420	4	27.499	0	1048.979	0	17.4	4	5.4	4	-1E+10	1	-1E+10	1	-1E+10	1	-1E+10	1	-1E+10	1	-1E+10	1
4901784	102	C	04/20/2018	10:40	-132.405	43.340	0	1065.10	0	3.2970	0	34.5430	4	27.500	0	1053.914	0	17.6	4	5.5	4	-1E+10	1	-1E+10	1	-1E+10	1	-1E+10	1	-1E+10	1	-1E+10	1
4901784	102	C	04/20/2018	10:40	-132.405	43.340	0	1069.80	0	3.2960	0	34.5460	4	27.502	0	1058.553	0	17.7	4	5.5	4	-1E+10	1	-1E+10	1	-1E+10	1	-1E+10	1	-1E+10	1	-1E+10	1
4901784	102	C	04/20/2018	10:40	-132.405	43.340	0	1075.30	0	3.2940	0	34.5470	4	27.503	0	1063.981	0	18.0	4	5.6	4	-1E+10	1	-1E+10	1	-1E+10	1	-1E+10	1	-1E+10	1	-1E+10	1
4901784	102	C	04/20/2018	10:40	-132.405	43.340	0	1079.90	0	3.2930	0	34.5470	4	27.503	0	1068.521	0	18.2	4	5.7	4	-1E+10	1	-1E+10	1	-1E+10	1	-1E+10	1	-1E+10	1	-1E+10	1
4901784	102	C	04/20/2018	10:40	-132.405	43.340	0	1084.60	0	3.2910	0	34.5510	4	27.507	0	1073.159	0	18.4	4	5.7	4	-1E+10	1	-1E+10	1	-1E+10	1	-1E+10	1	-1E+10	1	-1E+10	1
4901784	102	C	04/20/2018	10:40	-132.405	43.340	0	1090.10	0	3.2890	0	34.5510	4	27.507	0	1078.587	0	18.6	4	5.8	4	-1E+10	1	-1E+10	1	-1E+10	1	-1E+10	1	-1E+10	1	-1E+10	1
4901784	102	C	04/20/2018	10:40	-132.405	43.340	0	1094.80	0	3.2860	0	34.5540	4	27.510	0	1083.226	0	19.0	4	5.9	4	-1E+10	1	-1E+10	1	-1E+10	1	-1E+10	1	-1E+10	1	-1E+10	1
4901784	102	C	04/20/2018	10:40	-132.405	43.340	0	1100.10	0	3.2870	0	34.5560	4	27.511	0	1088.456	0	19.4	4	6.0	4	-1E+10	1	-1E+10	1	-1E+10	1	-1E+10	1	-1E+10	1	-1E+10	1
4901784	102	C	04/20/2018	10:40	-132.405	43.340	0	1105.20	0	3.2850	0	34.5600	4	27.515	0	1093.489	0	19.6	4	6.1	4	-1E+10	1	-1E+10	1	-1E+10	1	-1E+10	1	-1E+10	1	-1E+10	1
4901784	102	C	04/20/2018	10:40	-132.405	43.340	0	1109.90	0	3.2840	0	34.5630	4	27.517	0	1098.126	0	19.9	4	6.2	4	-1E+10	1	-1E+10	1	-1E+10	1	-1E+10	1	-1E+10	1	-1E+10	1
4901784	102	C	04/20/2018	10:40	-132.405	43.340	0	1114.70	0	3.2820	0	34.5640	4	27.518	0	1102.863	0	20.1	4	6.2	4	-1E+10	1	-1E+10	1	-1E+10	1	-1E+10	1	-1E+10	1	-1E+10	1
4901784	102	C	04/20/2018	10:40	-132.405	43.340	0	1119.70	0	3.2810	0	34.5660	4	27.520	0	1107.797	0	20.3	4	6.3	4	-1E+10	1	-1E+10	1	-1E+10	1	-1E+10	1	-1E+10	1	-1E+10	1
4901784	102	C	04/20/2018	10:40	-132.405	43.340	0	1125.00	0	3.2790	0	34.5660	4	27.520	0	1113.026	0	20.6	4	6.4	4	-1E+10	1	-1E+10	1	-1E+10	1	-1E+10	1	-1E+10	1	-1E+10	1
4901784	102	C	04/20/2018	10:40	-132.405	43.340	0	1130.40	0	3.2800	0	34.5670	4	27.521	0	1118.354	0	20.7	4	6.5	4	-1E+10	1	-1E+10	1	-1E+10	1	-1E+10	1	-1E+10	1	-1E+10	1
4901784	102	C	04/20/2018	10:40	-132.405	43.340	0	1135.70	0	3.2790	0	34.5680	4	27.522	0	1123.584	0	20.9	4	6.5	4	-1E+10	1	-1E+10	1	-1E+10	1	-1E+10	1	-1E+10	1	-1E+10	1
4901784	102	C	04/20/2018	10:40	-132.405	43.340	0	1140.10	0	3.2780	0	34.5680	4	27.522	0	1127.925	0	21.1	4	6.6	4	-1E+10	1	-1E+10	1	-1E+10	1	-1E+10	1	-1E+10	1	-1E+10	1
4901784	102	C	04/20/2018	10:40	-132.405	43.340	0	1144.50	0	3.2770	0	34.5710	4	27.525	0	1132.266	0	21.3	4	6.6	4	-1E+10	1	-1E+10	1	-1E+10	1	-1E+10	1	-1E+10	1	-1E+10	1
4901784	102	C	04/20/2018	10:40	-132.405	43.340	0	1149.80	0	3.2750	0	34.5730	4	27.526	0	1137.495	0	21.6	4	6.7	4	-1E+10	1	-1E+10	1	-1E+10	1	-1E+10	1	-1E+10	1	-1E+10	1
4901784	102	C	04/20/2018	10:40	-132.405	43.340	0	1155.10	0	3.2700	0	34.5750	4	27.528	0	1142.724	0	21.9	4	6.8	4	-1E+10	1	-1E+10	1	-1E+10	1	-1E+10	1	-1E+10	1	-1E+10	1
4901784	102	C	04/20/2018	10:40	-132.405	43.340	0	1160.50	0	3.2700	0	34.5770	4	27.530	0	1148.051	0	22.2	4	6.9	4	-1E+10	1	-1E+10	1	-1E+10	1	-1E+10	1	-1E+10	1	-1E+10	1
4901784	102	C	04/20/2018	10:40	-132.405	43.340	0	1165.00	0	3.2720	0	34.5770	4	27.530	0	1152.491	0	22.5	4	7.0	4	-1E+10	1	-1E+10	1	-1E+10	1	-1E+10	1	-1E+10	1	-1E+10	1
4901784	102	C	04/20/2018	10:40	-132.405	43.340	0	1169.40	0	3.2700	0	34.5810	4	27.533	0	1156.832	0	22.9	4	7.1	4	-1E+10	1	-1E+10	1	-1E+10	1	-1E+10	1	-1E+10	1	-1E+10	1
4901784	102	C	04/20/2018	10:40	-132.405	43.340	0	1174.80	0	3.2600	0	34.5850	4	27.538	0	1162.159	0	23.3	4	7.2	4	-1E+10	1	-1E+10	1	-1E+10	1	-1E+10	1	-1E+10	1	-1E+10	1
4901784	102	C	04/20/2018	10:40	-132.405	43.340	0	1180.30	0	3.2540	0	34.5870	4	27.540	0	1167.584	0	23.6	4	7.4	4	-1E+10	1	-1E+10	1	-1E+10	1	-1E+10	1	-1E+10	1	-1E+10	1
4901784	102	C	04/20/2018	10:40	-132.405	43.340	0	1184.90	0	3.2390	0	34.5920	4	27.545	0	1172.122	0	24.1	4	7.5	4	-1E+10	1	-1E+10	1	-1E+10	1	-1E+10	1	-1E+10	1	-1E+10	1
4901784	102	C	04/20/2018	10:40	-132.405	43.340	0	1189.50	0	3.2280	0	34.5930	4	27.547	0	1176.659	0	24.3	4	7.6	4	-1E+10	1	-1E+10	1	-1E+10	1	-1E+10	1	-1E+10	1	-1E+10	1
4901784	102	C	04/20/2018	10:40	-132.405	43.340	0	1195.00	0	3.2210	0	34.5940	4	27.549	0	1182.084	0	24.5	4	7.6	4	-1E+10	1	-1E+10	1	-1E+10	1	-1E+10	1	-1E+10	1	-1E+10	1
4901784	102	C	04/20/2018	10:40	-132.405	43.340	0	1200.50	0	3.2120	0	34.5960	4	27.551	0	1187.509	0	24.7	4	7.7	4	-1E+10	1	-1E+10	1	-1E+10	1	-1E+10	1	-1E+10	1	-1E+10	1
4901784	102	C	04/20/2018	10:40	-132.405	43.340	0	1205.10	0	3.2030	0	34.5970	4	27.553	0	1192.047	0	24.8	4	7.7	4	-1E+10	1	-1E+10	1	-1E+10	1	-1E+10	1	-1E+10	1	-1E+10	1
4901784	102	C	04/20/2018	10:40	-132.405	43.340	0	1209.70	0	3.1970	0	34.5980	4	27.554	0	1196.584	0	24.9	4	7.7	4	-1E+10	1	-1E+10	1	-1E+10	1	-1E+10	1	-1E+10	1	-1E+10	1
4901784	102	C	04/20/2018	10:40	-132.405	43.340	0	1215.30	0	3.1860	0	34.5990	4	27.556	0	1202.107	0	25.0	4	7.8	4	-1E+10	1	-1E+10	1	-1E+10	1	-1E+10	1	-1E+10	1	-1E+10	1
4901784	102	C	04/20/2018	10:40	-132.405	43.340	0	1220.00	0	3.1780	0	34.5980	4	27.556	0	1206.743	0	25.1	4	7.8	4	-1E+10	1	-1E+10	1	-1E+10	1	-1E+10	1	-1E+10	1	-1E+10	1
4901784	102	C	04/20/2018	10:40	-132.405	43.340	0	1224.70	0	3.1760	0	34.5980	4	27.556	0	1211.378	0	25.2	4	7.8	4	-1E+10	1	-1E+10	1	-1E+10	1	-1E+10	1	-1E+10	1	-1E+10	1
4901784	102	C	04/20/2018	10:40	-132.405	43.340	0	1230.40	0	3.1700	0	34.6000	4	27.558	0	1216.999	0	25.3	4	7.9	4	-1E+10	1	-1E+10	1	-1E+10	1	-1E+10	1	-1E+10	1	-1E+10	1
4901784	102	C	04/20/2018	10:40	-132.405	43.340	0	1235.10	0	3.1660	0	34.6010	4	27.559	0	1221.635	0	25.4	4	7.9	4	-1E+10	1	-1E+10	1	-1E+10	1	-1E+10	1	-1E+10	1	-1E+10	1
4901784	102	C	04/20/2018	10:40	-132.405	43.340	0	1240.00	0	3.1590	0	34.6000	4	27.559	0	1226.467	0	25.4	4	7.9	4	-1E+10	1	-1E+10	1	-1E+10	1	-1E+10	1	-1E+10	1	-1E+10	1
4901784	102	C	04/20/2018	10:40	-132.405	43.340	0	1244.80	0	3.1510	0	34.6010	4	27.561	0	1231.201	0	25.4	4	7.9	4	-1E+10	1	-1E+10	1	-1E+10	1	-1E+10	1	-1E+10	1	-1E+10	1
4901784	102	C	04/20/2018	10:40	-132.405	43.340	0	1249.50	0	3.1420	0	34.6010	4	27.562	0	1235.835	0	25.5	4	7.9	4	-1E+10	1	-1E+10	1	-1E+10	1	-1E+10	1	-1E+10	1	-1E+10	1
4901784	102	C	04/20/2018	10:40	-132.405	43.340	0	1255.00	0	3.1260	0	34.6010	4	27.563	0	1241.259	0	25.5	4	7.9	4	-1E+10	1	-1E+10	1	-1E+10	1	-1E+10	1	-1E+10	1	-1E+10	1
4901784	102	C	04/20/2018	10:40	-132.405	43.340	0	1260.30	0	3.1220	0	34.6010	4	27.564	0	1246.485	0	25.5	4	7.9	4	-1E+10	1	-1E+10	1	-1E+10	1	-1E+10	1	-1E+10	1	-1E+10	1
4901784	102	C	04/20/2018	10:40	-132.405	43.340	0	1265.60	0	3.1070	0	34.6030	4	27.567	0	1251.711	0	25.5	4	7.9	4	-1E+10	1	-1E+10	1	-1E+10	1	-1E+10	1	-1E+10	1	-1E+10	1
4901784	102	C	04/20/2018	10:40	-132.405	43.340	0	1270.10	0	3.0900	0	34.6020	4	27.567	0	1256.149	0	25.5	4	7.9	4	-1E+10	1	-1E+10	1	-1E+10	1	-1E+10	1	-1E+10	1	-1E+10	1
4901784	102	C	04/20/2018	10:40	-132.405	43.340	0	1274.90	0	3.0860	0	34.6030	4	27.569	0	1260.882	0	25.5	4	7.9	4	-1E+10	1	-1E+10	1	-1E+10	1	-1E+10	1	-1E+10	1	-1E+10	1
4901784	102	C	04/20/2018	10:40	-132.405	43.340	0	1280.00	0	3.0860	0	34.6020	4	27.568	0	1265.910	0	25.6	4	7.9	4	-1E+10	1	-1E+10	1	-1E+10	1	-1E+10	1	-1E+10	1	-1E+10	1
4901784	102	C	04/20/2018	10:40	-132.405	43.340	0	1284.70	0	3.0840	0	34.6030	4	27.569	0	1270.544	0	25.6	4	7.9	4	-1E+10	1	-1E+10	1	-1E+10	1	-1E+10	1	-1E+10	1	-1E+10	1
4901784	102	C	04/20/2018	10:40	-132.405	43.340	0	1289.60	0	3.0570	0	34.6030	4	27.571	0	1275.375	0	25.5	4	7.9	4	-1E+10	1	-1E+10	1	-1E+10	1	-1E+10	1	-1E+10	1	-1E+10	1
4901784	102	C	04/20/2018	10:40	-132.405	43.340	0	1294.50	0	3.0330	0	34.6040	4	27.574	0	1280.207	0	25.5	4	7.9	4	-1E+10	1	-1E+10	1	-1E+10	1	-1E+10	1	-1E+10	1	-1E+10	1
4901784	102	C	04/20/2018	10:40	-132.405	43.340	0	1299.30	0	3.0050	0	34.6050	4	27.578	0	1284.939	0	25.5	4	7.9	4	-1E+10	1	-1E+10	1	-1E+10	1	-1E+10	1	-1E+10	1	-1E+10	1
4901784	102	C	04/20/2018	10:40	-132.405	43.340	0	1305.00	0	3.0030	0	34.6050	4	27.578	0	1290.558	0	25.5	4	7.9	4	-1E+10	1	-1E+10	1	-1E+10	1	-1E+10	1	-1E+10	1	-1E+10	1
4901784	102	C	04/20/2018	10:40	-132.405	43.340	0	1310.70	0	3.0010	0	34.6040	4	27.577	0	1296.178	0	25.5	4	7.9	4	-1E+10	1	-1E+10	1	-1E+10	1	-1E+10	1	-1E+10	1	-1E+10	1
4901784	102	C	04/20/2018	10:40	-132.405	43.340	0	1315.70	0	3.0000	0	34.6050	4	27.578	0	1301.107	0	25.6	4	7.9	4	-1E+10	1	-1E+10	1	-1E+10	1	-1E+10	1	-1E+10	1	-1E+10	1
4901784	102	C	04/20/2018	10:40	-132.405	43.340	0	1320.70	0	2.9950	0	34.6050	4	27.579	0	1306.036	0	25.5	4	7.9	4	-1E+10	1	-1E+10	1	-1E+10	1	-1E+10	1	-1E+10	1	-1E+10	1
4901784	102	C	04/20/2018	10:40	-132.405	43.340	0	1325.70	0	2.9750	0	34.6060	4	27.581	0	1310.965	0	25.5	4	7.9	4	-1E+10	1	-1E+10	1	-1E+10	1	-1E+10	1	-1E+10	1	-1E+10	1
4901784	102	C	04/20/2018	10:40	-132.405	43.340	0	1330.70	0	2.9660	0	34.6040	4	27.581	0	1315.894	0	25.5	4	7.9	4	-1E+10	1	-1E+10	1	-1E+10	1	-1E+10	1	-1E+10	1	-1E+10	1
4901784	102	C	04/20/2018	10:40	-132.405	43.340	0	1335.00	0	2.9630	0	34.6040	4	27.581	0	1320.132	0	25.4	4	7.9	4	-1E+10	1	-1E+10	1	-1E+10	1	-1E+10	1	-1E+10	1	-1E+10	1
4901784	102	C	04/20/2018	10:40	-132.405	43.340	0	1339.30	0	2.9610	0	34.6040	4	27.581	0	1324.371	0	25.4	4	7.8	4	-1E+10	1	-1E+10	1	-1E+10	1	-1E+10	1	-1E+10	1	-1E+10	1
4901784	102	C	04/20/2018	10:40	-132.405	43.340	0	1344.60	0	2.9570	0	34.6040	4	27.582	0	1329.595	0	25.3	4	7.8	4	-1E+10	1	-1E+10	1	-1E+10	1	-1E+10	1	-1E+10	1	-1E+10	1
4901784	102	C	04/20/2018	10:40	-132.405	43.340	0	1349.80	0	2.9430	0	34.6050	4	27.584	0	1334.721	0	25.3	4	7.8	4	-1E+10	1	-1E+10	1	-1E+10	1	-1E+10	1	-1E+10	1	-1E+10	1
4901784	102	C	04/20/2018	10:40	-132.405	43.340	0	1355.00	0	2.9200	0	34.6060	4	27.587	0	1339.846	0	25.3	4	7.8	4	-1E+10	1	-1E+10	1	-1E+10	1	-1E+10	1	-1E+10	1	-1E+10	1
4901784	102	C	04/20/2018	10:40	-132.405	43.340	0	1360.20	0	2.9080	0	34.6060	4	27.588	0	1344.971	0	25.3	4	7.8	4	-1E+10	1	-1E+10	1	-1E+10	1	-1E+10	1	-1E+10	1	-1E+10	1
4901784	102	C	04/20/2018	10:40	-132.405	43.340	0	1365.40	0	2.9040	0	34.6050	4	27.587	0	1350.097	0	25.3	4	7.8	4	-1E+10	1	-1E+10	1	-1E+10	1	-1E+10	1	-1E+10	1	-1E+10	1
4901784	102	C	04/20/2018	10:40	-132.405	43.340	0	1370.70	0	2.8920	0	34.6040	4	27.587	0	1355.320	0	25.3	4	7.8	4	-1E+10	1	-1E+10	1	-1E+10	1	-1E+10	1	-1E+10	1	-1E+10	1
4901784	102	C	04/20/2018	10:40	-132.405	43.340	0	1375.10	0	2.8870	0	34.6040	4	27.588	0	1359.657	0	25.3	4	7.8	4	-1E+10	1	-1E+10	1	-1E+10	1	-1E+10	1	-1E+10	1	-1E+10	1
4901784	102	C	04/20/2018	10:40	-132.405	43.340	0	1379.50	0	2.8840	0	34.6050	4	27.589	0	1363.993	0	25.3	4	7.8	4	-1E+10	1	-1E+10	1	-1E+10	1	-1E+10	1	-1E+10	1	-1E+10	1
4901784	102	C	04/20/2018	10:40	-132.405	43.340	0	1384.80	0	2.8710	0	34.6050	4	27.590	0	1369.216	0	25.3	4	7.8	4	-1E+10	1	-1E+10	1	-1E+10	1	-1E+10	1	-1E+10	1	-1E+10	1
4901784	102	C	04/20/2018	10:40	-132.405	43.340	0	1390.30	0	2.8620	0	34.6050	4	27.591	0	1374.637	0	25.3	4	7.8	4	-1E+10	1	-1E+10	1	-1E+10	1	-1E+10	1	-1E+10	1	-1E+10	1
4901784	102	C	04/20/2018	10:40	-132.405	43.340	0	1394.80	0	2.8540	0	34.6050	4	27.592	0	1379.071	0	25.3	4	7.8	4	-1E+10	1	-1E+10	1	-1E+10	1	-1E+10	1	-1E+10	1	-1E+10	1
4901784	102	C	04/20/2018	10:40	-132.405	43.340	0	1399.50	0	2.8520	0	34.6050	4	27.592	0	1383.703	0	25.3	4	7.8	4	-1E+10	1	-1E+10	1	-1E+10	1	-1E+10	1	-1E+10	1	-1E+10	1
4901784	102	C	04/20/2018	10:40	-132.405	43.340	0	1404.80	0	2.8300	0	34.6040	4	27.593	0	1388.925	0	25.3	4	7.8	4	-1E+10	1	-1E+10	1	-1E+10	1	-1E+10	1	-1E+10	1	-1E+10	1
4901784	102	C	04/20/2018	10:40	-132.405	43.340	0	1410.10	0	2.8050	0	34.6050	4	27.596	0	1394.148	0	25.3	4	7.8	4	-1E+10	1	-1E+10	1	-1E+10	1	-1E+10	1	-1E+10	1	-1E+10	1
4901784	102	C	04/20/2018	10:40	-132.405	43.340	0	1415.50	0	2.7960	0	34.6060	4	27.598	0	1399.469	0	25.3	4	7.8	4	-1E+10	1	-1E+10	1	-1E+10	1	-1E+10	1	-1E+10	1	-1E+10	1
4901784	102	C	04/20/2018	10:40	-132.405	43.340	0	1420.20	0	2.7910	0	34.6040	4	27.597	0	1404.100	0	25.3	4	7.8	4	-1E+10	1	-1E+10	1	-1E+10	1	-1E+10	1	-1E+10	1	-1E+10	1
4901784	102	C	04/20/2018	10:40	-132.405	43.340	0	1425.10	0	2.7780	0	34.6050	4	27.599	0	1408.928	0	25.3	4	7.8	4	-1E+10	1	-1E+10	1	-1E+10	1	-1E+10	1	-1E+10	1	-1E+10	1
4901784	102	C	04/20/2018	10:40	-132.405	43.340	0	1430.00	0	2.7650	0	34.6050	4	27.600	0	1413.756	0	25.3	4	7.8	4	-1E+10	1	-1E+10	1	-1E+10	1	-1E+10	1	-1E+10	1	-1E+10	1
4901784	102	C	04/20/2018	10:40	-132.405	43.340	0	1434.90	0	2.7500	0	34.6050	4	27.601	0	1418.584	0	25.2	4	7.7	4	-1E+10	1	-1E+10	1	-1E+10	1	-1E+10	1	-1E+10	1	-1E+10	1
4901784	102	C	04/20/2018	10:40	-132.405	43.340	0	1439.80	0	2.7390	0	34.6050	4	27.602	0	1423.412	0	25.2	4	7.7	4	-1E+10	1	-1E+10	1	-1E+10	1	-1E+10	1	-1E+10	1	-1E+10	1
4901784	102	C	04/20/2018	10:40	-132.405	43.340	0	1444.80	0	2.7180	0	34.6050	4	27.604	0	1428.338	0	25.2	4	7.7	4	-1E+10	1	-1E+10	1	-1E+10	1	-1E+10	1	-1E+10	1	-1E+10	1
4901784	102	C	04/20/2018	10:40	-132.405	43.340	0	1449.90	0	2.7040	0	34.6060	4	27.606	0	1433.363	0	25.3	4	7.8	4	-1E+10	1	-1E+10	1	-1E+10	1	-1E+10	1	-1E+10	1	-1E+10	1
4901784	102	C	04/20/2018	10:40	-132.405	43.340	0	1455.00	0	2.6930	0	34.6060	4	27.607	0	1438.387	0	25.4	4	7.8	4	-1E+10	1	-1E+10	1	-1E+10	1	-1E+10	1	-1E+10	1	-1E+10	1
4901784	102	C	04/20/2018	10:40	-132.405	43.340	0	1460.00	0	2.6810	0	34.6080	4	27.610	0	1443.313	0	25.6	4	7.8	4	-1E+10	1	-1E+10	1	-1E+10	1	-1E+10	1	-1E+10	1	-1E+10	1
4901784	102	C	04/20/2018	10:40	-132.405	43.340	0	1465.20	0	2.6700	0	34.6070	4	27.610	0	1448.436	0	25.8	4	7.9	4	-1E+10	1	-1E+10	1	-1E+10	1	-1E+10	1	-1E+10	1	-1E+10	1
4901784	102	C	04/20/2018	10:40	-132.405	43.340	0	1470.40	0	2.6560	0	34.6070	4	27.611	0	1453.558	0	26.0	4	8.0	4	-1E+10	1	-1E+10	1	-1E+10	1	-1E+10	1	-1E+10	1	-1E+10	1
4901784	102	C	04/20/2018	10:40	-132.405	43.340	0	1475.60	0	2.6410	0	34.6080	4	27.613	0	1458.681	0	26.1	4	8.0	4	-1E+10	1	-1E+10	1	-1E+10	1	-1E+10	1	-1E+10	1	-1E+10	1
4901784	102	C	04/20/2018	10:40	-132.405	43.340	0	1480.00	0	2.6280	0	34.6090	4	27.615	0	1463.015	0	26.3	4	8.1	4	-1E+10	1	-1E+10	1	-1E+10	1	-1E+10	1	-1E+10	1	-1E+10	1
4901784	102	C	04/20/2018	10:40	-132.405	43.340	0	1484.40	0	2.6120	0	34.6120	4	27.619	0	1467.349	0	26.4	4	8.1	4	-1E+10	1	-1E+10	1	-1E+10	1	-1E+10	1	-1E+10	1	-1E+10	1
4901784	102	C	04/20/2018	10:40	-132.405	43.340	0	1489.80	0	2.6020	0	34.6120	4	27.620	0	1472.669	0	26.6	4	8.1	4	-1E+10	1	-1E+10	1	-1E+10	1	-1E+10	1	-1E+10	1	-1E+10	1
4901784	102	C	04/20/2018	10:40	-132.405	43.340	0	1495.20	0	2.5990	0	34.6110	4	27.619	0	1477.988	0	26.7	4	8.2	4	-1E+10	1	-1E+10	1	-1E+10	1	-1E+10	1	-1E+10	1	-1E+10	1
4901784	102	C	04/20/2018	10:40	-132.405	43.340	0	1500.30	0	2.5860	0	34.6110	4	27.620	0	1483.011	0	26.9	4	8.2	4	-1E+10	1	-1E+10	1	-1E+10	1	-1E+10	1	-1E+10	1	-1E+10	1
4901784	102	C	04/20/2018	10:40	-132.405	43.340	0	1504.50	0	2.5770	0	34.6120	4	27.622	0	1487.148	0	27.1	4	8.3	4	-1E+10	1	-1E+10	1	-1E+10	1	-1E+10	1	-1E+10	1	-1E+10	1
4901784	102	C	04/20/2018	10:40	-132.405	43.340	0	1510.00	0	2.5660	0	34.6150	4	27.625	0	1492.565	0	27.5	4	8.4	4	-1E+10	1	-1E+10	1	-1E+10	1	-1E+10	1	-1E+10	1	-1E+10	1
4901784	102	C	04/20/2018	10:40	-132.405	43.340	0	1515.50	0	2.5510	0	34.6160	4	27.627	0	1497.982	0	27.8	4	8.5	4	-1E+10	1	-1E+10	1	-1E+10	1	-1E+10	1	-1E+10	1	-1E+10	1
4901784	102	C	04/20/2018	10:40	-132.405	43.340	0	1520.30	0	2.5380	0	34.6160	4	27.629	0	1502.710	0	28.2	4	8.6	4	-1E+10	1	-1E+10	1	-1E+10	1	-1E+10	1	-1E+10	1	-1E+10	1
4901784	102	C	04/20/2018	10:40	-132.405	43.340	0	1525.20	0	2.5150	0	34.6170	4	27.631	0	1507.535	0	28.6	4	8.7	4	-1E+10	1	-1E+10	1	-1E+10	1	-1E+10	1	-1E+10	1	-1E+10	1
4901784	102	C	04/20/2018	10:40	-132.405	43.340	0	1530.20	0	2.5060	0	34.6180	4	27.633	0	1512.460	0	28.9	4	8.8	4	-1E+10	1	-1E+10	1	-1E+10	1	-1E+10	1	-1E+10	1	-1E+10	1
4901784	102	C	04/20/2018	10:40	-132.405	43.340	0	1535.10	0	2.4990	0	34.6210	4	27.636	0	1517.285	0	29.2	4	8.9	4	-1E+10	1	-1E+10	1	-1E+10	1	-1E+10	1	-1E+10	1	-1E+10	1
4901784	102	C	04/20/2018	10:40	-132.405	43.340	0	1540.00	0	2.4830	0	34.6230	4	27.639	0	1522.111	0	29.6	4	9.0	4	-1E+10	1	-1E+10	1	-1E+10	1	-1E+10	1	-1E+10	1	-1E+10	1
4901784	102	C	04/20/2018	10:40	-132.405	43.340	0	1544.90	0	2.4750	0	34.6240	4	27.640	0	1526.936	0	29.8	4	9.1	4	-1E+10	1	-1E+10	1	-1E+10	1	-1E+10	1	-1E+10	1	-1E+10	1
4901784	102	C	04/20/2018	10:40	-132.405	43.340	0	1549.90	0	2.4720	0	34.6220	4	27.639	0	1531.860	0	30.0	4	9.2	4	-1E+10	1	-1E+10	1	-1E+10	1	-1E+10	1	-1E+10	1	-1E+10	1
4901784	102	C	04/20/2018	10:40	-132.405	43.340	0	1555.00	0	2.4680	0	34.6240	4	27.641	0	1536.882	0	30.3	4	9.3	4	-1E+10	1	-1E+10	1	-1E+10	1	-1E+10	1	-1E+10	1	-1E+10	1
4901784	102	C	04/20/2018	10:40	-132.405	43.340	0	1560.00	0	2.4550	0	34.6280	4	27.645	0	1541.806	0	30.7	4	9.4	4	-1E+10	1	-1E+10	1	-1E+10	1	-1E+10	1	-1E+10	1	-1E+10	1
4901784	102	C	04/20/2018	10:40	-132.405	43.340	0	1565.00	0	2.4490	0	34.6280	4	27.646	0	1546.729	0	31.0	4	9.5	4	-1E+10	1	-1E+10	1	-1E+10	1	-1E+10	1	-1E+10	1	-1E+10	1
4901784	102	C	04/20/2018	10:40	-132.405	43.340	0	1570.00	0	2.4430	0	34.6260	4	27.645	0	1551.652	0	31.5	4	9.6	4	-1E+10	1	-1E+10	1	-1E+10	1	-1E+10	1	-1E+10	1	-1E+10	1
4901784	102	C	04/20/2018	10:40	-132.405	43.340	0	1575.00	0	2.4200	0	34.6300	4	27.650	0	1556.575	0	32.1	4	9.8	4	-1E+10	1	-1E+10	1	-1E+10	1	-1E+10	1	-1E+10	1	-1E+10	1
4901784	102	C	04/20/2018	10:40	-132.405	43.340	0	1580.10	0	2.4100	0	34.6310	4	27.652	0	1561.597	0	32.4	4	9.9	4	-1E+10	1	-1E+10	1	-1E+10	1	-1E+10	1	-1E+10	1	-1E+10	1
4901784	102	C	04/20/2018	10:40	-132.405	43.340	0	1585.20	0	2.4000	0	34.6310	4	27.652	0	1566.618	0	32.9	4	10.0	4	-1E+10	1	-1E+10	1	-1E+10	1	-1E+10	1	-1E+10	1	-1E+10	1
4901784	102	C	04/20/2018	10:40	-132.405	43.340	0	1590.30	0	2.3890	0	34.6350	4	27.657	0	1571.640	0	33.2	4	10.1	4	-1E+10	1	-1E+10	1	-1E+10	1	-1E+10	1	-1E+10	1	-1E+10	1
4901784	102	C	04/20/2018	10:40	-132.405	43.340	0	1595.40	0	2.3810	0	34.6360	4	27.658	0	1576.661	0	33.5	4	10.2	4	-1E+10	1	-1E+10	1	-1E+10	1	-1E+10	1	-1E+10	1	-1E+10	1
4901784	102	C	04/20/2018	10:40	-132.405	43.340	0	1600.60	0	2.3750	0	34.6360	4	27.659	0	1581.780	0	33.7	4	10.3	4	-1E+10	1	-1E+10	1	-1E+10	1	-1E+10	1	-1E+10	1	-1E+10	1
4901784	102	C	04/20/2018	10:40	-132.405	43.340	0	1604.90	0	2.3680	0	34.6370	4	27.660	0	1586.014	0	34.1	4	10.4	4	-1E+10	1	-1E+10	1	-1E+10	1	-1E+10	1	-1E+10	1	-1E+10	1
4901784	102	C	04/20/2018	10:40	-132.405	43.340	0	1609.20	0	2.3580	0	34.6380	4	27.662	0	1590.247	0	34.5	4	10.5	4	-1E+10	1	-1E+10	1	-1E+10	1	-1E+10	1	-1E+10	1	-1E+10	1
4901784	102	C	04/20/2018	10:40	-132.405	43.340	0	1614.50	0	2.3460	0	34.6370	4	27.662	0	1595.465	0	35.0	4	10.6	4	-1E+10	1	-1E+10	1	-1E+10	1	-1E+10	1	-1E+10	1	-1E+10	1
4901784	102	C	04/20/2018	10:40	-132.405	43.340	0	1619.80	0	2.3380	0	34.6390	4	27.664	0	1600.682	0	35.3	4	10.7	4	-1E+10	1	-1E+10	1	-1E+10	1	-1E+10	1	-1E+10	1	-1E+10	1
4901784	102	C	04/20/2018	10:40	-132.405	43.340	0	1625.00	0	2.3330	0	34.6420	4	27.667	0	1605.801	0	35.5	4	10.8	4	-1E+10	1	-1E+10	1	-1E+10	1	-1E+10	1	-1E+10	1	-1E+10	1
4901784	102	C	04/20/2018	10:40	-132.405	43.340	0	1630.30	0	2.3300	0	34.6420	4	27.667	0	1611.018	0	35.8	4	10.9	4	-1E+10	1	-1E+10	1	-1E+10	1	-1E+10	1	-1E+10	1	-1E+10	1
4901784	102	C	04/20/2018	10:40	-132.405	43.340	0	1635.60	0	2.3230	0	34.6430	4	27.669	0	1616.235	0	36.2	4	11.0	4	-1E+10	1	-1E+10	1	-1E+10	1	-1E+10	1	-1E+10	1	-1E+10	1
4901784	102	C	04/20/2018	10:40	-132.405	43.340	0	1640.00	0	2.3180	0	34.6440	4	27.670	0	1620.566	0	36.5	4	11.1	4	-1E+10	1	-1E+10	1	-1E+10	1	-1E+10	1	-1E+10	1	-1E+10	1
4901784	102	C	04/20/2018	10:40	-132.405	43.340	0	1644.40	0	2.3140	0	34.6430	4	27.669	0	1624.897	0	37.0	4	11.2	4	-1E+10	1	-1E+10	1	-1E+10	1	-1E+10	1	-1E+10	1	-1E+10	1
4901784	102	C	04/20/2018	10:40	-132.405	43.340	0	1649.80	0	2.2950	0	34.6460	4	27.673	0	1630.213	0	37.9	4	11.5	4	-1E+10	1	-1E+10	1	-1E+10	1	-1E+10	1	-1E+10	1	-1E+10	1
4901784	102	C	04/20/2018	10:40	-132.405	43.340	0	1655.20	0	2.2790	0	34.6470	4	27.675	0	1635.528	0	38.5	4	11.7	4	-1E+10	1	-1E+10	1	-1E+10	1	-1E+10	1	-1E+10	1	-1E+10	1
4901784	102	C	04/20/2018	10:40	-132.405	43.340	0	1660.60	0	2.2620	0	34.6480	4	27.678	0	1640.843	0	39.1	4	11.9	4	-1E+10	1	-1E+10	1	-1E+10	1	-1E+10	1	-1E+10	1	-1E+10	1
4901784	102	C	04/20/2018	10:40	-132.405	43.340	0	1665.20	0	2.2460	0	34.6500	4	27.681	0	1645.370	0	39.7	4	12.0	4	-1E+10	1	-1E+10	1	-1E+10	1	-1E+10	1	-1E+10	1	-1E+10	1
4901784	102	C	04/20/2018	10:40	-132.405	43.340	0	1669.70	0	2.2360	0	34.6520	4	27.683	0	1649.799	0	40.1	4	12.2	4	-1E+10	1	-1E+10	1	-1E+10	1	-1E+10	1	-1E+10	1	-1E+10	1
4901784	102	C	04/20/2018	10:40	-132.405	43.340	0	1675.20	0	2.2330	0	34.6540	4	27.685	0	1655.212	0	40.3	4	12.2	4	-1E+10	1	-1E+10	1	-1E+10	1	-1E+10	1	-1E+10	1	-1E+10	1
4901784	102	C	04/20/2018	10:40	-132.405	43.340	0	1679.70	0	2.2290	0	34.6540	4	27.685	0	1659.641	0	40.6	4	12.3	4	-1E+10	1	-1E+10	1	-1E+10	1	-1E+10	1	-1E+10	1	-1E+10	1
4901784	102	C	04/20/2018	10:40	-132.405	43.340	0	1684.40	0	2.2230	0	34.6550	4	27.687	0	1664.266	0	40.9	4	12.4	4	-1E+10	1	-1E+10	1	-1E+10	1	-1E+10	1	-1E+10	1	-1E+10	1
4901784	102	C	04/20/2018	10:40	-132.405	43.340	0	1689.90	0	2.2120	0	34.6560	4	27.688	0	1669.679	0	41.4	4	12.6	4	-1E+10	1	-1E+10	1	-1E+10	1	-1E+10	1	-1E+10	1	-1E+10	1
4901784	102	C	04/20/2018	10:40	-132.405	43.340	0	1695.40	0	2.2020	0	34.6560	4	27.689	0	1675.091	0	41.8	4	12.7	4	-1E+10	1	-1E+10	1	-1E+10	1	-1E+10	1	-1E+10	1	-1E+10	1
4901784	102	C	04/20/2018	10:40	-132.405	43.340	0	1699.90	0	2.1840	0	34.6570	4	27.691	0	1679.519	0	42.4	4	12.8	4	-1E+10	1	-1E+10	1	-1E+10	1	-1E+10	1	-1E+10	1	-1E+10	1
4901784	102	C	04/20/2018	10:40	-132.405	43.340	0	1704.40	0	2.1740	0	34.6580	4	27.693	0	1683.948	0	42.8	4	13.0	4	-1E+10	1	-1E+10	1	-1E+10	1	-1E+10	1	-1E+10	1	-1E+10	1
4901784	102	C	04/20/2018	10:40	-132.405	43.340	0	1710.00	0	2.1680	0	34.6610	4	27.696	0	1689.458	0	43.1	4	13.1	4	-1E+10	1	-1E+10	1	-1E+10	1	-1E+10	1	-1E+10	1	-1E+10	1
4901784	102	C	04/20/2018	10:40	-132.405	43.340	0	1715.60	0	2.1640	0	34.6620	4	27.697	0	1694.968	0	43.4	4	13.1	4	-1E+10	1	-1E+10	1	-1E+10	1	-1E+10	1	-1E+10	1	-1E+10	1
4901784	102	C	04/20/2018	10:40	-132.405	43.340	0	1720.40	0	2.1600	0	34.6630	4	27.698	0	1699.692	0	43.6	4	13.2	4	-1E+10	1	-1E+10	1	-1E+10	1	-1E+10	1	-1E+10	1	-1E+10	1
4901784	102	C	04/20/2018	10:40	-132.405	43.340	0	1724.90	0	2.1570	0	34.6630	4	27.698	0	1704.119	0	43.8	4	13.3	4	-1E+10	1	-1E+10	1	-1E+10	1	-1E+10	1	-1E+10	1	-1E+10	1
4901784	102	C	04/20/2018	10:40	-132.405	43.340	0	1729.70	0	2.1510	0	34.6640	4	27.700	0	1708.842	0	44.1	4	13.4	4	-1E+10	1	-1E+10	1	-1E+10	1	-1E+10	1	-1E+10	1	-1E+10	1
4901784	102	C	04/20/2018	10:40	-132.405	43.340	0	1734.60	0	2.1480	0	34.6630	4	27.699	0	1713.663	0	44.4	4	13.5	4	-1E+10	1	-1E+10	1	-1E+10	1	-1E+10	1	-1E+10	1	-1E+10	1
4901784	102	C	04/20/2018	10:40	-132.405	43.340	0	1739.50	0	2.1390	0	34.6640	4	27.701	0	1718.484	0	44.9	4	13.6	4	-1E+10	1	-1E+10	1	-1E+10	1	-1E+10	1	-1E+10	1	-1E+10	1
4901784	102	C	04/20/2018	10:40	-132.405	43.340	0	1744.40	0	2.1290	0	34.6650	4	27.702	0	1723.305	0	45.5	4	13.8	4	-1E+10	1	-1E+10	1	-1E+10	1	-1E+10	1	-1E+10	1	-1E+10	1
4901784	102	C	04/20/2018	10:40	-132.405	43.340	0	1749.30	0	2.1180	0	34.6650	4	27.703	0	1728.126	0	45.8	4	13.9	4	-1E+10	1	-1E+10	1	-1E+10	1	-1E+10	1	-1E+10	1	-1E+10	1
4901784	102	C	04/20/2018	10:40	-132.405	43.340	0	1755.00	0	2.1140	0	34.6670	4	27.705	0	1733.734	0	46.1	4	14.0	4	-1E+10	1	-1E+10	1	-1E+10	1	-1E+10	1	-1E+10	1	-1E+10	1
4901784	102	C	04/20/2018	10:40	-132.405	43.340	0	1760.70	0	2.1100	0	34.6690	4	27.707	0	1739.341	0	46.6	4	14.1	4	-1E+10	1	-1E+10	1	-1E+10	1	-1E+10	1	-1E+10	1	-1E+10	1
4901784	102	C	04/20/2018	10:40	-132.405	43.340	0	1765.60	0	2.1040	0	34.6700	4	27.708	0	1744.162	0	47.2	4	14.3	4	-1E+10	1	-1E+10	1	-1E+10	1	-1E+10	1	-1E+10	1	-1E+10	1
4901784	102	C	04/20/2018	10:40	-132.405	43.340	0	1770.70	0	2.0940	0	34.6720	4	27.711	0	1749.179	0	47.7	4	14.4	4	-1E+10	1	-1E+10	1	-1E+10	1	-1E+10	1	-1E+10	1	-1E+10	1
4901784	102	C	04/20/2018	10:40	-132.405	43.340	0	1775.80	0	2.0820	0	34.6740	4	27.713	0	1754.196	0	48.1	4	14.6	4	-1E+10	1	-1E+10	1	-1E+10	1	-1E+10	1	-1E+10	1	-1E+10	1
4901784	102	C	04/20/2018	10:40	-132.405	43.340	0	1780.10	0	2.0770	0	34.6740	4	27.714	0	1758.426	0	48.3	4	14.6	4	-1E+10	1	-1E+10	1	-1E+10	1	-1E+10	1	-1E+10	1	-1E+10	1
4901784	102	C	04/20/2018	10:40	-132.405	43.340	0	1784.30	0	2.0740	0	34.6740	4	27.714	0	1762.557	0	48.7	4	14.7	4	-1E+10	1	-1E+10	1	-1E+10	1	-1E+10	1	-1E+10	1	-1E+10	1
4901784	102	C	04/20/2018	10:40	-132.405	43.340	0	1789.50	0	2.0690	0	34.6740	4	27.715	0	1767.672	0	49.0	4	14.8	4	-1E+10	1	-1E+10	1	-1E+10	1	-1E+10	1	-1E+10	1	-1E+10	1
4901784	102	C	04/20/2018	10:40	-132.405	43.340	0	1794.60	0	2.0620	0	34.6740	4	27.715	0	1772.689	0	49.2	4	14.9	4	-1E+10	1	-1E+10	1	-1E+10	1	-1E+10	1	-1E+10	1	-1E+10	1
4901784	102	C	04/20/2018	10:40	-132.405	43.340	0	1799.70	0	2.0590	0	34.6740	4	27.715	0	1777.705	0	49.5	4	14.9	4	-1E+10	1	-1E+10	1	-1E+10	1	-1E+10	1	-1E+10	1	-1E+10	1
4901784	102	C	04/20/2018	10:40	-132.405	43.340	0	1804.90	0	2.0520	0	34.6750	4	27.717	0	1782.820	0	49.8	4	15.0	4	-1E+10	1	-1E+10	1	-1E+10	1	-1E+10	1	-1E+10	1	-1E+10	1
4901784	102	C	04/20/2018	10:40	-132.405	43.340	0	1810.00	0	2.0470	0	34.6760	4	27.718	0	1787.836	0	50.1	4	15.1	4	-1E+10	1	-1E+10	1	-1E+10	1	-1E+10	1	-1E+10	1	-1E+10	1
4901784	102	C	04/20/2018	10:40	-132.405	43.340	0	1815.20	0	2.0460	0	34.6760	4	27.718	0	1792.950	0	50.4	4	15.2	4	-1E+10	1	-1E+10	1	-1E+10	1	-1E+10	1	-1E+10	1	-1E+10	1
4901784	102	C	04/20/2018	10:40	-132.405	43.340	0	1820.40	0	2.0450	0	34.6770	4	27.719	0	1798.065	0	50.7	4	15.3	4	-1E+10	1	-1E+10	1	-1E+10	1	-1E+10	1	-1E+10	1	-1E+10	1
4901784	102	C	04/20/2018	10:40	-132.405	43.340	0	1825.60	0	2.0430	0	34.6790	4	27.721	0	1803.179	0	50.9	4	15.4	4	-1E+10	1	-1E+10	1	-1E+10	1	-1E+10	1	-1E+10	1	-1E+10	1
4901784	102	C	04/20/2018	10:40	-132.405	43.340	0	1829.90	0	2.0410	0	34.6800	4	27.722	0	1807.408	0	51.0	4	15.4	4	-1E+10	1	-1E+10	1	-1E+10	1	-1E+10	1	-1E+10	1	-1E+10	1
4901784	102	C	04/20/2018	10:40	-132.405	43.340	0	1834.30	0	2.0360	0	34.6800	4	27.722	0	1811.735	0	51.4	4	15.5	4	-1E+10	1	-1E+10	1	-1E+10	1	-1E+10	1	-1E+10	1	-1E+10	1
4901784	102	C	04/20/2018	10:40	-132.405	43.340	0	1839.70	0	2.0260	0	34.6810	4	27.724	0	1817.045	0	51.8	4	15.6	4	-1E+10	1	-1E+10	1	-1E+10	1	-1E+10	1	-1E+10	1	-1E+10	1
4901784	102	C	04/20/2018	10:40	-132.405	43.340	0	1845.00	0	2.0210	0	34.6820	4	27.725	0	1822.257	0	51.9	4	15.7	4	-1E+10	1	-1E+10	1	-1E+10	1	-1E+10	1	-1E+10	1	-1E+10	1
4901784	102	C	04/20/2018	10:40	-132.405	43.340	0	1850.30	0	2.0190	0	34.6830	4	27.726	0	1827.469	0	52.1	4	15.7	4	-1E+10	1	-1E+10	1	-1E+10	1	-1E+10	1	-1E+10	1	-1E+10	1
4901784	102	C	04/20/2018	10:40	-132.405	43.340	0	1854.80	0	2.0170	0	34.6830	4	27.726	0	1831.894	0	52.2	4	15.8	4	-1E+10	1	-1E+10	1	-1E+10	1	-1E+10	1	-1E+10	1	-1E+10	1
4901784	102	C	04/20/2018	10:40	-132.405	43.340	0	1859.30	0	2.0150	0	34.6830	4	27.726	0	1836.319	0	52.4	4	15.8	4	-1E+10	1	-1E+10	1	-1E+10	1	-1E+10	1	-1E+10	1	-1E+10	1
4901784	102	C	04/20/2018	10:40	-132.405	43.340	0	1864.60	0	2.0120	0	34.6840	4	27.727	0	1841.531	0	52.6	4	15.9	4	-1E+10	1	-1E+10	1	-1E+10	1	-1E+10	1	-1E+10	1	-1E+10	1
4901784	102	C	04/20/2018	10:40	-132.405	43.340	0	1870.00	0	2.0080	0	34.6840	4	27.728	0	1846.841	0	52.8	4	15.9	4	-1E+10	1	-1E+10	1	-1E+10	1	-1E+10	1	-1E+10	1	-1E+10	1
4901784	102	C	04/20/2018	10:40	-132.405	43.340	0	1875.40	0	2.0060	0	34.6850	4	27.729	0	1852.150	0	53.0	4	16.0	4	-1E+10	1	-1E+10	1	-1E+10	1	-1E+10	1	-1E+10	1	-1E+10	1
4901784	102	C	04/20/2018	10:40	-132.405	43.340	0	1880.00	0	2.0050	0	34.6850	4	27.729	0	1856.673	0	53.2	4	16.0	4	-1E+10	1	-1E+10	1	-1E+10	1	-1E+10	1	-1E+10	1	-1E+10	1
4901784	102	C	04/20/2018	10:40	-132.405	43.340	0	1884.50	0	2.0010	0	34.6860	4	27.730	0	1861.098	0	53.4	4	16.1	4	-1E+10	1	-1E+10	1	-1E+10	1	-1E+10	1	-1E+10	1	-1E+10	1
4901784	102	C	04/20/2018	10:40	-132.405	43.340	0	1890.00	0	2.0000	0	34.6860	4	27.730	0	1866.505	0	53.5	4	16.1	4	-1E+10	1	-1E+10	1	-1E+10	1	-1E+10	1	-1E+10	1	-1E+10	1
4901784	102	C	04/20/2018	10:40	-132.405	43.340	0	1895.50	0	2.0000	0	34.6860	4	27.730	0	1871.913	0	53.6	4	16.2	4	-1E+10	1	-1E+10	1	-1E+10	1	-1E+10	1	-1E+10	1	-1E+10	1
4901784	102	C	04/20/2018	10:40	-132.405	43.340	0	1900.00	0	1.9980	0	34.6870	4	27.731	0	1876.337	0	53.8	4	16.2	4	-1E+10	1	-1E+10	1	-1E+10	1	-1E+10	1	-1E+10	1	-1E+10	1
4901784	102	C	04/20/2018	10:40	-132.405	43.340	0	1904.60	0	1.9950	0	34.6870	4	27.731	0	1880.859	0	54.0	4	16.3	4	-1E+10	1	-1E+10	1	-1E+10	1	-1E+10	1	-1E+10	1	-1E+10	1
4901784	102	C	04/20/2018	10:40	-132.405	43.340	0	1910.10	0	1.9910	0	34.6870	4	27.732	0	1886.266	0	54.2	4	16.4	4	-1E+10	1	-1E+10	1	-1E+10	1	-1E+10	1	-1E+10	1	-1E+10	1
4901784	102	C	04/20/2018	10:40	-132.405	43.340	0	1915.60	0	1.9870	0	34.6880	4	27.733	0	1891.673	0	54.5	4	16.4	4	-1E+10	1	-1E+10	1	-1E+10	1	-1E+10	1	-1E+10	1	-1E+10	1
4901784	102	C	04/20/2018	10:40	-132.405	43.340	0	1920.10	0	1.9870	0	34.6890	4	27.734	0	1896.097	0	54.6	4	16.5	4	-1E+10	1	-1E+10	1	-1E+10	1	-1E+10	1	-1E+10	1	-1E+10	1
4901784	102	C	04/20/2018	10:40	-132.405	43.340	0	1924.70	0	1.9860	0	34.6890	4	27.734	0	1900.619	0	54.9	4	16.5	4	-1E+10	1	-1E+10	1	-1E+10	1	-1E+10	1	-1E+10	1	-1E+10	1
4901784	102	C	04/20/2018	10:40	-132.405	43.340	0	1930.10	0	1.9820	0	34.6890	4	27.734	0	1905.927	0	55.2	4	16.6	4	-1E+10	1	-1E+10	1	-1E+10	1	-1E+10	1	-1E+10	1	-1E+10	1
4901784	102	C	04/20/2018	10:40	-132.405	43.340	0	1935.50	0	1.9790	0	34.6900	4	27.735	0	1911.235	0	55.5	4	16.7	4	-1E+10	1	-1E+10	1	-1E+10	1	-1E+10	1	-1E+10	1	-1E+10	1
4901784	102	C	04/20/2018	10:40	-132.405	43.340	0	1940.40	0	1.9750	0	34.6910	4	27.736	0	1916.052	0	55.7	4	16.8	4	-1E+10	1	-1E+10	1	-1E+10	1	-1E+10	1	-1E+10	1	-1E+10	1
4901784	102	C	04/20/2018	10:40	-132.405	43.340	0	1945.40	0	1.9730	0	34.6920	4	27.737	0	1920.967	0	56.0	4	16.9	4	-1E+10	1	-1E+10	1	-1E+10	1	-1E+10	1	-1E+10	1	-1E+10	1
4901784	102	C	04/20/2018	10:40	-132.405	43.340	0	1950.30	0	1.9700	0	34.6920	4	27.738	0	1925.783	0	56.3	4	17.0	4	-1E+10	1	-1E+10	1	-1E+10	1	-1E+10	1	-1E+10	1	-1E+10	1
4901784	102	C	04/20/2018	10:40	-132.405	43.340	0	1955.30	0	1.9650	0	34.6930	4	27.739	0	1930.698	0	56.6	4	17.1	4	-1E+10	1	-1E+10	1	-1E+10	1	-1E+10	1	-1E+10	1	-1E+10	1
4901784	102	C	04/20/2018	10:40	-132.405	43.340	0	1960.30	0	1.9610	0	34.6940	4	27.740	0	1935.612	0	56.9	4	17.2	4	-1E+10	1	-1E+10	1	-1E+10	1	-1E+10	1	-1E+10	1	-1E+10	1
4901784	102	C	04/20/2018	10:40	-132.405	43.340	0	1965.20	0	1.9560	0	34.6950	4	27.741	0	1940.428	0	57.3	4	17.3	4	-1E+10	1	-1E+10	1	-1E+10	1	-1E+10	1	-1E+10	1	-1E+10	1
4901784	102	C	04/20/2018	10:40	-132.405	43.340	0	1970.30	0	1.9520	0	34.6950	4	27.742	0	1945.440	0	57.5	4	17.3	4	-1E+10	1	-1E+10	1	-1E+10	1	-1E+10	1	-1E+10	1	-1E+10	1
4901784	102	C	04/20/2018	10:40	-132.405	43.340	0	1975.40	0	1.9510	0	34.6950	4	27.742	0	1950.453	0	57.6	4	17.4	4	-1E+10	1	-1E+10	1	-1E+10	1	-1E+10	1	-1E+10	1	-1E+10	1
4901784	102	C	04/20/2018	10:40	-132.405	43.340	0	1980.50	0	1.9510	0	34.6950	4	27.742	0	1955.465	0	57.8	4	17.4	4	-1E+10	1	-1E+10	1	-1E+10	1	-1E+10	1	-1E+10	1	-1E+10	1
4901784	102	C	04/20/2018	10:40	-132.405	43.340	0	1985.50	0	1.9480	0	34.6960	4	27.743	0	1960.379	0	58.2	4	17.5	4	-1E+10	1	-1E+10	1	-1E+10	1	-1E+10	1	-1E+10	1	-1E+10	1
4901784	102	C	04/20/2018	10:40	-132.405	43.340	0	1990.60	0	1.9410	0	34.6970	4	27.744	0	1965.391	0	58.6	4	17.7	4	-1E+10	1	-1E+10	1	-1E+10	1	-1E+10	1	-1E+10	1	-1E+10	1
4901784	102	C	04/20/2018	10:40	-132.405	43.340	0	1994.90	0	1.9380	0	34.6980	4	27.745	0	1969.616	0	58.7	4	17.7	4	-1E+10	1	-1E+10	1	-1E+10	1	-1E+10	1	-1E+10	1	-1E+10	1
4901784	102	C	04/20/2018	10:40	-132.405	43.340	0	1999.20	0	1.9380	0	34.6980	4	27.745	0	1973.842	0	58.9	4	17.7	4	-1E+10	1	-1E+10	1	-1E+10	1	-1E+10	1	-1E+10	1	-1E+10	1
4901784	102	C	04/20/2018	10:40	-132.405	43.340	0	2004.50	0	1.9350	0	34.6980	4	27.745	0	1979.050	0	59.1	4	17.8	4	-1E+10	1	-1E+10	1	-1E+10	1	-1E+10	1	-1E+10	1	-1E+10	1
4901784	102	C	04/20/2018	10:40	-132.405	43.340	0	2010.00	0	1.9320	0	34.6990	4	27.747	0	1984.455	0	59.3	4	17.9	4	-1E+10	1	-1E+10	1	-1E+10	1	-1E+10	1	-1E+10	1	-1E+10	1
4901784	102	C	04/20/2018	10:40	-132.405	43.340	0	2014.90	0	1.9310	0	34.6990	4	27.747	0	1989.270	0	59.5	4	17.9	4	-1E+10	1	-1E+10	1	-1E+10	1	-1E+10	1	-1E+10	1	-1E+10	1
4901784	102	C	04/20/2018	10:40	-132.405	43.340	0	2020.10	0	1.9290	0	34.6990	4	27.747	0	1994.379	0	59.6	4	18.0	4	-1E+10	1	-1E+10	1	-1E+10	1	-1E+10	1	-1E+10	1	-1E+10	1
4901784	102	C	04/20/2018	10:40	-132.405	43.340	0																										
4901784	103	C	04/30/2018	10:41	-132.339	43.363	0	3.00	0	9.6120	0	32.7050	4	25.224	0	2.976	0	279.4	4	99.2	4	-1E+10	1	-1E+10	1	-1E+10	1	-1E+10	1	-1E+10	1	-1E+10	1
4901784	103	C	04/30/2018	10:41	-132.339	43.363	0	4.60	0	9.6120	0	32.7050	4	25.225	0	4.563	0	279.4	4	99.2	4	-1E+10	1	-1E+10	1	-1E+10	1	-1E+10	1	-1E+10	1	-1E+10	1
4901784	103	C	04/30/2018	10:41	-132.339	43.363	0	6.00	0	9.6080	0	32.7050	4	25.225	0	5.952	0	279.2	4	99.2	4	-1E+10	1	-1E+10	1	-1E+10	1	-1E+10	1	-1E+10	1	-1E+10	1
4901784	103	C	04/30/2018	10:41	-132.339	43.363	0	7.40	0	9.6080	0	32.7050	4	25.225	0	7.341	0	279.3	4	99.2	4	-1E+10	1	-1E+10	1	-1E+10	1	-1E+10	1	-1E+10	1	-1E+10	1
4901784	103	C	04/30/2018	10:41	-132.339	43.363	0	9.00	0	9.6120	0	32.7040	4	25.224	0	8.928	0	279.1	4	99.1	4	-1E+10	1	-1E+10	1	-1E+10	1	-1E+10	1	-1E+10	1	-1E+10	1
4901784	103	C	04/30/2018	10:41	-132.339	43.363	0	10.80	0	9.6130	0	32.7050	4	25.224	0	10.714	0	279.2	4	99.2	4	-1E+10	1	-1E+10	1	-1E+10	1	-1E+10	1	-1E+10	1	-1E+10	1
4901784	103	C	04/30/2018	10:41	-132.339	43.363	0	12.70	0	9.6130	0	32.7050	4	25.224	0	12.598	0	279.1	4	99.1	4	-1E+10	1	-1E+10	1	-1E+10	1	-1E+10	1	-1E+10	1	-1E+10	1
4901784	103	C	04/30/2018	10:41	-132.339	43.363	0	14.70	0	9.6140	0	32.7040	4	25.224	0	14.582	0	279.1	4	99.2	4	-1E+10	1	-1E+10	1	-1E+10	1	-1E+10	1	-1E+10	1	-1E+10	1
4901784	103	C	04/30/2018	10:41	-132.339	43.363	0	16.60	0	9.6140	0	32.7050	4	25.224	0	16.467	0	279.3	4	99.2	4	-1E+10	1	-1E+10	1	-1E+10	1	-1E+10	1	-1E+10	1	-1E+10	1
4901784	103	C	04/30/2018	10:41	-132.339	43.363	0	18.60	0	9.6140	0	32.7050	4	25.224	0	18.451	0	279.1	4	99.1	4	-1E+10	1	-1E+10	1	-1E+10	1	-1E+10	1	-1E+10	1	-1E+10	1
4901784	103	C	04/30/2018	10:41	-132.339	43.363	0	20.50	0	9.6130	0	32.7050	4	25.225	0	20.336	0	278.9	4	99.1	4	-1E+10	1	-1E+10	1	-1E+10	1	-1E+10	1	-1E+10	1	-1E+10	1
4901784	103	C	04/30/2018	10:41	-132.339	43.363	0	22.50	0	9.6150	0	32.7040	4	25.224	0	22.320	0	278.9	4	99.1	4	-1E+10	1	-1E+10	1	-1E+10	1	-1E+10	1	-1E+10	1	-1E+10	1
4901784	103	C	04/30/2018	10:41	-132.339	43.363	0	24.40	0	9.6150	0	32.7050	4	25.224	0	24.204	0	279.0	4	99.1	4	-1E+10	1	-1E+10	1	-1E+10	1	-1E+10	1	-1E+10	1	-1E+10	1
4901784	103	C	04/30/2018	10:41	-132.339	43.363	0	26.30	0	9.6150	0	32.7050	4	25.224	0	26.089	0	279.0	4	99.1	4	-1E+10	1	-1E+10	1	-1E+10	1	-1E+10	1	-1E+10	1	-1E+10	1
4901784	103	C	04/30/2018	10:41	-132.339	43.363	0	28.20	0	9.6140	0	32.7040	4	25.224	0	27.973	0	279.0	4	99.1	4	-1E+10	1	-1E+10	1	-1E+10	1	-1E+10	1	-1E+10	1	-1E+10	1
4901784	103	C	04/30/2018	10:41	-132.339	43.363	0	30.00	0	9.6160	0	32.7040	4	25.224	0	29.759	0	279.0	4	99.1	4	-1E+10	1	-1E+10	1	-1E+10	1	-1E+10	1	-1E+10	1	-1E+10	1
4901784	103	C	04/30/2018	10:41	-132.339	43.363	0	31.90	0	9.6160	0	32.7050	4	25.224	0	31.643	0	278.8	4	99.0	4	-1E+10	1	-1E+10	1	-1E+10	1	-1E+10	1	-1E+10	1	-1E+10	1
4901784	103	C	04/30/2018	10:41	-132.339	43.363	0	33.80	0	9.6170	0	32.7050	4	25.224	0	33.528	0	278.9	4	99.1	4	-1E+10	1	-1E+10	1	-1E+10	1	-1E+10	1	-1E+10	1	-1E+10	1
4901784	103	C	04/30/2018	10:41	-132.339	43.363	0	35.70	0	9.6170	0	32.7040	4	25.223	0	35.412	0	278.7	4	99.0	4	-1E+10	1	-1E+10	1	-1E+10	1	-1E+10	1	-1E+10	1	-1E+10	1
4901784	103	C	04/30/2018	10:41	-132.339	43.363	0	38.20	0	9.6170	0	32.7040	4	25.224	0	37.892	0	278.5	4	98.9	4	-1E+10	1	-1E+10	1	-1E+10	1	-1E+10	1	-1E+10	1	-1E+10	1
4901784	103	C	04/30/2018	10:41	-132.339	43.363	0	40.10	0	9.6170	0	32.7040	4	25.224	0	39.777	0	278.3	4	98.8	4	-1E+10	1	-1E+10	1	-1E+10	1	-1E+10	1	-1E+10	1	-1E+10	1
4901784	103	C	04/30/2018	10:41	-132.339	43.363	0	41.80	0	9.6160	0	32.7030	4	25.223	0	41.463	0	277.9	4	98.7	4	-1E+10	1	-1E+10	1	-1E+10	1	-1E+10	1	-1E+10	1	-1E+10	1
4901784	103	C	04/30/2018	10:41	-132.339	43.363	0	43.30	0	9.6120	0	32.7040	4	25.224	0	42.950	0	277.6	4	98.6	4	-1E+10	1	-1E+10	1	-1E+10	1	-1E+10	1	-1E+10	1	-1E+10	1
4901784	103	C	04/30/2018	10:41	-132.339	43.363	0	44.80	0	9.6150	0	32.7020	4	25.222	0	44.438	0	277.1	4	98.4	4	-1E+10	1	-1E+10	1	-1E+10	1	-1E+10	1	-1E+10	1	-1E+10	1
4901784	103	C	04/30/2018	10:41	-132.339	43.363	0	46.40	0	9.6040	0	32.7040	4	25.226	0	46.025	0	276.4	4	98.2	4	-1E+10	1	-1E+10	1	-1E+10	1	-1E+10	1	-1E+10	1	-1E+10	1
4901784	103	C	04/30/2018	10:41	-132.339	43.363	0	47.90	0	9.5860	0	32.7050	4	25.229	0	47.513	0	275.8	4	97.9	4	-1E+10	1	-1E+10	1	-1E+10	1	-1E+10	1	-1E+10	1	-1E+10	1
4901784	103	C	04/30/2018	10:41	-132.339	43.363	0	49.50	0	9.5100	0	32.7060	4	25.243	0	49.100	0	275.6	4	97.7	4	-1E+10	1	-1E+10	1	-1E+10	1	-1E+10	1	-1E+10	1	-1E+10	1
4901784	103	C	04/30/2018	10:41	-132.339	43.363	0	51.10	0	9.4480	0	32.7130	4	25.258	0	50.687	0	275.3	4	97.4	4	-1E+10	1	-1E+10	1	-1E+10	1	-1E+10	1	-1E+10	1	-1E+10	1
4901784	103	C	04/30/2018	10:41	-132.339	43.363	0	52.70	0	9.3590	0	32.6980	4	25.261	0	52.273	0	275.3	4	97.3	4	-1E+10	1	-1E+10	1	-1E+10	1	-1E+10	1	-1E+10	1	-1E+10	1
4901784	103	C	04/30/2018	10:41	-132.339	43.363	0	54.30	0	9.3150	0	32.6970	4	25.267	0	53.860	0	275.2	4	97.1	4	-1E+10	1	-1E+10	1	-1E+10	1	-1E+10	1	-1E+10	1	-1E+10	1
4901784	103	C	04/30/2018	10:41	-132.339	43.363	0	56.00	0	9.2390	0	32.6910	4	25.274	0	55.546	0	275.4	4	97.0	4	-1E+10	1	-1E+10	1	-1E+10	1	-1E+10	1	-1E+10	1	-1E+10	1
4901784	103	C	04/30/2018	10:41	-132.339	43.363	0	57.60	0	9.2100	0	32.6910	4	25.279	0	57.133	0	275.1	4	96.8	4	-1E+10	1	-1E+10	1	-1E+10	1	-1E+10	1	-1E+10	1	-1E+10	1
4901784	103	C	04/30/2018	10:41	-132.339	43.363	0	59.30	0	9.1880	0	32.6880	4	25.280	0	58.819	0	275.0	4	96.8	4	-1E+10	1	-1E+10	1	-1E+10	1	-1E+10	1	-1E+10	1	-1E+10	1
4901784	103	C	04/30/2018	10:41	-132.339	43.363	0	61.00	0	9.1740	0	32.6860	4	25.281	0	60.505	0	274.6	4	96.6	4	-1E+10	1	-1E+10	1	-1E+10	1	-1E+10	1	-1E+10	1	-1E+10	1
4901784	103	C	04/30/2018	10:41	-132.339	43.363	0	62.60	0	9.1790	0	32.6870	4	25.281	0	62.092	0	274.0	4	96.4	4	-1E+10	1	-1E+10	1	-1E+10	1	-1E+10	1	-1E+10	1	-1E+10	1
4901784	103	C	04/30/2018	10:41	-132.339	43.363	0	64.40	0	9.1880	0	32.6910	4	25.282	0	63.877	0	273.4	4	96.2	4	-1E+10	1	-1E+10	1	-1E+10	1	-1E+10	1	-1E+10	1	-1E+10	1
4901784	103	C	04/30/2018	10:41	-132.339	43.363	0	66.10	0	9.1670	0	32.7090	4	25.300	0	65.563	0	272.3	4	95.8	4	-1E+10	1	-1E+10	1	-1E+10	1	-1E+10	1	-1E+10	1	-1E+10	1
4901784	103	C	04/30/2018	10:41	-132.339	43.363	0	67.90	0	9.1050	0	32.7000	4	25.303	0	67.348	0	272.5	4	95.7	4	-1E+10	1	-1E+10	1	-1E+10	1	-1E+10	1	-1E+10	1	-1E+10	1
4901784	103	C	04/30/2018	10:41	-132.339	43.363	0	69.70	0	9.0640	0	32.6960	4	25.306	0	69.133	0	272.2	4	95.5	4	-1E+10	1	-1E+10	1	-1E+10	1	-1E+10	1	-1E+10	1	-1E+10	1
4901784	103	C	04/30/2018	10:41	-132.339	43.363	0	71.40	0	9.0690	0	32.6970	4	25.306	0	70.819	0	272.0	4	95.5	4	-1E+10	1	-1E+10	1	-1E+10	1	-1E+10	1	-1E+10	1	-1E+10	1
4901784	103	C	04/30/2018	10:41	-132.339	43.363	0	73.20	0	9.0610	0	32.6980	4	25.308	0	72.604	0	271.7	4	95.4	4	-1E+10	1	-1E+10	1	-1E+10	1	-1E+10	1	-1E+10	1	-1E+10	1
4901784	103	C	04/30/2018	10:41	-132.339	43.363	0	75.00	0	9.0610	0	32.7000	4	25.310	0	74.389	0	271.5	4	95.3	4	-1E+10	1	-1E+10	1	-1E+10	1	-1E+10	1	-1E+10	1	-1E+10	1
4901784	103	C	04/30/2018	10:41	-132.339	43.363	0	76.80	0	9.0560	0	32.7010	4	25.311	0	76.174	0	271.2	4	95.2	4	-1E+10	1	-1E+10	1	-1E+10	1	-1E+10	1	-1E+10	1	-1E+10	1
4901784	103	C	04/30/2018	10:41	-132.339	43.363	0	78.50	0	9.0450	0	32.7010	4	25.313	0	77.860	0	271.1	4	95.1	4	-1E+10	1	-1E+10	1	-1E+10	1	-1E+10	1	-1E+10	1	-1E+10	1
4901784	103	C	04/30/2018	10:41	-132.339	43.363	0	80.20	0	9.0280	0	32.7020	4	25.316	0	79.546	0	270.9	4	95.0	4	-1E+10	1	-1E+10	1	-1E+10	1	-1E+10	1	-1E+10	1	-1E+10	1
4901784	103	C	04/30/2018	10:41	-132.339	43.363	0	82.00	0	9.0260	0	32.7030	4	25.317	0	81.330	0	271.0	4	95.0	4	-1E+10	1	-1E+10	1	-1E+10	1	-1E+10	1	-1E+10	1	-1E+10	1
4901784	103	C	04/30/2018	10:41	-132.339	43.363	0	83.70	0	9.0290	0	32.7050	4	25.319	0	83.016	0	270.4	4	94.8	4	-1E+10	1	-1E+10	1	-1E+10	1	-1E+10	1	-1E+10	1	-1E+10	1
4901784	103	C	04/30/2018	10:41	-132.339	43.363	0	85.50	0	9.0740	0	32.7210	4	25.324	0	84.801	0	270.1	4	94.8	4	-1E+10	1	-1E+10	1	-1E+10	1	-1E+10	1	-1E+10	1	-1E+10	1
4901784	103	C	04/30/2018	10:41	-132.339	43.363	0	87.30	0	9.0830	0	32.7230	4	25.324	0	86.586	0	269.4	4	94.6	4	-1E+10	1	-1E+10	1	-1E+10	1	-1E+10	1	-1E+10	1	-1E+10	1
4901784	103	C	04/30/2018	10:41	-132.339	43.363	0	89.10	0	9.1300	0	32.7370	4	25.328	0	88.371	0	268.7	4	94.5	4	-1E+10	1	-1E+10	1	-1E+10	1	-1E+10	1	-1E+10	1	-1E+10	1
4901784	103	C	04/30/2018	10:41	-132.339	43.363	0	90.80	0	9.1230	0	32.7350	4	25.327	0	90.057	0	268.1	4	94.2	4	-1E+10	1	-1E+10	1	-1E+10	1	-1E+10	1	-1E+10	1	-1E+10	1
4901784	103	C	04/30/2018	10:41	-132.339	43.363	0	92.60	0	9.1180	0	32.7380	4	25.331	0	91.842	0	267.3	4	93.9	4	-1E+10	1	-1E+10	1	-1E+10	1	-1E+10	1	-1E+10	1	-1E+10	1
4901784	103	C	04/30/2018	10:41	-132.339	43.363	0	94.40	0	9.1110	0	32.7460	4	25.338	0	93.626	0	266.4	4	93.6	4	-1E+10	1	-1E+10	1	-1E+10	1	-1E+10	1	-1E+10	1	-1E+10	1
4901784	103	C	04/30/2018	10:41	-132.339	43.363	0	96.20	0	9.1090	0	32.7470	4	25.339	0	95.411	0	265.4	4	93.3	4	-1E+10	1	-1E+10	1	-1E+10	1	-1E+10	1	-1E+10	1	-1E+10	1
4901784	103	C	04/30/2018	10:41	-132.339	43.363	0	98.00	0	9.0980	0	32.7540	4	25.346	0	97.196	0	264.0	4	92.8	4	-1E+10	1	-1E+10	1	-1E+10	1	-1E+10	1	-1E+10	1	-1E+10	1
4901784	103	C	04/30/2018	10:41	-132.339	43.363	0	100.10	0	9.0600	0	32.7870	4	25.378	0	99.278	0	262.7	4	92.2	4	-1E+10	1	-1E+10	1	-1E+10	1	-1E+10	1	-1E+10	1	-1E+10	1
4901784	103	C	04/30/2018	10:41	-132.339	43.363	0	102.90	0	9.0170	0	32.8010	4	25.396	0	102.055	0	260.3	4	91.3	4	-1E+10	1	-1E+10	1	-1E+10	1	-1E+10	1	-1E+10	1	-1E+10	1
4901784	103	C	04/30/2018	10:41	-132.339	43.363	0	105.20	0	8.9440	0	32.8250	4	25.426	0	104.335	0	257.9	4	90.3	4	-1E+10	1	-1E+10	1	-1E+10	1	-1E+10	1	-1E+10	1	-1E+10	1
4901784	103	C	04/30/2018	10:41	-132.339	43.363	0	107.50	0	8.6530	0	32.8650	4	25.502	0	106.616	0	255.8	4	89.1	4	-1E+10	1	-1E+10	1	-1E+10	1	-1E+10	1	-1E+10	1	-1E+10	1
4901784	103	C	04/30/2018	10:41	-132.339	43.363	0	109.90	0	8.4230	0	32.8820	4	25.550	0	108.995	0	255.0	4	88.4	4	-1E+10	1	-1E+10	1	-1E+10	1	-1E+10	1	-1E+10	1	-1E+10	1
4901784	103	C	04/30/2018	10:41	-132.339	43.363	0	112.30	0	8.3010	0	32.8920	4	25.576	0	111.375	0	252.3	4	87.2	4	-1E+10	1	-1E+10	1	-1E+10	1	-1E+10	1	-1E+10	1	-1E+10	1
4901784	103	C	04/30/2018	10:41	-132.339	43.363	0	114.80	0	8.2240	0	32.9120	4	25.603	0	113.854	0	248.3	4	85.7	4	-1E+10	1	-1E+10	1	-1E+10	1	-1E+10	1	-1E+10	1	-1E+10	1
4901784	103	C	04/30/2018	10:41	-132.339	43.363	0	117.50	0	8.0810	0	33.0490	4	25.732	0	116.531	0	244.0	4	84.0	4	-1E+10	1	-1E+10	1	-1E+10	1	-1E+10	1	-1E+10	1	-1E+10	1
4901784	103	C	04/30/2018	10:41	-132.339	43.363	0	120.80	0	7.8870	0	33.1660	4	25.852	0	119.802	0	242.4	4	83.2	4	-1E+10	1	-1E+10	1	-1E+10	1	-1E+10	1	-1E+10	1	-1E+10	1
4901784	103	C	04/30/2018	10:41	-132.339	43.363	0	122.60	0	7.8920	0	33.1800	4	25.862	0	121.587	0	240.8	4	82.6	4	-1E+10	1	-1E+10	1	-1E+10	1	-1E+10	1	-1E+10	1	-1E+10	1
4901784	103	C	04/30/2018	10:41	-132.339	43.363	0	124.80	0	7.8890	0	33.2000	4	25.879	0	123.768	0	238.1	4	81.7	4	-1E+10	1	-1E+10	1	-1E+10	1	-1E+10	1	-1E+10	1	-1E+10	1
4901784	103	C	04/30/2018	10:41	-132.339	43.363	0	127.80	0	7.9610	0	33.2980	4	25.945	0	126.743	0	233.5	4	80.3	4	-1E+10	1	-1E+10	1	-1E+10	1	-1E+10	1	-1E+10	1	-1E+10	1
4901784	103	C	04/30/2018	10:41	-132.339	43.363	0	130.00	0	7.9900	0	33.3310	4	25.967	0	128.924	0	229.8	4	79.1	4	-1E+10	1	-1E+10	1	-1E+10	1	-1E+10	1	-1E+10	1	-1E+10	1
4901784	103	C	04/30/2018	10:41	-132.339	43.363	0	132.40	0	8.0490	0	33.3940	4	26.008	0	131.303	0	224.8	4	77.5	4	-1E+10	1	-1E+10	1	-1E+10	1	-1E+10	1	-1E+10	1	-1E+10	1
4901784	103	C	04/30/2018	10:41	-132.339	43.363	0	134.80	0	8.1300	0	33.4840	4	26.066	0	133.682	0	219.2	4	75.8	4	-1E+10	1	-1E+10	1	-1E+10	1	-1E+10	1	-1E+10	1	-1E+10	1
4901784	103	C	04/30/2018	10:41	-132.339	43.363	0	137.20	0	8.2090	0	33.5690	4	26.121	0	136.062	0	214.1	4	74.2	4	-1E+10	1	-1E+10	1	-1E+10	1	-1E+10	1	-1E+10	1	-1E+10	1
4901784	103	C	04/30/2018	10:41	-132.339	43.363	0	139.60	0	8.2670	0	33.6330	4	26.163	0	138.441	0	209.7	4	72.8	4	-1E+10	1	-1E+10	1	-1E+10	1	-1E+10	1	-1E+10	1	-1E+10	1
4901784	103	C	04/30/2018	10:41	-132.339	43.363	0	142.10	0	8.3520	0	33.7220	4	26.220	0	140.919	0	206.0	4	71.7	4	-1E+10	1	-1E+10	1	-1E+10	1	-1E+10	1	-1E+10	1	-1E+10	1
4901784	103	C	04/30/2018	10:41	-132.339	43.363	0	145.30	0	8.4240	0	33.7980	4	26.269	0	144.092	0	201.2	4	70.2	4	-1E+10	1	-1E+10	1	-1E+10	1	-1E+10	1	-1E+10	1	-1E+10	1
4901784	103	C	04/30/2018	10:41	-132.339	43.363	0	147.90	0	8.4960	0	33.8770	4	26.320	0	146.669	0	197.8	4	69.1	4	-1E+10	1	-1E+10	1	-1E+10	1	-1E+10	1	-1E+10	1	-1E+10	1
4901784	103	C	04/30/2018	10:41	-132.339	43.363	0	149.70	0	8.5390	0	33.9330	4	26.357	0	148.453	0	195.7	4	68.5	4	-1E+10	1	-1E+10	1	-1E+10	1	-1E+10	1	-1E+10	1	-1E+10	1
4901784	103	C	04/30/2018	10:41	-132.339	43.363	0	152.40	0	8.5540	0	33.9540	4	26.371	0	151.130	0	193.5	4	67.8	4	-1E+10	1	-1E+10	1	-1E+10	1	-1E+10	1	-1E+10	1	-1E+10	1
4901784	103	C	04/30/2018	10:41	-132.339	43.363	0	155.10	0	8.5690	0	33.9810	4	26.390	0	153.806	0	191.1	4	67.0	4	-1E+10	1	-1E+10	1	-1E+10	1	-1E+10	1	-1E+10	1	-1E+10	1
4901784	103	C	04/30/2018	10:41	-132.339	43.363	0	157.00	0	8.5710	0	33.9870	4	26.395	0	155.690	0	189.6	4	66.4	4	-1E+10	1	-1E+10	1	-1E+10	1	-1E+10	1	-1E+10	1	-1E+10	1
4901784	103	C	04/30/2018	10:41	-132.339	43.363	0	159.80	0	8.5750	0	34.0100	4	26.412	0	158.465	0	187.0	4	65.5	4	-1E+10	1	-1E+10	1	-1E+10	1	-1E+10	1	-1E+10	1	-1E+10	1
4901784	103	C	04/30/2018	10:41	-132.339	43.363	0	162.70	0	8.5700	0	34.0270	4	26.426	0	161.340	0	184.8	4	64.8	4	-1E+10	1	-1E+10	1	-1E+10	1	-1E+10	1	-1E+10	1	-1E+10	1
4901784	103	C	04/30/2018	10:41	-132.339	43.363	0	164.50	0	8.5470	0	34.0430	4	26.443	0	163.124	0	183.4	4	64.3	4	-1E+10	1	-1E+10	1	-1E+10	1	-1E+10	1	-1E+10	1	-1E+10	1
4901784	103	C	04/30/2018	10:41	-132.339	43.363	0	167.30	0	8.5280	0	34.0520	4	26.453	0	165.900	0	182.1	4	63.8	4	-1E+10	1	-1E+10	1	-1E+10	1	-1E+10	1	-1E+10	1	-1E+10	1
4901784	103	C	04/30/2018	10:41	-132.339	43.363	0	170.10	0	8.5180	0	34.0540	4	26.456	0	168.675	0	180.8	4	63.3	4	-1E+10	1	-1E+10	1	-1E+10	1	-1E+10	1	-1E+10	1	-1E+10	1
4901784	103	C	04/30/2018	10:41	-132.339	43.363	0	171.90	0	8.5020	0	34.0580	4	26.461	0	170.459	0	179.8	4	62.9	4	-1E+10	1	-1E+10	1	-1E+10	1	-1E+10	1	-1E+10	1	-1E+10	1
4901784	103	C	04/30/2018	10:41	-132.339	43.363	0	174.70	0	8.4750	0	34.0610	4	26.468	0	173.235	0	178.1	4	62.3	4	-1E+10	1	-1E+10	1	-1E+10	1	-1E+10	1	-1E+10	1	-1E+10	1
4901784	103	C	04/30/2018	10:41	-132.339	43.363	0	177.60	0	8.3990	0	34.0720	4	26.488	0	176.109	0	176.0	4	61.5	4	-1E+10	1	-1E+10	1	-1E+10	1	-1E+10	1	-1E+10	1	-1E+10	1
4901784	103	C	04/30/2018	10:41	-132.339	43.363	0	179.50	0	8.3820	0	34.0680	4	26.488	0	177.992	0	175.2	4	61.2	4	-1E+10	1	-1E+10	1	-1E+10	1	-1E+10	1	-1E+10	1	-1E+10	1
4901784	103	C	04/30/2018	10:41	-132.339	43.363	0	182.30	0	8.3060	0	34.0710	4	26.501	0	180.768	0	173.6	4	60.5	4	-1E+10	1	-1E+10	1	-1E+10	1	-1E+10	1	-1E+10	1	-1E+10	1
4901784	103	C	04/30/2018	10:41	-132.339	43.363	0	185.10	0	8.2370	0	34.0700	4	26.511	0	183.543	0	172.6	4	60.1	4	-1E+10	1	-1E+10	1	-1E+10	1	-1E+10	1	-1E+10	1	-1E+10	1
4901784	103	C	04/30/2018	10:41	-132.339	43.363	0	186.90	0	8.2000	0	34.0710	4	26.518	0	185.327	0	171.4	4	59.6	4	-1E+10	1	-1E+10	1	-1E+10	1	-1E+10	1	-1E+10	1	-1E+10	1
4901784	103	C	04/30/2018	10:41	-132.339	43.363	0	189.80	0	8.1300	0	34.0700	4	26.527	0	188.201	0	170.1	4	59.0	4	-1E+10	1	-1E+10	1	-1E+10	1	-1E+10	1	-1E+10	1	-1E+10	1
4901784	103	C	04/30/2018	10:41	-132.339	43.363	0	192.70	0	8.0780	0	34.0690	4	26.534	0	191.075	0	168.7	4	58.5	4	-1E+10	1	-1E+10	1	-1E+10	1	-1E+10	1	-1E+10	1	-1E+10	1
4901784	103	C	04/30/2018	10:41	-132.339	43.363	0	194.70	0	8.0510	0	34.0680	4	26.537	0	193.058	0	167.6	4	58.1	4	-1E+10	1	-1E+10	1	-1E+10	1	-1E+10	1	-1E+10	1	-1E+10	1
4901784	103	C	04/30/2018	10:41	-132.339	43.363	0	197.50	0	7.9670	0	34.0680	4	26.550	0	195.833	0	166.1	4	57.5	4	-1E+10	1	-1E+10	1	-1E+10	1	-1E+10	1	-1E+10	1	-1E+10	1
4901784	103	C	04/30/2018	10:41	-132.339	43.363	0	200.40	0	7.9170	0	34.0650	4	26.555	0	198.707	0	164.8	4	57.0	4	-1E+10	1	-1E+10	1	-1E+10	1	-1E+10	1	-1E+10	1	-1E+10	1
4901784	103	C	04/30/2018	10:41	-132.339	43.363	0	202.30	0	7.8740	0	34.0650	4	26.561	0	200.590	0	163.9	4	56.6	4	-1E+10	1	-1E+10	1	-1E+10	1	-1E+10	1	-1E+10	1	-1E+10	1
4901784	103	C	04/30/2018	10:41	-132.339	43.363	0	204.20	0	7.8300	0	34.0640	4	26.567	0	202.473	0	163.3	4	56.3	4	-1E+10	1	-1E+10	1	-1E+10	1	-1E+10	1	-1E+10	1	-1E+10	1
4901784	103	C	04/30/2018	10:41	-132.339	43.363	0	207.40	0	7.8000	0	34.0610	4	26.569	0	205.644	0	161.7	4	55.7	4	-1E+10	1	-1E+10	1	-1E+10	1	-1E+10	1	-1E+10	1	-1E+10	1
4901784	103	C	04/30/2018	10:41	-132.339	43.363	0	210.20	0	7.7560	0	34.0590	4	26.574	0	208.419	0	159.7	4	55.0	4	-1E+10	1	-1E+10	1	-1E+10	1	-1E+10	1	-1E+10	1	-1E+10	1
4901784	103	C	04/30/2018	10:41	-132.339	43.363	0	212.60	0	7.7020	0	34.0580	4	26.581	0	210.798	0	158.0	4	54.3	4	-1E+10	1	-1E+10	1	-1E+10	1	-1E+10	1	-1E+10	1	-1E+10	1
4901784	103	C	04/30/2018	10:41	-132.339	43.363	0	214.90	0	7.6620	0	34.0580	4	26.587	0	213.077	0	156.3	4	53.7	4	-1E+10	1	-1E+10	1	-1E+10	1	-1E+10	1	-1E+10	1	-1E+10	1
4901784	103	C	04/30/2018	10:41	-132.339	43.363	0	217.20	0	7.6230	0	34.0550	4	26.590	0	215.356	0	154.7	4	53.1	4	-1E+10	1	-1E+10	1	-1E+10	1	-1E+10	1	-1E+10	1	-1E+10	1
4901784	103	C	04/30/2018	10:41	-132.339	43.363	0	220.40	0	7.5920	0	34.0510	4	26.591	0	218.527	0	151.4	4	51.9	4	-1E+10	1	-1E+10	1	-1E+10	1	-1E+10	1	-1E+10	1	-1E+10	1
4901784	103	C	04/30/2018	10:41	-132.339	43.363	0	222.80	0	7.5610	0	34.0480	4	26.593	0	220.906	0	148.0	4	50.7	4	-1E+10	1	-1E+10	1	-1E+10	1	-1E+10	1	-1E+10	1	-1E+10	1
4901784	103	C	04/30/2018	10:41	-132.339	43.363	0	225.20	0	7.4510	0	34.0390	4	26.602	0	223.284	0	144.4	4	49.4	4	-1E+10	1	-1E+10	1	-1E+10	1	-1E+10	1	-1E+10	1	-1E+10	1
4901784	103	C	04/30/2018	10:41	-132.339	43.363	0	227.60	0	7.3470	0	34.0350	4	26.614	0	225.662	0	142.2	4	48.5	4	-1E+10	1	-1E+10	1	-1E+10	1	-1E+10	1	-1E+10	1	-1E+10	1
4901784	103	C	04/30/2018	10:41	-132.339	43.363	0	230.30	0	7.2600	0	34.0350	4	26.626	0	228.338	0	139.4	4	47.5	4	-1E+10	1	-1E+10	1	-1E+10	1	-1E+10	1	-1E+10	1	-1E+10	1
4901784	103	C	04/30/2018	10:41	-132.339	43.363	0	232.90	0	7.2030	0	34.0310	4	26.631	0	230.914	0	136.2	4	46.3	4	-1E+10	1	-1E+10	1	-1E+10	1	-1E+10	1	-1E+10	1	-1E+10	1
4901784	103	C	04/30/2018	10:41	-132.339	43.363	0	234.70	0	7.1370	0	34.0280	4	26.637	0	232.698	0	134.6	4	45.7	4	-1E+10	1	-1E+10	1	-1E+10	1	-1E+10	1	-1E+10	1	-1E+10	1
4901784	103	C	04/30/2018	10:41	-132.339	43.363	0	237.30	0	7.0440	0	34.0260	4	26.649	0	235.274	0	134.1	4	45.4	4	-1E+10	1	-1E+10	1	-1E+10	1	-1E+10	1	-1E+10	1	-1E+10	1
4901784	103	C	04/30/2018	10:41	-132.339	43.363	0	239.90	0	6.9680	0	34.0270	4	26.660	0	237.850	0	134.7	4	45.5	4	-1E+10	1	-1E+10	1	-1E+10	1	-1E+10	1	-1E+10	1	-1E+10	1
4901784	103	C	04/30/2018	10:41	-132.339	43.363	0	242.50	0	6.9140	0	34.0310	4	26.670	0	240.427	0	134.4	4	45.4	4	-1E+10	1	-1E+10	1	-1E+10	1	-1E+10	1	-1E+10	1	-1E+10	1
4901784	103	C	04/30/2018	10:41	-132.339	43.363	0	245.20	0	6.8840	0	34.0300	4	26.674	0	243.102	0	133.0	4	44.9	4	-1E+10	1	-1E+10	1	-1E+10	1	-1E+10	1	-1E+10	1	-1E+10	1
4901784	103	C	04/30/2018	10:41	-132.339	43.363	0	247.00	0	6.8630	0	34.0310	4	26.677	0	244.886	0	131.6	4	44.4	4	-1E+10	1	-1E+10	1	-1E+10	1	-1E+10	1	-1E+10	1	-1E+10	1
4901784	103	C	04/30/2018	10:41	-132.339	43.363	0	249.70	0	6.7600	0	34.0290	4	26.690	0	247.561	0	129.7	4	43.6	4	-1E+10	1	-1E+10	1	-1E+10	1	-1E+10	1	-1E+10	1	-1E+10	1
4901784	103	C	04/30/2018	10:41	-132.339	43.363	0	252.40	0	6.7040	0	34.0280	4	26.696	0	250.236	0	128.3	4	43.1	4	-1E+10	1	-1E+10	1	-1E+10	1	-1E+10	1	-1E+10	1	-1E+10	1
4901784	103	C	04/30/2018	10:41	-132.339	43.363	0	255.20	0	6.6900	0	34.0260	4	26.697	0	253.010	0	126.4	4	42.5	4	-1E+10	1	-1E+10	1	-1E+10	1	-1E+10	1	-1E+10	1	-1E+10	1
4901784	103	C	04/30/2018	10:41	-132.339	43.363	0	257.90	0	6.6260	0	34.0260	4	26.705	0	255.686	0	123.7	4	41.5	4	-1E+10	1	-1E+10	1	-1E+10	1	-1E+10	1	-1E+10	1	-1E+10	1
4901784	103	C	04/30/2018	10:41	-132.339	43.363	0	259.70	0	6.5590	0	34.0260	4	26.714	0	257.469	0	123.5	4	41.4	4	-1E+10	1	-1E+10	1	-1E+10	1	-1E+10	1	-1E+10	1	-1E+10	1
4901784	103	C	04/30/2018	10:41	-132.339	43.363	0	262.50	0	6.5200	0	34.0270	4	26.720	0	260.243	0	123.5	4	41.3	4	-1E+10	1	-1E+10	1	-1E+10	1	-1E+10	1	-1E+10	1	-1E+10	1
4901784	103	C	04/30/2018	10:41	-132.339	43.363	0	265.40	0	6.5050	0	34.0280	4	26.723	0	263.116	0	123.6	4	41.4	4	-1E+10	1	-1E+10	1	-1E+10	1	-1E+10	1	-1E+10	1	-1E+10	1
4901784	103	C	04/30/2018	10:41	-132.339	43.363	0	267.20	0	6.5010	0	34.0270	4	26.723	0	264.900	0	123.7	4	41.4	4	-1E+10	1	-1E+10	1	-1E+10	1	-1E+10	1	-1E+10	1	-1E+10	1
4901784	103	C	04/30/2018	10:41	-132.339	43.363	0	270.10	0	6.4950	0	34.0280	4	26.724	0	267.773	0	123.7	4	41.4	4	-1E+10	1	-1E+10	1	-1E+10	1	-1E+10	1	-1E+10	1	-1E+10	1
4901784	103	C	04/30/2018	10:41	-132.339	43.363	0	273.00	0	6.4890	0	34.0270	4	26.724	0	270.646	0	123.4	4	41.3	4	-1E+10	1	-1E+10	1	-1E+10	1	-1E+10	1	-1E+10	1	-1E+10	1
4901784	103	C	04/30/2018	10:41	-132.339	43.363	0	274.90	0	6.4880	0	34.0260	4	26.724	0	272.528	0	123.0	4	41.1	4	-1E+10	1	-1E+10	1	-1E+10	1	-1E+10	1	-1E+10	1	-1E+10	1
4901784	103	C	04/30/2018	10:41	-132.339	43.363	0	277.80	0	6.4720	0	34.0240	4	26.724	0	275.401	0	121.9	4	40.8	4	-1E+10	1	-1E+10	1	-1E+10	1	-1E+10	1	-1E+10	1	-1E+10	1
4901784	103	C	04/30/2018	10:41	-132.339	43.363	0	280.60	0	6.3820	0	34.0260	4	26.738	0	278.175	0	120.7	4	40.3	4	-1E+10	1	-1E+10	1	-1E+10	1	-1E+10	1	-1E+10	1	-1E+10	1
4901784	103	C	04/30/2018	10:41	-132.339	43.363	0	282.60	0	6.3560	0	34.0250	4	26.740	0	280.157	0	119.8	4	40.0	4	-1E+10	1	-1E+10	1	-1E+10	1	-1E+10	1	-1E+10	1	-1E+10	1
4901784	103	C	04/30/2018	10:41	-132.339	43.363	0	284.50	0	6.3300	0	34.0250	4	26.743	0	282.039	0	119.0	4	39.6	4	-1E+10	1	-1E+10	1	-1E+10	1	-1E+10	1	-1E+10	1	-1E+10	1
4901784	103	C	04/30/2018	10:41	-132.339	43.363	0	287.40	0	6.2840	0	34.0240	4	26.749	0	284.912	0	118.0	4	39.3	4	-1E+10	1	-1E+10	1	-1E+10	1	-1E+10	1	-1E+10	1	-1E+10	1
4901784	103	C	04/30/2018	10:41	-132.339	43.363	0	290.20	0	6.2520	0	34.0240	4	26.753	0	287.686	0	116.8	4	38.9	4	-1E+10	1	-1E+10	1	-1E+10	1	-1E+10	1	-1E+10	1	-1E+10	1
4901784	103	C	04/30/2018	10:41	-132.339	43.363	0	292.10	0	6.2410	0	34.0230	4	26.753	0	289.568	0	115.8	4	38.5	4	-1E+10	1	-1E+10	1	-1E+10	1	-1E+10	1	-1E+10	1	-1E+10	1
4901784	103	C	04/30/2018	10:41	-132.339	43.363	0	294.80	0	6.2130	0	34.0220	4	26.756	0	292.243	0	114.0	4	37.9	4	-1E+10	1	-1E+10	1	-1E+10	1	-1E+10	1	-1E+10	1	-1E+10	1
4901784	103	C	04/30/2018	10:41	-132.339	43.363	0	297.60	0	6.1880	0	34.0220	4	26.759	0	295.016	0	112.0	4	37.2	4	-1E+10	1	-1E+10	1	-1E+10	1	-1E+10	1	-1E+10	1	-1E+10	1
4901784	103	C	04/30/2018	10:41	-132.339	43.363	0	299.50	0	6.1760	0	34.0220	4	26.761	0	296.899	0	110.2	4	36.6	4	-1E+10	1	-1E+10	1	-1E+10	1	-1E+10	1	-1E+10	1	-1E+10	1
4901784	103	C	04/30/2018	10:41	-132.339	43.363	0	302.40	0	6.1250	0	34.0230	4	26.768	0	299.771	0	107.5	4	35.7	4	-1E+10	1	-1E+10	1	-1E+10	1	-1E+10	1	-1E+10	1	-1E+10	1
4901784	103	C	04/30/2018	10:41	-132.339	43.363	0	305.20	0	6.0860	0	34.0250	4	26.775	0	302.545	0	105.4	4	34.9	4	-1E+10	1	-1E+10	1	-1E+10	1	-1E+10	1	-1E+10	1	-1E+10	1
4901784	103	C	04/30/2018	10:41	-132.339	43.363	0	307.00	0	6.0550	0	34.0240	4	26.778	0	304.328	0	105.2	4	34.8	4	-1E+10	1	-1E+10	1	-1E+10	1	-1E+10	1	-1E+10	1	-1E+10	1
4901784	103	C	04/30/2018	10:41	-132.339	43.363	0	309.80	0	6.0450	0	34.0240	4	26.779	0	307.101	0	104.8	4	34.7	4	-1E+10	1	-1E+10	1	-1E+10	1	-1E+10	1	-1E+10	1	-1E+10	1
4901784	103	C	04/30/2018	10:41	-132.339	43.363	0	312.60	0	6.0220	0	34.0240	4	26.782	0	309.875	0	104.5	4	34.6	4	-1E+10	1	-1E+10	1	-1E+10	1	-1E+10	1	-1E+10	1	-1E+10	1
4901784	103	C	04/30/2018	10:41	-132.339	43.363	0	314.50	0	6.0080	0	34.0210	4	26.782	0	311.757	0	104.5	4	34.6	4	-1E+10	1	-1E+10	1	-1E+10	1	-1E+10	1	-1E+10	1	-1E+10	1
4901784	103	C	04/30/2018	10:41	-132.339	43.363	0	317.30	0	5.9640	0	34.0200	4	26.786	0	314.530	0	104.2	4	34.4	4	-1E+10	1	-1E+10	1	-1E+10	1	-1E+10	1	-1E+10	1	-1E+10	1
4901784	103	C	04/30/2018	10:41	-132.339	43.363	0	320.20	0	5.8890	0	34.0220	4	26.797	0	317.403	0	104.8	4	34.6	4	-1E+10	1	-1E+10	1	-1E+10	1	-1E+10	1	-1E+10	1	-1E+10	1
4901784	103	C	04/30/2018	10:41	-132.339	43.363	0	322.00	0	5.8500	0	34.0170	4	26.798	0	319.186	0	105.5	4	34.8	4	-1E+10	1	-1E+10	1	-1E+10	1	-1E+10	1	-1E+10	1	-1E+10	1
4901784	103	C	04/30/2018	10:41	-132.339	43.363	0	324.90	0	5.7650	0	34.0170	4	26.809	0	322.058	0	105.4	4	34.7	4	-1E+10	1	-1E+10	1	-1E+10	1	-1E+10	1	-1E+10	1	-1E+10	1
4901784	103	C	04/30/2018	10:41	-132.339	43.363	0	327.20	0	5.7360	0	34.0170	4	26.812	0	324.336	0	104.4	4	34.3	4	-1E+10	1	-1E+10	1	-1E+10	1	-1E+10	1	-1E+10	1	-1E+10	1
4901784	103	C	04/30/2018	10:41	-132.339	43.363	0	330.40	0	5.6810	0	34.0180	4	26.820	0	327.506	0	102.6	4	33.7	4	-1E+10	1	-1E+10	1	-1E+10	1	-1E+10	1	-1E+10	1	-1E+10	1
4901784	103	C	04/30/2018	10:41	-132.339	43.363	0	332.70	0	5.6500	0	34.0190	4	26.824	0	329.784	0	101.4	4	33.2	4	-1E+10	1	-1E+10	1	-1E+10	1	-1E+10	1	-1E+10	1	-1E+10	1
4901784	103	C	04/30/2018	10:41	-132.339	43.363	0	335.10	0	5.6430	0	34.0200	4	26.826	0	332.161	0	100.0	4	32.8	4	-1E+10	1	-1E+10	1	-1E+10	1	-1E+10	1	-1E+10	1	-1E+10	1
4901784	103	C	04/30/2018	10:41	-132.339	43.363	0	337.50	0	5.6270	0	34.0210	4	26.829	0	334.538	0	98.7	4	32.4	4	-1E+10	1	-1E+10	1	-1E+10	1	-1E+10	1	-1E+10	1	-1E+10	1
4901784	103	C	04/30/2018	10:41	-132.339	43.363	0	339.90	0	5.6030	0	34.0220	4	26.832	0	336.915	0	97.2	4	31.8	4	-1E+10	1	-1E+10	1	-1E+10	1	-1E+10	1	-1E+10	1	-1E+10	1
4901784	103	C	04/30/2018	10:41	-132.339	43.363	0	342.30	0	5.5620	0	34.0230	4	26.838	0	339.292	0	96.2	4	31.5	4	-1E+10	1	-1E+10	1	-1E+10	1	-1E+10	1	-1E+10	1	-1E+10	1
4901784	103	C	04/30/2018	10:41	-132.339	43.363	0	344.80	0	5.5370	0	34.0250	4	26.843	0	341.768	0	95.1	4	31.1	4	-1E+10	1	-1E+10	1	-1E+10	1	-1E+10	1	-1E+10	1	-1E+10	1
4901784	103	C	04/30/2018	10:41	-132.339	43.363	0	347.20	0	5.5340	0	34.0260	4	26.844	0	344.145	0	94.1	4	30.8	4	-1E+10	1	-1E+10	1	-1E+10	1	-1E+10	1	-1E+10	1	-1E+10	1
4901784	103	C	04/30/2018	10:41	-132.339	43.363	0	349.60	0	5.5360	0	34.0270	4	26.845	0	346.521	0	93.3	4	30.5	4	-1E+10	1	-1E+10	1	-1E+10	1	-1E+10	1	-1E+10	1	-1E+10	1
4901784	103	C	04/30/2018	10:41	-132.339	43.363	0	352.80	0	5.5080	0	34.0270	4	26.848	0	349.691	0	91.9	4	30.0	4	-1E+10	1	-1E+10	1	-1E+10	1	-1E+10	1	-1E+10	1	-1E+10	1
4901784	103	C	04/30/2018	10:41	-132.339	43.363	0	355.30	0	5.4870	0	34.0270	4	26.850	0	352.166	0	90.9	4	29.7	4	-1E+10	1	-1E+10	1	-1E+10	1	-1E+10	1	-1E+10	1	-1E+10	1
4901784	103	C	04/30/2018	10:41	-132.339	43.363	0	357.70	0	5.4640	0	34.0290	4	26.855	0	354.543	0	89.5	4	29.2	4	-1E+10	1	-1E+10	1	-1E+10	1	-1E+10	1	-1E+10	1	-1E+10	1
4901784	103	C	04/30/2018	10:41	-132.339	43.363	0	360.20	0	5.4330	0	34.0290	4	26.858	0	357.019	0	88.3	4	28.8	4	-1E+10	1	-1E+10	1	-1E+10	1	-1E+10	1	-1E+10	1	-1E+10	1
4901784	103	C	04/30/2018	10:41	-132.339	43.363	0	362.60	0	5.4180	0	34.0320	4	26.863	0	359.396	0	87.1	4	28.4	4	-1E+10	1	-1E+10	1	-1E+10	1	-1E+10	1	-1E+10	1	-1E+10	1
4901784	103	C	04/30/2018	10:41	-132.339	43.363	0	365.00	0	5.3910	0	34.0320	4	26.866	0	361.772	0	86.0	4	28.0	4	-1E+10	1	-1E+10	1	-1E+10	1	-1E+10	1	-1E+10	1	-1E+10	1
4901784	103	C	04/30/2018	10:41	-132.339	43.363	0	367.50	0	5.3770	0	34.0320	4	26.868	0	364.248	0	84.4	4	27.5	4	-1E+10	1	-1E+10	1	-1E+10	1	-1E+10	1	-1E+10	1	-1E+10	1
4901784	103	C	04/30/2018	10:41	-132.339	43.363	0	369.90	0	5.3620	0	34.0330	4	26.870	0	366.625	0	82.5	4	26.9	4	-1E+10	1	-1E+10	1	-1E+10	1	-1E+10	1	-1E+10	1	-1E+10	1
4901784	103	C	04/30/2018	10:41	-132.339	43.363	0	372.40	0	5.3520	0	34.0370	4	26.875	0	369.100	0	81.0	4	26.4	4	-1E+10	1	-1E+10	1	-1E+10	1	-1E+10	1	-1E+10	1	-1E+10	1
4901784	103	C	04/30/2018	10:41	-132.339	43.363	0	374.90	0	5.3270	0	34.0350	4	26.876	0	371.576	0	79.5	4	25.9	4	-1E+10	1	-1E+10	1	-1E+10	1	-1E+10	1	-1E+10	1	-1E+10	1
4901784	103	C	04/30/2018	10:41	-132.339	43.363	0	377.40	0	5.2940	0	34.0400	4	26.884	0	374.052	0	77.0	4	25.1	4	-1E+10	1	-1E+10	1	-1E+10	1	-1E+10	1	-1E+10	1	-1E+10	1
4901784	103	C	04/30/2018	10:41	-132.339	43.363	0	379.90	0	5.2890	0	34.0470	4	26.890	0	376.527	0	74.6	4	24.3	4	-1E+10	1	-1E+10	1	-1E+10	1	-1E+10	1	-1E+10	1	-1E+10	1
4901784	103	C	04/30/2018	10:41	-132.339	43.363	0	382.50	0	5.2640	0	34.0330	4	26.882	0	379.102	0	73.5	4	23.9	4	-1E+10	1	-1E+10	1	-1E+10	1	-1E+10	1	-1E+10	1	-1E+10	1
4901784	103	C	04/30/2018	10:41	-132.339	43.363	0	385.00	0	5.2560	0	34.0520	4	26.898	0	381.577	0	72.0	4	23.4	4	-1E+10	1	-1E+10	1	-1E+10	1	-1E+10	1	-1E+10	1	-1E+10	1
4901784	103	C	04/30/2018	10:41	-132.339	43.363	0	387.70	0	5.2460	0	34.0580	4	26.904	0	384.251	0	70.9	4	23.1	4	-1E+10	1	-1E+10	1	-1E+10	1	-1E+10	1	-1E+10	1	-1E+10	1
4901784	103	C	04/30/2018	10:41	-132.339	43.363	0	390.30	0	5.2300	0	34.0600	4	26.907	0	386.825	0	70.5	4	22.9	4	-1E+10	1	-1E+10	1	-1E+10	1	-1E+10	1	-1E+10	1	-1E+10	1
4901784	103	C	04/30/2018	10:41	-132.339	43.363	0	392.00	0	5.2230	0	34.0610	4	26.909	0	388.508	0	70.4	4	22.9	4	-1E+10	1	-1E+10	1	-1E+10	1	-1E+10	1	-1E+10	1	-1E+10	1
4901784	103	C	04/30/2018	10:41	-132.339	43.363	0	394.70	0	5.2180	0	34.0600	4	26.909	0	391.182	0	70.2	4	22.8	4	-1E+10	1	-1E+10	1	-1E+10	1	-1E+10	1	-1E+10	1	-1E+10	1
4901784	103	C	04/30/2018	10:41	-132.339	43.363	0	397.20	0	5.2120	0	34.0590	4	26.909	0	393.657	0	69.9	4	22.7	4	-1E+10	1	-1E+10	1	-1E+10	1	-1E+10	1	-1E+10	1	-1E+10	1
4901784	103	C	04/30/2018	10:41	-132.339	43.363	0	399.80	0	5.1840	0	34.0580	4	26.911	0	396.231	0	69.5	4	22.5	4	-1E+10	1	-1E+10	1	-1E+10	1	-1E+10	1	-1E+10	1	-1E+10	1
4901784	103	C	04/30/2018	10:41	-132.339	43.363	0	402.30	0	5.1330	0	34.0550	4	26.915	0	398.707	0	68.8	4	22.3	4	-1E+10	1	-1E+10	1	-1E+10	1	-1E+10	1	-1E+10	1	-1E+10	1
4901784	103	C	04/30/2018	10:41	-132.339	43.363	0	404.90	0	5.0800	0	34.0610	4	26.925	0	401.281	0	67.9	4	22.0	4	-1E+10	1	-1E+10	1	-1E+10	1	-1E+10	1	-1E+10	1	-1E+10	1
4901784	103	C	04/30/2018	10:41	-132.339	43.363	0	407.50	0	5.0570	0	34.0640	4	26.930	0	403.855	0	67.2	4	21.7	4	-1E+10	1	-1E+10	1	-1E+10	1	-1E+10	1	-1E+10	1	-1E+10	1
4901784	103	C	04/30/2018	10:41	-132.339	43.363	0	410.20	0	5.0320	0	34.0650	4	26.934	0	406.528	0	66.5	4	21.5	4	-1E+10	1	-1E+10	1	-1E+10	1	-1E+10	1	-1E+10	1	-1E+10	1
4901784	103	C	04/30/2018	10:41	-132.339	43.363	0	412.90	0	5.0010	0	34.0670	4	26.939	0	409.202	0	65.7	4	21.2	4	-1E+10	1	-1E+10	1	-1E+10	1	-1E+10	1	-1E+10	1	-1E+10	1
4901784	103	C	04/30/2018	10:41	-132.339	43.363	0	414.70	0	4.9940	0	34.0690	4	26.942	0	410.984	0	65.2	4	21.0	4	-1E+10	1	-1E+10	1	-1E+10	1	-1E+10	1	-1E+10	1	-1E+10	1
4901784	103	C	04/30/2018	10:41	-132.339	43.363	0	417.40	0	4.9820	0	34.0710	4	26.945	0	413.657	0	64.5	4	20.8	4	-1E+10	1	-1E+10	1	-1E+10	1	-1E+10	1	-1E+10	1	-1E+10	1
4901784	103	C	04/30/2018	10:41	-132.339	43.363	0	420.10	0	4.9720	0	34.0720	4	26.947	0	416.330	0	64.1	4	20.7	4	-1E+10	1	-1E+10	1	-1E+10	1	-1E+10	1	-1E+10	1	-1E+10	1
4901784	103	C	04/30/2018	10:41	-132.339	43.363	0	422.80	0	4.9680	0	34.0720	4	26.947	0	419.003	0	63.6	4	20.5	4	-1E+10	1	-1E+10	1	-1E+10	1	-1E+10	1	-1E+10	1	-1E+10	1
4901784	103	C	04/30/2018	10:41	-132.339	43.363	0	425.50	0	4.9640	0	34.0710	4	26.947	0	421.676	0	62.9	4	20.3	4	-1E+10	1	-1E+10	1	-1E+10	1	-1E+10	1	-1E+10	1	-1E+10	1
4901784	103	C	04/30/2018	10:41	-132.339	43.363	0	427.40	0	4.9310	0	34.0760	4	26.954	0	423.557	0	62.3	4	20.1	4	-1E+10	1	-1E+10	1	-1E+10	1	-1E+10	1	-1E+10	1	-1E+10	1
4901784	103	C	04/30/2018	10:41	-132.339	43.363	0	430.10	0	4.9210	0	34.0770	4	26.956	0	426.230	0	61.9	4	20.0	4	-1E+10	1	-1E+10	1	-1E+10	1	-1E+10	1	-1E+10	1	-1E+10	1
4901784	103	C	04/30/2018	10:41	-132.339	43.363	0	432.90	0	4.9190	0	34.0770	4	26.957	0	429.002	0	61.5	4	19.8	4	-1E+10	1	-1E+10	1	-1E+10	1	-1E+10	1	-1E+10	1	-1E+10	1
4901784	103	C	04/30/2018	10:41	-132.339	43.363	0	434.70	0	4.9150	0	34.0780	4	26.958	0	430.784	0	61.1	4	19.7	4	-1E+10	1	-1E+10	1	-1E+10	1	-1E+10	1	-1E+10	1	-1E+10	1
4901784	103	C	04/30/2018	10:41	-132.339	43.363	0	437.40	0	4.8950	0	34.0820	4	26.963	0	433.457	0	60.6	4	19.5	4	-1E+10	1	-1E+10	1	-1E+10	1	-1E+10	1	-1E+10	1	-1E+10	1
4901784	103	C	04/30/2018	10:41	-132.339	43.363	0	440.20	0	4.8900	0	34.0820	4	26.964	0	436.228	0	60.1	4	19.4	4	-1E+10	1	-1E+10	1	-1E+10	1	-1E+10	1	-1E+10	1	-1E+10	1
4901784	103	C	04/30/2018	10:41	-132.339	43.363	0	442.00	0	4.8860	0	34.0830	4	26.965	0	438.010	0	59.7	4	19.2	4	-1E+10	1	-1E+10	1	-1E+10	1	-1E+10	1	-1E+10	1	-1E+10	1
4901784	103	C	04/30/2018	10:41	-132.339	43.363	0	444.70	0	4.8800	0	34.0830	4	26.966	0	440.683	0	59.0	4	19.0	4	-1E+10	1	-1E+10	1	-1E+10	1	-1E+10	1	-1E+10	1	-1E+10	1
4901784	103	C	04/30/2018	10:41	-132.339	43.363	0	447.40	0	4.8710	0	34.0830	4	26.967	0	443.356	0	58.0	4	18.7	4	-1E+10	1	-1E+10	1	-1E+10	1	-1E+10	1	-1E+10	1	-1E+10	1
4901784	103	C	04/30/2018	10:41	-132.339	43.363	0	450.10	0	4.8560	0	34.0860	4	26.971	0	446.028	0	56.7	4	18.2	4	-1E+10	1	-1E+10	1	-1E+10	1	-1E+10	1	-1E+10	1	-1E+10	1
4901784	103	C	04/30/2018	10:41	-132.339	43.363	0	452.90	0	4.8410	0	34.0930	4	26.978	0	448.800	0	55.3	4	17.8	4	-1E+10	1	-1E+10	1	-1E+10	1	-1E+10	1	-1E+10	1	-1E+10	1
4901784	103	C	04/30/2018	10:41	-132.339	43.363	0	454.70	0	4.8300	0	34.0960	4	26.982	0	450.582	0	54.7	4	17.6	4	-1E+10	1	-1E+10	1	-1E+10	1	-1E+10	1	-1E+10	1	-1E+10	1
4901784	103	C	04/30/2018	10:41	-132.339	43.363	0	457.50	0	4.8150	0	34.1000	4	26.987	0	453.353	0	54.1	4	17.4	4	-1E+10	1	-1E+10	1	-1E+10	1	-1E+10	1	-1E+10	1	-1E+10	1
4901784	103	C	04/30/2018	10:41	-132.339	43.363	0	460.20	0	4.8080	0	34.1020	4	26.989	0	456.026	0	53.7	4	17.3	4	-1E+10	1	-1E+10	1	-1E+10	1	-1E+10	1	-1E+10	1	-1E+10	1
4901784	103	C	04/30/2018	10:41	-132.339	43.363	0	462.10	0	4.8070	0	34.1020	4	26.989	0	457.907	0	53.3	4	17.2	4	-1E+10	1	-1E+10	1	-1E+10	1	-1E+10	1	-1E+10	1	-1E+10	1
4901784	103	C	04/30/2018	10:41	-132.339	43.363	0	464.80	0	4.8010	0	34.1020	4	26.990	0	460.579	0	52.6	4	16.9	4	-1E+10	1	-1E+10	1	-1E+10	1	-1E+10	1	-1E+10	1	-1E+10	1
4901784	103	C	04/30/2018	10:41	-132.339	43.363	0	467.60	0	4.7880	0	34.1050	4	26.994	0	463.351	0	51.8	4	16.7	4	-1E+10	1	-1E+10	1	-1E+10	1	-1E+10	1	-1E+10	1	-1E+10	1
4901784	103	C	04/30/2018	10:41	-132.339	43.363	0	469.50	0	4.7730	0	34.1090	4	26.999	0	465.231	0	51.3	4	16.5	4	-1E+10	1	-1E+10	1	-1E+10	1	-1E+10	1	-1E+10	1	-1E+10	1
4901784	103	C	04/30/2018	10:41	-132.339	43.363	0	472.40	0	4.7630	0	34.1110	4	27.001	0	468.102	0	50.9	4	16.4	4	-1E+10	1	-1E+10	1	-1E+10	1	-1E+10	1	-1E+10	1	-1E+10	1
4901784	103	C	04/30/2018	10:41	-132.339	43.363	0	475.20	0	4.7600	0	34.1110	4	27.002	0	470.873	0	50.5	4	16.2	4	-1E+10	1	-1E+10	1	-1E+10	1	-1E+10	1	-1E+10	1	-1E+10	1
4901784	103	C	04/30/2018	10:41	-132.339	43.363	0	477.20	0	4.7500	0	34.1130	4	27.004	0	472.852	0	50.2	4	16.1	4	-1E+10	1	-1E+10	1	-1E+10	1	-1E+10	1	-1E+10	1	-1E+10	1
4901784	103	C	04/30/2018	10:41	-132.339	43.363	0	480.00	0	4.7460	0	34.1140	4	27.006	0	475.624	0	49.7	4	16.0	4	-1E+10	1	-1E+10	1	-1E+10	1	-1E+10	1	-1E+10	1	-1E+10	1
4901784	103	C	04/30/2018	10:41	-132.339	43.363	0	482.90	0	4.7350	0	34.1150	4	27.008	0	478.494	0	48.9	4	15.7	4	-1E+10	1	-1E+10	1	-1E+10	1	-1E+10	1	-1E+10	1	-1E+10	1
4901784	103	C	04/30/2018	10:41	-132.339	43.363	0	484.70	0	4.7100	0	34.1210	4	27.015	0	480.275	0	48.4	4	15.5	4	-1E+10	1	-1E+10	1	-1E+10	1	-1E+10	1	-1E+10	1	-1E+10	1
4901784	103	C	04/30/2018	10:41	-132.339	43.363	0	487.50	0	4.6990	0	34.1230	4	27.018	0	483.047	0	47.8	4	15.3	4	-1E+10	1	-1E+10	1	-1E+10	1	-1E+10	1	-1E+10	1	-1E+10	1
4901784	103	C	04/30/2018	10:41	-132.339	43.363	0	490.30	0	4.6780	0	34.1270	4	27.024	0	485.818	0	47.3	4	15.2	4	-1E+10	1	-1E+10	1	-1E+10	1	-1E+10	1	-1E+10	1	-1E+10	1
4901784	103	C	04/30/2018	10:41	-132.339	43.363	0	492.20	0	4.6740	0	34.1280	4	27.025	0	487.698	0	47.1	4	15.1	4	-1E+10	1	-1E+10	1	-1E+10	1	-1E+10	1	-1E+10	1	-1E+10	1
4901784	103	C	04/30/2018	10:41	-132.339	43.363	0	495.00	0	4.6720	0	34.1290	4	27.026	0	490.469	0	46.8	4	15.0	4	-1E+10	1	-1E+10	1	-1E+10	1	-1E+10	1	-1E+10	1	-1E+10	1
4901784	103	C	04/30/2018	10:41	-132.339	43.363	0	497.80	0	4.6710	0	34.1290	4	27.026	0	493.240	0	46.3	4	14.9	4	-1E+10	1	-1E+10	1	-1E+10	1	-1E+10	1	-1E+10	1	-1E+10	1
4901784	103	C	04/30/2018	10:41	-132.339	43.363	0	499.60	0	4.6690	0	34.1290	4	27.026	0	495.022	0	45.9	4	14.7	4	-1E+10	1	-1E+10	1	-1E+10	1	-1E+10	1	-1E+10	1	-1E+10	1
4901784	103	C	04/30/2018	10:41	-132.339	43.363	0	505.20	0	4.6460	0	34.1340	4	27.033	0	500.564	0	44.4	4	14.2	4	-1E+10	1	-1E+10	1	-1E+10	1	-1E+10	1	-1E+10	1	-1E+10	1
4901784	103	C	04/30/2018	10:41	-132.339	43.363	0	509.80	0	4.6240	0	34.1390	4	27.039	0	505.116	0	43.1	4	13.8	4	-1E+10	1	-1E+10	1	-1E+10	1	-1E+10	1	-1E+10	1	-1E+10	1
4901784	103	C	04/30/2018	10:41	-132.339	43.363	0	515.30	0	4.6100	0	34.1440	4	27.045	0	510.559	0	41.4	4	13.3	4	-1E+10	1	-1E+10	1	-1E+10	1	-1E+10	1	-1E+10	1	-1E+10	1
4901784	103	C	04/30/2018	10:41	-132.339	43.363	0	520.50	0	4.5910	0	34.1510	4	27.052	0	515.704	0	39.6	4	12.7	4	-1E+10	1	-1E+10	1	-1E+10	1	-1E+10	1	-1E+10	1	-1E+10	1
4901784	103	C	04/30/2018	10:41	-132.339	43.363	0	525.30	0	4.5900	0	34.1570	4	27.057	0	520.454	0	37.7	4	12.1	4	-1E+10	1	-1E+10	1	-1E+10	1	-1E+10	1	-1E+10	1	-1E+10	1
4901784	103	C	04/30/2018	10:41	-132.339	43.363	0	530.20	0	4.5930	0	34.1650	4	27.063	0	525.303	0	35.8	4	11.5	4	-1E+10	1	-1E+10	1	-1E+10	1	-1E+10	1	-1E+10	1	-1E+10	1
4901784	103	C	04/30/2018	10:41	-132.339	43.363	0	535.00	0	4.5850	0	34.1730	4	27.071	0	530.052	0	34.7	4	11.1	4	-1E+10	1	-1E+10	1	-1E+10	1	-1E+10	1	-1E+10	1	-1E+10	1
4901784	103	C	04/30/2018	10:41	-132.339	43.363	0	539.90	0	4.5830	0	34.1740	4	27.072	0	534.901	0	34.2	4	10.9	4	-1E+10	1	-1E+10	1	-1E+10	1	-1E+10	1	-1E+10	1	-1E+10	1
4901784	103	C	04/30/2018	10:41	-132.339	43.363	0	544.70	0	4.5820	0	34.1770	4	27.074	0	539.650	0	33.4	4	10.7	4	-1E+10	1	-1E+10	1	-1E+10	1	-1E+10	1	-1E+10	1	-1E+10	1
4901784	103	C	04/30/2018	10:41	-132.339	43.363	0	549.60	0	4.5740	0	34.1810	4	27.078	0	544.498	0	32.8	4	10.5	4	-1E+10	1	-1E+10	1	-1E+10	1	-1E+10	1	-1E+10	1	-1E+10	1
4901784	103	C	04/30/2018	10:41	-132.339	43.363	0	554.50	0	4.5610	0	34.1830	4	27.081	0	549.346	0	32.3	4	10.3	4	-1E+10	1	-1E+10	1	-1E+10	1	-1E+10	1	-1E+10	1	-1E+10	1
4901784	103	C	04/30/2018	10:41	-132.339	43.363	0	559.30	0	4.5570	0	34.1840	4	27.083	0	554.095	0	31.3	4	10.0	4	-1E+10	1	-1E+10	1	-1E+10	1	-1E+10	1	-1E+10	1	-1E+10	1
4901784	103	C	04/30/2018	10:41	-132.339	43.363	0	564.30	0	4.5180	0	34.1920	4	27.093	0	559.042	0	30.0	4	9.6	4	-1E+10	1	-1E+10	1	-1E+10	1	-1E+10	1	-1E+10	1	-1E+10	1
4901784	103	C	04/30/2018	10:41	-132.339	43.363	0	569.30	0	4.4880	0	34.2000	4	27.103	0	563.988	0	28.3	4	9.1	4	-1E+10	1	-1E+10	1	-1E+10	1	-1E+10	1	-1E+10	1	-1E+10	1
4901784	103	C	04/30/2018	10:41	-132.339	43.363	0	574.40	0	4.4800	0	34.2070	4	27.109	0	569.034	0	27.0	4	8.6	4	-1E+10	1	-1E+10	1	-1E+10	1	-1E+10	1	-1E+10	1	-1E+10	1
4901784	103	C	04/30/2018	10:41	-132.339	43.363	0	579.50	0	4.4730	0	34.2120	4	27.114	0	574.079	0	26.3	4	8.4	4	-1E+10	1	-1E+10	1	-1E+10	1	-1E+10	1	-1E+10	1	-1E+10	1
4901784	103	C	04/30/2018	10:41	-132.339	43.363	0	584.50	0	4.4660	0	34.2150	4	27.117	0	579.026	0	25.3	4	8.1	4	-1E+10	1	-1E+10	1	-1E+10	1	-1E+10	1	-1E+10	1	-1E+10	1
4901784	103	C	04/30/2018	10:41	-132.339	43.363	0	589.80	0	4.4620	0	34.2210	4	27.123	0	584.268	0	24.4	4	7.8	4	-1E+10	1	-1E+10	1	-1E+10	1	-1E+10	1	-1E+10	1	-1E+10	1
4901784	103	C	04/30/2018	10:41	-132.339	43.363	0	595.00	0	4.4430	0	34.2260	4	27.129	0	589.412	0	23.7	4	7.6	4	-1E+10	1	-1E+10	1	-1E+10	1	-1E+10	1	-1E+10	1	-1E+10	1
4901784	103	C	04/30/2018	10:41	-132.339	43.363	0	600.30	0	4.3940	0	34.2330	4	27.140	0	594.655	0	23.3	4	7.4	4	-1E+10	1	-1E+10	1	-1E+10	1	-1E+10	1	-1E+10	1	-1E+10	1
4901784	103	C	04/30/2018	10:41	-132.339	43.363	0	605.60	0	4.3510	0	34.2360	4	27.147	0	599.897	0	23.0	4	7.3	4	-1E+10	1	-1E+10	1	-1E+10	1	-1E+10	1	-1E+10	1	-1E+10	1
4901784	103	C	04/30/2018	10:41	-132.339	43.363	0	610.00	0	4.3290	0	34.2410	4	27.153	0	604.250	0	22.7	4	7.2	4	-1E+10	1	-1E+10	1	-1E+10	1	-1E+10	1	-1E+10	1	-1E+10	1
4901784	103	C	04/30/2018	10:41	-132.339	43.363	0	614.40	0	4.3100	0	34.2410	4	27.155	0	608.602	0	22.4	4	7.1	4	-1E+10	1	-1E+10	1	-1E+10	1	-1E+10	1	-1E+10	1	-1E+10	1
4901784	103	C	04/30/2018	10:41	-132.339	43.363	0	619.90	0	4.2790	0	34.2460	4	27.162	0	614.042	0	21.7	4	6.9	4	-1E+10	1	-1E+10	1	-1E+10	1	-1E+10	1	-1E+10	1	-1E+10	1
4901784	103	C	04/30/2018	10:41	-132.339	43.363	0	625.40	0	4.2660	0	34.2530	4	27.169	0	619.482	0	21.0	4	6.7	4	-1E+10	1	-1E+10	1	-1E+10	1	-1E+10	1	-1E+10	1	-1E+10	1
4901784	103	C	04/30/2018	10:41	-132.339	43.363	0	629.90	0	4.2540	0	34.2560	4	27.173	0	623.932	0	20.6	4	6.5	4	-1E+10	1	-1E+10	1	-1E+10	1	-1E+10	1	-1E+10	1	-1E+10	1
4901784	103	C	04/30/2018	10:41	-132.339	43.363	0	634.50	0	4.2420	0	34.2600	4	27.177	0	628.482	0	20.2	4	6.4	4	-1E+10	1	-1E+10	1	-1E+10	1	-1E+10	1	-1E+10	1	-1E+10	1
4901784	103	C	04/30/2018	10:41	-132.339	43.363	0	640.00	0	4.2340	0	34.2650	4	27.182	0	633.921	0	19.7	4	6.3	4	-1E+10	1	-1E+10	1	-1E+10	1	-1E+10	1	-1E+10	1	-1E+10	1
4901784	103	C	04/30/2018	10:41	-132.339	43.363	0	645.60	0	4.2160	0	34.2670	4	27.186	0	639.459	0	19.5	4	6.2	4	-1E+10	1	-1E+10	1	-1E+10	1	-1E+10	1	-1E+10	1	-1E+10	1
4901784	103	C	04/30/2018	10:41	-132.339	43.363	0	650.30	0	4.2070	0	34.2690	4	27.188	0	644.107	0	18.9	4	6.0	4	-1E+10	1	-1E+10	1	-1E+10	1	-1E+10	1	-1E+10	1	-1E+10	1
4901784	103	C	04/30/2018	10:41	-132.339	43.363	0	655.00	0	4.2360	0	34.2770	4	27.192	0	648.755	0	17.9	4	5.7	4	-1E+10	1	-1E+10	1	-1E+10	1	-1E+10	1	-1E+10	1	-1E+10	1
4901784	103	C	04/30/2018	10:41	-132.339	43.363	0	659.70	0	4.2440	0	34.2840	4	27.196	0	653.403	0	17.5	4	5.5	4	-1E+10	1	-1E+10	1	-1E+10	1	-1E+10	1	-1E+10	1	-1E+10	1
4901784	103	C	04/30/2018	10:41	-132.339	43.363	0	664.40	0	4.2090	0	34.2840	4	27.200	0	658.051	0	17.5	4	5.5	4	-1E+10	1	-1E+10	1	-1E+10	1	-1E+10	1	-1E+10	1	-1E+10	1
4901784	103	C	04/30/2018	10:41	-132.339	43.363	0	669.80	0	4.1900	0	34.2890	4	27.206	0	663.391	0	17.2	4	5.5	4	-1E+10	1	-1E+10	1	-1E+10	1	-1E+10	1	-1E+10	1	-1E+10	1
4901784	103	C	04/30/2018	10:41	-132.339	43.363	0	674.60	0	4.1810	0	34.2910	4	27.209	0	668.137	0	17.0	4	5.4	4	-1E+10	1	-1E+10	1	-1E+10	1	-1E+10	1	-1E+10	1	-1E+10	1
4901784	103	C	04/30/2018	10:41	-132.339	43.363	0	679.40	0	4.1760	0	34.2930	4	27.211	0	672.883	0	16.9	4	5.4	4	-1E+10	1	-1E+10	1	-1E+10	1	-1E+10	1	-1E+10	1	-1E+10	1
4901784	103	C	04/30/2018	10:41	-132.339	43.363	0	684.20	0	4.1690	0	34.2940	4	27.212	0	677.630	0	16.8	4	5.3	4	-1E+10	1	-1E+10	1	-1E+10	1	-1E+10	1	-1E+10	1	-1E+10	1
4901784	103	C	04/30/2018	10:41	-132.339	43.363	0	690.00	0	4.1550	0	34.2950	4	27.215	0	683.364	0	17.0	4	5.4	4	-1E+10	1	-1E+10	1	-1E+10	1	-1E+10	1	-1E+10	1	-1E+10	1
4901784	103	C	04/30/2018	10:41	-132.339	43.363	0	695.70	0	4.1190	0	34.2940	4	27.218	0	689.000	0	17.3	4	5.5	4	-1E+10	1	-1E+10	1	-1E+10	1	-1E+10	1	-1E+10	1	-1E+10	1
4901784	103	C	04/30/2018	10:41	-132.339	43.363	0	700.70	0	4.0810	0	34.2940	4	27.222	0	693.944	0	17.5	4	5.5	4	-1E+10	1	-1E+10	1	-1E+10	1	-1E+10	1	-1E+10	1	-1E+10	1
4901784	103	C	04/30/2018	10:41	-132.339	43.363	0	705.70	0	4.0550	0	34.2930	4	27.224	0	698.887	0	17.6	4	5.6	4	-1E+10	1	-1E+10	1	-1E+10	1	-1E+10	1	-1E+10	1	-1E+10	1
4901784	103	C	04/30/2018	10:41	-132.339	43.363	0	710.60	0	4.0090	0	34.2950	4	27.230	0	703.731	0	17.6	4	5.6	4	-1E+10	1	-1E+10	1	-1E+10	1	-1E+10	1	-1E+10	1	-1E+10	1
4901784	103	C	04/30/2018	10:41	-132.339	43.363	0	715.50	0	3.9870	0	34.2970	4	27.234	0	708.576	0	17.4	4	5.5	4	-1E+10	1	-1E+10	1	-1E+10	1	-1E+10	1	-1E+10	1	-1E+10	1
4901784	103	C	04/30/2018	10:41	-132.339	43.363	0	720.60	0	3.9780	0	34.2990	4	27.236	0	713.618	0	17.2	4	5.4	4	-1E+10	1	-1E+10	1	-1E+10	1	-1E+10	1	-1E+10	1	-1E+10	1
4901784	103	C	04/30/2018	10:41	-132.339	43.363	0	724.90	0	3.9660	0	34.3010	4	27.239	0	717.869	0	16.9	4	5.3	4	-1E+10	1	-1E+10	1	-1E+10	1	-1E+10	1	-1E+10	1	-1E+10	1
4901784	103	C	04/30/2018	10:41	-132.339	43.363	0	729.20	0	3.9550	0	34.3040	4	27.243	0	722.120	0	16.6	4	5.2	4	-1E+10	1	-1E+10	1	-1E+10	1	-1E+10	1	-1E+10	1	-1E+10	1
4901784	103	C	04/30/2018	10:41	-132.339	43.363	0	734.40	0	3.9320	0	34.3110	4	27.251	0	727.260	0	16.1	4	5.1	4	-1E+10	1	-1E+10	1	-1E+10	1	-1E+10	1	-1E+10	1	-1E+10	1
4901784	103	C	04/30/2018	10:41	-132.339	43.363	0	739.50	0	3.9190	0	34.3140	4	27.254	0	732.301	0	15.8	4	5.0	4	-1E+10	1	-1E+10	1	-1E+10	1	-1E+10	1	-1E+10	1	-1E+10	1
4901784	103	C	04/30/2018	10:41	-132.339	43.363	0	744.70	0	3.9030	0	34.3180	4	27.259	0	737.442	0	15.5	4	4.9	4	-1E+10	1	-1E+10	1	-1E+10	1	-1E+10	1	-1E+10	1	-1E+10	1
4901784	103	C	04/30/2018	10:41	-132.339	43.363	0	749.80	0	3.8930	0	34.3210	4	27.263	0	742.483	0	15.2	4	4.8	4	-1E+10	1	-1E+10	1	-1E+10	1	-1E+10	1	-1E+10	1	-1E+10	1
4901784	103	C	04/30/2018	10:41	-132.339	43.363	0	754.90	0	3.8750	0	34.3270	4	27.269	0	747.524	0	14.9	4	4.7	4	-1E+10	1	-1E+10	1	-1E+10	1	-1E+10	1	-1E+10	1	-1E+10	1
4901784	103	C	04/30/2018	10:41	-132.339	43.363	0	760.00	0	3.8650	0	34.3290	4	27.272	0	752.565	0	14.7	4	4.6	4	-1E+10	1	-1E+10	1	-1E+10	1	-1E+10	1	-1E+10	1	-1E+10	1
4901784	103	C	04/30/2018	10:41	-132.339	43.363	0	765.20	0	3.8570	0	34.3310	4	27.274	0	757.705	0	14.5	4	4.6	4	-1E+10	1	-1E+10	1	-1E+10	1	-1E+10	1	-1E+10	1	-1E+10	1
4901784	103	C	04/30/2018	10:41	-132.339	43.363	0	770.20	0	3.8460	0	34.3340	4	27.278	0	762.647	0	14.2	4	4.5	4	-1E+10	1	-1E+10	1	-1E+10	1	-1E+10	1	-1E+10	1	-1E+10	1
4901784	103	C	04/30/2018	10:41	-132.339	43.363	0	775.30	0	3.8280	0	34.3410	4	27.285	0	767.687	0	13.9	4	4.4	4	-1E+10	1	-1E+10	1	-1E+10	1	-1E+10	1	-1E+10	1	-1E+10	1
4901784	103	C	04/30/2018	10:41	-132.339	43.363	0	780.40	0	3.8140	0	34.3460	4	27.291	0	772.728	0	13.8	4	4.3	4	-1E+10	1	-1E+10	1	-1E+10	1	-1E+10	1	-1E+10	1	-1E+10	1
4901784	103	C	04/30/2018	10:41	-132.339	43.363	0	785.60	0	3.8120	0	34.3460	4	27.291	0	777.867	0	13.7	4	4.3	4	-1E+10	1	-1E+10	1	-1E+10	1	-1E+10	1	-1E+10	1	-1E+10	1
4901784	103	C	04/30/2018	10:41	-132.339	43.363	0	790.70	0	3.8070	0	34.3480	4	27.293	0	782.907	0	13.5	4	4.3	4	-1E+10	1	-1E+10	1	-1E+10	1	-1E+10	1	-1E+10	1	-1E+10	1
4901784	103	C	04/30/2018	10:41	-132.339	43.363	0	795.10	0	3.7960	0	34.3510	4	27.297	0	787.255	0	13.3	4	4.2	4	-1E+10	1	-1E+10	1	-1E+10	1	-1E+10	1	-1E+10	1	-1E+10	1
4901784	103	C	04/30/2018	10:41	-132.339	43.363	0	799.40	0	3.7880	0	34.3540	4	27.300	0	791.505	0	13.1	4	4.1	4	-1E+10	1	-1E+10	1	-1E+10	1	-1E+10	1	-1E+10	1	-1E+10	1
4901784	103	C	04/30/2018	10:41	-132.339	43.363	0	804.70	0	3.7730	0	34.3600	4	27.306	0	796.742	0	12.8	4	4.0	4	-1E+10	1	-1E+10	1	-1E+10	1	-1E+10	1	-1E+10	1	-1E+10	1
4901784	103	C	04/30/2018	10:41	-132.339	43.363	0	810.00	0	3.7570	0	34.3660	4	27.312	0	801.980	0	12.6	4	3.9	4	-1E+10	1	-1E+10	1	-1E+10	1	-1E+10	1	-1E+10	1	-1E+10	1
4901784	103	C	04/30/2018	10:41	-132.339	43.363	0	815.30	0	3.7400	0	34.3720	4	27.319	0	807.217	0	12.3	4	3.9	4	-1E+10	1	-1E+10	1	-1E+10	1	-1E+10	1	-1E+10	1	-1E+10	1
4901784	103	C	04/30/2018	10:41	-132.339	43.363	0	820.60	0	3.7300	0	34.3760	4	27.323	0	812.454	0	12.1	4	3.8	4	-1E+10	1	-1E+10	1	-1E+10	1	-1E+10	1	-1E+10	1	-1E+10	1
4901784	103	C	04/30/2018	10:41	-132.339	43.363	0	825.00	0	3.7210	0	34.3810	4	27.328	0	816.802	0	11.9	4	3.7	4	-1E+10	1	-1E+10	1	-1E+10	1	-1E+10	1	-1E+10	1	-1E+10	1
4901784	103	C	04/30/2018	10:41	-132.339	43.363	0	829.50	0	3.7140	0	34.3860	4	27.333	0	821.248	0	11.7	4	3.7	4	-1E+10	1	-1E+10	1	-1E+10	1	-1E+10	1	-1E+10	1	-1E+10	1
4901784	103	C	04/30/2018	10:41	-132.339	43.363	0	834.90	0	3.7030	0	34.3900	4	27.337	0	826.584	0	11.6	4	3.6	4	-1E+10	1	-1E+10	1	-1E+10	1	-1E+10	1	-1E+10	1	-1E+10	1
4901784	103	C	04/30/2018	10:41	-132.339	43.363	0	840.40	0	3.6850	0	34.3940	4	27.342	0	832.018	0	11.5	4	3.6	4	-1E+10	1	-1E+10	1	-1E+10	1	-1E+10	1	-1E+10	1	-1E+10	1
4901784	103	C	04/30/2018	10:41	-132.339	43.363	0	845.00	0	3.6730	0	34.3980	4	27.347	0	836.563	0	11.3	4	3.6	4	-1E+10	1	-1E+10	1	-1E+10	1	-1E+10	1	-1E+10	1	-1E+10	1
4901784	103	C	04/30/2018	10:41	-132.339	43.363	0	849.70	0	3.6700	0	34.4010	4	27.349	0	841.207	0	11.2	4	3.5	4	-1E+10	1	-1E+10	1	-1E+10	1	-1E+10	1	-1E+10	1	-1E+10	1
4901784	103	C	04/30/2018	10:41	-132.339	43.363	0	855.20	0	3.6640	0	34.4050	4	27.353	0	846.641	0	11.0	4	3.5	4	-1E+10	1	-1E+10	1	-1E+10	1	-1E+10	1	-1E+10	1	-1E+10	1
4901784	103	C	04/30/2018	10:41	-132.339	43.363	0	859.80	0	3.6600	0	34.4090	4	27.357	0	851.185	0	10.9	4	3.4	4	-1E+10	1	-1E+10	1	-1E+10	1	-1E+10	1	-1E+10	1	-1E+10	1
4901784	103	C	04/30/2018	10:41	-132.339	43.363	0	864.50	0	3.6630	0	34.4140	4	27.360	0	855.829	0	10.7	4	3.4	4	-1E+10	1	-1E+10	1	-1E+10	1	-1E+10	1	-1E+10	1	-1E+10	1
4901784	103	C	04/30/2018	10:41	-132.339	43.363	0	870.10	0	3.6620	0	34.4170	4	27.363	0	861.361	0	10.6	4	3.3	4	-1E+10	1	-1E+10	1	-1E+10	1	-1E+10	1	-1E+10	1	-1E+10	1
4901784	103	C	04/30/2018	10:41	-132.339	43.363	0	874.80	0	3.6640	0	34.4220	4	27.367	0	866.004	0	10.5	4	3.3	4	-1E+10	1	-1E+10	1	-1E+10	1	-1E+10	1	-1E+10	1	-1E+10	1
4901784	103	C	04/30/2018	10:41	-132.339	43.363	0	879.60	0	3.6680	0	34.4250	4	27.369	0	870.746	0	10.5	4	3.3	4	-1E+10	1	-1E+10	1	-1E+10	1	-1E+10	1	-1E+10	1	-1E+10	1
4901784	103	C	04/30/2018	10:41	-132.339	43.363	0	885.30	0	3.6650	0	34.4280	4	27.372	0	876.376	0	10.5	4	3.3	4	-1E+10	1	-1E+10	1	-1E+10	1	-1E+10	1	-1E+10	1	-1E+10	1
4901784	103	C	04/30/2018	10:41	-132.339	43.363	0	890.20	0	3.6870	0	34.4340	4	27.374	0	881.217	0	10.5	4	3.3	4	-1E+10	1	-1E+10	1	-1E+10	1	-1E+10	1	-1E+10	1	-1E+10	1
4901784	103	C	04/30/2018	10:41	-132.339	43.363	0	895.00	0	3.6880	0	34.4380	4	27.377	0	885.958	0	10.5	4	3.3	4	-1E+10	1	-1E+10	1	-1E+10	1	-1E+10	1	-1E+10	1	-1E+10	1
4901784	103	C	04/30/2018	10:41	-132.339	43.363	0	899.90	0	3.6970	0	34.4440	4	27.381	0	890.798	0	10.6	4	3.3	4	-1E+10	1	-1E+10	1	-1E+10	1	-1E+10	1	-1E+10	1	-1E+10	1
4901784	103	C	04/30/2018	10:41	-132.339	43.363	0	904.60	0	3.6880	0	34.4490	4	27.386	0	895.441	0	10.7	4	3.4	4	-1E+10	1	-1E+10	1	-1E+10	1	-1E+10	1	-1E+10	1	-1E+10	1
4901784	103	C	04/30/2018	10:41	-132.339	43.363	0	910.40	0	3.6650	0	34.4520	4	27.391	0	901.169	0	10.8	4	3.4	4	-1E+10	1	-1E+10	1	-1E+10	1	-1E+10	1	-1E+10	1	-1E+10	1
4901784	103	C	04/30/2018	10:41	-132.339	43.363	0	915.20	0	3.6600	0	34.4510	4	27.391	0	905.910	0	10.8	4	3.4	4	-1E+10	1	-1E+10	1	-1E+10	1	-1E+10	1	-1E+10	1	-1E+10	1
4901784	103	C	04/30/2018	10:41	-132.339	43.363	0	919.90	0	3.6250	0	34.4560	4	27.398	0	910.552	0	10.9	4	3.4	4	-1E+10	1	-1E+10	1	-1E+10	1	-1E+10	1	-1E+10	1	-1E+10	1
4901784	103	C	04/30/2018	10:41	-132.339	43.363	0	924.70	0	3.6060	0	34.4590	4	27.402	0	915.293	0	11.0	4	3.4	4	-1E+10	1	-1E+10	1	-1E+10	1	-1E+10	1	-1E+10	1	-1E+10	1
4901784	103	C	04/30/2018	10:41	-132.339	43.363	0	929.60	0	3.5820	0	34.4610	4	27.406	0	920.133	0	11.1	4	3.5	4	-1E+10	1	-1E+10	1	-1E+10	1	-1E+10	1	-1E+10	1	-1E+10	1
4901784	103	C	04/30/2018	10:41	-132.339	43.363	0	935.30	0	3.5450	0	34.4660	4	27.414	0	925.762	0	11.1	4	3.5	4	-1E+10	1	-1E+10	1	-1E+10	1	-1E+10	1	-1E+10	1	-1E+10	1
4901784	103	C	04/30/2018	10:41	-132.339	43.363	0	940.30	0	3.5290	0	34.4690	4	27.418	0	930.700	0	11.2	4	3.5	4	-1E+10	1	-1E+10	1	-1E+10	1	-1E+10	1	-1E+10	1	-1E+10	1
4901784	103	C	04/30/2018	10:41	-132.339	43.363	0	944.90	0	3.5260	0	34.4700	4	27.419	0	935.243	0	11.2	4	3.5	4	-1E+10	1	-1E+10	1	-1E+10	1	-1E+10	1	-1E+10	1	-1E+10	1
4901784	103	C	04/30/2018	10:41	-132.339	43.363	0	949.80	0	3.5210	0	34.4730	4	27.422	0	940.081	0	11.3	4	3.5	4	-1E+10	1	-1E+10	1	-1E+10	1	-1E+10	1	-1E+10	1	-1E+10	1
4901784	103	C	04/30/2018	10:41	-132.339	43.363	0	954.90	0	3.4940	0	34.4770	4	27.428	0	945.118	0	11.4	4	3.6	4	-1E+10	1	-1E+10	1	-1E+10	1	-1E+10	1	-1E+10	1	-1E+10	1
4901784	103	C	04/30/2018	10:41	-132.339	43.363	0	960.10	0	3.4670	0	34.4790	4	27.432	0	950.253	0	11.5	4	3.6	4	-1E+10	1	-1E+10	1	-1E+10	1	-1E+10	1	-1E+10	1	-1E+10	1
4901784	103	C	04/30/2018	10:41	-132.339	43.363	0	965.10	0	3.4480	0	34.4810	4	27.435	0	955.190	0	11.6	4	3.6	4	-1E+10	1	-1E+10	1	-1E+10	1	-1E+10	1	-1E+10	1	-1E+10	1
4901784	103	C	04/30/2018	10:41	-132.339	43.363	0	970.30	0	3.4330	0	34.4820	4	27.438	0	960.325	0	11.7	4	3.7	4	-1E+10	1	-1E+10	1	-1E+10	1	-1E+10	1	-1E+10	1	-1E+10	1
4901784	103	C	04/30/2018	10:41	-132.339	43.363	0	975.40	0	3.4150	0	34.4870	4	27.443	0	965.361	0	11.8	4	3.7	4	-1E+10	1	-1E+10	1	-1E+10	1	-1E+10	1	-1E+10	1	-1E+10	1
4901784	103	C	04/30/2018	10:41	-132.339	43.363	0	980.60	0	3.4100	0	34.4880	4	27.445	0	970.495	0	11.9	4	3.7	4	-1E+10	1	-1E+10	1	-1E+10	1	-1E+10	1	-1E+10	1	-1E+10	1
4901784	103	C	04/30/2018	10:41	-132.339	43.363	0	985.80	0	3.3970	0	34.4910	4	27.448	0	975.629	0	12.1	4	3.8	4	-1E+10	1	-1E+10	1	-1E+10	1	-1E+10	1	-1E+10	1	-1E+10	1
4901784	103	C	04/30/2018	10:41	-132.339	43.363	0	990.10	0	3.3850	0	34.4950	4	27.453	0	979.875	0	12.2	4	3.8	4	-1E+10	1	-1E+10	1	-1E+10	1	-1E+10	1	-1E+10	1	-1E+10	1
4901784	103	C	04/30/2018	10:41	-132.339	43.363	0	994.60	0	3.3790	0	34.4960	4	27.454	0	984.318	0	12.2	4	3.8	4	-1E+10	1	-1E+10	1	-1E+10	1	-1E+10	1	-1E+10	1	-1E+10	1
4901784	103	C	04/30/2018	10:41	-132.339	43.363	0	999.90	0	3.3760	0	34.4970	4	27.455	0	989.551	0	12.3	4	3.8	4	-1E+10	1	-1E+10	1	-1E+10	1	-1E+10	1	-1E+10	1	-1E+10	1
4901784	103	C	04/30/2018	10:41	-132.339	43.363	0	1005.30	0	3.3720	0	34.4970	4	27.456	0	994.882	0	12.4	4	3.9	4	-1E+10	1	-1E+10	1	-1E+10	1	-1E+10	1	-1E+10	1	-1E+10	1
4901784	103	C	04/30/2018	10:41	-132.339	43.363	0	1010.60	0	3.3560	0	34.5020	4	27.461	0	1000.114	0	12.7	4	4.0	4	-1E+10	1	-1E+10	1	-1E+10	1	-1E+10	1	-1E+10	1	-1E+10	1
4901784	103	C	04/30/2018	10:41	-132.339	43.363	0	1015.10	0	3.3410	0	34.5060	4	27.466	0	1004.557	0	13.0	4	4.0	4	-1E+10	1	-1E+10	1	-1E+10	1	-1E+10	1	-1E+10	1	-1E+10	1
4901784	103	C	04/30/2018	10:41	-132.339	43.363	0	1019.50	0	3.3370	0	34.5080	4	27.468	0	1008.901	0	13.1	4	4.1	4	-1E+10	1	-1E+10	1	-1E+10	1	-1E+10	1	-1E+10	1	-1E+10	1
4901784	103	C	04/30/2018	10:41	-132.339	43.363	0	1024.90	0	3.3350	0	34.5090	4	27.469	0	1014.231	0	13.3	4	4.1	4	-1E+10	1	-1E+10	1	-1E+10	1	-1E+10	1	-1E+10	1	-1E+10	1
4901784	103	C	04/30/2018	10:41	-132.339	43.363	0	1030.40	0	3.3240	0	34.5120	4	27.472	0	1019.661	0	13.5	4	4.2	4	-1E+10	1	-1E+10	1	-1E+10	1	-1E+10	1	-1E+10	1	-1E+10	1
4901784	103	C	04/30/2018	10:41	-132.339	43.363	0	1035.00	0	3.3170	0	34.5150	4	27.475	0	1024.202	0	13.6	4	4.2	4	-1E+10	1	-1E+10	1	-1E+10	1	-1E+10	1	-1E+10	1	-1E+10	1
4901784	103	C	04/30/2018	10:41	-132.339	43.363	0	1039.60	0	3.3180	0	34.5150	4	27.475	0	1028.742	0	13.7	4	4.3	4	-1E+10	1	-1E+10	1	-1E+10	1	-1E+10	1	-1E+10	1	-1E+10	1
4901784	103	C	04/30/2018	10:41	-132.339	43.363	0	1045.20	0	3.3140	0	34.5160	4	27.476	0	1034.270	0	13.9	4	4.3	4	-1E+10	1	-1E+10	1	-1E+10	1	-1E+10	1	-1E+10	1	-1E+10	1
4901784	103	C	04/30/2018	10:41	-132.339	43.363	0	1049.70	0	3.3090	0	34.5180	4	27.479	0	1038.712	0	14.1	4	4.4	4	-1E+10	1	-1E+10	1	-1E+10	1	-1E+10	1	-1E+10	1	-1E+10	1
4901784	103	C	04/30/2018	10:41	-132.339	43.363	0	1054.40	0	3.3000	0	34.5210	4	27.482	0	1043.351	0	14.3	4	4.4	4	-1E+10	1	-1E+10	1	-1E+10	1	-1E+10	1	-1E+10	1	-1E+10	1
4901784	103	C	04/30/2018	10:41	-132.339	43.363	0	1059.90	0	3.2950	0	34.5220	4	27.483	0	1048.780	0	14.5	4	4.5	4	-1E+10	1	-1E+10	1	-1E+10	1	-1E+10	1	-1E+10	1	-1E+10	1
4901784	103	C	04/30/2018	10:41	-132.339	43.363	0	1065.50	0	3.2860	0	34.5250	4	27.486	0	1054.307	0	14.7	4	4.6	4	-1E+10	1	-1E+10	1	-1E+10	1	-1E+10	1	-1E+10	1	-1E+10	1
4901784	103	C	04/30/2018	10:41	-132.339	43.363	0	1070.10	0	3.2780	0	34.5270	4	27.489	0	1058.847	0	14.9	4	4.6	4	-1E+10	1	-1E+10	1	-1E+10	1	-1E+10	1	-1E+10	1	-1E+10	1
4901784	103	C	04/30/2018	10:41	-132.339	43.363	0	1074.70	0	3.2660	0	34.5300	4	27.492	0	1063.387	0	15.0	4	4.7	4	-1E+10	1	-1E+10	1	-1E+10	1	-1E+10	1	-1E+10	1	-1E+10	1
4901784	103	C	04/30/2018	10:41	-132.339	43.363	0	1080.20	0	3.2580	0	34.5320	4	27.495	0	1068.815	0	15.1	4	4.7	4	-1E+10	1	-1E+10	1	-1E+10	1	-1E+10	1	-1E+10	1	-1E+10	1
4901784	103	C	04/30/2018	10:41	-132.339	43.363	0	1085.50	0	3.2440	0	34.5330	4	27.497	0	1074.045	0	15.2	4	4.7	4	-1E+10	1	-1E+10	1	-1E+10	1	-1E+10	1	-1E+10	1	-1E+10	1
4901784	103	C	04/30/2018	10:41	-132.339	43.363	0	1090.30	0	3.2290	0	34.5360	4	27.501	0	1078.783	0	15.3	4	4.8	4	-1E+10	1	-1E+10	1	-1E+10	1	-1E+10	1	-1E+10	1	-1E+10	1
4901784	103	C	04/30/2018	10:41	-132.339	43.363	0	1095.10	0	3.2230	0	34.5360	4	27.501	0	1083.519	0	15.4	4	4.8	4	-1E+10	1	-1E+10	1	-1E+10	1	-1E+10	1	-1E+10	1	-1E+10	1
4901784	103	C	04/30/2018	10:41	-132.339	43.363	0	1100.10	0	3.2120	0	34.5380	4	27.504	0	1088.454	0	15.5	4	4.8	4	-1E+10	1	-1E+10	1	-1E+10	1	-1E+10	1	-1E+10	1	-1E+10	1
4901784	103	C	04/30/2018	10:41	-132.339	43.363	0	1105.30	0	3.2070	0	34.5390	4	27.505	0	1093.585	0	15.6	4	4.8	4	-1E+10	1	-1E+10	1	-1E+10	1	-1E+10	1	-1E+10	1	-1E+10	1
4901784	103	C	04/30/2018	10:41	-132.339	43.363	0	1110.50	0	3.1950	0	34.5400	4	27.507	0	1098.716	0	15.8	4	4.9	4	-1E+10	1	-1E+10	1	-1E+10	1	-1E+10	1	-1E+10	1	-1E+10	1
4901784	103	C	04/30/2018	10:41	-132.339	43.363	0	1115.00	0	3.1790	0	34.5430	4	27.511	0	1103.157	0	15.9	4	4.9	4	-1E+10	1	-1E+10	1	-1E+10	1	-1E+10	1	-1E+10	1	-1E+10	1
4901784	103	C	04/30/2018	10:41	-132.339	43.363	0	1119.60	0	3.1710	0	34.5440	4	27.513	0	1107.696	0	15.9	4	4.9	4	-1E+10	1	-1E+10	1	-1E+10	1	-1E+10	1	-1E+10	1	-1E+10	1
4901784	103	C	04/30/2018	10:41	-132.339	43.363	0	1125.00	0	3.1660	0	34.5440	4	27.513	0	1113.024	0	16.0	4	5.0	4	-1E+10	1	-1E+10	1	-1E+10	1	-1E+10	1	-1E+10	1	-1E+10	1
4901784	103	C	04/30/2018	10:41	-132.339	43.363	0	1130.40	0	3.1490	0	34.5460	4	27.516	0	1118.352	0	16.2	4	5.0	4	-1E+10	1	-1E+10	1	-1E+10	1	-1E+10	1	-1E+10	1	-1E+10	1
4901784	103	C	04/30/2018	10:41	-132.339	43.363	0	1135.00	0	3.1370	0	34.5470	4	27.518	0	1122.891	0	16.3	4	5.1	4	-1E+10	1	-1E+10	1	-1E+10	1	-1E+10	1	-1E+10	1	-1E+10	1
4901784	103	C	04/30/2018	10:41	-132.339	43.363	0	1139.60	0	3.1380	0	34.5490	4	27.520	0	1127.429	0	16.5	4	5.1	4	-1E+10	1	-1E+10	1	-1E+10	1	-1E+10	1	-1E+10	1	-1E+10	1
4901784	103	C	04/30/2018	10:41	-132.339	43.363	0	1145.00	0	3.1160	0	34.5510	4	27.523	0	1132.757	0	16.5	4	5.1	4	-1E+10	1	-1E+10	1	-1E+10	1	-1E+10	1	-1E+10	1	-1E+10	1
4901784	103	C	04/30/2018	10:41	-132.339	43.363	0	1150.50	0	3.1010	0	34.5510	4	27.525	0	1138.183	0	16.6	4	5.1	4	-1E+10	1	-1E+10	1	-1E+10	1	-1E+10	1	-1E+10	1	-1E+10	1
4901784	103	C	04/30/2018	10:41	-132.339	43.363	0	1154.90	0	3.0860	0	34.5530	4	27.528	0	1142.524	0	16.7	4	5.2	4	-1E+10	1	-1E+10	1	-1E+10	1	-1E+10	1	-1E+10	1	-1E+10	1
4901784	103	C	04/30/2018	10:41	-132.339	43.363	0	1159.50	0	3.0760	0	34.5540	4	27.530	0	1147.063	0	16.8	4	5.2	4	-1E+10	1	-1E+10	1	-1E+10	1	-1E+10	1	-1E+10	1	-1E+10	1
4901784	103	C	04/30/2018	10:41	-132.339	43.363	0	1165.00	0	3.0650	0	34.5550	4	27.531	0	1152.489	0	16.9	4	5.2	4	-1E+10	1	-1E+10	1	-1E+10	1	-1E+10	1	-1E+10	1	-1E+10	1
4901784	103	C	04/30/2018	10:41	-132.339	43.363	0	1170.50	0	3.0550	0	34.5570	4	27.534	0	1157.914	0	17.0	4	5.3	4	-1E+10	1	-1E+10	1	-1E+10	1	-1E+10	1	-1E+10	1	-1E+10	1
4901784	103	C	04/30/2018	10:41	-132.339	43.363	0	1175.10	0	3.0500	0	34.5580	4	27.535	0	1162.452	0	17.1	4	5.3	4	-1E+10	1	-1E+10	1	-1E+10	1	-1E+10	1	-1E+10	1	-1E+10	1
4901784	103	C	04/30/2018	10:41	-132.339	43.363	0	1179.80	0	3.0460	0	34.5570	4	27.535	0	1167.089	0	17.2	4	5.3	4	-1E+10	1	-1E+10	1	-1E+10	1	-1E+10	1	-1E+10	1	-1E+10	1
4901784	103	C	04/30/2018	10:41	-132.339	43.363	0	1185.30	0	3.0260	0	34.5600	4	27.539	0	1172.514	0	17.5	4	5.4	4	-1E+10	1	-1E+10	1	-1E+10	1	-1E+10	1	-1E+10	1	-1E+10	1
4901784	103	C	04/30/2018	10:41	-132.339	43.363	0	1190.00	0	3.0130	0	34.5620	4	27.542	0	1177.150	0	17.8	4	5.5	4	-1E+10	1	-1E+10	1	-1E+10	1	-1E+10	1	-1E+10	1	-1E+10	1
4901784	103	C	04/30/2018	10:41	-132.339	43.363	0	1194.70	0	2.9960	0	34.5650	4	27.546	0	1181.786	0	18.2	4	5.6	4	-1E+10	1	-1E+10	1	-1E+10	1	-1E+10	1	-1E+10	1	-1E+10	1
4901784	103	C	04/30/2018	10:41	-132.339	43.363	0	1200.30	0	2.9960	0	34.5690	4	27.549	0	1187.310	0	18.6	4	5.8	4	-1E+10	1	-1E+10	1	-1E+10	1	-1E+10	1	-1E+10	1	-1E+10	1
4901784	103	C	04/30/2018	10:41	-132.339	43.363	0	1205.00	0	2.9880	0	34.5710	4	27.551	0	1191.946	0	18.7	4	5.8	4	-1E+10	1	-1E+10	1	-1E+10	1	-1E+10	1	-1E+10	1	-1E+10	1
4901784	103	C	04/30/2018	10:41	-132.339	43.363	0	1209.70	0	2.9780	0	34.5710	4	27.552	0	1196.581	0	18.8	4	5.8	4	-1E+10	1	-1E+10	1	-1E+10	1	-1E+10	1	-1E+10	1	-1E+10	1
4901784	103	C	04/30/2018	10:41	-132.339	43.363	0	1215.30	0	2.9640	0	34.5720	4	27.554	0	1202.105	0	18.9	4	5.8	4	-1E+10	1	-1E+10	1	-1E+10	1	-1E+10	1	-1E+10	1	-1E+10	1
4901784	103	C	04/30/2018	10:41	-132.339	43.363	0	1220.10	0	2.9540	0	34.5730	4	27.556	0	1206.839	0	19.1	4	5.9	4	-1E+10	1	-1E+10	1	-1E+10	1	-1E+10	1	-1E+10	1	-1E+10	1
4901784	103	C	04/30/2018	10:41	-132.339	43.363	0	1224.90	0	2.9410	0	34.5750	4	27.559	0	1211.573	0	19.3	4	5.9	4	-1E+10	1	-1E+10	1	-1E+10	1	-1E+10	1	-1E+10	1	-1E+10	1
4901784	103	C	04/30/2018	10:41	-132.339	43.363	0	1230.60	0	2.9370	0	34.5770	4	27.561	0	1217.194	0	19.6	4	6.0	4	-1E+10	1	-1E+10	1	-1E+10	1	-1E+10	1	-1E+10	1	-1E+10	1
4901784	103	C	04/30/2018	10:41	-132.339	43.363	0	1235.40	0	2.9360	0	34.5780	4	27.562	0	1221.928	0	19.8	4	6.1	4	-1E+10	1	-1E+10	1	-1E+10	1	-1E+10	1	-1E+10	1	-1E+10	1
4901784	103	C	04/30/2018	10:41	-132.339	43.363	0	1240.10	0	2.9230	0	34.5790	4	27.564	0	1226.563	0	20.1	4	6.2	4	-1E+10	1	-1E+10	1	-1E+10	1	-1E+10	1	-1E+10	1	-1E+10	1
4901784	103	C	04/30/2018	10:41	-132.339	43.363	0	1245.50	0	2.9140	0	34.5810	4	27.566	0	1231.888	0	20.5	4	6.3	4	-1E+10	1	-1E+10	1	-1E+10	1	-1E+10	1	-1E+10	1	-1E+10	1
4901784	103	C	04/30/2018	10:41	-132.339	43.363	0	1250.00	0	2.9150	0	34.5830	4	27.568	0	1236.326	0	20.7	4	6.4	4	-1E+10	1	-1E+10	1	-1E+10	1	-1E+10	1	-1E+10	1	-1E+10	1
4901784	103	C	04/30/2018	10:41	-132.339	43.363	0	1254.40	0	2.9120	0	34.5830	4	27.568	0	1240.665	0	20.9	4	6.5	4	-1E+10	1	-1E+10	1	-1E+10	1	-1E+10	1	-1E+10	1	-1E+10	1
4901784	103	C	04/30/2018	10:41	-132.339	43.363	0	1259.90	0	2.9030	0	34.5850	4	27.571	0	1246.088	0	21.4	4	6.6	4	-1E+10	1	-1E+10	1	-1E+10	1	-1E+10	1	-1E+10	1	-1E+10	1
4901784	103	C	04/30/2018	10:41	-132.339	43.363	0	1265.40	0	2.8810	0	34.5880	4	27.575	0	1251.512	0	21.5	4	6.6	4	-1E+10	1	-1E+10	1	-1E+10	1	-1E+10	1	-1E+10	1	-1E+10	1
4901784	103	C	04/30/2018	10:41	-132.339	43.363	0	1270.00	0	2.8750	0	34.5880	4	27.575	0	1256.047	0	21.6	4	6.7	4	-1E+10	1	-1E+10	1	-1E+10	1	-1E+10	1	-1E+10	1	-1E+10	1
4901784	103	C	04/30/2018	10:41	-132.339	43.363	0	1274.90	0	2.8550	0	34.5890	4	27.578	0	1260.879	0	21.6	4	6.7	4	-1E+10	1	-1E+10	1	-1E+10	1	-1E+10	1	-1E+10	1	-1E+10	1
4901784	103	C	04/30/2018	10:41	-132.339	43.363	0	1280.10	0	2.8460	0	34.5900	4	27.580	0	1266.006	0	21.7	4	6.7	4	-1E+10	1	-1E+10	1	-1E+10	1	-1E+10	1	-1E+10	1	-1E+10	1
4901784	103	C	04/30/2018	10:41	-132.339	43.363	0	1284.90	0	2.8400	0	34.5900	4	27.580	0	1270.739	0	21.6	4	6.6	4	-1E+10	1	-1E+10	1	-1E+10	1	-1E+10	1	-1E+10	1	-1E+10	1
4901784	103	C	04/30/2018	10:41	-132.339	43.363	0	1289.60	0	2.8270	0	34.5890	4	27.581	0	1275.373	0	21.5	4	6.6	4	-1E+10	1	-1E+10	1	-1E+10	1	-1E+10	1	-1E+10	1	-1E+10	1
4901784	103	C	04/30/2018	10:41	-132.339	43.363	0	1294.40	0	2.8100	0	34.5900	4	27.583	0	1280.105	0	21.8	4	6.7	4	-1E+10	1	-1E+10	1	-1E+10	1	-1E+10	1	-1E+10	1	-1E+10	1
4901784	103	C	04/30/2018	10:41	-132.339	43.363	0	1299.30	0	2.8000	0	34.5920	4	27.585	0	1284.936	0	22.1	4	6.8	4	-1E+10	1	-1E+10	1	-1E+10	1	-1E+10	1	-1E+10	1	-1E+10	1
4901784	103	C	04/30/2018	10:41	-132.339	43.363	0	1304.20	0	2.7880	0	34.5930	4	27.587	0	1289.767	0	22.3	4	6.9	4	-1E+10	1	-1E+10	1	-1E+10	1	-1E+10	1	-1E+10	1	-1E+10	1
4901784	103	C	04/30/2018	10:41	-132.339	43.363	0	1309.20	0	2.7740	0	34.5940	4	27.589	0	1294.696	0	22.5	4	6.9	4	-1E+10	1	-1E+10	1	-1E+10	1	-1E+10	1	-1E+10	1	-1E+10	1
4901784	103	C	04/30/2018	10:41	-132.339	43.363	0	1314.30	0	2.7570	0	34.5960	4	27.592	0	1299.724	0	22.8	4	7.0	4	-1E+10	1	-1E+10	1	-1E+10	1	-1E+10	1	-1E+10	1	-1E+10	1
4901784	103	C	04/30/2018	10:41	-132.339	43.363	0	1319.20	0	2.7430	0	34.5970	4	27.595	0	1304.555	0	23.0	4	7.1	4	-1E+10	1	-1E+10	1	-1E+10	1	-1E+10	1	-1E+10	1	-1E+10	1
4901784	103	C	04/30/2018	10:41	-132.339	43.363	0	1324.20	0	2.7340	0	34.5980	4	27.596	0	1309.484	0	23.2	4	7.1	4	-1E+10	1	-1E+10	1	-1E+10	1	-1E+10	1	-1E+10	1	-1E+10	1
4901784	103	C	04/30/2018	10:41	-132.339	43.363	0	1329.30	0	2.7260	0	34.5990	4	27.598	0	1314.511	0	23.4	4	7.2	4	-1E+10	1	-1E+10	1	-1E+10	1	-1E+10	1	-1E+10	1	-1E+10	1
4901784	103	C	04/30/2018	10:41	-132.339	43.363	0	1334.40	0	2.7160	0	34.6000	4	27.599	0	1319.538	0	23.5	4	7.2	4	-1E+10	1	-1E+10	1	-1E+10	1	-1E+10	1	-1E+10	1	-1E+10	1
4901784	103	C	04/30/2018	10:41	-132.339	43.363	0	1339.50	0	2.7140	0	34.6010	4	27.600	0	1324.566	0	23.6	4	7.2	4	-1E+10	1	-1E+10	1	-1E+10	1	-1E+10	1	-1E+10	1	-1E+10	1
4901784	103	C	04/30/2018	10:41	-132.339	43.363	0	1344.80	0	2.7110	0	34.6010	4	27.601	0	1329.790	0	23.7	4	7.3	4	-1E+10	1	-1E+10	1	-1E+10	1	-1E+10	1	-1E+10	1	-1E+10	1
4901784	103	C	04/30/2018	10:41	-132.339	43.363	0	1350.00	0	2.7020	0	34.6010	4	27.601	0	1334.915	0	24.0	4	7.4	4	-1E+10	1	-1E+10	1	-1E+10	1	-1E+10	1	-1E+10	1	-1E+10	1
4901784	103	C	04/30/2018	10:41	-132.339	43.363	0	1355.30	0	2.6870	0	34.6020	4	27.604	0	1340.139	0	24.3	4	7.4	4	-1E+10	1	-1E+10	1	-1E+10	1	-1E+10	1	-1E+10	1	-1E+10	1
4901784	103	C	04/30/2018	10:41	-132.339	43.363	0	1360.50	0	2.6720	0	34.6040	4	27.607	0	1345.264	0	24.6	4	7.5	4	-1E+10	1	-1E+10	1	-1E+10	1	-1E+10	1	-1E+10	1	-1E+10	1
4901784	103	C	04/30/2018	10:41	-132.339	43.363	0	1364.90	0	2.6590	0	34.6050	4	27.608	0	1349.601	0	24.7	4	7.6	4	-1E+10	1	-1E+10	1	-1E+10	1	-1E+10	1	-1E+10	1	-1E+10	1
4901784	103	C	04/30/2018	10:41	-132.339	43.363	0	1369.30	0	2.6540	0	34.6060	4	27.610	0	1353.938	0	24.8	4	7.6	4	-1E+10	1	-1E+10	1	-1E+10	1	-1E+10	1	-1E+10	1	-1E+10	1
4901784	103	C	04/30/2018	10:41	-132.339	43.363	0	1374.40	0	2.6470	0	34.6060	4	27.610	0	1358.964	0	24.9	4	7.6	4	-1E+10	1	-1E+10	1	-1E+10	1	-1E+10	1	-1E+10	1	-1E+10	1
4901784	103	C	04/30/2018	10:41	-132.339	43.363	0	1379.60	0	2.6440	0	34.6060	4	27.611	0	1364.089	0	25.0	4	7.7	4	-1E+10	1	-1E+10	1	-1E+10	1	-1E+10	1	-1E+10	1	-1E+10	1
4901784	103	C	04/30/2018	10:41	-132.339	43.363	0	1384.90	0	2.6370	0	34.6070	4	27.612	0	1369.312	0	25.2	4	7.7	4	-1E+10	1	-1E+10	1	-1E+10	1	-1E+10	1	-1E+10	1	-1E+10	1
4901784	103	C	04/30/2018	10:41	-132.339	43.363	0	1390.30	0	2.6330	0	34.6070	4	27.612	0	1374.634	0	25.4	4	7.8	4	-1E+10	1	-1E+10	1	-1E+10	1	-1E+10	1	-1E+10	1	-1E+10	1
4901784	103	C	04/30/2018	10:41	-132.339	43.363	0	1395.70	0	2.6210	0	34.6080	4	27.614	0	1379.955	0	25.7	4	7.9	4	-1E+10	1	-1E+10	1	-1E+10	1	-1E+10	1	-1E+10	1	-1E+10	1
4901784	103	C	04/30/2018	10:41	-132.339	43.363	0	1400.20	0	2.6060	0	34.6100	4	27.617	0	1384.390	0	26.0	4	8.0	4	-1E+10	1	-1E+10	1	-1E+10	1	-1E+10	1	-1E+10	1	-1E+10	1
4901784	103	C	04/30/2018	10:41	-132.339	43.363	0	1404.80	0	2.5960	0	34.6110	4	27.619	0	1388.923	0	26.2	4	8.0	4	-1E+10	1	-1E+10	1	-1E+10	1	-1E+10	1	-1E+10	1	-1E+10	1
4901784	103	C	04/30/2018	10:41	-132.339	43.363	0	1410.20	0	2.5890	0	34.6110	4	27.620	0	1394.244	0	26.4	4	8.1	4	-1E+10	1	-1E+10	1	-1E+10	1	-1E+10	1	-1E+10	1	-1E+10	1
4901784	103	C	04/30/2018	10:41	-132.339	43.363	0	1415.60	0	2.5810	0	34.6120	4	27.621	0	1399.565	0	26.6	4	8.1	4	-1E+10	1	-1E+10	1	-1E+10	1	-1E+10	1	-1E+10	1	-1E+10	1
4901784	103	C	04/30/2018	10:41	-132.339	43.363	0	1420.30	0	2.5750	0	34.6120	4	27.622	0	1404.196	0	26.8	4	8.2	4	-1E+10	1	-1E+10	1	-1E+10	1	-1E+10	1	-1E+10	1	-1E+10	1
4901784	103	C	04/30/2018	10:41	-132.339	43.363	0	1424.80	0	2.5640	0	34.6140	4	27.624	0	1408.630	0	27.0	4	8.3	4	-1E+10	1	-1E+10	1	-1E+10	1	-1E+10	1	-1E+10	1	-1E+10	1
4901784	103	C	04/30/2018	10:41	-132.339	43.363	0	1429.60	0	2.5530	0	34.6150	4	27.626	0	1413.359	0	27.3	4	8.3	4	-1E+10	1	-1E+10	1	-1E+10	1	-1E+10	1	-1E+10	1	-1E+10	1
4901784	103	C	04/30/2018	10:41	-132.339	43.363	0	1434.50	0	2.5470	0	34.6160	4	27.627	0	1418.187	0	27.5	4	8.4	4	-1E+10	1	-1E+10	1	-1E+10	1	-1E+10	1	-1E+10	1	-1E+10	1
4901784	103	C	04/30/2018	10:41	-132.339	43.363	0	1439.40	0	2.5390	0	34.6160	4	27.628	0	1423.015	0	27.8	4	8.5	4	-1E+10	1	-1E+10	1	-1E+10	1	-1E+10	1	-1E+10	1	-1E+10	1
4901784	103	C	04/30/2018	10:41	-132.339	43.363	0	1444.30	0	2.5250	0	34.6180	4	27.631	0	1427.843	0	28.0	4	8.6	4	-1E+10	1	-1E+10	1	-1E+10	1	-1E+10	1	-1E+10	1	-1E+10	1
4901784	103	C	04/30/2018	10:41	-132.339	43.363	0	1449.30	0	2.5240	0	34.6180	4	27.631	0	1432.769	0	28.2	4	8.6	4	-1E+10	1	-1E+10	1	-1E+10	1	-1E+10	1	-1E+10	1	-1E+10	1
4901784	103	C	04/30/2018	10:41	-132.339	43.363	0	1454.50	0	2.5140	0	34.6190	4	27.633	0	1437.892	0	28.6	4	8.7	4	-1E+10	1	-1E+10	1	-1E+10	1	-1E+10	1	-1E+10	1	-1E+10	1
4901784	103	C	04/30/2018	10:41	-132.339	43.363	0	1459.60	0	2.5030	0	34.6200	4	27.634	0	1442.916	0	28.9	4	8.8	4	-1E+10	1	-1E+10	1	-1E+10	1	-1E+10	1	-1E+10	1	-1E+10	1
4901784	103	C	04/30/2018	10:41	-132.339	43.363	0	1464.80	0	2.4940	0	34.6210	4	27.636	0	1448.039	0	29.3	4	8.9	4	-1E+10	1	-1E+10	1	-1E+10	1	-1E+10	1	-1E+10	1	-1E+10	1
4901784	103	C	04/30/2018	10:41	-132.339	43.363	0	1469.90	0	2.4760	0	34.6230	4	27.639	0	1453.063	0	29.6	4	9.0	4	-1E+10	1	-1E+10	1	-1E+10	1	-1E+10	1	-1E+10	1	-1E+10	1
4901784	103	C	04/30/2018	10:41	-132.339	43.363	0	1475.10	0	2.4710	0	34.6230	4	27.639	0	1458.185	0	29.8	4	9.1	4	-1E+10	1	-1E+10	1	-1E+10	1	-1E+10	1	-1E+10	1	-1E+10	1
4901784	103	C	04/30/2018	10:41	-132.339	43.363	0	1480.40	0	2.4650	0	34.6240	4	27.641	0	1463.406	0	30.0	4	9.2	4	-1E+10	1	-1E+10	1	-1E+10	1	-1E+10	1	-1E+10	1	-1E+10	1
4901784	103	C	04/30/2018	10:41	-132.339	43.363	0	1485.60	0	2.4570	0	34.6250	4	27.642	0	1468.528	0	30.3	4	9.2	4	-1E+10	1	-1E+10	1	-1E+10	1	-1E+10	1	-1E+10	1	-1E+10	1
4901784	103	C	04/30/2018	10:41	-132.339	43.363	0	1490.10	0	2.4520	0	34.6260	4	27.643	0	1472.961	0	30.5	4	9.3	4	-1E+10	1	-1E+10	1	-1E+10	1	-1E+10	1	-1E+10	1	-1E+10	1
4901784	103	C	04/30/2018	10:41	-132.339	43.363	0	1494.60	0	2.4450	0	34.6270	4	27.645	0	1477.394	0	30.7	4	9.4	4	-1E+10	1	-1E+10	1	-1E+10	1	-1E+10	1	-1E+10	1	-1E+10	1
4901784	103	C	04/30/2018	10:41	-132.339	43.363	0	1500.60	0	2.4400	0	34.6270	4	27.645	0	1483.303	0	30.9	4	9.4	4	-1E+10	1	-1E+10	1	-1E+10	1	-1E+10	1	-1E+10	1	-1E+10	1
4901784	103	C	04/30/2018	10:41	-132.339	43.363	0	1505.50	0	2.4330	0	34.6280	4	27.647	0	1488.130	0	31.1	4	9.5	4	-1E+10	1	-1E+10	1	-1E+10	1	-1E+10	1	-1E+10	1	-1E+10	1
4901784	103	C	04/30/2018	10:41	-132.339	43.363	0	1510.20	0	2.4280	0	34.6290	4	27.648	0	1492.759	0	31.4	4	9.6	4	-1E+10	1	-1E+10	1	-1E+10	1	-1E+10	1	-1E+10	1	-1E+10	1
4901784	103	C	04/30/2018	10:41	-132.339	43.363	0	1515.00	0	2.4250	0	34.6300	4	27.649	0	1497.487	0	31.6	4	9.6	4	-1E+10	1	-1E+10	1	-1E+10	1	-1E+10	1	-1E+10	1	-1E+10	1
4901784	103	C	04/30/2018	10:41	-132.339	43.363	0	1519.80	0	2.4220	0	34.6300	4	27.649	0	1502.214	0	31.8	4	9.7	4	-1E+10	1	-1E+10	1	-1E+10	1	-1E+10	1	-1E+10	1	-1E+10	1
4901784	103	C	04/30/2018	10:41	-132.339	43.363	0	1524.70	0	2.4190	0	34.6310	4	27.650	0	1507.040	0	32.0	4	9.8	4	-1E+10	1	-1E+10	1	-1E+10	1	-1E+10	1	-1E+10	1	-1E+10	1
4901784	103	C	04/30/2018	10:41	-132.339	43.363	0	1529.70	0	2.4160	0	34.6310	4	27.651	0	1511.964	0	32.2	4	9.8	4	-1E+10	1	-1E+10	1	-1E+10	1	-1E+10	1	-1E+10	1	-1E+10	1
4901784	103	C	04/30/2018	10:41	-132.339	43.363	0	1534.80	0	2.4110	0	34.6320	4	27.652	0	1516.987	0	32.5	4	9.9	4	-1E+10	1	-1E+10	1	-1E+10	1	-1E+10	1	-1E+10	1	-1E+10	1
4901784	103	C	04/30/2018	10:41	-132.339	43.363	0	1539.90	0	2.4050	0	34.6330	4	27.653	0	1522.009	0	32.8	4	10.0	4	-1E+10	1	-1E+10	1	-1E+10	1	-1E+10	1	-1E+10	1	-1E+10	1
4901784	103	C	04/30/2018	10:41	-132.339	43.363	0	1545.00	0	2.3960	0	34.6340	4	27.655	0	1527.031	0	33.2	4	10.1	4	-1E+10	1	-1E+10	1	-1E+10	1	-1E+10	1	-1E+10	1	-1E+10	1
4901784	103	C	04/30/2018	10:41	-132.339	43.363	0	1550.20	0	2.3900	0	34.6350	4	27.656	0	1532.152	0	33.4	4	10.2	4	-1E+10	1	-1E+10	1	-1E+10	1	-1E+10	1	-1E+10	1	-1E+10	1
4901784	103	C	04/30/2018	10:41	-132.339	43.363	0	1555.50	0	2.3830	0	34.6360	4	27.658	0	1537.371	0	33.6	4	10.2	4	-1E+10	1	-1E+10	1	-1E+10	1	-1E+10	1	-1E+10	1	-1E+10	1
4901784	103	C	04/30/2018	10:41	-132.339	43.363	0	1559.90	0	2.3790	0	34.6360	4	27.658	0	1541.704	0	33.8	4	10.3	4	-1E+10	1	-1E+10	1	-1E+10	1	-1E+10	1	-1E+10	1	-1E+10	1
4901784	103	C	04/30/2018	10:41	-132.339	43.363	0	1564.30	0	2.3720	0	34.6370	4	27.659	0	1546.037	0	34.1	4	10.4	4	-1E+10	1	-1E+10	1	-1E+10	1	-1E+10	1	-1E+10	1	-1E+10	1
4901784	103	C	04/30/2018	10:41	-132.339	43.363	0	1569.70	0	2.3620	0	34.6380	4	27.661	0	1551.354	0	34.4	4	10.5	4	-1E+10	1	-1E+10	1	-1E+10	1	-1E+10	1	-1E+10	1	-1E+10	1
4901784	103	C	04/30/2018	10:41	-132.339	43.363	0	1575.10	0	2.3530	0	34.6390	4	27.663	0	1556.671	0	34.6	4	10.5	4	-1E+10	1	-1E+10	1	-1E+10	1	-1E+10	1	-1E+10	1	-1E+10	1
4901784	103	C	04/30/2018	10:41	-132.339	43.363	0	1580.50	0	2.3500	0	34.6390	4	27.663	0	1561.988	0	34.8	4	10.6	4	-1E+10	1	-1E+10	1	-1E+10	1	-1E+10	1	-1E+10	1	-1E+10	1
4901784	103	C	04/30/2018	10:41	-132.339	43.363	0	1585.00	0	2.3450	0	34.6400	4	27.664	0	1566.418	0	35.1	4	10.7	4	-1E+10	1	-1E+10	1	-1E+10	1	-1E+10	1	-1E+10	1	-1E+10	1
4901784	103	C	04/30/2018	10:41	-132.339	43.363	0	1589.50	0	2.3370	0	34.6410	4	27.666	0	1570.849	0	35.3	4	10.7	4	-1E+10	1	-1E+10	1	-1E+10	1	-1E+10	1	-1E+10	1	-1E+10	1
4901784	103	C	04/30/2018	10:41	-132.339	43.363	0	1594.90	0	2.3330	0	34.6410	4	27.666	0	1576.165	0	35.6	4	10.8	4	-1E+10	1	-1E+10	1	-1E+10	1	-1E+10	1	-1E+10	1	-1E+10	1
4901784	103	C	04/30/2018	10:41	-132.339	43.363	0	1600.50	0	2.3280	0	34.6420	4	27.667	0	1581.679	0	35.9	4	10.9	4	-1E+10	1	-1E+10	1	-1E+10	1	-1E+10	1	-1E+10	1	-1E+10	1
4901784	103	C	04/30/2018	10:41	-132.339	43.363	0	1605.00	0	2.3230	0	34.6430	4	27.668	0	1586.109	0	36.3	4	11.0	4	-1E+10	1	-1E+10	1	-1E+10	1	-1E+10	1	-1E+10	1	-1E+10	1
4901784	103	C	04/30/2018	10:41	-132.339	43.363	0	1609.60	0	2.3090	0	34.6440	4	27.670	0	1590.637	0	36.8	4	11.2	4	-1E+10	1	-1E+10	1	-1E+10	1	-1E+10	1	-1E+10	1	-1E+10	1
4901784	103	C	04/30/2018	10:41	-132.339	43.363	0	1615.20	0	2.2920	0	34.6460	4	27.673	0	1596.150	0	37.3	4	11.3	4	-1E+10	1	-1E+10	1	-1E+10	1	-1E+10	1	-1E+10	1	-1E+10	1
4901784	103	C	04/30/2018	10:41	-132.339	43.363	0	1619.90	0	2.2870	0	34.6470	4	27.675	0	1600.777	0	37.6	4	11.4	4	-1E+10	1	-1E+10	1	-1E+10	1	-1E+10	1	-1E+10	1	-1E+10	1
4901784	103	C	04/30/2018	10:41	-132.339	43.363	0	1624.60	0	2.2820	0	34.6470	4	27.675	0	1605.404	0	37.8	4	11.5	4	-1E+10	1	-1E+10	1	-1E+10	1	-1E+10	1	-1E+10	1	-1E+10	1
4901784	103	C	04/30/2018	10:41	-132.339	43.363	0	1630.10	0	2.2720	0	34.6490	4	27.677	0	1610.818	0	38.2	4	11.6	4	-1E+10	1	-1E+10	1	-1E+10	1	-1E+10	1	-1E+10	1	-1E+10	1
4901784	103	C	04/30/2018	10:41	-132.339	43.363	0	1635.50	0	2.2690	0	34.6500	4	27.679	0	1616.134	0	38.5	4	11.7	4	-1E+10	1	-1E+10	1	-1E+10	1	-1E+10	1	-1E+10	1	-1E+10	1
4901784	103	C	04/30/2018	10:41	-132.339	43.363	0	1640.40	0	2.2640	0	34.6500	4	27.679	0	1620.957	0	38.7	4	11.8	4	-1E+10	1	-1E+10	1	-1E+10	1	-1E+10	1	-1E+10	1	-1E+10	1
4901784	103	C	04/30/2018	10:41	-132.339	43.363	0	1645.30	0	2.2540	0	34.6510	4	27.681	0	1625.780	0	39.1	4	11.9	4	-1E+10	1	-1E+10	1	-1E+10	1	-1E+10	1	-1E+10	1	-1E+10	1
4901784	103	C	04/30/2018	10:41	-132.339	43.363	0	1650.20	0	2.2510	0	34.6520	4	27.682	0	1630.603	0	39.3	4	11.9	4	-1E+10	1	-1E+10	1	-1E+10	1	-1E+10	1	-1E+10	1	-1E+10	1
4901784	103	C	04/30/2018	10:41	-132.339	43.363	0	1655.20	0	2.2480	0	34.6520	4	27.682	0	1635.524	0	39.5	4	12.0	4	-1E+10	1	-1E+10	1	-1E+10	1	-1E+10	1	-1E+10	1	-1E+10	1
4901784	103	C	04/30/2018	10:41	-132.339	43.363	0	1660.20	0	2.2430	0	34.6530	4	27.683	0	1640.445	0	40.0	4	12.1	4	-1E+10	1	-1E+10	1	-1E+10	1	-1E+10	1	-1E+10	1	-1E+10	1
4901784	103	C	04/30/2018	10:41	-132.339	43.363	0	1665.20	0	2.2390	0	34.6540	4	27.684	0	1645.367	0	40.1	4	12.2	4	-1E+10	1	-1E+10	1	-1E+10	1	-1E+10	1	-1E+10	1	-1E+10	1
4901784	103	C	04/30/2018	10:41	-132.339	43.363	0	1670.30	0	2.2350	0	34.6550	4	27.686	0	1650.386	0	40.4	4	12.3	4	-1E+10	1	-1E+10	1	-1E+10	1	-1E+10	1	-1E+10	1	-1E+10	1
4901784	103	C	04/30/2018	10:41	-132.339	43.363	0	1675.30	0	2.2280	0	34.6550	4	27.686	0	1655.307	0	40.7	4	12.3	4	-1E+10	1	-1E+10	1	-1E+10	1	-1E+10	1	-1E+10	1	-1E+10	1
4901784	103	C	04/30/2018	10:41	-132.339	43.363	0	1680.40	0	2.2200	0	34.6560	4	27.688	0	1660.326	0	41.1	4	12.5	4	-1E+10	1	-1E+10	1	-1E+10	1	-1E+10	1	-1E+10	1	-1E+10	1
4901784	103	C	04/30/2018	10:41	-132.339	43.363	0	1685.50	0	2.2120	0	34.6570	4	27.689	0	1665.345	0	41.4	4	12.6	4	-1E+10	1	-1E+10	1	-1E+10	1	-1E+10	1	-1E+10	1	-1E+10	1
4901784	103	C	04/30/2018	10:41	-132.339	43.363	0	1690.60	0	2.2050	0	34.6580	4	27.690	0	1670.364	0	41.7	4	12.7	4	-1E+10	1	-1E+10	1	-1E+10	1	-1E+10	1	-1E+10	1	-1E+10	1
4901784	103	C	04/30/2018	10:41	-132.339	43.363	0	1695.70	0	2.1980	0	34.6590	4	27.692	0	1675.383	0	42.1	4	12.8	4	-1E+10	1	-1E+10	1	-1E+10	1	-1E+10	1	-1E+10	1	-1E+10	1
4901784	103	C	04/30/2018	10:41	-132.339	43.363	0	1700.00	0	2.1950	0	34.6600	4	27.693	0	1679.614	0	42.3	4	12.8	4	-1E+10	1	-1E+10	1	-1E+10	1	-1E+10	1	-1E+10	1	-1E+10	1
4901784	103	C	04/30/2018	10:41	-132.339	43.363	0	1704.30	0	2.1930	0	34.6600	4	27.693	0	1683.846	0	42.5	4	12.9	4	-1E+10	1	-1E+10	1	-1E+10	1	-1E+10	1	-1E+10	1	-1E+10	1
4901784	103	C	04/30/2018	10:41	-132.339	43.363	0	1709.40	0	2.1880	0	34.6600	4	27.694	0	1688.864	0	42.9	4	13.0	4	-1E+10	1	-1E+10	1	-1E+10	1	-1E+10	1	-1E+10	1	-1E+10	1
4901784	103	C	04/30/2018	10:41	-132.339	43.363	0	1714.50	0	2.1790	0	34.6620	4	27.696	0	1693.883	0	43.4	4	13.2	4	-1E+10	1	-1E+10	1	-1E+10	1	-1E+10	1	-1E+10	1	-1E+10	1
4901784	103	C	04/30/2018	10:41	-132.339	43.363	0	1719.70	0	2.1690	0	34.6630	4	27.697	0	1698.999	0	43.8	4	13.3	4	-1E+10	1	-1E+10	1	-1E+10	1	-1E+10	1	-1E+10	1	-1E+10	1
4901784	103	C	04/30/2018	10:41	-132.339	43.363	0	1724.90	0	2.1640	0	34.6640	4	27.699	0	1704.116	0	44.1	4	13.4	4	-1E+10	1	-1E+10	1	-1E+10	1	-1E+10	1	-1E+10	1	-1E+10	1
4901784	103	C	04/30/2018	10:41	-132.339	43.363	0	1730.20	0	2.1580	0	34.6640	4	27.699	0	1709.331	0	44.4	4	13.4	4	-1E+10	1	-1E+10	1	-1E+10	1	-1E+10	1	-1E+10	1	-1E+10	1
4901784	103	C	04/30/2018	10:41	-132.339	43.363	0	1735.50	0	2.1560	0	34.6640	4	27.699	0	1714.545	0	44.6	4	13.5	4	-1E+10	1	-1E+10	1	-1E+10	1	-1E+10	1	-1E+10	1	-1E+10	1
4901784	103	C	04/30/2018	10:41	-132.339	43.363	0	1739.90	0	2.1530	0	34.6650	4	27.700	0	1718.874	0	44.9	4	13.6	4	-1E+10	1	-1E+10	1	-1E+10	1	-1E+10	1	-1E+10	1	-1E+10	1
4901784	103	C	04/30/2018	10:41	-132.339	43.363	0	1744.30	0	2.1490	0	34.6650	4	27.701	0	1723.203	0	45.3	4	13.7	4	-1E+10	1	-1E+10	1	-1E+10	1	-1E+10	1	-1E+10	1	-1E+10	1
4901784	103	C	04/30/2018	10:41	-132.339	43.363	0	1749.60	0	2.1410	0	34.6670	4	27.703	0	1728.418	0	45.7	4	13.8	4	-1E+10	1	-1E+10	1	-1E+10	1	-1E+10	1	-1E+10	1	-1E+10	1
4901784	103	C	04/30/2018	10:41	-132.339	43.363	0	1755.00	0	2.1360	0	34.6670	4	27.704	0	1733.730	0	46.1	4	13.9	4	-1E+10	1	-1E+10	1	-1E+10	1	-1E+10	1	-1E+10	1	-1E+10	1
4901784	103	C	04/30/2018	10:41	-132.339	43.363	0	1760.40	0	2.1300	0	34.6680	4	27.705	0	1739.043	0	46.3	4	14.0	4	-1E+10	1	-1E+10	1	-1E+10	1	-1E+10	1	-1E+10	1	-1E+10	1
4901784	103	C	04/30/2018	10:41	-132.339	43.363	0	1764.90	0	2.1220	0	34.6680	4	27.705	0	1743.470	0	46.6	4	14.1	4	-1E+10	1	-1E+10	1	-1E+10	1	-1E+10	1	-1E+10	1	-1E+10	1
4901784	103	C	04/30/2018	10:41	-132.339	43.363	0	1769.30	0	2.1140	0	34.6690	4	27.707	0	1747.798	0	46.9	4	14.2	4	-1E+10	1	-1E+10	1	-1E+10	1	-1E+10	1	-1E+10	1	-1E+10	1
4901784	103	C	04/30/2018	10:41	-132.339	43.363	0	1774.70	0	2.1090	0	34.6690	4	27.707	0	1753.110	0	47.1	4	14.3	4	-1E+10	1	-1E+10	1	-1E+10	1	-1E+10	1	-1E+10	1	-1E+10	1
4901784	103	C	04/30/2018	10:41	-132.339	43.363	0	1780.10	0	2.1060	0	34.6700	4	27.708	0	1758.422	0	47.4	4	14.3	4	-1E+10	1	-1E+10	1	-1E+10	1	-1E+10	1	-1E+10	1	-1E+10	1
4901784	103	C	04/30/2018	10:41	-132.339	43.363	0	1785.50	0	2.1000	0	34.6710	4	27.710	0	1763.734	0	47.8	4	14.5	4	-1E+10	1	-1E+10	1	-1E+10	1	-1E+10	1	-1E+10	1	-1E+10	1
4901784	103	C	04/30/2018	10:41	-132.339	43.363	0	1790.10	0	2.0940	0	34.6720	4	27.711	0	1768.259	0	48.0	4	14.5	4	-1E+10	1	-1E+10	1	-1E+10	1	-1E+10	1	-1E+10	1	-1E+10	1
4901784	103	C	04/30/2018	10:41	-132.339	43.363	0	1794.70	0	2.0910	0	34.6720	4	27.711	0	1772.783	0	48.2	4	14.6	4	-1E+10	1	-1E+10	1	-1E+10	1	-1E+10	1	-1E+10	1	-1E+10	1
4901784	103	C	04/30/2018	10:41	-132.339	43.363	0	1800.10	0	2.0870	0	34.6730	4	27.712	0	1778.095	0	48.6	4	14.7	4	-1E+10	1	-1E+10	1	-1E+10	1	-1E+10	1	-1E+10	1	-1E+10	1
4901784	103	C	04/30/2018	10:41	-132.339	43.363	0	1805.30	0	2.0810	0	34.6740	4	27.714	0	1783.210	0	49.0	4	14.8	4	-1E+10	1	-1E+10	1	-1E+10	1	-1E+10	1	-1E+10	1	-1E+10	1
4901784	103	C	04/30/2018	10:41	-132.339	43.363	0	1809.50	0	2.0750	0	34.6740	4	27.714	0	1787.340	0	49.3	4	14.9	4	-1E+10	1	-1E+10	1	-1E+10	1	-1E+10	1	-1E+10	1	-1E+10	1
4901784	103	C	04/30/2018	10:41	-132.339	43.363	0	1815.00	0	2.0670	0	34.6760	4	27.717	0	1792.750	0	49.5	4	15.0	4	-1E+10	1	-1E+10	1	-1E+10	1	-1E+10	1	-1E+10	1	-1E+10	1
4901784	103	C	04/30/2018	10:41	-132.339	43.363	0	1820.60	0	2.0670	0	34.6760	4	27.717	0	1798.258	0	49.6	4	15.0	4	-1E+10	1	-1E+10	1	-1E+10	1	-1E+10	1	-1E+10	1	-1E+10	1
4901784	103	C	04/30/2018	10:41	-132.339	43.363	0	1825.50	0	2.0660	0	34.6760	4	27.717	0	1803.077	0	49.8	4	15.0	4	-1E+10	1	-1E+10	1	-1E+10	1	-1E+10	1	-1E+10	1	-1E+10	1
4901784	103	C	04/30/2018	10:41	-132.339	43.363	0	1830.40	0	2.0630	0	34.6760	4	27.717	0	1807.896	0	50.0	4	15.1	4	-1E+10	1	-1E+10	1	-1E+10	1	-1E+10	1	-1E+10	1	-1E+10	1
4901784	103	C	04/30/2018	10:41	-132.339	43.363	0	1835.30	0	2.0600	0	34.6760	4	27.717	0	1812.715	0	50.3	4	15.2	4	-1E+10	1	-1E+10	1	-1E+10	1	-1E+10	1	-1E+10	1	-1E+10	1
4901784	103	C	04/30/2018	10:41	-132.339	43.363	0	1840.20	0	2.0540	0	34.6780	4	27.719	0	1817.533	0	50.6	4	15.3	4	-1E+10	1	-1E+10	1	-1E+10	1	-1E+10	1	-1E+10	1	-1E+10	1
4901784	103	C	04/30/2018	10:41	-132.339	43.363	0	1845.10	0	2.0520	0	34.6780	4	27.719	0	1822.352	0	50.7	4	15.3	4	-1E+10	1	-1E+10	1	-1E+10	1	-1E+10	1	-1E+10	1	-1E+10	1
4901784	103	C	04/30/2018	10:41	-132.339	43.363	0	1850.00	0	2.0490	0	34.6780	4	27.720	0	1827.170	0	50.9	4	15.4	4	-1E+10	1	-1E+10	1	-1E+10	1	-1E+10	1	-1E+10	1	-1E+10	1
4901784	103	C	04/30/2018	10:41	-132.339	43.363	0	1855.00	0	2.0460	0	34.6790	4	27.721	0	1832.087	0	51.2	4	15.5	4	-1E+10	1	-1E+10	1	-1E+10	1	-1E+10	1	-1E+10	1	-1E+10	1
4901784	103	C	04/30/2018	10:41	-132.339	43.363	0	1859.90	0	2.0430	0	34.6800	4	27.722	0	1836.906	0	51.5	4	15.6	4	-1E+10	1	-1E+10	1	-1E+10	1	-1E+10	1	-1E+10	1	-1E+10	1
4901784	103	C	04/30/2018	10:41	-132.339	43.363	0	1864.90	0	2.0380	0	34.6800	4	27.722	0	1841.822	0	51.9	4	15.7	4	-1E+10	1	-1E+10	1	-1E+10	1	-1E+10	1	-1E+10	1	-1E+10	1
4901784	103	C	04/30/2018	10:41	-132.339	43.363	0	1869.90	0	2.0330	0	34.6810	4	27.723	0	1846.739	0	52.1	4	15.7	4	-1E+10	1	-1E+10	1	-1E+10	1	-1E+10	1	-1E+10	1	-1E+10	1
4901784	103	C	04/30/2018	10:41	-132.339	43.363	0	1874.90	0	2.0320	0	34.6820	4	27.724	0	1851.655	0	52.3	4	15.8	4	-1E+10	1	-1E+10	1	-1E+10	1	-1E+10	1	-1E+10	1	-1E+10	1
4901784	103	C	04/30/2018	10:41	-132.339	43.363	0	1879.90	0	2.0270	0	34.6820	4	27.725	0	1856.571	0	52.6	4	15.9	4	-1E+10	1	-1E+10	1	-1E+10	1	-1E+10	1	-1E+10	1	-1E+10	1
4901784	103	C	04/30/2018	10:41	-132.339	43.363	0	1885.00	0	2.0190	0	34.6830	4	27.726	0	1861.585	0	53.0	4	16.0	4	-1E+10	1	-1E+10	1	-1E+10	1	-1E+10	1	-1E+10	1	-1E+10	1
4901784	103	C	04/30/2018	10:41	-132.339	43.363	0	1890.10	0	2.0130	0	34.6840	4	27.728	0	1866.600	0	53.2	4	16.1	4	-1E+10	1	-1E+10	1	-1E+10	1	-1E+10	1	-1E+10	1	-1E+10	1
4901784	103	C	04/30/2018	10:41	-132.339	43.363	0	1895.20	0	2.0090	0	34.6840	4	27.728	0	1871.614	0	53.4	4	16.1	4	-1E+10	1	-1E+10	1	-1E+10	1	-1E+10	1	-1E+10	1	-1E+10	1
4901784	103	C	04/30/2018	10:41	-132.339	43.363	0	1900.40	0	2.0070	0	34.6840	4	27.728	0	1876.726	0	53.5	4	16.2	4	-1E+10	1	-1E+10	1	-1E+10	1	-1E+10	1	-1E+10	1	-1E+10	1
4901784	103	C	04/30/2018	10:41	-132.339	43.363	0	1905.50	0	2.0030	0	34.6850	4	27.729	0	1881.740	0	53.8	4	16.2	4	-1E+10	1	-1E+10	1	-1E+10	1	-1E+10	1	-1E+10	1	-1E+10	1
4901784	103	C	04/30/2018	10:41	-132.339	43.363	0	1910.60	0	1.9990	0	34.6850	4	27.730	0	1886.754	0	54.0	4	16.3	4	-1E+10	1	-1E+10	1	-1E+10	1	-1E+10	1	-1E+10	1	-1E+10	1
4901784	103	C	04/30/2018	10:41	-132.339	43.363	0	1914.90	0	1.9960	0	34.6860	4	27.731	0	1890.981	0	54.2	4	16.4	4	-1E+10	1	-1E+10	1	-1E+10	1	-1E+10	1	-1E+10	1	-1E+10	1
4901784	103	C	04/30/2018	10:41	-132.339	43.363	0	1919.20	0	1.9930	0	34.6860	4	27.731	0	1895.208	0	54.4	4	16.4	4	-1E+10	1	-1E+10	1	-1E+10	1	-1E+10	1	-1E+10	1	-1E+10	1
4901784	103	C	04/30/2018	10:41	-132.339	43.363	0	1924.50	0	1.9910	0	34.6870	4	27.732	0	1900.419	0	54.6	4	16.5	4	-1E+10	1	-1E+10	1	-1E+10	1	-1E+10	1	-1E+10	1	-1E+10	1
4901784	103	C	04/30/2018	10:41	-132.339	43.363	0	1929.70	0	1.9910	0	34.6870	4	27.732	0	1905.530	0	54.8	4	16.5	4	-1E+10	1	-1E+10	1	-1E+10	1	-1E+10	1	-1E+10	1	-1E+10	1
4901784	103	C	04/30/2018	10:41	-132.339	43.363	0	1935.00	0	1.9870	0	34.6870	4	27.732	0	1910.740	0	55.2	4	16.6	4	-1E+10	1	-1E+10	1	-1E+10	1	-1E+10	1	-1E+10	1	-1E+10	1
4901784	103	C	04/30/2018	10:41	-132.339	43.363	0	1940.20	0	1.9800	0	34.6890	4	27.734	0	1915.851	0	55.5	4	16.7	4	-1E+10	1	-1E+10	1	-1E+10	1	-1E+10	1	-1E+10	1	-1E+10	1
4901784	103	C	04/30/2018	10:41	-132.339	43.363	0	1945.50	0	1.9770	0	34.6890	4	27.735	0	1921.061	0	55.7	4	16.8	4	-1E+10	1	-1E+10	1	-1E+10	1	-1E+10	1	-1E+10	1	-1E+10	1
4901784	103	C	04/30/2018	10:41	-132.339	43.363	0	1950.00	0	1.9720	0	34.6900	4	27.736	0	1925.484	0	55.9	4	16.9	4	-1E+10	1	-1E+10	1	-1E+10	1	-1E+10	1	-1E+10	1	-1E+10	1
4901784	103	C	04/30/2018	10:41	-132.339	43.363	0	1954.30	0	1.9700	0	34.6900	4	27.736	0	1929.711	0	56.1	4	16.9	4	-1E+10	1	-1E+10	1	-1E+10	1	-1E+10	1	-1E+10	1	-1E+10	1
4901784	103	C	04/30/2018	10:41	-132.339	43.363	0	1959.60	0	1.9670	0	34.6900	4	27.736	0	1934.920	0	56.4	4	17.0	4	-1E+10	1	-1E+10	1	-1E+10	1	-1E+10	1	-1E+10	1	-1E+10	1
4901784	103	C	04/30/2018	10:41	-132.339	43.363	0	1964.90	0	1.9630	0	34.6910	4	27.737	0	1940.129	0	56.6	4	17.1	4	-1E+10	1	-1E+10	1	-1E+10	1	-1E+10	1	-1E+10	1	-1E+10	1
4901784	103	C	04/30/2018	10:41	-132.339	43.363	0	1970.30	0	1.9590	0	34.6920	4	27.739	0	1945.436	0	56.8	4	17.1	4	-1E+10	1	-1E+10	1	-1E+10	1	-1E+10	1	-1E+10	1	-1E+10	1
4901784	103	C	04/30/2018	10:41	-132.339	43.363	0	1975.70	0	1.9570	0	34.6920	4	27.739	0	1950.743	0	57.0	4	17.2	4	-1E+10	1	-1E+10	1	-1E+10	1	-1E+10	1	-1E+10	1	-1E+10	1
4901784	103	C	04/30/2018	10:41	-132.339	43.363	0	1980.10	0	1.9530	0	34.6930	4	27.740	0	1955.068	0	57.2	4	17.2	4	-1E+10	1	-1E+10	1	-1E+10	1	-1E+10	1	-1E+10	1	-1E+10	1
4901784	103	C	04/30/2018	10:41	-132.339	43.363	0	1984.60	0	1.9520	0	34.6930	4	27.740	0	1959.490	0	57.3	4	17.3	4	-1E+10	1	-1E+10	1	-1E+10	1	-1E+10	1	-1E+10	1	-1E+10	1
4901784	103	C	04/30/2018	10:41	-132.339	43.363	0	1990.00	0	1.9500	0	34.6940	4	27.741	0	1964.797	0	57.6	4	17.3	4	-1E+10	1	-1E+10	1	-1E+10	1	-1E+10	1	-1E+10	1	-1E+10	1
4901784	103	C	04/30/2018	10:41	-132.339	43.363	0	1995.40	0	1.9470	0	34.6940	4	27.741	0	1970.104	0	57.7	4	17.4	4	-1E+10	1	-1E+10	1	-1E+10	1	-1E+10	1	-1E+10	1	-1E+10	1
4901784	103	C	04/30/2018	10:41	-132.339	43.363	0	2000.40	0	1.9460	0	34.6940	4	27.741	0	1975.017	0	57.9	4	17.5	4	-1E+10	1	-1E+10	1	-1E+10	1	-1E+10	1	-1E+10	1	-1E+10	1
4901784	103	C	04/30/2018	10:41	-132.339	43.363	0	2004.50	0	1.9440	0	34.6950	4	27.742	0	1979.046	0	58.3	4	17.6	4	-1E+10	1	-1E+10	1	-1E+10	1	-1E+10	1	-1E+10	1	-1E+10	1
4901784	103	C	04/30/2018	10:41	-132.339	43.363	0	2010.20	0	1.9390	0	34.6960	4	27.744	0	1984.647	0	58.8	4	17.7	4	-1E+10	1	-1E+10	1	-1E+10	1	-1E+10	1	-1E+10	1	-1E+10	1
4901784	103	C	04/30/2018	10:41	-132.339	43.363	0	2015.60	0	1.9330	0	34.6970	4	27.745	0	1989.953	0	59.1	4	17.8	4	-1E+10	1	-1E+10	1	-1E+10	1	-1E+10	1	-1E+10	1	-1E+10	1
4901784	103	C	04/30/2018	10:41	-132.339	43.363	0	2020.30	0	1.9310	0	34.6970	4	27.745	0	1994.572	0	59.2	4	17.8	4	-1E+10	1	-1E+10	1	-1E+10	1	-1E+10	1	-1E+10	1	-1E+10	1
4901784	103	C	04/30/2018	10:41	-132.339	43.363	0																										
4901784	104	C	05/10/2018	10:46	-132.476	43.139	0	3.00	0	10.7690	0	32.7270	8	25.047	0	2.976	0	273.8	4	99.7	4	-1E+10	1	-1E+10	1	-1E+10	1	-1E+10	1	-1E+10	1	-1E+10	1
4901784	104	C	05/10/2018	10:46	-132.476	43.139	0	4.40	0	10.7700	0	32.7280	8	25.048	0	4.365	0	273.8	4	99.7	4	-1E+10	1	-1E+10	1	-1E+10	1	-1E+10	1	-1E+10	1	-1E+10	1
4901784	104	C	05/10/2018	10:46	-132.476	43.139	0	5.90	0	10.7700	0	32.7280	8	25.048	0	5.853	0	273.8	4	99.7	4	-1E+10	1	-1E+10	1	-1E+10	1	-1E+10	1	-1E+10	1	-1E+10	1
4901784	104	C	05/10/2018	10:46	-132.476	43.139	0	7.40	0	10.7720	0	32.7260	8	25.046	0	7.341	0	273.9	4	99.8	4	-1E+10	1	-1E+10	1	-1E+10	1	-1E+10	1	-1E+10	1	-1E+10	1
4901784	104	C	05/10/2018	10:46	-132.476	43.139	0	9.00	0	10.7680	0	32.7260	8	25.046	0	8.928	0	273.6	4	99.7	4	-1E+10	1	-1E+10	1	-1E+10	1	-1E+10	1	-1E+10	1	-1E+10	1
4901784	104	C	05/10/2018	10:46	-132.476	43.139	0	10.70	0	10.7740	0	32.7250	8	25.045	0	10.615	0	273.6	4	99.7	4	-1E+10	1	-1E+10	1	-1E+10	1	-1E+10	1	-1E+10	1	-1E+10	1
4901784	104	C	05/10/2018	10:46	-132.476	43.139	0	12.40	0	10.7720	0	32.7250	8	25.045	0	12.301	0	273.7	4	99.7	4	-1E+10	1	-1E+10	1	-1E+10	1	-1E+10	1	-1E+10	1	-1E+10	1
4901784	104	C	05/10/2018	10:46	-132.476	43.139	0	14.10	0	10.7720	0	32.7250	8	25.045	0	13.987	0	273.6	4	99.7	4	-1E+10	1	-1E+10	1	-1E+10	1	-1E+10	1	-1E+10	1	-1E+10	1
4901784	104	C	05/10/2018	10:46	-132.476	43.139	0	15.80	0	10.7720	0	32.7220	8	25.043	0	15.674	0	273.8	4	99.7	4	-1E+10	1	-1E+10	1	-1E+10	1	-1E+10	1	-1E+10	1	-1E+10	1
4901784	104	C	05/10/2018	10:46	-132.476	43.139	0	17.50	0	10.7670	0	32.7200	8	25.042	0	17.360	0	274.0	4	99.8	4	-1E+10	1	-1E+10	1	-1E+10	1	-1E+10	1	-1E+10	1	-1E+10	1
4901784	104	C	05/10/2018	10:46	-132.476	43.139	0	19.30	0	10.7580	0	32.7170	8	25.041	0	19.146	0	274.1	4	99.8	4	-1E+10	1	-1E+10	1	-1E+10	1	-1E+10	1	-1E+10	1	-1E+10	1
4901784	104	C	05/10/2018	10:46	-132.476	43.139	0	21.00	0	10.7260	0	32.7170	8	25.047	0	20.832	0	274.5	4	99.9	4	-1E+10	1	-1E+10	1	-1E+10	1	-1E+10	1	-1E+10	1	-1E+10	1
4901784	104	C	05/10/2018	10:46	-132.476	43.139	0	22.80	0	10.5180	0	32.7260	8	25.090	0	22.618	0	275.4	4	99.8	4	-1E+10	1	-1E+10	1	-1E+10	1	-1E+10	1	-1E+10	1	-1E+10	1
4901784	104	C	05/10/2018	10:46	-132.476	43.139	0	24.60	0	10.2820	0	32.7310	8	25.134	0	24.403	0	276.7	4	99.7	4	-1E+10	1	-1E+10	1	-1E+10	1	-1E+10	1	-1E+10	1	-1E+10	1
4901784	104	C	05/10/2018	10:46	-132.476	43.139	0	26.40	0	10.1850	0	32.7310	8	25.151	0	26.189	0	277.3	4	99.8	4	-1E+10	1	-1E+10	1	-1E+10	1	-1E+10	1	-1E+10	1	-1E+10	1
4901784	104	C	05/10/2018	10:46	-132.476	43.139	0	28.20	0	9.9680	0	32.7140	8	25.174	0	27.974	0	278.1	4	99.6	4	-1E+10	1	-1E+10	1	-1E+10	1	-1E+10	1	-1E+10	1	-1E+10	1
4901784	104	C	05/10/2018	10:46	-132.476	43.139	0	30.00	0	9.8730	0	32.7160	8	25.191	0	29.759	0	278.2	4	99.4	4	-1E+10	1	-1E+10	1	-1E+10	1	-1E+10	1	-1E+10	1	-1E+10	1
4901784	104	C	05/10/2018	10:46	-132.476	43.139	0	31.80	0	9.7710	0	32.7150	8	25.207	0	31.545	0	278.6	4	99.3	4	-1E+10	1	-1E+10	1	-1E+10	1	-1E+10	1	-1E+10	1	-1E+10	1
4901784	104	C	05/10/2018	10:46	-132.476	43.139	0	33.60	0	9.7040	0	32.7080	8	25.212	0	33.330	0	278.9	4	99.3	4	-1E+10	1	-1E+10	1	-1E+10	1	-1E+10	1	-1E+10	1	-1E+10	1
4901784	104	C	05/10/2018	10:46	-132.476	43.139	0	35.30	0	9.6400	0	32.7090	8	25.224	0	35.016	0	279.1	4	99.2	4	-1E+10	1	-1E+10	1	-1E+10	1	-1E+10	1	-1E+10	1	-1E+10	1
4901784	104	C	05/10/2018	10:46	-132.476	43.139	0	37.10	0	9.5780	0	32.7100	8	25.235	0	36.802	0	279.2	4	99.1	4	-1E+10	1	-1E+10	1	-1E+10	1	-1E+10	1	-1E+10	1	-1E+10	1
4901784	104	C	05/10/2018	10:46	-132.476	43.139	0	38.90	0	9.5650	0	32.7170	8	25.242	0	38.587	0	279.1	4	99.0	4	-1E+10	1	-1E+10	1	-1E+10	1	-1E+10	1	-1E+10	1	-1E+10	1
4901784	104	C	05/10/2018	10:46	-132.476	43.139	0	40.70	0	9.5630	0	32.7180	8	25.243	0	40.373	0	278.9	4	99.0	4	-1E+10	1	-1E+10	1	-1E+10	1	-1E+10	1	-1E+10	1	-1E+10	1
4901784	104	C	05/10/2018	10:46	-132.476	43.139	0	42.60	0	9.5440	0	32.7170	8	25.246	0	42.257	0	278.7	4	98.8	4	-1E+10	1	-1E+10	1	-1E+10	1	-1E+10	1	-1E+10	1	-1E+10	1
4901784	104	C	05/10/2018	10:46	-132.476	43.139	0	44.40	0	9.5580	0	32.7210	8	25.246	0	44.042	0	278.5	4	98.8	4	-1E+10	1	-1E+10	1	-1E+10	1	-1E+10	1	-1E+10	1	-1E+10	1
4901784	104	C	05/10/2018	10:46	-132.476	43.139	0	46.20	0	9.6040	0	32.7340	8	25.249	0	45.828	0	278.1	4	98.8	4	-1E+10	1	-1E+10	1	-1E+10	1	-1E+10	1	-1E+10	1	-1E+10	1
4901784	104	C	05/10/2018	10:46	-132.476	43.139	0	48.00	0	9.5830	0	32.7300	8	25.250	0	47.613	0	277.8	4	98.6	4	-1E+10	1	-1E+10	1	-1E+10	1	-1E+10	1	-1E+10	1	-1E+10	1
4901784	104	C	05/10/2018	10:46	-132.476	43.139	0	49.80	0	9.6200	0	32.7410	8	25.252	0	49.398	0	277.3	4	98.5	4	-1E+10	1	-1E+10	1	-1E+10	1	-1E+10	1	-1E+10	1	-1E+10	1
4901784	104	C	05/10/2018	10:46	-132.476	43.139	0	51.70	0	9.6640	0	32.7420	8	25.246	0	51.283	0	276.8	4	98.5	4	-1E+10	1	-1E+10	1	-1E+10	1	-1E+10	1	-1E+10	1	-1E+10	1
4901784	104	C	05/10/2018	10:46	-132.476	43.139	0	53.50	0	9.6870	0	32.7490	8	25.248	0	53.068	0	276.2	4	98.3	4	-1E+10	1	-1E+10	1	-1E+10	1	-1E+10	1	-1E+10	1	-1E+10	1
4901784	104	C	05/10/2018	10:46	-132.476	43.139	0	55.30	0	9.7300	0	32.7600	8	25.249	0	54.853	0	275.1	4	98.0	4	-1E+10	1	-1E+10	1	-1E+10	1	-1E+10	1	-1E+10	1	-1E+10	1
4901784	104	C	05/10/2018	10:46	-132.476	43.139	0	57.10	0	9.7520	0	32.7710	8	25.254	0	56.638	0	274.4	4	97.8	4	-1E+10	1	-1E+10	1	-1E+10	1	-1E+10	1	-1E+10	1	-1E+10	1
4901784	104	C	05/10/2018	10:46	-132.476	43.139	0	58.90	0	9.7640	0	32.7750	8	25.255	0	58.424	0	273.8	4	97.6	4	-1E+10	1	-1E+10	1	-1E+10	1	-1E+10	1	-1E+10	1	-1E+10	1
4901784	104	C	05/10/2018	10:46	-132.476	43.139	0	60.70	0	9.7010	0	32.7810	8	25.270	0	60.209	0	273.0	4	97.2	4	-1E+10	1	-1E+10	1	-1E+10	1	-1E+10	1	-1E+10	1	-1E+10	1
4901784	104	C	05/10/2018	10:46	-132.476	43.139	0	62.50	0	9.6370	0	32.7670	8	25.270	0	61.994	0	273.2	4	97.1	4	-1E+10	1	-1E+10	1	-1E+10	1	-1E+10	1	-1E+10	1	-1E+10	1
4901784	104	C	05/10/2018	10:46	-132.476	43.139	0	64.30	0	9.6380	0	32.7700	8	25.272	0	63.779	0	272.7	4	97.0	4	-1E+10	1	-1E+10	1	-1E+10	1	-1E+10	1	-1E+10	1	-1E+10	1
4901784	104	C	05/10/2018	10:46	-132.476	43.139	0	66.10	0	9.6160	0	32.7690	8	25.275	0	65.564	0	272.0	4	96.7	4	-1E+10	1	-1E+10	1	-1E+10	1	-1E+10	1	-1E+10	1	-1E+10	1
4901784	104	C	05/10/2018	10:46	-132.476	43.139	0	68.00	0	9.5360	0	32.7660	8	25.286	0	67.448	0	271.6	4	96.4	4	-1E+10	1	-1E+10	1	-1E+10	1	-1E+10	1	-1E+10	1	-1E+10	1
4901784	104	C	05/10/2018	10:46	-132.476	43.139	0	69.80	0	9.4870	0	32.7600	8	25.289	0	69.234	0	271.7	4	96.3	4	-1E+10	1	-1E+10	1	-1E+10	1	-1E+10	1	-1E+10	1	-1E+10	1
4901784	104	C	05/10/2018	10:46	-132.476	43.139	0	71.60	0	9.4420	0	32.7640	8	25.299	0	71.019	0	271.3	4	96.1	4	-1E+10	1	-1E+10	1	-1E+10	1	-1E+10	1	-1E+10	1	-1E+10	1
4901784	104	C	05/10/2018	10:46	-132.476	43.139	0	73.50	0	9.4290	0	32.7620	8	25.300	0	72.903	0	271.2	4	96.0	4	-1E+10	1	-1E+10	1	-1E+10	1	-1E+10	1	-1E+10	1	-1E+10	1
4901784	104	C	05/10/2018	10:46	-132.476	43.139	0	75.30	0	9.3950	0	32.7610	8	25.304	0	74.688	0	271.1	4	95.9	4	-1E+10	1	-1E+10	1	-1E+10	1	-1E+10	1	-1E+10	1	-1E+10	1
4901784	104	C	05/10/2018	10:46	-132.476	43.139	0	77.20	0	9.4670	0	32.7850	8	25.312	0	76.572	0	270.4	4	95.8	4	-1E+10	1	-1E+10	1	-1E+10	1	-1E+10	1	-1E+10	1	-1E+10	1
4901784	104	C	05/10/2018	10:46	-132.476	43.139	0	78.90	0	9.4660	0	32.7900	8	25.316	0	78.258	0	269.7	4	95.6	4	-1E+10	1	-1E+10	1	-1E+10	1	-1E+10	1	-1E+10	1	-1E+10	1
4901784	104	C	05/10/2018	10:46	-132.476	43.139	0	80.70	0	9.4680	0	32.7930	8	25.318	0	80.043	0	269.3	4	95.4	4	-1E+10	1	-1E+10	1	-1E+10	1	-1E+10	1	-1E+10	1	-1E+10	1
4901784	104	C	05/10/2018	10:46	-132.476	43.139	0	82.50	0	9.4610	0	32.7920	8	25.318	0	81.828	0	269.0	4	95.3	4	-1E+10	1	-1E+10	1	-1E+10	1	-1E+10	1	-1E+10	1	-1E+10	1
4901784	104	C	05/10/2018	10:46	-132.476	43.139	0	84.30	0	9.4500	0	32.7910	8	25.319	0	83.613	0	269.0	4	95.3	4	-1E+10	1	-1E+10	1	-1E+10	1	-1E+10	1	-1E+10	1	-1E+10	1
4901784	104	C	05/10/2018	10:46	-132.476	43.139	0	86.10	0	9.4160	0	32.7870	8	25.322	0	85.398	0	269.0	4	95.2	4	-1E+10	1	-1E+10	1	-1E+10	1	-1E+10	1	-1E+10	1	-1E+10	1
4901784	104	C	05/10/2018	10:46	-132.476	43.139	0	87.80	0	9.3770	0	32.7820	8	25.324	0	87.084	0	268.8	4	95.0	4	-1E+10	1	-1E+10	1	-1E+10	1	-1E+10	1	-1E+10	1	-1E+10	1
4901784	104	C	05/10/2018	10:46	-132.476	43.139	0	89.70	0	9.3600	0	32.7790	8	25.324	0	88.968	0	268.3	4	94.8	4	-1E+10	1	-1E+10	1	-1E+10	1	-1E+10	1	-1E+10	1	-1E+10	1
4901784	104	C	05/10/2018	10:46	-132.476	43.139	0	91.40	0	9.3490	0	32.7780	8	25.325	0	90.654	0	268.0	4	94.7	4	-1E+10	1	-1E+10	1	-1E+10	1	-1E+10	1	-1E+10	1	-1E+10	1
4901784	104	C	05/10/2018	10:46	-132.476	43.139	0	93.20	0	9.3660	0	32.7810	8	25.325	0	92.438	0	267.5	4	94.5	4	-1E+10	1	-1E+10	1	-1E+10	1	-1E+10	1	-1E+10	1	-1E+10	1
4901784	104	C	05/10/2018	10:46	-132.476	43.139	0	95.00	0	9.3650	0	32.7810	8	25.325	0	94.223	0	266.5	4	94.2	4	-1E+10	1	-1E+10	1	-1E+10	1	-1E+10	1	-1E+10	1	-1E+10	1
4901784	104	C	05/10/2018	10:46	-132.476	43.139	0	96.80	0	9.3110	0	32.7790	8	25.332	0	96.008	0	266.0	4	93.9	4	-1E+10	1	-1E+10	1	-1E+10	1	-1E+10	1	-1E+10	1	-1E+10	1
4901784	104	C	05/10/2018	10:46	-132.476	43.139	0	98.60	0	9.3570	0	32.7910	8	25.334	0	97.793	0	264.8	4	93.6	4	-1E+10	1	-1E+10	1	-1E+10	1	-1E+10	1	-1E+10	1	-1E+10	1
4901784	104	C	05/10/2018	10:46	-132.476	43.139	0	102.70	0	9.2700	0	32.7900	8	25.348	0	101.858	0	262.2	4	92.5	4	-1E+10	1	-1E+10	1	-1E+10	1	-1E+10	1	-1E+10	1	-1E+10	1
4901784	104	C	05/10/2018	10:46	-132.476	43.139	0	104.80	0	9.2550	0	32.8010	8	25.359	0	103.941	0	259.4	4	91.5	4	-1E+10	1	-1E+10	1	-1E+10	1	-1E+10	1	-1E+10	1	-1E+10	1
4901784	104	C	05/10/2018	10:46	-132.476	43.139	0	107.70	0	9.1500	0	32.8220	8	25.392	0	106.816	0	254.7	4	89.6	4	-1E+10	1	-1E+10	1	-1E+10	1	-1E+10	1	-1E+10	1	-1E+10	1
4901784	104	C	05/10/2018	10:46	-132.476	43.139	0	109.90	0	8.8630	0	32.8820	8	25.483	0	108.998	0	252.1	4	88.2	4	-1E+10	1	-1E+10	1	-1E+10	1	-1E+10	1	-1E+10	1	-1E+10	1
4901784	104	C	05/10/2018	10:46	-132.476	43.139	0	112.30	0	8.5320	0	32.9590	8	25.594	0	111.377	0	251.0	4	87.2	4	-1E+10	1	-1E+10	1	-1E+10	1	-1E+10	1	-1E+10	1	-1E+10	1
4901784	104	C	05/10/2018	10:46	-132.476	43.139	0	114.80	0	8.3340	0	33.0030	8	25.658	0	113.856	0	249.5	4	86.3	4	-1E+10	1	-1E+10	1	-1E+10	1	-1E+10	1	-1E+10	1	-1E+10	1
4901784	104	C	05/10/2018	10:46	-132.476	43.139	0	117.20	0	8.2020	0	33.0350	8	25.703	0	116.236	0	248.7	4	85.8	4	-1E+10	1	-1E+10	1	-1E+10	1	-1E+10	1	-1E+10	1	-1E+10	1
4901784	104	C	05/10/2018	10:46	-132.476	43.139	0	120.40	0	8.0270	0	33.0920	8	25.774	0	119.408	0	246.8	4	84.9	4	-1E+10	1	-1E+10	1	-1E+10	1	-1E+10	1	-1E+10	1	-1E+10	1
4901784	104	C	05/10/2018	10:46	-132.476	43.139	0	122.90	0	7.9570	0	33.1180	8	25.804	0	121.887	0	245.1	4	84.2	4	-1E+10	1	-1E+10	1	-1E+10	1	-1E+10	1	-1E+10	1	-1E+10	1
4901784	104	C	05/10/2018	10:46	-132.476	43.139	0	124.70	0	7.9330	0	33.1620	8	25.842	0	123.672	0	243.4	4	83.6	4	-1E+10	1	-1E+10	1	-1E+10	1	-1E+10	1	-1E+10	1	-1E+10	1
4901784	104	C	05/10/2018	10:46	-132.476	43.139	0	127.30	0	7.9280	0	33.2000	8	25.873	0	126.249	0	241.0	4	82.8	4	-1E+10	1	-1E+10	1	-1E+10	1	-1E+10	1	-1E+10	1	-1E+10	1
4901784	104	C	05/10/2018	10:46	-132.476	43.139	0	130.50	0	7.9420	0	33.2600	8	25.918	0	129.422	0	238.0	4	81.8	4	-1E+10	1	-1E+10	1	-1E+10	1	-1E+10	1	-1E+10	1	-1E+10	1
4901784	104	C	05/10/2018	10:46	-132.476	43.139	0	132.30	0	7.9820	0	33.3210	8	25.960	0	131.207	0	235.9	4	81.2	4	-1E+10	1	-1E+10	1	-1E+10	1	-1E+10	1	-1E+10	1	-1E+10	1
4901784	104	C	05/10/2018	10:46	-132.476	43.139	0	134.50	0	7.9940	0	33.3360	8	25.970	0	133.388	0	234.0	4	80.6	4	-1E+10	1	-1E+10	1	-1E+10	1	-1E+10	1	-1E+10	1	-1E+10	1
4901784	104	C	05/10/2018	10:46	-132.476	43.139	0	137.50	0	8.0240	0	33.3750	8	25.996	0	136.362	0	231.0	4	79.6	4	-1E+10	1	-1E+10	1	-1E+10	1	-1E+10	1	-1E+10	1	-1E+10	1
4901784	104	C	05/10/2018	10:46	-132.476	43.139	0	139.70	0	8.0520	0	33.4090	8	26.019	0	138.543	0	228.5	4	78.8	4	-1E+10	1	-1E+10	1	-1E+10	1	-1E+10	1	-1E+10	1	-1E+10	1
4901784	104	C	05/10/2018	10:46	-132.476	43.139	0	142.10	0	8.0820	0	33.4440	8	26.042	0	140.922	0	225.1	4	77.7	4	-1E+10	1	-1E+10	1	-1E+10	1	-1E+10	1	-1E+10	1	-1E+10	1
4901784	104	C	05/10/2018	10:46	-132.476	43.139	0	145.30	0	8.1470	0	33.5310	8	26.101	0	144.095	0	220.1	4	76.2	4	-1E+10	1	-1E+10	1	-1E+10	1	-1E+10	1	-1E+10	1	-1E+10	1
4901784	104	C	05/10/2018	10:46	-132.476	43.139	0	147.70	0	8.2050	0	33.5910	8	26.139	0	146.474	0	216.1	4	74.9	4	-1E+10	1	-1E+10	1	-1E+10	1	-1E+10	1	-1E+10	1	-1E+10	1
4901784	104	C	05/10/2018	10:46	-132.476	43.139	0	150.20	0	8.2720	0	33.6780	8	26.198	0	148.952	0	212.6	4	73.8	4	-1E+10	1	-1E+10	1	-1E+10	1	-1E+10	1	-1E+10	1	-1E+10	1
4901784	104	C	05/10/2018	10:46	-132.476	43.139	0	152.70	0	8.3040	0	33.7110	8	26.219	0	151.430	0	209.6	4	72.8	4	-1E+10	1	-1E+10	1	-1E+10	1	-1E+10	1	-1E+10	1	-1E+10	1
4901784	104	C	05/10/2018	10:46	-132.476	43.139	0	155.30	0	8.3690	0	33.7800	8	26.263	0	154.008	0	206.3	4	71.9	4	-1E+10	1	-1E+10	1	-1E+10	1	-1E+10	1	-1E+10	1	-1E+10	1
4901784	104	C	05/10/2018	10:46	-132.476	43.139	0	158.00	0	8.4050	0	33.8170	8	26.287	0	156.684	0	204.1	4	71.2	4	-1E+10	1	-1E+10	1	-1E+10	1	-1E+10	1	-1E+10	1	-1E+10	1
4901784	104	C	05/10/2018	10:46	-132.476	43.139	0	160.30	0	8.4260	0	33.8370	8	26.299	0	158.964	0	202.0	4	70.5	4	-1E+10	1	-1E+10	1	-1E+10	1	-1E+10	1	-1E+10	1	-1E+10	1
4901784	104	C	05/10/2018	10:46	-132.476	43.139	0	162.90	0	8.4860	0	33.8910	8	26.333	0	161.542	0	199.6	4	69.8	4	-1E+10	1	-1E+10	1	-1E+10	1	-1E+10	1	-1E+10	1	-1E+10	1
4901784	104	C	05/10/2018	10:46	-132.476	43.139	0	165.10	0	8.5130	0	33.9210	8	26.352	0	163.722	0	198.5	4	69.4	4	-1E+10	1	-1E+10	1	-1E+10	1	-1E+10	1	-1E+10	1	-1E+10	1
4901784	104	C	05/10/2018	10:46	-132.476	43.139	0	167.50	0	8.5230	0	33.9310	8	26.358	0	166.101	0	197.8	4	69.2	4	-1E+10	1	-1E+10	1	-1E+10	1	-1E+10	1	-1E+10	1	-1E+10	1
4901784	104	C	05/10/2018	10:46	-132.476	43.139	0	169.80	0	8.5310	0	33.9390	8	26.364	0	168.381	0	197.1	4	69.0	4	-1E+10	1	-1E+10	1	-1E+10	1	-1E+10	1	-1E+10	1	-1E+10	1
4901784	104	C	05/10/2018	10:46	-132.476	43.139	0	172.30	0	8.5550	0	33.9700	8	26.384	0	170.859	0	196.3	4	68.8	4	-1E+10	1	-1E+10	1	-1E+10	1	-1E+10	1	-1E+10	1	-1E+10	1
4901784	104	C	05/10/2018	10:46	-132.476	43.139	0	174.80	0	8.5750	0	33.9970	8	26.402	0	173.337	0	194.7	4	68.2	4	-1E+10	1	-1E+10	1	-1E+10	1	-1E+10	1	-1E+10	1	-1E+10	1
4901784	104	C	05/10/2018	10:46	-132.476	43.139	0	177.40	0	8.5910	0	34.0210	8	26.419	0	175.915	0	193.4	4	67.8	4	-1E+10	1	-1E+10	1	-1E+10	1	-1E+10	1	-1E+10	1	-1E+10	1
4901784	104	C	05/10/2018	10:46	-132.476	43.139	0	180.00	0	8.5950	0	34.0280	8	26.424	0	178.492	0	192.2	4	67.4	4	-1E+10	1	-1E+10	1	-1E+10	1	-1E+10	1	-1E+10	1	-1E+10	1
4901784	104	C	05/10/2018	10:46	-132.476	43.139	0	182.50	0	8.5990	0	34.0430	8	26.435	0	180.970	0	190.6	4	66.9	4	-1E+10	1	-1E+10	1	-1E+10	1	-1E+10	1	-1E+10	1	-1E+10	1
4901784	104	C	05/10/2018	10:46	-132.476	43.139	0	185.00	0	8.5970	0	34.0640	8	26.452	0	183.448	0	189.2	4	66.4	4	-1E+10	1	-1E+10	1	-1E+10	1	-1E+10	1	-1E+10	1	-1E+10	1
4901784	104	C	05/10/2018	10:46	-132.476	43.139	0	187.50	0	8.5870	0	34.0720	8	26.459	0	185.925	0	188.1	4	66.0	4	-1E+10	1	-1E+10	1	-1E+10	1	-1E+10	1	-1E+10	1	-1E+10	1
4901784	104	C	05/10/2018	10:46	-132.476	43.139	0	190.10	0	8.5830	0	34.0740	8	26.462	0	188.502	0	187.0	4	65.6	4	-1E+10	1	-1E+10	1	-1E+10	1	-1E+10	1	-1E+10	1	-1E+10	1
4901784	104	C	05/10/2018	10:46	-132.476	43.139	0	192.60	0	8.5780	0	34.0770	8	26.465	0	190.980	0	185.6	4	65.1	4	-1E+10	1	-1E+10	1	-1E+10	1	-1E+10	1	-1E+10	1	-1E+10	1
4901784	104	C	05/10/2018	10:46	-132.476	43.139	0	195.10	0	8.5550	0	34.0880	8	26.477	0	193.458	0	183.9	4	64.5	4	-1E+10	1	-1E+10	1	-1E+10	1	-1E+10	1	-1E+10	1	-1E+10	1
4901784	104	C	05/10/2018	10:46	-132.476	43.139	0	197.60	0	8.5120	0	34.0950	8	26.489	0	195.936	0	182.6	4	64.0	4	-1E+10	1	-1E+10	1	-1E+10	1	-1E+10	1	-1E+10	1	-1E+10	1
4901784	104	C	05/10/2018	10:46	-132.476	43.139	0	200.20	0	8.4640	0	34.0950	8	26.497	0	198.513	0	181.5	4	63.5	4	-1E+10	1	-1E+10	1	-1E+10	1	-1E+10	1	-1E+10	1	-1E+10	1
4901784	104	C	05/10/2018	10:46	-132.476	43.139	0	202.80	0	8.4290	0	34.0970	8	26.504	0	201.090	0	180.6	4	63.1	4	-1E+10	1	-1E+10	1	-1E+10	1	-1E+10	1	-1E+10	1	-1E+10	1
4901784	104	C	05/10/2018	10:46	-132.476	43.139	0	205.40	0	8.4020	0	34.0980	8	26.508	0	203.666	0	179.8	4	62.8	4	-1E+10	1	-1E+10	1	-1E+10	1	-1E+10	1	-1E+10	1	-1E+10	1
4901784	104	C	05/10/2018	10:46	-132.476	43.139	0	207.10	0	8.3870	0	34.0970	8	26.510	0	205.351	0	179.1	4	62.6	4	-1E+10	1	-1E+10	1	-1E+10	1	-1E+10	1	-1E+10	1	-1E+10	1
4901784	104	C	05/10/2018	10:46	-132.476	43.139	0	209.70	0	8.3460	0	34.0960	8	26.515	0	207.928	0	178.1	4	62.2	4	-1E+10	1	-1E+10	1	-1E+10	1	-1E+10	1	-1E+10	1	-1E+10	1
4901784	104	C	05/10/2018	10:46	-132.476	43.139	0	212.40	0	8.2890	0	34.0970	8	26.525	0	210.604	0	177.4	4	61.8	4	-1E+10	1	-1E+10	1	-1E+10	1	-1E+10	1	-1E+10	1	-1E+10	1
4901784	104	C	05/10/2018	10:46	-132.476	43.139	0	215.00	0	8.2560	0	34.0970	8	26.530	0	213.180	0	176.8	4	61.6	4	-1E+10	1	-1E+10	1	-1E+10	1	-1E+10	1	-1E+10	1	-1E+10	1
4901784	104	C	05/10/2018	10:46	-132.476	43.139	0	217.70	0	8.2080	0	34.0970	8	26.537	0	215.856	0	176.4	4	61.4	4	-1E+10	1	-1E+10	1	-1E+10	1	-1E+10	1	-1E+10	1	-1E+10	1
4901784	104	C	05/10/2018	10:46	-132.476	43.139	0	219.50	0	8.2040	0	34.0970	8	26.538	0	217.640	0	176.1	4	61.2	4	-1E+10	1	-1E+10	1	-1E+10	1	-1E+10	1	-1E+10	1	-1E+10	1
4901784	104	C	05/10/2018	10:46	-132.476	43.139	0	222.20	0	8.1930	0	34.0970	8	26.540	0	220.316	0	175.4	4	61.0	4	-1E+10	1	-1E+10	1	-1E+10	1	-1E+10	1	-1E+10	1	-1E+10	1
4901784	104	C	05/10/2018	10:46	-132.476	43.139	0	224.90	0	8.1670	0	34.0970	8	26.543	0	222.991	0	174.8	4	60.8	4	-1E+10	1	-1E+10	1	-1E+10	1	-1E+10	1	-1E+10	1	-1E+10	1
4901784	104	C	05/10/2018	10:46	-132.476	43.139	0	227.50	0	8.1360	0	34.0960	8	26.547	0	225.568	0	174.0	4	60.4	4	-1E+10	1	-1E+10	1	-1E+10	1	-1E+10	1	-1E+10	1	-1E+10	1
4901784	104	C	05/10/2018	10:46	-132.476	43.139	0	230.20	0	8.1040	0	34.0940	8	26.551	0	228.243	0	173.3	4	60.2	4	-1E+10	1	-1E+10	1	-1E+10	1	-1E+10	1	-1E+10	1	-1E+10	1
4901784	104	C	05/10/2018	10:46	-132.476	43.139	0	232.80	0	8.0800	0	34.0920	8	26.553	0	230.820	0	172.2	4	59.7	4	-1E+10	1	-1E+10	1	-1E+10	1	-1E+10	1	-1E+10	1	-1E+10	1
4901784	104	C	05/10/2018	10:46	-132.476	43.139	0	235.50	0	8.0240	0	34.0900	8	26.559	0	233.495	0	171.2	4	59.3	4	-1E+10	1	-1E+10	1	-1E+10	1	-1E+10	1	-1E+10	1	-1E+10	1
4901784	104	C	05/10/2018	10:46	-132.476	43.139	0	237.30	0	8.0020	0	34.0900	8	26.563	0	235.279	0	170.4	4	59.0	4	-1E+10	1	-1E+10	1	-1E+10	1	-1E+10	1	-1E+10	1	-1E+10	1
4901784	104	C	05/10/2018	10:46	-132.476	43.139	0	240.00	0	7.9510	0	34.0890	8	26.569	0	237.954	0	169.1	4	58.5	4	-1E+10	1	-1E+10	1	-1E+10	1	-1E+10	1	-1E+10	1	-1E+10	1
4901784	104	C	05/10/2018	10:46	-132.476	43.139	0	242.70	0	7.9020	0	34.0870	8	26.575	0	240.630	0	168.0	4	58.0	4	-1E+10	1	-1E+10	1	-1E+10	1	-1E+10	1	-1E+10	1	-1E+10	1
4901784	104	C	05/10/2018	10:46	-132.476	43.139	0	244.60	0	7.8840	0	34.0860	8	26.577	0	242.513	0	167.4	4	57.8	4	-1E+10	1	-1E+10	1	-1E+10	1	-1E+10	1	-1E+10	1	-1E+10	1
4901784	104	C	05/10/2018	10:46	-132.476	43.139	0	247.30	0	7.8760	0	34.0840	8	26.577	0	245.188	0	166.1	4	57.3	4	-1E+10	1	-1E+10	1	-1E+10	1	-1E+10	1	-1E+10	1	-1E+10	1
4901784	104	C	05/10/2018	10:46	-132.476	43.139	0	250.00	0	7.8340	0	34.0820	8	26.581	0	247.863	0	164.3	4	56.7	4	-1E+10	1	-1E+10	1	-1E+10	1	-1E+10	1	-1E+10	1	-1E+10	1
4901784	104	C	05/10/2018	10:46	-132.476	43.139	0	252.80	0	7.7580	0	34.0800	8	26.591	0	250.638	0	162.6	4	56.0	4	-1E+10	1	-1E+10	1	-1E+10	1	-1E+10	1	-1E+10	1	-1E+10	1
4901784	104	C	05/10/2018	10:46	-132.476	43.139	0	255.50	0	7.6960	0	34.0790	8	26.599	0	253.313	0	161.5	4	55.5	4	-1E+10	1	-1E+10	1	-1E+10	1	-1E+10	1	-1E+10	1	-1E+10	1
4901784	104	C	05/10/2018	10:46	-132.476	43.139	0	257.30	0	7.6910	0	34.0780	8	26.599	0	255.096	0	160.6	4	55.2	4	-1E+10	1	-1E+10	1	-1E+10	1	-1E+10	1	-1E+10	1	-1E+10	1
4901784	104	C	05/10/2018	10:46	-132.476	43.139	0	260.10	0	7.6470	0	34.0770	8	26.604	0	257.871	0	159.3	4	54.7	4	-1E+10	1	-1E+10	1	-1E+10	1	-1E+10	1	-1E+10	1	-1E+10	1
4901784	104	C	05/10/2018	10:46	-132.476	43.139	0	262.70	0	7.6180	0	34.0760	8	26.608	0	260.447	0	158.1	4	54.3	4	-1E+10	1	-1E+10	1	-1E+10	1	-1E+10	1	-1E+10	1	-1E+10	1
4901784	104	C	05/10/2018	10:46	-132.476	43.139	0	264.60	0	7.6160	0	34.0750	8	26.607	0	262.329	0	156.9	4	53.9	4	-1E+10	1	-1E+10	1	-1E+10	1	-1E+10	1	-1E+10	1	-1E+10	1
4901784	104	C	05/10/2018	10:46	-132.476	43.139	0	267.20	0	7.5840	0	34.0750	8	26.612	0	264.905	0	154.6	4	53.0	4	-1E+10	1	-1E+10	1	-1E+10	1	-1E+10	1	-1E+10	1	-1E+10	1
4901784	104	C	05/10/2018	10:46	-132.476	43.139	0	270.00	0	7.5330	0	34.0740	8	26.619	0	267.679	0	152.3	4	52.2	4	-1E+10	1	-1E+10	1	-1E+10	1	-1E+10	1	-1E+10	1	-1E+10	1
4901784	104	C	05/10/2018	10:46	-132.476	43.139	0	272.80	0	7.5000	0	34.0720	8	26.622	0	270.453	0	150.0	4	51.4	4	-1E+10	1	-1E+10	1	-1E+10	1	-1E+10	1	-1E+10	1	-1E+10	1
4901784	104	C	05/10/2018	10:46	-132.476	43.139	0	275.50	0	7.4610	0	34.0710	8	26.627	0	273.128	0	147.5	4	50.4	4	-1E+10	1	-1E+10	1	-1E+10	1	-1E+10	1	-1E+10	1	-1E+10	1
4901784	104	C	05/10/2018	10:46	-132.476	43.139	0	277.40	0	7.3840	0	34.0710	8	26.637	0	275.011	0	146.6	4	50.1	4	-1E+10	1	-1E+10	1	-1E+10	1	-1E+10	1	-1E+10	1	-1E+10	1
4901784	104	C	05/10/2018	10:46	-132.476	43.139	0	280.00	0	7.3680	0	34.0700	8	26.639	0	277.587	0	145.2	4	49.6	4	-1E+10	1	-1E+10	1	-1E+10	1	-1E+10	1	-1E+10	1	-1E+10	1
4901784	104	C	05/10/2018	10:46	-132.476	43.139	0	282.80	0	7.3130	0	34.0690	8	26.646	0	280.361	0	143.6	4	49.0	4	-1E+10	1	-1E+10	1	-1E+10	1	-1E+10	1	-1E+10	1	-1E+10	1
4901784	104	C	05/10/2018	10:46	-132.476	43.139	0	284.60	0	7.2740	0	34.0690	8	26.651	0	282.144	0	143.1	4	48.7	4	-1E+10	1	-1E+10	1	-1E+10	1	-1E+10	1	-1E+10	1	-1E+10	1
4901784	104	C	05/10/2018	10:46	-132.476	43.139	0	287.40	0	7.2470	0	34.0660	8	26.653	0	284.918	0	142.0	4	48.3	4	-1E+10	1	-1E+10	1	-1E+10	1	-1E+10	1	-1E+10	1	-1E+10	1
4901784	104	C	05/10/2018	10:46	-132.476	43.139	0	290.20	0	7.1950	0	34.0640	8	26.659	0	287.692	0	140.3	4	47.7	4	-1E+10	1	-1E+10	1	-1E+10	1	-1E+10	1	-1E+10	1	-1E+10	1
4901784	104	C	05/10/2018	10:46	-132.476	43.139	0	292.00	0	7.1450	0	34.0640	8	26.665	0	289.475	0	139.1	4	47.2	4	-1E+10	1	-1E+10	1	-1E+10	1	-1E+10	1	-1E+10	1	-1E+10	1
4901784	104	C	05/10/2018	10:46	-132.476	43.139	0	294.80	0	7.0890	0	34.0620	8	26.672	0	292.249	0	137.1	4	46.5	4	-1E+10	1	-1E+10	1	-1E+10	1	-1E+10	1	-1E+10	1	-1E+10	1
4901784	104	C	05/10/2018	10:46	-132.476	43.139	0	297.60	0	7.0270	0	34.0630	8	26.681	0	295.022	0	135.0	4	45.7	4	-1E+10	1	-1E+10	1	-1E+10	1	-1E+10	1	-1E+10	1	-1E+10	1
4901784	104	C	05/10/2018	10:46	-132.476	43.139	0	299.50	0	6.9330	0	34.0610	8	26.692	0	296.905	0	134.2	4	45.4	4	-1E+10	1	-1E+10	1	-1E+10	1	-1E+10	1	-1E+10	1	-1E+10	1
4901784	104	C	05/10/2018	10:46	-132.476	43.139	0	302.40	0	6.9200	0	34.0610	8	26.694	0	299.777	0	133.5	4	45.1	4	-1E+10	1	-1E+10	1	-1E+10	1	-1E+10	1	-1E+10	1	-1E+10	1
4901784	104	C	05/10/2018	10:46	-132.476	43.139	0	305.20	0	6.9130	0	34.0580	8	26.693	0	302.551	0	132.3	4	44.7	4	-1E+10	1	-1E+10	1	-1E+10	1	-1E+10	1	-1E+10	1	-1E+10	1
4901784	104	C	05/10/2018	10:46	-132.476	43.139	0	307.10	0	6.8780	0	34.0580	8	26.697	0	304.433	0	131.5	4	44.4	4	-1E+10	1	-1E+10	1	-1E+10	1	-1E+10	1	-1E+10	1	-1E+10	1
4901784	104	C	05/10/2018	10:46	-132.476	43.139	0	309.90	0	6.8260	0	34.0570	8	26.704	0	307.207	0	130.5	4	44.0	4	-1E+10	1	-1E+10	1	-1E+10	1	-1E+10	1	-1E+10	1	-1E+10	1
4901784	104	C	05/10/2018	10:46	-132.476	43.139	0	312.80	0	6.7890	0	34.0570	8	26.709	0	310.079	0	129.5	4	43.6	4	-1E+10	1	-1E+10	1	-1E+10	1	-1E+10	1	-1E+10	1	-1E+10	1
4901784	104	C	05/10/2018	10:46	-132.476	43.139	0	314.80	0	6.7740	0	34.0560	8	26.710	0	312.060	0	128.9	4	43.4	4	-1E+10	1	-1E+10	1	-1E+10	1	-1E+10	1	-1E+10	1	-1E+10	1
4901784	104	C	05/10/2018	10:46	-132.476	43.139	0	317.60	0	6.7480	0	34.0560	8	26.713	0	314.834	0	127.6	4	42.9	4	-1E+10	1	-1E+10	1	-1E+10	1	-1E+10	1	-1E+10	1	-1E+10	1
4901784	104	C	05/10/2018	10:46	-132.476	43.139	0	320.40	0	6.7180	0	34.0520	8	26.714	0	317.607	0	126.2	4	42.4	4	-1E+10	1	-1E+10	1	-1E+10	1	-1E+10	1	-1E+10	1	-1E+10	1
4901784	104	C	05/10/2018	10:46	-132.476	43.139	0	322.30	0	6.6800	0	34.0510	8	26.719	0	319.489	0	125.2	4	42.1	4	-1E+10	1	-1E+10	1	-1E+10	1	-1E+10	1	-1E+10	1	-1E+10	1
4901784	104	C	05/10/2018	10:46	-132.476	43.139	0	325.10	0	6.6310	0	34.0510	8	26.725	0	322.263	0	123.5	4	41.4	4	-1E+10	1	-1E+10	1	-1E+10	1	-1E+10	1	-1E+10	1	-1E+10	1
4901784	104	C	05/10/2018	10:46	-132.476	43.139	0	328.00	0	6.5670	0	34.0470	8	26.730	0	325.135	0	122.0	4	40.9	4	-1E+10	1	-1E+10	1	-1E+10	1	-1E+10	1	-1E+10	1	-1E+10	1
4901784	104	C	05/10/2018	10:46	-132.476	43.139	0	329.80	0	6.5480	0	34.0470	8	26.733	0	326.918	0	121.0	4	40.5	4	-1E+10	1	-1E+10	1	-1E+10	1	-1E+10	1	-1E+10	1	-1E+10	1
4901784	104	C	05/10/2018	10:46	-132.476	43.139	0	332.60	0	6.4620	0	34.0450	8	26.743	0	329.691	0	119.5	4	39.9	4	-1E+10	1	-1E+10	1	-1E+10	1	-1E+10	1	-1E+10	1	-1E+10	1
4901784	104	C	05/10/2018	10:46	-132.476	43.139	0	335.40	0	6.4130	0	34.0440	8	26.748	0	332.465	0	118.3	4	39.5	4	-1E+10	1	-1E+10	1	-1E+10	1	-1E+10	1	-1E+10	1	-1E+10	1
4901784	104	C	05/10/2018	10:46	-132.476	43.139	0	337.40	0	6.3500	0	34.0440	8	26.757	0	334.446	0	117.6	4	39.2	4	-1E+10	1	-1E+10	1	-1E+10	1	-1E+10	1	-1E+10	1	-1E+10	1
4901784	104	C	05/10/2018	10:46	-132.476	43.139	0	340.20	0	6.3210	0	34.0430	8	26.759	0	337.219	0	116.6	4	38.9	4	-1E+10	1	-1E+10	1	-1E+10	1	-1E+10	1	-1E+10	1	-1E+10	1
4901784	104	C	05/10/2018	10:46	-132.476	43.139	0	343.00	0	6.2590	0	34.0430	8	26.767	0	339.992	0	115.7	4	38.5	4	-1E+10	1	-1E+10	1	-1E+10	1	-1E+10	1	-1E+10	1	-1E+10	1
4901784	104	C	05/10/2018	10:46	-132.476	43.139	0	345.00	0	6.2380	0	34.0410	8	26.769	0	341.973	0	115.2	4	38.3	4	-1E+10	1	-1E+10	1	-1E+10	1	-1E+10	1	-1E+10	1	-1E+10	1
4901784	104	C	05/10/2018	10:46	-132.476	43.139	0	347.70	0	6.2100	0	34.0410	8	26.772	0	344.647	0	114.5	4	38.0	4	-1E+10	1	-1E+10	1	-1E+10	1	-1E+10	1	-1E+10	1	-1E+10	1
4901784	104	C	05/10/2018	10:46	-132.476	43.139	0	350.60	0	6.1630	0	34.0410	8	26.778	0	347.519	0	113.7	4	37.7	4	-1E+10	1	-1E+10	1	-1E+10	1	-1E+10	1	-1E+10	1	-1E+10	1
4901784	104	C	05/10/2018	10:46	-132.476	43.139	0	352.50	0	6.1470	0	34.0400	8	26.780	0	349.401	0	113.3	4	37.6	4	-1E+10	1	-1E+10	1	-1E+10	1	-1E+10	1	-1E+10	1	-1E+10	1
4901784	104	C	05/10/2018	10:46	-132.476	43.139	0	354.40	0	6.1410	0	34.0420	8	26.782	0	351.282	0	112.7	4	37.4	4	-1E+10	1	-1E+10	1	-1E+10	1	-1E+10	1	-1E+10	1	-1E+10	1
4901784	104	C	05/10/2018	10:46	-132.476	43.139	0	357.30	0	6.1250	0	34.0390	8	26.782	0	354.154	0	111.6	4	37.0	4	-1E+10	1	-1E+10	1	-1E+10	1	-1E+10	1	-1E+10	1	-1E+10	1
4901784	104	C	05/10/2018	10:46	-132.476	43.139	0	360.20	0	6.0710	0	34.0390	8	26.788	0	357.026	0	110.2	4	36.5	4	-1E+10	1	-1E+10	1	-1E+10	1	-1E+10	1	-1E+10	1	-1E+10	1
4901784	104	C	05/10/2018	10:46	-132.476	43.139	0	362.20	0	6.0210	0	34.0390	8	26.795	0	359.007	0	109.3	4	36.2	4	-1E+10	1	-1E+10	1	-1E+10	1	-1E+10	1	-1E+10	1	-1E+10	1
4901784	104	C	05/10/2018	10:46	-132.476	43.139	0	365.20	0	5.9700	0	34.0360	8	26.799	0	361.978	0	108.1	4	35.7	4	-1E+10	1	-1E+10	1	-1E+10	1	-1E+10	1	-1E+10	1	-1E+10	1
4901784	104	C	05/10/2018	10:46	-132.476	43.139	0	368.10	0	5.9280	0	34.0340	8	26.802	0	364.850	0	106.9	4	35.3	4	-1E+10	1	-1E+10	1	-1E+10	1	-1E+10	1	-1E+10	1	-1E+10	1
4901784	104	C	05/10/2018	10:46	-132.476	43.139	0	370.00	0	5.9030	0	34.0330	8	26.805	0	366.731	0	106.0	4	35.0	4	-1E+10	1	-1E+10	1	-1E+10	1	-1E+10	1	-1E+10	1	-1E+10	1
4901784	104	C	05/10/2018	10:46	-132.476	43.139	0	372.00	0	5.8730	0	34.0310	8	26.807	0	368.712	0	105.0	4	34.6	4	-1E+10	1	-1E+10	1	-1E+10	1	-1E+10	1	-1E+10	1	-1E+10	1
4901784	104	C	05/10/2018	10:46	-132.476	43.139	0	375.00	0	5.8150	0	34.0350	8	26.817	0	371.683	0	103.2	4	34.0	4	-1E+10	1	-1E+10	1	-1E+10	1	-1E+10	1	-1E+10	1	-1E+10	1
4901784	104	C	05/10/2018	10:46	-132.476	43.139	0	377.90	0	5.7250	0	34.0310	8	26.825	0	374.554	0	101.8	4	33.4	4	-1E+10	1	-1E+10	1	-1E+10	1	-1E+10	1	-1E+10	1	-1E+10	1
4901784	104	C	05/10/2018	10:46	-132.476	43.139	0	379.80	0	5.6980	0	34.0300	8	26.828	0	376.436	0	101.0	4	33.2	4	-1E+10	1	-1E+10	1	-1E+10	1	-1E+10	1	-1E+10	1	-1E+10	1
4901784	104	C	05/10/2018	10:46	-132.476	43.139	0	381.80	0	5.6690	0	34.0300	8	26.831	0	378.416	0	100.3	4	32.9	4	-1E+10	1	-1E+10	1	-1E+10	1	-1E+10	1	-1E+10	1	-1E+10	1
4901784	104	C	05/10/2018	10:46	-132.476	43.139	0	384.80	0	5.6320	0	34.0320	8	26.837	0	381.387	0	99.1	4	32.5	4	-1E+10	1	-1E+10	1	-1E+10	1	-1E+10	1	-1E+10	1	-1E+10	1
4901784	104	C	05/10/2018	10:46	-132.476	43.139	0	387.70	0	5.5930	0	34.0290	8	26.840	0	384.259	0	98.1	4	32.1	4	-1E+10	1	-1E+10	1	-1E+10	1	-1E+10	1	-1E+10	1	-1E+10	1
4901784	104	C	05/10/2018	10:46	-132.476	43.139	0	389.70	0	5.5680	0	34.0300	8	26.843	0	386.239	0	97.3	4	31.9	4	-1E+10	1	-1E+10	1	-1E+10	1	-1E+10	1	-1E+10	1	-1E+10	1
4901784	104	C	05/10/2018	10:46	-132.476	43.139	0	392.60	0	5.5570	0	34.0340	8	26.848	0	389.110	0	96.2	4	31.5	4	-1E+10	1	-1E+10	1	-1E+10	1	-1E+10	1	-1E+10	1	-1E+10	1
4901784	104	C	05/10/2018	10:46	-132.476	43.139	0	395.50	0	5.5380	0	34.0350	8	26.851	0	391.982	0	95.0	4	31.1	4	-1E+10	1	-1E+10	1	-1E+10	1	-1E+10	1	-1E+10	1	-1E+10	1
4901784	104	C	05/10/2018	10:46	-132.476	43.139	0	397.40	0	5.5120	0	34.0350	8	26.854	0	393.863	0	93.9	4	30.7	4	-1E+10	1	-1E+10	1	-1E+10	1	-1E+10	1	-1E+10	1	-1E+10	1
4901784	104	C	05/10/2018	10:46	-132.476	43.139	0	399.30	0	5.4860	0	34.0360	8	26.858	0	395.745	0	92.9	4	30.4	4	-1E+10	1	-1E+10	1	-1E+10	1	-1E+10	1	-1E+10	1	-1E+10	1
4901784	104	C	05/10/2018	10:46	-132.476	43.139	0	402.40	0	5.4330	0	34.0370	8	26.865	0	398.814	0	91.4	4	29.8	4	-1E+10	1	-1E+10	1	-1E+10	1	-1E+10	1	-1E+10	1	-1E+10	1
4901784	104	C	05/10/2018	10:46	-132.476	43.139	0	405.30	0	5.3900	0	34.0360	8	26.870	0	401.685	0	89.9	4	29.3	4	-1E+10	1	-1E+10	1	-1E+10	1	-1E+10	1	-1E+10	1	-1E+10	1
4901784	104	C	05/10/2018	10:46	-132.476	43.139	0	407.80	0	5.3740	0	34.0360	8	26.871	0	404.161	0	88.7	4	28.9	4	-1E+10	1	-1E+10	1	-1E+10	1	-1E+10	1	-1E+10	1	-1E+10	1
4901784	104	C	05/10/2018	10:46	-132.476	43.139	0	410.20	0	5.3480	0	34.0350	8	26.874	0	406.537	0	87.2	4	28.4	4	-1E+10	1	-1E+10	1	-1E+10	1	-1E+10	1	-1E+10	1	-1E+10	1
4901784	104	C	05/10/2018	10:46	-132.476	43.139	0	412.70	0	5.3170	0	34.0340	8	26.877	0	409.012	0	85.8	4	27.9	4	-1E+10	1	-1E+10	1	-1E+10	1	-1E+10	1	-1E+10	1	-1E+10	1
4901784	104	C	05/10/2018	10:46	-132.476	43.139	0	415.10	0	5.2920	0	34.0340	8	26.880	0	411.388	0	84.1	4	27.4	4	-1E+10	1	-1E+10	1	-1E+10	1	-1E+10	1	-1E+10	1	-1E+10	1
4901784	104	C	05/10/2018	10:46	-132.476	43.139	0	417.40	0	5.2150	0	34.0390	8	26.893	0	413.665	0	82.9	4	26.9	4	-1E+10	1	-1E+10	1	-1E+10	1	-1E+10	1	-1E+10	1	-1E+10	1
4901784	104	C	05/10/2018	10:46	-132.476	43.139	0	419.80	0	5.1970	0	34.0380	8	26.894	0	416.041	0	82.2	4	26.7	4	-1E+10	1	-1E+10	1	-1E+10	1	-1E+10	1	-1E+10	1	-1E+10	1
4901784	104	C	05/10/2018	10:46	-132.476	43.139	0	422.20	0	5.1810	0	34.0390	8	26.897	0	418.418	0	81.4	4	26.4	4	-1E+10	1	-1E+10	1	-1E+10	1	-1E+10	1	-1E+10	1	-1E+10	1
4901784	104	C	05/10/2018	10:46	-132.476	43.139	0	425.40	0	5.1520	0	34.0400	8	26.901	0	421.586	0	80.5	4	26.1	4	-1E+10	1	-1E+10	1	-1E+10	1	-1E+10	1	-1E+10	1	-1E+10	1
4901784	104	C	05/10/2018	10:46	-132.476	43.139	0	427.90	0	5.1480	0	34.0400	8	26.901	0	424.061	0	79.8	4	25.9	4	-1E+10	1	-1E+10	1	-1E+10	1	-1E+10	1	-1E+10	1	-1E+10	1
4901784	104	C	05/10/2018	10:46	-132.476	43.139	0	430.40	0	5.1370	0	34.0400	8	26.902	0	426.536	0	78.8	4	25.5	4	-1E+10	1	-1E+10	1	-1E+10	1	-1E+10	1	-1E+10	1	-1E+10	1
4901784	104	C	05/10/2018	10:46	-132.476	43.139	0	432.70	0	5.1070	0	34.0410	8	26.907	0	428.813	0	77.7	4	25.2	4	-1E+10	1	-1E+10	1	-1E+10	1	-1E+10	1	-1E+10	1	-1E+10	1
4901784	104	C	05/10/2018	10:46	-132.476	43.139	0	435.30	0	5.0780	0	34.0430	8	26.912	0	431.387	0	76.8	4	24.8	4	-1E+10	1	-1E+10	1	-1E+10	1	-1E+10	1	-1E+10	1	-1E+10	1
4901784	104	C	05/10/2018	10:46	-132.476	43.139	0	437.80	0	5.0470	0	34.0460	8	26.918	0	433.861	0	76.1	4	24.6	4	-1E+10	1	-1E+10	1	-1E+10	1	-1E+10	1	-1E+10	1	-1E+10	1
4901784	104	C	05/10/2018	10:46	-132.476	43.139	0	440.30	0	5.0380	0	34.0460	8	26.919	0	436.336	0	75.4	4	24.4	4	-1E+10	1	-1E+10	1	-1E+10	1	-1E+10	1	-1E+10	1	-1E+10	1
4901784	104	C	05/10/2018	10:46	-132.476	43.139	0	442.80	0	5.0300	0	34.0470	8	26.920	0	438.811	0	74.6	4	24.1	4	-1E+10	1	-1E+10	1	-1E+10	1	-1E+10	1	-1E+10	1	-1E+10	1
4901784	104	C	05/10/2018	10:46	-132.476	43.139	0	444.50	0	5.0230	0	34.0470	8	26.921	0	440.494	0	73.9	4	23.9	4	-1E+10	1	-1E+10	1	-1E+10	1	-1E+10	1	-1E+10	1	-1E+10	1
4901784	104	C	05/10/2018	10:46	-132.476	43.139	0	447.10	0	5.0010	0	34.0490	8	26.925	0	443.068	0	72.6	4	23.5	4	-1E+10	1	-1E+10	1	-1E+10	1	-1E+10	1	-1E+10	1	-1E+10	1
4901784	104	C	05/10/2018	10:46	-132.476	43.139	0	449.70	0	4.9520	0	34.0540	8	26.935	0	445.642	0	71.5	4	23.1	4	-1E+10	1	-1E+10	1	-1E+10	1	-1E+10	1	-1E+10	1	-1E+10	1
4901784	104	C	05/10/2018	10:46	-132.476	43.139	0	452.20	0	4.9310	0	34.0570	8	26.940	0	448.116	0	70.9	4	22.9	4	-1E+10	1	-1E+10	1	-1E+10	1	-1E+10	1	-1E+10	1	-1E+10	1
4901784	104	C	05/10/2018	10:46	-132.476	43.139	0	454.70	0	4.9140	0	34.0590	8	26.943	0	450.591	0	70.2	4	22.6	4	-1E+10	1	-1E+10	1	-1E+10	1	-1E+10	1	-1E+10	1	-1E+10	1
4901784	104	C	05/10/2018	10:46	-132.476	43.139	0	457.20	0	4.8970	0	34.0630	8	26.948	0	453.066	0	69.6	4	22.4	4	-1E+10	1	-1E+10	1	-1E+10	1	-1E+10	1	-1E+10	1	-1E+10	1
4901784	104	C	05/10/2018	10:46	-132.476	43.139	0	459.70	0	4.8920	0	34.0630	8	26.949	0	455.540	0	69.0	4	22.2	4	-1E+10	1	-1E+10	1	-1E+10	1	-1E+10	1	-1E+10	1	-1E+10	1
4901784	104	C	05/10/2018	10:46	-132.476	43.139	0	462.30	0	4.8770	0	34.0660	8	26.953	0	458.114	0	68.3	4	22.0	4	-1E+10	1	-1E+10	1	-1E+10	1	-1E+10	1	-1E+10	1	-1E+10	1
4901784	104	C	05/10/2018	10:46	-132.476	43.139	0	464.80	0	4.8660	0	34.0670	8	26.955	0	460.589	0	67.6	4	21.8	4	-1E+10	1	-1E+10	1	-1E+10	1	-1E+10	1	-1E+10	1	-1E+10	1
4901784	104	C	05/10/2018	10:46	-132.476	43.139	0	467.40	0	4.8550	0	34.0690	8	26.958	0	463.162	0	66.7	4	21.5	4	-1E+10	1	-1E+10	1	-1E+10	1	-1E+10	1	-1E+10	1	-1E+10	1
4901784	104	C	05/10/2018	10:46	-132.476	43.139	0	470.00	0	4.8160	0	34.0780	8	26.969	0	465.736	0	65.7	4	21.1	4	-1E+10	1	-1E+10	1	-1E+10	1	-1E+10	1	-1E+10	1	-1E+10	1
4901784	104	C	05/10/2018	10:46	-132.476	43.139	0	472.50	0	4.8020	0	34.0800	8	26.972	0	468.210	0	65.0	4	20.9	4	-1E+10	1	-1E+10	1	-1E+10	1	-1E+10	1	-1E+10	1	-1E+10	1
4901784	104	C	05/10/2018	10:46	-132.476	43.139	0	475.10	0	4.7760	0	34.0880	8	26.982	0	470.784	0	64.5	4	20.7	4	-1E+10	1	-1E+10	1	-1E+10	1	-1E+10	1	-1E+10	1	-1E+10	1
4901784	104	C	05/10/2018	10:46	-132.476	43.139	0	477.80	0	4.7720	0	34.0900	8	26.984	0	473.456	0	64.1	4	20.6	4	-1E+10	1	-1E+10	1	-1E+10	1	-1E+10	1	-1E+10	1	-1E+10	1
4901784	104	C	05/10/2018	10:46	-132.476	43.139	0	480.50	0	4.7670	0	34.0910	8	26.985	0	476.128	0	63.5	4	20.4	4	-1E+10	1	-1E+10	1	-1E+10	1	-1E+10	1	-1E+10	1	-1E+10	1
4901784	104	C	05/10/2018	10:46	-132.476	43.139	0	482.20	0	4.7610	0	34.0930	8	26.987	0	477.811	0	63.0	4	20.3	4	-1E+10	1	-1E+10	1	-1E+10	1	-1E+10	1	-1E+10	1	-1E+10	1
4901784	104	C	05/10/2018	10:46	-132.476	43.139	0	485.00	0	4.7550	0	34.0950	8	26.990	0	480.582	0	62.2	4	20.0	4	-1E+10	1	-1E+10	1	-1E+10	1	-1E+10	1	-1E+10	1	-1E+10	1
4901784	104	C	05/10/2018	10:46	-132.476	43.139	0	487.70	0	4.7450	0	34.0980	8	26.993	0	483.255	0	61.1	4	19.6	4	-1E+10	1	-1E+10	1	-1E+10	1	-1E+10	1	-1E+10	1	-1E+10	1
4901784	104	C	05/10/2018	10:46	-132.476	43.139	0	489.60	0	4.7360	0	34.1020	8	26.997	0	485.135	0	60.4	4	19.4	4	-1E+10	1	-1E+10	1	-1E+10	1	-1E+10	1	-1E+10	1	-1E+10	1
4901784	104	C	05/10/2018	10:46	-132.476	43.139	0	492.20	0	4.7220	0	34.1060	8	27.002	0	487.708	0	59.4	4	19.1	4	-1E+10	1	-1E+10	1	-1E+10	1	-1E+10	1	-1E+10	1	-1E+10	1
4901784	104	C	05/10/2018	10:46	-132.476	43.139	0	494.90	0	4.7090	0	34.1090	8	27.006	0	490.380	0	58.6	4	18.8	4	-1E+10	1	-1E+10	1	-1E+10	1	-1E+10	1	-1E+10	1	-1E+10	1
4901784	104	C	05/10/2018	10:46	-132.476	43.139	0	497.60	0	4.6990	0	34.1120	8	27.009	0	493.053	0	57.8	4	18.6	4	-1E+10	1	-1E+10	1	-1E+10	1	-1E+10	1	-1E+10	1	-1E+10	1
4901784	104	C	05/10/2018	10:46	-132.476	43.139	0	500.30	0	4.6960	0	34.1130	8	27.011	0	495.725	0	57.0	4	18.3	4	-1E+10	1	-1E+10	1	-1E+10	1	-1E+10	1	-1E+10	1	-1E+10	1
4901784	104	C	05/10/2018	10:46	-132.476	43.139	0	504.90	0	4.6780	0	34.1190	8	27.017	0	500.277	0	55.0	4	17.7	4	-1E+10	1	-1E+10	1	-1E+10	1	-1E+10	1	-1E+10	1	-1E+10	1
4901784	104	C	05/10/2018	10:46	-132.476	43.139	0	509.50	0	4.6570	0	34.1250	8	27.025	0	504.829	0	53.4	4	17.1	4	-1E+10	1	-1E+10	1	-1E+10	1	-1E+10	1	-1E+10	1	-1E+10	1
4901784	104	C	05/10/2018	10:46	-132.476	43.139	0	515.00	0	4.6350	0	34.1310	8	27.032	0	510.272	0	51.6	4	16.5	4	-1E+10	1	-1E+10	1	-1E+10	1	-1E+10	1	-1E+10	1	-1E+10	1
4901784	104	C	05/10/2018	10:46	-132.476	43.139	0	520.50	0	4.6120	0	34.1390	8	27.041	0	515.715	0	50.3	4	16.1	4	-1E+10	1	-1E+10	1	-1E+10	1	-1E+10	1	-1E+10	1	-1E+10	1
4901784	104	C	05/10/2018	10:46	-132.476	43.139	0	525.10	0	4.6020	0	34.1420	8	27.044	0	520.267	0	49.6	4	15.9	4	-1E+10	1	-1E+10	1	-1E+10	1	-1E+10	1	-1E+10	1	-1E+10	1
4901784	104	C	05/10/2018	10:46	-132.476	43.139	0	529.70	0	4.5940	0	34.1440	8	27.047	0	524.819	0	48.8	4	15.6	4	-1E+10	1	-1E+10	1	-1E+10	1	-1E+10	1	-1E+10	1	-1E+10	1
4901784	104	C	05/10/2018	10:46	-132.476	43.139	0	534.50	0	4.5860	0	34.1460	8	27.049	0	529.568	0	47.8	4	15.3	4	-1E+10	1	-1E+10	1	-1E+10	1	-1E+10	1	-1E+10	1	-1E+10	1
4901784	104	C	05/10/2018	10:46	-132.476	43.139	0	539.20	0	4.5690	0	34.1500	8	27.054	0	534.219	0	46.5	4	14.9	4	-1E+10	1	-1E+10	1	-1E+10	1	-1E+10	1	-1E+10	1	-1E+10	1
4901784	104	C	05/10/2018	10:46	-132.476	43.139	0	544.70	0	4.5480	0	34.1560	8	27.061	0	539.661	0	45.1	4	14.4	4	-1E+10	1	-1E+10	1	-1E+10	1	-1E+10	1	-1E+10	1	-1E+10	1
4901784	104	C	05/10/2018	10:46	-132.476	43.139	0	549.50	0	4.5360	0	34.1590	8	27.065	0	544.410	0	44.1	4	14.1	4	-1E+10	1	-1E+10	1	-1E+10	1	-1E+10	1	-1E+10	1	-1E+10	1
4901784	104	C	05/10/2018	10:46	-132.476	43.139	0	554.50	0	4.5250	0	34.1630	8	27.069	0	549.357	0	42.9	4	13.7	4	-1E+10	1	-1E+10	1	-1E+10	1	-1E+10	1	-1E+10	1	-1E+10	1
4901784	104	C	05/10/2018	10:46	-132.476	43.139	0	559.30	0	4.5210	0	34.1640	8	27.071	0	554.106	0	41.5	4	13.3	4	-1E+10	1	-1E+10	1	-1E+10	1	-1E+10	1	-1E+10	1	-1E+10	1
4901784	104	C	05/10/2018	10:46	-132.476	43.139	0	564.20	0	4.5190	0	34.1670	8	27.073	0	558.954	0	39.6	4	12.7	4	-1E+10	1	-1E+10	1	-1E+10	1	-1E+10	1	-1E+10	1	-1E+10	1
4901784	104	C	05/10/2018	10:46	-132.476	43.139	0	570.00	0	4.5090	0	34.1700	8	27.077	0	564.693	0	37.5	4	12.0	4	-1E+10	1	-1E+10	1	-1E+10	1	-1E+10	1	-1E+10	1	-1E+10	1
4901784	104	C	05/10/2018	10:46	-132.476	43.139	0	575.00	0	4.4800	0	34.1770	8	27.086	0	569.639	0	35.4	4	11.3	4	-1E+10	1	-1E+10	1	-1E+10	1	-1E+10	1	-1E+10	1	-1E+10	1
4901784	104	C	05/10/2018	10:46	-132.476	43.139	0	579.20	0	4.4750	0	34.1800	8	27.089	0	573.794	0	34.0	4	10.9	4	-1E+10	1	-1E+10	1	-1E+10	1	-1E+10	1	-1E+10	1	-1E+10	1
4901784	104	C	05/10/2018	10:46	-132.476	43.139	0	584.30	0	4.4450	0	34.1880	8	27.098	0	578.840	0	32.5	4	10.4	4	-1E+10	1	-1E+10	1	-1E+10	1	-1E+10	1	-1E+10	1	-1E+10	1
4901784	104	C	05/10/2018	10:46	-132.476	43.139	0	589.40	0	4.4290	0	34.1960	8	27.106	0	583.885	0	31.3	4	10.0	4	-1E+10	1	-1E+10	1	-1E+10	1	-1E+10	1	-1E+10	1	-1E+10	1
4901784	104	C	05/10/2018	10:46	-132.476	43.139	0	594.40	0	4.3860	0	34.2060	8	27.119	0	588.831	0	29.9	4	9.5	4	-1E+10	1	-1E+10	1	-1E+10	1	-1E+10	1	-1E+10	1	-1E+10	1
4901784	104	C	05/10/2018	10:46	-132.476	43.139	0	599.60	0	4.3820	0	34.2130	8	27.125	0	593.975	0	28.9	4	9.2	4	-1E+10	1	-1E+10	1	-1E+10	1	-1E+10	1	-1E+10	1	-1E+10	1
4901784	104	C	05/10/2018	10:46	-132.476	43.139	0	604.70	0	4.3560	0	34.2200	8	27.133	0	599.020	0	28.2	4	9.0	4	-1E+10	1	-1E+10	1	-1E+10	1	-1E+10	1	-1E+10	1	-1E+10	1
4901784	104	C	05/10/2018	10:46	-132.476	43.139	0	609.90	0	4.3250	0	34.2240	8	27.140	0	604.163	0	27.6	4	8.8	4	-1E+10	1	-1E+10	1	-1E+10	1	-1E+10	1	-1E+10	1	-1E+10	1
4901784	104	C	05/10/2018	10:46	-132.476	43.139	0	615.10	0	4.3130	0	34.2280	8	27.144	0	609.307	0	26.5	4	8.4	4	-1E+10	1	-1E+10	1	-1E+10	1	-1E+10	1	-1E+10	1	-1E+10	1
4901784	104	C	05/10/2018	10:46	-132.476	43.139	0	620.30	0	4.3220	0	34.2320	8	27.147	0	614.450	0	25.5	4	8.1	4	-1E+10	1	-1E+10	1	-1E+10	1	-1E+10	1	-1E+10	1	-1E+10	1
4901784	104	C	05/10/2018	10:46	-132.476	43.139	0	625.60	0	4.3150	0	34.2360	8	27.150	0	619.692	0	24.2	4	7.7	4	-1E+10	1	-1E+10	1	-1E+10	1	-1E+10	1	-1E+10	1	-1E+10	1
4901784	104	C	05/10/2018	10:46	-132.476	43.139	0	630.00	0	4.3090	0	34.2440	8	27.158	0	624.044	0	23.3	4	7.4	4	-1E+10	1	-1E+10	1	-1E+10	1	-1E+10	1	-1E+10	1	-1E+10	1
4901784	104	C	05/10/2018	10:46	-132.476	43.139	0	634.40	0	4.2720	0	34.2460	8	27.163	0	628.396	0	23.3	4	7.4	4	-1E+10	1	-1E+10	1	-1E+10	1	-1E+10	1	-1E+10	1	-1E+10	1
4901784	104	C	05/10/2018	10:46	-132.476	43.139	0	639.70	0	4.2440	0	34.2480	8	27.168	0	633.638	0	23.3	4	7.4	4	-1E+10	1	-1E+10	1	-1E+10	1	-1E+10	1	-1E+10	1	-1E+10	1
4901784	104	C	05/10/2018	10:46	-132.476	43.139	0	645.00	0	4.2310	0	34.2480	8	27.169	0	638.879	0	23.4	4	7.4	4	-1E+10	1	-1E+10	1	-1E+10	1	-1E+10	1	-1E+10	1	-1E+10	1
4901784	104	C	05/10/2018	10:46	-132.476	43.139	0	650.40	0	4.2210	0	34.2500	8	27.172	0	644.220	0	23.2	4	7.4	4	-1E+10	1	-1E+10	1	-1E+10	1	-1E+10	1	-1E+10	1	-1E+10	1
4901784	104	C	05/10/2018	10:46	-132.476	43.139	0	654.90	0	4.2060	0	34.2510	8	27.174	0	648.670	0	23.1	4	7.3	4	-1E+10	1	-1E+10	1	-1E+10	1	-1E+10	1	-1E+10	1	-1E+10	1
4901784	104	C	05/10/2018	10:46	-132.476	43.139	0	659.50	0	4.1910	0	34.2520	8	27.176	0	653.219	0	22.8	4	7.2	4	-1E+10	1	-1E+10	1	-1E+10	1	-1E+10	1	-1E+10	1	-1E+10	1
4901784	104	C	05/10/2018	10:46	-132.476	43.139	0	664.90	0	4.1770	0	34.2530	8	27.179	0	658.559	0	22.6	4	7.2	4	-1E+10	1	-1E+10	1	-1E+10	1	-1E+10	1	-1E+10	1	-1E+10	1
4901784	104	C	05/10/2018	10:46	-132.476	43.139	0	670.30	0	4.1340	0	34.2560	8	27.186	0	663.899	0	22.0	4	7.0	4	-1E+10	1	-1E+10	1	-1E+10	1	-1E+10	1	-1E+10	1	-1E+10	1
4901784	104	C	05/10/2018	10:46	-132.476	43.139	0	674.80	0	4.1150	0	34.2620	8	27.192	0	668.349	0	21.2	4	6.7	4	-1E+10	1	-1E+10	1	-1E+10	1	-1E+10	1	-1E+10	1	-1E+10	1
4901784	104	C	05/10/2018	10:46	-132.476	43.139	0	679.40	0	4.1030	0	34.2650	8	27.196	0	672.897	0	20.8	4	6.6	4	-1E+10	1	-1E+10	1	-1E+10	1	-1E+10	1	-1E+10	1	-1E+10	1
4901784	104	C	05/10/2018	10:46	-132.476	43.139	0	684.90	0	4.0880	0	34.2690	8	27.201	0	678.336	0	20.5	4	6.5	4	-1E+10	1	-1E+10	1	-1E+10	1	-1E+10	1	-1E+10	1	-1E+10	1
4901784	104	C	05/10/2018	10:46	-132.476	43.139	0	690.50	0	4.0720	0	34.2720	8	27.205	0	683.873	0	20.2	4	6.4	4	-1E+10	1	-1E+10	1	-1E+10	1	-1E+10	1	-1E+10	1	-1E+10	1
4901784	104	C	05/10/2018	10:46	-132.476	43.139	0	695.10	0	4.0610	0	34.2740	8	27.208	0	688.421	0	19.9	4	6.3	4	-1E+10	1	-1E+10	1	-1E+10	1	-1E+10	1	-1E+10	1	-1E+10	1
4901784	104	C	05/10/2018	10:46	-132.476	43.139	0	699.80	0	4.0490	0	34.2770	8	27.211	0	693.068	0	19.7	4	6.2	4	-1E+10	1	-1E+10	1	-1E+10	1	-1E+10	1	-1E+10	1	-1E+10	1
4901784	104	C	05/10/2018	10:46	-132.476	43.139	0	705.50	0	4.0290	0	34.2830	8	27.218	0	698.704	0	19.3	4	6.1	4	-1E+10	1	-1E+10	1	-1E+10	1	-1E+10	1	-1E+10	1	-1E+10	1
4901784	104	C	05/10/2018	10:46	-132.476	43.139	0	710.30	0	4.0200	0	34.2860	8	27.222	0	703.449	0	18.9	4	6.0	4	-1E+10	1	-1E+10	1	-1E+10	1	-1E+10	1	-1E+10	1	-1E+10	1
4901784	104	C	05/10/2018	10:46	-132.476	43.139	0	715.00	0	4.0040	0	34.2900	8	27.226	0	708.096	0	18.5	4	5.8	4	-1E+10	1	-1E+10	1	-1E+10	1	-1E+10	1	-1E+10	1	-1E+10	1
4901784	104	C	05/10/2018	10:46	-132.476	43.139	0	719.80	0	3.9910	0	34.2960	8	27.233	0	712.842	0	18.2	4	5.8	4	-1E+10	1	-1E+10	1	-1E+10	1	-1E+10	1	-1E+10	1	-1E+10	1
4901784	104	C	05/10/2018	10:46	-132.476	43.139	0	724.70	0	3.9860	0	34.2970	8	27.234	0	717.686	0	17.9	4	5.7	4	-1E+10	1	-1E+10	1	-1E+10	1	-1E+10	1	-1E+10	1	-1E+10	1
4901784	104	C	05/10/2018	10:46	-132.476	43.139	0	730.50	0	3.9750	0	34.3010	8	27.238	0	723.420	0	17.5	4	5.5	4	-1E+10	1	-1E+10	1	-1E+10	1	-1E+10	1	-1E+10	1	-1E+10	1
4901784	104	C	05/10/2018	10:46	-132.476	43.139	0	735.20	0	3.9640	0	34.3050	8	27.243	0	728.066	0	17.2	4	5.4	4	-1E+10	1	-1E+10	1	-1E+10	1	-1E+10	1	-1E+10	1	-1E+10	1
4901784	104	C	05/10/2018	10:46	-132.476	43.139	0	740.00	0	3.9530	0	34.3080	8	27.246	0	732.811	0	17.0	4	5.4	4	-1E+10	1	-1E+10	1	-1E+10	1	-1E+10	1	-1E+10	1	-1E+10	1
4901784	104	C	05/10/2018	10:46	-132.476	43.139	0	744.80	0	3.9470	0	34.3100	8	27.248	0	737.556	0	16.7	4	5.3	4	-1E+10	1	-1E+10	1	-1E+10	1	-1E+10	1	-1E+10	1	-1E+10	1
4901784	104	C	05/10/2018	10:46	-132.476	43.139	0	749.50	0	3.9390	0	34.3130	8	27.252	0	742.202	0	16.5	4	5.2	4	-1E+10	1	-1E+10	1	-1E+10	1	-1E+10	1	-1E+10	1	-1E+10	1
4901784	104	C	05/10/2018	10:46	-132.476	43.139	0	755.30	0	3.9340	0	34.3140	8	27.253	0	747.935	0	16.3	4	5.1	4	-1E+10	1	-1E+10	1	-1E+10	1	-1E+10	1	-1E+10	1	-1E+10	1
4901784	104	C	05/10/2018	10:46	-132.476	43.139	0	760.10	0	3.9340	0	34.3140	8	27.253	0	752.679	0	15.9	4	5.0	4	-1E+10	1	-1E+10	1	-1E+10	1	-1E+10	1	-1E+10	1	-1E+10	1
4901784	104	C	05/10/2018	10:46	-132.476	43.139	0	765.00	0	3.9220	0	34.3190	8	27.258	0	757.523	0	15.2	4	4.8	4	-1E+10	1	-1E+10	1	-1E+10	1	-1E+10	1	-1E+10	1	-1E+10	1
4901784	104	C	05/10/2018	10:46	-132.476	43.139	0	770.50	0	3.9110	0	34.3300	8	27.268	0	762.959	0	13.9	4	4.4	4	-1E+10	1	-1E+10	1	-1E+10	1	-1E+10	1	-1E+10	1	-1E+10	1
4901784	104	C	05/10/2018	10:46	-132.476	43.139	0	775.50	0	3.9480	0	34.3470	8	27.278	0	767.901	0	12.7	4	4.0	4	-1E+10	1	-1E+10	1	-1E+10	1	-1E+10	1	-1E+10	1	-1E+10	1
4901784	104	C	05/10/2018	10:46	-132.476	43.139	0	780.50	0	3.9710	0	34.3640	8	27.289	0	772.842	0	12.1	4	3.8	4	-1E+10	1	-1E+10	1	-1E+10	1	-1E+10	1	-1E+10	1	-1E+10	1
4901784	104	C	05/10/2018	10:46	-132.476	43.139	0	785.50	0	3.9630	0	34.3700	8	27.295	0	777.784	0	11.8	4	3.7	4	-1E+10	1	-1E+10	1	-1E+10	1	-1E+10	1	-1E+10	1	-1E+10	1
4901784	104	C	05/10/2018	10:46	-132.476	43.139	0	790.50	0	3.9600	0	34.3750	8	27.299	0	782.726	0	11.5	4	3.6	4	-1E+10	1	-1E+10	1	-1E+10	1	-1E+10	1	-1E+10	1	-1E+10	1
4901784	104	C	05/10/2018	10:46	-132.476	43.139	0	795.50	0	3.9710	0	34.3890	8	27.309	0	787.667	0	11.1	4	3.5	4	-1E+10	1	-1E+10	1	-1E+10	1	-1E+10	1	-1E+10	1	-1E+10	1
4901784	104	C	05/10/2018	10:46	-132.476	43.139	0	800.50	0	3.9660	0	34.3960	8	27.315	0	792.608	0	10.9	4	3.4	4	-1E+10	1	-1E+10	1	-1E+10	1	-1E+10	1	-1E+10	1	-1E+10	1
4901784	104	C	05/10/2018	10:46	-132.476	43.139	0	805.60	0	3.9390	0	34.4000	8	27.321	0	797.648	0	10.8	4	3.4	4	-1E+10	1	-1E+10	1	-1E+10	1	-1E+10	1	-1E+10	1	-1E+10	1
4901784	104	C	05/10/2018	10:46	-132.476	43.139	0	810.70	0	3.9080	0	34.4030	8	27.327	0	802.688	0	10.8	4	3.4	4	-1E+10	1	-1E+10	1	-1E+10	1	-1E+10	1	-1E+10	1	-1E+10	1
4901784	104	C	05/10/2018	10:46	-132.476	43.139	0	815.80	0	3.9110	0	34.4060	8	27.329	0	807.728	0	10.7	4	3.4	4	-1E+10	1	-1E+10	1	-1E+10	1	-1E+10	1	-1E+10	1	-1E+10	1
4901784	104	C	05/10/2018	10:46	-132.476	43.139	0	820.00	0	3.9210	0	34.4100	8	27.331	0	811.878	0	10.6	4	3.3	4	-1E+10	1	-1E+10	1	-1E+10	1	-1E+10	1	-1E+10	1	-1E+10	1
4901784	104	C	05/10/2018	10:46	-132.476	43.139	0	824.30	0	3.9220	0	34.4140	8	27.334	0	816.127	0	10.5	4	3.3	4	-1E+10	1	-1E+10	1	-1E+10	1	-1E+10	1	-1E+10	1	-1E+10	1
4901784	104	C	05/10/2018	10:46	-132.476	43.139	0	829.30	0	3.8970	0	34.4180	8	27.340	0	821.068	0	10.5	4	3.3	4	-1E+10	1	-1E+10	1	-1E+10	1	-1E+10	1	-1E+10	1	-1E+10	1
4901784	104	C	05/10/2018	10:46	-132.476	43.139	0	834.50	0	3.8870	0	34.4230	8	27.345	0	826.206	0	10.4	4	3.3	4	-1E+10	1	-1E+10	1	-1E+10	1	-1E+10	1	-1E+10	1	-1E+10	1
4901784	104	C	05/10/2018	10:46	-132.476	43.139	0	839.70	0	3.8810	0	34.4250	8	27.347	0	831.344	0	10.4	4	3.3	4	-1E+10	1	-1E+10	1	-1E+10	1	-1E+10	1	-1E+10	1	-1E+10	1
4901784	104	C	05/10/2018	10:46	-132.476	43.139	0	844.90	0	3.8720	0	34.4260	8	27.349	0	836.482	0	10.4	4	3.3	4	-1E+10	1	-1E+10	1	-1E+10	1	-1E+10	1	-1E+10	1	-1E+10	1
4901784	104	C	05/10/2018	10:46	-132.476	43.139	0	850.10	0	3.8550	0	34.4300	8	27.354	0	841.619	0	10.4	4	3.3	4	-1E+10	1	-1E+10	1	-1E+10	1	-1E+10	1	-1E+10	1	-1E+10	1
4901784	104	C	05/10/2018	10:46	-132.476	43.139	0	855.50	0	3.8450	0	34.4300	8	27.355	0	846.955	0	10.4	4	3.3	4	-1E+10	1	-1E+10	1	-1E+10	1	-1E+10	1	-1E+10	1	-1E+10	1
4901784	104	C	05/10/2018	10:46	-132.476	43.139	0	860.70	0	3.7810	0	34.4370	8	27.367	0	852.092	0	10.4	4	3.3	4	-1E+10	1	-1E+10	1	-1E+10	1	-1E+10	1	-1E+10	1	-1E+10	1
4901784	104	C	05/10/2018	10:46	-132.476	43.139	0	865.00	0	3.7560	0	34.4410	8	27.373	0	856.340	0	10.5	4	3.3	4	-1E+10	1	-1E+10	1	-1E+10	1	-1E+10	1	-1E+10	1	-1E+10	1
4901784	104	C	05/10/2018	10:46	-132.476	43.139	0	869.40	0	3.7350	0	34.4420	8	27.376	0	860.687	0	10.5	4	3.3	4	-1E+10	1	-1E+10	1	-1E+10	1	-1E+10	1	-1E+10	1	-1E+10	1
4901784	104	C	05/10/2018	10:46	-132.476	43.139	0	874.70	0	3.7260	0	34.4430	8	27.377	0	865.923	0	10.5	4	3.3	4	-1E+10	1	-1E+10	1	-1E+10	1	-1E+10	1	-1E+10	1	-1E+10	1
4901784	104	C	05/10/2018	10:46	-132.476	43.139	0	880.10	0	3.7250	0	34.4450	8	27.379	0	871.258	0	10.5	4	3.3	4	-1E+10	1	-1E+10	1	-1E+10	1	-1E+10	1	-1E+10	1	-1E+10	1
4901784	104	C	05/10/2018	10:46	-132.476	43.139	0	885.40	0	3.7260	0	34.4480	8	27.381	0	876.493	0	10.6	4	3.3	4	-1E+10	1	-1E+10	1	-1E+10	1	-1E+10	1	-1E+10	1	-1E+10	1
4901784	104	C	05/10/2018	10:46	-132.476	43.139	0	889.90	0	3.7180	0	34.4480	8	27.382	0	880.939	0	10.6	4	3.3	4	-1E+10	1	-1E+10	1	-1E+10	1	-1E+10	1	-1E+10	1	-1E+10	1
4901784	104	C	05/10/2018	10:46	-132.476	43.139	0	894.40	0	3.7060	0	34.4490	8	27.384	0	885.384	0	10.6	4	3.3	4	-1E+10	1	-1E+10	1	-1E+10	1	-1E+10	1	-1E+10	1	-1E+10	1
4901784	104	C	05/10/2018	10:46	-132.476	43.139	0	899.80	0	3.6960	0	34.4500	8	27.386	0	890.718	0	10.7	4	3.4	4	-1E+10	1	-1E+10	1	-1E+10	1	-1E+10	1	-1E+10	1	-1E+10	1
4901784	104	C	05/10/2018	10:46	-132.476	43.139	0	905.20	0	3.6850	0	34.4510	8	27.388	0	896.052	0	10.7	4	3.4	4	-1E+10	1	-1E+10	1	-1E+10	1	-1E+10	1	-1E+10	1	-1E+10	1
4901784	104	C	05/10/2018	10:46	-132.476	43.139	0	909.80	0	3.6760	0	34.4520	8	27.390	0	900.595	0	10.8	4	3.4	4	-1E+10	1	-1E+10	1	-1E+10	1	-1E+10	1	-1E+10	1	-1E+10	1
4901784	104	C	05/10/2018	10:46	-132.476	43.139	0	914.50	0	3.6410	0	34.4540	8	27.395	0	905.238	0	10.9	4	3.4	4	-1E+10	1	-1E+10	1	-1E+10	1	-1E+10	1	-1E+10	1	-1E+10	1
4901784	104	C	05/10/2018	10:46	-132.476	43.139	0	920.10	0	3.5790	0	34.4620	8	27.407	0	910.769	0	11.1	4	3.5	4	-1E+10	1	-1E+10	1	-1E+10	1	-1E+10	1	-1E+10	1	-1E+10	1
4901784	104	C	05/10/2018	10:46	-132.476	43.139	0	924.80	0	3.5590	0	34.4650	8	27.412	0	915.411	0	11.1	4	3.5	4	-1E+10	1	-1E+10	1	-1E+10	1	-1E+10	1	-1E+10	1	-1E+10	1
4901784	104	C	05/10/2018	10:46	-132.476	43.139	0	930.10	0	3.5330	0	34.4690	8	27.417	0	920.645	0	11.2	4	3.5	4	-1E+10	1	-1E+10	1	-1E+10	1	-1E+10	1	-1E+10	1	-1E+10	1
4901784	104	C	05/10/2018	10:46	-132.476	43.139	0	935.20	0	3.5260	0	34.4690	8	27.418	0	925.682	0	11.2	4	3.5	4	-1E+10	1	-1E+10	1	-1E+10	1	-1E+10	1	-1E+10	1	-1E+10	1
4901784	104	C	05/10/2018	10:46	-132.476	43.139	0	940.00	0	3.5100	0	34.4730	8	27.423	0	930.423	0	11.3	4	3.5	4	-1E+10	1	-1E+10	1	-1E+10	1	-1E+10	1	-1E+10	1	-1E+10	1
4901784	104	C	05/10/2018	10:46	-132.476	43.139	0	944.90	0	3.5020	0	34.4740	8	27.424	0	935.262	0	11.4	4	3.6	4	-1E+10	1	-1E+10	1	-1E+10	1	-1E+10	1	-1E+10	1	-1E+10	1
4901784	104	C	05/10/2018	10:46	-132.476	43.139	0	950.00	0	3.4880	0	34.4750	8	27.427	0	940.298	0	11.5	4	3.6	4	-1E+10	1	-1E+10	1	-1E+10	1	-1E+10	1	-1E+10	1	-1E+10	1
4901784	104	C	05/10/2018	10:46	-132.476	43.139	0	955.00	0	3.4790	0	34.4760	8	27.428	0	945.236	0	11.6	4	3.6	4	-1E+10	1	-1E+10	1	-1E+10	1	-1E+10	1	-1E+10	1	-1E+10	1
4901784	104	C	05/10/2018	10:46	-132.476	43.139	0	960.00	0	3.4610	0	34.4790	8	27.432	0	950.174	0	11.7	4	3.7	4	-1E+10	1	-1E+10	1	-1E+10	1	-1E+10	1	-1E+10	1	-1E+10	1
4901784	104	C	05/10/2018	10:46	-132.476	43.139	0	965.00	0	3.4410	0	34.4830	8	27.438	0	955.111	0	11.8	4	3.7	4	-1E+10	1	-1E+10	1	-1E+10	1	-1E+10	1	-1E+10	1	-1E+10	1
4901784	104	C	05/10/2018	10:46	-132.476	43.139	0	970.10	0	3.4240	0	34.4870	8	27.442	0	960.147	0	12.0	4	3.7	4	-1E+10	1	-1E+10	1	-1E+10	1	-1E+10	1	-1E+10	1	-1E+10	1
4901784	104	C	05/10/2018	10:46	-132.476	43.139	0	975.20	0	3.4070	0	34.4910	8	27.447	0	965.183	0	12.1	4	3.8	4	-1E+10	1	-1E+10	1	-1E+10	1	-1E+10	1	-1E+10	1	-1E+10	1
4901784	104	C	05/10/2018	10:46	-132.476	43.139	0	980.40	0	3.3980	0	34.4930	8	27.450	0	970.318	0	12.3	4	3.8	4	-1E+10	1	-1E+10	1	-1E+10	1	-1E+10	1	-1E+10	1	-1E+10	1
4901784	104	C	05/10/2018	10:46	-132.476	43.139	0	985.50	0	3.3830	0	34.4970	8	27.454	0	975.353	0	12.5	4	3.9	4	-1E+10	1	-1E+10	1	-1E+10	1	-1E+10	1	-1E+10	1	-1E+10	1
4901784	104	C	05/10/2018	10:46	-132.476	43.139	0	990.70	0	3.3670	0	34.5020	8	27.460	0	980.488	0	12.7	4	4.0	4	-1E+10	1	-1E+10	1	-1E+10	1	-1E+10	1	-1E+10	1	-1E+10	1
4901784	104	C	05/10/2018	10:46	-132.476	43.139	0	995.10	0	3.3590	0	34.5040	8	27.462	0	984.832	0	12.8	4	4.0	4	-1E+10	1	-1E+10	1	-1E+10	1	-1E+10	1	-1E+10	1	-1E+10	1
4901784	104	C	05/10/2018	10:46	-132.476	43.139	0	999.60	0	3.3550	0	34.5050	8	27.464	0	989.275	0	12.8	4	4.0	4	-1E+10	1	-1E+10	1	-1E+10	1	-1E+10	1	-1E+10	1	-1E+10	1
4901784	104	C	05/10/2018	10:46	-132.476	43.139	0	1004.80	0	3.3470	0	34.5070	8	27.466	0	994.409	0	12.9	4	4.0	4	-1E+10	1	-1E+10	1	-1E+10	1	-1E+10	1	-1E+10	1	-1E+10	1
4901784	104	C	05/10/2018	10:46	-132.476	43.139	0	1010.10	0	3.3450	0	34.5070	8	27.466	0	999.641	0	12.9	4	4.0	4	-1E+10	1	-1E+10	1	-1E+10	1	-1E+10	1	-1E+10	1	-1E+10	1
4901784	104	C	05/10/2018	10:46	-132.476	43.139	0	1015.40	0	3.3400	0	34.5080	8	27.467	0	1004.874	0	13.0	4	4.1	4	-1E+10	1	-1E+10	1	-1E+10	1	-1E+10	1	-1E+10	1	-1E+10	1
4901784	104	C	05/10/2018	10:46	-132.476	43.139	0	1019.90	0	3.3330	0	34.5090	8	27.469	0	1009.316	0	13.2	4	4.1	4	-1E+10	1	-1E+10	1	-1E+10	1	-1E+10	1	-1E+10	1	-1E+10	1
4901784	104	C	05/10/2018	10:46	-132.476	43.139	0	1024.40	0	3.3240	0	34.5120	8	27.472	0	1013.759	0	13.3	4	4.2	4	-1E+10	1	-1E+10	1	-1E+10	1	-1E+10	1	-1E+10	1	-1E+10	1
4901784	104	C	05/10/2018	10:46	-132.476	43.139	0	1029.90	0	3.3100	0	34.5160	8	27.477	0	1019.188	0	13.5	4	4.2	4	-1E+10	1	-1E+10	1	-1E+10	1	-1E+10	1	-1E+10	1	-1E+10	1
4901784	104	C	05/10/2018	10:46	-132.476	43.139	0	1035.30	0	3.3070	0	34.5170	8	27.478	0	1024.519	0	13.6	4	4.2	4	-1E+10	1	-1E+10	1	-1E+10	1	-1E+10	1	-1E+10	1	-1E+10	1
4901784	104	C	05/10/2018	10:46	-132.476	43.139	0	1039.60	0	3.3030	0	34.5170	8	27.478	0	1028.763	0	13.7	4	4.3	4	-1E+10	1	-1E+10	1	-1E+10	1	-1E+10	1	-1E+10	1	-1E+10	1
4901784	104	C	05/10/2018	10:46	-132.476	43.139	0	1045.10	0	3.2960	0	34.5190	8	27.481	0	1034.193	0	13.8	4	4.3	4	-1E+10	1	-1E+10	1	-1E+10	1	-1E+10	1	-1E+10	1	-1E+10	1
4901784	104	C	05/10/2018	10:46	-132.476	43.139	0	1050.60	0	3.2840	0	34.5220	8	27.484	0	1039.622	0	14.1	4	4.4	4	-1E+10	1	-1E+10	1	-1E+10	1	-1E+10	1	-1E+10	1	-1E+10	1
4901784	104	C	05/10/2018	10:46	-132.476	43.139	0	1055.40	0	3.2710	0	34.5250	8	27.488	0	1044.359	0	14.3	4	4.4	4	-1E+10	1	-1E+10	1	-1E+10	1	-1E+10	1	-1E+10	1	-1E+10	1
4901784	104	C	05/10/2018	10:46	-132.476	43.139	0	1060.20	0	3.2590	0	34.5280	8	27.491	0	1049.097	0	14.5	4	4.5	4	-1E+10	1	-1E+10	1	-1E+10	1	-1E+10	1	-1E+10	1	-1E+10	1
4901784	104	C	05/10/2018	10:46	-132.476	43.139	0	1065.10	0	3.2550	0	34.5300	8	27.493	0	1053.934	0	14.7	4	4.6	4	-1E+10	1	-1E+10	1	-1E+10	1	-1E+10	1	-1E+10	1	-1E+10	1
4901784	104	C	05/10/2018	10:46	-132.476	43.139	0	1070.10	0	3.2530	0	34.5330	8	27.496	0	1058.869	0	15.0	4	4.7	4	-1E+10	1	-1E+10	1	-1E+10	1	-1E+10	1	-1E+10	1	-1E+10	1
4901784	104	C	05/10/2018	10:46	-132.476	43.139	0	1075.10	0	3.2500	0	34.5350	8	27.498	0	1063.803	0	15.3	4	4.7	4	-1E+10	1	-1E+10	1	-1E+10	1	-1E+10	1	-1E+10	1	-1E+10	1
4901784	104	C	05/10/2018	10:46	-132.476	43.139	0	1080.10	0	3.2490	0	34.5360	8	27.499	0	1068.738	0	15.6	4	4.8	4	-1E+10	1	-1E+10	1	-1E+10	1	-1E+10	1	-1E+10	1	-1E+10	1
4901784	104	C	05/10/2018	10:46	-132.476	43.139	0	1085.10	0	3.2580	0	34.5390	8	27.500	0	1073.673	0	16.0	4	5.0	4	-1E+10	1	-1E+10	1	-1E+10	1	-1E+10	1	-1E+10	1	-1E+10	1
4901784	104	C	05/10/2018	10:46	-132.476	43.139	0	1090.30	0	3.2550	0	34.5410	8	27.502	0	1078.805	0	16.3	4	5.1	4	-1E+10	1	-1E+10	1	-1E+10	1	-1E+10	1	-1E+10	1	-1E+10	1
4901784	104	C	05/10/2018	10:46	-132.476	43.139	0	1095.40	0	3.2430	0	34.5450	8	27.507	0	1083.838	0	16.5	4	5.1	4	-1E+10	1	-1E+10	1	-1E+10	1	-1E+10	1	-1E+10	1	-1E+10	1
4901784	104	C	05/10/2018	10:46	-132.476	43.139	0	1100.70	0	3.2290	0	34.5470	8	27.510	0	1089.068	0	16.6	4	5.1	4	-1E+10	1	-1E+10	1	-1E+10	1	-1E+10	1	-1E+10	1	-1E+10	1
4901784	104	C	05/10/2018	10:46	-132.476	43.139	0	1105.10	0	3.2230	0	34.5480	8	27.511	0	1093.410	0	16.6	4	5.2	4	-1E+10	1	-1E+10	1	-1E+10	1	-1E+10	1	-1E+10	1	-1E+10	1
4901784	104	C	05/10/2018	10:46	-132.476	43.139	0	1109.40	0	3.2150	0	34.5490	8	27.513	0	1097.653	0	16.7	4	5.2	4	-1E+10	1	-1E+10	1	-1E+10	1	-1E+10	1	-1E+10	1	-1E+10	1
4901784	104	C	05/10/2018	10:46	-132.476	43.139	0	1114.70	0	3.2070	0	34.5490	8	27.513	0	1102.883	0	16.7	4	5.2	4	-1E+10	1	-1E+10	1	-1E+10	1	-1E+10	1	-1E+10	1	-1E+10	1
4901784	104	C	05/10/2018	10:46	-132.476	43.139	0	1119.90	0	3.1990	0	34.5500	8	27.515	0	1108.015	0	16.8	4	5.2	4	-1E+10	1	-1E+10	1	-1E+10	1	-1E+10	1	-1E+10	1	-1E+10	1
4901784	104	C	05/10/2018	10:46	-132.476	43.139	0	1125.20	0	3.1880	0	34.5500	8	27.516	0	1113.244	0	16.9	4	5.2	4	-1E+10	1	-1E+10	1	-1E+10	1	-1E+10	1	-1E+10	1	-1E+10	1
4901784	104	C	05/10/2018	10:46	-132.476	43.139	0	1130.50	0	3.1830	0	34.5510	8	27.517	0	1118.474	0	17.1	4	5.3	4	-1E+10	1	-1E+10	1	-1E+10	1	-1E+10	1	-1E+10	1	-1E+10	1
4901784	104	C	05/10/2018	10:46	-132.476	43.139	0	1135.70	0	3.1720	0	34.5540	8	27.521	0	1123.605	0	17.3	4	5.4	4	-1E+10	1	-1E+10	1	-1E+10	1	-1E+10	1	-1E+10	1	-1E+10	1
4901784	104	C	05/10/2018	10:46	-132.476	43.139	0	1140.10	0	3.1690	0	34.5560	8	27.523	0	1127.946	0	17.5	4	5.4	4	-1E+10	1	-1E+10	1	-1E+10	1	-1E+10	1	-1E+10	1	-1E+10	1
4901784	104	C	05/10/2018	10:46	-132.476	43.139	0	1144.50	0	3.1650	0	34.5570	8	27.524	0	1132.287	0	17.6	4	5.4	4	-1E+10	1	-1E+10	1	-1E+10	1	-1E+10	1	-1E+10	1	-1E+10	1
4901784	104	C	05/10/2018	10:46	-132.476	43.139	0	1149.80	0	3.1600	0	34.5570	8	27.524	0	1137.516	0	17.6	4	5.5	4	-1E+10	1	-1E+10	1	-1E+10	1	-1E+10	1	-1E+10	1	-1E+10	1
4901784	104	C	05/10/2018	10:46	-132.476	43.139	0	1155.00	0	3.1550	0	34.5580	8	27.526	0	1142.647	0	17.7	4	5.5	4	-1E+10	1	-1E+10	1	-1E+10	1	-1E+10	1	-1E+10	1	-1E+10	1
4901784	104	C	05/10/2018	10:46	-132.476	43.139	0	1160.30	0	3.1380	0	34.5600	8	27.529	0	1147.875	0	17.8	4	5.5	4	-1E+10	1	-1E+10	1	-1E+10	1	-1E+10	1	-1E+10	1	-1E+10	1
4901784	104	C	05/10/2018	10:46	-132.476	43.139	0	1165.70	0	3.1340	0	34.5610	8	27.530	0	1153.203	0	17.9	4	5.5	4	-1E+10	1	-1E+10	1	-1E+10	1	-1E+10	1	-1E+10	1	-1E+10	1
4901784	104	C	05/10/2018	10:46	-132.476	43.139	0	1170.10	0	3.1220	0	34.5610	8	27.531	0	1157.544	0	17.9	4	5.5	4	-1E+10	1	-1E+10	1	-1E+10	1	-1E+10	1	-1E+10	1	-1E+10	1
4901784	104	C	05/10/2018	10:46	-132.476	43.139	0	1174.60	0	3.1160	0	34.5620	8	27.532	0	1161.983	0	17.9	4	5.5	4	-1E+10	1	-1E+10	1	-1E+10	1	-1E+10	1	-1E+10	1	-1E+10	1
4901784	104	C	05/10/2018	10:46	-132.476	43.139	0	1180.00	0	3.1120	0	34.5620	8	27.533	0	1167.310	0	18.0	4	5.6	4	-1E+10	1	-1E+10	1	-1E+10	1	-1E+10	1	-1E+10	1	-1E+10	1
4901784	104	C	05/10/2018	10:46	-132.476	43.139	0	1185.40	0	3.1040	0	34.5630	8	27.534	0	1172.637	0	18.1	4	5.6	4	-1E+10	1	-1E+10	1	-1E+10	1	-1E+10	1	-1E+10	1	-1E+10	1
4901784	104	C	05/10/2018	10:46	-132.476	43.139	0	1190.70	0	3.0870	0	34.5640	8	27.537	0	1177.865	0	18.1	4	5.6	4	-1E+10	1	-1E+10	1	-1E+10	1	-1E+10	1	-1E+10	1	-1E+10	1
4901784	104	C	05/10/2018	10:46	-132.476	43.139	0	1195.20	0	3.0790	0	34.5650	8	27.538	0	1182.304	0	18.1	4	5.6	4	-1E+10	1	-1E+10	1	-1E+10	1	-1E+10	1	-1E+10	1	-1E+10	1
4901784	104	C	05/10/2018	10:46	-132.476	43.139	0	1199.60	0	3.0730	0	34.5650	8	27.539	0	1186.644	0	18.2	4	5.6	4	-1E+10	1	-1E+10	1	-1E+10	1	-1E+10	1	-1E+10	1	-1E+10	1
4901784	104	C	05/10/2018	10:46	-132.476	43.139	0	1204.90	0	3.0640	0	34.5660	8	27.541	0	1191.872	0	18.2	4	5.6	4	-1E+10	1	-1E+10	1	-1E+10	1	-1E+10	1	-1E+10	1	-1E+10	1
4901784	104	C	05/10/2018	10:46	-132.476	43.139	0	1210.20	0	3.0520	0	34.5680	8	27.543	0	1197.099	0	18.4	4	5.7	4	-1E+10	1	-1E+10	1	-1E+10	1	-1E+10	1	-1E+10	1	-1E+10	1
4901784	104	C	05/10/2018	10:46	-132.476	43.139	0	1214.80	0	3.0470	0	34.5680	8	27.544	0	1201.636	0	18.4	4	5.7	4	-1E+10	1	-1E+10	1	-1E+10	1	-1E+10	1	-1E+10	1	-1E+10	1
4901784	104	C	05/10/2018	10:46	-132.476	43.139	0	1219.30	0	3.0340	0	34.5690	8	27.546	0	1206.075	0	18.5	4	5.7	4	-1E+10	1	-1E+10	1	-1E+10	1	-1E+10	1	-1E+10	1	-1E+10	1
4901784	104	C	05/10/2018	10:46	-132.476	43.139	0	1224.70	0	3.0290	0	34.5700	8	27.547	0	1211.400	0	18.7	4	5.8	4	-1E+10	1	-1E+10	1	-1E+10	1	-1E+10	1	-1E+10	1	-1E+10	1
4901784	104	C	05/10/2018	10:46	-132.476	43.139	0	1230.10	0	3.0180	0	34.5720	8	27.550	0	1216.726	0	18.8	4	5.8	4	-1E+10	1	-1E+10	1	-1E+10	1	-1E+10	1	-1E+10	1	-1E+10	1
4901784	104	C	05/10/2018	10:46	-132.476	43.139	0	1235.60	0	3.0080	0	34.5720	8	27.551	0	1222.150	0	18.9	4	5.9	4	-1E+10	1	-1E+10	1	-1E+10	1	-1E+10	1	-1E+10	1	-1E+10	1
4901784	104	C	05/10/2018	10:46	-132.476	43.139	0	1240.10	0	2.9960	0	34.5740	8	27.553	0	1226.588	0	19.1	4	5.9	4	-1E+10	1	-1E+10	1	-1E+10	1	-1E+10	1	-1E+10	1	-1E+10	1
4901784	104	C	05/10/2018	10:46	-132.476	43.139	0	1244.60	0	2.9860	0	34.5750	8	27.555	0	1231.026	0	19.2	4	5.9	4	-1E+10	1	-1E+10	1	-1E+10	1	-1E+10	1	-1E+10	1	-1E+10	1
4901784	104	C	05/10/2018	10:46	-132.476	43.139	0	1250.10	0	2.9750	0	34.5760	8	27.557	0	1236.450	0	19.4	4	6.0	4	-1E+10	1	-1E+10	1	-1E+10	1	-1E+10	1	-1E+10	1	-1E+10	1
4901784	104	C	05/10/2018	10:46	-132.476	43.139	0	1255.30	0	2.9670	0	34.5770	8	27.558	0	1241.578	0	19.5	4	6.0	4	-1E+10	1	-1E+10	1	-1E+10	1	-1E+10	1	-1E+10	1	-1E+10	1
4901784	104	C	05/10/2018	10:46	-132.476	43.139	0	1259.50	0	2.9580	0	34.5790	8	27.561	0	1245.720	0	19.7	4	6.1	4	-1E+10	1	-1E+10	1	-1E+10	1	-1E+10	1	-1E+10	1	-1E+10	1
4901784	104	C	05/10/2018	10:46	-132.476	43.139	0	1264.30	0	2.9560	0	34.5790	8	27.561	0	1250.453	0	19.8	4	6.1	4	-1E+10	1	-1E+10	1	-1E+10	1	-1E+10	1	-1E+10	1	-1E+10	1
4901784	104	C	05/10/2018	10:46	-132.476	43.139	0	1270.00	0	2.9490	0	34.5800	8	27.563	0	1256.073	0	20.0	4	6.2	4	-1E+10	1	-1E+10	1	-1E+10	1	-1E+10	1	-1E+10	1	-1E+10	1
4901784	104	C	05/10/2018	10:46	-132.476	43.139	0	1275.70	0	2.9450	0	34.5820	8	27.565	0	1261.694	0	20.2	4	6.2	4	-1E+10	1	-1E+10	1	-1E+10	1	-1E+10	1	-1E+10	1	-1E+10	1
4901784	104	C	05/10/2018	10:46	-132.476	43.139	0	1280.70	0	2.9380	0	34.5820	8	27.565	0	1266.624	0	20.3	4	6.3	4	-1E+10	1	-1E+10	1	-1E+10	1	-1E+10	1	-1E+10	1	-1E+10	1
4901784	104	C	05/10/2018	10:46	-132.476	43.139	0	1285.60	0	2.9320	0	34.5830	8	27.567	0	1271.455	0	20.4	4	6.3	4	-1E+10	1	-1E+10	1	-1E+10	1	-1E+10	1	-1E+10	1	-1E+10	1
4901784	104	C	05/10/2018	10:46	-132.476	43.139	0	1290.60	0	2.9220	0	34.5840	8	27.568	0	1276.385	0	20.7	4	6.4	4	-1E+10	1	-1E+10	1	-1E+10	1	-1E+10	1	-1E+10	1	-1E+10	1
4901784	104	C	05/10/2018	10:46	-132.476	43.139	0	1295.60	0	2.9110	0	34.5870	8	27.572	0	1281.315	0	20.9	4	6.4	4	-1E+10	1	-1E+10	1	-1E+10	1	-1E+10	1	-1E+10	1	-1E+10	1
4901784	104	C	05/10/2018	10:46	-132.476	43.139	0	1300.50	0	2.9050	0	34.5880	8	27.573	0	1286.146	0	21.0	4	6.5	4	-1E+10	1	-1E+10	1	-1E+10	1	-1E+10	1	-1E+10	1	-1E+10	1
4901784	104	C	05/10/2018	10:46	-132.476	43.139	0	1305.50	0	2.9030	0	34.5880	8	27.573	0	1291.075	0	21.1	4	6.5	4	-1E+10	1	-1E+10	1	-1E+10	1	-1E+10	1	-1E+10	1	-1E+10	1
4901784	104	C	05/10/2018	10:46	-132.476	43.139	0	1310.50	0	2.8970	0	34.5880	8	27.574	0	1296.005	0	21.3	4	6.6	4	-1E+10	1	-1E+10	1	-1E+10	1	-1E+10	1	-1E+10	1	-1E+10	1
4901784	104	C	05/10/2018	10:46	-132.476	43.139	0	1315.60	0	2.8880	0	34.5900	8	27.576	0	1301.032	0	21.4	4	6.6	4	-1E+10	1	-1E+10	1	-1E+10	1	-1E+10	1	-1E+10	1	-1E+10	1
4901784	104	C	05/10/2018	10:46	-132.476	43.139	0	1320.70	0	2.8810	0	34.5910	8	27.578	0	1306.060	0	21.5	4	6.6	4	-1E+10	1	-1E+10	1	-1E+10	1	-1E+10	1	-1E+10	1	-1E+10	1
4901784	104	C	05/10/2018	10:46	-132.476	43.139	0	1325.00	0	2.8770	0	34.5910	8	27.578	0	1310.299	0	21.6	4	6.7	4	-1E+10	1	-1E+10	1	-1E+10	1	-1E+10	1	-1E+10	1	-1E+10	1
4901784	104	C	05/10/2018	10:46	-132.476	43.139	0	1329.20	0	2.8740	0	34.5920	8	27.579	0	1314.439	0	21.7	4	6.7	4	-1E+10	1	-1E+10	1	-1E+10	1	-1E+10	1	-1E+10	1	-1E+10	1
4901784	104	C	05/10/2018	10:46	-132.476	43.139	0	1334.20	0	2.8680	0	34.5920	8	27.580	0	1319.368	0	21.9	4	6.7	4	-1E+10	1	-1E+10	1	-1E+10	1	-1E+10	1	-1E+10	1	-1E+10	1
4901784	104	C	05/10/2018	10:46	-132.476	43.139	0	1339.30	0	2.8550	0	34.5930	8	27.582	0	1324.396	0	22.1	4	6.8	4	-1E+10	1	-1E+10	1	-1E+10	1	-1E+10	1	-1E+10	1	-1E+10	1
4901784	104	C	05/10/2018	10:46	-132.476	43.139	0	1344.30	0	2.8550	0	34.5950	8	27.583	0	1329.324	0	22.4	4	6.9	4	-1E+10	1	-1E+10	1	-1E+10	1	-1E+10	1	-1E+10	1	-1E+10	1
4901784	104	C	05/10/2018	10:46	-132.476	43.139	0	1349.70	0	2.8460	0	34.5960	8	27.585	0	1334.647	0	22.5	4	6.9	4	-1E+10	1	-1E+10	1	-1E+10	1	-1E+10	1	-1E+10	1	-1E+10	1
4901784	104	C	05/10/2018	10:46	-132.476	43.139	0	1355.30	0	2.8300	0	34.5960	8	27.586	0	1340.167	0	22.4	4	6.9	4	-1E+10	1	-1E+10	1	-1E+10	1	-1E+10	1	-1E+10	1	-1E+10	1
4901784	104	C	05/10/2018	10:46	-132.476	43.139	0	1359.80	0	2.8100	0	34.5960	8	27.588	0	1344.602	0	22.3	4	6.9	4	-1E+10	1	-1E+10	1	-1E+10	1	-1E+10	1	-1E+10	1	-1E+10	1
4901784	104	C	05/10/2018	10:46	-132.476	43.139	0	1365.30	0	2.7970	0	34.5960	8	27.589	0	1350.023	0	22.4	4	6.9	4	-1E+10	1	-1E+10	1	-1E+10	1	-1E+10	1	-1E+10	1	-1E+10	1
4901784	104	C	05/10/2018	10:46	-132.476	43.139	0	1370.20	0	2.7870	0	34.5980	8	27.592	0	1354.852	0	22.6	4	7.0	4	-1E+10	1	-1E+10	1	-1E+10	1	-1E+10	1	-1E+10	1	-1E+10	1
4901784	104	C	05/10/2018	10:46	-132.476	43.139	0	1375.00	0	2.7790	0	34.5990	8	27.593	0	1359.583	0	22.7	4	7.0	4	-1E+10	1	-1E+10	1	-1E+10	1	-1E+10	1	-1E+10	1	-1E+10	1
4901784	104	C	05/10/2018	10:46	-132.476	43.139	0	1379.80	0	2.7770	0	34.5990	8	27.594	0	1364.314	0	22.8	4	7.0	4	-1E+10	1	-1E+10	1	-1E+10	1	-1E+10	1	-1E+10	1	-1E+10	1
4901784	104	C	05/10/2018	10:46	-132.476	43.139	0	1384.70	0	2.7730	0	34.6000	8	27.595	0	1369.143	0	22.8	4	7.0	4	-1E+10	1	-1E+10	1	-1E+10	1	-1E+10	1	-1E+10	1	-1E+10	1
4901784	104	C	05/10/2018	10:46	-132.476	43.139	0	1389.60	0	2.7710	0	34.6000	8	27.595	0	1373.972	0	22.9	4	7.0	4	-1E+10	1	-1E+10	1	-1E+10	1	-1E+10	1	-1E+10	1	-1E+10	1
4901784	104	C	05/10/2018	10:46	-132.476	43.139	0	1394.50	0	2.7690	0	34.6000	8	27.595	0	1378.801	0	22.9	4	7.0	4	-1E+10	1	-1E+10	1	-1E+10	1	-1E+10	1	-1E+10	1	-1E+10	1
4901784	104	C	05/10/2018	10:46	-132.476	43.139	0	1399.50	0	2.7670	0	34.6000	8	27.595	0	1383.728	0	23.0	4	7.1	4	-1E+10	1	-1E+10	1	-1E+10	1	-1E+10	1	-1E+10	1	-1E+10	1
4901784	104	C	05/10/2018	10:46	-132.476	43.139	0	1404.50	0	2.7620	0	34.6000	8	27.596	0	1388.655	0	23.1	4	7.1	4	-1E+10	1	-1E+10	1	-1E+10	1	-1E+10	1	-1E+10	1	-1E+10	1
4901784	104	C	05/10/2018	10:46	-132.476	43.139	0	1409.50	0	2.7570	0	34.6000	8	27.596	0	1393.583	0	23.2	4	7.1	4	-1E+10	1	-1E+10	1	-1E+10	1	-1E+10	1	-1E+10	1	-1E+10	1
4901784	104	C	05/10/2018	10:46	-132.476	43.139	0	1414.50	0	2.7470	0	34.6020	8	27.599	0	1398.510	0	23.5	4	7.2	4	-1E+10	1	-1E+10	1	-1E+10	1	-1E+10	1	-1E+10	1	-1E+10	1
4901784	104	C	05/10/2018	10:46	-132.476	43.139	0	1419.60	0	2.7340	0	34.6040	8	27.602	0	1403.535	0	23.7	4	7.3	4	-1E+10	1	-1E+10	1	-1E+10	1	-1E+10	1	-1E+10	1	-1E+10	1
4901784	104	C	05/10/2018	10:46	-132.476	43.139	0	1424.80	0	2.7280	0	34.6040	8	27.602	0	1408.659	0	23.8	4	7.3	4	-1E+10	1	-1E+10	1	-1E+10	1	-1E+10	1	-1E+10	1	-1E+10	1
4901784	104	C	05/10/2018	10:46	-132.476	43.139	0	1430.10	0	2.7180	0	34.6050	8	27.604	0	1413.881	0	24.0	4	7.4	4	-1E+10	1	-1E+10	1	-1E+10	1	-1E+10	1	-1E+10	1	-1E+10	1
4901784	104	C	05/10/2018	10:46	-132.476	43.139	0	1435.40	0	2.7080	0	34.6050	8	27.605	0	1419.103	0	24.1	4	7.4	4	-1E+10	1	-1E+10	1	-1E+10	1	-1E+10	1	-1E+10	1	-1E+10	1
4901784	104	C	05/10/2018	10:46	-132.476	43.139	0	1439.90	0	2.6980	0	34.6060	8	27.606	0	1423.537	0	24.2	4	7.4	4	-1E+10	1	-1E+10	1	-1E+10	1	-1E+10	1	-1E+10	1	-1E+10	1
4901784	104	C	05/10/2018	10:46	-132.476	43.139	0	1444.50	0	2.6910	0	34.6060	8	27.607	0	1428.069	0	24.4	4	7.5	4	-1E+10	1	-1E+10	1	-1E+10	1	-1E+10	1	-1E+10	1	-1E+10	1
4901784	104	C	05/10/2018	10:46	-132.476	43.139	0	1449.90	0	2.6820	0	34.6070	8	27.609	0	1433.389	0	24.7	4	7.6	4	-1E+10	1	-1E+10	1	-1E+10	1	-1E+10	1	-1E+10	1	-1E+10	1
4901784	104	C	05/10/2018	10:46	-132.476	43.139	0	1455.40	0	2.6700	0	34.6080	8	27.611	0	1438.808	0	24.9	4	7.6	4	-1E+10	1	-1E+10	1	-1E+10	1	-1E+10	1	-1E+10	1	-1E+10	1
4901784	104	C	05/10/2018	10:46	-132.476	43.139	0	1459.90	0	2.6600	0	34.6100	8	27.613	0	1443.241	0	25.1	4	7.7	4	-1E+10	1	-1E+10	1	-1E+10	1	-1E+10	1	-1E+10	1	-1E+10	1
4901784	104	C	05/10/2018	10:46	-132.476	43.139	0	1464.60	0	2.6550	0	34.6100	8	27.613	0	1447.871	0	25.3	4	7.7	4	-1E+10	1	-1E+10	1	-1E+10	1	-1E+10	1	-1E+10	1	-1E+10	1
4901784	104	C	05/10/2018	10:46	-132.476	43.139	0	1469.90	0	2.6430	0	34.6110	8	27.615	0	1453.093	0	25.6	4	7.8	4	-1E+10	1	-1E+10	1	-1E+10	1	-1E+10	1	-1E+10	1	-1E+10	1
4901784	104	C	05/10/2018	10:46	-132.476	43.139	0	1475.00	0	2.6240	0	34.6120	8	27.618	0	1458.117	0	25.9	4	7.9	4	-1E+10	1	-1E+10	1	-1E+10	1	-1E+10	1	-1E+10	1	-1E+10	1
4901784	104	C	05/10/2018	10:46	-132.476	43.139	0	1480.20	0	2.6100	0	34.6140	8	27.621	0	1463.239	0	26.2	4	8.0	4	-1E+10	1	-1E+10	1	-1E+10	1	-1E+10	1	-1E+10	1	-1E+10	1
4901784	104	C	05/10/2018	10:46	-132.476	43.139	0	1485.30	0	2.6020	0	34.6150	8	27.622	0	1468.263	0	26.3	4	8.1	4	-1E+10	1	-1E+10	1	-1E+10	1	-1E+10	1	-1E+10	1	-1E+10	1
4901784	104	C	05/10/2018	10:46	-132.476	43.139	0	1490.40	0	2.5970	0	34.6150	8	27.623	0	1473.287	0	26.5	4	8.1	4	-1E+10	1	-1E+10	1	-1E+10	1	-1E+10	1	-1E+10	1	-1E+10	1
4901784	104	C	05/10/2018	10:46	-132.476	43.139	0	1495.50	0	2.5810	0	34.6160	8	27.625	0	1478.311	0	26.7	4	8.2	4	-1E+10	1	-1E+10	1	-1E+10	1	-1E+10	1	-1E+10	1	-1E+10	1
4901784	104	C	05/10/2018	10:46	-132.476	43.139	0	1500.70	0	2.5710	0	34.6170	8	27.626	0	1483.432	0	26.9	4	8.2	4	-1E+10	1	-1E+10	1	-1E+10	1	-1E+10	1	-1E+10	1	-1E+10	1
4901784	104	C	05/10/2018	10:46	-132.476	43.139	0	1505.10	0	2.5650	0	34.6180	8	27.628	0	1487.766	0	27.2	4	8.3	4	-1E+10	1	-1E+10	1	-1E+10	1	-1E+10	1	-1E+10	1	-1E+10	1
4901784	104	C	05/10/2018	10:46	-132.476	43.139	0	1509.40	0	2.5530	0	34.6190	8	27.630	0	1492.002	0	27.4	4	8.4	4	-1E+10	1	-1E+10	1	-1E+10	1	-1E+10	1	-1E+10	1	-1E+10	1
4901784	104	C	05/10/2018	10:46	-132.476	43.139	0	1514.60	0	2.5450	0	34.6200	8	27.631	0	1497.123	0	27.7	4	8.5	4	-1E+10	1	-1E+10	1	-1E+10	1	-1E+10	1	-1E+10	1	-1E+10	1
4901784	104	C	05/10/2018	10:46	-132.476	43.139	0	1519.80	0	2.5370	0	34.6210	8	27.633	0	1502.245	0	27.9	4	8.5	4	-1E+10	1	-1E+10	1	-1E+10	1	-1E+10	1	-1E+10	1	-1E+10	1
4901784	104	C	05/10/2018	10:46	-132.476	43.139	0	1525.00	0	2.5280	0	34.6210	8	27.633	0	1507.366	0	28.3	4	8.6	4	-1E+10	1	-1E+10	1	-1E+10	1	-1E+10	1	-1E+10	1	-1E+10	1
4901784	104	C	05/10/2018	10:46	-132.476	43.139	0	1530.30	0	2.5150	0	34.6230	8	27.636	0	1512.586	0	28.6	4	8.7	4	-1E+10	1	-1E+10	1	-1E+10	1	-1E+10	1	-1E+10	1	-1E+10	1
4901784	104	C	05/10/2018	10:46	-132.476	43.139	0	1535.70	0	2.5090	0	34.6230	8	27.637	0	1517.904	0	29.0	4	8.8	4	-1E+10	1	-1E+10	1	-1E+10	1	-1E+10	1	-1E+10	1	-1E+10	1
4901784	104	C	05/10/2018	10:46	-132.476	43.139	0	1540.10	0	2.4950	0	34.6250	8	27.639	0	1522.237	0	29.3	4	9.0	4	-1E+10	1	-1E+10	1	-1E+10	1	-1E+10	1	-1E+10	1	-1E+10	1
4901784	104	C	05/10/2018	10:46	-132.476	43.139	0	1544.60	0	2.4840	0	34.6270	8	27.642	0	1526.669	0	29.6	4	9.0	4	-1E+10	1	-1E+10	1	-1E+10	1	-1E+10	1	-1E+10	1	-1E+10	1
4901784	104	C	05/10/2018	10:46	-132.476	43.139	0	1550.00	0	2.4790	0	34.6270	8	27.642	0	1531.987	0	29.8	4	9.1	4	-1E+10	1	-1E+10	1	-1E+10	1	-1E+10	1	-1E+10	1	-1E+10	1
4901784	104	C	05/10/2018	10:46	-132.476	43.139	0	1555.40	0	2.4750	0	34.6270	8	27.643	0	1537.304	0	30.1	4	9.2	4	-1E+10	1	-1E+10	1	-1E+10	1	-1E+10	1	-1E+10	1	-1E+10	1
4901784	104	C	05/10/2018	10:46	-132.476	43.139	0	1559.90	0	2.4620	0	34.6290	8	27.646	0	1541.736	0	30.5	4	9.3	4	-1E+10	1	-1E+10	1	-1E+10	1	-1E+10	1	-1E+10	1	-1E+10	1
4901784	104	C	05/10/2018	10:46	-132.476	43.139	0	1564.40	0	2.4540	0	34.6300	8	27.647	0	1546.167	0	30.9	4	9.4	4	-1E+10	1	-1E+10	1	-1E+10	1	-1E+10	1	-1E+10	1	-1E+10	1
4901784	104	C	05/10/2018	10:46	-132.476	43.139	0	1569.80	0	2.4410	0	34.6320	8	27.650	0	1551.484	0	31.4	4	9.6	4	-1E+10	1	-1E+10	1	-1E+10	1	-1E+10	1	-1E+10	1	-1E+10	1
4901784	104	C	05/10/2018	10:46	-132.476	43.139	0	1575.20	0	2.4310	0	34.6330	8	27.651	0	1556.801	0	31.8	4	9.7	4	-1E+10	1	-1E+10	1	-1E+10	1	-1E+10	1	-1E+10	1	-1E+10	1
4901784	104	C	05/10/2018	10:46	-132.476	43.139	0	1579.80	0	2.4270	0	34.6340	8	27.653	0	1561.331	0	32.2	4	9.8	4	-1E+10	1	-1E+10	1	-1E+10	1	-1E+10	1	-1E+10	1	-1E+10	1
4901784	104	C	05/10/2018	10:46	-132.476	43.139	0	1584.40	0	2.4230	0	34.6360	8	27.655	0	1565.860	0	32.5	4	9.9	4	-1E+10	1	-1E+10	1	-1E+10	1	-1E+10	1	-1E+10	1	-1E+10	1
4901784	104	C	05/10/2018	10:46	-132.476	43.139	0	1589.80	0	2.4200	0	34.6360	8	27.655	0	1571.177	0	32.7	4	10.0	4	-1E+10	1	-1E+10	1	-1E+10	1	-1E+10	1	-1E+10	1	-1E+10	1
4901784	104	C	05/10/2018	10:46	-132.476	43.139	0	1595.30	0	2.4060	0	34.6370	8	27.657	0	1576.592	0	33.1	4	10.1	4	-1E+10	1	-1E+10	1	-1E+10	1	-1E+10	1	-1E+10	1	-1E+10	1
4901784	104	C	05/10/2018	10:46	-132.476	43.139	0	1599.90	0	2.3910	0	34.6380	8	27.659	0	1581.121	0	33.5	4	10.2	4	-1E+10	1	-1E+10	1	-1E+10	1	-1E+10	1	-1E+10	1	-1E+10	1
4901784	104	C	05/10/2018	10:46	-132.476	43.139	0	1604.60	0	2.3800	0	34.6400	8	27.661	0	1585.748	0	33.9	4	10.3	4	-1E+10	1	-1E+10	1	-1E+10	1	-1E+10	1	-1E+10	1	-1E+10	1
4901784	104	C	05/10/2018	10:46	-132.476	43.139	0	1610.00	0	2.3730	0	34.6400	8	27.662	0	1591.064	0	34.1	4	10.4	4	-1E+10	1	-1E+10	1	-1E+10	1	-1E+10	1	-1E+10	1	-1E+10	1
4901784	104	C	05/10/2018	10:46	-132.476	43.139	0	1615.50	0	2.3630	0	34.6410	8	27.664	0	1596.479	0	34.4	4	10.5	4	-1E+10	1	-1E+10	1	-1E+10	1	-1E+10	1	-1E+10	1	-1E+10	1
4901784	104	C	05/10/2018	10:46	-132.476	43.139	0	1620.50	0	2.3560	0	34.6420	8	27.665	0	1601.401	0	34.8	4	10.6	4	-1E+10	1	-1E+10	1	-1E+10	1	-1E+10	1	-1E+10	1	-1E+10	1
4901784	104	C	05/10/2018	10:46	-132.476	43.139	0	1625.40	0	2.3500	0	34.6430	8	27.666	0	1606.225	0	35.1	4	10.7	4	-1E+10	1	-1E+10	1	-1E+10	1	-1E+10	1	-1E+10	1	-1E+10	1
4901784	104	C	05/10/2018	10:46	-132.476	43.139	0	1630.40	0	2.3390	0	34.6440	8	27.668	0	1611.147	0	35.5	4	10.8	4	-1E+10	1	-1E+10	1	-1E+10	1	-1E+10	1	-1E+10	1	-1E+10	1
4901784	104	C	05/10/2018	10:46	-132.476	43.139	0	1635.40	0	2.3300	0	34.6450	8	27.670	0	1616.068	0	35.8	4	10.9	4	-1E+10	1	-1E+10	1	-1E+10	1	-1E+10	1	-1E+10	1	-1E+10	1
4901784	104	C	05/10/2018	10:46	-132.476	43.139	0	1640.40	0	2.3200	0	34.6460	8	27.671	0	1620.990	0	36.1	4	11.0	4	-1E+10	1	-1E+10	1	-1E+10	1	-1E+10	1	-1E+10	1	-1E+10	1
4901784	104	C	05/10/2018	10:46	-132.476	43.139	0	1645.40	0	2.3120	0	34.6460	8	27.672	0	1625.912	0	36.4	4	11.1	4	-1E+10	1	-1E+10	1	-1E+10	1	-1E+10	1	-1E+10	1	-1E+10	1
4901784	104	C	05/10/2018	10:46	-132.476	43.139	0	1650.50	0	2.3030	0	34.6470	8	27.674	0	1630.932	0	36.7	4	11.2	4	-1E+10	1	-1E+10	1	-1E+10	1	-1E+10	1	-1E+10	1	-1E+10	1
4901784	104	C	05/10/2018	10:46	-132.476	43.139	0	1655.50	0	2.2910	0	34.6480	8	27.675	0	1635.853	0	37.0	4	11.2	4	-1E+10	1	-1E+10	1	-1E+10	1	-1E+10	1	-1E+10	1	-1E+10	1
4901784	104	C	05/10/2018	10:46	-132.476	43.139	0	1660.50	0	2.2860	0	34.6490	8	27.677	0	1640.775	0	37.2	4	11.3	4	-1E+10	1	-1E+10	1	-1E+10	1	-1E+10	1	-1E+10	1	-1E+10	1
4901784	104	C	05/10/2018	10:46	-132.476	43.139	0	1665.50	0	2.2800	0	34.6500	8	27.678	0	1645.696	0	37.4	4	11.4	4	-1E+10	1	-1E+10	1	-1E+10	1	-1E+10	1	-1E+10	1	-1E+10	1
4901784	104	C	05/10/2018	10:46	-132.476	43.139	0	1670.60	0	2.2790	0	34.6500	8	27.678	0	1650.715	0	37.6	4	11.4	4	-1E+10	1	-1E+10	1	-1E+10	1	-1E+10	1	-1E+10	1	-1E+10	1
4901784	104	C	05/10/2018	10:46	-132.476	43.139	0	1675.70	0	2.2770	0	34.6510	8	27.679	0	1655.735	0	38.0	4	11.5	4	-1E+10	1	-1E+10	1	-1E+10	1	-1E+10	1	-1E+10	1	-1E+10	1
4901784	104	C	05/10/2018	10:46	-132.476	43.139	0	1680.70	0	2.2690	0	34.6510	8	27.680	0	1660.655	0	38.5	4	11.7	4	-1E+10	1	-1E+10	1	-1E+10	1	-1E+10	1	-1E+10	1	-1E+10	1
4901784	104	C	05/10/2018	10:46	-132.476	43.139	0	1685.80	0	2.2600	0	34.6520	8	27.681	0	1665.675	0	39.0	4	11.8	4	-1E+10	1	-1E+10	1	-1E+10	1	-1E+10	1	-1E+10	1	-1E+10	1
4901784	104	C	05/10/2018	10:46	-132.476	43.139	0	1690.10	0	2.2550	0	34.6540	8	27.683	0	1669.906	0	39.3	4	11.9	4	-1E+10	1	-1E+10	1	-1E+10	1	-1E+10	1	-1E+10	1	-1E+10	1
4901784	104	C	05/10/2018	10:46	-132.476	43.139	0	1694.40	0	2.2520	0	34.6540	8	27.684	0	1674.138	0	39.6	4	12.0	4	-1E+10	1	-1E+10	1	-1E+10	1	-1E+10	1	-1E+10	1	-1E+10	1
4901784	104	C	05/10/2018	10:46	-132.476	43.139	0	1699.60	0	2.2490	0	34.6550	8	27.685	0	1679.255	0	40.0	4	12.1	4	-1E+10	1	-1E+10	1	-1E+10	1	-1E+10	1	-1E+10	1	-1E+10	1
4901784	104	C	05/10/2018	10:46	-132.476	43.139	0	1704.80	0	2.2460	0	34.6560	8	27.686	0	1684.372	0	40.4	4	12.3	4	-1E+10	1	-1E+10	1	-1E+10	1	-1E+10	1	-1E+10	1	-1E+10	1
4901784	104	C	05/10/2018	10:46	-132.476	43.139	0	1710.10	0	2.2370	0	34.6570	8	27.687	0	1689.588	0	41.0	4	12.4	4	-1E+10	1	-1E+10	1	-1E+10	1	-1E+10	1	-1E+10	1	-1E+10	1
4901784	104	C	05/10/2018	10:46	-132.476	43.139	0	1715.30	0	2.2280	0	34.6580	8	27.689	0	1694.705	0	41.4	4	12.6	4	-1E+10	1	-1E+10	1	-1E+10	1	-1E+10	1	-1E+10	1	-1E+10	1
4901784	104	C	05/10/2018	10:46	-132.476	43.139	0	1720.50	0	2.2190	0	34.6590	8	27.690	0	1699.821	0	41.9	4	12.7	4	-1E+10	1	-1E+10	1	-1E+10	1	-1E+10	1	-1E+10	1	-1E+10	1
4901784	104	C	05/10/2018	10:46	-132.476	43.139	0	1724.90	0	2.2080	0	34.6600	8	27.692	0	1704.151	0	42.2	4	12.8	4	-1E+10	1	-1E+10	1	-1E+10	1	-1E+10	1	-1E+10	1	-1E+10	1
4901784	104	C	05/10/2018	10:46	-132.476	43.139	0	1729.40	0	2.2020	0	34.6610	8	27.693	0	1708.579	0	42.6	4	12.9	4	-1E+10	1	-1E+10	1	-1E+10	1	-1E+10	1	-1E+10	1	-1E+10	1
4901784	104	C	05/10/2018	10:46	-132.476	43.139	0	1734.70	0	2.1890	0	34.6620	8	27.695	0	1713.793	0	43.2	4	13.1	4	-1E+10	1	-1E+10	1	-1E+10	1	-1E+10	1	-1E+10	1	-1E+10	1
4901784	104	C	05/10/2018	10:46	-132.476	43.139	0	1740.00	0	2.1790	0	34.6640	8	27.698	0	1719.008	0	43.8	4	13.3	4	-1E+10	1	-1E+10	1	-1E+10	1	-1E+10	1	-1E+10	1	-1E+10	1
4901784	104	C	05/10/2018	10:46	-132.476	43.139	0	1745.40	0	2.1710	0	34.6650	8	27.699	0	1724.321	0	44.3	4	13.4	4	-1E+10	1	-1E+10	1	-1E+10	1	-1E+10	1	-1E+10	1	-1E+10	1
4901784	104	C	05/10/2018	10:46	-132.476	43.139	0	1749.80	0	2.1650	0	34.6660	8	27.700	0	1728.650	0	44.6	4	13.5	4	-1E+10	1	-1E+10	1	-1E+10	1	-1E+10	1	-1E+10	1	-1E+10	1
4901784	104	C	05/10/2018	10:46	-132.476	43.139	0	1754.20	0	2.1610	0	34.6670	8	27.702	0	1732.979	0	45.0	4	13.6	4	-1E+10	1	-1E+10	1	-1E+10	1	-1E+10	1	-1E+10	1	-1E+10	1
4901784	104	C	05/10/2018	10:46	-132.476	43.139	0	1759.50	0	2.1500	0	34.6690	8	27.704	0	1738.193	0	45.4	4	13.8	4	-1E+10	1	-1E+10	1	-1E+10	1	-1E+10	1	-1E+10	1	-1E+10	1
4901784	104	C	05/10/2018	10:46	-132.476	43.139	0	1764.40	0	2.1460	0	34.6700	8	27.705	0	1743.014	0	45.6	4	13.8	4	-1E+10	1	-1E+10	1	-1E+10	1	-1E+10	1	-1E+10	1	-1E+10	1
4901784	104	C	05/10/2018	10:46	-132.476	43.139	0	1769.30	0	2.1400	0	34.6700	8	27.706	0	1747.834	0	45.9	4	13.9	4	-1E+10	1	-1E+10	1	-1E+10	1	-1E+10	1	-1E+10	1	-1E+10	1
4901784	104	C	05/10/2018	10:46	-132.476	43.139	0	1775.00	0	2.1330	0	34.6710	8	27.707	0	1753.441	0	46.3	4	14.0	4	-1E+10	1	-1E+10	1	-1E+10	1	-1E+10	1	-1E+10	1	-1E+10	1
4901784	104	C	05/10/2018	10:46	-132.476	43.139	0	1780.70	0	2.1200	0	34.6720	8	27.709	0	1759.048	0	46.8	4	14.2	4	-1E+10	1	-1E+10	1	-1E+10	1	-1E+10	1	-1E+10	1	-1E+10	1
4901784	104	C	05/10/2018	10:46	-132.476	43.139	0	1785.70	0	2.1150	0	34.6730	8	27.710	0	1763.967	0	47.1	4	14.2	4	-1E+10	1	-1E+10	1	-1E+10	1	-1E+10	1	-1E+10	1	-1E+10	1
4901784	104	C	05/10/2018	10:46	-132.476	43.139	0	1790.70	0	2.1080	0	34.6740	8	27.712	0	1768.885	0	47.4	4	14.3	4	-1E+10	1	-1E+10	1	-1E+10	1	-1E+10	1	-1E+10	1	-1E+10	1
4901784	104	C	05/10/2018	10:46	-132.476	43.139	0	1794.90	0	2.1010	0	34.6740	8	27.712	0	1773.017	0	47.6	4	14.4	4	-1E+10	1	-1E+10	1	-1E+10	1	-1E+10	1	-1E+10	1	-1E+10	1
4901784	104	C	05/10/2018	10:46	-132.476	43.139	0	1799.20	0	2.0960	0	34.6750	8	27.713	0	1777.246	0	47.9	4	14.5	4	-1E+10	1	-1E+10	1	-1E+10	1	-1E+10	1	-1E+10	1	-1E+10	1
4901784	104	C	05/10/2018	10:46	-132.476	43.139	0	1804.30	0	2.0880	0	34.6760	8	27.715	0	1782.263	0	48.2	4	14.6	4	-1E+10	1	-1E+10	1	-1E+10	1	-1E+10	1	-1E+10	1	-1E+10	1
4901784	104	C	05/10/2018	10:46	-132.476	43.139	0	1809.50	0	2.0850	0	34.6760	8	27.715	0	1787.377	0	48.5	4	14.7	4	-1E+10	1	-1E+10	1	-1E+10	1	-1E+10	1	-1E+10	1	-1E+10	1
4901784	104	C	05/10/2018	10:46	-132.476	43.139	0	1814.60	0	2.0800	0	34.6770	8	27.716	0	1792.393	0	48.8	4	14.8	4	-1E+10	1	-1E+10	1	-1E+10	1	-1E+10	1	-1E+10	1	-1E+10	1
4901784	104	C	05/10/2018	10:46	-132.476	43.139	0	1819.80	0	2.0750	0	34.6780	8	27.718	0	1797.508	0	49.1	4	14.8	4	-1E+10	1	-1E+10	1	-1E+10	1	-1E+10	1	-1E+10	1	-1E+10	1
4901784	104	C	05/10/2018	10:46	-132.476	43.139	0	1825.00	0	2.0700	0	34.6780	8	27.718	0	1802.622	0	49.3	4	14.9	4	-1E+10	1	-1E+10	1	-1E+10	1	-1E+10	1	-1E+10	1	-1E+10	1
4901784	104	C	05/10/2018	10:46	-132.476	43.139	0	1830.40	0	2.0660	0	34.6790	8	27.719	0	1807.933	0	49.6	4	15.0	4	-1E+10	1	-1E+10	1	-1E+10	1	-1E+10	1	-1E+10	1	-1E+10	1
4901784	104	C	05/10/2018	10:46	-132.476	43.139	0	1835.70	0	2.0620	0	34.6800	8	27.720	0	1813.145	0	50.0	4	15.1	4	-1E+10	1	-1E+10	1	-1E+10	1	-1E+10	1	-1E+10	1	-1E+10	1
4901784	104	C	05/10/2018	10:46	-132.476	43.139	0	1840.20	0	2.0590	0	34.6810	8	27.721	0	1817.571	0	50.3	4	15.2	4	-1E+10	1	-1E+10	1	-1E+10	1	-1E+10	1	-1E+10	1	-1E+10	1
4901784	104	C	05/10/2018	10:46	-132.476	43.139	0	1844.90	0	2.0560	0	34.6810	8	27.722	0	1822.193	0	50.5	4	15.3	4	-1E+10	1	-1E+10	1	-1E+10	1	-1E+10	1	-1E+10	1	-1E+10	1
4901784	104	C	05/10/2018	10:46	-132.476	43.139	0	1850.00	0	2.0520	0	34.6820	8	27.723	0	1827.208	0	50.9	4	15.4	4	-1E+10	1	-1E+10	1	-1E+10	1	-1E+10	1	-1E+10	1	-1E+10	1
4901784	104	C	05/10/2018	10:46	-132.476	43.139	0	1854.80	0	2.0480	0	34.6830	8	27.724	0	1831.928	0	51.2	4	15.5	4	-1E+10	1	-1E+10	1	-1E+10	1	-1E+10	1	-1E+10	1	-1E+10	1
4901784	104	C	05/10/2018	10:46	-132.476	43.139	0	1859.60	0	2.0450	0	34.6840	8	27.725	0	1836.648	0	51.5	4	15.5	4	-1E+10	1	-1E+10	1	-1E+10	1	-1E+10	1	-1E+10	1	-1E+10	1
4901784	104	C	05/10/2018	10:46	-132.476	43.139	0	1864.40	0	2.0390	0	34.6840	8	27.725	0	1841.368	0	51.8	4	15.6	4	-1E+10	1	-1E+10	1	-1E+10	1	-1E+10	1	-1E+10	1	-1E+10	1
4901784	104	C	05/10/2018	10:46	-132.476	43.139	0	1870.00	0	2.0340	0	34.6850	8	27.727	0	1846.875	0	52.1	4	15.7	4	-1E+10	1	-1E+10	1	-1E+10	1	-1E+10	1	-1E+10	1	-1E+10	1
4901784	104	C	05/10/2018	10:46	-132.476	43.139	0	1875.70	0	2.0270	0	34.6860	8	27.728	0	1852.480	0	52.6	4	15.9	4	-1E+10	1	-1E+10	1	-1E+10	1	-1E+10	1	-1E+10	1	-1E+10	1
4901784	104	C	05/10/2018	10:46	-132.476	43.139	0	1880.60	0	2.0230	0	34.6870	8	27.729	0	1857.298	0	53.0	4	16.0	4	-1E+10	1	-1E+10	1	-1E+10	1	-1E+10	1	-1E+10	1	-1E+10	1
4901784	104	C	05/10/2018	10:46	-132.476	43.139	0	1885.50	0	2.0200	0	34.6880	8	27.730	0	1862.115	0	53.3	4	16.1	4	-1E+10	1	-1E+10	1	-1E+10	1	-1E+10	1	-1E+10	1	-1E+10	1
4901784	104	C	05/10/2018	10:46	-132.476	43.139	0	1890.60	0	2.0150	0	34.6880	8	27.731	0	1867.130	0	53.6	4	16.2	4	-1E+10	1	-1E+10	1	-1E+10	1	-1E+10	1	-1E+10	1	-1E+10	1
4901784	104	C	05/10/2018	10:46	-132.476	43.139	0	1895.60	0	2.0110	0	34.6890	8	27.732	0	1872.046	0	53.9	4	16.3	4	-1E+10	1	-1E+10	1	-1E+10	1	-1E+10	1	-1E+10	1	-1E+10	1
4901784	104	C	05/10/2018	10:46	-132.476	43.139	0	1900.70	0	2.0070	0	34.6900	8	27.733	0	1877.060	0	54.2	4	16.4	4	-1E+10	1	-1E+10	1	-1E+10	1	-1E+10	1	-1E+10	1	-1E+10	1
4901784	104	C	05/10/2018	10:46	-132.476	43.139	0	1905.00	0	2.0040	0	34.6900	8	27.733	0	1881.287	0	54.4	4	16.4	4	-1E+10	1	-1E+10	1	-1E+10	1	-1E+10	1	-1E+10	1	-1E+10	1
4901784	104	C	05/10/2018	10:46	-132.476	43.139	0	1909.20	0	2.0010	0	34.6910	8	27.734	0	1885.416	0	54.6	4	16.5	4	-1E+10	1	-1E+10	1	-1E+10	1	-1E+10	1	-1E+10	1	-1E+10	1
4901784	104	C	05/10/2018	10:46	-132.476	43.139	0	1914.20	0	1.9990	0	34.6910	8	27.734	0	1890.332	0	54.7	4	16.5	4	-1E+10	1	-1E+10	1	-1E+10	1	-1E+10	1	-1E+10	1	-1E+10	1
4901784	104	C	05/10/2018	10:46	-132.476	43.139	0	1919.20	0	1.9950	0	34.6910	8	27.735	0	1895.247	0	54.8	4	16.5	4	-1E+10	1	-1E+10	1	-1E+10	1	-1E+10	1	-1E+10	1	-1E+10	1
4901784	104	C	05/10/2018	10:46	-132.476	43.139	0	1924.30	0	1.9910	0	34.6920	8	27.736	0	1900.261	0	55.0	4	16.6	4	-1E+10	1	-1E+10	1	-1E+10	1	-1E+10	1	-1E+10	1	-1E+10	1
4901784	104	C	05/10/2018	10:46	-132.476	43.139	0	1929.50	0	1.9900	0	34.6920	8	27.736	0	1905.373	0	55.1	4	16.6	4	-1E+10	1	-1E+10	1	-1E+10	1	-1E+10	1	-1E+10	1	-1E+10	1
4901784	104	C	05/10/2018	10:46	-132.476	43.139	0	1934.60	0	1.9880	0	34.6920	8	27.736	0	1910.386	0	55.4	4	16.7	4	-1E+10	1	-1E+10	1	-1E+10	1	-1E+10	1	-1E+10	1	-1E+10	1
4901784	104	C	05/10/2018	10:46	-132.476	43.139	0	1939.80	0	1.9840	0	34.6920	8	27.737	0	1915.498	0	55.7	4	16.8	4	-1E+10	1	-1E+10	1	-1E+10	1	-1E+10	1	-1E+10	1	-1E+10	1
4901784	104	C	05/10/2018	10:46	-132.476	43.139	0	1944.90	0	1.9790	0	34.6930	8	27.738	0	1920.511	0	56.0	4	16.9	4	-1E+10	1	-1E+10	1	-1E+10	1	-1E+10	1	-1E+10	1	-1E+10	1
4901784	104	C	05/10/2018	10:46	-132.476	43.139	0	1950.10	0	1.9760	0	34.6930	8	27.738	0	1925.622	0	56.4	4	17.0	4	-1E+10	1	-1E+10	1	-1E+10	1	-1E+10	1	-1E+10	1	-1E+10	1
4901784	104	C	05/10/2018	10:46	-132.476	43.139	0	1955.30	0	1.9690	0	34.6940	8	27.739	0	1930.733	0	56.9	4	17.2	4	-1E+10	1	-1E+10	1	-1E+10	1	-1E+10	1	-1E+10	1	-1E+10	1
4901784	104	C	05/10/2018	10:46	-132.476	43.139	0	1960.50	0	1.9640	0	34.6950	8	27.741	0	1935.844	0	57.4	4	17.3	4	-1E+10	1	-1E+10	1	-1E+10	1	-1E+10	1	-1E+10	1	-1E+10	1
4901784	104	C	05/10/2018	10:46	-132.476	43.139	0	1964.90	0	1.9580	0	34.6960	8	27.742	0	1940.169	0	57.7	4	17.4	4	-1E+10	1	-1E+10	1	-1E+10	1	-1E+10	1	-1E+10	1	-1E+10	1
4901784	104	C	05/10/2018	10:46	-132.476	43.139	0	1969.30	0	1.9520	0	34.6980	8	27.744	0	1944.494	0	58.1	4	17.5	4	-1E+10	1	-1E+10	1	-1E+10	1	-1E+10	1	-1E+10	1	-1E+10	1
4901784	104	C	05/10/2018	10:46	-132.476	43.139	0	1974.50	0	1.9480	0	34.6990	8	27.745	0	1949.604	0	58.4	4	17.6	4	-1E+10	1	-1E+10	1	-1E+10	1	-1E+10	1	-1E+10	1	-1E+10	1
4901784	104	C	05/10/2018	10:46	-132.476	43.139	0	1979.80	0	1.9440	0	34.6990	8	27.745	0	1954.813	0	58.6	4	17.7	4	-1E+10	1	-1E+10	1	-1E+10	1	-1E+10	1	-1E+10	1	-1E+10	1
4901784	104	C	05/10/2018	10:46	-132.476	43.139	0	1985.60	0	1.9410	0	34.7000	8	27.746	0	1960.513	0	58.9	4	17.7	4	-1E+10	1	-1E+10	1	-1E+10	1	-1E+10	1	-1E+10	1	-1E+10	1
4901784	104	C	05/10/2018	10:46	-132.476	43.139	0	1990.40	0	1.9370	0	34.7000	8	27.747	0	1965.231	0	59.1	4	17.8	4	-1E+10	1	-1E+10	1	-1E+10	1	-1E+10	1	-1E+10	1	-1E+10	1
4901784	104	C	05/10/2018	10:46	-132.476	43.139	0	1995.40	0	1.9330	0	34.7010	8	27.748	0	1970.144	0	59.3	4	17.9	4	-1E+10	1	-1E+10	1	-1E+10	1	-1E+10	1	-1E+10	1	-1E+10	1
4901784	104	C	05/10/2018	10:46	-132.476	43.139	0	2000.10	0	1.9310	0	34.7010	8	27.748	0	1974.763	0	59.4	4	17.9	4	-1E+10	1	-1E+10	1	-1E+10	1	-1E+10	1	-1E+10	1	-1E+10	1
4901784	104	C	05/10/2018	10:46	-132.476	43.139	0	2005.10	0	1.9290	0	34.7020	8	27.749	0	1979.676	0	59.6	4	17.9	4	-1E+10	1	-1E+10	1	-1E+10	1	-1E+10	1	-1E+10	1	-1E+10	1
4901784	104	C	05/10/2018	10:46	-132.476	43.139	0	2008.70	0	1.9260	0	34.7010	8	27.749	0	1983.214	0	58.2	8	17.5	8	-1E+10	1	-1E+10	1	-1E+10	1	-1E+10	1	-1E+10	1	-1E+10	1
4901784	104	C	05/10/2018	10:46	-132.476	43.139	0																										
4901784	105	C	05/20/2018	10:40	-132.315	43.157	0	2.60	0	11.6730	0	32.6560	8	24.830	0	2.579	0	269.8	4	100.1	4	-1E+10	1	-1E+10	1	-1E+10	1	-1E+10	1	-1E+10	1	-1E+10	1
4901784	105	C	05/20/2018	10:40	-132.315	43.157	0	3.90	0	11.6720	0	32.6540	8	24.829	0	3.869	0	269.6	4	100.0	4	-1E+10	1	-1E+10	1	-1E+10	1	-1E+10	1	-1E+10	1	-1E+10	1
4901784	105	C	05/20/2018	10:40	-132.315	43.157	0	5.30	0	11.6720	0	32.6520	8	24.827	0	5.258	0	269.7	4	100.1	4	-1E+10	1	-1E+10	1	-1E+10	1	-1E+10	1	-1E+10	1	-1E+10	1
4901784	105	C	05/20/2018	10:40	-132.315	43.157	0	6.70	0	11.6610	0	32.6460	8	24.825	0	6.647	0	269.9	4	100.1	4	-1E+10	1	-1E+10	1	-1E+10	1	-1E+10	1	-1E+10	1	-1E+10	1
4901784	105	C	05/20/2018	10:40	-132.315	43.157	0	8.30	0	11.4840	0	32.6610	8	24.869	0	8.234	0	270.6	4	100.0	4	-1E+10	1	-1E+10	1	-1E+10	1	-1E+10	1	-1E+10	1	-1E+10	1
4901784	105	C	05/20/2018	10:40	-132.315	43.157	0	9.90	0	11.3720	0	32.6790	8	24.903	0	9.821	0	271.5	4	100.1	4	-1E+10	1	-1E+10	1	-1E+10	1	-1E+10	1	-1E+10	1	-1E+10	1
4901784	105	C	05/20/2018	10:40	-132.315	43.157	0	11.60	0	11.3300	0	32.6760	8	24.908	0	11.507	0	271.7	4	100.1	4	-1E+10	1	-1E+10	1	-1E+10	1	-1E+10	1	-1E+10	1	-1E+10	1
4901784	105	C	05/20/2018	10:40	-132.315	43.157	0	13.30	0	11.2090	0	32.6760	8	24.930	0	13.194	0	272.3	4	100.1	4	-1E+10	1	-1E+10	1	-1E+10	1	-1E+10	1	-1E+10	1	-1E+10	1
4901784	105	C	05/20/2018	10:40	-132.315	43.157	0	15.00	0	11.1750	0	32.6730	8	24.934	0	14.880	0	272.9	4	100.2	4	-1E+10	1	-1E+10	1	-1E+10	1	-1E+10	1	-1E+10	1	-1E+10	1
4901784	105	C	05/20/2018	10:40	-132.315	43.157	0	16.80	0	11.1140	0	32.6950	8	24.962	0	16.666	0	273.0	4	100.1	4	-1E+10	1	-1E+10	1	-1E+10	1	-1E+10	1	-1E+10	1	-1E+10	1
4901784	105	C	05/20/2018	10:40	-132.315	43.157	0	18.60	0	11.0290	0	32.7250	8	25.000	0	18.451	0	273.8	4	100.3	4	-1E+10	1	-1E+10	1	-1E+10	1	-1E+10	1	-1E+10	1	-1E+10	1
4901784	105	C	05/20/2018	10:40	-132.315	43.157	0	20.40	0	10.9600	0	32.7560	8	25.036	0	20.237	0	274.5	4	100.4	4	-1E+10	1	-1E+10	1	-1E+10	1	-1E+10	1	-1E+10	1	-1E+10	1
4901784	105	C	05/20/2018	10:40	-132.315	43.157	0	22.20	0	10.9070	0	32.7620	8	25.050	0	22.022	0	274.7	4	100.4	4	-1E+10	1	-1E+10	1	-1E+10	1	-1E+10	1	-1E+10	1	-1E+10	1
4901784	105	C	05/20/2018	10:40	-132.315	43.157	0	23.90	0	10.8180	0	32.7630	8	25.067	0	23.709	0	275.1	4	100.3	4	-1E+10	1	-1E+10	1	-1E+10	1	-1E+10	1	-1E+10	1	-1E+10	1
4901784	105	C	05/20/2018	10:40	-132.315	43.157	0	25.70	0	10.3470	0	32.7820	8	25.163	0	25.494	0	277.0	4	100.0	4	-1E+10	1	-1E+10	1	-1E+10	1	-1E+10	1	-1E+10	1	-1E+10	1
4901784	105	C	05/20/2018	10:40	-132.315	43.157	0	27.60	0	10.0530	0	32.7630	8	25.198	0	27.379	0	278.6	4	100.0	4	-1E+10	1	-1E+10	1	-1E+10	1	-1E+10	1	-1E+10	1	-1E+10	1
4901784	105	C	05/20/2018	10:40	-132.315	43.157	0	29.40	0	9.8300	0	32.7520	8	25.226	0	29.164	0	279.3	4	99.7	4	-1E+10	1	-1E+10	1	-1E+10	1	-1E+10	1	-1E+10	1	-1E+10	1
4901784	105	C	05/20/2018	10:40	-132.315	43.157	0	31.20	0	9.8100	0	32.7620	8	25.237	0	30.950	0	279.5	4	99.8	4	-1E+10	1	-1E+10	1	-1E+10	1	-1E+10	1	-1E+10	1	-1E+10	1
4901784	105	C	05/20/2018	10:40	-132.315	43.157	0	33.00	0	9.7540	0	32.7640	8	25.248	0	32.735	0	279.3	4	99.6	4	-1E+10	1	-1E+10	1	-1E+10	1	-1E+10	1	-1E+10	1	-1E+10	1
4901784	105	C	05/20/2018	10:40	-132.315	43.157	0	34.90	0	9.7440	0	32.7630	8	25.249	0	34.620	0	278.8	4	99.3	4	-1E+10	1	-1E+10	1	-1E+10	1	-1E+10	1	-1E+10	1	-1E+10	1
4901784	105	C	05/20/2018	10:40	-132.315	43.157	0	36.80	0	9.6520	0	32.7590	8	25.261	0	36.504	0	278.9	4	99.2	4	-1E+10	1	-1E+10	1	-1E+10	1	-1E+10	1	-1E+10	1	-1E+10	1
4901784	105	C	05/20/2018	10:40	-132.315	43.157	0	38.70	0	9.8190	0	32.8100	8	25.273	0	38.389	0	278.0	4	99.3	4	-1E+10	1	-1E+10	1	-1E+10	1	-1E+10	1	-1E+10	1	-1E+10	1
4901784	105	C	05/20/2018	10:40	-132.315	43.157	0	40.60	0	9.7410	0	32.8050	8	25.282	0	40.273	0	277.3	4	98.8	4	-1E+10	1	-1E+10	1	-1E+10	1	-1E+10	1	-1E+10	1	-1E+10	1
4901784	105	C	05/20/2018	10:40	-132.315	43.157	0	42.40	0	9.7740	0	32.8070	8	25.278	0	42.059	0	276.7	4	98.7	4	-1E+10	1	-1E+10	1	-1E+10	1	-1E+10	1	-1E+10	1	-1E+10	1
4901784	105	C	05/20/2018	10:40	-132.315	43.157	0	44.30	0	9.7850	0	32.8180	8	25.285	0	43.943	0	275.9	4	98.5	4	-1E+10	1	-1E+10	1	-1E+10	1	-1E+10	1	-1E+10	1	-1E+10	1
4901784	105	C	05/20/2018	10:40	-132.315	43.157	0	46.20	0	9.8070	0	32.8260	8	25.288	0	45.828	0	275.2	4	98.3	4	-1E+10	1	-1E+10	1	-1E+10	1	-1E+10	1	-1E+10	1	-1E+10	1
4901784	105	C	05/20/2018	10:40	-132.315	43.157	0	48.00	0	9.8350	0	32.8300	8	25.286	0	47.613	0	274.9	4	98.2	4	-1E+10	1	-1E+10	1	-1E+10	1	-1E+10	1	-1E+10	1	-1E+10	1
4901784	105	C	05/20/2018	10:40	-132.315	43.157	0	49.80	0	9.8370	0	32.8320	8	25.288	0	49.398	0	274.2	4	98.0	4	-1E+10	1	-1E+10	1	-1E+10	1	-1E+10	1	-1E+10	1	-1E+10	1
4901784	105	C	05/20/2018	10:40	-132.315	43.157	0	51.80	0	9.8230	0	32.8270	8	25.286	0	51.382	0	274.1	4	97.9	4	-1E+10	1	-1E+10	1	-1E+10	1	-1E+10	1	-1E+10	1	-1E+10	1
4901784	105	C	05/20/2018	10:40	-132.315	43.157	0	53.70	0	9.7400	0	32.8190	8	25.294	0	53.266	0	273.8	4	97.6	4	-1E+10	1	-1E+10	1	-1E+10	1	-1E+10	1	-1E+10	1	-1E+10	1
4901784	105	C	05/20/2018	10:40	-132.315	43.157	0	55.50	0	9.6160	0	32.7980	8	25.297	0	55.051	0	274.6	4	97.6	4	-1E+10	1	-1E+10	1	-1E+10	1	-1E+10	1	-1E+10	1	-1E+10	1
4901784	105	C	05/20/2018	10:40	-132.315	43.157	0	57.40	0	9.6280	0	32.8000	8	25.297	0	56.936	0	274.3	4	97.5	4	-1E+10	1	-1E+10	1	-1E+10	1	-1E+10	1	-1E+10	1	-1E+10	1
4901784	105	C	05/20/2018	10:40	-132.315	43.157	0	59.30	0	9.6330	0	32.8030	8	25.299	0	58.820	0	273.9	4	97.4	4	-1E+10	1	-1E+10	1	-1E+10	1	-1E+10	1	-1E+10	1	-1E+10	1
4901784	105	C	05/20/2018	10:40	-132.315	43.157	0	61.10	0	9.6620	0	32.8030	8	25.294	0	60.605	0	273.4	4	97.3	4	-1E+10	1	-1E+10	1	-1E+10	1	-1E+10	1	-1E+10	1	-1E+10	1
4901784	105	C	05/20/2018	10:40	-132.315	43.157	0	63.00	0	9.6760	0	32.8100	8	25.297	0	62.490	0	272.9	4	97.1	4	-1E+10	1	-1E+10	1	-1E+10	1	-1E+10	1	-1E+10	1	-1E+10	1
4901784	105	C	05/20/2018	10:40	-132.315	43.157	0	64.80	0	9.6800	0	32.8090	8	25.296	0	64.275	0	272.7	4	97.1	4	-1E+10	1	-1E+10	1	-1E+10	1	-1E+10	1	-1E+10	1	-1E+10	1
4901784	105	C	05/20/2018	10:40	-132.315	43.157	0	66.70	0	9.6650	0	32.8040	8	25.294	0	66.159	0	271.8	4	96.7	4	-1E+10	1	-1E+10	1	-1E+10	1	-1E+10	1	-1E+10	1	-1E+10	1
4901784	105	C	05/20/2018	10:40	-132.315	43.157	0	68.60	0	9.5490	0	32.7940	8	25.305	0	68.043	0	271.8	4	96.5	4	-1E+10	1	-1E+10	1	-1E+10	1	-1E+10	1	-1E+10	1	-1E+10	1
4901784	105	C	05/20/2018	10:40	-132.315	43.157	0	70.40	0	9.5200	0	32.7930	8	25.309	0	69.828	0	271.2	4	96.2	4	-1E+10	1	-1E+10	1	-1E+10	1	-1E+10	1	-1E+10	1	-1E+10	1
4901784	105	C	05/20/2018	10:40	-132.315	43.157	0	72.30	0	9.5930	0	32.8080	8	25.309	0	71.713	0	270.0	4	95.9	4	-1E+10	1	-1E+10	1	-1E+10	1	-1E+10	1	-1E+10	1	-1E+10	1
4901784	105	C	05/20/2018	10:40	-132.315	43.157	0	74.10	0	9.5970	0	32.8070	8	25.308	0	73.498	0	269.5	4	95.8	4	-1E+10	1	-1E+10	1	-1E+10	1	-1E+10	1	-1E+10	1	-1E+10	1
4901784	105	C	05/20/2018	10:40	-132.315	43.157	0	76.00	0	9.5330	0	32.7980	8	25.311	0	75.382	0	269.0	4	95.4	4	-1E+10	1	-1E+10	1	-1E+10	1	-1E+10	1	-1E+10	1	-1E+10	1
4901784	105	C	05/20/2018	10:40	-132.315	43.157	0	77.80	0	9.4910	0	32.7970	8	25.317	0	77.167	0	268.7	4	95.3	4	-1E+10	1	-1E+10	1	-1E+10	1	-1E+10	1	-1E+10	1	-1E+10	1
4901784	105	C	05/20/2018	10:40	-132.315	43.157	0	79.70	0	9.5380	0	32.8080	8	25.318	0	79.051	0	267.6	4	95.0	4	-1E+10	1	-1E+10	1	-1E+10	1	-1E+10	1	-1E+10	1	-1E+10	1
4901784	105	C	05/20/2018	10:40	-132.315	43.157	0	81.50	0	9.5240	0	32.8140	8	25.325	0	80.836	0	267.3	4	94.9	4	-1E+10	1	-1E+10	1	-1E+10	1	-1E+10	1	-1E+10	1	-1E+10	1
4901784	105	C	05/20/2018	10:40	-132.315	43.157	0	83.40	0	9.4880	0	32.8100	8	25.328	0	82.720	0	267.2	4	94.7	4	-1E+10	1	-1E+10	1	-1E+10	1	-1E+10	1	-1E+10	1	-1E+10	1
4901784	105	C	05/20/2018	10:40	-132.315	43.157	0	85.30	0	9.4940	0	32.8140	8	25.330	0	84.604	0	267.1	4	94.7	4	-1E+10	1	-1E+10	1	-1E+10	1	-1E+10	1	-1E+10	1	-1E+10	1
4901784	105	C	05/20/2018	10:40	-132.315	43.157	0	87.10	0	9.4990	0	32.8140	8	25.329	0	86.389	0	266.9	4	94.7	4	-1E+10	1	-1E+10	1	-1E+10	1	-1E+10	1	-1E+10	1	-1E+10	1
4901784	105	C	05/20/2018	10:40	-132.315	43.157	0	89.00	0	9.4920	0	32.8110	8	25.328	0	88.274	0	267.0	4	94.7	4	-1E+10	1	-1E+10	1	-1E+10	1	-1E+10	1	-1E+10	1	-1E+10	1
4901784	105	C	05/20/2018	10:40	-132.315	43.157	0	90.80	0	9.4940	0	32.8090	8	25.326	0	90.058	0	266.9	4	94.6	4	-1E+10	1	-1E+10	1	-1E+10	1	-1E+10	1	-1E+10	1	-1E+10	1
4901784	105	C	05/20/2018	10:40	-132.315	43.157	0	92.70	0	9.4870	0	32.8030	8	25.323	0	91.942	0	267.2	4	94.7	4	-1E+10	1	-1E+10	1	-1E+10	1	-1E+10	1	-1E+10	1	-1E+10	1
4901784	105	C	05/20/2018	10:40	-132.315	43.157	0	94.50	0	9.4330	0	32.7960	8	25.326	0	93.727	0	267.1	4	94.6	4	-1E+10	1	-1E+10	1	-1E+10	1	-1E+10	1	-1E+10	1	-1E+10	1
4901784	105	C	05/20/2018	10:40	-132.315	43.157	0	96.30	0	9.2390	0	32.7560	8	25.326	0	95.512	0	268.1	4	94.5	4	-1E+10	1	-1E+10	1	-1E+10	1	-1E+10	1	-1E+10	1	-1E+10	1
4901784	105	C	05/20/2018	10:40	-132.315	43.157	0	98.20	0	8.9330	0	32.7170	8	25.343	0	97.396	0	269.7	4	94.4	4	-1E+10	1	-1E+10	1	-1E+10	1	-1E+10	1	-1E+10	1	-1E+10	1
4901784	105	C	05/20/2018	10:40	-132.315	43.157	0	99.90	0	8.7520	0	32.6920	8	25.351	0	99.082	0	270.8	4	94.4	4	-1E+10	1	-1E+10	1	-1E+10	1	-1E+10	1	-1E+10	1	-1E+10	1
4901784	105	C	05/20/2018	10:40	-132.315	43.157	0	102.60	0	8.7380	0	32.6930	8	25.354	0	101.759	0	270.0	4	94.1	4	-1E+10	1	-1E+10	1	-1E+10	1	-1E+10	1	-1E+10	1	-1E+10	1
4901784	105	C	05/20/2018	10:40	-132.315	43.157	0	105.30	0	8.6950	0	32.6920	8	25.360	0	104.436	0	269.0	4	93.6	4	-1E+10	1	-1E+10	1	-1E+10	1	-1E+10	1	-1E+10	1	-1E+10	1
4901784	105	C	05/20/2018	10:40	-132.315	43.157	0	107.10	0	8.6700	0	32.6890	8	25.362	0	106.221	0	267.9	4	93.2	4	-1E+10	1	-1E+10	1	-1E+10	1	-1E+10	1	-1E+10	1	-1E+10	1
4901784	105	C	05/20/2018	10:40	-132.315	43.157	0	109.80	0	8.7140	0	32.7120	8	25.373	0	108.898	0	265.2	4	92.4	4	-1E+10	1	-1E+10	1	-1E+10	1	-1E+10	1	-1E+10	1	-1E+10	1
4901784	105	C	05/20/2018	10:40	-132.315	43.157	0	112.00	0	8.8490	0	32.7640	8	25.393	0	111.080	0	260.9	4	91.2	4	-1E+10	1	-1E+10	1	-1E+10	1	-1E+10	1	-1E+10	1	-1E+10	1
4901784	105	C	05/20/2018	10:40	-132.315	43.157	0	114.80	0	8.8830	0	32.8340	8	25.443	0	113.856	0	256.9	4	89.9	4	-1E+10	1	-1E+10	1	-1E+10	1	-1E+10	1	-1E+10	1	-1E+10	1
4901784	105	C	05/20/2018	10:40	-132.315	43.157	0	117.70	0	8.9760	0	32.8980	8	25.478	0	116.731	0	252.0	4	88.4	4	-1E+10	1	-1E+10	1	-1E+10	1	-1E+10	1	-1E+10	1	-1E+10	1
4901784	105	C	05/20/2018	10:40	-132.315	43.157	0	120.00	0	8.7870	0	32.9320	8	25.534	0	119.012	0	249.6	4	87.2	4	-1E+10	1	-1E+10	1	-1E+10	1	-1E+10	1	-1E+10	1	-1E+10	1
4901784	105	C	05/20/2018	10:40	-132.315	43.157	0	122.30	0	8.4610	0	32.9570	8	25.603	0	121.292	0	248.3	4	86.2	4	-1E+10	1	-1E+10	1	-1E+10	1	-1E+10	1	-1E+10	1	-1E+10	1
4901784	105	C	05/20/2018	10:40	-132.315	43.157	0	125.40	0	8.3900	0	32.9880	8	25.638	0	124.365	0	244.3	4	84.6	4	-1E+10	1	-1E+10	1	-1E+10	1	-1E+10	1	-1E+10	1	-1E+10	1
4901784	105	C	05/20/2018	10:40	-132.315	43.157	0	127.80	0	8.2430	0	33.0410	8	25.702	0	126.745	0	240.8	4	83.2	4	-1E+10	1	-1E+10	1	-1E+10	1	-1E+10	1	-1E+10	1	-1E+10	1
4901784	105	C	05/20/2018	10:40	-132.315	43.157	0	129.90	0	8.0330	0	33.1310	8	25.804	0	128.827	0	238.4	4	82.0	4	-1E+10	1	-1E+10	1	-1E+10	1	-1E+10	1	-1E+10	1	-1E+10	1
4901784	105	C	05/20/2018	10:40	-132.315	43.157	0	132.10	0	7.9690	0	33.1560	8	25.832	0	131.008	0	235.4	4	80.9	4	-1E+10	1	-1E+10	1	-1E+10	1	-1E+10	1	-1E+10	1	-1E+10	1
4901784	105	C	05/20/2018	10:40	-132.315	43.157	0	134.80	0	7.9400	0	33.2090	8	25.878	0	133.685	0	230.1	4	79.1	4	-1E+10	1	-1E+10	1	-1E+10	1	-1E+10	1	-1E+10	1	-1E+10	1
4901784	105	C	05/20/2018	10:40	-132.315	43.157	0	137.70	0	7.9630	0	33.2620	8	25.917	0	136.560	0	221.7	4	76.3	4	-1E+10	1	-1E+10	1	-1E+10	1	-1E+10	1	-1E+10	1	-1E+10	1
4901784	105	C	05/20/2018	10:40	-132.315	43.157	0	139.90	0	8.0430	0	33.3540	8	25.977	0	138.741	0	214.0	4	73.8	4	-1E+10	1	-1E+10	1	-1E+10	1	-1E+10	1	-1E+10	1	-1E+10	1
4901784	105	C	05/20/2018	10:40	-132.315	43.157	0	142.40	0	8.1440	0	33.4510	8	26.039	0	141.219	0	206.2	4	71.3	4	-1E+10	1	-1E+10	1	-1E+10	1	-1E+10	1	-1E+10	1	-1E+10	1
4901784	105	C	05/20/2018	10:40	-132.315	43.157	0	144.90	0	8.2170	0	33.5530	8	26.108	0	143.698	0	199.3	4	69.1	4	-1E+10	1	-1E+10	1	-1E+10	1	-1E+10	1	-1E+10	1	-1E+10	1
4901784	105	C	05/20/2018	10:40	-132.315	43.157	0	147.60	0	8.2570	0	33.6090	8	26.146	0	146.374	0	194.2	4	67.4	4	-1E+10	1	-1E+10	1	-1E+10	1	-1E+10	1	-1E+10	1	-1E+10	1
4901784	105	C	05/20/2018	10:40	-132.315	43.157	0	150.30	0	8.3450	0	33.6750	8	26.184	0	149.051	0	188.7	4	65.7	4	-1E+10	1	-1E+10	1	-1E+10	1	-1E+10	1	-1E+10	1	-1E+10	1
4901784	105	C	05/20/2018	10:40	-132.315	43.157	0	152.20	0	8.3820	0	33.7390	8	26.229	0	150.935	0	186.3	4	64.9	4	-1E+10	1	-1E+10	1	-1E+10	1	-1E+10	1	-1E+10	1	-1E+10	1
4901784	105	C	05/20/2018	10:40	-132.315	43.157	0	154.90	0	8.3910	0	33.7640	8	26.247	0	153.611	0	183.9	4	64.1	4	-1E+10	1	-1E+10	1	-1E+10	1	-1E+10	1	-1E+10	1	-1E+10	1
4901784	105	C	05/20/2018	10:40	-132.315	43.157	0	157.60	0	8.4070	0	33.8030	8	26.276	0	156.288	0	181.5	4	63.3	4	-1E+10	1	-1E+10	1	-1E+10	1	-1E+10	1	-1E+10	1	-1E+10	1
4901784	105	C	05/20/2018	10:40	-132.315	43.157	0	159.90	0	8.4200	0	33.8290	8	26.294	0	158.568	0	179.7	4	62.7	4	-1E+10	1	-1E+10	1	-1E+10	1	-1E+10	1	-1E+10	1	-1E+10	1
4901784	105	C	05/20/2018	10:40	-132.315	43.157	0	162.50	0	8.4040	0	33.8540	8	26.316	0	161.145	0	176.6	4	61.6	4	-1E+10	1	-1E+10	1	-1E+10	1	-1E+10	1	-1E+10	1	-1E+10	1
4901784	105	C	05/20/2018	10:40	-132.315	43.157	0	164.90	0	8.3960	0	33.9000	8	26.353	0	163.524	0	174.0	4	60.7	4	-1E+10	1	-1E+10	1	-1E+10	1	-1E+10	1	-1E+10	1	-1E+10	1
4901784	105	C	05/20/2018	10:40	-132.315	43.157	0	167.30	0	8.3620	0	33.9180	8	26.373	0	165.903	0	170.0	4	59.3	4	-1E+10	1	-1E+10	1	-1E+10	1	-1E+10	1	-1E+10	1	-1E+10	1
4901784	105	C	05/20/2018	10:40	-132.315	43.157	0	170.50	0	8.2840	0	33.9420	8	26.403	0	169.075	0	166.5	4	58.0	4	-1E+10	1	-1E+10	1	-1E+10	1	-1E+10	1	-1E+10	1	-1E+10	1
4901784	105	C	05/20/2018	10:40	-132.315	43.157	0	172.80	0	8.2710	0	33.9640	8	26.423	0	171.355	0	165.0	4	57.4	4	-1E+10	1	-1E+10	1	-1E+10	1	-1E+10	1	-1E+10	1	-1E+10	1
4901784	105	C	05/20/2018	10:40	-132.315	43.157	0	175.20	0	8.2290	0	33.9840	8	26.445	0	173.734	0	163.8	4	57.0	4	-1E+10	1	-1E+10	1	-1E+10	1	-1E+10	1	-1E+10	1	-1E+10	1
4901784	105	C	05/20/2018	10:40	-132.315	43.157	0	177.70	0	8.1940	0	33.9960	8	26.459	0	176.212	0	163.0	4	56.6	4	-1E+10	1	-1E+10	1	-1E+10	1	-1E+10	1	-1E+10	1	-1E+10	1
4901784	105	C	05/20/2018	10:40	-132.315	43.157	0	180.10	0	8.1660	0	34.0050	8	26.471	0	178.591	0	163.5	4	56.8	4	-1E+10	1	-1E+10	1	-1E+10	1	-1E+10	1	-1E+10	1	-1E+10	1
4901784	105	C	05/20/2018	10:40	-132.315	43.157	0	182.50	0	8.2010	0	34.0120	8	26.471	0	180.969	0	163.4	4	56.8	4	-1E+10	1	-1E+10	1	-1E+10	1	-1E+10	1	-1E+10	1	-1E+10	1
4901784	105	C	05/20/2018	10:40	-132.315	43.157	0	185.10	0	8.1860	0	34.0180	8	26.478	0	183.546	0	162.1	4	56.3	4	-1E+10	1	-1E+10	1	-1E+10	1	-1E+10	1	-1E+10	1	-1E+10	1
4901784	105	C	05/20/2018	10:40	-132.315	43.157	0	187.70	0	8.1020	0	34.0230	8	26.494	0	186.123	0	161.3	4	55.9	4	-1E+10	1	-1E+10	1	-1E+10	1	-1E+10	1	-1E+10	1	-1E+10	1
4901784	105	C	05/20/2018	10:40	-132.315	43.157	0	190.20	0	8.0750	0	34.0260	8	26.501	0	188.601	0	161.8	4	56.1	4	-1E+10	1	-1E+10	1	-1E+10	1	-1E+10	1	-1E+10	1	-1E+10	1
4901784	105	C	05/20/2018	10:40	-132.315	43.157	0	192.60	0	8.0770	0	34.0310	8	26.505	0	190.980	0	162.7	4	56.4	4	-1E+10	1	-1E+10	1	-1E+10	1	-1E+10	1	-1E+10	1	-1E+10	1
4901784	105	C	05/20/2018	10:40	-132.315	43.157	0	195.10	0	8.1050	0	34.0370	8	26.505	0	193.458	0	163.3	4	56.6	4	-1E+10	1	-1E+10	1	-1E+10	1	-1E+10	1	-1E+10	1	-1E+10	1
4901784	105	C	05/20/2018	10:40	-132.315	43.157	0	197.50	0	8.1150	0	34.0450	8	26.510	0	195.836	0	163.5	4	56.7	4	-1E+10	1	-1E+10	1	-1E+10	1	-1E+10	1	-1E+10	1	-1E+10	1
4901784	105	C	05/20/2018	10:40	-132.315	43.157	0	200.10	0	8.1140	0	34.0500	8	26.514	0	198.413	0	162.1	4	56.3	4	-1E+10	1	-1E+10	1	-1E+10	1	-1E+10	1	-1E+10	1	-1E+10	1
4901784	105	C	05/20/2018	10:40	-132.315	43.157	0	202.60	0	8.0600	0	34.0480	8	26.521	0	200.891	0	160.6	4	55.7	4	-1E+10	1	-1E+10	1	-1E+10	1	-1E+10	1	-1E+10	1	-1E+10	1
4901784	105	C	05/20/2018	10:40	-132.315	43.157	0	205.10	0	8.0200	0	34.0480	8	26.527	0	203.369	0	159.8	4	55.3	4	-1E+10	1	-1E+10	1	-1E+10	1	-1E+10	1	-1E+10	1	-1E+10	1
4901784	105	C	05/20/2018	10:40	-132.315	43.157	0	207.60	0	7.9680	0	34.0540	8	26.539	0	205.846	0	159.2	4	55.1	4	-1E+10	1	-1E+10	1	-1E+10	1	-1E+10	1	-1E+10	1	-1E+10	1
4901784	105	C	05/20/2018	10:40	-132.315	43.157	0	210.00	0	7.9370	0	34.0530	8	26.543	0	208.225	0	158.4	4	54.7	4	-1E+10	1	-1E+10	1	-1E+10	1	-1E+10	1	-1E+10	1	-1E+10	1
4901784	105	C	05/20/2018	10:40	-132.315	43.157	0	212.50	0	7.9190	0	34.0520	8	26.545	0	210.702	0	157.6	4	54.4	4	-1E+10	1	-1E+10	1	-1E+10	1	-1E+10	1	-1E+10	1	-1E+10	1
4901784	105	C	05/20/2018	10:40	-132.315	43.157	0	214.90	0	7.9120	0	34.0530	8	26.546	0	213.081	0	156.3	4	54.0	4	-1E+10	1	-1E+10	1	-1E+10	1	-1E+10	1	-1E+10	1	-1E+10	1
4901784	105	C	05/20/2018	10:40	-132.315	43.157	0	217.30	0	7.8840	0	34.0490	8	26.547	0	215.459	0	154.3	4	53.3	4	-1E+10	1	-1E+10	1	-1E+10	1	-1E+10	1	-1E+10	1	-1E+10	1
4901784	105	C	05/20/2018	10:40	-132.315	43.157	0	219.80	0	7.8160	0	34.0450	8	26.554	0	217.937	0	152.5	4	52.6	4	-1E+10	1	-1E+10	1	-1E+10	1	-1E+10	1	-1E+10	1	-1E+10	1
4901784	105	C	05/20/2018	10:40	-132.315	43.157	0	222.30	0	7.7740	0	34.0420	8	26.558	0	220.414	0	151.1	4	52.0	4	-1E+10	1	-1E+10	1	-1E+10	1	-1E+10	1	-1E+10	1	-1E+10	1
4901784	105	C	05/20/2018	10:40	-132.315	43.157	0	224.70	0	7.7430	0	34.0430	8	26.563	0	222.793	0	149.6	4	51.5	4	-1E+10	1	-1E+10	1	-1E+10	1	-1E+10	1	-1E+10	1	-1E+10	1
4901784	105	C	05/20/2018	10:40	-132.315	43.157	0	227.30	0	7.6810	0	34.0430	8	26.572	0	225.369	0	147.9	4	50.8	4	-1E+10	1	-1E+10	1	-1E+10	1	-1E+10	1	-1E+10	1	-1E+10	1
4901784	105	C	05/20/2018	10:40	-132.315	43.157	0	229.80	0	7.6360	0	34.0440	8	26.580	0	227.847	0	146.9	4	50.4	4	-1E+10	1	-1E+10	1	-1E+10	1	-1E+10	1	-1E+10	1	-1E+10	1
4901784	105	C	05/20/2018	10:40	-132.315	43.157	0	232.20	0	7.6080	0	34.0450	8	26.585	0	230.225	0	145.7	4	50.0	4	-1E+10	1	-1E+10	1	-1E+10	1	-1E+10	1	-1E+10	1	-1E+10	1
4901784	105	C	05/20/2018	10:40	-132.315	43.157	0	234.70	0	7.5600	0	34.0450	8	26.591	0	232.702	0	144.8	4	49.6	4	-1E+10	1	-1E+10	1	-1E+10	1	-1E+10	1	-1E+10	1	-1E+10	1
4901784	105	C	05/20/2018	10:40	-132.315	43.157	0	237.20	0	7.5330	0	34.0450	8	26.595	0	235.179	0	143.9	4	49.3	4	-1E+10	1	-1E+10	1	-1E+10	1	-1E+10	1	-1E+10	1	-1E+10	1
4901784	105	C	05/20/2018	10:40	-132.315	43.157	0	239.70	0	7.5160	0	34.0450	8	26.598	0	237.657	0	143.2	4	49.0	4	-1E+10	1	-1E+10	1	-1E+10	1	-1E+10	1	-1E+10	1	-1E+10	1
4901784	105	C	05/20/2018	10:40	-132.315	43.157	0	242.20	0	7.4830	0	34.0460	8	26.603	0	240.134	0	142.5	4	48.8	4	-1E+10	1	-1E+10	1	-1E+10	1	-1E+10	1	-1E+10	1	-1E+10	1
4901784	105	C	05/20/2018	10:40	-132.315	43.157	0	244.70	0	7.4550	0	34.0470	8	26.608	0	242.611	0	141.8	4	48.5	4	-1E+10	1	-1E+10	1	-1E+10	1	-1E+10	1	-1E+10	1	-1E+10	1
4901784	105	C	05/20/2018	10:40	-132.315	43.157	0	247.20	0	7.4490	0	34.0460	8	26.608	0	245.088	0	140.5	4	48.0	4	-1E+10	1	-1E+10	1	-1E+10	1	-1E+10	1	-1E+10	1	-1E+10	1
4901784	105	C	05/20/2018	10:40	-132.315	43.157	0	249.70	0	7.3840	0	34.0460	8	26.617	0	247.566	0	139.1	4	47.5	4	-1E+10	1	-1E+10	1	-1E+10	1	-1E+10	1	-1E+10	1	-1E+10	1
4901784	105	C	05/20/2018	10:40	-132.315	43.157	0	252.20	0	7.2980	0	34.0450	8	26.629	0	250.043	0	138.1	4	47.0	4	-1E+10	1	-1E+10	1	-1E+10	1	-1E+10	1	-1E+10	1	-1E+10	1
4901784	105	C	05/20/2018	10:40	-132.315	43.157	0	254.70	0	7.2370	0	34.0450	8	26.637	0	252.520	0	137.8	4	46.9	4	-1E+10	1	-1E+10	1	-1E+10	1	-1E+10	1	-1E+10	1	-1E+10	1
4901784	105	C	05/20/2018	10:40	-132.315	43.157	0	257.30	0	7.2260	0	34.0430	8	26.637	0	255.096	0	137.4	4	46.7	4	-1E+10	1	-1E+10	1	-1E+10	1	-1E+10	1	-1E+10	1	-1E+10	1
4901784	105	C	05/20/2018	10:40	-132.315	43.157	0	259.90	0	7.2130	0	34.0430	8	26.639	0	257.672	0	136.8	4	46.5	4	-1E+10	1	-1E+10	1	-1E+10	1	-1E+10	1	-1E+10	1	-1E+10	1
4901784	105	C	05/20/2018	10:40	-132.315	43.157	0	262.60	0	7.1920	0	34.0420	8	26.641	0	260.347	0	136.0	4	46.2	4	-1E+10	1	-1E+10	1	-1E+10	1	-1E+10	1	-1E+10	1	-1E+10	1
4901784	105	C	05/20/2018	10:40	-132.315	43.157	0	265.20	0	7.1550	0	34.0430	8	26.647	0	262.923	0	134.8	4	45.8	4	-1E+10	1	-1E+10	1	-1E+10	1	-1E+10	1	-1E+10	1	-1E+10	1
4901784	105	C	05/20/2018	10:40	-132.315	43.157	0	267.90	0	7.1270	0	34.0410	8	26.650	0	265.598	0	133.6	4	45.3	4	-1E+10	1	-1E+10	1	-1E+10	1	-1E+10	1	-1E+10	1	-1E+10	1
4901784	105	C	05/20/2018	10:40	-132.315	43.157	0	269.60	0	7.0830	0	34.0410	8	26.656	0	267.283	0	132.6	4	45.0	4	-1E+10	1	-1E+10	1	-1E+10	1	-1E+10	1	-1E+10	1	-1E+10	1
4901784	105	C	05/20/2018	10:40	-132.315	43.157	0	272.30	0	7.0290	0	34.0420	8	26.664	0	269.958	0	131.5	4	44.5	4	-1E+10	1	-1E+10	1	-1E+10	1	-1E+10	1	-1E+10	1	-1E+10	1
4901784	105	C	05/20/2018	10:40	-132.315	43.157	0	275.00	0	7.0030	0	34.0430	8	26.668	0	272.633	0	130.4	4	44.1	4	-1E+10	1	-1E+10	1	-1E+10	1	-1E+10	1	-1E+10	1	-1E+10	1
4901784	105	C	05/20/2018	10:40	-132.315	43.157	0	277.70	0	6.9510	0	34.0420	8	26.675	0	275.308	0	129.3	4	43.7	4	-1E+10	1	-1E+10	1	-1E+10	1	-1E+10	1	-1E+10	1	-1E+10	1
4901784	105	C	05/20/2018	10:40	-132.315	43.157	0	280.50	0	6.8840	0	34.0430	8	26.684	0	278.082	0	128.5	4	43.4	4	-1E+10	1	-1E+10	1	-1E+10	1	-1E+10	1	-1E+10	1	-1E+10	1
4901784	105	C	05/20/2018	10:40	-132.315	43.157	0	282.30	0	6.8770	0	34.0440	8	26.686	0	279.865	0	128.2	4	43.3	4	-1E+10	1	-1E+10	1	-1E+10	1	-1E+10	1	-1E+10	1	-1E+10	1
4901784	105	C	05/20/2018	10:40	-132.315	43.157	0	285.00	0	6.8420	0	34.0460	8	26.693	0	282.540	0	127.4	4	43.0	4	-1E+10	1	-1E+10	1	-1E+10	1	-1E+10	1	-1E+10	1	-1E+10	1
4901784	105	C	05/20/2018	10:40	-132.315	43.157	0	287.70	0	6.8030	0	34.0500	8	26.701	0	285.215	0	126.6	4	42.7	4	-1E+10	1	-1E+10	1	-1E+10	1	-1E+10	1	-1E+10	1	-1E+10	1
4901784	105	C	05/20/2018	10:40	-132.315	43.157	0	289.50	0	6.7990	0	34.0490	8	26.701	0	286.998	0	125.5	4	42.3	4	-1E+10	1	-1E+10	1	-1E+10	1	-1E+10	1	-1E+10	1	-1E+10	1
4901784	105	C	05/20/2018	10:40	-132.315	43.157	0	292.30	0	6.7600	0	34.0460	8	26.704	0	289.772	0	123.3	4	41.5	4	-1E+10	1	-1E+10	1	-1E+10	1	-1E+10	1	-1E+10	1	-1E+10	1
4901784	105	C	05/20/2018	10:40	-132.315	43.157	0	295.20	0	6.6920	0	34.0390	8	26.707	0	292.644	0	121.9	4	40.9	4	-1E+10	1	-1E+10	1	-1E+10	1	-1E+10	1	-1E+10	1	-1E+10	1
4901784	105	C	05/20/2018	10:40	-132.315	43.157	0	297.00	0	6.6410	0	34.0410	8	26.716	0	294.428	0	121.7	4	40.8	4	-1E+10	1	-1E+10	1	-1E+10	1	-1E+10	1	-1E+10	1	-1E+10	1
4901784	105	C	05/20/2018	10:40	-132.315	43.157	0	299.90	0	6.5870	0	34.0400	8	26.722	0	297.300	0	121.2	4	40.6	4	-1E+10	1	-1E+10	1	-1E+10	1	-1E+10	1	-1E+10	1	-1E+10	1
4901784	105	C	05/20/2018	10:40	-132.315	43.157	0	302.70	0	6.5520	0	34.0420	8	26.728	0	300.074	0	120.6	4	40.4	4	-1E+10	1	-1E+10	1	-1E+10	1	-1E+10	1	-1E+10	1	-1E+10	1
4901784	105	C	05/20/2018	10:40	-132.315	43.157	0	304.60	0	6.5190	0	34.0410	8	26.732	0	301.956	0	120.0	4	40.2	4	-1E+10	1	-1E+10	1	-1E+10	1	-1E+10	1	-1E+10	1	-1E+10	1
4901784	105	C	05/20/2018	10:40	-132.315	43.157	0	307.40	0	6.4810	0	34.0420	8	26.738	0	304.730	0	119.2	4	39.9	4	-1E+10	1	-1E+10	1	-1E+10	1	-1E+10	1	-1E+10	1	-1E+10	1
4901784	105	C	05/20/2018	10:40	-132.315	43.157	0	310.20	0	6.4250	0	34.0390	8	26.743	0	307.503	0	118.3	4	39.5	4	-1E+10	1	-1E+10	1	-1E+10	1	-1E+10	1	-1E+10	1	-1E+10	1
4901784	105	C	05/20/2018	10:40	-132.315	43.157	0	312.10	0	6.3990	0	34.0370	8	26.744	0	309.386	0	118.1	4	39.4	4	-1E+10	1	-1E+10	1	-1E+10	1	-1E+10	1	-1E+10	1	-1E+10	1
4901784	105	C	05/20/2018	10:40	-132.315	43.157	0	314.90	0	6.3420	0	34.0390	8	26.753	0	312.159	0	118.6	4	39.5	4	-1E+10	1	-1E+10	1	-1E+10	1	-1E+10	1	-1E+10	1	-1E+10	1
4901784	105	C	05/20/2018	10:40	-132.315	43.157	0	317.80	0	6.3320	0	34.0490	8	26.763	0	315.032	0	118.9	4	39.6	4	-1E+10	1	-1E+10	1	-1E+10	1	-1E+10	1	-1E+10	1	-1E+10	1
4901784	105	C	05/20/2018	10:40	-132.315	43.157	0	319.70	0	6.3410	0	34.0540	8	26.765	0	316.914	0	118.3	4	39.4	4	-1E+10	1	-1E+10	1	-1E+10	1	-1E+10	1	-1E+10	1	-1E+10	1
4901784	105	C	05/20/2018	10:40	-132.315	43.157	0	322.50	0	6.2960	0	34.0540	8	26.771	0	319.687	0	117.0	4	39.0	4	-1E+10	1	-1E+10	1	-1E+10	1	-1E+10	1	-1E+10	1	-1E+10	1
4901784	105	C	05/20/2018	10:40	-132.315	43.157	0	325.40	0	6.2240	0	34.0550	8	26.781	0	322.559	0	115.9	4	38.5	4	-1E+10	1	-1E+10	1	-1E+10	1	-1E+10	1	-1E+10	1	-1E+10	1
4901784	105	C	05/20/2018	10:40	-132.315	43.157	0	327.30	0	6.1790	0	34.0570	8	26.789	0	324.441	0	115.4	4	38.3	4	-1E+10	1	-1E+10	1	-1E+10	1	-1E+10	1	-1E+10	1	-1E+10	1
4901784	105	C	05/20/2018	10:40	-132.315	43.157	0	330.20	0	6.1700	0	34.0540	8	26.787	0	327.314	0	114.8	4	38.1	4	-1E+10	1	-1E+10	1	-1E+10	1	-1E+10	1	-1E+10	1	-1E+10	1
4901784	105	C	05/20/2018	10:40	-132.315	43.157	0	333.00	0	6.1580	0	34.0530	8	26.788	0	330.087	0	113.9	4	37.8	4	-1E+10	1	-1E+10	1	-1E+10	1	-1E+10	1	-1E+10	1	-1E+10	1
4901784	105	C	05/20/2018	10:40	-132.315	43.157	0	334.90	0	6.1310	0	34.0520	8	26.791	0	331.969	0	113.1	4	37.5	4	-1E+10	1	-1E+10	1	-1E+10	1	-1E+10	1	-1E+10	1	-1E+10	1
4901784	105	C	05/20/2018	10:40	-132.315	43.157	0	337.80	0	6.0660	0	34.0530	8	26.800	0	334.841	0	112.1	4	37.1	4	-1E+10	1	-1E+10	1	-1E+10	1	-1E+10	1	-1E+10	1	-1E+10	1
4901784	105	C	05/20/2018	10:40	-132.315	43.157	0	340.60	0	6.0180	0	34.0560	8	26.808	0	337.614	0	111.1	4	36.8	4	-1E+10	1	-1E+10	1	-1E+10	1	-1E+10	1	-1E+10	1	-1E+10	1
4901784	105	C	05/20/2018	10:40	-132.315	43.157	0	342.50	0	6.0050	0	34.0570	8	26.811	0	339.496	0	110.7	4	36.6	4	-1E+10	1	-1E+10	1	-1E+10	1	-1E+10	1	-1E+10	1	-1E+10	1
4901784	105	C	05/20/2018	10:40	-132.315	43.157	0	344.50	0	5.9960	0	34.0570	8	26.812	0	341.477	0	110.0	4	36.4	4	-1E+10	1	-1E+10	1	-1E+10	1	-1E+10	1	-1E+10	1	-1E+10	1
4901784	105	C	05/20/2018	10:40	-132.315	43.157	0	347.30	0	5.9510	0	34.0560	8	26.817	0	344.250	0	109.2	4	36.1	4	-1E+10	1	-1E+10	1	-1E+10	1	-1E+10	1	-1E+10	1	-1E+10	1
4901784	105	C	05/20/2018	10:40	-132.315	43.157	0	350.30	0	5.9160	0	34.0550	8	26.820	0	347.221	0	108.1	4	35.7	4	-1E+10	1	-1E+10	1	-1E+10	1	-1E+10	1	-1E+10	1	-1E+10	1
4901784	105	C	05/20/2018	10:40	-132.315	43.157	0	352.20	0	5.8810	0	34.0540	8	26.824	0	349.103	0	107.4	4	35.4	4	-1E+10	1	-1E+10	1	-1E+10	1	-1E+10	1	-1E+10	1	-1E+10	1
4901784	105	C	05/20/2018	10:40	-132.315	43.157	0	355.10	0	5.8480	0	34.0530	8	26.827	0	351.975	0	106.2	4	35.0	4	-1E+10	1	-1E+10	1	-1E+10	1	-1E+10	1	-1E+10	1	-1E+10	1
4901784	105	C	05/20/2018	10:40	-132.315	43.157	0	358.00	0	5.8120	0	34.0520	8	26.831	0	354.847	0	104.7	4	34.5	4	-1E+10	1	-1E+10	1	-1E+10	1	-1E+10	1	-1E+10	1	-1E+10	1
4901784	105	C	05/20/2018	10:40	-132.315	43.157	0	359.90	0	5.7780	0	34.0510	8	26.834	0	356.729	0	103.6	4	34.1	4	-1E+10	1	-1E+10	1	-1E+10	1	-1E+10	1	-1E+10	1	-1E+10	1
4901784	105	C	05/20/2018	10:40	-132.315	43.157	0	362.70	0	5.6960	0	34.0510	8	26.844	0	359.502	0	102.1	4	33.5	4	-1E+10	1	-1E+10	1	-1E+10	1	-1E+10	1	-1E+10	1	-1E+10	1
4901784	105	C	05/20/2018	10:40	-132.315	43.157	0	365.60	0	5.6820	0	34.0460	8	26.842	0	362.373	0	100.2	4	32.9	4	-1E+10	1	-1E+10	1	-1E+10	1	-1E+10	1	-1E+10	1	-1E+10	1
4901784	105	C	05/20/2018	10:40	-132.315	43.157	0	367.60	0	5.5580	0	34.0490	8	26.859	0	364.354	0	99.3	4	32.5	4	-1E+10	1	-1E+10	1	-1E+10	1	-1E+10	1	-1E+10	1	-1E+10	1
4901784	105	C	05/20/2018	10:40	-132.315	43.157	0	369.50	0	5.5500	0	34.0480	8	26.860	0	366.236	0	98.4	4	32.2	4	-1E+10	1	-1E+10	1	-1E+10	1	-1E+10	1	-1E+10	1	-1E+10	1
4901784	105	C	05/20/2018	10:40	-132.315	43.157	0	372.40	0	5.4710	0	34.0510	8	26.872	0	369.107	0	97.5	4	31.8	4	-1E+10	1	-1E+10	1	-1E+10	1	-1E+10	1	-1E+10	1	-1E+10	1
4901784	105	C	05/20/2018	10:40	-132.315	43.157	0	375.30	0	5.4610	0	34.0500	8	26.872	0	371.979	0	96.9	4	31.7	4	-1E+10	1	-1E+10	1	-1E+10	1	-1E+10	1	-1E+10	1	-1E+10	1
4901784	105	C	05/20/2018	10:40	-132.315	43.157	0	377.30	0	5.4560	0	34.0510	8	26.873	0	373.960	0	96.4	4	31.5	4	-1E+10	1	-1E+10	1	-1E+10	1	-1E+10	1	-1E+10	1	-1E+10	1
4901784	105	C	05/20/2018	10:40	-132.315	43.157	0	380.20	0	5.4340	0	34.0510	8	26.876	0	376.831	0	95.5	4	31.2	4	-1E+10	1	-1E+10	1	-1E+10	1	-1E+10	1	-1E+10	1	-1E+10	1
4901784	105	C	05/20/2018	10:40	-132.315	43.157	0	383.40	0	5.4150	0	34.0500	8	26.877	0	380.000	0	94.6	4	30.9	4	-1E+10	1	-1E+10	1	-1E+10	1	-1E+10	1	-1E+10	1	-1E+10	1
4901784	105	C	05/20/2018	10:40	-132.315	43.157	0	384.80	0	5.4060	0	34.0500	8	26.879	0	381.386	0	93.9	4	30.6	4	-1E+10	1	-1E+10	1	-1E+10	1	-1E+10	1	-1E+10	1	-1E+10	1
4901784	105	C	05/20/2018	10:40	-132.315	43.157	0	387.40	0	5.3640	0	34.0500	8	26.884	0	383.961	0	92.6	4	30.2	4	-1E+10	1	-1E+10	1	-1E+10	1	-1E+10	1	-1E+10	1	-1E+10	1
4901784	105	C	05/20/2018	10:40	-132.315	43.157	0	389.80	0	5.3200	0	34.0520	8	26.890	0	386.337	0	91.3	4	29.7	4	-1E+10	1	-1E+10	1	-1E+10	1	-1E+10	1	-1E+10	1	-1E+10	1
4901784	105	C	05/20/2018	10:40	-132.315	43.157	0	393.00	0	5.2870	0	34.0530	8	26.895	0	389.506	0	89.7	4	29.2	4	-1E+10	1	-1E+10	1	-1E+10	1	-1E+10	1	-1E+10	1	-1E+10	1
4901784	105	C	05/20/2018	10:40	-132.315	43.157	0	395.30	0	5.2510	0	34.0540	8	26.900	0	391.783	0	88.3	4	28.7	4	-1E+10	1	-1E+10	1	-1E+10	1	-1E+10	1	-1E+10	1	-1E+10	1
4901784	105	C	05/20/2018	10:40	-132.315	43.157	0	397.80	0	5.2410	0	34.0540	8	26.901	0	394.259	0	87.3	4	28.4	4	-1E+10	1	-1E+10	1	-1E+10	1	-1E+10	1	-1E+10	1	-1E+10	1
4901784	105	C	05/20/2018	10:40	-132.315	43.157	0	400.30	0	5.2360	0	34.0530	8	26.901	0	396.734	0	86.0	4	27.9	4	-1E+10	1	-1E+10	1	-1E+10	1	-1E+10	1	-1E+10	1	-1E+10	1
4901784	105	C	05/20/2018	10:40	-132.315	43.157	0	402.70	0	5.2090	0	34.0540	8	26.905	0	399.110	0	84.3	4	27.4	4	-1E+10	1	-1E+10	1	-1E+10	1	-1E+10	1	-1E+10	1	-1E+10	1
4901784	105	C	05/20/2018	10:40	-132.315	43.157	0	405.20	0	5.1790	0	34.0560	8	26.910	0	401.586	0	83.0	4	26.9	4	-1E+10	1	-1E+10	1	-1E+10	1	-1E+10	1	-1E+10	1	-1E+10	1
4901784	105	C	05/20/2018	10:40	-132.315	43.157	0	407.70	0	5.1750	0	34.0560	8	26.911	0	404.061	0	81.3	4	26.4	4	-1E+10	1	-1E+10	1	-1E+10	1	-1E+10	1	-1E+10	1	-1E+10	1
4901784	105	C	05/20/2018	10:40	-132.315	43.157	0	410.20	0	5.1580	0	34.0550	8	26.912	0	406.536	0	78.9	4	25.6	4	-1E+10	1	-1E+10	1	-1E+10	1	-1E+10	1	-1E+10	1	-1E+10	1
4901784	105	C	05/20/2018	10:40	-132.315	43.157	0	412.70	0	5.0860	0	34.0660	8	26.929	0	409.011	0	76.1	4	24.6	4	-1E+10	1	-1E+10	1	-1E+10	1	-1E+10	1	-1E+10	1	-1E+10	1
4901784	105	C	05/20/2018	10:40	-132.315	43.157	0	415.20	0	5.0230	0	34.0690	8	26.938	0	411.487	0	73.8	4	23.8	4	-1E+10	1	-1E+10	1	-1E+10	1	-1E+10	1	-1E+10	1	-1E+10	1
4901784	105	C	05/20/2018	10:40	-132.315	43.157	0	417.70	0	4.9820	0	34.0710	8	26.945	0	413.962	0	72.7	4	23.5	4	-1E+10	1	-1E+10	1	-1E+10	1	-1E+10	1	-1E+10	1	-1E+10	1
4901784	105	C	05/20/2018	10:40	-132.315	43.157	0	420.20	0	4.9650	0	34.0730	8	26.948	0	416.437	0	72.1	4	23.3	4	-1E+10	1	-1E+10	1	-1E+10	1	-1E+10	1	-1E+10	1	-1E+10	1
4901784	105	C	05/20/2018	10:40	-132.315	43.157	0	422.70	0	4.9670	0	34.0720	8	26.947	0	418.912	0	71.4	4	23.0	4	-1E+10	1	-1E+10	1	-1E+10	1	-1E+10	1	-1E+10	1	-1E+10	1
4901784	105	C	05/20/2018	10:40	-132.315	43.157	0	425.20	0	4.9530	0	34.0730	8	26.950	0	421.387	0	70.4	4	22.7	4	-1E+10	1	-1E+10	1	-1E+10	1	-1E+10	1	-1E+10	1	-1E+10	1
4901784	105	C	05/20/2018	10:40	-132.315	43.157	0	427.70	0	4.9410	0	34.0740	8	26.952	0	423.862	0	69.3	4	22.4	4	-1E+10	1	-1E+10	1	-1E+10	1	-1E+10	1	-1E+10	1	-1E+10	1
4901784	105	C	05/20/2018	10:40	-132.315	43.157	0	430.20	0	4.9270	0	34.0760	8	26.955	0	426.337	0	68.2	4	22.0	4	-1E+10	1	-1E+10	1	-1E+10	1	-1E+10	1	-1E+10	1	-1E+10	1
4901784	105	C	05/20/2018	10:40	-132.315	43.157	0	432.80	0	4.9080	0	34.0780	8	26.959	0	428.911	0	67.0	4	21.6	4	-1E+10	1	-1E+10	1	-1E+10	1	-1E+10	1	-1E+10	1	-1E+10	1
4901784	105	C	05/20/2018	10:40	-132.315	43.157	0	435.30	0	4.8870	0	34.0810	8	26.963	0	431.386	0	66.1	4	21.3	4	-1E+10	1	-1E+10	1	-1E+10	1	-1E+10	1	-1E+10	1	-1E+10	1
4901784	105	C	05/20/2018	10:40	-132.315	43.157	0	437.90	0	4.8820	0	34.0820	8	26.965	0	433.960	0	65.3	4	21.0	4	-1E+10	1	-1E+10	1	-1E+10	1	-1E+10	1	-1E+10	1	-1E+10	1
4901784	105	C	05/20/2018	10:40	-132.315	43.157	0	440.40	0	4.8700	0	34.0840	8	26.968	0	436.435	0	64.4	4	20.7	4	-1E+10	1	-1E+10	1	-1E+10	1	-1E+10	1	-1E+10	1	-1E+10	1
4901784	105	C	05/20/2018	10:40	-132.315	43.157	0	442.10	0	4.8520	0	34.0880	8	26.973	0	438.118	0	63.8	4	20.6	4	-1E+10	1	-1E+10	1	-1E+10	1	-1E+10	1	-1E+10	1	-1E+10	1
4901784	105	C	05/20/2018	10:40	-132.315	43.157	0	444.70	0	4.8470	0	34.0880	8	26.974	0	440.691	0	63.2	4	20.4	4	-1E+10	1	-1E+10	1	-1E+10	1	-1E+10	1	-1E+10	1	-1E+10	1
4901784	105	C	05/20/2018	10:40	-132.315	43.157	0	447.20	0	4.8390	0	34.0880	8	26.974	0	443.166	0	62.5	4	20.1	4	-1E+10	1	-1E+10	1	-1E+10	1	-1E+10	1	-1E+10	1	-1E+10	1
4901784	105	C	05/20/2018	10:40	-132.315	43.157	0	449.90	0	4.8130	0	34.0940	8	26.982	0	445.839	0	61.8	4	19.9	4	-1E+10	1	-1E+10	1	-1E+10	1	-1E+10	1	-1E+10	1	-1E+10	1
4901784	105	C	05/20/2018	10:40	-132.315	43.157	0	452.50	0	4.7930	0	34.0980	8	26.988	0	448.413	0	61.4	4	19.7	4	-1E+10	1	-1E+10	1	-1E+10	1	-1E+10	1	-1E+10	1	-1E+10	1
4901784	105	C	05/20/2018	10:40	-132.315	43.157	0	455.10	0	4.7840	0	34.0990	8	26.989	0	450.986	0	60.7	4	19.5	4	-1E+10	1	-1E+10	1	-1E+10	1	-1E+10	1	-1E+10	1	-1E+10	1
4901784	105	C	05/20/2018	10:40	-132.315	43.157	0	457.70	0	4.7730	0	34.1000	8	26.991	0	453.560	0	59.8	4	19.2	4	-1E+10	1	-1E+10	1	-1E+10	1	-1E+10	1	-1E+10	1	-1E+10	1
4901784	105	C	05/20/2018	10:40	-132.315	43.157	0	460.30	0	4.7350	0	34.1080	8	27.002	0	456.134	0	59.0	4	19.0	4	-1E+10	1	-1E+10	1	-1E+10	1	-1E+10	1	-1E+10	1	-1E+10	1
4901784	105	C	05/20/2018	10:40	-132.315	43.157	0	463.00	0	4.7200	0	34.1110	8	27.006	0	458.806	0	58.8	4	18.9	4	-1E+10	1	-1E+10	1	-1E+10	1	-1E+10	1	-1E+10	1	-1E+10	1
4901784	105	C	05/20/2018	10:40	-132.315	43.157	0	464.80	0	4.7160	0	34.1110	8	27.007	0	460.588	0	58.7	4	18.8	4	-1E+10	1	-1E+10	1	-1E+10	1	-1E+10	1	-1E+10	1	-1E+10	1
4901784	105	C	05/20/2018	10:40	-132.315	43.157	0	467.50	0	4.7140	0	34.1120	8	27.008	0	463.260	0	58.4	4	18.7	4	-1E+10	1	-1E+10	1	-1E+10	1	-1E+10	1	-1E+10	1	-1E+10	1
4901784	105	C	05/20/2018	10:40	-132.315	43.157	0	470.20	0	4.7080	0	34.1130	8	27.009	0	465.933	0	58.2	4	18.7	4	-1E+10	1	-1E+10	1	-1E+10	1	-1E+10	1	-1E+10	1	-1E+10	1
4901784	105	C	05/20/2018	10:40	-132.315	43.157	0	472.00	0	4.7010	0	34.1160	8	27.012	0	467.715	0	58.1	4	18.6	4	-1E+10	1	-1E+10	1	-1E+10	1	-1E+10	1	-1E+10	1	-1E+10	1
4901784	105	C	05/20/2018	10:40	-132.315	43.157	0	474.70	0	4.6940	0	34.1190	8	27.015	0	470.387	0	58.0	4	18.6	4	-1E+10	1	-1E+10	1	-1E+10	1	-1E+10	1	-1E+10	1	-1E+10	1
4901784	105	C	05/20/2018	10:40	-132.315	43.157	0	477.40	0	4.6930	0	34.1190	8	27.016	0	473.059	0	57.6	4	18.5	4	-1E+10	1	-1E+10	1	-1E+10	1	-1E+10	1	-1E+10	1	-1E+10	1
4901784	105	C	05/20/2018	10:40	-132.315	43.157	0	480.10	0	4.6790	0	34.1250	8	27.022	0	475.732	0	57.1	4	18.3	4	-1E+10	1	-1E+10	1	-1E+10	1	-1E+10	1	-1E+10	1	-1E+10	1
4901784	105	C	05/20/2018	10:40	-132.315	43.157	0	482.80	0	4.6700	0	34.1280	8	27.025	0	478.404	0	56.6	4	18.1	4	-1E+10	1	-1E+10	1	-1E+10	1	-1E+10	1	-1E+10	1	-1E+10	1
4901784	105	C	05/20/2018	10:40	-132.315	43.157	0	484.70	0	4.6630	0	34.1300	8	27.028	0	480.285	0	56.4	4	18.1	4	-1E+10	1	-1E+10	1	-1E+10	1	-1E+10	1	-1E+10	1	-1E+10	1
4901784	105	C	05/20/2018	10:40	-132.315	43.157	0	487.00	0	4.6600	0	34.1310	8	27.029	0	482.561	0	56.1	4	18.0	4	-1E+10	1	-1E+10	1	-1E+10	1	-1E+10	1	-1E+10	1	-1E+10	1
4901784	105	C	05/20/2018	10:40	-132.315	43.157	0	489.70	0	4.6580	0	34.1310	8	27.029	0	485.233	0	55.7	4	17.8	4	-1E+10	1	-1E+10	1	-1E+10	1	-1E+10	1	-1E+10	1	-1E+10	1
4901784	105	C	05/20/2018	10:40	-132.315	43.157	0	492.80	0	4.6520	0	34.1330	8	27.031	0	488.301	0	54.9	4	17.6	4	-1E+10	1	-1E+10	1	-1E+10	1	-1E+10	1	-1E+10	1	-1E+10	1
4901784	105	C	05/20/2018	10:40	-132.315	43.157	0	495.20	0	4.6440	0	34.1350	8	27.034	0	490.677	0	54.1	4	17.3	4	-1E+10	1	-1E+10	1	-1E+10	1	-1E+10	1	-1E+10	1	-1E+10	1
4901784	105	C	05/20/2018	10:40	-132.315	43.157	0	497.60	0	4.6260	0	34.1400	8	27.040	0	493.052	0	53.4	4	17.1	4	-1E+10	1	-1E+10	1	-1E+10	1	-1E+10	1	-1E+10	1	-1E+10	1
4901784	105	C	05/20/2018	10:40	-132.315	43.157	0	500.00	0	4.6210	0	34.1410	8	27.041	0	495.427	0	52.9	4	17.0	4	-1E+10	1	-1E+10	1	-1E+10	1	-1E+10	1	-1E+10	1	-1E+10	1
4901784	105	C	05/20/2018	10:40	-132.315	43.157	0	504.90	0	4.6090	0	34.1450	8	27.046	0	500.276	0	52.1	4	16.7	4	-1E+10	1	-1E+10	1	-1E+10	1	-1E+10	1	-1E+10	1	-1E+10	1
4901784	105	C	05/20/2018	10:40	-132.315	43.157	0	509.70	0	4.6060	0	34.1460	8	27.047	0	505.026	0	51.0	4	16.3	4	-1E+10	1	-1E+10	1	-1E+10	1	-1E+10	1	-1E+10	1	-1E+10	1
4901784	105	C	05/20/2018	10:40	-132.315	43.157	0	514.50	0	4.5870	0	34.1530	8	27.054	0	509.777	0	48.9	4	15.6	4	-1E+10	1	-1E+10	1	-1E+10	1	-1E+10	1	-1E+10	1	-1E+10	1
4901784	105	C	05/20/2018	10:40	-132.315	43.157	0	519.40	0	4.5640	0	34.1610	8	27.063	0	514.626	0	47.3	4	15.1	4	-1E+10	1	-1E+10	1	-1E+10	1	-1E+10	1	-1E+10	1	-1E+10	1
4901784	105	C	05/20/2018	10:40	-132.315	43.157	0	524.50	0	4.5460	0	34.1670	8	27.070	0	519.672	0	45.8	4	14.7	4	-1E+10	1	-1E+10	1	-1E+10	1	-1E+10	1	-1E+10	1	-1E+10	1
4901784	105	C	05/20/2018	10:40	-132.315	43.157	0	529.70	0	4.5260	0	34.1720	8	27.076	0	524.818	0	44.5	4	14.2	4	-1E+10	1	-1E+10	1	-1E+10	1	-1E+10	1	-1E+10	1	-1E+10	1
4901784	105	C	05/20/2018	10:40	-132.315	43.157	0	534.90	0	4.5060	0	34.1770	8	27.082	0	529.963	0	43.2	4	13.8	4	-1E+10	1	-1E+10	1	-1E+10	1	-1E+10	1	-1E+10	1	-1E+10	1
4901784	105	C	05/20/2018	10:40	-132.315	43.157	0	540.10	0	4.4900	0	34.1820	8	27.088	0	535.109	0	42.3	4	13.5	4	-1E+10	1	-1E+10	1	-1E+10	1	-1E+10	1	-1E+10	1	-1E+10	1
4901784	105	C	05/20/2018	10:40	-132.315	43.157	0	545.40	0	4.4790	0	34.1860	8	27.093	0	540.353	0	41.5	4	13.3	4	-1E+10	1	-1E+10	1	-1E+10	1	-1E+10	1	-1E+10	1	-1E+10	1
4901784	105	C	05/20/2018	10:40	-132.315	43.157	0	549.80	0	4.4740	0	34.1870	8	27.094	0	544.706	0	40.9	4	13.1	4	-1E+10	1	-1E+10	1	-1E+10	1	-1E+10	1	-1E+10	1	-1E+10	1
4901784	105	C	05/20/2018	10:40	-132.315	43.157	0	554.30	0	4.4620	0	34.1900	8	27.098	0	549.159	0	40.0	4	12.8	4	-1E+10	1	-1E+10	1	-1E+10	1	-1E+10	1	-1E+10	1	-1E+10	1
4901784	105	C	05/20/2018	10:40	-132.315	43.157	0	559.70	0	4.4420	0	34.1950	8	27.104	0	554.501	0	39.0	4	12.5	4	-1E+10	1	-1E+10	1	-1E+10	1	-1E+10	1	-1E+10	1	-1E+10	1
4901784	105	C	05/20/2018	10:40	-132.315	43.157	0	565.00	0	4.4300	0	34.1980	8	27.108	0	559.745	0	38.3	4	12.2	4	-1E+10	1	-1E+10	1	-1E+10	1	-1E+10	1	-1E+10	1	-1E+10	1
4901784	105	C	05/20/2018	10:40	-132.315	43.157	0	570.30	0	4.4220	0	34.2000	8	27.110	0	564.988	0	37.4	4	11.9	4	-1E+10	1	-1E+10	1	-1E+10	1	-1E+10	1	-1E+10	1	-1E+10	1
4901784	105	C	05/20/2018	10:40	-132.315	43.157	0	575.70	0	4.4020	0	34.2060	8	27.117	0	570.331	0	36.4	4	11.6	4	-1E+10	1	-1E+10	1	-1E+10	1	-1E+10	1	-1E+10	1	-1E+10	1
4901784	105	C	05/20/2018	10:40	-132.315	43.157	0	580.10	0	4.3930	0	34.2080	8	27.120	0	574.684	0	35.8	4	11.4	4	-1E+10	1	-1E+10	1	-1E+10	1	-1E+10	1	-1E+10	1	-1E+10	1
4901784	105	C	05/20/2018	10:40	-132.315	43.157	0	584.50	0	4.3850	0	34.2100	8	27.122	0	579.036	0	34.9	4	11.1	4	-1E+10	1	-1E+10	1	-1E+10	1	-1E+10	1	-1E+10	1	-1E+10	1
4901784	105	C	05/20/2018	10:40	-132.315	43.157	0	589.80	0	4.3630	0	34.2150	8	27.128	0	584.279	0	33.8	4	10.8	4	-1E+10	1	-1E+10	1	-1E+10	1	-1E+10	1	-1E+10	1	-1E+10	1
4901784	105	C	05/20/2018	10:40	-132.315	43.157	0	595.10	0	4.3470	0	34.2190	8	27.133	0	589.522	0	32.7	4	10.4	4	-1E+10	1	-1E+10	1	-1E+10	1	-1E+10	1	-1E+10	1	-1E+10	1
4901784	105	C	05/20/2018	10:40	-132.315	43.157	0	600.50	0	4.3320	0	34.2230	8	27.138	0	594.864	0	31.8	4	10.1	4	-1E+10	1	-1E+10	1	-1E+10	1	-1E+10	1	-1E+10	1	-1E+10	1
4901784	105	C	05/20/2018	10:40	-132.315	43.157	0	605.00	0	4.3200	0	34.2250	8	27.141	0	599.315	0	31.0	4	9.9	4	-1E+10	1	-1E+10	1	-1E+10	1	-1E+10	1	-1E+10	1	-1E+10	1
4901784	105	C	05/20/2018	10:40	-132.315	43.157	0	609.50	0	4.3010	0	34.2300	8	27.147	0	603.767	0	30.2	4	9.6	4	-1E+10	1	-1E+10	1	-1E+10	1	-1E+10	1	-1E+10	1	-1E+10	1
4901784	105	C	05/20/2018	10:40	-132.315	43.157	0	614.80	0	4.2820	0	34.2340	8	27.152	0	609.009	0	29.4	4	9.4	4	-1E+10	1	-1E+10	1	-1E+10	1	-1E+10	1	-1E+10	1	-1E+10	1
4901784	105	C	05/20/2018	10:40	-132.315	43.157	0	620.20	0	4.2650	0	34.2380	8	27.157	0	614.350	0	28.5	4	9.1	4	-1E+10	1	-1E+10	1	-1E+10	1	-1E+10	1	-1E+10	1	-1E+10	1
4901784	105	C	05/20/2018	10:40	-132.315	43.157	0	625.50	0	4.2420	0	34.2430	8	27.164	0	619.592	0	27.3	4	8.7	4	-1E+10	1	-1E+10	1	-1E+10	1	-1E+10	1	-1E+10	1	-1E+10	1
4901784	105	C	05/20/2018	10:40	-132.315	43.157	0	630.00	0	4.2200	0	34.2490	8	27.171	0	624.043	0	26.6	4	8.5	4	-1E+10	1	-1E+10	1	-1E+10	1	-1E+10	1	-1E+10	1	-1E+10	1
4901784	105	C	05/20/2018	10:40	-132.315	43.157	0	634.40	0	4.2140	0	34.2510	8	27.173	0	628.395	0	26.0	4	8.3	4	-1E+10	1	-1E+10	1	-1E+10	1	-1E+10	1	-1E+10	1	-1E+10	1
4901784	105	C	05/20/2018	10:40	-132.315	43.157	0	639.70	0	4.2000	0	34.2560	8	27.179	0	633.637	0	25.0	4	7.9	4	-1E+10	1	-1E+10	1	-1E+10	1	-1E+10	1	-1E+10	1	-1E+10	1
4901784	105	C	05/20/2018	10:40	-132.315	43.157	0	644.90	0	4.2020	0	34.2620	8	27.183	0	638.779	0	23.9	4	7.6	4	-1E+10	1	-1E+10	1	-1E+10	1	-1E+10	1	-1E+10	1	-1E+10	1
4901784	105	C	05/20/2018	10:40	-132.315	43.157	0	650.20	0	4.1930	0	34.2650	8	27.187	0	644.021	0	23.8	4	7.5	4	-1E+10	1	-1E+10	1	-1E+10	1	-1E+10	1	-1E+10	1	-1E+10	1
4901784	105	C	05/20/2018	10:40	-132.315	43.157	0	655.40	0	4.1690	0	34.2650	8	27.189	0	649.163	0	23.6	4	7.5	4	-1E+10	1	-1E+10	1	-1E+10	1	-1E+10	1	-1E+10	1	-1E+10	1
4901784	105	C	05/20/2018	10:40	-132.315	43.157	0	660.70	0	4.1540	0	34.2680	8	27.193	0	654.405	0	22.8	4	7.2	4	-1E+10	1	-1E+10	1	-1E+10	1	-1E+10	1	-1E+10	1	-1E+10	1
4901784	105	C	05/20/2018	10:40	-132.315	43.157	0	665.00	0	4.1490	0	34.2710	8	27.196	0	658.657	0	22.0	4	7.0	4	-1E+10	1	-1E+10	1	-1E+10	1	-1E+10	1	-1E+10	1	-1E+10	1
4901784	105	C	05/20/2018	10:40	-132.315	43.157	0	669.20	0	4.1440	0	34.2760	8	27.201	0	662.810	0	21.1	4	6.7	4	-1E+10	1	-1E+10	1	-1E+10	1	-1E+10	1	-1E+10	1	-1E+10	1
4901784	105	C	05/20/2018	10:40	-132.315	43.157	0	674.40	0	4.1170	0	34.2840	8	27.210	0	667.952	0	20.5	4	6.5	4	-1E+10	1	-1E+10	1	-1E+10	1	-1E+10	1	-1E+10	1	-1E+10	1
4901784	105	C	05/20/2018	10:40	-132.315	43.157	0	679.70	0	4.0920	0	34.2850	8	27.213	0	673.193	0	20.3	4	6.4	4	-1E+10	1	-1E+10	1	-1E+10	1	-1E+10	1	-1E+10	1	-1E+10	1
4901784	105	C	05/20/2018	10:40	-132.315	43.157	0	685.10	0	4.0690	0	34.2890	8	27.219	0	678.532	0	19.7	4	6.2	4	-1E+10	1	-1E+10	1	-1E+10	1	-1E+10	1	-1E+10	1	-1E+10	1
4901784	105	C	05/20/2018	10:40	-132.315	43.157	0	690.50	0	4.0500	0	34.2950	8	27.225	0	683.872	0	19.3	4	6.1	4	-1E+10	1	-1E+10	1	-1E+10	1	-1E+10	1	-1E+10	1	-1E+10	1
4901784	105	C	05/20/2018	10:40	-132.315	43.157	0	695.00	0	4.0360	0	34.2970	8	27.229	0	688.321	0	19.1	4	6.0	4	-1E+10	1	-1E+10	1	-1E+10	1	-1E+10	1	-1E+10	1	-1E+10	1
4901784	105	C	05/20/2018	10:40	-132.315	43.157	0	699.50	0	4.0230	0	34.2990	8	27.232	0	692.770	0	18.8	4	5.9	4	-1E+10	1	-1E+10	1	-1E+10	1	-1E+10	1	-1E+10	1	-1E+10	1
4901784	105	C	05/20/2018	10:40	-132.315	43.157	0	704.90	0	4.0110	0	34.3030	8	27.236	0	698.109	0	18.5	4	5.8	4	-1E+10	1	-1E+10	1	-1E+10	1	-1E+10	1	-1E+10	1	-1E+10	1
4901784	105	C	05/20/2018	10:40	-132.315	43.157	0	710.40	0	3.9980	0	34.3060	8	27.240	0	703.547	0	18.1	4	5.7	4	-1E+10	1	-1E+10	1	-1E+10	1	-1E+10	1	-1E+10	1	-1E+10	1
4901784	105	C	05/20/2018	10:40	-132.315	43.157	0	714.90	0	3.9850	0	34.3100	8	27.244	0	707.996	0	17.7	4	5.6	4	-1E+10	1	-1E+10	1	-1E+10	1	-1E+10	1	-1E+10	1	-1E+10	1
4901784	105	C	05/20/2018	10:40	-132.315	43.157	0	719.50	0	3.9710	0	34.3130	8	27.248	0	712.544	0	17.3	4	5.4	4	-1E+10	1	-1E+10	1	-1E+10	1	-1E+10	1	-1E+10	1	-1E+10	1
4901784	105	C	05/20/2018	10:40	-132.315	43.157	0	725.10	0	3.9510	0	34.3190	8	27.255	0	718.080	0	16.7	4	5.3	4	-1E+10	1	-1E+10	1	-1E+10	1	-1E+10	1	-1E+10	1	-1E+10	1
4901784	105	C	05/20/2018	10:40	-132.315	43.157	0	729.80	0	3.9300	0	34.3260	8	27.263	0	722.726	0	16.3	4	5.1	4	-1E+10	1	-1E+10	1	-1E+10	1	-1E+10	1	-1E+10	1	-1E+10	1
4901784	105	C	05/20/2018	10:40	-132.315	43.157	0	734.60	0	3.9180	0	34.3290	8	27.266	0	727.471	0	16.0	4	5.0	4	-1E+10	1	-1E+10	1	-1E+10	1	-1E+10	1	-1E+10	1	-1E+10	1
4901784	105	C	05/20/2018	10:40	-132.315	43.157	0	740.30	0	3.9020	0	34.3360	8	27.274	0	733.106	0	15.5	4	4.9	4	-1E+10	1	-1E+10	1	-1E+10	1	-1E+10	1	-1E+10	1	-1E+10	1
4901784	105	C	05/20/2018	10:40	-132.315	43.157	0	745.00	0	3.8900	0	34.3410	8	27.279	0	737.752	0	15.3	4	4.8	4	-1E+10	1	-1E+10	1	-1E+10	1	-1E+10	1	-1E+10	1	-1E+10	1
4901784	105	C	05/20/2018	10:40	-132.315	43.157	0	749.80	0	3.8840	0	34.3420	8	27.280	0	742.497	0	15.1	4	4.7	4	-1E+10	1	-1E+10	1	-1E+10	1	-1E+10	1	-1E+10	1	-1E+10	1
4901784	105	C	05/20/2018	10:40	-132.315	43.157	0	755.50	0	3.8760	0	34.3460	8	27.284	0	748.131	0	14.7	4	4.6	4	-1E+10	1	-1E+10	1	-1E+10	1	-1E+10	1	-1E+10	1	-1E+10	1
4901784	105	C	05/20/2018	10:40	-132.315	43.157	0	760.30	0	3.8660	0	34.3510	8	27.289	0	752.876	0	14.4	4	4.5	4	-1E+10	1	-1E+10	1	-1E+10	1	-1E+10	1	-1E+10	1	-1E+10	1
4901784	105	C	05/20/2018	10:40	-132.315	43.157	0	765.10	0	3.8600	0	34.3550	8	27.293	0	757.620	0	14.1	4	4.4	4	-1E+10	1	-1E+10	1	-1E+10	1	-1E+10	1	-1E+10	1	-1E+10	1
4901784	105	C	05/20/2018	10:40	-132.315	43.157	0	770.50	0	3.8550	0	34.3580	8	27.296	0	762.958	0	13.6	4	4.3	4	-1E+10	1	-1E+10	1	-1E+10	1	-1E+10	1	-1E+10	1	-1E+10	1
4901784	105	C	05/20/2018	10:40	-132.315	43.157	0	775.50	0	3.8540	0	34.3670	8	27.303	0	767.899	0	13.0	4	4.1	4	-1E+10	1	-1E+10	1	-1E+10	1	-1E+10	1	-1E+10	1	-1E+10	1
4901784	105	C	05/20/2018	10:40	-132.315	43.157	0	780.40	0	3.8720	0	34.3800	8	27.312	0	772.742	0	12.2	4	3.8	4	-1E+10	1	-1E+10	1	-1E+10	1	-1E+10	1	-1E+10	1	-1E+10	1
4901784	105	C	05/20/2018	10:40	-132.315	43.157	0	785.40	0	3.9040	0	34.3940	8	27.320	0	777.684	0	11.6	4	3.7	4	-1E+10	1	-1E+10	1	-1E+10	1	-1E+10	1	-1E+10	1	-1E+10	1
4901784	105	C	05/20/2018	10:40	-132.315	43.157	0	790.60	0	3.9210	0	34.4030	8	27.325	0	782.823	0	11.3	4	3.6	4	-1E+10	1	-1E+10	1	-1E+10	1	-1E+10	1	-1E+10	1	-1E+10	1
4901784	105	C	05/20/2018	10:40	-132.315	43.157	0	794.90	0	3.9300	0	34.4090	8	27.329	0	787.073	0	11.1	4	3.5	4	-1E+10	1	-1E+10	1	-1E+10	1	-1E+10	1	-1E+10	1	-1E+10	1
4901784	105	C	05/20/2018	10:40	-132.315	43.157	0	799.30	0	3.9360	0	34.4140	8	27.333	0	791.421	0	11.0	4	3.5	4	-1E+10	1	-1E+10	1	-1E+10	1	-1E+10	1	-1E+10	1	-1E+10	1
4901784	105	C	05/20/2018	10:40	-132.315	43.157	0	804.50	0	3.9370	0	34.4150	8	27.333	0	796.560	0	11.0	4	3.5	4	-1E+10	1	-1E+10	1	-1E+10	1	-1E+10	1	-1E+10	1	-1E+10	1
4901784	105	C	05/20/2018	10:40	-132.315	43.157	0	809.80	0	3.9370	0	34.4140	8	27.333	0	801.797	0	10.9	4	3.4	4	-1E+10	1	-1E+10	1	-1E+10	1	-1E+10	1	-1E+10	1	-1E+10	1
4901784	105	C	05/20/2018	10:40	-132.315	43.157	0	815.30	0	3.9330	0	34.4170	8	27.336	0	807.232	0	10.7	4	3.4	4	-1E+10	1	-1E+10	1	-1E+10	1	-1E+10	1	-1E+10	1	-1E+10	1
4901784	105	C	05/20/2018	10:40	-132.315	43.157	0	820.60	0	3.9160	0	34.4290	8	27.347	0	812.470	0	10.6	4	3.3	4	-1E+10	1	-1E+10	1	-1E+10	1	-1E+10	1	-1E+10	1	-1E+10	1
4901784	105	C	05/20/2018	10:40	-132.315	43.157	0	825.10	0	3.9110	0	34.4320	8	27.350	0	816.916	0	10.5	4	3.3	4	-1E+10	1	-1E+10	1	-1E+10	1	-1E+10	1	-1E+10	1	-1E+10	1
4901784	105	C	05/20/2018	10:40	-132.315	43.157	0	829.60	0	3.9060	0	34.4340	8	27.352	0	821.363	0	10.5	4	3.3	4	-1E+10	1	-1E+10	1	-1E+10	1	-1E+10	1	-1E+10	1	-1E+10	1
4901784	105	C	05/20/2018	10:40	-132.315	43.157	0	835.00	0	3.9000	0	34.4350	8	27.353	0	826.699	0	10.5	4	3.3	4	-1E+10	1	-1E+10	1	-1E+10	1	-1E+10	1	-1E+10	1	-1E+10	1
4901784	105	C	05/20/2018	10:40	-132.315	43.157	0	840.40	0	3.8960	0	34.4380	8	27.356	0	832.034	0	10.4	4	3.3	4	-1E+10	1	-1E+10	1	-1E+10	1	-1E+10	1	-1E+10	1	-1E+10	1
4901784	105	C	05/20/2018	10:40	-132.315	43.157	0	845.00	0	3.8940	0	34.4400	8	27.358	0	836.579	0	10.4	4	3.3	4	-1E+10	1	-1E+10	1	-1E+10	1	-1E+10	1	-1E+10	1	-1E+10	1
4901784	105	C	05/20/2018	10:40	-132.315	43.157	0	849.50	0	3.8860	0	34.4400	8	27.359	0	841.025	0	10.4	4	3.3	4	-1E+10	1	-1E+10	1	-1E+10	1	-1E+10	1	-1E+10	1	-1E+10	1
4901784	105	C	05/20/2018	10:40	-132.315	43.157	0	855.10	0	3.8520	0	34.4440	8	27.365	0	846.558	0	10.4	4	3.3	4	-1E+10	1	-1E+10	1	-1E+10	1	-1E+10	1	-1E+10	1	-1E+10	1
4901784	105	C	05/20/2018	10:40	-132.315	43.157	0	860.60	0	3.8030	0	34.4480	8	27.374	0	851.992	0	10.4	4	3.3	4	-1E+10	1	-1E+10	1	-1E+10	1	-1E+10	1	-1E+10	1	-1E+10	1
4901784	105	C	05/20/2018	10:40	-132.315	43.157	0	865.20	0	3.7830	0	34.4500	8	27.377	0	856.536	0	10.4	4	3.3	4	-1E+10	1	-1E+10	1	-1E+10	1	-1E+10	1	-1E+10	1	-1E+10	1
4901784	105	C	05/20/2018	10:40	-132.315	43.157	0	869.80	0	3.7790	0	34.4540	8	27.381	0	861.081	0	10.4	4	3.3	4	-1E+10	1	-1E+10	1	-1E+10	1	-1E+10	1	-1E+10	1	-1E+10	1
4901784	105	C	05/20/2018	10:40	-132.315	43.157	0	875.30	0	3.7570	0	34.4570	8	27.385	0	866.514	0	10.4	4	3.3	4	-1E+10	1	-1E+10	1	-1E+10	1	-1E+10	1	-1E+10	1	-1E+10	1
4901784	105	C	05/20/2018	10:40	-132.315	43.157	0	880.40	0	3.7480	0	34.4600	8	27.389	0	871.553	0	10.5	4	3.3	4	-1E+10	1	-1E+10	1	-1E+10	1	-1E+10	1	-1E+10	1	-1E+10	1
4901784	105	C	05/20/2018	10:40	-132.315	43.157	0	884.50	0	3.7050	0	34.4630	8	27.395	0	875.603	0	10.5	4	3.3	4	-1E+10	1	-1E+10	1	-1E+10	1	-1E+10	1	-1E+10	1	-1E+10	1
4901784	105	C	05/20/2018	10:40	-132.315	43.157	0	890.00	0	3.6750	0	34.4670	8	27.402	0	881.036	0	10.6	4	3.3	4	-1E+10	1	-1E+10	1	-1E+10	1	-1E+10	1	-1E+10	1	-1E+10	1
4901784	105	C	05/20/2018	10:40	-132.315	43.157	0	895.70	0	3.6690	0	34.4700	8	27.405	0	886.666	0	10.6	4	3.3	4	-1E+10	1	-1E+10	1	-1E+10	1	-1E+10	1	-1E+10	1	-1E+10	1
4901784	105	C	05/20/2018	10:40	-132.315	43.157	0	900.50	0	3.6660	0	34.4700	8	27.405	0	891.408	0	10.6	4	3.3	4	-1E+10	1	-1E+10	1	-1E+10	1	-1E+10	1	-1E+10	1	-1E+10	1
4901784	105	C	05/20/2018	10:40	-132.315	43.157	0	905.40	0	3.6610	0	34.4710	8	27.406	0	896.248	0	10.7	4	3.4	4	-1E+10	1	-1E+10	1	-1E+10	1	-1E+10	1	-1E+10	1	-1E+10	1
4901784	105	C	05/20/2018	10:40	-132.315	43.157	0	910.30	0	3.6460	0	34.4720	8	27.409	0	901.088	0	10.8	4	3.4	4	-1E+10	1	-1E+10	1	-1E+10	1	-1E+10	1	-1E+10	1	-1E+10	1
4901784	105	C	05/20/2018	10:40	-132.315	43.157	0	915.20	0	3.6370	0	34.4730	8	27.410	0	905.928	0	10.8	4	3.4	4	-1E+10	1	-1E+10	1	-1E+10	1	-1E+10	1	-1E+10	1	-1E+10	1
4901784	105	C	05/20/2018	10:40	-132.315	43.157	0	920.20	0	3.6180	0	34.4740	8	27.413	0	910.866	0	10.9	4	3.4	4	-1E+10	1	-1E+10	1	-1E+10	1	-1E+10	1	-1E+10	1	-1E+10	1
4901784	105	C	05/20/2018	10:40	-132.315	43.157	0	925.20	0	3.5940	0	34.4750	8	27.416	0	915.804	0	11.0	4	3.4	4	-1E+10	1	-1E+10	1	-1E+10	1	-1E+10	1	-1E+10	1	-1E+10	1
4901784	105	C	05/20/2018	10:40	-132.315	43.157	0	930.20	0	3.5630	0	34.4800	8	27.423	0	920.743	0	11.1	4	3.5	4	-1E+10	1	-1E+10	1	-1E+10	1	-1E+10	1	-1E+10	1	-1E+10	1
4901784	105	C	05/20/2018	10:40	-132.315	43.157	0	935.20	0	3.5430	0	34.4830	8	27.428	0	925.681	0	11.2	4	3.5	4	-1E+10	1	-1E+10	1	-1E+10	1	-1E+10	1	-1E+10	1	-1E+10	1
4901784	105	C	05/20/2018	10:40	-132.315	43.157	0	940.30	0	3.5340	0	34.4840	8	27.429	0	930.717	0	11.3	4	3.5	4	-1E+10	1	-1E+10	1	-1E+10	1	-1E+10	1	-1E+10	1	-1E+10	1
4901784	105	C	05/20/2018	10:40	-132.315	43.157	0	945.50	0	3.5120	0	34.4870	8	27.434	0	935.853	0	11.3	4	3.5	4	-1E+10	1	-1E+10	1	-1E+10	1	-1E+10	1	-1E+10	1	-1E+10	1
4901784	105	C	05/20/2018	10:40	-132.315	43.157	0	949.90	0	3.4990	0	34.4900	8	27.438	0	940.198	0	11.3	4	3.5	4	-1E+10	1	-1E+10	1	-1E+10	1	-1E+10	1	-1E+10	1	-1E+10	1
4901784	105	C	05/20/2018	10:40	-132.315	43.157	0	954.30	0	3.4960	0	34.4900	8	27.438	0	944.543	0	11.3	4	3.5	4	-1E+10	1	-1E+10	1	-1E+10	1	-1E+10	1	-1E+10	1	-1E+10	1
4901784	105	C	05/20/2018	10:40	-132.315	43.157	0	959.50	0	3.4930	0	34.4900	8	27.438	0	949.678	0	11.2	4	3.5	4	-1E+10	1	-1E+10	1	-1E+10	1	-1E+10	1	-1E+10	1	-1E+10	1
4901784	105	C	05/20/2018	10:40	-132.315	43.157	0	964.70	0	3.4860	0	34.4920	8	27.440	0	954.813	0	11.2	4	3.5	4	-1E+10	1	-1E+10	1	-1E+10	1	-1E+10	1	-1E+10	1	-1E+10	1
4901784	105	C	05/20/2018	10:40	-132.315	43.157	0	970.00	0	3.4770	0	34.4940	8	27.443	0	960.047	0	11.4	4	3.6	4	-1E+10	1	-1E+10	1	-1E+10	1	-1E+10	1	-1E+10	1	-1E+10	1
4901784	105	C	05/20/2018	10:40	-132.315	43.157	0	975.40	0	3.4490	0	34.4980	8	27.449	0	965.379	0	11.8	4	3.7	4	-1E+10	1	-1E+10	1	-1E+10	1	-1E+10	1	-1E+10	1	-1E+10	1
4901784	105	C	05/20/2018	10:40	-132.315	43.157	0	979.90	0	3.4250	0	34.5020	8	27.454	0	969.822	0	12.0	4	3.8	4	-1E+10	1	-1E+10	1	-1E+10	1	-1E+10	1	-1E+10	1	-1E+10	1
4901784	105	C	05/20/2018	10:40	-132.315	43.157	0	984.50	0	3.4060	0	34.5070	8	27.460	0	974.364	0	12.2	4	3.8	4	-1E+10	1	-1E+10	1	-1E+10	1	-1E+10	1	-1E+10	1	-1E+10	1
4901784	105	C	05/20/2018	10:40	-132.315	43.157	0	990.10	0	3.3960	0	34.5090	8	27.463	0	979.893	0	12.3	4	3.8	4	-1E+10	1	-1E+10	1	-1E+10	1	-1E+10	1	-1E+10	1	-1E+10	1
4901784	105	C	05/20/2018	10:40	-132.315	43.157	0	994.70	0	3.3920	0	34.5100	8	27.464	0	984.435	0	12.4	4	3.9	4	-1E+10	1	-1E+10	1	-1E+10	1	-1E+10	1	-1E+10	1	-1E+10	1
4901784	105	C	05/20/2018	10:40	-132.315	43.157	0	999.30	0	3.3770	0	34.5140	8	27.469	0	988.977	0	12.6	4	3.9	4	-1E+10	1	-1E+10	1	-1E+10	1	-1E+10	1	-1E+10	1	-1E+10	1
4901784	105	C	05/20/2018	10:40	-132.315	43.157	0	1005.00	0	3.3700	0	34.5160	8	27.471	0	994.605	0	12.8	4	4.0	4	-1E+10	1	-1E+10	1	-1E+10	1	-1E+10	1	-1E+10	1	-1E+10	1
4901784	105	C	05/20/2018	10:40	-132.315	43.157	0	1009.70	0	3.3610	0	34.5200	8	27.475	0	999.245	0	13.0	4	4.0	4	-1E+10	1	-1E+10	1	-1E+10	1	-1E+10	1	-1E+10	1	-1E+10	1
4901784	105	C	05/20/2018	10:40	-132.315	43.157	0	1014.50	0	3.3600	0	34.5210	8	27.476	0	1003.984	0	13.1	4	4.1	4	-1E+10	1	-1E+10	1	-1E+10	1	-1E+10	1	-1E+10	1	-1E+10	1
4901784	105	C	05/20/2018	10:40	-132.315	43.157	0	1020.20	0	3.3530	0	34.5230	8	27.478	0	1009.611	0	13.3	4	4.1	4	-1E+10	1	-1E+10	1	-1E+10	1	-1E+10	1	-1E+10	1	-1E+10	1
4901784	105	C	05/20/2018	10:40	-132.315	43.157	0	1025.00	0	3.3500	0	34.5240	8	27.479	0	1014.349	0	13.5	4	4.2	4	-1E+10	1	-1E+10	1	-1E+10	1	-1E+10	1	-1E+10	1	-1E+10	1
4901784	105	C	05/20/2018	10:40	-132.315	43.157	0	1029.80	0	3.3420	0	34.5260	8	27.482	0	1019.088	0	13.8	4	4.3	4	-1E+10	1	-1E+10	1	-1E+10	1	-1E+10	1	-1E+10	1	-1E+10	1
4901784	105	C	05/20/2018	10:40	-132.315	43.157	0	1035.50	0	3.3300	0	34.5310	8	27.487	0	1024.715	0	14.1	4	4.4	4	-1E+10	1	-1E+10	1	-1E+10	1	-1E+10	1	-1E+10	1	-1E+10	1
4901784	105	C	05/20/2018	10:40	-132.315	43.157	0	1040.40	0	3.3240	0	34.5340	8	27.490	0	1029.552	0	14.4	4	4.5	4	-1E+10	1	-1E+10	1	-1E+10	1	-1E+10	1	-1E+10	1	-1E+10	1
4901784	105	C	05/20/2018	10:40	-132.315	43.157	0	1044.90	0	3.3140	0	34.5380	8	27.494	0	1033.994	0	14.7	4	4.6	4	-1E+10	1	-1E+10	1	-1E+10	1	-1E+10	1	-1E+10	1	-1E+10	1
4901784	105	C	05/20/2018	10:40	-132.315	43.157	0	1049.70	0	3.3070	0	34.5400	8	27.496	0	1038.731	0	14.9	4	4.6	4	-1E+10	1	-1E+10	1	-1E+10	1	-1E+10	1	-1E+10	1	-1E+10	1
4901784	105	C	05/20/2018	10:40	-132.315	43.157	0	1054.70	0	3.3010	0	34.5430	8	27.499	0	1043.667	0	15.0	4	4.7	4	-1E+10	1	-1E+10	1	-1E+10	1	-1E+10	1	-1E+10	1	-1E+10	1
4901784	105	C	05/20/2018	10:40	-132.315	43.157	0	1059.60	0	3.2980	0	34.5440	8	27.500	0	1048.503	0	15.2	4	4.7	4	-1E+10	1	-1E+10	1	-1E+10	1	-1E+10	1	-1E+10	1	-1E+10	1
4901784	105	C	05/20/2018	10:40	-132.315	43.157	0	1064.60	0	3.2890	0	34.5480	8	27.505	0	1053.438	0	15.5	4	4.8	4	-1E+10	1	-1E+10	1	-1E+10	1	-1E+10	1	-1E+10	1	-1E+10	1
4901784	105	C	05/20/2018	10:40	-132.315	43.157	0	1069.70	0	3.2830	0	34.5500	8	27.507	0	1058.472	0	15.7	4	4.9	4	-1E+10	1	-1E+10	1	-1E+10	1	-1E+10	1	-1E+10	1	-1E+10	1
4901784	105	C	05/20/2018	10:40	-132.315	43.157	0	1074.80	0	3.2760	0	34.5510	8	27.508	0	1063.506	0	15.8	4	4.9	4	-1E+10	1	-1E+10	1	-1E+10	1	-1E+10	1	-1E+10	1	-1E+10	1
4901784	105	C	05/20/2018	10:40	-132.315	43.157	0	1080.00	0	3.2710	0	34.5520	8	27.509	0	1068.638	0	15.9	4	4.9	4	-1E+10	1	-1E+10	1	-1E+10	1	-1E+10	1	-1E+10	1	-1E+10	1
4901784	105	C	05/20/2018	10:40	-132.315	43.157	0	1085.50	0	3.2580	0	34.5550	8	27.513	0	1074.066	0	16.1	4	5.0	4	-1E+10	1	-1E+10	1	-1E+10	1	-1E+10	1	-1E+10	1	-1E+10	1
4901784	105	C	05/20/2018	10:40	-132.315	43.157	0	1090.00	0	3.2480	0	34.5570	8	27.516	0	1078.507	0	16.3	4	5.1	4	-1E+10	1	-1E+10	1	-1E+10	1	-1E+10	1	-1E+10	1	-1E+10	1
4901784	105	C	05/20/2018	10:40	-132.315	43.157	0	1094.70	0	3.2370	0	34.5590	8	27.518	0	1083.145	0	16.5	4	5.1	4	-1E+10	1	-1E+10	1	-1E+10	1	-1E+10	1	-1E+10	1	-1E+10	1
4901784	105	C	05/20/2018	10:40	-132.315	43.157	0	1100.40	0	3.2230	0	34.5620	8	27.522	0	1088.770	0	16.7	4	5.2	4	-1E+10	1	-1E+10	1	-1E+10	1	-1E+10	1	-1E+10	1	-1E+10	1
4901784	105	C	05/20/2018	10:40	-132.315	43.157	0	1105.20	0	3.2160	0	34.5630	8	27.524	0	1093.507	0	16.8	4	5.2	4	-1E+10	1	-1E+10	1	-1E+10	1	-1E+10	1	-1E+10	1	-1E+10	1
4901784	105	C	05/20/2018	10:40	-132.315	43.157	0	1110.00	0	3.2090	0	34.5650	8	27.526	0	1098.244	0	16.9	4	5.2	4	-1E+10	1	-1E+10	1	-1E+10	1	-1E+10	1	-1E+10	1	-1E+10	1
4901784	105	C	05/20/2018	10:40	-132.315	43.157	0	1114.70	0	3.2050	0	34.5660	8	27.527	0	1102.882	0	17.0	4	5.3	4	-1E+10	1	-1E+10	1	-1E+10	1	-1E+10	1	-1E+10	1	-1E+10	1
4901784	105	C	05/20/2018	10:40	-132.315	43.157	0	1119.50	0	3.1950	0	34.5670	8	27.529	0	1107.618	0	17.0	4	5.3	4	-1E+10	1	-1E+10	1	-1E+10	1	-1E+10	1	-1E+10	1	-1E+10	1
4901784	105	C	05/20/2018	10:40	-132.315	43.157	0	1125.30	0	3.1860	0	34.5680	8	27.530	0	1113.341	0	17.1	4	5.3	4	-1E+10	1	-1E+10	1	-1E+10	1	-1E+10	1	-1E+10	1	-1E+10	1
4901784	105	C	05/20/2018	10:40	-132.315	43.157	0	1130.20	0	3.1850	0	34.5680	8	27.531	0	1118.176	0	17.1	4	5.3	4	-1E+10	1	-1E+10	1	-1E+10	1	-1E+10	1	-1E+10	1	-1E+10	1
4901784	105	C	05/20/2018	10:40	-132.315	43.157	0	1135.00	0	3.1760	0	34.5700	8	27.533	0	1122.912	0	17.1	4	5.3	4	-1E+10	1	-1E+10	1	-1E+10	1	-1E+10	1	-1E+10	1	-1E+10	1
4901784	105	C	05/20/2018	10:40	-132.315	43.157	0	1139.80	0	3.1680	0	34.5690	8	27.533	0	1127.648	0	17.2	4	5.3	4	-1E+10	1	-1E+10	1	-1E+10	1	-1E+10	1	-1E+10	1	-1E+10	1
4901784	105	C	05/20/2018	10:40	-132.315	43.157	0	1144.60	0	3.1650	0	34.5700	8	27.534	0	1132.384	0	17.3	4	5.4	4	-1E+10	1	-1E+10	1	-1E+10	1	-1E+10	1	-1E+10	1	-1E+10	1
4901784	105	C	05/20/2018	10:40	-132.315	43.157	0	1149.60	0	3.1610	0	34.5700	8	27.535	0	1137.317	0	17.3	4	5.4	4	-1E+10	1	-1E+10	1	-1E+10	1	-1E+10	1	-1E+10	1	-1E+10	1
4901784	105	C	05/20/2018	10:40	-132.315	43.157	0	1154.50	0	3.1490	0	34.5720	8	27.537	0	1142.151	0	17.5	4	5.4	4	-1E+10	1	-1E+10	1	-1E+10	1	-1E+10	1	-1E+10	1	-1E+10	1
4901784	105	C	05/20/2018	10:40	-132.315	43.157	0	1160.40	0	3.1430	0	34.5730	8	27.539	0	1147.972	0	17.7	4	5.5	4	-1E+10	1	-1E+10	1	-1E+10	1	-1E+10	1	-1E+10	1	-1E+10	1
4901784	105	C	05/20/2018	10:40	-132.315	43.157	0	1165.30	0	3.1440	0	34.5740	8	27.539	0	1152.806	0	18.0	4	5.6	4	-1E+10	1	-1E+10	1	-1E+10	1	-1E+10	1	-1E+10	1	-1E+10	1
4901784	105	C	05/20/2018	10:40	-132.315	43.157	0	1170.30	0	3.1360	0	34.5770	8	27.543	0	1157.739	0	18.4	4	5.7	4	-1E+10	1	-1E+10	1	-1E+10	1	-1E+10	1	-1E+10	1	-1E+10	1
4901784	105	C	05/20/2018	10:40	-132.315	43.157	0	1175.30	0	3.1370	0	34.5810	8	27.546	0	1162.671	0	18.8	4	5.8	4	-1E+10	1	-1E+10	1	-1E+10	1	-1E+10	1	-1E+10	1	-1E+10	1
4901784	105	C	05/20/2018	10:40	-132.315	43.157	0	1180.30	0	3.1310	0	34.5830	8	27.548	0	1167.604	0	18.9	4	5.9	4	-1E+10	1	-1E+10	1	-1E+10	1	-1E+10	1	-1E+10	1	-1E+10	1
4901784	105	C	05/20/2018	10:40	-132.315	43.157	0	1185.30	0	3.1310	0	34.5830	8	27.548	0	1172.536	0	19.0	4	5.9	4	-1E+10	1	-1E+10	1	-1E+10	1	-1E+10	1	-1E+10	1	-1E+10	1
4901784	105	C	05/20/2018	10:40	-132.315	43.157	0	1190.40	0	3.1170	0	34.5830	8	27.549	0	1177.567	0	19.2	4	5.9	4	-1E+10	1	-1E+10	1	-1E+10	1	-1E+10	1	-1E+10	1	-1E+10	1
4901784	105	C	05/20/2018	10:40	-132.315	43.157	0	1195.30	0	3.1190	0	34.5860	8	27.551	0	1182.400	0	19.6	4	6.1	4	-1E+10	1	-1E+10	1	-1E+10	1	-1E+10	1	-1E+10	1	-1E+10	1
4901784	105	C	05/20/2018	10:40	-132.315	43.157	0	1200.30	0	3.1200	0	34.5880	8	27.553	0	1187.332	0	19.8	4	6.1	4	-1E+10	1	-1E+10	1	-1E+10	1	-1E+10	1	-1E+10	1	-1E+10	1
4901784	105	C	05/20/2018	10:40	-132.315	43.157	0	1205.40	0	3.1200	0	34.5890	8	27.554	0	1192.363	0	19.9	4	6.2	4	-1E+10	1	-1E+10	1	-1E+10	1	-1E+10	1	-1E+10	1	-1E+10	1
4901784	105	C	05/20/2018	10:40	-132.315	43.157	0	1210.40	0	3.1170	0	34.5900	8	27.555	0	1197.294	0	20.0	4	6.2	4	-1E+10	1	-1E+10	1	-1E+10	1	-1E+10	1	-1E+10	1	-1E+10	1
4901784	105	C	05/20/2018	10:40	-132.315	43.157	0	1215.40	0	3.1120	0	34.5910	8	27.556	0	1202.226	0	20.1	4	6.2	4	-1E+10	1	-1E+10	1	-1E+10	1	-1E+10	1	-1E+10	1	-1E+10	1
4901784	105	C	05/20/2018	10:40	-132.315	43.157	0	1220.30	0	3.1040	0	34.5910	8	27.557	0	1207.059	0	20.2	4	6.3	4	-1E+10	1	-1E+10	1	-1E+10	1	-1E+10	1	-1E+10	1	-1E+10	1
4901784	105	C	05/20/2018	10:40	-132.315	43.157	0	1225.00	0	3.1010	0	34.5920	8	27.558	0	1211.694	0	20.4	4	6.3	4	-1E+10	1	-1E+10	1	-1E+10	1	-1E+10	1	-1E+10	1	-1E+10	1
4901784	105	C	05/20/2018	10:40	-132.315	43.157	0	1230.40	0	3.0990	0	34.5940	8	27.560	0	1217.020	0	20.8	4	6.4	4	-1E+10	1	-1E+10	1	-1E+10	1	-1E+10	1	-1E+10	1	-1E+10	1
4901784	105	C	05/20/2018	10:40	-132.315	43.157	0	1235.40	0	3.0830	0	34.5980	8	27.565	0	1221.951	0	21.0	4	6.5	4	-1E+10	1	-1E+10	1	-1E+10	1	-1E+10	1	-1E+10	1	-1E+10	1
4901784	105	C	05/20/2018	10:40	-132.315	43.157	0	1240.20	0	3.0830	0	34.5970	8	27.564	0	1226.685	0	21.0	4	6.5	4	-1E+10	1	-1E+10	1	-1E+10	1	-1E+10	1	-1E+10	1	-1E+10	1
4901784	105	C	05/20/2018	10:40	-132.315	43.157	0	1245.00	0	3.0690	0	34.5980	8	27.566	0	1231.419	0	21.1	4	6.5	4	-1E+10	1	-1E+10	1	-1E+10	1	-1E+10	1	-1E+10	1	-1E+10	1
4901784	105	C	05/20/2018	10:40	-132.315	43.157	0	1249.90	0	3.0490	0	34.5990	8	27.569	0	1236.251	0	21.4	4	6.6	4	-1E+10	1	-1E+10	1	-1E+10	1	-1E+10	1	-1E+10	1	-1E+10	1
4901784	105	C	05/20/2018	10:40	-132.315	43.157	0	1254.70	0	3.0400	0	34.6010	8	27.571	0	1240.984	0	21.6	4	6.7	4	-1E+10	1	-1E+10	1	-1E+10	1	-1E+10	1	-1E+10	1	-1E+10	1
4901784	105	C	05/20/2018	10:40	-132.315	43.157	0	1259.70	0	3.0380	0	34.6030	8	27.573	0	1245.915	0	21.8	4	6.7	4	-1E+10	1	-1E+10	1	-1E+10	1	-1E+10	1	-1E+10	1	-1E+10	1
4901784	105	C	05/20/2018	10:40	-132.315	43.157	0	1264.60	0	3.0330	0	34.6030	8	27.573	0	1250.747	0	21.9	4	6.8	4	-1E+10	1	-1E+10	1	-1E+10	1	-1E+10	1	-1E+10	1	-1E+10	1
4901784	105	C	05/20/2018	10:40	-132.315	43.157	0	1269.60	0	3.0310	0	34.6030	8	27.574	0	1255.677	0	22.1	4	6.8	4	-1E+10	1	-1E+10	1	-1E+10	1	-1E+10	1	-1E+10	1	-1E+10	1
4901784	105	C	05/20/2018	10:40	-132.315	43.157	0	1274.60	0	3.0230	0	34.6060	8	27.577	0	1260.607	0	22.3	4	6.9	4	-1E+10	1	-1E+10	1	-1E+10	1	-1E+10	1	-1E+10	1	-1E+10	1
4901784	105	C	05/20/2018	10:40	-132.315	43.157	0	1279.60	0	3.0180	0	34.6070	8	27.578	0	1265.537	0	22.5	4	7.0	4	-1E+10	1	-1E+10	1	-1E+10	1	-1E+10	1	-1E+10	1	-1E+10	1
4901784	105	C	05/20/2018	10:40	-132.315	43.157	0	1284.60	0	3.0130	0	34.6080	8	27.579	0	1270.467	0	22.6	4	7.0	4	-1E+10	1	-1E+10	1	-1E+10	1	-1E+10	1	-1E+10	1	-1E+10	1
4901784	105	C	05/20/2018	10:40	-132.315	43.157	0	1289.70	0	3.0070	0	34.6080	8	27.580	0	1275.496	0	22.5	4	7.0	4	-1E+10	1	-1E+10	1	-1E+10	1	-1E+10	1	-1E+10	1	-1E+10	1
4901784	105	C	05/20/2018	10:40	-132.315	43.157	0	1294.70	0	2.9930	0	34.6080	8	27.581	0	1280.425	0	22.4	4	6.9	4	-1E+10	1	-1E+10	1	-1E+10	1	-1E+10	1	-1E+10	1	-1E+10	1
4901784	105	C	05/20/2018	10:40	-132.315	43.157	0	1299.80	0	2.9780	0	34.6080	8	27.583	0	1285.454	0	22.3	4	6.9	4	-1E+10	1	-1E+10	1	-1E+10	1	-1E+10	1	-1E+10	1	-1E+10	1
4901784	105	C	05/20/2018	10:40	-132.315	43.157	0	1305.00	0	2.9560	0	34.6070	8	27.584	0	1290.580	0	22.4	4	6.9	4	-1E+10	1	-1E+10	1	-1E+10	1	-1E+10	1	-1E+10	1	-1E+10	1
4901784	105	C	05/20/2018	10:40	-132.315	43.157	0	1310.10	0	2.9480	0	34.6090	8	27.586	0	1295.608	0	22.8	4	7.0	4	-1E+10	1	-1E+10	1	-1E+10	1	-1E+10	1	-1E+10	1	-1E+10	1
4901784	105	C	05/20/2018	10:40	-132.315	43.157	0	1315.30	0	2.9420	0	34.6110	8	27.588	0	1300.735	0	23.1	4	7.1	4	-1E+10	1	-1E+10	1	-1E+10	1	-1E+10	1	-1E+10	1	-1E+10	1
4901784	105	C	05/20/2018	10:40	-132.315	43.157	0	1320.50	0	2.9410	0	34.6130	8	27.590	0	1305.861	0	23.3	4	7.2	4	-1E+10	1	-1E+10	1	-1E+10	1	-1E+10	1	-1E+10	1	-1E+10	1
4901784	105	C	05/20/2018	10:40	-132.315	43.157	0	1325.70	0	2.9270	0	34.6130	8	27.591	0	1310.987	0	23.3	4	7.2	4	-1E+10	1	-1E+10	1	-1E+10	1	-1E+10	1	-1E+10	1	-1E+10	1
4901784	105	C	05/20/2018	10:40	-132.315	43.157	0	1330.10	0	2.9130	0	34.6140	8	27.593	0	1315.325	0	23.3	4	7.2	4	-1E+10	1	-1E+10	1	-1E+10	1	-1E+10	1	-1E+10	1	-1E+10	1
4901784	105	C	05/20/2018	10:40	-132.315	43.157	0	1334.60	0	2.9090	0	34.6130	8	27.593	0	1319.760	0	23.4	4	7.2	4	-1E+10	1	-1E+10	1	-1E+10	1	-1E+10	1	-1E+10	1	-1E+10	1
4901784	105	C	05/20/2018	10:40	-132.315	43.157	0	1339.90	0	2.9010	0	34.6140	8	27.594	0	1324.985	0	23.5	4	7.2	4	-1E+10	1	-1E+10	1	-1E+10	1	-1E+10	1	-1E+10	1	-1E+10	1
4901784	105	C	05/20/2018	10:40	-132.315	43.157	0	1345.30	0	2.8990	0	34.6150	8	27.595	0	1330.308	0	23.7	4	7.3	4	-1E+10	1	-1E+10	1	-1E+10	1	-1E+10	1	-1E+10	1	-1E+10	1
4901784	105	C	05/20/2018	10:40	-132.315	43.157	0	1350.70	0	2.8880	0	34.6160	8	27.597	0	1335.630	0	23.7	4	7.3	4	-1E+10	1	-1E+10	1	-1E+10	1	-1E+10	1	-1E+10	1	-1E+10	1
4901784	105	C	05/20/2018	10:40	-132.315	43.157	0	1355.10	0	2.8780	0	34.6170	8	27.599	0	1339.967	0	23.8	4	7.3	4	-1E+10	1	-1E+10	1	-1E+10	1	-1E+10	1	-1E+10	1	-1E+10	1
4901784	105	C	05/20/2018	10:40	-132.315	43.157	0	1359.60	0	2.8690	0	34.6170	8	27.600	0	1344.403	0	23.9	4	7.4	4	-1E+10	1	-1E+10	1	-1E+10	1	-1E+10	1	-1E+10	1	-1E+10	1
4901784	105	C	05/20/2018	10:40	-132.315	43.157	0	1365.00	0	2.8480	0	34.6180	8	27.603	0	1349.725	0	24.0	4	7.4	4	-1E+10	1	-1E+10	1	-1E+10	1	-1E+10	1	-1E+10	1	-1E+10	1
4901784	105	C	05/20/2018	10:40	-132.315	43.157	0	1370.40	0	2.8340	0	34.6190	8	27.605	0	1355.047	0	24.2	4	7.5	4	-1E+10	1	-1E+10	1	-1E+10	1	-1E+10	1	-1E+10	1	-1E+10	1
4901784	105	C	05/20/2018	10:40	-132.315	43.157	0	1374.90	0	2.8240	0	34.6180	8	27.605	0	1359.483	0	24.3	4	7.5	4	-1E+10	1	-1E+10	1	-1E+10	1	-1E+10	1	-1E+10	1	-1E+10	1
4901784	105	C	05/20/2018	10:40	-132.315	43.157	0	1379.50	0	2.8210	0	34.6200	8	27.607	0	1364.016	0	24.5	4	7.5	4	-1E+10	1	-1E+10	1	-1E+10	1	-1E+10	1	-1E+10	1	-1E+10	1
4901784	105	C	05/20/2018	10:40	-132.315	43.157	0	1385.10	0	2.8180	0	34.6200	8	27.607	0	1369.535	0	24.6	4	7.6	4	-1E+10	1	-1E+10	1	-1E+10	1	-1E+10	1	-1E+10	1	-1E+10	1
4901784	105	C	05/20/2018	10:40	-132.315	43.157	0	1390.60	0	2.8120	0	34.6220	8	27.609	0	1374.955	0	24.6	4	7.6	4	-1E+10	1	-1E+10	1	-1E+10	1	-1E+10	1	-1E+10	1	-1E+10	1
4901784	105	C	05/20/2018	10:40	-132.315	43.157	0	1395.20	0	2.8070	0	34.6220	8	27.610	0	1379.488	0	24.6	4	7.6	4	-1E+10	1	-1E+10	1	-1E+10	1	-1E+10	1	-1E+10	1	-1E+10	1
4901784	105	C	05/20/2018	10:40	-132.315	43.157	0	1399.90	0	2.8010	0	34.6210	8	27.609	0	1384.120	0	24.7	4	7.6	4	-1E+10	1	-1E+10	1	-1E+10	1	-1E+10	1	-1E+10	1	-1E+10	1
4901784	105	C	05/20/2018	10:40	-132.315	43.157	0	1405.50	0	2.7980	0	34.6220	8	27.610	0	1389.639	0	24.7	4	7.6	4	-1E+10	1	-1E+10	1	-1E+10	1	-1E+10	1	-1E+10	1	-1E+10	1
4901784	105	C	05/20/2018	10:40	-132.315	43.157	0	1410.30	0	2.7920	0	34.6220	8	27.611	0	1394.369	0	24.6	4	7.6	4	-1E+10	1	-1E+10	1	-1E+10	1	-1E+10	1	-1E+10	1	-1E+10	1
4901784	105	C	05/20/2018	10:40	-132.315	43.157	0	1414.80	0	2.7840	0	34.6220	8	27.612	0	1398.803	0	24.5	4	7.5	4	-1E+10	1	-1E+10	1	-1E+10	1	-1E+10	1	-1E+10	1	-1E+10	1
4901784	105	C	05/20/2018	10:40	-132.315	43.157	0	1419.70	0	2.7780	0	34.6210	8	27.611	0	1403.631	0	24.4	4	7.5	4	-1E+10	1	-1E+10	1	-1E+10	1	-1E+10	1	-1E+10	1	-1E+10	1
4901784	105	C	05/20/2018	10:40	-132.315	43.157	0	1424.60	0	2.7630	0	34.6210	8	27.613	0	1408.459	0	24.4	4	7.5	4	-1E+10	1	-1E+10	1	-1E+10	1	-1E+10	1	-1E+10	1	-1E+10	1
4901784	105	C	05/20/2018	10:40	-132.315	43.157	0	1429.50	0	2.7480	0	34.6210	8	27.614	0	1413.287	0	24.4	4	7.5	4	-1E+10	1	-1E+10	1	-1E+10	1	-1E+10	1	-1E+10	1	-1E+10	1
4901784	105	C	05/20/2018	10:40	-132.315	43.157	0	1434.50	0	2.7310	0	34.6210	8	27.616	0	1418.214	0	24.4	4	7.5	4	-1E+10	1	-1E+10	1	-1E+10	1	-1E+10	1	-1E+10	1	-1E+10	1
4901784	105	C	05/20/2018	10:40	-132.315	43.157	0	1439.50	0	2.7100	0	34.6210	8	27.617	0	1423.140	0	24.5	4	7.5	4	-1E+10	1	-1E+10	1	-1E+10	1	-1E+10	1	-1E+10	1	-1E+10	1
4901784	105	C	05/20/2018	10:40	-132.315	43.157	0	1444.50	0	2.6930	0	34.6220	8	27.620	0	1428.067	0	24.7	4	7.6	4	-1E+10	1	-1E+10	1	-1E+10	1	-1E+10	1	-1E+10	1	-1E+10	1
4901784	105	C	05/20/2018	10:40	-132.315	43.157	0	1449.50	0	2.6900	0	34.6220	8	27.620	0	1432.993	0	24.8	4	7.6	4	-1E+10	1	-1E+10	1	-1E+10	1	-1E+10	1	-1E+10	1	-1E+10	1
4901784	105	C	05/20/2018	10:40	-132.315	43.157	0	1454.60	0	2.6800	0	34.6230	8	27.622	0	1438.017	0	25.1	4	7.7	4	-1E+10	1	-1E+10	1	-1E+10	1	-1E+10	1	-1E+10	1	-1E+10	1
4901784	105	C	05/20/2018	10:40	-132.315	43.157	0	1459.60	0	2.6580	0	34.6240	8	27.624	0	1442.943	0	25.3	4	7.8	4	-1E+10	1	-1E+10	1	-1E+10	1	-1E+10	1	-1E+10	1	-1E+10	1
4901784	105	C	05/20/2018	10:40	-132.315	43.157	0	1464.70	0	2.6420	0	34.6250	8	27.627	0	1447.968	0	25.6	4	7.8	4	-1E+10	1	-1E+10	1	-1E+10	1	-1E+10	1	-1E+10	1	-1E+10	1
4901784	105	C	05/20/2018	10:40	-132.315	43.157	0	1469.70	0	2.6220	0	34.6270	8	27.630	0	1452.893	0	25.9	4	7.9	4	-1E+10	1	-1E+10	1	-1E+10	1	-1E+10	1	-1E+10	1	-1E+10	1
4901784	105	C	05/20/2018	10:40	-132.315	43.157	0	1474.80	0	2.6120	0	34.6290	8	27.632	0	1457.917	0	26.1	4	8.0	4	-1E+10	1	-1E+10	1	-1E+10	1	-1E+10	1	-1E+10	1	-1E+10	1
4901784	105	C	05/20/2018	10:40	-132.315	43.157	0	1479.90	0	2.6110	0	34.6280	8	27.632	0	1462.941	0	26.2	4	8.0	4	-1E+10	1	-1E+10	1	-1E+10	1	-1E+10	1	-1E+10	1	-1E+10	1
4901784	105	C	05/20/2018	10:40	-132.315	43.157	0	1485.00	0	2.6020	0	34.6290	8	27.633	0	1467.965	0	26.6	4	8.1	4	-1E+10	1	-1E+10	1	-1E+10	1	-1E+10	1	-1E+10	1	-1E+10	1
4901784	105	C	05/20/2018	10:40	-132.315	43.157	0	1490.20	0	2.5900	0	34.6310	8	27.636	0	1473.087	0	26.8	4	8.2	4	-1E+10	1	-1E+10	1	-1E+10	1	-1E+10	1	-1E+10	1	-1E+10	1
4901784	105	C	05/20/2018	10:40	-132.315	43.157	0	1495.30	0	2.5810	0	34.6320	8	27.638	0	1478.111	0	27.0	4	8.3	4	-1E+10	1	-1E+10	1	-1E+10	1	-1E+10	1	-1E+10	1	-1E+10	1
4901784	105	C	05/20/2018	10:40	-132.315	43.157	0	1500.40	0	2.5760	0	34.6310	8	27.637	0	1483.135	0	27.3	4	8.4	4	-1E+10	1	-1E+10	1	-1E+10	1	-1E+10	1	-1E+10	1	-1E+10	1
4901784	105	C	05/20/2018	10:40	-132.315	43.157	0	1505.50	0	2.5570	0	34.6330	8	27.640	0	1488.158	0	27.6	4	8.5	4	-1E+10	1	-1E+10	1	-1E+10	1	-1E+10	1	-1E+10	1	-1E+10	1
4901784	105	C	05/20/2018	10:40	-132.315	43.157	0	1510.60	0	2.5450	0	34.6340	8	27.642	0	1493.181	0	27.8	4	8.5	4	-1E+10	1	-1E+10	1	-1E+10	1	-1E+10	1	-1E+10	1	-1E+10	1
4901784	105	C	05/20/2018	10:40	-132.315	43.157	0	1515.00	0	2.5370	0	34.6350	8	27.644	0	1497.515	0	28.1	4	8.6	4	-1E+10	1	-1E+10	1	-1E+10	1	-1E+10	1	-1E+10	1	-1E+10	1
4901784	105	C	05/20/2018	10:40	-132.315	43.157	0	1519.40	0	2.5280	0	34.6360	8	27.645	0	1501.849	0	28.4	4	8.7	4	-1E+10	1	-1E+10	1	-1E+10	1	-1E+10	1	-1E+10	1	-1E+10	1
4901784	105	C	05/20/2018	10:40	-132.315	43.157	0	1524.60	0	2.5130	0	34.6380	8	27.648	0	1506.970	0	28.7	4	8.8	4	-1E+10	1	-1E+10	1	-1E+10	1	-1E+10	1	-1E+10	1	-1E+10	1
4901784	105	C	05/20/2018	10:40	-132.315	43.157	0	1529.90	0	2.5060	0	34.6380	8	27.649	0	1512.190	0	29.0	4	8.9	4	-1E+10	1	-1E+10	1	-1E+10	1	-1E+10	1	-1E+10	1	-1E+10	1
4901784	105	C	05/20/2018	10:40	-132.315	43.157	0	1535.30	0	2.4910	0	34.6390	8	27.651	0	1517.508	0	29.3	4	9.0	4	-1E+10	1	-1E+10	1	-1E+10	1	-1E+10	1	-1E+10	1	-1E+10	1
4901784	105	C	05/20/2018	10:40	-132.315	43.157	0	1540.70	0	2.4860	0	34.6400	8	27.652	0	1522.826	0	29.5	4	9.0	4	-1E+10	1	-1E+10	1	-1E+10	1	-1E+10	1	-1E+10	1	-1E+10	1
4901784	105	C	05/20/2018	10:40	-132.315	43.157	0	1545.20	0	2.4800	0	34.6410	8	27.654	0	1527.257	0	29.9	4	9.1	4	-1E+10	1	-1E+10	1	-1E+10	1	-1E+10	1	-1E+10	1	-1E+10	1
4901784	105	C	05/20/2018	10:40	-132.315	43.157	0	1549.60	0	2.4680	0	34.6420	8	27.655	0	1531.590	0	30.2	4	9.2	4	-1E+10	1	-1E+10	1	-1E+10	1	-1E+10	1	-1E+10	1	-1E+10	1
4901784	105	C	05/20/2018	10:40	-132.315	43.157	0	1555.10	0	2.4590	0	34.6430	8	27.657	0	1537.006	0	30.5	4	9.3	4	-1E+10	1	-1E+10	1	-1E+10	1	-1E+10	1	-1E+10	1	-1E+10	1
4901784	105	C	05/20/2018	10:40	-132.315	43.157	0	1560.50	0	2.4520	0	34.6440	8	27.658	0	1542.324	0	30.7	4	9.4	4	-1E+10	1	-1E+10	1	-1E+10	1	-1E+10	1	-1E+10	1	-1E+10	1
4901784	105	C	05/20/2018	10:40	-132.315	43.157	0	1565.00	0	2.4470	0	34.6450	8	27.660	0	1546.755	0	31.0	4	9.5	4	-1E+10	1	-1E+10	1	-1E+10	1	-1E+10	1	-1E+10	1	-1E+10	1
4901784	105	C	05/20/2018	10:40	-132.315	43.157	0	1569.60	0	2.4390	0	34.6450	8	27.660	0	1551.285	0	31.3	4	9.6	4	-1E+10	1	-1E+10	1	-1E+10	1	-1E+10	1	-1E+10	1	-1E+10	1
4901784	105	C	05/20/2018	10:40	-132.315	43.157	0	1575.10	0	2.4300	0	34.6460	8	27.662	0	1556.700	0	31.7	4	9.7	4	-1E+10	1	-1E+10	1	-1E+10	1	-1E+10	1	-1E+10	1	-1E+10	1
4901784	105	C	05/20/2018	10:40	-132.315	43.157	0	1579.70	0	2.4210	0	34.6480	8	27.664	0	1561.229	0	32.1	4	9.8	4	-1E+10	1	-1E+10	1	-1E+10	1	-1E+10	1	-1E+10	1	-1E+10	1
4901784	105	C	05/20/2018	10:40	-132.315	43.157	0	1585.00	0	2.4100	0	34.6490	8	27.666	0	1566.448	0	32.4	4	9.9	4	-1E+10	1	-1E+10	1	-1E+10	1	-1E+10	1	-1E+10	1	-1E+10	1
4901784	105	C	05/20/2018	10:40	-132.315	43.157	0	1590.20	0	2.4010	0	34.6510	8	27.668	0	1571.568	0	32.7	4	10.0	4	-1E+10	1	-1E+10	1	-1E+10	1	-1E+10	1	-1E+10	1	-1E+10	1
4901784	105	C	05/20/2018	10:40	-132.315	43.157	0	1595.10	0	2.3950	0	34.6510	8	27.669	0	1576.392	0	33.1	4	10.1	4	-1E+10	1	-1E+10	1	-1E+10	1	-1E+10	1	-1E+10	1	-1E+10	1
4901784	105	C	05/20/2018	10:40	-132.315	43.157	0	1600.10	0	2.3850	0	34.6520	8	27.671	0	1581.315	0	33.4	4	10.2	4	-1E+10	1	-1E+10	1	-1E+10	1	-1E+10	1	-1E+10	1	-1E+10	1
4901784	105	C	05/20/2018	10:40	-132.315	43.157	0	1605.10	0	2.3820	0	34.6530	8	27.672	0	1586.237	0	33.5	4	10.2	4	-1E+10	1	-1E+10	1	-1E+10	1	-1E+10	1	-1E+10	1	-1E+10	1
4901784	105	C	05/20/2018	10:40	-132.315	43.157	0	1610.10	0	2.3800	0	34.6530	8	27.672	0	1591.160	0	33.8	4	10.3	4	-1E+10	1	-1E+10	1	-1E+10	1	-1E+10	1	-1E+10	1	-1E+10	1
4901784	105	C	05/20/2018	10:40	-132.315	43.157	0	1615.20	0	2.3710	0	34.6540	8	27.673	0	1596.181	0	34.3	4	10.4	4	-1E+10	1	-1E+10	1	-1E+10	1	-1E+10	1	-1E+10	1	-1E+10	1
4901784	105	C	05/20/2018	10:40	-132.315	43.157	0	1620.30	0	2.3630	0	34.6560	8	27.676	0	1601.201	0	34.7	4	10.6	4	-1E+10	1	-1E+10	1	-1E+10	1	-1E+10	1	-1E+10	1	-1E+10	1
4901784	105	C	05/20/2018	10:40	-132.315	43.157	0	1625.50	0	2.3550	0	34.6570	8	27.677	0	1606.320	0	35.1	4	10.7	4	-1E+10	1	-1E+10	1	-1E+10	1	-1E+10	1	-1E+10	1	-1E+10	1
4901784	105	C	05/20/2018	10:40	-132.315	43.157	0	1630.80	0	2.3470	0	34.6580	8	27.679	0	1611.538	0	35.6	4	10.8	4	-1E+10	1	-1E+10	1	-1E+10	1	-1E+10	1	-1E+10	1	-1E+10	1
4901784	105	C	05/20/2018	10:40	-132.315	43.157	0	1635.10	0	2.3340	0	34.6590	8	27.681	0	1615.770	0	36.0	4	10.9	4	-1E+10	1	-1E+10	1	-1E+10	1	-1E+10	1	-1E+10	1	-1E+10	1
4901784	105	C	05/20/2018	10:40	-132.315	43.157	0	1639.50	0	2.3230	0	34.6610	8	27.683	0	1620.102	0	36.4	4	11.1	4	-1E+10	1	-1E+10	1	-1E+10	1	-1E+10	1	-1E+10	1	-1E+10	1
4901784	105	C	05/20/2018	10:40	-132.315	43.157	0	1644.70	0	2.3120	0	34.6620	8	27.685	0	1625.220	0	36.8	4	11.2	4	-1E+10	1	-1E+10	1	-1E+10	1	-1E+10	1	-1E+10	1	-1E+10	1
4901784	105	C	05/20/2018	10:40	-132.315	43.157	0	1650.00	0	2.3000	0	34.6620	8	27.686	0	1630.437	0	37.4	4	11.4	4	-1E+10	1	-1E+10	1	-1E+10	1	-1E+10	1	-1E+10	1	-1E+10	1
4901784	105	C	05/20/2018	10:40	-132.315	43.157	0	1655.20	0	2.2890	0	34.6640	8	27.688	0	1635.555	0	37.9	4	11.5	4	-1E+10	1	-1E+10	1	-1E+10	1	-1E+10	1	-1E+10	1	-1E+10	1
4901784	105	C	05/20/2018	10:40	-132.315	43.157	0	1660.50	0	2.2780	0	34.6660	8	27.691	0	1640.772	0	38.5	4	11.7	4	-1E+10	1	-1E+10	1	-1E+10	1	-1E+10	1	-1E+10	1	-1E+10	1
4901784	105	C	05/20/2018	10:40	-132.315	43.157	0	1665.00	0	2.2650	0	34.6670	8	27.693	0	1645.201	0	39.0	4	11.8	4	-1E+10	1	-1E+10	1	-1E+10	1	-1E+10	1	-1E+10	1	-1E+10	1
4901784	105	C	05/20/2018	10:40	-132.315	43.157	0	1669.50	0	2.2570	0	34.6680	8	27.694	0	1649.630	0	39.4	4	12.0	4	-1E+10	1	-1E+10	1	-1E+10	1	-1E+10	1	-1E+10	1	-1E+10	1
4901784	105	C	05/20/2018	10:40	-132.315	43.157	0	1674.90	0	2.2460	0	34.6690	8	27.696	0	1654.945	0	40.0	4	12.1	4	-1E+10	1	-1E+10	1	-1E+10	1	-1E+10	1	-1E+10	1	-1E+10	1
4901784	105	C	05/20/2018	10:40	-132.315	43.157	0	1680.30	0	2.2300	0	34.6710	8	27.699	0	1660.259	0	40.5	4	12.3	4	-1E+10	1	-1E+10	1	-1E+10	1	-1E+10	1	-1E+10	1	-1E+10	1
4901784	105	C	05/20/2018	10:40	-132.315	43.157	0	1684.90	0	2.2250	0	34.6720	8	27.700	0	1664.786	0	40.8	4	12.4	4	-1E+10	1	-1E+10	1	-1E+10	1	-1E+10	1	-1E+10	1	-1E+10	1
4901784	105	C	05/20/2018	10:40	-132.315	43.157	0	1689.40	0	2.2180	0	34.6730	8	27.701	0	1669.215	0	41.0	4	12.4	4	-1E+10	1	-1E+10	1	-1E+10	1	-1E+10	1	-1E+10	1	-1E+10	1
4901784	105	C	05/20/2018	10:40	-132.315	43.157	0	1694.90	0	2.2150	0	34.6730	8	27.702	0	1674.627	0	41.3	4	12.5	4	-1E+10	1	-1E+10	1	-1E+10	1	-1E+10	1	-1E+10	1	-1E+10	1
4901784	105	C	05/20/2018	10:40	-132.315	43.157	0	1700.40	0	2.2080	0	34.6740	8	27.703	0	1680.040	0	41.8	4	12.7	4	-1E+10	1	-1E+10	1	-1E+10	1	-1E+10	1	-1E+10	1	-1E+10	1
4901784	105	C	05/20/2018	10:40	-132.315	43.157	0	1705.10	0	2.1980	0	34.6760	8	27.706	0	1684.665	0	42.1	4	12.8	4	-1E+10	1	-1E+10	1	-1E+10	1	-1E+10	1	-1E+10	1	-1E+10	1
4901784	105	C	05/20/2018	10:40	-132.315	43.157	0	1709.70	0	2.1940	0	34.6770	8	27.707	0	1689.191	0	42.3	4	12.8	4	-1E+10	1	-1E+10	1	-1E+10	1	-1E+10	1	-1E+10	1	-1E+10	1
4901784	105	C	05/20/2018	10:40	-132.315	43.157	0	1715.20	0	2.1900	0	34.6770	8	27.707	0	1694.603	0	42.5	4	12.9	4	-1E+10	1	-1E+10	1	-1E+10	1	-1E+10	1	-1E+10	1	-1E+10	1
4901784	105	C	05/20/2018	10:40	-132.315	43.157	0	1720.60	0	2.1870	0	34.6770	8	27.707	0	1699.917	0	42.7	4	13.0	4	-1E+10	1	-1E+10	1	-1E+10	1	-1E+10	1	-1E+10	1	-1E+10	1
4901784	105	C	05/20/2018	10:40	-132.315	43.157	0	1725.40	0	2.1840	0	34.6770	8	27.708	0	1704.640	0	43.0	4	13.0	4	-1E+10	1	-1E+10	1	-1E+10	1	-1E+10	1	-1E+10	1	-1E+10	1
4901784	105	C	05/20/2018	10:40	-132.315	43.157	0	1730.30	0	2.1780	0	34.6780	8	27.709	0	1709.461	0	43.4	4	13.1	4	-1E+10	1	-1E+10	1	-1E+10	1	-1E+10	1	-1E+10	1	-1E+10	1
4901784	105	C	05/20/2018	10:40	-132.315	43.157	0	1735.20	0	2.1700	0	34.6790	8	27.710	0	1714.283	0	43.7	4	13.3	4	-1E+10	1	-1E+10	1	-1E+10	1	-1E+10	1	-1E+10	1	-1E+10	1
4901784	105	C	05/20/2018	10:40	-132.315	43.157	0	1740.20	0	2.1640	0	34.6800	8	27.712	0	1719.202	0	44.2	4	13.4	4	-1E+10	1	-1E+10	1	-1E+10	1	-1E+10	1	-1E+10	1	-1E+10	1
4901784	105	C	05/20/2018	10:40	-132.315	43.157	0	1745.20	0	2.1520	0	34.6810	8	27.713	0	1724.121	0	44.7	4	13.6	4	-1E+10	1	-1E+10	1	-1E+10	1	-1E+10	1	-1E+10	1	-1E+10	1
4901784	105	C	05/20/2018	10:40	-132.315	43.157	0	1750.10	0	2.1400	0	34.6830	8	27.716	0	1728.942	0	45.3	4	13.7	4	-1E+10	1	-1E+10	1	-1E+10	1	-1E+10	1	-1E+10	1	-1E+10	1
4901784	105	C	05/20/2018	10:40	-132.315	43.157	0	1755.10	0	2.1320	0	34.6840	8	27.717	0	1733.861	0	45.7	4	13.8	4	-1E+10	1	-1E+10	1	-1E+10	1	-1E+10	1	-1E+10	1	-1E+10	1
4901784	105	C	05/20/2018	10:40	-132.315	43.157	0	1760.10	0	2.1270	0	34.6850	8	27.719	0	1738.780	0	46.1	4	14.0	4	-1E+10	1	-1E+10	1	-1E+10	1	-1E+10	1	-1E+10	1	-1E+10	1
4901784	105	C	05/20/2018	10:40	-132.315	43.157	0	1765.10	0	2.1180	0	34.6860	8	27.720	0	1743.699	0	46.6	4	14.1	4	-1E+10	1	-1E+10	1	-1E+10	1	-1E+10	1	-1E+10	1	-1E+10	1
4901784	105	C	05/20/2018	10:40	-132.315	43.157	0	1770.20	0	2.1110	0	34.6870	8	27.722	0	1748.717	0	47.0	4	14.2	4	-1E+10	1	-1E+10	1	-1E+10	1	-1E+10	1	-1E+10	1	-1E+10	1
4901784	105	C	05/20/2018	10:40	-132.315	43.157	0	1775.30	0	2.1090	0	34.6870	8	27.722	0	1753.734	0	47.3	4	14.3	4	-1E+10	1	-1E+10	1	-1E+10	1	-1E+10	1	-1E+10	1	-1E+10	1
4901784	105	C	05/20/2018	10:40	-132.315	43.157	0	1780.40	0	2.1000	0	34.6880	8	27.723	0	1758.751	0	47.9	4	14.5	4	-1E+10	1	-1E+10	1	-1E+10	1	-1E+10	1	-1E+10	1	-1E+10	1
4901784	105	C	05/20/2018	10:40	-132.315	43.157	0	1785.50	0	2.0870	0	34.6910	8	27.727	0	1763.767	0	48.3	4	14.6	4	-1E+10	1	-1E+10	1	-1E+10	1	-1E+10	1	-1E+10	1	-1E+10	1
4901784	105	C	05/20/2018	10:40	-132.315	43.157	0	1790.70	0	2.0830	0	34.6920	8	27.728	0	1768.882	0	48.6	4	14.7	4	-1E+10	1	-1E+10	1	-1E+10	1	-1E+10	1	-1E+10	1	-1E+10	1
4901784	105	C	05/20/2018	10:40	-132.315	43.157	0	1795.00	0	2.0790	0	34.6920	8	27.728	0	1773.112	0	48.8	4	14.8	4	-1E+10	1	-1E+10	1	-1E+10	1	-1E+10	1	-1E+10	1	-1E+10	1
4901784	105	C	05/20/2018	10:40	-132.315	43.157	0	1799.40	0	2.0760	0	34.6930	8	27.729	0	1777.440	0	49.0	4	14.8	4	-1E+10	1	-1E+10	1	-1E+10	1	-1E+10	1	-1E+10	1	-1E+10	1
4901784	105	C	05/20/2018	10:40	-132.315	43.157	0	1804.60	0	2.0720	0	34.6920	8	27.729	0	1782.555	0	49.4	4	14.9	4	-1E+10	1	-1E+10	1	-1E+10	1	-1E+10	1	-1E+10	1	-1E+10	1
4901784	105	C	05/20/2018	10:40	-132.315	43.157	0	1809.90	0	2.0620	0	34.6940	8	27.731	0	1787.768	0	49.8	4	15.1	4	-1E+10	1	-1E+10	1	-1E+10	1	-1E+10	1	-1E+10	1	-1E+10	1
4901784	105	C	05/20/2018	10:40	-132.315	43.157	0	1815.10	0	2.0570	0	34.6950	8	27.733	0	1792.882	0	50.2	4	15.2	4	-1E+10	1	-1E+10	1	-1E+10	1	-1E+10	1	-1E+10	1	-1E+10	1
4901784	105	C	05/20/2018	10:40	-132.315	43.157	0	1820.50	0	2.0480	0	34.6960	8	27.734	0	1798.193	0	50.6	4	15.3	4	-1E+10	1	-1E+10	1	-1E+10	1	-1E+10	1	-1E+10	1	-1E+10	1
4901784	105	C	05/20/2018	10:40	-132.315	43.157	0	1824.90	0	2.0440	0	34.6960	8	27.734	0	1802.521	0	50.8	4	15.4	4	-1E+10	1	-1E+10	1	-1E+10	1	-1E+10	1	-1E+10	1	-1E+10	1
4901784	105	C	05/20/2018	10:40	-132.315	43.157	0	1829.30	0	2.0380	0	34.6970	8	27.736	0	1806.848	0	51.1	4	15.4	4	-1E+10	1	-1E+10	1	-1E+10	1	-1E+10	1	-1E+10	1	-1E+10	1
4901784	105	C	05/20/2018	10:40	-132.315	43.157	0	1834.70	0	2.0360	0	34.6970	8	27.736	0	1812.159	0	51.3	4	15.5	4	-1E+10	1	-1E+10	1	-1E+10	1	-1E+10	1	-1E+10	1	-1E+10	1
4901784	105	C	05/20/2018	10:40	-132.315	43.157	0	1840.10	0	2.0330	0	34.6980	8	27.737	0	1817.469	0	51.6	4	15.6	4	-1E+10	1	-1E+10	1	-1E+10	1	-1E+10	1	-1E+10	1	-1E+10	1
4901784	105	C	05/20/2018	10:40	-132.315	43.157	0	1845.60	0	2.0280	0	34.6980	8	27.737	0	1822.878	0	51.9	4	15.7	4	-1E+10	1	-1E+10	1	-1E+10	1	-1E+10	1	-1E+10	1	-1E+10	1
4901784	105	C	05/20/2018	10:40	-132.315	43.157	0	1850.20	0	2.0240	0	34.7000	8	27.739	0	1827.402	0	52.1	4	15.7	4	-1E+10	1	-1E+10	1	-1E+10	1	-1E+10	1	-1E+10	1	-1E+10	1
4901784	105	C	05/20/2018	10:40	-132.315	43.157	0	1854.80	0	2.0230	0	34.7000	8	27.739	0	1831.925	0	52.2	4	15.8	4	-1E+10	1	-1E+10	1	-1E+10	1	-1E+10	1	-1E+10	1	-1E+10	1
4901784	105	C	05/20/2018	10:40	-132.315	43.157	0	1860.10	0	2.0190	0	34.7000	8	27.740	0	1837.137	0	52.4	4	15.8	4	-1E+10	1	-1E+10	1	-1E+10	1	-1E+10	1	-1E+10	1	-1E+10	1
4901784	105	C	05/20/2018	10:40	-132.315	43.157	0	1865.40	0	2.0140	0	34.7010	8	27.741	0	1842.349	0	52.7	4	15.9	4	-1E+10	1	-1E+10	1	-1E+10	1	-1E+10	1	-1E+10	1	-1E+10	1
4901784	105	C	05/20/2018	10:40	-132.315	43.157	0	1870.30	0	2.0100	0	34.7010	8	27.741	0	1847.167	0	52.9	4	16.0	4	-1E+10	1	-1E+10	1	-1E+10	1	-1E+10	1	-1E+10	1	-1E+10	1
4901784	105	C	05/20/2018	10:40	-132.315	43.157	0	1875.10	0	2.0090	0	34.7010	8	27.741	0	1851.887	0	53.1	4	16.0	4	-1E+10	1	-1E+10	1	-1E+10	1	-1E+10	1	-1E+10	1	-1E+10	1
4901784	105	C	05/20/2018	10:40	-132.315	43.157	0	1880.00	0	2.0050	0	34.7020	8	27.743	0	1856.705	0	53.4	4	16.1	4	-1E+10	1	-1E+10	1	-1E+10	1	-1E+10	1	-1E+10	1	-1E+10	1
4901784	105	C	05/20/2018	10:40	-132.315	43.157	0	1885.00	0	2.0000	0	34.7020	8	27.743	0	1861.621	0	53.7	4	16.2	4	-1E+10	1	-1E+10	1	-1E+10	1	-1E+10	1	-1E+10	1	-1E+10	1
4901784	105	C	05/20/2018	10:40	-132.315	43.157	0	1889.90	0	1.9960	0	34.7020	8	27.743	0	1866.439	0	54.0	4	16.3	4	-1E+10	1	-1E+10	1	-1E+10	1	-1E+10	1	-1E+10	1	-1E+10	1
4901784	105	C	05/20/2018	10:40	-132.315	43.157	0	1894.90	0	1.9920	0	34.7030	8	27.744	0	1871.354	0	54.3	4	16.4	4	-1E+10	1	-1E+10	1	-1E+10	1	-1E+10	1	-1E+10	1	-1E+10	1
4901784	105	C	05/20/2018	10:40	-132.315	43.157	0	1899.90	0	1.9890	0	34.7040	8	27.746	0	1876.270	0	54.6	4	16.5	4	-1E+10	1	-1E+10	1	-1E+10	1	-1E+10	1	-1E+10	1	-1E+10	1
4901784	105	C	05/20/2018	10:40	-132.315	43.157	0	1905.00	0	1.9850	0	34.7050	8	27.747	0	1881.284	0	54.9	4	16.6	4	-1E+10	1	-1E+10	1	-1E+10	1	-1E+10	1	-1E+10	1	-1E+10	1
4901784	105	C	05/20/2018	10:40	-132.315	43.157	0	1910.00	0	1.9800	0	34.7060	8	27.748	0	1886.200	0	55.1	4	16.6	4	-1E+10	1	-1E+10	1	-1E+10	1	-1E+10	1	-1E+10	1	-1E+10	1
4901784	105	C	05/20/2018	10:40	-132.315	43.157	0	1915.20	0	1.9780	0	34.7060	8	27.748	0	1891.312	0	55.3	4	16.7	4	-1E+10	1	-1E+10	1	-1E+10	1	-1E+10	1	-1E+10	1	-1E+10	1
4901784	105	C	05/20/2018	10:40	-132.315	43.157	0	1920.30	0	1.9760	0	34.7060	8	27.748	0	1896.326	0	55.5	4	16.7	4	-1E+10	1	-1E+10	1	-1E+10	1	-1E+10	1	-1E+10	1	-1E+10	1
4901784	105	C	05/20/2018	10:40	-132.315	43.157	0	1925.40	0	1.9730	0	34.7070	8	27.749	0	1901.339	0	55.8	4	16.8	4	-1E+10	1	-1E+10	1	-1E+10	1	-1E+10	1	-1E+10	1	-1E+10	1
4901784	105	C	05/20/2018	10:40	-132.315	43.157	0	1930.60	0	1.9700	0	34.7070	8	27.750	0	1906.451	0	56.1	4	16.9	4	-1E+10	1	-1E+10	1	-1E+10	1	-1E+10	1	-1E+10	1	-1E+10	1
4901784	105	C	05/20/2018	10:40	-132.315	43.157	0	1934.90	0	1.9660	0	34.7080	8	27.751	0	1910.678	0	56.3	4	17.0	4	-1E+10	1	-1E+10	1	-1E+10	1	-1E+10	1	-1E+10	1	-1E+10	1
4901784	105	C	05/20/2018	10:40	-132.315	43.157	0	1939.30	0	1.9630	0	34.7080	8	27.751	0	1915.003	0	56.5	4	17.0	4	-1E+10	1	-1E+10	1	-1E+10	1	-1E+10	1	-1E+10	1	-1E+10	1
4901784	105	C	05/20/2018	10:40	-132.315	43.157	0	1944.60	0	1.9610	0	34.7090	8	27.752	0	1920.213	0	56.6	4	17.1	4	-1E+10	1	-1E+10	1	-1E+10	1	-1E+10	1	-1E+10	1	-1E+10	1
4901784	105	C	05/20/2018	10:40	-132.315	43.157	0	1949.90	0	1.9600	0	34.7090	8	27.752	0	1925.422	0	56.9	4	17.1	4	-1E+10	1	-1E+10	1	-1E+10	1	-1E+10	1	-1E+10	1	-1E+10	1
4901784	105	C	05/20/2018	10:40	-132.315	43.157	0	1955.30	0	1.9560	0	34.7100	8	27.753	0	1930.730	0	57.1	4	17.2	4	-1E+10	1	-1E+10	1	-1E+10	1	-1E+10	1	-1E+10	1	-1E+10	1
4901784	105	C	05/20/2018	10:40	-132.315	43.157	0	1960.60	0	1.9540	0	34.7100	8	27.753	0	1935.939	0	57.3	4	17.3	4	-1E+10	1	-1E+10	1	-1E+10	1	-1E+10	1	-1E+10	1	-1E+10	1
4901784	105	C	05/20/2018	10:40	-132.315	43.157	0	1965.10	0	1.9520	0	34.7110	8	27.754	0	1940.362	0	57.5	4	17.3	4	-1E+10	1	-1E+10	1	-1E+10	1	-1E+10	1	-1E+10	1	-1E+10	1
4901784	105	C	05/20/2018	10:40	-132.315	43.157	0	1969.60	0	1.9500	0	34.7110	8	27.755	0	1944.785	0	57.8	4	17.4	4	-1E+10	1	-1E+10	1	-1E+10	1	-1E+10	1	-1E+10	1	-1E+10	1
4901784	105	C	05/20/2018	10:40	-132.315	43.157	0	1975.10	0	1.9460	0	34.7120	8	27.756	0	1950.191	0	58.1	4	17.5	4	-1E+10	1	-1E+10	1	-1E+10	1	-1E+10	1	-1E+10	1	-1E+10	1
4901784	105	C	05/20/2018	10:40	-132.315	43.157	0	1979.70	0	1.9430	0	34.7120	8	27.756	0	1954.712	0	58.3	4	17.6	4	-1E+10	1	-1E+10	1	-1E+10	1	-1E+10	1	-1E+10	1	-1E+10	1
4901784	105	C	05/20/2018	10:40	-132.315	43.157	0	1984.20	0	1.9400	0	34.7130	8	27.757	0	1959.134	0	58.5	4	17.6	4	-1E+10	1	-1E+10	1	-1E+10	1	-1E+10	1	-1E+10	1	-1E+10	1
4901784	105	C	05/20/2018	10:40	-132.315	43.157	0	1989.60	0	1.9370	0	34.7130	8	27.757	0	1964.441	0	58.8	4	17.7	4	-1E+10	1	-1E+10	1	-1E+10	1	-1E+10	1	-1E+10	1	-1E+10	1
4901784	105	C	05/20/2018	10:40	-132.315	43.157	0	1994.40	0	1.9340	0	34.7140	8	27.758	0	1969.158	0	59.0	4	17.8	4	-1E+10	1	-1E+10	1	-1E+10	1	-1E+10	1	-1E+10	1	-1E+10	1
4901784	105	C	05/20/2018	10:40	-132.315	43.157	0	1999.30	0	1.9330	0	34.7140	8	27.758	0	1973.974	0	59.1	4	17.8	4	-1E+10	1	-1E+10	1	-1E+10	1	-1E+10	1	-1E+10	1	-1E+10	1
4901784	105	C	05/20/2018	10:40	-132.315	43.157	0	2004.60	0	1.9310	0	34.7150	8	27.759	0	1979.182	0	59.3	4	17.9	4	-1E+10	1	-1E+10	1	-1E+10	1	-1E+10	1	-1E+10	1	-1E+10	1
4901784	105	C	05/20/2018	10:40	-132.315	43.157	0	2010.70	0	1.9280	0	34.7150	8	27.760	0	1985.176	0	59.6	4	17.9	4	-1E+10	1	-1E+10	1	-1E+10	1	-1E+10	1	-1E+10	1	-1E+10	1
4901784	105	C	05/20/2018	10:40	-132.315	43.157	0	2015.60	0	1.9260	0	34.7170	8	27.761	0	1989.991	0	58.0	8	17.5	8	-1E+10	1	-1E+10	1	-1E+10	1	-1E+10	1	-1E+10	1	-1E+10	1
4901784	105	C	05/20/2018	10:40	-132.315	43.157	0																										
4901784	106	C	05/30/2018	10:48	-132.512	43.110	0	3.10	0	12.5480	0	32.7820	8	24.764	0	3.075	0	265.9	4	100.6	4	-1E+10	1	-1E+10	1	-1E+10	1	-1E+10	1	-1E+10	1	-1E+10	1
4901784	106	C	05/30/2018	10:48	-132.512	43.110	0	4.60	0	12.5540	0	32.7820	8	24.763	0	4.563	0	265.9	4	100.6	4	-1E+10	1	-1E+10	1	-1E+10	1	-1E+10	1	-1E+10	1	-1E+10	1
4901784	106	C	05/30/2018	10:48	-132.512	43.110	0	6.20	0	12.5550	0	32.7820	8	24.762	0	6.151	0	265.9	4	100.6	4	-1E+10	1	-1E+10	1	-1E+10	1	-1E+10	1	-1E+10	1	-1E+10	1
4901784	106	C	05/30/2018	10:48	-132.512	43.110	0	7.90	0	12.5550	0	32.7820	8	24.762	0	7.837	0	265.7	4	100.5	4	-1E+10	1	-1E+10	1	-1E+10	1	-1E+10	1	-1E+10	1	-1E+10	1
4901784	106	C	05/30/2018	10:48	-132.512	43.110	0	9.50	0	12.5540	0	32.7820	8	24.763	0	9.424	0	265.7	4	100.5	4	-1E+10	1	-1E+10	1	-1E+10	1	-1E+10	1	-1E+10	1	-1E+10	1
4901784	106	C	05/30/2018	10:48	-132.512	43.110	0	11.00	0	12.5490	0	32.7820	8	24.764	0	10.912	0	265.3	4	100.3	4	-1E+10	1	-1E+10	1	-1E+10	1	-1E+10	1	-1E+10	1	-1E+10	1
4901784	106	C	05/30/2018	10:48	-132.512	43.110	0	12.60	0	12.5480	0	32.7820	8	24.764	0	12.500	0	265.6	4	100.5	4	-1E+10	1	-1E+10	1	-1E+10	1	-1E+10	1	-1E+10	1	-1E+10	1
4901784	106	C	05/30/2018	10:48	-132.512	43.110	0	14.30	0	12.5530	0	32.7810	8	24.762	0	14.186	0	265.4	4	100.4	4	-1E+10	1	-1E+10	1	-1E+10	1	-1E+10	1	-1E+10	1	-1E+10	1
4901784	106	C	05/30/2018	10:48	-132.512	43.110	0	16.00	0	12.5520	0	32.7810	8	24.762	0	15.872	0	265.3	4	100.4	4	-1E+10	1	-1E+10	1	-1E+10	1	-1E+10	1	-1E+10	1	-1E+10	1
4901784	106	C	05/30/2018	10:48	-132.512	43.110	0	17.60	0	12.5500	0	32.7810	8	24.763	0	17.459	0	265.3	4	100.3	4	-1E+10	1	-1E+10	1	-1E+10	1	-1E+10	1	-1E+10	1	-1E+10	1
4901784	106	C	05/30/2018	10:48	-132.512	43.110	0	19.40	0	12.5510	0	32.7800	8	24.762	0	19.245	0	265.2	4	100.3	4	-1E+10	1	-1E+10	1	-1E+10	1	-1E+10	1	-1E+10	1	-1E+10	1
4901784	106	C	05/30/2018	10:48	-132.512	43.110	0	19.80	0	12.5500	0	32.7800	8	24.762	0	19.642	0	265.6	4	100.4	4	-1E+10	1	-1E+10	1	-1E+10	1	-1E+10	1	-1E+10	1	-1E+10	1
4901784	106	C	05/30/2018	10:48	-132.512	43.110	0	21.20	0	12.5520	0	32.7790	8	24.761	0	21.030	0	265.3	4	100.4	4	-1E+10	1	-1E+10	1	-1E+10	1	-1E+10	1	-1E+10	1	-1E+10	1
4901784	106	C	05/30/2018	10:48	-132.512	43.110	0	22.50	0	12.5560	0	32.7780	8	24.759	0	22.320	0	265.3	4	100.4	4	-1E+10	1	-1E+10	1	-1E+10	1	-1E+10	1	-1E+10	1	-1E+10	1
4901784	106	C	05/30/2018	10:48	-132.512	43.110	0	23.90	0	12.5570	0	32.7760	8	24.758	0	23.709	0	265.5	4	100.4	4	-1E+10	1	-1E+10	1	-1E+10	1	-1E+10	1	-1E+10	1	-1E+10	1
4901784	106	C	05/30/2018	10:48	-132.512	43.110	0	25.40	0	12.5550	0	32.7720	8	24.755	0	25.197	0	265.8	4	100.5	4	-1E+10	1	-1E+10	1	-1E+10	1	-1E+10	1	-1E+10	1	-1E+10	1
4901784	106	C	05/30/2018	10:48	-132.512	43.110	0	27.00	0	12.5550	0	32.7670	8	24.751	0	26.784	0	266.4	4	100.7	4	-1E+10	1	-1E+10	1	-1E+10	1	-1E+10	1	-1E+10	1	-1E+10	1
4901784	106	C	05/30/2018	10:48	-132.512	43.110	0	28.70	0	12.5530	0	32.7590	8	24.745	0	28.470	0	266.9	4	101.0	4	-1E+10	1	-1E+10	1	-1E+10	1	-1E+10	1	-1E+10	1	-1E+10	1
4901784	106	C	05/30/2018	10:48	-132.512	43.110	0	30.30	0	12.4700	0	32.7530	8	24.757	0	30.057	0	268.3	4	101.3	4	-1E+10	1	-1E+10	1	-1E+10	1	-1E+10	1	-1E+10	1	-1E+10	1
4901784	106	C	05/30/2018	10:48	-132.512	43.110	0	32.00	0	12.2170	0	32.7530	8	24.805	0	31.743	0	270.6	4	101.6	4	-1E+10	1	-1E+10	1	-1E+10	1	-1E+10	1	-1E+10	1	-1E+10	1
4901784	106	C	05/30/2018	10:48	-132.512	43.110	0	33.70	0	11.5050	0	32.7880	8	24.964	0	33.430	0	274.5	4	101.6	4	-1E+10	1	-1E+10	1	-1E+10	1	-1E+10	1	-1E+10	1	-1E+10	1
4901784	106	C	05/30/2018	10:48	-132.512	43.110	0	35.40	0	11.1540	0	32.7870	8	25.026	0	35.116	0	276.5	4	101.6	4	-1E+10	1	-1E+10	1	-1E+10	1	-1E+10	1	-1E+10	1	-1E+10	1
4901784	106	C	05/30/2018	10:48	-132.512	43.110	0	37.00	0	10.8460	0	32.7970	8	25.089	0	36.703	0	277.7	4	101.4	4	-1E+10	1	-1E+10	1	-1E+10	1	-1E+10	1	-1E+10	1	-1E+10	1
4901784	106	C	05/30/2018	10:48	-132.512	43.110	0	38.80	0	10.6950	0	32.7940	8	25.113	0	38.488	0	277.7	4	101.0	4	-1E+10	1	-1E+10	1	-1E+10	1	-1E+10	1	-1E+10	1	-1E+10	1
4901784	106	C	05/30/2018	10:48	-132.512	43.110	0	40.30	0	10.5440	0	32.7950	8	25.140	0	39.976	0	277.5	4	100.6	4	-1E+10	1	-1E+10	1	-1E+10	1	-1E+10	1	-1E+10	1	-1E+10	1
4901784	106	C	05/30/2018	10:48	-132.512	43.110	0	41.90	0	10.3690	0	32.8010	8	25.174	0	41.563	0	277.9	4	100.4	4	-1E+10	1	-1E+10	1	-1E+10	1	-1E+10	1	-1E+10	1	-1E+10	1
4901784	106	C	05/30/2018	10:48	-132.512	43.110	0	43.60	0	10.1120	0	32.7960	8	25.214	0	43.249	0	278.5	4	100.1	4	-1E+10	1	-1E+10	1	-1E+10	1	-1E+10	1	-1E+10	1	-1E+10	1
4901784	106	C	05/30/2018	10:48	-132.512	43.110	0	45.30	0	9.8420	0	32.7810	8	25.247	0	44.935	0	278.9	4	99.6	4	-1E+10	1	-1E+10	1	-1E+10	1	-1E+10	1	-1E+10	1	-1E+10	1
4901784	106	C	05/30/2018	10:48	-132.512	43.110	0	47.00	0	9.8430	0	32.7810	8	25.247	0	46.621	0	278.2	4	99.4	4	-1E+10	1	-1E+10	1	-1E+10	1	-1E+10	1	-1E+10	1	-1E+10	1
4901784	106	C	05/30/2018	10:48	-132.512	43.110	0	48.80	0	9.9280	0	32.8040	8	25.251	0	48.407	0	276.4	4	98.9	4	-1E+10	1	-1E+10	1	-1E+10	1	-1E+10	1	-1E+10	1	-1E+10	1
4901784	106	C	05/30/2018	10:48	-132.512	43.110	0	50.50	0	9.8770	0	32.8070	8	25.262	0	50.093	0	275.2	4	98.4	4	-1E+10	1	-1E+10	1	-1E+10	1	-1E+10	1	-1E+10	1	-1E+10	1
4901784	106	C	05/30/2018	10:48	-132.512	43.110	0	52.30	0	9.8000	0	32.8050	8	25.273	0	51.878	0	275.5	4	98.3	4	-1E+10	1	-1E+10	1	-1E+10	1	-1E+10	1	-1E+10	1	-1E+10	1
4901784	106	C	05/30/2018	10:48	-132.512	43.110	0	54.00	0	9.7910	0	32.8140	8	25.281	0	53.564	0	275.4	4	98.3	4	-1E+10	1	-1E+10	1	-1E+10	1	-1E+10	1	-1E+10	1	-1E+10	1
4901784	106	C	05/30/2018	10:48	-132.512	43.110	0	55.70	0	9.7970	0	32.8240	8	25.288	0	55.250	0	275.9	4	98.5	4	-1E+10	1	-1E+10	1	-1E+10	1	-1E+10	1	-1E+10	1	-1E+10	1
4901784	106	C	05/30/2018	10:48	-132.512	43.110	0	57.50	0	9.8430	0	32.8380	8	25.292	0	57.035	0	276.1	4	98.7	4	-1E+10	1	-1E+10	1	-1E+10	1	-1E+10	1	-1E+10	1	-1E+10	1
4901784	106	C	05/30/2018	10:48	-132.512	43.110	0	59.30	0	9.8480	0	32.8470	8	25.298	0	58.820	0	276.0	4	98.7	4	-1E+10	1	-1E+10	1	-1E+10	1	-1E+10	1	-1E+10	1	-1E+10	1
4901784	106	C	05/30/2018	10:48	-132.512	43.110	0	61.10	0	9.8970	0	32.8570	8	25.298	0	60.606	0	276.1	4	98.8	4	-1E+10	1	-1E+10	1	-1E+10	1	-1E+10	1	-1E+10	1	-1E+10	1
4901784	106	C	05/30/2018	10:48	-132.512	43.110	0	62.90	0	9.8930	0	32.8590	8	25.300	0	62.391	0	275.4	4	98.5	4	-1E+10	1	-1E+10	1	-1E+10	1	-1E+10	1	-1E+10	1	-1E+10	1
4901784	106	C	05/30/2018	10:48	-132.512	43.110	0	64.70	0	9.8650	0	32.8560	8	25.302	0	64.176	0	274.8	4	98.2	4	-1E+10	1	-1E+10	1	-1E+10	1	-1E+10	1	-1E+10	1	-1E+10	1
4901784	106	C	05/30/2018	10:48	-132.512	43.110	0	66.50	0	9.8670	0	32.8600	8	25.305	0	65.961	0	274.0	4	98.0	4	-1E+10	1	-1E+10	1	-1E+10	1	-1E+10	1	-1E+10	1	-1E+10	1
4901784	106	C	05/30/2018	10:48	-132.512	43.110	0	68.40	0	9.8610	0	32.8610	8	25.307	0	67.845	0	273.3	4	97.7	4	-1E+10	1	-1E+10	1	-1E+10	1	-1E+10	1	-1E+10	1	-1E+10	1
4901784	106	C	05/30/2018	10:48	-132.512	43.110	0	70.10	0	9.8560	0	32.8430	8	25.294	0	69.531	0	272.9	4	97.6	4	-1E+10	1	-1E+10	1	-1E+10	1	-1E+10	1	-1E+10	1	-1E+10	1
4901784	106	C	05/30/2018	10:48	-132.512	43.110	0	71.90	0	9.8460	0	32.8610	8	25.309	0	71.316	0	272.2	4	97.3	4	-1E+10	1	-1E+10	1	-1E+10	1	-1E+10	1	-1E+10	1	-1E+10	1
4901784	106	C	05/30/2018	10:48	-132.512	43.110	0	73.80	0	9.8410	0	32.8600	8	25.309	0	73.201	0	271.3	4	97.0	4	-1E+10	1	-1E+10	1	-1E+10	1	-1E+10	1	-1E+10	1	-1E+10	1
4901784	106	C	05/30/2018	10:48	-132.512	43.110	0	75.60	0	9.8380	0	32.8600	8	25.310	0	74.986	0	270.5	4	96.7	4	-1E+10	1	-1E+10	1	-1E+10	1	-1E+10	1	-1E+10	1	-1E+10	1
4901784	106	C	05/30/2018	10:48	-132.512	43.110	0	77.40	0	9.8360	0	32.8600	8	25.310	0	76.771	0	269.5	4	96.3	4	-1E+10	1	-1E+10	1	-1E+10	1	-1E+10	1	-1E+10	1	-1E+10	1
4901784	106	C	05/30/2018	10:48	-132.512	43.110	0	79.30	0	9.8270	0	32.8590	8	25.311	0	78.655	0	268.3	4	95.9	4	-1E+10	1	-1E+10	1	-1E+10	1	-1E+10	1	-1E+10	1	-1E+10	1
4901784	106	C	05/30/2018	10:48	-132.512	43.110	0	81.10	0	9.8030	0	32.8530	8	25.310	0	80.440	0	267.5	4	95.5	4	-1E+10	1	-1E+10	1	-1E+10	1	-1E+10	1	-1E+10	1	-1E+10	1
4901784	106	C	05/30/2018	10:48	-132.512	43.110	0	82.90	0	9.7110	0	32.8410	8	25.316	0	82.225	0	267.2	4	95.2	4	-1E+10	1	-1E+10	1	-1E+10	1	-1E+10	1	-1E+10	1	-1E+10	1
4901784	106	C	05/30/2018	10:48	-132.512	43.110	0	84.70	0	9.6340	0	32.8350	8	25.324	0	84.010	0	266.9	4	95.0	4	-1E+10	1	-1E+10	1	-1E+10	1	-1E+10	1	-1E+10	1	-1E+10	1
4901784	106	C	05/30/2018	10:48	-132.512	43.110	0	86.50	0	9.6320	0	32.8320	8	25.322	0	85.795	0	266.2	4	94.7	4	-1E+10	1	-1E+10	1	-1E+10	1	-1E+10	1	-1E+10	1	-1E+10	1
4901784	106	C	05/30/2018	10:48	-132.512	43.110	0	88.30	0	9.5740	0	32.8290	8	25.329	0	87.580	0	265.6	4	94.3	4	-1E+10	1	-1E+10	1	-1E+10	1	-1E+10	1	-1E+10	1	-1E+10	1
4901784	106	C	05/30/2018	10:48	-132.512	43.110	0	90.10	0	9.5580	0	32.8320	8	25.334	0	89.365	0	264.8	4	94.0	4	-1E+10	1	-1E+10	1	-1E+10	1	-1E+10	1	-1E+10	1	-1E+10	1
4901784	106	C	05/30/2018	10:48	-132.512	43.110	0	91.90	0	9.5310	0	32.8330	8	25.339	0	91.150	0	264.2	4	93.8	4	-1E+10	1	-1E+10	1	-1E+10	1	-1E+10	1	-1E+10	1	-1E+10	1
4901784	106	C	05/30/2018	10:48	-132.512	43.110	0	93.70	0	9.5340	0	32.8350	8	25.340	0	92.934	0	263.1	4	93.4	4	-1E+10	1	-1E+10	1	-1E+10	1	-1E+10	1	-1E+10	1	-1E+10	1
4901784	106	C	05/30/2018	10:48	-132.512	43.110	0	95.50	0	9.5380	0	32.8340	8	25.339	0	94.719	0	262.4	4	93.1	4	-1E+10	1	-1E+10	1	-1E+10	1	-1E+10	1	-1E+10	1	-1E+10	1
4901784	106	C	05/30/2018	10:48	-132.512	43.110	0	97.30	0	9.4770	0	32.8300	8	25.346	0	96.504	0	261.4	4	92.7	4	-1E+10	1	-1E+10	1	-1E+10	1	-1E+10	1	-1E+10	1	-1E+10	1
4901784	106	C	05/30/2018	10:48	-132.512	43.110	0	99.00	0	9.4440	0	32.8270	8	25.349	0	98.190	0	260.2	4	92.2	4	-1E+10	1	-1E+10	1	-1E+10	1	-1E+10	1	-1E+10	1	-1E+10	1
4901784	106	C	05/30/2018	10:48	-132.512	43.110	0	102.30	0	9.3280	0	32.8180	8	25.360	0	101.462	0	256.6	4	90.7	4	-1E+10	1	-1E+10	1	-1E+10	1	-1E+10	1	-1E+10	1	-1E+10	1
4901784	106	C	05/30/2018	10:48	-132.512	43.110	0	104.80	0	9.0940	0	32.8540	8	25.425	0	103.941	0	254.0	4	89.3	4	-1E+10	1	-1E+10	1	-1E+10	1	-1E+10	1	-1E+10	1	-1E+10	1
4901784	106	C	05/30/2018	10:48	-132.512	43.110	0	107.40	0	8.8730	0	32.9160	8	25.508	0	106.519	0	252.2	4	88.3	4	-1E+10	1	-1E+10	1	-1E+10	1	-1E+10	1	-1E+10	1	-1E+10	1
4901784	106	C	05/30/2018	10:48	-132.512	43.110	0	110.10	0	8.7350	0	32.9470	8	25.554	0	109.196	0	250.2	4	87.3	4	-1E+10	1	-1E+10	1	-1E+10	1	-1E+10	1	-1E+10	1	-1E+10	1
4901784	106	C	05/30/2018	10:48	-132.512	43.110	0	113.30	0	8.5370	0	32.9940	8	25.621	0	112.369	0	248.5	4	86.4	4	-1E+10	1	-1E+10	1	-1E+10	1	-1E+10	1	-1E+10	1	-1E+10	1
4901784	106	C	05/30/2018	10:48	-132.512	43.110	0	114.90	0	8.4380	0	33.0100	8	25.648	0	113.955	0	247.2	4	85.8	4	-1E+10	1	-1E+10	1	-1E+10	1	-1E+10	1	-1E+10	1	-1E+10	1
4901784	106	C	05/30/2018	10:48	-132.512	43.110	0	117.00	0	8.3280	0	33.0310	8	25.681	0	116.038	0	245.4	4	85.0	4	-1E+10	1	-1E+10	1	-1E+10	1	-1E+10	1	-1E+10	1	-1E+10	1
4901784	106	C	05/30/2018	10:48	-132.512	43.110	0	119.90	0	8.2020	0	33.0650	8	25.727	0	118.913	0	241.1	4	83.2	4	-1E+10	1	-1E+10	1	-1E+10	1	-1E+10	1	-1E+10	1	-1E+10	1
4901784	106	C	05/30/2018	10:48	-132.512	43.110	0	122.60	0	7.9820	0	33.1840	8	25.852	0	121.590	0	236.5	4	81.3	4	-1E+10	1	-1E+10	1	-1E+10	1	-1E+10	1	-1E+10	1	-1E+10	1
4901784	106	C	05/30/2018	10:48	-132.512	43.110	0	124.60	0	7.9800	0	33.2510	8	25.905	0	123.573	0	232.3	4	79.9	4	-1E+10	1	-1E+10	1	-1E+10	1	-1E+10	1	-1E+10	1	-1E+10	1
4901784	106	C	05/30/2018	10:48	-132.512	43.110	0	127.10	0	8.0060	0	33.2960	8	25.937	0	126.051	0	226.9	4	78.1	4	-1E+10	1	-1E+10	1	-1E+10	1	-1E+10	1	-1E+10	1	-1E+10	1
4901784	106	C	05/30/2018	10:48	-132.512	43.110	0	129.70	0	8.0370	0	33.3460	8	25.972	0	128.629	0	220.4	4	76.0	4	-1E+10	1	-1E+10	1	-1E+10	1	-1E+10	1	-1E+10	1	-1E+10	1
4901784	106	C	05/30/2018	10:48	-132.512	43.110	0	132.50	0	8.0970	0	33.4660	8	26.057	0	131.405	0	212.8	4	73.5	4	-1E+10	1	-1E+10	1	-1E+10	1	-1E+10	1	-1E+10	1	-1E+10	1
4901784	106	C	05/30/2018	10:48	-132.512	43.110	0	135.40	0	8.1260	0	33.5040	8	26.083	0	134.280	0	205.0	4	70.9	4	-1E+10	1	-1E+10	1	-1E+10	1	-1E+10	1	-1E+10	1	-1E+10	1
4901784	106	C	05/30/2018	10:48	-132.512	43.110	0	137.90	0	8.1490	0	33.5340	8	26.103	0	136.759	0	197.1	4	68.2	4	-1E+10	1	-1E+10	1	-1E+10	1	-1E+10	1	-1E+10	1	-1E+10	1
4901784	106	C	05/30/2018	10:48	-132.512	43.110	0	140.10	0	8.2000	0	33.6580	8	26.193	0	138.940	0	190.0	4	65.9	4	-1E+10	1	-1E+10	1	-1E+10	1	-1E+10	1	-1E+10	1	-1E+10	1
4901784	106	C	05/30/2018	10:48	-132.512	43.110	0	142.60	0	8.2330	0	33.7250	8	26.240	0	141.418	0	185.7	4	64.4	4	-1E+10	1	-1E+10	1	-1E+10	1	-1E+10	1	-1E+10	1	-1E+10	1
4901784	106	C	05/30/2018	10:48	-132.512	43.110	0	144.90	0	8.2340	0	33.7420	8	26.254	0	143.698	0	181.5	4	63.0	4	-1E+10	1	-1E+10	1	-1E+10	1	-1E+10	1	-1E+10	1	-1E+10	1
4901784	106	C	05/30/2018	10:48	-132.512	43.110	0	147.10	0	8.2310	0	33.7780	8	26.282	0	145.879	0	177.8	4	61.7	4	-1E+10	1	-1E+10	1	-1E+10	1	-1E+10	1	-1E+10	1	-1E+10	1
4901784	106	C	05/30/2018	10:48	-132.512	43.110	0	150.30	0	8.2140	0	33.8110	8	26.311	0	149.052	0	173.4	4	60.2	4	-1E+10	1	-1E+10	1	-1E+10	1	-1E+10	1	-1E+10	1	-1E+10	1
4901784	106	C	05/30/2018	10:48	-132.512	43.110	0	152.60	0	8.2080	0	33.8220	8	26.320	0	151.332	0	170.7	4	59.3	4	-1E+10	1	-1E+10	1	-1E+10	1	-1E+10	1	-1E+10	1	-1E+10	1
4901784	106	C	05/30/2018	10:48	-132.512	43.110	0	155.10	0	8.2080	0	33.8320	8	26.328	0	153.810	0	166.7	4	57.9	4	-1E+10	1	-1E+10	1	-1E+10	1	-1E+10	1	-1E+10	1	-1E+10	1
4901784	106	C	05/30/2018	10:48	-132.512	43.110	0	157.60	0	8.1870	0	33.8680	8	26.360	0	156.288	0	161.9	4	56.2	4	-1E+10	1	-1E+10	1	-1E+10	1	-1E+10	1	-1E+10	1	-1E+10	1
4901784	106	C	05/30/2018	10:48	-132.512	43.110	0	159.40	0	8.1560	0	33.8910	8	26.382	0	158.073	0	159.4	4	55.3	4	-1E+10	1	-1E+10	1	-1E+10	1	-1E+10	1	-1E+10	1	-1E+10	1
4901784	106	C	05/30/2018	10:48	-132.512	43.110	0	162.20	0	8.1350	0	33.8980	8	26.391	0	160.848	0	155.8	4	54.0	4	-1E+10	1	-1E+10	1	-1E+10	1	-1E+10	1	-1E+10	1	-1E+10	1
4901784	106	C	05/30/2018	10:48	-132.512	43.110	0	164.90	0	8.1040	0	33.8970	8	26.395	0	163.525	0	151.8	4	52.6	4	-1E+10	1	-1E+10	1	-1E+10	1	-1E+10	1	-1E+10	1	-1E+10	1
4901784	106	C	05/30/2018	10:48	-132.512	43.110	0	167.60	0	8.0350	0	33.9050	8	26.411	0	166.201	0	147.4	4	51.0	4	-1E+10	1	-1E+10	1	-1E+10	1	-1E+10	1	-1E+10	1	-1E+10	1
4901784	106	C	05/30/2018	10:48	-132.512	43.110	0	170.20	0	7.9980	0	33.9190	8	26.428	0	168.778	0	143.8	4	49.7	4	-1E+10	1	-1E+10	1	-1E+10	1	-1E+10	1	-1E+10	1	-1E+10	1
4901784	106	C	05/30/2018	10:48	-132.512	43.110	0	172.00	0	7.9790	0	33.9280	8	26.438	0	170.562	0	141.1	4	48.8	4	-1E+10	1	-1E+10	1	-1E+10	1	-1E+10	1	-1E+10	1	-1E+10	1
4901784	106	C	05/30/2018	10:48	-132.512	43.110	0	174.70	0	7.9670	0	33.9320	8	26.443	0	173.239	0	136.2	4	47.1	4	-1E+10	1	-1E+10	1	-1E+10	1	-1E+10	1	-1E+10	1	-1E+10	1
4901784	106	C	05/30/2018	10:48	-132.512	43.110	0	177.40	0	7.9380	0	33.9380	8	26.452	0	175.915	0	129.6	4	44.8	4	-1E+10	1	-1E+10	1	-1E+10	1	-1E+10	1	-1E+10	1	-1E+10	1
4901784	106	C	05/30/2018	10:48	-132.512	43.110	0	180.00	0	7.8220	0	33.9660	8	26.491	0	178.492	0	122.5	4	42.2	4	-1E+10	1	-1E+10	1	-1E+10	1	-1E+10	1	-1E+10	1	-1E+10	1
4901784	106	C	05/30/2018	10:48	-132.512	43.110	0	182.70	0	7.7590	0	33.9910	8	26.520	0	181.168	0	118.3	4	40.7	4	-1E+10	1	-1E+10	1	-1E+10	1	-1E+10	1	-1E+10	1	-1E+10	1
4901784	106	C	05/30/2018	10:48	-132.512	43.110	0	184.50	0	7.7010	0	34.0040	8	26.538	0	182.952	0	115.5	4	39.7	4	-1E+10	1	-1E+10	1	-1E+10	1	-1E+10	1	-1E+10	1	-1E+10	1
4901784	106	C	05/30/2018	10:48	-132.512	43.110	0	187.30	0	7.6890	0	34.0080	8	26.543	0	185.728	0	111.9	4	38.5	4	-1E+10	1	-1E+10	1	-1E+10	1	-1E+10	1	-1E+10	1	-1E+10	1
4901784	106	C	05/30/2018	10:48	-132.512	43.110	0	190.10	0	7.6780	0	34.0100	8	26.546	0	188.503	0	106.4	4	36.6	4	-1E+10	1	-1E+10	1	-1E+10	1	-1E+10	1	-1E+10	1	-1E+10	1
4901784	106	C	05/30/2018	10:48	-132.512	43.110	0	192.70	0	7.5690	0	34.0120	8	26.564	0	191.080	0	101.3	4	34.7	4	-1E+10	1	-1E+10	1	-1E+10	1	-1E+10	1	-1E+10	1	-1E+10	1
4901784	106	C	05/30/2018	10:48	-132.512	43.110	0	195.40	0	7.5180	0	34.0140	8	26.572	0	193.756	0	97.6	4	33.4	4	-1E+10	1	-1E+10	1	-1E+10	1	-1E+10	1	-1E+10	1	-1E+10	1
4901784	106	C	05/30/2018	10:48	-132.512	43.110	0	197.10	0	7.4870	0	34.0150	8	26.578	0	195.441	0	95.7	4	32.8	4	-1E+10	1	-1E+10	1	-1E+10	1	-1E+10	1	-1E+10	1	-1E+10	1
4901784	106	C	05/30/2018	10:48	-132.512	43.110	0	199.80	0	7.4550	0	34.0180	8	26.585	0	198.117	0	93.0	4	31.8	4	-1E+10	1	-1E+10	1	-1E+10	1	-1E+10	1	-1E+10	1	-1E+10	1
4901784	106	C	05/30/2018	10:48	-132.512	43.110	0	202.40	0	7.4140	0	34.0220	8	26.594	0	200.694	0	90.8	4	31.0	4	-1E+10	1	-1E+10	1	-1E+10	1	-1E+10	1	-1E+10	1	-1E+10	1
4901784	106	C	05/30/2018	10:48	-132.512	43.110	0	205.00	0	7.3990	0	34.0220	8	26.596	0	203.270	0	89.0	4	30.4	4	-1E+10	1	-1E+10	1	-1E+10	1	-1E+10	1	-1E+10	1	-1E+10	1
4901784	106	C	05/30/2018	10:48	-132.512	43.110	0	207.60	0	7.3720	0	34.0240	8	26.601	0	205.847	0	87.0	4	29.7	4	-1E+10	1	-1E+10	1	-1E+10	1	-1E+10	1	-1E+10	1	-1E+10	1
4901784	106	C	05/30/2018	10:48	-132.512	43.110	0	210.20	0	7.3330	0	34.0280	8	26.610	0	208.424	0	85.5	4	29.1	4	-1E+10	1	-1E+10	1	-1E+10	1	-1E+10	1	-1E+10	1	-1E+10	1
4901784	106	C	05/30/2018	10:48	-132.512	43.110	0	212.90	0	7.3180	0	34.0290	8	26.613	0	211.100	0	84.5	4	28.8	4	-1E+10	1	-1E+10	1	-1E+10	1	-1E+10	1	-1E+10	1	-1E+10	1
4901784	106	C	05/30/2018	10:48	-132.512	43.110	0	214.70	0	7.3040	0	34.0310	8	26.616	0	212.884	0	83.9	4	28.6	4	-1E+10	1	-1E+10	1	-1E+10	1	-1E+10	1	-1E+10	1	-1E+10	1
4901784	106	C	05/30/2018	10:48	-132.512	43.110	0	217.40	0	7.2870	0	34.0320	8	26.620	0	215.559	0	82.9	4	28.2	4	-1E+10	1	-1E+10	1	-1E+10	1	-1E+10	1	-1E+10	1	-1E+10	1
4901784	106	C	05/30/2018	10:48	-132.512	43.110	0	220.10	0	7.2530	0	34.0360	8	26.627	0	218.235	0	82.3	4	28.0	4	-1E+10	1	-1E+10	1	-1E+10	1	-1E+10	1	-1E+10	1	-1E+10	1
4901784	106	C	05/30/2018	10:48	-132.512	43.110	0	222.80	0	7.2460	0	34.0370	8	26.629	0	220.911	0	82.1	4	27.9	4	-1E+10	1	-1E+10	1	-1E+10	1	-1E+10	1	-1E+10	1	-1E+10	1
4901784	106	C	05/30/2018	10:48	-132.512	43.110	0	225.40	0	7.2420	0	34.0380	8	26.631	0	223.487	0	81.7	4	27.8	4	-1E+10	1	-1E+10	1	-1E+10	1	-1E+10	1	-1E+10	1	-1E+10	1
4901784	106	C	05/30/2018	10:48	-132.512	43.110	0	227.20	0	7.2380	0	34.0380	8	26.631	0	225.271	0	81.5	4	27.7	4	-1E+10	1	-1E+10	1	-1E+10	1	-1E+10	1	-1E+10	1	-1E+10	1
4901784	106	C	05/30/2018	10:48	-132.512	43.110	0	230.00	0	7.2230	0	34.0400	8	26.635	0	228.046	0	81.1	4	27.6	4	-1E+10	1	-1E+10	1	-1E+10	1	-1E+10	1	-1E+10	1	-1E+10	1
4901784	106	C	05/30/2018	10:48	-132.512	43.110	0	232.70	0	7.2150	0	34.0410	8	26.637	0	230.721	0	80.8	4	27.5	4	-1E+10	1	-1E+10	1	-1E+10	1	-1E+10	1	-1E+10	1	-1E+10	1
4901784	106	C	05/30/2018	10:48	-132.512	43.110	0	234.60	0	7.2050	0	34.0410	8	26.638	0	232.604	0	80.6	4	27.4	4	-1E+10	1	-1E+10	1	-1E+10	1	-1E+10	1	-1E+10	1	-1E+10	1
4901784	106	C	05/30/2018	10:48	-132.512	43.110	0	237.40	0	7.1840	0	34.0440	8	26.644	0	235.379	0	80.3	4	27.3	4	-1E+10	1	-1E+10	1	-1E+10	1	-1E+10	1	-1E+10	1	-1E+10	1
4901784	106	C	05/30/2018	10:48	-132.512	43.110	0	240.20	0	7.1690	0	34.0460	8	26.647	0	238.153	0	79.9	4	27.2	4	-1E+10	1	-1E+10	1	-1E+10	1	-1E+10	1	-1E+10	1	-1E+10	1
4901784	106	C	05/30/2018	10:48	-132.512	43.110	0	242.00	0	7.1490	0	34.0480	8	26.652	0	239.937	0	79.8	4	27.1	4	-1E+10	1	-1E+10	1	-1E+10	1	-1E+10	1	-1E+10	1	-1E+10	1
4901784	106	C	05/30/2018	10:48	-132.512	43.110	0	244.80	0	7.1240	0	34.0510	8	26.657	0	242.711	0	79.6	4	27.0	4	-1E+10	1	-1E+10	1	-1E+10	1	-1E+10	1	-1E+10	1	-1E+10	1
4901784	106	C	05/30/2018	10:48	-132.512	43.110	0	247.60	0	7.1050	0	34.0530	8	26.662	0	245.486	0	79.4	4	26.9	4	-1E+10	1	-1E+10	1	-1E+10	1	-1E+10	1	-1E+10	1	-1E+10	1
4901784	106	C	05/30/2018	10:48	-132.512	43.110	0	249.50	0	7.1010	0	34.0530	8	26.662	0	247.368	0	79.3	4	26.9	4	-1E+10	1	-1E+10	1	-1E+10	1	-1E+10	1	-1E+10	1	-1E+10	1
4901784	106	C	05/30/2018	10:48	-132.512	43.110	0	252.30	0	7.0910	0	34.0550	8	26.665	0	250.143	0	79.0	4	26.8	4	-1E+10	1	-1E+10	1	-1E+10	1	-1E+10	1	-1E+10	1	-1E+10	1
4901784	106	C	05/30/2018	10:48	-132.512	43.110	0	255.10	0	7.0810	0	34.0550	8	26.667	0	252.917	0	78.8	4	26.7	4	-1E+10	1	-1E+10	1	-1E+10	1	-1E+10	1	-1E+10	1	-1E+10	1
4901784	106	C	05/30/2018	10:48	-132.512	43.110	0	257.00	0	7.0750	0	34.0550	8	26.668	0	254.800	0	78.6	4	26.6	4	-1E+10	1	-1E+10	1	-1E+10	1	-1E+10	1	-1E+10	1	-1E+10	1
4901784	106	C	05/30/2018	10:48	-132.512	43.110	0	259.80	0	7.0560	0	34.0570	8	26.672	0	257.574	0	78.2	4	26.5	4	-1E+10	1	-1E+10	1	-1E+10	1	-1E+10	1	-1E+10	1	-1E+10	1
4901784	106	C	05/30/2018	10:48	-132.512	43.110	0	262.70	0	7.0350	0	34.0600	8	26.677	0	260.447	0	77.7	4	26.3	4	-1E+10	1	-1E+10	1	-1E+10	1	-1E+10	1	-1E+10	1	-1E+10	1
4901784	106	C	05/30/2018	10:48	-132.512	43.110	0	264.70	0	7.0290	0	34.0600	8	26.678	0	262.429	0	77.4	4	26.2	4	-1E+10	1	-1E+10	1	-1E+10	1	-1E+10	1	-1E+10	1	-1E+10	1
4901784	106	C	05/30/2018	10:48	-132.512	43.110	0	267.50	0	7.0040	0	34.0630	8	26.684	0	265.203	0	76.8	4	26.0	4	-1E+10	1	-1E+10	1	-1E+10	1	-1E+10	1	-1E+10	1	-1E+10	1
4901784	106	C	05/30/2018	10:48	-132.512	43.110	0	270.40	0	6.9810	0	34.0660	8	26.689	0	268.076	0	76.4	4	25.9	4	-1E+10	1	-1E+10	1	-1E+10	1	-1E+10	1	-1E+10	1	-1E+10	1
4901784	106	C	05/30/2018	10:48	-132.512	43.110	0	272.30	0	6.9790	0	34.0660	8	26.690	0	269.959	0	76.2	4	25.8	4	-1E+10	1	-1E+10	1	-1E+10	1	-1E+10	1	-1E+10	1	-1E+10	1
4901784	106	C	05/30/2018	10:48	-132.512	43.110	0	275.20	0	6.9740	0	34.0660	8	26.690	0	272.832	0	75.7	4	25.6	4	-1E+10	1	-1E+10	1	-1E+10	1	-1E+10	1	-1E+10	1	-1E+10	1
4901784	106	C	05/30/2018	10:48	-132.512	43.110	0	278.10	0	6.9510	0	34.0680	8	26.695	0	275.705	0	75.3	4	25.5	4	-1E+10	1	-1E+10	1	-1E+10	1	-1E+10	1	-1E+10	1	-1E+10	1
4901784	106	C	05/30/2018	10:48	-132.512	43.110	0	280.00	0	6.9450	0	34.0680	8	26.696	0	277.587	0	75.1	4	25.4	4	-1E+10	1	-1E+10	1	-1E+10	1	-1E+10	1	-1E+10	1	-1E+10	1
4901784	106	C	05/30/2018	10:48	-132.512	43.110	0	281.90	0	6.9350	0	34.0690	8	26.698	0	279.470	0	74.8	4	25.3	4	-1E+10	1	-1E+10	1	-1E+10	1	-1E+10	1	-1E+10	1	-1E+10	1
4901784	106	C	05/30/2018	10:48	-132.512	43.110	0	284.80	0	6.9020	0	34.0720	8	26.705	0	282.343	0	74.3	4	25.1	4	-1E+10	1	-1E+10	1	-1E+10	1	-1E+10	1	-1E+10	1	-1E+10	1
4901784	106	C	05/30/2018	10:48	-132.512	43.110	0	287.70	0	6.8690	0	34.0750	8	26.712	0	285.216	0	73.9	4	24.9	4	-1E+10	1	-1E+10	1	-1E+10	1	-1E+10	1	-1E+10	1	-1E+10	1
4901784	106	C	05/30/2018	10:48	-132.512	43.110	0	289.60	0	6.8660	0	34.0760	8	26.713	0	287.098	0	73.7	4	24.9	4	-1E+10	1	-1E+10	1	-1E+10	1	-1E+10	1	-1E+10	1	-1E+10	1
4901784	106	C	05/30/2018	10:48	-132.512	43.110	0	292.50	0	6.8570	0	34.0770	8	26.715	0	289.971	0	73.3	4	24.7	4	-1E+10	1	-1E+10	1	-1E+10	1	-1E+10	1	-1E+10	1	-1E+10	1
4901784	106	C	05/30/2018	10:48	-132.512	43.110	0	295.40	0	6.8480	0	34.0760	8	26.716	0	292.844	0	72.9	4	24.6	4	-1E+10	1	-1E+10	1	-1E+10	1	-1E+10	1	-1E+10	1	-1E+10	1
4901784	106	C	05/30/2018	10:48	-132.512	43.110	0	297.40	0	6.8320	0	34.0770	8	26.718	0	294.825	0	72.5	4	24.4	4	-1E+10	1	-1E+10	1	-1E+10	1	-1E+10	1	-1E+10	1	-1E+10	1
4901784	106	C	05/30/2018	10:48	-132.512	43.110	0	299.30	0	6.8040	0	34.0810	8	26.725	0	296.707	0	72.3	4	24.4	4	-1E+10	1	-1E+10	1	-1E+10	1	-1E+10	1	-1E+10	1	-1E+10	1
4901784	106	C	05/30/2018	10:48	-132.512	43.110	0	302.20	0	6.8010	0	34.0810	8	26.726	0	299.580	0	72.1	4	24.3	4	-1E+10	1	-1E+10	1	-1E+10	1	-1E+10	1	-1E+10	1	-1E+10	1
4901784	106	C	05/30/2018	10:48	-132.512	43.110	0	305.10	0	6.7930	0	34.0820	8	26.728	0	302.453	0	71.8	4	24.2	4	-1E+10	1	-1E+10	1	-1E+10	1	-1E+10	1	-1E+10	1	-1E+10	1
4901784	106	C	05/30/2018	10:48	-132.512	43.110	0	307.00	0	6.7750	0	34.0840	8	26.732	0	304.335	0	71.7	4	24.2	4	-1E+10	1	-1E+10	1	-1E+10	1	-1E+10	1	-1E+10	1	-1E+10	1
4901784	106	C	05/30/2018	10:48	-132.512	43.110	0	309.90	0	6.7680	0	34.0840	8	26.733	0	307.208	0	71.5	4	24.1	4	-1E+10	1	-1E+10	1	-1E+10	1	-1E+10	1	-1E+10	1	-1E+10	1
4901784	106	C	05/30/2018	10:48	-132.512	43.110	0	312.80	0	6.7590	0	34.0840	8	26.734	0	310.080	0	71.4	4	24.0	4	-1E+10	1	-1E+10	1	-1E+10	1	-1E+10	1	-1E+10	1	-1E+10	1
4901784	106	C	05/30/2018	10:48	-132.512	43.110	0	314.70	0	6.7590	0	34.0830	8	26.733	0	311.962	0	71.1	4	23.9	4	-1E+10	1	-1E+10	1	-1E+10	1	-1E+10	1	-1E+10	1	-1E+10	1
4901784	106	C	05/30/2018	10:48	-132.512	43.110	0	317.60	0	6.7330	0	34.0840	8	26.738	0	314.835	0	70.7	4	23.8	4	-1E+10	1	-1E+10	1	-1E+10	1	-1E+10	1	-1E+10	1	-1E+10	1
4901784	106	C	05/30/2018	10:48	-132.512	43.110	0	320.60	0	6.7070	0	34.0850	8	26.742	0	317.806	0	70.2	4	23.6	4	-1E+10	1	-1E+10	1	-1E+10	1	-1E+10	1	-1E+10	1	-1E+10	1
4901784	106	C	05/30/2018	10:48	-132.512	43.110	0	322.50	0	6.6740	0	34.0870	8	26.748	0	319.688	0	69.8	4	23.4	4	-1E+10	1	-1E+10	1	-1E+10	1	-1E+10	1	-1E+10	1	-1E+10	1
4901784	106	C	05/30/2018	10:48	-132.512	43.110	0	324.40	0	6.6700	0	34.0860	8	26.748	0	321.570	0	69.5	4	23.3	4	-1E+10	1	-1E+10	1	-1E+10	1	-1E+10	1	-1E+10	1	-1E+10	1
4901784	106	C	05/30/2018	10:48	-132.512	43.110	0	327.30	0	6.6260	0	34.0900	8	26.757	0	324.443	0	68.8	4	23.1	4	-1E+10	1	-1E+10	1	-1E+10	1	-1E+10	1	-1E+10	1	-1E+10	1
4901784	106	C	05/30/2018	10:48	-132.512	43.110	0	330.20	0	6.6050	0	34.0880	8	26.758	0	327.315	0	68.3	4	22.9	4	-1E+10	1	-1E+10	1	-1E+10	1	-1E+10	1	-1E+10	1	-1E+10	1
4901784	106	C	05/30/2018	10:48	-132.512	43.110	0	332.10	0	6.5460	0	34.0940	8	26.770	0	329.197	0	67.9	4	22.8	4	-1E+10	1	-1E+10	1	-1E+10	1	-1E+10	1	-1E+10	1	-1E+10	1
4901784	106	C	05/30/2018	10:48	-132.512	43.110	0	335.00	0	6.5400	0	34.0930	8	26.770	0	332.069	0	67.6	4	22.6	4	-1E+10	1	-1E+10	1	-1E+10	1	-1E+10	1	-1E+10	1	-1E+10	1
4901784	106	C	05/30/2018	10:48	-132.512	43.110	0	337.80	0	6.5090	0	34.0950	8	26.776	0	334.843	0	67.1	4	22.5	4	-1E+10	1	-1E+10	1	-1E+10	1	-1E+10	1	-1E+10	1	-1E+10	1
4901784	106	C	05/30/2018	10:48	-132.512	43.110	0	339.70	0	6.5000	0	34.0940	8	26.776	0	336.725	0	66.8	4	22.4	4	-1E+10	1	-1E+10	1	-1E+10	1	-1E+10	1	-1E+10	1	-1E+10	1
4901784	106	C	05/30/2018	10:48	-132.512	43.110	0	342.70	0	6.4380	0	34.0990	8	26.789	0	339.696	0	66.6	4	22.2	4	-1E+10	1	-1E+10	1	-1E+10	1	-1E+10	1	-1E+10	1	-1E+10	1
4901784	106	C	05/30/2018	10:48	-132.512	43.110	0	345.60	0	6.4280	0	34.0980	8	26.789	0	342.568	0	66.4	4	22.2	4	-1E+10	1	-1E+10	1	-1E+10	1	-1E+10	1	-1E+10	1	-1E+10	1
4901784	106	C	05/30/2018	10:48	-132.512	43.110	0	347.50	0	6.4240	0	34.0980	8	26.790	0	344.450	0	66.3	4	22.2	4	-1E+10	1	-1E+10	1	-1E+10	1	-1E+10	1	-1E+10	1	-1E+10	1
4901784	106	C	05/30/2018	10:48	-132.512	43.110	0	349.50	0	6.4210	0	34.0980	8	26.790	0	346.430	0	66.1	4	22.1	4	-1E+10	1	-1E+10	1	-1E+10	1	-1E+10	1	-1E+10	1	-1E+10	1
4901784	106	C	05/30/2018	10:48	-132.512	43.110	0	352.50	0	6.4020	0	34.0990	8	26.793	0	349.402	0	65.8	4	22.0	4	-1E+10	1	-1E+10	1	-1E+10	1	-1E+10	1	-1E+10	1	-1E+10	1
4901784	106	C	05/30/2018	10:48	-132.512	43.110	0	355.30	0	6.3670	0	34.1000	8	26.799	0	352.175	0	65.7	4	21.9	4	-1E+10	1	-1E+10	1	-1E+10	1	-1E+10	1	-1E+10	1	-1E+10	1
4901784	106	C	05/30/2018	10:48	-132.512	43.110	0	357.20	0	6.3600	0	34.1010	8	26.800	0	354.056	0	65.6	4	21.9	4	-1E+10	1	-1E+10	1	-1E+10	1	-1E+10	1	-1E+10	1	-1E+10	1
4901784	106	C	05/30/2018	10:48	-132.512	43.110	0	359.10	0	6.3560	0	34.1010	8	26.801	0	355.938	0	65.6	4	21.9	4	-1E+10	1	-1E+10	1	-1E+10	1	-1E+10	1	-1E+10	1	-1E+10	1
4901784	106	C	05/30/2018	10:48	-132.512	43.110	0	362.30	0	6.3530	0	34.1010	8	26.801	0	359.107	0	65.5	4	21.9	4	-1E+10	1	-1E+10	1	-1E+10	1	-1E+10	1	-1E+10	1	-1E+10	1
4901784	106	C	05/30/2018	10:48	-132.512	43.110	0	365.20	0	6.3510	0	34.1000	8	26.801	0	361.979	0	65.4	4	21.8	4	-1E+10	1	-1E+10	1	-1E+10	1	-1E+10	1	-1E+10	1	-1E+10	1
4901784	106	C	05/30/2018	10:48	-132.512	43.110	0	367.70	0	6.3460	0	34.1000	8	26.802	0	364.455	0	65.2	4	21.7	4	-1E+10	1	-1E+10	1	-1E+10	1	-1E+10	1	-1E+10	1	-1E+10	1
4901784	106	C	05/30/2018	10:48	-132.512	43.110	0	370.20	0	6.3340	0	34.1000	8	26.803	0	366.930	0	64.9	4	21.6	4	-1E+10	1	-1E+10	1	-1E+10	1	-1E+10	1	-1E+10	1	-1E+10	1
4901784	106	C	05/30/2018	10:48	-132.512	43.110	0	372.50	0	6.3140	0	34.1010	8	26.807	0	369.208	0	64.7	4	21.5	4	-1E+10	1	-1E+10	1	-1E+10	1	-1E+10	1	-1E+10	1	-1E+10	1
4901784	106	C	05/30/2018	10:48	-132.512	43.110	0	375.00	0	6.2870	0	34.1020	8	26.811	0	371.684	0	64.5	4	21.5	4	-1E+10	1	-1E+10	1	-1E+10	1	-1E+10	1	-1E+10	1	-1E+10	1
4901784	106	C	05/30/2018	10:48	-132.512	43.110	0	377.40	0	6.2790	0	34.1010	8	26.811	0	374.060	0	64.4	4	21.4	4	-1E+10	1	-1E+10	1	-1E+10	1	-1E+10	1	-1E+10	1	-1E+10	1
4901784	106	C	05/30/2018	10:48	-132.512	43.110	0	379.90	0	6.2480	0	34.1030	8	26.817	0	376.536	0	64.1	4	21.3	4	-1E+10	1	-1E+10	1	-1E+10	1	-1E+10	1	-1E+10	1	-1E+10	1
4901784	106	C	05/30/2018	10:48	-132.512	43.110	0	382.30	0	6.2380	0	34.1020	8	26.817	0	378.912	0	64.0	4	21.3	4	-1E+10	1	-1E+10	1	-1E+10	1	-1E+10	1	-1E+10	1	-1E+10	1
4901784	106	C	05/30/2018	10:48	-132.512	43.110	0	384.70	0	6.2240	0	34.1020	8	26.819	0	381.289	0	63.8	4	21.2	4	-1E+10	1	-1E+10	1	-1E+10	1	-1E+10	1	-1E+10	1	-1E+10	1
4901784	106	C	05/30/2018	10:48	-132.512	43.110	0	387.20	0	6.2040	0	34.1020	8	26.822	0	383.764	0	63.5	4	21.1	4	-1E+10	1	-1E+10	1	-1E+10	1	-1E+10	1	-1E+10	1	-1E+10	1
4901784	106	C	05/30/2018	10:48	-132.512	43.110	0	389.70	0	6.1760	0	34.1010	8	26.824	0	386.240	0	63.3	4	21.0	4	-1E+10	1	-1E+10	1	-1E+10	1	-1E+10	1	-1E+10	1	-1E+10	1
4901784	106	C	05/30/2018	10:48	-132.512	43.110	0	392.20	0	6.1490	0	34.1010	8	26.828	0	388.715	0	63.2	4	21.0	4	-1E+10	1	-1E+10	1	-1E+10	1	-1E+10	1	-1E+10	1	-1E+10	1
4901784	106	C	05/30/2018	10:48	-132.512	43.110	0	394.70	0	6.1020	0	34.1020	8	26.835	0	391.191	0	63.1	4	20.9	4	-1E+10	1	-1E+10	1	-1E+10	1	-1E+10	1	-1E+10	1	-1E+10	1
4901784	106	C	05/30/2018	10:48	-132.512	43.110	0	397.20	0	6.0810	0	34.1010	8	26.837	0	393.666	0	63.1	4	20.9	4	-1E+10	1	-1E+10	1	-1E+10	1	-1E+10	1	-1E+10	1	-1E+10	1
4901784	106	C	05/30/2018	10:48	-132.512	43.110	0	399.60	0	6.0620	0	34.1010	8	26.839	0	396.043	0	63.0	4	20.9	4	-1E+10	1	-1E+10	1	-1E+10	1	-1E+10	1	-1E+10	1	-1E+10	1
4901784	106	C	05/30/2018	10:48	-132.512	43.110	0	402.20	0	6.0360	0	34.1020	8	26.843	0	398.617	0	62.8	4	20.8	4	-1E+10	1	-1E+10	1	-1E+10	1	-1E+10	1	-1E+10	1	-1E+10	1
4901784	106	C	05/30/2018	10:48	-132.512	43.110	0	404.70	0	6.0090	0	34.1020	8	26.846	0	401.092	0	62.8	4	20.8	4	-1E+10	1	-1E+10	1	-1E+10	1	-1E+10	1	-1E+10	1	-1E+10	1
4901784	106	C	05/30/2018	10:48	-132.512	43.110	0	407.20	0	6.0010	0	34.1010	8	26.847	0	403.568	0	62.8	4	20.8	4	-1E+10	1	-1E+10	1	-1E+10	1	-1E+10	1	-1E+10	1	-1E+10	1
4901784	106	C	05/30/2018	10:48	-132.512	43.110	0	409.80	0	5.9630	0	34.1010	8	26.851	0	406.142	0	62.9	4	20.8	4	-1E+10	1	-1E+10	1	-1E+10	1	-1E+10	1	-1E+10	1	-1E+10	1
4901784	106	C	05/30/2018	10:48	-132.512	43.110	0	412.30	0	5.9280	0	34.1000	8	26.855	0	408.617	0	62.9	4	20.8	4	-1E+10	1	-1E+10	1	-1E+10	1	-1E+10	1	-1E+10	1	-1E+10	1
4901784	106	C	05/30/2018	10:48	-132.512	43.110	0	414.80	0	5.9220	0	34.1000	8	26.856	0	411.092	0	62.9	4	20.8	4	-1E+10	1	-1E+10	1	-1E+10	1	-1E+10	1	-1E+10	1	-1E+10	1
4901784	106	C	05/30/2018	10:48	-132.512	43.110	0	417.30	0	5.8900	0	34.1000	8	26.860	0	413.567	0	62.8	4	20.7	4	-1E+10	1	-1E+10	1	-1E+10	1	-1E+10	1	-1E+10	1	-1E+10	1
4901784	106	C	05/30/2018	10:48	-132.512	43.110	0	419.90	0	5.8530	0	34.0980	8	26.863	0	416.142	0	62.8	4	20.7	4	-1E+10	1	-1E+10	1	-1E+10	1	-1E+10	1	-1E+10	1	-1E+10	1
4901784	106	C	05/30/2018	10:48	-132.512	43.110	0	422.40	0	5.8190	0	34.0990	8	26.868	0	418.617	0	62.7	4	20.7	4	-1E+10	1	-1E+10	1	-1E+10	1	-1E+10	1	-1E+10	1	-1E+10	1
4901784	106	C	05/30/2018	10:48	-132.512	43.110	0	425.00	0	5.8010	0	34.0980	8	26.869	0	421.191	0	62.5	4	20.6	4	-1E+10	1	-1E+10	1	-1E+10	1	-1E+10	1	-1E+10	1	-1E+10	1
4901784	106	C	05/30/2018	10:48	-132.512	43.110	0	427.50	0	5.7800	0	34.0980	8	26.872	0	423.666	0	62.3	4	20.5	4	-1E+10	1	-1E+10	1	-1E+10	1	-1E+10	1	-1E+10	1	-1E+10	1
4901784	106	C	05/30/2018	10:48	-132.512	43.110	0	430.10	0	5.7570	0	34.0960	8	26.873	0	426.240	0	62.1	4	20.4	4	-1E+10	1	-1E+10	1	-1E+10	1	-1E+10	1	-1E+10	1	-1E+10	1
4901784	106	C	05/30/2018	10:48	-132.512	43.110	0	432.60	0	5.7030	0	34.0970	8	26.881	0	428.715	0	61.7	4	20.3	4	-1E+10	1	-1E+10	1	-1E+10	1	-1E+10	1	-1E+10	1	-1E+10	1
4901784	106	C	05/30/2018	10:48	-132.512	43.110	0	435.10	0	5.6190	0	34.0980	8	26.892	0	431.190	0	61.6	4	20.2	4	-1E+10	1	-1E+10	1	-1E+10	1	-1E+10	1	-1E+10	1	-1E+10	1
4901784	106	C	05/30/2018	10:48	-132.512	43.110	0	437.60	0	5.5610	0	34.0980	8	26.899	0	433.665	0	61.6	4	20.2	4	-1E+10	1	-1E+10	1	-1E+10	1	-1E+10	1	-1E+10	1	-1E+10	1
4901784	106	C	05/30/2018	10:48	-132.512	43.110	0	440.10	0	5.5370	0	34.0980	8	26.902	0	436.140	0	61.5	4	20.1	4	-1E+10	1	-1E+10	1	-1E+10	1	-1E+10	1	-1E+10	1	-1E+10	1
4901784	106	C	05/30/2018	10:48	-132.512	43.110	0	442.60	0	5.5110	0	34.0970	8	26.904	0	438.614	0	61.4	4	20.1	4	-1E+10	1	-1E+10	1	-1E+10	1	-1E+10	1	-1E+10	1	-1E+10	1
4901784	106	C	05/30/2018	10:48	-132.512	43.110	0	445.00	0	5.4800	0	34.0970	8	26.908	0	440.990	0	61.3	4	20.0	4	-1E+10	1	-1E+10	1	-1E+10	1	-1E+10	1	-1E+10	1	-1E+10	1
4901784	106	C	05/30/2018	10:48	-132.512	43.110	0	447.60	0	5.4260	0	34.0980	8	26.915	0	443.564	0	61.2	4	20.0	4	-1E+10	1	-1E+10	1	-1E+10	1	-1E+10	1	-1E+10	1	-1E+10	1
4901784	106	C	05/30/2018	10:48	-132.512	43.110	0	450.20	0	5.3770	0	34.0980	8	26.921	0	446.138	0	61.1	4	19.9	4	-1E+10	1	-1E+10	1	-1E+10	1	-1E+10	1	-1E+10	1	-1E+10	1
4901784	106	C	05/30/2018	10:48	-132.512	43.110	0	452.80	0	5.3600	0	34.0970	8	26.922	0	448.712	0	61.2	4	19.9	4	-1E+10	1	-1E+10	1	-1E+10	1	-1E+10	1	-1E+10	1	-1E+10	1
4901784	106	C	05/30/2018	10:48	-132.512	43.110	0	455.30	0	5.3400	0	34.0940	8	26.922	0	451.186	0	61.1	4	19.9	4	-1E+10	1	-1E+10	1	-1E+10	1	-1E+10	1	-1E+10	1	-1E+10	1
4901784	106	C	05/30/2018	10:48	-132.512	43.110	0	457.80	0	5.2600	0	34.0970	8	26.934	0	453.661	0	60.9	4	19.8	4	-1E+10	1	-1E+10	1	-1E+10	1	-1E+10	1	-1E+10	1	-1E+10	1
4901784	106	C	05/30/2018	10:48	-132.512	43.110	0	460.30	0	5.2180	0	34.0980	8	26.939	0	456.136	0	60.7	4	19.7	4	-1E+10	1	-1E+10	1	-1E+10	1	-1E+10	1	-1E+10	1	-1E+10	1
4901784	106	C	05/30/2018	10:48	-132.512	43.110	0	462.90	0	5.1900	0	34.0990	8	26.943	0	458.709	0	60.7	4	19.7	4	-1E+10	1	-1E+10	1	-1E+10	1	-1E+10	1	-1E+10	1	-1E+10	1
4901784	106	C	05/30/2018	10:48	-132.512	43.110	0	465.50	0	5.1780	0	34.0980	8	26.944	0	461.283	0	60.6	4	19.7	4	-1E+10	1	-1E+10	1	-1E+10	1	-1E+10	1	-1E+10	1	-1E+10	1
4901784	106	C	05/30/2018	10:48	-132.512	43.110	0	467.30	0	5.1750	0	34.0960	8	26.943	0	463.064	0	60.5	4	19.6	4	-1E+10	1	-1E+10	1	-1E+10	1	-1E+10	1	-1E+10	1	-1E+10	1
4901784	106	C	05/30/2018	10:48	-132.512	43.110	0	469.80	0	5.1440	0	34.0960	8	26.946	0	465.539	0	60.2	4	19.5	4	-1E+10	1	-1E+10	1	-1E+10	1	-1E+10	1	-1E+10	1	-1E+10	1
4901784	106	C	05/30/2018	10:48	-132.512	43.110	0	472.40	0	5.0820	0	34.0980	8	26.955	0	468.112	0	59.9	4	19.4	4	-1E+10	1	-1E+10	1	-1E+10	1	-1E+10	1	-1E+10	1	-1E+10	1
4901784	106	C	05/30/2018	10:48	-132.512	43.110	0	475.10	0	5.0330	0	34.0990	8	26.962	0	470.785	0	59.9	4	19.4	4	-1E+10	1	-1E+10	1	-1E+10	1	-1E+10	1	-1E+10	1	-1E+10	1
4901784	106	C	05/30/2018	10:48	-132.512	43.110	0	477.70	0	5.0030	0	34.1000	8	26.966	0	473.358	0	59.9	4	19.3	4	-1E+10	1	-1E+10	1	-1E+10	1	-1E+10	1	-1E+10	1	-1E+10	1
4901784	106	C	05/30/2018	10:48	-132.512	43.110	0	479.50	0	4.9930	0	34.0990	8	26.966	0	475.140	0	59.8	4	19.3	4	-1E+10	1	-1E+10	1	-1E+10	1	-1E+10	1	-1E+10	1	-1E+10	1
4901784	106	C	05/30/2018	10:48	-132.512	43.110	0	482.20	0	4.9770	0	34.0990	8	26.968	0	477.812	0	59.7	4	19.3	4	-1E+10	1	-1E+10	1	-1E+10	1	-1E+10	1	-1E+10	1	-1E+10	1
4901784	106	C	05/30/2018	10:48	-132.512	43.110	0	484.90	0	4.9450	0	34.0960	8	26.969	0	480.485	0	59.3	4	19.2	4	-1E+10	1	-1E+10	1	-1E+10	1	-1E+10	1	-1E+10	1	-1E+10	1
4901784	106	C	05/30/2018	10:48	-132.512	43.110	0	487.60	0	4.8750	0	34.0990	8	26.980	0	483.157	0	58.9	4	19.0	4	-1E+10	1	-1E+10	1	-1E+10	1	-1E+10	1	-1E+10	1	-1E+10	1
4901784	106	C	05/30/2018	10:48	-132.512	43.110	0	490.30	0	4.8480	0	34.1000	8	26.983	0	485.829	0	58.4	4	18.8	4	-1E+10	1	-1E+10	1	-1E+10	1	-1E+10	1	-1E+10	1	-1E+10	1
4901784	106	C	05/30/2018	10:48	-132.512	43.110	0	492.10	0	4.8320	0	34.1020	8	26.987	0	487.611	0	57.8	4	18.6	4	-1E+10	1	-1E+10	1	-1E+10	1	-1E+10	1	-1E+10	1	-1E+10	1
4901784	106	C	05/30/2018	10:48	-132.512	43.110	0	494.80	0	4.7980	0	34.1070	8	26.995	0	490.283	0	57.0	4	18.3	4	-1E+10	1	-1E+10	1	-1E+10	1	-1E+10	1	-1E+10	1	-1E+10	1
4901784	106	C	05/30/2018	10:48	-132.512	43.110	0	497.50	0	4.7820	0	34.1100	8	26.999	0	492.955	0	56.4	4	18.1	4	-1E+10	1	-1E+10	1	-1E+10	1	-1E+10	1	-1E+10	1	-1E+10	1
4901784	106	C	05/30/2018	10:48	-132.512	43.110	0	500.10	0	4.7770	0	34.1120	8	27.001	0	495.528	0	56.0	4	18.0	4	-1E+10	1	-1E+10	1	-1E+10	1	-1E+10	1	-1E+10	1	-1E+10	1
4901784	106	C	05/30/2018	10:48	-132.512	43.110	0	505.00	0	4.7720	0	34.1120	8	27.001	0	500.377	0	55.1	4	17.7	4	-1E+10	1	-1E+10	1	-1E+10	1	-1E+10	1	-1E+10	1	-1E+10	1
4901784	106	C	05/30/2018	10:48	-132.512	43.110	0	510.10	0	4.7510	0	34.1160	8	27.007	0	505.424	0	53.0	4	17.0	4	-1E+10	1	-1E+10	1	-1E+10	1	-1E+10	1	-1E+10	1	-1E+10	1
4901784	106	C	05/30/2018	10:48	-132.512	43.110	0	514.80	0	4.7100	0	34.1240	8	27.018	0	510.076	0	51.1	4	16.4	4	-1E+10	1	-1E+10	1	-1E+10	1	-1E+10	1	-1E+10	1	-1E+10	1
4901784	106	C	05/30/2018	10:48	-132.512	43.110	0	519.60	0	4.6700	0	34.1310	8	27.028	0	514.826	0	49.9	4	16.0	4	-1E+10	1	-1E+10	1	-1E+10	1	-1E+10	1	-1E+10	1	-1E+10	1
4901784	106	C	05/30/2018	10:48	-132.512	43.110	0	524.40	0	4.6490	0	34.1340	8	27.033	0	519.576	0	49.0	4	15.7	4	-1E+10	1	-1E+10	1	-1E+10	1	-1E+10	1	-1E+10	1	-1E+10	1
4901784	106	C	05/30/2018	10:48	-132.512	43.110	0	529.30	0	4.6240	0	34.1360	8	27.037	0	524.424	0	48.0	4	15.4	4	-1E+10	1	-1E+10	1	-1E+10	1	-1E+10	1	-1E+10	1	-1E+10	1
4901784	106	C	05/30/2018	10:48	-132.512	43.110	0	534.20	0	4.5900	0	34.1430	8	27.046	0	529.273	0	46.9	4	15.0	4	-1E+10	1	-1E+10	1	-1E+10	1	-1E+10	1	-1E+10	1	-1E+10	1
4901784	106	C	05/30/2018	10:48	-132.512	43.110	0	539.20	0	4.5650	0	34.1480	8	27.053	0	534.220	0	46.0	4	14.7	4	-1E+10	1	-1E+10	1	-1E+10	1	-1E+10	1	-1E+10	1	-1E+10	1
4901784	106	C	05/30/2018	10:48	-132.512	43.110	0	544.30	0	4.5570	0	34.1490	8	27.055	0	539.267	0	45.2	4	14.5	4	-1E+10	1	-1E+10	1	-1E+10	1	-1E+10	1	-1E+10	1	-1E+10	1
4901784	106	C	05/30/2018	10:48	-132.512	43.110	0	549.40	0	4.5390	0	34.1530	8	27.060	0	544.313	0	44.1	4	14.1	4	-1E+10	1	-1E+10	1	-1E+10	1	-1E+10	1	-1E+10	1	-1E+10	1
4901784	106	C	05/30/2018	10:48	-132.512	43.110	0	554.50	0	4.5090	0	34.1590	8	27.068	0	549.359	0	42.9	4	13.7	4	-1E+10	1	-1E+10	1	-1E+10	1	-1E+10	1	-1E+10	1	-1E+10	1
4901784	106	C	05/30/2018	10:48	-132.512	43.110	0	559.70	0	4.4910	0	34.1630	8	27.073	0	554.504	0	42.0	4	13.4	4	-1E+10	1	-1E+10	1	-1E+10	1	-1E+10	1	-1E+10	1	-1E+10	1
4901784	106	C	05/30/2018	10:48	-132.512	43.110	0	564.80	0	4.4700	0	34.1690	8	27.080	0	559.550	0	40.6	4	13.0	4	-1E+10	1	-1E+10	1	-1E+10	1	-1E+10	1	-1E+10	1	-1E+10	1
4901784	106	C	05/30/2018	10:48	-132.512	43.110	0	569.90	0	4.4510	0	34.1740	8	27.086	0	564.595	0	39.5	4	12.6	4	-1E+10	1	-1E+10	1	-1E+10	1	-1E+10	1	-1E+10	1	-1E+10	1
4901784	106	C	05/30/2018	10:48	-132.512	43.110	0	574.90	0	4.4190	0	34.1810	8	27.095	0	569.542	0	38.3	4	12.2	4	-1E+10	1	-1E+10	1	-1E+10	1	-1E+10	1	-1E+10	1	-1E+10	1
4901784	106	C	05/30/2018	10:48	-132.512	43.110	0	580.00	0	4.4020	0	34.1870	8	27.102	0	574.587	0	37.3	4	11.9	4	-1E+10	1	-1E+10	1	-1E+10	1	-1E+10	1	-1E+10	1	-1E+10	1
4901784	106	C	05/30/2018	10:48	-132.512	43.110	0	585.10	0	4.3940	0	34.1910	8	27.106	0	579.633	0	36.5	4	11.6	4	-1E+10	1	-1E+10	1	-1E+10	1	-1E+10	1	-1E+10	1	-1E+10	1
4901784	106	C	05/30/2018	10:48	-132.512	43.110	0	590.20	0	4.3840	0	34.1950	8	27.110	0	584.678	0	35.5	4	11.3	4	-1E+10	1	-1E+10	1	-1E+10	1	-1E+10	1	-1E+10	1	-1E+10	1
4901784	106	C	05/30/2018	10:48	-132.512	43.110	0	595.30	0	4.3780	0	34.1990	8	27.114	0	589.723	0	34.5	4	11.0	4	-1E+10	1	-1E+10	1	-1E+10	1	-1E+10	1	-1E+10	1	-1E+10	1
4901784	106	C	05/30/2018	10:48	-132.512	43.110	0	600.50	0	4.3740	0	34.2040	8	27.119	0	594.867	0	33.3	4	10.6	4	-1E+10	1	-1E+10	1	-1E+10	1	-1E+10	1	-1E+10	1	-1E+10	1
4901784	106	C	05/30/2018	10:48	-132.512	43.110	0	605.70	0	4.3740	0	34.2080	8	27.122	0	600.010	0	31.5	4	10.0	4	-1E+10	1	-1E+10	1	-1E+10	1	-1E+10	1	-1E+10	1	-1E+10	1
4901784	106	C	05/30/2018	10:48	-132.512	43.110	0	610.00	0	4.3810	0	34.2180	8	27.129	0	604.264	0	29.3	4	9.3	4	-1E+10	1	-1E+10	1	-1E+10	1	-1E+10	1	-1E+10	1	-1E+10	1
4901784	106	C	05/30/2018	10:48	-132.512	43.110	0	614.30	0	4.3910	0	34.2310	8	27.138	0	608.517	0	27.4	4	8.7	4	-1E+10	1	-1E+10	1	-1E+10	1	-1E+10	1	-1E+10	1	-1E+10	1
4901784	106	C	05/30/2018	10:48	-132.512	43.110	0	619.50	0	4.3860	0	34.2420	8	27.148	0	613.660	0	26.4	4	8.4	4	-1E+10	1	-1E+10	1	-1E+10	1	-1E+10	1	-1E+10	1	-1E+10	1
4901784	106	C	05/30/2018	10:48	-132.512	43.110	0	624.80	0	4.3800	0	34.2450	8	27.151	0	618.903	0	26.1	4	8.3	4	-1E+10	1	-1E+10	1	-1E+10	1	-1E+10	1	-1E+10	1	-1E+10	1
4901784	106	C	05/30/2018	10:48	-132.512	43.110	0	630.00	0	4.3710	0	34.2470	8	27.153	0	624.046	0	25.8	4	8.2	4	-1E+10	1	-1E+10	1	-1E+10	1	-1E+10	1	-1E+10	1	-1E+10	1
4901784	106	C	05/30/2018	10:48	-132.512	43.110	0	635.30	0	4.3610	0	34.2480	8	27.155	0	629.288	0	25.4	4	8.1	4	-1E+10	1	-1E+10	1	-1E+10	1	-1E+10	1	-1E+10	1	-1E+10	1
4901784	106	C	05/30/2018	10:48	-132.512	43.110	0	640.50	0	4.3490	0	34.2540	8	27.161	0	634.430	0	25.0	4	8.0	4	-1E+10	1	-1E+10	1	-1E+10	1	-1E+10	1	-1E+10	1	-1E+10	1
4901784	106	C	05/30/2018	10:48	-132.512	43.110	0	645.70	0	4.3350	0	34.2550	8	27.164	0	639.573	0	25.2	4	8.0	4	-1E+10	1	-1E+10	1	-1E+10	1	-1E+10	1	-1E+10	1	-1E+10	1
4901784	106	C	05/30/2018	10:48	-132.512	43.110	0	650.10	0	4.2950	0	34.2570	8	27.169	0	643.925	0	25.4	4	8.1	4	-1E+10	1	-1E+10	1	-1E+10	1	-1E+10	1	-1E+10	1	-1E+10	1
4901784	106	C	05/30/2018	10:48	-132.512	43.110	0	654.40	0	4.2750	0	34.2600	8	27.174	0	648.177	0	25.4	4	8.1	4	-1E+10	1	-1E+10	1	-1E+10	1	-1E+10	1	-1E+10	1	-1E+10	1
4901784	106	C	05/30/2018	10:48	-132.512	43.110	0	659.70	0	4.2540	0	34.2620	8	27.178	0	653.418	0	25.4	4	8.1	4	-1E+10	1	-1E+10	1	-1E+10	1	-1E+10	1	-1E+10	1	-1E+10	1
4901784	106	C	05/30/2018	10:48	-132.512	43.110	0	665.00	0	4.2530	0	34.2620	8	27.178	0	658.660	0	25.1	4	8.0	4	-1E+10	1	-1E+10	1	-1E+10	1	-1E+10	1	-1E+10	1	-1E+10	1
4901784	106	C	05/30/2018	10:48	-132.512	43.110	0	670.30	0	4.2220	0	34.2670	8	27.185	0	663.901	0	24.6	4	7.8	4	-1E+10	1	-1E+10	1	-1E+10	1	-1E+10	1	-1E+10	1	-1E+10	1
4901784	106	C	05/30/2018	10:48	-132.512	43.110	0	674.80	0	4.2000	0	34.2710	8	27.191	0	668.350	0	24.1	4	7.7	4	-1E+10	1	-1E+10	1	-1E+10	1	-1E+10	1	-1E+10	1	-1E+10	1
4901784	106	C	05/30/2018	10:48	-132.512	43.110	0	679.30	0	4.1750	0	34.2760	8	27.197	0	672.800	0	23.4	4	7.4	4	-1E+10	1	-1E+10	1	-1E+10	1	-1E+10	1	-1E+10	1	-1E+10	1
4901784	106	C	05/30/2018	10:48	-132.512	43.110	0	684.90	0	4.1460	0	34.2810	8	27.204	0	678.338	0	22.5	4	7.1	4	-1E+10	1	-1E+10	1	-1E+10	1	-1E+10	1	-1E+10	1	-1E+10	1
4901784	106	C	05/30/2018	10:48	-132.512	43.110	0	690.50	0	4.1130	0	34.2890	8	27.214	0	683.875	0	21.6	4	6.8	4	-1E+10	1	-1E+10	1	-1E+10	1	-1E+10	1	-1E+10	1	-1E+10	1
4901784	106	C	05/30/2018	10:48	-132.512	43.110	0	695.10	0	4.0960	0	34.2940	8	27.220	0	688.423	0	21.1	4	6.7	4	-1E+10	1	-1E+10	1	-1E+10	1	-1E+10	1	-1E+10	1	-1E+10	1
4901784	106	C	05/30/2018	10:48	-132.512	43.110	0	699.70	0	4.0860	0	34.2970	8	27.223	0	692.971	0	20.7	4	6.5	4	-1E+10	1	-1E+10	1	-1E+10	1	-1E+10	1	-1E+10	1	-1E+10	1
4901784	106	C	05/30/2018	10:48	-132.512	43.110	0	705.20	0	4.0690	0	34.3000	8	27.228	0	698.409	0	20.0	4	6.3	4	-1E+10	1	-1E+10	1	-1E+10	1	-1E+10	1	-1E+10	1	-1E+10	1
4901784	106	C	05/30/2018	10:48	-132.512	43.110	0	709.80	0	4.0450	0	34.3080	8	27.237	0	702.957	0	19.4	4	6.1	4	-1E+10	1	-1E+10	1	-1E+10	1	-1E+10	1	-1E+10	1	-1E+10	1
4901784	106	C	05/30/2018	10:48	-132.512	43.110	0	714.50	0	4.0230	0	34.3150	8	27.244	0	707.604	0	19.0	4	6.0	4	-1E+10	1	-1E+10	1	-1E+10	1	-1E+10	1	-1E+10	1	-1E+10	1
4901784	106	C	05/30/2018	10:48	-132.512	43.110	0	719.70	0	4.0110	0	34.3190	8	27.249	0	712.745	0	18.5	4	5.9	4	-1E+10	1	-1E+10	1	-1E+10	1	-1E+10	1	-1E+10	1	-1E+10	1
4901784	106	C	05/30/2018	10:48	-132.512	43.110	0	724.50	0	3.9990	0	34.3220	8	27.252	0	717.490	0	18.3	4	5.8	4	-1E+10	1	-1E+10	1	-1E+10	1	-1E+10	1	-1E+10	1	-1E+10	1
4901784	106	C	05/30/2018	10:48	-132.512	43.110	0	729.30	0	3.9940	0	34.3230	8	27.254	0	722.235	0	18.2	4	5.8	4	-1E+10	1	-1E+10	1	-1E+10	1	-1E+10	1	-1E+10	1	-1E+10	1
4901784	106	C	05/30/2018	10:48	-132.512	43.110	0	735.00	0	3.9820	0	34.3250	8	27.257	0	727.870	0	17.9	4	5.7	4	-1E+10	1	-1E+10	1	-1E+10	1	-1E+10	1	-1E+10	1	-1E+10	1
4901784	106	C	05/30/2018	10:48	-132.512	43.110	0	740.80	0	3.9610	0	34.3270	8	27.260	0	733.604	0	17.3	4	5.5	4	-1E+10	1	-1E+10	1	-1E+10	1	-1E+10	1	-1E+10	1	-1E+10	1
4901784	106	C	05/30/2018	10:48	-132.512	43.110	0	745.70	0	3.9300	0	34.3370	8	27.272	0	738.447	0	16.6	4	5.2	4	-1E+10	1	-1E+10	1	-1E+10	1	-1E+10	1	-1E+10	1	-1E+10	1
4901784	106	C	05/30/2018	10:48	-132.512	43.110	0	750.70	0	3.9110	0	34.3430	8	27.278	0	743.390	0	16.1	4	5.1	4	-1E+10	1	-1E+10	1	-1E+10	1	-1E+10	1	-1E+10	1	-1E+10	1
4901784	106	C	05/30/2018	10:48	-132.512	43.110	0	754.90	0	3.9000	0	34.3470	8	27.283	0	747.541	0	15.8	4	5.0	4	-1E+10	1	-1E+10	1	-1E+10	1	-1E+10	1	-1E+10	1	-1E+10	1
4901784	106	C	05/30/2018	10:48	-132.512	43.110	0	759.20	0	3.8910	0	34.3490	8	27.285	0	751.792	0	15.5	4	4.9	4	-1E+10	1	-1E+10	1	-1E+10	1	-1E+10	1	-1E+10	1	-1E+10	1
4901784	106	C	05/30/2018	10:48	-132.512	43.110	0	764.40	0	3.8760	0	34.3540	8	27.291	0	756.932	0	15.1	4	4.8	4	-1E+10	1	-1E+10	1	-1E+10	1	-1E+10	1	-1E+10	1	-1E+10	1
4901784	106	C	05/30/2018	10:48	-132.512	43.110	0	769.60	0	3.8660	0	34.3580	8	27.295	0	762.071	0	14.8	4	4.7	4	-1E+10	1	-1E+10	1	-1E+10	1	-1E+10	1	-1E+10	1	-1E+10	1
4901784	106	C	05/30/2018	10:48	-132.512	43.110	0	774.80	0	3.8550	0	34.3620	8	27.299	0	767.211	0	14.4	4	4.5	4	-1E+10	1	-1E+10	1	-1E+10	1	-1E+10	1	-1E+10	1	-1E+10	1
4901784	106	C	05/30/2018	10:48	-132.512	43.110	0	780.10	0	3.8420	0	34.3660	8	27.304	0	772.449	0	14.0	4	4.4	4	-1E+10	1	-1E+10	1	-1E+10	1	-1E+10	1	-1E+10	1	-1E+10	1
4901784	106	C	05/30/2018	10:48	-132.512	43.110	0	785.10	0	3.8200	0	34.3730	8	27.312	0	777.391	0	13.6	4	4.3	4	-1E+10	1	-1E+10	1	-1E+10	1	-1E+10	1	-1E+10	1	-1E+10	1
4901784	106	C	05/30/2018	10:48	-132.512	43.110	0	790.10	0	3.8010	0	34.3790	8	27.318	0	782.332	0	13.3	4	4.2	4	-1E+10	1	-1E+10	1	-1E+10	1	-1E+10	1	-1E+10	1	-1E+10	1
4901784	106	C	05/30/2018	10:48	-132.512	43.110	0	795.20	0	3.7900	0	34.3820	8	27.322	0	787.373	0	13.1	4	4.1	4	-1E+10	1	-1E+10	1	-1E+10	1	-1E+10	1	-1E+10	1	-1E+10	1
4901784	106	C	05/30/2018	10:48	-132.512	43.110	0	800.50	0	3.7720	0	34.3880	8	27.328	0	792.610	0	12.8	4	4.0	4	-1E+10	1	-1E+10	1	-1E+10	1	-1E+10	1	-1E+10	1	-1E+10	1
4901784	106	C	05/30/2018	10:48	-132.512	43.110	0	805.00	0	3.7620	0	34.3930	8	27.333	0	797.057	0	12.5	4	3.9	4	-1E+10	1	-1E+10	1	-1E+10	1	-1E+10	1	-1E+10	1	-1E+10	1
4901784	106	C	05/30/2018	10:48	-132.512	43.110	0	809.40	0	3.7490	0	34.3990	8	27.340	0	801.406	0	12.2	4	3.8	4	-1E+10	1	-1E+10	1	-1E+10	1	-1E+10	1	-1E+10	1	-1E+10	1
4901784	106	C	05/30/2018	10:48	-132.512	43.110	0	814.80	0	3.7480	0	34.4030	8	27.343	0	806.742	0	11.9	4	3.8	4	-1E+10	1	-1E+10	1	-1E+10	1	-1E+10	1	-1E+10	1	-1E+10	1
4901784	106	C	05/30/2018	10:48	-132.512	43.110	0	820.30	0	3.7480	0	34.4110	8	27.349	0	812.177	0	11.5	4	3.6	4	-1E+10	1	-1E+10	1	-1E+10	1	-1E+10	1	-1E+10	1	-1E+10	1
4901784	106	C	05/30/2018	10:48	-132.512	43.110	0	824.80	0	3.7620	0	34.4190	8	27.354	0	816.623	0	11.3	4	3.6	4	-1E+10	1	-1E+10	1	-1E+10	1	-1E+10	1	-1E+10	1	-1E+10	1
4901784	106	C	05/30/2018	10:48	-132.512	43.110	0	829.40	0	3.7730	0	34.4230	8	27.356	0	821.169	0	11.1	4	3.5	4	-1E+10	1	-1E+10	1	-1E+10	1	-1E+10	1	-1E+10	1	-1E+10	1
4901784	106	C	05/30/2018	10:48	-132.512	43.110	0	834.90	0	3.7770	0	34.4330	8	27.364	0	826.603	0	10.8	4	3.4	4	-1E+10	1	-1E+10	1	-1E+10	1	-1E+10	1	-1E+10	1	-1E+10	1
4901784	106	C	05/30/2018	10:48	-132.512	43.110	0	840.50	0	3.7790	0	34.4410	8	27.370	0	832.136	0	10.7	4	3.4	4	-1E+10	1	-1E+10	1	-1E+10	1	-1E+10	1	-1E+10	1	-1E+10	1
4901784	106	C	05/30/2018	10:48	-132.512	43.110	0	845.30	0	3.7800	0	34.4420	8	27.371	0	836.879	0	10.6	4	3.3	4	-1E+10	1	-1E+10	1	-1E+10	1	-1E+10	1	-1E+10	1	-1E+10	1
4901784	106	C	05/30/2018	10:48	-132.512	43.110	0	850.00	0	3.7910	0	34.4470	8	27.374	0	841.523	0	10.5	4	3.3	4	-1E+10	1	-1E+10	1	-1E+10	1	-1E+10	1	-1E+10	1	-1E+10	1
4901784	106	C	05/30/2018	10:48	-132.512	43.110	0	855.50	0	3.7860	0	34.4500	8	27.377	0	846.957	0	10.5	4	3.3	4	-1E+10	1	-1E+10	1	-1E+10	1	-1E+10	1	-1E+10	1	-1E+10	1
4901784	106	C	05/30/2018	10:48	-132.512	43.110	0	860.30	0	3.7680	0	34.4510	8	27.379	0	851.699	0	10.5	4	3.3	4	-1E+10	1	-1E+10	1	-1E+10	1	-1E+10	1	-1E+10	1	-1E+10	1
4901784	106	C	05/30/2018	10:48	-132.512	43.110	0	865.20	0	3.7670	0	34.4550	8	27.383	0	856.540	0	10.5	4	3.3	4	-1E+10	1	-1E+10	1	-1E+10	1	-1E+10	1	-1E+10	1	-1E+10	1
4901784	106	C	05/30/2018	10:48	-132.512	43.110	0	870.30	0	3.7700	0	34.4590	8	27.386	0	861.579	0	10.5	4	3.3	4	-1E+10	1	-1E+10	1	-1E+10	1	-1E+10	1	-1E+10	1	-1E+10	1
4901784	106	C	05/30/2018	10:48	-132.512	43.110	0	875.40	0	3.7710	0	34.4600	8	27.386	0	866.617	0	10.4	4	3.3	4	-1E+10	1	-1E+10	1	-1E+10	1	-1E+10	1	-1E+10	1	-1E+10	1
4901784	106	C	05/30/2018	10:48	-132.512	43.110	0	880.70	0	3.7740	0	34.4640	8	27.389	0	871.853	0	10.4	4	3.3	4	-1E+10	1	-1E+10	1	-1E+10	1	-1E+10	1	-1E+10	1	-1E+10	1
4901784	106	C	05/30/2018	10:48	-132.512	43.110	0	885.80	0	3.7560	0	34.4700	8	27.396	0	876.891	0	10.4	4	3.3	4	-1E+10	1	-1E+10	1	-1E+10	1	-1E+10	1	-1E+10	1	-1E+10	1
4901784	106	C	05/30/2018	10:48	-132.512	43.110	0	890.00	0	3.7330	0	34.4710	8	27.399	0	881.040	0	10.4	4	3.3	4	-1E+10	1	-1E+10	1	-1E+10	1	-1E+10	1	-1E+10	1	-1E+10	1
4901784	106	C	05/30/2018	10:48	-132.512	43.110	0	894.40	0	3.7140	0	34.4720	8	27.402	0	885.386	0	10.5	4	3.3	4	-1E+10	1	-1E+10	1	-1E+10	1	-1E+10	1	-1E+10	1	-1E+10	1
4901784	106	C	05/30/2018	10:48	-132.512	43.110	0	899.60	0	3.7040	0	34.4720	8	27.403	0	890.523	0	10.5	4	3.3	4	-1E+10	1	-1E+10	1	-1E+10	1	-1E+10	1	-1E+10	1	-1E+10	1
4901784	106	C	05/30/2018	10:48	-132.512	43.110	0	904.90	0	3.6840	0	34.4710	8	27.404	0	895.758	0	10.4	4	3.3	4	-1E+10	1	-1E+10	1	-1E+10	1	-1E+10	1	-1E+10	1	-1E+10	1
4901784	106	C	05/30/2018	10:48	-132.512	43.110	0	910.20	0	3.6390	0	34.4740	8	27.411	0	900.993	0	10.5	4	3.3	4	-1E+10	1	-1E+10	1	-1E+10	1	-1E+10	1	-1E+10	1	-1E+10	1
4901784	106	C	05/30/2018	10:48	-132.512	43.110	0	915.60	0	3.6330	0	34.4730	8	27.411	0	906.326	0	10.6	4	3.3	4	-1E+10	1	-1E+10	1	-1E+10	1	-1E+10	1	-1E+10	1	-1E+10	1
4901784	106	C	05/30/2018	10:48	-132.512	43.110	0	920.10	0	3.6210	0	34.4800	8	27.418	0	910.771	0	10.8	4	3.4	4	-1E+10	1	-1E+10	1	-1E+10	1	-1E+10	1	-1E+10	1	-1E+10	1
4901784	106	C	05/30/2018	10:48	-132.512	43.110	0	924.60	0	3.6110	0	34.4830	8	27.421	0	915.216	0	10.9	4	3.4	4	-1E+10	1	-1E+10	1	-1E+10	1	-1E+10	1	-1E+10	1	-1E+10	1
4901784	106	C	05/30/2018	10:48	-132.512	43.110	0	930.00	0	3.6000	0	34.4840	8	27.423	0	920.549	0	11.0	4	3.4	4	-1E+10	1	-1E+10	1	-1E+10	1	-1E+10	1	-1E+10	1	-1E+10	1
4901784	106	C	05/30/2018	10:48	-132.512	43.110	0	935.50	0	3.5700	0	34.4880	8	27.429	0	925.981	0	11.1	4	3.5	4	-1E+10	1	-1E+10	1	-1E+10	1	-1E+10	1	-1E+10	1	-1E+10	1
4901784	106	C	05/30/2018	10:48	-132.512	43.110	0	940.10	0	3.5560	0	34.4910	8	27.433	0	930.524	0	11.2	4	3.5	4	-1E+10	1	-1E+10	1	-1E+10	1	-1E+10	1	-1E+10	1	-1E+10	1
4901784	106	C	05/30/2018	10:48	-132.512	43.110	0	944.70	0	3.5390	0	34.4930	8	27.436	0	935.067	0	11.3	4	3.5	4	-1E+10	1	-1E+10	1	-1E+10	1	-1E+10	1	-1E+10	1	-1E+10	1
4901784	106	C	05/30/2018	10:48	-132.512	43.110	0	950.30	0	3.5190	0	34.4960	8	27.440	0	940.597	0	11.3	4	3.5	4	-1E+10	1	-1E+10	1	-1E+10	1	-1E+10	1	-1E+10	1	-1E+10	1
4901784	106	C	05/30/2018	10:48	-132.512	43.110	0	954.90	0	3.5170	0	34.4960	8	27.441	0	945.140	0	11.4	4	3.6	4	-1E+10	1	-1E+10	1	-1E+10	1	-1E+10	1	-1E+10	1	-1E+10	1
4901784	106	C	05/30/2018	10:48	-132.512	43.110	0	959.50	0	3.5050	0	34.4980	8	27.443	0	949.682	0	11.5	4	3.6	4	-1E+10	1	-1E+10	1	-1E+10	1	-1E+10	1	-1E+10	1	-1E+10	1
4901784	106	C	05/30/2018	10:48	-132.512	43.110	0	965.20	0	3.4850	0	34.5010	8	27.448	0	955.311	0	11.6	4	3.6	4	-1E+10	1	-1E+10	1	-1E+10	1	-1E+10	1	-1E+10	1	-1E+10	1
4901784	106	C	05/30/2018	10:48	-132.512	43.110	0	969.90	0	3.4740	0	34.5030	8	27.450	0	959.952	0	11.6	4	3.6	4	-1E+10	1	-1E+10	1	-1E+10	1	-1E+10	1	-1E+10	1	-1E+10	1
4901784	106	C	05/30/2018	10:48	-132.512	43.110	0	974.50	0	3.4660	0	34.5040	8	27.452	0	964.494	0	11.7	4	3.7	4	-1E+10	1	-1E+10	1	-1E+10	1	-1E+10	1	-1E+10	1	-1E+10	1
4901784	106	C	05/30/2018	10:48	-132.512	43.110	0	980.00	0	3.4570	0	34.5060	8	27.455	0	969.925	0	11.8	4	3.7	4	-1E+10	1	-1E+10	1	-1E+10	1	-1E+10	1	-1E+10	1	-1E+10	1
4901784	106	C	05/30/2018	10:48	-132.512	43.110	0	984.70	0	3.4490	0	34.5070	8	27.456	0	974.566	0	11.8	4	3.7	4	-1E+10	1	-1E+10	1	-1E+10	1	-1E+10	1	-1E+10	1	-1E+10	1
4901784	106	C	05/30/2018	10:48	-132.512	43.110	0	989.40	0	3.4370	0	34.5100	8	27.460	0	979.207	0	11.9	4	3.7	4	-1E+10	1	-1E+10	1	-1E+10	1	-1E+10	1	-1E+10	1	-1E+10	1
4901784	106	C	05/30/2018	10:48	-132.512	43.110	0	995.10	0	3.4260	0	34.5110	8	27.462	0	984.834	0	12.0	4	3.7	4	-1E+10	1	-1E+10	1	-1E+10	1	-1E+10	1	-1E+10	1	-1E+10	1
4901784	106	C	05/30/2018	10:48	-132.512	43.110	0	999.90	0	3.4110	0	34.5150	8	27.466	0	989.574	0	12.1	4	3.8	4	-1E+10	1	-1E+10	1	-1E+10	1	-1E+10	1	-1E+10	1	-1E+10	1
4901784	106	C	05/30/2018	10:48	-132.512	43.110	0	1004.70	0	3.4010	0	34.5170	8	27.469	0	994.313	0	12.2	4	3.8	4	-1E+10	1	-1E+10	1	-1E+10	1	-1E+10	1	-1E+10	1	-1E+10	1
4901784	106	C	05/30/2018	10:48	-132.512	43.110	0	1010.40	0	3.3920	0	34.5200	8	27.472	0	999.940	0	12.3	4	3.8	4	-1E+10	1	-1E+10	1	-1E+10	1	-1E+10	1	-1E+10	1	-1E+10	1
4901784	106	C	05/30/2018	10:48	-132.512	43.110	0	1015.10	0	3.3860	0	34.5210	8	27.473	0	1004.580	0	12.5	4	3.9	4	-1E+10	1	-1E+10	1	-1E+10	1	-1E+10	1	-1E+10	1	-1E+10	1
4901784	106	C	05/30/2018	10:48	-132.512	43.110	0	1019.80	0	3.3640	0	34.5280	8	27.481	0	1009.220	0	12.7	4	4.0	4	-1E+10	1	-1E+10	1	-1E+10	1	-1E+10	1	-1E+10	1	-1E+10	1
4901784	106	C	05/30/2018	10:48	-132.512	43.110	0	1025.50	0	3.3550	0	34.5300	8	27.484	0	1014.847	0	12.8	4	4.0	4	-1E+10	1	-1E+10	1	-1E+10	1	-1E+10	1	-1E+10	1	-1E+10	1
4901784	106	C	05/30/2018	10:48	-132.512	43.110	0	1030.30	0	3.3530	0	34.5300	8	27.484	0	1019.586	0	12.8	4	4.0	4	-1E+10	1	-1E+10	1	-1E+10	1	-1E+10	1	-1E+10	1	-1E+10	1
4901784	106	C	05/30/2018	10:48	-132.512	43.110	0	1035.00	0	3.3480	0	34.5320	8	27.486	0	1024.225	0	12.9	4	4.0	4	-1E+10	1	-1E+10	1	-1E+10	1	-1E+10	1	-1E+10	1	-1E+10	1
4901784	106	C	05/30/2018	10:48	-132.512	43.110	0	1040.60	0	3.3400	0	34.5340	8	27.488	0	1029.753	0	13.1	4	4.1	4	-1E+10	1	-1E+10	1	-1E+10	1	-1E+10	1	-1E+10	1	-1E+10	1
4901784	106	C	05/30/2018	10:48	-132.512	43.110	0	1045.40	0	3.3290	0	34.5370	8	27.492	0	1034.492	0	13.3	4	4.1	4	-1E+10	1	-1E+10	1	-1E+10	1	-1E+10	1	-1E+10	1	-1E+10	1
4901784	106	C	05/30/2018	10:48	-132.512	43.110	0	1049.90	0	3.3220	0	34.5390	8	27.494	0	1038.933	0	13.4	4	4.2	4	-1E+10	1	-1E+10	1	-1E+10	1	-1E+10	1	-1E+10	1	-1E+10	1
4901784	106	C	05/30/2018	10:48	-132.512	43.110	0	1054.70	0	3.3170	0	34.5410	8	27.496	0	1043.671	0	13.5	4	4.2	4	-1E+10	1	-1E+10	1	-1E+10	1	-1E+10	1	-1E+10	1	-1E+10	1
4901784	106	C	05/30/2018	10:48	-132.512	43.110	0	1059.60	0	3.3140	0	34.5420	8	27.497	0	1048.508	0	13.6	4	4.2	4	-1E+10	1	-1E+10	1	-1E+10	1	-1E+10	1	-1E+10	1	-1E+10	1
4901784	106	C	05/30/2018	10:48	-132.512	43.110	0	1064.50	0	3.3090	0	34.5430	8	27.499	0	1053.344	0	13.7	4	4.3	4	-1E+10	1	-1E+10	1	-1E+10	1	-1E+10	1	-1E+10	1	-1E+10	1
4901784	106	C	05/30/2018	10:48	-132.512	43.110	0	1069.40	0	3.3000	0	34.5450	8	27.501	0	1058.181	0	13.9	4	4.3	4	-1E+10	1	-1E+10	1	-1E+10	1	-1E+10	1	-1E+10	1	-1E+10	1
4901784	106	C	05/30/2018	10:48	-132.512	43.110	0	1074.30	0	3.2860	0	34.5470	8	27.504	0	1063.017	0	14.1	4	4.4	4	-1E+10	1	-1E+10	1	-1E+10	1	-1E+10	1	-1E+10	1	-1E+10	1
4901784	106	C	05/30/2018	10:48	-132.512	43.110	0	1080.00	0	3.2740	0	34.5510	8	27.508	0	1068.642	0	14.4	4	4.5	4	-1E+10	1	-1E+10	1	-1E+10	1	-1E+10	1	-1E+10	1	-1E+10	1
4901784	106	C	05/30/2018	10:48	-132.512	43.110	0	1085.70	0	3.2620	0	34.5530	8	27.511	0	1074.268	0	14.5	4	4.5	4	-1E+10	1	-1E+10	1	-1E+10	1	-1E+10	1	-1E+10	1	-1E+10	1
4901784	106	C	05/30/2018	10:48	-132.512	43.110	0	1090.70	0	3.2520	0	34.5550	8	27.514	0	1079.202	0	14.6	4	4.6	4	-1E+10	1	-1E+10	1	-1E+10	1	-1E+10	1	-1E+10	1	-1E+10	1
4901784	106	C	05/30/2018	10:48	-132.512	43.110	0	1095.70	0	3.2450	0	34.5570	8	27.516	0	1084.137	0	14.8	4	4.6	4	-1E+10	1	-1E+10	1	-1E+10	1	-1E+10	1	-1E+10	1	-1E+10	1
4901784	106	C	05/30/2018	10:48	-132.512	43.110	0	1100.70	0	3.2330	0	34.5580	8	27.518	0	1089.071	0	14.8	4	4.6	4	-1E+10	1	-1E+10	1	-1E+10	1	-1E+10	1	-1E+10	1	-1E+10	1
4901784	106	C	05/30/2018	10:48	-132.512	43.110	0	1105.10	0	3.2270	0	34.5600	8	27.520	0	1093.413	0	15.0	4	4.6	4	-1E+10	1	-1E+10	1	-1E+10	1	-1E+10	1	-1E+10	1	-1E+10	1
4901784	106	C	05/30/2018	10:48	-132.512	43.110	0	1109.50	0	3.2210	0	34.5610	8	27.522	0	1097.755	0	15.0	4	4.7	4	-1E+10	1	-1E+10	1	-1E+10	1	-1E+10	1	-1E+10	1	-1E+10	1
4901784	106	C	05/30/2018	10:48	-132.512	43.110	0	1115.20	0	3.2090	0	34.5620	8	27.523	0	1103.380	0	15.0	4	4.7	4	-1E+10	1	-1E+10	1	-1E+10	1	-1E+10	1	-1E+10	1	-1E+10	1
4901784	106	C	05/30/2018	10:48	-132.512	43.110	0	1120.00	0	3.1930	0	34.5620	8	27.525	0	1108.116	0	15.0	4	4.6	4	-1E+10	1	-1E+10	1	-1E+10	1	-1E+10	1	-1E+10	1	-1E+10	1
4901784	106	C	05/30/2018	10:48	-132.512	43.110	0	1124.80	0	3.1690	0	34.5650	8	27.530	0	1112.853	0	15.0	4	4.7	4	-1E+10	1	-1E+10	1	-1E+10	1	-1E+10	1	-1E+10	1	-1E+10	1
4901784	106	C	05/30/2018	10:48	-132.512	43.110	0	1129.70	0	3.1560	0	34.5670	8	27.532	0	1117.687	0	15.2	4	4.7	4	-1E+10	1	-1E+10	1	-1E+10	1	-1E+10	1	-1E+10	1	-1E+10	1
4901784	106	C	05/30/2018	10:48	-132.512	43.110	0	1134.60	0	3.1500	0	34.5680	8	27.534	0	1122.522	0	15.2	4	4.7	4	-1E+10	1	-1E+10	1	-1E+10	1	-1E+10	1	-1E+10	1	-1E+10	1
4901784	106	C	05/30/2018	10:48	-132.512	43.110	0	1139.50	0	3.1350	0	34.5690	8	27.536	0	1127.357	0	15.3	4	4.7	4	-1E+10	1	-1E+10	1	-1E+10	1	-1E+10	1	-1E+10	1	-1E+10	1
4901784	106	C	05/30/2018	10:48	-132.512	43.110	0	1144.50	0	3.1280	0	34.5710	8	27.538	0	1132.290	0	15.4	4	4.8	4	-1E+10	1	-1E+10	1	-1E+10	1	-1E+10	1	-1E+10	1	-1E+10	1
4901784	106	C	05/30/2018	10:48	-132.512	43.110	0	1149.40	0	3.1200	0	34.5710	8	27.539	0	1137.125	0	15.4	4	4.8	4	-1E+10	1	-1E+10	1	-1E+10	1	-1E+10	1	-1E+10	1	-1E+10	1
4901784	106	C	05/30/2018	10:48	-132.512	43.110	0	1154.40	0	3.1100	0	34.5730	8	27.542	0	1142.058	0	15.5	4	4.8	4	-1E+10	1	-1E+10	1	-1E+10	1	-1E+10	1	-1E+10	1	-1E+10	1
4901784	106	C	05/30/2018	10:48	-132.512	43.110	0	1159.40	0	3.1060	0	34.5740	8	27.543	0	1146.991	0	15.7	4	4.9	4	-1E+10	1	-1E+10	1	-1E+10	1	-1E+10	1	-1E+10	1	-1E+10	1
4901784	106	C	05/30/2018	10:48	-132.512	43.110	0	1164.40	0	3.1090	0	34.5750	8	27.543	0	1151.923	0	15.9	4	4.9	4	-1E+10	1	-1E+10	1	-1E+10	1	-1E+10	1	-1E+10	1	-1E+10	1
4901784	106	C	05/30/2018	10:48	-132.512	43.110	0	1169.50	0	3.1110	0	34.5750	8	27.543	0	1156.955	0	16.0	4	5.0	4	-1E+10	1	-1E+10	1	-1E+10	1	-1E+10	1	-1E+10	1	-1E+10	1
4901784	106	C	05/30/2018	10:48	-132.512	43.110	0	1174.50	0	3.1000	0	34.5760	8	27.545	0	1161.887	0	16.1	4	5.0	4	-1E+10	1	-1E+10	1	-1E+10	1	-1E+10	1	-1E+10	1	-1E+10	1
4901784	106	C	05/30/2018	10:48	-132.512	43.110	0	1179.60	0	3.0900	0	34.5780	8	27.548	0	1166.918	0	16.2	4	5.0	4	-1E+10	1	-1E+10	1	-1E+10	1	-1E+10	1	-1E+10	1	-1E+10	1
4901784	106	C	05/30/2018	10:48	-132.512	43.110	0	1184.80	0	3.0850	0	34.5780	8	27.548	0	1172.048	0	16.3	4	5.0	4	-1E+10	1	-1E+10	1	-1E+10	1	-1E+10	1	-1E+10	1	-1E+10	1
4901784	106	C	05/30/2018	10:48	-132.512	43.110	0	1190.10	0	3.0810	0	34.5790	8	27.549	0	1177.276	0	16.3	4	5.1	4	-1E+10	1	-1E+10	1	-1E+10	1	-1E+10	1	-1E+10	1	-1E+10	1
4901784	106	C	05/30/2018	10:48	-132.512	43.110	0	1195.50	0	3.0700	0	34.5800	8	27.551	0	1182.603	0	16.5	4	5.1	4	-1E+10	1	-1E+10	1	-1E+10	1	-1E+10	1	-1E+10	1	-1E+10	1
4901784	106	C	05/30/2018	10:48	-132.512	43.110	0	1200.00	0	3.0590	0	34.5820	8	27.554	0	1187.041	0	16.7	4	5.2	4	-1E+10	1	-1E+10	1	-1E+10	1	-1E+10	1	-1E+10	1	-1E+10	1
4901784	106	C	05/30/2018	10:48	-132.512	43.110	0	1204.40	0	3.0460	0	34.5830	8	27.556	0	1191.382	0	16.8	4	5.2	4	-1E+10	1	-1E+10	1	-1E+10	1	-1E+10	1	-1E+10	1	-1E+10	1
4901784	106	C	05/30/2018	10:48	-132.512	43.110	0	1209.90	0	3.0340	0	34.5850	8	27.558	0	1196.806	0	17.0	4	5.3	4	-1E+10	1	-1E+10	1	-1E+10	1	-1E+10	1	-1E+10	1	-1E+10	1
4901784	106	C	05/30/2018	10:48	-132.512	43.110	0	1215.30	0	3.0280	0	34.5860	8	27.560	0	1202.133	0	17.2	4	5.3	4	-1E+10	1	-1E+10	1	-1E+10	1	-1E+10	1	-1E+10	1	-1E+10	1
4901784	106	C	05/30/2018	10:48	-132.512	43.110	0	1219.90	0	3.0210	0	34.5880	8	27.562	0	1206.670	0	17.3	4	5.4	4	-1E+10	1	-1E+10	1	-1E+10	1	-1E+10	1	-1E+10	1	-1E+10	1
4901784	106	C	05/30/2018	10:48	-132.512	43.110	0	1224.50	0	3.0110	0	34.5890	8	27.564	0	1211.206	0	17.5	4	5.4	4	-1E+10	1	-1E+10	1	-1E+10	1	-1E+10	1	-1E+10	1	-1E+10	1
4901784	106	C	05/30/2018	10:48	-132.512	43.110	0	1230.00	0	2.9950	0	34.5910	8	27.567	0	1216.631	0	17.7	4	5.5	4	-1E+10	1	-1E+10	1	-1E+10	1	-1E+10	1	-1E+10	1	-1E+10	1
4901784	106	C	05/30/2018	10:48	-132.512	43.110	0	1235.40	0	2.9840	0	34.5920	8	27.569	0	1221.956	0	17.9	4	5.5	4	-1E+10	1	-1E+10	1	-1E+10	1	-1E+10	1	-1E+10	1	-1E+10	1
4901784	106	C	05/30/2018	10:48	-132.512	43.110	0	1240.50	0	2.9720	0	34.5950	8	27.572	0	1226.986	0	18.1	4	5.6	4	-1E+10	1	-1E+10	1	-1E+10	1	-1E+10	1	-1E+10	1	-1E+10	1
4901784	106	C	05/30/2018	10:48	-132.512	43.110	0	1245.70	0	2.9660	0	34.5950	8	27.573	0	1232.114	0	18.2	4	5.6	4	-1E+10	1	-1E+10	1	-1E+10	1	-1E+10	1	-1E+10	1	-1E+10	1
4901784	106	C	05/30/2018	10:48	-132.512	43.110	0	1249.90	0	2.9610	0	34.5970	8	27.575	0	1236.256	0	18.4	4	5.7	4	-1E+10	1	-1E+10	1	-1E+10	1	-1E+10	1	-1E+10	1	-1E+10	1
4901784	106	C	05/30/2018	10:48	-132.512	43.110	0	1254.20	0	2.9560	0	34.5970	8	27.575	0	1240.496	0	18.5	4	5.7	4	-1E+10	1	-1E+10	1	-1E+10	1	-1E+10	1	-1E+10	1	-1E+10	1
4901784	106	C	05/30/2018	10:48	-132.512	43.110	0	1259.40	0	2.9480	0	34.5980	8	27.577	0	1245.624	0	18.6	4	5.8	4	-1E+10	1	-1E+10	1	-1E+10	1	-1E+10	1	-1E+10	1	-1E+10	1
4901784	106	C	05/30/2018	10:48	-132.512	43.110	0	1264.60	0	2.9360	0	34.6000	8	27.580	0	1250.752	0	18.8	4	5.8	4	-1E+10	1	-1E+10	1	-1E+10	1	-1E+10	1	-1E+10	1	-1E+10	1
4901784	106	C	05/30/2018	10:48	-132.512	43.110	0	1269.70	0	2.9280	0	34.6010	8	27.581	0	1255.781	0	19.0	4	5.9	4	-1E+10	1	-1E+10	1	-1E+10	1	-1E+10	1	-1E+10	1	-1E+10	1
4901784	106	C	05/30/2018	10:48	-132.512	43.110	0	1274.80	0	2.9250	0	34.6020	8	27.582	0	1260.810	0	19.1	4	5.9	4	-1E+10	1	-1E+10	1	-1E+10	1	-1E+10	1	-1E+10	1	-1E+10	1
4901784	106	C	05/30/2018	10:48	-132.512	43.110	0	1280.00	0	2.9180	0	34.6020	8	27.583	0	1265.937	0	19.3	4	6.0	4	-1E+10	1	-1E+10	1	-1E+10	1	-1E+10	1	-1E+10	1	-1E+10	1
4901784	106	C	05/30/2018	10:48	-132.512	43.110	0	1285.20	0	2.8990	0	34.6050	8	27.587	0	1271.064	0	19.6	4	6.1	4	-1E+10	1	-1E+10	1	-1E+10	1	-1E+10	1	-1E+10	1	-1E+10	1
4901784	106	C	05/30/2018	10:48	-132.512	43.110	0	1290.50	0	2.8830	0	34.6070	8	27.590	0	1276.290	0	19.7	4	6.1	4	-1E+10	1	-1E+10	1	-1E+10	1	-1E+10	1	-1E+10	1	-1E+10	1
4901784	106	C	05/30/2018	10:48	-132.512	43.110	0	1294.80	0	2.8760	0	34.6070	8	27.591	0	1280.529	0	19.8	4	6.1	4	-1E+10	1	-1E+10	1	-1E+10	1	-1E+10	1	-1E+10	1	-1E+10	1
4901784	106	C	05/30/2018	10:48	-132.512	43.110	0	1299.30	0	2.8690	0	34.6080	8	27.592	0	1284.966	0	20.0	4	6.2	4	-1E+10	1	-1E+10	1	-1E+10	1	-1E+10	1	-1E+10	1	-1E+10	1
4901784	106	C	05/30/2018	10:48	-132.512	43.110	0	1304.60	0	2.8670	0	34.6090	8	27.593	0	1290.191	0	20.2	4	6.2	4	-1E+10	1	-1E+10	1	-1E+10	1	-1E+10	1	-1E+10	1	-1E+10	1
4901784	106	C	05/30/2018	10:48	-132.512	43.110	0	1310.00	0	2.8620	0	34.6110	8	27.595	0	1295.515	0	20.4	4	6.3	4	-1E+10	1	-1E+10	1	-1E+10	1	-1E+10	1	-1E+10	1	-1E+10	1
4901784	106	C	05/30/2018	10:48	-132.512	43.110	0	1315.50	0	2.8570	0	34.6120	8	27.597	0	1300.937	0	20.5	4	6.3	4	-1E+10	1	-1E+10	1	-1E+10	1	-1E+10	1	-1E+10	1	-1E+10	1
4901784	106	C	05/30/2018	10:48	-132.512	43.110	0	1320.00	0	2.8520	0	34.6120	8	27.597	0	1305.374	0	20.5	4	6.3	4	-1E+10	1	-1E+10	1	-1E+10	1	-1E+10	1	-1E+10	1	-1E+10	1
4901784	106	C	05/30/2018	10:48	-132.512	43.110	0	1324.60	0	2.8480	0	34.6120	8	27.597	0	1309.908	0	20.7	4	6.4	4	-1E+10	1	-1E+10	1	-1E+10	1	-1E+10	1	-1E+10	1	-1E+10	1
4901784	106	C	05/30/2018	10:48	-132.512	43.110	0	1330.10	0	2.8380	0	34.6130	8	27.599	0	1315.330	0	20.9	4	6.4	4	-1E+10	1	-1E+10	1	-1E+10	1	-1E+10	1	-1E+10	1	-1E+10	1
4901784	106	C	05/30/2018	10:48	-132.512	43.110	0	1335.50	0	2.8350	0	34.6140	8	27.600	0	1320.653	0	21.1	4	6.5	4	-1E+10	1	-1E+10	1	-1E+10	1	-1E+10	1	-1E+10	1	-1E+10	1
4901784	106	C	05/30/2018	10:48	-132.512	43.110	0	1340.00	0	2.8280	0	34.6160	8	27.602	0	1325.089	0	21.3	4	6.6	4	-1E+10	1	-1E+10	1	-1E+10	1	-1E+10	1	-1E+10	1	-1E+10	1
4901784	106	C	05/30/2018	10:48	-132.512	43.110	0	1344.50	0	2.8200	0	34.6170	8	27.604	0	1329.525	0	21.5	4	6.6	4	-1E+10	1	-1E+10	1	-1E+10	1	-1E+10	1	-1E+10	1	-1E+10	1
4901784	106	C	05/30/2018	10:48	-132.512	43.110	0	1350.10	0	2.8180	0	34.6170	8	27.604	0	1335.045	0	21.6	4	6.6	4	-1E+10	1	-1E+10	1	-1E+10	1	-1E+10	1	-1E+10	1	-1E+10	1
4901784	106	C	05/30/2018	10:48	-132.512	43.110	0	1355.20	0	2.8130	0	34.6170	8	27.605	0	1340.072	0	21.7	4	6.7	4	-1E+10	1	-1E+10	1	-1E+10	1	-1E+10	1	-1E+10	1	-1E+10	1
4901784	106	C	05/30/2018	10:48	-132.512	43.110	0	1359.40	0	2.8030	0	34.6190	8	27.607	0	1344.212	0	21.8	4	6.7	4	-1E+10	1	-1E+10	1	-1E+10	1	-1E+10	1	-1E+10	1	-1E+10	1
4901784	106	C	05/30/2018	10:48	-132.512	43.110	0	1365.00	0	2.7920	0	34.6190	8	27.608	0	1349.731	0	22.0	4	6.8	4	-1E+10	1	-1E+10	1	-1E+10	1	-1E+10	1	-1E+10	1	-1E+10	1
4901784	106	C	05/30/2018	10:48	-132.512	43.110	0	1370.60	0	2.7850	0	34.6200	8	27.610	0	1355.250	0	22.1	4	6.8	4	-1E+10	1	-1E+10	1	-1E+10	1	-1E+10	1	-1E+10	1	-1E+10	1
4901784	106	C	05/30/2018	10:48	-132.512	43.110	0	1375.40	0	2.7770	0	34.6210	8	27.611	0	1359.981	0	22.3	4	6.8	4	-1E+10	1	-1E+10	1	-1E+10	1	-1E+10	1	-1E+10	1	-1E+10	1
4901784	106	C	05/30/2018	10:48	-132.512	43.110	0	1380.30	0	2.7670	0	34.6220	8	27.613	0	1364.810	0	22.4	4	6.9	4	-1E+10	1	-1E+10	1	-1E+10	1	-1E+10	1	-1E+10	1	-1E+10	1
4901784	106	C	05/30/2018	10:48	-132.512	43.110	0	1385.20	0	2.7510	0	34.6220	8	27.614	0	1369.639	0	22.5	4	6.9	4	-1E+10	1	-1E+10	1	-1E+10	1	-1E+10	1	-1E+10	1	-1E+10	1
4901784	106	C	05/30/2018	10:48	-132.512	43.110	0	1390.20	0	2.7400	0	34.6230	8	27.616	0	1374.567	0	22.7	4	7.0	4	-1E+10	1	-1E+10	1	-1E+10	1	-1E+10	1	-1E+10	1	-1E+10	1
4901784	106	C	05/30/2018	10:48	-132.512	43.110	0	1395.20	0	2.7380	0	34.6240	8	27.617	0	1379.494	0	23.0	4	7.1	4	-1E+10	1	-1E+10	1	-1E+10	1	-1E+10	1	-1E+10	1	-1E+10	1
4901784	106	C	05/30/2018	10:48	-132.512	43.110	0	1400.10	0	2.7240	0	34.6260	8	27.620	0	1384.323	0	23.3	4	7.2	4	-1E+10	1	-1E+10	1	-1E+10	1	-1E+10	1	-1E+10	1	-1E+10	1
4901784	106	C	05/30/2018	10:48	-132.512	43.110	0	1405.20	0	2.7140	0	34.6270	8	27.622	0	1389.349	0	23.5	4	7.2	4	-1E+10	1	-1E+10	1	-1E+10	1	-1E+10	1	-1E+10	1	-1E+10	1
4901784	106	C	05/30/2018	10:48	-132.512	43.110	0	1410.20	0	2.7040	0	34.6280	8	27.623	0	1394.276	0	23.7	4	7.3	4	-1E+10	1	-1E+10	1	-1E+10	1	-1E+10	1	-1E+10	1	-1E+10	1
4901784	106	C	05/30/2018	10:48	-132.512	43.110	0	1415.30	0	2.6930	0	34.6290	8	27.625	0	1399.302	0	23.9	4	7.3	4	-1E+10	1	-1E+10	1	-1E+10	1	-1E+10	1	-1E+10	1	-1E+10	1
4901784	106	C	05/30/2018	10:48	-132.512	43.110	0	1420.50	0	2.6880	0	34.6290	8	27.626	0	1404.426	0	23.9	4	7.3	4	-1E+10	1	-1E+10	1	-1E+10	1	-1E+10	1	-1E+10	1	-1E+10	1
4901784	106	C	05/30/2018	10:48	-132.512	43.110	0	1425.60	0	2.6850	0	34.6300	8	27.627	0	1409.451	0	23.9	4	7.3	4	-1E+10	1	-1E+10	1	-1E+10	1	-1E+10	1	-1E+10	1	-1E+10	1
4901784	106	C	05/30/2018	10:48	-132.512	43.110	0	1429.90	0	2.6770	0	34.6300	8	27.627	0	1413.688	0	24.0	4	7.4	4	-1E+10	1	-1E+10	1	-1E+10	1	-1E+10	1	-1E+10	1	-1E+10	1
4901784	106	C	05/30/2018	10:48	-132.512	43.110	0	1434.20	0	2.6650	0	34.6300	8	27.628	0	1417.924	0	24.1	4	7.4	4	-1E+10	1	-1E+10	1	-1E+10	1	-1E+10	1	-1E+10	1	-1E+10	1
4901784	106	C	05/30/2018	10:48	-132.512	43.110	0	1439.40	0	2.6580	0	34.6310	8	27.630	0	1423.048	0	24.3	4	7.4	4	-1E+10	1	-1E+10	1	-1E+10	1	-1E+10	1	-1E+10	1	-1E+10	1
4901784	106	C	05/30/2018	10:48	-132.512	43.110	0	1444.50	0	2.6490	0	34.6320	8	27.631	0	1428.073	0	24.5	4	7.5	4	-1E+10	1	-1E+10	1	-1E+10	1	-1E+10	1	-1E+10	1	-1E+10	1
4901784	106	C	05/30/2018	10:48	-132.512	43.110	0	1449.70	0	2.6380	0	34.6320	8	27.632	0	1433.196	0	24.8	4	7.6	4	-1E+10	1	-1E+10	1	-1E+10	1	-1E+10	1	-1E+10	1	-1E+10	1
4901784	106	C	05/30/2018	10:48	-132.512	43.110	0	1454.90	0	2.6230	0	34.6340	8	27.635	0	1438.319	0	25.1	4	7.7	4	-1E+10	1	-1E+10	1	-1E+10	1	-1E+10	1	-1E+10	1	-1E+10	1
4901784	106	C	05/30/2018	10:48	-132.512	43.110	0	1460.00	0	2.6130	0	34.6350	8	27.637	0	1443.344	0	25.4	4	7.8	4	-1E+10	1	-1E+10	1	-1E+10	1	-1E+10	1	-1E+10	1	-1E+10	1
4901784	106	C	05/30/2018	10:48	-132.512	43.110	0	1465.20	0	2.5990	0	34.6360	8	27.639	0	1448.466	0	25.5	4	7.8	4	-1E+10	1	-1E+10	1	-1E+10	1	-1E+10	1	-1E+10	1	-1E+10	1
4901784	106	C	05/30/2018	10:48	-132.512	43.110	0	1470.50	0	2.5920	0	34.6360	8	27.640	0	1453.688	0	25.7	4	7.9	4	-1E+10	1	-1E+10	1	-1E+10	1	-1E+10	1	-1E+10	1	-1E+10	1
4901784	106	C	05/30/2018	10:48	-132.512	43.110	0	1474.90	0	2.5810	0	34.6370	8	27.641	0	1458.022	0	26.2	4	8.0	4	-1E+10	1	-1E+10	1	-1E+10	1	-1E+10	1	-1E+10	1	-1E+10	1
4901784	106	C	05/30/2018	10:48	-132.512	43.110	0	1479.30	0	2.5730	0	34.6390	8	27.644	0	1462.357	0	26.6	4	8.1	4	-1E+10	1	-1E+10	1	-1E+10	1	-1E+10	1	-1E+10	1	-1E+10	1
4901784	106	C	05/30/2018	10:48	-132.512	43.110	0	1484.50	0	2.5620	0	34.6410	8	27.646	0	1467.479	0	27.0	4	8.2	4	-1E+10	1	-1E+10	1	-1E+10	1	-1E+10	1	-1E+10	1	-1E+10	1
4901784	106	C	05/30/2018	10:48	-132.512	43.110	0	1489.80	0	2.5470	0	34.6410	8	27.648	0	1472.700	0	27.3	4	8.3	4	-1E+10	1	-1E+10	1	-1E+10	1	-1E+10	1	-1E+10	1	-1E+10	1
4901784	106	C	05/30/2018	10:48	-132.512	43.110	0	1495.00	0	2.5270	0	34.6440	8	27.652	0	1477.822	0	27.7	4	8.5	4	-1E+10	1	-1E+10	1	-1E+10	1	-1E+10	1	-1E+10	1	-1E+10	1
4901784	106	C	05/30/2018	10:48	-132.512	43.110	0	1500.40	0	2.5210	0	34.6450	8	27.653	0	1483.141	0	27.9	4	8.5	4	-1E+10	1	-1E+10	1	-1E+10	1	-1E+10	1	-1E+10	1	-1E+10	1
4901784	106	C	05/30/2018	10:48	-132.512	43.110	0	1504.90	0	2.5180	0	34.6460	8	27.654	0	1487.573	0	28.2	4	8.6	4	-1E+10	1	-1E+10	1	-1E+10	1	-1E+10	1	-1E+10	1	-1E+10	1
4901784	106	C	05/30/2018	10:48	-132.512	43.110	0	1509.40	0	2.5110	0	34.6460	8	27.655	0	1492.006	0	28.6	4	8.7	4	-1E+10	1	-1E+10	1	-1E+10	1	-1E+10	1	-1E+10	1	-1E+10	1
4901784	106	C	05/30/2018	10:48	-132.512	43.110	0	1514.80	0	2.4970	0	34.6490	8	27.658	0	1497.324	0	29.2	4	8.9	4	-1E+10	1	-1E+10	1	-1E+10	1	-1E+10	1	-1E+10	1	-1E+10	1
4901784	106	C	05/30/2018	10:48	-132.512	43.110	0	1520.10	0	2.4870	0	34.6500	8	27.660	0	1502.544	0	29.5	4	9.0	4	-1E+10	1	-1E+10	1	-1E+10	1	-1E+10	1	-1E+10	1	-1E+10	1
4901784	106	C	05/30/2018	10:48	-132.512	43.110	0	1525.60	0	2.4770	0	34.6510	8	27.662	0	1507.961	0	29.8	4	9.1	4	-1E+10	1	-1E+10	1	-1E+10	1	-1E+10	1	-1E+10	1	-1E+10	1
4901784	106	C	05/30/2018	10:48	-132.512	43.110	0	1530.10	0	2.4740	0	34.6520	8	27.663	0	1512.393	0	30.0	4	9.2	4	-1E+10	1	-1E+10	1	-1E+10	1	-1E+10	1	-1E+10	1	-1E+10	1
4901784	106	C	05/30/2018	10:48	-132.512	43.110	0	1534.80	0	2.4650	0	34.6520	8	27.664	0	1517.022	0	30.4	4	9.3	4	-1E+10	1	-1E+10	1	-1E+10	1	-1E+10	1	-1E+10	1	-1E+10	1
4901784	106	C	05/30/2018	10:48	-132.512	43.110	0	1540.50	0	2.4510	0	34.6540	8	27.666	0	1522.635	0	30.8	4	9.4	4	-1E+10	1	-1E+10	1	-1E+10	1	-1E+10	1	-1E+10	1	-1E+10	1
4901784	106	C	05/30/2018	10:48	-132.512	43.110	0	1544.60	0	2.4480	0	34.6550	8	27.667	0	1526.673	0	31.0	4	9.5	4	-1E+10	1	-1E+10	1	-1E+10	1	-1E+10	1	-1E+10	1	-1E+10	1
4901784	106	C	05/30/2018	10:48	-132.512	43.110	0	1549.50	0	2.4380	0	34.6560	8	27.669	0	1531.498	0	31.3	4	9.5	4	-1E+10	1	-1E+10	1	-1E+10	1	-1E+10	1	-1E+10	1	-1E+10	1
4901784	106	C	05/30/2018	10:48	-132.512	43.110	0	1554.40	0	2.4320	0	34.6560	8	27.670	0	1536.324	0	31.6	4	9.6	4	-1E+10	1	-1E+10	1	-1E+10	1	-1E+10	1	-1E+10	1	-1E+10	1
4901784	106	C	05/30/2018	10:48	-132.512	43.110	0	1559.40	0	2.4210	0	34.6580	8	27.672	0	1541.247	0	32.0	4	9.7	4	-1E+10	1	-1E+10	1	-1E+10	1	-1E+10	1	-1E+10	1	-1E+10	1
4901784	106	C	05/30/2018	10:48	-132.512	43.110	0	1564.50	0	2.4110	0	34.6580	8	27.673	0	1546.269	0	32.3	4	9.8	4	-1E+10	1	-1E+10	1	-1E+10	1	-1E+10	1	-1E+10	1	-1E+10	1
4901784	106	C	05/30/2018	10:48	-132.512	43.110	0	1569.50	0	2.4040	0	34.6600	8	27.675	0	1551.193	0	32.5	4	9.9	4	-1E+10	1	-1E+10	1	-1E+10	1	-1E+10	1	-1E+10	1	-1E+10	1
4901784	106	C	05/30/2018	10:48	-132.512	43.110	0	1574.60	0	2.3990	0	34.6600	8	27.676	0	1556.215	0	32.8	4	10.0	4	-1E+10	1	-1E+10	1	-1E+10	1	-1E+10	1	-1E+10	1	-1E+10	1
4901784	106	C	05/30/2018	10:48	-132.512	43.110	0	1579.70	0	2.3870	0	34.6610	8	27.677	0	1561.236	0	33.2	4	10.1	4	-1E+10	1	-1E+10	1	-1E+10	1	-1E+10	1	-1E+10	1	-1E+10	1
4901784	106	C	05/30/2018	10:48	-132.512	43.110	0	1584.70	0	2.3770	0	34.6620	8	27.679	0	1566.159	0	33.5	4	10.2	4	-1E+10	1	-1E+10	1	-1E+10	1	-1E+10	1	-1E+10	1	-1E+10	1
4901784	106	C	05/30/2018	10:48	-132.512	43.110	0	1589.80	0	2.3690	0	34.6630	8	27.681	0	1571.181	0	33.9	4	10.3	4	-1E+10	1	-1E+10	1	-1E+10	1	-1E+10	1	-1E+10	1	-1E+10	1
4901784	106	C	05/30/2018	10:48	-132.512	43.110	0	1595.00	0	2.3610	0	34.6640	8	27.682	0	1576.300	0	34.4	4	10.5	4	-1E+10	1	-1E+10	1	-1E+10	1	-1E+10	1	-1E+10	1	-1E+10	1
4901784	106	C	05/30/2018	10:48	-132.512	43.110	0	1600.10	0	2.3530	0	34.6660	8	27.684	0	1581.322	0	34.9	4	10.6	4	-1E+10	1	-1E+10	1	-1E+10	1	-1E+10	1	-1E+10	1	-1E+10	1
4901784	106	C	05/30/2018	10:48	-132.512	43.110	0	1605.20	0	2.3440	0	34.6680	8	27.687	0	1586.343	0	35.2	4	10.7	4	-1E+10	1	-1E+10	1	-1E+10	1	-1E+10	1	-1E+10	1	-1E+10	1
4901784	106	C	05/30/2018	10:48	-132.512	43.110	0	1610.50	0	2.3400	0	34.6680	8	27.687	0	1591.560	0	35.4	4	10.8	4	-1E+10	1	-1E+10	1	-1E+10	1	-1E+10	1	-1E+10	1	-1E+10	1
4901784	106	C	05/30/2018	10:48	-132.512	43.110	0	1615.70	0	2.3360	0	34.6690	8	27.688	0	1596.680	0	35.6	4	10.8	4	-1E+10	1	-1E+10	1	-1E+10	1	-1E+10	1	-1E+10	1	-1E+10	1
4901784	106	C	05/30/2018	10:48	-132.512	43.110	0	1620.10	0	2.3320	0	34.6690	8	27.689	0	1601.011	0	35.9	4	10.9	4	-1E+10	1	-1E+10	1	-1E+10	1	-1E+10	1	-1E+10	1	-1E+10	1
4901784	106	C	05/30/2018	10:48	-132.512	43.110	0	1624.40	0	2.3260	0	34.6700	8	27.690	0	1605.244	0	36.1	4	11.0	4	-1E+10	1	-1E+10	1	-1E+10	1	-1E+10	1	-1E+10	1	-1E+10	1
4901784	106	C	05/30/2018	10:48	-132.512	43.110	0	1629.80	0	2.3160	0	34.6700	8	27.691	0	1610.560	0	36.6	4	11.1	4	-1E+10	1	-1E+10	1	-1E+10	1	-1E+10	1	-1E+10	1	-1E+10	1
4901784	106	C	05/30/2018	10:48	-132.512	43.110	0	1635.10	0	2.2970	0	34.6730	8	27.695	0	1615.777	0	37.2	4	11.3	4	-1E+10	1	-1E+10	1	-1E+10	1	-1E+10	1	-1E+10	1	-1E+10	1
4901784	106	C	05/30/2018	10:48	-132.512	43.110	0	1640.50	0	2.2880	0	34.6740	8	27.696	0	1621.093	0	37.6	4	11.4	4	-1E+10	1	-1E+10	1	-1E+10	1	-1E+10	1	-1E+10	1	-1E+10	1
4901784	106	C	05/30/2018	10:48	-132.512	43.110	0	1645.00	0	2.2840	0	34.6750	8	27.697	0	1625.522	0	37.8	4	11.5	4	-1E+10	1	-1E+10	1	-1E+10	1	-1E+10	1	-1E+10	1	-1E+10	1
4901784	106	C	05/30/2018	10:48	-132.512	43.110	0	1649.40	0	2.2830	0	34.6750	8	27.698	0	1629.853	0	38.0	4	11.5	4	-1E+10	1	-1E+10	1	-1E+10	1	-1E+10	1	-1E+10	1	-1E+10	1
4901784	106	C	05/30/2018	10:48	-132.512	43.110	0	1654.80	0	2.2730	0	34.6760	8	27.699	0	1635.169	0	38.4	4	11.7	4	-1E+10	1	-1E+10	1	-1E+10	1	-1E+10	1	-1E+10	1	-1E+10	1
4901784	106	C	05/30/2018	10:48	-132.512	43.110	0	1660.20	0	2.2650	0	34.6770	8	27.701	0	1640.484	0	38.7	4	11.8	4	-1E+10	1	-1E+10	1	-1E+10	1	-1E+10	1	-1E+10	1	-1E+10	1
4901784	106	C	05/30/2018	10:48	-132.512	43.110	0	1665.60	0	2.2570	0	34.6770	8	27.701	0	1645.799	0	39.1	4	11.9	4	-1E+10	1	-1E+10	1	-1E+10	1	-1E+10	1	-1E+10	1	-1E+10	1
4901784	106	C	05/30/2018	10:48	-132.512	43.110	0	1670.10	0	2.2520	0	34.6780	8	27.703	0	1650.228	0	39.3	4	11.9	4	-1E+10	1	-1E+10	1	-1E+10	1	-1E+10	1	-1E+10	1	-1E+10	1
4901784	106	C	05/30/2018	10:48	-132.512	43.110	0	1674.70	0	2.2460	0	34.6790	8	27.704	0	1654.755	0	39.7	4	12.0	4	-1E+10	1	-1E+10	1	-1E+10	1	-1E+10	1	-1E+10	1	-1E+10	1
4901784	106	C	05/30/2018	10:48	-132.512	43.110	0	1680.30	0	2.2360	0	34.6800	8	27.706	0	1660.266	0	40.2	4	12.2	4	-1E+10	1	-1E+10	1	-1E+10	1	-1E+10	1	-1E+10	1	-1E+10	1
4901784	106	C	05/30/2018	10:48	-132.512	43.110	0	1684.90	0	2.2240	0	34.6820	8	27.708	0	1664.793	0	40.6	4	12.3	4	-1E+10	1	-1E+10	1	-1E+10	1	-1E+10	1	-1E+10	1	-1E+10	1
4901784	106	C	05/30/2018	10:48	-132.512	43.110	0	1689.80	0	2.2170	0	34.6830	8	27.710	0	1669.616	0	41.0	4	12.4	4	-1E+10	1	-1E+10	1	-1E+10	1	-1E+10	1	-1E+10	1	-1E+10	1
4901784	106	C	05/30/2018	10:48	-132.512	43.110	0	1695.00	0	2.2100	0	34.6840	8	27.711	0	1674.733	0	41.3	4	12.5	4	-1E+10	1	-1E+10	1	-1E+10	1	-1E+10	1	-1E+10	1	-1E+10	1
4901784	106	C	05/30/2018	10:48	-132.512	43.110	0	1699.80	0	2.2030	0	34.6840	8	27.712	0	1679.457	0	41.7	4	12.6	4	-1E+10	1	-1E+10	1	-1E+10	1	-1E+10	1	-1E+10	1	-1E+10	1
4901784	106	C	05/30/2018	10:48	-132.512	43.110	0	1704.80	0	2.1980	0	34.6850	8	27.713	0	1684.377	0	42.0	4	12.7	4	-1E+10	1	-1E+10	1	-1E+10	1	-1E+10	1	-1E+10	1	-1E+10	1
4901784	106	C	05/30/2018	10:48	-132.512	43.110	0	1709.70	0	2.1920	0	34.6860	8	27.714	0	1689.199	0	42.4	4	12.9	4	-1E+10	1	-1E+10	1	-1E+10	1	-1E+10	1	-1E+10	1	-1E+10	1
4901784	106	C	05/30/2018	10:48	-132.512	43.110	0	1714.70	0	2.1850	0	34.6870	8	27.715	0	1694.119	0	42.8	4	13.0	4	-1E+10	1	-1E+10	1	-1E+10	1	-1E+10	1	-1E+10	1	-1E+10	1
4901784	106	C	05/30/2018	10:48	-132.512	43.110	0	1719.70	0	2.1800	0	34.6880	8	27.717	0	1699.039	0	43.1	4	13.1	4	-1E+10	1	-1E+10	1	-1E+10	1	-1E+10	1	-1E+10	1	-1E+10	1
4901784	106	C	05/30/2018	10:48	-132.512	43.110	0	1724.70	0	2.1740	0	34.6890	8	27.718	0	1703.959	0	43.4	4	13.2	4	-1E+10	1	-1E+10	1	-1E+10	1	-1E+10	1	-1E+10	1	-1E+10	1
4901784	106	C	05/30/2018	10:48	-132.512	43.110	0	1729.70	0	2.1690	0	34.6890	8	27.718	0	1708.878	0	43.7	4	13.2	4	-1E+10	1	-1E+10	1	-1E+10	1	-1E+10	1	-1E+10	1	-1E+10	1
4901784	106	C	05/30/2018	10:48	-132.512	43.110	0	1734.60	0	2.1630	0	34.6900	8	27.720	0	1713.700	0	44.1	4	13.3	4	-1E+10	1	-1E+10	1	-1E+10	1	-1E+10	1	-1E+10	1	-1E+10	1
4901784	106	C	05/30/2018	10:48	-132.512	43.110	0	1739.60	0	2.1520	0	34.6910	8	27.721	0	1718.619	0	44.4	4	13.4	4	-1E+10	1	-1E+10	1	-1E+10	1	-1E+10	1	-1E+10	1	-1E+10	1
4901784	106	C	05/30/2018	10:48	-132.512	43.110	0	1744.60	0	2.1490	0	34.6920	8	27.722	0	1723.539	0	44.5	4	13.5	4	-1E+10	1	-1E+10	1	-1E+10	1	-1E+10	1	-1E+10	1	-1E+10	1
4901784	106	C	05/30/2018	10:48	-132.512	43.110	0	1749.70	0	2.1480	0	34.6920	8	27.723	0	1728.556	0	44.6	4	13.5	4	-1E+10	1	-1E+10	1	-1E+10	1	-1E+10	1	-1E+10	1	-1E+10	1
4901784	106	C	05/30/2018	10:48	-132.512	43.110	0	1754.70	0	2.1470	0	34.6930	8	27.723	0	1733.475	0	44.6	4	13.5	4	-1E+10	1	-1E+10	1	-1E+10	1	-1E+10	1	-1E+10	1	-1E+10	1
4901784	106	C	05/30/2018	10:48	-132.512	43.110	0	1759.70	0	2.1460	0	34.6930	8	27.724	0	1738.394	0	44.7	4	13.5	4	-1E+10	1	-1E+10	1	-1E+10	1	-1E+10	1	-1E+10	1	-1E+10	1
4901784	106	C	05/30/2018	10:48	-132.512	43.110	0	1764.70	0	2.1460	0	34.6920	8	27.723	0	1743.313	0	44.8	4	13.6	4	-1E+10	1	-1E+10	1	-1E+10	1	-1E+10	1	-1E+10	1	-1E+10	1
4901784	106	C	05/30/2018	10:48	-132.512	43.110	0	1769.80	0	2.1450	0	34.6930	8	27.724	0	1748.331	0	44.9	4	13.6	4	-1E+10	1	-1E+10	1	-1E+10	1	-1E+10	1	-1E+10	1	-1E+10	1
4901784	106	C	05/30/2018	10:48	-132.512	43.110	0	1775.00	0	2.1430	0	34.6930	8	27.724	0	1753.446	0	45.2	4	13.7	4	-1E+10	1	-1E+10	1	-1E+10	1	-1E+10	1	-1E+10	1	-1E+10	1
4901784	106	C	05/30/2018	10:48	-132.512	43.110	0	1780.10	0	2.1380	0	34.6940	8	27.725	0	1758.463	0	45.6	4	13.8	4	-1E+10	1	-1E+10	1	-1E+10	1	-1E+10	1	-1E+10	1	-1E+10	1
4901784	106	C	05/30/2018	10:48	-132.512	43.110	0	1785.30	0	2.1330	0	34.6950	8	27.726	0	1763.578	0	45.8	4	13.9	4	-1E+10	1	-1E+10	1	-1E+10	1	-1E+10	1	-1E+10	1	-1E+10	1
4901784	106	C	05/30/2018	10:48	-132.512	43.110	0	1790.50	0	2.1270	0	34.6950	8	27.727	0	1768.693	0	46.2	4	14.0	4	-1E+10	1	-1E+10	1	-1E+10	1	-1E+10	1	-1E+10	1	-1E+10	1
4901784	106	C	05/30/2018	10:48	-132.512	43.110	0	1794.90	0	2.1220	0	34.6960	8	27.728	0	1773.021	0	46.5	4	14.1	4	-1E+10	1	-1E+10	1	-1E+10	1	-1E+10	1	-1E+10	1	-1E+10	1
4901784	106	C	05/30/2018	10:48	-132.512	43.110	0	1799.30	0	2.1160	0	34.6970	8	27.729	0	1777.349	0	46.8	4	14.2	4	-1E+10	1	-1E+10	1	-1E+10	1	-1E+10	1	-1E+10	1	-1E+10	1
4901784	106	C	05/30/2018	10:48	-132.512	43.110	0	1804.70	0	2.1060	0	34.6980	8	27.731	0	1782.661	0	47.2	4	14.3	4	-1E+10	1	-1E+10	1	-1E+10	1	-1E+10	1	-1E+10	1	-1E+10	1
4901784	106	C	05/30/2018	10:48	-132.512	43.110	0	1810.00	0	2.0990	0	34.6990	8	27.732	0	1787.874	0	47.6	4	14.4	4	-1E+10	1	-1E+10	1	-1E+10	1	-1E+10	1	-1E+10	1	-1E+10	1
4901784	106	C	05/30/2018	10:48	-132.512	43.110	0	1815.40	0	2.0950	0	34.6990	8	27.733	0	1793.185	0	47.8	4	14.5	4	-1E+10	1	-1E+10	1	-1E+10	1	-1E+10	1	-1E+10	1	-1E+10	1
4901784	106	C	05/30/2018	10:48	-132.512	43.110	0	1819.80	0	2.0890	0	34.7000	8	27.734	0	1797.513	0	48.1	4	14.6	4	-1E+10	1	-1E+10	1	-1E+10	1	-1E+10	1	-1E+10	1	-1E+10	1
4901784	106	C	05/30/2018	10:48	-132.512	43.110	0	1824.30	0	2.0820	0	34.7010	8	27.735	0	1801.938	0	48.3	4	14.6	4	-1E+10	1	-1E+10	1	-1E+10	1	-1E+10	1	-1E+10	1	-1E+10	1
4901784	106	C	05/30/2018	10:48	-132.512	43.110	0	1829.80	0	2.0800	0	34.7010	8	27.736	0	1807.348	0	48.4	4	14.6	4	-1E+10	1	-1E+10	1	-1E+10	1	-1E+10	1	-1E+10	1	-1E+10	1
4901784	106	C	05/30/2018	10:48	-132.512	43.110	0	1835.30	0	2.0780	0	34.7010	8	27.736	0	1812.757	0	48.6	4	14.7	4	-1E+10	1	-1E+10	1	-1E+10	1	-1E+10	1	-1E+10	1	-1E+10	1
4901784	106	C	05/30/2018	10:48	-132.512	43.110	0	1839.90	0	2.0760	0	34.7020	8	27.737	0	1817.281	0	48.9	4	14.8	4	-1E+10	1	-1E+10	1	-1E+10	1	-1E+10	1	-1E+10	1	-1E+10	1
4901784	106	C	05/30/2018	10:48	-132.512	43.110	0	1844.40	0	2.0690	0	34.7020	8	27.737	0	1821.706	0	49.2	4	14.9	4	-1E+10	1	-1E+10	1	-1E+10	1	-1E+10	1	-1E+10	1	-1E+10	1
4901784	106	C	05/30/2018	10:48	-132.512	43.110	0	1849.90	0	2.0630	0	34.7030	8	27.739	0	1827.115	0	49.5	4	15.0	4	-1E+10	1	-1E+10	1	-1E+10	1	-1E+10	1	-1E+10	1	-1E+10	1
4901784	106	C	05/30/2018	10:48	-132.512	43.110	0	1855.50	0	2.0590	0	34.7040	8	27.740	0	1832.622	0	49.8	4	15.1	4	-1E+10	1	-1E+10	1	-1E+10	1	-1E+10	1	-1E+10	1	-1E+10	1
4901784	106	C	05/30/2018	10:48	-132.512	43.110	0	1860.10	0	2.0550	0	34.7040	8	27.740	0	1837.145	0	50.1	4	15.1	4	-1E+10	1	-1E+10	1	-1E+10	1	-1E+10	1	-1E+10	1	-1E+10	1
4901784	106	C	05/30/2018	10:48	-132.512	43.110	0	1864.70	0	2.0510	0	34.7050	8	27.741	0	1841.668	0	50.4	4	15.2	4	-1E+10	1	-1E+10	1	-1E+10	1	-1E+10	1	-1E+10	1	-1E+10	1
4901784	106	C	05/30/2018	10:48	-132.512	43.110	0	1870.30	0	2.0500	0	34.7060	8	27.742	0	1847.175	0	50.9	4	15.4	4	-1E+10	1	-1E+10	1	-1E+10	1	-1E+10	1	-1E+10	1	-1E+10	1
4901784	106	C	05/30/2018	10:48	-132.512	43.110	0	1874.80	0	2.0460	0	34.7080	8	27.744	0	1851.600	0	51.3	4	15.5	4	-1E+10	1	-1E+10	1	-1E+10	1	-1E+10	1	-1E+10	1	-1E+10	1
4901784	106	C	05/30/2018	10:48	-132.512	43.110	0	1879.40	0	2.0420	0	34.7080	8	27.745	0	1856.123	0	51.6	4	15.6	4	-1E+10	1	-1E+10	1	-1E+10	1	-1E+10	1	-1E+10	1	-1E+10	1
4901784	106	C	05/30/2018	10:48	-132.512	43.110	0	1884.90	0	2.0360	0	34.7090	8	27.746	0	1861.530	0	52.1	4	15.7	4	-1E+10	1	-1E+10	1	-1E+10	1	-1E+10	1	-1E+10	1	-1E+10	1
4901784	106	C	05/30/2018	10:48	-132.512	43.110	0	1889.60	0	2.0360	0	34.7100	8	27.747	0	1866.152	0	52.3	4	15.8	4	-1E+10	1	-1E+10	1	-1E+10	1	-1E+10	1	-1E+10	1	-1E+10	1
4901784	106	C	05/30/2018	10:48	-132.512	43.110	0	1894.90	0	2.0320	0	34.7100	8	27.747	0	1871.363	0	52.7	4	15.9	4	-1E+10	1	-1E+10	1	-1E+10	1	-1E+10	1	-1E+10	1	-1E+10	1
4901784	106	C	05/30/2018	10:48	-132.512	43.110	0	1900.50	0	2.0290	0	34.7110	8	27.748	0	1876.868	0	53.0	4	16.0	4	-1E+10	1	-1E+10	1	-1E+10	1	-1E+10	1	-1E+10	1	-1E+10	1
4901784	106	C	05/30/2018	10:48	-132.512	43.110	0	1905.30	0	2.0290	0	34.7120	8	27.749	0	1881.587	0	53.3	4	16.1	4	-1E+10	1	-1E+10	1	-1E+10	1	-1E+10	1	-1E+10	1	-1E+10	1
4901784	106	C	05/30/2018	10:48	-132.512	43.110	0	1910.10	0	2.0270	0	34.7120	8	27.749	0	1886.306	0	53.5	4	16.2	4	-1E+10	1	-1E+10	1	-1E+10	1	-1E+10	1	-1E+10	1	-1E+10	1
4901784	106	C	05/30/2018	10:48	-132.512	43.110	0	1915.00	0	2.0210	0	34.7130	8	27.750	0	1891.124	0	53.9	4	16.3	4	-1E+10	1	-1E+10	1	-1E+10	1	-1E+10	1	-1E+10	1	-1E+10	1
4901784	106	C	05/30/2018	10:48	-132.512	43.110	0	1919.90	0	2.0190	0	34.7140	8	27.751	0	1895.941	0	54.2	4	16.4	4	-1E+10	1	-1E+10	1	-1E+10	1	-1E+10	1	-1E+10	1	-1E+10	1
4901784	106	C	05/30/2018	10:48	-132.512	43.110	0	1924.80	0	2.0160	0	34.7140	8	27.752	0	1900.758	0	54.5	4	16.5	4	-1E+10	1	-1E+10	1	-1E+10	1	-1E+10	1	-1E+10	1	-1E+10	1
4901784	106	C	05/30/2018	10:48	-132.512	43.110	0	1929.80	0	2.0090	0	34.7160	8	27.754	0	1905.673	0	55.0	4	16.6	4	-1E+10	1	-1E+10	1	-1E+10	1	-1E+10	1	-1E+10	1	-1E+10	1
4901784	106	C	05/30/2018	10:48	-132.512	43.110	0	1934.70	0	2.0040	0	34.7160	8	27.754	0	1910.490	0	55.2	4	16.7	4	-1E+10	1	-1E+10	1	-1E+10	1	-1E+10	1	-1E+10	1	-1E+10	1
4901784	106	C	05/30/2018	10:48	-132.512	43.110	0	1939.70	0	2.0020	0	34.7170	8	27.755	0	1915.404	0	55.3	4	16.7	4	-1E+10	1	-1E+10	1	-1E+10	1	-1E+10	1	-1E+10	1	-1E+10	1
4901784	106	C	05/30/2018	10:48	-132.512	43.110	0	1944.70	0	2.0010	0	34.7170	8	27.755	0	1920.319	0	55.5	4	16.8	4	-1E+10	1	-1E+10	1	-1E+10	1	-1E+10	1	-1E+10	1	-1E+10	1
4901784	106	C	05/30/2018	10:48	-132.512	43.110	0	1949.60	0	1.9980	0	34.7170	8	27.756	0	1925.136	0	55.7	4	16.8	4	-1E+10	1	-1E+10	1	-1E+10	1	-1E+10	1	-1E+10	1	-1E+10	1
4901784	106	C	05/30/2018	10:48	-132.512	43.110	0	1954.60	0	1.9970	0	34.7180	8	27.756	0	1930.050	0	55.9	4	16.9	4	-1E+10	1	-1E+10	1	-1E+10	1	-1E+10	1	-1E+10	1	-1E+10	1
4901784	106	C	05/30/2018	10:48	-132.512	43.110	0	1959.60	0	1.9930	0	34.7180	8	27.757	0	1934.965	0	56.2	4	17.0	4	-1E+10	1	-1E+10	1	-1E+10	1	-1E+10	1	-1E+10	1	-1E+10	1
4901784	106	C	05/30/2018	10:48	-132.512	43.110	0	1964.60	0	1.9900	0	34.7190	8	27.758	0	1939.879	0	56.5	4	17.0	4	-1E+10	1	-1E+10	1	-1E+10	1	-1E+10	1	-1E+10	1	-1E+10	1
4901784	106	C	05/30/2018	10:48	-132.512	43.110	0	1969.70	0	1.9860	0	34.7200	8	27.759	0	1944.892	0	56.8	4	17.1	4	-1E+10	1	-1E+10	1	-1E+10	1	-1E+10	1	-1E+10	1	-1E+10	1
4901784	106	C	05/30/2018	10:48	-132.512	43.110	0	1974.80	0	1.9820	0	34.7200	8	27.759	0	1949.904	0	57.0	4	17.2	4	-1E+10	1	-1E+10	1	-1E+10	1	-1E+10	1	-1E+10	1	-1E+10	1
4901784	106	C	05/30/2018	10:48	-132.512	43.110	0	1979.90	0	1.9790	0	34.7210	8	27.760	0	1954.917	0	57.3	4	17.3	4	-1E+10	1	-1E+10	1	-1E+10	1	-1E+10	1	-1E+10	1	-1E+10	1
4901784	106	C	05/30/2018	10:48	-132.512	43.110	0	1985.00	0	1.9760	0	34.7210	8	27.761	0	1959.929	0	57.6	4	17.4	4	-1E+10	1	-1E+10	1	-1E+10	1	-1E+10	1	-1E+10	1	-1E+10	1
4901784	106	C	05/30/2018	10:48	-132.512	43.110	0	1990.10	0	1.9710	0	34.7220	8	27.762	0	1964.941	0	57.9	4	17.5	4	-1E+10	1	-1E+10	1	-1E+10	1	-1E+10	1	-1E+10	1	-1E+10	1
4901784	106	C	05/30/2018	10:48	-132.512	43.110	0	1995.30	0	1.9680	0	34.7220	8	27.762	0	1970.051	0	58.0	4	17.5	4	-1E+10	1	-1E+10	1	-1E+10	1	-1E+10	1	-1E+10	1	-1E+10	1
4901784	106	C	05/30/2018	10:48	-132.512	43.110	0	2000.30	0	1.9660	0	34.7220	8	27.762	0	1974.965	0	58.2	4	17.5	4	-1E+10	1	-1E+10	1	-1E+10	1	-1E+10	1	-1E+10	1	-1E+10	1
4901784	106	C	05/30/2018	10:48	-132.512	43.110	0	2005.10	0	1.9650	0	34.7230	8	27.763	0	1979.682	0	58.3	4	17.6	4	-1E+10	1	-1E+10	1	-1E+10	1	-1E+10	1	-1E+10	1	-1E+10	1
4901784	106	C	05/30/2018	10:48	-132.512	43.110	0	2009.80	0	1.9630	0	34.7230	8	27.763	0	1984.300	0	58.4	4	17.6	4	-1E+10	1	-1E+10	1	-1E+10	1	-1E+10	1	-1E+10	1	-1E+10	1
4901784	106	C	05/30/2018	10:48	-132.512	43.110	0	2015.40	0	1.9610	0	34.7230	8	27.764	0	1989.803	0	58.6	4	17.7	4	-1E+10	1	-1E+10	1	-1E+10	1	-1E+10	1	-1E+10	1	-1E+10	1
4901784	106	C	05/30/2018	10:48	-132.512	43.110	0	2019.50	0	1.9560	0	34.7240	8	27.765	0	1993.832	0	58.2	8	17.5	8	-1E+10	1	-1E+10	1	-1E+10	1	-1E+10	1	-1E+10	1	-1E+10	1
4901784	106	C	05/30/2018	10:48	-132.512	43.110	0																										
4901784	107	C	06/09/2018	10:45	-132.196	43.121	0	2.20	0	13.1410	0	32.7240	8	24.603	0	2.183	0	256.8	4	98.3	4	-1E+10	1	-1E+10	1	-1E+10	1	-1E+10	1	-1E+10	1	-1E+10	1
4901784	107	C	06/09/2018	10:45	-132.196	43.121	0	3.20	0	13.1380	0	32.7240	8	24.604	0	3.175	0	256.7	4	98.2	4	-1E+10	1	-1E+10	1	-1E+10	1	-1E+10	1	-1E+10	1	-1E+10	1
4901784	107	C	06/09/2018	10:45	-132.196	43.121	0	4.30	0	13.1380	0	32.7240	8	24.604	0	4.266	0	256.7	4	98.2	4	-1E+10	1	-1E+10	1	-1E+10	1	-1E+10	1	-1E+10	1	-1E+10	1
4901784	107	C	06/09/2018	10:45	-132.196	43.121	0	5.50	0	13.1370	0	32.7230	8	24.603	0	5.456	0	256.8	4	98.3	4	-1E+10	1	-1E+10	1	-1E+10	1	-1E+10	1	-1E+10	1	-1E+10	1
4901784	107	C	06/09/2018	10:45	-132.196	43.121	0	6.90	0	13.1330	0	32.7220	8	24.603	0	6.845	0	257.0	4	98.3	4	-1E+10	1	-1E+10	1	-1E+10	1	-1E+10	1	-1E+10	1	-1E+10	1
4901784	107	C	06/09/2018	10:45	-132.196	43.121	0	8.30	0	13.1320	0	32.7210	8	24.603	0	8.234	0	257.3	4	98.4	4	-1E+10	1	-1E+10	1	-1E+10	1	-1E+10	1	-1E+10	1	-1E+10	1
4901784	107	C	06/09/2018	10:45	-132.196	43.121	0	9.70	0	13.1300	0	32.7190	8	24.602	0	9.623	0	257.7	4	98.6	4	-1E+10	1	-1E+10	1	-1E+10	1	-1E+10	1	-1E+10	1	-1E+10	1
4901784	107	C	06/09/2018	10:45	-132.196	43.121	0	11.00	0	13.1340	0	32.7150	8	24.598	0	10.912	0	258.0	4	98.7	4	-1E+10	1	-1E+10	1	-1E+10	1	-1E+10	1	-1E+10	1	-1E+10	1
4901784	107	C	06/09/2018	10:45	-132.196	43.121	0	12.40	0	13.1350	0	32.7100	8	24.594	0	12.301	0	259.3	4	99.2	4	-1E+10	1	-1E+10	1	-1E+10	1	-1E+10	1	-1E+10	1	-1E+10	1
4901784	107	C	06/09/2018	10:45	-132.196	43.121	0	13.80	0	13.1300	0	32.7010	8	24.588	0	13.690	0	260.8	4	99.8	4	-1E+10	1	-1E+10	1	-1E+10	1	-1E+10	1	-1E+10	1	-1E+10	1
4901784	107	C	06/09/2018	10:45	-132.196	43.121	0	15.30	0	13.1350	0	32.6810	8	24.571	0	15.178	0	262.7	4	100.5	4	-1E+10	1	-1E+10	1	-1E+10	1	-1E+10	1	-1E+10	1	-1E+10	1
4901784	107	C	06/09/2018	10:45	-132.196	43.121	0	16.80	0	12.3090	0	32.7450	8	24.781	0	16.666	0	266.0	4	100.1	4	-1E+10	1	-1E+10	1	-1E+10	1	-1E+10	1	-1E+10	1	-1E+10	1
4901784	107	C	06/09/2018	10:45	-132.196	43.121	0	18.40	0	12.0130	0	32.7500	8	24.841	0	18.253	0	272.0	4	101.7	4	-1E+10	1	-1E+10	1	-1E+10	1	-1E+10	1	-1E+10	1	-1E+10	1
4901784	107	C	06/09/2018	10:45	-132.196	43.121	0	20.20	0	11.4670	0	32.7830	8	24.967	0	20.039	0	275.5	4	101.9	4	-1E+10	1	-1E+10	1	-1E+10	1	-1E+10	1	-1E+10	1	-1E+10	1
4901784	107	C	06/09/2018	10:45	-132.196	43.121	0	21.90	0	11.1000	0	32.8030	8	25.048	0	21.725	0	277.7	4	101.9	4	-1E+10	1	-1E+10	1	-1E+10	1	-1E+10	1	-1E+10	1	-1E+10	1
4901784	107	C	06/09/2018	10:45	-132.196	43.121	0	23.60	0	10.7770	0	32.8090	8	25.110	0	23.411	0	278.4	4	101.5	4	-1E+10	1	-1E+10	1	-1E+10	1	-1E+10	1	-1E+10	1	-1E+10	1
4901784	107	C	06/09/2018	10:45	-132.196	43.121	0	25.40	0	10.6040	0	32.8130	8	25.143	0	25.197	0	278.8	4	101.3	4	-1E+10	1	-1E+10	1	-1E+10	1	-1E+10	1	-1E+10	1	-1E+10	1
4901784	107	C	06/09/2018	10:45	-132.196	43.121	0	27.20	0	10.4930	0	32.8190	8	25.167	0	26.982	0	277.8	4	100.7	4	-1E+10	1	-1E+10	1	-1E+10	1	-1E+10	1	-1E+10	1	-1E+10	1
4901784	107	C	06/09/2018	10:45	-132.196	43.121	0	28.90	0	10.3060	0	32.8280	8	25.206	0	28.668	0	277.8	4	100.3	4	-1E+10	1	-1E+10	1	-1E+10	1	-1E+10	1	-1E+10	1	-1E+10	1
4901784	107	C	06/09/2018	10:45	-132.196	43.121	0	30.70	0	10.2470	0	32.8290	8	25.217	0	30.454	0	277.6	4	100.0	4	-1E+10	1	-1E+10	1	-1E+10	1	-1E+10	1	-1E+10	1	-1E+10	1
4901784	107	C	06/09/2018	10:45	-132.196	43.121	0	32.60	0	10.1510	0	32.8240	8	25.229	0	32.338	0	277.6	4	99.8	4	-1E+10	1	-1E+10	1	-1E+10	1	-1E+10	1	-1E+10	1	-1E+10	1
4901784	107	C	06/09/2018	10:45	-132.196	43.121	0	34.30	0	10.1300	0	32.8270	8	25.235	0	34.025	0	276.9	4	99.5	4	-1E+10	1	-1E+10	1	-1E+10	1	-1E+10	1	-1E+10	1	-1E+10	1
4901784	107	C	06/09/2018	10:45	-132.196	43.121	0	36.10	0	10.1400	0	32.8310	8	25.236	0	35.810	0	276.2	4	99.3	4	-1E+10	1	-1E+10	1	-1E+10	1	-1E+10	1	-1E+10	1	-1E+10	1
4901784	107	C	06/09/2018	10:45	-132.196	43.121	0	37.80	0	10.0960	0	32.8360	8	25.248	0	37.496	0	275.7	4	99.1	4	-1E+10	1	-1E+10	1	-1E+10	1	-1E+10	1	-1E+10	1	-1E+10	1
4901784	107	C	06/09/2018	10:45	-132.196	43.121	0	39.50	0	10.0480	0	32.8300	8	25.251	0	39.182	0	275.7	4	99.0	4	-1E+10	1	-1E+10	1	-1E+10	1	-1E+10	1	-1E+10	1	-1E+10	1
4901784	107	C	06/09/2018	10:45	-132.196	43.121	0	41.30	0	10.0350	0	32.8270	8	25.251	0	40.968	0	275.2	4	98.7	4	-1E+10	1	-1E+10	1	-1E+10	1	-1E+10	1	-1E+10	1	-1E+10	1
4901784	107	C	06/09/2018	10:45	-132.196	43.121	0	42.90	0	10.0270	0	32.8250	8	25.251	0	42.555	0	274.7	4	98.5	4	-1E+10	1	-1E+10	1	-1E+10	1	-1E+10	1	-1E+10	1	-1E+10	1
4901784	107	C	06/09/2018	10:45	-132.196	43.121	0	44.70	0	10.0220	0	32.8250	8	25.252	0	44.340	0	274.2	4	98.4	4	-1E+10	1	-1E+10	1	-1E+10	1	-1E+10	1	-1E+10	1	-1E+10	1
4901784	107	C	06/09/2018	10:45	-132.196	43.121	0	46.40	0	9.9740	0	32.8250	8	25.260	0	46.026	0	273.3	4	97.9	4	-1E+10	1	-1E+10	1	-1E+10	1	-1E+10	1	-1E+10	1	-1E+10	1
4901784	107	C	06/09/2018	10:45	-132.196	43.121	0	48.10	0	9.9030	0	32.8180	8	25.266	0	47.712	0	273.6	4	97.9	4	-1E+10	1	-1E+10	1	-1E+10	1	-1E+10	1	-1E+10	1	-1E+10	1
4901784	107	C	06/09/2018	10:45	-132.196	43.121	0	49.90	0	9.8950	0	32.8190	8	25.268	0	49.498	0	274.0	4	98.0	4	-1E+10	1	-1E+10	1	-1E+10	1	-1E+10	1	-1E+10	1	-1E+10	1
4901784	107	C	06/09/2018	10:45	-132.196	43.121	0	51.60	0	9.8930	0	32.8190	8	25.268	0	51.184	0	274.1	4	98.1	4	-1E+10	1	-1E+10	1	-1E+10	1	-1E+10	1	-1E+10	1	-1E+10	1
4901784	107	C	06/09/2018	10:45	-132.196	43.121	0	53.40	0	9.8820	0	32.8180	8	25.269	0	52.969	0	274.7	4	98.2	4	-1E+10	1	-1E+10	1	-1E+10	1	-1E+10	1	-1E+10	1	-1E+10	1
4901784	107	C	06/09/2018	10:45	-132.196	43.121	0	55.10	0	9.8260	0	32.8180	8	25.279	0	54.655	0	276.0	4	98.6	4	-1E+10	1	-1E+10	1	-1E+10	1	-1E+10	1	-1E+10	1	-1E+10	1
4901784	107	C	06/09/2018	10:45	-132.196	43.121	0	56.90	0	9.7980	0	32.8230	8	25.287	0	56.440	0	276.9	4	98.8	4	-1E+10	1	-1E+10	1	-1E+10	1	-1E+10	1	-1E+10	1	-1E+10	1
4901784	107	C	06/09/2018	10:45	-132.196	43.121	0	58.60	0	9.7600	0	32.8190	8	25.290	0	58.126	0	277.2	4	98.9	4	-1E+10	1	-1E+10	1	-1E+10	1	-1E+10	1	-1E+10	1	-1E+10	1
4901784	107	C	06/09/2018	10:45	-132.196	43.121	0	60.40	0	9.7670	0	32.8210	8	25.291	0	59.911	0	276.4	4	98.6	4	-1E+10	1	-1E+10	1	-1E+10	1	-1E+10	1	-1E+10	1	-1E+10	1
4901784	107	C	06/09/2018	10:45	-132.196	43.121	0	62.00	0	9.7770	0	32.8260	8	25.293	0	61.498	0	275.6	4	98.3	4	-1E+10	1	-1E+10	1	-1E+10	1	-1E+10	1	-1E+10	1	-1E+10	1
4901784	107	C	06/09/2018	10:45	-132.196	43.121	0	63.80	0	9.7540	0	32.8250	8	25.296	0	63.283	0	275.4	4	98.2	4	-1E+10	1	-1E+10	1	-1E+10	1	-1E+10	1	-1E+10	1	-1E+10	1
4901784	107	C	06/09/2018	10:45	-132.196	43.121	0	65.50	0	9.7640	0	32.8290	8	25.298	0	64.969	0	274.6	4	98.0	4	-1E+10	1	-1E+10	1	-1E+10	1	-1E+10	1	-1E+10	1	-1E+10	1
4901784	107	C	06/09/2018	10:45	-132.196	43.121	0	67.30	0	9.7850	0	32.8370	8	25.301	0	66.754	0	273.6	4	97.6	4	-1E+10	1	-1E+10	1	-1E+10	1	-1E+10	1	-1E+10	1	-1E+10	1
4901784	107	C	06/09/2018	10:45	-132.196	43.121	0	69.00	0	9.7480	0	32.8310	8	25.302	0	68.440	0	273.5	4	97.5	4	-1E+10	1	-1E+10	1	-1E+10	1	-1E+10	1	-1E+10	1	-1E+10	1
4901784	107	C	06/09/2018	10:45	-132.196	43.121	0	70.80	0	9.7120	0	32.8280	8	25.305	0	70.225	0	272.9	4	97.2	4	-1E+10	1	-1E+10	1	-1E+10	1	-1E+10	1	-1E+10	1	-1E+10	1
4901784	107	C	06/09/2018	10:45	-132.196	43.121	0	72.60	0	9.7250	0	32.8320	8	25.307	0	72.010	0	272.2	4	97.0	4	-1E+10	1	-1E+10	1	-1E+10	1	-1E+10	1	-1E+10	1	-1E+10	1
4901784	107	C	06/09/2018	10:45	-132.196	43.121	0	74.40	0	9.7330	0	32.8360	8	25.308	0	73.796	0	271.0	4	96.6	4	-1E+10	1	-1E+10	1	-1E+10	1	-1E+10	1	-1E+10	1	-1E+10	1
4901784	107	C	06/09/2018	10:45	-132.196	43.121	0	76.20	0	9.7320	0	32.8350	8	25.308	0	75.581	0	270.4	4	96.4	4	-1E+10	1	-1E+10	1	-1E+10	1	-1E+10	1	-1E+10	1	-1E+10	1
4901784	107	C	06/09/2018	10:45	-132.196	43.121	0	77.90	0	9.6870	0	32.8340	8	25.314	0	77.266	0	269.5	4	96.0	4	-1E+10	1	-1E+10	1	-1E+10	1	-1E+10	1	-1E+10	1	-1E+10	1
4901784	107	C	06/09/2018	10:45	-132.196	43.121	0	79.80	0	9.6250	0	32.8240	8	25.317	0	79.151	0	268.8	4	95.6	4	-1E+10	1	-1E+10	1	-1E+10	1	-1E+10	1	-1E+10	1	-1E+10	1
4901784	107	C	06/09/2018	10:45	-132.196	43.121	0	81.60	0	9.5410	0	32.8160	8	25.324	0	80.936	0	268.4	4	95.3	4	-1E+10	1	-1E+10	1	-1E+10	1	-1E+10	1	-1E+10	1	-1E+10	1
4901784	107	C	06/09/2018	10:45	-132.196	43.121	0	83.40	0	9.4910	0	32.8100	8	25.327	0	82.721	0	267.9	4	95.0	4	-1E+10	1	-1E+10	1	-1E+10	1	-1E+10	1	-1E+10	1	-1E+10	1
4901784	107	C	06/09/2018	10:45	-132.196	43.121	0	85.20	0	9.4640	0	32.8080	8	25.330	0	84.506	0	267.1	4	94.6	4	-1E+10	1	-1E+10	1	-1E+10	1	-1E+10	1	-1E+10	1	-1E+10	1
4901784	107	C	06/09/2018	10:45	-132.196	43.121	0	87.10	0	9.4250	0	32.8050	8	25.334	0	86.390	0	266.4	4	94.3	4	-1E+10	1	-1E+10	1	-1E+10	1	-1E+10	1	-1E+10	1	-1E+10	1
4901784	107	C	06/09/2018	10:45	-132.196	43.121	0	88.90	0	9.3860	0	32.8070	8	25.342	0	88.175	0	265.8	4	94.0	4	-1E+10	1	-1E+10	1	-1E+10	1	-1E+10	1	-1E+10	1	-1E+10	1
4901784	107	C	06/09/2018	10:45	-132.196	43.121	0	90.80	0	9.3920	0	32.8070	8	25.341	0	90.059	0	265.1	4	93.8	4	-1E+10	1	-1E+10	1	-1E+10	1	-1E+10	1	-1E+10	1	-1E+10	1
4901784	107	C	06/09/2018	10:45	-132.196	43.121	0	92.70	0	9.4080	0	32.8130	8	25.343	0	91.943	0	264.1	4	93.5	4	-1E+10	1	-1E+10	1	-1E+10	1	-1E+10	1	-1E+10	1	-1E+10	1
4901784	107	C	06/09/2018	10:45	-132.196	43.121	0	94.60	0	9.4120	0	32.8150	8	25.344	0	93.827	0	262.8	4	93.0	4	-1E+10	1	-1E+10	1	-1E+10	1	-1E+10	1	-1E+10	1	-1E+10	1
4901784	107	C	06/09/2018	10:45	-132.196	43.121	0	96.40	0	9.4270	0	32.8310	8	25.354	0	95.612	0	261.4	4	92.6	4	-1E+10	1	-1E+10	1	-1E+10	1	-1E+10	1	-1E+10	1	-1E+10	1
4901784	107	C	06/09/2018	10:45	-132.196	43.121	0	98.40	0	9.4220	0	32.8310	8	25.355	0	97.595	0	260.2	4	92.1	4	-1E+10	1	-1E+10	1	-1E+10	1	-1E+10	1	-1E+10	1	-1E+10	1
4901784	107	C	06/09/2018	10:45	-132.196	43.121	0	100.30	0	9.4020	0	32.8330	8	25.360	0	99.479	0	258.5	4	91.5	4	-1E+10	1	-1E+10	1	-1E+10	1	-1E+10	1	-1E+10	1	-1E+10	1
4901784	107	C	06/09/2018	10:45	-132.196	43.121	0	102.80	0	9.3100	0	32.8710	8	25.404	0	101.958	0	256.5	4	90.6	4	-1E+10	1	-1E+10	1	-1E+10	1	-1E+10	1	-1E+10	1	-1E+10	1
4901784	107	C	06/09/2018	10:45	-132.196	43.121	0	104.80	0	9.2210	0	32.8750	8	25.422	0	103.941	0	255.5	4	90.1	4	-1E+10	1	-1E+10	1	-1E+10	1	-1E+10	1	-1E+10	1	-1E+10	1
4901784	107	C	06/09/2018	10:45	-132.196	43.121	0	107.20	0	9.1640	0	32.9080	8	25.457	0	106.321	0	253.9	4	89.5	4	-1E+10	1	-1E+10	1	-1E+10	1	-1E+10	1	-1E+10	1	-1E+10	1
4901784	107	C	06/09/2018	10:45	-132.196	43.121	0	110.40	0	9.1280	0	32.9220	8	25.473	0	109.494	0	251.5	4	88.5	4	-1E+10	1	-1E+10	1	-1E+10	1	-1E+10	1	-1E+10	1	-1E+10	1
4901784	107	C	06/09/2018	10:45	-132.196	43.121	0	112.80	0	9.0800	0	32.9290	8	25.486	0	111.873	0	249.0	4	87.5	4	-1E+10	1	-1E+10	1	-1E+10	1	-1E+10	1	-1E+10	1	-1E+10	1
4901784	107	C	06/09/2018	10:45	-132.196	43.121	0	115.30	0	8.8070	0	32.9720	8	25.563	0	114.352	0	247.1	4	86.4	4	-1E+10	1	-1E+10	1	-1E+10	1	-1E+10	1	-1E+10	1	-1E+10	1
4901784	107	C	06/09/2018	10:45	-132.196	43.121	0	117.90	0	8.5390	0	33.0290	8	25.648	0	116.930	0	245.8	4	85.5	4	-1E+10	1	-1E+10	1	-1E+10	1	-1E+10	1	-1E+10	1	-1E+10	1
4901784	107	C	06/09/2018	10:45	-132.196	43.121	0	119.70	0	8.4880	0	33.0440	8	25.668	0	118.714	0	244.4	4	84.9	4	-1E+10	1	-1E+10	1	-1E+10	1	-1E+10	1	-1E+10	1	-1E+10	1
4901784	107	C	06/09/2018	10:45	-132.196	43.121	0	122.40	0	8.3160	0	33.0880	8	25.728	0	121.391	0	243.6	4	84.3	4	-1E+10	1	-1E+10	1	-1E+10	1	-1E+10	1	-1E+10	1	-1E+10	1
4901784	107	C	06/09/2018	10:45	-132.196	43.121	0	125.30	0	8.1840	0	33.1220	8	25.774	0	124.267	0	242.6	4	83.8	4	-1E+10	1	-1E+10	1	-1E+10	1	-1E+10	1	-1E+10	1	-1E+10	1
4901784	107	C	06/09/2018	10:45	-132.196	43.121	0	127.10	0	7.9940	0	33.1710	8	25.841	0	126.051	0	242.8	4	83.5	4	-1E+10	1	-1E+10	1	-1E+10	1	-1E+10	1	-1E+10	1	-1E+10	1
4901784	107	C	06/09/2018	10:45	-132.196	43.121	0	129.90	0	7.9830	0	33.2120	8	25.874	0	128.827	0	241.8	4	83.2	4	-1E+10	1	-1E+10	1	-1E+10	1	-1E+10	1	-1E+10	1	-1E+10	1
4901784	107	C	06/09/2018	10:45	-132.196	43.121	0	132.70	0	7.9610	0	33.2550	8	25.911	0	131.603	0	240.1	4	82.6	4	-1E+10	1	-1E+10	1	-1E+10	1	-1E+10	1	-1E+10	1	-1E+10	1
4901784	107	C	06/09/2018	10:45	-132.196	43.121	0	135.10	0	7.9380	0	33.2570	8	25.916	0	133.983	0	238.7	4	82.0	4	-1E+10	1	-1E+10	1	-1E+10	1	-1E+10	1	-1E+10	1	-1E+10	1
4901784	107	C	06/09/2018	10:45	-132.196	43.121	0	137.80	0	7.9560	0	33.3010	8	25.948	0	136.659	0	235.9	4	81.1	4	-1E+10	1	-1E+10	1	-1E+10	1	-1E+10	1	-1E+10	1	-1E+10	1
4901784	107	C	06/09/2018	10:45	-132.196	43.121	0	140.10	0	7.9770	0	33.3380	8	25.974	0	138.940	0	233.6	4	80.4	4	-1E+10	1	-1E+10	1	-1E+10	1	-1E+10	1	-1E+10	1	-1E+10	1
4901784	107	C	06/09/2018	10:45	-132.196	43.121	0	142.40	0	8.0150	0	33.3800	8	26.002	0	141.220	0	230.3	4	79.3	4	-1E+10	1	-1E+10	1	-1E+10	1	-1E+10	1	-1E+10	1	-1E+10	1
4901784	107	C	06/09/2018	10:45	-132.196	43.121	0	145.10	0	8.0290	0	33.4160	8	26.028	0	143.897	0	225.4	4	77.7	4	-1E+10	1	-1E+10	1	-1E+10	1	-1E+10	1	-1E+10	1	-1E+10	1
4901784	107	C	06/09/2018	10:45	-132.196	43.121	0	147.30	0	8.0690	0	33.4880	8	26.079	0	146.078	0	220.2	4	76.0	4	-1E+10	1	-1E+10	1	-1E+10	1	-1E+10	1	-1E+10	1	-1E+10	1
4901784	107	C	06/09/2018	10:45	-132.196	43.121	0	149.80	0	8.1260	0	33.5610	8	26.128	0	148.556	0	215.3	4	74.5	4	-1E+10	1	-1E+10	1	-1E+10	1	-1E+10	1	-1E+10	1	-1E+10	1
4901784	107	C	06/09/2018	10:45	-132.196	43.121	0	152.40	0	8.1700	0	33.6320	8	26.177	0	151.133	0	210.7	4	73.0	4	-1E+10	1	-1E+10	1	-1E+10	1	-1E+10	1	-1E+10	1	-1E+10	1
4901784	107	C	06/09/2018	10:45	-132.196	43.121	0	155.20	0	8.2660	0	33.7400	8	26.247	0	153.909	0	206.0	4	71.6	4	-1E+10	1	-1E+10	1	-1E+10	1	-1E+10	1	-1E+10	1	-1E+10	1
4901784	107	C	06/09/2018	10:45	-132.196	43.121	0	157.50	0	8.3480	0	33.8170	8	26.295	0	156.189	0	202.4	4	70.5	4	-1E+10	1	-1E+10	1	-1E+10	1	-1E+10	1	-1E+10	1	-1E+10	1
4901784	107	C	06/09/2018	10:45	-132.196	43.121	0	159.90	0	8.4000	0	33.8710	8	26.330	0	158.568	0	199.2	4	69.5	4	-1E+10	1	-1E+10	1	-1E+10	1	-1E+10	1	-1E+10	1	-1E+10	1
4901784	107	C	06/09/2018	10:45	-132.196	43.121	0	162.30	0	8.4380	0	33.9140	8	26.358	0	160.947	0	197.4	4	68.9	4	-1E+10	1	-1E+10	1	-1E+10	1	-1E+10	1	-1E+10	1	-1E+10	1
4901784	107	C	06/09/2018	10:45	-132.196	43.121	0	164.70	0	8.4490	0	33.9270	8	26.367	0	163.326	0	195.9	4	68.4	4	-1E+10	1	-1E+10	1	-1E+10	1	-1E+10	1	-1E+10	1	-1E+10	1
4901784	107	C	06/09/2018	10:45	-132.196	43.121	0	167.20	0	8.4620	0	33.9420	8	26.376	0	165.804	0	194.3	4	67.9	4	-1E+10	1	-1E+10	1	-1E+10	1	-1E+10	1	-1E+10	1	-1E+10	1
4901784	107	C	06/09/2018	10:45	-132.196	43.121	0	169.60	0	8.4810	0	33.9670	8	26.393	0	168.183	0	192.0	4	67.1	4	-1E+10	1	-1E+10	1	-1E+10	1	-1E+10	1	-1E+10	1	-1E+10	1
4901784	107	C	06/09/2018	10:45	-132.196	43.121	0	172.00	0	8.5000	0	34.0010	8	26.417	0	170.562	0	189.8	4	66.4	4	-1E+10	1	-1E+10	1	-1E+10	1	-1E+10	1	-1E+10	1	-1E+10	1
4901784	107	C	06/09/2018	10:45	-132.196	43.121	0	174.60	0	8.5040	0	34.0160	8	26.428	0	173.140	0	188.6	4	66.0	4	-1E+10	1	-1E+10	1	-1E+10	1	-1E+10	1	-1E+10	1	-1E+10	1
4901784	107	C	06/09/2018	10:45	-132.196	43.121	0	177.20	0	8.5060	0	34.0260	8	26.436	0	175.717	0	187.3	4	65.6	4	-1E+10	1	-1E+10	1	-1E+10	1	-1E+10	1	-1E+10	1	-1E+10	1
4901784	107	C	06/09/2018	10:45	-132.196	43.121	0	179.70	0	8.5050	0	34.0420	8	26.448	0	178.195	0	186.1	4	65.2	4	-1E+10	1	-1E+10	1	-1E+10	1	-1E+10	1	-1E+10	1	-1E+10	1
4901784	107	C	06/09/2018	10:45	-132.196	43.121	0	182.30	0	8.5050	0	34.0500	8	26.455	0	180.772	0	185.1	4	64.8	4	-1E+10	1	-1E+10	1	-1E+10	1	-1E+10	1	-1E+10	1	-1E+10	1
4901784	107	C	06/09/2018	10:45	-132.196	43.121	0	184.90	0	8.4970	0	34.0580	8	26.462	0	183.349	0	183.9	4	64.4	4	-1E+10	1	-1E+10	1	-1E+10	1	-1E+10	1	-1E+10	1	-1E+10	1
4901784	107	C	06/09/2018	10:45	-132.196	43.121	0	187.50	0	8.4780	0	34.0720	8	26.476	0	185.926	0	182.8	4	64.0	4	-1E+10	1	-1E+10	1	-1E+10	1	-1E+10	1	-1E+10	1	-1E+10	1
4901784	107	C	06/09/2018	10:45	-132.196	43.121	0	190.20	0	8.4690	0	34.0750	8	26.480	0	188.602	0	182.1	4	63.7	4	-1E+10	1	-1E+10	1	-1E+10	1	-1E+10	1	-1E+10	1	-1E+10	1
4901784	107	C	06/09/2018	10:45	-132.196	43.121	0	192.80	0	8.4630	0	34.0770	8	26.483	0	191.179	0	181.0	4	63.3	4	-1E+10	1	-1E+10	1	-1E+10	1	-1E+10	1	-1E+10	1	-1E+10	1
4901784	107	C	06/09/2018	10:45	-132.196	43.121	0	194.60	0	8.4360	0	34.0840	8	26.492	0	192.963	0	180.3	4	63.0	4	-1E+10	1	-1E+10	1	-1E+10	1	-1E+10	1	-1E+10	1	-1E+10	1
4901784	107	C	06/09/2018	10:45	-132.196	43.121	0	197.30	0	8.4050	0	34.0890	8	26.501	0	195.639	0	179.5	4	62.7	4	-1E+10	1	-1E+10	1	-1E+10	1	-1E+10	1	-1E+10	1	-1E+10	1
4901784	107	C	06/09/2018	10:45	-132.196	43.121	0	200.00	0	8.3800	0	34.0920	8	26.507	0	198.315	0	179.0	4	62.5	4	-1E+10	1	-1E+10	1	-1E+10	1	-1E+10	1	-1E+10	1	-1E+10	1
4901784	107	C	06/09/2018	10:45	-132.196	43.121	0	202.70	0	8.3700	0	34.0930	8	26.509	0	200.991	0	178.4	4	62.3	4	-1E+10	1	-1E+10	1	-1E+10	1	-1E+10	1	-1E+10	1	-1E+10	1
4901784	107	C	06/09/2018	10:45	-132.196	43.121	0	205.40	0	8.3590	0	34.0930	8	26.511	0	203.667	0	177.6	4	62.0	4	-1E+10	1	-1E+10	1	-1E+10	1	-1E+10	1	-1E+10	1	-1E+10	1
4901784	107	C	06/09/2018	10:45	-132.196	43.121	0	207.10	0	8.3530	0	34.0930	8	26.512	0	205.352	0	177.0	4	61.8	4	-1E+10	1	-1E+10	1	-1E+10	1	-1E+10	1	-1E+10	1	-1E+10	1
4901784	107	C	06/09/2018	10:45	-132.196	43.121	0	209.80	0	8.3020	0	34.0960	8	26.522	0	208.027	0	175.9	4	61.3	4	-1E+10	1	-1E+10	1	-1E+10	1	-1E+10	1	-1E+10	1	-1E+10	1
4901784	107	C	06/09/2018	10:45	-132.196	43.121	0	212.40	0	8.2690	0	34.0960	8	26.527	0	210.604	0	175.0	4	61.0	4	-1E+10	1	-1E+10	1	-1E+10	1	-1E+10	1	-1E+10	1	-1E+10	1
4901784	107	C	06/09/2018	10:45	-132.196	43.121	0	215.00	0	8.2290	0	34.0970	8	26.534	0	213.181	0	174.0	4	60.6	4	-1E+10	1	-1E+10	1	-1E+10	1	-1E+10	1	-1E+10	1	-1E+10	1
4901784	107	C	06/09/2018	10:45	-132.196	43.121	0	217.70	0	8.1870	0	34.0980	8	26.541	0	215.856	0	173.0	4	60.2	4	-1E+10	1	-1E+10	1	-1E+10	1	-1E+10	1	-1E+10	1	-1E+10	1
4901784	107	C	06/09/2018	10:45	-132.196	43.121	0	220.30	0	8.1630	0	34.0970	8	26.544	0	218.433	0	172.1	4	59.8	4	-1E+10	1	-1E+10	1	-1E+10	1	-1E+10	1	-1E+10	1	-1E+10	1
4901784	107	C	06/09/2018	10:45	-132.196	43.121	0	223.00	0	8.1490	0	34.0950	8	26.545	0	221.109	0	170.9	4	59.4	4	-1E+10	1	-1E+10	1	-1E+10	1	-1E+10	1	-1E+10	1	-1E+10	1
4901784	107	C	06/09/2018	10:45	-132.196	43.121	0	224.80	0	8.1300	0	34.0940	8	26.547	0	222.893	0	169.9	4	59.0	4	-1E+10	1	-1E+10	1	-1E+10	1	-1E+10	1	-1E+10	1	-1E+10	1
4901784	107	C	06/09/2018	10:45	-132.196	43.121	0	227.50	0	8.0730	0	34.0940	8	26.555	0	225.568	0	168.3	4	58.4	4	-1E+10	1	-1E+10	1	-1E+10	1	-1E+10	1	-1E+10	1	-1E+10	1
4901784	107	C	06/09/2018	10:45	-132.196	43.121	0	230.10	0	7.9960	0	34.0940	8	26.567	0	228.145	0	166.7	4	57.7	4	-1E+10	1	-1E+10	1	-1E+10	1	-1E+10	1	-1E+10	1	-1E+10	1
4901784	107	C	06/09/2018	10:45	-132.196	43.121	0	232.80	0	7.9610	0	34.0930	8	26.571	0	230.820	0	165.0	4	57.1	4	-1E+10	1	-1E+10	1	-1E+10	1	-1E+10	1	-1E+10	1	-1E+10	1
4901784	107	C	06/09/2018	10:45	-132.196	43.121	0	235.40	0	7.9050	0	34.0900	8	26.577	0	233.397	0	163.0	4	56.3	4	-1E+10	1	-1E+10	1	-1E+10	1	-1E+10	1	-1E+10	1	-1E+10	1
4901784	107	C	06/09/2018	10:45	-132.196	43.121	0	237.10	0	7.8290	0	34.0910	8	26.589	0	235.081	0	162.0	4	55.9	4	-1E+10	1	-1E+10	1	-1E+10	1	-1E+10	1	-1E+10	1	-1E+10	1
4901784	107	C	06/09/2018	10:45	-132.196	43.121	0	239.70	0	7.8030	0	34.0900	8	26.592	0	237.658	0	160.5	4	55.3	4	-1E+10	1	-1E+10	1	-1E+10	1	-1E+10	1	-1E+10	1	-1E+10	1
4901784	107	C	06/09/2018	10:45	-132.196	43.121	0	242.20	0	7.7390	0	34.0880	8	26.600	0	240.135	0	158.8	4	54.7	4	-1E+10	1	-1E+10	1	-1E+10	1	-1E+10	1	-1E+10	1	-1E+10	1
4901784	107	C	06/09/2018	10:45	-132.196	43.121	0	244.70	0	7.6730	0	34.0900	8	26.611	0	242.612	0	157.7	4	54.2	4	-1E+10	1	-1E+10	1	-1E+10	1	-1E+10	1	-1E+10	1	-1E+10	1
4901784	107	C	06/09/2018	10:45	-132.196	43.121	0	247.30	0	7.6590	0	34.0880	8	26.611	0	245.188	0	156.6	4	53.8	4	-1E+10	1	-1E+10	1	-1E+10	1	-1E+10	1	-1E+10	1	-1E+10	1
4901784	107	C	06/09/2018	10:45	-132.196	43.121	0	249.80	0	7.6220	0	34.0870	8	26.616	0	247.665	0	155.1	4	53.2	4	-1E+10	1	-1E+10	1	-1E+10	1	-1E+10	1	-1E+10	1	-1E+10	1
4901784	107	C	06/09/2018	10:45	-132.196	43.121	0	252.50	0	7.5780	0	34.0860	8	26.621	0	250.341	0	153.7	4	52.7	4	-1E+10	1	-1E+10	1	-1E+10	1	-1E+10	1	-1E+10	1	-1E+10	1
4901784	107	C	06/09/2018	10:45	-132.196	43.121	0	255.00	0	7.5340	0	34.0850	8	26.627	0	252.818	0	152.2	4	52.1	4	-1E+10	1	-1E+10	1	-1E+10	1	-1E+10	1	-1E+10	1	-1E+10	1
4901784	107	C	06/09/2018	10:45	-132.196	43.121	0	257.60	0	7.4900	0	34.0850	8	26.633	0	255.394	0	150.8	4	51.6	4	-1E+10	1	-1E+10	1	-1E+10	1	-1E+10	1	-1E+10	1	-1E+10	1
4901784	107	C	06/09/2018	10:45	-132.196	43.121	0	260.20	0	7.4530	0	34.0840	8	26.638	0	257.970	0	149.4	4	51.1	4	-1E+10	1	-1E+10	1	-1E+10	1	-1E+10	1	-1E+10	1	-1E+10	1
4901784	107	C	06/09/2018	10:45	-132.196	43.121	0	262.80	0	7.3990	0	34.0840	8	26.645	0	260.546	0	147.8	4	50.5	4	-1E+10	1	-1E+10	1	-1E+10	1	-1E+10	1	-1E+10	1	-1E+10	1
4901784	107	C	06/09/2018	10:45	-132.196	43.121	0	265.30	0	7.3580	0	34.0830	8	26.650	0	263.023	0	146.3	4	49.9	4	-1E+10	1	-1E+10	1	-1E+10	1	-1E+10	1	-1E+10	1	-1E+10	1
4901784	107	C	06/09/2018	10:45	-132.196	43.121	0	267.90	0	7.3120	0	34.0820	8	26.656	0	265.599	0	144.9	4	49.4	4	-1E+10	1	-1E+10	1	-1E+10	1	-1E+10	1	-1E+10	1	-1E+10	1
4901784	107	C	06/09/2018	10:45	-132.196	43.121	0	269.60	0	7.2760	0	34.0820	8	26.661	0	267.283	0	143.9	4	49.0	4	-1E+10	1	-1E+10	1	-1E+10	1	-1E+10	1	-1E+10	1	-1E+10	1
4901784	107	C	06/09/2018	10:45	-132.196	43.121	0	272.20	0	7.2300	0	34.0810	8	26.667	0	269.859	0	142.5	4	48.5	4	-1E+10	1	-1E+10	1	-1E+10	1	-1E+10	1	-1E+10	1	-1E+10	1
4901784	107	C	06/09/2018	10:45	-132.196	43.121	0	274.80	0	7.1970	0	34.0800	8	26.671	0	272.435	0	141.0	4	47.9	4	-1E+10	1	-1E+10	1	-1E+10	1	-1E+10	1	-1E+10	1	-1E+10	1
4901784	107	C	06/09/2018	10:45	-132.196	43.121	0	277.40	0	7.1520	0	34.0780	8	26.675	0	275.011	0	138.9	4	47.2	4	-1E+10	1	-1E+10	1	-1E+10	1	-1E+10	1	-1E+10	1	-1E+10	1
4901784	107	C	06/09/2018	10:45	-132.196	43.121	0	280.00	0	7.0850	0	34.0800	8	26.686	0	277.587	0	136.9	4	46.4	4	-1E+10	1	-1E+10	1	-1E+10	1	-1E+10	1	-1E+10	1	-1E+10	1
4901784	107	C	06/09/2018	10:45	-132.196	43.121	0	282.50	0	7.0150	0	34.0770	8	26.693	0	280.064	0	134.7	4	45.6	4	-1E+10	1	-1E+10	1	-1E+10	1	-1E+10	1	-1E+10	1	-1E+10	1
4901784	107	C	06/09/2018	10:45	-132.196	43.121	0	285.10	0	6.9620	0	34.0770	8	26.701	0	282.640	0	132.6	4	44.8	4	-1E+10	1	-1E+10	1	-1E+10	1	-1E+10	1	-1E+10	1	-1E+10	1
4901784	107	C	06/09/2018	10:45	-132.196	43.121	0	287.80	0	6.8860	0	34.0760	8	26.710	0	285.315	0	130.2	4	44.0	4	-1E+10	1	-1E+10	1	-1E+10	1	-1E+10	1	-1E+10	1	-1E+10	1
4901784	107	C	06/09/2018	10:45	-132.196	43.121	0	290.40	0	6.8140	0	34.0730	8	26.718	0	287.890	0	128.1	4	43.2	4	-1E+10	1	-1E+10	1	-1E+10	1	-1E+10	1	-1E+10	1	-1E+10	1
4901784	107	C	06/09/2018	10:45	-132.196	43.121	0	292.10	0	6.7570	0	34.0710	8	26.724	0	289.574	0	126.5	4	42.6	4	-1E+10	1	-1E+10	1	-1E+10	1	-1E+10	1	-1E+10	1	-1E+10	1
4901784	107	C	06/09/2018	10:45	-132.196	43.121	0	294.70	0	6.6810	0	34.0690	8	26.732	0	292.150	0	124.3	4	41.8	4	-1E+10	1	-1E+10	1	-1E+10	1	-1E+10	1	-1E+10	1	-1E+10	1
4901784	107	C	06/09/2018	10:45	-132.196	43.121	0	297.20	0	6.5370	0	34.0690	8	26.751	0	294.627	0	122.3	4	40.9	4	-1E+10	1	-1E+10	1	-1E+10	1	-1E+10	1	-1E+10	1	-1E+10	1
4901784	107	C	06/09/2018	10:45	-132.196	43.121	0	299.80	0	6.4720	0	34.0660	8	26.758	0	297.202	0	120.9	4	40.4	4	-1E+10	1	-1E+10	1	-1E+10	1	-1E+10	1	-1E+10	1	-1E+10	1
4901784	107	C	06/09/2018	10:45	-132.196	43.121	0	302.50	0	6.4110	0	34.0630	8	26.763	0	299.877	0	119.7	4	40.0	4	-1E+10	1	-1E+10	1	-1E+10	1	-1E+10	1	-1E+10	1	-1E+10	1
4901784	107	C	06/09/2018	10:45	-132.196	43.121	0	305.00	0	6.3700	0	34.0610	8	26.767	0	302.353	0	118.1	4	39.4	4	-1E+10	1	-1E+10	1	-1E+10	1	-1E+10	1	-1E+10	1	-1E+10	1
4901784	107	C	06/09/2018	10:45	-132.196	43.121	0	307.50	0	6.2650	0	34.0600	8	26.780	0	304.830	0	116.8	4	38.9	4	-1E+10	1	-1E+10	1	-1E+10	1	-1E+10	1	-1E+10	1	-1E+10	1
4901784	107	C	06/09/2018	10:45	-132.196	43.121	0	310.10	0	6.2250	0	34.0600	8	26.785	0	307.405	0	116.2	4	38.6	4	-1E+10	1	-1E+10	1	-1E+10	1	-1E+10	1	-1E+10	1	-1E+10	1
4901784	107	C	06/09/2018	10:45	-132.196	43.121	0	312.60	0	6.1980	0	34.0600	8	26.788	0	309.882	0	115.5	4	38.4	4	-1E+10	1	-1E+10	1	-1E+10	1	-1E+10	1	-1E+10	1	-1E+10	1
4901784	107	C	06/09/2018	10:45	-132.196	43.121	0	315.20	0	6.1720	0	34.0600	8	26.792	0	312.457	0	114.7	4	38.1	4	-1E+10	1	-1E+10	1	-1E+10	1	-1E+10	1	-1E+10	1	-1E+10	1
4901784	107	C	06/09/2018	10:45	-132.196	43.121	0	317.90	0	6.1490	0	34.0590	8	26.794	0	315.132	0	113.8	4	37.8	4	-1E+10	1	-1E+10	1	-1E+10	1	-1E+10	1	-1E+10	1	-1E+10	1
4901784	107	C	06/09/2018	10:45	-132.196	43.121	0	319.60	0	6.1280	0	34.0590	8	26.797	0	316.816	0	113.2	4	37.5	4	-1E+10	1	-1E+10	1	-1E+10	1	-1E+10	1	-1E+10	1	-1E+10	1
4901784	107	C	06/09/2018	10:45	-132.196	43.121	0	322.30	0	6.1020	0	34.0580	8	26.799	0	319.490	0	112.1	4	37.1	4	-1E+10	1	-1E+10	1	-1E+10	1	-1E+10	1	-1E+10	1	-1E+10	1
4901784	107	C	06/09/2018	10:45	-132.196	43.121	0	325.00	0	6.0500	0	34.0600	8	26.807	0	322.164	0	110.7	4	36.6	4	-1E+10	1	-1E+10	1	-1E+10	1	-1E+10	1	-1E+10	1	-1E+10	1
4901784	107	C	06/09/2018	10:45	-132.196	43.121	0	327.80	0	5.9860	0	34.0610	8	26.816	0	324.938	0	109.4	4	36.2	4	-1E+10	1	-1E+10	1	-1E+10	1	-1E+10	1	-1E+10	1	-1E+10	1
4901784	107	C	06/09/2018	10:45	-132.196	43.121	0	330.50	0	5.9540	0	34.0580	8	26.818	0	327.612	0	108.1	4	35.7	4	-1E+10	1	-1E+10	1	-1E+10	1	-1E+10	1	-1E+10	1	-1E+10	1
4901784	107	C	06/09/2018	10:45	-132.196	43.121	0	332.30	0	5.8990	0	34.0580	8	26.825	0	329.395	0	107.0	4	35.3	4	-1E+10	1	-1E+10	1	-1E+10	1	-1E+10	1	-1E+10	1	-1E+10	1
4901784	107	C	06/09/2018	10:45	-132.196	43.121	0	335.10	0	5.8660	0	34.0560	8	26.827	0	332.168	0	105.7	4	34.8	4	-1E+10	1	-1E+10	1	-1E+10	1	-1E+10	1	-1E+10	1	-1E+10	1
4901784	107	C	06/09/2018	10:45	-132.196	43.121	0	337.90	0	5.7970	0	34.0540	8	26.834	0	334.941	0	104.1	4	34.3	4	-1E+10	1	-1E+10	1	-1E+10	1	-1E+10	1	-1E+10	1	-1E+10	1
4901784	107	C	06/09/2018	10:45	-132.196	43.121	0	339.80	0	5.7130	0	34.0550	8	26.845	0	336.823	0	103.2	4	33.9	4	-1E+10	1	-1E+10	1	-1E+10	1	-1E+10	1	-1E+10	1	-1E+10	1
4901784	107	C	06/09/2018	10:45	-132.196	43.121	0	342.60	0	5.6810	0	34.0540	8	26.848	0	339.596	0	102.3	4	33.6	4	-1E+10	1	-1E+10	1	-1E+10	1	-1E+10	1	-1E+10	1	-1E+10	1
4901784	107	C	06/09/2018	10:45	-132.196	43.121	0	345.50	0	5.6330	0	34.0540	8	26.854	0	342.469	0	101.4	4	33.2	4	-1E+10	1	-1E+10	1	-1E+10	1	-1E+10	1	-1E+10	1	-1E+10	1
4901784	107	C	06/09/2018	10:45	-132.196	43.121	0	347.40	0	5.6250	0	34.0530	8	26.854	0	344.350	0	100.9	4	33.1	4	-1E+10	1	-1E+10	1	-1E+10	1	-1E+10	1	-1E+10	1	-1E+10	1
4901784	107	C	06/09/2018	10:45	-132.196	43.121	0	350.20	0	5.6010	0	34.0520	8	26.857	0	347.123	0	99.8	4	32.7	4	-1E+10	1	-1E+10	1	-1E+10	1	-1E+10	1	-1E+10	1	-1E+10	1
4901784	107	C	06/09/2018	10:45	-132.196	43.121	0	353.00	0	5.5660	0	34.0510	8	26.860	0	349.896	0	98.7	4	32.3	4	-1E+10	1	-1E+10	1	-1E+10	1	-1E+10	1	-1E+10	1	-1E+10	1
4901784	107	C	06/09/2018	10:45	-132.196	43.121	0	354.90	0	5.5360	0	34.0500	8	26.863	0	351.778	0	98.1	4	32.1	4	-1E+10	1	-1E+10	1	-1E+10	1	-1E+10	1	-1E+10	1	-1E+10	1
4901784	107	C	06/09/2018	10:45	-132.196	43.121	0	357.80	0	5.4840	0	34.0510	8	26.870	0	354.650	0	97.2	4	31.8	4	-1E+10	1	-1E+10	1	-1E+10	1	-1E+10	1	-1E+10	1	-1E+10	1
4901784	107	C	06/09/2018	10:45	-132.196	43.121	0	360.60	0	5.4450	0	34.0510	8	26.874	0	357.423	0	96.3	4	31.4	4	-1E+10	1	-1E+10	1	-1E+10	1	-1E+10	1	-1E+10	1	-1E+10	1
4901784	107	C	06/09/2018	10:45	-132.196	43.121	0	362.50	0	5.4200	0	34.0520	8	26.878	0	359.305	0	95.5	4	31.2	4	-1E+10	1	-1E+10	1	-1E+10	1	-1E+10	1	-1E+10	1	-1E+10	1
4901784	107	C	06/09/2018	10:45	-132.196	43.121	0	364.40	0	5.4170	0	34.0510	8	26.878	0	361.186	0	94.9	4	31.0	4	-1E+10	1	-1E+10	1	-1E+10	1	-1E+10	1	-1E+10	1	-1E+10	1
4901784	107	C	06/09/2018	10:45	-132.196	43.121	0	367.30	0	5.3610	0	34.0540	8	26.887	0	364.058	0	93.8	4	30.6	4	-1E+10	1	-1E+10	1	-1E+10	1	-1E+10	1	-1E+10	1	-1E+10	1
4901784	107	C	06/09/2018	10:45	-132.196	43.121	0	370.20	0	5.3360	0	34.0530	8	26.889	0	366.930	0	93.1	4	30.3	4	-1E+10	1	-1E+10	1	-1E+10	1	-1E+10	1	-1E+10	1	-1E+10	1
4901784	107	C	06/09/2018	10:45	-132.196	43.121	0	372.20	0	5.3310	0	34.0530	8	26.890	0	368.911	0	92.6	4	30.1	4	-1E+10	1	-1E+10	1	-1E+10	1	-1E+10	1	-1E+10	1	-1E+10	1
4901784	107	C	06/09/2018	10:45	-132.196	43.121	0	374.70	0	5.3270	0	34.0520	8	26.889	0	371.386	0	91.6	4	29.8	4	-1E+10	1	-1E+10	1	-1E+10	1	-1E+10	1	-1E+10	1	-1E+10	1
4901784	107	C	06/09/2018	10:45	-132.196	43.121	0	377.40	0	5.3040	0	34.0540	8	26.894	0	374.060	0	90.2	4	29.4	4	-1E+10	1	-1E+10	1	-1E+10	1	-1E+10	1	-1E+10	1	-1E+10	1
4901784	107	C	06/09/2018	10:45	-132.196	43.121	0	379.90	0	5.2570	0	34.0550	8	26.900	0	376.536	0	89.6	4	29.1	4	-1E+10	1	-1E+10	1	-1E+10	1	-1E+10	1	-1E+10	1	-1E+10	1
4901784	107	C	06/09/2018	10:45	-132.196	43.121	0	382.30	0	5.2290	0	34.0610	8	26.908	0	378.912	0	88.5	4	28.8	4	-1E+10	1	-1E+10	1	-1E+10	1	-1E+10	1	-1E+10	1	-1E+10	1
4901784	107	C	06/09/2018	10:45	-132.196	43.121	0	384.70	0	5.1980	0	34.0570	8	26.908	0	381.289	0	87.5	4	28.4	4	-1E+10	1	-1E+10	1	-1E+10	1	-1E+10	1	-1E+10	1	-1E+10	1
4901784	107	C	06/09/2018	10:45	-132.196	43.121	0	387.10	0	5.1660	0	34.0620	8	26.916	0	383.665	0	86.6	4	28.1	4	-1E+10	1	-1E+10	1	-1E+10	1	-1E+10	1	-1E+10	1	-1E+10	1
4901784	107	C	06/09/2018	10:45	-132.196	43.121	0	390.30	0	5.1610	0	34.0650	8	26.919	0	386.834	0	85.4	4	27.7	4	-1E+10	1	-1E+10	1	-1E+10	1	-1E+10	1	-1E+10	1	-1E+10	1
4901784	107	C	06/09/2018	10:45	-132.196	43.121	0	392.90	0	5.1270	0	34.0680	8	26.925	0	389.408	0	84.1	4	27.3	4	-1E+10	1	-1E+10	1	-1E+10	1	-1E+10	1	-1E+10	1	-1E+10	1
4901784	107	C	06/09/2018	10:45	-132.196	43.121	0	394.50	0	5.1030	0	34.0680	8	26.928	0	390.992	0	83.5	4	27.0	4	-1E+10	1	-1E+10	1	-1E+10	1	-1E+10	1	-1E+10	1	-1E+10	1
4901784	107	C	06/09/2018	10:45	-132.196	43.121	0	397.10	0	5.0930	0	34.0670	8	26.929	0	393.567	0	82.5	4	26.7	4	-1E+10	1	-1E+10	1	-1E+10	1	-1E+10	1	-1E+10	1	-1E+10	1
4901784	107	C	06/09/2018	10:45	-132.196	43.121	0	400.40	0	5.0730	0	34.0680	8	26.932	0	396.834	0	80.4	4	26.0	4	-1E+10	1	-1E+10	1	-1E+10	1	-1E+10	1	-1E+10	1	-1E+10	1
4901784	107	C	06/09/2018	10:45	-132.196	43.121	0	402.90	0	5.0560	0	34.0700	8	26.935	0	399.310	0	78.5	4	25.4	4	-1E+10	1	-1E+10	1	-1E+10	1	-1E+10	1	-1E+10	1	-1E+10	1
4901784	107	C	06/09/2018	10:45	-132.196	43.121	0	405.40	0	5.0070	0	34.0740	8	26.944	0	401.785	0	76.5	4	24.7	4	-1E+10	1	-1E+10	1	-1E+10	1	-1E+10	1	-1E+10	1	-1E+10	1
4901784	107	C	06/09/2018	10:45	-132.196	43.121	0	407.90	0	4.9680	0	34.0790	8	26.952	0	404.260	0	75.3	4	24.3	4	-1E+10	1	-1E+10	1	-1E+10	1	-1E+10	1	-1E+10	1	-1E+10	1
4901784	107	C	06/09/2018	10:45	-132.196	43.121	0	409.60	0	4.9650	0	34.0800	8	26.954	0	405.943	0	75.0	4	24.2	4	-1E+10	1	-1E+10	1	-1E+10	1	-1E+10	1	-1E+10	1	-1E+10	1
4901784	107	C	06/09/2018	10:45	-132.196	43.121	0	412.10	0	4.9590	0	34.0800	8	26.954	0	408.419	0	74.3	4	24.0	4	-1E+10	1	-1E+10	1	-1E+10	1	-1E+10	1	-1E+10	1	-1E+10	1
4901784	107	C	06/09/2018	10:45	-132.196	43.121	0	414.60	0	4.9500	0	34.0810	8	26.956	0	410.894	0	73.5	4	23.7	4	-1E+10	1	-1E+10	1	-1E+10	1	-1E+10	1	-1E+10	1	-1E+10	1
4901784	107	C	06/09/2018	10:45	-132.196	43.121	0	417.10	0	4.9320	0	34.0830	8	26.960	0	413.369	0	72.5	4	23.4	4	-1E+10	1	-1E+10	1	-1E+10	1	-1E+10	1	-1E+10	1	-1E+10	1
4901784	107	C	06/09/2018	10:45	-132.196	43.121	0	419.60	0	4.9170	0	34.0850	8	26.963	0	415.844	0	71.8	4	23.2	4	-1E+10	1	-1E+10	1	-1E+10	1	-1E+10	1	-1E+10	1	-1E+10	1
4901784	107	C	06/09/2018	10:45	-132.196	43.121	0	422.20	0	4.9020	0	34.0860	8	26.966	0	418.418	0	70.9	4	22.9	4	-1E+10	1	-1E+10	1	-1E+10	1	-1E+10	1	-1E+10	1	-1E+10	1
4901784	107	C	06/09/2018	10:45	-132.196	43.121	0	424.80	0	4.8800	0	34.0880	8	26.970	0	420.992	0	69.8	4	22.5	4	-1E+10	1	-1E+10	1	-1E+10	1	-1E+10	1	-1E+10	1	-1E+10	1
4901784	107	C	06/09/2018	10:45	-132.196	43.121	0	427.50	0	4.8570	0	34.0920	8	26.975	0	423.665	0	68.7	4	22.1	4	-1E+10	1	-1E+10	1	-1E+10	1	-1E+10	1	-1E+10	1	-1E+10	1
4901784	107	C	06/09/2018	10:45	-132.196	43.121	0	430.10	0	4.8360	0	34.0980	8	26.983	0	426.239	0	67.7	4	21.8	4	-1E+10	1	-1E+10	1	-1E+10	1	-1E+10	1	-1E+10	1	-1E+10	1
4901784	107	C	06/09/2018	10:45	-132.196	43.121	0	432.60	0	4.8290	0	34.1000	8	26.985	0	428.714	0	67.2	4	21.6	4	-1E+10	1	-1E+10	1	-1E+10	1	-1E+10	1	-1E+10	1	-1E+10	1
4901784	107	C	06/09/2018	10:45	-132.196	43.121	0	435.20	0	4.8240	0	34.1020	8	26.987	0	431.288	0	66.7	4	21.5	4	-1E+10	1	-1E+10	1	-1E+10	1	-1E+10	1	-1E+10	1	-1E+10	1
4901784	107	C	06/09/2018	10:45	-132.196	43.121	0	437.80	0	4.8230	0	34.1020	8	26.987	0	433.862	0	66.3	4	21.3	4	-1E+10	1	-1E+10	1	-1E+10	1	-1E+10	1	-1E+10	1	-1E+10	1
4901784	107	C	06/09/2018	10:45	-132.196	43.121	0	440.40	0	4.8190	0	34.1030	8	26.989	0	436.436	0	65.8	4	21.2	4	-1E+10	1	-1E+10	1	-1E+10	1	-1E+10	1	-1E+10	1	-1E+10	1
4901784	107	C	06/09/2018	10:45	-132.196	43.121	0	442.10	0	4.8180	0	34.1040	8	26.989	0	438.119	0	65.4	4	21.0	4	-1E+10	1	-1E+10	1	-1E+10	1	-1E+10	1	-1E+10	1	-1E+10	1
4901784	107	C	06/09/2018	10:45	-132.196	43.121	0	444.80	0	4.8180	0	34.1040	8	26.989	0	440.792	0	64.7	4	20.8	4	-1E+10	1	-1E+10	1	-1E+10	1	-1E+10	1	-1E+10	1	-1E+10	1
4901784	107	C	06/09/2018	10:45	-132.196	43.121	0	447.40	0	4.8150	0	34.1040	8	26.990	0	443.366	0	63.7	4	20.5	4	-1E+10	1	-1E+10	1	-1E+10	1	-1E+10	1	-1E+10	1	-1E+10	1
4901784	107	C	06/09/2018	10:45	-132.196	43.121	0	450.00	0	4.7740	0	34.1110	8	27.000	0	445.939	0	62.8	4	20.2	4	-1E+10	1	-1E+10	1	-1E+10	1	-1E+10	1	-1E+10	1	-1E+10	1
4901784	107	C	06/09/2018	10:45	-132.196	43.121	0	452.50	0	4.7530	0	34.1150	8	27.006	0	448.414	0	62.3	4	20.0	4	-1E+10	1	-1E+10	1	-1E+10	1	-1E+10	1	-1E+10	1	-1E+10	1
4901784	107	C	06/09/2018	10:45	-132.196	43.121	0	455.10	0	4.7540	0	34.1160	8	27.006	0	450.988	0	62.0	4	19.9	4	-1E+10	1	-1E+10	1	-1E+10	1	-1E+10	1	-1E+10	1	-1E+10	1
4901784	107	C	06/09/2018	10:45	-132.196	43.121	0	457.70	0	4.7540	0	34.1150	8	27.005	0	453.562	0	61.7	4	19.8	4	-1E+10	1	-1E+10	1	-1E+10	1	-1E+10	1	-1E+10	1	-1E+10	1
4901784	107	C	06/09/2018	10:45	-132.196	43.121	0	460.20	0	4.7440	0	34.1170	8	27.008	0	456.036	0	61.4	4	19.7	4	-1E+10	1	-1E+10	1	-1E+10	1	-1E+10	1	-1E+10	1	-1E+10	1
4901784	107	C	06/09/2018	10:45	-132.196	43.121	0	462.70	0	4.7370	0	34.1170	8	27.009	0	458.511	0	61.0	4	19.6	4	-1E+10	1	-1E+10	1	-1E+10	1	-1E+10	1	-1E+10	1	-1E+10	1
4901784	107	C	06/09/2018	10:45	-132.196	43.121	0	465.20	0	4.7260	0	34.1190	8	27.012	0	460.985	0	60.5	4	19.4	4	-1E+10	1	-1E+10	1	-1E+10	1	-1E+10	1	-1E+10	1	-1E+10	1
4901784	107	C	06/09/2018	10:45	-132.196	43.121	0	467.80	0	4.7170	0	34.1190	8	27.013	0	463.559	0	60.0	4	19.3	4	-1E+10	1	-1E+10	1	-1E+10	1	-1E+10	1	-1E+10	1	-1E+10	1
4901784	107	C	06/09/2018	10:45	-132.196	43.121	0	469.50	0	4.7070	0	34.1220	8	27.016	0	465.242	0	59.5	4	19.1	4	-1E+10	1	-1E+10	1	-1E+10	1	-1E+10	1	-1E+10	1	-1E+10	1
4901784	107	C	06/09/2018	10:45	-132.196	43.121	0	472.20	0	4.6800	0	34.1200	8	27.018	0	467.914	0	58.5	4	18.8	4	-1E+10	1	-1E+10	1	-1E+10	1	-1E+10	1	-1E+10	1	-1E+10	1
4901784	107	C	06/09/2018	10:45	-132.196	43.121	0	474.90	0	4.6640	0	34.1250	8	27.023	0	470.586	0	57.2	4	18.4	4	-1E+10	1	-1E+10	1	-1E+10	1	-1E+10	1	-1E+10	1	-1E+10	1
4901784	107	C	06/09/2018	10:45	-132.196	43.121	0	477.60	0	4.6570	0	34.1280	8	27.027	0	473.259	0	56.0	4	17.9	4	-1E+10	1	-1E+10	1	-1E+10	1	-1E+10	1	-1E+10	1	-1E+10	1
4901784	107	C	06/09/2018	10:45	-132.196	43.121	0	480.30	0	4.6470	0	34.1330	8	27.032	0	475.931	0	54.5	4	17.5	4	-1E+10	1	-1E+10	1	-1E+10	1	-1E+10	1	-1E+10	1	-1E+10	1
4901784	107	C	06/09/2018	10:45	-132.196	43.121	0	482.00	0	4.6410	0	34.1350	8	27.034	0	477.614	0	53.5	4	17.2	4	-1E+10	1	-1E+10	1	-1E+10	1	-1E+10	1	-1E+10	1	-1E+10	1
4901784	107	C	06/09/2018	10:45	-132.196	43.121	0	484.70	0	4.6300	0	34.1360	8	27.036	0	480.286	0	52.1	4	16.7	4	-1E+10	1	-1E+10	1	-1E+10	1	-1E+10	1	-1E+10	1	-1E+10	1
4901784	107	C	06/09/2018	10:45	-132.196	43.121	0	487.50	0	4.6120	0	34.1390	8	27.040	0	483.057	0	50.8	4	16.3	4	-1E+10	1	-1E+10	1	-1E+10	1	-1E+10	1	-1E+10	1	-1E+10	1
4901784	107	C	06/09/2018	10:45	-132.196	43.121	0	490.20	0	4.6050	0	34.1450	8	27.046	0	485.730	0	50.1	4	16.0	4	-1E+10	1	-1E+10	1	-1E+10	1	-1E+10	1	-1E+10	1	-1E+10	1
4901784	107	C	06/09/2018	10:45	-132.196	43.121	0	493.00	0	4.6160	0	34.1520	8	27.050	0	488.501	0	49.1	4	15.7	4	-1E+10	1	-1E+10	1	-1E+10	1	-1E+10	1	-1E+10	1	-1E+10	1
4901784	107	C	06/09/2018	10:45	-132.196	43.121	0	494.80	0	4.6220	0	34.1540	8	27.051	0	490.282	0	48.5	4	15.5	4	-1E+10	1	-1E+10	1	-1E+10	1	-1E+10	1	-1E+10	1	-1E+10	1
4901784	107	C	06/09/2018	10:45	-132.196	43.121	0	497.50	0	4.6110	0	34.1570	8	27.055	0	492.954	0	47.8	4	15.3	4	-1E+10	1	-1E+10	1	-1E+10	1	-1E+10	1	-1E+10	1	-1E+10	1
4901784	107	C	06/09/2018	10:45	-132.196	43.121	0	500.20	0	4.5990	0	34.1560	8	27.055	0	495.627	0	46.8	4	15.0	4	-1E+10	1	-1E+10	1	-1E+10	1	-1E+10	1	-1E+10	1	-1E+10	1
4901784	107	C	06/09/2018	10:45	-132.196	43.121	0	504.80	0	4.5610	0	34.1600	8	27.063	0	500.179	0	45.6	4	14.6	4	-1E+10	1	-1E+10	1	-1E+10	1	-1E+10	1	-1E+10	1	-1E+10	1
4901784	107	C	06/09/2018	10:45	-132.196	43.121	0	509.40	0	4.5520	0	34.1650	8	27.068	0	504.731	0	44.4	4	14.2	4	-1E+10	1	-1E+10	1	-1E+10	1	-1E+10	1	-1E+10	1	-1E+10	1
4901784	107	C	06/09/2018	10:45	-132.196	43.121	0	515.00	0	4.5110	0	34.1670	8	27.074	0	510.273	0	42.9	4	13.7	4	-1E+10	1	-1E+10	1	-1E+10	1	-1E+10	1	-1E+10	1	-1E+10	1
4901784	107	C	06/09/2018	10:45	-132.196	43.121	0	520.30	0	4.5320	0	34.1790	8	27.081	0	515.518	0	41.3	4	13.2	4	-1E+10	1	-1E+10	1	-1E+10	1	-1E+10	1	-1E+10	1	-1E+10	1
4901784	107	C	06/09/2018	10:45	-132.196	43.121	0	524.50	0	4.5170	0	34.1810	8	27.084	0	519.674	0	40.6	4	13.0	4	-1E+10	1	-1E+10	1	-1E+10	1	-1E+10	1	-1E+10	1	-1E+10	1
4901784	107	C	06/09/2018	10:45	-132.196	43.121	0	530.00	0	4.5140	0	34.1870	8	27.089	0	525.116	0	39.4	4	12.6	4	-1E+10	1	-1E+10	1	-1E+10	1	-1E+10	1	-1E+10	1	-1E+10	1
4901784	107	C	06/09/2018	10:45	-132.196	43.121	0	535.50	0	4.4760	0	34.1890	8	27.095	0	530.559	0	38.1	4	12.2	4	-1E+10	1	-1E+10	1	-1E+10	1	-1E+10	1	-1E+10	1	-1E+10	1
4901784	107	C	06/09/2018	10:45	-132.196	43.121	0	540.40	0	4.4260	0	34.1910	8	27.102	0	535.407	0	36.9	4	11.8	4	-1E+10	1	-1E+10	1	-1E+10	1	-1E+10	1	-1E+10	1	-1E+10	1
4901784	107	C	06/09/2018	10:45	-132.196	43.121	0	545.20	0	4.4060	0	34.1950	8	27.108	0	540.157	0	36.2	4	11.5	4	-1E+10	1	-1E+10	1	-1E+10	1	-1E+10	1	-1E+10	1	-1E+10	1
4901784	107	C	06/09/2018	10:45	-132.196	43.121	0	550.10	0	4.3930	0	34.1980	8	27.111	0	545.005	0	35.4	4	11.3	4	-1E+10	1	-1E+10	1	-1E+10	1	-1E+10	1	-1E+10	1	-1E+10	1
4901784	107	C	06/09/2018	10:45	-132.196	43.121	0	555.10	0	4.3710	0	34.2030	8	27.118	0	549.952	0	34.7	4	11.0	4	-1E+10	1	-1E+10	1	-1E+10	1	-1E+10	1	-1E+10	1	-1E+10	1
4901784	107	C	06/09/2018	10:45	-132.196	43.121	0	560.10	0	4.3570	0	34.2060	8	27.122	0	554.899	0	33.9	4	10.8	4	-1E+10	1	-1E+10	1	-1E+10	1	-1E+10	1	-1E+10	1	-1E+10	1
4901784	107	C	06/09/2018	10:45	-132.196	43.121	0	565.10	0	4.3510	0	34.2100	8	27.125	0	559.846	0	33.0	4	10.5	4	-1E+10	1	-1E+10	1	-1E+10	1	-1E+10	1	-1E+10	1	-1E+10	1
4901784	107	C	06/09/2018	10:45	-132.196	43.121	0	570.10	0	4.3410	0	34.2160	8	27.131	0	564.792	0	31.9	4	10.2	4	-1E+10	1	-1E+10	1	-1E+10	1	-1E+10	1	-1E+10	1	-1E+10	1
4901784	107	C	06/09/2018	10:45	-132.196	43.121	0	575.00	0	4.3280	0	34.2230	8	27.138	0	569.640	0	31.2	4	9.9	4	-1E+10	1	-1E+10	1	-1E+10	1	-1E+10	1	-1E+10	1	-1E+10	1
4901784	107	C	06/09/2018	10:45	-132.196	43.121	0	579.90	0	4.3250	0	34.2250	8	27.140	0	574.488	0	30.7	4	9.8	4	-1E+10	1	-1E+10	1	-1E+10	1	-1E+10	1	-1E+10	1	-1E+10	1
4901784	107	C	06/09/2018	10:45	-132.196	43.121	0	584.90	0	4.3290	0	34.2270	8	27.142	0	579.434	0	30.0	4	9.5	4	-1E+10	1	-1E+10	1	-1E+10	1	-1E+10	1	-1E+10	1	-1E+10	1
4901784	107	C	06/09/2018	10:45	-132.196	43.121	0	590.00	0	4.3190	0	34.2320	8	27.147	0	584.479	0	29.1	4	9.2	4	-1E+10	1	-1E+10	1	-1E+10	1	-1E+10	1	-1E+10	1	-1E+10	1
4901784	107	C	06/09/2018	10:45	-132.196	43.121	0	595.10	0	4.3130	0	34.2360	8	27.150	0	589.524	0	28.5	4	9.1	4	-1E+10	1	-1E+10	1	-1E+10	1	-1E+10	1	-1E+10	1	-1E+10	1
4901784	107	C	06/09/2018	10:45	-132.196	43.121	0	600.10	0	4.2850	0	34.2370	8	27.154	0	594.470	0	28.1	4	8.9	4	-1E+10	1	-1E+10	1	-1E+10	1	-1E+10	1	-1E+10	1	-1E+10	1
4901784	107	C	06/09/2018	10:45	-132.196	43.121	0	605.20	0	4.2780	0	34.2410	8	27.158	0	599.515	0	27.3	4	8.7	4	-1E+10	1	-1E+10	1	-1E+10	1	-1E+10	1	-1E+10	1	-1E+10	1
4901784	107	C	06/09/2018	10:45	-132.196	43.121	0	610.40	0	4.2540	0	34.2470	8	27.166	0	604.659	0	26.0	4	8.3	4	-1E+10	1	-1E+10	1	-1E+10	1	-1E+10	1	-1E+10	1	-1E+10	1
4901784	107	C	06/09/2018	10:45	-132.196	43.121	0	614.80	0	4.2630	0	34.2560	8	27.172	0	609.011	0	24.8	4	7.9	4	-1E+10	1	-1E+10	1	-1E+10	1	-1E+10	1	-1E+10	1	-1E+10	1
4901784	107	C	06/09/2018	10:45	-132.196	43.121	0	619.30	0	4.2550	0	34.2620	8	27.177	0	613.462	0	23.8	4	7.6	4	-1E+10	1	-1E+10	1	-1E+10	1	-1E+10	1	-1E+10	1	-1E+10	1
4901784	107	C	06/09/2018	10:45	-132.196	43.121	0	624.70	0	4.2590	0	34.2710	8	27.184	0	618.803	0	22.8	4	7.3	4	-1E+10	1	-1E+10	1	-1E+10	1	-1E+10	1	-1E+10	1	-1E+10	1
4901784	107	C	06/09/2018	10:45	-132.196	43.121	0	630.20	0	4.2550	0	34.2770	8	27.189	0	624.243	0	22.0	4	7.0	4	-1E+10	1	-1E+10	1	-1E+10	1	-1E+10	1	-1E+10	1	-1E+10	1
4901784	107	C	06/09/2018	10:45	-132.196	43.121	0	634.80	0	4.2510	0	34.2820	8	27.194	0	628.792	0	21.6	4	6.9	4	-1E+10	1	-1E+10	1	-1E+10	1	-1E+10	1	-1E+10	1	-1E+10	1
4901784	107	C	06/09/2018	10:45	-132.196	43.121	0	639.50	0	4.2280	0	34.2860	8	27.199	0	633.441	0	21.2	4	6.7	4	-1E+10	1	-1E+10	1	-1E+10	1	-1E+10	1	-1E+10	1	-1E+10	1
4901784	107	C	06/09/2018	10:45	-132.196	43.121	0	645.10	0	4.2150	0	34.2900	8	27.204	0	638.979	0	20.5	4	6.5	4	-1E+10	1	-1E+10	1	-1E+10	1	-1E+10	1	-1E+10	1	-1E+10	1
4901784	107	C	06/09/2018	10:45	-132.196	43.121	0	650.40	0	4.2230	0	34.2980	8	27.210	0	644.221	0	19.4	4	6.2	4	-1E+10	1	-1E+10	1	-1E+10	1	-1E+10	1	-1E+10	1	-1E+10	1
4901784	107	C	06/09/2018	10:45	-132.196	43.121	0	655.30	0	4.2170	0	34.3030	8	27.214	0	649.067	0	18.6	4	5.9	4	-1E+10	1	-1E+10	1	-1E+10	1	-1E+10	1	-1E+10	1	-1E+10	1
4901784	107	C	06/09/2018	10:45	-132.196	43.121	0	660.20	0	4.2160	0	34.3100	8	27.220	0	653.912	0	18.2	4	5.8	4	-1E+10	1	-1E+10	1	-1E+10	1	-1E+10	1	-1E+10	1	-1E+10	1
4901784	107	C	06/09/2018	10:45	-132.196	43.121	0	665.20	0	4.2100	0	34.3130	8	27.223	0	658.857	0	18.0	4	5.7	4	-1E+10	1	-1E+10	1	-1E+10	1	-1E+10	1	-1E+10	1	-1E+10	1
4901784	107	C	06/09/2018	10:45	-132.196	43.121	0	670.30	0	4.1880	0	34.3150	8	27.227	0	663.900	0	17.8	4	5.7	4	-1E+10	1	-1E+10	1	-1E+10	1	-1E+10	1	-1E+10	1	-1E+10	1
4901784	107	C	06/09/2018	10:45	-132.196	43.121	0	675.30	0	4.1720	0	34.3190	8	27.232	0	668.844	0	17.7	4	5.6	4	-1E+10	1	-1E+10	1	-1E+10	1	-1E+10	1	-1E+10	1	-1E+10	1
4901784	107	C	06/09/2018	10:45	-132.196	43.121	0	680.30	0	4.1490	0	34.3200	8	27.235	0	673.788	0	17.8	4	5.6	4	-1E+10	1	-1E+10	1	-1E+10	1	-1E+10	1	-1E+10	1	-1E+10	1
4901784	107	C	06/09/2018	10:45	-132.196	43.121	0	685.40	0	4.1380	0	34.3210	8	27.237	0	678.831	0	17.6	4	5.6	4	-1E+10	1	-1E+10	1	-1E+10	1	-1E+10	1	-1E+10	1	-1E+10	1
4901784	107	C	06/09/2018	10:45	-132.196	43.121	0	690.60	0	4.1340	0	34.3250	8	27.241	0	683.973	0	17.1	4	5.4	4	-1E+10	1	-1E+10	1	-1E+10	1	-1E+10	1	-1E+10	1	-1E+10	1
4901784	107	C	06/09/2018	10:45	-132.196	43.121	0	695.70	0	4.1290	0	34.3290	8	27.244	0	689.016	0	16.8	4	5.3	4	-1E+10	1	-1E+10	1	-1E+10	1	-1E+10	1	-1E+10	1	-1E+10	1
4901784	107	C	06/09/2018	10:45	-132.196	43.121	0	700.80	0	4.0590	0	34.3310	8	27.253	0	694.058	0	16.5	4	5.2	4	-1E+10	1	-1E+10	1	-1E+10	1	-1E+10	1	-1E+10	1	-1E+10	1
4901784	107	C	06/09/2018	10:45	-132.196	43.121	0	705.00	0	4.0630	0	34.3400	8	27.260	0	698.211	0	16.0	4	5.1	4	-1E+10	1	-1E+10	1	-1E+10	1	-1E+10	1	-1E+10	1	-1E+10	1
4901784	107	C	06/09/2018	10:45	-132.196	43.121	0	709.20	0	4.0420	0	34.3430	8	27.265	0	702.363	0	16.0	4	5.1	4	-1E+10	1	-1E+10	1	-1E+10	1	-1E+10	1	-1E+10	1	-1E+10	1
4901784	107	C	06/09/2018	10:45	-132.196	43.121	0	714.30	0	3.9670	0	34.3450	8	27.274	0	707.405	0	16.2	4	5.1	4	-1E+10	1	-1E+10	1	-1E+10	1	-1E+10	1	-1E+10	1	-1E+10	1
4901784	107	C	06/09/2018	10:45	-132.196	43.121	0	719.30	0	3.9360	0	34.3450	8	27.277	0	712.348	0	16.0	4	5.1	4	-1E+10	1	-1E+10	1	-1E+10	1	-1E+10	1	-1E+10	1	-1E+10	1
4901784	107	C	06/09/2018	10:45	-132.196	43.121	0	724.40	0	3.9300	0	34.3470	8	27.279	0	717.390	0	15.9	4	5.0	4	-1E+10	1	-1E+10	1	-1E+10	1	-1E+10	1	-1E+10	1	-1E+10	1
4901784	107	C	06/09/2018	10:45	-132.196	43.121	0	729.60	0	3.9090	0	34.3480	8	27.282	0	722.531	0	15.6	4	4.9	4	-1E+10	1	-1E+10	1	-1E+10	1	-1E+10	1	-1E+10	1	-1E+10	1
4901784	107	C	06/09/2018	10:45	-132.196	43.121	0	734.70	0	3.8900	0	34.3530	8	27.288	0	727.573	0	15.3	4	4.8	4	-1E+10	1	-1E+10	1	-1E+10	1	-1E+10	1	-1E+10	1	-1E+10	1
4901784	107	C	06/09/2018	10:45	-132.196	43.121	0	739.90	0	3.8810	0	34.3560	8	27.292	0	732.713	0	15.0	4	4.7	4	-1E+10	1	-1E+10	1	-1E+10	1	-1E+10	1	-1E+10	1	-1E+10	1
4901784	107	C	06/09/2018	10:45	-132.196	43.121	0	745.00	0	3.8660	0	34.3610	8	27.297	0	737.755	0	14.7	4	4.6	4	-1E+10	1	-1E+10	1	-1E+10	1	-1E+10	1	-1E+10	1	-1E+10	1
4901784	107	C	06/09/2018	10:45	-132.196	43.121	0	750.20	0	3.8530	0	34.3640	8	27.301	0	742.895	0	14.5	4	4.6	4	-1E+10	1	-1E+10	1	-1E+10	1	-1E+10	1	-1E+10	1	-1E+10	1
4901784	107	C	06/09/2018	10:45	-132.196	43.121	0	755.30	0	3.8420	0	34.3680	8	27.305	0	747.936	0	14.2	4	4.5	4	-1E+10	1	-1E+10	1	-1E+10	1	-1E+10	1	-1E+10	1	-1E+10	1
4901784	107	C	06/09/2018	10:45	-132.196	43.121	0	760.50	0	3.8330	0	34.3710	8	27.309	0	753.076	0	14.0	4	4.4	4	-1E+10	1	-1E+10	1	-1E+10	1	-1E+10	1	-1E+10	1	-1E+10	1
4901784	107	C	06/09/2018	10:45	-132.196	43.121	0	765.60	0	3.8200	0	34.3740	8	27.312	0	758.117	0	13.8	4	4.3	4	-1E+10	1	-1E+10	1	-1E+10	1	-1E+10	1	-1E+10	1	-1E+10	1
4901784	107	C	06/09/2018	10:45	-132.196	43.121	0	770.70	0	3.8000	0	34.3800	8	27.319	0	763.158	0	13.6	4	4.3	4	-1E+10	1	-1E+10	1	-1E+10	1	-1E+10	1	-1E+10	1	-1E+10	1
4901784	107	C	06/09/2018	10:45	-132.196	43.121	0	774.90	0	3.7940	0	34.3820	8	27.321	0	767.309	0	13.4	4	4.2	4	-1E+10	1	-1E+10	1	-1E+10	1	-1E+10	1	-1E+10	1	-1E+10	1
4901784	107	C	06/09/2018	10:45	-132.196	43.121	0	779.20	0	3.7820	0	34.3840	8	27.324	0	771.559	0	13.2	4	4.2	4	-1E+10	1	-1E+10	1	-1E+10	1	-1E+10	1	-1E+10	1	-1E+10	1
4901784	107	C	06/09/2018	10:45	-132.196	43.121	0	784.30	0	3.7660	0	34.3890	8	27.330	0	776.599	0	12.9	4	4.1	4	-1E+10	1	-1E+10	1	-1E+10	1	-1E+10	1	-1E+10	1	-1E+10	1
4901784	107	C	06/09/2018	10:45	-132.196	43.121	0	789.40	0	3.7440	0	34.3970	8	27.338	0	781.640	0	12.6	4	4.0	4	-1E+10	1	-1E+10	1	-1E+10	1	-1E+10	1	-1E+10	1	-1E+10	1
4901784	107	C	06/09/2018	10:45	-132.196	43.121	0	794.50	0	3.7250	0	34.4030	8	27.345	0	786.680	0	12.4	4	3.9	4	-1E+10	1	-1E+10	1	-1E+10	1	-1E+10	1	-1E+10	1	-1E+10	1
4901784	107	C	06/09/2018	10:45	-132.196	43.121	0	799.60	0	3.7170	0	34.4060	8	27.348	0	791.720	0	12.2	4	3.8	4	-1E+10	1	-1E+10	1	-1E+10	1	-1E+10	1	-1E+10	1	-1E+10	1
4901784	107	C	06/09/2018	10:45	-132.196	43.121	0	804.80	0	3.7050	0	34.4100	8	27.353	0	796.859	0	12.1	4	3.8	4	-1E+10	1	-1E+10	1	-1E+10	1	-1E+10	1	-1E+10	1	-1E+10	1
4901784	107	C	06/09/2018	10:45	-132.196	43.121	0	810.00	0	3.6960	0	34.4130	8	27.356	0	801.998	0	11.9	4	3.7	4	-1E+10	1	-1E+10	1	-1E+10	1	-1E+10	1	-1E+10	1	-1E+10	1
4901784	107	C	06/09/2018	10:45	-132.196	43.121	0	815.10	0	3.6830	0	34.4180	8	27.361	0	807.037	0	11.8	4	3.7	4	-1E+10	1	-1E+10	1	-1E+10	1	-1E+10	1	-1E+10	1	-1E+10	1
4901784	107	C	06/09/2018	10:45	-132.196	43.121	0	820.20	0	3.6760	0	34.4210	8	27.364	0	812.077	0	11.7	4	3.7	4	-1E+10	1	-1E+10	1	-1E+10	1	-1E+10	1	-1E+10	1	-1E+10	1
4901784	107	C	06/09/2018	10:45	-132.196	43.121	0	825.40	0	3.6720	0	34.4220	8	27.366	0	817.215	0	11.6	4	3.6	4	-1E+10	1	-1E+10	1	-1E+10	1	-1E+10	1	-1E+10	1	-1E+10	1
4901784	107	C	06/09/2018	10:45	-132.196	43.121	0	830.60	0	3.6620	0	34.4260	8	27.370	0	822.354	0	11.5	4	3.6	4	-1E+10	1	-1E+10	1	-1E+10	1	-1E+10	1	-1E+10	1	-1E+10	1
4901784	107	C	06/09/2018	10:45	-132.196	43.121	0	835.00	0	3.6600	0	34.4280	8	27.372	0	826.701	0	11.4	4	3.6	4	-1E+10	1	-1E+10	1	-1E+10	1	-1E+10	1	-1E+10	1	-1E+10	1
4901784	107	C	06/09/2018	10:45	-132.196	43.121	0	839.30	0	3.6540	0	34.4300	8	27.374	0	830.950	0	11.4	4	3.6	4	-1E+10	1	-1E+10	1	-1E+10	1	-1E+10	1	-1E+10	1	-1E+10	1
4901784	107	C	06/09/2018	10:45	-132.196	43.121	0	844.60	0	3.6500	0	34.4320	8	27.376	0	836.187	0	11.3	4	3.5	4	-1E+10	1	-1E+10	1	-1E+10	1	-1E+10	1	-1E+10	1	-1E+10	1
4901784	107	C	06/09/2018	10:45	-132.196	43.121	0	849.70	0	3.6480	0	34.4350	8	27.378	0	841.226	0	11.2	4	3.5	4	-1E+10	1	-1E+10	1	-1E+10	1	-1E+10	1	-1E+10	1	-1E+10	1
4901784	107	C	06/09/2018	10:45	-132.196	43.121	0	854.90	0	3.6320	0	34.4380	8	27.382	0	846.363	0	11.1	4	3.5	4	-1E+10	1	-1E+10	1	-1E+10	1	-1E+10	1	-1E+10	1	-1E+10	1
4901784	107	C	06/09/2018	10:45	-132.196	43.121	0	860.10	0	3.6180	0	34.4430	8	27.388	0	851.501	0	11.0	4	3.4	4	-1E+10	1	-1E+10	1	-1E+10	1	-1E+10	1	-1E+10	1	-1E+10	1
4901784	107	C	06/09/2018	10:45	-132.196	43.121	0	865.30	0	3.6080	0	34.4470	8	27.392	0	856.638	0	10.9	4	3.4	4	-1E+10	1	-1E+10	1	-1E+10	1	-1E+10	1	-1E+10	1	-1E+10	1
4901784	107	C	06/09/2018	10:45	-132.196	43.121	0	870.60	0	3.6000	0	34.4490	8	27.394	0	861.874	0	10.8	4	3.4	4	-1E+10	1	-1E+10	1	-1E+10	1	-1E+10	1	-1E+10	1	-1E+10	1
4901784	107	C	06/09/2018	10:45	-132.196	43.121	0	875.00	0	3.5950	0	34.4530	8	27.398	0	866.221	0	10.7	4	3.4	4	-1E+10	1	-1E+10	1	-1E+10	1	-1E+10	1	-1E+10	1	-1E+10	1
4901784	107	C	06/09/2018	10:45	-132.196	43.121	0	879.40	0	3.6260	0	34.4620	8	27.402	0	870.568	0	10.5	4	3.3	4	-1E+10	1	-1E+10	1	-1E+10	1	-1E+10	1	-1E+10	1	-1E+10	1
4901784	107	C	06/09/2018	10:45	-132.196	43.121	0	884.60	0	3.6700	0	34.4740	8	27.408	0	875.704	0	10.5	4	3.3	4	-1E+10	1	-1E+10	1	-1E+10	1	-1E+10	1	-1E+10	1	-1E+10	1
4901784	107	C	06/09/2018	10:45	-132.196	43.121	0	889.90	0	3.6860	0	34.4820	8	27.413	0	880.940	0	10.5	4	3.3	4	-1E+10	1	-1E+10	1	-1E+10	1	-1E+10	1	-1E+10	1	-1E+10	1
4901784	107	C	06/09/2018	10:45	-132.196	43.121	0	895.20	0	3.6810	0	34.4860	8	27.416	0	886.175	0	10.5	4	3.3	4	-1E+10	1	-1E+10	1	-1E+10	1	-1E+10	1	-1E+10	1	-1E+10	1
4901784	107	C	06/09/2018	10:45	-132.196	43.121	0	900.50	0	3.6700	0	34.4920	8	27.422	0	891.411	0	10.6	4	3.3	4	-1E+10	1	-1E+10	1	-1E+10	1	-1E+10	1	-1E+10	1	-1E+10	1
4901784	107	C	06/09/2018	10:45	-132.196	43.121	0	905.00	0	3.6670	0	34.4930	8	27.423	0	895.856	0	10.6	4	3.3	4	-1E+10	1	-1E+10	1	-1E+10	1	-1E+10	1	-1E+10	1	-1E+10	1
4901784	107	C	06/09/2018	10:45	-132.196	43.121	0	909.40	0	3.6420	0	34.4920	8	27.425	0	900.202	0	10.6	4	3.3	4	-1E+10	1	-1E+10	1	-1E+10	1	-1E+10	1	-1E+10	1	-1E+10	1
4901784	107	C	06/09/2018	10:45	-132.196	43.121	0	914.70	0	3.6080	0	34.4920	8	27.428	0	905.437	0	10.7	4	3.3	4	-1E+10	1	-1E+10	1	-1E+10	1	-1E+10	1	-1E+10	1	-1E+10	1
4901784	107	C	06/09/2018	10:45	-132.196	43.121	0	920.10	0	3.5820	0	34.4940	8	27.432	0	910.770	0	10.8	4	3.4	4	-1E+10	1	-1E+10	1	-1E+10	1	-1E+10	1	-1E+10	1	-1E+10	1
4901784	107	C	06/09/2018	10:45	-132.196	43.121	0	925.50	0	3.5640	0	34.4950	8	27.435	0	916.104	0	10.9	4	3.4	4	-1E+10	1	-1E+10	1	-1E+10	1	-1E+10	1	-1E+10	1	-1E+10	1
4901784	107	C	06/09/2018	10:45	-132.196	43.121	0	930.00	0	3.5450	0	34.4970	8	27.439	0	920.548	0	11.1	4	3.5	4	-1E+10	1	-1E+10	1	-1E+10	1	-1E+10	1	-1E+10	1	-1E+10	1
4901784	107	C	06/09/2018	10:45	-132.196	43.121	0	934.40	0	3.5310	0	34.4990	8	27.441	0	924.894	0	11.2	4	3.5	4	-1E+10	1	-1E+10	1	-1E+10	1	-1E+10	1	-1E+10	1	-1E+10	1
4901784	107	C	06/09/2018	10:45	-132.196	43.121	0	939.60	0	3.5230	0	34.5000	8	27.443	0	930.029	0	11.3	4	3.5	4	-1E+10	1	-1E+10	1	-1E+10	1	-1E+10	1	-1E+10	1	-1E+10	1
4901784	107	C	06/09/2018	10:45	-132.196	43.121	0	944.40	0	3.5120	0	34.5020	8	27.446	0	934.770	0	11.4	4	3.6	4	-1E+10	1	-1E+10	1	-1E+10	1	-1E+10	1	-1E+10	1	-1E+10	1
4901784	107	C	06/09/2018	10:45	-132.196	43.121	0	950.00	0	3.5090	0	34.5020	8	27.446	0	940.300	0	11.4	4	3.6	4	-1E+10	1	-1E+10	1	-1E+10	1	-1E+10	1	-1E+10	1	-1E+10	1
4901784	107	C	06/09/2018	10:45	-132.196	43.121	0	955.50	0	3.4940	0	34.5040	8	27.449	0	945.731	0	11.5	4	3.6	4	-1E+10	1	-1E+10	1	-1E+10	1	-1E+10	1	-1E+10	1	-1E+10	1
4901784	107	C	06/09/2018	10:45	-132.196	43.121	0	960.50	0	3.4720	0	34.5080	8	27.455	0	950.669	0	11.6	4	3.6	4	-1E+10	1	-1E+10	1	-1E+10	1	-1E+10	1	-1E+10	1	-1E+10	1
4901784	107	C	06/09/2018	10:45	-132.196	43.121	0	965.40	0	3.4620	0	34.5100	8	27.457	0	955.508	0	11.6	4	3.6	4	-1E+10	1	-1E+10	1	-1E+10	1	-1E+10	1	-1E+10	1	-1E+10	1
4901784	107	C	06/09/2018	10:45	-132.196	43.121	0	970.40	0	3.4490	0	34.5120	8	27.460	0	960.445	0	11.7	4	3.6	4	-1E+10	1	-1E+10	1	-1E+10	1	-1E+10	1	-1E+10	1	-1E+10	1
4901784	107	C	06/09/2018	10:45	-132.196	43.121	0	975.40	0	3.4370	0	34.5140	8	27.463	0	965.382	0	11.8	4	3.7	4	-1E+10	1	-1E+10	1	-1E+10	1	-1E+10	1	-1E+10	1	-1E+10	1
4901784	107	C	06/09/2018	10:45	-132.196	43.121	0	980.40	0	3.4230	0	34.5170	8	27.467	0	970.319	0	11.9	4	3.7	4	-1E+10	1	-1E+10	1	-1E+10	1	-1E+10	1	-1E+10	1	-1E+10	1
4901784	107	C	06/09/2018	10:45	-132.196	43.121	0	985.50	0	3.4070	0	34.5210	8	27.471	0	975.355	0	12.0	4	3.7	4	-1E+10	1	-1E+10	1	-1E+10	1	-1E+10	1	-1E+10	1	-1E+10	1
4901784	107	C	06/09/2018	10:45	-132.196	43.121	0	990.70	0	3.4040	0	34.5220	8	27.472	0	980.489	0	12.1	4	3.8	4	-1E+10	1	-1E+10	1	-1E+10	1	-1E+10	1	-1E+10	1	-1E+10	1
4901784	107	C	06/09/2018	10:45	-132.196	43.121	0	995.00	0	3.3890	0	34.5250	8	27.476	0	984.735	0	12.3	4	3.8	4	-1E+10	1	-1E+10	1	-1E+10	1	-1E+10	1	-1E+10	1	-1E+10	1
4901784	107	C	06/09/2018	10:45	-132.196	43.121	0	999.40	0	3.3770	0	34.5280	8	27.480	0	989.079	0	12.4	4	3.9	4	-1E+10	1	-1E+10	1	-1E+10	1	-1E+10	1	-1E+10	1	-1E+10	1
4901784	107	C	06/09/2018	10:45	-132.196	43.121	0	1004.80	0	3.3660	0	34.5310	8	27.483	0	994.410	0	12.4	4	3.9	4	-1E+10	1	-1E+10	1	-1E+10	1	-1E+10	1	-1E+10	1	-1E+10	1
4901784	107	C	06/09/2018	10:45	-132.196	43.121	0	1010.10	0	3.3590	0	34.5330	8	27.486	0	999.643	0	12.4	4	3.9	4	-1E+10	1	-1E+10	1	-1E+10	1	-1E+10	1	-1E+10	1	-1E+10	1
4901784	107	C	06/09/2018	10:45	-132.196	43.121	0	1015.50	0	3.3520	0	34.5350	8	27.488	0	1004.974	0	12.5	4	3.9	4	-1E+10	1	-1E+10	1	-1E+10	1	-1E+10	1	-1E+10	1	-1E+10	1
4901784	107	C	06/09/2018	10:45	-132.196	43.121	0	1020.00	0	3.3450	0	34.5360	8	27.489	0	1009.417	0	12.5	4	3.9	4	-1E+10	1	-1E+10	1	-1E+10	1	-1E+10	1	-1E+10	1	-1E+10	1
4901784	107	C	06/09/2018	10:45	-132.196	43.121	0	1024.60	0	3.3310	0	34.5390	8	27.493	0	1013.958	0	12.8	4	4.0	4	-1E+10	1	-1E+10	1	-1E+10	1	-1E+10	1	-1E+10	1	-1E+10	1
4901784	107	C	06/09/2018	10:45	-132.196	43.121	0	1030.10	0	3.3140	0	34.5430	8	27.498	0	1019.387	0	13.0	4	4.0	4	-1E+10	1	-1E+10	1	-1E+10	1	-1E+10	1	-1E+10	1	-1E+10	1
4901784	107	C	06/09/2018	10:45	-132.196	43.121	0	1034.80	0	3.3090	0	34.5440	8	27.499	0	1024.027	0	13.2	4	4.1	4	-1E+10	1	-1E+10	1	-1E+10	1	-1E+10	1	-1E+10	1	-1E+10	1
4901784	107	C	06/09/2018	10:45	-132.196	43.121	0	1039.40	0	3.2990	0	34.5460	8	27.502	0	1028.568	0	13.4	4	4.2	4	-1E+10	1	-1E+10	1	-1E+10	1	-1E+10	1	-1E+10	1	-1E+10	1
4901784	107	C	06/09/2018	10:45	-132.196	43.121	0	1045.60	0	3.2820	0	34.5500	8	27.507	0	1034.688	0	13.7	4	4.2	4	-1E+10	1	-1E+10	1	-1E+10	1	-1E+10	1	-1E+10	1	-1E+10	1
4901784	107	C	06/09/2018	10:45	-132.196	43.121	0	1050.50	0	3.2780	0	34.5520	8	27.509	0	1039.525	0	14.0	4	4.4	4	-1E+10	1	-1E+10	1	-1E+10	1	-1E+10	1	-1E+10	1	-1E+10	1
4901784	107	C	06/09/2018	10:45	-132.196	43.121	0	1055.30	0	3.2770	0	34.5550	8	27.511	0	1044.263	0	14.3	4	4.5	4	-1E+10	1	-1E+10	1	-1E+10	1	-1E+10	1	-1E+10	1	-1E+10	1
4901784	107	C	06/09/2018	10:45	-132.196	43.121	0	1060.20	0	3.2760	0	34.5560	8	27.512	0	1049.099	0	14.5	4	4.5	4	-1E+10	1	-1E+10	1	-1E+10	1	-1E+10	1	-1E+10	1	-1E+10	1
4901784	107	C	06/09/2018	10:45	-132.196	43.121	0	1065.00	0	3.2690	0	34.5590	8	27.515	0	1053.837	0	14.8	4	4.6	4	-1E+10	1	-1E+10	1	-1E+10	1	-1E+10	1	-1E+10	1	-1E+10	1
4901784	107	C	06/09/2018	10:45	-132.196	43.121	0	1069.90	0	3.2720	0	34.5600	8	27.516	0	1058.673	0	15.0	4	4.7	4	-1E+10	1	-1E+10	1	-1E+10	1	-1E+10	1	-1E+10	1	-1E+10	1
4901784	107	C	06/09/2018	10:45	-132.196	43.121	0	1074.80	0	3.2740	0	34.5610	8	27.516	0	1063.509	0	15.1	4	4.7	4	-1E+10	1	-1E+10	1	-1E+10	1	-1E+10	1	-1E+10	1	-1E+10	1
4901784	107	C	06/09/2018	10:45	-132.196	43.121	0	1079.70	0	3.2660	0	34.5620	8	27.518	0	1068.345	0	15.1	4	4.7	4	-1E+10	1	-1E+10	1	-1E+10	1	-1E+10	1	-1E+10	1	-1E+10	1
4901784	107	C	06/09/2018	10:45	-132.196	43.121	0	1084.70	0	3.2570	0	34.5640	8	27.520	0	1073.280	0	15.2	4	4.7	4	-1E+10	1	-1E+10	1	-1E+10	1	-1E+10	1	-1E+10	1	-1E+10	1
4901784	107	C	06/09/2018	10:45	-132.196	43.121	0	1089.70	0	3.2500	0	34.5650	8	27.522	0	1078.214	0	15.3	4	4.8	4	-1E+10	1	-1E+10	1	-1E+10	1	-1E+10	1	-1E+10	1	-1E+10	1
4901784	107	C	06/09/2018	10:45	-132.196	43.121	0	1094.90	0	3.2490	0	34.5660	8	27.523	0	1083.346	0	15.4	4	4.8	4	-1E+10	1	-1E+10	1	-1E+10	1	-1E+10	1	-1E+10	1	-1E+10	1
4901784	107	C	06/09/2018	10:45	-132.196	43.121	0	1100.50	0	3.2410	0	34.5670	8	27.524	0	1088.873	0	15.5	4	4.8	4	-1E+10	1	-1E+10	1	-1E+10	1	-1E+10	1	-1E+10	1	-1E+10	1
4901784	107	C	06/09/2018	10:45	-132.196	43.121	0	1105.20	0	3.2360	0	34.5680	8	27.526	0	1093.511	0	15.6	4	4.8	4	-1E+10	1	-1E+10	1	-1E+10	1	-1E+10	1	-1E+10	1	-1E+10	1
4901784	107	C	06/09/2018	10:45	-132.196	43.121	0	1109.90	0	3.2290	0	34.5690	8	27.527	0	1098.149	0	15.6	4	4.9	4	-1E+10	1	-1E+10	1	-1E+10	1	-1E+10	1	-1E+10	1	-1E+10	1
4901784	107	C	06/09/2018	10:45	-132.196	43.121	0	1115.60	0	3.2220	0	34.5700	8	27.529	0	1103.773	0	15.8	4	4.9	4	-1E+10	1	-1E+10	1	-1E+10	1	-1E+10	1	-1E+10	1	-1E+10	1
4901784	107	C	06/09/2018	10:45	-132.196	43.121	0	1120.30	0	3.2160	0	34.5720	8	27.531	0	1108.411	0	16.1	4	5.0	4	-1E+10	1	-1E+10	1	-1E+10	1	-1E+10	1	-1E+10	1	-1E+10	1
4901784	107	C	06/09/2018	10:45	-132.196	43.121	0	1125.00	0	3.2130	0	34.5740	8	27.533	0	1113.049	0	16.3	4	5.1	4	-1E+10	1	-1E+10	1	-1E+10	1	-1E+10	1	-1E+10	1	-1E+10	1
4901784	107	C	06/09/2018	10:45	-132.196	43.121	0	1129.80	0	3.2140	0	34.5750	8	27.533	0	1117.785	0	16.4	4	5.1	4	-1E+10	1	-1E+10	1	-1E+10	1	-1E+10	1	-1E+10	1	-1E+10	1
4901784	107	C	06/09/2018	10:45	-132.196	43.121	0	1134.60	0	3.2070	0	34.5760	8	27.535	0	1122.521	0	16.5	4	5.1	4	-1E+10	1	-1E+10	1	-1E+10	1	-1E+10	1	-1E+10	1	-1E+10	1
4901784	107	C	06/09/2018	10:45	-132.196	43.121	0	1140.30	0	3.1810	0	34.5790	8	27.540	0	1128.145	0	16.6	4	5.2	4	-1E+10	1	-1E+10	1	-1E+10	1	-1E+10	1	-1E+10	1	-1E+10	1
4901784	107	C	06/09/2018	10:45	-132.196	43.121	0	1145.10	0	3.1740	0	34.5800	8	27.541	0	1132.881	0	16.6	4	5.2	4	-1E+10	1	-1E+10	1	-1E+10	1	-1E+10	1	-1E+10	1	-1E+10	1
4901784	107	C	06/09/2018	10:45	-132.196	43.121	0	1149.90	0	3.1660	0	34.5800	8	27.542	0	1137.617	0	16.7	4	5.2	4	-1E+10	1	-1E+10	1	-1E+10	1	-1E+10	1	-1E+10	1	-1E+10	1
4901784	107	C	06/09/2018	10:45	-132.196	43.121	0	1154.80	0	3.1570	0	34.5810	8	27.544	0	1142.451	0	16.7	4	5.2	4	-1E+10	1	-1E+10	1	-1E+10	1	-1E+10	1	-1E+10	1	-1E+10	1
4901784	107	C	06/09/2018	10:45	-132.196	43.121	0	1159.60	0	3.1490	0	34.5820	8	27.545	0	1147.187	0	16.8	4	5.2	4	-1E+10	1	-1E+10	1	-1E+10	1	-1E+10	1	-1E+10	1	-1E+10	1
4901784	107	C	06/09/2018	10:45	-132.196	43.121	0	1165.40	0	3.1380	0	34.5830	8	27.547	0	1152.909	0	17.0	4	5.3	4	-1E+10	1	-1E+10	1	-1E+10	1	-1E+10	1	-1E+10	1	-1E+10	1
4901784	107	C	06/09/2018	10:45	-132.196	43.121	0	1170.20	0	3.1270	0	34.5850	8	27.550	0	1157.644	0	17.1	4	5.3	4	-1E+10	1	-1E+10	1	-1E+10	1	-1E+10	1	-1E+10	1	-1E+10	1
4901784	107	C	06/09/2018	10:45	-132.196	43.121	0	1175.10	0	3.1170	0	34.5870	8	27.552	0	1162.478	0	17.2	4	5.3	4	-1E+10	1	-1E+10	1	-1E+10	1	-1E+10	1	-1E+10	1	-1E+10	1
4901784	107	C	06/09/2018	10:45	-132.196	43.121	0	1180.00	0	3.1120	0	34.5880	8	27.554	0	1167.312	0	17.3	4	5.4	4	-1E+10	1	-1E+10	1	-1E+10	1	-1E+10	1	-1E+10	1	-1E+10	1
4901784	107	C	06/09/2018	10:45	-132.196	43.121	0	1184.80	0	3.1090	0	34.5880	8	27.554	0	1172.047	0	17.3	4	5.4	4	-1E+10	1	-1E+10	1	-1E+10	1	-1E+10	1	-1E+10	1	-1E+10	1
4901784	107	C	06/09/2018	10:45	-132.196	43.121	0	1189.80	0	3.1040	0	34.5890	8	27.555	0	1176.979	0	17.4	4	5.4	4	-1E+10	1	-1E+10	1	-1E+10	1	-1E+10	1	-1E+10	1	-1E+10	1
4901784	107	C	06/09/2018	10:45	-132.196	43.121	0	1194.70	0	3.0970	0	34.5890	8	27.556	0	1181.812	0	17.5	4	5.4	4	-1E+10	1	-1E+10	1	-1E+10	1	-1E+10	1	-1E+10	1	-1E+10	1
4901784	107	C	06/09/2018	10:45	-132.196	43.121	0	1199.60	0	3.0900	0	34.5910	8	27.558	0	1186.646	0	17.6	4	5.5	4	-1E+10	1	-1E+10	1	-1E+10	1	-1E+10	1	-1E+10	1	-1E+10	1
4901784	107	C	06/09/2018	10:45	-132.196	43.121	0	1204.50	0	3.0860	0	34.5910	8	27.559	0	1191.479	0	17.7	4	5.5	4	-1E+10	1	-1E+10	1	-1E+10	1	-1E+10	1	-1E+10	1	-1E+10	1
4901784	107	C	06/09/2018	10:45	-132.196	43.121	0	1210.50	0	3.0730	0	34.5920	8	27.561	0	1197.397	0	17.8	4	5.5	4	-1E+10	1	-1E+10	1	-1E+10	1	-1E+10	1	-1E+10	1	-1E+10	1
4901784	107	C	06/09/2018	10:45	-132.196	43.121	0	1215.50	0	3.0610	0	34.5940	8	27.563	0	1202.329	0	17.9	4	5.5	4	-1E+10	1	-1E+10	1	-1E+10	1	-1E+10	1	-1E+10	1	-1E+10	1
4901784	107	C	06/09/2018	10:45	-132.196	43.121	0	1219.50	0	3.0580	0	34.5940	8	27.564	0	1206.274	0	18.0	4	5.6	4	-1E+10	1	-1E+10	1	-1E+10	1	-1E+10	1	-1E+10	1	-1E+10	1
4901784	107	C	06/09/2018	10:45	-132.196	43.121	0	1224.50	0	3.0460	0	34.5960	8	27.566	0	1211.205	0	18.1	4	5.6	4	-1E+10	1	-1E+10	1	-1E+10	1	-1E+10	1	-1E+10	1	-1E+10	1
4901784	107	C	06/09/2018	10:45	-132.196	43.121	0	1229.60	0	3.0350	0	34.5960	8	27.567	0	1216.235	0	18.2	4	5.6	4	-1E+10	1	-1E+10	1	-1E+10	1	-1E+10	1	-1E+10	1	-1E+10	1
4901784	107	C	06/09/2018	10:45	-132.196	43.121	0	1234.50	0	3.0180	0	34.5980	8	27.570	0	1221.068	0	18.4	4	5.7	4	-1E+10	1	-1E+10	1	-1E+10	1	-1E+10	1	-1E+10	1	-1E+10	1
4901784	107	C	06/09/2018	10:45	-132.196	43.121	0	1240.00	0	3.0040	0	34.5990	8	27.573	0	1226.492	0	18.6	4	5.8	4	-1E+10	1	-1E+10	1	-1E+10	1	-1E+10	1	-1E+10	1	-1E+10	1
4901784	107	C	06/09/2018	10:45	-132.196	43.121	0	1245.50	0	2.9900	0	34.6020	8	27.576	0	1231.916	0	18.9	4	5.9	4	-1E+10	1	-1E+10	1	-1E+10	1	-1E+10	1	-1E+10	1	-1E+10	1
4901784	107	C	06/09/2018	10:45	-132.196	43.121	0	1250.10	0	2.9870	0	34.6040	8	27.578	0	1236.452	0	19.2	4	5.9	4	-1E+10	1	-1E+10	1	-1E+10	1	-1E+10	1	-1E+10	1	-1E+10	1
4901784	107	C	06/09/2018	10:45	-132.196	43.121	0	1254.80	0	2.9810	0	34.6040	8	27.579	0	1241.087	0	19.3	4	6.0	4	-1E+10	1	-1E+10	1	-1E+10	1	-1E+10	1	-1E+10	1	-1E+10	1
4901784	107	C	06/09/2018	10:45	-132.196	43.121	0	1260.30	0	2.9720	0	34.6060	8	27.581	0	1246.511	0	19.4	4	6.0	4	-1E+10	1	-1E+10	1	-1E+10	1	-1E+10	1	-1E+10	1	-1E+10	1
4901784	107	C	06/09/2018	10:45	-132.196	43.121	0	1265.60	0	2.9570	0	34.6070	8	27.583	0	1251.737	0	19.6	4	6.0	4	-1E+10	1	-1E+10	1	-1E+10	1	-1E+10	1	-1E+10	1	-1E+10	1
4901784	107	C	06/09/2018	10:45	-132.196	43.121	0	1270.50	0	2.9480	0	34.6090	8	27.586	0	1256.569	0	19.8	4	6.1	4	-1E+10	1	-1E+10	1	-1E+10	1	-1E+10	1	-1E+10	1	-1E+10	1
4901784	107	C	06/09/2018	10:45	-132.196	43.121	0	1275.40	0	2.9460	0	34.6100	8	27.587	0	1261.400	0	20.0	4	6.2	4	-1E+10	1	-1E+10	1	-1E+10	1	-1E+10	1	-1E+10	1	-1E+10	1
4901784	107	C	06/09/2018	10:45	-132.196	43.121	0	1280.40	0	2.9400	0	34.6110	8	27.588	0	1266.330	0	20.1	4	6.2	4	-1E+10	1	-1E+10	1	-1E+10	1	-1E+10	1	-1E+10	1	-1E+10	1
4901784	107	C	06/09/2018	10:45	-132.196	43.121	0	1285.30	0	2.9360	0	34.6120	8	27.589	0	1271.162	0	20.3	4	6.3	4	-1E+10	1	-1E+10	1	-1E+10	1	-1E+10	1	-1E+10	1	-1E+10	1
4901784	107	C	06/09/2018	10:45	-132.196	43.121	0	1290.30	0	2.9240	0	34.6130	8	27.591	0	1276.091	0	20.3	4	6.3	4	-1E+10	1	-1E+10	1	-1E+10	1	-1E+10	1	-1E+10	1	-1E+10	1
4901784	107	C	06/09/2018	10:45	-132.196	43.121	0	1295.20	0	2.9210	0	34.6130	8	27.592	0	1280.923	0	20.4	4	6.3	4	-1E+10	1	-1E+10	1	-1E+10	1	-1E+10	1	-1E+10	1	-1E+10	1
4901784	107	C	06/09/2018	10:45	-132.196	43.121	0	1300.10	0	2.9160	0	34.6130	8	27.592	0	1285.754	0	20.7	4	6.4	4	-1E+10	1	-1E+10	1	-1E+10	1	-1E+10	1	-1E+10	1	-1E+10	1
4901784	107	C	06/09/2018	10:45	-132.196	43.121	0	1305.20	0	2.9030	0	34.6150	8	27.595	0	1290.782	0	21.0	4	6.5	4	-1E+10	1	-1E+10	1	-1E+10	1	-1E+10	1	-1E+10	1	-1E+10	1
4901784	107	C	06/09/2018	10:45	-132.196	43.121	0	1310.20	0	2.8920	0	34.6170	8	27.597	0	1295.711	0	21.2	4	6.5	4	-1E+10	1	-1E+10	1	-1E+10	1	-1E+10	1	-1E+10	1	-1E+10	1
4901784	107	C	06/09/2018	10:45	-132.196	43.121	0	1315.20	0	2.8840	0	34.6180	8	27.599	0	1300.640	0	21.5	4	6.6	4	-1E+10	1	-1E+10	1	-1E+10	1	-1E+10	1	-1E+10	1	-1E+10	1
4901784	107	C	06/09/2018	10:45	-132.196	43.121	0	1320.20	0	2.8720	0	34.6200	8	27.602	0	1305.570	0	21.8	4	6.7	4	-1E+10	1	-1E+10	1	-1E+10	1	-1E+10	1	-1E+10	1	-1E+10	1
4901784	107	C	06/09/2018	10:45	-132.196	43.121	0	1325.30	0	2.8670	0	34.6220	8	27.604	0	1310.597	0	22.3	4	6.9	4	-1E+10	1	-1E+10	1	-1E+10	1	-1E+10	1	-1E+10	1	-1E+10	1
4901784	107	C	06/09/2018	10:45	-132.196	43.121	0	1330.50	0	2.8640	0	34.6250	8	27.606	0	1315.723	0	22.6	4	7.0	4	-1E+10	1	-1E+10	1	-1E+10	1	-1E+10	1	-1E+10	1	-1E+10	1
4901784	107	C	06/09/2018	10:45	-132.196	43.121	0	1335.70	0	2.8640	0	34.6260	8	27.607	0	1320.849	0	22.7	4	7.0	4	-1E+10	1	-1E+10	1	-1E+10	1	-1E+10	1	-1E+10	1	-1E+10	1
4901784	107	C	06/09/2018	10:45	-132.196	43.121	0	1340.00	0	2.8520	0	34.6250	8	27.608	0	1325.088	0	22.6	4	7.0	4	-1E+10	1	-1E+10	1	-1E+10	1	-1E+10	1	-1E+10	1	-1E+10	1
4901784	107	C	06/09/2018	10:45	-132.196	43.121	0	1344.40	0	2.8480	0	34.6250	8	27.608	0	1329.425	0	22.6	4	7.0	4	-1E+10	1	-1E+10	1	-1E+10	1	-1E+10	1	-1E+10	1	-1E+10	1
4901784	107	C	06/09/2018	10:45	-132.196	43.121	0	1349.70	0	2.8300	0	34.6260	8	27.610	0	1334.649	0	22.5	4	6.9	4	-1E+10	1	-1E+10	1	-1E+10	1	-1E+10	1	-1E+10	1	-1E+10	1
4901784	107	C	06/09/2018	10:45	-132.196	43.121	0	1354.90	0	2.8190	0	34.6260	8	27.611	0	1339.775	0	22.6	4	7.0	4	-1E+10	1	-1E+10	1	-1E+10	1	-1E+10	1	-1E+10	1	-1E+10	1
4901784	107	C	06/09/2018	10:45	-132.196	43.121	0	1360.10	0	2.8090	0	34.6260	8	27.612	0	1344.900	0	22.8	4	7.0	4	-1E+10	1	-1E+10	1	-1E+10	1	-1E+10	1	-1E+10	1	-1E+10	1
4901784	107	C	06/09/2018	10:45	-132.196	43.121	0	1365.40	0	2.7970	0	34.6280	8	27.615	0	1350.124	0	23.0	4	7.1	4	-1E+10	1	-1E+10	1	-1E+10	1	-1E+10	1	-1E+10	1	-1E+10	1
4901784	107	C	06/09/2018	10:45	-132.196	43.121	0	1370.70	0	2.7910	0	34.6280	8	27.616	0	1355.348	0	23.1	4	7.1	4	-1E+10	1	-1E+10	1	-1E+10	1	-1E+10	1	-1E+10	1	-1E+10	1
4901784	107	C	06/09/2018	10:45	-132.196	43.121	0	1375.10	0	2.7850	0	34.6290	8	27.617	0	1359.684	0	23.3	4	7.2	4	-1E+10	1	-1E+10	1	-1E+10	1	-1E+10	1	-1E+10	1	-1E+10	1
4901784	107	C	06/09/2018	10:45	-132.196	43.121	0	1379.50	0	2.7790	0	34.6310	8	27.619	0	1364.021	0	23.5	4	7.2	4	-1E+10	1	-1E+10	1	-1E+10	1	-1E+10	1	-1E+10	1	-1E+10	1
4901784	107	C	06/09/2018	10:45	-132.196	43.121	0	1384.80	0	2.7720	0	34.6310	8	27.620	0	1369.244	0	23.6	4	7.2	4	-1E+10	1	-1E+10	1	-1E+10	1	-1E+10	1	-1E+10	1	-1E+10	1
4901784	107	C	06/09/2018	10:45	-132.196	43.121	0	1390.10	0	2.7590	0	34.6310	8	27.621	0	1374.467	0	23.7	4	7.3	4	-1E+10	1	-1E+10	1	-1E+10	1	-1E+10	1	-1E+10	1	-1E+10	1
4901784	107	C	06/09/2018	10:45	-132.196	43.121	0	1395.40	0	2.7500	0	34.6320	8	27.622	0	1379.690	0	23.7	4	7.3	4	-1E+10	1	-1E+10	1	-1E+10	1	-1E+10	1	-1E+10	1	-1E+10	1
4901784	107	C	06/09/2018	10:45	-132.196	43.121	0	1400.70	0	2.7410	0	34.6320	8	27.623	0	1384.913	0	23.8	4	7.3	4	-1E+10	1	-1E+10	1	-1E+10	1	-1E+10	1	-1E+10	1	-1E+10	1
4901784	107	C	06/09/2018	10:45	-132.196	43.121	0	1405.10	0	2.7370	0	34.6320	8	27.624	0	1389.249	0	24.0	4	7.4	4	-1E+10	1	-1E+10	1	-1E+10	1	-1E+10	1	-1E+10	1	-1E+10	1
4901784	107	C	06/09/2018	10:45	-132.196	43.121	0	1409.50	0	2.7200	0	34.6340	8	27.627	0	1393.585	0	24.2	4	7.4	4	-1E+10	1	-1E+10	1	-1E+10	1	-1E+10	1	-1E+10	1	-1E+10	1
4901784	107	C	06/09/2018	10:45	-132.196	43.121	0	1414.80	0	2.7050	0	34.6340	8	27.628	0	1398.808	0	24.3	4	7.4	4	-1E+10	1	-1E+10	1	-1E+10	1	-1E+10	1	-1E+10	1	-1E+10	1
4901784	107	C	06/09/2018	10:45	-132.196	43.121	0	1420.00	0	2.6850	0	34.6350	8	27.631	0	1403.932	0	24.5	4	7.5	4	-1E+10	1	-1E+10	1	-1E+10	1	-1E+10	1	-1E+10	1	-1E+10	1
4901784	107	C	06/09/2018	10:45	-132.196	43.121	0	1425.30	0	2.6750	0	34.6360	8	27.632	0	1409.154	0	24.8	4	7.6	4	-1E+10	1	-1E+10	1	-1E+10	1	-1E+10	1	-1E+10	1	-1E+10	1
4901784	107	C	06/09/2018	10:45	-132.196	43.121	0	1430.70	0	2.6550	0	34.6380	8	27.636	0	1414.475	0	25.0	4	7.7	4	-1E+10	1	-1E+10	1	-1E+10	1	-1E+10	1	-1E+10	1	-1E+10	1
4901784	107	C	06/09/2018	10:45	-132.196	43.121	0	1435.20	0	2.6490	0	34.6380	8	27.636	0	1418.908	0	25.2	4	7.7	4	-1E+10	1	-1E+10	1	-1E+10	1	-1E+10	1	-1E+10	1	-1E+10	1
4901784	107	C	06/09/2018	10:45	-132.196	43.121	0	1439.70	0	2.6450	0	34.6380	8	27.637	0	1423.342	0	25.4	4	7.8	4	-1E+10	1	-1E+10	1	-1E+10	1	-1E+10	1	-1E+10	1	-1E+10	1
4901784	107	C	06/09/2018	10:45	-132.196	43.121	0	1445.10	0	2.6300	0	34.6390	8	27.639	0	1428.663	0	25.7	4	7.9	4	-1E+10	1	-1E+10	1	-1E+10	1	-1E+10	1	-1E+10	1	-1E+10	1
4901784	107	C	06/09/2018	10:45	-132.196	43.121	0	1450.60	0	2.6140	0	34.6410	8	27.642	0	1434.081	0	26.1	4	8.0	4	-1E+10	1	-1E+10	1	-1E+10	1	-1E+10	1	-1E+10	1	-1E+10	1
4901784	107	C	06/09/2018	10:45	-132.196	43.121	0	1455.20	0	2.5960	0	34.6420	8	27.644	0	1438.613	0	26.5	4	8.1	4	-1E+10	1	-1E+10	1	-1E+10	1	-1E+10	1	-1E+10	1	-1E+10	1
4901784	107	C	06/09/2018	10:45	-132.196	43.121	0	1459.90	0	2.5830	0	34.6430	8	27.646	0	1443.244	0	26.8	4	8.2	4	-1E+10	1	-1E+10	1	-1E+10	1	-1E+10	1	-1E+10	1	-1E+10	1
4901784	107	C	06/09/2018	10:45	-132.196	43.121	0	1465.40	0	2.5640	0	34.6450	8	27.649	0	1448.662	0	27.2	4	8.3	4	-1E+10	1	-1E+10	1	-1E+10	1	-1E+10	1	-1E+10	1	-1E+10	1
4901784	107	C	06/09/2018	10:45	-132.196	43.121	0	1470.10	0	2.5500	0	34.6470	8	27.652	0	1453.292	0	27.6	4	8.5	4	-1E+10	1	-1E+10	1	-1E+10	1	-1E+10	1	-1E+10	1	-1E+10	1
4901784	107	C	06/09/2018	10:45	-132.196	43.121	0	1474.70	0	2.5370	0	34.6480	8	27.654	0	1457.824	0	28.1	4	8.6	4	-1E+10	1	-1E+10	1	-1E+10	1	-1E+10	1	-1E+10	1	-1E+10	1
4901784	107	C	06/09/2018	10:45	-132.196	43.121	0	1480.20	0	2.5150	0	34.6500	8	27.657	0	1463.242	0	28.6	4	8.7	4	-1E+10	1	-1E+10	1	-1E+10	1	-1E+10	1	-1E+10	1	-1E+10	1
4901784	107	C	06/09/2018	10:45	-132.196	43.121	0	1484.90	0	2.5040	0	34.6520	8	27.660	0	1467.872	0	28.8	4	8.8	4	-1E+10	1	-1E+10	1	-1E+10	1	-1E+10	1	-1E+10	1	-1E+10	1
4901784	107	C	06/09/2018	10:45	-132.196	43.121	0	1489.60	0	2.5000	0	34.6520	8	27.660	0	1472.501	0	29.0	4	8.9	4	-1E+10	1	-1E+10	1	-1E+10	1	-1E+10	1	-1E+10	1	-1E+10	1
4901784	107	C	06/09/2018	10:45	-132.196	43.121	0	1495.30	0	2.4930	0	34.6530	8	27.662	0	1478.116	0	29.4	4	9.0	4	-1E+10	1	-1E+10	1	-1E+10	1	-1E+10	1	-1E+10	1	-1E+10	1
4901784	107	C	06/09/2018	10:45	-132.196	43.121	0	1500.00	0	2.4800	0	34.6550	8	27.664	0	1482.746	0	29.7	4	9.1	4	-1E+10	1	-1E+10	1	-1E+10	1	-1E+10	1	-1E+10	1	-1E+10	1
4901784	107	C	06/09/2018	10:45	-132.196	43.121	0	1504.70	0	2.4720	0	34.6550	8	27.665	0	1487.375	0	30.0	4	9.2	4	-1E+10	1	-1E+10	1	-1E+10	1	-1E+10	1	-1E+10	1	-1E+10	1
4901784	107	C	06/09/2018	10:45	-132.196	43.121	0	1510.40	0	2.4610	0	34.6560	8	27.667	0	1492.989	0	30.4	4	9.3	4	-1E+10	1	-1E+10	1	-1E+10	1	-1E+10	1	-1E+10	1	-1E+10	1
4901784	107	C	06/09/2018	10:45	-132.196	43.121	0	1514.60	0	2.4520	0	34.6580	8	27.669	0	1497.126	0	30.7	4	9.4	4	-1E+10	1	-1E+10	1	-1E+10	1	-1E+10	1	-1E+10	1	-1E+10	1
4901784	107	C	06/09/2018	10:45	-132.196	43.121	0	1519.50	0	2.4390	0	34.6590	8	27.671	0	1501.952	0	31.0	4	9.5	4	-1E+10	1	-1E+10	1	-1E+10	1	-1E+10	1	-1E+10	1	-1E+10	1
4901784	107	C	06/09/2018	10:45	-132.196	43.121	0	1524.50	0	2.4330	0	34.6600	8	27.673	0	1506.876	0	31.3	4	9.5	4	-1E+10	1	-1E+10	1	-1E+10	1	-1E+10	1	-1E+10	1	-1E+10	1
4901784	107	C	06/09/2018	10:45	-132.196	43.121	0	1529.40	0	2.4260	0	34.6600	8	27.673	0	1511.702	0	31.7	4	9.7	4	-1E+10	1	-1E+10	1	-1E+10	1	-1E+10	1	-1E+10	1	-1E+10	1
4901784	107	C	06/09/2018	10:45	-132.196	43.121	0	1534.30	0	2.4140	0	34.6620	8	27.676	0	1516.528	0	32.2	4	9.8	4	-1E+10	1	-1E+10	1	-1E+10	1	-1E+10	1	-1E+10	1	-1E+10	1
4901784	107	C	06/09/2018	10:45	-132.196	43.121	0	1539.30	0	2.4040	0	34.6640	8	27.678	0	1521.452	0	32.5	4	9.9	4	-1E+10	1	-1E+10	1	-1E+10	1	-1E+10	1	-1E+10	1	-1E+10	1
4901784	107	C	06/09/2018	10:45	-132.196	43.121	0	1544.30	0	2.3980	0	34.6640	8	27.679	0	1526.376	0	32.9	4	10.0	4	-1E+10	1	-1E+10	1	-1E+10	1	-1E+10	1	-1E+10	1	-1E+10	1
4901784	107	C	06/09/2018	10:45	-132.196	43.121	0	1550.00	0	2.3830	0	34.6660	8	27.682	0	1531.989	0	33.7	4	10.2	4	-1E+10	1	-1E+10	1	-1E+10	1	-1E+10	1	-1E+10	1	-1E+10	1
4901784	107	C	06/09/2018	10:45	-132.196	43.121	0	1555.70	0	2.3620	0	34.6690	8	27.686	0	1537.602	0	34.3	4	10.4	4	-1E+10	1	-1E+10	1	-1E+10	1	-1E+10	1	-1E+10	1	-1E+10	1
4901784	107	C	06/09/2018	10:45	-132.196	43.121	0	1560.70	0	2.3530	0	34.6700	8	27.687	0	1542.526	0	34.7	4	10.5	4	-1E+10	1	-1E+10	1	-1E+10	1	-1E+10	1	-1E+10	1	-1E+10	1
4901784	107	C	06/09/2018	10:45	-132.196	43.121	0	1565.70	0	2.3450	0	34.6710	8	27.689	0	1547.449	0	35.0	4	10.7	4	-1E+10	1	-1E+10	1	-1E+10	1	-1E+10	1	-1E+10	1	-1E+10	1
4901784	107	C	06/09/2018	10:45	-132.196	43.121	0	1570.80	0	2.3370	0	34.6720	8	27.690	0	1552.471	0	35.4	4	10.8	4	-1E+10	1	-1E+10	1	-1E+10	1	-1E+10	1	-1E+10	1	-1E+10	1
4901784	107	C	06/09/2018	10:45	-132.196	43.121	0	1575.10	0	2.3320	0	34.6730	8	27.692	0	1556.705	0	35.7	4	10.8	4	-1E+10	1	-1E+10	1	-1E+10	1	-1E+10	1	-1E+10	1	-1E+10	1
4901784	107	C	06/09/2018	10:45	-132.196	43.121	0	1579.30	0	2.3240	0	34.6740	8	27.693	0	1560.841	0	36.0	4	10.9	4	-1E+10	1	-1E+10	1	-1E+10	1	-1E+10	1	-1E+10	1	-1E+10	1
4901784	107	C	06/09/2018	10:45	-132.196	43.121	0	1584.30	0	2.3170	0	34.6740	8	27.694	0	1565.764	0	36.3	4	11.0	4	-1E+10	1	-1E+10	1	-1E+10	1	-1E+10	1	-1E+10	1	-1E+10	1
4901784	107	C	06/09/2018	10:45	-132.196	43.121	0	1589.50	0	2.3060	0	34.6760	8	27.696	0	1570.884	0	36.6	4	11.1	4	-1E+10	1	-1E+10	1	-1E+10	1	-1E+10	1	-1E+10	1	-1E+10	1
4901784	107	C	06/09/2018	10:45	-132.196	43.121	0	1594.60	0	2.3020	0	34.6760	8	27.696	0	1575.905	0	36.9	4	11.2	4	-1E+10	1	-1E+10	1	-1E+10	1	-1E+10	1	-1E+10	1	-1E+10	1
4901784	107	C	06/09/2018	10:45	-132.196	43.121	0	1599.80	0	2.2980	0	34.6760	8	27.697	0	1581.025	0	37.2	4	11.3	4	-1E+10	1	-1E+10	1	-1E+10	1	-1E+10	1	-1E+10	1	-1E+10	1
4901784	107	C	06/09/2018	10:45	-132.196	43.121	0	1605.00	0	2.2870	0	34.6780	8	27.699	0	1586.144	0	37.8	4	11.5	4	-1E+10	1	-1E+10	1	-1E+10	1	-1E+10	1	-1E+10	1	-1E+10	1
4901784	107	C	06/09/2018	10:45	-132.196	43.121	0	1610.30	0	2.2760	0	34.6800	8	27.702	0	1591.362	0	38.1	4	11.6	4	-1E+10	1	-1E+10	1	-1E+10	1	-1E+10	1	-1E+10	1	-1E+10	1
4901784	107	C	06/09/2018	10:45	-132.196	43.121	0	1615.60	0	2.2710	0	34.6800	8	27.702	0	1596.580	0	38.4	4	11.7	4	-1E+10	1	-1E+10	1	-1E+10	1	-1E+10	1	-1E+10	1	-1E+10	1
4901784	107	C	06/09/2018	10:45	-132.196	43.121	0	1620.10	0	2.2650	0	34.6810	8	27.704	0	1601.010	0	38.6	4	11.7	4	-1E+10	1	-1E+10	1	-1E+10	1	-1E+10	1	-1E+10	1	-1E+10	1
4901784	107	C	06/09/2018	10:45	-132.196	43.121	0	1624.60	0	2.2600	0	34.6810	8	27.704	0	1605.440	0	38.9	4	11.8	4	-1E+10	1	-1E+10	1	-1E+10	1	-1E+10	1	-1E+10	1	-1E+10	1
4901784	107	C	06/09/2018	10:45	-132.196	43.121	0	1630.00	0	2.2550	0	34.6820	8	27.705	0	1610.756	0	39.1	4	11.9	4	-1E+10	1	-1E+10	1	-1E+10	1	-1E+10	1	-1E+10	1	-1E+10	1
4901784	107	C	06/09/2018	10:45	-132.196	43.121	0	1635.40	0	2.2500	0	34.6830	8	27.707	0	1616.071	0	39.4	4	12.0	4	-1E+10	1	-1E+10	1	-1E+10	1	-1E+10	1	-1E+10	1	-1E+10	1
4901784	107	C	06/09/2018	10:45	-132.196	43.121	0	1639.90	0	2.2440	0	34.6830	8	27.707	0	1620.501	0	39.8	4	12.1	4	-1E+10	1	-1E+10	1	-1E+10	1	-1E+10	1	-1E+10	1	-1E+10	1
4901784	107	C	06/09/2018	10:45	-132.196	43.121	0	1645.10	0	2.2340	0	34.6850	8	27.709	0	1625.619	0	40.1	4	12.2	4	-1E+10	1	-1E+10	1	-1E+10	1	-1E+10	1	-1E+10	1	-1E+10	1
4901784	107	C	06/09/2018	10:45	-132.196	43.121	0	1650.30	0	2.2280	0	34.6860	8	27.711	0	1630.738	0	40.5	4	12.3	4	-1E+10	1	-1E+10	1	-1E+10	1	-1E+10	1	-1E+10	1	-1E+10	1
4901784	107	C	06/09/2018	10:45	-132.196	43.121	0	1655.10	0	2.2200	0	34.6870	8	27.712	0	1635.462	0	40.8	4	12.4	4	-1E+10	1	-1E+10	1	-1E+10	1	-1E+10	1	-1E+10	1	-1E+10	1
4901784	107	C	06/09/2018	10:45	-132.196	43.121	0	1660.00	0	2.2150	0	34.6870	8	27.713	0	1640.285	0	41.0	4	12.4	4	-1E+10	1	-1E+10	1	-1E+10	1	-1E+10	1	-1E+10	1	-1E+10	1
4901784	107	C	06/09/2018	10:45	-132.196	43.121	0	1664.90	0	2.2110	0	34.6880	8	27.714	0	1645.108	0	41.3	4	12.5	4	-1E+10	1	-1E+10	1	-1E+10	1	-1E+10	1	-1E+10	1	-1E+10	1
4901784	107	C	06/09/2018	10:45	-132.196	43.121	0	1669.80	0	2.2060	0	34.6880	8	27.714	0	1649.931	0	41.6	4	12.6	4	-1E+10	1	-1E+10	1	-1E+10	1	-1E+10	1	-1E+10	1	-1E+10	1
4901784	107	C	06/09/2018	10:45	-132.196	43.121	0	1674.80	0	2.1970	0	34.6890	8	27.716	0	1654.852	0	42.0	4	12.7	4	-1E+10	1	-1E+10	1	-1E+10	1	-1E+10	1	-1E+10	1	-1E+10	1
4901784	107	C	06/09/2018	10:45	-132.196	43.121	0	1679.70	0	2.1910	0	34.6900	8	27.717	0	1659.674	0	42.3	4	12.8	4	-1E+10	1	-1E+10	1	-1E+10	1	-1E+10	1	-1E+10	1	-1E+10	1
4901784	107	C	06/09/2018	10:45	-132.196	43.121	0	1684.70	0	2.1870	0	34.6910	8	27.718	0	1664.595	0	42.5	4	12.9	4	-1E+10	1	-1E+10	1	-1E+10	1	-1E+10	1	-1E+10	1	-1E+10	1
4901784	107	C	06/09/2018	10:45	-132.196	43.121	0	1689.80	0	2.1810	0	34.6910	8	27.719	0	1669.614	0	42.9	4	13.0	4	-1E+10	1	-1E+10	1	-1E+10	1	-1E+10	1	-1E+10	1	-1E+10	1
4901784	107	C	06/09/2018	10:45	-132.196	43.121	0	1694.90	0	2.1720	0	34.6930	8	27.721	0	1674.633	0	43.3	4	13.1	4	-1E+10	1	-1E+10	1	-1E+10	1	-1E+10	1	-1E+10	1	-1E+10	1
4901784	107	C	06/09/2018	10:45	-132.196	43.121	0	1700.10	0	2.1660	0	34.6930	8	27.722	0	1679.750	0	43.5	4	13.2	4	-1E+10	1	-1E+10	1	-1E+10	1	-1E+10	1	-1E+10	1	-1E+10	1
4901784	107	C	06/09/2018	10:45	-132.196	43.121	0	1705.20	0	2.1620	0	34.6940	8	27.723	0	1684.769	0	43.7	4	13.2	4	-1E+10	1	-1E+10	1	-1E+10	1	-1E+10	1	-1E+10	1	-1E+10	1
4901784	107	C	06/09/2018	10:45	-132.196	43.121	0	1710.40	0	2.1590	0	34.6940	8	27.723	0	1689.886	0	43.9	4	13.3	4	-1E+10	1	-1E+10	1	-1E+10	1	-1E+10	1	-1E+10	1	-1E+10	1
4901784	107	C	06/09/2018	10:45	-132.196	43.121	0	1715.60	0	2.1570	0	34.6950	8	27.724	0	1695.003	0	44.2	4	13.4	4	-1E+10	1	-1E+10	1	-1E+10	1	-1E+10	1	-1E+10	1	-1E+10	1
4901784	107	C	06/09/2018	10:45	-132.196	43.121	0	1720.00	0	2.1530	0	34.6950	8	27.724	0	1699.332	0	44.4	4	13.5	4	-1E+10	1	-1E+10	1	-1E+10	1	-1E+10	1	-1E+10	1	-1E+10	1
4901784	107	C	06/09/2018	10:45	-132.196	43.121	0	1724.30	0	2.1480	0	34.6960	8	27.726	0	1703.563	0	44.8	4	13.6	4	-1E+10	1	-1E+10	1	-1E+10	1	-1E+10	1	-1E+10	1	-1E+10	1
4901784	107	C	06/09/2018	10:45	-132.196	43.121	0	1729.60	0	2.1420	0	34.6960	8	27.726	0	1708.778	0	45.1	4	13.7	4	-1E+10	1	-1E+10	1	-1E+10	1	-1E+10	1	-1E+10	1	-1E+10	1
4901784	107	C	06/09/2018	10:45	-132.196	43.121	0	1734.90	0	2.1330	0	34.6980	8	27.728	0	1713.993	0	45.4	4	13.8	4	-1E+10	1	-1E+10	1	-1E+10	1	-1E+10	1	-1E+10	1	-1E+10	1
4901784	107	C	06/09/2018	10:45	-132.196	43.121	0	1740.30	0	2.1290	0	34.6980	8	27.729	0	1719.306	0	45.6	4	13.8	4	-1E+10	1	-1E+10	1	-1E+10	1	-1E+10	1	-1E+10	1	-1E+10	1
4901784	107	C	06/09/2018	10:45	-132.196	43.121	0	1744.80	0	2.1260	0	34.6990	8	27.730	0	1723.734	0	45.8	4	13.9	4	-1E+10	1	-1E+10	1	-1E+10	1	-1E+10	1	-1E+10	1	-1E+10	1
4901784	107	C	06/09/2018	10:45	-132.196	43.121	0	1749.40	0	2.1250	0	34.6990	8	27.730	0	1728.259	0	46.0	4	13.9	4	-1E+10	1	-1E+10	1	-1E+10	1	-1E+10	1	-1E+10	1	-1E+10	1
4901784	107	C	06/09/2018	10:45	-132.196	43.121	0	1754.90	0	2.1220	0	34.6990	8	27.730	0	1733.671	0	46.4	4	14.0	4	-1E+10	1	-1E+10	1	-1E+10	1	-1E+10	1	-1E+10	1	-1E+10	1
4901784	107	C	06/09/2018	10:45	-132.196	43.121	0	1760.30	0	2.1100	0	34.7010	8	27.733	0	1738.983	0	46.9	4	14.2	4	-1E+10	1	-1E+10	1	-1E+10	1	-1E+10	1	-1E+10	1	-1E+10	1
4901784	107	C	06/09/2018	10:45	-132.196	43.121	0	1764.90	0	2.1030	0	34.7020	8	27.734	0	1743.508	0	47.1	4	14.2	4	-1E+10	1	-1E+10	1	-1E+10	1	-1E+10	1	-1E+10	1	-1E+10	1
4901784	107	C	06/09/2018	10:45	-132.196	43.121	0	1770.10	0	2.1030	0	34.7020	8	27.734	0	1748.624	0	47.2	4	14.3	4	-1E+10	1	-1E+10	1	-1E+10	1	-1E+10	1	-1E+10	1	-1E+10	1
4901784	107	C	06/09/2018	10:45	-132.196	43.121	0	1775.20	0	2.1010	0	34.7030	8	27.735	0	1753.641	0	47.5	4	14.4	4	-1E+10	1	-1E+10	1	-1E+10	1	-1E+10	1	-1E+10	1	-1E+10	1
4901784	107	C	06/09/2018	10:45	-132.196	43.121	0	1780.10	0	2.0960	0	34.7030	8	27.736	0	1758.461	0	47.9	4	14.5	4	-1E+10	1	-1E+10	1	-1E+10	1	-1E+10	1	-1E+10	1	-1E+10	1
4901784	107	C	06/09/2018	10:45	-132.196	43.121	0	1785.00	0	2.0850	0	34.7050	8	27.738	0	1763.281	0	48.4	4	14.6	4	-1E+10	1	-1E+10	1	-1E+10	1	-1E+10	1	-1E+10	1	-1E+10	1
4901784	107	C	06/09/2018	10:45	-132.196	43.121	0	1790.00	0	2.0780	0	34.7050	8	27.739	0	1768.200	0	48.8	4	14.8	4	-1E+10	1	-1E+10	1	-1E+10	1	-1E+10	1	-1E+10	1	-1E+10	1
4901784	107	C	06/09/2018	10:45	-132.196	43.121	0	1794.90	0	2.0720	0	34.7060	8	27.740	0	1773.020	0	49.2	4	14.9	4	-1E+10	1	-1E+10	1	-1E+10	1	-1E+10	1	-1E+10	1	-1E+10	1
4901784	107	C	06/09/2018	10:45	-132.196	43.121	0	1799.90	0	2.0670	0	34.7070	8	27.741	0	1777.938	0	49.4	4	14.9	4	-1E+10	1	-1E+10	1	-1E+10	1	-1E+10	1	-1E+10	1	-1E+10	1
4901784	107	C	06/09/2018	10:45	-132.196	43.121	0	1805.00	0	2.0640	0	34.7070	8	27.742	0	1782.954	0	49.7	4	15.0	4	-1E+10	1	-1E+10	1	-1E+10	1	-1E+10	1	-1E+10	1	-1E+10	1
4901784	107	C	06/09/2018	10:45	-132.196	43.121	0	1810.10	0	2.0570	0	34.7080	8	27.743	0	1787.970	0	50.0	4	15.1	4	-1E+10	1	-1E+10	1	-1E+10	1	-1E+10	1	-1E+10	1	-1E+10	1
4901784	107	C	06/09/2018	10:45	-132.196	43.121	0	1815.20	0	2.0510	0	34.7090	8	27.744	0	1792.987	0	50.4	4	15.2	4	-1E+10	1	-1E+10	1	-1E+10	1	-1E+10	1	-1E+10	1	-1E+10	1
4901784	107	C	06/09/2018	10:45	-132.196	43.121	0	1820.30	0	2.0460	0	34.7100	8	27.745	0	1798.003	0	50.6	4	15.3	4	-1E+10	1	-1E+10	1	-1E+10	1	-1E+10	1	-1E+10	1	-1E+10	1
4901784	107	C	06/09/2018	10:45	-132.196	43.121	0	1825.40	0	2.0430	0	34.7100	8	27.746	0	1803.019	0	50.8	4	15.3	4	-1E+10	1	-1E+10	1	-1E+10	1	-1E+10	1	-1E+10	1	-1E+10	1
4901784	107	C	06/09/2018	10:45	-132.196	43.121	0	1830.60	0	2.0410	0	34.7100	8	27.746	0	1808.133	0	51.0	4	15.4	4	-1E+10	1	-1E+10	1	-1E+10	1	-1E+10	1	-1E+10	1	-1E+10	1
4901784	107	C	06/09/2018	10:45	-132.196	43.121	0	1835.70	0	2.0380	0	34.7110	8	27.747	0	1813.148	0	51.3	4	15.5	4	-1E+10	1	-1E+10	1	-1E+10	1	-1E+10	1	-1E+10	1	-1E+10	1
4901784	107	C	06/09/2018	10:45	-132.196	43.121	0	1840.00	0	2.0340	0	34.7120	8	27.748	0	1817.377	0	51.4	4	15.5	4	-1E+10	1	-1E+10	1	-1E+10	1	-1E+10	1	-1E+10	1	-1E+10	1
4901784	107	C	06/09/2018	10:45	-132.196	43.121	0	1844.30	0	2.0340	0	34.7120	8	27.748	0	1821.606	0	51.5	4	15.6	4	-1E+10	1	-1E+10	1	-1E+10	1	-1E+10	1	-1E+10	1	-1E+10	1
4901784	107	C	06/09/2018	10:45	-132.196	43.121	0	1849.50	0	2.0310	0	34.7120	8	27.748	0	1826.720	0	51.8	4	15.6	4	-1E+10	1	-1E+10	1	-1E+10	1	-1E+10	1	-1E+10	1	-1E+10	1
4901784	107	C	06/09/2018	10:45	-132.196	43.121	0	1854.80	0	2.0260	0	34.7130	8	27.750	0	1831.931	0	52.1	4	15.7	4	-1E+10	1	-1E+10	1	-1E+10	1	-1E+10	1	-1E+10	1	-1E+10	1
4901784	107	C	06/09/2018	10:45	-132.196	43.121	0	1860.10	0	2.0210	0	34.7130	8	27.750	0	1837.143	0	52.4	4	15.8	4	-1E+10	1	-1E+10	1	-1E+10	1	-1E+10	1	-1E+10	1	-1E+10	1
4901784	107	C	06/09/2018	10:45	-132.196	43.121	0	1865.50	0	2.0150	0	34.7140	8	27.751	0	1842.453	0	52.6	4	15.9	4	-1E+10	1	-1E+10	1	-1E+10	1	-1E+10	1	-1E+10	1	-1E+10	1
4901784	107	C	06/09/2018	10:45	-132.196	43.121	0	1869.90	0	2.0130	0	34.7150	8	27.752	0	1846.780	0	52.8	4	15.9	4	-1E+10	1	-1E+10	1	-1E+10	1	-1E+10	1	-1E+10	1	-1E+10	1
4901784	107	C	06/09/2018	10:45	-132.196	43.121	0	1874.40	0	2.0110	0	34.7140	8	27.752	0	1851.205	0	53.0	4	16.0	4	-1E+10	1	-1E+10	1	-1E+10	1	-1E+10	1	-1E+10	1	-1E+10	1
4901784	107	C	06/09/2018	10:45	-132.196	43.121	0	1879.70	0	2.0040	0	34.7160	8	27.754	0	1856.416	0	53.4	4	16.1	4	-1E+10	1	-1E+10	1	-1E+10	1	-1E+10	1	-1E+10	1	-1E+10	1
4901784	107	C	06/09/2018	10:45	-132.196	43.121	0	1885.20	0	2.0030	0	34.7160	8	27.754	0	1861.824	0	53.6	4	16.2	4	-1E+10	1	-1E+10	1	-1E+10	1	-1E+10	1	-1E+10	1	-1E+10	1
4901784	107	C	06/09/2018	10:45	-132.196	43.121	0	1889.80	0	1.9990	0	34.7170	8	27.755	0	1866.346	0	53.9	4	16.3	4	-1E+10	1	-1E+10	1	-1E+10	1	-1E+10	1	-1E+10	1	-1E+10	1
4901784	107	C	06/09/2018	10:45	-132.196	43.121	0	1894.40	0	1.9940	0	34.7170	8	27.756	0	1870.869	0	54.1	4	16.3	4	-1E+10	1	-1E+10	1	-1E+10	1	-1E+10	1	-1E+10	1	-1E+10	1
4901784	107	C	06/09/2018	10:45	-132.196	43.121	0	1899.90	0	1.9890	0	34.7180	8	27.757	0	1876.277	0	54.4	4	16.4	4	-1E+10	1	-1E+10	1	-1E+10	1	-1E+10	1	-1E+10	1	-1E+10	1
4901784	107	C	06/09/2018	10:45	-132.196	43.121	0	1905.40	0	1.9860	0	34.7180	8	27.757	0	1881.684	0	54.6	4	16.5	4	-1E+10	1	-1E+10	1	-1E+10	1	-1E+10	1	-1E+10	1	-1E+10	1
4901784	107	C	06/09/2018	10:45	-132.196	43.121	0	1910.00	0	1.9850	0	34.7190	8	27.758	0	1886.206	0	54.8	4	16.5	4	-1E+10	1	-1E+10	1	-1E+10	1	-1E+10	1	-1E+10	1	-1E+10	1
4901784	107	C	06/09/2018	10:45	-132.196	43.121	0	1914.60	0	1.9820	0	34.7190	8	27.758	0	1890.728	0	55.0	4	16.6	4	-1E+10	1	-1E+10	1	-1E+10	1	-1E+10	1	-1E+10	1	-1E+10	1
4901784	107	C	06/09/2018	10:45	-132.196	43.121	0	1920.20	0	1.9800	0	34.7190	8	27.758	0	1896.234	0	55.2	4	16.7	4	-1E+10	1	-1E+10	1	-1E+10	1	-1E+10	1	-1E+10	1	-1E+10	1
4901784	107	C	06/09/2018	10:45	-132.196	43.121	0	1924.80	0	1.9770	0	34.7200	8	27.759	0	1900.756	0	55.4	4	16.7	4	-1E+10	1	-1E+10	1	-1E+10	1	-1E+10	1	-1E+10	1	-1E+10	1
4901784	107	C	06/09/2018	10:45	-132.196	43.121	0	1929.70	0	1.9740	0	34.7210	8	27.760	0	1905.573	0	55.6	4	16.8	4	-1E+10	1	-1E+10	1	-1E+10	1	-1E+10	1	-1E+10	1	-1E+10	1
4901784	107	C	06/09/2018	10:45	-132.196	43.121	0	1935.00	0	1.9720	0	34.7210	8	27.761	0	1910.783	0	55.8	4	16.8	4	-1E+10	1	-1E+10	1	-1E+10	1	-1E+10	1	-1E+10	1	-1E+10	1
4901784	107	C	06/09/2018	10:45	-132.196	43.121	0	1939.80	0	1.9700	0	34.7210	8	27.761	0	1915.501	0	56.0	4	16.9	4	-1E+10	1	-1E+10	1	-1E+10	1	-1E+10	1	-1E+10	1	-1E+10	1
4901784	107	C	06/09/2018	10:45	-132.196	43.121	0	1944.80	0	1.9660	0	34.7220	8	27.762	0	1920.416	0	56.2	4	17.0	4	-1E+10	1	-1E+10	1	-1E+10	1	-1E+10	1	-1E+10	1	-1E+10	1
4901784	107	C	06/09/2018	10:45	-132.196	43.121	0	1949.80	0	1.9640	0	34.7220	8	27.762	0	1925.331	0	56.4	4	17.0	4	-1E+10	1	-1E+10	1	-1E+10	1	-1E+10	1	-1E+10	1	-1E+10	1
4901784	107	C	06/09/2018	10:45	-132.196	43.121	0	1954.80	0	1.9610	0	34.7230	8	27.763	0	1930.245	0	56.6	4	17.1	4	-1E+10	1	-1E+10	1	-1E+10	1	-1E+10	1	-1E+10	1	-1E+10	1
4901784	107	C	06/09/2018	10:45	-132.196	43.121	0	1959.80	0	1.9600	0	34.7230	8	27.763	0	1935.160	0	56.8	4	17.1	4	-1E+10	1	-1E+10	1	-1E+10	1	-1E+10	1	-1E+10	1	-1E+10	1
4901784	107	C	06/09/2018	10:45	-132.196	43.121	0	1964.90	0	1.9580	0	34.7230	8	27.764	0	1940.172	0	57.0	4	17.2	4	-1E+10	1	-1E+10	1	-1E+10	1	-1E+10	1	-1E+10	1	-1E+10	1
4901784	107	C	06/09/2018	10:45	-132.196	43.121	0	1969.90	0	1.9560	0	34.7240	8	27.765	0	1945.087	0	57.1	4	17.2	4	-1E+10	1	-1E+10	1	-1E+10	1	-1E+10	1	-1E+10	1	-1E+10	1
4901784	107	C	06/09/2018	10:45	-132.196	43.121	0	1975.00	0	1.9530	0	34.7240	8	27.765	0	1950.099	0	57.4	4	17.3	4	-1E+10	1	-1E+10	1	-1E+10	1	-1E+10	1	-1E+10	1	-1E+10	1
4901784	107	C	06/09/2018	10:45	-132.196	43.121	0	1980.10	0	1.9510	0	34.7250	8	27.766	0	1955.111	0	57.6	4	17.3	4	-1E+10	1	-1E+10	1	-1E+10	1	-1E+10	1	-1E+10	1	-1E+10	1
4901784	107	C	06/09/2018	10:45	-132.196	43.121	0	1985.20	0	1.9490	0	34.7250	8	27.766	0	1960.123	0	57.8	4	17.4	4	-1E+10	1	-1E+10	1	-1E+10	1	-1E+10	1	-1E+10	1	-1E+10	1
4901784	107	C	06/09/2018	10:45	-132.196	43.121	0	1990.30	0	1.9470	0	34.7250	8	27.766	0	1965.136	0	58.0	4	17.5	4	-1E+10	1	-1E+10	1	-1E+10	1	-1E+10	1	-1E+10	1	-1E+10	1
4901784	107	C	06/09/2018	10:45	-132.196	43.121	0	1995.50	0	1.9430	0	34.7260	8	27.767	0	1970.246	0	58.4	4	17.6	4	-1E+10	1	-1E+10	1	-1E+10	1	-1E+10	1	-1E+10	1	-1E+10	1
4901784	107	C	06/09/2018	10:45	-132.196	43.121	0	2000.30	0	1.9400	0	34.7270	8	27.768	0	1974.963	0	58.6	4	17.7	4	-1E+10	1	-1E+10	1	-1E+10	1	-1E+10	1	-1E+10	1	-1E+10	1
4901784	107	C	06/09/2018	10:45	-132.196	43.121	0	2005.00	0	1.9370	0	34.7270	8	27.769	0	1979.581	0	58.8	4	17.7	4	-1E+10	1	-1E+10	1	-1E+10	1	-1E+10	1	-1E+10	1	-1E+10	1
4901784	107	C	06/09/2018	10:45	-132.196	43.121	0	2010.40	0	1.9350	0	34.7280	8	27.770	0	1984.888	0	59.1	4	17.8	4	-1E+10	1	-1E+10	1	-1E+10	1	-1E+10	1	-1E+10	1	-1E+10	1
4901784	107	C	06/09/2018	10:45	-132.196	43.121	0	2015.00	0	1.9320	0	34.7280	8	27.770	0	1989.408	0	59.3	4	17.9	4	-1E+10	1	-1E+10	1	-1E+10	1	-1E+10	1	-1E+10	1	-1E+10	1
4901784	107	C	06/09/2018	10:45	-132.196	43.121	0	2020.50	0	1.9290	0	34.7290	8	27.771	0	1994.813	0	59.3	4	17.9	4	-1E+10	1	-1E+10	1	-1E+10	1	-1E+10	1	-1E+10	1	-1E+10	1
4901784	107	C	06/09/2018	10:45	-132.196	43.121	0																										
4901784	108	C	06/19/2018	10:48	-132.389	42.938	0	2.40	0	13.9110	0	32.7630	8	24.478	0	2.381	0	254.3	4	98.9	4	-1E+10	1	-1E+10	1	-1E+10	1	-1E+10	1	-1E+10	1	-1E+10	1
4901784	108	C	06/19/2018	10:48	-132.389	42.938	0	4.00	0	13.9120	0	32.7600	8	24.475	0	3.968	0	254.4	4	98.9	4	-1E+10	1	-1E+10	1	-1E+10	1	-1E+10	1	-1E+10	1	-1E+10	1
4901784	108	C	06/19/2018	10:48	-132.389	42.938	0	5.60	0	13.8980	0	32.7570	8	24.476	0	5.556	0	254.4	4	98.9	4	-1E+10	1	-1E+10	1	-1E+10	1	-1E+10	1	-1E+10	1	-1E+10	1
4901784	108	C	06/19/2018	10:48	-132.389	42.938	0	7.30	0	13.7630	0	32.7720	8	24.515	0	7.242	0	254.6	4	98.7	4	-1E+10	1	-1E+10	1	-1E+10	1	-1E+10	1	-1E+10	1	-1E+10	1
4901784	108	C	06/19/2018	10:48	-132.389	42.938	0	9.00	0	13.6290	0	32.7680	8	24.540	0	8.928	0	255.5	4	98.8	4	-1E+10	1	-1E+10	1	-1E+10	1	-1E+10	1	-1E+10	1	-1E+10	1
4901784	108	C	06/19/2018	10:48	-132.389	42.938	0	10.80	0	13.6220	0	32.7680	8	24.541	0	10.714	0	255.5	4	98.8	4	-1E+10	1	-1E+10	1	-1E+10	1	-1E+10	1	-1E+10	1	-1E+10	1
4901784	108	C	06/19/2018	10:48	-132.389	42.938	0	12.70	0	13.6150	0	32.7670	8	24.542	0	12.599	0	255.6	4	98.8	4	-1E+10	1	-1E+10	1	-1E+10	1	-1E+10	1	-1E+10	1	-1E+10	1
4901784	108	C	06/19/2018	10:48	-132.389	42.938	0	14.50	0	13.6050	0	32.7670	8	24.544	0	14.385	0	255.6	4	98.8	4	-1E+10	1	-1E+10	1	-1E+10	1	-1E+10	1	-1E+10	1	-1E+10	1
4901784	108	C	06/19/2018	10:48	-132.389	42.938	0	16.90	0	13.5900	0	32.7660	8	24.546	0	16.765	0	255.7	4	98.8	4	-1E+10	1	-1E+10	1	-1E+10	1	-1E+10	1	-1E+10	1	-1E+10	1
4901784	108	C	06/19/2018	10:48	-132.389	42.938	0	18.80	0	13.5700	0	32.7660	8	24.550	0	18.650	0	255.9	4	98.8	4	-1E+10	1	-1E+10	1	-1E+10	1	-1E+10	1	-1E+10	1	-1E+10	1
4901784	108	C	06/19/2018	10:48	-132.389	42.938	0	20.40	0	13.5540	0	32.7660	8	24.553	0	20.237	0	256.2	4	98.9	4	-1E+10	1	-1E+10	1	-1E+10	1	-1E+10	1	-1E+10	1	-1E+10	1
4901784	108	C	06/19/2018	10:48	-132.389	42.938	0	22.00	0	13.5350	0	32.7650	8	24.557	0	21.824	0	256.6	4	99.0	4	-1E+10	1	-1E+10	1	-1E+10	1	-1E+10	1	-1E+10	1	-1E+10	1
4901784	108	C	06/19/2018	10:48	-132.389	42.938	0	23.60	0	13.5140	0	32.7630	8	24.559	0	23.412	0	257.2	4	99.2	4	-1E+10	1	-1E+10	1	-1E+10	1	-1E+10	1	-1E+10	1	-1E+10	1
4901784	108	C	06/19/2018	10:48	-132.389	42.938	0	25.10	0	13.4940	0	32.7610	8	24.562	0	24.899	0	257.9	4	99.4	4	-1E+10	1	-1E+10	1	-1E+10	1	-1E+10	1	-1E+10	1	-1E+10	1
4901784	108	C	06/19/2018	10:48	-132.389	42.938	0	26.70	0	13.4700	0	32.7570	8	24.564	0	26.487	0	259.4	4	100.0	4	-1E+10	1	-1E+10	1	-1E+10	1	-1E+10	1	-1E+10	1	-1E+10	1
4901784	108	C	06/19/2018	10:48	-132.389	42.938	0	28.30	0	13.4360	0	32.7460	8	24.562	0	28.074	0	261.5	4	100.7	4	-1E+10	1	-1E+10	1	-1E+10	1	-1E+10	1	-1E+10	1	-1E+10	1
4901784	108	C	06/19/2018	10:48	-132.389	42.938	0	29.80	0	13.2220	0	32.7460	8	24.605	0	29.562	0	264.4	4	101.4	4	-1E+10	1	-1E+10	1	-1E+10	1	-1E+10	1	-1E+10	1	-1E+10	1
4901784	108	C	06/19/2018	10:48	-132.389	42.938	0	31.40	0	12.6390	0	32.7610	8	24.731	0	31.149	0	270.1	4	102.3	4	-1E+10	1	-1E+10	1	-1E+10	1	-1E+10	1	-1E+10	1	-1E+10	1
4901784	108	C	06/19/2018	10:48	-132.389	42.938	0	33.10	0	12.1020	0	32.7990	8	24.862	0	32.835	0	274.5	4	102.9	4	-1E+10	1	-1E+10	1	-1E+10	1	-1E+10	1	-1E+10	1	-1E+10	1
4901784	108	C	06/19/2018	10:48	-132.389	42.938	0	34.90	0	11.1780	0	32.8280	8	25.054	0	34.620	0	280.8	4	103.3	4	-1E+10	1	-1E+10	1	-1E+10	1	-1E+10	1	-1E+10	1	-1E+10	1
4901784	108	C	06/19/2018	10:48	-132.389	42.938	0	36.60	0	10.7460	0	32.8270	8	25.130	0	36.307	0	283.8	4	103.4	4	-1E+10	1	-1E+10	1	-1E+10	1	-1E+10	1	-1E+10	1	-1E+10	1
4901784	108	C	06/19/2018	10:48	-132.389	42.938	0	38.30	0	10.6880	0	32.8230	8	25.137	0	37.993	0	283.7	4	103.2	4	-1E+10	1	-1E+10	1	-1E+10	1	-1E+10	1	-1E+10	1	-1E+10	1
4901784	108	C	06/19/2018	10:48	-132.389	42.938	0	40.10	0	10.5400	0	32.8250	8	25.164	0	39.778	0	282.9	4	102.6	4	-1E+10	1	-1E+10	1	-1E+10	1	-1E+10	1	-1E+10	1	-1E+10	1
4901784	108	C	06/19/2018	10:48	-132.389	42.938	0	41.80	0	10.4960	0	32.8380	8	25.181	0	41.464	0	281.8	4	102.1	4	-1E+10	1	-1E+10	1	-1E+10	1	-1E+10	1	-1E+10	1	-1E+10	1
4901784	108	C	06/19/2018	10:48	-132.389	42.938	0	43.60	0	10.4250	0	32.8330	8	25.190	0	43.250	0	280.9	4	101.6	4	-1E+10	1	-1E+10	1	-1E+10	1	-1E+10	1	-1E+10	1	-1E+10	1
4901784	108	C	06/19/2018	10:48	-132.389	42.938	0	45.40	0	10.3550	0	32.8330	8	25.202	0	45.035	0	280.4	4	101.3	4	-1E+10	1	-1E+10	1	-1E+10	1	-1E+10	1	-1E+10	1	-1E+10	1
4901784	108	C	06/19/2018	10:48	-132.389	42.938	0	47.20	0	10.3020	0	32.8320	8	25.210	0	46.820	0	279.6	4	100.9	4	-1E+10	1	-1E+10	1	-1E+10	1	-1E+10	1	-1E+10	1	-1E+10	1
4901784	108	C	06/19/2018	10:48	-132.389	42.938	0	48.90	0	10.3060	0	32.8360	8	25.212	0	48.507	0	278.5	4	100.5	4	-1E+10	1	-1E+10	1	-1E+10	1	-1E+10	1	-1E+10	1	-1E+10	1
4901784	108	C	06/19/2018	10:48	-132.389	42.938	0	50.60	0	10.2830	0	32.8320	8	25.213	0	50.193	0	277.7	4	100.2	4	-1E+10	1	-1E+10	1	-1E+10	1	-1E+10	1	-1E+10	1	-1E+10	1
4901784	108	C	06/19/2018	10:48	-132.389	42.938	0	52.30	0	10.2660	0	32.8320	8	25.216	0	51.879	0	276.3	4	99.6	4	-1E+10	1	-1E+10	1	-1E+10	1	-1E+10	1	-1E+10	1	-1E+10	1
4901784	108	C	06/19/2018	10:48	-132.389	42.938	0	54.00	0	10.2410	0	32.8410	8	25.227	0	53.565	0	274.7	4	99.0	4	-1E+10	1	-1E+10	1	-1E+10	1	-1E+10	1	-1E+10	1	-1E+10	1
4901784	108	C	06/19/2018	10:48	-132.389	42.938	0	55.60	0	10.2540	0	32.8530	8	25.235	0	55.152	0	273.3	4	98.6	4	-1E+10	1	-1E+10	1	-1E+10	1	-1E+10	1	-1E+10	1	-1E+10	1
4901784	108	C	06/19/2018	10:48	-132.389	42.938	0	57.30	0	10.2300	0	32.8540	8	25.239	0	56.838	0	272.5	4	98.2	4	-1E+10	1	-1E+10	1	-1E+10	1	-1E+10	1	-1E+10	1	-1E+10	1
4901784	108	C	06/19/2018	10:48	-132.389	42.938	0	59.00	0	10.1980	0	32.8570	8	25.247	0	58.524	0	271.5	4	97.8	4	-1E+10	1	-1E+10	1	-1E+10	1	-1E+10	1	-1E+10	1	-1E+10	1
4901784	108	C	06/19/2018	10:48	-132.389	42.938	0	60.70	0	10.1280	0	32.8510	8	25.254	0	60.210	0	270.9	4	97.4	4	-1E+10	1	-1E+10	1	-1E+10	1	-1E+10	1	-1E+10	1	-1E+10	1
4901784	108	C	06/19/2018	10:48	-132.389	42.938	0	62.30	0	10.0820	0	32.8530	8	25.264	0	61.797	0	270.1	4	97.0	4	-1E+10	1	-1E+10	1	-1E+10	1	-1E+10	1	-1E+10	1	-1E+10	1
4901784	108	C	06/19/2018	10:48	-132.389	42.938	0	64.00	0	10.0350	0	32.8440	8	25.265	0	63.483	0	269.6	4	96.7	4	-1E+10	1	-1E+10	1	-1E+10	1	-1E+10	1	-1E+10	1	-1E+10	1
4901784	108	C	06/19/2018	10:48	-132.389	42.938	0	65.70	0	10.0170	0	32.8420	8	25.266	0	65.169	0	268.8	4	96.4	4	-1E+10	1	-1E+10	1	-1E+10	1	-1E+10	1	-1E+10	1	-1E+10	1
4901784	108	C	06/19/2018	10:48	-132.389	42.938	0	67.30	0	10.0170	0	32.8530	8	25.275	0	66.756	0	268.1	4	96.2	4	-1E+10	1	-1E+10	1	-1E+10	1	-1E+10	1	-1E+10	1	-1E+10	1
4901784	108	C	06/19/2018	10:48	-132.389	42.938	0	69.00	0	9.9690	0	32.8480	8	25.279	0	68.441	0	267.4	4	95.8	4	-1E+10	1	-1E+10	1	-1E+10	1	-1E+10	1	-1E+10	1	-1E+10	1
4901784	108	C	06/19/2018	10:48	-132.389	42.938	0	70.70	0	9.9140	0	32.8420	8	25.283	0	70.127	0	267.3	4	95.7	4	-1E+10	1	-1E+10	1	-1E+10	1	-1E+10	1	-1E+10	1	-1E+10	1
4901784	108	C	06/19/2018	10:48	-132.389	42.938	0	72.30	0	9.8870	0	32.8380	8	25.285	0	71.714	0	267.0	4	95.5	4	-1E+10	1	-1E+10	1	-1E+10	1	-1E+10	1	-1E+10	1	-1E+10	1
4901784	108	C	06/19/2018	10:48	-132.389	42.938	0	74.00	0	9.8580	0	32.8370	8	25.289	0	73.400	0	266.8	4	95.4	4	-1E+10	1	-1E+10	1	-1E+10	1	-1E+10	1	-1E+10	1	-1E+10	1
4901784	108	C	06/19/2018	10:48	-132.389	42.938	0	75.70	0	9.8210	0	32.8340	8	25.292	0	75.086	0	266.5	4	95.2	4	-1E+10	1	-1E+10	1	-1E+10	1	-1E+10	1	-1E+10	1	-1E+10	1
4901784	108	C	06/19/2018	10:48	-132.389	42.938	0	77.30	0	9.7930	0	32.8280	8	25.292	0	76.673	0	266.3	4	95.1	4	-1E+10	1	-1E+10	1	-1E+10	1	-1E+10	1	-1E+10	1	-1E+10	1
4901784	108	C	06/19/2018	10:48	-132.389	42.938	0	79.10	0	9.7800	0	32.8280	8	25.295	0	78.458	0	265.7	4	94.8	4	-1E+10	1	-1E+10	1	-1E+10	1	-1E+10	1	-1E+10	1	-1E+10	1
4901784	108	C	06/19/2018	10:48	-132.389	42.938	0	80.80	0	9.7260	0	32.8210	8	25.298	0	80.144	0	265.3	4	94.5	4	-1E+10	1	-1E+10	1	-1E+10	1	-1E+10	1	-1E+10	1	-1E+10	1
4901784	108	C	06/19/2018	10:48	-132.389	42.938	0	82.60	0	9.6790	0	32.8170	8	25.302	0	81.929	0	264.8	4	94.3	4	-1E+10	1	-1E+10	1	-1E+10	1	-1E+10	1	-1E+10	1	-1E+10	1
4901784	108	C	06/19/2018	10:48	-132.389	42.938	0	84.20	0	9.7020	0	32.8220	8	25.303	0	83.515	0	263.9	4	94.0	4	-1E+10	1	-1E+10	1	-1E+10	1	-1E+10	1	-1E+10	1	-1E+10	1
4901784	108	C	06/19/2018	10:48	-132.389	42.938	0	85.90	0	9.7080	0	32.8290	8	25.307	0	85.201	0	262.8	4	93.6	4	-1E+10	1	-1E+10	1	-1E+10	1	-1E+10	1	-1E+10	1	-1E+10	1
4901784	108	C	06/19/2018	10:48	-132.389	42.938	0	88.10	0	9.6980	0	32.8330	8	25.312	0	87.383	0	261.4	4	93.1	4	-1E+10	1	-1E+10	1	-1E+10	1	-1E+10	1	-1E+10	1	-1E+10	1
4901784	108	C	06/19/2018	10:48	-132.389	42.938	0	89.90	0	9.6830	0	32.8330	8	25.314	0	89.168	0	259.9	4	92.5	4	-1E+10	1	-1E+10	1	-1E+10	1	-1E+10	1	-1E+10	1	-1E+10	1
4901784	108	C	06/19/2018	10:48	-132.389	42.938	0	91.30	0	9.7180	0	32.8590	8	25.329	0	90.556	0	257.7	4	91.8	4	-1E+10	1	-1E+10	1	-1E+10	1	-1E+10	1	-1E+10	1	-1E+10	1
4901784	108	C	06/19/2018	10:48	-132.389	42.938	0	92.70	0	9.6940	0	32.8470	8	25.324	0	91.944	0	256.3	4	91.3	4	-1E+10	1	-1E+10	1	-1E+10	1	-1E+10	1	-1E+10	1	-1E+10	1
4901784	108	C	06/19/2018	10:48	-132.389	42.938	0	94.20	0	9.7400	0	32.8630	8	25.329	0	93.432	0	253.8	4	90.5	4	-1E+10	1	-1E+10	1	-1E+10	1	-1E+10	1	-1E+10	1	-1E+10	1
4901784	108	C	06/19/2018	10:48	-132.389	42.938	0	95.60	0	9.7550	0	32.8930	8	25.350	0	94.820	0	251.0	4	89.6	4	-1E+10	1	-1E+10	1	-1E+10	1	-1E+10	1	-1E+10	1	-1E+10	1
4901784	108	C	06/19/2018	10:48	-132.389	42.938	0	97.00	0	9.5610	0	32.9730	8	25.444	0	96.208	0	248.8	4	88.5	4	-1E+10	1	-1E+10	1	-1E+10	1	-1E+10	1	-1E+10	1	-1E+10	1
4901784	108	C	06/19/2018	10:48	-132.389	42.938	0	98.60	0	9.2260	0	32.9660	8	25.492	0	97.795	0	250.2	4	88.3	4	-1E+10	1	-1E+10	1	-1E+10	1	-1E+10	1	-1E+10	1	-1E+10	1
4901784	108	C	06/19/2018	10:48	-132.389	42.938	0	100.30	0	9.1000	0	32.9840	8	25.526	0	99.481	0	249.5	4	87.8	4	-1E+10	1	-1E+10	1	-1E+10	1	-1E+10	1	-1E+10	1	-1E+10	1
4901784	108	C	06/19/2018	10:48	-132.389	42.938	0	102.80	0	9.0310	0	32.9910	8	25.542	0	101.960	0	248.5	4	87.3	4	-1E+10	1	-1E+10	1	-1E+10	1	-1E+10	1	-1E+10	1	-1E+10	1
4901784	108	C	06/19/2018	10:48	-132.389	42.938	0	105.50	0	8.8690	0	33.0210	8	25.591	0	104.637	0	247.6	4	86.7	4	-1E+10	1	-1E+10	1	-1E+10	1	-1E+10	1	-1E+10	1	-1E+10	1
4901784	108	C	06/19/2018	10:48	-132.389	42.938	0	107.30	0	8.7630	0	33.0490	8	25.629	0	106.422	0	247.2	4	86.4	4	-1E+10	1	-1E+10	1	-1E+10	1	-1E+10	1	-1E+10	1	-1E+10	1
4901784	108	C	06/19/2018	10:48	-132.389	42.938	0	110.10	0	8.6840	0	33.0690	8	25.657	0	109.198	0	245.9	4	85.8	4	-1E+10	1	-1E+10	1	-1E+10	1	-1E+10	1	-1E+10	1	-1E+10	1
4901784	108	C	06/19/2018	10:48	-132.389	42.938	0	112.80	0	8.5790	0	33.1100	8	25.705	0	111.875	0	244.7	4	85.2	4	-1E+10	1	-1E+10	1	-1E+10	1	-1E+10	1	-1E+10	1	-1E+10	1
4901784	108	C	06/19/2018	10:48	-132.389	42.938	0	114.50	0	8.4900	0	33.1590	8	25.757	0	113.561	0	244.1	4	84.9	4	-1E+10	1	-1E+10	1	-1E+10	1	-1E+10	1	-1E+10	1	-1E+10	1
4901784	108	C	06/19/2018	10:48	-132.389	42.938	0	117.40	0	8.3350	0	33.2070	8	25.818	0	116.436	0	243.4	4	84.4	4	-1E+10	1	-1E+10	1	-1E+10	1	-1E+10	1	-1E+10	1	-1E+10	1
4901784	108	C	06/19/2018	10:48	-132.389	42.938	0	119.80	0	8.1730	0	33.2160	8	25.850	0	118.816	0	243.1	4	84.0	4	-1E+10	1	-1E+10	1	-1E+10	1	-1E+10	1	-1E+10	1	-1E+10	1
4901784	108	C	06/19/2018	10:48	-132.389	42.938	0	122.30	0	8.1380	0	33.2470	8	25.879	0	121.294	0	242.1	4	83.6	4	-1E+10	1	-1E+10	1	-1E+10	1	-1E+10	1	-1E+10	1	-1E+10	1
4901784	108	C	06/19/2018	10:48	-132.389	42.938	0	124.70	0	8.1180	0	33.2700	8	25.900	0	123.674	0	241.1	4	83.2	4	-1E+10	1	-1E+10	1	-1E+10	1	-1E+10	1	-1E+10	1	-1E+10	1
4901784	108	C	06/19/2018	10:48	-132.389	42.938	0	127.90	0	8.1000	0	33.2830	8	25.913	0	126.847	0	239.1	4	82.5	4	-1E+10	1	-1E+10	1	-1E+10	1	-1E+10	1	-1E+10	1	-1E+10	1
4901784	108	C	06/19/2018	10:48	-132.389	42.938	0	130.20	0	8.1260	0	33.3380	8	25.952	0	129.127	0	236.8	4	81.8	4	-1E+10	1	-1E+10	1	-1E+10	1	-1E+10	1	-1E+10	1	-1E+10	1
4901784	108	C	06/19/2018	10:48	-132.389	42.938	0	132.60	0	8.0550	0	33.3590	8	25.979	0	131.506	0	234.8	4	81.0	4	-1E+10	1	-1E+10	1	-1E+10	1	-1E+10	1	-1E+10	1	-1E+10	1
4901784	108	C	06/19/2018	10:48	-132.389	42.938	0	135.10	0	8.0470	0	33.3910	8	26.006	0	133.985	0	232.9	4	80.3	4	-1E+10	1	-1E+10	1	-1E+10	1	-1E+10	1	-1E+10	1	-1E+10	1
4901784	108	C	06/19/2018	10:48	-132.389	42.938	0	137.60	0	8.1080	0	33.4470	8	26.041	0	136.464	0	230.4	4	79.6	4	-1E+10	1	-1E+10	1	-1E+10	1	-1E+10	1	-1E+10	1	-1E+10	1
4901784	108	C	06/19/2018	10:48	-132.389	42.938	0	140.00	0	8.1510	0	33.4830	8	26.063	0	138.843	0	228.0	4	78.9	4	-1E+10	1	-1E+10	1	-1E+10	1	-1E+10	1	-1E+10	1	-1E+10	1
4901784	108	C	06/19/2018	10:48	-132.389	42.938	0	142.60	0	8.1860	0	33.5530	8	26.112	0	141.421	0	225.5	4	78.1	4	-1E+10	1	-1E+10	1	-1E+10	1	-1E+10	1	-1E+10	1	-1E+10	1
4901784	108	C	06/19/2018	10:48	-132.389	42.938	0	145.10	0	8.2140	0	33.5920	8	26.139	0	143.899	0	223.0	4	77.3	4	-1E+10	1	-1E+10	1	-1E+10	1	-1E+10	1	-1E+10	1	-1E+10	1
4901784	108	C	06/19/2018	10:48	-132.389	42.938	0	147.70	0	8.2480	0	33.6250	8	26.160	0	146.476	0	220.3	4	76.4	4	-1E+10	1	-1E+10	1	-1E+10	1	-1E+10	1	-1E+10	1	-1E+10	1
4901784	108	C	06/19/2018	10:48	-132.389	42.938	0	150.20	0	8.2550	0	33.6520	8	26.180	0	148.955	0	217.4	4	75.5	4	-1E+10	1	-1E+10	1	-1E+10	1	-1E+10	1	-1E+10	1	-1E+10	1
4901784	108	C	06/19/2018	10:48	-132.389	42.938	0	152.70	0	8.2950	0	33.7140	8	26.223	0	151.433	0	213.9	4	74.3	4	-1E+10	1	-1E+10	1	-1E+10	1	-1E+10	1	-1E+10	1	-1E+10	1
4901784	108	C	06/19/2018	10:48	-132.389	42.938	0	155.30	0	8.3550	0	33.7770	8	26.263	0	154.011	0	211.0	4	73.5	4	-1E+10	1	-1E+10	1	-1E+10	1	-1E+10	1	-1E+10	1	-1E+10	1
4901784	108	C	06/19/2018	10:48	-132.389	42.938	0	157.00	0	8.3660	0	33.7920	8	26.273	0	155.696	0	209.5	4	73.0	4	-1E+10	1	-1E+10	1	-1E+10	1	-1E+10	1	-1E+10	1	-1E+10	1
4901784	108	C	06/19/2018	10:48	-132.389	42.938	0	159.70	0	8.4210	0	33.8430	8	26.305	0	158.372	0	206.7	4	72.1	4	-1E+10	1	-1E+10	1	-1E+10	1	-1E+10	1	-1E+10	1	-1E+10	1
4901784	108	C	06/19/2018	10:48	-132.389	42.938	0	162.50	0	8.4420	0	33.8830	8	26.333	0	161.148	0	203.9	4	71.2	4	-1E+10	1	-1E+10	1	-1E+10	1	-1E+10	1	-1E+10	1	-1E+10	1
4901784	108	C	06/19/2018	10:48	-132.389	42.938	0	164.30	0	8.4690	0	33.9160	8	26.355	0	162.932	0	202.1	4	70.6	4	-1E+10	1	-1E+10	1	-1E+10	1	-1E+10	1	-1E+10	1	-1E+10	1
4901784	108	C	06/19/2018	10:48	-132.389	42.938	0	167.20	0	8.4960	0	33.9560	8	26.382	0	165.807	0	199.6	4	69.8	4	-1E+10	1	-1E+10	1	-1E+10	1	-1E+10	1	-1E+10	1	-1E+10	1
4901784	108	C	06/19/2018	10:48	-132.389	42.938	0	170.00	0	8.5250	0	33.9980	8	26.411	0	168.583	0	197.7	4	69.2	4	-1E+10	1	-1E+10	1	-1E+10	1	-1E+10	1	-1E+10	1	-1E+10	1
4901784	108	C	06/19/2018	10:48	-132.389	42.938	0	172.80	0	8.5300	0	34.0040	8	26.415	0	171.358	0	196.7	4	68.9	4	-1E+10	1	-1E+10	1	-1E+10	1	-1E+10	1	-1E+10	1	-1E+10	1
4901784	108	C	06/19/2018	10:48	-132.389	42.938	0	175.60	0	8.5380	0	34.0090	8	26.417	0	174.134	0	195.5	4	68.5	4	-1E+10	1	-1E+10	1	-1E+10	1	-1E+10	1	-1E+10	1	-1E+10	1
4901784	108	C	06/19/2018	10:48	-132.389	42.938	0	177.40	0	8.5510	0	34.0200	8	26.424	0	175.918	0	194.3	4	68.1	4	-1E+10	1	-1E+10	1	-1E+10	1	-1E+10	1	-1E+10	1	-1E+10	1
4901784	108	C	06/19/2018	10:48	-132.389	42.938	0	180.20	0	8.5620	0	34.0340	8	26.433	0	178.693	0	192.2	4	67.4	4	-1E+10	1	-1E+10	1	-1E+10	1	-1E+10	1	-1E+10	1	-1E+10	1
4901784	108	C	06/19/2018	10:48	-132.389	42.938	0	183.10	0	8.5670	0	34.0440	8	26.441	0	181.568	0	189.9	4	66.6	4	-1E+10	1	-1E+10	1	-1E+10	1	-1E+10	1	-1E+10	1	-1E+10	1
4901784	108	C	06/19/2018	10:48	-132.389	42.938	0	184.90	0	8.5730	0	34.0790	8	26.467	0	183.352	0	188.0	4	65.9	4	-1E+10	1	-1E+10	1	-1E+10	1	-1E+10	1	-1E+10	1	-1E+10	1
4901784	108	C	06/19/2018	10:48	-132.389	42.938	0	187.60	0	8.5600	0	34.0880	8	26.476	0	186.028	0	186.4	4	65.4	4	-1E+10	1	-1E+10	1	-1E+10	1	-1E+10	1	-1E+10	1	-1E+10	1
4901784	108	C	06/19/2018	10:48	-132.389	42.938	0	190.40	0	8.5450	0	34.0970	8	26.486	0	188.803	0	185.2	4	64.9	4	-1E+10	1	-1E+10	1	-1E+10	1	-1E+10	1	-1E+10	1	-1E+10	1
4901784	108	C	06/19/2018	10:48	-132.389	42.938	0	192.10	0	8.5430	0	34.0990	8	26.488	0	190.488	0	184.5	4	64.7	4	-1E+10	1	-1E+10	1	-1E+10	1	-1E+10	1	-1E+10	1	-1E+10	1
4901784	108	C	06/19/2018	10:48	-132.389	42.938	0	194.80	0	8.5230	0	34.1150	8	26.503	0	193.164	0	182.9	4	64.1	4	-1E+10	1	-1E+10	1	-1E+10	1	-1E+10	1	-1E+10	1	-1E+10	1
4901784	108	C	06/19/2018	10:48	-132.389	42.938	0	197.60	0	8.4950	0	34.1200	8	26.511	0	195.940	0	181.7	4	63.6	4	-1E+10	1	-1E+10	1	-1E+10	1	-1E+10	1	-1E+10	1	-1E+10	1
4901784	108	C	06/19/2018	10:48	-132.389	42.938	0	199.50	0	8.4740	0	34.1220	8	26.516	0	197.823	0	180.9	4	63.3	4	-1E+10	1	-1E+10	1	-1E+10	1	-1E+10	1	-1E+10	1	-1E+10	1
4901784	108	C	06/19/2018	10:48	-132.389	42.938	0	202.20	0	8.4440	0	34.1220	8	26.521	0	200.499	0	179.8	4	62.9	4	-1E+10	1	-1E+10	1	-1E+10	1	-1E+10	1	-1E+10	1	-1E+10	1
4901784	108	C	06/19/2018	10:48	-132.389	42.938	0	204.90	0	8.4040	0	34.1260	8	26.530	0	203.175	0	178.7	4	62.4	4	-1E+10	1	-1E+10	1	-1E+10	1	-1E+10	1	-1E+10	1	-1E+10	1
4901784	108	C	06/19/2018	10:48	-132.389	42.938	0	207.60	0	8.3700	0	34.1270	8	26.536	0	205.850	0	177.5	4	62.0	4	-1E+10	1	-1E+10	1	-1E+10	1	-1E+10	1	-1E+10	1	-1E+10	1
4901784	108	C	06/19/2018	10:48	-132.389	42.938	0	210.30	0	8.3450	0	34.1270	8	26.540	0	208.526	0	176.2	4	61.5	4	-1E+10	1	-1E+10	1	-1E+10	1	-1E+10	1	-1E+10	1	-1E+10	1
4901784	108	C	06/19/2018	10:48	-132.389	42.938	0	212.10	0	8.2880	0	34.1300	8	26.551	0	210.310	0	175.2	4	61.1	4	-1E+10	1	-1E+10	1	-1E+10	1	-1E+10	1	-1E+10	1	-1E+10	1
4901784	108	C	06/19/2018	10:48	-132.389	42.938	0	214.80	0	8.2370	0	34.1270	8	26.556	0	212.986	0	174.1	4	60.6	4	-1E+10	1	-1E+10	1	-1E+10	1	-1E+10	1	-1E+10	1	-1E+10	1
4901784	108	C	06/19/2018	10:48	-132.389	42.938	0	217.40	0	8.1810	0	34.1250	8	26.563	0	215.563	0	172.8	4	60.1	4	-1E+10	1	-1E+10	1	-1E+10	1	-1E+10	1	-1E+10	1	-1E+10	1
4901784	108	C	06/19/2018	10:48	-132.389	42.938	0	220.10	0	8.1390	0	34.1230	8	26.568	0	218.239	0	171.5	4	59.6	4	-1E+10	1	-1E+10	1	-1E+10	1	-1E+10	1	-1E+10	1	-1E+10	1
4901784	108	C	06/19/2018	10:48	-132.389	42.938	0	222.90	0	8.0870	0	34.1220	8	26.575	0	221.013	0	170.1	4	59.0	4	-1E+10	1	-1E+10	1	-1E+10	1	-1E+10	1	-1E+10	1	-1E+10	1
4901784	108	C	06/19/2018	10:48	-132.389	42.938	0	224.70	0	8.0490	0	34.1180	8	26.577	0	222.797	0	169.4	4	58.7	4	-1E+10	1	-1E+10	1	-1E+10	1	-1E+10	1	-1E+10	1	-1E+10	1
4901784	108	C	06/19/2018	10:48	-132.389	42.938	0	227.40	0	7.9840	0	34.1160	8	26.586	0	225.473	0	168.5	4	58.3	4	-1E+10	1	-1E+10	1	-1E+10	1	-1E+10	1	-1E+10	1	-1E+10	1
4901784	108	C	06/19/2018	10:48	-132.389	42.938	0	230.20	0	7.9470	0	34.1160	8	26.591	0	228.248	0	167.6	4	58.0	4	-1E+10	1	-1E+10	1	-1E+10	1	-1E+10	1	-1E+10	1	-1E+10	1
4901784	108	C	06/19/2018	10:48	-132.389	42.938	0	231.90	0	7.9250	0	34.1150	8	26.594	0	229.932	0	166.7	4	57.6	4	-1E+10	1	-1E+10	1	-1E+10	1	-1E+10	1	-1E+10	1	-1E+10	1
4901784	108	C	06/19/2018	10:48	-132.389	42.938	0	234.80	0	7.8880	0	34.1120	8	26.597	0	232.806	0	165.6	4	57.2	4	-1E+10	1	-1E+10	1	-1E+10	1	-1E+10	1	-1E+10	1	-1E+10	1
4901784	108	C	06/19/2018	10:48	-132.389	42.938	0	237.20	0	7.8530	0	34.1120	8	26.602	0	235.184	0	164.4	4	56.7	4	-1E+10	1	-1E+10	1	-1E+10	1	-1E+10	1	-1E+10	1	-1E+10	1
4901784	108	C	06/19/2018	10:48	-132.389	42.938	0	240.40	0	7.8010	0	34.1090	8	26.607	0	238.355	0	162.5	4	56.0	4	-1E+10	1	-1E+10	1	-1E+10	1	-1E+10	1	-1E+10	1	-1E+10	1
4901784	108	C	06/19/2018	10:48	-132.389	42.938	0	242.80	0	7.7260	0	34.1050	8	26.615	0	240.733	0	161.2	4	55.5	4	-1E+10	1	-1E+10	1	-1E+10	1	-1E+10	1	-1E+10	1	-1E+10	1
4901784	108	C	06/19/2018	10:48	-132.389	42.938	0	245.20	0	7.7180	0	34.1040	8	26.615	0	243.112	0	159.8	4	55.0	4	-1E+10	1	-1E+10	1	-1E+10	1	-1E+10	1	-1E+10	1	-1E+10	1
4901784	108	C	06/19/2018	10:48	-132.389	42.938	0	247.50	0	7.6520	0	34.1020	8	26.623	0	245.391	0	157.9	4	54.2	4	-1E+10	1	-1E+10	1	-1E+10	1	-1E+10	1	-1E+10	1	-1E+10	1
4901784	108	C	06/19/2018	10:48	-132.389	42.938	0	249.90	0	7.6110	0	34.0970	8	26.625	0	247.769	0	156.6	4	53.7	4	-1E+10	1	-1E+10	1	-1E+10	1	-1E+10	1	-1E+10	1	-1E+10	1
4901784	108	C	06/19/2018	10:48	-132.389	42.938	0	252.20	0	7.5760	0	34.0970	8	26.630	0	250.048	0	155.1	4	53.2	4	-1E+10	1	-1E+10	1	-1E+10	1	-1E+10	1	-1E+10	1	-1E+10	1
4901784	108	C	06/19/2018	10:48	-132.389	42.938	0	254.60	0	7.5500	0	34.0990	8	26.636	0	252.426	0	153.1	4	52.5	4	-1E+10	1	-1E+10	1	-1E+10	1	-1E+10	1	-1E+10	1	-1E+10	1
4901784	108	C	06/19/2018	10:48	-132.389	42.938	0	257.10	0	7.4800	0	34.1010	8	26.647	0	254.903	0	150.8	4	51.6	4	-1E+10	1	-1E+10	1	-1E+10	1	-1E+10	1	-1E+10	1	-1E+10	1
4901784	108	C	06/19/2018	10:48	-132.389	42.938	0	259.60	0	7.3940	0	34.1000	8	26.659	0	257.380	0	149.3	4	51.0	4	-1E+10	1	-1E+10	1	-1E+10	1	-1E+10	1	-1E+10	1	-1E+10	1
4901784	108	C	06/19/2018	10:48	-132.389	42.938	0	262.20	0	7.3530	0	34.0960	8	26.661	0	259.956	0	147.9	4	50.5	4	-1E+10	1	-1E+10	1	-1E+10	1	-1E+10	1	-1E+10	1	-1E+10	1
4901784	108	C	06/19/2018	10:48	-132.389	42.938	0	264.70	0	7.3030	0	34.0970	8	26.669	0	262.433	0	147.0	4	50.1	4	-1E+10	1	-1E+10	1	-1E+10	1	-1E+10	1	-1E+10	1	-1E+10	1
4901784	108	C	06/19/2018	10:48	-132.389	42.938	0	267.20	0	7.3010	0	34.0950	8	26.668	0	264.910	0	145.6	4	49.6	4	-1E+10	1	-1E+10	1	-1E+10	1	-1E+10	1	-1E+10	1	-1E+10	1
4901784	108	C	06/19/2018	10:48	-132.389	42.938	0	269.90	0	7.2450	0	34.0950	8	26.676	0	267.585	0	144.1	4	49.1	4	-1E+10	1	-1E+10	1	-1E+10	1	-1E+10	1	-1E+10	1	-1E+10	1
4901784	108	C	06/19/2018	10:48	-132.389	42.938	0	272.50	0	7.2090	0	34.0940	8	26.680	0	270.161	0	142.7	4	48.5	4	-1E+10	1	-1E+10	1	-1E+10	1	-1E+10	1	-1E+10	1	-1E+10	1
4901784	108	C	06/19/2018	10:48	-132.389	42.938	0	275.10	0	7.1490	0	34.0940	8	26.688	0	272.737	0	141.4	4	48.0	4	-1E+10	1	-1E+10	1	-1E+10	1	-1E+10	1	-1E+10	1	-1E+10	1
4901784	108	C	06/19/2018	10:48	-132.389	42.938	0	277.70	0	7.1170	0	34.0930	8	26.692	0	275.313	0	140.4	4	47.7	4	-1E+10	1	-1E+10	1	-1E+10	1	-1E+10	1	-1E+10	1	-1E+10	1
4901784	108	C	06/19/2018	10:48	-132.389	42.938	0	279.50	0	7.1090	0	34.0900	8	26.691	0	277.096	0	139.6	4	47.4	4	-1E+10	1	-1E+10	1	-1E+10	1	-1E+10	1	-1E+10	1	-1E+10	1
4901784	108	C	06/19/2018	10:48	-132.389	42.938	0	282.20	0	7.0520	0	34.0900	8	26.699	0	279.771	0	138.3	4	46.9	4	-1E+10	1	-1E+10	1	-1E+10	1	-1E+10	1	-1E+10	1	-1E+10	1
4901784	108	C	06/19/2018	10:48	-132.389	42.938	0	284.90	0	6.9980	0	34.0900	8	26.706	0	282.446	0	137.3	4	46.5	4	-1E+10	1	-1E+10	1	-1E+10	1	-1E+10	1	-1E+10	1	-1E+10	1
4901784	108	C	06/19/2018	10:48	-132.389	42.938	0	287.50	0	6.9540	0	34.0880	8	26.710	0	285.022	0	136.8	4	46.3	4	-1E+10	1	-1E+10	1	-1E+10	1	-1E+10	1	-1E+10	1	-1E+10	1
4901784	108	C	06/19/2018	10:48	-132.389	42.938	0	290.20	0	6.9510	0	34.0880	8	26.711	0	287.697	0	136.4	4	46.1	4	-1E+10	1	-1E+10	1	-1E+10	1	-1E+10	1	-1E+10	1	-1E+10	1
4901784	108	C	06/19/2018	10:48	-132.389	42.938	0	292.00	0	6.9530	0	34.0870	8	26.710	0	289.480	0	135.9	4	46.0	4	-1E+10	1	-1E+10	1	-1E+10	1	-1E+10	1	-1E+10	1	-1E+10	1
4901784	108	C	06/19/2018	10:48	-132.389	42.938	0	294.80	0	6.9250	0	34.0870	8	26.714	0	292.254	0	134.9	4	45.6	4	-1E+10	1	-1E+10	1	-1E+10	1	-1E+10	1	-1E+10	1	-1E+10	1
4901784	108	C	06/19/2018	10:48	-132.389	42.938	0	297.50	0	6.8980	0	34.0850	8	26.716	0	294.929	0	134.0	4	45.3	4	-1E+10	1	-1E+10	1	-1E+10	1	-1E+10	1	-1E+10	1	-1E+10	1
4901784	108	C	06/19/2018	10:48	-132.389	42.938	0	300.20	0	6.8820	0	34.0840	8	26.717	0	297.604	0	132.7	4	44.8	4	-1E+10	1	-1E+10	1	-1E+10	1	-1E+10	1	-1E+10	1	-1E+10	1
4901784	108	C	06/19/2018	10:48	-132.389	42.938	0	303.00	0	6.8270	0	34.0820	8	26.723	0	300.377	0	131.3	4	44.3	4	-1E+10	1	-1E+10	1	-1E+10	1	-1E+10	1	-1E+10	1	-1E+10	1
4901784	108	C	06/19/2018	10:48	-132.389	42.938	0	304.80	0	6.8120	0	34.0820	8	26.725	0	302.160	0	130.3	4	43.9	4	-1E+10	1	-1E+10	1	-1E+10	1	-1E+10	1	-1E+10	1	-1E+10	1
4901784	108	C	06/19/2018	10:48	-132.389	42.938	0	307.70	0	6.7470	0	34.0810	8	26.733	0	305.033	0	128.6	4	43.3	4	-1E+10	1	-1E+10	1	-1E+10	1	-1E+10	1	-1E+10	1	-1E+10	1
4901784	108	C	06/19/2018	10:48	-132.389	42.938	0	310.40	0	6.6500	0	34.0800	8	26.745	0	307.708	0	127.5	4	42.8	4	-1E+10	1	-1E+10	1	-1E+10	1	-1E+10	1	-1E+10	1	-1E+10	1
4901784	108	C	06/19/2018	10:48	-132.389	42.938	0	312.30	0	6.6250	0	34.0770	8	26.746	0	309.590	0	126.9	4	42.6	4	-1E+10	1	-1E+10	1	-1E+10	1	-1E+10	1	-1E+10	1	-1E+10	1
4901784	108	C	06/19/2018	10:48	-132.389	42.938	0	315.10	0	6.5930	0	34.0770	8	26.751	0	312.363	0	125.9	4	42.2	4	-1E+10	1	-1E+10	1	-1E+10	1	-1E+10	1	-1E+10	1	-1E+10	1
4901784	108	C	06/19/2018	10:48	-132.389	42.938	0	317.90	0	6.5430	0	34.0750	8	26.756	0	315.137	0	125.0	4	41.9	4	-1E+10	1	-1E+10	1	-1E+10	1	-1E+10	1	-1E+10	1	-1E+10	1
4901784	108	C	06/19/2018	10:48	-132.389	42.938	0	319.80	0	6.5330	0	34.0740	8	26.756	0	317.019	0	124.4	4	41.7	4	-1E+10	1	-1E+10	1	-1E+10	1	-1E+10	1	-1E+10	1	-1E+10	1
4901784	108	C	06/19/2018	10:48	-132.389	42.938	0	322.60	0	6.4900	0	34.0730	8	26.761	0	319.793	0	123.4	4	41.3	4	-1E+10	1	-1E+10	1	-1E+10	1	-1E+10	1	-1E+10	1	-1E+10	1
4901784	108	C	06/19/2018	10:48	-132.389	42.938	0	325.50	0	6.4400	0	34.0730	8	26.768	0	322.665	0	122.7	4	41.0	4	-1E+10	1	-1E+10	1	-1E+10	1	-1E+10	1	-1E+10	1	-1E+10	1
4901784	108	C	06/19/2018	10:48	-132.389	42.938	0	327.40	0	6.4180	0	34.0720	8	26.770	0	324.547	0	122.2	4	40.8	4	-1E+10	1	-1E+10	1	-1E+10	1	-1E+10	1	-1E+10	1	-1E+10	1
4901784	108	C	06/19/2018	10:48	-132.389	42.938	0	329.30	0	6.4110	0	34.0730	8	26.771	0	326.429	0	121.8	4	40.7	4	-1E+10	1	-1E+10	1	-1E+10	1	-1E+10	1	-1E+10	1	-1E+10	1
4901784	108	C	06/19/2018	10:48	-132.389	42.938	0	332.40	0	6.3750	0	34.0700	8	26.774	0	329.499	0	120.9	4	40.3	4	-1E+10	1	-1E+10	1	-1E+10	1	-1E+10	1	-1E+10	1	-1E+10	1
4901784	108	C	06/19/2018	10:48	-132.389	42.938	0	335.30	0	6.3420	0	34.0710	8	26.779	0	332.372	0	119.9	4	40.0	4	-1E+10	1	-1E+10	1	-1E+10	1	-1E+10	1	-1E+10	1	-1E+10	1
4901784	108	C	06/19/2018	10:48	-132.389	42.938	0	337.60	0	6.3070	0	34.0710	8	26.783	0	334.650	0	119.1	4	39.7	4	-1E+10	1	-1E+10	1	-1E+10	1	-1E+10	1	-1E+10	1	-1E+10	1
4901784	108	C	06/19/2018	10:48	-132.389	42.938	0	340.00	0	6.2800	0	34.0690	8	26.785	0	337.027	0	118.4	4	39.4	4	-1E+10	1	-1E+10	1	-1E+10	1	-1E+10	1	-1E+10	1	-1E+10	1
4901784	108	C	06/19/2018	10:48	-132.389	42.938	0	342.40	0	6.2530	0	34.0690	8	26.789	0	339.404	0	117.4	4	39.1	4	-1E+10	1	-1E+10	1	-1E+10	1	-1E+10	1	-1E+10	1	-1E+10	1
4901784	108	C	06/19/2018	10:48	-132.389	42.938	0	344.90	0	6.2210	0	34.0670	8	26.791	0	341.880	0	116.5	4	38.7	4	-1E+10	1	-1E+10	1	-1E+10	1	-1E+10	1	-1E+10	1	-1E+10	1
4901784	108	C	06/19/2018	10:48	-132.389	42.938	0	347.40	0	6.1790	0	34.0670	8	26.797	0	344.356	0	115.7	4	38.4	4	-1E+10	1	-1E+10	1	-1E+10	1	-1E+10	1	-1E+10	1	-1E+10	1
4901784	108	C	06/19/2018	10:48	-132.389	42.938	0	349.80	0	6.1640	0	34.0660	8	26.798	0	346.733	0	114.8	4	38.1	4	-1E+10	1	-1E+10	1	-1E+10	1	-1E+10	1	-1E+10	1	-1E+10	1
4901784	108	C	06/19/2018	10:48	-132.389	42.938	0	352.20	0	6.1300	0	34.0670	8	26.803	0	349.110	0	113.6	4	37.7	4	-1E+10	1	-1E+10	1	-1E+10	1	-1E+10	1	-1E+10	1	-1E+10	1
4901784	108	C	06/19/2018	10:48	-132.389	42.938	0	354.70	0	6.0600	0	34.0660	8	26.811	0	351.586	0	112.4	4	37.2	4	-1E+10	1	-1E+10	1	-1E+10	1	-1E+10	1	-1E+10	1	-1E+10	1
4901784	108	C	06/19/2018	10:48	-132.389	42.938	0	357.10	0	6.0260	0	34.0650	8	26.815	0	353.963	0	111.4	4	36.9	4	-1E+10	1	-1E+10	1	-1E+10	1	-1E+10	1	-1E+10	1	-1E+10	1
4901784	108	C	06/19/2018	10:48	-132.389	42.938	0	360.40	0	5.9750	0	34.0650	8	26.821	0	357.231	0	110.2	4	36.4	4	-1E+10	1	-1E+10	1	-1E+10	1	-1E+10	1	-1E+10	1	-1E+10	1
4901784	108	C	06/19/2018	10:48	-132.389	42.938	0	362.80	0	5.9240	0	34.0650	8	26.827	0	359.608	0	109.3	4	36.1	4	-1E+10	1	-1E+10	1	-1E+10	1	-1E+10	1	-1E+10	1	-1E+10	1
4901784	108	C	06/19/2018	10:48	-132.389	42.938	0	365.30	0	5.9150	0	34.0640	8	26.828	0	362.084	0	108.6	4	35.8	4	-1E+10	1	-1E+10	1	-1E+10	1	-1E+10	1	-1E+10	1	-1E+10	1
4901784	108	C	06/19/2018	10:48	-132.389	42.938	0	367.80	0	5.9020	0	34.0620	8	26.828	0	364.559	0	107.6	4	35.5	4	-1E+10	1	-1E+10	1	-1E+10	1	-1E+10	1	-1E+10	1	-1E+10	1
4901784	108	C	06/19/2018	10:48	-132.389	42.938	0	369.50	0	5.8510	0	34.0640	8	26.836	0	366.243	0	106.9	4	35.2	4	-1E+10	1	-1E+10	1	-1E+10	1	-1E+10	1	-1E+10	1	-1E+10	1
4901784	108	C	06/19/2018	10:48	-132.389	42.938	0	372.10	0	5.8260	0	34.0630	8	26.838	0	368.818	0	106.0	4	34.9	4	-1E+10	1	-1E+10	1	-1E+10	1	-1E+10	1	-1E+10	1	-1E+10	1
4901784	108	C	06/19/2018	10:48	-132.389	42.938	0	374.60	0	5.7910	0	34.0630	8	26.842	0	371.293	0	105.2	4	34.6	4	-1E+10	1	-1E+10	1	-1E+10	1	-1E+10	1	-1E+10	1	-1E+10	1
4901784	108	C	06/19/2018	10:48	-132.389	42.938	0	377.20	0	5.7710	0	34.0640	8	26.846	0	373.868	0	104.3	4	34.3	4	-1E+10	1	-1E+10	1	-1E+10	1	-1E+10	1	-1E+10	1	-1E+10	1
4901784	108	C	06/19/2018	10:48	-132.389	42.938	0	379.80	0	5.7360	0	34.0630	8	26.849	0	376.443	0	103.4	4	34.0	4	-1E+10	1	-1E+10	1	-1E+10	1	-1E+10	1	-1E+10	1	-1E+10	1
4901784	108	C	06/19/2018	10:48	-132.389	42.938	0	382.30	0	5.7130	0	34.0620	8	26.851	0	378.918	0	102.3	4	33.6	4	-1E+10	1	-1E+10	1	-1E+10	1	-1E+10	1	-1E+10	1	-1E+10	1
4901784	108	C	06/19/2018	10:48	-132.389	42.938	0	384.80	0	5.6680	0	34.0620	8	26.857	0	381.394	0	101.3	4	33.3	4	-1E+10	1	-1E+10	1	-1E+10	1	-1E+10	1	-1E+10	1	-1E+10	1
4901784	108	C	06/19/2018	10:48	-132.389	42.938	0	387.40	0	5.6230	0	34.0650	8	26.865	0	383.969	0	100.5	4	33.0	4	-1E+10	1	-1E+10	1	-1E+10	1	-1E+10	1	-1E+10	1	-1E+10	1
4901784	108	C	06/19/2018	10:48	-132.389	42.938	0	389.90	0	5.6020	0	34.0640	8	26.866	0	386.444	0	99.9	4	32.7	4	-1E+10	1	-1E+10	1	-1E+10	1	-1E+10	1	-1E+10	1	-1E+10	1
4901784	108	C	06/19/2018	10:48	-132.389	42.938	0	392.40	0	5.5970	0	34.0620	8	26.865	0	388.920	0	99.0	4	32.4	4	-1E+10	1	-1E+10	1	-1E+10	1	-1E+10	1	-1E+10	1	-1E+10	1
4901784	108	C	06/19/2018	10:48	-132.389	42.938	0	395.00	0	5.5580	0	34.0630	8	26.871	0	391.494	0	97.9	4	32.1	4	-1E+10	1	-1E+10	1	-1E+10	1	-1E+10	1	-1E+10	1	-1E+10	1
4901784	108	C	06/19/2018	10:48	-132.389	42.938	0	397.60	0	5.5110	0	34.0650	8	26.878	0	394.069	0	96.9	4	31.7	4	-1E+10	1	-1E+10	1	-1E+10	1	-1E+10	1	-1E+10	1	-1E+10	1
4901784	108	C	06/19/2018	10:48	-132.389	42.938	0	400.20	0	5.4830	0	34.0650	8	26.881	0	396.643	0	96.0	4	31.4	4	-1E+10	1	-1E+10	1	-1E+10	1	-1E+10	1	-1E+10	1	-1E+10	1
4901784	108	C	06/19/2018	10:48	-132.389	42.938	0	402.80	0	5.4440	0	34.0650	8	26.886	0	399.217	0	94.7	4	30.9	4	-1E+10	1	-1E+10	1	-1E+10	1	-1E+10	1	-1E+10	1	-1E+10	1
4901784	108	C	06/19/2018	10:48	-132.389	42.938	0	405.40	0	5.3950	0	34.0670	8	26.894	0	401.792	0	93.5	4	30.5	4	-1E+10	1	-1E+10	1	-1E+10	1	-1E+10	1	-1E+10	1	-1E+10	1
4901784	108	C	06/19/2018	10:48	-132.389	42.938	0	407.20	0	5.3590	0	34.0690	8	26.899	0	403.574	0	92.9	4	30.3	4	-1E+10	1	-1E+10	1	-1E+10	1	-1E+10	1	-1E+10	1	-1E+10	1
4901784	108	C	06/19/2018	10:48	-132.389	42.938	0	409.90	0	5.3300	0	34.0700	8	26.904	0	406.247	0	92.2	4	30.0	4	-1E+10	1	-1E+10	1	-1E+10	1	-1E+10	1	-1E+10	1	-1E+10	1
4901784	108	C	06/19/2018	10:48	-132.389	42.938	0	412.60	0	5.3000	0	34.0710	8	26.908	0	408.921	0	91.4	4	29.8	4	-1E+10	1	-1E+10	1	-1E+10	1	-1E+10	1	-1E+10	1	-1E+10	1
4901784	108	C	06/19/2018	10:48	-132.389	42.938	0	414.50	0	5.2790	0	34.0720	8	26.911	0	410.802	0	91.0	4	29.6	4	-1E+10	1	-1E+10	1	-1E+10	1	-1E+10	1	-1E+10	1	-1E+10	1
4901784	108	C	06/19/2018	10:48	-132.389	42.938	0	417.20	0	5.2710	0	34.0710	8	26.911	0	413.475	0	90.0	4	29.3	4	-1E+10	1	-1E+10	1	-1E+10	1	-1E+10	1	-1E+10	1	-1E+10	1
4901784	108	C	06/19/2018	10:48	-132.389	42.938	0	419.90	0	5.2330	0	34.0730	8	26.917	0	416.148	0	88.8	4	28.9	4	-1E+10	1	-1E+10	1	-1E+10	1	-1E+10	1	-1E+10	1	-1E+10	1
4901784	108	C	06/19/2018	10:48	-132.389	42.938	0	422.50	0	5.1960	0	34.0750	8	26.923	0	418.722	0	88.0	4	28.6	4	-1E+10	1	-1E+10	1	-1E+10	1	-1E+10	1	-1E+10	1	-1E+10	1
4901784	108	C	06/19/2018	10:48	-132.389	42.938	0	425.20	0	5.1850	0	34.0750	8	26.925	0	421.395	0	87.2	4	28.3	4	-1E+10	1	-1E+10	1	-1E+10	1	-1E+10	1	-1E+10	1	-1E+10	1
4901784	108	C	06/19/2018	10:48	-132.389	42.938	0	427.90	0	5.1620	0	34.0740	8	26.927	0	424.068	0	86.2	4	28.0	4	-1E+10	1	-1E+10	1	-1E+10	1	-1E+10	1	-1E+10	1	-1E+10	1
4901784	108	C	06/19/2018	10:48	-132.389	42.938	0	430.60	0	5.1350	0	34.0750	8	26.930	0	426.742	0	85.3	4	27.6	4	-1E+10	1	-1E+10	1	-1E+10	1	-1E+10	1	-1E+10	1	-1E+10	1
4901784	108	C	06/19/2018	10:48	-132.389	42.938	0	432.40	0	5.1320	0	34.0750	8	26.931	0	428.524	0	84.6	4	27.4	4	-1E+10	1	-1E+10	1	-1E+10	1	-1E+10	1	-1E+10	1	-1E+10	1
4901784	108	C	06/19/2018	10:48	-132.389	42.938	0	435.10	0	5.1090	0	34.0770	8	26.935	0	431.197	0	83.2	4	27.0	4	-1E+10	1	-1E+10	1	-1E+10	1	-1E+10	1	-1E+10	1	-1E+10	1
4901784	108	C	06/19/2018	10:48	-132.389	42.938	0	437.90	0	5.0630	0	34.0820	8	26.944	0	433.968	0	82.1	4	26.6	4	-1E+10	1	-1E+10	1	-1E+10	1	-1E+10	1	-1E+10	1	-1E+10	1
4901784	108	C	06/19/2018	10:48	-132.389	42.938	0	439.70	0	5.0590	0	34.0820	8	26.945	0	435.750	0	81.4	4	26.3	4	-1E+10	1	-1E+10	1	-1E+10	1	-1E+10	1	-1E+10	1	-1E+10	1
4901784	108	C	06/19/2018	10:48	-132.389	42.938	0	442.50	0	5.0320	0	34.0830	8	26.949	0	438.522	0	80.2	4	25.9	4	-1E+10	1	-1E+10	1	-1E+10	1	-1E+10	1	-1E+10	1	-1E+10	1
4901784	108	C	06/19/2018	10:48	-132.389	42.938	0	445.20	0	5.0100	0	34.0830	8	26.951	0	441.195	0	78.9	4	25.5	4	-1E+10	1	-1E+10	1	-1E+10	1	-1E+10	1	-1E+10	1	-1E+10	1
4901784	108	C	06/19/2018	10:48	-132.389	42.938	0	447.10	0	4.9890	0	34.0870	8	26.957	0	443.076	0	78.2	4	25.3	4	-1E+10	1	-1E+10	1	-1E+10	1	-1E+10	1	-1E+10	1	-1E+10	1
4901784	108	C	06/19/2018	10:48	-132.389	42.938	0	449.80	0	4.9790	0	34.0870	8	26.958	0	445.749	0	76.7	4	24.8	4	-1E+10	1	-1E+10	1	-1E+10	1	-1E+10	1	-1E+10	1	-1E+10	1
4901784	108	C	06/19/2018	10:48	-132.389	42.938	0	452.50	0	4.9450	0	34.0910	8	26.965	0	448.422	0	74.8	4	24.1	4	-1E+10	1	-1E+10	1	-1E+10	1	-1E+10	1	-1E+10	1	-1E+10	1
4901784	108	C	06/19/2018	10:48	-132.389	42.938	0	455.30	0	4.9110	0	34.0950	8	26.972	0	451.193	0	73.0	4	23.5	4	-1E+10	1	-1E+10	1	-1E+10	1	-1E+10	1	-1E+10	1	-1E+10	1
4901784	108	C	06/19/2018	10:48	-132.389	42.938	0	458.10	0	4.8840	0	34.0970	8	26.977	0	453.965	0	71.4	4	23.0	4	-1E+10	1	-1E+10	1	-1E+10	1	-1E+10	1	-1E+10	1	-1E+10	1
4901784	108	C	06/19/2018	10:48	-132.389	42.938	0	459.90	0	4.8620	0	34.1000	8	26.982	0	455.747	0	70.6	4	22.7	4	-1E+10	1	-1E+10	1	-1E+10	1	-1E+10	1	-1E+10	1	-1E+10	1
4901784	108	C	06/19/2018	10:48	-132.389	42.938	0	462.70	0	4.8400	0	34.1020	8	26.986	0	458.518	0	69.9	4	22.5	4	-1E+10	1	-1E+10	1	-1E+10	1	-1E+10	1	-1E+10	1	-1E+10	1
4901784	108	C	06/19/2018	10:48	-132.389	42.938	0	465.40	0	4.8360	0	34.1020	8	26.986	0	461.191	0	69.3	4	22.3	4	-1E+10	1	-1E+10	1	-1E+10	1	-1E+10	1	-1E+10	1	-1E+10	1
4901784	108	C	06/19/2018	10:48	-132.389	42.938	0	467.20	0	4.8320	0	34.1020	8	26.987	0	462.973	0	68.7	4	22.1	4	-1E+10	1	-1E+10	1	-1E+10	1	-1E+10	1	-1E+10	1	-1E+10	1
4901784	108	C	06/19/2018	10:48	-132.389	42.938	0	469.90	0	4.8180	0	34.1050	8	26.991	0	465.645	0	67.9	4	21.9	4	-1E+10	1	-1E+10	1	-1E+10	1	-1E+10	1	-1E+10	1	-1E+10	1
4901784	108	C	06/19/2018	10:48	-132.389	42.938	0	472.70	0	4.8050	0	34.1070	8	26.994	0	468.417	0	67.1	4	21.6	4	-1E+10	1	-1E+10	1	-1E+10	1	-1E+10	1	-1E+10	1	-1E+10	1
4901784	108	C	06/19/2018	10:48	-132.389	42.938	0	474.50	0	4.8020	0	34.1080	8	26.995	0	470.198	0	66.6	4	21.4	4	-1E+10	1	-1E+10	1	-1E+10	1	-1E+10	1	-1E+10	1	-1E+10	1
4901784	108	C	06/19/2018	10:48	-132.389	42.938	0	477.20	0	4.7970	0	34.1100	8	26.997	0	472.871	0	66.0	4	21.2	4	-1E+10	1	-1E+10	1	-1E+10	1	-1E+10	1	-1E+10	1	-1E+10	1
4901784	108	C	06/19/2018	10:48	-132.389	42.938	0	479.90	0	4.7800	0	34.1120	8	27.000	0	475.543	0	65.5	4	21.1	4	-1E+10	1	-1E+10	1	-1E+10	1	-1E+10	1	-1E+10	1	-1E+10	1
4901784	108	C	06/19/2018	10:48	-132.389	42.938	0	482.60	0	4.7800	0	34.1130	8	27.001	0	478.216	0	65.1	4	20.9	4	-1E+10	1	-1E+10	1	-1E+10	1	-1E+10	1	-1E+10	1	-1E+10	1
4901784	108	C	06/19/2018	10:48	-132.389	42.938	0	485.40	0	4.7740	0	34.1120	8	27.001	0	480.987	0	64.4	4	20.7	4	-1E+10	1	-1E+10	1	-1E+10	1	-1E+10	1	-1E+10	1	-1E+10	1
4901784	108	C	06/19/2018	10:48	-132.389	42.938	0	487.20	0	4.7570	0	34.1150	8	27.005	0	482.769	0	63.8	4	20.5	4	-1E+10	1	-1E+10	1	-1E+10	1	-1E+10	1	-1E+10	1	-1E+10	1
4901784	108	C	06/19/2018	10:48	-132.389	42.938	0	489.90	0	4.7480	0	34.1160	8	27.007	0	485.441	0	63.1	4	20.3	4	-1E+10	1	-1E+10	1	-1E+10	1	-1E+10	1	-1E+10	1	-1E+10	1
4901784	108	C	06/19/2018	10:48	-132.389	42.938	0	492.70	0	4.7450	0	34.1160	8	27.008	0	488.212	0	62.2	4	20.0	4	-1E+10	1	-1E+10	1	-1E+10	1	-1E+10	1	-1E+10	1	-1E+10	1
4901784	108	C	06/19/2018	10:48	-132.389	42.938	0	494.50	0	4.7370	0	34.1170	8	27.009	0	489.994	0	61.4	4	19.7	4	-1E+10	1	-1E+10	1	-1E+10	1	-1E+10	1	-1E+10	1	-1E+10	1
4901784	108	C	06/19/2018	10:48	-132.389	42.938	0	497.20	0	4.7240	0	34.1220	8	27.015	0	492.666	0	60.0	4	19.3	4	-1E+10	1	-1E+10	1	-1E+10	1	-1E+10	1	-1E+10	1	-1E+10	1
4901784	108	C	06/19/2018	10:48	-132.389	42.938	0	500.00	0	4.7130	0	34.1240	8	27.017	0	495.437	0	58.7	4	18.9	4	-1E+10	1	-1E+10	1	-1E+10	1	-1E+10	1	-1E+10	1	-1E+10	1
4901784	108	C	06/19/2018	10:48	-132.389	42.938	0	505.50	0	4.6960	0	34.1310	8	27.025	0	500.880	0	56.2	4	18.0	4	-1E+10	1	-1E+10	1	-1E+10	1	-1E+10	1	-1E+10	1	-1E+10	1
4901784	108	C	06/19/2018	10:48	-132.389	42.938	0	510.00	0	4.6710	0	34.1370	8	27.033	0	505.333	0	54.0	4	17.3	4	-1E+10	1	-1E+10	1	-1E+10	1	-1E+10	1	-1E+10	1	-1E+10	1
4901784	108	C	06/19/2018	10:48	-132.389	42.938	0	514.50	0	4.6380	0	34.1440	8	27.042	0	509.787	0	51.8	4	16.6	4	-1E+10	1	-1E+10	1	-1E+10	1	-1E+10	1	-1E+10	1	-1E+10	1
4901784	108	C	06/19/2018	10:48	-132.389	42.938	0	519.90	0	4.5870	0	34.1530	8	27.054	0	515.131	0	49.6	4	15.9	4	-1E+10	1	-1E+10	1	-1E+10	1	-1E+10	1	-1E+10	1	-1E+10	1
4901784	108	C	06/19/2018	10:48	-132.389	42.938	0	525.40	0	4.5570	0	34.1630	8	27.066	0	520.573	0	47.9	4	15.3	4	-1E+10	1	-1E+10	1	-1E+10	1	-1E+10	1	-1E+10	1	-1E+10	1
4901784	108	C	06/19/2018	10:48	-132.389	42.938	0	530.70	0	4.5370	0	34.1690	8	27.073	0	525.818	0	46.9	4	15.0	4	-1E+10	1	-1E+10	1	-1E+10	1	-1E+10	1	-1E+10	1	-1E+10	1
4901784	108	C	06/19/2018	10:48	-132.389	42.938	0	535.10	0	4.5270	0	34.1710	8	27.075	0	530.172	0	46.2	4	14.8	4	-1E+10	1	-1E+10	1	-1E+10	1	-1E+10	1	-1E+10	1	-1E+10	1
4901784	108	C	06/19/2018	10:48	-132.389	42.938	0	539.40	0	4.5130	0	34.1750	8	27.080	0	534.427	0	45.2	4	14.4	4	-1E+10	1	-1E+10	1	-1E+10	1	-1E+10	1	-1E+10	1	-1E+10	1
4901784	108	C	06/19/2018	10:48	-132.389	42.938	0	544.60	0	4.5030	0	34.1800	8	27.085	0	539.572	0	44.0	4	14.1	4	-1E+10	1	-1E+10	1	-1E+10	1	-1E+10	1	-1E+10	1	-1E+10	1
4901784	108	C	06/19/2018	10:48	-132.389	42.938	0	549.90	0	4.4890	0	34.1860	8	27.092	0	544.816	0	43.0	4	13.7	4	-1E+10	1	-1E+10	1	-1E+10	1	-1E+10	1	-1E+10	1	-1E+10	1
4901784	108	C	06/19/2018	10:48	-132.389	42.938	0	555.10	0	4.4820	0	34.1880	8	27.094	0	549.961	0	42.0	4	13.4	4	-1E+10	1	-1E+10	1	-1E+10	1	-1E+10	1	-1E+10	1	-1E+10	1
4901784	108	C	06/19/2018	10:48	-132.389	42.938	0	560.40	0	4.4610	0	34.1950	8	27.102	0	555.205	0	40.4	4	12.9	4	-1E+10	1	-1E+10	1	-1E+10	1	-1E+10	1	-1E+10	1	-1E+10	1
4901784	108	C	06/19/2018	10:48	-132.389	42.938	0	565.70	0	4.4470	0	34.2020	8	27.109	0	560.449	0	39.0	4	12.5	4	-1E+10	1	-1E+10	1	-1E+10	1	-1E+10	1	-1E+10	1	-1E+10	1
4901784	108	C	06/19/2018	10:48	-132.389	42.938	0	570.00	0	4.4380	0	34.2070	8	27.114	0	564.703	0	37.8	4	12.1	4	-1E+10	1	-1E+10	1	-1E+10	1	-1E+10	1	-1E+10	1	-1E+10	1
4901784	108	C	06/19/2018	10:48	-132.389	42.938	0	574.50	0	4.4180	0	34.2150	8	27.122	0	569.155	0	36.5	4	11.6	4	-1E+10	1	-1E+10	1	-1E+10	1	-1E+10	1	-1E+10	1	-1E+10	1
4901784	108	C	06/19/2018	10:48	-132.389	42.938	0	579.80	0	4.4050	0	34.2230	8	27.130	0	574.398	0	35.3	4	11.3	4	-1E+10	1	-1E+10	1	-1E+10	1	-1E+10	1	-1E+10	1	-1E+10	1
4901784	108	C	06/19/2018	10:48	-132.389	42.938	0	585.10	0	4.3820	0	34.2290	8	27.137	0	579.642	0	33.9	4	10.8	4	-1E+10	1	-1E+10	1	-1E+10	1	-1E+10	1	-1E+10	1	-1E+10	1
4901784	108	C	06/19/2018	10:48	-132.389	42.938	0	590.30	0	4.3550	0	34.2380	8	27.148	0	584.786	0	32.6	4	10.4	4	-1E+10	1	-1E+10	1	-1E+10	1	-1E+10	1	-1E+10	1	-1E+10	1
4901784	108	C	06/19/2018	10:48	-132.389	42.938	0	595.60	0	4.3280	0	34.2450	8	27.156	0	590.029	0	31.4	4	10.0	4	-1E+10	1	-1E+10	1	-1E+10	1	-1E+10	1	-1E+10	1	-1E+10	1
4901784	108	C	06/19/2018	10:48	-132.389	42.938	0	600.00	0	4.3090	0	34.2500	8	27.162	0	594.381	0	30.7	4	9.8	4	-1E+10	1	-1E+10	1	-1E+10	1	-1E+10	1	-1E+10	1	-1E+10	1
4901784	108	C	06/19/2018	10:48	-132.389	42.938	0	604.40	0	4.2990	0	34.2530	8	27.166	0	598.734	0	30.0	4	9.6	4	-1E+10	1	-1E+10	1	-1E+10	1	-1E+10	1	-1E+10	1	-1E+10	1
4901784	108	C	06/19/2018	10:48	-132.389	42.938	0	609.60	0	4.2890	0	34.2550	8	27.168	0	603.878	0	29.1	4	9.3	4	-1E+10	1	-1E+10	1	-1E+10	1	-1E+10	1	-1E+10	1	-1E+10	1
4901784	108	C	06/19/2018	10:48	-132.389	42.938	0	615.00	0	4.2620	0	34.2630	8	27.177	0	609.219	0	28.1	4	8.9	4	-1E+10	1	-1E+10	1	-1E+10	1	-1E+10	1	-1E+10	1	-1E+10	1
4901784	108	C	06/19/2018	10:48	-132.389	42.938	0	620.30	0	4.2480	0	34.2660	8	27.181	0	614.461	0	27.4	4	8.7	4	-1E+10	1	-1E+10	1	-1E+10	1	-1E+10	1	-1E+10	1	-1E+10	1
4901784	108	C	06/19/2018	10:48	-132.389	42.938	0	625.70	0	4.2350	0	34.2700	8	27.186	0	619.803	0	26.6	4	8.4	4	-1E+10	1	-1E+10	1	-1E+10	1	-1E+10	1	-1E+10	1	-1E+10	1
4901784	108	C	06/19/2018	10:48	-132.389	42.938	0	630.20	0	4.2140	0	34.2750	8	27.192	0	624.253	0	25.9	4	8.2	4	-1E+10	1	-1E+10	1	-1E+10	1	-1E+10	1	-1E+10	1	-1E+10	1
4901784	108	C	06/19/2018	10:48	-132.389	42.938	0	634.70	0	4.2040	0	34.2780	8	27.196	0	628.704	0	25.5	4	8.1	4	-1E+10	1	-1E+10	1	-1E+10	1	-1E+10	1	-1E+10	1	-1E+10	1
4901784	108	C	06/19/2018	10:48	-132.389	42.938	0	640.10	0	4.1960	0	34.2800	8	27.198	0	634.045	0	24.9	4	7.9	4	-1E+10	1	-1E+10	1	-1E+10	1	-1E+10	1	-1E+10	1	-1E+10	1
4901784	108	C	06/19/2018	10:48	-132.389	42.938	0	645.30	0	4.1820	0	34.2840	8	27.203	0	639.188	0	23.8	4	7.6	4	-1E+10	1	-1E+10	1	-1E+10	1	-1E+10	1	-1E+10	1	-1E+10	1
4901784	108	C	06/19/2018	10:48	-132.389	42.938	0	650.10	0	4.1570	0	34.2920	8	27.212	0	643.935	0	22.9	4	7.3	4	-1E+10	1	-1E+10	1	-1E+10	1	-1E+10	1	-1E+10	1	-1E+10	1
4901784	108	C	06/19/2018	10:48	-132.389	42.938	0	654.90	0	4.1440	0	34.2960	8	27.216	0	648.682	0	22.2	4	7.0	4	-1E+10	1	-1E+10	1	-1E+10	1	-1E+10	1	-1E+10	1	-1E+10	1
4901784	108	C	06/19/2018	10:48	-132.389	42.938	0	659.80	0	4.1280	0	34.3010	8	27.222	0	653.528	0	21.5	4	6.8	4	-1E+10	1	-1E+10	1	-1E+10	1	-1E+10	1	-1E+10	1	-1E+10	1
4901784	108	C	06/19/2018	10:48	-132.389	42.938	0	664.70	0	4.1040	0	34.3080	8	27.230	0	658.373	0	20.9	4	6.6	4	-1E+10	1	-1E+10	1	-1E+10	1	-1E+10	1	-1E+10	1	-1E+10	1
4901784	108	C	06/19/2018	10:48	-132.389	42.938	0	669.70	0	4.0910	0	34.3120	8	27.235	0	663.318	0	20.6	4	6.5	4	-1E+10	1	-1E+10	1	-1E+10	1	-1E+10	1	-1E+10	1	-1E+10	1
4901784	108	C	06/19/2018	10:48	-132.389	42.938	0	674.70	0	4.0890	0	34.3120	8	27.235	0	668.262	0	20.3	4	6.4	4	-1E+10	1	-1E+10	1	-1E+10	1	-1E+10	1	-1E+10	1	-1E+10	1
4901784	108	C	06/19/2018	10:48	-132.389	42.938	0	679.90	0	4.0760	0	34.3160	8	27.239	0	673.404	0	19.8	4	6.3	4	-1E+10	1	-1E+10	1	-1E+10	1	-1E+10	1	-1E+10	1	-1E+10	1
4901784	108	C	06/19/2018	10:48	-132.389	42.938	0	685.10	0	4.0570	0	34.3210	8	27.245	0	678.546	0	19.3	4	6.1	4	-1E+10	1	-1E+10	1	-1E+10	1	-1E+10	1	-1E+10	1	-1E+10	1
4901784	108	C	06/19/2018	10:48	-132.389	42.938	0	690.40	0	4.0410	0	34.3250	8	27.250	0	683.787	0	18.9	4	6.0	4	-1E+10	1	-1E+10	1	-1E+10	1	-1E+10	1	-1E+10	1	-1E+10	1
4901784	108	C	06/19/2018	10:48	-132.389	42.938	0	695.70	0	4.0250	0	34.3290	8	27.255	0	689.027	0	18.6	4	5.9	4	-1E+10	1	-1E+10	1	-1E+10	1	-1E+10	1	-1E+10	1	-1E+10	1
4901784	108	C	06/19/2018	10:48	-132.389	42.938	0	700.10	0	4.0190	0	34.3300	8	27.257	0	693.378	0	18.3	4	5.8	4	-1E+10	1	-1E+10	1	-1E+10	1	-1E+10	1	-1E+10	1	-1E+10	1
4901784	108	C	06/19/2018	10:48	-132.389	42.938	0	704.60	0	4.0070	0	34.3330	8	27.260	0	697.827	0	17.8	4	5.6	4	-1E+10	1	-1E+10	1	-1E+10	1	-1E+10	1	-1E+10	1	-1E+10	1
4901784	108	C	06/19/2018	10:48	-132.389	42.938	0	710.00	0	3.9840	0	34.3390	8	27.267	0	703.166	0	17.4	4	5.5	4	-1E+10	1	-1E+10	1	-1E+10	1	-1E+10	1	-1E+10	1	-1E+10	1
4901784	108	C	06/19/2018	10:48	-132.389	42.938	0	715.50	0	3.9600	0	34.3450	8	27.275	0	708.604	0	17.1	4	5.4	4	-1E+10	1	-1E+10	1	-1E+10	1	-1E+10	1	-1E+10	1	-1E+10	1
4901784	108	C	06/19/2018	10:48	-132.389	42.938	0	720.10	0	3.9520	0	34.3460	8	27.276	0	713.151	0	17.0	4	5.4	4	-1E+10	1	-1E+10	1	-1E+10	1	-1E+10	1	-1E+10	1	-1E+10	1
4901784	108	C	06/19/2018	10:48	-132.389	42.938	0	724.80	0	3.9450	0	34.3470	8	27.278	0	717.798	0	17.0	4	5.4	4	-1E+10	1	-1E+10	1	-1E+10	1	-1E+10	1	-1E+10	1	-1E+10	1
4901784	108	C	06/19/2018	10:48	-132.389	42.938	0	730.40	0	3.9340	0	34.3480	8	27.280	0	723.334	0	16.7	4	5.3	4	-1E+10	1	-1E+10	1	-1E+10	1	-1E+10	1	-1E+10	1	-1E+10	1
4901784	108	C	06/19/2018	10:48	-132.389	42.938	0	735.00	0	3.9240	0	34.3500	8	27.282	0	727.882	0	16.4	4	5.2	4	-1E+10	1	-1E+10	1	-1E+10	1	-1E+10	1	-1E+10	1	-1E+10	1
4901784	108	C	06/19/2018	10:48	-132.389	42.938	0	739.60	0	3.9080	0	34.3560	8	27.289	0	732.429	0	16.0	4	5.0	4	-1E+10	1	-1E+10	1	-1E+10	1	-1E+10	1	-1E+10	1	-1E+10	1
4901784	108	C	06/19/2018	10:48	-132.389	42.938	0	745.10	0	3.8950	0	34.3600	8	27.293	0	737.866	0	15.8	4	5.0	4	-1E+10	1	-1E+10	1	-1E+10	1	-1E+10	1	-1E+10	1	-1E+10	1
4901784	108	C	06/19/2018	10:48	-132.389	42.938	0	749.80	0	3.8910	0	34.3610	8	27.295	0	742.512	0	15.6	4	4.9	4	-1E+10	1	-1E+10	1	-1E+10	1	-1E+10	1	-1E+10	1	-1E+10	1
4901784	108	C	06/19/2018	10:48	-132.389	42.938	0	754.80	0	3.8850	0	34.3640	8	27.298	0	747.454	0	15.4	4	4.8	4	-1E+10	1	-1E+10	1	-1E+10	1	-1E+10	1	-1E+10	1	-1E+10	1
4901784	108	C	06/19/2018	10:48	-132.389	42.938	0	760.00	0	3.8820	0	34.3650	8	27.299	0	752.594	0	15.0	4	4.7	4	-1E+10	1	-1E+10	1	-1E+10	1	-1E+10	1	-1E+10	1	-1E+10	1
4901784	108	C	06/19/2018	10:48	-132.389	42.938	0	764.70	0	3.8690	0	34.3700	8	27.304	0	757.240	0	14.5	4	4.6	4	-1E+10	1	-1E+10	1	-1E+10	1	-1E+10	1	-1E+10	1	-1E+10	1
4901784	108	C	06/19/2018	10:48	-132.389	42.938	0	769.60	0	3.8540	0	34.3760	8	27.310	0	762.083	0	14.2	4	4.5	4	-1E+10	1	-1E+10	1	-1E+10	1	-1E+10	1	-1E+10	1	-1E+10	1
4901784	108	C	06/19/2018	10:48	-132.389	42.938	0	774.40	0	3.8410	0	34.3800	8	27.315	0	766.828	0	13.9	4	4.4	4	-1E+10	1	-1E+10	1	-1E+10	1	-1E+10	1	-1E+10	1	-1E+10	1
4901784	108	C	06/19/2018	10:48	-132.389	42.938	0	780.10	0	3.8330	0	34.3840	8	27.319	0	772.461	0	13.5	4	4.2	4	-1E+10	1	-1E+10	1	-1E+10	1	-1E+10	1	-1E+10	1	-1E+10	1
4901784	108	C	06/19/2018	10:48	-132.389	42.938	0	785.70	0	3.8230	0	34.3950	8	27.329	0	777.996	0	13.1	4	4.1	4	-1E+10	1	-1E+10	1	-1E+10	1	-1E+10	1	-1E+10	1	-1E+10	1
4901784	108	C	06/19/2018	10:48	-132.389	42.938	0	790.70	0	3.8240	0	34.3970	8	27.330	0	782.938	0	13.0	4	4.1	4	-1E+10	1	-1E+10	1	-1E+10	1	-1E+10	1	-1E+10	1	-1E+10	1
4901784	108	C	06/19/2018	10:48	-132.389	42.938	0	795.60	0	3.8200	0	34.3980	8	27.332	0	787.780	0	12.7	4	4.0	4	-1E+10	1	-1E+10	1	-1E+10	1	-1E+10	1	-1E+10	1	-1E+10	1
4901784	108	C	06/19/2018	10:48	-132.389	42.938	0	800.60	0	3.8350	0	34.4060	8	27.336	0	792.722	0	12.3	4	3.9	4	-1E+10	1	-1E+10	1	-1E+10	1	-1E+10	1	-1E+10	1	-1E+10	1
4901784	108	C	06/19/2018	10:48	-132.389	42.938	0	804.90	0	3.8340	0	34.4090	8	27.339	0	796.971	0	12.1	4	3.8	4	-1E+10	1	-1E+10	1	-1E+10	1	-1E+10	1	-1E+10	1	-1E+10	1
4901784	108	C	06/19/2018	10:48	-132.389	42.938	0	809.20	0	3.8560	0	34.4140	8	27.341	0	801.221	0	11.7	4	3.7	4	-1E+10	1	-1E+10	1	-1E+10	1	-1E+10	1	-1E+10	1	-1E+10	1
4901784	108	C	06/19/2018	10:48	-132.389	42.938	0	814.40	0	3.8730	0	34.4250	8	27.348	0	806.359	0	11.4	4	3.6	4	-1E+10	1	-1E+10	1	-1E+10	1	-1E+10	1	-1E+10	1	-1E+10	1
4901784	108	C	06/19/2018	10:48	-132.389	42.938	0	819.60	0	3.8720	0	34.4280	8	27.350	0	811.498	0	11.2	4	3.5	4	-1E+10	1	-1E+10	1	-1E+10	1	-1E+10	1	-1E+10	1	-1E+10	1
4901784	108	C	06/19/2018	10:48	-132.389	42.938	0	824.80	0	3.8650	0	34.4360	8	27.358	0	816.636	0	10.9	4	3.5	4	-1E+10	1	-1E+10	1	-1E+10	1	-1E+10	1	-1E+10	1	-1E+10	1
4901784	108	C	06/19/2018	10:48	-132.389	42.938	0	830.20	0	3.8570	0	34.4440	8	27.365	0	821.972	0	10.8	4	3.4	4	-1E+10	1	-1E+10	1	-1E+10	1	-1E+10	1	-1E+10	1	-1E+10	1
4901784	108	C	06/19/2018	10:48	-132.389	42.938	0	835.60	0	3.8530	0	34.4480	8	27.368	0	827.308	0	10.7	4	3.4	4	-1E+10	1	-1E+10	1	-1E+10	1	-1E+10	1	-1E+10	1	-1E+10	1
4901784	108	C	06/19/2018	10:48	-132.389	42.938	0	840.10	0	3.8500	0	34.4500	8	27.370	0	831.754	0	10.6	4	3.3	4	-1E+10	1	-1E+10	1	-1E+10	1	-1E+10	1	-1E+10	1	-1E+10	1
4901784	108	C	06/19/2018	10:48	-132.389	42.938	0	844.60	0	3.8460	0	34.4550	8	27.375	0	836.201	0	10.5	4	3.3	4	-1E+10	1	-1E+10	1	-1E+10	1	-1E+10	1	-1E+10	1	-1E+10	1
4901784	108	C	06/19/2018	10:48	-132.389	42.938	0	850.00	0	3.8350	0	34.4580	8	27.378	0	841.536	0	10.5	4	3.3	4	-1E+10	1	-1E+10	1	-1E+10	1	-1E+10	1	-1E+10	1	-1E+10	1
4901784	108	C	06/19/2018	10:48	-132.389	42.938	0	855.50	0	3.8200	0	34.4610	8	27.382	0	846.970	0	10.5	4	3.3	4	-1E+10	1	-1E+10	1	-1E+10	1	-1E+10	1	-1E+10	1	-1E+10	1
4901784	108	C	06/19/2018	10:48	-132.389	42.938	0	860.20	0	3.7960	0	34.4640	8	27.387	0	851.614	0	10.5	4	3.3	4	-1E+10	1	-1E+10	1	-1E+10	1	-1E+10	1	-1E+10	1	-1E+10	1
4901784	108	C	06/19/2018	10:48	-132.389	42.938	0	864.90	0	3.7570	0	34.4660	8	27.393	0	856.257	0	10.4	4	3.3	4	-1E+10	1	-1E+10	1	-1E+10	1	-1E+10	1	-1E+10	1	-1E+10	1
4901784	108	C	06/19/2018	10:48	-132.389	42.938	0	870.30	0	3.7360	0	34.4700	8	27.398	0	861.592	0	10.4	4	3.3	4	-1E+10	1	-1E+10	1	-1E+10	1	-1E+10	1	-1E+10	1	-1E+10	1
4901784	108	C	06/19/2018	10:48	-132.389	42.938	0	875.00	0	3.7150	0	34.4750	8	27.404	0	866.235	0	10.4	4	3.3	4	-1E+10	1	-1E+10	1	-1E+10	1	-1E+10	1	-1E+10	1	-1E+10	1
4901784	108	C	06/19/2018	10:48	-132.389	42.938	0	879.70	0	3.6910	0	34.4780	8	27.409	0	870.879	0	10.4	4	3.3	4	-1E+10	1	-1E+10	1	-1E+10	1	-1E+10	1	-1E+10	1	-1E+10	1
4901784	108	C	06/19/2018	10:48	-132.389	42.938	0	885.50	0	3.6730	0	34.4820	8	27.414	0	876.608	0	10.4	4	3.3	4	-1E+10	1	-1E+10	1	-1E+10	1	-1E+10	1	-1E+10	1	-1E+10	1
4901784	108	C	06/19/2018	10:48	-132.389	42.938	0	890.90	0	3.6620	0	34.4830	8	27.416	0	881.943	0	10.5	4	3.3	4	-1E+10	1	-1E+10	1	-1E+10	1	-1E+10	1	-1E+10	1	-1E+10	1
4901784	108	C	06/19/2018	10:48	-132.389	42.938	0	895.30	0	3.6600	0	34.4840	8	27.417	0	886.289	0	10.5	4	3.3	4	-1E+10	1	-1E+10	1	-1E+10	1	-1E+10	1	-1E+10	1	-1E+10	1
4901784	108	C	06/19/2018	10:48	-132.389	42.938	0	900.20	0	3.6590	0	34.4830	8	27.416	0	891.129	0	10.5	4	3.3	4	-1E+10	1	-1E+10	1	-1E+10	1	-1E+10	1	-1E+10	1	-1E+10	1
4901784	108	C	06/19/2018	10:48	-132.389	42.938	0	904.90	0	3.6540	0	34.4860	8	27.419	0	895.772	0	10.5	4	3.3	4	-1E+10	1	-1E+10	1	-1E+10	1	-1E+10	1	-1E+10	1	-1E+10	1
4901784	108	C	06/19/2018	10:48	-132.389	42.938	0	909.70	0	3.6450	0	34.4890	8	27.422	0	900.513	0	10.6	4	3.3	4	-1E+10	1	-1E+10	1	-1E+10	1	-1E+10	1	-1E+10	1	-1E+10	1
4901784	108	C	06/19/2018	10:48	-132.389	42.938	0	914.70	0	3.6410	0	34.4900	8	27.423	0	905.452	0	10.6	4	3.3	4	-1E+10	1	-1E+10	1	-1E+10	1	-1E+10	1	-1E+10	1	-1E+10	1
4901784	108	C	06/19/2018	10:48	-132.389	42.938	0	919.70	0	3.6290	0	34.4920	8	27.426	0	910.390	0	10.7	4	3.3	4	-1E+10	1	-1E+10	1	-1E+10	1	-1E+10	1	-1E+10	1	-1E+10	1
4901784	108	C	06/19/2018	10:48	-132.389	42.938	0	924.70	0	3.6160	0	34.4950	8	27.430	0	915.329	0	10.7	4	3.4	4	-1E+10	1	-1E+10	1	-1E+10	1	-1E+10	1	-1E+10	1	-1E+10	1
4901784	108	C	06/19/2018	10:48	-132.389	42.938	0	929.70	0	3.6080	0	34.4970	8	27.432	0	920.267	0	10.8	4	3.4	4	-1E+10	1	-1E+10	1	-1E+10	1	-1E+10	1	-1E+10	1	-1E+10	1
4901784	108	C	06/19/2018	10:48	-132.389	42.938	0	934.80	0	3.5960	0	34.4990	8	27.435	0	925.304	0	10.8	4	3.4	4	-1E+10	1	-1E+10	1	-1E+10	1	-1E+10	1	-1E+10	1	-1E+10	1
4901784	108	C	06/19/2018	10:48	-132.389	42.938	0	939.90	0	3.5810	0	34.5000	8	27.437	0	930.341	0	10.9	4	3.4	4	-1E+10	1	-1E+10	1	-1E+10	1	-1E+10	1	-1E+10	1	-1E+10	1
4901784	108	C	06/19/2018	10:48	-132.389	42.938	0	945.10	0	3.5760	0	34.5010	8	27.439	0	935.477	0	10.9	4	3.4	4	-1E+10	1	-1E+10	1	-1E+10	1	-1E+10	1	-1E+10	1	-1E+10	1
4901784	108	C	06/19/2018	10:48	-132.389	42.938	0	950.30	0	3.5460	0	34.5060	8	27.446	0	940.612	0	11.1	4	3.5	4	-1E+10	1	-1E+10	1	-1E+10	1	-1E+10	1	-1E+10	1	-1E+10	1
4901784	108	C	06/19/2018	10:48	-132.389	42.938	0	955.50	0	3.5270	0	34.5080	8	27.449	0	945.747	0	11.2	4	3.5	4	-1E+10	1	-1E+10	1	-1E+10	1	-1E+10	1	-1E+10	1	-1E+10	1
4901784	108	C	06/19/2018	10:48	-132.389	42.938	0	959.90	0	3.5230	0	34.5080	8	27.450	0	950.092	0	11.2	4	3.5	4	-1E+10	1	-1E+10	1	-1E+10	1	-1E+10	1	-1E+10	1	-1E+10	1
4901784	108	C	06/19/2018	10:48	-132.389	42.938	0	964.30	0	3.5130	0	34.5100	8	27.452	0	954.437	0	11.3	4	3.5	4	-1E+10	1	-1E+10	1	-1E+10	1	-1E+10	1	-1E+10	1	-1E+10	1
4901784	108	C	06/19/2018	10:48	-132.389	42.938	0	969.80	0	3.4940	0	34.5120	8	27.456	0	959.869	0	11.5	4	3.6	4	-1E+10	1	-1E+10	1	-1E+10	1	-1E+10	1	-1E+10	1	-1E+10	1
4901784	108	C	06/19/2018	10:48	-132.389	42.938	0	975.20	0	3.4770	0	34.5140	8	27.459	0	965.201	0	11.5	4	3.6	4	-1E+10	1	-1E+10	1	-1E+10	1	-1E+10	1	-1E+10	1	-1E+10	1
4901784	108	C	06/19/2018	10:48	-132.389	42.938	0	980.50	0	3.4620	0	34.5160	8	27.462	0	970.434	0	11.6	4	3.6	4	-1E+10	1	-1E+10	1	-1E+10	1	-1E+10	1	-1E+10	1	-1E+10	1
4901784	108	C	06/19/2018	10:48	-132.389	42.938	0	984.90	0	3.4480	0	34.5190	8	27.466	0	974.779	0	11.7	4	3.6	4	-1E+10	1	-1E+10	1	-1E+10	1	-1E+10	1	-1E+10	1	-1E+10	1
4901784	108	C	06/19/2018	10:48	-132.389	42.938	0	989.30	0	3.4320	0	34.5230	8	27.471	0	979.123	0	11.7	4	3.7	4	-1E+10	1	-1E+10	1	-1E+10	1	-1E+10	1	-1E+10	1	-1E+10	1
4901784	108	C	06/19/2018	10:48	-132.389	42.938	0	994.70	0	3.4190	0	34.5270	8	27.475	0	984.455	0	11.8	4	3.7	4	-1E+10	1	-1E+10	1	-1E+10	1	-1E+10	1	-1E+10	1	-1E+10	1
4901784	108	C	06/19/2018	10:48	-132.389	42.938	0	1000.10	0	3.4050	0	34.5300	8	27.479	0	989.787	0	11.9	4	3.7	4	-1E+10	1	-1E+10	1	-1E+10	1	-1E+10	1	-1E+10	1	-1E+10	1
4901784	108	C	06/19/2018	10:48	-132.389	42.938	0	1005.50	0	3.3990	0	34.5310	8	27.480	0	995.118	0	12.0	4	3.7	4	-1E+10	1	-1E+10	1	-1E+10	1	-1E+10	1	-1E+10	1	-1E+10	1
4901784	108	C	06/19/2018	10:48	-132.389	42.938	0	1010.00	0	3.3910	0	34.5330	8	27.483	0	999.561	0	12.0	4	3.8	4	-1E+10	1	-1E+10	1	-1E+10	1	-1E+10	1	-1E+10	1	-1E+10	1
4901784	108	C	06/19/2018	10:48	-132.389	42.938	0	1014.50	0	3.3790	0	34.5350	8	27.485	0	1004.004	0	12.1	4	3.8	4	-1E+10	1	-1E+10	1	-1E+10	1	-1E+10	1	-1E+10	1	-1E+10	1
4901784	108	C	06/19/2018	10:48	-132.389	42.938	0	1020.00	0	3.3640	0	34.5400	8	27.491	0	1009.434	0	12.1	4	3.8	4	-1E+10	1	-1E+10	1	-1E+10	1	-1E+10	1	-1E+10	1	-1E+10	1
4901784	108	C	06/19/2018	10:48	-132.389	42.938	0	1025.40	0	3.3580	0	34.5410	8	27.492	0	1014.765	0	12.2	4	3.8	4	-1E+10	1	-1E+10	1	-1E+10	1	-1E+10	1	-1E+10	1	-1E+10	1
4901784	108	C	06/19/2018	10:48	-132.389	42.938	0	1029.90	0	3.3440	0	34.5440	8	27.496	0	1019.207	0	12.3	4	3.8	4	-1E+10	1	-1E+10	1	-1E+10	1	-1E+10	1	-1E+10	1	-1E+10	1
4901784	108	C	06/19/2018	10:48	-132.389	42.938	0	1034.50	0	3.3340	0	34.5460	8	27.498	0	1023.748	0	12.4	4	3.9	4	-1E+10	1	-1E+10	1	-1E+10	1	-1E+10	1	-1E+10	1	-1E+10	1
4901784	108	C	06/19/2018	10:48	-132.389	42.938	0	1040.10	0	3.3240	0	34.5480	8	27.501	0	1029.276	0	12.4	4	3.9	4	-1E+10	1	-1E+10	1	-1E+10	1	-1E+10	1	-1E+10	1	-1E+10	1
4901784	108	C	06/19/2018	10:48	-132.389	42.938	0	1045.60	0	3.3170	0	34.5490	8	27.503	0	1034.705	0	12.5	4	3.9	4	-1E+10	1	-1E+10	1	-1E+10	1	-1E+10	1	-1E+10	1	-1E+10	1
4901784	108	C	06/19/2018	10:48	-132.389	42.938	0	1050.20	0	3.3100	0	34.5510	8	27.505	0	1039.246	0	12.6	4	3.9	4	-1E+10	1	-1E+10	1	-1E+10	1	-1E+10	1	-1E+10	1	-1E+10	1
4901784	108	C	06/19/2018	10:48	-132.389	42.938	0	1054.80	0	3.3030	0	34.5520	8	27.506	0	1043.787	0	12.7	4	3.9	4	-1E+10	1	-1E+10	1	-1E+10	1	-1E+10	1	-1E+10	1	-1E+10	1
4901784	108	C	06/19/2018	10:48	-132.389	42.938	0	1060.00	0	3.2980	0	34.5530	8	27.508	0	1048.919	0	12.8	4	4.0	4	-1E+10	1	-1E+10	1	-1E+10	1	-1E+10	1	-1E+10	1	-1E+10	1
4901784	108	C	06/19/2018	10:48	-132.389	42.938	0	1065.00	0	3.2840	0	34.5540	8	27.510	0	1053.854	0	12.9	4	4.0	4	-1E+10	1	-1E+10	1	-1E+10	1	-1E+10	1	-1E+10	1	-1E+10	1
4901784	108	C	06/19/2018	10:48	-132.389	42.938	0	1070.60	0	3.2590	0	34.5580	8	27.515	0	1059.382	0	13.2	4	4.1	4	-1E+10	1	-1E+10	1	-1E+10	1	-1E+10	1	-1E+10	1	-1E+10	1
4901784	108	C	06/19/2018	10:48	-132.389	42.938	0	1075.40	0	3.2440	0	34.5600	8	27.518	0	1064.119	0	13.4	4	4.2	4	-1E+10	1	-1E+10	1	-1E+10	1	-1E+10	1	-1E+10	1	-1E+10	1
4901784	108	C	06/19/2018	10:48	-132.389	42.938	0	1080.30	0	3.2290	0	34.5630	8	27.522	0	1068.955	0	13.6	4	4.2	4	-1E+10	1	-1E+10	1	-1E+10	1	-1E+10	1	-1E+10	1	-1E+10	1
4901784	108	C	06/19/2018	10:48	-132.389	42.938	0	1085.20	0	3.2180	0	34.5660	8	27.526	0	1073.791	0	13.9	4	4.3	4	-1E+10	1	-1E+10	1	-1E+10	1	-1E+10	1	-1E+10	1	-1E+10	1
4901784	108	C	06/19/2018	10:48	-132.389	42.938	0	1090.00	0	3.2140	0	34.5660	8	27.526	0	1078.529	0	13.9	4	4.3	4	-1E+10	1	-1E+10	1	-1E+10	1	-1E+10	1	-1E+10	1	-1E+10	1
4901784	108	C	06/19/2018	10:48	-132.389	42.938	0	1094.90	0	3.1970	0	34.5680	8	27.529	0	1083.364	0	14.0	4	4.3	4	-1E+10	1	-1E+10	1	-1E+10	1	-1E+10	1	-1E+10	1	-1E+10	1
4901784	108	C	06/19/2018	10:48	-132.389	42.938	0	1099.90	0	3.1850	0	34.5690	8	27.531	0	1088.299	0	14.2	4	4.4	4	-1E+10	1	-1E+10	1	-1E+10	1	-1E+10	1	-1E+10	1	-1E+10	1
4901784	108	C	06/19/2018	10:48	-132.389	42.938	0	1105.10	0	3.1780	0	34.5710	8	27.533	0	1093.430	0	14.5	4	4.5	4	-1E+10	1	-1E+10	1	-1E+10	1	-1E+10	1	-1E+10	1	-1E+10	1
4901784	108	C	06/19/2018	10:48	-132.389	42.938	0	1110.10	0	3.1820	0	34.5740	8	27.536	0	1098.364	0	14.8	4	4.6	4	-1E+10	1	-1E+10	1	-1E+10	1	-1E+10	1	-1E+10	1	-1E+10	1
4901784	108	C	06/19/2018	10:48	-132.389	42.938	0	1115.20	0	3.1750	0	34.5760	8	27.538	0	1103.397	0	14.8	4	4.6	4	-1E+10	1	-1E+10	1	-1E+10	1	-1E+10	1	-1E+10	1	-1E+10	1
4901784	108	C	06/19/2018	10:48	-132.389	42.938	0	1119.80	0	3.1710	0	34.5760	8	27.538	0	1107.936	0	14.9	4	4.6	4	-1E+10	1	-1E+10	1	-1E+10	1	-1E+10	1	-1E+10	1	-1E+10	1
4901784	108	C	06/19/2018	10:48	-132.389	42.938	0	1124.40	0	3.1600	0	34.5770	8	27.540	0	1112.475	0	14.9	4	4.6	4	-1E+10	1	-1E+10	1	-1E+10	1	-1E+10	1	-1E+10	1	-1E+10	1
4901784	108	C	06/19/2018	10:48	-132.389	42.938	0	1130.00	0	3.1470	0	34.5780	8	27.542	0	1118.001	0	15.0	4	4.6	4	-1E+10	1	-1E+10	1	-1E+10	1	-1E+10	1	-1E+10	1	-1E+10	1
4901784	108	C	06/19/2018	10:48	-132.389	42.938	0	1135.60	0	3.1300	0	34.5800	8	27.545	0	1123.527	0	15.1	4	4.7	4	-1E+10	1	-1E+10	1	-1E+10	1	-1E+10	1	-1E+10	1	-1E+10	1
4901784	108	C	06/19/2018	10:48	-132.389	42.938	0	1140.20	0	3.1150	0	34.5820	8	27.548	0	1128.065	0	15.2	4	4.7	4	-1E+10	1	-1E+10	1	-1E+10	1	-1E+10	1	-1E+10	1	-1E+10	1
4901784	108	C	06/19/2018	10:48	-132.389	42.938	0	1144.90	0	3.1080	0	34.5830	8	27.550	0	1132.703	0	15.3	4	4.8	4	-1E+10	1	-1E+10	1	-1E+10	1	-1E+10	1	-1E+10	1	-1E+10	1
4901784	108	C	06/19/2018	10:48	-132.389	42.938	0	1150.60	0	3.1040	0	34.5840	8	27.551	0	1138.327	0	15.5	4	4.8	4	-1E+10	1	-1E+10	1	-1E+10	1	-1E+10	1	-1E+10	1	-1E+10	1
4901784	108	C	06/19/2018	10:48	-132.389	42.938	0	1155.20	0	3.0950	0	34.5860	8	27.553	0	1142.865	0	15.6	4	4.8	4	-1E+10	1	-1E+10	1	-1E+10	1	-1E+10	1	-1E+10	1	-1E+10	1
4901784	108	C	06/19/2018	10:48	-132.389	42.938	0	1159.90	0	3.0860	0	34.5870	8	27.555	0	1147.502	0	15.7	4	4.9	4	-1E+10	1	-1E+10	1	-1E+10	1	-1E+10	1	-1E+10	1	-1E+10	1
4901784	108	C	06/19/2018	10:48	-132.389	42.938	0	1165.60	0	3.0760	0	34.5880	8	27.557	0	1153.125	0	15.8	4	4.9	4	-1E+10	1	-1E+10	1	-1E+10	1	-1E+10	1	-1E+10	1	-1E+10	1
4901784	108	C	06/19/2018	10:48	-132.389	42.938	0	1170.30	0	3.0740	0	34.5890	8	27.558	0	1157.762	0	15.9	4	4.9	4	-1E+10	1	-1E+10	1	-1E+10	1	-1E+10	1	-1E+10	1	-1E+10	1
4901784	108	C	06/19/2018	10:48	-132.389	42.938	0	1175.10	0	3.0670	0	34.5900	8	27.559	0	1162.498	0	16.0	4	4.9	4	-1E+10	1	-1E+10	1	-1E+10	1	-1E+10	1	-1E+10	1	-1E+10	1
4901784	108	C	06/19/2018	10:48	-132.389	42.938	0	1179.80	0	3.0570	0	34.5900	8	27.560	0	1167.134	0	16.1	4	5.0	4	-1E+10	1	-1E+10	1	-1E+10	1	-1E+10	1	-1E+10	1	-1E+10	1
4901784	108	C	06/19/2018	10:48	-132.389	42.938	0	1184.50	0	3.0460	0	34.5920	8	27.563	0	1171.771	0	16.2	4	5.0	4	-1E+10	1	-1E+10	1	-1E+10	1	-1E+10	1	-1E+10	1	-1E+10	1
4901784	108	C	06/19/2018	10:48	-132.389	42.938	0	1190.20	0	3.0320	0	34.5940	8	27.566	0	1177.393	0	16.3	4	5.0	4	-1E+10	1	-1E+10	1	-1E+10	1	-1E+10	1	-1E+10	1	-1E+10	1
4901784	108	C	06/19/2018	10:48	-132.389	42.938	0	1194.90	0	3.0290	0	34.5940	8	27.566	0	1182.030	0	16.3	4	5.0	4	-1E+10	1	-1E+10	1	-1E+10	1	-1E+10	1	-1E+10	1	-1E+10	1
4901784	108	C	06/19/2018	10:48	-132.389	42.938	0	1199.70	0	3.0230	0	34.5950	8	27.567	0	1186.764	0	16.4	4	5.1	4	-1E+10	1	-1E+10	1	-1E+10	1	-1E+10	1	-1E+10	1	-1E+10	1
4901784	108	C	06/19/2018	10:48	-132.389	42.938	0	1205.30	0	3.0130	0	34.5960	8	27.569	0	1192.288	0	16.5	4	5.1	4	-1E+10	1	-1E+10	1	-1E+10	1	-1E+10	1	-1E+10	1	-1E+10	1
4901784	108	C	06/19/2018	10:48	-132.389	42.938	0	1210.20	0	3.0020	0	34.5970	8	27.571	0	1197.121	0	16.6	4	5.1	4	-1E+10	1	-1E+10	1	-1E+10	1	-1E+10	1	-1E+10	1	-1E+10	1
4901784	108	C	06/19/2018	10:48	-132.389	42.938	0	1215.00	0	2.9890	0	34.5980	8	27.573	0	1201.856	0	16.8	4	5.2	4	-1E+10	1	-1E+10	1	-1E+10	1	-1E+10	1	-1E+10	1	-1E+10	1
4901784	108	C	06/19/2018	10:48	-132.389	42.938	0	1219.90	0	2.9740	0	34.6000	8	27.576	0	1206.689	0	17.1	4	5.3	4	-1E+10	1	-1E+10	1	-1E+10	1	-1E+10	1	-1E+10	1	-1E+10	1
4901784	108	C	06/19/2018	10:48	-132.389	42.938	0	1224.90	0	2.9600	0	34.6020	8	27.579	0	1211.620	0	17.3	4	5.3	4	-1E+10	1	-1E+10	1	-1E+10	1	-1E+10	1	-1E+10	1	-1E+10	1
4901784	108	C	06/19/2018	10:48	-132.389	42.938	0	1229.80	0	2.9430	0	34.6040	8	27.582	0	1216.453	0	17.5	4	5.4	4	-1E+10	1	-1E+10	1	-1E+10	1	-1E+10	1	-1E+10	1	-1E+10	1
4901784	108	C	06/19/2018	10:48	-132.389	42.938	0	1234.80	0	2.9290	0	34.6050	8	27.584	0	1221.384	0	17.6	4	5.4	4	-1E+10	1	-1E+10	1	-1E+10	1	-1E+10	1	-1E+10	1	-1E+10	1
4901784	108	C	06/19/2018	10:48	-132.389	42.938	0	1239.80	0	2.9130	0	34.6070	8	27.587	0	1226.315	0	17.9	4	5.5	4	-1E+10	1	-1E+10	1	-1E+10	1	-1E+10	1	-1E+10	1	-1E+10	1
4901784	108	C	06/19/2018	10:48	-132.389	42.938	0	1244.50	0	2.9100	0	34.6090	8	27.589	0	1230.950	0	18.1	4	5.6	4	-1E+10	1	-1E+10	1	-1E+10	1	-1E+10	1	-1E+10	1	-1E+10	1
4901784	108	C	06/19/2018	10:48	-132.389	42.938	0	1250.10	0	2.9030	0	34.6100	8	27.590	0	1236.473	0	18.3	4	5.6	4	-1E+10	1	-1E+10	1	-1E+10	1	-1E+10	1	-1E+10	1	-1E+10	1
4901784	108	C	06/19/2018	10:48	-132.389	42.938	0	1255.60	0	2.8960	0	34.6120	8	27.593	0	1241.897	0	18.4	4	5.7	4	-1E+10	1	-1E+10	1	-1E+10	1	-1E+10	1	-1E+10	1	-1E+10	1
4901784	108	C	06/19/2018	10:48	-132.389	42.938	0	1260.20	0	2.8920	0	34.6120	8	27.593	0	1246.433	0	18.4	4	5.7	4	-1E+10	1	-1E+10	1	-1E+10	1	-1E+10	1	-1E+10	1	-1E+10	1
4901784	108	C	06/19/2018	10:48	-132.389	42.938	0	1264.80	0	2.8840	0	34.6110	8	27.593	0	1250.969	0	18.3	4	5.6	4	-1E+10	1	-1E+10	1	-1E+10	1	-1E+10	1	-1E+10	1	-1E+10	1
4901784	108	C	06/19/2018	10:48	-132.389	42.938	0	1270.20	0	2.8690	0	34.6120	8	27.595	0	1256.294	0	18.4	4	5.7	4	-1E+10	1	-1E+10	1	-1E+10	1	-1E+10	1	-1E+10	1	-1E+10	1
4901784	108	C	06/19/2018	10:48	-132.389	42.938	0	1275.60	0	2.8650	0	34.6130	8	27.596	0	1261.618	0	18.6	4	5.7	4	-1E+10	1	-1E+10	1	-1E+10	1	-1E+10	1	-1E+10	1	-1E+10	1
4901784	108	C	06/19/2018	10:48	-132.389	42.938	0	1280.50	0	2.8500	0	34.6130	8	27.598	0	1266.450	0	18.5	4	5.7	4	-1E+10	1	-1E+10	1	-1E+10	1	-1E+10	1	-1E+10	1	-1E+10	1
4901784	108	C	06/19/2018	10:48	-132.389	42.938	0	1285.40	0	2.8440	0	34.6140	8	27.599	0	1271.282	0	18.6	4	5.7	4	-1E+10	1	-1E+10	1	-1E+10	1	-1E+10	1	-1E+10	1	-1E+10	1
4901784	108	C	06/19/2018	10:48	-132.389	42.938	0	1290.30	0	2.8250	0	34.6140	8	27.601	0	1276.113	0	18.4	4	5.7	4	-1E+10	1	-1E+10	1	-1E+10	1	-1E+10	1	-1E+10	1	-1E+10	1
4901784	108	C	06/19/2018	10:48	-132.389	42.938	0	1295.20	0	2.8160	0	34.6140	8	27.602	0	1280.944	0	18.6	4	5.7	4	-1E+10	1	-1E+10	1	-1E+10	1	-1E+10	1	-1E+10	1	-1E+10	1
4901784	108	C	06/19/2018	10:48	-132.389	42.938	0	1300.10	0	2.8100	0	34.6150	8	27.603	0	1285.775	0	18.8	4	5.8	4	-1E+10	1	-1E+10	1	-1E+10	1	-1E+10	1	-1E+10	1	-1E+10	1
4901784	108	C	06/19/2018	10:48	-132.389	42.938	0	1305.10	0	2.8040	0	34.6170	8	27.605	0	1290.705	0	19.2	4	5.9	4	-1E+10	1	-1E+10	1	-1E+10	1	-1E+10	1	-1E+10	1	-1E+10	1
4901784	108	C	06/19/2018	10:48	-132.389	42.938	0	1310.00	0	2.7940	0	34.6200	8	27.608	0	1295.536	0	19.5	4	6.0	4	-1E+10	1	-1E+10	1	-1E+10	1	-1E+10	1	-1E+10	1	-1E+10	1
4901784	108	C	06/19/2018	10:48	-132.389	42.938	0	1315.00	0	2.7790	0	34.6210	8	27.611	0	1300.465	0	19.6	4	6.0	4	-1E+10	1	-1E+10	1	-1E+10	1	-1E+10	1	-1E+10	1	-1E+10	1
4901784	108	C	06/19/2018	10:48	-132.389	42.938	0	1320.00	0	2.7680	0	34.6220	8	27.612	0	1305.394	0	19.9	4	6.1	4	-1E+10	1	-1E+10	1	-1E+10	1	-1E+10	1	-1E+10	1	-1E+10	1
4901784	108	C	06/19/2018	10:48	-132.389	42.938	0	1325.00	0	2.7560	0	34.6240	8	27.615	0	1310.323	0	20.1	4	6.2	4	-1E+10	1	-1E+10	1	-1E+10	1	-1E+10	1	-1E+10	1	-1E+10	1
4901784	108	C	06/19/2018	10:48	-132.389	42.938	0	1330.10	0	2.7510	0	34.6240	8	27.616	0	1315.351	0	20.2	4	6.2	4	-1E+10	1	-1E+10	1	-1E+10	1	-1E+10	1	-1E+10	1	-1E+10	1
4901784	108	C	06/19/2018	10:48	-132.389	42.938	0	1335.10	0	2.7470	0	34.6260	8	27.617	0	1320.280	0	20.4	4	6.3	4	-1E+10	1	-1E+10	1	-1E+10	1	-1E+10	1	-1E+10	1	-1E+10	1
4901784	108	C	06/19/2018	10:48	-132.389	42.938	0	1340.20	0	2.7410	0	34.6260	8	27.618	0	1325.307	0	20.8	4	6.4	4	-1E+10	1	-1E+10	1	-1E+10	1	-1E+10	1	-1E+10	1	-1E+10	1
4901784	108	C	06/19/2018	10:48	-132.389	42.938	0	1345.30	0	2.7460	0	34.6290	8	27.620	0	1330.335	0	21.3	4	6.6	4	-1E+10	1	-1E+10	1	-1E+10	1	-1E+10	1	-1E+10	1	-1E+10	1
4901784	108	C	06/19/2018	10:48	-132.389	42.938	0	1350.50	0	2.7360	0	34.6310	8	27.623	0	1335.460	0	21.6	4	6.6	4	-1E+10	1	-1E+10	1	-1E+10	1	-1E+10	1	-1E+10	1	-1E+10	1
4901784	108	C	06/19/2018	10:48	-132.389	42.938	0	1355.60	0	2.7280	0	34.6320	8	27.624	0	1340.487	0	21.7	4	6.7	4	-1E+10	1	-1E+10	1	-1E+10	1	-1E+10	1	-1E+10	1	-1E+10	1
4901784	108	C	06/19/2018	10:48	-132.389	42.938	0	1359.90	0	2.7240	0	34.6320	8	27.624	0	1344.726	0	21.8	4	6.7	4	-1E+10	1	-1E+10	1	-1E+10	1	-1E+10	1	-1E+10	1	-1E+10	1
4901784	108	C	06/19/2018	10:48	-132.389	42.938	0	1364.30	0	2.7130	0	34.6330	8	27.626	0	1349.062	0	22.0	4	6.7	4	-1E+10	1	-1E+10	1	-1E+10	1	-1E+10	1	-1E+10	1	-1E+10	1
4901784	108	C	06/19/2018	10:48	-132.389	42.938	0	1369.40	0	2.7020	0	34.6330	8	27.627	0	1354.089	0	22.1	4	6.8	4	-1E+10	1	-1E+10	1	-1E+10	1	-1E+10	1	-1E+10	1	-1E+10	1
4901784	108	C	06/19/2018	10:48	-132.389	42.938	0	1374.70	0	2.6960	0	34.6350	8	27.629	0	1359.313	0	22.4	4	6.9	4	-1E+10	1	-1E+10	1	-1E+10	1	-1E+10	1	-1E+10	1	-1E+10	1
4901784	108	C	06/19/2018	10:48	-132.389	42.938	0	1380.00	0	2.6880	0	34.6360	8	27.631	0	1364.536	0	22.6	4	6.9	4	-1E+10	1	-1E+10	1	-1E+10	1	-1E+10	1	-1E+10	1	-1E+10	1
4901784	108	C	06/19/2018	10:48	-132.389	42.938	0	1385.30	0	2.6780	0	34.6370	8	27.633	0	1369.760	0	22.8	4	7.0	4	-1E+10	1	-1E+10	1	-1E+10	1	-1E+10	1	-1E+10	1	-1E+10	1
4901784	108	C	06/19/2018	10:48	-132.389	42.938	0	1390.60	0	2.6730	0	34.6380	8	27.634	0	1374.983	0	23.0	4	7.1	4	-1E+10	1	-1E+10	1	-1E+10	1	-1E+10	1	-1E+10	1	-1E+10	1
4901784	108	C	06/19/2018	10:48	-132.389	42.938	0	1395.10	0	2.6690	0	34.6380	8	27.634	0	1379.418	0	23.2	4	7.1	4	-1E+10	1	-1E+10	1	-1E+10	1	-1E+10	1	-1E+10	1	-1E+10	1
4901784	108	C	06/19/2018	10:48	-132.389	42.938	0	1399.70	0	2.6610	0	34.6400	8	27.637	0	1383.951	0	23.6	4	7.2	4	-1E+10	1	-1E+10	1	-1E+10	1	-1E+10	1	-1E+10	1	-1E+10	1
4901784	108	C	06/19/2018	10:48	-132.389	42.938	0	1405.20	0	2.6490	0	34.6410	8	27.638	0	1389.371	0	23.8	4	7.3	4	-1E+10	1	-1E+10	1	-1E+10	1	-1E+10	1	-1E+10	1	-1E+10	1
4901784	108	C	06/19/2018	10:48	-132.389	42.938	0	1409.80	0	2.6430	0	34.6420	8	27.640	0	1393.904	0	24.0	4	7.4	4	-1E+10	1	-1E+10	1	-1E+10	1	-1E+10	1	-1E+10	1	-1E+10	1
4901784	108	C	06/19/2018	10:48	-132.389	42.938	0	1414.20	0	2.6300	0	34.6430	8	27.642	0	1398.240	0	24.2	4	7.4	4	-1E+10	1	-1E+10	1	-1E+10	1	-1E+10	1	-1E+10	1	-1E+10	1
4901784	108	C	06/19/2018	10:48	-132.389	42.938	0	1419.60	0	2.6160	0	34.6430	8	27.643	0	1403.561	0	24.4	4	7.5	4	-1E+10	1	-1E+10	1	-1E+10	1	-1E+10	1	-1E+10	1	-1E+10	1
4901784	108	C	06/19/2018	10:48	-132.389	42.938	0	1424.40	0	2.6070	0	34.6450	8	27.645	0	1408.291	0	24.7	4	7.6	4	-1E+10	1	-1E+10	1	-1E+10	1	-1E+10	1	-1E+10	1	-1E+10	1
4901784	108	C	06/19/2018	10:48	-132.389	42.938	0	1430.00	0	2.5980	0	34.6460	8	27.647	0	1413.809	0	25.0	4	7.7	4	-1E+10	1	-1E+10	1	-1E+10	1	-1E+10	1	-1E+10	1	-1E+10	1
4901784	108	C	06/19/2018	10:48	-132.389	42.938	0	1435.70	0	2.5920	0	34.6470	8	27.648	0	1419.425	0	25.4	4	7.8	4	-1E+10	1	-1E+10	1	-1E+10	1	-1E+10	1	-1E+10	1	-1E+10	1
4901784	108	C	06/19/2018	10:48	-132.389	42.938	0	1440.60	0	2.5810	0	34.6480	8	27.650	0	1424.253	0	25.7	4	7.9	4	-1E+10	1	-1E+10	1	-1E+10	1	-1E+10	1	-1E+10	1	-1E+10	1
4901784	108	C	06/19/2018	10:48	-132.389	42.938	0	1445.50	0	2.5740	0	34.6500	8	27.652	0	1429.081	0	25.9	4	7.9	4	-1E+10	1	-1E+10	1	-1E+10	1	-1E+10	1	-1E+10	1	-1E+10	1
4901784	108	C	06/19/2018	10:48	-132.389	42.938	0	1450.40	0	2.5640	0	34.6510	8	27.654	0	1433.908	0	26.2	4	8.0	4	-1E+10	1	-1E+10	1	-1E+10	1	-1E+10	1	-1E+10	1	-1E+10	1
4901784	108	C	06/19/2018	10:48	-132.389	42.938	0	1455.40	0	2.5570	0	34.6510	8	27.655	0	1438.835	0	26.4	4	8.1	4	-1E+10	1	-1E+10	1	-1E+10	1	-1E+10	1	-1E+10	1	-1E+10	1
4901784	108	C	06/19/2018	10:48	-132.389	42.938	0	1460.50	0	2.5480	0	34.6520	8	27.656	0	1443.859	0	26.7	4	8.2	4	-1E+10	1	-1E+10	1	-1E+10	1	-1E+10	1	-1E+10	1	-1E+10	1
4901784	108	C	06/19/2018	10:48	-132.389	42.938	0	1465.60	0	2.5440	0	34.6530	8	27.657	0	1448.883	0	27.0	4	8.2	4	-1E+10	1	-1E+10	1	-1E+10	1	-1E+10	1	-1E+10	1	-1E+10	1
4901784	108	C	06/19/2018	10:48	-132.389	42.938	0	1470.70	0	2.5360	0	34.6540	8	27.659	0	1453.908	0	27.3	4	8.3	4	-1E+10	1	-1E+10	1	-1E+10	1	-1E+10	1	-1E+10	1	-1E+10	1
4901784	108	C	06/19/2018	10:48	-132.389	42.938	0	1475.00	0	2.5270	0	34.6550	8	27.660	0	1458.144	0	27.5	4	8.4	4	-1E+10	1	-1E+10	1	-1E+10	1	-1E+10	1	-1E+10	1	-1E+10	1
4901784	108	C	06/19/2018	10:48	-132.389	42.938	0	1479.20	0	2.5220	0	34.6560	8	27.662	0	1462.281	0	27.6	4	8.4	4	-1E+10	1	-1E+10	1	-1E+10	1	-1E+10	1	-1E+10	1	-1E+10	1
4901784	108	C	06/19/2018	10:48	-132.389	42.938	0	1484.40	0	2.5180	0	34.6560	8	27.662	0	1467.404	0	27.9	4	8.5	4	-1E+10	1	-1E+10	1	-1E+10	1	-1E+10	1	-1E+10	1	-1E+10	1
4901784	108	C	06/19/2018	10:48	-132.389	42.938	0	1489.50	0	2.5120	0	34.6570	8	27.663	0	1472.428	0	28.1	4	8.6	4	-1E+10	1	-1E+10	1	-1E+10	1	-1E+10	1	-1E+10	1	-1E+10	1
4901784	108	C	06/19/2018	10:48	-132.389	42.938	0	1494.70	0	2.5000	0	34.6580	8	27.665	0	1477.550	0	28.6	4	8.7	4	-1E+10	1	-1E+10	1	-1E+10	1	-1E+10	1	-1E+10	1	-1E+10	1
4901784	108	C	06/19/2018	10:48	-132.389	42.938	0	1499.90	0	2.4900	0	34.6600	8	27.668	0	1482.672	0	29.1	4	8.9	4	-1E+10	1	-1E+10	1	-1E+10	1	-1E+10	1	-1E+10	1	-1E+10	1
4901784	108	C	06/19/2018	10:48	-132.389	42.938	0	1505.00	0	2.4790	0	34.6610	8	27.669	0	1487.695	0	29.6	4	9.0	4	-1E+10	1	-1E+10	1	-1E+10	1	-1E+10	1	-1E+10	1	-1E+10	1
4901784	108	C	06/19/2018	10:48	-132.389	42.938	0	1510.10	0	2.4790	0	34.6630	8	27.671	0	1492.719	0	30.0	4	9.2	4	-1E+10	1	-1E+10	1	-1E+10	1	-1E+10	1	-1E+10	1	-1E+10	1
4901784	108	C	06/19/2018	10:48	-132.389	42.938	0	1515.20	0	2.4640	0	34.6640	8	27.673	0	1497.742	0	30.2	4	9.2	4	-1E+10	1	-1E+10	1	-1E+10	1	-1E+10	1	-1E+10	1	-1E+10	1
4901784	108	C	06/19/2018	10:48	-132.389	42.938	0	1520.40	0	2.4560	0	34.6650	8	27.675	0	1502.864	0	30.4	4	9.3	4	-1E+10	1	-1E+10	1	-1E+10	1	-1E+10	1	-1E+10	1	-1E+10	1
4901784	108	C	06/19/2018	10:48	-132.389	42.938	0	1524.80	0	2.4520	0	34.6660	8	27.676	0	1507.197	0	30.7	4	9.4	4	-1E+10	1	-1E+10	1	-1E+10	1	-1E+10	1	-1E+10	1	-1E+10	1
4901784	108	C	06/19/2018	10:48	-132.389	42.938	0	1529.30	0	2.4460	0	34.6660	8	27.676	0	1511.629	0	30.9	4	9.4	4	-1E+10	1	-1E+10	1	-1E+10	1	-1E+10	1	-1E+10	1	-1E+10	1
4901784	108	C	06/19/2018	10:48	-132.389	42.938	0	1534.80	0	2.4320	0	34.6680	8	27.679	0	1517.046	0	31.3	4	9.5	4	-1E+10	1	-1E+10	1	-1E+10	1	-1E+10	1	-1E+10	1	-1E+10	1
4901784	108	C	06/19/2018	10:48	-132.389	42.938	0	1540.20	0	2.4270	0	34.6680	8	27.680	0	1522.364	0	31.5	4	9.6	4	-1E+10	1	-1E+10	1	-1E+10	1	-1E+10	1	-1E+10	1	-1E+10	1
4901784	108	C	06/19/2018	10:48	-132.389	42.938	0	1545.20	0	2.4260	0	34.6690	8	27.680	0	1527.288	0	31.8	4	9.7	4	-1E+10	1	-1E+10	1	-1E+10	1	-1E+10	1	-1E+10	1	-1E+10	1
4901784	108	C	06/19/2018	10:48	-132.389	42.938	0	1549.40	0	2.4210	0	34.6700	8	27.682	0	1531.424	0	32.2	4	9.8	4	-1E+10	1	-1E+10	1	-1E+10	1	-1E+10	1	-1E+10	1	-1E+10	1
4901784	108	C	06/19/2018	10:48	-132.389	42.938	0	1555.00	0	2.4100	0	34.6720	8	27.684	0	1536.939	0	32.6	4	9.9	4	-1E+10	1	-1E+10	1	-1E+10	1	-1E+10	1	-1E+10	1	-1E+10	1
4901784	108	C	06/19/2018	10:48	-132.389	42.938	0	1560.60	0	2.4080	0	34.6720	8	27.684	0	1542.453	0	32.9	4	10.0	4	-1E+10	1	-1E+10	1	-1E+10	1	-1E+10	1	-1E+10	1	-1E+10	1
4901784	108	C	06/19/2018	10:48	-132.389	42.938	0	1565.50	0	2.4050	0	34.6730	8	27.685	0	1547.279	0	33.2	4	10.1	4	-1E+10	1	-1E+10	1	-1E+10	1	-1E+10	1	-1E+10	1	-1E+10	1
4901784	108	C	06/19/2018	10:48	-132.389	42.938	0	1570.30	0	2.4000	0	34.6740	8	27.687	0	1552.005	0	33.4	4	10.2	4	-1E+10	1	-1E+10	1	-1E+10	1	-1E+10	1	-1E+10	1	-1E+10	1
4901784	108	C	06/19/2018	10:48	-132.389	42.938	0	1575.20	0	2.3940	0	34.6750	8	27.688	0	1556.830	0	33.5	4	10.2	4	-1E+10	1	-1E+10	1	-1E+10	1	-1E+10	1	-1E+10	1	-1E+10	1
4901784	108	C	06/19/2018	10:48	-132.389	42.938	0	1580.10	0	2.3920	0	34.6750	8	27.688	0	1561.655	0	33.6	4	10.2	4	-1E+10	1	-1E+10	1	-1E+10	1	-1E+10	1	-1E+10	1	-1E+10	1
4901784	108	C	06/19/2018	10:48	-132.389	42.938	0	1585.10	0	2.3920	0	34.6750	8	27.688	0	1566.578	0	33.8	4	10.3	4	-1E+10	1	-1E+10	1	-1E+10	1	-1E+10	1	-1E+10	1	-1E+10	1
4901784	108	C	06/19/2018	10:48	-132.389	42.938	0	1590.10	0	2.3810	0	34.6760	8	27.690	0	1571.501	0	34.2	4	10.4	4	-1E+10	1	-1E+10	1	-1E+10	1	-1E+10	1	-1E+10	1	-1E+10	1
4901784	108	C	06/19/2018	10:48	-132.389	42.938	0	1595.00	0	2.3740	0	34.6770	8	27.691	0	1576.325	0	34.4	4	10.5	4	-1E+10	1	-1E+10	1	-1E+10	1	-1E+10	1	-1E+10	1	-1E+10	1
4901784	108	C	06/19/2018	10:48	-132.389	42.938	0	1600.00	0	2.3710	0	34.6770	8	27.692	0	1581.248	0	34.7	4	10.6	4	-1E+10	1	-1E+10	1	-1E+10	1	-1E+10	1	-1E+10	1	-1E+10	1
4901784	108	C	06/19/2018	10:48	-132.389	42.938	0	1605.00	0	2.3610	0	34.6780	8	27.693	0	1586.171	0	35.0	4	10.7	4	-1E+10	1	-1E+10	1	-1E+10	1	-1E+10	1	-1E+10	1	-1E+10	1
4901784	108	C	06/19/2018	10:48	-132.389	42.938	0	1610.10	0	2.3540	0	34.6790	8	27.695	0	1591.192	0	35.4	4	10.8	4	-1E+10	1	-1E+10	1	-1E+10	1	-1E+10	1	-1E+10	1	-1E+10	1
4901784	108	C	06/19/2018	10:48	-132.389	42.938	0	1615.30	0	2.3390	0	34.6810	8	27.698	0	1596.311	0	35.8	4	10.9	4	-1E+10	1	-1E+10	1	-1E+10	1	-1E+10	1	-1E+10	1	-1E+10	1
4901784	108	C	06/19/2018	10:48	-132.389	42.938	0	1620.50	0	2.3310	0	34.6810	8	27.698	0	1601.430	0	36.1	4	11.0	4	-1E+10	1	-1E+10	1	-1E+10	1	-1E+10	1	-1E+10	1	-1E+10	1
4901784	108	C	06/19/2018	10:48	-132.389	42.938	0	1625.80	0	2.3240	0	34.6820	8	27.700	0	1606.648	0	36.3	4	11.0	4	-1E+10	1	-1E+10	1	-1E+10	1	-1E+10	1	-1E+10	1	-1E+10	1
4901784	108	C	06/19/2018	10:48	-132.389	42.938	0	1630.10	0	2.3210	0	34.6830	8	27.701	0	1610.881	0	36.5	4	11.1	4	-1E+10	1	-1E+10	1	-1E+10	1	-1E+10	1	-1E+10	1	-1E+10	1
4901784	108	C	06/19/2018	10:48	-132.389	42.938	0	1634.40	0	2.3130	0	34.6840	8	27.702	0	1615.114	0	36.8	4	11.2	4	-1E+10	1	-1E+10	1	-1E+10	1	-1E+10	1	-1E+10	1	-1E+10	1
4901784	108	C	06/19/2018	10:48	-132.389	42.938	0	1639.70	0	2.3080	0	34.6840	8	27.703	0	1620.331	0	37.1	4	11.3	4	-1E+10	1	-1E+10	1	-1E+10	1	-1E+10	1	-1E+10	1	-1E+10	1
4901784	108	C	06/19/2018	10:48	-132.389	42.938	0	1645.00	0	2.3020	0	34.6850	8	27.704	0	1625.548	0	37.5	4	11.4	4	-1E+10	1	-1E+10	1	-1E+10	1	-1E+10	1	-1E+10	1	-1E+10	1
4901784	108	C	06/19/2018	10:48	-132.389	42.938	0	1650.40	0	2.2920	0	34.6860	8	27.706	0	1630.864	0	37.9	4	11.5	4	-1E+10	1	-1E+10	1	-1E+10	1	-1E+10	1	-1E+10	1	-1E+10	1
4901784	108	C	06/19/2018	10:48	-132.389	42.938	0	1654.90	0	2.2790	0	34.6870	8	27.708	0	1635.293	0	38.2	4	11.6	4	-1E+10	1	-1E+10	1	-1E+10	1	-1E+10	1	-1E+10	1	-1E+10	1
4901784	108	C	06/19/2018	10:48	-132.389	42.938	0	1659.40	0	2.2730	0	34.6880	8	27.709	0	1639.722	0	38.5	4	11.7	4	-1E+10	1	-1E+10	1	-1E+10	1	-1E+10	1	-1E+10	1	-1E+10	1
4901784	108	C	06/19/2018	10:48	-132.389	42.938	0	1664.90	0	2.2700	0	34.6890	8	27.710	0	1645.136	0	38.8	4	11.8	4	-1E+10	1	-1E+10	1	-1E+10	1	-1E+10	1	-1E+10	1	-1E+10	1
4901784	108	C	06/19/2018	10:48	-132.389	42.938	0	1670.40	0	2.2640	0	34.6900	8	27.711	0	1650.549	0	39.1	4	11.9	4	-1E+10	1	-1E+10	1	-1E+10	1	-1E+10	1	-1E+10	1	-1E+10	1
4901784	108	C	06/19/2018	10:48	-132.389	42.938	0	1675.00	0	2.2610	0	34.6900	8	27.712	0	1655.076	0	39.3	4	11.9	4	-1E+10	1	-1E+10	1	-1E+10	1	-1E+10	1	-1E+10	1	-1E+10	1
4901784	108	C	06/19/2018	10:48	-132.389	42.938	0	1679.60	0	2.2580	0	34.6900	8	27.712	0	1659.604	0	39.5	4	12.0	4	-1E+10	1	-1E+10	1	-1E+10	1	-1E+10	1	-1E+10	1	-1E+10	1
4901784	108	C	06/19/2018	10:48	-132.389	42.938	0	1685.20	0	2.2510	0	34.6910	8	27.713	0	1665.115	0	39.7	4	12.1	4	-1E+10	1	-1E+10	1	-1E+10	1	-1E+10	1	-1E+10	1	-1E+10	1
4901784	108	C	06/19/2018	10:48	-132.389	42.938	0	1689.90	0	2.2470	0	34.6920	8	27.714	0	1669.740	0	40.0	4	12.2	4	-1E+10	1	-1E+10	1	-1E+10	1	-1E+10	1	-1E+10	1	-1E+10	1
4901784	108	C	06/19/2018	10:48	-132.389	42.938	0	1694.60	0	2.2380	0	34.6930	8	27.716	0	1674.366	0	40.3	4	12.2	4	-1E+10	1	-1E+10	1	-1E+10	1	-1E+10	1	-1E+10	1	-1E+10	1
4901784	108	C	06/19/2018	10:48	-132.389	42.938	0	1700.20	0	2.2360	0	34.6930	8	27.716	0	1679.877	0	40.6	4	12.3	4	-1E+10	1	-1E+10	1	-1E+10	1	-1E+10	1	-1E+10	1	-1E+10	1
4901784	108	C	06/19/2018	10:48	-132.389	42.938	0	1704.90	0	2.2280	0	34.6940	8	27.718	0	1684.502	0	40.9	4	12.4	4	-1E+10	1	-1E+10	1	-1E+10	1	-1E+10	1	-1E+10	1	-1E+10	1
4901784	108	C	06/19/2018	10:48	-132.389	42.938	0	1709.60	0	2.2230	0	34.6950	8	27.719	0	1689.127	0	41.2	4	12.5	4	-1E+10	1	-1E+10	1	-1E+10	1	-1E+10	1	-1E+10	1	-1E+10	1
4901784	108	C	06/19/2018	10:48	-132.389	42.938	0	1715.10	0	2.2140	0	34.6960	8	27.720	0	1694.539	0	41.8	4	12.7	4	-1E+10	1	-1E+10	1	-1E+10	1	-1E+10	1	-1E+10	1	-1E+10	1
4901784	108	C	06/19/2018	10:48	-132.389	42.938	0	1720.50	0	2.2070	0	34.6980	8	27.723	0	1699.853	0	42.4	4	12.9	4	-1E+10	1	-1E+10	1	-1E+10	1	-1E+10	1	-1E+10	1	-1E+10	1
4901784	108	C	06/19/2018	10:48	-132.389	42.938	0	1725.40	0	2.1990	0	34.7000	8	27.725	0	1704.674	0	42.8	4	13.0	4	-1E+10	1	-1E+10	1	-1E+10	1	-1E+10	1	-1E+10	1	-1E+10	1
4901784	108	C	06/19/2018	10:48	-132.389	42.938	0	1730.30	0	2.1900	0	34.7000	8	27.726	0	1709.496	0	43.1	4	13.1	4	-1E+10	1	-1E+10	1	-1E+10	1	-1E+10	1	-1E+10	1	-1E+10	1
4901784	108	C	06/19/2018	10:48	-132.389	42.938	0	1735.30	0	2.1800	0	34.7010	8	27.727	0	1714.416	0	43.3	4	13.1	4	-1E+10	1	-1E+10	1	-1E+10	1	-1E+10	1	-1E+10	1	-1E+10	1
4901784	108	C	06/19/2018	10:48	-132.389	42.938	0	1740.30	0	2.1730	0	34.7010	8	27.728	0	1719.335	0	43.5	4	13.2	4	-1E+10	1	-1E+10	1	-1E+10	1	-1E+10	1	-1E+10	1	-1E+10	1
4901784	108	C	06/19/2018	10:48	-132.389	42.938	0	1745.30	0	2.1710	0	34.7020	8	27.729	0	1724.255	0	43.8	4	13.3	4	-1E+10	1	-1E+10	1	-1E+10	1	-1E+10	1	-1E+10	1	-1E+10	1
4901784	108	C	06/19/2018	10:48	-132.389	42.938	0	1750.30	0	2.1650	0	34.7020	8	27.729	0	1729.174	0	44.1	4	13.4	4	-1E+10	1	-1E+10	1	-1E+10	1	-1E+10	1	-1E+10	1	-1E+10	1
4901784	108	C	06/19/2018	10:48	-132.389	42.938	0	1755.40	0	2.1570	0	34.7030	8	27.731	0	1734.192	0	44.5	4	13.5	4	-1E+10	1	-1E+10	1	-1E+10	1	-1E+10	1	-1E+10	1	-1E+10	1
4901784	108	C	06/19/2018	10:48	-132.389	42.938	0	1760.50	0	2.1510	0	34.7040	8	27.732	0	1739.209	0	44.8	4	13.6	4	-1E+10	1	-1E+10	1	-1E+10	1	-1E+10	1	-1E+10	1	-1E+10	1
4901784	108	C	06/19/2018	10:48	-132.389	42.938	0	1765.60	0	2.1450	0	34.7050	8	27.733	0	1744.226	0	45.1	4	13.7	4	-1E+10	1	-1E+10	1	-1E+10	1	-1E+10	1	-1E+10	1	-1E+10	1
4901784	108	C	06/19/2018	10:48	-132.389	42.938	0	1770.80	0	2.1430	0	34.7050	8	27.734	0	1749.342	0	45.4	4	13.8	4	-1E+10	1	-1E+10	1	-1E+10	1	-1E+10	1	-1E+10	1	-1E+10	1
4901784	108	C	06/19/2018	10:48	-132.389	42.938	0	1775.00	0	2.1390	0	34.7060	8	27.735	0	1753.474	0	45.8	4	13.9	4	-1E+10	1	-1E+10	1	-1E+10	1	-1E+10	1	-1E+10	1	-1E+10	1
4901784	108	C	06/19/2018	10:48	-132.389	42.938	0	1779.30	0	2.1330	0	34.7060	8	27.735	0	1757.704	0	46.1	4	14.0	4	-1E+10	1	-1E+10	1	-1E+10	1	-1E+10	1	-1E+10	1	-1E+10	1
4901784	108	C	06/19/2018	10:48	-132.389	42.938	0	1784.50	0	2.1220	0	34.7080	8	27.738	0	1762.819	0	46.5	4	14.1	4	-1E+10	1	-1E+10	1	-1E+10	1	-1E+10	1	-1E+10	1	-1E+10	1
4901784	108	C	06/19/2018	10:48	-132.389	42.938	0	1789.70	0	2.1170	0	34.7090	8	27.739	0	1767.934	0	46.7	4	14.1	4	-1E+10	1	-1E+10	1	-1E+10	1	-1E+10	1	-1E+10	1	-1E+10	1
4901784	108	C	06/19/2018	10:48	-132.389	42.938	0	1795.00	0	2.1140	0	34.7090	8	27.739	0	1773.148	0	46.8	4	14.2	4	-1E+10	1	-1E+10	1	-1E+10	1	-1E+10	1	-1E+10	1	-1E+10	1
4901784	108	C	06/19/2018	10:48	-132.389	42.938	0	1800.20	0	2.1110	0	34.7090	8	27.739	0	1778.263	0	47.0	4	14.2	4	-1E+10	1	-1E+10	1	-1E+10	1	-1E+10	1	-1E+10	1	-1E+10	1
4901784	108	C	06/19/2018	10:48	-132.389	42.938	0	1805.40	0	2.1030	0	34.7100	8	27.741	0	1783.378	0	47.5	4	14.4	4	-1E+10	1	-1E+10	1	-1E+10	1	-1E+10	1	-1E+10	1	-1E+10	1
4901784	108	C	06/19/2018	10:48	-132.389	42.938	0	1810.70	0	2.0930	0	34.7110	8	27.743	0	1788.591	0	47.8	4	14.5	4	-1E+10	1	-1E+10	1	-1E+10	1	-1E+10	1	-1E+10	1	-1E+10	1
4901784	108	C	06/19/2018	10:48	-132.389	42.938	0	1815.10	0	2.0870	0	34.7120	8	27.744	0	1792.918	0	48.1	4	14.6	4	-1E+10	1	-1E+10	1	-1E+10	1	-1E+10	1	-1E+10	1	-1E+10	1
4901784	108	C	06/19/2018	10:48	-132.389	42.938	0	1819.50	0	2.0830	0	34.7120	8	27.744	0	1797.246	0	48.6	4	14.7	4	-1E+10	1	-1E+10	1	-1E+10	1	-1E+10	1	-1E+10	1	-1E+10	1
4901784	108	C	06/19/2018	10:48	-132.389	42.938	0	1824.80	0	2.0870	0	34.7140	8	27.745	0	1802.459	0	49.4	4	14.9	4	-1E+10	1	-1E+10	1	-1E+10	1	-1E+10	1	-1E+10	1	-1E+10	1
4901784	108	C	06/19/2018	10:48	-132.389	42.938	0	1830.10	0	2.0820	0	34.7160	8	27.748	0	1807.671	0	49.8	4	15.1	4	-1E+10	1	-1E+10	1	-1E+10	1	-1E+10	1	-1E+10	1	-1E+10	1
4901784	108	C	06/19/2018	10:48	-132.389	42.938	0	1835.50	0	2.0730	0	34.7160	8	27.748	0	1812.982	0	50.0	4	15.1	4	-1E+10	1	-1E+10	1	-1E+10	1	-1E+10	1	-1E+10	1	-1E+10	1
4901784	108	C	06/19/2018	10:48	-132.389	42.938	0	1839.90	0	2.0710	0	34.7160	8	27.748	0	1817.309	0	50.2	4	15.2	4	-1E+10	1	-1E+10	1	-1E+10	1	-1E+10	1	-1E+10	1	-1E+10	1
4901784	108	C	06/19/2018	10:48	-132.389	42.938	0	1844.40	0	2.0680	0	34.7170	8	27.749	0	1821.735	0	50.4	4	15.2	4	-1E+10	1	-1E+10	1	-1E+10	1	-1E+10	1	-1E+10	1	-1E+10	1
4901784	108	C	06/19/2018	10:48	-132.389	42.938	0	1849.80	0	2.0590	0	34.7180	8	27.751	0	1827.045	0	50.8	4	15.4	4	-1E+10	1	-1E+10	1	-1E+10	1	-1E+10	1	-1E+10	1	-1E+10	1
4901784	108	C	06/19/2018	10:48	-132.389	42.938	0	1855.20	0	2.0530	0	34.7180	8	27.752	0	1832.355	0	51.0	4	15.4	4	-1E+10	1	-1E+10	1	-1E+10	1	-1E+10	1	-1E+10	1	-1E+10	1
4901784	108	C	06/19/2018	10:48	-132.389	42.938	0	1860.50	0	2.0500	0	34.7190	8	27.753	0	1837.567	0	51.2	4	15.5	4	-1E+10	1	-1E+10	1	-1E+10	1	-1E+10	1	-1E+10	1	-1E+10	1
4901784	108	C	06/19/2018	10:48	-132.389	42.938	0	1865.00	0	2.0470	0	34.7190	8	27.753	0	1841.992	0	51.3	4	15.5	4	-1E+10	1	-1E+10	1	-1E+10	1	-1E+10	1	-1E+10	1	-1E+10	1
4901784	108	C	06/19/2018	10:48	-132.389	42.938	0	1869.50	0	2.0460	0	34.7190	8	27.753	0	1846.417	0	51.5	4	15.6	4	-1E+10	1	-1E+10	1	-1E+10	1	-1E+10	1	-1E+10	1	-1E+10	1
4901784	108	C	06/19/2018	10:48	-132.389	42.938	0	1874.80	0	2.0440	0	34.7200	8	27.754	0	1851.629	0	51.6	4	15.6	4	-1E+10	1	-1E+10	1	-1E+10	1	-1E+10	1	-1E+10	1	-1E+10	1
4901784	108	C	06/19/2018	10:48	-132.389	42.938	0	1880.20	0	2.0420	0	34.7200	8	27.754	0	1856.939	0	51.7	4	15.6	4	-1E+10	1	-1E+10	1	-1E+10	1	-1E+10	1	-1E+10	1	-1E+10	1
4901784	108	C	06/19/2018	10:48	-132.389	42.938	0	1885.50	0	2.0350	0	34.7200	8	27.755	0	1862.150	0	51.9	4	15.7	4	-1E+10	1	-1E+10	1	-1E+10	1	-1E+10	1	-1E+10	1	-1E+10	1
4901784	108	C	06/19/2018	10:48	-132.389	42.938	0	1890.00	0	2.0290	0	34.7210	8	27.756	0	1866.574	0	52.3	4	15.8	4	-1E+10	1	-1E+10	1	-1E+10	1	-1E+10	1	-1E+10	1	-1E+10	1
4901784	108	C	06/19/2018	10:48	-132.389	42.938	0	1894.50	0	2.0280	0	34.7210	8	27.756	0	1870.999	0	52.5	4	15.9	4	-1E+10	1	-1E+10	1	-1E+10	1	-1E+10	1	-1E+10	1	-1E+10	1
4901784	108	C	06/19/2018	10:48	-132.389	42.938	0	1900.00	0	2.0250	0	34.7220	8	27.757	0	1876.406	0	52.9	4	16.0	4	-1E+10	1	-1E+10	1	-1E+10	1	-1E+10	1	-1E+10	1	-1E+10	1
4901784	108	C	06/19/2018	10:48	-132.389	42.938	0	1905.40	0	2.0210	0	34.7230	8	27.758	0	1881.715	0	53.4	4	16.1	4	-1E+10	1	-1E+10	1	-1E+10	1	-1E+10	1	-1E+10	1	-1E+10	1
4901784	108	C	06/19/2018	10:48	-132.389	42.938	0	1909.90	0	2.0190	0	34.7240	8	27.759	0	1886.140	0	53.7	4	16.2	4	-1E+10	1	-1E+10	1	-1E+10	1	-1E+10	1	-1E+10	1	-1E+10	1
4901784	108	C	06/19/2018	10:48	-132.389	42.938	0	1914.50	0	2.0160	0	34.7240	8	27.760	0	1890.662	0	54.0	4	16.3	4	-1E+10	1	-1E+10	1	-1E+10	1	-1E+10	1	-1E+10	1	-1E+10	1
4901784	108	C	06/19/2018	10:48	-132.389	42.938	0	1919.90	0	2.0070	0	34.7250	8	27.761	0	1895.971	0	54.4	4	16.4	4	-1E+10	1	-1E+10	1	-1E+10	1	-1E+10	1	-1E+10	1	-1E+10	1
4901784	108	C	06/19/2018	10:48	-132.389	42.938	0	1925.40	0	2.0030	0	34.7260	8	27.762	0	1901.378	0	54.8	4	16.5	4	-1E+10	1	-1E+10	1	-1E+10	1	-1E+10	1	-1E+10	1	-1E+10	1
4901784	108	C	06/19/2018	10:48	-132.389	42.938	0	1929.90	0	1.9990	0	34.7270	8	27.763	0	1905.801	0	55.0	4	16.6	4	-1E+10	1	-1E+10	1	-1E+10	1	-1E+10	1	-1E+10	1	-1E+10	1
4901784	108	C	06/19/2018	10:48	-132.389	42.938	0	1934.50	0	1.9960	0	34.7270	8	27.764	0	1910.323	0	55.2	4	16.7	4	-1E+10	1	-1E+10	1	-1E+10	1	-1E+10	1	-1E+10	1	-1E+10	1
4901784	108	C	06/19/2018	10:48	-132.389	42.938	0	1939.90	0	1.9900	0	34.7280	8	27.765	0	1915.631	0	55.6	4	16.8	4	-1E+10	1	-1E+10	1	-1E+10	1	-1E+10	1	-1E+10	1	-1E+10	1
4901784	108	C	06/19/2018	10:48	-132.389	42.938	0	1945.40	0	1.9850	0	34.7290	8	27.766	0	1921.038	0	55.9	4	16.9	4	-1E+10	1	-1E+10	1	-1E+10	1	-1E+10	1	-1E+10	1	-1E+10	1
4901784	108	C	06/19/2018	10:48	-132.389	42.938	0	1950.00	0	1.9820	0	34.7290	8	27.766	0	1925.559	0	56.1	4	16.9	4	-1E+10	1	-1E+10	1	-1E+10	1	-1E+10	1	-1E+10	1	-1E+10	1
4901784	108	C	06/19/2018	10:48	-132.389	42.938	0	1954.60	0	1.9790	0	34.7300	8	27.767	0	1930.081	0	56.3	4	17.0	4	-1E+10	1	-1E+10	1	-1E+10	1	-1E+10	1	-1E+10	1	-1E+10	1
4901784	108	C	06/19/2018	10:48	-132.389	42.938	0	1960.10	0	1.9760	0	34.7300	8	27.768	0	1935.487	0	56.4	4	17.0	4	-1E+10	1	-1E+10	1	-1E+10	1	-1E+10	1	-1E+10	1	-1E+10	1
4901784	108	C	06/19/2018	10:48	-132.389	42.938	0	1964.70	0	1.9740	0	34.7300	8	27.768	0	1940.008	0	56.5	4	17.1	4	-1E+10	1	-1E+10	1	-1E+10	1	-1E+10	1	-1E+10	1	-1E+10	1
4901784	108	C	06/19/2018	10:48	-132.389	42.938	0	1969.20	0	1.9720	0	34.7310	8	27.769	0	1944.431	0	56.7	4	17.1	4	-1E+10	1	-1E+10	1	-1E+10	1	-1E+10	1	-1E+10	1	-1E+10	1
4901784	108	C	06/19/2018	10:48	-132.389	42.938	0	1974.50	0	1.9720	0	34.7310	8	27.769	0	1949.640	0	56.8	4	17.1	4	-1E+10	1	-1E+10	1	-1E+10	1	-1E+10	1	-1E+10	1	-1E+10	1
4901784	108	C	06/19/2018	10:48	-132.389	42.938	0	1979.40	0	1.9710	0	34.7310	8	27.769	0	1954.456	0	57.2	4	17.3	4	-1E+10	1	-1E+10	1	-1E+10	1	-1E+10	1	-1E+10	1	-1E+10	1
4901784	108	C	06/19/2018	10:48	-132.389	42.938	0	1985.00	0	1.9600	0	34.7330	8	27.772	0	1959.960	0	57.9	4	17.5	4	-1E+10	1	-1E+10	1	-1E+10	1	-1E+10	1	-1E+10	1	-1E+10	1
4901784	108	C	06/19/2018	10:48	-132.389	42.938	0	1990.70	0	1.9540	0	34.7340	8	27.773	0	1965.562	0	58.4	4	17.6	4	-1E+10	1	-1E+10	1	-1E+10	1	-1E+10	1	-1E+10	1	-1E+10	1
4901784	108	C	06/19/2018	10:48	-132.389	42.938	0	1995.70	0	1.9500	0	34.7340	8	27.773	0	1970.475	0	58.7	4	17.7	4	-1E+10	1	-1E+10	1	-1E+10	1	-1E+10	1	-1E+10	1	-1E+10	1
4901784	108	C	06/19/2018	10:48	-132.389	42.938	0	2000.60	0	1.9480	0	34.7350	8	27.774	0	1975.291	0	58.9	4	17.7	4	-1E+10	1	-1E+10	1	-1E+10	1	-1E+10	1	-1E+10	1	-1E+10	1
4901784	108	C	06/19/2018	10:48	-132.389	42.938	0	2005.60	0	1.9440	0	34.7350	8	27.774	0	1980.204	0	59.1	4	17.8	4	-1E+10	1	-1E+10	1	-1E+10	1	-1E+10	1	-1E+10	1	-1E+10	1
4901784	108	C	06/19/2018	10:48	-132.389	42.938	0	2010.00	0	1.9430	0	34.7360	8	27.775	0	1984.528	0	59.3	4	17.9	4	-1E+10	1	-1E+10	1	-1E+10	1	-1E+10	1	-1E+10	1	-1E+10	1
4901784	108	C	06/19/2018	10:48	-132.389	42.938	0	2015.50	0	1.9380	0	34.7370	8	27.777	0	1989.933	0	59.7	4	18.0	4	-1E+10	1	-1E+10	1	-1E+10	1	-1E+10	1	-1E+10	1	-1E+10	1
4901784	108	C	06/19/2018	10:48	-132.389	42.938	0	2019.80	0	1.9330	0	34.7370	8	27.777	0	1994.158	0	59.9	4	18.1	4	-1E+10	1	-1E+10	1	-1E+10	1	-1E+10	1	-1E+10	1	-1E+10	1
4901784	108	C	06/19/2018	10:48	-132.389	42.938	0																										
4901784	109	C	06/29/2018	10:49	-132.500	42.968	0	2.10	0	14.9520	0	32.7440	8	24.244	0	2.083	0	250.5	4	99.4	4	-1E+10	1	-1E+10	1	-1E+10	1	-1E+10	1	-1E+10	1	-1E+10	1
4901784	109	C	06/29/2018	10:49	-132.500	42.968	0	3.00	0	14.9520	0	32.7430	8	24.244	0	2.976	0	250.6	4	99.5	4	-1E+10	1	-1E+10	1	-1E+10	1	-1E+10	1	-1E+10	1	-1E+10	1
4901784	109	C	06/29/2018	10:49	-132.500	42.968	0	4.30	0	14.9560	0	32.7420	8	24.242	0	4.266	0	250.8	4	99.6	4	-1E+10	1	-1E+10	1	-1E+10	1	-1E+10	1	-1E+10	1	-1E+10	1
4901784	109	C	06/29/2018	10:49	-132.500	42.968	0	5.60	0	14.9460	0	32.7410	8	24.243	0	5.556	0	250.9	4	99.6	4	-1E+10	1	-1E+10	1	-1E+10	1	-1E+10	1	-1E+10	1	-1E+10	1
4901784	109	C	06/29/2018	10:49	-132.500	42.968	0	7.10	0	14.9430	0	32.7380	8	24.242	0	7.044	0	251.1	4	99.6	4	-1E+10	1	-1E+10	1	-1E+10	1	-1E+10	1	-1E+10	1	-1E+10	1
4901784	109	C	06/29/2018	10:49	-132.500	42.968	0	8.60	0	14.8600	0	32.7420	8	24.263	0	8.532	0	251.7	4	99.7	4	-1E+10	1	-1E+10	1	-1E+10	1	-1E+10	1	-1E+10	1	-1E+10	1
4901784	109	C	06/29/2018	10:49	-132.500	42.968	0	10.30	0	14.8790	0	32.7360	8	24.254	0	10.218	0	252.3	4	100.0	4	-1E+10	1	-1E+10	1	-1E+10	1	-1E+10	1	-1E+10	1	-1E+10	1
4901784	109	C	06/29/2018	10:49	-132.500	42.968	0	11.90	0	14.7070	0	32.7480	8	24.300	0	11.805	0	253.4	4	100.1	4	-1E+10	1	-1E+10	1	-1E+10	1	-1E+10	1	-1E+10	1	-1E+10	1
4901784	109	C	06/29/2018	10:49	-132.500	42.968	0	13.60	0	14.6690	0	32.7380	8	24.301	0	13.492	0	254.0	4	100.3	4	-1E+10	1	-1E+10	1	-1E+10	1	-1E+10	1	-1E+10	1	-1E+10	1
4901784	109	C	06/29/2018	10:49	-132.500	42.968	0	15.30	0	14.6330	0	32.7370	8	24.308	0	15.178	0	254.8	4	100.5	4	-1E+10	1	-1E+10	1	-1E+10	1	-1E+10	1	-1E+10	1	-1E+10	1
4901784	109	C	06/29/2018	10:49	-132.500	42.968	0	17.00	0	14.5380	0	32.7330	8	24.325	0	16.864	0	256.0	4	100.8	4	-1E+10	1	-1E+10	1	-1E+10	1	-1E+10	1	-1E+10	1	-1E+10	1
4901784	109	C	06/29/2018	10:49	-132.500	42.968	0	18.60	0	14.4530	0	32.7360	8	24.345	0	18.452	0	257.1	4	101.0	4	-1E+10	1	-1E+10	1	-1E+10	1	-1E+10	1	-1E+10	1	-1E+10	1
4901784	109	C	06/29/2018	10:49	-132.500	42.968	0	20.20	0	14.3170	0	32.7470	8	24.382	0	20.039	0	258.3	4	101.2	4	-1E+10	1	-1E+10	1	-1E+10	1	-1E+10	1	-1E+10	1	-1E+10	1
4901784	109	C	06/29/2018	10:49	-132.500	42.968	0	21.70	0	14.1470	0	32.7710	8	24.436	0	21.527	0	259.5	4	101.4	4	-1E+10	1	-1E+10	1	-1E+10	1	-1E+10	1	-1E+10	1	-1E+10	1
4901784	109	C	06/29/2018	10:49	-132.500	42.968	0	23.30	0	13.9530	0	32.7880	8	24.489	0	23.114	0	261.0	4	101.6	4	-1E+10	1	-1E+10	1	-1E+10	1	-1E+10	1	-1E+10	1	-1E+10	1
4901784	109	C	06/29/2018	10:49	-132.500	42.968	0	25.10	0	13.8550	0	32.7920	8	24.512	0	24.899	0	261.9	4	101.7	4	-1E+10	1	-1E+10	1	-1E+10	1	-1E+10	1	-1E+10	1	-1E+10	1
4901784	109	C	06/29/2018	10:49	-132.500	42.968	0	26.80	0	13.7170	0	32.8060	8	24.552	0	26.586	0	262.5	4	101.7	4	-1E+10	1	-1E+10	1	-1E+10	1	-1E+10	1	-1E+10	1	-1E+10	1
4901784	109	C	06/29/2018	10:49	-132.500	42.968	0	28.40	0	13.6500	0	32.8030	8	24.563	0	28.173	0	263.6	4	102.0	4	-1E+10	1	-1E+10	1	-1E+10	1	-1E+10	1	-1E+10	1	-1E+10	1
4901784	109	C	06/29/2018	10:49	-132.500	42.968	0	30.20	0	13.5210	0	32.8190	8	24.601	0	29.958	0	263.8	4	101.8	4	-1E+10	1	-1E+10	1	-1E+10	1	-1E+10	1	-1E+10	1	-1E+10	1
4901784	109	C	06/29/2018	10:49	-132.500	42.968	0	30.70	0	13.4790	0	32.8060	8	24.600	0	30.454	0	264.6	4	102.0	4	-1E+10	1	-1E+10	1	-1E+10	1	-1E+10	1	-1E+10	1	-1E+10	1
4901784	109	C	06/29/2018	10:49	-132.500	42.968	0	32.20	0	13.4410	0	32.7920	8	24.597	0	31.942	0	265.4	4	102.2	4	-1E+10	1	-1E+10	1	-1E+10	1	-1E+10	1	-1E+10	1	-1E+10	1
4901784	109	C	06/29/2018	10:49	-132.500	42.968	0	33.50	0	13.2870	0	32.7880	8	24.624	0	33.232	0	267.0	4	102.5	4	-1E+10	1	-1E+10	1	-1E+10	1	-1E+10	1	-1E+10	1	-1E+10	1
4901784	109	C	06/29/2018	10:49	-132.500	42.968	0	34.90	0	12.8480	0	32.7960	8	24.717	0	34.620	0	269.0	4	102.4	4	-1E+10	1	-1E+10	1	-1E+10	1	-1E+10	1	-1E+10	1	-1E+10	1
4901784	109	C	06/29/2018	10:49	-132.500	42.968	0	36.50	0	12.2240	0	32.9170	8	24.931	0	36.207	0	272.7	4	102.6	4	-1E+10	1	-1E+10	1	-1E+10	1	-1E+10	1	-1E+10	1	-1E+10	1
4901784	109	C	06/29/2018	10:49	-132.500	42.968	0	38.10	0	11.8590	0	32.8240	8	24.927	0	37.794	0	277.3	4	103.4	4	-1E+10	1	-1E+10	1	-1E+10	1	-1E+10	1	-1E+10	1	-1E+10	1
4901784	109	C	06/29/2018	10:49	-132.500	42.968	0	39.60	0	11.6340	0	32.8220	8	24.967	0	39.282	0	278.6	4	103.4	4	-1E+10	1	-1E+10	1	-1E+10	1	-1E+10	1	-1E+10	1	-1E+10	1
4901784	109	C	06/29/2018	10:49	-132.500	42.968	0	41.20	0	11.1370	0	32.8670	8	25.092	0	40.869	0	279.5	4	102.7	4	-1E+10	1	-1E+10	1	-1E+10	1	-1E+10	1	-1E+10	1	-1E+10	1
4901784	109	C	06/29/2018	10:49	-132.500	42.968	0	42.90	0	10.8960	0	32.8530	8	25.124	0	42.555	0	281.7	4	103.0	4	-1E+10	1	-1E+10	1	-1E+10	1	-1E+10	1	-1E+10	1	-1E+10	1
4901784	109	C	06/29/2018	10:49	-132.500	42.968	0	44.60	0	10.7790	0	32.8460	8	25.139	0	44.241	0	282.0	4	102.8	4	-1E+10	1	-1E+10	1	-1E+10	1	-1E+10	1	-1E+10	1	-1E+10	1
4901784	109	C	06/29/2018	10:49	-132.500	42.968	0	46.30	0	10.7170	0	32.8440	8	25.148	0	45.928	0	281.8	4	102.6	4	-1E+10	1	-1E+10	1	-1E+10	1	-1E+10	1	-1E+10	1	-1E+10	1
4901784	109	C	06/29/2018	10:49	-132.500	42.968	0	47.90	0	10.6690	0	32.8480	8	25.159	0	47.515	0	280.8	4	102.2	4	-1E+10	1	-1E+10	1	-1E+10	1	-1E+10	1	-1E+10	1	-1E+10	1
4901784	109	C	06/29/2018	10:49	-132.500	42.968	0	49.70	0	10.6170	0	32.8530	8	25.172	0	49.300	0	279.7	4	101.6	4	-1E+10	1	-1E+10	1	-1E+10	1	-1E+10	1	-1E+10	1	-1E+10	1
4901784	109	C	06/29/2018	10:49	-132.500	42.968	0	51.40	0	10.5770	0	32.8620	8	25.186	0	50.986	0	278.2	4	101.0	4	-1E+10	1	-1E+10	1	-1E+10	1	-1E+10	1	-1E+10	1	-1E+10	1
4901784	109	C	06/29/2018	10:49	-132.500	42.968	0	53.20	0	10.5420	0	32.8790	8	25.206	0	52.771	0	276.7	4	100.4	4	-1E+10	1	-1E+10	1	-1E+10	1	-1E+10	1	-1E+10	1	-1E+10	1
4901784	109	C	06/29/2018	10:49	-132.500	42.968	0	55.00	0	10.5060	0	32.8830	8	25.215	0	54.556	0	275.7	4	100.0	4	-1E+10	1	-1E+10	1	-1E+10	1	-1E+10	1	-1E+10	1	-1E+10	1
4901784	109	C	06/29/2018	10:49	-132.500	42.968	0	56.80	0	10.4900	0	32.8830	8	25.218	0	56.342	0	274.9	4	99.6	4	-1E+10	1	-1E+10	1	-1E+10	1	-1E+10	1	-1E+10	1	-1E+10	1
4901784	109	C	06/29/2018	10:49	-132.500	42.968	0	58.60	0	10.4160	0	32.8860	8	25.233	0	58.127	0	274.2	4	99.2	4	-1E+10	1	-1E+10	1	-1E+10	1	-1E+10	1	-1E+10	1	-1E+10	1
4901784	109	C	06/29/2018	10:49	-132.500	42.968	0	60.40	0	10.3410	0	32.8720	8	25.235	0	59.912	0	273.9	4	99.0	4	-1E+10	1	-1E+10	1	-1E+10	1	-1E+10	1	-1E+10	1	-1E+10	1
4901784	109	C	06/29/2018	10:49	-132.500	42.968	0	62.30	0	10.3490	0	32.8840	8	25.243	0	61.797	0	272.5	4	98.5	4	-1E+10	1	-1E+10	1	-1E+10	1	-1E+10	1	-1E+10	1	-1E+10	1
4901784	109	C	06/29/2018	10:49	-132.500	42.968	0	64.10	0	10.2870	0	32.8770	8	25.248	0	63.582	0	272.3	4	98.3	4	-1E+10	1	-1E+10	1	-1E+10	1	-1E+10	1	-1E+10	1	-1E+10	1
4901784	109	C	06/29/2018	10:49	-132.500	42.968	0	66.00	0	10.2230	0	32.8710	8	25.254	0	65.466	0	272.0	4	98.0	4	-1E+10	1	-1E+10	1	-1E+10	1	-1E+10	1	-1E+10	1	-1E+10	1
4901784	109	C	06/29/2018	10:49	-132.500	42.968	0	67.80	0	10.1360	0	32.8550	8	25.256	0	67.251	0	271.2	4	97.5	4	-1E+10	1	-1E+10	1	-1E+10	1	-1E+10	1	-1E+10	1	-1E+10	1
4901784	109	C	06/29/2018	10:49	-132.500	42.968	0	69.70	0	10.0840	0	32.8510	8	25.262	0	69.135	0	269.1	4	96.7	4	-1E+10	1	-1E+10	1	-1E+10	1	-1E+10	1	-1E+10	1	-1E+10	1
4901784	109	C	06/29/2018	10:49	-132.500	42.968	0	71.60	0	10.0940	0	32.8600	8	25.267	0	71.020	0	267.3	4	96.0	4	-1E+10	1	-1E+10	1	-1E+10	1	-1E+10	1	-1E+10	1	-1E+10	1
4901784	109	C	06/29/2018	10:49	-132.500	42.968	0	73.50	0	10.0370	0	32.8600	8	25.277	0	72.904	0	267.2	4	95.9	4	-1E+10	1	-1E+10	1	-1E+10	1	-1E+10	1	-1E+10	1	-1E+10	1
4901784	109	C	06/29/2018	10:49	-132.500	42.968	0	75.40	0	10.0040	0	32.8560	8	25.279	0	74.788	0	267.5	4	95.9	4	-1E+10	1	-1E+10	1	-1E+10	1	-1E+10	1	-1E+10	1	-1E+10	1
4901784	109	C	06/29/2018	10:49	-132.500	42.968	0	77.30	0	9.9290	0	32.8480	8	25.286	0	76.673	0	266.9	4	95.6	4	-1E+10	1	-1E+10	1	-1E+10	1	-1E+10	1	-1E+10	1	-1E+10	1
4901784	109	C	06/29/2018	10:49	-132.500	42.968	0	79.20	0	9.8700	0	32.8350	8	25.285	0	78.557	0	265.8	4	95.0	4	-1E+10	1	-1E+10	1	-1E+10	1	-1E+10	1	-1E+10	1	-1E+10	1
4901784	109	C	06/29/2018	10:49	-132.500	42.968	0	81.10	0	9.8140	0	32.8310	8	25.291	0	80.441	0	265.0	4	94.6	4	-1E+10	1	-1E+10	1	-1E+10	1	-1E+10	1	-1E+10	1	-1E+10	1
4901784	109	C	06/29/2018	10:49	-132.500	42.968	0	83.00	0	9.7770	0	32.8290	8	25.296	0	82.325	0	264.2	4	94.3	4	-1E+10	1	-1E+10	1	-1E+10	1	-1E+10	1	-1E+10	1	-1E+10	1
4901784	109	C	06/29/2018	10:49	-132.500	42.968	0	84.90	0	9.7020	0	32.8270	8	25.307	0	84.209	0	263.6	4	93.9	4	-1E+10	1	-1E+10	1	-1E+10	1	-1E+10	1	-1E+10	1	-1E+10	1
4901784	109	C	06/29/2018	10:49	-132.500	42.968	0	86.70	0	9.6630	0	32.8170	8	25.305	0	85.994	0	262.8	4	93.5	4	-1E+10	1	-1E+10	1	-1E+10	1	-1E+10	1	-1E+10	1	-1E+10	1
4901784	109	C	06/29/2018	10:49	-132.500	42.968	0	88.60	0	9.7340	0	32.8450	8	25.315	0	87.878	0	261.0	4	93.1	4	-1E+10	1	-1E+10	1	-1E+10	1	-1E+10	1	-1E+10	1	-1E+10	1
4901784	109	C	06/29/2018	10:49	-132.500	42.968	0	90.50	0	9.7570	0	32.8500	8	25.316	0	89.763	0	259.8	4	92.7	4	-1E+10	1	-1E+10	1	-1E+10	1	-1E+10	1	-1E+10	1	-1E+10	1
4901784	109	C	06/29/2018	10:49	-132.500	42.968	0	92.30	0	9.7200	0	32.8640	8	25.333	0	91.547	0	258.7	4	92.2	4	-1E+10	1	-1E+10	1	-1E+10	1	-1E+10	1	-1E+10	1	-1E+10	1
4901784	109	C	06/29/2018	10:49	-132.500	42.968	0	94.50	0	9.7460	0	32.8730	8	25.336	0	93.729	0	257.1	4	91.7	4	-1E+10	1	-1E+10	1	-1E+10	1	-1E+10	1	-1E+10	1	-1E+10	1
4901784	109	C	06/29/2018	10:49	-132.500	42.968	0	95.00	0	9.7130	0	32.8710	8	25.339	0	94.225	0	256.8	4	91.5	4	-1E+10	1	-1E+10	1	-1E+10	1	-1E+10	1	-1E+10	1	-1E+10	1
4901784	109	C	06/29/2018	10:49	-132.500	42.968	0	96.70	0	9.5930	0	32.8670	8	25.356	0	95.911	0	256.6	4	91.2	4	-1E+10	1	-1E+10	1	-1E+10	1	-1E+10	1	-1E+10	1	-1E+10	1
4901784	109	C	06/29/2018	10:49	-132.500	42.968	0	98.20	0	9.6160	0	32.8850	8	25.366	0	97.398	0	255.1	4	90.7	4	-1E+10	1	-1E+10	1	-1E+10	1	-1E+10	1	-1E+10	1	-1E+10	1
4901784	109	C	06/29/2018	10:49	-132.500	42.968	0	99.80	0	9.5930	0	32.9070	8	25.387	0	98.984	0	253.9	4	90.3	4	-1E+10	1	-1E+10	1	-1E+10	1	-1E+10	1	-1E+10	1	-1E+10	1
4901784	109	C	06/29/2018	10:49	-132.500	42.968	0	102.10	0	9.5550	0	32.9050	8	25.392	0	101.265	0	252.3	4	89.7	4	-1E+10	1	-1E+10	1	-1E+10	1	-1E+10	1	-1E+10	1	-1E+10	1
4901784	109	C	06/29/2018	10:49	-132.500	42.968	0	105.10	0	9.5070	0	32.9260	8	25.416	0	104.240	0	249.4	4	88.5	4	-1E+10	1	-1E+10	1	-1E+10	1	-1E+10	1	-1E+10	1	-1E+10	1
4901784	109	C	06/29/2018	10:49	-132.500	42.968	0	107.30	0	9.3180	0	32.9480	8	25.464	0	106.421	0	247.4	4	87.5	4	-1E+10	1	-1E+10	1	-1E+10	1	-1E+10	1	-1E+10	1	-1E+10	1
4901784	109	C	06/29/2018	10:49	-132.500	42.968	0	109.70	0	8.9830	0	32.9740	8	25.537	0	108.801	0	246.1	4	86.4	4	-1E+10	1	-1E+10	1	-1E+10	1	-1E+10	1	-1E+10	1	-1E+10	1
4901784	109	C	06/29/2018	10:49	-132.500	42.968	0	112.20	0	8.5750	0	33.0020	8	25.621	0	111.280	0	246.4	4	85.7	4	-1E+10	1	-1E+10	1	-1E+10	1	-1E+10	1	-1E+10	1	-1E+10	1
4901784	109	C	06/29/2018	10:49	-132.500	42.968	0	114.80	0	8.4280	0	33.0450	8	25.677	0	113.858	0	244.6	4	84.9	4	-1E+10	1	-1E+10	1	-1E+10	1	-1E+10	1	-1E+10	1	-1E+10	1
4901784	109	C	06/29/2018	10:49	-132.500	42.968	0	117.80	0	8.2910	0	33.0860	8	25.730	0	116.832	0	241.2	4	83.5	4	-1E+10	1	-1E+10	1	-1E+10	1	-1E+10	1	-1E+10	1	-1E+10	1
4901784	109	C	06/29/2018	10:49	-132.500	42.968	0	120.40	0	8.1730	0	33.1240	8	25.777	0	119.410	0	235.8	4	81.4	4	-1E+10	1	-1E+10	1	-1E+10	1	-1E+10	1	-1E+10	1	-1E+10	1
4901784	109	C	06/29/2018	10:49	-132.500	42.968	0	122.50	0	7.9930	0	33.1960	8	25.860	0	121.492	0	230.5	4	79.3	4	-1E+10	1	-1E+10	1	-1E+10	1	-1E+10	1	-1E+10	1	-1E+10	1
4901784	109	C	06/29/2018	10:49	-132.500	42.968	0	124.80	0	8.0050	0	33.3050	8	25.944	0	123.773	0	225.8	4	77.7	4	-1E+10	1	-1E+10	1	-1E+10	1	-1E+10	1	-1E+10	1	-1E+10	1
4901784	109	C	06/29/2018	10:49	-132.500	42.968	0	127.20	0	8.0170	0	33.3580	8	25.984	0	126.152	0	221.9	4	76.5	4	-1E+10	1	-1E+10	1	-1E+10	1	-1E+10	1	-1E+10	1	-1E+10	1
4901784	109	C	06/29/2018	10:49	-132.500	42.968	0	129.70	0	8.0910	0	33.4340	8	26.033	0	128.631	0	217.3	4	75.0	4	-1E+10	1	-1E+10	1	-1E+10	1	-1E+10	1	-1E+10	1	-1E+10	1
4901784	109	C	06/29/2018	10:49	-132.500	42.968	0	132.90	0	8.1400	0	33.5170	8	26.091	0	131.803	0	210.6	4	72.8	4	-1E+10	1	-1E+10	1	-1E+10	1	-1E+10	1	-1E+10	1	-1E+10	1
4901784	109	C	06/29/2018	10:49	-132.500	42.968	0	135.40	0	8.2370	0	33.6140	8	26.153	0	134.282	0	204.9	4	71.1	4	-1E+10	1	-1E+10	1	-1E+10	1	-1E+10	1	-1E+10	1	-1E+10	1
4901784	109	C	06/29/2018	10:49	-132.500	42.968	0	137.10	0	8.2690	0	33.6540	8	26.179	0	135.967	0	202.5	4	70.3	4	-1E+10	1	-1E+10	1	-1E+10	1	-1E+10	1	-1E+10	1	-1E+10	1
4901784	109	C	06/29/2018	10:49	-132.500	42.968	0	139.90	0	8.3000	0	33.7310	8	26.235	0	138.743	0	199.4	4	69.3	4	-1E+10	1	-1E+10	1	-1E+10	1	-1E+10	1	-1E+10	1	-1E+10	1
4901784	109	C	06/29/2018	10:49	-132.500	42.968	0	142.60	0	8.3250	0	33.7690	8	26.261	0	141.420	0	196.6	4	68.4	4	-1E+10	1	-1E+10	1	-1E+10	1	-1E+10	1	-1E+10	1	-1E+10	1
4901784	109	C	06/29/2018	10:49	-132.500	42.968	0	145.30	0	8.3640	0	33.8240	8	26.298	0	144.097	0	193.4	4	67.4	4	-1E+10	1	-1E+10	1	-1E+10	1	-1E+10	1	-1E+10	1	-1E+10	1
4901784	109	C	06/29/2018	10:49	-132.500	42.968	0	148.10	0	8.4240	0	33.9260	8	26.369	0	146.873	0	191.1	4	66.7	4	-1E+10	1	-1E+10	1	-1E+10	1	-1E+10	1	-1E+10	1	-1E+10	1
4901784	109	C	06/29/2018	10:49	-132.500	42.968	0	149.90	0	8.4390	0	33.9470	8	26.384	0	148.657	0	190.0	4	66.4	4	-1E+10	1	-1E+10	1	-1E+10	1	-1E+10	1	-1E+10	1	-1E+10	1
4901784	109	C	06/29/2018	10:49	-132.500	42.968	0	152.60	0	8.4540	0	33.9760	8	26.404	0	151.334	0	188.2	4	65.8	4	-1E+10	1	-1E+10	1	-1E+10	1	-1E+10	1	-1E+10	1	-1E+10	1
4901784	109	C	06/29/2018	10:49	-132.500	42.968	0	155.30	0	8.4710	0	34.0100	8	26.428	0	154.010	0	187.4	4	65.5	4	-1E+10	1	-1E+10	1	-1E+10	1	-1E+10	1	-1E+10	1	-1E+10	1
4901784	109	C	06/29/2018	10:49	-132.500	42.968	0	157.20	0	8.4890	0	34.0380	8	26.447	0	155.894	0	187.0	4	65.4	4	-1E+10	1	-1E+10	1	-1E+10	1	-1E+10	1	-1E+10	1	-1E+10	1
4901784	109	C	06/29/2018	10:49	-132.500	42.968	0	160.00	0	8.5000	0	34.0510	8	26.456	0	158.669	0	186.8	4	65.4	4	-1E+10	1	-1E+10	1	-1E+10	1	-1E+10	1	-1E+10	1	-1E+10	1
4901784	109	C	06/29/2018	10:49	-132.500	42.968	0	162.80	0	8.5080	0	34.0560	8	26.459	0	161.445	0	186.4	4	65.3	4	-1E+10	1	-1E+10	1	-1E+10	1	-1E+10	1	-1E+10	1	-1E+10	1
4901784	109	C	06/29/2018	10:49	-132.500	42.968	0	164.50	0	8.5120	0	34.0610	8	26.462	0	163.130	0	185.9	4	65.1	4	-1E+10	1	-1E+10	1	-1E+10	1	-1E+10	1	-1E+10	1	-1E+10	1
4901784	109	C	06/29/2018	10:49	-132.500	42.968	0	167.40	0	8.5180	0	34.0740	8	26.471	0	166.005	0	184.6	4	64.7	4	-1E+10	1	-1E+10	1	-1E+10	1	-1E+10	1	-1E+10	1	-1E+10	1
4901784	109	C	06/29/2018	10:49	-132.500	42.968	0	170.20	0	8.5100	0	34.0830	8	26.480	0	168.780	0	183.1	4	64.1	4	-1E+10	1	-1E+10	1	-1E+10	1	-1E+10	1	-1E+10	1	-1E+10	1
4901784	109	C	06/29/2018	10:49	-132.500	42.968	0	172.00	0	8.4990	0	34.0910	8	26.488	0	170.565	0	182.0	4	63.7	4	-1E+10	1	-1E+10	1	-1E+10	1	-1E+10	1	-1E+10	1	-1E+10	1
4901784	109	C	06/29/2018	10:49	-132.500	42.968	0	174.70	0	8.4680	0	34.1040	8	26.503	0	173.241	0	180.8	4	63.3	4	-1E+10	1	-1E+10	1	-1E+10	1	-1E+10	1	-1E+10	1	-1E+10	1
4901784	109	C	06/29/2018	10:49	-132.500	42.968	0	177.40	0	8.4520	0	34.1150	8	26.514	0	175.917	0	179.6	4	62.8	4	-1E+10	1	-1E+10	1	-1E+10	1	-1E+10	1	-1E+10	1	-1E+10	1
4901784	109	C	06/29/2018	10:49	-132.500	42.968	0	180.20	0	8.3880	0	34.1220	8	26.529	0	178.693	0	178.3	4	62.3	4	-1E+10	1	-1E+10	1	-1E+10	1	-1E+10	1	-1E+10	1	-1E+10	1
4901784	109	C	06/29/2018	10:49	-132.500	42.968	0	183.00	0	8.3630	0	34.1230	8	26.534	0	181.468	0	177.5	4	62.0	4	-1E+10	1	-1E+10	1	-1E+10	1	-1E+10	1	-1E+10	1	-1E+10	1
4901784	109	C	06/29/2018	10:49	-132.500	42.968	0	184.80	0	8.3500	0	34.1220	8	26.535	0	183.252	0	176.7	4	61.7	4	-1E+10	1	-1E+10	1	-1E+10	1	-1E+10	1	-1E+10	1	-1E+10	1
4901784	109	C	06/29/2018	10:49	-132.500	42.968	0	187.70	0	8.2890	0	34.1260	8	26.547	0	186.127	0	175.8	4	61.3	4	-1E+10	1	-1E+10	1	-1E+10	1	-1E+10	1	-1E+10	1	-1E+10	1
4901784	109	C	06/29/2018	10:49	-132.500	42.968	0	190.50	0	8.2730	0	34.1260	8	26.550	0	188.902	0	174.8	4	60.9	4	-1E+10	1	-1E+10	1	-1E+10	1	-1E+10	1	-1E+10	1	-1E+10	1
4901784	109	C	06/29/2018	10:49	-132.500	42.968	0	192.40	0	8.2380	0	34.1290	8	26.557	0	190.785	0	174.0	4	60.6	4	-1E+10	1	-1E+10	1	-1E+10	1	-1E+10	1	-1E+10	1	-1E+10	1
4901784	109	C	06/29/2018	10:49	-132.500	42.968	0	194.30	0	8.1910	0	34.1260	8	26.562	0	192.668	0	173.5	4	60.4	4	-1E+10	1	-1E+10	1	-1E+10	1	-1E+10	1	-1E+10	1	-1E+10	1
4901784	109	C	06/29/2018	10:49	-132.500	42.968	0	197.40	0	8.1630	0	34.1260	8	26.566	0	195.741	0	172.6	4	60.0	4	-1E+10	1	-1E+10	1	-1E+10	1	-1E+10	1	-1E+10	1	-1E+10	1
4901784	109	C	06/29/2018	10:49	-132.500	42.968	0	199.90	0	8.1420	0	34.1250	8	26.569	0	198.219	0	171.7	4	59.7	4	-1E+10	1	-1E+10	1	-1E+10	1	-1E+10	1	-1E+10	1	-1E+10	1
4901784	109	C	06/29/2018	10:49	-132.500	42.968	0	202.40	0	8.1070	0	34.1230	8	26.572	0	200.696	0	170.6	4	59.2	4	-1E+10	1	-1E+10	1	-1E+10	1	-1E+10	1	-1E+10	1	-1E+10	1
4901784	109	C	06/29/2018	10:49	-132.500	42.968	0	204.90	0	8.0610	0	34.1220	8	26.579	0	203.174	0	169.3	4	58.7	4	-1E+10	1	-1E+10	1	-1E+10	1	-1E+10	1	-1E+10	1	-1E+10	1
4901784	109	C	06/29/2018	10:49	-132.500	42.968	0	207.30	0	8.0220	0	34.1230	8	26.585	0	205.553	0	168.0	4	58.2	4	-1E+10	1	-1E+10	1	-1E+10	1	-1E+10	1	-1E+10	1	-1E+10	1
4901784	109	C	06/29/2018	10:49	-132.500	42.968	0	209.80	0	7.9740	0	34.1170	8	26.588	0	208.030	0	166.6	4	57.7	4	-1E+10	1	-1E+10	1	-1E+10	1	-1E+10	1	-1E+10	1	-1E+10	1
4901784	109	C	06/29/2018	10:49	-132.500	42.968	0	212.90	0	7.8610	0	34.1150	8	26.603	0	211.103	0	164.6	4	56.8	4	-1E+10	1	-1E+10	1	-1E+10	1	-1E+10	1	-1E+10	1	-1E+10	1
4901784	109	C	06/29/2018	10:49	-132.500	42.968	0	215.40	0	7.8180	0	34.1110	8	26.606	0	213.580	0	164.0	4	56.5	4	-1E+10	1	-1E+10	1	-1E+10	1	-1E+10	1	-1E+10	1	-1E+10	1
4901784	109	C	06/29/2018	10:49	-132.500	42.968	0	217.10	0	7.8020	0	34.1100	8	26.607	0	215.265	0	163.5	4	56.4	4	-1E+10	1	-1E+10	1	-1E+10	1	-1E+10	1	-1E+10	1	-1E+10	1
4901784	109	C	06/29/2018	10:49	-132.500	42.968	0	219.70	0	7.7760	0	34.1110	8	26.612	0	217.842	0	162.5	4	56.0	4	-1E+10	1	-1E+10	1	-1E+10	1	-1E+10	1	-1E+10	1	-1E+10	1
4901784	109	C	06/29/2018	10:49	-132.500	42.968	0	222.20	0	7.7320	0	34.1100	8	26.618	0	220.319	0	161.5	4	55.6	4	-1E+10	1	-1E+10	1	-1E+10	1	-1E+10	1	-1E+10	1	-1E+10	1
4901784	109	C	06/29/2018	10:49	-132.500	42.968	0	224.70	0	7.7070	0	34.1100	8	26.621	0	222.797	0	160.5	4	55.2	4	-1E+10	1	-1E+10	1	-1E+10	1	-1E+10	1	-1E+10	1	-1E+10	1
4901784	109	C	06/29/2018	10:49	-132.500	42.968	0	227.30	0	7.6800	0	34.1080	8	26.624	0	225.373	0	159.5	4	54.8	4	-1E+10	1	-1E+10	1	-1E+10	1	-1E+10	1	-1E+10	1	-1E+10	1
4901784	109	C	06/29/2018	10:49	-132.500	42.968	0	229.80	0	7.6390	0	34.1080	8	26.630	0	227.851	0	158.4	4	54.4	4	-1E+10	1	-1E+10	1	-1E+10	1	-1E+10	1	-1E+10	1	-1E+10	1
4901784	109	C	06/29/2018	10:49	-132.500	42.968	0	232.20	0	7.6080	0	34.1060	8	26.632	0	230.229	0	157.4	4	54.0	4	-1E+10	1	-1E+10	1	-1E+10	1	-1E+10	1	-1E+10	1	-1E+10	1
4901784	109	C	06/29/2018	10:49	-132.500	42.968	0	234.70	0	7.5800	0	34.1050	8	26.636	0	232.706	0	156.0	4	53.5	4	-1E+10	1	-1E+10	1	-1E+10	1	-1E+10	1	-1E+10	1	-1E+10	1
4901784	109	C	06/29/2018	10:49	-132.500	42.968	0	237.30	0	7.5410	0	34.1060	8	26.642	0	235.283	0	154.4	4	52.9	4	-1E+10	1	-1E+10	1	-1E+10	1	-1E+10	1	-1E+10	1	-1E+10	1
4901784	109	C	06/29/2018	10:49	-132.500	42.968	0	239.80	0	7.5020	0	34.1010	8	26.644	0	237.760	0	152.8	4	52.3	4	-1E+10	1	-1E+10	1	-1E+10	1	-1E+10	1	-1E+10	1	-1E+10	1
4901784	109	C	06/29/2018	10:49	-132.500	42.968	0	242.40	0	7.4480	0	34.0970	8	26.648	0	240.336	0	151.1	4	51.7	4	-1E+10	1	-1E+10	1	-1E+10	1	-1E+10	1	-1E+10	1	-1E+10	1
4901784	109	C	06/29/2018	10:49	-132.500	42.968	0	245.00	0	7.3850	0	34.0960	8	26.657	0	242.913	0	149.8	4	51.1	4	-1E+10	1	-1E+10	1	-1E+10	1	-1E+10	1	-1E+10	1	-1E+10	1
4901784	109	C	06/29/2018	10:49	-132.500	42.968	0	247.50	0	7.3350	0	34.0950	8	26.663	0	245.390	0	148.5	4	50.7	4	-1E+10	1	-1E+10	1	-1E+10	1	-1E+10	1	-1E+10	1	-1E+10	1
4901784	109	C	06/29/2018	10:49	-132.500	42.968	0	250.00	0	7.3190	0	34.0950	8	26.665	0	247.867	0	147.6	4	50.3	4	-1E+10	1	-1E+10	1	-1E+10	1	-1E+10	1	-1E+10	1	-1E+10	1
4901784	109	C	06/29/2018	10:49	-132.500	42.968	0	252.40	0	7.3050	0	34.0920	8	26.665	0	250.245	0	146.4	4	49.9	4	-1E+10	1	-1E+10	1	-1E+10	1	-1E+10	1	-1E+10	1	-1E+10	1
4901784	109	C	06/29/2018	10:49	-132.500	42.968	0	254.90	0	7.2500	0	34.0930	8	26.673	0	252.722	0	145.0	4	49.4	4	-1E+10	1	-1E+10	1	-1E+10	1	-1E+10	1	-1E+10	1	-1E+10	1
4901784	109	C	06/29/2018	10:49	-132.500	42.968	0	257.50	0	7.1940	0	34.0910	8	26.679	0	255.298	0	143.8	4	48.9	4	-1E+10	1	-1E+10	1	-1E+10	1	-1E+10	1	-1E+10	1	-1E+10	1
4901784	109	C	06/29/2018	10:49	-132.500	42.968	0	260.00	0	7.1500	0	34.0920	8	26.686	0	257.776	0	143.0	4	48.6	4	-1E+10	1	-1E+10	1	-1E+10	1	-1E+10	1	-1E+10	1	-1E+10	1
4901784	109	C	06/29/2018	10:49	-132.500	42.968	0	262.50	0	7.1320	0	34.0910	8	26.688	0	260.253	0	142.5	4	48.4	4	-1E+10	1	-1E+10	1	-1E+10	1	-1E+10	1	-1E+10	1	-1E+10	1
4901784	109	C	06/29/2018	10:49	-132.500	42.968	0	265.00	0	7.0990	0	34.0920	8	26.694	0	262.730	0	142.0	4	48.2	4	-1E+10	1	-1E+10	1	-1E+10	1	-1E+10	1	-1E+10	1	-1E+10	1
4901784	109	C	06/29/2018	10:49	-132.500	42.968	0	267.60	0	7.0850	0	34.0920	8	26.695	0	265.306	0	141.8	4	48.1	4	-1E+10	1	-1E+10	1	-1E+10	1	-1E+10	1	-1E+10	1	-1E+10	1
4901784	109	C	06/29/2018	10:49	-132.500	42.968	0	270.10	0	7.0860	0	34.0920	8	26.695	0	267.783	0	141.3	4	47.9	4	-1E+10	1	-1E+10	1	-1E+10	1	-1E+10	1	-1E+10	1	-1E+10	1
4901784	109	C	06/29/2018	10:49	-132.500	42.968	0	272.50	0	7.0840	0	34.0920	8	26.696	0	270.160	0	140.6	4	47.7	4	-1E+10	1	-1E+10	1	-1E+10	1	-1E+10	1	-1E+10	1	-1E+10	1
4901784	109	C	06/29/2018	10:49	-132.500	42.968	0	275.00	0	7.0430	0	34.0970	8	26.705	0	272.637	0	139.7	4	47.3	4	-1E+10	1	-1E+10	1	-1E+10	1	-1E+10	1	-1E+10	1	-1E+10	1
4901784	109	C	06/29/2018	10:49	-132.500	42.968	0	277.60	0	7.0310	0	34.0990	8	26.709	0	275.213	0	138.6	4	47.0	4	-1E+10	1	-1E+10	1	-1E+10	1	-1E+10	1	-1E+10	1	-1E+10	1
4901784	109	C	06/29/2018	10:49	-132.500	42.968	0	280.10	0	7.0110	0	34.0970	8	26.710	0	277.690	0	137.1	4	46.4	4	-1E+10	1	-1E+10	1	-1E+10	1	-1E+10	1	-1E+10	1	-1E+10	1
4901784	109	C	06/29/2018	10:49	-132.500	42.968	0	282.60	0	6.9720	0	34.0920	8	26.711	0	280.167	0	135.1	4	45.7	4	-1E+10	1	-1E+10	1	-1E+10	1	-1E+10	1	-1E+10	1	-1E+10	1
4901784	109	C	06/29/2018	10:49	-132.500	42.968	0	285.20	0	6.9190	0	34.0940	8	26.720	0	282.743	0	132.9	4	44.9	4	-1E+10	1	-1E+10	1	-1E+10	1	-1E+10	1	-1E+10	1	-1E+10	1
4901784	109	C	06/29/2018	10:49	-132.500	42.968	0	287.70	0	6.8200	0	34.0900	8	26.730	0	285.219	0	130.9	4	44.1	4	-1E+10	1	-1E+10	1	-1E+10	1	-1E+10	1	-1E+10	1	-1E+10	1
4901784	109	C	06/29/2018	10:49	-132.500	42.968	0	290.20	0	6.7700	0	34.0910	8	26.738	0	287.696	0	129.6	4	43.6	4	-1E+10	1	-1E+10	1	-1E+10	1	-1E+10	1	-1E+10	1	-1E+10	1
4901784	109	C	06/29/2018	10:49	-132.500	42.968	0	292.80	0	6.7390	0	34.0870	8	26.739	0	290.272	0	128.2	4	43.1	4	-1E+10	1	-1E+10	1	-1E+10	1	-1E+10	1	-1E+10	1	-1E+10	1
4901784	109	C	06/29/2018	10:49	-132.500	42.968	0	295.40	0	6.6770	0	34.0880	8	26.748	0	292.848	0	126.9	4	42.6	4	-1E+10	1	-1E+10	1	-1E+10	1	-1E+10	1	-1E+10	1	-1E+10	1
4901784	109	C	06/29/2018	10:49	-132.500	42.968	0	297.90	0	6.6130	0	34.0870	8	26.756	0	295.324	0	125.5	4	42.1	4	-1E+10	1	-1E+10	1	-1E+10	1	-1E+10	1	-1E+10	1	-1E+10	1
4901784	109	C	06/29/2018	10:49	-132.500	42.968	0	300.40	0	6.5770	0	34.0850	8	26.759	0	297.801	0	124.4	4	41.7	4	-1E+10	1	-1E+10	1	-1E+10	1	-1E+10	1	-1E+10	1	-1E+10	1
4901784	109	C	06/29/2018	10:49	-132.500	42.968	0	302.90	0	6.5570	0	34.0840	8	26.761	0	300.277	0	123.1	4	41.2	4	-1E+10	1	-1E+10	1	-1E+10	1	-1E+10	1	-1E+10	1	-1E+10	1
4901784	109	C	06/29/2018	10:49	-132.500	42.968	0	305.40	0	6.4690	0	34.0840	8	26.772	0	302.754	0	121.8	4	40.7	4	-1E+10	1	-1E+10	1	-1E+10	1	-1E+10	1	-1E+10	1	-1E+10	1
4901784	109	C	06/29/2018	10:49	-132.500	42.968	0	307.90	0	6.4550	0	34.0830	8	26.773	0	305.230	0	120.7	4	40.3	4	-1E+10	1	-1E+10	1	-1E+10	1	-1E+10	1	-1E+10	1	-1E+10	1
4901784	109	C	06/29/2018	10:49	-132.500	42.968	0	309.60	0	6.4120	0	34.0820	8	26.778	0	306.914	0	119.9	4	40.0	4	-1E+10	1	-1E+10	1	-1E+10	1	-1E+10	1	-1E+10	1	-1E+10	1
4901784	109	C	06/29/2018	10:49	-132.500	42.968	0	312.20	0	6.3550	0	34.0820	8	26.786	0	309.490	0	118.6	4	39.6	4	-1E+10	1	-1E+10	1	-1E+10	1	-1E+10	1	-1E+10	1	-1E+10	1
4901784	109	C	06/29/2018	10:49	-132.500	42.968	0	314.80	0	6.2960	0	34.0810	8	26.792	0	312.065	0	117.6	4	39.2	4	-1E+10	1	-1E+10	1	-1E+10	1	-1E+10	1	-1E+10	1	-1E+10	1
4901784	109	C	06/29/2018	10:49	-132.500	42.968	0	317.40	0	6.2480	0	34.0780	8	26.796	0	314.641	0	116.8	4	38.9	4	-1E+10	1	-1E+10	1	-1E+10	1	-1E+10	1	-1E+10	1	-1E+10	1
4901784	109	C	06/29/2018	10:49	-132.500	42.968	0	320.10	0	6.2280	0	34.0770	8	26.798	0	317.315	0	116.0	4	38.6	4	-1E+10	1	-1E+10	1	-1E+10	1	-1E+10	1	-1E+10	1	-1E+10	1
4901784	109	C	06/29/2018	10:49	-132.500	42.968	0	322.80	0	6.1920	0	34.0780	8	26.803	0	319.990	0	115.2	4	38.3	4	-1E+10	1	-1E+10	1	-1E+10	1	-1E+10	1	-1E+10	1	-1E+10	1
4901784	109	C	06/29/2018	10:49	-132.500	42.968	0	325.50	0	6.1570	0	34.0760	8	26.806	0	322.664	0	114.6	4	38.0	4	-1E+10	1	-1E+10	1	-1E+10	1	-1E+10	1	-1E+10	1	-1E+10	1
4901784	109	C	06/29/2018	10:49	-132.500	42.968	0	327.30	0	6.1500	0	34.0750	8	26.806	0	324.447	0	114.0	4	37.8	4	-1E+10	1	-1E+10	1	-1E+10	1	-1E+10	1	-1E+10	1	-1E+10	1
4901784	109	C	06/29/2018	10:49	-132.500	42.968	0	330.00	0	6.1050	0	34.0750	8	26.812	0	327.121	0	113.1	4	37.5	4	-1E+10	1	-1E+10	1	-1E+10	1	-1E+10	1	-1E+10	1	-1E+10	1
4901784	109	C	06/29/2018	10:49	-132.500	42.968	0	332.60	0	6.0710	0	34.0750	8	26.817	0	329.697	0	112.3	4	37.2	4	-1E+10	1	-1E+10	1	-1E+10	1	-1E+10	1	-1E+10	1	-1E+10	1
4901784	109	C	06/29/2018	10:49	-132.500	42.968	0	335.30	0	6.0550	0	34.0720	8	26.816	0	332.371	0	111.5	4	36.9	4	-1E+10	1	-1E+10	1	-1E+10	1	-1E+10	1	-1E+10	1	-1E+10	1
4901784	109	C	06/29/2018	10:49	-132.500	42.968	0	338.00	0	6.0340	0	34.0710	8	26.818	0	335.045	0	110.3	4	36.5	4	-1E+10	1	-1E+10	1	-1E+10	1	-1E+10	1	-1E+10	1	-1E+10	1
4901784	109	C	06/29/2018	10:49	-132.500	42.968	0	339.90	0	5.9730	0	34.0710	8	26.826	0	336.927	0	109.7	4	36.3	4	-1E+10	1	-1E+10	1	-1E+10	1	-1E+10	1	-1E+10	1	-1E+10	1
4901784	109	C	06/29/2018	10:49	-132.500	42.968	0	342.60	0	5.9420	0	34.0720	8	26.830	0	339.601	0	108.7	4	35.9	4	-1E+10	1	-1E+10	1	-1E+10	1	-1E+10	1	-1E+10	1	-1E+10	1
4901784	109	C	06/29/2018	10:49	-132.500	42.968	0	345.30	0	5.9060	0	34.0710	8	26.834	0	342.275	0	107.7	4	35.5	4	-1E+10	1	-1E+10	1	-1E+10	1	-1E+10	1	-1E+10	1	-1E+10	1
4901784	109	C	06/29/2018	10:49	-132.500	42.968	0	347.00	0	5.8750	0	34.0730	8	26.840	0	343.959	0	107.0	4	35.3	4	-1E+10	1	-1E+10	1	-1E+10	1	-1E+10	1	-1E+10	1	-1E+10	1
4901784	109	C	06/29/2018	10:49	-132.500	42.968	0	349.80	0	5.8480	0	34.0690	8	26.840	0	346.732	0	106.0	4	34.9	4	-1E+10	1	-1E+10	1	-1E+10	1	-1E+10	1	-1E+10	1	-1E+10	1
4901784	109	C	06/29/2018	10:49	-132.500	42.968	0	352.50	0	5.7920	0	34.0700	8	26.848	0	349.406	0	105.0	4	34.5	4	-1E+10	1	-1E+10	1	-1E+10	1	-1E+10	1	-1E+10	1	-1E+10	1
4901784	109	C	06/29/2018	10:49	-132.500	42.968	0	354.40	0	5.7730	0	34.0700	8	26.850	0	351.288	0	104.3	4	34.3	4	-1E+10	1	-1E+10	1	-1E+10	1	-1E+10	1	-1E+10	1	-1E+10	1
4901784	109	C	06/29/2018	10:49	-132.500	42.968	0	357.20	0	5.7610	0	34.0670	8	26.849	0	354.061	0	103.0	4	33.9	4	-1E+10	1	-1E+10	1	-1E+10	1	-1E+10	1	-1E+10	1	-1E+10	1
4901784	109	C	06/29/2018	10:49	-132.500	42.968	0	360.00	0	5.6890	0	34.0700	8	26.860	0	356.834	0	101.3	4	33.3	4	-1E+10	1	-1E+10	1	-1E+10	1	-1E+10	1	-1E+10	1	-1E+10	1
4901784	109	C	06/29/2018	10:49	-132.500	42.968	0	362.80	0	5.6430	0	34.0670	8	26.863	0	359.607	0	100.3	4	32.9	4	-1E+10	1	-1E+10	1	-1E+10	1	-1E+10	1	-1E+10	1	-1E+10	1
4901784	109	C	06/29/2018	10:49	-132.500	42.968	0	365.60	0	5.6110	0	34.0660	8	26.867	0	362.380	0	99.5	4	32.6	4	-1E+10	1	-1E+10	1	-1E+10	1	-1E+10	1	-1E+10	1	-1E+10	1
4901784	109	C	06/29/2018	10:49	-132.500	42.968	0	367.50	0	5.5890	0	34.0670	8	26.870	0	364.261	0	98.6	4	32.3	4	-1E+10	1	-1E+10	1	-1E+10	1	-1E+10	1	-1E+10	1	-1E+10	1
4901784	109	C	06/29/2018	10:49	-132.500	42.968	0	369.40	0	5.5340	0	34.0730	8	26.881	0	366.143	0	98.1	4	32.1	4	-1E+10	1	-1E+10	1	-1E+10	1	-1E+10	1	-1E+10	1	-1E+10	1
4901784	109	C	06/29/2018	10:49	-132.500	42.968	0	372.30	0	5.5210	0	34.0680	8	26.879	0	369.015	0	97.5	4	31.9	4	-1E+10	1	-1E+10	1	-1E+10	1	-1E+10	1	-1E+10	1	-1E+10	1
4901784	109	C	06/29/2018	10:49	-132.500	42.968	0	375.70	0	5.5130	0	34.0680	8	26.880	0	372.382	0	96.8	4	31.7	4	-1E+10	1	-1E+10	1	-1E+10	1	-1E+10	1	-1E+10	1	-1E+10	1
4901784	109	C	06/29/2018	10:49	-132.500	42.968	0	377.70	0	5.4910	0	34.0680	8	26.883	0	374.362	0	96.3	4	31.5	4	-1E+10	1	-1E+10	1	-1E+10	1	-1E+10	1	-1E+10	1	-1E+10	1
4901784	109	C	06/29/2018	10:49	-132.500	42.968	0	380.10	0	5.4740	0	34.0680	8	26.885	0	376.739	0	95.7	4	31.3	4	-1E+10	1	-1E+10	1	-1E+10	1	-1E+10	1	-1E+10	1	-1E+10	1
4901784	109	C	06/29/2018	10:49	-132.500	42.968	0	382.60	0	5.4630	0	34.0670	8	26.885	0	379.214	0	95.0	4	31.0	4	-1E+10	1	-1E+10	1	-1E+10	1	-1E+10	1	-1E+10	1	-1E+10	1
4901784	109	C	06/29/2018	10:49	-132.500	42.968	0	385.00	0	5.4310	0	34.0700	8	26.891	0	381.591	0	93.8	4	30.6	4	-1E+10	1	-1E+10	1	-1E+10	1	-1E+10	1	-1E+10	1	-1E+10	1
4901784	109	C	06/29/2018	10:49	-132.500	42.968	0	387.40	0	5.3950	0	34.0680	8	26.894	0	383.968	0	92.9	4	30.3	4	-1E+10	1	-1E+10	1	-1E+10	1	-1E+10	1	-1E+10	1	-1E+10	1
4901784	109	C	06/29/2018	10:49	-132.500	42.968	0	389.90	0	5.3750	0	34.0680	8	26.897	0	386.443	0	92.1	4	30.0	4	-1E+10	1	-1E+10	1	-1E+10	1	-1E+10	1	-1E+10	1	-1E+10	1
4901784	109	C	06/29/2018	10:49	-132.500	42.968	0	392.30	0	5.3560	0	34.0670	8	26.898	0	388.820	0	91.0	4	29.7	4	-1E+10	1	-1E+10	1	-1E+10	1	-1E+10	1	-1E+10	1	-1E+10	1
4901784	109	C	06/29/2018	10:49	-132.500	42.968	0	394.70	0	5.3090	0	34.0710	8	26.907	0	391.196	0	90.0	4	29.3	4	-1E+10	1	-1E+10	1	-1E+10	1	-1E+10	1	-1E+10	1	-1E+10	1
4901784	109	C	06/29/2018	10:49	-132.500	42.968	0	397.20	0	5.2880	0	34.0690	8	26.908	0	393.671	0	89.1	4	29.0	4	-1E+10	1	-1E+10	1	-1E+10	1	-1E+10	1	-1E+10	1	-1E+10	1
4901784	109	C	06/29/2018	10:49	-132.500	42.968	0	399.70	0	5.2620	0	34.0710	8	26.912	0	396.147	0	88.2	4	28.7	4	-1E+10	1	-1E+10	1	-1E+10	1	-1E+10	1	-1E+10	1	-1E+10	1
4901784	109	C	06/29/2018	10:49	-132.500	42.968	0	402.10	0	5.2470	0	34.0710	8	26.914	0	398.523	0	87.3	4	28.4	4	-1E+10	1	-1E+10	1	-1E+10	1	-1E+10	1	-1E+10	1	-1E+10	1
4901784	109	C	06/29/2018	10:49	-132.500	42.968	0	404.70	0	5.2080	0	34.0740	8	26.921	0	401.098	0	86.3	4	28.0	4	-1E+10	1	-1E+10	1	-1E+10	1	-1E+10	1	-1E+10	1	-1E+10	1
4901784	109	C	06/29/2018	10:49	-132.500	42.968	0	407.10	0	5.1860	0	34.0740	8	26.924	0	403.474	0	85.7	4	27.8	4	-1E+10	1	-1E+10	1	-1E+10	1	-1E+10	1	-1E+10	1	-1E+10	1
4901784	109	C	06/29/2018	10:49	-132.500	42.968	0	409.70	0	5.1670	0	34.0750	8	26.927	0	406.048	0	85.2	4	27.6	4	-1E+10	1	-1E+10	1	-1E+10	1	-1E+10	1	-1E+10	1	-1E+10	1
4901784	109	C	06/29/2018	10:49	-132.500	42.968	0	412.10	0	5.1530	0	34.0760	8	26.929	0	408.424	0	84.6	4	27.4	4	-1E+10	1	-1E+10	1	-1E+10	1	-1E+10	1	-1E+10	1	-1E+10	1
4901784	109	C	06/29/2018	10:49	-132.500	42.968	0	414.80	0	5.1330	0	34.0770	8	26.932	0	411.098	0	83.8	4	27.2	4	-1E+10	1	-1E+10	1	-1E+10	1	-1E+10	1	-1E+10	1	-1E+10	1
4901784	109	C	06/29/2018	10:49	-132.500	42.968	0	417.30	0	5.1190	0	34.0770	8	26.934	0	413.573	0	83.1	4	26.9	4	-1E+10	1	-1E+10	1	-1E+10	1	-1E+10	1	-1E+10	1	-1E+10	1
4901784	109	C	06/29/2018	10:49	-132.500	42.968	0	420.00	0	5.0970	0	34.0800	8	26.939	0	416.246	0	82.2	4	26.6	4	-1E+10	1	-1E+10	1	-1E+10	1	-1E+10	1	-1E+10	1	-1E+10	1
4901784	109	C	06/29/2018	10:49	-132.500	42.968	0	422.50	0	5.0750	0	34.0820	8	26.943	0	418.721	0	81.1	4	26.3	4	-1E+10	1	-1E+10	1	-1E+10	1	-1E+10	1	-1E+10	1	-1E+10	1
4901784	109	C	06/29/2018	10:49	-132.500	42.968	0	425.20	0	5.0410	0	34.0850	8	26.949	0	421.394	0	80.0	4	25.9	4	-1E+10	1	-1E+10	1	-1E+10	1	-1E+10	1	-1E+10	1	-1E+10	1
4901784	109	C	06/29/2018	10:49	-132.500	42.968	0	427.70	0	5.0060	0	34.0890	8	26.956	0	423.869	0	79.0	4	25.5	4	-1E+10	1	-1E+10	1	-1E+10	1	-1E+10	1	-1E+10	1	-1E+10	1
4901784	109	C	06/29/2018	10:49	-132.500	42.968	0	429.50	0	5.0000	0	34.0880	8	26.956	0	425.651	0	78.6	4	25.4	4	-1E+10	1	-1E+10	1	-1E+10	1	-1E+10	1	-1E+10	1	-1E+10	1
4901784	109	C	06/29/2018	10:49	-132.500	42.968	0	432.20	0	4.9730	0	34.0920	8	26.962	0	428.324	0	77.9	4	25.1	4	-1E+10	1	-1E+10	1	-1E+10	1	-1E+10	1	-1E+10	1	-1E+10	1
4901784	109	C	06/29/2018	10:49	-132.500	42.968	0	434.90	0	4.9560	0	34.0950	8	26.967	0	430.997	0	77.2	4	24.9	4	-1E+10	1	-1E+10	1	-1E+10	1	-1E+10	1	-1E+10	1	-1E+10	1
4901784	109	C	06/29/2018	10:49	-132.500	42.968	0	437.50	0	4.9430	0	34.0950	8	26.968	0	433.571	0	76.3	4	24.6	4	-1E+10	1	-1E+10	1	-1E+10	1	-1E+10	1	-1E+10	1	-1E+10	1
4901784	109	C	06/29/2018	10:49	-132.500	42.968	0	440.20	0	4.9260	0	34.0970	8	26.972	0	436.244	0	75.0	4	24.2	4	-1E+10	1	-1E+10	1	-1E+10	1	-1E+10	1	-1E+10	1	-1E+10	1
4901784	109	C	06/29/2018	10:49	-132.500	42.968	0	442.80	0	4.9010	0	34.0990	8	26.976	0	438.818	0	73.8	4	23.8	4	-1E+10	1	-1E+10	1	-1E+10	1	-1E+10	1	-1E+10	1	-1E+10	1
4901784	109	C	06/29/2018	10:49	-132.500	42.968	0	445.60	0	4.8920	0	34.1000	8	26.978	0	441.590	0	72.9	4	23.5	4	-1E+10	1	-1E+10	1	-1E+10	1	-1E+10	1	-1E+10	1	-1E+10	1
4901784	109	C	06/29/2018	10:49	-132.500	42.968	0	447.40	0	4.8830	0	34.1020	8	26.981	0	443.372	0	72.2	4	23.3	4	-1E+10	1	-1E+10	1	-1E+10	1	-1E+10	1	-1E+10	1	-1E+10	1
4901784	109	C	06/29/2018	10:49	-132.500	42.968	0	450.10	0	4.8650	0	34.1020	8	26.983	0	446.045	0	71.1	4	22.9	4	-1E+10	1	-1E+10	1	-1E+10	1	-1E+10	1	-1E+10	1	-1E+10	1
4901784	109	C	06/29/2018	10:49	-132.500	42.968	0	452.80	0	4.8430	0	34.1070	8	26.989	0	448.717	0	70.0	4	22.5	4	-1E+10	1	-1E+10	1	-1E+10	1	-1E+10	1	-1E+10	1	-1E+10	1
4901784	109	C	06/29/2018	10:49	-132.500	42.968	0	454.60	0	4.8370	0	34.1050	8	26.988	0	450.499	0	69.2	4	22.3	4	-1E+10	1	-1E+10	1	-1E+10	1	-1E+10	1	-1E+10	1	-1E+10	1
4901784	109	C	06/29/2018	10:49	-132.500	42.968	0	457.40	0	4.8200	0	34.1050	8	26.990	0	453.271	0	67.8	4	21.8	4	-1E+10	1	-1E+10	1	-1E+10	1	-1E+10	1	-1E+10	1	-1E+10	1
4901784	109	C	06/29/2018	10:49	-132.500	42.968	0	460.10	0	4.7870	0	34.1070	8	26.995	0	455.944	0	66.2	4	21.3	4	-1E+10	1	-1E+10	1	-1E+10	1	-1E+10	1	-1E+10	1	-1E+10	1
4901784	109	C	06/29/2018	10:49	-132.500	42.968	0	462.00	0	4.7610	0	34.1120	8	27.002	0	457.824	0	65.3	4	21.0	4	-1E+10	1	-1E+10	1	-1E+10	1	-1E+10	1	-1E+10	1	-1E+10	1
4901784	109	C	06/29/2018	10:49	-132.500	42.968	0	464.80	0	4.7440	0	34.1140	8	27.006	0	460.596	0	64.0	4	20.6	4	-1E+10	1	-1E+10	1	-1E+10	1	-1E+10	1	-1E+10	1	-1E+10	1
4901784	109	C	06/29/2018	10:49	-132.500	42.968	0	467.50	0	4.7320	0	34.1160	8	27.009	0	463.268	0	62.5	4	20.1	4	-1E+10	1	-1E+10	1	-1E+10	1	-1E+10	1	-1E+10	1	-1E+10	1
4901784	109	C	06/29/2018	10:49	-132.500	42.968	0	470.30	0	4.7080	0	34.1230	8	27.017	0	466.040	0	60.8	4	19.5	4	-1E+10	1	-1E+10	1	-1E+10	1	-1E+10	1	-1E+10	1	-1E+10	1
4901784	109	C	06/29/2018	10:49	-132.500	42.968	0	473.00	0	4.6800	0	34.1270	8	27.023	0	468.712	0	59.6	4	19.1	4	-1E+10	1	-1E+10	1	-1E+10	1	-1E+10	1	-1E+10	1	-1E+10	1
4901784	109	C	06/29/2018	10:49	-132.500	42.968	0	474.90	0	4.6700	0	34.1310	8	27.028	0	470.593	0	58.7	4	18.8	4	-1E+10	1	-1E+10	1	-1E+10	1	-1E+10	1	-1E+10	1	-1E+10	1
4901784	109	C	06/29/2018	10:49	-132.500	42.968	0	477.80	0	4.6700	0	34.1340	8	27.030	0	473.463	0	57.7	4	18.5	4	-1E+10	1	-1E+10	1	-1E+10	1	-1E+10	1	-1E+10	1	-1E+10	1
4901784	109	C	06/29/2018	10:49	-132.500	42.968	0	480.60	0	4.6620	0	34.1390	8	27.035	0	476.235	0	56.8	4	18.2	4	-1E+10	1	-1E+10	1	-1E+10	1	-1E+10	1	-1E+10	1	-1E+10	1
4901784	109	C	06/29/2018	10:49	-132.500	42.968	0	482.50	0	4.6600	0	34.1390	8	27.035	0	478.115	0	56.4	4	18.1	4	-1E+10	1	-1E+10	1	-1E+10	1	-1E+10	1	-1E+10	1	-1E+10	1
4901784	109	C	06/29/2018	10:49	-132.500	42.968	0	485.30	0	4.6520	0	34.1420	8	27.038	0	480.887	0	55.5	4	17.8	4	-1E+10	1	-1E+10	1	-1E+10	1	-1E+10	1	-1E+10	1	-1E+10	1
4901784	109	C	06/29/2018	10:49	-132.500	42.968	0	488.10	0	4.6390	0	34.1450	8	27.042	0	483.658	0	54.7	4	17.5	4	-1E+10	1	-1E+10	1	-1E+10	1	-1E+10	1	-1E+10	1	-1E+10	1
4901784	109	C	06/29/2018	10:49	-132.500	42.968	0	489.90	0	4.6350	0	34.1460	8	27.043	0	485.440	0	54.3	4	17.4	4	-1E+10	1	-1E+10	1	-1E+10	1	-1E+10	1	-1E+10	1	-1E+10	1
4901784	109	C	06/29/2018	10:49	-132.500	42.968	0	492.80	0	4.6250	0	34.1470	8	27.045	0	488.310	0	53.8	4	17.2	4	-1E+10	1	-1E+10	1	-1E+10	1	-1E+10	1	-1E+10	1	-1E+10	1
4901784	109	C	06/29/2018	10:49	-132.500	42.968	0	495.50	0	4.6170	0	34.1490	8	27.048	0	490.982	0	53.1	4	17.0	4	-1E+10	1	-1E+10	1	-1E+10	1	-1E+10	1	-1E+10	1	-1E+10	1
4901784	109	C	06/29/2018	10:49	-132.500	42.968	0	497.40	0	4.6150	0	34.1490	8	27.048	0	492.862	0	52.7	4	16.9	4	-1E+10	1	-1E+10	1	-1E+10	1	-1E+10	1	-1E+10	1	-1E+10	1
4901784	109	C	06/29/2018	10:49	-132.500	42.968	0	500.30	0	4.6040	0	34.1510	8	27.051	0	495.732	0	51.9	4	16.6	4	-1E+10	1	-1E+10	1	-1E+10	1	-1E+10	1	-1E+10	1	-1E+10	1
4901784	109	C	06/29/2018	10:49	-132.500	42.968	0	505.00	0	4.5830	0	34.1550	8	27.056	0	500.384	0	50.4	4	16.1	4	-1E+10	1	-1E+10	1	-1E+10	1	-1E+10	1	-1E+10	1	-1E+10	1
4901784	109	C	06/29/2018	10:49	-132.500	42.968	0	509.70	0	4.5550	0	34.1610	8	27.064	0	505.035	0	48.8	4	15.6	4	-1E+10	1	-1E+10	1	-1E+10	1	-1E+10	1	-1E+10	1	-1E+10	1
4901784	109	C	06/29/2018	10:49	-132.500	42.968	0	514.40	0	4.5430	0	34.1650	8	27.069	0	509.686	0	47.0	4	15.0	4	-1E+10	1	-1E+10	1	-1E+10	1	-1E+10	1	-1E+10	1	-1E+10	1
4901784	109	C	06/29/2018	10:49	-132.500	42.968	0	520.00	0	4.5150	0	34.1730	8	27.078	0	515.228	0	45.0	4	14.4	4	-1E+10	1	-1E+10	1	-1E+10	1	-1E+10	1	-1E+10	1	-1E+10	1
4901784	109	C	06/29/2018	10:49	-132.500	42.968	0	524.80	0	4.5000	0	34.1780	8	27.084	0	519.978	0	43.3	4	13.8	4	-1E+10	1	-1E+10	1	-1E+10	1	-1E+10	1	-1E+10	1	-1E+10	1
4901784	109	C	06/29/2018	10:49	-132.500	42.968	0	529.60	0	4.4880	0	34.1860	8	27.091	0	524.728	0	41.4	4	13.2	4	-1E+10	1	-1E+10	1	-1E+10	1	-1E+10	1	-1E+10	1	-1E+10	1
4901784	109	C	06/29/2018	10:49	-132.500	42.968	0	535.40	0	4.4740	0	34.1940	8	27.099	0	530.467	0	40.2	4	12.8	4	-1E+10	1	-1E+10	1	-1E+10	1	-1E+10	1	-1E+10	1	-1E+10	1
4901784	109	C	06/29/2018	10:49	-132.500	42.968	0	539.70	0	4.4660	0	34.1970	8	27.103	0	534.722	0	39.1	4	12.5	4	-1E+10	1	-1E+10	1	-1E+10	1	-1E+10	1	-1E+10	1	-1E+10	1
4901784	109	C	06/29/2018	10:49	-132.500	42.968	0	544.50	0	4.4460	0	34.2040	8	27.110	0	539.472	0	37.8	4	12.1	4	-1E+10	1	-1E+10	1	-1E+10	1	-1E+10	1	-1E+10	1	-1E+10	1
4901784	109	C	06/29/2018	10:49	-132.500	42.968	0	550.00	0	4.4250	0	34.2120	8	27.119	0	544.914	0	36.8	4	11.7	4	-1E+10	1	-1E+10	1	-1E+10	1	-1E+10	1	-1E+10	1	-1E+10	1
4901784	109	C	06/29/2018	10:49	-132.500	42.968	0	555.70	0	4.4110	0	34.2160	8	27.124	0	550.553	0	36.0	4	11.5	4	-1E+10	1	-1E+10	1	-1E+10	1	-1E+10	1	-1E+10	1	-1E+10	1
4901784	109	C	06/29/2018	10:49	-132.500	42.968	0	560.50	0	4.3960	0	34.2210	8	27.129	0	555.302	0	35.2	4	11.2	4	-1E+10	1	-1E+10	1	-1E+10	1	-1E+10	1	-1E+10	1	-1E+10	1
4901784	109	C	06/29/2018	10:49	-132.500	42.968	0	565.40	0	4.3820	0	34.2250	8	27.134	0	560.150	0	34.5	4	11.0	4	-1E+10	1	-1E+10	1	-1E+10	1	-1E+10	1	-1E+10	1	-1E+10	1
4901784	109	C	06/29/2018	10:49	-132.500	42.968	0	570.30	0	4.3730	0	34.2290	8	27.138	0	564.998	0	33.7	4	10.8	4	-1E+10	1	-1E+10	1	-1E+10	1	-1E+10	1	-1E+10	1	-1E+10	1
4901784	109	C	06/29/2018	10:49	-132.500	42.968	0	575.30	0	4.3570	0	34.2340	8	27.144	0	569.945	0	32.6	4	10.4	4	-1E+10	1	-1E+10	1	-1E+10	1	-1E+10	1	-1E+10	1	-1E+10	1
4901784	109	C	06/29/2018	10:49	-132.500	42.968	0	580.30	0	4.3400	0	34.2410	8	27.151	0	574.892	0	31.7	4	10.1	4	-1E+10	1	-1E+10	1	-1E+10	1	-1E+10	1	-1E+10	1	-1E+10	1
4901784	109	C	06/29/2018	10:49	-132.500	42.968	0	585.30	0	4.3260	0	34.2460	8	27.157	0	579.838	0	30.8	4	9.8	4	-1E+10	1	-1E+10	1	-1E+10	1	-1E+10	1	-1E+10	1	-1E+10	1
4901784	109	C	06/29/2018	10:49	-132.500	42.968	0	590.30	0	4.3070	0	34.2520	8	27.164	0	584.784	0	29.9	4	9.5	4	-1E+10	1	-1E+10	1	-1E+10	1	-1E+10	1	-1E+10	1	-1E+10	1
4901784	109	C	06/29/2018	10:49	-132.500	42.968	0	595.20	0	4.2870	0	34.2570	8	27.170	0	589.632	0	29.1	4	9.2	4	-1E+10	1	-1E+10	1	-1E+10	1	-1E+10	1	-1E+10	1	-1E+10	1
4901784	109	C	06/29/2018	10:49	-132.500	42.968	0	600.20	0	4.2640	0	34.2620	8	27.176	0	594.578	0	28.2	4	9.0	4	-1E+10	1	-1E+10	1	-1E+10	1	-1E+10	1	-1E+10	1	-1E+10	1
4901784	109	C	06/29/2018	10:49	-132.500	42.968	0	605.20	0	4.2480	0	34.2670	8	27.182	0	599.524	0	27.6	4	8.8	4	-1E+10	1	-1E+10	1	-1E+10	1	-1E+10	1	-1E+10	1	-1E+10	1
4901784	109	C	06/29/2018	10:49	-132.500	42.968	0	610.30	0	4.2360	0	34.2700	8	27.186	0	604.568	0	27.2	4	8.6	4	-1E+10	1	-1E+10	1	-1E+10	1	-1E+10	1	-1E+10	1	-1E+10	1
4901784	109	C	06/29/2018	10:49	-132.500	42.968	0	615.30	0	4.2290	0	34.2720	8	27.188	0	609.514	0	26.8	4	8.5	4	-1E+10	1	-1E+10	1	-1E+10	1	-1E+10	1	-1E+10	1	-1E+10	1
4901784	109	C	06/29/2018	10:49	-132.500	42.968	0	620.50	0	4.2150	0	34.2760	8	27.193	0	614.658	0	26.2	4	8.3	4	-1E+10	1	-1E+10	1	-1E+10	1	-1E+10	1	-1E+10	1	-1E+10	1
4901784	109	C	06/29/2018	10:49	-132.500	42.968	0	625.70	0	4.2030	0	34.2790	8	27.196	0	619.801	0	25.7	4	8.2	4	-1E+10	1	-1E+10	1	-1E+10	1	-1E+10	1	-1E+10	1	-1E+10	1
4901784	109	C	06/29/2018	10:49	-132.500	42.968	0	630.00	0	4.1980	0	34.2810	8	27.199	0	624.054	0	25.2	4	8.0	4	-1E+10	1	-1E+10	1	-1E+10	1	-1E+10	1	-1E+10	1	-1E+10	1
4901784	109	C	06/29/2018	10:49	-132.500	42.968	0	634.30	0	4.1820	0	34.2860	8	27.204	0	628.307	0	24.6	4	7.8	4	-1E+10	1	-1E+10	1	-1E+10	1	-1E+10	1	-1E+10	1	-1E+10	1
4901784	109	C	06/29/2018	10:49	-132.500	42.968	0	639.60	0	4.1760	0	34.2880	8	27.207	0	633.549	0	24.2	4	7.7	4	-1E+10	1	-1E+10	1	-1E+10	1	-1E+10	1	-1E+10	1	-1E+10	1
4901784	109	C	06/29/2018	10:49	-132.500	42.968	0	644.80	0	4.1640	0	34.2900	8	27.209	0	638.691	0	23.6	4	7.5	4	-1E+10	1	-1E+10	1	-1E+10	1	-1E+10	1	-1E+10	1	-1E+10	1
4901784	109	C	06/29/2018	10:49	-132.500	42.968	0	649.90	0	4.1450	0	34.2950	8	27.215	0	643.735	0	22.8	4	7.2	4	-1E+10	1	-1E+10	1	-1E+10	1	-1E+10	1	-1E+10	1	-1E+10	1
4901784	109	C	06/29/2018	10:49	-132.500	42.968	0	655.20	0	4.1280	0	34.3010	8	27.222	0	648.977	0	22.1	4	7.0	4	-1E+10	1	-1E+10	1	-1E+10	1	-1E+10	1	-1E+10	1	-1E+10	1
4901784	109	C	06/29/2018	10:49	-132.500	42.968	0	660.40	0	4.1110	0	34.3050	8	27.227	0	654.119	0	21.4	4	6.8	4	-1E+10	1	-1E+10	1	-1E+10	1	-1E+10	1	-1E+10	1	-1E+10	1
4901784	109	C	06/29/2018	10:49	-132.500	42.968	0	665.70	0	4.0910	0	34.3110	8	27.234	0	659.360	0	20.8	4	6.6	4	-1E+10	1	-1E+10	1	-1E+10	1	-1E+10	1	-1E+10	1	-1E+10	1
4901784	109	C	06/29/2018	10:49	-132.500	42.968	0	670.10	0	4.0790	0	34.3150	8	27.238	0	663.711	0	20.4	4	6.5	4	-1E+10	1	-1E+10	1	-1E+10	1	-1E+10	1	-1E+10	1	-1E+10	1
4901784	109	C	06/29/2018	10:49	-132.500	42.968	0	674.50	0	4.0690	0	34.3180	8	27.242	0	668.063	0	20.0	4	6.3	4	-1E+10	1	-1E+10	1	-1E+10	1	-1E+10	1	-1E+10	1	-1E+10	1
4901784	109	C	06/29/2018	10:49	-132.500	42.968	0	679.80	0	4.0620	0	34.3210	8	27.245	0	673.303	0	19.3	4	6.1	4	-1E+10	1	-1E+10	1	-1E+10	1	-1E+10	1	-1E+10	1	-1E+10	1
4901784	109	C	06/29/2018	10:49	-132.500	42.968	0	685.20	0	4.0490	0	34.3270	8	27.251	0	678.643	0	18.7	4	5.9	4	-1E+10	1	-1E+10	1	-1E+10	1	-1E+10	1	-1E+10	1	-1E+10	1
4901784	109	C	06/29/2018	10:49	-132.500	42.968	0	690.60	0	4.0360	0	34.3320	8	27.256	0	683.982	0	18.2	4	5.8	4	-1E+10	1	-1E+10	1	-1E+10	1	-1E+10	1	-1E+10	1	-1E+10	1
4901784	109	C	06/29/2018	10:49	-132.500	42.968	0	695.20	0	4.0260	0	34.3350	8	27.260	0	688.531	0	17.8	4	5.6	4	-1E+10	1	-1E+10	1	-1E+10	1	-1E+10	1	-1E+10	1	-1E+10	1
4901784	109	C	06/29/2018	10:49	-132.500	42.968	0	699.80	0	4.0090	0	34.3400	8	27.266	0	693.079	0	17.4	4	5.5	4	-1E+10	1	-1E+10	1	-1E+10	1	-1E+10	1	-1E+10	1	-1E+10	1
4901784	109	C	06/29/2018	10:49	-132.500	42.968	0	705.30	0	3.9920	0	34.3440	8	27.271	0	698.517	0	17.3	4	5.5	4	-1E+10	1	-1E+10	1	-1E+10	1	-1E+10	1	-1E+10	1	-1E+10	1
4901784	109	C	06/29/2018	10:49	-132.500	42.968	0	709.80	0	3.9860	0	34.3450	8	27.272	0	702.966	0	17.2	4	5.4	4	-1E+10	1	-1E+10	1	-1E+10	1	-1E+10	1	-1E+10	1	-1E+10	1
4901784	109	C	06/29/2018	10:49	-132.500	42.968	0	714.40	0	3.9840	0	34.3450	8	27.272	0	707.514	0	17.1	4	5.4	4	-1E+10	1	-1E+10	1	-1E+10	1	-1E+10	1	-1E+10	1	-1E+10	1
4901784	109	C	06/29/2018	10:49	-132.500	42.968	0	719.70	0	3.9750	0	34.3460	8	27.274	0	712.754	0	17.0	4	5.4	4	-1E+10	1	-1E+10	1	-1E+10	1	-1E+10	1	-1E+10	1	-1E+10	1
4901784	109	C	06/29/2018	10:49	-132.500	42.968	0	725.10	0	3.9570	0	34.3500	8	27.279	0	718.092	0	16.6	4	5.2	4	-1E+10	1	-1E+10	1	-1E+10	1	-1E+10	1	-1E+10	1	-1E+10	1
4901784	109	C	06/29/2018	10:49	-132.500	42.968	0	730.50	0	3.9510	0	34.3530	8	27.282	0	723.431	0	16.4	4	5.2	4	-1E+10	1	-1E+10	1	-1E+10	1	-1E+10	1	-1E+10	1	-1E+10	1
4901784	109	C	06/29/2018	10:49	-132.500	42.968	0	735.00	0	3.9360	0	34.3550	8	27.285	0	727.880	0	16.1	4	5.1	4	-1E+10	1	-1E+10	1	-1E+10	1	-1E+10	1	-1E+10	1	-1E+10	1
4901784	109	C	06/29/2018	10:49	-132.500	42.968	0	739.50	0	3.9250	0	34.3590	8	27.290	0	732.328	0	15.6	4	4.9	4	-1E+10	1	-1E+10	1	-1E+10	1	-1E+10	1	-1E+10	1	-1E+10	1
4901784	109	C	06/29/2018	10:49	-132.500	42.968	0	745.00	0	3.9020	0	34.3650	8	27.297	0	737.765	0	15.3	4	4.8	4	-1E+10	1	-1E+10	1	-1E+10	1	-1E+10	1	-1E+10	1	-1E+10	1
4901784	109	C	06/29/2018	10:49	-132.500	42.968	0	750.40	0	3.8840	0	34.3690	8	27.302	0	743.103	0	15.1	4	4.8	4	-1E+10	1	-1E+10	1	-1E+10	1	-1E+10	1	-1E+10	1	-1E+10	1
4901784	109	C	06/29/2018	10:49	-132.500	42.968	0	755.60	0	3.8810	0	34.3700	8	27.303	0	748.243	0	14.9	4	4.7	4	-1E+10	1	-1E+10	1	-1E+10	1	-1E+10	1	-1E+10	1	-1E+10	1
4901784	109	C	06/29/2018	10:49	-132.500	42.968	0	759.80	0	3.8660	0	34.3740	8	27.308	0	752.395	0	14.7	4	4.6	4	-1E+10	1	-1E+10	1	-1E+10	1	-1E+10	1	-1E+10	1	-1E+10	1
4901784	109	C	06/29/2018	10:49	-132.500	42.968	0	764.40	0	3.8510	0	34.3770	8	27.312	0	756.941	0	14.4	4	4.5	4	-1E+10	1	-1E+10	1	-1E+10	1	-1E+10	1	-1E+10	1	-1E+10	1
4901784	109	C	06/29/2018	10:49	-132.500	42.968	0	769.80	0	3.8430	0	34.3820	8	27.316	0	762.279	0	13.9	4	4.4	4	-1E+10	1	-1E+10	1	-1E+10	1	-1E+10	1	-1E+10	1	-1E+10	1
4901784	109	C	06/29/2018	10:49	-132.500	42.968	0	775.30	0	3.8380	0	34.3870	8	27.321	0	767.715	0	13.6	4	4.3	4	-1E+10	1	-1E+10	1	-1E+10	1	-1E+10	1	-1E+10	1	-1E+10	1
4901784	109	C	06/29/2018	10:49	-132.500	42.968	0	780.10	0	3.8280	0	34.3910	8	27.325	0	772.459	0	13.4	4	4.2	4	-1E+10	1	-1E+10	1	-1E+10	1	-1E+10	1	-1E+10	1	-1E+10	1
4901784	109	C	06/29/2018	10:49	-132.500	42.968	0	785.00	0	3.8170	0	34.3940	8	27.329	0	777.302	0	13.3	4	4.2	4	-1E+10	1	-1E+10	1	-1E+10	1	-1E+10	1	-1E+10	1	-1E+10	1
4901784	109	C	06/29/2018	10:49	-132.500	42.968	0	790.00	0	3.8110	0	34.3950	8	27.330	0	782.244	0	13.2	4	4.1	4	-1E+10	1	-1E+10	1	-1E+10	1	-1E+10	1	-1E+10	1	-1E+10	1
4901784	109	C	06/29/2018	10:49	-132.500	42.968	0	795.10	0	3.8040	0	34.3970	8	27.332	0	787.284	0	13.0	4	4.1	4	-1E+10	1	-1E+10	1	-1E+10	1	-1E+10	1	-1E+10	1	-1E+10	1
4901784	109	C	06/29/2018	10:49	-132.500	42.968	0	800.00	0	3.7960	0	34.3990	8	27.335	0	792.127	0	12.9	4	4.0	4	-1E+10	1	-1E+10	1	-1E+10	1	-1E+10	1	-1E+10	1	-1E+10	1
4901784	109	C	06/29/2018	10:49	-132.500	42.968	0	805.00	0	3.7810	0	34.4040	8	27.340	0	797.068	0	12.7	4	4.0	4	-1E+10	1	-1E+10	1	-1E+10	1	-1E+10	1	-1E+10	1	-1E+10	1
4901784	109	C	06/29/2018	10:49	-132.500	42.968	0	810.10	0	3.7730	0	34.4060	8	27.343	0	802.108	0	12.6	4	4.0	4	-1E+10	1	-1E+10	1	-1E+10	1	-1E+10	1	-1E+10	1	-1E+10	1
4901784	109	C	06/29/2018	10:49	-132.500	42.968	0	815.20	0	3.7660	0	34.4070	8	27.344	0	807.148	0	12.4	4	3.9	4	-1E+10	1	-1E+10	1	-1E+10	1	-1E+10	1	-1E+10	1	-1E+10	1
4901784	109	C	06/29/2018	10:49	-132.500	42.968	0	820.30	0	3.7490	0	34.4120	8	27.350	0	812.187	0	12.2	4	3.8	4	-1E+10	1	-1E+10	1	-1E+10	1	-1E+10	1	-1E+10	1	-1E+10	1
4901784	109	C	06/29/2018	10:49	-132.500	42.968	0	825.50	0	3.7410	0	34.4190	8	27.356	0	817.326	0	11.9	4	3.7	4	-1E+10	1	-1E+10	1	-1E+10	1	-1E+10	1	-1E+10	1	-1E+10	1
4901784	109	C	06/29/2018	10:49	-132.500	42.968	0	830.70	0	3.7400	0	34.4220	8	27.359	0	822.464	0	11.8	4	3.7	4	-1E+10	1	-1E+10	1	-1E+10	1	-1E+10	1	-1E+10	1	-1E+10	1
4901784	109	C	06/29/2018	10:49	-132.500	42.968	0	835.00	0	3.7420	0	34.4240	8	27.360	0	826.713	0	11.6	4	3.6	4	-1E+10	1	-1E+10	1	-1E+10	1	-1E+10	1	-1E+10	1	-1E+10	1
4901784	109	C	06/29/2018	10:49	-132.500	42.968	0	839.50	0	3.7350	0	34.4300	8	27.366	0	831.159	0	11.3	4	3.6	4	-1E+10	1	-1E+10	1	-1E+10	1	-1E+10	1	-1E+10	1	-1E+10	1
4901784	109	C	06/29/2018	10:49	-132.500	42.968	0	844.90	0	3.7370	0	34.4370	8	27.371	0	836.495	0	11.1	4	3.5	4	-1E+10	1	-1E+10	1	-1E+10	1	-1E+10	1	-1E+10	1	-1E+10	1
4901784	109	C	06/29/2018	10:49	-132.500	42.968	0	850.20	0	3.7420	0	34.4430	8	27.376	0	841.731	0	11.0	4	3.4	4	-1E+10	1	-1E+10	1	-1E+10	1	-1E+10	1	-1E+10	1	-1E+10	1
4901784	109	C	06/29/2018	10:49	-132.500	42.968	0	855.60	0	3.7540	0	34.4500	8	27.380	0	847.067	0	10.8	4	3.4	4	-1E+10	1	-1E+10	1	-1E+10	1	-1E+10	1	-1E+10	1	-1E+10	1
4901784	109	C	06/29/2018	10:49	-132.500	42.968	0	860.20	0	3.7650	0	34.4540	8	27.382	0	851.611	0	10.7	4	3.4	4	-1E+10	1	-1E+10	1	-1E+10	1	-1E+10	1	-1E+10	1	-1E+10	1
4901784	109	C	06/29/2018	10:49	-132.500	42.968	0	864.70	0	3.7720	0	34.4560	8	27.383	0	856.057	0	10.6	4	3.4	4	-1E+10	1	-1E+10	1	-1E+10	1	-1E+10	1	-1E+10	1	-1E+10	1
4901784	109	C	06/29/2018	10:49	-132.500	42.968	0	870.20	0	3.7850	0	34.4610	8	27.386	0	861.491	0	10.5	4	3.3	4	-1E+10	1	-1E+10	1	-1E+10	1	-1E+10	1	-1E+10	1	-1E+10	1
4901784	109	C	06/29/2018	10:49	-132.500	42.968	0	874.90	0	3.7860	0	34.4660	8	27.390	0	866.134	0	10.5	4	3.3	4	-1E+10	1	-1E+10	1	-1E+10	1	-1E+10	1	-1E+10	1	-1E+10	1
4901784	109	C	06/29/2018	10:49	-132.500	42.968	0	879.90	0	3.7830	0	34.4700	8	27.393	0	871.074	0	10.4	4	3.3	4	-1E+10	1	-1E+10	1	-1E+10	1	-1E+10	1	-1E+10	1	-1E+10	1
4901784	109	C	06/29/2018	10:49	-132.500	42.968	0	885.10	0	3.7740	0	34.4720	8	27.396	0	876.211	0	10.4	4	3.3	4	-1E+10	1	-1E+10	1	-1E+10	1	-1E+10	1	-1E+10	1	-1E+10	1
4901784	109	C	06/29/2018	10:49	-132.500	42.968	0	889.90	0	3.7620	0	34.4770	8	27.401	0	880.952	0	10.4	4	3.3	4	-1E+10	1	-1E+10	1	-1E+10	1	-1E+10	1	-1E+10	1	-1E+10	1
4901784	109	C	06/29/2018	10:49	-132.500	42.968	0	894.70	0	3.7550	0	34.4770	8	27.402	0	885.694	0	10.4	4	3.3	4	-1E+10	1	-1E+10	1	-1E+10	1	-1E+10	1	-1E+10	1	-1E+10	1
4901784	109	C	06/29/2018	10:49	-132.500	42.968	0	899.70	0	3.7400	0	34.4800	8	27.406	0	890.633	0	10.4	4	3.3	4	-1E+10	1	-1E+10	1	-1E+10	1	-1E+10	1	-1E+10	1	-1E+10	1
4901784	109	C	06/29/2018	10:49	-132.500	42.968	0	904.70	0	3.7230	0	34.4820	8	27.409	0	895.572	0	10.4	4	3.3	4	-1E+10	1	-1E+10	1	-1E+10	1	-1E+10	1	-1E+10	1	-1E+10	1
4901784	109	C	06/29/2018	10:49	-132.500	42.968	0	909.60	0	3.6960	0	34.4840	8	27.413	0	900.412	0	10.4	4	3.3	4	-1E+10	1	-1E+10	1	-1E+10	1	-1E+10	1	-1E+10	1	-1E+10	1
4901784	109	C	06/29/2018	10:49	-132.500	42.968	0	914.60	0	3.6720	0	34.4890	8	27.420	0	905.351	0	10.4	4	3.3	4	-1E+10	1	-1E+10	1	-1E+10	1	-1E+10	1	-1E+10	1	-1E+10	1
4901784	109	C	06/29/2018	10:49	-132.500	42.968	0	919.60	0	3.6620	0	34.4900	8	27.421	0	910.289	0	10.4	4	3.3	4	-1E+10	1	-1E+10	1	-1E+10	1	-1E+10	1	-1E+10	1	-1E+10	1
4901784	109	C	06/29/2018	10:49	-132.500	42.968	0	924.60	0	3.6560	0	34.4900	8	27.422	0	915.228	0	10.5	4	3.3	4	-1E+10	1	-1E+10	1	-1E+10	1	-1E+10	1	-1E+10	1	-1E+10	1
4901784	109	C	06/29/2018	10:49	-132.500	42.968	0	929.70	0	3.6480	0	34.4920	8	27.425	0	920.265	0	10.5	4	3.3	4	-1E+10	1	-1E+10	1	-1E+10	1	-1E+10	1	-1E+10	1	-1E+10	1
4901784	109	C	06/29/2018	10:49	-132.500	42.968	0	934.80	0	3.6390	0	34.4940	8	27.427	0	925.302	0	10.5	4	3.3	4	-1E+10	1	-1E+10	1	-1E+10	1	-1E+10	1	-1E+10	1	-1E+10	1
4901784	109	C	06/29/2018	10:49	-132.500	42.968	0	939.90	0	3.6330	0	34.4950	8	27.428	0	930.339	0	10.5	4	3.3	4	-1E+10	1	-1E+10	1	-1E+10	1	-1E+10	1	-1E+10	1	-1E+10	1
4901784	109	C	06/29/2018	10:49	-132.500	42.968	0	945.10	0	3.6130	0	34.4960	8	27.431	0	935.474	0	10.5	4	3.3	4	-1E+10	1	-1E+10	1	-1E+10	1	-1E+10	1	-1E+10	1	-1E+10	1
4901784	109	C	06/29/2018	10:49	-132.500	42.968	0	950.20	0	3.6020	0	34.4980	8	27.434	0	940.511	0	10.6	4	3.3	4	-1E+10	1	-1E+10	1	-1E+10	1	-1E+10	1	-1E+10	1	-1E+10	1
4901784	109	C	06/29/2018	10:49	-132.500	42.968	0	955.40	0	3.5890	0	34.5020	8	27.438	0	945.646	0	10.6	4	3.3	4	-1E+10	1	-1E+10	1	-1E+10	1	-1E+10	1	-1E+10	1	-1E+10	1
4901784	109	C	06/29/2018	10:49	-132.500	42.968	0	960.60	0	3.5730	0	34.5050	8	27.442	0	950.781	0	10.7	4	3.4	4	-1E+10	1	-1E+10	1	-1E+10	1	-1E+10	1	-1E+10	1	-1E+10	1
4901784	109	C	06/29/2018	10:49	-132.500	42.968	0	965.00	0	3.5640	0	34.5070	8	27.445	0	955.126	0	10.8	4	3.4	4	-1E+10	1	-1E+10	1	-1E+10	1	-1E+10	1	-1E+10	1	-1E+10	1
4901784	109	C	06/29/2018	10:49	-132.500	42.968	0	969.30	0	3.5510	0	34.5090	8	27.448	0	959.372	0	10.9	4	3.4	4	-1E+10	1	-1E+10	1	-1E+10	1	-1E+10	1	-1E+10	1	-1E+10	1
4901784	109	C	06/29/2018	10:49	-132.500	42.968	0	974.50	0	3.5390	0	34.5130	8	27.452	0	964.507	0	11.0	4	3.4	4	-1E+10	1	-1E+10	1	-1E+10	1	-1E+10	1	-1E+10	1	-1E+10	1
4901784	109	C	06/29/2018	10:49	-132.500	42.968	0	979.70	0	3.5170	0	34.5140	8	27.455	0	969.642	0	11.1	4	3.5	4	-1E+10	1	-1E+10	1	-1E+10	1	-1E+10	1	-1E+10	1	-1E+10	1
4901784	109	C	06/29/2018	10:49	-132.500	42.968	0	985.00	0	3.5010	0	34.5150	8	27.458	0	974.875	0	11.3	4	3.5	4	-1E+10	1	-1E+10	1	-1E+10	1	-1E+10	1	-1E+10	1	-1E+10	1
4901784	109	C	06/29/2018	10:49	-132.500	42.968	0	990.30	0	3.4840	0	34.5180	8	27.462	0	980.108	0	11.4	4	3.6	4	-1E+10	1	-1E+10	1	-1E+10	1	-1E+10	1	-1E+10	1	-1E+10	1
4901784	109	C	06/29/2018	10:49	-132.500	42.968	0	995.70	0	3.4740	0	34.5200	8	27.464	0	985.440	0	11.4	4	3.6	4	-1E+10	1	-1E+10	1	-1E+10	1	-1E+10	1	-1E+10	1	-1E+10	1
4901784	109	C	06/29/2018	10:49	-132.500	42.968	0	1000.20	0	3.4720	0	34.5220	8	27.466	0	989.883	0	11.5	4	3.6	4	-1E+10	1	-1E+10	1	-1E+10	1	-1E+10	1	-1E+10	1	-1E+10	1
4901784	109	C	06/29/2018	10:49	-132.500	42.968	0	1004.70	0	3.4670	0	34.5240	8	27.468	0	994.326	0	11.5	4	3.6	4	-1E+10	1	-1E+10	1	-1E+10	1	-1E+10	1	-1E+10	1	-1E+10	1
4901784	109	C	06/29/2018	10:49	-132.500	42.968	0	1010.10	0	3.4570	0	34.5270	8	27.471	0	999.657	0	11.6	4	3.6	4	-1E+10	1	-1E+10	1	-1E+10	1	-1E+10	1	-1E+10	1	-1E+10	1
4901784	109	C	06/29/2018	10:49	-132.500	42.968	0	1015.50	0	3.4400	0	34.5320	8	27.477	0	1004.988	0	11.7	4	3.7	4	-1E+10	1	-1E+10	1	-1E+10	1	-1E+10	1	-1E+10	1	-1E+10	1
4901784	109	C	06/29/2018	10:49	-132.500	42.968	0	1020.10	0	3.4290	0	34.5360	8	27.481	0	1009.530	0	11.8	4	3.7	4	-1E+10	1	-1E+10	1	-1E+10	1	-1E+10	1	-1E+10	1	-1E+10	1
4901784	109	C	06/29/2018	10:49	-132.500	42.968	0	1024.70	0	3.4220	0	34.5340	8	27.481	0	1014.071	0	11.8	4	3.7	4	-1E+10	1	-1E+10	1	-1E+10	1	-1E+10	1	-1E+10	1	-1E+10	1
4901784	109	C	06/29/2018	10:49	-132.500	42.968	0	1030.20	0	3.4120	0	34.5380	8	27.485	0	1019.500	0	11.8	4	3.7	4	-1E+10	1	-1E+10	1	-1E+10	1	-1E+10	1	-1E+10	1	-1E+10	1
4901784	109	C	06/29/2018	10:49	-132.500	42.968	0	1034.80	0	3.4100	0	34.5380	8	27.485	0	1024.041	0	11.8	4	3.7	4	-1E+10	1	-1E+10	1	-1E+10	1	-1E+10	1	-1E+10	1	-1E+10	1
4901784	109	C	06/29/2018	10:49	-132.500	42.968	0	1039.40	0	3.4100	0	34.5390	8	27.486	0	1028.582	0	11.8	4	3.7	4	-1E+10	1	-1E+10	1	-1E+10	1	-1E+10	1	-1E+10	1	-1E+10	1
4901784	109	C	06/29/2018	10:49	-132.500	42.968	0	1044.90	0	3.4010	0	34.5410	8	27.488	0	1034.011	0	11.8	4	3.7	4	-1E+10	1	-1E+10	1	-1E+10	1	-1E+10	1	-1E+10	1	-1E+10	1
4901784	109	C	06/29/2018	10:49	-132.500	42.968	0	1050.50	0	3.3920	0	34.5430	8	27.491	0	1039.539	0	11.8	4	3.7	4	-1E+10	1	-1E+10	1	-1E+10	1	-1E+10	1	-1E+10	1	-1E+10	1
4901784	109	C	06/29/2018	10:49	-132.500	42.968	0	1055.10	0	3.3820	0	34.5440	8	27.493	0	1044.080	0	11.8	4	3.7	4	-1E+10	1	-1E+10	1	-1E+10	1	-1E+10	1	-1E+10	1	-1E+10	1
4901784	109	C	06/29/2018	10:49	-132.500	42.968	0	1059.80	0	3.3800	0	34.5440	8	27.493	0	1048.719	0	11.8	4	3.7	4	-1E+10	1	-1E+10	1	-1E+10	1	-1E+10	1	-1E+10	1	-1E+10	1
4901784	109	C	06/29/2018	10:49	-132.500	42.968	0	1065.40	0	3.3700	0	34.5450	8	27.495	0	1054.246	0	11.9	4	3.7	4	-1E+10	1	-1E+10	1	-1E+10	1	-1E+10	1	-1E+10	1	-1E+10	1
4901784	109	C	06/29/2018	10:49	-132.500	42.968	0	1070.00	0	3.3570	0	34.5460	8	27.497	0	1058.787	0	12.0	4	3.8	4	-1E+10	1	-1E+10	1	-1E+10	1	-1E+10	1	-1E+10	1	-1E+10	1
4901784	109	C	06/29/2018	10:49	-132.500	42.968	0	1074.60	0	3.3520	0	34.5470	8	27.498	0	1063.327	0	12.3	4	3.8	4	-1E+10	1	-1E+10	1	-1E+10	1	-1E+10	1	-1E+10	1	-1E+10	1
4901784	109	C	06/29/2018	10:49	-132.500	42.968	0	1080.30	0	3.3350	0	34.5490	8	27.501	0	1068.952	0	12.6	4	3.9	4	-1E+10	1	-1E+10	1	-1E+10	1	-1E+10	1	-1E+10	1	-1E+10	1
4901784	109	C	06/29/2018	10:49	-132.500	42.968	0	1084.90	0	3.3290	0	34.5500	8	27.503	0	1073.492	0	12.6	4	3.9	4	-1E+10	1	-1E+10	1	-1E+10	1	-1E+10	1	-1E+10	1	-1E+10	1
4901784	109	C	06/29/2018	10:49	-132.500	42.968	0	1090.20	0	3.3230	0	34.5510	8	27.504	0	1078.723	0	12.7	4	3.9	4	-1E+10	1	-1E+10	1	-1E+10	1	-1E+10	1	-1E+10	1	-1E+10	1
4901784	109	C	06/29/2018	10:49	-132.500	42.968	0	1095.20	0	3.3130	0	34.5530	8	27.506	0	1083.657	0	12.7	4	4.0	4	-1E+10	1	-1E+10	1	-1E+10	1	-1E+10	1	-1E+10	1	-1E+10	1
4901784	109	C	06/29/2018	10:49	-132.500	42.968	0	1100.00	0	3.2990	0	34.5550	8	27.509	0	1088.394	0	12.8	4	4.0	4	-1E+10	1	-1E+10	1	-1E+10	1	-1E+10	1	-1E+10	1	-1E+10	1
4901784	109	C	06/29/2018	10:49	-132.500	42.968	0	1104.70	0	3.2970	0	34.5560	8	27.510	0	1093.033	0	12.9	4	4.0	4	-1E+10	1	-1E+10	1	-1E+10	1	-1E+10	1	-1E+10	1	-1E+10	1
4901784	109	C	06/29/2018	10:49	-132.500	42.968	0	1109.50	0	3.2940	0	34.5570	8	27.512	0	1097.769	0	13.0	4	4.0	4	-1E+10	1	-1E+10	1	-1E+10	1	-1E+10	1	-1E+10	1	-1E+10	1
4901784	109	C	06/29/2018	10:49	-132.500	42.968	0	1114.20	0	3.2720	0	34.5590	8	27.515	0	1102.407	0	13.1	4	4.1	4	-1E+10	1	-1E+10	1	-1E+10	1	-1E+10	1	-1E+10	1	-1E+10	1
4901784	109	C	06/29/2018	10:49	-132.500	42.968	0	1119.30	0	3.2640	0	34.5610	8	27.518	0	1107.440	0	13.2	4	4.1	4	-1E+10	1	-1E+10	1	-1E+10	1	-1E+10	1	-1E+10	1	-1E+10	1
4901784	109	C	06/29/2018	10:49	-132.500	42.968	0	1124.70	0	3.2470	0	34.5630	8	27.521	0	1112.768	0	13.2	4	4.1	4	-1E+10	1	-1E+10	1	-1E+10	1	-1E+10	1	-1E+10	1	-1E+10	1
4901784	109	C	06/29/2018	10:49	-132.500	42.968	0	1130.00	0	3.2390	0	34.5640	8	27.522	0	1117.998	0	13.3	4	4.1	4	-1E+10	1	-1E+10	1	-1E+10	1	-1E+10	1	-1E+10	1	-1E+10	1
4901784	109	C	06/29/2018	10:49	-132.500	42.968	0	1135.40	0	3.2260	0	34.5650	8	27.524	0	1123.326	0	13.5	4	4.2	4	-1E+10	1	-1E+10	1	-1E+10	1	-1E+10	1	-1E+10	1	-1E+10	1
4901784	109	C	06/29/2018	10:49	-132.500	42.968	0	1139.90	0	3.2130	0	34.5670	8	27.527	0	1127.766	0	13.7	4	4.3	4	-1E+10	1	-1E+10	1	-1E+10	1	-1E+10	1	-1E+10	1	-1E+10	1
4901784	109	C	06/29/2018	10:49	-132.500	42.968	0	1144.50	0	3.1920	0	34.5710	8	27.532	0	1132.305	0	14.0	4	4.4	4	-1E+10	1	-1E+10	1	-1E+10	1	-1E+10	1	-1E+10	1	-1E+10	1
4901784	109	C	06/29/2018	10:49	-132.500	42.968	0	1150.10	0	3.1850	0	34.5720	8	27.534	0	1137.830	0	14.2	4	4.4	4	-1E+10	1	-1E+10	1	-1E+10	1	-1E+10	1	-1E+10	1	-1E+10	1
4901784	109	C	06/29/2018	10:49	-132.500	42.968	0	1154.80	0	3.1700	0	34.5740	8	27.537	0	1142.467	0	14.2	4	4.4	4	-1E+10	1	-1E+10	1	-1E+10	1	-1E+10	1	-1E+10	1	-1E+10	1
4901784	109	C	06/29/2018	10:49	-132.500	42.968	0	1159.40	0	3.1590	0	34.5760	8	27.540	0	1147.006	0	14.3	4	4.4	4	-1E+10	1	-1E+10	1	-1E+10	1	-1E+10	1	-1E+10	1	-1E+10	1
4901784	109	C	06/29/2018	10:49	-132.500	42.968	0	1165.00	0	3.1420	0	34.5780	8	27.543	0	1152.530	0	14.4	4	4.5	4	-1E+10	1	-1E+10	1	-1E+10	1	-1E+10	1	-1E+10	1	-1E+10	1
4901784	109	C	06/29/2018	10:49	-132.500	42.968	0	1170.60	0	3.1310	0	34.5790	8	27.545	0	1158.055	0	14.5	4	4.5	4	-1E+10	1	-1E+10	1	-1E+10	1	-1E+10	1	-1E+10	1	-1E+10	1
4901784	109	C	06/29/2018	10:49	-132.500	42.968	0	1175.30	0	3.1210	0	34.5810	8	27.547	0	1162.692	0	14.6	4	4.5	4	-1E+10	1	-1E+10	1	-1E+10	1	-1E+10	1	-1E+10	1	-1E+10	1
4901784	109	C	06/29/2018	10:49	-132.500	42.968	0	1180.00	0	3.1030	0	34.5820	8	27.550	0	1167.328	0	14.7	4	4.6	4	-1E+10	1	-1E+10	1	-1E+10	1	-1E+10	1	-1E+10	1	-1E+10	1
4901784	109	C	06/29/2018	10:49	-132.500	42.968	0	1185.60	0	3.0930	0	34.5840	8	27.552	0	1172.852	0	14.8	4	4.6	4	-1E+10	1	-1E+10	1	-1E+10	1	-1E+10	1	-1E+10	1	-1E+10	1
4901784	109	C	06/29/2018	10:49	-132.500	42.968	0	1190.30	0	3.0790	0	34.5850	8	27.554	0	1177.489	0	14.9	4	4.6	4	-1E+10	1	-1E+10	1	-1E+10	1	-1E+10	1	-1E+10	1	-1E+10	1
4901784	109	C	06/29/2018	10:49	-132.500	42.968	0	1195.10	0	3.0680	0	34.5870	8	27.557	0	1182.224	0	15.1	4	4.7	4	-1E+10	1	-1E+10	1	-1E+10	1	-1E+10	1	-1E+10	1	-1E+10	1
4901784	109	C	06/29/2018	10:49	-132.500	42.968	0	1199.90	0	3.0560	0	34.5890	8	27.560	0	1186.958	0	15.2	4	4.7	4	-1E+10	1	-1E+10	1	-1E+10	1	-1E+10	1	-1E+10	1	-1E+10	1
4901784	109	C	06/29/2018	10:49	-132.500	42.968	0	1204.70	0	3.0510	0	34.5910	8	27.562	0	1191.693	0	15.4	4	4.8	4	-1E+10	1	-1E+10	1	-1E+10	1	-1E+10	1	-1E+10	1	-1E+10	1
4901784	109	C	06/29/2018	10:49	-132.500	42.968	0	1210.40	0	3.0420	0	34.5920	8	27.563	0	1197.315	0	15.5	4	4.8	4	-1E+10	1	-1E+10	1	-1E+10	1	-1E+10	1	-1E+10	1	-1E+10	1
4901784	109	C	06/29/2018	10:49	-132.500	42.968	0	1215.20	0	3.0280	0	34.5930	8	27.565	0	1202.050	0	15.6	4	4.8	4	-1E+10	1	-1E+10	1	-1E+10	1	-1E+10	1	-1E+10	1	-1E+10	1
4901784	109	C	06/29/2018	10:49	-132.500	42.968	0	1220.00	0	3.0230	0	34.5950	8	27.568	0	1206.784	0	15.7	4	4.9	4	-1E+10	1	-1E+10	1	-1E+10	1	-1E+10	1	-1E+10	1	-1E+10	1
4901784	109	C	06/29/2018	10:49	-132.500	42.968	0	1224.80	0	3.0140	0	34.5960	8	27.569	0	1211.518	0	15.9	4	4.9	4	-1E+10	1	-1E+10	1	-1E+10	1	-1E+10	1	-1E+10	1	-1E+10	1
4901784	109	C	06/29/2018	10:49	-132.500	42.968	0	1229.70	0	3.0080	0	34.5970	8	27.571	0	1216.351	0	16.0	4	4.9	4	-1E+10	1	-1E+10	1	-1E+10	1	-1E+10	1	-1E+10	1	-1E+10	1
4901784	109	C	06/29/2018	10:49	-132.500	42.968	0	1234.70	0	2.9960	0	34.5980	8	27.572	0	1221.282	0	16.1	4	5.0	4	-1E+10	1	-1E+10	1	-1E+10	1	-1E+10	1	-1E+10	1	-1E+10	1
4901784	109	C	06/29/2018	10:49	-132.500	42.968	0	1239.60	0	2.9850	0	34.6000	8	27.575	0	1226.114	0	16.2	4	5.0	4	-1E+10	1	-1E+10	1	-1E+10	1	-1E+10	1	-1E+10	1	-1E+10	1
4901784	109	C	06/29/2018	10:49	-132.500	42.968	0	1245.50	0	2.9770	0	34.6000	8	27.576	0	1231.933	0	16.3	4	5.0	4	-1E+10	1	-1E+10	1	-1E+10	1	-1E+10	1	-1E+10	1	-1E+10	1
4901784	109	C	06/29/2018	10:49	-132.500	42.968	0	1250.10	0	2.9720	0	34.6000	8	27.576	0	1236.469	0	16.4	4	5.1	4	-1E+10	1	-1E+10	1	-1E+10	1	-1E+10	1	-1E+10	1	-1E+10	1
4901784	109	C	06/29/2018	10:49	-132.500	42.968	0	1254.90	0	2.9630	0	34.6010	8	27.578	0	1241.203	0	16.5	4	5.1	4	-1E+10	1	-1E+10	1	-1E+10	1	-1E+10	1	-1E+10	1	-1E+10	1
4901784	109	C	06/29/2018	10:49	-132.500	42.968	0	1260.40	0	2.9540	0	34.6030	8	27.580	0	1246.627	0	16.8	4	5.2	4	-1E+10	1	-1E+10	1	-1E+10	1	-1E+10	1	-1E+10	1	-1E+10	1
4901784	109	C	06/29/2018	10:49	-132.500	42.968	0	1264.90	0	2.9440	0	34.6040	8	27.582	0	1251.064	0	16.9	4	5.2	4	-1E+10	1	-1E+10	1	-1E+10	1	-1E+10	1	-1E+10	1	-1E+10	1
4901784	109	C	06/29/2018	10:49	-132.500	42.968	0	1269.40	0	2.9330	0	34.6060	8	27.585	0	1255.501	0	17.1	4	5.3	4	-1E+10	1	-1E+10	1	-1E+10	1	-1E+10	1	-1E+10	1	-1E+10	1
4901784	109	C	06/29/2018	10:49	-132.500	42.968	0	1274.80	0	2.9200	0	34.6070	8	27.587	0	1260.826	0	17.2	4	5.3	4	-1E+10	1	-1E+10	1	-1E+10	1	-1E+10	1	-1E+10	1	-1E+10	1
4901784	109	C	06/29/2018	10:49	-132.500	42.968	0	1280.30	0	2.9090	0	34.6090	8	27.589	0	1266.249	0	17.4	4	5.4	4	-1E+10	1	-1E+10	1	-1E+10	1	-1E+10	1	-1E+10	1	-1E+10	1
4901784	109	C	06/29/2018	10:49	-132.500	42.968	0	1284.80	0	2.9020	0	34.6090	8	27.590	0	1270.686	0	17.5	4	5.4	4	-1E+10	1	-1E+10	1	-1E+10	1	-1E+10	1	-1E+10	1	-1E+10	1
4901784	109	C	06/29/2018	10:49	-132.500	42.968	0	1289.70	0	2.8950	0	34.6090	8	27.591	0	1275.518	0	17.6	4	5.4	4	-1E+10	1	-1E+10	1	-1E+10	1	-1E+10	1	-1E+10	1	-1E+10	1
4901784	109	C	06/29/2018	10:49	-132.500	42.968	0	1294.90	0	2.8810	0	34.6110	8	27.594	0	1280.645	0	17.9	4	5.5	4	-1E+10	1	-1E+10	1	-1E+10	1	-1E+10	1	-1E+10	1	-1E+10	1
4901784	109	C	06/29/2018	10:49	-132.500	42.968	0	1299.70	0	2.8650	0	34.6130	8	27.597	0	1285.377	0	18.1	4	5.6	4	-1E+10	1	-1E+10	1	-1E+10	1	-1E+10	1	-1E+10	1	-1E+10	1
4901784	109	C	06/29/2018	10:49	-132.500	42.968	0	1304.50	0	2.8480	0	34.6150	8	27.600	0	1290.110	0	18.3	4	5.6	4	-1E+10	1	-1E+10	1	-1E+10	1	-1E+10	1	-1E+10	1	-1E+10	1
4901784	109	C	06/29/2018	10:49	-132.500	42.968	0	1309.30	0	2.8290	0	34.6160	8	27.602	0	1294.842	0	18.5	4	5.7	4	-1E+10	1	-1E+10	1	-1E+10	1	-1E+10	1	-1E+10	1	-1E+10	1
4901784	109	C	06/29/2018	10:49	-132.500	42.968	0	1315.00	0	2.8140	0	34.6180	8	27.605	0	1300.461	0	18.8	4	5.8	4	-1E+10	1	-1E+10	1	-1E+10	1	-1E+10	1	-1E+10	1	-1E+10	1
4901784	109	C	06/29/2018	10:49	-132.500	42.968	0	1320.70	0	2.7990	0	34.6200	8	27.608	0	1306.081	0	19.1	4	5.9	4	-1E+10	1	-1E+10	1	-1E+10	1	-1E+10	1	-1E+10	1	-1E+10	1
4901784	109	C	06/29/2018	10:49	-132.500	42.968	0	1325.60	0	2.7880	0	34.6210	8	27.610	0	1310.911	0	19.3	4	5.9	4	-1E+10	1	-1E+10	1	-1E+10	1	-1E+10	1	-1E+10	1	-1E+10	1
4901784	109	C	06/29/2018	10:49	-132.500	42.968	0	1330.60	0	2.7790	0	34.6220	8	27.611	0	1315.840	0	19.6	4	6.0	4	-1E+10	1	-1E+10	1	-1E+10	1	-1E+10	1	-1E+10	1	-1E+10	1
4901784	109	C	06/29/2018	10:49	-132.500	42.968	0	1335.60	0	2.7670	0	34.6240	8	27.614	0	1320.769	0	19.9	4	6.1	4	-1E+10	1	-1E+10	1	-1E+10	1	-1E+10	1	-1E+10	1	-1E+10	1
4901784	109	C	06/29/2018	10:49	-132.500	42.968	0	1340.70	0	2.7540	0	34.6260	8	27.617	0	1325.796	0	20.4	4	6.3	4	-1E+10	1	-1E+10	1	-1E+10	1	-1E+10	1	-1E+10	1	-1E+10	1
4901784	109	C	06/29/2018	10:49	-132.500	42.968	0	1345.70	0	2.7400	0	34.6280	8	27.620	0	1330.725	0	20.8	4	6.4	4	-1E+10	1	-1E+10	1	-1E+10	1	-1E+10	1	-1E+10	1	-1E+10	1
4901784	109	C	06/29/2018	10:49	-132.500	42.968	0	1350.00	0	2.7330	0	34.6290	8	27.621	0	1334.964	0	21.2	4	6.5	4	-1E+10	1	-1E+10	1	-1E+10	1	-1E+10	1	-1E+10	1	-1E+10	1
4901784	109	C	06/29/2018	10:49	-132.500	42.968	0	1354.30	0	2.7140	0	34.6330	8	27.626	0	1339.202	0	21.7	4	6.7	4	-1E+10	1	-1E+10	1	-1E+10	1	-1E+10	1	-1E+10	1	-1E+10	1
4901784	109	C	06/29/2018	10:49	-132.500	42.968	0	1359.50	0	2.6970	0	34.6350	8	27.629	0	1344.328	0	21.9	4	6.7	4	-1E+10	1	-1E+10	1	-1E+10	1	-1E+10	1	-1E+10	1	-1E+10	1
4901784	109	C	06/29/2018	10:49	-132.500	42.968	0	1364.70	0	2.6900	0	34.6360	8	27.631	0	1349.453	0	22.1	4	6.8	4	-1E+10	1	-1E+10	1	-1E+10	1	-1E+10	1	-1E+10	1	-1E+10	1
4901784	109	C	06/29/2018	10:49	-132.500	42.968	0	1369.90	0	2.6830	0	34.6370	8	27.632	0	1354.578	0	22.3	4	6.8	4	-1E+10	1	-1E+10	1	-1E+10	1	-1E+10	1	-1E+10	1	-1E+10	1
4901784	109	C	06/29/2018	10:49	-132.500	42.968	0	1375.20	0	2.6790	0	34.6380	8	27.633	0	1359.802	0	22.4	4	6.9	4	-1E+10	1	-1E+10	1	-1E+10	1	-1E+10	1	-1E+10	1	-1E+10	1
4901784	109	C	06/29/2018	10:49	-132.500	42.968	0	1380.50	0	2.6750	0	34.6380	8	27.634	0	1365.025	0	22.6	4	6.9	4	-1E+10	1	-1E+10	1	-1E+10	1	-1E+10	1	-1E+10	1	-1E+10	1
4901784	109	C	06/29/2018	10:49	-132.500	42.968	0	1385.00	0	2.6680	0	34.6390	8	27.635	0	1369.460	0	22.9	4	7.0	4	-1E+10	1	-1E+10	1	-1E+10	1	-1E+10	1	-1E+10	1	-1E+10	1
4901784	109	C	06/29/2018	10:49	-132.500	42.968	0	1389.40	0	2.6560	0	34.6410	8	27.638	0	1373.797	0	23.2	4	7.1	4	-1E+10	1	-1E+10	1	-1E+10	1	-1E+10	1	-1E+10	1	-1E+10	1
4901784	109	C	06/29/2018	10:49	-132.500	42.968	0	1394.70	0	2.6520	0	34.6410	8	27.638	0	1379.020	0	23.4	4	7.2	4	-1E+10	1	-1E+10	1	-1E+10	1	-1E+10	1	-1E+10	1	-1E+10	1
4901784	109	C	06/29/2018	10:49	-132.500	42.968	0	1400.10	0	2.6460	0	34.6420	8	27.639	0	1384.341	0	23.6	4	7.2	4	-1E+10	1	-1E+10	1	-1E+10	1	-1E+10	1	-1E+10	1	-1E+10	1
4901784	109	C	06/29/2018	10:49	-132.500	42.968	0	1404.80	0	2.6350	0	34.6440	8	27.642	0	1388.973	0	23.9	4	7.3	4	-1E+10	1	-1E+10	1	-1E+10	1	-1E+10	1	-1E+10	1	-1E+10	1
4901784	109	C	06/29/2018	10:49	-132.500	42.968	0	1410.30	0	2.6240	0	34.6450	8	27.644	0	1394.393	0	24.3	4	7.5	4	-1E+10	1	-1E+10	1	-1E+10	1	-1E+10	1	-1E+10	1	-1E+10	1
4901784	109	C	06/29/2018	10:49	-132.500	42.968	0	1415.00	0	2.6160	0	34.6460	8	27.645	0	1399.024	0	24.6	4	7.5	4	-1E+10	1	-1E+10	1	-1E+10	1	-1E+10	1	-1E+10	1	-1E+10	1
4901784	109	C	06/29/2018	10:49	-132.500	42.968	0	1419.90	0	2.6100	0	34.6470	8	27.647	0	1403.853	0	24.8	4	7.6	4	-1E+10	1	-1E+10	1	-1E+10	1	-1E+10	1	-1E+10	1	-1E+10	1
4901784	109	C	06/29/2018	10:49	-132.500	42.968	0	1424.70	0	2.6040	0	34.6480	8	27.648	0	1408.582	0	25.0	4	7.6	4	-1E+10	1	-1E+10	1	-1E+10	1	-1E+10	1	-1E+10	1	-1E+10	1
4901784	109	C	06/29/2018	10:49	-132.500	42.968	0	1429.60	0	2.5930	0	34.6490	8	27.650	0	1413.411	0	25.2	4	7.7	4	-1E+10	1	-1E+10	1	-1E+10	1	-1E+10	1	-1E+10	1	-1E+10	1
4901784	109	C	06/29/2018	10:49	-132.500	42.968	0	1434.60	0	2.5830	0	34.6500	8	27.651	0	1418.337	0	25.3	4	7.7	4	-1E+10	1	-1E+10	1	-1E+10	1	-1E+10	1	-1E+10	1	-1E+10	1
4901784	109	C	06/29/2018	10:49	-132.500	42.968	0	1439.50	0	2.5800	0	34.6500	8	27.652	0	1423.165	0	25.5	4	7.8	4	-1E+10	1	-1E+10	1	-1E+10	1	-1E+10	1	-1E+10	1	-1E+10	1
4901784	109	C	06/29/2018	10:49	-132.500	42.968	0	1444.50	0	2.5750	0	34.6510	8	27.653	0	1428.091	0	25.8	4	7.9	4	-1E+10	1	-1E+10	1	-1E+10	1	-1E+10	1	-1E+10	1	-1E+10	1
4901784	109	C	06/29/2018	10:49	-132.500	42.968	0	1449.50	0	2.5730	0	34.6520	8	27.654	0	1433.018	0	26.1	4	8.0	4	-1E+10	1	-1E+10	1	-1E+10	1	-1E+10	1	-1E+10	1	-1E+10	1
4901784	109	C	06/29/2018	10:49	-132.500	42.968	0	1454.50	0	2.5660	0	34.6530	8	27.655	0	1437.944	0	26.4	4	8.1	4	-1E+10	1	-1E+10	1	-1E+10	1	-1E+10	1	-1E+10	1	-1E+10	1
4901784	109	C	06/29/2018	10:49	-132.500	42.968	0	1459.60	0	2.5510	0	34.6550	8	27.658	0	1442.968	0	26.7	4	8.2	4	-1E+10	1	-1E+10	1	-1E+10	1	-1E+10	1	-1E+10	1	-1E+10	1
4901784	109	C	06/29/2018	10:49	-132.500	42.968	0	1464.70	0	2.5460	0	34.6550	8	27.659	0	1447.993	0	26.9	4	8.2	4	-1E+10	1	-1E+10	1	-1E+10	1	-1E+10	1	-1E+10	1	-1E+10	1
4901784	109	C	06/29/2018	10:49	-132.500	42.968	0	1469.80	0	2.5410	0	34.6560	8	27.660	0	1453.017	0	27.2	4	8.3	4	-1E+10	1	-1E+10	1	-1E+10	1	-1E+10	1	-1E+10	1	-1E+10	1
4901784	109	C	06/29/2018	10:49	-132.500	42.968	0	1474.80	0	2.5330	0	34.6570	8	27.661	0	1457.943	0	27.5	4	8.4	4	-1E+10	1	-1E+10	1	-1E+10	1	-1E+10	1	-1E+10	1	-1E+10	1
4901784	109	C	06/29/2018	10:49	-132.500	42.968	0	1480.00	0	2.5250	0	34.6580	8	27.663	0	1463.065	0	27.8	4	8.5	4	-1E+10	1	-1E+10	1	-1E+10	1	-1E+10	1	-1E+10	1	-1E+10	1
4901784	109	C	06/29/2018	10:49	-132.500	42.968	0	1485.10	0	2.5170	0	34.6590	8	27.664	0	1468.089	0	28.0	4	8.6	4	-1E+10	1	-1E+10	1	-1E+10	1	-1E+10	1	-1E+10	1	-1E+10	1
4901784	109	C	06/29/2018	10:49	-132.500	42.968	0	1490.30	0	2.5120	0	34.6600	8	27.666	0	1473.212	0	28.2	4	8.6	4	-1E+10	1	-1E+10	1	-1E+10	1	-1E+10	1	-1E+10	1	-1E+10	1
4901784	109	C	06/29/2018	10:49	-132.500	42.968	0	1495.50	0	2.5080	0	34.6600	8	27.666	0	1478.334	0	28.5	4	8.7	4	-1E+10	1	-1E+10	1	-1E+10	1	-1E+10	1	-1E+10	1	-1E+10	1
4901784	109	C	06/29/2018	10:49	-132.500	42.968	0	1500.70	0	2.4980	0	34.6610	8	27.668	0	1483.456	0	28.8	4	8.8	4	-1E+10	1	-1E+10	1	-1E+10	1	-1E+10	1	-1E+10	1	-1E+10	1
4901784	109	C	06/29/2018	10:49	-132.500	42.968	0	1505.10	0	2.4910	0	34.6620	8	27.669	0	1487.790	0	29.1	4	8.9	4	-1E+10	1	-1E+10	1	-1E+10	1	-1E+10	1	-1E+10	1	-1E+10	1
4901784	109	C	06/29/2018	10:49	-132.500	42.968	0	1509.50	0	2.4830	0	34.6630	8	27.671	0	1492.124	0	29.3	4	9.0	4	-1E+10	1	-1E+10	1	-1E+10	1	-1E+10	1	-1E+10	1	-1E+10	1
4901784	109	C	06/29/2018	10:49	-132.500	42.968	0	1514.80	0	2.4750	0	34.6640	8	27.672	0	1497.344	0	29.6	4	9.0	4	-1E+10	1	-1E+10	1	-1E+10	1	-1E+10	1	-1E+10	1	-1E+10	1
4901784	109	C	06/29/2018	10:49	-132.500	42.968	0	1520.10	0	2.4670	0	34.6650	8	27.674	0	1502.564	0	29.8	4	9.1	4	-1E+10	1	-1E+10	1	-1E+10	1	-1E+10	1	-1E+10	1	-1E+10	1
4901784	109	C	06/29/2018	10:49	-132.500	42.968	0	1525.30	0	2.4620	0	34.6660	8	27.675	0	1507.686	0	30.0	4	9.2	4	-1E+10	1	-1E+10	1	-1E+10	1	-1E+10	1	-1E+10	1	-1E+10	1
4901784	109	C	06/29/2018	10:49	-132.500	42.968	0	1530.60	0	2.4550	0	34.6660	8	27.676	0	1512.905	0	30.3	4	9.2	4	-1E+10	1	-1E+10	1	-1E+10	1	-1E+10	1	-1E+10	1	-1E+10	1
4901784	109	C	06/29/2018	10:49	-132.500	42.968	0	1535.10	0	2.4510	0	34.6670	8	27.677	0	1517.337	0	30.6	4	9.3	4	-1E+10	1	-1E+10	1	-1E+10	1	-1E+10	1	-1E+10	1	-1E+10	1
4901784	109	C	06/29/2018	10:49	-132.500	42.968	0	1539.60	0	2.4400	0	34.6680	8	27.678	0	1521.769	0	31.0	4	9.5	4	-1E+10	1	-1E+10	1	-1E+10	1	-1E+10	1	-1E+10	1	-1E+10	1
4901784	109	C	06/29/2018	10:49	-132.500	42.968	0	1545.00	0	2.4330	0	34.6700	8	27.681	0	1527.087	0	31.4	4	9.6	4	-1E+10	1	-1E+10	1	-1E+10	1	-1E+10	1	-1E+10	1	-1E+10	1
4901784	109	C	06/29/2018	10:49	-132.500	42.968	0	1550.40	0	2.4220	0	34.6700	8	27.682	0	1532.405	0	31.6	4	9.6	4	-1E+10	1	-1E+10	1	-1E+10	1	-1E+10	1	-1E+10	1	-1E+10	1
4901784	109	C	06/29/2018	10:49	-132.500	42.968	0	1555.50	0	2.4140	0	34.6710	8	27.683	0	1537.427	0	32.0	4	9.8	4	-1E+10	1	-1E+10	1	-1E+10	1	-1E+10	1	-1E+10	1	-1E+10	1
4901784	109	C	06/29/2018	10:49	-132.500	42.968	0	1559.70	0	2.4090	0	34.6720	8	27.684	0	1541.563	0	32.3	4	9.8	4	-1E+10	1	-1E+10	1	-1E+10	1	-1E+10	1	-1E+10	1	-1E+10	1
4901784	109	C	06/29/2018	10:49	-132.500	42.968	0	1564.40	0	2.3990	0	34.6730	8	27.686	0	1546.191	0	32.6	4	9.9	4	-1E+10	1	-1E+10	1	-1E+10	1	-1E+10	1	-1E+10	1	-1E+10	1
4901784	109	C	06/29/2018	10:49	-132.500	42.968	0	1570.00	0	2.3920	0	34.6750	8	27.688	0	1551.705	0	33.0	4	10.0	4	-1E+10	1	-1E+10	1	-1E+10	1	-1E+10	1	-1E+10	1	-1E+10	1
4901784	109	C	06/29/2018	10:49	-132.500	42.968	0	1575.60	0	2.3810	0	34.6760	8	27.690	0	1557.220	0	33.3	4	10.1	4	-1E+10	1	-1E+10	1	-1E+10	1	-1E+10	1	-1E+10	1	-1E+10	1
4901784	109	C	06/29/2018	10:49	-132.500	42.968	0	1580.50	0	2.3780	0	34.6760	8	27.690	0	1562.044	0	33.5	4	10.2	4	-1E+10	1	-1E+10	1	-1E+10	1	-1E+10	1	-1E+10	1	-1E+10	1
4901784	109	C	06/29/2018	10:49	-132.500	42.968	0	1585.30	0	2.3690	0	34.6780	8	27.693	0	1566.771	0	33.7	4	10.3	4	-1E+10	1	-1E+10	1	-1E+10	1	-1E+10	1	-1E+10	1	-1E+10	1
4901784	109	C	06/29/2018	10:49	-132.500	42.968	0	1590.20	0	2.3690	0	34.6780	8	27.693	0	1571.595	0	33.8	4	10.3	4	-1E+10	1	-1E+10	1	-1E+10	1	-1E+10	1	-1E+10	1	-1E+10	1
4901784	109	C	06/29/2018	10:49	-132.500	42.968	0	1595.20	0	2.3680	0	34.6780	8	27.693	0	1576.518	0	33.8	4	10.3	4	-1E+10	1	-1E+10	1	-1E+10	1	-1E+10	1	-1E+10	1	-1E+10	1
4901784	109	C	06/29/2018	10:49	-132.500	42.968	0	1600.20	0	2.3670	0	34.6780	8	27.693	0	1581.441	0	34.0	4	10.4	4	-1E+10	1	-1E+10	1	-1E+10	1	-1E+10	1	-1E+10	1	-1E+10	1
4901784	109	C	06/29/2018	10:49	-132.500	42.968	0	1605.20	0	2.3620	0	34.6790	8	27.694	0	1586.363	0	34.3	4	10.4	4	-1E+10	1	-1E+10	1	-1E+10	1	-1E+10	1	-1E+10	1	-1E+10	1
4901784	109	C	06/29/2018	10:49	-132.500	42.968	0	1610.20	0	2.3590	0	34.6790	8	27.694	0	1591.286	0	34.5	4	10.5	4	-1E+10	1	-1E+10	1	-1E+10	1	-1E+10	1	-1E+10	1	-1E+10	1
4901784	109	C	06/29/2018	10:49	-132.500	42.968	0	1615.20	0	2.3530	0	34.6800	8	27.696	0	1596.208	0	34.8	4	10.6	4	-1E+10	1	-1E+10	1	-1E+10	1	-1E+10	1	-1E+10	1	-1E+10	1
4901784	109	C	06/29/2018	10:49	-132.500	42.968	0	1620.20	0	2.3480	0	34.6810	8	27.697	0	1601.131	0	35.1	4	10.7	4	-1E+10	1	-1E+10	1	-1E+10	1	-1E+10	1	-1E+10	1	-1E+10	1
4901784	109	C	06/29/2018	10:49	-132.500	42.968	0	1625.30	0	2.3470	0	34.6810	8	27.697	0	1606.151	0	35.5	4	10.8	4	-1E+10	1	-1E+10	1	-1E+10	1	-1E+10	1	-1E+10	1	-1E+10	1
4901784	109	C	06/29/2018	10:49	-132.500	42.968	0	1630.50	0	2.3450	0	34.6840	8	27.700	0	1611.270	0	36.1	4	11.0	4	-1E+10	1	-1E+10	1	-1E+10	1	-1E+10	1	-1E+10	1	-1E+10	1
4901784	109	C	06/29/2018	10:49	-132.500	42.968	0	1635.50	0	2.3380	0	34.6850	8	27.701	0	1616.192	0	36.2	4	11.0	4	-1E+10	1	-1E+10	1	-1E+10	1	-1E+10	1	-1E+10	1	-1E+10	1
4901784	109	C	06/29/2018	10:49	-132.500	42.968	0	1640.60	0	2.3360	0	34.6840	8	27.700	0	1621.213	0	36.4	4	11.1	4	-1E+10	1	-1E+10	1	-1E+10	1	-1E+10	1	-1E+10	1	-1E+10	1
4901784	109	C	06/29/2018	10:49	-132.500	42.968	0	1645.70	0	2.3290	0	34.6850	8	27.702	0	1626.233	0	36.7	4	11.2	4	-1E+10	1	-1E+10	1	-1E+10	1	-1E+10	1	-1E+10	1	-1E+10	1
4901784	109	C	06/29/2018	10:49	-132.500	42.968	0	1650.00	0	2.3180	0	34.6860	8	27.704	0	1630.465	0	36.8	4	11.2	4	-1E+10	1	-1E+10	1	-1E+10	1	-1E+10	1	-1E+10	1	-1E+10	1
4901784	109	C	06/29/2018	10:49	-132.500	42.968	0	1654.20	0	2.3130	0	34.6860	8	27.704	0	1634.599	0	37.0	4	11.3	4	-1E+10	1	-1E+10	1	-1E+10	1	-1E+10	1	-1E+10	1	-1E+10	1
4901784	109	C	06/29/2018	10:49	-132.500	42.968	0	1659.40	0	2.3100	0	34.6870	8	27.705	0	1639.718	0	37.6	4	11.4	4	-1E+10	1	-1E+10	1	-1E+10	1	-1E+10	1	-1E+10	1	-1E+10	1
4901784	109	C	06/29/2018	10:49	-132.500	42.968	0	1664.50	0	2.3070	0	34.6890	8	27.707	0	1644.737	0	38.0	4	11.6	4	-1E+10	1	-1E+10	1	-1E+10	1	-1E+10	1	-1E+10	1	-1E+10	1
4901784	109	C	06/29/2018	10:49	-132.500	42.968	0	1669.60	0	2.3020	0	34.6890	8	27.707	0	1649.757	0	38.4	4	11.7	4	-1E+10	1	-1E+10	1	-1E+10	1	-1E+10	1	-1E+10	1	-1E+10	1
4901784	109	C	06/29/2018	10:49	-132.500	42.968	0	1674.70	0	2.2920	0	34.6910	8	27.710	0	1654.776	0	38.8	4	11.8	4	-1E+10	1	-1E+10	1	-1E+10	1	-1E+10	1	-1E+10	1	-1E+10	1
4901784	109	C	06/29/2018	10:49	-132.500	42.968	0	1679.90	0	2.2860	0	34.6910	8	27.710	0	1659.894	0	39.2	4	11.9	4	-1E+10	1	-1E+10	1	-1E+10	1	-1E+10	1	-1E+10	1	-1E+10	1
4901784	109	C	06/29/2018	10:49	-132.500	42.968	0	1685.10	0	2.2790	0	34.6920	8	27.712	0	1665.012	0	39.6	4	12.0	4	-1E+10	1	-1E+10	1	-1E+10	1	-1E+10	1	-1E+10	1	-1E+10	1
4901784	109	C	06/29/2018	10:49	-132.500	42.968	0	1690.30	0	2.2670	0	34.6940	8	27.714	0	1670.130	0	40.2	4	12.2	4	-1E+10	1	-1E+10	1	-1E+10	1	-1E+10	1	-1E+10	1	-1E+10	1
4901784	109	C	06/29/2018	10:49	-132.500	42.968	0	1695.50	0	2.2570	0	34.6950	8	27.716	0	1675.247	0	40.5	4	12.3	4	-1E+10	1	-1E+10	1	-1E+10	1	-1E+10	1	-1E+10	1	-1E+10	1
4901784	109	C	06/29/2018	10:49	-132.500	42.968	0	1700.00	0	2.2550	0	34.6960	8	27.717	0	1679.675	0	40.6	4	12.3	4	-1E+10	1	-1E+10	1	-1E+10	1	-1E+10	1	-1E+10	1	-1E+10	1
4901784	109	C	06/29/2018	10:49	-132.500	42.968	0	1704.30	0	2.2530	0	34.6960	8	27.717	0	1683.907	0	40.8	4	12.4	4	-1E+10	1	-1E+10	1	-1E+10	1	-1E+10	1	-1E+10	1	-1E+10	1
4901784	109	C	06/29/2018	10:49	-132.500	42.968	0	1709.60	0	2.2470	0	34.6970	8	27.718	0	1689.122	0	41.1	4	12.5	4	-1E+10	1	-1E+10	1	-1E+10	1	-1E+10	1	-1E+10	1	-1E+10	1
4901784	109	C	06/29/2018	10:49	-132.500	42.968	0	1714.90	0	2.2440	0	34.6970	8	27.719	0	1694.338	0	41.3	4	12.5	4	-1E+10	1	-1E+10	1	-1E+10	1	-1E+10	1	-1E+10	1	-1E+10	1
4901784	109	C	06/29/2018	10:49	-132.500	42.968	0	1720.30	0	2.2360	0	34.6980	8	27.720	0	1699.651	0	41.6	4	12.6	4	-1E+10	1	-1E+10	1	-1E+10	1	-1E+10	1	-1E+10	1	-1E+10	1
4901784	109	C	06/29/2018	10:49	-132.500	42.968	0	1725.70	0	2.2300	0	34.6980	8	27.721	0	1704.965	0	41.9	4	12.7	4	-1E+10	1	-1E+10	1	-1E+10	1	-1E+10	1	-1E+10	1	-1E+10	1
4901784	109	C	06/29/2018	10:49	-132.500	42.968	0	1730.10	0	2.2250	0	34.6990	8	27.722	0	1709.294	0	42.3	4	12.8	4	-1E+10	1	-1E+10	1	-1E+10	1	-1E+10	1	-1E+10	1	-1E+10	1
4901784	109	C	06/29/2018	10:49	-132.500	42.968	0	1734.60	0	2.2210	0	34.7000	8	27.723	0	1713.722	0	42.6	4	12.9	4	-1E+10	1	-1E+10	1	-1E+10	1	-1E+10	1	-1E+10	1	-1E+10	1
4901784	109	C	06/29/2018	10:49	-132.500	42.968	0	1740.00	0	2.2130	0	34.7010	8	27.725	0	1719.035	0	43.0	4	13.0	4	-1E+10	1	-1E+10	1	-1E+10	1	-1E+10	1	-1E+10	1	-1E+10	1
4901784	109	C	06/29/2018	10:49	-132.500	42.968	0	1745.40	0	2.2090	0	34.7020	8	27.726	0	1724.348	0	43.4	4	13.2	4	-1E+10	1	-1E+10	1	-1E+10	1	-1E+10	1	-1E+10	1	-1E+10	1
4901784	109	C	06/29/2018	10:49	-132.500	42.968	0	1749.90	0	2.2010	0	34.7040	8	27.728	0	1728.776	0	43.7	4	13.2	4	-1E+10	1	-1E+10	1	-1E+10	1	-1E+10	1	-1E+10	1	-1E+10	1
4901784	109	C	06/29/2018	10:49	-132.500	42.968	0	1754.40	0	2.1960	0	34.7040	8	27.728	0	1733.203	0	43.9	4	13.3	4	-1E+10	1	-1E+10	1	-1E+10	1	-1E+10	1	-1E+10	1	-1E+10	1
4901784	109	C	06/29/2018	10:49	-132.500	42.968	0	1759.80	0	2.1920	0	34.7040	8	27.729	0	1738.516	0	44.3	4	13.4	4	-1E+10	1	-1E+10	1	-1E+10	1	-1E+10	1	-1E+10	1	-1E+10	1
4901784	109	C	06/29/2018	10:49	-132.500	42.968	0	1765.20	0	2.1840	0	34.7060	8	27.731	0	1743.828	0	44.7	4	13.6	4	-1E+10	1	-1E+10	1	-1E+10	1	-1E+10	1	-1E+10	1	-1E+10	1
4901784	109	C	06/29/2018	10:49	-132.500	42.968	0	1770.70	0	2.1740	0	34.7070	8	27.733	0	1749.239	0	45.1	4	13.7	4	-1E+10	1	-1E+10	1	-1E+10	1	-1E+10	1	-1E+10	1	-1E+10	1
4901784	109	C	06/29/2018	10:49	-132.500	42.968	0	1775.20	0	2.1690	0	34.7070	8	27.733	0	1753.666	0	45.3	4	13.7	4	-1E+10	1	-1E+10	1	-1E+10	1	-1E+10	1	-1E+10	1	-1E+10	1
4901784	109	C	06/29/2018	10:49	-132.500	42.968	0	1779.70	0	2.1630	0	34.7080	8	27.734	0	1758.092	0	45.6	4	13.8	4	-1E+10	1	-1E+10	1	-1E+10	1	-1E+10	1	-1E+10	1	-1E+10	1
4901784	109	C	06/29/2018	10:49	-132.500	42.968	0	1785.10	0	2.1570	0	34.7090	8	27.736	0	1763.404	0	45.9	4	13.9	4	-1E+10	1	-1E+10	1	-1E+10	1	-1E+10	1	-1E+10	1	-1E+10	1
4901784	109	C	06/29/2018	10:49	-132.500	42.968	0	1790.60	0	2.1510	0	34.7090	8	27.736	0	1768.815	0	46.1	4	14.0	4	-1E+10	1	-1E+10	1	-1E+10	1	-1E+10	1	-1E+10	1	-1E+10	1
4901784	109	C	06/29/2018	10:49	-132.500	42.968	0	1795.10	0	2.1480	0	34.7100	8	27.737	0	1773.241	0	46.4	4	14.0	4	-1E+10	1	-1E+10	1	-1E+10	1	-1E+10	1	-1E+10	1	-1E+10	1
4901784	109	C	06/29/2018	10:49	-132.500	42.968	0	1799.60	0	2.1440	0	34.7110	8	27.738	0	1777.668	0	46.6	4	14.1	4	-1E+10	1	-1E+10	1	-1E+10	1	-1E+10	1	-1E+10	1	-1E+10	1
4901784	109	C	06/29/2018	10:49	-132.500	42.968	0	1805.10	0	2.1390	0	34.7110	8	27.739	0	1783.078	0	47.0	4	14.2	4	-1E+10	1	-1E+10	1	-1E+10	1	-1E+10	1	-1E+10	1	-1E+10	1
4901784	109	C	06/29/2018	10:49	-132.500	42.968	0	1810.50	0	2.1290	0	34.7120	8	27.741	0	1788.389	0	47.5	4	14.4	4	-1E+10	1	-1E+10	1	-1E+10	1	-1E+10	1	-1E+10	1	-1E+10	1
4901784	109	C	06/29/2018	10:49	-132.500	42.968	0	1815.20	0	2.1240	0	34.7130	8	27.742	0	1793.012	0	47.8	4	14.5	4	-1E+10	1	-1E+10	1	-1E+10	1	-1E+10	1	-1E+10	1	-1E+10	1
4901784	109	C	06/29/2018	10:49	-132.500	42.968	0	1819.70	0	2.1190	0	34.7140	8	27.743	0	1797.438	0	48.1	4	14.6	4	-1E+10	1	-1E+10	1	-1E+10	1	-1E+10	1	-1E+10	1	-1E+10	1
4901784	109	C	06/29/2018	10:49	-132.500	42.968	0	1825.20	0	2.1140	0	34.7150	8	27.744	0	1802.847	0	48.5	4	14.7	4	-1E+10	1	-1E+10	1	-1E+10	1	-1E+10	1	-1E+10	1	-1E+10	1
4901784	109	C	06/29/2018	10:49	-132.500	42.968	0	1829.80	0	2.1080	0	34.7160	8	27.745	0	1807.371	0	48.9	4	14.8	4	-1E+10	1	-1E+10	1	-1E+10	1	-1E+10	1	-1E+10	1	-1E+10	1
4901784	109	C	06/29/2018	10:49	-132.500	42.968	0	1834.50	0	2.1000	0	34.7160	8	27.746	0	1811.994	0	49.2	4	14.9	4	-1E+10	1	-1E+10	1	-1E+10	1	-1E+10	1	-1E+10	1	-1E+10	1
4901784	109	C	06/29/2018	10:49	-132.500	42.968	0	1840.00	0	2.0920	0	34.7170	8	27.748	0	1817.403	0	49.6	4	15.0	4	-1E+10	1	-1E+10	1	-1E+10	1	-1E+10	1	-1E+10	1	-1E+10	1
4901784	109	C	06/29/2018	10:49	-132.500	42.968	0	1845.60	0	2.0870	0	34.7180	8	27.749	0	1822.910	0	49.7	4	15.0	4	-1E+10	1	-1E+10	1	-1E+10	1	-1E+10	1	-1E+10	1	-1E+10	1
4901784	109	C	06/29/2018	10:49	-132.500	42.968	0	1850.30	0	2.0760	0	34.7180	8	27.750	0	1827.532	0	49.8	4	15.1	4	-1E+10	1	-1E+10	1	-1E+10	1	-1E+10	1	-1E+10	1	-1E+10	1
4901784	109	C	06/29/2018	10:49	-132.500	42.968	0	1854.90	0	2.0710	0	34.7180	8	27.750	0	1832.055	0	49.9	4	15.1	4	-1E+10	1	-1E+10	1	-1E+10	1	-1E+10	1	-1E+10	1	-1E+10	1
4901784	109	C	06/29/2018	10:49	-132.500	42.968	0	1859.90	0	2.0680	0	34.7180	8	27.750	0	1836.972	0	50.1	4	15.2	4	-1E+10	1	-1E+10	1	-1E+10	1	-1E+10	1	-1E+10	1	-1E+10	1
4901784	109	C	06/29/2018	10:49	-132.500	42.968	0	1864.80	0	2.0680	0	34.7190	8	27.751	0	1841.791	0	50.5	4	15.3	4	-1E+10	1	-1E+10	1	-1E+10	1	-1E+10	1	-1E+10	1	-1E+10	1
4901784	109	C	06/29/2018	10:49	-132.500	42.968	0	1869.70	0	2.0640	0	34.7190	8	27.752	0	1846.609	0	50.8	4	15.4	4	-1E+10	1	-1E+10	1	-1E+10	1	-1E+10	1	-1E+10	1	-1E+10	1
4901784	109	C	06/29/2018	10:49	-132.500	42.968	0	1874.70	0	2.0600	0	34.7200	8	27.753	0	1851.525	0	51.3	4	15.5	4	-1E+10	1	-1E+10	1	-1E+10	1	-1E+10	1	-1E+10	1	-1E+10	1
4901784	109	C	06/29/2018	10:49	-132.500	42.968	0	1879.60	0	2.0580	0	34.7220	8	27.754	0	1856.343	0	51.8	4	15.7	4	-1E+10	1	-1E+10	1	-1E+10	1	-1E+10	1	-1E+10	1	-1E+10	1
4901784	109	C	06/29/2018	10:49	-132.500	42.968	0	1884.60	0	2.0550	0	34.7230	8	27.756	0	1861.260	0	52.1	4	15.7	4	-1E+10	1	-1E+10	1	-1E+10	1	-1E+10	1	-1E+10	1	-1E+10	1
4901784	109	C	06/29/2018	10:49	-132.500	42.968	0	1889.60	0	2.0500	0	34.7230	8	27.756	0	1866.176	0	52.3	4	15.8	4	-1E+10	1	-1E+10	1	-1E+10	1	-1E+10	1	-1E+10	1	-1E+10	1
4901784	109	C	06/29/2018	10:49	-132.500	42.968	0	1894.50	0	2.0460	0	34.7240	8	27.757	0	1870.994	0	52.7	4	15.9	4	-1E+10	1	-1E+10	1	-1E+10	1	-1E+10	1	-1E+10	1	-1E+10	1
4901784	109	C	06/29/2018	10:49	-132.500	42.968	0	1899.60	0	2.0400	0	34.7240	8	27.758	0	1876.008	0	53.2	4	16.1	4	-1E+10	1	-1E+10	1	-1E+10	1	-1E+10	1	-1E+10	1	-1E+10	1
4901784	109	C	06/29/2018	10:49	-132.500	42.968	0	1904.70	0	2.0320	0	34.7260	8	27.760	0	1881.022	0	53.6	4	16.2	4	-1E+10	1	-1E+10	1	-1E+10	1	-1E+10	1	-1E+10	1	-1E+10	1
4901784	109	C	06/29/2018	10:49	-132.500	42.968	0	1909.60	0	2.0270	0	34.7260	8	27.760	0	1885.839	0	54.0	4	16.3	4	-1E+10	1	-1E+10	1	-1E+10	1	-1E+10	1	-1E+10	1	-1E+10	1
4901784	109	C	06/29/2018	10:49	-132.500	42.968	0	1914.70	0	2.0220	0	34.7270	8	27.762	0	1890.853	0	54.4	4	16.4	4	-1E+10	1	-1E+10	1	-1E+10	1	-1E+10	1	-1E+10	1	-1E+10	1
4901784	109	C	06/29/2018	10:49	-132.500	42.968	0	1919.70	0	2.0140	0	34.7280	8	27.763	0	1895.769	0	54.8	4	16.5	4	-1E+10	1	-1E+10	1	-1E+10	1	-1E+10	1	-1E+10	1	-1E+10	1
4901784	109	C	06/29/2018	10:49	-132.500	42.968	0	1924.80	0	1.9990	0	34.7290	8	27.765	0	1900.782	0	55.1	4	16.6	4	-1E+10	1	-1E+10	1	-1E+10	1	-1E+10	1	-1E+10	1	-1E+10	1
4901784	109	C	06/29/2018	10:49	-132.500	42.968	0	1929.90	0	1.9930	0	34.7290	8	27.765	0	1905.796	0	55.5	4	16.8	4	-1E+10	1	-1E+10	1	-1E+10	1	-1E+10	1	-1E+10	1	-1E+10	1
4901784	109	C	06/29/2018	10:49	-132.500	42.968	0	1935.10	0	1.9920	0	34.7310	8	27.767	0	1910.908	0	56.0	4	16.9	4	-1E+10	1	-1E+10	1	-1E+10	1	-1E+10	1	-1E+10	1	-1E+10	1
4901784	109	C	06/29/2018	10:49	-132.500	42.968	0	1940.20	0	1.9900	0	34.7320	8	27.768	0	1915.921	0	56.4	4	17.0	4	-1E+10	1	-1E+10	1	-1E+10	1	-1E+10	1	-1E+10	1	-1E+10	1
4901784	109	C	06/29/2018	10:49	-132.500	42.968	0	1945.40	0	1.9860	0	34.7320	8	27.768	0	1921.033	0	56.6	4	17.1	4	-1E+10	1	-1E+10	1	-1E+10	1	-1E+10	1	-1E+10	1	-1E+10	1
4901784	109	C	06/29/2018	10:49	-132.500	42.968	0	1950.60	0	1.9820	0	34.7330	8	27.770	0	1926.144	0	56.8	4	17.1	4	-1E+10	1	-1E+10	1	-1E+10	1	-1E+10	1	-1E+10	1	-1E+10	1
4901784	109	C	06/29/2018	10:49	-132.500	42.968	0	1955.00	0	1.9800	0	34.7330	8	27.770	0	1930.469	0	57.0	4	17.2	4	-1E+10	1	-1E+10	1	-1E+10	1	-1E+10	1	-1E+10	1	-1E+10	1
4901784	109	C	06/29/2018	10:49	-132.500	42.968	0	1959.40	0	1.9770	0	34.7330	8	27.770	0	1934.794	0	57.1	4	17.2	4	-1E+10	1	-1E+10	1	-1E+10	1	-1E+10	1	-1E+10	1	-1E+10	1
4901784	109	C	06/29/2018	10:49	-132.500	42.968	0	1964.70	0	1.9730	0	34.7330	8	27.770	0	1940.003	0	57.3	4	17.3	4	-1E+10	1	-1E+10	1	-1E+10	1	-1E+10	1	-1E+10	1	-1E+10	1
4901784	109	C	06/29/2018	10:49	-132.500	42.968	0	1970.00	0	1.9710	0	34.7340	8	27.771	0	1945.212	0	57.6	4	17.4	4	-1E+10	1	-1E+10	1	-1E+10	1	-1E+10	1	-1E+10	1	-1E+10	1
4901784	109	C	06/29/2018	10:49	-132.500	42.968	0	1975.30	0	1.9620	0	34.7340	8	27.772	0	1950.421	0	57.9	4	17.5	4	-1E+10	1	-1E+10	1	-1E+10	1	-1E+10	1	-1E+10	1	-1E+10	1
4901784	109	C	06/29/2018	10:49	-132.500	42.968	0	1979.80	0	1.9570	0	34.7350	8	27.773	0	1954.844	0	58.2	4	17.6	4	-1E+10	1	-1E+10	1	-1E+10	1	-1E+10	1	-1E+10	1	-1E+10	1
4901784	109	C	06/29/2018	10:49	-132.500	42.968	0	1984.20	0	1.9520	0	34.7360	8	27.775	0	1959.168	0	58.5	4	17.6	4	-1E+10	1	-1E+10	1	-1E+10	1	-1E+10	1	-1E+10	1	-1E+10	1
4901784	109	C	06/29/2018	10:49	-132.500	42.968	0	1989.50	0	1.9470	0	34.7360	8	27.775	0	1964.377	0	58.9	4	17.8	4	-1E+10	1	-1E+10	1	-1E+10	1	-1E+10	1	-1E+10	1	-1E+10	1
4901784	109	C	06/29/2018	10:49	-132.500	42.968	0	1995.10	0	1.9420	0	34.7370	8	27.776	0	1969.880	0	59.3	4	17.9	4	-1E+10	1	-1E+10	1	-1E+10	1	-1E+10	1	-1E+10	1	-1E+10	1
4901784	109	C	06/29/2018	10:49	-132.500	42.968	0	2000.70	0	1.9400	0	34.7380	8	27.777	0	1975.384	0	60.0	4	18.1	4	-1E+10	1	-1E+10	1	-1E+10	1	-1E+10	1	-1E+10	1	-1E+10	1
4901784	109	C	06/29/2018	10:49	-132.500	42.968	0	2005.60	0	1.9380	0	34.7390	8	27.778	0	1980.199	0	60.4	4	18.2	4	-1E+10	1	-1E+10	1	-1E+10	1	-1E+10	1	-1E+10	1	-1E+10	1
4901784	109	C	06/29/2018	10:49	-132.500	42.968	0	2010.40	0	1.9320	0	34.7400	8	27.779	0	1984.916	0	60.9	4	18.3	4	-1E+10	1	-1E+10	1	-1E+10	1	-1E+10	1	-1E+10	1	-1E+10	1
4901784	109	C	06/29/2018	10:49	-132.500	42.968	0	2014.60	0	1.9260	0	34.7410	8	27.781	0	1989.043	0	61.2	4	18.4	4	-1E+10	1	-1E+10	1	-1E+10	1	-1E+10	1	-1E+10	1	-1E+10	1
4901784	109	C	06/29/2018	10:49	-132.500	42.968	0	2020.30	0	1.9210	0	34.7420	8	27.782	0	1994.644	0	61.6	4	18.6	4	-1E+10	1	-1E+10	1	-1E+10	1	-1E+10	1	-1E+10	1	-1E+10	1
4901784	109	C	06/29/2018	10:49	-132.500	42.968	0																										
4901784	110	C	07/09/2018	10:49	-132.489	43.009	0	3.30	0	15.0760	0	32.6920	8	24.178	0	3.274	0	244.7	4	97.3	4	-1E+10	1	-1E+10	1	-1E+10	1	-1E+10	1	-1E+10	1	-1E+10	1
4901784	110	C	07/09/2018	10:49	-132.489	43.009	0	5.20	0	15.0760	0	32.6920	8	24.178	0	5.159	0	244.4	4	97.2	4	-1E+10	1	-1E+10	1	-1E+10	1	-1E+10	1	-1E+10	1	-1E+10	1
4901784	110	C	07/09/2018	10:49	-132.489	43.009	0	5.70	0	15.0760	0	32.6920	8	24.178	0	5.655	0	244.4	4	97.2	4	-1E+10	1	-1E+10	1	-1E+10	1	-1E+10	1	-1E+10	1	-1E+10	1
4901784	110	C	07/09/2018	10:49	-132.489	43.009	0	7.40	0	15.0770	0	32.6910	8	24.177	0	7.341	0	244.3	4	97.2	4	-1E+10	1	-1E+10	1	-1E+10	1	-1E+10	1	-1E+10	1	-1E+10	1
4901784	110	C	07/09/2018	10:49	-132.489	43.009	0	9.00	0	15.0770	0	32.6910	8	24.177	0	8.928	0	244.2	4	97.2	4	-1E+10	1	-1E+10	1	-1E+10	1	-1E+10	1	-1E+10	1	-1E+10	1
4901784	110	C	07/09/2018	10:49	-132.489	43.009	0	10.40	0	15.0740	0	32.6890	8	24.176	0	10.317	0	244.3	4	97.2	4	-1E+10	1	-1E+10	1	-1E+10	1	-1E+10	1	-1E+10	1	-1E+10	1
4901784	110	C	07/09/2018	10:49	-132.489	43.009	0	12.00	0	15.0770	0	32.6900	8	24.176	0	11.904	0	244.0	4	97.1	4	-1E+10	1	-1E+10	1	-1E+10	1	-1E+10	1	-1E+10	1	-1E+10	1
4901784	110	C	07/09/2018	10:49	-132.489	43.009	0	13.50	0	15.0780	0	32.6880	8	24.174	0	13.392	0	244.1	4	97.1	4	-1E+10	1	-1E+10	1	-1E+10	1	-1E+10	1	-1E+10	1	-1E+10	1
4901784	110	C	07/09/2018	10:49	-132.489	43.009	0	15.00	0	15.0560	0	32.6920	8	24.182	0	14.880	0	243.8	4	96.9	4	-1E+10	1	-1E+10	1	-1E+10	1	-1E+10	1	-1E+10	1	-1E+10	1
4901784	110	C	07/09/2018	10:49	-132.489	43.009	0	16.60	0	15.0380	0	32.6930	8	24.187	0	16.468	0	244.1	4	97.0	4	-1E+10	1	-1E+10	1	-1E+10	1	-1E+10	1	-1E+10	1	-1E+10	1
4901784	110	C	07/09/2018	10:49	-132.489	43.009	0	18.10	0	15.0350	0	32.6920	8	24.187	0	17.956	0	244.2	4	97.1	4	-1E+10	1	-1E+10	1	-1E+10	1	-1E+10	1	-1E+10	1	-1E+10	1
4901784	110	C	07/09/2018	10:49	-132.489	43.009	0	19.60	0	15.0210	0	32.6860	8	24.185	0	19.444	0	244.6	4	97.2	4	-1E+10	1	-1E+10	1	-1E+10	1	-1E+10	1	-1E+10	1	-1E+10	1
4901784	110	C	07/09/2018	10:49	-132.489	43.009	0	21.10	0	15.0100	0	32.6870	8	24.189	0	20.931	0	245.1	4	97.4	4	-1E+10	1	-1E+10	1	-1E+10	1	-1E+10	1	-1E+10	1	-1E+10	1
4901784	110	C	07/09/2018	10:49	-132.489	43.009	0	22.70	0	14.9450	0	32.6850	8	24.201	0	22.519	0	245.8	4	97.5	4	-1E+10	1	-1E+10	1	-1E+10	1	-1E+10	1	-1E+10	1	-1E+10	1
4901784	110	C	07/09/2018	10:49	-132.489	43.009	0	24.20	0	14.8860	0	32.6890	8	24.217	0	24.007	0	246.8	4	97.8	4	-1E+10	1	-1E+10	1	-1E+10	1	-1E+10	1	-1E+10	1	-1E+10	1
4901784	110	C	07/09/2018	10:49	-132.489	43.009	0	25.80	0	14.8060	0	32.6910	8	24.236	0	25.594	0	248.6	4	98.3	4	-1E+10	1	-1E+10	1	-1E+10	1	-1E+10	1	-1E+10	1	-1E+10	1
4901784	110	C	07/09/2018	10:49	-132.489	43.009	0	27.30	0	14.5650	0	32.7070	8	24.299	0	27.082	0	250.9	4	98.8	4	-1E+10	1	-1E+10	1	-1E+10	1	-1E+10	1	-1E+10	1	-1E+10	1
4901784	110	C	07/09/2018	10:49	-132.489	43.009	0	29.10	0	14.1020	0	32.7440	8	24.425	0	28.867	0	255.1	4	99.6	4	-1E+10	1	-1E+10	1	-1E+10	1	-1E+10	1	-1E+10	1	-1E+10	1
4901784	110	C	07/09/2018	10:49	-132.489	43.009	0	30.70	0	14.0290	0	32.7340	8	24.432	0	30.454	0	257.5	4	100.3	4	-1E+10	1	-1E+10	1	-1E+10	1	-1E+10	1	-1E+10	1	-1E+10	1
4901784	110	C	07/09/2018	10:49	-132.489	43.009	0	32.40	0	13.6750	0	32.7560	8	24.522	0	32.140	0	260.8	4	100.9	4	-1E+10	1	-1E+10	1	-1E+10	1	-1E+10	1	-1E+10	1	-1E+10	1
4901784	110	C	07/09/2018	10:49	-132.489	43.009	0	34.30	0	13.0440	0	32.8120	8	24.691	0	34.025	0	265.0	4	101.3	4	-1E+10	1	-1E+10	1	-1E+10	1	-1E+10	1	-1E+10	1	-1E+10	1
4901784	110	C	07/09/2018	10:49	-132.489	43.009	0	34.80	0	12.8320	0	32.7990	8	24.723	0	34.521	0	266.9	4	101.6	4	-1E+10	1	-1E+10	1	-1E+10	1	-1E+10	1	-1E+10	1	-1E+10	1
4901784	110	C	07/09/2018	10:49	-132.489	43.009	0	36.30	0	12.6600	0	32.7960	8	24.754	0	36.009	0	269.6	4	102.2	4	-1E+10	1	-1E+10	1	-1E+10	1	-1E+10	1	-1E+10	1	-1E+10	1
4901784	110	C	07/09/2018	10:49	-132.489	43.009	0	37.60	0	12.3830	0	32.8110	8	24.819	0	37.298	0	272.1	4	102.6	4	-1E+10	1	-1E+10	1	-1E+10	1	-1E+10	1	-1E+10	1	-1E+10	1
4901784	110	C	07/09/2018	10:49	-132.489	43.009	0	39.10	0	12.0820	0	32.8120	8	24.876	0	38.786	0	274.5	4	102.9	4	-1E+10	1	-1E+10	1	-1E+10	1	-1E+10	1	-1E+10	1	-1E+10	1
4901784	110	C	07/09/2018	10:49	-132.489	43.009	0	40.60	0	11.8310	0	32.7800	8	24.898	0	40.274	0	276.6	4	103.1	4	-1E+10	1	-1E+10	1	-1E+10	1	-1E+10	1	-1E+10	1	-1E+10	1
4901784	110	C	07/09/2018	10:49	-132.489	43.009	0	42.10	0	11.6780	0	32.8090	8	24.949	0	41.762	0	277.2	4	103.0	4	-1E+10	1	-1E+10	1	-1E+10	1	-1E+10	1	-1E+10	1	-1E+10	1
4901784	110	C	07/09/2018	10:49	-132.489	43.009	0	43.60	0	11.4540	0	32.8080	8	24.989	0	43.249	0	279.1	4	103.2	4	-1E+10	1	-1E+10	1	-1E+10	1	-1E+10	1	-1E+10	1	-1E+10	1
4901784	110	C	07/09/2018	10:49	-132.489	43.009	0	45.20	0	11.0810	0	32.8280	8	25.072	0	44.836	0	281.3	4	103.2	4	-1E+10	1	-1E+10	1	-1E+10	1	-1E+10	1	-1E+10	1	-1E+10	1
4901784	110	C	07/09/2018	10:49	-132.489	43.009	0	46.80	0	10.6050	0	32.8620	8	25.181	0	46.423	0	283.8	4	103.1	4	-1E+10	1	-1E+10	1	-1E+10	1	-1E+10	1	-1E+10	1	-1E+10	1
4901784	110	C	07/09/2018	10:49	-132.489	43.009	0	48.30	0	10.3440	0	32.8670	8	25.230	0	47.911	0	284.9	4	102.9	4	-1E+10	1	-1E+10	1	-1E+10	1	-1E+10	1	-1E+10	1	-1E+10	1
4901784	110	C	07/09/2018	10:49	-132.489	43.009	0	49.90	0	10.2610	0	32.8700	8	25.247	0	49.498	0	284.9	4	102.8	4	-1E+10	1	-1E+10	1	-1E+10	1	-1E+10	1	-1E+10	1	-1E+10	1
4901784	110	C	07/09/2018	10:49	-132.489	43.009	0	51.50	0	10.2400	0	32.8690	8	25.249	0	51.085	0	284.4	4	102.5	4	-1E+10	1	-1E+10	1	-1E+10	1	-1E+10	1	-1E+10	1	-1E+10	1
4901784	110	C	07/09/2018	10:49	-132.489	43.009	0	53.10	0	10.1880	0	32.8750	8	25.263	0	52.672	0	283.7	4	102.2	4	-1E+10	1	-1E+10	1	-1E+10	1	-1E+10	1	-1E+10	1	-1E+10	1
4901784	110	C	07/09/2018	10:49	-132.489	43.009	0	54.80	0	10.0970	0	32.8670	8	25.272	0	54.358	0	283.3	4	101.8	4	-1E+10	1	-1E+10	1	-1E+10	1	-1E+10	1	-1E+10	1	-1E+10	1
4901784	110	C	07/09/2018	10:49	-132.489	43.009	0	56.50	0	10.0970	0	32.8810	8	25.283	0	56.044	0	282.0	4	101.4	4	-1E+10	1	-1E+10	1	-1E+10	1	-1E+10	1	-1E+10	1	-1E+10	1
4901784	110	C	07/09/2018	10:49	-132.489	43.009	0	58.20	0	10.0480	0	32.8790	8	25.290	0	57.730	0	280.9	4	100.9	4	-1E+10	1	-1E+10	1	-1E+10	1	-1E+10	1	-1E+10	1	-1E+10	1
4901784	110	C	07/09/2018	10:49	-132.489	43.009	0	59.90	0	10.0150	0	32.8790	8	25.295	0	59.416	0	279.7	4	100.4	4	-1E+10	1	-1E+10	1	-1E+10	1	-1E+10	1	-1E+10	1	-1E+10	1
4901784	110	C	07/09/2018	10:49	-132.489	43.009	0	61.60	0	9.9340	0	32.8710	8	25.302	0	61.102	0	278.7	4	99.8	4	-1E+10	1	-1E+10	1	-1E+10	1	-1E+10	1	-1E+10	1	-1E+10	1
4901784	110	C	07/09/2018	10:49	-132.489	43.009	0	63.30	0	9.8780	0	32.8720	8	25.312	0	62.788	0	277.9	4	99.4	4	-1E+10	1	-1E+10	1	-1E+10	1	-1E+10	1	-1E+10	1	-1E+10	1
4901784	110	C	07/09/2018	10:49	-132.489	43.009	0	65.00	0	9.8460	0	32.8690	8	25.315	0	64.474	0	276.8	4	98.9	4	-1E+10	1	-1E+10	1	-1E+10	1	-1E+10	1	-1E+10	1	-1E+10	1
4901784	110	C	07/09/2018	10:49	-132.489	43.009	0	66.60	0	9.8350	0	32.8690	8	25.317	0	66.061	0	275.6	4	98.5	4	-1E+10	1	-1E+10	1	-1E+10	1	-1E+10	1	-1E+10	1	-1E+10	1
4901784	110	C	07/09/2018	10:49	-132.489	43.009	0	68.30	0	9.8170	0	32.8710	8	25.322	0	67.747	0	274.5	4	98.1	4	-1E+10	1	-1E+10	1	-1E+10	1	-1E+10	1	-1E+10	1	-1E+10	1
4901784	110	C	07/09/2018	10:49	-132.489	43.009	0	70.10	0	9.8250	0	32.8780	8	25.326	0	69.532	0	273.0	4	97.6	4	-1E+10	1	-1E+10	1	-1E+10	1	-1E+10	1	-1E+10	1	-1E+10	1
4901784	110	C	07/09/2018	10:49	-132.489	43.009	0	71.70	0	9.8180	0	32.8800	8	25.329	0	71.119	0	272.1	4	97.2	4	-1E+10	1	-1E+10	1	-1E+10	1	-1E+10	1	-1E+10	1	-1E+10	1
4901784	110	C	07/09/2018	10:49	-132.489	43.009	0	73.50	0	9.7870	0	32.8790	8	25.333	0	72.904	0	271.0	4	96.8	4	-1E+10	1	-1E+10	1	-1E+10	1	-1E+10	1	-1E+10	1	-1E+10	1
4901784	110	C	07/09/2018	10:49	-132.489	43.009	0	75.20	0	9.7880	0	32.8760	8	25.331	0	74.590	0	270.2	4	96.5	4	-1E+10	1	-1E+10	1	-1E+10	1	-1E+10	1	-1E+10	1	-1E+10	1
4901784	110	C	07/09/2018	10:49	-132.489	43.009	0	77.00	0	9.7760	0	32.8780	8	25.334	0	76.375	0	269.1	4	96.0	4	-1E+10	1	-1E+10	1	-1E+10	1	-1E+10	1	-1E+10	1	-1E+10	1
4901784	110	C	07/09/2018	10:49	-132.489	43.009	0	78.70	0	9.7320	0	32.8740	8	25.338	0	78.061	0	268.4	4	95.7	4	-1E+10	1	-1E+10	1	-1E+10	1	-1E+10	1	-1E+10	1	-1E+10	1
4901784	110	C	07/09/2018	10:49	-132.489	43.009	0	80.50	0	9.6630	0	32.8660	8	25.343	0	79.846	0	268.0	4	95.4	4	-1E+10	1	-1E+10	1	-1E+10	1	-1E+10	1	-1E+10	1	-1E+10	1
4901784	110	C	07/09/2018	10:49	-132.489	43.009	0	82.30	0	9.6380	0	32.8650	8	25.347	0	81.631	0	267.1	4	95.0	4	-1E+10	1	-1E+10	1	-1E+10	1	-1E+10	1	-1E+10	1	-1E+10	1
4901784	110	C	07/09/2018	10:49	-132.489	43.009	0	84.00	0	9.6150	0	32.8650	8	25.350	0	83.316	0	266.5	4	94.8	4	-1E+10	1	-1E+10	1	-1E+10	1	-1E+10	1	-1E+10	1	-1E+10	1
4901784	110	C	07/09/2018	10:49	-132.489	43.009	0	85.80	0	9.5620	0	32.8590	8	25.354	0	85.101	0	265.7	4	94.4	4	-1E+10	1	-1E+10	1	-1E+10	1	-1E+10	1	-1E+10	1	-1E+10	1
4901784	110	C	07/09/2018	10:49	-132.489	43.009	0	87.50	0	9.5100	0	32.8540	8	25.359	0	86.787	0	265.4	4	94.2	4	-1E+10	1	-1E+10	1	-1E+10	1	-1E+10	1	-1E+10	1	-1E+10	1
4901784	110	C	07/09/2018	10:49	-132.489	43.009	0	89.40	0	9.5090	0	32.8530	8	25.358	0	88.671	0	264.4	4	93.8	4	-1E+10	1	-1E+10	1	-1E+10	1	-1E+10	1	-1E+10	1	-1E+10	1
4901784	110	C	07/09/2018	10:49	-132.489	43.009	0	91.10	0	9.5250	0	32.8580	8	25.360	0	90.357	0	263.1	4	93.4	4	-1E+10	1	-1E+10	1	-1E+10	1	-1E+10	1	-1E+10	1	-1E+10	1
4901784	110	C	07/09/2018	10:49	-132.489	43.009	0	92.90	0	9.4750	0	32.8650	8	25.373	0	92.142	0	262.4	4	93.0	4	-1E+10	1	-1E+10	1	-1E+10	1	-1E+10	1	-1E+10	1	-1E+10	1
4901784	110	C	07/09/2018	10:49	-132.489	43.009	0	94.70	0	9.4720	0	32.8640	8	25.373	0	93.927	0	261.5	4	92.7	4	-1E+10	1	-1E+10	1	-1E+10	1	-1E+10	1	-1E+10	1	-1E+10	1
4901784	110	C	07/09/2018	10:49	-132.489	43.009	0	96.50	0	9.4600	0	32.8680	8	25.378	0	95.712	0	260.5	4	92.3	4	-1E+10	1	-1E+10	1	-1E+10	1	-1E+10	1	-1E+10	1	-1E+10	1
4901784	110	C	07/09/2018	10:49	-132.489	43.009	0	98.30	0	9.4260	0	32.8650	8	25.381	0	97.497	0	259.5	4	91.9	4	-1E+10	1	-1E+10	1	-1E+10	1	-1E+10	1	-1E+10	1	-1E+10	1
4901784	110	C	07/09/2018	10:49	-132.489	43.009	0	100.20	0	9.3960	0	32.8670	8	25.388	0	99.381	0	258.2	4	91.4	4	-1E+10	1	-1E+10	1	-1E+10	1	-1E+10	1	-1E+10	1	-1E+10	1
4901784	110	C	07/09/2018	10:49	-132.489	43.009	0	102.00	0	9.3710	0	32.8680	8	25.392	0	101.166	0	256.9	4	90.9	4	-1E+10	1	-1E+10	1	-1E+10	1	-1E+10	1	-1E+10	1	-1E+10	1
4901784	110	C	07/09/2018	10:49	-132.489	43.009	0	104.70	0	9.3240	0	32.8800	8	25.409	0	103.843	0	254.4	4	89.9	4	-1E+10	1	-1E+10	1	-1E+10	1	-1E+10	1	-1E+10	1	-1E+10	1
4901784	110	C	07/09/2018	10:49	-132.489	43.009	0	107.30	0	9.2740	0	32.8940	8	25.428	0	106.421	0	251.9	4	89.0	4	-1E+10	1	-1E+10	1	-1E+10	1	-1E+10	1	-1E+10	1	-1E+10	1
4901784	110	C	07/09/2018	10:49	-132.489	43.009	0	109.70	0	9.1110	0	32.9130	8	25.469	0	108.801	0	249.7	4	87.9	4	-1E+10	1	-1E+10	1	-1E+10	1	-1E+10	1	-1E+10	1	-1E+10	1
4901784	110	C	07/09/2018	10:49	-132.489	43.009	0	112.30	0	8.8140	0	32.9840	8	25.571	0	111.379	0	247.6	4	86.6	4	-1E+10	1	-1E+10	1	-1E+10	1	-1E+10	1	-1E+10	1	-1E+10	1
4901784	110	C	07/09/2018	10:49	-132.489	43.009	0	115.10	0	8.6310	0	33.0150	8	25.623	0	114.155	0	247.2	4	86.1	4	-1E+10	1	-1E+10	1	-1E+10	1	-1E+10	1	-1E+10	1	-1E+10	1
4901784	110	C	07/09/2018	10:49	-132.489	43.009	0	117.40	0	8.5260	0	33.0380	8	25.657	0	116.435	0	246.3	4	85.6	4	-1E+10	1	-1E+10	1	-1E+10	1	-1E+10	1	-1E+10	1	-1E+10	1
4901784	110	C	07/09/2018	10:49	-132.489	43.009	0	120.40	0	8.3440	0	33.0890	8	25.724	0	119.410	0	244.3	4	84.6	4	-1E+10	1	-1E+10	1	-1E+10	1	-1E+10	1	-1E+10	1	-1E+10	1
4901784	110	C	07/09/2018	10:49	-132.489	43.009	0	122.50	0	8.2940	0	33.1020	8	25.742	0	121.492	0	243.1	4	84.1	4	-1E+10	1	-1E+10	1	-1E+10	1	-1E+10	1	-1E+10	1	-1E+10	1
4901784	110	C	07/09/2018	10:49	-132.489	43.009	0	124.80	0	8.2450	0	33.1210	8	25.764	0	123.772	0	241.2	4	83.4	4	-1E+10	1	-1E+10	1	-1E+10	1	-1E+10	1	-1E+10	1	-1E+10	1
4901784	110	C	07/09/2018	10:49	-132.489	43.009	0	127.30	0	8.0900	0	33.1670	8	25.823	0	126.251	0	239.1	4	82.4	4	-1E+10	1	-1E+10	1	-1E+10	1	-1E+10	1	-1E+10	1	-1E+10	1
4901784	110	C	07/09/2018	10:49	-132.489	43.009	0	129.80	0	8.0370	0	33.2180	8	25.871	0	128.730	0	236.6	4	81.5	4	-1E+10	1	-1E+10	1	-1E+10	1	-1E+10	1	-1E+10	1	-1E+10	1
4901784	110	C	07/09/2018	10:49	-132.489	43.009	0	132.40	0	7.9850	0	33.2650	8	25.916	0	131.307	0	234.1	4	80.5	4	-1E+10	1	-1E+10	1	-1E+10	1	-1E+10	1	-1E+10	1	-1E+10	1
4901784	110	C	07/09/2018	10:49	-132.489	43.009	0	135.10	0	7.9780	0	33.2970	8	25.942	0	133.984	0	230.9	4	79.4	4	-1E+10	1	-1E+10	1	-1E+10	1	-1E+10	1	-1E+10	1	-1E+10	1
4901784	110	C	07/09/2018	10:49	-132.489	43.009	0	137.40	0	8.0130	0	33.3560	8	25.983	0	136.264	0	227.5	4	78.4	4	-1E+10	1	-1E+10	1	-1E+10	1	-1E+10	1	-1E+10	1	-1E+10	1
4901784	110	C	07/09/2018	10:49	-132.489	43.009	0	140.30	0	8.0460	0	33.4300	8	26.036	0	139.139	0	222.9	4	76.9	4	-1E+10	1	-1E+10	1	-1E+10	1	-1E+10	1	-1E+10	1	-1E+10	1
4901784	110	C	07/09/2018	10:49	-132.489	43.009	0	142.50	0	8.0800	0	33.4870	8	26.076	0	141.320	0	219.6	4	75.8	4	-1E+10	1	-1E+10	1	-1E+10	1	-1E+10	1	-1E+10	1	-1E+10	1
4901784	110	C	07/09/2018	10:49	-132.489	43.009	0	144.90	0	8.1270	0	33.5470	8	26.116	0	143.700	0	216.2	4	74.8	4	-1E+10	1	-1E+10	1	-1E+10	1	-1E+10	1	-1E+10	1	-1E+10	1
4901784	110	C	07/09/2018	10:49	-132.489	43.009	0	147.20	0	8.1380	0	33.5620	8	26.127	0	145.980	0	213.0	4	73.7	4	-1E+10	1	-1E+10	1	-1E+10	1	-1E+10	1	-1E+10	1	-1E+10	1
4901784	110	C	07/09/2018	10:49	-132.489	43.009	0	149.60	0	8.2040	0	33.6490	8	26.185	0	148.359	0	208.6	4	72.3	4	-1E+10	1	-1E+10	1	-1E+10	1	-1E+10	1	-1E+10	1	-1E+10	1
4901784	110	C	07/09/2018	10:49	-132.489	43.009	0	152.70	0	8.2610	0	33.7370	8	26.246	0	151.432	0	203.9	4	70.8	4	-1E+10	1	-1E+10	1	-1E+10	1	-1E+10	1	-1E+10	1	-1E+10	1
4901784	110	C	07/09/2018	10:49	-132.489	43.009	0	155.20	0	8.3580	0	33.8710	8	26.336	0	153.911	0	200.2	4	69.7	4	-1E+10	1	-1E+10	1	-1E+10	1	-1E+10	1	-1E+10	1	-1E+10	1
4901784	110	C	07/09/2018	10:49	-132.489	43.009	0	157.60	0	8.3670	0	33.8830	8	26.344	0	156.290	0	198.4	4	69.2	4	-1E+10	1	-1E+10	1	-1E+10	1	-1E+10	1	-1E+10	1	-1E+10	1
4901784	110	C	07/09/2018	10:49	-132.489	43.009	0	160.10	0	8.3870	0	33.9110	8	26.363	0	158.768	0	196.1	4	68.4	4	-1E+10	1	-1E+10	1	-1E+10	1	-1E+10	1	-1E+10	1	-1E+10	1
4901784	110	C	07/09/2018	10:49	-132.489	43.009	0	162.80	0	8.4050	0	33.9400	8	26.383	0	161.444	0	194.0	4	67.7	4	-1E+10	1	-1E+10	1	-1E+10	1	-1E+10	1	-1E+10	1	-1E+10	1
4901784	110	C	07/09/2018	10:49	-132.489	43.009	0	165.40	0	8.4180	0	33.9520	8	26.391	0	164.022	0	191.2	4	66.8	4	-1E+10	1	-1E+10	1	-1E+10	1	-1E+10	1	-1E+10	1	-1E+10	1
4901784	110	C	07/09/2018	10:49	-132.489	43.009	0	167.30	0	8.4530	0	34.0040	8	26.426	0	165.905	0	188.9	4	66.0	4	-1E+10	1	-1E+10	1	-1E+10	1	-1E+10	1	-1E+10	1	-1E+10	1
4901784	110	C	07/09/2018	10:49	-132.489	43.009	0	170.20	0	8.4810	0	34.0600	8	26.466	0	168.780	0	186.4	4	65.2	4	-1E+10	1	-1E+10	1	-1E+10	1	-1E+10	1	-1E+10	1	-1E+10	1
4901784	110	C	07/09/2018	10:49	-132.489	43.009	0	173.10	0	8.4890	0	34.0940	8	26.492	0	171.654	0	185.2	4	64.8	4	-1E+10	1	-1E+10	1	-1E+10	1	-1E+10	1	-1E+10	1	-1E+10	1
4901784	110	C	07/09/2018	10:49	-132.489	43.009	0	175.10	0	8.4890	0	34.0960	8	26.493	0	173.637	0	184.5	4	64.6	4	-1E+10	1	-1E+10	1	-1E+10	1	-1E+10	1	-1E+10	1	-1E+10	1
4901784	110	C	07/09/2018	10:49	-132.489	43.009	0	177.20	0	8.4880	0	34.0990	8	26.496	0	175.718	0	183.8	4	64.3	4	-1E+10	1	-1E+10	1	-1E+10	1	-1E+10	1	-1E+10	1	-1E+10	1
4901784	110	C	07/09/2018	10:49	-132.489	43.009	0	179.30	0	8.4870	0	34.1000	8	26.497	0	177.800	0	182.7	4	63.9	4	-1E+10	1	-1E+10	1	-1E+10	1	-1E+10	1	-1E+10	1	-1E+10	1
4901784	110	C	07/09/2018	10:49	-132.489	43.009	0	182.30	0	8.4800	0	34.1050	8	26.502	0	180.774	0	181.0	4	63.4	4	-1E+10	1	-1E+10	1	-1E+10	1	-1E+10	1	-1E+10	1	-1E+10	1
4901784	110	C	07/09/2018	10:49	-132.489	43.009	0	185.40	0	8.4280	0	34.1300	8	26.529	0	183.846	0	179.3	4	62.7	4	-1E+10	1	-1E+10	1	-1E+10	1	-1E+10	1	-1E+10	1	-1E+10	1
4901784	110	C	07/09/2018	10:49	-132.489	43.009	0	187.60	0	8.4080	0	34.1410	8	26.541	0	186.027	0	178.7	4	62.5	4	-1E+10	1	-1E+10	1	-1E+10	1	-1E+10	1	-1E+10	1	-1E+10	1
4901784	110	C	07/09/2018	10:49	-132.489	43.009	0	189.60	0	8.3850	0	34.1440	8	26.547	0	188.009	0	178.1	4	62.2	4	-1E+10	1	-1E+10	1	-1E+10	1	-1E+10	1	-1E+10	1	-1E+10	1
4901784	110	C	07/09/2018	10:49	-132.489	43.009	0	191.70	0	8.3660	0	34.1450	8	26.551	0	190.091	0	177.9	4	62.1	4	-1E+10	1	-1E+10	1	-1E+10	1	-1E+10	1	-1E+10	1	-1E+10	1
4901784	110	C	07/09/2018	10:49	-132.489	43.009	0	194.90	0	8.3500	0	34.1480	8	26.555	0	193.262	0	177.3	4	61.9	4	-1E+10	1	-1E+10	1	-1E+10	1	-1E+10	1	-1E+10	1	-1E+10	1
4901784	110	C	07/09/2018	10:49	-132.489	43.009	0	198.00	0	8.3390	0	34.1490	8	26.558	0	196.335	0	176.6	4	61.6	4	-1E+10	1	-1E+10	1	-1E+10	1	-1E+10	1	-1E+10	1	-1E+10	1
4901784	110	C	07/09/2018	10:49	-132.489	43.009	0	200.10	0	8.3320	0	34.1490	8	26.559	0	198.416	0	175.8	4	61.3	4	-1E+10	1	-1E+10	1	-1E+10	1	-1E+10	1	-1E+10	1	-1E+10	1
4901784	110	C	07/09/2018	10:49	-132.489	43.009	0	202.20	0	8.3030	0	34.1530	8	26.567	0	200.497	0	175.0	4	61.0	4	-1E+10	1	-1E+10	1	-1E+10	1	-1E+10	1	-1E+10	1	-1E+10	1
4901784	110	C	07/09/2018	10:49	-132.489	43.009	0	204.20	0	8.2690	0	34.1530	8	26.572	0	202.479	0	174.1	4	60.7	4	-1E+10	1	-1E+10	1	-1E+10	1	-1E+10	1	-1E+10	1	-1E+10	1
4901784	110	C	07/09/2018	10:49	-132.489	43.009	0	207.40	0	8.2130	0	34.1520	8	26.579	0	205.651	0	173.3	4	60.3	4	-1E+10	1	-1E+10	1	-1E+10	1	-1E+10	1	-1E+10	1	-1E+10	1
4901784	110	C	07/09/2018	10:49	-132.489	43.009	0	210.40	0	8.1870	0	34.1530	8	26.584	0	208.624	0	172.6	4	60.0	4	-1E+10	1	-1E+10	1	-1E+10	1	-1E+10	1	-1E+10	1	-1E+10	1
4901784	110	C	07/09/2018	10:49	-132.489	43.009	0	212.40	0	8.1740	0	34.1530	8	26.586	0	210.606	0	171.9	4	59.8	4	-1E+10	1	-1E+10	1	-1E+10	1	-1E+10	1	-1E+10	1	-1E+10	1
4901784	110	C	07/09/2018	10:49	-132.489	43.009	0	214.40	0	8.1610	0	34.1530	8	26.588	0	212.588	0	171.1	4	59.5	4	-1E+10	1	-1E+10	1	-1E+10	1	-1E+10	1	-1E+10	1	-1E+10	1
4901784	110	C	07/09/2018	10:49	-132.489	43.009	0	217.50	0	8.1360	0	34.1500	8	26.590	0	215.660	0	169.5	4	58.9	4	-1E+10	1	-1E+10	1	-1E+10	1	-1E+10	1	-1E+10	1	-1E+10	1
4901784	110	C	07/09/2018	10:49	-132.489	43.009	0	220.50	0	8.0680	0	34.1510	8	26.601	0	218.634	0	168.0	4	58.3	4	-1E+10	1	-1E+10	1	-1E+10	1	-1E+10	1	-1E+10	1	-1E+10	1
4901784	110	C	07/09/2018	10:49	-132.489	43.009	0	222.50	0	8.0250	0	34.1470	8	26.604	0	220.616	0	166.9	4	57.8	4	-1E+10	1	-1E+10	1	-1E+10	1	-1E+10	1	-1E+10	1	-1E+10	1
4901784	110	C	07/09/2018	10:49	-132.489	43.009	0	224.60	0	8.0000	0	34.1460	8	26.607	0	222.697	0	165.8	4	57.4	4	-1E+10	1	-1E+10	1	-1E+10	1	-1E+10	1	-1E+10	1	-1E+10	1
4901784	110	C	07/09/2018	10:49	-132.489	43.009	0	227.60	0	7.9370	0	34.1430	8	26.614	0	225.670	0	163.9	4	56.7	4	-1E+10	1	-1E+10	1	-1E+10	1	-1E+10	1	-1E+10	1	-1E+10	1
4901784	110	C	07/09/2018	10:49	-132.489	43.009	0	230.60	0	7.8910	0	34.1400	8	26.618	0	228.642	0	162.5	4	56.2	4	-1E+10	1	-1E+10	1	-1E+10	1	-1E+10	1	-1E+10	1	-1E+10	1
4901784	110	C	07/09/2018	10:49	-132.489	43.009	0	232.50	0	7.8750	0	34.1400	8	26.621	0	230.525	0	161.4	4	55.7	4	-1E+10	1	-1E+10	1	-1E+10	1	-1E+10	1	-1E+10	1	-1E+10	1
4901784	110	C	07/09/2018	10:49	-132.489	43.009	0	234.40	0	7.8020	0	34.1330	8	26.626	0	232.408	0	160.0	4	55.2	4	-1E+10	1	-1E+10	1	-1E+10	1	-1E+10	1	-1E+10	1	-1E+10	1
4901784	110	C	07/09/2018	10:49	-132.489	43.009	0	237.50	0	7.7860	0	34.1330	8	26.628	0	235.480	0	159.2	4	54.9	4	-1E+10	1	-1E+10	1	-1E+10	1	-1E+10	1	-1E+10	1	-1E+10	1
4901784	110	C	07/09/2018	10:49	-132.489	43.009	0	240.00	0	7.7660	0	34.1310	8	26.629	0	237.957	0	158.1	4	54.5	4	-1E+10	1	-1E+10	1	-1E+10	1	-1E+10	1	-1E+10	1	-1E+10	1
4901784	110	C	07/09/2018	10:49	-132.489	43.009	0	242.40	0	7.7270	0	34.1310	8	26.635	0	240.335	0	157.3	4	54.1	4	-1E+10	1	-1E+10	1	-1E+10	1	-1E+10	1	-1E+10	1	-1E+10	1
4901784	110	C	07/09/2018	10:49	-132.489	43.009	0	244.80	0	7.7120	0	34.1300	8	26.637	0	242.714	0	155.8	4	53.6	4	-1E+10	1	-1E+10	1	-1E+10	1	-1E+10	1	-1E+10	1	-1E+10	1
4901784	110	C	07/09/2018	10:49	-132.489	43.009	0	248.00	0	7.6060	0	34.1310	8	26.653	0	245.884	0	154.1	4	52.9	4	-1E+10	1	-1E+10	1	-1E+10	1	-1E+10	1	-1E+10	1	-1E+10	1
4901784	110	C	07/09/2018	10:49	-132.489	43.009	0	250.40	0	7.5510	0	34.1300	8	26.660	0	248.263	0	153.2	4	52.5	4	-1E+10	1	-1E+10	1	-1E+10	1	-1E+10	1	-1E+10	1	-1E+10	1
4901784	110	C	07/09/2018	10:49	-132.489	43.009	0	252.80	0	7.4800	0	34.1320	8	26.672	0	250.641	0	152.5	4	52.2	4	-1E+10	1	-1E+10	1	-1E+10	1	-1E+10	1	-1E+10	1	-1E+10	1
4901784	110	C	07/09/2018	10:49	-132.489	43.009	0	255.20	0	7.4410	0	34.1330	8	26.678	0	253.019	0	151.8	4	51.9	4	-1E+10	1	-1E+10	1	-1E+10	1	-1E+10	1	-1E+10	1	-1E+10	1
4901784	110	C	07/09/2018	10:49	-132.489	43.009	0	257.60	0	7.4000	0	34.1330	8	26.684	0	255.397	0	150.9	4	51.6	4	-1E+10	1	-1E+10	1	-1E+10	1	-1E+10	1	-1E+10	1	-1E+10	1
4901784	110	C	07/09/2018	10:49	-132.489	43.009	0	260.00	0	7.3860	0	34.1320	8	26.685	0	257.775	0	150.0	4	51.2	4	-1E+10	1	-1E+10	1	-1E+10	1	-1E+10	1	-1E+10	1	-1E+10	1
4901784	110	C	07/09/2018	10:49	-132.489	43.009	0	262.50	0	7.3660	0	34.1300	8	26.686	0	260.252	0	148.7	4	50.8	4	-1E+10	1	-1E+10	1	-1E+10	1	-1E+10	1	-1E+10	1	-1E+10	1
4901784	110	C	07/09/2018	10:49	-132.489	43.009	0	265.00	0	7.3180	0	34.1290	8	26.692	0	262.729	0	147.3	4	50.3	4	-1E+10	1	-1E+10	1	-1E+10	1	-1E+10	1	-1E+10	1	-1E+10	1
4901784	110	C	07/09/2018	10:49	-132.489	43.009	0	267.50	0	7.2870	0	34.1270	8	26.695	0	265.206	0	145.8	4	49.7	4	-1E+10	1	-1E+10	1	-1E+10	1	-1E+10	1	-1E+10	1	-1E+10	1
4901784	110	C	07/09/2018	10:49	-132.489	43.009	0	270.00	0	7.2290	0	34.1290	8	26.705	0	267.683	0	144.4	4	49.1	4	-1E+10	1	-1E+10	1	-1E+10	1	-1E+10	1	-1E+10	1	-1E+10	1
4901784	110	C	07/09/2018	10:49	-132.489	43.009	0	272.40	0	7.2160	0	34.1250	8	26.703	0	270.060	0	142.9	4	48.6	4	-1E+10	1	-1E+10	1	-1E+10	1	-1E+10	1	-1E+10	1	-1E+10	1
4901784	110	C	07/09/2018	10:49	-132.489	43.009	0	274.90	0	7.1730	0	34.1240	8	26.709	0	272.537	0	141.1	4	48.0	4	-1E+10	1	-1E+10	1	-1E+10	1	-1E+10	1	-1E+10	1	-1E+10	1
4901784	110	C	07/09/2018	10:49	-132.489	43.009	0	277.30	0	7.0970	0	34.1250	8	26.720	0	274.915	0	139.5	4	47.3	4	-1E+10	1	-1E+10	1	-1E+10	1	-1E+10	1	-1E+10	1	-1E+10	1
4901784	110	C	07/09/2018	10:49	-132.489	43.009	0	279.80	0	7.0660	0	34.1230	8	26.723	0	277.392	0	138.3	4	46.9	4	-1E+10	1	-1E+10	1	-1E+10	1	-1E+10	1	-1E+10	1	-1E+10	1
4901784	110	C	07/09/2018	10:49	-132.489	43.009	0	282.30	0	7.0410	0	34.1220	8	26.725	0	279.869	0	136.8	4	46.4	4	-1E+10	1	-1E+10	1	-1E+10	1	-1E+10	1	-1E+10	1	-1E+10	1
4901784	110	C	07/09/2018	10:49	-132.489	43.009	0	284.80	0	6.9660	0	34.1280	8	26.740	0	282.345	0	135.0	4	45.7	4	-1E+10	1	-1E+10	1	-1E+10	1	-1E+10	1	-1E+10	1	-1E+10	1
4901784	110	C	07/09/2018	10:49	-132.489	43.009	0	287.40	0	6.9140	0	34.1190	8	26.740	0	284.921	0	134.0	4	45.3	4	-1E+10	1	-1E+10	1	-1E+10	1	-1E+10	1	-1E+10	1	-1E+10	1
4901784	110	C	07/09/2018	10:49	-132.489	43.009	0	289.90	0	6.8780	0	34.1180	8	26.744	0	287.398	0	132.9	4	44.9	4	-1E+10	1	-1E+10	1	-1E+10	1	-1E+10	1	-1E+10	1	-1E+10	1
4901784	110	C	07/09/2018	10:49	-132.489	43.009	0	292.40	0	6.8520	0	34.1160	8	26.746	0	289.875	0	131.6	4	44.4	4	-1E+10	1	-1E+10	1	-1E+10	1	-1E+10	1	-1E+10	1	-1E+10	1
4901784	110	C	07/09/2018	10:49	-132.489	43.009	0	295.00	0	6.8010	0	34.1140	8	26.752	0	292.450	0	130.2	4	43.9	4	-1E+10	1	-1E+10	1	-1E+10	1	-1E+10	1	-1E+10	1	-1E+10	1
4901784	110	C	07/09/2018	10:49	-132.489	43.009	0	297.50	0	6.7580	0	34.1130	8	26.757	0	294.927	0	128.6	4	43.3	4	-1E+10	1	-1E+10	1	-1E+10	1	-1E+10	1	-1E+10	1	-1E+10	1
4901784	110	C	07/09/2018	10:49	-132.489	43.009	0	300.00	0	6.6720	0	34.1140	8	26.769	0	297.403	0	127.1	4	42.7	4	-1E+10	1	-1E+10	1	-1E+10	1	-1E+10	1	-1E+10	1	-1E+10	1
4901784	110	C	07/09/2018	10:49	-132.489	43.009	0	302.70	0	6.6250	0	34.1110	8	26.773	0	300.078	0	126.1	4	42.3	4	-1E+10	1	-1E+10	1	-1E+10	1	-1E+10	1	-1E+10	1	-1E+10	1
4901784	110	C	07/09/2018	10:49	-132.489	43.009	0	305.40	0	6.5930	0	34.1110	8	26.777	0	302.753	0	125.1	4	42.0	4	-1E+10	1	-1E+10	1	-1E+10	1	-1E+10	1	-1E+10	1	-1E+10	1
4901784	110	C	07/09/2018	10:49	-132.489	43.009	0	307.20	0	6.5720	0	34.1100	8	26.779	0	304.536	0	124.4	4	41.7	4	-1E+10	1	-1E+10	1	-1E+10	1	-1E+10	1	-1E+10	1	-1E+10	1
4901784	110	C	07/09/2018	10:49	-132.489	43.009	0	309.90	0	6.5400	0	34.1090	8	26.783	0	307.210	0	123.3	4	41.3	4	-1E+10	1	-1E+10	1	-1E+10	1	-1E+10	1	-1E+10	1	-1E+10	1
4901784	110	C	07/09/2018	10:49	-132.489	43.009	0	312.70	0	6.5290	0	34.1070	8	26.783	0	309.984	0	122.1	4	40.9	4	-1E+10	1	-1E+10	1	-1E+10	1	-1E+10	1	-1E+10	1	-1E+10	1
4901784	110	C	07/09/2018	10:49	-132.489	43.009	0	315.30	0	6.4940	0	34.1070	8	26.787	0	312.560	0	120.4	4	40.3	4	-1E+10	1	-1E+10	1	-1E+10	1	-1E+10	1	-1E+10	1	-1E+10	1
4901784	110	C	07/09/2018	10:49	-132.489	43.009	0	318.00	0	6.4660	0	34.1060	8	26.790	0	315.234	0	118.6	4	39.7	4	-1E+10	1	-1E+10	1	-1E+10	1	-1E+10	1	-1E+10	1	-1E+10	1
4901784	110	C	07/09/2018	10:49	-132.489	43.009	0	319.90	0	6.4380	0	34.1070	8	26.795	0	317.116	0	117.2	4	39.2	4	-1E+10	1	-1E+10	1	-1E+10	1	-1E+10	1	-1E+10	1	-1E+10	1
4901784	110	C	07/09/2018	10:49	-132.489	43.009	0	322.60	0	6.3840	0	34.1030	8	26.799	0	319.790	0	114.8	4	38.3	4	-1E+10	1	-1E+10	1	-1E+10	1	-1E+10	1	-1E+10	1	-1E+10	1
4901784	110	C	07/09/2018	10:49	-132.489	43.009	0	325.30	0	6.2810	0	34.1050	8	26.813	0	322.465	0	112.4	4	37.4	4	-1E+10	1	-1E+10	1	-1E+10	1	-1E+10	1	-1E+10	1	-1E+10	1
4901784	110	C	07/09/2018	10:49	-132.489	43.009	0	327.00	0	6.2420	0	34.1020	8	26.816	0	324.149	0	111.6	4	37.1	4	-1E+10	1	-1E+10	1	-1E+10	1	-1E+10	1	-1E+10	1	-1E+10	1
4901784	110	C	07/09/2018	10:49	-132.489	43.009	0	329.90	0	6.2120	0	34.1010	8	26.819	0	327.021	0	110.5	4	36.7	4	-1E+10	1	-1E+10	1	-1E+10	1	-1E+10	1	-1E+10	1	-1E+10	1
4901784	110	C	07/09/2018	10:49	-132.489	43.009	0	332.30	0	6.1960	0	34.1000	8	26.820	0	329.398	0	109.2	4	36.3	4	-1E+10	1	-1E+10	1	-1E+10	1	-1E+10	1	-1E+10	1	-1E+10	1
4901784	110	C	07/09/2018	10:49	-132.489	43.009	0	335.40	0	6.1600	0	34.0990	8	26.824	0	332.469	0	107.2	4	35.6	4	-1E+10	1	-1E+10	1	-1E+10	1	-1E+10	1	-1E+10	1	-1E+10	1
4901784	110	C	07/09/2018	10:49	-132.489	43.009	0	337.80	0	6.1040	0	34.1000	8	26.832	0	334.846	0	106.1	4	35.2	4	-1E+10	1	-1E+10	1	-1E+10	1	-1E+10	1	-1E+10	1	-1E+10	1
4901784	110	C	07/09/2018	10:49	-132.489	43.009	0	340.10	0	6.0860	0	34.0980	8	26.833	0	337.124	0	105.3	4	34.9	4	-1E+10	1	-1E+10	1	-1E+10	1	-1E+10	1	-1E+10	1	-1E+10	1
4901784	110	C	07/09/2018	10:49	-132.489	43.009	0	342.50	0	6.0580	0	34.1000	8	26.838	0	339.501	0	104.3	4	34.5	4	-1E+10	1	-1E+10	1	-1E+10	1	-1E+10	1	-1E+10	1	-1E+10	1
4901784	110	C	07/09/2018	10:49	-132.489	43.009	0	344.90	0	6.0430	0	34.0980	8	26.838	0	341.878	0	103.4	4	34.2	4	-1E+10	1	-1E+10	1	-1E+10	1	-1E+10	1	-1E+10	1	-1E+10	1
4901784	110	C	07/09/2018	10:49	-132.489	43.009	0	347.30	0	6.0170	0	34.0980	8	26.842	0	344.255	0	102.2	4	33.8	4	-1E+10	1	-1E+10	1	-1E+10	1	-1E+10	1	-1E+10	1	-1E+10	1
4901784	110	C	07/09/2018	10:49	-132.489	43.009	0	349.80	0	5.9980	0	34.0980	8	26.844	0	346.731	0	100.9	4	33.4	4	-1E+10	1	-1E+10	1	-1E+10	1	-1E+10	1	-1E+10	1	-1E+10	1
4901784	110	C	07/09/2018	10:49	-132.489	43.009	0	352.30	0	5.9640	0	34.0970	8	26.848	0	349.207	0	99.2	4	32.8	4	-1E+10	1	-1E+10	1	-1E+10	1	-1E+10	1	-1E+10	1	-1E+10	1
4901784	110	C	07/09/2018	10:49	-132.489	43.009	0	354.90	0	5.9220	0	34.0990	8	26.854	0	351.782	0	97.2	4	32.1	4	-1E+10	1	-1E+10	1	-1E+10	1	-1E+10	1	-1E+10	1	-1E+10	1
4901784	110	C	07/09/2018	10:49	-132.489	43.009	0	357.40	0	5.8620	0	34.1010	8	26.863	0	354.258	0	95.4	4	31.5	4	-1E+10	1	-1E+10	1	-1E+10	1	-1E+10	1	-1E+10	1	-1E+10	1
4901784	110	C	07/09/2018	10:49	-132.489	43.009	0	359.90	0	5.8230	0	34.1040	8	26.871	0	356.733	0	94.0	4	31.0	4	-1E+10	1	-1E+10	1	-1E+10	1	-1E+10	1	-1E+10	1	-1E+10	1
4901784	110	C	07/09/2018	10:49	-132.489	43.009	0	362.40	0	5.8000	0	34.1040	8	26.874	0	359.209	0	93.0	4	30.6	4	-1E+10	1	-1E+10	1	-1E+10	1	-1E+10	1	-1E+10	1	-1E+10	1
4901784	110	C	07/09/2018	10:49	-132.489	43.009	0	365.00	0	5.7810	0	34.1050	8	26.877	0	361.784	0	91.7	4	30.2	4	-1E+10	1	-1E+10	1	-1E+10	1	-1E+10	1	-1E+10	1	-1E+10	1
4901784	110	C	07/09/2018	10:49	-132.489	43.009	0	367.60	0	5.7420	0	34.1060	8	26.882	0	364.359	0	90.6	4	29.8	4	-1E+10	1	-1E+10	1	-1E+10	1	-1E+10	1	-1E+10	1	-1E+10	1
4901784	110	C	07/09/2018	10:49	-132.489	43.009	0	370.10	0	5.7300	0	34.1070	8	26.885	0	366.835	0	89.5	4	29.4	4	-1E+10	1	-1E+10	1	-1E+10	1	-1E+10	1	-1E+10	1	-1E+10	1
4901784	110	C	07/09/2018	10:49	-132.489	43.009	0	372.60	0	5.7120	0	34.1080	8	26.888	0	369.310	0	88.5	4	29.1	4	-1E+10	1	-1E+10	1	-1E+10	1	-1E+10	1	-1E+10	1	-1E+10	1
4901784	110	C	07/09/2018	10:49	-132.489	43.009	0	375.10	0	5.6910	0	34.1090	8	26.891	0	371.786	0	87.8	4	28.8	4	-1E+10	1	-1E+10	1	-1E+10	1	-1E+10	1	-1E+10	1	-1E+10	1
4901784	110	C	07/09/2018	10:49	-132.489	43.009	0	377.60	0	5.6810	0	34.1100	8	26.893	0	374.262	0	87.2	4	28.6	4	-1E+10	1	-1E+10	1	-1E+10	1	-1E+10	1	-1E+10	1	-1E+10	1
4901784	110	C	07/09/2018	10:49	-132.489	43.009	0	380.20	0	5.6670	0	34.1090	8	26.894	0	376.836	0	86.3	4	28.3	4	-1E+10	1	-1E+10	1	-1E+10	1	-1E+10	1	-1E+10	1	-1E+10	1
4901784	110	C	07/09/2018	10:49	-132.489	43.009	0	382.80	0	5.6440	0	34.1100	8	26.898	0	379.411	0	84.9	4	27.9	4	-1E+10	1	-1E+10	1	-1E+10	1	-1E+10	1	-1E+10	1	-1E+10	1
4901784	110	C	07/09/2018	10:49	-132.489	43.009	0	384.60	0	5.6060	0	34.1110	8	26.903	0	381.193	0	83.8	4	27.5	4	-1E+10	1	-1E+10	1	-1E+10	1	-1E+10	1	-1E+10	1	-1E+10	1
4901784	110	C	07/09/2018	10:49	-132.489	43.009	0	387.10	0	5.5690	0	34.1140	8	26.910	0	383.669	0	82.9	4	27.2	4	-1E+10	1	-1E+10	1	-1E+10	1	-1E+10	1	-1E+10	1	-1E+10	1
4901784	110	C	07/09/2018	10:49	-132.489	43.009	0	389.70	0	5.5510	0	34.1150	8	26.913	0	386.244	0	82.5	4	27.0	4	-1E+10	1	-1E+10	1	-1E+10	1	-1E+10	1	-1E+10	1	-1E+10	1
4901784	110	C	07/09/2018	10:49	-132.489	43.009	0	392.30	0	5.5440	0	34.1150	8	26.914	0	388.818	0	82.1	4	26.9	4	-1E+10	1	-1E+10	1	-1E+10	1	-1E+10	1	-1E+10	1	-1E+10	1
4901784	110	C	07/09/2018	10:49	-132.489	43.009	0	394.90	0	5.5420	0	34.1140	8	26.913	0	391.393	0	81.5	4	26.7	4	-1E+10	1	-1E+10	1	-1E+10	1	-1E+10	1	-1E+10	1	-1E+10	1
4901784	110	C	07/09/2018	10:49	-132.489	43.009	0	397.40	0	5.5080	0	34.1150	8	26.918	0	393.868	0	80.6	4	26.4	4	-1E+10	1	-1E+10	1	-1E+10	1	-1E+10	1	-1E+10	1	-1E+10	1
4901784	110	C	07/09/2018	10:49	-132.489	43.009	0	399.90	0	5.4960	0	34.1160	8	26.920	0	396.343	0	79.7	4	26.1	4	-1E+10	1	-1E+10	1	-1E+10	1	-1E+10	1	-1E+10	1	-1E+10	1
4901784	110	C	07/09/2018	10:49	-132.489	43.009	0	402.50	0	5.4730	0	34.1180	8	26.925	0	398.918	0	79.0	4	25.8	4	-1E+10	1	-1E+10	1	-1E+10	1	-1E+10	1	-1E+10	1	-1E+10	1
4901784	110	C	07/09/2018	10:49	-132.489	43.009	0	405.10	0	5.4600	0	34.1180	8	26.926	0	401.492	0	78.3	4	25.6	4	-1E+10	1	-1E+10	1	-1E+10	1	-1E+10	1	-1E+10	1	-1E+10	1
4901784	110	C	07/09/2018	10:49	-132.489	43.009	0	407.60	0	5.4440	0	34.1190	8	26.929	0	403.967	0	77.5	4	25.3	4	-1E+10	1	-1E+10	1	-1E+10	1	-1E+10	1	-1E+10	1	-1E+10	1
4901784	110	C	07/09/2018	10:49	-132.489	43.009	0	410.10	0	5.4100	0	34.1210	8	26.935	0	406.443	0	76.8	4	25.1	4	-1E+10	1	-1E+10	1	-1E+10	1	-1E+10	1	-1E+10	1	-1E+10	1
4901784	110	C	07/09/2018	10:49	-132.489	43.009	0	412.70	0	5.3960	0	34.1210	8	26.936	0	409.017	0	75.9	4	24.8	4	-1E+10	1	-1E+10	1	-1E+10	1	-1E+10	1	-1E+10	1	-1E+10	1
4901784	110	C	07/09/2018	10:49	-132.489	43.009	0	415.40	0	5.3850	0	34.1220	8	26.938	0	411.690	0	74.6	4	24.3	4	-1E+10	1	-1E+10	1	-1E+10	1	-1E+10	1	-1E+10	1	-1E+10	1
4901784	110	C	07/09/2018	10:49	-132.489	43.009	0	417.90	0	5.3630	0	34.1250	8	26.943	0	414.165	0	73.9	4	24.1	4	-1E+10	1	-1E+10	1	-1E+10	1	-1E+10	1	-1E+10	1	-1E+10	1
4901784	110	C	07/09/2018	10:49	-132.489	43.009	0	420.40	0	5.3410	0	34.1250	8	26.946	0	416.640	0	73.2	4	23.9	4	-1E+10	1	-1E+10	1	-1E+10	1	-1E+10	1	-1E+10	1	-1E+10	1
4901784	110	C	07/09/2018	10:49	-132.489	43.009	0	422.10	0	5.3180	0	34.1250	8	26.949	0	418.324	0	72.7	4	23.7	4	-1E+10	1	-1E+10	1	-1E+10	1	-1E+10	1	-1E+10	1	-1E+10	1
4901784	110	C	07/09/2018	10:49	-132.489	43.009	0	424.70	0	5.2720	0	34.1280	8	26.956	0	420.898	0	72.0	4	23.4	4	-1E+10	1	-1E+10	1	-1E+10	1	-1E+10	1	-1E+10	1	-1E+10	1
4901784	110	C	07/09/2018	10:49	-132.489	43.009	0	427.30	0	5.2480	0	34.1280	8	26.959	0	423.472	0	71.5	4	23.2	4	-1E+10	1	-1E+10	1	-1E+10	1	-1E+10	1	-1E+10	1	-1E+10	1
4901784	110	C	07/09/2018	10:49	-132.489	43.009	0	430.00	0	5.2320	0	34.1290	8	26.962	0	426.145	0	70.7	4	23.0	4	-1E+10	1	-1E+10	1	-1E+10	1	-1E+10	1	-1E+10	1	-1E+10	1
4901784	110	C	07/09/2018	10:49	-132.489	43.009	0	432.50	0	5.2170	0	34.1280	8	26.963	0	428.620	0	69.7	4	22.7	4	-1E+10	1	-1E+10	1	-1E+10	1	-1E+10	1	-1E+10	1	-1E+10	1
4901784	110	C	07/09/2018	10:49	-132.489	43.009	0	435.00	0	5.1860	0	34.1340	8	26.971	0	431.095	0	68.8	4	22.3	4	-1E+10	1	-1E+10	1	-1E+10	1	-1E+10	1	-1E+10	1	-1E+10	1
4901784	110	C	07/09/2018	10:49	-132.489	43.009	0	437.50	0	5.1690	0	34.1330	8	26.973	0	433.570	0	68.2	4	22.1	4	-1E+10	1	-1E+10	1	-1E+10	1	-1E+10	1	-1E+10	1	-1E+10	1
4901784	110	C	07/09/2018	10:49	-132.489	43.009	0	440.00	0	5.1430	0	34.1330	8	26.976	0	436.045	0	67.2	4	21.8	4	-1E+10	1	-1E+10	1	-1E+10	1	-1E+10	1	-1E+10	1	-1E+10	1
4901784	110	C	07/09/2018	10:49	-132.489	43.009	0	442.50	0	5.1180	0	34.1360	8	26.981	0	438.519	0	66.3	4	21.5	4	-1E+10	1	-1E+10	1	-1E+10	1	-1E+10	1	-1E+10	1	-1E+10	1
4901784	110	C	07/09/2018	10:49	-132.489	43.009	0	445.00	0	5.0940	0	34.1380	8	26.985	0	440.994	0	65.6	4	21.3	4	-1E+10	1	-1E+10	1	-1E+10	1	-1E+10	1	-1E+10	1	-1E+10	1
4901784	110	C	07/09/2018	10:49	-132.489	43.009	0	447.60	0	5.0800	0	34.1400	8	26.988	0	443.568	0	64.9	4	21.0	4	-1E+10	1	-1E+10	1	-1E+10	1	-1E+10	1	-1E+10	1	-1E+10	1
4901784	110	C	07/09/2018	10:49	-132.489	43.009	0	450.20	0	5.0440	0	34.1410	8	26.993	0	446.142	0	64.4	4	20.8	4	-1E+10	1	-1E+10	1	-1E+10	1	-1E+10	1	-1E+10	1	-1E+10	1
4901784	110	C	07/09/2018	10:49	-132.489	43.009	0	452.70	0	5.0280	0	34.1410	8	26.995	0	448.617	0	63.8	4	20.7	4	-1E+10	1	-1E+10	1	-1E+10	1	-1E+10	1	-1E+10	1	-1E+10	1
4901784	110	C	07/09/2018	10:49	-132.489	43.009	0	455.20	0	5.0080	0	34.1430	8	26.999	0	451.091	0	63.2	4	20.4	4	-1E+10	1	-1E+10	1	-1E+10	1	-1E+10	1	-1E+10	1	-1E+10	1
4901784	110	C	07/09/2018	10:49	-132.489	43.009	0	457.80	0	4.9880	0	34.1450	8	27.003	0	453.665	0	62.6	4	20.2	4	-1E+10	1	-1E+10	1	-1E+10	1	-1E+10	1	-1E+10	1	-1E+10	1
4901784	110	C	07/09/2018	10:49	-132.489	43.009	0	460.30	0	4.9640	0	34.1440	8	27.005	0	456.140	0	61.8	4	20.0	4	-1E+10	1	-1E+10	1	-1E+10	1	-1E+10	1	-1E+10	1	-1E+10	1
4901784	110	C	07/09/2018	10:49	-132.489	43.009	0	462.80	0	4.9600	0	34.1470	8	27.008	0	458.614	0	60.8	4	19.6	4	-1E+10	1	-1E+10	1	-1E+10	1	-1E+10	1	-1E+10	1	-1E+10	1
4901784	110	C	07/09/2018	10:49	-132.489	43.009	0	465.40	0	4.9250	0	34.1510	8	27.015	0	461.188	0	59.9	4	19.3	4	-1E+10	1	-1E+10	1	-1E+10	1	-1E+10	1	-1E+10	1	-1E+10	1
4901784	110	C	07/09/2018	10:49	-132.489	43.009	0	467.90	0	4.8940	0	34.1530	8	27.020	0	463.663	0	59.1	4	19.1	4	-1E+10	1	-1E+10	1	-1E+10	1	-1E+10	1	-1E+10	1	-1E+10	1
4901784	110	C	07/09/2018	10:49	-132.489	43.009	0	469.60	0	4.8830	0	34.1530	8	27.021	0	465.345	0	58.4	4	18.8	4	-1E+10	1	-1E+10	1	-1E+10	1	-1E+10	1	-1E+10	1	-1E+10	1
4901784	110	C	07/09/2018	10:49	-132.489	43.009	0	472.10	0	4.8640	0	34.1580	8	27.027	0	467.820	0	57.7	4	18.6	4	-1E+10	1	-1E+10	1	-1E+10	1	-1E+10	1	-1E+10	1	-1E+10	1
4901784	110	C	07/09/2018	10:49	-132.489	43.009	0	474.60	0	4.8500	0	34.1580	8	27.029	0	470.294	0	57.0	4	18.4	4	-1E+10	1	-1E+10	1	-1E+10	1	-1E+10	1	-1E+10	1	-1E+10	1
4901784	110	C	07/09/2018	10:49	-132.489	43.009	0	477.20	0	4.8210	0	34.1620	8	27.035	0	472.868	0	56.2	4	18.1	4	-1E+10	1	-1E+10	1	-1E+10	1	-1E+10	1	-1E+10	1	-1E+10	1
4901784	110	C	07/09/2018	10:49	-132.489	43.009	0	479.80	0	4.8080	0	34.1630	8	27.038	0	475.441	0	55.4	4	17.8	4	-1E+10	1	-1E+10	1	-1E+10	1	-1E+10	1	-1E+10	1	-1E+10	1
4901784	110	C	07/09/2018	10:49	-132.489	43.009	0	482.30	0	4.7840	0	34.1660	8	27.043	0	477.916	0	54.6	4	17.5	4	-1E+10	1	-1E+10	1	-1E+10	1	-1E+10	1	-1E+10	1	-1E+10	1
4901784	110	C	07/09/2018	10:49	-132.489	43.009	0	484.90	0	4.7770	0	34.1680	8	27.045	0	480.489	0	53.7	4	17.3	4	-1E+10	1	-1E+10	1	-1E+10	1	-1E+10	1	-1E+10	1	-1E+10	1
4901784	110	C	07/09/2018	10:49	-132.489	43.009	0	487.40	0	4.7640	0	34.1700	8	27.048	0	482.963	0	52.6	4	16.9	4	-1E+10	1	-1E+10	1	-1E+10	1	-1E+10	1	-1E+10	1	-1E+10	1
4901784	110	C	07/09/2018	10:49	-132.489	43.009	0	490.00	0	4.7480	0	34.1730	8	27.052	0	485.537	0	51.4	4	16.5	4	-1E+10	1	-1E+10	1	-1E+10	1	-1E+10	1	-1E+10	1	-1E+10	1
4901784	110	C	07/09/2018	10:49	-132.489	43.009	0	492.50	0	4.7390	0	34.1770	8	27.057	0	488.011	0	50.3	4	16.2	4	-1E+10	1	-1E+10	1	-1E+10	1	-1E+10	1	-1E+10	1	-1E+10	1
4901784	110	C	07/09/2018	10:49	-132.489	43.009	0	495.00	0	4.7320	0	34.1800	8	27.060	0	490.485	0	49.1	4	15.8	4	-1E+10	1	-1E+10	1	-1E+10	1	-1E+10	1	-1E+10	1	-1E+10	1
4901784	110	C	07/09/2018	10:49	-132.489	43.009	0	497.50	0	4.7180	0	34.1860	8	27.066	0	492.959	0	48.1	4	15.4	4	-1E+10	1	-1E+10	1	-1E+10	1	-1E+10	1	-1E+10	1	-1E+10	1
4901784	110	C	07/09/2018	10:49	-132.489	43.009	0	500.00	0	4.7130	0	34.1890	8	27.069	0	495.434	0	47.2	4	15.1	4	-1E+10	1	-1E+10	1	-1E+10	1	-1E+10	1	-1E+10	1	-1E+10	1
4901784	110	C	07/09/2018	10:49	-132.489	43.009	0	505.20	0	4.6980	0	34.1970	8	27.077	0	500.580	0	45.6	4	14.6	4	-1E+10	1	-1E+10	1	-1E+10	1	-1E+10	1	-1E+10	1	-1E+10	1
4901784	110	C	07/09/2018	10:49	-132.489	43.009	0	510.40	0	4.6870	0	34.2010	8	27.082	0	505.726	0	44.2	4	14.2	4	-1E+10	1	-1E+10	1	-1E+10	1	-1E+10	1	-1E+10	1	-1E+10	1
4901784	110	C	07/09/2018	10:49	-132.489	43.009	0	515.50	0	4.6770	0	34.2050	8	27.086	0	510.773	0	42.8	4	13.7	4	-1E+10	1	-1E+10	1	-1E+10	1	-1E+10	1	-1E+10	1	-1E+10	1
4901784	110	C	07/09/2018	10:49	-132.489	43.009	0	520.70	0	4.6550	0	34.2120	8	27.094	0	515.919	0	40.9	4	13.1	4	-1E+10	1	-1E+10	1	-1E+10	1	-1E+10	1	-1E+10	1	-1E+10	1
4901784	110	C	07/09/2018	10:49	-132.489	43.009	0	525.00	0	4.6330	0	34.2180	8	27.101	0	520.174	0	39.4	4	12.6	4	-1E+10	1	-1E+10	1	-1E+10	1	-1E+10	1	-1E+10	1	-1E+10	1
4901784	110	C	07/09/2018	10:49	-132.489	43.009	0	529.30	0	4.6230	0	34.2240	8	27.107	0	524.429	0	37.8	4	12.1	4	-1E+10	1	-1E+10	1	-1E+10	1	-1E+10	1	-1E+10	1	-1E+10	1
4901784	110	C	07/09/2018	10:49	-132.489	43.009	0	534.50	0	4.6100	0	34.2330	8	27.116	0	529.575	0	36.1	4	11.6	4	-1E+10	1	-1E+10	1	-1E+10	1	-1E+10	1	-1E+10	1	-1E+10	1
4901784	110	C	07/09/2018	10:49	-132.489	43.009	0	539.70	0	4.5850	0	34.2380	8	27.122	0	534.720	0	34.9	4	11.2	4	-1E+10	1	-1E+10	1	-1E+10	1	-1E+10	1	-1E+10	1	-1E+10	1
4901784	110	C	07/09/2018	10:49	-132.489	43.009	0	544.90	0	4.5580	0	34.2450	8	27.131	0	539.865	0	33.4	4	10.7	4	-1E+10	1	-1E+10	1	-1E+10	1	-1E+10	1	-1E+10	1	-1E+10	1
4901784	110	C	07/09/2018	10:49	-132.489	43.009	0	550.00	0	4.5460	0	34.2500	8	27.136	0	544.912	0	32.1	4	10.3	4	-1E+10	1	-1E+10	1	-1E+10	1	-1E+10	1	-1E+10	1	-1E+10	1
4901784	110	C	07/09/2018	10:49	-132.489	43.009	0	555.20	0	4.5240	0	34.2570	8	27.144	0	550.057	0	31.0	4	9.9	4	-1E+10	1	-1E+10	1	-1E+10	1	-1E+10	1	-1E+10	1	-1E+10	1
4901784	110	C	07/09/2018	10:49	-132.489	43.009	0	560.40	0	4.4990	0	34.2630	8	27.152	0	555.201	0	30.0	4	9.6	4	-1E+10	1	-1E+10	1	-1E+10	1	-1E+10	1	-1E+10	1	-1E+10	1
4901784	110	C	07/09/2018	10:49	-132.489	43.009	0	565.60	0	4.4830	0	34.2680	8	27.157	0	560.346	0	28.8	4	9.2	4	-1E+10	1	-1E+10	1	-1E+10	1	-1E+10	1	-1E+10	1	-1E+10	1
4901784	110	C	07/09/2018	10:49	-132.489	43.009	0	569.90	0	4.4630	0	34.2730	8	27.164	0	564.600	0	28.1	4	9.0	4	-1E+10	1	-1E+10	1	-1E+10	1	-1E+10	1	-1E+10	1	-1E+10	1
4901784	110	C	07/09/2018	10:49	-132.489	43.009	0	574.30	0	4.4470	0	34.2770	8	27.169	0	568.954	0	27.3	4	8.7	4	-1E+10	1	-1E+10	1	-1E+10	1	-1E+10	1	-1E+10	1	-1E+10	1
4901784	110	C	07/09/2018	10:49	-132.489	43.009	0	579.60	0	4.4230	0	34.2830	8	27.176	0	574.197	0	26.5	4	8.5	4	-1E+10	1	-1E+10	1	-1E+10	1	-1E+10	1	-1E+10	1	-1E+10	1
4901784	110	C	07/09/2018	10:49	-132.489	43.009	0	584.90	0	4.4070	0	34.2870	8	27.181	0	579.440	0	26.1	4	8.3	4	-1E+10	1	-1E+10	1	-1E+10	1	-1E+10	1	-1E+10	1	-1E+10	1
4901784	110	C	07/09/2018	10:49	-132.489	43.009	0	590.20	0	4.3820	0	34.2900	8	27.186	0	584.683	0	26.0	4	8.3	4	-1E+10	1	-1E+10	1	-1E+10	1	-1E+10	1	-1E+10	1	-1E+10	1
4901784	110	C	07/09/2018	10:49	-132.489	43.009	0	595.70	0	4.3660	0	34.2910	8	27.189	0	590.124	0	25.6	4	8.2	4	-1E+10	1	-1E+10	1	-1E+10	1	-1E+10	1	-1E+10	1	-1E+10	1
4901784	110	C	07/09/2018	10:49	-132.489	43.009	0	600.20	0	4.3570	0	34.2950	8	27.193	0	594.575	0	25.2	4	8.0	4	-1E+10	1	-1E+10	1	-1E+10	1	-1E+10	1	-1E+10	1	-1E+10	1
4901784	110	C	07/09/2018	10:49	-132.489	43.009	0	604.70	0	4.3390	0	34.2970	8	27.196	0	599.027	0	25.1	4	8.0	4	-1E+10	1	-1E+10	1	-1E+10	1	-1E+10	1	-1E+10	1	-1E+10	1
4901784	110	C	07/09/2018	10:49	-132.489	43.009	0	610.30	0	4.3140	0	34.3000	8	27.201	0	604.566	0	24.7	4	7.9	4	-1E+10	1	-1E+10	1	-1E+10	1	-1E+10	1	-1E+10	1	-1E+10	1
4901784	110	C	07/09/2018	10:49	-132.489	43.009	0	615.50	0	4.2940	0	34.3030	8	27.206	0	609.710	0	24.2	4	7.7	4	-1E+10	1	-1E+10	1	-1E+10	1	-1E+10	1	-1E+10	1	-1E+10	1
4901784	110	C	07/09/2018	10:49	-132.489	43.009	0	620.20	0	4.2780	0	34.3070	8	27.211	0	614.359	0	23.6	4	7.5	4	-1E+10	1	-1E+10	1	-1E+10	1	-1E+10	1	-1E+10	1	-1E+10	1
4901784	110	C	07/09/2018	10:49	-132.489	43.009	0	625.00	0	4.2650	0	34.3100	8	27.215	0	619.106	0	23.0	4	7.3	4	-1E+10	1	-1E+10	1	-1E+10	1	-1E+10	1	-1E+10	1	-1E+10	1
4901784	110	C	07/09/2018	10:49	-132.489	43.009	0	629.90	0	4.2310	0	34.3150	8	27.222	0	623.953	0	22.4	4	7.1	4	-1E+10	1	-1E+10	1	-1E+10	1	-1E+10	1	-1E+10	1	-1E+10	1
4901784	110	C	07/09/2018	10:49	-132.489	43.009	0	634.80	0	4.2060	0	34.3190	8	27.228	0	628.799	0	22.1	4	7.0	4	-1E+10	1	-1E+10	1	-1E+10	1	-1E+10	1	-1E+10	1	-1E+10	1
4901784	110	C	07/09/2018	10:49	-132.489	43.009	0	639.80	0	4.1860	0	34.3240	8	27.234	0	633.744	0	21.4	4	6.8	4	-1E+10	1	-1E+10	1	-1E+10	1	-1E+10	1	-1E+10	1	-1E+10	1
4901784	110	C	07/09/2018	10:49	-132.489	43.009	0	644.90	0	4.1800	0	34.3330	8	27.242	0	638.788	0	20.7	4	6.6	4	-1E+10	1	-1E+10	1	-1E+10	1	-1E+10	1	-1E+10	1	-1E+10	1
4901784	110	C	07/09/2018	10:49	-132.489	43.009	0	650.00	0	4.1720	0	34.3400	8	27.248	0	643.832	0	20.0	4	6.4	4	-1E+10	1	-1E+10	1	-1E+10	1	-1E+10	1	-1E+10	1	-1E+10	1
4901784	110	C	07/09/2018	10:49	-132.489	43.009	0	655.20	0	4.1620	0	34.3440	8	27.253	0	648.974	0	19.4	4	6.2	4	-1E+10	1	-1E+10	1	-1E+10	1	-1E+10	1	-1E+10	1	-1E+10	1
4901784	110	C	07/09/2018	10:49	-132.489	43.009	0	660.50	0	4.1440	0	34.3530	8	27.262	0	654.216	0	18.8	4	6.0	4	-1E+10	1	-1E+10	1	-1E+10	1	-1E+10	1	-1E+10	1	-1E+10	1
4901784	110	C	07/09/2018	10:49	-132.489	43.009	0	664.90	0	4.1290	0	34.3560	8	27.266	0	658.567	0	18.7	4	5.9	4	-1E+10	1	-1E+10	1	-1E+10	1	-1E+10	1	-1E+10	1	-1E+10	1
4901784	110	C	07/09/2018	10:49	-132.489	43.009	0	669.40	0	4.1090	0	34.3550	8	27.267	0	663.017	0	18.5	4	5.9	4	-1E+10	1	-1E+10	1	-1E+10	1	-1E+10	1	-1E+10	1	-1E+10	1
4901784	110	C	07/09/2018	10:49	-132.489	43.009	0	674.80	0	4.1040	0	34.3630	8	27.274	0	668.357	0	17.8	4	5.7	4	-1E+10	1	-1E+10	1	-1E+10	1	-1E+10	1	-1E+10	1	-1E+10	1
4901784	110	C	07/09/2018	10:49	-132.489	43.009	0	680.20	0	4.0900	0	34.3670	8	27.279	0	673.696	0	17.5	4	5.5	4	-1E+10	1	-1E+10	1	-1E+10	1	-1E+10	1	-1E+10	1	-1E+10	1
4901784	110	C	07/09/2018	10:49	-132.489	43.009	0	684.80	0	4.0710	0	34.3700	8	27.283	0	678.245	0	17.3	4	5.5	4	-1E+10	1	-1E+10	1	-1E+10	1	-1E+10	1	-1E+10	1	-1E+10	1
4901784	110	C	07/09/2018	10:49	-132.489	43.009	0	690.10	0	4.0620	0	34.3720	8	27.286	0	683.485	0	17.0	4	5.4	4	-1E+10	1	-1E+10	1	-1E+10	1	-1E+10	1	-1E+10	1	-1E+10	1
4901784	110	C	07/09/2018	10:49	-132.489	43.009	0	695.20	0	4.0390	0	34.3770	8	27.292	0	688.528	0	16.5	4	5.2	4	-1E+10	1	-1E+10	1	-1E+10	1	-1E+10	1	-1E+10	1	-1E+10	1
4901784	110	C	07/09/2018	10:49	-132.489	43.009	0	699.90	0	4.0390	0	34.3830	8	27.297	0	693.175	0	16.0	4	5.1	4	-1E+10	1	-1E+10	1	-1E+10	1	-1E+10	1	-1E+10	1	-1E+10	1
4901784	110	C	07/09/2018	10:49	-132.489	43.009	0	704.80	0	4.0200	0	34.3860	8	27.301	0	698.020	0	15.7	4	5.0	4	-1E+10	1	-1E+10	1	-1E+10	1	-1E+10	1	-1E+10	1	-1E+10	1
4901784	110	C	07/09/2018	10:49	-132.489	43.009	0	709.60	0	4.0040	0	34.3910	8	27.307	0	702.766	0	15.3	4	4.9	4	-1E+10	1	-1E+10	1	-1E+10	1	-1E+10	1	-1E+10	1	-1E+10	1
4901784	110	C	07/09/2018	10:49	-132.489	43.009	0	714.50	0	4.0030	0	34.3950	8	27.310	0	707.610	0	15.1	4	4.8	4	-1E+10	1	-1E+10	1	-1E+10	1	-1E+10	1	-1E+10	1	-1E+10	1
4901784	110	C	07/09/2018	10:49	-132.489	43.009	0	719.50	0	3.9980	0	34.3970	8	27.312	0	712.554	0	14.9	4	4.7	4	-1E+10	1	-1E+10	1	-1E+10	1	-1E+10	1	-1E+10	1	-1E+10	1
4901784	110	C	07/09/2018	10:49	-132.489	43.009	0	724.60	0	3.9850	0	34.3990	8	27.315	0	717.595	0	14.7	4	4.7	4	-1E+10	1	-1E+10	1	-1E+10	1	-1E+10	1	-1E+10	1	-1E+10	1
4901784	110	C	07/09/2018	10:49	-132.489	43.009	0	729.60	0	3.9610	0	34.4030	8	27.321	0	722.538	0	14.8	4	4.7	4	-1E+10	1	-1E+10	1	-1E+10	1	-1E+10	1	-1E+10	1	-1E+10	1
4901784	110	C	07/09/2018	10:49	-132.489	43.009	0	734.70	0	3.9020	0	34.4000	8	27.324	0	727.580	0	15.0	4	4.7	4	-1E+10	1	-1E+10	1	-1E+10	1	-1E+10	1	-1E+10	1	-1E+10	1
4901784	110	C	07/09/2018	10:49	-132.489	43.009	0	739.90	0	3.8870	0	34.4020	8	27.328	0	732.721	0	14.8	4	4.7	4	-1E+10	1	-1E+10	1	-1E+10	1	-1E+10	1	-1E+10	1	-1E+10	1
4901784	110	C	07/09/2018	10:49	-132.489	43.009	0	745.10	0	3.8600	0	34.4060	8	27.334	0	737.861	0	14.6	4	4.6	4	-1E+10	1	-1E+10	1	-1E+10	1	-1E+10	1	-1E+10	1	-1E+10	1
4901784	110	C	07/09/2018	10:49	-132.489	43.009	0	750.30	0	3.8510	0	34.4080	8	27.336	0	743.001	0	14.4	4	4.5	4	-1E+10	1	-1E+10	1	-1E+10	1	-1E+10	1	-1E+10	1	-1E+10	1
4901784	110	C	07/09/2018	10:49	-132.489	43.009	0	755.50	0	3.8400	0	34.4110	8	27.340	0	748.141	0	14.3	4	4.5	4	-1E+10	1	-1E+10	1	-1E+10	1	-1E+10	1	-1E+10	1	-1E+10	1
4901784	110	C	07/09/2018	10:49	-132.489	43.009	0	760.00	0	3.8360	0	34.4130	8	27.342	0	752.589	0	14.1	4	4.5	4	-1E+10	1	-1E+10	1	-1E+10	1	-1E+10	1	-1E+10	1	-1E+10	1
4901784	110	C	07/09/2018	10:49	-132.489	43.009	0	764.40	0	3.8310	0	34.4140	8	27.343	0	756.939	0	14.0	4	4.4	4	-1E+10	1	-1E+10	1	-1E+10	1	-1E+10	1	-1E+10	1	-1E+10	1
4901784	110	C	07/09/2018	10:49	-132.489	43.009	0	769.70	0	3.8190	0	34.4170	8	27.347	0	762.177	0	13.8	4	4.3	4	-1E+10	1	-1E+10	1	-1E+10	1	-1E+10	1	-1E+10	1	-1E+10	1
4901784	110	C	07/09/2018	10:49	-132.489	43.009	0	775.00	0	3.8080	0	34.4210	8	27.351	0	767.416	0	13.6	4	4.3	4	-1E+10	1	-1E+10	1	-1E+10	1	-1E+10	1	-1E+10	1	-1E+10	1
4901784	110	C	07/09/2018	10:49	-132.489	43.009	0	780.20	0	3.7990	0	34.4230	8	27.353	0	772.555	0	13.4	4	4.2	4	-1E+10	1	-1E+10	1	-1E+10	1	-1E+10	1	-1E+10	1	-1E+10	1
4901784	110	C	07/09/2018	10:49	-132.489	43.009	0	785.50	0	3.7900	0	34.4250	8	27.356	0	777.793	0	13.3	4	4.2	4	-1E+10	1	-1E+10	1	-1E+10	1	-1E+10	1	-1E+10	1	-1E+10	1
4901784	110	C	07/09/2018	10:49	-132.489	43.009	0	790.10	0	3.7790	0	34.4300	8	27.361	0	782.340	0	13.1	4	4.1	4	-1E+10	1	-1E+10	1	-1E+10	1	-1E+10	1	-1E+10	1	-1E+10	1
4901784	110	C	07/09/2018	10:49	-132.489	43.009	0	794.50	0	3.7740	0	34.4320	8	27.363	0	786.688	0	13.0	4	4.1	4	-1E+10	1	-1E+10	1	-1E+10	1	-1E+10	1	-1E+10	1	-1E+10	1
4901784	110	C	07/09/2018	10:49	-132.489	43.009	0	799.90	0	3.7670	0	34.4340	8	27.366	0	792.025	0	12.9	4	4.0	4	-1E+10	1	-1E+10	1	-1E+10	1	-1E+10	1	-1E+10	1	-1E+10	1
4901784	110	C	07/09/2018	10:49	-132.489	43.009	0	805.20	0	3.7650	0	34.4350	8	27.367	0	797.262	0	12.7	4	4.0	4	-1E+10	1	-1E+10	1	-1E+10	1	-1E+10	1	-1E+10	1	-1E+10	1
4901784	110	C	07/09/2018	10:49	-132.489	43.009	0	809.80	0	3.7640	0	34.4380	8	27.369	0	801.808	0	12.5	4	3.9	4	-1E+10	1	-1E+10	1	-1E+10	1	-1E+10	1	-1E+10	1	-1E+10	1
4901784	110	C	07/09/2018	10:49	-132.489	43.009	0	814.50	0	3.7560	0	34.4430	8	27.374	0	806.453	0	12.3	4	3.9	4	-1E+10	1	-1E+10	1	-1E+10	1	-1E+10	1	-1E+10	1	-1E+10	1
4901784	110	C	07/09/2018	10:49	-132.489	43.009	0	820.00	0	3.7450	0	34.4440	8	27.376	0	811.888	0	12.2	4	3.8	4	-1E+10	1	-1E+10	1	-1E+10	1	-1E+10	1	-1E+10	1	-1E+10	1
4901784	110	C	07/09/2018	10:49	-132.489	43.009	0	825.50	0	3.7380	0	34.4480	8	27.380	0	817.323	0	12.0	4	3.8	4	-1E+10	1	-1E+10	1	-1E+10	1	-1E+10	1	-1E+10	1	-1E+10	1
4901784	110	C	07/09/2018	10:49	-132.489	43.009	0	830.00	0	3.7290	0	34.4530	8	27.385	0	821.769	0	11.9	4	3.7	4	-1E+10	1	-1E+10	1	-1E+10	1	-1E+10	1	-1E+10	1	-1E+10	1
4901784	110	C	07/09/2018	10:49	-132.489	43.009	0	834.70	0	3.7250	0	34.4540	8	27.386	0	826.413	0	11.8	4	3.7	4	-1E+10	1	-1E+10	1	-1E+10	1	-1E+10	1	-1E+10	1	-1E+10	1
4901784	110	C	07/09/2018	10:49	-132.489	43.009	0	840.20	0	3.7150	0	34.4580	8	27.390	0	831.848	0	11.7	4	3.7	4	-1E+10	1	-1E+10	1	-1E+10	1	-1E+10	1	-1E+10	1	-1E+10	1
4901784	110	C	07/09/2018	10:49	-132.489	43.009	0	844.90	0	3.7070	0	34.4610	8	27.393	0	836.492	0	11.6	4	3.7	4	-1E+10	1	-1E+10	1	-1E+10	1	-1E+10	1	-1E+10	1	-1E+10	1
4901784	110	C	07/09/2018	10:49	-132.489	43.009	0	849.50	0	3.7040	0	34.4610	8	27.394	0	841.037	0	11.6	4	3.6	4	-1E+10	1	-1E+10	1	-1E+10	1	-1E+10	1	-1E+10	1	-1E+10	1
4901784	110	C	07/09/2018	10:49	-132.489	43.009	0	855.10	0	3.7000	0	34.4620	8	27.395	0	846.570	0	11.5	4	3.6	4	-1E+10	1	-1E+10	1	-1E+10	1	-1E+10	1	-1E+10	1	-1E+10	1
4901784	110	C	07/09/2018	10:49	-132.489	43.009	0	859.70	0	3.6910	0	34.4650	8	27.398	0	851.114	0	11.4	4	3.6	4	-1E+10	1	-1E+10	1	-1E+10	1	-1E+10	1	-1E+10	1	-1E+10	1
4901784	110	C	07/09/2018	10:49	-132.489	43.009	0	864.30	0	3.6870	0	34.4690	8	27.402	0	855.659	0	11.2	4	3.5	4	-1E+10	1	-1E+10	1	-1E+10	1	-1E+10	1	-1E+10	1	-1E+10	1
4901784	110	C	07/09/2018	10:49	-132.489	43.009	0	869.80	0	3.7030	0	34.4780	8	27.407	0	861.093	0	11.0	4	3.5	4	-1E+10	1	-1E+10	1	-1E+10	1	-1E+10	1	-1E+10	1	-1E+10	1
4901784	110	C	07/09/2018	10:49	-132.489	43.009	0	875.30	0	3.6720	0	34.4780	8	27.411	0	866.526	0	11.0	4	3.5	4	-1E+10	1	-1E+10	1	-1E+10	1	-1E+10	1	-1E+10	1	-1E+10	1
4901784	110	C	07/09/2018	10:49	-132.489	43.009	0	879.90	0	3.6510	0	34.4820	8	27.416	0	871.071	0	10.9	4	3.4	4	-1E+10	1	-1E+10	1	-1E+10	1	-1E+10	1	-1E+10	1	-1E+10	1
4901784	110	C	07/09/2018	10:49	-132.489	43.009	0	884.50	0	3.6520	0	34.4840	8	27.417	0	875.615	0	10.8	4	3.4	4	-1E+10	1	-1E+10	1	-1E+10	1	-1E+10	1	-1E+10	1	-1E+10	1
4901784	110	C	07/09/2018	10:49	-132.489	43.009	0	890.10	0	3.6510	0	34.4880	8	27.421	0	881.147	0	10.7	4	3.4	4	-1E+10	1	-1E+10	1	-1E+10	1	-1E+10	1	-1E+10	1	-1E+10	1
4901784	110	C	07/09/2018	10:49	-132.489	43.009	0	894.80	0	3.6820	0	34.4950	8	27.423	0	885.789	0	10.5	4	3.3	4	-1E+10	1	-1E+10	1	-1E+10	1	-1E+10	1	-1E+10	1	-1E+10	1
4901784	110	C	07/09/2018	10:49	-132.489	43.009	0	899.90	0	3.6650	0	34.5000	8	27.429	0	890.827	0	10.5	4	3.3	4	-1E+10	1	-1E+10	1	-1E+10	1	-1E+10	1	-1E+10	1	-1E+10	1
4901784	110	C	07/09/2018	10:49	-132.489	43.009	0	905.50	0	3.6450	0	34.5030	8	27.433	0	896.359	0	10.5	4	3.3	4	-1E+10	1	-1E+10	1	-1E+10	1	-1E+10	1	-1E+10	1	-1E+10	1
4901784	110	C	07/09/2018	10:49	-132.489	43.009	0	910.30	0	3.6170	0	34.5050	8	27.438	0	901.100	0	10.5	4	3.3	4	-1E+10	1	-1E+10	1	-1E+10	1	-1E+10	1	-1E+10	1	-1E+10	1
4901784	110	C	07/09/2018	10:49	-132.489	43.009	0	915.30	0	3.6440	0	34.5110	8	27.440	0	906.039	0	10.4	4	3.3	4	-1E+10	1	-1E+10	1	-1E+10	1	-1E+10	1	-1E+10	1	-1E+10	1
4901784	110	C	07/09/2018	10:49	-132.489	43.009	0	920.10	0	3.6690	0	34.5170	8	27.442	0	910.780	0	10.4	4	3.3	4	-1E+10	1	-1E+10	1	-1E+10	1	-1E+10	1	-1E+10	1	-1E+10	1
4901784	110	C	07/09/2018	10:49	-132.489	43.009	0	925.00	0	3.6730	0	34.5190	8	27.444	0	915.619	0	10.4	4	3.3	4	-1E+10	1	-1E+10	1	-1E+10	1	-1E+10	1	-1E+10	1	-1E+10	1
4901784	110	C	07/09/2018	10:49	-132.489	43.009	0	929.80	0	3.6650	0	34.5220	8	27.447	0	920.360	0	10.5	4	3.3	4	-1E+10	1	-1E+10	1	-1E+10	1	-1E+10	1	-1E+10	1	-1E+10	1
4901784	110	C	07/09/2018	10:49	-132.489	43.009	0	934.70	0	3.6530	0	34.5240	8	27.450	0	925.200	0	10.5	4	3.3	4	-1E+10	1	-1E+10	1	-1E+10	1	-1E+10	1	-1E+10	1	-1E+10	1
4901784	110	C	07/09/2018	10:49	-132.489	43.009	0	939.70	0	3.6450	0	34.5260	8	27.452	0	930.138	0	10.5	4	3.3	4	-1E+10	1	-1E+10	1	-1E+10	1	-1E+10	1	-1E+10	1	-1E+10	1
4901784	110	C	07/09/2018	10:49	-132.489	43.009	0	944.60	0	3.6280	0	34.5290	8	27.456	0	934.977	0	10.6	4	3.3	4	-1E+10	1	-1E+10	1	-1E+10	1	-1E+10	1	-1E+10	1	-1E+10	1
4901784	110	C	07/09/2018	10:49	-132.489	43.009	0	949.60	0	3.6100	0	34.5310	8	27.459	0	939.915	0	10.7	4	3.4	4	-1E+10	1	-1E+10	1	-1E+10	1	-1E+10	1	-1E+10	1	-1E+10	1
4901784	110	C	07/09/2018	10:49	-132.489	43.009	0	954.70	0	3.6010	0	34.5330	8	27.462	0	944.951	0	10.8	4	3.4	4	-1E+10	1	-1E+10	1	-1E+10	1	-1E+10	1	-1E+10	1	-1E+10	1
4901784	110	C	07/09/2018	10:49	-132.489	43.009	0	959.70	0	3.5840	0	34.5350	8	27.465	0	949.889	0	10.8	4	3.4	4	-1E+10	1	-1E+10	1	-1E+10	1	-1E+10	1	-1E+10	1	-1E+10	1
4901784	110	C	07/09/2018	10:49	-132.489	43.009	0	964.80	0	3.5740	0	34.5360	8	27.467	0	954.925	0	10.9	4	3.4	4	-1E+10	1	-1E+10	1	-1E+10	1	-1E+10	1	-1E+10	1	-1E+10	1
4901784	110	C	07/09/2018	10:49	-132.489	43.009	0	969.90	0	3.5530	0	34.5400	8	27.472	0	959.961	0	11.0	4	3.4	4	-1E+10	1	-1E+10	1	-1E+10	1	-1E+10	1	-1E+10	1	-1E+10	1
4901784	110	C	07/09/2018	10:49	-132.489	43.009	0	975.10	0	3.5420	0	34.5420	8	27.475	0	965.096	0	11.0	4	3.4	4	-1E+10	1	-1E+10	1	-1E+10	1	-1E+10	1	-1E+10	1	-1E+10	1
4901784	110	C	07/09/2018	10:49	-132.489	43.009	0	980.30	0	3.5310	0	34.5440	8	27.478	0	970.230	0	11.0	4	3.5	4	-1E+10	1	-1E+10	1	-1E+10	1	-1E+10	1	-1E+10	1	-1E+10	1
4901784	110	C	07/09/2018	10:49	-132.489	43.009	0	985.50	0	3.5070	0	34.5470	8	27.482	0	975.365	0	11.0	4	3.5	4	-1E+10	1	-1E+10	1	-1E+10	1	-1E+10	1	-1E+10	1	-1E+10	1
4901784	110	C	07/09/2018	10:49	-132.489	43.009	0	989.90	0	3.4900	0	34.5500	8	27.487	0	979.709	0	11.1	4	3.5	4	-1E+10	1	-1E+10	1	-1E+10	1	-1E+10	1	-1E+10	1	-1E+10	1
4901784	110	C	07/09/2018	10:49	-132.489	43.009	0	994.40	0	3.4830	0	34.5510	8	27.488	0	984.153	0	11.1	4	3.5	4	-1E+10	1	-1E+10	1	-1E+10	1	-1E+10	1	-1E+10	1	-1E+10	1
4901784	110	C	07/09/2018	10:49	-132.489	43.009	0	999.70	0	3.4750	0	34.5530	8	27.490	0	989.385	0	11.2	4	3.5	4	-1E+10	1	-1E+10	1	-1E+10	1	-1E+10	1	-1E+10	1	-1E+10	1
4901784	110	C	07/09/2018	10:49	-132.489	43.009	0	1005.00	0	3.4580	0	34.5570	8	27.495	0	994.618	0	11.4	4	3.6	4	-1E+10	1	-1E+10	1	-1E+10	1	-1E+10	1	-1E+10	1	-1E+10	1
4901784	110	C	07/09/2018	10:49	-132.489	43.009	0	1010.40	0	3.4280	0	34.5640	8	27.504	0	999.949	0	11.7	4	3.7	4	-1E+10	1	-1E+10	1	-1E+10	1	-1E+10	1	-1E+10	1	-1E+10	1
4901784	110	C	07/09/2018	10:49	-132.489	43.009	0	1015.00	0	3.4260	0	34.5660	8	27.506	0	1004.491	0	11.7	4	3.7	4	-1E+10	1	-1E+10	1	-1E+10	1	-1E+10	1	-1E+10	1	-1E+10	1
4901784	110	C	07/09/2018	10:49	-132.489	43.009	0	1019.60	0	3.4110	0	34.5680	8	27.509	0	1009.032	0	11.8	4	3.7	4	-1E+10	1	-1E+10	1	-1E+10	1	-1E+10	1	-1E+10	1	-1E+10	1
4901784	110	C	07/09/2018	10:49	-132.489	43.009	0	1025.20	0	3.3900	0	34.5700	8	27.512	0	1014.561	0	11.9	4	3.7	4	-1E+10	1	-1E+10	1	-1E+10	1	-1E+10	1	-1E+10	1	-1E+10	1
4901784	110	C	07/09/2018	10:49	-132.489	43.009	0	1029.80	0	3.3830	0	34.5710	8	27.514	0	1019.102	0	11.9	4	3.7	4	-1E+10	1	-1E+10	1	-1E+10	1	-1E+10	1	-1E+10	1	-1E+10	1
4901784	110	C	07/09/2018	10:49	-132.489	43.009	0	1034.40	0	3.3700	0	34.5740	8	27.517	0	1023.643	0	12.0	4	3.7	4	-1E+10	1	-1E+10	1	-1E+10	1	-1E+10	1	-1E+10	1	-1E+10	1
4901784	110	C	07/09/2018	10:49	-132.489	43.009	0	1040.00	0	3.3610	0	34.5770	8	27.521	0	1029.171	0	12.1	4	3.8	4	-1E+10	1	-1E+10	1	-1E+10	1	-1E+10	1	-1E+10	1	-1E+10	1
4901784	110	C	07/09/2018	10:49	-132.489	43.009	0	1044.70	0	3.3570	0	34.5780	8	27.522	0	1033.810	0	12.1	4	3.8	4	-1E+10	1	-1E+10	1	-1E+10	1	-1E+10	1	-1E+10	1	-1E+10	1
4901784	110	C	07/09/2018	10:49	-132.489	43.009	0	1049.70	0	3.3460	0	34.5810	8	27.525	0	1038.746	0	12.2	4	3.8	4	-1E+10	1	-1E+10	1	-1E+10	1	-1E+10	1	-1E+10	1	-1E+10	1
4901784	110	C	07/09/2018	10:49	-132.489	43.009	0	1054.90	0	3.3320	0	34.5840	8	27.529	0	1043.878	0	12.4	4	3.9	4	-1E+10	1	-1E+10	1	-1E+10	1	-1E+10	1	-1E+10	1	-1E+10	1
4901784	110	C	07/09/2018	10:49	-132.489	43.009	0	1059.70	0	3.3270	0	34.5840	8	27.530	0	1048.616	0	12.5	4	3.9	4	-1E+10	1	-1E+10	1	-1E+10	1	-1E+10	1	-1E+10	1	-1E+10	1
4901784	110	C	07/09/2018	10:49	-132.489	43.009	0	1064.70	0	3.3100	0	34.5880	8	27.534	0	1053.551	0	12.6	4	3.9	4	-1E+10	1	-1E+10	1	-1E+10	1	-1E+10	1	-1E+10	1	-1E+10	1
4901784	110	C	07/09/2018	10:49	-132.489	43.009	0	1069.60	0	3.3010	0	34.5900	8	27.537	0	1058.388	0	12.7	4	4.0	4	-1E+10	1	-1E+10	1	-1E+10	1	-1E+10	1	-1E+10	1	-1E+10	1
4901784	110	C	07/09/2018	10:49	-132.489	43.009	0	1074.60	0	3.2900	0	34.5910	8	27.539	0	1063.323	0	12.8	4	4.0	4	-1E+10	1	-1E+10	1	-1E+10	1	-1E+10	1	-1E+10	1	-1E+10	1
4901784	110	C	07/09/2018	10:49	-132.489	43.009	0	1079.60	0	3.2770	0	34.5930	8	27.542	0	1068.258	0	12.9	4	4.0	4	-1E+10	1	-1E+10	1	-1E+10	1	-1E+10	1	-1E+10	1	-1E+10	1
4901784	110	C	07/09/2018	10:49	-132.489	43.009	0	1084.70	0	3.2610	0	34.5950	8	27.545	0	1073.291	0	13.1	4	4.1	4	-1E+10	1	-1E+10	1	-1E+10	1	-1E+10	1	-1E+10	1	-1E+10	1
4901784	110	C	07/09/2018	10:49	-132.489	43.009	0	1090.00	0	3.2490	0	34.5960	8	27.547	0	1078.522	0	13.1	4	4.1	4	-1E+10	1	-1E+10	1	-1E+10	1	-1E+10	1	-1E+10	1	-1E+10	1
4901784	110	C	07/09/2018	10:49	-132.489	43.009	0	1095.20	0	3.2400	0	34.5960	8	27.548	0	1083.653	0	13.2	4	4.1	4	-1E+10	1	-1E+10	1	-1E+10	1	-1E+10	1	-1E+10	1	-1E+10	1
4901784	110	C	07/09/2018	10:49	-132.489	43.009	0	1100.40	0	3.2170	0	34.5970	8	27.551	0	1088.785	0	13.3	4	4.1	4	-1E+10	1	-1E+10	1	-1E+10	1	-1E+10	1	-1E+10	1	-1E+10	1
4901784	110	C	07/09/2018	10:49	-132.489	43.009	0	1105.60	0	3.1990	0	34.5980	8	27.553	0	1093.917	0	13.4	4	4.1	4	-1E+10	1	-1E+10	1	-1E+10	1	-1E+10	1	-1E+10	1	-1E+10	1
4901784	110	C	07/09/2018	10:49	-132.489	43.009	0	1110.40	0	3.1950	0	34.5990	8	27.554	0	1098.653	0	13.4	4	4.2	4	-1E+10	1	-1E+10	1	-1E+10	1	-1E+10	1	-1E+10	1	-1E+10	1
4901784	110	C	07/09/2018	10:49	-132.489	43.009	0	1115.10	0	3.1950	0	34.6010	8	27.556	0	1103.291	0	13.5	4	4.2	4	-1E+10	1	-1E+10	1	-1E+10	1	-1E+10	1	-1E+10	1	-1E+10	1
4901784	110	C	07/09/2018	10:49	-132.489	43.009	0	1120.70	0	3.1810	0	34.6040	8	27.560	0	1108.817	0	13.7	4	4.3	4	-1E+10	1	-1E+10	1	-1E+10	1	-1E+10	1	-1E+10	1	-1E+10	1
4901784	110	C	07/09/2018	10:49	-132.489	43.009	0	1125.70	0	3.1740	0	34.6050	8	27.561	0	1113.751	0	13.8	4	4.3	4	-1E+10	1	-1E+10	1	-1E+10	1	-1E+10	1	-1E+10	1	-1E+10	1
4901784	110	C	07/09/2018	10:49	-132.489	43.009	0	1130.60	0	3.1450	0	34.6060	8	27.565	0	1118.586	0	14.0	4	4.3	4	-1E+10	1	-1E+10	1	-1E+10	1	-1E+10	1	-1E+10	1	-1E+10	1
4901784	110	C	07/09/2018	10:49	-132.489	43.009	0	1135.60	0	3.1320	0	34.6090	8	27.568	0	1123.519	0	14.2	4	4.4	4	-1E+10	1	-1E+10	1	-1E+10	1	-1E+10	1	-1E+10	1	-1E+10	1
4901784	110	C	07/09/2018	10:49	-132.489	43.009	0	1140.60	0	3.1130	0	34.6110	8	27.572	0	1128.453	0	14.3	4	4.4	4	-1E+10	1	-1E+10	1	-1E+10	1	-1E+10	1	-1E+10	1	-1E+10	1
4901784	110	C	07/09/2018	10:49	-132.489	43.009	0	1145.50	0	3.1030	0	34.6120	8	27.573	0	1133.287	0	14.4	4	4.5	4	-1E+10	1	-1E+10	1	-1E+10	1	-1E+10	1	-1E+10	1	-1E+10	1
4901784	110	C	07/09/2018	10:49	-132.489	43.009	0	1150.60	0	3.0960	0	34.6130	8	27.575	0	1138.319	0	14.5	4	4.5	4	-1E+10	1	-1E+10	1	-1E+10	1	-1E+10	1	-1E+10	1	-1E+10	1
4901784	110	C	07/09/2018	10:49	-132.489	43.009	0	1155.70	0	3.0860	0	34.6140	8	27.577	0	1143.351	0	14.6	4	4.5	4	-1E+10	1	-1E+10	1	-1E+10	1	-1E+10	1	-1E+10	1	-1E+10	1
4901784	110	C	07/09/2018	10:49	-132.489	43.009	0	1159.90	0	3.0830	0	34.6150	8	27.578	0	1147.495	0	14.7	4	4.5	4	-1E+10	1	-1E+10	1	-1E+10	1	-1E+10	1	-1E+10	1	-1E+10	1
4901784	110	C	07/09/2018	10:49	-132.489	43.009	0	1164.20	0	3.0780	0	34.6160	8	27.579	0	1151.737	0	14.7	4	4.6	4	-1E+10	1	-1E+10	1	-1E+10	1	-1E+10	1	-1E+10	1	-1E+10	1
4901784	110	C	07/09/2018	10:49	-132.489	43.009	0	1169.40	0	3.0670	0	34.6180	8	27.582	0	1156.867	0	14.9	4	4.6	4	-1E+10	1	-1E+10	1	-1E+10	1	-1E+10	1	-1E+10	1	-1E+10	1
4901784	110	C	07/09/2018	10:49	-132.489	43.009	0	1174.60	0	3.0590	0	34.6190	8	27.583	0	1161.997	0	15.0	4	4.6	4	-1E+10	1	-1E+10	1	-1E+10	1	-1E+10	1	-1E+10	1	-1E+10	1
4901784	110	C	07/09/2018	10:49	-132.489	43.009	0	1179.80	0	3.0540	0	34.6190	8	27.584	0	1167.127	0	15.0	4	4.7	4	-1E+10	1	-1E+10	1	-1E+10	1	-1E+10	1	-1E+10	1	-1E+10	1
4901784	110	C	07/09/2018	10:49	-132.489	43.009	0	1185.00	0	3.0500	0	34.6190	8	27.584	0	1172.256	0	15.1	4	4.7	4	-1E+10	1	-1E+10	1	-1E+10	1	-1E+10	1	-1E+10	1	-1E+10	1
4901784	110	C	07/09/2018	10:49	-132.489	43.009	0	1190.30	0	3.0340	0	34.6220	8	27.588	0	1177.484	0	15.3	4	4.7	4	-1E+10	1	-1E+10	1	-1E+10	1	-1E+10	1	-1E+10	1	-1E+10	1
4901784	110	C	07/09/2018	10:49	-132.489	43.009	0	1195.60	0	3.0190	0	34.6230	8	27.590	0	1182.712	0	15.4	4	4.8	4	-1E+10	1	-1E+10	1	-1E+10	1	-1E+10	1	-1E+10	1	-1E+10	1
4901784	110	C	07/09/2018	10:49	-132.489	43.009	0	1200.00	0	3.0100	0	34.6240	8	27.592	0	1187.053	0	15.4	4	4.8	4	-1E+10	1	-1E+10	1	-1E+10	1	-1E+10	1	-1E+10	1	-1E+10	1
4901784	110	C	07/09/2018	10:49	-132.489	43.009	0	1204.40	0	3.0040	0	34.6240	8	27.592	0	1191.393	0	15.5	4	4.8	4	-1E+10	1	-1E+10	1	-1E+10	1	-1E+10	1	-1E+10	1	-1E+10	1
4901784	110	C	07/09/2018	10:49	-132.489	43.009	0	1209.90	0	2.9930	0	34.6250	8	27.594	0	1196.818	0	15.6	4	4.8	4	-1E+10	1	-1E+10	1	-1E+10	1	-1E+10	1	-1E+10	1	-1E+10	1
4901784	110	C	07/09/2018	10:49	-132.489	43.009	0	1215.30	0	2.9860	0	34.6250	8	27.595	0	1202.144	0	15.7	4	4.8	4	-1E+10	1	-1E+10	1	-1E+10	1	-1E+10	1	-1E+10	1	-1E+10	1
4901784	110	C	07/09/2018	10:49	-132.489	43.009	0	1219.80	0	2.9740	0	34.6270	8	27.598	0	1206.582	0	15.8	4	4.9	4	-1E+10	1	-1E+10	1	-1E+10	1	-1E+10	1	-1E+10	1	-1E+10	1
4901784	110	C	07/09/2018	10:49	-132.489	43.009	0	1224.30	0	2.9640	0	34.6280	8	27.599	0	1211.020	0	15.8	4	4.9	4	-1E+10	1	-1E+10	1	-1E+10	1	-1E+10	1	-1E+10	1	-1E+10	1
4901784	110	C	07/09/2018	10:49	-132.489	43.009	0	1229.80	0	2.9610	0	34.6280	8	27.600	0	1216.445	0	15.9	4	4.9	4	-1E+10	1	-1E+10	1	-1E+10	1	-1E+10	1	-1E+10	1	-1E+10	1
4901784	110	C	07/09/2018	10:49	-132.489	43.009	0	1235.30	0	2.9520	0	34.6290	8	27.601	0	1221.869	0	16.0	4	5.0	4	-1E+10	1	-1E+10	1	-1E+10	1	-1E+10	1	-1E+10	1	-1E+10	1
4901784	110	C	07/09/2018	10:49	-132.489	43.009	0	1239.90	0	2.9480	0	34.6300	8	27.602	0	1226.406	0	16.1	4	5.0	4	-1E+10	1	-1E+10	1	-1E+10	1	-1E+10	1	-1E+10	1	-1E+10	1
4901784	110	C	07/09/2018	10:49	-132.489	43.009	0	1244.20	0	2.9420	0	34.6310	8	27.604	0	1230.646	0	16.2	4	5.0	4	-1E+10	1	-1E+10	1	-1E+10	1	-1E+10	1	-1E+10	1	-1E+10	1
4901784	110	C	07/09/2018	10:49	-132.489	43.009	0	1249.20	0	2.9370	0	34.6310	8	27.604	0	1235.577	0	16.3	4	5.0	4	-1E+10	1	-1E+10	1	-1E+10	1	-1E+10	1	-1E+10	1	-1E+10	1
4901784	110	C	07/09/2018	10:49	-132.489	43.009	0	1254.30	0	2.9210	0	34.6320	8	27.606	0	1240.607	0	16.4	4	5.1	4	-1E+10	1	-1E+10	1	-1E+10	1	-1E+10	1	-1E+10	1	-1E+10	1
4901784	110	C	07/09/2018	10:49	-132.489	43.009	0	1259.30	0	2.9070	0	34.6340	8	27.609	0	1245.537	0	16.6	4	5.1	4	-1E+10	1	-1E+10	1	-1E+10	1	-1E+10	1	-1E+10	1	-1E+10	1
4901784	110	C	07/09/2018	10:49	-132.489	43.009	0	1264.30	0	2.9010	0	34.6350	8	27.611	0	1250.468	0	16.8	4	5.2	4	-1E+10	1	-1E+10	1	-1E+10	1	-1E+10	1	-1E+10	1	-1E+10	1
4901784	110	C	07/09/2018	10:49	-132.489	43.009	0	1269.30	0	2.8940	0	34.6370	8	27.613	0	1255.398	0	16.9	4	5.2	4	-1E+10	1	-1E+10	1	-1E+10	1	-1E+10	1	-1E+10	1	-1E+10	1
4901784	110	C	07/09/2018	10:49	-132.489	43.009	0	1274.40	0	2.8870	0	34.6370	8	27.614	0	1260.427	0	17.0	4	5.2	4	-1E+10	1	-1E+10	1	-1E+10	1	-1E+10	1	-1E+10	1	-1E+10	1
4901784	110	C	07/09/2018	10:49	-132.489	43.009	0	1279.40	0	2.8770	0	34.6380	8	27.615	0	1265.357	0	17.2	4	5.3	4	-1E+10	1	-1E+10	1	-1E+10	1	-1E+10	1	-1E+10	1	-1E+10	1
4901784	110	C	07/09/2018	10:49	-132.489	43.009	0	1284.50	0	2.8660	0	34.6400	8	27.618	0	1270.386	0	17.5	4	5.4	4	-1E+10	1	-1E+10	1	-1E+10	1	-1E+10	1	-1E+10	1	-1E+10	1
4901784	110	C	07/09/2018	10:49	-132.489	43.009	0	1289.60	0	2.8620	0	34.6410	8	27.619	0	1275.414	0	17.7	4	5.5	4	-1E+10	1	-1E+10	1	-1E+10	1	-1E+10	1	-1E+10	1	-1E+10	1
4901784	110	C	07/09/2018	10:49	-132.489	43.009	0	1294.70	0	2.8650	0	34.6440	8	27.621	0	1280.443	0	18.0	4	5.5	4	-1E+10	1	-1E+10	1	-1E+10	1	-1E+10	1	-1E+10	1	-1E+10	1
4901784	110	C	07/09/2018	10:49	-132.489	43.009	0	1299.80	0	2.8570	0	34.6450	8	27.623	0	1285.471	0	18.1	4	5.6	4	-1E+10	1	-1E+10	1	-1E+10	1	-1E+10	1	-1E+10	1	-1E+10	1
4901784	110	C	07/09/2018	10:49	-132.489	43.009	0	1304.90	0	2.8450	0	34.6460	8	27.625	0	1290.499	0	18.3	4	5.6	4	-1E+10	1	-1E+10	1	-1E+10	1	-1E+10	1	-1E+10	1	-1E+10	1
4901784	110	C	07/09/2018	10:49	-132.489	43.009	0	1310.10	0	2.8340	0	34.6470	8	27.627	0	1295.626	0	18.5	4	5.7	4	-1E+10	1	-1E+10	1	-1E+10	1	-1E+10	1	-1E+10	1	-1E+10	1
4901784	110	C	07/09/2018	10:49	-132.489	43.009	0	1315.40	0	2.8280	0	34.6490	8	27.629	0	1300.851	0	18.8	4	5.8	4	-1E+10	1	-1E+10	1	-1E+10	1	-1E+10	1	-1E+10	1	-1E+10	1
4901784	110	C	07/09/2018	10:49	-132.489	43.009	0	1320.70	0	2.8190	0	34.6510	8	27.631	0	1306.076	0	19.1	4	5.9	4	-1E+10	1	-1E+10	1	-1E+10	1	-1E+10	1	-1E+10	1	-1E+10	1
4901784	110	C	07/09/2018	10:49	-132.489	43.009	0	1325.00	0	2.8090	0	34.6520	8	27.633	0	1310.315	0	19.3	4	5.9	4	-1E+10	1	-1E+10	1	-1E+10	1	-1E+10	1	-1E+10	1	-1E+10	1
4901784	110	C	07/09/2018	10:49	-132.489	43.009	0	1329.50	0	2.8070	0	34.6530	8	27.634	0	1314.751	0	19.4	4	6.0	4	-1E+10	1	-1E+10	1	-1E+10	1	-1E+10	1	-1E+10	1	-1E+10	1
4901784	110	C	07/09/2018	10:49	-132.489	43.009	0	1334.80	0	2.7970	0	34.6550	8	27.636	0	1319.976	0	19.7	4	6.1	4	-1E+10	1	-1E+10	1	-1E+10	1	-1E+10	1	-1E+10	1	-1E+10	1
4901784	110	C	07/09/2018	10:49	-132.489	43.009	0	1340.10	0	2.7840	0	34.6560	8	27.638	0	1325.200	0	19.9	4	6.1	4	-1E+10	1	-1E+10	1	-1E+10	1	-1E+10	1	-1E+10	1	-1E+10	1
4901784	110	C	07/09/2018	10:49	-132.489	43.009	0	1345.50	0	2.7780	0	34.6570	8	27.640	0	1330.523	0	20.0	4	6.2	4	-1E+10	1	-1E+10	1	-1E+10	1	-1E+10	1	-1E+10	1	-1E+10	1
4901784	110	C	07/09/2018	10:49	-132.489	43.009	0	1349.90	0	2.7750	0	34.6570	8	27.640	0	1334.860	0	20.1	4	6.2	4	-1E+10	1	-1E+10	1	-1E+10	1	-1E+10	1	-1E+10	1	-1E+10	1
4901784	110	C	07/09/2018	10:49	-132.489	43.009	0	1354.40	0	2.7710	0	34.6570	8	27.640	0	1339.296	0	20.2	4	6.2	4	-1E+10	1	-1E+10	1	-1E+10	1	-1E+10	1	-1E+10	1	-1E+10	1
4901784	110	C	07/09/2018	10:49	-132.489	43.009	0	1359.70	0	2.7570	0	34.6580	8	27.642	0	1344.520	0	20.5	4	6.3	4	-1E+10	1	-1E+10	1	-1E+10	1	-1E+10	1	-1E+10	1	-1E+10	1
4901784	110	C	07/09/2018	10:49	-132.489	43.009	0	1365.10	0	2.7380	0	34.6600	8	27.646	0	1349.842	0	20.8	4	6.4	4	-1E+10	1	-1E+10	1	-1E+10	1	-1E+10	1	-1E+10	1	-1E+10	1
4901784	110	C	07/09/2018	10:49	-132.489	43.009	0	1370.50	0	2.7280	0	34.6620	8	27.648	0	1355.164	0	21.1	4	6.5	4	-1E+10	1	-1E+10	1	-1E+10	1	-1E+10	1	-1E+10	1	-1E+10	1
4901784	110	C	07/09/2018	10:49	-132.489	43.009	0	1375.00	0	2.7140	0	34.6630	8	27.650	0	1359.600	0	21.4	4	6.6	4	-1E+10	1	-1E+10	1	-1E+10	1	-1E+10	1	-1E+10	1	-1E+10	1
4901784	110	C	07/09/2018	10:49	-132.489	43.009	0	1379.50	0	2.7020	0	34.6650	8	27.653	0	1364.035	0	21.8	4	6.7	4	-1E+10	1	-1E+10	1	-1E+10	1	-1E+10	1	-1E+10	1	-1E+10	1
4901784	110	C	07/09/2018	10:49	-132.489	43.009	0	1385.00	0	2.6940	0	34.6670	8	27.655	0	1369.455	0	22.1	4	6.8	4	-1E+10	1	-1E+10	1	-1E+10	1	-1E+10	1	-1E+10	1	-1E+10	1
4901784	110	C	07/09/2018	10:49	-132.489	43.009	0	1390.40	0	2.6870	0	34.6680	8	27.657	0	1374.777	0	22.5	4	6.9	4	-1E+10	1	-1E+10	1	-1E+10	1	-1E+10	1	-1E+10	1	-1E+10	1
4901784	110	C	07/09/2018	10:49	-132.489	43.009	0	1395.00	0	2.6800	0	34.6690	8	27.658	0	1379.310	0	22.8	4	7.0	4	-1E+10	1	-1E+10	1	-1E+10	1	-1E+10	1	-1E+10	1	-1E+10	1
4901784	110	C	07/09/2018	10:49	-132.489	43.009	0	1399.60	0	2.6720	0	34.6700	8	27.660	0	1383.843	0	23.2	4	7.1	4	-1E+10	1	-1E+10	1	-1E+10	1	-1E+10	1	-1E+10	1	-1E+10	1
4901784	110	C	07/09/2018	10:49	-132.489	43.009	0	1405.00	0	2.6560	0	34.6730	8	27.663	0	1389.165	0	23.6	4	7.3	4	-1E+10	1	-1E+10	1	-1E+10	1	-1E+10	1	-1E+10	1	-1E+10	1
4901784	110	C	07/09/2018	10:49	-132.489	43.009	0	1410.60	0	2.6500	0	34.6750	8	27.666	0	1394.683	0	23.9	4	7.3	4	-1E+10	1	-1E+10	1	-1E+10	1	-1E+10	1	-1E+10	1	-1E+10	1
4901784	110	C	07/09/2018	10:49	-132.489	43.009	0	1415.30	0	2.6440	0	34.6760	8	27.667	0	1399.315	0	24.1	4	7.4	4	-1E+10	1	-1E+10	1	-1E+10	1	-1E+10	1	-1E+10	1	-1E+10	1
4901784	110	C	07/09/2018	10:49	-132.489	43.009	0	1419.90	0	2.6410	0	34.6760	8	27.667	0	1403.847	0	24.4	4	7.5	4	-1E+10	1	-1E+10	1	-1E+10	1	-1E+10	1	-1E+10	1	-1E+10	1
4901784	110	C	07/09/2018	10:49	-132.489	43.009	0	1424.80	0	2.6320	0	34.6770	8	27.669	0	1408.676	0	24.6	4	7.6	4	-1E+10	1	-1E+10	1	-1E+10	1	-1E+10	1	-1E+10	1	-1E+10	1
4901784	110	C	07/09/2018	10:49	-132.489	43.009	0	1429.70	0	2.6210	0	34.6790	8	27.671	0	1413.504	0	25.0	4	7.6	4	-1E+10	1	-1E+10	1	-1E+10	1	-1E+10	1	-1E+10	1	-1E+10	1
4901784	110	C	07/09/2018	10:49	-132.489	43.009	0	1434.60	0	2.6150	0	34.6800	8	27.673	0	1418.332	0	25.2	4	7.7	4	-1E+10	1	-1E+10	1	-1E+10	1	-1E+10	1	-1E+10	1	-1E+10	1
4901784	110	C	07/09/2018	10:49	-132.489	43.009	0	1439.50	0	2.6050	0	34.6800	8	27.674	0	1423.160	0	25.5	4	7.8	4	-1E+10	1	-1E+10	1	-1E+10	1	-1E+10	1	-1E+10	1	-1E+10	1
4901784	110	C	07/09/2018	10:49	-132.489	43.009	0	1444.50	0	2.5940	0	34.6820	8	27.676	0	1428.086	0	25.7	4	7.9	4	-1E+10	1	-1E+10	1	-1E+10	1	-1E+10	1	-1E+10	1	-1E+10	1
4901784	110	C	07/09/2018	10:49	-132.489	43.009	0	1449.60	0	2.5820	0	34.6820	8	27.677	0	1433.111	0	26.0	4	8.0	4	-1E+10	1	-1E+10	1	-1E+10	1	-1E+10	1	-1E+10	1	-1E+10	1
4901784	110	C	07/09/2018	10:49	-132.489	43.009	0	1454.70	0	2.5660	0	34.6840	8	27.680	0	1438.135	0	26.3	4	8.1	4	-1E+10	1	-1E+10	1	-1E+10	1	-1E+10	1	-1E+10	1	-1E+10	1
4901784	110	C	07/09/2018	10:49	-132.489	43.009	0	1459.80	0	2.5590	0	34.6850	8	27.682	0	1443.160	0	26.6	4	8.1	4	-1E+10	1	-1E+10	1	-1E+10	1	-1E+10	1	-1E+10	1	-1E+10	1
4901784	110	C	07/09/2018	10:49	-132.489	43.009	0	1464.90	0	2.5530	0	34.6860	8	27.683	0	1448.184	0	26.9	4	8.2	4	-1E+10	1	-1E+10	1	-1E+10	1	-1E+10	1	-1E+10	1	-1E+10	1
4901784	110	C	07/09/2018	10:49	-132.489	43.009	0	1470.10	0	2.5470	0	34.6870	8	27.684	0	1453.307	0	27.2	4	8.3	4	-1E+10	1	-1E+10	1	-1E+10	1	-1E+10	1	-1E+10	1	-1E+10	1
4901784	110	C	07/09/2018	10:49	-132.489	43.009	0	1475.40	0	2.5380	0	34.6880	8	27.686	0	1458.528	0	27.5	4	8.4	4	-1E+10	1	-1E+10	1	-1E+10	1	-1E+10	1	-1E+10	1	-1E+10	1
4901784	110	C	07/09/2018	10:49	-132.489	43.009	0	1480.60	0	2.5250	0	34.6890	8	27.688	0	1463.651	0	28.0	4	8.6	4	-1E+10	1	-1E+10	1	-1E+10	1	-1E+10	1	-1E+10	1	-1E+10	1
4901784	110	C	07/09/2018	10:49	-132.489	43.009	0	1485.10	0	2.5140	0	34.6910	8	27.690	0	1468.084	0	28.3	4	8.6	4	-1E+10	1	-1E+10	1	-1E+10	1	-1E+10	1	-1E+10	1	-1E+10	1
4901784	110	C	07/09/2018	10:49	-132.489	43.009	0	1489.50	0	2.5100	0	34.6910	8	27.691	0	1472.418	0	28.6	4	8.7	4	-1E+10	1	-1E+10	1	-1E+10	1	-1E+10	1	-1E+10	1	-1E+10	1
4901784	110	C	07/09/2018	10:49	-132.489	43.009	0	1494.90	0	2.4990	0	34.6930	8	27.693	0	1477.737	0	29.1	4	8.9	4	-1E+10	1	-1E+10	1	-1E+10	1	-1E+10	1	-1E+10	1	-1E+10	1
4901784	110	C	07/09/2018	10:49	-132.489	43.009	0	1500.30	0	2.4890	0	34.6950	8	27.696	0	1483.056	0	29.6	4	9.0	4	-1E+10	1	-1E+10	1	-1E+10	1	-1E+10	1	-1E+10	1	-1E+10	1
4901784	110	C	07/09/2018	10:49	-132.489	43.009	0	1504.80	0	2.4810	0	34.6960	8	27.697	0	1487.489	0	29.9	4	9.1	4	-1E+10	1	-1E+10	1	-1E+10	1	-1E+10	1	-1E+10	1	-1E+10	1
4901784	110	C	07/09/2018	10:49	-132.489	43.009	0	1509.40	0	2.4760	0	34.6970	8	27.698	0	1492.020	0	30.4	4	9.3	4	-1E+10	1	-1E+10	1	-1E+10	1	-1E+10	1	-1E+10	1	-1E+10	1
4901784	110	C	07/09/2018	10:49	-132.489	43.009	0	1514.90	0	2.4690	0	34.6990	8	27.701	0	1497.437	0	31.0	4	9.5	4	-1E+10	1	-1E+10	1	-1E+10	1	-1E+10	1	-1E+10	1	-1E+10	1
4901784	110	C	07/09/2018	10:49	-132.489	43.009	0	1520.30	0	2.4600	0	34.7010	8	27.703	0	1502.755	0	31.4	4	9.6	4	-1E+10	1	-1E+10	1	-1E+10	1	-1E+10	1	-1E+10	1	-1E+10	1
4901784	110	C	07/09/2018	10:49	-132.489	43.009	0	1525.60	0	2.4540	0	34.7030	8	27.705	0	1507.975	0	31.9	4	9.7	4	-1E+10	1	-1E+10	1	-1E+10	1	-1E+10	1	-1E+10	1	-1E+10	1
4901784	110	C	07/09/2018	10:49	-132.489	43.009	0	1530.40	0	2.4480	0	34.7040	8	27.707	0	1512.703	0	32.3	4	9.8	4	-1E+10	1	-1E+10	1	-1E+10	1	-1E+10	1	-1E+10	1	-1E+10	1
4901784	110	C	07/09/2018	10:49	-132.489	43.009	0	1535.20	0	2.4390	0	34.7060	8	27.709	0	1517.430	0	32.6	4	9.9	4	-1E+10	1	-1E+10	1	-1E+10	1	-1E+10	1	-1E+10	1	-1E+10	1
4901784	110	C	07/09/2018	10:49	-132.489	43.009	0	1540.10	0	2.4340	0	34.7060	8	27.709	0	1522.256	0	32.8	4	10.0	4	-1E+10	1	-1E+10	1	-1E+10	1	-1E+10	1	-1E+10	1	-1E+10	1
4901784	110	C	07/09/2018	10:49	-132.489	43.009	0	1544.90	0	2.4250	0	34.7070	8	27.711	0	1526.983	0	33.1	4	10.1	4	-1E+10	1	-1E+10	1	-1E+10	1	-1E+10	1	-1E+10	1	-1E+10	1
4901784	110	C	07/09/2018	10:49	-132.489	43.009	0	1549.80	0	2.4210	0	34.7070	8	27.711	0	1531.808	0	33.3	4	10.2	4	-1E+10	1	-1E+10	1	-1E+10	1	-1E+10	1	-1E+10	1	-1E+10	1
4901784	110	C	07/09/2018	10:49	-132.489	43.009	0	1554.70	0	2.4100	0	34.7080	8	27.713	0	1536.633	0	33.7	4	10.3	4	-1E+10	1	-1E+10	1	-1E+10	1	-1E+10	1	-1E+10	1	-1E+10	1
4901784	110	C	07/09/2018	10:49	-132.489	43.009	0	1559.70	0	2.4050	0	34.7090	8	27.714	0	1541.557	0	33.9	4	10.3	4	-1E+10	1	-1E+10	1	-1E+10	1	-1E+10	1	-1E+10	1	-1E+10	1
4901784	110	C	07/09/2018	10:49	-132.489	43.009	0	1564.70	0	2.4010	0	34.7100	8	27.715	0	1546.481	0	34.1	4	10.4	4	-1E+10	1	-1E+10	1	-1E+10	1	-1E+10	1	-1E+10	1	-1E+10	1
4901784	110	C	07/09/2018	10:49	-132.489	43.009	0	1569.80	0	2.3960	0	34.7100	8	27.716	0	1551.503	0	34.4	4	10.5	4	-1E+10	1	-1E+10	1	-1E+10	1	-1E+10	1	-1E+10	1	-1E+10	1
4901784	110	C	07/09/2018	10:49	-132.489	43.009	0	1574.80	0	2.3860	0	34.7110	8	27.718	0	1556.426	0	34.8	4	10.6	4	-1E+10	1	-1E+10	1	-1E+10	1	-1E+10	1	-1E+10	1	-1E+10	1
4901784	110	C	07/09/2018	10:49	-132.489	43.009	0	1579.90	0	2.3780	0	34.7120	8	27.719	0	1561.448	0	35.1	4	10.7	4	-1E+10	1	-1E+10	1	-1E+10	1	-1E+10	1	-1E+10	1	-1E+10	1
4901784	110	C	07/09/2018	10:49	-132.489	43.009	0	1585.10	0	2.3710	0	34.7130	8	27.720	0	1566.568	0	35.4	4	10.8	4	-1E+10	1	-1E+10	1	-1E+10	1	-1E+10	1	-1E+10	1	-1E+10	1
4901784	110	C	07/09/2018	10:49	-132.489	43.009	0	1590.20	0	2.3650	0	34.7140	8	27.722	0	1571.589	0	35.6	4	10.8	4	-1E+10	1	-1E+10	1	-1E+10	1	-1E+10	1	-1E+10	1	-1E+10	1
4901784	110	C	07/09/2018	10:49	-132.489	43.009	0	1595.30	0	2.3600	0	34.7140	8	27.722	0	1576.611	0	35.7	4	10.9	4	-1E+10	1	-1E+10	1	-1E+10	1	-1E+10	1	-1E+10	1	-1E+10	1
4901784	110	C	07/09/2018	10:49	-132.489	43.009	0	1600.60	0	2.3590	0	34.7140	8	27.722	0	1581.829	0	35.9	4	10.9	4	-1E+10	1	-1E+10	1	-1E+10	1	-1E+10	1	-1E+10	1	-1E+10	1
4901784	110	C	07/09/2018	10:49	-132.489	43.009	0	1605.70	0	2.3490	0	34.7160	8	27.725	0	1586.850	0	36.2	4	11.0	4	-1E+10	1	-1E+10	1	-1E+10	1	-1E+10	1	-1E+10	1	-1E+10	1
4901784	110	C	07/09/2018	10:49	-132.489	43.009	0	1610.00	0	2.3480	0	34.7160	8	27.725	0	1591.083	0	36.3	4	11.1	4	-1E+10	1	-1E+10	1	-1E+10	1	-1E+10	1	-1E+10	1	-1E+10	1
4901784	110	C	07/09/2018	10:49	-132.489	43.009	0	1614.30	0	2.3390	0	34.7170	8	27.726	0	1595.316	0	36.6	4	11.1	4	-1E+10	1	-1E+10	1	-1E+10	1	-1E+10	1	-1E+10	1	-1E+10	1
4901784	110	C	07/09/2018	10:49	-132.489	43.009	0	1619.50	0	2.3320	0	34.7180	8	27.728	0	1600.436	0	36.8	4	11.2	4	-1E+10	1	-1E+10	1	-1E+10	1	-1E+10	1	-1E+10	1	-1E+10	1
4901784	110	C	07/09/2018	10:49	-132.489	43.009	0	1624.70	0	2.3270	0	34.7190	8	27.729	0	1605.555	0	37.0	4	11.3	4	-1E+10	1	-1E+10	1	-1E+10	1	-1E+10	1	-1E+10	1	-1E+10	1
4901784	110	C	07/09/2018	10:49	-132.489	43.009	0	1630.00	0	2.3250	0	34.7190	8	27.729	0	1610.772	0	37.3	4	11.4	4	-1E+10	1	-1E+10	1	-1E+10	1	-1E+10	1	-1E+10	1	-1E+10	1
4901784	110	C	07/09/2018	10:49	-132.489	43.009	0	1635.20	0	2.3140	0	34.7200	8	27.731	0	1615.891	0	37.8	4	11.5	4	-1E+10	1	-1E+10	1	-1E+10	1	-1E+10	1	-1E+10	1	-1E+10	1
4901784	110	C	07/09/2018	10:49	-132.489	43.009	0	1640.60	0	2.3030	0	34.7210	8	27.733	0	1621.206	0	38.1	4	11.6	4	-1E+10	1	-1E+10	1	-1E+10	1	-1E+10	1	-1E+10	1	-1E+10	1
4901784	110	C	07/09/2018	10:49	-132.489	43.009	0	1645.10	0	2.2980	0	34.7220	8	27.734	0	1625.636	0	38.3	4	11.7	4	-1E+10	1	-1E+10	1	-1E+10	1	-1E+10	1	-1E+10	1	-1E+10	1
4901784	110	C	07/09/2018	10:49	-132.489	43.009	0	1649.50	0	2.2970	0	34.7220	8	27.734	0	1629.967	0	38.6	4	11.7	4	-1E+10	1	-1E+10	1	-1E+10	1	-1E+10	1	-1E+10	1	-1E+10	1
4901784	110	C	07/09/2018	10:49	-132.489	43.009	0	1654.80	0	2.2850	0	34.7230	8	27.736	0	1635.184	0	39.1	4	11.9	4	-1E+10	1	-1E+10	1	-1E+10	1	-1E+10	1	-1E+10	1	-1E+10	1
4901784	110	C	07/09/2018	10:49	-132.489	43.009	0	1660.20	0	2.2770	0	34.7240	8	27.737	0	1640.499	0	39.3	4	12.0	4	-1E+10	1	-1E+10	1	-1E+10	1	-1E+10	1	-1E+10	1	-1E+10	1
4901784	110	C	07/09/2018	10:49	-132.489	43.009	0	1665.60	0	2.2740	0	34.7250	8	27.738	0	1645.814	0	39.7	4	12.1	4	-1E+10	1	-1E+10	1	-1E+10	1	-1E+10	1	-1E+10	1	-1E+10	1
4901784	110	C	07/09/2018	10:49	-132.489	43.009	0	1670.10	0	2.2720	0	34.7250	8	27.739	0	1650.243	0	40.1	4	12.2	4	-1E+10	1	-1E+10	1	-1E+10	1	-1E+10	1	-1E+10	1	-1E+10	1
4901784	110	C	07/09/2018	10:49	-132.489	43.009	0	1674.60	0	2.2550	0	34.7270	8	27.742	0	1654.672	0	40.6	4	12.3	4	-1E+10	1	-1E+10	1	-1E+10	1	-1E+10	1	-1E+10	1	-1E+10	1
4901784	110	C	07/09/2018	10:49	-132.489	43.009	0	1680.00	0	2.2470	0	34.7280	8	27.743	0	1659.986	0	40.9	4	12.4	4	-1E+10	1	-1E+10	1	-1E+10	1	-1E+10	1	-1E+10	1	-1E+10	1
4901784	110	C	07/09/2018	10:49	-132.489	43.009	0	1685.50	0	2.2420	0	34.7290	8	27.744	0	1665.399	0	41.1	4	12.5	4	-1E+10	1	-1E+10	1	-1E+10	1	-1E+10	1	-1E+10	1	-1E+10	1
4901784	110	C	07/09/2018	10:49	-132.489	43.009	0	1690.00	0	2.2410	0	34.7280	8	27.744	0	1669.828	0	41.3	4	12.5	4	-1E+10	1	-1E+10	1	-1E+10	1	-1E+10	1	-1E+10	1	-1E+10	1
4901784	110	C	07/09/2018	10:49	-132.489	43.009	0	1694.50	0	2.2340	0	34.7290	8	27.745	0	1674.257	0	41.6	4	12.6	4	-1E+10	1	-1E+10	1	-1E+10	1	-1E+10	1	-1E+10	1	-1E+10	1
4901784	110	C	07/09/2018	10:49	-132.489	43.009	0	1699.90	0	2.2300	0	34.7300	8	27.746	0	1679.571	0	42.0	4	12.7	4	-1E+10	1	-1E+10	1	-1E+10	1	-1E+10	1	-1E+10	1	-1E+10	1
4901784	110	C	07/09/2018	10:49	-132.489	43.009	0	1705.20	0	2.2150	0	34.7310	8	27.748	0	1684.786	0	42.4	4	12.9	4	-1E+10	1	-1E+10	1	-1E+10	1	-1E+10	1	-1E+10	1	-1E+10	1
4901784	110	C	07/09/2018	10:49	-132.489	43.009	0	1710.60	0	2.2120	0	34.7310	8	27.749	0	1690.100	0	42.6	4	12.9	4	-1E+10	1	-1E+10	1	-1E+10	1	-1E+10	1	-1E+10	1	-1E+10	1
4901784	110	C	07/09/2018	10:49	-132.489	43.009	0	1715.00	0	2.2070	0	34.7330	8	27.751	0	1694.430	0	43.0	4	13.1	4	-1E+10	1	-1E+10	1	-1E+10	1	-1E+10	1	-1E+10	1	-1E+10	1
4901784	110	C	07/09/2018	10:49	-132.489	43.009	0	1719.50	0	2.1980	0	34.7340	8	27.752	0	1698.858	0	43.4	4	13.2	4	-1E+10	1	-1E+10	1	-1E+10	1	-1E+10	1	-1E+10	1	-1E+10	1
4901784	110	C	07/09/2018	10:49	-132.489	43.009	0	1725.00	0	2.1920	0	34.7350	8	27.753	0	1704.270	0	43.8	4	13.3	4	-1E+10	1	-1E+10	1	-1E+10	1	-1E+10	1	-1E+10	1	-1E+10	1
4901784	110	C	07/09/2018	10:49	-132.489	43.009	0	1730.30	0	2.1850	0	34.7360	8	27.755	0	1709.485	0	44.1	4	13.4	4	-1E+10	1	-1E+10	1	-1E+10	1	-1E+10	1	-1E+10	1	-1E+10	1
4901784	110	C	07/09/2018	10:49	-132.489	43.009	0	1734.80	0	2.1800	0	34.7360	8	27.755	0	1713.912	0	44.4	4	13.5	4	-1E+10	1	-1E+10	1	-1E+10	1	-1E+10	1	-1E+10	1	-1E+10	1
4901784	110	C	07/09/2018	10:49	-132.489	43.009	0	1739.40	0	2.1750	0	34.7360	8	27.756	0	1718.438	0	44.8	4	13.6	4	-1E+10	1	-1E+10	1	-1E+10	1	-1E+10	1	-1E+10	1	-1E+10	1
4901784	110	C	07/09/2018	10:49	-132.489	43.009	0	1744.80	0	2.1640	0	34.7380	8	27.758	0	1723.751	0	45.3	4	13.7	4	-1E+10	1	-1E+10	1	-1E+10	1	-1E+10	1	-1E+10	1	-1E+10	1
4901784	110	C	07/09/2018	10:49	-132.489	43.009	0	1750.30	0	2.1560	0	34.7390	8	27.760	0	1729.163	0	45.6	4	13.8	4	-1E+10	1	-1E+10	1	-1E+10	1	-1E+10	1	-1E+10	1	-1E+10	1
4901784	110	C	07/09/2018	10:49	-132.489	43.009	0	1754.90	0	2.1540	0	34.7390	8	27.760	0	1733.688	0	45.8	4	13.9	4	-1E+10	1	-1E+10	1	-1E+10	1	-1E+10	1	-1E+10	1	-1E+10	1
4901784	110	C	07/09/2018	10:49	-132.489	43.009	0	1759.50	0	2.1470	0	34.7390	8	27.760	0	1738.214	0	46.0	4	13.9	4	-1E+10	1	-1E+10	1	-1E+10	1	-1E+10	1	-1E+10	1	-1E+10	1
4901784	110	C	07/09/2018	10:49	-132.489	43.009	0	1764.90	0	2.1400	0	34.7400	8	27.762	0	1743.526	0	46.5	4	14.1	4	-1E+10	1	-1E+10	1	-1E+10	1	-1E+10	1	-1E+10	1	-1E+10	1
4901784	110	C	07/09/2018	10:49	-132.489	43.009	0	1770.10	0	2.1330	0	34.7410	8	27.763	0	1748.642	0	46.9	4	14.2	4	-1E+10	1	-1E+10	1	-1E+10	1	-1E+10	1	-1E+10	1	-1E+10	1
4901784	110	C	07/09/2018	10:49	-132.489	43.009	0	1774.40	0	2.1240	0	34.7430	8	27.766	0	1752.872	0	47.2	4	14.3	4	-1E+10	1	-1E+10	1	-1E+10	1	-1E+10	1	-1E+10	1	-1E+10	1
4901784	110	C	07/09/2018	10:49	-132.489	43.009	0	1779.20	0	2.1160	0	34.7430	8	27.766	0	1757.594	0	47.4	4	14.4	4	-1E+10	1	-1E+10	1	-1E+10	1	-1E+10	1	-1E+10	1	-1E+10	1
4901784	110	C	07/09/2018	10:49	-132.489	43.009	0	1784.90	0	2.1120	0	34.7440	8	27.767	0	1763.201	0	47.9	4	14.5	4	-1E+10	1	-1E+10	1	-1E+10	1	-1E+10	1	-1E+10	1	-1E+10	1
4901784	110	C	07/09/2018	10:49	-132.489	43.009	0	1790.70	0	2.0970	0	34.7460	8	27.770	0	1768.906	0	48.3	4	14.6	4	-1E+10	1	-1E+10	1	-1E+10	1	-1E+10	1	-1E+10	1	-1E+10	1
4901784	110	C	07/09/2018	10:49	-132.489	43.009	0	1795.70	0	2.0950	0	34.7460	8	27.770	0	1773.825	0	48.4	4	14.7	4	-1E+10	1	-1E+10	1	-1E+10	1	-1E+10	1	-1E+10	1	-1E+10	1
4901784	110	C	07/09/2018	10:49	-132.489	43.009	0	1800.70	0	2.0940	0	34.7460	8	27.770	0	1778.743	0	48.7	4	14.7	4	-1E+10	1	-1E+10	1	-1E+10	1	-1E+10	1	-1E+10	1	-1E+10	1
4901784	110	C	07/09/2018	10:49	-132.489	43.009	0	1805.70	0	2.0920	0	34.7470	8	27.771	0	1783.661	0	48.9	4	14.8	4	-1E+10	1	-1E+10	1	-1E+10	1	-1E+10	1	-1E+10	1	-1E+10	1
4901784	110	C	07/09/2018	10:49	-132.489	43.009	0	1810.60	0	2.0880	0	34.7470	8	27.772	0	1788.481	0	49.3	4	14.9	4	-1E+10	1	-1E+10	1	-1E+10	1	-1E+10	1	-1E+10	1	-1E+10	1
4901784	110	C	07/09/2018	10:49	-132.489	43.009	0	1815.60	0	2.0860	0	34.7480	8	27.773	0	1793.398	0	49.5	4	15.0	4	-1E+10	1	-1E+10	1	-1E+10	1	-1E+10	1	-1E+10	1	-1E+10	1
4901784	110	C	07/09/2018	10:49	-132.489	43.009	0	1820.70	0	2.0840	0	34.7490	8	27.774	0	1798.414	0	49.8	4	15.1	4	-1E+10	1	-1E+10	1	-1E+10	1	-1E+10	1	-1E+10	1	-1E+10	1
4901784	110	C	07/09/2018	10:49	-132.489	43.009	0	1825.00	0	2.0820	0	34.7500	8	27.775	0	1802.644	0	50.0	4	15.1	4	-1E+10	1	-1E+10	1	-1E+10	1	-1E+10	1	-1E+10	1	-1E+10	1
4901784	110	C	07/09/2018	10:49	-132.489	43.009	0	1829.30	0	2.0800	0	34.7500	8	27.775	0	1806.873	0	50.1	4	15.1	4	-1E+10	1	-1E+10	1	-1E+10	1	-1E+10	1	-1E+10	1	-1E+10	1
4901784	110	C	07/09/2018	10:49	-132.489	43.009	0	1834.50	0	2.0700	0	34.7490	8	27.775	0	1811.987	0	50.2	4	15.2	4	-1E+10	1	-1E+10	1	-1E+10	1	-1E+10	1	-1E+10	1	-1E+10	1
4901784	110	C	07/09/2018	10:49	-132.489	43.009	0	1839.80	0	2.0690	0	34.7500	8	27.776	0	1817.199	0	50.5	4	15.3	4	-1E+10	1	-1E+10	1	-1E+10	1	-1E+10	1	-1E+10	1	-1E+10	1
4901784	110	C	07/09/2018	10:49	-132.489	43.009	0	1845.10	0	2.0700	0	34.7510	8	27.777	0	1822.411	0	50.8	4	15.4	4	-1E+10	1	-1E+10	1	-1E+10	1	-1E+10	1	-1E+10	1	-1E+10	1
4901784	110	C	07/09/2018	10:49	-132.489	43.009	0	1850.40	0	2.0680	0	34.7520	8	27.778	0	1827.623	0	51.1	4	15.4	4	-1E+10	1	-1E+10	1	-1E+10	1	-1E+10	1	-1E+10	1	-1E+10	1
4901784	110	C	07/09/2018	10:49	-132.489	43.009	0	1855.70	0	2.0640	0	34.7520	8	27.778	0	1832.835	0	51.4	4	15.5	4	-1E+10	1	-1E+10	1	-1E+10	1	-1E+10	1	-1E+10	1	-1E+10	1
4901784	110	C	07/09/2018	10:49	-132.489	43.009	0	1860.20	0	2.0610	0	34.7530	8	27.779	0	1837.260	0	51.6	4	15.6	4	-1E+10	1	-1E+10	1	-1E+10	1	-1E+10	1	-1E+10	1	-1E+10	1
4901784	110	C	07/09/2018	10:49	-132.489	43.009	0	1864.70	0	2.0540	0	34.7530	8	27.780	0	1841.685	0	51.9	4	15.7	4	-1E+10	1	-1E+10	1	-1E+10	1	-1E+10	1	-1E+10	1	-1E+10	1
4901784	110	C	07/09/2018	10:49	-132.489	43.009	0	1870.10	0	2.0470	0	34.7540	8	27.781	0	1846.995	0	52.3	4	15.8	4	-1E+10	1	-1E+10	1	-1E+10	1	-1E+10	1	-1E+10	1	-1E+10	1
4901784	110	C	07/09/2018	10:49	-132.489	43.009	0	1875.60	0	2.0450	0	34.7550	8	27.782	0	1852.403	0	52.7	4	15.9	4	-1E+10	1	-1E+10	1	-1E+10	1	-1E+10	1	-1E+10	1	-1E+10	1
4901784	110	C	07/09/2018	10:49	-132.489	43.009	0	1880.10	0	2.0400	0	34.7550	8	27.782	0	1856.828	0	52.9	4	16.0	4	-1E+10	1	-1E+10	1	-1E+10	1	-1E+10	1	-1E+10	1	-1E+10	1
4901784	110	C	07/09/2018	10:49	-132.489	43.009	0	1884.70	0	2.0360	0	34.7560	8	27.783	0	1861.351	0	53.1	4	16.0	4	-1E+10	1	-1E+10	1	-1E+10	1	-1E+10	1	-1E+10	1	-1E+10	1
4901784	110	C	07/09/2018	10:49	-132.489	43.009	0	1890.20	0	2.0330	0	34.7560	8	27.784	0	1866.759	0	53.3	4	16.1	4	-1E+10	1	-1E+10	1	-1E+10	1	-1E+10	1	-1E+10	1	-1E+10	1
4901784	110	C	07/09/2018	10:49	-132.489	43.009	0	1895.60	0	2.0310	0	34.7570	8	27.785	0	1872.068	0	53.5	4	16.2	4	-1E+10	1	-1E+10	1	-1E+10	1	-1E+10	1	-1E+10	1	-1E+10	1
4901784	110	C	07/09/2018	10:49	-132.489	43.009	0	1900.20	0	2.0260	0	34.7580	8	27.786	0	1876.591	0	53.8	4	16.2	4	-1E+10	1	-1E+10	1	-1E+10	1	-1E+10	1	-1E+10	1	-1E+10	1
4901784	110	C	07/09/2018	10:49	-132.489	43.009	0	1905.40	0	2.0240	0	34.7580	8	27.786	0	1881.703	0	54.0	4	16.3	4	-1E+10	1	-1E+10	1	-1E+10	1	-1E+10	1	-1E+10	1	-1E+10	1
4901784	110	C	07/09/2018	10:49	-132.489	43.009	0	1910.40	0	2.0220	0	34.7590	8	27.787	0	1886.619	0	54.4	4	16.4	4	-1E+10	1	-1E+10	1	-1E+10	1	-1E+10	1	-1E+10	1	-1E+10	1
4901784	110	C	07/09/2018	10:49	-132.489	43.009	0	1915.20	0	2.0190	0	34.7590	8	27.787	0	1891.338	0	54.6	4	16.5	4	-1E+10	1	-1E+10	1	-1E+10	1	-1E+10	1	-1E+10	1	-1E+10	1
4901784	110	C	07/09/2018	10:49	-132.489	43.009	0	1920.10	0	2.0170	0	34.7590	8	27.788	0	1896.155	0	54.8	4	16.6	4	-1E+10	1	-1E+10	1	-1E+10	1	-1E+10	1	-1E+10	1	-1E+10	1
4901784	110	C	07/09/2018	10:49	-132.489	43.009	0	1924.90	0	2.0120	0	34.7600	8	27.789	0	1900.874	0	55.2	4	16.7	4	-1E+10	1	-1E+10	1	-1E+10	1	-1E+10	1	-1E+10	1	-1E+10	1
4901784	110	C	07/09/2018	10:49	-132.489	43.009	0	1929.80	0	2.0070	0	34.7610	8	27.790	0	1905.691	0	55.4	4	16.7	4	-1E+10	1	-1E+10	1	-1E+10	1	-1E+10	1	-1E+10	1	-1E+10	1
4901784	110	C	07/09/2018	10:49	-132.489	43.009	0	1934.70	0	2.0050	0	34.7610	8	27.790	0	1910.507	0	55.7	4	16.8	4	-1E+10	1	-1E+10	1	-1E+10	1	-1E+10	1	-1E+10	1	-1E+10	1
4901784	110	C	07/09/2018	10:49	-132.489	43.009	0	1939.60	0	2.0010	0	34.7620	8	27.791	0	1915.324	0	56.0	4	16.9	4	-1E+10	1	-1E+10	1	-1E+10	1	-1E+10	1	-1E+10	1	-1E+10	1
4901784	110	C	07/09/2018	10:49	-132.489	43.009	0	1944.60	0	1.9960	0	34.7620	8	27.792	0	1920.239	0	56.4	4	17.0	4	-1E+10	1	-1E+10	1	-1E+10	1	-1E+10	1	-1E+10	1	-1E+10	1
4901784	110	C	07/09/2018	10:49	-132.489	43.009	0	1949.50	0	1.9890	0	34.7630	8	27.793	0	1925.055	0	56.9	4	17.2	4	-1E+10	1	-1E+10	1	-1E+10	1	-1E+10	1	-1E+10	1	-1E+10	1
4901784	110	C	07/09/2018	10:49	-132.489	43.009	0	1954.60	0	1.9830	0	34.7640	8	27.794	0	1930.068	0	57.4	4	17.3	4	-1E+10	1	-1E+10	1	-1E+10	1	-1E+10	1	-1E+10	1	-1E+10	1
4901784	110	C	07/09/2018	10:49	-132.489	43.009	0	1959.60	0	1.9760	0	34.7650	8	27.796	0	1934.983	0	57.8	4	17.4	4	-1E+10	1	-1E+10	1	-1E+10	1	-1E+10	1	-1E+10	1	-1E+10	1
4901784	110	C	07/09/2018	10:49	-132.489	43.009	0	1964.70	0	1.9720	0	34.7660	8	27.797	0	1939.996	0	58.1	4	17.5	4	-1E+10	1	-1E+10	1	-1E+10	1	-1E+10	1	-1E+10	1	-1E+10	1
4901784	110	C	07/09/2018	10:49	-132.489	43.009	0	1969.80	0	1.9660	0	34.7670	8	27.798	0	1945.008	0	58.5	4	17.6	4	-1E+10	1	-1E+10	1	-1E+10	1	-1E+10	1	-1E+10	1	-1E+10	1
4901784	110	C	07/09/2018	10:49	-132.489	43.009	0	1974.90	0	1.9630	0	34.7670	8	27.798	0	1950.021	0	58.6	4	17.7	4	-1E+10	1	-1E+10	1	-1E+10	1	-1E+10	1	-1E+10	1	-1E+10	1
4901784	110	C	07/09/2018	10:49	-132.489	43.009	0	1980.00	0	1.9620	0	34.7670	8	27.799	0	1955.033	0	58.9	4	17.8	4	-1E+10	1	-1E+10	1	-1E+10	1	-1E+10	1	-1E+10	1	-1E+10	1
4901784	110	C	07/09/2018	10:49	-132.489	43.009	0	1985.00	0	1.9550	0	34.7680	8	27.800	0	1959.947	0	59.3	4	17.9	4	-1E+10	1	-1E+10	1	-1E+10	1	-1E+10	1	-1E+10	1	-1E+10	1
4901784	110	C	07/09/2018	10:49	-132.489	43.009	0	1990.20	0	1.9500	0	34.7690	8	27.801	0	1965.057	0	59.6	4	18.0	4	-1E+10	1	-1E+10	1	-1E+10	1	-1E+10	1	-1E+10	1	-1E+10	1
4901784	110	C	07/09/2018	10:49	-132.489	43.009	0	1995.30	0	1.9480	0	34.7690	8	27.801	0	1970.070	0	59.9	4	18.0	4	-1E+10	1	-1E+10	1	-1E+10	1	-1E+10	1	-1E+10	1	-1E+10	1
4901784	110	C	07/09/2018	10:49	-132.489	43.009	0	2000.60	0	1.9420	0	34.7700	8	27.803	0	1975.278	0	60.2	4	18.2	4	-1E+10	1	-1E+10	1	-1E+10	1	-1E+10	1	-1E+10	1	-1E+10	1
4901784	110	C	07/09/2018	10:49	-132.489	43.009	0	2004.90	0	1.9410	0	34.7700	8	27.803	0	1979.504	0	60.4	4	18.2	4	-1E+10	1	-1E+10	1	-1E+10	1	-1E+10	1	-1E+10	1	-1E+10	1
4901784	110	C	07/09/2018	10:49	-132.489	43.009	0	2009.20	0	1.9370	0	34.7710	8	27.804	0	1983.729	0	60.7	4	18.3	4	-1E+10	1	-1E+10	1	-1E+10	1	-1E+10	1	-1E+10	1	-1E+10	1
4901784	110	C	07/09/2018	10:49	-132.489	43.009	0	2015.00	0	1.9310	0	34.7720	8	27.805	0	1989.429	0	61.0	4	18.4	4	-1E+10	1	-1E+10	1	-1E+10	1	-1E+10	1	-1E+10	1	-1E+10	1
4901784	110	C	07/09/2018	10:49	-132.489	43.009	0	2019.70	0	1.9290	0	34.7720	8	27.805	0	1994.047	0	61.3	4	18.5	4	-1E+10	1	-1E+10	1	-1E+10	1	-1E+10	1	-1E+10	1	-1E+10	1
4901784	110	C	07/09/2018	10:49	-132.489	43.009	0																										
4901784	111	C	07/19/2018	10:49	-132.236	43.132	0	2.60	0	15.5380	0	32.8380	8	24.189	0	2.579	0	243.7	4	97.9	4	-1E+10	1	-1E+10	1	-1E+10	1	-1E+10	1	-1E+10	1	-1E+10	1
4901784	111	C	07/19/2018	10:49	-132.236	43.132	0	3.90	0	15.5390	0	32.8390	8	24.190	0	3.869	0	243.7	4	97.9	4	-1E+10	1	-1E+10	1	-1E+10	1	-1E+10	1	-1E+10	1	-1E+10	1
4901784	111	C	07/19/2018	10:49	-132.236	43.132	0	5.50	0	15.5400	0	32.8390	8	24.189	0	5.456	0	243.5	4	97.8	4	-1E+10	1	-1E+10	1	-1E+10	1	-1E+10	1	-1E+10	1	-1E+10	1
4901784	111	C	07/19/2018	10:49	-132.236	43.132	0	7.30	0	15.5400	0	32.8380	8	24.189	0	7.242	0	243.4	4	97.8	4	-1E+10	1	-1E+10	1	-1E+10	1	-1E+10	1	-1E+10	1	-1E+10	1
4901784	111	C	07/19/2018	10:49	-132.236	43.132	0	9.80	0	15.5420	0	32.8390	8	24.189	0	9.722	0	243.1	4	97.7	4	-1E+10	1	-1E+10	1	-1E+10	1	-1E+10	1	-1E+10	1	-1E+10	1
4901784	111	C	07/19/2018	10:49	-132.236	43.132	0	11.70	0	15.5410	0	32.8390	8	24.189	0	11.607	0	243.2	4	97.7	4	-1E+10	1	-1E+10	1	-1E+10	1	-1E+10	1	-1E+10	1	-1E+10	1
4901784	111	C	07/19/2018	10:49	-132.236	43.132	0	13.30	0	15.5390	0	32.8360	8	24.188	0	13.194	0	242.9	4	97.6	4	-1E+10	1	-1E+10	1	-1E+10	1	-1E+10	1	-1E+10	1	-1E+10	1
4901784	111	C	07/19/2018	10:49	-132.236	43.132	0	14.80	0	15.5420	0	32.8470	8	24.196	0	14.682	0	243.0	4	97.7	4	-1E+10	1	-1E+10	1	-1E+10	1	-1E+10	1	-1E+10	1	-1E+10	1
4901784	111	C	07/19/2018	10:49	-132.236	43.132	0	16.40	0	15.5350	0	32.9160	8	24.250	0	16.269	0	242.8	4	97.6	4	-1E+10	1	-1E+10	1	-1E+10	1	-1E+10	1	-1E+10	1	-1E+10	1
4901784	111	C	07/19/2018	10:49	-132.236	43.132	0	18.00	0	15.4800	0	32.9090	8	24.257	0	17.856	0	243.2	4	97.6	4	-1E+10	1	-1E+10	1	-1E+10	1	-1E+10	1	-1E+10	1	-1E+10	1
4901784	111	C	07/19/2018	10:49	-132.236	43.132	0	20.10	0	15.4140	0	32.9020	8	24.266	0	19.939	0	243.6	4	97.7	4	-1E+10	1	-1E+10	1	-1E+10	1	-1E+10	1	-1E+10	1	-1E+10	1
4901784	111	C	07/19/2018	10:49	-132.236	43.132	0	21.70	0	15.3180	0	32.8810	8	24.271	0	21.526	0	244.4	4	97.8	4	-1E+10	1	-1E+10	1	-1E+10	1	-1E+10	1	-1E+10	1	-1E+10	1
4901784	111	C	07/19/2018	10:49	-132.236	43.132	0	23.00	0	15.3130	0	32.8770	8	24.269	0	22.816	0	245.0	4	98.0	4	-1E+10	1	-1E+10	1	-1E+10	1	-1E+10	1	-1E+10	1	-1E+10	1
4901784	111	C	07/19/2018	10:49	-132.236	43.132	0	24.20	0	15.3090	0	32.8700	8	24.265	0	24.006	0	245.3	4	98.1	4	-1E+10	1	-1E+10	1	-1E+10	1	-1E+10	1	-1E+10	1	-1E+10	1
4901784	111	C	07/19/2018	10:49	-132.236	43.132	0	25.50	0	15.2570	0	32.8600	8	24.268	0	25.296	0	246.6	4	98.6	4	-1E+10	1	-1E+10	1	-1E+10	1	-1E+10	1	-1E+10	1	-1E+10	1
4901784	111	C	07/19/2018	10:49	-132.236	43.132	0	26.80	0	15.1760	0	32.8460	8	24.275	0	26.585	0	248.2	4	99.0	4	-1E+10	1	-1E+10	1	-1E+10	1	-1E+10	1	-1E+10	1	-1E+10	1
4901784	111	C	07/19/2018	10:49	-132.236	43.132	0	28.00	0	15.1040	0	32.8290	8	24.278	0	27.776	0	250.6	4	99.9	4	-1E+10	1	-1E+10	1	-1E+10	1	-1E+10	1	-1E+10	1	-1E+10	1
4901784	111	C	07/19/2018	10:49	-132.236	43.132	0	29.40	0	14.7140	0	32.8130	8	24.349	0	29.164	0	254.5	4	100.6	4	-1E+10	1	-1E+10	1	-1E+10	1	-1E+10	1	-1E+10	1	-1E+10	1
4901784	111	C	07/19/2018	10:49	-132.236	43.132	0	30.80	0	13.6580	0	32.8170	8	24.572	0	30.553	0	261.7	4	101.3	4	-1E+10	1	-1E+10	1	-1E+10	1	-1E+10	1	-1E+10	1	-1E+10	1
4901784	111	C	07/19/2018	10:49	-132.236	43.132	0	32.10	0	13.2640	0	32.7850	8	24.627	0	31.842	0	267.1	4	102.5	4	-1E+10	1	-1E+10	1	-1E+10	1	-1E+10	1	-1E+10	1	-1E+10	1
4901784	111	C	07/19/2018	10:49	-132.236	43.132	0	33.70	0	12.8590	0	32.7800	8	24.703	0	33.429	0	270.6	4	103.0	4	-1E+10	1	-1E+10	1	-1E+10	1	-1E+10	1	-1E+10	1	-1E+10	1
4901784	111	C	07/19/2018	10:49	-132.236	43.132	0	35.20	0	12.0870	0	32.7790	8	24.850	0	34.917	0	276.2	4	103.5	4	-1E+10	1	-1E+10	1	-1E+10	1	-1E+10	1	-1E+10	1	-1E+10	1
4901784	111	C	07/19/2018	10:49	-132.236	43.132	0	36.90	0	11.6490	0	32.7800	8	24.932	0	36.604	0	279.8	4	103.9	4	-1E+10	1	-1E+10	1	-1E+10	1	-1E+10	1	-1E+10	1	-1E+10	1
4901784	111	C	07/19/2018	10:49	-132.236	43.132	0	38.70	0	11.1220	0	32.7780	8	25.025	0	38.389	0	283.8	4	104.2	4	-1E+10	1	-1E+10	1	-1E+10	1	-1E+10	1	-1E+10	1	-1E+10	1
4901784	111	C	07/19/2018	10:49	-132.236	43.132	0	40.50	0	10.8840	0	32.7690	8	25.060	0	40.174	0	285.3	4	104.2	4	-1E+10	1	-1E+10	1	-1E+10	1	-1E+10	1	-1E+10	1	-1E+10	1
4901784	111	C	07/19/2018	10:49	-132.236	43.132	0	42.20	0	10.7390	0	32.7700	8	25.086	0	41.860	0	285.6	4	104.0	4	-1E+10	1	-1E+10	1	-1E+10	1	-1E+10	1	-1E+10	1	-1E+10	1
4901784	111	C	07/19/2018	10:49	-132.236	43.132	0	44.10	0	10.4230	0	32.7740	8	25.144	0	43.745	0	287.2	4	103.9	4	-1E+10	1	-1E+10	1	-1E+10	1	-1E+10	1	-1E+10	1	-1E+10	1
4901784	111	C	07/19/2018	10:49	-132.236	43.132	0	46.10	0	10.3340	0	32.7760	8	25.161	0	45.729	0	287.5	4	103.8	4	-1E+10	1	-1E+10	1	-1E+10	1	-1E+10	1	-1E+10	1	-1E+10	1
4901784	111	C	07/19/2018	10:49	-132.236	43.132	0	48.10	0	10.2070	0	32.8000	8	25.201	0	47.712	0	287.3	4	103.4	4	-1E+10	1	-1E+10	1	-1E+10	1	-1E+10	1	-1E+10	1	-1E+10	1
4901784	111	C	07/19/2018	10:49	-132.236	43.132	0	50.10	0	10.1600	0	32.7960	8	25.206	0	49.696	0	287.1	4	103.3	4	-1E+10	1	-1E+10	1	-1E+10	1	-1E+10	1	-1E+10	1	-1E+10	1
4901784	111	C	07/19/2018	10:49	-132.236	43.132	0	52.10	0	10.1790	0	32.8250	8	25.225	0	51.679	0	286.3	4	103.0	4	-1E+10	1	-1E+10	1	-1E+10	1	-1E+10	1	-1E+10	1	-1E+10	1
4901784	111	C	07/19/2018	10:49	-132.236	43.132	0	54.10	0	10.1740	0	32.8300	8	25.230	0	53.663	0	286.0	4	102.9	4	-1E+10	1	-1E+10	1	-1E+10	1	-1E+10	1	-1E+10	1	-1E+10	1
4901784	111	C	07/19/2018	10:49	-132.236	43.132	0	56.00	0	10.1670	0	32.8340	8	25.234	0	55.547	0	285.3	4	102.7	4	-1E+10	1	-1E+10	1	-1E+10	1	-1E+10	1	-1E+10	1	-1E+10	1
4901784	111	C	07/19/2018	10:49	-132.236	43.132	0	57.90	0	10.0470	0	32.8320	8	25.253	0	57.432	0	285.2	4	102.4	4	-1E+10	1	-1E+10	1	-1E+10	1	-1E+10	1	-1E+10	1	-1E+10	1
4901784	111	C	07/19/2018	10:49	-132.236	43.132	0	59.80	0	9.9160	0	32.8180	8	25.264	0	59.316	0	285.3	4	102.1	4	-1E+10	1	-1E+10	1	-1E+10	1	-1E+10	1	-1E+10	1	-1E+10	1
4901784	111	C	07/19/2018	10:49	-132.236	43.132	0	61.80	0	9.8380	0	32.8070	8	25.268	0	61.300	0	285.1	4	101.8	4	-1E+10	1	-1E+10	1	-1E+10	1	-1E+10	1	-1E+10	1	-1E+10	1
4901784	111	C	07/19/2018	10:49	-132.236	43.132	0	63.70	0	9.8240	0	32.8100	8	25.273	0	63.184	0	284.2	4	101.5	4	-1E+10	1	-1E+10	1	-1E+10	1	-1E+10	1	-1E+10	1	-1E+10	1
4901784	111	C	07/19/2018	10:49	-132.236	43.132	0	65.70	0	9.7910	0	32.8060	8	25.275	0	65.168	0	283.3	4	101.1	4	-1E+10	1	-1E+10	1	-1E+10	1	-1E+10	1	-1E+10	1	-1E+10	1
4901784	111	C	07/19/2018	10:49	-132.236	43.132	0	67.70	0	9.7380	0	32.7990	8	25.279	0	67.151	0	282.5	4	100.7	4	-1E+10	1	-1E+10	1	-1E+10	1	-1E+10	1	-1E+10	1	-1E+10	1
4901784	111	C	07/19/2018	10:49	-132.236	43.132	0	69.70	0	9.7190	0	32.7950	8	25.279	0	69.134	0	280.9	4	100.1	4	-1E+10	1	-1E+10	1	-1E+10	1	-1E+10	1	-1E+10	1	-1E+10	1
4901784	111	C	07/19/2018	10:49	-132.236	43.132	0	71.60	0	9.5410	0	32.7880	8	25.302	0	71.019	0	279.9	4	99.3	4	-1E+10	1	-1E+10	1	-1E+10	1	-1E+10	1	-1E+10	1	-1E+10	1
4901784	111	C	07/19/2018	10:49	-132.236	43.132	0	73.60	0	9.4790	0	32.7850	8	25.310	0	73.002	0	279.1	4	98.9	4	-1E+10	1	-1E+10	1	-1E+10	1	-1E+10	1	-1E+10	1	-1E+10	1
4901784	111	C	07/19/2018	10:49	-132.236	43.132	0	75.50	0	9.4380	0	32.7850	8	25.316	0	74.886	0	277.8	4	98.3	4	-1E+10	1	-1E+10	1	-1E+10	1	-1E+10	1	-1E+10	1	-1E+10	1
4901784	111	C	07/19/2018	10:49	-132.236	43.132	0	77.40	0	9.4370	0	32.7830	8	25.315	0	76.771	0	277.1	4	98.1	4	-1E+10	1	-1E+10	1	-1E+10	1	-1E+10	1	-1E+10	1	-1E+10	1
4901784	111	C	07/19/2018	10:49	-132.236	43.132	0	79.30	0	9.4670	0	32.7950	8	25.320	0	78.655	0	275.9	4	97.7	4	-1E+10	1	-1E+10	1	-1E+10	1	-1E+10	1	-1E+10	1	-1E+10	1
4901784	111	C	07/19/2018	10:49	-132.236	43.132	0	81.30	0	9.3610	0	32.7890	8	25.332	0	80.638	0	275.5	4	97.4	4	-1E+10	1	-1E+10	1	-1E+10	1	-1E+10	1	-1E+10	1	-1E+10	1
4901784	111	C	07/19/2018	10:49	-132.236	43.132	0	83.10	0	9.3370	0	32.7860	8	25.333	0	82.423	0	274.5	4	97.0	4	-1E+10	1	-1E+10	1	-1E+10	1	-1E+10	1	-1E+10	1	-1E+10	1
4901784	111	C	07/19/2018	10:49	-132.236	43.132	0	85.00	0	9.3440	0	32.7920	8	25.337	0	84.307	0	273.8	4	96.7	4	-1E+10	1	-1E+10	1	-1E+10	1	-1E+10	1	-1E+10	1	-1E+10	1
4901784	111	C	07/19/2018	10:49	-132.236	43.132	0	86.90	0	9.3130	0	32.7900	8	25.340	0	86.191	0	273.1	4	96.4	4	-1E+10	1	-1E+10	1	-1E+10	1	-1E+10	1	-1E+10	1	-1E+10	1
4901784	111	C	07/19/2018	10:49	-132.236	43.132	0	88.70	0	9.2980	0	32.7900	8	25.343	0	87.976	0	272.4	4	96.2	4	-1E+10	1	-1E+10	1	-1E+10	1	-1E+10	1	-1E+10	1	-1E+10	1
4901784	111	C	07/19/2018	10:49	-132.236	43.132	0	90.50	0	9.3100	0	32.7940	8	25.344	0	89.761	0	271.4	4	95.8	4	-1E+10	1	-1E+10	1	-1E+10	1	-1E+10	1	-1E+10	1	-1E+10	1
4901784	111	C	07/19/2018	10:49	-132.236	43.132	0	92.40	0	9.2670	0	32.7890	8	25.347	0	91.645	0	270.5	4	95.4	4	-1E+10	1	-1E+10	1	-1E+10	1	-1E+10	1	-1E+10	1	-1E+10	1
4901784	111	C	07/19/2018	10:49	-132.236	43.132	0	94.20	0	9.1960	0	32.7840	8	25.354	0	93.430	0	269.5	4	94.9	4	-1E+10	1	-1E+10	1	-1E+10	1	-1E+10	1	-1E+10	1	-1E+10	1
4901784	111	C	07/19/2018	10:49	-132.236	43.132	0	95.90	0	9.2050	0	32.7930	8	25.360	0	95.116	0	268.4	4	94.6	4	-1E+10	1	-1E+10	1	-1E+10	1	-1E+10	1	-1E+10	1	-1E+10	1
4901784	111	C	07/19/2018	10:49	-132.236	43.132	0	97.70	0	9.2280	0	32.7870	8	25.352	0	96.901	0	267.4	4	94.3	4	-1E+10	1	-1E+10	1	-1E+10	1	-1E+10	1	-1E+10	1	-1E+10	1
4901784	111	C	07/19/2018	10:49	-132.236	43.132	0	99.50	0	9.2400	0	32.8110	8	25.369	0	98.686	0	266.0	4	93.8	4	-1E+10	1	-1E+10	1	-1E+10	1	-1E+10	1	-1E+10	1	-1E+10	1
4901784	111	C	07/19/2018	10:49	-132.236	43.132	0	102.90	0	9.1380	0	32.8080	8	25.382	0	102.057	0	264.4	4	93.0	4	-1E+10	1	-1E+10	1	-1E+10	1	-1E+10	1	-1E+10	1	-1E+10	1
4901784	111	C	07/19/2018	10:49	-132.236	43.132	0	104.60	0	9.1060	0	32.8030	8	25.384	0	103.743	0	263.5	4	92.6	4	-1E+10	1	-1E+10	1	-1E+10	1	-1E+10	1	-1E+10	1	-1E+10	1
4901784	111	C	07/19/2018	10:49	-132.236	43.132	0	107.20	0	9.0470	0	32.8030	8	25.393	0	106.321	0	261.4	4	91.8	4	-1E+10	1	-1E+10	1	-1E+10	1	-1E+10	1	-1E+10	1	-1E+10	1
4901784	111	C	07/19/2018	10:49	-132.236	43.132	0	109.80	0	8.9910	0	32.8030	8	25.402	0	108.899	0	258.3	4	90.6	4	-1E+10	1	-1E+10	1	-1E+10	1	-1E+10	1	-1E+10	1	-1E+10	1
4901784	111	C	07/19/2018	10:49	-132.236	43.132	0	112.20	0	8.9870	0	32.8320	8	25.425	0	111.278	0	254.5	4	89.2	4	-1E+10	1	-1E+10	1	-1E+10	1	-1E+10	1	-1E+10	1	-1E+10	1
4901784	111	C	07/19/2018	10:49	-132.236	43.132	0	115.40	0	8.8500	0	32.9010	8	25.500	0	114.451	0	249.7	4	87.4	4	-1E+10	1	-1E+10	1	-1E+10	1	-1E+10	1	-1E+10	1	-1E+10	1
4901784	111	C	07/19/2018	10:49	-132.236	43.132	0	117.80	0	8.7870	0	32.9660	8	25.561	0	116.831	0	247.4	4	86.5	4	-1E+10	1	-1E+10	1	-1E+10	1	-1E+10	1	-1E+10	1	-1E+10	1
4901784	111	C	07/19/2018	10:49	-132.236	43.132	0	120.30	0	8.5510	0	33.0090	8	25.631	0	119.309	0	246.4	4	85.7	4	-1E+10	1	-1E+10	1	-1E+10	1	-1E+10	1	-1E+10	1	-1E+10	1
4901784	111	C	07/19/2018	10:49	-132.236	43.132	0	122.80	0	8.3650	0	33.0620	8	25.700	0	121.788	0	245.0	4	84.9	4	-1E+10	1	-1E+10	1	-1E+10	1	-1E+10	1	-1E+10	1	-1E+10	1
4901784	111	C	07/19/2018	10:49	-132.236	43.132	0	124.90	0	8.2440	0	33.0940	8	25.743	0	123.870	0	244.6	4	84.5	4	-1E+10	1	-1E+10	1	-1E+10	1	-1E+10	1	-1E+10	1	-1E+10	1
4901784	111	C	07/19/2018	10:49	-132.236	43.132	0	127.30	0	8.1910	0	33.1240	8	25.775	0	126.249	0	242.6	4	83.8	4	-1E+10	1	-1E+10	1	-1E+10	1	-1E+10	1	-1E+10	1	-1E+10	1
4901784	111	C	07/19/2018	10:49	-132.236	43.132	0	130.00	0	8.0910	0	33.1600	8	25.818	0	128.926	0	240.3	4	82.8	4	-1E+10	1	-1E+10	1	-1E+10	1	-1E+10	1	-1E+10	1	-1E+10	1
4901784	111	C	07/19/2018	10:49	-132.236	43.132	0	132.20	0	8.0200	0	33.1960	8	25.856	0	131.107	0	238.1	4	82.0	4	-1E+10	1	-1E+10	1	-1E+10	1	-1E+10	1	-1E+10	1	-1E+10	1
4901784	111	C	07/19/2018	10:49	-132.236	43.132	0	134.50	0	7.9820	0	33.2410	8	25.897	0	133.388	0	234.8	4	80.8	4	-1E+10	1	-1E+10	1	-1E+10	1	-1E+10	1	-1E+10	1	-1E+10	1
4901784	111	C	07/19/2018	10:49	-132.236	43.132	0	137.40	0	7.9850	0	33.3170	8	25.957	0	136.263	0	229.3	4	78.9	4	-1E+10	1	-1E+10	1	-1E+10	1	-1E+10	1	-1E+10	1	-1E+10	1
4901784	111	C	07/19/2018	10:49	-132.236	43.132	0	140.00	0	8.0160	0	33.3710	8	25.995	0	138.840	0	224.2	4	77.2	4	-1E+10	1	-1E+10	1	-1E+10	1	-1E+10	1	-1E+10	1	-1E+10	1
4901784	111	C	07/19/2018	10:49	-132.236	43.132	0	142.70	0	8.0420	0	33.4390	8	26.044	0	141.517	0	219.4	4	75.7	4	-1E+10	1	-1E+10	1	-1E+10	1	-1E+10	1	-1E+10	1	-1E+10	1
4901784	111	C	07/19/2018	10:49	-132.236	43.132	0	145.50	0	8.0560	0	33.4670	8	26.064	0	144.293	0	213.9	4	73.8	4	-1E+10	1	-1E+10	1	-1E+10	1	-1E+10	1	-1E+10	1	-1E+10	1
4901784	111	C	07/19/2018	10:49	-132.236	43.132	0	147.70	0	8.1080	0	33.5240	8	26.101	0	146.474	0	207.7	4	71.8	4	-1E+10	1	-1E+10	1	-1E+10	1	-1E+10	1	-1E+10	1	-1E+10	1
4901784	111	C	07/19/2018	10:49	-132.236	43.132	0	149.40	0	8.1430	0	33.5780	8	26.138	0	148.159	0	204.0	4	70.6	4	-1E+10	1	-1E+10	1	-1E+10	1	-1E+10	1	-1E+10	1	-1E+10	1
4901784	111	C	07/19/2018	10:49	-132.236	43.132	0	152.20	0	8.2210	0	33.6880	8	26.213	0	150.935	0	197.9	4	68.7	4	-1E+10	1	-1E+10	1	-1E+10	1	-1E+10	1	-1E+10	1	-1E+10	1
4901784	111	C	07/19/2018	10:49	-132.236	43.132	0	155.40	0	8.2790	0	33.7730	8	26.271	0	154.107	0	192.0	4	66.7	4	-1E+10	1	-1E+10	1	-1E+10	1	-1E+10	1	-1E+10	1	-1E+10	1
4901784	111	C	07/19/2018	10:49	-132.236	43.132	0	157.60	0	8.2910	0	33.8060	8	26.295	0	156.288	0	188.3	4	65.5	4	-1E+10	1	-1E+10	1	-1E+10	1	-1E+10	1	-1E+10	1	-1E+10	1
4901784	111	C	07/19/2018	10:49	-132.236	43.132	0	159.80	0	8.2990	0	33.8290	8	26.312	0	158.469	0	185.2	4	64.4	4	-1E+10	1	-1E+10	1	-1E+10	1	-1E+10	1	-1E+10	1	-1E+10	1
4901784	111	C	07/19/2018	10:49	-132.236	43.132	0	162.20	0	8.3050	0	33.8450	8	26.324	0	160.848	0	181.6	4	63.2	4	-1E+10	1	-1E+10	1	-1E+10	1	-1E+10	1	-1E+10	1	-1E+10	1
4901784	111	C	07/19/2018	10:49	-132.236	43.132	0	164.70	0	8.3330	0	33.9220	8	26.380	0	163.326	0	177.9	4	62.0	4	-1E+10	1	-1E+10	1	-1E+10	1	-1E+10	1	-1E+10	1	-1E+10	1
4901784	111	C	07/19/2018	10:49	-132.236	43.132	0	167.30	0	8.3500	0	33.9420	8	26.393	0	165.903	0	175.2	4	61.1	4	-1E+10	1	-1E+10	1	-1E+10	1	-1E+10	1	-1E+10	1	-1E+10	1
4901784	111	C	07/19/2018	10:49	-132.236	43.132	0	169.90	0	8.3510	0	33.9740	8	26.418	0	168.481	0	173.5	4	60.5	4	-1E+10	1	-1E+10	1	-1E+10	1	-1E+10	1	-1E+10	1	-1E+10	1
4901784	111	C	07/19/2018	10:49	-132.236	43.132	0	172.50	0	8.3290	0	33.9850	8	26.430	0	171.058	0	172.1	4	60.0	4	-1E+10	1	-1E+10	1	-1E+10	1	-1E+10	1	-1E+10	1	-1E+10	1
4901784	111	C	07/19/2018	10:49	-132.236	43.132	0	175.20	0	8.3430	0	34.0130	8	26.450	0	173.734	0	169.9	4	59.3	4	-1E+10	1	-1E+10	1	-1E+10	1	-1E+10	1	-1E+10	1	-1E+10	1
4901784	111	C	07/19/2018	10:49	-132.236	43.132	0	177.90	0	8.3410	0	34.0410	8	26.473	0	176.410	0	168.4	4	58.7	4	-1E+10	1	-1E+10	1	-1E+10	1	-1E+10	1	-1E+10	1	-1E+10	1
4901784	111	C	07/19/2018	10:49	-132.236	43.132	0	179.70	0	8.3250	0	34.0590	8	26.489	0	178.194	0	167.7	4	58.5	4	-1E+10	1	-1E+10	1	-1E+10	1	-1E+10	1	-1E+10	1	-1E+10	1
4901784	111	C	07/19/2018	10:49	-132.236	43.132	0	182.40	0	8.3080	0	34.0720	8	26.502	0	180.871	0	166.5	4	58.1	4	-1E+10	1	-1E+10	1	-1E+10	1	-1E+10	1	-1E+10	1	-1E+10	1
4901784	111	C	07/19/2018	10:49	-132.236	43.132	0	185.00	0	8.2760	0	34.0830	8	26.515	0	183.448	0	165.3	4	57.6	4	-1E+10	1	-1E+10	1	-1E+10	1	-1E+10	1	-1E+10	1	-1E+10	1
4901784	111	C	07/19/2018	10:49	-132.236	43.132	0	187.60	0	8.2260	0	34.0960	8	26.533	0	186.025	0	164.2	4	57.1	4	-1E+10	1	-1E+10	1	-1E+10	1	-1E+10	1	-1E+10	1	-1E+10	1
4901784	111	C	07/19/2018	10:49	-132.236	43.132	0	190.20	0	8.1650	0	34.1050	8	26.549	0	188.602	0	163.3	4	56.7	4	-1E+10	1	-1E+10	1	-1E+10	1	-1E+10	1	-1E+10	1	-1E+10	1
4901784	111	C	07/19/2018	10:49	-132.236	43.132	0	192.00	0	8.1540	0	34.1050	8	26.551	0	190.386	0	162.8	4	56.6	4	-1E+10	1	-1E+10	1	-1E+10	1	-1E+10	1	-1E+10	1	-1E+10	1
4901784	111	C	07/19/2018	10:49	-132.236	43.132	0	194.60	0	8.1140	0	34.1150	8	26.565	0	192.963	0	161.9	4	56.2	4	-1E+10	1	-1E+10	1	-1E+10	1	-1E+10	1	-1E+10	1	-1E+10	1
4901784	111	C	07/19/2018	10:49	-132.236	43.132	0	197.30	0	8.1020	0	34.1140	8	26.566	0	195.639	0	160.2	4	55.6	4	-1E+10	1	-1E+10	1	-1E+10	1	-1E+10	1	-1E+10	1	-1E+10	1
4901784	111	C	07/19/2018	10:49	-132.236	43.132	0	199.90	0	8.0500	0	34.1170	8	26.576	0	198.216	0	157.9	4	54.8	4	-1E+10	1	-1E+10	1	-1E+10	1	-1E+10	1	-1E+10	1	-1E+10	1
4901784	111	C	07/19/2018	10:49	-132.236	43.132	0	202.50	0	7.9810	0	34.1170	8	26.586	0	200.792	0	156.7	4	54.2	4	-1E+10	1	-1E+10	1	-1E+10	1	-1E+10	1	-1E+10	1	-1E+10	1
4901784	111	C	07/19/2018	10:49	-132.236	43.132	0	205.10	0	7.9240	0	34.1170	8	26.595	0	203.369	0	156.1	4	54.0	4	-1E+10	1	-1E+10	1	-1E+10	1	-1E+10	1	-1E+10	1	-1E+10	1
4901784	111	C	07/19/2018	10:49	-132.236	43.132	0	207.80	0	7.8840	0	34.1170	8	26.601	0	206.045	0	155.8	4	53.8	4	-1E+10	1	-1E+10	1	-1E+10	1	-1E+10	1	-1E+10	1	-1E+10	1
4901784	111	C	07/19/2018	10:49	-132.236	43.132	0	209.60	0	7.8680	0	34.1220	8	26.607	0	207.829	0	155.0	4	53.5	4	-1E+10	1	-1E+10	1	-1E+10	1	-1E+10	1	-1E+10	1	-1E+10	1
4901784	111	C	07/19/2018	10:49	-132.236	43.132	0	212.20	0	7.7970	0	34.1210	8	26.617	0	210.406	0	153.4	4	52.9	4	-1E+10	1	-1E+10	1	-1E+10	1	-1E+10	1	-1E+10	1	-1E+10	1
4901784	111	C	07/19/2018	10:49	-132.236	43.132	0	214.80	0	7.7460	0	34.1220	8	26.625	0	212.982	0	151.1	4	52.0	4	-1E+10	1	-1E+10	1	-1E+10	1	-1E+10	1	-1E+10	1	-1E+10	1
4901784	111	C	07/19/2018	10:49	-132.236	43.132	0	217.50	0	7.6740	0	34.1200	8	26.634	0	215.658	0	150.0	4	51.6	4	-1E+10	1	-1E+10	1	-1E+10	1	-1E+10	1	-1E+10	1	-1E+10	1
4901784	111	C	07/19/2018	10:49	-132.236	43.132	0	220.10	0	7.6150	0	34.1240	8	26.645	0	218.235	0	149.0	4	51.2	4	-1E+10	1	-1E+10	1	-1E+10	1	-1E+10	1	-1E+10	1	-1E+10	1
4901784	111	C	07/19/2018	10:49	-132.236	43.132	0	222.60	0	7.5780	0	34.1230	8	26.650	0	220.712	0	148.3	4	50.9	4	-1E+10	1	-1E+10	1	-1E+10	1	-1E+10	1	-1E+10	1	-1E+10	1
4901784	111	C	07/19/2018	10:49	-132.236	43.132	0	225.10	0	7.5580	0	34.1210	8	26.651	0	223.190	0	147.4	4	50.5	4	-1E+10	1	-1E+10	1	-1E+10	1	-1E+10	1	-1E+10	1	-1E+10	1
4901784	111	C	07/19/2018	10:49	-132.236	43.132	0	227.50	0	7.5300	0	34.1210	8	26.655	0	225.568	0	146.1	4	50.1	4	-1E+10	1	-1E+10	1	-1E+10	1	-1E+10	1	-1E+10	1	-1E+10	1
4901784	111	C	07/19/2018	10:49	-132.236	43.132	0	230.10	0	7.4700	0	34.1200	8	26.663	0	228.144	0	144.8	4	49.5	4	-1E+10	1	-1E+10	1	-1E+10	1	-1E+10	1	-1E+10	1	-1E+10	1
4901784	111	C	07/19/2018	10:49	-132.236	43.132	0	232.50	0	7.4150	0	34.1220	8	26.673	0	230.523	0	143.8	4	49.1	4	-1E+10	1	-1E+10	1	-1E+10	1	-1E+10	1	-1E+10	1	-1E+10	1
4901784	111	C	07/19/2018	10:49	-132.236	43.132	0	235.00	0	7.3720	0	34.1210	8	26.678	0	233.000	0	142.8	4	48.8	4	-1E+10	1	-1E+10	1	-1E+10	1	-1E+10	1	-1E+10	1	-1E+10	1
4901784	111	C	07/19/2018	10:49	-132.236	43.132	0	237.50	0	7.3410	0	34.1200	8	26.682	0	235.477	0	141.9	4	48.4	4	-1E+10	1	-1E+10	1	-1E+10	1	-1E+10	1	-1E+10	1	-1E+10	1
4901784	111	C	07/19/2018	10:49	-132.236	43.132	0	239.90	0	7.3180	0	34.1180	8	26.683	0	237.855	0	141.2	4	48.1	4	-1E+10	1	-1E+10	1	-1E+10	1	-1E+10	1	-1E+10	1	-1E+10	1
4901784	111	C	07/19/2018	10:49	-132.236	43.132	0	242.40	0	7.2680	0	34.1230	8	26.694	0	240.333	0	140.3	4	47.8	4	-1E+10	1	-1E+10	1	-1E+10	1	-1E+10	1	-1E+10	1	-1E+10	1
4901784	111	C	07/19/2018	10:49	-132.236	43.132	0	244.90	0	7.2530	0	34.1210	8	26.695	0	242.810	0	139.0	4	47.3	4	-1E+10	1	-1E+10	1	-1E+10	1	-1E+10	1	-1E+10	1	-1E+10	1
4901784	111	C	07/19/2018	10:49	-132.236	43.132	0	247.40	0	7.2330	0	34.1190	8	26.696	0	245.287	0	137.3	4	46.7	4	-1E+10	1	-1E+10	1	-1E+10	1	-1E+10	1	-1E+10	1	-1E+10	1
4901784	111	C	07/19/2018	10:49	-132.236	43.132	0	249.90	0	7.1660	0	34.1180	8	26.705	0	247.764	0	135.3	4	46.0	4	-1E+10	1	-1E+10	1	-1E+10	1	-1E+10	1	-1E+10	1	-1E+10	1
4901784	111	C	07/19/2018	10:49	-132.236	43.132	0	252.30	0	7.0900	0	34.1190	8	26.716	0	250.142	0	133.5	4	45.3	4	-1E+10	1	-1E+10	1	-1E+10	1	-1E+10	1	-1E+10	1	-1E+10	1
4901784	111	C	07/19/2018	10:49	-132.236	43.132	0	254.80	0	7.0290	0	34.1180	8	26.723	0	252.619	0	132.3	4	44.8	4	-1E+10	1	-1E+10	1	-1E+10	1	-1E+10	1	-1E+10	1	-1E+10	1
4901784	111	C	07/19/2018	10:49	-132.236	43.132	0	257.40	0	6.9680	0	34.1160	8	26.730	0	255.196	0	131.7	4	44.6	4	-1E+10	1	-1E+10	1	-1E+10	1	-1E+10	1	-1E+10	1	-1E+10	1
4901784	111	C	07/19/2018	10:49	-132.236	43.132	0	259.80	0	6.9370	0	34.1180	8	26.736	0	257.573	0	131.1	4	44.3	4	-1E+10	1	-1E+10	1	-1E+10	1	-1E+10	1	-1E+10	1	-1E+10	1
4901784	111	C	07/19/2018	10:49	-132.236	43.132	0	262.40	0	6.9300	0	34.1150	8	26.735	0	260.150	0	130.4	4	44.1	4	-1E+10	1	-1E+10	1	-1E+10	1	-1E+10	1	-1E+10	1	-1E+10	1
4901784	111	C	07/19/2018	10:49	-132.236	43.132	0	264.90	0	6.9050	0	34.1140	8	26.737	0	262.627	0	129.4	4	43.7	4	-1E+10	1	-1E+10	1	-1E+10	1	-1E+10	1	-1E+10	1	-1E+10	1
4901784	111	C	07/19/2018	10:49	-132.236	43.132	0	267.40	0	6.8630	0	34.1140	8	26.743	0	265.104	0	128.2	4	43.3	4	-1E+10	1	-1E+10	1	-1E+10	1	-1E+10	1	-1E+10	1	-1E+10	1
4901784	111	C	07/19/2018	10:49	-132.236	43.132	0	270.00	0	6.8050	0	34.1140	8	26.751	0	267.679	0	126.8	4	42.7	4	-1E+10	1	-1E+10	1	-1E+10	1	-1E+10	1	-1E+10	1	-1E+10	1
4901784	111	C	07/19/2018	10:49	-132.236	43.132	0	272.60	0	6.7410	0	34.1140	8	26.760	0	270.255	0	125.3	4	42.2	4	-1E+10	1	-1E+10	1	-1E+10	1	-1E+10	1	-1E+10	1	-1E+10	1
4901784	111	C	07/19/2018	10:49	-132.236	43.132	0	275.10	0	6.7030	0	34.1100	8	26.762	0	272.732	0	123.9	4	41.6	4	-1E+10	1	-1E+10	1	-1E+10	1	-1E+10	1	-1E+10	1	-1E+10	1
4901784	111	C	07/19/2018	10:49	-132.236	43.132	0	277.70	0	6.6420	0	34.1100	8	26.770	0	275.308	0	121.8	4	40.9	4	-1E+10	1	-1E+10	1	-1E+10	1	-1E+10	1	-1E+10	1	-1E+10	1
4901784	111	C	07/19/2018	10:49	-132.236	43.132	0	280.30	0	6.5620	0	34.1100	8	26.780	0	277.884	0	119.7	4	40.1	4	-1E+10	1	-1E+10	1	-1E+10	1	-1E+10	1	-1E+10	1	-1E+10	1
4901784	111	C	07/19/2018	10:49	-132.236	43.132	0	282.00	0	6.5230	0	34.1070	8	26.783	0	279.568	0	118.1	4	39.5	4	-1E+10	1	-1E+10	1	-1E+10	1	-1E+10	1	-1E+10	1	-1E+10	1
4901784	111	C	07/19/2018	10:49	-132.236	43.132	0	284.70	0	6.4460	0	34.1030	8	26.790	0	282.243	0	116.3	4	38.9	4	-1E+10	1	-1E+10	1	-1E+10	1	-1E+10	1	-1E+10	1	-1E+10	1
4901784	111	C	07/19/2018	10:49	-132.236	43.132	0	287.30	0	6.3870	0	34.1020	8	26.797	0	284.819	0	114.7	4	38.3	4	-1E+10	1	-1E+10	1	-1E+10	1	-1E+10	1	-1E+10	1	-1E+10	1
4901784	111	C	07/19/2018	10:49	-132.236	43.132	0	290.00	0	6.3450	0	34.1040	8	26.804	0	287.494	0	113.5	4	37.8	4	-1E+10	1	-1E+10	1	-1E+10	1	-1E+10	1	-1E+10	1	-1E+10	1
4901784	111	C	07/19/2018	10:49	-132.236	43.132	0	292.60	0	6.3060	0	34.1040	8	26.809	0	290.069	0	112.0	4	37.3	4	-1E+10	1	-1E+10	1	-1E+10	1	-1E+10	1	-1E+10	1	-1E+10	1
4901784	111	C	07/19/2018	10:49	-132.236	43.132	0	295.20	0	6.2770	0	34.1030	8	26.812	0	292.645	0	110.4	4	36.8	4	-1E+10	1	-1E+10	1	-1E+10	1	-1E+10	1	-1E+10	1	-1E+10	1
4901784	111	C	07/19/2018	10:49	-132.236	43.132	0	297.90	0	6.2360	0	34.1020	8	26.817	0	295.320	0	108.0	4	35.9	4	-1E+10	1	-1E+10	1	-1E+10	1	-1E+10	1	-1E+10	1	-1E+10	1
4901784	111	C	07/19/2018	10:49	-132.236	43.132	0	299.70	0	6.1670	0	34.1050	8	26.828	0	297.103	0	106.1	4	35.3	4	-1E+10	1	-1E+10	1	-1E+10	1	-1E+10	1	-1E+10	1	-1E+10	1
4901784	111	C	07/19/2018	10:49	-132.236	43.132	0	302.50	0	6.0900	0	34.1030	8	26.836	0	299.877	0	103.7	4	34.4	4	-1E+10	1	-1E+10	1	-1E+10	1	-1E+10	1	-1E+10	1	-1E+10	1
4901784	111	C	07/19/2018	10:49	-132.236	43.132	0	305.30	0	5.9950	0	34.1060	8	26.850	0	302.650	0	101.4	4	33.5	4	-1E+10	1	-1E+10	1	-1E+10	1	-1E+10	1	-1E+10	1	-1E+10	1
4901784	111	C	07/19/2018	10:49	-132.236	43.132	0	307.10	0	5.9900	0	34.1050	8	26.850	0	304.433	0	100.6	4	33.3	4	-1E+10	1	-1E+10	1	-1E+10	1	-1E+10	1	-1E+10	1	-1E+10	1
4901784	111	C	07/19/2018	10:49	-132.236	43.132	0	309.80	0	5.9670	0	34.1060	8	26.854	0	307.108	0	99.2	4	32.8	4	-1E+10	1	-1E+10	1	-1E+10	1	-1E+10	1	-1E+10	1	-1E+10	1
4901784	111	C	07/19/2018	10:49	-132.236	43.132	0	312.50	0	5.9380	0	34.1070	8	26.858	0	309.782	0	98.3	4	32.5	4	-1E+10	1	-1E+10	1	-1E+10	1	-1E+10	1	-1E+10	1	-1E+10	1
4901784	111	C	07/19/2018	10:49	-132.236	43.132	0	315.30	0	5.9340	0	34.1070	8	26.859	0	312.556	0	97.5	4	32.2	4	-1E+10	1	-1E+10	1	-1E+10	1	-1E+10	1	-1E+10	1	-1E+10	1
4901784	111	C	07/19/2018	10:49	-132.236	43.132	0	318.10	0	5.9240	0	34.1060	8	26.859	0	315.330	0	96.2	4	31.8	4	-1E+10	1	-1E+10	1	-1E+10	1	-1E+10	1	-1E+10	1	-1E+10	1
4901784	111	C	07/19/2018	10:49	-132.236	43.132	0	319.90	0	5.9130	0	34.1060	8	26.861	0	317.112	0	95.0	4	31.4	4	-1E+10	1	-1E+10	1	-1E+10	1	-1E+10	1	-1E+10	1	-1E+10	1
4901784	111	C	07/19/2018	10:49	-132.236	43.132	0	321.90	0	5.8830	0	34.1080	8	26.866	0	319.093	0	94.0	4	31.0	4	-1E+10	1	-1E+10	1	-1E+10	1	-1E+10	1	-1E+10	1	-1E+10	1
4901784	111	C	07/19/2018	10:49	-132.236	43.132	0	324.70	0	5.8410	0	34.1090	8	26.872	0	321.867	0	92.7	4	30.6	4	-1E+10	1	-1E+10	1	-1E+10	1	-1E+10	1	-1E+10	1	-1E+10	1
4901784	111	C	07/19/2018	10:49	-132.236	43.132	0	327.60	0	5.8150	0	34.1100	8	26.876	0	324.739	0	91.7	4	30.2	4	-1E+10	1	-1E+10	1	-1E+10	1	-1E+10	1	-1E+10	1	-1E+10	1
4901784	111	C	07/19/2018	10:49	-132.236	43.132	0	329.50	0	5.8050	0	34.1090	8	26.877	0	326.621	0	90.9	4	30.0	4	-1E+10	1	-1E+10	1	-1E+10	1	-1E+10	1	-1E+10	1	-1E+10	1
4901784	111	C	07/19/2018	10:49	-132.236	43.132	0	332.30	0	5.7700	0	34.1100	8	26.882	0	329.395	0	89.5	4	29.4	4	-1E+10	1	-1E+10	1	-1E+10	1	-1E+10	1	-1E+10	1	-1E+10	1
4901784	111	C	07/19/2018	10:49	-132.236	43.132	0	335.10	0	5.7250	0	34.1120	8	26.889	0	332.168	0	88.3	4	29.0	4	-1E+10	1	-1E+10	1	-1E+10	1	-1E+10	1	-1E+10	1	-1E+10	1
4901784	111	C	07/19/2018	10:49	-132.236	43.132	0	337.00	0	5.7090	0	34.1130	8	26.892	0	334.050	0	87.7	4	28.8	4	-1E+10	1	-1E+10	1	-1E+10	1	-1E+10	1	-1E+10	1	-1E+10	1
4901784	111	C	07/19/2018	10:49	-132.236	43.132	0	339.80	0	5.6700	0	34.1150	8	26.898	0	336.823	0	87.2	4	28.6	4	-1E+10	1	-1E+10	1	-1E+10	1	-1E+10	1	-1E+10	1	-1E+10	1
4901784	111	C	07/19/2018	10:49	-132.236	43.132	0	342.70	0	5.6660	0	34.1140	8	26.898	0	339.695	0	86.9	4	28.5	4	-1E+10	1	-1E+10	1	-1E+10	1	-1E+10	1	-1E+10	1	-1E+10	1
4901784	111	C	07/19/2018	10:49	-132.236	43.132	0	344.60	0	5.6560	0	34.1150	8	26.900	0	341.577	0	86.6	4	28.4	4	-1E+10	1	-1E+10	1	-1E+10	1	-1E+10	1	-1E+10	1	-1E+10	1
4901784	111	C	07/19/2018	10:49	-132.236	43.132	0	347.50	0	5.6410	0	34.1140	8	26.901	0	344.449	0	86.3	4	28.3	4	-1E+10	1	-1E+10	1	-1E+10	1	-1E+10	1	-1E+10	1	-1E+10	1
4901784	111	C	07/19/2018	10:49	-132.236	43.132	0	350.80	0	5.6210	0	34.1130	8	26.902	0	347.717	0	86.0	4	28.2	4	-1E+10	1	-1E+10	1	-1E+10	1	-1E+10	1	-1E+10	1	-1E+10	1
4901784	111	C	07/19/2018	10:49	-132.236	43.132	0	352.20	0	5.6120	0	34.1130	8	26.903	0	349.104	0	85.6	4	28.1	4	-1E+10	1	-1E+10	1	-1E+10	1	-1E+10	1	-1E+10	1	-1E+10	1
4901784	111	C	07/19/2018	10:49	-132.236	43.132	0	355.40	0	5.5740	0	34.1110	8	26.907	0	352.273	0	84.3	4	27.6	4	-1E+10	1	-1E+10	1	-1E+10	1	-1E+10	1	-1E+10	1	-1E+10	1
4901784	111	C	07/19/2018	10:49	-132.236	43.132	0	357.70	0	5.5080	0	34.1130	8	26.916	0	354.551	0	82.9	4	27.1	4	-1E+10	1	-1E+10	1	-1E+10	1	-1E+10	1	-1E+10	1	-1E+10	1
4901784	111	C	07/19/2018	10:49	-132.236	43.132	0	360.10	0	5.4800	0	34.1150	8	26.921	0	356.928	0	81.9	4	26.8	4	-1E+10	1	-1E+10	1	-1E+10	1	-1E+10	1	-1E+10	1	-1E+10	1
4901784	111	C	07/19/2018	10:49	-132.236	43.132	0	362.50	0	5.4580	0	34.1160	8	26.924	0	359.304	0	80.7	4	26.4	4	-1E+10	1	-1E+10	1	-1E+10	1	-1E+10	1	-1E+10	1	-1E+10	1
4901784	111	C	07/19/2018	10:49	-132.236	43.132	0	364.90	0	5.4290	0	34.1200	8	26.931	0	361.681	0	80.0	4	26.1	4	-1E+10	1	-1E+10	1	-1E+10	1	-1E+10	1	-1E+10	1	-1E+10	1
4901784	111	C	07/19/2018	10:49	-132.236	43.132	0	367.40	0	5.4170	0	34.1190	8	26.932	0	364.157	0	79.5	4	26.0	4	-1E+10	1	-1E+10	1	-1E+10	1	-1E+10	1	-1E+10	1	-1E+10	1
4901784	111	C	07/19/2018	10:49	-132.236	43.132	0	369.90	0	5.4010	0	34.1200	8	26.934	0	366.633	0	78.8	4	25.7	4	-1E+10	1	-1E+10	1	-1E+10	1	-1E+10	1	-1E+10	1	-1E+10	1
4901784	111	C	07/19/2018	10:49	-132.236	43.132	0	372.40	0	5.3750	0	34.1190	8	26.937	0	369.108	0	78.0	4	25.4	4	-1E+10	1	-1E+10	1	-1E+10	1	-1E+10	1	-1E+10	1	-1E+10	1
4901784	111	C	07/19/2018	10:49	-132.236	43.132	0	374.90	0	5.3600	0	34.1220	8	26.941	0	371.584	0	77.3	4	25.2	4	-1E+10	1	-1E+10	1	-1E+10	1	-1E+10	1	-1E+10	1	-1E+10	1
4901784	111	C	07/19/2018	10:49	-132.236	43.132	0	377.40	0	5.3470	0	34.1220	8	26.942	0	374.060	0	76.6	4	25.0	4	-1E+10	1	-1E+10	1	-1E+10	1	-1E+10	1	-1E+10	1	-1E+10	1
4901784	111	C	07/19/2018	10:49	-132.236	43.132	0	379.90	0	5.3300	0	34.1230	8	26.945	0	376.535	0	75.8	4	24.7	4	-1E+10	1	-1E+10	1	-1E+10	1	-1E+10	1	-1E+10	1	-1E+10	1
4901784	111	C	07/19/2018	10:49	-132.236	43.132	0	382.40	0	5.3110	0	34.1250	8	26.949	0	379.011	0	75.2	4	24.5	4	-1E+10	1	-1E+10	1	-1E+10	1	-1E+10	1	-1E+10	1	-1E+10	1
4901784	111	C	07/19/2018	10:49	-132.236	43.132	0	384.90	0	5.3010	0	34.1240	8	26.950	0	381.486	0	74.5	4	24.3	4	-1E+10	1	-1E+10	1	-1E+10	1	-1E+10	1	-1E+10	1	-1E+10	1
4901784	111	C	07/19/2018	10:49	-132.236	43.132	0	387.50	0	5.2810	0	34.1260	8	26.953	0	384.061	0	73.8	4	24.0	4	-1E+10	1	-1E+10	1	-1E+10	1	-1E+10	1	-1E+10	1	-1E+10	1
4901784	111	C	07/19/2018	10:49	-132.236	43.132	0	390.00	0	5.2620	0	34.1270	8	26.957	0	386.536	0	73.1	4	23.8	4	-1E+10	1	-1E+10	1	-1E+10	1	-1E+10	1	-1E+10	1	-1E+10	1
4901784	111	C	07/19/2018	10:49	-132.236	43.132	0	392.50	0	5.2440	0	34.1270	8	26.959	0	389.012	0	72.5	4	23.6	4	-1E+10	1	-1E+10	1	-1E+10	1	-1E+10	1	-1E+10	1	-1E+10	1
4901784	111	C	07/19/2018	10:49	-132.236	43.132	0	395.00	0	5.2250	0	34.1280	8	26.962	0	391.487	0	71.6	4	23.3	4	-1E+10	1	-1E+10	1	-1E+10	1	-1E+10	1	-1E+10	1	-1E+10	1
4901784	111	C	07/19/2018	10:49	-132.236	43.132	0	397.40	0	5.1930	0	34.1300	8	26.967	0	393.864	0	70.9	4	23.0	4	-1E+10	1	-1E+10	1	-1E+10	1	-1E+10	1	-1E+10	1	-1E+10	1
4901784	111	C	07/19/2018	10:49	-132.236	43.132	0	400.00	0	5.1740	0	34.1330	8	26.972	0	396.438	0	70.2	4	22.8	4	-1E+10	1	-1E+10	1	-1E+10	1	-1E+10	1	-1E+10	1	-1E+10	1
4901784	111	C	07/19/2018	10:49	-132.236	43.132	0	402.60	0	5.1690	0	34.1320	8	26.971	0	399.012	0	69.6	4	22.6	4	-1E+10	1	-1E+10	1	-1E+10	1	-1E+10	1	-1E+10	1	-1E+10	1
4901784	111	C	07/19/2018	10:49	-132.236	43.132	0	405.20	0	5.1500	0	34.1330	8	26.974	0	401.587	0	69.0	4	22.4	4	-1E+10	1	-1E+10	1	-1E+10	1	-1E+10	1	-1E+10	1	-1E+10	1
4901784	111	C	07/19/2018	10:49	-132.236	43.132	0	407.80	0	5.1270	0	34.1350	8	26.979	0	404.161	0	68.5	4	22.2	4	-1E+10	1	-1E+10	1	-1E+10	1	-1E+10	1	-1E+10	1	-1E+10	1
4901784	111	C	07/19/2018	10:49	-132.236	43.132	0	410.30	0	5.1070	0	34.1360	8	26.982	0	406.636	0	68.2	4	22.1	4	-1E+10	1	-1E+10	1	-1E+10	1	-1E+10	1	-1E+10	1	-1E+10	1
4901784	111	C	07/19/2018	10:49	-132.236	43.132	0	412.90	0	5.0940	0	34.1360	8	26.983	0	409.210	0	68.0	4	22.0	4	-1E+10	1	-1E+10	1	-1E+10	1	-1E+10	1	-1E+10	1	-1E+10	1
4901784	111	C	07/19/2018	10:49	-132.236	43.132	0	415.40	0	5.0690	0	34.1380	8	26.988	0	411.685	0	67.9	4	22.0	4	-1E+10	1	-1E+10	1	-1E+10	1	-1E+10	1	-1E+10	1	-1E+10	1
4901784	111	C	07/19/2018	10:49	-132.236	43.132	0	417.90	0	5.0290	0	34.1360	8	26.991	0	414.161	0	68.1	4	22.0	4	-1E+10	1	-1E+10	1	-1E+10	1	-1E+10	1	-1E+10	1	-1E+10	1
4901784	111	C	07/19/2018	10:49	-132.236	43.132	0	419.60	0	5.0240	0	34.1350	8	26.991	0	415.844	0	68.0	4	22.0	4	-1E+10	1	-1E+10	1	-1E+10	1	-1E+10	1	-1E+10	1	-1E+10	1
4901784	111	C	07/19/2018	10:49	-132.236	43.132	0	422.20	0	5.0030	0	34.1330	8	26.991	0	418.418	0	68.0	4	22.0	4	-1E+10	1	-1E+10	1	-1E+10	1	-1E+10	1	-1E+10	1	-1E+10	1
4901784	111	C	07/19/2018	10:49	-132.236	43.132	0	424.70	0	4.9810	0	34.1320	8	26.993	0	420.893	0	67.6	4	21.8	4	-1E+10	1	-1E+10	1	-1E+10	1	-1E+10	1	-1E+10	1	-1E+10	1
4901784	111	C	07/19/2018	10:49	-132.236	43.132	0	427.30	0	4.9400	0	34.1330	8	26.999	0	423.467	0	66.8	4	21.6	4	-1E+10	1	-1E+10	1	-1E+10	1	-1E+10	1	-1E+10	1	-1E+10	1
4901784	111	C	07/19/2018	10:49	-132.236	43.132	0	429.80	0	4.9030	0	34.1350	8	27.004	0	425.942	0	66.1	4	21.3	4	-1E+10	1	-1E+10	1	-1E+10	1	-1E+10	1	-1E+10	1	-1E+10	1
4901784	111	C	07/19/2018	10:49	-132.236	43.132	0	432.30	0	4.8820	0	34.1370	8	27.008	0	428.417	0	65.0	4	21.0	4	-1E+10	1	-1E+10	1	-1E+10	1	-1E+10	1	-1E+10	1	-1E+10	1
4901784	111	C	07/19/2018	10:49	-132.236	43.132	0	434.80	0	4.8610	0	34.1410	8	27.014	0	430.892	0	64.0	4	20.6	4	-1E+10	1	-1E+10	1	-1E+10	1	-1E+10	1	-1E+10	1	-1E+10	1
4901784	111	C	07/19/2018	10:49	-132.236	43.132	0	437.30	0	4.8500	0	34.1430	8	27.017	0	433.367	0	63.2	4	20.4	4	-1E+10	1	-1E+10	1	-1E+10	1	-1E+10	1	-1E+10	1	-1E+10	1
4901784	111	C	07/19/2018	10:49	-132.236	43.132	0	439.70	0	4.8300	0	34.1450	8	27.021	0	435.743	0	62.3	4	20.1	4	-1E+10	1	-1E+10	1	-1E+10	1	-1E+10	1	-1E+10	1	-1E+10	1
4901784	111	C	07/19/2018	10:49	-132.236	43.132	0	442.30	0	4.8050	0	34.1490	8	27.027	0	438.317	0	61.5	4	19.8	4	-1E+10	1	-1E+10	1	-1E+10	1	-1E+10	1	-1E+10	1	-1E+10	1
4901784	111	C	07/19/2018	10:49	-132.236	43.132	0	444.90	0	4.7870	0	34.1500	8	27.029	0	440.890	0	60.7	4	19.5	4	-1E+10	1	-1E+10	1	-1E+10	1	-1E+10	1	-1E+10	1	-1E+10	1
4901784	111	C	07/19/2018	10:49	-132.236	43.132	0	447.50	0	4.7610	0	34.1540	8	27.036	0	443.464	0	60.0	4	19.3	4	-1E+10	1	-1E+10	1	-1E+10	1	-1E+10	1	-1E+10	1	-1E+10	1
4901784	111	C	07/19/2018	10:49	-132.236	43.132	0	450.00	0	4.7450	0	34.1550	8	27.038	0	445.939	0	59.5	4	19.1	4	-1E+10	1	-1E+10	1	-1E+10	1	-1E+10	1	-1E+10	1	-1E+10	1
4901784	111	C	07/19/2018	10:49	-132.236	43.132	0	452.60	0	4.7420	0	34.1550	8	27.038	0	448.513	0	59.0	4	18.9	4	-1E+10	1	-1E+10	1	-1E+10	1	-1E+10	1	-1E+10	1	-1E+10	1
4901784	111	C	07/19/2018	10:49	-132.236	43.132	0	455.10	0	4.7360	0	34.1560	8	27.040	0	450.987	0	58.3	4	18.7	4	-1E+10	1	-1E+10	1	-1E+10	1	-1E+10	1	-1E+10	1	-1E+10	1
4901784	111	C	07/19/2018	10:49	-132.236	43.132	0	457.60	0	4.7210	0	34.1590	8	27.044	0	453.462	0	57.4	4	18.4	4	-1E+10	1	-1E+10	1	-1E+10	1	-1E+10	1	-1E+10	1	-1E+10	1
4901784	111	C	07/19/2018	10:49	-132.236	43.132	0	460.20	0	4.7080	0	34.1610	8	27.047	0	456.036	0	56.7	4	18.2	4	-1E+10	1	-1E+10	1	-1E+10	1	-1E+10	1	-1E+10	1	-1E+10	1
4901784	111	C	07/19/2018	10:49	-132.236	43.132	0	462.70	0	4.6920	0	34.1640	8	27.051	0	458.510	0	55.9	4	18.0	4	-1E+10	1	-1E+10	1	-1E+10	1	-1E+10	1	-1E+10	1	-1E+10	1
4901784	111	C	07/19/2018	10:49	-132.236	43.132	0	465.30	0	4.6780	0	34.1660	8	27.054	0	461.084	0	55.1	4	17.7	4	-1E+10	1	-1E+10	1	-1E+10	1	-1E+10	1	-1E+10	1	-1E+10	1
4901784	111	C	07/19/2018	10:49	-132.236	43.132	0	467.90	0	4.6630	0	34.1690	8	27.058	0	463.657	0	54.4	4	17.4	4	-1E+10	1	-1E+10	1	-1E+10	1	-1E+10	1	-1E+10	1	-1E+10	1
4901784	111	C	07/19/2018	10:49	-132.236	43.132	0	470.50	0	4.6470	0	34.1720	8	27.063	0	466.231	0	53.6	4	17.2	4	-1E+10	1	-1E+10	1	-1E+10	1	-1E+10	1	-1E+10	1	-1E+10	1
4901784	111	C	07/19/2018	10:49	-132.236	43.132	0	472.20	0	4.6370	0	34.1740	8	27.065	0	467.914	0	53.0	4	17.0	4	-1E+10	1	-1E+10	1	-1E+10	1	-1E+10	1	-1E+10	1	-1E+10	1
4901784	111	C	07/19/2018	10:49	-132.236	43.132	0	474.80	0	4.6280	0	34.1760	8	27.068	0	470.487	0	52.4	4	16.8	4	-1E+10	1	-1E+10	1	-1E+10	1	-1E+10	1	-1E+10	1	-1E+10	1
4901784	111	C	07/19/2018	10:49	-132.236	43.132	0	477.40	0	4.6140	0	34.1790	8	27.072	0	473.060	0	51.7	4	16.6	4	-1E+10	1	-1E+10	1	-1E+10	1	-1E+10	1	-1E+10	1	-1E+10	1
4901784	111	C	07/19/2018	10:49	-132.236	43.132	0	480.00	0	4.6040	0	34.1820	8	27.075	0	475.634	0	51.0	4	16.3	4	-1E+10	1	-1E+10	1	-1E+10	1	-1E+10	1	-1E+10	1	-1E+10	1
4901784	111	C	07/19/2018	10:49	-132.236	43.132	0	482.50	0	4.5950	0	34.1840	8	27.078	0	478.108	0	50.5	4	16.2	4	-1E+10	1	-1E+10	1	-1E+10	1	-1E+10	1	-1E+10	1	-1E+10	1
4901784	111	C	07/19/2018	10:49	-132.236	43.132	0	485.10	0	4.5890	0	34.1860	8	27.080	0	480.682	0	49.9	4	16.0	4	-1E+10	1	-1E+10	1	-1E+10	1	-1E+10	1	-1E+10	1	-1E+10	1
4901784	111	C	07/19/2018	10:49	-132.236	43.132	0	487.70	0	4.5860	0	34.1870	8	27.081	0	483.255	0	49.3	4	15.8	4	-1E+10	1	-1E+10	1	-1E+10	1	-1E+10	1	-1E+10	1	-1E+10	1
4901784	111	C	07/19/2018	10:49	-132.236	43.132	0	490.40	0	4.5810	0	34.1890	8	27.083	0	485.927	0	48.7	4	15.6	4	-1E+10	1	-1E+10	1	-1E+10	1	-1E+10	1	-1E+10	1	-1E+10	1
4901784	111	C	07/19/2018	10:49	-132.236	43.132	0	492.90	0	4.5690	0	34.1930	8	27.088	0	488.401	0	47.9	4	15.3	4	-1E+10	1	-1E+10	1	-1E+10	1	-1E+10	1	-1E+10	1	-1E+10	1
4901784	111	C	07/19/2018	10:49	-132.236	43.132	0	494.60	0	4.5650	0	34.1940	8	27.089	0	490.084	0	47.4	4	15.2	4	-1E+10	1	-1E+10	1	-1E+10	1	-1E+10	1	-1E+10	1	-1E+10	1
4901784	111	C	07/19/2018	10:49	-132.236	43.132	0	497.30	0	4.5590	0	34.1970	8	27.092	0	492.756	0	46.7	4	14.9	4	-1E+10	1	-1E+10	1	-1E+10	1	-1E+10	1	-1E+10	1	-1E+10	1
4901784	111	C	07/19/2018	10:49	-132.236	43.132	0	499.90	0	4.5540	0	34.2010	8	27.096	0	495.329	0	45.9	4	14.7	4	-1E+10	1	-1E+10	1	-1E+10	1	-1E+10	1	-1E+10	1	-1E+10	1
4901784	111	C	07/19/2018	10:49	-132.236	43.132	0	505.20	0	4.5430	0	34.2040	8	27.100	0	500.574	0	44.5	4	14.2	4	-1E+10	1	-1E+10	1	-1E+10	1	-1E+10	1	-1E+10	1	-1E+10	1
4901784	111	C	07/19/2018	10:49	-132.236	43.132	0	510.60	0	4.5250	0	34.2120	8	27.108	0	505.918	0	42.4	4	13.6	4	-1E+10	1	-1E+10	1	-1E+10	1	-1E+10	1	-1E+10	1	-1E+10	1
4901784	111	C	07/19/2018	10:49	-132.236	43.132	0	515.10	0	4.5040	0	34.2210	8	27.117	0	510.371	0	41.1	4	13.1	4	-1E+10	1	-1E+10	1	-1E+10	1	-1E+10	1	-1E+10	1	-1E+10	1
4901784	111	C	07/19/2018	10:49	-132.236	43.132	0	519.70	0	4.4970	0	34.2230	8	27.120	0	514.924	0	40.0	4	12.8	4	-1E+10	1	-1E+10	1	-1E+10	1	-1E+10	1	-1E+10	1	-1E+10	1
4901784	111	C	07/19/2018	10:49	-132.236	43.132	0	525.10	0	4.4830	0	34.2290	8	27.126	0	520.267	0	38.3	4	12.2	4	-1E+10	1	-1E+10	1	-1E+10	1	-1E+10	1	-1E+10	1	-1E+10	1
4901784	111	C	07/19/2018	10:49	-132.236	43.132	0	530.60	0	4.4610	0	34.2370	8	27.135	0	525.710	0	36.7	4	11.7	4	-1E+10	1	-1E+10	1	-1E+10	1	-1E+10	1	-1E+10	1	-1E+10	1
4901784	111	C	07/19/2018	10:49	-132.236	43.132	0	535.20	0	4.4600	0	34.2440	8	27.141	0	530.261	0	35.4	4	11.3	4	-1E+10	1	-1E+10	1	-1E+10	1	-1E+10	1	-1E+10	1	-1E+10	1
4901784	111	C	07/19/2018	10:49	-132.236	43.132	0	539.80	0	4.4490	0	34.2480	8	27.145	0	534.813	0	34.5	4	11.0	4	-1E+10	1	-1E+10	1	-1E+10	1	-1E+10	1	-1E+10	1	-1E+10	1
4901784	111	C	07/19/2018	10:49	-132.236	43.132	0	544.40	0	4.4390	0	34.2520	8	27.149	0	539.365	0	33.6	4	10.7	4	-1E+10	1	-1E+10	1	-1E+10	1	-1E+10	1	-1E+10	1	-1E+10	1
4901784	111	C	07/19/2018	10:49	-132.236	43.132	0	549.20	0	4.4370	0	34.2570	8	27.154	0	544.114	0	32.7	4	10.5	4	-1E+10	1	-1E+10	1	-1E+10	1	-1E+10	1	-1E+10	1	-1E+10	1
4901784	111	C	07/19/2018	10:49	-132.236	43.132	0	554.60	0	4.4260	0	34.2630	8	27.160	0	549.457	0	31.9	4	10.2	4	-1E+10	1	-1E+10	1	-1E+10	1	-1E+10	1	-1E+10	1	-1E+10	1
4901784	111	C	07/19/2018	10:49	-132.236	43.132	0	559.40	0	4.4180	0	34.2660	8	27.163	0	554.206	0	31.6	4	10.1	4	-1E+10	1	-1E+10	1	-1E+10	1	-1E+10	1	-1E+10	1	-1E+10	1
4901784	111	C	07/19/2018	10:49	-132.236	43.132	0	564.30	0	4.4130	0	34.2660	8	27.163	0	559.054	0	31.2	4	10.0	4	-1E+10	1	-1E+10	1	-1E+10	1	-1E+10	1	-1E+10	1	-1E+10	1
4901784	111	C	07/19/2018	10:49	-132.236	43.132	0	569.30	0	4.4030	0	34.2680	8	27.166	0	564.000	0	30.4	4	9.7	4	-1E+10	1	-1E+10	1	-1E+10	1	-1E+10	1	-1E+10	1	-1E+10	1
4901784	111	C	07/19/2018	10:49	-132.236	43.132	0	574.40	0	4.3670	0	34.2740	8	27.175	0	569.046	0	29.1	4	9.3	4	-1E+10	1	-1E+10	1	-1E+10	1	-1E+10	1	-1E+10	1	-1E+10	1
4901784	111	C	07/19/2018	10:49	-132.236	43.132	0	579.50	0	4.3490	0	34.2820	8	27.183	0	574.091	0	28.0	4	8.9	4	-1E+10	1	-1E+10	1	-1E+10	1	-1E+10	1	-1E+10	1	-1E+10	1
4901784	111	C	07/19/2018	10:49	-132.236	43.132	0	584.60	0	4.3600	0	34.2860	8	27.185	0	579.137	0	27.0	4	8.6	4	-1E+10	1	-1E+10	1	-1E+10	1	-1E+10	1	-1E+10	1	-1E+10	1
4901784	111	C	07/19/2018	10:49	-132.236	43.132	0	589.60	0	4.3520	0	34.2950	8	27.193	0	584.083	0	26.0	4	8.3	4	-1E+10	1	-1E+10	1	-1E+10	1	-1E+10	1	-1E+10	1	-1E+10	1
4901784	111	C	07/19/2018	10:49	-132.236	43.132	0	594.70	0	4.3450	0	34.2980	8	27.196	0	589.128	0	25.3	4	8.1	4	-1E+10	1	-1E+10	1	-1E+10	1	-1E+10	1	-1E+10	1	-1E+10	1
4901784	111	C	07/19/2018	10:49	-132.236	43.132	0	599.70	0	4.3450	0	34.3010	8	27.199	0	594.074	0	24.5	4	7.8	4	-1E+10	1	-1E+10	1	-1E+10	1	-1E+10	1	-1E+10	1	-1E+10	1
4901784	111	C	07/19/2018	10:49	-132.236	43.132	0	604.90	0	4.3410	0	34.3080	8	27.205	0	599.218	0	23.3	4	7.4	4	-1E+10	1	-1E+10	1	-1E+10	1	-1E+10	1	-1E+10	1	-1E+10	1
4901784	111	C	07/19/2018	10:49	-132.236	43.132	0	610.10	0	4.3180	0	34.3150	8	27.213	0	604.361	0	23.0	4	7.3	4	-1E+10	1	-1E+10	1	-1E+10	1	-1E+10	1	-1E+10	1	-1E+10	1
4901784	111	C	07/19/2018	10:49	-132.236	43.132	0	615.20	0	4.2670	0	34.3140	8	27.217	0	609.406	0	23.4	4	7.5	4	-1E+10	1	-1E+10	1	-1E+10	1	-1E+10	1	-1E+10	1	-1E+10	1
4901784	111	C	07/19/2018	10:49	-132.236	43.132	0	620.50	0	4.1850	0	34.3140	8	27.226	0	614.648	0	23.6	4	7.5	4	-1E+10	1	-1E+10	1	-1E+10	1	-1E+10	1	-1E+10	1	-1E+10	1
4901784	111	C	07/19/2018	10:49	-132.236	43.132	0	624.90	0	4.1750	0	34.3170	8	27.230	0	619.000	0	23.1	4	7.3	4	-1E+10	1	-1E+10	1	-1E+10	1	-1E+10	1	-1E+10	1	-1E+10	1
4901784	111	C	07/19/2018	10:49	-132.236	43.132	0	629.40	0	4.1700	0	34.3200	8	27.232	0	623.451	0	22.6	4	7.2	4	-1E+10	1	-1E+10	1	-1E+10	1	-1E+10	1	-1E+10	1	-1E+10	1
4901784	111	C	07/19/2018	10:49	-132.236	43.132	0	634.60	0	4.1570	0	34.3250	8	27.238	0	628.594	0	22.0	4	7.0	4	-1E+10	1	-1E+10	1	-1E+10	1	-1E+10	1	-1E+10	1	-1E+10	1
4901784	111	C	07/19/2018	10:49	-132.236	43.132	0	639.80	0	4.1410	0	34.3290	8	27.243	0	633.737	0	21.3	4	6.7	4	-1E+10	1	-1E+10	1	-1E+10	1	-1E+10	1	-1E+10	1	-1E+10	1
4901784	111	C	07/19/2018	10:49	-132.236	43.132	0	645.10	0	4.1540	0	34.3370	8	27.248	0	638.979	0	20.3	4	6.4	4	-1E+10	1	-1E+10	1	-1E+10	1	-1E+10	1	-1E+10	1	-1E+10	1
4901784	111	C	07/19/2018	10:49	-132.236	43.132	0	650.40	0	4.1610	0	34.3410	8	27.250	0	644.220	0	19.4	4	6.2	4	-1E+10	1	-1E+10	1	-1E+10	1	-1E+10	1	-1E+10	1	-1E+10	1
4901784	111	C	07/19/2018	10:49	-132.236	43.132	0	655.60	0	4.1730	0	34.3490	8	27.255	0	649.363	0	18.5	4	5.9	4	-1E+10	1	-1E+10	1	-1E+10	1	-1E+10	1	-1E+10	1	-1E+10	1
4901784	111	C	07/19/2018	10:49	-132.236	43.132	0	660.00	0	4.1750	0	34.3550	8	27.260	0	653.714	0	17.8	4	5.6	4	-1E+10	1	-1E+10	1	-1E+10	1	-1E+10	1	-1E+10	1	-1E+10	1
4901784	111	C	07/19/2018	10:49	-132.236	43.132	0	664.50	0	4.1790	0	34.3650	8	27.268	0	658.164	0	17.2	4	5.5	4	-1E+10	1	-1E+10	1	-1E+10	1	-1E+10	1	-1E+10	1	-1E+10	1
4901784	111	C	07/19/2018	10:49	-132.236	43.132	0	669.80	0	4.1750	0	34.3680	8	27.270	0	663.405	0	17.0	4	5.4	4	-1E+10	1	-1E+10	1	-1E+10	1	-1E+10	1	-1E+10	1	-1E+10	1
4901784	111	C	07/19/2018	10:49	-132.236	43.132	0	675.20	0	4.1650	0	34.3690	8	27.272	0	668.745	0	16.9	4	5.4	4	-1E+10	1	-1E+10	1	-1E+10	1	-1E+10	1	-1E+10	1	-1E+10	1
4901784	111	C	07/19/2018	10:49	-132.236	43.132	0	680.60	0	4.1550	0	34.3710	8	27.275	0	674.084	0	16.9	4	5.4	4	-1E+10	1	-1E+10	1	-1E+10	1	-1E+10	1	-1E+10	1	-1E+10	1
4901784	111	C	07/19/2018	10:49	-132.236	43.132	0	685.10	0	4.1520	0	34.3720	8	27.276	0	678.534	0	16.9	4	5.4	4	-1E+10	1	-1E+10	1	-1E+10	1	-1E+10	1	-1E+10	1	-1E+10	1
4901784	111	C	07/19/2018	10:49	-132.236	43.132	0	689.60	0	4.1020	0	34.3700	8	27.280	0	682.983	0	17.4	4	5.5	4	-1E+10	1	-1E+10	1	-1E+10	1	-1E+10	1	-1E+10	1	-1E+10	1
4901784	111	C	07/19/2018	10:49	-132.236	43.132	0	695.10	0	4.0430	0	34.3670	8	27.284	0	688.422	0	17.7	4	5.6	4	-1E+10	1	-1E+10	1	-1E+10	1	-1E+10	1	-1E+10	1	-1E+10	1
4901784	111	C	07/19/2018	10:49	-132.236	43.132	0	700.50	0	4.0250	0	34.3680	8	27.286	0	693.761	0	17.4	4	5.5	4	-1E+10	1	-1E+10	1	-1E+10	1	-1E+10	1	-1E+10	1	-1E+10	1
4901784	111	C	07/19/2018	10:49	-132.236	43.132	0	705.20	0	4.0190	0	34.3740	8	27.292	0	698.408	0	16.9	4	5.3	4	-1E+10	1	-1E+10	1	-1E+10	1	-1E+10	1	-1E+10	1	-1E+10	1
4901784	111	C	07/19/2018	10:49	-132.236	43.132	0	709.70	0	4.0250	0	34.3780	8	27.294	0	702.857	0	16.4	4	5.2	4	-1E+10	1	-1E+10	1	-1E+10	1	-1E+10	1	-1E+10	1	-1E+10	1
4901784	111	C	07/19/2018	10:49	-132.236	43.132	0	715.20	0	4.0310	0	34.3830	8	27.298	0	708.294	0	16.0	4	5.1	4	-1E+10	1	-1E+10	1	-1E+10	1	-1E+10	1	-1E+10	1	-1E+10	1
4901784	111	C	07/19/2018	10:49	-132.236	43.132	0	720.60	0	3.9970	0	34.3870	8	27.304	0	713.633	0	15.7	4	5.0	4	-1E+10	1	-1E+10	1	-1E+10	1	-1E+10	1	-1E+10	1	-1E+10	1
4901784	111	C	07/19/2018	10:49	-132.236	43.132	0	725.20	0	3.9830	0	34.3890	8	27.307	0	718.181	0	15.2	4	4.8	4	-1E+10	1	-1E+10	1	-1E+10	1	-1E+10	1	-1E+10	1	-1E+10	1
4901784	111	C	07/19/2018	10:49	-132.236	43.132	0	729.70	0	4.0240	0	34.3990	8	27.311	0	722.629	0	14.8	4	4.7	4	-1E+10	1	-1E+10	1	-1E+10	1	-1E+10	1	-1E+10	1	-1E+10	1
4901784	111	C	07/19/2018	10:49	-132.236	43.132	0	735.10	0	4.0080	0	34.4020	8	27.315	0	727.967	0	14.6	4	4.6	4	-1E+10	1	-1E+10	1	-1E+10	1	-1E+10	1	-1E+10	1	-1E+10	1
4901784	111	C	07/19/2018	10:49	-132.236	43.132	0	740.60	0	3.9590	0	34.4040	8	27.322	0	733.404	0	14.9	4	4.7	4	-1E+10	1	-1E+10	1	-1E+10	1	-1E+10	1	-1E+10	1	-1E+10	1
4901784	111	C	07/19/2018	10:49	-132.236	43.132	0	745.10	0	3.9200	0	34.4000	8	27.323	0	737.853	0	14.9	4	4.7	4	-1E+10	1	-1E+10	1	-1E+10	1	-1E+10	1	-1E+10	1	-1E+10	1
4901784	111	C	07/19/2018	10:49	-132.236	43.132	0	749.70	0	3.9200	0	34.4040	8	27.326	0	742.400	0	14.6	4	4.6	4	-1E+10	1	-1E+10	1	-1E+10	1	-1E+10	1	-1E+10	1	-1E+10	1
4901784	111	C	07/19/2018	10:49	-132.236	43.132	0	755.20	0	3.9200	0	34.4090	8	27.330	0	747.836	0	14.2	4	4.5	4	-1E+10	1	-1E+10	1	-1E+10	1	-1E+10	1	-1E+10	1	-1E+10	1
4901784	111	C	07/19/2018	10:49	-132.236	43.132	0	759.90	0	3.9180	0	34.4150	8	27.335	0	752.482	0	13.9	4	4.4	4	-1E+10	1	-1E+10	1	-1E+10	1	-1E+10	1	-1E+10	1	-1E+10	1
4901784	111	C	07/19/2018	10:49	-132.236	43.132	0	764.50	0	3.9340	0	34.4190	8	27.337	0	757.029	0	13.6	4	4.3	4	-1E+10	1	-1E+10	1	-1E+10	1	-1E+10	1	-1E+10	1	-1E+10	1
4901784	111	C	07/19/2018	10:49	-132.236	43.132	0	769.90	0	3.9270	0	34.4220	8	27.340	0	762.366	0	13.3	4	4.2	4	-1E+10	1	-1E+10	1	-1E+10	1	-1E+10	1	-1E+10	1	-1E+10	1
4901784	111	C	07/19/2018	10:49	-132.236	43.132	0	775.00	0	3.9440	0	34.4280	8	27.343	0	767.407	0	13.1	4	4.1	4	-1E+10	1	-1E+10	1	-1E+10	1	-1E+10	1	-1E+10	1	-1E+10	1
4901784	111	C	07/19/2018	10:49	-132.236	43.132	0	780.60	0	3.9010	0	34.4250	8	27.345	0	772.942	0	13.5	4	4.3	4	-1E+10	1	-1E+10	1	-1E+10	1	-1E+10	1	-1E+10	1	-1E+10	1
4901784	111	C	07/19/2018	10:49	-132.236	43.132	0	785.50	0	3.8450	0	34.4260	8	27.351	0	777.785	0	13.5	4	4.3	4	-1E+10	1	-1E+10	1	-1E+10	1	-1E+10	1	-1E+10	1	-1E+10	1
4901784	111	C	07/19/2018	10:49	-132.236	43.132	0	790.30	0	3.8460	0	34.4310	8	27.355	0	782.528	0	13.3	4	4.2	4	-1E+10	1	-1E+10	1	-1E+10	1	-1E+10	1	-1E+10	1	-1E+10	1
4901784	111	C	07/19/2018	10:49	-132.236	43.132	0	795.20	0	3.8480	0	34.4380	8	27.361	0	787.371	0	12.9	4	4.1	4	-1E+10	1	-1E+10	1	-1E+10	1	-1E+10	1	-1E+10	1	-1E+10	1
4901784	111	C	07/19/2018	10:49	-132.236	43.132	0	800.20	0	3.8610	0	34.4450	8	27.365	0	792.312	0	12.6	4	4.0	4	-1E+10	1	-1E+10	1	-1E+10	1	-1E+10	1	-1E+10	1	-1E+10	1
4901784	111	C	07/19/2018	10:49	-132.236	43.132	0	805.20	0	3.8490	0	34.4490	8	27.369	0	797.253	0	12.5	4	4.0	4	-1E+10	1	-1E+10	1	-1E+10	1	-1E+10	1	-1E+10	1	-1E+10	1
4901784	111	C	07/19/2018	10:49	-132.236	43.132	0	810.30	0	3.8400	0	34.4510	8	27.372	0	802.293	0	12.4	4	3.9	4	-1E+10	1	-1E+10	1	-1E+10	1	-1E+10	1	-1E+10	1	-1E+10	1
4901784	111	C	07/19/2018	10:49	-132.236	43.132	0	815.20	0	3.8380	0	34.4540	8	27.375	0	807.135	0	12.3	4	3.9	4	-1E+10	1	-1E+10	1	-1E+10	1	-1E+10	1	-1E+10	1	-1E+10	1
4901784	111	C	07/19/2018	10:49	-132.236	43.132	0	820.30	0	3.8180	0	34.4580	8	27.380	0	812.175	0	12.1	4	3.8	4	-1E+10	1	-1E+10	1	-1E+10	1	-1E+10	1	-1E+10	1	-1E+10	1
4901784	111	C	07/19/2018	10:49	-132.236	43.132	0	825.40	0	3.8130	0	34.4630	8	27.384	0	817.215	0	11.8	4	3.7	4	-1E+10	1	-1E+10	1	-1E+10	1	-1E+10	1	-1E+10	1	-1E+10	1
4901784	111	C	07/19/2018	10:49	-132.236	43.132	0	830.30	0	3.8060	0	34.4700	8	27.391	0	822.056	0	11.6	4	3.7	4	-1E+10	1	-1E+10	1	-1E+10	1	-1E+10	1	-1E+10	1	-1E+10	1
4901784	111	C	07/19/2018	10:49	-132.236	43.132	0	835.40	0	3.8020	0	34.4720	8	27.393	0	827.096	0	11.6	4	3.6	4	-1E+10	1	-1E+10	1	-1E+10	1	-1E+10	1	-1E+10	1	-1E+10	1
4901784	111	C	07/19/2018	10:49	-132.236	43.132	0	840.40	0	3.7940	0	34.4720	8	27.393	0	832.036	0	11.6	4	3.7	4	-1E+10	1	-1E+10	1	-1E+10	1	-1E+10	1	-1E+10	1	-1E+10	1
4901784	111	C	07/19/2018	10:49	-132.236	43.132	0	845.50	0	3.7270	0	34.4700	8	27.399	0	837.075	0	11.8	4	3.7	4	-1E+10	1	-1E+10	1	-1E+10	1	-1E+10	1	-1E+10	1	-1E+10	1
4901784	111	C	07/19/2018	10:49	-132.236	43.132	0	850.60	0	3.6890	0	34.4710	8	27.403	0	842.114	0	11.7	4	3.7	4	-1E+10	1	-1E+10	1	-1E+10	1	-1E+10	1	-1E+10	1	-1E+10	1
4901784	111	C	07/19/2018	10:49	-132.236	43.132	0	855.00	0	3.6750	0	34.4740	8	27.407	0	846.461	0	11.6	4	3.6	4	-1E+10	1	-1E+10	1	-1E+10	1	-1E+10	1	-1E+10	1	-1E+10	1
4901784	111	C	07/19/2018	10:49	-132.236	43.132	0	859.30	0	3.6700	0	34.4760	8	27.409	0	850.709	0	11.5	4	3.6	4	-1E+10	1	-1E+10	1	-1E+10	1	-1E+10	1	-1E+10	1	-1E+10	1
4901784	111	C	07/19/2018	10:49	-132.236	43.132	0	864.50	0	3.6640	0	34.4790	8	27.412	0	855.847	0	11.4	4	3.6	4	-1E+10	1	-1E+10	1	-1E+10	1	-1E+10	1	-1E+10	1	-1E+10	1
4901784	111	C	07/19/2018	10:49	-132.236	43.132	0	869.80	0	3.6550	0	34.4810	8	27.415	0	861.083	0	11.4	4	3.6	4	-1E+10	1	-1E+10	1	-1E+10	1	-1E+10	1	-1E+10	1	-1E+10	1
4901784	111	C	07/19/2018	10:49	-132.236	43.132	0	875.00	0	3.6450	0	34.4840	8	27.418	0	866.220	0	11.3	4	3.5	4	-1E+10	1	-1E+10	1	-1E+10	1	-1E+10	1	-1E+10	1	-1E+10	1
4901784	111	C	07/19/2018	10:49	-132.236	43.132	0	880.20	0	3.6370	0	34.4870	8	27.421	0	871.357	0	11.2	4	3.5	4	-1E+10	1	-1E+10	1	-1E+10	1	-1E+10	1	-1E+10	1	-1E+10	1
4901784	111	C	07/19/2018	10:49	-132.236	43.132	0	885.40	0	3.6310	0	34.4880	8	27.423	0	876.494	0	11.1	4	3.5	4	-1E+10	1	-1E+10	1	-1E+10	1	-1E+10	1	-1E+10	1	-1E+10	1
4901784	111	C	07/19/2018	10:49	-132.236	43.132	0	890.70	0	3.6190	0	34.4940	8	27.429	0	881.729	0	11.0	4	3.4	4	-1E+10	1	-1E+10	1	-1E+10	1	-1E+10	1	-1E+10	1	-1E+10	1
4901784	111	C	07/19/2018	10:49	-132.236	43.132	0	895.10	0	3.6170	0	34.4970	8	27.431	0	886.076	0	10.9	4	3.4	4	-1E+10	1	-1E+10	1	-1E+10	1	-1E+10	1	-1E+10	1	-1E+10	1
4901784	111	C	07/19/2018	10:49	-132.236	43.132	0	899.60	0	3.6160	0	34.5000	8	27.434	0	890.521	0	10.8	4	3.4	4	-1E+10	1	-1E+10	1	-1E+10	1	-1E+10	1	-1E+10	1	-1E+10	1
4901784	111	C	07/19/2018	10:49	-132.236	43.132	0	904.90	0	3.6410	0	34.5060	8	27.436	0	895.756	0	10.6	4	3.3	4	-1E+10	1	-1E+10	1	-1E+10	1	-1E+10	1	-1E+10	1	-1E+10	1
4901784	111	C	07/19/2018	10:49	-132.236	43.132	0	910.20	0	3.6400	0	34.5110	8	27.440	0	900.991	0	10.6	4	3.3	4	-1E+10	1	-1E+10	1	-1E+10	1	-1E+10	1	-1E+10	1	-1E+10	1
4901784	111	C	07/19/2018	10:49	-132.236	43.132	0	915.60	0	3.6130	0	34.5120	8	27.444	0	906.325	0	10.5	4	3.3	4	-1E+10	1	-1E+10	1	-1E+10	1	-1E+10	1	-1E+10	1	-1E+10	1
4901784	111	C	07/19/2018	10:49	-132.236	43.132	0	920.10	0	3.6310	0	34.5180	8	27.447	0	910.769	0	10.5	4	3.3	4	-1E+10	1	-1E+10	1	-1E+10	1	-1E+10	1	-1E+10	1	-1E+10	1
4901784	111	C	07/19/2018	10:49	-132.236	43.132	0	924.60	0	3.6300	0	34.5220	8	27.450	0	915.214	0	10.5	4	3.3	4	-1E+10	1	-1E+10	1	-1E+10	1	-1E+10	1	-1E+10	1	-1E+10	1
4901784	111	C	07/19/2018	10:49	-132.236	43.132	0	930.00	0	3.6160	0	34.5250	8	27.454	0	920.547	0	10.5	4	3.3	4	-1E+10	1	-1E+10	1	-1E+10	1	-1E+10	1	-1E+10	1	-1E+10	1
4901784	111	C	07/19/2018	10:49	-132.236	43.132	0	935.50	0	3.6150	0	34.5320	8	27.460	0	925.979	0	10.5	4	3.3	4	-1E+10	1	-1E+10	1	-1E+10	1	-1E+10	1	-1E+10	1	-1E+10	1
4901784	111	C	07/19/2018	10:49	-132.236	43.132	0	940.00	0	3.5840	0	34.5350	8	27.465	0	930.423	0	10.6	4	3.3	4	-1E+10	1	-1E+10	1	-1E+10	1	-1E+10	1	-1E+10	1	-1E+10	1
4901784	111	C	07/19/2018	10:49	-132.236	43.132	0	944.60	0	3.5890	0	34.5380	8	27.467	0	934.966	0	10.6	4	3.3	4	-1E+10	1	-1E+10	1	-1E+10	1	-1E+10	1	-1E+10	1	-1E+10	1
4901784	111	C	07/19/2018	10:49	-132.236	43.132	0	950.10	0	3.5830	0	34.5400	8	27.469	0	940.398	0	10.6	4	3.3	4	-1E+10	1	-1E+10	1	-1E+10	1	-1E+10	1	-1E+10	1	-1E+10	1
4901784	111	C	07/19/2018	10:49	-132.236	43.132	0	955.60	0	3.5760	0	34.5430	8	27.472	0	945.829	0	10.7	4	3.3	4	-1E+10	1	-1E+10	1	-1E+10	1	-1E+10	1	-1E+10	1	-1E+10	1
4901784	111	C	07/19/2018	10:49	-132.236	43.132	0	960.10	0	3.5720	0	34.5470	8	27.476	0	950.273	0	10.7	4	3.4	4	-1E+10	1	-1E+10	1	-1E+10	1	-1E+10	1	-1E+10	1	-1E+10	1
4901784	111	C	07/19/2018	10:49	-132.236	43.132	0	964.70	0	3.5660	0	34.5500	8	27.479	0	954.815	0	10.7	4	3.4	4	-1E+10	1	-1E+10	1	-1E+10	1	-1E+10	1	-1E+10	1	-1E+10	1
4901784	111	C	07/19/2018	10:49	-132.236	43.132	0	970.20	0	3.5500	0	34.5520	8	27.482	0	960.246	0	10.7	4	3.4	4	-1E+10	1	-1E+10	1	-1E+10	1	-1E+10	1	-1E+10	1	-1E+10	1
4901784	111	C	07/19/2018	10:49	-132.236	43.132	0	975.40	0	3.5290	0	34.5560	8	27.487	0	965.381	0	10.8	4	3.4	4	-1E+10	1	-1E+10	1	-1E+10	1	-1E+10	1	-1E+10	1	-1E+10	1
4901784	111	C	07/19/2018	10:49	-132.236	43.132	0	980.20	0	3.5190	0	34.5580	8	27.490	0	970.121	0	10.8	4	3.4	4	-1E+10	1	-1E+10	1	-1E+10	1	-1E+10	1	-1E+10	1	-1E+10	1
4901784	111	C	07/19/2018	10:49	-132.236	43.132	0	985.00	0	3.5060	0	34.5620	8	27.495	0	974.860	0	10.9	4	3.4	4	-1E+10	1	-1E+10	1	-1E+10	1	-1E+10	1	-1E+10	1	-1E+10	1
4901784	111	C	07/19/2018	10:49	-132.236	43.132	0	989.90	0	3.4940	0	34.5640	8	27.497	0	979.698	0	11.0	4	3.4	4	-1E+10	1	-1E+10	1	-1E+10	1	-1E+10	1	-1E+10	1	-1E+10	1
4901784	111	C	07/19/2018	10:49	-132.236	43.132	0	994.80	0	3.4810	0	34.5680	8	27.502	0	984.536	0	11.1	4	3.5	4	-1E+10	1	-1E+10	1	-1E+10	1	-1E+10	1	-1E+10	1	-1E+10	1
4901784	111	C	07/19/2018	10:49	-132.236	43.132	0	999.70	0	3.4720	0	34.5700	8	27.504	0	989.374	0	11.2	4	3.5	4	-1E+10	1	-1E+10	1	-1E+10	1	-1E+10	1	-1E+10	1	-1E+10	1
4901784	111	C	07/19/2018	10:49	-132.236	43.132	0	1004.70	0	3.4640	0	34.5720	8	27.507	0	994.311	0	11.3	4	3.5	4	-1E+10	1	-1E+10	1	-1E+10	1	-1E+10	1	-1E+10	1	-1E+10	1
4901784	111	C	07/19/2018	10:49	-132.236	43.132	0	1009.60	0	3.4520	0	34.5750	8	27.510	0	999.148	0	11.4	4	3.6	4	-1E+10	1	-1E+10	1	-1E+10	1	-1E+10	1	-1E+10	1	-1E+10	1
4901784	111	C	07/19/2018	10:49	-132.236	43.132	0	1014.60	0	3.4380	0	34.5780	8	27.514	0	1004.085	0	11.5	4	3.6	4	-1E+10	1	-1E+10	1	-1E+10	1	-1E+10	1	-1E+10	1	-1E+10	1
4901784	111	C	07/19/2018	10:49	-132.236	43.132	0	1019.70	0	3.4190	0	34.5800	8	27.517	0	1009.119	0	11.6	4	3.6	4	-1E+10	1	-1E+10	1	-1E+10	1	-1E+10	1	-1E+10	1	-1E+10	1
4901784	111	C	07/19/2018	10:49	-132.236	43.132	0	1024.70	0	3.4080	0	34.5830	8	27.521	0	1014.055	0	11.8	4	3.7	4	-1E+10	1	-1E+10	1	-1E+10	1	-1E+10	1	-1E+10	1	-1E+10	1
4901784	111	C	07/19/2018	10:49	-132.236	43.132	0	1029.80	0	3.3910	0	34.5860	8	27.525	0	1019.090	0	11.9	4	3.7	4	-1E+10	1	-1E+10	1	-1E+10	1	-1E+10	1	-1E+10	1	-1E+10	1
4901784	111	C	07/19/2018	10:49	-132.236	43.132	0	1034.80	0	3.3740	0	34.5900	8	27.530	0	1024.026	0	12.1	4	3.8	4	-1E+10	1	-1E+10	1	-1E+10	1	-1E+10	1	-1E+10	1	-1E+10	1
4901784	111	C	07/19/2018	10:49	-132.236	43.132	0	1039.90	0	3.3680	0	34.5910	8	27.531	0	1029.060	0	12.2	4	3.8	4	-1E+10	1	-1E+10	1	-1E+10	1	-1E+10	1	-1E+10	1	-1E+10	1
4901784	111	C	07/19/2018	10:49	-132.236	43.132	0	1045.00	0	3.3550	0	34.5940	8	27.535	0	1034.095	0	12.3	4	3.8	4	-1E+10	1	-1E+10	1	-1E+10	1	-1E+10	1	-1E+10	1	-1E+10	1
4901784	111	C	07/19/2018	10:49	-132.236	43.132	0	1050.20	0	3.3470	0	34.5950	8	27.536	0	1039.227	0	12.4	4	3.9	4	-1E+10	1	-1E+10	1	-1E+10	1	-1E+10	1	-1E+10	1	-1E+10	1
4901784	111	C	07/19/2018	10:49	-132.236	43.132	0	1055.30	0	3.3380	0	34.5970	8	27.539	0	1044.262	0	12.5	4	3.9	4	-1E+10	1	-1E+10	1	-1E+10	1	-1E+10	1	-1E+10	1	-1E+10	1
4901784	111	C	07/19/2018	10:49	-132.236	43.132	0	1060.50	0	3.3280	0	34.5980	8	27.541	0	1049.394	0	12.6	4	3.9	4	-1E+10	1	-1E+10	1	-1E+10	1	-1E+10	1	-1E+10	1	-1E+10	1
4901784	111	C	07/19/2018	10:49	-132.236	43.132	0	1065.70	0	3.3140	0	34.6010	8	27.544	0	1054.527	0	12.7	4	4.0	4	-1E+10	1	-1E+10	1	-1E+10	1	-1E+10	1	-1E+10	1	-1E+10	1
4901784	111	C	07/19/2018	10:49	-132.236	43.132	0	1070.10	0	3.3000	0	34.6030	8	27.547	0	1058.869	0	12.8	4	4.0	4	-1E+10	1	-1E+10	1	-1E+10	1	-1E+10	1	-1E+10	1	-1E+10	1
4901784	111	C	07/19/2018	10:49	-132.236	43.132	0	1074.40	0	3.2930	0	34.6030	8	27.548	0	1063.113	0	12.8	4	4.0	4	-1E+10	1	-1E+10	1	-1E+10	1	-1E+10	1	-1E+10	1	-1E+10	1
4901784	111	C	07/19/2018	10:49	-132.236	43.132	0	1079.60	0	3.2860	0	34.6050	8	27.550	0	1068.245	0	12.9	4	4.0	4	-1E+10	1	-1E+10	1	-1E+10	1	-1E+10	1	-1E+10	1	-1E+10	1
4901784	111	C	07/19/2018	10:49	-132.236	43.132	0	1084.80	0	3.2830	0	34.6060	8	27.551	0	1073.378	0	13.0	4	4.1	4	-1E+10	1	-1E+10	1	-1E+10	1	-1E+10	1	-1E+10	1	-1E+10	1
4901784	111	C	07/19/2018	10:49	-132.236	43.132	0	1090.30	0	3.2700	0	34.6080	8	27.554	0	1078.805	0	13.1	4	4.1	4	-1E+10	1	-1E+10	1	-1E+10	1	-1E+10	1	-1E+10	1	-1E+10	1
4901784	111	C	07/19/2018	10:49	-132.236	43.132	0	1095.10	0	3.2560	0	34.6100	8	27.557	0	1083.542	0	13.3	4	4.1	4	-1E+10	1	-1E+10	1	-1E+10	1	-1E+10	1	-1E+10	1	-1E+10	1
4901784	111	C	07/19/2018	10:49	-132.236	43.132	0	1099.60	0	3.2430	0	34.6110	8	27.559	0	1087.983	0	13.4	4	4.2	4	-1E+10	1	-1E+10	1	-1E+10	1	-1E+10	1	-1E+10	1	-1E+10	1
4901784	111	C	07/19/2018	10:49	-132.236	43.132	0	1104.30	0	3.2270	0	34.6130	8	27.562	0	1092.621	0	13.5	4	4.2	4	-1E+10	1	-1E+10	1	-1E+10	1	-1E+10	1	-1E+10	1	-1E+10	1
4901784	111	C	07/19/2018	10:49	-132.236	43.132	0	1109.50	0	3.2140	0	34.6150	8	27.565	0	1097.753	0	13.6	4	4.2	4	-1E+10	1	-1E+10	1	-1E+10	1	-1E+10	1	-1E+10	1	-1E+10	1
4901784	111	C	07/19/2018	10:49	-132.236	43.132	0	1114.60	0	3.2030	0	34.6160	8	27.567	0	1102.785	0	13.7	4	4.3	4	-1E+10	1	-1E+10	1	-1E+10	1	-1E+10	1	-1E+10	1	-1E+10	1
4901784	111	C	07/19/2018	10:49	-132.236	43.132	0	1119.90	0	3.1930	0	34.6170	8	27.569	0	1108.015	0	13.9	4	4.3	4	-1E+10	1	-1E+10	1	-1E+10	1	-1E+10	1	-1E+10	1	-1E+10	1
4901784	111	C	07/19/2018	10:49	-132.236	43.132	0	1125.10	0	3.1810	0	34.6190	8	27.572	0	1113.146	0	14.0	4	4.4	4	-1E+10	1	-1E+10	1	-1E+10	1	-1E+10	1	-1E+10	1	-1E+10	1
4901784	111	C	07/19/2018	10:49	-132.236	43.132	0	1130.30	0	3.1720	0	34.6200	8	27.573	0	1118.277	0	14.1	4	4.4	4	-1E+10	1	-1E+10	1	-1E+10	1	-1E+10	1	-1E+10	1	-1E+10	1
4901784	111	C	07/19/2018	10:49	-132.236	43.132	0	1135.60	0	3.1590	0	34.6220	8	27.576	0	1123.507	0	14.2	4	4.4	4	-1E+10	1	-1E+10	1	-1E+10	1	-1E+10	1	-1E+10	1	-1E+10	1
4901784	111	C	07/19/2018	10:49	-132.236	43.132	0	1140.00	0	3.1510	0	34.6230	8	27.578	0	1127.848	0	14.2	4	4.4	4	-1E+10	1	-1E+10	1	-1E+10	1	-1E+10	1	-1E+10	1	-1E+10	1
4901784	111	C	07/19/2018	10:49	-132.236	43.132	0	1144.30	0	3.1470	0	34.6230	8	27.578	0	1132.091	0	14.3	4	4.4	4	-1E+10	1	-1E+10	1	-1E+10	1	-1E+10	1	-1E+10	1	-1E+10	1
4901784	111	C	07/19/2018	10:49	-132.236	43.132	0	1149.50	0	3.1340	0	34.6240	8	27.580	0	1137.221	0	14.4	4	4.5	4	-1E+10	1	-1E+10	1	-1E+10	1	-1E+10	1	-1E+10	1	-1E+10	1
4901784	111	C	07/19/2018	10:49	-132.236	43.132	0	1154.80	0	3.1220	0	34.6250	8	27.582	0	1142.450	0	14.4	4	4.5	4	-1E+10	1	-1E+10	1	-1E+10	1	-1E+10	1	-1E+10	1	-1E+10	1
4901784	111	C	07/19/2018	10:49	-132.236	43.132	0	1160.10	0	3.1120	0	34.6260	8	27.584	0	1147.679	0	14.5	4	4.5	4	-1E+10	1	-1E+10	1	-1E+10	1	-1E+10	1	-1E+10	1	-1E+10	1
4901784	111	C	07/19/2018	10:49	-132.236	43.132	0	1165.60	0	3.1060	0	34.6270	8	27.585	0	1153.105	0	14.6	4	4.5	4	-1E+10	1	-1E+10	1	-1E+10	1	-1E+10	1	-1E+10	1	-1E+10	1
4901784	111	C	07/19/2018	10:49	-132.236	43.132	0	1170.20	0	3.0990	0	34.6280	8	27.587	0	1157.643	0	14.7	4	4.5	4	-1E+10	1	-1E+10	1	-1E+10	1	-1E+10	1	-1E+10	1	-1E+10	1
4901784	111	C	07/19/2018	10:49	-132.236	43.132	0	1174.70	0	3.0960	0	34.6280	8	27.587	0	1162.082	0	14.7	4	4.6	4	-1E+10	1	-1E+10	1	-1E+10	1	-1E+10	1	-1E+10	1	-1E+10	1
4901784	111	C	07/19/2018	10:49	-132.236	43.132	0	1180.00	0	3.0860	0	34.6290	8	27.589	0	1167.311	0	14.8	4	4.6	4	-1E+10	1	-1E+10	1	-1E+10	1	-1E+10	1	-1E+10	1	-1E+10	1
4901784	111	C	07/19/2018	10:49	-132.236	43.132	0	1185.60	0	3.0790	0	34.6300	8	27.590	0	1172.835	0	14.9	4	4.6	4	-1E+10	1	-1E+10	1	-1E+10	1	-1E+10	1	-1E+10	1	-1E+10	1
4901784	111	C	07/19/2018	10:49	-132.236	43.132	0	1190.20	0	3.0770	0	34.6310	8	27.591	0	1177.372	0	15.1	4	4.7	4	-1E+10	1	-1E+10	1	-1E+10	1	-1E+10	1	-1E+10	1	-1E+10	1
4901784	111	C	07/19/2018	10:49	-132.236	43.132	0	1195.00	0	3.0780	0	34.6310	8	27.591	0	1182.107	0	15.2	4	4.7	4	-1E+10	1	-1E+10	1	-1E+10	1	-1E+10	1	-1E+10	1	-1E+10	1
4901784	111	C	07/19/2018	10:49	-132.236	43.132	0	1199.70	0	3.0780	0	34.6320	8	27.592	0	1186.743	0	15.4	4	4.8	4	-1E+10	1	-1E+10	1	-1E+10	1	-1E+10	1	-1E+10	1	-1E+10	1
4901784	111	C	07/19/2018	10:49	-132.236	43.132	0	1204.40	0	3.0710	0	34.6330	8	27.593	0	1191.379	0	15.5	4	4.8	4	-1E+10	1	-1E+10	1	-1E+10	1	-1E+10	1	-1E+10	1	-1E+10	1
4901784	111	C	07/19/2018	10:49	-132.236	43.132	0	1210.00	0	3.0610	0	34.6340	8	27.595	0	1196.903	0	15.6	4	4.8	4	-1E+10	1	-1E+10	1	-1E+10	1	-1E+10	1	-1E+10	1	-1E+10	1
4901784	111	C	07/19/2018	10:49	-132.236	43.132	0	1214.60	0	3.0480	0	34.6350	8	27.597	0	1201.440	0	15.7	4	4.9	4	-1E+10	1	-1E+10	1	-1E+10	1	-1E+10	1	-1E+10	1	-1E+10	1
4901784	111	C	07/19/2018	10:49	-132.236	43.132	0	1219.50	0	3.0380	0	34.6370	8	27.600	0	1206.273	0	16.0	4	4.9	4	-1E+10	1	-1E+10	1	-1E+10	1	-1E+10	1	-1E+10	1	-1E+10	1
4901784	111	C	07/19/2018	10:49	-132.236	43.132	0	1225.20	0	3.0340	0	34.6390	8	27.602	0	1211.894	0	16.1	4	5.0	4	-1E+10	1	-1E+10	1	-1E+10	1	-1E+10	1	-1E+10	1	-1E+10	1
4901784	111	C	07/19/2018	10:49	-132.236	43.132	0	1230.10	0	3.0240	0	34.6390	8	27.603	0	1216.727	0	16.1	4	5.0	4	-1E+10	1	-1E+10	1	-1E+10	1	-1E+10	1	-1E+10	1	-1E+10	1
4901784	111	C	07/19/2018	10:49	-132.236	43.132	0	1234.80	0	3.0090	0	34.6400	8	27.605	0	1221.362	0	16.2	4	5.0	4	-1E+10	1	-1E+10	1	-1E+10	1	-1E+10	1	-1E+10	1	-1E+10	1
4901784	111	C	07/19/2018	10:49	-132.236	43.132	0	1240.40	0	2.9970	0	34.6420	8	27.608	0	1226.885	0	16.6	4	5.1	4	-1E+10	1	-1E+10	1	-1E+10	1	-1E+10	1	-1E+10	1	-1E+10	1
4901784	111	C	07/19/2018	10:49	-132.236	43.132	0	1245.70	0	2.9840	0	34.6450	8	27.611	0	1232.112	0	16.9	4	5.2	4	-1E+10	1	-1E+10	1	-1E+10	1	-1E+10	1	-1E+10	1	-1E+10	1
4901784	111	C	07/19/2018	10:49	-132.236	43.132	0	1250.10	0	2.9700	0	34.6460	8	27.613	0	1236.451	0	17.0	4	5.3	4	-1E+10	1	-1E+10	1	-1E+10	1	-1E+10	1	-1E+10	1	-1E+10	1
4901784	111	C	07/19/2018	10:49	-132.236	43.132	0	1254.50	0	2.9450	0	34.6480	8	27.617	0	1240.790	0	17.1	4	5.3	4	-1E+10	1	-1E+10	1	-1E+10	1	-1E+10	1	-1E+10	1	-1E+10	1
4901784	111	C	07/19/2018	10:49	-132.236	43.132	0	1259.80	0	2.9300	0	34.6490	8	27.619	0	1246.016	0	17.4	4	5.4	4	-1E+10	1	-1E+10	1	-1E+10	1	-1E+10	1	-1E+10	1	-1E+10	1
4901784	111	C	07/19/2018	10:49	-132.236	43.132	0	1265.10	0	2.9100	0	34.6520	8	27.624	0	1251.242	0	17.8	4	5.5	4	-1E+10	1	-1E+10	1	-1E+10	1	-1E+10	1	-1E+10	1	-1E+10	1
4901784	111	C	07/19/2018	10:49	-132.236	43.132	0	1270.50	0	2.9040	0	34.6550	8	27.626	0	1256.567	0	18.4	4	5.7	4	-1E+10	1	-1E+10	1	-1E+10	1	-1E+10	1	-1E+10	1	-1E+10	1
4901784	111	C	07/19/2018	10:49	-132.236	43.132	0	1275.10	0	2.9020	0	34.6570	8	27.628	0	1261.103	0	18.6	4	5.8	4	-1E+10	1	-1E+10	1	-1E+10	1	-1E+10	1	-1E+10	1	-1E+10	1
4901784	111	C	07/19/2018	10:49	-132.236	43.132	0	1279.60	0	2.8870	0	34.6590	8	27.631	0	1265.540	0	18.9	4	5.8	4	-1E+10	1	-1E+10	1	-1E+10	1	-1E+10	1	-1E+10	1	-1E+10	1
4901784	111	C	07/19/2018	10:49	-132.236	43.132	0	1285.20	0	2.8710	0	34.6610	8	27.634	0	1271.062	0	19.2	4	5.9	4	-1E+10	1	-1E+10	1	-1E+10	1	-1E+10	1	-1E+10	1	-1E+10	1
4901784	111	C	07/19/2018	10:49	-132.236	43.132	0	1289.80	0	2.8670	0	34.6620	8	27.635	0	1275.597	0	19.5	4	6.0	4	-1E+10	1	-1E+10	1	-1E+10	1	-1E+10	1	-1E+10	1	-1E+10	1
4901784	111	C	07/19/2018	10:49	-132.236	43.132	0	1294.80	0	2.8510	0	34.6650	8	27.639	0	1280.527	0	19.9	4	6.1	4	-1E+10	1	-1E+10	1	-1E+10	1	-1E+10	1	-1E+10	1	-1E+10	1
4901784	111	C	07/19/2018	10:49	-132.236	43.132	0	1300.00	0	2.8420	0	34.6660	8	27.641	0	1285.654	0	20.1	4	6.2	4	-1E+10	1	-1E+10	1	-1E+10	1	-1E+10	1	-1E+10	1	-1E+10	1
4901784	111	C	07/19/2018	10:49	-132.236	43.132	0	1304.80	0	2.8300	0	34.6680	8	27.644	0	1290.386	0	20.3	4	6.3	4	-1E+10	1	-1E+10	1	-1E+10	1	-1E+10	1	-1E+10	1	-1E+10	1
4901784	111	C	07/19/2018	10:49	-132.236	43.132	0	1309.80	0	2.8260	0	34.6690	8	27.645	0	1295.315	0	20.5	4	6.3	4	-1E+10	1	-1E+10	1	-1E+10	1	-1E+10	1	-1E+10	1	-1E+10	1
4901784	111	C	07/19/2018	10:49	-132.236	43.132	0	1314.70	0	2.8220	0	34.6700	8	27.646	0	1300.146	0	20.7	4	6.4	4	-1E+10	1	-1E+10	1	-1E+10	1	-1E+10	1	-1E+10	1	-1E+10	1
4901784	111	C	07/19/2018	10:49	-132.236	43.132	0	1319.70	0	2.8120	0	34.6700	8	27.647	0	1305.075	0	20.9	4	6.4	4	-1E+10	1	-1E+10	1	-1E+10	1	-1E+10	1	-1E+10	1	-1E+10	1
4901784	111	C	07/19/2018	10:49	-132.236	43.132	0	1324.80	0	2.8000	0	34.6720	8	27.650	0	1310.103	0	21.1	4	6.5	4	-1E+10	1	-1E+10	1	-1E+10	1	-1E+10	1	-1E+10	1	-1E+10	1
4901784	111	C	07/19/2018	10:49	-132.236	43.132	0	1329.80	0	2.7940	0	34.6730	8	27.651	0	1315.032	0	21.5	4	6.6	4	-1E+10	1	-1E+10	1	-1E+10	1	-1E+10	1	-1E+10	1	-1E+10	1
4901784	111	C	07/19/2018	10:49	-132.236	43.132	0	1334.90	0	2.7930	0	34.6750	8	27.653	0	1320.059	0	21.8	4	6.7	4	-1E+10	1	-1E+10	1	-1E+10	1	-1E+10	1	-1E+10	1	-1E+10	1
4901784	111	C	07/19/2018	10:49	-132.236	43.132	0	1339.90	0	2.7910	0	34.6770	8	27.654	0	1324.988	0	22.0	4	6.8	4	-1E+10	1	-1E+10	1	-1E+10	1	-1E+10	1	-1E+10	1	-1E+10	1
4901784	111	C	07/19/2018	10:49	-132.236	43.132	0	1344.90	0	2.7760	0	34.6780	8	27.657	0	1329.917	0	22.0	4	6.8	4	-1E+10	1	-1E+10	1	-1E+10	1	-1E+10	1	-1E+10	1	-1E+10	1
4901784	111	C	07/19/2018	10:49	-132.236	43.132	0	1350.00	0	2.7680	0	34.6770	8	27.657	0	1334.944	0	22.0	4	6.8	4	-1E+10	1	-1E+10	1	-1E+10	1	-1E+10	1	-1E+10	1	-1E+10	1
4901784	111	C	07/19/2018	10:49	-132.236	43.132	0	1355.20	0	2.7630	0	34.6780	8	27.658	0	1340.069	0	22.1	4	6.8	4	-1E+10	1	-1E+10	1	-1E+10	1	-1E+10	1	-1E+10	1	-1E+10	1
4901784	111	C	07/19/2018	10:49	-132.236	43.132	0	1360.40	0	2.7570	0	34.6780	8	27.658	0	1345.194	0	22.3	4	6.9	4	-1E+10	1	-1E+10	1	-1E+10	1	-1E+10	1	-1E+10	1	-1E+10	1
4901784	111	C	07/19/2018	10:49	-132.236	43.132	0	1365.50	0	2.7400	0	34.6800	8	27.661	0	1350.221	0	22.5	4	6.9	4	-1E+10	1	-1E+10	1	-1E+10	1	-1E+10	1	-1E+10	1	-1E+10	1
4901784	111	C	07/19/2018	10:49	-132.236	43.132	0	1369.90	0	2.7310	0	34.6800	8	27.662	0	1354.558	0	22.7	4	7.0	4	-1E+10	1	-1E+10	1	-1E+10	1	-1E+10	1	-1E+10	1	-1E+10	1
4901784	111	C	07/19/2018	10:49	-132.236	43.132	0	1374.40	0	2.7220	0	34.6810	8	27.664	0	1358.993	0	22.9	4	7.0	4	-1E+10	1	-1E+10	1	-1E+10	1	-1E+10	1	-1E+10	1	-1E+10	1
4901784	111	C	07/19/2018	10:49	-132.236	43.132	0	1379.70	0	2.7120	0	34.6830	8	27.666	0	1364.216	0	23.3	4	7.2	4	-1E+10	1	-1E+10	1	-1E+10	1	-1E+10	1	-1E+10	1	-1E+10	1
4901784	111	C	07/19/2018	10:49	-132.236	43.132	0	1385.00	0	2.7080	0	34.6840	8	27.668	0	1369.440	0	23.4	4	7.2	4	-1E+10	1	-1E+10	1	-1E+10	1	-1E+10	1	-1E+10	1	-1E+10	1
4901784	111	C	07/19/2018	10:49	-132.236	43.132	0	1390.30	0	2.6990	0	34.6840	8	27.668	0	1374.663	0	23.4	4	7.2	4	-1E+10	1	-1E+10	1	-1E+10	1	-1E+10	1	-1E+10	1	-1E+10	1
4901784	111	C	07/19/2018	10:49	-132.236	43.132	0	1395.60	0	2.6950	0	34.6840	8	27.669	0	1379.886	0	23.5	4	7.2	4	-1E+10	1	-1E+10	1	-1E+10	1	-1E+10	1	-1E+10	1	-1E+10	1
4901784	111	C	07/19/2018	10:49	-132.236	43.132	0	1400.10	0	2.6800	0	34.6850	8	27.671	0	1384.320	0	23.7	4	7.3	4	-1E+10	1	-1E+10	1	-1E+10	1	-1E+10	1	-1E+10	1	-1E+10	1
4901784	111	C	07/19/2018	10:49	-132.236	43.132	0	1404.60	0	2.6730	0	34.6860	8	27.672	0	1388.755	0	23.9	4	7.3	4	-1E+10	1	-1E+10	1	-1E+10	1	-1E+10	1	-1E+10	1	-1E+10	1
4901784	111	C	07/19/2018	10:49	-132.236	43.132	0	1410.10	0	2.6700	0	34.6910	8	27.677	0	1394.175	0	24.2	4	7.4	4	-1E+10	1	-1E+10	1	-1E+10	1	-1E+10	1	-1E+10	1	-1E+10	1
4901784	111	C	07/19/2018	10:49	-132.236	43.132	0	1415.50	0	2.6550	0	34.6950	8	27.681	0	1399.496	0	24.3	4	7.5	4	-1E+10	1	-1E+10	1	-1E+10	1	-1E+10	1	-1E+10	1	-1E+10	1
4901784	111	C	07/19/2018	10:49	-132.236	43.132	0	1420.00	0	2.6500	0	34.6940	8	27.681	0	1403.930	0	24.3	4	7.5	4	-1E+10	1	-1E+10	1	-1E+10	1	-1E+10	1	-1E+10	1	-1E+10	1
4901784	111	C	07/19/2018	10:49	-132.236	43.132	0	1424.50	0	2.6420	0	34.6950	8	27.682	0	1408.364	0	24.5	4	7.5	4	-1E+10	1	-1E+10	1	-1E+10	1	-1E+10	1	-1E+10	1	-1E+10	1
4901784	111	C	07/19/2018	10:49	-132.236	43.132	0	1429.90	0	2.6290	0	34.6960	8	27.684	0	1413.685	0	24.8	4	7.6	4	-1E+10	1	-1E+10	1	-1E+10	1	-1E+10	1	-1E+10	1	-1E+10	1
4901784	111	C	07/19/2018	10:49	-132.236	43.132	0	1435.30	0	2.6190	0	34.6970	8	27.686	0	1419.006	0	25.1	4	7.7	4	-1E+10	1	-1E+10	1	-1E+10	1	-1E+10	1	-1E+10	1	-1E+10	1
4901784	111	C	07/19/2018	10:49	-132.236	43.132	0	1439.90	0	2.6120	0	34.6980	8	27.687	0	1423.538	0	25.4	4	7.8	4	-1E+10	1	-1E+10	1	-1E+10	1	-1E+10	1	-1E+10	1	-1E+10	1
4901784	111	C	07/19/2018	10:49	-132.236	43.132	0	1444.40	0	2.5990	0	34.7000	8	27.690	0	1427.971	0	25.7	4	7.9	4	-1E+10	1	-1E+10	1	-1E+10	1	-1E+10	1	-1E+10	1	-1E+10	1
4901784	111	C	07/19/2018	10:49	-132.236	43.132	0	1449.80	0	2.5840	0	34.7010	8	27.692	0	1433.292	0	26.0	4	7.9	4	-1E+10	1	-1E+10	1	-1E+10	1	-1E+10	1	-1E+10	1	-1E+10	1
4901784	111	C	07/19/2018	10:49	-132.236	43.132	0	1455.30	0	2.5770	0	34.7020	8	27.694	0	1438.710	0	26.2	4	8.0	4	-1E+10	1	-1E+10	1	-1E+10	1	-1E+10	1	-1E+10	1	-1E+10	1
4901784	111	C	07/19/2018	10:49	-132.236	43.132	0	1460.00	0	2.5720	0	34.7020	8	27.694	0	1443.341	0	26.4	4	8.1	4	-1E+10	1	-1E+10	1	-1E+10	1	-1E+10	1	-1E+10	1	-1E+10	1
4901784	111	C	07/19/2018	10:49	-132.236	43.132	0	1464.60	0	2.5630	0	34.7030	8	27.696	0	1447.872	0	26.7	4	8.2	4	-1E+10	1	-1E+10	1	-1E+10	1	-1E+10	1	-1E+10	1	-1E+10	1
4901784	111	C	07/19/2018	10:49	-132.236	43.132	0	1470.20	0	2.5540	0	34.7040	8	27.697	0	1453.389	0	26.9	4	8.2	4	-1E+10	1	-1E+10	1	-1E+10	1	-1E+10	1	-1E+10	1	-1E+10	1
4901784	111	C	07/19/2018	10:49	-132.236	43.132	0	1475.00	0	2.5480	0	34.7050	8	27.699	0	1458.118	0	27.2	4	8.3	4	-1E+10	1	-1E+10	1	-1E+10	1	-1E+10	1	-1E+10	1	-1E+10	1
4901784	111	C	07/19/2018	10:49	-132.236	43.132	0	1479.60	0	2.5390	0	34.7060	8	27.700	0	1462.649	0	27.4	4	8.4	4	-1E+10	1	-1E+10	1	-1E+10	1	-1E+10	1	-1E+10	1	-1E+10	1
4901784	111	C	07/19/2018	10:49	-132.236	43.132	0	1484.90	0	2.5330	0	34.7070	8	27.702	0	1467.870	0	27.7	4	8.5	4	-1E+10	1	-1E+10	1	-1E+10	1	-1E+10	1	-1E+10	1	-1E+10	1
4901784	111	C	07/19/2018	10:49	-132.236	43.132	0	1489.30	0	2.5240	0	34.7080	8	27.703	0	1472.204	0	28.0	4	8.6	4	-1E+10	1	-1E+10	1	-1E+10	1	-1E+10	1	-1E+10	1	-1E+10	1
4901784	111	C	07/19/2018	10:49	-132.236	43.132	0	1494.90	0	2.5150	0	34.7090	8	27.705	0	1477.721	0	28.3	4	8.7	4	-1E+10	1	-1E+10	1	-1E+10	1	-1E+10	1	-1E+10	1	-1E+10	1
4901784	111	C	07/19/2018	10:49	-132.236	43.132	0	1500.60	0	2.5040	0	34.7100	8	27.706	0	1483.335	0	28.7	4	8.8	4	-1E+10	1	-1E+10	1	-1E+10	1	-1E+10	1	-1E+10	1	-1E+10	1
4901784	111	C	07/19/2018	10:49	-132.236	43.132	0	1505.40	0	2.4960	0	34.7110	8	27.708	0	1488.063	0	28.9	4	8.8	4	-1E+10	1	-1E+10	1	-1E+10	1	-1E+10	1	-1E+10	1	-1E+10	1
4901784	111	C	07/19/2018	10:49	-132.236	43.132	0	1510.30	0	2.4880	0	34.7120	8	27.709	0	1492.889	0	29.2	4	8.9	4	-1E+10	1	-1E+10	1	-1E+10	1	-1E+10	1	-1E+10	1	-1E+10	1
4901784	111	C	07/19/2018	10:49	-132.236	43.132	0	1515.30	0	2.4790	0	34.7130	8	27.711	0	1497.814	0	29.5	4	9.0	4	-1E+10	1	-1E+10	1	-1E+10	1	-1E+10	1	-1E+10	1	-1E+10	1
4901784	111	C	07/19/2018	10:49	-132.236	43.132	0	1520.30	0	2.4760	0	34.7140	8	27.712	0	1502.738	0	29.7	4	9.1	4	-1E+10	1	-1E+10	1	-1E+10	1	-1E+10	1	-1E+10	1	-1E+10	1
4901784	111	C	07/19/2018	10:49	-132.236	43.132	0	1525.30	0	2.4660	0	34.7150	8	27.714	0	1507.663	0	30.1	4	9.2	4	-1E+10	1	-1E+10	1	-1E+10	1	-1E+10	1	-1E+10	1	-1E+10	1
4901784	111	C	07/19/2018	10:49	-132.236	43.132	0	1530.30	0	2.4530	0	34.7160	8	27.716	0	1512.587	0	30.5	4	9.3	4	-1E+10	1	-1E+10	1	-1E+10	1	-1E+10	1	-1E+10	1	-1E+10	1
4901784	111	C	07/19/2018	10:49	-132.236	43.132	0	1535.40	0	2.4440	0	34.7180	8	27.718	0	1517.610	0	30.8	4	9.4	4	-1E+10	1	-1E+10	1	-1E+10	1	-1E+10	1	-1E+10	1	-1E+10	1
4901784	111	C	07/19/2018	10:49	-132.236	43.132	0	1540.40	0	2.4390	0	34.7180	8	27.719	0	1522.534	0	30.9	4	9.4	4	-1E+10	1	-1E+10	1	-1E+10	1	-1E+10	1	-1E+10	1	-1E+10	1
4901784	111	C	07/19/2018	10:49	-132.236	43.132	0	1545.40	0	2.4380	0	34.7180	8	27.719	0	1527.458	0	31.1	4	9.5	4	-1E+10	1	-1E+10	1	-1E+10	1	-1E+10	1	-1E+10	1	-1E+10	1
4901784	111	C	07/19/2018	10:49	-132.236	43.132	0	1550.40	0	2.4310	0	34.7190	8	27.720	0	1532.382	0	31.4	4	9.6	4	-1E+10	1	-1E+10	1	-1E+10	1	-1E+10	1	-1E+10	1	-1E+10	1
4901784	111	C	07/19/2018	10:49	-132.236	43.132	0	1555.50	0	2.4230	0	34.7200	8	27.722	0	1537.404	0	31.7	4	9.7	4	-1E+10	1	-1E+10	1	-1E+10	1	-1E+10	1	-1E+10	1	-1E+10	1
4901784	111	C	07/19/2018	10:49	-132.236	43.132	0	1560.60	0	2.4180	0	34.7210	8	27.723	0	1542.426	0	31.9	4	9.7	4	-1E+10	1	-1E+10	1	-1E+10	1	-1E+10	1	-1E+10	1	-1E+10	1
4901784	111	C	07/19/2018	10:49	-132.236	43.132	0	1565.60	0	2.4120	0	34.7210	8	27.723	0	1547.349	0	32.3	4	9.9	4	-1E+10	1	-1E+10	1	-1E+10	1	-1E+10	1	-1E+10	1	-1E+10	1
4901784	111	C	07/19/2018	10:49	-132.236	43.132	0	1570.80	0	2.3980	0	34.7230	8	27.726	0	1552.470	0	32.8	4	10.0	4	-1E+10	1	-1E+10	1	-1E+10	1	-1E+10	1	-1E+10	1	-1E+10	1
4901784	111	C	07/19/2018	10:49	-132.236	43.132	0	1575.00	0	2.3930	0	34.7240	8	27.727	0	1556.605	0	33.1	4	10.1	4	-1E+10	1	-1E+10	1	-1E+10	1	-1E+10	1	-1E+10	1	-1E+10	1
4901784	111	C	07/19/2018	10:49	-132.236	43.132	0	1579.20	0	2.3850	0	34.7250	8	27.729	0	1560.741	0	33.3	4	10.2	4	-1E+10	1	-1E+10	1	-1E+10	1	-1E+10	1	-1E+10	1	-1E+10	1
4901784	111	C	07/19/2018	10:49	-132.236	43.132	0	1584.30	0	2.3800	0	34.7250	8	27.729	0	1565.762	0	33.6	4	10.3	4	-1E+10	1	-1E+10	1	-1E+10	1	-1E+10	1	-1E+10	1	-1E+10	1
4901784	111	C	07/19/2018	10:49	-132.236	43.132	0	1589.40	0	2.3700	0	34.7270	8	27.732	0	1570.784	0	34.0	4	10.4	4	-1E+10	1	-1E+10	1	-1E+10	1	-1E+10	1	-1E+10	1	-1E+10	1
4901784	111	C	07/19/2018	10:49	-132.236	43.132	0	1594.50	0	2.3620	0	34.7280	8	27.733	0	1575.805	0	34.3	4	10.5	4	-1E+10	1	-1E+10	1	-1E+10	1	-1E+10	1	-1E+10	1	-1E+10	1
4901784	111	C	07/19/2018	10:49	-132.236	43.132	0	1599.60	0	2.3540	0	34.7280	8	27.734	0	1580.826	0	34.7	4	10.6	4	-1E+10	1	-1E+10	1	-1E+10	1	-1E+10	1	-1E+10	1	-1E+10	1
4901784	111	C	07/19/2018	10:49	-132.236	43.132	0	1604.80	0	2.3470	0	34.7290	8	27.735	0	1585.946	0	35.0	4	10.7	4	-1E+10	1	-1E+10	1	-1E+10	1	-1E+10	1	-1E+10	1	-1E+10	1
4901784	111	C	07/19/2018	10:49	-132.236	43.132	0	1610.00	0	2.3380	0	34.7300	8	27.737	0	1591.065	0	35.3	4	10.8	4	-1E+10	1	-1E+10	1	-1E+10	1	-1E+10	1	-1E+10	1	-1E+10	1
4901784	111	C	07/19/2018	10:49	-132.236	43.132	0	1615.20	0	2.3300	0	34.7310	8	27.738	0	1596.184	0	35.6	4	10.8	4	-1E+10	1	-1E+10	1	-1E+10	1	-1E+10	1	-1E+10	1	-1E+10	1
4901784	111	C	07/19/2018	10:49	-132.236	43.132	0	1620.30	0	2.3260	0	34.7320	8	27.740	0	1601.205	0	36.0	4	11.0	4	-1E+10	1	-1E+10	1	-1E+10	1	-1E+10	1	-1E+10	1	-1E+10	1
4901784	111	C	07/19/2018	10:49	-132.236	43.132	0	1625.60	0	2.3130	0	34.7330	8	27.741	0	1606.422	0	36.5	4	11.1	4	-1E+10	1	-1E+10	1	-1E+10	1	-1E+10	1	-1E+10	1	-1E+10	1
4901784	111	C	07/19/2018	10:49	-132.236	43.132	0	1630.00	0	2.3050	0	34.7350	8	27.744	0	1610.754	0	36.8	4	11.2	4	-1E+10	1	-1E+10	1	-1E+10	1	-1E+10	1	-1E+10	1	-1E+10	1
4901784	111	C	07/19/2018	10:49	-132.236	43.132	0	1634.40	0	2.2970	0	34.7350	8	27.744	0	1615.085	0	37.2	4	11.3	4	-1E+10	1	-1E+10	1	-1E+10	1	-1E+10	1	-1E+10	1	-1E+10	1
4901784	111	C	07/19/2018	10:49	-132.236	43.132	0	1639.70	0	2.2850	0	34.7370	8	27.747	0	1620.302	0	37.6	4	11.4	4	-1E+10	1	-1E+10	1	-1E+10	1	-1E+10	1	-1E+10	1	-1E+10	1
4901784	111	C	07/19/2018	10:49	-132.236	43.132	0	1645.10	0	2.2800	0	34.7370	8	27.747	0	1625.618	0	37.9	4	11.5	4	-1E+10	1	-1E+10	1	-1E+10	1	-1E+10	1	-1E+10	1	-1E+10	1
4901784	111	C	07/19/2018	10:49	-132.236	43.132	0	1650.50	0	2.2750	0	34.7380	8	27.749	0	1630.933	0	38.2	4	11.6	4	-1E+10	1	-1E+10	1	-1E+10	1	-1E+10	1	-1E+10	1	-1E+10	1
4901784	111	C	07/19/2018	10:49	-132.236	43.132	0	1655.10	0	2.2680	0	34.7390	8	27.750	0	1635.461	0	38.5	4	11.7	4	-1E+10	1	-1E+10	1	-1E+10	1	-1E+10	1	-1E+10	1	-1E+10	1
4901784	111	C	07/19/2018	10:49	-132.236	43.132	0	1659.90	0	2.2620	0	34.7400	8	27.751	0	1640.185	0	38.7	4	11.8	4	-1E+10	1	-1E+10	1	-1E+10	1	-1E+10	1	-1E+10	1	-1E+10	1
4901784	111	C	07/19/2018	10:49	-132.236	43.132	0	1665.10	0	2.2550	0	34.7400	8	27.752	0	1645.303	0	39.0	4	11.9	4	-1E+10	1	-1E+10	1	-1E+10	1	-1E+10	1	-1E+10	1	-1E+10	1
4901784	111	C	07/19/2018	10:49	-132.236	43.132	0	1669.90	0	2.2480	0	34.7410	8	27.753	0	1650.027	0	39.3	4	11.9	4	-1E+10	1	-1E+10	1	-1E+10	1	-1E+10	1	-1E+10	1	-1E+10	1
4901784	111	C	07/19/2018	10:49	-132.236	43.132	0	1674.70	0	2.2430	0	34.7410	8	27.754	0	1654.752	0	39.7	4	12.1	4	-1E+10	1	-1E+10	1	-1E+10	1	-1E+10	1	-1E+10	1	-1E+10	1
4901784	111	C	07/19/2018	10:49	-132.236	43.132	0	1679.70	0	2.2340	0	34.7430	8	27.756	0	1659.672	0	40.2	4	12.2	4	-1E+10	1	-1E+10	1	-1E+10	1	-1E+10	1	-1E+10	1	-1E+10	1
4901784	111	C	07/19/2018	10:49	-132.236	43.132	0	1684.60	0	2.2240	0	34.7440	8	27.758	0	1664.495	0	40.6	4	12.3	4	-1E+10	1	-1E+10	1	-1E+10	1	-1E+10	1	-1E+10	1	-1E+10	1
4901784	111	C	07/19/2018	10:49	-132.236	43.132	0	1689.60	0	2.2170	0	34.7450	8	27.759	0	1669.415	0	41.0	4	12.4	4	-1E+10	1	-1E+10	1	-1E+10	1	-1E+10	1	-1E+10	1	-1E+10	1
4901784	111	C	07/19/2018	10:49	-132.236	43.132	0	1694.60	0	2.2100	0	34.7460	8	27.761	0	1674.336	0	41.3	4	12.5	4	-1E+10	1	-1E+10	1	-1E+10	1	-1E+10	1	-1E+10	1	-1E+10	1
4901784	111	C	07/19/2018	10:49	-132.236	43.132	0	1699.60	0	2.2060	0	34.7470	8	27.762	0	1679.256	0	41.5	4	12.6	4	-1E+10	1	-1E+10	1	-1E+10	1	-1E+10	1	-1E+10	1	-1E+10	1
4901784	111	C	07/19/2018	10:49	-132.236	43.132	0	1704.70	0	2.2030	0	34.7470	8	27.762	0	1684.275	0	41.7	4	12.7	4	-1E+10	1	-1E+10	1	-1E+10	1	-1E+10	1	-1E+10	1	-1E+10	1
4901784	111	C	07/19/2018	10:49	-132.236	43.132	0	1709.80	0	2.1980	0	34.7480	8	27.763	0	1689.294	0	42.0	4	12.8	4	-1E+10	1	-1E+10	1	-1E+10	1	-1E+10	1	-1E+10	1	-1E+10	1
4901784	111	C	07/19/2018	10:49	-132.236	43.132	0	1714.90	0	2.1900	0	34.7490	8	27.765	0	1694.312	0	42.5	4	12.9	4	-1E+10	1	-1E+10	1	-1E+10	1	-1E+10	1	-1E+10	1	-1E+10	1
4901784	111	C	07/19/2018	10:49	-132.236	43.132	0	1720.10	0	2.1820	0	34.7500	8	27.766	0	1699.429	0	43.0	4	13.0	4	-1E+10	1	-1E+10	1	-1E+10	1	-1E+10	1	-1E+10	1	-1E+10	1
4901784	111	C	07/19/2018	10:49	-132.236	43.132	0	1725.30	0	2.1750	0	34.7510	8	27.768	0	1704.546	0	43.4	4	13.2	4	-1E+10	1	-1E+10	1	-1E+10	1	-1E+10	1	-1E+10	1	-1E+10	1
4901784	111	C	07/19/2018	10:49	-132.236	43.132	0	1730.50	0	2.1690	0	34.7520	8	27.769	0	1709.662	0	43.8	4	13.3	4	-1E+10	1	-1E+10	1	-1E+10	1	-1E+10	1	-1E+10	1	-1E+10	1
4901784	111	C	07/19/2018	10:49	-132.236	43.132	0	1735.70	0	2.1590	0	34.7530	8	27.771	0	1714.778	0	44.2	4	13.4	4	-1E+10	1	-1E+10	1	-1E+10	1	-1E+10	1	-1E+10	1	-1E+10	1
4901784	111	C	07/19/2018	10:49	-132.236	43.132	0	1740.10	0	2.1550	0	34.7530	8	27.771	0	1719.108	0	44.5	4	13.5	4	-1E+10	1	-1E+10	1	-1E+10	1	-1E+10	1	-1E+10	1	-1E+10	1
4901784	111	C	07/19/2018	10:49	-132.236	43.132	0	1744.50	0	2.1490	0	34.7540	8	27.772	0	1723.437	0	44.8	4	13.6	4	-1E+10	1	-1E+10	1	-1E+10	1	-1E+10	1	-1E+10	1	-1E+10	1
4901784	111	C	07/19/2018	10:49	-132.236	43.132	0	1749.90	0	2.1400	0	34.7550	8	27.774	0	1728.750	0	45.2	4	13.7	4	-1E+10	1	-1E+10	1	-1E+10	1	-1E+10	1	-1E+10	1	-1E+10	1
4901784	111	C	07/19/2018	10:49	-132.236	43.132	0	1755.30	0	2.1330	0	34.7560	8	27.775	0	1734.062	0	45.7	4	13.8	4	-1E+10	1	-1E+10	1	-1E+10	1	-1E+10	1	-1E+10	1	-1E+10	1
4901784	111	C	07/19/2018	10:49	-132.236	43.132	0	1759.80	0	2.1290	0	34.7570	8	27.776	0	1738.489	0	45.9	4	13.9	4	-1E+10	1	-1E+10	1	-1E+10	1	-1E+10	1	-1E+10	1	-1E+10	1
4901784	111	C	07/19/2018	10:49	-132.236	43.132	0	1764.30	0	2.1240	0	34.7580	8	27.777	0	1742.916	0	46.2	4	14.0	4	-1E+10	1	-1E+10	1	-1E+10	1	-1E+10	1	-1E+10	1	-1E+10	1
4901784	111	C	07/19/2018	10:49	-132.236	43.132	0	1769.90	0	2.1180	0	34.7580	8	27.778	0	1748.426	0	46.6	4	14.1	4	-1E+10	1	-1E+10	1	-1E+10	1	-1E+10	1	-1E+10	1	-1E+10	1
4901784	111	C	07/19/2018	10:49	-132.236	43.132	0	1775.20	0	2.1100	0	34.7600	8	27.780	0	1753.639	0	47.0	4	14.2	4	-1E+10	1	-1E+10	1	-1E+10	1	-1E+10	1	-1E+10	1	-1E+10	1
4901784	111	C	07/19/2018	10:49	-132.236	43.132	0	1780.60	0	2.1030	0	34.7610	8	27.782	0	1758.951	0	47.4	4	14.3	4	-1E+10	1	-1E+10	1	-1E+10	1	-1E+10	1	-1E+10	1	-1E+10	1
4901784	111	C	07/19/2018	10:49	-132.236	43.132	0	1785.50	0	2.0970	0	34.7610	8	27.782	0	1763.771	0	47.8	4	14.5	4	-1E+10	1	-1E+10	1	-1E+10	1	-1E+10	1	-1E+10	1	-1E+10	1
4901784	111	C	07/19/2018	10:49	-132.236	43.132	0	1790.40	0	2.0950	0	34.7610	8	27.782	0	1768.591	0	48.1	4	14.6	4	-1E+10	1	-1E+10	1	-1E+10	1	-1E+10	1	-1E+10	1	-1E+10	1
4901784	111	C	07/19/2018	10:49	-132.236	43.132	0	1795.40	0	2.0840	0	34.7630	8	27.785	0	1773.510	0	48.7	4	14.7	4	-1E+10	1	-1E+10	1	-1E+10	1	-1E+10	1	-1E+10	1	-1E+10	1
4901784	111	C	07/19/2018	10:49	-132.236	43.132	0	1800.30	0	2.0740	0	34.7640	8	27.786	0	1778.329	0	49.1	4	14.9	4	-1E+10	1	-1E+10	1	-1E+10	1	-1E+10	1	-1E+10	1	-1E+10	1
4901784	111	C	07/19/2018	10:49	-132.236	43.132	0	1805.30	0	2.0690	0	34.7650	8	27.788	0	1783.247	0	49.5	4	15.0	4	-1E+10	1	-1E+10	1	-1E+10	1	-1E+10	1	-1E+10	1	-1E+10	1
4901784	111	C	07/19/2018	10:49	-132.236	43.132	0	1810.30	0	2.0610	0	34.7660	8	27.789	0	1788.165	0	49.8	4	15.1	4	-1E+10	1	-1E+10	1	-1E+10	1	-1E+10	1	-1E+10	1	-1E+10	1
4901784	111	C	07/19/2018	10:49	-132.236	43.132	0	1815.30	0	2.0590	0	34.7660	8	27.789	0	1793.083	0	50.0	4	15.1	4	-1E+10	1	-1E+10	1	-1E+10	1	-1E+10	1	-1E+10	1	-1E+10	1
4901784	111	C	07/19/2018	10:49	-132.236	43.132	0	1820.30	0	2.0540	0	34.7670	8	27.791	0	1798.001	0	50.5	4	15.3	4	-1E+10	1	-1E+10	1	-1E+10	1	-1E+10	1	-1E+10	1	-1E+10	1
4901784	111	C	07/19/2018	10:49	-132.236	43.132	0	1825.30	0	2.0440	0	34.7690	8	27.793	0	1802.918	0	50.9	4	15.4	4	-1E+10	1	-1E+10	1	-1E+10	1	-1E+10	1	-1E+10	1	-1E+10	1
4901784	111	C	07/19/2018	10:49	-132.236	43.132	0	1830.40	0	2.0410	0	34.7690	8	27.793	0	1807.934	0	51.2	4	15.5	4	-1E+10	1	-1E+10	1	-1E+10	1	-1E+10	1	-1E+10	1	-1E+10	1
4901784	111	C	07/19/2018	10:49	-132.236	43.132	0	1835.50	0	2.0360	0	34.7700	8	27.794	0	1812.950	0	51.4	4	15.5	4	-1E+10	1	-1E+10	1	-1E+10	1	-1E+10	1	-1E+10	1	-1E+10	1
4901784	111	C	07/19/2018	10:49	-132.236	43.132	0	1840.60	0	2.0330	0	34.7700	8	27.795	0	1817.965	0	51.7	4	15.6	4	-1E+10	1	-1E+10	1	-1E+10	1	-1E+10	1	-1E+10	1	-1E+10	1
4901784	111	C	07/19/2018	10:49	-132.236	43.132	0	1844.90	0	2.0290	0	34.7710	8	27.796	0	1822.194	0	51.9	4	15.7	4	-1E+10	1	-1E+10	1	-1E+10	1	-1E+10	1	-1E+10	1	-1E+10	1
4901784	111	C	07/19/2018	10:49	-132.236	43.132	0	1849.30	0	2.0260	0	34.7710	8	27.796	0	1826.521	0	52.0	4	15.7	4	-1E+10	1	-1E+10	1	-1E+10	1	-1E+10	1	-1E+10	1	-1E+10	1
4901784	111	C	07/19/2018	10:49	-132.236	43.132	0	1854.50	0	2.0230	0	34.7710	8	27.796	0	1831.635	0	52.3	4	15.8	4	-1E+10	1	-1E+10	1	-1E+10	1	-1E+10	1	-1E+10	1	-1E+10	1
4901784	111	C	07/19/2018	10:49	-132.236	43.132	0	1859.70	0	2.0180	0	34.7720	8	27.798	0	1836.748	0	52.7	4	15.9	4	-1E+10	1	-1E+10	1	-1E+10	1	-1E+10	1	-1E+10	1	-1E+10	1
4901784	111	C	07/19/2018	10:49	-132.236	43.132	0	1865.00	0	2.0160	0	34.7730	8	27.799	0	1841.960	0	52.9	4	16.0	4	-1E+10	1	-1E+10	1	-1E+10	1	-1E+10	1	-1E+10	1	-1E+10	1
4901784	111	C	07/19/2018	10:49	-132.236	43.132	0	1870.30	0	2.0150	0	34.7740	8	27.799	0	1847.171	0	53.2	4	16.1	4	-1E+10	1	-1E+10	1	-1E+10	1	-1E+10	1	-1E+10	1	-1E+10	1
4901784	111	C	07/19/2018	10:49	-132.236	43.132	0	1874.80	0	2.0130	0	34.7740	8	27.800	0	1851.596	0	53.4	4	16.1	4	-1E+10	1	-1E+10	1	-1E+10	1	-1E+10	1	-1E+10	1	-1E+10	1
4901784	111	C	07/19/2018	10:49	-132.236	43.132	0	1879.30	0	2.0100	0	34.7740	8	27.800	0	1856.021	0	53.6	4	16.2	4	-1E+10	1	-1E+10	1	-1E+10	1	-1E+10	1	-1E+10	1	-1E+10	1
4901784	111	C	07/19/2018	10:49	-132.236	43.132	0	1884.70	0	2.0040	0	34.7750	8	27.801	0	1861.330	0	54.0	4	16.3	4	-1E+10	1	-1E+10	1	-1E+10	1	-1E+10	1	-1E+10	1	-1E+10	1
4901784	111	C	07/19/2018	10:49	-132.236	43.132	0	1890.20	0	1.9990	0	34.7760	8	27.802	0	1866.738	0	54.3	4	16.4	4	-1E+10	1	-1E+10	1	-1E+10	1	-1E+10	1	-1E+10	1	-1E+10	1
4901784	111	C	07/19/2018	10:49	-132.236	43.132	0	1895.60	0	1.9960	0	34.7760	8	27.803	0	1872.047	0	54.5	4	16.5	4	-1E+10	1	-1E+10	1	-1E+10	1	-1E+10	1	-1E+10	1	-1E+10	1
4901784	111	C	07/19/2018	10:49	-132.236	43.132	0	1900.10	0	1.9950	0	34.7770	8	27.804	0	1876.471	0	54.7	4	16.5	4	-1E+10	1	-1E+10	1	-1E+10	1	-1E+10	1	-1E+10	1	-1E+10	1
4901784	111	C	07/19/2018	10:49	-132.236	43.132	0	1904.70	0	1.9910	0	34.7770	8	27.804	0	1880.994	0	55.0	4	16.6	4	-1E+10	1	-1E+10	1	-1E+10	1	-1E+10	1	-1E+10	1	-1E+10	1
4901784	111	C	07/19/2018	10:49	-132.236	43.132	0	1910.10	0	1.9880	0	34.7770	8	27.804	0	1886.303	0	55.3	4	16.7	4	-1E+10	1	-1E+10	1	-1E+10	1	-1E+10	1	-1E+10	1	-1E+10	1
4901784	111	C	07/19/2018	10:49	-132.236	43.132	0	1915.50	0	1.9820	0	34.7780	8	27.805	0	1891.611	0	55.7	4	16.8	4	-1E+10	1	-1E+10	1	-1E+10	1	-1E+10	1	-1E+10	1	-1E+10	1
4901784	111	C	07/19/2018	10:49	-132.236	43.132	0	1920.40	0	1.9760	0	34.7800	8	27.808	0	1896.428	0	56.1	4	16.9	4	-1E+10	1	-1E+10	1	-1E+10	1	-1E+10	1	-1E+10	1	-1E+10	1
4901784	111	C	07/19/2018	10:49	-132.236	43.132	0	1925.40	0	1.9720	0	34.7800	8	27.808	0	1901.344	0	56.4	4	17.0	4	-1E+10	1	-1E+10	1	-1E+10	1	-1E+10	1	-1E+10	1	-1E+10	1
4901784	111	C	07/19/2018	10:49	-132.236	43.132	0	1930.30	0	1.9690	0	34.7810	8	27.809	0	1906.161	0	56.7	4	17.1	4	-1E+10	1	-1E+10	1	-1E+10	1	-1E+10	1	-1E+10	1	-1E+10	1
4901784	111	C	07/19/2018	10:49	-132.236	43.132	0	1935.20	0	1.9650	0	34.7810	8	27.809	0	1910.977	0	57.0	4	17.2	4	-1E+10	1	-1E+10	1	-1E+10	1	-1E+10	1	-1E+10	1	-1E+10	1
4901784	111	C	07/19/2018	10:49	-132.236	43.132	0	1940.20	0	1.9590	0	34.7820	8	27.811	0	1915.892	0	57.3	4	17.3	4	-1E+10	1	-1E+10	1	-1E+10	1	-1E+10	1	-1E+10	1	-1E+10	1
4901784	111	C	07/19/2018	10:49	-132.236	43.132	0	1945.20	0	1.9580	0	34.7820	8	27.811	0	1920.807	0	57.4	4	17.3	4	-1E+10	1	-1E+10	1	-1E+10	1	-1E+10	1	-1E+10	1	-1E+10	1
4901784	111	C	07/19/2018	10:49	-132.236	43.132	0	1950.30	0	1.9550	0	34.7830	8	27.812	0	1925.820	0	57.7	4	17.4	4	-1E+10	1	-1E+10	1	-1E+10	1	-1E+10	1	-1E+10	1	-1E+10	1
4901784	111	C	07/19/2018	10:49	-132.236	43.132	0	1955.30	0	1.9520	0	34.7830	8	27.812	0	1930.735	0	57.9	4	17.5	4	-1E+10	1	-1E+10	1	-1E+10	1	-1E+10	1	-1E+10	1	-1E+10	1
4901784	111	C	07/19/2018	10:49	-132.236	43.132	0	1960.40	0	1.9500	0	34.7840	8	27.813	0	1935.747	0	58.1	4	17.5	4	-1E+10	1	-1E+10	1	-1E+10	1	-1E+10	1	-1E+10	1	-1E+10	1
4901784	111	C	07/19/2018	10:49	-132.236	43.132	0	1965.40	0	1.9460	0	34.7850	8	27.814	0	1940.662	0	58.4	4	17.6	4	-1E+10	1	-1E+10	1	-1E+10	1	-1E+10	1	-1E+10	1	-1E+10	1
4901784	111	C	07/19/2018	10:49	-132.236	43.132	0	1970.50	0	1.9440	0	34.7850	8	27.814	0	1945.674	0	58.6	4	17.7	4	-1E+10	1	-1E+10	1	-1E+10	1	-1E+10	1	-1E+10	1	-1E+10	1
4901784	111	C	07/19/2018	10:49	-132.236	43.132	0	1975.70	0	1.9430	0	34.7850	8	27.814	0	1950.785	0	58.7	4	17.7	4	-1E+10	1	-1E+10	1	-1E+10	1	-1E+10	1	-1E+10	1	-1E+10	1
4901784	111	C	07/19/2018	10:49	-132.236	43.132	0	1980.00	0	1.9420	0	34.7860	8	27.815	0	1955.011	0	58.8	4	17.7	4	-1E+10	1	-1E+10	1	-1E+10	1	-1E+10	1	-1E+10	1	-1E+10	1
4901784	111	C	07/19/2018	10:49	-132.236	43.132	0	1984.30	0	1.9410	0	34.7860	8	27.815	0	1959.237	0	59.0	4	17.8	4	-1E+10	1	-1E+10	1	-1E+10	1	-1E+10	1	-1E+10	1	-1E+10	1
4901784	111	C	07/19/2018	10:49	-132.236	43.132	0	1989.50	0	1.9390	0	34.7860	8	27.816	0	1964.347	0	59.2	4	17.8	4	-1E+10	1	-1E+10	1	-1E+10	1	-1E+10	1	-1E+10	1	-1E+10	1
4901784	111	C	07/19/2018	10:49	-132.236	43.132	0	1994.70	0	1.9340	0	34.7860	8	27.816	0	1969.458	0	59.5	4	17.9	4	-1E+10	1	-1E+10	1	-1E+10	1	-1E+10	1	-1E+10	1	-1E+10	1
4901784	111	C	07/19/2018	10:49	-132.236	43.132	0	2000.30	0	1.9300	0	34.7870	8	27.817	0	1974.961	0	59.7	4	18.0	4	-1E+10	1	-1E+10	1	-1E+10	1	-1E+10	1	-1E+10	1	-1E+10	1
4901784	111	C	07/19/2018	10:49	-132.236	43.132	0	2005.30	0	1.9290	0	34.7870	8	27.817	0	1979.874	0	59.9	4	18.0	4	-1E+10	1	-1E+10	1	-1E+10	1	-1E+10	1	-1E+10	1	-1E+10	1
4901784	111	C	07/19/2018	10:49	-132.236	43.132	0	2010.00	0	1.9270	0	34.7880	8	27.818	0	1984.493	0	60.0	4	18.1	4	-1E+10	1	-1E+10	1	-1E+10	1	-1E+10	1	-1E+10	1	-1E+10	1
4901784	111	C	07/19/2018	10:49	-132.236	43.132	0	2014.80	0	1.9240	0	34.7880	8	27.819	0	1989.210	0	60.1	4	18.1	4	-1E+10	1	-1E+10	1	-1E+10	1	-1E+10	1	-1E+10	1	-1E+10	1
4901784	111	C	07/19/2018	10:49	-132.236	43.132	0	2020.40	0	1.9230	0	34.7880	8	27.819	0	1994.712	0	59.8	4	18.0	4	-1E+10	1	-1E+10	1	-1E+10	1	-1E+10	1	-1E+10	1	-1E+10	1
4901784	111	C	07/19/2018	10:49	-132.236	43.132	0																										
4901784	112	C	07/29/2018	10:44	-132.051	43.072	0	2.50	0	16.1260	0	32.9770	8	24.164	0	2.480	0	239.5	4	97.5	4	-1E+10	1	-1E+10	1	-1E+10	1	-1E+10	1	-1E+10	1	-1E+10	1
4901784	112	C	07/29/2018	10:44	-132.051	43.072	0	4.00	0	16.1270	0	32.9760	8	24.164	0	3.968	0	239.4	4	97.4	4	-1E+10	1	-1E+10	1	-1E+10	1	-1E+10	1	-1E+10	1	-1E+10	1
4901784	112	C	07/29/2018	10:44	-132.051	43.072	0	5.80	0	16.1270	0	32.9760	8	24.164	0	5.754	0	239.3	4	97.3	4	-1E+10	1	-1E+10	1	-1E+10	1	-1E+10	1	-1E+10	1	-1E+10	1
4901784	112	C	07/29/2018	10:44	-132.051	43.072	0	7.50	0	16.1270	0	32.9750	8	24.163	0	7.440	0	239.0	4	97.3	4	-1E+10	1	-1E+10	1	-1E+10	1	-1E+10	1	-1E+10	1	-1E+10	1
4901784	112	C	07/29/2018	10:44	-132.051	43.072	0	9.30	0	16.1270	0	32.9740	8	24.162	0	9.226	0	239.1	4	97.3	4	-1E+10	1	-1E+10	1	-1E+10	1	-1E+10	1	-1E+10	1	-1E+10	1
4901784	112	C	07/29/2018	10:44	-132.051	43.072	0	11.20	0	16.1280	0	32.9710	8	24.160	0	11.111	0	238.8	4	97.2	4	-1E+10	1	-1E+10	1	-1E+10	1	-1E+10	1	-1E+10	1	-1E+10	1
4901784	112	C	07/29/2018	10:44	-132.051	43.072	0	13.20	0	16.0320	0	32.9740	8	24.184	0	13.095	0	239.2	4	97.2	4	-1E+10	1	-1E+10	1	-1E+10	1	-1E+10	1	-1E+10	1	-1E+10	1
4901784	112	C	07/29/2018	10:44	-132.051	43.072	0	15.20	0	15.9730	0	32.9760	8	24.199	0	15.079	0	239.3	4	97.1	4	-1E+10	1	-1E+10	1	-1E+10	1	-1E+10	1	-1E+10	1	-1E+10	1
4901784	112	C	07/29/2018	10:44	-132.051	43.072	0	17.20	0	15.9660	0	32.9760	8	24.200	0	17.063	0	239.2	4	97.0	4	-1E+10	1	-1E+10	1	-1E+10	1	-1E+10	1	-1E+10	1	-1E+10	1
4901784	112	C	07/29/2018	10:44	-132.051	43.072	0	19.20	0	15.9610	0	32.9750	8	24.201	0	19.047	0	239.2	4	97.0	4	-1E+10	1	-1E+10	1	-1E+10	1	-1E+10	1	-1E+10	1	-1E+10	1
4901784	112	C	07/29/2018	10:44	-132.051	43.072	0	21.10	0	15.9580	0	32.9750	8	24.201	0	20.931	0	239.2	4	97.0	4	-1E+10	1	-1E+10	1	-1E+10	1	-1E+10	1	-1E+10	1	-1E+10	1
4901784	112	C	07/29/2018	10:44	-132.051	43.072	0	23.40	0	15.9560	0	32.9730	8	24.200	0	23.213	0	239.4	4	97.1	4	-1E+10	1	-1E+10	1	-1E+10	1	-1E+10	1	-1E+10	1	-1E+10	1
4901784	112	C	07/29/2018	10:44	-132.051	43.072	0	23.90	0	15.9560	0	32.9720	8	24.200	0	23.709	0	239.4	4	97.1	4	-1E+10	1	-1E+10	1	-1E+10	1	-1E+10	1	-1E+10	1	-1E+10	1
4901784	112	C	07/29/2018	10:44	-132.051	43.072	0	25.70	0	15.9530	0	32.9700	8	24.199	0	25.494	0	239.8	4	97.2	4	-1E+10	1	-1E+10	1	-1E+10	1	-1E+10	1	-1E+10	1	-1E+10	1
4901784	112	C	07/29/2018	10:44	-132.051	43.072	0	27.30	0	15.9490	0	32.9660	8	24.197	0	27.081	0	240.5	4	97.5	4	-1E+10	1	-1E+10	1	-1E+10	1	-1E+10	1	-1E+10	1	-1E+10	1
4901784	112	C	07/29/2018	10:44	-132.051	43.072	0	28.80	0	15.9400	0	32.9600	8	24.194	0	28.569	0	241.4	4	97.9	4	-1E+10	1	-1E+10	1	-1E+10	1	-1E+10	1	-1E+10	1	-1E+10	1
4901784	112	C	07/29/2018	10:44	-132.051	43.072	0	30.40	0	15.9110	0	32.9510	8	24.194	0	30.156	0	243.2	4	98.5	4	-1E+10	1	-1E+10	1	-1E+10	1	-1E+10	1	-1E+10	1	-1E+10	1
4901784	112	C	07/29/2018	10:44	-132.051	43.072	0	32.00	0	15.7740	0	32.9420	8	24.218	0	31.743	0	245.8	4	99.3	4	-1E+10	1	-1E+10	1	-1E+10	1	-1E+10	1	-1E+10	1	-1E+10	1
4901784	112	C	07/29/2018	10:44	-132.051	43.072	0	34.00	0	15.3400	0	32.9350	8	24.308	0	33.727	0	251.0	4	100.5	4	-1E+10	1	-1E+10	1	-1E+10	1	-1E+10	1	-1E+10	1	-1E+10	1
4901784	112	C	07/29/2018	10:44	-132.051	43.072	0	35.50	0	15.0110	0	32.9150	8	24.364	0	35.215	0	256.3	4	102.0	4	-1E+10	1	-1E+10	1	-1E+10	1	-1E+10	1	-1E+10	1	-1E+10	1
4901784	112	C	07/29/2018	10:44	-132.051	43.072	0	36.70	0	14.6360	0	32.9020	8	24.435	0	36.405	0	261.7	4	103.3	4	-1E+10	1	-1E+10	1	-1E+10	1	-1E+10	1	-1E+10	1	-1E+10	1
4901784	112	C	07/29/2018	10:44	-132.051	43.072	0	38.00	0	13.8940	0	32.9210	8	24.604	0	37.695	0	266.9	4	103.9	4	-1E+10	1	-1E+10	1	-1E+10	1	-1E+10	1	-1E+10	1	-1E+10	1
4901784	112	C	07/29/2018	10:44	-132.051	43.072	0	39.40	0	12.9710	0	32.8940	8	24.769	0	39.083	0	274.6	4	104.8	4	-1E+10	1	-1E+10	1	-1E+10	1	-1E+10	1	-1E+10	1	-1E+10	1
4901784	112	C	07/29/2018	10:44	-132.051	43.072	0	40.70	0	12.6220	0	32.8710	8	24.819	0	40.373	0	277.3	4	105.1	4	-1E+10	1	-1E+10	1	-1E+10	1	-1E+10	1	-1E+10	1	-1E+10	1
4901784	112	C	07/29/2018	10:44	-132.051	43.072	0	42.20	0	12.1990	0	32.8630	8	24.894	0	41.861	0	278.9	4	104.8	4	-1E+10	1	-1E+10	1	-1E+10	1	-1E+10	1	-1E+10	1	-1E+10	1
4901784	112	C	07/29/2018	10:44	-132.051	43.072	0	43.80	0	11.5460	0	32.8500	8	25.005	0	43.448	0	280.9	4	104.1	4	-1E+10	1	-1E+10	1	-1E+10	1	-1E+10	1	-1E+10	1	-1E+10	1
4901784	112	C	07/29/2018	10:44	-132.051	43.072	0	45.40	0	10.9940	0	32.8370	8	25.094	0	45.035	0	283.4	4	103.8	4	-1E+10	1	-1E+10	1	-1E+10	1	-1E+10	1	-1E+10	1	-1E+10	1
4901784	112	C	07/29/2018	10:44	-132.051	43.072	0	47.20	0	10.2210	0	32.8190	8	25.214	0	46.820	0	287.5	4	103.6	4	-1E+10	1	-1E+10	1	-1E+10	1	-1E+10	1	-1E+10	1	-1E+10	1
4901784	112	C	07/29/2018	10:44	-132.051	43.072	0	48.90	0	10.1240	0	32.8280	8	25.237	0	48.506	0	287.2	4	103.2	4	-1E+10	1	-1E+10	1	-1E+10	1	-1E+10	1	-1E+10	1	-1E+10	1
4901784	112	C	07/29/2018	10:44	-132.051	43.072	0	50.60	0	10.0940	0	32.8350	8	25.247	0	50.192	0	286.6	4	103.0	4	-1E+10	1	-1E+10	1	-1E+10	1	-1E+10	1	-1E+10	1	-1E+10	1
4901784	112	C	07/29/2018	10:44	-132.051	43.072	0	52.40	0	10.0370	0	32.8360	8	25.258	0	51.977	0	285.9	4	102.6	4	-1E+10	1	-1E+10	1	-1E+10	1	-1E+10	1	-1E+10	1	-1E+10	1
4901784	112	C	07/29/2018	10:44	-132.051	43.072	0	54.20	0	9.9950	0	32.8320	8	25.262	0	53.763	0	284.9	4	102.1	4	-1E+10	1	-1E+10	1	-1E+10	1	-1E+10	1	-1E+10	1	-1E+10	1
4901784	112	C	07/29/2018	10:44	-132.051	43.072	0	56.00	0	9.9250	0	32.8330	8	25.274	0	55.548	0	283.8	4	101.6	4	-1E+10	1	-1E+10	1	-1E+10	1	-1E+10	1	-1E+10	1	-1E+10	1
4901784	112	C	07/29/2018	10:44	-132.051	43.072	0	57.70	0	9.9210	0	32.8340	8	25.276	0	57.234	0	282.6	4	101.1	4	-1E+10	1	-1E+10	1	-1E+10	1	-1E+10	1	-1E+10	1	-1E+10	1
4901784	112	C	07/29/2018	10:44	-132.051	43.072	0	59.50	0	9.9140	0	32.8390	8	25.281	0	59.019	0	281.0	4	100.6	4	-1E+10	1	-1E+10	1	-1E+10	1	-1E+10	1	-1E+10	1	-1E+10	1
4901784	112	C	07/29/2018	10:44	-132.051	43.072	0	61.40	0	9.8460	0	32.8380	8	25.291	0	60.903	0	279.8	4	100.0	4	-1E+10	1	-1E+10	1	-1E+10	1	-1E+10	1	-1E+10	1	-1E+10	1
4901784	112	C	07/29/2018	10:44	-132.051	43.072	0	63.10	0	9.8050	0	32.8400	8	25.299	0	62.589	0	278.3	4	99.3	4	-1E+10	1	-1E+10	1	-1E+10	1	-1E+10	1	-1E+10	1	-1E+10	1
4901784	112	C	07/29/2018	10:44	-132.051	43.072	0	65.00	0	9.7610	0	32.8450	8	25.311	0	64.474	0	276.4	4	98.6	4	-1E+10	1	-1E+10	1	-1E+10	1	-1E+10	1	-1E+10	1	-1E+10	1
4901784	112	C	07/29/2018	10:44	-132.051	43.072	0	66.80	0	9.7700	0	32.8590	8	25.320	0	66.259	0	274.3	4	97.9	4	-1E+10	1	-1E+10	1	-1E+10	1	-1E+10	1	-1E+10	1	-1E+10	1
4901784	112	C	07/29/2018	10:44	-132.051	43.072	0	68.60	0	9.6870	0	32.8610	8	25.335	0	68.044	0	273.1	4	97.3	4	-1E+10	1	-1E+10	1	-1E+10	1	-1E+10	1	-1E+10	1	-1E+10	1
4901784	112	C	07/29/2018	10:44	-132.051	43.072	0	70.60	0	9.6630	0	32.8540	8	25.334	0	70.027	0	272.7	4	97.1	4	-1E+10	1	-1E+10	1	-1E+10	1	-1E+10	1	-1E+10	1	-1E+10	1
4901784	112	C	07/29/2018	10:44	-132.051	43.072	0	72.40	0	9.5620	0	32.8470	8	25.345	0	71.812	0	272.4	4	96.7	4	-1E+10	1	-1E+10	1	-1E+10	1	-1E+10	1	-1E+10	1	-1E+10	1
4901784	112	C	07/29/2018	10:44	-132.051	43.072	0	74.30	0	9.6130	0	32.8440	8	25.334	0	73.697	0	271.8	4	96.6	4	-1E+10	1	-1E+10	1	-1E+10	1	-1E+10	1	-1E+10	1	-1E+10	1
4901784	112	C	07/29/2018	10:44	-132.051	43.072	0	76.20	0	9.7240	0	32.8770	8	25.342	0	75.581	0	269.8	4	96.2	4	-1E+10	1	-1E+10	1	-1E+10	1	-1E+10	1	-1E+10	1	-1E+10	1
4901784	112	C	07/29/2018	10:44	-132.051	43.072	0	78.00	0	9.6250	0	32.8630	8	25.347	0	77.366	0	269.2	4	95.8	4	-1E+10	1	-1E+10	1	-1E+10	1	-1E+10	1	-1E+10	1	-1E+10	1
4901784	112	C	07/29/2018	10:44	-132.051	43.072	0	79.90	0	9.6050	0	32.8560	8	25.345	0	79.250	0	268.5	4	95.5	4	-1E+10	1	-1E+10	1	-1E+10	1	-1E+10	1	-1E+10	1	-1E+10	1
4901784	112	C	07/29/2018	10:44	-132.051	43.072	0	81.70	0	9.6910	0	32.8760	8	25.347	0	81.035	0	266.8	4	95.0	4	-1E+10	1	-1E+10	1	-1E+10	1	-1E+10	1	-1E+10	1	-1E+10	1
4901784	112	C	07/29/2018	10:44	-132.051	43.072	0	83.60	0	9.5190	0	32.8490	8	25.353	0	82.919	0	266.7	4	94.6	4	-1E+10	1	-1E+10	1	-1E+10	1	-1E+10	1	-1E+10	1	-1E+10	1
4901784	112	C	07/29/2018	10:44	-132.051	43.072	0	85.40	0	9.5520	0	32.8600	8	25.357	0	84.704	0	265.4	4	94.2	4	-1E+10	1	-1E+10	1	-1E+10	1	-1E+10	1	-1E+10	1	-1E+10	1
4901784	112	C	07/29/2018	10:44	-132.051	43.072	0	87.30	0	9.4650	0	32.8540	8	25.366	0	86.588	0	264.4	4	93.7	4	-1E+10	1	-1E+10	1	-1E+10	1	-1E+10	1	-1E+10	1	-1E+10	1
4901784	112	C	07/29/2018	10:44	-132.051	43.072	0	89.10	0	9.3430	0	32.8390	8	25.374	0	88.373	0	264.0	4	93.3	4	-1E+10	1	-1E+10	1	-1E+10	1	-1E+10	1	-1E+10	1	-1E+10	1
4901784	112	C	07/29/2018	10:44	-132.051	43.072	0	90.90	0	9.3300	0	32.8380	8	25.375	0	90.158	0	263.0	4	92.9	4	-1E+10	1	-1E+10	1	-1E+10	1	-1E+10	1	-1E+10	1	-1E+10	1
4901784	112	C	07/29/2018	10:44	-132.051	43.072	0	92.60	0	9.2690	0	32.8400	8	25.387	0	91.844	0	261.3	4	92.2	4	-1E+10	1	-1E+10	1	-1E+10	1	-1E+10	1	-1E+10	1	-1E+10	1
4901784	112	C	07/29/2018	10:44	-132.051	43.072	0	94.50	0	9.4170	0	32.8720	8	25.388	0	93.728	0	259.0	4	91.7	4	-1E+10	1	-1E+10	1	-1E+10	1	-1E+10	1	-1E+10	1	-1E+10	1
4901784	112	C	07/29/2018	10:44	-132.051	43.072	0	96.20	0	9.2510	0	32.8720	8	25.415	0	95.414	0	258.1	4	91.1	4	-1E+10	1	-1E+10	1	-1E+10	1	-1E+10	1	-1E+10	1	-1E+10	1
4901784	112	C	07/29/2018	10:44	-132.051	43.072	0	98.10	0	9.2040	0	32.8670	8	25.418	0	97.298	0	257.6	4	90.8	4	-1E+10	1	-1E+10	1	-1E+10	1	-1E+10	1	-1E+10	1	-1E+10	1
4901784	112	C	07/29/2018	10:44	-132.051	43.072	0	99.80	0	9.1830	0	32.8850	8	25.436	0	98.984	0	256.1	4	90.2	4	-1E+10	1	-1E+10	1	-1E+10	1	-1E+10	1	-1E+10	1	-1E+10	1
4901784	112	C	07/29/2018	10:44	-132.051	43.072	0	102.50	0	9.2120	0	32.9070	8	25.448	0	101.661	0	253.4	4	89.3	4	-1E+10	1	-1E+10	1	-1E+10	1	-1E+10	1	-1E+10	1	-1E+10	1
4901784	112	C	07/29/2018	10:44	-132.051	43.072	0	105.10	0	9.1890	0	32.9310	8	25.471	0	104.239	0	251.4	4	88.6	4	-1E+10	1	-1E+10	1	-1E+10	1	-1E+10	1	-1E+10	1	-1E+10	1
4901784	112	C	07/29/2018	10:44	-132.051	43.072	0	107.30	0	9.0020	0	32.9400	8	25.507	0	106.420	0	250.3	4	87.9	4	-1E+10	1	-1E+10	1	-1E+10	1	-1E+10	1	-1E+10	1	-1E+10	1
4901784	112	C	07/29/2018	10:44	-132.051	43.072	0	109.80	0	9.0280	0	32.9730	8	25.529	0	108.899	0	247.8	4	87.1	4	-1E+10	1	-1E+10	1	-1E+10	1	-1E+10	1	-1E+10	1	-1E+10	1
4901784	112	C	07/29/2018	10:44	-132.051	43.072	0	112.90	0	8.9260	0	32.9880	8	25.557	0	111.973	0	244.8	4	85.8	4	-1E+10	1	-1E+10	1	-1E+10	1	-1E+10	1	-1E+10	1	-1E+10	1
4901784	112	C	07/29/2018	10:44	-132.051	43.072	0	115.30	0	8.9120	0	33.0280	8	25.590	0	114.352	0	241.1	4	84.5	4	-1E+10	1	-1E+10	1	-1E+10	1	-1E+10	1	-1E+10	1	-1E+10	1
4901784	112	C	07/29/2018	10:44	-132.051	43.072	0	117.60	0	8.6000	0	33.0970	8	25.692	0	116.633	0	239.1	4	83.3	4	-1E+10	1	-1E+10	1	-1E+10	1	-1E+10	1	-1E+10	1	-1E+10	1
4901784	112	C	07/29/2018	10:44	-132.051	43.072	0	119.90	0	8.4640	0	33.1280	8	25.737	0	118.913	0	237.0	4	82.3	4	-1E+10	1	-1E+10	1	-1E+10	1	-1E+10	1	-1E+10	1	-1E+10	1
4901784	112	C	07/29/2018	10:44	-132.051	43.072	0	122.40	0	8.2920	0	33.1770	8	25.801	0	121.392	0	233.2	4	80.7	4	-1E+10	1	-1E+10	1	-1E+10	1	-1E+10	1	-1E+10	1	-1E+10	1
4901784	112	C	07/29/2018	10:44	-132.051	43.072	0	124.90	0	8.1420	0	33.2470	8	25.878	0	123.871	0	229.3	4	79.1	4	-1E+10	1	-1E+10	1	-1E+10	1	-1E+10	1	-1E+10	1	-1E+10	1
4901784	112	C	07/29/2018	10:44	-132.051	43.072	0	127.20	0	8.1440	0	33.3240	8	25.939	0	126.151	0	225.1	4	77.8	4	-1E+10	1	-1E+10	1	-1E+10	1	-1E+10	1	-1E+10	1	-1E+10	1
4901784	112	C	07/29/2018	10:44	-132.051	43.072	0	129.60	0	8.1810	0	33.3840	8	25.980	0	128.530	0	219.5	4	75.9	4	-1E+10	1	-1E+10	1	-1E+10	1	-1E+10	1	-1E+10	1	-1E+10	1
4901784	112	C	07/29/2018	10:44	-132.051	43.072	0	132.40	0	8.1640	0	33.4560	8	26.039	0	131.306	0	215.0	4	74.4	4	-1E+10	1	-1E+10	1	-1E+10	1	-1E+10	1	-1E+10	1	-1E+10	1
4901784	112	C	07/29/2018	10:44	-132.051	43.072	0	135.40	0	8.1910	0	33.5170	8	26.083	0	134.281	0	208.2	4	72.1	4	-1E+10	1	-1E+10	1	-1E+10	1	-1E+10	1	-1E+10	1	-1E+10	1
4901784	112	C	07/29/2018	10:44	-132.051	43.072	0	137.70	0	8.2480	0	33.5830	8	26.127	0	136.561	0	203.4	4	70.6	4	-1E+10	1	-1E+10	1	-1E+10	1	-1E+10	1	-1E+10	1	-1E+10	1
4901784	112	C	07/29/2018	10:44	-132.051	43.072	0	140.10	0	8.2580	0	33.6330	8	26.164	0	138.940	0	199.2	4	69.2	4	-1E+10	1	-1E+10	1	-1E+10	1	-1E+10	1	-1E+10	1	-1E+10	1
4901784	112	C	07/29/2018	10:44	-132.051	43.072	0	142.40	0	8.2890	0	33.6890	8	26.204	0	141.220	0	195.3	4	67.9	4	-1E+10	1	-1E+10	1	-1E+10	1	-1E+10	1	-1E+10	1	-1E+10	1
4901784	112	C	07/29/2018	10:44	-132.051	43.072	0	144.90	0	8.3140	0	33.7390	8	26.239	0	143.699	0	191.6	4	66.6	4	-1E+10	1	-1E+10	1	-1E+10	1	-1E+10	1	-1E+10	1	-1E+10	1
4901784	112	C	07/29/2018	10:44	-132.051	43.072	0	147.50	0	8.3370	0	33.7750	8	26.264	0	146.276	0	186.8	4	65.0	4	-1E+10	1	-1E+10	1	-1E+10	1	-1E+10	1	-1E+10	1	-1E+10	1
4901784	112	C	07/29/2018	10:44	-132.051	43.072	0	150.10	0	8.3750	0	33.8480	8	26.316	0	148.854	0	182.8	4	63.7	4	-1E+10	1	-1E+10	1	-1E+10	1	-1E+10	1	-1E+10	1	-1E+10	1
4901784	112	C	07/29/2018	10:44	-132.051	43.072	0	152.90	0	8.3950	0	33.8940	8	26.349	0	151.630	0	178.7	4	62.3	4	-1E+10	1	-1E+10	1	-1E+10	1	-1E+10	1	-1E+10	1	-1E+10	1
4901784	112	C	07/29/2018	10:44	-132.051	43.072	0	154.70	0	8.4050	0	33.9170	8	26.365	0	153.414	0	176.1	4	61.5	4	-1E+10	1	-1E+10	1	-1E+10	1	-1E+10	1	-1E+10	1	-1E+10	1
4901784	112	C	07/29/2018	10:44	-132.051	43.072	0	157.60	0	8.4050	0	33.9640	8	26.402	0	156.289	0	171.7	4	59.9	4	-1E+10	1	-1E+10	1	-1E+10	1	-1E+10	1	-1E+10	1	-1E+10	1
4901784	112	C	07/29/2018	10:44	-132.051	43.072	0	160.50	0	8.3940	0	34.0020	8	26.434	0	159.164	0	168.8	4	58.9	4	-1E+10	1	-1E+10	1	-1E+10	1	-1E+10	1	-1E+10	1	-1E+10	1
4901784	112	C	07/29/2018	10:44	-132.051	43.072	0	162.50	0	8.3800	0	34.0300	8	26.458	0	161.146	0	167.1	4	58.3	4	-1E+10	1	-1E+10	1	-1E+10	1	-1E+10	1	-1E+10	1	-1E+10	1
4901784	112	C	07/29/2018	10:44	-132.051	43.072	0	164.40	0	8.3760	0	34.0320	8	26.460	0	163.030	0	165.9	4	57.9	4	-1E+10	1	-1E+10	1	-1E+10	1	-1E+10	1	-1E+10	1	-1E+10	1
4901784	112	C	07/29/2018	10:44	-132.051	43.072	0	167.20	0	8.3570	0	34.0430	8	26.472	0	165.805	0	163.4	4	57.0	4	-1E+10	1	-1E+10	1	-1E+10	1	-1E+10	1	-1E+10	1	-1E+10	1
4901784	112	C	07/29/2018	10:44	-132.051	43.072	0	170.10	0	8.3310	0	34.0550	8	26.485	0	168.680	0	161.4	4	56.3	4	-1E+10	1	-1E+10	1	-1E+10	1	-1E+10	1	-1E+10	1	-1E+10	1
4901784	112	C	07/29/2018	10:44	-132.051	43.072	0	172.00	0	8.2960	0	34.0750	8	26.506	0	170.563	0	160.5	4	55.9	4	-1E+10	1	-1E+10	1	-1E+10	1	-1E+10	1	-1E+10	1	-1E+10	1
4901784	112	C	07/29/2018	10:44	-132.051	43.072	0	175.00	0	8.2710	0	34.0870	8	26.519	0	173.537	0	159.4	4	55.5	4	-1E+10	1	-1E+10	1	-1E+10	1	-1E+10	1	-1E+10	1	-1E+10	1
4901784	112	C	07/29/2018	10:44	-132.051	43.072	0	178.00	0	8.2530	0	34.0960	8	26.529	0	176.510	0	158.2	4	55.1	4	-1E+10	1	-1E+10	1	-1E+10	1	-1E+10	1	-1E+10	1	-1E+10	1
4901784	112	C	07/29/2018	10:44	-132.051	43.072	0	179.90	0	8.2090	0	34.1080	8	26.545	0	178.394	0	156.8	4	54.6	4	-1E+10	1	-1E+10	1	-1E+10	1	-1E+10	1	-1E+10	1	-1E+10	1
4901784	112	C	07/29/2018	10:44	-132.051	43.072	0	181.90	0	8.1810	0	34.1090	8	26.550	0	180.376	0	155.8	4	54.2	4	-1E+10	1	-1E+10	1	-1E+10	1	-1E+10	1	-1E+10	1	-1E+10	1
4901784	112	C	07/29/2018	10:44	-132.051	43.072	0	184.90	0	8.1590	0	34.1100	8	26.554	0	183.350	0	154.6	4	53.7	4	-1E+10	1	-1E+10	1	-1E+10	1	-1E+10	1	-1E+10	1	-1E+10	1
4901784	112	C	07/29/2018	10:44	-132.051	43.072	0	188.00	0	8.1430	0	34.1110	8	26.557	0	186.422	0	153.9	4	53.5	4	-1E+10	1	-1E+10	1	-1E+10	1	-1E+10	1	-1E+10	1	-1E+10	1
4901784	112	C	07/29/2018	10:44	-132.051	43.072	0	190.00	0	8.1240	0	34.1130	8	26.562	0	188.405	0	153.0	4	53.1	4	-1E+10	1	-1E+10	1	-1E+10	1	-1E+10	1	-1E+10	1	-1E+10	1
4901784	112	C	07/29/2018	10:44	-132.051	43.072	0	192.00	0	8.0900	0	34.1130	8	26.567	0	190.387	0	152.6	4	53.0	4	-1E+10	1	-1E+10	1	-1E+10	1	-1E+10	1	-1E+10	1	-1E+10	1
4901784	112	C	07/29/2018	10:44	-132.051	43.072	0	194.90	0	8.0660	0	34.1190	8	26.575	0	193.261	0	151.8	4	52.7	4	-1E+10	1	-1E+10	1	-1E+10	1	-1E+10	1	-1E+10	1	-1E+10	1
4901784	112	C	07/29/2018	10:44	-132.051	43.072	0	197.80	0	7.9950	0	34.1270	8	26.592	0	196.135	0	149.7	4	51.9	4	-1E+10	1	-1E+10	1	-1E+10	1	-1E+10	1	-1E+10	1	-1E+10	1
4901784	112	C	07/29/2018	10:44	-132.051	43.072	0	199.70	0	7.9710	0	34.1270	8	26.596	0	198.018	0	147.8	4	51.2	4	-1E+10	1	-1E+10	1	-1E+10	1	-1E+10	1	-1E+10	1	-1E+10	1
4901784	112	C	07/29/2018	10:44	-132.051	43.072	0	202.70	0	7.9190	0	34.1250	8	26.602	0	200.992	0	143.9	4	49.7	4	-1E+10	1	-1E+10	1	-1E+10	1	-1E+10	1	-1E+10	1	-1E+10	1
4901784	112	C	07/29/2018	10:44	-132.051	43.072	0	205.60	0	7.8410	0	34.1230	8	26.612	0	203.866	0	141.8	4	48.9	4	-1E+10	1	-1E+10	1	-1E+10	1	-1E+10	1	-1E+10	1	-1E+10	1
4901784	112	C	07/29/2018	10:44	-132.051	43.072	0	207.50	0	7.7980	0	34.1260	8	26.620	0	205.749	0	141.2	4	48.7	4	-1E+10	1	-1E+10	1	-1E+10	1	-1E+10	1	-1E+10	1	-1E+10	1
4901784	112	C	07/29/2018	10:44	-132.051	43.072	0	209.50	0	7.7440	0	34.1270	8	26.629	0	207.731	0	140.7	4	48.4	4	-1E+10	1	-1E+10	1	-1E+10	1	-1E+10	1	-1E+10	1	-1E+10	1
4901784	112	C	07/29/2018	10:44	-132.051	43.072	0	212.30	0	7.7080	0	34.1280	8	26.635	0	210.506	0	140.5	4	48.3	4	-1E+10	1	-1E+10	1	-1E+10	1	-1E+10	1	-1E+10	1	-1E+10	1
4901784	112	C	07/29/2018	10:44	-132.051	43.072	0	215.20	0	7.6750	0	34.1290	8	26.641	0	213.380	0	140.4	4	48.3	4	-1E+10	1	-1E+10	1	-1E+10	1	-1E+10	1	-1E+10	1	-1E+10	1
4901784	112	C	07/29/2018	10:44	-132.051	43.072	0	217.20	0	7.6380	0	34.1310	8	26.648	0	215.362	0	140.3	4	48.2	4	-1E+10	1	-1E+10	1	-1E+10	1	-1E+10	1	-1E+10	1	-1E+10	1
4901784	112	C	07/29/2018	10:44	-132.051	43.072	0	220.10	0	7.6030	0	34.1320	8	26.653	0	218.236	0	140.2	4	48.1	4	-1E+10	1	-1E+10	1	-1E+10	1	-1E+10	1	-1E+10	1	-1E+10	1
4901784	112	C	07/29/2018	10:44	-132.051	43.072	0	223.00	0	7.5790	0	34.1310	8	26.656	0	221.110	0	139.9	4	48.0	4	-1E+10	1	-1E+10	1	-1E+10	1	-1E+10	1	-1E+10	1	-1E+10	1
4901784	112	C	07/29/2018	10:44	-132.051	43.072	0	224.90	0	7.5520	0	34.1320	8	26.661	0	222.993	0	139.7	4	47.9	4	-1E+10	1	-1E+10	1	-1E+10	1	-1E+10	1	-1E+10	1	-1E+10	1
4901784	112	C	07/29/2018	10:44	-132.051	43.072	0	226.90	0	7.5290	0	34.1320	8	26.664	0	224.975	0	139.4	4	47.8	4	-1E+10	1	-1E+10	1	-1E+10	1	-1E+10	1	-1E+10	1	-1E+10	1
4901784	112	C	07/29/2018	10:44	-132.051	43.072	0	229.90	0	7.4670	0	34.1340	8	26.675	0	227.947	0	139.1	4	47.6	4	-1E+10	1	-1E+10	1	-1E+10	1	-1E+10	1	-1E+10	1	-1E+10	1
4901784	112	C	07/29/2018	10:44	-132.051	43.072	0	232.80	0	7.4320	0	34.1350	8	26.680	0	230.821	0	138.9	4	47.5	4	-1E+10	1	-1E+10	1	-1E+10	1	-1E+10	1	-1E+10	1	-1E+10	1
4901784	112	C	07/29/2018	10:44	-132.051	43.072	0	234.70	0	7.4260	0	34.1330	8	26.680	0	232.704	0	138.7	4	47.4	4	-1E+10	1	-1E+10	1	-1E+10	1	-1E+10	1	-1E+10	1	-1E+10	1
4901784	112	C	07/29/2018	10:44	-132.051	43.072	0	237.50	0	7.3960	0	34.1340	8	26.685	0	235.479	0	138.4	4	47.3	4	-1E+10	1	-1E+10	1	-1E+10	1	-1E+10	1	-1E+10	1	-1E+10	1
4901784	112	C	07/29/2018	10:44	-132.051	43.072	0	240.40	0	7.3560	0	34.1350	8	26.691	0	238.352	0	137.9	4	47.1	4	-1E+10	1	-1E+10	1	-1E+10	1	-1E+10	1	-1E+10	1	-1E+10	1
4901784	112	C	07/29/2018	10:44	-132.051	43.072	0	242.40	0	7.3370	0	34.1350	8	26.694	0	240.334	0	137.3	4	46.9	4	-1E+10	1	-1E+10	1	-1E+10	1	-1E+10	1	-1E+10	1	-1E+10	1
4901784	112	C	07/29/2018	10:44	-132.051	43.072	0	244.40	0	7.2840	0	34.1360	8	26.702	0	242.316	0	136.8	4	46.6	4	-1E+10	1	-1E+10	1	-1E+10	1	-1E+10	1	-1E+10	1	-1E+10	1
4901784	112	C	07/29/2018	10:44	-132.051	43.072	0	247.30	0	7.2670	0	34.1350	8	26.704	0	245.189	0	135.9	4	46.3	4	-1E+10	1	-1E+10	1	-1E+10	1	-1E+10	1	-1E+10	1	-1E+10	1
4901784	112	C	07/29/2018	10:44	-132.051	43.072	0	250.20	0	7.2410	0	34.1330	8	26.706	0	248.063	0	135.0	4	45.9	4	-1E+10	1	-1E+10	1	-1E+10	1	-1E+10	1	-1E+10	1	-1E+10	1
4901784	112	C	07/29/2018	10:44	-132.051	43.072	0	252.10	0	7.2020	0	34.1340	8	26.712	0	249.946	0	134.2	4	45.6	4	-1E+10	1	-1E+10	1	-1E+10	1	-1E+10	1	-1E+10	1	-1E+10	1
4901784	112	C	07/29/2018	10:44	-132.051	43.072	0	255.00	0	7.1550	0	34.1340	8	26.719	0	252.819	0	133.3	4	45.3	4	-1E+10	1	-1E+10	1	-1E+10	1	-1E+10	1	-1E+10	1	-1E+10	1
4901784	112	C	07/29/2018	10:44	-132.051	43.072	0	257.80	0	7.1210	0	34.1330	8	26.723	0	255.593	0	132.4	4	45.0	4	-1E+10	1	-1E+10	1	-1E+10	1	-1E+10	1	-1E+10	1	-1E+10	1
4901784	112	C	07/29/2018	10:44	-132.051	43.072	0	259.70	0	7.0830	0	34.1330	8	26.728	0	257.476	0	131.8	4	44.7	4	-1E+10	1	-1E+10	1	-1E+10	1	-1E+10	1	-1E+10	1	-1E+10	1
4901784	112	C	07/29/2018	10:44	-132.051	43.072	0	262.10	0	7.0500	0	34.1330	8	26.732	0	259.854	0	130.9	4	44.4	4	-1E+10	1	-1E+10	1	-1E+10	1	-1E+10	1	-1E+10	1	-1E+10	1
4901784	112	C	07/29/2018	10:44	-132.051	43.072	0	264.80	0	6.9920	0	34.1320	8	26.740	0	262.529	0	129.5	4	43.9	4	-1E+10	1	-1E+10	1	-1E+10	1	-1E+10	1	-1E+10	1	-1E+10	1
4901784	112	C	07/29/2018	10:44	-132.051	43.072	0	267.20	0	6.9540	0	34.1320	8	26.745	0	264.907	0	128.6	4	43.5	4	-1E+10	1	-1E+10	1	-1E+10	1	-1E+10	1	-1E+10	1	-1E+10	1
4901784	112	C	07/29/2018	10:44	-132.051	43.072	0	269.60	0	6.9030	0	34.1320	8	26.752	0	267.285	0	127.8	4	43.2	4	-1E+10	1	-1E+10	1	-1E+10	1	-1E+10	1	-1E+10	1	-1E+10	1
4901784	112	C	07/29/2018	10:44	-132.051	43.072	0	272.70	0	6.8660	0	34.1300	8	26.755	0	270.356	0	126.7	4	42.8	4	-1E+10	1	-1E+10	1	-1E+10	1	-1E+10	1	-1E+10	1	-1E+10	1
4901784	112	C	07/29/2018	10:44	-132.051	43.072	0	275.00	0	6.8010	0	34.1310	8	26.765	0	272.635	0	125.8	4	42.4	4	-1E+10	1	-1E+10	1	-1E+10	1	-1E+10	1	-1E+10	1	-1E+10	1
4901784	112	C	07/29/2018	10:44	-132.051	43.072	0	277.40	0	6.7610	0	34.1300	8	26.770	0	275.013	0	125.2	4	42.2	4	-1E+10	1	-1E+10	1	-1E+10	1	-1E+10	1	-1E+10	1	-1E+10	1
4901784	112	C	07/29/2018	10:44	-132.051	43.072	0	279.70	0	6.7370	0	34.1300	8	26.773	0	277.291	0	124.5	4	41.9	4	-1E+10	1	-1E+10	1	-1E+10	1	-1E+10	1	-1E+10	1	-1E+10	1
4901784	112	C	07/29/2018	10:44	-132.051	43.072	0	282.10	0	6.7180	0	34.1290	8	26.775	0	279.669	0	123.8	4	41.7	4	-1E+10	1	-1E+10	1	-1E+10	1	-1E+10	1	-1E+10	1	-1E+10	1
4901784	112	C	07/29/2018	10:44	-132.051	43.072	0	285.40	0	6.6820	0	34.1290	8	26.779	0	282.938	0	122.9	4	41.3	4	-1E+10	1	-1E+10	1	-1E+10	1	-1E+10	1	-1E+10	1	-1E+10	1
4901784	112	C	07/29/2018	10:44	-132.051	43.072	0	287.90	0	6.6660	0	34.1280	8	26.781	0	285.415	0	122.1	4	41.0	4	-1E+10	1	-1E+10	1	-1E+10	1	-1E+10	1	-1E+10	1	-1E+10	1
4901784	112	C	07/29/2018	10:44	-132.051	43.072	0	290.30	0	6.6210	0	34.1290	8	26.788	0	287.793	0	121.5	4	40.8	4	-1E+10	1	-1E+10	1	-1E+10	1	-1E+10	1	-1E+10	1	-1E+10	1
4901784	112	C	07/29/2018	10:44	-132.051	43.072	0	292.80	0	6.6020	0	34.1290	8	26.790	0	290.269	0	120.8	4	40.5	4	-1E+10	1	-1E+10	1	-1E+10	1	-1E+10	1	-1E+10	1	-1E+10	1
4901784	112	C	07/29/2018	10:44	-132.051	43.072	0	295.30	0	6.5740	0	34.1290	8	26.794	0	292.746	0	120.2	4	40.3	4	-1E+10	1	-1E+10	1	-1E+10	1	-1E+10	1	-1E+10	1	-1E+10	1
4901784	112	C	07/29/2018	10:44	-132.051	43.072	0	297.90	0	6.5530	0	34.1280	8	26.796	0	295.321	0	119.6	4	40.1	4	-1E+10	1	-1E+10	1	-1E+10	1	-1E+10	1	-1E+10	1	-1E+10	1
4901784	112	C	07/29/2018	10:44	-132.051	43.072	0	299.70	0	6.5280	0	34.1280	8	26.799	0	297.105	0	119.3	4	40.0	4	-1E+10	1	-1E+10	1	-1E+10	1	-1E+10	1	-1E+10	1	-1E+10	1
4901784	112	C	07/29/2018	10:44	-132.051	43.072	0	302.30	0	6.4960	0	34.1290	8	26.804	0	299.680	0	119.0	4	39.8	4	-1E+10	1	-1E+10	1	-1E+10	1	-1E+10	1	-1E+10	1	-1E+10	1
4901784	112	C	07/29/2018	10:44	-132.051	43.072	0	304.90	0	6.4710	0	34.1310	8	26.809	0	302.256	0	118.7	4	39.7	4	-1E+10	1	-1E+10	1	-1E+10	1	-1E+10	1	-1E+10	1	-1E+10	1
4901784	112	C	07/29/2018	10:44	-132.051	43.072	0	307.50	0	6.4300	0	34.1300	8	26.814	0	304.831	0	118.0	4	39.5	4	-1E+10	1	-1E+10	1	-1E+10	1	-1E+10	1	-1E+10	1	-1E+10	1
4901784	112	C	07/29/2018	10:44	-132.051	43.072	0	310.10	0	6.3830	0	34.1290	8	26.819	0	307.407	0	117.2	4	39.1	4	-1E+10	1	-1E+10	1	-1E+10	1	-1E+10	1	-1E+10	1	-1E+10	1
4901784	112	C	07/29/2018	10:44	-132.051	43.072	0	312.80	0	6.2980	0	34.1310	8	26.832	0	310.081	0	116.4	4	38.8	4	-1E+10	1	-1E+10	1	-1E+10	1	-1E+10	1	-1E+10	1	-1E+10	1
4901784	112	C	07/29/2018	10:44	-132.051	43.072	0	315.50	0	6.2650	0	34.1300	8	26.835	0	312.756	0	115.9	4	38.6	4	-1E+10	1	-1E+10	1	-1E+10	1	-1E+10	1	-1E+10	1	-1E+10	1
4901784	112	C	07/29/2018	10:44	-132.051	43.072	0	317.30	0	6.2590	0	34.1290	8	26.835	0	314.539	0	115.4	4	38.4	4	-1E+10	1	-1E+10	1	-1E+10	1	-1E+10	1	-1E+10	1	-1E+10	1
4901784	112	C	07/29/2018	10:44	-132.051	43.072	0	319.90	0	6.2360	0	34.1290	8	26.838	0	317.114	0	114.4	4	38.1	4	-1E+10	1	-1E+10	1	-1E+10	1	-1E+10	1	-1E+10	1	-1E+10	1
4901784	112	C	07/29/2018	10:44	-132.051	43.072	0	322.60	0	6.2080	0	34.1260	8	26.839	0	319.789	0	113.1	4	37.6	4	-1E+10	1	-1E+10	1	-1E+10	1	-1E+10	1	-1E+10	1	-1E+10	1
4901784	112	C	07/29/2018	10:44	-132.051	43.072	0	325.30	0	6.1520	0	34.1270	8	26.847	0	322.463	0	111.6	4	37.1	4	-1E+10	1	-1E+10	1	-1E+10	1	-1E+10	1	-1E+10	1	-1E+10	1
4901784	112	C	07/29/2018	10:44	-132.051	43.072	0	328.00	0	6.1150	0	34.1250	8	26.850	0	325.137	0	110.3	4	36.6	4	-1E+10	1	-1E+10	1	-1E+10	1	-1E+10	1	-1E+10	1	-1E+10	1
4901784	112	C	07/29/2018	10:44	-132.051	43.072	0	329.80	0	6.0900	0	34.1250	8	26.854	0	326.920	0	109.4	4	36.3	4	-1E+10	1	-1E+10	1	-1E+10	1	-1E+10	1	-1E+10	1	-1E+10	1
4901784	112	C	07/29/2018	10:44	-132.051	43.072	0	332.50	0	6.0430	0	34.1240	8	26.859	0	329.594	0	108.3	4	35.9	4	-1E+10	1	-1E+10	1	-1E+10	1	-1E+10	1	-1E+10	1	-1E+10	1
4901784	112	C	07/29/2018	10:44	-132.051	43.072	0	335.20	0	6.0110	0	34.1240	8	26.863	0	332.269	0	107.7	4	35.6	4	-1E+10	1	-1E+10	1	-1E+10	1	-1E+10	1	-1E+10	1	-1E+10	1
4901784	112	C	07/29/2018	10:44	-132.051	43.072	0	337.10	0	6.0090	0	34.1230	8	26.862	0	334.151	0	107.3	4	35.5	4	-1E+10	1	-1E+10	1	-1E+10	1	-1E+10	1	-1E+10	1	-1E+10	1
4901784	112	C	07/29/2018	10:44	-132.051	43.072	0	339.80	0	6.0060	0	34.1210	8	26.861	0	336.825	0	106.4	4	35.2	4	-1E+10	1	-1E+10	1	-1E+10	1	-1E+10	1	-1E+10	1	-1E+10	1
4901784	112	C	07/29/2018	10:44	-132.051	43.072	0	342.60	0	5.9690	0	34.1200	8	26.865	0	339.598	0	105.2	4	34.8	4	-1E+10	1	-1E+10	1	-1E+10	1	-1E+10	1	-1E+10	1	-1E+10	1
4901784	112	C	07/29/2018	10:44	-132.051	43.072	0	345.20	0	5.9140	0	34.1210	8	26.873	0	342.173	0	103.4	4	34.1	4	-1E+10	1	-1E+10	1	-1E+10	1	-1E+10	1	-1E+10	1	-1E+10	1
4901784	112	C	07/29/2018	10:44	-132.051	43.072	0	348.00	0	5.8660	0	34.1220	8	26.879	0	344.946	0	100.9	4	33.3	4	-1E+10	1	-1E+10	1	-1E+10	1	-1E+10	1	-1E+10	1	-1E+10	1
4901784	112	C	07/29/2018	10:44	-132.051	43.072	0	349.90	0	5.8470	0	34.1220	8	26.882	0	346.828	0	99.2	4	32.7	4	-1E+10	1	-1E+10	1	-1E+10	1	-1E+10	1	-1E+10	1	-1E+10	1
4901784	112	C	07/29/2018	10:44	-132.051	43.072	0	352.70	0	5.8190	0	34.1230	8	26.886	0	349.601	0	96.4	4	31.8	4	-1E+10	1	-1E+10	1	-1E+10	1	-1E+10	1	-1E+10	1	-1E+10	1
4901784	112	C	07/29/2018	10:44	-132.051	43.072	0	355.40	0	5.7850	0	34.1250	8	26.892	0	352.275	0	94.0	4	31.0	4	-1E+10	1	-1E+10	1	-1E+10	1	-1E+10	1	-1E+10	1	-1E+10	1
4901784	112	C	07/29/2018	10:44	-132.051	43.072	0	357.20	0	5.7640	0	34.1250	8	26.895	0	354.058	0	92.7	4	30.5	4	-1E+10	1	-1E+10	1	-1E+10	1	-1E+10	1	-1E+10	1	-1E+10	1
4901784	112	C	07/29/2018	10:44	-132.051	43.072	0	360.00	0	5.7040	0	34.1280	8	26.904	0	356.830	0	90.9	4	29.9	4	-1E+10	1	-1E+10	1	-1E+10	1	-1E+10	1	-1E+10	1	-1E+10	1
4901784	112	C	07/29/2018	10:44	-132.051	43.072	0	362.70	0	5.6550	0	34.1260	8	26.909	0	359.504	0	89.7	4	29.4	4	-1E+10	1	-1E+10	1	-1E+10	1	-1E+10	1	-1E+10	1	-1E+10	1
4901784	112	C	07/29/2018	10:44	-132.051	43.072	0	364.60	0	5.6210	0	34.1260	8	26.913	0	361.386	0	88.9	4	29.2	4	-1E+10	1	-1E+10	1	-1E+10	1	-1E+10	1	-1E+10	1	-1E+10	1
4901784	112	C	07/29/2018	10:44	-132.051	43.072	0	367.30	0	5.5820	0	34.1270	8	26.918	0	364.060	0	87.6	4	28.7	4	-1E+10	1	-1E+10	1	-1E+10	1	-1E+10	1	-1E+10	1	-1E+10	1
4901784	112	C	07/29/2018	10:44	-132.051	43.072	0	370.10	0	5.5470	0	34.1280	8	26.923	0	366.833	0	86.4	4	28.3	4	-1E+10	1	-1E+10	1	-1E+10	1	-1E+10	1	-1E+10	1	-1E+10	1
4901784	112	C	07/29/2018	10:44	-132.051	43.072	0	372.00	0	5.5130	0	34.1300	8	26.929	0	368.714	0	85.9	4	28.1	4	-1E+10	1	-1E+10	1	-1E+10	1	-1E+10	1	-1E+10	1	-1E+10	1
4901784	112	C	07/29/2018	10:44	-132.051	43.072	0	374.70	0	5.4990	0	34.1290	8	26.930	0	371.388	0	85.1	4	27.8	4	-1E+10	1	-1E+10	1	-1E+10	1	-1E+10	1	-1E+10	1	-1E+10	1
4901784	112	C	07/29/2018	10:44	-132.051	43.072	0	378.00	0	5.4690	0	34.1280	8	26.933	0	374.656	0	84.0	4	27.5	4	-1E+10	1	-1E+10	1	-1E+10	1	-1E+10	1	-1E+10	1	-1E+10	1
4901784	112	C	07/29/2018	10:44	-132.051	43.072	0	380.00	0	5.4390	0	34.1280	8	26.936	0	376.636	0	83.2	4	27.2	4	-1E+10	1	-1E+10	1	-1E+10	1	-1E+10	1	-1E+10	1	-1E+10	1
4901784	112	C	07/29/2018	10:44	-132.051	43.072	0	382.30	0	5.4040	0	34.1310	8	26.943	0	378.914	0	82.2	4	26.8	4	-1E+10	1	-1E+10	1	-1E+10	1	-1E+10	1	-1E+10	1	-1E+10	1
4901784	112	C	07/29/2018	10:44	-132.051	43.072	0	384.60	0	5.3710	0	34.1340	8	26.949	0	381.191	0	81.3	4	26.5	4	-1E+10	1	-1E+10	1	-1E+10	1	-1E+10	1	-1E+10	1	-1E+10	1
4901784	112	C	07/29/2018	10:44	-132.051	43.072	0	387.00	0	5.3600	0	34.1340	8	26.951	0	383.568	0	80.7	4	26.3	4	-1E+10	1	-1E+10	1	-1E+10	1	-1E+10	1	-1E+10	1	-1E+10	1
4901784	112	C	07/29/2018	10:44	-132.051	43.072	0	390.20	0	5.3420	0	34.1340	8	26.953	0	386.736	0	79.7	4	26.0	4	-1E+10	1	-1E+10	1	-1E+10	1	-1E+10	1	-1E+10	1	-1E+10	1
4901784	112	C	07/29/2018	10:44	-132.051	43.072	0	392.60	0	5.3200	0	34.1350	8	26.956	0	389.113	0	78.9	4	25.7	4	-1E+10	1	-1E+10	1	-1E+10	1	-1E+10	1	-1E+10	1	-1E+10	1
4901784	112	C	07/29/2018	10:44	-132.051	43.072	0	394.90	0	5.3010	0	34.1370	8	26.960	0	391.390	0	78.0	4	25.4	4	-1E+10	1	-1E+10	1	-1E+10	1	-1E+10	1	-1E+10	1	-1E+10	1
4901784	112	C	07/29/2018	10:44	-132.051	43.072	0	397.40	0	5.2850	0	34.1410	8	26.965	0	393.866	0	77.0	4	25.1	4	-1E+10	1	-1E+10	1	-1E+10	1	-1E+10	1	-1E+10	1	-1E+10	1
4901784	112	C	07/29/2018	10:44	-132.051	43.072	0	399.80	0	5.2620	0	34.1430	8	26.969	0	396.242	0	76.1	4	24.8	4	-1E+10	1	-1E+10	1	-1E+10	1	-1E+10	1	-1E+10	1	-1E+10	1
4901784	112	C	07/29/2018	10:44	-132.051	43.072	0	402.30	0	5.2310	0	34.1480	8	26.977	0	398.717	0	75.2	4	24.4	4	-1E+10	1	-1E+10	1	-1E+10	1	-1E+10	1	-1E+10	1	-1E+10	1
4901784	112	C	07/29/2018	10:44	-132.051	43.072	0	404.80	0	5.2110	0	34.1490	8	26.980	0	401.193	0	74.5	4	24.2	4	-1E+10	1	-1E+10	1	-1E+10	1	-1E+10	1	-1E+10	1	-1E+10	1
4901784	112	C	07/29/2018	10:44	-132.051	43.072	0	407.30	0	5.1860	0	34.1530	8	26.986	0	403.668	0	73.8	4	24.0	4	-1E+10	1	-1E+10	1	-1E+10	1	-1E+10	1	-1E+10	1	-1E+10	1
4901784	112	C	07/29/2018	10:44	-132.051	43.072	0	409.80	0	5.1740	0	34.1540	8	26.988	0	406.143	0	73.3	4	23.8	4	-1E+10	1	-1E+10	1	-1E+10	1	-1E+10	1	-1E+10	1	-1E+10	1
4901784	112	C	07/29/2018	10:44	-132.051	43.072	0	412.30	0	5.1550	0	34.1550	8	26.991	0	408.619	0	72.7	4	23.6	4	-1E+10	1	-1E+10	1	-1E+10	1	-1E+10	1	-1E+10	1	-1E+10	1
4901784	112	C	07/29/2018	10:44	-132.051	43.072	0	414.80	0	5.1390	0	34.1570	8	26.995	0	411.094	0	72.0	4	23.4	4	-1E+10	1	-1E+10	1	-1E+10	1	-1E+10	1	-1E+10	1	-1E+10	1
4901784	112	C	07/29/2018	10:44	-132.051	43.072	0	417.30	0	5.1240	0	34.1590	8	26.998	0	413.569	0	71.7	4	23.3	4	-1E+10	1	-1E+10	1	-1E+10	1	-1E+10	1	-1E+10	1	-1E+10	1
4901784	112	C	07/29/2018	10:44	-132.051	43.072	0	419.80	0	5.1180	0	34.1590	8	26.999	0	416.044	0	71.3	4	23.1	4	-1E+10	1	-1E+10	1	-1E+10	1	-1E+10	1	-1E+10	1	-1E+10	1
4901784	112	C	07/29/2018	10:44	-132.051	43.072	0	422.40	0	5.0930	0	34.1620	8	27.004	0	418.618	0	70.9	4	23.0	4	-1E+10	1	-1E+10	1	-1E+10	1	-1E+10	1	-1E+10	1	-1E+10	1
4901784	112	C	07/29/2018	10:44	-132.051	43.072	0	424.90	0	5.0750	0	34.1640	8	27.008	0	421.093	0	70.4	4	22.8	4	-1E+10	1	-1E+10	1	-1E+10	1	-1E+10	1	-1E+10	1	-1E+10	1
4901784	112	C	07/29/2018	10:44	-132.051	43.072	0	427.50	0	5.0670	0	34.1630	8	27.008	0	423.667	0	69.9	4	22.6	4	-1E+10	1	-1E+10	1	-1E+10	1	-1E+10	1	-1E+10	1	-1E+10	1
4901784	112	C	07/29/2018	10:44	-132.051	43.072	0	430.20	0	5.0430	0	34.1660	8	27.013	0	426.340	0	69.0	4	22.3	4	-1E+10	1	-1E+10	1	-1E+10	1	-1E+10	1	-1E+10	1	-1E+10	1
4901784	112	C	07/29/2018	10:44	-132.051	43.072	0	432.80	0	5.0270	0	34.1680	8	27.017	0	428.914	0	68.2	4	22.1	4	-1E+10	1	-1E+10	1	-1E+10	1	-1E+10	1	-1E+10	1	-1E+10	1
4901784	112	C	07/29/2018	10:44	-132.051	43.072	0	435.30	0	5.0130	0	34.1690	8	27.019	0	431.389	0	67.5	4	21.8	4	-1E+10	1	-1E+10	1	-1E+10	1	-1E+10	1	-1E+10	1	-1E+10	1
4901784	112	C	07/29/2018	10:44	-132.051	43.072	0	438.00	0	4.9540	0	34.1750	8	27.030	0	434.062	0	67.1	4	21.7	4	-1E+10	1	-1E+10	1	-1E+10	1	-1E+10	1	-1E+10	1	-1E+10	1
4901784	112	C	07/29/2018	10:44	-132.051	43.072	0	439.70	0	4.9550	0	34.1740	8	27.030	0	435.745	0	67.0	4	21.7	4	-1E+10	1	-1E+10	1	-1E+10	1	-1E+10	1	-1E+10	1	-1E+10	1
4901784	112	C	07/29/2018	10:44	-132.051	43.072	0	442.30	0	4.9440	0	34.1750	8	27.032	0	438.319	0	66.8	4	21.6	4	-1E+10	1	-1E+10	1	-1E+10	1	-1E+10	1	-1E+10	1	-1E+10	1
4901784	112	C	07/29/2018	10:44	-132.051	43.072	0	445.10	0	4.9150	0	34.1760	8	27.036	0	441.091	0	66.4	4	21.4	4	-1E+10	1	-1E+10	1	-1E+10	1	-1E+10	1	-1E+10	1	-1E+10	1
4901784	112	C	07/29/2018	10:44	-132.051	43.072	0	447.00	0	4.8930	0	34.1770	8	27.039	0	442.972	0	66.2	4	21.3	4	-1E+10	1	-1E+10	1	-1E+10	1	-1E+10	1	-1E+10	1	-1E+10	1
4901784	112	C	07/29/2018	10:44	-132.051	43.072	0	449.80	0	4.8690	0	34.1800	8	27.044	0	445.743	0	66.0	4	21.3	4	-1E+10	1	-1E+10	1	-1E+10	1	-1E+10	1	-1E+10	1	-1E+10	1
4901784	112	C	07/29/2018	10:44	-132.051	43.072	0	452.60	0	4.8590	0	34.1800	8	27.045	0	448.515	0	65.6	4	21.1	4	-1E+10	1	-1E+10	1	-1E+10	1	-1E+10	1	-1E+10	1	-1E+10	1
4901784	112	C	07/29/2018	10:44	-132.051	43.072	0	454.50	0	4.8550	0	34.1810	8	27.047	0	450.396	0	65.1	4	21.0	4	-1E+10	1	-1E+10	1	-1E+10	1	-1E+10	1	-1E+10	1	-1E+10	1
4901784	112	C	07/29/2018	10:44	-132.051	43.072	0	457.30	0	4.8420	0	34.1820	8	27.049	0	453.168	0	64.1	4	20.7	4	-1E+10	1	-1E+10	1	-1E+10	1	-1E+10	1	-1E+10	1	-1E+10	1
4901784	112	C	07/29/2018	10:44	-132.051	43.072	0	460.20	0	4.8150	0	34.1860	8	27.055	0	456.038	0	62.9	4	20.3	4	-1E+10	1	-1E+10	1	-1E+10	1	-1E+10	1	-1E+10	1	-1E+10	1
4901784	112	C	07/29/2018	10:44	-132.051	43.072	0	462.10	0	4.8070	0	34.1860	8	27.056	0	457.919	0	62.1	4	20.0	4	-1E+10	1	-1E+10	1	-1E+10	1	-1E+10	1	-1E+10	1	-1E+10	1
4901784	112	C	07/29/2018	10:44	-132.051	43.072	0	464.90	0	4.7910	0	34.1890	8	27.060	0	460.690	0	60.7	4	19.5	4	-1E+10	1	-1E+10	1	-1E+10	1	-1E+10	1	-1E+10	1	-1E+10	1
4901784	112	C	07/29/2018	10:44	-132.051	43.072	0	467.80	0	4.7630	0	34.1950	8	27.068	0	463.561	0	59.3	4	19.1	4	-1E+10	1	-1E+10	1	-1E+10	1	-1E+10	1	-1E+10	1	-1E+10	1
4901784	112	C	07/29/2018	10:44	-132.051	43.072	0	469.70	0	4.7640	0	34.1990	8	27.071	0	465.442	0	58.6	4	18.8	4	-1E+10	1	-1E+10	1	-1E+10	1	-1E+10	1	-1E+10	1	-1E+10	1
4901784	112	C	07/29/2018	10:44	-132.051	43.072	0	472.50	0	4.7550	0	34.1980	8	27.071	0	468.213	0	57.8	4	18.6	4	-1E+10	1	-1E+10	1	-1E+10	1	-1E+10	1	-1E+10	1	-1E+10	1
4901784	112	C	07/29/2018	10:44	-132.051	43.072	0	475.40	0	4.7480	0	34.2020	8	27.075	0	471.084	0	56.9	4	18.3	4	-1E+10	1	-1E+10	1	-1E+10	1	-1E+10	1	-1E+10	1	-1E+10	1
4901784	112	C	07/29/2018	10:44	-132.051	43.072	0	477.30	0	4.7420	0	34.2030	8	27.077	0	472.964	0	56.6	4	18.2	4	-1E+10	1	-1E+10	1	-1E+10	1	-1E+10	1	-1E+10	1	-1E+10	1
4901784	112	C	07/29/2018	10:44	-132.051	43.072	0	480.20	0	4.7390	0	34.2030	8	27.077	0	475.834	0	56.2	4	18.1	4	-1E+10	1	-1E+10	1	-1E+10	1	-1E+10	1	-1E+10	1	-1E+10	1
4901784	112	C	07/29/2018	10:44	-132.051	43.072	0	483.40	0	4.7360	0	34.2030	8	27.078	0	479.002	0	55.5	4	17.8	4	-1E+10	1	-1E+10	1	-1E+10	1	-1E+10	1	-1E+10	1	-1E+10	1
4901784	112	C	07/29/2018	10:44	-132.051	43.072	0	484.70	0	4.7310	0	34.2050	8	27.080	0	480.288	0	54.9	4	17.6	4	-1E+10	1	-1E+10	1	-1E+10	1	-1E+10	1	-1E+10	1	-1E+10	1
4901784	112	C	07/29/2018	10:44	-132.051	43.072	0	487.90	0	4.7190	0	34.2090	8	27.084	0	483.455	0	54.0	4	17.3	4	-1E+10	1	-1E+10	1	-1E+10	1	-1E+10	1	-1E+10	1	-1E+10	1
4901784	112	C	07/29/2018	10:44	-132.051	43.072	0	490.40	0	4.7100	0	34.2110	8	27.087	0	485.930	0	53.6	4	17.2	4	-1E+10	1	-1E+10	1	-1E+10	1	-1E+10	1	-1E+10	1	-1E+10	1
4901784	112	C	07/29/2018	10:44	-132.051	43.072	0	492.80	0	4.7070	0	34.2110	8	27.087	0	488.305	0	53.3	4	17.1	4	-1E+10	1	-1E+10	1	-1E+10	1	-1E+10	1	-1E+10	1	-1E+10	1
4901784	112	C	07/29/2018	10:44	-132.051	43.072	0	495.20	0	4.7020	0	34.2130	8	27.089	0	490.680	0	52.7	4	16.9	4	-1E+10	1	-1E+10	1	-1E+10	1	-1E+10	1	-1E+10	1	-1E+10	1
4901784	112	C	07/29/2018	10:44	-132.051	43.072	0	497.70	0	4.6990	0	34.2130	8	27.090	0	493.155	0	52.1	4	16.7	4	-1E+10	1	-1E+10	1	-1E+10	1	-1E+10	1	-1E+10	1	-1E+10	1
4901784	112	C	07/29/2018	10:44	-132.051	43.072	0	500.10	0	4.6890	0	34.2140	8	27.092	0	495.530	0	51.3	4	16.5	4	-1E+10	1	-1E+10	1	-1E+10	1	-1E+10	1	-1E+10	1	-1E+10	1
4901784	112	C	07/29/2018	10:44	-132.051	43.072	0	505.00	0	4.6770	0	34.2200	8	27.098	0	500.379	0	49.6	4	15.9	4	-1E+10	1	-1E+10	1	-1E+10	1	-1E+10	1	-1E+10	1	-1E+10	1
4901784	112	C	07/29/2018	10:44	-132.051	43.072	0	510.00	0	4.6520	0	34.2250	8	27.104	0	505.327	0	47.9	4	15.4	4	-1E+10	1	-1E+10	1	-1E+10	1	-1E+10	1	-1E+10	1	-1E+10	1
4901784	112	C	07/29/2018	10:44	-132.051	43.072	0	515.00	0	4.6350	0	34.2300	8	27.110	0	510.275	0	46.2	4	14.8	4	-1E+10	1	-1E+10	1	-1E+10	1	-1E+10	1	-1E+10	1	-1E+10	1
4901784	112	C	07/29/2018	10:44	-132.051	43.072	0	519.90	0	4.6180	0	34.2350	8	27.116	0	515.124	0	44.6	4	14.3	4	-1E+10	1	-1E+10	1	-1E+10	1	-1E+10	1	-1E+10	1	-1E+10	1
4901784	112	C	07/29/2018	10:44	-132.051	43.072	0	524.90	0	4.5880	0	34.2410	8	27.124	0	520.072	0	43.0	4	13.8	4	-1E+10	1	-1E+10	1	-1E+10	1	-1E+10	1	-1E+10	1	-1E+10	1
4901784	112	C	07/29/2018	10:44	-132.051	43.072	0	529.80	0	4.5700	0	34.2460	8	27.130	0	524.921	0	41.2	4	13.2	4	-1E+10	1	-1E+10	1	-1E+10	1	-1E+10	1	-1E+10	1	-1E+10	1
4901784	112	C	07/29/2018	10:44	-132.051	43.072	0	534.70	0	4.5620	0	34.2510	8	27.135	0	529.770	0	39.2	4	12.5	4	-1E+10	1	-1E+10	1	-1E+10	1	-1E+10	1	-1E+10	1	-1E+10	1
4901784	112	C	07/29/2018	10:44	-132.051	43.072	0	539.70	0	4.5510	0	34.2580	8	27.142	0	534.717	0	37.1	4	11.9	4	-1E+10	1	-1E+10	1	-1E+10	1	-1E+10	1	-1E+10	1	-1E+10	1
4901784	112	C	07/29/2018	10:44	-132.051	43.072	0	544.60	0	4.5380	0	34.2650	8	27.149	0	539.565	0	35.5	4	11.4	4	-1E+10	1	-1E+10	1	-1E+10	1	-1E+10	1	-1E+10	1	-1E+10	1
4901784	112	C	07/29/2018	10:44	-132.051	43.072	0	549.60	0	4.5340	0	34.2710	8	27.154	0	544.513	0	34.5	4	11.1	4	-1E+10	1	-1E+10	1	-1E+10	1	-1E+10	1	-1E+10	1	-1E+10	1
4901784	112	C	07/29/2018	10:44	-132.051	43.072	0	554.60	0	4.5250	0	34.2740	8	27.158	0	549.460	0	33.9	4	10.9	4	-1E+10	1	-1E+10	1	-1E+10	1	-1E+10	1	-1E+10	1	-1E+10	1
4901784	112	C	07/29/2018	10:44	-132.051	43.072	0	559.60	0	4.5080	0	34.2750	8	27.160	0	554.407	0	33.3	4	10.6	4	-1E+10	1	-1E+10	1	-1E+10	1	-1E+10	1	-1E+10	1	-1E+10	1
4901784	112	C	07/29/2018	10:44	-132.051	43.072	0	564.70	0	4.4820	0	34.2790	8	27.166	0	559.453	0	32.4	4	10.3	4	-1E+10	1	-1E+10	1	-1E+10	1	-1E+10	1	-1E+10	1	-1E+10	1
4901784	112	C	07/29/2018	10:44	-132.051	43.072	0	569.90	0	4.4620	0	34.2830	8	27.172	0	564.597	0	31.6	4	10.1	4	-1E+10	1	-1E+10	1	-1E+10	1	-1E+10	1	-1E+10	1	-1E+10	1
4901784	112	C	07/29/2018	10:44	-132.051	43.072	0	575.20	0	4.4510	0	34.2870	8	27.176	0	569.841	0	31.1	4	9.9	4	-1E+10	1	-1E+10	1	-1E+10	1	-1E+10	1	-1E+10	1	-1E+10	1
4901784	112	C	07/29/2018	10:44	-132.051	43.072	0	580.40	0	4.4350	0	34.2880	8	27.179	0	574.985	0	30.5	4	9.7	4	-1E+10	1	-1E+10	1	-1E+10	1	-1E+10	1	-1E+10	1	-1E+10	1
4901784	112	C	07/29/2018	10:44	-132.051	43.072	0	585.60	0	4.4120	0	34.2900	8	27.183	0	580.129	0	29.6	4	9.4	4	-1E+10	1	-1E+10	1	-1E+10	1	-1E+10	1	-1E+10	1	-1E+10	1
4901784	112	C	07/29/2018	10:44	-132.051	43.072	0	590.00	0	4.3830	0	34.2970	8	27.191	0	584.482	0	28.7	4	9.1	4	-1E+10	1	-1E+10	1	-1E+10	1	-1E+10	1	-1E+10	1	-1E+10	1
4901784	112	C	07/29/2018	10:44	-132.051	43.072	0	594.40	0	4.3720	0	34.3000	8	27.195	0	588.835	0	27.9	4	8.9	4	-1E+10	1	-1E+10	1	-1E+10	1	-1E+10	1	-1E+10	1	-1E+10	1
4901784	112	C	07/29/2018	10:44	-132.051	43.072	0	599.70	0	4.3560	0	34.3050	8	27.201	0	594.077	0	27.0	4	8.6	4	-1E+10	1	-1E+10	1	-1E+10	1	-1E+10	1	-1E+10	1	-1E+10	1
4901784	112	C	07/29/2018	10:44	-132.051	43.072	0	605.00	0	4.3380	0	34.3100	8	27.207	0	599.320	0	26.2	4	8.4	4	-1E+10	1	-1E+10	1	-1E+10	1	-1E+10	1	-1E+10	1	-1E+10	1
4901784	112	C	07/29/2018	10:44	-132.051	43.072	0	610.30	0	4.3330	0	34.3140	8	27.210	0	604.563	0	25.5	4	8.1	4	-1E+10	1	-1E+10	1	-1E+10	1	-1E+10	1	-1E+10	1	-1E+10	1
4901784	112	C	07/29/2018	10:44	-132.051	43.072	0	614.80	0	4.3200	0	34.3190	8	27.216	0	609.014	0	24.9	4	7.9	4	-1E+10	1	-1E+10	1	-1E+10	1	-1E+10	1	-1E+10	1	-1E+10	1
4901784	112	C	07/29/2018	10:44	-132.051	43.072	0	619.30	0	4.3090	0	34.3220	8	27.219	0	613.465	0	24.5	4	7.8	4	-1E+10	1	-1E+10	1	-1E+10	1	-1E+10	1	-1E+10	1	-1E+10	1
4901784	112	C	07/29/2018	10:44	-132.051	43.072	0	624.70	0	4.2950	0	34.3260	8	27.224	0	618.806	0	23.5	4	7.5	4	-1E+10	1	-1E+10	1	-1E+10	1	-1E+10	1	-1E+10	1	-1E+10	1
4901784	112	C	07/29/2018	10:44	-132.051	43.072	0	630.20	0	4.2870	0	34.3350	8	27.232	0	624.246	0	22.5	4	7.1	4	-1E+10	1	-1E+10	1	-1E+10	1	-1E+10	1	-1E+10	1	-1E+10	1
4901784	112	C	07/29/2018	10:44	-132.051	43.072	0	635.60	0	4.2670	0	34.3390	8	27.238	0	629.587	0	22.0	4	7.0	4	-1E+10	1	-1E+10	1	-1E+10	1	-1E+10	1	-1E+10	1	-1E+10	1
4901784	112	C	07/29/2018	10:44	-132.051	43.072	0	640.20	0	4.2610	0	34.3420	8	27.241	0	634.136	0	21.7	4	6.9	4	-1E+10	1	-1E+10	1	-1E+10	1	-1E+10	1	-1E+10	1	-1E+10	1
4901784	112	C	07/29/2018	10:44	-132.051	43.072	0	644.80	0	4.2570	0	34.3430	8	27.242	0	638.685	0	21.4	4	6.8	4	-1E+10	1	-1E+10	1	-1E+10	1	-1E+10	1	-1E+10	1	-1E+10	1
4901784	112	C	07/29/2018	10:44	-132.051	43.072	0	650.40	0	4.2350	0	34.3470	8	27.247	0	644.224	0	20.8	4	6.6	4	-1E+10	1	-1E+10	1	-1E+10	1	-1E+10	1	-1E+10	1	-1E+10	1
4901784	112	C	07/29/2018	10:44	-132.051	43.072	0	654.90	0	4.2200	0	34.3510	8	27.252	0	648.674	0	20.4	4	6.5	4	-1E+10	1	-1E+10	1	-1E+10	1	-1E+10	1	-1E+10	1	-1E+10	1
4901784	112	C	07/29/2018	10:44	-132.051	43.072	0	659.60	0	4.2030	0	34.3560	8	27.258	0	653.322	0	20.0	4	6.3	4	-1E+10	1	-1E+10	1	-1E+10	1	-1E+10	1	-1E+10	1	-1E+10	1
4901784	112	C	07/29/2018	10:44	-132.051	43.072	0	665.30	0	4.1910	0	34.3590	8	27.262	0	658.959	0	19.6	4	6.2	4	-1E+10	1	-1E+10	1	-1E+10	1	-1E+10	1	-1E+10	1	-1E+10	1
4901784	112	C	07/29/2018	10:44	-132.051	43.072	0	670.00	0	4.1780	0	34.3620	8	27.265	0	663.606	0	19.3	4	6.1	4	-1E+10	1	-1E+10	1	-1E+10	1	-1E+10	1	-1E+10	1	-1E+10	1
4901784	112	C	07/29/2018	10:44	-132.051	43.072	0	674.70	0	4.1680	0	34.3640	8	27.268	0	668.254	0	19.1	4	6.1	4	-1E+10	1	-1E+10	1	-1E+10	1	-1E+10	1	-1E+10	1	-1E+10	1
4901784	112	C	07/29/2018	10:44	-132.051	43.072	0	680.30	0	4.1500	0	34.3690	8	27.274	0	673.791	0	18.7	4	5.9	4	-1E+10	1	-1E+10	1	-1E+10	1	-1E+10	1	-1E+10	1	-1E+10	1
4901784	112	C	07/29/2018	10:44	-132.051	43.072	0	684.90	0	4.1410	0	34.3700	8	27.276	0	678.340	0	18.5	4	5.9	4	-1E+10	1	-1E+10	1	-1E+10	1	-1E+10	1	-1E+10	1	-1E+10	1
4901784	112	C	07/29/2018	10:44	-132.051	43.072	0	689.60	0	4.1310	0	34.3730	8	27.279	0	682.987	0	18.0	4	5.7	4	-1E+10	1	-1E+10	1	-1E+10	1	-1E+10	1	-1E+10	1	-1E+10	1
4901784	112	C	07/29/2018	10:44	-132.051	43.072	0	695.40	0	4.1190	0	34.3780	8	27.284	0	688.722	0	17.5	4	5.6	4	-1E+10	1	-1E+10	1	-1E+10	1	-1E+10	1	-1E+10	1	-1E+10	1
4901784	112	C	07/29/2018	10:44	-132.051	43.072	0	700.10	0	4.0980	0	34.3850	8	27.292	0	693.369	0	17.1	4	5.4	4	-1E+10	1	-1E+10	1	-1E+10	1	-1E+10	1	-1E+10	1	-1E+10	1
4901784	112	C	07/29/2018	10:44	-132.051	43.072	0	704.70	0	4.0980	0	34.3870	8	27.294	0	697.917	0	16.8	4	5.3	4	-1E+10	1	-1E+10	1	-1E+10	1	-1E+10	1	-1E+10	1	-1E+10	1
4901784	112	C	07/29/2018	10:44	-132.051	43.072	0	710.30	0	4.0920	0	34.3920	8	27.299	0	703.454	0	16.3	4	5.2	4	-1E+10	1	-1E+10	1	-1E+10	1	-1E+10	1	-1E+10	1	-1E+10	1
4901784	112	C	07/29/2018	10:44	-132.051	43.072	0	714.90	0	4.0800	0	34.3950	8	27.302	0	708.002	0	15.9	4	5.0	4	-1E+10	1	-1E+10	1	-1E+10	1	-1E+10	1	-1E+10	1	-1E+10	1
4901784	112	C	07/29/2018	10:44	-132.051	43.072	0	719.60	0	4.0630	0	34.4010	8	27.309	0	712.648	0	15.5	4	4.9	4	-1E+10	1	-1E+10	1	-1E+10	1	-1E+10	1	-1E+10	1	-1E+10	1
4901784	112	C	07/29/2018	10:44	-132.051	43.072	0	725.20	0	4.0480	0	34.4070	8	27.315	0	718.185	0	15.0	4	4.8	4	-1E+10	1	-1E+10	1	-1E+10	1	-1E+10	1	-1E+10	1	-1E+10	1
4901784	112	C	07/29/2018	10:44	-132.051	43.072	0	729.80	0	4.0510	0	34.4150	8	27.321	0	722.732	0	14.6	4	4.6	4	-1E+10	1	-1E+10	1	-1E+10	1	-1E+10	1	-1E+10	1	-1E+10	1
4901784	112	C	07/29/2018	10:44	-132.051	43.072	0	734.50	0	4.0510	0	34.4180	8	27.324	0	727.378	0	14.5	4	4.6	4	-1E+10	1	-1E+10	1	-1E+10	1	-1E+10	1	-1E+10	1	-1E+10	1
4901784	112	C	07/29/2018	10:44	-132.051	43.072	0	740.10	0	4.0120	0	34.4200	8	27.329	0	732.914	0	14.3	4	4.5	4	-1E+10	1	-1E+10	1	-1E+10	1	-1E+10	1	-1E+10	1	-1E+10	1
4901784	112	C	07/29/2018	10:44	-132.051	43.072	0	745.40	0	4.0090	0	34.4240	8	27.333	0	738.153	0	14.0	4	4.4	4	-1E+10	1	-1E+10	1	-1E+10	1	-1E+10	1	-1E+10	1	-1E+10	1
4901784	112	C	07/29/2018	10:44	-132.051	43.072	0	750.20	0	3.9980	0	34.4280	8	27.337	0	742.898	0	13.7	4	4.3	4	-1E+10	1	-1E+10	1	-1E+10	1	-1E+10	1	-1E+10	1	-1E+10	1
4901784	112	C	07/29/2018	10:44	-132.051	43.072	0	755.00	0	3.9840	0	34.4330	8	27.343	0	747.643	0	13.3	4	4.2	4	-1E+10	1	-1E+10	1	-1E+10	1	-1E+10	1	-1E+10	1	-1E+10	1
4901784	112	C	07/29/2018	10:44	-132.051	43.072	0	759.90	0	3.9760	0	34.4360	8	27.346	0	752.486	0	13.2	4	4.2	4	-1E+10	1	-1E+10	1	-1E+10	1	-1E+10	1	-1E+10	1	-1E+10	1
4901784	112	C	07/29/2018	10:44	-132.051	43.072	0	764.80	0	3.9250	0	34.4370	8	27.352	0	757.330	0	13.1	4	4.1	4	-1E+10	1	-1E+10	1	-1E+10	1	-1E+10	1	-1E+10	1	-1E+10	1
4901784	112	C	07/29/2018	10:44	-132.051	43.072	0	769.70	0	3.9220	0	34.4410	8	27.355	0	762.173	0	13.0	4	4.1	4	-1E+10	1	-1E+10	1	-1E+10	1	-1E+10	1	-1E+10	1	-1E+10	1
4901784	112	C	07/29/2018	10:44	-132.051	43.072	0	774.70	0	3.9130	0	34.4430	8	27.358	0	767.115	0	12.7	4	4.0	4	-1E+10	1	-1E+10	1	-1E+10	1	-1E+10	1	-1E+10	1	-1E+10	1
4901784	112	C	07/29/2018	10:44	-132.051	43.072	0	779.70	0	3.9020	0	34.4470	8	27.362	0	772.057	0	12.7	4	4.0	4	-1E+10	1	-1E+10	1	-1E+10	1	-1E+10	1	-1E+10	1	-1E+10	1
4901784	112	C	07/29/2018	10:44	-132.051	43.072	0	784.80	0	3.8540	0	34.4470	8	27.367	0	777.097	0	12.8	4	4.0	4	-1E+10	1	-1E+10	1	-1E+10	1	-1E+10	1	-1E+10	1	-1E+10	1
4901784	112	C	07/29/2018	10:44	-132.051	43.072	0	789.80	0	3.8380	0	34.4510	8	27.372	0	782.039	0	12.6	4	4.0	4	-1E+10	1	-1E+10	1	-1E+10	1	-1E+10	1	-1E+10	1	-1E+10	1
4901784	112	C	07/29/2018	10:44	-132.051	43.072	0	794.90	0	3.8110	0	34.4530	8	27.376	0	787.079	0	12.6	4	4.0	4	-1E+10	1	-1E+10	1	-1E+10	1	-1E+10	1	-1E+10	1	-1E+10	1
4901784	112	C	07/29/2018	10:44	-132.051	43.072	0	800.20	0	3.7940	0	34.4560	8	27.380	0	792.317	0	12.4	4	3.9	4	-1E+10	1	-1E+10	1	-1E+10	1	-1E+10	1	-1E+10	1	-1E+10	1
4901784	112	C	07/29/2018	10:44	-132.051	43.072	0	805.40	0	3.7720	0	34.4590	8	27.385	0	797.456	0	12.3	4	3.9	4	-1E+10	1	-1E+10	1	-1E+10	1	-1E+10	1	-1E+10	1	-1E+10	1
4901784	112	C	07/29/2018	10:44	-132.051	43.072	0	810.60	0	3.7590	0	34.4610	8	27.388	0	802.594	0	12.2	4	3.8	4	-1E+10	1	-1E+10	1	-1E+10	1	-1E+10	1	-1E+10	1	-1E+10	1
4901784	112	C	07/29/2018	10:44	-132.051	43.072	0	815.00	0	3.7520	0	34.4640	8	27.391	0	806.942	0	12.0	4	3.8	4	-1E+10	1	-1E+10	1	-1E+10	1	-1E+10	1	-1E+10	1	-1E+10	1
4901784	112	C	07/29/2018	10:44	-132.051	43.072	0	819.40	0	3.7450	0	34.4700	8	27.397	0	811.290	0	11.8	4	3.7	4	-1E+10	1	-1E+10	1	-1E+10	1	-1E+10	1	-1E+10	1	-1E+10	1
4901784	112	C	07/29/2018	10:44	-132.051	43.072	0	824.70	0	3.7450	0	34.4740	8	27.400	0	816.527	0	11.6	4	3.7	4	-1E+10	1	-1E+10	1	-1E+10	1	-1E+10	1	-1E+10	1	-1E+10	1
4901784	112	C	07/29/2018	10:44	-132.051	43.072	0	830.10	0	3.7310	0	34.4770	8	27.404	0	821.863	0	11.5	4	3.6	4	-1E+10	1	-1E+10	1	-1E+10	1	-1E+10	1	-1E+10	1	-1E+10	1
4901784	112	C	07/29/2018	10:44	-132.051	43.072	0	835.60	0	3.7150	0	34.4830	8	27.410	0	827.298	0	11.3	4	3.6	4	-1E+10	1	-1E+10	1	-1E+10	1	-1E+10	1	-1E+10	1	-1E+10	1
4901784	112	C	07/29/2018	10:44	-132.051	43.072	0	840.20	0	3.7150	0	34.4860	8	27.412	0	831.843	0	11.2	4	3.5	4	-1E+10	1	-1E+10	1	-1E+10	1	-1E+10	1	-1E+10	1	-1E+10	1
4901784	112	C	07/29/2018	10:44	-132.051	43.072	0	844.90	0	3.7140	0	34.4900	8	27.416	0	836.487	0	11.0	4	3.5	4	-1E+10	1	-1E+10	1	-1E+10	1	-1E+10	1	-1E+10	1	-1E+10	1
4901784	112	C	07/29/2018	10:44	-132.051	43.072	0	850.50	0	3.7000	0	34.4920	8	27.419	0	842.020	0	10.9	4	3.4	4	-1E+10	1	-1E+10	1	-1E+10	1	-1E+10	1	-1E+10	1	-1E+10	1
4901784	112	C	07/29/2018	10:44	-132.051	43.072	0	855.20	0	3.6920	0	34.4960	8	27.423	0	846.663	0	10.8	4	3.4	4	-1E+10	1	-1E+10	1	-1E+10	1	-1E+10	1	-1E+10	1	-1E+10	1
4901784	112	C	07/29/2018	10:44	-132.051	43.072	0	859.80	0	3.6880	0	34.5000	8	27.426	0	851.208	0	10.8	4	3.4	4	-1E+10	1	-1E+10	1	-1E+10	1	-1E+10	1	-1E+10	1	-1E+10	1
4901784	112	C	07/29/2018	10:44	-132.051	43.072	0	864.70	0	3.6770	0	34.5020	8	27.429	0	856.049	0	10.7	4	3.4	4	-1E+10	1	-1E+10	1	-1E+10	1	-1E+10	1	-1E+10	1	-1E+10	1
4901784	112	C	07/29/2018	10:44	-132.051	43.072	0	869.90	0	3.6730	0	34.5040	8	27.431	0	861.186	0	10.6	4	3.3	4	-1E+10	1	-1E+10	1	-1E+10	1	-1E+10	1	-1E+10	1	-1E+10	1
4901784	112	C	07/29/2018	10:44	-132.051	43.072	0	875.50	0	3.6680	0	34.5060	8	27.433	0	866.719	0	10.6	4	3.3	4	-1E+10	1	-1E+10	1	-1E+10	1	-1E+10	1	-1E+10	1	-1E+10	1
4901784	112	C	07/29/2018	10:44	-132.051	43.072	0	880.30	0	3.6680	0	34.5090	8	27.436	0	871.461	0	10.5	4	3.3	4	-1E+10	1	-1E+10	1	-1E+10	1	-1E+10	1	-1E+10	1	-1E+10	1
4901784	112	C	07/29/2018	10:44	-132.051	43.072	0	885.10	0	3.6600	0	34.5120	8	27.439	0	876.202	0	10.5	4	3.3	4	-1E+10	1	-1E+10	1	-1E+10	1	-1E+10	1	-1E+10	1	-1E+10	1
4901784	112	C	07/29/2018	10:44	-132.051	43.072	0	889.90	0	3.6480	0	34.5140	8	27.442	0	880.944	0	10.5	4	3.3	4	-1E+10	1	-1E+10	1	-1E+10	1	-1E+10	1	-1E+10	1	-1E+10	1
4901784	112	C	07/29/2018	10:44	-132.051	43.072	0	894.90	0	3.6480	0	34.5170	8	27.444	0	885.883	0	10.5	4	3.3	4	-1E+10	1	-1E+10	1	-1E+10	1	-1E+10	1	-1E+10	1	-1E+10	1
4901784	112	C	07/29/2018	10:44	-132.051	43.072	0	899.80	0	3.6420	0	34.5190	8	27.446	0	890.723	0	10.5	4	3.3	4	-1E+10	1	-1E+10	1	-1E+10	1	-1E+10	1	-1E+10	1	-1E+10	1
4901784	112	C	07/29/2018	10:44	-132.051	43.072	0	904.70	0	3.6210	0	34.5220	8	27.451	0	895.563	0	10.5	4	3.3	4	-1E+10	1	-1E+10	1	-1E+10	1	-1E+10	1	-1E+10	1	-1E+10	1
4901784	112	C	07/29/2018	10:44	-132.051	43.072	0	909.60	0	3.6320	0	34.5310	8	27.457	0	900.403	0	10.5	4	3.3	4	-1E+10	1	-1E+10	1	-1E+10	1	-1E+10	1	-1E+10	1	-1E+10	1
4901784	112	C	07/29/2018	10:44	-132.051	43.072	0	914.60	0	3.6290	0	34.5360	8	27.461	0	905.342	0	10.5	4	3.3	4	-1E+10	1	-1E+10	1	-1E+10	1	-1E+10	1	-1E+10	1	-1E+10	1
4901784	112	C	07/29/2018	10:44	-132.051	43.072	0	919.60	0	3.6210	0	34.5370	8	27.463	0	910.281	0	10.5	4	3.3	4	-1E+10	1	-1E+10	1	-1E+10	1	-1E+10	1	-1E+10	1	-1E+10	1
4901784	112	C	07/29/2018	10:44	-132.051	43.072	0	924.60	0	3.6100	0	34.5380	8	27.465	0	915.219	0	10.6	4	3.3	4	-1E+10	1	-1E+10	1	-1E+10	1	-1E+10	1	-1E+10	1	-1E+10	1
4901784	112	C	07/29/2018	10:44	-132.051	43.072	0	929.70	0	3.5920	0	34.5420	8	27.470	0	920.256	0	10.6	4	3.3	4	-1E+10	1	-1E+10	1	-1E+10	1	-1E+10	1	-1E+10	1	-1E+10	1
4901784	112	C	07/29/2018	10:44	-132.051	43.072	0	934.80	0	3.5760	0	34.5460	8	27.475	0	925.293	0	10.6	4	3.3	4	-1E+10	1	-1E+10	1	-1E+10	1	-1E+10	1	-1E+10	1	-1E+10	1
4901784	112	C	07/29/2018	10:44	-132.051	43.072	0	939.80	0	3.5690	0	34.5470	8	27.476	0	930.231	0	10.7	4	3.3	4	-1E+10	1	-1E+10	1	-1E+10	1	-1E+10	1	-1E+10	1	-1E+10	1
4901784	112	C	07/29/2018	10:44	-132.051	43.072	0	944.90	0	3.5580	0	34.5490	8	27.479	0	935.268	0	10.7	4	3.4	4	-1E+10	1	-1E+10	1	-1E+10	1	-1E+10	1	-1E+10	1	-1E+10	1
4901784	112	C	07/29/2018	10:44	-132.051	43.072	0	949.80	0	3.5440	0	34.5520	8	27.483	0	940.107	0	10.7	4	3.4	4	-1E+10	1	-1E+10	1	-1E+10	1	-1E+10	1	-1E+10	1	-1E+10	1
4901784	112	C	07/29/2018	10:44	-132.051	43.072	0	954.80	0	3.5400	0	34.5520	8	27.483	0	945.044	0	10.8	4	3.4	4	-1E+10	1	-1E+10	1	-1E+10	1	-1E+10	1	-1E+10	1	-1E+10	1
4901784	112	C	07/29/2018	10:44	-132.051	43.072	0	959.80	0	3.5300	0	34.5540	8	27.486	0	949.982	0	10.8	4	3.4	4	-1E+10	1	-1E+10	1	-1E+10	1	-1E+10	1	-1E+10	1	-1E+10	1
4901784	112	C	07/29/2018	10:44	-132.051	43.072	0	964.80	0	3.5240	0	34.5560	8	27.488	0	954.919	0	10.8	4	3.4	4	-1E+10	1	-1E+10	1	-1E+10	1	-1E+10	1	-1E+10	1	-1E+10	1
4901784	112	C	07/29/2018	10:44	-132.051	43.072	0	969.80	0	3.5200	0	34.5560	8	27.488	0	959.857	0	10.9	4	3.4	4	-1E+10	1	-1E+10	1	-1E+10	1	-1E+10	1	-1E+10	1	-1E+10	1
4901784	112	C	07/29/2018	10:44	-132.051	43.072	0	974.90	0	3.5050	0	34.5590	8	27.492	0	964.893	0	10.9	4	3.4	4	-1E+10	1	-1E+10	1	-1E+10	1	-1E+10	1	-1E+10	1	-1E+10	1
4901784	112	C	07/29/2018	10:44	-132.051	43.072	0	980.00	0	3.4920	0	34.5620	8	27.496	0	969.929	0	11.0	4	3.4	4	-1E+10	1	-1E+10	1	-1E+10	1	-1E+10	1	-1E+10	1	-1E+10	1
4901784	112	C	07/29/2018	10:44	-132.051	43.072	0	985.00	0	3.4770	0	34.5650	8	27.500	0	974.866	0	11.1	4	3.5	4	-1E+10	1	-1E+10	1	-1E+10	1	-1E+10	1	-1E+10	1	-1E+10	1
4901784	112	C	07/29/2018	10:44	-132.051	43.072	0	990.10	0	3.4600	0	34.5690	8	27.505	0	979.901	0	11.2	4	3.5	4	-1E+10	1	-1E+10	1	-1E+10	1	-1E+10	1	-1E+10	1	-1E+10	1
4901784	112	C	07/29/2018	10:44	-132.051	43.072	0	995.20	0	3.4400	0	34.5730	8	27.510	0	984.937	0	11.3	4	3.5	4	-1E+10	1	-1E+10	1	-1E+10	1	-1E+10	1	-1E+10	1	-1E+10	1
4901784	112	C	07/29/2018	10:44	-132.051	43.072	0	1000.20	0	3.4280	0	34.5750	8	27.512	0	989.873	0	11.4	4	3.5	4	-1E+10	1	-1E+10	1	-1E+10	1	-1E+10	1	-1E+10	1	-1E+10	1
4901784	112	C	07/29/2018	10:44	-132.051	43.072	0	1005.30	0	3.4190	0	34.5760	8	27.514	0	994.909	0	11.5	4	3.6	4	-1E+10	1	-1E+10	1	-1E+10	1	-1E+10	1	-1E+10	1	-1E+10	1
4901784	112	C	07/29/2018	10:44	-132.051	43.072	0	1010.50	0	3.4090	0	34.5810	8	27.519	0	1000.042	0	11.7	4	3.6	4	-1E+10	1	-1E+10	1	-1E+10	1	-1E+10	1	-1E+10	1	-1E+10	1
4901784	112	C	07/29/2018	10:44	-132.051	43.072	0	1015.60	0	3.3990	0	34.5830	8	27.522	0	1005.077	0	11.8	4	3.7	4	-1E+10	1	-1E+10	1	-1E+10	1	-1E+10	1	-1E+10	1	-1E+10	1
4901784	112	C	07/29/2018	10:44	-132.051	43.072	0	1020.00	0	3.3870	0	34.5860	8	27.525	0	1009.421	0	11.9	4	3.7	4	-1E+10	1	-1E+10	1	-1E+10	1	-1E+10	1	-1E+10	1	-1E+10	1
4901784	112	C	07/29/2018	10:44	-132.051	43.072	0	1024.30	0	3.3740	0	34.5870	8	27.527	0	1013.666	0	12.0	4	3.7	4	-1E+10	1	-1E+10	1	-1E+10	1	-1E+10	1	-1E+10	1	-1E+10	1
4901784	112	C	07/29/2018	10:44	-132.051	43.072	0	1029.60	0	3.3610	0	34.5890	8	27.530	0	1018.898	0	12.1	4	3.8	4	-1E+10	1	-1E+10	1	-1E+10	1	-1E+10	1	-1E+10	1	-1E+10	1
4901784	112	C	07/29/2018	10:44	-132.051	43.072	0	1034.90	0	3.3480	0	34.5920	8	27.534	0	1024.130	0	12.3	4	3.8	4	-1E+10	1	-1E+10	1	-1E+10	1	-1E+10	1	-1E+10	1	-1E+10	1
4901784	112	C	07/29/2018	10:44	-132.051	43.072	0	1040.20	0	3.3400	0	34.5930	8	27.535	0	1029.362	0	12.3	4	3.8	4	-1E+10	1	-1E+10	1	-1E+10	1	-1E+10	1	-1E+10	1	-1E+10	1
4901784	112	C	07/29/2018	10:44	-132.051	43.072	0	1045.60	0	3.3310	0	34.5950	8	27.538	0	1034.693	0	12.4	4	3.9	4	-1E+10	1	-1E+10	1	-1E+10	1	-1E+10	1	-1E+10	1	-1E+10	1
4901784	112	C	07/29/2018	10:44	-132.051	43.072	0	1050.10	0	3.3220	0	34.5970	8	27.540	0	1039.134	0	12.5	4	3.9	4	-1E+10	1	-1E+10	1	-1E+10	1	-1E+10	1	-1E+10	1	-1E+10	1
4901784	112	C	07/29/2018	10:44	-132.051	43.072	0	1054.70	0	3.3140	0	34.5980	8	27.542	0	1043.675	0	12.6	4	3.9	4	-1E+10	1	-1E+10	1	-1E+10	1	-1E+10	1	-1E+10	1	-1E+10	1
4901784	112	C	07/29/2018	10:44	-132.051	43.072	0	1060.10	0	3.3010	0	34.6000	8	27.545	0	1049.005	0	12.7	4	4.0	4	-1E+10	1	-1E+10	1	-1E+10	1	-1E+10	1	-1E+10	1	-1E+10	1
4901784	112	C	07/29/2018	10:44	-132.051	43.072	0	1064.80	0	3.2920	0	34.6010	8	27.547	0	1053.644	0	12.8	4	4.0	4	-1E+10	1	-1E+10	1	-1E+10	1	-1E+10	1	-1E+10	1	-1E+10	1
4901784	112	C	07/29/2018	10:44	-132.051	43.072	0	1069.30	0	3.2860	0	34.6020	8	27.548	0	1058.086	0	12.8	4	4.0	4	-1E+10	1	-1E+10	1	-1E+10	1	-1E+10	1	-1E+10	1	-1E+10	1
4901784	112	C	07/29/2018	10:44	-132.051	43.072	0	1074.60	0	3.2720	0	34.6040	8	27.551	0	1063.317	0	12.9	4	4.0	4	-1E+10	1	-1E+10	1	-1E+10	1	-1E+10	1	-1E+10	1	-1E+10	1
4901784	112	C	07/29/2018	10:44	-132.051	43.072	0	1079.40	0	3.2640	0	34.6040	8	27.552	0	1068.054	0	13.0	4	4.0	4	-1E+10	1	-1E+10	1	-1E+10	1	-1E+10	1	-1E+10	1	-1E+10	1
4901784	112	C	07/29/2018	10:44	-132.051	43.072	0	1084.30	0	3.2550	0	34.6060	8	27.554	0	1072.890	0	13.1	4	4.1	4	-1E+10	1	-1E+10	1	-1E+10	1	-1E+10	1	-1E+10	1	-1E+10	1
4901784	112	C	07/29/2018	10:44	-132.051	43.072	0	1089.30	0	3.2470	0	34.6070	8	27.556	0	1077.825	0	13.2	4	4.1	4	-1E+10	1	-1E+10	1	-1E+10	1	-1E+10	1	-1E+10	1	-1E+10	1
4901784	112	C	07/29/2018	10:44	-132.051	43.072	0	1094.20	0	3.2340	0	34.6080	8	27.558	0	1082.660	0	13.4	4	4.2	4	-1E+10	1	-1E+10	1	-1E+10	1	-1E+10	1	-1E+10	1	-1E+10	1
4901784	112	C	07/29/2018	10:44	-132.051	43.072	0	1099.20	0	3.2270	0	34.6100	8	27.560	0	1087.595	0	13.5	4	4.2	4	-1E+10	1	-1E+10	1	-1E+10	1	-1E+10	1	-1E+10	1	-1E+10	1
4901784	112	C	07/29/2018	10:44	-132.051	43.072	0	1104.20	0	3.2150	0	34.6110	8	27.562	0	1092.529	0	13.5	4	4.2	4	-1E+10	1	-1E+10	1	-1E+10	1	-1E+10	1	-1E+10	1	-1E+10	1
4901784	112	C	07/29/2018	10:44	-132.051	43.072	0	1109.30	0	3.2040	0	34.6120	8	27.564	0	1097.562	0	13.6	4	4.2	4	-1E+10	1	-1E+10	1	-1E+10	1	-1E+10	1	-1E+10	1	-1E+10	1
4901784	112	C	07/29/2018	10:44	-132.051	43.072	0	1114.30	0	3.1920	0	34.6140	8	27.567	0	1102.496	0	13.7	4	4.3	4	-1E+10	1	-1E+10	1	-1E+10	1	-1E+10	1	-1E+10	1	-1E+10	1
4901784	112	C	07/29/2018	10:44	-132.051	43.072	0	1119.40	0	3.1810	0	34.6150	8	27.568	0	1107.528	0	13.9	4	4.3	4	-1E+10	1	-1E+10	1	-1E+10	1	-1E+10	1	-1E+10	1	-1E+10	1
4901784	112	C	07/29/2018	10:44	-132.051	43.072	0	1124.60	0	3.1750	0	34.6170	8	27.571	0	1112.659	0	14.0	4	4.3	4	-1E+10	1	-1E+10	1	-1E+10	1	-1E+10	1	-1E+10	1	-1E+10	1
4901784	112	C	07/29/2018	10:44	-132.051	43.072	0	1129.80	0	3.1640	0	34.6190	8	27.573	0	1117.790	0	14.1	4	4.4	4	-1E+10	1	-1E+10	1	-1E+10	1	-1E+10	1	-1E+10	1	-1E+10	1
4901784	112	C	07/29/2018	10:44	-132.051	43.072	0	1135.00	0	3.1520	0	34.6200	8	27.575	0	1122.921	0	14.2	4	4.4	4	-1E+10	1	-1E+10	1	-1E+10	1	-1E+10	1	-1E+10	1	-1E+10	1
4901784	112	C	07/29/2018	10:44	-132.051	43.072	0	1140.30	0	3.1410	0	34.6210	8	27.577	0	1128.150	0	14.3	4	4.4	4	-1E+10	1	-1E+10	1	-1E+10	1	-1E+10	1	-1E+10	1	-1E+10	1
4901784	112	C	07/29/2018	10:44	-132.051	43.072	0	1144.80	0	3.1360	0	34.6220	8	27.578	0	1132.590	0	14.3	4	4.4	4	-1E+10	1	-1E+10	1	-1E+10	1	-1E+10	1	-1E+10	1	-1E+10	1
4901784	112	C	07/29/2018	10:44	-132.051	43.072	0	1149.30	0	3.1220	0	34.6230	8	27.580	0	1137.030	0	14.5	4	4.5	4	-1E+10	1	-1E+10	1	-1E+10	1	-1E+10	1	-1E+10	1	-1E+10	1
4901784	112	C	07/29/2018	10:44	-132.051	43.072	0	1154.70	0	3.1080	0	34.6250	8	27.583	0	1142.358	0	14.6	4	4.5	4	-1E+10	1	-1E+10	1	-1E+10	1	-1E+10	1	-1E+10	1	-1E+10	1
4901784	112	C	07/29/2018	10:44	-132.051	43.072	0	1160.20	0	3.1000	0	34.6270	8	27.586	0	1147.784	0	14.8	4	4.6	4	-1E+10	1	-1E+10	1	-1E+10	1	-1E+10	1	-1E+10	1	-1E+10	1
4901784	112	C	07/29/2018	10:44	-132.051	43.072	0	1165.60	0	3.0880	0	34.6290	8	27.588	0	1153.111	0	14.9	4	4.6	4	-1E+10	1	-1E+10	1	-1E+10	1	-1E+10	1	-1E+10	1	-1E+10	1
4901784	112	C	07/29/2018	10:44	-132.051	43.072	0	1170.20	0	3.0830	0	34.6280	8	27.588	0	1157.649	0	14.9	4	4.6	4	-1E+10	1	-1E+10	1	-1E+10	1	-1E+10	1	-1E+10	1	-1E+10	1
4901784	112	C	07/29/2018	10:44	-132.051	43.072	0	1174.70	0	3.0680	0	34.6300	8	27.591	0	1162.089	0	15.0	4	4.6	4	-1E+10	1	-1E+10	1	-1E+10	1	-1E+10	1	-1E+10	1	-1E+10	1
4901784	112	C	07/29/2018	10:44	-132.051	43.072	0	1180.20	0	3.0600	0	34.6300	8	27.592	0	1167.514	0	15.0	4	4.7	4	-1E+10	1	-1E+10	1	-1E+10	1	-1E+10	1	-1E+10	1	-1E+10	1
4901784	112	C	07/29/2018	10:44	-132.051	43.072	0	1184.90	0	3.0510	0	34.6310	8	27.594	0	1172.151	0	15.1	4	4.7	4	-1E+10	1	-1E+10	1	-1E+10	1	-1E+10	1	-1E+10	1	-1E+10	1
4901784	112	C	07/29/2018	10:44	-132.051	43.072	0	1190.40	0	3.0400	0	34.6330	8	27.596	0	1177.576	0	15.3	4	4.7	4	-1E+10	1	-1E+10	1	-1E+10	1	-1E+10	1	-1E+10	1	-1E+10	1
4901784	112	C	07/29/2018	10:44	-132.051	43.072	0	1195.10	0	3.0310	0	34.6340	8	27.598	0	1182.212	0	15.5	4	4.8	4	-1E+10	1	-1E+10	1	-1E+10	1	-1E+10	1	-1E+10	1	-1E+10	1
4901784	112	C	07/29/2018	10:44	-132.051	43.072	0	1199.90	0	3.0220	0	34.6360	8	27.600	0	1186.947	0	15.5	4	4.8	4	-1E+10	1	-1E+10	1	-1E+10	1	-1E+10	1	-1E+10	1	-1E+10	1
4901784	112	C	07/29/2018	10:44	-132.051	43.072	0	1204.70	0	3.0180	0	34.6360	8	27.601	0	1191.682	0	15.6	4	4.8	4	-1E+10	1	-1E+10	1	-1E+10	1	-1E+10	1	-1E+10	1	-1E+10	1
4901784	112	C	07/29/2018	10:44	-132.051	43.072	0	1209.60	0	3.0150	0	34.6360	8	27.601	0	1196.515	0	15.6	4	4.8	4	-1E+10	1	-1E+10	1	-1E+10	1	-1E+10	1	-1E+10	1	-1E+10	1
4901784	112	C	07/29/2018	10:44	-132.051	43.072	0	1214.40	0	3.0090	0	34.6370	8	27.602	0	1201.249	0	15.7	4	4.8	4	-1E+10	1	-1E+10	1	-1E+10	1	-1E+10	1	-1E+10	1	-1E+10	1
4901784	112	C	07/29/2018	10:44	-132.051	43.072	0	1219.30	0	2.9990	0	34.6370	8	27.603	0	1206.082	0	15.7	4	4.9	4	-1E+10	1	-1E+10	1	-1E+10	1	-1E+10	1	-1E+10	1	-1E+10	1
4901784	112	C	07/29/2018	10:44	-132.051	43.072	0	1224.20	0	2.9880	0	34.6370	8	27.604	0	1210.915	0	15.8	4	4.9	4	-1E+10	1	-1E+10	1	-1E+10	1	-1E+10	1	-1E+10	1	-1E+10	1
4901784	112	C	07/29/2018	10:44	-132.051	43.072	0	1229.20	0	2.9880	0	34.6380	8	27.605	0	1215.846	0	15.9	4	4.9	4	-1E+10	1	-1E+10	1	-1E+10	1	-1E+10	1	-1E+10	1	-1E+10	1
4901784	112	C	07/29/2018	10:44	-132.051	43.072	0	1234.30	0	2.9820	0	34.6380	8	27.606	0	1220.876	0	15.9	4	4.9	4	-1E+10	1	-1E+10	1	-1E+10	1	-1E+10	1	-1E+10	1	-1E+10	1
4901784	112	C	07/29/2018	10:44	-132.051	43.072	0	1239.30	0	2.9590	0	34.6400	8	27.609	0	1225.807	0	16.0	4	5.0	4	-1E+10	1	-1E+10	1	-1E+10	1	-1E+10	1	-1E+10	1	-1E+10	1
4901784	112	C	07/29/2018	10:44	-132.051	43.072	0	1244.40	0	2.9520	0	34.6410	8	27.611	0	1230.837	0	16.1	4	5.0	4	-1E+10	1	-1E+10	1	-1E+10	1	-1E+10	1	-1E+10	1	-1E+10	1
4901784	112	C	07/29/2018	10:44	-132.051	43.072	0	1249.50	0	2.9400	0	34.6410	8	27.612	0	1235.866	0	16.1	4	5.0	4	-1E+10	1	-1E+10	1	-1E+10	1	-1E+10	1	-1E+10	1	-1E+10	1
4901784	112	C	07/29/2018	10:44	-132.051	43.072	0	1254.70	0	2.9290	0	34.6420	8	27.614	0	1240.994	0	16.3	4	5.0	4	-1E+10	1	-1E+10	1	-1E+10	1	-1E+10	1	-1E+10	1	-1E+10	1
4901784	112	C	07/29/2018	10:44	-132.051	43.072	0	1259.90	0	2.9210	0	34.6430	8	27.615	0	1246.122	0	16.4	4	5.1	4	-1E+10	1	-1E+10	1	-1E+10	1	-1E+10	1	-1E+10	1	-1E+10	1
4901784	112	C	07/29/2018	10:44	-132.051	43.072	0	1265.30	0	2.9140	0	34.6440	8	27.617	0	1251.447	0	16.6	4	5.1	4	-1E+10	1	-1E+10	1	-1E+10	1	-1E+10	1	-1E+10	1	-1E+10	1
4901784	112	C	07/29/2018	10:44	-132.051	43.072	0	1270.50	0	2.9080	0	34.6460	8	27.619	0	1256.574	0	16.7	4	5.2	4	-1E+10	1	-1E+10	1	-1E+10	1	-1E+10	1	-1E+10	1	-1E+10	1
4901784	112	C	07/29/2018	10:44	-132.051	43.072	0	1275.00	0	2.9000	0	34.6470	8	27.620	0	1261.011	0	16.8	4	5.2	4	-1E+10	1	-1E+10	1	-1E+10	1	-1E+10	1	-1E+10	1	-1E+10	1
4901784	112	C	07/29/2018	10:44	-132.051	43.072	0	1279.40	0	2.8930	0	34.6470	8	27.621	0	1265.350	0	16.9	4	5.2	4	-1E+10	1	-1E+10	1	-1E+10	1	-1E+10	1	-1E+10	1	-1E+10	1
4901784	112	C	07/29/2018	10:44	-132.051	43.072	0	1284.70	0	2.8860	0	34.6480	8	27.623	0	1270.576	0	17.1	4	5.3	4	-1E+10	1	-1E+10	1	-1E+10	1	-1E+10	1	-1E+10	1	-1E+10	1
4901784	112	C	07/29/2018	10:44	-132.051	43.072	0	1290.10	0	2.8760	0	34.6500	8	27.625	0	1275.900	0	17.3	4	5.3	4	-1E+10	1	-1E+10	1	-1E+10	1	-1E+10	1	-1E+10	1	-1E+10	1
4901784	112	C	07/29/2018	10:44	-132.051	43.072	0	1295.50	0	2.8670	0	34.6520	8	27.628	0	1281.224	0	17.6	4	5.4	4	-1E+10	1	-1E+10	1	-1E+10	1	-1E+10	1	-1E+10	1	-1E+10	1
4901784	112	C	07/29/2018	10:44	-132.051	43.072	0	1299.90	0	2.8600	0	34.6530	8	27.629	0	1285.562	0	17.8	4	5.5	4	-1E+10	1	-1E+10	1	-1E+10	1	-1E+10	1	-1E+10	1	-1E+10	1
4901784	112	C	07/29/2018	10:44	-132.051	43.072	0	1304.50	0	2.8530	0	34.6540	8	27.630	0	1290.097	0	18.0	4	5.5	4	-1E+10	1	-1E+10	1	-1E+10	1	-1E+10	1	-1E+10	1	-1E+10	1
4901784	112	C	07/29/2018	10:44	-132.051	43.072	0	1309.80	0	2.8430	0	34.6560	8	27.633	0	1295.323	0	18.1	4	5.6	4	-1E+10	1	-1E+10	1	-1E+10	1	-1E+10	1	-1E+10	1	-1E+10	1
4901784	112	C	07/29/2018	10:44	-132.051	43.072	0	1315.20	0	2.8330	0	34.6570	8	27.635	0	1300.646	0	18.3	4	5.6	4	-1E+10	1	-1E+10	1	-1E+10	1	-1E+10	1	-1E+10	1	-1E+10	1
4901784	112	C	07/29/2018	10:44	-132.051	43.072	0	1320.60	0	2.8240	0	34.6580	8	27.636	0	1305.970	0	18.5	4	5.7	4	-1E+10	1	-1E+10	1	-1E+10	1	-1E+10	1	-1E+10	1	-1E+10	1
4901784	112	C	07/29/2018	10:44	-132.051	43.072	0	1325.20	0	2.8110	0	34.6590	8	27.638	0	1310.504	0	18.8	4	5.8	4	-1E+10	1	-1E+10	1	-1E+10	1	-1E+10	1	-1E+10	1	-1E+10	1
4901784	112	C	07/29/2018	10:44	-132.051	43.072	0	1329.70	0	2.8030	0	34.6610	8	27.641	0	1314.941	0	19.0	4	5.8	4	-1E+10	1	-1E+10	1	-1E+10	1	-1E+10	1	-1E+10	1	-1E+10	1
4901784	112	C	07/29/2018	10:44	-132.051	43.072	0	1335.10	0	2.7920	0	34.6620	8	27.642	0	1320.264	0	19.2	4	5.9	4	-1E+10	1	-1E+10	1	-1E+10	1	-1E+10	1	-1E+10	1	-1E+10	1
4901784	112	C	07/29/2018	10:44	-132.051	43.072	0	1340.60	0	2.7830	0	34.6640	8	27.645	0	1325.685	0	19.4	4	6.0	4	-1E+10	1	-1E+10	1	-1E+10	1	-1E+10	1	-1E+10	1	-1E+10	1
4901784	112	C	07/29/2018	10:44	-132.051	43.072	0	1345.10	0	2.7770	0	34.6650	8	27.646	0	1330.121	0	19.6	4	6.0	4	-1E+10	1	-1E+10	1	-1E+10	1	-1E+10	1	-1E+10	1	-1E+10	1
4901784	112	C	07/29/2018	10:44	-132.051	43.072	0	1349.70	0	2.7670	0	34.6660	8	27.648	0	1334.655	0	19.9	4	6.1	4	-1E+10	1	-1E+10	1	-1E+10	1	-1E+10	1	-1E+10	1	-1E+10	1
4901784	112	C	07/29/2018	10:44	-132.051	43.072	0	1355.00	0	2.7560	0	34.6680	8	27.650	0	1339.879	0	20.2	4	6.2	4	-1E+10	1	-1E+10	1	-1E+10	1	-1E+10	1	-1E+10	1	-1E+10	1
4901784	112	C	07/29/2018	10:44	-132.051	43.072	0	1360.30	0	2.7460	0	34.6700	8	27.653	0	1345.103	0	20.6	4	6.3	4	-1E+10	1	-1E+10	1	-1E+10	1	-1E+10	1	-1E+10	1	-1E+10	1
4901784	112	C	07/29/2018	10:44	-132.051	43.072	0	1365.40	0	2.7400	0	34.6710	8	27.654	0	1350.130	0	20.9	4	6.4	4	-1E+10	1	-1E+10	1	-1E+10	1	-1E+10	1	-1E+10	1	-1E+10	1
4901784	112	C	07/29/2018	10:44	-132.051	43.072	0	1370.00	0	2.7290	0	34.6730	8	27.657	0	1354.664	0	21.1	4	6.5	4	-1E+10	1	-1E+10	1	-1E+10	1	-1E+10	1	-1E+10	1	-1E+10	1
4901784	112	C	07/29/2018	10:44	-132.051	43.072	0	1375.00	0	2.7200	0	34.6860	8	27.668	0	1359.592	0	21.5	4	6.6	4	-1E+10	1	-1E+10	1	-1E+10	1	-1E+10	1	-1E+10	1	-1E+10	1
4901784	112	C	07/29/2018	10:44	-132.051	43.072	0	1380.00	0	2.7130	0	34.6880	8	27.670	0	1364.520	0	21.7	4	6.7	4	-1E+10	1	-1E+10	1	-1E+10	1	-1E+10	1	-1E+10	1	-1E+10	1
4901784	112	C	07/29/2018	10:44	-132.051	43.072	0	1385.10	0	2.7070	0	34.6880	8	27.671	0	1369.546	0	22.0	4	6.7	4	-1E+10	1	-1E+10	1	-1E+10	1	-1E+10	1	-1E+10	1	-1E+10	1
4901784	112	C	07/29/2018	10:44	-132.051	43.072	0	1390.30	0	2.6950	0	34.6900	8	27.674	0	1374.671	0	22.3	4	6.9	4	-1E+10	1	-1E+10	1	-1E+10	1	-1E+10	1	-1E+10	1	-1E+10	1
4901784	112	C	07/29/2018	10:44	-132.051	43.072	0	1395.40	0	2.6860	0	34.6920	8	27.676	0	1379.696	0	22.6	4	6.9	4	-1E+10	1	-1E+10	1	-1E+10	1	-1E+10	1	-1E+10	1	-1E+10	1
4901784	112	C	07/29/2018	10:44	-132.051	43.072	0	1400.60	0	2.6770	0	34.6930	8	27.678	0	1384.821	0	22.8	4	7.0	4	-1E+10	1	-1E+10	1	-1E+10	1	-1E+10	1	-1E+10	1	-1E+10	1
4901784	112	C	07/29/2018	10:44	-132.051	43.072	0	1404.90	0	2.6710	0	34.6940	8	27.679	0	1389.058	0	23.0	4	7.1	4	-1E+10	1	-1E+10	1	-1E+10	1	-1E+10	1	-1E+10	1	-1E+10	1
4901784	112	C	07/29/2018	10:44	-132.051	43.072	0	1409.20	0	2.6640	0	34.6940	8	27.680	0	1393.296	0	23.2	4	7.1	4	-1E+10	1	-1E+10	1	-1E+10	1	-1E+10	1	-1E+10	1	-1E+10	1
4901784	112	C	07/29/2018	10:44	-132.051	43.072	0	1414.40	0	2.6590	0	34.6950	8	27.681	0	1398.420	0	23.4	4	7.2	4	-1E+10	1	-1E+10	1	-1E+10	1	-1E+10	1	-1E+10	1	-1E+10	1
4901784	112	C	07/29/2018	10:44	-132.051	43.072	0	1419.60	0	2.6460	0	34.6960	8	27.683	0	1403.544	0	23.6	4	7.3	4	-1E+10	1	-1E+10	1	-1E+10	1	-1E+10	1	-1E+10	1	-1E+10	1
4901784	112	C	07/29/2018	10:44	-132.051	43.072	0	1424.80	0	2.6390	0	34.6970	8	27.684	0	1408.668	0	23.9	4	7.3	4	-1E+10	1	-1E+10	1	-1E+10	1	-1E+10	1	-1E+10	1	-1E+10	1
4901784	112	C	07/29/2018	10:44	-132.051	43.072	0	1430.10	0	2.6280	0	34.6980	8	27.686	0	1413.890	0	24.2	4	7.4	4	-1E+10	1	-1E+10	1	-1E+10	1	-1E+10	1	-1E+10	1	-1E+10	1
4901784	112	C	07/29/2018	10:44	-132.051	43.072	0	1435.30	0	2.6200	0	34.7000	8	27.688	0	1419.013	0	24.5	4	7.5	4	-1E+10	1	-1E+10	1	-1E+10	1	-1E+10	1	-1E+10	1	-1E+10	1
4901784	112	C	07/29/2018	10:44	-132.051	43.072	0	1440.60	0	2.6090	0	34.7010	8	27.690	0	1424.235	0	24.8	4	7.6	4	-1E+10	1	-1E+10	1	-1E+10	1	-1E+10	1	-1E+10	1	-1E+10	1
4901784	112	C	07/29/2018	10:44	-132.051	43.072	0	1445.00	0	2.6030	0	34.7010	8	27.691	0	1428.571	0	25.0	4	7.6	4	-1E+10	1	-1E+10	1	-1E+10	1	-1E+10	1	-1E+10	1	-1E+10	1
4901784	112	C	07/29/2018	10:44	-132.051	43.072	0	1449.30	0	2.5910	0	34.7020	8	27.692	0	1432.807	0	25.3	4	7.7	4	-1E+10	1	-1E+10	1	-1E+10	1	-1E+10	1	-1E+10	1	-1E+10	1
4901784	112	C	07/29/2018	10:44	-132.051	43.072	0	1454.60	0	2.5820	0	34.7040	8	27.695	0	1438.029	0	25.6	4	7.8	4	-1E+10	1	-1E+10	1	-1E+10	1	-1E+10	1	-1E+10	1	-1E+10	1
4901784	112	C	07/29/2018	10:44	-132.051	43.072	0	1459.80	0	2.5730	0	34.7060	8	27.697	0	1443.152	0	25.9	4	7.9	4	-1E+10	1	-1E+10	1	-1E+10	1	-1E+10	1	-1E+10	1	-1E+10	1
4901784	112	C	07/29/2018	10:44	-132.051	43.072	0	1465.00	0	2.5650	0	34.7070	8	27.699	0	1448.275	0	26.1	4	8.0	4	-1E+10	1	-1E+10	1	-1E+10	1	-1E+10	1	-1E+10	1	-1E+10	1
4901784	112	C	07/29/2018	10:44	-132.051	43.072	0	1470.30	0	2.5560	0	34.7080	8	27.700	0	1453.496	0	26.5	4	8.1	4	-1E+10	1	-1E+10	1	-1E+10	1	-1E+10	1	-1E+10	1	-1E+10	1
4901784	112	C	07/29/2018	10:44	-132.051	43.072	0	1475.50	0	2.5460	0	34.7090	8	27.702	0	1458.618	0	27.0	4	8.3	4	-1E+10	1	-1E+10	1	-1E+10	1	-1E+10	1	-1E+10	1	-1E+10	1
4901784	112	C	07/29/2018	10:44	-132.051	43.072	0	1479.90	0	2.5350	0	34.7110	8	27.705	0	1462.953	0	27.5	4	8.4	4	-1E+10	1	-1E+10	1	-1E+10	1	-1E+10	1	-1E+10	1	-1E+10	1
4901784	112	C	07/29/2018	10:44	-132.051	43.072	0	1484.30	0	2.5200	0	34.7130	8	27.707	0	1467.287	0	27.9	4	8.5	4	-1E+10	1	-1E+10	1	-1E+10	1	-1E+10	1	-1E+10	1	-1E+10	1
4901784	112	C	07/29/2018	10:44	-132.051	43.072	0	1489.40	0	2.5070	0	34.7150	8	27.710	0	1472.311	0	28.3	4	8.7	4	-1E+10	1	-1E+10	1	-1E+10	1	-1E+10	1	-1E+10	1	-1E+10	1
4901784	112	C	07/29/2018	10:44	-132.051	43.072	0	1494.40	0	2.5000	0	34.7160	8	27.712	0	1477.236	0	28.6	4	8.7	4	-1E+10	1	-1E+10	1	-1E+10	1	-1E+10	1	-1E+10	1	-1E+10	1
4901784	112	C	07/29/2018	10:44	-132.051	43.072	0	1499.30	0	2.4990	0	34.7160	8	27.712	0	1482.063	0	28.9	4	8.8	4	-1E+10	1	-1E+10	1	-1E+10	1	-1E+10	1	-1E+10	1	-1E+10	1
4901784	112	C	07/29/2018	10:44	-132.051	43.072	0	1505.00	0	2.4940	0	34.7180	8	27.714	0	1487.677	0	29.1	4	8.9	4	-1E+10	1	-1E+10	1	-1E+10	1	-1E+10	1	-1E+10	1	-1E+10	1
4901784	112	C	07/29/2018	10:44	-132.051	43.072	0	1510.80	0	2.4890	0	34.7180	8	27.714	0	1493.390	0	29.3	4	9.0	4	-1E+10	1	-1E+10	1	-1E+10	1	-1E+10	1	-1E+10	1	-1E+10	1
4901784	112	C	07/29/2018	10:44	-132.051	43.072	0	1515.60	0	2.4760	0	34.7190	8	27.716	0	1498.118	0	29.6	4	9.1	4	-1E+10	1	-1E+10	1	-1E+10	1	-1E+10	1	-1E+10	1	-1E+10	1
4901784	112	C	07/29/2018	10:44	-132.051	43.072	0	1520.60	0	2.4670	0	34.7190	8	27.717	0	1503.042	0	30.0	4	9.2	4	-1E+10	1	-1E+10	1	-1E+10	1	-1E+10	1	-1E+10	1	-1E+10	1
4901784	112	C	07/29/2018	10:44	-132.051	43.072	0	1525.50	0	2.4600	0	34.7210	8	27.719	0	1507.868	0	30.6	4	9.3	4	-1E+10	1	-1E+10	1	-1E+10	1	-1E+10	1	-1E+10	1	-1E+10	1
4901784	112	C	07/29/2018	10:44	-132.051	43.072	0	1530.40	0	2.4490	0	34.7230	8	27.722	0	1512.694	0	31.1	4	9.5	4	-1E+10	1	-1E+10	1	-1E+10	1	-1E+10	1	-1E+10	1	-1E+10	1
4901784	112	C	07/29/2018	10:44	-132.051	43.072	0	1535.30	0	2.4380	0	34.7250	8	27.724	0	1517.520	0	31.5	4	9.6	4	-1E+10	1	-1E+10	1	-1E+10	1	-1E+10	1	-1E+10	1	-1E+10	1
4901784	112	C	07/29/2018	10:44	-132.051	43.072	0	1540.30	0	2.4290	0	34.7250	8	27.725	0	1522.444	0	31.8	4	9.7	4	-1E+10	1	-1E+10	1	-1E+10	1	-1E+10	1	-1E+10	1	-1E+10	1
4901784	112	C	07/29/2018	10:44	-132.051	43.072	0	1545.30	0	2.4150	0	34.7270	8	27.728	0	1527.368	0	32.1	4	9.8	4	-1E+10	1	-1E+10	1	-1E+10	1	-1E+10	1	-1E+10	1	-1E+10	1
4901784	112	C	07/29/2018	10:44	-132.051	43.072	0	1550.30	0	2.4100	0	34.7270	8	27.728	0	1532.292	0	32.4	4	9.9	4	-1E+10	1	-1E+10	1	-1E+10	1	-1E+10	1	-1E+10	1	-1E+10	1
4901784	112	C	07/29/2018	10:44	-132.051	43.072	0	1555.30	0	2.3990	0	34.7280	8	27.730	0	1537.215	0	32.9	4	10.0	4	-1E+10	1	-1E+10	1	-1E+10	1	-1E+10	1	-1E+10	1	-1E+10	1
4901784	112	C	07/29/2018	10:44	-132.051	43.072	0	1560.30	0	2.3880	0	34.7300	8	27.732	0	1542.139	0	33.3	4	10.1	4	-1E+10	1	-1E+10	1	-1E+10	1	-1E+10	1	-1E+10	1	-1E+10	1
4901784	112	C	07/29/2018	10:44	-132.051	43.072	0	1565.30	0	2.3800	0	34.7310	8	27.734	0	1547.063	0	33.5	4	10.2	4	-1E+10	1	-1E+10	1	-1E+10	1	-1E+10	1	-1E+10	1	-1E+10	1
4901784	112	C	07/29/2018	10:44	-132.051	43.072	0	1570.30	0	2.3770	0	34.7310	8	27.734	0	1551.986	0	33.7	4	10.3	4	-1E+10	1	-1E+10	1	-1E+10	1	-1E+10	1	-1E+10	1	-1E+10	1
4901784	112	C	07/29/2018	10:44	-132.051	43.072	0	1575.40	0	2.3710	0	34.7320	8	27.736	0	1557.008	0	33.9	4	10.3	4	-1E+10	1	-1E+10	1	-1E+10	1	-1E+10	1	-1E+10	1	-1E+10	1
4901784	112	C	07/29/2018	10:44	-132.051	43.072	0	1580.50	0	2.3650	0	34.7330	8	27.737	0	1562.029	0	34.2	4	10.4	4	-1E+10	1	-1E+10	1	-1E+10	1	-1E+10	1	-1E+10	1	-1E+10	1
4901784	112	C	07/29/2018	10:44	-132.051	43.072	0	1585.50	0	2.3590	0	34.7330	8	27.737	0	1566.953	0	34.6	4	10.5	4	-1E+10	1	-1E+10	1	-1E+10	1	-1E+10	1	-1E+10	1	-1E+10	1
4901784	112	C	07/29/2018	10:44	-132.051	43.072	0	1590.70	0	2.3500	0	34.7350	8	27.740	0	1572.072	0	35.1	4	10.7	4	-1E+10	1	-1E+10	1	-1E+10	1	-1E+10	1	-1E+10	1	-1E+10	1
4901784	112	C	07/29/2018	10:44	-132.051	43.072	0	1595.00	0	2.3450	0	34.7350	8	27.740	0	1576.306	0	35.4	4	10.8	4	-1E+10	1	-1E+10	1	-1E+10	1	-1E+10	1	-1E+10	1	-1E+10	1
4901784	112	C	07/29/2018	10:44	-132.051	43.072	0	1599.40	0	2.3320	0	34.7370	8	27.743	0	1580.638	0	36.0	4	11.0	4	-1E+10	1	-1E+10	1	-1E+10	1	-1E+10	1	-1E+10	1	-1E+10	1
4901784	112	C	07/29/2018	10:44	-132.051	43.072	0	1604.60	0	2.3210	0	34.7390	8	27.745	0	1585.758	0	36.4	4	11.1	4	-1E+10	1	-1E+10	1	-1E+10	1	-1E+10	1	-1E+10	1	-1E+10	1
4901784	112	C	07/29/2018	10:44	-132.051	43.072	0	1609.90	0	2.3130	0	34.7400	8	27.747	0	1590.975	0	36.8	4	11.2	4	-1E+10	1	-1E+10	1	-1E+10	1	-1E+10	1	-1E+10	1	-1E+10	1
4901784	112	C	07/29/2018	10:44	-132.051	43.072	0	1615.30	0	2.3070	0	34.7410	8	27.748	0	1596.292	0	37.1	4	11.3	4	-1E+10	1	-1E+10	1	-1E+10	1	-1E+10	1	-1E+10	1	-1E+10	1
4901784	112	C	07/29/2018	10:44	-132.051	43.072	0	1620.70	0	2.3000	0	34.7410	8	27.749	0	1601.608	0	37.5	4	11.4	4	-1E+10	1	-1E+10	1	-1E+10	1	-1E+10	1	-1E+10	1	-1E+10	1
4901784	112	C	07/29/2018	10:44	-132.051	43.072	0	1625.20	0	2.2900	0	34.7430	8	27.751	0	1606.038	0	37.9	4	11.5	4	-1E+10	1	-1E+10	1	-1E+10	1	-1E+10	1	-1E+10	1	-1E+10	1
4901784	112	C	07/29/2018	10:44	-132.051	43.072	0	1629.70	0	2.2800	0	34.7430	8	27.752	0	1610.467	0	38.3	4	11.6	4	-1E+10	1	-1E+10	1	-1E+10	1	-1E+10	1	-1E+10	1	-1E+10	1
4901784	112	C	07/29/2018	10:44	-132.051	43.072	0	1635.20	0	2.2680	0	34.7450	8	27.755	0	1615.882	0	38.7	4	11.7	4	-1E+10	1	-1E+10	1	-1E+10	1	-1E+10	1	-1E+10	1	-1E+10	1
4901784	112	C	07/29/2018	10:44	-132.051	43.072	0	1639.80	0	2.2640	0	34.7450	8	27.755	0	1620.410	0	39.0	4	11.8	4	-1E+10	1	-1E+10	1	-1E+10	1	-1E+10	1	-1E+10	1	-1E+10	1
4901784	112	C	07/29/2018	10:44	-132.051	43.072	0	1645.10	0	2.2550	0	34.7460	8	27.757	0	1625.627	0	39.5	4	12.0	4	-1E+10	1	-1E+10	1	-1E+10	1	-1E+10	1	-1E+10	1	-1E+10	1
4901784	112	C	07/29/2018	10:44	-132.051	43.072	0	1650.20	0	2.2470	0	34.7480	8	27.759	0	1630.647	0	39.8	4	12.1	4	-1E+10	1	-1E+10	1	-1E+10	1	-1E+10	1	-1E+10	1	-1E+10	1
4901784	112	C	07/29/2018	10:44	-132.051	43.072	0	1655.20	0	2.2420	0	34.7490	8	27.760	0	1635.568	0	40.1	4	12.2	4	-1E+10	1	-1E+10	1	-1E+10	1	-1E+10	1	-1E+10	1	-1E+10	1
4901784	112	C	07/29/2018	10:44	-132.051	43.072	0	1660.20	0	2.2410	0	34.7490	8	27.760	0	1640.489	0	40.3	4	12.2	4	-1E+10	1	-1E+10	1	-1E+10	1	-1E+10	1	-1E+10	1	-1E+10	1
4901784	112	C	07/29/2018	10:44	-132.051	43.072	0	1665.30	0	2.2360	0	34.7500	8	27.762	0	1645.509	0	40.6	4	12.3	4	-1E+10	1	-1E+10	1	-1E+10	1	-1E+10	1	-1E+10	1	-1E+10	1
4901784	112	C	07/29/2018	10:44	-132.051	43.072	0	1670.50	0	2.2280	0	34.7510	8	27.763	0	1650.627	0	41.0	4	12.4	4	-1E+10	1	-1E+10	1	-1E+10	1	-1E+10	1	-1E+10	1	-1E+10	1
4901784	112	C	07/29/2018	10:44	-132.051	43.072	0	1675.70	0	2.2240	0	34.7510	8	27.763	0	1655.745	0	41.3	4	12.5	4	-1E+10	1	-1E+10	1	-1E+10	1	-1E+10	1	-1E+10	1	-1E+10	1
4901784	112	C	07/29/2018	10:44	-132.051	43.072	0	1680.00	0	2.2190	0	34.7530	8	27.765	0	1659.977	0	41.6	4	12.6	4	-1E+10	1	-1E+10	1	-1E+10	1	-1E+10	1	-1E+10	1	-1E+10	1
4901784	112	C	07/29/2018	10:44	-132.051	43.072	0	1684.40	0	2.2140	0	34.7530	8	27.766	0	1664.307	0	41.9	4	12.7	4	-1E+10	1	-1E+10	1	-1E+10	1	-1E+10	1	-1E+10	1	-1E+10	1
4901784	112	C	07/29/2018	10:44	-132.051	43.072	0	1689.70	0	2.2090	0	34.7540	8	27.767	0	1669.523	0	42.3	4	12.8	4	-1E+10	1	-1E+10	1	-1E+10	1	-1E+10	1	-1E+10	1	-1E+10	1
4901784	112	C	07/29/2018	10:44	-132.051	43.072	0	1695.10	0	2.2020	0	34.7550	8	27.768	0	1674.837	0	42.7	4	12.9	4	-1E+10	1	-1E+10	1	-1E+10	1	-1E+10	1	-1E+10	1	-1E+10	1
4901784	112	C	07/29/2018	10:44	-132.051	43.072	0	1700.40	0	2.1970	0	34.7560	8	27.770	0	1680.053	0	43.0	4	13.0	4	-1E+10	1	-1E+10	1	-1E+10	1	-1E+10	1	-1E+10	1	-1E+10	1
4901784	112	C	07/29/2018	10:44	-132.051	43.072	0	1704.90	0	2.1950	0	34.7560	8	27.770	0	1684.481	0	43.2	4	13.1	4	-1E+10	1	-1E+10	1	-1E+10	1	-1E+10	1	-1E+10	1	-1E+10	1
4901784	112	C	07/29/2018	10:44	-132.051	43.072	0	1709.40	0	2.1880	0	34.7570	8	27.771	0	1688.910	0	43.4	4	13.2	4	-1E+10	1	-1E+10	1	-1E+10	1	-1E+10	1	-1E+10	1	-1E+10	1
4901784	112	C	07/29/2018	10:44	-132.051	43.072	0	1714.70	0	2.1830	0	34.7570	8	27.772	0	1694.125	0	43.7	4	13.2	4	-1E+10	1	-1E+10	1	-1E+10	1	-1E+10	1	-1E+10	1	-1E+10	1
4901784	112	C	07/29/2018	10:44	-132.051	43.072	0	1720.20	0	2.1770	0	34.7580	8	27.773	0	1699.537	0	44.0	4	13.3	4	-1E+10	1	-1E+10	1	-1E+10	1	-1E+10	1	-1E+10	1	-1E+10	1
4901784	112	C	07/29/2018	10:44	-132.051	43.072	0	1724.70	0	2.1730	0	34.7590	8	27.774	0	1703.965	0	44.3	4	13.4	4	-1E+10	1	-1E+10	1	-1E+10	1	-1E+10	1	-1E+10	1	-1E+10	1
4901784	112	C	07/29/2018	10:44	-132.051	43.072	0	1729.40	0	2.1670	0	34.7600	8	27.775	0	1708.589	0	44.7	4	13.5	4	-1E+10	1	-1E+10	1	-1E+10	1	-1E+10	1	-1E+10	1	-1E+10	1
4901784	112	C	07/29/2018	10:44	-132.051	43.072	0	1734.90	0	2.1610	0	34.7610	8	27.777	0	1714.001	0	45.0	4	13.6	4	-1E+10	1	-1E+10	1	-1E+10	1	-1E+10	1	-1E+10	1	-1E+10	1
4901784	112	C	07/29/2018	10:44	-132.051	43.072	0	1740.60	0	2.1540	0	34.7620	8	27.778	0	1719.609	0	45.4	4	13.7	4	-1E+10	1	-1E+10	1	-1E+10	1	-1E+10	1	-1E+10	1	-1E+10	1
4901784	112	C	07/29/2018	10:44	-132.051	43.072	0	1744.70	0	2.1470	0	34.7620	8	27.779	0	1723.643	0	45.6	4	13.8	4	-1E+10	1	-1E+10	1	-1E+10	1	-1E+10	1	-1E+10	1	-1E+10	1
4901784	112	C	07/29/2018	10:44	-132.051	43.072	0	1749.60	0	2.1380	0	34.7630	8	27.780	0	1728.464	0	46.0	4	13.9	4	-1E+10	1	-1E+10	1	-1E+10	1	-1E+10	1	-1E+10	1	-1E+10	1
4901784	112	C	07/29/2018	10:44	-132.051	43.072	0	1754.50	0	2.1360	0	34.7640	8	27.781	0	1733.285	0	46.3	4	14.0	4	-1E+10	1	-1E+10	1	-1E+10	1	-1E+10	1	-1E+10	1	-1E+10	1
4901784	112	C	07/29/2018	10:44	-132.051	43.072	0	1759.50	0	2.1350	0	34.7640	8	27.781	0	1738.204	0	46.5	4	14.1	4	-1E+10	1	-1E+10	1	-1E+10	1	-1E+10	1	-1E+10	1	-1E+10	1
4901784	112	C	07/29/2018	10:44	-132.051	43.072	0	1764.50	0	2.1330	0	34.7650	8	27.782	0	1743.123	0	46.7	4	14.1	4	-1E+10	1	-1E+10	1	-1E+10	1	-1E+10	1	-1E+10	1	-1E+10	1
4901784	112	C	07/29/2018	10:44	-132.051	43.072	0	1769.60	0	2.1280	0	34.7650	8	27.783	0	1748.140	0	47.0	4	14.2	4	-1E+10	1	-1E+10	1	-1E+10	1	-1E+10	1	-1E+10	1	-1E+10	1
4901784	112	C	07/29/2018	10:44	-132.051	43.072	0	1774.80	0	2.1200	0	34.7660	8	27.784	0	1753.256	0	47.3	4	14.3	4	-1E+10	1	-1E+10	1	-1E+10	1	-1E+10	1	-1E+10	1	-1E+10	1
4901784	112	C	07/29/2018	10:44	-132.051	43.072	0	1779.90	0	2.1150	0	34.7670	8	27.785	0	1758.273	0	47.7	4	14.4	4	-1E+10	1	-1E+10	1	-1E+10	1	-1E+10	1	-1E+10	1	-1E+10	1
4901784	112	C	07/29/2018	10:44	-132.051	43.072	0	1785.00	0	2.1090	0	34.7670	8	27.786	0	1763.289	0	48.1	4	14.6	4	-1E+10	1	-1E+10	1	-1E+10	1	-1E+10	1	-1E+10	1	-1E+10	1
4901784	112	C	07/29/2018	10:44	-132.051	43.072	0	1790.20	0	2.1050	0	34.7680	8	27.787	0	1768.404	0	48.6	4	14.7	4	-1E+10	1	-1E+10	1	-1E+10	1	-1E+10	1	-1E+10	1	-1E+10	1
4901784	112	C	07/29/2018	10:44	-132.051	43.072	0	1795.40	0	2.0960	0	34.7700	8	27.789	0	1773.520	0	48.9	4	14.8	4	-1E+10	1	-1E+10	1	-1E+10	1	-1E+10	1	-1E+10	1	-1E+10	1
4901784	112	C	07/29/2018	10:44	-132.051	43.072	0	1800.70	0	2.0880	0	34.7700	8	27.790	0	1778.733	0	49.2	4	14.9	4	-1E+10	1	-1E+10	1	-1E+10	1	-1E+10	1	-1E+10	1	-1E+10	1
4901784	112	C	07/29/2018	10:44	-132.051	43.072	0	1805.10	0	2.0830	0	34.7710	8	27.791	0	1783.061	0	49.4	4	14.9	4	-1E+10	1	-1E+10	1	-1E+10	1	-1E+10	1	-1E+10	1	-1E+10	1
4901784	112	C	07/29/2018	10:44	-132.051	43.072	0	1809.60	0	2.0780	0	34.7710	8	27.792	0	1787.487	0	49.7	4	15.0	4	-1E+10	1	-1E+10	1	-1E+10	1	-1E+10	1	-1E+10	1	-1E+10	1
4901784	112	C	07/29/2018	10:44	-132.051	43.072	0	1815.00	0	2.0680	0	34.7720	8	27.793	0	1792.798	0	50.0	4	15.1	4	-1E+10	1	-1E+10	1	-1E+10	1	-1E+10	1	-1E+10	1	-1E+10	1
4901784	112	C	07/29/2018	10:44	-132.051	43.072	0	1820.40	0	2.0640	0	34.7720	8	27.794	0	1798.109	0	50.2	4	15.2	4	-1E+10	1	-1E+10	1	-1E+10	1	-1E+10	1	-1E+10	1	-1E+10	1
4901784	112	C	07/29/2018	10:44	-132.051	43.072	0	1825.00	0	2.0610	0	34.7730	8	27.795	0	1802.633	0	50.3	4	15.2	4	-1E+10	1	-1E+10	1	-1E+10	1	-1E+10	1	-1E+10	1	-1E+10	1
4901784	112	C	07/29/2018	10:44	-132.051	43.072	0	1829.60	0	2.0590	0	34.7730	8	27.795	0	1807.157	0	50.5	4	15.3	4	-1E+10	1	-1E+10	1	-1E+10	1	-1E+10	1	-1E+10	1	-1E+10	1
4901784	112	C	07/29/2018	10:44	-132.051	43.072	0	1835.10	0	2.0540	0	34.7740	8	27.796	0	1812.566	0	50.8	4	15.4	4	-1E+10	1	-1E+10	1	-1E+10	1	-1E+10	1	-1E+10	1	-1E+10	1
4901784	112	C	07/29/2018	10:44	-132.051	43.072	0	1840.60	0	2.0500	0	34.7740	8	27.797	0	1817.975	0	51.1	4	15.5	4	-1E+10	1	-1E+10	1	-1E+10	1	-1E+10	1	-1E+10	1	-1E+10	1
4901784	112	C	07/29/2018	10:44	-132.051	43.072	0	1845.30	0	2.0460	0	34.7750	8	27.798	0	1822.598	0	51.4	4	15.5	4	-1E+10	1	-1E+10	1	-1E+10	1	-1E+10	1	-1E+10	1	-1E+10	1
4901784	112	C	07/29/2018	10:44	-132.051	43.072	0	1850.00	0	2.0410	0	34.7760	8	27.799	0	1827.219	0	51.7	4	15.6	4	-1E+10	1	-1E+10	1	-1E+10	1	-1E+10	1	-1E+10	1	-1E+10	1
4901784	112	C	07/29/2018	10:44	-132.051	43.072	0	1855.50	0	2.0370	0	34.7760	8	27.799	0	1832.628	0	51.9	4	15.7	4	-1E+10	1	-1E+10	1	-1E+10	1	-1E+10	1	-1E+10	1	-1E+10	1
4901784	112	C	07/29/2018	10:44	-132.051	43.072	0	1860.10	0	2.0340	0	34.7770	8	27.800	0	1837.151	0	52.2	4	15.8	4	-1E+10	1	-1E+10	1	-1E+10	1	-1E+10	1	-1E+10	1	-1E+10	1
4901784	112	C	07/29/2018	10:44	-132.051	43.072	0	1864.70	0	2.0290	0	34.7770	8	27.801	0	1841.675	0	52.5	4	15.9	4	-1E+10	1	-1E+10	1	-1E+10	1	-1E+10	1	-1E+10	1	-1E+10	1
4901784	112	C	07/29/2018	10:44	-132.051	43.072	0	1870.30	0	2.0230	0	34.7780	8	27.802	0	1847.181	0	52.8	4	16.0	4	-1E+10	1	-1E+10	1	-1E+10	1	-1E+10	1	-1E+10	1	-1E+10	1
4901784	112	C	07/29/2018	10:44	-132.051	43.072	0	1875.00	0	2.0210	0	34.7780	8	27.802	0	1851.803	0	53.0	4	16.0	4	-1E+10	1	-1E+10	1	-1E+10	1	-1E+10	1	-1E+10	1	-1E+10	1
4901784	112	C	07/29/2018	10:44	-132.051	43.072	0	1880.30	0	2.0160	0	34.7790	8	27.803	0	1857.014	0	53.3	4	16.1	4	-1E+10	1	-1E+10	1	-1E+10	1	-1E+10	1	-1E+10	1	-1E+10	1
4901784	112	C	07/29/2018	10:44	-132.051	43.072	0	1885.40	0	2.0130	0	34.7800	8	27.805	0	1862.029	0	53.6	4	16.2	4	-1E+10	1	-1E+10	1	-1E+10	1	-1E+10	1	-1E+10	1	-1E+10	1
4901784	112	C	07/29/2018	10:44	-132.051	43.072	0	1890.30	0	2.0110	0	34.7800	8	27.805	0	1866.846	0	53.8	4	16.3	4	-1E+10	1	-1E+10	1	-1E+10	1	-1E+10	1	-1E+10	1	-1E+10	1
4901784	112	C	07/29/2018	10:44	-132.051	43.072	0	1895.10	0	2.0080	0	34.7810	8	27.806	0	1871.566	0	54.0	4	16.3	4	-1E+10	1	-1E+10	1	-1E+10	1	-1E+10	1	-1E+10	1	-1E+10	1
4901784	112	C	07/29/2018	10:44	-132.051	43.072	0	1900.00	0	2.0060	0	34.7810	8	27.806	0	1876.383	0	54.1	4	16.4	4	-1E+10	1	-1E+10	1	-1E+10	1	-1E+10	1	-1E+10	1	-1E+10	1
4901784	112	C	07/29/2018	10:44	-132.051	43.072	0	1904.90	0	2.0010	0	34.7820	8	27.807	0	1881.201	0	54.4	4	16.4	4	-1E+10	1	-1E+10	1	-1E+10	1	-1E+10	1	-1E+10	1	-1E+10	1
4901784	112	C	07/29/2018	10:44	-132.051	43.072	0	1909.80	0	1.9970	0	34.7820	8	27.808	0	1886.018	0	54.8	4	16.5	4	-1E+10	1	-1E+10	1	-1E+10	1	-1E+10	1	-1E+10	1	-1E+10	1
4901784	112	C	07/29/2018	10:44	-132.051	43.072	0	1914.70	0	1.9910	0	34.7830	8	27.809	0	1890.835	0	55.2	4	16.7	4	-1E+10	1	-1E+10	1	-1E+10	1	-1E+10	1	-1E+10	1	-1E+10	1
4901784	112	C	07/29/2018	10:44	-132.051	43.072	0	1919.60	0	1.9860	0	34.7840	8	27.810	0	1895.652	0	55.4	4	16.7	4	-1E+10	1	-1E+10	1	-1E+10	1	-1E+10	1	-1E+10	1	-1E+10	1
4901784	112	C	07/29/2018	10:44	-132.051	43.072	0	1924.60	0	1.9840	0	34.7840	8	27.810	0	1900.568	0	55.8	4	16.8	4	-1E+10	1	-1E+10	1	-1E+10	1	-1E+10	1	-1E+10	1	-1E+10	1
4901784	112	C	07/29/2018	10:44	-132.051	43.072	0	1929.50	0	1.9840	0	34.7850	8	27.811	0	1905.385	0	56.4	4	17.0	4	-1E+10	1	-1E+10	1	-1E+10	1	-1E+10	1	-1E+10	1	-1E+10	1
4901784	112	C	07/29/2018	10:44	-132.051	43.072	0	1934.50	0	1.9770	0	34.7860	8	27.812	0	1910.300	0	56.9	4	17.2	4	-1E+10	1	-1E+10	1	-1E+10	1	-1E+10	1	-1E+10	1	-1E+10	1
4901784	112	C	07/29/2018	10:44	-132.051	43.072	0	1939.40	0	1.9710	0	34.7870	8	27.814	0	1915.116	0	57.1	4	17.2	4	-1E+10	1	-1E+10	1	-1E+10	1	-1E+10	1	-1E+10	1	-1E+10	1
4901784	112	C	07/29/2018	10:44	-132.051	43.072	0	1944.30	0	1.9690	0	34.7880	8	27.815	0	1919.933	0	57.3	4	17.3	4	-1E+10	1	-1E+10	1	-1E+10	1	-1E+10	1	-1E+10	1	-1E+10	1
4901784	112	C	07/29/2018	10:44	-132.051	43.072	0	1949.30	0	1.9650	0	34.7880	8	27.815	0	1924.848	0	57.4	4	17.3	4	-1E+10	1	-1E+10	1	-1E+10	1	-1E+10	1	-1E+10	1	-1E+10	1
4901784	112	C	07/29/2018	10:44	-132.051	43.072	0	1954.30	0	1.9650	0	34.7880	8	27.815	0	1929.762	0	57.5	4	17.3	4	-1E+10	1	-1E+10	1	-1E+10	1	-1E+10	1	-1E+10	1	-1E+10	1
4901784	112	C	07/29/2018	10:44	-132.051	43.072	0	1959.30	0	1.9620	0	34.7880	8	27.815	0	1934.677	0	57.7	4	17.4	4	-1E+10	1	-1E+10	1	-1E+10	1	-1E+10	1	-1E+10	1	-1E+10	1
4901784	112	C	07/29/2018	10:44	-132.051	43.072	0	1964.30	0	1.9570	0	34.7890	8	27.817	0	1939.591	0	58.0	4	17.5	4	-1E+10	1	-1E+10	1	-1E+10	1	-1E+10	1	-1E+10	1	-1E+10	1
4901784	112	C	07/29/2018	10:44	-132.051	43.072	0	1969.30	0	1.9520	0	34.7890	8	27.817	0	1944.506	0	58.2	4	17.6	4	-1E+10	1	-1E+10	1	-1E+10	1	-1E+10	1	-1E+10	1	-1E+10	1
4901784	112	C	07/29/2018	10:44	-132.051	43.072	0	1974.30	0	1.9510	0	34.7900	8	27.818	0	1949.420	0	58.5	4	17.7	4	-1E+10	1	-1E+10	1	-1E+10	1	-1E+10	1	-1E+10	1	-1E+10	1
4901784	112	C	07/29/2018	10:44	-132.051	43.072	0	1979.30	0	1.9450	0	34.7910	8	27.819	0	1954.334	0	58.8	4	17.7	4	-1E+10	1	-1E+10	1	-1E+10	1	-1E+10	1	-1E+10	1	-1E+10	1
4901784	112	C	07/29/2018	10:44	-132.051	43.072	0	1984.40	0	1.9410	0	34.7910	8	27.819	0	1959.346	0	58.9	4	17.8	4	-1E+10	1	-1E+10	1	-1E+10	1	-1E+10	1	-1E+10	1	-1E+10	1
4901784	112	C	07/29/2018	10:44	-132.051	43.072	0	1989.50	0	1.9400	0	34.7910	8	27.820	0	1964.358	0	59.0	4	17.8	4	-1E+10	1	-1E+10	1	-1E+10	1	-1E+10	1	-1E+10	1	-1E+10	1
4901784	112	C	07/29/2018	10:44	-132.051	43.072	0	1994.60	0	1.9400	0	34.7920	8	27.820	0	1969.370	0	59.0	4	17.8	4	-1E+10	1	-1E+10	1	-1E+10	1	-1E+10	1	-1E+10	1	-1E+10	1
4901784	112	C	07/29/2018	10:44	-132.051	43.072	0	1999.60	0	1.9400	0	34.7910	8	27.820	0	1974.284	0	59.1	4	17.8	4	-1E+10	1	-1E+10	1	-1E+10	1	-1E+10	1	-1E+10	1	-1E+10	1
4901784	112	C	07/29/2018	10:44	-132.051	43.072	0	2004.70	0	1.9390	0	34.7920	8	27.821	0	1979.296	0	59.2	4	17.9	4	-1E+10	1	-1E+10	1	-1E+10	1	-1E+10	1	-1E+10	1	-1E+10	1
4901784	112	C	07/29/2018	10:44	-132.051	43.072	0	2010.40	0	1.9370	0	34.7920	8	27.821	0	1984.897	0	59.5	4	17.9	4	-1E+10	1	-1E+10	1	-1E+10	1	-1E+10	1	-1E+10	1	-1E+10	1
4901784	112	C	07/29/2018	10:44	-132.051	43.072	0	2015.10	0	1.9320	0	34.7930	8	27.822	0	1989.515	0	59.9	4	18.1	4	-1E+10	1	-1E+10	1	-1E+10	1	-1E+10	1	-1E+10	1	-1E+10	1
4901784	112	C	07/29/2018	10:44	-132.051	43.072	0	2019.90	0	1.9280	0	34.7930	8	27.822	0	1994.232	0	60.3	4	18.2	4	-1E+10	1	-1E+10	1	-1E+10	1	-1E+10	1	-1E+10	1	-1E+10	1
4901784	112	C	07/29/2018	10:44	-132.051	43.072	0																										
4901784	113	C	08/08/2018	10:32	-131.982	43.025	0	2.10	0	17.2630	0	32.9780	8	23.902	0	2.083	0	234.3	4	97.4	4	-1E+10	1	-1E+10	1	-1E+10	1	-1E+10	1	-1E+10	1	-1E+10	1
4901784	113	C	08/08/2018	10:32	-131.982	43.025	0	3.80	0	17.2620	0	32.9780	8	23.902	0	3.770	0	234.0	4	97.3	4	-1E+10	1	-1E+10	1	-1E+10	1	-1E+10	1	-1E+10	1	-1E+10	1
4901784	113	C	08/08/2018	10:32	-131.982	43.025	0	5.50	0	17.2630	0	32.9780	8	23.902	0	5.456	0	233.9	4	97.2	4	-1E+10	1	-1E+10	1	-1E+10	1	-1E+10	1	-1E+10	1	-1E+10	1
4901784	113	C	08/08/2018	10:32	-131.982	43.025	0	7.20	0	17.2620	0	32.9760	8	23.901	0	7.143	0	233.9	4	97.2	4	-1E+10	1	-1E+10	1	-1E+10	1	-1E+10	1	-1E+10	1	-1E+10	1
4901784	113	C	08/08/2018	10:32	-131.982	43.025	0	8.90	0	17.2610	0	32.9750	8	23.900	0	8.829	0	233.8	4	97.2	4	-1E+10	1	-1E+10	1	-1E+10	1	-1E+10	1	-1E+10	1	-1E+10	1
4901784	113	C	08/08/2018	10:32	-131.982	43.025	0	10.60	0	17.2580	0	32.9740	8	23.900	0	10.516	0	233.7	4	97.2	4	-1E+10	1	-1E+10	1	-1E+10	1	-1E+10	1	-1E+10	1	-1E+10	1
4901784	113	C	08/08/2018	10:32	-131.982	43.025	0	12.30	0	17.1780	0	32.9820	8	23.926	0	12.202	0	233.7	4	97.0	4	-1E+10	1	-1E+10	1	-1E+10	1	-1E+10	1	-1E+10	1	-1E+10	1
4901784	113	C	08/08/2018	10:32	-131.982	43.025	0	14.10	0	17.1280	0	32.9720	8	23.930	0	13.988	0	234.1	4	97.1	4	-1E+10	1	-1E+10	1	-1E+10	1	-1E+10	1	-1E+10	1	-1E+10	1
4901784	113	C	08/08/2018	10:32	-131.982	43.025	0	15.80	0	17.1000	0	32.9700	8	23.935	0	15.674	0	234.0	4	97.0	4	-1E+10	1	-1E+10	1	-1E+10	1	-1E+10	1	-1E+10	1	-1E+10	1
4901784	113	C	08/08/2018	10:32	-131.982	43.025	0	17.60	0	17.0350	0	32.9700	8	23.950	0	17.460	0	234.3	4	97.0	4	-1E+10	1	-1E+10	1	-1E+10	1	-1E+10	1	-1E+10	1	-1E+10	1
4901784	113	C	08/08/2018	10:32	-131.982	43.025	0	19.30	0	16.9130	0	32.9700	8	23.979	0	19.146	0	234.8	4	97.0	4	-1E+10	1	-1E+10	1	-1E+10	1	-1E+10	1	-1E+10	1	-1E+10	1
4901784	113	C	08/08/2018	10:32	-131.982	43.025	0	21.10	0	16.8910	0	32.9690	8	23.983	0	20.931	0	235.0	4	97.0	4	-1E+10	1	-1E+10	1	-1E+10	1	-1E+10	1	-1E+10	1	-1E+10	1
4901784	113	C	08/08/2018	10:32	-131.982	43.025	0	22.80	0	16.8560	0	32.9660	8	23.989	0	22.618	0	235.3	4	97.1	4	-1E+10	1	-1E+10	1	-1E+10	1	-1E+10	1	-1E+10	1	-1E+10	1
4901784	113	C	08/08/2018	10:32	-131.982	43.025	0	24.50	0	16.7640	0	32.9680	8	24.012	0	24.304	0	235.9	4	97.2	4	-1E+10	1	-1E+10	1	-1E+10	1	-1E+10	1	-1E+10	1	-1E+10	1
4901784	113	C	08/08/2018	10:32	-131.982	43.025	0	26.20	0	16.7330	0	32.9650	8	24.017	0	25.990	0	236.6	4	97.4	4	-1E+10	1	-1E+10	1	-1E+10	1	-1E+10	1	-1E+10	1	-1E+10	1
4901784	113	C	08/08/2018	10:32	-131.982	43.025	0	27.90	0	16.6920	0	32.9630	8	24.025	0	27.677	0	237.2	4	97.5	4	-1E+10	1	-1E+10	1	-1E+10	1	-1E+10	1	-1E+10	1	-1E+10	1
4901784	113	C	08/08/2018	10:32	-131.982	43.025	0	29.60	0	16.6500	0	32.9590	8	24.032	0	29.363	0	238.1	4	97.9	4	-1E+10	1	-1E+10	1	-1E+10	1	-1E+10	1	-1E+10	1	-1E+10	1
4901784	113	C	08/08/2018	10:32	-131.982	43.025	0	31.30	0	16.5790	0	32.9570	8	24.047	0	31.049	0	239.6	4	98.3	4	-1E+10	1	-1E+10	1	-1E+10	1	-1E+10	1	-1E+10	1	-1E+10	1
4901784	113	C	08/08/2018	10:32	-131.982	43.025	0	33.30	0	16.3980	0	32.9530	8	24.085	0	33.033	0	242.0	4	99.0	4	-1E+10	1	-1E+10	1	-1E+10	1	-1E+10	1	-1E+10	1	-1E+10	1
4901784	113	C	08/08/2018	10:32	-131.982	43.025	0	33.80	0	16.3640	0	32.9490	8	24.090	0	33.529	0	243.2	4	99.4	4	-1E+10	1	-1E+10	1	-1E+10	1	-1E+10	1	-1E+10	1	-1E+10	1
4901784	113	C	08/08/2018	10:32	-131.982	43.025	0	35.20	0	16.2370	0	32.9390	8	24.111	0	34.918	0	246.1	4	100.3	4	-1E+10	1	-1E+10	1	-1E+10	1	-1E+10	1	-1E+10	1	-1E+10	1
4901784	113	C	08/08/2018	10:32	-131.982	43.025	0	36.50	0	16.0380	0	32.9230	8	24.144	0	36.207	0	250.1	4	101.5	4	-1E+10	1	-1E+10	1	-1E+10	1	-1E+10	1	-1E+10	1	-1E+10	1
4901784	113	C	08/08/2018	10:32	-131.982	43.025	0	37.90	0	15.4910	0	32.9060	8	24.253	0	37.596	0	255.8	4	102.7	4	-1E+10	1	-1E+10	1	-1E+10	1	-1E+10	1	-1E+10	1	-1E+10	1
4901784	113	C	08/08/2018	10:32	-131.982	43.025	0	39.30	0	14.7140	0	32.8630	8	24.388	0	38.984	0	263.8	4	104.3	4	-1E+10	1	-1E+10	1	-1E+10	1	-1E+10	1	-1E+10	1	-1E+10	1
4901784	113	C	08/08/2018	10:32	-131.982	43.025	0	40.80	0	14.2780	0	32.8820	8	24.495	0	40.472	0	268.8	4	105.4	4	-1E+10	1	-1E+10	1	-1E+10	1	-1E+10	1	-1E+10	1	-1E+10	1
4901784	113	C	08/08/2018	10:32	-131.982	43.025	0	42.50	0	13.6280	0	32.8790	8	24.626	0	42.158	0	273.8	4	105.9	4	-1E+10	1	-1E+10	1	-1E+10	1	-1E+10	1	-1E+10	1	-1E+10	1
4901784	113	C	08/08/2018	10:32	-131.982	43.025	0	42.90	0	13.1900	0	32.8950	8	24.727	0	42.555	0	277.1	4	106.3	4	-1E+10	1	-1E+10	1	-1E+10	1	-1E+10	1	-1E+10	1	-1E+10	1
4901784	113	C	08/08/2018	10:32	-131.982	43.025	0	44.20	0	12.5150	0	32.9050	8	24.866	0	43.845	0	283.1	4	107.1	4	-1E+10	1	-1E+10	1	-1E+10	1	-1E+10	1	-1E+10	1	-1E+10	1
4901784	113	C	08/08/2018	10:32	-131.982	43.025	0	45.60	0	12.1160	0	32.9270	8	24.959	0	45.233	0	286.9	4	107.7	4	-1E+10	1	-1E+10	1	-1E+10	1	-1E+10	1	-1E+10	1	-1E+10	1
4901784	113	C	08/08/2018	10:32	-131.982	43.025	0	46.90	0	11.8960	0	32.9270	8	25.000	0	46.522	0	287.5	4	107.4	4	-1E+10	1	-1E+10	1	-1E+10	1	-1E+10	1	-1E+10	1	-1E+10	1
4901784	113	C	08/08/2018	10:32	-131.982	43.025	0	48.40	0	11.6430	0	32.9260	8	25.046	0	48.010	0	289.5	4	107.6	4	-1E+10	1	-1E+10	1	-1E+10	1	-1E+10	1	-1E+10	1	-1E+10	1
4901784	113	C	08/08/2018	10:32	-131.982	43.025	0	49.90	0	11.3100	0	32.9300	8	25.110	0	49.498	0	290.3	4	107.1	4	-1E+10	1	-1E+10	1	-1E+10	1	-1E+10	1	-1E+10	1	-1E+10	1
4901784	113	C	08/08/2018	10:32	-131.982	43.025	0	51.40	0	11.1600	0	32.9260	8	25.134	0	50.986	0	290.3	4	106.8	4	-1E+10	1	-1E+10	1	-1E+10	1	-1E+10	1	-1E+10	1	-1E+10	1
4901784	113	C	08/08/2018	10:32	-131.982	43.025	0	53.00	0	10.9840	0	32.9450	8	25.180	0	52.573	0	289.7	4	106.2	4	-1E+10	1	-1E+10	1	-1E+10	1	-1E+10	1	-1E+10	1	-1E+10	1
4901784	113	C	08/08/2018	10:32	-131.982	43.025	0	54.50	0	10.9150	0	32.9470	8	25.194	0	54.060	0	287.9	4	105.3	4	-1E+10	1	-1E+10	1	-1E+10	1	-1E+10	1	-1E+10	1	-1E+10	1
4901784	113	C	08/08/2018	10:32	-131.982	43.025	0	56.10	0	10.7540	0	32.9450	8	25.220	0	55.647	0	286.6	4	104.5	4	-1E+10	1	-1E+10	1	-1E+10	1	-1E+10	1	-1E+10	1	-1E+10	1
4901784	113	C	08/08/2018	10:32	-131.982	43.025	0	57.70	0	10.5650	0	32.9480	8	25.256	0	57.234	0	285.5	4	103.7	4	-1E+10	1	-1E+10	1	-1E+10	1	-1E+10	1	-1E+10	1	-1E+10	1
4901784	113	C	08/08/2018	10:32	-131.982	43.025	0	59.30	0	10.5170	0	32.9440	8	25.261	0	58.821	0	284.7	4	103.3	4	-1E+10	1	-1E+10	1	-1E+10	1	-1E+10	1	-1E+10	1	-1E+10	1
4901784	113	C	08/08/2018	10:32	-131.982	43.025	0	61.00	0	10.4920	0	32.9460	8	25.267	0	60.507	0	283.0	4	102.6	4	-1E+10	1	-1E+10	1	-1E+10	1	-1E+10	1	-1E+10	1	-1E+10	1
4901784	113	C	08/08/2018	10:32	-131.982	43.025	0	62.60	0	10.4470	0	32.9470	8	25.275	0	62.094	0	281.8	4	102.1	4	-1E+10	1	-1E+10	1	-1E+10	1	-1E+10	1	-1E+10	1	-1E+10	1
4901784	113	C	08/08/2018	10:32	-131.982	43.025	0	64.30	0	10.4230	0	32.9450	8	25.278	0	63.780	0	280.6	4	101.6	4	-1E+10	1	-1E+10	1	-1E+10	1	-1E+10	1	-1E+10	1	-1E+10	1
4901784	113	C	08/08/2018	10:32	-131.982	43.025	0	65.90	0	10.3860	0	32.9440	8	25.283	0	65.367	0	278.9	4	100.9	4	-1E+10	1	-1E+10	1	-1E+10	1	-1E+10	1	-1E+10	1	-1E+10	1
4901784	113	C	08/08/2018	10:32	-131.982	43.025	0	67.70	0	10.3290	0	32.9420	8	25.292	0	67.152	0	277.4	4	100.3	4	-1E+10	1	-1E+10	1	-1E+10	1	-1E+10	1	-1E+10	1	-1E+10	1
4901784	113	C	08/08/2018	10:32	-131.982	43.025	0	69.40	0	10.2800	0	32.9380	8	25.297	0	68.838	0	276.4	4	99.8	4	-1E+10	1	-1E+10	1	-1E+10	1	-1E+10	1	-1E+10	1	-1E+10	1
4901784	113	C	08/08/2018	10:32	-131.982	43.025	0	71.20	0	10.2380	0	32.9340	8	25.301	0	70.623	0	274.8	4	99.1	4	-1E+10	1	-1E+10	1	-1E+10	1	-1E+10	1	-1E+10	1	-1E+10	1
4901784	113	C	08/08/2018	10:32	-131.982	43.025	0	72.90	0	10.1590	0	32.9320	8	25.313	0	72.309	0	273.5	4	98.5	4	-1E+10	1	-1E+10	1	-1E+10	1	-1E+10	1	-1E+10	1	-1E+10	1
4901784	113	C	08/08/2018	10:32	-131.982	43.025	0	74.70	0	10.1330	0	32.9280	8	25.314	0	74.094	0	271.9	4	97.8	4	-1E+10	1	-1E+10	1	-1E+10	1	-1E+10	1	-1E+10	1	-1E+10	1
4901784	113	C	08/08/2018	10:32	-131.982	43.025	0	76.40	0	10.0490	0	32.9230	8	25.324	0	75.780	0	270.3	4	97.1	4	-1E+10	1	-1E+10	1	-1E+10	1	-1E+10	1	-1E+10	1	-1E+10	1
4901784	113	C	08/08/2018	10:32	-131.982	43.025	0	78.10	0	9.9510	0	32.9160	8	25.335	0	77.465	0	269.1	4	96.4	4	-1E+10	1	-1E+10	1	-1E+10	1	-1E+10	1	-1E+10	1	-1E+10	1
4901784	113	C	08/08/2018	10:32	-131.982	43.025	0	79.90	0	9.9410	0	32.9100	8	25.332	0	79.251	0	267.1	4	95.7	4	-1E+10	1	-1E+10	1	-1E+10	1	-1E+10	1	-1E+10	1	-1E+10	1
4901784	113	C	08/08/2018	10:32	-131.982	43.025	0	81.70	0	9.8250	0	32.9180	8	25.357	0	81.036	0	265.5	4	94.9	4	-1E+10	1	-1E+10	1	-1E+10	1	-1E+10	1	-1E+10	1	-1E+10	1
4901784	113	C	08/08/2018	10:32	-131.982	43.025	0	83.40	0	9.8320	0	32.9220	8	25.359	0	82.721	0	264.8	4	94.6	4	-1E+10	1	-1E+10	1	-1E+10	1	-1E+10	1	-1E+10	1	-1E+10	1
4901784	113	C	08/08/2018	10:32	-131.982	43.025	0	85.10	0	9.7900	0	32.9210	8	25.366	0	84.407	0	263.5	4	94.1	4	-1E+10	1	-1E+10	1	-1E+10	1	-1E+10	1	-1E+10	1	-1E+10	1
4901784	113	C	08/08/2018	10:32	-131.982	43.025	0	86.90	0	9.7290	0	32.9170	8	25.373	0	86.192	0	262.9	4	93.8	4	-1E+10	1	-1E+10	1	-1E+10	1	-1E+10	1	-1E+10	1	-1E+10	1
4901784	113	C	08/08/2018	10:32	-131.982	43.025	0	88.70	0	9.7340	0	32.9230	8	25.376	0	87.977	0	261.8	4	93.4	4	-1E+10	1	-1E+10	1	-1E+10	1	-1E+10	1	-1E+10	1	-1E+10	1
4901784	113	C	08/08/2018	10:32	-131.982	43.025	0	90.50	0	9.7480	0	32.9330	8	25.382	0	89.762	0	261.1	4	93.2	4	-1E+10	1	-1E+10	1	-1E+10	1	-1E+10	1	-1E+10	1	-1E+10	1
4901784	113	C	08/08/2018	10:32	-131.982	43.025	0	92.20	0	9.7490	0	32.9340	8	25.383	0	91.448	0	260.3	4	92.9	4	-1E+10	1	-1E+10	1	-1E+10	1	-1E+10	1	-1E+10	1	-1E+10	1
4901784	113	C	08/08/2018	10:32	-131.982	43.025	0	93.90	0	9.7360	0	32.9320	8	25.383	0	93.134	0	259.4	4	92.5	4	-1E+10	1	-1E+10	1	-1E+10	1	-1E+10	1	-1E+10	1	-1E+10	1
4901784	113	C	08/08/2018	10:32	-131.982	43.025	0	95.70	0	9.7210	0	32.9300	8	25.384	0	94.918	0	258.5	4	92.2	4	-1E+10	1	-1E+10	1	-1E+10	1	-1E+10	1	-1E+10	1	-1E+10	1
4901784	113	C	08/08/2018	10:32	-131.982	43.025	0	97.50	0	9.7040	0	32.9280	8	25.385	0	96.703	0	257.0	4	91.6	4	-1E+10	1	-1E+10	1	-1E+10	1	-1E+10	1	-1E+10	1	-1E+10	1
4901784	113	C	08/08/2018	10:32	-131.982	43.025	0	99.30	0	9.7120	0	32.9350	8	25.390	0	98.488	0	255.2	4	91.0	4	-1E+10	1	-1E+10	1	-1E+10	1	-1E+10	1	-1E+10	1	-1E+10	1
4901784	113	C	08/08/2018	10:32	-131.982	43.025	0	102.70	0	9.6140	0	32.9480	8	25.416	0	101.860	0	251.9	4	89.7	4	-1E+10	1	-1E+10	1	-1E+10	1	-1E+10	1	-1E+10	1	-1E+10	1
4901784	113	C	08/08/2018	10:32	-131.982	43.025	0	105.20	0	9.5510	0	32.9410	8	25.421	0	104.338	0	250.6	4	89.1	4	-1E+10	1	-1E+10	1	-1E+10	1	-1E+10	1	-1E+10	1	-1E+10	1
4901784	113	C	08/08/2018	10:32	-131.982	43.025	0	107.90	0	9.4950	0	32.9460	8	25.434	0	107.016	0	248.6	4	88.2	4	-1E+10	1	-1E+10	1	-1E+10	1	-1E+10	1	-1E+10	1	-1E+10	1
4901784	113	C	08/08/2018	10:32	-131.982	43.025	0	110.30	0	9.3750	0	32.9660	8	25.469	0	109.395	0	246.4	4	87.2	4	-1E+10	1	-1E+10	1	-1E+10	1	-1E+10	1	-1E+10	1	-1E+10	1
4901784	113	C	08/08/2018	10:32	-131.982	43.025	0	112.80	0	9.2900	0	32.9790	8	25.492	0	111.874	0	244.3	4	86.3	4	-1E+10	1	-1E+10	1	-1E+10	1	-1E+10	1	-1E+10	1	-1E+10	1
4901784	113	C	08/08/2018	10:32	-131.982	43.025	0	115.40	0	9.1840	0	33.0010	8	25.526	0	114.452	0	241.6	4	85.2	4	-1E+10	1	-1E+10	1	-1E+10	1	-1E+10	1	-1E+10	1	-1E+10	1
4901784	113	C	08/08/2018	10:32	-131.982	43.025	0	117.90	0	9.0000	0	33.0450	8	25.590	0	116.931	0	239.4	4	84.1	4	-1E+10	1	-1E+10	1	-1E+10	1	-1E+10	1	-1E+10	1	-1E+10	1
4901784	113	C	08/08/2018	10:32	-131.982	43.025	0	119.70	0	8.8730	0	33.0810	8	25.638	0	118.716	0	237.6	4	83.3	4	-1E+10	1	-1E+10	1	-1E+10	1	-1E+10	1	-1E+10	1	-1E+10	1
4901784	113	C	08/08/2018	10:32	-131.982	43.025	0	122.40	0	8.6830	0	33.1100	8	25.690	0	121.393	0	236.3	4	82.5	4	-1E+10	1	-1E+10	1	-1E+10	1	-1E+10	1	-1E+10	1	-1E+10	1
4901784	113	C	08/08/2018	10:32	-131.982	43.025	0	125.00	0	8.5210	0	33.1370	8	25.736	0	123.970	0	234.1	4	81.4	4	-1E+10	1	-1E+10	1	-1E+10	1	-1E+10	1	-1E+10	1	-1E+10	1
4901784	113	C	08/08/2018	10:32	-131.982	43.025	0	127.80	0	8.3840	0	33.1810	8	25.791	0	126.746	0	230.5	4	80.0	4	-1E+10	1	-1E+10	1	-1E+10	1	-1E+10	1	-1E+10	1	-1E+10	1
4901784	113	C	08/08/2018	10:32	-131.982	43.025	0	130.50	0	8.2930	0	33.2410	8	25.851	0	129.423	0	226.2	4	78.4	4	-1E+10	1	-1E+10	1	-1E+10	1	-1E+10	1	-1E+10	1	-1E+10	1
4901784	113	C	08/08/2018	10:32	-131.982	43.025	0	132.30	0	8.2130	0	33.2870	8	25.899	0	131.208	0	223.4	4	77.3	4	-1E+10	1	-1E+10	1	-1E+10	1	-1E+10	1	-1E+10	1	-1E+10	1
4901784	113	C	08/08/2018	10:32	-131.982	43.025	0	134.60	0	8.2000	0	33.3510	8	25.952	0	133.488	0	218.8	4	75.7	4	-1E+10	1	-1E+10	1	-1E+10	1	-1E+10	1	-1E+10	1	-1E+10	1
4901784	113	C	08/08/2018	10:32	-131.982	43.025	0	137.20	0	8.1730	0	33.4040	8	25.997	0	136.066	0	212.6	4	73.5	4	-1E+10	1	-1E+10	1	-1E+10	1	-1E+10	1	-1E+10	1	-1E+10	1
4901784	113	C	08/08/2018	10:32	-131.982	43.025	0	140.10	0	8.2110	0	33.5470	8	26.104	0	138.941	0	203.5	4	70.5	4	-1E+10	1	-1E+10	1	-1E+10	1	-1E+10	1	-1E+10	1	-1E+10	1
4901784	113	C	08/08/2018	10:32	-131.982	43.025	0	142.40	0	8.2520	0	33.6230	8	26.157	0	141.221	0	197.9	4	68.7	4	-1E+10	1	-1E+10	1	-1E+10	1	-1E+10	1	-1E+10	1	-1E+10	1
4901784	113	C	08/08/2018	10:32	-131.982	43.025	0	144.80	0	8.2900	0	33.6880	8	26.203	0	143.600	0	193.5	4	67.3	4	-1E+10	1	-1E+10	1	-1E+10	1	-1E+10	1	-1E+10	1	-1E+10	1
4901784	113	C	08/08/2018	10:32	-131.982	43.025	0	147.20	0	8.3210	0	33.7360	8	26.236	0	145.980	0	189.3	4	65.8	4	-1E+10	1	-1E+10	1	-1E+10	1	-1E+10	1	-1E+10	1	-1E+10	1
4901784	113	C	08/08/2018	10:32	-131.982	43.025	0	149.70	0	8.3510	0	33.7910	8	26.275	0	148.458	0	185.1	4	64.4	4	-1E+10	1	-1E+10	1	-1E+10	1	-1E+10	1	-1E+10	1	-1E+10	1
4901784	113	C	08/08/2018	10:32	-131.982	43.025	0	152.20	0	8.3830	0	33.8600	8	26.324	0	150.936	0	181.3	4	63.2	4	-1E+10	1	-1E+10	1	-1E+10	1	-1E+10	1	-1E+10	1	-1E+10	1
4901784	113	C	08/08/2018	10:32	-131.982	43.025	0	155.00	0	8.4000	0	33.9100	8	26.361	0	153.712	0	178.5	4	62.3	4	-1E+10	1	-1E+10	1	-1E+10	1	-1E+10	1	-1E+10	1	-1E+10	1
4901784	113	C	08/08/2018	10:32	-131.982	43.025	0	157.60	0	8.4020	0	33.9220	8	26.370	0	156.290	0	176.0	4	61.4	4	-1E+10	1	-1E+10	1	-1E+10	1	-1E+10	1	-1E+10	1	-1E+10	1
4901784	113	C	08/08/2018	10:32	-131.982	43.025	0	159.80	0	8.4010	0	33.9490	8	26.391	0	158.470	0	173.4	4	60.5	4	-1E+10	1	-1E+10	1	-1E+10	1	-1E+10	1	-1E+10	1	-1E+10	1
4901784	113	C	08/08/2018	10:32	-131.982	43.025	0	162.80	0	8.3960	0	33.9940	8	26.427	0	161.444	0	170.7	4	59.6	4	-1E+10	1	-1E+10	1	-1E+10	1	-1E+10	1	-1E+10	1	-1E+10	1
4901784	113	C	08/08/2018	10:32	-131.982	43.025	0	165.00	0	8.3850	0	34.0130	8	26.444	0	163.625	0	169.1	4	59.0	4	-1E+10	1	-1E+10	1	-1E+10	1	-1E+10	1	-1E+10	1	-1E+10	1
4901784	113	C	08/08/2018	10:32	-131.982	43.025	0	167.30	0	8.3800	0	34.0200	8	26.450	0	165.905	0	167.5	4	58.5	4	-1E+10	1	-1E+10	1	-1E+10	1	-1E+10	1	-1E+10	1	-1E+10	1
4901784	113	C	08/08/2018	10:32	-131.982	43.025	0	170.40	0	8.3700	0	34.0300	8	26.459	0	168.978	0	164.7	4	57.5	4	-1E+10	1	-1E+10	1	-1E+10	1	-1E+10	1	-1E+10	1	-1E+10	1
4901784	113	C	08/08/2018	10:32	-131.982	43.025	0	172.90	0	8.3410	0	34.0530	8	26.482	0	171.456	0	162.0	4	56.5	4	-1E+10	1	-1E+10	1	-1E+10	1	-1E+10	1	-1E+10	1	-1E+10	1
4901784	113	C	08/08/2018	10:32	-131.982	43.025	0	175.40	0	8.3060	0	34.0670	8	26.498	0	173.934	0	159.3	4	55.5	4	-1E+10	1	-1E+10	1	-1E+10	1	-1E+10	1	-1E+10	1	-1E+10	1
4901784	113	C	08/08/2018	10:32	-131.982	43.025	0	178.00	0	8.2290	0	34.0850	8	26.524	0	176.511	0	157.1	4	54.7	4	-1E+10	1	-1E+10	1	-1E+10	1	-1E+10	1	-1E+10	1	-1E+10	1
4901784	113	C	08/08/2018	10:32	-131.982	43.025	0	179.80	0	8.1920	0	34.0940	8	26.537	0	178.295	0	156.2	4	54.3	4	-1E+10	1	-1E+10	1	-1E+10	1	-1E+10	1	-1E+10	1	-1E+10	1
4901784	113	C	08/08/2018	10:32	-131.982	43.025	0	182.50	0	8.1560	0	34.0980	8	26.545	0	180.972	0	155.1	4	53.9	4	-1E+10	1	-1E+10	1	-1E+10	1	-1E+10	1	-1E+10	1	-1E+10	1
4901784	113	C	08/08/2018	10:32	-131.982	43.025	0	185.20	0	8.1390	0	34.0990	8	26.549	0	183.648	0	154.7	4	53.7	4	-1E+10	1	-1E+10	1	-1E+10	1	-1E+10	1	-1E+10	1	-1E+10	1
4901784	113	C	08/08/2018	10:32	-131.982	43.025	0	187.00	0	8.1360	0	34.0990	8	26.549	0	185.432	0	154.6	4	53.7	4	-1E+10	1	-1E+10	1	-1E+10	1	-1E+10	1	-1E+10	1	-1E+10	1
4901784	113	C	08/08/2018	10:32	-131.982	43.025	0	189.70	0	8.1300	0	34.0990	8	26.550	0	188.108	0	153.9	4	53.5	4	-1E+10	1	-1E+10	1	-1E+10	1	-1E+10	1	-1E+10	1	-1E+10	1
4901784	113	C	08/08/2018	10:32	-131.982	43.025	0	192.50	0	8.0680	0	34.1060	8	26.565	0	190.883	0	153.4	4	53.2	4	-1E+10	1	-1E+10	1	-1E+10	1	-1E+10	1	-1E+10	1	-1E+10	1
4901784	113	C	08/08/2018	10:32	-131.982	43.025	0	195.20	0	8.0380	0	34.1090	8	26.572	0	193.559	0	153.6	4	53.2	4	-1E+10	1	-1E+10	1	-1E+10	1	-1E+10	1	-1E+10	1	-1E+10	1
4901784	113	C	08/08/2018	10:32	-131.982	43.025	0	198.00	0	8.0110	0	34.1130	8	26.579	0	196.334	0	153.9	4	53.3	4	-1E+10	1	-1E+10	1	-1E+10	1	-1E+10	1	-1E+10	1	-1E+10	1
4901784	113	C	08/08/2018	10:32	-131.982	43.025	0	199.90	0	8.0100	0	34.1150	8	26.581	0	198.217	0	153.7	4	53.2	4	-1E+10	1	-1E+10	1	-1E+10	1	-1E+10	1	-1E+10	1	-1E+10	1
4901784	113	C	08/08/2018	10:32	-131.982	43.025	0	202.70	0	7.9720	0	34.1170	8	26.588	0	200.993	0	152.8	4	52.9	4	-1E+10	1	-1E+10	1	-1E+10	1	-1E+10	1	-1E+10	1	-1E+10	1
4901784	113	C	08/08/2018	10:32	-131.982	43.025	0	205.50	0	7.9500	0	34.1170	8	26.591	0	203.768	0	151.8	4	52.5	4	-1E+10	1	-1E+10	1	-1E+10	1	-1E+10	1	-1E+10	1	-1E+10	1
4901784	113	C	08/08/2018	10:32	-131.982	43.025	0	207.40	0	7.9340	0	34.1180	8	26.594	0	205.651	0	150.9	4	52.2	4	-1E+10	1	-1E+10	1	-1E+10	1	-1E+10	1	-1E+10	1	-1E+10	1
4901784	113	C	08/08/2018	10:32	-131.982	43.025	0	210.20	0	7.9110	0	34.1180	8	26.598	0	208.426	0	149.2	4	51.6	4	-1E+10	1	-1E+10	1	-1E+10	1	-1E+10	1	-1E+10	1	-1E+10	1
4901784	113	C	08/08/2018	10:32	-131.982	43.025	0	213.00	0	7.8510	0	34.1180	8	26.606	0	211.201	0	146.9	4	50.7	4	-1E+10	1	-1E+10	1	-1E+10	1	-1E+10	1	-1E+10	1	-1E+10	1
4901784	113	C	08/08/2018	10:32	-131.982	43.025	0	214.90	0	7.8350	0	34.1170	8	26.608	0	213.083	0	145.7	4	50.3	4	-1E+10	1	-1E+10	1	-1E+10	1	-1E+10	1	-1E+10	1	-1E+10	1
4901784	113	C	08/08/2018	10:32	-131.982	43.025	0	217.70	0	7.7950	0	34.1180	8	26.615	0	215.858	0	144.2	4	49.7	4	-1E+10	1	-1E+10	1	-1E+10	1	-1E+10	1	-1E+10	1	-1E+10	1
4901784	113	C	08/08/2018	10:32	-131.982	43.025	0	220.60	0	7.7550	0	34.1180	8	26.621	0	218.732	0	143.3	4	49.4	4	-1E+10	1	-1E+10	1	-1E+10	1	-1E+10	1	-1E+10	1	-1E+10	1
4901784	113	C	08/08/2018	10:32	-131.982	43.025	0	222.30	0	7.7250	0	34.1170	8	26.624	0	220.417	0	142.8	4	49.2	4	-1E+10	1	-1E+10	1	-1E+10	1	-1E+10	1	-1E+10	1	-1E+10	1
4901784	113	C	08/08/2018	10:32	-131.982	43.025	0	225.10	0	7.6810	0	34.1190	8	26.632	0	223.192	0	142.2	4	48.9	4	-1E+10	1	-1E+10	1	-1E+10	1	-1E+10	1	-1E+10	1	-1E+10	1
4901784	113	C	08/08/2018	10:32	-131.982	43.025	0	227.80	0	7.6420	0	34.1190	8	26.638	0	225.867	0	141.8	4	48.7	4	-1E+10	1	-1E+10	1	-1E+10	1	-1E+10	1	-1E+10	1	-1E+10	1
4901784	113	C	08/08/2018	10:32	-131.982	43.025	0	229.60	0	7.6220	0	34.1200	8	26.641	0	227.651	0	141.6	4	48.6	4	-1E+10	1	-1E+10	1	-1E+10	1	-1E+10	1	-1E+10	1	-1E+10	1
4901784	113	C	08/08/2018	10:32	-131.982	43.025	0	232.40	0	7.5840	0	34.1200	8	26.647	0	230.426	0	141.1	4	48.4	4	-1E+10	1	-1E+10	1	-1E+10	1	-1E+10	1	-1E+10	1	-1E+10	1
4901784	113	C	08/08/2018	10:32	-131.982	43.025	0	235.20	0	7.5560	0	34.1200	8	26.651	0	233.200	0	140.6	4	48.2	4	-1E+10	1	-1E+10	1	-1E+10	1	-1E+10	1	-1E+10	1	-1E+10	1
4901784	113	C	08/08/2018	10:32	-131.982	43.025	0	236.90	0	7.5280	0	34.1210	8	26.656	0	234.885	0	140.3	4	48.1	4	-1E+10	1	-1E+10	1	-1E+10	1	-1E+10	1	-1E+10	1	-1E+10	1
4901784	113	C	08/08/2018	10:32	-131.982	43.025	0	239.70	0	7.4660	0	34.1210	8	26.665	0	237.660	0	139.7	4	47.8	4	-1E+10	1	-1E+10	1	-1E+10	1	-1E+10	1	-1E+10	1	-1E+10	1
4901784	113	C	08/08/2018	10:32	-131.982	43.025	0	242.40	0	7.4090	0	34.1230	8	26.674	0	240.335	0	139.1	4	47.5	4	-1E+10	1	-1E+10	1	-1E+10	1	-1E+10	1	-1E+10	1	-1E+10	1
4901784	113	C	08/08/2018	10:32	-131.982	43.025	0	245.20	0	7.3830	0	34.1230	8	26.678	0	243.110	0	139.0	4	47.5	4	-1E+10	1	-1E+10	1	-1E+10	1	-1E+10	1	-1E+10	1	-1E+10	1
4901784	113	C	08/08/2018	10:32	-131.982	43.025	0	247.90	0	7.3610	0	34.1230	8	26.681	0	245.785	0	138.8	4	47.4	4	-1E+10	1	-1E+10	1	-1E+10	1	-1E+10	1	-1E+10	1	-1E+10	1
4901784	113	C	08/08/2018	10:32	-131.982	43.025	0	249.60	0	7.3480	0	34.1230	8	26.683	0	247.469	0	138.5	4	47.3	4	-1E+10	1	-1E+10	1	-1E+10	1	-1E+10	1	-1E+10	1	-1E+10	1
4901784	113	C	08/08/2018	10:32	-131.982	43.025	0	252.30	0	7.3240	0	34.1230	8	26.686	0	250.145	0	137.9	4	47.0	4	-1E+10	1	-1E+10	1	-1E+10	1	-1E+10	1	-1E+10	1	-1E+10	1
4901784	113	C	08/08/2018	10:32	-131.982	43.025	0	255.00	0	7.2940	0	34.1220	8	26.690	0	252.820	0	137.0	4	46.7	4	-1E+10	1	-1E+10	1	-1E+10	1	-1E+10	1	-1E+10	1	-1E+10	1
4901784	113	C	08/08/2018	10:32	-131.982	43.025	0	257.80	0	7.2750	0	34.1220	8	26.693	0	255.594	0	135.8	4	46.3	4	-1E+10	1	-1E+10	1	-1E+10	1	-1E+10	1	-1E+10	1	-1E+10	1
4901784	113	C	08/08/2018	10:32	-131.982	43.025	0	260.50	0	7.2490	0	34.1200	8	26.695	0	258.270	0	134.4	4	45.8	4	-1E+10	1	-1E+10	1	-1E+10	1	-1E+10	1	-1E+10	1	-1E+10	1
4901784	113	C	08/08/2018	10:32	-131.982	43.025	0	262.30	0	7.1860	0	34.1210	8	26.704	0	260.053	0	133.5	4	45.4	4	-1E+10	1	-1E+10	1	-1E+10	1	-1E+10	1	-1E+10	1	-1E+10	1
4901784	113	C	08/08/2018	10:32	-131.982	43.025	0	265.00	0	7.1120	0	34.1240	8	26.717	0	262.728	0	132.4	4	44.9	4	-1E+10	1	-1E+10	1	-1E+10	1	-1E+10	1	-1E+10	1	-1E+10	1
4901784	113	C	08/08/2018	10:32	-131.982	43.025	0	267.80	0	7.0590	0	34.1220	8	26.723	0	265.502	0	131.4	4	44.5	4	-1E+10	1	-1E+10	1	-1E+10	1	-1E+10	1	-1E+10	1	-1E+10	1
4901784	113	C	08/08/2018	10:32	-131.982	43.025	0	269.60	0	7.0440	0	34.1210	8	26.724	0	267.286	0	130.8	4	44.3	4	-1E+10	1	-1E+10	1	-1E+10	1	-1E+10	1	-1E+10	1	-1E+10	1
4901784	113	C	08/08/2018	10:32	-131.982	43.025	0	272.40	0	6.9960	0	34.1250	8	26.734	0	270.060	0	130.0	4	44.0	4	-1E+10	1	-1E+10	1	-1E+10	1	-1E+10	1	-1E+10	1	-1E+10	1
4901784	113	C	08/08/2018	10:32	-131.982	43.025	0	275.10	0	6.9840	0	34.1200	8	26.731	0	272.735	0	129.2	4	43.7	4	-1E+10	1	-1E+10	1	-1E+10	1	-1E+10	1	-1E+10	1	-1E+10	1
4901784	113	C	08/08/2018	10:32	-131.982	43.025	0	276.90	0	6.9530	0	34.1200	8	26.736	0	274.518	0	128.6	4	43.5	4	-1E+10	1	-1E+10	1	-1E+10	1	-1E+10	1	-1E+10	1	-1E+10	1
4901784	113	C	08/08/2018	10:32	-131.982	43.025	0	279.70	0	6.9020	0	34.1210	8	26.743	0	277.292	0	127.9	4	43.2	4	-1E+10	1	-1E+10	1	-1E+10	1	-1E+10	1	-1E+10	1	-1E+10	1
4901784	113	C	08/08/2018	10:32	-131.982	43.025	0	282.40	0	6.8670	0	34.1240	8	26.751	0	279.967	0	127.1	4	42.9	4	-1E+10	1	-1E+10	1	-1E+10	1	-1E+10	1	-1E+10	1	-1E+10	1
4901784	113	C	08/08/2018	10:32	-131.982	43.025	0	285.10	0	6.8480	0	34.1230	8	26.752	0	282.642	0	126.1	4	42.6	4	-1E+10	1	-1E+10	1	-1E+10	1	-1E+10	1	-1E+10	1	-1E+10	1
4901784	113	C	08/08/2018	10:32	-131.982	43.025	0	287.80	0	6.8160	0	34.1200	8	26.754	0	285.317	0	125.1	4	42.2	4	-1E+10	1	-1E+10	1	-1E+10	1	-1E+10	1	-1E+10	1	-1E+10	1
4901784	113	C	08/08/2018	10:32	-131.982	43.025	0	289.60	0	6.8060	0	34.1190	8	26.755	0	287.100	0	124.0	4	41.8	4	-1E+10	1	-1E+10	1	-1E+10	1	-1E+10	1	-1E+10	1	-1E+10	1
4901784	113	C	08/08/2018	10:32	-131.982	43.025	0	292.40	0	6.7340	0	34.1200	8	26.765	0	289.874	0	122.4	4	41.2	4	-1E+10	1	-1E+10	1	-1E+10	1	-1E+10	1	-1E+10	1	-1E+10	1
4901784	113	C	08/08/2018	10:32	-131.982	43.025	0	295.20	0	6.6540	0	34.1180	8	26.775	0	292.648	0	121.2	4	40.7	4	-1E+10	1	-1E+10	1	-1E+10	1	-1E+10	1	-1E+10	1	-1E+10	1
4901784	113	C	08/08/2018	10:32	-131.982	43.025	0	297.10	0	6.6340	0	34.1170	8	26.776	0	294.530	0	120.4	4	40.4	4	-1E+10	1	-1E+10	1	-1E+10	1	-1E+10	1	-1E+10	1	-1E+10	1
4901784	113	C	08/08/2018	10:32	-131.982	43.025	0	299.90	0	6.5540	0	34.1190	8	26.789	0	297.304	0	119.1	4	39.9	4	-1E+10	1	-1E+10	1	-1E+10	1	-1E+10	1	-1E+10	1	-1E+10	1
4901784	113	C	08/08/2018	10:32	-131.982	43.025	0	302.70	0	6.4940	0	34.1190	8	26.797	0	300.078	0	117.9	4	39.5	4	-1E+10	1	-1E+10	1	-1E+10	1	-1E+10	1	-1E+10	1	-1E+10	1
4901784	113	C	08/08/2018	10:32	-131.982	43.025	0	304.60	0	6.4560	0	34.1190	8	26.802	0	301.960	0	117.4	4	39.3	4	-1E+10	1	-1E+10	1	-1E+10	1	-1E+10	1	-1E+10	1	-1E+10	1
4901784	113	C	08/08/2018	10:32	-131.982	43.025	0	307.50	0	6.4200	0	34.1170	8	26.805	0	304.833	0	116.4	4	38.9	4	-1E+10	1	-1E+10	1	-1E+10	1	-1E+10	1	-1E+10	1	-1E+10	1
4901784	113	C	08/08/2018	10:32	-131.982	43.025	0	310.30	0	6.3770	0	34.1160	8	26.810	0	307.606	0	115.7	4	38.6	4	-1E+10	1	-1E+10	1	-1E+10	1	-1E+10	1	-1E+10	1	-1E+10	1
4901784	113	C	08/08/2018	10:32	-131.982	43.025	0	312.10	0	6.3300	0	34.1180	8	26.817	0	309.389	0	115.1	4	38.4	4	-1E+10	1	-1E+10	1	-1E+10	1	-1E+10	1	-1E+10	1	-1E+10	1
4901784	113	C	08/08/2018	10:32	-131.982	43.025	0	314.90	0	6.2960	0	34.1180	8	26.822	0	312.163	0	114.0	4	38.0	4	-1E+10	1	-1E+10	1	-1E+10	1	-1E+10	1	-1E+10	1	-1E+10	1
4901784	113	C	08/08/2018	10:32	-131.982	43.025	0	317.70	0	6.2590	0	34.1140	8	26.823	0	314.936	0	112.4	4	37.4	4	-1E+10	1	-1E+10	1	-1E+10	1	-1E+10	1	-1E+10	1	-1E+10	1
4901784	113	C	08/08/2018	10:32	-131.982	43.025	0	319.60	0	6.2210	0	34.1150	8	26.829	0	316.818	0	111.5	4	37.1	4	-1E+10	1	-1E+10	1	-1E+10	1	-1E+10	1	-1E+10	1	-1E+10	1
4901784	113	C	08/08/2018	10:32	-131.982	43.025	0	322.40	0	6.1790	0	34.1130	8	26.833	0	319.592	0	110.8	4	36.8	4	-1E+10	1	-1E+10	1	-1E+10	1	-1E+10	1	-1E+10	1	-1E+10	1
4901784	113	C	08/08/2018	10:32	-131.982	43.025	0	325.20	0	6.1570	0	34.1120	8	26.835	0	322.365	0	110.0	4	36.5	4	-1E+10	1	-1E+10	1	-1E+10	1	-1E+10	1	-1E+10	1	-1E+10	1
4901784	113	C	08/08/2018	10:32	-131.982	43.025	0	327.60	0	6.1070	0	34.1130	8	26.842	0	324.742	0	109.3	4	36.2	4	-1E+10	1	-1E+10	1	-1E+10	1	-1E+10	1	-1E+10	1	-1E+10	1
4901784	113	C	08/08/2018	10:32	-131.982	43.025	0	330.40	0	6.0790	0	34.1110	8	26.844	0	327.516	0	108.5	4	35.9	4	-1E+10	1	-1E+10	1	-1E+10	1	-1E+10	1	-1E+10	1	-1E+10	1
4901784	113	C	08/08/2018	10:32	-131.982	43.025	0	332.90	0	6.0400	0	34.1100	8	26.848	0	329.992	0	107.5	4	35.6	4	-1E+10	1	-1E+10	1	-1E+10	1	-1E+10	1	-1E+10	1	-1E+10	1
4901784	113	C	08/08/2018	10:32	-131.982	43.025	0	335.30	0	5.9870	0	34.1100	8	26.855	0	332.369	0	106.4	4	35.2	4	-1E+10	1	-1E+10	1	-1E+10	1	-1E+10	1	-1E+10	1	-1E+10	1
4901784	113	C	08/08/2018	10:32	-131.982	43.025	0	337.80	0	5.9420	0	34.1100	8	26.860	0	334.845	0	105.2	4	34.8	4	-1E+10	1	-1E+10	1	-1E+10	1	-1E+10	1	-1E+10	1	-1E+10	1
4901784	113	C	08/08/2018	10:32	-131.982	43.025	0	340.30	0	5.9130	0	34.1100	8	26.864	0	337.321	0	103.8	4	34.3	4	-1E+10	1	-1E+10	1	-1E+10	1	-1E+10	1	-1E+10	1	-1E+10	1
4901784	113	C	08/08/2018	10:32	-131.982	43.025	0	342.70	0	5.8930	0	34.1100	8	26.867	0	339.698	0	102.0	4	33.7	4	-1E+10	1	-1E+10	1	-1E+10	1	-1E+10	1	-1E+10	1	-1E+10	1
4901784	113	C	08/08/2018	10:32	-131.982	43.025	0	345.20	0	5.8630	0	34.1100	8	26.870	0	342.174	0	99.8	4	32.9	4	-1E+10	1	-1E+10	1	-1E+10	1	-1E+10	1	-1E+10	1	-1E+10	1
4901784	113	C	08/08/2018	10:32	-131.982	43.025	0	347.70	0	5.8090	0	34.1130	8	26.879	0	344.650	0	97.5	4	32.1	4	-1E+10	1	-1E+10	1	-1E+10	1	-1E+10	1	-1E+10	1	-1E+10	1
4901784	113	C	08/08/2018	10:32	-131.982	43.025	0	350.20	0	5.7730	0	34.1150	8	26.885	0	347.126	0	96.0	4	31.6	4	-1E+10	1	-1E+10	1	-1E+10	1	-1E+10	1	-1E+10	1	-1E+10	1
4901784	113	C	08/08/2018	10:32	-131.982	43.025	0	352.60	0	5.7590	0	34.1150	8	26.887	0	349.503	0	94.7	4	31.2	4	-1E+10	1	-1E+10	1	-1E+10	1	-1E+10	1	-1E+10	1	-1E+10	1
4901784	113	C	08/08/2018	10:32	-131.982	43.025	0	355.10	0	5.7470	0	34.1150	8	26.889	0	351.979	0	93.1	4	30.6	4	-1E+10	1	-1E+10	1	-1E+10	1	-1E+10	1	-1E+10	1	-1E+10	1
4901784	113	C	08/08/2018	10:32	-131.982	43.025	0	357.60	0	5.7150	0	34.1170	8	26.894	0	354.455	0	91.3	4	30.0	4	-1E+10	1	-1E+10	1	-1E+10	1	-1E+10	1	-1E+10	1	-1E+10	1
4901784	113	C	08/08/2018	10:32	-131.982	43.025	0	360.10	0	5.6860	0	34.1180	8	26.899	0	356.931	0	90.0	4	29.6	4	-1E+10	1	-1E+10	1	-1E+10	1	-1E+10	1	-1E+10	1	-1E+10	1
4901784	113	C	08/08/2018	10:32	-131.982	43.025	0	362.60	0	5.6670	0	34.1180	8	26.901	0	359.407	0	88.7	4	29.1	4	-1E+10	1	-1E+10	1	-1E+10	1	-1E+10	1	-1E+10	1	-1E+10	1
4901784	113	C	08/08/2018	10:32	-131.982	43.025	0	365.20	0	5.6330	0	34.1190	8	26.906	0	361.982	0	87.4	4	28.7	4	-1E+10	1	-1E+10	1	-1E+10	1	-1E+10	1	-1E+10	1	-1E+10	1
4901784	113	C	08/08/2018	10:32	-131.982	43.025	0	367.70	0	5.5880	0	34.1190	8	26.911	0	364.457	0	86.4	4	28.3	4	-1E+10	1	-1E+10	1	-1E+10	1	-1E+10	1	-1E+10	1	-1E+10	1
4901784	113	C	08/08/2018	10:32	-131.982	43.025	0	370.20	0	5.5580	0	34.1180	8	26.914	0	366.933	0	85.6	4	28.0	4	-1E+10	1	-1E+10	1	-1E+10	1	-1E+10	1	-1E+10	1	-1E+10	1
4901784	113	C	08/08/2018	10:32	-131.982	43.025	0	372.70	0	5.5130	0	34.1190	8	26.920	0	369.409	0	84.8	4	27.7	4	-1E+10	1	-1E+10	1	-1E+10	1	-1E+10	1	-1E+10	1	-1E+10	1
4901784	113	C	08/08/2018	10:32	-131.982	43.025	0	375.30	0	5.4880	0	34.1190	8	26.923	0	371.984	0	84.0	4	27.5	4	-1E+10	1	-1E+10	1	-1E+10	1	-1E+10	1	-1E+10	1	-1E+10	1
4901784	113	C	08/08/2018	10:32	-131.982	43.025	0	377.90	0	5.4530	0	34.1180	8	26.927	0	374.558	0	83.0	4	27.1	4	-1E+10	1	-1E+10	1	-1E+10	1	-1E+10	1	-1E+10	1	-1E+10	1
4901784	113	C	08/08/2018	10:32	-131.982	43.025	0	379.70	0	5.4040	0	34.1220	8	26.936	0	376.341	0	82.2	4	26.8	4	-1E+10	1	-1E+10	1	-1E+10	1	-1E+10	1	-1E+10	1	-1E+10	1
4901784	113	C	08/08/2018	10:32	-131.982	43.025	0	382.30	0	5.3770	0	34.1230	8	26.940	0	378.915	0	81.6	4	26.6	4	-1E+10	1	-1E+10	1	-1E+10	1	-1E+10	1	-1E+10	1	-1E+10	1
4901784	113	C	08/08/2018	10:32	-131.982	43.025	0	385.00	0	5.3280	0	34.1260	8	26.948	0	381.589	0	81.1	4	26.4	4	-1E+10	1	-1E+10	1	-1E+10	1	-1E+10	1	-1E+10	1	-1E+10	1
4901784	113	C	08/08/2018	10:32	-131.982	43.025	0	387.60	0	5.2980	0	34.1260	8	26.952	0	384.164	0	80.7	4	26.3	4	-1E+10	1	-1E+10	1	-1E+10	1	-1E+10	1	-1E+10	1	-1E+10	1
4901784	113	C	08/08/2018	10:32	-131.982	43.025	0	390.30	0	5.2680	0	34.1290	8	26.957	0	386.837	0	79.8	4	26.0	4	-1E+10	1	-1E+10	1	-1E+10	1	-1E+10	1	-1E+10	1	-1E+10	1
4901784	113	C	08/08/2018	10:32	-131.982	43.025	0	392.10	0	5.2480	0	34.1300	8	26.961	0	388.619	0	79.4	4	25.8	4	-1E+10	1	-1E+10	1	-1E+10	1	-1E+10	1	-1E+10	1	-1E+10	1
4901784	113	C	08/08/2018	10:32	-131.982	43.025	0	394.80	0	5.2090	0	34.1320	8	26.967	0	391.293	0	78.3	4	25.4	4	-1E+10	1	-1E+10	1	-1E+10	1	-1E+10	1	-1E+10	1	-1E+10	1
4901784	113	C	08/08/2018	10:32	-131.982	43.025	0	397.50	0	5.1800	0	34.1340	8	26.972	0	393.966	0	77.2	4	25.1	4	-1E+10	1	-1E+10	1	-1E+10	1	-1E+10	1	-1E+10	1	-1E+10	1
4901784	113	C	08/08/2018	10:32	-131.982	43.025	0	400.20	0	5.1730	0	34.1360	8	26.974	0	396.640	0	76.2	4	24.7	4	-1E+10	1	-1E+10	1	-1E+10	1	-1E+10	1	-1E+10	1	-1E+10	1
4901784	113	C	08/08/2018	10:32	-131.982	43.025	0	402.90	0	5.1620	0	34.1370	8	26.976	0	399.313	0	75.1	4	24.4	4	-1E+10	1	-1E+10	1	-1E+10	1	-1E+10	1	-1E+10	1	-1E+10	1
4901784	113	C	08/08/2018	10:32	-131.982	43.025	0	404.70	0	5.1550	0	34.1380	8	26.978	0	401.095	0	74.3	4	24.1	4	-1E+10	1	-1E+10	1	-1E+10	1	-1E+10	1	-1E+10	1	-1E+10	1
4901784	113	C	08/08/2018	10:32	-131.982	43.025	0	407.40	0	5.1480	0	34.1400	8	26.980	0	403.769	0	73.0	4	23.7	4	-1E+10	1	-1E+10	1	-1E+10	1	-1E+10	1	-1E+10	1	-1E+10	1
4901784	113	C	08/08/2018	10:32	-131.982	43.025	0	410.10	0	5.1390	0	34.1440	8	26.984	0	406.442	0	71.8	4	23.3	4	-1E+10	1	-1E+10	1	-1E+10	1	-1E+10	1	-1E+10	1	-1E+10	1
4901784	113	C	08/08/2018	10:32	-131.982	43.025	0	412.80	0	5.1160	0	34.1460	8	26.989	0	409.115	0	70.9	4	23.0	4	-1E+10	1	-1E+10	1	-1E+10	1	-1E+10	1	-1E+10	1	-1E+10	1
4901784	113	C	08/08/2018	10:32	-131.982	43.025	0	415.50	0	5.0870	0	34.1490	8	26.994	0	411.789	0	70.3	4	22.8	4	-1E+10	1	-1E+10	1	-1E+10	1	-1E+10	1	-1E+10	1	-1E+10	1
4901784	113	C	08/08/2018	10:32	-131.982	43.025	0	417.40	0	5.0570	0	34.1500	8	26.999	0	413.670	0	69.8	4	22.6	4	-1E+10	1	-1E+10	1	-1E+10	1	-1E+10	1	-1E+10	1	-1E+10	1
4901784	113	C	08/08/2018	10:32	-131.982	43.025	0	420.10	0	5.0500	0	34.1510	8	27.000	0	416.343	0	68.6	4	22.2	4	-1E+10	1	-1E+10	1	-1E+10	1	-1E+10	1	-1E+10	1	-1E+10	1
4901784	113	C	08/08/2018	10:32	-131.982	43.025	0	422.90	0	5.0350	0	34.1550	8	27.005	0	419.115	0	67.4	4	21.8	4	-1E+10	1	-1E+10	1	-1E+10	1	-1E+10	1	-1E+10	1	-1E+10	1
4901784	113	C	08/08/2018	10:32	-131.982	43.025	0	424.80	0	5.0060	0	34.1600	8	27.013	0	420.996	0	67.3	4	21.8	4	-1E+10	1	-1E+10	1	-1E+10	1	-1E+10	1	-1E+10	1	-1E+10	1
4901784	113	C	08/08/2018	10:32	-131.982	43.025	0	427.70	0	4.9970	0	34.1600	8	27.014	0	423.867	0	67.4	4	21.8	4	-1E+10	1	-1E+10	1	-1E+10	1	-1E+10	1	-1E+10	1	-1E+10	1
4901784	113	C	08/08/2018	10:32	-131.982	43.025	0	430.60	0	4.9750	0	34.1610	8	27.017	0	426.738	0	67.5	4	21.8	4	-1E+10	1	-1E+10	1	-1E+10	1	-1E+10	1	-1E+10	1	-1E+10	1
4901784	113	C	08/08/2018	10:32	-131.982	43.025	0	433.00	0	4.9550	0	34.1620	8	27.020	0	429.114	0	67.3	4	21.7	4	-1E+10	1	-1E+10	1	-1E+10	1	-1E+10	1	-1E+10	1	-1E+10	1
4901784	113	C	08/08/2018	10:32	-131.982	43.025	0	434.80	0	4.9440	0	34.1620	8	27.021	0	430.896	0	67.0	4	21.6	4	-1E+10	1	-1E+10	1	-1E+10	1	-1E+10	1	-1E+10	1	-1E+10	1
4901784	113	C	08/08/2018	10:32	-131.982	43.025	0	437.20	0	4.9120	0	34.1650	8	27.027	0	433.272	0	66.4	4	21.4	4	-1E+10	1	-1E+10	1	-1E+10	1	-1E+10	1	-1E+10	1	-1E+10	1
4901784	113	C	08/08/2018	10:32	-131.982	43.025	0	440.40	0	4.8900	0	34.1660	8	27.031	0	436.440	0	65.7	4	21.2	4	-1E+10	1	-1E+10	1	-1E+10	1	-1E+10	1	-1E+10	1	-1E+10	1
4901784	113	C	08/08/2018	10:32	-131.982	43.025	0	442.90	0	4.8760	0	34.1680	8	27.034	0	438.915	0	64.9	4	20.9	4	-1E+10	1	-1E+10	1	-1E+10	1	-1E+10	1	-1E+10	1	-1E+10	1
4901784	113	C	08/08/2018	10:32	-131.982	43.025	0	445.30	0	4.8570	0	34.1700	8	27.037	0	441.291	0	64.1	4	20.6	4	-1E+10	1	-1E+10	1	-1E+10	1	-1E+10	1	-1E+10	1	-1E+10	1
4901784	113	C	08/08/2018	10:32	-131.982	43.025	0	447.70	0	4.8410	0	34.1710	8	27.040	0	443.666	0	63.0	4	20.3	4	-1E+10	1	-1E+10	1	-1E+10	1	-1E+10	1	-1E+10	1	-1E+10	1
4901784	113	C	08/08/2018	10:32	-131.982	43.025	0	450.20	0	4.8230	0	34.1750	8	27.045	0	446.141	0	61.8	4	19.9	4	-1E+10	1	-1E+10	1	-1E+10	1	-1E+10	1	-1E+10	1	-1E+10	1
4901784	113	C	08/08/2018	10:32	-131.982	43.025	0	452.70	0	4.8100	0	34.1770	8	27.048	0	448.616	0	60.8	4	19.6	4	-1E+10	1	-1E+10	1	-1E+10	1	-1E+10	1	-1E+10	1	-1E+10	1
4901784	113	C	08/08/2018	10:32	-131.982	43.025	0	455.20	0	4.8040	0	34.1780	8	27.050	0	451.091	0	59.6	4	19.2	4	-1E+10	1	-1E+10	1	-1E+10	1	-1E+10	1	-1E+10	1	-1E+10	1
4901784	113	C	08/08/2018	10:32	-131.982	43.025	0	457.90	0	4.7930	0	34.1810	8	27.053	0	453.763	0	57.8	4	18.6	4	-1E+10	1	-1E+10	1	-1E+10	1	-1E+10	1	-1E+10	1	-1E+10	1
4901784	113	C	08/08/2018	10:32	-131.982	43.025	0	459.60	0	4.7770	0	34.1850	8	27.058	0	455.446	0	56.7	4	18.2	4	-1E+10	1	-1E+10	1	-1E+10	1	-1E+10	1	-1E+10	1	-1E+10	1
4901784	113	C	08/08/2018	10:32	-131.982	43.025	0	462.20	0	4.7520	0	34.1900	8	27.065	0	458.020	0	55.3	4	17.8	4	-1E+10	1	-1E+10	1	-1E+10	1	-1E+10	1	-1E+10	1	-1E+10	1
4901784	113	C	08/08/2018	10:32	-131.982	43.025	0	464.80	0	4.7410	0	34.1950	8	27.070	0	460.593	0	53.8	4	17.3	4	-1E+10	1	-1E+10	1	-1E+10	1	-1E+10	1	-1E+10	1	-1E+10	1
4901784	113	C	08/08/2018	10:32	-131.982	43.025	0	467.40	0	4.7310	0	34.1980	8	27.074	0	463.167	0	52.9	4	17.0	4	-1E+10	1	-1E+10	1	-1E+10	1	-1E+10	1	-1E+10	1	-1E+10	1
4901784	113	C	08/08/2018	10:32	-131.982	43.025	0	470.00	0	4.7160	0	34.1990	8	27.076	0	465.741	0	51.8	4	16.6	4	-1E+10	1	-1E+10	1	-1E+10	1	-1E+10	1	-1E+10	1	-1E+10	1
4901784	113	C	08/08/2018	10:32	-131.982	43.025	0	472.70	0	4.7010	0	34.2020	8	27.080	0	468.413	0	50.6	4	16.3	4	-1E+10	1	-1E+10	1	-1E+10	1	-1E+10	1	-1E+10	1	-1E+10	1
4901784	113	C	08/08/2018	10:32	-131.982	43.025	0	475.40	0	4.6880	0	34.2070	8	27.086	0	471.086	0	49.3	4	15.8	4	-1E+10	1	-1E+10	1	-1E+10	1	-1E+10	1	-1E+10	1	-1E+10	1
4901784	113	C	08/08/2018	10:32	-131.982	43.025	0	477.20	0	4.6750	0	34.2090	8	27.089	0	472.867	0	48.6	4	15.6	4	-1E+10	1	-1E+10	1	-1E+10	1	-1E+10	1	-1E+10	1	-1E+10	1
4901784	113	C	08/08/2018	10:32	-131.982	43.025	0	479.80	0	4.6730	0	34.2140	8	27.093	0	475.441	0	47.5	4	15.2	4	-1E+10	1	-1E+10	1	-1E+10	1	-1E+10	1	-1E+10	1	-1E+10	1
4901784	113	C	08/08/2018	10:32	-131.982	43.025	0	482.40	0	4.6600	0	34.2170	8	27.097	0	478.014	0	46.3	4	14.9	4	-1E+10	1	-1E+10	1	-1E+10	1	-1E+10	1	-1E+10	1	-1E+10	1
4901784	113	C	08/08/2018	10:32	-131.982	43.025	0	485.20	0	4.6590	0	34.2200	8	27.100	0	480.785	0	45.4	4	14.6	4	-1E+10	1	-1E+10	1	-1E+10	1	-1E+10	1	-1E+10	1	-1E+10	1
4901784	113	C	08/08/2018	10:32	-131.982	43.025	0	487.90	0	4.6610	0	34.2220	8	27.101	0	483.458	0	45.0	4	14.4	4	-1E+10	1	-1E+10	1	-1E+10	1	-1E+10	1	-1E+10	1	-1E+10	1
4901784	113	C	08/08/2018	10:32	-131.982	43.025	0	489.70	0	4.6560	0	34.2220	8	27.101	0	485.239	0	44.8	4	14.4	4	-1E+10	1	-1E+10	1	-1E+10	1	-1E+10	1	-1E+10	1	-1E+10	1
4901784	113	C	08/08/2018	10:32	-131.982	43.025	0	492.40	0	4.6510	0	34.2240	8	27.104	0	487.911	0	44.3	4	14.2	4	-1E+10	1	-1E+10	1	-1E+10	1	-1E+10	1	-1E+10	1	-1E+10	1
4901784	113	C	08/08/2018	10:32	-131.982	43.025	0	495.10	0	4.6480	0	34.2240	8	27.104	0	490.583	0	44.0	4	14.1	4	-1E+10	1	-1E+10	1	-1E+10	1	-1E+10	1	-1E+10	1	-1E+10	1
4901784	113	C	08/08/2018	10:32	-131.982	43.025	0	497.00	0	4.6380	0	34.2240	8	27.105	0	492.464	0	43.7	4	14.0	4	-1E+10	1	-1E+10	1	-1E+10	1	-1E+10	1	-1E+10	1	-1E+10	1
4901784	113	C	08/08/2018	10:32	-131.982	43.025	0	499.80	0	4.6280	0	34.2270	8	27.109	0	495.235	0	43.2	4	13.8	4	-1E+10	1	-1E+10	1	-1E+10	1	-1E+10	1	-1E+10	1	-1E+10	1
4901784	113	C	08/08/2018	10:32	-131.982	43.025	0	504.40	0	4.6030	0	34.2310	8	27.115	0	499.787	0	42.6	4	13.7	4	-1E+10	1	-1E+10	1	-1E+10	1	-1E+10	1	-1E+10	1	-1E+10	1
4901784	113	C	08/08/2018	10:32	-131.982	43.025	0	509.90	0	4.5720	0	34.2330	8	27.120	0	505.230	0	42.1	4	13.5	4	-1E+10	1	-1E+10	1	-1E+10	1	-1E+10	1	-1E+10	1	-1E+10	1
4901784	113	C	08/08/2018	10:32	-131.982	43.025	0	515.50	0	4.5560	0	34.2370	8	27.125	0	510.772	0	40.9	4	13.1	4	-1E+10	1	-1E+10	1	-1E+10	1	-1E+10	1	-1E+10	1	-1E+10	1
4901784	113	C	08/08/2018	10:32	-131.982	43.025	0	520.30	0	4.5540	0	34.2400	8	27.127	0	515.522	0	39.9	4	12.8	4	-1E+10	1	-1E+10	1	-1E+10	1	-1E+10	1	-1E+10	1	-1E+10	1
4901784	113	C	08/08/2018	10:32	-131.982	43.025	0	524.90	0	4.5530	0	34.2420	8	27.129	0	520.074	0	39.1	4	12.5	4	-1E+10	1	-1E+10	1	-1E+10	1	-1E+10	1	-1E+10	1	-1E+10	1
4901784	113	C	08/08/2018	10:32	-131.982	43.025	0	530.50	0	4.5370	0	34.2450	8	27.133	0	525.616	0	38.0	4	12.1	4	-1E+10	1	-1E+10	1	-1E+10	1	-1E+10	1	-1E+10	1	-1E+10	1
4901784	113	C	08/08/2018	10:32	-131.982	43.025	0	535.20	0	4.5250	0	34.2480	8	27.137	0	530.267	0	37.0	4	11.8	4	-1E+10	1	-1E+10	1	-1E+10	1	-1E+10	1	-1E+10	1	-1E+10	1
4901784	113	C	08/08/2018	10:32	-131.982	43.025	0	539.90	0	4.5000	0	34.2530	8	27.144	0	534.917	0	36.3	4	11.6	4	-1E+10	1	-1E+10	1	-1E+10	1	-1E+10	1	-1E+10	1	-1E+10	1
4901784	113	C	08/08/2018	10:32	-131.982	43.025	0	545.50	0	4.4860	0	34.2570	8	27.148	0	540.458	0	35.1	4	11.2	4	-1E+10	1	-1E+10	1	-1E+10	1	-1E+10	1	-1E+10	1	-1E+10	1
4901784	113	C	08/08/2018	10:32	-131.982	43.025	0	550.20	0	4.4690	0	34.2620	8	27.154	0	545.109	0	34.1	4	10.9	4	-1E+10	1	-1E+10	1	-1E+10	1	-1E+10	1	-1E+10	1	-1E+10	1
4901784	113	C	08/08/2018	10:32	-131.982	43.025	0	555.00	0	4.4550	0	34.2630	8	27.156	0	549.858	0	33.2	4	10.6	4	-1E+10	1	-1E+10	1	-1E+10	1	-1E+10	1	-1E+10	1	-1E+10	1
4901784	113	C	08/08/2018	10:32	-131.982	43.025	0	559.90	0	4.4280	0	34.2690	8	27.164	0	554.706	0	32.0	4	10.2	4	-1E+10	1	-1E+10	1	-1E+10	1	-1E+10	1	-1E+10	1	-1E+10	1
4901784	113	C	08/08/2018	10:32	-131.982	43.025	0	564.70	0	4.4180	0	34.2740	8	27.169	0	559.455	0	31.0	4	9.9	4	-1E+10	1	-1E+10	1	-1E+10	1	-1E+10	1	-1E+10	1	-1E+10	1
4901784	113	C	08/08/2018	10:32	-131.982	43.025	0	570.50	0	4.4110	0	34.2790	8	27.174	0	565.193	0	29.8	4	9.5	4	-1E+10	1	-1E+10	1	-1E+10	1	-1E+10	1	-1E+10	1	-1E+10	1
4901784	113	C	08/08/2018	10:32	-131.982	43.025	0	575.50	0	4.3820	0	34.2860	8	27.183	0	570.140	0	29.0	4	9.2	4	-1E+10	1	-1E+10	1	-1E+10	1	-1E+10	1	-1E+10	1	-1E+10	1
4901784	113	C	08/08/2018	10:32	-131.982	43.025	0	580.00	0	4.3680	0	34.2890	8	27.187	0	574.592	0	28.5	4	9.1	4	-1E+10	1	-1E+10	1	-1E+10	1	-1E+10	1	-1E+10	1	-1E+10	1
4901784	113	C	08/08/2018	10:32	-131.982	43.025	0	584.80	0	4.3590	0	34.2910	8	27.189	0	579.340	0	27.9	4	8.9	4	-1E+10	1	-1E+10	1	-1E+10	1	-1E+10	1	-1E+10	1	-1E+10	1
4901784	113	C	08/08/2018	10:32	-131.982	43.025	0	589.50	0	4.3480	0	34.2950	8	27.194	0	583.990	0	27.1	4	8.6	4	-1E+10	1	-1E+10	1	-1E+10	1	-1E+10	1	-1E+10	1	-1E+10	1
4901784	113	C	08/08/2018	10:32	-131.982	43.025	0	594.30	0	4.3410	0	34.2980	8	27.197	0	588.738	0	26.3	4	8.4	4	-1E+10	1	-1E+10	1	-1E+10	1	-1E+10	1	-1E+10	1	-1E+10	1
4901784	113	C	08/08/2018	10:32	-131.982	43.025	0	599.30	0	4.3260	0	34.3030	8	27.202	0	593.684	0	25.6	4	8.2	4	-1E+10	1	-1E+10	1	-1E+10	1	-1E+10	1	-1E+10	1	-1E+10	1
4901784	113	C	08/08/2018	10:32	-131.982	43.025	0	604.20	0	4.3090	0	34.3080	8	27.208	0	598.531	0	24.9	4	7.9	4	-1E+10	1	-1E+10	1	-1E+10	1	-1E+10	1	-1E+10	1	-1E+10	1
4901784	113	C	08/08/2018	10:32	-131.982	43.025	0	609.20	0	4.2920	0	34.3110	8	27.212	0	603.477	0	24.4	4	7.8	4	-1E+10	1	-1E+10	1	-1E+10	1	-1E+10	1	-1E+10	1	-1E+10	1
4901784	113	C	08/08/2018	10:32	-131.982	43.025	0	614.30	0	4.2820	0	34.3140	8	27.216	0	608.522	0	24.0	4	7.6	4	-1E+10	1	-1E+10	1	-1E+10	1	-1E+10	1	-1E+10	1	-1E+10	1
4901784	113	C	08/08/2018	10:32	-131.982	43.025	0	619.30	0	4.2790	0	34.3160	8	27.218	0	613.467	0	23.5	4	7.5	4	-1E+10	1	-1E+10	1	-1E+10	1	-1E+10	1	-1E+10	1	-1E+10	1
4901784	113	C	08/08/2018	10:32	-131.982	43.025	0	624.30	0	4.2690	0	34.3210	8	27.223	0	618.413	0	22.9	4	7.3	4	-1E+10	1	-1E+10	1	-1E+10	1	-1E+10	1	-1E+10	1	-1E+10	1
4901784	113	C	08/08/2018	10:32	-131.982	43.025	0	629.20	0	4.2680	0	34.3230	8	27.225	0	623.259	0	22.0	4	7.0	4	-1E+10	1	-1E+10	1	-1E+10	1	-1E+10	1	-1E+10	1	-1E+10	1
4901784	113	C	08/08/2018	10:32	-131.982	43.025	0	634.20	0	4.2460	0	34.3330	8	27.235	0	628.205	0	21.1	4	6.7	4	-1E+10	1	-1E+10	1	-1E+10	1	-1E+10	1	-1E+10	1	-1E+10	1
4901784	113	C	08/08/2018	10:32	-131.982	43.025	0	639.30	0	4.2240	0	34.3380	8	27.241	0	633.249	0	20.4	4	6.5	4	-1E+10	1	-1E+10	1	-1E+10	1	-1E+10	1	-1E+10	1	-1E+10	1
4901784	113	C	08/08/2018	10:32	-131.982	43.025	0	644.30	0	4.2130	0	34.3450	8	27.248	0	638.194	0	19.8	4	6.3	4	-1E+10	1	-1E+10	1	-1E+10	1	-1E+10	1	-1E+10	1	-1E+10	1
4901784	113	C	08/08/2018	10:32	-131.982	43.025	0	649.50	0	4.2060	0	34.3470	8	27.250	0	643.336	0	19.6	4	6.2	4	-1E+10	1	-1E+10	1	-1E+10	1	-1E+10	1	-1E+10	1	-1E+10	1
4901784	113	C	08/08/2018	10:32	-131.982	43.025	0	654.70	0	4.1960	0	34.3490	8	27.253	0	648.479	0	19.2	4	6.1	4	-1E+10	1	-1E+10	1	-1E+10	1	-1E+10	1	-1E+10	1	-1E+10	1
4901784	113	C	08/08/2018	10:32	-131.982	43.025	0	659.90	0	4.1780	0	34.3530	8	27.258	0	653.621	0	18.9	4	6.0	4	-1E+10	1	-1E+10	1	-1E+10	1	-1E+10	1	-1E+10	1	-1E+10	1
4901784	113	C	08/08/2018	10:32	-131.982	43.025	0	665.10	0	4.1490	0	34.3580	8	27.265	0	658.764	0	18.4	4	5.8	4	-1E+10	1	-1E+10	1	-1E+10	1	-1E+10	1	-1E+10	1	-1E+10	1
4901784	113	C	08/08/2018	10:32	-131.982	43.025	0	670.40	0	4.1280	0	34.3650	8	27.273	0	664.005	0	17.7	4	5.6	4	-1E+10	1	-1E+10	1	-1E+10	1	-1E+10	1	-1E+10	1	-1E+10	1
4901784	113	C	08/08/2018	10:32	-131.982	43.025	0	674.90	0	4.1120	0	34.3710	8	27.279	0	668.455	0	17.1	4	5.4	4	-1E+10	1	-1E+10	1	-1E+10	1	-1E+10	1	-1E+10	1	-1E+10	1
4901784	113	C	08/08/2018	10:32	-131.982	43.025	0	679.40	0	4.0960	0	34.3780	8	27.287	0	672.904	0	16.6	4	5.3	4	-1E+10	1	-1E+10	1	-1E+10	1	-1E+10	1	-1E+10	1	-1E+10	1
4901784	113	C	08/08/2018	10:32	-131.982	43.025	0	684.70	0	4.0760	0	34.3830	8	27.293	0	678.145	0	16.2	4	5.1	4	-1E+10	1	-1E+10	1	-1E+10	1	-1E+10	1	-1E+10	1	-1E+10	1
4901784	113	C	08/08/2018	10:32	-131.982	43.025	0	690.10	0	4.0600	0	34.3860	8	27.297	0	683.484	0	15.9	4	5.0	4	-1E+10	1	-1E+10	1	-1E+10	1	-1E+10	1	-1E+10	1	-1E+10	1
4901784	113	C	08/08/2018	10:32	-131.982	43.025	0	695.50	0	4.0450	0	34.3900	8	27.302	0	688.824	0	15.6	4	4.9	4	-1E+10	1	-1E+10	1	-1E+10	1	-1E+10	1	-1E+10	1	-1E+10	1
4901784	113	C	08/08/2018	10:32	-131.982	43.025	0	700.00	0	4.0370	0	34.3930	8	27.305	0	693.273	0	15.4	4	4.9	4	-1E+10	1	-1E+10	1	-1E+10	1	-1E+10	1	-1E+10	1	-1E+10	1
4901784	113	C	08/08/2018	10:32	-131.982	43.025	0	704.50	0	4.0300	0	34.3970	8	27.309	0	697.722	0	15.0	4	4.8	4	-1E+10	1	-1E+10	1	-1E+10	1	-1E+10	1	-1E+10	1	-1E+10	1
4901784	113	C	08/08/2018	10:32	-131.982	43.025	0	710.00	0	4.0220	0	34.4030	8	27.314	0	703.160	0	14.7	4	4.6	4	-1E+10	1	-1E+10	1	-1E+10	1	-1E+10	1	-1E+10	1	-1E+10	1
4901784	113	C	08/08/2018	10:32	-131.982	43.025	0	715.50	0	4.0150	0	34.4070	8	27.318	0	708.598	0	14.3	4	4.5	4	-1E+10	1	-1E+10	1	-1E+10	1	-1E+10	1	-1E+10	1	-1E+10	1
4901784	113	C	08/08/2018	10:32	-131.982	43.025	0	720.00	0	4.0110	0	34.4120	8	27.323	0	713.047	0	14.0	4	4.4	4	-1E+10	1	-1E+10	1	-1E+10	1	-1E+10	1	-1E+10	1	-1E+10	1
4901784	113	C	08/08/2018	10:32	-131.982	43.025	0	724.60	0	4.0060	0	34.4160	8	27.327	0	717.594	0	13.7	4	4.3	4	-1E+10	1	-1E+10	1	-1E+10	1	-1E+10	1	-1E+10	1	-1E+10	1
4901784	113	C	08/08/2018	10:32	-131.982	43.025	0	730.20	0	4.0050	0	34.4210	8	27.331	0	723.131	0	13.5	4	4.3	4	-1E+10	1	-1E+10	1	-1E+10	1	-1E+10	1	-1E+10	1	-1E+10	1
4901784	113	C	08/08/2018	10:32	-131.982	43.025	0	734.80	0	3.9850	0	34.4250	8	27.336	0	727.678	0	13.3	4	4.2	4	-1E+10	1	-1E+10	1	-1E+10	1	-1E+10	1	-1E+10	1	-1E+10	1
4901784	113	C	08/08/2018	10:32	-131.982	43.025	0	739.50	0	3.9740	0	34.4280	8	27.339	0	732.324	0	13.1	4	4.1	4	-1E+10	1	-1E+10	1	-1E+10	1	-1E+10	1	-1E+10	1	-1E+10	1
4901784	113	C	08/08/2018	10:32	-131.982	43.025	0	745.20	0	3.9690	0	34.4340	8	27.345	0	737.959	0	12.8	4	4.0	4	-1E+10	1	-1E+10	1	-1E+10	1	-1E+10	1	-1E+10	1	-1E+10	1
4901784	113	C	08/08/2018	10:32	-131.982	43.025	0	749.90	0	3.9550	0	34.4370	8	27.349	0	742.605	0	12.6	4	4.0	4	-1E+10	1	-1E+10	1	-1E+10	1	-1E+10	1	-1E+10	1	-1E+10	1
4901784	113	C	08/08/2018	10:32	-131.982	43.025	0	754.50	0	3.9510	0	34.4420	8	27.353	0	747.152	0	12.2	4	3.9	4	-1E+10	1	-1E+10	1	-1E+10	1	-1E+10	1	-1E+10	1	-1E+10	1
4901784	113	C	08/08/2018	10:32	-131.982	43.025	0	760.20	0	3.9690	0	34.4510	8	27.358	0	752.786	0	11.9	4	3.8	4	-1E+10	1	-1E+10	1	-1E+10	1	-1E+10	1	-1E+10	1	-1E+10	1
4901784	113	C	08/08/2018	10:32	-131.982	43.025	0	764.90	0	3.9560	0	34.4530	8	27.361	0	757.432	0	11.9	4	3.8	4	-1E+10	1	-1E+10	1	-1E+10	1	-1E+10	1	-1E+10	1	-1E+10	1
4901784	113	C	08/08/2018	10:32	-131.982	43.025	0	769.60	0	3.9310	0	34.4540	8	27.365	0	762.077	0	12.0	4	3.8	4	-1E+10	1	-1E+10	1	-1E+10	1	-1E+10	1	-1E+10	1	-1E+10	1
4901784	113	C	08/08/2018	10:32	-131.982	43.025	0	775.30	0	3.8870	0	34.4540	8	27.369	0	767.711	0	12.3	4	3.9	4	-1E+10	1	-1E+10	1	-1E+10	1	-1E+10	1	-1E+10	1	-1E+10	1
4901784	113	C	08/08/2018	10:32	-131.982	43.025	0	780.00	0	3.8450	0	34.4510	8	27.371	0	772.356	0	12.4	4	3.9	4	-1E+10	1	-1E+10	1	-1E+10	1	-1E+10	1	-1E+10	1	-1E+10	1
4901784	113	C	08/08/2018	10:32	-131.982	43.025	0	784.80	0	3.8300	0	34.4530	8	27.374	0	777.100	0	12.4	4	3.9	4	-1E+10	1	-1E+10	1	-1E+10	1	-1E+10	1	-1E+10	1	-1E+10	1
4901784	113	C	08/08/2018	10:32	-131.982	43.025	0	790.40	0	3.7960	0	34.4550	8	27.379	0	782.635	0	12.3	4	3.9	4	-1E+10	1	-1E+10	1	-1E+10	1	-1E+10	1	-1E+10	1	-1E+10	1
4901784	113	C	08/08/2018	10:32	-131.982	43.025	0	795.20	0	3.7830	0	34.4580	8	27.383	0	787.379	0	12.2	4	3.8	4	-1E+10	1	-1E+10	1	-1E+10	1	-1E+10	1	-1E+10	1	-1E+10	1
4901784	113	C	08/08/2018	10:32	-131.982	43.025	0	800.10	0	3.7790	0	34.4600	8	27.385	0	792.221	0	12.1	4	3.8	4	-1E+10	1	-1E+10	1	-1E+10	1	-1E+10	1	-1E+10	1	-1E+10	1
4901784	113	C	08/08/2018	10:32	-131.982	43.025	0	805.50	0	3.7740	0	34.4630	8	27.388	0	797.558	0	12.0	4	3.8	4	-1E+10	1	-1E+10	1	-1E+10	1	-1E+10	1	-1E+10	1	-1E+10	1
4901784	113	C	08/08/2018	10:32	-131.982	43.025	0	810.40	0	3.7810	0	34.4670	8	27.391	0	802.400	0	11.8	4	3.7	4	-1E+10	1	-1E+10	1	-1E+10	1	-1E+10	1	-1E+10	1	-1E+10	1
4901784	113	C	08/08/2018	10:32	-131.982	43.025	0	815.40	0	3.7730	0	34.4710	8	27.395	0	807.341	0	11.6	4	3.7	4	-1E+10	1	-1E+10	1	-1E+10	1	-1E+10	1	-1E+10	1	-1E+10	1
4901784	113	C	08/08/2018	10:32	-131.982	43.025	0	820.50	0	3.7610	0	34.4770	8	27.401	0	812.381	0	11.5	4	3.6	4	-1E+10	1	-1E+10	1	-1E+10	1	-1E+10	1	-1E+10	1	-1E+10	1
4901784	113	C	08/08/2018	10:32	-131.982	43.025	0	825.50	0	3.7520	0	34.4780	8	27.402	0	817.321	0	11.5	4	3.6	4	-1E+10	1	-1E+10	1	-1E+10	1	-1E+10	1	-1E+10	1	-1E+10	1
4901784	113	C	08/08/2018	10:32	-131.982	43.025	0	830.60	0	3.7350	0	34.4780	8	27.404	0	822.361	0	11.4	4	3.6	4	-1E+10	1	-1E+10	1	-1E+10	1	-1E+10	1	-1E+10	1	-1E+10	1
4901784	113	C	08/08/2018	10:32	-131.982	43.025	0	835.70	0	3.7340	0	34.4830	8	27.408	0	827.400	0	11.2	4	3.5	4	-1E+10	1	-1E+10	1	-1E+10	1	-1E+10	1	-1E+10	1	-1E+10	1
4901784	113	C	08/08/2018	10:32	-131.982	43.025	0	840.00	0	3.7600	0	34.4920	8	27.413	0	831.649	0	11.0	4	3.5	4	-1E+10	1	-1E+10	1	-1E+10	1	-1E+10	1	-1E+10	1	-1E+10	1
4901784	113	C	08/08/2018	10:32	-131.982	43.025	0	844.20	0	3.7430	0	34.4930	8	27.415	0	835.799	0	11.0	4	3.4	4	-1E+10	1	-1E+10	1	-1E+10	1	-1E+10	1	-1E+10	1	-1E+10	1
4901784	113	C	08/08/2018	10:32	-131.982	43.025	0	849.40	0	3.7400	0	34.4950	8	27.417	0	840.937	0	10.9	4	3.4	4	-1E+10	1	-1E+10	1	-1E+10	1	-1E+10	1	-1E+10	1	-1E+10	1
4901784	113	C	08/08/2018	10:32	-131.982	43.025	0	854.70	0	3.7330	0	34.5000	8	27.422	0	846.173	0	10.8	4	3.4	4	-1E+10	1	-1E+10	1	-1E+10	1	-1E+10	1	-1E+10	1	-1E+10	1
4901784	113	C	08/08/2018	10:32	-131.982	43.025	0	859.90	0	3.7110	0	34.5030	8	27.427	0	851.311	0	10.7	4	3.4	4	-1E+10	1	-1E+10	1	-1E+10	1	-1E+10	1	-1E+10	1	-1E+10	1
4901784	113	C	08/08/2018	10:32	-131.982	43.025	0	865.20	0	3.7020	0	34.5060	8	27.430	0	856.547	0	10.6	4	3.3	4	-1E+10	1	-1E+10	1	-1E+10	1	-1E+10	1	-1E+10	1	-1E+10	1
4901784	113	C	08/08/2018	10:32	-131.982	43.025	0	870.40	0	3.6810	0	34.5090	8	27.434	0	861.684	0	10.6	4	3.3	4	-1E+10	1	-1E+10	1	-1E+10	1	-1E+10	1	-1E+10	1	-1E+10	1
4901784	113	C	08/08/2018	10:32	-131.982	43.025	0	875.60	0	3.7100	0	34.5160	8	27.437	0	866.821	0	10.6	4	3.3	4	-1E+10	1	-1E+10	1	-1E+10	1	-1E+10	1	-1E+10	1	-1E+10	1
4901784	113	C	08/08/2018	10:32	-131.982	43.025	0	880.00	0	3.7020	0	34.5170	8	27.439	0	871.168	0	10.5	4	3.3	4	-1E+10	1	-1E+10	1	-1E+10	1	-1E+10	1	-1E+10	1	-1E+10	1
4901784	113	C	08/08/2018	10:32	-131.982	43.025	0	884.40	0	3.6890	0	34.5210	8	27.443	0	875.515	0	10.5	4	3.3	4	-1E+10	1	-1E+10	1	-1E+10	1	-1E+10	1	-1E+10	1	-1E+10	1
4901784	113	C	08/08/2018	10:32	-131.982	43.025	0	889.70	0	3.6580	0	34.5230	8	27.448	0	880.750	0	10.4	4	3.3	4	-1E+10	1	-1E+10	1	-1E+10	1	-1E+10	1	-1E+10	1	-1E+10	1
4901784	113	C	08/08/2018	10:32	-131.982	43.025	0	894.90	0	3.6400	0	34.5240	8	27.451	0	885.887	0	10.4	4	3.3	4	-1E+10	1	-1E+10	1	-1E+10	1	-1E+10	1	-1E+10	1	-1E+10	1
4901784	113	C	08/08/2018	10:32	-131.982	43.025	0	900.20	0	3.6240	0	34.5280	8	27.455	0	891.122	0	10.4	4	3.3	4	-1E+10	1	-1E+10	1	-1E+10	1	-1E+10	1	-1E+10	1	-1E+10	1
4901784	113	C	08/08/2018	10:32	-131.982	43.025	0	905.50	0	3.6230	0	34.5310	8	27.458	0	896.357	0	10.4	4	3.3	4	-1E+10	1	-1E+10	1	-1E+10	1	-1E+10	1	-1E+10	1	-1E+10	1
4901784	113	C	08/08/2018	10:32	-131.982	43.025	0	910.00	0	3.6200	0	34.5320	8	27.459	0	900.802	0	10.5	4	3.3	4	-1E+10	1	-1E+10	1	-1E+10	1	-1E+10	1	-1E+10	1	-1E+10	1
4901784	113	C	08/08/2018	10:32	-131.982	43.025	0	914.40	0	3.6110	0	34.5330	8	27.461	0	905.148	0	10.5	4	3.3	4	-1E+10	1	-1E+10	1	-1E+10	1	-1E+10	1	-1E+10	1	-1E+10	1
4901784	113	C	08/08/2018	10:32	-131.982	43.025	0	919.60	0	3.6130	0	34.5360	8	27.463	0	910.284	0	10.5	4	3.3	4	-1E+10	1	-1E+10	1	-1E+10	1	-1E+10	1	-1E+10	1	-1E+10	1
4901784	113	C	08/08/2018	10:32	-131.982	43.025	0	925.00	0	3.5890	0	34.5370	8	27.466	0	915.618	0	10.4	4	3.3	4	-1E+10	1	-1E+10	1	-1E+10	1	-1E+10	1	-1E+10	1	-1E+10	1
4901784	113	C	08/08/2018	10:32	-131.982	43.025	0	930.40	0	3.5400	0	34.5380	8	27.472	0	920.951	0	10.4	4	3.3	4	-1E+10	1	-1E+10	1	-1E+10	1	-1E+10	1	-1E+10	1	-1E+10	1
4901784	113	C	08/08/2018	10:32	-131.982	43.025	0	934.90	0	3.5350	0	34.5410	8	27.475	0	925.396	0	10.4	4	3.3	4	-1E+10	1	-1E+10	1	-1E+10	1	-1E+10	1	-1E+10	1	-1E+10	1
4901784	113	C	08/08/2018	10:32	-131.982	43.025	0	939.30	0	3.5150	0	34.5430	8	27.478	0	929.741	0	10.4	4	3.3	4	-1E+10	1	-1E+10	1	-1E+10	1	-1E+10	1	-1E+10	1	-1E+10	1
4901784	113	C	08/08/2018	10:32	-131.982	43.025	0	944.70	0	3.5100	0	34.5470	8	27.482	0	935.074	0	10.5	4	3.3	4	-1E+10	1	-1E+10	1	-1E+10	1	-1E+10	1	-1E+10	1	-1E+10	1
4901784	113	C	08/08/2018	10:32	-131.982	43.025	0	950.00	0	3.5040	0	34.5520	8	27.486	0	940.308	0	10.5	4	3.3	4	-1E+10	1	-1E+10	1	-1E+10	1	-1E+10	1	-1E+10	1	-1E+10	1
4901784	113	C	08/08/2018	10:32	-131.982	43.025	0	955.40	0	3.4800	0	34.5540	8	27.490	0	945.641	0	10.6	4	3.3	4	-1E+10	1	-1E+10	1	-1E+10	1	-1E+10	1	-1E+10	1	-1E+10	1
4901784	113	C	08/08/2018	10:32	-131.982	43.025	0	960.00	0	3.4660	0	34.5570	8	27.494	0	950.184	0	10.6	4	3.3	4	-1E+10	1	-1E+10	1	-1E+10	1	-1E+10	1	-1E+10	1	-1E+10	1
4901784	113	C	08/08/2018	10:32	-131.982	43.025	0	964.50	0	3.4590	0	34.5580	8	27.496	0	954.627	0	10.6	4	3.3	4	-1E+10	1	-1E+10	1	-1E+10	1	-1E+10	1	-1E+10	1	-1E+10	1
4901784	113	C	08/08/2018	10:32	-131.982	43.025	0	970.00	0	3.4450	0	34.5600	8	27.499	0	960.058	0	10.7	4	3.3	4	-1E+10	1	-1E+10	1	-1E+10	1	-1E+10	1	-1E+10	1	-1E+10	1
4901784	113	C	08/08/2018	10:32	-131.982	43.025	0	975.40	0	3.4360	0	34.5640	8	27.503	0	965.391	0	10.8	4	3.4	4	-1E+10	1	-1E+10	1	-1E+10	1	-1E+10	1	-1E+10	1	-1E+10	1
4901784	113	C	08/08/2018	10:32	-131.982	43.025	0	980.10	0	3.4210	0	34.5680	8	27.507	0	970.031	0	10.9	4	3.4	4	-1E+10	1	-1E+10	1	-1E+10	1	-1E+10	1	-1E+10	1	-1E+10	1
4901784	113	C	08/08/2018	10:32	-131.982	43.025	0	984.70	0	3.4120	0	34.5710	8	27.511	0	974.574	0	11.0	4	3.4	4	-1E+10	1	-1E+10	1	-1E+10	1	-1E+10	1	-1E+10	1	-1E+10	1
4901784	113	C	08/08/2018	10:32	-131.982	43.025	0	990.20	0	3.4060	0	34.5740	8	27.514	0	980.004	0	11.1	4	3.5	4	-1E+10	1	-1E+10	1	-1E+10	1	-1E+10	1	-1E+10	1	-1E+10	1
4901784	113	C	08/08/2018	10:32	-131.982	43.025	0	995.50	0	3.4020	0	34.5760	8	27.516	0	985.237	0	11.2	4	3.5	4	-1E+10	1	-1E+10	1	-1E+10	1	-1E+10	1	-1E+10	1	-1E+10	1
4901784	113	C	08/08/2018	10:32	-131.982	43.025	0	1000.30	0	3.3960	0	34.5790	8	27.519	0	989.976	0	11.3	4	3.5	4	-1E+10	1	-1E+10	1	-1E+10	1	-1E+10	1	-1E+10	1	-1E+10	1
4901784	113	C	08/08/2018	10:32	-131.982	43.025	0	1005.20	0	3.3900	0	34.5820	8	27.522	0	994.814	0	11.5	4	3.6	4	-1E+10	1	-1E+10	1	-1E+10	1	-1E+10	1	-1E+10	1	-1E+10	1
4901784	113	C	08/08/2018	10:32	-131.982	43.025	0	1010.10	0	3.3890	0	34.5850	8	27.524	0	999.652	0	11.7	4	3.7	4	-1E+10	1	-1E+10	1	-1E+10	1	-1E+10	1	-1E+10	1	-1E+10	1
4901784	113	C	08/08/2018	10:32	-131.982	43.025	0	1015.10	0	3.3860	0	34.5880	8	27.527	0	1004.588	0	12.0	4	3.7	4	-1E+10	1	-1E+10	1	-1E+10	1	-1E+10	1	-1E+10	1	-1E+10	1
4901784	113	C	08/08/2018	10:32	-131.982	43.025	0	1020.20	0	3.3810	0	34.5920	8	27.531	0	1009.623	0	12.2	4	3.8	4	-1E+10	1	-1E+10	1	-1E+10	1	-1E+10	1	-1E+10	1	-1E+10	1
4901784	113	C	08/08/2018	10:32	-131.982	43.025	0	1025.30	0	3.3710	0	34.5950	8	27.534	0	1014.658	0	12.3	4	3.8	4	-1E+10	1	-1E+10	1	-1E+10	1	-1E+10	1	-1E+10	1	-1E+10	1
4901784	113	C	08/08/2018	10:32	-131.982	43.025	0	1030.50	0	3.3620	0	34.5970	8	27.536	0	1019.791	0	12.4	4	3.9	4	-1E+10	1	-1E+10	1	-1E+10	1	-1E+10	1	-1E+10	1	-1E+10	1
4901784	113	C	08/08/2018	10:32	-131.982	43.025	0	1035.60	0	3.3530	0	34.5990	8	27.539	0	1024.826	0	12.6	4	3.9	4	-1E+10	1	-1E+10	1	-1E+10	1	-1E+10	1	-1E+10	1	-1E+10	1
4901784	113	C	08/08/2018	10:32	-131.982	43.025	0	1039.90	0	3.3500	0	34.6010	8	27.541	0	1029.070	0	12.7	4	4.0	4	-1E+10	1	-1E+10	1	-1E+10	1	-1E+10	1	-1E+10	1	-1E+10	1
4901784	113	C	08/08/2018	10:32	-131.982	43.025	0	1044.30	0	3.3370	0	34.6030	8	27.544	0	1033.414	0	12.9	4	4.0	4	-1E+10	1	-1E+10	1	-1E+10	1	-1E+10	1	-1E+10	1	-1E+10	1
4901784	113	C	08/08/2018	10:32	-131.982	43.025	0	1049.50	0	3.3260	0	34.6050	8	27.546	0	1038.547	0	13.1	4	4.1	4	-1E+10	1	-1E+10	1	-1E+10	1	-1E+10	1	-1E+10	1	-1E+10	1
4901784	113	C	08/08/2018	10:32	-131.982	43.025	0	1054.80	0	3.3190	0	34.6060	8	27.548	0	1043.778	0	13.2	4	4.1	4	-1E+10	1	-1E+10	1	-1E+10	1	-1E+10	1	-1E+10	1	-1E+10	1
4901784	113	C	08/08/2018	10:32	-131.982	43.025	0	1060.00	0	3.3120	0	34.6070	8	27.549	0	1048.911	0	13.2	4	4.1	4	-1E+10	1	-1E+10	1	-1E+10	1	-1E+10	1	-1E+10	1	-1E+10	1
4901784	113	C	08/08/2018	10:32	-131.982	43.025	0	1065.30	0	3.3020	0	34.6080	8	27.551	0	1054.142	0	13.3	4	4.1	4	-1E+10	1	-1E+10	1	-1E+10	1	-1E+10	1	-1E+10	1	-1E+10	1
4901784	113	C	08/08/2018	10:32	-131.982	43.025	0	1070.70	0	3.2700	0	34.6100	8	27.556	0	1059.472	0	13.2	4	4.1	4	-1E+10	1	-1E+10	1	-1E+10	1	-1E+10	1	-1E+10	1	-1E+10	1
4901784	113	C	08/08/2018	10:32	-131.982	43.025	0	1075.10	0	3.2540	0	34.6110	8	27.558	0	1063.815	0	13.3	4	4.1	4	-1E+10	1	-1E+10	1	-1E+10	1	-1E+10	1	-1E+10	1	-1E+10	1
4901784	113	C	08/08/2018	10:32	-131.982	43.025	0	1079.60	0	3.2350	0	34.6120	8	27.561	0	1068.256	0	13.3	4	4.2	4	-1E+10	1	-1E+10	1	-1E+10	1	-1E+10	1	-1E+10	1	-1E+10	1
4901784	113	C	08/08/2018	10:32	-131.982	43.025	0	1084.90	0	3.2250	0	34.6130	8	27.562	0	1073.487	0	13.4	4	4.2	4	-1E+10	1	-1E+10	1	-1E+10	1	-1E+10	1	-1E+10	1	-1E+10	1
4901784	113	C	08/08/2018	10:32	-131.982	43.025	0	1090.30	0	3.2170	0	34.6150	8	27.565	0	1078.816	0	13.6	4	4.2	4	-1E+10	1	-1E+10	1	-1E+10	1	-1E+10	1	-1E+10	1	-1E+10	1
4901784	113	C	08/08/2018	10:32	-131.982	43.025	0	1095.60	0	3.2020	0	34.6160	8	27.567	0	1084.046	0	13.7	4	4.2	4	-1E+10	1	-1E+10	1	-1E+10	1	-1E+10	1	-1E+10	1	-1E+10	1
4901784	113	C	08/08/2018	10:32	-131.982	43.025	0	1100.10	0	3.1910	0	34.6170	8	27.569	0	1088.487	0	13.8	4	4.3	4	-1E+10	1	-1E+10	1	-1E+10	1	-1E+10	1	-1E+10	1	-1E+10	1
4901784	113	C	08/08/2018	10:32	-131.982	43.025	0	1104.50	0	3.1820	0	34.6180	8	27.571	0	1092.829	0	13.8	4	4.3	4	-1E+10	1	-1E+10	1	-1E+10	1	-1E+10	1	-1E+10	1	-1E+10	1
4901784	113	C	08/08/2018	10:32	-131.982	43.025	0	1109.60	0	3.1710	0	34.6190	8	27.572	0	1097.862	0	13.9	4	4.3	4	-1E+10	1	-1E+10	1	-1E+10	1	-1E+10	1	-1E+10	1	-1E+10	1
4901784	113	C	08/08/2018	10:32	-131.982	43.025	0	1114.20	0	3.1620	0	34.6200	8	27.574	0	1102.401	0	14.1	4	4.4	4	-1E+10	1	-1E+10	1	-1E+10	1	-1E+10	1	-1E+10	1	-1E+10	1
4901784	113	C	08/08/2018	10:32	-131.982	43.025	0	1119.30	0	3.1410	0	34.6220	8	27.578	0	1107.434	0	14.2	4	4.4	4	-1E+10	1	-1E+10	1	-1E+10	1	-1E+10	1	-1E+10	1	-1E+10	1
4901784	113	C	08/08/2018	10:32	-131.982	43.025	0	1124.30	0	3.1310	0	34.6240	8	27.580	0	1112.368	0	14.3	4	4.4	4	-1E+10	1	-1E+10	1	-1E+10	1	-1E+10	1	-1E+10	1	-1E+10	1
4901784	113	C	08/08/2018	10:32	-131.982	43.025	0	1129.50	0	3.1180	0	34.6240	8	27.581	0	1117.499	0	14.4	4	4.5	4	-1E+10	1	-1E+10	1	-1E+10	1	-1E+10	1	-1E+10	1	-1E+10	1
4901784	113	C	08/08/2018	10:32	-131.982	43.025	0	1134.80	0	3.1100	0	34.6250	8	27.583	0	1122.728	0	14.5	4	4.5	4	-1E+10	1	-1E+10	1	-1E+10	1	-1E+10	1	-1E+10	1	-1E+10	1
4901784	113	C	08/08/2018	10:32	-131.982	43.025	0	1140.00	0	3.0930	0	34.6270	8	27.586	0	1127.859	0	14.6	4	4.5	4	-1E+10	1	-1E+10	1	-1E+10	1	-1E+10	1	-1E+10	1	-1E+10	1
4901784	113	C	08/08/2018	10:32	-131.982	43.025	0	1145.30	0	3.0760	0	34.6290	8	27.589	0	1133.088	0	14.8	4	4.6	4	-1E+10	1	-1E+10	1	-1E+10	1	-1E+10	1	-1E+10	1	-1E+10	1
4901784	113	C	08/08/2018	10:32	-131.982	43.025	0	1150.50	0	3.0700	0	34.6310	8	27.592	0	1138.219	0	14.9	4	4.6	4	-1E+10	1	-1E+10	1	-1E+10	1	-1E+10	1	-1E+10	1	-1E+10	1
4901784	113	C	08/08/2018	10:32	-131.982	43.025	0	1155.00	0	3.0600	0	34.6320	8	27.593	0	1142.659	0	15.0	4	4.6	4	-1E+10	1	-1E+10	1	-1E+10	1	-1E+10	1	-1E+10	1	-1E+10	1
4901784	113	C	08/08/2018	10:32	-131.982	43.025	0	1159.40	0	3.0490	0	34.6320	8	27.594	0	1147.000	0	15.1	4	4.7	4	-1E+10	1	-1E+10	1	-1E+10	1	-1E+10	1	-1E+10	1	-1E+10	1
4901784	113	C	08/08/2018	10:32	-131.982	43.025	0	1164.70	0	3.0480	0	34.6330	8	27.595	0	1152.228	0	15.2	4	4.7	4	-1E+10	1	-1E+10	1	-1E+10	1	-1E+10	1	-1E+10	1	-1E+10	1
4901784	113	C	08/08/2018	10:32	-131.982	43.025	0	1170.00	0	3.0380	0	34.6330	8	27.596	0	1157.457	0	15.3	4	4.7	4	-1E+10	1	-1E+10	1	-1E+10	1	-1E+10	1	-1E+10	1	-1E+10	1
4901784	113	C	08/08/2018	10:32	-131.982	43.025	0	1175.40	0	3.0280	0	34.6360	8	27.600	0	1162.784	0	15.4	4	4.8	4	-1E+10	1	-1E+10	1	-1E+10	1	-1E+10	1	-1E+10	1	-1E+10	1
4901784	113	C	08/08/2018	10:32	-131.982	43.025	0	1179.80	0	3.0140	0	34.6370	8	27.602	0	1167.125	0	15.6	4	4.8	4	-1E+10	1	-1E+10	1	-1E+10	1	-1E+10	1	-1E+10	1	-1E+10	1
4901784	113	C	08/08/2018	10:32	-131.982	43.025	0	1184.30	0	3.0030	0	34.6380	8	27.603	0	1171.564	0	15.7	4	4.9	4	-1E+10	1	-1E+10	1	-1E+10	1	-1E+10	1	-1E+10	1	-1E+10	1
4901784	113	C	08/08/2018	10:32	-131.982	43.025	0	1189.60	0	2.9920	0	34.6400	8	27.606	0	1176.792	0	15.9	4	4.9	4	-1E+10	1	-1E+10	1	-1E+10	1	-1E+10	1	-1E+10	1	-1E+10	1
4901784	113	C	08/08/2018	10:32	-131.982	43.025	0	1195.00	0	2.9870	0	34.6420	8	27.608	0	1182.119	0	16.1	4	5.0	4	-1E+10	1	-1E+10	1	-1E+10	1	-1E+10	1	-1E+10	1	-1E+10	1
4901784	113	C	08/08/2018	10:32	-131.982	43.025	0	1200.40	0	2.9790	0	34.6440	8	27.611	0	1187.445	0	16.3	4	5.0	4	-1E+10	1	-1E+10	1	-1E+10	1	-1E+10	1	-1E+10	1	-1E+10	1
4901784	113	C	08/08/2018	10:32	-131.982	43.025	0	1205.00	0	2.9610	0	34.6440	8	27.612	0	1191.983	0	16.4	4	5.1	4	-1E+10	1	-1E+10	1	-1E+10	1	-1E+10	1	-1E+10	1	-1E+10	1
4901784	113	C	08/08/2018	10:32	-131.982	43.025	0	1209.60	0	2.9470	0	34.6450	8	27.614	0	1196.520	0	16.6	4	5.1	4	-1E+10	1	-1E+10	1	-1E+10	1	-1E+10	1	-1E+10	1	-1E+10	1
4901784	113	C	08/08/2018	10:32	-131.982	43.025	0	1215.00	0	2.9390	0	34.6480	8	27.617	0	1201.846	0	16.9	4	5.2	4	-1E+10	1	-1E+10	1	-1E+10	1	-1E+10	1	-1E+10	1	-1E+10	1
4901784	113	C	08/08/2018	10:32	-131.982	43.025	0	1220.50	0	2.9410	0	34.6500	8	27.619	0	1207.271	0	17.1	4	5.3	4	-1E+10	1	-1E+10	1	-1E+10	1	-1E+10	1	-1E+10	1	-1E+10	1
4901784	113	C	08/08/2018	10:32	-131.982	43.025	0	1225.20	0	2.9320	0	34.6520	8	27.621	0	1211.906	0	17.2	4	5.3	4	-1E+10	1	-1E+10	1	-1E+10	1	-1E+10	1	-1E+10	1	-1E+10	1
4901784	113	C	08/08/2018	10:32	-131.982	43.025	0	1229.80	0	2.9260	0	34.6520	8	27.622	0	1216.443	0	17.3	4	5.4	4	-1E+10	1	-1E+10	1	-1E+10	1	-1E+10	1	-1E+10	1	-1E+10	1
4901784	113	C	08/08/2018	10:32	-131.982	43.025	0	1235.20	0	2.9130	0	34.6530	8	27.624	0	1221.769	0	17.4	4	5.4	4	-1E+10	1	-1E+10	1	-1E+10	1	-1E+10	1	-1E+10	1	-1E+10	1
4901784	113	C	08/08/2018	10:32	-131.982	43.025	0	1239.80	0	2.8940	0	34.6530	8	27.626	0	1226.305	0	17.5	4	5.4	4	-1E+10	1	-1E+10	1	-1E+10	1	-1E+10	1	-1E+10	1	-1E+10	1
4901784	113	C	08/08/2018	10:32	-131.982	43.025	0	1244.40	0	2.8830	0	34.6540	8	27.627	0	1230.842	0	17.5	4	5.4	4	-1E+10	1	-1E+10	1	-1E+10	1	-1E+10	1	-1E+10	1	-1E+10	1
4901784	113	C	08/08/2018	10:32	-131.982	43.025	0	1249.90	0	2.8760	0	34.6540	8	27.628	0	1236.266	0	17.6	4	5.4	4	-1E+10	1	-1E+10	1	-1E+10	1	-1E+10	1	-1E+10	1	-1E+10	1
4901784	113	C	08/08/2018	10:32	-131.982	43.025	0	1255.10	0	2.8710	0	34.6550	8	27.629	0	1241.394	0	17.7	4	5.5	4	-1E+10	1	-1E+10	1	-1E+10	1	-1E+10	1	-1E+10	1	-1E+10	1
4901784	113	C	08/08/2018	10:32	-131.982	43.025	0	1260.20	0	2.8630	0	34.6550	8	27.630	0	1246.423	0	17.8	4	5.5	4	-1E+10	1	-1E+10	1	-1E+10	1	-1E+10	1	-1E+10	1	-1E+10	1
4901784	113	C	08/08/2018	10:32	-131.982	43.025	0	1265.30	0	2.8550	0	34.6570	8	27.632	0	1251.452	0	18.0	4	5.6	4	-1E+10	1	-1E+10	1	-1E+10	1	-1E+10	1	-1E+10	1	-1E+10	1
4901784	113	C	08/08/2018	10:32	-131.982	43.025	0	1270.40	0	2.8480	0	34.6570	8	27.633	0	1256.481	0	18.3	4	5.6	4	-1E+10	1	-1E+10	1	-1E+10	1	-1E+10	1	-1E+10	1	-1E+10	1
4901784	113	C	08/08/2018	10:32	-131.982	43.025	0	1275.60	0	2.8340	0	34.6600	8	27.637	0	1261.608	0	18.6	4	5.7	4	-1E+10	1	-1E+10	1	-1E+10	1	-1E+10	1	-1E+10	1	-1E+10	1
4901784	113	C	08/08/2018	10:32	-131.982	43.025	0	1280.00	0	2.8230	0	34.6620	8	27.639	0	1265.947	0	18.8	4	5.8	4	-1E+10	1	-1E+10	1	-1E+10	1	-1E+10	1	-1E+10	1	-1E+10	1
4901784	113	C	08/08/2018	10:32	-131.982	43.025	0	1284.30	0	2.8150	0	34.6630	8	27.641	0	1270.187	0	19.0	4	5.8	4	-1E+10	1	-1E+10	1	-1E+10	1	-1E+10	1	-1E+10	1	-1E+10	1
4901784	113	C	08/08/2018	10:32	-131.982	43.025	0	1289.60	0	2.8090	0	34.6640	8	27.642	0	1275.412	0	19.2	4	5.9	4	-1E+10	1	-1E+10	1	-1E+10	1	-1E+10	1	-1E+10	1	-1E+10	1
4901784	113	C	08/08/2018	10:32	-131.982	43.025	0	1294.90	0	2.7990	0	34.6650	8	27.644	0	1280.638	0	19.5	4	6.0	4	-1E+10	1	-1E+10	1	-1E+10	1	-1E+10	1	-1E+10	1	-1E+10	1
4901784	113	C	08/08/2018	10:32	-131.982	43.025	0	1300.20	0	2.7920	0	34.6670	8	27.646	0	1285.863	0	20.1	4	6.2	4	-1E+10	1	-1E+10	1	-1E+10	1	-1E+10	1	-1E+10	1	-1E+10	1
4901784	113	C	08/08/2018	10:32	-131.982	43.025	0	1305.60	0	2.7980	0	34.6710	8	27.649	0	1291.187	0	20.8	4	6.4	4	-1E+10	1	-1E+10	1	-1E+10	1	-1E+10	1	-1E+10	1	-1E+10	1
4901784	113	C	08/08/2018	10:32	-131.982	43.025	0	1310.10	0	2.8020	0	34.6740	8	27.651	0	1295.624	0	21.1	4	6.5	4	-1E+10	1	-1E+10	1	-1E+10	1	-1E+10	1	-1E+10	1	-1E+10	1
4901784	113	C	08/08/2018	10:32	-131.982	43.025	0	1314.60	0	2.7980	0	34.6740	8	27.651	0	1300.060	0	21.3	4	6.6	4	-1E+10	1	-1E+10	1	-1E+10	1	-1E+10	1	-1E+10	1	-1E+10	1
4901784	113	C	08/08/2018	10:32	-131.982	43.025	0	1320.00	0	2.7930	0	34.6760	8	27.653	0	1305.384	0	21.5	4	6.6	4	-1E+10	1	-1E+10	1	-1E+10	1	-1E+10	1	-1E+10	1	-1E+10	1
4901784	113	C	08/08/2018	10:32	-131.982	43.025	0	1325.40	0	2.7800	0	34.6770	8	27.655	0	1310.707	0	21.6	4	6.6	4	-1E+10	1	-1E+10	1	-1E+10	1	-1E+10	1	-1E+10	1	-1E+10	1
4901784	113	C	08/08/2018	10:32	-131.982	43.025	0	1330.00	0	2.7720	0	34.6770	8	27.656	0	1315.242	0	21.6	4	6.6	4	-1E+10	1	-1E+10	1	-1E+10	1	-1E+10	1	-1E+10	1	-1E+10	1
4901784	113	C	08/08/2018	10:32	-131.982	43.025	0	1334.60	0	2.7630	0	34.6770	8	27.657	0	1319.776	0	21.3	4	6.6	4	-1E+10	1	-1E+10	1	-1E+10	1	-1E+10	1	-1E+10	1	-1E+10	1
4901784	113	C	08/08/2018	10:32	-131.982	43.025	0	1340.10	0	2.7390	0	34.6760	8	27.658	0	1325.198	0	21.1	4	6.5	4	-1E+10	1	-1E+10	1	-1E+10	1	-1E+10	1	-1E+10	1	-1E+10	1
4901784	113	C	08/08/2018	10:32	-131.982	43.025	0	1344.70	0	2.7280	0	34.6760	8	27.659	0	1329.732	0	21.3	4	6.5	4	-1E+10	1	-1E+10	1	-1E+10	1	-1E+10	1	-1E+10	1	-1E+10	1
4901784	113	C	08/08/2018	10:32	-131.982	43.025	0	1349.20	0	2.7150	0	34.6770	8	27.661	0	1334.168	0	21.5	4	6.6	4	-1E+10	1	-1E+10	1	-1E+10	1	-1E+10	1	-1E+10	1	-1E+10	1
4901784	113	C	08/08/2018	10:32	-131.982	43.025	0	1354.50	0	2.7060	0	34.6780	8	27.663	0	1339.392	0	21.8	4	6.7	4	-1E+10	1	-1E+10	1	-1E+10	1	-1E+10	1	-1E+10	1	-1E+10	1
4901784	113	C	08/08/2018	10:32	-131.982	43.025	0	1360.00	0	2.6950	0	34.6800	8	27.665	0	1344.813	0	22.1	4	6.8	4	-1E+10	1	-1E+10	1	-1E+10	1	-1E+10	1	-1E+10	1	-1E+10	1
4901784	113	C	08/08/2018	10:32	-131.982	43.025	0	1365.70	0	2.6860	0	34.6810	8	27.667	0	1350.431	0	22.4	4	6.9	4	-1E+10	1	-1E+10	1	-1E+10	1	-1E+10	1	-1E+10	1	-1E+10	1
4901784	113	C	08/08/2018	10:32	-131.982	43.025	0	1370.60	0	2.6780	0	34.6820	8	27.668	0	1355.261	0	22.6	4	6.9	4	-1E+10	1	-1E+10	1	-1E+10	1	-1E+10	1	-1E+10	1	-1E+10	1
4901784	113	C	08/08/2018	10:32	-131.982	43.025	0	1375.50	0	2.6740	0	34.6830	8	27.670	0	1360.090	0	22.8	4	7.0	4	-1E+10	1	-1E+10	1	-1E+10	1	-1E+10	1	-1E+10	1	-1E+10	1
4901784	113	C	08/08/2018	10:32	-131.982	43.025	0	1380.40	0	2.6670	0	34.6840	8	27.671	0	1364.920	0	23.0	4	7.0	4	-1E+10	1	-1E+10	1	-1E+10	1	-1E+10	1	-1E+10	1	-1E+10	1
4901784	113	C	08/08/2018	10:32	-131.982	43.025	0	1385.30	0	2.6610	0	34.6850	8	27.672	0	1369.749	0	23.3	4	7.2	4	-1E+10	1	-1E+10	1	-1E+10	1	-1E+10	1	-1E+10	1	-1E+10	1
4901784	113	C	08/08/2018	10:32	-131.982	43.025	0	1390.40	0	2.6570	0	34.6860	8	27.674	0	1374.775	0	23.5	4	7.2	4	-1E+10	1	-1E+10	1	-1E+10	1	-1E+10	1	-1E+10	1	-1E+10	1
4901784	113	C	08/08/2018	10:32	-131.982	43.025	0	1395.50	0	2.6500	0	34.6870	8	27.675	0	1379.801	0	23.7	4	7.3	4	-1E+10	1	-1E+10	1	-1E+10	1	-1E+10	1	-1E+10	1	-1E+10	1
4901784	113	C	08/08/2018	10:32	-131.982	43.025	0	1400.50	0	2.6400	0	34.6880	8	27.677	0	1384.728	0	24.0	4	7.4	4	-1E+10	1	-1E+10	1	-1E+10	1	-1E+10	1	-1E+10	1	-1E+10	1
4901784	113	C	08/08/2018	10:32	-131.982	43.025	0	1405.60	0	2.6330	0	34.6890	8	27.678	0	1389.754	0	24.3	4	7.4	4	-1E+10	1	-1E+10	1	-1E+10	1	-1E+10	1	-1E+10	1	-1E+10	1
4901784	113	C	08/08/2018	10:32	-131.982	43.025	0	1410.70	0	2.6200	0	34.6900	8	27.680	0	1394.780	0	24.4	4	7.5	4	-1E+10	1	-1E+10	1	-1E+10	1	-1E+10	1	-1E+10	1	-1E+10	1
4901784	113	C	08/08/2018	10:32	-131.982	43.025	0	1415.00	0	2.6140	0	34.6910	8	27.681	0	1399.017	0	24.6	4	7.5	4	-1E+10	1	-1E+10	1	-1E+10	1	-1E+10	1	-1E+10	1	-1E+10	1
4901784	113	C	08/08/2018	10:32	-131.982	43.025	0	1419.30	0	2.6080	0	34.6910	8	27.682	0	1403.254	0	24.7	4	7.6	4	-1E+10	1	-1E+10	1	-1E+10	1	-1E+10	1	-1E+10	1	-1E+10	1
4901784	113	C	08/08/2018	10:32	-131.982	43.025	0	1424.50	0	2.6040	0	34.6920	8	27.683	0	1408.378	0	24.8	4	7.6	4	-1E+10	1	-1E+10	1	-1E+10	1	-1E+10	1	-1E+10	1	-1E+10	1
4901784	113	C	08/08/2018	10:32	-131.982	43.025	0	1429.70	0	2.5950	0	34.6920	8	27.684	0	1413.502	0	25.0	4	7.7	4	-1E+10	1	-1E+10	1	-1E+10	1	-1E+10	1	-1E+10	1	-1E+10	1
4901784	113	C	08/08/2018	10:32	-131.982	43.025	0	1434.90	0	2.5850	0	34.6930	8	27.686	0	1418.625	0	25.4	4	7.8	4	-1E+10	1	-1E+10	1	-1E+10	1	-1E+10	1	-1E+10	1	-1E+10	1
4901784	113	C	08/08/2018	10:32	-131.982	43.025	0	1440.10	0	2.5790	0	34.6940	8	27.687	0	1423.749	0	25.7	4	7.9	4	-1E+10	1	-1E+10	1	-1E+10	1	-1E+10	1	-1E+10	1	-1E+10	1
4901784	113	C	08/08/2018	10:32	-131.982	43.025	0	1445.30	0	2.5740	0	34.6950	8	27.688	0	1428.872	0	26.1	4	8.0	4	-1E+10	1	-1E+10	1	-1E+10	1	-1E+10	1	-1E+10	1	-1E+10	1
4901784	113	C	08/08/2018	10:32	-131.982	43.025	0	1450.60	0	2.5660	0	34.6960	8	27.690	0	1434.094	0	26.5	4	8.1	4	-1E+10	1	-1E+10	1	-1E+10	1	-1E+10	1	-1E+10	1	-1E+10	1
4901784	113	C	08/08/2018	10:32	-131.982	43.025	0	1455.10	0	2.5540	0	34.6980	8	27.692	0	1438.527	0	26.9	4	8.2	4	-1E+10	1	-1E+10	1	-1E+10	1	-1E+10	1	-1E+10	1	-1E+10	1
4901784	113	C	08/08/2018	10:32	-131.982	43.025	0	1459.60	0	2.5450	0	34.7000	8	27.695	0	1442.961	0	27.3	4	8.3	4	-1E+10	1	-1E+10	1	-1E+10	1	-1E+10	1	-1E+10	1	-1E+10	1
4901784	113	C	08/08/2018	10:32	-131.982	43.025	0	1465.00	0	2.5340	0	34.7010	8	27.697	0	1448.281	0	27.7	4	8.5	4	-1E+10	1	-1E+10	1	-1E+10	1	-1E+10	1	-1E+10	1	-1E+10	1
4901784	113	C	08/08/2018	10:32	-131.982	43.025	0	1470.50	0	2.5250	0	34.7020	8	27.698	0	1453.699	0	28.0	4	8.6	4	-1E+10	1	-1E+10	1	-1E+10	1	-1E+10	1	-1E+10	1	-1E+10	1
4901784	113	C	08/08/2018	10:32	-131.982	43.025	0	1475.10	0	2.5150	0	34.7040	8	27.701	0	1458.231	0	28.3	4	8.7	4	-1E+10	1	-1E+10	1	-1E+10	1	-1E+10	1	-1E+10	1	-1E+10	1
4901784	113	C	08/08/2018	10:32	-131.982	43.025	0	1479.60	0	2.5090	0	34.7050	8	27.702	0	1462.664	0	28.5	4	8.7	4	-1E+10	1	-1E+10	1	-1E+10	1	-1E+10	1	-1E+10	1	-1E+10	1
4901784	113	C	08/08/2018	10:32	-131.982	43.025	0	1485.20	0	2.5040	0	34.7050	8	27.702	0	1468.180	0	28.7	4	8.8	4	-1E+10	1	-1E+10	1	-1E+10	1	-1E+10	1	-1E+10	1	-1E+10	1
4901784	113	C	08/08/2018	10:32	-131.982	43.025	0	1489.70	0	2.5020	0	34.7060	8	27.703	0	1472.613	0	28.9	4	8.8	4	-1E+10	1	-1E+10	1	-1E+10	1	-1E+10	1	-1E+10	1	-1E+10	1
4901784	113	C	08/08/2018	10:32	-131.982	43.025	0	1494.20	0	2.4950	0	34.7060	8	27.704	0	1477.045	0	29.1	4	8.9	4	-1E+10	1	-1E+10	1	-1E+10	1	-1E+10	1	-1E+10	1	-1E+10	1
4901784	113	C	08/08/2018	10:32	-131.982	43.025	0	1499.60	0	2.4840	0	34.7070	8	27.706	0	1482.365	0	29.5	4	9.0	4	-1E+10	1	-1E+10	1	-1E+10	1	-1E+10	1	-1E+10	1	-1E+10	1
4901784	113	C	08/08/2018	10:32	-131.982	43.025	0	1504.40	0	2.4760	0	34.7090	8	27.708	0	1487.093	0	29.8	4	9.1	4	-1E+10	1	-1E+10	1	-1E+10	1	-1E+10	1	-1E+10	1	-1E+10	1
4901784	113	C	08/08/2018	10:32	-131.982	43.025	0	1509.30	0	2.4690	0	34.7100	8	27.709	0	1491.919	0	30.1	4	9.2	4	-1E+10	1	-1E+10	1	-1E+10	1	-1E+10	1	-1E+10	1	-1E+10	1
4901784	113	C	08/08/2018	10:32	-131.982	43.025	0	1515.00	0	2.4580	0	34.7110	8	27.711	0	1497.533	0	30.5	4	9.3	4	-1E+10	1	-1E+10	1	-1E+10	1	-1E+10	1	-1E+10	1	-1E+10	1
4901784	113	C	08/08/2018	10:32	-131.982	43.025	0	1520.80	0	2.4490	0	34.7120	8	27.713	0	1503.246	0	30.7	4	9.4	4	-1E+10	1	-1E+10	1	-1E+10	1	-1E+10	1	-1E+10	1	-1E+10	1
4901784	113	C	08/08/2018	10:32	-131.982	43.025	0	1525.80	0	2.4430	0	34.7120	8	27.713	0	1508.170	0	31.1	4	9.5	4	-1E+10	1	-1E+10	1	-1E+10	1	-1E+10	1	-1E+10	1	-1E+10	1
4901784	113	C	08/08/2018	10:32	-131.982	43.025	0	1530.00	0	2.4370	0	34.7130	8	27.715	0	1512.306	0	31.2	4	9.5	4	-1E+10	1	-1E+10	1	-1E+10	1	-1E+10	1	-1E+10	1	-1E+10	1
4901784	113	C	08/08/2018	10:32	-131.982	43.025	0	1534.20	0	2.4310	0	34.7140	8	27.716	0	1516.443	0	31.4	4	9.6	4	-1E+10	1	-1E+10	1	-1E+10	1	-1E+10	1	-1E+10	1	-1E+10	1
4901784	113	C	08/08/2018	10:32	-131.982	43.025	0	1539.20	0	2.4250	0	34.7140	8	27.717	0	1521.367	0	31.7	4	9.7	4	-1E+10	1	-1E+10	1	-1E+10	1	-1E+10	1	-1E+10	1	-1E+10	1
4901784	113	C	08/08/2018	10:32	-131.982	43.025	0	1544.30	0	2.4150	0	34.7150	8	27.718	0	1526.390	0	32.1	4	9.8	4	-1E+10	1	-1E+10	1	-1E+10	1	-1E+10	1	-1E+10	1	-1E+10	1
4901784	113	C	08/08/2018	10:32	-131.982	43.025	0	1549.40	0	2.4080	0	34.7160	8	27.720	0	1531.412	0	32.3	4	9.9	4	-1E+10	1	-1E+10	1	-1E+10	1	-1E+10	1	-1E+10	1	-1E+10	1
4901784	113	C	08/08/2018	10:32	-131.982	43.025	0	1554.50	0	2.4000	0	34.7170	8	27.721	0	1536.434	0	32.7	4	10.0	4	-1E+10	1	-1E+10	1	-1E+10	1	-1E+10	1	-1E+10	1	-1E+10	1
4901784	113	C	08/08/2018	10:32	-131.982	43.025	0	1559.60	0	2.3890	0	34.7180	8	27.723	0	1541.456	0	33.0	4	10.1	4	-1E+10	1	-1E+10	1	-1E+10	1	-1E+10	1	-1E+10	1	-1E+10	1
4901784	113	C	08/08/2018	10:32	-131.982	43.025	0	1564.70	0	2.3830	0	34.7190	8	27.724	0	1546.478	0	33.4	4	10.2	4	-1E+10	1	-1E+10	1	-1E+10	1	-1E+10	1	-1E+10	1	-1E+10	1
4901784	113	C	08/08/2018	10:32	-131.982	43.025	0	1569.90	0	2.3770	0	34.7200	8	27.725	0	1551.599	0	33.8	4	10.3	4	-1E+10	1	-1E+10	1	-1E+10	1	-1E+10	1	-1E+10	1	-1E+10	1
4901784	113	C	08/08/2018	10:32	-131.982	43.025	0	1575.10	0	2.3650	0	34.7210	8	27.727	0	1556.719	0	34.4	4	10.5	4	-1E+10	1	-1E+10	1	-1E+10	1	-1E+10	1	-1E+10	1	-1E+10	1
4901784	113	C	08/08/2018	10:32	-131.982	43.025	0	1580.40	0	2.3560	0	34.7230	8	27.730	0	1561.938	0	34.9	4	10.6	4	-1E+10	1	-1E+10	1	-1E+10	1	-1E+10	1	-1E+10	1	-1E+10	1
4901784	113	C	08/08/2018	10:32	-131.982	43.025	0	1585.70	0	2.3460	0	34.7250	8	27.732	0	1567.156	0	35.4	4	10.8	4	-1E+10	1	-1E+10	1	-1E+10	1	-1E+10	1	-1E+10	1	-1E+10	1
4901784	113	C	08/08/2018	10:32	-131.982	43.025	0	1590.10	0	2.3370	0	34.7270	8	27.734	0	1571.488	0	35.6	4	10.8	4	-1E+10	1	-1E+10	1	-1E+10	1	-1E+10	1	-1E+10	1	-1E+10	1
4901784	113	C	08/08/2018	10:32	-131.982	43.025	0	1594.60	0	2.3330	0	34.7260	8	27.734	0	1575.919	0	35.8	4	10.9	4	-1E+10	1	-1E+10	1	-1E+10	1	-1E+10	1	-1E+10	1	-1E+10	1
4901784	113	C	08/08/2018	10:32	-131.982	43.025	0	1599.90	0	2.3230	0	34.7270	8	27.736	0	1581.137	0	36.1	4	11.0	4	-1E+10	1	-1E+10	1	-1E+10	1	-1E+10	1	-1E+10	1	-1E+10	1
4901784	113	C	08/08/2018	10:32	-131.982	43.025	0	1605.10	0	2.3180	0	34.7280	8	27.737	0	1586.257	0	36.5	4	11.1	4	-1E+10	1	-1E+10	1	-1E+10	1	-1E+10	1	-1E+10	1	-1E+10	1
4901784	113	C	08/08/2018	10:32	-131.982	43.025	0	1610.40	0	2.3070	0	34.7290	8	27.739	0	1591.474	0	36.9	4	11.2	4	-1E+10	1	-1E+10	1	-1E+10	1	-1E+10	1	-1E+10	1	-1E+10	1
4901784	113	C	08/08/2018	10:32	-131.982	43.025	0	1615.60	0	2.3050	0	34.7300	8	27.740	0	1596.594	0	37.3	4	11.4	4	-1E+10	1	-1E+10	1	-1E+10	1	-1E+10	1	-1E+10	1	-1E+10	1
4901784	113	C	08/08/2018	10:32	-131.982	43.025	0	1620.10	0	2.2970	0	34.7310	8	27.741	0	1601.024	0	37.7	4	11.5	4	-1E+10	1	-1E+10	1	-1E+10	1	-1E+10	1	-1E+10	1	-1E+10	1
4901784	113	C	08/08/2018	10:32	-131.982	43.025	0	1624.50	0	2.2860	0	34.7320	8	27.743	0	1605.355	0	38.1	4	11.6	4	-1E+10	1	-1E+10	1	-1E+10	1	-1E+10	1	-1E+10	1	-1E+10	1
4901784	113	C	08/08/2018	10:32	-131.982	43.025	0	1629.90	0	2.2720	0	34.7330	8	27.745	0	1610.671	0	38.5	4	11.7	4	-1E+10	1	-1E+10	1	-1E+10	1	-1E+10	1	-1E+10	1	-1E+10	1
4901784	113	C	08/08/2018	10:32	-131.982	43.025	0	1635.20	0	2.2610	0	34.7350	8	27.747	0	1615.888	0	38.8	4	11.8	4	-1E+10	1	-1E+10	1	-1E+10	1	-1E+10	1	-1E+10	1	-1E+10	1
4901784	113	C	08/08/2018	10:32	-131.982	43.025	0	1640.60	0	2.2550	0	34.7350	8	27.748	0	1621.204	0	39.1	4	11.9	4	-1E+10	1	-1E+10	1	-1E+10	1	-1E+10	1	-1E+10	1	-1E+10	1
4901784	113	C	08/08/2018	10:32	-131.982	43.025	0	1645.20	0	2.2520	0	34.7360	8	27.749	0	1625.732	0	39.3	4	11.9	4	-1E+10	1	-1E+10	1	-1E+10	1	-1E+10	1	-1E+10	1	-1E+10	1
4901784	113	C	08/08/2018	10:32	-131.982	43.025	0	1649.70	0	2.2500	0	34.7360	8	27.749	0	1630.161	0	39.6	4	12.0	4	-1E+10	1	-1E+10	1	-1E+10	1	-1E+10	1	-1E+10	1	-1E+10	1
4901784	113	C	08/08/2018	10:32	-131.982	43.025	0	1655.10	0	2.2430	0	34.7380	8	27.751	0	1635.477	0	40.0	4	12.2	4	-1E+10	1	-1E+10	1	-1E+10	1	-1E+10	1	-1E+10	1	-1E+10	1
4901784	113	C	08/08/2018	10:32	-131.982	43.025	0	1660.60	0	2.2400	0	34.7380	8	27.752	0	1640.890	0	40.3	4	12.2	4	-1E+10	1	-1E+10	1	-1E+10	1	-1E+10	1	-1E+10	1	-1E+10	1
4901784	113	C	08/08/2018	10:32	-131.982	43.025	0	1665.20	0	2.2360	0	34.7390	8	27.753	0	1645.418	0	40.7	4	12.3	4	-1E+10	1	-1E+10	1	-1E+10	1	-1E+10	1	-1E+10	1	-1E+10	1
4901784	113	C	08/08/2018	10:32	-131.982	43.025	0	1669.80	0	2.2280	0	34.7400	8	27.754	0	1649.945	0	41.0	4	12.5	4	-1E+10	1	-1E+10	1	-1E+10	1	-1E+10	1	-1E+10	1	-1E+10	1
4901784	113	C	08/08/2018	10:32	-131.982	43.025	0	1675.40	0	2.2200	0	34.7410	8	27.756	0	1655.457	0	41.3	4	12.5	4	-1E+10	1	-1E+10	1	-1E+10	1	-1E+10	1	-1E+10	1	-1E+10	1
4901784	113	C	08/08/2018	10:32	-131.982	43.025	0	1680.10	0	2.2170	0	34.7420	8	27.757	0	1660.082	0	41.6	4	12.6	4	-1E+10	1	-1E+10	1	-1E+10	1	-1E+10	1	-1E+10	1	-1E+10	1
4901784	113	C	08/08/2018	10:32	-131.982	43.025	0	1684.80	0	2.2120	0	34.7420	8	27.757	0	1664.708	0	41.9	4	12.7	4	-1E+10	1	-1E+10	1	-1E+10	1	-1E+10	1	-1E+10	1	-1E+10	1
4901784	113	C	08/08/2018	10:32	-131.982	43.025	0	1690.50	0	2.2060	0	34.7430	8	27.758	0	1670.318	0	42.2	4	12.8	4	-1E+10	1	-1E+10	1	-1E+10	1	-1E+10	1	-1E+10	1	-1E+10	1
4901784	113	C	08/08/2018	10:32	-131.982	43.025	0	1694.60	0	2.2020	0	34.7430	8	27.759	0	1674.352	0	42.5	4	12.9	4	-1E+10	1	-1E+10	1	-1E+10	1	-1E+10	1	-1E+10	1	-1E+10	1
4901784	113	C	08/08/2018	10:32	-131.982	43.025	0	1699.50	0	2.1960	0	34.7440	8	27.760	0	1679.174	0	42.8	4	13.0	4	-1E+10	1	-1E+10	1	-1E+10	1	-1E+10	1	-1E+10	1	-1E+10	1
4901784	113	C	08/08/2018	10:32	-131.982	43.025	0	1704.40	0	2.1900	0	34.7450	8	27.761	0	1683.996	0	43.3	4	13.1	4	-1E+10	1	-1E+10	1	-1E+10	1	-1E+10	1	-1E+10	1	-1E+10	1
4901784	113	C	08/08/2018	10:32	-131.982	43.025	0	1709.40	0	2.1820	0	34.7470	8	27.764	0	1688.917	0	43.8	4	13.3	4	-1E+10	1	-1E+10	1	-1E+10	1	-1E+10	1	-1E+10	1	-1E+10	1
4901784	113	C	08/08/2018	10:32	-131.982	43.025	0	1714.30	0	2.1750	0	34.7480	8	27.765	0	1693.738	0	44.2	4	13.4	4	-1E+10	1	-1E+10	1	-1E+10	1	-1E+10	1	-1E+10	1	-1E+10	1
4901784	113	C	08/08/2018	10:32	-131.982	43.025	0	1719.30	0	2.1670	0	34.7490	8	27.767	0	1698.658	0	44.6	4	13.5	4	-1E+10	1	-1E+10	1	-1E+10	1	-1E+10	1	-1E+10	1	-1E+10	1
4901784	113	C	08/08/2018	10:32	-131.982	43.025	0	1724.20	0	2.1620	0	34.7500	8	27.768	0	1703.480	0	45.0	4	13.6	4	-1E+10	1	-1E+10	1	-1E+10	1	-1E+10	1	-1E+10	1	-1E+10	1
4901784	113	C	08/08/2018	10:32	-131.982	43.025	0	1729.20	0	2.1560	0	34.7510	8	27.769	0	1708.400	0	45.3	4	13.7	4	-1E+10	1	-1E+10	1	-1E+10	1	-1E+10	1	-1E+10	1	-1E+10	1
4901784	113	C	08/08/2018	10:32	-131.982	43.025	0	1734.30	0	2.1510	0	34.7510	8	27.770	0	1713.418	0	45.7	4	13.8	4	-1E+10	1	-1E+10	1	-1E+10	1	-1E+10	1	-1E+10	1	-1E+10	1
4901784	113	C	08/08/2018	10:32	-131.982	43.025	0	1739.40	0	2.1450	0	34.7520	8	27.771	0	1718.436	0	46.0	4	13.9	4	-1E+10	1	-1E+10	1	-1E+10	1	-1E+10	1	-1E+10	1	-1E+10	1
4901784	113	C	08/08/2018	10:32	-131.982	43.025	0	1744.50	0	2.1410	0	34.7530	8	27.772	0	1723.454	0	46.3	4	14.0	4	-1E+10	1	-1E+10	1	-1E+10	1	-1E+10	1	-1E+10	1	-1E+10	1
4901784	113	C	08/08/2018	10:32	-131.982	43.025	0	1749.60	0	2.1350	0	34.7540	8	27.773	0	1728.471	0	46.6	4	14.1	4	-1E+10	1	-1E+10	1	-1E+10	1	-1E+10	1	-1E+10	1	-1E+10	1
4901784	113	C	08/08/2018	10:32	-131.982	43.025	0	1754.80	0	2.1290	0	34.7550	8	27.775	0	1733.587	0	47.0	4	14.2	4	-1E+10	1	-1E+10	1	-1E+10	1	-1E+10	1	-1E+10	1	-1E+10	1
4901784	113	C	08/08/2018	10:32	-131.982	43.025	0	1760.00	0	2.1240	0	34.7550	8	27.775	0	1738.703	0	47.4	4	14.3	4	-1E+10	1	-1E+10	1	-1E+10	1	-1E+10	1	-1E+10	1	-1E+10	1
4901784	113	C	08/08/2018	10:32	-131.982	43.025	0	1765.10	0	2.1170	0	34.7560	8	27.776	0	1743.720	0	47.7	4	14.4	4	-1E+10	1	-1E+10	1	-1E+10	1	-1E+10	1	-1E+10	1	-1E+10	1
4901784	113	C	08/08/2018	10:32	-131.982	43.025	0	1770.30	0	2.1130	0	34.7570	8	27.778	0	1748.836	0	48.1	4	14.5	4	-1E+10	1	-1E+10	1	-1E+10	1	-1E+10	1	-1E+10	1	-1E+10	1
4901784	113	C	08/08/2018	10:32	-131.982	43.025	0	1775.50	0	2.1060	0	34.7570	8	27.778	0	1753.952	0	48.5	4	14.7	4	-1E+10	1	-1E+10	1	-1E+10	1	-1E+10	1	-1E+10	1	-1E+10	1
4901784	113	C	08/08/2018	10:32	-131.982	43.025	0	1780.70	0	2.0980	0	34.7590	8	27.780	0	1759.067	0	48.9	4	14.8	4	-1E+10	1	-1E+10	1	-1E+10	1	-1E+10	1	-1E+10	1	-1E+10	1
4901784	113	C	08/08/2018	10:32	-131.982	43.025	0	1785.10	0	2.0930	0	34.7590	8	27.781	0	1763.395	0	49.2	4	14.9	4	-1E+10	1	-1E+10	1	-1E+10	1	-1E+10	1	-1E+10	1	-1E+10	1
4901784	113	C	08/08/2018	10:32	-131.982	43.025	0	1789.40	0	2.0850	0	34.7600	8	27.782	0	1767.625	0	49.5	4	15.0	4	-1E+10	1	-1E+10	1	-1E+10	1	-1E+10	1	-1E+10	1	-1E+10	1
4901784	113	C	08/08/2018	10:32	-131.982	43.025	0	1794.70	0	2.0810	0	34.7610	8	27.783	0	1772.838	0	49.7	4	15.0	4	-1E+10	1	-1E+10	1	-1E+10	1	-1E+10	1	-1E+10	1	-1E+10	1
4901784	113	C	08/08/2018	10:32	-131.982	43.025	0	1799.90	0	2.0750	0	34.7610	8	27.784	0	1777.953	0	50.0	4	15.1	4	-1E+10	1	-1E+10	1	-1E+10	1	-1E+10	1	-1E+10	1	-1E+10	1
4901784	113	C	08/08/2018	10:32	-131.982	43.025	0	1805.20	0	2.0670	0	34.7620	8	27.785	0	1783.166	0	50.4	4	15.2	4	-1E+10	1	-1E+10	1	-1E+10	1	-1E+10	1	-1E+10	1	-1E+10	1
4901784	113	C	08/08/2018	10:32	-131.982	43.025	0	1810.50	0	2.0650	0	34.7620	8	27.786	0	1788.380	0	50.7	4	15.3	4	-1E+10	1	-1E+10	1	-1E+10	1	-1E+10	1	-1E+10	1	-1E+10	1
4901784	113	C	08/08/2018	10:32	-131.982	43.025	0	1815.50	0	2.0580	0	34.7630	8	27.787	0	1793.297	0	51.0	4	15.4	4	-1E+10	1	-1E+10	1	-1E+10	1	-1E+10	1	-1E+10	1	-1E+10	1
4901784	113	C	08/08/2018	10:32	-131.982	43.025	0	1819.70	0	2.0510	0	34.7640	8	27.788	0	1797.428	0	51.2	4	15.5	4	-1E+10	1	-1E+10	1	-1E+10	1	-1E+10	1	-1E+10	1	-1E+10	1
4901784	113	C	08/08/2018	10:32	-131.982	43.025	0	1824.40	0	2.0500	0	34.7640	8	27.788	0	1802.051	0	51.3	4	15.5	4	-1E+10	1	-1E+10	1	-1E+10	1	-1E+10	1	-1E+10	1	-1E+10	1
4901784	113	C	08/08/2018	10:32	-131.982	43.025	0	1829.90	0	2.0450	0	34.7650	8	27.790	0	1807.460	0	51.5	4	15.6	4	-1E+10	1	-1E+10	1	-1E+10	1	-1E+10	1	-1E+10	1	-1E+10	1
4901784	113	C	08/08/2018	10:32	-131.982	43.025	0	1835.50	0	2.0420	0	34.7650	8	27.790	0	1812.968	0	51.7	4	15.6	4	-1E+10	1	-1E+10	1	-1E+10	1	-1E+10	1	-1E+10	1	-1E+10	1
4901784	113	C	08/08/2018	10:32	-131.982	43.025	0	1840.30	0	2.0380	0	34.7660	8	27.791	0	1817.688	0	51.9	4	15.7	4	-1E+10	1	-1E+10	1	-1E+10	1	-1E+10	1	-1E+10	1	-1E+10	1
4901784	113	C	08/08/2018	10:32	-131.982	43.025	0	1845.20	0	2.0340	0	34.7660	8	27.791	0	1822.507	0	52.1	4	15.8	4	-1E+10	1	-1E+10	1	-1E+10	1	-1E+10	1	-1E+10	1	-1E+10	1
4901784	113	C	08/08/2018	10:32	-131.982	43.025	0	1850.10	0	2.0320	0	34.7660	8	27.792	0	1827.326	0	52.4	4	15.8	4	-1E+10	1	-1E+10	1	-1E+10	1	-1E+10	1	-1E+10	1	-1E+10	1
4901784	113	C	08/08/2018	10:32	-131.982	43.025	0	1855.00	0	2.0300	0	34.7670	8	27.793	0	1832.144	0	52.6	4	15.9	4	-1E+10	1	-1E+10	1	-1E+10	1	-1E+10	1	-1E+10	1	-1E+10	1
4901784	113	C	08/08/2018	10:32	-131.982	43.025	0	1859.90	0	2.0270	0	34.7670	8	27.793	0	1836.963	0	52.9	4	16.0	4	-1E+10	1	-1E+10	1	-1E+10	1	-1E+10	1	-1E+10	1	-1E+10	1
4901784	113	C	08/08/2018	10:32	-131.982	43.025	0	1865.00	0	2.0220	0	34.7680	8	27.794	0	1841.978	0	53.3	4	16.1	4	-1E+10	1	-1E+10	1	-1E+10	1	-1E+10	1	-1E+10	1	-1E+10	1
4901784	113	C	08/08/2018	10:32	-131.982	43.025	0	1870.00	0	2.0190	0	34.7690	8	27.795	0	1846.894	0	53.6	4	16.2	4	-1E+10	1	-1E+10	1	-1E+10	1	-1E+10	1	-1E+10	1	-1E+10	1
4901784	113	C	08/08/2018	10:32	-131.982	43.025	0	1875.10	0	2.0100	0	34.7700	8	27.797	0	1851.909	0	54.0	4	16.3	4	-1E+10	1	-1E+10	1	-1E+10	1	-1E+10	1	-1E+10	1	-1E+10	1
4901784	113	C	08/08/2018	10:32	-131.982	43.025	0	1880.20	0	2.0030	0	34.7700	8	27.797	0	1856.924	0	54.4	4	16.4	4	-1E+10	1	-1E+10	1	-1E+10	1	-1E+10	1	-1E+10	1	-1E+10	1
4901784	113	C	08/08/2018	10:32	-131.982	43.025	0	1885.30	0	1.9970	0	34.7710	8	27.799	0	1861.938	0	54.6	4	16.5	4	-1E+10	1	-1E+10	1	-1E+10	1	-1E+10	1	-1E+10	1	-1E+10	1
4901784	113	C	08/08/2018	10:32	-131.982	43.025	0	1890.50	0	1.9960	0	34.7720	8	27.799	0	1867.051	0	54.7	4	16.5	4	-1E+10	1	-1E+10	1	-1E+10	1	-1E+10	1	-1E+10	1	-1E+10	1
4901784	113	C	08/08/2018	10:32	-131.982	43.025	0	1895.70	0	1.9940	0	34.7720	8	27.800	0	1872.164	0	54.9	4	16.6	4	-1E+10	1	-1E+10	1	-1E+10	1	-1E+10	1	-1E+10	1	-1E+10	1
4901784	113	C	08/08/2018	10:32	-131.982	43.025	0	1900.00	0	1.9930	0	34.7720	8	27.800	0	1876.391	0	55.1	4	16.6	4	-1E+10	1	-1E+10	1	-1E+10	1	-1E+10	1	-1E+10	1	-1E+10	1
4901784	113	C	08/08/2018	10:32	-131.982	43.025	0	1904.30	0	1.9900	0	34.7720	8	27.800	0	1880.619	0	55.3	4	16.7	4	-1E+10	1	-1E+10	1	-1E+10	1	-1E+10	1	-1E+10	1	-1E+10	1
4901784	113	C	08/08/2018	10:32	-131.982	43.025	0	1909.60	0	1.9850	0	34.7730	8	27.801	0	1885.829	0	55.6	4	16.8	4	-1E+10	1	-1E+10	1	-1E+10	1	-1E+10	1	-1E+10	1	-1E+10	1
4901784	113	C	08/08/2018	10:32	-131.982	43.025	0	1914.80	0	1.9800	0	34.7740	8	27.802	0	1890.942	0	56.0	4	16.9	4	-1E+10	1	-1E+10	1	-1E+10	1	-1E+10	1	-1E+10	1	-1E+10	1
4901784	113	C	08/08/2018	10:32	-131.982	43.025	0	1920.20	0	1.9740	0	34.7750	8	27.804	0	1896.250	0	56.4	4	17.0	4	-1E+10	1	-1E+10	1	-1E+10	1	-1E+10	1	-1E+10	1	-1E+10	1
4901784	113	C	08/08/2018	10:32	-131.982	43.025	0	1925.50	0	1.9710	0	34.7750	8	27.804	0	1901.461	0	56.6	4	17.1	4	-1E+10	1	-1E+10	1	-1E+10	1	-1E+10	1	-1E+10	1	-1E+10	1
4901784	113	C	08/08/2018	10:32	-131.982	43.025	0	1930.00	0	1.9670	0	34.7760	8	27.805	0	1905.884	0	56.8	4	17.1	4	-1E+10	1	-1E+10	1	-1E+10	1	-1E+10	1	-1E+10	1	-1E+10	1
4901784	113	C	08/08/2018	10:32	-131.982	43.025	0	1934.40	0	1.9640	0	34.7760	8	27.805	0	1910.210	0	57.0	4	17.2	4	-1E+10	1	-1E+10	1	-1E+10	1	-1E+10	1	-1E+10	1	-1E+10	1
4901784	113	C	08/08/2018	10:32	-131.982	43.025	0	1939.90	0	1.9620	0	34.7760	8	27.806	0	1915.616	0	57.2	4	17.2	4	-1E+10	1	-1E+10	1	-1E+10	1	-1E+10	1	-1E+10	1	-1E+10	1
4901784	113	C	08/08/2018	10:32	-131.982	43.025	0	1945.30	0	1.9590	0	34.7770	8	27.807	0	1920.924	0	57.4	4	17.3	4	-1E+10	1	-1E+10	1	-1E+10	1	-1E+10	1	-1E+10	1	-1E+10	1
4901784	113	C	08/08/2018	10:32	-131.982	43.025	0	1949.80	0	1.9580	0	34.7770	8	27.807	0	1925.347	0	57.6	4	17.4	4	-1E+10	1	-1E+10	1	-1E+10	1	-1E+10	1	-1E+10	1	-1E+10	1
4901784	113	C	08/08/2018	10:32	-131.982	43.025	0	1954.40	0	1.9530	0	34.7780	8	27.808	0	1929.869	0	57.9	4	17.5	4	-1E+10	1	-1E+10	1	-1E+10	1	-1E+10	1	-1E+10	1	-1E+10	1
4901784	113	C	08/08/2018	10:32	-131.982	43.025	0	1960.10	0	1.9490	0	34.7790	8	27.809	0	1935.471	0	58.2	4	17.5	4	-1E+10	1	-1E+10	1	-1E+10	1	-1E+10	1	-1E+10	1	-1E+10	1
4901784	113	C	08/08/2018	10:32	-131.982	43.025	0	1965.20	0	1.9440	0	34.7790	8	27.810	0	1940.484	0	58.5	4	17.6	4	-1E+10	1	-1E+10	1	-1E+10	1	-1E+10	1	-1E+10	1	-1E+10	1
4901784	113	C	08/08/2018	10:32	-131.982	43.025	0	1969.90	0	1.9400	0	34.7800	8	27.811	0	1945.104	0	58.8	4	17.7	4	-1E+10	1	-1E+10	1	-1E+10	1	-1E+10	1	-1E+10	1	-1E+10	1
4901784	113	C	08/08/2018	10:32	-131.982	43.025	0	1974.70	0	1.9370	0	34.7800	8	27.811	0	1949.821	0	59.1	4	17.8	4	-1E+10	1	-1E+10	1	-1E+10	1	-1E+10	1	-1E+10	1	-1E+10	1
4901784	113	C	08/08/2018	10:32	-131.982	43.025	0	1979.60	0	1.9320	0	34.7810	8	27.812	0	1954.637	0	59.3	4	17.9	4	-1E+10	1	-1E+10	1	-1E+10	1	-1E+10	1	-1E+10	1	-1E+10	1
4901784	113	C	08/08/2018	10:32	-131.982	43.025	0	1984.40	0	1.9290	0	34.7810	8	27.812	0	1959.354	0	59.5	4	17.9	4	-1E+10	1	-1E+10	1	-1E+10	1	-1E+10	1	-1E+10	1	-1E+10	1
4901784	113	C	08/08/2018	10:32	-131.982	43.025	0	1989.30	0	1.9250	0	34.7820	8	27.814	0	1964.170	0	59.8	4	18.0	4	-1E+10	1	-1E+10	1	-1E+10	1	-1E+10	1	-1E+10	1	-1E+10	1
4901784	113	C	08/08/2018	10:32	-131.982	43.025	0	1994.20	0	1.9230	0	34.7820	8	27.814	0	1968.985	0	60.0	4	18.1	4	-1E+10	1	-1E+10	1	-1E+10	1	-1E+10	1	-1E+10	1	-1E+10	1
4901784	113	C	08/08/2018	10:32	-131.982	43.025	0	1999.20	0	1.9210	0	34.7830	8	27.815	0	1973.899	0	60.1	4	18.1	4	-1E+10	1	-1E+10	1	-1E+10	1	-1E+10	1	-1E+10	1	-1E+10	1
4901784	113	C	08/08/2018	10:32	-131.982	43.025	0	2004.20	0	1.9200	0	34.7830	8	27.815	0	1978.813	0	60.3	4	18.2	4	-1E+10	1	-1E+10	1	-1E+10	1	-1E+10	1	-1E+10	1	-1E+10	1
4901784	113	C	08/08/2018	10:32	-131.982	43.025	0	2009.20	0	1.9180	0	34.7830	8	27.815	0	1983.726	0	60.4	4	18.2	4	-1E+10	1	-1E+10	1	-1E+10	1	-1E+10	1	-1E+10	1	-1E+10	1
4901784	113	C	08/08/2018	10:32	-131.982	43.025	0	2014.20	0	1.9170	0	34.7840	8	27.816	0	1988.639	0	60.6	4	18.3	4	-1E+10	1	-1E+10	1	-1E+10	1	-1E+10	1	-1E+10	1	-1E+10	1
4901784	113	C	08/08/2018	10:32	-131.982	43.025	0	2019.50	0	1.9150	0	34.7840	8	27.816	0	1993.847	0	60.8	4	18.3	4	-1E+10	1	-1E+10	1	-1E+10	1	-1E+10	1	-1E+10	1	-1E+10	1
4901784	113	C	08/08/2018	10:32	-131.982	43.025	0																										
4901784	114	C	08/18/2018	10:48	-132.053	43.056	0	2.50	0	17.4190	0	32.9370	8	23.834	0	2.480	0	233.0	4	97.1	4	-1E+10	1	-1E+10	1	-1E+10	1	-1E+10	1	-1E+10	1	-1E+10	1
4901784	114	C	08/18/2018	10:48	-132.053	43.056	0	4.00	0	17.4190	0	32.9370	8	23.834	0	3.968	0	232.8	4	97.1	4	-1E+10	1	-1E+10	1	-1E+10	1	-1E+10	1	-1E+10	1	-1E+10	1
4901784	114	C	08/18/2018	10:48	-132.053	43.056	0	5.60	0	17.4240	0	32.9360	8	23.832	0	5.555	0	232.6	4	97.0	4	-1E+10	1	-1E+10	1	-1E+10	1	-1E+10	1	-1E+10	1	-1E+10	1
4901784	114	C	08/18/2018	10:48	-132.053	43.056	0	7.40	0	17.4240	0	32.9360	8	23.832	0	7.341	0	232.3	4	96.9	4	-1E+10	1	-1E+10	1	-1E+10	1	-1E+10	1	-1E+10	1	-1E+10	1
4901784	114	C	08/18/2018	10:48	-132.053	43.056	0	9.10	0	17.4230	0	32.9360	8	23.832	0	9.028	0	232.3	4	96.9	4	-1E+10	1	-1E+10	1	-1E+10	1	-1E+10	1	-1E+10	1	-1E+10	1
4901784	114	C	08/18/2018	10:48	-132.053	43.056	0	10.90	0	17.4210	0	32.9370	8	23.833	0	10.813	0	232.1	4	96.8	4	-1E+10	1	-1E+10	1	-1E+10	1	-1E+10	1	-1E+10	1	-1E+10	1
4901784	114	C	08/18/2018	10:48	-132.053	43.056	0	12.80	0	17.4210	0	32.9360	8	23.833	0	12.698	0	232.1	4	96.8	4	-1E+10	1	-1E+10	1	-1E+10	1	-1E+10	1	-1E+10	1	-1E+10	1
4901784	114	C	08/18/2018	10:48	-132.053	43.056	0	14.60	0	17.4180	0	32.9350	8	23.833	0	14.484	0	232.0	4	96.7	4	-1E+10	1	-1E+10	1	-1E+10	1	-1E+10	1	-1E+10	1	-1E+10	1
4901784	114	C	08/18/2018	10:48	-132.053	43.056	0	16.40	0	17.4080	0	32.9360	8	23.836	0	16.269	0	232.0	4	96.7	4	-1E+10	1	-1E+10	1	-1E+10	1	-1E+10	1	-1E+10	1	-1E+10	1
4901784	114	C	08/18/2018	10:48	-132.053	43.056	0	18.20	0	17.3970	0	32.9340	8	23.837	0	18.055	0	232.1	4	96.7	4	-1E+10	1	-1E+10	1	-1E+10	1	-1E+10	1	-1E+10	1	-1E+10	1
4901784	114	C	08/18/2018	10:48	-132.053	43.056	0	19.90	0	17.3900	0	32.9310	8	23.837	0	19.741	0	232.2	4	96.8	4	-1E+10	1	-1E+10	1	-1E+10	1	-1E+10	1	-1E+10	1	-1E+10	1
4901784	114	C	08/18/2018	10:48	-132.053	43.056	0	21.60	0	17.3500	0	32.9310	8	23.846	0	21.427	0	232.8	4	96.9	4	-1E+10	1	-1E+10	1	-1E+10	1	-1E+10	1	-1E+10	1	-1E+10	1
4901784	114	C	08/18/2018	10:48	-132.053	43.056	0	23.30	0	17.1440	0	32.9380	8	23.900	0	23.114	0	233.8	4	97.0	4	-1E+10	1	-1E+10	1	-1E+10	1	-1E+10	1	-1E+10	1	-1E+10	1
4901784	114	C	08/18/2018	10:48	-132.053	43.056	0	25.30	0	17.0000	0	32.9420	8	23.937	0	25.098	0	235.9	4	97.6	4	-1E+10	1	-1E+10	1	-1E+10	1	-1E+10	1	-1E+10	1	-1E+10	1
4901784	114	C	08/18/2018	10:48	-132.053	43.056	0	25.70	0	16.9560	0	32.9410	8	23.947	0	25.494	0	236.7	4	97.8	4	-1E+10	1	-1E+10	1	-1E+10	1	-1E+10	1	-1E+10	1	-1E+10	1
4901784	114	C	08/18/2018	10:48	-132.053	43.056	0	27.20	0	16.8070	0	32.9420	8	23.982	0	26.982	0	238.8	4	98.4	4	-1E+10	1	-1E+10	1	-1E+10	1	-1E+10	1	-1E+10	1	-1E+10	1
4901784	114	C	08/18/2018	10:48	-132.053	43.056	0	28.50	0	16.4850	0	32.9510	8	24.064	0	28.272	0	242.3	4	99.2	4	-1E+10	1	-1E+10	1	-1E+10	1	-1E+10	1	-1E+10	1	-1E+10	1
4901784	114	C	08/18/2018	10:48	-132.053	43.056	0	29.80	0	16.0380	0	32.9540	8	24.168	0	29.561	0	246.7	4	100.2	4	-1E+10	1	-1E+10	1	-1E+10	1	-1E+10	1	-1E+10	1	-1E+10	1
4901784	114	C	08/18/2018	10:48	-132.053	43.056	0	31.20	0	15.8200	0	32.9420	8	24.207	0	30.950	0	250.5	4	101.3	4	-1E+10	1	-1E+10	1	-1E+10	1	-1E+10	1	-1E+10	1	-1E+10	1
4901784	114	C	08/18/2018	10:48	-132.053	43.056	0	32.70	0	15.5090	0	32.9310	8	24.268	0	32.438	0	254.8	4	102.4	4	-1E+10	1	-1E+10	1	-1E+10	1	-1E+10	1	-1E+10	1	-1E+10	1
4901784	114	C	08/18/2018	10:48	-132.053	43.056	0	34.30	0	14.9260	0	32.9150	8	24.383	0	34.025	0	260.7	4	103.6	4	-1E+10	1	-1E+10	1	-1E+10	1	-1E+10	1	-1E+10	1	-1E+10	1
4901784	114	C	08/18/2018	10:48	-132.053	43.056	0	34.70	0	14.8900	0	32.9060	8	24.384	0	34.422	0	263.3	4	104.5	4	-1E+10	1	-1E+10	1	-1E+10	1	-1E+10	1	-1E+10	1	-1E+10	1
4901784	114	C	08/18/2018	10:48	-132.053	43.056	0	36.10	0	14.2500	0	32.9040	8	24.518	0	35.810	0	269.8	4	105.7	4	-1E+10	1	-1E+10	1	-1E+10	1	-1E+10	1	-1E+10	1	-1E+10	1
4901784	114	C	08/18/2018	10:48	-132.053	43.056	0	37.50	0	13.5830	0	32.9210	8	24.668	0	37.199	0	275.6	4	106.6	4	-1E+10	1	-1E+10	1	-1E+10	1	-1E+10	1	-1E+10	1	-1E+10	1
4901784	114	C	08/18/2018	10:48	-132.053	43.056	0	38.80	0	13.0260	0	32.8970	8	24.761	0	38.488	0	281.2	4	107.5	4	-1E+10	1	-1E+10	1	-1E+10	1	-1E+10	1	-1E+10	1	-1E+10	1
4901784	114	C	08/18/2018	10:48	-132.053	43.056	0	40.10	0	12.6630	0	32.8870	8	24.824	0	39.778	0	284.9	4	108.1	4	-1E+10	1	-1E+10	1	-1E+10	1	-1E+10	1	-1E+10	1	-1E+10	1
4901784	114	C	08/18/2018	10:48	-132.053	43.056	0	41.60	0	12.0420	0	32.8860	8	24.941	0	41.266	0	289.2	4	108.3	4	-1E+10	1	-1E+10	1	-1E+10	1	-1E+10	1	-1E+10	1	-1E+10	1
4901784	114	C	08/18/2018	10:48	-132.053	43.056	0	43.00	0	11.7780	0	32.8860	8	24.990	0	42.654	0	290.5	4	108.2	4	-1E+10	1	-1E+10	1	-1E+10	1	-1E+10	1	-1E+10	1	-1E+10	1
4901784	114	C	08/18/2018	10:48	-132.053	43.056	0	44.50	0	11.3180	0	32.8790	8	25.069	0	44.142	0	292.6	4	107.9	4	-1E+10	1	-1E+10	1	-1E+10	1	-1E+10	1	-1E+10	1	-1E+10	1
4901784	114	C	08/18/2018	10:48	-132.053	43.056	0	46.00	0	11.0420	0	32.8680	8	25.110	0	45.630	0	292.7	4	107.3	4	-1E+10	1	-1E+10	1	-1E+10	1	-1E+10	1	-1E+10	1	-1E+10	1
4901784	114	C	08/18/2018	10:48	-132.053	43.056	0	47.40	0	10.9620	0	32.8630	8	25.120	0	47.018	0	291.5	4	106.7	4	-1E+10	1	-1E+10	1	-1E+10	1	-1E+10	1	-1E+10	1	-1E+10	1
4901784	114	C	08/18/2018	10:48	-132.053	43.056	0	48.90	0	10.6270	0	32.8470	8	25.166	0	48.506	0	291.2	4	105.8	4	-1E+10	1	-1E+10	1	-1E+10	1	-1E+10	1	-1E+10	1	-1E+10	1
4901784	114	C	08/18/2018	10:48	-132.053	43.056	0	50.40	0	10.4970	0	32.8470	8	25.188	0	49.994	0	289.6	4	105.0	4	-1E+10	1	-1E+10	1	-1E+10	1	-1E+10	1	-1E+10	1	-1E+10	1
4901784	114	C	08/18/2018	10:48	-132.053	43.056	0	52.00	0	10.3390	0	32.8500	8	25.218	0	51.581	0	288.0	4	104.0	4	-1E+10	1	-1E+10	1	-1E+10	1	-1E+10	1	-1E+10	1	-1E+10	1
4901784	114	C	08/18/2018	10:48	-132.053	43.056	0	53.70	0	10.1940	0	32.8550	8	25.246	0	53.267	0	286.4	4	103.1	4	-1E+10	1	-1E+10	1	-1E+10	1	-1E+10	1	-1E+10	1	-1E+10	1
4901784	114	C	08/18/2018	10:48	-132.053	43.056	0	55.40	0	10.1520	0	32.8670	8	25.263	0	54.953	0	285.1	4	102.6	4	-1E+10	1	-1E+10	1	-1E+10	1	-1E+10	1	-1E+10	1	-1E+10	1
4901784	114	C	08/18/2018	10:48	-132.053	43.056	0	57.10	0	10.1280	0	32.8750	8	25.273	0	56.639	0	283.4	4	101.9	4	-1E+10	1	-1E+10	1	-1E+10	1	-1E+10	1	-1E+10	1	-1E+10	1
4901784	114	C	08/18/2018	10:48	-132.053	43.056	0	58.70	0	10.0800	0	32.8720	8	25.279	0	58.226	0	282.1	4	101.3	4	-1E+10	1	-1E+10	1	-1E+10	1	-1E+10	1	-1E+10	1	-1E+10	1
4901784	114	C	08/18/2018	10:48	-132.053	43.056	0	60.50	0	10.0550	0	32.8720	8	25.283	0	60.011	0	280.5	4	100.7	4	-1E+10	1	-1E+10	1	-1E+10	1	-1E+10	1	-1E+10	1	-1E+10	1
4901784	114	C	08/18/2018	10:48	-132.053	43.056	0	62.10	0	10.0090	0	32.8730	8	25.291	0	61.598	0	278.9	4	100.0	4	-1E+10	1	-1E+10	1	-1E+10	1	-1E+10	1	-1E+10	1	-1E+10	1
4901784	114	C	08/18/2018	10:48	-132.053	43.056	0	63.90	0	9.9700	0	32.8730	8	25.298	0	63.383	0	277.3	4	99.4	4	-1E+10	1	-1E+10	1	-1E+10	1	-1E+10	1	-1E+10	1	-1E+10	1
4901784	114	C	08/18/2018	10:48	-132.053	43.056	0	65.50	0	9.9350	0	32.8770	8	25.307	0	64.970	0	275.2	4	98.6	4	-1E+10	1	-1E+10	1	-1E+10	1	-1E+10	1	-1E+10	1	-1E+10	1
4901784	114	C	08/18/2018	10:48	-132.053	43.056	0	67.30	0	9.8850	0	32.8810	8	25.318	0	66.755	0	273.5	4	97.9	4	-1E+10	1	-1E+10	1	-1E+10	1	-1E+10	1	-1E+10	1	-1E+10	1
4901784	114	C	08/18/2018	10:48	-132.053	43.056	0	69.00	0	9.8190	0	32.8760	8	25.325	0	68.441	0	272.8	4	97.4	4	-1E+10	1	-1E+10	1	-1E+10	1	-1E+10	1	-1E+10	1	-1E+10	1
4901784	114	C	08/18/2018	10:48	-132.053	43.056	0	70.70	0	9.7950	0	32.8740	8	25.328	0	70.127	0	271.6	4	97.0	4	-1E+10	1	-1E+10	1	-1E+10	1	-1E+10	1	-1E+10	1	-1E+10	1
4901784	114	C	08/18/2018	10:48	-132.053	43.056	0	72.40	0	9.7500	0	32.8730	8	25.334	0	71.813	0	270.5	4	96.5	4	-1E+10	1	-1E+10	1	-1E+10	1	-1E+10	1	-1E+10	1	-1E+10	1
4901784	114	C	08/18/2018	10:48	-132.053	43.056	0	74.10	0	9.7520	0	32.8760	8	25.336	0	73.498	0	269.8	4	96.2	4	-1E+10	1	-1E+10	1	-1E+10	1	-1E+10	1	-1E+10	1	-1E+10	1
4901784	114	C	08/18/2018	10:48	-132.053	43.056	0	75.80	0	9.7370	0	32.8790	8	25.341	0	75.184	0	268.8	4	95.8	4	-1E+10	1	-1E+10	1	-1E+10	1	-1E+10	1	-1E+10	1	-1E+10	1
4901784	114	C	08/18/2018	10:48	-132.053	43.056	0	77.50	0	9.7100	0	32.8780	8	25.345	0	76.870	0	268.0	4	95.5	4	-1E+10	1	-1E+10	1	-1E+10	1	-1E+10	1	-1E+10	1	-1E+10	1
4901784	114	C	08/18/2018	10:48	-132.053	43.056	0	79.30	0	9.6950	0	32.8810	8	25.350	0	78.655	0	267.2	4	95.2	4	-1E+10	1	-1E+10	1	-1E+10	1	-1E+10	1	-1E+10	1	-1E+10	1
4901784	114	C	08/18/2018	10:48	-132.053	43.056	0	81.10	0	9.6950	0	32.8870	8	25.355	0	80.440	0	266.5	4	94.9	4	-1E+10	1	-1E+10	1	-1E+10	1	-1E+10	1	-1E+10	1	-1E+10	1
4901784	114	C	08/18/2018	10:48	-132.053	43.056	0	82.80	0	9.6940	0	32.8890	8	25.356	0	82.126	0	265.7	4	94.7	4	-1E+10	1	-1E+10	1	-1E+10	1	-1E+10	1	-1E+10	1	-1E+10	1
4901784	114	C	08/18/2018	10:48	-132.053	43.056	0	84.60	0	9.6930	0	32.8910	8	25.358	0	83.911	0	264.8	4	94.4	4	-1E+10	1	-1E+10	1	-1E+10	1	-1E+10	1	-1E+10	1	-1E+10	1
4901784	114	C	08/18/2018	10:48	-132.053	43.056	0	86.30	0	9.7120	0	32.8920	8	25.356	0	85.597	0	264.1	4	94.1	4	-1E+10	1	-1E+10	1	-1E+10	1	-1E+10	1	-1E+10	1	-1E+10	1
4901784	114	C	08/18/2018	10:48	-132.053	43.056	0	88.00	0	9.8120	0	32.9270	8	25.367	0	87.283	0	262.7	4	93.9	4	-1E+10	1	-1E+10	1	-1E+10	1	-1E+10	1	-1E+10	1	-1E+10	1
4901784	114	C	08/18/2018	10:48	-132.053	43.056	0	89.70	0	9.8070	0	32.9250	8	25.366	0	88.968	0	262.1	4	93.6	4	-1E+10	1	-1E+10	1	-1E+10	1	-1E+10	1	-1E+10	1	-1E+10	1
4901784	114	C	08/18/2018	10:48	-132.053	43.056	0	91.40	0	9.7710	0	32.9250	8	25.372	0	90.654	0	261.1	4	93.2	4	-1E+10	1	-1E+10	1	-1E+10	1	-1E+10	1	-1E+10	1	-1E+10	1
4901784	114	C	08/18/2018	10:48	-132.053	43.056	0	93.20	0	9.7490	0	32.9170	8	25.369	0	92.439	0	260.4	4	92.9	4	-1E+10	1	-1E+10	1	-1E+10	1	-1E+10	1	-1E+10	1	-1E+10	1
4901784	114	C	08/18/2018	10:48	-132.053	43.056	0	95.00	0	9.7630	0	32.9240	8	25.373	0	94.224	0	259.3	4	92.5	4	-1E+10	1	-1E+10	1	-1E+10	1	-1E+10	1	-1E+10	1	-1E+10	1
4901784	114	C	08/18/2018	10:48	-132.053	43.056	0	96.70	0	9.7330	0	32.9250	8	25.378	0	95.910	0	258.3	4	92.1	4	-1E+10	1	-1E+10	1	-1E+10	1	-1E+10	1	-1E+10	1	-1E+10	1
4901784	114	C	08/18/2018	10:48	-132.053	43.056	0	98.60	0	9.6800	0	32.9180	8	25.382	0	97.794	0	257.7	4	91.8	4	-1E+10	1	-1E+10	1	-1E+10	1	-1E+10	1	-1E+10	1	-1E+10	1
4901784	114	C	08/18/2018	10:48	-132.053	43.056	0	100.30	0	9.6210	0	32.9100	8	25.385	0	99.479	0	257.0	4	91.4	4	-1E+10	1	-1E+10	1	-1E+10	1	-1E+10	1	-1E+10	1	-1E+10	1
4901784	114	C	08/18/2018	10:48	-132.053	43.056	0	102.10	0	9.5930	0	32.9110	8	25.390	0	101.264	0	255.5	4	90.9	4	-1E+10	1	-1E+10	1	-1E+10	1	-1E+10	1	-1E+10	1	-1E+10	1
4901784	114	C	08/18/2018	10:48	-132.053	43.056	0	105.00	0	9.5790	0	32.9200	8	25.400	0	104.140	0	253.1	4	90.0	4	-1E+10	1	-1E+10	1	-1E+10	1	-1E+10	1	-1E+10	1	-1E+10	1
4901784	114	C	08/18/2018	10:48	-132.053	43.056	0	107.60	0	9.4680	0	32.9180	8	25.416	0	106.718	0	250.9	4	89.0	4	-1E+10	1	-1E+10	1	-1E+10	1	-1E+10	1	-1E+10	1	-1E+10	1
4901784	114	C	08/18/2018	10:48	-132.053	43.056	0	109.70	0	9.4290	0	32.9330	8	25.434	0	108.800	0	249.4	4	88.4	4	-1E+10	1	-1E+10	1	-1E+10	1	-1E+10	1	-1E+10	1	-1E+10	1
4901784	114	C	08/18/2018	10:48	-132.053	43.056	0	112.50	0	9.2720	0	32.9440	8	25.468	0	111.576	0	247.3	4	87.3	4	-1E+10	1	-1E+10	1	-1E+10	1	-1E+10	1	-1E+10	1	-1E+10	1
4901784	114	C	08/18/2018	10:48	-132.053	43.056	0	115.40	0	9.1500	0	32.9700	8	25.507	0	114.452	0	244.4	4	86.1	4	-1E+10	1	-1E+10	1	-1E+10	1	-1E+10	1	-1E+10	1	-1E+10	1
4901784	114	C	08/18/2018	10:48	-132.053	43.056	0	117.50	0	9.0950	0	32.9980	8	25.538	0	116.534	0	241.7	4	85.1	4	-1E+10	1	-1E+10	1	-1E+10	1	-1E+10	1	-1E+10	1	-1E+10	1
4901784	114	C	08/18/2018	10:48	-132.053	43.056	0	119.70	0	9.0080	0	33.0300	8	25.577	0	118.715	0	239.0	4	84.0	4	-1E+10	1	-1E+10	1	-1E+10	1	-1E+10	1	-1E+10	1	-1E+10	1
4901784	114	C	08/18/2018	10:48	-132.053	43.056	0	122.20	0	8.8690	0	33.0460	8	25.611	0	121.194	0	236.3	4	82.8	4	-1E+10	1	-1E+10	1	-1E+10	1	-1E+10	1	-1E+10	1	-1E+10	1
4901784	114	C	08/18/2018	10:48	-132.053	43.056	0	124.70	0	8.6400	0	33.1310	8	25.713	0	123.673	0	233.7	4	81.5	4	-1E+10	1	-1E+10	1	-1E+10	1	-1E+10	1	-1E+10	1	-1E+10	1
4901784	114	C	08/18/2018	10:48	-132.053	43.056	0	127.90	0	8.4600	0	33.1930	8	25.789	0	126.845	0	231.2	4	80.4	4	-1E+10	1	-1E+10	1	-1E+10	1	-1E+10	1	-1E+10	1	-1E+10	1
4901784	114	C	08/18/2018	10:48	-132.053	43.056	0	130.30	0	8.3370	0	33.2400	8	25.844	0	129.225	0	229.4	4	79.5	4	-1E+10	1	-1E+10	1	-1E+10	1	-1E+10	1	-1E+10	1	-1E+10	1
4901784	114	C	08/18/2018	10:48	-132.053	43.056	0	132.50	0	8.3280	0	33.2410	8	25.846	0	131.406	0	227.2	4	78.8	4	-1E+10	1	-1E+10	1	-1E+10	1	-1E+10	1	-1E+10	1	-1E+10	1
4901784	114	C	08/18/2018	10:48	-132.053	43.056	0	134.90	0	8.2450	0	33.3010	8	25.906	0	133.785	0	223.2	4	77.3	4	-1E+10	1	-1E+10	1	-1E+10	1	-1E+10	1	-1E+10	1	-1E+10	1
4901784	114	C	08/18/2018	10:48	-132.053	43.056	0	137.80	0	8.1960	0	33.3640	8	25.962	0	136.660	0	218.6	4	75.6	4	-1E+10	1	-1E+10	1	-1E+10	1	-1E+10	1	-1E+10	1	-1E+10	1
4901784	114	C	08/18/2018	10:48	-132.053	43.056	0	140.10	0	8.1920	0	33.4080	8	25.998	0	138.941	0	214.8	4	74.3	4	-1E+10	1	-1E+10	1	-1E+10	1	-1E+10	1	-1E+10	1	-1E+10	1
4901784	114	C	08/18/2018	10:48	-132.053	43.056	0	142.50	0	8.2030	0	33.4740	8	26.048	0	141.320	0	210.6	4	72.9	4	-1E+10	1	-1E+10	1	-1E+10	1	-1E+10	1	-1E+10	1	-1E+10	1
4901784	114	C	08/18/2018	10:48	-132.053	43.056	0	144.90	0	8.2070	0	33.4990	8	26.067	0	143.699	0	207.1	4	71.7	4	-1E+10	1	-1E+10	1	-1E+10	1	-1E+10	1	-1E+10	1	-1E+10	1
4901784	114	C	08/18/2018	10:48	-132.053	43.056	0	147.30	0	8.2230	0	33.5500	8	26.105	0	146.078	0	202.5	4	70.2	4	-1E+10	1	-1E+10	1	-1E+10	1	-1E+10	1	-1E+10	1	-1E+10	1
4901784	114	C	08/18/2018	10:48	-132.053	43.056	0	149.80	0	8.2240	0	33.5770	8	26.126	0	148.557	0	197.6	4	68.5	4	-1E+10	1	-1E+10	1	-1E+10	1	-1E+10	1	-1E+10	1	-1E+10	1
4901784	114	C	08/18/2018	10:48	-132.053	43.056	0	152.40	0	8.2840	0	33.6760	8	26.194	0	151.134	0	191.4	4	66.5	4	-1E+10	1	-1E+10	1	-1E+10	1	-1E+10	1	-1E+10	1	-1E+10	1
4901784	114	C	08/18/2018	10:48	-132.053	43.056	0	155.00	0	8.3320	0	33.7610	8	26.254	0	153.712	0	187.1	4	65.1	4	-1E+10	1	-1E+10	1	-1E+10	1	-1E+10	1	-1E+10	1	-1E+10	1
4901784	114	C	08/18/2018	10:48	-132.053	43.056	0	157.70	0	8.3530	0	33.7940	8	26.277	0	156.388	0	183.3	4	63.8	4	-1E+10	1	-1E+10	1	-1E+10	1	-1E+10	1	-1E+10	1	-1E+10	1
4901784	114	C	08/18/2018	10:48	-132.053	43.056	0	160.50	0	8.3750	0	33.8360	8	26.306	0	159.164	0	179.4	4	62.5	4	-1E+10	1	-1E+10	1	-1E+10	1	-1E+10	1	-1E+10	1	-1E+10	1
4901784	114	C	08/18/2018	10:48	-132.053	43.056	0	162.40	0	8.3850	0	33.8620	8	26.325	0	161.047	0	176.1	4	61.4	4	-1E+10	1	-1E+10	1	-1E+10	1	-1E+10	1	-1E+10	1	-1E+10	1
4901784	114	C	08/18/2018	10:48	-132.053	43.056	0	165.30	0	8.4020	0	33.9340	8	26.379	0	163.922	0	171.5	4	59.9	4	-1E+10	1	-1E+10	1	-1E+10	1	-1E+10	1	-1E+10	1	-1E+10	1
4901784	114	C	08/18/2018	10:48	-132.053	43.056	0	168.10	0	8.3980	0	33.9840	8	26.419	0	166.697	0	167.9	4	58.6	4	-1E+10	1	-1E+10	1	-1E+10	1	-1E+10	1	-1E+10	1	-1E+10	1
4901784	114	C	08/18/2018	10:48	-132.053	43.056	0	170.00	0	8.3740	0	34.0150	8	26.447	0	168.581	0	166.3	4	58.0	4	-1E+10	1	-1E+10	1	-1E+10	1	-1E+10	1	-1E+10	1	-1E+10	1
4901784	114	C	08/18/2018	10:48	-132.053	43.056	0	171.90	0	8.3580	0	34.0300	8	26.461	0	170.464	0	164.9	4	57.5	4	-1E+10	1	-1E+10	1	-1E+10	1	-1E+10	1	-1E+10	1	-1E+10	1
4901784	114	C	08/18/2018	10:48	-132.053	43.056	0	174.80	0	8.3320	0	34.0430	8	26.475	0	173.339	0	163.6	4	57.1	4	-1E+10	1	-1E+10	1	-1E+10	1	-1E+10	1	-1E+10	1	-1E+10	1
4901784	114	C	08/18/2018	10:48	-132.053	43.056	0	177.70	0	8.2960	0	34.0670	8	26.500	0	176.213	0	162.7	4	56.7	4	-1E+10	1	-1E+10	1	-1E+10	1	-1E+10	1	-1E+10	1	-1E+10	1
4901784	114	C	08/18/2018	10:48	-132.053	43.056	0	179.60	0	8.2860	0	34.0740	8	26.507	0	178.097	0	162.2	4	56.5	4	-1E+10	1	-1E+10	1	-1E+10	1	-1E+10	1	-1E+10	1	-1E+10	1
4901784	114	C	08/18/2018	10:48	-132.053	43.056	0	182.50	0	8.2610	0	34.0800	8	26.515	0	180.971	0	161.1	4	56.1	4	-1E+10	1	-1E+10	1	-1E+10	1	-1E+10	1	-1E+10	1	-1E+10	1
4901784	114	C	08/18/2018	10:48	-132.053	43.056	0	185.90	0	8.2410	0	34.0850	8	26.522	0	184.341	0	159.7	4	55.6	4	-1E+10	1	-1E+10	1	-1E+10	1	-1E+10	1	-1E+10	1	-1E+10	1
4901784	114	C	08/18/2018	10:48	-132.053	43.056	0	187.80	0	8.2110	0	34.0890	8	26.530	0	186.224	0	158.4	4	55.1	4	-1E+10	1	-1E+10	1	-1E+10	1	-1E+10	1	-1E+10	1	-1E+10	1
4901784	114	C	08/18/2018	10:48	-132.053	43.056	0	190.30	0	8.1690	0	34.0950	8	26.541	0	188.702	0	156.9	4	54.5	4	-1E+10	1	-1E+10	1	-1E+10	1	-1E+10	1	-1E+10	1	-1E+10	1
4901784	114	C	08/18/2018	10:48	-132.053	43.056	0	192.70	0	8.1190	0	34.1000	8	26.552	0	191.081	0	155.7	4	54.0	4	-1E+10	1	-1E+10	1	-1E+10	1	-1E+10	1	-1E+10	1	-1E+10	1
4901784	114	C	08/18/2018	10:48	-132.053	43.056	0	195.00	0	8.0780	0	34.1040	8	26.562	0	193.360	0	153.9	4	53.4	4	-1E+10	1	-1E+10	1	-1E+10	1	-1E+10	1	-1E+10	1	-1E+10	1
4901784	114	C	08/18/2018	10:48	-132.053	43.056	0	197.50	0	7.9960	0	34.1110	8	26.579	0	195.838	0	152.3	4	52.7	4	-1E+10	1	-1E+10	1	-1E+10	1	-1E+10	1	-1E+10	1	-1E+10	1
4901784	114	C	08/18/2018	10:48	-132.053	43.056	0	200.00	0	7.9530	0	34.1090	8	26.584	0	198.316	0	151.3	4	52.3	4	-1E+10	1	-1E+10	1	-1E+10	1	-1E+10	1	-1E+10	1	-1E+10	1
4901784	114	C	08/18/2018	10:48	-132.053	43.056	0	202.40	0	7.9260	0	34.1080	8	26.587	0	200.695	0	150.2	4	51.9	4	-1E+10	1	-1E+10	1	-1E+10	1	-1E+10	1	-1E+10	1	-1E+10	1
4901784	114	C	08/18/2018	10:48	-132.053	43.056	0	204.90	0	7.8790	0	34.1110	8	26.597	0	203.172	0	149.0	4	51.5	4	-1E+10	1	-1E+10	1	-1E+10	1	-1E+10	1	-1E+10	1	-1E+10	1
4901784	114	C	08/18/2018	10:48	-132.053	43.056	0	207.30	0	7.8320	0	34.1100	8	26.603	0	205.551	0	147.6	4	50.9	4	-1E+10	1	-1E+10	1	-1E+10	1	-1E+10	1	-1E+10	1	-1E+10	1
4901784	114	C	08/18/2018	10:48	-132.053	43.056	0	209.80	0	7.7720	0	34.1120	8	26.613	0	208.029	0	145.9	4	50.3	4	-1E+10	1	-1E+10	1	-1E+10	1	-1E+10	1	-1E+10	1	-1E+10	1
4901784	114	C	08/18/2018	10:48	-132.053	43.056	0	212.30	0	7.7080	0	34.1120	8	26.623	0	210.506	0	144.6	4	49.7	4	-1E+10	1	-1E+10	1	-1E+10	1	-1E+10	1	-1E+10	1	-1E+10	1
4901784	114	C	08/18/2018	10:48	-132.053	43.056	0	214.80	0	7.6600	0	34.1120	8	26.629	0	212.984	0	143.3	4	49.2	4	-1E+10	1	-1E+10	1	-1E+10	1	-1E+10	1	-1E+10	1	-1E+10	1
4901784	114	C	08/18/2018	10:48	-132.053	43.056	0	217.30	0	7.6050	0	34.1130	8	26.638	0	215.461	0	141.9	4	48.7	4	-1E+10	1	-1E+10	1	-1E+10	1	-1E+10	1	-1E+10	1	-1E+10	1
4901784	114	C	08/18/2018	10:48	-132.053	43.056	0	220.00	0	7.5440	0	34.1140	8	26.648	0	218.137	0	140.7	4	48.2	4	-1E+10	1	-1E+10	1	-1E+10	1	-1E+10	1	-1E+10	1	-1E+10	1
4901784	114	C	08/18/2018	10:48	-132.053	43.056	0	222.50	0	7.4880	0	34.1130	8	26.655	0	220.615	0	139.7	4	47.8	4	-1E+10	1	-1E+10	1	-1E+10	1	-1E+10	1	-1E+10	1	-1E+10	1
4901784	114	C	08/18/2018	10:48	-132.053	43.056	0	225.10	0	7.4290	0	34.1140	8	26.664	0	223.191	0	138.9	4	47.5	4	-1E+10	1	-1E+10	1	-1E+10	1	-1E+10	1	-1E+10	1	-1E+10	1
4901784	114	C	08/18/2018	10:48	-132.053	43.056	0	227.70	0	7.3970	0	34.1140	8	26.669	0	225.768	0	138.2	4	47.2	4	-1E+10	1	-1E+10	1	-1E+10	1	-1E+10	1	-1E+10	1	-1E+10	1
4901784	114	C	08/18/2018	10:48	-132.053	43.056	0	230.30	0	7.3660	0	34.1130	8	26.672	0	228.344	0	137.4	4	46.9	4	-1E+10	1	-1E+10	1	-1E+10	1	-1E+10	1	-1E+10	1	-1E+10	1
4901784	114	C	08/18/2018	10:48	-132.053	43.056	0	232.90	0	7.3070	0	34.1150	8	26.682	0	230.921	0	136.7	4	46.6	4	-1E+10	1	-1E+10	1	-1E+10	1	-1E+10	1	-1E+10	1	-1E+10	1
4901784	114	C	08/18/2018	10:48	-132.053	43.056	0	235.30	0	7.2680	0	34.1160	8	26.689	0	233.299	0	136.3	4	46.4	4	-1E+10	1	-1E+10	1	-1E+10	1	-1E+10	1	-1E+10	1	-1E+10	1
4901784	114	C	08/18/2018	10:48	-132.053	43.056	0	237.90	0	7.2600	0	34.1150	8	26.689	0	235.875	0	135.8	4	46.3	4	-1E+10	1	-1E+10	1	-1E+10	1	-1E+10	1	-1E+10	1	-1E+10	1
4901784	114	C	08/18/2018	10:48	-132.053	43.056	0	239.60	0	7.2560	0	34.1140	8	26.689	0	237.560	0	135.3	4	46.1	4	-1E+10	1	-1E+10	1	-1E+10	1	-1E+10	1	-1E+10	1	-1E+10	1
4901784	114	C	08/18/2018	10:48	-132.053	43.056	0	242.20	0	7.2100	0	34.1140	8	26.695	0	240.136	0	134.5	4	45.8	4	-1E+10	1	-1E+10	1	-1E+10	1	-1E+10	1	-1E+10	1	-1E+10	1
4901784	114	C	08/18/2018	10:48	-132.053	43.056	0	244.80	0	7.1730	0	34.1140	8	26.700	0	242.713	0	133.9	4	45.5	4	-1E+10	1	-1E+10	1	-1E+10	1	-1E+10	1	-1E+10	1	-1E+10	1
4901784	114	C	08/18/2018	10:48	-132.053	43.056	0	247.40	0	7.1380	0	34.1140	8	26.705	0	245.289	0	133.1	4	45.2	4	-1E+10	1	-1E+10	1	-1E+10	1	-1E+10	1	-1E+10	1	-1E+10	1
4901784	114	C	08/18/2018	10:48	-132.053	43.056	0	250.00	0	7.0860	0	34.1150	8	26.713	0	247.865	0	132.5	4	44.9	4	-1E+10	1	-1E+10	1	-1E+10	1	-1E+10	1	-1E+10	1	-1E+10	1
4901784	114	C	08/18/2018	10:48	-132.053	43.056	0	252.70	0	7.0480	0	34.1160	8	26.719	0	250.540	0	131.7	4	44.6	4	-1E+10	1	-1E+10	1	-1E+10	1	-1E+10	1	-1E+10	1	-1E+10	1
4901784	114	C	08/18/2018	10:48	-132.053	43.056	0	255.30	0	7.0190	0	34.1150	8	26.722	0	253.117	0	131.1	4	44.4	4	-1E+10	1	-1E+10	1	-1E+10	1	-1E+10	1	-1E+10	1	-1E+10	1
4901784	114	C	08/18/2018	10:48	-132.053	43.056	0	257.20	0	7.0150	0	34.1140	8	26.722	0	254.999	0	130.5	4	44.2	4	-1E+10	1	-1E+10	1	-1E+10	1	-1E+10	1	-1E+10	1	-1E+10	1
4901784	114	C	08/18/2018	10:48	-132.053	43.056	0	259.80	0	6.9700	0	34.1150	8	26.729	0	257.575	0	129.6	4	43.9	4	-1E+10	1	-1E+10	1	-1E+10	1	-1E+10	1	-1E+10	1	-1E+10	1
4901784	114	C	08/18/2018	10:48	-132.053	43.056	0	262.40	0	6.9410	0	34.1150	8	26.733	0	260.151	0	128.9	4	43.6	4	-1E+10	1	-1E+10	1	-1E+10	1	-1E+10	1	-1E+10	1	-1E+10	1
4901784	114	C	08/18/2018	10:48	-132.053	43.056	0	265.10	0	6.9100	0	34.1160	8	26.738	0	262.827	0	127.7	4	43.1	4	-1E+10	1	-1E+10	1	-1E+10	1	-1E+10	1	-1E+10	1	-1E+10	1
4901784	114	C	08/18/2018	10:48	-132.053	43.056	0	267.60	0	6.8870	0	34.1130	8	26.739	0	265.304	0	126.4	4	42.7	4	-1E+10	1	-1E+10	1	-1E+10	1	-1E+10	1	-1E+10	1	-1E+10	1
4901784	114	C	08/18/2018	10:48	-132.053	43.056	0	270.20	0	6.8110	0	34.1130	8	26.749	0	267.880	0	125.1	4	42.2	4	-1E+10	1	-1E+10	1	-1E+10	1	-1E+10	1	-1E+10	1	-1E+10	1
4901784	114	C	08/18/2018	10:48	-132.053	43.056	0	272.80	0	6.7740	0	34.1110	8	26.753	0	270.455	0	124.1	4	41.8	4	-1E+10	1	-1E+10	1	-1E+10	1	-1E+10	1	-1E+10	1	-1E+10	1
4901784	114	C	08/18/2018	10:48	-132.053	43.056	0	274.60	0	6.7510	0	34.1110	8	26.756	0	272.239	0	123.5	4	41.6	4	-1E+10	1	-1E+10	1	-1E+10	1	-1E+10	1	-1E+10	1	-1E+10	1
4901784	114	C	08/18/2018	10:48	-132.053	43.056	0	277.20	0	6.7090	0	34.1100	8	26.761	0	274.815	0	122.7	4	41.3	4	-1E+10	1	-1E+10	1	-1E+10	1	-1E+10	1	-1E+10	1	-1E+10	1
4901784	114	C	08/18/2018	10:48	-132.053	43.056	0	279.90	0	6.6920	0	34.1090	8	26.762	0	277.490	0	122.0	4	41.0	4	-1E+10	1	-1E+10	1	-1E+10	1	-1E+10	1	-1E+10	1	-1E+10	1
4901784	114	C	08/18/2018	10:48	-132.053	43.056	0	282.50	0	6.6620	0	34.1090	8	26.766	0	280.066	0	121.1	4	40.7	4	-1E+10	1	-1E+10	1	-1E+10	1	-1E+10	1	-1E+10	1	-1E+10	1
4901784	114	C	08/18/2018	10:48	-132.053	43.056	0	285.00	0	6.6260	0	34.1110	8	26.773	0	282.542	0	120.1	4	40.3	4	-1E+10	1	-1E+10	1	-1E+10	1	-1E+10	1	-1E+10	1	-1E+10	1
4901784	114	C	08/18/2018	10:48	-132.053	43.056	0	287.70	0	6.5910	0	34.1090	8	26.776	0	285.217	0	119.4	4	40.0	4	-1E+10	1	-1E+10	1	-1E+10	1	-1E+10	1	-1E+10	1	-1E+10	1
4901784	114	C	08/18/2018	10:48	-132.053	43.056	0	290.30	0	6.5490	0	34.1120	8	26.784	0	287.793	0	118.5	4	39.7	4	-1E+10	1	-1E+10	1	-1E+10	1	-1E+10	1	-1E+10	1	-1E+10	1
4901784	114	C	08/18/2018	10:48	-132.053	43.056	0	292.00	0	6.5370	0	34.1120	8	26.785	0	289.477	0	117.9	4	39.5	4	-1E+10	1	-1E+10	1	-1E+10	1	-1E+10	1	-1E+10	1	-1E+10	1
4901784	114	C	08/18/2018	10:48	-132.053	43.056	0	294.60	0	6.5010	0	34.1120	8	26.790	0	292.053	0	116.5	4	39.0	4	-1E+10	1	-1E+10	1	-1E+10	1	-1E+10	1	-1E+10	1	-1E+10	1
4901784	114	C	08/18/2018	10:48	-132.053	43.056	0	297.40	0	6.4590	0	34.1090	8	26.793	0	294.827	0	115.4	4	38.6	4	-1E+10	1	-1E+10	1	-1E+10	1	-1E+10	1	-1E+10	1	-1E+10	1
4901784	114	C	08/18/2018	10:48	-132.053	43.056	0	300.10	0	6.4120	0	34.1090	8	26.799	0	297.501	0	114.6	4	38.3	4	-1E+10	1	-1E+10	1	-1E+10	1	-1E+10	1	-1E+10	1	-1E+10	1
4901784	114	C	08/18/2018	10:48	-132.053	43.056	0	302.80	0	6.3910	0	34.1090	8	26.802	0	300.176	0	113.9	4	38.0	4	-1E+10	1	-1E+10	1	-1E+10	1	-1E+10	1	-1E+10	1	-1E+10	1
4901784	114	C	08/18/2018	10:48	-132.053	43.056	0	304.60	0	6.3820	0	34.1080	8	26.803	0	301.959	0	113.6	4	37.9	4	-1E+10	1	-1E+10	1	-1E+10	1	-1E+10	1	-1E+10	1	-1E+10	1
4901784	114	C	08/18/2018	10:48	-132.053	43.056	0	307.30	0	6.3760	0	34.1070	8	26.803	0	304.634	0	112.7	4	37.6	4	-1E+10	1	-1E+10	1	-1E+10	1	-1E+10	1	-1E+10	1	-1E+10	1
4901784	114	C	08/18/2018	10:48	-132.053	43.056	0	310.00	0	6.3360	0	34.1060	8	26.807	0	307.308	0	111.6	4	37.2	4	-1E+10	1	-1E+10	1	-1E+10	1	-1E+10	1	-1E+10	1	-1E+10	1
4901784	114	C	08/18/2018	10:48	-132.053	43.056	0	312.70	0	6.2850	0	34.1070	8	26.814	0	309.983	0	110.7	4	36.9	4	-1E+10	1	-1E+10	1	-1E+10	1	-1E+10	1	-1E+10	1	-1E+10	1
4901784	114	C	08/18/2018	10:48	-132.053	43.056	0	315.30	0	6.2330	0	34.1070	8	26.821	0	312.558	0	110.1	4	36.6	4	-1E+10	1	-1E+10	1	-1E+10	1	-1E+10	1	-1E+10	1	-1E+10	1
4901784	114	C	08/18/2018	10:48	-132.053	43.056	0	317.10	0	6.2260	0	34.1070	8	26.822	0	314.341	0	109.9	4	36.5	4	-1E+10	1	-1E+10	1	-1E+10	1	-1E+10	1	-1E+10	1	-1E+10	1
4901784	114	C	08/18/2018	10:48	-132.053	43.056	0	319.90	0	6.2090	0	34.1060	8	26.823	0	317.115	0	109.2	4	36.3	4	-1E+10	1	-1E+10	1	-1E+10	1	-1E+10	1	-1E+10	1	-1E+10	1
4901784	114	C	08/18/2018	10:48	-132.053	43.056	0	322.60	0	6.1710	0	34.1060	8	26.828	0	319.789	0	108.7	4	36.1	4	-1E+10	1	-1E+10	1	-1E+10	1	-1E+10	1	-1E+10	1	-1E+10	1
4901784	114	C	08/18/2018	10:48	-132.053	43.056	0	325.30	0	6.1610	0	34.1060	8	26.830	0	322.463	0	108.2	4	35.9	4	-1E+10	1	-1E+10	1	-1E+10	1	-1E+10	1	-1E+10	1	-1E+10	1
4901784	114	C	08/18/2018	10:48	-132.053	43.056	0	328.10	0	6.1410	0	34.1050	8	26.831	0	325.237	0	107.6	4	35.7	4	-1E+10	1	-1E+10	1	-1E+10	1	-1E+10	1	-1E+10	1	-1E+10	1
4901784	114	C	08/18/2018	10:48	-132.053	43.056	0	330.00	0	6.1220	0	34.1040	8	26.833	0	327.119	0	107.1	4	35.5	4	-1E+10	1	-1E+10	1	-1E+10	1	-1E+10	1	-1E+10	1	-1E+10	1
4901784	114	C	08/18/2018	10:48	-132.053	43.056	0	332.80	0	6.0960	0	34.1030	8	26.836	0	329.892	0	106.3	4	35.3	4	-1E+10	1	-1E+10	1	-1E+10	1	-1E+10	1	-1E+10	1	-1E+10	1
4901784	114	C	08/18/2018	10:48	-132.053	43.056	0	335.60	0	6.0340	0	34.1040	8	26.844	0	332.665	0	105.5	4	34.9	4	-1E+10	1	-1E+10	1	-1E+10	1	-1E+10	1	-1E+10	1	-1E+10	1
4901784	114	C	08/18/2018	10:48	-132.053	43.056	0	337.50	0	6.0060	0	34.1040	8	26.848	0	334.547	0	104.8	4	34.7	4	-1E+10	1	-1E+10	1	-1E+10	1	-1E+10	1	-1E+10	1	-1E+10	1
4901784	114	C	08/18/2018	10:48	-132.053	43.056	0	340.30	0	5.9760	0	34.1030	8	26.851	0	337.320	0	103.7	4	34.3	4	-1E+10	1	-1E+10	1	-1E+10	1	-1E+10	1	-1E+10	1	-1E+10	1
4901784	114	C	08/18/2018	10:48	-132.053	43.056	0	343.20	0	5.9100	0	34.1030	8	26.859	0	340.193	0	102.7	4	33.9	4	-1E+10	1	-1E+10	1	-1E+10	1	-1E+10	1	-1E+10	1	-1E+10	1
4901784	114	C	08/18/2018	10:48	-132.053	43.056	0	345.10	0	5.9020	0	34.1020	8	26.859	0	342.074	0	102.2	4	33.7	4	-1E+10	1	-1E+10	1	-1E+10	1	-1E+10	1	-1E+10	1	-1E+10	1
4901784	114	C	08/18/2018	10:48	-132.053	43.056	0	347.00	0	5.8800	0	34.1040	8	26.863	0	343.956	0	101.8	4	33.6	4	-1E+10	1	-1E+10	1	-1E+10	1	-1E+10	1	-1E+10	1	-1E+10	1
4901784	114	C	08/18/2018	10:48	-132.053	43.056	0	349.90	0	5.8450	0	34.1030	8	26.867	0	346.828	0	100.7	4	33.2	4	-1E+10	1	-1E+10	1	-1E+10	1	-1E+10	1	-1E+10	1	-1E+10	1
4901784	114	C	08/18/2018	10:48	-132.053	43.056	0	352.70	0	5.8230	0	34.1020	8	26.869	0	349.601	0	99.4	4	32.8	4	-1E+10	1	-1E+10	1	-1E+10	1	-1E+10	1	-1E+10	1	-1E+10	1
4901784	114	C	08/18/2018	10:48	-132.053	43.056	0	354.70	0	5.7820	0	34.1010	8	26.873	0	351.582	0	98.7	4	32.5	4	-1E+10	1	-1E+10	1	-1E+10	1	-1E+10	1	-1E+10	1	-1E+10	1
4901784	114	C	08/18/2018	10:48	-132.053	43.056	0	357.50	0	5.7580	0	34.1000	8	26.875	0	354.355	0	97.3	4	32.0	4	-1E+10	1	-1E+10	1	-1E+10	1	-1E+10	1	-1E+10	1	-1E+10	1
4901784	114	C	08/18/2018	10:48	-132.053	43.056	0	360.40	0	5.7090	0	34.1010	8	26.882	0	357.227	0	95.9	4	31.5	4	-1E+10	1	-1E+10	1	-1E+10	1	-1E+10	1	-1E+10	1	-1E+10	1
4901784	114	C	08/18/2018	10:48	-132.053	43.056	0	362.30	0	5.6900	0	34.1010	8	26.885	0	359.109	0	94.8	4	31.1	4	-1E+10	1	-1E+10	1	-1E+10	1	-1E+10	1	-1E+10	1	-1E+10	1
4901784	114	C	08/18/2018	10:48	-132.053	43.056	0	365.20	0	5.6560	0	34.1020	8	26.890	0	361.981	0	93.5	4	30.7	4	-1E+10	1	-1E+10	1	-1E+10	1	-1E+10	1	-1E+10	1	-1E+10	1
4901784	114	C	08/18/2018	10:48	-132.053	43.056	0	368.10	0	5.6160	0	34.1010	8	26.894	0	364.853	0	92.0	4	30.2	4	-1E+10	1	-1E+10	1	-1E+10	1	-1E+10	1	-1E+10	1	-1E+10	1
4901784	114	C	08/18/2018	10:48	-132.053	43.056	0	370.00	0	5.5860	0	34.1020	8	26.898	0	366.734	0	91.1	4	29.8	4	-1E+10	1	-1E+10	1	-1E+10	1	-1E+10	1	-1E+10	1	-1E+10	1
4901784	114	C	08/18/2018	10:48	-132.053	43.056	0	371.90	0	5.5440	0	34.1030	8	26.904	0	368.616	0	90.3	4	29.6	4	-1E+10	1	-1E+10	1	-1E+10	1	-1E+10	1	-1E+10	1	-1E+10	1
4901784	114	C	08/18/2018	10:48	-132.053	43.056	0	374.80	0	5.5120	0	34.1040	8	26.909	0	371.487	0	89.0	4	29.1	4	-1E+10	1	-1E+10	1	-1E+10	1	-1E+10	1	-1E+10	1	-1E+10	1
4901784	114	C	08/18/2018	10:48	-132.053	43.056	0	377.60	0	5.4890	0	34.1050	8	26.912	0	374.260	0	87.7	4	28.7	4	-1E+10	1	-1E+10	1	-1E+10	1	-1E+10	1	-1E+10	1	-1E+10	1
4901784	114	C	08/18/2018	10:48	-132.053	43.056	0	379.50	0	5.4830	0	34.1070	8	26.914	0	376.142	0	86.8	4	28.4	4	-1E+10	1	-1E+10	1	-1E+10	1	-1E+10	1	-1E+10	1	-1E+10	1
4901784	114	C	08/18/2018	10:48	-132.053	43.056	0	382.40	0	5.4560	0	34.1090	8	26.919	0	379.013	0	85.6	4	28.0	4	-1E+10	1	-1E+10	1	-1E+10	1	-1E+10	1	-1E+10	1	-1E+10	1
4901784	114	C	08/18/2018	10:48	-132.053	43.056	0	385.30	0	5.4400	0	34.1100	8	26.922	0	381.885	0	84.6	4	27.6	4	-1E+10	1	-1E+10	1	-1E+10	1	-1E+10	1	-1E+10	1	-1E+10	1
4901784	114	C	08/18/2018	10:48	-132.053	43.056	0	387.30	0	5.4320	0	34.1090	8	26.922	0	383.865	0	83.8	4	27.4	4	-1E+10	1	-1E+10	1	-1E+10	1	-1E+10	1	-1E+10	1	-1E+10	1
4901784	114	C	08/18/2018	10:48	-132.053	43.056	0	389.70	0	5.4160	0	34.1110	8	26.926	0	386.242	0	82.7	4	27.0	4	-1E+10	1	-1E+10	1	-1E+10	1	-1E+10	1	-1E+10	1	-1E+10	1
4901784	114	C	08/18/2018	10:48	-132.053	43.056	0	392.50	0	5.3330	0	34.1130	8	26.937	0	389.014	0	81.8	4	26.6	4	-1E+10	1	-1E+10	1	-1E+10	1	-1E+10	1	-1E+10	1	-1E+10	1
4901784	114	C	08/18/2018	10:48	-132.053	43.056	0	394.90	0	5.3060	0	34.1130	8	26.940	0	391.391	0	81.1	4	26.4	4	-1E+10	1	-1E+10	1	-1E+10	1	-1E+10	1	-1E+10	1	-1E+10	1
4901784	114	C	08/18/2018	10:48	-132.053	43.056	0	397.40	0	5.2910	0	34.1140	8	26.943	0	393.866	0	80.3	4	26.1	4	-1E+10	1	-1E+10	1	-1E+10	1	-1E+10	1	-1E+10	1	-1E+10	1
4901784	114	C	08/18/2018	10:48	-132.053	43.056	0	399.80	0	5.2760	0	34.1150	8	26.945	0	396.243	0	79.5	4	25.9	4	-1E+10	1	-1E+10	1	-1E+10	1	-1E+10	1	-1E+10	1	-1E+10	1
4901784	114	C	08/18/2018	10:48	-132.053	43.056	0	402.20	0	5.2570	0	34.1170	8	26.949	0	398.619	0	78.8	4	25.6	4	-1E+10	1	-1E+10	1	-1E+10	1	-1E+10	1	-1E+10	1	-1E+10	1
4901784	114	C	08/18/2018	10:48	-132.053	43.056	0	404.60	0	5.2430	0	34.1180	8	26.952	0	400.995	0	78.2	4	25.4	4	-1E+10	1	-1E+10	1	-1E+10	1	-1E+10	1	-1E+10	1	-1E+10	1
4901784	114	C	08/18/2018	10:48	-132.053	43.056	0	407.10	0	5.2390	0	34.1180	8	26.952	0	403.471	0	77.5	4	25.2	4	-1E+10	1	-1E+10	1	-1E+10	1	-1E+10	1	-1E+10	1	-1E+10	1
4901784	114	C	08/18/2018	10:48	-132.053	43.056	0	410.30	0	5.2180	0	34.1190	8	26.956	0	406.639	0	76.2	4	24.8	4	-1E+10	1	-1E+10	1	-1E+10	1	-1E+10	1	-1E+10	1	-1E+10	1
4901784	114	C	08/18/2018	10:48	-132.053	43.056	0	412.80	0	5.1960	0	34.1220	8	26.960	0	409.114	0	75.5	4	24.5	4	-1E+10	1	-1E+10	1	-1E+10	1	-1E+10	1	-1E+10	1	-1E+10	1
4901784	114	C	08/18/2018	10:48	-132.053	43.056	0	415.20	0	5.1920	0	34.1220	8	26.961	0	411.490	0	74.5	4	24.2	4	-1E+10	1	-1E+10	1	-1E+10	1	-1E+10	1	-1E+10	1	-1E+10	1
4901784	114	C	08/18/2018	10:48	-132.053	43.056	0	417.70	0	5.1690	0	34.1260	8	26.967	0	413.966	0	73.3	4	23.8	4	-1E+10	1	-1E+10	1	-1E+10	1	-1E+10	1	-1E+10	1	-1E+10	1
4901784	114	C	08/18/2018	10:48	-132.053	43.056	0	420.30	0	5.1550	0	34.1280	8	26.970	0	416.540	0	72.5	4	23.5	4	-1E+10	1	-1E+10	1	-1E+10	1	-1E+10	1	-1E+10	1	-1E+10	1
4901784	114	C	08/18/2018	10:48	-132.053	43.056	0	422.80	0	5.1420	0	34.1290	8	26.972	0	419.015	0	71.8	4	23.3	4	-1E+10	1	-1E+10	1	-1E+10	1	-1E+10	1	-1E+10	1	-1E+10	1
4901784	114	C	08/18/2018	10:48	-132.053	43.056	0	425.30	0	5.1290	0	34.1310	8	26.975	0	421.490	0	71.0	4	23.0	4	-1E+10	1	-1E+10	1	-1E+10	1	-1E+10	1	-1E+10	1	-1E+10	1
4901784	114	C	08/18/2018	10:48	-132.053	43.056	0	427.80	0	5.1110	0	34.1330	8	26.979	0	423.965	0	70.0	4	22.7	4	-1E+10	1	-1E+10	1	-1E+10	1	-1E+10	1	-1E+10	1	-1E+10	1
4901784	114	C	08/18/2018	10:48	-132.053	43.056	0	430.30	0	5.0900	0	34.1360	8	26.984	0	426.440	0	69.1	4	22.4	4	-1E+10	1	-1E+10	1	-1E+10	1	-1E+10	1	-1E+10	1	-1E+10	1
4901784	114	C	08/18/2018	10:48	-132.053	43.056	0	432.80	0	5.0660	0	34.1400	8	26.990	0	428.915	0	68.4	4	22.1	4	-1E+10	1	-1E+10	1	-1E+10	1	-1E+10	1	-1E+10	1	-1E+10	1
4901784	114	C	08/18/2018	10:48	-132.053	43.056	0	435.30	0	5.0600	0	34.1400	8	26.991	0	431.390	0	67.8	4	22.0	4	-1E+10	1	-1E+10	1	-1E+10	1	-1E+10	1	-1E+10	1	-1E+10	1
4901784	114	C	08/18/2018	10:48	-132.053	43.056	0	437.80	0	5.0580	0	34.1400	8	26.991	0	433.865	0	67.1	4	21.7	4	-1E+10	1	-1E+10	1	-1E+10	1	-1E+10	1	-1E+10	1	-1E+10	1
4901784	114	C	08/18/2018	10:48	-132.053	43.056	0	440.40	0	5.0440	0	34.1440	8	26.996	0	436.439	0	66.0	4	21.4	4	-1E+10	1	-1E+10	1	-1E+10	1	-1E+10	1	-1E+10	1	-1E+10	1
4901784	114	C	08/18/2018	10:48	-132.053	43.056	0	442.90	0	5.0240	0	34.1490	8	27.002	0	438.914	0	65.0	4	21.0	4	-1E+10	1	-1E+10	1	-1E+10	1	-1E+10	1	-1E+10	1	-1E+10	1
4901784	114	C	08/18/2018	10:48	-132.053	43.056	0	444.60	0	5.0160	0	34.1510	8	27.004	0	440.596	0	64.6	4	20.9	4	-1E+10	1	-1E+10	1	-1E+10	1	-1E+10	1	-1E+10	1	-1E+10	1
4901784	114	C	08/18/2018	10:48	-132.053	43.056	0	447.10	0	5.0020	0	34.1540	8	27.008	0	443.071	0	64.1	4	20.7	4	-1E+10	1	-1E+10	1	-1E+10	1	-1E+10	1	-1E+10	1	-1E+10	1
4901784	114	C	08/18/2018	10:48	-132.053	43.056	0	450.40	0	4.9930	0	34.1560	8	27.011	0	446.338	0	63.6	4	20.6	4	-1E+10	1	-1E+10	1	-1E+10	1	-1E+10	1	-1E+10	1	-1E+10	1
4901784	114	C	08/18/2018	10:48	-132.053	43.056	0	452.90	0	4.9800	0	34.1590	8	27.015	0	448.813	0	63.3	4	20.5	4	-1E+10	1	-1E+10	1	-1E+10	1	-1E+10	1	-1E+10	1	-1E+10	1
4901784	114	C	08/18/2018	10:48	-132.053	43.056	0	454.60	0	4.9740	0	34.1600	8	27.016	0	450.496	0	63.2	4	20.4	4	-1E+10	1	-1E+10	1	-1E+10	1	-1E+10	1	-1E+10	1	-1E+10	1
4901784	114	C	08/18/2018	10:48	-132.053	43.056	0	457.10	0	4.9700	0	34.1600	8	27.017	0	452.970	0	63.0	4	20.4	4	-1E+10	1	-1E+10	1	-1E+10	1	-1E+10	1	-1E+10	1	-1E+10	1
4901784	114	C	08/18/2018	10:48	-132.053	43.056	0	459.60	0	4.9700	0	34.1600	8	27.017	0	455.445	0	62.8	4	20.3	4	-1E+10	1	-1E+10	1	-1E+10	1	-1E+10	1	-1E+10	1	-1E+10	1
4901784	114	C	08/18/2018	10:48	-132.053	43.056	0	462.10	0	4.9690	0	34.1600	8	27.017	0	457.920	0	62.5	4	20.2	4	-1E+10	1	-1E+10	1	-1E+10	1	-1E+10	1	-1E+10	1	-1E+10	1
4901784	114	C	08/18/2018	10:48	-132.053	43.056	0	464.70	0	4.9630	0	34.1600	8	27.018	0	460.493	0	62.1	4	20.1	4	-1E+10	1	-1E+10	1	-1E+10	1	-1E+10	1	-1E+10	1	-1E+10	1
4901784	114	C	08/18/2018	10:48	-132.053	43.056	0	467.20	0	4.9360	0	34.1650	8	27.025	0	462.968	0	61.9	4	20.0	4	-1E+10	1	-1E+10	1	-1E+10	1	-1E+10	1	-1E+10	1	-1E+10	1
4901784	114	C	08/18/2018	10:48	-132.053	43.056	0	469.70	0	4.9240	0	34.1650	8	27.026	0	465.442	0	61.5	4	19.9	4	-1E+10	1	-1E+10	1	-1E+10	1	-1E+10	1	-1E+10	1	-1E+10	1
4901784	114	C	08/18/2018	10:48	-132.053	43.056	0	472.20	0	4.9110	0	34.1660	8	27.029	0	467.917	0	61.2	4	19.7	4	-1E+10	1	-1E+10	1	-1E+10	1	-1E+10	1	-1E+10	1	-1E+10	1
4901784	114	C	08/18/2018	10:48	-132.053	43.056	0	474.80	0	4.8960	0	34.1670	8	27.031	0	470.490	0	60.6	4	19.6	4	-1E+10	1	-1E+10	1	-1E+10	1	-1E+10	1	-1E+10	1	-1E+10	1
4901784	114	C	08/18/2018	10:48	-132.053	43.056	0	477.30	0	4.8710	0	34.1680	8	27.035	0	472.965	0	59.8	4	19.3	4	-1E+10	1	-1E+10	1	-1E+10	1	-1E+10	1	-1E+10	1	-1E+10	1
4901784	114	C	08/18/2018	10:48	-132.053	43.056	0	479.80	0	4.8430	0	34.1690	8	27.039	0	475.439	0	58.5	4	18.8	4	-1E+10	1	-1E+10	1	-1E+10	1	-1E+10	1	-1E+10	1	-1E+10	1
4901784	114	C	08/18/2018	10:48	-132.053	43.056	0	482.40	0	4.8150	0	34.1720	8	27.044	0	478.013	0	56.9	4	18.3	4	-1E+10	1	-1E+10	1	-1E+10	1	-1E+10	1	-1E+10	1	-1E+10	1
4901784	114	C	08/18/2018	10:48	-132.053	43.056	0	485.00	0	4.7830	0	34.1760	8	27.051	0	480.586	0	55.6	4	17.9	4	-1E+10	1	-1E+10	1	-1E+10	1	-1E+10	1	-1E+10	1	-1E+10	1
4901784	114	C	08/18/2018	10:48	-132.053	43.056	0	487.60	0	4.7670	0	34.1770	8	27.053	0	483.159	0	54.8	4	17.6	4	-1E+10	1	-1E+10	1	-1E+10	1	-1E+10	1	-1E+10	1	-1E+10	1
4901784	114	C	08/18/2018	10:48	-132.053	43.056	0	490.20	0	4.7530	0	34.1770	8	27.055	0	485.733	0	53.9	4	17.3	4	-1E+10	1	-1E+10	1	-1E+10	1	-1E+10	1	-1E+10	1	-1E+10	1
4901784	114	C	08/18/2018	10:48	-132.053	43.056	0	492.80	0	4.7250	0	34.1800	8	27.061	0	488.306	0	52.9	4	17.0	4	-1E+10	1	-1E+10	1	-1E+10	1	-1E+10	1	-1E+10	1	-1E+10	1
4901784	114	C	08/18/2018	10:48	-132.053	43.056	0	495.40	0	4.6860	0	34.1850	8	27.069	0	490.879	0	52.0	4	16.7	4	-1E+10	1	-1E+10	1	-1E+10	1	-1E+10	1	-1E+10	1	-1E+10	1
4901784	114	C	08/18/2018	10:48	-132.053	43.056	0	497.20	0	4.6730	0	34.1860	8	27.071	0	492.660	0	51.6	4	16.5	4	-1E+10	1	-1E+10	1	-1E+10	1	-1E+10	1	-1E+10	1	-1E+10	1
4901784	114	C	08/18/2018	10:48	-132.053	43.056	0	499.80	0	4.6630	0	34.1880	8	27.074	0	495.234	0	50.8	4	16.3	4	-1E+10	1	-1E+10	1	-1E+10	1	-1E+10	1	-1E+10	1	-1E+10	1
4901784	114	C	08/18/2018	10:48	-132.053	43.056	0	505.10	0	4.6550	0	34.1940	8	27.079	0	500.479	0	49.0	4	15.7	4	-1E+10	1	-1E+10	1	-1E+10	1	-1E+10	1	-1E+10	1	-1E+10	1
4901784	114	C	08/18/2018	10:48	-132.053	43.056	0	509.40	0	4.6250	0	34.1980	8	27.086	0	504.734	0	47.1	4	15.1	4	-1E+10	1	-1E+10	1	-1E+10	1	-1E+10	1	-1E+10	1	-1E+10	1
4901784	114	C	08/18/2018	10:48	-132.053	43.056	0	514.60	0	4.6020	0	34.2080	8	27.096	0	509.880	0	45.0	4	14.4	4	-1E+10	1	-1E+10	1	-1E+10	1	-1E+10	1	-1E+10	1	-1E+10	1
4901784	114	C	08/18/2018	10:48	-132.053	43.056	0	520.00	0	4.5960	0	34.2160	8	27.104	0	515.224	0	43.7	4	14.0	4	-1E+10	1	-1E+10	1	-1E+10	1	-1E+10	1	-1E+10	1	-1E+10	1
4901784	114	C	08/18/2018	10:48	-132.053	43.056	0	525.30	0	4.5840	0	34.2190	8	27.107	0	520.469	0	42.7	4	13.7	4	-1E+10	1	-1E+10	1	-1E+10	1	-1E+10	1	-1E+10	1	-1E+10	1
4901784	114	C	08/18/2018	10:48	-132.053	43.056	0	529.80	0	4.5710	0	34.2210	8	27.110	0	524.922	0	41.7	4	13.4	4	-1E+10	1	-1E+10	1	-1E+10	1	-1E+10	1	-1E+10	1	-1E+10	1
4901784	114	C	08/18/2018	10:48	-132.053	43.056	0	534.30	0	4.5470	0	34.2240	8	27.115	0	529.374	0	40.7	4	13.0	4	-1E+10	1	-1E+10	1	-1E+10	1	-1E+10	1	-1E+10	1	-1E+10	1
4901784	114	C	08/18/2018	10:48	-132.053	43.056	0	539.80	0	4.5260	0	34.2280	8	27.121	0	534.817	0	39.3	4	12.6	4	-1E+10	1	-1E+10	1	-1E+10	1	-1E+10	1	-1E+10	1	-1E+10	1
4901784	114	C	08/18/2018	10:48	-132.053	43.056	0	545.20	0	4.5100	0	34.2330	8	27.127	0	540.160	0	37.9	4	12.1	4	-1E+10	1	-1E+10	1	-1E+10	1	-1E+10	1	-1E+10	1	-1E+10	1
4901784	114	C	08/18/2018	10:48	-132.053	43.056	0	549.80	0	4.5050	0	34.2370	8	27.130	0	544.711	0	36.7	4	11.7	4	-1E+10	1	-1E+10	1	-1E+10	1	-1E+10	1	-1E+10	1	-1E+10	1
4901784	114	C	08/18/2018	10:48	-132.053	43.056	0	554.30	0	4.4960	0	34.2430	8	27.136	0	549.164	0	35.4	4	11.3	4	-1E+10	1	-1E+10	1	-1E+10	1	-1E+10	1	-1E+10	1	-1E+10	1
4901784	114	C	08/18/2018	10:48	-132.053	43.056	0	559.80	0	4.4720	0	34.2500	8	27.144	0	554.605	0	34.0	4	10.9	4	-1E+10	1	-1E+10	1	-1E+10	1	-1E+10	1	-1E+10	1	-1E+10	1
4901784	114	C	08/18/2018	10:48	-132.053	43.056	0	565.40	0	4.4390	0	34.2550	8	27.152	0	560.146	0	32.6	4	10.4	4	-1E+10	1	-1E+10	1	-1E+10	1	-1E+10	1	-1E+10	1	-1E+10	1
4901784	114	C	08/18/2018	10:48	-132.053	43.056	0	570.00	0	4.4200	0	34.2610	8	27.159	0	564.697	0	31.5	4	10.0	4	-1E+10	1	-1E+10	1	-1E+10	1	-1E+10	1	-1E+10	1	-1E+10	1
4901784	114	C	08/18/2018	10:48	-132.053	43.056	0	574.80	0	4.4020	0	34.2670	8	27.165	0	569.446	0	30.5	4	9.7	4	-1E+10	1	-1E+10	1	-1E+10	1	-1E+10	1	-1E+10	1	-1E+10	1
4901784	114	C	08/18/2018	10:48	-132.053	43.056	0	580.40	0	4.3950	0	34.2720	8	27.170	0	574.986	0	29.3	4	9.4	4	-1E+10	1	-1E+10	1	-1E+10	1	-1E+10	1	-1E+10	1	-1E+10	1
4901784	114	C	08/18/2018	10:48	-132.053	43.056	0	585.10	0	4.3950	0	34.2790	8	27.176	0	579.635	0	28.2	4	9.0	4	-1E+10	1	-1E+10	1	-1E+10	1	-1E+10	1	-1E+10	1	-1E+10	1
4901784	114	C	08/18/2018	10:48	-132.053	43.056	0	589.80	0	4.3890	0	34.2840	8	27.180	0	584.285	0	27.4	4	8.7	4	-1E+10	1	-1E+10	1	-1E+10	1	-1E+10	1	-1E+10	1	-1E+10	1
4901784	114	C	08/18/2018	10:48	-132.053	43.056	0	595.40	0	4.3700	0	34.2890	8	27.187	0	589.825	0	26.6	4	8.5	4	-1E+10	1	-1E+10	1	-1E+10	1	-1E+10	1	-1E+10	1	-1E+10	1
4901784	114	C	08/18/2018	10:48	-132.053	43.056	0	600.40	0	4.3600	0	34.2920	8	27.190	0	594.771	0	26.0	4	8.3	4	-1E+10	1	-1E+10	1	-1E+10	1	-1E+10	1	-1E+10	1	-1E+10	1
4901784	114	C	08/18/2018	10:48	-132.053	43.056	0	604.90	0	4.3430	0	34.2970	8	27.196	0	599.222	0	25.4	4	8.1	4	-1E+10	1	-1E+10	1	-1E+10	1	-1E+10	1	-1E+10	1	-1E+10	1
4901784	114	C	08/18/2018	10:48	-132.053	43.056	0	609.90	0	4.3150	0	34.3010	8	27.202	0	604.168	0	24.9	4	7.9	4	-1E+10	1	-1E+10	1	-1E+10	1	-1E+10	1	-1E+10	1	-1E+10	1
4901784	114	C	08/18/2018	10:48	-132.053	43.056	0	614.80	0	4.2950	0	34.3030	8	27.206	0	609.015	0	24.6	4	7.8	4	-1E+10	1	-1E+10	1	-1E+10	1	-1E+10	1	-1E+10	1	-1E+10	1
4901784	114	C	08/18/2018	10:48	-132.053	43.056	0	619.70	0	4.2860	0	34.3070	8	27.210	0	613.861	0	23.9	4	7.6	4	-1E+10	1	-1E+10	1	-1E+10	1	-1E+10	1	-1E+10	1	-1E+10	1
4901784	114	C	08/18/2018	10:48	-132.053	43.056	0	624.70	0	4.2760	0	34.3100	8	27.213	0	618.807	0	23.1	4	7.4	4	-1E+10	1	-1E+10	1	-1E+10	1	-1E+10	1	-1E+10	1	-1E+10	1
4901784	114	C	08/18/2018	10:48	-132.053	43.056	0	629.70	0	4.2630	0	34.3180	8	27.221	0	623.752	0	22.0	4	7.0	4	-1E+10	1	-1E+10	1	-1E+10	1	-1E+10	1	-1E+10	1	-1E+10	1
4901784	114	C	08/18/2018	10:48	-132.053	43.056	0	634.90	0	4.2480	0	34.3250	8	27.228	0	628.895	0	21.6	4	6.9	4	-1E+10	1	-1E+10	1	-1E+10	1	-1E+10	1	-1E+10	1	-1E+10	1
4901784	114	C	08/18/2018	10:48	-132.053	43.056	0	640.20	0	4.2410	0	34.3270	8	27.231	0	634.137	0	21.2	4	6.7	4	-1E+10	1	-1E+10	1	-1E+10	1	-1E+10	1	-1E+10	1	-1E+10	1
4901784	114	C	08/18/2018	10:48	-132.053	43.056	0	645.40	0	4.2370	0	34.3280	8	27.232	0	639.280	0	20.6	4	6.5	4	-1E+10	1	-1E+10	1	-1E+10	1	-1E+10	1	-1E+10	1	-1E+10	1
4901784	114	C	08/18/2018	10:48	-132.053	43.056	0	649.90	0	4.2290	0	34.3340	8	27.238	0	643.730	0	19.7	4	6.3	4	-1E+10	1	-1E+10	1	-1E+10	1	-1E+10	1	-1E+10	1	-1E+10	1
4901784	114	C	08/18/2018	10:48	-132.053	43.056	0	654.30	0	4.2630	0	34.3410	8	27.240	0	648.081	0	18.7	4	6.0	4	-1E+10	1	-1E+10	1	-1E+10	1	-1E+10	1	-1E+10	1	-1E+10	1
4901784	114	C	08/18/2018	10:48	-132.053	43.056	0	659.80	0	4.2580	0	34.3510	8	27.248	0	653.521	0	18.0	4	5.7	4	-1E+10	1	-1E+10	1	-1E+10	1	-1E+10	1	-1E+10	1	-1E+10	1
4901784	114	C	08/18/2018	10:48	-132.053	43.056	0	665.20	0	4.2330	0	34.3550	8	27.254	0	658.861	0	17.9	4	5.7	4	-1E+10	1	-1E+10	1	-1E+10	1	-1E+10	1	-1E+10	1	-1E+10	1
4901784	114	C	08/18/2018	10:48	-132.053	43.056	0	670.70	0	4.1890	0	34.3550	8	27.259	0	664.300	0	17.7	4	5.6	4	-1E+10	1	-1E+10	1	-1E+10	1	-1E+10	1	-1E+10	1	-1E+10	1
4901784	114	C	08/18/2018	10:48	-132.053	43.056	0	675.20	0	4.1990	0	34.3610	8	27.262	0	668.749	0	16.9	4	5.4	4	-1E+10	1	-1E+10	1	-1E+10	1	-1E+10	1	-1E+10	1	-1E+10	1
4901784	114	C	08/18/2018	10:48	-132.053	43.056	0	679.70	0	4.1940	0	34.3660	8	27.267	0	673.199	0	16.6	4	5.3	4	-1E+10	1	-1E+10	1	-1E+10	1	-1E+10	1	-1E+10	1	-1E+10	1
4901784	114	C	08/18/2018	10:48	-132.053	43.056	0	685.20	0	4.1420	0	34.3700	8	27.276	0	678.638	0	16.3	4	5.2	4	-1E+10	1	-1E+10	1	-1E+10	1	-1E+10	1	-1E+10	1	-1E+10	1
4901784	114	C	08/18/2018	10:48	-132.053	43.056	0	689.80	0	4.1310	0	34.3750	8	27.281	0	683.186	0	16.0	4	5.1	4	-1E+10	1	-1E+10	1	-1E+10	1	-1E+10	1	-1E+10	1	-1E+10	1
4901784	114	C	08/18/2018	10:48	-132.053	43.056	0	694.40	0	4.1110	0	34.3790	8	27.286	0	687.734	0	15.6	4	4.9	4	-1E+10	1	-1E+10	1	-1E+10	1	-1E+10	1	-1E+10	1	-1E+10	1
4901784	114	C	08/18/2018	10:48	-132.053	43.056	0	700.00	0	4.0820	0	34.3870	8	27.295	0	693.271	0	15.1	4	4.8	4	-1E+10	1	-1E+10	1	-1E+10	1	-1E+10	1	-1E+10	1	-1E+10	1
4901784	114	C	08/18/2018	10:48	-132.053	43.056	0	704.80	0	4.0690	0	34.3950	8	27.303	0	698.017	0	14.9	4	4.7	4	-1E+10	1	-1E+10	1	-1E+10	1	-1E+10	1	-1E+10	1	-1E+10	1
4901784	114	C	08/18/2018	10:48	-132.053	43.056	0	709.40	0	4.0330	0	34.3950	8	27.307	0	702.565	0	14.7	4	4.7	4	-1E+10	1	-1E+10	1	-1E+10	1	-1E+10	1	-1E+10	1	-1E+10	1
4901784	114	C	08/18/2018	10:48	-132.053	43.056	0	715.00	0	4.0250	0	34.4000	8	27.312	0	708.102	0	14.4	4	4.5	4	-1E+10	1	-1E+10	1	-1E+10	1	-1E+10	1	-1E+10	1	-1E+10	1
4901784	114	C	08/18/2018	10:48	-132.053	43.056	0	719.70	0	3.9980	0	34.4040	8	27.318	0	712.748	0	14.0	4	4.4	4	-1E+10	1	-1E+10	1	-1E+10	1	-1E+10	1	-1E+10	1	-1E+10	1
4901784	114	C	08/18/2018	10:48	-132.053	43.056	0	724.50	0	3.9900	0	34.4120	8	27.325	0	717.494	0	13.6	4	4.3	4	-1E+10	1	-1E+10	1	-1E+10	1	-1E+10	1	-1E+10	1	-1E+10	1
4901784	114	C	08/18/2018	10:48	-132.053	43.056	0	730.30	0	3.9710	0	34.4180	8	27.332	0	723.227	0	13.3	4	4.2	4	-1E+10	1	-1E+10	1	-1E+10	1	-1E+10	1	-1E+10	1	-1E+10	1
4901784	114	C	08/18/2018	10:48	-132.053	43.056	0	735.70	0	3.9530	0	34.4210	8	27.336	0	728.566	0	13.2	4	4.2	4	-1E+10	1	-1E+10	1	-1E+10	1	-1E+10	1	-1E+10	1	-1E+10	1
4901784	114	C	08/18/2018	10:48	-132.053	43.056	0	740.50	0	3.9390	0	34.4250	8	27.341	0	733.311	0	13.0	4	4.1	4	-1E+10	1	-1E+10	1	-1E+10	1	-1E+10	1	-1E+10	1	-1E+10	1
4901784	114	C	08/18/2018	10:48	-132.053	43.056	0	745.40	0	3.9280	0	34.4290	8	27.345	0	738.154	0	12.8	4	4.0	4	-1E+10	1	-1E+10	1	-1E+10	1	-1E+10	1	-1E+10	1	-1E+10	1
4901784	114	C	08/18/2018	10:48	-132.053	43.056	0	750.40	0	3.9170	0	34.4330	8	27.349	0	743.097	0	12.6	4	4.0	4	-1E+10	1	-1E+10	1	-1E+10	1	-1E+10	1	-1E+10	1	-1E+10	1
4901784	114	C	08/18/2018	10:48	-132.053	43.056	0	755.40	0	3.8920	0	34.4370	8	27.355	0	748.039	0	12.5	4	3.9	4	-1E+10	1	-1E+10	1	-1E+10	1	-1E+10	1	-1E+10	1	-1E+10	1
4901784	114	C	08/18/2018	10:48	-132.053	43.056	0	760.50	0	3.8800	0	34.4400	8	27.359	0	753.080	0	12.3	4	3.9	4	-1E+10	1	-1E+10	1	-1E+10	1	-1E+10	1	-1E+10	1	-1E+10	1
4901784	114	C	08/18/2018	10:48	-132.053	43.056	0	765.60	0	3.8810	0	34.4450	8	27.363	0	758.121	0	12.2	4	3.8	4	-1E+10	1	-1E+10	1	-1E+10	1	-1E+10	1	-1E+10	1	-1E+10	1
4901784	114	C	08/18/2018	10:48	-132.053	43.056	0	770.00	0	3.8730	0	34.4460	8	27.364	0	762.470	0	12.2	4	3.8	4	-1E+10	1	-1E+10	1	-1E+10	1	-1E+10	1	-1E+10	1	-1E+10	1
4901784	114	C	08/18/2018	10:48	-132.053	43.056	0	774.30	0	3.8550	0	34.4460	8	27.366	0	766.720	0	12.1	4	3.8	4	-1E+10	1	-1E+10	1	-1E+10	1	-1E+10	1	-1E+10	1	-1E+10	1
4901784	114	C	08/18/2018	10:48	-132.053	43.056	0	779.50	0	3.8380	0	34.4490	8	27.370	0	771.860	0	12.0	4	3.8	4	-1E+10	1	-1E+10	1	-1E+10	1	-1E+10	1	-1E+10	1	-1E+10	1
4901784	114	C	08/18/2018	10:48	-132.053	43.056	0	784.70	0	3.8060	0	34.4550	8	27.378	0	776.999	0	11.9	4	3.7	4	-1E+10	1	-1E+10	1	-1E+10	1	-1E+10	1	-1E+10	1	-1E+10	1
4901784	114	C	08/18/2018	10:48	-132.053	43.056	0	790.10	0	3.7920	0	34.4570	8	27.381	0	782.336	0	11.8	4	3.7	4	-1E+10	1	-1E+10	1	-1E+10	1	-1E+10	1	-1E+10	1	-1E+10	1
4901784	114	C	08/18/2018	10:48	-132.053	43.056	0	795.30	0	3.7800	0	34.4600	8	27.385	0	787.475	0	11.7	4	3.7	4	-1E+10	1	-1E+10	1	-1E+10	1	-1E+10	1	-1E+10	1	-1E+10	1
4901784	114	C	08/18/2018	10:48	-132.053	43.056	0	800.60	0	3.7800	0	34.4640	8	27.388	0	792.713	0	11.5	4	3.6	4	-1E+10	1	-1E+10	1	-1E+10	1	-1E+10	1	-1E+10	1	-1E+10	1
4901784	114	C	08/18/2018	10:48	-132.053	43.056	0	804.90	0	3.7700	0	34.4680	8	27.392	0	796.963	0	11.4	4	3.6	4	-1E+10	1	-1E+10	1	-1E+10	1	-1E+10	1	-1E+10	1	-1E+10	1
4901784	114	C	08/18/2018	10:48	-132.053	43.056	0	809.30	0	3.7570	0	34.4700	8	27.395	0	801.311	0	11.3	4	3.6	4	-1E+10	1	-1E+10	1	-1E+10	1	-1E+10	1	-1E+10	1	-1E+10	1
4901784	114	C	08/18/2018	10:48	-132.053	43.056	0	814.70	0	3.7480	0	34.4740	8	27.399	0	806.647	0	11.2	4	3.5	4	-1E+10	1	-1E+10	1	-1E+10	1	-1E+10	1	-1E+10	1	-1E+10	1
4901784	114	C	08/18/2018	10:48	-132.053	43.056	0	820.10	0	3.7380	0	34.4790	8	27.404	0	811.983	0	11.1	4	3.5	4	-1E+10	1	-1E+10	1	-1E+10	1	-1E+10	1	-1E+10	1	-1E+10	1
4901784	114	C	08/18/2018	10:48	-132.053	43.056	0	825.40	0	3.7190	0	34.4830	8	27.410	0	817.220	0	11.0	4	3.4	4	-1E+10	1	-1E+10	1	-1E+10	1	-1E+10	1	-1E+10	1	-1E+10	1
4901784	114	C	08/18/2018	10:48	-132.053	43.056	0	829.90	0	3.7090	0	34.4860	8	27.413	0	821.667	0	10.9	4	3.4	4	-1E+10	1	-1E+10	1	-1E+10	1	-1E+10	1	-1E+10	1	-1E+10	1
4901784	114	C	08/18/2018	10:48	-132.053	43.056	0	834.40	0	3.7030	0	34.4870	8	27.414	0	826.113	0	10.9	4	3.4	4	-1E+10	1	-1E+10	1	-1E+10	1	-1E+10	1	-1E+10	1	-1E+10	1
4901784	114	C	08/18/2018	10:48	-132.053	43.056	0	840.00	0	3.6880	0	34.4900	8	27.418	0	831.647	0	10.8	4	3.4	4	-1E+10	1	-1E+10	1	-1E+10	1	-1E+10	1	-1E+10	1	-1E+10	1
4901784	114	C	08/18/2018	10:48	-132.053	43.056	0	845.40	0	3.6760	0	34.4940	8	27.423	0	836.982	0	10.8	4	3.4	4	-1E+10	1	-1E+10	1	-1E+10	1	-1E+10	1	-1E+10	1	-1E+10	1
4901784	114	C	08/18/2018	10:48	-132.053	43.056	0	850.10	0	3.6700	0	34.4970	8	27.426	0	841.626	0	10.7	4	3.4	4	-1E+10	1	-1E+10	1	-1E+10	1	-1E+10	1	-1E+10	1	-1E+10	1
4901784	114	C	08/18/2018	10:48	-132.053	43.056	0	854.80	0	3.6680	0	34.5000	8	27.428	0	846.269	0	10.6	4	3.3	4	-1E+10	1	-1E+10	1	-1E+10	1	-1E+10	1	-1E+10	1	-1E+10	1
4901784	114	C	08/18/2018	10:48	-132.053	43.056	0	860.30	0	3.6600	0	34.5000	8	27.429	0	851.703	0	10.6	4	3.3	4	-1E+10	1	-1E+10	1	-1E+10	1	-1E+10	1	-1E+10	1	-1E+10	1
4901784	114	C	08/18/2018	10:48	-132.053	43.056	0	865.00	0	3.6440	0	34.5020	8	27.432	0	856.347	0	10.5	4	3.3	4	-1E+10	1	-1E+10	1	-1E+10	1	-1E+10	1	-1E+10	1	-1E+10	1
4901784	114	C	08/18/2018	10:48	-132.053	43.056	0	869.70	0	3.6410	0	34.5030	8	27.433	0	860.990	0	10.5	4	3.3	4	-1E+10	1	-1E+10	1	-1E+10	1	-1E+10	1	-1E+10	1	-1E+10	1
4901784	114	C	08/18/2018	10:48	-132.053	43.056	0	875.40	0	3.6340	0	34.5060	8	27.437	0	866.621	0	10.5	4	3.3	4	-1E+10	1	-1E+10	1	-1E+10	1	-1E+10	1	-1E+10	1	-1E+10	1
4901784	114	C	08/18/2018	10:48	-132.053	43.056	0	880.20	0	3.6280	0	34.5080	8	27.439	0	871.363	0	10.4	4	3.3	4	-1E+10	1	-1E+10	1	-1E+10	1	-1E+10	1	-1E+10	1	-1E+10	1
4901784	114	C	08/18/2018	10:48	-132.053	43.056	0	884.90	0	3.6200	0	34.5150	8	27.445	0	876.006	0	10.4	4	3.3	4	-1E+10	1	-1E+10	1	-1E+10	1	-1E+10	1	-1E+10	1	-1E+10	1
4901784	114	C	08/18/2018	10:48	-132.053	43.056	0	889.70	0	3.6140	0	34.5260	8	27.455	0	880.748	0	10.4	4	3.3	4	-1E+10	1	-1E+10	1	-1E+10	1	-1E+10	1	-1E+10	1	-1E+10	1
4901784	114	C	08/18/2018	10:48	-132.053	43.056	0	894.40	0	3.6090	0	34.5280	8	27.457	0	885.391	0	10.4	4	3.2	4	-1E+10	1	-1E+10	1	-1E+10	1	-1E+10	1	-1E+10	1	-1E+10	1
4901784	114	C	08/18/2018	10:48	-132.053	43.056	0	899.90	0	3.6020	0	34.5310	8	27.460	0	890.823	0	10.4	4	3.2	4	-1E+10	1	-1E+10	1	-1E+10	1	-1E+10	1	-1E+10	1	-1E+10	1
4901784	114	C	08/18/2018	10:48	-132.053	43.056	0	904.20	0	3.5990	0	34.5320	8	27.461	0	895.071	0	10.4	4	3.2	4	-1E+10	1	-1E+10	1	-1E+10	1	-1E+10	1	-1E+10	1	-1E+10	1
4901784	114	C	08/18/2018	10:48	-132.053	43.056	0	910.00	0	3.5940	0	34.5360	8	27.465	0	900.800	0	10.4	4	3.3	4	-1E+10	1	-1E+10	1	-1E+10	1	-1E+10	1	-1E+10	1	-1E+10	1
4901784	114	C	08/18/2018	10:48	-132.053	43.056	0	915.70	0	3.5790	0	34.5400	8	27.469	0	906.430	0	10.4	4	3.3	4	-1E+10	1	-1E+10	1	-1E+10	1	-1E+10	1	-1E+10	1	-1E+10	1
4901784	114	C	08/18/2018	10:48	-132.053	43.056	0	920.60	0	3.5700	0	34.5440	8	27.473	0	911.270	0	10.4	4	3.3	4	-1E+10	1	-1E+10	1	-1E+10	1	-1E+10	1	-1E+10	1	-1E+10	1
4901784	114	C	08/18/2018	10:48	-132.053	43.056	0	925.60	0	3.5620	0	34.5470	8	27.477	0	916.208	0	10.4	4	3.3	4	-1E+10	1	-1E+10	1	-1E+10	1	-1E+10	1	-1E+10	1	-1E+10	1
4901784	114	C	08/18/2018	10:48	-132.053	43.056	0	930.70	0	3.5580	0	34.5480	8	27.478	0	921.245	0	10.5	4	3.3	4	-1E+10	1	-1E+10	1	-1E+10	1	-1E+10	1	-1E+10	1	-1E+10	1
4901784	114	C	08/18/2018	10:48	-132.053	43.056	0	935.70	0	3.5460	0	34.5520	8	27.482	0	926.183	0	10.5	4	3.3	4	-1E+10	1	-1E+10	1	-1E+10	1	-1E+10	1	-1E+10	1	-1E+10	1
4901784	114	C	08/18/2018	10:48	-132.053	43.056	0	940.80	0	3.5320	0	34.5560	8	27.487	0	931.220	0	10.6	4	3.3	4	-1E+10	1	-1E+10	1	-1E+10	1	-1E+10	1	-1E+10	1	-1E+10	1
4901784	114	C	08/18/2018	10:48	-132.053	43.056	0	945.10	0	3.5210	0	34.5600	8	27.491	0	935.466	0	10.6	4	3.3	4	-1E+10	1	-1E+10	1	-1E+10	1	-1E+10	1	-1E+10	1	-1E+10	1
4901784	114	C	08/18/2018	10:48	-132.053	43.056	0	949.30	0	3.5140	0	34.5610	8	27.493	0	939.614	0	10.7	4	3.3	4	-1E+10	1	-1E+10	1	-1E+10	1	-1E+10	1	-1E+10	1	-1E+10	1
4901784	114	C	08/18/2018	10:48	-132.053	43.056	0	954.50	0	3.5090	0	34.5630	8	27.495	0	944.750	0	10.7	4	3.4	4	-1E+10	1	-1E+10	1	-1E+10	1	-1E+10	1	-1E+10	1	-1E+10	1
4901784	114	C	08/18/2018	10:48	-132.053	43.056	0	959.70	0	3.5040	0	34.5670	8	27.498	0	949.885	0	10.8	4	3.4	4	-1E+10	1	-1E+10	1	-1E+10	1	-1E+10	1	-1E+10	1	-1E+10	1
4901784	114	C	08/18/2018	10:48	-132.053	43.056	0	964.80	0	3.4960	0	34.5680	8	27.500	0	954.921	0	10.9	4	3.4	4	-1E+10	1	-1E+10	1	-1E+10	1	-1E+10	1	-1E+10	1	-1E+10	1
4901784	114	C	08/18/2018	10:48	-132.053	43.056	0	969.90	0	3.4830	0	34.5710	8	27.504	0	959.957	0	11.0	4	3.4	4	-1E+10	1	-1E+10	1	-1E+10	1	-1E+10	1	-1E+10	1	-1E+10	1
4901784	114	C	08/18/2018	10:48	-132.053	43.056	0	975.10	0	3.4690	0	34.5740	8	27.508	0	965.092	0	11.1	4	3.5	4	-1E+10	1	-1E+10	1	-1E+10	1	-1E+10	1	-1E+10	1	-1E+10	1
4901784	114	C	08/18/2018	10:48	-132.053	43.056	0	980.30	0	3.4650	0	34.5760	8	27.510	0	970.226	0	11.1	4	3.5	4	-1E+10	1	-1E+10	1	-1E+10	1	-1E+10	1	-1E+10	1	-1E+10	1
4901784	114	C	08/18/2018	10:48	-132.053	43.056	0	985.50	0	3.4470	0	34.5780	8	27.513	0	975.361	0	11.2	4	3.5	4	-1E+10	1	-1E+10	1	-1E+10	1	-1E+10	1	-1E+10	1	-1E+10	1
4901784	114	C	08/18/2018	10:48	-132.053	43.056	0	990.70	0	3.4350	0	34.5810	8	27.516	0	980.495	0	11.3	4	3.5	4	-1E+10	1	-1E+10	1	-1E+10	1	-1E+10	1	-1E+10	1	-1E+10	1
4901784	114	C	08/18/2018	10:48	-132.053	43.056	0	995.10	0	3.4280	0	34.5830	8	27.519	0	984.839	0	11.4	4	3.5	4	-1E+10	1	-1E+10	1	-1E+10	1	-1E+10	1	-1E+10	1	-1E+10	1
4901784	114	C	08/18/2018	10:48	-132.053	43.056	0	999.40	0	3.4260	0	34.5840	8	27.520	0	989.085	0	11.4	4	3.6	4	-1E+10	1	-1E+10	1	-1E+10	1	-1E+10	1	-1E+10	1	-1E+10	1
4901784	114	C	08/18/2018	10:48	-132.053	43.056	0	1004.70	0	3.4240	0	34.5850	8	27.521	0	994.318	0	11.5	4	3.6	4	-1E+10	1	-1E+10	1	-1E+10	1	-1E+10	1	-1E+10	1	-1E+10	1
4901784	114	C	08/18/2018	10:48	-132.053	43.056	0	1010.10	0	3.4140	0	34.5870	8	27.523	0	999.649	0	11.6	4	3.6	4	-1E+10	1	-1E+10	1	-1E+10	1	-1E+10	1	-1E+10	1	-1E+10	1
4901784	114	C	08/18/2018	10:48	-132.053	43.056	0	1015.50	0	3.3970	0	34.5910	8	27.528	0	1004.980	0	11.8	4	3.7	4	-1E+10	1	-1E+10	1	-1E+10	1	-1E+10	1	-1E+10	1	-1E+10	1
4901784	114	C	08/18/2018	10:48	-132.053	43.056	0	1020.00	0	3.3850	0	34.5930	8	27.531	0	1009.423	0	11.9	4	3.7	4	-1E+10	1	-1E+10	1	-1E+10	1	-1E+10	1	-1E+10	1	-1E+10	1
4901784	114	C	08/18/2018	10:48	-132.053	43.056	0	1024.60	0	3.3770	0	34.5960	8	27.534	0	1013.964	0	12.1	4	3.8	4	-1E+10	1	-1E+10	1	-1E+10	1	-1E+10	1	-1E+10	1	-1E+10	1
4901784	114	C	08/18/2018	10:48	-132.053	43.056	0	1030.10	0	3.3670	0	34.5990	8	27.538	0	1019.393	0	12.3	4	3.8	4	-1E+10	1	-1E+10	1	-1E+10	1	-1E+10	1	-1E+10	1	-1E+10	1
4901784	114	C	08/18/2018	10:48	-132.053	43.056	0	1035.60	0	3.3670	0	34.6000	8	27.538	0	1024.823	0	12.4	4	3.9	4	-1E+10	1	-1E+10	1	-1E+10	1	-1E+10	1	-1E+10	1	-1E+10	1
4901784	114	C	08/18/2018	10:48	-132.053	43.056	0	1040.20	0	3.3620	0	34.6010	8	27.540	0	1029.364	0	12.4	4	3.9	4	-1E+10	1	-1E+10	1	-1E+10	1	-1E+10	1	-1E+10	1	-1E+10	1
4901784	114	C	08/18/2018	10:48	-132.053	43.056	0	1044.80	0	3.3450	0	34.6020	8	27.542	0	1033.904	0	12.5	4	3.9	4	-1E+10	1	-1E+10	1	-1E+10	1	-1E+10	1	-1E+10	1	-1E+10	1
4901784	114	C	08/18/2018	10:48	-132.053	43.056	0	1050.50	0	3.3200	0	34.6050	8	27.547	0	1039.531	0	12.6	4	3.9	4	-1E+10	1	-1E+10	1	-1E+10	1	-1E+10	1	-1E+10	1	-1E+10	1
4901784	114	C	08/18/2018	10:48	-132.053	43.056	0	1055.20	0	3.3090	0	34.6070	8	27.550	0	1044.170	0	12.7	4	3.9	4	-1E+10	1	-1E+10	1	-1E+10	1	-1E+10	1	-1E+10	1	-1E+10	1
4901784	114	C	08/18/2018	10:48	-132.053	43.056	0	1060.00	0	3.3040	0	34.6100	8	27.553	0	1048.908	0	12.8	4	4.0	4	-1E+10	1	-1E+10	1	-1E+10	1	-1E+10	1	-1E+10	1	-1E+10	1
4901784	114	C	08/18/2018	10:48	-132.053	43.056	0	1064.70	0	3.2980	0	34.6110	8	27.554	0	1053.547	0	12.9	4	4.0	4	-1E+10	1	-1E+10	1	-1E+10	1	-1E+10	1	-1E+10	1	-1E+10	1
4901784	114	C	08/18/2018	10:48	-132.053	43.056	0	1069.80	0	3.2910	0	34.6130	8	27.556	0	1058.581	0	13.0	4	4.0	4	-1E+10	1	-1E+10	1	-1E+10	1	-1E+10	1	-1E+10	1	-1E+10	1
4901784	114	C	08/18/2018	10:48	-132.053	43.056	0	1074.90	0	3.2840	0	34.6140	8	27.558	0	1063.614	0	13.1	4	4.1	4	-1E+10	1	-1E+10	1	-1E+10	1	-1E+10	1	-1E+10	1	-1E+10	1
4901784	114	C	08/18/2018	10:48	-132.053	43.056	0	1079.90	0	3.2620	0	34.6160	8	27.561	0	1068.549	0	13.2	4	4.1	4	-1E+10	1	-1E+10	1	-1E+10	1	-1E+10	1	-1E+10	1	-1E+10	1
4901784	114	C	08/18/2018	10:48	-132.053	43.056	0	1084.80	0	3.2560	0	34.6170	8	27.563	0	1073.385	0	13.3	4	4.1	4	-1E+10	1	-1E+10	1	-1E+10	1	-1E+10	1	-1E+10	1	-1E+10	1
4901784	114	C	08/18/2018	10:48	-132.053	43.056	0	1089.70	0	3.2470	0	34.6180	8	27.564	0	1078.221	0	13.4	4	4.2	4	-1E+10	1	-1E+10	1	-1E+10	1	-1E+10	1	-1E+10	1	-1E+10	1
4901784	114	C	08/18/2018	10:48	-132.053	43.056	0	1094.60	0	3.2410	0	34.6190	8	27.566	0	1083.057	0	13.5	4	4.2	4	-1E+10	1	-1E+10	1	-1E+10	1	-1E+10	1	-1E+10	1	-1E+10	1
4901784	114	C	08/18/2018	10:48	-132.053	43.056	0	1099.50	0	3.2350	0	34.6200	8	27.567	0	1087.892	0	13.6	4	4.2	4	-1E+10	1	-1E+10	1	-1E+10	1	-1E+10	1	-1E+10	1	-1E+10	1
4901784	114	C	08/18/2018	10:48	-132.053	43.056	0	1104.50	0	3.2120	0	34.6200	8	27.569	0	1092.826	0	13.5	4	4.2	4	-1E+10	1	-1E+10	1	-1E+10	1	-1E+10	1	-1E+10	1	-1E+10	1
4901784	114	C	08/18/2018	10:48	-132.053	43.056	0	1109.50	0	3.1930	0	34.6210	8	27.572	0	1097.761	0	13.6	4	4.2	4	-1E+10	1	-1E+10	1	-1E+10	1	-1E+10	1	-1E+10	1	-1E+10	1
4901784	114	C	08/18/2018	10:48	-132.053	43.056	0	1114.90	0	3.1850	0	34.6230	8	27.574	0	1103.089	0	13.7	4	4.2	4	-1E+10	1	-1E+10	1	-1E+10	1	-1E+10	1	-1E+10	1	-1E+10	1
4901784	114	C	08/18/2018	10:48	-132.053	43.056	0	1120.50	0	3.1740	0	34.6240	8	27.576	0	1108.615	0	13.8	4	4.3	4	-1E+10	1	-1E+10	1	-1E+10	1	-1E+10	1	-1E+10	1	-1E+10	1
4901784	114	C	08/18/2018	10:48	-132.053	43.056	0	1125.20	0	3.1630	0	34.6250	8	27.578	0	1113.253	0	13.9	4	4.3	4	-1E+10	1	-1E+10	1	-1E+10	1	-1E+10	1	-1E+10	1	-1E+10	1
4901784	114	C	08/18/2018	10:48	-132.053	43.056	0	1129.90	0	3.1550	0	34.6250	8	27.579	0	1117.890	0	14.0	4	4.3	4	-1E+10	1	-1E+10	1	-1E+10	1	-1E+10	1	-1E+10	1	-1E+10	1
4901784	114	C	08/18/2018	10:48	-132.053	43.056	0	1135.50	0	3.1390	0	34.6270	8	27.582	0	1123.416	0	14.1	4	4.4	4	-1E+10	1	-1E+10	1	-1E+10	1	-1E+10	1	-1E+10	1	-1E+10	1
4901784	114	C	08/18/2018	10:48	-132.053	43.056	0	1140.20	0	3.1330	0	34.6280	8	27.583	0	1128.053	0	14.2	4	4.4	4	-1E+10	1	-1E+10	1	-1E+10	1	-1E+10	1	-1E+10	1	-1E+10	1
4901784	114	C	08/18/2018	10:48	-132.053	43.056	0	1145.10	0	3.1190	0	34.6300	8	27.586	0	1132.888	0	14.4	4	4.5	4	-1E+10	1	-1E+10	1	-1E+10	1	-1E+10	1	-1E+10	1	-1E+10	1
4901784	114	C	08/18/2018	10:48	-132.053	43.056	0	1149.90	0	3.1090	0	34.6320	8	27.589	0	1137.624	0	14.5	4	4.5	4	-1E+10	1	-1E+10	1	-1E+10	1	-1E+10	1	-1E+10	1	-1E+10	1
4901784	114	C	08/18/2018	10:48	-132.053	43.056	0	1154.70	0	3.0930	0	34.6330	8	27.591	0	1142.359	0	14.7	4	4.5	4	-1E+10	1	-1E+10	1	-1E+10	1	-1E+10	1	-1E+10	1	-1E+10	1
4901784	114	C	08/18/2018	10:48	-132.053	43.056	0	1160.50	0	3.0840	0	34.6360	8	27.594	0	1148.082	0	14.8	4	4.6	4	-1E+10	1	-1E+10	1	-1E+10	1	-1E+10	1	-1E+10	1	-1E+10	1
4901784	114	C	08/18/2018	10:48	-132.053	43.056	0	1165.30	0	3.0820	0	34.6380	8	27.596	0	1152.817	0	15.0	4	4.6	4	-1E+10	1	-1E+10	1	-1E+10	1	-1E+10	1	-1E+10	1	-1E+10	1
4901784	114	C	08/18/2018	10:48	-132.053	43.056	0	1170.10	0	3.0730	0	34.6390	8	27.598	0	1157.552	0	15.1	4	4.7	4	-1E+10	1	-1E+10	1	-1E+10	1	-1E+10	1	-1E+10	1	-1E+10	1
4901784	114	C	08/18/2018	10:48	-132.053	43.056	0	1174.90	0	3.0610	0	34.6400	8	27.600	0	1162.288	0	15.2	4	4.7	4	-1E+10	1	-1E+10	1	-1E+10	1	-1E+10	1	-1E+10	1	-1E+10	1
4901784	114	C	08/18/2018	10:48	-132.053	43.056	0	1179.70	0	3.0520	0	34.6410	8	27.601	0	1167.023	0	15.3	4	4.7	4	-1E+10	1	-1E+10	1	-1E+10	1	-1E+10	1	-1E+10	1	-1E+10	1
4901784	114	C	08/18/2018	10:48	-132.053	43.056	0	1184.70	0	3.0460	0	34.6420	8	27.603	0	1171.955	0	15.4	4	4.8	4	-1E+10	1	-1E+10	1	-1E+10	1	-1E+10	1	-1E+10	1	-1E+10	1
4901784	114	C	08/18/2018	10:48	-132.053	43.056	0	1189.60	0	3.0340	0	34.6430	8	27.605	0	1176.789	0	15.5	4	4.8	4	-1E+10	1	-1E+10	1	-1E+10	1	-1E+10	1	-1E+10	1	-1E+10	1
4901784	114	C	08/18/2018	10:48	-132.053	43.056	0	1194.60	0	3.0290	0	34.6450	8	27.607	0	1181.721	0	15.7	4	4.8	4	-1E+10	1	-1E+10	1	-1E+10	1	-1E+10	1	-1E+10	1	-1E+10	1
4901784	114	C	08/18/2018	10:48	-132.053	43.056	0	1199.60	0	3.0260	0	34.6450	8	27.607	0	1186.653	0	15.7	4	4.9	4	-1E+10	1	-1E+10	1	-1E+10	1	-1E+10	1	-1E+10	1	-1E+10	1
4901784	114	C	08/18/2018	10:48	-132.053	43.056	0	1205.50	0	3.0240	0	34.6450	8	27.607	0	1192.472	0	15.8	4	4.9	4	-1E+10	1	-1E+10	1	-1E+10	1	-1E+10	1	-1E+10	1	-1E+10	1
4901784	114	C	08/18/2018	10:48	-132.053	43.056	0	1210.40	0	3.0110	0	34.6470	8	27.610	0	1197.306	0	16.0	4	4.9	4	-1E+10	1	-1E+10	1	-1E+10	1	-1E+10	1	-1E+10	1	-1E+10	1
4901784	114	C	08/18/2018	10:48	-132.053	43.056	0	1215.40	0	3.0000	0	34.6470	8	27.611	0	1202.237	0	16.1	4	5.0	4	-1E+10	1	-1E+10	1	-1E+10	1	-1E+10	1	-1E+10	1	-1E+10	1
4901784	114	C	08/18/2018	10:48	-132.053	43.056	0	1220.50	0	2.9930	0	34.6490	8	27.613	0	1207.267	0	16.4	4	5.1	4	-1E+10	1	-1E+10	1	-1E+10	1	-1E+10	1	-1E+10	1	-1E+10	1
4901784	114	C	08/18/2018	10:48	-132.053	43.056	0	1224.60	0	2.9970	0	34.6510	8	27.615	0	1211.311	0	16.7	4	5.2	4	-1E+10	1	-1E+10	1	-1E+10	1	-1E+10	1	-1E+10	1	-1E+10	1
4901784	114	C	08/18/2018	10:48	-132.053	43.056	0	1229.50	0	2.9930	0	34.6530	8	27.617	0	1216.144	0	16.9	4	5.2	4	-1E+10	1	-1E+10	1	-1E+10	1	-1E+10	1	-1E+10	1	-1E+10	1
4901784	114	C	08/18/2018	10:48	-132.053	43.056	0	1234.60	0	2.9840	0	34.6540	8	27.618	0	1221.174	0	17.0	4	5.2	4	-1E+10	1	-1E+10	1	-1E+10	1	-1E+10	1	-1E+10	1	-1E+10	1
4901784	114	C	08/18/2018	10:48	-132.053	43.056	0	1239.70	0	2.9620	0	34.6540	8	27.620	0	1226.203	0	17.0	4	5.2	4	-1E+10	1	-1E+10	1	-1E+10	1	-1E+10	1	-1E+10	1	-1E+10	1
4901784	114	C	08/18/2018	10:48	-132.053	43.056	0	1244.60	0	2.9410	0	34.6540	8	27.622	0	1231.036	0	17.0	4	5.3	4	-1E+10	1	-1E+10	1	-1E+10	1	-1E+10	1	-1E+10	1	-1E+10	1
4901784	114	C	08/18/2018	10:48	-132.053	43.056	0	1249.60	0	2.9300	0	34.6560	8	27.625	0	1235.966	0	17.3	4	5.3	4	-1E+10	1	-1E+10	1	-1E+10	1	-1E+10	1	-1E+10	1	-1E+10	1
4901784	114	C	08/18/2018	10:48	-132.053	43.056	0	1255.40	0	2.9220	0	34.6580	8	27.627	0	1241.686	0	17.5	4	5.4	4	-1E+10	1	-1E+10	1	-1E+10	1	-1E+10	1	-1E+10	1	-1E+10	1
4901784	114	C	08/18/2018	10:48	-132.053	43.056	0	1260.90	0	2.9150	0	34.6600	8	27.629	0	1247.110	0	17.6	4	5.4	4	-1E+10	1	-1E+10	1	-1E+10	1	-1E+10	1	-1E+10	1	-1E+10	1
4901784	114	C	08/18/2018	10:48	-132.053	43.056	0	1265.20	0	2.9030	0	34.6600	8	27.631	0	1251.350	0	17.6	4	5.4	4	-1E+10	1	-1E+10	1	-1E+10	1	-1E+10	1	-1E+10	1	-1E+10	1
4901784	114	C	08/18/2018	10:48	-132.053	43.056	0	1270.10	0	2.8950	0	34.6590	8	27.630	0	1256.182	0	17.7	4	5.4	4	-1E+10	1	-1E+10	1	-1E+10	1	-1E+10	1	-1E+10	1	-1E+10	1
4901784	114	C	08/18/2018	10:48	-132.053	43.056	0	1275.00	0	2.8760	0	34.6600	8	27.633	0	1261.013	0	17.8	4	5.5	4	-1E+10	1	-1E+10	1	-1E+10	1	-1E+10	1	-1E+10	1	-1E+10	1
4901784	114	C	08/18/2018	10:48	-132.053	43.056	0	1279.80	0	2.8670	0	34.6610	8	27.635	0	1265.746	0	18.0	4	5.5	4	-1E+10	1	-1E+10	1	-1E+10	1	-1E+10	1	-1E+10	1	-1E+10	1
4901784	114	C	08/18/2018	10:48	-132.053	43.056	0	1284.70	0	2.8560	0	34.6630	8	27.637	0	1270.578	0	18.2	4	5.6	4	-1E+10	1	-1E+10	1	-1E+10	1	-1E+10	1	-1E+10	1	-1E+10	1
4901784	114	C	08/18/2018	10:48	-132.053	43.056	0	1289.50	0	2.8430	0	34.6640	8	27.639	0	1275.310	0	18.4	4	5.7	4	-1E+10	1	-1E+10	1	-1E+10	1	-1E+10	1	-1E+10	1	-1E+10	1
4901784	114	C	08/18/2018	10:48	-132.053	43.056	0	1294.40	0	2.8250	0	34.6660	8	27.642	0	1280.141	0	18.7	4	5.8	4	-1E+10	1	-1E+10	1	-1E+10	1	-1E+10	1	-1E+10	1	-1E+10	1
4901784	114	C	08/18/2018	10:48	-132.053	43.056	0	1299.40	0	2.8180	0	34.6680	8	27.645	0	1285.071	0	18.9	4	5.8	4	-1E+10	1	-1E+10	1	-1E+10	1	-1E+10	1	-1E+10	1	-1E+10	1
4901784	114	C	08/18/2018	10:48	-132.053	43.056	0	1304.30	0	2.8060	0	34.6690	8	27.647	0	1289.902	0	19.1	4	5.9	4	-1E+10	1	-1E+10	1	-1E+10	1	-1E+10	1	-1E+10	1	-1E+10	1
4901784	114	C	08/18/2018	10:48	-132.053	43.056	0	1309.30	0	2.7990	0	34.6700	8	27.648	0	1294.832	0	19.2	4	5.9	4	-1E+10	1	-1E+10	1	-1E+10	1	-1E+10	1	-1E+10	1	-1E+10	1
4901784	114	C	08/18/2018	10:48	-132.053	43.056	0	1314.30	0	2.7960	0	34.6710	8	27.649	0	1299.761	0	19.5	4	6.0	4	-1E+10	1	-1E+10	1	-1E+10	1	-1E+10	1	-1E+10	1	-1E+10	1
4901784	114	C	08/18/2018	10:48	-132.053	43.056	0	1319.40	0	2.7820	0	34.6730	8	27.652	0	1304.789	0	19.6	4	6.0	4	-1E+10	1	-1E+10	1	-1E+10	1	-1E+10	1	-1E+10	1	-1E+10	1
4901784	114	C	08/18/2018	10:48	-132.053	43.056	0	1324.50	0	2.7730	0	34.6740	8	27.654	0	1309.816	0	19.8	4	6.1	4	-1E+10	1	-1E+10	1	-1E+10	1	-1E+10	1	-1E+10	1	-1E+10	1
4901784	114	C	08/18/2018	10:48	-132.053	43.056	0	1329.60	0	2.7690	0	34.6740	8	27.654	0	1314.844	0	19.9	4	6.1	4	-1E+10	1	-1E+10	1	-1E+10	1	-1E+10	1	-1E+10	1	-1E+10	1
4901784	114	C	08/18/2018	10:48	-132.053	43.056	0	1334.80	0	2.7650	0	34.6750	8	27.655	0	1319.970	0	20.0	4	6.1	4	-1E+10	1	-1E+10	1	-1E+10	1	-1E+10	1	-1E+10	1	-1E+10	1
4901784	114	C	08/18/2018	10:48	-132.053	43.056	0	1340.00	0	2.7630	0	34.6750	8	27.655	0	1325.096	0	20.1	4	6.2	4	-1E+10	1	-1E+10	1	-1E+10	1	-1E+10	1	-1E+10	1	-1E+10	1
4901784	114	C	08/18/2018	10:48	-132.053	43.056	0	1345.10	0	2.7550	0	34.6760	8	27.657	0	1330.123	0	20.4	4	6.3	4	-1E+10	1	-1E+10	1	-1E+10	1	-1E+10	1	-1E+10	1	-1E+10	1
4901784	114	C	08/18/2018	10:48	-132.053	43.056	0	1350.30	0	2.7480	0	34.6780	8	27.659	0	1335.249	0	20.6	4	6.3	4	-1E+10	1	-1E+10	1	-1E+10	1	-1E+10	1	-1E+10	1	-1E+10	1
4901784	114	C	08/18/2018	10:48	-132.053	43.056	0	1355.50	0	2.7380	0	34.6790	8	27.661	0	1340.374	0	21.0	4	6.4	4	-1E+10	1	-1E+10	1	-1E+10	1	-1E+10	1	-1E+10	1	-1E+10	1
4901784	114	C	08/18/2018	10:48	-132.053	43.056	0	1360.70	0	2.7230	0	34.6810	8	27.664	0	1345.500	0	21.2	4	6.5	4	-1E+10	1	-1E+10	1	-1E+10	1	-1E+10	1	-1E+10	1	-1E+10	1
4901784	114	C	08/18/2018	10:48	-132.053	43.056	0	1365.10	0	2.7210	0	34.6810	8	27.664	0	1349.836	0	21.5	4	6.6	4	-1E+10	1	-1E+10	1	-1E+10	1	-1E+10	1	-1E+10	1	-1E+10	1
4901784	114	C	08/18/2018	10:48	-132.053	43.056	0	1369.40	0	2.7080	0	34.6830	8	27.667	0	1354.074	0	21.8	4	6.7	4	-1E+10	1	-1E+10	1	-1E+10	1	-1E+10	1	-1E+10	1	-1E+10	1
4901784	114	C	08/18/2018	10:48	-132.053	43.056	0	1374.70	0	2.6960	0	34.6850	8	27.669	0	1359.298	0	22.2	4	6.8	4	-1E+10	1	-1E+10	1	-1E+10	1	-1E+10	1	-1E+10	1	-1E+10	1
4901784	114	C	08/18/2018	10:48	-132.053	43.056	0	1380.10	0	2.6900	0	34.6860	8	27.671	0	1364.620	0	22.4	4	6.9	4	-1E+10	1	-1E+10	1	-1E+10	1	-1E+10	1	-1E+10	1	-1E+10	1
4901784	114	C	08/18/2018	10:48	-132.053	43.056	0	1385.40	0	2.6820	0	34.6870	8	27.672	0	1369.843	0	22.6	4	6.9	4	-1E+10	1	-1E+10	1	-1E+10	1	-1E+10	1	-1E+10	1	-1E+10	1
4901784	114	C	08/18/2018	10:48	-132.053	43.056	0	1390.70	0	2.6760	0	34.6880	8	27.674	0	1375.067	0	22.8	4	7.0	4	-1E+10	1	-1E+10	1	-1E+10	1	-1E+10	1	-1E+10	1	-1E+10	1
4901784	114	C	08/18/2018	10:48	-132.053	43.056	0	1395.10	0	2.6730	0	34.6890	8	27.675	0	1379.403	0	23.1	4	7.1	4	-1E+10	1	-1E+10	1	-1E+10	1	-1E+10	1	-1E+10	1	-1E+10	1
4901784	114	C	08/18/2018	10:48	-132.053	43.056	0	1399.60	0	2.6660	0	34.6900	8	27.676	0	1383.837	0	23.4	4	7.2	4	-1E+10	1	-1E+10	1	-1E+10	1	-1E+10	1	-1E+10	1	-1E+10	1
4901784	114	C	08/18/2018	10:48	-132.053	43.056	0	1405.00	0	2.6560	0	34.6910	8	27.678	0	1389.159	0	23.7	4	7.3	4	-1E+10	1	-1E+10	1	-1E+10	1	-1E+10	1	-1E+10	1	-1E+10	1
4901784	114	C	08/18/2018	10:48	-132.053	43.056	0	1410.40	0	2.6520	0	34.6920	8	27.679	0	1394.480	0	24.0	4	7.4	4	-1E+10	1	-1E+10	1	-1E+10	1	-1E+10	1	-1E+10	1	-1E+10	1
4901784	114	C	08/18/2018	10:48	-132.053	43.056	0	1414.90	0	2.6430	0	34.6930	8	27.681	0	1398.914	0	24.3	4	7.5	4	-1E+10	1	-1E+10	1	-1E+10	1	-1E+10	1	-1E+10	1	-1E+10	1
4901784	114	C	08/18/2018	10:48	-132.053	43.056	0	1419.30	0	2.6330	0	34.6950	8	27.683	0	1403.250	0	24.6	4	7.5	4	-1E+10	1	-1E+10	1	-1E+10	1	-1E+10	1	-1E+10	1	-1E+10	1
4901784	114	C	08/18/2018	10:48	-132.053	43.056	0	1424.70	0	2.6240	0	34.6960	8	27.685	0	1408.571	0	24.8	4	7.6	4	-1E+10	1	-1E+10	1	-1E+10	1	-1E+10	1	-1E+10	1	-1E+10	1
4901784	114	C	08/18/2018	10:48	-132.053	43.056	0	1430.20	0	2.6150	0	34.6970	8	27.686	0	1413.990	0	25.0	4	7.7	4	-1E+10	1	-1E+10	1	-1E+10	1	-1E+10	1	-1E+10	1	-1E+10	1
4901784	114	C	08/18/2018	10:48	-132.053	43.056	0	1435.60	0	2.6090	0	34.6980	8	27.688	0	1419.311	0	25.2	4	7.7	4	-1E+10	1	-1E+10	1	-1E+10	1	-1E+10	1	-1E+10	1	-1E+10	1
4901784	114	C	08/18/2018	10:48	-132.053	43.056	0	1440.20	0	2.6040	0	34.6990	8	27.689	0	1423.843	0	25.5	4	7.8	4	-1E+10	1	-1E+10	1	-1E+10	1	-1E+10	1	-1E+10	1	-1E+10	1
4901784	114	C	08/18/2018	10:48	-132.053	43.056	0	1444.80	0	2.5950	0	34.7000	8	27.690	0	1428.376	0	25.8	4	7.9	4	-1E+10	1	-1E+10	1	-1E+10	1	-1E+10	1	-1E+10	1	-1E+10	1
4901784	114	C	08/18/2018	10:48	-132.053	43.056	0	1450.20	0	2.5870	0	34.7010	8	27.692	0	1433.696	0	26.0	4	8.0	4	-1E+10	1	-1E+10	1	-1E+10	1	-1E+10	1	-1E+10	1	-1E+10	1
4901784	114	C	08/18/2018	10:48	-132.053	43.056	0	1455.60	0	2.5760	0	34.7020	8	27.694	0	1439.016	0	26.3	4	8.1	4	-1E+10	1	-1E+10	1	-1E+10	1	-1E+10	1	-1E+10	1	-1E+10	1
4901784	114	C	08/18/2018	10:48	-132.053	43.056	0	1460.50	0	2.5680	0	34.7030	8	27.695	0	1443.843	0	26.6	4	8.1	4	-1E+10	1	-1E+10	1	-1E+10	1	-1E+10	1	-1E+10	1	-1E+10	1
4901784	114	C	08/18/2018	10:48	-132.053	43.056	0	1465.40	0	2.5600	0	34.7040	8	27.697	0	1448.671	0	27.0	4	8.2	4	-1E+10	1	-1E+10	1	-1E+10	1	-1E+10	1	-1E+10	1	-1E+10	1
4901784	114	C	08/18/2018	10:48	-132.053	43.056	0	1470.40	0	2.5480	0	34.7060	8	27.699	0	1453.596	0	27.3	4	8.3	4	-1E+10	1	-1E+10	1	-1E+10	1	-1E+10	1	-1E+10	1	-1E+10	1
4901784	114	C	08/18/2018	10:48	-132.053	43.056	0	1475.30	0	2.5420	0	34.7060	8	27.700	0	1458.424	0	27.6	4	8.4	4	-1E+10	1	-1E+10	1	-1E+10	1	-1E+10	1	-1E+10	1	-1E+10	1
4901784	114	C	08/18/2018	10:48	-132.053	43.056	0	1480.30	0	2.5290	0	34.7080	8	27.703	0	1463.349	0	28.0	4	8.6	4	-1E+10	1	-1E+10	1	-1E+10	1	-1E+10	1	-1E+10	1	-1E+10	1
4901784	114	C	08/18/2018	10:48	-132.053	43.056	0	1485.20	0	2.5190	0	34.7090	8	27.704	0	1468.176	0	28.4	4	8.7	4	-1E+10	1	-1E+10	1	-1E+10	1	-1E+10	1	-1E+10	1	-1E+10	1
4901784	114	C	08/18/2018	10:48	-132.053	43.056	0	1490.30	0	2.5060	0	34.7110	8	27.707	0	1473.200	0	28.8	4	8.8	4	-1E+10	1	-1E+10	1	-1E+10	1	-1E+10	1	-1E+10	1	-1E+10	1
4901784	114	C	08/18/2018	10:48	-132.053	43.056	0	1495.30	0	2.4980	0	34.7120	8	27.709	0	1478.125	0	29.0	4	8.9	4	-1E+10	1	-1E+10	1	-1E+10	1	-1E+10	1	-1E+10	1	-1E+10	1
4901784	114	C	08/18/2018	10:48	-132.053	43.056	0	1500.40	0	2.4920	0	34.7120	8	27.709	0	1483.148	0	29.3	4	8.9	4	-1E+10	1	-1E+10	1	-1E+10	1	-1E+10	1	-1E+10	1	-1E+10	1
4901784	114	C	08/18/2018	10:48	-132.053	43.056	0	1505.40	0	2.4830	0	34.7130	8	27.711	0	1488.073	0	29.7	4	9.1	4	-1E+10	1	-1E+10	1	-1E+10	1	-1E+10	1	-1E+10	1	-1E+10	1
4901784	114	C	08/18/2018	10:48	-132.053	43.056	0	1510.50	0	2.4690	0	34.7150	8	27.713	0	1493.097	0	30.0	4	9.2	4	-1E+10	1	-1E+10	1	-1E+10	1	-1E+10	1	-1E+10	1	-1E+10	1
4901784	114	C	08/18/2018	10:48	-132.053	43.056	0	1515.70	0	2.4610	0	34.7150	8	27.714	0	1498.218	0	30.2	4	9.2	4	-1E+10	1	-1E+10	1	-1E+10	1	-1E+10	1	-1E+10	1	-1E+10	1
4901784	114	C	08/18/2018	10:48	-132.053	43.056	0	1520.00	0	2.4570	0	34.7160	8	27.715	0	1502.453	0	30.4	4	9.3	4	-1E+10	1	-1E+10	1	-1E+10	1	-1E+10	1	-1E+10	1	-1E+10	1
4901784	114	C	08/18/2018	10:48	-132.053	43.056	0	1524.30	0	2.4500	0	34.7170	8	27.717	0	1506.689	0	30.8	4	9.4	4	-1E+10	1	-1E+10	1	-1E+10	1	-1E+10	1	-1E+10	1	-1E+10	1
4901784	114	C	08/18/2018	10:48	-132.053	43.056	0	1529.40	0	2.4370	0	34.7180	8	27.719	0	1511.711	0	31.3	4	9.5	4	-1E+10	1	-1E+10	1	-1E+10	1	-1E+10	1	-1E+10	1	-1E+10	1
4901784	114	C	08/18/2018	10:48	-132.053	43.056	0	1534.60	0	2.4220	0	34.7200	8	27.722	0	1516.833	0	31.7	4	9.7	4	-1E+10	1	-1E+10	1	-1E+10	1	-1E+10	1	-1E+10	1	-1E+10	1
4901784	114	C	08/18/2018	10:48	-132.053	43.056	0	1539.80	0	2.4170	0	34.7210	8	27.723	0	1521.954	0	32.0	4	9.7	4	-1E+10	1	-1E+10	1	-1E+10	1	-1E+10	1	-1E+10	1	-1E+10	1
4901784	114	C	08/18/2018	10:48	-132.053	43.056	0	1545.10	0	2.4140	0	34.7220	8	27.724	0	1527.173	0	32.2	4	9.8	4	-1E+10	1	-1E+10	1	-1E+10	1	-1E+10	1	-1E+10	1	-1E+10	1
4901784	114	C	08/18/2018	10:48	-132.053	43.056	0	1550.30	0	2.4090	0	34.7220	8	27.724	0	1532.294	0	32.6	4	9.9	4	-1E+10	1	-1E+10	1	-1E+10	1	-1E+10	1	-1E+10	1	-1E+10	1
4901784	114	C	08/18/2018	10:48	-132.053	43.056	0	1554.80	0	2.3950	0	34.7240	8	27.727	0	1536.725	0	33.0	4	10.1	4	-1E+10	1	-1E+10	1	-1E+10	1	-1E+10	1	-1E+10	1	-1E+10	1
4901784	114	C	08/18/2018	10:48	-132.053	43.056	0	1559.30	0	2.3870	0	34.7250	8	27.729	0	1541.157	0	33.3	4	10.1	4	-1E+10	1	-1E+10	1	-1E+10	1	-1E+10	1	-1E+10	1	-1E+10	1
4901784	114	C	08/18/2018	10:48	-132.053	43.056	0	1564.60	0	2.3820	0	34.7250	8	27.729	0	1546.376	0	33.6	4	10.2	4	-1E+10	1	-1E+10	1	-1E+10	1	-1E+10	1	-1E+10	1	-1E+10	1
4901784	114	C	08/18/2018	10:48	-132.053	43.056	0	1570.00	0	2.3710	0	34.7260	8	27.731	0	1551.693	0	34.0	4	10.4	4	-1E+10	1	-1E+10	1	-1E+10	1	-1E+10	1	-1E+10	1	-1E+10	1
4901784	114	C	08/18/2018	10:48	-132.053	43.056	0	1575.40	0	2.3620	0	34.7280	8	27.733	0	1557.010	0	34.4	4	10.5	4	-1E+10	1	-1E+10	1	-1E+10	1	-1E+10	1	-1E+10	1	-1E+10	1
4901784	114	C	08/18/2018	10:48	-132.053	43.056	0	1580.70	0	2.3510	0	34.7290	8	27.735	0	1562.229	0	34.9	4	10.6	4	-1E+10	1	-1E+10	1	-1E+10	1	-1E+10	1	-1E+10	1	-1E+10	1
4901784	114	C	08/18/2018	10:48	-132.053	43.056	0	1585.20	0	2.3440	0	34.7300	8	27.736	0	1566.659	0	35.2	4	10.7	4	-1E+10	1	-1E+10	1	-1E+10	1	-1E+10	1	-1E+10	1	-1E+10	1
4901784	114	C	08/18/2018	10:48	-132.053	43.056	0	1589.80	0	2.3350	0	34.7310	8	27.738	0	1571.189	0	35.6	4	10.9	4	-1E+10	1	-1E+10	1	-1E+10	1	-1E+10	1	-1E+10	1	-1E+10	1
4901784	114	C	08/18/2018	10:48	-132.053	43.056	0	1595.20	0	2.3250	0	34.7320	8	27.739	0	1576.505	0	36.2	4	11.0	4	-1E+10	1	-1E+10	1	-1E+10	1	-1E+10	1	-1E+10	1	-1E+10	1
4901784	114	C	08/18/2018	10:48	-132.053	43.056	0	1600.70	0	2.3120	0	34.7340	8	27.742	0	1581.920	0	36.7	4	11.2	4	-1E+10	1	-1E+10	1	-1E+10	1	-1E+10	1	-1E+10	1	-1E+10	1
4901784	114	C	08/18/2018	10:48	-132.053	43.056	0	1605.20	0	2.3000	0	34.7350	8	27.744	0	1586.351	0	37.2	4	11.3	4	-1E+10	1	-1E+10	1	-1E+10	1	-1E+10	1	-1E+10	1	-1E+10	1
4901784	114	C	08/18/2018	10:48	-132.053	43.056	0	1609.80	0	2.2890	0	34.7360	8	27.746	0	1590.879	0	37.6	4	11.4	4	-1E+10	1	-1E+10	1	-1E+10	1	-1E+10	1	-1E+10	1	-1E+10	1
4901784	114	C	08/18/2018	10:48	-132.053	43.056	0	1615.00	0	2.2790	0	34.7380	8	27.748	0	1595.999	0	38.0	4	11.6	4	-1E+10	1	-1E+10	1	-1E+10	1	-1E+10	1	-1E+10	1	-1E+10	1
4901784	114	C	08/18/2018	10:48	-132.053	43.056	0	1619.30	0	2.2720	0	34.7390	8	27.750	0	1600.232	0	38.3	4	11.6	4	-1E+10	1	-1E+10	1	-1E+10	1	-1E+10	1	-1E+10	1	-1E+10	1
4901784	114	C	08/18/2018	10:48	-132.053	43.056	0	1625.00	0	2.2670	0	34.7400	8	27.751	0	1605.843	0	38.6	4	11.7	4	-1E+10	1	-1E+10	1	-1E+10	1	-1E+10	1	-1E+10	1	-1E+10	1
4901784	114	C	08/18/2018	10:48	-132.053	43.056	0	1630.70	0	2.2610	0	34.7400	8	27.751	0	1611.454	0	38.9	4	11.8	4	-1E+10	1	-1E+10	1	-1E+10	1	-1E+10	1	-1E+10	1	-1E+10	1
4901784	114	C	08/18/2018	10:48	-132.053	43.056	0	1635.70	0	2.2570	0	34.7410	8	27.752	0	1616.376	0	39.2	4	11.9	4	-1E+10	1	-1E+10	1	-1E+10	1	-1E+10	1	-1E+10	1	-1E+10	1
4901784	114	C	08/18/2018	10:48	-132.053	43.056	0	1640.70	0	2.2520	0	34.7420	8	27.754	0	1621.298	0	39.5	4	12.0	4	-1E+10	1	-1E+10	1	-1E+10	1	-1E+10	1	-1E+10	1	-1E+10	1
4901784	114	C	08/18/2018	10:48	-132.053	43.056	0	1645.70	0	2.2500	0	34.7430	8	27.755	0	1626.220	0	39.8	4	12.1	4	-1E+10	1	-1E+10	1	-1E+10	1	-1E+10	1	-1E+10	1	-1E+10	1
4901784	114	C	08/18/2018	10:48	-132.053	43.056	0	1650.70	0	2.2470	0	34.7450	8	27.757	0	1631.141	0	40.1	4	12.2	4	-1E+10	1	-1E+10	1	-1E+10	1	-1E+10	1	-1E+10	1	-1E+10	1
4901784	114	C	08/18/2018	10:48	-132.053	43.056	0	1655.70	0	2.2380	0	34.7460	8	27.758	0	1636.063	0	40.4	4	12.3	4	-1E+10	1	-1E+10	1	-1E+10	1	-1E+10	1	-1E+10	1	-1E+10	1
4901784	114	C	08/18/2018	10:48	-132.053	43.056	0	1660.80	0	2.2290	0	34.7460	8	27.759	0	1641.082	0	40.7	4	12.3	4	-1E+10	1	-1E+10	1	-1E+10	1	-1E+10	1	-1E+10	1	-1E+10	1
4901784	114	C	08/18/2018	10:48	-132.053	43.056	0	1665.00	0	2.2290	0	34.7460	8	27.759	0	1645.216	0	40.9	4	12.4	4	-1E+10	1	-1E+10	1	-1E+10	1	-1E+10	1	-1E+10	1	-1E+10	1
4901784	114	C	08/18/2018	10:48	-132.053	43.056	0	1669.20	0	2.2230	0	34.7470	8	27.760	0	1649.350	0	41.2	4	12.5	4	-1E+10	1	-1E+10	1	-1E+10	1	-1E+10	1	-1E+10	1	-1E+10	1
4901784	114	C	08/18/2018	10:48	-132.053	43.056	0	1674.20	0	2.2150	0	34.7480	8	27.762	0	1654.271	0	41.4	4	12.6	4	-1E+10	1	-1E+10	1	-1E+10	1	-1E+10	1	-1E+10	1	-1E+10	1
4901784	114	C	08/18/2018	10:48	-132.053	43.056	0	1679.30	0	2.2090	0	34.7480	8	27.762	0	1659.290	0	41.7	4	12.7	4	-1E+10	1	-1E+10	1	-1E+10	1	-1E+10	1	-1E+10	1	-1E+10	1
4901784	114	C	08/18/2018	10:48	-132.053	43.056	0	1684.40	0	2.2010	0	34.7480	8	27.763	0	1664.310	0	42.0	4	12.7	4	-1E+10	1	-1E+10	1	-1E+10	1	-1E+10	1	-1E+10	1	-1E+10	1
4901784	114	C	08/18/2018	10:48	-132.053	43.056	0	1689.70	0	2.1940	0	34.7490	8	27.764	0	1669.526	0	42.4	4	12.8	4	-1E+10	1	-1E+10	1	-1E+10	1	-1E+10	1	-1E+10	1	-1E+10	1
4901784	114	C	08/18/2018	10:48	-132.053	43.056	0	1694.90	0	2.1890	0	34.7500	8	27.765	0	1674.643	0	42.6	4	12.9	4	-1E+10	1	-1E+10	1	-1E+10	1	-1E+10	1	-1E+10	1	-1E+10	1
4901784	114	C	08/18/2018	10:48	-132.053	43.056	0	1700.10	0	2.1850	0	34.7500	8	27.766	0	1679.760	0	42.9	4	13.0	4	-1E+10	1	-1E+10	1	-1E+10	1	-1E+10	1	-1E+10	1	-1E+10	1
4901784	114	C	08/18/2018	10:48	-132.053	43.056	0	1705.30	0	2.1790	0	34.7510	8	27.767	0	1684.877	0	43.3	4	13.1	4	-1E+10	1	-1E+10	1	-1E+10	1	-1E+10	1	-1E+10	1	-1E+10	1
4901784	114	C	08/18/2018	10:48	-132.053	43.056	0	1710.60	0	2.1720	0	34.7520	8	27.769	0	1690.093	0	43.6	4	13.2	4	-1E+10	1	-1E+10	1	-1E+10	1	-1E+10	1	-1E+10	1	-1E+10	1
4901784	114	C	08/18/2018	10:48	-132.053	43.056	0	1715.10	0	2.1640	0	34.7530	8	27.770	0	1694.521	0	43.8	4	13.3	4	-1E+10	1	-1E+10	1	-1E+10	1	-1E+10	1	-1E+10	1	-1E+10	1
4901784	114	C	08/18/2018	10:48	-132.053	43.056	0	1719.50	0	2.1620	0	34.7530	8	27.770	0	1698.850	0	44.0	4	13.3	4	-1E+10	1	-1E+10	1	-1E+10	1	-1E+10	1	-1E+10	1	-1E+10	1
4901784	114	C	08/18/2018	10:48	-132.053	43.056	0	1724.90	0	2.1550	0	34.7530	8	27.771	0	1704.164	0	44.5	4	13.5	4	-1E+10	1	-1E+10	1	-1E+10	1	-1E+10	1	-1E+10	1	-1E+10	1
4901784	114	C	08/18/2018	10:48	-132.053	43.056	0	1730.30	0	2.1440	0	34.7550	8	27.773	0	1709.477	0	45.0	4	13.6	4	-1E+10	1	-1E+10	1	-1E+10	1	-1E+10	1	-1E+10	1	-1E+10	1
4901784	114	C	08/18/2018	10:48	-132.053	43.056	0	1734.80	0	2.1390	0	34.7560	8	27.774	0	1713.905	0	45.3	4	13.7	4	-1E+10	1	-1E+10	1	-1E+10	1	-1E+10	1	-1E+10	1	-1E+10	1
4901784	114	C	08/18/2018	10:48	-132.053	43.056	0	1739.30	0	2.1330	0	34.7560	8	27.775	0	1718.333	0	45.6	4	13.8	4	-1E+10	1	-1E+10	1	-1E+10	1	-1E+10	1	-1E+10	1	-1E+10	1
4901784	114	C	08/18/2018	10:48	-132.053	43.056	0	1744.70	0	2.1240	0	34.7570	8	27.777	0	1723.645	0	46.0	4	13.9	4	-1E+10	1	-1E+10	1	-1E+10	1	-1E+10	1	-1E+10	1	-1E+10	1
4901784	114	C	08/18/2018	10:48	-132.053	43.056	0	1750.20	0	2.1150	0	34.7580	8	27.778	0	1729.057	0	46.4	4	14.0	4	-1E+10	1	-1E+10	1	-1E+10	1	-1E+10	1	-1E+10	1	-1E+10	1
4901784	114	C	08/18/2018	10:48	-132.053	43.056	0	1754.90	0	2.1130	0	34.7590	8	27.779	0	1733.681	0	46.6	4	14.1	4	-1E+10	1	-1E+10	1	-1E+10	1	-1E+10	1	-1E+10	1	-1E+10	1
4901784	114	C	08/18/2018	10:48	-132.053	43.056	0	1759.50	0	2.1080	0	34.7590	8	27.779	0	1738.206	0	46.8	4	14.2	4	-1E+10	1	-1E+10	1	-1E+10	1	-1E+10	1	-1E+10	1	-1E+10	1
4901784	114	C	08/18/2018	10:48	-132.053	43.056	0	1765.00	0	2.1040	0	34.7600	8	27.781	0	1743.617	0	47.1	4	14.3	4	-1E+10	1	-1E+10	1	-1E+10	1	-1E+10	1	-1E+10	1	-1E+10	1
4901784	114	C	08/18/2018	10:48	-132.053	43.056	0	1770.60	0	2.0990	0	34.7600	8	27.781	0	1749.126	0	47.5	4	14.4	4	-1E+10	1	-1E+10	1	-1E+10	1	-1E+10	1	-1E+10	1	-1E+10	1
4901784	114	C	08/18/2018	10:48	-132.053	43.056	0	1774.60	0	2.0920	0	34.7610	8	27.782	0	1753.061	0	47.9	4	14.5	4	-1E+10	1	-1E+10	1	-1E+10	1	-1E+10	1	-1E+10	1	-1E+10	1
4901784	114	C	08/18/2018	10:48	-132.053	43.056	0	1779.50	0	2.0850	0	34.7620	8	27.784	0	1757.882	0	48.2	4	14.6	4	-1E+10	1	-1E+10	1	-1E+10	1	-1E+10	1	-1E+10	1	-1E+10	1
4901784	114	C	08/18/2018	10:48	-132.053	43.056	0	1784.40	0	2.0810	0	34.7630	8	27.785	0	1762.702	0	48.5	4	14.7	4	-1E+10	1	-1E+10	1	-1E+10	1	-1E+10	1	-1E+10	1	-1E+10	1
4901784	114	C	08/18/2018	10:48	-132.053	43.056	0	1789.30	0	2.0760	0	34.7640	8	27.786	0	1767.522	0	48.7	4	14.7	4	-1E+10	1	-1E+10	1	-1E+10	1	-1E+10	1	-1E+10	1	-1E+10	1
4901784	114	C	08/18/2018	10:48	-132.053	43.056	0	1794.20	0	2.0740	0	34.7640	8	27.786	0	1772.342	0	48.9	4	14.8	4	-1E+10	1	-1E+10	1	-1E+10	1	-1E+10	1	-1E+10	1	-1E+10	1
4901784	114	C	08/18/2018	10:48	-132.053	43.056	0	1799.20	0	2.0690	0	34.7650	8	27.788	0	1777.260	0	49.2	4	14.9	4	-1E+10	1	-1E+10	1	-1E+10	1	-1E+10	1	-1E+10	1	-1E+10	1
4901784	114	C	08/18/2018	10:48	-132.053	43.056	0	1804.20	0	2.0650	0	34.7650	8	27.788	0	1782.178	0	49.4	4	15.0	4	-1E+10	1	-1E+10	1	-1E+10	1	-1E+10	1	-1E+10	1	-1E+10	1
4901784	114	C	08/18/2018	10:48	-132.053	43.056	0	1809.20	0	2.0610	0	34.7660	8	27.789	0	1787.096	0	49.8	4	15.1	4	-1E+10	1	-1E+10	1	-1E+10	1	-1E+10	1	-1E+10	1	-1E+10	1
4901784	114	C	08/18/2018	10:48	-132.053	43.056	0	1814.30	0	2.0530	0	34.7670	8	27.791	0	1792.112	0	50.3	4	15.2	4	-1E+10	1	-1E+10	1	-1E+10	1	-1E+10	1	-1E+10	1	-1E+10	1
4901784	114	C	08/18/2018	10:48	-132.053	43.056	0	1819.40	0	2.0460	0	34.7680	8	27.792	0	1797.128	0	50.6	4	15.3	4	-1E+10	1	-1E+10	1	-1E+10	1	-1E+10	1	-1E+10	1	-1E+10	1
4901784	114	C	08/18/2018	10:48	-132.053	43.056	0	1824.50	0	2.0430	0	34.7680	8	27.792	0	1802.144	0	51.0	4	15.4	4	-1E+10	1	-1E+10	1	-1E+10	1	-1E+10	1	-1E+10	1	-1E+10	1
4901784	114	C	08/18/2018	10:48	-132.053	43.056	0	1829.50	0	2.0350	0	34.7690	8	27.794	0	1807.062	0	51.4	4	15.5	4	-1E+10	1	-1E+10	1	-1E+10	1	-1E+10	1	-1E+10	1	-1E+10	1
4901784	114	C	08/18/2018	10:48	-132.053	43.056	0	1834.60	0	2.0280	0	34.7700	8	27.795	0	1812.077	0	51.8	4	15.7	4	-1E+10	1	-1E+10	1	-1E+10	1	-1E+10	1	-1E+10	1	-1E+10	1
4901784	114	C	08/18/2018	10:48	-132.053	43.056	0	1839.70	0	2.0210	0	34.7710	8	27.796	0	1817.093	0	52.2	4	15.8	4	-1E+10	1	-1E+10	1	-1E+10	1	-1E+10	1	-1E+10	1	-1E+10	1
4901784	114	C	08/18/2018	10:48	-132.053	43.056	0	1844.90	0	2.0180	0	34.7720	8	27.797	0	1822.207	0	52.4	4	15.8	4	-1E+10	1	-1E+10	1	-1E+10	1	-1E+10	1	-1E+10	1	-1E+10	1
4901784	114	C	08/18/2018	10:48	-132.053	43.056	0	1850.10	0	2.0140	0	34.7720	8	27.798	0	1827.320	0	52.7	4	15.9	4	-1E+10	1	-1E+10	1	-1E+10	1	-1E+10	1	-1E+10	1	-1E+10	1
4901784	114	C	08/18/2018	10:48	-132.053	43.056	0	1855.30	0	2.0100	0	34.7730	8	27.799	0	1832.434	0	52.9	4	16.0	4	-1E+10	1	-1E+10	1	-1E+10	1	-1E+10	1	-1E+10	1	-1E+10	1
4901784	114	C	08/18/2018	10:48	-132.053	43.056	0	1860.50	0	2.0080	0	34.7730	8	27.799	0	1837.547	0	53.0	4	16.0	4	-1E+10	1	-1E+10	1	-1E+10	1	-1E+10	1	-1E+10	1	-1E+10	1
4901784	114	C	08/18/2018	10:48	-132.053	43.056	0	1865.60	0	2.0070	0	34.7740	8	27.800	0	1842.562	0	53.3	4	16.1	4	-1E+10	1	-1E+10	1	-1E+10	1	-1E+10	1	-1E+10	1	-1E+10	1
4901784	114	C	08/18/2018	10:48	-132.053	43.056	0	1870.00	0	2.0020	0	34.7740	8	27.800	0	1846.889	0	53.5	4	16.2	4	-1E+10	1	-1E+10	1	-1E+10	1	-1E+10	1	-1E+10	1	-1E+10	1
4901784	114	C	08/18/2018	10:48	-132.053	43.056	0	1874.30	0	1.9990	0	34.7750	8	27.802	0	1851.117	0	53.7	4	16.2	4	-1E+10	1	-1E+10	1	-1E+10	1	-1E+10	1	-1E+10	1	-1E+10	1
4901784	114	C	08/18/2018	10:48	-132.053	43.056	0	1879.60	0	1.9970	0	34.7750	8	27.802	0	1856.329	0	53.9	4	16.3	4	-1E+10	1	-1E+10	1	-1E+10	1	-1E+10	1	-1E+10	1	-1E+10	1
4901784	114	C	08/18/2018	10:48	-132.053	43.056	0	1884.80	0	1.9940	0	34.7760	8	27.803	0	1861.441	0	54.1	4	16.3	4	-1E+10	1	-1E+10	1	-1E+10	1	-1E+10	1	-1E+10	1	-1E+10	1
4901784	114	C	08/18/2018	10:48	-132.053	43.056	0	1890.10	0	1.9900	0	34.7760	8	27.803	0	1866.652	0	54.3	4	16.4	4	-1E+10	1	-1E+10	1	-1E+10	1	-1E+10	1	-1E+10	1	-1E+10	1
4901784	114	C	08/18/2018	10:48	-132.053	43.056	0	1895.30	0	1.9880	0	34.7770	8	27.804	0	1871.765	0	54.6	4	16.5	4	-1E+10	1	-1E+10	1	-1E+10	1	-1E+10	1	-1E+10	1	-1E+10	1
4901784	114	C	08/18/2018	10:48	-132.053	43.056	0	1900.50	0	1.9860	0	34.7770	8	27.804	0	1876.878	0	54.8	4	16.5	4	-1E+10	1	-1E+10	1	-1E+10	1	-1E+10	1	-1E+10	1	-1E+10	1
4901784	114	C	08/18/2018	10:48	-132.053	43.056	0	1905.70	0	1.9820	0	34.7770	8	27.805	0	1881.990	0	55.1	4	16.6	4	-1E+10	1	-1E+10	1	-1E+10	1	-1E+10	1	-1E+10	1	-1E+10	1
4901784	114	C	08/18/2018	10:48	-132.053	43.056	0	1910.00	0	1.9790	0	34.7780	8	27.806	0	1886.217	0	55.3	4	16.7	4	-1E+10	1	-1E+10	1	-1E+10	1	-1E+10	1	-1E+10	1	-1E+10	1
4901784	114	C	08/18/2018	10:48	-132.053	43.056	0	1914.50	0	1.9750	0	34.7790	8	27.807	0	1890.641	0	55.6	4	16.8	4	-1E+10	1	-1E+10	1	-1E+10	1	-1E+10	1	-1E+10	1	-1E+10	1
4901784	114	C	08/18/2018	10:48	-132.053	43.056	0	1919.70	0	1.9710	0	34.7800	8	27.808	0	1895.753	0	55.9	4	16.9	4	-1E+10	1	-1E+10	1	-1E+10	1	-1E+10	1	-1E+10	1	-1E+10	1
4901784	114	C	08/18/2018	10:48	-132.053	43.056	0	1925.00	0	1.9680	0	34.7800	8	27.808	0	1900.964	0	56.1	4	16.9	4	-1E+10	1	-1E+10	1	-1E+10	1	-1E+10	1	-1E+10	1	-1E+10	1
4901784	114	C	08/18/2018	10:48	-132.053	43.056	0	1930.40	0	1.9660	0	34.7800	8	27.808	0	1906.272	0	56.3	4	17.0	4	-1E+10	1	-1E+10	1	-1E+10	1	-1E+10	1	-1E+10	1	-1E+10	1
4901784	114	C	08/18/2018	10:48	-132.053	43.056	0	1935.70	0	1.9640	0	34.7810	8	27.809	0	1911.482	0	56.4	4	17.0	4	-1E+10	1	-1E+10	1	-1E+10	1	-1E+10	1	-1E+10	1	-1E+10	1
4901784	114	C	08/18/2018	10:48	-132.053	43.056	0	1940.10	0	1.9620	0	34.7810	8	27.810	0	1915.807	0	56.6	4	17.1	4	-1E+10	1	-1E+10	1	-1E+10	1	-1E+10	1	-1E+10	1	-1E+10	1
4901784	114	C	08/18/2018	10:48	-132.053	43.056	0	1944.60	0	1.9610	0	34.7810	8	27.810	0	1920.231	0	56.7	4	17.1	4	-1E+10	1	-1E+10	1	-1E+10	1	-1E+10	1	-1E+10	1	-1E+10	1
4901784	114	C	08/18/2018	10:48	-132.053	43.056	0	1950.00	0	1.9580	0	34.7820	8	27.811	0	1925.539	0	56.9	4	17.2	4	-1E+10	1	-1E+10	1	-1E+10	1	-1E+10	1	-1E+10	1	-1E+10	1
4901784	114	C	08/18/2018	10:48	-132.053	43.056	0	1955.40	0	1.9560	0	34.7820	8	27.811	0	1930.846	0	57.1	4	17.2	4	-1E+10	1	-1E+10	1	-1E+10	1	-1E+10	1	-1E+10	1	-1E+10	1
4901784	114	C	08/18/2018	10:48	-132.053	43.056	0	1960.70	0	1.9550	0	34.7820	8	27.811	0	1936.056	0	57.3	4	17.3	4	-1E+10	1	-1E+10	1	-1E+10	1	-1E+10	1	-1E+10	1	-1E+10	1
4901784	114	C	08/18/2018	10:48	-132.053	43.056	0	1965.20	0	1.9520	0	34.7830	8	27.812	0	1940.479	0	57.6	4	17.4	4	-1E+10	1	-1E+10	1	-1E+10	1	-1E+10	1	-1E+10	1	-1E+10	1
4901784	114	C	08/18/2018	10:48	-132.053	43.056	0	1969.60	0	1.9500	0	34.7830	8	27.812	0	1944.803	0	57.8	4	17.4	4	-1E+10	1	-1E+10	1	-1E+10	1	-1E+10	1	-1E+10	1	-1E+10	1
4901784	114	C	08/18/2018	10:48	-132.053	43.056	0	1975.10	0	1.9450	0	34.7840	8	27.814	0	1950.209	0	58.1	4	17.5	4	-1E+10	1	-1E+10	1	-1E+10	1	-1E+10	1	-1E+10	1	-1E+10	1
4901784	114	C	08/18/2018	10:48	-132.053	43.056	0	1980.10	0	1.9430	0	34.7840	8	27.814	0	1955.123	0	58.3	4	17.6	4	-1E+10	1	-1E+10	1	-1E+10	1	-1E+10	1	-1E+10	1	-1E+10	1
4901784	114	C	08/18/2018	10:48	-132.053	43.056	0	1984.30	0	1.9400	0	34.7850	8	27.815	0	1959.251	0	58.5	4	17.6	4	-1E+10	1	-1E+10	1	-1E+10	1	-1E+10	1	-1E+10	1	-1E+10	1
4901784	114	C	08/18/2018	10:48	-132.053	43.056	0	1990.00	0	1.9380	0	34.7850	8	27.815	0	1964.852	0	58.7	4	17.7	4	-1E+10	1	-1E+10	1	-1E+10	1	-1E+10	1	-1E+10	1	-1E+10	1
4901784	114	C	08/18/2018	10:48	-132.053	43.056	0	1995.60	0	1.9360	0	34.7860	8	27.816	0	1970.356	0	58.9	4	17.7	4	-1E+10	1	-1E+10	1	-1E+10	1	-1E+10	1	-1E+10	1	-1E+10	1
4901784	114	C	08/18/2018	10:48	-132.053	43.056	0	2000.40	0	1.9350	0	34.7860	8	27.816	0	1975.073	0	59.1	4	17.8	4	-1E+10	1	-1E+10	1	-1E+10	1	-1E+10	1	-1E+10	1	-1E+10	1
4901784	114	C	08/18/2018	10:48	-132.053	43.056	0	2005.30	0	1.9310	0	34.7860	8	27.816	0	1979.888	0	59.4	4	17.9	4	-1E+10	1	-1E+10	1	-1E+10	1	-1E+10	1	-1E+10	1	-1E+10	1
4901784	114	C	08/18/2018	10:48	-132.053	43.056	0	2010.30	0	1.9280	0	34.7870	8	27.817	0	1984.802	0	59.6	4	18.0	4	-1E+10	1	-1E+10	1	-1E+10	1	-1E+10	1	-1E+10	1	-1E+10	1
4901784	114	C	08/18/2018	10:48	-132.053	43.056	0	2015.20	0	1.9270	0	34.7870	8	27.818	0	1989.616	0	59.7	4	18.0	4	-1E+10	1	-1E+10	1	-1E+10	1	-1E+10	1	-1E+10	1	-1E+10	1
4901784	114	C	08/18/2018	10:48	-132.053	43.056	0	2020.40	0	1.9250	0	34.7880	8	27.819	0	1994.726	0	59.9	4	18.0	4	-1E+10	1	-1E+10	1	-1E+10	1	-1E+10	1	-1E+10	1	-1E+10	1
4901784	114	C	08/18/2018	10:48	-132.053	43.056	0																										
4901784	115	C	08/28/2018	10:47	-132.180	42.988	0	3.10	0	17.4890	0	33.0900	8	23.934	0	3.075	0	233.0	4	97.4	4	-1E+10	1	-1E+10	1	-1E+10	1	-1E+10	1	-1E+10	1	-1E+10	1
4901784	115	C	08/28/2018	10:47	-132.180	42.988	0	4.60	0	17.4920	0	33.0900	8	23.933	0	4.563	0	233.0	4	97.4	4	-1E+10	1	-1E+10	1	-1E+10	1	-1E+10	1	-1E+10	1	-1E+10	1
4901784	115	C	08/28/2018	10:47	-132.180	42.988	0	6.30	0	17.4950	0	33.0890	8	23.932	0	6.250	0	232.9	4	97.3	4	-1E+10	1	-1E+10	1	-1E+10	1	-1E+10	1	-1E+10	1	-1E+10	1
4901784	115	C	08/28/2018	10:47	-132.180	42.988	0	8.10	0	17.4980	0	33.0890	8	23.931	0	8.036	0	232.7	4	97.3	4	-1E+10	1	-1E+10	1	-1E+10	1	-1E+10	1	-1E+10	1	-1E+10	1
4901784	115	C	08/28/2018	10:47	-132.180	42.988	0	9.90	0	17.4990	0	33.0890	8	23.931	0	9.821	0	232.5	4	97.2	4	-1E+10	1	-1E+10	1	-1E+10	1	-1E+10	1	-1E+10	1	-1E+10	1
4901784	115	C	08/28/2018	10:47	-132.180	42.988	0	11.90	0	17.4990	0	33.0890	8	23.931	0	11.805	0	232.4	4	97.2	4	-1E+10	1	-1E+10	1	-1E+10	1	-1E+10	1	-1E+10	1	-1E+10	1
4901784	115	C	08/28/2018	10:47	-132.180	42.988	0	13.80	0	17.5000	0	33.0880	8	23.930	0	13.690	0	232.3	4	97.1	4	-1E+10	1	-1E+10	1	-1E+10	1	-1E+10	1	-1E+10	1	-1E+10	1
4901784	115	C	08/28/2018	10:47	-132.180	42.988	0	15.70	0	17.5000	0	33.0880	8	23.930	0	15.575	0	232.1	4	97.0	4	-1E+10	1	-1E+10	1	-1E+10	1	-1E+10	1	-1E+10	1	-1E+10	1
4901784	115	C	08/28/2018	10:47	-132.180	42.988	0	17.60	0	17.5000	0	33.0880	8	23.931	0	17.460	0	232.1	4	97.0	4	-1E+10	1	-1E+10	1	-1E+10	1	-1E+10	1	-1E+10	1	-1E+10	1
4901784	115	C	08/28/2018	10:47	-132.180	42.988	0	19.60	0	17.5000	0	33.0880	8	23.931	0	19.444	0	231.8	4	96.9	4	-1E+10	1	-1E+10	1	-1E+10	1	-1E+10	1	-1E+10	1	-1E+10	1
4901784	115	C	08/28/2018	10:47	-132.180	42.988	0	21.60	0	17.5000	0	33.0870	8	23.930	0	21.428	0	231.8	4	96.9	4	-1E+10	1	-1E+10	1	-1E+10	1	-1E+10	1	-1E+10	1	-1E+10	1
4901784	115	C	08/28/2018	10:47	-132.180	42.988	0	23.50	0	17.4980	0	33.0870	8	23.930	0	23.312	0	231.6	4	96.8	4	-1E+10	1	-1E+10	1	-1E+10	1	-1E+10	1	-1E+10	1	-1E+10	1
4901784	115	C	08/28/2018	10:47	-132.180	42.988	0	25.30	0	17.4980	0	33.0860	8	23.930	0	25.098	0	231.6	4	96.8	4	-1E+10	1	-1E+10	1	-1E+10	1	-1E+10	1	-1E+10	1	-1E+10	1
4901784	115	C	08/28/2018	10:47	-132.180	42.988	0	27.00	0	17.4990	0	33.0850	8	23.929	0	26.784	0	231.8	4	96.9	4	-1E+10	1	-1E+10	1	-1E+10	1	-1E+10	1	-1E+10	1	-1E+10	1
4901784	115	C	08/28/2018	10:47	-132.180	42.988	0	29.10	0	17.5020	0	33.0820	8	23.926	0	28.867	0	232.1	4	97.0	4	-1E+10	1	-1E+10	1	-1E+10	1	-1E+10	1	-1E+10	1	-1E+10	1
4901784	115	C	08/28/2018	10:47	-132.180	42.988	0	30.70	0	17.4990	0	33.0790	8	23.924	0	30.454	0	232.7	4	97.2	4	-1E+10	1	-1E+10	1	-1E+10	1	-1E+10	1	-1E+10	1	-1E+10	1
4901784	115	C	08/28/2018	10:47	-132.180	42.988	0	32.00	0	17.4980	0	33.0740	8	23.921	0	31.744	0	233.6	4	97.6	4	-1E+10	1	-1E+10	1	-1E+10	1	-1E+10	1	-1E+10	1	-1E+10	1
4901784	115	C	08/28/2018	10:47	-132.180	42.988	0	33.20	0	17.4990	0	33.0670	8	23.915	0	32.934	0	234.8	4	98.1	4	-1E+10	1	-1E+10	1	-1E+10	1	-1E+10	1	-1E+10	1	-1E+10	1
4901784	115	C	08/28/2018	10:47	-132.180	42.988	0	34.40	0	17.4990	0	33.0550	8	23.906	0	34.124	0	237.0	4	99.0	4	-1E+10	1	-1E+10	1	-1E+10	1	-1E+10	1	-1E+10	1	-1E+10	1
4901784	115	C	08/28/2018	10:47	-132.180	42.988	0	35.50	0	17.4980	0	33.0220	8	23.881	0	35.215	0	240.2	4	100.3	4	-1E+10	1	-1E+10	1	-1E+10	1	-1E+10	1	-1E+10	1	-1E+10	1
4901784	115	C	08/28/2018	10:47	-132.180	42.988	0	37.10	0	16.4070	0	32.9380	8	24.072	0	36.802	0	249.3	4	101.9	4	-1E+10	1	-1E+10	1	-1E+10	1	-1E+10	1	-1E+10	1	-1E+10	1
4901784	115	C	08/28/2018	10:47	-132.180	42.988	0	38.20	0	15.9000	0	32.8640	8	24.130	0	37.893	0	255.9	4	103.6	4	-1E+10	1	-1E+10	1	-1E+10	1	-1E+10	1	-1E+10	1	-1E+10	1
4901784	115	C	08/28/2018	10:47	-132.180	42.988	0	39.20	0	15.3370	0	32.8320	8	24.230	0	38.885	0	262.9	4	105.2	4	-1E+10	1	-1E+10	1	-1E+10	1	-1E+10	1	-1E+10	1	-1E+10	1
4901784	115	C	08/28/2018	10:47	-132.180	42.988	0	40.30	0	14.5950	0	32.8360	8	24.393	0	39.976	0	269.0	4	106.1	4	-1E+10	1	-1E+10	1	-1E+10	1	-1E+10	1	-1E+10	1	-1E+10	1
4901784	115	C	08/28/2018	10:47	-132.180	42.988	0	41.60	0	13.7510	0	32.8510	8	24.580	0	41.266	0	274.6	4	106.5	4	-1E+10	1	-1E+10	1	-1E+10	1	-1E+10	1	-1E+10	1	-1E+10	1
4901784	115	C	08/28/2018	10:47	-132.180	42.988	0	42.80	0	13.0020	0	32.8580	8	24.735	0	42.456	0	281.0	4	107.3	4	-1E+10	1	-1E+10	1	-1E+10	1	-1E+10	1	-1E+10	1	-1E+10	1
4901784	115	C	08/28/2018	10:47	-132.180	42.988	0	44.20	0	12.8290	0	32.8620	8	24.772	0	43.845	0	281.7	4	107.2	4	-1E+10	1	-1E+10	1	-1E+10	1	-1E+10	1	-1E+10	1	-1E+10	1
4901784	115	C	08/28/2018	10:47	-132.180	42.988	0	45.60	0	12.6690	0	32.8530	8	24.796	0	45.233	0	282.5	4	107.2	4	-1E+10	1	-1E+10	1	-1E+10	1	-1E+10	1	-1E+10	1	-1E+10	1
4901784	115	C	08/28/2018	10:47	-132.180	42.988	0	47.00	0	12.5570	0	32.8490	8	24.815	0	46.622	0	282.6	4	107.0	4	-1E+10	1	-1E+10	1	-1E+10	1	-1E+10	1	-1E+10	1	-1E+10	1
4901784	115	C	08/28/2018	10:47	-132.180	42.988	0	48.50	0	12.3540	0	32.8540	8	24.858	0	48.110	0	282.8	4	106.6	4	-1E+10	1	-1E+10	1	-1E+10	1	-1E+10	1	-1E+10	1	-1E+10	1
4901784	115	C	08/28/2018	10:47	-132.180	42.988	0	50.10	0	11.5590	0	32.8670	8	25.016	0	49.697	0	287.0	4	106.4	4	-1E+10	1	-1E+10	1	-1E+10	1	-1E+10	1	-1E+10	1	-1E+10	1
4901784	115	C	08/28/2018	10:47	-132.180	42.988	0	51.60	0	11.3570	0	32.8670	8	25.053	0	51.184	0	287.3	4	106.0	4	-1E+10	1	-1E+10	1	-1E+10	1	-1E+10	1	-1E+10	1	-1E+10	1
4901784	115	C	08/28/2018	10:47	-132.180	42.988	0	53.30	0	11.3300	0	32.8660	8	25.057	0	52.870	0	286.3	4	105.6	4	-1E+10	1	-1E+10	1	-1E+10	1	-1E+10	1	-1E+10	1	-1E+10	1
4901784	115	C	08/28/2018	10:47	-132.180	42.988	0	54.90	0	11.3580	0	32.8690	8	25.054	0	54.457	0	284.3	4	104.9	4	-1E+10	1	-1E+10	1	-1E+10	1	-1E+10	1	-1E+10	1	-1E+10	1
4901784	115	C	08/28/2018	10:47	-132.180	42.988	0	56.60	0	11.1330	0	32.8800	8	25.103	0	56.143	0	283.0	4	104.0	4	-1E+10	1	-1E+10	1	-1E+10	1	-1E+10	1	-1E+10	1	-1E+10	1
4901784	115	C	08/28/2018	10:47	-132.180	42.988	0	58.20	0	11.0070	0	32.9180	8	25.155	0	57.730	0	281.8	4	103.3	4	-1E+10	1	-1E+10	1	-1E+10	1	-1E+10	1	-1E+10	1	-1E+10	1
4901784	115	C	08/28/2018	10:47	-132.180	42.988	0	59.90	0	10.9260	0	32.9310	8	25.179	0	59.416	0	280.5	4	102.7	4	-1E+10	1	-1E+10	1	-1E+10	1	-1E+10	1	-1E+10	1	-1E+10	1
4901784	115	C	08/28/2018	10:47	-132.180	42.988	0	61.50	0	10.8930	0	32.9350	8	25.188	0	61.003	0	279.0	4	102.0	4	-1E+10	1	-1E+10	1	-1E+10	1	-1E+10	1	-1E+10	1	-1E+10	1
4901784	115	C	08/28/2018	10:47	-132.180	42.988	0	63.30	0	10.8320	0	32.9380	8	25.201	0	62.788	0	277.5	4	101.3	4	-1E+10	1	-1E+10	1	-1E+10	1	-1E+10	1	-1E+10	1	-1E+10	1
4901784	115	C	08/28/2018	10:47	-132.180	42.988	0	65.10	0	10.7560	0	32.9520	8	25.226	0	64.573	0	276.0	4	100.6	4	-1E+10	1	-1E+10	1	-1E+10	1	-1E+10	1	-1E+10	1	-1E+10	1
4901784	115	C	08/28/2018	10:47	-132.180	42.988	0	66.90	0	10.6700	0	32.9470	8	25.237	0	66.359	0	275.2	4	100.2	4	-1E+10	1	-1E+10	1	-1E+10	1	-1E+10	1	-1E+10	1	-1E+10	1
4901784	115	C	08/28/2018	10:47	-132.180	42.988	0	68.60	0	10.5750	0	32.9360	8	25.245	0	68.044	0	274.7	4	99.8	4	-1E+10	1	-1E+10	1	-1E+10	1	-1E+10	1	-1E+10	1	-1E+10	1
4901784	115	C	08/28/2018	10:47	-132.180	42.988	0	70.50	0	10.2870	0	32.9090	8	25.273	0	69.929	0	275.4	4	99.4	4	-1E+10	1	-1E+10	1	-1E+10	1	-1E+10	1	-1E+10	1	-1E+10	1
4901784	115	C	08/28/2018	10:47	-132.180	42.988	0	72.20	0	10.1590	0	32.8980	8	25.286	0	71.615	0	275.2	4	99.1	4	-1E+10	1	-1E+10	1	-1E+10	1	-1E+10	1	-1E+10	1	-1E+10	1
4901784	115	C	08/28/2018	10:47	-132.180	42.988	0	74.20	0	10.0410	0	32.8890	8	25.299	0	73.598	0	275.5	4	98.9	4	-1E+10	1	-1E+10	1	-1E+10	1	-1E+10	1	-1E+10	1	-1E+10	1
4901784	115	C	08/28/2018	10:47	-132.180	42.988	0	76.00	0	9.9800	0	32.8830	8	25.304	0	75.383	0	274.7	4	98.5	4	-1E+10	1	-1E+10	1	-1E+10	1	-1E+10	1	-1E+10	1	-1E+10	1
4901784	115	C	08/28/2018	10:47	-132.180	42.988	0	77.80	0	9.9430	0	32.8810	8	25.309	0	77.168	0	273.3	4	97.9	4	-1E+10	1	-1E+10	1	-1E+10	1	-1E+10	1	-1E+10	1	-1E+10	1
4901784	115	C	08/28/2018	10:47	-132.180	42.988	0	79.60	0	9.8760	0	32.8820	8	25.321	0	78.953	0	271.7	4	97.2	4	-1E+10	1	-1E+10	1	-1E+10	1	-1E+10	1	-1E+10	1	-1E+10	1
4901784	115	C	08/28/2018	10:47	-132.180	42.988	0	81.50	0	9.8260	0	32.8790	8	25.327	0	80.837	0	269.9	4	96.4	4	-1E+10	1	-1E+10	1	-1E+10	1	-1E+10	1	-1E+10	1	-1E+10	1
4901784	115	C	08/28/2018	10:47	-132.180	42.988	0	83.30	0	9.7550	0	32.8740	8	25.335	0	82.622	0	268.6	4	95.8	4	-1E+10	1	-1E+10	1	-1E+10	1	-1E+10	1	-1E+10	1	-1E+10	1
4901784	115	C	08/28/2018	10:47	-132.180	42.988	0	85.20	0	9.6950	0	32.8750	8	25.345	0	84.507	0	266.7	4	95.0	4	-1E+10	1	-1E+10	1	-1E+10	1	-1E+10	1	-1E+10	1	-1E+10	1
4901784	115	C	08/28/2018	10:47	-132.180	42.988	0	87.10	0	9.6420	0	32.8710	8	25.351	0	86.391	0	265.7	4	94.6	4	-1E+10	1	-1E+10	1	-1E+10	1	-1E+10	1	-1E+10	1	-1E+10	1
4901784	115	C	08/28/2018	10:47	-132.180	42.988	0	89.00	0	9.6040	0	32.8690	8	25.355	0	88.275	0	264.4	4	94.0	4	-1E+10	1	-1E+10	1	-1E+10	1	-1E+10	1	-1E+10	1	-1E+10	1
4901784	115	C	08/28/2018	10:47	-132.180	42.988	0	90.80	0	9.5550	0	32.8740	8	25.367	0	90.060	0	263.0	4	93.4	4	-1E+10	1	-1E+10	1	-1E+10	1	-1E+10	1	-1E+10	1	-1E+10	1
4901784	115	C	08/28/2018	10:47	-132.180	42.988	0	92.70	0	9.5360	0	32.8750	8	25.371	0	91.944	0	261.5	4	92.9	4	-1E+10	1	-1E+10	1	-1E+10	1	-1E+10	1	-1E+10	1	-1E+10	1
4901784	115	C	08/28/2018	10:47	-132.180	42.988	0	94.60	0	9.5180	0	32.8800	8	25.378	0	93.828	0	259.7	4	92.2	4	-1E+10	1	-1E+10	1	-1E+10	1	-1E+10	1	-1E+10	1	-1E+10	1
4901784	115	C	08/28/2018	10:47	-132.180	42.988	0	96.80	0	9.5000	0	32.8910	8	25.390	0	96.010	0	257.5	4	91.4	4	-1E+10	1	-1E+10	1	-1E+10	1	-1E+10	1	-1E+10	1	-1E+10	1
4901784	115	C	08/28/2018	10:47	-132.180	42.988	0	98.50	0	9.5150	0	32.9050	8	25.398	0	97.695	0	255.9	4	90.8	4	-1E+10	1	-1E+10	1	-1E+10	1	-1E+10	1	-1E+10	1	-1E+10	1
4901784	115	C	08/28/2018	10:47	-132.180	42.988	0	100.00	0	9.5150	0	32.9100	8	25.402	0	99.183	0	254.9	4	90.5	4	-1E+10	1	-1E+10	1	-1E+10	1	-1E+10	1	-1E+10	1	-1E+10	1
4901784	115	C	08/28/2018	10:47	-132.180	42.988	0	102.30	0	9.4760	0	32.9180	8	25.415	0	101.463	0	253.0	4	89.8	4	-1E+10	1	-1E+10	1	-1E+10	1	-1E+10	1	-1E+10	1	-1E+10	1
4901784	115	C	08/28/2018	10:47	-132.180	42.988	0	105.30	0	9.3040	0	32.9300	8	25.452	0	104.438	0	251.6	4	88.9	4	-1E+10	1	-1E+10	1	-1E+10	1	-1E+10	1	-1E+10	1	-1E+10	1
4901784	115	C	08/28/2018	10:47	-132.180	42.988	0	107.60	0	9.2260	0	32.9320	8	25.466	0	106.719	0	250.5	4	88.4	4	-1E+10	1	-1E+10	1	-1E+10	1	-1E+10	1	-1E+10	1	-1E+10	1
4901784	115	C	08/28/2018	10:47	-132.180	42.988	0	109.80	0	9.1610	0	32.9490	8	25.489	0	108.900	0	248.4	4	87.5	4	-1E+10	1	-1E+10	1	-1E+10	1	-1E+10	1	-1E+10	1	-1E+10	1
4901784	115	C	08/28/2018	10:47	-132.180	42.988	0	112.70	0	9.0330	0	32.9910	8	25.542	0	111.775	0	245.5	4	86.3	4	-1E+10	1	-1E+10	1	-1E+10	1	-1E+10	1	-1E+10	1	-1E+10	1
4901784	115	C	08/28/2018	10:47	-132.180	42.988	0	115.00	0	8.9170	0	33.0340	8	25.594	0	114.056	0	243.8	4	85.5	4	-1E+10	1	-1E+10	1	-1E+10	1	-1E+10	1	-1E+10	1	-1E+10	1
4901784	115	C	08/28/2018	10:47	-132.180	42.988	0	117.50	0	8.8530	0	33.0850	8	25.644	0	116.535	0	241.2	4	84.5	4	-1E+10	1	-1E+10	1	-1E+10	1	-1E+10	1	-1E+10	1	-1E+10	1
4901784	115	C	08/28/2018	10:47	-132.180	42.988	0	120.10	0	8.6530	0	33.1710	8	25.742	0	119.113	0	239.9	4	83.7	4	-1E+10	1	-1E+10	1	-1E+10	1	-1E+10	1	-1E+10	1	-1E+10	1
4901784	115	C	08/28/2018	10:47	-132.180	42.988	0	122.70	0	8.6010	0	33.1770	8	25.755	0	121.690	0	238.4	4	83.1	4	-1E+10	1	-1E+10	1	-1E+10	1	-1E+10	1	-1E+10	1	-1E+10	1
4901784	115	C	08/28/2018	10:47	-132.180	42.988	0	125.40	0	8.3990	0	33.2260	8	25.824	0	124.367	0	236.9	4	82.2	4	-1E+10	1	-1E+10	1	-1E+10	1	-1E+10	1	-1E+10	1	-1E+10	1
4901784	115	C	08/28/2018	10:47	-132.180	42.988	0	127.10	0	8.3630	0	33.2310	8	25.833	0	126.053	0	235.5	4	81.7	4	-1E+10	1	-1E+10	1	-1E+10	1	-1E+10	1	-1E+10	1	-1E+10	1
4901784	115	C	08/28/2018	10:47	-132.180	42.988	0	129.80	0	8.1620	0	33.2870	8	25.907	0	128.730	0	232.5	4	80.3	4	-1E+10	1	-1E+10	1	-1E+10	1	-1E+10	1	-1E+10	1	-1E+10	1
4901784	115	C	08/28/2018	10:47	-132.180	42.988	0	132.50	0	8.0760	0	33.3410	8	25.962	0	131.407	0	228.4	4	78.8	4	-1E+10	1	-1E+10	1	-1E+10	1	-1E+10	1	-1E+10	1	-1E+10	1
4901784	115	C	08/28/2018	10:47	-132.180	42.988	0	134.30	0	8.0810	0	33.3680	8	25.983	0	133.191	0	225.4	4	77.8	4	-1E+10	1	-1E+10	1	-1E+10	1	-1E+10	1	-1E+10	1	-1E+10	1
4901784	115	C	08/28/2018	10:47	-132.180	42.988	0	137.30	0	8.1120	0	33.4110	8	26.012	0	136.165	0	219.6	4	75.9	4	-1E+10	1	-1E+10	1	-1E+10	1	-1E+10	1	-1E+10	1	-1E+10	1
4901784	115	C	08/28/2018	10:47	-132.180	42.988	0	140.20	0	8.1640	0	33.4750	8	26.054	0	139.041	0	214.8	4	74.3	4	-1E+10	1	-1E+10	1	-1E+10	1	-1E+10	1	-1E+10	1	-1E+10	1
4901784	115	C	08/28/2018	10:47	-132.180	42.988	0	142.60	0	8.1670	0	33.5040	8	26.077	0	141.420	0	211.0	4	73.0	4	-1E+10	1	-1E+10	1	-1E+10	1	-1E+10	1	-1E+10	1	-1E+10	1
4901784	115	C	08/28/2018	10:47	-132.180	42.988	0	145.10	0	8.1900	0	33.5770	8	26.131	0	143.898	0	206.4	4	71.5	4	-1E+10	1	-1E+10	1	-1E+10	1	-1E+10	1	-1E+10	1	-1E+10	1
4901784	115	C	08/28/2018	10:47	-132.180	42.988	0	147.50	0	8.2000	0	33.6240	8	26.166	0	146.278	0	202.3	4	70.1	4	-1E+10	1	-1E+10	1	-1E+10	1	-1E+10	1	-1E+10	1	-1E+10	1
4901784	115	C	08/28/2018	10:47	-132.180	42.988	0	150.10	0	8.2330	0	33.6780	8	26.204	0	148.855	0	197.0	4	68.4	4	-1E+10	1	-1E+10	1	-1E+10	1	-1E+10	1	-1E+10	1	-1E+10	1
4901784	115	C	08/28/2018	10:47	-132.180	42.988	0	152.80	0	8.2710	0	33.7520	8	26.256	0	151.532	0	192.8	4	67.0	4	-1E+10	1	-1E+10	1	-1E+10	1	-1E+10	1	-1E+10	1	-1E+10	1
4901784	115	C	08/28/2018	10:47	-132.180	42.988	0	155.40	0	8.2940	0	33.8070	8	26.296	0	154.109	0	188.7	4	65.6	4	-1E+10	1	-1E+10	1	-1E+10	1	-1E+10	1	-1E+10	1	-1E+10	1
4901784	115	C	08/28/2018	10:47	-132.180	42.988	0	157.20	0	8.3110	0	33.8550	8	26.331	0	155.894	0	185.7	4	64.6	4	-1E+10	1	-1E+10	1	-1E+10	1	-1E+10	1	-1E+10	1	-1E+10	1
4901784	115	C	08/28/2018	10:47	-132.180	42.988	0	159.90	0	8.3530	0	33.9260	8	26.380	0	158.570	0	182.4	4	63.6	4	-1E+10	1	-1E+10	1	-1E+10	1	-1E+10	1	-1E+10	1	-1E+10	1
4901784	115	C	08/28/2018	10:47	-132.180	42.988	0	162.60	0	8.3700	0	33.9530	8	26.399	0	161.247	0	180.1	4	62.8	4	-1E+10	1	-1E+10	1	-1E+10	1	-1E+10	1	-1E+10	1	-1E+10	1
4901784	115	C	08/28/2018	10:47	-132.180	42.988	0	164.50	0	8.3860	0	33.9870	8	26.423	0	163.130	0	178.9	4	62.4	4	-1E+10	1	-1E+10	1	-1E+10	1	-1E+10	1	-1E+10	1	-1E+10	1
4901784	115	C	08/28/2018	10:47	-132.180	42.988	0	167.30	0	8.3910	0	34.0030	8	26.435	0	165.906	0	177.5	4	62.0	4	-1E+10	1	-1E+10	1	-1E+10	1	-1E+10	1	-1E+10	1	-1E+10	1
4901784	115	C	08/28/2018	10:47	-132.180	42.988	0	170.10	0	8.4030	0	34.0370	8	26.460	0	168.681	0	176.1	4	61.5	4	-1E+10	1	-1E+10	1	-1E+10	1	-1E+10	1	-1E+10	1	-1E+10	1
4901784	115	C	08/28/2018	10:47	-132.180	42.988	0	171.90	0	8.4120	0	34.0580	8	26.475	0	170.465	0	175.4	4	61.3	4	-1E+10	1	-1E+10	1	-1E+10	1	-1E+10	1	-1E+10	1	-1E+10	1
4901784	115	C	08/28/2018	10:47	-132.180	42.988	0	174.70	0	8.4140	0	34.0820	8	26.494	0	173.241	0	174.6	4	61.0	4	-1E+10	1	-1E+10	1	-1E+10	1	-1E+10	1	-1E+10	1	-1E+10	1
4901784	115	C	08/28/2018	10:47	-132.180	42.988	0	177.50	0	8.4160	0	34.1040	8	26.511	0	176.016	0	173.8	4	60.7	4	-1E+10	1	-1E+10	1	-1E+10	1	-1E+10	1	-1E+10	1	-1E+10	1
4901784	115	C	08/28/2018	10:47	-132.180	42.988	0	180.00	0	8.4080	0	34.1260	8	26.529	0	178.494	0	172.9	4	60.4	4	-1E+10	1	-1E+10	1	-1E+10	1	-1E+10	1	-1E+10	1	-1E+10	1
4901784	115	C	08/28/2018	10:47	-132.180	42.988	0	182.60	0	8.3810	0	34.1390	8	26.543	0	181.071	0	171.2	4	59.8	4	-1E+10	1	-1E+10	1	-1E+10	1	-1E+10	1	-1E+10	1	-1E+10	1
4901784	115	C	08/28/2018	10:47	-132.180	42.988	0	184.90	0	8.3380	0	34.1470	8	26.556	0	183.351	0	169.4	4	59.1	4	-1E+10	1	-1E+10	1	-1E+10	1	-1E+10	1	-1E+10	1	-1E+10	1
4901784	115	C	08/28/2018	10:47	-132.180	42.988	0	187.30	0	8.2740	0	34.1500	8	26.568	0	185.730	0	168.3	4	58.6	4	-1E+10	1	-1E+10	1	-1E+10	1	-1E+10	1	-1E+10	1	-1E+10	1
4901784	115	C	08/28/2018	10:47	-132.180	42.988	0	189.70	0	8.2280	0	34.1560	8	26.580	0	188.109	0	167.3	4	58.3	4	-1E+10	1	-1E+10	1	-1E+10	1	-1E+10	1	-1E+10	1	-1E+10	1
4901784	115	C	08/28/2018	10:47	-132.180	42.988	0	192.10	0	8.1900	0	34.1630	8	26.591	0	190.487	0	166.5	4	57.9	4	-1E+10	1	-1E+10	1	-1E+10	1	-1E+10	1	-1E+10	1	-1E+10	1
4901784	115	C	08/28/2018	10:47	-132.180	42.988	0	195.40	0	8.1510	0	34.1650	8	26.599	0	193.758	0	166.1	4	57.7	4	-1E+10	1	-1E+10	1	-1E+10	1	-1E+10	1	-1E+10	1	-1E+10	1
4901784	115	C	08/28/2018	10:47	-132.180	42.988	0	197.90	0	8.1540	0	34.1710	8	26.603	0	196.236	0	165.7	4	57.6	4	-1E+10	1	-1E+10	1	-1E+10	1	-1E+10	1	-1E+10	1	-1E+10	1
4901784	115	C	08/28/2018	10:47	-132.180	42.988	0	200.30	0	8.1270	0	34.1740	8	26.609	0	198.615	0	164.9	4	57.3	4	-1E+10	1	-1E+10	1	-1E+10	1	-1E+10	1	-1E+10	1	-1E+10	1
4901784	115	C	08/28/2018	10:47	-132.180	42.988	0	202.80	0	8.1080	0	34.1740	8	26.612	0	201.092	0	164.1	4	57.0	4	-1E+10	1	-1E+10	1	-1E+10	1	-1E+10	1	-1E+10	1	-1E+10	1
4901784	115	C	08/28/2018	10:47	-132.180	42.988	0	205.30	0	8.0850	0	34.1730	8	26.615	0	203.570	0	162.8	4	56.5	4	-1E+10	1	-1E+10	1	-1E+10	1	-1E+10	1	-1E+10	1	-1E+10	1
4901784	115	C	08/28/2018	10:47	-132.180	42.988	0	207.80	0	8.0010	0	34.1680	8	26.624	0	206.048	0	161.3	4	55.9	4	-1E+10	1	-1E+10	1	-1E+10	1	-1E+10	1	-1E+10	1	-1E+10	1
4901784	115	C	08/28/2018	10:47	-132.180	42.988	0	210.30	0	7.9700	0	34.1680	8	26.628	0	208.525	0	159.9	4	55.4	4	-1E+10	1	-1E+10	1	-1E+10	1	-1E+10	1	-1E+10	1	-1E+10	1
4901784	115	C	08/28/2018	10:47	-132.180	42.988	0	212.90	0	7.9170	0	34.1680	8	26.636	0	211.102	0	158.4	4	54.8	4	-1E+10	1	-1E+10	1	-1E+10	1	-1E+10	1	-1E+10	1	-1E+10	1
4901784	115	C	08/28/2018	10:47	-132.180	42.988	0	214.70	0	7.8910	0	34.1650	8	26.638	0	212.886	0	157.7	4	54.5	4	-1E+10	1	-1E+10	1	-1E+10	1	-1E+10	1	-1E+10	1	-1E+10	1
4901784	115	C	08/28/2018	10:47	-132.180	42.988	0	217.20	0	7.8390	0	34.1660	8	26.646	0	215.364	0	156.3	4	54.0	4	-1E+10	1	-1E+10	1	-1E+10	1	-1E+10	1	-1E+10	1	-1E+10	1
4901784	115	C	08/28/2018	10:47	-132.180	42.988	0	219.70	0	7.7860	0	34.1690	8	26.656	0	217.841	0	155.2	4	53.5	4	-1E+10	1	-1E+10	1	-1E+10	1	-1E+10	1	-1E+10	1	-1E+10	1
4901784	115	C	08/28/2018	10:47	-132.180	42.988	0	222.30	0	7.7580	0	34.1650	8	26.657	0	220.418	0	154.3	4	53.2	4	-1E+10	1	-1E+10	1	-1E+10	1	-1E+10	1	-1E+10	1	-1E+10	1
4901784	115	C	08/28/2018	10:47	-132.180	42.988	0	224.80	0	7.7350	0	34.1640	8	26.660	0	222.895	0	153.3	4	52.8	4	-1E+10	1	-1E+10	1	-1E+10	1	-1E+10	1	-1E+10	1	-1E+10	1
4901784	115	C	08/28/2018	10:47	-132.180	42.988	0	227.40	0	7.6900	0	34.1650	8	26.667	0	225.472	0	152.2	4	52.4	4	-1E+10	1	-1E+10	1	-1E+10	1	-1E+10	1	-1E+10	1	-1E+10	1
4901784	115	C	08/28/2018	10:47	-132.180	42.988	0	229.90	0	7.6550	0	34.1650	8	26.672	0	227.949	0	151.0	4	51.9	4	-1E+10	1	-1E+10	1	-1E+10	1	-1E+10	1	-1E+10	1	-1E+10	1
4901784	115	C	08/28/2018	10:47	-132.180	42.988	0	232.50	0	7.6290	0	34.1660	8	26.677	0	230.526	0	150.0	4	51.5	4	-1E+10	1	-1E+10	1	-1E+10	1	-1E+10	1	-1E+10	1	-1E+10	1
4901784	115	C	08/28/2018	10:47	-132.180	42.988	0	235.10	0	7.6160	0	34.1670	8	26.679	0	233.102	0	148.3	4	50.9	4	-1E+10	1	-1E+10	1	-1E+10	1	-1E+10	1	-1E+10	1	-1E+10	1
4901784	115	C	08/28/2018	10:47	-132.180	42.988	0	237.70	0	7.5460	0	34.1650	8	26.688	0	235.679	0	146.3	4	50.2	4	-1E+10	1	-1E+10	1	-1E+10	1	-1E+10	1	-1E+10	1	-1E+10	1
4901784	115	C	08/28/2018	10:47	-132.180	42.988	0	240.20	0	7.4720	0	34.1650	8	26.698	0	238.156	0	144.4	4	49.4	4	-1E+10	1	-1E+10	1	-1E+10	1	-1E+10	1	-1E+10	1	-1E+10	1
4901784	115	C	08/28/2018	10:47	-132.180	42.988	0	242.80	0	7.4130	0	34.1590	8	26.702	0	240.732	0	142.7	4	48.8	4	-1E+10	1	-1E+10	1	-1E+10	1	-1E+10	1	-1E+10	1	-1E+10	1
4901784	115	C	08/28/2018	10:47	-132.180	42.988	0	245.30	0	7.3580	0	34.1580	8	26.709	0	243.210	0	141.1	4	48.2	4	-1E+10	1	-1E+10	1	-1E+10	1	-1E+10	1	-1E+10	1	-1E+10	1
4901784	115	C	08/28/2018	10:47	-132.180	42.988	0	247.80	0	7.3000	0	34.1570	8	26.717	0	245.687	0	139.6	4	47.6	4	-1E+10	1	-1E+10	1	-1E+10	1	-1E+10	1	-1E+10	1	-1E+10	1
4901784	115	C	08/28/2018	10:47	-132.180	42.988	0	250.30	0	7.2460	0	34.1560	8	26.723	0	248.164	0	138.5	4	47.2	4	-1E+10	1	-1E+10	1	-1E+10	1	-1E+10	1	-1E+10	1	-1E+10	1
4901784	115	C	08/28/2018	10:47	-132.180	42.988	0	252.70	0	7.1900	0	34.1570	8	26.732	0	250.542	0	137.2	4	46.7	4	-1E+10	1	-1E+10	1	-1E+10	1	-1E+10	1	-1E+10	1	-1E+10	1
4901784	115	C	08/28/2018	10:47	-132.180	42.988	0	255.20	0	7.1390	0	34.1550	8	26.737	0	253.019	0	135.8	4	46.1	4	-1E+10	1	-1E+10	1	-1E+10	1	-1E+10	1	-1E+10	1	-1E+10	1
4901784	115	C	08/28/2018	10:47	-132.180	42.988	0	257.70	0	7.1030	0	34.1550	8	26.742	0	255.496	0	134.6	4	45.7	4	-1E+10	1	-1E+10	1	-1E+10	1	-1E+10	1	-1E+10	1	-1E+10	1
4901784	115	C	08/28/2018	10:47	-132.180	42.988	0	260.20	0	7.0610	0	34.1550	8	26.748	0	257.973	0	133.6	4	45.3	4	-1E+10	1	-1E+10	1	-1E+10	1	-1E+10	1	-1E+10	1	-1E+10	1
4901784	115	C	08/28/2018	10:47	-132.180	42.988	0	262.70	0	7.0260	0	34.1530	8	26.752	0	260.450	0	132.5	4	44.9	4	-1E+10	1	-1E+10	1	-1E+10	1	-1E+10	1	-1E+10	1	-1E+10	1
4901784	115	C	08/28/2018	10:47	-132.180	42.988	0	265.10	0	6.9800	0	34.1520	8	26.757	0	262.828	0	131.4	4	44.5	4	-1E+10	1	-1E+10	1	-1E+10	1	-1E+10	1	-1E+10	1	-1E+10	1
4901784	115	C	08/28/2018	10:47	-132.180	42.988	0	267.60	0	6.9470	0	34.1530	8	26.762	0	265.305	0	130.5	4	44.1	4	-1E+10	1	-1E+10	1	-1E+10	1	-1E+10	1	-1E+10	1	-1E+10	1
4901784	115	C	08/28/2018	10:47	-132.180	42.988	0	270.10	0	6.9070	0	34.1530	8	26.768	0	267.782	0	129.8	4	43.9	4	-1E+10	1	-1E+10	1	-1E+10	1	-1E+10	1	-1E+10	1	-1E+10	1
4901784	115	C	08/28/2018	10:47	-132.180	42.988	0	272.70	0	6.8870	0	34.1530	8	26.771	0	270.358	0	128.8	4	43.5	4	-1E+10	1	-1E+10	1	-1E+10	1	-1E+10	1	-1E+10	1	-1E+10	1
4901784	115	C	08/28/2018	10:47	-132.180	42.988	0	275.20	0	6.8480	0	34.1520	8	26.775	0	272.835	0	127.5	4	43.0	4	-1E+10	1	-1E+10	1	-1E+10	1	-1E+10	1	-1E+10	1	-1E+10	1
4901784	115	C	08/28/2018	10:47	-132.180	42.988	0	277.70	0	6.8130	0	34.1500	8	26.778	0	275.312	0	126.0	4	42.5	4	-1E+10	1	-1E+10	1	-1E+10	1	-1E+10	1	-1E+10	1	-1E+10	1
4901784	115	C	08/28/2018	10:47	-132.180	42.988	0	280.30	0	6.7300	0	34.1520	8	26.791	0	277.888	0	124.7	4	42.0	4	-1E+10	1	-1E+10	1	-1E+10	1	-1E+10	1	-1E+10	1	-1E+10	1
4901784	115	C	08/28/2018	10:47	-132.180	42.988	0	282.80	0	6.6800	0	34.1500	8	26.796	0	280.365	0	123.4	4	41.5	4	-1E+10	1	-1E+10	1	-1E+10	1	-1E+10	1	-1E+10	1	-1E+10	1
4901784	115	C	08/28/2018	10:47	-132.180	42.988	0	285.30	0	6.6210	0	34.1500	8	26.804	0	282.841	0	122.4	4	41.1	4	-1E+10	1	-1E+10	1	-1E+10	1	-1E+10	1	-1E+10	1	-1E+10	1
4901784	115	C	08/28/2018	10:47	-132.180	42.988	0	287.90	0	6.5830	0	34.1510	8	26.810	0	285.417	0	121.5	4	40.8	4	-1E+10	1	-1E+10	1	-1E+10	1	-1E+10	1	-1E+10	1	-1E+10	1
4901784	115	C	08/28/2018	10:47	-132.180	42.988	0	290.40	0	6.5480	0	34.1500	8	26.814	0	287.894	0	120.7	4	40.4	4	-1E+10	1	-1E+10	1	-1E+10	1	-1E+10	1	-1E+10	1	-1E+10	1
4901784	115	C	08/28/2018	10:47	-132.180	42.988	0	292.20	0	6.5260	0	34.1490	8	26.816	0	289.677	0	120.0	4	40.2	4	-1E+10	1	-1E+10	1	-1E+10	1	-1E+10	1	-1E+10	1	-1E+10	1
4901784	115	C	08/28/2018	10:47	-132.180	42.988	0	294.80	0	6.4780	0	34.1490	8	26.822	0	292.253	0	119.0	4	39.8	4	-1E+10	1	-1E+10	1	-1E+10	1	-1E+10	1	-1E+10	1	-1E+10	1
4901784	115	C	08/28/2018	10:47	-132.180	42.988	0	297.50	0	6.4270	0	34.1480	8	26.828	0	294.927	0	118.3	4	39.6	4	-1E+10	1	-1E+10	1	-1E+10	1	-1E+10	1	-1E+10	1	-1E+10	1
4901784	115	C	08/28/2018	10:47	-132.180	42.988	0	300.20	0	6.3990	0	34.1480	8	26.832	0	297.602	0	117.5	4	39.3	4	-1E+10	1	-1E+10	1	-1E+10	1	-1E+10	1	-1E+10	1	-1E+10	1
4901784	115	C	08/28/2018	10:47	-132.180	42.988	0	302.80	0	6.3560	0	34.1480	8	26.837	0	300.178	0	116.8	4	39.0	4	-1E+10	1	-1E+10	1	-1E+10	1	-1E+10	1	-1E+10	1	-1E+10	1
4901784	115	C	08/28/2018	10:47	-132.180	42.988	0	304.60	0	6.3430	0	34.1470	8	26.838	0	301.961	0	116.3	4	38.8	4	-1E+10	1	-1E+10	1	-1E+10	1	-1E+10	1	-1E+10	1	-1E+10	1
4901784	115	C	08/28/2018	10:47	-132.180	42.988	0	307.20	0	6.3300	0	34.1460	8	26.839	0	304.536	0	115.4	4	38.5	4	-1E+10	1	-1E+10	1	-1E+10	1	-1E+10	1	-1E+10	1	-1E+10	1
4901784	115	C	08/28/2018	10:47	-132.180	42.988	0	309.90	0	6.3020	0	34.1430	8	26.841	0	307.211	0	114.3	4	38.1	4	-1E+10	1	-1E+10	1	-1E+10	1	-1E+10	1	-1E+10	1	-1E+10	1
4901784	115	C	08/28/2018	10:47	-132.180	42.988	0	312.60	0	6.2300	0	34.1450	8	26.851	0	309.886	0	113.3	4	37.7	4	-1E+10	1	-1E+10	1	-1E+10	1	-1E+10	1	-1E+10	1	-1E+10	1
4901784	115	C	08/28/2018	10:47	-132.180	42.988	0	315.30	0	6.1770	0	34.1440	8	26.857	0	312.560	0	112.5	4	37.4	4	-1E+10	1	-1E+10	1	-1E+10	1	-1E+10	1	-1E+10	1	-1E+10	1
4901784	115	C	08/28/2018	10:47	-132.180	42.988	0	317.10	0	6.1580	0	34.1430	8	26.859	0	314.343	0	112.1	4	37.2	4	-1E+10	1	-1E+10	1	-1E+10	1	-1E+10	1	-1E+10	1	-1E+10	1
4901784	115	C	08/28/2018	10:47	-132.180	42.988	0	319.90	0	6.1440	0	34.1420	8	26.860	0	317.117	0	111.1	4	36.9	4	-1E+10	1	-1E+10	1	-1E+10	1	-1E+10	1	-1E+10	1	-1E+10	1
4901784	115	C	08/28/2018	10:47	-132.180	42.988	0	323.10	0	6.1020	0	34.1410	8	26.865	0	320.286	0	109.8	4	36.4	4	-1E+10	1	-1E+10	1	-1E+10	1	-1E+10	1	-1E+10	1	-1E+10	1
4901784	115	C	08/28/2018	10:47	-132.180	42.988	0	325.00	0	6.0820	0	34.1410	8	26.867	0	322.168	0	108.7	4	36.0	4	-1E+10	1	-1E+10	1	-1E+10	1	-1E+10	1	-1E+10	1	-1E+10	1
4901784	115	C	08/28/2018	10:47	-132.180	42.988	0	327.40	0	6.0480	0	34.1410	8	26.872	0	324.546	0	107.2	4	35.5	4	-1E+10	1	-1E+10	1	-1E+10	1	-1E+10	1	-1E+10	1	-1E+10	1
4901784	115	C	08/28/2018	10:47	-132.180	42.988	0	329.80	0	5.9930	0	34.1400	8	26.878	0	326.923	0	105.7	4	35.0	4	-1E+10	1	-1E+10	1	-1E+10	1	-1E+10	1	-1E+10	1	-1E+10	1
4901784	115	C	08/28/2018	10:47	-132.180	42.988	0	332.10	0	5.9590	0	34.1410	8	26.883	0	329.201	0	104.5	4	34.6	4	-1E+10	1	-1E+10	1	-1E+10	1	-1E+10	1	-1E+10	1	-1E+10	1
4901784	115	C	08/28/2018	10:47	-132.180	42.988	0	335.30	0	5.9340	0	34.1410	8	26.886	0	332.370	0	102.9	4	34.0	4	-1E+10	1	-1E+10	1	-1E+10	1	-1E+10	1	-1E+10	1	-1E+10	1
4901784	115	C	08/28/2018	10:47	-132.180	42.988	0	337.60	0	5.9160	0	34.1400	8	26.887	0	334.648	0	101.6	4	33.5	4	-1E+10	1	-1E+10	1	-1E+10	1	-1E+10	1	-1E+10	1	-1E+10	1
4901784	115	C	08/28/2018	10:47	-132.180	42.988	0	340.00	0	5.8880	0	34.1400	8	26.891	0	337.025	0	99.9	4	33.0	4	-1E+10	1	-1E+10	1	-1E+10	1	-1E+10	1	-1E+10	1	-1E+10	1
4901784	115	C	08/28/2018	10:47	-132.180	42.988	0	342.40	0	5.8570	0	34.1400	8	26.895	0	339.402	0	98.3	4	32.4	4	-1E+10	1	-1E+10	1	-1E+10	1	-1E+10	1	-1E+10	1	-1E+10	1
4901784	115	C	08/28/2018	10:47	-132.180	42.988	0	344.90	0	5.8270	0	34.1410	8	26.899	0	341.879	0	96.5	4	31.8	4	-1E+10	1	-1E+10	1	-1E+10	1	-1E+10	1	-1E+10	1	-1E+10	1
4901784	115	C	08/28/2018	10:47	-132.180	42.988	0	347.30	0	5.7900	0	34.1430	8	26.905	0	344.255	0	94.8	4	31.2	4	-1E+10	1	-1E+10	1	-1E+10	1	-1E+10	1	-1E+10	1	-1E+10	1
4901784	115	C	08/28/2018	10:47	-132.180	42.988	0	349.80	0	5.7480	0	34.1430	8	26.911	0	346.731	0	93.3	4	30.7	4	-1E+10	1	-1E+10	1	-1E+10	1	-1E+10	1	-1E+10	1	-1E+10	1
4901784	115	C	08/28/2018	10:47	-132.180	42.988	0	352.30	0	5.7220	0	34.1430	8	26.914	0	349.207	0	91.9	4	30.2	4	-1E+10	1	-1E+10	1	-1E+10	1	-1E+10	1	-1E+10	1	-1E+10	1
4901784	115	C	08/28/2018	10:47	-132.180	42.988	0	354.70	0	5.6830	0	34.1450	8	26.920	0	351.584	0	90.6	4	29.8	4	-1E+10	1	-1E+10	1	-1E+10	1	-1E+10	1	-1E+10	1	-1E+10	1
4901784	115	C	08/28/2018	10:47	-132.180	42.988	0	357.20	0	5.6440	0	34.1470	8	26.927	0	354.060	0	89.6	4	29.4	4	-1E+10	1	-1E+10	1	-1E+10	1	-1E+10	1	-1E+10	1	-1E+10	1
4901784	115	C	08/28/2018	10:47	-132.180	42.988	0	359.70	0	5.6340	0	34.1460	8	26.927	0	356.536	0	89.0	4	29.2	4	-1E+10	1	-1E+10	1	-1E+10	1	-1E+10	1	-1E+10	1	-1E+10	1
4901784	115	C	08/28/2018	10:47	-132.180	42.988	0	362.20	0	5.6210	0	34.1450	8	26.928	0	359.012	0	88.1	4	28.9	4	-1E+10	1	-1E+10	1	-1E+10	1	-1E+10	1	-1E+10	1	-1E+10	1
4901784	115	C	08/28/2018	10:47	-132.180	42.988	0	364.80	0	5.5800	0	34.1470	8	26.934	0	361.587	0	87.0	4	28.5	4	-1E+10	1	-1E+10	1	-1E+10	1	-1E+10	1	-1E+10	1	-1E+10	1
4901784	115	C	08/28/2018	10:47	-132.180	42.988	0	367.40	0	5.5590	0	34.1470	8	26.937	0	364.162	0	85.9	4	28.1	4	-1E+10	1	-1E+10	1	-1E+10	1	-1E+10	1	-1E+10	1	-1E+10	1
4901784	115	C	08/28/2018	10:47	-132.180	42.988	0	369.90	0	5.5190	0	34.1480	8	26.943	0	366.637	0	84.7	4	27.7	4	-1E+10	1	-1E+10	1	-1E+10	1	-1E+10	1	-1E+10	1	-1E+10	1
4901784	115	C	08/28/2018	10:47	-132.180	42.988	0	372.40	0	5.4800	0	34.1500	8	26.949	0	369.113	0	83.9	4	27.4	4	-1E+10	1	-1E+10	1	-1E+10	1	-1E+10	1	-1E+10	1	-1E+10	1
4901784	115	C	08/28/2018	10:47	-132.180	42.988	0	375.00	0	5.4590	0	34.1500	8	26.951	0	371.688	0	83.0	4	27.1	4	-1E+10	1	-1E+10	1	-1E+10	1	-1E+10	1	-1E+10	1	-1E+10	1
4901784	115	C	08/28/2018	10:47	-132.180	42.988	0	377.60	0	5.4380	0	34.1500	8	26.954	0	374.263	0	82.0	4	26.8	4	-1E+10	1	-1E+10	1	-1E+10	1	-1E+10	1	-1E+10	1	-1E+10	1
4901784	115	C	08/28/2018	10:47	-132.180	42.988	0	380.20	0	5.4150	0	34.1520	8	26.958	0	376.837	0	81.0	4	26.4	4	-1E+10	1	-1E+10	1	-1E+10	1	-1E+10	1	-1E+10	1	-1E+10	1
4901784	115	C	08/28/2018	10:47	-132.180	42.988	0	382.90	0	5.4060	0	34.1520	8	26.959	0	379.511	0	80.3	4	26.2	4	-1E+10	1	-1E+10	1	-1E+10	1	-1E+10	1	-1E+10	1	-1E+10	1
4901784	115	C	08/28/2018	10:47	-132.180	42.988	0	384.60	0	5.3950	0	34.1510	8	26.960	0	381.194	0	79.7	4	26.0	4	-1E+10	1	-1E+10	1	-1E+10	1	-1E+10	1	-1E+10	1	-1E+10	1
4901784	115	C	08/28/2018	10:47	-132.180	42.988	0	387.30	0	5.3700	0	34.1520	8	26.964	0	383.868	0	78.5	4	25.6	4	-1E+10	1	-1E+10	1	-1E+10	1	-1E+10	1	-1E+10	1	-1E+10	1
4901784	115	C	08/28/2018	10:47	-132.180	42.988	0	389.90	0	5.3240	0	34.1550	8	26.971	0	386.442	0	76.9	4	25.1	4	-1E+10	1	-1E+10	1	-1E+10	1	-1E+10	1	-1E+10	1	-1E+10	1
4901784	115	C	08/28/2018	10:47	-132.180	42.988	0	392.50	0	5.3130	0	34.1560	8	26.974	0	389.017	0	76.2	4	24.8	4	-1E+10	1	-1E+10	1	-1E+10	1	-1E+10	1	-1E+10	1	-1E+10	1
4901784	115	C	08/28/2018	10:47	-132.180	42.988	0	395.20	0	5.3030	0	34.1570	8	26.976	0	391.690	0	75.5	4	24.6	4	-1E+10	1	-1E+10	1	-1E+10	1	-1E+10	1	-1E+10	1	-1E+10	1
4901784	115	C	08/28/2018	10:47	-132.180	42.988	0	397.80	0	5.2880	0	34.1560	8	26.977	0	394.265	0	74.7	4	24.3	4	-1E+10	1	-1E+10	1	-1E+10	1	-1E+10	1	-1E+10	1	-1E+10	1
4901784	115	C	08/28/2018	10:47	-132.180	42.988	0	400.50	0	5.2460	0	34.1580	8	26.983	0	396.938	0	73.2	4	23.8	4	-1E+10	1	-1E+10	1	-1E+10	1	-1E+10	1	-1E+10	1	-1E+10	1
4901784	115	C	08/28/2018	10:47	-132.180	42.988	0	402.30	0	5.2170	0	34.1610	8	26.989	0	398.720	0	72.1	4	23.4	4	-1E+10	1	-1E+10	1	-1E+10	1	-1E+10	1	-1E+10	1	-1E+10	1
4901784	115	C	08/28/2018	10:47	-132.180	42.988	0	405.00	0	5.1740	0	34.1620	8	26.995	0	401.394	0	71.3	4	23.1	4	-1E+10	1	-1E+10	1	-1E+10	1	-1E+10	1	-1E+10	1	-1E+10	1
4901784	115	C	08/28/2018	10:47	-132.180	42.988	0	407.70	0	5.1500	0	34.1630	8	26.998	0	404.067	0	70.6	4	22.9	4	-1E+10	1	-1E+10	1	-1E+10	1	-1E+10	1	-1E+10	1	-1E+10	1
4901784	115	C	08/28/2018	10:47	-132.180	42.988	0	410.40	0	5.1190	0	34.1660	8	27.004	0	406.740	0	70.2	4	22.8	4	-1E+10	1	-1E+10	1	-1E+10	1	-1E+10	1	-1E+10	1	-1E+10	1
4901784	115	C	08/28/2018	10:47	-132.180	42.988	0	413.00	0	5.1060	0	34.1680	8	27.007	0	409.315	0	69.7	4	22.6	4	-1E+10	1	-1E+10	1	-1E+10	1	-1E+10	1	-1E+10	1	-1E+10	1
4901784	115	C	08/28/2018	10:47	-132.180	42.988	0	414.90	0	5.0920	0	34.1670	8	27.008	0	411.196	0	69.4	4	22.5	4	-1E+10	1	-1E+10	1	-1E+10	1	-1E+10	1	-1E+10	1	-1E+10	1
4901784	115	C	08/28/2018	10:47	-132.180	42.988	0	417.60	0	5.0840	0	34.1670	8	27.009	0	413.869	0	69.0	4	22.3	4	-1E+10	1	-1E+10	1	-1E+10	1	-1E+10	1	-1E+10	1	-1E+10	1
4901784	115	C	08/28/2018	10:47	-132.180	42.988	0	420.30	0	5.0690	0	34.1700	8	27.013	0	416.542	0	68.5	4	22.2	4	-1E+10	1	-1E+10	1	-1E+10	1	-1E+10	1	-1E+10	1	-1E+10	1
4901784	115	C	08/28/2018	10:47	-132.180	42.988	0	422.10	0	5.0410	0	34.1740	8	27.020	0	418.324	0	67.9	4	22.0	4	-1E+10	1	-1E+10	1	-1E+10	1	-1E+10	1	-1E+10	1	-1E+10	1
4901784	115	C	08/28/2018	10:47	-132.180	42.988	0	424.70	0	5.0340	0	34.1740	8	27.020	0	420.898	0	66.9	4	21.7	4	-1E+10	1	-1E+10	1	-1E+10	1	-1E+10	1	-1E+10	1	-1E+10	1
4901784	115	C	08/28/2018	10:47	-132.180	42.988	0	427.40	0	4.9730	0	34.1750	8	27.028	0	423.572	0	65.7	4	21.2	4	-1E+10	1	-1E+10	1	-1E+10	1	-1E+10	1	-1E+10	1	-1E+10	1
4901784	115	C	08/28/2018	10:47	-132.180	42.988	0	430.10	0	4.9390	0	34.1750	8	27.032	0	426.245	0	65.2	4	21.0	4	-1E+10	1	-1E+10	1	-1E+10	1	-1E+10	1	-1E+10	1	-1E+10	1
4901784	115	C	08/28/2018	10:47	-132.180	42.988	0	432.80	0	4.9250	0	34.1760	8	27.034	0	428.918	0	64.6	4	20.9	4	-1E+10	1	-1E+10	1	-1E+10	1	-1E+10	1	-1E+10	1	-1E+10	1
4901784	115	C	08/28/2018	10:47	-132.180	42.988	0	434.70	0	4.9080	0	34.1760	8	27.036	0	430.799	0	64.3	4	20.8	4	-1E+10	1	-1E+10	1	-1E+10	1	-1E+10	1	-1E+10	1	-1E+10	1
4901784	115	C	08/28/2018	10:47	-132.180	42.988	0	437.40	0	4.8950	0	34.1780	8	27.040	0	433.472	0	63.8	4	20.6	4	-1E+10	1	-1E+10	1	-1E+10	1	-1E+10	1	-1E+10	1	-1E+10	1
4901784	115	C	08/28/2018	10:47	-132.180	42.988	0	440.10	0	4.8840	0	34.1770	8	27.040	0	436.144	0	63.2	4	20.4	4	-1E+10	1	-1E+10	1	-1E+10	1	-1E+10	1	-1E+10	1	-1E+10	1
4901784	115	C	08/28/2018	10:47	-132.180	42.988	0	442.80	0	4.8570	0	34.1810	8	27.046	0	438.817	0	62.5	4	20.2	4	-1E+10	1	-1E+10	1	-1E+10	1	-1E+10	1	-1E+10	1	-1E+10	1
4901784	115	C	08/28/2018	10:47	-132.180	42.988	0	445.40	0	4.8440	0	34.1820	8	27.048	0	441.391	0	61.9	4	19.9	4	-1E+10	1	-1E+10	1	-1E+10	1	-1E+10	1	-1E+10	1	-1E+10	1
4901784	115	C	08/28/2018	10:47	-132.180	42.988	0	447.20	0	4.8300	0	34.1830	8	27.051	0	443.173	0	61.3	4	19.7	4	-1E+10	1	-1E+10	1	-1E+10	1	-1E+10	1	-1E+10	1	-1E+10	1
4901784	115	C	08/28/2018	10:47	-132.180	42.988	0	449.90	0	4.8130	0	34.1860	8	27.055	0	445.846	0	60.4	4	19.4	4	-1E+10	1	-1E+10	1	-1E+10	1	-1E+10	1	-1E+10	1	-1E+10	1
4901784	115	C	08/28/2018	10:47	-132.180	42.988	0	452.50	0	4.7920	0	34.1880	8	27.059	0	448.420	0	59.4	4	19.1	4	-1E+10	1	-1E+10	1	-1E+10	1	-1E+10	1	-1E+10	1	-1E+10	1
4901784	115	C	08/28/2018	10:47	-132.180	42.988	0	455.20	0	4.7650	0	34.1910	8	27.065	0	451.092	0	58.5	4	18.8	4	-1E+10	1	-1E+10	1	-1E+10	1	-1E+10	1	-1E+10	1	-1E+10	1
4901784	115	C	08/28/2018	10:47	-132.180	42.988	0	457.90	0	4.7470	0	34.1940	8	27.069	0	453.765	0	57.6	4	18.5	4	-1E+10	1	-1E+10	1	-1E+10	1	-1E+10	1	-1E+10	1	-1E+10	1
4901784	115	C	08/28/2018	10:47	-132.180	42.988	0	459.70	0	4.7450	0	34.1980	8	27.072	0	455.547	0	57.0	4	18.3	4	-1E+10	1	-1E+10	1	-1E+10	1	-1E+10	1	-1E+10	1	-1E+10	1
4901784	115	C	08/28/2018	10:47	-132.180	42.988	0	462.40	0	4.7280	0	34.1990	8	27.075	0	458.219	0	56.5	4	18.1	4	-1E+10	1	-1E+10	1	-1E+10	1	-1E+10	1	-1E+10	1	-1E+10	1
4901784	115	C	08/28/2018	10:47	-132.180	42.988	0	465.10	0	4.7150	0	34.1990	8	27.076	0	460.892	0	55.9	4	17.9	4	-1E+10	1	-1E+10	1	-1E+10	1	-1E+10	1	-1E+10	1	-1E+10	1
4901784	115	C	08/28/2018	10:47	-132.180	42.988	0	467.80	0	4.6980	0	34.2020	8	27.081	0	463.565	0	55.2	4	17.7	4	-1E+10	1	-1E+10	1	-1E+10	1	-1E+10	1	-1E+10	1	-1E+10	1
4901784	115	C	08/28/2018	10:47	-132.180	42.988	0	470.50	0	4.6920	0	34.2000	8	27.080	0	466.237	0	54.4	4	17.5	4	-1E+10	1	-1E+10	1	-1E+10	1	-1E+10	1	-1E+10	1	-1E+10	1
4901784	115	C	08/28/2018	10:47	-132.180	42.988	0	472.40	0	4.6710	0	34.2050	8	27.086	0	468.118	0	53.8	4	17.3	4	-1E+10	1	-1E+10	1	-1E+10	1	-1E+10	1	-1E+10	1	-1E+10	1
4901784	115	C	08/28/2018	10:47	-132.180	42.988	0	475.20	0	4.6560	0	34.2080	8	27.090	0	470.889	0	53.1	4	17.0	4	-1E+10	1	-1E+10	1	-1E+10	1	-1E+10	1	-1E+10	1	-1E+10	1
4901784	115	C	08/28/2018	10:47	-132.180	42.988	0	478.00	0	4.6420	0	34.2090	8	27.093	0	473.661	0	52.4	4	16.8	4	-1E+10	1	-1E+10	1	-1E+10	1	-1E+10	1	-1E+10	1	-1E+10	1
4901784	115	C	08/28/2018	10:47	-132.180	42.988	0	479.80	0	4.6330	0	34.2120	8	27.096	0	475.442	0	51.9	4	16.7	4	-1E+10	1	-1E+10	1	-1E+10	1	-1E+10	1	-1E+10	1	-1E+10	1
4901784	115	C	08/28/2018	10:47	-132.180	42.988	0	482.60	0	4.6240	0	34.2150	8	27.099	0	478.214	0	51.3	4	16.5	4	-1E+10	1	-1E+10	1	-1E+10	1	-1E+10	1	-1E+10	1	-1E+10	1
4901784	115	C	08/28/2018	10:47	-132.180	42.988	0	485.40	0	4.6190	0	34.2160	8	27.101	0	480.985	0	50.8	4	16.3	4	-1E+10	1	-1E+10	1	-1E+10	1	-1E+10	1	-1E+10	1	-1E+10	1
4901784	115	C	08/28/2018	10:47	-132.180	42.988	0	487.20	0	4.6140	0	34.2170	8	27.102	0	482.766	0	50.3	4	16.1	4	-1E+10	1	-1E+10	1	-1E+10	1	-1E+10	1	-1E+10	1	-1E+10	1
4901784	115	C	08/28/2018	10:47	-132.180	42.988	0	490.00	0	4.6040	0	34.2200	8	27.106	0	485.538	0	49.6	4	15.9	4	-1E+10	1	-1E+10	1	-1E+10	1	-1E+10	1	-1E+10	1	-1E+10	1
4901784	115	C	08/28/2018	10:47	-132.180	42.988	0	492.90	0	4.6020	0	34.2200	8	27.106	0	488.408	0	48.8	4	15.6	4	-1E+10	1	-1E+10	1	-1E+10	1	-1E+10	1	-1E+10	1	-1E+10	1
4901784	115	C	08/28/2018	10:47	-132.180	42.988	0	494.70	0	4.5960	0	34.2220	8	27.108	0	490.189	0	48.0	4	15.4	4	-1E+10	1	-1E+10	1	-1E+10	1	-1E+10	1	-1E+10	1	-1E+10	1
4901784	115	C	08/28/2018	10:47	-132.180	42.988	0	497.40	0	4.5800	0	34.2280	8	27.115	0	492.861	0	47.0	4	15.1	4	-1E+10	1	-1E+10	1	-1E+10	1	-1E+10	1	-1E+10	1	-1E+10	1
4901784	115	C	08/28/2018	10:47	-132.180	42.988	0	500.20	0	4.5620	0	34.2330	8	27.121	0	495.633	0	46.1	4	14.8	4	-1E+10	1	-1E+10	1	-1E+10	1	-1E+10	1	-1E+10	1	-1E+10	1
4901784	115	C	08/28/2018	10:47	-132.180	42.988	0	504.80	0	4.5470	0	34.2380	8	27.126	0	500.185	0	45.0	4	14.4	4	-1E+10	1	-1E+10	1	-1E+10	1	-1E+10	1	-1E+10	1	-1E+10	1
4901784	115	C	08/28/2018	10:47	-132.180	42.988	0	509.40	0	4.5380	0	34.2420	8	27.130	0	504.737	0	43.7	4	14.0	4	-1E+10	1	-1E+10	1	-1E+10	1	-1E+10	1	-1E+10	1	-1E+10	1
4901784	115	C	08/28/2018	10:47	-132.180	42.988	0	514.90	0	4.5200	0	34.2490	8	27.138	0	510.180	0	42.0	4	13.4	4	-1E+10	1	-1E+10	1	-1E+10	1	-1E+10	1	-1E+10	1	-1E+10	1
4901784	115	C	08/28/2018	10:47	-132.180	42.988	0	520.40	0	4.5080	0	34.2560	8	27.145	0	515.623	0	40.9	4	13.1	4	-1E+10	1	-1E+10	1	-1E+10	1	-1E+10	1	-1E+10	1	-1E+10	1
4901784	115	C	08/28/2018	10:47	-132.180	42.988	0	525.00	0	4.5020	0	34.2600	8	27.149	0	520.175	0	40.1	4	12.8	4	-1E+10	1	-1E+10	1	-1E+10	1	-1E+10	1	-1E+10	1	-1E+10	1
4901784	115	C	08/28/2018	10:47	-132.180	42.988	0	529.60	0	4.5000	0	34.2620	8	27.151	0	524.727	0	39.5	4	12.6	4	-1E+10	1	-1E+10	1	-1E+10	1	-1E+10	1	-1E+10	1	-1E+10	1
4901784	115	C	08/28/2018	10:47	-132.180	42.988	0	535.10	0	4.4950	0	34.2660	8	27.154	0	530.169	0	38.4	4	12.3	4	-1E+10	1	-1E+10	1	-1E+10	1	-1E+10	1	-1E+10	1	-1E+10	1
4901784	115	C	08/28/2018	10:47	-132.180	42.988	0	539.70	0	4.4880	0	34.2690	8	27.158	0	534.721	0	37.6	4	12.0	4	-1E+10	1	-1E+10	1	-1E+10	1	-1E+10	1	-1E+10	1	-1E+10	1
4901784	115	C	08/28/2018	10:47	-132.180	42.988	0	544.30	0	4.4810	0	34.2730	8	27.161	0	539.273	0	36.5	4	11.7	4	-1E+10	1	-1E+10	1	-1E+10	1	-1E+10	1	-1E+10	1	-1E+10	1
4901784	115	C	08/28/2018	10:47	-132.180	42.988	0	549.90	0	4.4690	0	34.2790	8	27.168	0	544.814	0	35.6	4	11.4	4	-1E+10	1	-1E+10	1	-1E+10	1	-1E+10	1	-1E+10	1	-1E+10	1
4901784	115	C	08/28/2018	10:47	-132.180	42.988	0	555.50	0	4.4660	0	34.2810	8	27.170	0	550.354	0	34.8	4	11.1	4	-1E+10	1	-1E+10	1	-1E+10	1	-1E+10	1	-1E+10	1	-1E+10	1
4901784	115	C	08/28/2018	10:47	-132.180	42.988	0	560.10	0	4.4550	0	34.2860	8	27.175	0	554.906	0	33.9	4	10.8	4	-1E+10	1	-1E+10	1	-1E+10	1	-1E+10	1	-1E+10	1	-1E+10	1
4901784	115	C	08/28/2018	10:47	-132.180	42.988	0	564.60	0	4.4460	0	34.2900	8	27.179	0	559.358	0	33.1	4	10.6	4	-1E+10	1	-1E+10	1	-1E+10	1	-1E+10	1	-1E+10	1	-1E+10	1
4901784	115	C	08/28/2018	10:47	-132.180	42.988	0	570.20	0	4.4320	0	34.2950	8	27.184	0	564.898	0	31.9	4	10.2	4	-1E+10	1	-1E+10	1	-1E+10	1	-1E+10	1	-1E+10	1	-1E+10	1
4901784	115	C	08/28/2018	10:47	-132.180	42.988	0	575.40	0	4.4190	0	34.3010	8	27.191	0	570.043	0	30.9	4	9.9	4	-1E+10	1	-1E+10	1	-1E+10	1	-1E+10	1	-1E+10	1	-1E+10	1
4901784	115	C	08/28/2018	10:47	-132.180	42.988	0	580.10	0	4.4050	0	34.3050	8	27.195	0	574.693	0	30.1	4	9.6	4	-1E+10	1	-1E+10	1	-1E+10	1	-1E+10	1	-1E+10	1	-1E+10	1
4901784	115	C	08/28/2018	10:47	-132.180	42.988	0	584.90	0	4.3950	0	34.3090	8	27.200	0	579.441	0	29.4	4	9.4	4	-1E+10	1	-1E+10	1	-1E+10	1	-1E+10	1	-1E+10	1	-1E+10	1
4901784	115	C	08/28/2018	10:47	-132.180	42.988	0	589.70	0	4.3850	0	34.3120	8	27.203	0	584.190	0	28.6	4	9.1	4	-1E+10	1	-1E+10	1	-1E+10	1	-1E+10	1	-1E+10	1	-1E+10	1
4901784	115	C	08/28/2018	10:47	-132.180	42.988	0	594.60	0	4.3820	0	34.3160	8	27.207	0	589.037	0	27.4	4	8.7	4	-1E+10	1	-1E+10	1	-1E+10	1	-1E+10	1	-1E+10	1	-1E+10	1
4901784	115	C	08/28/2018	10:47	-132.180	42.988	0	599.50	0	4.3650	0	34.3230	8	27.214	0	593.884	0	26.2	4	8.3	4	-1E+10	1	-1E+10	1	-1E+10	1	-1E+10	1	-1E+10	1	-1E+10	1
4901784	115	C	08/28/2018	10:47	-132.180	42.988	0	604.60	0	4.3400	0	34.3320	8	27.224	0	598.929	0	25.0	4	8.0	4	-1E+10	1	-1E+10	1	-1E+10	1	-1E+10	1	-1E+10	1	-1E+10	1
4901784	115	C	08/28/2018	10:47	-132.180	42.988	0	609.70	0	4.3370	0	34.3390	8	27.230	0	603.974	0	24.0	4	7.7	4	-1E+10	1	-1E+10	1	-1E+10	1	-1E+10	1	-1E+10	1	-1E+10	1
4901784	115	C	08/28/2018	10:47	-132.180	42.988	0	614.80	0	4.3090	0	34.3420	8	27.235	0	609.018	0	23.6	4	7.5	4	-1E+10	1	-1E+10	1	-1E+10	1	-1E+10	1	-1E+10	1	-1E+10	1
4901784	115	C	08/28/2018	10:47	-132.180	42.988	0	620.10	0	4.3070	0	34.3480	8	27.240	0	614.261	0	22.6	4	7.2	4	-1E+10	1	-1E+10	1	-1E+10	1	-1E+10	1	-1E+10	1	-1E+10	1
4901784	115	C	08/28/2018	10:47	-132.180	42.988	0	625.50	0	4.3020	0	34.3550	8	27.246	0	619.602	0	22.1	4	7.0	4	-1E+10	1	-1E+10	1	-1E+10	1	-1E+10	1	-1E+10	1	-1E+10	1
4901784	115	C	08/28/2018	10:47	-132.180	42.988	0	630.00	0	4.2950	0	34.3560	8	27.248	0	624.053	0	21.9	4	7.0	4	-1E+10	1	-1E+10	1	-1E+10	1	-1E+10	1	-1E+10	1	-1E+10	1
4901784	115	C	08/28/2018	10:47	-132.180	42.988	0	634.50	0	4.2850	0	34.3560	8	27.249	0	628.503	0	21.6	4	6.9	4	-1E+10	1	-1E+10	1	-1E+10	1	-1E+10	1	-1E+10	1	-1E+10	1
4901784	115	C	08/28/2018	10:47	-132.180	42.988	0	639.80	0	4.2620	0	34.3620	8	27.256	0	633.745	0	21.1	4	6.7	4	-1E+10	1	-1E+10	1	-1E+10	1	-1E+10	1	-1E+10	1	-1E+10	1
4901784	115	C	08/28/2018	10:47	-132.180	42.988	0	645.20	0	4.2510	0	34.3650	8	27.260	0	639.086	0	20.5	4	6.5	4	-1E+10	1	-1E+10	1	-1E+10	1	-1E+10	1	-1E+10	1	-1E+10	1
4901784	115	C	08/28/2018	10:47	-132.180	42.988	0	649.80	0	4.2360	0	34.3690	8	27.265	0	643.635	0	20.0	4	6.3	4	-1E+10	1	-1E+10	1	-1E+10	1	-1E+10	1	-1E+10	1	-1E+10	1
4901784	115	C	08/28/2018	10:47	-132.180	42.988	0	654.50	0	4.2260	0	34.3740	8	27.270	0	648.283	0	19.4	4	6.2	4	-1E+10	1	-1E+10	1	-1E+10	1	-1E+10	1	-1E+10	1	-1E+10	1
4901784	115	C	08/28/2018	10:47	-132.180	42.988	0	660.10	0	4.2160	0	34.3790	8	27.275	0	653.821	0	18.7	4	5.9	4	-1E+10	1	-1E+10	1	-1E+10	1	-1E+10	1	-1E+10	1	-1E+10	1
4901784	115	C	08/28/2018	10:47	-132.180	42.988	0	664.80	0	4.2090	0	34.3860	8	27.281	0	658.469	0	18.1	4	5.7	4	-1E+10	1	-1E+10	1	-1E+10	1	-1E+10	1	-1E+10	1	-1E+10	1
4901784	115	C	08/28/2018	10:47	-132.180	42.988	0	669.50	0	4.2040	0	34.3960	8	27.290	0	663.117	0	17.7	4	5.6	4	-1E+10	1	-1E+10	1	-1E+10	1	-1E+10	1	-1E+10	1	-1E+10	1
4901784	115	C	08/28/2018	10:47	-132.180	42.988	0	675.20	0	4.1660	0	34.4110	8	27.306	0	668.754	0	17.6	4	5.6	4	-1E+10	1	-1E+10	1	-1E+10	1	-1E+10	1	-1E+10	1	-1E+10	1
4901784	115	C	08/28/2018	10:47	-132.180	42.988	0	680.70	0	4.1460	0	34.4140	8	27.310	0	674.192	0	17.4	4	5.5	4	-1E+10	1	-1E+10	1	-1E+10	1	-1E+10	1	-1E+10	1	-1E+10	1
4901784	115	C	08/28/2018	10:47	-132.180	42.988	0	685.50	0	4.1290	0	34.4170	8	27.314	0	678.938	0	17.1	4	5.4	4	-1E+10	1	-1E+10	1	-1E+10	1	-1E+10	1	-1E+10	1	-1E+10	1
4901784	115	C	08/28/2018	10:47	-132.180	42.988	0	690.40	0	4.1200	0	34.4200	8	27.318	0	683.784	0	16.8	4	5.3	4	-1E+10	1	-1E+10	1	-1E+10	1	-1E+10	1	-1E+10	1	-1E+10	1
4901784	115	C	08/28/2018	10:47	-132.180	42.988	0	695.40	0	4.1060	0	34.4230	8	27.322	0	688.727	0	16.5	4	5.2	4	-1E+10	1	-1E+10	1	-1E+10	1	-1E+10	1	-1E+10	1	-1E+10	1
4901784	115	C	08/28/2018	10:47	-132.180	42.988	0	700.40	0	4.0990	0	34.4270	8	27.326	0	693.671	0	16.1	4	5.1	4	-1E+10	1	-1E+10	1	-1E+10	1	-1E+10	1	-1E+10	1	-1E+10	1
4901784	115	C	08/28/2018	10:47	-132.180	42.988	0	705.40	0	4.0980	0	34.4330	8	27.330	0	698.615	0	15.6	4	4.9	4	-1E+10	1	-1E+10	1	-1E+10	1	-1E+10	1	-1E+10	1	-1E+10	1
4901784	115	C	08/28/2018	10:47	-132.180	42.988	0	710.50	0	4.0660	0	34.4380	8	27.338	0	703.657	0	15.4	4	4.9	4	-1E+10	1	-1E+10	1	-1E+10	1	-1E+10	1	-1E+10	1	-1E+10	1
4901784	115	C	08/28/2018	10:47	-132.180	42.988	0	715.60	0	4.0470	0	34.4410	8	27.342	0	708.699	0	15.2	4	4.8	4	-1E+10	1	-1E+10	1	-1E+10	1	-1E+10	1	-1E+10	1	-1E+10	1
4901784	115	C	08/28/2018	10:47	-132.180	42.988	0	720.00	0	4.0380	0	34.4440	8	27.346	0	713.049	0	15.0	4	4.8	4	-1E+10	1	-1E+10	1	-1E+10	1	-1E+10	1	-1E+10	1	-1E+10	1
4901784	115	C	08/28/2018	10:47	-132.180	42.988	0	724.30	0	4.0340	0	34.4460	8	27.348	0	717.300	0	14.9	4	4.7	4	-1E+10	1	-1E+10	1	-1E+10	1	-1E+10	1	-1E+10	1	-1E+10	1
4901784	115	C	08/28/2018	10:47	-132.180	42.988	0	729.40	0	4.0280	0	34.4480	8	27.350	0	722.342	0	14.6	4	4.6	4	-1E+10	1	-1E+10	1	-1E+10	1	-1E+10	1	-1E+10	1	-1E+10	1
4901784	115	C	08/28/2018	10:47	-132.180	42.988	0	734.60	0	4.0210	0	34.4530	8	27.355	0	727.483	0	14.4	4	4.5	4	-1E+10	1	-1E+10	1	-1E+10	1	-1E+10	1	-1E+10	1	-1E+10	1
4901784	115	C	08/28/2018	10:47	-132.180	42.988	0	739.80	0	4.0150	0	34.4560	8	27.358	0	732.623	0	14.2	4	4.5	4	-1E+10	1	-1E+10	1	-1E+10	1	-1E+10	1	-1E+10	1	-1E+10	1
4901784	115	C	08/28/2018	10:47	-132.180	42.988	0	745.10	0	4.0070	0	34.4580	8	27.360	0	737.863	0	13.9	4	4.4	4	-1E+10	1	-1E+10	1	-1E+10	1	-1E+10	1	-1E+10	1	-1E+10	1
4901784	115	C	08/28/2018	10:47	-132.180	42.988	0	750.50	0	3.9940	0	34.4640	8	27.366	0	743.200	0	13.5	4	4.3	4	-1E+10	1	-1E+10	1	-1E+10	1	-1E+10	1	-1E+10	1	-1E+10	1
4901784	115	C	08/28/2018	10:47	-132.180	42.988	0	754.90	0	3.9790	0	34.4700	8	27.373	0	747.550	0	13.2	4	4.2	4	-1E+10	1	-1E+10	1	-1E+10	1	-1E+10	1	-1E+10	1	-1E+10	1
4901784	115	C	08/28/2018	10:47	-132.180	42.988	0	759.40	0	3.9600	0	34.4740	8	27.378	0	751.998	0	13.0	4	4.1	4	-1E+10	1	-1E+10	1	-1E+10	1	-1E+10	1	-1E+10	1	-1E+10	1
4901784	115	C	08/28/2018	10:47	-132.180	42.988	0	764.70	0	3.9460	0	34.4790	8	27.383	0	757.237	0	12.9	4	4.1	4	-1E+10	1	-1E+10	1	-1E+10	1	-1E+10	1	-1E+10	1	-1E+10	1
4901784	115	C	08/28/2018	10:47	-132.180	42.988	0	770.10	0	3.9210	0	34.4820	8	27.388	0	762.574	0	12.7	4	4.0	4	-1E+10	1	-1E+10	1	-1E+10	1	-1E+10	1	-1E+10	1	-1E+10	1
4901784	115	C	08/28/2018	10:47	-132.180	42.988	0	775.50	0	3.9080	0	34.4850	8	27.392	0	767.911	0	12.6	4	4.0	4	-1E+10	1	-1E+10	1	-1E+10	1	-1E+10	1	-1E+10	1	-1E+10	1
4901784	115	C	08/28/2018	10:47	-132.180	42.988	0	780.10	0	3.8950	0	34.4880	8	27.396	0	772.458	0	12.4	4	3.9	4	-1E+10	1	-1E+10	1	-1E+10	1	-1E+10	1	-1E+10	1	-1E+10	1
4901784	115	C	08/28/2018	10:47	-132.180	42.988	0	784.60	0	3.8880	0	34.4910	8	27.399	0	776.905	0	12.3	4	3.9	4	-1E+10	1	-1E+10	1	-1E+10	1	-1E+10	1	-1E+10	1	-1E+10	1
4901784	115	C	08/28/2018	10:47	-132.180	42.988	0	789.90	0	3.8680	0	34.4970	8	27.406	0	782.144	0	12.1	4	3.8	4	-1E+10	1	-1E+10	1	-1E+10	1	-1E+10	1	-1E+10	1	-1E+10	1
4901784	115	C	08/28/2018	10:47	-132.180	42.988	0	795.20	0	3.8570	0	34.5000	8	27.409	0	787.381	0	11.9	4	3.8	4	-1E+10	1	-1E+10	1	-1E+10	1	-1E+10	1	-1E+10	1	-1E+10	1
4901784	115	C	08/28/2018	10:47	-132.180	42.988	0	800.60	0	3.8390	0	34.5060	8	27.416	0	792.718	0	11.8	4	3.7	4	-1E+10	1	-1E+10	1	-1E+10	1	-1E+10	1	-1E+10	1	-1E+10	1
4901784	115	C	08/28/2018	10:47	-132.180	42.988	0	805.10	0	3.8280	0	34.5090	8	27.419	0	797.165	0	11.7	4	3.7	4	-1E+10	1	-1E+10	1	-1E+10	1	-1E+10	1	-1E+10	1	-1E+10	1
4901784	115	C	08/28/2018	10:47	-132.180	42.988	0	809.70	0	3.8150	0	34.5110	8	27.422	0	801.711	0	11.6	4	3.7	4	-1E+10	1	-1E+10	1	-1E+10	1	-1E+10	1	-1E+10	1	-1E+10	1
4901784	115	C	08/28/2018	10:47	-132.180	42.988	0	815.10	0	3.7920	0	34.5150	8	27.428	0	807.047	0	11.5	4	3.6	4	-1E+10	1	-1E+10	1	-1E+10	1	-1E+10	1	-1E+10	1	-1E+10	1
4901784	115	C	08/28/2018	10:47	-132.180	42.988	0	820.60	0	3.7850	0	34.5180	8	27.431	0	812.482	0	11.4	4	3.6	4	-1E+10	1	-1E+10	1	-1E+10	1	-1E+10	1	-1E+10	1	-1E+10	1
4901784	115	C	08/28/2018	10:47	-132.180	42.988	0	825.20	0	3.7740	0	34.5210	8	27.434	0	817.028	0	11.3	4	3.6	4	-1E+10	1	-1E+10	1	-1E+10	1	-1E+10	1	-1E+10	1	-1E+10	1
4901784	115	C	08/28/2018	10:47	-132.180	42.988	0	829.80	0	3.7610	0	34.5240	8	27.438	0	821.573	0	11.3	4	3.5	4	-1E+10	1	-1E+10	1	-1E+10	1	-1E+10	1	-1E+10	1	-1E+10	1
4901784	115	C	08/28/2018	10:47	-132.180	42.988	0	835.30	0	3.7560	0	34.5260	8	27.440	0	827.008	0	11.2	4	3.5	4	-1E+10	1	-1E+10	1	-1E+10	1	-1E+10	1	-1E+10	1	-1E+10	1
4901784	115	C	08/28/2018	10:47	-132.180	42.988	0	839.90	0	3.7460	0	34.5290	8	27.444	0	831.553	0	11.1	4	3.5	4	-1E+10	1	-1E+10	1	-1E+10	1	-1E+10	1	-1E+10	1	-1E+10	1
4901784	115	C	08/28/2018	10:47	-132.180	42.988	0	844.50	0	3.7310	0	34.5310	8	27.447	0	836.098	0	11.0	4	3.5	4	-1E+10	1	-1E+10	1	-1E+10	1	-1E+10	1	-1E+10	1	-1E+10	1
4901784	115	C	08/28/2018	10:47	-132.180	42.988	0	850.10	0	3.7140	0	34.5340	8	27.451	0	841.631	0	11.0	4	3.4	4	-1E+10	1	-1E+10	1	-1E+10	1	-1E+10	1	-1E+10	1	-1E+10	1
4901784	115	C	08/28/2018	10:47	-132.180	42.988	0	854.70	0	3.7080	0	34.5360	8	27.453	0	846.176	0	10.9	4	3.4	4	-1E+10	1	-1E+10	1	-1E+10	1	-1E+10	1	-1E+10	1	-1E+10	1
4901784	115	C	08/28/2018	10:47	-132.180	42.988	0	859.50	0	3.7080	0	34.5390	8	27.456	0	850.918	0	10.8	4	3.4	4	-1E+10	1	-1E+10	1	-1E+10	1	-1E+10	1	-1E+10	1	-1E+10	1
4901784	115	C	08/28/2018	10:47	-132.180	42.988	0	865.10	0	3.7080	0	34.5420	8	27.458	0	856.451	0	10.7	4	3.4	4	-1E+10	1	-1E+10	1	-1E+10	1	-1E+10	1	-1E+10	1	-1E+10	1
4901784	115	C	08/28/2018	10:47	-132.180	42.988	0	869.80	0	3.6930	0	34.5460	8	27.463	0	861.094	0	10.7	4	3.4	4	-1E+10	1	-1E+10	1	-1E+10	1	-1E+10	1	-1E+10	1	-1E+10	1
4901784	115	C	08/28/2018	10:47	-132.180	42.988	0	875.20	0	3.6740	0	34.5500	8	27.468	0	866.429	0	10.6	4	3.3	4	-1E+10	1	-1E+10	1	-1E+10	1	-1E+10	1	-1E+10	1	-1E+10	1
4901784	115	C	08/28/2018	10:47	-132.180	42.988	0	880.30	0	3.6650	0	34.5540	8	27.472	0	871.467	0	10.6	4	3.3	4	-1E+10	1	-1E+10	1	-1E+10	1	-1E+10	1	-1E+10	1	-1E+10	1
4901784	115	C	08/28/2018	10:47	-132.180	42.988	0	885.10	0	3.6620	0	34.5570	8	27.475	0	876.209	0	10.5	4	3.3	4	-1E+10	1	-1E+10	1	-1E+10	1	-1E+10	1	-1E+10	1	-1E+10	1
4901784	115	C	08/28/2018	10:47	-132.180	42.988	0	890.00	0	3.6550	0	34.5590	8	27.477	0	881.050	0	10.5	4	3.3	4	-1E+10	1	-1E+10	1	-1E+10	1	-1E+10	1	-1E+10	1	-1E+10	1
4901784	115	C	08/28/2018	10:47	-132.180	42.988	0	894.90	0	3.6390	0	34.5630	8	27.482	0	885.890	0	10.4	4	3.3	4	-1E+10	1	-1E+10	1	-1E+10	1	-1E+10	1	-1E+10	1	-1E+10	1
4901784	115	C	08/28/2018	10:47	-132.180	42.988	0	899.80	0	3.6280	0	34.5650	8	27.484	0	890.730	0	10.4	4	3.3	4	-1E+10	1	-1E+10	1	-1E+10	1	-1E+10	1	-1E+10	1	-1E+10	1
4901784	115	C	08/28/2018	10:47	-132.180	42.988	0	904.90	0	3.6270	0	34.5650	8	27.485	0	895.768	0	10.4	4	3.3	4	-1E+10	1	-1E+10	1	-1E+10	1	-1E+10	1	-1E+10	1	-1E+10	1
4901784	115	C	08/28/2018	10:47	-132.180	42.988	0	910.00	0	3.6200	0	34.5680	8	27.488	0	900.805	0	10.4	4	3.3	4	-1E+10	1	-1E+10	1	-1E+10	1	-1E+10	1	-1E+10	1	-1E+10	1
4901784	115	C	08/28/2018	10:47	-132.180	42.988	0	915.10	0	3.6060	0	34.5700	8	27.491	0	905.843	0	10.4	4	3.3	4	-1E+10	1	-1E+10	1	-1E+10	1	-1E+10	1	-1E+10	1	-1E+10	1
4901784	115	C	08/28/2018	10:47	-132.180	42.988	0	920.20	0	3.5990	0	34.5710	8	27.492	0	910.880	0	10.4	4	3.3	4	-1E+10	1	-1E+10	1	-1E+10	1	-1E+10	1	-1E+10	1	-1E+10	1
4901784	115	C	08/28/2018	10:47	-132.180	42.988	0	925.20	0	3.5900	0	34.5750	8	27.496	0	915.819	0	10.4	4	3.3	4	-1E+10	1	-1E+10	1	-1E+10	1	-1E+10	1	-1E+10	1	-1E+10	1
4901784	115	C	08/28/2018	10:47	-132.180	42.988	0	930.30	0	3.5800	0	34.5790	8	27.500	0	920.856	0	10.4	4	3.3	4	-1E+10	1	-1E+10	1	-1E+10	1	-1E+10	1	-1E+10	1	-1E+10	1
4901784	115	C	08/28/2018	10:47	-132.180	42.988	0	935.40	0	3.5730	0	34.5810	8	27.503	0	925.893	0	10.4	4	3.3	4	-1E+10	1	-1E+10	1	-1E+10	1	-1E+10	1	-1E+10	1	-1E+10	1
4901784	115	C	08/28/2018	10:47	-132.180	42.988	0	940.50	0	3.5640	0	34.5840	8	27.506	0	930.929	0	10.5	4	3.3	4	-1E+10	1	-1E+10	1	-1E+10	1	-1E+10	1	-1E+10	1	-1E+10	1
4901784	115	C	08/28/2018	10:47	-132.180	42.988	0	945.60	0	3.5470	0	34.5890	8	27.512	0	935.966	0	10.5	4	3.3	4	-1E+10	1	-1E+10	1	-1E+10	1	-1E+10	1	-1E+10	1	-1E+10	1
4901784	115	C	08/28/2018	10:47	-132.180	42.988	0	950.00	0	3.5360	0	34.5930	8	27.516	0	940.311	0	10.6	4	3.3	4	-1E+10	1	-1E+10	1	-1E+10	1	-1E+10	1	-1E+10	1	-1E+10	1
4901784	115	C	08/28/2018	10:47	-132.180	42.988	0	954.30	0	3.5250	0	34.5950	8	27.519	0	944.558	0	10.6	4	3.3	4	-1E+10	1	-1E+10	1	-1E+10	1	-1E+10	1	-1E+10	1	-1E+10	1
4901784	115	C	08/28/2018	10:47	-132.180	42.988	0	959.50	0	3.5160	0	34.5960	8	27.520	0	949.693	0	10.6	4	3.3	4	-1E+10	1	-1E+10	1	-1E+10	1	-1E+10	1	-1E+10	1	-1E+10	1
4901784	115	C	08/28/2018	10:47	-132.180	42.988	0	964.70	0	3.5020	0	34.5990	8	27.524	0	954.828	0	10.7	4	3.4	4	-1E+10	1	-1E+10	1	-1E+10	1	-1E+10	1	-1E+10	1	-1E+10	1
4901784	115	C	08/28/2018	10:47	-132.180	42.988	0	969.90	0	3.4930	0	34.6030	8	27.528	0	959.963	0	10.8	4	3.4	4	-1E+10	1	-1E+10	1	-1E+10	1	-1E+10	1	-1E+10	1	-1E+10	1
4901784	115	C	08/28/2018	10:47	-132.180	42.988	0	975.20	0	3.4810	0	34.6070	8	27.533	0	965.196	0	10.9	4	3.4	4	-1E+10	1	-1E+10	1	-1E+10	1	-1E+10	1	-1E+10	1	-1E+10	1
4901784	115	C	08/28/2018	10:47	-132.180	42.988	0	980.50	0	3.4630	0	34.6110	8	27.538	0	970.430	0	11.0	4	3.4	4	-1E+10	1	-1E+10	1	-1E+10	1	-1E+10	1	-1E+10	1	-1E+10	1
4901784	115	C	08/28/2018	10:47	-132.180	42.988	0	985.70	0	3.4560	0	34.6130	8	27.540	0	975.564	0	11.1	4	3.5	4	-1E+10	1	-1E+10	1	-1E+10	1	-1E+10	1	-1E+10	1	-1E+10	1
4901784	115	C	08/28/2018	10:47	-132.180	42.988	0	990.20	0	3.4500	0	34.6160	8	27.543	0	980.008	0	11.1	4	3.5	4	-1E+10	1	-1E+10	1	-1E+10	1	-1E+10	1	-1E+10	1	-1E+10	1
4901784	115	C	08/28/2018	10:47	-132.180	42.988	0	994.60	0	3.4460	0	34.6160	8	27.543	0	984.352	0	11.2	4	3.5	4	-1E+10	1	-1E+10	1	-1E+10	1	-1E+10	1	-1E+10	1	-1E+10	1
4901784	115	C	08/28/2018	10:47	-132.180	42.988	0	1000.00	0	3.4340	0	34.6180	8	27.546	0	989.683	0	11.3	4	3.5	4	-1E+10	1	-1E+10	1	-1E+10	1	-1E+10	1	-1E+10	1	-1E+10	1
4901784	115	C	08/28/2018	10:47	-132.180	42.988	0	1005.40	0	3.4140	0	34.6220	8	27.551	0	995.015	0	11.5	4	3.6	4	-1E+10	1	-1E+10	1	-1E+10	1	-1E+10	1	-1E+10	1	-1E+10	1
4901784	115	C	08/28/2018	10:47	-132.180	42.988	0	1009.90	0	3.3950	0	34.6250	8	27.556	0	999.458	0	11.5	4	3.6	4	-1E+10	1	-1E+10	1	-1E+10	1	-1E+10	1	-1E+10	1	-1E+10	1
4901784	115	C	08/28/2018	10:47	-132.180	42.988	0	1014.40	0	3.3830	0	34.6270	8	27.558	0	1003.900	0	11.6	4	3.6	4	-1E+10	1	-1E+10	1	-1E+10	1	-1E+10	1	-1E+10	1	-1E+10	1
4901784	115	C	08/28/2018	10:47	-132.180	42.988	0	1019.90	0	3.3750	0	34.6290	8	27.561	0	1009.330	0	11.7	4	3.6	4	-1E+10	1	-1E+10	1	-1E+10	1	-1E+10	1	-1E+10	1	-1E+10	1
4901784	115	C	08/28/2018	10:47	-132.180	42.988	0	1025.30	0	3.3670	0	34.6300	8	27.562	0	1014.661	0	11.7	4	3.7	4	-1E+10	1	-1E+10	1	-1E+10	1	-1E+10	1	-1E+10	1	-1E+10	1
4901784	115	C	08/28/2018	10:47	-132.180	42.988	0	1029.90	0	3.3610	0	34.6320	8	27.564	0	1019.202	0	11.8	4	3.7	4	-1E+10	1	-1E+10	1	-1E+10	1	-1E+10	1	-1E+10	1	-1E+10	1
4901784	115	C	08/28/2018	10:47	-132.180	42.988	0	1034.30	0	3.3510	0	34.6340	8	27.567	0	1023.546	0	11.9	4	3.7	4	-1E+10	1	-1E+10	1	-1E+10	1	-1E+10	1	-1E+10	1	-1E+10	1
4901784	115	C	08/28/2018	10:47	-132.180	42.988	0	1039.60	0	3.3370	0	34.6360	8	27.570	0	1028.778	0	12.1	4	3.8	4	-1E+10	1	-1E+10	1	-1E+10	1	-1E+10	1	-1E+10	1	-1E+10	1
4901784	115	C	08/28/2018	10:47	-132.180	42.988	0	1044.40	0	3.3250	0	34.6400	8	27.574	0	1033.516	0	12.2	4	3.8	4	-1E+10	1	-1E+10	1	-1E+10	1	-1E+10	1	-1E+10	1	-1E+10	1
4901784	115	C	08/28/2018	10:47	-132.180	42.988	0	1050.00	0	3.3190	0	34.6410	8	27.576	0	1039.044	0	12.4	4	3.9	4	-1E+10	1	-1E+10	1	-1E+10	1	-1E+10	1	-1E+10	1	-1E+10	1
4901784	115	C	08/28/2018	10:47	-132.180	42.988	0	1055.70	0	3.3200	0	34.6450	8	27.579	0	1044.670	0	12.7	4	3.9	4	-1E+10	1	-1E+10	1	-1E+10	1	-1E+10	1	-1E+10	1	-1E+10	1
4901784	115	C	08/28/2018	10:47	-132.180	42.988	0	1060.70	0	3.3180	0	34.6470	8	27.581	0	1049.605	0	12.8	4	4.0	4	-1E+10	1	-1E+10	1	-1E+10	1	-1E+10	1	-1E+10	1	-1E+10	1
4901784	115	C	08/28/2018	10:47	-132.180	42.988	0	1065.60	0	3.3170	0	34.6470	8	27.581	0	1054.442	0	12.8	4	4.0	4	-1E+10	1	-1E+10	1	-1E+10	1	-1E+10	1	-1E+10	1	-1E+10	1
4901784	115	C	08/28/2018	10:47	-132.180	42.988	0	1070.60	0	3.3100	0	34.6480	8	27.582	0	1059.377	0	12.8	4	4.0	4	-1E+10	1	-1E+10	1	-1E+10	1	-1E+10	1	-1E+10	1	-1E+10	1
4901784	115	C	08/28/2018	10:47	-132.180	42.988	0	1075.60	0	3.3040	0	34.6480	8	27.583	0	1064.312	0	12.9	4	4.0	4	-1E+10	1	-1E+10	1	-1E+10	1	-1E+10	1	-1E+10	1	-1E+10	1
4901784	115	C	08/28/2018	10:47	-132.180	42.988	0	1080.60	0	3.3020	0	34.6500	8	27.585	0	1069.247	0	13.0	4	4.0	4	-1E+10	1	-1E+10	1	-1E+10	1	-1E+10	1	-1E+10	1	-1E+10	1
4901784	115	C	08/28/2018	10:47	-132.180	42.988	0	1085.60	0	3.2980	0	34.6510	8	27.586	0	1074.181	0	13.0	4	4.1	4	-1E+10	1	-1E+10	1	-1E+10	1	-1E+10	1	-1E+10	1	-1E+10	1
4901784	115	C	08/28/2018	10:47	-132.180	42.988	0	1090.70	0	3.2890	0	34.6520	8	27.588	0	1079.214	0	13.1	4	4.1	4	-1E+10	1	-1E+10	1	-1E+10	1	-1E+10	1	-1E+10	1	-1E+10	1
4901784	115	C	08/28/2018	10:47	-132.180	42.988	0	1094.90	0	3.2730	0	34.6540	8	27.591	0	1083.359	0	13.2	4	4.1	4	-1E+10	1	-1E+10	1	-1E+10	1	-1E+10	1	-1E+10	1	-1E+10	1
4901784	115	C	08/28/2018	10:47	-132.180	42.988	0	1099.60	0	3.2620	0	34.6540	8	27.592	0	1087.998	0	13.2	4	4.1	4	-1E+10	1	-1E+10	1	-1E+10	1	-1E+10	1	-1E+10	1	-1E+10	1
4901784	115	C	08/28/2018	10:47	-132.180	42.988	0	1105.30	0	3.2540	0	34.6540	8	27.593	0	1093.623	0	13.3	4	4.1	4	-1E+10	1	-1E+10	1	-1E+10	1	-1E+10	1	-1E+10	1	-1E+10	1
4901784	115	C	08/28/2018	10:47	-132.180	42.988	0	1109.90	0	3.2400	0	34.6560	8	27.596	0	1098.162	0	13.5	4	4.2	4	-1E+10	1	-1E+10	1	-1E+10	1	-1E+10	1	-1E+10	1	-1E+10	1
4901784	115	C	08/28/2018	10:47	-132.180	42.988	0	1114.70	0	3.2350	0	34.6580	8	27.598	0	1102.899	0	13.5	4	4.2	4	-1E+10	1	-1E+10	1	-1E+10	1	-1E+10	1	-1E+10	1	-1E+10	1
4901784	115	C	08/28/2018	10:47	-132.180	42.988	0	1120.40	0	3.2180	0	34.6600	8	27.601	0	1108.523	0	13.6	4	4.2	4	-1E+10	1	-1E+10	1	-1E+10	1	-1E+10	1	-1E+10	1	-1E+10	1
4901784	115	C	08/28/2018	10:47	-132.180	42.988	0	1125.00	0	3.2070	0	34.6610	8	27.603	0	1113.062	0	13.7	4	4.3	4	-1E+10	1	-1E+10	1	-1E+10	1	-1E+10	1	-1E+10	1	-1E+10	1
4901784	115	C	08/28/2018	10:47	-132.180	42.988	0	1129.80	0	3.2000	0	34.6620	8	27.604	0	1117.799	0	13.7	4	4.3	4	-1E+10	1	-1E+10	1	-1E+10	1	-1E+10	1	-1E+10	1	-1E+10	1
4901784	115	C	08/28/2018	10:47	-132.180	42.988	0	1135.50	0	3.1810	0	34.6630	8	27.607	0	1123.423	0	13.7	4	4.3	4	-1E+10	1	-1E+10	1	-1E+10	1	-1E+10	1	-1E+10	1	-1E+10	1
4901784	115	C	08/28/2018	10:47	-132.180	42.988	0	1140.20	0	3.1660	0	34.6630	8	27.608	0	1128.060	0	13.8	4	4.3	4	-1E+10	1	-1E+10	1	-1E+10	1	-1E+10	1	-1E+10	1	-1E+10	1
4901784	115	C	08/28/2018	10:47	-132.180	42.988	0	1145.00	0	3.1480	0	34.6650	8	27.612	0	1132.796	0	13.9	4	4.3	4	-1E+10	1	-1E+10	1	-1E+10	1	-1E+10	1	-1E+10	1	-1E+10	1
4901784	115	C	08/28/2018	10:47	-132.180	42.988	0	1149.80	0	3.1400	0	34.6660	8	27.613	0	1137.532	0	14.0	4	4.3	4	-1E+10	1	-1E+10	1	-1E+10	1	-1E+10	1	-1E+10	1	-1E+10	1
4901784	115	C	08/28/2018	10:47	-132.180	42.988	0	1154.60	0	3.1350	0	34.6670	8	27.614	0	1142.268	0	14.1	4	4.4	4	-1E+10	1	-1E+10	1	-1E+10	1	-1E+10	1	-1E+10	1	-1E+10	1
4901784	115	C	08/28/2018	10:47	-132.180	42.988	0	1160.40	0	3.1240	0	34.6680	8	27.616	0	1147.990	0	14.2	4	4.4	4	-1E+10	1	-1E+10	1	-1E+10	1	-1E+10	1	-1E+10	1	-1E+10	1
4901784	115	C	08/28/2018	10:47	-132.180	42.988	0	1165.20	0	3.1150	0	34.6700	8	27.619	0	1152.726	0	14.4	4	4.5	4	-1E+10	1	-1E+10	1	-1E+10	1	-1E+10	1	-1E+10	1	-1E+10	1
4901784	115	C	08/28/2018	10:47	-132.180	42.988	0	1170.10	0	3.1060	0	34.6710	8	27.620	0	1157.560	0	14.5	4	4.5	4	-1E+10	1	-1E+10	1	-1E+10	1	-1E+10	1	-1E+10	1	-1E+10	1
4901784	115	C	08/28/2018	10:47	-132.180	42.988	0	1174.90	0	3.0980	0	34.6730	8	27.623	0	1162.295	0	14.6	4	4.5	4	-1E+10	1	-1E+10	1	-1E+10	1	-1E+10	1	-1E+10	1	-1E+10	1
4901784	115	C	08/28/2018	10:47	-132.180	42.988	0	1179.70	0	3.0910	0	34.6730	8	27.623	0	1167.030	0	14.8	4	4.6	4	-1E+10	1	-1E+10	1	-1E+10	1	-1E+10	1	-1E+10	1	-1E+10	1
4901784	115	C	08/28/2018	10:47	-132.180	42.988	0	1185.50	0	3.0730	0	34.6750	8	27.627	0	1172.752	0	15.1	4	4.7	4	-1E+10	1	-1E+10	1	-1E+10	1	-1E+10	1	-1E+10	1	-1E+10	1
4901784	115	C	08/28/2018	10:47	-132.180	42.988	0	1190.30	0	3.0580	0	34.6770	8	27.630	0	1177.487	0	15.2	4	4.7	4	-1E+10	1	-1E+10	1	-1E+10	1	-1E+10	1	-1E+10	1	-1E+10	1
4901784	115	C	08/28/2018	10:47	-132.180	42.988	0	1195.30	0	3.0510	0	34.6790	8	27.632	0	1182.419	0	15.4	4	4.8	4	-1E+10	1	-1E+10	1	-1E+10	1	-1E+10	1	-1E+10	1	-1E+10	1
4901784	115	C	08/28/2018	10:47	-132.180	42.988	0	1200.20	0	3.0410	0	34.6800	8	27.634	0	1187.252	0	15.5	4	4.8	4	-1E+10	1	-1E+10	1	-1E+10	1	-1E+10	1	-1E+10	1	-1E+10	1
4901784	115	C	08/28/2018	10:47	-132.180	42.988	0	1205.20	0	3.0310	0	34.6810	8	27.635	0	1192.184	0	15.7	4	4.9	4	-1E+10	1	-1E+10	1	-1E+10	1	-1E+10	1	-1E+10	1	-1E+10	1
4901784	115	C	08/28/2018	10:47	-132.180	42.988	0	1210.20	0	3.0250	0	34.6820	8	27.637	0	1197.116	0	15.8	4	4.9	4	-1E+10	1	-1E+10	1	-1E+10	1	-1E+10	1	-1E+10	1	-1E+10	1
4901784	115	C	08/28/2018	10:47	-132.180	42.988	0	1215.30	0	3.0160	0	34.6840	8	27.639	0	1202.146	0	16.1	4	5.0	4	-1E+10	1	-1E+10	1	-1E+10	1	-1E+10	1	-1E+10	1	-1E+10	1
4901784	115	C	08/28/2018	10:47	-132.180	42.988	0	1220.40	0	3.0110	0	34.6850	8	27.641	0	1207.176	0	16.3	4	5.0	4	-1E+10	1	-1E+10	1	-1E+10	1	-1E+10	1	-1E+10	1	-1E+10	1
4901784	115	C	08/28/2018	10:47	-132.180	42.988	0	1225.40	0	2.9960	0	34.6870	8	27.644	0	1212.108	0	16.5	4	5.1	4	-1E+10	1	-1E+10	1	-1E+10	1	-1E+10	1	-1E+10	1	-1E+10	1
4901784	115	C	08/28/2018	10:47	-132.180	42.988	0	1230.50	0	2.9880	0	34.6880	8	27.645	0	1217.138	0	16.8	4	5.2	4	-1E+10	1	-1E+10	1	-1E+10	1	-1E+10	1	-1E+10	1	-1E+10	1
4901784	115	C	08/28/2018	10:47	-132.180	42.988	0	1235.30	0	2.9730	0	34.6910	8	27.649	0	1221.872	0	17.1	4	5.3	4	-1E+10	1	-1E+10	1	-1E+10	1	-1E+10	1	-1E+10	1	-1E+10	1
4901784	115	C	08/28/2018	10:47	-132.180	42.988	0	1240.40	0	2.9580	0	34.6930	8	27.652	0	1226.901	0	17.3	4	5.4	4	-1E+10	1	-1E+10	1	-1E+10	1	-1E+10	1	-1E+10	1	-1E+10	1
4901784	115	C	08/28/2018	10:47	-132.180	42.988	0	1245.00	0	2.9480	0	34.6940	8	27.654	0	1231.438	0	17.5	4	5.4	4	-1E+10	1	-1E+10	1	-1E+10	1	-1E+10	1	-1E+10	1	-1E+10	1
4901784	115	C	08/28/2018	10:47	-132.180	42.988	0	1250.50	0	2.9390	0	34.6940	8	27.654	0	1236.862	0	17.7	4	5.5	4	-1E+10	1	-1E+10	1	-1E+10	1	-1E+10	1	-1E+10	1	-1E+10	1
4901784	115	C	08/28/2018	10:47	-132.180	42.988	0	1255.10	0	2.9230	0	34.6960	8	27.657	0	1241.398	0	17.9	4	5.5	4	-1E+10	1	-1E+10	1	-1E+10	1	-1E+10	1	-1E+10	1	-1E+10	1
4901784	115	C	08/28/2018	10:47	-132.180	42.988	0	1259.70	0	2.9090	0	34.6980	8	27.660	0	1245.934	0	18.0	4	5.6	4	-1E+10	1	-1E+10	1	-1E+10	1	-1E+10	1	-1E+10	1	-1E+10	1
4901784	115	C	08/28/2018	10:47	-132.180	42.988	0	1264.90	0	2.9020	0	34.6990	8	27.662	0	1251.062	0	18.1	4	5.6	4	-1E+10	1	-1E+10	1	-1E+10	1	-1E+10	1	-1E+10	1	-1E+10	1
4901784	115	C	08/28/2018	10:47	-132.180	42.988	0	1269.30	0	2.8990	0	34.6990	8	27.662	0	1255.401	0	18.2	4	5.6	4	-1E+10	1	-1E+10	1	-1E+10	1	-1E+10	1	-1E+10	1	-1E+10	1
4901784	115	C	08/28/2018	10:47	-132.180	42.988	0	1275.00	0	2.8990	0	34.6990	8	27.662	0	1261.021	0	18.3	4	5.7	4	-1E+10	1	-1E+10	1	-1E+10	1	-1E+10	1	-1E+10	1	-1E+10	1
4901784	115	C	08/28/2018	10:47	-132.180	42.988	0	1280.60	0	2.8910	0	34.7000	8	27.664	0	1266.543	0	18.7	4	5.8	4	-1E+10	1	-1E+10	1	-1E+10	1	-1E+10	1	-1E+10	1	-1E+10	1
4901784	115	C	08/28/2018	10:47	-132.180	42.988	0	1285.50	0	2.8720	0	34.7030	8	27.668	0	1271.374	0	19.0	4	5.9	4	-1E+10	1	-1E+10	1	-1E+10	1	-1E+10	1	-1E+10	1	-1E+10	1
4901784	115	C	08/28/2018	10:47	-132.180	42.988	0	1290.40	0	2.8580	0	34.7050	8	27.671	0	1276.206	0	19.2	4	5.9	4	-1E+10	1	-1E+10	1	-1E+10	1	-1E+10	1	-1E+10	1	-1E+10	1
4901784	115	C	08/28/2018	10:47	-132.180	42.988	0	1295.30	0	2.8450	0	34.7060	8	27.673	0	1281.037	0	19.4	4	6.0	4	-1E+10	1	-1E+10	1	-1E+10	1	-1E+10	1	-1E+10	1	-1E+10	1
4901784	115	C	08/28/2018	10:47	-132.180	42.988	0	1300.20	0	2.8300	0	34.7080	8	27.676	0	1285.868	0	19.7	4	6.1	4	-1E+10	1	-1E+10	1	-1E+10	1	-1E+10	1	-1E+10	1	-1E+10	1
4901784	115	C	08/28/2018	10:47	-132.180	42.988	0	1305.20	0	2.8190	0	34.7090	8	27.677	0	1290.797	0	19.9	4	6.1	4	-1E+10	1	-1E+10	1	-1E+10	1	-1E+10	1	-1E+10	1	-1E+10	1
4901784	115	C	08/28/2018	10:47	-132.180	42.988	0	1310.30	0	2.8130	0	34.7100	8	27.679	0	1295.826	0	20.0	4	6.2	4	-1E+10	1	-1E+10	1	-1E+10	1	-1E+10	1	-1E+10	1	-1E+10	1
4901784	115	C	08/28/2018	10:47	-132.180	42.988	0	1315.30	0	2.8050	0	34.7110	8	27.680	0	1300.755	0	20.2	4	6.2	4	-1E+10	1	-1E+10	1	-1E+10	1	-1E+10	1	-1E+10	1	-1E+10	1
4901784	115	C	08/28/2018	10:47	-132.180	42.988	0	1320.40	0	2.7950	0	34.7120	8	27.682	0	1305.783	0	20.5	4	6.3	4	-1E+10	1	-1E+10	1	-1E+10	1	-1E+10	1	-1E+10	1	-1E+10	1
4901784	115	C	08/28/2018	10:47	-132.180	42.988	0	1325.40	0	2.7820	0	34.7140	8	27.685	0	1310.712	0	20.7	4	6.4	4	-1E+10	1	-1E+10	1	-1E+10	1	-1E+10	1	-1E+10	1	-1E+10	1
4901784	115	C	08/28/2018	10:47	-132.180	42.988	0	1330.40	0	2.7720	0	34.7150	8	27.686	0	1315.641	0	20.9	4	6.4	4	-1E+10	1	-1E+10	1	-1E+10	1	-1E+10	1	-1E+10	1	-1E+10	1
4901784	115	C	08/28/2018	10:47	-132.180	42.988	0	1335.50	0	2.7630	0	34.7160	8	27.688	0	1320.668	0	21.2	4	6.5	4	-1E+10	1	-1E+10	1	-1E+10	1	-1E+10	1	-1E+10	1	-1E+10	1
4901784	115	C	08/28/2018	10:47	-132.180	42.988	0	1340.70	0	2.7470	0	34.7180	8	27.691	0	1325.794	0	21.6	4	6.6	4	-1E+10	1	-1E+10	1	-1E+10	1	-1E+10	1	-1E+10	1	-1E+10	1
4901784	115	C	08/28/2018	10:47	-132.180	42.988	0	1345.00	0	2.7360	0	34.7200	8	27.694	0	1330.033	0	21.9	4	6.7	4	-1E+10	1	-1E+10	1	-1E+10	1	-1E+10	1	-1E+10	1	-1E+10	1
4901784	115	C	08/28/2018	10:47	-132.180	42.988	0	1349.30	0	2.7270	0	34.7210	8	27.695	0	1334.271	0	22.1	4	6.8	4	-1E+10	1	-1E+10	1	-1E+10	1	-1E+10	1	-1E+10	1	-1E+10	1
4901784	115	C	08/28/2018	10:47	-132.180	42.988	0	1354.60	0	2.7150	0	34.7220	8	27.697	0	1339.495	0	22.3	4	6.9	4	-1E+10	1	-1E+10	1	-1E+10	1	-1E+10	1	-1E+10	1	-1E+10	1
4901784	115	C	08/28/2018	10:47	-132.180	42.988	0	1359.90	0	2.7040	0	34.7230	8	27.699	0	1344.720	0	22.6	4	6.9	4	-1E+10	1	-1E+10	1	-1E+10	1	-1E+10	1	-1E+10	1	-1E+10	1
4901784	115	C	08/28/2018	10:47	-132.180	42.988	0	1365.10	0	2.6880	0	34.7240	8	27.701	0	1349.845	0	22.9	4	7.0	4	-1E+10	1	-1E+10	1	-1E+10	1	-1E+10	1	-1E+10	1	-1E+10	1
4901784	115	C	08/28/2018	10:47	-132.180	42.988	0	1370.40	0	2.6740	0	34.7260	8	27.704	0	1355.069	0	23.1	4	7.1	4	-1E+10	1	-1E+10	1	-1E+10	1	-1E+10	1	-1E+10	1	-1E+10	1
4901784	115	C	08/28/2018	10:47	-132.180	42.988	0	1374.90	0	2.6710	0	34.7260	8	27.704	0	1359.504	0	23.2	4	7.1	4	-1E+10	1	-1E+10	1	-1E+10	1	-1E+10	1	-1E+10	1	-1E+10	1
4901784	115	C	08/28/2018	10:47	-132.180	42.988	0	1379.40	0	2.6660	0	34.7270	8	27.706	0	1363.939	0	23.5	4	7.2	4	-1E+10	1	-1E+10	1	-1E+10	1	-1E+10	1	-1E+10	1	-1E+10	1
4901784	115	C	08/28/2018	10:47	-132.180	42.988	0	1384.80	0	2.6490	0	34.7290	8	27.709	0	1369.261	0	23.8	4	7.3	4	-1E+10	1	-1E+10	1	-1E+10	1	-1E+10	1	-1E+10	1	-1E+10	1
4901784	115	C	08/28/2018	10:47	-132.180	42.988	0	1390.20	0	2.6410	0	34.7290	8	27.709	0	1374.583	0	24.0	4	7.4	4	-1E+10	1	-1E+10	1	-1E+10	1	-1E+10	1	-1E+10	1	-1E+10	1
4901784	115	C	08/28/2018	10:47	-132.180	42.988	0	1395.70	0	2.6300	0	34.7310	8	27.712	0	1380.003	0	24.3	4	7.5	4	-1E+10	1	-1E+10	1	-1E+10	1	-1E+10	1	-1E+10	1	-1E+10	1
4901784	115	C	08/28/2018	10:47	-132.180	42.988	0	1400.20	0	2.6240	0	34.7320	8	27.713	0	1384.437	0	24.5	4	7.5	4	-1E+10	1	-1E+10	1	-1E+10	1	-1E+10	1	-1E+10	1	-1E+10	1
4901784	115	C	08/28/2018	10:47	-132.180	42.988	0	1404.80	0	2.6210	0	34.7320	8	27.714	0	1388.971	0	24.7	4	7.6	4	-1E+10	1	-1E+10	1	-1E+10	1	-1E+10	1	-1E+10	1	-1E+10	1
4901784	115	C	08/28/2018	10:47	-132.180	42.988	0	1410.30	0	2.6180	0	34.7330	8	27.715	0	1394.390	0	24.9	4	7.6	4	-1E+10	1	-1E+10	1	-1E+10	1	-1E+10	1	-1E+10	1	-1E+10	1
4901784	115	C	08/28/2018	10:47	-132.180	42.988	0	1414.90	0	2.6120	0	34.7340	8	27.716	0	1398.923	0	25.2	4	7.7	4	-1E+10	1	-1E+10	1	-1E+10	1	-1E+10	1	-1E+10	1	-1E+10	1
4901784	115	C	08/28/2018	10:47	-132.180	42.988	0	1419.50	0	2.6040	0	34.7350	8	27.718	0	1403.456	0	25.4	4	7.8	4	-1E+10	1	-1E+10	1	-1E+10	1	-1E+10	1	-1E+10	1	-1E+10	1
4901784	115	C	08/28/2018	10:47	-132.180	42.988	0	1425.00	0	2.5940	0	34.7360	8	27.719	0	1408.875	0	25.8	4	7.9	4	-1E+10	1	-1E+10	1	-1E+10	1	-1E+10	1	-1E+10	1	-1E+10	1
4901784	115	C	08/28/2018	10:47	-132.180	42.988	0	1430.50	0	2.5870	0	34.7370	8	27.721	0	1414.295	0	26.0	4	8.0	4	-1E+10	1	-1E+10	1	-1E+10	1	-1E+10	1	-1E+10	1	-1E+10	1
4901784	115	C	08/28/2018	10:47	-132.180	42.988	0	1434.70	0	2.5800	0	34.7380	8	27.722	0	1418.433	0	26.3	4	8.0	4	-1E+10	1	-1E+10	1	-1E+10	1	-1E+10	1	-1E+10	1	-1E+10	1
4901784	115	C	08/28/2018	10:47	-132.180	42.988	0	1439.50	0	2.5690	0	34.7390	8	27.724	0	1423.163	0	26.6	4	8.1	4	-1E+10	1	-1E+10	1	-1E+10	1	-1E+10	1	-1E+10	1	-1E+10	1
4901784	115	C	08/28/2018	10:47	-132.180	42.988	0	1444.40	0	2.5590	0	34.7400	8	27.725	0	1427.990	0	26.8	4	8.2	4	-1E+10	1	-1E+10	1	-1E+10	1	-1E+10	1	-1E+10	1	-1E+10	1
4901784	115	C	08/28/2018	10:47	-132.180	42.988	0	1449.50	0	2.5490	0	34.7410	8	27.727	0	1433.015	0	27.0	4	8.3	4	-1E+10	1	-1E+10	1	-1E+10	1	-1E+10	1	-1E+10	1	-1E+10	1
4901784	115	C	08/28/2018	10:47	-132.180	42.988	0	1454.50	0	2.5450	0	34.7410	8	27.728	0	1437.941	0	27.3	4	8.4	4	-1E+10	1	-1E+10	1	-1E+10	1	-1E+10	1	-1E+10	1	-1E+10	1
4901784	115	C	08/28/2018	10:47	-132.180	42.988	0	1459.60	0	2.5330	0	34.7430	8	27.730	0	1442.966	0	27.7	4	8.5	4	-1E+10	1	-1E+10	1	-1E+10	1	-1E+10	1	-1E+10	1	-1E+10	1
4901784	115	C	08/28/2018	10:47	-132.180	42.988	0	1464.70	0	2.5250	0	34.7440	8	27.732	0	1447.990	0	28.1	4	8.6	4	-1E+10	1	-1E+10	1	-1E+10	1	-1E+10	1	-1E+10	1	-1E+10	1
4901784	115	C	08/28/2018	10:47	-132.180	42.988	0	1469.90	0	2.5130	0	34.7450	8	27.734	0	1453.113	0	28.5	4	8.7	4	-1E+10	1	-1E+10	1	-1E+10	1	-1E+10	1	-1E+10	1	-1E+10	1
4901784	115	C	08/28/2018	10:47	-132.180	42.988	0	1475.10	0	2.5000	0	34.7470	8	27.736	0	1458.236	0	28.9	4	8.8	4	-1E+10	1	-1E+10	1	-1E+10	1	-1E+10	1	-1E+10	1	-1E+10	1
4901784	115	C	08/28/2018	10:47	-132.180	42.988	0	1480.30	0	2.4890	0	34.7480	8	27.738	0	1463.358	0	29.3	4	9.0	4	-1E+10	1	-1E+10	1	-1E+10	1	-1E+10	1	-1E+10	1	-1E+10	1
4901784	115	C	08/28/2018	10:47	-132.180	42.988	0	1485.50	0	2.4770	0	34.7490	8	27.740	0	1468.481	0	29.6	4	9.1	4	-1E+10	1	-1E+10	1	-1E+10	1	-1E+10	1	-1E+10	1	-1E+10	1
4901784	115	C	08/28/2018	10:47	-132.180	42.988	0	1489.90	0	2.4700	0	34.7500	8	27.741	0	1472.815	0	29.9	4	9.1	4	-1E+10	1	-1E+10	1	-1E+10	1	-1E+10	1	-1E+10	1	-1E+10	1
4901784	115	C	08/28/2018	10:47	-132.180	42.988	0	1494.30	0	2.4650	0	34.7510	8	27.743	0	1477.149	0	30.0	4	9.2	4	-1E+10	1	-1E+10	1	-1E+10	1	-1E+10	1	-1E+10	1	-1E+10	1
4901784	115	C	08/28/2018	10:47	-132.180	42.988	0	1499.60	0	2.4610	0	34.7510	8	27.743	0	1482.370	0	30.3	4	9.3	4	-1E+10	1	-1E+10	1	-1E+10	1	-1E+10	1	-1E+10	1	-1E+10	1
4901784	115	C	08/28/2018	10:47	-132.180	42.988	0	1505.00	0	2.4530	0	34.7520	8	27.744	0	1487.689	0	30.7	4	9.4	4	-1E+10	1	-1E+10	1	-1E+10	1	-1E+10	1	-1E+10	1	-1E+10	1
4901784	115	C	08/28/2018	10:47	-132.180	42.988	0	1510.40	0	2.4400	0	34.7540	8	27.747	0	1493.008	0	31.0	4	9.5	4	-1E+10	1	-1E+10	1	-1E+10	1	-1E+10	1	-1E+10	1	-1E+10	1
4901784	115	C	08/28/2018	10:47	-132.180	42.988	0	1514.90	0	2.4370	0	34.7540	8	27.747	0	1497.440	0	31.2	4	9.5	4	-1E+10	1	-1E+10	1	-1E+10	1	-1E+10	1	-1E+10	1	-1E+10	1
4901784	115	C	08/28/2018	10:47	-132.180	42.988	0	1519.40	0	2.4300	0	34.7550	8	27.749	0	1501.872	0	31.5	4	9.6	4	-1E+10	1	-1E+10	1	-1E+10	1	-1E+10	1	-1E+10	1	-1E+10	1
4901784	115	C	08/28/2018	10:47	-132.180	42.988	0	1524.90	0	2.4190	0	34.7560	8	27.751	0	1507.289	0	31.9	4	9.7	4	-1E+10	1	-1E+10	1	-1E+10	1	-1E+10	1	-1E+10	1	-1E+10	1
4901784	115	C	08/28/2018	10:47	-132.180	42.988	0	1530.30	0	2.4120	0	34.7570	8	27.752	0	1512.607	0	32.2	4	9.8	4	-1E+10	1	-1E+10	1	-1E+10	1	-1E+10	1	-1E+10	1	-1E+10	1
4901784	115	C	08/28/2018	10:47	-132.180	42.988	0	1534.80	0	2.4050	0	34.7580	8	27.753	0	1517.039	0	32.4	4	9.9	4	-1E+10	1	-1E+10	1	-1E+10	1	-1E+10	1	-1E+10	1	-1E+10	1
4901784	115	C	08/28/2018	10:47	-132.180	42.988	0	1539.40	0	2.3990	0	34.7580	8	27.754	0	1521.569	0	32.7	4	10.0	4	-1E+10	1	-1E+10	1	-1E+10	1	-1E+10	1	-1E+10	1	-1E+10	1
4901784	115	C	08/28/2018	10:47	-132.180	42.988	0	1544.90	0	2.3900	0	34.7590	8	27.755	0	1526.986	0	33.1	4	10.1	4	-1E+10	1	-1E+10	1	-1E+10	1	-1E+10	1	-1E+10	1	-1E+10	1
4901784	115	C	08/28/2018	10:47	-132.180	42.988	0	1550.40	0	2.3800	0	34.7610	8	27.758	0	1532.402	0	33.5	4	10.2	4	-1E+10	1	-1E+10	1	-1E+10	1	-1E+10	1	-1E+10	1	-1E+10	1
4901784	115	C	08/28/2018	10:47	-132.180	42.988	0	1555.00	0	2.3760	0	34.7610	8	27.758	0	1536.932	0	33.8	4	10.3	4	-1E+10	1	-1E+10	1	-1E+10	1	-1E+10	1	-1E+10	1	-1E+10	1
4901784	115	C	08/28/2018	10:47	-132.180	42.988	0	1559.80	0	2.3660	0	34.7630	8	27.761	0	1541.659	0	34.2	4	10.4	4	-1E+10	1	-1E+10	1	-1E+10	1	-1E+10	1	-1E+10	1	-1E+10	1
4901784	115	C	08/28/2018	10:47	-132.180	42.988	0	1564.90	0	2.3530	0	34.7640	8	27.763	0	1546.681	0	34.6	4	10.6	4	-1E+10	1	-1E+10	1	-1E+10	1	-1E+10	1	-1E+10	1	-1E+10	1
4901784	115	C	08/28/2018	10:47	-132.180	42.988	0	1569.60	0	2.3440	0	34.7660	8	27.765	0	1551.309	0	34.9	4	10.6	4	-1E+10	1	-1E+10	1	-1E+10	1	-1E+10	1	-1E+10	1	-1E+10	1
4901784	115	C	08/28/2018	10:47	-132.180	42.988	0	1574.40	0	2.3410	0	34.7660	8	27.765	0	1556.035	0	35.2	4	10.7	4	-1E+10	1	-1E+10	1	-1E+10	1	-1E+10	1	-1E+10	1	-1E+10	1
4901784	115	C	08/28/2018	10:47	-132.180	42.988	0	1579.30	0	2.3330	0	34.7670	8	27.767	0	1560.860	0	35.5	4	10.8	4	-1E+10	1	-1E+10	1	-1E+10	1	-1E+10	1	-1E+10	1	-1E+10	1
4901784	115	C	08/28/2018	10:47	-132.180	42.988	0	1585.00	0	2.3260	0	34.7680	8	27.768	0	1566.472	0	35.8	4	10.9	4	-1E+10	1	-1E+10	1	-1E+10	1	-1E+10	1	-1E+10	1	-1E+10	1
4901784	115	C	08/28/2018	10:47	-132.180	42.988	0	1590.80	0	2.3160	0	34.7690	8	27.770	0	1572.183	0	36.2	4	11.0	4	-1E+10	1	-1E+10	1	-1E+10	1	-1E+10	1	-1E+10	1	-1E+10	1
4901784	115	C	08/28/2018	10:47	-132.180	42.988	0	1595.70	0	2.3130	0	34.7690	8	27.770	0	1577.007	0	36.5	4	11.1	4	-1E+10	1	-1E+10	1	-1E+10	1	-1E+10	1	-1E+10	1	-1E+10	1
4901784	115	C	08/28/2018	10:47	-132.180	42.988	0	1600.70	0	2.3040	0	34.7700	8	27.772	0	1581.930	0	36.9	4	11.2	4	-1E+10	1	-1E+10	1	-1E+10	1	-1E+10	1	-1E+10	1	-1E+10	1
4901784	115	C	08/28/2018	10:47	-132.180	42.988	0	1605.70	0	2.2970	0	34.7710	8	27.773	0	1586.853	0	37.2	4	11.3	4	-1E+10	1	-1E+10	1	-1E+10	1	-1E+10	1	-1E+10	1	-1E+10	1
4901784	115	C	08/28/2018	10:47	-132.180	42.988	0	1610.70	0	2.2890	0	34.7720	8	27.775	0	1591.775	0	37.6	4	11.4	4	-1E+10	1	-1E+10	1	-1E+10	1	-1E+10	1	-1E+10	1	-1E+10	1
4901784	115	C	08/28/2018	10:47	-132.180	42.988	0	1615.70	0	2.2790	0	34.7730	8	27.776	0	1596.698	0	38.0	4	11.5	4	-1E+10	1	-1E+10	1	-1E+10	1	-1E+10	1	-1E+10	1	-1E+10	1
4901784	115	C	08/28/2018	10:47	-132.180	42.988	0	1620.70	0	2.2730	0	34.7740	8	27.777	0	1601.620	0	38.3	4	11.6	4	-1E+10	1	-1E+10	1	-1E+10	1	-1E+10	1	-1E+10	1	-1E+10	1
4901784	115	C	08/28/2018	10:47	-132.180	42.988	0	1625.00	0	2.2690	0	34.7750	8	27.779	0	1605.853	0	38.6	4	11.7	4	-1E+10	1	-1E+10	1	-1E+10	1	-1E+10	1	-1E+10	1	-1E+10	1
4901784	115	C	08/28/2018	10:47	-132.180	42.988	0	1629.20	0	2.2620	0	34.7760	8	27.780	0	1609.988	0	38.9	4	11.8	4	-1E+10	1	-1E+10	1	-1E+10	1	-1E+10	1	-1E+10	1	-1E+10	1
4901784	115	C	08/28/2018	10:47	-132.180	42.988	0	1634.30	0	2.2520	0	34.7770	8	27.782	0	1615.008	0	39.4	4	12.0	4	-1E+10	1	-1E+10	1	-1E+10	1	-1E+10	1	-1E+10	1	-1E+10	1
4901784	115	C	08/28/2018	10:47	-132.180	42.988	0	1639.50	0	2.2430	0	34.7780	8	27.783	0	1620.127	0	39.7	4	12.1	4	-1E+10	1	-1E+10	1	-1E+10	1	-1E+10	1	-1E+10	1	-1E+10	1
4901784	115	C	08/28/2018	10:47	-132.180	42.988	0	1644.80	0	2.2340	0	34.7790	8	27.785	0	1625.344	0	40.0	4	12.1	4	-1E+10	1	-1E+10	1	-1E+10	1	-1E+10	1	-1E+10	1	-1E+10	1
4901784	115	C	08/28/2018	10:47	-132.180	42.988	0	1650.10	0	2.2310	0	34.7800	8	27.786	0	1630.561	0	40.1	4	12.2	4	-1E+10	1	-1E+10	1	-1E+10	1	-1E+10	1	-1E+10	1	-1E+10	1
4901784	115	C	08/28/2018	10:47	-132.180	42.988	0	1655.30	0	2.2290	0	34.7800	8	27.786	0	1635.679	0	40.4	4	12.3	4	-1E+10	1	-1E+10	1	-1E+10	1	-1E+10	1	-1E+10	1	-1E+10	1
4901784	115	C	08/28/2018	10:47	-132.180	42.988	0	1659.80	0	2.2240	0	34.7800	8	27.786	0	1640.109	0	40.6	4	12.3	4	-1E+10	1	-1E+10	1	-1E+10	1	-1E+10	1	-1E+10	1	-1E+10	1
4901784	115	C	08/28/2018	10:47	-132.180	42.988	0	1664.40	0	2.2180	0	34.7810	8	27.788	0	1644.636	0	40.9	4	12.4	4	-1E+10	1	-1E+10	1	-1E+10	1	-1E+10	1	-1E+10	1	-1E+10	1
4901784	115	C	08/28/2018	10:47	-132.180	42.988	0	1669.80	0	2.2110	0	34.7820	8	27.789	0	1649.951	0	41.2	4	12.5	4	-1E+10	1	-1E+10	1	-1E+10	1	-1E+10	1	-1E+10	1	-1E+10	1
4901784	115	C	08/28/2018	10:47	-132.180	42.988	0	1675.20	0	2.2060	0	34.7820	8	27.790	0	1655.266	0	41.5	4	12.6	4	-1E+10	1	-1E+10	1	-1E+10	1	-1E+10	1	-1E+10	1	-1E+10	1
4901784	115	C	08/28/2018	10:47	-132.180	42.988	0	1679.80	0	2.2020	0	34.7830	8	27.791	0	1659.793	0	41.7	4	12.7	4	-1E+10	1	-1E+10	1	-1E+10	1	-1E+10	1	-1E+10	1	-1E+10	1
4901784	115	C	08/28/2018	10:47	-132.180	42.988	0	1684.20	0	2.1970	0	34.7840	8	27.792	0	1664.123	0	42.1	4	12.8	4	-1E+10	1	-1E+10	1	-1E+10	1	-1E+10	1	-1E+10	1	-1E+10	1
4901784	115	C	08/28/2018	10:47	-132.180	42.988	0	1689.50	0	2.1870	0	34.7850	8	27.794	0	1669.339	0	42.4	4	12.9	4	-1E+10	1	-1E+10	1	-1E+10	1	-1E+10	1	-1E+10	1	-1E+10	1
4901784	115	C	08/28/2018	10:47	-132.180	42.988	0	1694.40	0	2.1850	0	34.7850	8	27.794	0	1674.161	0	42.6	4	12.9	4	-1E+10	1	-1E+10	1	-1E+10	1	-1E+10	1	-1E+10	1	-1E+10	1
4901784	115	C	08/28/2018	10:47	-132.180	42.988	0	1699.20	0	2.1800	0	34.7850	8	27.794	0	1678.885	0	43.0	4	13.1	4	-1E+10	1	-1E+10	1	-1E+10	1	-1E+10	1	-1E+10	1	-1E+10	1
4901784	115	C	08/28/2018	10:47	-132.180	42.988	0	1705.00	0	2.1670	0	34.7870	8	27.797	0	1684.593	0	43.6	4	13.2	4	-1E+10	1	-1E+10	1	-1E+10	1	-1E+10	1	-1E+10	1	-1E+10	1
4901784	115	C	08/28/2018	10:47	-132.180	42.988	0	1710.80	0	2.1540	0	34.7880	8	27.799	0	1690.300	0	44.3	4	13.4	4	-1E+10	1	-1E+10	1	-1E+10	1	-1E+10	1	-1E+10	1	-1E+10	1
4901784	115	C	08/28/2018	10:47	-132.180	42.988	0	1715.80	0	2.1410	0	34.7900	8	27.801	0	1695.220	0	44.6	4	13.5	4	-1E+10	1	-1E+10	1	-1E+10	1	-1E+10	1	-1E+10	1	-1E+10	1
4901784	115	C	08/28/2018	10:47	-132.180	42.988	0	1720.00	0	2.1390	0	34.7900	8	27.802	0	1699.353	0	44.9	4	13.6	4	-1E+10	1	-1E+10	1	-1E+10	1	-1E+10	1	-1E+10	1	-1E+10	1
4901784	115	C	08/28/2018	10:47	-132.180	42.988	0	1724.20	0	2.1340	0	34.7910	8	27.803	0	1703.486	0	45.2	4	13.7	4	-1E+10	1	-1E+10	1	-1E+10	1	-1E+10	1	-1E+10	1	-1E+10	1
4901784	115	C	08/28/2018	10:47	-132.180	42.988	0	1729.30	0	2.1240	0	34.7920	8	27.804	0	1708.504	0	45.6	4	13.8	4	-1E+10	1	-1E+10	1	-1E+10	1	-1E+10	1	-1E+10	1	-1E+10	1
4901784	115	C	08/28/2018	10:47	-132.180	42.988	0	1734.40	0	2.1140	0	34.7930	8	27.806	0	1713.522	0	45.9	4	13.9	4	-1E+10	1	-1E+10	1	-1E+10	1	-1E+10	1	-1E+10	1	-1E+10	1
4901784	115	C	08/28/2018	10:47	-132.180	42.988	0	1739.50	0	2.1100	0	34.7930	8	27.806	0	1718.540	0	46.1	4	14.0	4	-1E+10	1	-1E+10	1	-1E+10	1	-1E+10	1	-1E+10	1	-1E+10	1
4901784	115	C	08/28/2018	10:47	-132.180	42.988	0	1744.70	0	2.1070	0	34.7940	8	27.808	0	1723.656	0	46.4	4	14.1	4	-1E+10	1	-1E+10	1	-1E+10	1	-1E+10	1	-1E+10	1	-1E+10	1
4901784	115	C	08/28/2018	10:47	-132.180	42.988	0	1750.00	0	2.0990	0	34.7940	8	27.808	0	1728.871	0	46.9	4	14.2	4	-1E+10	1	-1E+10	1	-1E+10	1	-1E+10	1	-1E+10	1	-1E+10	1
4901784	115	C	08/28/2018	10:47	-132.180	42.988	0	1755.20	0	2.0880	0	34.7960	8	27.811	0	1733.987	0	47.3	4	14.3	4	-1E+10	1	-1E+10	1	-1E+10	1	-1E+10	1	-1E+10	1	-1E+10	1
4901784	115	C	08/28/2018	10:47	-132.180	42.988	0	1760.50	0	2.0820	0	34.7960	8	27.811	0	1739.201	0	47.6	4	14.4	4	-1E+10	1	-1E+10	1	-1E+10	1	-1E+10	1	-1E+10	1	-1E+10	1
4901784	115	C	08/28/2018	10:47	-132.180	42.988	0	1765.70	0	2.0770	0	34.7970	8	27.812	0	1744.317	0	47.8	4	14.5	4	-1E+10	1	-1E+10	1	-1E+10	1	-1E+10	1	-1E+10	1	-1E+10	1
4901784	115	C	08/28/2018	10:47	-132.180	42.988	0	1770.10	0	2.0710	0	34.7980	8	27.814	0	1748.645	0	48.1	4	14.5	4	-1E+10	1	-1E+10	1	-1E+10	1	-1E+10	1	-1E+10	1	-1E+10	1
4901784	115	C	08/28/2018	10:47	-132.180	42.988	0	1774.50	0	2.0680	0	34.7980	8	27.814	0	1752.974	0	48.3	4	14.6	4	-1E+10	1	-1E+10	1	-1E+10	1	-1E+10	1	-1E+10	1	-1E+10	1
4901784	115	C	08/28/2018	10:47	-132.180	42.988	0	1779.80	0	2.0620	0	34.7990	8	27.815	0	1758.188	0	48.6	4	14.7	4	-1E+10	1	-1E+10	1	-1E+10	1	-1E+10	1	-1E+10	1	-1E+10	1
4901784	115	C	08/28/2018	10:47	-132.180	42.988	0	1785.10	0	2.0580	0	34.7990	8	27.816	0	1763.401	0	48.8	4	14.8	4	-1E+10	1	-1E+10	1	-1E+10	1	-1E+10	1	-1E+10	1	-1E+10	1
4901784	115	C	08/28/2018	10:47	-132.180	42.988	0	1790.40	0	2.0530	0	34.8000	8	27.817	0	1768.615	0	49.1	4	14.9	4	-1E+10	1	-1E+10	1	-1E+10	1	-1E+10	1	-1E+10	1	-1E+10	1
4901784	115	C	08/28/2018	10:47	-132.180	42.988	0	1794.90	0	2.0470	0	34.8000	8	27.817	0	1773.041	0	49.3	4	14.9	4	-1E+10	1	-1E+10	1	-1E+10	1	-1E+10	1	-1E+10	1	-1E+10	1
4901784	115	C	08/28/2018	10:47	-132.180	42.988	0	1799.30	0	2.0460	0	34.8010	8	27.818	0	1777.369	0	49.3	4	14.9	4	-1E+10	1	-1E+10	1	-1E+10	1	-1E+10	1	-1E+10	1	-1E+10	1
4901784	115	C	08/28/2018	10:47	-132.180	42.988	0	1804.80	0	2.0450	0	34.8010	8	27.818	0	1782.779	0	49.5	4	15.0	4	-1E+10	1	-1E+10	1	-1E+10	1	-1E+10	1	-1E+10	1	-1E+10	1
4901784	115	C	08/28/2018	10:47	-132.180	42.988	0	1810.20	0	2.0400	0	34.8010	8	27.819	0	1788.091	0	49.9	4	15.1	4	-1E+10	1	-1E+10	1	-1E+10	1	-1E+10	1	-1E+10	1	-1E+10	1
4901784	115	C	08/28/2018	10:47	-132.180	42.988	0	1815.60	0	2.0360	0	34.8020	8	27.820	0	1793.402	0	50.1	4	15.1	4	-1E+10	1	-1E+10	1	-1E+10	1	-1E+10	1	-1E+10	1	-1E+10	1
4901784	115	C	08/28/2018	10:47	-132.180	42.988	0	1820.20	0	2.0340	0	34.8020	8	27.820	0	1797.926	0	50.2	4	15.2	4	-1E+10	1	-1E+10	1	-1E+10	1	-1E+10	1	-1E+10	1	-1E+10	1
4901784	115	C	08/28/2018	10:47	-132.180	42.988	0	1824.70	0	2.0310	0	34.8030	8	27.821	0	1802.352	0	50.3	4	15.2	4	-1E+10	1	-1E+10	1	-1E+10	1	-1E+10	1	-1E+10	1	-1E+10	1
4901784	115	C	08/28/2018	10:47	-132.180	42.988	0	1830.20	0	2.0300	0	34.8030	8	27.821	0	1807.761	0	50.5	4	15.3	4	-1E+10	1	-1E+10	1	-1E+10	1	-1E+10	1	-1E+10	1	-1E+10	1
4901784	115	C	08/28/2018	10:47	-132.180	42.988	0	1834.80	0	2.0280	0	34.8030	8	27.821	0	1812.285	0	50.6	4	15.3	4	-1E+10	1	-1E+10	1	-1E+10	1	-1E+10	1	-1E+10	1	-1E+10	1
4901784	115	C	08/28/2018	10:47	-132.180	42.988	0	1839.30	0	2.0270	0	34.8030	8	27.822	0	1816.711	0	50.8	4	15.4	4	-1E+10	1	-1E+10	1	-1E+10	1	-1E+10	1	-1E+10	1	-1E+10	1
4901784	115	C	08/28/2018	10:47	-132.180	42.988	0	1844.80	0	2.0220	0	34.8040	8	27.823	0	1822.120	0	51.2	4	15.5	4	-1E+10	1	-1E+10	1	-1E+10	1	-1E+10	1	-1E+10	1	-1E+10	1
4901784	115	C	08/28/2018	10:47	-132.180	42.988	0	1850.30	0	2.0190	0	34.8050	8	27.824	0	1827.529	0	51.4	4	15.5	4	-1E+10	1	-1E+10	1	-1E+10	1	-1E+10	1	-1E+10	1	-1E+10	1
4901784	115	C	08/28/2018	10:47	-132.180	42.988	0	1854.90	0	2.0150	0	34.8060	8	27.825	0	1832.052	0	51.6	4	15.6	4	-1E+10	1	-1E+10	1	-1E+10	1	-1E+10	1	-1E+10	1	-1E+10	1
4901784	115	C	08/28/2018	10:47	-132.180	42.988	0	1859.60	0	2.0130	0	34.8060	8	27.825	0	1836.674	0	51.8	4	15.6	4	-1E+10	1	-1E+10	1	-1E+10	1	-1E+10	1	-1E+10	1	-1E+10	1
4901784	115	C	08/28/2018	10:47	-132.180	42.988	0	1865.10	0	2.0100	0	34.8060	8	27.825	0	1842.082	0	52.0	4	15.7	4	-1E+10	1	-1E+10	1	-1E+10	1	-1E+10	1	-1E+10	1	-1E+10	1
4901784	115	C	08/28/2018	10:47	-132.180	42.988	0	1869.70	0	2.0080	0	34.8070	8	27.826	0	1846.606	0	52.1	4	15.7	4	-1E+10	1	-1E+10	1	-1E+10	1	-1E+10	1	-1E+10	1	-1E+10	1
4901784	115	C	08/28/2018	10:47	-132.180	42.988	0	1874.30	0	2.0060	0	34.8070	8	27.827	0	1851.129	0	52.3	4	15.8	4	-1E+10	1	-1E+10	1	-1E+10	1	-1E+10	1	-1E+10	1	-1E+10	1
4901784	115	C	08/28/2018	10:47	-132.180	42.988	0	1879.70	0	2.0030	0	34.8080	8	27.828	0	1856.438	0	52.5	4	15.9	4	-1E+10	1	-1E+10	1	-1E+10	1	-1E+10	1	-1E+10	1	-1E+10	1
4901784	115	C	08/28/2018	10:47	-132.180	42.988	0	1884.50	0	2.0010	0	34.8080	8	27.828	0	1861.158	0	52.7	4	15.9	4	-1E+10	1	-1E+10	1	-1E+10	1	-1E+10	1	-1E+10	1	-1E+10	1
4901784	115	C	08/28/2018	10:47	-132.180	42.988	0	1889.40	0	1.9990	0	34.8080	8	27.828	0	1865.976	0	52.9	4	16.0	4	-1E+10	1	-1E+10	1	-1E+10	1	-1E+10	1	-1E+10	1	-1E+10	1
4901784	115	C	08/28/2018	10:47	-132.180	42.988	0	1894.20	0	1.9950	0	34.8090	8	27.829	0	1870.695	0	53.2	4	16.1	4	-1E+10	1	-1E+10	1	-1E+10	1	-1E+10	1	-1E+10	1	-1E+10	1
4901784	115	C	08/28/2018	10:47	-132.180	42.988	0	1900.00	0	1.9910	0	34.8100	8	27.830	0	1876.398	0	53.5	4	16.1	4	-1E+10	1	-1E+10	1	-1E+10	1	-1E+10	1	-1E+10	1	-1E+10	1
4901784	115	C	08/28/2018	10:47	-132.180	42.988	0	1905.70	0	1.9890	0	34.8100	8	27.831	0	1882.002	0	53.7	4	16.2	4	-1E+10	1	-1E+10	1	-1E+10	1	-1E+10	1	-1E+10	1	-1E+10	1
4901784	115	C	08/28/2018	10:47	-132.180	42.988	0	1910.70	0	1.9860	0	34.8110	8	27.832	0	1886.917	0	53.8	4	16.3	4	-1E+10	1	-1E+10	1	-1E+10	1	-1E+10	1	-1E+10	1	-1E+10	1
4901784	115	C	08/28/2018	10:47	-132.180	42.988	0	1915.70	0	1.9850	0	34.8110	8	27.832	0	1891.833	0	54.0	4	16.3	4	-1E+10	1	-1E+10	1	-1E+10	1	-1E+10	1	-1E+10	1	-1E+10	1
4901784	115	C	08/28/2018	10:47	-132.180	42.988	0	1920.70	0	1.9830	0	34.8110	8	27.832	0	1896.748	0	54.2	4	16.4	4	-1E+10	1	-1E+10	1	-1E+10	1	-1E+10	1	-1E+10	1	-1E+10	1
4901784	115	C	08/28/2018	10:47	-132.180	42.988	0	1925.80	0	1.9810	0	34.8120	8	27.833	0	1901.762	0	54.3	4	16.4	4	-1E+10	1	-1E+10	1	-1E+10	1	-1E+10	1	-1E+10	1	-1E+10	1
4901784	115	C	08/28/2018	10:47	-132.180	42.988	0	1930.00	0	1.9800	0	34.8120	8	27.833	0	1905.891	0	54.5	4	16.5	4	-1E+10	1	-1E+10	1	-1E+10	1	-1E+10	1	-1E+10	1	-1E+10	1
4901784	115	C	08/28/2018	10:47	-132.180	42.988	0	1934.20	0	1.9780	0	34.8120	8	27.833	0	1910.020	0	54.7	4	16.5	4	-1E+10	1	-1E+10	1	-1E+10	1	-1E+10	1	-1E+10	1	-1E+10	1
4901784	115	C	08/28/2018	10:47	-132.180	42.988	0	1939.30	0	1.9750	0	34.8130	8	27.834	0	1915.033	0	55.0	4	16.6	4	-1E+10	1	-1E+10	1	-1E+10	1	-1E+10	1	-1E+10	1	-1E+10	1
4901784	115	C	08/28/2018	10:47	-132.180	42.988	0	1944.40	0	1.9720	0	34.8140	8	27.835	0	1920.046	0	55.3	4	16.7	4	-1E+10	1	-1E+10	1	-1E+10	1	-1E+10	1	-1E+10	1	-1E+10	1
4901784	115	C	08/28/2018	10:47	-132.180	42.988	0	1949.50	0	1.9680	0	34.8140	8	27.836	0	1925.059	0	55.5	4	16.8	4	-1E+10	1	-1E+10	1	-1E+10	1	-1E+10	1	-1E+10	1	-1E+10	1
4901784	115	C	08/28/2018	10:47	-132.180	42.988	0	1954.60	0	1.9660	0	34.8140	8	27.836	0	1930.072	0	55.8	4	16.8	4	-1E+10	1	-1E+10	1	-1E+10	1	-1E+10	1	-1E+10	1	-1E+10	1
4901784	115	C	08/28/2018	10:47	-132.180	42.988	0	1959.80	0	1.9620	0	34.8150	8	27.837	0	1935.183	0	56.0	4	16.9	4	-1E+10	1	-1E+10	1	-1E+10	1	-1E+10	1	-1E+10	1	-1E+10	1
4901784	115	C	08/28/2018	10:47	-132.180	42.988	0	1965.00	0	1.9600	0	34.8160	8	27.838	0	1940.294	0	56.3	4	17.0	4	-1E+10	1	-1E+10	1	-1E+10	1	-1E+10	1	-1E+10	1	-1E+10	1
4901784	115	C	08/28/2018	10:47	-132.180	42.988	0	1970.20	0	1.9580	0	34.8160	8	27.838	0	1945.405	0	56.5	4	17.0	4	-1E+10	1	-1E+10	1	-1E+10	1	-1E+10	1	-1E+10	1	-1E+10	1
4901784	115	C	08/28/2018	10:47	-132.180	42.988	0	1975.40	0	1.9550	0	34.8170	8	27.839	0	1950.516	0	56.7	4	17.1	4	-1E+10	1	-1E+10	1	-1E+10	1	-1E+10	1	-1E+10	1	-1E+10	1
4901784	115	C	08/28/2018	10:47	-132.180	42.988	0	1980.60	0	1.9530	0	34.8170	8	27.839	0	1955.627	0	56.9	4	17.2	4	-1E+10	1	-1E+10	1	-1E+10	1	-1E+10	1	-1E+10	1	-1E+10	1
4901784	115	C	08/28/2018	10:47	-132.180	42.988	0	1984.90	0	1.9520	0	34.8170	8	27.840	0	1959.853	0	57.1	4	17.2	4	-1E+10	1	-1E+10	1	-1E+10	1	-1E+10	1	-1E+10	1	-1E+10	1
4901784	115	C	08/28/2018	10:47	-132.180	42.988	0	1989.30	0	1.9480	0	34.8180	8	27.841	0	1964.177	0	57.5	4	17.3	4	-1E+10	1	-1E+10	1	-1E+10	1	-1E+10	1	-1E+10	1	-1E+10	1
4901784	115	C	08/28/2018	10:47	-132.180	42.988	0	1994.70	0	1.9430	0	34.8190	8	27.842	0	1969.484	0	57.6	4	17.4	4	-1E+10	1	-1E+10	1	-1E+10	1	-1E+10	1	-1E+10	1	-1E+10	1
4901784	115	C	08/28/2018	10:47	-132.180	42.988	0	1999.60	0	1.9430	0	34.8190	8	27.842	0	1974.299	0	57.8	4	17.4	4	-1E+10	1	-1E+10	1	-1E+10	1	-1E+10	1	-1E+10	1	-1E+10	1
4901784	115	C	08/28/2018	10:47	-132.180	42.988	0	2004.90	0	1.9420	0	34.8190	8	27.842	0	1979.507	0	58.0	4	17.5	4	-1E+10	1	-1E+10	1	-1E+10	1	-1E+10	1	-1E+10	1	-1E+10	1
4901784	115	C	08/28/2018	10:47	-132.180	42.988	0	2010.20	0	1.9390	0	34.8200	8	27.843	0	1984.716	0	58.3	4	17.6	4	-1E+10	1	-1E+10	1	-1E+10	1	-1E+10	1	-1E+10	1	-1E+10	1
4901784	115	C	08/28/2018	10:47	-132.180	42.988	0	2015.10	0	1.9350	0	34.8210	8	27.844	0	1989.531	0	58.5	4	17.6	4	-1E+10	1	-1E+10	1	-1E+10	1	-1E+10	1	-1E+10	1	-1E+10	1
4901784	115	C	08/28/2018	10:47	-132.180	42.988	0	2020.60	0	1.9340	0	34.8210	8	27.844	0	1994.935	0	58.6	4	17.7	4	-1E+10	1	-1E+10	1	-1E+10	1	-1E+10	1	-1E+10	1	-1E+10	1
4901784	115	C	08/28/2018	10:47	-132.180	42.988	0																										
4901784	116	C	09/07/2018	10:41	-132.364	42.829	0	2.00	0	18.0820	0	33.0340	8	23.748	0	1.984	0	231.3	4	97.7	4	-1E+10	1	-1E+10	1	-1E+10	1	-1E+10	1	-1E+10	1	-1E+10	1
4901784	116	C	09/07/2018	10:41	-132.364	42.829	0	3.30	0	18.0820	0	33.0340	8	23.748	0	3.274	0	231.3	4	97.7	4	-1E+10	1	-1E+10	1	-1E+10	1	-1E+10	1	-1E+10	1	-1E+10	1
4901784	116	C	09/07/2018	10:41	-132.364	42.829	0	4.70	0	18.0830	0	33.0320	8	23.746	0	4.663	0	231.2	4	97.7	4	-1E+10	1	-1E+10	1	-1E+10	1	-1E+10	1	-1E+10	1	-1E+10	1
4901784	116	C	09/07/2018	10:41	-132.364	42.829	0	6.20	0	18.0810	0	33.0310	8	23.746	0	6.151	0	231.1	4	97.6	4	-1E+10	1	-1E+10	1	-1E+10	1	-1E+10	1	-1E+10	1	-1E+10	1
4901784	116	C	09/07/2018	10:41	-132.364	42.829	0	7.70	0	18.0700	0	33.0330	8	23.750	0	7.639	0	231.1	4	97.6	4	-1E+10	1	-1E+10	1	-1E+10	1	-1E+10	1	-1E+10	1	-1E+10	1
4901784	116	C	09/07/2018	10:41	-132.364	42.829	0	9.20	0	18.0160	0	33.0500	8	23.777	0	9.127	0	231.0	4	97.5	4	-1E+10	1	-1E+10	1	-1E+10	1	-1E+10	1	-1E+10	1	-1E+10	1
4901784	116	C	09/07/2018	10:41	-132.364	42.829	0	11.00	0	17.8640	0	33.1130	8	23.862	0	10.913	0	231.4	4	97.4	4	-1E+10	1	-1E+10	1	-1E+10	1	-1E+10	1	-1E+10	1	-1E+10	1
4901784	116	C	09/07/2018	10:41	-132.364	42.829	0	12.70	0	17.8300	0	33.1190	8	23.875	0	12.599	0	231.7	4	97.5	4	-1E+10	1	-1E+10	1	-1E+10	1	-1E+10	1	-1E+10	1	-1E+10	1
4901784	116	C	09/07/2018	10:41	-132.364	42.829	0	14.50	0	17.8060	0	33.1140	8	23.877	0	14.385	0	231.7	4	97.4	4	-1E+10	1	-1E+10	1	-1E+10	1	-1E+10	1	-1E+10	1	-1E+10	1
4901784	116	C	09/07/2018	10:41	-132.364	42.829	0	16.20	0	17.7770	0	33.1150	8	23.885	0	16.071	0	231.5	4	97.3	4	-1E+10	1	-1E+10	1	-1E+10	1	-1E+10	1	-1E+10	1	-1E+10	1
4901784	116	C	09/07/2018	10:41	-132.364	42.829	0	18.10	0	17.7290	0	33.1170	8	23.898	0	17.956	0	231.9	4	97.3	4	-1E+10	1	-1E+10	1	-1E+10	1	-1E+10	1	-1E+10	1	-1E+10	1
4901784	116	C	09/07/2018	10:41	-132.364	42.829	0	19.90	0	17.6850	0	33.0990	8	23.895	0	19.741	0	232.1	4	97.4	4	-1E+10	1	-1E+10	1	-1E+10	1	-1E+10	1	-1E+10	1	-1E+10	1
4901784	116	C	09/07/2018	10:41	-132.364	42.829	0	21.60	0	17.6490	0	33.0970	8	23.902	0	21.428	0	232.2	4	97.4	4	-1E+10	1	-1E+10	1	-1E+10	1	-1E+10	1	-1E+10	1	-1E+10	1
4901784	116	C	09/07/2018	10:41	-132.364	42.829	0	23.90	0	17.5870	0	33.0990	8	23.918	0	23.709	0	232.8	4	97.5	4	-1E+10	1	-1E+10	1	-1E+10	1	-1E+10	1	-1E+10	1	-1E+10	1
4901784	116	C	09/07/2018	10:41	-132.364	42.829	0	25.70	0	17.5530	0	33.0930	8	23.922	0	25.495	0	233.4	4	97.7	4	-1E+10	1	-1E+10	1	-1E+10	1	-1E+10	1	-1E+10	1	-1E+10	1
4901784	116	C	09/07/2018	10:41	-132.364	42.829	0	27.10	0	17.5170	0	33.0890	8	23.928	0	26.884	0	234.0	4	97.8	4	-1E+10	1	-1E+10	1	-1E+10	1	-1E+10	1	-1E+10	1	-1E+10	1
4901784	116	C	09/07/2018	10:41	-132.364	42.829	0	28.60	0	17.4990	0	33.0840	8	23.928	0	28.372	0	234.6	4	98.0	4	-1E+10	1	-1E+10	1	-1E+10	1	-1E+10	1	-1E+10	1	-1E+10	1
4901784	116	C	09/07/2018	10:41	-132.364	42.829	0	29.90	0	17.4410	0	33.0760	8	23.936	0	29.661	0	235.5	4	98.3	4	-1E+10	1	-1E+10	1	-1E+10	1	-1E+10	1	-1E+10	1	-1E+10	1
4901784	116	C	09/07/2018	10:41	-132.364	42.829	0	31.20	0	17.3420	0	33.0660	8	23.952	0	30.951	0	237.2	4	98.8	4	-1E+10	1	-1E+10	1	-1E+10	1	-1E+10	1	-1E+10	1	-1E+10	1
4901784	116	C	09/07/2018	10:41	-132.364	42.829	0	32.90	0	17.2350	0	33.0470	8	23.963	0	32.637	0	239.3	4	99.5	4	-1E+10	1	-1E+10	1	-1E+10	1	-1E+10	1	-1E+10	1	-1E+10	1
4901784	116	C	09/07/2018	10:41	-132.364	42.829	0	34.10	0	17.1840	0	33.0310	8	23.963	0	33.827	0	242.0	4	100.5	4	-1E+10	1	-1E+10	1	-1E+10	1	-1E+10	1	-1E+10	1	-1E+10	1
4901784	116	C	09/07/2018	10:41	-132.364	42.829	0	35.00	0	17.0220	0	33.0020	8	23.978	0	34.720	0	245.6	4	101.7	4	-1E+10	1	-1E+10	1	-1E+10	1	-1E+10	1	-1E+10	1	-1E+10	1
4901784	116	C	09/07/2018	10:41	-132.364	42.829	0	36.10	0	16.5500	0	33.0060	8	24.091	0	35.811	0	250.2	4	102.7	4	-1E+10	1	-1E+10	1	-1E+10	1	-1E+10	1	-1E+10	1	-1E+10	1
4901784	116	C	09/07/2018	10:41	-132.364	42.829	0	37.30	0	15.6640	0	32.9510	8	24.249	0	37.001	0	258.8	4	104.3	4	-1E+10	1	-1E+10	1	-1E+10	1	-1E+10	1	-1E+10	1	-1E+10	1
4901784	116	C	09/07/2018	10:41	-132.364	42.829	0	38.60	0	14.6010	0	32.9290	8	24.463	0	38.291	0	266.8	4	105.3	4	-1E+10	1	-1E+10	1	-1E+10	1	-1E+10	1	-1E+10	1	-1E+10	1
4901784	116	C	09/07/2018	10:41	-132.364	42.829	0	40.00	0	14.2650	0	32.9000	8	24.511	0	39.679	0	271.6	4	106.5	4	-1E+10	1	-1E+10	1	-1E+10	1	-1E+10	1	-1E+10	1	-1E+10	1
4901784	116	C	09/07/2018	10:41	-132.364	42.829	0	41.40	0	13.7170	0	32.9110	8	24.633	0	41.068	0	275.7	4	106.9	4	-1E+10	1	-1E+10	1	-1E+10	1	-1E+10	1	-1E+10	1	-1E+10	1
4901784	116	C	09/07/2018	10:41	-132.364	42.829	0	42.90	0	12.8990	0	32.8980	8	24.786	0	42.556	0	281.6	4	107.4	4	-1E+10	1	-1E+10	1	-1E+10	1	-1E+10	1	-1E+10	1	-1E+10	1
4901784	116	C	09/07/2018	10:41	-132.364	42.829	0	44.50	0	12.3600	0	32.8900	8	24.884	0	44.143	0	287.1	4	108.3	4	-1E+10	1	-1E+10	1	-1E+10	1	-1E+10	1	-1E+10	1	-1E+10	1
4901784	116	C	09/07/2018	10:41	-132.364	42.829	0	46.20	0	11.9930	0	32.8820	8	24.947	0	45.829	0	289.5	4	108.3	4	-1E+10	1	-1E+10	1	-1E+10	1	-1E+10	1	-1E+10	1	-1E+10	1
4901784	116	C	09/07/2018	10:41	-132.364	42.829	0	47.80	0	11.7720	0	32.8850	8	24.991	0	47.416	0	289.3	4	107.7	4	-1E+10	1	-1E+10	1	-1E+10	1	-1E+10	1	-1E+10	1	-1E+10	1
4901784	116	C	09/07/2018	10:41	-132.364	42.829	0	49.50	0	11.3590	0	32.8940	8	25.073	0	49.102	0	290.6	4	107.3	4	-1E+10	1	-1E+10	1	-1E+10	1	-1E+10	1	-1E+10	1	-1E+10	1
4901784	116	C	09/07/2018	10:41	-132.364	42.829	0	51.20	0	11.1920	0	32.8880	8	25.099	0	50.788	0	290.1	4	106.7	4	-1E+10	1	-1E+10	1	-1E+10	1	-1E+10	1	-1E+10	1	-1E+10	1
4901784	116	C	09/07/2018	10:41	-132.364	42.829	0	53.00	0	11.1460	0	32.8840	8	25.104	0	52.574	0	287.9	4	105.8	4	-1E+10	1	-1E+10	1	-1E+10	1	-1E+10	1	-1E+10	1	-1E+10	1
4901784	116	C	09/07/2018	10:41	-132.364	42.829	0	55.00	0	10.9260	0	32.8920	8	25.149	0	54.557	0	285.8	4	104.6	4	-1E+10	1	-1E+10	1	-1E+10	1	-1E+10	1	-1E+10	1	-1E+10	1
4901784	116	C	09/07/2018	10:41	-132.364	42.829	0	56.80	0	10.7540	0	32.9060	8	25.190	0	56.342	0	282.9	4	103.1	4	-1E+10	1	-1E+10	1	-1E+10	1	-1E+10	1	-1E+10	1	-1E+10	1
4901784	116	C	09/07/2018	10:41	-132.364	42.829	0	58.70	0	10.4840	0	32.9050	8	25.236	0	58.227	0	280.7	4	101.8	4	-1E+10	1	-1E+10	1	-1E+10	1	-1E+10	1	-1E+10	1	-1E+10	1
4901784	116	C	09/07/2018	10:41	-132.364	42.829	0	60.60	0	10.3790	0	32.9090	8	25.257	0	60.111	0	279.1	4	100.9	4	-1E+10	1	-1E+10	1	-1E+10	1	-1E+10	1	-1E+10	1	-1E+10	1
4901784	116	C	09/07/2018	10:41	-132.364	42.829	0	62.50	0	10.3750	0	32.9130	8	25.261	0	61.996	0	276.9	4	100.1	4	-1E+10	1	-1E+10	1	-1E+10	1	-1E+10	1	-1E+10	1	-1E+10	1
4901784	116	C	09/07/2018	10:41	-132.364	42.829	0	64.30	0	10.3150	0	32.9190	8	25.276	0	63.781	0	274.6	4	99.2	4	-1E+10	1	-1E+10	1	-1E+10	1	-1E+10	1	-1E+10	1	-1E+10	1
4901784	116	C	09/07/2018	10:41	-132.364	42.829	0	66.30	0	10.2500	0	32.9210	8	25.289	0	65.764	0	272.9	4	98.4	4	-1E+10	1	-1E+10	1	-1E+10	1	-1E+10	1	-1E+10	1	-1E+10	1
4901784	116	C	09/07/2018	10:41	-132.364	42.829	0	68.20	0	10.2030	0	32.9230	8	25.298	0	67.649	0	271.1	4	97.7	4	-1E+10	1	-1E+10	1	-1E+10	1	-1E+10	1	-1E+10	1	-1E+10	1
4901784	116	C	09/07/2018	10:41	-132.364	42.829	0	70.10	0	10.1860	0	32.9230	8	25.301	0	69.533	0	269.3	4	97.0	4	-1E+10	1	-1E+10	1	-1E+10	1	-1E+10	1	-1E+10	1	-1E+10	1
4901784	116	C	09/07/2018	10:41	-132.364	42.829	0	71.90	0	10.1290	0	32.9300	8	25.316	0	71.318	0	267.8	4	96.3	4	-1E+10	1	-1E+10	1	-1E+10	1	-1E+10	1	-1E+10	1	-1E+10	1
4901784	116	C	09/07/2018	10:41	-132.364	42.829	0	73.80	0	10.1200	0	32.9380	8	25.324	0	73.203	0	266.2	4	95.8	4	-1E+10	1	-1E+10	1	-1E+10	1	-1E+10	1	-1E+10	1	-1E+10	1
4901784	116	C	09/07/2018	10:41	-132.364	42.829	0	75.60	0	10.0750	0	32.9360	8	25.330	0	74.988	0	265.3	4	95.3	4	-1E+10	1	-1E+10	1	-1E+10	1	-1E+10	1	-1E+10	1	-1E+10	1
4901784	116	C	09/07/2018	10:41	-132.364	42.829	0	77.40	0	9.9730	0	32.9290	8	25.341	0	76.773	0	264.3	4	94.8	4	-1E+10	1	-1E+10	1	-1E+10	1	-1E+10	1	-1E+10	1	-1E+10	1
4901784	116	C	09/07/2018	10:41	-132.364	42.829	0	79.30	0	9.7850	0	32.9120	8	25.359	0	78.657	0	264.6	4	94.5	4	-1E+10	1	-1E+10	1	-1E+10	1	-1E+10	1	-1E+10	1	-1E+10	1
4901784	116	C	09/07/2018	10:41	-132.364	42.829	0	81.10	0	9.7130	0	32.9080	8	25.368	0	80.442	0	264.4	4	94.3	4	-1E+10	1	-1E+10	1	-1E+10	1	-1E+10	1	-1E+10	1	-1E+10	1
4901784	116	C	09/07/2018	10:41	-132.364	42.829	0	82.80	0	9.7080	0	32.9020	8	25.364	0	82.128	0	263.5	4	93.9	4	-1E+10	1	-1E+10	1	-1E+10	1	-1E+10	1	-1E+10	1	-1E+10	1
4901784	116	C	09/07/2018	10:41	-132.364	42.829	0	84.50	0	9.5570	0	32.8910	8	25.380	0	83.814	0	262.9	4	93.4	4	-1E+10	1	-1E+10	1	-1E+10	1	-1E+10	1	-1E+10	1	-1E+10	1
4901784	116	C	09/07/2018	10:41	-132.364	42.829	0	86.20	0	9.4680	0	32.8880	8	25.392	0	85.500	0	262.0	4	92.9	4	-1E+10	1	-1E+10	1	-1E+10	1	-1E+10	1	-1E+10	1	-1E+10	1
4901784	116	C	09/07/2018	10:41	-132.364	42.829	0	87.90	0	9.4230	0	32.8800	8	25.393	0	87.185	0	261.6	4	92.7	4	-1E+10	1	-1E+10	1	-1E+10	1	-1E+10	1	-1E+10	1	-1E+10	1
4901784	116	C	09/07/2018	10:41	-132.364	42.829	0	89.60	0	9.3750	0	32.8780	8	25.399	0	88.871	0	260.2	4	92.1	4	-1E+10	1	-1E+10	1	-1E+10	1	-1E+10	1	-1E+10	1	-1E+10	1
4901784	116	C	09/07/2018	10:41	-132.364	42.829	0	91.30	0	9.3090	0	32.8810	8	25.412	0	90.557	0	259.2	4	91.6	4	-1E+10	1	-1E+10	1	-1E+10	1	-1E+10	1	-1E+10	1	-1E+10	1
4901784	116	C	09/07/2018	10:41	-132.364	42.829	0	93.00	0	9.3020	0	32.8810	8	25.413	0	92.243	0	258.1	4	91.2	4	-1E+10	1	-1E+10	1	-1E+10	1	-1E+10	1	-1E+10	1	-1E+10	1
4901784	116	C	09/07/2018	10:41	-132.364	42.829	0	94.60	0	9.2940	0	32.8880	8	25.420	0	93.829	0	256.6	4	90.6	4	-1E+10	1	-1E+10	1	-1E+10	1	-1E+10	1	-1E+10	1	-1E+10	1
4901784	116	C	09/07/2018	10:41	-132.364	42.829	0	96.20	0	9.2950	0	32.8880	8	25.420	0	95.416	0	254.9	4	90.0	4	-1E+10	1	-1E+10	1	-1E+10	1	-1E+10	1	-1E+10	1	-1E+10	1
4901784	116	C	09/07/2018	10:41	-132.364	42.829	0	97.80	0	9.3060	0	32.9110	8	25.436	0	97.003	0	252.5	4	89.2	4	-1E+10	1	-1E+10	1	-1E+10	1	-1E+10	1	-1E+10	1	-1E+10	1
4901784	116	C	09/07/2018	10:41	-132.364	42.829	0	99.40	0	9.3280	0	32.9290	8	25.447	0	98.589	0	250.2	4	88.5	4	-1E+10	1	-1E+10	1	-1E+10	1	-1E+10	1	-1E+10	1	-1E+10	1
4901784	116	C	09/07/2018	10:41	-132.364	42.829	0	103.20	0	9.2230	0	33.0060	8	25.524	0	102.357	0	246.2	4	86.9	4	-1E+10	1	-1E+10	1	-1E+10	1	-1E+10	1	-1E+10	1	-1E+10	1
4901784	116	C	09/07/2018	10:41	-132.364	42.829	0	104.90	0	8.9280	0	33.0170	8	25.579	0	104.043	0	246.1	4	86.3	4	-1E+10	1	-1E+10	1	-1E+10	1	-1E+10	1	-1E+10	1	-1E+10	1
4901784	116	C	09/07/2018	10:41	-132.364	42.829	0	106.90	0	8.8290	0	33.0490	8	25.619	0	106.026	0	244.7	4	85.7	4	-1E+10	1	-1E+10	1	-1E+10	1	-1E+10	1	-1E+10	1	-1E+10	1
4901784	116	C	09/07/2018	10:41	-132.364	42.829	0	109.70	0	8.6850	0	33.1070	8	25.687	0	108.802	0	243.2	4	84.9	4	-1E+10	1	-1E+10	1	-1E+10	1	-1E+10	1	-1E+10	1	-1E+10	1
4901784	116	C	09/07/2018	10:41	-132.364	42.829	0	112.70	0	8.5990	0	33.1340	8	25.721	0	111.777	0	241.6	4	84.2	4	-1E+10	1	-1E+10	1	-1E+10	1	-1E+10	1	-1E+10	1	-1E+10	1
4901784	116	C	09/07/2018	10:41	-132.364	42.829	0	114.90	0	8.4380	0	33.1700	8	25.774	0	113.958	0	240.3	4	83.4	4	-1E+10	1	-1E+10	1	-1E+10	1	-1E+10	1	-1E+10	1	-1E+10	1
4901784	116	C	09/07/2018	10:41	-132.364	42.829	0	117.20	0	8.2090	0	33.2490	8	25.870	0	116.239	0	239.5	4	82.8	4	-1E+10	1	-1E+10	1	-1E+10	1	-1E+10	1	-1E+10	1	-1E+10	1
4901784	116	C	09/07/2018	10:41	-132.364	42.829	0	119.60	0	8.1480	0	33.2650	8	25.892	0	118.619	0	238.2	4	82.2	4	-1E+10	1	-1E+10	1	-1E+10	1	-1E+10	1	-1E+10	1	-1E+10	1
4901784	116	C	09/07/2018	10:41	-132.364	42.829	0	122.20	0	8.0230	0	33.3360	8	25.966	0	121.196	0	236.5	4	81.5	4	-1E+10	1	-1E+10	1	-1E+10	1	-1E+10	1	-1E+10	1	-1E+10	1
4901784	116	C	09/07/2018	10:41	-132.364	42.829	0	124.70	0	7.9650	0	33.3820	8	26.010	0	123.675	0	235.1	4	80.9	4	-1E+10	1	-1E+10	1	-1E+10	1	-1E+10	1	-1E+10	1	-1E+10	1
4901784	116	C	09/07/2018	10:41	-132.364	42.829	0	127.10	0	7.9650	0	33.4210	8	26.041	0	126.055	0	232.9	4	80.2	4	-1E+10	1	-1E+10	1	-1E+10	1	-1E+10	1	-1E+10	1	-1E+10	1
4901784	116	C	09/07/2018	10:41	-132.364	42.829	0	129.70	0	7.9760	0	33.4740	8	26.081	0	128.633	0	231.0	4	79.6	4	-1E+10	1	-1E+10	1	-1E+10	1	-1E+10	1	-1E+10	1	-1E+10	1
4901784	116	C	09/07/2018	10:41	-132.364	42.829	0	132.00	0	7.9850	0	33.4980	8	26.099	0	130.913	0	229.3	4	79.0	4	-1E+10	1	-1E+10	1	-1E+10	1	-1E+10	1	-1E+10	1	-1E+10	1
4901784	116	C	09/07/2018	10:41	-132.364	42.829	0	134.50	0	7.9990	0	33.5360	8	26.127	0	133.391	0	226.5	4	78.1	4	-1E+10	1	-1E+10	1	-1E+10	1	-1E+10	1	-1E+10	1	-1E+10	1
4901784	116	C	09/07/2018	10:41	-132.364	42.829	0	137.60	0	8.0440	0	33.6130	8	26.180	0	136.465	0	222.9	4	77.0	4	-1E+10	1	-1E+10	1	-1E+10	1	-1E+10	1	-1E+10	1	-1E+10	1
4901784	116	C	09/07/2018	10:41	-132.364	42.829	0	140.00	0	8.0640	0	33.6380	8	26.197	0	138.844	0	221.1	4	76.4	4	-1E+10	1	-1E+10	1	-1E+10	1	-1E+10	1	-1E+10	1	-1E+10	1
4901784	116	C	09/07/2018	10:41	-132.364	42.829	0	142.30	0	8.0870	0	33.6590	8	26.210	0	141.125	0	219.6	4	75.9	4	-1E+10	1	-1E+10	1	-1E+10	1	-1E+10	1	-1E+10	1	-1E+10	1
4901784	116	C	09/07/2018	10:41	-132.364	42.829	0	144.70	0	8.1080	0	33.6870	8	26.229	0	143.504	0	218.3	4	75.5	4	-1E+10	1	-1E+10	1	-1E+10	1	-1E+10	1	-1E+10	1	-1E+10	1
4901784	116	C	09/07/2018	10:41	-132.364	42.829	0	147.10	0	8.1100	0	33.6930	8	26.234	0	145.883	0	216.9	4	75.1	4	-1E+10	1	-1E+10	1	-1E+10	1	-1E+10	1	-1E+10	1	-1E+10	1
4901784	116	C	09/07/2018	10:41	-132.364	42.829	0	149.60	0	8.1160	0	33.7040	8	26.241	0	148.362	0	215.0	4	74.4	4	-1E+10	1	-1E+10	1	-1E+10	1	-1E+10	1	-1E+10	1	-1E+10	1
4901784	116	C	09/07/2018	10:41	-132.364	42.829	0	152.10	0	8.1320	0	33.7260	8	26.256	0	150.840	0	211.6	4	73.3	4	-1E+10	1	-1E+10	1	-1E+10	1	-1E+10	1	-1E+10	1	-1E+10	1
4901784	116	C	09/07/2018	10:41	-132.364	42.829	0	154.60	0	8.1640	0	33.7690	8	26.285	0	153.318	0	207.2	4	71.8	4	-1E+10	1	-1E+10	1	-1E+10	1	-1E+10	1	-1E+10	1	-1E+10	1
4901784	116	C	09/07/2018	10:41	-132.364	42.829	0	157.10	0	8.2620	0	33.8630	8	26.345	0	155.797	0	203.7	4	70.8	4	-1E+10	1	-1E+10	1	-1E+10	1	-1E+10	1	-1E+10	1	-1E+10	1
4901784	116	C	09/07/2018	10:41	-132.364	42.829	0	159.70	0	8.2920	0	33.9040	8	26.372	0	158.374	0	201.4	4	70.1	4	-1E+10	1	-1E+10	1	-1E+10	1	-1E+10	1	-1E+10	1	-1E+10	1
4901784	116	C	09/07/2018	10:41	-132.364	42.829	0	162.30	0	8.3200	0	33.9330	8	26.391	0	160.951	0	198.4	4	69.1	4	-1E+10	1	-1E+10	1	-1E+10	1	-1E+10	1	-1E+10	1	-1E+10	1
4901784	116	C	09/07/2018	10:41	-132.364	42.829	0	164.90	0	8.3650	0	33.9820	8	26.422	0	163.529	0	194.5	4	67.8	4	-1E+10	1	-1E+10	1	-1E+10	1	-1E+10	1	-1E+10	1	-1E+10	1
4901784	116	C	09/07/2018	10:41	-132.364	42.829	0	167.50	0	8.3970	0	34.0170	8	26.445	0	166.106	0	191.0	4	66.7	4	-1E+10	1	-1E+10	1	-1E+10	1	-1E+10	1	-1E+10	1	-1E+10	1
4901784	116	C	09/07/2018	10:41	-132.364	42.829	0	170.30	0	8.4370	0	34.0770	8	26.486	0	168.882	0	187.7	4	65.6	4	-1E+10	1	-1E+10	1	-1E+10	1	-1E+10	1	-1E+10	1	-1E+10	1
4901784	116	C	09/07/2018	10:41	-132.364	42.829	0	172.10	0	8.4260	0	34.0920	8	26.500	0	170.666	0	186.3	4	65.1	4	-1E+10	1	-1E+10	1	-1E+10	1	-1E+10	1	-1E+10	1	-1E+10	1
4901784	116	C	09/07/2018	10:41	-132.364	42.829	0	174.90	0	8.4430	0	34.1050	8	26.507	0	173.442	0	184.4	4	64.5	4	-1E+10	1	-1E+10	1	-1E+10	1	-1E+10	1	-1E+10	1	-1E+10	1
4901784	116	C	09/07/2018	10:41	-132.364	42.829	0	177.70	0	8.4170	0	34.1140	8	26.518	0	176.217	0	181.8	4	63.5	4	-1E+10	1	-1E+10	1	-1E+10	1	-1E+10	1	-1E+10	1	-1E+10	1
4901784	116	C	09/07/2018	10:41	-132.364	42.829	0	179.60	0	8.4390	0	34.1250	8	26.524	0	178.100	0	180.3	4	63.1	4	-1E+10	1	-1E+10	1	-1E+10	1	-1E+10	1	-1E+10	1	-1E+10	1
4901784	116	C	09/07/2018	10:41	-132.364	42.829	0	182.40	0	8.4260	0	34.1650	8	26.557	0	180.876	0	177.4	4	62.0	4	-1E+10	1	-1E+10	1	-1E+10	1	-1E+10	1	-1E+10	1	-1E+10	1
4901784	116	C	09/07/2018	10:41	-132.364	42.829	0	185.20	0	8.3820	0	34.1850	8	26.579	0	183.651	0	175.9	4	61.5	4	-1E+10	1	-1E+10	1	-1E+10	1	-1E+10	1	-1E+10	1	-1E+10	1
4901784	116	C	09/07/2018	10:41	-132.364	42.829	0	187.10	0	8.3740	0	34.1880	8	26.583	0	185.534	0	174.8	4	61.1	4	-1E+10	1	-1E+10	1	-1E+10	1	-1E+10	1	-1E+10	1	-1E+10	1
4901784	116	C	09/07/2018	10:41	-132.364	42.829	0	190.10	0	8.3370	0	34.2000	8	26.598	0	188.508	0	173.8	4	60.7	4	-1E+10	1	-1E+10	1	-1E+10	1	-1E+10	1	-1E+10	1	-1E+10	1
4901784	116	C	09/07/2018	10:41	-132.364	42.829	0	193.00	0	8.3250	0	34.2050	8	26.604	0	191.382	0	172.9	4	60.3	4	-1E+10	1	-1E+10	1	-1E+10	1	-1E+10	1	-1E+10	1	-1E+10	1
4901784	116	C	09/07/2018	10:41	-132.364	42.829	0	194.90	0	8.3120	0	34.2050	8	26.606	0	193.265	0	172.3	4	60.1	4	-1E+10	1	-1E+10	1	-1E+10	1	-1E+10	1	-1E+10	1	-1E+10	1
4901784	116	C	09/07/2018	10:41	-132.364	42.829	0	197.80	0	8.2850	0	34.2080	8	26.612	0	196.140	0	170.9	4	59.6	4	-1E+10	1	-1E+10	1	-1E+10	1	-1E+10	1	-1E+10	1	-1E+10	1
4901784	116	C	09/07/2018	10:41	-132.364	42.829	0	200.70	0	8.2420	0	34.2180	8	26.627	0	199.014	0	169.7	4	59.1	4	-1E+10	1	-1E+10	1	-1E+10	1	-1E+10	1	-1E+10	1	-1E+10	1
4901784	116	C	09/07/2018	10:41	-132.364	42.829	0	202.70	0	8.2120	0	34.2200	8	26.633	0	200.996	0	168.3	4	58.6	4	-1E+10	1	-1E+10	1	-1E+10	1	-1E+10	1	-1E+10	1	-1E+10	1
4901784	116	C	09/07/2018	10:41	-132.364	42.829	0	204.60	0	8.1460	0	34.2210	8	26.644	0	202.879	0	167.1	4	58.1	4	-1E+10	1	-1E+10	1	-1E+10	1	-1E+10	1	-1E+10	1	-1E+10	1
4901784	116	C	09/07/2018	10:41	-132.364	42.829	0	207.50	0	8.0720	0	34.2220	8	26.655	0	205.753	0	165.5	4	57.4	4	-1E+10	1	-1E+10	1	-1E+10	1	-1E+10	1	-1E+10	1	-1E+10	1
4901784	116	C	09/07/2018	10:41	-132.364	42.829	0	210.40	0	8.0040	0	34.2220	8	26.666	0	208.628	0	164.3	4	56.9	4	-1E+10	1	-1E+10	1	-1E+10	1	-1E+10	1	-1E+10	1	-1E+10	1
4901784	116	C	09/07/2018	10:41	-132.364	42.829	0	212.30	0	7.9900	0	34.2210	8	26.667	0	210.511	0	163.6	4	56.7	4	-1E+10	1	-1E+10	1	-1E+10	1	-1E+10	1	-1E+10	1	-1E+10	1
4901784	116	C	09/07/2018	10:41	-132.364	42.829	0	215.10	0	7.9820	0	34.2190	8	26.667	0	213.286	0	162.4	4	56.2	4	-1E+10	1	-1E+10	1	-1E+10	1	-1E+10	1	-1E+10	1	-1E+10	1
4901784	116	C	09/07/2018	10:41	-132.364	42.829	0	218.00	0	7.9470	0	34.2180	8	26.671	0	216.160	0	160.6	4	55.6	4	-1E+10	1	-1E+10	1	-1E+10	1	-1E+10	1	-1E+10	1	-1E+10	1
4901784	116	C	09/07/2018	10:41	-132.364	42.829	0	220.00	0	7.8620	0	34.2200	8	26.685	0	218.142	0	159.8	4	55.2	4	-1E+10	1	-1E+10	1	-1E+10	1	-1E+10	1	-1E+10	1	-1E+10	1
4901784	116	C	09/07/2018	10:41	-132.364	42.829	0	221.90	0	7.8450	0	34.2200	8	26.688	0	220.025	0	158.7	4	54.8	4	-1E+10	1	-1E+10	1	-1E+10	1	-1E+10	1	-1E+10	1	-1E+10	1
4901784	116	C	09/07/2018	10:41	-132.364	42.829	0	224.70	0	7.7780	0	34.2190	8	26.697	0	222.799	0	156.7	4	54.0	4	-1E+10	1	-1E+10	1	-1E+10	1	-1E+10	1	-1E+10	1	-1E+10	1
4901784	116	C	09/07/2018	10:41	-132.364	42.829	0	227.70	0	7.7310	0	34.2170	8	26.702	0	225.772	0	155.0	4	53.4	4	-1E+10	1	-1E+10	1	-1E+10	1	-1E+10	1	-1E+10	1	-1E+10	1
4901784	116	C	09/07/2018	10:41	-132.364	42.829	0	229.50	0	7.7070	0	34.2150	8	26.704	0	227.556	0	153.5	4	52.9	4	-1E+10	1	-1E+10	1	-1E+10	1	-1E+10	1	-1E+10	1	-1E+10	1
4901784	116	C	09/07/2018	10:41	-132.364	42.829	0	232.40	0	7.6410	0	34.2130	8	26.712	0	230.430	0	151.2	4	52.0	4	-1E+10	1	-1E+10	1	-1E+10	1	-1E+10	1	-1E+10	1	-1E+10	1
4901784	116	C	09/07/2018	10:41	-132.364	42.829	0	235.20	0	7.5420	0	34.2110	8	26.725	0	233.205	0	149.2	4	51.2	4	-1E+10	1	-1E+10	1	-1E+10	1	-1E+10	1	-1E+10	1	-1E+10	1
4901784	116	C	09/07/2018	10:41	-132.364	42.829	0	237.10	0	7.5020	0	34.2100	8	26.730	0	235.087	0	148.4	4	50.9	4	-1E+10	1	-1E+10	1	-1E+10	1	-1E+10	1	-1E+10	1	-1E+10	1
4901784	116	C	09/07/2018	10:41	-132.364	42.829	0	239.10	0	7.4710	0	34.2100	8	26.734	0	237.069	0	147.5	4	50.5	4	-1E+10	1	-1E+10	1	-1E+10	1	-1E+10	1	-1E+10	1	-1E+10	1
4901784	116	C	09/07/2018	10:41	-132.364	42.829	0	242.20	0	7.4040	0	34.2090	8	26.743	0	240.141	0	146.2	4	50.0	4	-1E+10	1	-1E+10	1	-1E+10	1	-1E+10	1	-1E+10	1	-1E+10	1
4901784	116	C	09/07/2018	10:41	-132.364	42.829	0	245.20	0	7.3500	0	34.2050	8	26.747	0	243.114	0	144.8	4	49.5	4	-1E+10	1	-1E+10	1	-1E+10	1	-1E+10	1	-1E+10	1	-1E+10	1
4901784	116	C	09/07/2018	10:41	-132.364	42.829	0	247.70	0	7.2960	0	34.2070	8	26.756	0	245.591	0	144.1	4	49.2	4	-1E+10	1	-1E+10	1	-1E+10	1	-1E+10	1	-1E+10	1	-1E+10	1
4901784	116	C	09/07/2018	10:41	-132.364	42.829	0	250.20	0	7.2890	0	34.2050	8	26.756	0	248.068	0	143.5	4	48.9	4	-1E+10	1	-1E+10	1	-1E+10	1	-1E+10	1	-1E+10	1	-1E+10	1
4901784	116	C	09/07/2018	10:41	-132.364	42.829	0	252.70	0	7.2540	0	34.2060	8	26.762	0	250.546	0	142.9	4	48.7	4	-1E+10	1	-1E+10	1	-1E+10	1	-1E+10	1	-1E+10	1	-1E+10	1
4901784	116	C	09/07/2018	10:41	-132.364	42.829	0	255.20	0	7.2490	0	34.2050	8	26.762	0	253.023	0	142.3	4	48.5	4	-1E+10	1	-1E+10	1	-1E+10	1	-1E+10	1	-1E+10	1	-1E+10	1
4901784	116	C	09/07/2018	10:41	-132.364	42.829	0	257.70	0	7.2260	0	34.2040	8	26.764	0	255.500	0	141.3	4	48.1	4	-1E+10	1	-1E+10	1	-1E+10	1	-1E+10	1	-1E+10	1	-1E+10	1
4901784	116	C	09/07/2018	10:41	-132.364	42.829	0	260.10	0	7.2190	0	34.2030	8	26.764	0	257.878	0	140.2	4	47.7	4	-1E+10	1	-1E+10	1	-1E+10	1	-1E+10	1	-1E+10	1	-1E+10	1
4901784	116	C	09/07/2018	10:41	-132.364	42.829	0	262.70	0	7.1660	0	34.2030	8	26.772	0	260.454	0	138.6	4	47.1	4	-1E+10	1	-1E+10	1	-1E+10	1	-1E+10	1	-1E+10	1	-1E+10	1
4901784	116	C	09/07/2018	10:41	-132.364	42.829	0	265.20	0	7.1170	0	34.2010	8	26.777	0	262.931	0	137.8	4	46.8	4	-1E+10	1	-1E+10	1	-1E+10	1	-1E+10	1	-1E+10	1	-1E+10	1
4901784	116	C	09/07/2018	10:41	-132.364	42.829	0	267.80	0	7.0870	0	34.2010	8	26.781	0	265.507	0	136.7	4	46.4	4	-1E+10	1	-1E+10	1	-1E+10	1	-1E+10	1	-1E+10	1	-1E+10	1
4901784	116	C	09/07/2018	10:41	-132.364	42.829	0	270.30	0	7.0580	0	34.1990	8	26.783	0	267.984	0	135.3	4	45.9	4	-1E+10	1	-1E+10	1	-1E+10	1	-1E+10	1	-1E+10	1	-1E+10	1
4901784	116	C	09/07/2018	10:41	-132.364	42.829	0	272.90	0	7.0400	0	34.1980	8	26.785	0	270.560	0	133.7	4	45.4	4	-1E+10	1	-1E+10	1	-1E+10	1	-1E+10	1	-1E+10	1	-1E+10	1
4901784	116	C	09/07/2018	10:41	-132.364	42.829	0	275.30	0	7.0020	0	34.1960	8	26.789	0	272.938	0	131.9	4	44.7	4	-1E+10	1	-1E+10	1	-1E+10	1	-1E+10	1	-1E+10	1	-1E+10	1
4901784	116	C	09/07/2018	10:41	-132.364	42.829	0	277.80	0	6.9290	0	34.1980	8	26.800	0	275.415	0	129.6	4	43.8	4	-1E+10	1	-1E+10	1	-1E+10	1	-1E+10	1	-1E+10	1	-1E+10	1
4901784	116	C	09/07/2018	10:41	-132.364	42.829	0	280.40	0	6.7960	0	34.1940	8	26.815	0	277.991	0	128.1	4	43.2	4	-1E+10	1	-1E+10	1	-1E+10	1	-1E+10	1	-1E+10	1	-1E+10	1
4901784	116	C	09/07/2018	10:41	-132.364	42.829	0	282.10	0	6.7770	0	34.1930	8	26.817	0	279.675	0	127.6	4	43.0	4	-1E+10	1	-1E+10	1	-1E+10	1	-1E+10	1	-1E+10	1	-1E+10	1
4901784	116	C	09/07/2018	10:41	-132.364	42.829	0	284.70	0	6.7370	0	34.1940	8	26.823	0	282.251	0	126.7	4	42.7	4	-1E+10	1	-1E+10	1	-1E+10	1	-1E+10	1	-1E+10	1	-1E+10	1
4901784	116	C	09/07/2018	10:41	-132.364	42.829	0	287.30	0	6.7080	0	34.1920	8	26.826	0	284.827	0	125.9	4	42.4	4	-1E+10	1	-1E+10	1	-1E+10	1	-1E+10	1	-1E+10	1	-1E+10	1
4901784	116	C	09/07/2018	10:41	-132.364	42.829	0	289.80	0	6.6770	0	34.1930	8	26.831	0	287.304	0	125.2	4	42.1	4	-1E+10	1	-1E+10	1	-1E+10	1	-1E+10	1	-1E+10	1	-1E+10	1
4901784	116	C	09/07/2018	10:41	-132.364	42.829	0	292.30	0	6.6580	0	34.1920	8	26.832	0	289.780	0	124.3	4	41.8	4	-1E+10	1	-1E+10	1	-1E+10	1	-1E+10	1	-1E+10	1	-1E+10	1
4901784	116	C	09/07/2018	10:41	-132.364	42.829	0	294.90	0	6.6370	0	34.1920	8	26.835	0	292.356	0	123.5	4	41.5	4	-1E+10	1	-1E+10	1	-1E+10	1	-1E+10	1	-1E+10	1	-1E+10	1
4901784	116	C	09/07/2018	10:41	-132.364	42.829	0	297.30	0	6.6240	0	34.1900	8	26.835	0	294.734	0	122.4	4	41.1	4	-1E+10	1	-1E+10	1	-1E+10	1	-1E+10	1	-1E+10	1	-1E+10	1
4901784	116	C	09/07/2018	10:41	-132.364	42.829	0	299.80	0	6.5810	0	34.1890	8	26.840	0	297.210	0	120.9	4	40.6	4	-1E+10	1	-1E+10	1	-1E+10	1	-1E+10	1	-1E+10	1	-1E+10	1
4901784	116	C	09/07/2018	10:41	-132.364	42.829	0	302.40	0	6.4810	0	34.1900	8	26.854	0	299.786	0	119.5	4	40.0	4	-1E+10	1	-1E+10	1	-1E+10	1	-1E+10	1	-1E+10	1	-1E+10	1
4901784	116	C	09/07/2018	10:41	-132.364	42.829	0	304.90	0	6.4490	0	34.1890	8	26.858	0	302.263	0	118.8	4	39.7	4	-1E+10	1	-1E+10	1	-1E+10	1	-1E+10	1	-1E+10	1	-1E+10	1
4901784	116	C	09/07/2018	10:41	-132.364	42.829	0	307.60	0	6.4260	0	34.1890	8	26.861	0	304.937	0	118.1	4	39.5	4	-1E+10	1	-1E+10	1	-1E+10	1	-1E+10	1	-1E+10	1	-1E+10	1
4901784	116	C	09/07/2018	10:41	-132.364	42.829	0	310.20	0	6.4090	0	34.1890	8	26.863	0	307.513	0	117.5	4	39.3	4	-1E+10	1	-1E+10	1	-1E+10	1	-1E+10	1	-1E+10	1	-1E+10	1
4901784	116	C	09/07/2018	10:41	-132.364	42.829	0	312.80	0	6.3960	0	34.1890	8	26.865	0	310.088	0	117.0	4	39.1	4	-1E+10	1	-1E+10	1	-1E+10	1	-1E+10	1	-1E+10	1	-1E+10	1
4901784	116	C	09/07/2018	10:41	-132.364	42.829	0	314.50	0	6.3890	0	34.1890	8	26.866	0	311.772	0	116.7	4	39.0	4	-1E+10	1	-1E+10	1	-1E+10	1	-1E+10	1	-1E+10	1	-1E+10	1
4901784	116	C	09/07/2018	10:41	-132.364	42.829	0	317.20	0	6.3790	0	34.1880	8	26.866	0	314.447	0	116.2	4	38.8	4	-1E+10	1	-1E+10	1	-1E+10	1	-1E+10	1	-1E+10	1	-1E+10	1
4901784	116	C	09/07/2018	10:41	-132.364	42.829	0	319.90	0	6.3760	0	34.1870	8	26.866	0	317.121	0	115.4	4	38.5	4	-1E+10	1	-1E+10	1	-1E+10	1	-1E+10	1	-1E+10	1	-1E+10	1
4901784	116	C	09/07/2018	10:41	-132.364	42.829	0	322.50	0	6.3430	0	34.1870	8	26.870	0	319.697	0	114.3	4	38.1	4	-1E+10	1	-1E+10	1	-1E+10	1	-1E+10	1	-1E+10	1	-1E+10	1
4901784	116	C	09/07/2018	10:41	-132.364	42.829	0	325.20	0	6.3110	0	34.1860	8	26.874	0	322.371	0	113.0	4	37.7	4	-1E+10	1	-1E+10	1	-1E+10	1	-1E+10	1	-1E+10	1	-1E+10	1
4901784	116	C	09/07/2018	10:41	-132.364	42.829	0	327.80	0	6.2740	0	34.1860	8	26.878	0	324.946	0	111.6	4	37.2	4	-1E+10	1	-1E+10	1	-1E+10	1	-1E+10	1	-1E+10	1	-1E+10	1
4901784	116	C	09/07/2018	10:41	-132.364	42.829	0	330.50	0	6.2350	0	34.1850	8	26.883	0	327.621	0	110.3	4	36.7	4	-1E+10	1	-1E+10	1	-1E+10	1	-1E+10	1	-1E+10	1	-1E+10	1
4901784	116	C	09/07/2018	10:41	-132.364	42.829	0	332.30	0	6.2160	0	34.1840	8	26.884	0	329.404	0	109.4	4	36.4	4	-1E+10	1	-1E+10	1	-1E+10	1	-1E+10	1	-1E+10	1	-1E+10	1
4901784	116	C	09/07/2018	10:41	-132.364	42.829	0	334.90	0	6.1650	0	34.1850	8	26.892	0	331.979	0	108.4	4	36.0	4	-1E+10	1	-1E+10	1	-1E+10	1	-1E+10	1	-1E+10	1	-1E+10	1
4901784	116	C	09/07/2018	10:41	-132.364	42.829	0	337.60	0	6.1180	0	34.1840	8	26.897	0	334.653	0	107.4	4	35.7	4	-1E+10	1	-1E+10	1	-1E+10	1	-1E+10	1	-1E+10	1	-1E+10	1
4901784	116	C	09/07/2018	10:41	-132.364	42.829	0	340.30	0	6.0570	0	34.1860	8	26.906	0	337.327	0	106.9	4	35.4	4	-1E+10	1	-1E+10	1	-1E+10	1	-1E+10	1	-1E+10	1	-1E+10	1
4901784	116	C	09/07/2018	10:41	-132.364	42.829	0	342.90	0	6.0310	0	34.1840	8	26.908	0	339.903	0	106.4	4	35.3	4	-1E+10	1	-1E+10	1	-1E+10	1	-1E+10	1	-1E+10	1	-1E+10	1
4901784	116	C	09/07/2018	10:41	-132.364	42.829	0	344.70	0	6.0210	0	34.1850	8	26.910	0	341.685	0	106.1	4	35.1	4	-1E+10	1	-1E+10	1	-1E+10	1	-1E+10	1	-1E+10	1	-1E+10	1
4901784	116	C	09/07/2018	10:41	-132.364	42.829	0	347.30	0	6.0040	0	34.1840	8	26.911	0	344.261	0	105.4	4	34.9	4	-1E+10	1	-1E+10	1	-1E+10	1	-1E+10	1	-1E+10	1	-1E+10	1
4901784	116	C	09/07/2018	10:41	-132.364	42.829	0	349.90	0	5.9840	0	34.1840	8	26.914	0	346.836	0	104.6	4	34.6	4	-1E+10	1	-1E+10	1	-1E+10	1	-1E+10	1	-1E+10	1	-1E+10	1
4901784	116	C	09/07/2018	10:41	-132.364	42.829	0	352.50	0	5.9570	0	34.1830	8	26.916	0	349.411	0	103.7	4	34.3	4	-1E+10	1	-1E+10	1	-1E+10	1	-1E+10	1	-1E+10	1	-1E+10	1
4901784	116	C	09/07/2018	10:41	-132.364	42.829	0	355.20	0	5.9110	0	34.1830	8	26.922	0	352.085	0	102.8	4	34.0	4	-1E+10	1	-1E+10	1	-1E+10	1	-1E+10	1	-1E+10	1	-1E+10	1
4901784	116	C	09/07/2018	10:41	-132.364	42.829	0	357.00	0	5.8910	0	34.1830	8	26.925	0	353.867	0	102.3	4	33.8	4	-1E+10	1	-1E+10	1	-1E+10	1	-1E+10	1	-1E+10	1	-1E+10	1
4901784	116	C	09/07/2018	10:41	-132.364	42.829	0	359.70	0	5.8560	0	34.1830	8	26.929	0	356.541	0	101.5	4	33.5	4	-1E+10	1	-1E+10	1	-1E+10	1	-1E+10	1	-1E+10	1	-1E+10	1
4901784	116	C	09/07/2018	10:41	-132.364	42.829	0	362.40	0	5.8330	0	34.1820	8	26.931	0	359.215	0	100.8	4	33.3	4	-1E+10	1	-1E+10	1	-1E+10	1	-1E+10	1	-1E+10	1	-1E+10	1
4901784	116	C	09/07/2018	10:41	-132.364	42.829	0	365.10	0	5.7970	0	34.1820	8	26.936	0	361.889	0	100.1	4	33.0	4	-1E+10	1	-1E+10	1	-1E+10	1	-1E+10	1	-1E+10	1	-1E+10	1
4901784	116	C	09/07/2018	10:41	-132.364	42.829	0	367.80	0	5.7670	0	34.1820	8	26.939	0	364.563	0	99.5	4	32.8	4	-1E+10	1	-1E+10	1	-1E+10	1	-1E+10	1	-1E+10	1	-1E+10	1
4901784	116	C	09/07/2018	10:41	-132.364	42.829	0	369.60	0	5.7510	0	34.1810	8	26.941	0	366.346	0	98.9	4	32.6	4	-1E+10	1	-1E+10	1	-1E+10	1	-1E+10	1	-1E+10	1	-1E+10	1
4901784	116	C	09/07/2018	10:41	-132.364	42.829	0	372.30	0	5.7190	0	34.1820	8	26.945	0	369.019	0	98.2	4	32.3	4	-1E+10	1	-1E+10	1	-1E+10	1	-1E+10	1	-1E+10	1	-1E+10	1
4901784	116	C	09/07/2018	10:41	-132.364	42.829	0	375.10	0	5.6890	0	34.1790	8	26.947	0	371.792	0	97.5	4	32.0	4	-1E+10	1	-1E+10	1	-1E+10	1	-1E+10	1	-1E+10	1	-1E+10	1
4901784	116	C	09/07/2018	10:41	-132.364	42.829	0	376.90	0	5.6350	0	34.1840	8	26.957	0	373.575	0	97.0	4	31.8	4	-1E+10	1	-1E+10	1	-1E+10	1	-1E+10	1	-1E+10	1	-1E+10	1
4901784	116	C	09/07/2018	10:41	-132.364	42.829	0	379.70	0	5.6070	0	34.1830	8	26.960	0	376.348	0	96.7	4	31.7	4	-1E+10	1	-1E+10	1	-1E+10	1	-1E+10	1	-1E+10	1	-1E+10	1
4901784	116	C	09/07/2018	10:41	-132.364	42.829	0	382.60	0	5.6010	0	34.1830	8	26.961	0	379.219	0	96.3	4	31.6	4	-1E+10	1	-1E+10	1	-1E+10	1	-1E+10	1	-1E+10	1	-1E+10	1
4901784	116	C	09/07/2018	10:41	-132.364	42.829	0	384.50	0	5.6010	0	34.1820	8	26.960	0	381.101	0	95.8	4	31.4	4	-1E+10	1	-1E+10	1	-1E+10	1	-1E+10	1	-1E+10	1	-1E+10	1
4901784	116	C	09/07/2018	10:41	-132.364	42.829	0	387.20	0	5.5790	0	34.1820	8	26.962	0	383.774	0	95.0	4	31.1	4	-1E+10	1	-1E+10	1	-1E+10	1	-1E+10	1	-1E+10	1	-1E+10	1
4901784	116	C	09/07/2018	10:41	-132.364	42.829	0	390.10	0	5.5590	0	34.1810	8	26.964	0	386.646	0	93.9	4	30.8	4	-1E+10	1	-1E+10	1	-1E+10	1	-1E+10	1	-1E+10	1	-1E+10	1
4901784	116	C	09/07/2018	10:41	-132.364	42.829	0	392.00	0	5.5260	0	34.1820	8	26.969	0	388.527	0	93.3	4	30.6	4	-1E+10	1	-1E+10	1	-1E+10	1	-1E+10	1	-1E+10	1	-1E+10	1
4901784	116	C	09/07/2018	10:41	-132.364	42.829	0	394.80	0	5.5040	0	34.1820	8	26.972	0	391.300	0	92.2	4	30.2	4	-1E+10	1	-1E+10	1	-1E+10	1	-1E+10	1	-1E+10	1	-1E+10	1
4901784	116	C	09/07/2018	10:41	-132.364	42.829	0	397.60	0	5.4700	0	34.1830	8	26.976	0	394.073	0	91.0	4	29.8	4	-1E+10	1	-1E+10	1	-1E+10	1	-1E+10	1	-1E+10	1	-1E+10	1
4901784	116	C	09/07/2018	10:41	-132.364	42.829	0	399.40	0	5.4350	0	34.1840	8	26.981	0	395.855	0	90.2	4	29.5	4	-1E+10	1	-1E+10	1	-1E+10	1	-1E+10	1	-1E+10	1	-1E+10	1
4901784	116	C	09/07/2018	10:41	-132.364	42.829	0	402.20	0	5.4030	0	34.1850	8	26.986	0	398.627	0	89.0	4	29.0	4	-1E+10	1	-1E+10	1	-1E+10	1	-1E+10	1	-1E+10	1	-1E+10	1
4901784	116	C	09/07/2018	10:41	-132.364	42.829	0	405.10	0	5.3450	0	34.1880	8	26.995	0	401.499	0	87.9	4	28.7	4	-1E+10	1	-1E+10	1	-1E+10	1	-1E+10	1	-1E+10	1	-1E+10	1
4901784	116	C	09/07/2018	10:41	-132.364	42.829	0	407.00	0	5.3170	0	34.1890	8	26.999	0	403.380	0	87.5	4	28.5	4	-1E+10	1	-1E+10	1	-1E+10	1	-1E+10	1	-1E+10	1	-1E+10	1
4901784	116	C	09/07/2018	10:41	-132.364	42.829	0	409.80	0	5.2980	0	34.1900	8	27.002	0	406.152	0	87.0	4	28.3	4	-1E+10	1	-1E+10	1	-1E+10	1	-1E+10	1	-1E+10	1	-1E+10	1
4901784	116	C	09/07/2018	10:41	-132.364	42.829	0	412.70	0	5.2810	0	34.1900	8	27.004	0	409.024	0	86.6	4	28.2	4	-1E+10	1	-1E+10	1	-1E+10	1	-1E+10	1	-1E+10	1	-1E+10	1
4901784	116	C	09/07/2018	10:41	-132.364	42.829	0	414.60	0	5.2680	0	34.1900	8	27.006	0	410.905	0	86.3	4	28.1	4	-1E+10	1	-1E+10	1	-1E+10	1	-1E+10	1	-1E+10	1	-1E+10	1
4901784	116	C	09/07/2018	10:41	-132.364	42.829	0	417.50	0	5.2390	0	34.1930	8	27.012	0	413.776	0	85.7	4	27.9	4	-1E+10	1	-1E+10	1	-1E+10	1	-1E+10	1	-1E+10	1	-1E+10	1
4901784	116	C	09/07/2018	10:41	-132.364	42.829	0	420.50	0	5.2160	0	34.1930	8	27.014	0	416.746	0	85.1	4	27.7	4	-1E+10	1	-1E+10	1	-1E+10	1	-1E+10	1	-1E+10	1	-1E+10	1
4901784	116	C	09/07/2018	10:41	-132.364	42.829	0	422.40	0	5.1940	0	34.1950	8	27.019	0	418.627	0	84.7	4	27.5	4	-1E+10	1	-1E+10	1	-1E+10	1	-1E+10	1	-1E+10	1	-1E+10	1
4901784	116	C	09/07/2018	10:41	-132.364	42.829	0	425.30	0	5.1760	0	34.1950	8	27.021	0	421.499	0	84.2	4	27.3	4	-1E+10	1	-1E+10	1	-1E+10	1	-1E+10	1	-1E+10	1	-1E+10	1
4901784	116	C	09/07/2018	10:41	-132.364	42.829	0	428.20	0	5.1520	0	34.1960	8	27.024	0	424.370	0	83.5	4	27.1	4	-1E+10	1	-1E+10	1	-1E+10	1	-1E+10	1	-1E+10	1	-1E+10	1
4901784	116	C	09/07/2018	10:41	-132.364	42.829	0	430.10	0	5.1100	0	34.2000	8	27.032	0	426.251	0	83.2	4	27.0	4	-1E+10	1	-1E+10	1	-1E+10	1	-1E+10	1	-1E+10	1	-1E+10	1
4901784	116	C	09/07/2018	10:41	-132.364	42.829	0	432.00	0	5.0960	0	34.2000	8	27.034	0	428.132	0	83.0	4	26.9	4	-1E+10	1	-1E+10	1	-1E+10	1	-1E+10	1	-1E+10	1	-1E+10	1
4901784	116	C	09/07/2018	10:41	-132.364	42.829	0	434.90	0	5.0840	0	34.2010	8	27.036	0	431.003	0	82.7	4	26.8	4	-1E+10	1	-1E+10	1	-1E+10	1	-1E+10	1	-1E+10	1	-1E+10	1
4901784	116	C	09/07/2018	10:41	-132.364	42.829	0	437.80	0	5.0690	0	34.2020	8	27.039	0	433.874	0	82.4	4	26.7	4	-1E+10	1	-1E+10	1	-1E+10	1	-1E+10	1	-1E+10	1	-1E+10	1
4901784	116	C	09/07/2018	10:41	-132.364	42.829	0	439.70	0	5.0580	0	34.2030	8	27.041	0	435.755	0	82.2	4	26.6	4	-1E+10	1	-1E+10	1	-1E+10	1	-1E+10	1	-1E+10	1	-1E+10	1
4901784	116	C	09/07/2018	10:41	-132.364	42.829	0	442.70	0	5.0530	0	34.2030	8	27.041	0	438.725	0	81.8	4	26.5	4	-1E+10	1	-1E+10	1	-1E+10	1	-1E+10	1	-1E+10	1	-1E+10	1
4901784	116	C	09/07/2018	10:41	-132.364	42.829	0	445.70	0	5.0510	0	34.2030	8	27.042	0	441.695	0	81.4	4	26.3	4	-1E+10	1	-1E+10	1	-1E+10	1	-1E+10	1	-1E+10	1	-1E+10	1
4901784	116	C	09/07/2018	10:41	-132.364	42.829	0	447.60	0	5.0500	0	34.2020	8	27.041	0	443.576	0	80.9	4	26.2	4	-1E+10	1	-1E+10	1	-1E+10	1	-1E+10	1	-1E+10	1	-1E+10	1
4901784	116	C	09/07/2018	10:41	-132.364	42.829	0	449.60	0	5.0420	0	34.2030	8	27.043	0	445.555	0	80.3	4	26.0	4	-1E+10	1	-1E+10	1	-1E+10	1	-1E+10	1	-1E+10	1	-1E+10	1
4901784	116	C	09/07/2018	10:41	-132.364	42.829	0	452.50	0	5.0280	0	34.2040	8	27.045	0	448.426	0	79.4	4	25.7	4	-1E+10	1	-1E+10	1	-1E+10	1	-1E+10	1	-1E+10	1	-1E+10	1
4901784	116	C	09/07/2018	10:41	-132.364	42.829	0	455.30	0	4.9930	0	34.2070	8	27.052	0	451.198	0	78.8	4	25.5	4	-1E+10	1	-1E+10	1	-1E+10	1	-1E+10	1	-1E+10	1	-1E+10	1
4901784	116	C	09/07/2018	10:41	-132.364	42.829	0	457.80	0	4.9780	0	34.2070	8	27.053	0	453.673	0	78.5	4	25.4	4	-1E+10	1	-1E+10	1	-1E+10	1	-1E+10	1	-1E+10	1	-1E+10	1
4901784	116	C	09/07/2018	10:41	-132.364	42.829	0	459.80	0	4.9560	0	34.2090	8	27.057	0	455.652	0	78.0	4	25.2	4	-1E+10	1	-1E+10	1	-1E+10	1	-1E+10	1	-1E+10	1	-1E+10	1
4901784	116	C	09/07/2018	10:41	-132.364	42.829	0	462.10	0	4.9440	0	34.2110	8	27.060	0	457.929	0	77.0	4	24.9	4	-1E+10	1	-1E+10	1	-1E+10	1	-1E+10	1	-1E+10	1	-1E+10	1
4901784	116	C	09/07/2018	10:41	-132.364	42.829	0	465.30	0	4.9230	0	34.2130	8	27.064	0	461.097	0	75.6	4	24.4	4	-1E+10	1	-1E+10	1	-1E+10	1	-1E+10	1	-1E+10	1	-1E+10	1
4901784	116	C	09/07/2018	10:41	-132.364	42.829	0	467.70	0	4.9140	0	34.2130	8	27.065	0	463.472	0	74.5	4	24.0	4	-1E+10	1	-1E+10	1	-1E+10	1	-1E+10	1	-1E+10	1	-1E+10	1
4901784	116	C	09/07/2018	10:41	-132.364	42.829	0	470.20	0	4.8770	0	34.2180	8	27.074	0	465.947	0	73.3	4	23.6	4	-1E+10	1	-1E+10	1	-1E+10	1	-1E+10	1	-1E+10	1	-1E+10	1
4901784	116	C	09/07/2018	10:41	-132.364	42.829	0	472.70	0	4.8430	0	34.2230	8	27.081	0	468.422	0	71.9	4	23.2	4	-1E+10	1	-1E+10	1	-1E+10	1	-1E+10	1	-1E+10	1	-1E+10	1
4901784	116	C	09/07/2018	10:41	-132.364	42.829	0	475.20	0	4.8260	0	34.2250	8	27.085	0	470.896	0	70.7	4	22.8	4	-1E+10	1	-1E+10	1	-1E+10	1	-1E+10	1	-1E+10	1	-1E+10	1
4901784	116	C	09/07/2018	10:41	-132.364	42.829	0	477.60	0	4.8040	0	34.2290	8	27.091	0	473.272	0	69.7	4	22.4	4	-1E+10	1	-1E+10	1	-1E+10	1	-1E+10	1	-1E+10	1	-1E+10	1
4901784	116	C	09/07/2018	10:41	-132.364	42.829	0	480.00	0	4.7930	0	34.2310	8	27.093	0	475.647	0	68.8	4	22.2	4	-1E+10	1	-1E+10	1	-1E+10	1	-1E+10	1	-1E+10	1	-1E+10	1
4901784	116	C	09/07/2018	10:41	-132.364	42.829	0	482.40	0	4.7800	0	34.2330	8	27.096	0	478.023	0	67.9	4	21.8	4	-1E+10	1	-1E+10	1	-1E+10	1	-1E+10	1	-1E+10	1	-1E+10	1
4901784	116	C	09/07/2018	10:41	-132.364	42.829	0	484.80	0	4.7660	0	34.2360	8	27.100	0	480.398	0	66.8	4	21.5	4	-1E+10	1	-1E+10	1	-1E+10	1	-1E+10	1	-1E+10	1	-1E+10	1
4901784	116	C	09/07/2018	10:41	-132.364	42.829	0	487.30	0	4.7530	0	34.2380	8	27.103	0	482.872	0	65.6	4	21.1	4	-1E+10	1	-1E+10	1	-1E+10	1	-1E+10	1	-1E+10	1	-1E+10	1
4901784	116	C	09/07/2018	10:41	-132.364	42.829	0	489.80	0	4.7390	0	34.2410	8	27.107	0	485.347	0	64.3	4	20.7	4	-1E+10	1	-1E+10	1	-1E+10	1	-1E+10	1	-1E+10	1	-1E+10	1
4901784	116	C	09/07/2018	10:41	-132.364	42.829	0	492.30	0	4.7270	0	34.2430	8	27.110	0	487.821	0	63.1	4	20.3	4	-1E+10	1	-1E+10	1	-1E+10	1	-1E+10	1	-1E+10	1	-1E+10	1
4901784	116	C	09/07/2018	10:41	-132.364	42.829	0	494.90	0	4.7170	0	34.2450	8	27.113	0	490.394	0	61.5	4	19.8	4	-1E+10	1	-1E+10	1	-1E+10	1	-1E+10	1	-1E+10	1	-1E+10	1
4901784	116	C	09/07/2018	10:41	-132.364	42.829	0	497.50	0	4.6930	0	34.2510	8	27.120	0	492.968	0	59.9	4	19.2	4	-1E+10	1	-1E+10	1	-1E+10	1	-1E+10	1	-1E+10	1	-1E+10	1
4901784	116	C	09/07/2018	10:41	-132.364	42.829	0	500.00	0	4.6850	0	34.2530	8	27.123	0	495.442	0	58.6	4	18.8	4	-1E+10	1	-1E+10	1	-1E+10	1	-1E+10	1	-1E+10	1	-1E+10	1
4901784	116	C	09/07/2018	10:41	-132.364	42.829	0	504.30	0	4.6610	0	34.2580	8	27.130	0	499.698	0	56.1	4	18.0	4	-1E+10	1	-1E+10	1	-1E+10	1	-1E+10	1	-1E+10	1	-1E+10	1
4901784	116	C	09/07/2018	10:41	-132.364	42.829	0	509.50	0	4.6330	0	34.2660	8	27.139	0	504.844	0	53.3	4	17.1	4	-1E+10	1	-1E+10	1	-1E+10	1	-1E+10	1	-1E+10	1	-1E+10	1
4901784	116	C	09/07/2018	10:41	-132.364	42.829	0	514.70	0	4.6100	0	34.2720	8	27.146	0	509.990	0	50.4	4	16.2	4	-1E+10	1	-1E+10	1	-1E+10	1	-1E+10	1	-1E+10	1	-1E+10	1
4901784	116	C	09/07/2018	10:41	-132.364	42.829	0	520.00	0	4.5800	0	34.2800	8	27.156	0	515.235	0	47.8	4	15.3	4	-1E+10	1	-1E+10	1	-1E+10	1	-1E+10	1	-1E+10	1	-1E+10	1
4901784	116	C	09/07/2018	10:41	-132.364	42.829	0	525.40	0	4.5610	0	34.2860	8	27.163	0	520.579	0	46.0	4	14.7	4	-1E+10	1	-1E+10	1	-1E+10	1	-1E+10	1	-1E+10	1	-1E+10	1
4901784	116	C	09/07/2018	10:41	-132.364	42.829	0	529.90	0	4.5410	0	34.2920	8	27.170	0	525.032	0	44.6	4	14.3	4	-1E+10	1	-1E+10	1	-1E+10	1	-1E+10	1	-1E+10	1	-1E+10	1
4901784	116	C	09/07/2018	10:41	-132.364	42.829	0	534.40	0	4.5300	0	34.2940	8	27.173	0	529.485	0	43.4	4	13.9	4	-1E+10	1	-1E+10	1	-1E+10	1	-1E+10	1	-1E+10	1	-1E+10	1
4901784	116	C	09/07/2018	10:41	-132.364	42.829	0	539.60	0	4.5040	0	34.3010	8	27.181	0	534.630	0	41.8	4	13.4	4	-1E+10	1	-1E+10	1	-1E+10	1	-1E+10	1	-1E+10	1	-1E+10	1
4901784	116	C	09/07/2018	10:41	-132.364	42.829	0	544.90	0	4.4940	0	34.3050	8	27.186	0	539.874	0	40.7	4	13.0	4	-1E+10	1	-1E+10	1	-1E+10	1	-1E+10	1	-1E+10	1	-1E+10	1
4901784	116	C	09/07/2018	10:41	-132.364	42.829	0	550.30	0	4.4820	0	34.3080	8	27.189	0	545.217	0	39.5	4	12.6	4	-1E+10	1	-1E+10	1	-1E+10	1	-1E+10	1	-1E+10	1	-1E+10	1
4901784	116	C	09/07/2018	10:41	-132.364	42.829	0	555.70	0	4.4630	0	34.3120	8	27.195	0	550.560	0	38.1	4	12.2	4	-1E+10	1	-1E+10	1	-1E+10	1	-1E+10	1	-1E+10	1	-1E+10	1
4901784	116	C	09/07/2018	10:41	-132.364	42.829	0	560.20	0	4.4450	0	34.3180	8	27.201	0	555.013	0	36.8	4	11.7	4	-1E+10	1	-1E+10	1	-1E+10	1	-1E+10	1	-1E+10	1	-1E+10	1
4901784	116	C	09/07/2018	10:41	-132.364	42.829	0	564.70	0	4.4300	0	34.3230	8	27.207	0	559.465	0	35.6	4	11.4	4	-1E+10	1	-1E+10	1	-1E+10	1	-1E+10	1	-1E+10	1	-1E+10	1
4901784	116	C	09/07/2018	10:41	-132.364	42.829	0	570.10	0	4.4150	0	34.3300	8	27.214	0	564.808	0	34.4	4	11.0	4	-1E+10	1	-1E+10	1	-1E+10	1	-1E+10	1	-1E+10	1	-1E+10	1
4901784	116	C	09/07/2018	10:41	-132.364	42.829	0	575.40	0	4.3970	0	34.3330	8	27.218	0	570.051	0	33.6	4	10.7	4	-1E+10	1	-1E+10	1	-1E+10	1	-1E+10	1	-1E+10	1	-1E+10	1
4901784	116	C	09/07/2018	10:41	-132.364	42.829	0	579.90	0	4.3860	0	34.3360	8	27.222	0	574.503	0	32.7	4	10.4	4	-1E+10	1	-1E+10	1	-1E+10	1	-1E+10	1	-1E+10	1	-1E+10	1
4901784	116	C	09/07/2018	10:41	-132.364	42.829	0	584.40	0	4.3840	0	34.3390	8	27.225	0	578.955	0	31.3	4	10.0	4	-1E+10	1	-1E+10	1	-1E+10	1	-1E+10	1	-1E+10	1	-1E+10	1
4901784	116	C	09/07/2018	10:41	-132.364	42.829	0	589.90	0	4.3850	0	34.3470	8	27.231	0	584.396	0	28.7	4	9.2	4	-1E+10	1	-1E+10	1	-1E+10	1	-1E+10	1	-1E+10	1	-1E+10	1
4901784	116	C	09/07/2018	10:41	-132.364	42.829	0	594.80	0	4.4290	0	34.3660	8	27.241	0	589.243	0	26.8	4	8.6	4	-1E+10	1	-1E+10	1	-1E+10	1	-1E+10	1	-1E+10	1	-1E+10	1
4901784	116	C	09/07/2018	10:41	-132.364	42.829	0	599.90	0	4.4190	0	34.3690	8	27.245	0	594.289	0	25.8	4	8.2	4	-1E+10	1	-1E+10	1	-1E+10	1	-1E+10	1	-1E+10	1	-1E+10	1
4901784	116	C	09/07/2018	10:41	-132.364	42.829	0	605.40	0	4.4090	0	34.3760	8	27.252	0	599.729	0	24.8	4	7.9	4	-1E+10	1	-1E+10	1	-1E+10	1	-1E+10	1	-1E+10	1	-1E+10	1
4901784	116	C	09/07/2018	10:41	-132.364	42.829	0	610.30	0	4.3940	0	34.3790	8	27.256	0	604.576	0	24.2	4	7.7	4	-1E+10	1	-1E+10	1	-1E+10	1	-1E+10	1	-1E+10	1	-1E+10	1
4901784	116	C	09/07/2018	10:41	-132.364	42.829	0	615.10	0	4.3820	0	34.3820	8	27.259	0	609.324	0	23.7	4	7.6	4	-1E+10	1	-1E+10	1	-1E+10	1	-1E+10	1	-1E+10	1	-1E+10	1
4901784	116	C	09/07/2018	10:41	-132.364	42.829	0	620.10	0	4.3680	0	34.3850	8	27.263	0	614.270	0	23.4	4	7.5	4	-1E+10	1	-1E+10	1	-1E+10	1	-1E+10	1	-1E+10	1	-1E+10	1
4901784	116	C	09/07/2018	10:41	-132.364	42.829	0	625.10	0	4.3360	0	34.3870	8	27.268	0	619.215	0	23.3	4	7.4	4	-1E+10	1	-1E+10	1	-1E+10	1	-1E+10	1	-1E+10	1	-1E+10	1
4901784	116	C	09/07/2018	10:41	-132.364	42.829	0	630.20	0	4.3270	0	34.3900	8	27.272	0	624.260	0	22.7	4	7.2	4	-1E+10	1	-1E+10	1	-1E+10	1	-1E+10	1	-1E+10	1	-1E+10	1
4901784	116	C	09/07/2018	10:41	-132.364	42.829	0	635.20	0	4.3080	0	34.3940	8	27.277	0	629.205	0	22.0	4	7.0	4	-1E+10	1	-1E+10	1	-1E+10	1	-1E+10	1	-1E+10	1	-1E+10	1
4901784	116	C	09/07/2018	10:41	-132.364	42.829	0	640.40	0	4.2970	0	34.3980	8	27.281	0	634.348	0	21.5	4	6.9	4	-1E+10	1	-1E+10	1	-1E+10	1	-1E+10	1	-1E+10	1	-1E+10	1
4901784	116	C	09/07/2018	10:41	-132.364	42.829	0	645.50	0	4.2850	0	34.4020	8	27.286	0	639.392	0	21.1	4	6.7	4	-1E+10	1	-1E+10	1	-1E+10	1	-1E+10	1	-1E+10	1	-1E+10	1
4901784	116	C	09/07/2018	10:41	-132.364	42.829	0	650.70	0	4.2600	0	34.4040	8	27.290	0	644.535	0	21.0	4	6.7	4	-1E+10	1	-1E+10	1	-1E+10	1	-1E+10	1	-1E+10	1	-1E+10	1
4901784	116	C	09/07/2018	10:41	-132.364	42.829	0	655.10	0	4.2350	0	34.4050	8	27.294	0	648.886	0	20.9	4	6.6	4	-1E+10	1	-1E+10	1	-1E+10	1	-1E+10	1	-1E+10	1	-1E+10	1
4901784	116	C	09/07/2018	10:41	-132.364	42.829	0	659.50	0	4.2170	0	34.4070	8	27.297	0	653.238	0	20.7	4	6.6	4	-1E+10	1	-1E+10	1	-1E+10	1	-1E+10	1	-1E+10	1	-1E+10	1
4901784	116	C	09/07/2018	10:41	-132.364	42.829	0	664.80	0	4.2000	0	34.4090	8	27.300	0	658.479	0	20.3	4	6.4	4	-1E+10	1	-1E+10	1	-1E+10	1	-1E+10	1	-1E+10	1	-1E+10	1
4901784	116	C	09/07/2018	10:41	-132.364	42.829	0	670.10	0	4.1860	0	34.4140	8	27.306	0	663.720	0	19.8	4	6.3	4	-1E+10	1	-1E+10	1	-1E+10	1	-1E+10	1	-1E+10	1	-1E+10	1
4901784	116	C	09/07/2018	10:41	-132.364	42.829	0	675.30	0	4.1690	0	34.4170	8	27.310	0	668.862	0	19.3	4	6.1	4	-1E+10	1	-1E+10	1	-1E+10	1	-1E+10	1	-1E+10	1	-1E+10	1
4901784	116	C	09/07/2018	10:41	-132.364	42.829	0	679.90	0	4.1520	0	34.4220	8	27.316	0	673.411	0	18.7	4	5.9	4	-1E+10	1	-1E+10	1	-1E+10	1	-1E+10	1	-1E+10	1	-1E+10	1
4901784	116	C	09/07/2018	10:41	-132.364	42.829	0	684.50	0	4.1370	0	34.4280	8	27.322	0	677.960	0	18.2	4	5.8	4	-1E+10	1	-1E+10	1	-1E+10	1	-1E+10	1	-1E+10	1	-1E+10	1
4901784	116	C	09/07/2018	10:41	-132.364	42.829	0	690.10	0	4.1230	0	34.4340	8	27.329	0	683.497	0	17.8	4	5.6	4	-1E+10	1	-1E+10	1	-1E+10	1	-1E+10	1	-1E+10	1	-1E+10	1
4901784	116	C	09/07/2018	10:41	-132.364	42.829	0	695.60	0	4.1160	0	34.4370	8	27.332	0	688.935	0	17.3	4	5.5	4	-1E+10	1	-1E+10	1	-1E+10	1	-1E+10	1	-1E+10	1	-1E+10	1
4901784	116	C	09/07/2018	10:41	-132.364	42.829	0	700.20	0	4.1010	0	34.4440	8	27.339	0	693.483	0	16.9	4	5.3	4	-1E+10	1	-1E+10	1	-1E+10	1	-1E+10	1	-1E+10	1	-1E+10	1
4901784	116	C	09/07/2018	10:41	-132.364	42.829	0	704.80	0	4.1030	0	34.4460	8	27.340	0	698.032	0	16.5	4	5.2	4	-1E+10	1	-1E+10	1	-1E+10	1	-1E+10	1	-1E+10	1	-1E+10	1
4901784	116	C	09/07/2018	10:41	-132.364	42.829	0	710.30	0	4.0930	0	34.4500	8	27.345	0	703.469	0	16.2	4	5.1	4	-1E+10	1	-1E+10	1	-1E+10	1	-1E+10	1	-1E+10	1	-1E+10	1
4901784	116	C	09/07/2018	10:41	-132.364	42.829	0	715.00	0	4.0830	0	34.4560	8	27.350	0	708.116	0	15.9	4	5.0	4	-1E+10	1	-1E+10	1	-1E+10	1	-1E+10	1	-1E+10	1	-1E+10	1
4901784	116	C	09/07/2018	10:41	-132.364	42.829	0	720.00	0	4.0770	0	34.4580	8	27.353	0	713.060	0	15.7	4	5.0	4	-1E+10	1	-1E+10	1	-1E+10	1	-1E+10	1	-1E+10	1	-1E+10	1
4901784	116	C	09/07/2018	10:41	-132.364	42.829	0	725.10	0	4.0620	0	34.4600	8	27.356	0	718.102	0	15.6	4	4.9	4	-1E+10	1	-1E+10	1	-1E+10	1	-1E+10	1	-1E+10	1	-1E+10	1
4901784	116	C	09/07/2018	10:41	-132.364	42.829	0	729.70	0	4.0470	0	34.4630	8	27.360	0	722.649	0	15.4	4	4.9	4	-1E+10	1	-1E+10	1	-1E+10	1	-1E+10	1	-1E+10	1	-1E+10	1
4901784	116	C	09/07/2018	10:41	-132.364	42.829	0	734.50	0	4.0380	0	34.4650	8	27.362	0	727.395	0	15.1	4	4.8	4	-1E+10	1	-1E+10	1	-1E+10	1	-1E+10	1	-1E+10	1	-1E+10	1
4901784	116	C	09/07/2018	10:41	-132.364	42.829	0	739.30	0	4.0320	0	34.4680	8	27.365	0	732.140	0	14.8	4	4.7	4	-1E+10	1	-1E+10	1	-1E+10	1	-1E+10	1	-1E+10	1	-1E+10	1
4901784	116	C	09/07/2018	10:41	-132.364	42.829	0	744.90	0	4.0120	0	34.4750	8	27.373	0	737.676	0	14.6	4	4.6	4	-1E+10	1	-1E+10	1	-1E+10	1	-1E+10	1	-1E+10	1	-1E+10	1
4901784	116	C	09/07/2018	10:41	-132.364	42.829	0	750.80	0	4.0040	0	34.4750	8	27.374	0	743.508	0	14.4	4	4.6	4	-1E+10	1	-1E+10	1	-1E+10	1	-1E+10	1	-1E+10	1	-1E+10	1
4901784	116	C	09/07/2018	10:41	-132.364	42.829	0	755.70	0	3.9800	0	34.4780	8	27.379	0	748.352	0	14.2	4	4.5	4	-1E+10	1	-1E+10	1	-1E+10	1	-1E+10	1	-1E+10	1	-1E+10	1
4901784	116	C	09/07/2018	10:41	-132.364	42.829	0	760.00	0	3.9680	0	34.4830	8	27.384	0	752.602	0	14.0	4	4.4	4	-1E+10	1	-1E+10	1	-1E+10	1	-1E+10	1	-1E+10	1	-1E+10	1
4901784	116	C	09/07/2018	10:41	-132.364	42.829	0	764.20	0	3.9580	0	34.4850	8	27.387	0	756.753	0	13.8	4	4.4	4	-1E+10	1	-1E+10	1	-1E+10	1	-1E+10	1	-1E+10	1	-1E+10	1
4901784	116	C	09/07/2018	10:41	-132.364	42.829	0	769.30	0	3.9420	0	34.4880	8	27.391	0	761.794	0	13.5	4	4.3	4	-1E+10	1	-1E+10	1	-1E+10	1	-1E+10	1	-1E+10	1	-1E+10	1
4901784	116	C	09/07/2018	10:41	-132.364	42.829	0	774.30	0	3.9110	0	34.4980	8	27.402	0	766.736	0	13.2	4	4.2	4	-1E+10	1	-1E+10	1	-1E+10	1	-1E+10	1	-1E+10	1	-1E+10	1
4901784	116	C	09/07/2018	10:41	-132.364	42.829	0	779.40	0	3.8970	0	34.5010	8	27.406	0	771.777	0	13.0	4	4.1	4	-1E+10	1	-1E+10	1	-1E+10	1	-1E+10	1	-1E+10	1	-1E+10	1
4901784	116	C	09/07/2018	10:41	-132.364	42.829	0	784.50	0	3.8800	0	34.5050	8	27.411	0	776.818	0	12.9	4	4.1	4	-1E+10	1	-1E+10	1	-1E+10	1	-1E+10	1	-1E+10	1	-1E+10	1
4901784	116	C	09/07/2018	10:41	-132.364	42.829	0	789.60	0	3.8660	0	34.5080	8	27.415	0	781.858	0	12.7	4	4.0	4	-1E+10	1	-1E+10	1	-1E+10	1	-1E+10	1	-1E+10	1	-1E+10	1
4901784	116	C	09/07/2018	10:41	-132.364	42.829	0	794.80	0	3.8380	0	34.5140	8	27.422	0	786.998	0	12.6	4	4.0	4	-1E+10	1	-1E+10	1	-1E+10	1	-1E+10	1	-1E+10	1	-1E+10	1
4901784	116	C	09/07/2018	10:41	-132.364	42.829	0	800.00	0	3.8330	0	34.5150	8	27.423	0	792.137	0	12.5	4	3.9	4	-1E+10	1	-1E+10	1	-1E+10	1	-1E+10	1	-1E+10	1	-1E+10	1
4901784	116	C	09/07/2018	10:41	-132.364	42.829	0	805.20	0	3.8280	0	34.5170	8	27.426	0	797.276	0	12.4	4	3.9	4	-1E+10	1	-1E+10	1	-1E+10	1	-1E+10	1	-1E+10	1	-1E+10	1
4901784	116	C	09/07/2018	10:41	-132.364	42.829	0	810.40	0	3.8220	0	34.5190	8	27.428	0	802.415	0	12.3	4	3.9	4	-1E+10	1	-1E+10	1	-1E+10	1	-1E+10	1	-1E+10	1	-1E+10	1
4901784	116	C	09/07/2018	10:41	-132.364	42.829	0	815.70	0	3.8100	0	34.5220	8	27.431	0	807.652	0	12.1	4	3.8	4	-1E+10	1	-1E+10	1	-1E+10	1	-1E+10	1	-1E+10	1	-1E+10	1
4901784	116	C	09/07/2018	10:41	-132.364	42.829	0	820.10	0	3.7990	0	34.5260	8	27.436	0	812.000	0	11.9	4	3.7	4	-1E+10	1	-1E+10	1	-1E+10	1	-1E+10	1	-1E+10	1	-1E+10	1
4901784	116	C	09/07/2018	10:41	-132.364	42.829	0	824.50	0	3.7930	0	34.5310	8	27.440	0	816.348	0	11.7	4	3.7	4	-1E+10	1	-1E+10	1	-1E+10	1	-1E+10	1	-1E+10	1	-1E+10	1
4901784	116	C	09/07/2018	10:41	-132.364	42.829	0	829.80	0	3.7760	0	34.5370	8	27.447	0	821.585	0	11.5	4	3.6	4	-1E+10	1	-1E+10	1	-1E+10	1	-1E+10	1	-1E+10	1	-1E+10	1
4901784	116	C	09/07/2018	10:41	-132.364	42.829	0	835.10	0	3.7720	0	34.5420	8	27.451	0	826.822	0	11.4	4	3.6	4	-1E+10	1	-1E+10	1	-1E+10	1	-1E+10	1	-1E+10	1	-1E+10	1
4901784	116	C	09/07/2018	10:41	-132.364	42.829	0	840.40	0	3.7720	0	34.5470	8	27.455	0	832.059	0	11.2	4	3.5	4	-1E+10	1	-1E+10	1	-1E+10	1	-1E+10	1	-1E+10	1	-1E+10	1
4901784	116	C	09/07/2018	10:41	-132.364	42.829	0	845.70	0	3.7600	0	34.5500	8	27.459	0	837.296	0	11.2	4	3.5	4	-1E+10	1	-1E+10	1	-1E+10	1	-1E+10	1	-1E+10	1	-1E+10	1
4901784	116	C	09/07/2018	10:41	-132.364	42.829	0	850.20	0	3.7540	0	34.5520	8	27.461	0	841.742	0	11.1	4	3.5	4	-1E+10	1	-1E+10	1	-1E+10	1	-1E+10	1	-1E+10	1	-1E+10	1
4901784	116	C	09/07/2018	10:41	-132.364	42.829	0	854.70	0	3.7470	0	34.5530	8	27.463	0	846.188	0	11.0	4	3.5	4	-1E+10	1	-1E+10	1	-1E+10	1	-1E+10	1	-1E+10	1	-1E+10	1
4901784	116	C	09/07/2018	10:41	-132.364	42.829	0	860.20	0	3.7440	0	34.5590	8	27.468	0	851.622	0	10.9	4	3.4	4	-1E+10	1	-1E+10	1	-1E+10	1	-1E+10	1	-1E+10	1	-1E+10	1
4901784	116	C	09/07/2018	10:41	-132.364	42.829	0	865.60	0	3.7390	0	34.5640	8	27.472	0	856.957	0	10.8	4	3.4	4	-1E+10	1	-1E+10	1	-1E+10	1	-1E+10	1	-1E+10	1	-1E+10	1
4901784	116	C	09/07/2018	10:41	-132.364	42.829	0	870.20	0	3.7280	0	34.5640	8	27.474	0	861.502	0	10.8	4	3.4	4	-1E+10	1	-1E+10	1	-1E+10	1	-1E+10	1	-1E+10	1	-1E+10	1
4901784	116	C	09/07/2018	10:41	-132.364	42.829	0	874.70	0	3.7250	0	34.5660	8	27.475	0	865.948	0	10.7	4	3.4	4	-1E+10	1	-1E+10	1	-1E+10	1	-1E+10	1	-1E+10	1	-1E+10	1
4901784	116	C	09/07/2018	10:41	-132.364	42.829	0	880.30	0	3.7210	0	34.5710	8	27.480	0	871.480	0	10.6	4	3.3	4	-1E+10	1	-1E+10	1	-1E+10	1	-1E+10	1	-1E+10	1	-1E+10	1
4901784	116	C	09/07/2018	10:41	-132.364	42.829	0	885.00	0	3.7160	0	34.5760	8	27.484	0	876.123	0	10.5	4	3.3	4	-1E+10	1	-1E+10	1	-1E+10	1	-1E+10	1	-1E+10	1	-1E+10	1
4901784	116	C	09/07/2018	10:41	-132.364	42.829	0	889.70	0	3.7070	0	34.5780	8	27.487	0	880.766	0	10.5	4	3.3	4	-1E+10	1	-1E+10	1	-1E+10	1	-1E+10	1	-1E+10	1	-1E+10	1
4901784	116	C	09/07/2018	10:41	-132.364	42.829	0	895.20	0	3.7100	0	34.5840	8	27.491	0	886.199	0	10.4	4	3.3	4	-1E+10	1	-1E+10	1	-1E+10	1	-1E+10	1	-1E+10	1	-1E+10	1
4901784	116	C	09/07/2018	10:41	-132.364	42.829	0	899.90	0	3.7020	0	34.5890	8	27.496	0	890.842	0	10.4	4	3.3	4	-1E+10	1	-1E+10	1	-1E+10	1	-1E+10	1	-1E+10	1	-1E+10	1
4901784	116	C	09/07/2018	10:41	-132.364	42.829	0	904.60	0	3.6630	0	34.5900	8	27.501	0	895.485	0	10.4	4	3.3	4	-1E+10	1	-1E+10	1	-1E+10	1	-1E+10	1	-1E+10	1	-1E+10	1
4901784	116	C	09/07/2018	10:41	-132.364	42.829	0	910.20	0	3.6520	0	34.5930	8	27.504	0	901.016	0	10.4	4	3.3	4	-1E+10	1	-1E+10	1	-1E+10	1	-1E+10	1	-1E+10	1	-1E+10	1
4901784	116	C	09/07/2018	10:41	-132.364	42.829	0	915.60	0	3.6360	0	34.5950	8	27.508	0	906.350	0	10.4	4	3.3	4	-1E+10	1	-1E+10	1	-1E+10	1	-1E+10	1	-1E+10	1	-1E+10	1
4901784	116	C	09/07/2018	10:41	-132.364	42.829	0	920.50	0	3.6420	0	34.5990	8	27.510	0	911.190	0	10.4	4	3.3	4	-1E+10	1	-1E+10	1	-1E+10	1	-1E+10	1	-1E+10	1	-1E+10	1
4901784	116	C	09/07/2018	10:41	-132.364	42.829	0	925.40	0	3.6240	0	34.6020	8	27.514	0	916.030	0	10.4	4	3.3	4	-1E+10	1	-1E+10	1	-1E+10	1	-1E+10	1	-1E+10	1	-1E+10	1
4901784	116	C	09/07/2018	10:41	-132.364	42.829	0	930.40	0	3.6100	0	34.6050	8	27.518	0	920.968	0	10.4	4	3.3	4	-1E+10	1	-1E+10	1	-1E+10	1	-1E+10	1	-1E+10	1	-1E+10	1
4901784	116	C	09/07/2018	10:41	-132.364	42.829	0	935.50	0	3.5880	0	34.6080	8	27.523	0	926.005	0	10.5	4	3.3	4	-1E+10	1	-1E+10	1	-1E+10	1	-1E+10	1	-1E+10	1	-1E+10	1
4901784	116	C	09/07/2018	10:41	-132.364	42.829	0	940.50	0	3.5640	0	34.6120	8	27.528	0	930.943	0	10.5	4	3.3	4	-1E+10	1	-1E+10	1	-1E+10	1	-1E+10	1	-1E+10	1	-1E+10	1
4901784	116	C	09/07/2018	10:41	-132.364	42.829	0	945.70	0	3.5590	0	34.6150	8	27.531	0	936.079	0	10.6	4	3.3	4	-1E+10	1	-1E+10	1	-1E+10	1	-1E+10	1	-1E+10	1	-1E+10	1
4901784	116	C	09/07/2018	10:41	-132.364	42.829	0	950.70	0	3.5480	0	34.6180	8	27.535	0	941.017	0	10.6	4	3.3	4	-1E+10	1	-1E+10	1	-1E+10	1	-1E+10	1	-1E+10	1	-1E+10	1
4901784	116	C	09/07/2018	10:41	-132.364	42.829	0	955.00	0	3.5430	0	34.6200	8	27.537	0	945.263	0	10.6	4	3.3	4	-1E+10	1	-1E+10	1	-1E+10	1	-1E+10	1	-1E+10	1	-1E+10	1
4901784	116	C	09/07/2018	10:41	-132.364	42.829	0	959.30	0	3.5320	0	34.6220	8	27.540	0	949.509	0	10.6	4	3.3	4	-1E+10	1	-1E+10	1	-1E+10	1	-1E+10	1	-1E+10	1	-1E+10	1
4901784	116	C	09/07/2018	10:41	-132.364	42.829	0	964.50	0	3.5130	0	34.6230	8	27.542	0	954.644	0	10.7	4	3.4	4	-1E+10	1	-1E+10	1	-1E+10	1	-1E+10	1	-1E+10	1	-1E+10	1
4901784	116	C	09/07/2018	10:41	-132.364	42.829	0	969.80	0	3.5040	0	34.6270	8	27.546	0	959.878	0	10.8	4	3.4	4	-1E+10	1	-1E+10	1	-1E+10	1	-1E+10	1	-1E+10	1	-1E+10	1
4901784	116	C	09/07/2018	10:41	-132.364	42.829	0	975.10	0	3.4930	0	34.6290	8	27.549	0	965.112	0	10.8	4	3.4	4	-1E+10	1	-1E+10	1	-1E+10	1	-1E+10	1	-1E+10	1	-1E+10	1
4901784	116	C	09/07/2018	10:41	-132.364	42.829	0	980.40	0	3.4820	0	34.6320	8	27.553	0	970.345	0	10.9	4	3.4	4	-1E+10	1	-1E+10	1	-1E+10	1	-1E+10	1	-1E+10	1	-1E+10	1
4901784	116	C	09/07/2018	10:41	-132.364	42.829	0	984.90	0	3.4780	0	34.6350	8	27.555	0	974.789	0	11.0	4	3.4	4	-1E+10	1	-1E+10	1	-1E+10	1	-1E+10	1	-1E+10	1	-1E+10	1
4901784	116	C	09/07/2018	10:41	-132.364	42.829	0	989.40	0	3.4770	0	34.6360	8	27.556	0	979.232	0	11.1	4	3.5	4	-1E+10	1	-1E+10	1	-1E+10	1	-1E+10	1	-1E+10	1	-1E+10	1
4901784	116	C	09/07/2018	10:41	-132.364	42.829	0	994.80	0	3.4690	0	34.6390	8	27.560	0	984.564	0	11.2	4	3.5	4	-1E+10	1	-1E+10	1	-1E+10	1	-1E+10	1	-1E+10	1	-1E+10	1
4901784	116	C	09/07/2018	10:41	-132.364	42.829	0	1000.20	0	3.4600	0	34.6420	8	27.563	0	989.895	0	11.3	4	3.5	4	-1E+10	1	-1E+10	1	-1E+10	1	-1E+10	1	-1E+10	1	-1E+10	1
4901784	116	C	09/07/2018	10:41	-132.364	42.829	0	1005.70	0	3.4500	0	34.6460	8	27.567	0	995.326	0	11.4	4	3.6	4	-1E+10	1	-1E+10	1	-1E+10	1	-1E+10	1	-1E+10	1	-1E+10	1
4901784	116	C	09/07/2018	10:41	-132.364	42.829	0	1010.30	0	3.4460	0	34.6460	8	27.567	0	999.867	0	11.5	4	3.6	4	-1E+10	1	-1E+10	1	-1E+10	1	-1E+10	1	-1E+10	1	-1E+10	1
4901784	116	C	09/07/2018	10:41	-132.364	42.829	0	1014.90	0	3.4380	0	34.6480	8	27.570	0	1004.409	0	11.5	4	3.6	4	-1E+10	1	-1E+10	1	-1E+10	1	-1E+10	1	-1E+10	1	-1E+10	1
4901784	116	C	09/07/2018	10:41	-132.364	42.829	0	1020.40	0	3.4230	0	34.6510	8	27.574	0	1009.839	0	11.6	4	3.6	4	-1E+10	1	-1E+10	1	-1E+10	1	-1E+10	1	-1E+10	1	-1E+10	1
4901784	116	C	09/07/2018	10:41	-132.364	42.829	0	1025.00	0	3.4080	0	34.6530	8	27.577	0	1014.380	0	11.7	4	3.7	4	-1E+10	1	-1E+10	1	-1E+10	1	-1E+10	1	-1E+10	1	-1E+10	1
4901784	116	C	09/07/2018	10:41	-132.364	42.829	0	1029.60	0	3.3960	0	34.6530	8	27.578	0	1018.921	0	11.8	4	3.7	4	-1E+10	1	-1E+10	1	-1E+10	1	-1E+10	1	-1E+10	1	-1E+10	1
4901784	116	C	09/07/2018	10:41	-132.364	42.829	0	1035.20	0	3.3940	0	34.6550	8	27.580	0	1024.449	0	11.9	4	3.7	4	-1E+10	1	-1E+10	1	-1E+10	1	-1E+10	1	-1E+10	1	-1E+10	1
4901784	116	C	09/07/2018	10:41	-132.364	42.829	0	1039.80	0	3.3840	0	34.6580	8	27.583	0	1028.990	0	11.9	4	3.7	4	-1E+10	1	-1E+10	1	-1E+10	1	-1E+10	1	-1E+10	1	-1E+10	1
4901784	116	C	09/07/2018	10:41	-132.364	42.829	0	1045.20	0	3.3690	0	34.6590	8	27.585	0	1034.321	0	12.0	4	3.7	4	-1E+10	1	-1E+10	1	-1E+10	1	-1E+10	1	-1E+10	1	-1E+10	1
4901784	116	C	09/07/2018	10:41	-132.364	42.829	0	1050.20	0	3.3450	0	34.6610	8	27.589	0	1039.256	0	12.0	4	3.8	4	-1E+10	1	-1E+10	1	-1E+10	1	-1E+10	1	-1E+10	1	-1E+10	1
4901784	116	C	09/07/2018	10:41	-132.364	42.829	0	1055.10	0	3.3290	0	34.6630	8	27.592	0	1044.093	0	12.1	4	3.8	4	-1E+10	1	-1E+10	1	-1E+10	1	-1E+10	1	-1E+10	1	-1E+10	1
4901784	116	C	09/07/2018	10:41	-132.364	42.829	0	1059.90	0	3.3230	0	34.6640	8	27.594	0	1048.831	0	12.2	4	3.8	4	-1E+10	1	-1E+10	1	-1E+10	1	-1E+10	1	-1E+10	1	-1E+10	1
4901784	116	C	09/07/2018	10:41	-132.364	42.829	0	1064.80	0	3.3170	0	34.6650	8	27.595	0	1053.668	0	12.2	4	3.8	4	-1E+10	1	-1E+10	1	-1E+10	1	-1E+10	1	-1E+10	1	-1E+10	1
4901784	116	C	09/07/2018	10:41	-132.364	42.829	0	1069.70	0	3.3160	0	34.6650	8	27.595	0	1058.504	0	12.4	4	3.8	4	-1E+10	1	-1E+10	1	-1E+10	1	-1E+10	1	-1E+10	1	-1E+10	1
4901784	116	C	09/07/2018	10:41	-132.364	42.829	0	1074.60	0	3.3060	0	34.6670	8	27.598	0	1063.340	0	12.5	4	3.9	4	-1E+10	1	-1E+10	1	-1E+10	1	-1E+10	1	-1E+10	1	-1E+10	1
4901784	116	C	09/07/2018	10:41	-132.364	42.829	0	1079.60	0	3.2970	0	34.6700	8	27.601	0	1068.275	0	12.7	4	4.0	4	-1E+10	1	-1E+10	1	-1E+10	1	-1E+10	1	-1E+10	1	-1E+10	1
4901784	116	C	09/07/2018	10:41	-132.364	42.829	0	1084.70	0	3.2930	0	34.6730	8	27.604	0	1073.309	0	12.8	4	4.0	4	-1E+10	1	-1E+10	1	-1E+10	1	-1E+10	1	-1E+10	1	-1E+10	1
4901784	116	C	09/07/2018	10:41	-132.364	42.829	0	1089.60	0	3.2810	0	34.6750	8	27.607	0	1078.145	0	12.9	4	4.0	4	-1E+10	1	-1E+10	1	-1E+10	1	-1E+10	1	-1E+10	1	-1E+10	1
4901784	116	C	09/07/2018	10:41	-132.364	42.829	0	1094.60	0	3.2740	0	34.6740	8	27.607	0	1083.079	0	12.9	4	4.0	4	-1E+10	1	-1E+10	1	-1E+10	1	-1E+10	1	-1E+10	1	-1E+10	1
4901784	116	C	09/07/2018	10:41	-132.364	42.829	0	1100.00	0	3.2670	0	34.6750	8	27.608	0	1088.408	0	13.0	4	4.0	4	-1E+10	1	-1E+10	1	-1E+10	1	-1E+10	1	-1E+10	1	-1E+10	1
4901784	116	C	09/07/2018	10:41	-132.364	42.829	0	1105.60	0	3.2540	0	34.6770	8	27.611	0	1093.935	0	13.1	4	4.1	4	-1E+10	1	-1E+10	1	-1E+10	1	-1E+10	1	-1E+10	1	-1E+10	1
4901784	116	C	09/07/2018	10:41	-132.364	42.829	0	1110.20	0	3.2450	0	34.6780	8	27.613	0	1098.474	0	13.2	4	4.1	4	-1E+10	1	-1E+10	1	-1E+10	1	-1E+10	1	-1E+10	1	-1E+10	1
4901784	116	C	09/07/2018	10:41	-132.364	42.829	0	1114.70	0	3.2380	0	34.6790	8	27.614	0	1102.915	0	13.3	4	4.1	4	-1E+10	1	-1E+10	1	-1E+10	1	-1E+10	1	-1E+10	1	-1E+10	1
4901784	116	C	09/07/2018	10:41	-132.364	42.829	0	1120.30	0	3.2270	0	34.6810	8	27.617	0	1108.441	0	13.4	4	4.2	4	-1E+10	1	-1E+10	1	-1E+10	1	-1E+10	1	-1E+10	1	-1E+10	1
4901784	116	C	09/07/2018	10:41	-132.364	42.829	0	1124.90	0	3.2150	0	34.6820	8	27.619	0	1112.980	0	13.5	4	4.2	4	-1E+10	1	-1E+10	1	-1E+10	1	-1E+10	1	-1E+10	1	-1E+10	1
4901784	116	C	09/07/2018	10:41	-132.364	42.829	0	1129.60	0	3.2070	0	34.6830	8	27.620	0	1117.618	0	13.6	4	4.2	4	-1E+10	1	-1E+10	1	-1E+10	1	-1E+10	1	-1E+10	1	-1E+10	1
4901784	116	C	09/07/2018	10:41	-132.364	42.829	0	1135.40	0	3.1950	0	34.6850	8	27.623	0	1123.341	0	13.8	4	4.3	4	-1E+10	1	-1E+10	1	-1E+10	1	-1E+10	1	-1E+10	1	-1E+10	1
4901784	116	C	09/07/2018	10:41	-132.364	42.829	0	1140.10	0	3.1840	0	34.6870	8	27.626	0	1127.978	0	13.9	4	4.3	4	-1E+10	1	-1E+10	1	-1E+10	1	-1E+10	1	-1E+10	1	-1E+10	1
4901784	116	C	09/07/2018	10:41	-132.364	42.829	0	1144.90	0	3.1700	0	34.6880	8	27.628	0	1132.714	0	14.0	4	4.3	4	-1E+10	1	-1E+10	1	-1E+10	1	-1E+10	1	-1E+10	1	-1E+10	1
4901784	116	C	09/07/2018	10:41	-132.364	42.829	0	1150.60	0	3.1440	0	34.6900	8	27.632	0	1138.338	0	14.2	4	4.4	4	-1E+10	1	-1E+10	1	-1E+10	1	-1E+10	1	-1E+10	1	-1E+10	1
4901784	116	C	09/07/2018	10:41	-132.364	42.829	0	1155.40	0	3.1390	0	34.6920	8	27.634	0	1143.074	0	14.3	4	4.4	4	-1E+10	1	-1E+10	1	-1E+10	1	-1E+10	1	-1E+10	1	-1E+10	1
4901784	116	C	09/07/2018	10:41	-132.364	42.829	0	1160.10	0	3.1330	0	34.6930	8	27.635	0	1147.711	0	14.4	4	4.5	4	-1E+10	1	-1E+10	1	-1E+10	1	-1E+10	1	-1E+10	1	-1E+10	1
4901784	116	C	09/07/2018	10:41	-132.364	42.829	0	1164.80	0	3.1250	0	34.6940	8	27.637	0	1152.348	0	14.4	4	4.5	4	-1E+10	1	-1E+10	1	-1E+10	1	-1E+10	1	-1E+10	1	-1E+10	1
4901784	116	C	09/07/2018	10:41	-132.364	42.829	0	1169.60	0	3.1130	0	34.6940	8	27.638	0	1157.083	0	14.5	4	4.5	4	-1E+10	1	-1E+10	1	-1E+10	1	-1E+10	1	-1E+10	1	-1E+10	1
4901784	116	C	09/07/2018	10:41	-132.364	42.829	0	1175.30	0	3.0930	0	34.6960	8	27.642	0	1162.707	0	14.7	4	4.6	4	-1E+10	1	-1E+10	1	-1E+10	1	-1E+10	1	-1E+10	1	-1E+10	1
4901784	116	C	09/07/2018	10:41	-132.364	42.829	0	1180.20	0	3.0840	0	34.6970	8	27.643	0	1167.540	0	14.8	4	4.6	4	-1E+10	1	-1E+10	1	-1E+10	1	-1E+10	1	-1E+10	1	-1E+10	1
4901784	116	C	09/07/2018	10:41	-132.364	42.829	0	1185.00	0	3.0730	0	34.6990	8	27.646	0	1172.276	0	14.9	4	4.6	4	-1E+10	1	-1E+10	1	-1E+10	1	-1E+10	1	-1E+10	1	-1E+10	1
4901784	116	C	09/07/2018	10:41	-132.364	42.829	0	1189.80	0	3.0620	0	34.6990	8	27.647	0	1177.011	0	15.1	4	4.7	4	-1E+10	1	-1E+10	1	-1E+10	1	-1E+10	1	-1E+10	1	-1E+10	1
4901784	116	C	09/07/2018	10:41	-132.364	42.829	0	1194.60	0	3.0470	0	34.7010	8	27.650	0	1181.745	0	15.2	4	4.7	4	-1E+10	1	-1E+10	1	-1E+10	1	-1E+10	1	-1E+10	1	-1E+10	1
4901784	116	C	09/07/2018	10:41	-132.364	42.829	0	1199.50	0	3.0390	0	34.7020	8	27.651	0	1186.579	0	15.4	4	4.8	4	-1E+10	1	-1E+10	1	-1E+10	1	-1E+10	1	-1E+10	1	-1E+10	1
4901784	116	C	09/07/2018	10:41	-132.364	42.829	0	1204.50	0	3.0360	0	34.7030	8	27.653	0	1191.511	0	15.6	4	4.8	4	-1E+10	1	-1E+10	1	-1E+10	1	-1E+10	1	-1E+10	1	-1E+10	1
4901784	116	C	09/07/2018	10:41	-132.364	42.829	0	1210.40	0	3.0310	0	34.7040	8	27.654	0	1197.331	0	15.7	4	4.9	4	-1E+10	1	-1E+10	1	-1E+10	1	-1E+10	1	-1E+10	1	-1E+10	1
4901784	116	C	09/07/2018	10:41	-132.364	42.829	0	1215.40	0	3.0200	0	34.7070	8	27.657	0	1202.262	0	15.9	4	4.9	4	-1E+10	1	-1E+10	1	-1E+10	1	-1E+10	1	-1E+10	1	-1E+10	1
4901784	116	C	09/07/2018	10:41	-132.364	42.829	0	1220.30	0	3.0080	0	34.7080	8	27.659	0	1207.095	0	16.1	4	5.0	4	-1E+10	1	-1E+10	1	-1E+10	1	-1E+10	1	-1E+10	1	-1E+10	1
4901784	116	C	09/07/2018	10:41	-132.364	42.829	0	1225.30	0	2.9960	0	34.7100	8	27.662	0	1212.027	0	16.3	4	5.0	4	-1E+10	1	-1E+10	1	-1E+10	1	-1E+10	1	-1E+10	1	-1E+10	1
4901784	116	C	09/07/2018	10:41	-132.364	42.829	0	1230.30	0	2.9840	0	34.7110	8	27.664	0	1216.958	0	16.4	4	5.1	4	-1E+10	1	-1E+10	1	-1E+10	1	-1E+10	1	-1E+10	1	-1E+10	1
4901784	116	C	09/07/2018	10:41	-132.364	42.829	0	1235.20	0	2.9670	0	34.7120	8	27.666	0	1221.791	0	16.5	4	5.1	4	-1E+10	1	-1E+10	1	-1E+10	1	-1E+10	1	-1E+10	1	-1E+10	1
4901784	116	C	09/07/2018	10:41	-132.364	42.829	0	1239.70	0	2.9570	0	34.7130	8	27.668	0	1226.229	0	16.7	4	5.1	4	-1E+10	1	-1E+10	1	-1E+10	1	-1E+10	1	-1E+10	1	-1E+10	1
4901784	116	C	09/07/2018	10:41	-132.364	42.829	0	1245.30	0	2.9470	0	34.7140	8	27.670	0	1231.752	0	16.9	4	5.2	4	-1E+10	1	-1E+10	1	-1E+10	1	-1E+10	1	-1E+10	1	-1E+10	1
4901784	116	C	09/07/2018	10:41	-132.364	42.829	0	1249.90	0	2.9380	0	34.7160	8	27.672	0	1236.288	0	17.0	4	5.3	4	-1E+10	1	-1E+10	1	-1E+10	1	-1E+10	1	-1E+10	1	-1E+10	1
4901784	116	C	09/07/2018	10:41	-132.364	42.829	0	1255.10	0	2.9240	0	34.7170	8	27.674	0	1241.416	0	17.2	4	5.3	4	-1E+10	1	-1E+10	1	-1E+10	1	-1E+10	1	-1E+10	1	-1E+10	1
4901784	116	C	09/07/2018	10:41	-132.364	42.829	0	1260.20	0	2.9170	0	34.7180	8	27.676	0	1246.445	0	17.4	4	5.4	4	-1E+10	1	-1E+10	1	-1E+10	1	-1E+10	1	-1E+10	1	-1E+10	1
4901784	116	C	09/07/2018	10:41	-132.364	42.829	0	1265.00	0	2.9030	0	34.7200	8	27.678	0	1251.179	0	17.5	4	5.4	4	-1E+10	1	-1E+10	1	-1E+10	1	-1E+10	1	-1E+10	1	-1E+10	1
4901784	116	C	09/07/2018	10:41	-132.364	42.829	0	1269.80	0	2.8950	0	34.7210	8	27.680	0	1255.912	0	17.7	4	5.4	4	-1E+10	1	-1E+10	1	-1E+10	1	-1E+10	1	-1E+10	1	-1E+10	1
4901784	116	C	09/07/2018	10:41	-132.364	42.829	0	1274.70	0	2.8920	0	34.7210	8	27.680	0	1260.744	0	17.8	4	5.5	4	-1E+10	1	-1E+10	1	-1E+10	1	-1E+10	1	-1E+10	1	-1E+10	1
4901784	116	C	09/07/2018	10:41	-132.364	42.829	0	1279.70	0	2.8770	0	34.7230	8	27.683	0	1265.674	0	17.9	4	5.5	4	-1E+10	1	-1E+10	1	-1E+10	1	-1E+10	1	-1E+10	1	-1E+10	1
4901784	116	C	09/07/2018	10:41	-132.364	42.829	0	1284.70	0	2.8700	0	34.7230	8	27.684	0	1270.604	0	18.2	4	5.6	4	-1E+10	1	-1E+10	1	-1E+10	1	-1E+10	1	-1E+10	1	-1E+10	1
4901784	116	C	09/07/2018	10:41	-132.364	42.829	0	1289.60	0	2.8500	0	34.7260	8	27.688	0	1275.435	0	18.4	4	5.7	4	-1E+10	1	-1E+10	1	-1E+10	1	-1E+10	1	-1E+10	1	-1E+10	1
4901784	116	C	09/07/2018	10:41	-132.364	42.829	0	1294.60	0	2.8450	0	34.7270	8	27.689	0	1280.365	0	18.6	4	5.7	4	-1E+10	1	-1E+10	1	-1E+10	1	-1E+10	1	-1E+10	1	-1E+10	1
4901784	116	C	09/07/2018	10:41	-132.364	42.829	0	1299.60	0	2.8350	0	34.7280	8	27.691	0	1285.295	0	18.8	4	5.8	4	-1E+10	1	-1E+10	1	-1E+10	1	-1E+10	1	-1E+10	1	-1E+10	1
4901784	116	C	09/07/2018	10:41	-132.364	42.829	0	1304.60	0	2.8240	0	34.7290	8	27.693	0	1290.225	0	19.0	4	5.9	4	-1E+10	1	-1E+10	1	-1E+10	1	-1E+10	1	-1E+10	1	-1E+10	1
4901784	116	C	09/07/2018	10:41	-132.364	42.829	0	1309.60	0	2.8140	0	34.7310	8	27.695	0	1295.154	0	19.2	4	5.9	4	-1E+10	1	-1E+10	1	-1E+10	1	-1E+10	1	-1E+10	1	-1E+10	1
4901784	116	C	09/07/2018	10:41	-132.364	42.829	0	1314.70	0	2.8050	0	34.7320	8	27.697	0	1300.182	0	19.3	4	6.0	4	-1E+10	1	-1E+10	1	-1E+10	1	-1E+10	1	-1E+10	1	-1E+10	1
4901784	116	C	09/07/2018	10:41	-132.364	42.829	0	1319.80	0	2.8000	0	34.7320	8	27.698	0	1305.210	0	19.5	4	6.0	4	-1E+10	1	-1E+10	1	-1E+10	1	-1E+10	1	-1E+10	1	-1E+10	1
4901784	116	C	09/07/2018	10:41	-132.364	42.829	0	1325.00	0	2.7920	0	34.7340	8	27.700	0	1310.337	0	19.7	4	6.1	4	-1E+10	1	-1E+10	1	-1E+10	1	-1E+10	1	-1E+10	1	-1E+10	1
4901784	116	C	09/07/2018	10:41	-132.364	42.829	0	1330.10	0	2.7840	0	34.7340	8	27.701	0	1315.364	0	19.9	4	6.1	4	-1E+10	1	-1E+10	1	-1E+10	1	-1E+10	1	-1E+10	1	-1E+10	1
4901784	116	C	09/07/2018	10:41	-132.364	42.829	0	1335.40	0	2.7760	0	34.7360	8	27.703	0	1320.589	0	20.1	4	6.2	4	-1E+10	1	-1E+10	1	-1E+10	1	-1E+10	1	-1E+10	1	-1E+10	1
4901784	116	C	09/07/2018	10:41	-132.364	42.829	0	1340.60	0	2.7680	0	34.7370	8	27.704	0	1325.715	0	20.3	4	6.2	4	-1E+10	1	-1E+10	1	-1E+10	1	-1E+10	1	-1E+10	1	-1E+10	1
4901784	116	C	09/07/2018	10:41	-132.364	42.829	0	1345.00	0	2.7620	0	34.7380	8	27.706	0	1330.052	0	20.4	4	6.3	4	-1E+10	1	-1E+10	1	-1E+10	1	-1E+10	1	-1E+10	1	-1E+10	1
4901784	116	C	09/07/2018	10:41	-132.364	42.829	0	1349.40	0	2.7570	0	34.7380	8	27.706	0	1334.389	0	20.6	4	6.3	4	-1E+10	1	-1E+10	1	-1E+10	1	-1E+10	1	-1E+10	1	-1E+10	1
4901784	116	C	09/07/2018	10:41	-132.364	42.829	0	1354.80	0	2.7470	0	34.7400	8	27.709	0	1339.712	0	20.9	4	6.4	4	-1E+10	1	-1E+10	1	-1E+10	1	-1E+10	1	-1E+10	1	-1E+10	1
4901784	116	C	09/07/2018	10:41	-132.364	42.829	0	1360.20	0	2.7390	0	34.7400	8	27.710	0	1345.035	0	21.3	4	6.5	4	-1E+10	1	-1E+10	1	-1E+10	1	-1E+10	1	-1E+10	1	-1E+10	1
4901784	116	C	09/07/2018	10:41	-132.364	42.829	0	1365.70	0	2.7210	0	34.7430	8	27.714	0	1350.456	0	21.6	4	6.6	4	-1E+10	1	-1E+10	1	-1E+10	1	-1E+10	1	-1E+10	1	-1E+10	1
4901784	116	C	09/07/2018	10:41	-132.364	42.829	0	1370.20	0	2.7110	0	34.7440	8	27.715	0	1354.891	0	21.9	4	6.7	4	-1E+10	1	-1E+10	1	-1E+10	1	-1E+10	1	-1E+10	1	-1E+10	1
4901784	116	C	09/07/2018	10:41	-132.364	42.829	0	1374.80	0	2.7010	0	34.7460	8	27.718	0	1359.425	0	22.1	4	6.8	4	-1E+10	1	-1E+10	1	-1E+10	1	-1E+10	1	-1E+10	1	-1E+10	1
4901784	116	C	09/07/2018	10:41	-132.364	42.829	0	1380.30	0	2.6920	0	34.7470	8	27.719	0	1364.846	0	22.5	4	6.9	4	-1E+10	1	-1E+10	1	-1E+10	1	-1E+10	1	-1E+10	1	-1E+10	1
4901784	116	C	09/07/2018	10:41	-132.364	42.829	0	1384.90	0	2.6790	0	34.7490	8	27.722	0	1369.379	0	22.8	4	7.0	4	-1E+10	1	-1E+10	1	-1E+10	1	-1E+10	1	-1E+10	1	-1E+10	1
4901784	116	C	09/07/2018	10:41	-132.364	42.829	0	1390.20	0	2.6660	0	34.7500	8	27.724	0	1374.603	0	23.1	4	7.1	4	-1E+10	1	-1E+10	1	-1E+10	1	-1E+10	1	-1E+10	1	-1E+10	1
4901784	116	C	09/07/2018	10:41	-132.364	42.829	0	1395.30	0	2.6570	0	34.7520	8	27.726	0	1379.629	0	23.3	4	7.2	4	-1E+10	1	-1E+10	1	-1E+10	1	-1E+10	1	-1E+10	1	-1E+10	1
4901784	116	C	09/07/2018	10:41	-132.364	42.829	0	1400.10	0	2.6540	0	34.7520	8	27.727	0	1384.359	0	23.5	4	7.2	4	-1E+10	1	-1E+10	1	-1E+10	1	-1E+10	1	-1E+10	1	-1E+10	1
4901784	116	C	09/07/2018	10:41	-132.364	42.829	0	1405.10	0	2.6480	0	34.7530	8	27.728	0	1389.286	0	23.8	4	7.3	4	-1E+10	1	-1E+10	1	-1E+10	1	-1E+10	1	-1E+10	1	-1E+10	1
4901784	116	C	09/07/2018	10:41	-132.364	42.829	0	1410.10	0	2.6380	0	34.7540	8	27.730	0	1394.214	0	24.0	4	7.4	4	-1E+10	1	-1E+10	1	-1E+10	1	-1E+10	1	-1E+10	1	-1E+10	1
4901784	116	C	09/07/2018	10:41	-132.364	42.829	0	1415.20	0	2.6300	0	34.7550	8	27.731	0	1399.239	0	24.2	4	7.4	4	-1E+10	1	-1E+10	1	-1E+10	1	-1E+10	1	-1E+10	1	-1E+10	1
4901784	116	C	09/07/2018	10:41	-132.364	42.829	0	1420.30	0	2.6220	0	34.7560	8	27.733	0	1404.265	0	24.4	4	7.5	4	-1E+10	1	-1E+10	1	-1E+10	1	-1E+10	1	-1E+10	1	-1E+10	1
4901784	116	C	09/07/2018	10:41	-132.364	42.829	0	1425.40	0	2.6170	0	34.7570	8	27.734	0	1409.290	0	24.6	4	7.5	4	-1E+10	1	-1E+10	1	-1E+10	1	-1E+10	1	-1E+10	1	-1E+10	1
4901784	116	C	09/07/2018	10:41	-132.364	42.829	0	1430.60	0	2.6130	0	34.7570	8	27.734	0	1414.414	0	24.8	4	7.6	4	-1E+10	1	-1E+10	1	-1E+10	1	-1E+10	1	-1E+10	1	-1E+10	1
4901784	116	C	09/07/2018	10:41	-132.364	42.829	0	1434.90	0	2.6070	0	34.7580	8	27.736	0	1418.651	0	24.9	4	7.6	4	-1E+10	1	-1E+10	1	-1E+10	1	-1E+10	1	-1E+10	1	-1E+10	1
4901784	116	C	09/07/2018	10:41	-132.364	42.829	0	1439.30	0	2.6010	0	34.7590	8	27.737	0	1422.986	0	25.1	4	7.7	4	-1E+10	1	-1E+10	1	-1E+10	1	-1E+10	1	-1E+10	1	-1E+10	1
4901784	116	C	09/07/2018	10:41	-132.364	42.829	0	1444.40	0	2.5970	0	34.7590	8	27.737	0	1428.011	0	25.3	4	7.8	4	-1E+10	1	-1E+10	1	-1E+10	1	-1E+10	1	-1E+10	1	-1E+10	1
4901784	116	C	09/07/2018	10:41	-132.364	42.829	0	1449.60	0	2.5890	0	34.7600	8	27.739	0	1433.135	0	25.5	4	7.8	4	-1E+10	1	-1E+10	1	-1E+10	1	-1E+10	1	-1E+10	1	-1E+10	1
4901784	116	C	09/07/2018	10:41	-132.364	42.829	0	1454.80	0	2.5840	0	34.7610	8	27.740	0	1438.258	0	25.8	4	7.9	4	-1E+10	1	-1E+10	1	-1E+10	1	-1E+10	1	-1E+10	1	-1E+10	1
4901784	116	C	09/07/2018	10:41	-132.364	42.829	0	1460.10	0	2.5740	0	34.7620	8	27.742	0	1443.479	0	26.0	4	8.0	4	-1E+10	1	-1E+10	1	-1E+10	1	-1E+10	1	-1E+10	1	-1E+10	1
4901784	116	C	09/07/2018	10:41	-132.364	42.829	0	1465.40	0	2.5680	0	34.7630	8	27.743	0	1448.701	0	26.2	4	8.0	4	-1E+10	1	-1E+10	1	-1E+10	1	-1E+10	1	-1E+10	1	-1E+10	1
4901784	116	C	09/07/2018	10:41	-132.364	42.829	0	1470.70	0	2.5620	0	34.7640	8	27.745	0	1453.922	0	26.4	4	8.1	4	-1E+10	1	-1E+10	1	-1E+10	1	-1E+10	1	-1E+10	1	-1E+10	1
4901784	116	C	09/07/2018	10:41	-132.364	42.829	0	1475.10	0	2.5620	0	34.7640	8	27.745	0	1458.257	0	26.6	4	8.1	4	-1E+10	1	-1E+10	1	-1E+10	1	-1E+10	1	-1E+10	1	-1E+10	1
4901784	116	C	09/07/2018	10:41	-132.364	42.829	0	1479.50	0	2.5510	0	34.7650	8	27.746	0	1462.592	0	26.9	4	8.2	4	-1E+10	1	-1E+10	1	-1E+10	1	-1E+10	1	-1E+10	1	-1E+10	1
4901784	116	C	09/07/2018	10:41	-132.364	42.829	0	1484.80	0	2.5460	0	34.7660	8	27.748	0	1467.813	0	27.0	4	8.2	4	-1E+10	1	-1E+10	1	-1E+10	1	-1E+10	1	-1E+10	1	-1E+10	1
4901784	116	C	09/07/2018	10:41	-132.364	42.829	0	1490.00	0	2.5460	0	34.7660	8	27.748	0	1472.935	0	27.0	4	8.3	4	-1E+10	1	-1E+10	1	-1E+10	1	-1E+10	1	-1E+10	1	-1E+10	1
4901784	116	C	09/07/2018	10:41	-132.364	42.829	0	1495.30	0	2.5430	0	34.7660	8	27.748	0	1478.156	0	27.3	4	8.3	4	-1E+10	1	-1E+10	1	-1E+10	1	-1E+10	1	-1E+10	1	-1E+10	1
4901784	116	C	09/07/2018	10:41	-132.364	42.829	0	1500.70	0	2.5370	0	34.7670	8	27.749	0	1483.475	0	27.5	4	8.4	4	-1E+10	1	-1E+10	1	-1E+10	1	-1E+10	1	-1E+10	1	-1E+10	1
4901784	116	C	09/07/2018	10:41	-132.364	42.829	0	1505.20	0	2.5320	0	34.7680	8	27.751	0	1487.907	0	27.8	4	8.5	4	-1E+10	1	-1E+10	1	-1E+10	1	-1E+10	1	-1E+10	1	-1E+10	1
4901784	116	C	09/07/2018	10:41	-132.364	42.829	0	1509.70	0	2.5250	0	34.7690	8	27.752	0	1492.340	0	28.0	4	8.6	4	-1E+10	1	-1E+10	1	-1E+10	1	-1E+10	1	-1E+10	1	-1E+10	1
4901784	116	C	09/07/2018	10:41	-132.364	42.829	0	1515.10	0	2.5200	0	34.7700	8	27.753	0	1497.659	0	28.3	4	8.7	4	-1E+10	1	-1E+10	1	-1E+10	1	-1E+10	1	-1E+10	1	-1E+10	1
4901784	116	C	09/07/2018	10:41	-132.364	42.829	0	1520.50	0	2.5110	0	34.7710	8	27.755	0	1502.977	0	28.6	4	8.8	4	-1E+10	1	-1E+10	1	-1E+10	1	-1E+10	1	-1E+10	1	-1E+10	1
4901784	116	C	09/07/2018	10:41	-132.364	42.829	0	1525.10	0	2.5050	0	34.7720	8	27.756	0	1507.508	0	28.9	4	8.8	4	-1E+10	1	-1E+10	1	-1E+10	1	-1E+10	1	-1E+10	1	-1E+10	1
4901784	116	C	09/07/2018	10:41	-132.364	42.829	0	1529.60	0	2.4980	0	34.7720	8	27.757	0	1511.940	0	29.2	4	8.9	4	-1E+10	1	-1E+10	1	-1E+10	1	-1E+10	1	-1E+10	1	-1E+10	1
4901784	116	C	09/07/2018	10:41	-132.364	42.829	0	1535.00	0	2.4870	0	34.7740	8	27.759	0	1517.258	0	29.6	4	9.1	4	-1E+10	1	-1E+10	1	-1E+10	1	-1E+10	1	-1E+10	1	-1E+10	1
4901784	116	C	09/07/2018	10:41	-132.364	42.829	0	1540.40	0	2.4740	0	34.7750	8	27.761	0	1522.576	0	30.1	4	9.2	4	-1E+10	1	-1E+10	1	-1E+10	1	-1E+10	1	-1E+10	1	-1E+10	1
4901784	116	C	09/07/2018	10:41	-132.364	42.829	0	1545.00	0	2.4670	0	34.7760	8	27.763	0	1527.106	0	30.4	4	9.3	4	-1E+10	1	-1E+10	1	-1E+10	1	-1E+10	1	-1E+10	1	-1E+10	1
4901784	116	C	09/07/2018	10:41	-132.364	42.829	0	1549.60	0	2.4610	0	34.7770	8	27.764	0	1531.637	0	30.7	4	9.4	4	-1E+10	1	-1E+10	1	-1E+10	1	-1E+10	1	-1E+10	1	-1E+10	1
4901784	116	C	09/07/2018	10:41	-132.364	42.829	0	1555.10	0	2.4490	0	34.7780	8	27.766	0	1537.053	0	31.1	4	9.5	4	-1E+10	1	-1E+10	1	-1E+10	1	-1E+10	1	-1E+10	1	-1E+10	1
4901784	116	C	09/07/2018	10:41	-132.364	42.829	0	1560.60	0	2.4370	0	34.7790	8	27.768	0	1542.469	0	31.6	4	9.7	4	-1E+10	1	-1E+10	1	-1E+10	1	-1E+10	1	-1E+10	1	-1E+10	1
4901784	116	C	09/07/2018	10:41	-132.364	42.829	0	1565.10	0	2.4200	0	34.7810	8	27.771	0	1546.900	0	32.0	4	9.8	4	-1E+10	1	-1E+10	1	-1E+10	1	-1E+10	1	-1E+10	1	-1E+10	1
4901784	116	C	09/07/2018	10:41	-132.364	42.829	0	1569.70	0	2.4090	0	34.7820	8	27.772	0	1551.430	0	32.4	4	9.9	4	-1E+10	1	-1E+10	1	-1E+10	1	-1E+10	1	-1E+10	1	-1E+10	1
4901784	116	C	09/07/2018	10:41	-132.364	42.829	0	1575.10	0	2.3960	0	34.7830	8	27.774	0	1556.747	0	32.8	4	10.0	4	-1E+10	1	-1E+10	1	-1E+10	1	-1E+10	1	-1E+10	1	-1E+10	1
4901784	116	C	09/07/2018	10:41	-132.364	42.829	0	1580.50	0	2.3820	0	34.7850	8	27.777	0	1562.064	0	33.2	4	10.1	4	-1E+10	1	-1E+10	1	-1E+10	1	-1E+10	1	-1E+10	1	-1E+10	1
4901784	116	C	09/07/2018	10:41	-132.364	42.829	0	1585.00	0	2.3750	0	34.7860	8	27.779	0	1566.495	0	33.5	4	10.2	4	-1E+10	1	-1E+10	1	-1E+10	1	-1E+10	1	-1E+10	1	-1E+10	1
4901784	116	C	09/07/2018	10:41	-132.364	42.829	0	1589.50	0	2.3660	0	34.7870	8	27.780	0	1570.926	0	33.9	4	10.3	4	-1E+10	1	-1E+10	1	-1E+10	1	-1E+10	1	-1E+10	1	-1E+10	1
4901784	116	C	09/07/2018	10:41	-132.364	42.829	0	1594.90	0	2.3560	0	34.7880	8	27.782	0	1576.243	0	34.2	4	10.4	4	-1E+10	1	-1E+10	1	-1E+10	1	-1E+10	1	-1E+10	1	-1E+10	1
4901784	116	C	09/07/2018	10:41	-132.364	42.829	0	1600.40	0	2.3520	0	34.7890	8	27.783	0	1581.658	0	34.5	4	10.5	4	-1E+10	1	-1E+10	1	-1E+10	1	-1E+10	1	-1E+10	1	-1E+10	1
4901784	116	C	09/07/2018	10:41	-132.364	42.829	0	1605.00	0	2.3480	0	34.7890	8	27.783	0	1586.187	0	34.7	4	10.6	4	-1E+10	1	-1E+10	1	-1E+10	1	-1E+10	1	-1E+10	1	-1E+10	1
4901784	116	C	09/07/2018	10:41	-132.364	42.829	0	1609.50	0	2.3360	0	34.7900	8	27.785	0	1590.617	0	35.0	4	10.7	4	-1E+10	1	-1E+10	1	-1E+10	1	-1E+10	1	-1E+10	1	-1E+10	1
4901784	116	C	09/07/2018	10:41	-132.364	42.829	0	1615.00	0	2.3250	0	34.7910	8	27.787	0	1596.032	0	35.4	4	10.8	4	-1E+10	1	-1E+10	1	-1E+10	1	-1E+10	1	-1E+10	1	-1E+10	1
4901784	116	C	09/07/2018	10:41	-132.364	42.829	0	1620.50	0	2.3150	0	34.7920	8	27.789	0	1601.447	0	35.7	4	10.9	4	-1E+10	1	-1E+10	1	-1E+10	1	-1E+10	1	-1E+10	1	-1E+10	1
4901784	116	C	09/07/2018	10:41	-132.364	42.829	0	1625.10	0	2.3110	0	34.7930	8	27.790	0	1605.975	0	36.0	4	11.0	4	-1E+10	1	-1E+10	1	-1E+10	1	-1E+10	1	-1E+10	1	-1E+10	1
4901784	116	C	09/07/2018	10:41	-132.364	42.829	0	1629.70	0	2.3020	0	34.7940	8	27.791	0	1610.503	0	36.1	4	11.0	4	-1E+10	1	-1E+10	1	-1E+10	1	-1E+10	1	-1E+10	1	-1E+10	1
4901784	116	C	09/07/2018	10:41	-132.364	42.829	0	1635.30	0	2.2930	0	34.7940	8	27.792	0	1616.016	0	36.4	4	11.1	4	-1E+10	1	-1E+10	1	-1E+10	1	-1E+10	1	-1E+10	1	-1E+10	1
4901784	116	C	09/07/2018	10:41	-132.364	42.829	0	1639.90	0	2.2890	0	34.7950	8	27.793	0	1620.544	0	36.6	4	11.1	4	-1E+10	1	-1E+10	1	-1E+10	1	-1E+10	1	-1E+10	1	-1E+10	1
4901784	116	C	09/07/2018	10:41	-132.364	42.829	0	1644.50	0	2.2860	0	34.7950	8	27.793	0	1625.072	0	37.0	4	11.2	4	-1E+10	1	-1E+10	1	-1E+10	1	-1E+10	1	-1E+10	1	-1E+10	1
4901784	116	C	09/07/2018	10:41	-132.364	42.829	0	1650.00	0	2.2760	0	34.7960	8	27.795	0	1630.486	0	37.5	4	11.4	4	-1E+10	1	-1E+10	1	-1E+10	1	-1E+10	1	-1E+10	1	-1E+10	1
4901784	116	C	09/07/2018	10:41	-132.364	42.829	0	1655.60	0	2.2640	0	34.7980	8	27.798	0	1635.998	0	37.9	4	11.5	4	-1E+10	1	-1E+10	1	-1E+10	1	-1E+10	1	-1E+10	1	-1E+10	1
4901784	116	C	09/07/2018	10:41	-132.364	42.829	0	1660.30	0	2.2570	0	34.7990	8	27.799	0	1640.625	0	38.3	4	11.6	4	-1E+10	1	-1E+10	1	-1E+10	1	-1E+10	1	-1E+10	1	-1E+10	1
4901784	116	C	09/07/2018	10:41	-132.364	42.829	0	1664.90	0	2.2460	0	34.8000	8	27.801	0	1645.152	0	38.7	4	11.8	4	-1E+10	1	-1E+10	1	-1E+10	1	-1E+10	1	-1E+10	1	-1E+10	1
4901784	116	C	09/07/2018	10:41	-132.364	42.829	0	1669.80	0	2.2390	0	34.8010	8	27.802	0	1649.975	0	39.1	4	11.9	4	-1E+10	1	-1E+10	1	-1E+10	1	-1E+10	1	-1E+10	1	-1E+10	1
4901784	116	C	09/07/2018	10:41	-132.364	42.829	0	1674.80	0	2.2350	0	34.8020	8	27.803	0	1654.896	0	39.4	4	12.0	4	-1E+10	1	-1E+10	1	-1E+10	1	-1E+10	1	-1E+10	1	-1E+10	1
4901784	116	C	09/07/2018	10:41	-132.364	42.829	0	1679.80	0	2.2270	0	34.8030	8	27.805	0	1659.817	0	39.8	4	12.1	4	-1E+10	1	-1E+10	1	-1E+10	1	-1E+10	1	-1E+10	1	-1E+10	1
4901784	116	C	09/07/2018	10:41	-132.364	42.829	0	1684.80	0	2.2210	0	34.8040	8	27.806	0	1664.738	0	40.3	4	12.2	4	-1E+10	1	-1E+10	1	-1E+10	1	-1E+10	1	-1E+10	1	-1E+10	1
4901784	116	C	09/07/2018	10:41	-132.364	42.829	0	1689.80	0	2.2160	0	34.8050	8	27.807	0	1669.659	0	40.7	4	12.3	4	-1E+10	1	-1E+10	1	-1E+10	1	-1E+10	1	-1E+10	1	-1E+10	1
4901784	116	C	09/07/2018	10:41	-132.364	42.829	0	1694.90	0	2.2130	0	34.8060	8	27.808	0	1674.678	0	40.9	4	12.4	4	-1E+10	1	-1E+10	1	-1E+10	1	-1E+10	1	-1E+10	1	-1E+10	1
4901784	116	C	09/07/2018	10:41	-132.364	42.829	0	1699.90	0	2.2060	0	34.8070	8	27.810	0	1679.598	0	41.4	4	12.6	4	-1E+10	1	-1E+10	1	-1E+10	1	-1E+10	1	-1E+10	1	-1E+10	1
4901784	116	C	09/07/2018	10:41	-132.364	42.829	0	1705.10	0	2.1990	0	34.8080	8	27.811	0	1684.716	0	41.7	4	12.7	4	-1E+10	1	-1E+10	1	-1E+10	1	-1E+10	1	-1E+10	1	-1E+10	1
4901784	116	C	09/07/2018	10:41	-132.364	42.829	0	1710.20	0	2.1940	0	34.8080	8	27.812	0	1689.734	0	42.1	4	12.8	4	-1E+10	1	-1E+10	1	-1E+10	1	-1E+10	1	-1E+10	1	-1E+10	1
4901784	116	C	09/07/2018	10:41	-132.364	42.829	0	1715.30	0	2.1830	0	34.8100	8	27.814	0	1694.753	0	42.4	4	12.9	4	-1E+10	1	-1E+10	1	-1E+10	1	-1E+10	1	-1E+10	1	-1E+10	1
4901784	116	C	09/07/2018	10:41	-132.364	42.829	0	1720.60	0	2.1740	0	34.8100	8	27.815	0	1699.968	0	42.8	4	13.0	4	-1E+10	1	-1E+10	1	-1E+10	1	-1E+10	1	-1E+10	1	-1E+10	1
4901784	116	C	09/07/2018	10:41	-132.364	42.829	0	1725.70	0	2.1690	0	34.8110	8	27.816	0	1704.987	0	43.1	4	13.1	4	-1E+10	1	-1E+10	1	-1E+10	1	-1E+10	1	-1E+10	1	-1E+10	1
4901784	116	C	09/07/2018	10:41	-132.364	42.829	0	1730.00	0	2.1670	0	34.8120	8	27.817	0	1709.218	0	43.3	4	13.1	4	-1E+10	1	-1E+10	1	-1E+10	1	-1E+10	1	-1E+10	1	-1E+10	1
4901784	116	C	09/07/2018	10:41	-132.364	42.829	0	1734.40	0	2.1610	0	34.8120	8	27.818	0	1713.547	0	43.5	4	13.2	4	-1E+10	1	-1E+10	1	-1E+10	1	-1E+10	1	-1E+10	1	-1E+10	1
4901784	116	C	09/07/2018	10:41	-132.364	42.829	0	1739.70	0	2.1570	0	34.8130	8	27.819	0	1718.762	0	43.9	4	13.3	4	-1E+10	1	-1E+10	1	-1E+10	1	-1E+10	1	-1E+10	1	-1E+10	1
4901784	116	C	09/07/2018	10:41	-132.364	42.829	0	1745.00	0	2.1520	0	34.8140	8	27.820	0	1723.977	0	44.3	4	13.4	4	-1E+10	1	-1E+10	1	-1E+10	1	-1E+10	1	-1E+10	1	-1E+10	1
4901784	116	C	09/07/2018	10:41	-132.364	42.829	0	1750.30	0	2.1470	0	34.8150	8	27.821	0	1729.191	0	44.8	4	13.6	4	-1E+10	1	-1E+10	1	-1E+10	1	-1E+10	1	-1E+10	1	-1E+10	1
4901784	116	C	09/07/2018	10:41	-132.364	42.829	0	1755.60	0	2.1450	0	34.8160	8	27.822	0	1734.406	0	45.1	4	13.7	4	-1E+10	1	-1E+10	1	-1E+10	1	-1E+10	1	-1E+10	1	-1E+10	1
4901784	116	C	09/07/2018	10:41	-132.364	42.829	0	1760.10	0	2.1440	0	34.8170	8	27.823	0	1738.833	0	45.3	4	13.7	4	-1E+10	1	-1E+10	1	-1E+10	1	-1E+10	1	-1E+10	1	-1E+10	1
4901784	116	C	09/07/2018	10:41	-132.364	42.829	0	1764.50	0	2.1410	0	34.8170	8	27.823	0	1743.162	0	45.6	4	13.8	4	-1E+10	1	-1E+10	1	-1E+10	1	-1E+10	1	-1E+10	1	-1E+10	1
4901784	116	C	09/07/2018	10:41	-132.364	42.829	0	1769.90	0	2.1370	0	34.8180	8	27.825	0	1748.474	0	45.9	4	13.9	4	-1E+10	1	-1E+10	1	-1E+10	1	-1E+10	1	-1E+10	1	-1E+10	1
4901784	116	C	09/07/2018	10:41	-132.364	42.829	0	1775.40	0	2.1310	0	34.8190	8	27.826	0	1753.885	0	46.3	4	14.0	4	-1E+10	1	-1E+10	1	-1E+10	1	-1E+10	1	-1E+10	1	-1E+10	1
4901784	116	C	09/07/2018	10:41	-132.364	42.829	0	1779.90	0	2.1260	0	34.8200	8	27.827	0	1758.312	0	46.7	4	14.1	4	-1E+10	1	-1E+10	1	-1E+10	1	-1E+10	1	-1E+10	1	-1E+10	1
4901784	116	C	09/07/2018	10:41	-132.364	42.829	0	1784.50	0	2.1200	0	34.8200	8	27.828	0	1762.837	0	47.0	4	14.2	4	-1E+10	1	-1E+10	1	-1E+10	1	-1E+10	1	-1E+10	1	-1E+10	1
4901784	116	C	09/07/2018	10:41	-132.364	42.829	0	1789.90	0	2.1140	0	34.8210	8	27.829	0	1768.149	0	47.4	4	14.4	4	-1E+10	1	-1E+10	1	-1E+10	1	-1E+10	1	-1E+10	1	-1E+10	1
4901784	116	C	09/07/2018	10:41	-132.364	42.829	0	1794.90	0	2.1080	0	34.8220	8	27.830	0	1773.067	0	47.8	4	14.5	4	-1E+10	1	-1E+10	1	-1E+10	1	-1E+10	1	-1E+10	1	-1E+10	1
4901784	116	C	09/07/2018	10:41	-132.364	42.829	0	1800.00	0	2.0990	0	34.8230	8	27.832	0	1778.084	0	48.3	4	14.6	4	-1E+10	1	-1E+10	1	-1E+10	1	-1E+10	1	-1E+10	1	-1E+10	1
4901784	116	C	09/07/2018	10:41	-132.364	42.829	0	1805.60	0	2.0890	0	34.8250	8	27.834	0	1783.592	0	48.8	4	14.8	4	-1E+10	1	-1E+10	1	-1E+10	1	-1E+10	1	-1E+10	1	-1E+10	1
4901784	116	C	09/07/2018	10:41	-132.364	42.829	0	1810.50	0	2.0820	0	34.8250	8	27.835	0	1788.412	0	49.2	4	14.9	4	-1E+10	1	-1E+10	1	-1E+10	1	-1E+10	1	-1E+10	1	-1E+10	1
4901784	116	C	09/07/2018	10:41	-132.364	42.829	0	1815.40	0	2.0760	0	34.8260	8	27.836	0	1793.231	0	49.5	4	15.0	4	-1E+10	1	-1E+10	1	-1E+10	1	-1E+10	1	-1E+10	1	-1E+10	1
4901784	116	C	09/07/2018	10:41	-132.364	42.829	0	1820.30	0	2.0720	0	34.8270	8	27.837	0	1798.051	0	49.9	4	15.1	4	-1E+10	1	-1E+10	1	-1E+10	1	-1E+10	1	-1E+10	1	-1E+10	1
4901784	116	C	09/07/2018	10:41	-132.364	42.829	0	1825.30	0	2.0680	0	34.8280	8	27.838	0	1802.969	0	50.3	4	15.2	4	-1E+10	1	-1E+10	1	-1E+10	1	-1E+10	1	-1E+10	1	-1E+10	1
4901784	116	C	09/07/2018	10:41	-132.364	42.829	0	1830.30	0	2.0590	0	34.8290	8	27.840	0	1807.886	0	50.6	4	15.3	4	-1E+10	1	-1E+10	1	-1E+10	1	-1E+10	1	-1E+10	1	-1E+10	1
4901784	116	C	09/07/2018	10:41	-132.364	42.829	0	1835.20	0	2.0550	0	34.8300	8	27.841	0	1812.705	0	50.9	4	15.4	4	-1E+10	1	-1E+10	1	-1E+10	1	-1E+10	1	-1E+10	1	-1E+10	1
4901784	116	C	09/07/2018	10:41	-132.364	42.829	0	1840.20	0	2.0500	0	34.8310	8	27.842	0	1817.623	0	51.3	4	15.5	4	-1E+10	1	-1E+10	1	-1E+10	1	-1E+10	1	-1E+10	1	-1E+10	1
4901784	116	C	09/07/2018	10:41	-132.364	42.829	0	1845.10	0	2.0470	0	34.8320	8	27.843	0	1822.441	0	51.6	4	15.6	4	-1E+10	1	-1E+10	1	-1E+10	1	-1E+10	1	-1E+10	1	-1E+10	1
4901784	116	C	09/07/2018	10:41	-132.364	42.829	0	1850.10	0	2.0440	0	34.8320	8	27.844	0	1827.359	0	51.9	4	15.7	4	-1E+10	1	-1E+10	1	-1E+10	1	-1E+10	1	-1E+10	1	-1E+10	1
4901784	116	C	09/07/2018	10:41	-132.364	42.829	0	1855.20	0	2.0380	0	34.8330	8	27.845	0	1832.374	0	52.2	4	15.8	4	-1E+10	1	-1E+10	1	-1E+10	1	-1E+10	1	-1E+10	1	-1E+10	1
4901784	116	C	09/07/2018	10:41	-132.364	42.829	0	1860.30	0	2.0350	0	34.8340	8	27.846	0	1837.389	0	52.5	4	15.9	4	-1E+10	1	-1E+10	1	-1E+10	1	-1E+10	1	-1E+10	1	-1E+10	1
4901784	116	C	09/07/2018	10:41	-132.364	42.829	0	1865.40	0	2.0300	0	34.8350	8	27.847	0	1842.404	0	52.7	4	15.9	4	-1E+10	1	-1E+10	1	-1E+10	1	-1E+10	1	-1E+10	1	-1E+10	1
4901784	116	C	09/07/2018	10:41	-132.364	42.829	0	1870.50	0	2.0240	0	34.8360	8	27.848	0	1847.419	0	53.0	4	16.0	4	-1E+10	1	-1E+10	1	-1E+10	1	-1E+10	1	-1E+10	1	-1E+10	1
4901784	116	C	09/07/2018	10:41	-132.364	42.829	0	1875.60	0	2.0230	0	34.8360	8	27.849	0	1852.434	0	53.1	4	16.1	4	-1E+10	1	-1E+10	1	-1E+10	1	-1E+10	1	-1E+10	1	-1E+10	1
4901784	116	C	09/07/2018	10:41	-132.364	42.829	0	1880.00	0	2.0230	0	34.8360	8	27.849	0	1856.761	0	53.4	4	16.1	4	-1E+10	1	-1E+10	1	-1E+10	1	-1E+10	1	-1E+10	1	-1E+10	1
4901784	116	C	09/07/2018	10:41	-132.364	42.829	0	1884.40	0	2.0160	0	34.8370	8	27.850	0	1861.087	0	53.8	4	16.3	4	-1E+10	1	-1E+10	1	-1E+10	1	-1E+10	1	-1E+10	1	-1E+10	1
4901784	116	C	09/07/2018	10:41	-132.364	42.829	0	1889.70	0	2.0100	0	34.8380	8	27.851	0	1866.298	0	54.0	4	16.3	4	-1E+10	1	-1E+10	1	-1E+10	1	-1E+10	1	-1E+10	1	-1E+10	1
4901784	116	C	09/07/2018	10:41	-132.364	42.829	0	1895.00	0	2.0080	0	34.8380	8	27.851	0	1871.509	0	54.3	4	16.4	4	-1E+10	1	-1E+10	1	-1E+10	1	-1E+10	1	-1E+10	1	-1E+10	1
4901784	116	C	09/07/2018	10:41	-132.364	42.829	0	1900.40	0	2.0030	0	34.8390	8	27.853	0	1876.819	0	54.7	4	16.5	4	-1E+10	1	-1E+10	1	-1E+10	1	-1E+10	1	-1E+10	1	-1E+10	1
4901784	116	C	09/07/2018	10:41	-132.364	42.829	0	1904.90	0	1.9990	0	34.8400	8	27.854	0	1881.243	0	55.0	4	16.6	4	-1E+10	1	-1E+10	1	-1E+10	1	-1E+10	1	-1E+10	1	-1E+10	1
4901784	116	C	09/07/2018	10:41	-132.364	42.829	0	1909.30	0	1.9950	0	34.8410	8	27.855	0	1885.569	0	55.2	4	16.7	4	-1E+10	1	-1E+10	1	-1E+10	1	-1E+10	1	-1E+10	1	-1E+10	1
4901784	116	C	09/07/2018	10:41	-132.364	42.829	0	1914.70	0	1.9920	0	34.8410	8	27.855	0	1890.877	0	55.4	4	16.7	4	-1E+10	1	-1E+10	1	-1E+10	1	-1E+10	1	-1E+10	1	-1E+10	1
4901784	116	C	09/07/2018	10:41	-132.364	42.829	0	1920.10	0	1.9890	0	34.8420	8	27.856	0	1896.186	0	55.7	4	16.8	4	-1E+10	1	-1E+10	1	-1E+10	1	-1E+10	1	-1E+10	1	-1E+10	1
4901784	116	C	09/07/2018	10:41	-132.364	42.829	0	1925.40	0	1.9860	0	34.8430	8	27.857	0	1901.397	0	55.9	4	16.9	4	-1E+10	1	-1E+10	1	-1E+10	1	-1E+10	1	-1E+10	1	-1E+10	1
4901784	116	C	09/07/2018	10:41	-132.364	42.829	0	1930.30	0	1.9860	0	34.8420	8	27.857	0	1906.214	0	56.1	4	16.9	4	-1E+10	1	-1E+10	1	-1E+10	1	-1E+10	1	-1E+10	1	-1E+10	1
4901784	116	C	09/07/2018	10:41	-132.364	42.829	0	1935.10	0	1.9830	0	34.8430	8	27.858	0	1910.932	0	56.4	4	17.0	4	-1E+10	1	-1E+10	1	-1E+10	1	-1E+10	1	-1E+10	1	-1E+10	1
4901784	116	C	09/07/2018	10:41	-132.364	42.829	0	1940.10	0	1.9780	0	34.8440	8	27.859	0	1915.847	0	56.7	4	17.1	4	-1E+10	1	-1E+10	1	-1E+10	1	-1E+10	1	-1E+10	1	-1E+10	1
4901784	116	C	09/07/2018	10:41	-132.364	42.829	0	1945.00	0	1.9750	0	34.8440	8	27.859	0	1920.664	0	56.9	4	17.2	4	-1E+10	1	-1E+10	1	-1E+10	1	-1E+10	1	-1E+10	1	-1E+10	1
4901784	116	C	09/07/2018	10:41	-132.364	42.829	0	1950.00	0	1.9740	0	34.8440	8	27.859	0	1925.579	0	57.1	4	17.2	4	-1E+10	1	-1E+10	1	-1E+10	1	-1E+10	1	-1E+10	1	-1E+10	1
4901784	116	C	09/07/2018	10:41	-132.364	42.829	0	1955.00	0	1.9710	0	34.8450	8	27.860	0	1930.494	0	57.3	4	17.3	4	-1E+10	1	-1E+10	1	-1E+10	1	-1E+10	1	-1E+10	1	-1E+10	1
4901784	116	C	09/07/2018	10:41	-132.364	42.829	0	1960.00	0	1.9680	0	34.8460	8	27.861	0	1935.408	0	57.6	4	17.4	4	-1E+10	1	-1E+10	1	-1E+10	1	-1E+10	1	-1E+10	1	-1E+10	1
4901784	116	C	09/07/2018	10:41	-132.364	42.829	0	1965.10	0	1.9660	0	34.8460	8	27.862	0	1940.421	0	58.0	4	17.5	4	-1E+10	1	-1E+10	1	-1E+10	1	-1E+10	1	-1E+10	1	-1E+10	1
4901784	116	C	09/07/2018	10:41	-132.364	42.829	0	1970.20	0	1.9610	0	34.8470	8	27.863	0	1945.434	0	58.4	4	17.6	4	-1E+10	1	-1E+10	1	-1E+10	1	-1E+10	1	-1E+10	1	-1E+10	1
4901784	116	C	09/07/2018	10:41	-132.364	42.829	0	1975.30	0	1.9550	0	34.8480	8	27.864	0	1950.446	0	58.9	4	17.8	4	-1E+10	1	-1E+10	1	-1E+10	1	-1E+10	1	-1E+10	1	-1E+10	1
4901784	116	C	09/07/2018	10:41	-132.364	42.829	0	1980.40	0	1.9510	0	34.8480	8	27.864	0	1955.459	0	59.2	4	17.8	4	-1E+10	1	-1E+10	1	-1E+10	1	-1E+10	1	-1E+10	1	-1E+10	1
4901784	116	C	09/07/2018	10:41	-132.364	42.829	0	1985.50	0	1.9470	0	34.8490	8	27.866	0	1960.471	0	59.5	4	17.9	4	-1E+10	1	-1E+10	1	-1E+10	1	-1E+10	1	-1E+10	1	-1E+10	1
4901784	116	C	09/07/2018	10:41	-132.364	42.829	0	1990.60	0	1.9430	0	34.8490	8	27.866	0	1965.483	0	59.7	4	18.0	4	-1E+10	1	-1E+10	1	-1E+10	1	-1E+10	1	-1E+10	1	-1E+10	1
4901784	116	C	09/07/2018	10:41	-132.364	42.829	0	1995.80	0	1.9410	0	34.8500	8	27.867	0	1970.594	0	60.0	4	18.1	4	-1E+10	1	-1E+10	1	-1E+10	1	-1E+10	1	-1E+10	1	-1E+10	1
4901784	116	C	09/07/2018	10:41	-132.364	42.829	0	2000.10	0	1.9390	0	34.8500	8	27.867	0	1974.819	0	60.2	4	18.2	4	-1E+10	1	-1E+10	1	-1E+10	1	-1E+10	1	-1E+10	1	-1E+10	1
4901784	116	C	09/07/2018	10:41	-132.364	42.829	0	2004.30	0	1.9360	0	34.8510	8	27.868	0	1978.947	0	60.5	4	18.3	4	-1E+10	1	-1E+10	1	-1E+10	1	-1E+10	1	-1E+10	1	-1E+10	1
4901784	116	C	09/07/2018	10:41	-132.364	42.829	0	2009.80	0	1.9310	0	34.8510	8	27.869	0	1984.352	0	60.8	4	18.4	4	-1E+10	1	-1E+10	1	-1E+10	1	-1E+10	1	-1E+10	1	-1E+10	1
4901784	116	C	09/07/2018	10:41	-132.364	42.829	0	2015.30	0	1.9270	0	34.8520	8	27.870	0	1989.756	0	61.1	4	18.4	4	-1E+10	1	-1E+10	1	-1E+10	1	-1E+10	1	-1E+10	1	-1E+10	1
4901784	116	C	09/07/2018	10:41	-132.364	42.829	0	2020.30	0	1.9250	0	34.8530	8	27.871	0	1994.670	0	61.2	4	18.5	4	-1E+10	1	-1E+10	1	-1E+10	1	-1E+10	1	-1E+10	1	-1E+10	1
4901784	116	C	09/07/2018	10:41	-132.364	42.829	0																										
4901784	117	C	09/17/2018	10:47	-132.313	42.812	0	2.90	0	17.8060	0	33.0850	8	23.854	0	2.877	0	230.6	4	96.9	4	-1E+10	1	-1E+10	1	-1E+10	1	-1E+10	1	-1E+10	1	-1E+10	1
4901784	117	C	09/17/2018	10:47	-132.313	42.812	0	4.50	0	17.8050	0	33.0840	8	23.854	0	4.464	0	230.5	4	96.9	4	-1E+10	1	-1E+10	1	-1E+10	1	-1E+10	1	-1E+10	1	-1E+10	1
4901784	117	C	09/17/2018	10:47	-132.313	42.812	0	6.20	0	17.8020	0	33.0850	8	23.855	0	6.151	0	230.4	4	96.9	4	-1E+10	1	-1E+10	1	-1E+10	1	-1E+10	1	-1E+10	1	-1E+10	1
4901784	117	C	09/17/2018	10:47	-132.313	42.812	0	8.10	0	17.8010	0	33.0850	8	23.856	0	8.036	0	230.3	4	96.8	4	-1E+10	1	-1E+10	1	-1E+10	1	-1E+10	1	-1E+10	1	-1E+10	1
4901784	117	C	09/17/2018	10:47	-132.313	42.812	0	9.90	0	17.8050	0	33.0830	8	23.853	0	9.821	0	230.1	4	96.7	4	-1E+10	1	-1E+10	1	-1E+10	1	-1E+10	1	-1E+10	1	-1E+10	1
4901784	117	C	09/17/2018	10:47	-132.313	42.812	0	11.80	0	17.8070	0	33.0830	8	23.853	0	11.706	0	229.9	4	96.6	4	-1E+10	1	-1E+10	1	-1E+10	1	-1E+10	1	-1E+10	1	-1E+10	1
4901784	117	C	09/17/2018	10:47	-132.313	42.812	0	13.70	0	17.8030	0	33.0830	8	23.854	0	13.591	0	229.7	4	96.6	4	-1E+10	1	-1E+10	1	-1E+10	1	-1E+10	1	-1E+10	1	-1E+10	1
4901784	117	C	09/17/2018	10:47	-132.313	42.812	0	15.50	0	17.8040	0	33.0820	8	23.853	0	15.377	0	229.6	4	96.5	4	-1E+10	1	-1E+10	1	-1E+10	1	-1E+10	1	-1E+10	1	-1E+10	1
4901784	117	C	09/17/2018	10:47	-132.313	42.812	0	17.40	0	17.8010	0	33.0810	8	23.853	0	17.262	0	229.4	4	96.4	4	-1E+10	1	-1E+10	1	-1E+10	1	-1E+10	1	-1E+10	1	-1E+10	1
4901784	117	C	09/17/2018	10:47	-132.313	42.812	0	19.30	0	17.8070	0	33.0800	8	23.851	0	19.146	0	229.3	4	96.4	4	-1E+10	1	-1E+10	1	-1E+10	1	-1E+10	1	-1E+10	1	-1E+10	1
4901784	117	C	09/17/2018	10:47	-132.313	42.812	0	21.80	0	17.8050	0	33.0790	8	23.851	0	21.626	0	229.2	4	96.3	4	-1E+10	1	-1E+10	1	-1E+10	1	-1E+10	1	-1E+10	1	-1E+10	1
4901784	117	C	09/17/2018	10:47	-132.313	42.812	0	23.60	0	17.8040	0	33.0770	8	23.849	0	23.412	0	229.2	4	96.3	4	-1E+10	1	-1E+10	1	-1E+10	1	-1E+10	1	-1E+10	1	-1E+10	1
4901784	117	C	09/17/2018	10:47	-132.313	42.812	0	25.10	0	17.8040	0	33.0740	8	23.847	0	24.900	0	229.6	4	96.5	4	-1E+10	1	-1E+10	1	-1E+10	1	-1E+10	1	-1E+10	1	-1E+10	1
4901784	117	C	09/17/2018	10:47	-132.313	42.812	0	26.50	0	17.8040	0	33.0710	8	23.845	0	26.289	0	230.3	4	96.8	4	-1E+10	1	-1E+10	1	-1E+10	1	-1E+10	1	-1E+10	1	-1E+10	1
4901784	117	C	09/17/2018	10:47	-132.313	42.812	0	27.90	0	17.8030	0	33.0650	8	23.841	0	27.677	0	231.2	4	97.2	4	-1E+10	1	-1E+10	1	-1E+10	1	-1E+10	1	-1E+10	1	-1E+10	1
4901784	117	C	09/17/2018	10:47	-132.313	42.812	0	29.30	0	17.8050	0	33.0570	8	23.834	0	29.066	0	232.8	4	97.8	4	-1E+10	1	-1E+10	1	-1E+10	1	-1E+10	1	-1E+10	1	-1E+10	1
4901784	117	C	09/17/2018	10:47	-132.313	42.812	0	30.60	0	17.8070	0	33.0440	8	23.824	0	30.355	0	234.7	4	98.7	4	-1E+10	1	-1E+10	1	-1E+10	1	-1E+10	1	-1E+10	1	-1E+10	1
4901784	117	C	09/17/2018	10:47	-132.313	42.812	0	31.80	0	17.7230	0	33.0280	8	23.832	0	31.546	0	238.4	4	100.0	4	-1E+10	1	-1E+10	1	-1E+10	1	-1E+10	1	-1E+10	1	-1E+10	1
4901784	117	C	09/17/2018	10:47	-132.313	42.812	0	33.00	0	17.4950	0	33.0130	8	23.875	0	32.736	0	242.9	4	101.5	4	-1E+10	1	-1E+10	1	-1E+10	1	-1E+10	1	-1E+10	1	-1E+10	1
4901784	117	C	09/17/2018	10:47	-132.313	42.812	0	34.30	0	17.0180	0	32.9330	8	23.926	0	34.026	0	250.3	4	103.5	4	-1E+10	1	-1E+10	1	-1E+10	1	-1E+10	1	-1E+10	1	-1E+10	1
4901784	117	C	09/17/2018	10:47	-132.313	42.812	0	35.80	0	15.5160	0	32.9530	8	24.284	0	35.513	0	260.0	4	104.5	4	-1E+10	1	-1E+10	1	-1E+10	1	-1E+10	1	-1E+10	1	-1E+10	1
4901784	117	C	09/17/2018	10:47	-132.313	42.812	0	37.30	0	14.8520	0	32.8620	8	24.358	0	37.001	0	267.2	4	106.0	4	-1E+10	1	-1E+10	1	-1E+10	1	-1E+10	1	-1E+10	1	-1E+10	1
4901784	117	C	09/17/2018	10:47	-132.313	42.812	0	39.10	0	13.2380	0	32.9350	8	24.748	0	38.787	0	274.0	4	105.2	4	-1E+10	1	-1E+10	1	-1E+10	1	-1E+10	1	-1E+10	1	-1E+10	1
4901784	117	C	09/17/2018	10:47	-132.313	42.812	0	39.60	0	12.6390	0	32.8460	8	24.797	0	39.283	0	280.9	4	106.5	4	-1E+10	1	-1E+10	1	-1E+10	1	-1E+10	1	-1E+10	1	-1E+10	1
4901784	117	C	09/17/2018	10:47	-132.313	42.812	0	41.00	0	12.1160	0	32.8810	8	24.923	0	40.671	0	284.2	4	106.6	4	-1E+10	1	-1E+10	1	-1E+10	1	-1E+10	1	-1E+10	1	-1E+10	1
4901784	117	C	09/17/2018	10:47	-132.313	42.812	0	42.40	0	11.9190	0	32.8180	8	24.911	0	42.060	0	287.4	4	107.3	4	-1E+10	1	-1E+10	1	-1E+10	1	-1E+10	1	-1E+10	1	-1E+10	1
4901784	117	C	09/17/2018	10:47	-132.313	42.812	0	44.00	0	11.3810	0	32.8420	8	25.029	0	43.647	0	288.0	4	106.3	4	-1E+10	1	-1E+10	1	-1E+10	1	-1E+10	1	-1E+10	1	-1E+10	1
4901784	117	C	09/17/2018	10:47	-132.313	42.812	0	45.60	0	11.0090	0	32.8350	8	25.090	0	45.234	0	289.0	4	105.9	4	-1E+10	1	-1E+10	1	-1E+10	1	-1E+10	1	-1E+10	1	-1E+10	1
4901784	117	C	09/17/2018	10:47	-132.313	42.812	0	47.20	0	10.7080	0	32.8550	8	25.158	0	46.821	0	288.4	4	105.0	4	-1E+10	1	-1E+10	1	-1E+10	1	-1E+10	1	-1E+10	1	-1E+10	1
4901784	117	C	09/17/2018	10:47	-132.313	42.812	0	48.80	0	10.4760	0	32.8520	8	25.196	0	48.408	0	287.1	4	104.0	4	-1E+10	1	-1E+10	1	-1E+10	1	-1E+10	1	-1E+10	1	-1E+10	1
4901784	117	C	09/17/2018	10:47	-132.313	42.812	0	50.40	0	10.5210	0	32.8570	8	25.192	0	49.995	0	283.6	4	102.8	4	-1E+10	1	-1E+10	1	-1E+10	1	-1E+10	1	-1E+10	1	-1E+10	1
4901784	117	C	09/17/2018	10:47	-132.313	42.812	0	52.00	0	10.4220	0	32.8900	8	25.235	0	51.582	0	280.6	4	101.5	4	-1E+10	1	-1E+10	1	-1E+10	1	-1E+10	1	-1E+10	1	-1E+10	1
4901784	117	C	09/17/2018	10:47	-132.313	42.812	0	53.70	0	10.4590	0	32.9420	8	25.269	0	53.268	0	277.5	4	100.5	4	-1E+10	1	-1E+10	1	-1E+10	1	-1E+10	1	-1E+10	1	-1E+10	1
4901784	117	C	09/17/2018	10:47	-132.313	42.812	0	55.30	0	10.4460	0	32.9380	8	25.268	0	54.855	0	276.1	4	100.0	4	-1E+10	1	-1E+10	1	-1E+10	1	-1E+10	1	-1E+10	1	-1E+10	1
4901784	117	C	09/17/2018	10:47	-132.313	42.812	0	57.00	0	10.4190	0	32.9410	8	25.275	0	56.541	0	273.9	4	99.2	4	-1E+10	1	-1E+10	1	-1E+10	1	-1E+10	1	-1E+10	1	-1E+10	1
4901784	117	C	09/17/2018	10:47	-132.313	42.812	0	58.60	0	10.3850	0	32.9460	8	25.285	0	58.128	0	272.3	4	98.5	4	-1E+10	1	-1E+10	1	-1E+10	1	-1E+10	1	-1E+10	1	-1E+10	1
4901784	117	C	09/17/2018	10:47	-132.313	42.812	0	60.40	0	10.2750	0	32.9480	8	25.305	0	59.913	0	270.9	4	97.8	4	-1E+10	1	-1E+10	1	-1E+10	1	-1E+10	1	-1E+10	1	-1E+10	1
4901784	117	C	09/17/2018	10:47	-132.313	42.812	0	62.00	0	10.1860	0	32.9470	8	25.320	0	61.500	0	270.0	4	97.3	4	-1E+10	1	-1E+10	1	-1E+10	1	-1E+10	1	-1E+10	1	-1E+10	1
4901784	117	C	09/17/2018	10:47	-132.313	42.812	0	63.80	0	10.1300	0	32.9410	8	25.324	0	63.285	0	269.3	4	96.9	4	-1E+10	1	-1E+10	1	-1E+10	1	-1E+10	1	-1E+10	1	-1E+10	1
4901784	117	C	09/17/2018	10:47	-132.313	42.812	0	65.60	0	10.0460	0	32.9370	8	25.335	0	65.070	0	268.4	4	96.4	4	-1E+10	1	-1E+10	1	-1E+10	1	-1E+10	1	-1E+10	1	-1E+10	1
4901784	117	C	09/17/2018	10:47	-132.313	42.812	0	67.40	0	9.9810	0	32.9320	8	25.342	0	66.855	0	267.7	4	96.0	4	-1E+10	1	-1E+10	1	-1E+10	1	-1E+10	1	-1E+10	1	-1E+10	1
4901784	117	C	09/17/2018	10:47	-132.313	42.812	0	69.20	0	9.9120	0	32.9210	8	25.345	0	68.641	0	267.0	4	95.6	4	-1E+10	1	-1E+10	1	-1E+10	1	-1E+10	1	-1E+10	1	-1E+10	1
4901784	117	C	09/17/2018	10:47	-132.313	42.812	0	70.90	0	9.7800	0	32.9150	8	25.362	0	70.327	0	266.2	4	95.0	4	-1E+10	1	-1E+10	1	-1E+10	1	-1E+10	1	-1E+10	1	-1E+10	1
4901784	117	C	09/17/2018	10:47	-132.313	42.812	0	72.70	0	9.6690	0	32.9040	8	25.372	0	72.112	0	266.1	4	94.8	4	-1E+10	1	-1E+10	1	-1E+10	1	-1E+10	1	-1E+10	1	-1E+10	1
4901784	117	C	09/17/2018	10:47	-132.313	42.812	0	74.50	0	9.6080	0	32.8960	8	25.376	0	73.897	0	265.8	4	94.6	4	-1E+10	1	-1E+10	1	-1E+10	1	-1E+10	1	-1E+10	1	-1E+10	1
4901784	117	C	09/17/2018	10:47	-132.313	42.812	0	76.40	0	9.5690	0	32.8940	8	25.380	0	75.781	0	264.9	4	94.1	4	-1E+10	1	-1E+10	1	-1E+10	1	-1E+10	1	-1E+10	1	-1E+10	1
4901784	117	C	09/17/2018	10:47	-132.313	42.812	0	78.10	0	9.4990	0	32.8910	8	25.389	0	77.467	0	263.7	4	93.6	4	-1E+10	1	-1E+10	1	-1E+10	1	-1E+10	1	-1E+10	1	-1E+10	1
4901784	117	C	09/17/2018	10:47	-132.313	42.812	0	80.10	0	9.4390	0	32.8910	8	25.399	0	79.450	0	262.8	4	93.1	4	-1E+10	1	-1E+10	1	-1E+10	1	-1E+10	1	-1E+10	1	-1E+10	1
4901784	117	C	09/17/2018	10:47	-132.313	42.812	0	80.60	0	9.4220	0	32.8890	8	25.400	0	79.946	0	262.3	4	92.9	4	-1E+10	1	-1E+10	1	-1E+10	1	-1E+10	1	-1E+10	1	-1E+10	1
4901784	117	C	09/17/2018	10:47	-132.313	42.812	0	82.20	0	9.3380	0	32.8870	8	25.412	0	81.533	0	261.8	4	92.6	4	-1E+10	1	-1E+10	1	-1E+10	1	-1E+10	1	-1E+10	1	-1E+10	1
4901784	117	C	09/17/2018	10:47	-132.313	42.812	0	83.70	0	9.3360	0	32.8870	8	25.413	0	83.020	0	260.7	4	92.2	4	-1E+10	1	-1E+10	1	-1E+10	1	-1E+10	1	-1E+10	1	-1E+10	1
4901784	117	C	09/17/2018	10:47	-132.313	42.812	0	85.10	0	9.2940	0	32.8860	8	25.418	0	84.409	0	259.6	4	91.7	4	-1E+10	1	-1E+10	1	-1E+10	1	-1E+10	1	-1E+10	1	-1E+10	1
4901784	117	C	09/17/2018	10:47	-132.313	42.812	0	86.60	0	9.3000	0	32.8950	8	25.425	0	85.896	0	258.2	4	91.2	4	-1E+10	1	-1E+10	1	-1E+10	1	-1E+10	1	-1E+10	1	-1E+10	1
4901784	117	C	09/17/2018	10:47	-132.313	42.812	0	88.10	0	9.2830	0	32.9020	8	25.433	0	87.384	0	256.8	4	90.7	4	-1E+10	1	-1E+10	1	-1E+10	1	-1E+10	1	-1E+10	1	-1E+10	1
4901784	117	C	09/17/2018	10:47	-132.313	42.812	0	89.70	0	9.2770	0	32.9130	8	25.442	0	88.970	0	255.5	4	90.2	4	-1E+10	1	-1E+10	1	-1E+10	1	-1E+10	1	-1E+10	1	-1E+10	1
4901784	117	C	09/17/2018	10:47	-132.313	42.812	0	91.20	0	9.2610	0	32.9230	8	25.453	0	90.458	0	254.5	4	89.8	4	-1E+10	1	-1E+10	1	-1E+10	1	-1E+10	1	-1E+10	1	-1E+10	1
4901784	117	C	09/17/2018	10:47	-132.313	42.812	0	92.70	0	9.2360	0	32.9300	8	25.462	0	91.945	0	253.1	4	89.3	4	-1E+10	1	-1E+10	1	-1E+10	1	-1E+10	1	-1E+10	1	-1E+10	1
4901784	117	C	09/17/2018	10:47	-132.313	42.812	0	94.30	0	9.2120	0	32.9430	8	25.476	0	93.532	0	252.0	4	88.9	4	-1E+10	1	-1E+10	1	-1E+10	1	-1E+10	1	-1E+10	1	-1E+10	1
4901784	117	C	09/17/2018	10:47	-132.313	42.812	0	95.90	0	9.1430	0	32.9480	8	25.491	0	95.119	0	251.3	4	88.5	4	-1E+10	1	-1E+10	1	-1E+10	1	-1E+10	1	-1E+10	1	-1E+10	1
4901784	117	C	09/17/2018	10:47	-132.313	42.812	0	97.60	0	9.0920	0	32.9500	8	25.501	0	96.804	0	250.4	4	88.1	4	-1E+10	1	-1E+10	1	-1E+10	1	-1E+10	1	-1E+10	1	-1E+10	1
4901784	117	C	09/17/2018	10:47	-132.313	42.812	0	99.20	0	9.0020	0	32.9840	8	25.541	0	98.391	0	249.3	4	87.6	4	-1E+10	1	-1E+10	1	-1E+10	1	-1E+10	1	-1E+10	1	-1E+10	1
4901784	117	C	09/17/2018	10:47	-132.313	42.812	0	102.50	0	8.9230	0	32.9930	8	25.561	0	101.663	0	247.8	4	86.9	4	-1E+10	1	-1E+10	1	-1E+10	1	-1E+10	1	-1E+10	1	-1E+10	1
4901784	117	C	09/17/2018	10:47	-132.313	42.812	0	104.90	0	8.8390	0	33.0090	8	25.586	0	104.043	0	245.9	4	86.1	4	-1E+10	1	-1E+10	1	-1E+10	1	-1E+10	1	-1E+10	1	-1E+10	1
4901784	117	C	09/17/2018	10:47	-132.313	42.812	0	107.40	0	8.6650	0	33.0560	8	25.650	0	106.522	0	244.8	4	85.4	4	-1E+10	1	-1E+10	1	-1E+10	1	-1E+10	1	-1E+10	1	-1E+10	1
4901784	117	C	09/17/2018	10:47	-132.313	42.812	0	109.90	0	8.5640	0	33.1110	8	25.708	0	109.001	0	243.4	4	84.7	4	-1E+10	1	-1E+10	1	-1E+10	1	-1E+10	1	-1E+10	1	-1E+10	1
4901784	117	C	09/17/2018	10:47	-132.313	42.812	0	112.50	0	8.3910	0	33.1510	8	25.766	0	111.579	0	242.7	4	84.2	4	-1E+10	1	-1E+10	1	-1E+10	1	-1E+10	1	-1E+10	1	-1E+10	1
4901784	117	C	09/17/2018	10:47	-132.313	42.812	0	115.10	0	8.3600	0	33.1510	8	25.771	0	114.157	0	241.8	4	83.8	4	-1E+10	1	-1E+10	1	-1E+10	1	-1E+10	1	-1E+10	1	-1E+10	1
4901784	117	C	09/17/2018	10:47	-132.313	42.812	0	117.80	0	8.1340	0	33.1820	8	25.829	0	116.834	0	241.0	4	83.1	4	-1E+10	1	-1E+10	1	-1E+10	1	-1E+10	1	-1E+10	1	-1E+10	1
4901784	117	C	09/17/2018	10:47	-132.313	42.812	0	120.10	0	8.0160	0	33.2220	8	25.877	0	119.114	0	239.8	4	82.5	4	-1E+10	1	-1E+10	1	-1E+10	1	-1E+10	1	-1E+10	1	-1E+10	1
4901784	117	C	09/17/2018	10:47	-132.313	42.812	0	122.70	0	7.9370	0	33.2800	8	25.934	0	121.692	0	238.3	4	81.9	4	-1E+10	1	-1E+10	1	-1E+10	1	-1E+10	1	-1E+10	1	-1E+10	1
4901784	117	C	09/17/2018	10:47	-132.313	42.812	0	125.10	0	7.9020	0	33.3330	8	25.981	0	124.072	0	237.1	4	81.5	4	-1E+10	1	-1E+10	1	-1E+10	1	-1E+10	1	-1E+10	1	-1E+10	1
4901784	117	C	09/17/2018	10:47	-132.313	42.812	0	127.40	0	7.8990	0	33.3380	8	25.985	0	126.352	0	235.7	4	81.0	4	-1E+10	1	-1E+10	1	-1E+10	1	-1E+10	1	-1E+10	1	-1E+10	1
4901784	117	C	09/17/2018	10:47	-132.313	42.812	0	129.70	0	7.8960	0	33.3450	8	25.991	0	128.633	0	234.1	4	80.4	4	-1E+10	1	-1E+10	1	-1E+10	1	-1E+10	1	-1E+10	1	-1E+10	1
4901784	117	C	09/17/2018	10:47	-132.313	42.812	0	132.00	0	7.9310	0	33.3870	8	26.019	0	130.913	0	231.3	4	79.6	4	-1E+10	1	-1E+10	1	-1E+10	1	-1E+10	1	-1E+10	1	-1E+10	1
4901784	117	C	09/17/2018	10:47	-132.313	42.812	0	135.30	0	7.9330	0	33.4680	8	26.083	0	134.185	0	228.4	4	78.6	4	-1E+10	1	-1E+10	1	-1E+10	1	-1E+10	1	-1E+10	1	-1E+10	1
4901784	117	C	09/17/2018	10:47	-132.313	42.812	0	137.70	0	7.9380	0	33.4870	8	26.097	0	136.564	0	226.9	4	78.1	4	-1E+10	1	-1E+10	1	-1E+10	1	-1E+10	1	-1E+10	1	-1E+10	1
4901784	117	C	09/17/2018	10:47	-132.313	42.812	0	140.20	0	7.9480	0	33.5190	8	26.121	0	139.043	0	224.8	4	77.4	4	-1E+10	1	-1E+10	1	-1E+10	1	-1E+10	1	-1E+10	1	-1E+10	1
4901784	117	C	09/17/2018	10:47	-132.313	42.812	0	142.60	0	7.9670	0	33.5520	8	26.144	0	141.422	0	223.1	4	76.9	4	-1E+10	1	-1E+10	1	-1E+10	1	-1E+10	1	-1E+10	1	-1E+10	1
4901784	117	C	09/17/2018	10:47	-132.313	42.812	0	145.00	0	7.9720	0	33.5660	8	26.154	0	143.801	0	221.1	4	76.2	4	-1E+10	1	-1E+10	1	-1E+10	1	-1E+10	1	-1E+10	1	-1E+10	1
4901784	117	C	09/17/2018	10:47	-132.313	42.812	0	147.40	0	7.9740	0	33.5850	8	26.169	0	146.181	0	218.8	4	75.4	4	-1E+10	1	-1E+10	1	-1E+10	1	-1E+10	1	-1E+10	1	-1E+10	1
4901784	117	C	09/17/2018	10:47	-132.313	42.812	0	149.90	0	8.0060	0	33.6360	8	26.204	0	148.659	0	215.4	4	74.3	4	-1E+10	1	-1E+10	1	-1E+10	1	-1E+10	1	-1E+10	1	-1E+10	1
4901784	117	C	09/17/2018	10:47	-132.313	42.812	0	152.40	0	8.0650	0	33.7170	8	26.259	0	151.138	0	212.3	4	73.4	4	-1E+10	1	-1E+10	1	-1E+10	1	-1E+10	1	-1E+10	1	-1E+10	1
4901784	117	C	09/17/2018	10:47	-132.313	42.812	0	154.90	0	8.1000	0	33.7560	8	26.285	0	153.616	0	209.6	4	72.6	4	-1E+10	1	-1E+10	1	-1E+10	1	-1E+10	1	-1E+10	1	-1E+10	1
4901784	117	C	09/17/2018	10:47	-132.313	42.812	0	157.40	0	8.1360	0	33.7960	8	26.311	0	156.094	0	206.8	4	71.7	4	-1E+10	1	-1E+10	1	-1E+10	1	-1E+10	1	-1E+10	1	-1E+10	1
4901784	117	C	09/17/2018	10:47	-132.313	42.812	0	159.90	0	8.2010	0	33.8520	8	26.345	0	158.573	0	203.8	4	70.8	4	-1E+10	1	-1E+10	1	-1E+10	1	-1E+10	1	-1E+10	1	-1E+10	1
4901784	117	C	09/17/2018	10:47	-132.313	42.812	0	162.50	0	8.2700	0	33.9160	8	26.385	0	161.150	0	201.0	4	69.9	4	-1E+10	1	-1E+10	1	-1E+10	1	-1E+10	1	-1E+10	1	-1E+10	1
4901784	117	C	09/17/2018	10:47	-132.313	42.812	0	165.10	0	8.2860	0	33.9340	8	26.397	0	163.727	0	198.6	4	69.1	4	-1E+10	1	-1E+10	1	-1E+10	1	-1E+10	1	-1E+10	1	-1E+10	1
4901784	117	C	09/17/2018	10:47	-132.313	42.812	0	167.70	0	8.3180	0	33.9800	8	26.428	0	166.305	0	195.5	4	68.1	4	-1E+10	1	-1E+10	1	-1E+10	1	-1E+10	1	-1E+10	1	-1E+10	1
4901784	117	C	09/17/2018	10:47	-132.313	42.812	0	170.30	0	8.3640	0	34.0280	8	26.459	0	168.882	0	192.1	4	67.0	4	-1E+10	1	-1E+10	1	-1E+10	1	-1E+10	1	-1E+10	1	-1E+10	1
4901784	117	C	09/17/2018	10:47	-132.313	42.812	0	173.10	0	8.4140	0	34.0820	8	26.494	0	171.658	0	188.9	4	66.0	4	-1E+10	1	-1E+10	1	-1E+10	1	-1E+10	1	-1E+10	1	-1E+10	1
4901784	117	C	09/17/2018	10:47	-132.313	42.812	0	174.90	0	8.4510	0	34.1090	8	26.509	0	173.442	0	187.1	4	65.4	4	-1E+10	1	-1E+10	1	-1E+10	1	-1E+10	1	-1E+10	1	-1E+10	1
4901784	117	C	09/17/2018	10:47	-132.313	42.812	0	176.80	0	8.4820	0	34.1520	8	26.538	0	175.325	0	185.6	4	65.0	4	-1E+10	1	-1E+10	1	-1E+10	1	-1E+10	1	-1E+10	1	-1E+10	1
4901784	117	C	09/17/2018	10:47	-132.313	42.812	0	179.80	0	8.4980	0	34.1790	8	26.557	0	178.299	0	183.8	4	64.4	4	-1E+10	1	-1E+10	1	-1E+10	1	-1E+10	1	-1E+10	1	-1E+10	1
4901784	117	C	09/17/2018	10:47	-132.313	42.812	0	182.60	0	8.5030	0	34.1950	8	26.569	0	181.074	0	182.4	4	63.9	4	-1E+10	1	-1E+10	1	-1E+10	1	-1E+10	1	-1E+10	1	-1E+10	1
4901784	117	C	09/17/2018	10:47	-132.313	42.812	0	184.50	0	8.4920	0	34.1980	8	26.573	0	182.957	0	181.4	4	63.5	4	-1E+10	1	-1E+10	1	-1E+10	1	-1E+10	1	-1E+10	1	-1E+10	1
4901784	117	C	09/17/2018	10:47	-132.313	42.812	0	187.30	0	8.4750	0	34.2100	8	26.585	0	185.733	0	179.9	4	63.0	4	-1E+10	1	-1E+10	1	-1E+10	1	-1E+10	1	-1E+10	1	-1E+10	1
4901784	117	C	09/17/2018	10:47	-132.313	42.812	0	190.20	0	8.4550	0	34.2270	8	26.601	0	188.607	0	178.7	4	62.6	4	-1E+10	1	-1E+10	1	-1E+10	1	-1E+10	1	-1E+10	1	-1E+10	1
4901784	117	C	09/17/2018	10:47	-132.313	42.812	0	192.80	0	8.4390	0	34.2310	8	26.607	0	191.184	0	178.2	4	62.4	4	-1E+10	1	-1E+10	1	-1E+10	1	-1E+10	1	-1E+10	1	-1E+10	1
4901784	117	C	09/17/2018	10:47	-132.313	42.812	0	194.70	0	8.4260	0	34.2330	8	26.611	0	193.067	0	177.7	4	62.2	4	-1E+10	1	-1E+10	1	-1E+10	1	-1E+10	1	-1E+10	1	-1E+10	1
4901784	117	C	09/17/2018	10:47	-132.313	42.812	0	197.10	0	8.3960	0	34.2340	8	26.616	0	195.446	0	176.9	4	61.9	4	-1E+10	1	-1E+10	1	-1E+10	1	-1E+10	1	-1E+10	1	-1E+10	1
4901784	117	C	09/17/2018	10:47	-132.313	42.812	0	200.20	0	8.3710	0	34.2390	8	26.624	0	198.519	0	175.8	4	61.4	4	-1E+10	1	-1E+10	1	-1E+10	1	-1E+10	1	-1E+10	1	-1E+10	1
4901784	117	C	09/17/2018	10:47	-132.313	42.812	0	202.60	0	8.3650	0	34.2390	8	26.625	0	200.897	0	175.0	4	61.2	4	-1E+10	1	-1E+10	1	-1E+10	1	-1E+10	1	-1E+10	1	-1E+10	1
4901784	117	C	09/17/2018	10:47	-132.313	42.812	0	205.00	0	8.3180	0	34.2400	8	26.633	0	203.276	0	174.3	4	60.8	4	-1E+10	1	-1E+10	1	-1E+10	1	-1E+10	1	-1E+10	1	-1E+10	1
4901784	117	C	09/17/2018	10:47	-132.313	42.812	0	207.50	0	8.3040	0	34.2400	8	26.635	0	205.754	0	173.8	4	60.6	4	-1E+10	1	-1E+10	1	-1E+10	1	-1E+10	1	-1E+10	1	-1E+10	1
4901784	117	C	09/17/2018	10:47	-132.313	42.812	0	210.00	0	8.2920	0	34.2400	8	26.637	0	208.231	0	173.0	4	60.4	4	-1E+10	1	-1E+10	1	-1E+10	1	-1E+10	1	-1E+10	1	-1E+10	1
4901784	117	C	09/17/2018	10:47	-132.313	42.812	0	212.40	0	8.2760	0	34.2380	8	26.638	0	210.610	0	172.1	4	60.0	4	-1E+10	1	-1E+10	1	-1E+10	1	-1E+10	1	-1E+10	1	-1E+10	1
4901784	117	C	09/17/2018	10:47	-132.313	42.812	0	214.90	0	8.2330	0	34.2390	8	26.645	0	213.088	0	171.0	4	59.6	4	-1E+10	1	-1E+10	1	-1E+10	1	-1E+10	1	-1E+10	1	-1E+10	1
4901784	117	C	09/17/2018	10:47	-132.313	42.812	0	217.30	0	8.2110	0	34.2370	8	26.647	0	215.466	0	170.0	4	59.2	4	-1E+10	1	-1E+10	1	-1E+10	1	-1E+10	1	-1E+10	1	-1E+10	1
4901784	117	C	09/17/2018	10:47	-132.313	42.812	0	219.90	0	8.1500	0	34.2370	8	26.656	0	218.043	0	168.8	4	58.7	4	-1E+10	1	-1E+10	1	-1E+10	1	-1E+10	1	-1E+10	1	-1E+10	1
4901784	117	C	09/17/2018	10:47	-132.313	42.812	0	222.40	0	8.0830	0	34.2370	8	26.666	0	220.520	0	168.1	4	58.4	4	-1E+10	1	-1E+10	1	-1E+10	1	-1E+10	1	-1E+10	1	-1E+10	1
4901784	117	C	09/17/2018	10:47	-132.313	42.812	0	225.00	0	8.0740	0	34.2360	8	26.666	0	223.097	0	167.3	4	58.1	4	-1E+10	1	-1E+10	1	-1E+10	1	-1E+10	1	-1E+10	1	-1E+10	1
4901784	117	C	09/17/2018	10:47	-132.313	42.812	0	227.50	0	8.0630	0	34.2340	8	26.667	0	225.575	0	166.4	4	57.7	4	-1E+10	1	-1E+10	1	-1E+10	1	-1E+10	1	-1E+10	1	-1E+10	1
4901784	117	C	09/17/2018	10:47	-132.313	42.812	0	230.00	0	7.9920	0	34.2370	8	26.679	0	228.052	0	165.4	4	57.3	4	-1E+10	1	-1E+10	1	-1E+10	1	-1E+10	1	-1E+10	1	-1E+10	1
4901784	117	C	09/17/2018	10:47	-132.313	42.812	0	232.60	0	7.9590	0	34.2340	8	26.682	0	230.629	0	165.0	4	57.1	4	-1E+10	1	-1E+10	1	-1E+10	1	-1E+10	1	-1E+10	1	-1E+10	1
4901784	117	C	09/17/2018	10:47	-132.313	42.812	0	235.10	0	7.9370	0	34.2340	8	26.685	0	233.106	0	164.4	4	56.9	4	-1E+10	1	-1E+10	1	-1E+10	1	-1E+10	1	-1E+10	1	-1E+10	1
4901784	117	C	09/17/2018	10:47	-132.313	42.812	0	237.70	0	7.9150	0	34.2330	8	26.688	0	235.682	0	164.1	4	56.8	4	-1E+10	1	-1E+10	1	-1E+10	1	-1E+10	1	-1E+10	1	-1E+10	1
4901784	117	C	09/17/2018	10:47	-132.313	42.812	0	240.20	0	7.9090	0	34.2330	8	26.689	0	238.160	0	163.6	4	56.6	4	-1E+10	1	-1E+10	1	-1E+10	1	-1E+10	1	-1E+10	1	-1E+10	1
4901784	117	C	09/17/2018	10:47	-132.313	42.812	0	242.70	0	7.8920	0	34.2340	8	26.692	0	240.637	0	162.9	4	56.3	4	-1E+10	1	-1E+10	1	-1E+10	1	-1E+10	1	-1E+10	1	-1E+10	1
4901784	117	C	09/17/2018	10:47	-132.313	42.812	0	245.30	0	7.8790	0	34.2320	8	26.692	0	243.213	0	162.1	4	56.0	4	-1E+10	1	-1E+10	1	-1E+10	1	-1E+10	1	-1E+10	1	-1E+10	1
4901784	117	C	09/17/2018	10:47	-132.313	42.812	0	247.80	0	7.8430	0	34.2310	8	26.697	0	245.691	0	161.3	4	55.7	4	-1E+10	1	-1E+10	1	-1E+10	1	-1E+10	1	-1E+10	1	-1E+10	1
4901784	117	C	09/17/2018	10:47	-132.313	42.812	0	250.30	0	7.8290	0	34.2310	8	26.699	0	248.168	0	160.2	4	55.3	4	-1E+10	1	-1E+10	1	-1E+10	1	-1E+10	1	-1E+10	1	-1E+10	1
4901784	117	C	09/17/2018	10:47	-132.313	42.812	0	252.80	0	7.7970	0	34.2290	8	26.702	0	250.645	0	159.0	4	54.9	4	-1E+10	1	-1E+10	1	-1E+10	1	-1E+10	1	-1E+10	1	-1E+10	1
4901784	117	C	09/17/2018	10:47	-132.313	42.812	0	255.20	0	7.7390	0	34.2290	8	26.711	0	253.023	0	157.9	4	54.4	4	-1E+10	1	-1E+10	1	-1E+10	1	-1E+10	1	-1E+10	1	-1E+10	1
4901784	117	C	09/17/2018	10:47	-132.313	42.812	0	257.70	0	7.7070	0	34.2280	8	26.715	0	255.500	0	156.9	4	54.0	4	-1E+10	1	-1E+10	1	-1E+10	1	-1E+10	1	-1E+10	1	-1E+10	1
4901784	117	C	09/17/2018	10:47	-132.313	42.812	0	260.20	0	7.6760	0	34.2260	8	26.717	0	257.977	0	155.5	4	53.5	4	-1E+10	1	-1E+10	1	-1E+10	1	-1E+10	1	-1E+10	1	-1E+10	1
4901784	117	C	09/17/2018	10:47	-132.313	42.812	0	262.80	0	7.6140	0	34.2270	8	26.727	0	260.554	0	154.4	4	53.0	4	-1E+10	1	-1E+10	1	-1E+10	1	-1E+10	1	-1E+10	1	-1E+10	1
4901784	117	C	09/17/2018	10:47	-132.313	42.812	0	265.30	0	7.5750	0	34.2230	8	26.730	0	263.031	0	153.2	4	52.6	4	-1E+10	1	-1E+10	1	-1E+10	1	-1E+10	1	-1E+10	1	-1E+10	1
4901784	117	C	09/17/2018	10:47	-132.313	42.812	0	267.90	0	7.5520	0	34.2230	8	26.733	0	265.607	0	151.7	4	52.1	4	-1E+10	1	-1E+10	1	-1E+10	1	-1E+10	1	-1E+10	1	-1E+10	1
4901784	117	C	09/17/2018	10:47	-132.313	42.812	0	269.60	0	7.5260	0	34.2220	8	26.736	0	267.291	0	150.9	4	51.7	4	-1E+10	1	-1E+10	1	-1E+10	1	-1E+10	1	-1E+10	1	-1E+10	1
4901784	117	C	09/17/2018	10:47	-132.313	42.812	0	272.20	0	7.4630	0	34.2230	8	26.746	0	269.867	0	149.4	4	51.2	4	-1E+10	1	-1E+10	1	-1E+10	1	-1E+10	1	-1E+10	1	-1E+10	1
4901784	117	C	09/17/2018	10:47	-132.313	42.812	0	274.80	0	7.4350	0	34.2210	8	26.748	0	272.443	0	148.6	4	50.8	4	-1E+10	1	-1E+10	1	-1E+10	1	-1E+10	1	-1E+10	1	-1E+10	1
4901784	117	C	09/17/2018	10:47	-132.313	42.812	0	277.40	0	7.4140	0	34.2210	8	26.751	0	275.019	0	147.4	4	50.4	4	-1E+10	1	-1E+10	1	-1E+10	1	-1E+10	1	-1E+10	1	-1E+10	1
4901784	117	C	09/17/2018	10:47	-132.313	42.812	0	279.90	0	7.3920	0	34.2200	8	26.754	0	277.496	0	146.2	4	50.0	4	-1E+10	1	-1E+10	1	-1E+10	1	-1E+10	1	-1E+10	1	-1E+10	1
4901784	117	C	09/17/2018	10:47	-132.313	42.812	0	282.50	0	7.3700	0	34.2180	8	26.755	0	280.072	0	144.6	4	49.4	4	-1E+10	1	-1E+10	1	-1E+10	1	-1E+10	1	-1E+10	1	-1E+10	1
4901784	117	C	09/17/2018	10:47	-132.313	42.812	0	285.00	0	7.3490	0	34.2140	8	26.755	0	282.549	0	142.7	4	48.7	4	-1E+10	1	-1E+10	1	-1E+10	1	-1E+10	1	-1E+10	1	-1E+10	1
4901784	117	C	09/17/2018	10:47	-132.313	42.812	0	287.60	0	7.2740	0	34.2150	8	26.766	0	285.125	0	140.6	4	48.0	4	-1E+10	1	-1E+10	1	-1E+10	1	-1E+10	1	-1E+10	1	-1E+10	1
4901784	117	C	09/17/2018	10:47	-132.313	42.812	0	290.10	0	7.2330	0	34.2100	8	26.768	0	287.601	0	138.7	4	47.2	4	-1E+10	1	-1E+10	1	-1E+10	1	-1E+10	1	-1E+10	1	-1E+10	1
4901784	117	C	09/17/2018	10:47	-132.313	42.812	0	292.60	0	7.1380	0	34.2130	8	26.784	0	290.078	0	136.7	4	46.5	4	-1E+10	1	-1E+10	1	-1E+10	1	-1E+10	1	-1E+10	1	-1E+10	1
4901784	117	C	09/17/2018	10:47	-132.313	42.812	0	295.20	0	7.0810	0	34.2080	8	26.788	0	292.654	0	135.1	4	45.9	4	-1E+10	1	-1E+10	1	-1E+10	1	-1E+10	1	-1E+10	1	-1E+10	1
4901784	117	C	09/17/2018	10:47	-132.313	42.812	0	297.90	0	7.0230	0	34.2080	8	26.796	0	295.329	0	133.5	4	45.2	4	-1E+10	1	-1E+10	1	-1E+10	1	-1E+10	1	-1E+10	1	-1E+10	1
4901784	117	C	09/17/2018	10:47	-132.313	42.812	0	300.40	0	6.9750	0	34.2050	8	26.800	0	297.805	0	132.1	4	44.7	4	-1E+10	1	-1E+10	1	-1E+10	1	-1E+10	1	-1E+10	1	-1E+10	1
4901784	117	C	09/17/2018	10:47	-132.313	42.812	0	302.20	0	6.9410	0	34.2030	8	26.803	0	299.588	0	131.1	4	44.4	4	-1E+10	1	-1E+10	1	-1E+10	1	-1E+10	1	-1E+10	1	-1E+10	1
4901784	117	C	09/17/2018	10:47	-132.313	42.812	0	304.80	0	6.8600	0	34.2050	8	26.816	0	302.164	0	129.7	4	43.8	4	-1E+10	1	-1E+10	1	-1E+10	1	-1E+10	1	-1E+10	1	-1E+10	1
4901784	117	C	09/17/2018	10:47	-132.313	42.812	0	307.30	0	6.7820	0	34.2040	8	26.825	0	304.640	0	128.6	4	43.4	4	-1E+10	1	-1E+10	1	-1E+10	1	-1E+10	1	-1E+10	1	-1E+10	1
4901784	117	C	09/17/2018	10:47	-132.313	42.812	0	310.00	0	6.7410	0	34.2050	8	26.832	0	307.315	0	127.3	4	42.9	4	-1E+10	1	-1E+10	1	-1E+10	1	-1E+10	1	-1E+10	1	-1E+10	1
4901784	117	C	09/17/2018	10:47	-132.313	42.812	0	312.50	0	6.6950	0	34.2030	8	26.836	0	309.792	0	126.1	4	42.4	4	-1E+10	1	-1E+10	1	-1E+10	1	-1E+10	1	-1E+10	1	-1E+10	1
4901784	117	C	09/17/2018	10:47	-132.313	42.812	0	315.10	0	6.6680	0	34.2010	8	26.838	0	312.367	0	124.6	4	41.9	4	-1E+10	1	-1E+10	1	-1E+10	1	-1E+10	1	-1E+10	1	-1E+10	1
4901784	117	C	09/17/2018	10:47	-132.313	42.812	0	317.70	0	6.5780	0	34.2020	8	26.851	0	314.943	0	123.1	4	41.3	4	-1E+10	1	-1E+10	1	-1E+10	1	-1E+10	1	-1E+10	1	-1E+10	1
4901784	117	C	09/17/2018	10:47	-132.313	42.812	0	320.30	0	6.5450	0	34.1990	8	26.853	0	317.518	0	121.6	4	40.8	4	-1E+10	1	-1E+10	1	-1E+10	1	-1E+10	1	-1E+10	1	-1E+10	1
4901784	117	C	09/17/2018	10:47	-132.313	42.812	0	322.90	0	6.4720	0	34.2000	8	26.864	0	320.093	0	120.3	4	40.2	4	-1E+10	1	-1E+10	1	-1E+10	1	-1E+10	1	-1E+10	1	-1E+10	1
4901784	117	C	09/17/2018	10:47	-132.313	42.812	0	324.60	0	6.4470	0	34.1990	8	26.866	0	321.777	0	119.5	4	40.0	4	-1E+10	1	-1E+10	1	-1E+10	1	-1E+10	1	-1E+10	1	-1E+10	1
4901784	117	C	09/17/2018	10:47	-132.313	42.812	0	327.20	0	6.4280	0	34.1960	8	26.866	0	324.353	0	118.4	4	39.6	4	-1E+10	1	-1E+10	1	-1E+10	1	-1E+10	1	-1E+10	1	-1E+10	1
4901784	117	C	09/17/2018	10:47	-132.313	42.812	0	329.70	0	6.4130	0	34.1970	8	26.869	0	326.829	0	116.7	4	39.0	4	-1E+10	1	-1E+10	1	-1E+10	1	-1E+10	1	-1E+10	1	-1E+10	1
4901784	117	C	09/17/2018	10:47	-132.313	42.812	0	332.30	0	6.3430	0	34.1950	8	26.877	0	329.404	0	114.4	4	38.2	4	-1E+10	1	-1E+10	1	-1E+10	1	-1E+10	1	-1E+10	1	-1E+10	1
4901784	117	C	09/17/2018	10:47	-132.313	42.812	0	334.90	0	6.2600	0	34.1930	8	26.886	0	331.979	0	112.3	4	37.4	4	-1E+10	1	-1E+10	1	-1E+10	1	-1E+10	1	-1E+10	1	-1E+10	1
4901784	117	C	09/17/2018	10:47	-132.313	42.812	0	337.50	0	6.2080	0	34.1920	8	26.892	0	334.555	0	110.7	4	36.8	4	-1E+10	1	-1E+10	1	-1E+10	1	-1E+10	1	-1E+10	1	-1E+10	1
4901784	117	C	09/17/2018	10:47	-132.313	42.812	0	340.10	0	6.1830	0	34.1910	8	26.894	0	337.130	0	108.8	4	36.2	4	-1E+10	1	-1E+10	1	-1E+10	1	-1E+10	1	-1E+10	1	-1E+10	1
4901784	117	C	09/17/2018	10:47	-132.313	42.812	0	342.80	0	6.1090	0	34.1920	8	26.904	0	339.804	0	106.9	4	35.5	4	-1E+10	1	-1E+10	1	-1E+10	1	-1E+10	1	-1E+10	1	-1E+10	1
4901784	117	C	09/17/2018	10:47	-132.313	42.812	0	345.40	0	6.0660	0	34.1910	8	26.909	0	342.379	0	105.3	4	34.9	4	-1E+10	1	-1E+10	1	-1E+10	1	-1E+10	1	-1E+10	1	-1E+10	1
4901784	117	C	09/17/2018	10:47	-132.313	42.812	0	347.30	0	6.0370	0	34.1910	8	26.913	0	344.261	0	104.3	4	34.6	4	-1E+10	1	-1E+10	1	-1E+10	1	-1E+10	1	-1E+10	1	-1E+10	1
4901784	117	C	09/17/2018	10:47	-132.313	42.812	0	350.10	0	5.9890	0	34.1940	8	26.921	0	347.034	0	102.7	4	34.0	4	-1E+10	1	-1E+10	1	-1E+10	1	-1E+10	1	-1E+10	1	-1E+10	1
4901784	117	C	09/17/2018	10:47	-132.313	42.812	0	352.80	0	5.9450	0	34.1930	8	26.926	0	349.708	0	101.7	4	33.6	4	-1E+10	1	-1E+10	1	-1E+10	1	-1E+10	1	-1E+10	1	-1E+10	1
4901784	117	C	09/17/2018	10:47	-132.313	42.812	0	354.50	0	5.9390	0	34.1920	8	26.926	0	351.392	0	101.1	4	33.4	4	-1E+10	1	-1E+10	1	-1E+10	1	-1E+10	1	-1E+10	1	-1E+10	1
4901784	117	C	09/17/2018	10:47	-132.313	42.812	0	356.90	0	5.9190	0	34.1920	8	26.928	0	353.769	0	100.0	4	33.0	4	-1E+10	1	-1E+10	1	-1E+10	1	-1E+10	1	-1E+10	1	-1E+10	1
4901784	117	C	09/17/2018	10:47	-132.313	42.812	0	359.60	0	5.8730	0	34.1930	8	26.935	0	356.443	0	98.7	4	32.6	4	-1E+10	1	-1E+10	1	-1E+10	1	-1E+10	1	-1E+10	1	-1E+10	1
4901784	117	C	09/17/2018	10:47	-132.313	42.812	0	362.70	0	5.8460	0	34.1930	8	26.938	0	359.513	0	97.1	4	32.0	4	-1E+10	1	-1E+10	1	-1E+10	1	-1E+10	1	-1E+10	1	-1E+10	1
4901784	117	C	09/17/2018	10:47	-132.313	42.812	0	365.20	0	5.8210	0	34.1930	8	26.941	0	361.989	0	95.8	4	31.6	4	-1E+10	1	-1E+10	1	-1E+10	1	-1E+10	1	-1E+10	1	-1E+10	1
4901784	117	C	09/17/2018	10:47	-132.313	42.812	0	367.60	0	5.7780	0	34.1950	8	26.948	0	364.366	0	94.4	4	31.1	4	-1E+10	1	-1E+10	1	-1E+10	1	-1E+10	1	-1E+10	1	-1E+10	1
4901784	117	C	09/17/2018	10:47	-132.313	42.812	0	370.00	0	5.7610	0	34.1950	8	26.950	0	366.742	0	93.1	4	30.7	4	-1E+10	1	-1E+10	1	-1E+10	1	-1E+10	1	-1E+10	1	-1E+10	1
4901784	117	C	09/17/2018	10:47	-132.313	42.812	0	372.50	0	5.7300	0	34.1960	8	26.955	0	369.218	0	91.6	4	30.1	4	-1E+10	1	-1E+10	1	-1E+10	1	-1E+10	1	-1E+10	1	-1E+10	1
4901784	117	C	09/17/2018	10:47	-132.313	42.812	0	374.90	0	5.7020	0	34.1970	8	26.959	0	371.595	0	90.1	4	29.6	4	-1E+10	1	-1E+10	1	-1E+10	1	-1E+10	1	-1E+10	1	-1E+10	1
4901784	117	C	09/17/2018	10:47	-132.313	42.812	0	377.40	0	5.6840	0	34.1970	8	26.961	0	374.071	0	88.8	4	29.2	4	-1E+10	1	-1E+10	1	-1E+10	1	-1E+10	1	-1E+10	1	-1E+10	1
4901784	117	C	09/17/2018	10:47	-132.313	42.812	0	379.90	0	5.6650	0	34.1970	8	26.964	0	376.546	0	87.2	4	28.6	4	-1E+10	1	-1E+10	1	-1E+10	1	-1E+10	1	-1E+10	1	-1E+10	1
4901784	117	C	09/17/2018	10:47	-132.313	42.812	0	382.30	0	5.6130	0	34.2000	8	26.973	0	378.923	0	85.8	4	28.1	4	-1E+10	1	-1E+10	1	-1E+10	1	-1E+10	1	-1E+10	1	-1E+10	1
4901784	117	C	09/17/2018	10:47	-132.313	42.812	0	384.80	0	5.5520	0	34.2040	8	26.983	0	381.398	0	84.3	4	27.6	4	-1E+10	1	-1E+10	1	-1E+10	1	-1E+10	1	-1E+10	1	-1E+10	1
4901784	117	C	09/17/2018	10:47	-132.313	42.812	0	387.30	0	5.5390	0	34.2050	8	26.985	0	383.874	0	83.7	4	27.4	4	-1E+10	1	-1E+10	1	-1E+10	1	-1E+10	1	-1E+10	1	-1E+10	1
4901784	117	C	09/17/2018	10:47	-132.313	42.812	0	389.80	0	5.5300	0	34.2040	8	26.986	0	386.350	0	83.3	4	27.3	4	-1E+10	1	-1E+10	1	-1E+10	1	-1E+10	1	-1E+10	1	-1E+10	1
4901784	117	C	09/17/2018	10:47	-132.313	42.812	0	392.40	0	5.5180	0	34.2040	8	26.987	0	388.924	0	83.0	4	27.2	4	-1E+10	1	-1E+10	1	-1E+10	1	-1E+10	1	-1E+10	1	-1E+10	1
4901784	117	C	09/17/2018	10:47	-132.313	42.812	0	395.00	0	5.4660	0	34.2040	8	26.993	0	391.499	0	83.2	4	27.2	4	-1E+10	1	-1E+10	1	-1E+10	1	-1E+10	1	-1E+10	1	-1E+10	1
4901784	117	C	09/17/2018	10:47	-132.313	42.812	0	397.50	0	5.4330	0	34.2020	8	26.996	0	393.974	0	82.2	4	26.9	4	-1E+10	1	-1E+10	1	-1E+10	1	-1E+10	1	-1E+10	1	-1E+10	1
4901784	117	C	09/17/2018	10:47	-132.313	42.812	0	400.10	0	5.3990	0	34.1990	8	26.998	0	396.549	0	81.0	4	26.4	4	-1E+10	1	-1E+10	1	-1E+10	1	-1E+10	1	-1E+10	1	-1E+10	1
4901784	117	C	09/17/2018	10:47	-132.313	42.812	0	402.70	0	5.3830	0	34.2040	8	27.003	0	399.123	0	80.0	4	26.1	4	-1E+10	1	-1E+10	1	-1E+10	1	-1E+10	1	-1E+10	1	-1E+10	1
4901784	117	C	09/17/2018	10:47	-132.313	42.812	0	405.30	0	5.3410	0	34.2030	8	27.008	0	401.697	0	79.1	4	25.8	4	-1E+10	1	-1E+10	1	-1E+10	1	-1E+10	1	-1E+10	1	-1E+10	1
4901784	117	C	09/17/2018	10:47	-132.313	42.812	0	407.00	0	5.3310	0	34.2060	8	27.011	0	403.381	0	77.9	4	25.4	4	-1E+10	1	-1E+10	1	-1E+10	1	-1E+10	1	-1E+10	1	-1E+10	1
4901784	117	C	09/17/2018	10:47	-132.313	42.812	0	409.70	0	5.3290	0	34.2090	8	27.014	0	406.054	0	76.6	4	25.0	4	-1E+10	1	-1E+10	1	-1E+10	1	-1E+10	1	-1E+10	1	-1E+10	1
4901784	117	C	09/17/2018	10:47	-132.313	42.812	0	412.30	0	5.3090	0	34.2080	8	27.015	0	408.628	0	75.8	4	24.7	4	-1E+10	1	-1E+10	1	-1E+10	1	-1E+10	1	-1E+10	1	-1E+10	1
4901784	117	C	09/17/2018	10:47	-132.313	42.812	0	414.90	0	5.2680	0	34.2110	8	27.023	0	411.203	0	75.0	4	24.4	4	-1E+10	1	-1E+10	1	-1E+10	1	-1E+10	1	-1E+10	1	-1E+10	1
4901784	117	C	09/17/2018	10:47	-132.313	42.812	0	417.60	0	5.2460	0	34.2120	8	27.026	0	413.876	0	74.3	4	24.2	4	-1E+10	1	-1E+10	1	-1E+10	1	-1E+10	1	-1E+10	1	-1E+10	1
4901784	117	C	09/17/2018	10:47	-132.313	42.812	0	420.20	0	5.2140	0	34.2130	8	27.031	0	416.450	0	73.7	4	24.0	4	-1E+10	1	-1E+10	1	-1E+10	1	-1E+10	1	-1E+10	1	-1E+10	1
4901784	117	C	09/17/2018	10:47	-132.313	42.812	0	422.90	0	5.2150	0	34.2180	8	27.034	0	419.123	0	72.6	4	23.6	4	-1E+10	1	-1E+10	1	-1E+10	1	-1E+10	1	-1E+10	1	-1E+10	1
4901784	117	C	09/17/2018	10:47	-132.313	42.812	0	424.70	0	5.2120	0	34.2160	8	27.033	0	420.905	0	72.7	4	23.6	4	-1E+10	1	-1E+10	1	-1E+10	1	-1E+10	1	-1E+10	1	-1E+10	1
4901784	117	C	09/17/2018	10:47	-132.313	42.812	0	427.40	0	5.1780	0	34.2170	8	27.038	0	423.578	0	73.2	4	23.8	4	-1E+10	1	-1E+10	1	-1E+10	1	-1E+10	1	-1E+10	1	-1E+10	1
4901784	117	C	09/17/2018	10:47	-132.313	42.812	0	430.20	0	5.1180	0	34.2150	8	27.043	0	426.350	0	73.7	4	23.9	4	-1E+10	1	-1E+10	1	-1E+10	1	-1E+10	1	-1E+10	1	-1E+10	1
4901784	117	C	09/17/2018	10:47	-132.313	42.812	0	432.90	0	5.0690	0	34.2170	8	27.051	0	429.024	0	73.9	4	24.0	4	-1E+10	1	-1E+10	1	-1E+10	1	-1E+10	1	-1E+10	1	-1E+10	1
4901784	117	C	09/17/2018	10:47	-132.313	42.812	0	435.50	0	5.0580	0	34.2150	8	27.050	0	431.598	0	73.7	4	23.9	4	-1E+10	1	-1E+10	1	-1E+10	1	-1E+10	1	-1E+10	1	-1E+10	1
4901784	117	C	09/17/2018	10:47	-132.313	42.812	0	437.40	0	5.0560	0	34.2150	8	27.051	0	433.479	0	73.2	4	23.7	4	-1E+10	1	-1E+10	1	-1E+10	1	-1E+10	1	-1E+10	1	-1E+10	1
4901784	117	C	09/17/2018	10:47	-132.313	42.812	0	440.10	0	5.0390	0	34.2160	8	27.053	0	436.151	0	72.2	4	23.4	4	-1E+10	1	-1E+10	1	-1E+10	1	-1E+10	1	-1E+10	1	-1E+10	1
4901784	117	C	09/17/2018	10:47	-132.313	42.812	0	442.90	0	5.0270	0	34.2180	8	27.056	0	438.923	0	71.3	4	23.1	4	-1E+10	1	-1E+10	1	-1E+10	1	-1E+10	1	-1E+10	1	-1E+10	1
4901784	117	C	09/17/2018	10:47	-132.313	42.812	0	444.70	0	5.0210	0	34.2180	8	27.057	0	440.705	0	71.0	4	23.0	4	-1E+10	1	-1E+10	1	-1E+10	1	-1E+10	1	-1E+10	1	-1E+10	1
4901784	117	C	09/17/2018	10:47	-132.313	42.812	0	447.50	0	4.9920	0	34.2210	8	27.063	0	443.477	0	70.5	4	22.8	4	-1E+10	1	-1E+10	1	-1E+10	1	-1E+10	1	-1E+10	1	-1E+10	1
4901784	117	C	09/17/2018	10:47	-132.313	42.812	0	450.30	0	4.9520	0	34.2210	8	27.067	0	446.249	0	70.3	4	22.7	4	-1E+10	1	-1E+10	1	-1E+10	1	-1E+10	1	-1E+10	1	-1E+10	1
4901784	117	C	09/17/2018	10:47	-132.313	42.812	0	452.10	0	4.9380	0	34.2230	8	27.070	0	448.031	0	70.2	4	22.7	4	-1E+10	1	-1E+10	1	-1E+10	1	-1E+10	1	-1E+10	1	-1E+10	1
4901784	117	C	09/17/2018	10:47	-132.313	42.812	0	454.90	0	4.9240	0	34.2240	8	27.073	0	450.803	0	70.5	4	22.8	4	-1E+10	1	-1E+10	1	-1E+10	1	-1E+10	1	-1E+10	1	-1E+10	1
4901784	117	C	09/17/2018	10:47	-132.313	42.812	0	457.70	0	4.9180	0	34.2240	8	27.074	0	453.574	0	70.8	4	22.9	4	-1E+10	1	-1E+10	1	-1E+10	1	-1E+10	1	-1E+10	1	-1E+10	1
4901784	117	C	09/17/2018	10:47	-132.313	42.812	0	459.50	0	4.9160	0	34.2250	8	27.075	0	455.356	0	71.2	4	23.0	4	-1E+10	1	-1E+10	1	-1E+10	1	-1E+10	1	-1E+10	1	-1E+10	1
4901784	117	C	09/17/2018	10:47	-132.313	42.812	0	462.30	0	4.9020	0	34.2260	8	27.077	0	458.128	0	71.2	4	23.0	4	-1E+10	1	-1E+10	1	-1E+10	1	-1E+10	1	-1E+10	1	-1E+10	1
4901784	117	C	09/17/2018	10:47	-132.313	42.812	0	465.00	0	4.8880	0	34.2290	8	27.081	0	460.800	0	71.4	4	23.0	4	-1E+10	1	-1E+10	1	-1E+10	1	-1E+10	1	-1E+10	1	-1E+10	1
4901784	117	C	09/17/2018	10:47	-132.313	42.812	0	466.90	0	4.8830	0	34.2290	8	27.082	0	462.681	0	71.6	4	23.1	4	-1E+10	1	-1E+10	1	-1E+10	1	-1E+10	1	-1E+10	1	-1E+10	1
4901784	117	C	09/17/2018	10:47	-132.313	42.812	0	469.70	0	4.8760	0	34.2290	8	27.082	0	465.453	0	71.5	4	23.1	4	-1E+10	1	-1E+10	1	-1E+10	1	-1E+10	1	-1E+10	1	-1E+10	1
4901784	117	C	09/17/2018	10:47	-132.313	42.812	0	472.50	0	4.8610	0	34.2310	8	27.086	0	468.224	0	71.3	4	23.0	4	-1E+10	1	-1E+10	1	-1E+10	1	-1E+10	1	-1E+10	1	-1E+10	1
4901784	117	C	09/17/2018	10:47	-132.313	42.812	0	475.30	0	4.8370	0	34.2340	8	27.091	0	470.996	0	70.4	4	22.7	4	-1E+10	1	-1E+10	1	-1E+10	1	-1E+10	1	-1E+10	1	-1E+10	1
4901784	117	C	09/17/2018	10:47	-132.313	42.812	0	478.10	0	4.8270	0	34.2350	8	27.093	0	473.767	0	69.2	4	22.3	4	-1E+10	1	-1E+10	1	-1E+10	1	-1E+10	1	-1E+10	1	-1E+10	1
4901784	117	C	09/17/2018	10:47	-132.313	42.812	0	480.00	0	4.8190	0	34.2360	8	27.094	0	475.648	0	68.2	4	22.0	4	-1E+10	1	-1E+10	1	-1E+10	1	-1E+10	1	-1E+10	1	-1E+10	1
4901784	117	C	09/17/2018	10:47	-132.313	42.812	0	481.90	0	4.8060	0	34.2380	8	27.097	0	477.528	0	67.3	4	21.7	4	-1E+10	1	-1E+10	1	-1E+10	1	-1E+10	1	-1E+10	1	-1E+10	1
4901784	117	C	09/17/2018	10:47	-132.313	42.812	0	484.70	0	4.7990	0	34.2380	8	27.098	0	480.300	0	65.8	4	21.2	4	-1E+10	1	-1E+10	1	-1E+10	1	-1E+10	1	-1E+10	1	-1E+10	1
4901784	117	C	09/17/2018	10:47	-132.313	42.812	0	487.60	0	4.7740	0	34.2430	8	27.105	0	483.170	0	64.6	4	20.8	4	-1E+10	1	-1E+10	1	-1E+10	1	-1E+10	1	-1E+10	1	-1E+10	1
4901784	117	C	09/17/2018	10:47	-132.313	42.812	0	489.60	0	4.7630	0	34.2460	8	27.109	0	485.150	0	64.7	4	20.8	4	-1E+10	1	-1E+10	1	-1E+10	1	-1E+10	1	-1E+10	1	-1E+10	1
4901784	117	C	09/17/2018	10:47	-132.313	42.812	0	492.50	0	4.7490	0	34.2480	8	27.112	0	488.020	0	64.6	4	20.8	4	-1E+10	1	-1E+10	1	-1E+10	1	-1E+10	1	-1E+10	1	-1E+10	1
4901784	117	C	09/17/2018	10:47	-132.313	42.812	0	495.40	0	4.7430	0	34.2490	8	27.113	0	490.890	0	63.6	4	20.5	4	-1E+10	1	-1E+10	1	-1E+10	1	-1E+10	1	-1E+10	1	-1E+10	1
4901784	117	C	09/17/2018	10:47	-132.313	42.812	0	497.40	0	4.7310	0	34.2520	8	27.117	0	492.869	0	62.8	4	20.2	4	-1E+10	1	-1E+10	1	-1E+10	1	-1E+10	1	-1E+10	1	-1E+10	1
4901784	117	C	09/17/2018	10:47	-132.313	42.812	0	499.30	0	4.7240	0	34.2530	8	27.119	0	494.750	0	62.0	4	19.9	4	-1E+10	1	-1E+10	1	-1E+10	1	-1E+10	1	-1E+10	1	-1E+10	1
4901784	117	C	09/17/2018	10:47	-132.313	42.812	0	505.30	0	4.6970	0	34.2590	8	27.126	0	500.688	0	58.2	4	18.7	4	-1E+10	1	-1E+10	1	-1E+10	1	-1E+10	1	-1E+10	1	-1E+10	1
4901784	117	C	09/17/2018	10:47	-132.313	42.812	0	509.60	0	4.6710	0	34.2650	8	27.134	0	504.944	0	55.8	4	17.9	4	-1E+10	1	-1E+10	1	-1E+10	1	-1E+10	1	-1E+10	1	-1E+10	1
4901784	117	C	09/17/2018	10:47	-132.313	42.812	0	514.50	0	4.6460	0	34.2720	8	27.142	0	509.793	0	54.3	4	17.4	4	-1E+10	1	-1E+10	1	-1E+10	1	-1E+10	1	-1E+10	1	-1E+10	1
4901784	117	C	09/17/2018	10:47	-132.313	42.812	0	519.40	0	4.6200	0	34.2790	8	27.151	0	514.642	0	52.3	4	16.8	4	-1E+10	1	-1E+10	1	-1E+10	1	-1E+10	1	-1E+10	1	-1E+10	1
4901784	117	C	09/17/2018	10:47	-132.313	42.812	0	524.30	0	4.6010	0	34.2840	8	27.157	0	519.491	0	50.4	4	16.2	4	-1E+10	1	-1E+10	1	-1E+10	1	-1E+10	1	-1E+10	1	-1E+10	1
4901784	117	C	09/17/2018	10:47	-132.313	42.812	0	529.30	0	4.5860	0	34.2890	8	27.163	0	524.439	0	48.7	4	15.6	4	-1E+10	1	-1E+10	1	-1E+10	1	-1E+10	1	-1E+10	1	-1E+10	1
4901784	117	C	09/17/2018	10:47	-132.313	42.812	0	534.30	0	4.5690	0	34.2940	8	27.169	0	529.386	0	46.7	4	15.0	4	-1E+10	1	-1E+10	1	-1E+10	1	-1E+10	1	-1E+10	1	-1E+10	1
4901784	117	C	09/17/2018	10:47	-132.313	42.812	0	539.30	0	4.5500	0	34.2990	8	27.175	0	534.334	0	45.0	4	14.4	4	-1E+10	1	-1E+10	1	-1E+10	1	-1E+10	1	-1E+10	1	-1E+10	1
4901784	117	C	09/17/2018	10:47	-132.313	42.812	0	544.30	0	4.5380	0	34.3030	8	27.179	0	539.281	0	43.4	4	13.9	4	-1E+10	1	-1E+10	1	-1E+10	1	-1E+10	1	-1E+10	1	-1E+10	1
4901784	117	C	09/17/2018	10:47	-132.313	42.812	0	549.30	0	4.5160	0	34.3090	8	27.186	0	544.229	0	41.9	4	13.4	4	-1E+10	1	-1E+10	1	-1E+10	1	-1E+10	1	-1E+10	1	-1E+10	1
4901784	117	C	09/17/2018	10:47	-132.313	42.812	0	554.30	0	4.5000	0	34.3130	8	27.191	0	549.176	0	40.7	4	13.0	4	-1E+10	1	-1E+10	1	-1E+10	1	-1E+10	1	-1E+10	1	-1E+10	1
4901784	117	C	09/17/2018	10:47	-132.313	42.812	0	559.30	0	4.4800	0	34.3180	8	27.197	0	554.123	0	39.1	4	12.5	4	-1E+10	1	-1E+10	1	-1E+10	1	-1E+10	1	-1E+10	1	-1E+10	1
4901784	117	C	09/17/2018	10:47	-132.313	42.812	0	564.20	0	4.4640	0	34.3240	8	27.204	0	558.971	0	37.9	4	12.1	4	-1E+10	1	-1E+10	1	-1E+10	1	-1E+10	1	-1E+10	1	-1E+10	1
4901784	117	C	09/17/2018	10:47	-132.313	42.812	0	570.00	0	4.4560	0	34.3290	8	27.209	0	564.710	0	36.5	4	11.7	4	-1E+10	1	-1E+10	1	-1E+10	1	-1E+10	1	-1E+10	1	-1E+10	1
4901784	117	C	09/17/2018	10:47	-132.313	42.812	0	575.80	0	4.4410	0	34.3340	8	27.215	0	570.448	0	35.1	4	11.2	4	-1E+10	1	-1E+10	1	-1E+10	1	-1E+10	1	-1E+10	1	-1E+10	1
4901784	117	C	09/17/2018	10:47	-132.313	42.812	0	580.70	0	4.4340	0	34.3410	8	27.221	0	575.296	0	33.6	4	10.7	4	-1E+10	1	-1E+10	1	-1E+10	1	-1E+10	1	-1E+10	1	-1E+10	1
4901784	117	C	09/17/2018	10:47	-132.313	42.812	0	585.60	0	4.4340	0	34.3470	8	27.226	0	580.143	0	32.3	4	10.3	4	-1E+10	1	-1E+10	1	-1E+10	1	-1E+10	1	-1E+10	1	-1E+10	1
4901784	117	C	09/17/2018	10:47	-132.313	42.812	0	590.60	0	4.4310	0	34.3520	8	27.230	0	585.089	0	31.5	4	10.0	4	-1E+10	1	-1E+10	1	-1E+10	1	-1E+10	1	-1E+10	1	-1E+10	1
4901784	117	C	09/17/2018	10:47	-132.313	42.812	0	595.60	0	4.4120	0	34.3570	8	27.236	0	590.036	0	30.7	4	9.8	4	-1E+10	1	-1E+10	1	-1E+10	1	-1E+10	1	-1E+10	1	-1E+10	1
4901784	117	C	09/17/2018	10:47	-132.313	42.812	0	600.60	0	4.3950	0	34.3610	8	27.241	0	594.982	0	29.8	4	9.5	4	-1E+10	1	-1E+10	1	-1E+10	1	-1E+10	1	-1E+10	1	-1E+10	1
4901784	117	C	09/17/2018	10:47	-132.313	42.812	0	605.60	0	4.3810	0	34.3640	8	27.245	0	599.928	0	28.9	4	9.2	4	-1E+10	1	-1E+10	1	-1E+10	1	-1E+10	1	-1E+10	1	-1E+10	1
4901784	117	C	09/17/2018	10:47	-132.313	42.812	0	610.60	0	4.3840	0	34.3680	8	27.248	0	604.874	0	27.5	4	8.8	4	-1E+10	1	-1E+10	1	-1E+10	1	-1E+10	1	-1E+10	1	-1E+10	1
4901784	117	C	09/17/2018	10:47	-132.313	42.812	0	615.70	0	4.3860	0	34.3770	8	27.255	0	609.919	0	26.2	4	8.4	4	-1E+10	1	-1E+10	1	-1E+10	1	-1E+10	1	-1E+10	1	-1E+10	1
4901784	117	C	09/17/2018	10:47	-132.313	42.812	0	620.00	0	4.3610	0	34.3800	8	27.260	0	614.172	0	24.7	4	7.9	4	-1E+10	1	-1E+10	1	-1E+10	1	-1E+10	1	-1E+10	1	-1E+10	1
4901784	117	C	09/17/2018	10:47	-132.313	42.812	0	625.00	0	4.3820	0	34.3950	8	27.270	0	619.117	0	23.1	4	7.4	4	-1E+10	1	-1E+10	1	-1E+10	1	-1E+10	1	-1E+10	1	-1E+10	1
4901784	117	C	09/17/2018	10:47	-132.313	42.812	0	630.00	0	4.3850	0	34.3980	8	27.272	0	624.063	0	22.5	4	7.2	4	-1E+10	1	-1E+10	1	-1E+10	1	-1E+10	1	-1E+10	1	-1E+10	1
4901784	117	C	09/17/2018	10:47	-132.313	42.812	0	635.00	0	4.3540	0	34.4020	8	27.278	0	629.008	0	22.1	4	7.0	4	-1E+10	1	-1E+10	1	-1E+10	1	-1E+10	1	-1E+10	1	-1E+10	1
4901784	117	C	09/17/2018	10:47	-132.313	42.812	0	640.80	0	4.3260	0	34.4070	8	27.285	0	634.745	0	21.2	4	6.8	4	-1E+10	1	-1E+10	1	-1E+10	1	-1E+10	1	-1E+10	1	-1E+10	1
4901784	117	C	09/17/2018	10:47	-132.313	42.812	0	645.00	0	4.2960	0	34.4130	8	27.293	0	638.898	0	20.7	4	6.6	4	-1E+10	1	-1E+10	1	-1E+10	1	-1E+10	1	-1E+10	1	-1E+10	1
4901784	117	C	09/17/2018	10:47	-132.313	42.812	0	649.20	0	4.2840	0	34.4150	8	27.296	0	643.052	0	20.4	4	6.5	4	-1E+10	1	-1E+10	1	-1E+10	1	-1E+10	1	-1E+10	1	-1E+10	1
4901784	117	C	09/17/2018	10:47	-132.313	42.812	0	654.20	0	4.2690	0	34.4200	8	27.302	0	647.997	0	20.0	4	6.4	4	-1E+10	1	-1E+10	1	-1E+10	1	-1E+10	1	-1E+10	1	-1E+10	1
4901784	117	C	09/17/2018	10:47	-132.313	42.812	0	659.30	0	4.2510	0	34.4210	8	27.305	0	653.041	0	19.8	4	6.3	4	-1E+10	1	-1E+10	1	-1E+10	1	-1E+10	1	-1E+10	1	-1E+10	1
4901784	117	C	09/17/2018	10:47	-132.313	42.812	0	664.30	0	4.2170	0	34.4250	8	27.311	0	657.985	0	19.4	4	6.2	4	-1E+10	1	-1E+10	1	-1E+10	1	-1E+10	1	-1E+10	1	-1E+10	1
4901784	117	C	09/17/2018	10:47	-132.313	42.812	0	669.40	0	4.1910	0	34.4290	8	27.317	0	663.029	0	19.0	4	6.1	4	-1E+10	1	-1E+10	1	-1E+10	1	-1E+10	1	-1E+10	1	-1E+10	1
4901784	117	C	09/17/2018	10:47	-132.313	42.812	0	674.60	0	4.1680	0	34.4330	8	27.323	0	668.171	0	18.8	4	6.0	4	-1E+10	1	-1E+10	1	-1E+10	1	-1E+10	1	-1E+10	1	-1E+10	1
4901784	117	C	09/17/2018	10:47	-132.313	42.812	0	679.80	0	4.1450	0	34.4350	8	27.327	0	673.313	0	18.5	4	5.9	4	-1E+10	1	-1E+10	1	-1E+10	1	-1E+10	1	-1E+10	1	-1E+10	1
4901784	117	C	09/17/2018	10:47	-132.313	42.812	0	685.00	0	4.1330	0	34.4400	8	27.332	0	678.455	0	18.1	4	5.7	4	-1E+10	1	-1E+10	1	-1E+10	1	-1E+10	1	-1E+10	1	-1E+10	1
4901784	117	C	09/17/2018	10:47	-132.313	42.812	0	690.20	0	4.1060	0	34.4440	8	27.338	0	683.597	0	17.7	4	5.6	4	-1E+10	1	-1E+10	1	-1E+10	1	-1E+10	1	-1E+10	1	-1E+10	1
4901784	117	C	09/17/2018	10:47	-132.313	42.812	0	695.50	0	4.0980	0	34.4480	8	27.342	0	688.837	0	17.3	4	5.5	4	-1E+10	1	-1E+10	1	-1E+10	1	-1E+10	1	-1E+10	1	-1E+10	1
4901784	117	C	09/17/2018	10:47	-132.313	42.812	0	699.90	0	4.0960	0	34.4510	8	27.345	0	693.188	0	16.8	4	5.3	4	-1E+10	1	-1E+10	1	-1E+10	1	-1E+10	1	-1E+10	1	-1E+10	1
4901784	117	C	09/17/2018	10:47	-132.313	42.812	0	704.30	0	4.0940	0	34.4560	8	27.349	0	697.538	0	16.5	4	5.2	4	-1E+10	1	-1E+10	1	-1E+10	1	-1E+10	1	-1E+10	1	-1E+10	1
4901784	117	C	09/17/2018	10:47	-132.313	42.812	0	709.40	0	4.0640	0	34.4610	8	27.356	0	702.581	0	16.1	4	5.1	4	-1E+10	1	-1E+10	1	-1E+10	1	-1E+10	1	-1E+10	1	-1E+10	1
4901784	117	C	09/17/2018	10:47	-132.313	42.812	0	714.70	0	4.0380	0	34.4670	8	27.364	0	707.821	0	15.8	4	5.0	4	-1E+10	1	-1E+10	1	-1E+10	1	-1E+10	1	-1E+10	1	-1E+10	1
4901784	117	C	09/17/2018	10:47	-132.313	42.812	0	720.10	0	4.0250	0	34.4720	8	27.369	0	713.160	0	15.4	4	4.9	4	-1E+10	1	-1E+10	1	-1E+10	1	-1E+10	1	-1E+10	1	-1E+10	1
4901784	117	C	09/17/2018	10:47	-132.313	42.812	0	725.60	0	4.0120	0	34.4780	8	27.375	0	718.597	0	14.9	4	4.7	4	-1E+10	1	-1E+10	1	-1E+10	1	-1E+10	1	-1E+10	1	-1E+10	1
4901784	117	C	09/17/2018	10:47	-132.313	42.812	0	730.20	0	4.0080	0	34.4810	8	27.378	0	723.145	0	14.7	4	4.6	4	-1E+10	1	-1E+10	1	-1E+10	1	-1E+10	1	-1E+10	1	-1E+10	1
4901784	117	C	09/17/2018	10:47	-132.313	42.812	0	734.80	0	4.0010	0	34.4850	8	27.382	0	727.692	0	14.5	4	4.6	4	-1E+10	1	-1E+10	1	-1E+10	1	-1E+10	1	-1E+10	1	-1E+10	1
4901784	117	C	09/17/2018	10:47	-132.313	42.812	0	739.40	0	3.9910	0	34.4870	8	27.385	0	732.240	0	14.3	4	4.5	4	-1E+10	1	-1E+10	1	-1E+10	1	-1E+10	1	-1E+10	1	-1E+10	1
4901784	117	C	09/17/2018	10:47	-132.313	42.812	0	744.10	0	3.9790	0	34.4900	8	27.388	0	736.886	0	14.1	4	4.4	4	-1E+10	1	-1E+10	1	-1E+10	1	-1E+10	1	-1E+10	1	-1E+10	1
4901784	117	C	09/17/2018	10:47	-132.313	42.812	0	750.10	0	3.9600	0	34.4980	8	27.397	0	742.817	0	13.7	4	4.3	4	-1E+10	1	-1E+10	1	-1E+10	1	-1E+10	1	-1E+10	1	-1E+10	1
4901784	117	C	09/17/2018	10:47	-132.313	42.812	0	755.70	0	3.9600	0	34.5010	8	27.399	0	748.353	0	13.5	4	4.3	4	-1E+10	1	-1E+10	1	-1E+10	1	-1E+10	1	-1E+10	1	-1E+10	1
4901784	117	C	09/17/2018	10:47	-132.313	42.812	0	760.70	0	3.9580	0	34.5010	8	27.399	0	753.295	0	13.4	4	4.2	4	-1E+10	1	-1E+10	1	-1E+10	1	-1E+10	1	-1E+10	1	-1E+10	1
4901784	117	C	09/17/2018	10:47	-132.313	42.812	0	765.70	0	3.9400	0	34.5070	8	27.406	0	758.237	0	13.2	4	4.2	4	-1E+10	1	-1E+10	1	-1E+10	1	-1E+10	1	-1E+10	1	-1E+10	1
4901784	117	C	09/17/2018	10:47	-132.313	42.812	0	770.60	0	3.9280	0	34.5100	8	27.410	0	763.081	0	13.0	4	4.1	4	-1E+10	1	-1E+10	1	-1E+10	1	-1E+10	1	-1E+10	1	-1E+10	1
4901784	117	C	09/17/2018	10:47	-132.313	42.812	0	775.60	0	3.9210	0	34.5120	8	27.412	0	768.023	0	12.9	4	4.1	4	-1E+10	1	-1E+10	1	-1E+10	1	-1E+10	1	-1E+10	1	-1E+10	1
4901784	117	C	09/17/2018	10:47	-132.313	42.812	0	780.50	0	3.9100	0	34.5150	8	27.416	0	772.866	0	12.6	4	4.0	4	-1E+10	1	-1E+10	1	-1E+10	1	-1E+10	1	-1E+10	1	-1E+10	1
4901784	117	C	09/17/2018	10:47	-132.313	42.812	0	785.40	0	3.8690	0	34.5220	8	27.425	0	777.709	0	12.5	4	3.9	4	-1E+10	1	-1E+10	1	-1E+10	1	-1E+10	1	-1E+10	1	-1E+10	1
4901784	117	C	09/17/2018	10:47	-132.313	42.812	0	790.50	0	3.8500	0	34.5260	8	27.430	0	782.749	0	12.4	4	3.9	4	-1E+10	1	-1E+10	1	-1E+10	1	-1E+10	1	-1E+10	1	-1E+10	1
4901784	117	C	09/17/2018	10:47	-132.313	42.812	0	795.60	0	3.8430	0	34.5280	8	27.433	0	787.789	0	12.2	4	3.9	4	-1E+10	1	-1E+10	1	-1E+10	1	-1E+10	1	-1E+10	1	-1E+10	1
4901784	117	C	09/17/2018	10:47	-132.313	42.812	0	800.70	0	3.8240	0	34.5320	8	27.438	0	792.830	0	12.0	4	3.8	4	-1E+10	1	-1E+10	1	-1E+10	1	-1E+10	1	-1E+10	1	-1E+10	1
4901784	117	C	09/17/2018	10:47	-132.313	42.812	0	805.00	0	3.8050	0	34.5370	8	27.444	0	797.079	0	11.9	4	3.7	4	-1E+10	1	-1E+10	1	-1E+10	1	-1E+10	1	-1E+10	1	-1E+10	1
4901784	117	C	09/17/2018	10:47	-132.313	42.812	0	809.40	0	3.7870	0	34.5410	8	27.449	0	801.428	0	11.7	4	3.7	4	-1E+10	1	-1E+10	1	-1E+10	1	-1E+10	1	-1E+10	1	-1E+10	1
4901784	117	C	09/17/2018	10:47	-132.313	42.812	0	814.70	0	3.7750	0	34.5460	8	27.454	0	806.665	0	11.6	4	3.6	4	-1E+10	1	-1E+10	1	-1E+10	1	-1E+10	1	-1E+10	1	-1E+10	1
4901784	117	C	09/17/2018	10:47	-132.313	42.812	0	819.90	0	3.7790	0	34.5490	8	27.456	0	811.804	0	11.3	4	3.6	4	-1E+10	1	-1E+10	1	-1E+10	1	-1E+10	1	-1E+10	1	-1E+10	1
4901784	117	C	09/17/2018	10:47	-132.313	42.812	0	825.20	0	3.7720	0	34.5580	8	27.464	0	817.041	0	11.1	4	3.5	4	-1E+10	1	-1E+10	1	-1E+10	1	-1E+10	1	-1E+10	1	-1E+10	1
4901784	117	C	09/17/2018	10:47	-132.313	42.812	0	830.60	0	3.7780	0	34.5640	8	27.468	0	822.377	0	10.9	4	3.4	4	-1E+10	1	-1E+10	1	-1E+10	1	-1E+10	1	-1E+10	1	-1E+10	1
4901784	117	C	09/17/2018	10:47	-132.313	42.812	0	835.10	0	3.7670	0	34.5670	8	27.472	0	826.824	0	10.9	4	3.4	4	-1E+10	1	-1E+10	1	-1E+10	1	-1E+10	1	-1E+10	1	-1E+10	1
4901784	117	C	09/17/2018	10:47	-132.313	42.812	0	839.60	0	3.7590	0	34.5680	8	27.473	0	831.270	0	10.8	4	3.4	4	-1E+10	1	-1E+10	1	-1E+10	1	-1E+10	1	-1E+10	1	-1E+10	1
4901784	117	C	09/17/2018	10:47	-132.313	42.812	0	845.20	0	3.7500	0	34.5710	8	27.477	0	836.803	0	10.7	4	3.4	4	-1E+10	1	-1E+10	1	-1E+10	1	-1E+10	1	-1E+10	1	-1E+10	1
4901784	117	C	09/17/2018	10:47	-132.313	42.812	0	850.60	0	3.7420	0	34.5780	8	27.483	0	842.139	0	10.6	4	3.3	4	-1E+10	1	-1E+10	1	-1E+10	1	-1E+10	1	-1E+10	1	-1E+10	1
4901784	117	C	09/17/2018	10:47	-132.313	42.812	0	855.20	0	3.7420	0	34.5800	8	27.485	0	846.684	0	10.5	4	3.3	4	-1E+10	1	-1E+10	1	-1E+10	1	-1E+10	1	-1E+10	1	-1E+10	1
4901784	117	C	09/17/2018	10:47	-132.313	42.812	0	860.00	0	3.7330	0	34.5850	8	27.490	0	851.426	0	10.5	4	3.3	4	-1E+10	1	-1E+10	1	-1E+10	1	-1E+10	1	-1E+10	1	-1E+10	1
4901784	117	C	09/17/2018	10:47	-132.313	42.812	0	864.60	0	3.7170	0	34.5900	8	27.495	0	855.971	0	10.4	4	3.3	4	-1E+10	1	-1E+10	1	-1E+10	1	-1E+10	1	-1E+10	1	-1E+10	1
4901784	117	C	09/17/2018	10:47	-132.313	42.812	0	869.20	0	3.7110	0	34.5910	8	27.497	0	860.515	0	10.4	4	3.3	4	-1E+10	1	-1E+10	1	-1E+10	1	-1E+10	1	-1E+10	1	-1E+10	1
4901784	117	C	09/17/2018	10:47	-132.313	42.812	0	874.50	0	3.7000	0	34.5910	8	27.498	0	865.752	0	10.4	4	3.3	4	-1E+10	1	-1E+10	1	-1E+10	1	-1E+10	1	-1E+10	1	-1E+10	1
4901784	117	C	09/17/2018	10:47	-132.313	42.812	0	879.40	0	3.7030	0	34.5940	8	27.500	0	870.592	0	10.4	4	3.3	4	-1E+10	1	-1E+10	1	-1E+10	1	-1E+10	1	-1E+10	1	-1E+10	1
4901784	117	C	09/17/2018	10:47	-132.313	42.812	0	884.30	0	3.7020	0	34.5960	8	27.502	0	875.433	0	10.4	4	3.3	4	-1E+10	1	-1E+10	1	-1E+10	1	-1E+10	1	-1E+10	1	-1E+10	1
4901784	117	C	09/17/2018	10:47	-132.313	42.812	0	890.00	0	3.6860	0	34.6000	8	27.507	0	881.064	0	10.4	4	3.3	4	-1E+10	1	-1E+10	1	-1E+10	1	-1E+10	1	-1E+10	1	-1E+10	1
4901784	117	C	09/17/2018	10:47	-132.313	42.812	0	895.70	0	3.6830	0	34.6000	8	27.507	0	886.695	0	10.4	4	3.3	4	-1E+10	1	-1E+10	1	-1E+10	1	-1E+10	1	-1E+10	1	-1E+10	1
4901784	117	C	09/17/2018	10:47	-132.313	42.812	0	900.70	0	3.6630	0	34.6030	8	27.511	0	891.634	0	10.4	4	3.3	4	-1E+10	1	-1E+10	1	-1E+10	1	-1E+10	1	-1E+10	1	-1E+10	1
4901784	117	C	09/17/2018	10:47	-132.313	42.812	0	905.70	0	3.6490	0	34.6070	8	27.516	0	896.573	0	10.4	4	3.3	4	-1E+10	1	-1E+10	1	-1E+10	1	-1E+10	1	-1E+10	1	-1E+10	1
4901784	117	C	09/17/2018	10:47	-132.313	42.812	0	910.70	0	3.6310	0	34.6110	8	27.521	0	901.511	0	10.4	4	3.3	4	-1E+10	1	-1E+10	1	-1E+10	1	-1E+10	1	-1E+10	1	-1E+10	1
4901784	117	C	09/17/2018	10:47	-132.313	42.812	0	915.00	0	3.6270	0	34.6140	8	27.524	0	905.759	0	10.4	4	3.3	4	-1E+10	1	-1E+10	1	-1E+10	1	-1E+10	1	-1E+10	1	-1E+10	1
4901784	117	C	09/17/2018	10:47	-132.313	42.812	0	919.30	0	3.6200	0	34.6150	8	27.525	0	910.006	0	10.4	4	3.3	4	-1E+10	1	-1E+10	1	-1E+10	1	-1E+10	1	-1E+10	1	-1E+10	1
4901784	117	C	09/17/2018	10:47	-132.313	42.812	0	924.50	0	3.6030	0	34.6180	8	27.529	0	915.142	0	10.5	4	3.3	4	-1E+10	1	-1E+10	1	-1E+10	1	-1E+10	1	-1E+10	1	-1E+10	1
4901784	117	C	09/17/2018	10:47	-132.313	42.812	0	929.80	0	3.5880	0	34.6210	8	27.533	0	920.377	0	10.5	4	3.3	4	-1E+10	1	-1E+10	1	-1E+10	1	-1E+10	1	-1E+10	1	-1E+10	1
4901784	117	C	09/17/2018	10:47	-132.313	42.812	0	935.10	0	3.5790	0	34.6230	8	27.536	0	925.611	0	10.5	4	3.3	4	-1E+10	1	-1E+10	1	-1E+10	1	-1E+10	1	-1E+10	1	-1E+10	1
4901784	117	C	09/17/2018	10:47	-132.313	42.812	0	940.40	0	3.5650	0	34.6250	8	27.539	0	930.846	0	10.6	4	3.3	4	-1E+10	1	-1E+10	1	-1E+10	1	-1E+10	1	-1E+10	1	-1E+10	1
4901784	117	C	09/17/2018	10:47	-132.313	42.812	0	945.70	0	3.5520	0	34.6280	8	27.542	0	936.080	0	10.6	4	3.3	4	-1E+10	1	-1E+10	1	-1E+10	1	-1E+10	1	-1E+10	1	-1E+10	1
4901784	117	C	09/17/2018	10:47	-132.313	42.812	0	950.10	0	3.5450	0	34.6300	8	27.545	0	940.425	0	10.6	4	3.3	4	-1E+10	1	-1E+10	1	-1E+10	1	-1E+10	1	-1E+10	1	-1E+10	1
4901784	117	C	09/17/2018	10:47	-132.313	42.812	0	954.40	0	3.5430	0	34.6300	8	27.545	0	944.672	0	10.7	4	3.3	4	-1E+10	1	-1E+10	1	-1E+10	1	-1E+10	1	-1E+10	1	-1E+10	1
4901784	117	C	09/17/2018	10:47	-132.313	42.812	0	959.80	0	3.5310	0	34.6320	8	27.548	0	950.005	0	10.7	4	3.4	4	-1E+10	1	-1E+10	1	-1E+10	1	-1E+10	1	-1E+10	1	-1E+10	1
4901784	117	C	09/17/2018	10:47	-132.313	42.812	0	965.30	0	3.5170	0	34.6340	8	27.551	0	955.436	0	10.7	4	3.4	4	-1E+10	1	-1E+10	1	-1E+10	1	-1E+10	1	-1E+10	1	-1E+10	1
4901784	117	C	09/17/2018	10:47	-132.313	42.812	0	969.90	0	3.5080	0	34.6350	8	27.552	0	959.978	0	10.8	4	3.4	4	-1E+10	1	-1E+10	1	-1E+10	1	-1E+10	1	-1E+10	1	-1E+10	1
4901784	117	C	09/17/2018	10:47	-132.313	42.812	0	974.50	0	3.4870	0	34.6380	8	27.557	0	964.521	0	10.8	4	3.4	4	-1E+10	1	-1E+10	1	-1E+10	1	-1E+10	1	-1E+10	1	-1E+10	1
4901784	117	C	09/17/2018	10:47	-132.313	42.812	0	980.10	0	3.4770	0	34.6410	8	27.560	0	970.050	0	10.9	4	3.4	4	-1E+10	1	-1E+10	1	-1E+10	1	-1E+10	1	-1E+10	1	-1E+10	1
4901784	117	C	09/17/2018	10:47	-132.313	42.812	0	984.70	0	3.4700	0	34.6440	8	27.563	0	974.593	0	11.1	4	3.5	4	-1E+10	1	-1E+10	1	-1E+10	1	-1E+10	1	-1E+10	1	-1E+10	1
4901784	117	C	09/17/2018	10:47	-132.313	42.812	0	989.50	0	3.4570	0	34.6460	8	27.566	0	979.332	0	11.1	4	3.5	4	-1E+10	1	-1E+10	1	-1E+10	1	-1E+10	1	-1E+10	1	-1E+10	1
4901784	117	C	09/17/2018	10:47	-132.313	42.812	0	995.10	0	3.4460	0	34.6490	8	27.570	0	984.861	0	11.2	4	3.5	4	-1E+10	1	-1E+10	1	-1E+10	1	-1E+10	1	-1E+10	1	-1E+10	1
4901784	117	C	09/17/2018	10:47	-132.313	42.812	0	999.80	0	3.4360	0	34.6520	8	27.573	0	989.502	0	11.3	4	3.5	4	-1E+10	1	-1E+10	1	-1E+10	1	-1E+10	1	-1E+10	1	-1E+10	1
4901784	117	C	09/17/2018	10:47	-132.313	42.812	0	1004.40	0	3.4270	0	34.6540	8	27.576	0	994.044	0	11.3	4	3.5	4	-1E+10	1	-1E+10	1	-1E+10	1	-1E+10	1	-1E+10	1	-1E+10	1
4901784	117	C	09/17/2018	10:47	-132.313	42.812	0	1009.90	0	3.4190	0	34.6560	8	27.578	0	999.474	0	11.4	4	3.6	4	-1E+10	1	-1E+10	1	-1E+10	1	-1E+10	1	-1E+10	1	-1E+10	1
4901784	117	C	09/17/2018	10:47	-132.313	42.812	0	1015.20	0	3.4150	0	34.6570	8	27.579	0	1004.706	0	11.4	4	3.6	4	-1E+10	1	-1E+10	1	-1E+10	1	-1E+10	1	-1E+10	1	-1E+10	1
4901784	117	C	09/17/2018	10:47	-132.313	42.812	0	1019.40	0	3.4120	0	34.6570	8	27.580	0	1008.853	0	11.5	4	3.6	4	-1E+10	1	-1E+10	1	-1E+10	1	-1E+10	1	-1E+10	1	-1E+10	1
4901784	117	C	09/17/2018	10:47	-132.313	42.812	0	1025.00	0	3.4030	0	34.6600	8	27.583	0	1014.381	0	11.6	4	3.6	4	-1E+10	1	-1E+10	1	-1E+10	1	-1E+10	1	-1E+10	1	-1E+10	1
4901784	117	C	09/17/2018	10:47	-132.313	42.812	0	1030.70	0	3.3890	0	34.6630	8	27.587	0	1020.009	0	11.8	4	3.7	4	-1E+10	1	-1E+10	1	-1E+10	1	-1E+10	1	-1E+10	1	-1E+10	1
4901784	117	C	09/17/2018	10:47	-132.313	42.812	0	1035.50	0	3.3750	0	34.6650	8	27.590	0	1024.747	0	11.9	4	3.7	4	-1E+10	1	-1E+10	1	-1E+10	1	-1E+10	1	-1E+10	1	-1E+10	1
4901784	117	C	09/17/2018	10:47	-132.313	42.812	0	1040.30	0	3.3690	0	34.6660	8	27.591	0	1029.485	0	11.9	4	3.7	4	-1E+10	1	-1E+10	1	-1E+10	1	-1E+10	1	-1E+10	1	-1E+10	1
4901784	117	C	09/17/2018	10:47	-132.313	42.812	0	1045.20	0	3.3500	0	34.6690	8	27.595	0	1034.322	0	12.0	4	3.7	4	-1E+10	1	-1E+10	1	-1E+10	1	-1E+10	1	-1E+10	1	-1E+10	1
4901784	117	C	09/17/2018	10:47	-132.313	42.812	0	1050.20	0	3.3420	0	34.6700	8	27.597	0	1039.258	0	12.1	4	3.8	4	-1E+10	1	-1E+10	1	-1E+10	1	-1E+10	1	-1E+10	1	-1E+10	1
4901784	117	C	09/17/2018	10:47	-132.313	42.812	0	1055.20	0	3.3330	0	34.6730	8	27.600	0	1044.193	0	12.3	4	3.8	4	-1E+10	1	-1E+10	1	-1E+10	1	-1E+10	1	-1E+10	1	-1E+10	1
4901784	117	C	09/17/2018	10:47	-132.313	42.812	0	1060.30	0	3.3270	0	34.6740	8	27.601	0	1049.228	0	12.3	4	3.8	4	-1E+10	1	-1E+10	1	-1E+10	1	-1E+10	1	-1E+10	1	-1E+10	1
4901784	117	C	09/17/2018	10:47	-132.313	42.812	0	1065.40	0	3.3190	0	34.6750	8	27.603	0	1054.261	0	12.4	4	3.9	4	-1E+10	1	-1E+10	1	-1E+10	1	-1E+10	1	-1E+10	1	-1E+10	1
4901784	117	C	09/17/2018	10:47	-132.313	42.812	0	1070.40	0	3.3100	0	34.6770	8	27.606	0	1059.197	0	12.5	4	3.9	4	-1E+10	1	-1E+10	1	-1E+10	1	-1E+10	1	-1E+10	1	-1E+10	1
4901784	117	C	09/17/2018	10:47	-132.313	42.812	0	1075.50	0	3.3000	0	34.6790	8	27.608	0	1064.230	0	12.6	4	3.9	4	-1E+10	1	-1E+10	1	-1E+10	1	-1E+10	1	-1E+10	1	-1E+10	1
4901784	117	C	09/17/2018	10:47	-132.313	42.812	0	1080.50	0	3.2930	0	34.6800	8	27.610	0	1069.165	0	12.7	4	4.0	4	-1E+10	1	-1E+10	1	-1E+10	1	-1E+10	1	-1E+10	1	-1E+10	1
4901784	117	C	09/17/2018	10:47	-132.313	42.812	0	1085.60	0	3.2810	0	34.6830	8	27.613	0	1074.199	0	12.9	4	4.0	4	-1E+10	1	-1E+10	1	-1E+10	1	-1E+10	1	-1E+10	1	-1E+10	1
4901784	117	C	09/17/2018	10:47	-132.313	42.812	0	1090.30	0	3.2770	0	34.6840	8	27.614	0	1078.837	0	12.9	4	4.0	4	-1E+10	1	-1E+10	1	-1E+10	1	-1E+10	1	-1E+10	1	-1E+10	1
4901784	117	C	09/17/2018	10:47	-132.313	42.812	0	1095.10	0	3.2720	0	34.6850	8	27.616	0	1083.574	0	13.0	4	4.1	4	-1E+10	1	-1E+10	1	-1E+10	1	-1E+10	1	-1E+10	1	-1E+10	1
4901784	117	C	09/17/2018	10:47	-132.313	42.812	0	1099.80	0	3.2670	0	34.6860	8	27.617	0	1088.213	0	13.1	4	4.1	4	-1E+10	1	-1E+10	1	-1E+10	1	-1E+10	1	-1E+10	1	-1E+10	1
4901784	117	C	09/17/2018	10:47	-132.313	42.812	0	1104.60	0	3.2620	0	34.6870	8	27.618	0	1092.950	0	13.2	4	4.1	4	-1E+10	1	-1E+10	1	-1E+10	1	-1E+10	1	-1E+10	1	-1E+10	1
4901784	117	C	09/17/2018	10:47	-132.313	42.812	0	1110.30	0	3.2540	0	34.6880	8	27.620	0	1098.575	0	13.3	4	4.1	4	-1E+10	1	-1E+10	1	-1E+10	1	-1E+10	1	-1E+10	1	-1E+10	1
4901784	117	C	09/17/2018	10:47	-132.313	42.812	0	1115.00	0	3.2460	0	34.6890	8	27.621	0	1103.213	0	13.4	4	4.2	4	-1E+10	1	-1E+10	1	-1E+10	1	-1E+10	1	-1E+10	1	-1E+10	1
4901784	117	C	09/17/2018	10:47	-132.313	42.812	0	1119.80	0	3.2340	0	34.6910	8	27.624	0	1107.949	0	13.5	4	4.2	4	-1E+10	1	-1E+10	1	-1E+10	1	-1E+10	1	-1E+10	1	-1E+10	1
4901784	117	C	09/17/2018	10:47	-132.313	42.812	0	1125.50	0	3.2150	0	34.6930	8	27.628	0	1113.574	0	13.6	4	4.2	4	-1E+10	1	-1E+10	1	-1E+10	1	-1E+10	1	-1E+10	1	-1E+10	1
4901784	117	C	09/17/2018	10:47	-132.313	42.812	0	1130.20	0	3.2050	0	34.6940	8	27.629	0	1118.211	0	13.8	4	4.3	4	-1E+10	1	-1E+10	1	-1E+10	1	-1E+10	1	-1E+10	1	-1E+10	1
4901784	117	C	09/17/2018	10:47	-132.313	42.812	0	1135.00	0	3.1970	0	34.6950	8	27.631	0	1122.948	0	13.8	4	4.3	4	-1E+10	1	-1E+10	1	-1E+10	1	-1E+10	1	-1E+10	1	-1E+10	1
4901784	117	C	09/17/2018	10:47	-132.313	42.812	0	1139.70	0	3.1900	0	34.6960	8	27.632	0	1127.585	0	14.0	4	4.3	4	-1E+10	1	-1E+10	1	-1E+10	1	-1E+10	1	-1E+10	1	-1E+10	1
4901784	117	C	09/17/2018	10:47	-132.313	42.812	0	1144.40	0	3.1720	0	34.6980	8	27.636	0	1132.223	0	14.1	4	4.4	4	-1E+10	1	-1E+10	1	-1E+10	1	-1E+10	1	-1E+10	1	-1E+10	1
4901784	117	C	09/17/2018	10:47	-132.313	42.812	0	1150.10	0	3.1570	0	34.7000	8	27.639	0	1137.846	0	14.2	4	4.4	4	-1E+10	1	-1E+10	1	-1E+10	1	-1E+10	1	-1E+10	1	-1E+10	1
4901784	117	C	09/17/2018	10:47	-132.313	42.812	0	1154.90	0	3.1510	0	34.7010	8	27.640	0	1142.582	0	14.3	4	4.4	4	-1E+10	1	-1E+10	1	-1E+10	1	-1E+10	1	-1E+10	1	-1E+10	1
4901784	117	C	09/17/2018	10:47	-132.313	42.812	0	1159.60	0	3.1380	0	34.7010	8	27.641	0	1147.219	0	14.3	4	4.4	4	-1E+10	1	-1E+10	1	-1E+10	1	-1E+10	1	-1E+10	1	-1E+10	1
4901784	117	C	09/17/2018	10:47	-132.313	42.812	0	1165.30	0	3.1170	0	34.7030	8	27.645	0	1152.843	0	14.5	4	4.5	4	-1E+10	1	-1E+10	1	-1E+10	1	-1E+10	1	-1E+10	1	-1E+10	1
4901784	117	C	09/17/2018	10:47	-132.313	42.812	0	1170.00	0	3.1070	0	34.7040	8	27.647	0	1157.480	0	14.7	4	4.6	4	-1E+10	1	-1E+10	1	-1E+10	1	-1E+10	1	-1E+10	1	-1E+10	1
4901784	117	C	09/17/2018	10:47	-132.313	42.812	0	1174.70	0	3.0950	0	34.7050	8	27.649	0	1162.116	0	14.8	4	4.6	4	-1E+10	1	-1E+10	1	-1E+10	1	-1E+10	1	-1E+10	1	-1E+10	1
4901784	117	C	09/17/2018	10:47	-132.313	42.812	0	1180.20	0	3.0900	0	34.7060	8	27.650	0	1167.542	0	14.9	4	4.6	4	-1E+10	1	-1E+10	1	-1E+10	1	-1E+10	1	-1E+10	1	-1E+10	1
4901784	117	C	09/17/2018	10:47	-132.313	42.812	0	1184.80	0	3.0850	0	34.7080	8	27.652	0	1172.080	0	15.1	4	4.7	4	-1E+10	1	-1E+10	1	-1E+10	1	-1E+10	1	-1E+10	1	-1E+10	1
4901784	117	C	09/17/2018	10:47	-132.313	42.812	0	1189.40	0	3.0760	0	34.7090	8	27.654	0	1176.618	0	15.3	4	4.7	4	-1E+10	1	-1E+10	1	-1E+10	1	-1E+10	1	-1E+10	1	-1E+10	1
4901784	117	C	09/17/2018	10:47	-132.313	42.812	0	1195.00	0	3.0540	0	34.7120	8	27.658	0	1182.142	0	15.5	4	4.8	4	-1E+10	1	-1E+10	1	-1E+10	1	-1E+10	1	-1E+10	1	-1E+10	1
4901784	117	C	09/17/2018	10:47	-132.313	42.812	0	1199.70	0	3.0420	0	34.7140	8	27.661	0	1186.778	0	15.6	4	4.8	4	-1E+10	1	-1E+10	1	-1E+10	1	-1E+10	1	-1E+10	1	-1E+10	1
4901784	117	C	09/17/2018	10:47	-132.313	42.812	0	1204.40	0	3.0360	0	34.7140	8	27.661	0	1191.414	0	15.7	4	4.9	4	-1E+10	1	-1E+10	1	-1E+10	1	-1E+10	1	-1E+10	1	-1E+10	1
4901784	117	C	09/17/2018	10:47	-132.313	42.812	0	1210.00	0	3.0180	0	34.7160	8	27.665	0	1196.938	0	15.9	4	4.9	4	-1E+10	1	-1E+10	1	-1E+10	1	-1E+10	1	-1E+10	1	-1E+10	1
4901784	117	C	09/17/2018	10:47	-132.313	42.812	0	1214.80	0	3.0060	0	34.7180	8	27.667	0	1201.672	0	16.0	4	5.0	4	-1E+10	1	-1E+10	1	-1E+10	1	-1E+10	1	-1E+10	1	-1E+10	1
4901784	117	C	09/17/2018	10:47	-132.313	42.812	0	1219.50	0	2.9970	0	34.7180	8	27.668	0	1206.308	0	16.2	4	5.0	4	-1E+10	1	-1E+10	1	-1E+10	1	-1E+10	1	-1E+10	1	-1E+10	1
4901784	117	C	09/17/2018	10:47	-132.313	42.812	0	1225.10	0	2.9720	0	34.7200	8	27.672	0	1211.831	0	16.4	4	5.1	4	-1E+10	1	-1E+10	1	-1E+10	1	-1E+10	1	-1E+10	1	-1E+10	1
4901784	117	C	09/17/2018	10:47	-132.313	42.812	0	1230.50	0	2.9540	0	34.7220	8	27.675	0	1217.157	0	16.6	4	5.1	4	-1E+10	1	-1E+10	1	-1E+10	1	-1E+10	1	-1E+10	1	-1E+10	1
4901784	117	C	09/17/2018	10:47	-132.313	42.812	0	1235.60	0	2.9440	0	34.7240	8	27.678	0	1222.187	0	16.8	4	5.2	4	-1E+10	1	-1E+10	1	-1E+10	1	-1E+10	1	-1E+10	1	-1E+10	1
4901784	117	C	09/17/2018	10:47	-132.313	42.812	0	1240.00	0	2.9340	0	34.7250	8	27.680	0	1226.527	0	17.0	4	5.2	4	-1E+10	1	-1E+10	1	-1E+10	1	-1E+10	1	-1E+10	1	-1E+10	1
4901784	117	C	09/17/2018	10:47	-132.313	42.812	0	1244.30	0	2.9230	0	34.7260	8	27.681	0	1230.767	0	17.2	4	5.3	4	-1E+10	1	-1E+10	1	-1E+10	1	-1E+10	1	-1E+10	1	-1E+10	1
4901784	117	C	09/17/2018	10:47	-132.313	42.812	0	1249.60	0	2.9050	0	34.7280	8	27.685	0	1235.994	0	17.5	4	5.4	4	-1E+10	1	-1E+10	1	-1E+10	1	-1E+10	1	-1E+10	1	-1E+10	1
4901784	117	C	09/17/2018	10:47	-132.313	42.812	0	1254.80	0	2.8870	0	34.7310	8	27.689	0	1241.122	0	17.8	4	5.5	4	-1E+10	1	-1E+10	1	-1E+10	1	-1E+10	1	-1E+10	1	-1E+10	1
4901784	117	C	09/17/2018	10:47	-132.313	42.812	0	1260.00	0	2.8790	0	34.7310	8	27.689	0	1246.250	0	18.0	4	5.6	4	-1E+10	1	-1E+10	1	-1E+10	1	-1E+10	1	-1E+10	1	-1E+10	1
4901784	117	C	09/17/2018	10:47	-132.313	42.812	0	1265.30	0	2.8620	0	34.7340	8	27.693	0	1251.477	0	18.4	4	5.7	4	-1E+10	1	-1E+10	1	-1E+10	1	-1E+10	1	-1E+10	1	-1E+10	1
4901784	117	C	09/17/2018	10:47	-132.313	42.812	0	1270.60	0	2.8470	0	34.7360	8	27.696	0	1256.703	0	19.0	4	5.8	4	-1E+10	1	-1E+10	1	-1E+10	1	-1E+10	1	-1E+10	1	-1E+10	1
4901784	117	C	09/17/2018	10:47	-132.313	42.812	0	1275.00	0	2.8410	0	34.7390	8	27.699	0	1261.041	0	19.5	4	6.0	4	-1E+10	1	-1E+10	1	-1E+10	1	-1E+10	1	-1E+10	1	-1E+10	1
4901784	117	C	09/17/2018	10:47	-132.313	42.812	0	1279.50	0	2.8420	0	34.7420	8	27.702	0	1265.479	0	19.9	4	6.1	4	-1E+10	1	-1E+10	1	-1E+10	1	-1E+10	1	-1E+10	1	-1E+10	1
4901784	117	C	09/17/2018	10:47	-132.313	42.812	0	1285.20	0	2.8320	0	34.7440	8	27.704	0	1271.099	0	20.1	4	6.2	4	-1E+10	1	-1E+10	1	-1E+10	1	-1E+10	1	-1E+10	1	-1E+10	1
4901784	117	C	09/17/2018	10:47	-132.313	42.812	0	1290.20	0	2.8130	0	34.7450	8	27.707	0	1276.029	0	20.2	4	6.2	4	-1E+10	1	-1E+10	1	-1E+10	1	-1E+10	1	-1E+10	1	-1E+10	1
4901784	117	C	09/17/2018	10:47	-132.313	42.812	0	1294.90	0	2.8070	0	34.7450	8	27.707	0	1280.663	0	20.3	4	6.3	4	-1E+10	1	-1E+10	1	-1E+10	1	-1E+10	1	-1E+10	1	-1E+10	1
4901784	117	C	09/17/2018	10:47	-132.313	42.812	0	1299.60	0	2.8000	0	34.7460	8	27.709	0	1285.297	0	20.6	4	6.3	4	-1E+10	1	-1E+10	1	-1E+10	1	-1E+10	1	-1E+10	1	-1E+10	1
4901784	117	C	09/17/2018	10:47	-132.313	42.812	0	1304.50	0	2.7950	0	34.7480	8	27.711	0	1290.128	0	20.9	4	6.4	4	-1E+10	1	-1E+10	1	-1E+10	1	-1E+10	1	-1E+10	1	-1E+10	1
4901784	117	C	09/17/2018	10:47	-132.313	42.812	0	1309.30	0	2.7910	0	34.7500	8	27.713	0	1294.861	0	21.3	4	6.5	4	-1E+10	1	-1E+10	1	-1E+10	1	-1E+10	1	-1E+10	1	-1E+10	1
4901784	117	C	09/17/2018	10:47	-132.313	42.812	0	1315.00	0	2.7840	0	34.7510	8	27.714	0	1300.480	0	21.6	4	6.7	4	-1E+10	1	-1E+10	1	-1E+10	1	-1E+10	1	-1E+10	1	-1E+10	1
4901784	117	C	09/17/2018	10:47	-132.313	42.812	0	1320.00	0	2.7780	0	34.7520	8	27.715	0	1305.409	0	22.0	4	6.8	4	-1E+10	1	-1E+10	1	-1E+10	1	-1E+10	1	-1E+10	1	-1E+10	1
4901784	117	C	09/17/2018	10:47	-132.313	42.812	0	1324.20	0	2.7650	0	34.7550	8	27.719	0	1309.550	0	22.3	4	6.9	4	-1E+10	1	-1E+10	1	-1E+10	1	-1E+10	1	-1E+10	1	-1E+10	1
4901784	117	C	09/17/2018	10:47	-132.313	42.812	0	1329.30	0	2.7570	0	34.7550	8	27.720	0	1314.578	0	22.5	4	6.9	4	-1E+10	1	-1E+10	1	-1E+10	1	-1E+10	1	-1E+10	1	-1E+10	1
4901784	117	C	09/17/2018	10:47	-132.313	42.812	0	1334.30	0	2.7520	0	34.7560	8	27.721	0	1319.507	0	22.6	4	7.0	4	-1E+10	1	-1E+10	1	-1E+10	1	-1E+10	1	-1E+10	1	-1E+10	1
4901784	117	C	09/17/2018	10:47	-132.313	42.812	0	1339.30	0	2.7410	0	34.7570	8	27.723	0	1324.436	0	22.7	4	7.0	4	-1E+10	1	-1E+10	1	-1E+10	1	-1E+10	1	-1E+10	1	-1E+10	1
4901784	117	C	09/17/2018	10:47	-132.313	42.812	0	1344.40	0	2.7270	0	34.7570	8	27.724	0	1329.463	0	22.9	4	7.0	4	-1E+10	1	-1E+10	1	-1E+10	1	-1E+10	1	-1E+10	1	-1E+10	1
4901784	117	C	09/17/2018	10:47	-132.313	42.812	0	1349.50	0	2.7160	0	34.7580	8	27.726	0	1334.490	0	23.2	4	7.1	4	-1E+10	1	-1E+10	1	-1E+10	1	-1E+10	1	-1E+10	1	-1E+10	1
4901784	117	C	09/17/2018	10:47	-132.313	42.812	0	1354.70	0	2.7050	0	34.7600	8	27.728	0	1339.616	0	23.6	4	7.2	4	-1E+10	1	-1E+10	1	-1E+10	1	-1E+10	1	-1E+10	1	-1E+10	1
4901784	117	C	09/17/2018	10:47	-132.313	42.812	0	1359.80	0	2.6950	0	34.7620	8	27.731	0	1344.643	0	24.1	4	7.4	4	-1E+10	1	-1E+10	1	-1E+10	1	-1E+10	1	-1E+10	1	-1E+10	1
4901784	117	C	09/17/2018	10:47	-132.313	42.812	0	1365.00	0	2.6920	0	34.7640	8	27.733	0	1349.768	0	24.4	4	7.5	4	-1E+10	1	-1E+10	1	-1E+10	1	-1E+10	1	-1E+10	1	-1E+10	1
4901784	117	C	09/17/2018	10:47	-132.313	42.812	0	1370.30	0	2.6830	0	34.7640	8	27.734	0	1354.992	0	24.6	4	7.5	4	-1E+10	1	-1E+10	1	-1E+10	1	-1E+10	1	-1E+10	1	-1E+10	1
4901784	117	C	09/17/2018	10:47	-132.313	42.812	0	1375.60	0	2.6760	0	34.7650	8	27.735	0	1360.216	0	25.0	4	7.7	4	-1E+10	1	-1E+10	1	-1E+10	1	-1E+10	1	-1E+10	1	-1E+10	1
4901784	117	C	09/17/2018	10:47	-132.313	42.812	0	1380.10	0	2.6670	0	34.7680	8	27.738	0	1364.651	0	25.2	4	7.7	4	-1E+10	1	-1E+10	1	-1E+10	1	-1E+10	1	-1E+10	1	-1E+10	1
4901784	117	C	09/17/2018	10:47	-132.313	42.812	0	1384.70	0	2.6570	0	34.7680	8	27.739	0	1369.184	0	25.3	4	7.8	4	-1E+10	1	-1E+10	1	-1E+10	1	-1E+10	1	-1E+10	1	-1E+10	1
4901784	117	C	09/17/2018	10:47	-132.313	42.812	0	1390.10	0	2.6470	0	34.7680	8	27.740	0	1374.506	0	25.3	4	7.8	4	-1E+10	1	-1E+10	1	-1E+10	1	-1E+10	1	-1E+10	1	-1E+10	1
4901784	117	C	09/17/2018	10:47	-132.313	42.812	0	1394.70	0	2.6330	0	34.7680	8	27.741	0	1379.040	0	25.2	4	7.7	4	-1E+10	1	-1E+10	1	-1E+10	1	-1E+10	1	-1E+10	1	-1E+10	1
4901784	117	C	09/17/2018	10:47	-132.313	42.812	0	1399.10	0	2.6220	0	34.7680	8	27.742	0	1383.376	0	25.3	4	7.8	4	-1E+10	1	-1E+10	1	-1E+10	1	-1E+10	1	-1E+10	1	-1E+10	1
4901784	117	C	09/17/2018	10:47	-132.313	42.812	0	1404.50	0	2.6080	0	34.7690	8	27.744	0	1388.697	0	25.5	4	7.8	4	-1E+10	1	-1E+10	1	-1E+10	1	-1E+10	1	-1E+10	1	-1E+10	1
4901784	117	C	09/17/2018	10:47	-132.313	42.812	0	1409.40	0	2.6000	0	34.7700	8	27.746	0	1393.526	0	25.8	4	7.9	4	-1E+10	1	-1E+10	1	-1E+10	1	-1E+10	1	-1E+10	1	-1E+10	1
4901784	117	C	09/17/2018	10:47	-132.313	42.812	0	1414.30	0	2.5930	0	34.7710	8	27.747	0	1398.355	0	26.1	4	8.0	4	-1E+10	1	-1E+10	1	-1E+10	1	-1E+10	1	-1E+10	1	-1E+10	1
4901784	117	C	09/17/2018	10:47	-132.313	42.812	0	1420.00	0	2.5830	0	34.7720	8	27.749	0	1403.971	0	26.7	4	8.2	4	-1E+10	1	-1E+10	1	-1E+10	1	-1E+10	1	-1E+10	1	-1E+10	1
4901784	117	C	09/17/2018	10:47	-132.313	42.812	0	1425.80	0	2.5790	0	34.7750	8	27.752	0	1409.687	0	27.2	4	8.3	4	-1E+10	1	-1E+10	1	-1E+10	1	-1E+10	1	-1E+10	1	-1E+10	1
4901784	117	C	09/17/2018	10:47	-132.313	42.812	0	1430.00	0	2.5770	0	34.7760	8	27.753	0	1413.825	0	27.4	4	8.4	4	-1E+10	1	-1E+10	1	-1E+10	1	-1E+10	1	-1E+10	1	-1E+10	1
4901784	117	C	09/17/2018	10:47	-132.313	42.812	0	1434.20	0	2.5730	0	34.7760	8	27.753	0	1417.963	0	27.7	4	8.5	4	-1E+10	1	-1E+10	1	-1E+10	1	-1E+10	1	-1E+10	1	-1E+10	1
4901784	117	C	09/17/2018	10:47	-132.313	42.812	0	1439.30	0	2.5620	0	34.7770	8	27.755	0	1422.989	0	27.9	4	8.5	4	-1E+10	1	-1E+10	1	-1E+10	1	-1E+10	1	-1E+10	1	-1E+10	1
4901784	117	C	09/17/2018	10:47	-132.313	42.812	0	1444.50	0	2.5510	0	34.7780	8	27.757	0	1428.112	0	27.9	4	8.5	4	-1E+10	1	-1E+10	1	-1E+10	1	-1E+10	1	-1E+10	1	-1E+10	1
4901784	117	C	09/17/2018	10:47	-132.313	42.812	0	1449.70	0	2.5410	0	34.7780	8	27.757	0	1433.235	0	28.0	4	8.6	4	-1E+10	1	-1E+10	1	-1E+10	1	-1E+10	1	-1E+10	1	-1E+10	1
4901784	117	C	09/17/2018	10:47	-132.313	42.812	0	1455.00	0	2.5390	0	34.7790	8	27.758	0	1438.457	0	28.5	4	8.7	4	-1E+10	1	-1E+10	1	-1E+10	1	-1E+10	1	-1E+10	1	-1E+10	1
4901784	117	C	09/17/2018	10:47	-132.313	42.812	0	1460.10	0	2.5310	0	34.7800	8	27.760	0	1443.482	0	28.7	4	8.8	4	-1E+10	1	-1E+10	1	-1E+10	1	-1E+10	1	-1E+10	1	-1E+10	1
4901784	117	C	09/17/2018	10:47	-132.313	42.812	0	1465.20	0	2.5290	0	34.7810	8	27.761	0	1448.506	0	29.0	4	8.9	4	-1E+10	1	-1E+10	1	-1E+10	1	-1E+10	1	-1E+10	1	-1E+10	1
4901784	117	C	09/17/2018	10:47	-132.313	42.812	0	1470.40	0	2.5250	0	34.7820	8	27.762	0	1453.629	0	29.3	4	9.0	4	-1E+10	1	-1E+10	1	-1E+10	1	-1E+10	1	-1E+10	1	-1E+10	1
4901784	117	C	09/17/2018	10:47	-132.313	42.812	0	1475.50	0	2.5150	0	34.7830	8	27.764	0	1458.653	0	29.5	4	9.0	4	-1E+10	1	-1E+10	1	-1E+10	1	-1E+10	1	-1E+10	1	-1E+10	1
4901784	117	C	09/17/2018	10:47	-132.313	42.812	0	1480.70	0	2.5080	0	34.7830	8	27.764	0	1463.776	0	29.7	4	9.1	4	-1E+10	1	-1E+10	1	-1E+10	1	-1E+10	1	-1E+10	1	-1E+10	1
4901784	117	C	09/17/2018	10:47	-132.313	42.812	0	1485.10	0	2.5040	0	34.7850	8	27.766	0	1468.110	0	30.0	4	9.2	4	-1E+10	1	-1E+10	1	-1E+10	1	-1E+10	1	-1E+10	1	-1E+10	1
4901784	117	C	09/17/2018	10:47	-132.313	42.812	0	1489.60	0	2.5020	0	34.7850	8	27.767	0	1472.543	0	30.2	4	9.2	4	-1E+10	1	-1E+10	1	-1E+10	1	-1E+10	1	-1E+10	1	-1E+10	1
4901784	117	C	09/17/2018	10:47	-132.313	42.812	0	1494.90	0	2.4950	0	34.7860	8	27.768	0	1477.764	0	30.6	4	9.3	4	-1E+10	1	-1E+10	1	-1E+10	1	-1E+10	1	-1E+10	1	-1E+10	1
4901784	117	C	09/17/2018	10:47	-132.313	42.812	0	1500.40	0	2.4900	0	34.7860	8	27.768	0	1483.182	0	30.7	4	9.4	4	-1E+10	1	-1E+10	1	-1E+10	1	-1E+10	1	-1E+10	1	-1E+10	1
4901784	117	C	09/17/2018	10:47	-132.313	42.812	0	1505.00	0	2.4890	0	34.7870	8	27.769	0	1487.713	0	30.8	4	9.4	4	-1E+10	1	-1E+10	1	-1E+10	1	-1E+10	1	-1E+10	1	-1E+10	1
4901784	117	C	09/17/2018	10:47	-132.313	42.812	0	1509.50	0	2.4850	0	34.7870	8	27.770	0	1492.145	0	31.0	4	9.5	4	-1E+10	1	-1E+10	1	-1E+10	1	-1E+10	1	-1E+10	1	-1E+10	1
4901784	117	C	09/17/2018	10:47	-132.313	42.812	0	1515.00	0	2.4780	0	34.7870	8	27.770	0	1497.562	0	31.3	4	9.6	4	-1E+10	1	-1E+10	1	-1E+10	1	-1E+10	1	-1E+10	1	-1E+10	1
4901784	117	C	09/17/2018	10:47	-132.313	42.812	0	1519.60	0	2.4660	0	34.7890	8	27.773	0	1502.093	0	31.6	4	9.6	4	-1E+10	1	-1E+10	1	-1E+10	1	-1E+10	1	-1E+10	1	-1E+10	1
4901784	117	C	09/17/2018	10:47	-132.313	42.812	0	1524.10	0	2.4630	0	34.7900	8	27.774	0	1506.525	0	31.7	4	9.7	4	-1E+10	1	-1E+10	1	-1E+10	1	-1E+10	1	-1E+10	1	-1E+10	1
4901784	117	C	09/17/2018	10:47	-132.313	42.812	0	1529.40	0	2.4550	0	34.7910	8	27.776	0	1511.745	0	32.1	4	9.8	4	-1E+10	1	-1E+10	1	-1E+10	1	-1E+10	1	-1E+10	1	-1E+10	1
4901784	117	C	09/17/2018	10:47	-132.313	42.812	0	1535.00	0	2.4430	0	34.7920	8	27.777	0	1517.260	0	32.5	4	9.9	4	-1E+10	1	-1E+10	1	-1E+10	1	-1E+10	1	-1E+10	1	-1E+10	1
4901784	117	C	09/17/2018	10:47	-132.313	42.812	0	1540.70	0	2.4340	0	34.7940	8	27.780	0	1522.874	0	32.9	4	10.0	4	-1E+10	1	-1E+10	1	-1E+10	1	-1E+10	1	-1E+10	1	-1E+10	1
4901784	117	C	09/17/2018	10:47	-132.313	42.812	0	1545.70	0	2.4250	0	34.7950	8	27.781	0	1527.798	0	33.2	4	10.1	4	-1E+10	1	-1E+10	1	-1E+10	1	-1E+10	1	-1E+10	1	-1E+10	1
4901784	117	C	09/17/2018	10:47	-132.313	42.812	0	1550.70	0	2.4230	0	34.7950	8	27.782	0	1532.722	0	33.4	4	10.2	4	-1E+10	1	-1E+10	1	-1E+10	1	-1E+10	1	-1E+10	1	-1E+10	1
4901784	117	C	09/17/2018	10:47	-132.313	42.812	0	1555.70	0	2.4190	0	34.7960	8	27.783	0	1537.646	0	33.7	4	10.3	4	-1E+10	1	-1E+10	1	-1E+10	1	-1E+10	1	-1E+10	1	-1E+10	1
4901784	117	C	09/17/2018	10:47	-132.313	42.812	0	1560.70	0	2.4130	0	34.7970	8	27.784	0	1542.570	0	34.1	4	10.4	4	-1E+10	1	-1E+10	1	-1E+10	1	-1E+10	1	-1E+10	1	-1E+10	1
4901784	117	C	09/17/2018	10:47	-132.313	42.812	0	1565.70	0	2.4050	0	34.7980	8	27.786	0	1547.493	0	34.6	4	10.6	4	-1E+10	1	-1E+10	1	-1E+10	1	-1E+10	1	-1E+10	1	-1E+10	1
4901784	117	C	09/17/2018	10:47	-132.313	42.812	0	1570.80	0	2.3900	0	34.7990	8	27.788	0	1552.515	0	35.0	4	10.7	4	-1E+10	1	-1E+10	1	-1E+10	1	-1E+10	1	-1E+10	1	-1E+10	1
4901784	117	C	09/17/2018	10:47	-132.313	42.812	0	1575.00	0	2.3840	0	34.8000	8	27.789	0	1556.651	0	35.4	4	10.8	4	-1E+10	1	-1E+10	1	-1E+10	1	-1E+10	1	-1E+10	1	-1E+10	1
4901784	117	C	09/17/2018	10:47	-132.313	42.812	0	1579.30	0	2.3760	0	34.8020	8	27.791	0	1560.885	0	35.6	4	10.8	4	-1E+10	1	-1E+10	1	-1E+10	1	-1E+10	1	-1E+10	1	-1E+10	1
4901784	117	C	09/17/2018	10:47	-132.313	42.812	0	1584.40	0	2.3710	0	34.8020	8	27.792	0	1565.907	0	35.8	4	10.9	4	-1E+10	1	-1E+10	1	-1E+10	1	-1E+10	1	-1E+10	1	-1E+10	1
4901784	117	C	09/17/2018	10:47	-132.313	42.812	0	1589.50	0	2.3660	0	34.8020	8	27.792	0	1570.928	0	36.2	4	11.0	4	-1E+10	1	-1E+10	1	-1E+10	1	-1E+10	1	-1E+10	1	-1E+10	1
4901784	117	C	09/17/2018	10:47	-132.313	42.812	0	1594.60	0	2.3550	0	34.8040	8	27.795	0	1575.950	0	36.6	4	11.1	4	-1E+10	1	-1E+10	1	-1E+10	1	-1E+10	1	-1E+10	1	-1E+10	1
4901784	117	C	09/17/2018	10:47	-132.313	42.812	0	1599.80	0	2.3470	0	34.8050	8	27.796	0	1581.070	0	36.8	4	11.2	4	-1E+10	1	-1E+10	1	-1E+10	1	-1E+10	1	-1E+10	1	-1E+10	1
4901784	117	C	09/17/2018	10:47	-132.313	42.812	0	1604.90	0	2.3440	0	34.8050	8	27.796	0	1586.091	0	37.0	4	11.3	4	-1E+10	1	-1E+10	1	-1E+10	1	-1E+10	1	-1E+10	1	-1E+10	1
4901784	117	C	09/17/2018	10:47	-132.313	42.812	0	1610.10	0	2.3390	0	34.8050	8	27.797	0	1591.210	0	37.3	4	11.3	4	-1E+10	1	-1E+10	1	-1E+10	1	-1E+10	1	-1E+10	1	-1E+10	1
4901784	117	C	09/17/2018	10:47	-132.313	42.812	0	1615.30	0	2.3240	0	34.8060	8	27.799	0	1596.330	0	37.5	4	11.4	4	-1E+10	1	-1E+10	1	-1E+10	1	-1E+10	1	-1E+10	1	-1E+10	1
4901784	117	C	09/17/2018	10:47	-132.313	42.812	0	1620.50	0	2.3120	0	34.8070	8	27.801	0	1601.449	0	37.7	4	11.5	4	-1E+10	1	-1E+10	1	-1E+10	1	-1E+10	1	-1E+10	1	-1E+10	1
4901784	117	C	09/17/2018	10:47	-132.313	42.812	0	1625.70	0	2.3050	0	34.8070	8	27.801	0	1606.568	0	37.7	4	11.5	4	-1E+10	1	-1E+10	1	-1E+10	1	-1E+10	1	-1E+10	1	-1E+10	1
4901784	117	C	09/17/2018	10:47	-132.313	42.812	0	1630.00	0	2.3070	0	34.8070	8	27.801	0	1610.801	0	37.8	4	11.5	4	-1E+10	1	-1E+10	1	-1E+10	1	-1E+10	1	-1E+10	1	-1E+10	1
4901784	117	C	09/17/2018	10:47	-132.313	42.812	0	1634.40	0	2.2980	0	34.8080	8	27.803	0	1615.133	0	37.8	4	11.5	4	-1E+10	1	-1E+10	1	-1E+10	1	-1E+10	1	-1E+10	1	-1E+10	1
4901784	117	C	09/17/2018	10:47	-132.313	42.812	0	1639.60	0	2.2860	0	34.8070	8	27.803	0	1620.251	0	37.9	4	11.5	4	-1E+10	1	-1E+10	1	-1E+10	1	-1E+10	1	-1E+10	1	-1E+10	1
4901784	117	C	09/17/2018	10:47	-132.313	42.812	0	1644.90	0	2.2770	0	34.8080	8	27.805	0	1625.469	0	38.3	4	11.6	4	-1E+10	1	-1E+10	1	-1E+10	1	-1E+10	1	-1E+10	1	-1E+10	1
4901784	117	C	09/17/2018	10:47	-132.313	42.812	0	1650.20	0	2.2640	0	34.8090	8	27.806	0	1630.686	0	38.5	4	11.7	4	-1E+10	1	-1E+10	1	-1E+10	1	-1E+10	1	-1E+10	1	-1E+10	1
4901784	117	C	09/17/2018	10:47	-132.313	42.812	0	1655.50	0	2.2560	0	34.8090	8	27.807	0	1635.902	0	38.7	4	11.8	4	-1E+10	1	-1E+10	1	-1E+10	1	-1E+10	1	-1E+10	1	-1E+10	1
4901784	117	C	09/17/2018	10:47	-132.313	42.812	0	1659.90	0	2.2530	0	34.8100	8	27.808	0	1640.233	0	38.9	4	11.8	4	-1E+10	1	-1E+10	1	-1E+10	1	-1E+10	1	-1E+10	1	-1E+10	1
4901784	117	C	09/17/2018	10:47	-132.313	42.812	0	1664.30	0	2.2460	0	34.8110	8	27.810	0	1644.564	0	39.2	4	11.9	4	-1E+10	1	-1E+10	1	-1E+10	1	-1E+10	1	-1E+10	1	-1E+10	1
4901784	117	C	09/17/2018	10:47	-132.313	42.812	0	1669.70	0	2.2400	0	34.8110	8	27.810	0	1649.879	0	39.4	4	12.0	4	-1E+10	1	-1E+10	1	-1E+10	1	-1E+10	1	-1E+10	1	-1E+10	1
4901784	117	C	09/17/2018	10:47	-132.313	42.812	0	1675.00	0	2.2340	0	34.8120	8	27.811	0	1655.096	0	39.6	4	12.0	4	-1E+10	1	-1E+10	1	-1E+10	1	-1E+10	1	-1E+10	1	-1E+10	1
4901784	117	C	09/17/2018	10:47	-132.313	42.812	0	1680.40	0	2.2320	0	34.8120	8	27.812	0	1660.410	0	39.9	4	12.1	4	-1E+10	1	-1E+10	1	-1E+10	1	-1E+10	1	-1E+10	1	-1E+10	1
4901784	117	C	09/17/2018	10:47	-132.313	42.812	0	1684.90	0	2.2280	0	34.8130	8	27.813	0	1664.839	0	40.1	4	12.2	4	-1E+10	1	-1E+10	1	-1E+10	1	-1E+10	1	-1E+10	1	-1E+10	1
4901784	117	C	09/17/2018	10:47	-132.313	42.812	0	1689.40	0	2.2210	0	34.8130	8	27.813	0	1669.268	0	40.6	4	12.3	4	-1E+10	1	-1E+10	1	-1E+10	1	-1E+10	1	-1E+10	1	-1E+10	1
4901784	117	C	09/17/2018	10:47	-132.313	42.812	0	1694.90	0	2.2080	0	34.8150	8	27.816	0	1674.681	0	41.0	4	12.4	4	-1E+10	1	-1E+10	1	-1E+10	1	-1E+10	1	-1E+10	1	-1E+10	1
4901784	117	C	09/17/2018	10:47	-132.313	42.812	0	1700.50	0	2.2050	0	34.8160	8	27.817	0	1680.192	0	41.0	4	12.5	4	-1E+10	1	-1E+10	1	-1E+10	1	-1E+10	1	-1E+10	1	-1E+10	1
4901784	117	C	09/17/2018	10:47	-132.313	42.812	0	1705.00	0	2.2050	0	34.8160	8	27.817	0	1684.620	0	41.1	4	12.5	4	-1E+10	1	-1E+10	1	-1E+10	1	-1E+10	1	-1E+10	1	-1E+10	1
4901784	117	C	09/17/2018	10:47	-132.313	42.812	0	1709.60	0	2.2030	0	34.8160	8	27.817	0	1689.147	0	41.4	4	12.6	4	-1E+10	1	-1E+10	1	-1E+10	1	-1E+10	1	-1E+10	1	-1E+10	1
4901784	117	C	09/17/2018	10:47	-132.313	42.812	0	1715.00	0	2.1930	0	34.8170	8	27.819	0	1694.460	0	41.6	4	12.6	4	-1E+10	1	-1E+10	1	-1E+10	1	-1E+10	1	-1E+10	1	-1E+10	1
4901784	117	C	09/17/2018	10:47	-132.313	42.812	0	1720.50	0	2.1910	0	34.8170	8	27.819	0	1699.873	0	41.9	4	12.7	4	-1E+10	1	-1E+10	1	-1E+10	1	-1E+10	1	-1E+10	1	-1E+10	1
4901784	117	C	09/17/2018	10:47	-132.313	42.812	0	1725.00	0	2.1840	0	34.8190	8	27.821	0	1704.301	0	42.2	4	12.8	4	-1E+10	1	-1E+10	1	-1E+10	1	-1E+10	1	-1E+10	1	-1E+10	1
4901784	117	C	09/17/2018	10:47	-132.313	42.812	0	1729.60	0	2.1780	0	34.8190	8	27.822	0	1708.827	0	42.5	4	12.9	4	-1E+10	1	-1E+10	1	-1E+10	1	-1E+10	1	-1E+10	1	-1E+10	1
4901784	117	C	09/17/2018	10:47	-132.313	42.812	0	1735.10	0	2.1720	0	34.8200	8	27.823	0	1714.239	0	42.9	4	13.0	4	-1E+10	1	-1E+10	1	-1E+10	1	-1E+10	1	-1E+10	1	-1E+10	1
4901784	117	C	09/17/2018	10:47	-132.313	42.812	0	1740.50	0	2.1620	0	34.8210	8	27.825	0	1719.552	0	43.3	4	13.1	4	-1E+10	1	-1E+10	1	-1E+10	1	-1E+10	1	-1E+10	1	-1E+10	1
4901784	117	C	09/17/2018	10:47	-132.313	42.812	0	1745.10	0	2.1550	0	34.8220	8	27.826	0	1724.078	0	43.6	4	13.2	4	-1E+10	1	-1E+10	1	-1E+10	1	-1E+10	1	-1E+10	1	-1E+10	1
4901784	117	C	09/17/2018	10:47	-132.313	42.812	0	1749.70	0	2.1490	0	34.8230	8	27.827	0	1728.604	0	44.0	4	13.3	4	-1E+10	1	-1E+10	1	-1E+10	1	-1E+10	1	-1E+10	1	-1E+10	1
4901784	117	C	09/17/2018	10:47	-132.313	42.812	0	1755.20	0	2.1400	0	34.8240	8	27.829	0	1734.015	0	44.3	4	13.4	4	-1E+10	1	-1E+10	1	-1E+10	1	-1E+10	1	-1E+10	1	-1E+10	1
4901784	117	C	09/17/2018	10:47	-132.313	42.812	0	1759.70	0	2.1350	0	34.8240	8	27.829	0	1738.442	0	44.5	4	13.5	4	-1E+10	1	-1E+10	1	-1E+10	1	-1E+10	1	-1E+10	1	-1E+10	1
4901784	117	C	09/17/2018	10:47	-132.313	42.812	0	1764.60	0	2.1280	0	34.8250	8	27.831	0	1743.263	0	44.8	4	13.6	4	-1E+10	1	-1E+10	1	-1E+10	1	-1E+10	1	-1E+10	1	-1E+10	1
4901784	117	C	09/17/2018	10:47	-132.313	42.812	0	1769.90	0	2.1190	0	34.8260	8	27.832	0	1748.477	0	45.3	4	13.7	4	-1E+10	1	-1E+10	1	-1E+10	1	-1E+10	1	-1E+10	1	-1E+10	1
4901784	117	C	09/17/2018	10:47	-132.313	42.812	0	1774.70	0	2.1100	0	34.8260	8	27.833	0	1753.199	0	45.7	4	13.8	4	-1E+10	1	-1E+10	1	-1E+10	1	-1E+10	1	-1E+10	1	-1E+10	1
4901784	117	C	09/17/2018	10:47	-132.313	42.812	0	1779.60	0	2.1030	0	34.8280	8	27.835	0	1758.019	0	46.1	4	14.0	4	-1E+10	1	-1E+10	1	-1E+10	1	-1E+10	1	-1E+10	1	-1E+10	1
4901784	117	C	09/17/2018	10:47	-132.313	42.812	0	1784.40	0	2.0980	0	34.8290	8	27.837	0	1762.741	0	46.5	4	14.1	4	-1E+10	1	-1E+10	1	-1E+10	1	-1E+10	1	-1E+10	1	-1E+10	1
4901784	117	C	09/17/2018	10:47	-132.313	42.812	0	1789.30	0	2.0920	0	34.8300	8	27.838	0	1767.561	0	46.9	4	14.2	4	-1E+10	1	-1E+10	1	-1E+10	1	-1E+10	1	-1E+10	1	-1E+10	1
4901784	117	C	09/17/2018	10:47	-132.313	42.812	0	1795.00	0	2.0870	0	34.8310	8	27.839	0	1773.168	0	47.3	4	14.3	4	-1E+10	1	-1E+10	1	-1E+10	1	-1E+10	1	-1E+10	1	-1E+10	1
4901784	117	C	09/17/2018	10:47	-132.313	42.812	0	1800.70	0	2.0810	0	34.8310	8	27.840	0	1778.775	0	47.7	4	14.4	4	-1E+10	1	-1E+10	1	-1E+10	1	-1E+10	1	-1E+10	1	-1E+10	1
4901784	117	C	09/17/2018	10:47	-132.313	42.812	0	1805.70	0	2.0780	0	34.8330	8	27.841	0	1783.693	0	48.2	4	14.6	4	-1E+10	1	-1E+10	1	-1E+10	1	-1E+10	1	-1E+10	1	-1E+10	1
4901784	117	C	09/17/2018	10:47	-132.313	42.812	0	1810.70	0	2.0770	0	34.8330	8	27.842	0	1788.611	0	48.6	4	14.7	4	-1E+10	1	-1E+10	1	-1E+10	1	-1E+10	1	-1E+10	1	-1E+10	1
4901784	117	C	09/17/2018	10:47	-132.313	42.812	0	1815.70	0	2.0740	0	34.8350	8	27.843	0	1793.529	0	48.9	4	14.8	4	-1E+10	1	-1E+10	1	-1E+10	1	-1E+10	1	-1E+10	1	-1E+10	1
4901784	117	C	09/17/2018	10:47	-132.313	42.812	0	1820.70	0	2.0700	0	34.8350	8	27.844	0	1798.447	0	49.3	4	14.9	4	-1E+10	1	-1E+10	1	-1E+10	1	-1E+10	1	-1E+10	1	-1E+10	1
4901784	117	C	09/17/2018	10:47	-132.313	42.812	0	1825.00	0	2.0640	0	34.8370	8	27.846	0	1802.676	0	49.7	4	15.1	4	-1E+10	1	-1E+10	1	-1E+10	1	-1E+10	1	-1E+10	1	-1E+10	1
4901784	117	C	09/17/2018	10:47	-132.313	42.812	0	1829.20	0	2.0620	0	34.8370	8	27.846	0	1806.807	0	50.0	4	15.1	4	-1E+10	1	-1E+10	1	-1E+10	1	-1E+10	1	-1E+10	1	-1E+10	1
4901784	117	C	09/17/2018	10:47	-132.313	42.812	0	1834.30	0	2.0580	0	34.8380	8	27.847	0	1811.823	0	50.5	4	15.3	4	-1E+10	1	-1E+10	1	-1E+10	1	-1E+10	1	-1E+10	1	-1E+10	1
4901784	117	C	09/17/2018	10:47	-132.313	42.812	0	1839.40	0	2.0510	0	34.8390	8	27.849	0	1816.839	0	50.7	4	15.3	4	-1E+10	1	-1E+10	1	-1E+10	1	-1E+10	1	-1E+10	1	-1E+10	1
4901784	117	C	09/17/2018	10:47	-132.313	42.812	0	1844.50	0	2.0500	0	34.8390	8	27.849	0	1821.854	0	50.9	4	15.4	4	-1E+10	1	-1E+10	1	-1E+10	1	-1E+10	1	-1E+10	1	-1E+10	1
4901784	117	C	09/17/2018	10:47	-132.313	42.812	0	1849.70	0	2.0470	0	34.8400	8	27.850	0	1826.968	0	51.2	4	15.5	4	-1E+10	1	-1E+10	1	-1E+10	1	-1E+10	1	-1E+10	1	-1E+10	1
4901784	117	C	09/17/2018	10:47	-132.313	42.812	0	1854.90	0	2.0410	0	34.8400	8	27.850	0	1832.082	0	51.7	4	15.6	4	-1E+10	1	-1E+10	1	-1E+10	1	-1E+10	1	-1E+10	1	-1E+10	1
4901784	117	C	09/17/2018	10:47	-132.313	42.812	0	1860.00	0	2.0330	0	34.8420	8	27.853	0	1837.097	0	52.3	4	15.8	4	-1E+10	1	-1E+10	1	-1E+10	1	-1E+10	1	-1E+10	1	-1E+10	1
4901784	117	C	09/17/2018	10:47	-132.313	42.812	0	1865.30	0	2.0260	0	34.8430	8	27.854	0	1842.309	0	52.6	4	15.9	4	-1E+10	1	-1E+10	1	-1E+10	1	-1E+10	1	-1E+10	1	-1E+10	1
4901784	117	C	09/17/2018	10:47	-132.313	42.812	0	1870.50	0	2.0190	0	34.8440	8	27.855	0	1847.422	0	53.0	4	16.0	4	-1E+10	1	-1E+10	1	-1E+10	1	-1E+10	1	-1E+10	1	-1E+10	1
4901784	117	C	09/17/2018	10:47	-132.313	42.812	0	1874.80	0	2.0140	0	34.8440	8	27.856	0	1851.650	0	53.4	4	16.1	4	-1E+10	1	-1E+10	1	-1E+10	1	-1E+10	1	-1E+10	1	-1E+10	1
4901784	117	C	09/17/2018	10:47	-132.313	42.812	0	1879.30	0	2.0090	0	34.8450	8	27.857	0	1856.075	0	53.6	4	16.2	4	-1E+10	1	-1E+10	1	-1E+10	1	-1E+10	1	-1E+10	1	-1E+10	1
4901784	117	C	09/17/2018	10:47	-132.313	42.812	0	1884.60	0	2.0050	0	34.8460	8	27.858	0	1861.286	0	54.0	4	16.3	4	-1E+10	1	-1E+10	1	-1E+10	1	-1E+10	1	-1E+10	1	-1E+10	1
4901784	117	C	09/17/2018	10:47	-132.313	42.812	0	1890.00	0	2.0000	0	34.8470	8	27.859	0	1866.596	0	54.2	4	16.4	4	-1E+10	1	-1E+10	1	-1E+10	1	-1E+10	1	-1E+10	1	-1E+10	1
4901784	117	C	09/17/2018	10:47	-132.313	42.812	0	1895.50	0	1.9980	0	34.8470	8	27.859	0	1872.004	0	54.4	4	16.4	4	-1E+10	1	-1E+10	1	-1E+10	1	-1E+10	1	-1E+10	1	-1E+10	1
4901784	117	C	09/17/2018	10:47	-132.313	42.812	0	1900.00	0	1.9940	0	34.8470	8	27.860	0	1876.428	0	54.7	4	16.5	4	-1E+10	1	-1E+10	1	-1E+10	1	-1E+10	1	-1E+10	1	-1E+10	1
4901784	117	C	09/17/2018	10:47	-132.313	42.812	0	1904.60	0	1.9910	0	34.8480	8	27.861	0	1880.951	0	54.9	4	16.6	4	-1E+10	1	-1E+10	1	-1E+10	1	-1E+10	1	-1E+10	1	-1E+10	1
4901784	117	C	09/17/2018	10:47	-132.313	42.812	0	1910.00	0	1.9880	0	34.8480	8	27.861	0	1886.260	0	55.2	4	16.7	4	-1E+10	1	-1E+10	1	-1E+10	1	-1E+10	1	-1E+10	1	-1E+10	1
4901784	117	C	09/17/2018	10:47	-132.313	42.812	0	1915.50	0	1.9850	0	34.8490	8	27.862	0	1891.667	0	55.4	4	16.7	4	-1E+10	1	-1E+10	1	-1E+10	1	-1E+10	1	-1E+10	1	-1E+10	1
4901784	117	C	09/17/2018	10:47	-132.313	42.812	0	1920.00	0	1.9840	0	34.8490	8	27.862	0	1896.091	0	55.6	4	16.8	4	-1E+10	1	-1E+10	1	-1E+10	1	-1E+10	1	-1E+10	1	-1E+10	1
4901784	117	C	09/17/2018	10:47	-132.313	42.812	0	1924.60	0	1.9820	0	34.8500	8	27.863	0	1900.613	0	55.8	4	16.8	4	-1E+10	1	-1E+10	1	-1E+10	1	-1E+10	1	-1E+10	1	-1E+10	1
4901784	117	C	09/17/2018	10:47	-132.313	42.812	0	1930.10	0	1.9790	0	34.8500	8	27.864	0	1906.020	0	56.1	4	16.9	4	-1E+10	1	-1E+10	1	-1E+10	1	-1E+10	1	-1E+10	1	-1E+10	1
4901784	117	C	09/17/2018	10:47	-132.313	42.812	0	1934.70	0	1.9750	0	34.8510	8	27.865	0	1910.542	0	56.4	4	17.0	4	-1E+10	1	-1E+10	1	-1E+10	1	-1E+10	1	-1E+10	1	-1E+10	1
4901784	117	C	09/17/2018	10:47	-132.313	42.812	0	1939.30	0	1.9710	0	34.8510	8	27.865	0	1915.064	0	56.6	4	17.1	4	-1E+10	1	-1E+10	1	-1E+10	1	-1E+10	1	-1E+10	1	-1E+10	1
4901784	117	C	09/17/2018	10:47	-132.313	42.812	0	1944.90	0	1.9670	0	34.8520	8	27.866	0	1920.569	0	56.9	4	17.2	4	-1E+10	1	-1E+10	1	-1E+10	1	-1E+10	1	-1E+10	1	-1E+10	1
4901784	117	C	09/17/2018	10:47	-132.313	42.812	0	1950.50	0	1.9620	0	34.8530	8	27.867	0	1926.073	0	57.2	4	17.3	4	-1E+10	1	-1E+10	1	-1E+10	1	-1E+10	1	-1E+10	1	-1E+10	1
4901784	117	C	09/17/2018	10:47	-132.313	42.812	0	1954.50	0	1.9590	0	34.8530	8	27.868	0	1930.005	0	57.4	4	17.3	4	-1E+10	1	-1E+10	1	-1E+10	1	-1E+10	1	-1E+10	1	-1E+10	1
4901784	117	C	09/17/2018	10:47	-132.313	42.812	0	1959.50	0	1.9570	0	34.8540	8	27.869	0	1934.920	0	57.6	4	17.4	4	-1E+10	1	-1E+10	1	-1E+10	1	-1E+10	1	-1E+10	1	-1E+10	1
4901784	117	C	09/17/2018	10:47	-132.313	42.812	0	1964.40	0	1.9540	0	34.8540	8	27.869	0	1939.736	0	57.7	4	17.4	4	-1E+10	1	-1E+10	1	-1E+10	1	-1E+10	1	-1E+10	1	-1E+10	1
4901784	117	C	09/17/2018	10:47	-132.313	42.812	0	1970.00	0	1.9510	0	34.8540	8	27.869	0	1945.240	0	58.0	4	17.5	4	-1E+10	1	-1E+10	1	-1E+10	1	-1E+10	1	-1E+10	1	-1E+10	1
4901784	117	C	09/17/2018	10:47	-132.313	42.812	0	1975.80	0	1.9480	0	34.8550	8	27.870	0	1950.941	0	58.2	4	17.6	4	-1E+10	1	-1E+10	1	-1E+10	1	-1E+10	1	-1E+10	1	-1E+10	1
4901784	117	C	09/17/2018	10:47	-132.313	42.812	0	1980.70	0	1.9440	0	34.8550	8	27.871	0	1955.756	0	58.4	4	17.6	4	-1E+10	1	-1E+10	1	-1E+10	1	-1E+10	1	-1E+10	1	-1E+10	1
4901784	117	C	09/17/2018	10:47	-132.313	42.812	0	1985.60	0	1.9410	0	34.8560	8	27.872	0	1960.572	0	58.7	4	17.7	4	-1E+10	1	-1E+10	1	-1E+10	1	-1E+10	1	-1E+10	1	-1E+10	1
4901784	117	C	09/17/2018	10:47	-132.313	42.812	0	1990.60	0	1.9370	0	34.8570	8	27.873	0	1965.486	0	58.9	4	17.8	4	-1E+10	1	-1E+10	1	-1E+10	1	-1E+10	1	-1E+10	1	-1E+10	1
4901784	117	C	09/17/2018	10:47	-132.313	42.812	0	1995.00	0	1.9360	0	34.8570	8	27.873	0	1969.810	0	59.1	4	17.8	4	-1E+10	1	-1E+10	1	-1E+10	1	-1E+10	1	-1E+10	1	-1E+10	1
4901784	117	C	09/17/2018	10:47	-132.313	42.812	0	2000.50	0	1.9340	0	34.8570	8	27.873	0	1975.215	0	59.3	4	17.9	4	-1E+10	1	-1E+10	1	-1E+10	1	-1E+10	1	-1E+10	1	-1E+10	1
4901784	117	C	09/17/2018	10:47	-132.313	42.812	0	2004.80	0	1.9320	0	34.8580	8	27.874	0	1979.441	0	59.5	4	17.9	4	-1E+10	1	-1E+10	1	-1E+10	1	-1E+10	1	-1E+10	1	-1E+10	1
4901784	117	C	09/17/2018	10:47	-132.313	42.812	0	2010.20	0	1.9260	0	34.8590	8	27.875	0	1984.748	0	59.7	4	18.0	4	-1E+10	1	-1E+10	1	-1E+10	1	-1E+10	1	-1E+10	1	-1E+10	1
4901784	117	C	09/17/2018	10:47	-132.313	42.812	0	2013.00	0	1.9250	0	34.8590	8	27.875	0	1987.499	0	57.7	8	17.4	8	-1E+10	1	-1E+10	1	-1E+10	1	-1E+10	1	-1E+10	1	-1E+10	1
4901784	117	C	09/17/2018	10:47	-132.313	42.812	0																										
4901784	118	C	09/27/2018	10:50	-132.301	42.898	0	2.50	0	17.6010	0	32.9980	8	23.837	0	2.480	0	232.9	4	97.5	4	-1E+10	1	-1E+10	1	-1E+10	1	-1E+10	1	-1E+10	1	-1E+10	1
4901784	118	C	09/27/2018	10:50	-132.301	42.898	0	3.70	0	17.6020	0	32.9980	8	23.837	0	3.671	0	232.8	4	97.4	4	-1E+10	1	-1E+10	1	-1E+10	1	-1E+10	1	-1E+10	1	-1E+10	1
4901784	118	C	09/27/2018	10:50	-132.301	42.898	0	5.60	0	17.6020	0	32.9970	8	23.836	0	5.556	0	232.5	4	97.3	4	-1E+10	1	-1E+10	1	-1E+10	1	-1E+10	1	-1E+10	1	-1E+10	1
4901784	118	C	09/27/2018	10:50	-132.301	42.898	0	7.20	0	17.6020	0	32.9980	8	23.837	0	7.143	0	232.5	4	97.3	4	-1E+10	1	-1E+10	1	-1E+10	1	-1E+10	1	-1E+10	1	-1E+10	1
4901784	118	C	09/27/2018	10:50	-132.301	42.898	0	9.00	0	17.6020	0	32.9980	8	23.837	0	8.928	0	232.1	4	97.1	4	-1E+10	1	-1E+10	1	-1E+10	1	-1E+10	1	-1E+10	1	-1E+10	1
4901784	118	C	09/27/2018	10:50	-132.301	42.898	0	11.00	0	17.6010	0	32.9970	8	23.836	0	10.913	0	232.2	4	97.2	4	-1E+10	1	-1E+10	1	-1E+10	1	-1E+10	1	-1E+10	1	-1E+10	1
4901784	118	C	09/27/2018	10:50	-132.301	42.898	0	12.70	0	17.6020	0	32.9970	8	23.836	0	12.599	0	231.9	4	97.1	4	-1E+10	1	-1E+10	1	-1E+10	1	-1E+10	1	-1E+10	1	-1E+10	1
4901784	118	C	09/27/2018	10:50	-132.301	42.898	0	14.60	0	17.6030	0	32.9960	8	23.835	0	14.484	0	232.0	4	97.1	4	-1E+10	1	-1E+10	1	-1E+10	1	-1E+10	1	-1E+10	1	-1E+10	1
4901784	118	C	09/27/2018	10:50	-132.301	42.898	0	16.50	0	17.6030	0	32.9960	8	23.835	0	16.369	0	231.9	4	97.0	4	-1E+10	1	-1E+10	1	-1E+10	1	-1E+10	1	-1E+10	1	-1E+10	1
4901784	118	C	09/27/2018	10:50	-132.301	42.898	0	18.20	0	17.6030	0	32.9960	8	23.835	0	18.055	0	231.8	4	97.0	4	-1E+10	1	-1E+10	1	-1E+10	1	-1E+10	1	-1E+10	1	-1E+10	1
4901784	118	C	09/27/2018	10:50	-132.301	42.898	0	20.00	0	17.6010	0	32.9990	8	23.838	0	19.841	0	231.7	4	97.0	4	-1E+10	1	-1E+10	1	-1E+10	1	-1E+10	1	-1E+10	1	-1E+10	1
4901784	118	C	09/27/2018	10:50	-132.301	42.898	0	22.10	0	17.6000	0	33.0000	8	23.839	0	21.924	0	231.6	4	96.9	4	-1E+10	1	-1E+10	1	-1E+10	1	-1E+10	1	-1E+10	1	-1E+10	1
4901784	118	C	09/27/2018	10:50	-132.301	42.898	0	22.50	0	17.6010	0	32.9990	8	23.838	0	22.320	0	231.7	4	97.0	4	-1E+10	1	-1E+10	1	-1E+10	1	-1E+10	1	-1E+10	1	-1E+10	1
4901784	118	C	09/27/2018	10:50	-132.301	42.898	0	24.10	0	17.6010	0	32.9980	8	23.838	0	23.908	0	231.7	4	97.0	4	-1E+10	1	-1E+10	1	-1E+10	1	-1E+10	1	-1E+10	1	-1E+10	1
4901784	118	C	09/27/2018	10:50	-132.301	42.898	0	25.50	0	17.6000	0	32.9970	8	23.837	0	25.296	0	232.0	4	97.1	4	-1E+10	1	-1E+10	1	-1E+10	1	-1E+10	1	-1E+10	1	-1E+10	1
4901784	118	C	09/27/2018	10:50	-132.301	42.898	0	26.90	0	17.5960	0	33.0050	8	23.844	0	26.685	0	232.4	4	97.2	4	-1E+10	1	-1E+10	1	-1E+10	1	-1E+10	1	-1E+10	1	-1E+10	1
4901784	118	C	09/27/2018	10:50	-132.301	42.898	0	28.30	0	17.5840	0	33.0160	8	23.856	0	28.074	0	233.1	4	97.5	4	-1E+10	1	-1E+10	1	-1E+10	1	-1E+10	1	-1E+10	1	-1E+10	1
4901784	118	C	09/27/2018	10:50	-132.301	42.898	0	29.60	0	17.5730	0	33.0120	8	23.855	0	29.363	0	233.8	4	97.8	4	-1E+10	1	-1E+10	1	-1E+10	1	-1E+10	1	-1E+10	1	-1E+10	1
4901784	118	C	09/27/2018	10:50	-132.301	42.898	0	30.90	0	17.5200	0	33.0040	8	23.862	0	30.653	0	235.5	4	98.4	4	-1E+10	1	-1E+10	1	-1E+10	1	-1E+10	1	-1E+10	1	-1E+10	1
4901784	118	C	09/27/2018	10:50	-132.301	42.898	0	32.20	0	17.4810	0	32.9910	8	23.861	0	31.942	0	237.8	4	99.3	4	-1E+10	1	-1E+10	1	-1E+10	1	-1E+10	1	-1E+10	1	-1E+10	1
4901784	118	C	09/27/2018	10:50	-132.301	42.898	0	33.60	0	17.3080	0	32.9780	8	23.893	0	33.331	0	241.0	4	100.3	4	-1E+10	1	-1E+10	1	-1E+10	1	-1E+10	1	-1E+10	1	-1E+10	1
4901784	118	C	09/27/2018	10:50	-132.301	42.898	0	35.00	0	17.1850	0	32.9560	8	23.905	0	34.720	0	245.3	4	101.8	4	-1E+10	1	-1E+10	1	-1E+10	1	-1E+10	1	-1E+10	1	-1E+10	1
4901784	118	C	09/27/2018	10:50	-132.301	42.898	0	36.50	0	16.6930	0	32.9490	8	24.014	0	36.208	0	251.2	4	103.3	4	-1E+10	1	-1E+10	1	-1E+10	1	-1E+10	1	-1E+10	1	-1E+10	1
4901784	118	C	09/27/2018	10:50	-132.301	42.898	0	38.00	0	15.5330	0	32.9700	8	24.293	0	37.695	0	260.3	4	104.7	4	-1E+10	1	-1E+10	1	-1E+10	1	-1E+10	1	-1E+10	1	-1E+10	1
4901784	118	C	09/27/2018	10:50	-132.301	42.898	0	40.10	0	14.7380	0	32.8620	8	24.382	0	39.778	0	268.2	4	106.1	4	-1E+10	1	-1E+10	1	-1E+10	1	-1E+10	1	-1E+10	1	-1E+10	1
4901784	118	C	09/27/2018	10:50	-132.301	42.898	0	41.80	0	13.9990	0	32.8390	8	24.520	0	41.465	0	274.3	4	106.9	4	-1E+10	1	-1E+10	1	-1E+10	1	-1E+10	1	-1E+10	1	-1E+10	1
4901784	118	C	09/27/2018	10:50	-132.301	42.898	0	43.20	0	13.6250	0	32.8200	8	24.581	0	42.853	0	278.9	4	107.9	4	-1E+10	1	-1E+10	1	-1E+10	1	-1E+10	1	-1E+10	1	-1E+10	1
4901784	118	C	09/27/2018	10:50	-132.301	42.898	0	44.60	0	12.8880	0	32.8230	8	24.731	0	44.242	0	283.1	4	107.9	4	-1E+10	1	-1E+10	1	-1E+10	1	-1E+10	1	-1E+10	1	-1E+10	1
4901784	118	C	09/27/2018	10:50	-132.301	42.898	0	46.10	0	12.2120	0	32.8290	8	24.865	0	45.730	0	287.1	4	107.9	4	-1E+10	1	-1E+10	1	-1E+10	1	-1E+10	1	-1E+10	1	-1E+10	1
4901784	118	C	09/27/2018	10:50	-132.301	42.898	0	47.70	0	11.7980	0	32.8150	8	24.932	0	47.317	0	290.5	4	108.2	4	-1E+10	1	-1E+10	1	-1E+10	1	-1E+10	1	-1E+10	1	-1E+10	1
4901784	118	C	09/27/2018	10:50	-132.301	42.898	0	49.20	0	11.6920	0	32.8140	8	24.950	0	48.804	0	290.5	4	108.0	4	-1E+10	1	-1E+10	1	-1E+10	1	-1E+10	1	-1E+10	1	-1E+10	1
4901784	118	C	09/27/2018	10:50	-132.301	42.898	0	50.90	0	11.6350	0	32.8200	8	24.966	0	50.490	0	290.1	4	107.7	4	-1E+10	1	-1E+10	1	-1E+10	1	-1E+10	1	-1E+10	1	-1E+10	1
4901784	118	C	09/27/2018	10:50	-132.301	42.898	0	52.60	0	11.3890	0	32.8260	8	25.015	0	52.176	0	290.0	4	107.1	4	-1E+10	1	-1E+10	1	-1E+10	1	-1E+10	1	-1E+10	1	-1E+10	1
4901784	118	C	09/27/2018	10:50	-132.301	42.898	0	54.20	0	11.3430	0	32.8450	8	25.038	0	53.763	0	289.0	4	106.7	4	-1E+10	1	-1E+10	1	-1E+10	1	-1E+10	1	-1E+10	1	-1E+10	1
4901784	118	C	09/27/2018	10:50	-132.301	42.898	0	55.90	0	11.0200	0	32.8540	8	25.103	0	55.449	0	288.0	4	105.5	4	-1E+10	1	-1E+10	1	-1E+10	1	-1E+10	1	-1E+10	1	-1E+10	1
4901784	118	C	09/27/2018	10:50	-132.301	42.898	0	57.60	0	10.8110	0	32.8580	8	25.143	0	57.136	0	286.5	4	104.5	4	-1E+10	1	-1E+10	1	-1E+10	1	-1E+10	1	-1E+10	1	-1E+10	1
4901784	118	C	09/27/2018	10:50	-132.301	42.898	0	59.40	0	10.6980	0	32.8600	8	25.164	0	58.921	0	285.0	4	103.7	4	-1E+10	1	-1E+10	1	-1E+10	1	-1E+10	1	-1E+10	1	-1E+10	1
4901784	118	C	09/27/2018	10:50	-132.301	42.898	0	61.20	0	10.6340	0	32.8560	8	25.172	0	60.706	0	283.3	4	103.0	4	-1E+10	1	-1E+10	1	-1E+10	1	-1E+10	1	-1E+10	1	-1E+10	1
4901784	118	C	09/27/2018	10:50	-132.301	42.898	0	63.00	0	10.5750	0	32.8780	8	25.199	0	62.491	0	281.0	4	102.0	4	-1E+10	1	-1E+10	1	-1E+10	1	-1E+10	1	-1E+10	1	-1E+10	1
4901784	118	C	09/27/2018	10:50	-132.301	42.898	0	64.80	0	10.5000	0	32.8730	8	25.208	0	64.276	0	279.5	4	101.3	4	-1E+10	1	-1E+10	1	-1E+10	1	-1E+10	1	-1E+10	1	-1E+10	1
4901784	118	C	09/27/2018	10:50	-132.301	42.898	0	66.60	0	10.3890	0	32.8630	8	25.220	0	66.062	0	278.0	4	100.5	4	-1E+10	1	-1E+10	1	-1E+10	1	-1E+10	1	-1E+10	1	-1E+10	1
4901784	118	C	09/27/2018	10:50	-132.301	42.898	0	68.30	0	10.3270	0	32.8680	8	25.234	0	67.748	0	276.0	4	99.7	4	-1E+10	1	-1E+10	1	-1E+10	1	-1E+10	1	-1E+10	1	-1E+10	1
4901784	118	C	09/27/2018	10:50	-132.301	42.898	0	70.20	0	10.0690	0	32.8610	8	25.272	0	69.632	0	275.4	4	98.9	4	-1E+10	1	-1E+10	1	-1E+10	1	-1E+10	1	-1E+10	1	-1E+10	1
4901784	118	C	09/27/2018	10:50	-132.301	42.898	0	72.00	0	9.8720	0	32.8400	8	25.289	0	71.417	0	275.1	4	98.4	4	-1E+10	1	-1E+10	1	-1E+10	1	-1E+10	1	-1E+10	1	-1E+10	1
4901784	118	C	09/27/2018	10:50	-132.301	42.898	0	73.90	0	9.7850	0	32.8330	8	25.297	0	73.301	0	274.3	4	97.9	4	-1E+10	1	-1E+10	1	-1E+10	1	-1E+10	1	-1E+10	1	-1E+10	1
4901784	118	C	09/27/2018	10:50	-132.301	42.898	0	75.70	0	9.7550	0	32.8280	8	25.299	0	75.086	0	273.1	4	97.4	4	-1E+10	1	-1E+10	1	-1E+10	1	-1E+10	1	-1E+10	1	-1E+10	1
4901784	118	C	09/27/2018	10:50	-132.301	42.898	0	77.40	0	9.7200	0	32.8260	8	25.303	0	76.772	0	271.5	4	96.7	4	-1E+10	1	-1E+10	1	-1E+10	1	-1E+10	1	-1E+10	1	-1E+10	1
4901784	118	C	09/27/2018	10:50	-132.301	42.898	0	79.20	0	9.6440	0	32.8230	8	25.313	0	78.557	0	269.6	4	95.9	4	-1E+10	1	-1E+10	1	-1E+10	1	-1E+10	1	-1E+10	1	-1E+10	1
4901784	118	C	09/27/2018	10:50	-132.301	42.898	0	81.00	0	9.5090	0	32.8170	8	25.330	0	80.342	0	268.2	4	95.1	4	-1E+10	1	-1E+10	1	-1E+10	1	-1E+10	1	-1E+10	1	-1E+10	1
4901784	118	C	09/27/2018	10:50	-132.301	42.898	0	82.70	0	9.4000	0	32.8160	8	25.347	0	82.028	0	266.6	4	94.3	4	-1E+10	1	-1E+10	1	-1E+10	1	-1E+10	1	-1E+10	1	-1E+10	1
4901784	118	C	09/27/2018	10:50	-132.301	42.898	0	84.60	0	9.3730	0	32.8200	8	25.354	0	83.912	0	265.3	4	93.8	4	-1E+10	1	-1E+10	1	-1E+10	1	-1E+10	1	-1E+10	1	-1E+10	1
4901784	118	C	09/27/2018	10:50	-132.301	42.898	0	86.30	0	9.3180	0	32.8250	8	25.367	0	85.598	0	263.9	4	93.2	4	-1E+10	1	-1E+10	1	-1E+10	1	-1E+10	1	-1E+10	1	-1E+10	1
4901784	118	C	09/27/2018	10:50	-132.301	42.898	0	88.20	0	9.2920	0	32.8230	8	25.370	0	87.482	0	262.7	4	92.7	4	-1E+10	1	-1E+10	1	-1E+10	1	-1E+10	1	-1E+10	1	-1E+10	1
4901784	118	C	09/27/2018	10:50	-132.301	42.898	0	90.00	0	9.2850	0	32.8230	8	25.371	0	89.267	0	261.0	4	92.1	4	-1E+10	1	-1E+10	1	-1E+10	1	-1E+10	1	-1E+10	1	-1E+10	1
4901784	118	C	09/27/2018	10:50	-132.301	42.898	0	91.70	0	9.2360	0	32.8280	8	25.382	0	90.953	0	259.5	4	91.5	4	-1E+10	1	-1E+10	1	-1E+10	1	-1E+10	1	-1E+10	1	-1E+10	1
4901784	118	C	09/27/2018	10:50	-132.301	42.898	0	93.50	0	9.1830	0	32.8410	8	25.401	0	92.738	0	258.2	4	90.9	4	-1E+10	1	-1E+10	1	-1E+10	1	-1E+10	1	-1E+10	1	-1E+10	1
4901784	118	C	09/27/2018	10:50	-132.301	42.898	0	95.40	0	9.1690	0	32.8470	8	25.408	0	94.622	0	256.8	4	90.4	4	-1E+10	1	-1E+10	1	-1E+10	1	-1E+10	1	-1E+10	1	-1E+10	1
4901784	118	C	09/27/2018	10:50	-132.301	42.898	0	97.10	0	9.1400	0	32.8570	8	25.420	0	96.308	0	255.4	4	89.9	4	-1E+10	1	-1E+10	1	-1E+10	1	-1E+10	1	-1E+10	1	-1E+10	1
4901784	118	C	09/27/2018	10:50	-132.301	42.898	0	99.00	0	9.2050	0	32.8670	8	25.418	0	98.192	0	253.7	4	89.4	4	-1E+10	1	-1E+10	1	-1E+10	1	-1E+10	1	-1E+10	1	-1E+10	1
4901784	118	C	09/27/2018	10:50	-132.301	42.898	0	102.60	0	9.1280	0	32.8920	8	25.450	0	101.762	0	251.5	4	88.5	4	-1E+10	1	-1E+10	1	-1E+10	1	-1E+10	1	-1E+10	1	-1E+10	1
4901784	118	C	09/27/2018	10:50	-132.301	42.898	0	104.50	0	8.9890	0	32.8860	8	25.467	0	103.646	0	250.3	4	87.8	4	-1E+10	1	-1E+10	1	-1E+10	1	-1E+10	1	-1E+10	1	-1E+10	1
4901784	118	C	09/27/2018	10:50	-132.301	42.898	0	107.20	0	8.9550	0	32.9220	8	25.500	0	106.323	0	248.2	4	87.0	4	-1E+10	1	-1E+10	1	-1E+10	1	-1E+10	1	-1E+10	1	-1E+10	1
4901784	118	C	09/27/2018	10:50	-132.301	42.898	0	110.00	0	8.7460	0	32.9640	8	25.566	0	109.099	0	247.0	4	86.2	4	-1E+10	1	-1E+10	1	-1E+10	1	-1E+10	1	-1E+10	1	-1E+10	1
4901784	118	C	09/27/2018	10:50	-132.301	42.898	0	111.90	0	8.7340	0	32.9900	8	25.588	0	110.983	0	246.0	4	85.9	4	-1E+10	1	-1E+10	1	-1E+10	1	-1E+10	1	-1E+10	1	-1E+10	1
4901784	118	C	09/27/2018	10:50	-132.301	42.898	0	114.70	0	8.6220	0	33.0200	8	25.628	0	113.759	0	244.6	4	85.2	4	-1E+10	1	-1E+10	1	-1E+10	1	-1E+10	1	-1E+10	1	-1E+10	1
4901784	118	C	09/27/2018	10:50	-132.301	42.898	0	117.30	0	8.4990	0	33.0340	8	25.658	0	116.337	0	243.0	4	84.4	4	-1E+10	1	-1E+10	1	-1E+10	1	-1E+10	1	-1E+10	1	-1E+10	1
4901784	118	C	09/27/2018	10:50	-132.301	42.898	0	119.50	0	8.3440	0	33.0950	8	25.729	0	118.519	0	241.6	4	83.7	4	-1E+10	1	-1E+10	1	-1E+10	1	-1E+10	1	-1E+10	1	-1E+10	1
4901784	118	C	09/27/2018	10:50	-132.301	42.898	0	122.70	0	8.1460	0	33.1660	8	25.814	0	121.691	0	239.8	4	82.8	4	-1E+10	1	-1E+10	1	-1E+10	1	-1E+10	1	-1E+10	1	-1E+10	1
4901784	118	C	09/27/2018	10:50	-132.301	42.898	0	125.10	0	8.0580	0	33.2350	8	25.881	0	124.071	0	238.5	4	82.2	4	-1E+10	1	-1E+10	1	-1E+10	1	-1E+10	1	-1E+10	1	-1E+10	1
4901784	118	C	09/27/2018	10:50	-132.301	42.898	0	127.40	0	8.0090	0	33.2530	8	25.903	0	126.351	0	236.9	4	81.6	4	-1E+10	1	-1E+10	1	-1E+10	1	-1E+10	1	-1E+10	1	-1E+10	1
4901784	118	C	09/27/2018	10:50	-132.301	42.898	0	129.80	0	7.9640	0	33.2810	8	25.931	0	128.731	0	235.1	4	80.9	4	-1E+10	1	-1E+10	1	-1E+10	1	-1E+10	1	-1E+10	1	-1E+10	1
4901784	118	C	09/27/2018	10:50	-132.301	42.898	0	132.70	0	7.9260	0	33.3340	8	25.979	0	131.606	0	232.1	4	79.8	4	-1E+10	1	-1E+10	1	-1E+10	1	-1E+10	1	-1E+10	1	-1E+10	1
4901784	118	C	09/27/2018	10:50	-132.301	42.898	0	135.60	0	7.9070	0	33.4060	8	26.038	0	134.481	0	228.4	4	78.5	4	-1E+10	1	-1E+10	1	-1E+10	1	-1E+10	1	-1E+10	1	-1E+10	1
4901784	118	C	09/27/2018	10:50	-132.301	42.898	0	137.60	0	7.9220	0	33.4800	8	26.094	0	136.464	0	225.7	4	77.7	4	-1E+10	1	-1E+10	1	-1E+10	1	-1E+10	1	-1E+10	1	-1E+10	1
4901784	118	C	09/27/2018	10:50	-132.301	42.898	0	139.70	0	7.9280	0	33.4950	8	26.105	0	138.546	0	224.0	4	77.1	4	-1E+10	1	-1E+10	1	-1E+10	1	-1E+10	1	-1E+10	1	-1E+10	1
4901784	118	C	09/27/2018	10:50	-132.301	42.898	0	142.50	0	7.9580	0	33.5450	8	26.140	0	141.322	0	220.8	4	76.1	4	-1E+10	1	-1E+10	1	-1E+10	1	-1E+10	1	-1E+10	1	-1E+10	1
4901784	118	C	09/27/2018	10:50	-132.301	42.898	0	144.70	0	7.9850	0	33.5780	8	26.162	0	143.503	0	218.6	4	75.4	4	-1E+10	1	-1E+10	1	-1E+10	1	-1E+10	1	-1E+10	1	-1E+10	1
4901784	118	C	09/27/2018	10:50	-132.301	42.898	0	147.00	0	7.9970	0	33.5940	8	26.173	0	145.783	0	216.0	4	74.5	4	-1E+10	1	-1E+10	1	-1E+10	1	-1E+10	1	-1E+10	1	-1E+10	1
4901784	118	C	09/27/2018	10:50	-132.301	42.898	0	150.20	0	8.0700	0	33.6910	8	26.238	0	148.955	0	211.4	4	73.1	4	-1E+10	1	-1E+10	1	-1E+10	1	-1E+10	1	-1E+10	1	-1E+10	1
4901784	118	C	09/27/2018	10:50	-132.301	42.898	0	152.50	0	8.1010	0	33.7310	8	26.265	0	151.236	0	209.4	4	72.5	4	-1E+10	1	-1E+10	1	-1E+10	1	-1E+10	1	-1E+10	1	-1E+10	1
4901784	118	C	09/27/2018	10:50	-132.301	42.898	0	155.00	0	8.1130	0	33.7480	8	26.276	0	153.714	0	207.6	4	71.9	4	-1E+10	1	-1E+10	1	-1E+10	1	-1E+10	1	-1E+10	1	-1E+10	1
4901784	118	C	09/27/2018	10:50	-132.301	42.898	0	157.60	0	8.1260	0	33.7670	8	26.289	0	156.291	0	205.0	4	71.0	4	-1E+10	1	-1E+10	1	-1E+10	1	-1E+10	1	-1E+10	1	-1E+10	1
4901784	118	C	09/27/2018	10:50	-132.301	42.898	0	159.30	0	8.1500	0	33.7910	8	26.305	0	157.977	0	202.9	4	70.3	4	-1E+10	1	-1E+10	1	-1E+10	1	-1E+10	1	-1E+10	1	-1E+10	1
4901784	118	C	09/27/2018	10:50	-132.301	42.898	0	162.10	0	8.2000	0	33.8460	8	26.341	0	160.752	0	199.0	4	69.1	4	-1E+10	1	-1E+10	1	-1E+10	1	-1E+10	1	-1E+10	1	-1E+10	1
4901784	118	C	09/27/2018	10:50	-132.301	42.898	0	164.80	0	8.2650	0	33.9300	8	26.397	0	163.429	0	195.1	4	67.9	4	-1E+10	1	-1E+10	1	-1E+10	1	-1E+10	1	-1E+10	1	-1E+10	1
4901784	118	C	09/27/2018	10:50	-132.301	42.898	0	167.00	0	8.2810	0	33.9460	8	26.407	0	165.610	0	192.7	4	67.1	4	-1E+10	1	-1E+10	1	-1E+10	1	-1E+10	1	-1E+10	1	-1E+10	1
4901784	118	C	09/27/2018	10:50	-132.301	42.898	0	170.10	0	8.3220	0	34.0110	8	26.452	0	168.682	0	189.5	4	66.0	4	-1E+10	1	-1E+10	1	-1E+10	1	-1E+10	1	-1E+10	1	-1E+10	1
4901784	118	C	09/27/2018	10:50	-132.301	42.898	0	172.50	0	8.3370	0	34.0320	8	26.466	0	171.061	0	187.5	4	65.4	4	-1E+10	1	-1E+10	1	-1E+10	1	-1E+10	1	-1E+10	1	-1E+10	1
4901784	118	C	09/27/2018	10:50	-132.301	42.898	0	174.90	0	8.3520	0	34.0540	8	26.481	0	173.440	0	185.3	4	64.7	4	-1E+10	1	-1E+10	1	-1E+10	1	-1E+10	1	-1E+10	1	-1E+10	1
4901784	118	C	09/27/2018	10:50	-132.301	42.898	0	177.30	0	8.3760	0	34.0930	8	26.508	0	175.819	0	182.9	4	63.8	4	-1E+10	1	-1E+10	1	-1E+10	1	-1E+10	1	-1E+10	1	-1E+10	1
4901784	118	C	09/27/2018	10:50	-132.301	42.898	0	179.80	0	8.3810	0	34.1120	8	26.522	0	178.297	0	180.8	4	63.2	4	-1E+10	1	-1E+10	1	-1E+10	1	-1E+10	1	-1E+10	1	-1E+10	1
4901784	118	C	09/27/2018	10:50	-132.301	42.898	0	182.20	0	8.3880	0	34.1360	8	26.540	0	180.676	0	179.2	4	62.6	4	-1E+10	1	-1E+10	1	-1E+10	1	-1E+10	1	-1E+10	1	-1E+10	1
4901784	118	C	09/27/2018	10:50	-132.301	42.898	0	184.70	0	8.3820	0	34.1500	8	26.552	0	183.154	0	177.8	4	62.1	4	-1E+10	1	-1E+10	1	-1E+10	1	-1E+10	1	-1E+10	1	-1E+10	1
4901784	118	C	09/27/2018	10:50	-132.301	42.898	0	187.20	0	8.3660	0	34.1670	8	26.568	0	185.632	0	176.2	4	61.5	4	-1E+10	1	-1E+10	1	-1E+10	1	-1E+10	1	-1E+10	1	-1E+10	1
4901784	118	C	09/27/2018	10:50	-132.301	42.898	0	189.90	0	8.3390	0	34.1790	8	26.581	0	188.308	0	175.0	4	61.1	4	-1E+10	1	-1E+10	1	-1E+10	1	-1E+10	1	-1E+10	1	-1E+10	1
4901784	118	C	09/27/2018	10:50	-132.301	42.898	0	192.40	0	8.2980	0	34.1880	8	26.595	0	190.786	0	174.0	4	60.7	4	-1E+10	1	-1E+10	1	-1E+10	1	-1E+10	1	-1E+10	1	-1E+10	1
4901784	118	C	09/27/2018	10:50	-132.301	42.898	0	195.00	0	8.2700	0	34.1950	8	26.604	0	193.363	0	173.1	4	60.3	4	-1E+10	1	-1E+10	1	-1E+10	1	-1E+10	1	-1E+10	1	-1E+10	1
4901784	118	C	09/27/2018	10:50	-132.301	42.898	0	197.50	0	8.2430	0	34.1970	8	26.610	0	195.841	0	172.4	4	60.1	4	-1E+10	1	-1E+10	1	-1E+10	1	-1E+10	1	-1E+10	1	-1E+10	1
4901784	118	C	09/27/2018	10:50	-132.301	42.898	0	200.00	0	8.2090	0	34.1990	8	26.617	0	198.319	0	171.5	4	59.7	4	-1E+10	1	-1E+10	1	-1E+10	1	-1E+10	1	-1E+10	1	-1E+10	1
4901784	118	C	09/27/2018	10:50	-132.301	42.898	0	202.50	0	8.1550	0	34.1970	8	26.623	0	200.797	0	170.7	4	59.3	4	-1E+10	1	-1E+10	1	-1E+10	1	-1E+10	1	-1E+10	1	-1E+10	1
4901784	118	C	09/27/2018	10:50	-132.301	42.898	0	205.10	0	8.1420	0	34.1980	8	26.626	0	203.374	0	170.2	4	59.2	4	-1E+10	1	-1E+10	1	-1E+10	1	-1E+10	1	-1E+10	1	-1E+10	1
4901784	118	C	09/27/2018	10:50	-132.301	42.898	0	207.70	0	8.1340	0	34.1970	8	26.627	0	205.950	0	169.4	4	58.9	4	-1E+10	1	-1E+10	1	-1E+10	1	-1E+10	1	-1E+10	1	-1E+10	1
4901784	118	C	09/27/2018	10:50	-132.301	42.898	0	210.20	0	8.0860	0	34.1970	8	26.634	0	208.428	0	168.3	4	58.4	4	-1E+10	1	-1E+10	1	-1E+10	1	-1E+10	1	-1E+10	1	-1E+10	1
4901784	118	C	09/27/2018	10:50	-132.301	42.898	0	212.70	0	8.0420	0	34.1960	8	26.640	0	210.906	0	167.5	4	58.1	4	-1E+10	1	-1E+10	1	-1E+10	1	-1E+10	1	-1E+10	1	-1E+10	1
4901784	118	C	09/27/2018	10:50	-132.301	42.898	0	215.20	0	8.0070	0	34.1960	8	26.645	0	213.383	0	166.4	4	57.7	4	-1E+10	1	-1E+10	1	-1E+10	1	-1E+10	1	-1E+10	1	-1E+10	1
4901784	118	C	09/27/2018	10:50	-132.301	42.898	0	217.80	0	7.9830	0	34.1910	8	26.644	0	215.960	0	165.4	4	57.3	4	-1E+10	1	-1E+10	1	-1E+10	1	-1E+10	1	-1E+10	1	-1E+10	1
4901784	118	C	09/27/2018	10:50	-132.301	42.898	0	220.30	0	7.9200	0	34.1920	8	26.655	0	218.438	0	164.3	4	56.8	4	-1E+10	1	-1E+10	1	-1E+10	1	-1E+10	1	-1E+10	1	-1E+10	1
4901784	118	C	09/27/2018	10:50	-132.301	42.898	0	222.90	0	7.8970	0	34.1900	8	26.656	0	221.014	0	163.3	4	56.4	4	-1E+10	1	-1E+10	1	-1E+10	1	-1E+10	1	-1E+10	1	-1E+10	1
4901784	118	C	09/27/2018	10:50	-132.301	42.898	0	224.70	0	7.8740	0	34.1900	8	26.660	0	222.798	0	162.5	4	56.1	4	-1E+10	1	-1E+10	1	-1E+10	1	-1E+10	1	-1E+10	1	-1E+10	1
4901784	118	C	09/27/2018	10:50	-132.301	42.898	0	227.40	0	7.8350	0	34.1890	8	26.665	0	225.474	0	161.1	4	55.6	4	-1E+10	1	-1E+10	1	-1E+10	1	-1E+10	1	-1E+10	1	-1E+10	1
4901784	118	C	09/27/2018	10:50	-132.301	42.898	0	230.00	0	7.7780	0	34.1900	8	26.674	0	228.050	0	159.7	4	55.1	4	-1E+10	1	-1E+10	1	-1E+10	1	-1E+10	1	-1E+10	1	-1E+10	1
4901784	118	C	09/27/2018	10:50	-132.301	42.898	0	232.70	0	7.7490	0	34.1890	8	26.677	0	230.726	0	158.5	4	54.6	4	-1E+10	1	-1E+10	1	-1E+10	1	-1E+10	1	-1E+10	1	-1E+10	1
4901784	118	C	09/27/2018	10:50	-132.301	42.898	0	235.30	0	7.7070	0	34.1890	8	26.684	0	233.302	0	157.4	4	54.2	4	-1E+10	1	-1E+10	1	-1E+10	1	-1E+10	1	-1E+10	1	-1E+10	1
4901784	118	C	09/27/2018	10:50	-132.301	42.898	0	237.00	0	7.6940	0	34.1880	8	26.685	0	234.987	0	156.5	4	53.9	4	-1E+10	1	-1E+10	1	-1E+10	1	-1E+10	1	-1E+10	1	-1E+10	1
4901784	118	C	09/27/2018	10:50	-132.301	42.898	0	239.60	0	7.6500	0	34.1890	8	26.692	0	237.563	0	155.3	4	53.4	4	-1E+10	1	-1E+10	1	-1E+10	1	-1E+10	1	-1E+10	1	-1E+10	1
4901784	118	C	09/27/2018	10:50	-132.301	42.898	0	242.10	0	7.6070	0	34.1870	8	26.696	0	240.041	0	154.0	4	52.9	4	-1E+10	1	-1E+10	1	-1E+10	1	-1E+10	1	-1E+10	1	-1E+10	1
4901784	118	C	09/27/2018	10:50	-132.301	42.898	0	244.70	0	7.5910	0	34.1860	8	26.698	0	242.617	0	152.7	4	52.4	4	-1E+10	1	-1E+10	1	-1E+10	1	-1E+10	1	-1E+10	1	-1E+10	1
4901784	118	C	09/27/2018	10:50	-132.301	42.898	0	247.30	0	7.5660	0	34.1850	8	26.701	0	245.193	0	151.1	4	51.8	4	-1E+10	1	-1E+10	1	-1E+10	1	-1E+10	1	-1E+10	1	-1E+10	1
4901784	118	C	09/27/2018	10:50	-132.301	42.898	0	249.90	0	7.5040	0	34.1840	8	26.709	0	247.770	0	149.0	4	51.1	4	-1E+10	1	-1E+10	1	-1E+10	1	-1E+10	1	-1E+10	1	-1E+10	1
4901784	118	C	09/27/2018	10:50	-132.301	42.898	0	252.30	0	7.4270	0	34.1810	8	26.718	0	250.148	0	147.2	4	50.3	4	-1E+10	1	-1E+10	1	-1E+10	1	-1E+10	1	-1E+10	1	-1E+10	1
4901784	118	C	09/27/2018	10:50	-132.301	42.898	0	255.00	0	7.3810	0	34.1800	8	26.723	0	252.823	0	145.4	4	49.7	4	-1E+10	1	-1E+10	1	-1E+10	1	-1E+10	1	-1E+10	1	-1E+10	1
4901784	118	C	09/27/2018	10:50	-132.301	42.898	0	257.60	0	7.3260	0	34.1770	8	26.729	0	255.399	0	143.5	4	49.0	4	-1E+10	1	-1E+10	1	-1E+10	1	-1E+10	1	-1E+10	1	-1E+10	1
4901784	118	C	09/27/2018	10:50	-132.301	42.898	0	260.20	0	7.2710	0	34.1750	8	26.735	0	257.975	0	141.3	4	48.1	4	-1E+10	1	-1E+10	1	-1E+10	1	-1E+10	1	-1E+10	1	-1E+10	1
4901784	118	C	09/27/2018	10:50	-132.301	42.898	0	262.80	0	7.2030	0	34.1740	8	26.744	0	260.551	0	139.8	4	47.6	4	-1E+10	1	-1E+10	1	-1E+10	1	-1E+10	1	-1E+10	1	-1E+10	1
4901784	118	C	09/27/2018	10:50	-132.301	42.898	0	264.60	0	7.1800	0	34.1720	8	26.745	0	262.335	0	139.1	4	47.3	4	-1E+10	1	-1E+10	1	-1E+10	1	-1E+10	1	-1E+10	1	-1E+10	1
4901784	118	C	09/27/2018	10:50	-132.301	42.898	0	267.20	0	7.1500	0	34.1730	8	26.750	0	264.911	0	138.0	4	46.9	4	-1E+10	1	-1E+10	1	-1E+10	1	-1E+10	1	-1E+10	1	-1E+10	1
4901784	118	C	09/27/2018	10:50	-132.301	42.898	0	269.70	0	7.1080	0	34.1700	8	26.754	0	267.388	0	137.0	4	46.5	4	-1E+10	1	-1E+10	1	-1E+10	1	-1E+10	1	-1E+10	1	-1E+10	1
4901784	118	C	09/27/2018	10:50	-132.301	42.898	0	272.40	0	7.0760	0	34.1700	8	26.758	0	270.063	0	135.8	4	46.1	4	-1E+10	1	-1E+10	1	-1E+10	1	-1E+10	1	-1E+10	1	-1E+10	1
4901784	118	C	09/27/2018	10:50	-132.301	42.898	0	275.00	0	7.0200	0	34.1710	8	26.767	0	272.639	0	134.6	4	45.6	4	-1E+10	1	-1E+10	1	-1E+10	1	-1E+10	1	-1E+10	1	-1E+10	1
4901784	118	C	09/27/2018	10:50	-132.301	42.898	0	277.60	0	6.9680	0	34.1690	8	26.772	0	275.215	0	133.9	4	45.3	4	-1E+10	1	-1E+10	1	-1E+10	1	-1E+10	1	-1E+10	1	-1E+10	1
4901784	118	C	09/27/2018	10:50	-132.301	42.898	0	280.10	0	6.9380	0	34.1690	8	26.776	0	277.692	0	133.3	4	45.1	4	-1E+10	1	-1E+10	1	-1E+10	1	-1E+10	1	-1E+10	1	-1E+10	1
4901784	118	C	09/27/2018	10:50	-132.301	42.898	0	282.70	0	6.9020	0	34.1690	8	26.781	0	280.268	0	132.7	4	44.8	4	-1E+10	1	-1E+10	1	-1E+10	1	-1E+10	1	-1E+10	1	-1E+10	1
4901784	118	C	09/27/2018	10:50	-132.301	42.898	0	285.20	0	6.8890	0	34.1680	8	26.782	0	282.745	0	132.0	4	44.6	4	-1E+10	1	-1E+10	1	-1E+10	1	-1E+10	1	-1E+10	1	-1E+10	1
4901784	118	C	09/27/2018	10:50	-132.301	42.898	0	287.90	0	6.8700	0	34.1670	8	26.784	0	285.419	0	131.1	4	44.3	4	-1E+10	1	-1E+10	1	-1E+10	1	-1E+10	1	-1E+10	1	-1E+10	1
4901784	118	C	09/27/2018	10:50	-132.301	42.898	0	290.40	0	6.8420	0	34.1650	8	26.786	0	287.896	0	130.0	4	43.9	4	-1E+10	1	-1E+10	1	-1E+10	1	-1E+10	1	-1E+10	1	-1E+10	1
4901784	118	C	09/27/2018	10:50	-132.301	42.898	0	292.20	0	6.7940	0	34.1670	8	26.794	0	289.679	0	129.3	4	43.6	4	-1E+10	1	-1E+10	1	-1E+10	1	-1E+10	1	-1E+10	1	-1E+10	1
4901784	118	C	09/27/2018	10:50	-132.301	42.898	0	294.80	0	6.7610	0	34.1650	8	26.797	0	292.255	0	128.5	4	43.3	4	-1E+10	1	-1E+10	1	-1E+10	1	-1E+10	1	-1E+10	1	-1E+10	1
4901784	118	C	09/27/2018	10:50	-132.301	42.898	0	297.40	0	6.7110	0	34.1660	8	26.805	0	294.831	0	127.8	4	43.0	4	-1E+10	1	-1E+10	1	-1E+10	1	-1E+10	1	-1E+10	1	-1E+10	1
4901784	118	C	09/27/2018	10:50	-132.301	42.898	0	300.00	0	6.6930	0	34.1650	8	26.807	0	297.407	0	127.2	4	42.8	4	-1E+10	1	-1E+10	1	-1E+10	1	-1E+10	1	-1E+10	1	-1E+10	1
4901784	118	C	09/27/2018	10:50	-132.301	42.898	0	302.60	0	6.6870	0	34.1640	8	26.807	0	299.982	0	126.5	4	42.5	4	-1E+10	1	-1E+10	1	-1E+10	1	-1E+10	1	-1E+10	1	-1E+10	1
4901784	118	C	09/27/2018	10:50	-132.301	42.898	0	305.10	0	6.6560	0	34.1640	8	26.811	0	302.459	0	125.6	4	42.2	4	-1E+10	1	-1E+10	1	-1E+10	1	-1E+10	1	-1E+10	1	-1E+10	1
4901784	118	C	09/27/2018	10:50	-132.301	42.898	0	307.60	0	6.6210	0	34.1630	8	26.815	0	304.935	0	124.7	4	41.9	4	-1E+10	1	-1E+10	1	-1E+10	1	-1E+10	1	-1E+10	1	-1E+10	1
4901784	118	C	09/27/2018	10:50	-132.301	42.898	0	310.20	0	6.5930	0	34.1630	8	26.818	0	307.511	0	123.9	4	41.6	4	-1E+10	1	-1E+10	1	-1E+10	1	-1E+10	1	-1E+10	1	-1E+10	1
4901784	118	C	09/27/2018	10:50	-132.301	42.898	0	312.80	0	6.5550	0	34.1620	8	26.823	0	310.086	0	123.0	4	41.2	4	-1E+10	1	-1E+10	1	-1E+10	1	-1E+10	1	-1E+10	1	-1E+10	1
4901784	118	C	09/27/2018	10:50	-132.301	42.898	0	314.50	0	6.5430	0	34.1620	8	26.824	0	311.770	0	122.3	4	41.0	4	-1E+10	1	-1E+10	1	-1E+10	1	-1E+10	1	-1E+10	1	-1E+10	1
4901784	118	C	09/27/2018	10:50	-132.301	42.898	0	317.20	0	6.5100	0	34.1610	8	26.828	0	314.445	0	121.3	4	40.6	4	-1E+10	1	-1E+10	1	-1E+10	1	-1E+10	1	-1E+10	1	-1E+10	1
4901784	118	C	09/27/2018	10:50	-132.301	42.898	0	319.80	0	6.4870	0	34.1610	8	26.831	0	317.020	0	120.1	4	40.2	4	-1E+10	1	-1E+10	1	-1E+10	1	-1E+10	1	-1E+10	1	-1E+10	1
4901784	118	C	09/27/2018	10:50	-132.301	42.898	0	322.50	0	6.4590	0	34.1570	8	26.831	0	319.695	0	118.5	4	39.6	4	-1E+10	1	-1E+10	1	-1E+10	1	-1E+10	1	-1E+10	1	-1E+10	1
4901784	118	C	09/27/2018	10:50	-132.301	42.898	0	325.20	0	6.3910	0	34.1550	8	26.839	0	322.369	0	116.8	4	39.0	4	-1E+10	1	-1E+10	1	-1E+10	1	-1E+10	1	-1E+10	1	-1E+10	1
4901784	118	C	09/27/2018	10:50	-132.301	42.898	0	327.80	0	6.3510	0	34.1540	8	26.843	0	324.944	0	115.2	4	38.4	4	-1E+10	1	-1E+10	1	-1E+10	1	-1E+10	1	-1E+10	1	-1E+10	1
4901784	118	C	09/27/2018	10:50	-132.301	42.898	0	330.50	0	6.2900	0	34.1540	8	26.851	0	327.619	0	113.3	4	37.8	4	-1E+10	1	-1E+10	1	-1E+10	1	-1E+10	1	-1E+10	1	-1E+10	1
4901784	118	C	09/27/2018	10:50	-132.301	42.898	0	332.30	0	6.2530	0	34.1550	8	26.857	0	329.402	0	112.3	4	37.4	4	-1E+10	1	-1E+10	1	-1E+10	1	-1E+10	1	-1E+10	1	-1E+10	1
4901784	118	C	09/27/2018	10:50	-132.301	42.898	0	335.00	0	6.1970	0	34.1550	8	26.864	0	332.076	0	110.5	4	36.7	4	-1E+10	1	-1E+10	1	-1E+10	1	-1E+10	1	-1E+10	1	-1E+10	1
4901784	118	C	09/27/2018	10:50	-132.301	42.898	0	337.70	0	6.1550	0	34.1540	8	26.868	0	334.750	0	109.0	4	36.2	4	-1E+10	1	-1E+10	1	-1E+10	1	-1E+10	1	-1E+10	1	-1E+10	1
4901784	118	C	09/27/2018	10:50	-132.301	42.898	0	339.50	0	6.1140	0	34.1540	8	26.874	0	336.533	0	108.1	4	35.9	4	-1E+10	1	-1E+10	1	-1E+10	1	-1E+10	1	-1E+10	1	-1E+10	1
4901784	118	C	09/27/2018	10:50	-132.301	42.898	0	342.30	0	6.0950	0	34.1540	8	26.876	0	339.306	0	107.0	4	35.5	4	-1E+10	1	-1E+10	1	-1E+10	1	-1E+10	1	-1E+10	1	-1E+10	1
4901784	118	C	09/27/2018	10:50	-132.301	42.898	0	345.00	0	6.0740	0	34.1530	8	26.878	0	341.980	0	105.9	4	35.1	4	-1E+10	1	-1E+10	1	-1E+10	1	-1E+10	1	-1E+10	1	-1E+10	1
4901784	118	C	09/27/2018	10:50	-132.301	42.898	0	347.80	0	6.0540	0	34.1520	8	26.880	0	344.754	0	104.2	4	34.5	4	-1E+10	1	-1E+10	1	-1E+10	1	-1E+10	1	-1E+10	1	-1E+10	1
4901784	118	C	09/27/2018	10:50	-132.301	42.898	0	350.50	0	5.9900	0	34.1540	8	26.889	0	347.428	0	102.3	4	33.8	4	-1E+10	1	-1E+10	1	-1E+10	1	-1E+10	1	-1E+10	1	-1E+10	1
4901784	118	C	09/27/2018	10:50	-132.301	42.898	0	352.40	0	5.9710	0	34.1530	8	26.891	0	349.309	0	101.3	4	33.5	4	-1E+10	1	-1E+10	1	-1E+10	1	-1E+10	1	-1E+10	1	-1E+10	1
4901784	118	C	09/27/2018	10:50	-132.301	42.898	0	355.20	0	5.9300	0	34.1530	8	26.896	0	352.082	0	99.5	4	32.9	4	-1E+10	1	-1E+10	1	-1E+10	1	-1E+10	1	-1E+10	1	-1E+10	1
4901784	118	C	09/27/2018	10:50	-132.301	42.898	0	357.90	0	5.8840	0	34.1530	8	26.902	0	354.756	0	97.7	4	32.2	4	-1E+10	1	-1E+10	1	-1E+10	1	-1E+10	1	-1E+10	1	-1E+10	1
4901784	118	C	09/27/2018	10:50	-132.301	42.898	0	359.80	0	5.8410	0	34.1540	8	26.908	0	356.638	0	96.5	4	31.8	4	-1E+10	1	-1E+10	1	-1E+10	1	-1E+10	1	-1E+10	1	-1E+10	1
4901784	118	C	09/27/2018	10:50	-132.301	42.898	0	362.60	0	5.7940	0	34.1570	8	26.916	0	359.411	0	94.9	4	31.3	4	-1E+10	1	-1E+10	1	-1E+10	1	-1E+10	1	-1E+10	1	-1E+10	1
4901784	118	C	09/27/2018	10:50	-132.301	42.898	0	365.40	0	5.7550	0	34.1570	8	26.921	0	362.184	0	93.6	4	30.8	4	-1E+10	1	-1E+10	1	-1E+10	1	-1E+10	1	-1E+10	1	-1E+10	1
4901784	118	C	09/27/2018	10:50	-132.301	42.898	0	367.30	0	5.7380	0	34.1570	8	26.923	0	364.066	0	92.9	4	30.5	4	-1E+10	1	-1E+10	1	-1E+10	1	-1E+10	1	-1E+10	1	-1E+10	1
4901784	118	C	09/27/2018	10:50	-132.301	42.898	0	370.20	0	5.7310	0	34.1570	8	26.924	0	366.938	0	91.4	4	30.0	4	-1E+10	1	-1E+10	1	-1E+10	1	-1E+10	1	-1E+10	1	-1E+10	1
4901784	118	C	09/27/2018	10:50	-132.301	42.898	0	373.00	0	5.6820	0	34.1600	8	26.932	0	369.710	0	89.5	4	29.4	4	-1E+10	1	-1E+10	1	-1E+10	1	-1E+10	1	-1E+10	1	-1E+10	1
4901784	118	C	09/27/2018	10:50	-132.301	42.898	0	374.90	0	5.6630	0	34.1600	8	26.935	0	371.592	0	88.6	4	29.1	4	-1E+10	1	-1E+10	1	-1E+10	1	-1E+10	1	-1E+10	1	-1E+10	1
4901784	118	C	09/27/2018	10:50	-132.301	42.898	0	376.90	0	5.6320	0	34.1610	8	26.939	0	373.572	0	87.8	4	28.8	4	-1E+10	1	-1E+10	1	-1E+10	1	-1E+10	1	-1E+10	1	-1E+10	1
4901784	118	C	09/27/2018	10:50	-132.301	42.898	0	379.70	0	5.6090	0	34.1620	8	26.943	0	376.345	0	86.8	4	28.5	4	-1E+10	1	-1E+10	1	-1E+10	1	-1E+10	1	-1E+10	1	-1E+10	1
4901784	118	C	09/27/2018	10:50	-132.301	42.898	0	382.60	0	5.5820	0	34.1630	8	26.947	0	379.217	0	85.9	4	28.1	4	-1E+10	1	-1E+10	1	-1E+10	1	-1E+10	1	-1E+10	1	-1E+10	1
4901784	118	C	09/27/2018	10:50	-132.301	42.898	0	384.60	0	5.5490	0	34.1600	8	26.949	0	381.197	0	85.3	4	27.9	4	-1E+10	1	-1E+10	1	-1E+10	1	-1E+10	1	-1E+10	1	-1E+10	1
4901784	118	C	09/27/2018	10:50	-132.301	42.898	0	387.40	0	5.5240	0	34.1620	8	26.953	0	383.970	0	83.8	4	27.4	4	-1E+10	1	-1E+10	1	-1E+10	1	-1E+10	1	-1E+10	1	-1E+10	1
4901784	118	C	09/27/2018	10:50	-132.301	42.898	0	390.30	0	5.4920	0	34.1630	8	26.958	0	386.842	0	82.4	4	27.0	4	-1E+10	1	-1E+10	1	-1E+10	1	-1E+10	1	-1E+10	1	-1E+10	1
4901784	118	C	09/27/2018	10:50	-132.301	42.898	0	392.70	0	5.4380	0	34.1650	8	26.966	0	389.218	0	81.6	4	26.6	4	-1E+10	1	-1E+10	1	-1E+10	1	-1E+10	1	-1E+10	1	-1E+10	1
4901784	118	C	09/27/2018	10:50	-132.301	42.898	0	394.60	0	5.4120	0	34.1640	8	26.968	0	391.099	0	80.8	4	26.4	4	-1E+10	1	-1E+10	1	-1E+10	1	-1E+10	1	-1E+10	1	-1E+10	1
4901784	118	C	09/27/2018	10:50	-132.301	42.898	0	397.10	0	5.3590	0	34.1670	8	26.977	0	393.575	0	80.1	4	26.1	4	-1E+10	1	-1E+10	1	-1E+10	1	-1E+10	1	-1E+10	1	-1E+10	1
4901784	118	C	09/27/2018	10:50	-132.301	42.898	0	400.30	0	5.2950	0	34.1650	8	26.983	0	396.743	0	79.2	4	25.8	4	-1E+10	1	-1E+10	1	-1E+10	1	-1E+10	1	-1E+10	1	-1E+10	1
4901784	118	C	09/27/2018	10:50	-132.301	42.898	0	402.80	0	5.2670	0	34.1690	8	26.989	0	399.219	0	77.2	4	25.1	4	-1E+10	1	-1E+10	1	-1E+10	1	-1E+10	1	-1E+10	1	-1E+10	1
4901784	118	C	09/27/2018	10:50	-132.301	42.898	0	405.30	0	5.2560	0	34.1720	8	26.993	0	401.694	0	76.2	4	24.8	4	-1E+10	1	-1E+10	1	-1E+10	1	-1E+10	1	-1E+10	1	-1E+10	1
4901784	118	C	09/27/2018	10:50	-132.301	42.898	0	407.70	0	5.2390	0	34.1730	8	26.996	0	404.071	0	75.3	4	24.5	4	-1E+10	1	-1E+10	1	-1E+10	1	-1E+10	1	-1E+10	1	-1E+10	1
4901784	118	C	09/27/2018	10:50	-132.301	42.898	0	410.20	0	5.2290	0	34.1750	8	26.999	0	406.546	0	74.4	4	24.2	4	-1E+10	1	-1E+10	1	-1E+10	1	-1E+10	1	-1E+10	1	-1E+10	1
4901784	118	C	09/27/2018	10:50	-132.301	42.898	0	412.60	0	5.2190	0	34.1770	8	27.001	0	408.922	0	73.8	4	24.0	4	-1E+10	1	-1E+10	1	-1E+10	1	-1E+10	1	-1E+10	1	-1E+10	1
4901784	118	C	09/27/2018	10:50	-132.301	42.898	0	415.10	0	5.1990	0	34.1780	8	27.005	0	411.397	0	73.1	4	23.7	4	-1E+10	1	-1E+10	1	-1E+10	1	-1E+10	1	-1E+10	1	-1E+10	1
4901784	118	C	09/27/2018	10:50	-132.301	42.898	0	417.60	0	5.1920	0	34.1790	8	27.006	0	413.873	0	72.8	4	23.7	4	-1E+10	1	-1E+10	1	-1E+10	1	-1E+10	1	-1E+10	1	-1E+10	1
4901784	118	C	09/27/2018	10:50	-132.301	42.898	0	420.00	0	5.1660	0	34.1790	8	27.009	0	416.249	0	72.7	4	23.6	4	-1E+10	1	-1E+10	1	-1E+10	1	-1E+10	1	-1E+10	1	-1E+10	1
4901784	118	C	09/27/2018	10:50	-132.301	42.898	0	422.50	0	5.1370	0	34.1780	8	27.012	0	418.724	0	72.3	4	23.5	4	-1E+10	1	-1E+10	1	-1E+10	1	-1E+10	1	-1E+10	1	-1E+10	1
4901784	118	C	09/27/2018	10:50	-132.301	42.898	0	424.90	0	5.1130	0	34.1800	8	27.016	0	421.100	0	71.7	4	23.2	4	-1E+10	1	-1E+10	1	-1E+10	1	-1E+10	1	-1E+10	1	-1E+10	1
4901784	118	C	09/27/2018	10:50	-132.301	42.898	0	427.40	0	5.0970	0	34.1820	8	27.020	0	423.575	0	71.1	4	23.0	4	-1E+10	1	-1E+10	1	-1E+10	1	-1E+10	1	-1E+10	1	-1E+10	1
4901784	118	C	09/27/2018	10:50	-132.301	42.898	0	429.90	0	5.0890	0	34.1820	8	27.021	0	426.050	0	70.8	4	22.9	4	-1E+10	1	-1E+10	1	-1E+10	1	-1E+10	1	-1E+10	1	-1E+10	1
4901784	118	C	09/27/2018	10:50	-132.301	42.898	0	432.40	0	5.0750	0	34.1820	8	27.022	0	428.525	0	70.4	4	22.8	4	-1E+10	1	-1E+10	1	-1E+10	1	-1E+10	1	-1E+10	1	-1E+10	1
4901784	118	C	09/27/2018	10:50	-132.301	42.898	0	434.80	0	5.0460	0	34.1830	8	27.026	0	430.901	0	70.2	4	22.7	4	-1E+10	1	-1E+10	1	-1E+10	1	-1E+10	1	-1E+10	1	-1E+10	1
4901784	118	C	09/27/2018	10:50	-132.301	42.898	0	437.30	0	5.0310	0	34.1830	8	27.028	0	433.376	0	69.7	4	22.5	4	-1E+10	1	-1E+10	1	-1E+10	1	-1E+10	1	-1E+10	1	-1E+10	1
4901784	118	C	09/27/2018	10:50	-132.301	42.898	0	439.70	0	5.0060	0	34.1840	8	27.032	0	435.752	0	69.1	4	22.3	4	-1E+10	1	-1E+10	1	-1E+10	1	-1E+10	1	-1E+10	1	-1E+10	1
4901784	118	C	09/27/2018	10:50	-132.301	42.898	0	442.20	0	4.9840	0	34.1870	8	27.037	0	438.227	0	68.4	4	22.1	4	-1E+10	1	-1E+10	1	-1E+10	1	-1E+10	1	-1E+10	1	-1E+10	1
4901784	118	C	09/27/2018	10:50	-132.301	42.898	0	444.70	0	4.9560	0	34.1890	8	27.041	0	440.702	0	68.2	4	22.0	4	-1E+10	1	-1E+10	1	-1E+10	1	-1E+10	1	-1E+10	1	-1E+10	1
4901784	118	C	09/27/2018	10:50	-132.301	42.898	0	447.20	0	4.9250	0	34.1900	8	27.046	0	443.177	0	68.0	4	22.0	4	-1E+10	1	-1E+10	1	-1E+10	1	-1E+10	1	-1E+10	1	-1E+10	1
4901784	118	C	09/27/2018	10:50	-132.301	42.898	0	449.70	0	4.9190	0	34.1910	8	27.047	0	445.652	0	67.6	4	21.8	4	-1E+10	1	-1E+10	1	-1E+10	1	-1E+10	1	-1E+10	1	-1E+10	1
4901784	118	C	09/27/2018	10:50	-132.301	42.898	0	452.30	0	4.9080	0	34.1910	8	27.048	0	448.225	0	67.0	4	21.6	4	-1E+10	1	-1E+10	1	-1E+10	1	-1E+10	1	-1E+10	1	-1E+10	1
4901784	118	C	09/27/2018	10:50	-132.301	42.898	0	454.80	0	4.8870	0	34.1940	8	27.053	0	450.700	0	66.4	4	21.4	4	-1E+10	1	-1E+10	1	-1E+10	1	-1E+10	1	-1E+10	1	-1E+10	1
4901784	118	C	09/27/2018	10:50	-132.301	42.898	0	457.30	0	4.8690	0	34.1950	8	27.056	0	453.175	0	66.1	4	21.3	4	-1E+10	1	-1E+10	1	-1E+10	1	-1E+10	1	-1E+10	1	-1E+10	1
4901784	118	C	09/27/2018	10:50	-132.301	42.898	0	459.90	0	4.8390	0	34.1970	8	27.061	0	455.749	0	66.4	4	21.4	4	-1E+10	1	-1E+10	1	-1E+10	1	-1E+10	1	-1E+10	1	-1E+10	1
4901784	118	C	09/27/2018	10:50	-132.301	42.898	0	462.40	0	4.8200	0	34.1980	8	27.064	0	458.223	0	66.2	4	21.3	4	-1E+10	1	-1E+10	1	-1E+10	1	-1E+10	1	-1E+10	1	-1E+10	1
4901784	118	C	09/27/2018	10:50	-132.301	42.898	0	465.00	0	4.8100	0	34.1990	8	27.066	0	460.797	0	65.0	4	20.9	4	-1E+10	1	-1E+10	1	-1E+10	1	-1E+10	1	-1E+10	1	-1E+10	1
4901784	118	C	09/27/2018	10:50	-132.301	42.898	0	467.50	0	4.7850	0	34.2040	8	27.073	0	463.271	0	63.9	4	20.6	4	-1E+10	1	-1E+10	1	-1E+10	1	-1E+10	1	-1E+10	1	-1E+10	1
4901784	118	C	09/27/2018	10:50	-132.301	42.898	0	470.10	0	4.7770	0	34.2050	8	27.074	0	465.845	0	63.5	4	20.4	4	-1E+10	1	-1E+10	1	-1E+10	1	-1E+10	1	-1E+10	1	-1E+10	1
4901784	118	C	09/27/2018	10:50	-132.301	42.898	0	472.80	0	4.7650	0	34.2060	8	27.077	0	468.518	0	62.5	4	20.1	4	-1E+10	1	-1E+10	1	-1E+10	1	-1E+10	1	-1E+10	1	-1E+10	1
4901784	118	C	09/27/2018	10:50	-132.301	42.898	0	474.50	0	4.7440	0	34.2120	8	27.084	0	470.200	0	62.0	4	19.9	4	-1E+10	1	-1E+10	1	-1E+10	1	-1E+10	1	-1E+10	1	-1E+10	1
4901784	118	C	09/27/2018	10:50	-132.301	42.898	0	477.20	0	4.7260	0	34.2160	8	27.089	0	472.873	0	61.2	4	19.7	4	-1E+10	1	-1E+10	1	-1E+10	1	-1E+10	1	-1E+10	1	-1E+10	1
4901784	118	C	09/27/2018	10:50	-132.301	42.898	0	479.80	0	4.7200	0	34.2170	8	27.090	0	475.446	0	60.6	4	19.5	4	-1E+10	1	-1E+10	1	-1E+10	1	-1E+10	1	-1E+10	1	-1E+10	1
4901784	118	C	09/27/2018	10:50	-132.301	42.898	0	482.40	0	4.7130	0	34.2180	8	27.092	0	478.020	0	59.7	4	19.2	4	-1E+10	1	-1E+10	1	-1E+10	1	-1E+10	1	-1E+10	1	-1E+10	1
4901784	118	C	09/27/2018	10:50	-132.301	42.898	0	485.10	0	4.7030	0	34.2200	8	27.095	0	480.692	0	58.6	4	18.8	4	-1E+10	1	-1E+10	1	-1E+10	1	-1E+10	1	-1E+10	1	-1E+10	1
4901784	118	C	09/27/2018	10:50	-132.301	42.898	0	487.80	0	4.6850	0	34.2250	8	27.101	0	483.364	0	57.1	4	18.3	4	-1E+10	1	-1E+10	1	-1E+10	1	-1E+10	1	-1E+10	1	-1E+10	1
4901784	118	C	09/27/2018	10:50	-132.301	42.898	0	490.40	0	4.6680	0	34.2280	8	27.105	0	485.938	0	55.9	4	17.9	4	-1E+10	1	-1E+10	1	-1E+10	1	-1E+10	1	-1E+10	1	-1E+10	1
4901784	118	C	09/27/2018	10:50	-132.301	42.898	0	492.30	0	4.6610	0	34.2300	8	27.107	0	487.818	0	55.2	4	17.7	4	-1E+10	1	-1E+10	1	-1E+10	1	-1E+10	1	-1E+10	1	-1E+10	1
4901784	118	C	09/27/2018	10:50	-132.301	42.898	0	495.00	0	4.6430	0	34.2350	8	27.113	0	490.490	0	53.9	4	17.3	4	-1E+10	1	-1E+10	1	-1E+10	1	-1E+10	1	-1E+10	1	-1E+10	1
4901784	118	C	09/27/2018	10:50	-132.301	42.898	0	497.60	0	4.6260	0	34.2400	8	27.119	0	493.063	0	52.9	4	17.0	4	-1E+10	1	-1E+10	1	-1E+10	1	-1E+10	1	-1E+10	1	-1E+10	1
4901784	118	C	09/27/2018	10:50	-132.301	42.898	0	499.50	0	4.6200	0	34.2410	8	27.121	0	494.944	0	52.4	4	16.8	4	-1E+10	1	-1E+10	1	-1E+10	1	-1E+10	1	-1E+10	1	-1E+10	1
4901784	118	C	09/27/2018	10:50	-132.301	42.898	0	505.00	0	4.6060	0	34.2450	8	27.125	0	500.387	0	50.7	4	16.2	4	-1E+10	1	-1E+10	1	-1E+10	1	-1E+10	1	-1E+10	1	-1E+10	1
4901784	118	C	09/27/2018	10:50	-132.301	42.898	0	510.60	0	4.5890	0	34.2500	8	27.131	0	505.929	0	48.8	4	15.7	4	-1E+10	1	-1E+10	1	-1E+10	1	-1E+10	1	-1E+10	1	-1E+10	1
4901784	118	C	09/27/2018	10:50	-132.301	42.898	0	515.90	0	4.5680	0	34.2570	8	27.139	0	511.174	0	47.4	4	15.2	4	-1E+10	1	-1E+10	1	-1E+10	1	-1E+10	1	-1E+10	1	-1E+10	1
4901784	118	C	09/27/2018	10:50	-132.301	42.898	0	520.20	0	4.5620	0	34.2590	8	27.141	0	515.429	0	46.7	4	15.0	4	-1E+10	1	-1E+10	1	-1E+10	1	-1E+10	1	-1E+10	1	-1E+10	1
4901784	118	C	09/27/2018	10:50	-132.301	42.898	0	525.00	0	4.5580	0	34.2610	8	27.143	0	520.179	0	45.7	4	14.6	4	-1E+10	1	-1E+10	1	-1E+10	1	-1E+10	1	-1E+10	1	-1E+10	1
4901784	118	C	09/27/2018	10:50	-132.301	42.898	0	529.80	0	4.5470	0	34.2650	8	27.148	0	524.929	0	44.4	4	14.2	4	-1E+10	1	-1E+10	1	-1E+10	1	-1E+10	1	-1E+10	1	-1E+10	1
4901784	118	C	09/27/2018	10:50	-132.301	42.898	0	534.60	0	4.5420	0	34.2680	8	27.151	0	529.679	0	43.2	4	13.8	4	-1E+10	1	-1E+10	1	-1E+10	1	-1E+10	1	-1E+10	1	-1E+10	1
4901784	118	C	09/27/2018	10:50	-132.301	42.898	0	539.40	0	4.5260	0	34.2720	8	27.156	0	534.429	0	41.4	4	13.3	4	-1E+10	1	-1E+10	1	-1E+10	1	-1E+10	1	-1E+10	1	-1E+10	1
4901784	118	C	09/27/2018	10:50	-132.301	42.898	0	544.30	0	4.5120	0	34.2790	8	27.163	0	539.277	0	40.0	4	12.8	4	-1E+10	1	-1E+10	1	-1E+10	1	-1E+10	1	-1E+10	1	-1E+10	1
4901784	118	C	09/27/2018	10:50	-132.301	42.898	0	549.30	0	4.4960	0	34.2840	8	27.169	0	544.224	0	38.8	4	12.4	4	-1E+10	1	-1E+10	1	-1E+10	1	-1E+10	1	-1E+10	1	-1E+10	1
4901784	118	C	09/27/2018	10:50	-132.301	42.898	0	554.30	0	4.4680	0	34.2870	8	27.174	0	549.172	0	37.9	4	12.1	4	-1E+10	1	-1E+10	1	-1E+10	1	-1E+10	1	-1E+10	1	-1E+10	1
4901784	118	C	09/27/2018	10:50	-132.301	42.898	0	559.30	0	4.4590	0	34.2910	8	27.178	0	554.119	0	36.8	4	11.7	4	-1E+10	1	-1E+10	1	-1E+10	1	-1E+10	1	-1E+10	1	-1E+10	1
4901784	118	C	09/27/2018	10:50	-132.301	42.898	0	564.30	0	4.4480	0	34.2960	8	27.183	0	559.066	0	35.5	4	11.4	4	-1E+10	1	-1E+10	1	-1E+10	1	-1E+10	1	-1E+10	1	-1E+10	1
4901784	118	C	09/27/2018	10:50	-132.301	42.898	0	569.30	0	4.4410	0	34.3010	8	27.188	0	564.013	0	34.4	4	11.0	4	-1E+10	1	-1E+10	1	-1E+10	1	-1E+10	1	-1E+10	1	-1E+10	1
4901784	118	C	09/27/2018	10:50	-132.301	42.898	0	574.30	0	4.4190	0	34.3070	8	27.195	0	568.959	0	33.7	4	10.8	4	-1E+10	1	-1E+10	1	-1E+10	1	-1E+10	1	-1E+10	1	-1E+10	1
4901784	118	C	09/27/2018	10:50	-132.301	42.898	0	579.30	0	4.3900	0	34.3070	8	27.199	0	573.906	0	33.5	4	10.7	4	-1E+10	1	-1E+10	1	-1E+10	1	-1E+10	1	-1E+10	1	-1E+10	1
4901784	118	C	09/27/2018	10:50	-132.301	42.898	0	584.40	0	4.3800	0	34.3100	8	27.202	0	578.951	0	32.7	4	10.4	4	-1E+10	1	-1E+10	1	-1E+10	1	-1E+10	1	-1E+10	1	-1E+10	1
4901784	118	C	09/27/2018	10:50	-132.301	42.898	0	589.60	0	4.3680	0	34.3140	8	27.207	0	584.096	0	31.6	4	10.1	4	-1E+10	1	-1E+10	1	-1E+10	1	-1E+10	1	-1E+10	1	-1E+10	1
4901784	118	C	09/27/2018	10:50	-132.301	42.898	0	594.80	0	4.3650	0	34.3200	8	27.212	0	589.240	0	29.9	4	9.5	4	-1E+10	1	-1E+10	1	-1E+10	1	-1E+10	1	-1E+10	1	-1E+10	1
4901784	118	C	09/27/2018	10:50	-132.301	42.898	0	600.00	0	4.3820	0	34.3290	8	27.217	0	594.384	0	27.7	4	8.8	4	-1E+10	1	-1E+10	1	-1E+10	1	-1E+10	1	-1E+10	1	-1E+10	1
4901784	118	C	09/27/2018	10:50	-132.301	42.898	0	605.20	0	4.3980	0	34.3390	8	27.223	0	599.527	0	26.3	4	8.4	4	-1E+10	1	-1E+10	1	-1E+10	1	-1E+10	1	-1E+10	1	-1E+10	1
4901784	118	C	09/27/2018	10:50	-132.301	42.898	0	610.50	0	4.3900	0	34.3440	8	27.228	0	604.770	0	24.8	4	7.9	4	-1E+10	1	-1E+10	1	-1E+10	1	-1E+10	1	-1E+10	1	-1E+10	1
4901784	118	C	09/27/2018	10:50	-132.301	42.898	0	614.90	0	4.3790	0	34.3530	8	27.237	0	609.122	0	23.5	4	7.5	4	-1E+10	1	-1E+10	1	-1E+10	1	-1E+10	1	-1E+10	1	-1E+10	1
4901784	118	C	09/27/2018	10:50	-132.301	42.898	0	619.30	0	4.3790	0	34.3600	8	27.242	0	613.475	0	22.7	4	7.2	4	-1E+10	1	-1E+10	1	-1E+10	1	-1E+10	1	-1E+10	1	-1E+10	1
4901784	118	C	09/27/2018	10:50	-132.301	42.898	0	624.60	0	4.3450	0	34.3640	8	27.249	0	618.717	0	21.9	4	7.0	4	-1E+10	1	-1E+10	1	-1E+10	1	-1E+10	1	-1E+10	1	-1E+10	1
4901784	118	C	09/27/2018	10:50	-132.301	42.898	0	630.00	0	4.3450	0	34.3720	8	27.255	0	624.058	0	20.6	4	6.6	4	-1E+10	1	-1E+10	1	-1E+10	1	-1E+10	1	-1E+10	1	-1E+10	1
4901784	118	C	09/27/2018	10:50	-132.301	42.898	0	635.50	0	4.3180	0	34.3780	8	27.263	0	629.498	0	20.2	4	6.4	4	-1E+10	1	-1E+10	1	-1E+10	1	-1E+10	1	-1E+10	1	-1E+10	1
4901784	118	C	09/27/2018	10:50	-132.301	42.898	0	640.10	0	4.2960	0	34.3820	8	27.269	0	634.047	0	19.9	4	6.3	4	-1E+10	1	-1E+10	1	-1E+10	1	-1E+10	1	-1E+10	1	-1E+10	1
4901784	118	C	09/27/2018	10:50	-132.301	42.898	0	644.60	0	4.2670	0	34.3830	8	27.273	0	638.498	0	19.8	4	6.3	4	-1E+10	1	-1E+10	1	-1E+10	1	-1E+10	1	-1E+10	1	-1E+10	1
4901784	118	C	09/27/2018	10:50	-132.301	42.898	0	650.20	0	4.2270	0	34.3880	8	27.281	0	644.036	0	19.4	4	6.2	4	-1E+10	1	-1E+10	1	-1E+10	1	-1E+10	1	-1E+10	1	-1E+10	1
4901784	118	C	09/27/2018	10:50	-132.301	42.898	0	654.80	0	4.2070	0	34.3920	8	27.286	0	648.585	0	19.0	4	6.0	4	-1E+10	1	-1E+10	1	-1E+10	1	-1E+10	1	-1E+10	1	-1E+10	1
4901784	118	C	09/27/2018	10:50	-132.301	42.898	0	659.50	0	4.1960	0	34.3950	8	27.290	0	653.233	0	18.6	4	5.9	4	-1E+10	1	-1E+10	1	-1E+10	1	-1E+10	1	-1E+10	1	-1E+10	1
4901784	118	C	09/27/2018	10:50	-132.301	42.898	0	665.10	0	4.1780	0	34.4010	8	27.296	0	658.771	0	18.1	4	5.7	4	-1E+10	1	-1E+10	1	-1E+10	1	-1E+10	1	-1E+10	1	-1E+10	1
4901784	118	C	09/27/2018	10:50	-132.301	42.898	0	669.80	0	4.1730	0	34.4060	8	27.301	0	663.419	0	17.7	4	5.6	4	-1E+10	1	-1E+10	1	-1E+10	1	-1E+10	1	-1E+10	1	-1E+10	1
4901784	118	C	09/27/2018	10:50	-132.301	42.898	0	674.40	0	4.1650	0	34.4080	8	27.303	0	667.968	0	17.5	4	5.5	4	-1E+10	1	-1E+10	1	-1E+10	1	-1E+10	1	-1E+10	1	-1E+10	1
4901784	118	C	09/27/2018	10:50	-132.301	42.898	0	680.00	0	4.1540	0	34.4120	8	27.308	0	673.505	0	17.1	4	5.4	4	-1E+10	1	-1E+10	1	-1E+10	1	-1E+10	1	-1E+10	1	-1E+10	1
4901784	118	C	09/27/2018	10:50	-132.301	42.898	0	684.70	0	4.1440	0	34.4150	8	27.311	0	678.153	0	16.9	4	5.4	4	-1E+10	1	-1E+10	1	-1E+10	1	-1E+10	1	-1E+10	1	-1E+10	1
4901784	118	C	09/27/2018	10:50	-132.301	42.898	0	689.40	0	4.1310	0	34.4170	8	27.314	0	682.800	0	16.6	4	5.3	4	-1E+10	1	-1E+10	1	-1E+10	1	-1E+10	1	-1E+10	1	-1E+10	1
4901784	118	C	09/27/2018	10:50	-132.301	42.898	0	695.00	0	4.1250	0	34.4210	8	27.318	0	688.337	0	16.2	4	5.2	4	-1E+10	1	-1E+10	1	-1E+10	1	-1E+10	1	-1E+10	1	-1E+10	1
4901784	118	C	09/27/2018	10:50	-132.301	42.898	0	699.70	0	4.1190	0	34.4240	8	27.321	0	692.985	0	15.9	4	5.0	4	-1E+10	1	-1E+10	1	-1E+10	1	-1E+10	1	-1E+10	1	-1E+10	1
4901784	118	C	09/27/2018	10:50	-132.301	42.898	0	705.10	0	4.0950	0	34.4300	8	27.328	0	698.324	0	15.4	4	4.9	4	-1E+10	1	-1E+10	1	-1E+10	1	-1E+10	1	-1E+10	1	-1E+10	1
4901784	118	C	09/27/2018	10:50	-132.301	42.898	0	710.30	0	4.0790	0	34.4360	8	27.335	0	703.465	0	15.1	4	4.8	4	-1E+10	1	-1E+10	1	-1E+10	1	-1E+10	1	-1E+10	1	-1E+10	1
4901784	118	C	09/27/2018	10:50	-132.301	42.898	0	715.10	0	4.0600	0	34.4410	8	27.341	0	708.211	0	14.8	4	4.7	4	-1E+10	1	-1E+10	1	-1E+10	1	-1E+10	1	-1E+10	1	-1E+10	1
4901784	118	C	09/27/2018	10:50	-132.301	42.898	0	719.80	0	4.0430	0	34.4450	8	27.346	0	712.857	0	14.6	4	4.6	4	-1E+10	1	-1E+10	1	-1E+10	1	-1E+10	1	-1E+10	1	-1E+10	1
4901784	118	C	09/27/2018	10:50	-132.301	42.898	0	724.70	0	4.0220	0	34.4500	8	27.352	0	717.702	0	14.3	4	4.5	4	-1E+10	1	-1E+10	1	-1E+10	1	-1E+10	1	-1E+10	1	-1E+10	1
4901784	118	C	09/27/2018	10:50	-132.301	42.898	0	729.60	0	4.0230	0	34.4530	8	27.354	0	722.546	0	14.0	4	4.4	4	-1E+10	1	-1E+10	1	-1E+10	1	-1E+10	1	-1E+10	1	-1E+10	1
4901784	118	C	09/27/2018	10:50	-132.301	42.898	0	734.40	0	4.0070	0	34.4580	8	27.360	0	727.291	0	13.7	4	4.3	4	-1E+10	1	-1E+10	1	-1E+10	1	-1E+10	1	-1E+10	1	-1E+10	1
4901784	118	C	09/27/2018	10:50	-132.301	42.898	0	739.30	0	3.9860	0	34.4620	8	27.365	0	732.135	0	13.6	4	4.3	4	-1E+10	1	-1E+10	1	-1E+10	1	-1E+10	1	-1E+10	1	-1E+10	1
4901784	118	C	09/27/2018	10:50	-132.301	42.898	0	744.30	0	3.9760	0	34.4650	8	27.369	0	737.078	0	13.4	4	4.2	4	-1E+10	1	-1E+10	1	-1E+10	1	-1E+10	1	-1E+10	1	-1E+10	1
4901784	118	C	09/27/2018	10:50	-132.301	42.898	0	749.30	0	3.9650	0	34.4680	8	27.372	0	742.020	0	13.2	4	4.2	4	-1E+10	1	-1E+10	1	-1E+10	1	-1E+10	1	-1E+10	1	-1E+10	1
4901784	118	C	09/27/2018	10:50	-132.301	42.898	0	754.30	0	3.9520	0	34.4710	8	27.376	0	746.963	0	13.0	4	4.1	4	-1E+10	1	-1E+10	1	-1E+10	1	-1E+10	1	-1E+10	1	-1E+10	1
4901784	118	C	09/27/2018	10:50	-132.301	42.898	0	759.40	0	3.9250	0	34.4770	8	27.384	0	752.004	0	12.8	4	4.0	4	-1E+10	1	-1E+10	1	-1E+10	1	-1E+10	1	-1E+10	1	-1E+10	1
4901784	118	C	09/27/2018	10:50	-132.301	42.898	0	764.60	0	3.9050	0	34.4810	8	27.389	0	757.144	0	12.7	4	4.0	4	-1E+10	1	-1E+10	1	-1E+10	1	-1E+10	1	-1E+10	1	-1E+10	1
4901784	118	C	09/27/2018	10:50	-132.301	42.898	0	769.70	0	3.8960	0	34.4830	8	27.391	0	762.185	0	12.6	4	4.0	4	-1E+10	1	-1E+10	1	-1E+10	1	-1E+10	1	-1E+10	1	-1E+10	1
4901784	118	C	09/27/2018	10:50	-132.301	42.898	0	774.80	0	3.8910	0	34.4850	8	27.394	0	767.226	0	12.5	4	3.9	4	-1E+10	1	-1E+10	1	-1E+10	1	-1E+10	1	-1E+10	1	-1E+10	1
4901784	118	C	09/27/2018	10:50	-132.301	42.898	0	780.10	0	3.8830	0	34.4880	8	27.397	0	772.464	0	12.4	4	3.9	4	-1E+10	1	-1E+10	1	-1E+10	1	-1E+10	1	-1E+10	1	-1E+10	1
4901784	118	C	09/27/2018	10:50	-132.301	42.898	0	785.40	0	3.8780	0	34.4890	8	27.398	0	777.702	0	12.3	4	3.9	4	-1E+10	1	-1E+10	1	-1E+10	1	-1E+10	1	-1E+10	1	-1E+10	1
4901784	118	C	09/27/2018	10:50	-132.301	42.898	0	789.90	0	3.8660	0	34.4910	8	27.401	0	782.150	0	12.2	4	3.8	4	-1E+10	1	-1E+10	1	-1E+10	1	-1E+10	1	-1E+10	1	-1E+10	1
4901784	118	C	09/27/2018	10:50	-132.301	42.898	0	794.30	0	3.8540	0	34.4940	8	27.405	0	786.498	0	12.0	4	3.8	4	-1E+10	1	-1E+10	1	-1E+10	1	-1E+10	1	-1E+10	1	-1E+10	1
4901784	118	C	09/27/2018	10:50	-132.301	42.898	0	799.60	0	3.8380	0	34.4990	8	27.410	0	791.736	0	11.9	4	3.7	4	-1E+10	1	-1E+10	1	-1E+10	1	-1E+10	1	-1E+10	1	-1E+10	1
4901784	118	C	09/27/2018	10:50	-132.301	42.898	0	804.90	0	3.8190	0	34.5050	8	27.417	0	796.974	0	11.7	4	3.7	4	-1E+10	1	-1E+10	1	-1E+10	1	-1E+10	1	-1E+10	1	-1E+10	1
4901784	118	C	09/27/2018	10:50	-132.301	42.898	0	810.30	0	3.8040	0	34.5080	8	27.421	0	802.311	0	11.6	4	3.7	4	-1E+10	1	-1E+10	1	-1E+10	1	-1E+10	1	-1E+10	1	-1E+10	1
4901784	118	C	09/27/2018	10:50	-132.301	42.898	0	815.60	0	3.7840	0	34.5130	8	27.427	0	807.548	0	11.5	4	3.6	4	-1E+10	1	-1E+10	1	-1E+10	1	-1E+10	1	-1E+10	1	-1E+10	1
4901784	118	C	09/27/2018	10:50	-132.301	42.898	0	820.10	0	3.7760	0	34.5160	8	27.430	0	811.995	0	11.4	4	3.6	4	-1E+10	1	-1E+10	1	-1E+10	1	-1E+10	1	-1E+10	1	-1E+10	1
4901784	118	C	09/27/2018	10:50	-132.301	42.898	0	824.60	0	3.7660	0	34.5180	8	27.433	0	816.442	0	11.3	4	3.6	4	-1E+10	1	-1E+10	1	-1E+10	1	-1E+10	1	-1E+10	1	-1E+10	1
4901784	118	C	09/27/2018	10:50	-132.301	42.898	0	830.10	0	3.7580	0	34.5210	8	27.436	0	821.876	0	11.2	4	3.5	4	-1E+10	1	-1E+10	1	-1E+10	1	-1E+10	1	-1E+10	1	-1E+10	1
4901784	118	C	09/27/2018	10:50	-132.301	42.898	0	835.50	0	3.7510	0	34.5240	8	27.439	0	827.212	0	11.1	4	3.5	4	-1E+10	1	-1E+10	1	-1E+10	1	-1E+10	1	-1E+10	1	-1E+10	1
4901784	118	C	09/27/2018	10:50	-132.301	42.898	0	840.20	0	3.7390	0	34.5270	8	27.443	0	831.856	0	11.0	4	3.5	4	-1E+10	1	-1E+10	1	-1E+10	1	-1E+10	1	-1E+10	1	-1E+10	1
4901784	118	C	09/27/2018	10:50	-132.301	42.898	0	844.80	0	3.7250	0	34.5290	8	27.446	0	836.401	0	11.0	4	3.4	4	-1E+10	1	-1E+10	1	-1E+10	1	-1E+10	1	-1E+10	1	-1E+10	1
4901784	118	C	09/27/2018	10:50	-132.301	42.898	0	850.30	0	3.7100	0	34.5330	8	27.450	0	841.836	0	10.9	4	3.4	4	-1E+10	1	-1E+10	1	-1E+10	1	-1E+10	1	-1E+10	1	-1E+10	1
4901784	118	C	09/27/2018	10:50	-132.301	42.898	0	854.90	0	3.7030	0	34.5360	8	27.454	0	846.381	0	10.8	4	3.4	4	-1E+10	1	-1E+10	1	-1E+10	1	-1E+10	1	-1E+10	1	-1E+10	1
4901784	118	C	09/27/2018	10:50	-132.301	42.898	0	859.50	0	3.7010	0	34.5390	8	27.456	0	850.925	0	10.8	4	3.4	4	-1E+10	1	-1E+10	1	-1E+10	1	-1E+10	1	-1E+10	1	-1E+10	1
4901784	118	C	09/27/2018	10:50	-132.301	42.898	0	865.10	0	3.6960	0	34.5420	8	27.459	0	856.458	0	10.7	4	3.4	4	-1E+10	1	-1E+10	1	-1E+10	1	-1E+10	1	-1E+10	1	-1E+10	1
4901784	118	C	09/27/2018	10:50	-132.301	42.898	0	870.50	0	3.6930	0	34.5460	8	27.463	0	861.793	0	10.6	4	3.3	4	-1E+10	1	-1E+10	1	-1E+10	1	-1E+10	1	-1E+10	1	-1E+10	1
4901784	118	C	09/27/2018	10:50	-132.301	42.898	0	875.30	0	3.6880	0	34.5500	8	27.466	0	866.535	0	10.5	4	3.3	4	-1E+10	1	-1E+10	1	-1E+10	1	-1E+10	1	-1E+10	1	-1E+10	1
4901784	118	C	09/27/2018	10:50	-132.301	42.898	0	880.20	0	3.6710	0	34.5530	8	27.470	0	871.376	0	10.5	4	3.3	4	-1E+10	1	-1E+10	1	-1E+10	1	-1E+10	1	-1E+10	1	-1E+10	1
4901784	118	C	09/27/2018	10:50	-132.301	42.898	0	885.20	0	3.6720	0	34.5550	8	27.472	0	876.315	0	10.5	4	3.3	4	-1E+10	1	-1E+10	1	-1E+10	1	-1E+10	1	-1E+10	1	-1E+10	1
4901784	118	C	09/27/2018	10:50	-132.301	42.898	0	890.10	0	3.6740	0	34.5620	8	27.477	0	881.156	0	10.4	4	3.3	4	-1E+10	1	-1E+10	1	-1E+10	1	-1E+10	1	-1E+10	1	-1E+10	1
4901784	118	C	09/27/2018	10:50	-132.301	42.898	0	895.10	0	3.6700	0	34.5630	8	27.479	0	886.095	0	10.4	4	3.3	4	-1E+10	1	-1E+10	1	-1E+10	1	-1E+10	1	-1E+10	1	-1E+10	1
4901784	118	C	09/27/2018	10:50	-132.301	42.898	0	900.20	0	3.6640	0	34.5640	8	27.480	0	891.133	0	10.4	4	3.3	4	-1E+10	1	-1E+10	1	-1E+10	1	-1E+10	1	-1E+10	1	-1E+10	1
4901784	118	C	09/27/2018	10:50	-132.301	42.898	0	905.20	0	3.6510	0	34.5680	8	27.485	0	896.072	0	10.4	4	3.3	4	-1E+10	1	-1E+10	1	-1E+10	1	-1E+10	1	-1E+10	1	-1E+10	1
4901784	118	C	09/27/2018	10:50	-132.301	42.898	0	910.30	0	3.6550	0	34.5730	8	27.488	0	901.109	0	10.4	4	3.3	4	-1E+10	1	-1E+10	1	-1E+10	1	-1E+10	1	-1E+10	1	-1E+10	1
4901784	118	C	09/27/2018	10:50	-132.301	42.898	0	915.50	0	3.6440	0	34.5750	8	27.491	0	906.245	0	10.4	4	3.3	4	-1E+10	1	-1E+10	1	-1E+10	1	-1E+10	1	-1E+10	1	-1E+10	1
4901784	118	C	09/27/2018	10:50	-132.301	42.898	0	920.60	0	3.6350	0	34.5770	8	27.493	0	911.283	0	10.4	4	3.3	4	-1E+10	1	-1E+10	1	-1E+10	1	-1E+10	1	-1E+10	1	-1E+10	1
4901784	118	C	09/27/2018	10:50	-132.301	42.898	0	925.80	0	3.6280	0	34.5790	8	27.496	0	916.419	0	10.4	4	3.3	4	-1E+10	1	-1E+10	1	-1E+10	1	-1E+10	1	-1E+10	1	-1E+10	1
4901784	118	C	09/27/2018	10:50	-132.301	42.898	0	930.10	0	3.6170	0	34.5810	8	27.498	0	920.666	0	10.4	4	3.3	4	-1E+10	1	-1E+10	1	-1E+10	1	-1E+10	1	-1E+10	1	-1E+10	1
4901784	118	C	09/27/2018	10:50	-132.301	42.898	0	934.40	0	3.6120	0	34.5820	8	27.500	0	924.913	0	10.5	4	3.3	4	-1E+10	1	-1E+10	1	-1E+10	1	-1E+10	1	-1E+10	1	-1E+10	1
4901784	118	C	09/27/2018	10:50	-132.301	42.898	0	939.50	0	3.5960	0	34.5860	8	27.505	0	929.950	0	10.5	4	3.3	4	-1E+10	1	-1E+10	1	-1E+10	1	-1E+10	1	-1E+10	1	-1E+10	1
4901784	118	C	09/27/2018	10:50	-132.301	42.898	0	944.70	0	3.5820	0	34.5870	8	27.507	0	935.085	0	10.5	4	3.3	4	-1E+10	1	-1E+10	1	-1E+10	1	-1E+10	1	-1E+10	1	-1E+10	1
4901784	118	C	09/27/2018	10:50	-132.301	42.898	0	949.80	0	3.5730	0	34.5900	8	27.510	0	940.122	0	10.6	4	3.3	4	-1E+10	1	-1E+10	1	-1E+10	1	-1E+10	1	-1E+10	1	-1E+10	1
4901784	118	C	09/27/2018	10:50	-132.301	42.898	0	954.90	0	3.5570	0	34.5920	8	27.513	0	945.158	0	10.6	4	3.3	4	-1E+10	1	-1E+10	1	-1E+10	1	-1E+10	1	-1E+10	1	-1E+10	1
4901784	118	C	09/27/2018	10:50	-132.301	42.898	0	959.90	0	3.5530	0	34.5930	8	27.514	0	950.096	0	10.6	4	3.3	4	-1E+10	1	-1E+10	1	-1E+10	1	-1E+10	1	-1E+10	1	-1E+10	1
4901784	118	C	09/27/2018	10:50	-132.301	42.898	0	965.10	0	3.5480	0	34.5940	8	27.516	0	955.231	0	10.7	4	3.3	4	-1E+10	1	-1E+10	1	-1E+10	1	-1E+10	1	-1E+10	1	-1E+10	1
4901784	118	C	09/27/2018	10:50	-132.301	42.898	0	970.20	0	3.5370	0	34.5960	8	27.519	0	960.267	0	10.7	4	3.4	4	-1E+10	1	-1E+10	1	-1E+10	1	-1E+10	1	-1E+10	1	-1E+10	1
4901784	118	C	09/27/2018	10:50	-132.301	42.898	0	975.30	0	3.5270	0	34.5990	8	27.522	0	965.303	0	10.8	4	3.4	4	-1E+10	1	-1E+10	1	-1E+10	1	-1E+10	1	-1E+10	1	-1E+10	1
4901784	118	C	09/27/2018	10:50	-132.301	42.898	0	980.40	0	3.5130	0	34.6010	8	27.525	0	970.339	0	10.8	4	3.4	4	-1E+10	1	-1E+10	1	-1E+10	1	-1E+10	1	-1E+10	1	-1E+10	1
4901784	118	C	09/27/2018	10:50	-132.301	42.898	0	985.50	0	3.5030	0	34.6030	8	27.527	0	975.375	0	10.9	4	3.4	4	-1E+10	1	-1E+10	1	-1E+10	1	-1E+10	1	-1E+10	1	-1E+10	1
4901784	118	C	09/27/2018	10:50	-132.301	42.898	0	990.60	0	3.4950	0	34.6050	8	27.530	0	980.410	0	10.9	4	3.4	4	-1E+10	1	-1E+10	1	-1E+10	1	-1E+10	1	-1E+10	1	-1E+10	1
4901784	118	C	09/27/2018	10:50	-132.301	42.898	0	995.80	0	3.4830	0	34.6070	8	27.533	0	985.545	0	10.9	4	3.4	4	-1E+10	1	-1E+10	1	-1E+10	1	-1E+10	1	-1E+10	1	-1E+10	1
4901784	118	C	09/27/2018	10:50	-132.301	42.898	0	1000.00	0	3.4750	0	34.6080	8	27.534	0	989.692	0	11.0	4	3.4	4	-1E+10	1	-1E+10	1	-1E+10	1	-1E+10	1	-1E+10	1	-1E+10	1
4901784	118	C	09/27/2018	10:50	-132.301	42.898	0	1004.30	0	3.4630	0	34.6110	8	27.538	0	993.937	0	11.1	4	3.5	4	-1E+10	1	-1E+10	1	-1E+10	1	-1E+10	1	-1E+10	1	-1E+10	1
4901784	118	C	09/27/2018	10:50	-132.301	42.898	0	1009.40	0	3.4520	0	34.6140	8	27.541	0	998.972	0	11.2	4	3.5	4	-1E+10	1	-1E+10	1	-1E+10	1	-1E+10	1	-1E+10	1	-1E+10	1
4901784	118	C	09/27/2018	10:50	-132.301	42.898	0	1014.60	0	3.4440	0	34.6160	8	27.544	0	1004.106	0	11.3	4	3.5	4	-1E+10	1	-1E+10	1	-1E+10	1	-1E+10	1	-1E+10	1	-1E+10	1
4901784	118	C	09/27/2018	10:50	-132.301	42.898	0	1019.80	0	3.4290	0	34.6200	8	27.548	0	1009.240	0	11.3	4	3.5	4	-1E+10	1	-1E+10	1	-1E+10	1	-1E+10	1	-1E+10	1	-1E+10	1
4901784	118	C	09/27/2018	10:50	-132.301	42.898	0	1025.00	0	3.4220	0	34.6200	8	27.549	0	1014.373	0	11.4	4	3.6	4	-1E+10	1	-1E+10	1	-1E+10	1	-1E+10	1	-1E+10	1	-1E+10	1
4901784	118	C	09/27/2018	10:50	-132.301	42.898	0	1030.20	0	3.4100	0	34.6230	8	27.553	0	1019.507	0	11.5	4	3.6	4	-1E+10	1	-1E+10	1	-1E+10	1	-1E+10	1	-1E+10	1	-1E+10	1
4901784	118	C	09/27/2018	10:50	-132.301	42.898	0	1035.40	0	3.4010	0	34.6250	8	27.555	0	1024.640	0	11.6	4	3.6	4	-1E+10	1	-1E+10	1	-1E+10	1	-1E+10	1	-1E+10	1	-1E+10	1
4901784	118	C	09/27/2018	10:50	-132.301	42.898	0	1040.50	0	3.3900	0	34.6280	8	27.559	0	1029.675	0	11.8	4	3.7	4	-1E+10	1	-1E+10	1	-1E+10	1	-1E+10	1	-1E+10	1	-1E+10	1
4901784	118	C	09/27/2018	10:50	-132.301	42.898	0	1045.60	0	3.3760	0	34.6310	8	27.562	0	1034.709	0	11.9	4	3.7	4	-1E+10	1	-1E+10	1	-1E+10	1	-1E+10	1	-1E+10	1	-1E+10	1
4901784	118	C	09/27/2018	10:50	-132.301	42.898	0	1050.00	0	3.3640	0	34.6330	8	27.565	0	1039.052	0	12.0	4	3.7	4	-1E+10	1	-1E+10	1	-1E+10	1	-1E+10	1	-1E+10	1	-1E+10	1
4901784	118	C	09/27/2018	10:50	-132.301	42.898	0	1054.40	0	3.3580	0	34.6340	8	27.567	0	1043.396	0	12.0	4	3.7	4	-1E+10	1	-1E+10	1	-1E+10	1	-1E+10	1	-1E+10	1	-1E+10	1
4901784	118	C	09/27/2018	10:50	-132.301	42.898	0	1059.60	0	3.3520	0	34.6350	8	27.568	0	1048.528	0	12.1	4	3.8	4	-1E+10	1	-1E+10	1	-1E+10	1	-1E+10	1	-1E+10	1	-1E+10	1
4901784	118	C	09/27/2018	10:50	-132.301	42.898	0	1064.80	0	3.3430	0	34.6370	8	27.570	0	1053.661	0	12.2	4	3.8	4	-1E+10	1	-1E+10	1	-1E+10	1	-1E+10	1	-1E+10	1	-1E+10	1
4901784	118	C	09/27/2018	10:50	-132.301	42.898	0	1070.10	0	3.3270	0	34.6390	8	27.574	0	1058.892	0	12.4	4	3.9	4	-1E+10	1	-1E+10	1	-1E+10	1	-1E+10	1	-1E+10	1	-1E+10	1
4901784	118	C	09/27/2018	10:50	-132.301	42.898	0	1075.30	0	3.3130	0	34.6420	8	27.577	0	1064.025	0	12.5	4	3.9	4	-1E+10	1	-1E+10	1	-1E+10	1	-1E+10	1	-1E+10	1	-1E+10	1
4901784	118	C	09/27/2018	10:50	-132.301	42.898	0	1080.60	0	3.3040	0	34.6440	8	27.580	0	1069.255	0	12.6	4	3.9	4	-1E+10	1	-1E+10	1	-1E+10	1	-1E+10	1	-1E+10	1	-1E+10	1
4901784	118	C	09/27/2018	10:50	-132.301	42.898	0	1085.00	0	3.2980	0	34.6450	8	27.581	0	1073.598	0	12.7	4	3.9	4	-1E+10	1	-1E+10	1	-1E+10	1	-1E+10	1	-1E+10	1	-1E+10	1
4901784	118	C	09/27/2018	10:50	-132.301	42.898	0	1089.30	0	3.2920	0	34.6460	8	27.583	0	1077.842	0	12.8	4	4.0	4	-1E+10	1	-1E+10	1	-1E+10	1	-1E+10	1	-1E+10	1	-1E+10	1
4901784	118	C	09/27/2018	10:50	-132.301	42.898	0	1094.50	0	3.2810	0	34.6480	8	27.585	0	1082.974	0	12.9	4	4.0	4	-1E+10	1	-1E+10	1	-1E+10	1	-1E+10	1	-1E+10	1	-1E+10	1
4901784	118	C	09/27/2018	10:50	-132.301	42.898	0	1099.80	0	3.2710	0	34.6500	8	27.588	0	1088.204	0	12.9	4	4.0	4	-1E+10	1	-1E+10	1	-1E+10	1	-1E+10	1	-1E+10	1	-1E+10	1
4901784	118	C	09/27/2018	10:50	-132.301	42.898	0	1105.10	0	3.2640	0	34.6510	8	27.589	0	1093.434	0	13.0	4	4.1	4	-1E+10	1	-1E+10	1	-1E+10	1	-1E+10	1	-1E+10	1	-1E+10	1
4901784	118	C	09/27/2018	10:50	-132.301	42.898	0	1110.40	0	3.2570	0	34.6520	8	27.591	0	1098.665	0	13.1	4	4.1	4	-1E+10	1	-1E+10	1	-1E+10	1	-1E+10	1	-1E+10	1	-1E+10	1
4901784	118	C	09/27/2018	10:50	-132.301	42.898	0	1115.70	0	3.2480	0	34.6530	8	27.592	0	1103.895	0	13.2	4	4.1	4	-1E+10	1	-1E+10	1	-1E+10	1	-1E+10	1	-1E+10	1	-1E+10	1
4901784	118	C	09/27/2018	10:50	-132.301	42.898	0	1120.20	0	3.2350	0	34.6540	8	27.595	0	1108.335	0	13.3	4	4.2	4	-1E+10	1	-1E+10	1	-1E+10	1	-1E+10	1	-1E+10	1	-1E+10	1
4901784	118	C	09/27/2018	10:50	-132.301	42.898	0	1124.70	0	3.2170	0	34.6560	8	27.598	0	1112.776	0	13.5	4	4.2	4	-1E+10	1	-1E+10	1	-1E+10	1	-1E+10	1	-1E+10	1	-1E+10	1
4901784	118	C	09/27/2018	10:50	-132.301	42.898	0	1130.00	0	3.2040	0	34.6570	8	27.600	0	1118.005	0	13.6	4	4.2	4	-1E+10	1	-1E+10	1	-1E+10	1	-1E+10	1	-1E+10	1	-1E+10	1
4901784	118	C	09/27/2018	10:50	-132.301	42.898	0	1135.40	0	3.1960	0	34.6580	8	27.601	0	1123.334	0	13.7	4	4.2	4	-1E+10	1	-1E+10	1	-1E+10	1	-1E+10	1	-1E+10	1	-1E+10	1
4901784	118	C	09/27/2018	10:50	-132.301	42.898	0	1139.90	0	3.1900	0	34.6590	8	27.603	0	1127.774	0	13.8	4	4.3	4	-1E+10	1	-1E+10	1	-1E+10	1	-1E+10	1	-1E+10	1	-1E+10	1
4901784	118	C	09/27/2018	10:50	-132.301	42.898	0	1144.50	0	3.1770	0	34.6610	8	27.606	0	1132.312	0	13.9	4	4.3	4	-1E+10	1	-1E+10	1	-1E+10	1	-1E+10	1	-1E+10	1	-1E+10	1
4901784	118	C	09/27/2018	10:50	-132.301	42.898	0	1150.00	0	3.1530	0	34.6620	8	27.609	0	1137.739	0	14.1	4	4.4	4	-1E+10	1	-1E+10	1	-1E+10	1	-1E+10	1	-1E+10	1	-1E+10	1
4901784	118	C	09/27/2018	10:50	-132.301	42.898	0	1155.30	0	3.1300	0	34.6650	8	27.613	0	1142.968	0	14.2	4	4.4	4	-1E+10	1	-1E+10	1	-1E+10	1	-1E+10	1	-1E+10	1	-1E+10	1
4901784	118	C	09/27/2018	10:50	-132.301	42.898	0	1160.60	0	3.1190	0	34.6680	8	27.617	0	1148.197	0	14.4	4	4.5	4	-1E+10	1	-1E+10	1	-1E+10	1	-1E+10	1	-1E+10	1	-1E+10	1
4901784	118	C	09/27/2018	10:50	-132.301	42.898	0	1165.40	0	3.1130	0	34.6690	8	27.618	0	1152.932	0	14.5	4	4.5	4	-1E+10	1	-1E+10	1	-1E+10	1	-1E+10	1	-1E+10	1	-1E+10	1
4901784	118	C	09/27/2018	10:50	-132.301	42.898	0	1170.20	0	3.1120	0	34.6690	8	27.618	0	1157.668	0	14.5	4	4.5	4	-1E+10	1	-1E+10	1	-1E+10	1	-1E+10	1	-1E+10	1	-1E+10	1
4901784	118	C	09/27/2018	10:50	-132.301	42.898	0	1175.10	0	3.0840	0	34.6700	8	27.622	0	1162.502	0	14.5	4	4.5	4	-1E+10	1	-1E+10	1	-1E+10	1	-1E+10	1	-1E+10	1	-1E+10	1
4901784	118	C	09/27/2018	10:50	-132.301	42.898	0	1180.00	0	3.0650	0	34.6700	8	27.623	0	1167.336	0	14.7	4	4.5	4	-1E+10	1	-1E+10	1	-1E+10	1	-1E+10	1	-1E+10	1	-1E+10	1
4901784	118	C	09/27/2018	10:50	-132.301	42.898	0	1185.00	0	3.0620	0	34.6730	8	27.626	0	1172.268	0	14.8	4	4.6	4	-1E+10	1	-1E+10	1	-1E+10	1	-1E+10	1	-1E+10	1	-1E+10	1
4901784	118	C	09/27/2018	10:50	-132.301	42.898	0	1190.00	0	3.0430	0	34.6740	8	27.629	0	1177.200	0	14.9	4	4.6	4	-1E+10	1	-1E+10	1	-1E+10	1	-1E+10	1	-1E+10	1	-1E+10	1
4901784	118	C	09/27/2018	10:50	-132.301	42.898	0	1195.10	0	3.0350	0	34.6750	8	27.630	0	1182.231	0	15.1	4	4.7	4	-1E+10	1	-1E+10	1	-1E+10	1	-1E+10	1	-1E+10	1	-1E+10	1
4901784	118	C	09/27/2018	10:50	-132.301	42.898	0	1200.10	0	3.0240	0	34.6760	8	27.632	0	1187.163	0	15.3	4	4.7	4	-1E+10	1	-1E+10	1	-1E+10	1	-1E+10	1	-1E+10	1	-1E+10	1
4901784	118	C	09/27/2018	10:50	-132.301	42.898	0	1205.30	0	3.0160	0	34.6790	8	27.635	0	1192.293	0	15.5	4	4.8	4	-1E+10	1	-1E+10	1	-1E+10	1	-1E+10	1	-1E+10	1	-1E+10	1
4901784	118	C	09/27/2018	10:50	-132.301	42.898	0	1210.40	0	3.0070	0	34.6810	8	27.638	0	1197.323	0	15.7	4	4.9	4	-1E+10	1	-1E+10	1	-1E+10	1	-1E+10	1	-1E+10	1	-1E+10	1
4901784	118	C	09/27/2018	10:50	-132.301	42.898	0	1215.50	0	3.0020	0	34.6810	8	27.638	0	1202.353	0	15.9	4	4.9	4	-1E+10	1	-1E+10	1	-1E+10	1	-1E+10	1	-1E+10	1	-1E+10	1
4901784	118	C	09/27/2018	10:50	-132.301	42.898	0	1220.70	0	2.9900	0	34.6830	8	27.641	0	1207.482	0	16.1	4	5.0	4	-1E+10	1	-1E+10	1	-1E+10	1	-1E+10	1	-1E+10	1	-1E+10	1
4901784	118	C	09/27/2018	10:50	-132.301	42.898	0	1225.00	0	2.9820	0	34.6860	8	27.644	0	1211.723	0	16.4	4	5.1	4	-1E+10	1	-1E+10	1	-1E+10	1	-1E+10	1	-1E+10	1	-1E+10	1
4901784	118	C	09/27/2018	10:50	-132.301	42.898	0	1229.40	0	2.9760	0	34.6880	8	27.646	0	1216.063	0	16.6	4	5.1	4	-1E+10	1	-1E+10	1	-1E+10	1	-1E+10	1	-1E+10	1	-1E+10	1
4901784	118	C	09/27/2018	10:50	-132.301	42.898	0	1234.60	0	2.9710	0	34.6890	8	27.647	0	1221.191	0	16.9	4	5.2	4	-1E+10	1	-1E+10	1	-1E+10	1	-1E+10	1	-1E+10	1	-1E+10	1
4901784	118	C	09/27/2018	10:50	-132.301	42.898	0	1239.90	0	2.9680	0	34.6910	8	27.649	0	1226.418	0	17.2	4	5.3	4	-1E+10	1	-1E+10	1	-1E+10	1	-1E+10	1	-1E+10	1	-1E+10	1
4901784	118	C	09/27/2018	10:50	-132.301	42.898	0	1245.30	0	2.9600	0	34.6930	8	27.652	0	1231.744	0	17.3	4	5.3	4	-1E+10	1	-1E+10	1	-1E+10	1	-1E+10	1	-1E+10	1	-1E+10	1
4901784	118	C	09/27/2018	10:50	-132.301	42.898	0	1250.70	0	2.9510	0	34.6930	8	27.653	0	1237.069	0	17.5	4	5.4	4	-1E+10	1	-1E+10	1	-1E+10	1	-1E+10	1	-1E+10	1	-1E+10	1
4901784	118	C	09/27/2018	10:50	-132.301	42.898	0	1255.20	0	2.9480	0	34.6960	8	27.655	0	1241.507	0	17.8	4	5.5	4	-1E+10	1	-1E+10	1	-1E+10	1	-1E+10	1	-1E+10	1	-1E+10	1
4901784	118	C	09/27/2018	10:50	-132.301	42.898	0	1259.60	0	2.9480	0	34.6970	8	27.656	0	1245.846	0	18.1	4	5.6	4	-1E+10	1	-1E+10	1	-1E+10	1	-1E+10	1	-1E+10	1	-1E+10	1
4901784	118	C	09/27/2018	10:50	-132.301	42.898	0	1265.10	0	2.9360	0	34.6970	8	27.657	0	1251.269	0	18.2	4	5.6	4	-1E+10	1	-1E+10	1	-1E+10	1	-1E+10	1	-1E+10	1	-1E+10	1
4901784	118	C	09/27/2018	10:50	-132.301	42.898	0	1270.60	0	2.9220	0	34.7000	8	27.661	0	1256.693	0	18.5	4	5.7	4	-1E+10	1	-1E+10	1	-1E+10	1	-1E+10	1	-1E+10	1	-1E+10	1
4901784	118	C	09/27/2018	10:50	-132.301	42.898	0	1275.30	0	2.9080	0	34.7020	8	27.664	0	1261.327	0	18.7	4	5.8	4	-1E+10	1	-1E+10	1	-1E+10	1	-1E+10	1	-1E+10	1	-1E+10	1
4901784	118	C	09/27/2018	10:50	-132.301	42.898	0	1279.90	0	2.9010	0	34.7020	8	27.664	0	1265.863	0	18.8	4	5.8	4	-1E+10	1	-1E+10	1	-1E+10	1	-1E+10	1	-1E+10	1	-1E+10	1
4901784	118	C	09/27/2018	10:50	-132.301	42.898	0	1285.50	0	2.8930	0	34.7040	8	27.667	0	1271.385	0	19.2	4	5.9	4	-1E+10	1	-1E+10	1	-1E+10	1	-1E+10	1	-1E+10	1	-1E+10	1
4901784	118	C	09/27/2018	10:50	-132.301	42.898	0	1290.40	0	2.8900	0	34.7060	8	27.669	0	1276.216	0	19.4	4	6.0	4	-1E+10	1	-1E+10	1	-1E+10	1	-1E+10	1	-1E+10	1	-1E+10	1
4901784	118	C	09/27/2018	10:50	-132.301	42.898	0	1294.90	0	2.8820	0	34.7070	8	27.670	0	1280.653	0	19.4	4	6.0	4	-1E+10	1	-1E+10	1	-1E+10	1	-1E+10	1	-1E+10	1	-1E+10	1
4901784	118	C	09/27/2018	10:50	-132.301	42.898	0	1299.80	0	2.8730	0	34.7070	8	27.671	0	1285.484	0	19.5	4	6.0	4	-1E+10	1	-1E+10	1	-1E+10	1	-1E+10	1	-1E+10	1	-1E+10	1
4901784	118	C	09/27/2018	10:50	-132.301	42.898	0	1304.80	0	2.8630	0	34.7080	8	27.673	0	1290.414	0	19.4	4	6.0	4	-1E+10	1	-1E+10	1	-1E+10	1	-1E+10	1	-1E+10	1	-1E+10	1
4901784	118	C	09/27/2018	10:50	-132.301	42.898	0	1309.80	0	2.8510	0	34.7080	8	27.674	0	1295.343	0	19.5	4	6.0	4	-1E+10	1	-1E+10	1	-1E+10	1	-1E+10	1	-1E+10	1	-1E+10	1
4901784	118	C	09/27/2018	10:50	-132.301	42.898	0	1314.80	0	2.8430	0	34.7090	8	27.675	0	1300.273	0	19.7	4	6.1	4	-1E+10	1	-1E+10	1	-1E+10	1	-1E+10	1	-1E+10	1	-1E+10	1
4901784	118	C	09/27/2018	10:50	-132.301	42.898	0	1319.90	0	2.8330	0	34.7100	8	27.677	0	1305.301	0	19.9	4	6.1	4	-1E+10	1	-1E+10	1	-1E+10	1	-1E+10	1	-1E+10	1	-1E+10	1
4901784	118	C	09/27/2018	10:50	-132.301	42.898	0	1325.00	0	2.8290	0	34.7110	8	27.678	0	1310.328	0	20.4	4	6.3	4	-1E+10	1	-1E+10	1	-1E+10	1	-1E+10	1	-1E+10	1	-1E+10	1
4901784	118	C	09/27/2018	10:50	-132.301	42.898	0	1330.10	0	2.8360	0	34.7150	8	27.681	0	1315.356	0	20.9	4	6.4	4	-1E+10	1	-1E+10	1	-1E+10	1	-1E+10	1	-1E+10	1	-1E+10	1
4901784	118	C	09/27/2018	10:50	-132.301	42.898	0	1335.30	0	2.8260	0	34.7150	8	27.682	0	1320.482	0	21.1	4	6.5	4	-1E+10	1	-1E+10	1	-1E+10	1	-1E+10	1	-1E+10	1	-1E+10	1
4901784	118	C	09/27/2018	10:50	-132.301	42.898	0	1340.40	0	2.8160	0	34.7170	8	27.684	0	1325.509	0	21.3	4	6.6	4	-1E+10	1	-1E+10	1	-1E+10	1	-1E+10	1	-1E+10	1	-1E+10	1
4901784	118	C	09/27/2018	10:50	-132.301	42.898	0	1345.50	0	2.7920	0	34.7170	8	27.686	0	1330.537	0	21.5	4	6.6	4	-1E+10	1	-1E+10	1	-1E+10	1	-1E+10	1	-1E+10	1	-1E+10	1
4901784	118	C	09/27/2018	10:50	-132.301	42.898	0	1350.40	0	2.7730	0	34.7190	8	27.690	0	1335.367	0	21.6	4	6.7	4	-1E+10	1	-1E+10	1	-1E+10	1	-1E+10	1	-1E+10	1	-1E+10	1
4901784	118	C	09/27/2018	10:50	-132.301	42.898	0	1355.00	0	2.7690	0	34.7200	8	27.691	0	1339.901	0	21.9	4	6.7	4	-1E+10	1	-1E+10	1	-1E+10	1	-1E+10	1	-1E+10	1	-1E+10	1
4901784	118	C	09/27/2018	10:50	-132.301	42.898	0	1360.10	0	2.7640	0	34.7210	8	27.692	0	1344.928	0	21.8	4	6.7	4	-1E+10	1	-1E+10	1	-1E+10	1	-1E+10	1	-1E+10	1	-1E+10	1
4901784	118	C	09/27/2018	10:50	-132.301	42.898	0	1364.60	0	2.7360	0	34.7200	8	27.694	0	1349.363	0	21.7	4	6.7	4	-1E+10	1	-1E+10	1	-1E+10	1	-1E+10	1	-1E+10	1	-1E+10	1
4901784	118	C	09/27/2018	10:50	-132.301	42.898	0	1369.90	0	2.7350	0	34.7220	8	27.696	0	1354.587	0	22.2	4	6.8	4	-1E+10	1	-1E+10	1	-1E+10	1	-1E+10	1	-1E+10	1	-1E+10	1
4901784	118	C	09/27/2018	10:50	-132.301	42.898	0	1375.70	0	2.7210	0	34.7230	8	27.698	0	1360.303	0	22.3	4	6.9	4	-1E+10	1	-1E+10	1	-1E+10	1	-1E+10	1	-1E+10	1	-1E+10	1
4901784	118	C	09/27/2018	10:50	-132.301	42.898	0	1380.70	0	2.7050	0	34.7230	8	27.699	0	1365.231	0	22.4	4	6.9	4	-1E+10	1	-1E+10	1	-1E+10	1	-1E+10	1	-1E+10	1	-1E+10	1
4901784	118	C	09/27/2018	10:50	-132.301	42.898	0	1385.70	0	2.6880	0	34.7250	8	27.702	0	1370.159	0	22.6	4	6.9	4	-1E+10	1	-1E+10	1	-1E+10	1	-1E+10	1	-1E+10	1	-1E+10	1
4901784	118	C	09/27/2018	10:50	-132.301	42.898	0	1390.80	0	2.6860	0	34.7250	8	27.702	0	1375.185	0	22.9	4	7.0	4	-1E+10	1	-1E+10	1	-1E+10	1	-1E+10	1	-1E+10	1	-1E+10	1
4901784	118	C	09/27/2018	10:50	-132.301	42.898	0	1395.00	0	2.6900	0	34.7260	8	27.703	0	1379.324	0	23.4	4	7.2	4	-1E+10	1	-1E+10	1	-1E+10	1	-1E+10	1	-1E+10	1	-1E+10	1
4901784	118	C	09/27/2018	10:50	-132.301	42.898	0	1399.20	0	2.6850	0	34.7280	8	27.705	0	1383.463	0	23.5	4	7.2	4	-1E+10	1	-1E+10	1	-1E+10	1	-1E+10	1	-1E+10	1	-1E+10	1
4901784	118	C	09/27/2018	10:50	-132.301	42.898	0	1404.30	0	2.6700	0	34.7290	8	27.707	0	1388.489	0	23.7	4	7.3	4	-1E+10	1	-1E+10	1	-1E+10	1	-1E+10	1	-1E+10	1	-1E+10	1
4901784	118	C	09/27/2018	10:50	-132.301	42.898	0	1409.40	0	2.6610	0	34.7300	8	27.709	0	1393.515	0	23.8	4	7.3	4	-1E+10	1	-1E+10	1	-1E+10	1	-1E+10	1	-1E+10	1	-1E+10	1
4901784	118	C	09/27/2018	10:50	-132.301	42.898	0	1414.60	0	2.6450	0	34.7300	8	27.710	0	1398.639	0	23.9	4	7.3	4	-1E+10	1	-1E+10	1	-1E+10	1	-1E+10	1	-1E+10	1	-1E+10	1
4901784	118	C	09/27/2018	10:50	-132.301	42.898	0	1419.80	0	2.6310	0	34.7310	8	27.712	0	1403.763	0	24.1	4	7.4	4	-1E+10	1	-1E+10	1	-1E+10	1	-1E+10	1	-1E+10	1	-1E+10	1
4901784	118	C	09/27/2018	10:50	-132.301	42.898	0	1425.00	0	2.6240	0	34.7310	8	27.713	0	1408.887	0	24.3	4	7.5	4	-1E+10	1	-1E+10	1	-1E+10	1	-1E+10	1	-1E+10	1	-1E+10	1
4901784	118	C	09/27/2018	10:50	-132.301	42.898	0	1430.20	0	2.6100	0	34.7330	8	27.715	0	1414.011	0	24.7	4	7.6	4	-1E+10	1	-1E+10	1	-1E+10	1	-1E+10	1	-1E+10	1	-1E+10	1
4901784	118	C	09/27/2018	10:50	-132.301	42.898	0	1435.40	0	2.5950	0	34.7350	8	27.718	0	1419.135	0	25.0	4	7.6	4	-1E+10	1	-1E+10	1	-1E+10	1	-1E+10	1	-1E+10	1	-1E+10	1
4901784	118	C	09/27/2018	10:50	-132.301	42.898	0	1440.70	0	2.5900	0	34.7360	8	27.720	0	1424.357	0	25.2	4	7.7	4	-1E+10	1	-1E+10	1	-1E+10	1	-1E+10	1	-1E+10	1	-1E+10	1
4901784	118	C	09/27/2018	10:50	-132.301	42.898	0	1445.00	0	2.5850	0	34.7360	8	27.720	0	1428.593	0	25.4	4	7.8	4	-1E+10	1	-1E+10	1	-1E+10	1	-1E+10	1	-1E+10	1	-1E+10	1
4901784	118	C	09/27/2018	10:50	-132.301	42.898	0	1449.40	0	2.5800	0	34.7370	8	27.721	0	1432.928	0	25.6	4	7.8	4	-1E+10	1	-1E+10	1	-1E+10	1	-1E+10	1	-1E+10	1	-1E+10	1
4901784	118	C	09/27/2018	10:50	-132.301	42.898	0	1454.70	0	2.5680	0	34.7380	8	27.723	0	1438.150	0	25.9	4	7.9	4	-1E+10	1	-1E+10	1	-1E+10	1	-1E+10	1	-1E+10	1	-1E+10	1
4901784	118	C	09/27/2018	10:50	-132.301	42.898	0	1460.00	0	2.5590	0	34.7390	8	27.725	0	1443.372	0	26.2	4	8.0	4	-1E+10	1	-1E+10	1	-1E+10	1	-1E+10	1	-1E+10	1	-1E+10	1
4901784	118	C	09/27/2018	10:50	-132.301	42.898	0	1465.40	0	2.5520	0	34.7400	8	27.726	0	1448.692	0	26.5	4	8.1	4	-1E+10	1	-1E+10	1	-1E+10	1	-1E+10	1	-1E+10	1	-1E+10	1
4901784	118	C	09/27/2018	10:50	-132.301	42.898	0	1469.90	0	2.5460	0	34.7410	8	27.728	0	1453.125	0	26.9	4	8.2	4	-1E+10	1	-1E+10	1	-1E+10	1	-1E+10	1	-1E+10	1	-1E+10	1
4901784	118	C	09/27/2018	10:50	-132.301	42.898	0	1474.40	0	2.5370	0	34.7420	8	27.729	0	1457.558	0	27.1	4	8.3	4	-1E+10	1	-1E+10	1	-1E+10	1	-1E+10	1	-1E+10	1	-1E+10	1
4901784	118	C	09/27/2018	10:50	-132.301	42.898	0	1479.90	0	2.5270	0	34.7430	8	27.731	0	1462.976	0	27.4	4	8.4	4	-1E+10	1	-1E+10	1	-1E+10	1	-1E+10	1	-1E+10	1	-1E+10	1
4901784	118	C	09/27/2018	10:50	-132.301	42.898	0	1485.40	0	2.5180	0	34.7440	8	27.732	0	1468.394	0	27.8	4	8.5	4	-1E+10	1	-1E+10	1	-1E+10	1	-1E+10	1	-1E+10	1	-1E+10	1
4901784	118	C	09/27/2018	10:50	-132.301	42.898	0	1489.90	0	2.5070	0	34.7460	8	27.735	0	1472.827	0	28.1	4	8.6	4	-1E+10	1	-1E+10	1	-1E+10	1	-1E+10	1	-1E+10	1	-1E+10	1
4901784	118	C	09/27/2018	10:50	-132.301	42.898	0	1494.40	0	2.4960	0	34.7470	8	27.737	0	1477.260	0	28.5	4	8.7	4	-1E+10	1	-1E+10	1	-1E+10	1	-1E+10	1	-1E+10	1	-1E+10	1
4901784	118	C	09/27/2018	10:50	-132.301	42.898	0	1499.80	0	2.4880	0	34.7480	8	27.738	0	1482.579	0	28.8	4	8.8	4	-1E+10	1	-1E+10	1	-1E+10	1	-1E+10	1	-1E+10	1	-1E+10	1
4901784	118	C	09/27/2018	10:50	-132.301	42.898	0	1505.00	0	2.4800	0	34.7490	8	27.740	0	1487.701	0	29.2	4	8.9	4	-1E+10	1	-1E+10	1	-1E+10	1	-1E+10	1	-1E+10	1	-1E+10	1
4901784	118	C	09/27/2018	10:50	-132.301	42.898	0	1510.00	0	2.4710	0	34.7510	8	27.742	0	1492.626	0	29.6	4	9.0	4	-1E+10	1	-1E+10	1	-1E+10	1	-1E+10	1	-1E+10	1	-1E+10	1
4901784	118	C	09/27/2018	10:50	-132.301	42.898	0	1515.00	0	2.4670	0	34.7520	8	27.743	0	1497.551	0	30.0	4	9.2	4	-1E+10	1	-1E+10	1	-1E+10	1	-1E+10	1	-1E+10	1	-1E+10	1
4901784	118	C	09/27/2018	10:50	-132.301	42.898	0	1520.00	0	2.4600	0	34.7530	8	27.745	0	1502.475	0	30.3	4	9.2	4	-1E+10	1	-1E+10	1	-1E+10	1	-1E+10	1	-1E+10	1	-1E+10	1
4901784	118	C	09/27/2018	10:50	-132.301	42.898	0	1525.00	0	2.4430	0	34.7530	8	27.746	0	1507.400	0	30.5	4	9.3	4	-1E+10	1	-1E+10	1	-1E+10	1	-1E+10	1	-1E+10	1	-1E+10	1
4901784	118	C	09/27/2018	10:50	-132.301	42.898	0	1530.10	0	2.4350	0	34.7540	8	27.748	0	1512.423	0	31.0	4	9.4	4	-1E+10	1	-1E+10	1	-1E+10	1	-1E+10	1	-1E+10	1	-1E+10	1
4901784	118	C	09/27/2018	10:50	-132.301	42.898	0	1535.20	0	2.4220	0	34.7560	8	27.750	0	1517.445	0	31.5	4	9.6	4	-1E+10	1	-1E+10	1	-1E+10	1	-1E+10	1	-1E+10	1	-1E+10	1
4901784	118	C	09/27/2018	10:50	-132.301	42.898	0	1540.30	0	2.4150	0	34.7580	8	27.753	0	1522.468	0	31.8	4	9.7	4	-1E+10	1	-1E+10	1	-1E+10	1	-1E+10	1	-1E+10	1	-1E+10	1
4901784	118	C	09/27/2018	10:50	-132.301	42.898	0	1545.40	0	2.4100	0	34.7580	8	27.753	0	1527.491	0	32.2	4	9.8	4	-1E+10	1	-1E+10	1	-1E+10	1	-1E+10	1	-1E+10	1	-1E+10	1
4901784	118	C	09/27/2018	10:50	-132.301	42.898	0	1550.60	0	2.4030	0	34.7600	8	27.755	0	1532.612	0	32.6	4	10.0	4	-1E+10	1	-1E+10	1	-1E+10	1	-1E+10	1	-1E+10	1	-1E+10	1
4901784	118	C	09/27/2018	10:50	-132.301	42.898	0	1554.90	0	2.3990	0	34.7610	8	27.756	0	1536.846	0	33.0	4	10.1	4	-1E+10	1	-1E+10	1	-1E+10	1	-1E+10	1	-1E+10	1	-1E+10	1
4901784	118	C	09/27/2018	10:50	-132.301	42.898	0	1559.30	0	2.3900	0	34.7620	8	27.758	0	1541.179	0	33.6	4	10.3	4	-1E+10	1	-1E+10	1	-1E+10	1	-1E+10	1	-1E+10	1	-1E+10	1
4901784	118	C	09/27/2018	10:50	-132.301	42.898	0	1564.50	0	2.3880	0	34.7640	8	27.760	0	1546.300	0	34.3	4	10.5	4	-1E+10	1	-1E+10	1	-1E+10	1	-1E+10	1	-1E+10	1	-1E+10	1
4901784	118	C	09/27/2018	10:50	-132.301	42.898	0	1569.70	0	2.3860	0	34.7660	8	27.762	0	1551.420	0	34.8	4	10.6	4	-1E+10	1	-1E+10	1	-1E+10	1	-1E+10	1	-1E+10	1	-1E+10	1
4901784	118	C	09/27/2018	10:50	-132.301	42.898	0	1574.90	0	2.3760	0	34.7680	8	27.764	0	1556.540	0	35.3	4	10.8	4	-1E+10	1	-1E+10	1	-1E+10	1	-1E+10	1	-1E+10	1	-1E+10	1
4901784	118	C	09/27/2018	10:50	-132.301	42.898	0	1580.20	0	2.3660	0	34.7690	8	27.766	0	1561.759	0	35.7	4	10.9	4	-1E+10	1	-1E+10	1	-1E+10	1	-1E+10	1	-1E+10	1	-1E+10	1
4901784	118	C	09/27/2018	10:50	-132.301	42.898	0	1585.50	0	2.3590	0	34.7700	8	27.767	0	1566.978	0	36.3	4	11.1	4	-1E+10	1	-1E+10	1	-1E+10	1	-1E+10	1	-1E+10	1	-1E+10	1
4901784	118	C	09/27/2018	10:50	-132.301	42.898	0	1589.80	0	2.3550	0	34.7710	8	27.768	0	1571.211	0	36.7	4	11.2	4	-1E+10	1	-1E+10	1	-1E+10	1	-1E+10	1	-1E+10	1	-1E+10	1
4901784	118	C	09/27/2018	10:50	-132.301	42.898	0	1594.30	0	2.3470	0	34.7730	8	27.771	0	1575.642	0	37.2	4	11.3	4	-1E+10	1	-1E+10	1	-1E+10	1	-1E+10	1	-1E+10	1	-1E+10	1
4901784	118	C	09/27/2018	10:50	-132.301	42.898	0	1599.60	0	2.3410	0	34.7740	8	27.772	0	1580.860	0	37.6	4	11.4	4	-1E+10	1	-1E+10	1	-1E+10	1	-1E+10	1	-1E+10	1	-1E+10	1
4901784	118	C	09/27/2018	10:50	-132.301	42.898	0	1604.80	0	2.3350	0	34.7750	8	27.773	0	1585.980	0	38.0	4	11.6	4	-1E+10	1	-1E+10	1	-1E+10	1	-1E+10	1	-1E+10	1	-1E+10	1
4901784	118	C	09/27/2018	10:50	-132.301	42.898	0	1609.50	0	2.3260	0	34.7760	8	27.775	0	1590.607	0	38.3	4	11.7	4	-1E+10	1	-1E+10	1	-1E+10	1	-1E+10	1	-1E+10	1	-1E+10	1
4901784	118	C	09/27/2018	10:50	-132.301	42.898	0	1614.40	0	2.3190	0	34.7770	8	27.776	0	1595.431	0	38.6	4	11.8	4	-1E+10	1	-1E+10	1	-1E+10	1	-1E+10	1	-1E+10	1	-1E+10	1
4901784	118	C	09/27/2018	10:50	-132.301	42.898	0	1620.00	0	2.3110	0	34.7780	8	27.778	0	1600.944	0	39.1	4	11.9	4	-1E+10	1	-1E+10	1	-1E+10	1	-1E+10	1	-1E+10	1	-1E+10	1
4901784	118	C	09/27/2018	10:50	-132.301	42.898	0	1625.60	0	2.2990	0	34.7790	8	27.779	0	1606.457	0	39.7	4	12.1	4	-1E+10	1	-1E+10	1	-1E+10	1	-1E+10	1	-1E+10	1	-1E+10	1
4901784	118	C	09/27/2018	10:50	-132.301	42.898	0	1630.50	0	2.2900	0	34.7810	8	27.782	0	1611.281	0	40.0	4	12.2	4	-1E+10	1	-1E+10	1	-1E+10	1	-1E+10	1	-1E+10	1	-1E+10	1
4901784	118	C	09/27/2018	10:50	-132.301	42.898	0	1635.40	0	2.2820	0	34.7810	8	27.782	0	1616.104	0	40.0	4	12.2	4	-1E+10	1	-1E+10	1	-1E+10	1	-1E+10	1	-1E+10	1	-1E+10	1
4901784	118	C	09/27/2018	10:50	-132.301	42.898	0	1640.30	0	2.2750	0	34.7810	8	27.783	0	1620.928	0	40.1	4	12.2	4	-1E+10	1	-1E+10	1	-1E+10	1	-1E+10	1	-1E+10	1	-1E+10	1
4901784	118	C	09/27/2018	10:50	-132.301	42.898	0	1645.30	0	2.2630	0	34.7810	8	27.784	0	1625.850	0	40.5	4	12.3	4	-1E+10	1	-1E+10	1	-1E+10	1	-1E+10	1	-1E+10	1	-1E+10	1
4901784	118	C	09/27/2018	10:50	-132.301	42.898	0	1650.40	0	2.2570	0	34.7820	8	27.785	0	1630.870	0	40.5	4	12.3	4	-1E+10	1	-1E+10	1	-1E+10	1	-1E+10	1	-1E+10	1	-1E+10	1
4901784	118	C	09/27/2018	10:50	-132.301	42.898	0	1655.40	0	2.2500	0	34.7820	8	27.786	0	1635.791	0	40.6	4	12.3	4	-1E+10	1	-1E+10	1	-1E+10	1	-1E+10	1	-1E+10	1	-1E+10	1
4901784	118	C	09/27/2018	10:50	-132.301	42.898	0	1660.50	0	2.2390	0	34.7820	8	27.787	0	1640.811	0	40.7	4	12.4	4	-1E+10	1	-1E+10	1	-1E+10	1	-1E+10	1	-1E+10	1	-1E+10	1
4901784	118	C	09/27/2018	10:50	-132.301	42.898	0	1665.70	0	2.2290	0	34.7820	8	27.788	0	1645.929	0	40.9	4	12.4	4	-1E+10	1	-1E+10	1	-1E+10	1	-1E+10	1	-1E+10	1	-1E+10	1
4901784	118	C	09/27/2018	10:50	-132.301	42.898	0	1670.00	0	2.2180	0	34.7830	8	27.789	0	1650.161	0	41.2	4	12.5	4	-1E+10	1	-1E+10	1	-1E+10	1	-1E+10	1	-1E+10	1	-1E+10	1
4901784	118	C	09/27/2018	10:50	-132.301	42.898	0	1674.40	0	2.2150	0	34.7840	8	27.791	0	1654.492	0	41.7	4	12.6	4	-1E+10	1	-1E+10	1	-1E+10	1	-1E+10	1	-1E+10	1	-1E+10	1
4901784	118	C	09/27/2018	10:50	-132.301	42.898	0	1679.60	0	2.2130	0	34.7850	8	27.792	0	1659.610	0	42.0	4	12.8	4	-1E+10	1	-1E+10	1	-1E+10	1	-1E+10	1	-1E+10	1	-1E+10	1
4901784	118	C	09/27/2018	10:50	-132.301	42.898	0	1684.80	0	2.2060	0	34.7860	8	27.793	0	1664.727	0	42.2	4	12.8	4	-1E+10	1	-1E+10	1	-1E+10	1	-1E+10	1	-1E+10	1	-1E+10	1
4901784	118	C	09/27/2018	10:50	-132.301	42.898	0	1690.00	0	2.1940	0	34.7860	8	27.794	0	1669.845	0	42.4	4	12.9	4	-1E+10	1	-1E+10	1	-1E+10	1	-1E+10	1	-1E+10	1	-1E+10	1
4901784	118	C	09/27/2018	10:50	-132.301	42.898	0	1695.30	0	2.1810	0	34.7870	8	27.796	0	1675.061	0	42.9	4	13.0	4	-1E+10	1	-1E+10	1	-1E+10	1	-1E+10	1	-1E+10	1	-1E+10	1
4901784	118	C	09/27/2018	10:50	-132.301	42.898	0	1700.50	0	2.1730	0	34.7880	8	27.797	0	1680.178	0	43.2	4	13.1	4	-1E+10	1	-1E+10	1	-1E+10	1	-1E+10	1	-1E+10	1	-1E+10	1
4901784	118	C	09/27/2018	10:50	-132.301	42.898	0	1704.90	0	2.1660	0	34.7890	8	27.799	0	1684.508	0	43.6	4	13.2	4	-1E+10	1	-1E+10	1	-1E+10	1	-1E+10	1	-1E+10	1	-1E+10	1
4901784	118	C	09/27/2018	10:50	-132.301	42.898	0	1709.40	0	2.1640	0	34.7900	8	27.800	0	1688.936	0	44.1	4	13.4	4	-1E+10	1	-1E+10	1	-1E+10	1	-1E+10	1	-1E+10	1	-1E+10	1
4901784	118	C	09/27/2018	10:50	-132.301	42.898	0	1714.70	0	2.1600	0	34.7910	8	27.801	0	1694.152	0	44.4	4	13.5	4	-1E+10	1	-1E+10	1	-1E+10	1	-1E+10	1	-1E+10	1	-1E+10	1
4901784	118	C	09/27/2018	10:50	-132.301	42.898	0	1720.00	0	2.1560	0	34.7920	8	27.802	0	1699.367	0	44.7	4	13.6	4	-1E+10	1	-1E+10	1	-1E+10	1	-1E+10	1	-1E+10	1	-1E+10	1
4901784	118	C	09/27/2018	10:50	-132.301	42.898	0	1725.40	0	2.1480	0	34.7930	8	27.803	0	1704.681	0	45.0	4	13.6	4	-1E+10	1	-1E+10	1	-1E+10	1	-1E+10	1	-1E+10	1	-1E+10	1
4901784	118	C	09/27/2018	10:50	-132.301	42.898	0	1729.90	0	2.1430	0	34.7930	8	27.804	0	1709.109	0	45.1	4	13.7	4	-1E+10	1	-1E+10	1	-1E+10	1	-1E+10	1	-1E+10	1	-1E+10	1
4901784	118	C	09/27/2018	10:50	-132.301	42.898	0	1734.40	0	2.1340	0	34.7930	8	27.805	0	1713.536	0	45.2	4	13.7	4	-1E+10	1	-1E+10	1	-1E+10	1	-1E+10	1	-1E+10	1	-1E+10	1
4901784	118	C	09/27/2018	10:50	-132.301	42.898	0	1740.50	0	2.1280	0	34.7940	8	27.806	0	1719.538	0	45.4	4	13.7	4	-1E+10	1	-1E+10	1	-1E+10	1	-1E+10	1	-1E+10	1	-1E+10	1
4901784	118	C	09/27/2018	10:50	-132.301	42.898	0	1745.50	0	2.1210	0	34.7940	8	27.806	0	1724.458	0	45.6	4	13.8	4	-1E+10	1	-1E+10	1	-1E+10	1	-1E+10	1	-1E+10	1	-1E+10	1
4901784	118	C	09/27/2018	10:50	-132.301	42.898	0	1750.30	0	2.1110	0	34.7950	8	27.808	0	1729.180	0	45.9	4	13.9	4	-1E+10	1	-1E+10	1	-1E+10	1	-1E+10	1	-1E+10	1	-1E+10	1
4901784	118	C	09/27/2018	10:50	-132.301	42.898	0	1755.00	0	2.1030	0	34.7960	8	27.810	0	1733.804	0	46.2	4	14.0	4	-1E+10	1	-1E+10	1	-1E+10	1	-1E+10	1	-1E+10	1	-1E+10	1
4901784	118	C	09/27/2018	10:50	-132.301	42.898	0	1759.90	0	2.0970	0	34.7960	8	27.810	0	1738.625	0	46.5	4	14.1	4	-1E+10	1	-1E+10	1	-1E+10	1	-1E+10	1	-1E+10	1	-1E+10	1
4901784	118	C	09/27/2018	10:50	-132.301	42.898	0	1764.70	0	2.0900	0	34.7970	8	27.811	0	1743.347	0	46.8	4	14.2	4	-1E+10	1	-1E+10	1	-1E+10	1	-1E+10	1	-1E+10	1	-1E+10	1
4901784	118	C	09/27/2018	10:50	-132.301	42.898	0	1769.70	0	2.0850	0	34.7980	8	27.813	0	1748.266	0	47.2	4	14.3	4	-1E+10	1	-1E+10	1	-1E+10	1	-1E+10	1	-1E+10	1	-1E+10	1
4901784	118	C	09/27/2018	10:50	-132.301	42.898	0	1774.60	0	2.0790	0	34.7980	8	27.813	0	1753.087	0	47.6	4	14.4	4	-1E+10	1	-1E+10	1	-1E+10	1	-1E+10	1	-1E+10	1	-1E+10	1
4901784	118	C	09/27/2018	10:50	-132.301	42.898	0	1779.60	0	2.0690	0	34.8000	8	27.816	0	1758.005	0	48.0	4	14.5	4	-1E+10	1	-1E+10	1	-1E+10	1	-1E+10	1	-1E+10	1	-1E+10	1
4901784	118	C	09/27/2018	10:50	-132.301	42.898	0	1784.60	0	2.0650	0	34.8010	8	27.817	0	1762.924	0	48.3	4	14.6	4	-1E+10	1	-1E+10	1	-1E+10	1	-1E+10	1	-1E+10	1	-1E+10	1
4901784	118	C	09/27/2018	10:50	-132.301	42.898	0	1789.60	0	2.0610	0	34.8010	8	27.817	0	1767.842	0	48.6	4	14.7	4	-1E+10	1	-1E+10	1	-1E+10	1	-1E+10	1	-1E+10	1	-1E+10	1
4901784	118	C	09/27/2018	10:50	-132.301	42.898	0	1794.60	0	2.0560	0	34.8020	8	27.818	0	1772.761	0	49.0	4	14.8	4	-1E+10	1	-1E+10	1	-1E+10	1	-1E+10	1	-1E+10	1	-1E+10	1
4901784	118	C	09/27/2018	10:50	-132.301	42.898	0	1799.60	0	2.0490	0	34.8030	8	27.820	0	1777.679	0	49.4	4	14.9	4	-1E+10	1	-1E+10	1	-1E+10	1	-1E+10	1	-1E+10	1	-1E+10	1
4901784	118	C	09/27/2018	10:50	-132.301	42.898	0	1804.70	0	2.0440	0	34.8040	8	27.821	0	1782.696	0	49.8	4	15.1	4	-1E+10	1	-1E+10	1	-1E+10	1	-1E+10	1	-1E+10	1	-1E+10	1
4901784	118	C	09/27/2018	10:50	-132.301	42.898	0	1809.80	0	2.0410	0	34.8050	8	27.822	0	1787.712	0	50.1	4	15.2	4	-1E+10	1	-1E+10	1	-1E+10	1	-1E+10	1	-1E+10	1	-1E+10	1
4901784	118	C	09/27/2018	10:50	-132.301	42.898	0	1814.80	0	2.0380	0	34.8050	8	27.822	0	1792.630	0	50.4	4	15.2	4	-1E+10	1	-1E+10	1	-1E+10	1	-1E+10	1	-1E+10	1	-1E+10	1
4901784	118	C	09/27/2018	10:50	-132.301	42.898	0	1820.00	0	2.0330	0	34.8060	8	27.823	0	1797.744	0	50.7	4	15.3	4	-1E+10	1	-1E+10	1	-1E+10	1	-1E+10	1	-1E+10	1	-1E+10	1
4901784	118	C	09/27/2018	10:50	-132.301	42.898	0	1825.10	0	2.0310	0	34.8060	8	27.824	0	1802.760	0	50.9	4	15.4	4	-1E+10	1	-1E+10	1	-1E+10	1	-1E+10	1	-1E+10	1	-1E+10	1
4901784	118	C	09/27/2018	10:50	-132.301	42.898	0	1830.30	0	2.0260	0	34.8070	8	27.825	0	1807.875	0	51.3	4	15.5	4	-1E+10	1	-1E+10	1	-1E+10	1	-1E+10	1	-1E+10	1	-1E+10	1
4901784	118	C	09/27/2018	10:50	-132.301	42.898	0	1835.50	0	2.0230	0	34.8080	8	27.826	0	1812.989	0	51.4	4	15.5	4	-1E+10	1	-1E+10	1	-1E+10	1	-1E+10	1	-1E+10	1	-1E+10	1
4901784	118	C	09/27/2018	10:50	-132.301	42.898	0	1840.70	0	2.0220	0	34.8080	8	27.826	0	1818.103	0	51.6	4	15.6	4	-1E+10	1	-1E+10	1	-1E+10	1	-1E+10	1	-1E+10	1	-1E+10	1
4901784	118	C	09/27/2018	10:50	-132.301	42.898	0	1845.10	0	2.0200	0	34.8080	8	27.826	0	1822.430	0	52.0	4	15.7	4	-1E+10	1	-1E+10	1	-1E+10	1	-1E+10	1	-1E+10	1	-1E+10	1
4901784	118	C	09/27/2018	10:50	-132.301	42.898	0	1849.50	0	2.0160	0	34.8090	8	27.827	0	1826.757	0	52.2	4	15.8	4	-1E+10	1	-1E+10	1	-1E+10	1	-1E+10	1	-1E+10	1	-1E+10	1
4901784	118	C	09/27/2018	10:50	-132.301	42.898	0	1854.80	0	2.0100	0	34.8100	8	27.829	0	1831.969	0	52.5	4	15.9	4	-1E+10	1	-1E+10	1	-1E+10	1	-1E+10	1	-1E+10	1	-1E+10	1
4901784	118	C	09/27/2018	10:50	-132.301	42.898	0	1860.20	0	2.0040	0	34.8110	8	27.830	0	1837.279	0	52.8	4	16.0	4	-1E+10	1	-1E+10	1	-1E+10	1	-1E+10	1	-1E+10	1	-1E+10	1
4901784	118	C	09/27/2018	10:50	-132.301	42.898	0	1865.50	0	2.0030	0	34.8110	8	27.830	0	1842.491	0	53.1	4	16.0	4	-1E+10	1	-1E+10	1	-1E+10	1	-1E+10	1	-1E+10	1	-1E+10	1
4901784	118	C	09/27/2018	10:50	-132.301	42.898	0	1870.10	0	2.0000	0	34.8120	8	27.831	0	1847.014	0	53.3	4	16.1	4	-1E+10	1	-1E+10	1	-1E+10	1	-1E+10	1	-1E+10	1	-1E+10	1
4901784	118	C	09/27/2018	10:50	-132.301	42.898	0	1874.80	0	1.9960	0	34.8130	8	27.832	0	1851.636	0	53.6	4	16.2	4	-1E+10	1	-1E+10	1	-1E+10	1	-1E+10	1	-1E+10	1	-1E+10	1
4901784	118	C	09/27/2018	10:50	-132.301	42.898	0	1879.90	0	1.9950	0	34.8130	8	27.832	0	1856.650	0	54.0	4	16.3	4	-1E+10	1	-1E+10	1	-1E+10	1	-1E+10	1	-1E+10	1	-1E+10	1
4901784	118	C	09/27/2018	10:50	-132.301	42.898	0	1884.60	0	1.9880	0	34.8140	8	27.834	0	1861.272	0	54.4	4	16.4	4	-1E+10	1	-1E+10	1	-1E+10	1	-1E+10	1	-1E+10	1	-1E+10	1
4901784	118	C	09/27/2018	10:50	-132.301	42.898	0	1889.40	0	1.9780	0	34.8150	8	27.835	0	1865.991	0	54.7	4	16.5	4	-1E+10	1	-1E+10	1	-1E+10	1	-1E+10	1	-1E+10	1	-1E+10	1
4901784	118	C	09/27/2018	10:50	-132.301	42.898	0	1895.10	0	1.9740	0	34.8160	8	27.836	0	1871.596	0	55.1	4	16.6	4	-1E+10	1	-1E+10	1	-1E+10	1	-1E+10	1	-1E+10	1	-1E+10	1
4901784	118	C	09/27/2018	10:50	-132.301	42.898	0	1900.80	0	1.9680	0	34.8160	8	27.837	0	1877.200	0	55.6	4	16.8	4	-1E+10	1	-1E+10	1	-1E+10	1	-1E+10	1	-1E+10	1	-1E+10	1
4901784	118	C	09/27/2018	10:50	-132.301	42.898	0	1905.70	0	1.9650	0	34.8170	8	27.838	0	1882.017	0	55.9	4	16.9	4	-1E+10	1	-1E+10	1	-1E+10	1	-1E+10	1	-1E+10	1	-1E+10	1
4901784	118	C	09/27/2018	10:50	-132.301	42.898	0	1910.70	0	1.9620	0	34.8180	8	27.839	0	1886.933	0	56.2	4	16.9	4	-1E+10	1	-1E+10	1	-1E+10	1	-1E+10	1	-1E+10	1	-1E+10	1
4901784	118	C	09/27/2018	10:50	-132.301	42.898	0	1915.70	0	1.9580	0	34.8190	8	27.840	0	1891.849	0	56.6	4	17.1	4	-1E+10	1	-1E+10	1	-1E+10	1	-1E+10	1	-1E+10	1	-1E+10	1
4901784	118	C	09/27/2018	10:50	-132.301	42.898	0	1920.70	0	1.9560	0	34.8200	8	27.841	0	1896.764	0	56.9	4	17.2	4	-1E+10	1	-1E+10	1	-1E+10	1	-1E+10	1	-1E+10	1	-1E+10	1
4901784	118	C	09/27/2018	10:50	-132.301	42.898	0	1925.70	0	1.9530	0	34.8200	8	27.841	0	1901.679	0	57.2	4	17.3	4	-1E+10	1	-1E+10	1	-1E+10	1	-1E+10	1	-1E+10	1	-1E+10	1
4901784	118	C	09/27/2018	10:50	-132.301	42.898	0	1929.90	0	1.9510	0	34.8210	8	27.842	0	1905.808	0	57.3	4	17.3	4	-1E+10	1	-1E+10	1	-1E+10	1	-1E+10	1	-1E+10	1	-1E+10	1
4901784	118	C	09/27/2018	10:50	-132.301	42.898	0	1934.20	0	1.9480	0	34.8210	8	27.843	0	1910.035	0	57.6	4	17.4	4	-1E+10	1	-1E+10	1	-1E+10	1	-1E+10	1	-1E+10	1	-1E+10	1
4901784	118	C	09/27/2018	10:50	-132.301	42.898	0	1939.30	0	1.9470	0	34.8210	8	27.843	0	1915.049	0	57.8	4	17.4	4	-1E+10	1	-1E+10	1	-1E+10	1	-1E+10	1	-1E+10	1	-1E+10	1
4901784	118	C	09/27/2018	10:50	-132.301	42.898	0	1944.40	0	1.9430	0	34.8220	8	27.844	0	1920.062	0	58.1	4	17.5	4	-1E+10	1	-1E+10	1	-1E+10	1	-1E+10	1	-1E+10	1	-1E+10	1
4901784	118	C	09/27/2018	10:50	-132.301	42.898	0	1949.60	0	1.9390	0	34.8230	8	27.845	0	1925.173	0	58.3	4	17.6	4	-1E+10	1	-1E+10	1	-1E+10	1	-1E+10	1	-1E+10	1	-1E+10	1
4901784	118	C	09/27/2018	10:50	-132.301	42.898	0	1954.80	0	1.9360	0	34.8230	8	27.845	0	1930.285	0	58.7	4	17.7	4	-1E+10	1	-1E+10	1	-1E+10	1	-1E+10	1	-1E+10	1	-1E+10	1
4901784	118	C	09/27/2018	10:50	-132.301	42.898	0	1960.10	0	1.9330	0	34.8240	8	27.846	0	1935.494	0	59.0	4	17.8	4	-1E+10	1	-1E+10	1	-1E+10	1	-1E+10	1	-1E+10	1	-1E+10	1
4901784	118	C	09/27/2018	10:50	-132.301	42.898	0	1965.30	0	1.9310	0	34.8250	8	27.847	0	1940.605	0	59.2	4	17.8	4	-1E+10	1	-1E+10	1	-1E+10	1	-1E+10	1	-1E+10	1	-1E+10	1
4901784	118	C	09/27/2018	10:50	-132.301	42.898	0	1970.50	0	1.9300	0	34.8250	8	27.848	0	1945.716	0	59.3	4	17.9	4	-1E+10	1	-1E+10	1	-1E+10	1	-1E+10	1	-1E+10	1	-1E+10	1
4901784	118	C	09/27/2018	10:50	-132.301	42.898	0	1975.00	0	1.9280	0	34.8250	8	27.848	0	1950.139	0	59.4	4	17.9	4	-1E+10	1	-1E+10	1	-1E+10	1	-1E+10	1	-1E+10	1	-1E+10	1
4901784	118	C	09/27/2018	10:50	-132.301	42.898	0	1979.50	0	1.9260	0	34.8250	8	27.848	0	1954.562	0	59.6	4	18.0	4	-1E+10	1	-1E+10	1	-1E+10	1	-1E+10	1	-1E+10	1	-1E+10	1
4901784	118	C	09/27/2018	10:50	-132.301	42.898	0	1984.90	0	1.9230	0	34.8260	8	27.849	0	1959.869	0	59.8	4	18.0	4	-1E+10	1	-1E+10	1	-1E+10	1	-1E+10	1	-1E+10	1	-1E+10	1
4901784	118	C	09/27/2018	10:50	-132.301	42.898	0	1990.30	0	1.9210	0	34.8260	8	27.849	0	1965.176	0	60.0	4	18.1	4	-1E+10	1	-1E+10	1	-1E+10	1	-1E+10	1	-1E+10	1	-1E+10	1
4901784	118	C	09/27/2018	10:50	-132.301	42.898	0	1994.80	0	1.9200	0	34.8260	8	27.849	0	1969.598	0	60.1	4	18.1	4	-1E+10	1	-1E+10	1	-1E+10	1	-1E+10	1	-1E+10	1	-1E+10	1
4901784	118	C	09/27/2018	10:50	-132.301	42.898	0	1999.20	0	1.9180	0	34.8270	8	27.850	0	1973.922	0	60.2	4	18.2	4	-1E+10	1	-1E+10	1	-1E+10	1	-1E+10	1	-1E+10	1	-1E+10	1
4901784	118	C	09/27/2018	10:50	-132.301	42.898	0	2004.50	0	1.9170	0	34.8270	8	27.850	0	1979.131	0	60.4	4	18.2	4	-1E+10	1	-1E+10	1	-1E+10	1	-1E+10	1	-1E+10	1	-1E+10	1
4901784	118	C	09/27/2018	10:50	-132.301	42.898	0	2009.30	0	1.9150	0	34.8270	8	27.850	0	1983.848	0	60.6	4	18.3	4	-1E+10	1	-1E+10	1	-1E+10	1	-1E+10	1	-1E+10	1	-1E+10	1
4901784	118	C	09/27/2018	10:50	-132.301	42.898	0	2015.00	0	1.9130	0	34.8280	8	27.851	0	1989.449	0	60.8	4	18.3	4	-1E+10	1	-1E+10	1	-1E+10	1	-1E+10	1	-1E+10	1	-1E+10	1
4901784	118	C	09/27/2018	10:50	-132.301	42.898	0	2019.90	0	1.9110	0	34.8280	8	27.852	0	1994.264	0	61.0	4	18.4	4	-1E+10	1	-1E+10	1	-1E+10	1	-1E+10	1	-1E+10	1	-1E+10	1
4901784	118	C	09/27/2018	10:50	-132.301	42.898	0																										
4901784	119	C	10/07/2018	10:43	-132.535	43.012	0	2.20	0	17.4430	0	33.0510	8	23.915	0	2.183	0	231.8	4	96.7	4	-1E+10	1	-1E+10	1	-1E+10	1	-1E+10	1	-1E+10	1	-1E+10	1
4901784	119	C	10/07/2018	10:43	-132.535	43.012	0	3.90	0	17.4420	0	33.0510	8	23.915	0	3.869	0	231.8	4	96.8	4	-1E+10	1	-1E+10	1	-1E+10	1	-1E+10	1	-1E+10	1	-1E+10	1
4901784	119	C	10/07/2018	10:43	-132.535	43.012	0	5.60	0	17.4440	0	33.0510	8	23.915	0	5.555	0	231.6	4	96.7	4	-1E+10	1	-1E+10	1	-1E+10	1	-1E+10	1	-1E+10	1	-1E+10	1
4901784	119	C	10/07/2018	10:43	-132.535	43.012	0	7.30	0	17.4450	0	33.0510	8	23.915	0	7.242	0	231.6	4	96.7	4	-1E+10	1	-1E+10	1	-1E+10	1	-1E+10	1	-1E+10	1	-1E+10	1
4901784	119	C	10/07/2018	10:43	-132.535	43.012	0	9.20	0	17.4430	0	33.0500	8	23.915	0	9.127	0	231.2	4	96.5	4	-1E+10	1	-1E+10	1	-1E+10	1	-1E+10	1	-1E+10	1	-1E+10	1
4901784	119	C	10/07/2018	10:43	-132.535	43.012	0	11.00	0	17.4420	0	33.0490	8	23.914	0	10.912	0	231.0	4	96.4	4	-1E+10	1	-1E+10	1	-1E+10	1	-1E+10	1	-1E+10	1	-1E+10	1
4901784	119	C	10/07/2018	10:43	-132.535	43.012	0	12.80	0	17.4350	0	33.0510	8	23.918	0	12.698	0	230.9	4	96.4	4	-1E+10	1	-1E+10	1	-1E+10	1	-1E+10	1	-1E+10	1	-1E+10	1
4901784	119	C	10/07/2018	10:43	-132.535	43.012	0	14.70	0	17.3900	0	33.0470	8	23.925	0	14.583	0	231.0	4	96.3	4	-1E+10	1	-1E+10	1	-1E+10	1	-1E+10	1	-1E+10	1	-1E+10	1
4901784	119	C	10/07/2018	10:43	-132.535	43.012	0	16.60	0	17.3850	0	33.0440	8	23.924	0	16.468	0	231.1	4	96.4	4	-1E+10	1	-1E+10	1	-1E+10	1	-1E+10	1	-1E+10	1	-1E+10	1
4901784	119	C	10/07/2018	10:43	-132.535	43.012	0	18.50	0	17.3860	0	33.0440	8	23.924	0	18.352	0	230.8	4	96.2	4	-1E+10	1	-1E+10	1	-1E+10	1	-1E+10	1	-1E+10	1	-1E+10	1
4901784	119	C	10/07/2018	10:43	-132.535	43.012	0	20.40	0	17.3870	0	33.0440	8	23.924	0	20.237	0	230.7	4	96.2	4	-1E+10	1	-1E+10	1	-1E+10	1	-1E+10	1	-1E+10	1	-1E+10	1
4901784	119	C	10/07/2018	10:43	-132.535	43.012	0	22.30	0	17.3860	0	33.0430	8	23.923	0	22.122	0	230.7	4	96.2	4	-1E+10	1	-1E+10	1	-1E+10	1	-1E+10	1	-1E+10	1	-1E+10	1
4901784	119	C	10/07/2018	10:43	-132.535	43.012	0	24.30	0	17.3840	0	33.0430	8	23.924	0	24.106	0	230.6	4	96.2	4	-1E+10	1	-1E+10	1	-1E+10	1	-1E+10	1	-1E+10	1	-1E+10	1
4901784	119	C	10/07/2018	10:43	-132.535	43.012	0	26.40	0	17.3820	0	33.0420	8	23.924	0	26.189	0	230.6	4	96.2	4	-1E+10	1	-1E+10	1	-1E+10	1	-1E+10	1	-1E+10	1	-1E+10	1
4901784	119	C	10/07/2018	10:43	-132.535	43.012	0	27.00	0	17.3810	0	33.0420	8	23.924	0	26.784	0	230.6	4	96.1	4	-1E+10	1	-1E+10	1	-1E+10	1	-1E+10	1	-1E+10	1	-1E+10	1
4901784	119	C	10/07/2018	10:43	-132.535	43.012	0	28.60	0	17.3790	0	33.0410	8	23.924	0	28.371	0	230.5	4	96.1	4	-1E+10	1	-1E+10	1	-1E+10	1	-1E+10	1	-1E+10	1	-1E+10	1
4901784	119	C	10/07/2018	10:43	-132.535	43.012	0	30.20	0	17.3770	0	33.0410	8	23.924	0	29.958	0	231.0	4	96.3	4	-1E+10	1	-1E+10	1	-1E+10	1	-1E+10	1	-1E+10	1	-1E+10	1
4901784	119	C	10/07/2018	10:43	-132.535	43.012	0	31.80	0	17.3720	0	33.0420	8	23.926	0	31.545	0	231.4	4	96.5	4	-1E+10	1	-1E+10	1	-1E+10	1	-1E+10	1	-1E+10	1	-1E+10	1
4901784	119	C	10/07/2018	10:43	-132.535	43.012	0	33.40	0	17.3580	0	33.0410	8	23.929	0	33.132	0	232.1	4	96.7	4	-1E+10	1	-1E+10	1	-1E+10	1	-1E+10	1	-1E+10	1	-1E+10	1
4901784	119	C	10/07/2018	10:43	-132.535	43.012	0	34.90	0	17.3320	0	33.0390	8	23.934	0	34.620	0	233.1	4	97.1	4	-1E+10	1	-1E+10	1	-1E+10	1	-1E+10	1	-1E+10	1	-1E+10	1
4901784	119	C	10/07/2018	10:43	-132.535	43.012	0	36.40	0	17.3120	0	33.0330	8	23.934	0	36.108	0	234.9	4	97.8	4	-1E+10	1	-1E+10	1	-1E+10	1	-1E+10	1	-1E+10	1	-1E+10	1
4901784	119	C	10/07/2018	10:43	-132.535	43.012	0	37.90	0	17.2120	0	33.0370	8	23.961	0	37.596	0	237.0	4	98.5	4	-1E+10	1	-1E+10	1	-1E+10	1	-1E+10	1	-1E+10	1	-1E+10	1
4901784	119	C	10/07/2018	10:43	-132.535	43.012	0	39.40	0	17.1330	0	33.0130	8	23.961	0	39.084	0	240.1	4	99.6	4	-1E+10	1	-1E+10	1	-1E+10	1	-1E+10	1	-1E+10	1	-1E+10	1
4901784	119	C	10/07/2018	10:43	-132.535	43.012	0	40.80	0	17.0400	0	32.9940	8	23.968	0	40.472	0	244.2	4	101.1	4	-1E+10	1	-1E+10	1	-1E+10	1	-1E+10	1	-1E+10	1	-1E+10	1
4901784	119	C	10/07/2018	10:43	-132.535	43.012	0	42.30	0	16.9920	0	32.9590	8	23.953	0	41.960	0	249.3	4	103.1	4	-1E+10	1	-1E+10	1	-1E+10	1	-1E+10	1	-1E+10	1	-1E+10	1
4901784	119	C	10/07/2018	10:43	-132.535	43.012	0	43.90	0	15.6130	0	32.9330	8	24.247	0	43.547	0	257.0	4	103.5	4	-1E+10	1	-1E+10	1	-1E+10	1	-1E+10	1	-1E+10	1	-1E+10	1
4901784	119	C	10/07/2018	10:43	-132.535	43.012	0	46.10	0	13.9860	0	32.8880	8	24.560	0	45.729	0	273.3	4	106.5	4	-1E+10	1	-1E+10	1	-1E+10	1	-1E+10	1	-1E+10	1	-1E+10	1
4901784	119	C	10/07/2018	10:43	-132.535	43.012	0	47.90	0	13.5020	0	32.8450	8	24.626	0	47.514	0	278.8	4	107.6	4	-1E+10	1	-1E+10	1	-1E+10	1	-1E+10	1	-1E+10	1	-1E+10	1
4901784	119	C	10/07/2018	10:43	-132.535	43.012	0	49.50	0	12.7320	0	32.8440	8	24.777	0	49.101	0	283.9	4	107.8	4	-1E+10	1	-1E+10	1	-1E+10	1	-1E+10	1	-1E+10	1	-1E+10	1
4901784	119	C	10/07/2018	10:43	-132.535	43.012	0	51.00	0	12.6490	0	32.8470	8	24.796	0	50.589	0	283.8	4	107.6	4	-1E+10	1	-1E+10	1	-1E+10	1	-1E+10	1	-1E+10	1	-1E+10	1
4901784	119	C	10/07/2018	10:43	-132.535	43.012	0	52.60	0	12.5410	0	32.8450	8	24.815	0	52.176	0	284.2	4	107.5	4	-1E+10	1	-1E+10	1	-1E+10	1	-1E+10	1	-1E+10	1	-1E+10	1
4901784	119	C	10/07/2018	10:43	-132.535	43.012	0	54.10	0	12.3240	0	32.8500	8	24.860	0	53.664	0	284.2	4	107.1	4	-1E+10	1	-1E+10	1	-1E+10	1	-1E+10	1	-1E+10	1	-1E+10	1
4901784	119	C	10/07/2018	10:43	-132.535	43.012	0	55.70	0	11.9520	0	32.8590	8	24.937	0	55.251	0	286.1	4	106.9	4	-1E+10	1	-1E+10	1	-1E+10	1	-1E+10	1	-1E+10	1	-1E+10	1
4901784	119	C	10/07/2018	10:43	-132.535	43.012	0	57.30	0	11.8770	0	32.8570	8	24.950	0	56.837	0	285.5	4	106.6	4	-1E+10	1	-1E+10	1	-1E+10	1	-1E+10	1	-1E+10	1	-1E+10	1
4901784	119	C	10/07/2018	10:43	-132.535	43.012	0	58.80	0	11.7970	0	32.8460	8	24.956	0	58.325	0	284.8	4	106.1	4	-1E+10	1	-1E+10	1	-1E+10	1	-1E+10	1	-1E+10	1	-1E+10	1
4901784	119	C	10/07/2018	10:43	-132.535	43.012	0	60.50	0	11.3620	0	32.8720	8	25.056	0	60.011	0	286.1	4	105.6	4	-1E+10	1	-1E+10	1	-1E+10	1	-1E+10	1	-1E+10	1	-1E+10	1
4901784	119	C	10/07/2018	10:43	-132.535	43.012	0	62.10	0	11.2310	0	32.8870	8	25.091	0	61.598	0	285.3	4	105.1	4	-1E+10	1	-1E+10	1	-1E+10	1	-1E+10	1	-1E+10	1	-1E+10	1
4901784	119	C	10/07/2018	10:43	-132.535	43.012	0	63.80	0	11.0170	0	32.8830	8	25.126	0	63.284	0	284.8	4	104.4	4	-1E+10	1	-1E+10	1	-1E+10	1	-1E+10	1	-1E+10	1	-1E+10	1
4901784	119	C	10/07/2018	10:43	-132.535	43.012	0	65.30	0	10.8750	0	32.8860	8	25.154	0	64.772	0	283.3	4	103.5	4	-1E+10	1	-1E+10	1	-1E+10	1	-1E+10	1	-1E+10	1	-1E+10	1
4901784	119	C	10/07/2018	10:43	-132.535	43.012	0	66.90	0	10.7520	0	32.8870	8	25.176	0	66.358	0	282.3	4	102.9	4	-1E+10	1	-1E+10	1	-1E+10	1	-1E+10	1	-1E+10	1	-1E+10	1
4901784	119	C	10/07/2018	10:43	-132.535	43.012	0	68.40	0	10.6840	0	32.8870	8	25.188	0	67.846	0	280.3	4	102.0	4	-1E+10	1	-1E+10	1	-1E+10	1	-1E+10	1	-1E+10	1	-1E+10	1
4901784	119	C	10/07/2018	10:43	-132.535	43.012	0	70.00	0	10.6520	0	32.8840	8	25.191	0	69.433	0	277.6	4	101.0	4	-1E+10	1	-1E+10	1	-1E+10	1	-1E+10	1	-1E+10	1	-1E+10	1
4901784	119	C	10/07/2018	10:43	-132.535	43.012	0	71.60	0	10.5510	0	32.8830	8	25.208	0	71.019	0	274.6	4	99.7	4	-1E+10	1	-1E+10	1	-1E+10	1	-1E+10	1	-1E+10	1	-1E+10	1
4901784	119	C	10/07/2018	10:43	-132.535	43.012	0	73.30	0	10.3690	0	32.8990	8	25.251	0	72.705	0	272.0	4	98.4	4	-1E+10	1	-1E+10	1	-1E+10	1	-1E+10	1	-1E+10	1	-1E+10	1
4901784	119	C	10/07/2018	10:43	-132.535	43.012	0	74.80	0	10.2740	0	32.9020	8	25.270	0	74.193	0	270.7	4	97.7	4	-1E+10	1	-1E+10	1	-1E+10	1	-1E+10	1	-1E+10	1	-1E+10	1
4901784	119	C	10/07/2018	10:43	-132.535	43.012	0	76.50	0	10.2350	0	32.9020	8	25.276	0	75.879	0	269.0	4	97.0	4	-1E+10	1	-1E+10	1	-1E+10	1	-1E+10	1	-1E+10	1	-1E+10	1
4901784	119	C	10/07/2018	10:43	-132.535	43.012	0	78.10	0	10.2080	0	32.9000	8	25.279	0	77.466	0	267.1	4	96.2	4	-1E+10	1	-1E+10	1	-1E+10	1	-1E+10	1	-1E+10	1	-1E+10	1
4901784	119	C	10/07/2018	10:43	-132.535	43.012	0	79.80	0	10.1740	0	32.9000	8	25.285	0	79.151	0	264.7	4	95.3	4	-1E+10	1	-1E+10	1	-1E+10	1	-1E+10	1	-1E+10	1	-1E+10	1
4901784	119	C	10/07/2018	10:43	-132.535	43.012	0	81.50	0	10.0640	0	32.9000	8	25.304	0	80.837	0	262.8	4	94.4	4	-1E+10	1	-1E+10	1	-1E+10	1	-1E+10	1	-1E+10	1	-1E+10	1
4901784	119	C	10/07/2018	10:43	-132.535	43.012	0	83.10	0	10.0320	0	32.9000	8	25.309	0	82.424	0	261.1	4	93.7	4	-1E+10	1	-1E+10	1	-1E+10	1	-1E+10	1	-1E+10	1	-1E+10	1
4901784	119	C	10/07/2018	10:43	-132.535	43.012	0	84.80	0	9.9570	0	32.9020	8	25.323	0	84.110	0	259.3	4	92.9	4	-1E+10	1	-1E+10	1	-1E+10	1	-1E+10	1	-1E+10	1	-1E+10	1
4901784	119	C	10/07/2018	10:43	-132.535	43.012	0	86.50	0	9.8670	0	32.9010	8	25.337	0	85.796	0	258.0	4	92.3	4	-1E+10	1	-1E+10	1	-1E+10	1	-1E+10	1	-1E+10	1	-1E+10	1
4901784	119	C	10/07/2018	10:43	-132.535	43.012	0	88.10	0	9.8420	0	32.9000	8	25.341	0	87.382	0	256.7	4	91.8	4	-1E+10	1	-1E+10	1	-1E+10	1	-1E+10	1	-1E+10	1	-1E+10	1
4901784	119	C	10/07/2018	10:43	-132.535	43.012	0	89.90	0	9.8390	0	32.9010	8	25.342	0	89.167	0	255.1	4	91.2	4	-1E+10	1	-1E+10	1	-1E+10	1	-1E+10	1	-1E+10	1	-1E+10	1
4901784	119	C	10/07/2018	10:43	-132.535	43.012	0	91.70	0	9.7810	0	32.9180	8	25.365	0	90.952	0	253.3	4	90.4	4	-1E+10	1	-1E+10	1	-1E+10	1	-1E+10	1	-1E+10	1	-1E+10	1
4901784	119	C	10/07/2018	10:43	-132.535	43.012	0	93.40	0	9.6440	0	32.9080	8	25.379	0	92.638	0	253.3	4	90.2	4	-1E+10	1	-1E+10	1	-1E+10	1	-1E+10	1	-1E+10	1	-1E+10	1
4901784	119	C	10/07/2018	10:43	-132.535	43.012	0	95.40	0	9.5540	0	32.9140	8	25.399	0	94.621	0	252.0	4	89.5	4	-1E+10	1	-1E+10	1	-1E+10	1	-1E+10	1	-1E+10	1	-1E+10	1
4901784	119	C	10/07/2018	10:43	-132.535	43.012	0	95.90	0	9.5510	0	32.9140	8	25.399	0	95.117	0	251.7	4	89.4	4	-1E+10	1	-1E+10	1	-1E+10	1	-1E+10	1	-1E+10	1	-1E+10	1
4901784	119	C	10/07/2018	10:43	-132.535	43.012	0	97.40	0	9.5130	0	32.9230	8	25.413	0	96.604	0	250.4	4	88.9	4	-1E+10	1	-1E+10	1	-1E+10	1	-1E+10	1	-1E+10	1	-1E+10	1
4901784	119	C	10/07/2018	10:43	-132.535	43.012	0	98.90	0	9.4500	0	32.9350	8	25.432	0	98.092	0	249.5	4	88.5	4	-1E+10	1	-1E+10	1	-1E+10	1	-1E+10	1	-1E+10	1	-1E+10	1
4901784	119	C	10/07/2018	10:43	-132.535	43.012	0	100.30	0	9.4410	0	32.9360	8	25.434	0	99.480	0	248.5	4	88.1	4	-1E+10	1	-1E+10	1	-1E+10	1	-1E+10	1	-1E+10	1	-1E+10	1
4901784	119	C	10/07/2018	10:43	-132.535	43.012	0	102.50	0	9.3030	0	32.9670	8	25.481	0	101.661	0	246.8	4	87.2	4	-1E+10	1	-1E+10	1	-1E+10	1	-1E+10	1	-1E+10	1	-1E+10	1
4901784	119	C	10/07/2018	10:43	-132.535	43.012	0	105.50	0	9.1850	0	32.9890	8	25.517	0	104.636	0	245.2	4	86.5	4	-1E+10	1	-1E+10	1	-1E+10	1	-1E+10	1	-1E+10	1	-1E+10	1
4901784	119	C	10/07/2018	10:43	-132.535	43.012	0	107.90	0	9.1000	0	33.0060	8	25.543	0	107.016	0	244.0	4	85.9	4	-1E+10	1	-1E+10	1	-1E+10	1	-1E+10	1	-1E+10	1	-1E+10	1
4901784	119	C	10/07/2018	10:43	-132.535	43.012	0	110.30	0	9.0460	0	33.0180	8	25.561	0	109.395	0	242.2	4	85.2	4	-1E+10	1	-1E+10	1	-1E+10	1	-1E+10	1	-1E+10	1	-1E+10	1
4901784	119	C	10/07/2018	10:43	-132.535	43.012	0	112.80	0	8.8110	0	33.0580	8	25.629	0	111.874	0	241.3	4	84.4	4	-1E+10	1	-1E+10	1	-1E+10	1	-1E+10	1	-1E+10	1	-1E+10	1
4901784	119	C	10/07/2018	10:43	-132.535	43.012	0	114.50	0	8.6450	0	33.0890	8	25.679	0	113.560	0	240.9	4	84.0	4	-1E+10	1	-1E+10	1	-1E+10	1	-1E+10	1	-1E+10	1	-1E+10	1
4901784	119	C	10/07/2018	10:43	-132.535	43.012	0	117.30	0	8.3960	0	33.1390	8	25.756	0	116.336	0	241.0	4	83.6	4	-1E+10	1	-1E+10	1	-1E+10	1	-1E+10	1	-1E+10	1	-1E+10	1
4901784	119	C	10/07/2018	10:43	-132.535	43.012	0	120.20	0	8.2980	0	33.1660	8	25.792	0	119.211	0	240.4	4	83.2	4	-1E+10	1	-1E+10	1	-1E+10	1	-1E+10	1	-1E+10	1	-1E+10	1
4901784	119	C	10/07/2018	10:43	-132.535	43.012	0	122.20	0	8.2380	0	33.1770	8	25.809	0	121.194	0	240.3	4	83.1	4	-1E+10	1	-1E+10	1	-1E+10	1	-1E+10	1	-1E+10	1	-1E+10	1
4901784	119	C	10/07/2018	10:43	-132.535	43.012	0	125.00	0	8.2070	0	33.1890	8	25.823	0	123.971	0	239.5	4	82.8	4	-1E+10	1	-1E+10	1	-1E+10	1	-1E+10	1	-1E+10	1	-1E+10	1
4901784	119	C	10/07/2018	10:43	-132.535	43.012	0	127.90	0	8.1670	0	33.2070	8	25.843	0	126.846	0	238.5	4	82.3	4	-1E+10	1	-1E+10	1	-1E+10	1	-1E+10	1	-1E+10	1	-1E+10	1
4901784	119	C	10/07/2018	10:43	-132.535	43.012	0	129.70	0	8.1300	0	33.2230	8	25.861	0	128.630	0	237.6	4	82.0	4	-1E+10	1	-1E+10	1	-1E+10	1	-1E+10	1	-1E+10	1	-1E+10	1
4901784	119	C	10/07/2018	10:43	-132.535	43.012	0	132.40	0	8.0940	0	33.2380	8	25.879	0	131.307	0	235.8	4	81.3	4	-1E+10	1	-1E+10	1	-1E+10	1	-1E+10	1	-1E+10	1	-1E+10	1
4901784	119	C	10/07/2018	10:43	-132.535	43.012	0	135.20	0	8.0280	0	33.2960	8	25.934	0	134.083	0	233.6	4	80.5	4	-1E+10	1	-1E+10	1	-1E+10	1	-1E+10	1	-1E+10	1	-1E+10	1
4901784	119	C	10/07/2018	10:43	-132.535	43.012	0	137.60	0	7.9970	0	33.3240	8	25.960	0	136.463	0	231.7	4	79.8	4	-1E+10	1	-1E+10	1	-1E+10	1	-1E+10	1	-1E+10	1	-1E+10	1
4901784	119	C	10/07/2018	10:43	-132.535	43.012	0	140.40	0	7.9600	0	33.4000	8	26.026	0	139.238	0	229.0	4	78.8	4	-1E+10	1	-1E+10	1	-1E+10	1	-1E+10	1	-1E+10	1	-1E+10	1
4901784	119	C	10/07/2018	10:43	-132.535	43.012	0	142.80	0	7.9620	0	33.4320	8	26.050	0	141.618	0	226.5	4	78.0	4	-1E+10	1	-1E+10	1	-1E+10	1	-1E+10	1	-1E+10	1	-1E+10	1
4901784	119	C	10/07/2018	10:43	-132.535	43.012	0	145.20	0	7.9690	0	33.4580	8	26.070	0	143.997	0	223.7	4	77.1	4	-1E+10	1	-1E+10	1	-1E+10	1	-1E+10	1	-1E+10	1	-1E+10	1
4901784	119	C	10/07/2018	10:43	-132.535	43.012	0	147.60	0	7.9960	0	33.5080	8	26.105	0	146.376	0	220.0	4	75.8	4	-1E+10	1	-1E+10	1	-1E+10	1	-1E+10	1	-1E+10	1	-1E+10	1
4901784	119	C	10/07/2018	10:43	-132.535	43.012	0	150.10	0	8.0330	0	33.5810	8	26.157	0	148.855	0	216.0	4	74.6	4	-1E+10	1	-1E+10	1	-1E+10	1	-1E+10	1	-1E+10	1	-1E+10	1
4901784	119	C	10/07/2018	10:43	-132.535	43.012	0	152.50	0	8.0750	0	33.6510	8	26.206	0	151.234	0	212.2	4	73.4	4	-1E+10	1	-1E+10	1	-1E+10	1	-1E+10	1	-1E+10	1	-1E+10	1
4901784	119	C	10/07/2018	10:43	-132.535	43.012	0	155.10	0	8.1160	0	33.7100	8	26.246	0	153.811	0	209.4	4	72.5	4	-1E+10	1	-1E+10	1	-1E+10	1	-1E+10	1	-1E+10	1	-1E+10	1
4901784	119	C	10/07/2018	10:43	-132.535	43.012	0	157.70	0	8.1290	0	33.7290	8	26.259	0	156.389	0	206.5	4	71.5	4	-1E+10	1	-1E+10	1	-1E+10	1	-1E+10	1	-1E+10	1	-1E+10	1
4901784	119	C	10/07/2018	10:43	-132.535	43.012	0	160.10	0	8.1650	0	33.7740	8	26.289	0	158.768	0	202.9	4	70.3	4	-1E+10	1	-1E+10	1	-1E+10	1	-1E+10	1	-1E+10	1	-1E+10	1
4901784	119	C	10/07/2018	10:43	-132.535	43.012	0	162.50	0	8.1940	0	33.8100	8	26.313	0	161.147	0	199.1	4	69.1	4	-1E+10	1	-1E+10	1	-1E+10	1	-1E+10	1	-1E+10	1	-1E+10	1
4901784	119	C	10/07/2018	10:43	-132.535	43.012	0	164.90	0	8.2450	0	33.8780	8	26.359	0	163.526	0	194.4	4	67.6	4	-1E+10	1	-1E+10	1	-1E+10	1	-1E+10	1	-1E+10	1	-1E+10	1
4901784	119	C	10/07/2018	10:43	-132.535	43.012	0	167.40	0	8.3040	0	33.9670	8	26.420	0	166.004	0	189.8	4	66.1	4	-1E+10	1	-1E+10	1	-1E+10	1	-1E+10	1	-1E+10	1	-1E+10	1
4901784	119	C	10/07/2018	10:43	-132.535	43.012	0	170.00	0	8.3210	0	33.9850	8	26.432	0	168.582	0	187.1	4	65.2	4	-1E+10	1	-1E+10	1	-1E+10	1	-1E+10	1	-1E+10	1	-1E+10	1
4901784	119	C	10/07/2018	10:43	-132.535	43.012	0	172.40	0	8.3440	0	34.0170	8	26.453	0	170.961	0	183.9	4	64.1	4	-1E+10	1	-1E+10	1	-1E+10	1	-1E+10	1	-1E+10	1	-1E+10	1
4901784	119	C	10/07/2018	10:43	-132.535	43.012	0	174.80	0	8.3630	0	34.0650	8	26.488	0	173.339	0	182.0	4	63.5	4	-1E+10	1	-1E+10	1	-1E+10	1	-1E+10	1	-1E+10	1	-1E+10	1
4901784	119	C	10/07/2018	10:43	-132.535	43.012	0	177.20	0	8.3640	0	34.0760	8	26.497	0	175.718	0	180.6	4	63.0	4	-1E+10	1	-1E+10	1	-1E+10	1	-1E+10	1	-1E+10	1	-1E+10	1
4901784	119	C	10/07/2018	10:43	-132.535	43.012	0	179.80	0	8.3640	0	34.1000	8	26.515	0	178.296	0	179.4	4	62.6	4	-1E+10	1	-1E+10	1	-1E+10	1	-1E+10	1	-1E+10	1	-1E+10	1
4901784	119	C	10/07/2018	10:43	-132.535	43.012	0	182.30	0	8.3620	0	34.1110	8	26.524	0	180.774	0	178.7	4	62.4	4	-1E+10	1	-1E+10	1	-1E+10	1	-1E+10	1	-1E+10	1	-1E+10	1
4901784	119	C	10/07/2018	10:43	-132.535	43.012	0	184.80	0	8.3580	0	34.1160	8	26.529	0	183.251	0	178.1	4	62.2	4	-1E+10	1	-1E+10	1	-1E+10	1	-1E+10	1	-1E+10	1	-1E+10	1
4901784	119	C	10/07/2018	10:43	-132.535	43.012	0	187.30	0	8.3600	0	34.1280	8	26.538	0	185.729	0	177.6	4	62.0	4	-1E+10	1	-1E+10	1	-1E+10	1	-1E+10	1	-1E+10	1	-1E+10	1
4901784	119	C	10/07/2018	10:43	-132.535	43.012	0	189.90	0	8.3910	0	34.1510	8	26.551	0	188.306	0	176.5	4	61.7	4	-1E+10	1	-1E+10	1	-1E+10	1	-1E+10	1	-1E+10	1	-1E+10	1
4901784	119	C	10/07/2018	10:43	-132.535	43.012	0	192.50	0	8.3740	0	34.1650	8	26.565	0	190.883	0	174.9	4	61.1	4	-1E+10	1	-1E+10	1	-1E+10	1	-1E+10	1	-1E+10	1	-1E+10	1
4901784	119	C	10/07/2018	10:43	-132.535	43.012	0	195.20	0	8.3240	0	34.1710	8	26.577	0	193.559	0	173.7	4	60.6	4	-1E+10	1	-1E+10	1	-1E+10	1	-1E+10	1	-1E+10	1	-1E+10	1
4901784	119	C	10/07/2018	10:43	-132.535	43.012	0	198.40	0	8.3130	0	34.1730	8	26.581	0	196.731	0	172.3	4	60.1	4	-1E+10	1	-1E+10	1	-1E+10	1	-1E+10	1	-1E+10	1	-1E+10	1
4901784	119	C	10/07/2018	10:43	-132.535	43.012	0	200.20	0	8.2890	0	34.1730	8	26.584	0	198.515	0	171.2	4	59.7	4	-1E+10	1	-1E+10	1	-1E+10	1	-1E+10	1	-1E+10	1	-1E+10	1
4901784	119	C	10/07/2018	10:43	-132.535	43.012	0	202.50	0	8.2230	0	34.1840	8	26.603	0	200.795	0	169.7	4	59.1	4	-1E+10	1	-1E+10	1	-1E+10	1	-1E+10	1	-1E+10	1	-1E+10	1
4901784	119	C	10/07/2018	10:43	-132.535	43.012	0	204.80	0	8.1830	0	34.1850	8	26.610	0	203.074	0	168.6	4	58.7	4	-1E+10	1	-1E+10	1	-1E+10	1	-1E+10	1	-1E+10	1	-1E+10	1
4901784	119	C	10/07/2018	10:43	-132.535	43.012	0	207.10	0	8.1440	0	34.1840	8	26.615	0	205.354	0	166.9	4	58.0	4	-1E+10	1	-1E+10	1	-1E+10	1	-1E+10	1	-1E+10	1	-1E+10	1
4901784	119	C	10/07/2018	10:43	-132.535	43.012	0	210.30	0	8.0610	0	34.1800	8	26.624	0	208.525	0	165.2	4	57.3	4	-1E+10	1	-1E+10	1	-1E+10	1	-1E+10	1	-1E+10	1	-1E+10	1
4901784	119	C	10/07/2018	10:43	-132.535	43.012	0	212.60	0	8.0040	0	34.1800	8	26.633	0	210.804	0	164.5	4	57.0	4	-1E+10	1	-1E+10	1	-1E+10	1	-1E+10	1	-1E+10	1	-1E+10	1
4901784	119	C	10/07/2018	10:43	-132.535	43.012	0	215.00	0	7.9960	0	34.1820	8	26.635	0	213.183	0	163.7	4	56.7	4	-1E+10	1	-1E+10	1	-1E+10	1	-1E+10	1	-1E+10	1	-1E+10	1
4901784	119	C	10/07/2018	10:43	-132.535	43.012	0	217.40	0	7.9070	0	34.1830	8	26.649	0	215.561	0	162.8	4	56.3	4	-1E+10	1	-1E+10	1	-1E+10	1	-1E+10	1	-1E+10	1	-1E+10	1
4901784	119	C	10/07/2018	10:43	-132.535	43.012	0	219.80	0	7.8850	0	34.1860	8	26.655	0	217.940	0	162.0	4	56.0	4	-1E+10	1	-1E+10	1	-1E+10	1	-1E+10	1	-1E+10	1	-1E+10	1
4901784	119	C	10/07/2018	10:43	-132.535	43.012	0	222.30	0	7.8650	0	34.1840	8	26.656	0	220.417	0	160.8	4	55.6	4	-1E+10	1	-1E+10	1	-1E+10	1	-1E+10	1	-1E+10	1	-1E+10	1
4901784	119	C	10/07/2018	10:43	-132.535	43.012	0	224.80	0	7.8260	0	34.1820	8	26.661	0	222.895	0	159.5	4	55.0	4	-1E+10	1	-1E+10	1	-1E+10	1	-1E+10	1	-1E+10	1	-1E+10	1
4901784	119	C	10/07/2018	10:43	-132.535	43.012	0	227.20	0	7.7900	0	34.1800	8	26.664	0	225.273	0	158.5	4	54.7	4	-1E+10	1	-1E+10	1	-1E+10	1	-1E+10	1	-1E+10	1	-1E+10	1
4901784	119	C	10/07/2018	10:43	-132.535	43.012	0	229.70	0	7.7640	0	34.1790	8	26.667	0	227.751	0	157.2	4	54.2	4	-1E+10	1	-1E+10	1	-1E+10	1	-1E+10	1	-1E+10	1	-1E+10	1
4901784	119	C	10/07/2018	10:43	-132.535	43.012	0	232.20	0	7.7370	0	34.1780	8	26.671	0	230.228	0	155.7	4	53.6	4	-1E+10	1	-1E+10	1	-1E+10	1	-1E+10	1	-1E+10	1	-1E+10	1
4901784	119	C	10/07/2018	10:43	-132.535	43.012	0	234.70	0	7.6640	0	34.1770	8	26.680	0	232.705	0	154.5	4	53.1	4	-1E+10	1	-1E+10	1	-1E+10	1	-1E+10	1	-1E+10	1	-1E+10	1
4901784	119	C	10/07/2018	10:43	-132.535	43.012	0	237.30	0	7.6380	0	34.1760	8	26.683	0	235.282	0	153.8	4	52.8	4	-1E+10	1	-1E+10	1	-1E+10	1	-1E+10	1	-1E+10	1	-1E+10	1
4901784	119	C	10/07/2018	10:43	-132.535	43.012	0	239.90	0	7.6180	0	34.1760	8	26.686	0	237.858	0	152.5	4	52.4	4	-1E+10	1	-1E+10	1	-1E+10	1	-1E+10	1	-1E+10	1	-1E+10	1
4901784	119	C	10/07/2018	10:43	-132.535	43.012	0	242.40	0	7.5730	0	34.1760	8	26.693	0	240.335	0	151.2	4	51.9	4	-1E+10	1	-1E+10	1	-1E+10	1	-1E+10	1	-1E+10	1	-1E+10	1
4901784	119	C	10/07/2018	10:43	-132.535	43.012	0	245.00	0	7.5310	0	34.1750	8	26.698	0	242.912	0	149.9	4	51.4	4	-1E+10	1	-1E+10	1	-1E+10	1	-1E+10	1	-1E+10	1	-1E+10	1
4901784	119	C	10/07/2018	10:43	-132.535	43.012	0	247.60	0	7.4890	0	34.1730	8	26.702	0	245.488	0	148.5	4	50.9	4	-1E+10	1	-1E+10	1	-1E+10	1	-1E+10	1	-1E+10	1	-1E+10	1
4901784	119	C	10/07/2018	10:43	-132.535	43.012	0	250.20	0	7.4700	0	34.1700	8	26.703	0	248.064	0	146.7	4	50.2	4	-1E+10	1	-1E+10	1	-1E+10	1	-1E+10	1	-1E+10	1	-1E+10	1
4901784	119	C	10/07/2018	10:43	-132.535	43.012	0	252.90	0	7.3800	0	34.1700	8	26.716	0	250.740	0	144.6	4	49.4	4	-1E+10	1	-1E+10	1	-1E+10	1	-1E+10	1	-1E+10	1	-1E+10	1
4901784	119	C	10/07/2018	10:43	-132.535	43.012	0	254.70	0	7.3210	0	34.1740	8	26.727	0	252.523	0	143.5	4	49.0	4	-1E+10	1	-1E+10	1	-1E+10	1	-1E+10	1	-1E+10	1	-1E+10	1
4901784	119	C	10/07/2018	10:43	-132.535	43.012	0	257.40	0	7.2930	0	34.1680	8	26.726	0	255.198	0	142.4	4	48.6	4	-1E+10	1	-1E+10	1	-1E+10	1	-1E+10	1	-1E+10	1	-1E+10	1
4901784	119	C	10/07/2018	10:43	-132.535	43.012	0	260.00	0	7.2550	0	34.1670	8	26.731	0	257.774	0	141.2	4	48.1	4	-1E+10	1	-1E+10	1	-1E+10	1	-1E+10	1	-1E+10	1	-1E+10	1
4901784	119	C	10/07/2018	10:43	-132.535	43.012	0	262.60	0	7.2220	0	34.1670	8	26.735	0	260.351	0	139.9	4	47.6	4	-1E+10	1	-1E+10	1	-1E+10	1	-1E+10	1	-1E+10	1	-1E+10	1
4901784	119	C	10/07/2018	10:43	-132.535	43.012	0	265.30	0	7.1740	0	34.1670	8	26.742	0	263.026	0	138.9	4	47.2	4	-1E+10	1	-1E+10	1	-1E+10	1	-1E+10	1	-1E+10	1	-1E+10	1
4901784	119	C	10/07/2018	10:43	-132.535	43.012	0	267.10	0	7.1530	0	34.1660	8	26.744	0	264.809	0	138.2	4	47.0	4	-1E+10	1	-1E+10	1	-1E+10	1	-1E+10	1	-1E+10	1	-1E+10	1
4901784	119	C	10/07/2018	10:43	-132.535	43.012	0	269.80	0	7.1080	0	34.1660	8	26.751	0	267.484	0	137.4	4	46.6	4	-1E+10	1	-1E+10	1	-1E+10	1	-1E+10	1	-1E+10	1	-1E+10	1
4901784	119	C	10/07/2018	10:43	-132.535	43.012	0	272.50	0	7.1010	0	34.1650	8	26.751	0	270.159	0	136.6	4	46.4	4	-1E+10	1	-1E+10	1	-1E+10	1	-1E+10	1	-1E+10	1	-1E+10	1
4901784	119	C	10/07/2018	10:43	-132.535	43.012	0	275.20	0	7.0840	0	34.1640	8	26.752	0	272.834	0	135.3	4	45.9	4	-1E+10	1	-1E+10	1	-1E+10	1	-1E+10	1	-1E+10	1	-1E+10	1
4901784	119	C	10/07/2018	10:43	-132.535	43.012	0	278.00	0	7.0200	0	34.1620	8	26.760	0	275.608	0	134.0	4	45.4	4	-1E+10	1	-1E+10	1	-1E+10	1	-1E+10	1	-1E+10	1	-1E+10	1
4901784	119	C	10/07/2018	10:43	-132.535	43.012	0	279.80	0	6.9780	0	34.1640	8	26.767	0	277.392	0	133.3	4	45.1	4	-1E+10	1	-1E+10	1	-1E+10	1	-1E+10	1	-1E+10	1	-1E+10	1
4901784	119	C	10/07/2018	10:43	-132.535	43.012	0	282.50	0	6.9460	0	34.1620	8	26.770	0	280.067	0	132.4	4	44.8	4	-1E+10	1	-1E+10	1	-1E+10	1	-1E+10	1	-1E+10	1	-1E+10	1
4901784	119	C	10/07/2018	10:43	-132.535	43.012	0	285.30	0	6.9260	0	34.1600	8	26.771	0	282.841	0	131.3	4	44.4	4	-1E+10	1	-1E+10	1	-1E+10	1	-1E+10	1	-1E+10	1	-1E+10	1
4901784	119	C	10/07/2018	10:43	-132.535	43.012	0	287.10	0	6.8910	0	34.1600	8	26.776	0	284.624	0	130.4	4	44.1	4	-1E+10	1	-1E+10	1	-1E+10	1	-1E+10	1	-1E+10	1	-1E+10	1
4901784	119	C	10/07/2018	10:43	-132.535	43.012	0	289.90	0	6.8360	0	34.1600	8	26.783	0	287.398	0	129.3	4	43.6	4	-1E+10	1	-1E+10	1	-1E+10	1	-1E+10	1	-1E+10	1	-1E+10	1
4901784	119	C	10/07/2018	10:43	-132.535	43.012	0	292.60	0	6.8020	0	34.1590	8	26.787	0	290.073	0	128.3	4	43.3	4	-1E+10	1	-1E+10	1	-1E+10	1	-1E+10	1	-1E+10	1	-1E+10	1
4901784	119	C	10/07/2018	10:43	-132.535	43.012	0	294.50	0	6.7980	0	34.1560	8	26.785	0	291.955	0	127.4	4	43.0	4	-1E+10	1	-1E+10	1	-1E+10	1	-1E+10	1	-1E+10	1	-1E+10	1
4901784	119	C	10/07/2018	10:43	-132.535	43.012	0	297.30	0	6.7270	0	34.1570	8	26.796	0	294.729	0	126.1	4	42.4	4	-1E+10	1	-1E+10	1	-1E+10	1	-1E+10	1	-1E+10	1	-1E+10	1
4901784	119	C	10/07/2018	10:43	-132.535	43.012	0	300.10	0	6.6880	0	34.1550	8	26.799	0	297.502	0	124.8	4	42.0	4	-1E+10	1	-1E+10	1	-1E+10	1	-1E+10	1	-1E+10	1	-1E+10	1
4901784	119	C	10/07/2018	10:43	-132.535	43.012	0	301.90	0	6.6330	0	34.1550	8	26.807	0	299.286	0	124.2	4	41.7	4	-1E+10	1	-1E+10	1	-1E+10	1	-1E+10	1	-1E+10	1	-1E+10	1
4901784	119	C	10/07/2018	10:43	-132.535	43.012	0	304.70	0	6.5980	0	34.1550	8	26.811	0	302.059	0	123.1	4	41.3	4	-1E+10	1	-1E+10	1	-1E+10	1	-1E+10	1	-1E+10	1	-1E+10	1
4901784	119	C	10/07/2018	10:43	-132.535	43.012	0	307.50	0	6.5550	0	34.1550	8	26.817	0	304.833	0	122.0	4	40.9	4	-1E+10	1	-1E+10	1	-1E+10	1	-1E+10	1	-1E+10	1	-1E+10	1
4901784	119	C	10/07/2018	10:43	-132.535	43.012	0	310.30	0	6.5210	0	34.1550	8	26.822	0	307.607	0	121.1	4	40.6	4	-1E+10	1	-1E+10	1	-1E+10	1	-1E+10	1	-1E+10	1	-1E+10	1
4901784	119	C	10/07/2018	10:43	-132.535	43.012	0	313.00	0	6.5050	0	34.1530	8	26.822	0	310.281	0	120.1	4	40.2	4	-1E+10	1	-1E+10	1	-1E+10	1	-1E+10	1	-1E+10	1	-1E+10	1
4901784	119	C	10/07/2018	10:43	-132.535	43.012	0	314.90	0	6.4800	0	34.1540	8	26.826	0	312.163	0	119.1	4	39.9	4	-1E+10	1	-1E+10	1	-1E+10	1	-1E+10	1	-1E+10	1	-1E+10	1
4901784	119	C	10/07/2018	10:43	-132.535	43.012	0	317.70	0	6.4430	0	34.1530	8	26.830	0	314.937	0	117.6	4	39.3	4	-1E+10	1	-1E+10	1	-1E+10	1	-1E+10	1	-1E+10	1	-1E+10	1
4901784	119	C	10/07/2018	10:43	-132.535	43.012	0	320.40	0	6.4030	0	34.1500	8	26.833	0	317.611	0	115.9	4	38.7	4	-1E+10	1	-1E+10	1	-1E+10	1	-1E+10	1	-1E+10	1	-1E+10	1
4901784	119	C	10/07/2018	10:43	-132.535	43.012	0	322.20	0	6.3600	0	34.1480	8	26.837	0	319.394	0	114.5	4	38.2	4	-1E+10	1	-1E+10	1	-1E+10	1	-1E+10	1	-1E+10	1	-1E+10	1
4901784	119	C	10/07/2018	10:43	-132.535	43.012	0	325.00	0	6.2780	0	34.1490	8	26.849	0	322.168	0	112.6	4	37.5	4	-1E+10	1	-1E+10	1	-1E+10	1	-1E+10	1	-1E+10	1	-1E+10	1
4901784	119	C	10/07/2018	10:43	-132.535	43.012	0	327.70	0	6.2360	0	34.1480	8	26.853	0	324.842	0	110.6	4	36.8	4	-1E+10	1	-1E+10	1	-1E+10	1	-1E+10	1	-1E+10	1	-1E+10	1
4901784	119	C	10/07/2018	10:43	-132.535	43.012	0	329.60	0	6.1800	0	34.1470	8	26.860	0	326.724	0	109.0	4	36.2	4	-1E+10	1	-1E+10	1	-1E+10	1	-1E+10	1	-1E+10	1	-1E+10	1
4901784	119	C	10/07/2018	10:43	-132.535	43.012	0	332.30	0	6.1190	0	34.1470	8	26.867	0	329.398	0	106.9	4	35.5	4	-1E+10	1	-1E+10	1	-1E+10	1	-1E+10	1	-1E+10	1	-1E+10	1
4901784	119	C	10/07/2018	10:43	-132.535	43.012	0	335.10	0	6.0280	0	34.1460	8	26.878	0	332.171	0	105.0	4	34.8	4	-1E+10	1	-1E+10	1	-1E+10	1	-1E+10	1	-1E+10	1	-1E+10	1
4901784	119	C	10/07/2018	10:43	-132.535	43.012	0	337.80	0	5.9860	0	34.1460	8	26.883	0	334.846	0	103.6	4	34.3	4	-1E+10	1	-1E+10	1	-1E+10	1	-1E+10	1	-1E+10	1	-1E+10	1
4901784	119	C	10/07/2018	10:43	-132.535	43.012	0	340.60	0	5.9290	0	34.1470	8	26.891	0	337.619	0	102.3	4	33.8	4	-1E+10	1	-1E+10	1	-1E+10	1	-1E+10	1	-1E+10	1	-1E+10	1
4901784	119	C	10/07/2018	10:43	-132.535	43.012	0	342.40	0	5.9010	0	34.1510	8	26.898	0	339.402	0	101.6	4	33.5	4	-1E+10	1	-1E+10	1	-1E+10	1	-1E+10	1	-1E+10	1	-1E+10	1
4901784	119	C	10/07/2018	10:43	-132.535	43.012	0	345.30	0	5.8460	0	34.1470	8	26.902	0	342.274	0	100.6	4	33.2	4	-1E+10	1	-1E+10	1	-1E+10	1	-1E+10	1	-1E+10	1	-1E+10	1
4901784	119	C	10/07/2018	10:43	-132.535	43.012	0	348.10	0	5.7960	0	34.1490	8	26.909	0	345.047	0	99.6	4	32.8	4	-1E+10	1	-1E+10	1	-1E+10	1	-1E+10	1	-1E+10	1	-1E+10	1
4901784	119	C	10/07/2018	10:43	-132.535	43.012	0	349.90	0	5.7720	0	34.1490	8	26.912	0	346.830	0	99.0	4	32.6	4	-1E+10	1	-1E+10	1	-1E+10	1	-1E+10	1	-1E+10	1	-1E+10	1
4901784	119	C	10/07/2018	10:43	-132.535	43.012	0	352.70	0	5.7450	0	34.1480	8	26.915	0	349.603	0	98.4	4	32.4	4	-1E+10	1	-1E+10	1	-1E+10	1	-1E+10	1	-1E+10	1	-1E+10	1
4901784	119	C	10/07/2018	10:43	-132.535	43.012	0	355.40	0	5.7170	0	34.1470	8	26.918	0	352.277	0	97.9	4	32.2	4	-1E+10	1	-1E+10	1	-1E+10	1	-1E+10	1	-1E+10	1	-1E+10	1
4901784	119	C	10/07/2018	10:43	-132.535	43.012	0	357.30	0	5.7030	0	34.1460	8	26.919	0	354.158	0	97.1	4	31.9	4	-1E+10	1	-1E+10	1	-1E+10	1	-1E+10	1	-1E+10	1	-1E+10	1
4901784	119	C	10/07/2018	10:43	-132.535	43.012	0	360.00	0	5.6680	0	34.1470	8	26.924	0	356.832	0	95.9	4	31.5	4	-1E+10	1	-1E+10	1	-1E+10	1	-1E+10	1	-1E+10	1	-1E+10	1
4901784	119	C	10/07/2018	10:43	-132.535	43.012	0	362.60	0	5.6230	0	34.1450	8	26.928	0	359.407	0	94.5	4	31.0	4	-1E+10	1	-1E+10	1	-1E+10	1	-1E+10	1	-1E+10	1	-1E+10	1
4901784	119	C	10/07/2018	10:43	-132.535	43.012	0	364.50	0	5.5530	0	34.1490	8	26.939	0	361.289	0	93.5	4	30.6	4	-1E+10	1	-1E+10	1	-1E+10	1	-1E+10	1	-1E+10	1	-1E+10	1
4901784	119	C	10/07/2018	10:43	-132.535	43.012	0	367.20	0	5.5260	0	34.1490	8	26.942	0	363.963	0	92.8	4	30.4	4	-1E+10	1	-1E+10	1	-1E+10	1	-1E+10	1	-1E+10	1	-1E+10	1
4901784	119	C	10/07/2018	10:43	-132.535	43.012	0	370.00	0	5.4960	0	34.1500	8	26.947	0	366.736	0	92.0	4	30.1	4	-1E+10	1	-1E+10	1	-1E+10	1	-1E+10	1	-1E+10	1	-1E+10	1
4901784	119	C	10/07/2018	10:43	-132.535	43.012	0	372.70	0	5.4830	0	34.1510	8	26.949	0	369.409	0	90.9	4	29.7	4	-1E+10	1	-1E+10	1	-1E+10	1	-1E+10	1	-1E+10	1	-1E+10	1
4901784	119	C	10/07/2018	10:43	-132.535	43.012	0	375.40	0	5.4700	0	34.1500	8	26.950	0	372.083	0	89.5	4	29.3	4	-1E+10	1	-1E+10	1	-1E+10	1	-1E+10	1	-1E+10	1	-1E+10	1
4901784	119	C	10/07/2018	10:43	-132.535	43.012	0	377.30	0	5.4570	0	34.1500	8	26.952	0	373.965	0	88.3	4	28.9	4	-1E+10	1	-1E+10	1	-1E+10	1	-1E+10	1	-1E+10	1	-1E+10	1
4901784	119	C	10/07/2018	10:43	-132.535	43.012	0	380.00	0	5.4150	0	34.1530	8	26.959	0	376.638	0	87.0	4	28.4	4	-1E+10	1	-1E+10	1	-1E+10	1	-1E+10	1	-1E+10	1	-1E+10	1
4901784	119	C	10/07/2018	10:43	-132.535	43.012	0	382.60	0	5.3760	0	34.1530	8	26.964	0	379.213	0	86.0	4	28.0	4	-1E+10	1	-1E+10	1	-1E+10	1	-1E+10	1	-1E+10	1	-1E+10	1
4901784	119	C	10/07/2018	10:43	-132.535	43.012	0	385.30	0	5.3380	0	34.1550	8	26.970	0	381.887	0	85.4	4	27.8	4	-1E+10	1	-1E+10	1	-1E+10	1	-1E+10	1	-1E+10	1	-1E+10	1
4901784	119	C	10/07/2018	10:43	-132.535	43.012	0	388.00	0	5.2950	0	34.1570	8	26.976	0	384.560	0	84.8	4	27.6	4	-1E+10	1	-1E+10	1	-1E+10	1	-1E+10	1	-1E+10	1	-1E+10	1
4901784	119	C	10/07/2018	10:43	-132.535	43.012	0	389.80	0	5.2700	0	34.1580	8	26.980	0	386.342	0	84.3	4	27.4	4	-1E+10	1	-1E+10	1	-1E+10	1	-1E+10	1	-1E+10	1	-1E+10	1
4901784	119	C	10/07/2018	10:43	-132.535	43.012	0	392.50	0	5.2500	0	34.1590	8	26.983	0	389.016	0	83.4	4	27.1	4	-1E+10	1	-1E+10	1	-1E+10	1	-1E+10	1	-1E+10	1	-1E+10	1
4901784	119	C	10/07/2018	10:43	-132.535	43.012	0	395.20	0	5.2340	0	34.1600	8	26.986	0	391.689	0	82.5	4	26.8	4	-1E+10	1	-1E+10	1	-1E+10	1	-1E+10	1	-1E+10	1	-1E+10	1
4901784	119	C	10/07/2018	10:43	-132.535	43.012	0	397.00	0	5.2160	0	34.1620	8	26.990	0	393.472	0	81.8	4	26.6	4	-1E+10	1	-1E+10	1	-1E+10	1	-1E+10	1	-1E+10	1	-1E+10	1
4901784	119	C	10/07/2018	10:43	-132.535	43.012	0	399.70	0	5.2010	0	34.1620	8	26.991	0	396.145	0	80.9	4	26.3	4	-1E+10	1	-1E+10	1	-1E+10	1	-1E+10	1	-1E+10	1	-1E+10	1
4901784	119	C	10/07/2018	10:43	-132.535	43.012	0	402.40	0	5.1810	0	34.1630	8	26.995	0	398.819	0	79.9	4	25.9	4	-1E+10	1	-1E+10	1	-1E+10	1	-1E+10	1	-1E+10	1	-1E+10	1
4901784	119	C	10/07/2018	10:43	-132.535	43.012	0	405.10	0	5.1590	0	34.1640	8	26.998	0	401.492	0	78.6	4	25.5	4	-1E+10	1	-1E+10	1	-1E+10	1	-1E+10	1	-1E+10	1	-1E+10	1
4901784	119	C	10/07/2018	10:43	-132.535	43.012	0	407.80	0	5.1340	0	34.1650	8	27.002	0	404.165	0	77.2	4	25.0	4	-1E+10	1	-1E+10	1	-1E+10	1	-1E+10	1	-1E+10	1	-1E+10	1
4901784	119	C	10/07/2018	10:43	-132.535	43.012	0	409.60	0	5.1250	0	34.1640	8	27.002	0	405.947	0	75.9	4	24.6	4	-1E+10	1	-1E+10	1	-1E+10	1	-1E+10	1	-1E+10	1	-1E+10	1
4901784	119	C	10/07/2018	10:43	-132.535	43.012	0	412.30	0	5.0830	0	34.1690	8	27.011	0	408.621	0	73.9	4	24.0	4	-1E+10	1	-1E+10	1	-1E+10	1	-1E+10	1	-1E+10	1	-1E+10	1
4901784	119	C	10/07/2018	10:43	-132.535	43.012	0	415.00	0	5.0530	0	34.1740	8	27.018	0	411.294	0	72.5	4	23.5	4	-1E+10	1	-1E+10	1	-1E+10	1	-1E+10	1	-1E+10	1	-1E+10	1
4901784	119	C	10/07/2018	10:43	-132.535	43.012	0	417.80	0	5.0240	0	34.1750	8	27.022	0	414.066	0	71.2	4	23.0	4	-1E+10	1	-1E+10	1	-1E+10	1	-1E+10	1	-1E+10	1	-1E+10	1
4901784	119	C	10/07/2018	10:43	-132.535	43.012	0	420.50	0	4.9960	0	34.1780	8	27.028	0	416.739	0	70.1	4	22.7	4	-1E+10	1	-1E+10	1	-1E+10	1	-1E+10	1	-1E+10	1	-1E+10	1
4901784	119	C	10/07/2018	10:43	-132.535	43.012	0	422.40	0	4.9850	0	34.1780	8	27.029	0	418.620	0	69.5	4	22.5	4	-1E+10	1	-1E+10	1	-1E+10	1	-1E+10	1	-1E+10	1	-1E+10	1
4901784	119	C	10/07/2018	10:43	-132.535	43.012	0	425.20	0	4.9590	0	34.1820	8	27.035	0	421.393	0	68.6	4	22.2	4	-1E+10	1	-1E+10	1	-1E+10	1	-1E+10	1	-1E+10	1	-1E+10	1
4901784	119	C	10/07/2018	10:43	-132.535	43.012	0	427.90	0	4.9400	0	34.1840	8	27.039	0	424.066	0	68.0	4	22.0	4	-1E+10	1	-1E+10	1	-1E+10	1	-1E+10	1	-1E+10	1	-1E+10	1
4901784	119	C	10/07/2018	10:43	-132.535	43.012	0	429.80	0	4.9170	0	34.1850	8	27.043	0	425.947	0	67.6	4	21.8	4	-1E+10	1	-1E+10	1	-1E+10	1	-1E+10	1	-1E+10	1	-1E+10	1
4901784	119	C	10/07/2018	10:43	-132.535	43.012	0	431.70	0	4.9070	0	34.1870	8	27.045	0	427.828	0	67.2	4	21.7	4	-1E+10	1	-1E+10	1	-1E+10	1	-1E+10	1	-1E+10	1	-1E+10	1
4901784	119	C	10/07/2018	10:43	-132.535	43.012	0	434.80	0	4.8970	0	34.1870	8	27.046	0	430.897	0	66.3	4	21.4	4	-1E+10	1	-1E+10	1	-1E+10	1	-1E+10	1	-1E+10	1	-1E+10	1
4901784	119	C	10/07/2018	10:43	-132.535	43.012	0	437.70	0	4.8800	0	34.1880	8	27.049	0	433.768	0	65.1	4	21.0	4	-1E+10	1	-1E+10	1	-1E+10	1	-1E+10	1	-1E+10	1	-1E+10	1
4901784	119	C	10/07/2018	10:43	-132.535	43.012	0	440.10	0	4.8570	0	34.1920	8	27.055	0	436.143	0	64.1	4	20.7	4	-1E+10	1	-1E+10	1	-1E+10	1	-1E+10	1	-1E+10	1	-1E+10	1
4901784	119	C	10/07/2018	10:43	-132.535	43.012	0	442.40	0	4.8380	0	34.1950	8	27.059	0	438.420	0	63.5	4	20.5	4	-1E+10	1	-1E+10	1	-1E+10	1	-1E+10	1	-1E+10	1	-1E+10	1
4901784	119	C	10/07/2018	10:43	-132.535	43.012	0	444.80	0	4.8300	0	34.1960	8	27.061	0	440.796	0	62.6	4	20.2	4	-1E+10	1	-1E+10	1	-1E+10	1	-1E+10	1	-1E+10	1	-1E+10	1
4901784	119	C	10/07/2018	10:43	-132.535	43.012	0	447.90	0	4.8130	0	34.1990	8	27.065	0	443.865	0	61.7	4	19.9	4	-1E+10	1	-1E+10	1	-1E+10	1	-1E+10	1	-1E+10	1	-1E+10	1
4901784	119	C	10/07/2018	10:43	-132.535	43.012	0	450.20	0	4.7980	0	34.2010	8	27.069	0	446.142	0	61.3	4	19.7	4	-1E+10	1	-1E+10	1	-1E+10	1	-1E+10	1	-1E+10	1	-1E+10	1
4901784	119	C	10/07/2018	10:43	-132.535	43.012	0	452.60	0	4.7750	0	34.2060	8	27.075	0	448.518	0	60.7	4	19.5	4	-1E+10	1	-1E+10	1	-1E+10	1	-1E+10	1	-1E+10	1	-1E+10	1
4901784	119	C	10/07/2018	10:43	-132.535	43.012	0	455.00	0	4.7700	0	34.2060	8	27.076	0	450.893	0	60.0	4	19.3	4	-1E+10	1	-1E+10	1	-1E+10	1	-1E+10	1	-1E+10	1	-1E+10	1
4901784	119	C	10/07/2018	10:43	-132.535	43.012	0	457.40	0	4.7510	0	34.2090	8	27.080	0	453.269	0	59.5	4	19.1	4	-1E+10	1	-1E+10	1	-1E+10	1	-1E+10	1	-1E+10	1	-1E+10	1
4901784	119	C	10/07/2018	10:43	-132.535	43.012	0	459.80	0	4.7310	0	34.2120	8	27.085	0	455.645	0	59.1	4	19.0	4	-1E+10	1	-1E+10	1	-1E+10	1	-1E+10	1	-1E+10	1	-1E+10	1
4901784	119	C	10/07/2018	10:43	-132.535	43.012	0	462.20	0	4.7130	0	34.2160	8	27.090	0	458.020	0	58.3	4	18.7	4	-1E+10	1	-1E+10	1	-1E+10	1	-1E+10	1	-1E+10	1	-1E+10	1
4901784	119	C	10/07/2018	10:43	-132.535	43.012	0	464.60	0	4.6950	0	34.2190	8	27.095	0	460.396	0	57.8	4	18.6	4	-1E+10	1	-1E+10	1	-1E+10	1	-1E+10	1	-1E+10	1	-1E+10	1
4901784	119	C	10/07/2018	10:43	-132.535	43.012	0	467.10	0	4.6890	0	34.2210	8	27.097	0	462.871	0	57.1	4	18.3	4	-1E+10	1	-1E+10	1	-1E+10	1	-1E+10	1	-1E+10	1	-1E+10	1
4901784	119	C	10/07/2018	10:43	-132.535	43.012	0	469.60	0	4.6840	0	34.2220	8	27.098	0	465.345	0	56.4	4	18.1	4	-1E+10	1	-1E+10	1	-1E+10	1	-1E+10	1	-1E+10	1	-1E+10	1
4901784	119	C	10/07/2018	10:43	-132.535	43.012	0	472.10	0	4.6770	0	34.2230	8	27.100	0	467.820	0	55.6	4	17.9	4	-1E+10	1	-1E+10	1	-1E+10	1	-1E+10	1	-1E+10	1	-1E+10	1
4901784	119	C	10/07/2018	10:43	-132.535	43.012	0	474.60	0	4.6640	0	34.2270	8	27.104	0	470.294	0	54.8	4	17.6	4	-1E+10	1	-1E+10	1	-1E+10	1	-1E+10	1	-1E+10	1	-1E+10	1
4901784	119	C	10/07/2018	10:43	-132.535	43.012	0	477.10	0	4.6520	0	34.2300	8	27.108	0	472.769	0	53.8	4	17.3	4	-1E+10	1	-1E+10	1	-1E+10	1	-1E+10	1	-1E+10	1	-1E+10	1
4901784	119	C	10/07/2018	10:43	-132.535	43.012	0	479.70	0	4.6360	0	34.2340	8	27.113	0	475.342	0	53.1	4	17.0	4	-1E+10	1	-1E+10	1	-1E+10	1	-1E+10	1	-1E+10	1	-1E+10	1
4901784	119	C	10/07/2018	10:43	-132.535	43.012	0	482.30	0	4.6270	0	34.2360	8	27.116	0	477.916	0	52.4	4	16.8	4	-1E+10	1	-1E+10	1	-1E+10	1	-1E+10	1	-1E+10	1	-1E+10	1
4901784	119	C	10/07/2018	10:43	-132.535	43.012	0	485.00	0	4.6200	0	34.2380	8	27.118	0	480.588	0	51.8	4	16.6	4	-1E+10	1	-1E+10	1	-1E+10	1	-1E+10	1	-1E+10	1	-1E+10	1
4901784	119	C	10/07/2018	10:43	-132.535	43.012	0	487.60	0	4.6170	0	34.2400	8	27.120	0	483.161	0	51.2	4	16.4	4	-1E+10	1	-1E+10	1	-1E+10	1	-1E+10	1	-1E+10	1	-1E+10	1
4901784	119	C	10/07/2018	10:43	-132.535	43.012	0	490.30	0	4.6130	0	34.2410	8	27.121	0	485.833	0	50.5	4	16.2	4	-1E+10	1	-1E+10	1	-1E+10	1	-1E+10	1	-1E+10	1	-1E+10	1
4901784	119	C	10/07/2018	10:43	-132.535	43.012	0	492.10	0	4.6110	0	34.2410	8	27.122	0	487.615	0	50.0	4	16.0	4	-1E+10	1	-1E+10	1	-1E+10	1	-1E+10	1	-1E+10	1	-1E+10	1
4901784	119	C	10/07/2018	10:43	-132.535	43.012	0	494.80	0	4.6060	0	34.2440	8	27.124	0	490.287	0	49.2	4	15.8	4	-1E+10	1	-1E+10	1	-1E+10	1	-1E+10	1	-1E+10	1	-1E+10	1
4901784	119	C	10/07/2018	10:43	-132.535	43.012	0	497.50	0	4.6040	0	34.2440	8	27.125	0	492.959	0	48.3	4	15.5	4	-1E+10	1	-1E+10	1	-1E+10	1	-1E+10	1	-1E+10	1	-1E+10	1
4901784	119	C	10/07/2018	10:43	-132.535	43.012	0	500.30	0	4.5990	0	34.2460	8	27.127	0	495.730	0	47.3	4	15.1	4	-1E+10	1	-1E+10	1	-1E+10	1	-1E+10	1	-1E+10	1	-1E+10	1
4901784	119	C	10/07/2018	10:43	-132.535	43.012	0	504.90	0	4.5790	0	34.2540	8	27.135	0	500.283	0	45.5	4	14.6	4	-1E+10	1	-1E+10	1	-1E+10	1	-1E+10	1	-1E+10	1	-1E+10	1
4901784	119	C	10/07/2018	10:43	-132.535	43.012	0	510.50	0	4.5600	0	34.2590	8	27.142	0	505.825	0	44.0	4	14.1	4	-1E+10	1	-1E+10	1	-1E+10	1	-1E+10	1	-1E+10	1	-1E+10	1
4901784	119	C	10/07/2018	10:43	-132.535	43.012	0	515.90	0	4.5420	0	34.2640	8	27.147	0	511.169	0	42.6	4	13.6	4	-1E+10	1	-1E+10	1	-1E+10	1	-1E+10	1	-1E+10	1	-1E+10	1
4901784	119	C	10/07/2018	10:43	-132.535	43.012	0	520.30	0	4.5240	0	34.2680	8	27.153	0	515.523	0	41.7	4	13.4	4	-1E+10	1	-1E+10	1	-1E+10	1	-1E+10	1	-1E+10	1	-1E+10	1
4901784	119	C	10/07/2018	10:43	-132.535	43.012	0	525.20	0	4.5090	0	34.2720	8	27.157	0	520.372	0	40.9	4	13.1	4	-1E+10	1	-1E+10	1	-1E+10	1	-1E+10	1	-1E+10	1	-1E+10	1
4901784	119	C	10/07/2018	10:43	-132.535	43.012	0	530.10	0	4.5000	0	34.2750	8	27.161	0	525.221	0	39.8	4	12.7	4	-1E+10	1	-1E+10	1	-1E+10	1	-1E+10	1	-1E+10	1	-1E+10	1
4901784	119	C	10/07/2018	10:43	-132.535	43.012	0	535.10	0	4.4890	0	34.2780	8	27.165	0	530.168	0	38.7	4	12.4	4	-1E+10	1	-1E+10	1	-1E+10	1	-1E+10	1	-1E+10	1	-1E+10	1
4901784	119	C	10/07/2018	10:43	-132.535	43.012	0	540.20	0	4.4780	0	34.2820	8	27.169	0	535.215	0	37.2	4	11.9	4	-1E+10	1	-1E+10	1	-1E+10	1	-1E+10	1	-1E+10	1	-1E+10	1
4901784	119	C	10/07/2018	10:43	-132.535	43.012	0	545.20	0	4.4640	0	34.2900	8	27.177	0	540.162	0	35.7	4	11.4	4	-1E+10	1	-1E+10	1	-1E+10	1	-1E+10	1	-1E+10	1	-1E+10	1
4901784	119	C	10/07/2018	10:43	-132.535	43.012	0	550.40	0	4.4570	0	34.2940	8	27.181	0	545.307	0	34.6	4	11.0	4	-1E+10	1	-1E+10	1	-1E+10	1	-1E+10	1	-1E+10	1	-1E+10	1
4901784	119	C	10/07/2018	10:43	-132.535	43.012	0	555.60	0	4.4520	0	34.3000	8	27.186	0	550.452	0	33.2	4	10.6	4	-1E+10	1	-1E+10	1	-1E+10	1	-1E+10	1	-1E+10	1	-1E+10	1
4901784	119	C	10/07/2018	10:43	-132.535	43.012	0	559.90	0	4.4470	0	34.3040	8	27.190	0	554.707	0	32.6	4	10.4	4	-1E+10	1	-1E+10	1	-1E+10	1	-1E+10	1	-1E+10	1	-1E+10	1
4901784	119	C	10/07/2018	10:43	-132.535	43.012	0	564.30	0	4.4360	0	34.3040	8	27.191	0	559.060	0	32.1	4	10.3	4	-1E+10	1	-1E+10	1	-1E+10	1	-1E+10	1	-1E+10	1	-1E+10	1
4901784	119	C	10/07/2018	10:43	-132.535	43.012	0	569.60	0	4.4230	0	34.3110	8	27.198	0	564.303	0	30.9	4	9.9	4	-1E+10	1	-1E+10	1	-1E+10	1	-1E+10	1	-1E+10	1	-1E+10	1
4901784	119	C	10/07/2018	10:43	-132.535	43.012	0	574.90	0	4.4190	0	34.3170	8	27.203	0	569.547	0	29.7	4	9.5	4	-1E+10	1	-1E+10	1	-1E+10	1	-1E+10	1	-1E+10	1	-1E+10	1
4901784	119	C	10/07/2018	10:43	-132.535	43.012	0	580.40	0	4.4090	0	34.3240	8	27.210	0	574.988	0	28.7	4	9.1	4	-1E+10	1	-1E+10	1	-1E+10	1	-1E+10	1	-1E+10	1	-1E+10	1
4901784	119	C	10/07/2018	10:43	-132.535	43.012	0	585.10	0	4.4000	0	34.3270	8	27.213	0	579.638	0	27.9	4	8.9	4	-1E+10	1	-1E+10	1	-1E+10	1	-1E+10	1	-1E+10	1	-1E+10	1
4901784	119	C	10/07/2018	10:43	-132.535	43.012	0	589.70	0	4.3930	0	34.3300	8	27.217	0	584.188	0	27.1	4	8.7	4	-1E+10	1	-1E+10	1	-1E+10	1	-1E+10	1	-1E+10	1	-1E+10	1
4901784	119	C	10/07/2018	10:43	-132.535	43.012	0	595.40	0	4.3710	0	34.3350	8	27.223	0	589.827	0	26.1	4	8.3	4	-1E+10	1	-1E+10	1	-1E+10	1	-1E+10	1	-1E+10	1	-1E+10	1
4901784	119	C	10/07/2018	10:43	-132.535	43.012	0	600.10	0	4.3610	0	34.3380	8	27.226	0	594.476	0	25.3	4	8.1	4	-1E+10	1	-1E+10	1	-1E+10	1	-1E+10	1	-1E+10	1	-1E+10	1
4901784	119	C	10/07/2018	10:43	-132.535	43.012	0	604.90	0	4.3470	0	34.3450	8	27.234	0	599.224	0	24.5	4	7.8	4	-1E+10	1	-1E+10	1	-1E+10	1	-1E+10	1	-1E+10	1	-1E+10	1
4901784	119	C	10/07/2018	10:43	-132.535	43.012	0	609.70	0	4.3390	0	34.3490	8	27.238	0	603.972	0	23.9	4	7.6	4	-1E+10	1	-1E+10	1	-1E+10	1	-1E+10	1	-1E+10	1	-1E+10	1
4901784	119	C	10/07/2018	10:43	-132.535	43.012	0	614.60	0	4.3320	0	34.3520	8	27.241	0	608.819	0	23.4	4	7.5	4	-1E+10	1	-1E+10	1	-1E+10	1	-1E+10	1	-1E+10	1	-1E+10	1
4901784	119	C	10/07/2018	10:43	-132.535	43.012	0	620.40	0	4.3230	0	34.3550	8	27.244	0	614.556	0	22.9	4	7.3	4	-1E+10	1	-1E+10	1	-1E+10	1	-1E+10	1	-1E+10	1	-1E+10	1
4901784	119	C	10/07/2018	10:43	-132.535	43.012	0	625.20	0	4.3230	0	34.3580	8	27.247	0	619.304	0	22.4	4	7.1	4	-1E+10	1	-1E+10	1	-1E+10	1	-1E+10	1	-1E+10	1	-1E+10	1
4901784	119	C	10/07/2018	10:43	-132.535	43.012	0	630.00	0	4.3110	0	34.3600	8	27.250	0	624.051	0	21.8	4	6.9	4	-1E+10	1	-1E+10	1	-1E+10	1	-1E+10	1	-1E+10	1	-1E+10	1
4901784	119	C	10/07/2018	10:43	-132.535	43.012	0	634.90	0	4.2890	0	34.3680	8	27.258	0	628.898	0	21.1	4	6.7	4	-1E+10	1	-1E+10	1	-1E+10	1	-1E+10	1	-1E+10	1	-1E+10	1
4901784	119	C	10/07/2018	10:43	-132.535	43.012	0	639.80	0	4.2680	0	34.3710	8	27.263	0	633.744	0	20.6	4	6.6	4	-1E+10	1	-1E+10	1	-1E+10	1	-1E+10	1	-1E+10	1	-1E+10	1
4901784	119	C	10/07/2018	10:43	-132.535	43.012	0	644.60	0	4.2410	0	34.3780	8	27.271	0	638.491	0	20.2	4	6.4	4	-1E+10	1	-1E+10	1	-1E+10	1	-1E+10	1	-1E+10	1	-1E+10	1
4901784	119	C	10/07/2018	10:43	-132.535	43.012	0	649.50	0	4.2370	0	34.3790	8	27.273	0	643.337	0	19.8	4	6.3	4	-1E+10	1	-1E+10	1	-1E+10	1	-1E+10	1	-1E+10	1	-1E+10	1
4901784	119	C	10/07/2018	10:43	-132.535	43.012	0	655.30	0	4.2240	0	34.3850	8	27.279	0	649.073	0	19.2	4	6.1	4	-1E+10	1	-1E+10	1	-1E+10	1	-1E+10	1	-1E+10	1	-1E+10	1
4901784	119	C	10/07/2018	10:43	-132.535	43.012	0	660.20	0	4.2160	0	34.3890	8	27.283	0	653.919	0	18.8	4	6.0	4	-1E+10	1	-1E+10	1	-1E+10	1	-1E+10	1	-1E+10	1	-1E+10	1
4901784	119	C	10/07/2018	10:43	-132.535	43.012	0	665.10	0	4.2060	0	34.3920	8	27.286	0	658.764	0	18.4	4	5.9	4	-1E+10	1	-1E+10	1	-1E+10	1	-1E+10	1	-1E+10	1	-1E+10	1
4901784	119	C	10/07/2018	10:43	-132.535	43.012	0	669.90	0	4.1930	0	34.3970	8	27.292	0	663.511	0	18.0	4	5.7	4	-1E+10	1	-1E+10	1	-1E+10	1	-1E+10	1	-1E+10	1	-1E+10	1
4901784	119	C	10/07/2018	10:43	-132.535	43.012	0	674.70	0	4.1800	0	34.4020	8	27.297	0	668.258	0	17.6	4	5.6	4	-1E+10	1	-1E+10	1	-1E+10	1	-1E+10	1	-1E+10	1	-1E+10	1
4901784	119	C	10/07/2018	10:43	-132.535	43.012	0	680.50	0	4.1720	0	34.4050	8	27.300	0	673.993	0	17.3	4	5.5	4	-1E+10	1	-1E+10	1	-1E+10	1	-1E+10	1	-1E+10	1	-1E+10	1
4901784	119	C	10/07/2018	10:43	-132.535	43.012	0	685.30	0	4.1650	0	34.4070	8	27.303	0	678.739	0	17.0	4	5.4	4	-1E+10	1	-1E+10	1	-1E+10	1	-1E+10	1	-1E+10	1	-1E+10	1
4901784	119	C	10/07/2018	10:43	-132.535	43.012	0	690.10	0	4.1570	0	34.4110	8	27.307	0	683.485	0	16.7	4	5.3	4	-1E+10	1	-1E+10	1	-1E+10	1	-1E+10	1	-1E+10	1	-1E+10	1
4901784	119	C	10/07/2018	10:43	-132.535	43.012	0	694.90	0	4.1460	0	34.4140	8	27.310	0	688.231	0	16.4	4	5.2	4	-1E+10	1	-1E+10	1	-1E+10	1	-1E+10	1	-1E+10	1	-1E+10	1
4901784	119	C	10/07/2018	10:43	-132.535	43.012	0	699.60	0	4.1370	0	34.4180	8	27.314	0	692.878	0	16.0	4	5.1	4	-1E+10	1	-1E+10	1	-1E+10	1	-1E+10	1	-1E+10	1	-1E+10	1
4901784	119	C	10/07/2018	10:43	-132.535	43.012	0	705.30	0	4.1210	0	34.4240	8	27.321	0	698.514	0	15.6	4	4.9	4	-1E+10	1	-1E+10	1	-1E+10	1	-1E+10	1	-1E+10	1	-1E+10	1
4901784	119	C	10/07/2018	10:43	-132.535	43.012	0	710.10	0	4.1100	0	34.4280	8	27.325	0	703.260	0	15.4	4	4.9	4	-1E+10	1	-1E+10	1	-1E+10	1	-1E+10	1	-1E+10	1	-1E+10	1
4901784	119	C	10/07/2018	10:43	-132.535	43.012	0	714.90	0	4.0990	0	34.4310	8	27.329	0	708.006	0	15.2	4	4.8	4	-1E+10	1	-1E+10	1	-1E+10	1	-1E+10	1	-1E+10	1	-1E+10	1
4901784	119	C	10/07/2018	10:43	-132.535	43.012	0	720.60	0	4.0850	0	34.4340	8	27.333	0	713.641	0	15.0	4	4.8	4	-1E+10	1	-1E+10	1	-1E+10	1	-1E+10	1	-1E+10	1	-1E+10	1
4901784	119	C	10/07/2018	10:43	-132.535	43.012	0	725.30	0	4.0780	0	34.4350	8	27.334	0	718.287	0	14.9	4	4.7	4	-1E+10	1	-1E+10	1	-1E+10	1	-1E+10	1	-1E+10	1	-1E+10	1
4901784	119	C	10/07/2018	10:43	-132.535	43.012	0	730.00	0	4.0700	0	34.4380	8	27.338	0	722.934	0	14.7	4	4.6	4	-1E+10	1	-1E+10	1	-1E+10	1	-1E+10	1	-1E+10	1	-1E+10	1
4901784	119	C	10/07/2018	10:43	-132.535	43.012	0	734.80	0	4.0630	0	34.4400	8	27.340	0	727.679	0	14.4	4	4.6	4	-1E+10	1	-1E+10	1	-1E+10	1	-1E+10	1	-1E+10	1	-1E+10	1
4901784	119	C	10/07/2018	10:43	-132.535	43.012	0	739.50	0	4.0450	0	34.4450	8	27.346	0	732.325	0	14.2	4	4.5	4	-1E+10	1	-1E+10	1	-1E+10	1	-1E+10	1	-1E+10	1	-1E+10	1
4901784	119	C	10/07/2018	10:43	-132.535	43.012	0	745.20	0	4.0240	0	34.4500	8	27.352	0	737.960	0	13.9	4	4.4	4	-1E+10	1	-1E+10	1	-1E+10	1	-1E+10	1	-1E+10	1	-1E+10	1
4901784	119	C	10/07/2018	10:43	-132.535	43.012	0	749.90	0	4.0140	0	34.4540	8	27.356	0	742.606	0	13.7	4	4.3	4	-1E+10	1	-1E+10	1	-1E+10	1	-1E+10	1	-1E+10	1	-1E+10	1
4901784	119	C	10/07/2018	10:43	-132.535	43.012	0	754.70	0	4.0050	0	34.4560	8	27.359	0	747.350	0	13.5	4	4.3	4	-1E+10	1	-1E+10	1	-1E+10	1	-1E+10	1	-1E+10	1	-1E+10	1
4901784	119	C	10/07/2018	10:43	-132.535	43.012	0	759.40	0	3.9810	0	34.4620	8	27.366	0	751.996	0	13.3	4	4.2	4	-1E+10	1	-1E+10	1	-1E+10	1	-1E+10	1	-1E+10	1	-1E+10	1
4901784	119	C	10/07/2018	10:43	-132.535	43.012	0	764.20	0	3.9750	0	34.4650	8	27.369	0	756.741	0	13.2	4	4.2	4	-1E+10	1	-1E+10	1	-1E+10	1	-1E+10	1	-1E+10	1	-1E+10	1
4901784	119	C	10/07/2018	10:43	-132.535	43.012	0	769.50	0	3.9700	0	34.4660	8	27.370	0	761.979	0	13.1	4	4.1	4	-1E+10	1	-1E+10	1	-1E+10	1	-1E+10	1	-1E+10	1	-1E+10	1
4901784	119	C	10/07/2018	10:43	-132.535	43.012	0	774.40	0	3.9550	0	34.4690	8	27.374	0	766.822	0	12.8	4	4.1	4	-1E+10	1	-1E+10	1	-1E+10	1	-1E+10	1	-1E+10	1	-1E+10	1
4901784	119	C	10/07/2018	10:43	-132.535	43.012	0	779.40	0	3.9290	0	34.4770	8	27.383	0	771.764	0	12.6	4	4.0	4	-1E+10	1	-1E+10	1	-1E+10	1	-1E+10	1	-1E+10	1	-1E+10	1
4901784	119	C	10/07/2018	10:43	-132.535	43.012	0	785.00	0	3.9080	0	34.4810	8	27.389	0	777.299	0	12.4	4	3.9	4	-1E+10	1	-1E+10	1	-1E+10	1	-1E+10	1	-1E+10	1	-1E+10	1
4901784	119	C	10/07/2018	10:43	-132.535	43.012	0	790.70	0	3.8910	0	34.4870	8	27.395	0	782.932	0	12.2	4	3.9	4	-1E+10	1	-1E+10	1	-1E+10	1	-1E+10	1	-1E+10	1	-1E+10	1
4901784	119	C	10/07/2018	10:43	-132.535	43.012	0	795.60	0	3.8820	0	34.4900	8	27.399	0	787.775	0	12.1	4	3.8	4	-1E+10	1	-1E+10	1	-1E+10	1	-1E+10	1	-1E+10	1	-1E+10	1
4901784	119	C	10/07/2018	10:43	-132.535	43.012	0	800.50	0	3.8740	0	34.4950	8	27.403	0	792.617	0	12.0	4	3.8	4	-1E+10	1	-1E+10	1	-1E+10	1	-1E+10	1	-1E+10	1	-1E+10	1
4901784	119	C	10/07/2018	10:43	-132.535	43.012	0	805.50	0	3.8690	0	34.4960	8	27.405	0	797.559	0	11.8	4	3.7	4	-1E+10	1	-1E+10	1	-1E+10	1	-1E+10	1	-1E+10	1	-1E+10	1
4901784	119	C	10/07/2018	10:43	-132.535	43.012	0	810.50	0	3.8600	0	34.5010	8	27.410	0	802.500	0	11.8	4	3.7	4	-1E+10	1	-1E+10	1	-1E+10	1	-1E+10	1	-1E+10	1	-1E+10	1
4901784	119	C	10/07/2018	10:43	-132.535	43.012	0	815.40	0	3.8480	0	34.5020	8	27.412	0	807.342	0	11.7	4	3.7	4	-1E+10	1	-1E+10	1	-1E+10	1	-1E+10	1	-1E+10	1	-1E+10	1
4901784	119	C	10/07/2018	10:43	-132.535	43.012	0	820.40	0	3.8260	0	34.5040	8	27.416	0	812.283	0	11.6	4	3.7	4	-1E+10	1	-1E+10	1	-1E+10	1	-1E+10	1	-1E+10	1	-1E+10	1
4901784	119	C	10/07/2018	10:43	-132.535	43.012	0	825.50	0	3.8020	0	34.5070	8	27.420	0	817.322	0	11.5	4	3.6	4	-1E+10	1	-1E+10	1	-1E+10	1	-1E+10	1	-1E+10	1	-1E+10	1
4901784	119	C	10/07/2018	10:43	-132.535	43.012	0	830.60	0	3.7820	0	34.5120	8	27.426	0	822.362	0	11.3	4	3.6	4	-1E+10	1	-1E+10	1	-1E+10	1	-1E+10	1	-1E+10	1	-1E+10	1
4901784	119	C	10/07/2018	10:43	-132.535	43.012	0	835.60	0	3.7570	0	34.5170	8	27.433	0	827.302	0	11.2	4	3.5	4	-1E+10	1	-1E+10	1	-1E+10	1	-1E+10	1	-1E+10	1	-1E+10	1
4901784	119	C	10/07/2018	10:43	-132.535	43.012	0	840.70	0	3.7450	0	34.5210	8	27.437	0	832.342	0	11.1	4	3.5	4	-1E+10	1	-1E+10	1	-1E+10	1	-1E+10	1	-1E+10	1	-1E+10	1
4901784	119	C	10/07/2018	10:43	-132.535	43.012	0	845.70	0	3.7310	0	34.5240	8	27.441	0	837.282	0	11.0	4	3.5	4	-1E+10	1	-1E+10	1	-1E+10	1	-1E+10	1	-1E+10	1	-1E+10	1
4901784	119	C	10/07/2018	10:43	-132.535	43.012	0	850.80	0	3.7180	0	34.5280	8	27.446	0	842.321	0	11.0	4	3.4	4	-1E+10	1	-1E+10	1	-1E+10	1	-1E+10	1	-1E+10	1	-1E+10	1
4901784	119	C	10/07/2018	10:43	-132.535	43.012	0	855.10	0	3.7120	0	34.5300	8	27.448	0	846.569	0	10.9	4	3.4	4	-1E+10	1	-1E+10	1	-1E+10	1	-1E+10	1	-1E+10	1	-1E+10	1
4901784	119	C	10/07/2018	10:43	-132.535	43.012	0	859.30	0	3.7080	0	34.5320	8	27.450	0	850.719	0	10.9	4	3.4	4	-1E+10	1	-1E+10	1	-1E+10	1	-1E+10	1	-1E+10	1	-1E+10	1
4901784	119	C	10/07/2018	10:43	-132.535	43.012	0	864.50	0	3.7090	0	34.5330	8	27.451	0	855.856	0	10.8	4	3.4	4	-1E+10	1	-1E+10	1	-1E+10	1	-1E+10	1	-1E+10	1	-1E+10	1
4901784	119	C	10/07/2018	10:43	-132.535	43.012	0	869.80	0	3.6950	0	34.5390	8	27.457	0	861.092	0	10.6	4	3.3	4	-1E+10	1	-1E+10	1	-1E+10	1	-1E+10	1	-1E+10	1	-1E+10	1
4901784	119	C	10/07/2018	10:43	-132.535	43.012	0	875.10	0	3.6790	0	34.5450	8	27.463	0	866.328	0	10.5	4	3.3	4	-1E+10	1	-1E+10	1	-1E+10	1	-1E+10	1	-1E+10	1	-1E+10	1
4901784	119	C	10/07/2018	10:43	-132.535	43.012	0	880.50	0	3.6650	0	34.5500	8	27.469	0	871.663	0	10.5	4	3.3	4	-1E+10	1	-1E+10	1	-1E+10	1	-1E+10	1	-1E+10	1	-1E+10	1
4901784	119	C	10/07/2018	10:43	-132.535	43.012	0	885.10	0	3.6580	0	34.5520	8	27.471	0	876.207	0	10.4	4	3.3	4	-1E+10	1	-1E+10	1	-1E+10	1	-1E+10	1	-1E+10	1	-1E+10	1
4901784	119	C	10/07/2018	10:43	-132.535	43.012	0	889.60	0	3.6510	0	34.5550	8	27.474	0	880.652	0	10.4	4	3.3	4	-1E+10	1	-1E+10	1	-1E+10	1	-1E+10	1	-1E+10	1	-1E+10	1
4901784	119	C	10/07/2018	10:43	-132.535	43.012	0	895.00	0	3.6500	0	34.5600	8	27.478	0	885.987	0	10.4	4	3.3	4	-1E+10	1	-1E+10	1	-1E+10	1	-1E+10	1	-1E+10	1	-1E+10	1
4901784	119	C	10/07/2018	10:43	-132.535	43.012	0	900.50	0	3.6470	0	34.5630	8	27.481	0	891.420	0	10.4	4	3.3	4	-1E+10	1	-1E+10	1	-1E+10	1	-1E+10	1	-1E+10	1	-1E+10	1
4901784	119	C	10/07/2018	10:43	-132.535	43.012	0	905.10	0	3.6490	0	34.5680	8	27.485	0	895.963	0	10.4	4	3.3	4	-1E+10	1	-1E+10	1	-1E+10	1	-1E+10	1	-1E+10	1	-1E+10	1
4901784	119	C	10/07/2018	10:43	-132.535	43.012	0	909.70	0	3.6290	0	34.5680	8	27.487	0	900.507	0	10.4	4	3.3	4	-1E+10	1	-1E+10	1	-1E+10	1	-1E+10	1	-1E+10	1	-1E+10	1
4901784	119	C	10/07/2018	10:43	-132.535	43.012	0	915.40	0	3.6110	0	34.5700	8	27.490	0	906.137	0	10.4	4	3.3	4	-1E+10	1	-1E+10	1	-1E+10	1	-1E+10	1	-1E+10	1	-1E+10	1
4901784	119	C	10/07/2018	10:43	-132.535	43.012	0	919.60	0	3.6040	0	34.5720	8	27.492	0	910.285	0	10.4	4	3.3	4	-1E+10	1	-1E+10	1	-1E+10	1	-1E+10	1	-1E+10	1	-1E+10	1
4901784	119	C	10/07/2018	10:43	-132.535	43.012	0	924.50	0	3.5930	0	34.5750	8	27.496	0	915.125	0	10.5	4	3.3	4	-1E+10	1	-1E+10	1	-1E+10	1	-1E+10	1	-1E+10	1	-1E+10	1
4901784	119	C	10/07/2018	10:43	-132.535	43.012	0	929.50	0	3.5830	0	34.5790	8	27.500	0	920.063	0	10.5	4	3.3	4	-1E+10	1	-1E+10	1	-1E+10	1	-1E+10	1	-1E+10	1	-1E+10	1
4901784	119	C	10/07/2018	10:43	-132.535	43.012	0	934.50	0	3.5700	0	34.5820	8	27.504	0	925.002	0	10.5	4	3.3	4	-1E+10	1	-1E+10	1	-1E+10	1	-1E+10	1	-1E+10	1	-1E+10	1
4901784	119	C	10/07/2018	10:43	-132.535	43.012	0	939.50	0	3.5620	0	34.5850	8	27.507	0	929.940	0	10.6	4	3.3	4	-1E+10	1	-1E+10	1	-1E+10	1	-1E+10	1	-1E+10	1	-1E+10	1
4901784	119	C	10/07/2018	10:43	-132.535	43.012	0	944.50	0	3.5430	0	34.5890	8	27.512	0	934.878	0	10.7	4	3.3	4	-1E+10	1	-1E+10	1	-1E+10	1	-1E+10	1	-1E+10	1	-1E+10	1
4901784	119	C	10/07/2018	10:43	-132.535	43.012	0	949.50	0	3.5310	0	34.5920	8	27.516	0	939.816	0	10.7	4	3.4	4	-1E+10	1	-1E+10	1	-1E+10	1	-1E+10	1	-1E+10	1	-1E+10	1
4901784	119	C	10/07/2018	10:43	-132.535	43.012	0	954.70	0	3.5160	0	34.5950	8	27.520	0	944.951	0	10.8	4	3.4	4	-1E+10	1	-1E+10	1	-1E+10	1	-1E+10	1	-1E+10	1	-1E+10	1
4901784	119	C	10/07/2018	10:43	-132.535	43.012	0	959.80	0	3.5080	0	34.5980	8	27.523	0	949.987	0	10.8	4	3.4	4	-1E+10	1	-1E+10	1	-1E+10	1	-1E+10	1	-1E+10	1	-1E+10	1
4901784	119	C	10/07/2018	10:43	-132.535	43.012	0	965.00	0	3.4950	0	34.6010	8	27.527	0	955.122	0	10.9	4	3.4	4	-1E+10	1	-1E+10	1	-1E+10	1	-1E+10	1	-1E+10	1	-1E+10	1
4901784	119	C	10/07/2018	10:43	-132.535	43.012	0	970.40	0	3.4830	0	34.6030	8	27.529	0	960.454	0	11.0	4	3.4	4	-1E+10	1	-1E+10	1	-1E+10	1	-1E+10	1	-1E+10	1	-1E+10	1
4901784	119	C	10/07/2018	10:43	-132.535	43.012	0	974.80	0	3.4740	0	34.6050	8	27.532	0	964.799	0	11.0	4	3.5	4	-1E+10	1	-1E+10	1	-1E+10	1	-1E+10	1	-1E+10	1	-1E+10	1
4901784	119	C	10/07/2018	10:43	-132.535	43.012	0	979.40	0	3.4670	0	34.6060	8	27.533	0	969.341	0	11.1	4	3.5	4	-1E+10	1	-1E+10	1	-1E+10	1	-1E+10	1	-1E+10	1	-1E+10	1
4901784	119	C	10/07/2018	10:43	-132.535	43.012	0	984.70	0	3.4540	0	34.6100	8	27.538	0	974.575	0	11.2	4	3.5	4	-1E+10	1	-1E+10	1	-1E+10	1	-1E+10	1	-1E+10	1	-1E+10	1
4901784	119	C	10/07/2018	10:43	-132.535	43.012	0	990.10	0	3.4430	0	34.6120	8	27.540	0	979.906	0	11.3	4	3.5	4	-1E+10	1	-1E+10	1	-1E+10	1	-1E+10	1	-1E+10	1	-1E+10	1
4901784	119	C	10/07/2018	10:43	-132.535	43.012	0	995.60	0	3.4330	0	34.6140	8	27.543	0	985.337	0	11.4	4	3.6	4	-1E+10	1	-1E+10	1	-1E+10	1	-1E+10	1	-1E+10	1	-1E+10	1
4901784	119	C	10/07/2018	10:43	-132.535	43.012	0	1000.10	0	3.4220	0	34.6170	8	27.547	0	989.780	0	11.5	4	3.6	4	-1E+10	1	-1E+10	1	-1E+10	1	-1E+10	1	-1E+10	1	-1E+10	1
4901784	119	C	10/07/2018	10:43	-132.535	43.012	0	1004.70	0	3.4130	0	34.6190	8	27.549	0	994.322	0	11.6	4	3.6	4	-1E+10	1	-1E+10	1	-1E+10	1	-1E+10	1	-1E+10	1	-1E+10	1
4901784	119	C	10/07/2018	10:43	-132.535	43.012	0	1010.20	0	3.3990	0	34.6220	8	27.553	0	999.752	0	11.7	4	3.7	4	-1E+10	1	-1E+10	1	-1E+10	1	-1E+10	1	-1E+10	1	-1E+10	1
4901784	119	C	10/07/2018	10:43	-132.535	43.012	0	1014.90	0	3.3920	0	34.6240	8	27.555	0	1004.392	0	11.8	4	3.7	4	-1E+10	1	-1E+10	1	-1E+10	1	-1E+10	1	-1E+10	1	-1E+10	1
4901784	119	C	10/07/2018	10:43	-132.535	43.012	0	1019.50	0	3.3790	0	34.6260	8	27.558	0	1008.933	0	11.9	4	3.7	4	-1E+10	1	-1E+10	1	-1E+10	1	-1E+10	1	-1E+10	1	-1E+10	1
4901784	119	C	10/07/2018	10:43	-132.535	43.012	0	1025.20	0	3.3660	0	34.6280	8	27.561	0	1014.560	0	12.0	4	3.7	4	-1E+10	1	-1E+10	1	-1E+10	1	-1E+10	1	-1E+10	1	-1E+10	1
4901784	119	C	10/07/2018	10:43	-132.535	43.012	0	1030.50	0	3.3540	0	34.6310	8	27.564	0	1019.792	0	12.0	4	3.8	4	-1E+10	1	-1E+10	1	-1E+10	1	-1E+10	1	-1E+10	1	-1E+10	1
4901784	119	C	10/07/2018	10:43	-132.535	43.012	0	1035.30	0	3.3500	0	34.6310	8	27.565	0	1024.531	0	12.1	4	3.8	4	-1E+10	1	-1E+10	1	-1E+10	1	-1E+10	1	-1E+10	1	-1E+10	1
4901784	119	C	10/07/2018	10:43	-132.535	43.012	0	1040.20	0	3.3440	0	34.6320	8	27.566	0	1029.368	0	12.1	4	3.8	4	-1E+10	1	-1E+10	1	-1E+10	1	-1E+10	1	-1E+10	1	-1E+10	1
4901784	119	C	10/07/2018	10:43	-132.535	43.012	0	1045.00	0	3.3310	0	34.6330	8	27.568	0	1034.106	0	12.2	4	3.8	4	-1E+10	1	-1E+10	1	-1E+10	1	-1E+10	1	-1E+10	1	-1E+10	1
4901784	119	C	10/07/2018	10:43	-132.535	43.012	0	1049.90	0	3.3010	0	34.6330	8	27.571	0	1038.943	0	12.2	4	3.8	4	-1E+10	1	-1E+10	1	-1E+10	1	-1E+10	1	-1E+10	1	-1E+10	1
4901784	119	C	10/07/2018	10:43	-132.535	43.012	0	1054.90	0	3.3020	0	34.6330	8	27.571	0	1043.878	0	12.2	4	3.8	4	-1E+10	1	-1E+10	1	-1E+10	1	-1E+10	1	-1E+10	1	-1E+10	1
4901784	119	C	10/07/2018	10:43	-132.535	43.012	0	1059.90	0	3.2580	0	34.6320	8	27.574	0	1048.813	0	12.2	4	3.8	4	-1E+10	1	-1E+10	1	-1E+10	1	-1E+10	1	-1E+10	1	-1E+10	1
4901784	119	C	10/07/2018	10:43	-132.535	43.012	0	1065.00	0	3.2420	0	34.6330	8	27.577	0	1053.847	0	12.3	4	3.8	4	-1E+10	1	-1E+10	1	-1E+10	1	-1E+10	1	-1E+10	1	-1E+10	1
4901784	119	C	10/07/2018	10:43	-132.535	43.012	0	1070.10	0	3.2330	0	34.6350	8	27.579	0	1058.881	0	12.5	4	3.9	4	-1E+10	1	-1E+10	1	-1E+10	1	-1E+10	1	-1E+10	1	-1E+10	1
4901784	119	C	10/07/2018	10:43	-132.535	43.012	0	1075.20	0	3.2230	0	34.6380	8	27.583	0	1063.915	0	12.6	4	3.9	4	-1E+10	1	-1E+10	1	-1E+10	1	-1E+10	1	-1E+10	1	-1E+10	1
4901784	119	C	10/07/2018	10:43	-132.535	43.012	0	1080.40	0	3.2360	0	34.6420	8	27.585	0	1069.047	0	12.9	4	4.0	4	-1E+10	1	-1E+10	1	-1E+10	1	-1E+10	1	-1E+10	1	-1E+10	1
4901784	119	C	10/07/2018	10:43	-132.535	43.012	0	1085.70	0	3.2360	0	34.6460	8	27.588	0	1074.277	0	13.1	4	4.1	4	-1E+10	1	-1E+10	1	-1E+10	1	-1E+10	1	-1E+10	1	-1E+10	1
4901784	119	C	10/07/2018	10:43	-132.535	43.012	0	1090.00	0	3.2500	0	34.6490	8	27.589	0	1078.521	0	13.2	4	4.1	4	-1E+10	1	-1E+10	1	-1E+10	1	-1E+10	1	-1E+10	1	-1E+10	1
4901784	119	C	10/07/2018	10:43	-132.535	43.012	0	1094.30	0	3.2440	0	34.6500	8	27.590	0	1082.765	0	13.3	4	4.1	4	-1E+10	1	-1E+10	1	-1E+10	1	-1E+10	1	-1E+10	1	-1E+10	1
4901784	119	C	10/07/2018	10:43	-132.535	43.012	0	1099.50	0	3.2350	0	34.6510	8	27.592	0	1087.897	0	13.4	4	4.2	4	-1E+10	1	-1E+10	1	-1E+10	1	-1E+10	1	-1E+10	1	-1E+10	1
4901784	119	C	10/07/2018	10:43	-132.535	43.012	0	1104.70	0	3.2220	0	34.6530	8	27.595	0	1093.028	0	13.6	4	4.2	4	-1E+10	1	-1E+10	1	-1E+10	1	-1E+10	1	-1E+10	1	-1E+10	1
4901784	119	C	10/07/2018	10:43	-132.535	43.012	0	1109.90	0	3.2110	0	34.6560	8	27.598	0	1098.160	0	13.7	4	4.3	4	-1E+10	1	-1E+10	1	-1E+10	1	-1E+10	1	-1E+10	1	-1E+10	1
4901784	119	C	10/07/2018	10:43	-132.535	43.012	0	1115.10	0	3.2020	0	34.6560	8	27.599	0	1103.291	0	13.8	4	4.3	4	-1E+10	1	-1E+10	1	-1E+10	1	-1E+10	1	-1E+10	1	-1E+10	1
4901784	119	C	10/07/2018	10:43	-132.535	43.012	0	1120.40	0	3.1890	0	34.6570	8	27.601	0	1108.521	0	13.9	4	4.3	4	-1E+10	1	-1E+10	1	-1E+10	1	-1E+10	1	-1E+10	1	-1E+10	1
4901784	119	C	10/07/2018	10:43	-132.535	43.012	0	1125.70	0	3.1790	0	34.6590	8	27.604	0	1113.751	0	14.0	4	4.4	4	-1E+10	1	-1E+10	1	-1E+10	1	-1E+10	1	-1E+10	1	-1E+10	1
4901784	119	C	10/07/2018	10:43	-132.535	43.012	0	1130.10	0	3.1700	0	34.6610	8	27.606	0	1118.092	0	14.1	4	4.4	4	-1E+10	1	-1E+10	1	-1E+10	1	-1E+10	1	-1E+10	1	-1E+10	1
4901784	119	C	10/07/2018	10:43	-132.535	43.012	0	1134.40	0	3.1640	0	34.6620	8	27.608	0	1122.335	0	14.3	4	4.4	4	-1E+10	1	-1E+10	1	-1E+10	1	-1E+10	1	-1E+10	1	-1E+10	1
4901784	119	C	10/07/2018	10:43	-132.535	43.012	0	1139.70	0	3.1560	0	34.6640	8	27.610	0	1127.564	0	14.4	4	4.5	4	-1E+10	1	-1E+10	1	-1E+10	1	-1E+10	1	-1E+10	1	-1E+10	1
4901784	119	C	10/07/2018	10:43	-132.535	43.012	0	1145.00	0	3.1480	0	34.6650	8	27.612	0	1132.794	0	14.5	4	4.5	4	-1E+10	1	-1E+10	1	-1E+10	1	-1E+10	1	-1E+10	1	-1E+10	1
4901784	119	C	10/07/2018	10:43	-132.535	43.012	0	1150.30	0	3.1320	0	34.6670	8	27.615	0	1138.023	0	14.7	4	4.5	4	-1E+10	1	-1E+10	1	-1E+10	1	-1E+10	1	-1E+10	1	-1E+10	1
4901784	119	C	10/07/2018	10:43	-132.535	43.012	0	1155.60	0	3.1200	0	34.6670	8	27.616	0	1143.252	0	14.7	4	4.6	4	-1E+10	1	-1E+10	1	-1E+10	1	-1E+10	1	-1E+10	1	-1E+10	1
4901784	119	C	10/07/2018	10:43	-132.535	43.012	0	1160.10	0	3.1110	0	34.6690	8	27.618	0	1147.691	0	14.9	4	4.6	4	-1E+10	1	-1E+10	1	-1E+10	1	-1E+10	1	-1E+10	1	-1E+10	1
4901784	119	C	10/07/2018	10:43	-132.535	43.012	0	1164.60	0	3.1030	0	34.6700	8	27.620	0	1152.131	0	15.0	4	4.7	4	-1E+10	1	-1E+10	1	-1E+10	1	-1E+10	1	-1E+10	1	-1E+10	1
4901784	119	C	10/07/2018	10:43	-132.535	43.012	0	1169.90	0	3.0910	0	34.6720	8	27.623	0	1157.360	0	15.2	4	4.7	4	-1E+10	1	-1E+10	1	-1E+10	1	-1E+10	1	-1E+10	1	-1E+10	1
4901784	119	C	10/07/2018	10:43	-132.535	43.012	0	1175.20	0	3.0830	0	34.6730	8	27.624	0	1162.588	0	15.3	4	4.7	4	-1E+10	1	-1E+10	1	-1E+10	1	-1E+10	1	-1E+10	1	-1E+10	1
4901784	119	C	10/07/2018	10:43	-132.535	43.012	0	1180.60	0	3.0770	0	34.6740	8	27.625	0	1167.915	0	15.4	4	4.8	4	-1E+10	1	-1E+10	1	-1E+10	1	-1E+10	1	-1E+10	1	-1E+10	1
4901784	119	C	10/07/2018	10:43	-132.535	43.012	0	1184.90	0	3.0710	0	34.6750	8	27.627	0	1172.157	0	15.6	4	4.8	4	-1E+10	1	-1E+10	1	-1E+10	1	-1E+10	1	-1E+10	1	-1E+10	1
4901784	119	C	10/07/2018	10:43	-132.535	43.012	0	1189.40	0	3.0600	0	34.6760	8	27.629	0	1176.596	0	15.7	4	4.9	4	-1E+10	1	-1E+10	1	-1E+10	1	-1E+10	1	-1E+10	1	-1E+10	1
4901784	119	C	10/07/2018	10:43	-132.535	43.012	0	1194.70	0	3.0530	0	34.6780	8	27.631	0	1181.824	0	15.8	4	4.9	4	-1E+10	1	-1E+10	1	-1E+10	1	-1E+10	1	-1E+10	1	-1E+10	1
4901784	119	C	10/07/2018	10:43	-132.535	43.012	0	1200.20	0	3.0440	0	34.6780	8	27.632	0	1187.249	0	15.9	4	4.9	4	-1E+10	1	-1E+10	1	-1E+10	1	-1E+10	1	-1E+10	1	-1E+10	1
4901784	119	C	10/07/2018	10:43	-132.535	43.012	0	1205.50	0	3.0370	0	34.6790	8	27.633	0	1192.477	0	16.1	4	5.0	4	-1E+10	1	-1E+10	1	-1E+10	1	-1E+10	1	-1E+10	1	-1E+10	1
4901784	119	C	10/07/2018	10:43	-132.535	43.012	0	1210.00	0	3.0290	0	34.6800	8	27.635	0	1196.916	0	16.2	4	5.0	4	-1E+10	1	-1E+10	1	-1E+10	1	-1E+10	1	-1E+10	1	-1E+10	1
4901784	119	C	10/07/2018	10:43	-132.535	43.012	0	1214.50	0	3.0200	0	34.6810	8	27.636	0	1201.354	0	16.3	4	5.0	4	-1E+10	1	-1E+10	1	-1E+10	1	-1E+10	1	-1E+10	1	-1E+10	1
4901784	119	C	10/07/2018	10:43	-132.535	43.012	0	1219.90	0	3.0140	0	34.6820	8	27.638	0	1206.680	0	16.5	4	5.1	4	-1E+10	1	-1E+10	1	-1E+10	1	-1E+10	1	-1E+10	1	-1E+10	1
4901784	119	C	10/07/2018	10:43	-132.535	43.012	0	1225.20	0	3.0000	0	34.6840	8	27.641	0	1211.908	0	16.6	4	5.1	4	-1E+10	1	-1E+10	1	-1E+10	1	-1E+10	1	-1E+10	1	-1E+10	1
4901784	119	C	10/07/2018	10:43	-132.535	43.012	0	1230.50	0	2.9930	0	34.6840	8	27.641	0	1217.135	0	16.8	4	5.2	4	-1E+10	1	-1E+10	1	-1E+10	1	-1E+10	1	-1E+10	1	-1E+10	1
4901784	119	C	10/07/2018	10:43	-132.535	43.012	0	1235.00	0	2.9780	0	34.6860	8	27.644	0	1221.573	0	16.9	4	5.2	4	-1E+10	1	-1E+10	1	-1E+10	1	-1E+10	1	-1E+10	1	-1E+10	1
4901784	119	C	10/07/2018	10:43	-132.535	43.012	0	1239.40	0	2.9660	0	34.6870	8	27.646	0	1225.912	0	17.0	4	5.3	4	-1E+10	1	-1E+10	1	-1E+10	1	-1E+10	1	-1E+10	1	-1E+10	1
4901784	119	C	10/07/2018	10:43	-132.535	43.012	0	1244.80	0	2.9490	0	34.6870	8	27.648	0	1231.238	0	17.2	4	5.3	4	-1E+10	1	-1E+10	1	-1E+10	1	-1E+10	1	-1E+10	1	-1E+10	1
4901784	119	C	10/07/2018	10:43	-132.535	43.012	0	1250.10	0	2.9400	0	34.6880	8	27.649	0	1236.464	0	17.3	4	5.4	4	-1E+10	1	-1E+10	1	-1E+10	1	-1E+10	1	-1E+10	1	-1E+10	1
4901784	119	C	10/07/2018	10:43	-132.535	43.012	0	1255.50	0	2.9280	0	34.6900	8	27.652	0	1241.790	0	17.5	4	5.4	4	-1E+10	1	-1E+10	1	-1E+10	1	-1E+10	1	-1E+10	1	-1E+10	1
4901784	119	C	10/07/2018	10:43	-132.535	43.012	0	1260.00	0	2.9230	0	34.6910	8	27.653	0	1246.227	0	17.7	4	5.4	4	-1E+10	1	-1E+10	1	-1E+10	1	-1E+10	1	-1E+10	1	-1E+10	1
4901784	119	C	10/07/2018	10:43	-132.535	43.012	0	1264.40	0	2.9150	0	34.6920	8	27.655	0	1250.566	0	17.8	4	5.5	4	-1E+10	1	-1E+10	1	-1E+10	1	-1E+10	1	-1E+10	1	-1E+10	1
4901784	119	C	10/07/2018	10:43	-132.535	43.012	0	1269.80	0	2.9050	0	34.6940	8	27.658	0	1255.891	0	18.0	4	5.6	4	-1E+10	1	-1E+10	1	-1E+10	1	-1E+10	1	-1E+10	1	-1E+10	1
4901784	119	C	10/07/2018	10:43	-132.535	43.012	0	1275.30	0	2.8970	0	34.6950	8	27.659	0	1261.314	0	18.2	4	5.6	4	-1E+10	1	-1E+10	1	-1E+10	1	-1E+10	1	-1E+10	1	-1E+10	1
4901784	119	C	10/07/2018	10:43	-132.535	43.012	0	1279.80	0	2.8850	0	34.6960	8	27.661	0	1265.751	0	18.4	4	5.7	4	-1E+10	1	-1E+10	1	-1E+10	1	-1E+10	1	-1E+10	1	-1E+10	1
4901784	119	C	10/07/2018	10:43	-132.535	43.012	0	1284.40	0	2.8810	0	34.6970	8	27.662	0	1270.287	0	18.5	4	5.7	4	-1E+10	1	-1E+10	1	-1E+10	1	-1E+10	1	-1E+10	1	-1E+10	1
4901784	119	C	10/07/2018	10:43	-132.535	43.012	0	1289.80	0	2.8700	0	34.6970	8	27.663	0	1275.611	0	18.8	4	5.8	4	-1E+10	1	-1E+10	1	-1E+10	1	-1E+10	1	-1E+10	1	-1E+10	1
4901784	119	C	10/07/2018	10:43	-132.535	43.012	0	1295.30	0	2.8570	0	34.7000	8	27.667	0	1281.034	0	19.0	4	5.9	4	-1E+10	1	-1E+10	1	-1E+10	1	-1E+10	1	-1E+10	1	-1E+10	1
4901784	119	C	10/07/2018	10:43	-132.535	43.012	0	1299.90	0	2.8520	0	34.7000	8	27.667	0	1285.569	0	19.2	4	5.9	4	-1E+10	1	-1E+10	1	-1E+10	1	-1E+10	1	-1E+10	1	-1E+10	1
4901784	119	C	10/07/2018	10:43	-132.535	43.012	0	1304.60	0	2.8410	0	34.7020	8	27.670	0	1290.203	0	19.4	4	6.0	4	-1E+10	1	-1E+10	1	-1E+10	1	-1E+10	1	-1E+10	1	-1E+10	1
4901784	119	C	10/07/2018	10:43	-132.535	43.012	0	1310.10	0	2.8340	0	34.7030	8	27.671	0	1295.625	0	19.6	4	6.0	4	-1E+10	1	-1E+10	1	-1E+10	1	-1E+10	1	-1E+10	1	-1E+10	1
4901784	119	C	10/07/2018	10:43	-132.535	43.012	0	1315.50	0	2.8270	0	34.7040	8	27.673	0	1300.949	0	19.8	4	6.1	4	-1E+10	1	-1E+10	1	-1E+10	1	-1E+10	1	-1E+10	1	-1E+10	1
4901784	119	C	10/07/2018	10:43	-132.535	43.012	0	1320.40	0	2.8200	0	34.7060	8	27.675	0	1305.780	0	20.0	4	6.1	4	-1E+10	1	-1E+10	1	-1E+10	1	-1E+10	1	-1E+10	1	-1E+10	1
4901784	119	C	10/07/2018	10:43	-132.535	43.012	0	1325.30	0	2.8110	0	34.7060	8	27.676	0	1310.610	0	20.1	4	6.2	4	-1E+10	1	-1E+10	1	-1E+10	1	-1E+10	1	-1E+10	1	-1E+10	1
4901784	119	C	10/07/2018	10:43	-132.535	43.012	0	1330.30	0	2.8030	0	34.7070	8	27.677	0	1315.539	0	20.3	4	6.3	4	-1E+10	1	-1E+10	1	-1E+10	1	-1E+10	1	-1E+10	1	-1E+10	1
4901784	119	C	10/07/2018	10:43	-132.535	43.012	0	1335.20	0	2.7900	0	34.7090	8	27.680	0	1320.369	0	20.5	4	6.3	4	-1E+10	1	-1E+10	1	-1E+10	1	-1E+10	1	-1E+10	1	-1E+10	1
4901784	119	C	10/07/2018	10:43	-132.535	43.012	0	1340.20	0	2.7830	0	34.7100	8	27.682	0	1325.298	0	20.7	4	6.4	4	-1E+10	1	-1E+10	1	-1E+10	1	-1E+10	1	-1E+10	1	-1E+10	1
4901784	119	C	10/07/2018	10:43	-132.535	43.012	0	1345.20	0	2.7780	0	34.7100	8	27.682	0	1330.227	0	20.8	4	6.4	4	-1E+10	1	-1E+10	1	-1E+10	1	-1E+10	1	-1E+10	1	-1E+10	1
4901784	119	C	10/07/2018	10:43	-132.535	43.012	0	1350.30	0	2.7660	0	34.7120	8	27.685	0	1335.254	0	21.1	4	6.5	4	-1E+10	1	-1E+10	1	-1E+10	1	-1E+10	1	-1E+10	1	-1E+10	1
4901784	119	C	10/07/2018	10:43	-132.535	43.012	0	1355.30	0	2.7580	0	34.7130	8	27.686	0	1340.182	0	21.3	4	6.5	4	-1E+10	1	-1E+10	1	-1E+10	1	-1E+10	1	-1E+10	1	-1E+10	1
4901784	119	C	10/07/2018	10:43	-132.535	43.012	0	1360.50	0	2.7500	0	34.7140	8	27.688	0	1345.308	0	21.5	4	6.6	4	-1E+10	1	-1E+10	1	-1E+10	1	-1E+10	1	-1E+10	1	-1E+10	1
4901784	119	C	10/07/2018	10:43	-132.535	43.012	0	1365.70	0	2.7410	0	34.7150	8	27.689	0	1350.433	0	21.6	4	6.6	4	-1E+10	1	-1E+10	1	-1E+10	1	-1E+10	1	-1E+10	1	-1E+10	1
4901784	119	C	10/07/2018	10:43	-132.535	43.012	0	1370.00	0	2.7380	0	34.7150	8	27.690	0	1354.671	0	21.7	4	6.7	4	-1E+10	1	-1E+10	1	-1E+10	1	-1E+10	1	-1E+10	1	-1E+10	1
4901784	119	C	10/07/2018	10:43	-132.535	43.012	0	1374.30	0	2.7310	0	34.7160	8	27.691	0	1358.909	0	21.9	4	6.7	4	-1E+10	1	-1E+10	1	-1E+10	1	-1E+10	1	-1E+10	1	-1E+10	1
4901784	119	C	10/07/2018	10:43	-132.535	43.012	0	1379.90	0	2.7220	0	34.7170	8	27.693	0	1364.428	0	22.0	4	6.8	4	-1E+10	1	-1E+10	1	-1E+10	1	-1E+10	1	-1E+10	1	-1E+10	1
4901784	119	C	10/07/2018	10:43	-132.535	43.012	0	1384.90	0	2.7170	0	34.7170	8	27.693	0	1369.356	0	22.2	4	6.8	4	-1E+10	1	-1E+10	1	-1E+10	1	-1E+10	1	-1E+10	1	-1E+10	1
4901784	119	C	10/07/2018	10:43	-132.535	43.012	0	1389.80	0	2.7110	0	34.7180	8	27.695	0	1374.185	0	22.4	4	6.9	4	-1E+10	1	-1E+10	1	-1E+10	1	-1E+10	1	-1E+10	1	-1E+10	1
4901784	119	C	10/07/2018	10:43	-132.535	43.012	0	1394.70	0	2.6960	0	34.7200	8	27.697	0	1379.014	0	22.9	4	7.0	4	-1E+10	1	-1E+10	1	-1E+10	1	-1E+10	1	-1E+10	1	-1E+10	1
4901784	119	C	10/07/2018	10:43	-132.535	43.012	0	1399.70	0	2.6880	0	34.7220	8	27.700	0	1383.941	0	23.3	4	7.2	4	-1E+10	1	-1E+10	1	-1E+10	1	-1E+10	1	-1E+10	1	-1E+10	1
4901784	119	C	10/07/2018	10:43	-132.535	43.012	0	1404.80	0	2.6740	0	34.7230	8	27.702	0	1388.967	0	23.5	4	7.2	4	-1E+10	1	-1E+10	1	-1E+10	1	-1E+10	1	-1E+10	1	-1E+10	1
4901784	119	C	10/07/2018	10:43	-132.535	43.012	0	1409.90	0	2.6560	0	34.7240	8	27.704	0	1393.993	0	23.7	4	7.3	4	-1E+10	1	-1E+10	1	-1E+10	1	-1E+10	1	-1E+10	1	-1E+10	1
4901784	119	C	10/07/2018	10:43	-132.535	43.012	0	1415.10	0	2.6490	0	34.7250	8	27.706	0	1399.117	0	24.0	4	7.4	4	-1E+10	1	-1E+10	1	-1E+10	1	-1E+10	1	-1E+10	1	-1E+10	1
4901784	119	C	10/07/2018	10:43	-132.535	43.012	0	1420.30	0	2.6330	0	34.7270	8	27.709	0	1404.241	0	24.4	4	7.5	4	-1E+10	1	-1E+10	1	-1E+10	1	-1E+10	1	-1E+10	1	-1E+10	1
4901784	119	C	10/07/2018	10:43	-132.535	43.012	0	1425.40	0	2.6210	0	34.7280	8	27.711	0	1409.266	0	24.6	4	7.6	4	-1E+10	1	-1E+10	1	-1E+10	1	-1E+10	1	-1E+10	1	-1E+10	1
4901784	119	C	10/07/2018	10:43	-132.535	43.012	0	1430.70	0	2.6140	0	34.7290	8	27.712	0	1414.489	0	24.8	4	7.6	4	-1E+10	1	-1E+10	1	-1E+10	1	-1E+10	1	-1E+10	1	-1E+10	1
4901784	119	C	10/07/2018	10:43	-132.535	43.012	0	1435.10	0	2.6100	0	34.7300	8	27.713	0	1418.824	0	25.0	4	7.7	4	-1E+10	1	-1E+10	1	-1E+10	1	-1E+10	1	-1E+10	1	-1E+10	1
4901784	119	C	10/07/2018	10:43	-132.535	43.012	0	1439.50	0	2.6060	0	34.7300	8	27.713	0	1423.159	0	25.1	4	7.7	4	-1E+10	1	-1E+10	1	-1E+10	1	-1E+10	1	-1E+10	1	-1E+10	1
4901784	119	C	10/07/2018	10:43	-132.535	43.012	0	1444.80	0	2.6000	0	34.7310	8	27.715	0	1428.381	0	25.3	4	7.8	4	-1E+10	1	-1E+10	1	-1E+10	1	-1E+10	1	-1E+10	1	-1E+10	1
4901784	119	C	10/07/2018	10:43	-132.535	43.012	0	1450.20	0	2.5940	0	34.7320	8	27.716	0	1433.701	0	25.6	4	7.8	4	-1E+10	1	-1E+10	1	-1E+10	1	-1E+10	1	-1E+10	1	-1E+10	1
4901784	119	C	10/07/2018	10:43	-132.535	43.012	0	1455.50	0	2.5830	0	34.7330	8	27.718	0	1438.923	0	25.9	4	7.9	4	-1E+10	1	-1E+10	1	-1E+10	1	-1E+10	1	-1E+10	1	-1E+10	1
4901784	119	C	10/07/2018	10:43	-132.535	43.012	0	1460.00	0	2.5740	0	34.7340	8	27.720	0	1443.357	0	26.2	4	8.0	4	-1E+10	1	-1E+10	1	-1E+10	1	-1E+10	1	-1E+10	1	-1E+10	1
4901784	119	C	10/07/2018	10:43	-132.535	43.012	0	1464.40	0	2.5670	0	34.7350	8	27.721	0	1447.691	0	26.4	4	8.1	4	-1E+10	1	-1E+10	1	-1E+10	1	-1E+10	1	-1E+10	1	-1E+10	1
4901784	119	C	10/07/2018	10:43	-132.535	43.012	0	1469.80	0	2.5570	0	34.7360	8	27.723	0	1453.011	0	26.8	4	8.2	4	-1E+10	1	-1E+10	1	-1E+10	1	-1E+10	1	-1E+10	1	-1E+10	1
4901784	119	C	10/07/2018	10:43	-132.535	43.012	0	1475.30	0	2.5460	0	34.7370	8	27.724	0	1458.429	0	27.2	4	8.3	4	-1E+10	1	-1E+10	1	-1E+10	1	-1E+10	1	-1E+10	1	-1E+10	1
4901784	119	C	10/07/2018	10:43	-132.535	43.012	0	1479.80	0	2.5390	0	34.7380	8	27.726	0	1462.862	0	27.5	4	8.4	4	-1E+10	1	-1E+10	1	-1E+10	1	-1E+10	1	-1E+10	1	-1E+10	1
4901784	119	C	10/07/2018	10:43	-132.535	43.012	0	1484.50	0	2.5270	0	34.7400	8	27.728	0	1467.492	0	27.9	4	8.5	4	-1E+10	1	-1E+10	1	-1E+10	1	-1E+10	1	-1E+10	1	-1E+10	1
4901784	119	C	10/07/2018	10:43	-132.535	43.012	0	1490.10	0	2.5150	0	34.7410	8	27.730	0	1473.009	0	28.2	4	8.6	4	-1E+10	1	-1E+10	1	-1E+10	1	-1E+10	1	-1E+10	1	-1E+10	1
4901784	119	C	10/07/2018	10:43	-132.535	43.012	0	1494.70	0	2.5100	0	34.7420	8	27.732	0	1477.540	0	28.5	4	8.7	4	-1E+10	1	-1E+10	1	-1E+10	1	-1E+10	1	-1E+10	1	-1E+10	1
4901784	119	C	10/07/2018	10:43	-132.535	43.012	0	1499.50	0	2.5020	0	34.7430	8	27.733	0	1482.268	0	28.9	4	8.8	4	-1E+10	1	-1E+10	1	-1E+10	1	-1E+10	1	-1E+10	1	-1E+10	1
4901784	119	C	10/07/2018	10:43	-132.535	43.012	0	1505.10	0	2.4890	0	34.7440	8	27.735	0	1487.784	0	29.4	4	9.0	4	-1E+10	1	-1E+10	1	-1E+10	1	-1E+10	1	-1E+10	1	-1E+10	1
4901784	119	C	10/07/2018	10:43	-132.535	43.012	0	1510.40	0	2.4760	0	34.7460	8	27.738	0	1493.004	0	29.9	4	9.1	4	-1E+10	1	-1E+10	1	-1E+10	1	-1E+10	1	-1E+10	1	-1E+10	1
4901784	119	C	10/07/2018	10:43	-132.535	43.012	0	1514.80	0	2.4660	0	34.7470	8	27.739	0	1497.338	0	30.2	4	9.2	4	-1E+10	1	-1E+10	1	-1E+10	1	-1E+10	1	-1E+10	1	-1E+10	1
4901784	119	C	10/07/2018	10:43	-132.535	43.012	0	1519.30	0	2.4570	0	34.7480	8	27.741	0	1501.770	0	30.4	4	9.3	4	-1E+10	1	-1E+10	1	-1E+10	1	-1E+10	1	-1E+10	1	-1E+10	1
4901784	119	C	10/07/2018	10:43	-132.535	43.012	0	1524.70	0	2.4530	0	34.7490	8	27.742	0	1507.088	0	30.7	4	9.4	4	-1E+10	1	-1E+10	1	-1E+10	1	-1E+10	1	-1E+10	1	-1E+10	1
4901784	119	C	10/07/2018	10:43	-132.535	43.012	0	1530.10	0	2.4460	0	34.7500	8	27.744	0	1512.407	0	31.0	4	9.5	4	-1E+10	1	-1E+10	1	-1E+10	1	-1E+10	1	-1E+10	1	-1E+10	1
4901784	119	C	10/07/2018	10:43	-132.535	43.012	0	1535.60	0	2.4400	0	34.7500	8	27.744	0	1517.823	0	31.3	4	9.5	4	-1E+10	1	-1E+10	1	-1E+10	1	-1E+10	1	-1E+10	1	-1E+10	1
4901784	119	C	10/07/2018	10:43	-132.535	43.012	0	1540.20	0	2.4330	0	34.7510	8	27.745	0	1522.354	0	31.5	4	9.6	4	-1E+10	1	-1E+10	1	-1E+10	1	-1E+10	1	-1E+10	1	-1E+10	1
4901784	119	C	10/07/2018	10:43	-132.535	43.012	0	1544.90	0	2.4240	0	34.7520	8	27.747	0	1526.982	0	31.8	4	9.7	4	-1E+10	1	-1E+10	1	-1E+10	1	-1E+10	1	-1E+10	1	-1E+10	1
4901784	119	C	10/07/2018	10:43	-132.535	43.012	0	1550.10	0	2.4150	0	34.7530	8	27.749	0	1532.103	0	32.1	4	9.8	4	-1E+10	1	-1E+10	1	-1E+10	1	-1E+10	1	-1E+10	1	-1E+10	1
4901784	119	C	10/07/2018	10:43	-132.535	43.012	0	1554.30	0	2.4080	0	34.7540	8	27.750	0	1536.239	0	32.4	4	9.9	4	-1E+10	1	-1E+10	1	-1E+10	1	-1E+10	1	-1E+10	1	-1E+10	1
4901784	119	C	10/07/2018	10:43	-132.535	43.012	0	1560.10	0	2.3980	0	34.7550	8	27.752	0	1541.951	0	32.8	4	10.0	4	-1E+10	1	-1E+10	1	-1E+10	1	-1E+10	1	-1E+10	1	-1E+10	1
4901784	119	C	10/07/2018	10:43	-132.535	43.012	0	1565.80	0	2.3880	0	34.7560	8	27.753	0	1547.563	0	33.2	4	10.1	4	-1E+10	1	-1E+10	1	-1E+10	1	-1E+10	1	-1E+10	1	-1E+10	1
4901784	119	C	10/07/2018	10:43	-132.535	43.012	0	1570.70	0	2.3800	0	34.7570	8	27.755	0	1552.388	0	33.5	4	10.2	4	-1E+10	1	-1E+10	1	-1E+10	1	-1E+10	1	-1E+10	1	-1E+10	1
4901784	119	C	10/07/2018	10:43	-132.535	43.012	0	1575.60	0	2.3720	0	34.7580	8	27.756	0	1557.213	0	33.9	4	10.3	4	-1E+10	1	-1E+10	1	-1E+10	1	-1E+10	1	-1E+10	1	-1E+10	1
4901784	119	C	10/07/2018	10:43	-132.535	43.012	0	1580.50	0	2.3600	0	34.7600	8	27.759	0	1562.038	0	34.2	4	10.4	4	-1E+10	1	-1E+10	1	-1E+10	1	-1E+10	1	-1E+10	1	-1E+10	1
4901784	119	C	10/07/2018	10:43	-132.535	43.012	0	1585.50	0	2.3570	0	34.7600	8	27.759	0	1566.961	0	34.4	4	10.5	4	-1E+10	1	-1E+10	1	-1E+10	1	-1E+10	1	-1E+10	1	-1E+10	1
4901784	119	C	10/07/2018	10:43	-132.535	43.012	0	1590.40	0	2.3530	0	34.7610	8	27.760	0	1571.786	0	34.6	4	10.5	4	-1E+10	1	-1E+10	1	-1E+10	1	-1E+10	1	-1E+10	1	-1E+10	1
4901784	119	C	10/07/2018	10:43	-132.535	43.012	0	1595.50	0	2.3490	0	34.7620	8	27.762	0	1576.807	0	34.9	4	10.6	4	-1E+10	1	-1E+10	1	-1E+10	1	-1E+10	1	-1E+10	1	-1E+10	1
4901784	119	C	10/07/2018	10:43	-132.535	43.012	0	1600.60	0	2.3440	0	34.7630	8	27.763	0	1581.828	0	35.3	4	10.8	4	-1E+10	1	-1E+10	1	-1E+10	1	-1E+10	1	-1E+10	1	-1E+10	1
4901784	119	C	10/07/2018	10:43	-132.535	43.012	0	1605.70	0	2.3400	0	34.7630	8	27.763	0	1586.849	0	35.7	4	10.9	4	-1E+10	1	-1E+10	1	-1E+10	1	-1E+10	1	-1E+10	1	-1E+10	1
4901784	119	C	10/07/2018	10:43	-132.535	43.012	0	1610.00	0	2.3290	0	34.7650	8	27.766	0	1591.083	0	36.1	4	11.0	4	-1E+10	1	-1E+10	1	-1E+10	1	-1E+10	1	-1E+10	1	-1E+10	1
4901784	119	C	10/07/2018	10:43	-132.535	43.012	0	1614.20	0	2.3180	0	34.7660	8	27.767	0	1595.217	0	36.4	4	11.1	4	-1E+10	1	-1E+10	1	-1E+10	1	-1E+10	1	-1E+10	1	-1E+10	1
4901784	119	C	10/07/2018	10:43	-132.535	43.012	0	1619.40	0	2.3090	0	34.7670	8	27.769	0	1600.337	0	36.8	4	11.2	4	-1E+10	1	-1E+10	1	-1E+10	1	-1E+10	1	-1E+10	1	-1E+10	1
4901784	119	C	10/07/2018	10:43	-132.535	43.012	0	1624.60	0	2.3010	0	34.7670	8	27.770	0	1605.456	0	37.2	4	11.3	4	-1E+10	1	-1E+10	1	-1E+10	1	-1E+10	1	-1E+10	1	-1E+10	1
4901784	119	C	10/07/2018	10:43	-132.535	43.012	0	1629.80	0	2.2960	0	34.7690	8	27.772	0	1610.575	0	37.7	4	11.5	4	-1E+10	1	-1E+10	1	-1E+10	1	-1E+10	1	-1E+10	1	-1E+10	1
4901784	119	C	10/07/2018	10:43	-132.535	43.012	0	1635.10	0	2.2900	0	34.7700	8	27.773	0	1615.792	0	38.4	4	11.7	4	-1E+10	1	-1E+10	1	-1E+10	1	-1E+10	1	-1E+10	1	-1E+10	1
4901784	119	C	10/07/2018	10:43	-132.535	43.012	0	1640.40	0	2.2850	0	34.7720	8	27.775	0	1621.009	0	39.0	4	11.9	4	-1E+10	1	-1E+10	1	-1E+10	1	-1E+10	1	-1E+10	1	-1E+10	1
4901784	119	C	10/07/2018	10:43	-132.535	43.012	0	1645.70	0	2.2760	0	34.7730	8	27.777	0	1626.226	0	39.5	4	12.0	4	-1E+10	1	-1E+10	1	-1E+10	1	-1E+10	1	-1E+10	1	-1E+10	1
4901784	119	C	10/07/2018	10:43	-132.535	43.012	0	1650.10	0	2.2710	0	34.7750	8	27.779	0	1630.557	0	39.8	4	12.1	4	-1E+10	1	-1E+10	1	-1E+10	1	-1E+10	1	-1E+10	1	-1E+10	1
4901784	119	C	10/07/2018	10:43	-132.535	43.012	0	1654.50	0	2.2670	0	34.7750	8	27.779	0	1634.888	0	40.2	4	12.2	4	-1E+10	1	-1E+10	1	-1E+10	1	-1E+10	1	-1E+10	1	-1E+10	1
4901784	119	C	10/07/2018	10:43	-132.535	43.012	0	1659.80	0	2.2580	0	34.7760	8	27.781	0	1640.105	0	40.5	4	12.3	4	-1E+10	1	-1E+10	1	-1E+10	1	-1E+10	1	-1E+10	1	-1E+10	1
4901784	119	C	10/07/2018	10:43	-132.535	43.012	0	1665.20	0	2.2520	0	34.7770	8	27.782	0	1645.420	0	40.6	4	12.3	4	-1E+10	1	-1E+10	1	-1E+10	1	-1E+10	1	-1E+10	1	-1E+10	1
4901784	119	C	10/07/2018	10:43	-132.535	43.012	0	1670.50	0	2.2470	0	34.7780	8	27.783	0	1650.636	0	40.7	4	12.4	4	-1E+10	1	-1E+10	1	-1E+10	1	-1E+10	1	-1E+10	1	-1E+10	1
4901784	119	C	10/07/2018	10:43	-132.535	43.012	0	1675.00	0	2.2440	0	34.7780	8	27.783	0	1655.065	0	40.8	4	12.4	4	-1E+10	1	-1E+10	1	-1E+10	1	-1E+10	1	-1E+10	1	-1E+10	1
4901784	119	C	10/07/2018	10:43	-132.535	43.012	0	1679.50	0	2.2370	0	34.7770	8	27.783	0	1659.494	0	40.9	4	12.4	4	-1E+10	1	-1E+10	1	-1E+10	1	-1E+10	1	-1E+10	1	-1E+10	1
4901784	119	C	10/07/2018	10:43	-132.535	43.012	0	1684.90	0	2.2330	0	34.7780	8	27.784	0	1664.808	0	41.1	4	12.5	4	-1E+10	1	-1E+10	1	-1E+10	1	-1E+10	1	-1E+10	1	-1E+10	1
4901784	119	C	10/07/2018	10:43	-132.535	43.012	0	1690.30	0	2.2180	0	34.7780	8	27.786	0	1670.123	0	41.3	4	12.5	4	-1E+10	1	-1E+10	1	-1E+10	1	-1E+10	1	-1E+10	1	-1E+10	1
4901784	119	C	10/07/2018	10:43	-132.535	43.012	0	1695.70	0	2.2010	0	34.7790	8	27.788	0	1675.437	0	41.8	4	12.7	4	-1E+10	1	-1E+10	1	-1E+10	1	-1E+10	1	-1E+10	1	-1E+10	1
4901784	119	C	10/07/2018	10:43	-132.535	43.012	0	1700.20	0	2.1880	0	34.7810	8	27.790	0	1679.865	0	42.1	4	12.8	4	-1E+10	1	-1E+10	1	-1E+10	1	-1E+10	1	-1E+10	1	-1E+10	1
4901784	119	C	10/07/2018	10:43	-132.535	43.012	0	1705.40	0	2.1850	0	34.7810	8	27.791	0	1684.983	0	42.2	4	12.8	4	-1E+10	1	-1E+10	1	-1E+10	1	-1E+10	1	-1E+10	1	-1E+10	1
4901784	119	C	10/07/2018	10:43	-132.535	43.012	0	1710.50	0	2.1800	0	34.7810	8	27.791	0	1690.001	0	42.5	4	12.9	4	-1E+10	1	-1E+10	1	-1E+10	1	-1E+10	1	-1E+10	1	-1E+10	1
4901784	119	C	10/07/2018	10:43	-132.535	43.012	0	1715.30	0	2.1750	0	34.7820	8	27.792	0	1694.724	0	42.8	4	13.0	4	-1E+10	1	-1E+10	1	-1E+10	1	-1E+10	1	-1E+10	1	-1E+10	1
4901784	119	C	10/07/2018	10:43	-132.535	43.012	0	1720.20	0	2.1660	0	34.7830	8	27.794	0	1699.546	0	43.1	4	13.1	4	-1E+10	1	-1E+10	1	-1E+10	1	-1E+10	1	-1E+10	1	-1E+10	1
4901784	119	C	10/07/2018	10:43	-132.535	43.012	0	1725.00	0	2.1600	0	34.7830	8	27.794	0	1704.269	0	43.3	4	13.1	4	-1E+10	1	-1E+10	1	-1E+10	1	-1E+10	1	-1E+10	1	-1E+10	1
4901784	119	C	10/07/2018	10:43	-132.535	43.012	0	1729.90	0	2.1560	0	34.7840	8	27.796	0	1709.091	0	43.5	4	13.2	4	-1E+10	1	-1E+10	1	-1E+10	1	-1E+10	1	-1E+10	1	-1E+10	1
4901784	119	C	10/07/2018	10:43	-132.535	43.012	0	1734.80	0	2.1520	0	34.7840	8	27.796	0	1713.912	0	43.9	4	13.3	4	-1E+10	1	-1E+10	1	-1E+10	1	-1E+10	1	-1E+10	1	-1E+10	1
4901784	119	C	10/07/2018	10:43	-132.535	43.012	0	1739.80	0	2.1420	0	34.7860	8	27.798	0	1718.831	0	44.3	4	13.4	4	-1E+10	1	-1E+10	1	-1E+10	1	-1E+10	1	-1E+10	1	-1E+10	1
4901784	119	C	10/07/2018	10:43	-132.535	43.012	0	1744.70	0	2.1360	0	34.7860	8	27.799	0	1723.652	0	44.6	4	13.5	4	-1E+10	1	-1E+10	1	-1E+10	1	-1E+10	1	-1E+10	1	-1E+10	1
4901784	119	C	10/07/2018	10:43	-132.535	43.012	0	1749.70	0	2.1260	0	34.7870	8	27.800	0	1728.572	0	44.9	4	13.6	4	-1E+10	1	-1E+10	1	-1E+10	1	-1E+10	1	-1E+10	1	-1E+10	1
4901784	119	C	10/07/2018	10:43	-132.535	43.012	0	1754.70	0	2.1220	0	34.7880	8	27.802	0	1733.491	0	45.2	4	13.7	4	-1E+10	1	-1E+10	1	-1E+10	1	-1E+10	1	-1E+10	1	-1E+10	1
4901784	119	C	10/07/2018	10:43	-132.535	43.012	0	1759.70	0	2.1180	0	34.7880	8	27.802	0	1738.410	0	45.5	4	13.8	4	-1E+10	1	-1E+10	1	-1E+10	1	-1E+10	1	-1E+10	1	-1E+10	1
4901784	119	C	10/07/2018	10:43	-132.535	43.012	0	1764.80	0	2.1120	0	34.7900	8	27.804	0	1743.427	0	45.9	4	13.9	4	-1E+10	1	-1E+10	1	-1E+10	1	-1E+10	1	-1E+10	1	-1E+10	1
4901784	119	C	10/07/2018	10:43	-132.535	43.012	0	1769.80	0	2.1050	0	34.7910	8	27.805	0	1748.346	0	46.2	4	14.0	4	-1E+10	1	-1E+10	1	-1E+10	1	-1E+10	1	-1E+10	1	-1E+10	1
4901784	119	C	10/07/2018	10:43	-132.535	43.012	0	1774.80	0	2.0990	0	34.7910	8	27.806	0	1753.265	0	46.4	4	14.1	4	-1E+10	1	-1E+10	1	-1E+10	1	-1E+10	1	-1E+10	1	-1E+10	1
4901784	119	C	10/07/2018	10:43	-132.535	43.012	0	1779.90	0	2.0980	0	34.7910	8	27.806	0	1758.282	0	46.7	4	14.1	4	-1E+10	1	-1E+10	1	-1E+10	1	-1E+10	1	-1E+10	1	-1E+10	1
4901784	119	C	10/07/2018	10:43	-132.535	43.012	0	1785.10	0	2.0920	0	34.7920	8	27.807	0	1763.397	0	47.0	4	14.2	4	-1E+10	1	-1E+10	1	-1E+10	1	-1E+10	1	-1E+10	1	-1E+10	1
4901784	119	C	10/07/2018	10:43	-132.535	43.012	0	1790.20	0	2.0860	0	34.7930	8	27.809	0	1768.414	0	47.2	4	14.3	4	-1E+10	1	-1E+10	1	-1E+10	1	-1E+10	1	-1E+10	1	-1E+10	1
4901784	119	C	10/07/2018	10:43	-132.535	43.012	0	1795.30	0	2.0820	0	34.7940	8	27.810	0	1773.431	0	47.4	4	14.3	4	-1E+10	1	-1E+10	1	-1E+10	1	-1E+10	1	-1E+10	1	-1E+10	1
4901784	119	C	10/07/2018	10:43	-132.535	43.012	0	1800.50	0	2.0810	0	34.7940	8	27.810	0	1778.546	0	47.6	4	14.4	4	-1E+10	1	-1E+10	1	-1E+10	1	-1E+10	1	-1E+10	1	-1E+10	1
4901784	119	C	10/07/2018	10:43	-132.535	43.012	0	1805.70	0	2.0780	0	34.7940	8	27.810	0	1783.660	0	47.8	4	14.5	4	-1E+10	1	-1E+10	1	-1E+10	1	-1E+10	1	-1E+10	1	-1E+10	1
4901784	119	C	10/07/2018	10:43	-132.535	43.012	0	1810.00	0	2.0760	0	34.7950	8	27.811	0	1787.890	0	48.1	4	14.5	4	-1E+10	1	-1E+10	1	-1E+10	1	-1E+10	1	-1E+10	1	-1E+10	1
4901784	119	C	10/07/2018	10:43	-132.535	43.012	0	1814.40	0	2.0730	0	34.7950	8	27.811	0	1792.218	0	48.4	4	14.6	4	-1E+10	1	-1E+10	1	-1E+10	1	-1E+10	1	-1E+10	1	-1E+10	1
4901784	119	C	10/07/2018	10:43	-132.535	43.012	0	1819.60	0	2.0690	0	34.7960	8	27.813	0	1797.332	0	48.8	4	14.7	4	-1E+10	1	-1E+10	1	-1E+10	1	-1E+10	1	-1E+10	1	-1E+10	1
4901784	119	C	10/07/2018	10:43	-132.535	43.012	0	1824.80	0	2.0580	0	34.7970	8	27.814	0	1802.446	0	49.3	4	14.9	4	-1E+10	1	-1E+10	1	-1E+10	1	-1E+10	1	-1E+10	1	-1E+10	1
4901784	119	C	10/07/2018	10:43	-132.535	43.012	0	1830.10	0	2.0490	0	34.7980	8	27.816	0	1807.659	0	49.8	4	15.1	4	-1E+10	1	-1E+10	1	-1E+10	1	-1E+10	1	-1E+10	1	-1E+10	1
4901784	119	C	10/07/2018	10:43	-132.535	43.012	0	1835.40	0	2.0440	0	34.8000	8	27.818	0	1812.871	0	50.1	4	15.1	4	-1E+10	1	-1E+10	1	-1E+10	1	-1E+10	1	-1E+10	1	-1E+10	1
4901784	119	C	10/07/2018	10:43	-132.535	43.012	0	1839.90	0	2.0410	0	34.8000	8	27.818	0	1817.297	0	50.3	4	15.2	4	-1E+10	1	-1E+10	1	-1E+10	1	-1E+10	1	-1E+10	1	-1E+10	1
4901784	119	C	10/07/2018	10:43	-132.535	43.012	0	1844.40	0	2.0400	0	34.8000	8	27.818	0	1821.722	0	50.4	4	15.2	4	-1E+10	1	-1E+10	1	-1E+10	1	-1E+10	1	-1E+10	1	-1E+10	1
4901784	119	C	10/07/2018	10:43	-132.535	43.012	0	1849.70	0	2.0360	0	34.8010	8	27.819	0	1826.934	0	50.7	4	15.3	4	-1E+10	1	-1E+10	1	-1E+10	1	-1E+10	1	-1E+10	1	-1E+10	1
4901784	119	C	10/07/2018	10:43	-132.535	43.012	0	1855.00	0	2.0340	0	34.8020	8	27.820	0	1832.146	0	50.8	4	15.4	4	-1E+10	1	-1E+10	1	-1E+10	1	-1E+10	1	-1E+10	1	-1E+10	1
4901784	119	C	10/07/2018	10:43	-132.535	43.012	0	1860.30	0	2.0340	0	34.8010	8	27.820	0	1837.358	0	51.1	4	15.4	4	-1E+10	1	-1E+10	1	-1E+10	1	-1E+10	1	-1E+10	1	-1E+10	1
4901784	119	C	10/07/2018	10:43	-132.535	43.012	0	1865.70	0	2.0310	0	34.8020	8	27.821	0	1842.668	0	51.5	4	15.6	4	-1E+10	1	-1E+10	1	-1E+10	1	-1E+10	1	-1E+10	1	-1E+10	1
4901784	119	C	10/07/2018	10:43	-132.535	43.012	0	1870.20	0	2.0240	0	34.8030	8	27.822	0	1847.093	0	51.8	4	15.7	4	-1E+10	1	-1E+10	1	-1E+10	1	-1E+10	1	-1E+10	1	-1E+10	1
4901784	119	C	10/07/2018	10:43	-132.535	43.012	0	1874.70	0	2.0220	0	34.8040	8	27.823	0	1851.518	0	52.0	4	15.7	4	-1E+10	1	-1E+10	1	-1E+10	1	-1E+10	1	-1E+10	1	-1E+10	1
4901784	119	C	10/07/2018	10:43	-132.535	43.012	0	1880.20	0	2.0180	0	34.8040	8	27.823	0	1856.926	0	52.3	4	15.8	4	-1E+10	1	-1E+10	1	-1E+10	1	-1E+10	1	-1E+10	1	-1E+10	1
4901784	119	C	10/07/2018	10:43	-132.535	43.012	0	1885.60	0	2.0150	0	34.8050	8	27.824	0	1862.235	0	52.7	4	15.9	4	-1E+10	1	-1E+10	1	-1E+10	1	-1E+10	1	-1E+10	1	-1E+10	1
4901784	119	C	10/07/2018	10:43	-132.535	43.012	0	1890.10	0	2.0120	0	34.8060	8	27.825	0	1866.660	0	53.0	4	16.0	4	-1E+10	1	-1E+10	1	-1E+10	1	-1E+10	1	-1E+10	1	-1E+10	1
4901784	119	C	10/07/2018	10:43	-132.535	43.012	0	1894.70	0	2.0120	0	34.8060	8	27.826	0	1871.183	0	53.2	4	16.1	4	-1E+10	1	-1E+10	1	-1E+10	1	-1E+10	1	-1E+10	1	-1E+10	1
4901784	119	C	10/07/2018	10:43	-132.535	43.012	0	1900.10	0	2.0090	0	34.8070	8	27.827	0	1876.492	0	53.7	4	16.2	4	-1E+10	1	-1E+10	1	-1E+10	1	-1E+10	1	-1E+10	1	-1E+10	1
4901784	119	C	10/07/2018	10:43	-132.535	43.012	0	1905.50	0	2.0010	0	34.8080	8	27.828	0	1881.801	0	54.3	4	16.4	4	-1E+10	1	-1E+10	1	-1E+10	1	-1E+10	1	-1E+10	1	-1E+10	1
4901784	119	C	10/07/2018	10:43	-132.535	43.012	0	1910.00	0	1.9910	0	34.8090	8	27.830	0	1886.225	0	54.7	4	16.5	4	-1E+10	1	-1E+10	1	-1E+10	1	-1E+10	1	-1E+10	1	-1E+10	1
4901784	119	C	10/07/2018	10:43	-132.535	43.012	0	1914.60	0	1.9840	0	34.8100	8	27.831	0	1890.747	0	55.1	4	16.6	4	-1E+10	1	-1E+10	1	-1E+10	1	-1E+10	1	-1E+10	1	-1E+10	1
4901784	119	C	10/07/2018	10:43	-132.535	43.012	0	1920.10	0	1.9800	0	34.8110	8	27.832	0	1896.154	0	55.5	4	16.7	4	-1E+10	1	-1E+10	1	-1E+10	1	-1E+10	1	-1E+10	1	-1E+10	1
4901784	119	C	10/07/2018	10:43	-132.535	43.012	0	1925.30	0	1.9750	0	34.8120	8	27.833	0	1901.266	0	55.8	4	16.8	4	-1E+10	1	-1E+10	1	-1E+10	1	-1E+10	1	-1E+10	1	-1E+10	1
4901784	119	C	10/07/2018	10:43	-132.535	43.012	0	1929.50	0	1.9710	0	34.8130	8	27.834	0	1905.395	0	56.1	4	16.9	4	-1E+10	1	-1E+10	1	-1E+10	1	-1E+10	1	-1E+10	1	-1E+10	1
4901784	119	C	10/07/2018	10:43	-132.535	43.012	0	1934.30	0	1.9680	0	34.8130	8	27.835	0	1910.114	0	56.4	4	17.0	4	-1E+10	1	-1E+10	1	-1E+10	1	-1E+10	1	-1E+10	1	-1E+10	1
4901784	119	C	10/07/2018	10:43	-132.535	43.012	0	1939.90	0	1.9640	0	34.8140	8	27.836	0	1915.618	0	56.8	4	17.1	4	-1E+10	1	-1E+10	1	-1E+10	1	-1E+10	1	-1E+10	1	-1E+10	1
4901784	119	C	10/07/2018	10:43	-132.535	43.012	0	1945.50	0	1.9590	0	34.8140	8	27.836	0	1921.123	0	57.1	4	17.2	4	-1E+10	1	-1E+10	1	-1E+10	1	-1E+10	1	-1E+10	1	-1E+10	1
4901784	119	C	10/07/2018	10:43	-132.535	43.012	0	1950.40	0	1.9560	0	34.8150	8	27.837	0	1925.939	0	57.4	4	17.3	4	-1E+10	1	-1E+10	1	-1E+10	1	-1E+10	1	-1E+10	1	-1E+10	1
4901784	119	C	10/07/2018	10:43	-132.535	43.012	0	1955.30	0	1.9480	0	34.8160	8	27.839	0	1930.756	0	57.9	4	17.5	4	-1E+10	1	-1E+10	1	-1E+10	1	-1E+10	1	-1E+10	1	-1E+10	1
4901784	119	C	10/07/2018	10:43	-132.535	43.012	0	1960.30	0	1.9440	0	34.8170	8	27.840	0	1935.670	0	58.1	4	17.5	4	-1E+10	1	-1E+10	1	-1E+10	1	-1E+10	1	-1E+10	1	-1E+10	1
4901784	119	C	10/07/2018	10:43	-132.535	43.012	0	1965.30	0	1.9420	0	34.8170	8	27.840	0	1940.585	0	58.3	4	17.6	4	-1E+10	1	-1E+10	1	-1E+10	1	-1E+10	1	-1E+10	1	-1E+10	1
4901784	119	C	10/07/2018	10:43	-132.535	43.012	0	1970.30	0	1.9390	0	34.8180	8	27.841	0	1945.499	0	58.7	4	17.7	4	-1E+10	1	-1E+10	1	-1E+10	1	-1E+10	1	-1E+10	1	-1E+10	1
4901784	119	C	10/07/2018	10:43	-132.535	43.012	0	1975.30	0	1.9330	0	34.8190	8	27.842	0	1950.413	0	59.0	4	17.8	4	-1E+10	1	-1E+10	1	-1E+10	1	-1E+10	1	-1E+10	1	-1E+10	1
4901784	119	C	10/07/2018	10:43	-132.535	43.012	0	1980.30	0	1.9320	0	34.8190	8	27.843	0	1955.327	0	59.3	4	17.9	4	-1E+10	1	-1E+10	1	-1E+10	1	-1E+10	1	-1E+10	1	-1E+10	1
4901784	119	C	10/07/2018	10:43	-132.535	43.012	0	1985.30	0	1.9280	0	34.8200	8	27.844	0	1960.241	0	59.7	4	18.0	4	-1E+10	1	-1E+10	1	-1E+10	1	-1E+10	1	-1E+10	1	-1E+10	1
4901784	119	C	10/07/2018	10:43	-132.535	43.012	0	1990.40	0	1.9240	0	34.8210	8	27.845	0	1965.253	0	60.0	4	18.1	4	-1E+10	1	-1E+10	1	-1E+10	1	-1E+10	1	-1E+10	1	-1E+10	1
4901784	119	C	10/07/2018	10:43	-132.535	43.012	0	1995.40	0	1.9200	0	34.8210	8	27.845	0	1970.167	0	60.3	4	18.2	4	-1E+10	1	-1E+10	1	-1E+10	1	-1E+10	1	-1E+10	1	-1E+10	1
4901784	119	C	10/07/2018	10:43	-132.535	43.012	0	2000.50	0	1.9160	0	34.8220	8	27.846	0	1975.179	0	60.6	4	18.3	4	-1E+10	1	-1E+10	1	-1E+10	1	-1E+10	1	-1E+10	1	-1E+10	1
4901784	119	C	10/07/2018	10:43	-132.535	43.012	0	2005.60	0	1.9130	0	34.8220	8	27.847	0	1980.191	0	60.9	4	18.3	4	-1E+10	1	-1E+10	1	-1E+10	1	-1E+10	1	-1E+10	1	-1E+10	1
4901784	119	C	10/07/2018	10:43	-132.535	43.012	0	2010.70	0	1.9080	0	34.8230	8	27.848	0	1985.202	0	61.2	4	18.4	4	-1E+10	1	-1E+10	1	-1E+10	1	-1E+10	1	-1E+10	1	-1E+10	1
4901784	119	C	10/07/2018	10:43	-132.535	43.012	0	2015.50	0	1.9050	0	34.8240	8	27.849	0	1989.919	0	61.3	4	18.5	4	-1E+10	1	-1E+10	1	-1E+10	1	-1E+10	1	-1E+10	1	-1E+10	1
4901784	119	C	10/07/2018	10:43	-132.535	43.012	0	2020.10	0	1.9040	0	34.8240	8	27.849	0	1994.439	0	61.3	4	18.5	4	-1E+10	1	-1E+10	1	-1E+10	1	-1E+10	1	-1E+10	1	-1E+10	1
4901784	119	C	10/07/2018	10:43	-132.535	43.012	0																										
4901784	120	C	10/17/2018	10:46	-132.855	43.028	0	2.80	0	17.2130	0	33.0990	8	24.007	0	2.778	0	232.8	4	96.8	4	-1E+10	1	-1E+10	1	-1E+10	1	-1E+10	1	-1E+10	1	-1E+10	1
4901784	120	C	10/17/2018	10:46	-132.855	43.028	0	4.70	0	17.2160	0	33.0980	8	24.005	0	4.663	0	232.6	4	96.7	4	-1E+10	1	-1E+10	1	-1E+10	1	-1E+10	1	-1E+10	1	-1E+10	1
4901784	120	C	10/17/2018	10:46	-132.855	43.028	0	6.60	0	17.2150	0	33.0980	8	24.005	0	6.548	0	232.4	4	96.6	4	-1E+10	1	-1E+10	1	-1E+10	1	-1E+10	1	-1E+10	1	-1E+10	1
4901784	120	C	10/17/2018	10:46	-132.855	43.028	0	8.50	0	17.2150	0	33.0980	8	24.006	0	8.432	0	232.4	4	96.6	4	-1E+10	1	-1E+10	1	-1E+10	1	-1E+10	1	-1E+10	1	-1E+10	1
4901784	120	C	10/17/2018	10:46	-132.855	43.028	0	10.40	0	17.2140	0	33.0980	8	24.006	0	10.317	0	232.3	4	96.6	4	-1E+10	1	-1E+10	1	-1E+10	1	-1E+10	1	-1E+10	1	-1E+10	1
4901784	120	C	10/17/2018	10:46	-132.855	43.028	0	12.30	0	17.2150	0	33.0980	8	24.006	0	12.202	0	232.2	4	96.5	4	-1E+10	1	-1E+10	1	-1E+10	1	-1E+10	1	-1E+10	1	-1E+10	1
4901784	120	C	10/17/2018	10:46	-132.855	43.028	0	14.30	0	17.2150	0	33.0970	8	24.005	0	14.186	0	232.0	4	96.4	4	-1E+10	1	-1E+10	1	-1E+10	1	-1E+10	1	-1E+10	1	-1E+10	1
4901784	120	C	10/17/2018	10:46	-132.855	43.028	0	16.20	0	17.2160	0	33.0970	8	24.005	0	16.071	0	231.8	4	96.4	4	-1E+10	1	-1E+10	1	-1E+10	1	-1E+10	1	-1E+10	1	-1E+10	1
4901784	120	C	10/17/2018	10:46	-132.855	43.028	0	18.10	0	17.2150	0	33.0970	8	24.005	0	17.956	0	231.7	4	96.3	4	-1E+10	1	-1E+10	1	-1E+10	1	-1E+10	1	-1E+10	1	-1E+10	1
4901784	120	C	10/17/2018	10:46	-132.855	43.028	0	20.00	0	17.2150	0	33.0970	8	24.005	0	19.840	0	231.5	4	96.3	4	-1E+10	1	-1E+10	1	-1E+10	1	-1E+10	1	-1E+10	1	-1E+10	1
4901784	120	C	10/17/2018	10:46	-132.855	43.028	0	22.00	0	17.2160	0	33.0960	8	24.004	0	21.824	0	231.5	4	96.3	4	-1E+10	1	-1E+10	1	-1E+10	1	-1E+10	1	-1E+10	1	-1E+10	1
4901784	120	C	10/17/2018	10:46	-132.855	43.028	0	24.00	0	17.2170	0	33.0960	8	24.004	0	23.808	0	231.3	4	96.1	4	-1E+10	1	-1E+10	1	-1E+10	1	-1E+10	1	-1E+10	1	-1E+10	1
4901784	120	C	10/17/2018	10:46	-132.855	43.028	0	26.00	0	17.2160	0	33.0960	8	24.004	0	25.792	0	231.2	4	96.1	4	-1E+10	1	-1E+10	1	-1E+10	1	-1E+10	1	-1E+10	1	-1E+10	1
4901784	120	C	10/17/2018	10:46	-132.855	43.028	0	27.90	0	17.2170	0	33.0950	8	24.004	0	27.677	0	231.1	4	96.1	4	-1E+10	1	-1E+10	1	-1E+10	1	-1E+10	1	-1E+10	1	-1E+10	1
4901784	120	C	10/17/2018	10:46	-132.855	43.028	0	30.10	0	17.2120	0	33.0950	8	24.005	0	29.859	0	231.0	4	96.0	4	-1E+10	1	-1E+10	1	-1E+10	1	-1E+10	1	-1E+10	1	-1E+10	1
4901784	120	C	10/17/2018	10:46	-132.855	43.028	0	30.60	0	17.2120	0	33.0950	8	24.005	0	30.355	0	231.2	4	96.1	4	-1E+10	1	-1E+10	1	-1E+10	1	-1E+10	1	-1E+10	1	-1E+10	1
4901784	120	C	10/17/2018	10:46	-132.855	43.028	0	32.40	0	17.2110	0	33.0940	8	24.004	0	32.140	0	231.2	4	96.1	4	-1E+10	1	-1E+10	1	-1E+10	1	-1E+10	1	-1E+10	1	-1E+10	1
4901784	120	C	10/17/2018	10:46	-132.855	43.028	0	34.00	0	17.1990	0	33.0950	8	24.008	0	33.727	0	231.7	4	96.3	4	-1E+10	1	-1E+10	1	-1E+10	1	-1E+10	1	-1E+10	1	-1E+10	1
4901784	120	C	10/17/2018	10:46	-132.855	43.028	0	35.50	0	17.1960	0	33.0930	8	24.007	0	35.215	0	232.1	4	96.5	4	-1E+10	1	-1E+10	1	-1E+10	1	-1E+10	1	-1E+10	1	-1E+10	1
4901784	120	C	10/17/2018	10:46	-132.855	43.028	0	37.00	0	17.1950	0	33.0890	8	24.004	0	36.703	0	233.1	4	96.9	4	-1E+10	1	-1E+10	1	-1E+10	1	-1E+10	1	-1E+10	1	-1E+10	1
4901784	120	C	10/17/2018	10:46	-132.855	43.028	0	38.50	0	17.1940	0	33.0840	8	24.001	0	38.191	0	234.4	4	97.4	4	-1E+10	1	-1E+10	1	-1E+10	1	-1E+10	1	-1E+10	1	-1E+10	1
4901784	120	C	10/17/2018	10:46	-132.855	43.028	0	39.90	0	17.1870	0	33.0750	8	23.996	0	39.579	0	236.7	4	98.3	4	-1E+10	1	-1E+10	1	-1E+10	1	-1E+10	1	-1E+10	1	-1E+10	1
4901784	120	C	10/17/2018	10:46	-132.855	43.028	0	41.40	0	17.1630	0	33.0570	8	23.988	0	41.067	0	240.1	4	99.7	4	-1E+10	1	-1E+10	1	-1E+10	1	-1E+10	1	-1E+10	1	-1E+10	1
4901784	120	C	10/17/2018	10:46	-132.855	43.028	0	42.80	0	16.8890	0	33.0530	8	24.049	0	42.456	0	245.3	4	101.3	4	-1E+10	1	-1E+10	1	-1E+10	1	-1E+10	1	-1E+10	1	-1E+10	1
4901784	120	C	10/17/2018	10:46	-132.855	43.028	0	44.20	0	16.3500	0	33.0100	8	24.140	0	43.844	0	252.5	4	103.2	4	-1E+10	1	-1E+10	1	-1E+10	1	-1E+10	1	-1E+10	1	-1E+10	1
4901784	120	C	10/17/2018	10:46	-132.855	43.028	0	45.70	0	15.8860	0	32.9830	8	24.225	0	45.332	0	258.7	4	104.8	4	-1E+10	1	-1E+10	1	-1E+10	1	-1E+10	1	-1E+10	1	-1E+10	1
4901784	120	C	10/17/2018	10:46	-132.855	43.028	0	47.40	0	14.5770	0	32.9430	8	24.479	0	47.018	0	267.5	4	105.5	4	-1E+10	1	-1E+10	1	-1E+10	1	-1E+10	1	-1E+10	1	-1E+10	1
4901784	120	C	10/17/2018	10:46	-132.855	43.028	0	49.40	0	13.5980	0	32.9230	8	24.667	0	49.002	0	275.1	4	106.4	4	-1E+10	1	-1E+10	1	-1E+10	1	-1E+10	1	-1E+10	1	-1E+10	1
4901784	120	C	10/17/2018	10:46	-132.855	43.028	0	49.90	0	13.4490	0	32.8990	8	24.678	0	49.498	0	276.5	4	106.6	4	-1E+10	1	-1E+10	1	-1E+10	1	-1E+10	1	-1E+10	1	-1E+10	1
4901784	120	C	10/17/2018	10:46	-132.855	43.028	0	51.40	0	12.9270	0	32.8760	8	24.764	0	50.986	0	279.2	4	106.5	4	-1E+10	1	-1E+10	1	-1E+10	1	-1E+10	1	-1E+10	1	-1E+10	1
4901784	120	C	10/17/2018	10:46	-132.855	43.028	0	52.80	0	12.3690	0	32.8750	8	24.871	0	52.374	0	281.3	4	106.1	4	-1E+10	1	-1E+10	1	-1E+10	1	-1E+10	1	-1E+10	1	-1E+10	1
4901784	120	C	10/17/2018	10:46	-132.855	43.028	0	54.20	0	11.7130	0	32.8830	8	25.000	0	53.763	0	282.5	4	105.1	4	-1E+10	1	-1E+10	1	-1E+10	1	-1E+10	1	-1E+10	1	-1E+10	1
4901784	120	C	10/17/2018	10:46	-132.855	43.028	0	55.80	0	11.4450	0	32.8980	8	25.061	0	55.350	0	282.9	4	104.7	4	-1E+10	1	-1E+10	1	-1E+10	1	-1E+10	1	-1E+10	1	-1E+10	1
4901784	120	C	10/17/2018	10:46	-132.855	43.028	0	57.40	0	11.1160	0	32.8940	8	25.117	0	56.936	0	282.8	4	103.9	4	-1E+10	1	-1E+10	1	-1E+10	1	-1E+10	1	-1E+10	1	-1E+10	1
4901784	120	C	10/17/2018	10:46	-132.855	43.028	0	58.90	0	11.0140	0	32.8870	8	25.130	0	58.424	0	281.4	4	103.2	4	-1E+10	1	-1E+10	1	-1E+10	1	-1E+10	1	-1E+10	1	-1E+10	1
4901784	120	C	10/17/2018	10:46	-132.855	43.028	0	60.50	0	10.7570	0	32.8920	8	25.179	0	60.011	0	280.3	4	102.2	4	-1E+10	1	-1E+10	1	-1E+10	1	-1E+10	1	-1E+10	1	-1E+10	1
4901784	120	C	10/17/2018	10:46	-132.855	43.028	0	62.10	0	10.6820	0	32.9090	8	25.205	0	61.598	0	278.8	4	101.5	4	-1E+10	1	-1E+10	1	-1E+10	1	-1E+10	1	-1E+10	1	-1E+10	1
4901784	120	C	10/17/2018	10:46	-132.855	43.028	0	63.80	0	10.6250	0	32.9020	8	25.210	0	63.284	0	277.5	4	100.9	4	-1E+10	1	-1E+10	1	-1E+10	1	-1E+10	1	-1E+10	1	-1E+10	1
4901784	120	C	10/17/2018	10:46	-132.855	43.028	0	65.50	0	10.5780	0	32.9080	8	25.222	0	64.970	0	276.0	4	100.2	4	-1E+10	1	-1E+10	1	-1E+10	1	-1E+10	1	-1E+10	1	-1E+10	1
4901784	120	C	10/17/2018	10:46	-132.855	43.028	0	67.20	0	10.4870	0	32.9060	8	25.236	0	66.656	0	274.9	4	99.7	4	-1E+10	1	-1E+10	1	-1E+10	1	-1E+10	1	-1E+10	1	-1E+10	1
4901784	120	C	10/17/2018	10:46	-132.855	43.028	0	68.80	0	10.3990	0	32.9110	8	25.255	0	68.243	0	273.7	4	99.0	4	-1E+10	1	-1E+10	1	-1E+10	1	-1E+10	1	-1E+10	1	-1E+10	1
4901784	120	C	10/17/2018	10:46	-132.855	43.028	0	70.50	0	10.3430	0	32.9150	8	25.268	0	69.928	0	272.6	4	98.5	4	-1E+10	1	-1E+10	1	-1E+10	1	-1E+10	1	-1E+10	1	-1E+10	1
4901784	120	C	10/17/2018	10:46	-132.855	43.028	0	72.20	0	10.3020	0	32.9170	8	25.277	0	71.614	0	271.5	4	98.0	4	-1E+10	1	-1E+10	1	-1E+10	1	-1E+10	1	-1E+10	1	-1E+10	1
4901784	120	C	10/17/2018	10:46	-132.855	43.028	0	74.00	0	10.2160	0	32.9230	8	25.296	0	73.400	0	270.3	4	97.4	4	-1E+10	1	-1E+10	1	-1E+10	1	-1E+10	1	-1E+10	1	-1E+10	1
4901784	120	C	10/17/2018	10:46	-132.855	43.028	0	75.80	0	10.1480	0	32.9200	8	25.305	0	75.185	0	269.1	4	96.9	4	-1E+10	1	-1E+10	1	-1E+10	1	-1E+10	1	-1E+10	1	-1E+10	1
4901784	120	C	10/17/2018	10:46	-132.855	43.028	0	77.50	0	10.0940	0	32.9200	8	25.314	0	76.870	0	268.5	4	96.5	4	-1E+10	1	-1E+10	1	-1E+10	1	-1E+10	1	-1E+10	1	-1E+10	1
4901784	120	C	10/17/2018	10:46	-132.855	43.028	0	79.40	0	10.0960	0	32.9190	8	25.313	0	78.755	0	267.5	4	96.2	4	-1E+10	1	-1E+10	1	-1E+10	1	-1E+10	1	-1E+10	1	-1E+10	1
4901784	120	C	10/17/2018	10:46	-132.855	43.028	0	81.10	0	10.0280	0	32.9150	8	25.321	0	80.440	0	267.1	4	95.9	4	-1E+10	1	-1E+10	1	-1E+10	1	-1E+10	1	-1E+10	1	-1E+10	1
4901784	120	C	10/17/2018	10:46	-132.855	43.028	0	83.00	0	9.9960	0	32.9180	8	25.329	0	82.325	0	266.2	4	95.5	4	-1E+10	1	-1E+10	1	-1E+10	1	-1E+10	1	-1E+10	1	-1E+10	1
4901784	120	C	10/17/2018	10:46	-132.855	43.028	0	84.70	0	9.9680	0	32.9190	8	25.335	0	84.010	0	265.6	4	95.2	4	-1E+10	1	-1E+10	1	-1E+10	1	-1E+10	1	-1E+10	1	-1E+10	1
4901784	120	C	10/17/2018	10:46	-132.855	43.028	0	86.60	0	9.9590	0	32.9180	8	25.335	0	85.895	0	264.1	4	94.7	4	-1E+10	1	-1E+10	1	-1E+10	1	-1E+10	1	-1E+10	1	-1E+10	1
4901784	120	C	10/17/2018	10:46	-132.855	43.028	0	88.40	0	9.9480	0	32.9190	8	25.338	0	87.680	0	262.9	4	94.2	4	-1E+10	1	-1E+10	1	-1E+10	1	-1E+10	1	-1E+10	1	-1E+10	1
4901784	120	C	10/17/2018	10:46	-132.855	43.028	0	90.30	0	9.9350	0	32.9200	8	25.341	0	89.564	0	261.2	4	93.6	4	-1E+10	1	-1E+10	1	-1E+10	1	-1E+10	1	-1E+10	1	-1E+10	1
4901784	120	C	10/17/2018	10:46	-132.855	43.028	0	92.10	0	9.9030	0	32.9270	8	25.352	0	91.349	0	259.2	4	92.8	4	-1E+10	1	-1E+10	1	-1E+10	1	-1E+10	1	-1E+10	1	-1E+10	1
4901784	120	C	10/17/2018	10:46	-132.855	43.028	0	93.80	0	9.8720	0	32.9260	8	25.356	0	93.034	0	258.1	4	92.3	4	-1E+10	1	-1E+10	1	-1E+10	1	-1E+10	1	-1E+10	1	-1E+10	1
4901784	120	C	10/17/2018	10:46	-132.855	43.028	0	95.70	0	9.8210	0	32.9230	8	25.362	0	94.918	0	256.9	4	91.8	4	-1E+10	1	-1E+10	1	-1E+10	1	-1E+10	1	-1E+10	1	-1E+10	1
4901784	120	C	10/17/2018	10:46	-132.855	43.028	0	97.40	0	9.7430	0	32.9220	8	25.374	0	96.604	0	256.2	4	91.4	4	-1E+10	1	-1E+10	1	-1E+10	1	-1E+10	1	-1E+10	1	-1E+10	1
4901784	120	C	10/17/2018	10:46	-132.855	43.028	0	99.30	0	9.6690	0	32.9280	8	25.391	0	98.488	0	255.1	4	90.9	4	-1E+10	1	-1E+10	1	-1E+10	1	-1E+10	1	-1E+10	1	-1E+10	1
4901784	120	C	10/17/2018	10:46	-132.855	43.028	0	102.80	0	9.6170	0	32.9270	8	25.399	0	101.959	0	253.8	4	90.3	4	-1E+10	1	-1E+10	1	-1E+10	1	-1E+10	1	-1E+10	1	-1E+10	1
4901784	120	C	10/17/2018	10:46	-132.855	43.028	0	104.60	0	9.6080	0	32.9280	8	25.401	0	103.743	0	252.9	4	90.0	4	-1E+10	1	-1E+10	1	-1E+10	1	-1E+10	1	-1E+10	1	-1E+10	1
4901784	120	C	10/17/2018	10:46	-132.855	43.028	0	107.30	0	9.5440	0	32.9330	8	25.415	0	106.421	0	251.7	4	89.4	4	-1E+10	1	-1E+10	1	-1E+10	1	-1E+10	1	-1E+10	1	-1E+10	1
4901784	120	C	10/17/2018	10:46	-132.855	43.028	0	110.00	0	9.5170	0	32.9360	8	25.422	0	109.098	0	250.3	4	88.9	4	-1E+10	1	-1E+10	1	-1E+10	1	-1E+10	1	-1E+10	1	-1E+10	1
4901784	120	C	10/17/2018	10:46	-132.855	43.028	0	112.60	0	9.4920	0	32.9490	8	25.436	0	111.676	0	248.5	4	88.2	4	-1E+10	1	-1E+10	1	-1E+10	1	-1E+10	1	-1E+10	1	-1E+10	1
4901784	120	C	10/17/2018	10:46	-132.855	43.028	0	115.10	0	9.4020	0	32.9590	8	25.459	0	114.155	0	247.0	4	87.5	4	-1E+10	1	-1E+10	1	-1E+10	1	-1E+10	1	-1E+10	1	-1E+10	1
4901784	120	C	10/17/2018	10:46	-132.855	43.028	0	117.50	0	9.3000	0	32.9650	8	25.480	0	116.534	0	244.9	4	86.6	4	-1E+10	1	-1E+10	1	-1E+10	1	-1E+10	1	-1E+10	1	-1E+10	1
4901784	120	C	10/17/2018	10:46	-132.855	43.028	0	119.80	0	9.0880	0	32.9890	8	25.532	0	118.815	0	243.4	4	85.7	4	-1E+10	1	-1E+10	1	-1E+10	1	-1E+10	1	-1E+10	1	-1E+10	1
4901784	120	C	10/17/2018	10:46	-132.855	43.028	0	122.40	0	8.8660	0	33.0280	8	25.597	0	121.393	0	241.9	4	84.7	4	-1E+10	1	-1E+10	1	-1E+10	1	-1E+10	1	-1E+10	1	-1E+10	1
4901784	120	C	10/17/2018	10:46	-132.855	43.028	0	124.90	0	8.7450	0	33.0590	8	25.640	0	123.871	0	240.0	4	83.9	4	-1E+10	1	-1E+10	1	-1E+10	1	-1E+10	1	-1E+10	1	-1E+10	1
4901784	120	C	10/17/2018	10:46	-132.855	43.028	0	127.00	0	8.4760	0	33.0960	8	25.710	0	125.953	0	238.7	4	82.9	4	-1E+10	1	-1E+10	1	-1E+10	1	-1E+10	1	-1E+10	1	-1E+10	1
4901784	120	C	10/17/2018	10:46	-132.855	43.028	0	130.40	0	8.1890	0	33.2010	8	25.836	0	129.324	0	235.6	4	81.4	4	-1E+10	1	-1E+10	1	-1E+10	1	-1E+10	1	-1E+10	1	-1E+10	1
4901784	120	C	10/17/2018	10:46	-132.855	43.028	0	133.10	0	7.9870	0	33.2610	8	25.912	0	132.001	0	233.4	4	80.3	4	-1E+10	1	-1E+10	1	-1E+10	1	-1E+10	1	-1E+10	1	-1E+10	1
4901784	120	C	10/17/2018	10:46	-132.855	43.028	0	135.50	0	7.8860	0	33.3150	8	25.969	0	134.380	0	230.3	4	79.1	4	-1E+10	1	-1E+10	1	-1E+10	1	-1E+10	1	-1E+10	1	-1E+10	1
4901784	120	C	10/17/2018	10:46	-132.855	43.028	0	137.50	0	7.8750	0	33.3480	8	25.997	0	136.363	0	226.7	4	77.9	4	-1E+10	1	-1E+10	1	-1E+10	1	-1E+10	1	-1E+10	1	-1E+10	1
4901784	120	C	10/17/2018	10:46	-132.855	43.028	0	139.60	0	7.9150	0	33.4010	8	26.033	0	138.445	0	221.8	4	76.3	4	-1E+10	1	-1E+10	1	-1E+10	1	-1E+10	1	-1E+10	1	-1E+10	1
4901784	120	C	10/17/2018	10:46	-132.855	43.028	0	142.60	0	8.0090	0	33.5050	8	26.101	0	141.419	0	215.2	4	74.2	4	-1E+10	1	-1E+10	1	-1E+10	1	-1E+10	1	-1E+10	1	-1E+10	1
4901784	120	C	10/17/2018	10:46	-132.855	43.028	0	144.80	0	8.0160	0	33.5250	8	26.116	0	143.600	0	210.7	4	72.7	4	-1E+10	1	-1E+10	1	-1E+10	1	-1E+10	1	-1E+10	1	-1E+10	1
4901784	120	C	10/17/2018	10:46	-132.855	43.028	0	147.30	0	8.0900	0	33.5950	8	26.160	0	146.079	0	203.4	4	70.3	4	-1E+10	1	-1E+10	1	-1E+10	1	-1E+10	1	-1E+10	1	-1E+10	1
4901784	120	C	10/17/2018	10:46	-132.855	43.028	0	149.70	0	8.2060	0	33.7290	8	26.248	0	148.458	0	197.2	4	68.4	4	-1E+10	1	-1E+10	1	-1E+10	1	-1E+10	1	-1E+10	1	-1E+10	1
4901784	120	C	10/17/2018	10:46	-132.855	43.028	0	152.30	0	8.2540	0	33.8220	8	26.313	0	151.035	0	193.3	4	67.2	4	-1E+10	1	-1E+10	1	-1E+10	1	-1E+10	1	-1E+10	1	-1E+10	1
4901784	120	C	10/17/2018	10:46	-132.855	43.028	0	154.90	0	8.2700	0	33.8590	8	26.340	0	153.613	0	190.3	4	66.2	4	-1E+10	1	-1E+10	1	-1E+10	1	-1E+10	1	-1E+10	1	-1E+10	1
4901784	120	C	10/17/2018	10:46	-132.855	43.028	0	157.60	0	8.3010	0	33.9050	8	26.372	0	156.289	0	186.7	4	65.0	4	-1E+10	1	-1E+10	1	-1E+10	1	-1E+10	1	-1E+10	1	-1E+10	1
4901784	120	C	10/17/2018	10:46	-132.855	43.028	0	160.30	0	8.3420	0	33.9850	8	26.428	0	158.966	0	183.9	4	64.1	4	-1E+10	1	-1E+10	1	-1E+10	1	-1E+10	1	-1E+10	1	-1E+10	1
4901784	120	C	10/17/2018	10:46	-132.855	43.028	0	162.20	0	8.3400	0	33.9870	8	26.430	0	160.849	0	183.3	4	63.9	4	-1E+10	1	-1E+10	1	-1E+10	1	-1E+10	1	-1E+10	1	-1E+10	1
4901784	120	C	10/17/2018	10:46	-132.855	43.028	0	165.00	0	8.3430	0	33.9970	8	26.438	0	163.625	0	181.8	4	63.4	4	-1E+10	1	-1E+10	1	-1E+10	1	-1E+10	1	-1E+10	1	-1E+10	1
4901784	120	C	10/17/2018	10:46	-132.855	43.028	0	167.80	0	8.3460	0	34.0230	8	26.458	0	166.401	0	180.1	4	62.8	4	-1E+10	1	-1E+10	1	-1E+10	1	-1E+10	1	-1E+10	1	-1E+10	1
4901784	120	C	10/17/2018	10:46	-132.855	43.028	0	169.60	0	8.3540	0	34.0350	8	26.466	0	168.185	0	178.9	4	62.4	4	-1E+10	1	-1E+10	1	-1E+10	1	-1E+10	1	-1E+10	1	-1E+10	1
4901784	120	C	10/17/2018	10:46	-132.855	43.028	0	172.40	0	8.3540	0	34.0740	8	26.496	0	170.960	0	177.2	4	61.8	4	-1E+10	1	-1E+10	1	-1E+10	1	-1E+10	1	-1E+10	1	-1E+10	1
4901784	120	C	10/17/2018	10:46	-132.855	43.028	0	175.20	0	8.3550	0	34.0930	8	26.511	0	173.736	0	175.8	4	61.4	4	-1E+10	1	-1E+10	1	-1E+10	1	-1E+10	1	-1E+10	1	-1E+10	1
4901784	120	C	10/17/2018	10:46	-132.855	43.028	0	177.10	0	8.3480	0	34.1140	8	26.529	0	175.619	0	174.9	4	61.1	4	-1E+10	1	-1E+10	1	-1E+10	1	-1E+10	1	-1E+10	1	-1E+10	1
4901784	120	C	10/17/2018	10:46	-132.855	43.028	0	180.10	0	8.3370	0	34.1330	8	26.545	0	178.593	0	173.7	4	60.6	4	-1E+10	1	-1E+10	1	-1E+10	1	-1E+10	1	-1E+10	1	-1E+10	1
4901784	120	C	10/17/2018	10:46	-132.855	43.028	0	183.10	0	8.3300	0	34.1400	8	26.552	0	181.566	0	172.3	4	60.1	4	-1E+10	1	-1E+10	1	-1E+10	1	-1E+10	1	-1E+10	1	-1E+10	1
4901784	120	C	10/17/2018	10:46	-132.855	43.028	0	185.00	0	8.3210	0	34.1490	8	26.560	0	183.449	0	171.5	4	59.8	4	-1E+10	1	-1E+10	1	-1E+10	1	-1E+10	1	-1E+10	1	-1E+10	1
4901784	120	C	10/17/2018	10:46	-132.855	43.028	0	186.90	0	8.3110	0	34.1520	8	26.564	0	185.333	0	170.8	4	59.6	4	-1E+10	1	-1E+10	1	-1E+10	1	-1E+10	1	-1E+10	1	-1E+10	1
4901784	120	C	10/17/2018	10:46	-132.855	43.028	0	189.90	0	8.2790	0	34.1620	8	26.577	0	188.306	0	169.5	4	59.1	4	-1E+10	1	-1E+10	1	-1E+10	1	-1E+10	1	-1E+10	1	-1E+10	1
4901784	120	C	10/17/2018	10:46	-132.855	43.028	0	192.80	0	8.2320	0	34.1750	8	26.594	0	191.180	0	168.6	4	58.7	4	-1E+10	1	-1E+10	1	-1E+10	1	-1E+10	1	-1E+10	1	-1E+10	1
4901784	120	C	10/17/2018	10:46	-132.855	43.028	0	194.70	0	8.2270	0	34.1750	8	26.595	0	193.064	0	168.0	4	58.5	4	-1E+10	1	-1E+10	1	-1E+10	1	-1E+10	1	-1E+10	1	-1E+10	1
4901784	120	C	10/17/2018	10:46	-132.855	43.028	0	197.60	0	8.2100	0	34.1770	8	26.599	0	195.938	0	167.0	4	58.1	4	-1E+10	1	-1E+10	1	-1E+10	1	-1E+10	1	-1E+10	1	-1E+10	1
4901784	120	C	10/17/2018	10:46	-132.855	43.028	0	200.50	0	8.1580	0	34.1820	8	26.611	0	198.812	0	166.2	4	57.8	4	-1E+10	1	-1E+10	1	-1E+10	1	-1E+10	1	-1E+10	1	-1E+10	1
4901784	120	C	10/17/2018	10:46	-132.855	43.028	0	202.40	0	8.1470	0	34.1820	8	26.613	0	200.695	0	165.5	4	57.5	4	-1E+10	1	-1E+10	1	-1E+10	1	-1E+10	1	-1E+10	1	-1E+10	1
4901784	120	C	10/17/2018	10:46	-132.855	43.028	0	204.90	0	8.1000	0	34.1860	8	26.623	0	203.173	0	164.9	4	57.3	4	-1E+10	1	-1E+10	1	-1E+10	1	-1E+10	1	-1E+10	1	-1E+10	1
4901784	120	C	10/17/2018	10:46	-132.855	43.028	0	207.60	0	8.0570	0	34.1880	8	26.631	0	205.849	0	164.1	4	56.9	4	-1E+10	1	-1E+10	1	-1E+10	1	-1E+10	1	-1E+10	1	-1E+10	1
4901784	120	C	10/17/2018	10:46	-132.855	43.028	0	210.00	0	8.0400	0	34.1870	8	26.633	0	208.227	0	163.3	4	56.6	4	-1E+10	1	-1E+10	1	-1E+10	1	-1E+10	1	-1E+10	1	-1E+10	1
4901784	120	C	10/17/2018	10:46	-132.855	43.028	0	212.40	0	8.0030	0	34.1880	8	26.639	0	210.606	0	162.4	4	56.3	4	-1E+10	1	-1E+10	1	-1E+10	1	-1E+10	1	-1E+10	1	-1E+10	1
4901784	120	C	10/17/2018	10:46	-132.855	43.028	0	214.90	0	7.9590	0	34.1880	8	26.646	0	213.083	0	161.5	4	55.9	4	-1E+10	1	-1E+10	1	-1E+10	1	-1E+10	1	-1E+10	1	-1E+10	1
4901784	120	C	10/17/2018	10:46	-132.855	43.028	0	217.30	0	7.9350	0	34.1870	8	26.648	0	215.462	0	160.6	4	55.6	4	-1E+10	1	-1E+10	1	-1E+10	1	-1E+10	1	-1E+10	1	-1E+10	1
4901784	120	C	10/17/2018	10:46	-132.855	43.028	0	219.80	0	7.8960	0	34.1880	8	26.655	0	217.939	0	159.8	4	55.2	4	-1E+10	1	-1E+10	1	-1E+10	1	-1E+10	1	-1E+10	1	-1E+10	1
4901784	120	C	10/17/2018	10:46	-132.855	43.028	0	222.30	0	7.8660	0	34.1880	8	26.659	0	220.417	0	158.8	4	54.9	4	-1E+10	1	-1E+10	1	-1E+10	1	-1E+10	1	-1E+10	1	-1E+10	1
4901784	120	C	10/17/2018	10:46	-132.855	43.028	0	224.80	0	7.8060	0	34.1880	8	26.668	0	222.894	0	157.7	4	54.4	4	-1E+10	1	-1E+10	1	-1E+10	1	-1E+10	1	-1E+10	1	-1E+10	1
4901784	120	C	10/17/2018	10:46	-132.855	43.028	0	227.30	0	7.7660	0	34.1870	8	26.673	0	225.372	0	156.6	4	54.0	4	-1E+10	1	-1E+10	1	-1E+10	1	-1E+10	1	-1E+10	1	-1E+10	1
4901784	120	C	10/17/2018	10:46	-132.855	43.028	0	229.80	0	7.7140	0	34.1860	8	26.680	0	227.849	0	155.7	4	53.6	4	-1E+10	1	-1E+10	1	-1E+10	1	-1E+10	1	-1E+10	1	-1E+10	1
4901784	120	C	10/17/2018	10:46	-132.855	43.028	0	232.30	0	7.6880	0	34.1860	8	26.684	0	230.327	0	154.9	4	53.3	4	-1E+10	1	-1E+10	1	-1E+10	1	-1E+10	1	-1E+10	1	-1E+10	1
4901784	120	C	10/17/2018	10:46	-132.855	43.028	0	234.80	0	7.6760	0	34.1850	8	26.685	0	232.804	0	153.9	4	52.9	4	-1E+10	1	-1E+10	1	-1E+10	1	-1E+10	1	-1E+10	1	-1E+10	1
4901784	120	C	10/17/2018	10:46	-132.855	43.028	0	237.40	0	7.6320	0	34.1850	8	26.691	0	235.380	0	152.7	4	52.5	4	-1E+10	1	-1E+10	1	-1E+10	1	-1E+10	1	-1E+10	1	-1E+10	1
4901784	120	C	10/17/2018	10:46	-132.855	43.028	0	239.80	0	7.5990	0	34.1850	8	26.696	0	237.759	0	151.6	4	52.1	4	-1E+10	1	-1E+10	1	-1E+10	1	-1E+10	1	-1E+10	1	-1E+10	1
4901784	120	C	10/17/2018	10:46	-132.855	43.028	0	242.40	0	7.5610	0	34.1850	8	26.702	0	240.335	0	150.2	4	51.5	4	-1E+10	1	-1E+10	1	-1E+10	1	-1E+10	1	-1E+10	1	-1E+10	1
4901784	120	C	10/17/2018	10:46	-132.855	43.028	0	244.90	0	7.5050	0	34.1840	8	26.709	0	242.812	0	149.1	4	51.1	4	-1E+10	1	-1E+10	1	-1E+10	1	-1E+10	1	-1E+10	1	-1E+10	1
4901784	120	C	10/17/2018	10:46	-132.855	43.028	0	247.50	0	7.4870	0	34.1830	8	26.711	0	245.389	0	148.0	4	50.7	4	-1E+10	1	-1E+10	1	-1E+10	1	-1E+10	1	-1E+10	1	-1E+10	1
4901784	120	C	10/17/2018	10:46	-132.855	43.028	0	250.20	0	7.4410	0	34.1830	8	26.717	0	248.064	0	146.4	4	50.1	4	-1E+10	1	-1E+10	1	-1E+10	1	-1E+10	1	-1E+10	1	-1E+10	1
4901784	120	C	10/17/2018	10:46	-132.855	43.028	0	252.80	0	7.4080	0	34.1810	8	26.720	0	250.640	0	145.0	4	49.6	4	-1E+10	1	-1E+10	1	-1E+10	1	-1E+10	1	-1E+10	1	-1E+10	1
4901784	120	C	10/17/2018	10:46	-132.855	43.028	0	255.40	0	7.3470	0	34.1820	8	26.730	0	253.216	0	143.5	4	49.0	4	-1E+10	1	-1E+10	1	-1E+10	1	-1E+10	1	-1E+10	1	-1E+10	1
4901784	120	C	10/17/2018	10:46	-132.855	43.028	0	257.20	0	7.3220	0	34.1800	8	26.732	0	255.000	0	142.7	4	48.7	4	-1E+10	1	-1E+10	1	-1E+10	1	-1E+10	1	-1E+10	1	-1E+10	1
4901784	120	C	10/17/2018	10:46	-132.855	43.028	0	259.80	0	7.3010	0	34.1790	8	26.734	0	257.576	0	141.2	4	48.1	4	-1E+10	1	-1E+10	1	-1E+10	1	-1E+10	1	-1E+10	1	-1E+10	1
4901784	120	C	10/17/2018	10:46	-132.855	43.028	0	262.50	0	7.2720	0	34.1770	8	26.736	0	260.251	0	139.6	4	47.6	4	-1E+10	1	-1E+10	1	-1E+10	1	-1E+10	1	-1E+10	1	-1E+10	1
4901784	120	C	10/17/2018	10:46	-132.855	43.028	0	265.10	0	7.2230	0	34.1760	8	26.742	0	262.827	0	138.0	4	47.0	4	-1E+10	1	-1E+10	1	-1E+10	1	-1E+10	1	-1E+10	1	-1E+10	1
4901784	120	C	10/17/2018	10:46	-132.855	43.028	0	267.80	0	7.1770	0	34.1760	8	26.749	0	265.502	0	136.3	4	46.4	4	-1E+10	1	-1E+10	1	-1E+10	1	-1E+10	1	-1E+10	1	-1E+10	1
4901784	120	C	10/17/2018	10:46	-132.855	43.028	0	270.40	0	7.1070	0	34.1740	8	26.757	0	268.078	0	135.0	4	45.8	4	-1E+10	1	-1E+10	1	-1E+10	1	-1E+10	1	-1E+10	1	-1E+10	1
4901784	120	C	10/17/2018	10:46	-132.855	43.028	0	273.00	0	7.0470	0	34.1740	8	26.765	0	270.654	0	133.8	4	45.4	4	-1E+10	1	-1E+10	1	-1E+10	1	-1E+10	1	-1E+10	1	-1E+10	1
4901784	120	C	10/17/2018	10:46	-132.855	43.028	0	274.80	0	7.0180	0	34.1740	8	26.769	0	272.438	0	133.0	4	45.1	4	-1E+10	1	-1E+10	1	-1E+10	1	-1E+10	1	-1E+10	1	-1E+10	1
4901784	120	C	10/17/2018	10:46	-132.855	43.028	0	277.60	0	6.9730	0	34.1730	8	26.775	0	275.212	0	131.8	4	44.6	4	-1E+10	1	-1E+10	1	-1E+10	1	-1E+10	1	-1E+10	1	-1E+10	1
4901784	120	C	10/17/2018	10:46	-132.855	43.028	0	280.20	0	6.9230	0	34.1730	8	26.782	0	277.788	0	130.7	4	44.2	4	-1E+10	1	-1E+10	1	-1E+10	1	-1E+10	1	-1E+10	1	-1E+10	1
4901784	120	C	10/17/2018	10:46	-132.855	43.028	0	282.10	0	6.9020	0	34.1710	8	26.783	0	279.670	0	130.0	4	43.9	4	-1E+10	1	-1E+10	1	-1E+10	1	-1E+10	1	-1E+10	1	-1E+10	1
4901784	120	C	10/17/2018	10:46	-132.855	43.028	0	284.90	0	6.8640	0	34.1720	8	26.789	0	282.444	0	128.8	4	43.5	4	-1E+10	1	-1E+10	1	-1E+10	1	-1E+10	1	-1E+10	1	-1E+10	1
4901784	120	C	10/17/2018	10:46	-132.855	43.028	0	287.70	0	6.8270	0	34.1710	8	26.793	0	285.218	0	127.6	4	43.0	4	-1E+10	1	-1E+10	1	-1E+10	1	-1E+10	1	-1E+10	1	-1E+10	1
4901784	120	C	10/17/2018	10:46	-132.855	43.028	0	289.50	0	6.7930	0	34.1700	8	26.797	0	287.001	0	126.7	4	42.7	4	-1E+10	1	-1E+10	1	-1E+10	1	-1E+10	1	-1E+10	1	-1E+10	1
4901784	120	C	10/17/2018	10:46	-132.855	43.028	0	292.30	0	6.7610	0	34.1680	8	26.800	0	289.775	0	125.1	4	42.2	4	-1E+10	1	-1E+10	1	-1E+10	1	-1E+10	1	-1E+10	1	-1E+10	1
4901784	120	C	10/17/2018	10:46	-132.855	43.028	0	295.10	0	6.6980	0	34.1680	8	26.808	0	292.549	0	123.7	4	41.6	4	-1E+10	1	-1E+10	1	-1E+10	1	-1E+10	1	-1E+10	1	-1E+10	1
4901784	120	C	10/17/2018	10:46	-132.855	43.028	0	296.90	0	6.6770	0	34.1670	8	26.810	0	294.332	0	122.8	4	41.3	4	-1E+10	1	-1E+10	1	-1E+10	1	-1E+10	1	-1E+10	1	-1E+10	1
4901784	120	C	10/17/2018	10:46	-132.855	43.028	0	299.80	0	6.6430	0	34.1640	8	26.812	0	297.205	0	121.1	4	40.7	4	-1E+10	1	-1E+10	1	-1E+10	1	-1E+10	1	-1E+10	1	-1E+10	1
4901784	120	C	10/17/2018	10:46	-132.855	43.028	0	302.60	0	6.5440	0	34.1660	8	26.827	0	299.979	0	119.3	4	40.0	4	-1E+10	1	-1E+10	1	-1E+10	1	-1E+10	1	-1E+10	1	-1E+10	1
4901784	120	C	10/17/2018	10:46	-132.855	43.028	0	304.40	0	6.4880	0	34.1660	8	26.834	0	301.762	0	118.5	4	39.7	4	-1E+10	1	-1E+10	1	-1E+10	1	-1E+10	1	-1E+10	1	-1E+10	1
4901784	120	C	10/17/2018	10:46	-132.855	43.028	0	307.30	0	6.4410	0	34.1650	8	26.840	0	304.634	0	117.2	4	39.2	4	-1E+10	1	-1E+10	1	-1E+10	1	-1E+10	1	-1E+10	1	-1E+10	1
4901784	120	C	10/17/2018	10:46	-132.855	43.028	0	310.20	0	6.3930	0	34.1640	8	26.845	0	307.507	0	115.9	4	38.7	4	-1E+10	1	-1E+10	1	-1E+10	1	-1E+10	1	-1E+10	1	-1E+10	1
4901784	120	C	10/17/2018	10:46	-132.855	43.028	0	312.10	0	6.3700	0	34.1630	8	26.848	0	309.389	0	115.1	4	38.4	4	-1E+10	1	-1E+10	1	-1E+10	1	-1E+10	1	-1E+10	1	-1E+10	1
4901784	120	C	10/17/2018	10:46	-132.855	43.028	0	315.00	0	6.3360	0	34.1630	8	26.852	0	312.262	0	113.7	4	37.9	4	-1E+10	1	-1E+10	1	-1E+10	1	-1E+10	1	-1E+10	1	-1E+10	1
4901784	120	C	10/17/2018	10:46	-132.855	43.028	0	317.90	0	6.2870	0	34.1630	8	26.858	0	315.134	0	112.6	4	37.5	4	-1E+10	1	-1E+10	1	-1E+10	1	-1E+10	1	-1E+10	1	-1E+10	1
4901784	120	C	10/17/2018	10:46	-132.855	43.028	0	319.80	0	6.2640	0	34.1630	8	26.861	0	317.016	0	112.3	4	37.4	4	-1E+10	1	-1E+10	1	-1E+10	1	-1E+10	1	-1E+10	1	-1E+10	1
4901784	120	C	10/17/2018	10:46	-132.855	43.028	0	322.70	0	6.2550	0	34.1620	8	26.862	0	319.889	0	111.6	4	37.2	4	-1E+10	1	-1E+10	1	-1E+10	1	-1E+10	1	-1E+10	1	-1E+10	1
4901784	120	C	10/17/2018	10:46	-132.855	43.028	0	325.50	0	6.2290	0	34.1620	8	26.865	0	322.662	0	110.8	4	36.9	4	-1E+10	1	-1E+10	1	-1E+10	1	-1E+10	1	-1E+10	1	-1E+10	1
4901784	120	C	10/17/2018	10:46	-132.855	43.028	0	327.40	0	6.2150	0	34.1620	8	26.867	0	324.544	0	110.3	4	36.7	4	-1E+10	1	-1E+10	1	-1E+10	1	-1E+10	1	-1E+10	1	-1E+10	1
4901784	120	C	10/17/2018	10:46	-132.855	43.028	0	329.30	0	6.2100	0	34.1610	8	26.867	0	326.426	0	109.8	4	36.5	4	-1E+10	1	-1E+10	1	-1E+10	1	-1E+10	1	-1E+10	1	-1E+10	1
4901784	120	C	10/17/2018	10:46	-132.855	43.028	0	332.30	0	6.2010	0	34.1600	8	26.867	0	329.398	0	108.8	4	36.2	4	-1E+10	1	-1E+10	1	-1E+10	1	-1E+10	1	-1E+10	1	-1E+10	1
4901784	120	C	10/17/2018	10:46	-132.855	43.028	0	335.20	0	6.1310	0	34.1610	8	26.877	0	332.270	0	107.8	4	35.8	4	-1E+10	1	-1E+10	1	-1E+10	1	-1E+10	1	-1E+10	1	-1E+10	1
4901784	120	C	10/17/2018	10:46	-132.855	43.028	0	337.10	0	6.1290	0	34.1610	8	26.877	0	334.152	0	107.4	4	35.6	4	-1E+10	1	-1E+10	1	-1E+10	1	-1E+10	1	-1E+10	1	-1E+10	1
4901784	120	C	10/17/2018	10:46	-132.855	43.028	0	340.00	0	6.1250	0	34.1610	8	26.878	0	337.024	0	106.4	4	35.3	4	-1E+10	1	-1E+10	1	-1E+10	1	-1E+10	1	-1E+10	1	-1E+10	1
4901784	120	C	10/17/2018	10:46	-132.855	43.028	0	342.90	0	6.1070	0	34.1580	8	26.878	0	339.896	0	105.1	4	34.9	4	-1E+10	1	-1E+10	1	-1E+10	1	-1E+10	1	-1E+10	1	-1E+10	1
4901784	120	C	10/17/2018	10:46	-132.855	43.028	0	344.90	0	6.0840	0	34.1600	8	26.882	0	341.877	0	103.9	4	34.5	4	-1E+10	1	-1E+10	1	-1E+10	1	-1E+10	1	-1E+10	1	-1E+10	1
4901784	120	C	10/17/2018	10:46	-132.855	43.028	0	347.70	0	6.0200	0	34.1580	8	26.889	0	344.650	0	102.2	4	33.9	4	-1E+10	1	-1E+10	1	-1E+10	1	-1E+10	1	-1E+10	1	-1E+10	1
4901784	120	C	10/17/2018	10:46	-132.855	43.028	0	350.50	0	5.9730	0	34.1580	8	26.895	0	347.423	0	100.8	4	33.3	4	-1E+10	1	-1E+10	1	-1E+10	1	-1E+10	1	-1E+10	1	-1E+10	1
4901784	120	C	10/17/2018	10:46	-132.855	43.028	0	352.40	0	5.9290	0	34.1600	8	26.902	0	349.305	0	99.7	4	33.0	4	-1E+10	1	-1E+10	1	-1E+10	1	-1E+10	1	-1E+10	1	-1E+10	1
4901784	120	C	10/17/2018	10:46	-132.855	43.028	0	355.20	0	5.8940	0	34.1600	8	26.906	0	352.078	0	98.6	4	32.5	4	-1E+10	1	-1E+10	1	-1E+10	1	-1E+10	1	-1E+10	1	-1E+10	1
4901784	120	C	10/17/2018	10:46	-132.855	43.028	0	357.90	0	5.8560	0	34.1610	8	26.912	0	354.752	0	97.8	4	32.3	4	-1E+10	1	-1E+10	1	-1E+10	1	-1E+10	1	-1E+10	1	-1E+10	1
4901784	120	C	10/17/2018	10:46	-132.855	43.028	0	359.70	0	5.8380	0	34.1610	8	26.914	0	356.535	0	97.4	4	32.1	4	-1E+10	1	-1E+10	1	-1E+10	1	-1E+10	1	-1E+10	1	-1E+10	1
4901784	120	C	10/17/2018	10:46	-132.855	43.028	0	362.50	0	5.8160	0	34.1600	8	26.916	0	359.308	0	96.4	4	31.8	4	-1E+10	1	-1E+10	1	-1E+10	1	-1E+10	1	-1E+10	1	-1E+10	1
4901784	120	C	10/17/2018	10:46	-132.855	43.028	0	365.30	0	5.7880	0	34.1610	8	26.920	0	362.081	0	94.9	4	31.3	4	-1E+10	1	-1E+10	1	-1E+10	1	-1E+10	1	-1E+10	1	-1E+10	1
4901784	120	C	10/17/2018	10:46	-132.855	43.028	0	367.10	0	5.7680	0	34.1600	8	26.922	0	363.863	0	94.0	4	31.0	4	-1E+10	1	-1E+10	1	-1E+10	1	-1E+10	1	-1E+10	1	-1E+10	1
4901784	120	C	10/17/2018	10:46	-132.855	43.028	0	369.90	0	5.7300	0	34.1620	8	26.928	0	366.636	0	93.2	4	30.7	4	-1E+10	1	-1E+10	1	-1E+10	1	-1E+10	1	-1E+10	1	-1E+10	1
4901784	120	C	10/17/2018	10:46	-132.855	43.028	0	372.60	0	5.7140	0	34.1620	8	26.930	0	369.310	0	92.5	4	30.4	4	-1E+10	1	-1E+10	1	-1E+10	1	-1E+10	1	-1E+10	1	-1E+10	1
4901784	120	C	10/17/2018	10:46	-132.855	43.028	0	374.40	0	5.7070	0	34.1610	8	26.930	0	371.092	0	91.8	4	30.2	4	-1E+10	1	-1E+10	1	-1E+10	1	-1E+10	1	-1E+10	1	-1E+10	1
4901784	120	C	10/17/2018	10:46	-132.855	43.028	0	377.20	0	5.6730	0	34.1610	8	26.934	0	373.865	0	90.6	4	29.8	4	-1E+10	1	-1E+10	1	-1E+10	1	-1E+10	1	-1E+10	1	-1E+10	1
4901784	120	C	10/17/2018	10:46	-132.855	43.028	0	380.00	0	5.5960	0	34.1620	8	26.944	0	376.638	0	89.5	4	29.4	4	-1E+10	1	-1E+10	1	-1E+10	1	-1E+10	1	-1E+10	1	-1E+10	1
4901784	120	C	10/17/2018	10:46	-132.855	43.028	0	382.80	0	5.5470	0	34.1620	8	26.950	0	379.410	0	88.4	4	29.0	4	-1E+10	1	-1E+10	1	-1E+10	1	-1E+10	1	-1E+10	1	-1E+10	1
4901784	120	C	10/17/2018	10:46	-132.855	43.028	0	385.60	0	5.5080	0	34.1630	8	26.956	0	382.183	0	87.4	4	28.6	4	-1E+10	1	-1E+10	1	-1E+10	1	-1E+10	1	-1E+10	1	-1E+10	1
4901784	120	C	10/17/2018	10:46	-132.855	43.028	0	387.40	0	5.4990	0	34.1640	8	26.958	0	383.965	0	86.7	4	28.4	4	-1E+10	1	-1E+10	1	-1E+10	1	-1E+10	1	-1E+10	1	-1E+10	1
4901784	120	C	10/17/2018	10:46	-132.855	43.028	0	390.20	0	5.4810	0	34.1640	8	26.960	0	386.738	0	85.4	4	27.9	4	-1E+10	1	-1E+10	1	-1E+10	1	-1E+10	1	-1E+10	1	-1E+10	1
4901784	120	C	10/17/2018	10:46	-132.855	43.028	0	392.90	0	5.4510	0	34.1650	8	26.964	0	389.411	0	83.6	4	27.3	4	-1E+10	1	-1E+10	1	-1E+10	1	-1E+10	1	-1E+10	1	-1E+10	1
4901784	120	C	10/17/2018	10:46	-132.855	43.028	0	394.70	0	5.3990	0	34.1660	8	26.971	0	391.194	0	82.5	4	26.9	4	-1E+10	1	-1E+10	1	-1E+10	1	-1E+10	1	-1E+10	1	-1E+10	1
4901784	120	C	10/17/2018	10:46	-132.855	43.028	0	397.50	0	5.3710	0	34.1670	8	26.975	0	393.966	0	81.4	4	26.5	4	-1E+10	1	-1E+10	1	-1E+10	1	-1E+10	1	-1E+10	1	-1E+10	1
4901784	120	C	10/17/2018	10:46	-132.855	43.028	0	400.30	0	5.3360	0	34.1690	8	26.981	0	396.739	0	80.3	4	26.2	4	-1E+10	1	-1E+10	1	-1E+10	1	-1E+10	1	-1E+10	1	-1E+10	1
4901784	120	C	10/17/2018	10:46	-132.855	43.028	0	402.10	0	5.2900	0	34.1740	8	26.991	0	398.521	0	79.7	4	25.9	4	-1E+10	1	-1E+10	1	-1E+10	1	-1E+10	1	-1E+10	1	-1E+10	1
4901784	120	C	10/17/2018	10:46	-132.855	43.028	0	404.80	0	5.2740	0	34.1760	8	26.994	0	401.194	0	79.4	4	25.8	4	-1E+10	1	-1E+10	1	-1E+10	1	-1E+10	1	-1E+10	1	-1E+10	1
4901784	120	C	10/17/2018	10:46	-132.855	43.028	0	407.50	0	5.2660	0	34.1760	8	26.995	0	403.868	0	79.0	4	25.7	4	-1E+10	1	-1E+10	1	-1E+10	1	-1E+10	1	-1E+10	1	-1E+10	1
4901784	120	C	10/17/2018	10:46	-132.855	43.028	0	410.30	0	5.2570	0	34.1760	8	26.996	0	406.640	0	78.5	4	25.5	4	-1E+10	1	-1E+10	1	-1E+10	1	-1E+10	1	-1E+10	1	-1E+10	1
4901784	120	C	10/17/2018	10:46	-132.855	43.028	0	413.00	0	5.2460	0	34.1760	8	26.997	0	409.313	0	77.9	4	25.3	4	-1E+10	1	-1E+10	1	-1E+10	1	-1E+10	1	-1E+10	1	-1E+10	1
4901784	120	C	10/17/2018	10:46	-132.855	43.028	0	414.80	0	5.2400	0	34.1750	8	26.997	0	411.095	0	77.4	4	25.2	4	-1E+10	1	-1E+10	1	-1E+10	1	-1E+10	1	-1E+10	1	-1E+10	1
4901784	120	C	10/17/2018	10:46	-132.855	43.028	0	417.60	0	5.2170	0	34.1770	8	27.002	0	413.868	0	76.2	4	24.8	4	-1E+10	1	-1E+10	1	-1E+10	1	-1E+10	1	-1E+10	1	-1E+10	1
4901784	120	C	10/17/2018	10:46	-132.855	43.028	0	420.40	0	5.1770	0	34.1790	8	27.008	0	416.640	0	75.1	4	24.4	4	-1E+10	1	-1E+10	1	-1E+10	1	-1E+10	1	-1E+10	1	-1E+10	1
4901784	120	C	10/17/2018	10:46	-132.855	43.028	0	422.80	0	5.1600	0	34.1830	8	27.013	0	419.016	0	74.2	4	24.1	4	-1E+10	1	-1E+10	1	-1E+10	1	-1E+10	1	-1E+10	1	-1E+10	1
4901784	120	C	10/17/2018	10:46	-132.855	43.028	0	424.70	0	5.1300	0	34.1850	8	27.018	0	420.897	0	73.5	4	23.8	4	-1E+10	1	-1E+10	1	-1E+10	1	-1E+10	1	-1E+10	1	-1E+10	1
4901784	120	C	10/17/2018	10:46	-132.855	43.028	0	427.10	0	5.1170	0	34.1860	8	27.020	0	423.273	0	72.6	4	23.6	4	-1E+10	1	-1E+10	1	-1E+10	1	-1E+10	1	-1E+10	1	-1E+10	1
4901784	120	C	10/17/2018	10:46	-132.855	43.028	0	430.20	0	5.0730	0	34.1870	8	27.026	0	426.342	0	71.6	4	23.2	4	-1E+10	1	-1E+10	1	-1E+10	1	-1E+10	1	-1E+10	1	-1E+10	1
4901784	120	C	10/17/2018	10:46	-132.855	43.028	0	432.60	0	5.0700	0	34.1860	8	27.026	0	428.718	0	70.7	4	22.9	4	-1E+10	1	-1E+10	1	-1E+10	1	-1E+10	1	-1E+10	1	-1E+10	1
4901784	120	C	10/17/2018	10:46	-132.855	43.028	0	435.00	0	5.0450	0	34.1900	8	27.032	0	431.094	0	69.8	4	22.6	4	-1E+10	1	-1E+10	1	-1E+10	1	-1E+10	1	-1E+10	1	-1E+10	1
4901784	120	C	10/17/2018	10:46	-132.855	43.028	0	437.40	0	5.0380	0	34.1920	8	27.034	0	433.470	0	68.9	4	22.3	4	-1E+10	1	-1E+10	1	-1E+10	1	-1E+10	1	-1E+10	1	-1E+10	1
4901784	120	C	10/17/2018	10:46	-132.855	43.028	0	439.70	0	5.0230	0	34.1940	8	27.038	0	435.747	0	67.8	4	22.0	4	-1E+10	1	-1E+10	1	-1E+10	1	-1E+10	1	-1E+10	1	-1E+10	1
4901784	120	C	10/17/2018	10:46	-132.855	43.028	0	442.90	0	4.9950	0	34.1990	8	27.045	0	438.915	0	66.4	4	21.5	4	-1E+10	1	-1E+10	1	-1E+10	1	-1E+10	1	-1E+10	1	-1E+10	1
4901784	120	C	10/17/2018	10:46	-132.855	43.028	0	445.30	0	4.9800	0	34.2010	8	27.048	0	441.291	0	65.4	4	21.2	4	-1E+10	1	-1E+10	1	-1E+10	1	-1E+10	1	-1E+10	1	-1E+10	1
4901784	120	C	10/17/2018	10:46	-132.855	43.028	0	447.80	0	4.9650	0	34.2050	8	27.053	0	443.765	0	64.6	4	20.9	4	-1E+10	1	-1E+10	1	-1E+10	1	-1E+10	1	-1E+10	1	-1E+10	1
4901784	120	C	10/17/2018	10:46	-132.855	43.028	0	450.30	0	4.9510	0	34.2070	8	27.056	0	446.240	0	63.9	4	20.6	4	-1E+10	1	-1E+10	1	-1E+10	1	-1E+10	1	-1E+10	1	-1E+10	1
4901784	120	C	10/17/2018	10:46	-132.855	43.028	0	452.80	0	4.9310	0	34.2090	8	27.060	0	448.715	0	62.9	4	20.3	4	-1E+10	1	-1E+10	1	-1E+10	1	-1E+10	1	-1E+10	1	-1E+10	1
4901784	120	C	10/17/2018	10:46	-132.855	43.028	0	455.20	0	4.9110	0	34.2120	8	27.065	0	451.091	0	62.0	4	20.0	4	-1E+10	1	-1E+10	1	-1E+10	1	-1E+10	1	-1E+10	1	-1E+10	1
4901784	120	C	10/17/2018	10:46	-132.855	43.028	0	457.70	0	4.8990	0	34.2140	8	27.068	0	453.565	0	61.4	4	19.8	4	-1E+10	1	-1E+10	1	-1E+10	1	-1E+10	1	-1E+10	1	-1E+10	1
4901784	120	C	10/17/2018	10:46	-132.855	43.028	0	460.30	0	4.8930	0	34.2140	8	27.068	0	456.139	0	60.7	4	19.6	4	-1E+10	1	-1E+10	1	-1E+10	1	-1E+10	1	-1E+10	1	-1E+10	1
4901784	120	C	10/17/2018	10:46	-132.855	43.028	0	462.80	0	4.8750	0	34.2190	8	27.075	0	458.614	0	59.8	4	19.3	4	-1E+10	1	-1E+10	1	-1E+10	1	-1E+10	1	-1E+10	1	-1E+10	1
4901784	120	C	10/17/2018	10:46	-132.855	43.028	0	465.30	0	4.8680	0	34.2210	8	27.077	0	461.088	0	59.2	4	19.1	4	-1E+10	1	-1E+10	1	-1E+10	1	-1E+10	1	-1E+10	1	-1E+10	1
4901784	120	C	10/17/2018	10:46	-132.855	43.028	0	467.80	0	4.8610	0	34.2240	8	27.080	0	463.563	0	58.5	4	18.8	4	-1E+10	1	-1E+10	1	-1E+10	1	-1E+10	1	-1E+10	1	-1E+10	1
4901784	120	C	10/17/2018	10:46	-132.855	43.028	0	470.40	0	4.8550	0	34.2270	8	27.083	0	466.136	0	57.9	4	18.7	4	-1E+10	1	-1E+10	1	-1E+10	1	-1E+10	1	-1E+10	1	-1E+10	1
4901784	120	C	10/17/2018	10:46	-132.855	43.028	0	472.20	0	4.8540	0	34.2270	8	27.083	0	467.918	0	57.5	4	18.5	4	-1E+10	1	-1E+10	1	-1E+10	1	-1E+10	1	-1E+10	1	-1E+10	1
4901784	120	C	10/17/2018	10:46	-132.855	43.028	0	474.80	0	4.8470	0	34.2290	8	27.086	0	470.492	0	56.5	4	18.2	4	-1E+10	1	-1E+10	1	-1E+10	1	-1E+10	1	-1E+10	1	-1E+10	1
4901784	120	C	10/17/2018	10:46	-132.855	43.028	0	477.40	0	4.8380	0	34.2300	8	27.088	0	473.065	0	55.5	4	17.9	4	-1E+10	1	-1E+10	1	-1E+10	1	-1E+10	1	-1E+10	1	-1E+10	1
4901784	120	C	10/17/2018	10:46	-132.855	43.028	0	480.10	0	4.8200	0	34.2350	8	27.094	0	475.737	0	54.2	4	17.4	4	-1E+10	1	-1E+10	1	-1E+10	1	-1E+10	1	-1E+10	1	-1E+10	1
4901784	120	C	10/17/2018	10:46	-132.855	43.028	0	482.70	0	4.8010	0	34.2400	8	27.100	0	478.311	0	53.0	4	17.1	4	-1E+10	1	-1E+10	1	-1E+10	1	-1E+10	1	-1E+10	1	-1E+10	1
4901784	120	C	10/17/2018	10:46	-132.855	43.028	0	484.50	0	4.7890	0	34.2420	8	27.103	0	480.092	0	52.2	4	16.8	4	-1E+10	1	-1E+10	1	-1E+10	1	-1E+10	1	-1E+10	1	-1E+10	1
4901784	120	C	10/17/2018	10:46	-132.855	43.028	0	487.20	0	4.7720	0	34.2460	8	27.108	0	482.765	0	51.2	4	16.5	4	-1E+10	1	-1E+10	1	-1E+10	1	-1E+10	1	-1E+10	1	-1E+10	1
4901784	120	C	10/17/2018	10:46	-132.855	43.028	0	490.00	0	4.7470	0	34.2510	8	27.114	0	485.536	0	50.5	4	16.2	4	-1E+10	1	-1E+10	1	-1E+10	1	-1E+10	1	-1E+10	1	-1E+10	1
4901784	120	C	10/17/2018	10:46	-132.855	43.028	0	492.70	0	4.7410	0	34.2520	8	27.116	0	488.208	0	49.8	4	16.0	4	-1E+10	1	-1E+10	1	-1E+10	1	-1E+10	1	-1E+10	1	-1E+10	1
4901784	120	C	10/17/2018	10:46	-132.855	43.028	0	495.40	0	4.7080	0	34.2570	8	27.124	0	490.880	0	49.2	4	15.8	4	-1E+10	1	-1E+10	1	-1E+10	1	-1E+10	1	-1E+10	1	-1E+10	1
4901784	120	C	10/17/2018	10:46	-132.855	43.028	0	497.20	0	4.6970	0	34.2560	8	27.124	0	492.662	0	48.9	4	15.7	4	-1E+10	1	-1E+10	1	-1E+10	1	-1E+10	1	-1E+10	1	-1E+10	1
4901784	120	C	10/17/2018	10:46	-132.855	43.028	0	500.00	0	4.6840	0	34.2580	8	27.127	0	495.433	0	48.3	4	15.5	4	-1E+10	1	-1E+10	1	-1E+10	1	-1E+10	1	-1E+10	1	-1E+10	1
4901784	120	C	10/17/2018	10:46	-132.855	43.028	0	504.50	0	4.6730	0	34.2630	8	27.132	0	499.886	0	46.9	4	15.1	4	-1E+10	1	-1E+10	1	-1E+10	1	-1E+10	1	-1E+10	1	-1E+10	1
4901784	120	C	10/17/2018	10:46	-132.855	43.028	0	510.00	0	4.6750	0	34.2660	8	27.134	0	505.329	0	45.9	4	14.7	4	-1E+10	1	-1E+10	1	-1E+10	1	-1E+10	1	-1E+10	1	-1E+10	1
4901784	120	C	10/17/2018	10:46	-132.855	43.028	0	515.60	0	4.6610	0	34.2700	8	27.139	0	510.871	0	44.4	4	14.3	4	-1E+10	1	-1E+10	1	-1E+10	1	-1E+10	1	-1E+10	1	-1E+10	1
4901784	120	C	10/17/2018	10:46	-132.855	43.028	0	520.30	0	4.6150	0	34.2780	8	27.151	0	515.522	0	43.3	4	13.9	4	-1E+10	1	-1E+10	1	-1E+10	1	-1E+10	1	-1E+10	1	-1E+10	1
4901784	120	C	10/17/2018	10:46	-132.855	43.028	0	524.90	0	4.5910	0	34.2730	8	27.149	0	520.074	0	42.3	4	13.5	4	-1E+10	1	-1E+10	1	-1E+10	1	-1E+10	1	-1E+10	1	-1E+10	1
4901784	120	C	10/17/2018	10:46	-132.855	43.028	0	529.70	0	4.5750	0	34.2830	8	27.159	0	524.824	0	40.8	4	13.1	4	-1E+10	1	-1E+10	1	-1E+10	1	-1E+10	1	-1E+10	1	-1E+10	1
4901784	120	C	10/17/2018	10:46	-132.855	43.028	0	534.50	0	4.5380	0	34.2880	8	27.167	0	529.574	0	38.8	4	12.4	4	-1E+10	1	-1E+10	1	-1E+10	1	-1E+10	1	-1E+10	1	-1E+10	1
4901784	120	C	10/17/2018	10:46	-132.855	43.028	0	540.40	0	4.5120	0	34.2950	8	27.176	0	535.412	0	37.3	4	11.9	4	-1E+10	1	-1E+10	1	-1E+10	1	-1E+10	1	-1E+10	1	-1E+10	1
4901784	120	C	10/17/2018	10:46	-132.855	43.028	0	545.30	0	4.5070	0	34.2990	8	27.179	0	540.260	0	36.4	4	11.6	4	-1E+10	1	-1E+10	1	-1E+10	1	-1E+10	1	-1E+10	1	-1E+10	1
4901784	120	C	10/17/2018	10:46	-132.855	43.028	0	549.90	0	4.5090	0	34.3050	8	27.184	0	544.812	0	35.5	4	11.4	4	-1E+10	1	-1E+10	1	-1E+10	1	-1E+10	1	-1E+10	1	-1E+10	1
4901784	120	C	10/17/2018	10:46	-132.855	43.028	0	554.30	0	4.5210	0	34.3080	8	27.185	0	549.165	0	34.2	4	10.9	4	-1E+10	1	-1E+10	1	-1E+10	1	-1E+10	1	-1E+10	1	-1E+10	1
4901784	120	C	10/17/2018	10:46	-132.855	43.028	0	559.20	0	4.5070	0	34.3140	8	27.191	0	554.013	0	32.9	4	10.5	4	-1E+10	1	-1E+10	1	-1E+10	1	-1E+10	1	-1E+10	1	-1E+10	1
4901784	120	C	10/17/2018	10:46	-132.855	43.028	0	565.00	0	4.4880	0	34.3200	8	27.198	0	559.752	0	31.9	4	10.2	4	-1E+10	1	-1E+10	1	-1E+10	1	-1E+10	1	-1E+10	1	-1E+10	1
4901784	120	C	10/17/2018	10:46	-132.855	43.028	0	570.80	0	4.4830	0	34.3260	8	27.204	0	565.490	0	30.2	4	9.7	4	-1E+10	1	-1E+10	1	-1E+10	1	-1E+10	1	-1E+10	1	-1E+10	1
4901784	120	C	10/17/2018	10:46	-132.855	43.028	0	575.70	0	4.5000	0	34.3320	8	27.207	0	570.338	0	28.5	4	9.1	4	-1E+10	1	-1E+10	1	-1E+10	1	-1E+10	1	-1E+10	1	-1E+10	1
4901784	120	C	10/17/2018	10:46	-132.855	43.028	0	580.70	0	4.4930	0	34.3380	8	27.212	0	575.284	0	27.5	4	8.8	4	-1E+10	1	-1E+10	1	-1E+10	1	-1E+10	1	-1E+10	1	-1E+10	1
4901784	120	C	10/17/2018	10:46	-132.855	43.028	0	585.70	0	4.4790	0	34.3440	8	27.218	0	580.230	0	26.5	4	8.5	4	-1E+10	1	-1E+10	1	-1E+10	1	-1E+10	1	-1E+10	1	-1E+10	1
4901784	120	C	10/17/2018	10:46	-132.855	43.028	0	590.00	0	4.4700	0	34.3480	8	27.223	0	584.484	0	25.9	4	8.3	4	-1E+10	1	-1E+10	1	-1E+10	1	-1E+10	1	-1E+10	1	-1E+10	1
4901784	120	C	10/17/2018	10:46	-132.855	43.028	0	594.20	0	4.4470	0	34.3510	8	27.228	0	588.639	0	25.3	4	8.1	4	-1E+10	1	-1E+10	1	-1E+10	1	-1E+10	1	-1E+10	1	-1E+10	1
4901784	120	C	10/17/2018	10:46	-132.855	43.028	0	599.30	0	4.4390	0	34.3550	8	27.232	0	593.684	0	24.5	4	7.8	4	-1E+10	1	-1E+10	1	-1E+10	1	-1E+10	1	-1E+10	1	-1E+10	1
4901784	120	C	10/17/2018	10:46	-132.855	43.028	0	604.50	0	4.4350	0	34.3610	8	27.237	0	598.828	0	23.5	4	7.5	4	-1E+10	1	-1E+10	1	-1E+10	1	-1E+10	1	-1E+10	1	-1E+10	1
4901784	120	C	10/17/2018	10:46	-132.855	43.028	0	609.60	0	4.4270	0	34.3660	8	27.242	0	603.873	0	22.8	4	7.3	4	-1E+10	1	-1E+10	1	-1E+10	1	-1E+10	1	-1E+10	1	-1E+10	1
4901784	120	C	10/17/2018	10:46	-132.855	43.028	0	614.80	0	4.4130	0	34.3710	8	27.247	0	609.016	0	22.1	4	7.0	4	-1E+10	1	-1E+10	1	-1E+10	1	-1E+10	1	-1E+10	1	-1E+10	1
4901784	120	C	10/17/2018	10:46	-132.855	43.028	0	620.20	0	4.4110	0	34.3760	8	27.251	0	614.357	0	21.2	4	6.8	4	-1E+10	1	-1E+10	1	-1E+10	1	-1E+10	1	-1E+10	1	-1E+10	1
4901784	120	C	10/17/2018	10:46	-132.855	43.028	0	625.60	0	4.3880	0	34.3820	8	27.259	0	619.698	0	20.4	4	6.5	4	-1E+10	1	-1E+10	1	-1E+10	1	-1E+10	1	-1E+10	1	-1E+10	1
4901784	120	C	10/17/2018	10:46	-132.855	43.028	0	630.00	0	4.4000	0	34.3890	8	27.263	0	624.050	0	19.7	4	6.3	4	-1E+10	1	-1E+10	1	-1E+10	1	-1E+10	1	-1E+10	1	-1E+10	1
4901784	120	C	10/17/2018	10:46	-132.855	43.028	0	634.50	0	4.3950	0	34.3920	8	27.266	0	628.501	0	19.2	4	6.1	4	-1E+10	1	-1E+10	1	-1E+10	1	-1E+10	1	-1E+10	1	-1E+10	1
4901784	120	C	10/17/2018	10:46	-132.855	43.028	0	640.00	0	4.3840	0	34.3990	8	27.273	0	633.941	0	18.5	4	5.9	4	-1E+10	1	-1E+10	1	-1E+10	1	-1E+10	1	-1E+10	1	-1E+10	1
4901784	120	C	10/17/2018	10:46	-132.855	43.028	0	645.50	0	4.3660	0	34.4030	8	27.278	0	639.380	0	18.0	4	5.8	4	-1E+10	1	-1E+10	1	-1E+10	1	-1E+10	1	-1E+10	1	-1E+10	1
4901784	120	C	10/17/2018	10:46	-132.855	43.028	0	650.00	0	4.3530	0	34.4060	8	27.282	0	643.831	0	17.7	4	5.6	4	-1E+10	1	-1E+10	1	-1E+10	1	-1E+10	1	-1E+10	1	-1E+10	1
4901784	120	C	10/17/2018	10:46	-132.855	43.028	0	654.60	0	4.3170	0	34.4100	8	27.289	0	648.380	0	17.5	4	5.6	4	-1E+10	1	-1E+10	1	-1E+10	1	-1E+10	1	-1E+10	1	-1E+10	1
4901784	120	C	10/17/2018	10:46	-132.855	43.028	0	660.10	0	4.2960	0	34.4130	8	27.293	0	653.819	0	17.1	4	5.4	4	-1E+10	1	-1E+10	1	-1E+10	1	-1E+10	1	-1E+10	1	-1E+10	1
4901784	120	C	10/17/2018	10:46	-132.855	43.028	0	664.80	0	4.2920	0	34.4210	8	27.300	0	658.467	0	16.9	4	5.4	4	-1E+10	1	-1E+10	1	-1E+10	1	-1E+10	1	-1E+10	1	-1E+10	1
4901784	120	C	10/17/2018	10:46	-132.855	43.028	0	669.40	0	4.2260	0	34.4160	8	27.303	0	663.016	0	17.3	4	5.5	4	-1E+10	1	-1E+10	1	-1E+10	1	-1E+10	1	-1E+10	1	-1E+10	1
4901784	120	C	10/17/2018	10:46	-132.855	43.028	0	675.10	0	4.1720	0	34.4180	8	27.311	0	668.652	0	17.0	4	5.4	4	-1E+10	1	-1E+10	1	-1E+10	1	-1E+10	1	-1E+10	1	-1E+10	1
4901784	120	C	10/17/2018	10:46	-132.855	43.028	0	679.80	0	4.1720	0	34.4200	8	27.312	0	673.300	0	16.7	4	5.3	4	-1E+10	1	-1E+10	1	-1E+10	1	-1E+10	1	-1E+10	1	-1E+10	1
4901784	120	C	10/17/2018	10:46	-132.855	43.028	0	684.60	0	4.1390	0	34.4250	8	27.320	0	678.046	0	16.2	4	5.1	4	-1E+10	1	-1E+10	1	-1E+10	1	-1E+10	1	-1E+10	1	-1E+10	1
4901784	120	C	10/17/2018	10:46	-132.855	43.028	0	690.30	0	4.1350	0	34.4350	8	27.328	0	683.682	0	15.6	4	5.0	4	-1E+10	1	-1E+10	1	-1E+10	1	-1E+10	1	-1E+10	1	-1E+10	1
4901784	120	C	10/17/2018	10:46	-132.855	43.028	0	695.20	0	4.1230	0	34.4380	8	27.332	0	688.527	0	15.5	4	4.9	4	-1E+10	1	-1E+10	1	-1E+10	1	-1E+10	1	-1E+10	1	-1E+10	1
4901784	120	C	10/17/2018	10:46	-132.855	43.028	0	700.10	0	4.1140	0	34.4390	8	27.334	0	693.372	0	15.3	4	4.8	4	-1E+10	1	-1E+10	1	-1E+10	1	-1E+10	1	-1E+10	1	-1E+10	1
4901784	120	C	10/17/2018	10:46	-132.855	43.028	0	705.00	0	4.0880	0	34.4440	8	27.340	0	698.217	0	15.0	4	4.8	4	-1E+10	1	-1E+10	1	-1E+10	1	-1E+10	1	-1E+10	1	-1E+10	1
4901784	120	C	10/17/2018	10:46	-132.855	43.028	0	709.90	0	4.0930	0	34.4480	8	27.343	0	703.061	0	14.7	4	4.7	4	-1E+10	1	-1E+10	1	-1E+10	1	-1E+10	1	-1E+10	1	-1E+10	1
4901784	120	C	10/17/2018	10:46	-132.855	43.028	0	714.80	0	4.0950	0	34.4510	8	27.345	0	707.906	0	14.6	4	4.6	4	-1E+10	1	-1E+10	1	-1E+10	1	-1E+10	1	-1E+10	1	-1E+10	1
4901784	120	C	10/17/2018	10:46	-132.855	43.028	0	719.80	0	4.0640	0	34.4510	8	27.348	0	712.849	0	14.6	4	4.6	4	-1E+10	1	-1E+10	1	-1E+10	1	-1E+10	1	-1E+10	1	-1E+10	1
4901784	120	C	10/17/2018	10:46	-132.855	43.028	0	724.70	0	4.0400	0	34.4530	8	27.353	0	717.693	0	14.4	4	4.5	4	-1E+10	1	-1E+10	1	-1E+10	1	-1E+10	1	-1E+10	1	-1E+10	1
4901784	120	C	10/17/2018	10:46	-132.855	43.028	0	729.50	0	4.0460	0	34.4590	8	27.357	0	722.438	0	14.0	4	4.4	4	-1E+10	1	-1E+10	1	-1E+10	1	-1E+10	1	-1E+10	1	-1E+10	1
4901784	120	C	10/17/2018	10:46	-132.855	43.028	0	735.40	0	4.0410	0	34.4630	8	27.360	0	728.271	0	13.7	4	4.3	4	-1E+10	1	-1E+10	1	-1E+10	1	-1E+10	1	-1E+10	1	-1E+10	1
4901784	120	C	10/17/2018	10:46	-132.855	43.028	0	740.20	0	4.0470	0	34.4680	8	27.364	0	733.016	0	13.4	4	4.2	4	-1E+10	1	-1E+10	1	-1E+10	1	-1E+10	1	-1E+10	1	-1E+10	1
4901784	120	C	10/17/2018	10:46	-132.855	43.028	0	745.20	0	4.0380	0	34.4700	8	27.366	0	737.959	0	13.3	4	4.2	4	-1E+10	1	-1E+10	1	-1E+10	1	-1E+10	1	-1E+10	1	-1E+10	1
4901784	120	C	10/17/2018	10:46	-132.855	43.028	0	749.50	0	4.0230	0	34.4720	8	27.370	0	742.209	0	13.2	4	4.2	4	-1E+10	1	-1E+10	1	-1E+10	1	-1E+10	1	-1E+10	1	-1E+10	1
4901784	120	C	10/17/2018	10:46	-132.855	43.028	0	754.50	0	4.0030	0	34.4760	8	27.375	0	747.152	0	13.1	4	4.1	4	-1E+10	1	-1E+10	1	-1E+10	1	-1E+10	1	-1E+10	1	-1E+10	1
4901784	120	C	10/17/2018	10:46	-132.855	43.028	0	759.50	0	3.9870	0	34.4810	8	27.381	0	752.094	0	12.9	4	4.1	4	-1E+10	1	-1E+10	1	-1E+10	1	-1E+10	1	-1E+10	1	-1E+10	1
4901784	120	C	10/17/2018	10:46	-132.855	43.028	0	764.40	0	3.9800	0	34.4820	8	27.382	0	756.937	0	12.9	4	4.1	4	-1E+10	1	-1E+10	1	-1E+10	1	-1E+10	1	-1E+10	1	-1E+10	1
4901784	120	C	10/17/2018	10:46	-132.855	43.028	0	769.40	0	3.9730	0	34.4840	8	27.384	0	761.879	0	12.8	4	4.0	4	-1E+10	1	-1E+10	1	-1E+10	1	-1E+10	1	-1E+10	1	-1E+10	1
4901784	120	C	10/17/2018	10:46	-132.855	43.028	0	774.50	0	3.9640	0	34.4850	8	27.386	0	766.920	0	12.6	4	4.0	4	-1E+10	1	-1E+10	1	-1E+10	1	-1E+10	1	-1E+10	1	-1E+10	1
4901784	120	C	10/17/2018	10:46	-132.855	43.028	0	779.70	0	3.9430	0	34.4910	8	27.393	0	772.060	0	12.5	4	3.9	4	-1E+10	1	-1E+10	1	-1E+10	1	-1E+10	1	-1E+10	1	-1E+10	1
4901784	120	C	10/17/2018	10:46	-132.855	43.028	0	784.80	0	3.9280	0	34.4940	8	27.397	0	777.100	0	12.4	4	3.9	4	-1E+10	1	-1E+10	1	-1E+10	1	-1E+10	1	-1E+10	1	-1E+10	1
4901784	120	C	10/17/2018	10:46	-132.855	43.028	0	789.80	0	3.9190	0	34.4960	8	27.400	0	782.042	0	12.3	4	3.9	4	-1E+10	1	-1E+10	1	-1E+10	1	-1E+10	1	-1E+10	1	-1E+10	1
4901784	120	C	10/17/2018	10:46	-132.855	43.028	0	794.80	0	3.8950	0	34.5010	8	27.406	0	786.983	0	12.1	4	3.8	4	-1E+10	1	-1E+10	1	-1E+10	1	-1E+10	1	-1E+10	1	-1E+10	1
4901784	120	C	10/17/2018	10:46	-132.855	43.028	0	799.80	0	3.8850	0	34.5020	8	27.408	0	791.925	0	12.1	4	3.8	4	-1E+10	1	-1E+10	1	-1E+10	1	-1E+10	1	-1E+10	1	-1E+10	1
4901784	120	C	10/17/2018	10:46	-132.855	43.028	0	804.80	0	3.8670	0	34.5060	8	27.413	0	796.866	0	12.0	4	3.8	4	-1E+10	1	-1E+10	1	-1E+10	1	-1E+10	1	-1E+10	1	-1E+10	1
4901784	120	C	10/17/2018	10:46	-132.855	43.028	0	809.90	0	3.8580	0	34.5080	8	27.415	0	801.906	0	11.9	4	3.7	4	-1E+10	1	-1E+10	1	-1E+10	1	-1E+10	1	-1E+10	1	-1E+10	1
4901784	120	C	10/17/2018	10:46	-132.855	43.028	0	814.90	0	3.8350	0	34.5140	8	27.423	0	806.847	0	11.7	4	3.7	4	-1E+10	1	-1E+10	1	-1E+10	1	-1E+10	1	-1E+10	1	-1E+10	1
4901784	120	C	10/17/2018	10:46	-132.855	43.028	0	819.90	0	3.8270	0	34.5150	8	27.424	0	811.788	0	11.7	4	3.7	4	-1E+10	1	-1E+10	1	-1E+10	1	-1E+10	1	-1E+10	1	-1E+10	1
4901784	120	C	10/17/2018	10:46	-132.855	43.028	0	824.90	0	3.8140	0	34.5180	8	27.428	0	816.728	0	11.5	4	3.6	4	-1E+10	1	-1E+10	1	-1E+10	1	-1E+10	1	-1E+10	1	-1E+10	1
4901784	120	C	10/17/2018	10:46	-132.855	43.028	0	830.00	0	3.7970	0	34.5220	8	27.433	0	821.768	0	11.4	4	3.6	4	-1E+10	1	-1E+10	1	-1E+10	1	-1E+10	1	-1E+10	1	-1E+10	1
4901784	120	C	10/17/2018	10:46	-132.855	43.028	0	835.00	0	3.7890	0	34.5260	8	27.437	0	826.708	0	11.2	4	3.5	4	-1E+10	1	-1E+10	1	-1E+10	1	-1E+10	1	-1E+10	1	-1E+10	1
4901784	120	C	10/17/2018	10:46	-132.855	43.028	0	840.00	0	3.7870	0	34.5320	8	27.442	0	831.649	0	11.0	4	3.5	4	-1E+10	1	-1E+10	1	-1E+10	1	-1E+10	1	-1E+10	1	-1E+10	1
4901784	120	C	10/17/2018	10:46	-132.855	43.028	0	845.00	0	3.8010	0	34.5400	8	27.447	0	836.589	0	10.9	4	3.4	4	-1E+10	1	-1E+10	1	-1E+10	1	-1E+10	1	-1E+10	1	-1E+10	1
4901784	120	C	10/17/2018	10:46	-132.855	43.028	0	850.10	0	3.7830	0	34.5420	8	27.450	0	841.628	0	10.9	4	3.4	4	-1E+10	1	-1E+10	1	-1E+10	1	-1E+10	1	-1E+10	1	-1E+10	1
4901784	120	C	10/17/2018	10:46	-132.855	43.028	0	855.10	0	3.7500	0	34.5410	8	27.453	0	846.568	0	10.9	4	3.4	4	-1E+10	1	-1E+10	1	-1E+10	1	-1E+10	1	-1E+10	1	-1E+10	1
4901784	120	C	10/17/2018	10:46	-132.855	43.028	0	860.20	0	3.7330	0	34.5430	8	27.456	0	851.607	0	10.8	4	3.4	4	-1E+10	1	-1E+10	1	-1E+10	1	-1E+10	1	-1E+10	1	-1E+10	1
4901784	120	C	10/17/2018	10:46	-132.855	43.028	0	865.30	0	3.7200	0	34.5490	8	27.462	0	856.645	0	10.7	4	3.4	4	-1E+10	1	-1E+10	1	-1E+10	1	-1E+10	1	-1E+10	1	-1E+10	1
4901784	120	C	10/17/2018	10:46	-132.855	43.028	0	870.30	0	3.7180	0	34.5530	8	27.466	0	861.585	0	10.6	4	3.3	4	-1E+10	1	-1E+10	1	-1E+10	1	-1E+10	1	-1E+10	1	-1E+10	1
4901784	120	C	10/17/2018	10:46	-132.855	43.028	0	875.40	0	3.7030	0	34.5530	8	27.467	0	866.623	0	10.6	4	3.3	4	-1E+10	1	-1E+10	1	-1E+10	1	-1E+10	1	-1E+10	1	-1E+10	1
4901784	120	C	10/17/2018	10:46	-132.855	43.028	0	880.50	0	3.6910	0	34.5560	8	27.471	0	871.662	0	10.5	4	3.3	4	-1E+10	1	-1E+10	1	-1E+10	1	-1E+10	1	-1E+10	1	-1E+10	1
4901784	120	C	10/17/2018	10:46	-132.855	43.028	0	885.60	0	3.6860	0	34.5610	8	27.475	0	876.700	0	10.5	4	3.3	4	-1E+10	1	-1E+10	1	-1E+10	1	-1E+10	1	-1E+10	1	-1E+10	1
4901784	120	C	10/17/2018	10:46	-132.855	43.028	0	890.70	0	3.6770	0	34.5650	8	27.480	0	881.738	0	10.4	4	3.3	4	-1E+10	1	-1E+10	1	-1E+10	1	-1E+10	1	-1E+10	1	-1E+10	1
4901784	120	C	10/17/2018	10:46	-132.855	43.028	0	895.00	0	3.6700	0	34.5670	8	27.482	0	885.985	0	10.4	4	3.3	4	-1E+10	1	-1E+10	1	-1E+10	1	-1E+10	1	-1E+10	1	-1E+10	1
4901784	120	C	10/17/2018	10:46	-132.855	43.028	0	899.30	0	3.6600	0	34.5690	8	27.484	0	890.233	0	10.4	4	3.3	4	-1E+10	1	-1E+10	1	-1E+10	1	-1E+10	1	-1E+10	1	-1E+10	1
4901784	120	C	10/17/2018	10:46	-132.855	43.028	0	904.50	0	3.6530	0	34.5730	8	27.488	0	895.369	0	10.4	4	3.3	4	-1E+10	1	-1E+10	1	-1E+10	1	-1E+10	1	-1E+10	1	-1E+10	1
4901784	120	C	10/17/2018	10:46	-132.855	43.028	0	909.80	0	3.6440	0	34.5770	8	27.492	0	900.605	0	10.4	4	3.3	4	-1E+10	1	-1E+10	1	-1E+10	1	-1E+10	1	-1E+10	1	-1E+10	1
4901784	120	C	10/17/2018	10:46	-132.855	43.028	0	915.00	0	3.6400	0	34.5800	8	27.495	0	905.741	0	10.4	4	3.3	4	-1E+10	1	-1E+10	1	-1E+10	1	-1E+10	1	-1E+10	1	-1E+10	1
4901784	120	C	10/17/2018	10:46	-132.855	43.028	0	920.30	0	3.6340	0	34.5810	8	27.497	0	910.976	0	10.4	4	3.3	4	-1E+10	1	-1E+10	1	-1E+10	1	-1E+10	1	-1E+10	1	-1E+10	1
4901784	120	C	10/17/2018	10:46	-132.855	43.028	0	925.70	0	3.6230	0	34.5850	8	27.501	0	916.309	0	10.4	4	3.3	4	-1E+10	1	-1E+10	1	-1E+10	1	-1E+10	1	-1E+10	1	-1E+10	1
4901784	120	C	10/17/2018	10:46	-132.855	43.028	0	930.20	0	3.6150	0	34.5860	8	27.503	0	920.754	0	10.4	4	3.3	4	-1E+10	1	-1E+10	1	-1E+10	1	-1E+10	1	-1E+10	1	-1E+10	1
4901784	120	C	10/17/2018	10:46	-132.855	43.028	0	934.70	0	3.6040	0	34.5890	8	27.506	0	925.198	0	10.4	4	3.3	4	-1E+10	1	-1E+10	1	-1E+10	1	-1E+10	1	-1E+10	1	-1E+10	1
4901784	120	C	10/17/2018	10:46	-132.855	43.028	0	940.20	0	3.5940	0	34.5920	8	27.510	0	930.630	0	10.5	4	3.3	4	-1E+10	1	-1E+10	1	-1E+10	1	-1E+10	1	-1E+10	1	-1E+10	1
4901784	120	C	10/17/2018	10:46	-132.855	43.028	0	944.90	0	3.5850	0	34.5940	8	27.512	0	935.271	0	10.5	4	3.3	4	-1E+10	1	-1E+10	1	-1E+10	1	-1E+10	1	-1E+10	1	-1E+10	1
4901784	120	C	10/17/2018	10:46	-132.855	43.028	0	950.50	0	3.5750	0	34.5970	8	27.515	0	940.802	0	10.6	4	3.3	4	-1E+10	1	-1E+10	1	-1E+10	1	-1E+10	1	-1E+10	1	-1E+10	1
4901784	120	C	10/17/2018	10:46	-132.855	43.028	0	955.20	0	3.5520	0	34.6010	8	27.521	0	945.443	0	10.6	4	3.3	4	-1E+10	1	-1E+10	1	-1E+10	1	-1E+10	1	-1E+10	1	-1E+10	1
4901784	120	C	10/17/2018	10:46	-132.855	43.028	0	959.90	0	3.5400	0	34.6040	8	27.525	0	950.085	0	10.7	4	3.3	4	-1E+10	1	-1E+10	1	-1E+10	1	-1E+10	1	-1E+10	1	-1E+10	1
4901784	120	C	10/17/2018	10:46	-132.855	43.028	0	964.70	0	3.5330	0	34.6060	8	27.527	0	954.825	0	10.7	4	3.4	4	-1E+10	1	-1E+10	1	-1E+10	1	-1E+10	1	-1E+10	1	-1E+10	1
4901784	120	C	10/17/2018	10:46	-132.855	43.028	0	969.70	0	3.5210	0	34.6080	8	27.530	0	959.762	0	10.8	4	3.4	4	-1E+10	1	-1E+10	1	-1E+10	1	-1E+10	1	-1E+10	1	-1E+10	1
4901784	120	C	10/17/2018	10:46	-132.855	43.028	0	974.90	0	3.5090	0	34.6110	8	27.533	0	964.897	0	10.8	4	3.4	4	-1E+10	1	-1E+10	1	-1E+10	1	-1E+10	1	-1E+10	1	-1E+10	1
4901784	120	C	10/17/2018	10:46	-132.855	43.028	0	980.00	0	3.5010	0	34.6120	8	27.535	0	969.932	0	10.9	4	3.4	4	-1E+10	1	-1E+10	1	-1E+10	1	-1E+10	1	-1E+10	1	-1E+10	1
4901784	120	C	10/17/2018	10:46	-132.855	43.028	0	985.10	0	3.4890	0	34.6140	8	27.538	0	974.968	0	10.9	4	3.4	4	-1E+10	1	-1E+10	1	-1E+10	1	-1E+10	1	-1E+10	1	-1E+10	1
4901784	120	C	10/17/2018	10:46	-132.855	43.028	0	990.20	0	3.4840	0	34.6150	8	27.539	0	980.004	0	10.9	4	3.4	4	-1E+10	1	-1E+10	1	-1E+10	1	-1E+10	1	-1E+10	1	-1E+10	1
4901784	120	C	10/17/2018	10:46	-132.855	43.028	0	995.30	0	3.4690	0	34.6180	8	27.543	0	985.039	0	11.0	4	3.4	4	-1E+10	1	-1E+10	1	-1E+10	1	-1E+10	1	-1E+10	1	-1E+10	1
4901784	120	C	10/17/2018	10:46	-132.855	43.028	0	1000.50	0	3.4670	0	34.6190	8	27.544	0	990.173	0	11.0	4	3.4	4	-1E+10	1	-1E+10	1	-1E+10	1	-1E+10	1	-1E+10	1	-1E+10	1
4901784	120	C	10/17/2018	10:46	-132.855	43.028	0	1004.90	0	3.4600	0	34.6200	8	27.545	0	994.518	0	11.1	4	3.5	4	-1E+10	1	-1E+10	1	-1E+10	1	-1E+10	1	-1E+10	1	-1E+10	1
4901784	120	C	10/17/2018	10:46	-132.855	43.028	0	1009.30	0	3.4530	0	34.6220	8	27.548	0	998.862	0	11.1	4	3.5	4	-1E+10	1	-1E+10	1	-1E+10	1	-1E+10	1	-1E+10	1	-1E+10	1
4901784	120	C	10/17/2018	10:46	-132.855	43.028	0	1014.70	0	3.4450	0	34.6240	8	27.550	0	1004.193	0	11.2	4	3.5	4	-1E+10	1	-1E+10	1	-1E+10	1	-1E+10	1	-1E+10	1	-1E+10	1
4901784	120	C	10/17/2018	10:46	-132.855	43.028	0	1020.10	0	3.4350	0	34.6270	8	27.553	0	1009.524	0	11.3	4	3.5	4	-1E+10	1	-1E+10	1	-1E+10	1	-1E+10	1	-1E+10	1	-1E+10	1
4901784	120	C	10/17/2018	10:46	-132.855	43.028	0	1024.70	0	3.4290	0	34.6290	8	27.556	0	1014.065	0	11.4	4	3.6	4	-1E+10	1	-1E+10	1	-1E+10	1	-1E+10	1	-1E+10	1	-1E+10	1
4901784	120	C	10/17/2018	10:46	-132.855	43.028	0	1029.30	0	3.4260	0	34.6300	8	27.557	0	1018.606	0	11.4	4	3.6	4	-1E+10	1	-1E+10	1	-1E+10	1	-1E+10	1	-1E+10	1	-1E+10	1
4901784	120	C	10/17/2018	10:46	-132.855	43.028	0	1035.10	0	3.4160	0	34.6310	8	27.559	0	1024.332	0	11.5	4	3.6	4	-1E+10	1	-1E+10	1	-1E+10	1	-1E+10	1	-1E+10	1	-1E+10	1
4901784	120	C	10/17/2018	10:46	-132.855	43.028	0	1040.20	0	3.4000	0	34.6360	8	27.564	0	1029.366	0	11.7	4	3.6	4	-1E+10	1	-1E+10	1	-1E+10	1	-1E+10	1	-1E+10	1	-1E+10	1
4901784	120	C	10/17/2018	10:46	-132.855	43.028	0	1045.00	0	3.3870	0	34.6380	8	27.567	0	1034.104	0	11.7	4	3.7	4	-1E+10	1	-1E+10	1	-1E+10	1	-1E+10	1	-1E+10	1	-1E+10	1
4901784	120	C	10/17/2018	10:46	-132.855	43.028	0	1049.80	0	3.3810	0	34.6380	8	27.568	0	1038.843	0	11.8	4	3.7	4	-1E+10	1	-1E+10	1	-1E+10	1	-1E+10	1	-1E+10	1	-1E+10	1
4901784	120	C	10/17/2018	10:46	-132.855	43.028	0	1054.60	0	3.3630	0	34.6400	8	27.571	0	1043.580	0	11.9	4	3.7	4	-1E+10	1	-1E+10	1	-1E+10	1	-1E+10	1	-1E+10	1	-1E+10	1
4901784	120	C	10/17/2018	10:46	-132.855	43.028	0	1059.50	0	3.3480	0	34.6410	8	27.573	0	1048.417	0	11.9	4	3.7	4	-1E+10	1	-1E+10	1	-1E+10	1	-1E+10	1	-1E+10	1	-1E+10	1
4901784	120	C	10/17/2018	10:46	-132.855	43.028	0	1064.40	0	3.3320	0	34.6400	8	27.574	0	1053.254	0	11.9	4	3.7	4	-1E+10	1	-1E+10	1	-1E+10	1	-1E+10	1	-1E+10	1	-1E+10	1
4901784	120	C	10/17/2018	10:46	-132.855	43.028	0	1069.30	0	3.3160	0	34.6420	8	27.577	0	1058.090	0	12.0	4	3.7	4	-1E+10	1	-1E+10	1	-1E+10	1	-1E+10	1	-1E+10	1	-1E+10	1
4901784	120	C	10/17/2018	10:46	-132.855	43.028	0	1075.00	0	3.3030	0	34.6420	8	27.578	0	1063.716	0	12.1	4	3.8	4	-1E+10	1	-1E+10	1	-1E+10	1	-1E+10	1	-1E+10	1	-1E+10	1
4901784	120	C	10/17/2018	10:46	-132.855	43.028	0	1080.80	0	3.2770	0	34.6450	8	27.583	0	1069.440	0	12.3	4	3.8	4	-1E+10	1	-1E+10	1	-1E+10	1	-1E+10	1	-1E+10	1	-1E+10	1
4901784	120	C	10/17/2018	10:46	-132.855	43.028	0	1085.70	0	3.2650	0	34.6480	8	27.587	0	1074.276	0	12.4	4	3.9	4	-1E+10	1	-1E+10	1	-1E+10	1	-1E+10	1	-1E+10	1	-1E+10	1
4901784	120	C	10/17/2018	10:46	-132.855	43.028	0	1090.80	0	3.2600	0	34.6500	8	27.589	0	1079.309	0	12.5	4	3.9	4	-1E+10	1	-1E+10	1	-1E+10	1	-1E+10	1	-1E+10	1	-1E+10	1
4901784	120	C	10/17/2018	10:46	-132.855	43.028	0	1095.10	0	3.2390	0	34.6530	8	27.593	0	1083.553	0	12.6	4	3.9	4	-1E+10	1	-1E+10	1	-1E+10	1	-1E+10	1	-1E+10	1	-1E+10	1
4901784	120	C	10/17/2018	10:46	-132.855	43.028	0	1099.30	0	3.2290	0	34.6540	8	27.595	0	1087.698	0	12.7	4	4.0	4	-1E+10	1	-1E+10	1	-1E+10	1	-1E+10	1	-1E+10	1	-1E+10	1
4901784	120	C	10/17/2018	10:46	-132.855	43.028	0	1104.90	0	3.2130	0	34.6560	8	27.598	0	1093.224	0	12.9	4	4.0	4	-1E+10	1	-1E+10	1	-1E+10	1	-1E+10	1	-1E+10	1	-1E+10	1
4901784	120	C	10/17/2018	10:46	-132.855	43.028	0	1110.60	0	3.2000	0	34.6590	8	27.602	0	1098.849	0	13.1	4	4.1	4	-1E+10	1	-1E+10	1	-1E+10	1	-1E+10	1	-1E+10	1	-1E+10	1
4901784	120	C	10/17/2018	10:46	-132.855	43.028	0	1115.40	0	3.1940	0	34.6600	8	27.603	0	1103.585	0	13.1	4	4.1	4	-1E+10	1	-1E+10	1	-1E+10	1	-1E+10	1	-1E+10	1	-1E+10	1
4901784	120	C	10/17/2018	10:46	-132.855	43.028	0	1120.20	0	3.1830	0	34.6620	8	27.606	0	1108.322	0	13.3	4	4.1	4	-1E+10	1	-1E+10	1	-1E+10	1	-1E+10	1	-1E+10	1	-1E+10	1
4901784	120	C	10/17/2018	10:46	-132.855	43.028	0	1125.10	0	3.1800	0	34.6650	8	27.608	0	1113.157	0	13.4	4	4.2	4	-1E+10	1	-1E+10	1	-1E+10	1	-1E+10	1	-1E+10	1	-1E+10	1
4901784	120	C	10/17/2018	10:46	-132.855	43.028	0	1129.90	0	3.1790	0	34.6670	8	27.610	0	1117.893	0	13.6	4	4.2	4	-1E+10	1	-1E+10	1	-1E+10	1	-1E+10	1	-1E+10	1	-1E+10	1
4901784	120	C	10/17/2018	10:46	-132.855	43.028	0	1134.70	0	3.1810	0	34.6690	8	27.612	0	1122.629	0	13.7	4	4.2	4	-1E+10	1	-1E+10	1	-1E+10	1	-1E+10	1	-1E+10	1	-1E+10	1
4901784	120	C	10/17/2018	10:46	-132.855	43.028	0	1139.60	0	3.1660	0	34.6690	8	27.613	0	1127.464	0	13.7	4	4.3	4	-1E+10	1	-1E+10	1	-1E+10	1	-1E+10	1	-1E+10	1	-1E+10	1
4901784	120	C	10/17/2018	10:46	-132.855	43.028	0	1144.50	0	3.1460	0	34.6690	8	27.615	0	1132.299	0	13.7	4	4.3	4	-1E+10	1	-1E+10	1	-1E+10	1	-1E+10	1	-1E+10	1	-1E+10	1
4901784	120	C	10/17/2018	10:46	-132.855	43.028	0	1149.50	0	3.1390	0	34.6700	8	27.616	0	1137.232	0	13.8	4	4.3	4	-1E+10	1	-1E+10	1	-1E+10	1	-1E+10	1	-1E+10	1	-1E+10	1
4901784	120	C	10/17/2018	10:46	-132.855	43.028	0	1155.30	0	3.1290	0	34.6710	8	27.618	0	1142.954	0	14.0	4	4.3	4	-1E+10	1	-1E+10	1	-1E+10	1	-1E+10	1	-1E+10	1	-1E+10	1
4901784	120	C	10/17/2018	10:46	-132.855	43.028	0	1160.20	0	3.1200	0	34.6730	8	27.621	0	1147.788	0	14.1	4	4.4	4	-1E+10	1	-1E+10	1	-1E+10	1	-1E+10	1	-1E+10	1	-1E+10	1
4901784	120	C	10/17/2018	10:46	-132.855	43.028	0	1165.10	0	3.1050	0	34.6740	8	27.623	0	1152.623	0	14.4	4	4.5	4	-1E+10	1	-1E+10	1	-1E+10	1	-1E+10	1	-1E+10	1	-1E+10	1
4901784	120	C	10/17/2018	10:46	-132.855	43.028	0	1170.10	0	3.0900	0	34.6780	8	27.627	0	1157.555	0	14.6	4	4.5	4	-1E+10	1	-1E+10	1	-1E+10	1	-1E+10	1	-1E+10	1	-1E+10	1
4901784	120	C	10/17/2018	10:46	-132.855	43.028	0	1175.10	0	3.0850	0	34.6800	8	27.629	0	1162.488	0	14.8	4	4.6	4	-1E+10	1	-1E+10	1	-1E+10	1	-1E+10	1	-1E+10	1	-1E+10	1
4901784	120	C	10/17/2018	10:46	-132.855	43.028	0	1180.10	0	3.0840	0	34.6820	8	27.631	0	1167.420	0	15.0	4	4.6	4	-1E+10	1	-1E+10	1	-1E+10	1	-1E+10	1	-1E+10	1	-1E+10	1
4901784	120	C	10/17/2018	10:46	-132.855	43.028	0	1185.00	0	3.0800	0	34.6840	8	27.633	0	1172.254	0	15.1	4	4.7	4	-1E+10	1	-1E+10	1	-1E+10	1	-1E+10	1	-1E+10	1	-1E+10	1
4901784	120	C	10/17/2018	10:46	-132.855	43.028	0	1190.00	0	3.0720	0	34.6840	8	27.634	0	1177.186	0	15.2	4	4.7	4	-1E+10	1	-1E+10	1	-1E+10	1	-1E+10	1	-1E+10	1	-1E+10	1
4901784	120	C	10/17/2018	10:46	-132.855	43.028	0	1195.10	0	3.0640	0	34.6850	8	27.636	0	1182.217	0	15.3	4	4.7	4	-1E+10	1	-1E+10	1	-1E+10	1	-1E+10	1	-1E+10	1	-1E+10	1
4901784	120	C	10/17/2018	10:46	-132.855	43.028	0	1200.20	0	3.0540	0	34.6870	8	27.638	0	1187.248	0	15.5	4	4.8	4	-1E+10	1	-1E+10	1	-1E+10	1	-1E+10	1	-1E+10	1	-1E+10	1
4901784	120	C	10/17/2018	10:46	-132.855	43.028	0	1205.30	0	3.0430	0	34.6880	8	27.640	0	1192.278	0	15.7	4	4.8	4	-1E+10	1	-1E+10	1	-1E+10	1	-1E+10	1	-1E+10	1	-1E+10	1
4901784	120	C	10/17/2018	10:46	-132.855	43.028	0	1210.40	0	3.0340	0	34.6890	8	27.642	0	1197.309	0	15.8	4	4.9	4	-1E+10	1	-1E+10	1	-1E+10	1	-1E+10	1	-1E+10	1	-1E+10	1
4901784	120	C	10/17/2018	10:46	-132.855	43.028	0	1214.50	0	3.0240	0	34.6910	8	27.644	0	1201.353	0	16.1	4	5.0	4	-1E+10	1	-1E+10	1	-1E+10	1	-1E+10	1	-1E+10	1	-1E+10	1
4901784	120	C	10/17/2018	10:46	-132.855	43.028	0	1219.60	0	3.0150	0	34.6930	8	27.647	0	1206.383	0	16.2	4	5.0	4	-1E+10	1	-1E+10	1	-1E+10	1	-1E+10	1	-1E+10	1	-1E+10	1
4901784	120	C	10/17/2018	10:46	-132.855	43.028	0	1224.60	0	3.0130	0	34.6940	8	27.648	0	1211.314	0	16.4	4	5.1	4	-1E+10	1	-1E+10	1	-1E+10	1	-1E+10	1	-1E+10	1	-1E+10	1
4901784	120	C	10/17/2018	10:46	-132.855	43.028	0	1229.70	0	3.0000	0	34.6960	8	27.650	0	1216.344	0	16.6	4	5.1	4	-1E+10	1	-1E+10	1	-1E+10	1	-1E+10	1	-1E+10	1	-1E+10	1
4901784	120	C	10/17/2018	10:46	-132.855	43.028	0	1235.20	0	2.9850	0	34.6970	8	27.653	0	1221.768	0	16.6	4	5.1	4	-1E+10	1	-1E+10	1	-1E+10	1	-1E+10	1	-1E+10	1	-1E+10	1
4901784	120	C	10/17/2018	10:46	-132.855	43.028	0	1239.40	0	2.9770	0	34.6980	8	27.654	0	1225.911	0	16.8	4	5.2	4	-1E+10	1	-1E+10	1	-1E+10	1	-1E+10	1	-1E+10	1	-1E+10	1
4901784	120	C	10/17/2018	10:46	-132.855	43.028	0	1245.00	0	2.9690	0	34.7000	8	27.656	0	1231.433	0	17.0	4	5.3	4	-1E+10	1	-1E+10	1	-1E+10	1	-1E+10	1	-1E+10	1	-1E+10	1
4901784	120	C	10/17/2018	10:46	-132.855	43.028	0	1250.60	0	2.9530	0	34.7010	8	27.659	0	1236.956	0	17.1	4	5.3	4	-1E+10	1	-1E+10	1	-1E+10	1	-1E+10	1	-1E+10	1	-1E+10	1
4901784	120	C	10/17/2018	10:46	-132.855	43.028	0	1255.50	0	2.9460	0	34.7010	8	27.659	0	1241.788	0	17.2	4	5.3	4	-1E+10	1	-1E+10	1	-1E+10	1	-1E+10	1	-1E+10	1	-1E+10	1
4901784	120	C	10/17/2018	10:46	-132.855	43.028	0	1260.30	0	2.9380	0	34.7020	8	27.661	0	1246.521	0	17.4	4	5.4	4	-1E+10	1	-1E+10	1	-1E+10	1	-1E+10	1	-1E+10	1	-1E+10	1
4901784	120	C	10/17/2018	10:46	-132.855	43.028	0	1265.20	0	2.9310	0	34.7040	8	27.663	0	1251.353	0	17.6	4	5.4	4	-1E+10	1	-1E+10	1	-1E+10	1	-1E+10	1	-1E+10	1	-1E+10	1
4901784	120	C	10/17/2018	10:46	-132.855	43.028	0	1270.10	0	2.9250	0	34.7040	8	27.664	0	1256.185	0	17.8	4	5.5	4	-1E+10	1	-1E+10	1	-1E+10	1	-1E+10	1	-1E+10	1	-1E+10	1
4901784	120	C	10/17/2018	10:46	-132.855	43.028	0	1275.00	0	2.9170	0	34.7060	8	27.666	0	1261.016	0	18.1	4	5.6	4	-1E+10	1	-1E+10	1	-1E+10	1	-1E+10	1	-1E+10	1	-1E+10	1
4901784	120	C	10/17/2018	10:46	-132.855	43.028	0	1280.00	0	2.9090	0	34.7080	8	27.668	0	1265.947	0	18.5	4	5.7	4	-1E+10	1	-1E+10	1	-1E+10	1	-1E+10	1	-1E+10	1	-1E+10	1
4901784	120	C	10/17/2018	10:46	-132.855	43.028	0	1285.00	0	2.9040	0	34.7110	8	27.671	0	1270.877	0	18.8	4	5.8	4	-1E+10	1	-1E+10	1	-1E+10	1	-1E+10	1	-1E+10	1	-1E+10	1
4901784	120	C	10/17/2018	10:46	-132.855	43.028	0	1290.00	0	2.8920	0	34.7110	8	27.672	0	1275.807	0	19.1	4	5.9	4	-1E+10	1	-1E+10	1	-1E+10	1	-1E+10	1	-1E+10	1	-1E+10	1
4901784	120	C	10/17/2018	10:46	-132.855	43.028	0	1295.00	0	2.8720	0	34.7150	8	27.677	0	1280.736	0	19.5	4	6.0	4	-1E+10	1	-1E+10	1	-1E+10	1	-1E+10	1	-1E+10	1	-1E+10	1
4901784	120	C	10/17/2018	10:46	-132.855	43.028	0	1300.00	0	2.8620	0	34.7160	8	27.679	0	1285.666	0	19.8	4	6.1	4	-1E+10	1	-1E+10	1	-1E+10	1	-1E+10	1	-1E+10	1	-1E+10	1
4901784	120	C	10/17/2018	10:46	-132.855	43.028	0	1305.10	0	2.8530	0	34.7180	8	27.682	0	1290.694	0	20.1	4	6.2	4	-1E+10	1	-1E+10	1	-1E+10	1	-1E+10	1	-1E+10	1	-1E+10	1
4901784	120	C	10/17/2018	10:46	-132.855	43.028	0	1310.10	0	2.8450	0	34.7190	8	27.683	0	1295.624	0	20.3	4	6.3	4	-1E+10	1	-1E+10	1	-1E+10	1	-1E+10	1	-1E+10	1	-1E+10	1
4901784	120	C	10/17/2018	10:46	-132.855	43.028	0	1315.30	0	2.8330	0	34.7210	8	27.686	0	1300.750	0	20.5	4	6.3	4	-1E+10	1	-1E+10	1	-1E+10	1	-1E+10	1	-1E+10	1	-1E+10	1
4901784	120	C	10/17/2018	10:46	-132.855	43.028	0	1320.40	0	2.8220	0	34.7220	8	27.688	0	1305.778	0	20.7	4	6.4	4	-1E+10	1	-1E+10	1	-1E+10	1	-1E+10	1	-1E+10	1	-1E+10	1
4901784	120	C	10/17/2018	10:46	-132.855	43.028	0	1325.50	0	2.8140	0	34.7230	8	27.689	0	1310.806	0	21.0	4	6.5	4	-1E+10	1	-1E+10	1	-1E+10	1	-1E+10	1	-1E+10	1	-1E+10	1
4901784	120	C	10/17/2018	10:46	-132.855	43.028	0	1330.60	0	2.8090	0	34.7240	8	27.690	0	1315.833	0	21.2	4	6.5	4	-1E+10	1	-1E+10	1	-1E+10	1	-1E+10	1	-1E+10	1	-1E+10	1
4901784	120	C	10/17/2018	10:46	-132.855	43.028	0	1335.80	0	2.8020	0	34.7250	8	27.692	0	1320.959	0	21.5	4	6.6	4	-1E+10	1	-1E+10	1	-1E+10	1	-1E+10	1	-1E+10	1	-1E+10	1
4901784	120	C	10/17/2018	10:46	-132.855	43.028	0	1340.00	0	2.7960	0	34.7260	8	27.693	0	1325.099	0	21.7	4	6.7	4	-1E+10	1	-1E+10	1	-1E+10	1	-1E+10	1	-1E+10	1	-1E+10	1
4901784	120	C	10/17/2018	10:46	-132.855	43.028	0	1344.40	0	2.7880	0	34.7270	8	27.695	0	1329.436	0	21.9	4	6.7	4	-1E+10	1	-1E+10	1	-1E+10	1	-1E+10	1	-1E+10	1	-1E+10	1
4901784	120	C	10/17/2018	10:46	-132.855	43.028	0	1349.60	0	2.7780	0	34.7280	8	27.696	0	1334.562	0	22.1	4	6.8	4	-1E+10	1	-1E+10	1	-1E+10	1	-1E+10	1	-1E+10	1	-1E+10	1
4901784	120	C	10/17/2018	10:46	-132.855	43.028	0	1354.80	0	2.7700	0	34.7290	8	27.698	0	1339.688	0	22.3	4	6.9	4	-1E+10	1	-1E+10	1	-1E+10	1	-1E+10	1	-1E+10	1	-1E+10	1
4901784	120	C	10/17/2018	10:46	-132.855	43.028	0	1360.00	0	2.7560	0	34.7310	8	27.701	0	1344.813	0	22.5	4	6.9	4	-1E+10	1	-1E+10	1	-1E+10	1	-1E+10	1	-1E+10	1	-1E+10	1
4901784	120	C	10/17/2018	10:46	-132.855	43.028	0	1365.40	0	2.7500	0	34.7310	8	27.701	0	1350.136	0	22.6	4	7.0	4	-1E+10	1	-1E+10	1	-1E+10	1	-1E+10	1	-1E+10	1	-1E+10	1
4901784	120	C	10/17/2018	10:46	-132.855	43.028	0	1369.80	0	2.7430	0	34.7320	8	27.703	0	1354.472	0	22.8	4	7.0	4	-1E+10	1	-1E+10	1	-1E+10	1	-1E+10	1	-1E+10	1	-1E+10	1
4901784	120	C	10/17/2018	10:46	-132.855	43.028	0	1374.30	0	2.7310	0	34.7320	8	27.704	0	1358.907	0	22.9	4	7.0	4	-1E+10	1	-1E+10	1	-1E+10	1	-1E+10	1	-1E+10	1	-1E+10	1
4901784	120	C	10/17/2018	10:46	-132.855	43.028	0	1379.60	0	2.7100	0	34.7340	8	27.707	0	1364.131	0	23.0	4	7.1	4	-1E+10	1	-1E+10	1	-1E+10	1	-1E+10	1	-1E+10	1	-1E+10	1
4901784	120	C	10/17/2018	10:46	-132.855	43.028	0	1384.90	0	2.7000	0	34.7350	8	27.709	0	1369.354	0	23.2	4	7.1	4	-1E+10	1	-1E+10	1	-1E+10	1	-1E+10	1	-1E+10	1	-1E+10	1
4901784	120	C	10/17/2018	10:46	-132.855	43.028	0	1390.40	0	2.6910	0	34.7350	8	27.710	0	1374.775	0	23.3	4	7.1	4	-1E+10	1	-1E+10	1	-1E+10	1	-1E+10	1	-1E+10	1	-1E+10	1
4901784	120	C	10/17/2018	10:46	-132.855	43.028	0	1394.90	0	2.6860	0	34.7350	8	27.710	0	1379.209	0	23.4	4	7.2	4	-1E+10	1	-1E+10	1	-1E+10	1	-1E+10	1	-1E+10	1	-1E+10	1
4901784	120	C	10/17/2018	10:46	-132.855	43.028	0	1399.50	0	2.6790	0	34.7360	8	27.712	0	1383.742	0	23.5	4	7.2	4	-1E+10	1	-1E+10	1	-1E+10	1	-1E+10	1	-1E+10	1	-1E+10	1
4901784	120	C	10/17/2018	10:46	-132.855	43.028	0	1405.00	0	2.6680	0	34.7370	8	27.714	0	1389.162	0	23.8	4	7.3	4	-1E+10	1	-1E+10	1	-1E+10	1	-1E+10	1	-1E+10	1	-1E+10	1
4901784	120	C	10/17/2018	10:46	-132.855	43.028	0	1410.50	0	2.6550	0	34.7380	8	27.716	0	1394.582	0	24.2	4	7.4	4	-1E+10	1	-1E+10	1	-1E+10	1	-1E+10	1	-1E+10	1	-1E+10	1
4901784	120	C	10/17/2018	10:46	-132.855	43.028	0	1415.10	0	2.6470	0	34.7400	8	27.718	0	1399.115	0	24.6	4	7.5	4	-1E+10	1	-1E+10	1	-1E+10	1	-1E+10	1	-1E+10	1	-1E+10	1
4901784	120	C	10/17/2018	10:46	-132.855	43.028	0	1419.70	0	2.6390	0	34.7410	8	27.719	0	1403.648	0	24.8	4	7.6	4	-1E+10	1	-1E+10	1	-1E+10	1	-1E+10	1	-1E+10	1	-1E+10	1
4901784	120	C	10/17/2018	10:46	-132.855	43.028	0	1425.30	0	2.6300	0	34.7420	8	27.721	0	1409.166	0	24.9	4	7.6	4	-1E+10	1	-1E+10	1	-1E+10	1	-1E+10	1	-1E+10	1	-1E+10	1
4901784	120	C	10/17/2018	10:46	-132.855	43.028	0	1429.90	0	2.6200	0	34.7430	8	27.723	0	1413.698	0	24.9	4	7.6	4	-1E+10	1	-1E+10	1	-1E+10	1	-1E+10	1	-1E+10	1	-1E+10	1
4901784	120	C	10/17/2018	10:46	-132.855	43.028	0	1434.50	0	2.6170	0	34.7430	8	27.723	0	1418.231	0	25.0	4	7.7	4	-1E+10	1	-1E+10	1	-1E+10	1	-1E+10	1	-1E+10	1	-1E+10	1
4901784	120	C	10/17/2018	10:46	-132.855	43.028	0	1440.10	0	2.6130	0	34.7430	8	27.723	0	1423.748	0	25.1	4	7.7	4	-1E+10	1	-1E+10	1	-1E+10	1	-1E+10	1	-1E+10	1	-1E+10	1
4901784	120	C	10/17/2018	10:46	-132.855	43.028	0	1444.80	0	2.6020	0	34.7450	8	27.726	0	1428.379	0	25.4	4	7.8	4	-1E+10	1	-1E+10	1	-1E+10	1	-1E+10	1	-1E+10	1	-1E+10	1
4901784	120	C	10/17/2018	10:46	-132.855	43.028	0	1449.50	0	2.5910	0	34.7460	8	27.728	0	1433.010	0	25.8	4	7.9	4	-1E+10	1	-1E+10	1	-1E+10	1	-1E+10	1	-1E+10	1	-1E+10	1
4901784	120	C	10/17/2018	10:46	-132.855	43.028	0	1454.80	0	2.5800	0	34.7480	8	27.730	0	1438.232	0	26.2	4	8.0	4	-1E+10	1	-1E+10	1	-1E+10	1	-1E+10	1	-1E+10	1	-1E+10	1
4901784	120	C	10/17/2018	10:46	-132.855	43.028	0	1460.00	0	2.5700	0	34.7490	8	27.732	0	1443.355	0	26.5	4	8.1	4	-1E+10	1	-1E+10	1	-1E+10	1	-1E+10	1	-1E+10	1	-1E+10	1
4901784	120	C	10/17/2018	10:46	-132.855	43.028	0	1465.70	0	2.5590	0	34.7500	8	27.734	0	1448.970	0	26.6	4	8.1	4	-1E+10	1	-1E+10	1	-1E+10	1	-1E+10	1	-1E+10	1	-1E+10	1
4901784	120	C	10/17/2018	10:46	-132.855	43.028	0	1470.70	0	2.5510	0	34.7510	8	27.735	0	1453.896	0	26.8	4	8.2	4	-1E+10	1	-1E+10	1	-1E+10	1	-1E+10	1	-1E+10	1	-1E+10	1
4901784	120	C	10/17/2018	10:46	-132.855	43.028	0	1475.80	0	2.5430	0	34.7520	8	27.737	0	1458.920	0	27.2	4	8.3	4	-1E+10	1	-1E+10	1	-1E+10	1	-1E+10	1	-1E+10	1	-1E+10	1
4901784	120	C	10/17/2018	10:46	-132.855	43.028	0	1480.10	0	2.5330	0	34.7540	8	27.739	0	1463.156	0	27.3	4	8.3	4	-1E+10	1	-1E+10	1	-1E+10	1	-1E+10	1	-1E+10	1	-1E+10	1
4901784	120	C	10/17/2018	10:46	-132.855	43.028	0	1484.20	0	2.5260	0	34.7540	8	27.740	0	1467.195	0	27.4	4	8.4	4	-1E+10	1	-1E+10	1	-1E+10	1	-1E+10	1	-1E+10	1	-1E+10	1
4901784	120	C	10/17/2018	10:46	-132.855	43.028	0	1489.40	0	2.5220	0	34.7550	8	27.741	0	1472.317	0	27.5	4	8.4	4	-1E+10	1	-1E+10	1	-1E+10	1	-1E+10	1	-1E+10	1	-1E+10	1
4901784	120	C	10/17/2018	10:46	-132.855	43.028	0	1494.50	0	2.5120	0	34.7550	8	27.742	0	1477.341	0	28.0	4	8.6	4	-1E+10	1	-1E+10	1	-1E+10	1	-1E+10	1	-1E+10	1	-1E+10	1
4901784	120	C	10/17/2018	10:46	-132.855	43.028	0	1499.70	0	2.5030	0	34.7570	8	27.744	0	1482.463	0	28.3	4	8.6	4	-1E+10	1	-1E+10	1	-1E+10	1	-1E+10	1	-1E+10	1	-1E+10	1
4901784	120	C	10/17/2018	10:46	-132.855	43.028	0	1505.00	0	2.4960	0	34.7580	8	27.746	0	1487.683	0	28.4	4	8.7	4	-1E+10	1	-1E+10	1	-1E+10	1	-1E+10	1	-1E+10	1	-1E+10	1
4901784	120	C	10/17/2018	10:46	-132.855	43.028	0	1510.20	0	2.4910	0	34.7580	8	27.746	0	1492.805	0	28.5	4	8.7	4	-1E+10	1	-1E+10	1	-1E+10	1	-1E+10	1	-1E+10	1	-1E+10	1
4901784	120	C	10/17/2018	10:46	-132.855	43.028	0	1515.50	0	2.4820	0	34.7590	8	27.748	0	1498.025	0	28.9	4	8.8	4	-1E+10	1	-1E+10	1	-1E+10	1	-1E+10	1	-1E+10	1	-1E+10	1
4901784	120	C	10/17/2018	10:46	-132.855	43.028	0	1520.70	0	2.4760	0	34.7600	8	27.749	0	1503.147	0	29.4	4	9.0	4	-1E+10	1	-1E+10	1	-1E+10	1	-1E+10	1	-1E+10	1	-1E+10	1
4901784	120	C	10/17/2018	10:46	-132.855	43.028	0	1525.10	0	2.4690	0	34.7610	8	27.750	0	1507.480	0	29.8	4	9.1	4	-1E+10	1	-1E+10	1	-1E+10	1	-1E+10	1	-1E+10	1	-1E+10	1
4901784	120	C	10/17/2018	10:46	-132.855	43.028	0	1529.50	0	2.4650	0	34.7620	8	27.752	0	1511.814	0	30.3	4	9.2	4	-1E+10	1	-1E+10	1	-1E+10	1	-1E+10	1	-1E+10	1	-1E+10	1
4901784	120	C	10/17/2018	10:46	-132.855	43.028	0	1534.90	0	2.4560	0	34.7640	8	27.754	0	1517.132	0	30.7	4	9.4	4	-1E+10	1	-1E+10	1	-1E+10	1	-1E+10	1	-1E+10	1	-1E+10	1
4901784	120	C	10/17/2018	10:46	-132.855	43.028	0	1540.20	0	2.4520	0	34.7650	8	27.755	0	1522.351	0	30.8	4	9.4	4	-1E+10	1	-1E+10	1	-1E+10	1	-1E+10	1	-1E+10	1	-1E+10	1
4901784	120	C	10/17/2018	10:46	-132.855	43.028	0	1545.70	0	2.4500	0	34.7650	8	27.755	0	1527.768	0	31.0	4	9.5	4	-1E+10	1	-1E+10	1	-1E+10	1	-1E+10	1	-1E+10	1	-1E+10	1
4901784	120	C	10/17/2018	10:46	-132.855	43.028	0	1550.20	0	2.4440	0	34.7650	8	27.756	0	1532.199	0	31.2	4	9.5	4	-1E+10	1	-1E+10	1	-1E+10	1	-1E+10	1	-1E+10	1	-1E+10	1
4901784	120	C	10/17/2018	10:46	-132.855	43.028	0	1554.70	0	2.4390	0	34.7660	8	27.757	0	1536.631	0	31.5	4	9.6	4	-1E+10	1	-1E+10	1	-1E+10	1	-1E+10	1	-1E+10	1	-1E+10	1
4901784	120	C	10/17/2018	10:46	-132.855	43.028	0	1560.10	0	2.4330	0	34.7670	8	27.758	0	1541.948	0	31.9	4	9.7	4	-1E+10	1	-1E+10	1	-1E+10	1	-1E+10	1	-1E+10	1	-1E+10	1
4901784	120	C	10/17/2018	10:46	-132.855	43.028	0	1565.60	0	2.4260	0	34.7680	8	27.760	0	1547.364	0	32.1	4	9.8	4	-1E+10	1	-1E+10	1	-1E+10	1	-1E+10	1	-1E+10	1	-1E+10	1
4901784	120	C	10/17/2018	10:46	-132.855	43.028	0	1570.20	0	2.4220	0	34.7690	8	27.761	0	1551.894	0	32.4	4	9.9	4	-1E+10	1	-1E+10	1	-1E+10	1	-1E+10	1	-1E+10	1	-1E+10	1
4901784	120	C	10/17/2018	10:46	-132.855	43.028	0	1574.70	0	2.4120	0	34.7700	8	27.763	0	1556.325	0	32.8	4	10.0	4	-1E+10	1	-1E+10	1	-1E+10	1	-1E+10	1	-1E+10	1	-1E+10	1
4901784	120	C	10/17/2018	10:46	-132.855	43.028	0	1580.20	0	2.4010	0	34.7710	8	27.764	0	1561.740	0	33.2	4	10.1	4	-1E+10	1	-1E+10	1	-1E+10	1	-1E+10	1	-1E+10	1	-1E+10	1
4901784	120	C	10/17/2018	10:46	-132.855	43.028	0	1584.90	0	2.3950	0	34.7720	8	27.766	0	1566.368	0	33.5	4	10.2	4	-1E+10	1	-1E+10	1	-1E+10	1	-1E+10	1	-1E+10	1	-1E+10	1
4901784	120	C	10/17/2018	10:46	-132.855	43.028	0	1589.50	0	2.3850	0	34.7730	8	27.767	0	1570.897	0	33.8	4	10.3	4	-1E+10	1	-1E+10	1	-1E+10	1	-1E+10	1	-1E+10	1	-1E+10	1
4901784	120	C	10/17/2018	10:46	-132.855	43.028	0	1595.00	0	2.3790	0	34.7740	8	27.769	0	1576.312	0	34.0	4	10.4	4	-1E+10	1	-1E+10	1	-1E+10	1	-1E+10	1	-1E+10	1	-1E+10	1
4901784	120	C	10/17/2018	10:46	-132.855	43.028	0	1600.60	0	2.3760	0	34.7740	8	27.769	0	1581.826	0	34.3	4	10.5	4	-1E+10	1	-1E+10	1	-1E+10	1	-1E+10	1	-1E+10	1	-1E+10	1
4901784	120	C	10/17/2018	10:46	-132.855	43.028	0	1605.30	0	2.3660	0	34.7750	8	27.771	0	1586.453	0	34.7	4	10.6	4	-1E+10	1	-1E+10	1	-1E+10	1	-1E+10	1	-1E+10	1	-1E+10	1
4901784	120	C	10/17/2018	10:46	-132.855	43.028	0	1609.90	0	2.3570	0	34.7770	8	27.773	0	1590.982	0	35.0	4	10.7	4	-1E+10	1	-1E+10	1	-1E+10	1	-1E+10	1	-1E+10	1	-1E+10	1
4901784	120	C	10/17/2018	10:46	-132.855	43.028	0	1614.80	0	2.3490	0	34.7770	8	27.774	0	1595.806	0	35.4	4	10.8	4	-1E+10	1	-1E+10	1	-1E+10	1	-1E+10	1	-1E+10	1	-1E+10	1
4901784	120	C	10/17/2018	10:46	-132.855	43.028	0	1619.70	0	2.3380	0	34.7790	8	27.776	0	1600.630	0	35.7	4	10.9	4	-1E+10	1	-1E+10	1	-1E+10	1	-1E+10	1	-1E+10	1	-1E+10	1
4901784	120	C	10/17/2018	10:46	-132.855	43.028	0	1624.60	0	2.3320	0	34.7800	8	27.778	0	1605.453	0	35.9	4	10.9	4	-1E+10	1	-1E+10	1	-1E+10	1	-1E+10	1	-1E+10	1	-1E+10	1
4901784	120	C	10/17/2018	10:46	-132.855	43.028	0	1629.60	0	2.3280	0	34.7800	8	27.778	0	1610.375	0	36.2	4	11.0	4	-1E+10	1	-1E+10	1	-1E+10	1	-1E+10	1	-1E+10	1	-1E+10	1
4901784	120	C	10/17/2018	10:46	-132.855	43.028	0	1634.60	0	2.3200	0	34.7810	8	27.779	0	1615.297	0	36.5	4	11.1	4	-1E+10	1	-1E+10	1	-1E+10	1	-1E+10	1	-1E+10	1	-1E+10	1
4901784	120	C	10/17/2018	10:46	-132.855	43.028	0	1639.60	0	2.3160	0	34.7820	8	27.781	0	1620.219	0	36.8	4	11.2	4	-1E+10	1	-1E+10	1	-1E+10	1	-1E+10	1	-1E+10	1	-1E+10	1
4901784	120	C	10/17/2018	10:46	-132.855	43.028	0	1644.60	0	2.3100	0	34.7820	8	27.781	0	1625.141	0	37.2	4	11.3	4	-1E+10	1	-1E+10	1	-1E+10	1	-1E+10	1	-1E+10	1	-1E+10	1
4901784	120	C	10/17/2018	10:46	-132.855	43.028	0	1649.70	0	2.3010	0	34.7840	8	27.783	0	1630.161	0	37.4	4	11.4	4	-1E+10	1	-1E+10	1	-1E+10	1	-1E+10	1	-1E+10	1	-1E+10	1
4901784	120	C	10/17/2018	10:46	-132.855	43.028	0	1654.80	0	2.2970	0	34.7840	8	27.784	0	1635.181	0	37.7	4	11.5	4	-1E+10	1	-1E+10	1	-1E+10	1	-1E+10	1	-1E+10	1	-1E+10	1
4901784	120	C	10/17/2018	10:46	-132.855	43.028	0	1659.90	0	2.2910	0	34.7850	8	27.785	0	1640.201	0	37.9	4	11.5	4	-1E+10	1	-1E+10	1	-1E+10	1	-1E+10	1	-1E+10	1	-1E+10	1
4901784	120	C	10/17/2018	10:46	-132.855	43.028	0	1665.00	0	2.2850	0	34.7860	8	27.786	0	1645.220	0	38.2	4	11.6	4	-1E+10	1	-1E+10	1	-1E+10	1	-1E+10	1	-1E+10	1	-1E+10	1
4901784	120	C	10/17/2018	10:46	-132.855	43.028	0	1670.10	0	2.2790	0	34.7870	8	27.788	0	1650.240	0	38.5	4	11.7	4	-1E+10	1	-1E+10	1	-1E+10	1	-1E+10	1	-1E+10	1	-1E+10	1
4901784	120	C	10/17/2018	10:46	-132.855	43.028	0	1675.30	0	2.2750	0	34.7870	8	27.788	0	1655.358	0	38.7	4	11.8	4	-1E+10	1	-1E+10	1	-1E+10	1	-1E+10	1	-1E+10	1	-1E+10	1
4901784	120	C	10/17/2018	10:46	-132.855	43.028	0	1680.40	0	2.2690	0	34.7880	8	27.789	0	1660.377	0	38.9	4	11.8	4	-1E+10	1	-1E+10	1	-1E+10	1	-1E+10	1	-1E+10	1	-1E+10	1
4901784	120	C	10/17/2018	10:46	-132.855	43.028	0	1685.50	0	2.2640	0	34.7890	8	27.791	0	1665.396	0	39.1	4	11.9	4	-1E+10	1	-1E+10	1	-1E+10	1	-1E+10	1	-1E+10	1	-1E+10	1
4901784	120	C	10/17/2018	10:46	-132.855	43.028	0	1690.60	0	2.2600	0	34.7890	8	27.791	0	1670.416	0	39.3	4	11.9	4	-1E+10	1	-1E+10	1	-1E+10	1	-1E+10	1	-1E+10	1	-1E+10	1
4901784	120	C	10/17/2018	10:46	-132.855	43.028	0	1695.00	0	2.2550	0	34.7900	8	27.792	0	1674.746	0	39.5	4	12.0	4	-1E+10	1	-1E+10	1	-1E+10	1	-1E+10	1	-1E+10	1	-1E+10	1
4901784	120	C	10/17/2018	10:46	-132.855	43.028	0	1699.30	0	2.2500	0	34.7900	8	27.793	0	1678.977	0	39.4	4	12.0	4	-1E+10	1	-1E+10	1	-1E+10	1	-1E+10	1	-1E+10	1	-1E+10	1
4901784	120	C	10/17/2018	10:46	-132.855	43.028	0	1704.40	0	2.2470	0	34.7900	8	27.793	0	1683.996	0	39.5	4	12.0	4	-1E+10	1	-1E+10	1	-1E+10	1	-1E+10	1	-1E+10	1	-1E+10	1
4901784	120	C	10/17/2018	10:46	-132.855	43.028	0	1709.50	0	2.2390	0	34.7900	8	27.794	0	1689.015	0	39.7	4	12.1	4	-1E+10	1	-1E+10	1	-1E+10	1	-1E+10	1	-1E+10	1	-1E+10	1
4901784	120	C	10/17/2018	10:46	-132.855	43.028	0	1714.70	0	2.2310	0	34.7920	8	27.796	0	1694.132	0	40.2	4	12.2	4	-1E+10	1	-1E+10	1	-1E+10	1	-1E+10	1	-1E+10	1	-1E+10	1
4901784	120	C	10/17/2018	10:46	-132.855	43.028	0	1719.90	0	2.2240	0	34.7930	8	27.797	0	1699.248	0	40.8	4	12.4	4	-1E+10	1	-1E+10	1	-1E+10	1	-1E+10	1	-1E+10	1	-1E+10	1
4901784	120	C	10/17/2018	10:46	-132.855	43.028	0	1725.10	0	2.2190	0	34.7940	8	27.799	0	1704.365	0	41.4	4	12.6	4	-1E+10	1	-1E+10	1	-1E+10	1	-1E+10	1	-1E+10	1	-1E+10	1
4901784	120	C	10/17/2018	10:46	-132.855	43.028	0	1730.40	0	2.2080	0	34.7950	8	27.800	0	1709.580	0	41.8	4	12.7	4	-1E+10	1	-1E+10	1	-1E+10	1	-1E+10	1	-1E+10	1	-1E+10	1
4901784	120	C	10/17/2018	10:46	-132.855	43.028	0	1735.70	0	2.2020	0	34.7960	8	27.802	0	1714.795	0	42.2	4	12.8	4	-1E+10	1	-1E+10	1	-1E+10	1	-1E+10	1	-1E+10	1	-1E+10	1
4901784	120	C	10/17/2018	10:46	-132.855	43.028	0	1740.10	0	2.1960	0	34.7970	8	27.803	0	1719.124	0	42.6	4	12.9	4	-1E+10	1	-1E+10	1	-1E+10	1	-1E+10	1	-1E+10	1	-1E+10	1
4901784	120	C	10/17/2018	10:46	-132.855	43.028	0	1744.60	0	2.1910	0	34.7980	8	27.804	0	1723.552	0	42.9	4	13.0	4	-1E+10	1	-1E+10	1	-1E+10	1	-1E+10	1	-1E+10	1	-1E+10	1
4901784	120	C	10/17/2018	10:46	-132.855	43.028	0	1750.10	0	2.1860	0	34.7990	8	27.805	0	1728.963	0	43.3	4	13.1	4	-1E+10	1	-1E+10	1	-1E+10	1	-1E+10	1	-1E+10	1	-1E+10	1
4901784	120	C	10/17/2018	10:46	-132.855	43.028	0	1755.50	0	2.1800	0	34.7990	8	27.806	0	1734.276	0	43.7	4	13.2	4	-1E+10	1	-1E+10	1	-1E+10	1	-1E+10	1	-1E+10	1	-1E+10	1
4901784	120	C	10/17/2018	10:46	-132.855	43.028	0	1760.00	0	2.1760	0	34.8000	8	27.807	0	1738.703	0	44.0	4	13.3	4	-1E+10	1	-1E+10	1	-1E+10	1	-1E+10	1	-1E+10	1	-1E+10	1
4901784	120	C	10/17/2018	10:46	-132.855	43.028	0	1764.60	0	2.1710	0	34.8010	8	27.808	0	1743.228	0	44.3	4	13.4	4	-1E+10	1	-1E+10	1	-1E+10	1	-1E+10	1	-1E+10	1	-1E+10	1
4901784	120	C	10/17/2018	10:46	-132.855	43.028	0	1770.00	0	2.1670	0	34.8010	8	27.809	0	1748.541	0	44.6	4	13.5	4	-1E+10	1	-1E+10	1	-1E+10	1	-1E+10	1	-1E+10	1	-1E+10	1
4901784	120	C	10/17/2018	10:46	-132.855	43.028	0	1775.50	0	2.1600	0	34.8020	8	27.810	0	1753.951	0	44.9	4	13.6	4	-1E+10	1	-1E+10	1	-1E+10	1	-1E+10	1	-1E+10	1	-1E+10	1
4901784	120	C	10/17/2018	10:46	-132.855	43.028	0	1780.00	0	2.1570	0	34.8030	8	27.811	0	1758.378	0	45.1	4	13.7	4	-1E+10	1	-1E+10	1	-1E+10	1	-1E+10	1	-1E+10	1	-1E+10	1
4901784	120	C	10/17/2018	10:46	-132.855	43.028	0	1784.60	0	2.1520	0	34.8030	8	27.811	0	1762.903	0	45.4	4	13.8	4	-1E+10	1	-1E+10	1	-1E+10	1	-1E+10	1	-1E+10	1	-1E+10	1
4901784	120	C	10/17/2018	10:46	-132.855	43.028	0	1790.10	0	2.1470	0	34.8040	8	27.813	0	1768.313	0	45.7	4	13.9	4	-1E+10	1	-1E+10	1	-1E+10	1	-1E+10	1	-1E+10	1	-1E+10	1
4901784	120	C	10/17/2018	10:46	-132.855	43.028	0	1794.80	0	2.1400	0	34.8050	8	27.814	0	1772.936	0	46.1	4	14.0	4	-1E+10	1	-1E+10	1	-1E+10	1	-1E+10	1	-1E+10	1	-1E+10	1
4901784	120	C	10/17/2018	10:46	-132.855	43.028	0	1799.40	0	2.1360	0	34.8050	8	27.814	0	1777.461	0	46.4	4	14.1	4	-1E+10	1	-1E+10	1	-1E+10	1	-1E+10	1	-1E+10	1	-1E+10	1
4901784	120	C	10/17/2018	10:46	-132.855	43.028	0	1805.00	0	2.1250	0	34.8060	8	27.816	0	1782.969	0	46.9	4	14.2	4	-1E+10	1	-1E+10	1	-1E+10	1	-1E+10	1	-1E+10	1	-1E+10	1
4901784	120	C	10/17/2018	10:46	-132.855	43.028	0	1810.50	0	2.1160	0	34.8070	8	27.818	0	1788.379	0	47.4	4	14.4	4	-1E+10	1	-1E+10	1	-1E+10	1	-1E+10	1	-1E+10	1	-1E+10	1
4901784	120	C	10/17/2018	10:46	-132.855	43.028	0	1815.40	0	2.1060	0	34.8080	8	27.819	0	1793.199	0	47.9	4	14.5	4	-1E+10	1	-1E+10	1	-1E+10	1	-1E+10	1	-1E+10	1	-1E+10	1
4901784	120	C	10/17/2018	10:46	-132.855	43.028	0	1820.40	0	2.0980	0	34.8090	8	27.821	0	1798.116	0	48.1	4	14.6	4	-1E+10	1	-1E+10	1	-1E+10	1	-1E+10	1	-1E+10	1	-1E+10	1
4901784	120	C	10/17/2018	10:46	-132.855	43.028	0	1825.30	0	2.0960	0	34.8090	8	27.821	0	1802.936	0	48.3	4	14.6	4	-1E+10	1	-1E+10	1	-1E+10	1	-1E+10	1	-1E+10	1	-1E+10	1
4901784	120	C	10/17/2018	10:46	-132.855	43.028	0	1830.30	0	2.0940	0	34.8100	8	27.822	0	1807.853	0	48.7	4	14.7	4	-1E+10	1	-1E+10	1	-1E+10	1	-1E+10	1	-1E+10	1	-1E+10	1
4901784	120	C	10/17/2018	10:46	-132.855	43.028	0	1835.30	0	2.0870	0	34.8110	8	27.823	0	1812.770	0	49.1	4	14.9	4	-1E+10	1	-1E+10	1	-1E+10	1	-1E+10	1	-1E+10	1	-1E+10	1
4901784	120	C	10/17/2018	10:46	-132.855	43.028	0	1840.30	0	2.0820	0	34.8120	8	27.825	0	1817.688	0	49.4	4	14.9	4	-1E+10	1	-1E+10	1	-1E+10	1	-1E+10	1	-1E+10	1	-1E+10	1
4901784	120	C	10/17/2018	10:46	-132.855	43.028	0	1845.30	0	2.0760	0	34.8120	8	27.825	0	1822.605	0	49.6	4	15.0	4	-1E+10	1	-1E+10	1	-1E+10	1	-1E+10	1	-1E+10	1	-1E+10	1
4901784	120	C	10/17/2018	10:46	-132.855	43.028	0	1850.40	0	2.0730	0	34.8130	8	27.826	0	1827.620	0	49.9	4	15.1	4	-1E+10	1	-1E+10	1	-1E+10	1	-1E+10	1	-1E+10	1	-1E+10	1
4901784	120	C	10/17/2018	10:46	-132.855	43.028	0	1855.50	0	2.0680	0	34.8130	8	27.827	0	1832.635	0	50.3	4	15.2	4	-1E+10	1	-1E+10	1	-1E+10	1	-1E+10	1	-1E+10	1	-1E+10	1
4901784	120	C	10/17/2018	10:46	-132.855	43.028	0	1860.70	0	2.0630	0	34.8140	8	27.828	0	1837.749	0	50.6	4	15.3	4	-1E+10	1	-1E+10	1	-1E+10	1	-1E+10	1	-1E+10	1	-1E+10	1
4901784	120	C	10/17/2018	10:46	-132.855	43.028	0	1864.90	0	2.0600	0	34.8150	8	27.829	0	1841.879	0	50.9	4	15.4	4	-1E+10	1	-1E+10	1	-1E+10	1	-1E+10	1	-1E+10	1	-1E+10	1
4901784	120	C	10/17/2018	10:46	-132.855	43.028	0	1869.20	0	2.0530	0	34.8160	8	27.830	0	1846.107	0	51.2	4	15.5	4	-1E+10	1	-1E+10	1	-1E+10	1	-1E+10	1	-1E+10	1	-1E+10	1
4901784	120	C	10/17/2018	10:46	-132.855	43.028	0	1874.30	0	2.0490	0	34.8160	8	27.831	0	1851.122	0	51.4	4	15.6	4	-1E+10	1	-1E+10	1	-1E+10	1	-1E+10	1	-1E+10	1	-1E+10	1
4901784	120	C	10/17/2018	10:46	-132.855	43.028	0	1879.50	0	2.0470	0	34.8170	8	27.832	0	1856.235	0	51.8	4	15.7	4	-1E+10	1	-1E+10	1	-1E+10	1	-1E+10	1	-1E+10	1	-1E+10	1
4901784	120	C	10/17/2018	10:46	-132.855	43.028	0	1884.70	0	2.0400	0	34.8170	8	27.832	0	1861.348	0	52.2	4	15.8	4	-1E+10	1	-1E+10	1	-1E+10	1	-1E+10	1	-1E+10	1	-1E+10	1
4901784	120	C	10/17/2018	10:46	-132.855	43.028	0	1890.00	0	2.0350	0	34.8180	8	27.833	0	1866.559	0	52.6	4	15.9	4	-1E+10	1	-1E+10	1	-1E+10	1	-1E+10	1	-1E+10	1	-1E+10	1
4901784	120	C	10/17/2018	10:46	-132.855	43.028	0	1895.20	0	2.0270	0	34.8190	8	27.835	0	1871.672	0	53.0	4	16.0	4	-1E+10	1	-1E+10	1	-1E+10	1	-1E+10	1	-1E+10	1	-1E+10	1
4901784	120	C	10/17/2018	10:46	-132.855	43.028	0	1900.50	0	2.0220	0	34.8200	8	27.836	0	1876.882	0	53.3	4	16.1	4	-1E+10	1	-1E+10	1	-1E+10	1	-1E+10	1	-1E+10	1	-1E+10	1
4901784	120	C	10/17/2018	10:46	-132.855	43.028	0	1905.00	0	2.0190	0	34.8200	8	27.836	0	1881.307	0	53.6	4	16.2	4	-1E+10	1	-1E+10	1	-1E+10	1	-1E+10	1	-1E+10	1	-1E+10	1
4901784	120	C	10/17/2018	10:46	-132.855	43.028	0	1909.40	0	2.0150	0	34.8210	8	27.837	0	1885.632	0	53.9	4	16.3	4	-1E+10	1	-1E+10	1	-1E+10	1	-1E+10	1	-1E+10	1	-1E+10	1
4901784	120	C	10/17/2018	10:46	-132.855	43.028	0	1914.80	0	2.0120	0	34.8220	8	27.838	0	1890.941	0	54.3	4	16.4	4	-1E+10	1	-1E+10	1	-1E+10	1	-1E+10	1	-1E+10	1	-1E+10	1
4901784	120	C	10/17/2018	10:46	-132.855	43.028	0	1920.20	0	2.0070	0	34.8230	8	27.840	0	1896.250	0	54.8	4	16.6	4	-1E+10	1	-1E+10	1	-1E+10	1	-1E+10	1	-1E+10	1	-1E+10	1
4901784	120	C	10/17/2018	10:46	-132.855	43.028	0	1925.60	0	2.0000	0	34.8240	8	27.841	0	1901.558	0	55.3	4	16.7	4	-1E+10	1	-1E+10	1	-1E+10	1	-1E+10	1	-1E+10	1	-1E+10	1
4901784	120	C	10/17/2018	10:46	-132.855	43.028	0	1930.20	0	1.9950	0	34.8250	8	27.842	0	1906.080	0	55.7	4	16.8	4	-1E+10	1	-1E+10	1	-1E+10	1	-1E+10	1	-1E+10	1	-1E+10	1
4901784	120	C	10/17/2018	10:46	-132.855	43.028	0	1934.70	0	1.9880	0	34.8250	8	27.843	0	1910.504	0	56.0	4	16.9	4	-1E+10	1	-1E+10	1	-1E+10	1	-1E+10	1	-1E+10	1	-1E+10	1
4901784	120	C	10/17/2018	10:46	-132.855	43.028	0	1940.20	0	1.9840	0	34.8260	8	27.844	0	1915.910	0	56.3	4	17.0	4	-1E+10	1	-1E+10	1	-1E+10	1	-1E+10	1	-1E+10	1	-1E+10	1
4901784	120	C	10/17/2018	10:46	-132.855	43.028	0	1945.60	0	1.9830	0	34.8270	8	27.845	0	1921.219	0	56.5	4	17.1	4	-1E+10	1	-1E+10	1	-1E+10	1	-1E+10	1	-1E+10	1	-1E+10	1
4901784	120	C	10/17/2018	10:46	-132.855	43.028	0	1950.20	0	1.9780	0	34.8280	8	27.846	0	1925.740	0	56.8	4	17.1	4	-1E+10	1	-1E+10	1	-1E+10	1	-1E+10	1	-1E+10	1	-1E+10	1
4901784	120	C	10/17/2018	10:46	-132.855	43.028	0	1954.80	0	1.9770	0	34.8280	8	27.846	0	1930.262	0	57.0	4	17.2	4	-1E+10	1	-1E+10	1	-1E+10	1	-1E+10	1	-1E+10	1	-1E+10	1
4901784	120	C	10/17/2018	10:46	-132.855	43.028	0	1960.30	0	1.9740	0	34.8290	8	27.847	0	1935.668	0	57.2	4	17.3	4	-1E+10	1	-1E+10	1	-1E+10	1	-1E+10	1	-1E+10	1	-1E+10	1
4901784	120	C	10/17/2018	10:46	-132.855	43.028	0	1964.90	0	1.9730	0	34.8290	8	27.847	0	1940.189	0	57.4	4	17.3	4	-1E+10	1	-1E+10	1	-1E+10	1	-1E+10	1	-1E+10	1	-1E+10	1
4901784	120	C	10/17/2018	10:46	-132.855	43.028	0	1969.50	0	1.9700	0	34.8300	8	27.848	0	1944.710	0	57.6	4	17.4	4	-1E+10	1	-1E+10	1	-1E+10	1	-1E+10	1	-1E+10	1	-1E+10	1
4901784	120	C	10/17/2018	10:46	-132.855	43.028	0	1975.00	0	1.9670	0	34.8300	8	27.849	0	1950.116	0	57.9	4	17.5	4	-1E+10	1	-1E+10	1	-1E+10	1	-1E+10	1	-1E+10	1	-1E+10	1
4901784	120	C	10/17/2018	10:46	-132.855	43.028	0	1979.60	0	1.9630	0	34.8310	8	27.850	0	1954.637	0	58.1	4	17.5	4	-1E+10	1	-1E+10	1	-1E+10	1	-1E+10	1	-1E+10	1	-1E+10	1
4901784	120	C	10/17/2018	10:46	-132.855	43.028	0	1984.20	0	1.9610	0	34.8310	8	27.850	0	1959.157	0	58.4	4	17.6	4	-1E+10	1	-1E+10	1	-1E+10	1	-1E+10	1	-1E+10	1	-1E+10	1
4901784	120	C	10/17/2018	10:46	-132.855	43.028	0	1989.60	0	1.9550	0	34.8320	8	27.851	0	1964.464	0	58.8	4	17.7	4	-1E+10	1	-1E+10	1	-1E+10	1	-1E+10	1	-1E+10	1	-1E+10	1
4901784	120	C	10/17/2018	10:46	-132.855	43.028	0	1994.50	0	1.9520	0	34.8330	8	27.852	0	1969.280	0	59.0	4	17.8	4	-1E+10	1	-1E+10	1	-1E+10	1	-1E+10	1	-1E+10	1	-1E+10	1
4901784	120	C	10/17/2018	10:46	-132.855	43.028	0	1999.50	0	1.9490	0	34.8330	8	27.853	0	1974.194	0	59.1	4	17.8	4	-1E+10	1	-1E+10	1	-1E+10	1	-1E+10	1	-1E+10	1	-1E+10	1
4901784	120	C	10/17/2018	10:46	-132.855	43.028	0	2004.40	0	1.9460	0	34.8330	8	27.853	0	1979.009	0	59.4	4	17.9	4	-1E+10	1	-1E+10	1	-1E+10	1	-1E+10	1	-1E+10	1	-1E+10	1
4901784	120	C	10/17/2018	10:46	-132.855	43.028	0	2009.30	0	1.9420	0	34.8340	8	27.854	0	1983.824	0	59.7	4	18.0	4	-1E+10	1	-1E+10	1	-1E+10	1	-1E+10	1	-1E+10	1	-1E+10	1
4901784	120	C	10/17/2018	10:46	-132.855	43.028	0	2014.80	0	1.9340	0	34.8340	8	27.855	0	1989.229	0	60.0	4	18.1	4	-1E+10	1	-1E+10	1	-1E+10	1	-1E+10	1	-1E+10	1	-1E+10	1
4901784	120	C	10/17/2018	10:46	-132.855	43.028	0	2020.70	0	1.9310	0	34.8350	8	27.856	0	1995.026	0	60.4	4	18.2	4	-1E+10	1	-1E+10	1	-1E+10	1	-1E+10	1	-1E+10	1	-1E+10	1
4901784	120	C	10/17/2018	10:46	-132.855	43.028	0																										
4901784	121	C	10/27/2018	10:51	-132.839	43.026	0	2.50	0	16.9670	0	33.0400	8	24.019	0	2.480	0	233.2	4	96.4	4	-1E+10	1	-1E+10	1	-1E+10	1	-1E+10	1	-1E+10	1	-1E+10	1
4901784	121	C	10/27/2018	10:51	-132.839	43.026	0	3.90	0	16.9670	0	33.0410	8	24.020	0	3.869	0	233.1	4	96.4	4	-1E+10	1	-1E+10	1	-1E+10	1	-1E+10	1	-1E+10	1	-1E+10	1
4901784	121	C	10/27/2018	10:51	-132.839	43.026	0	5.40	0	16.9690	0	33.0480	8	24.025	0	5.357	0	233.0	4	96.4	4	-1E+10	1	-1E+10	1	-1E+10	1	-1E+10	1	-1E+10	1	-1E+10	1
4901784	121	C	10/27/2018	10:51	-132.839	43.026	0	7.20	0	16.9690	0	33.0460	8	24.024	0	7.143	0	232.9	4	96.4	4	-1E+10	1	-1E+10	1	-1E+10	1	-1E+10	1	-1E+10	1	-1E+10	1
4901784	121	C	10/27/2018	10:51	-132.839	43.026	0	9.00	0	16.9680	0	33.0430	8	24.022	0	8.928	0	232.9	4	96.3	4	-1E+10	1	-1E+10	1	-1E+10	1	-1E+10	1	-1E+10	1	-1E+10	1
4901784	121	C	10/27/2018	10:51	-132.839	43.026	0	10.90	0	16.9700	0	33.0540	8	24.030	0	10.813	0	232.6	4	96.2	4	-1E+10	1	-1E+10	1	-1E+10	1	-1E+10	1	-1E+10	1	-1E+10	1
4901784	121	C	10/27/2018	10:51	-132.839	43.026	0	12.80	0	16.9700	0	33.0620	8	24.036	0	12.698	0	232.7	4	96.3	4	-1E+10	1	-1E+10	1	-1E+10	1	-1E+10	1	-1E+10	1	-1E+10	1
4901784	121	C	10/27/2018	10:51	-132.839	43.026	0	14.80	0	16.9700	0	33.0520	8	24.028	0	14.682	0	232.7	4	96.3	4	-1E+10	1	-1E+10	1	-1E+10	1	-1E+10	1	-1E+10	1	-1E+10	1
4901784	121	C	10/27/2018	10:51	-132.839	43.026	0	16.80	0	16.9710	0	33.0640	8	24.037	0	16.666	0	232.4	4	96.1	4	-1E+10	1	-1E+10	1	-1E+10	1	-1E+10	1	-1E+10	1	-1E+10	1
4901784	121	C	10/27/2018	10:51	-132.839	43.026	0	18.80	0	16.9710	0	33.0710	8	24.043	0	18.650	0	232.3	4	96.1	4	-1E+10	1	-1E+10	1	-1E+10	1	-1E+10	1	-1E+10	1	-1E+10	1
4901784	121	C	10/27/2018	10:51	-132.839	43.026	0	20.70	0	16.9690	0	33.0720	8	24.044	0	20.535	0	232.3	4	96.1	4	-1E+10	1	-1E+10	1	-1E+10	1	-1E+10	1	-1E+10	1	-1E+10	1
4901784	121	C	10/27/2018	10:51	-132.839	43.026	0	22.60	0	16.9690	0	33.0720	8	24.044	0	22.419	0	232.3	4	96.1	4	-1E+10	1	-1E+10	1	-1E+10	1	-1E+10	1	-1E+10	1	-1E+10	1
4901784	121	C	10/27/2018	10:51	-132.839	43.026	0	24.60	0	16.9690	0	33.0710	8	24.043	0	24.403	0	232.0	4	96.0	4	-1E+10	1	-1E+10	1	-1E+10	1	-1E+10	1	-1E+10	1	-1E+10	1
4901784	121	C	10/27/2018	10:51	-132.839	43.026	0	26.50	0	16.9690	0	33.0710	8	24.043	0	26.288	0	231.9	4	96.0	4	-1E+10	1	-1E+10	1	-1E+10	1	-1E+10	1	-1E+10	1	-1E+10	1
4901784	121	C	10/27/2018	10:51	-132.839	43.026	0	28.50	0	16.9690	0	33.0710	8	24.043	0	28.272	0	231.8	4	95.9	4	-1E+10	1	-1E+10	1	-1E+10	1	-1E+10	1	-1E+10	1	-1E+10	1
4901784	121	C	10/27/2018	10:51	-132.839	43.026	0	30.40	0	16.9690	0	33.0710	8	24.044	0	30.157	0	231.7	4	95.9	4	-1E+10	1	-1E+10	1	-1E+10	1	-1E+10	1	-1E+10	1	-1E+10	1
4901784	121	C	10/27/2018	10:51	-132.839	43.026	0	32.40	0	16.9680	0	33.0700	8	24.043	0	32.140	0	231.5	4	95.8	4	-1E+10	1	-1E+10	1	-1E+10	1	-1E+10	1	-1E+10	1	-1E+10	1
4901784	121	C	10/27/2018	10:51	-132.839	43.026	0	34.40	0	16.9670	0	33.0700	8	24.043	0	34.124	0	231.3	4	95.7	4	-1E+10	1	-1E+10	1	-1E+10	1	-1E+10	1	-1E+10	1	-1E+10	1
4901784	121	C	10/27/2018	10:51	-132.839	43.026	0	36.40	0	16.9660	0	33.0700	8	24.044	0	36.108	0	231.3	4	95.7	4	-1E+10	1	-1E+10	1	-1E+10	1	-1E+10	1	-1E+10	1	-1E+10	1
4901784	121	C	10/27/2018	10:51	-132.839	43.026	0	38.40	0	16.9650	0	33.0690	8	24.043	0	38.092	0	231.1	4	95.6	4	-1E+10	1	-1E+10	1	-1E+10	1	-1E+10	1	-1E+10	1	-1E+10	1
4901784	121	C	10/27/2018	10:51	-132.839	43.026	0	40.90	0	16.9650	0	33.0680	8	24.043	0	40.571	0	231.2	4	95.6	4	-1E+10	1	-1E+10	1	-1E+10	1	-1E+10	1	-1E+10	1	-1E+10	1
4901784	121	C	10/27/2018	10:51	-132.839	43.026	0	42.90	0	16.9640	0	33.0670	8	24.042	0	42.555	0	231.1	4	95.6	4	-1E+10	1	-1E+10	1	-1E+10	1	-1E+10	1	-1E+10	1	-1E+10	1
4901784	121	C	10/27/2018	10:51	-132.839	43.026	0	44.50	0	16.9640	0	33.0650	8	24.041	0	44.142	0	231.2	4	95.6	4	-1E+10	1	-1E+10	1	-1E+10	1	-1E+10	1	-1E+10	1	-1E+10	1
4901784	121	C	10/27/2018	10:51	-132.839	43.026	0	46.10	0	16.9630	0	33.0630	8	24.039	0	45.729	0	231.6	4	95.8	4	-1E+10	1	-1E+10	1	-1E+10	1	-1E+10	1	-1E+10	1	-1E+10	1
4901784	121	C	10/27/2018	10:51	-132.839	43.026	0	47.60	0	16.9610	0	33.0590	8	24.037	0	47.217	0	232.1	4	96.0	4	-1E+10	1	-1E+10	1	-1E+10	1	-1E+10	1	-1E+10	1	-1E+10	1
4901784	121	C	10/27/2018	10:51	-132.839	43.026	0	49.10	0	16.9580	0	33.0530	8	24.033	0	48.705	0	233.1	4	96.4	4	-1E+10	1	-1E+10	1	-1E+10	1	-1E+10	1	-1E+10	1	-1E+10	1
4901784	121	C	10/27/2018	10:51	-132.839	43.026	0	50.90	0	16.8300	0	33.0490	8	24.060	0	50.490	0	235.2	4	97.1	4	-1E+10	1	-1E+10	1	-1E+10	1	-1E+10	1	-1E+10	1	-1E+10	1
4901784	121	C	10/27/2018	10:51	-132.839	43.026	0	52.20	0	16.6840	0	33.0430	8	24.089	0	51.779	0	237.9	4	97.9	4	-1E+10	1	-1E+10	1	-1E+10	1	-1E+10	1	-1E+10	1	-1E+10	1
4901784	121	C	10/27/2018	10:51	-132.839	43.026	0	53.20	0	16.5710	0	33.0240	8	24.101	0	52.771	0	240.8	4	98.9	4	-1E+10	1	-1E+10	1	-1E+10	1	-1E+10	1	-1E+10	1	-1E+10	1
4901784	121	C	10/27/2018	10:51	-132.839	43.026	0	54.20	0	16.3320	0	33.0060	8	24.142	0	53.763	0	244.6	4	99.9	4	-1E+10	1	-1E+10	1	-1E+10	1	-1E+10	1	-1E+10	1	-1E+10	1
4901784	121	C	10/27/2018	10:51	-132.839	43.026	0	55.40	0	16.0500	0	32.9820	8	24.187	0	54.953	0	249.5	4	101.4	4	-1E+10	1	-1E+10	1	-1E+10	1	-1E+10	1	-1E+10	1	-1E+10	1
4901784	121	C	10/27/2018	10:51	-132.839	43.026	0	56.50	0	15.6310	0	32.9590	8	24.263	0	56.044	0	254.9	4	102.7	4	-1E+10	1	-1E+10	1	-1E+10	1	-1E+10	1	-1E+10	1	-1E+10	1
4901784	121	C	10/27/2018	10:51	-132.839	43.026	0	57.90	0	14.8130	0	32.9200	8	24.412	0	57.432	0	261.7	4	103.7	4	-1E+10	1	-1E+10	1	-1E+10	1	-1E+10	1	-1E+10	1	-1E+10	1
4901784	121	C	10/27/2018	10:51	-132.839	43.026	0	59.30	0	14.3150	0	32.8730	8	24.481	0	58.821	0	267.4	4	104.9	4	-1E+10	1	-1E+10	1	-1E+10	1	-1E+10	1	-1E+10	1	-1E+10	1
4901784	121	C	10/27/2018	10:51	-132.839	43.026	0	60.90	0	12.6670	0	32.9020	8	24.835	0	60.408	0	273.4	4	103.7	4	-1E+10	1	-1E+10	1	-1E+10	1	-1E+10	1	-1E+10	1	-1E+10	1
4901784	121	C	10/27/2018	10:51	-132.839	43.026	0	62.50	0	12.0740	0	32.8780	8	24.930	0	61.995	0	280.0	4	104.9	4	-1E+10	1	-1E+10	1	-1E+10	1	-1E+10	1	-1E+10	1	-1E+10	1
4901784	121	C	10/27/2018	10:51	-132.839	43.026	0	64.20	0	11.4820	0	32.8740	8	25.036	0	63.681	0	283.1	4	104.8	4	-1E+10	1	-1E+10	1	-1E+10	1	-1E+10	1	-1E+10	1	-1E+10	1
4901784	121	C	10/27/2018	10:51	-132.839	43.026	0	65.90	0	11.1950	0	32.8850	8	25.096	0	65.367	0	283.0	4	104.1	4	-1E+10	1	-1E+10	1	-1E+10	1	-1E+10	1	-1E+10	1	-1E+10	1
4901784	121	C	10/27/2018	10:51	-132.839	43.026	0	67.60	0	10.9040	0	32.8780	8	25.142	0	67.052	0	283.2	4	103.5	4	-1E+10	1	-1E+10	1	-1E+10	1	-1E+10	1	-1E+10	1	-1E+10	1
4901784	121	C	10/27/2018	10:51	-132.839	43.026	0	69.30	0	10.6760	0	32.8500	8	25.160	0	68.738	0	282.0	4	102.6	4	-1E+10	1	-1E+10	1	-1E+10	1	-1E+10	1	-1E+10	1	-1E+10	1
4901784	121	C	10/27/2018	10:51	-132.839	43.026	0	71.00	0	10.3960	0	32.8300	8	25.193	0	70.424	0	281.7	4	101.9	4	-1E+10	1	-1E+10	1	-1E+10	1	-1E+10	1	-1E+10	1	-1E+10	1
4901784	121	C	10/27/2018	10:51	-132.839	43.026	0	72.80	0	10.1840	0	32.8120	8	25.215	0	72.209	0	280.2	4	100.8	4	-1E+10	1	-1E+10	1	-1E+10	1	-1E+10	1	-1E+10	1	-1E+10	1
4901784	121	C	10/27/2018	10:51	-132.839	43.026	0	74.70	0	9.8330	0	32.8030	8	25.266	0	74.094	0	278.7	4	99.5	4	-1E+10	1	-1E+10	1	-1E+10	1	-1E+10	1	-1E+10	1	-1E+10	1
4901784	121	C	10/27/2018	10:51	-132.839	43.026	0	76.40	0	9.7320	0	32.8010	8	25.281	0	75.780	0	277.1	4	98.8	4	-1E+10	1	-1E+10	1	-1E+10	1	-1E+10	1	-1E+10	1	-1E+10	1
4901784	121	C	10/27/2018	10:51	-132.839	43.026	0	78.30	0	9.6270	0	32.8010	8	25.298	0	77.664	0	275.4	4	97.9	4	-1E+10	1	-1E+10	1	-1E+10	1	-1E+10	1	-1E+10	1	-1E+10	1
4901784	121	C	10/27/2018	10:51	-132.839	43.026	0	80.00	0	9.5980	0	32.8020	8	25.304	0	79.350	0	273.3	4	97.1	4	-1E+10	1	-1E+10	1	-1E+10	1	-1E+10	1	-1E+10	1	-1E+10	1
4901784	121	C	10/27/2018	10:51	-132.839	43.026	0	81.80	0	9.5180	0	32.8070	8	25.321	0	81.135	0	270.9	4	96.1	4	-1E+10	1	-1E+10	1	-1E+10	1	-1E+10	1	-1E+10	1	-1E+10	1
4901784	121	C	10/27/2018	10:51	-132.839	43.026	0	83.60	0	9.4810	0	32.8090	8	25.328	0	82.920	0	268.7	4	95.2	4	-1E+10	1	-1E+10	1	-1E+10	1	-1E+10	1	-1E+10	1	-1E+10	1
4901784	121	C	10/27/2018	10:51	-132.839	43.026	0	85.30	0	9.4470	0	32.8160	8	25.339	0	84.606	0	266.3	4	94.3	4	-1E+10	1	-1E+10	1	-1E+10	1	-1E+10	1	-1E+10	1	-1E+10	1
4901784	121	C	10/27/2018	10:51	-132.839	43.026	0	87.00	0	9.3170	0	32.8160	8	25.360	0	86.291	0	264.7	4	93.5	4	-1E+10	1	-1E+10	1	-1E+10	1	-1E+10	1	-1E+10	1	-1E+10	1
4901784	121	C	10/27/2018	10:51	-132.839	43.026	0	88.70	0	9.2790	0	32.8170	8	25.367	0	87.977	0	262.8	4	92.8	4	-1E+10	1	-1E+10	1	-1E+10	1	-1E+10	1	-1E+10	1	-1E+10	1
4901784	121	C	10/27/2018	10:51	-132.839	43.026	0	90.50	0	9.1950	0	32.8240	8	25.386	0	89.762	0	260.6	4	91.8	4	-1E+10	1	-1E+10	1	-1E+10	1	-1E+10	1	-1E+10	1	-1E+10	1
4901784	121	C	10/27/2018	10:51	-132.839	43.026	0	92.20	0	9.1430	0	32.8320	8	25.400	0	91.448	0	259.5	4	91.3	4	-1E+10	1	-1E+10	1	-1E+10	1	-1E+10	1	-1E+10	1	-1E+10	1
4901784	121	C	10/27/2018	10:51	-132.839	43.026	0	93.90	0	9.1090	0	32.8300	8	25.404	0	93.134	0	258.5	4	90.9	4	-1E+10	1	-1E+10	1	-1E+10	1	-1E+10	1	-1E+10	1	-1E+10	1
4901784	121	C	10/27/2018	10:51	-132.839	43.026	0	95.70	0	9.0910	0	32.8260	8	25.404	0	94.918	0	257.2	4	90.4	4	-1E+10	1	-1E+10	1	-1E+10	1	-1E+10	1	-1E+10	1	-1E+10	1
4901784	121	C	10/27/2018	10:51	-132.839	43.026	0	97.40	0	9.0290	0	32.8270	8	25.414	0	96.604	0	256.0	4	89.9	4	-1E+10	1	-1E+10	1	-1E+10	1	-1E+10	1	-1E+10	1	-1E+10	1
4901784	121	C	10/27/2018	10:51	-132.839	43.026	0	99.40	0	8.9560	0	32.8390	8	25.435	0	98.587	0	254.7	4	89.3	4	-1E+10	1	-1E+10	1	-1E+10	1	-1E+10	1	-1E+10	1	-1E+10	1
4901784	121	C	10/27/2018	10:51	-132.839	43.026	0	99.90	0	8.9380	0	32.8390	8	25.438	0	99.083	0	254.2	4	89.1	4	-1E+10	1	-1E+10	1	-1E+10	1	-1E+10	1	-1E+10	1	-1E+10	1
4901784	121	C	10/27/2018	10:51	-132.839	43.026	0	102.00	0	8.8810	0	32.8390	8	25.447	0	101.165	0	252.4	4	88.3	4	-1E+10	1	-1E+10	1	-1E+10	1	-1E+10	1	-1E+10	1	-1E+10	1
4901784	121	C	10/27/2018	10:51	-132.839	43.026	0	104.70	0	8.6110	0	32.8750	8	25.516	0	103.843	0	249.9	4	86.9	4	-1E+10	1	-1E+10	1	-1E+10	1	-1E+10	1	-1E+10	1	-1E+10	1
4901784	121	C	10/27/2018	10:51	-132.839	43.026	0	107.40	0	8.4150	0	32.9280	8	25.587	0	106.520	0	247.8	4	85.9	4	-1E+10	1	-1E+10	1	-1E+10	1	-1E+10	1	-1E+10	1	-1E+10	1
4901784	121	C	10/27/2018	10:51	-132.839	43.026	0	110.20	0	8.3490	0	32.9900	8	25.646	0	109.296	0	245.1	4	84.9	4	-1E+10	1	-1E+10	1	-1E+10	1	-1E+10	1	-1E+10	1	-1E+10	1
4901784	121	C	10/27/2018	10:51	-132.839	43.026	0	112.50	0	8.2970	0	33.0310	8	25.686	0	111.577	0	242.8	4	84.0	4	-1E+10	1	-1E+10	1	-1E+10	1	-1E+10	1	-1E+10	1	-1E+10	1
4901784	121	C	10/27/2018	10:51	-132.839	43.026	0	114.70	0	8.3600	0	33.0630	8	25.702	0	113.758	0	239.5	4	83.0	4	-1E+10	1	-1E+10	1	-1E+10	1	-1E+10	1	-1E+10	1	-1E+10	1
4901784	121	C	10/27/2018	10:51	-132.839	43.026	0	117.90	0	8.2970	0	33.2230	8	25.837	0	116.931	0	235.2	4	81.5	4	-1E+10	1	-1E+10	1	-1E+10	1	-1E+10	1	-1E+10	1	-1E+10	1
4901784	121	C	10/27/2018	10:51	-132.839	43.026	0	120.40	0	8.0110	0	33.2550	8	25.904	0	119.410	0	235.0	4	80.9	4	-1E+10	1	-1E+10	1	-1E+10	1	-1E+10	1	-1E+10	1	-1E+10	1
4901784	121	C	10/27/2018	10:51	-132.839	43.026	0	122.10	0	7.9670	0	33.2680	8	25.921	0	121.095	0	233.8	4	80.4	4	-1E+10	1	-1E+10	1	-1E+10	1	-1E+10	1	-1E+10	1	-1E+10	1
4901784	121	C	10/27/2018	10:51	-132.839	43.026	0	124.70	0	7.9290	0	33.2780	8	25.934	0	123.673	0	230.3	4	79.2	4	-1E+10	1	-1E+10	1	-1E+10	1	-1E+10	1	-1E+10	1	-1E+10	1
4901784	121	C	10/27/2018	10:51	-132.839	43.026	0	127.90	0	7.8400	0	33.4300	8	26.066	0	126.846	0	225.2	4	77.3	4	-1E+10	1	-1E+10	1	-1E+10	1	-1E+10	1	-1E+10	1	-1E+10	1
4901784	121	C	10/27/2018	10:51	-132.839	43.026	0	129.80	0	7.9700	0	33.5080	8	26.109	0	128.729	0	221.6	4	76.4	4	-1E+10	1	-1E+10	1	-1E+10	1	-1E+10	1	-1E+10	1	-1E+10	1
4901784	121	C	10/27/2018	10:51	-132.839	43.026	0	132.00	0	7.9540	0	33.5320	8	26.130	0	130.910	0	219.5	4	75.6	4	-1E+10	1	-1E+10	1	-1E+10	1	-1E+10	1	-1E+10	1	-1E+10	1
4901784	121	C	10/27/2018	10:51	-132.839	43.026	0	135.20	0	7.9720	0	33.5640	8	26.152	0	134.083	0	215.9	4	74.4	4	-1E+10	1	-1E+10	1	-1E+10	1	-1E+10	1	-1E+10	1	-1E+10	1
4901784	121	C	10/27/2018	10:51	-132.839	43.026	0	137.70	0	8.0210	0	33.5960	8	26.170	0	136.562	0	212.3	4	73.3	4	-1E+10	1	-1E+10	1	-1E+10	1	-1E+10	1	-1E+10	1	-1E+10	1
4901784	121	C	10/27/2018	10:51	-132.839	43.026	0	140.10	0	8.0720	0	33.6420	8	26.199	0	138.941	0	208.5	4	72.1	4	-1E+10	1	-1E+10	1	-1E+10	1	-1E+10	1	-1E+10	1	-1E+10	1
4901784	121	C	10/27/2018	10:51	-132.839	43.026	0	142.50	0	8.1300	0	33.6980	8	26.234	0	141.320	0	204.9	4	71.0	4	-1E+10	1	-1E+10	1	-1E+10	1	-1E+10	1	-1E+10	1	-1E+10	1
4901784	121	C	10/27/2018	10:51	-132.839	43.026	0	145.10	0	8.1380	0	33.7430	8	26.269	0	143.898	0	201.6	4	69.9	4	-1E+10	1	-1E+10	1	-1E+10	1	-1E+10	1	-1E+10	1	-1E+10	1
4901784	121	C	10/27/2018	10:51	-132.839	43.026	0	147.90	0	8.1990	0	33.7830	8	26.291	0	146.674	0	198.4	4	68.8	4	-1E+10	1	-1E+10	1	-1E+10	1	-1E+10	1	-1E+10	1	-1E+10	1
4901784	121	C	10/27/2018	10:51	-132.839	43.026	0	149.80	0	8.2120	0	33.7920	8	26.296	0	148.557	0	196.9	4	68.3	4	-1E+10	1	-1E+10	1	-1E+10	1	-1E+10	1	-1E+10	1	-1E+10	1
4901784	121	C	10/27/2018	10:51	-132.839	43.026	0	152.70	0	8.2450	0	33.8320	8	26.323	0	151.432	0	193.9	4	67.4	4	-1E+10	1	-1E+10	1	-1E+10	1	-1E+10	1	-1E+10	1	-1E+10	1
4901784	121	C	10/27/2018	10:51	-132.839	43.026	0	155.60	0	8.2710	0	33.8900	8	26.364	0	154.307	0	191.5	4	66.6	4	-1E+10	1	-1E+10	1	-1E+10	1	-1E+10	1	-1E+10	1	-1E+10	1
4901784	121	C	10/27/2018	10:51	-132.839	43.026	0	157.50	0	8.2830	0	33.9150	8	26.382	0	156.190	0	190.1	4	66.2	4	-1E+10	1	-1E+10	1	-1E+10	1	-1E+10	1	-1E+10	1	-1E+10	1
4901784	121	C	10/27/2018	10:51	-132.839	43.026	0	159.80	0	8.2870	0	33.9290	8	26.393	0	158.470	0	188.6	4	65.6	4	-1E+10	1	-1E+10	1	-1E+10	1	-1E+10	1	-1E+10	1	-1E+10	1
4901784	121	C	10/27/2018	10:51	-132.839	43.026	0	162.40	0	8.3100	0	33.9600	8	26.413	0	161.048	0	186.4	4	64.9	4	-1E+10	1	-1E+10	1	-1E+10	1	-1E+10	1	-1E+10	1	-1E+10	1
4901784	121	C	10/27/2018	10:51	-132.839	43.026	0	164.70	0	8.3010	0	33.9860	8	26.435	0	163.328	0	184.7	4	64.3	4	-1E+10	1	-1E+10	1	-1E+10	1	-1E+10	1	-1E+10	1	-1E+10	1
4901784	121	C	10/27/2018	10:51	-132.839	43.026	0	167.10	0	8.3210	0	34.0280	8	26.465	0	165.707	0	181.9	4	63.4	4	-1E+10	1	-1E+10	1	-1E+10	1	-1E+10	1	-1E+10	1	-1E+10	1
4901784	121	C	10/27/2018	10:51	-132.839	43.026	0	170.40	0	8.3550	0	34.0600	8	26.485	0	168.978	0	178.5	4	62.3	4	-1E+10	1	-1E+10	1	-1E+10	1	-1E+10	1	-1E+10	1	-1E+10	1
4901784	121	C	10/27/2018	10:51	-132.839	43.026	0	172.80	0	8.3650	0	34.0690	8	26.491	0	171.357	0	178.1	4	62.2	4	-1E+10	1	-1E+10	1	-1E+10	1	-1E+10	1	-1E+10	1	-1E+10	1
4901784	121	C	10/27/2018	10:51	-132.839	43.026	0	175.30	0	8.3540	0	34.0780	8	26.500	0	173.835	0	178.4	4	62.3	4	-1E+10	1	-1E+10	1	-1E+10	1	-1E+10	1	-1E+10	1	-1E+10	1
4901784	121	C	10/27/2018	10:51	-132.839	43.026	0	177.70	0	8.3500	0	34.0920	8	26.511	0	176.214	0	176.7	4	61.7	4	-1E+10	1	-1E+10	1	-1E+10	1	-1E+10	1	-1E+10	1	-1E+10	1
4901784	121	C	10/27/2018	10:51	-132.839	43.026	0	180.20	0	8.3510	0	34.1150	8	26.529	0	178.692	0	174.1	4	60.8	4	-1E+10	1	-1E+10	1	-1E+10	1	-1E+10	1	-1E+10	1	-1E+10	1
4901784	121	C	10/27/2018	10:51	-132.839	43.026	0	182.70	0	8.3400	0	34.1400	8	26.550	0	181.170	0	171.3	4	59.8	4	-1E+10	1	-1E+10	1	-1E+10	1	-1E+10	1	-1E+10	1	-1E+10	1
4901784	121	C	10/27/2018	10:51	-132.839	43.026	0	185.10	0	8.3320	0	34.1540	8	26.563	0	183.549	0	169.8	4	59.2	4	-1E+10	1	-1E+10	1	-1E+10	1	-1E+10	1	-1E+10	1	-1E+10	1
4901784	121	C	10/27/2018	10:51	-132.839	43.026	0	187.70	0	8.3100	0	34.1730	8	26.581	0	186.126	0	167.6	4	58.5	4	-1E+10	1	-1E+10	1	-1E+10	1	-1E+10	1	-1E+10	1	-1E+10	1
4901784	121	C	10/27/2018	10:51	-132.839	43.026	0	190.30	0	8.2740	0	34.1850	8	26.596	0	188.703	0	166.0	4	57.9	4	-1E+10	1	-1E+10	1	-1E+10	1	-1E+10	1	-1E+10	1	-1E+10	1
4901784	121	C	10/27/2018	10:51	-132.839	43.026	0	193.00	0	8.2390	0	34.1880	8	26.604	0	191.379	0	164.4	4	57.3	4	-1E+10	1	-1E+10	1	-1E+10	1	-1E+10	1	-1E+10	1	-1E+10	1
4901784	121	C	10/27/2018	10:51	-132.839	43.026	0	194.70	0	8.2290	0	34.1880	8	26.605	0	193.064	0	164.0	4	57.1	4	-1E+10	1	-1E+10	1	-1E+10	1	-1E+10	1	-1E+10	1	-1E+10	1
4901784	121	C	10/27/2018	10:51	-132.839	43.026	0	197.40	0	8.2010	0	34.1950	8	26.615	0	195.740	0	163.2	4	56.8	4	-1E+10	1	-1E+10	1	-1E+10	1	-1E+10	1	-1E+10	1	-1E+10	1
4901784	121	C	10/27/2018	10:51	-132.839	43.026	0	200.00	0	8.1880	0	34.1960	8	26.618	0	198.317	0	162.2	4	56.4	4	-1E+10	1	-1E+10	1	-1E+10	1	-1E+10	1	-1E+10	1	-1E+10	1
4901784	121	C	10/27/2018	10:51	-132.839	43.026	0	202.70	0	8.1410	0	34.2040	8	26.631	0	200.993	0	160.5	4	55.8	4	-1E+10	1	-1E+10	1	-1E+10	1	-1E+10	1	-1E+10	1	-1E+10	1
4901784	121	C	10/27/2018	10:51	-132.839	43.026	0	205.50	0	8.0620	0	34.2050	8	26.644	0	203.768	0	159.3	4	55.3	4	-1E+10	1	-1E+10	1	-1E+10	1	-1E+10	1	-1E+10	1	-1E+10	1
4901784	121	C	10/27/2018	10:51	-132.839	43.026	0	207.30	0	8.0410	0	34.2090	8	26.650	0	205.552	0	158.8	4	55.1	4	-1E+10	1	-1E+10	1	-1E+10	1	-1E+10	1	-1E+10	1	-1E+10	1
4901784	121	C	10/27/2018	10:51	-132.839	43.026	0	210.10	0	7.9890	0	34.2090	8	26.658	0	208.326	0	158.1	4	54.8	4	-1E+10	1	-1E+10	1	-1E+10	1	-1E+10	1	-1E+10	1	-1E+10	1
4901784	121	C	10/27/2018	10:51	-132.839	43.026	0	212.80	0	7.9640	0	34.2110	8	26.663	0	211.002	0	157.6	4	54.6	4	-1E+10	1	-1E+10	1	-1E+10	1	-1E+10	1	-1E+10	1	-1E+10	1
4901784	121	C	10/27/2018	10:51	-132.839	43.026	0	214.60	0	7.9510	0	34.2120	8	26.666	0	212.786	0	157.0	4	54.3	4	-1E+10	1	-1E+10	1	-1E+10	1	-1E+10	1	-1E+10	1	-1E+10	1
4901784	121	C	10/27/2018	10:51	-132.839	43.026	0	217.50	0	7.9160	0	34.2120	8	26.671	0	215.660	0	155.7	4	53.9	4	-1E+10	1	-1E+10	1	-1E+10	1	-1E+10	1	-1E+10	1	-1E+10	1
4901784	121	C	10/27/2018	10:51	-132.839	43.026	0	220.20	0	7.8710	0	34.2110	8	26.677	0	218.336	0	154.6	4	53.4	4	-1E+10	1	-1E+10	1	-1E+10	1	-1E+10	1	-1E+10	1	-1E+10	1
4901784	121	C	10/27/2018	10:51	-132.839	43.026	0	222.00	0	7.8370	0	34.2120	8	26.683	0	220.120	0	153.9	4	53.1	4	-1E+10	1	-1E+10	1	-1E+10	1	-1E+10	1	-1E+10	1	-1E+10	1
4901784	121	C	10/27/2018	10:51	-132.839	43.026	0	224.80	0	7.8200	0	34.2110	8	26.684	0	222.894	0	152.9	4	52.8	4	-1E+10	1	-1E+10	1	-1E+10	1	-1E+10	1	-1E+10	1	-1E+10	1
4901784	121	C	10/27/2018	10:51	-132.839	43.026	0	227.40	0	7.7890	0	34.2100	8	26.688	0	225.471	0	151.7	4	52.3	4	-1E+10	1	-1E+10	1	-1E+10	1	-1E+10	1	-1E+10	1	-1E+10	1
4901784	121	C	10/27/2018	10:51	-132.839	43.026	0	230.20	0	7.7450	0	34.2100	8	26.694	0	228.246	0	150.5	4	51.9	4	-1E+10	1	-1E+10	1	-1E+10	1	-1E+10	1	-1E+10	1	-1E+10	1
4901784	121	C	10/27/2018	10:51	-132.839	43.026	0	233.10	0	7.6880	0	34.2100	8	26.703	0	231.119	0	149.0	4	51.3	4	-1E+10	1	-1E+10	1	-1E+10	1	-1E+10	1	-1E+10	1	-1E+10	1
4901784	121	C	10/27/2018	10:51	-132.839	43.026	0	234.90	0	7.6300	0	34.2100	8	26.711	0	232.903	0	148.0	4	50.9	4	-1E+10	1	-1E+10	1	-1E+10	1	-1E+10	1	-1E+10	1	-1E+10	1
4901784	121	C	10/27/2018	10:51	-132.839	43.026	0	237.70	0	7.5710	0	34.2100	8	26.720	0	235.678	0	146.9	4	50.4	4	-1E+10	1	-1E+10	1	-1E+10	1	-1E+10	1	-1E+10	1	-1E+10	1
4901784	121	C	10/27/2018	10:51	-132.839	43.026	0	240.50	0	7.5350	0	34.2100	8	26.725	0	238.452	0	145.9	4	50.0	4	-1E+10	1	-1E+10	1	-1E+10	1	-1E+10	1	-1E+10	1	-1E+10	1
4901784	121	C	10/27/2018	10:51	-132.839	43.026	0	242.30	0	7.5140	0	34.2100	8	26.728	0	240.236	0	145.2	4	49.8	4	-1E+10	1	-1E+10	1	-1E+10	1	-1E+10	1	-1E+10	1	-1E+10	1
4901784	121	C	10/27/2018	10:51	-132.839	43.026	0	245.10	0	7.4760	0	34.2090	8	26.733	0	243.010	0	143.9	4	49.3	4	-1E+10	1	-1E+10	1	-1E+10	1	-1E+10	1	-1E+10	1	-1E+10	1
4901784	121	C	10/27/2018	10:51	-132.839	43.026	0	247.90	0	7.4320	0	34.2070	8	26.737	0	245.785	0	142.6	4	48.8	4	-1E+10	1	-1E+10	1	-1E+10	1	-1E+10	1	-1E+10	1	-1E+10	1
4901784	121	C	10/27/2018	10:51	-132.839	43.026	0	249.70	0	7.4070	0	34.2070	8	26.741	0	247.569	0	141.8	4	48.5	4	-1E+10	1	-1E+10	1	-1E+10	1	-1E+10	1	-1E+10	1	-1E+10	1
4901784	121	C	10/27/2018	10:51	-132.839	43.026	0	252.50	0	7.3460	0	34.2060	8	26.749	0	250.343	0	140.3	4	47.9	4	-1E+10	1	-1E+10	1	-1E+10	1	-1E+10	1	-1E+10	1	-1E+10	1
4901784	121	C	10/27/2018	10:51	-132.839	43.026	0	255.20	0	7.3150	0	34.2060	8	26.753	0	253.018	0	139.5	4	47.6	4	-1E+10	1	-1E+10	1	-1E+10	1	-1E+10	1	-1E+10	1	-1E+10	1
4901784	121	C	10/27/2018	10:51	-132.839	43.026	0	257.00	0	7.2510	0	34.2060	8	26.762	0	254.802	0	138.9	4	47.3	4	-1E+10	1	-1E+10	1	-1E+10	1	-1E+10	1	-1E+10	1	-1E+10	1
4901784	121	C	10/27/2018	10:51	-132.839	43.026	0	259.70	0	7.2240	0	34.2050	8	26.765	0	257.477	0	137.0	4	46.7	4	-1E+10	1	-1E+10	1	-1E+10	1	-1E+10	1	-1E+10	1	-1E+10	1
4901784	121	C	10/27/2018	10:51	-132.839	43.026	0	262.50	0	7.1660	0	34.2040	8	26.772	0	260.251	0	135.2	4	46.0	4	-1E+10	1	-1E+10	1	-1E+10	1	-1E+10	1	-1E+10	1	-1E+10	1
4901784	121	C	10/27/2018	10:51	-132.839	43.026	0	265.20	0	7.1020	0	34.2040	8	26.781	0	262.926	0	133.9	4	45.5	4	-1E+10	1	-1E+10	1	-1E+10	1	-1E+10	1	-1E+10	1	-1E+10	1
4901784	121	C	10/27/2018	10:51	-132.839	43.026	0	267.90	0	7.0700	0	34.2030	8	26.785	0	265.601	0	132.9	4	45.1	4	-1E+10	1	-1E+10	1	-1E+10	1	-1E+10	1	-1E+10	1	-1E+10	1
4901784	121	C	10/27/2018	10:51	-132.839	43.026	0	269.70	0	7.0080	0	34.2030	8	26.794	0	267.385	0	132.1	4	44.8	4	-1E+10	1	-1E+10	1	-1E+10	1	-1E+10	1	-1E+10	1	-1E+10	1
4901784	121	C	10/27/2018	10:51	-132.839	43.026	0	272.40	0	6.9770	0	34.2020	8	26.797	0	270.060	0	131.1	4	44.4	4	-1E+10	1	-1E+10	1	-1E+10	1	-1E+10	1	-1E+10	1	-1E+10	1
4901784	121	C	10/27/2018	10:51	-132.839	43.026	0	275.00	0	6.9410	0	34.2010	8	26.801	0	272.636	0	130.5	4	44.2	4	-1E+10	1	-1E+10	1	-1E+10	1	-1E+10	1	-1E+10	1	-1E+10	1
4901784	121	C	10/27/2018	10:51	-132.839	43.026	0	277.60	0	6.9280	0	34.2000	8	26.802	0	275.212	0	129.6	4	43.8	4	-1E+10	1	-1E+10	1	-1E+10	1	-1E+10	1	-1E+10	1	-1E+10	1
4901784	121	C	10/27/2018	10:51	-132.839	43.026	0	280.30	0	6.8960	0	34.1980	8	26.805	0	277.887	0	128.2	4	43.3	4	-1E+10	1	-1E+10	1	-1E+10	1	-1E+10	1	-1E+10	1	-1E+10	1
4901784	121	C	10/27/2018	10:51	-132.839	43.026	0	282.10	0	6.8730	0	34.1960	8	26.807	0	279.670	0	126.9	4	42.9	4	-1E+10	1	-1E+10	1	-1E+10	1	-1E+10	1	-1E+10	1	-1E+10	1
4901784	121	C	10/27/2018	10:51	-132.839	43.026	0	284.80	0	6.7780	0	34.1960	8	26.819	0	282.345	0	125.3	4	42.2	4	-1E+10	1	-1E+10	1	-1E+10	1	-1E+10	1	-1E+10	1	-1E+10	1
4901784	121	C	10/27/2018	10:51	-132.839	43.026	0	287.50	0	6.7210	0	34.1960	8	26.827	0	285.020	0	124.5	4	41.9	4	-1E+10	1	-1E+10	1	-1E+10	1	-1E+10	1	-1E+10	1	-1E+10	1
4901784	121	C	10/27/2018	10:51	-132.839	43.026	0	290.20	0	6.6810	0	34.1960	8	26.832	0	287.695	0	123.7	4	41.6	4	-1E+10	1	-1E+10	1	-1E+10	1	-1E+10	1	-1E+10	1	-1E+10	1
4901784	121	C	10/27/2018	10:51	-132.839	43.026	0	292.90	0	6.6490	0	34.1950	8	26.836	0	290.369	0	123.0	4	41.3	4	-1E+10	1	-1E+10	1	-1E+10	1	-1E+10	1	-1E+10	1	-1E+10	1
4901784	121	C	10/27/2018	10:51	-132.839	43.026	0	294.70	0	6.5940	0	34.1960	8	26.844	0	292.153	0	122.5	4	41.1	4	-1E+10	1	-1E+10	1	-1E+10	1	-1E+10	1	-1E+10	1	-1E+10	1
4901784	121	C	10/27/2018	10:51	-132.839	43.026	0	297.40	0	6.5690	0	34.1950	8	26.847	0	294.827	0	121.6	4	40.8	4	-1E+10	1	-1E+10	1	-1E+10	1	-1E+10	1	-1E+10	1	-1E+10	1
4901784	121	C	10/27/2018	10:51	-132.839	43.026	0	300.20	0	6.5570	0	34.1940	8	26.847	0	297.601	0	120.6	4	40.5	4	-1E+10	1	-1E+10	1	-1E+10	1	-1E+10	1	-1E+10	1	-1E+10	1
4901784	121	C	10/27/2018	10:51	-132.839	43.026	0	302.00	0	6.5430	0	34.1930	8	26.849	0	299.384	0	119.8	4	40.2	4	-1E+10	1	-1E+10	1	-1E+10	1	-1E+10	1	-1E+10	1	-1E+10	1
4901784	121	C	10/27/2018	10:51	-132.839	43.026	0	304.70	0	6.5010	0	34.1920	8	26.853	0	302.059	0	118.5	4	39.7	4	-1E+10	1	-1E+10	1	-1E+10	1	-1E+10	1	-1E+10	1	-1E+10	1
4901784	121	C	10/27/2018	10:51	-132.839	43.026	0	307.30	0	6.4370	0	34.1930	8	26.862	0	304.634	0	117.4	4	39.3	4	-1E+10	1	-1E+10	1	-1E+10	1	-1E+10	1	-1E+10	1	-1E+10	1
4901784	121	C	10/27/2018	10:51	-132.839	43.026	0	310.00	0	6.3900	0	34.1910	8	26.867	0	307.309	0	116.4	4	38.9	4	-1E+10	1	-1E+10	1	-1E+10	1	-1E+10	1	-1E+10	1	-1E+10	1
4901784	121	C	10/27/2018	10:51	-132.839	43.026	0	312.70	0	6.3490	0	34.1910	8	26.872	0	309.984	0	115.5	4	38.6	4	-1E+10	1	-1E+10	1	-1E+10	1	-1E+10	1	-1E+10	1	-1E+10	1
4901784	121	C	10/27/2018	10:51	-132.839	43.026	0	315.30	0	6.3340	0	34.1900	8	26.874	0	312.559	0	114.6	4	38.2	4	-1E+10	1	-1E+10	1	-1E+10	1	-1E+10	1	-1E+10	1	-1E+10	1
4901784	121	C	10/27/2018	10:51	-132.839	43.026	0	317.90	0	6.2980	0	34.1890	8	26.877	0	315.134	0	113.4	4	37.8	4	-1E+10	1	-1E+10	1	-1E+10	1	-1E+10	1	-1E+10	1	-1E+10	1
4901784	121	C	10/27/2018	10:51	-132.839	43.026	0	319.70	0	6.2570	0	34.1910	8	26.884	0	316.917	0	112.7	4	37.5	4	-1E+10	1	-1E+10	1	-1E+10	1	-1E+10	1	-1E+10	1	-1E+10	1
4901784	121	C	10/27/2018	10:51	-132.839	43.026	0	322.40	0	6.2160	0	34.1900	8	26.889	0	319.592	0	111.8	4	37.2	4	-1E+10	1	-1E+10	1	-1E+10	1	-1E+10	1	-1E+10	1	-1E+10	1
4901784	121	C	10/27/2018	10:51	-132.839	43.026	0	325.00	0	6.1840	0	34.1910	8	26.894	0	322.167	0	110.9	4	36.9	4	-1E+10	1	-1E+10	1	-1E+10	1	-1E+10	1	-1E+10	1	-1E+10	1
4901784	121	C	10/27/2018	10:51	-132.839	43.026	0	327.70	0	6.1500	0	34.1900	8	26.897	0	324.842	0	110.1	4	36.6	4	-1E+10	1	-1E+10	1	-1E+10	1	-1E+10	1	-1E+10	1	-1E+10	1
4901784	121	C	10/27/2018	10:51	-132.839	43.026	0	330.30	0	6.1290	0	34.1880	8	26.898	0	327.417	0	109.4	4	36.3	4	-1E+10	1	-1E+10	1	-1E+10	1	-1E+10	1	-1E+10	1	-1E+10	1
4901784	121	C	10/27/2018	10:51	-132.839	43.026	0	332.20	0	6.1110	0	34.1890	8	26.902	0	329.299	0	108.8	4	36.1	4	-1E+10	1	-1E+10	1	-1E+10	1	-1E+10	1	-1E+10	1	-1E+10	1
4901784	121	C	10/27/2018	10:51	-132.839	43.026	0	334.80	0	6.0850	0	34.1880	8	26.904	0	331.874	0	108.0	4	35.8	4	-1E+10	1	-1E+10	1	-1E+10	1	-1E+10	1	-1E+10	1	-1E+10	1
4901784	121	C	10/27/2018	10:51	-132.839	43.026	0	337.40	0	6.0710	0	34.1870	8	26.905	0	334.449	0	106.9	4	35.5	4	-1E+10	1	-1E+10	1	-1E+10	1	-1E+10	1	-1E+10	1	-1E+10	1
4901784	121	C	10/27/2018	10:51	-132.839	43.026	0	340.10	0	6.0540	0	34.1860	8	26.906	0	337.123	0	105.3	4	34.9	4	-1E+10	1	-1E+10	1	-1E+10	1	-1E+10	1	-1E+10	1	-1E+10	1
4901784	121	C	10/27/2018	10:51	-132.839	43.026	0	342.80	0	5.9920	0	34.1860	8	26.914	0	339.797	0	103.4	4	34.2	4	-1E+10	1	-1E+10	1	-1E+10	1	-1E+10	1	-1E+10	1	-1E+10	1
4901784	121	C	10/27/2018	10:51	-132.839	43.026	0	344.60	0	5.9560	0	34.1850	8	26.918	0	341.580	0	102.3	4	33.8	4	-1E+10	1	-1E+10	1	-1E+10	1	-1E+10	1	-1E+10	1	-1E+10	1
4901784	121	C	10/27/2018	10:51	-132.839	43.026	0	347.20	0	5.9040	0	34.1860	8	26.925	0	344.155	0	100.7	4	33.2	4	-1E+10	1	-1E+10	1	-1E+10	1	-1E+10	1	-1E+10	1	-1E+10	1
4901784	121	C	10/27/2018	10:51	-132.839	43.026	0	349.90	0	5.8510	0	34.1920	8	26.937	0	346.829	0	99.3	4	32.7	4	-1E+10	1	-1E+10	1	-1E+10	1	-1E+10	1	-1E+10	1	-1E+10	1
4901784	121	C	10/27/2018	10:51	-132.839	43.026	0	352.50	0	5.8320	0	34.1860	8	26.934	0	349.404	0	98.1	4	32.3	4	-1E+10	1	-1E+10	1	-1E+10	1	-1E+10	1	-1E+10	1	-1E+10	1
4901784	121	C	10/27/2018	10:51	-132.839	43.026	0	355.10	0	5.7930	0	34.1860	8	26.939	0	351.979	0	96.6	4	31.8	4	-1E+10	1	-1E+10	1	-1E+10	1	-1E+10	1	-1E+10	1	-1E+10	1
4901784	121	C	10/27/2018	10:51	-132.839	43.026	0	357.80	0	5.7540	0	34.1880	8	26.946	0	354.653	0	95.3	4	31.4	4	-1E+10	1	-1E+10	1	-1E+10	1	-1E+10	1	-1E+10	1	-1E+10	1
4901784	121	C	10/27/2018	10:51	-132.839	43.026	0	360.50	0	5.7020	0	34.1890	8	26.953	0	357.327	0	94.3	4	31.0	4	-1E+10	1	-1E+10	1	-1E+10	1	-1E+10	1	-1E+10	1	-1E+10	1
4901784	121	C	10/27/2018	10:51	-132.839	43.026	0	362.20	0	5.6920	0	34.1890	8	26.954	0	359.011	0	93.7	4	30.8	4	-1E+10	1	-1E+10	1	-1E+10	1	-1E+10	1	-1E+10	1	-1E+10	1
4901784	121	C	10/27/2018	10:51	-132.839	43.026	0	364.90	0	5.6680	0	34.1890	8	26.957	0	361.685	0	92.6	4	30.4	4	-1E+10	1	-1E+10	1	-1E+10	1	-1E+10	1	-1E+10	1	-1E+10	1
4901784	121	C	10/27/2018	10:51	-132.839	43.026	0	367.70	0	5.6320	0	34.1900	8	26.962	0	364.457	0	91.5	4	30.0	4	-1E+10	1	-1E+10	1	-1E+10	1	-1E+10	1	-1E+10	1	-1E+10	1
4901784	121	C	10/27/2018	10:51	-132.839	43.026	0	369.50	0	5.6050	0	34.1910	8	26.966	0	366.240	0	90.9	4	29.8	4	-1E+10	1	-1E+10	1	-1E+10	1	-1E+10	1	-1E+10	1	-1E+10	1
4901784	121	C	10/27/2018	10:51	-132.839	43.026	0	372.20	0	5.5710	0	34.1910	8	26.970	0	368.914	0	90.2	4	29.6	4	-1E+10	1	-1E+10	1	-1E+10	1	-1E+10	1	-1E+10	1	-1E+10	1
4901784	121	C	10/27/2018	10:51	-132.839	43.026	0	374.90	0	5.5550	0	34.1920	8	26.973	0	371.588	0	89.5	4	29.3	4	-1E+10	1	-1E+10	1	-1E+10	1	-1E+10	1	-1E+10	1	-1E+10	1
4901784	121	C	10/27/2018	10:51	-132.839	43.026	0	377.50	0	5.5330	0	34.1920	8	26.976	0	374.162	0	88.8	4	29.1	4	-1E+10	1	-1E+10	1	-1E+10	1	-1E+10	1	-1E+10	1	-1E+10	1
4901784	121	C	10/27/2018	10:51	-132.839	43.026	0	380.30	0	5.5260	0	34.1920	8	26.977	0	376.935	0	88.1	4	28.9	4	-1E+10	1	-1E+10	1	-1E+10	1	-1E+10	1	-1E+10	1	-1E+10	1
4901784	121	C	10/27/2018	10:51	-132.839	43.026	0	382.10	0	5.5170	0	34.1910	8	26.977	0	378.717	0	87.4	4	28.6	4	-1E+10	1	-1E+10	1	-1E+10	1	-1E+10	1	-1E+10	1	-1E+10	1
4901784	121	C	10/27/2018	10:51	-132.839	43.026	0	384.80	0	5.4840	0	34.1930	8	26.983	0	381.391	0	86.3	4	28.2	4	-1E+10	1	-1E+10	1	-1E+10	1	-1E+10	1	-1E+10	1	-1E+10	1
4901784	121	C	10/27/2018	10:51	-132.839	43.026	0	387.40	0	5.4610	0	34.1930	8	26.985	0	383.966	0	85.2	4	27.8	4	-1E+10	1	-1E+10	1	-1E+10	1	-1E+10	1	-1E+10	1	-1E+10	1
4901784	121	C	10/27/2018	10:51	-132.839	43.026	0	390.10	0	5.4120	0	34.1960	8	26.994	0	386.639	0	83.9	4	27.4	4	-1E+10	1	-1E+10	1	-1E+10	1	-1E+10	1	-1E+10	1	-1E+10	1
4901784	121	C	10/27/2018	10:51	-132.839	43.026	0	392.90	0	5.3640	0	34.1970	8	27.000	0	389.412	0	83.0	4	27.1	4	-1E+10	1	-1E+10	1	-1E+10	1	-1E+10	1	-1E+10	1	-1E+10	1
4901784	121	C	10/27/2018	10:51	-132.839	43.026	0	395.30	0	5.3520	0	34.1980	8	27.002	0	391.788	0	82.4	4	26.9	4	-1E+10	1	-1E+10	1	-1E+10	1	-1E+10	1	-1E+10	1	-1E+10	1
4901784	121	C	10/27/2018	10:51	-132.839	43.026	0	397.30	0	5.3490	0	34.1980	8	27.003	0	393.768	0	81.7	4	26.6	4	-1E+10	1	-1E+10	1	-1E+10	1	-1E+10	1	-1E+10	1	-1E+10	1
4901784	121	C	10/27/2018	10:51	-132.839	43.026	0	399.60	0	5.3230	0	34.1980	8	27.006	0	396.046	0	80.4	4	26.2	4	-1E+10	1	-1E+10	1	-1E+10	1	-1E+10	1	-1E+10	1	-1E+10	1
4901784	121	C	10/27/2018	10:51	-132.839	43.026	0	402.60	0	5.2590	0	34.2020	8	27.016	0	399.016	0	79.0	4	25.7	4	-1E+10	1	-1E+10	1	-1E+10	1	-1E+10	1	-1E+10	1	-1E+10	1
4901784	121	C	10/27/2018	10:51	-132.839	43.026	0	404.90	0	5.2420	0	34.2020	8	27.018	0	401.293	0	78.3	4	25.5	4	-1E+10	1	-1E+10	1	-1E+10	1	-1E+10	1	-1E+10	1	-1E+10	1
4901784	121	C	10/27/2018	10:51	-132.839	43.026	0	407.30	0	5.2270	0	34.2030	8	27.021	0	403.670	0	77.3	4	25.1	4	-1E+10	1	-1E+10	1	-1E+10	1	-1E+10	1	-1E+10	1	-1E+10	1
4901784	121	C	10/27/2018	10:51	-132.839	43.026	0	409.70	0	5.2030	0	34.2040	8	27.025	0	406.046	0	76.3	4	24.8	4	-1E+10	1	-1E+10	1	-1E+10	1	-1E+10	1	-1E+10	1	-1E+10	1
4901784	121	C	10/27/2018	10:51	-132.839	43.026	0	412.10	0	5.1870	0	34.2060	8	27.028	0	408.422	0	75.5	4	24.5	4	-1E+10	1	-1E+10	1	-1E+10	1	-1E+10	1	-1E+10	1	-1E+10	1
4901784	121	C	10/27/2018	10:51	-132.839	43.026	0	415.30	0	5.1540	0	34.2080	8	27.034	0	411.590	0	74.2	4	24.1	4	-1E+10	1	-1E+10	1	-1E+10	1	-1E+10	1	-1E+10	1	-1E+10	1
4901784	121	C	10/27/2018	10:51	-132.839	43.026	0	417.70	0	5.1310	0	34.2110	8	27.039	0	413.967	0	73.2	4	23.8	4	-1E+10	1	-1E+10	1	-1E+10	1	-1E+10	1	-1E+10	1	-1E+10	1
4901784	121	C	10/27/2018	10:51	-132.839	43.026	0	420.20	0	5.1190	0	34.2110	8	27.040	0	416.442	0	72.3	4	23.5	4	-1E+10	1	-1E+10	1	-1E+10	1	-1E+10	1	-1E+10	1	-1E+10	1
4901784	121	C	10/27/2018	10:51	-132.839	43.026	0	422.70	0	5.1080	0	34.2140	8	27.044	0	418.917	0	71.4	4	23.2	4	-1E+10	1	-1E+10	1	-1E+10	1	-1E+10	1	-1E+10	1	-1E+10	1
4901784	121	C	10/27/2018	10:51	-132.839	43.026	0	425.30	0	5.0840	0	34.2170	8	27.049	0	421.491	0	70.4	4	22.8	4	-1E+10	1	-1E+10	1	-1E+10	1	-1E+10	1	-1E+10	1	-1E+10	1
4901784	121	C	10/27/2018	10:51	-132.839	43.026	0	427.80	0	5.0610	0	34.2200	8	27.054	0	423.966	0	69.7	4	22.6	4	-1E+10	1	-1E+10	1	-1E+10	1	-1E+10	1	-1E+10	1	-1E+10	1
4901784	121	C	10/27/2018	10:51	-132.839	43.026	0	430.40	0	5.0540	0	34.2190	8	27.054	0	426.540	0	68.9	4	22.3	4	-1E+10	1	-1E+10	1	-1E+10	1	-1E+10	1	-1E+10	1	-1E+10	1
4901784	121	C	10/27/2018	10:51	-132.839	43.026	0	433.00	0	5.0420	0	34.2210	8	27.057	0	429.114	0	67.7	4	21.9	4	-1E+10	1	-1E+10	1	-1E+10	1	-1E+10	1	-1E+10	1	-1E+10	1
4901784	121	C	10/27/2018	10:51	-132.839	43.026	0	434.70	0	5.0240	0	34.2240	8	27.061	0	430.797	0	67.0	4	21.7	4	-1E+10	1	-1E+10	1	-1E+10	1	-1E+10	1	-1E+10	1	-1E+10	1
4901784	121	C	10/27/2018	10:51	-132.839	43.026	0	437.40	0	4.9980	0	34.2280	8	27.067	0	433.470	0	66.3	4	21.4	4	-1E+10	1	-1E+10	1	-1E+10	1	-1E+10	1	-1E+10	1	-1E+10	1
4901784	121	C	10/27/2018	10:51	-132.839	43.026	0	440.10	0	4.9900	0	34.2290	8	27.069	0	436.143	0	65.8	4	21.3	4	-1E+10	1	-1E+10	1	-1E+10	1	-1E+10	1	-1E+10	1	-1E+10	1
4901784	121	C	10/27/2018	10:51	-132.839	43.026	0	442.80	0	4.9820	0	34.2300	8	27.071	0	438.816	0	65.0	4	21.0	4	-1E+10	1	-1E+10	1	-1E+10	1	-1E+10	1	-1E+10	1	-1E+10	1
4901784	121	C	10/27/2018	10:51	-132.839	43.026	0	445.50	0	4.9680	0	34.2320	8	27.074	0	441.489	0	64.0	4	20.7	4	-1E+10	1	-1E+10	1	-1E+10	1	-1E+10	1	-1E+10	1	-1E+10	1
4901784	121	C	10/27/2018	10:51	-132.839	43.026	0	447.30	0	4.9600	0	34.2330	8	27.076	0	443.270	0	63.5	4	20.5	4	-1E+10	1	-1E+10	1	-1E+10	1	-1E+10	1	-1E+10	1	-1E+10	1
4901784	121	C	10/27/2018	10:51	-132.839	43.026	0	450.10	0	4.9430	0	34.2380	8	27.082	0	446.042	0	62.7	4	20.3	4	-1E+10	1	-1E+10	1	-1E+10	1	-1E+10	1	-1E+10	1	-1E+10	1
4901784	121	C	10/27/2018	10:51	-132.839	43.026	0	452.80	0	4.9380	0	34.2380	8	27.082	0	448.715	0	62.2	4	20.1	4	-1E+10	1	-1E+10	1	-1E+10	1	-1E+10	1	-1E+10	1	-1E+10	1
4901784	121	C	10/27/2018	10:51	-132.839	43.026	0	454.60	0	4.9370	0	34.2380	8	27.083	0	450.497	0	61.7	4	19.9	4	-1E+10	1	-1E+10	1	-1E+10	1	-1E+10	1	-1E+10	1	-1E+10	1
4901784	121	C	10/27/2018	10:51	-132.839	43.026	0	457.00	0	4.9280	0	34.2390	8	27.084	0	452.873	0	61.1	4	19.7	4	-1E+10	1	-1E+10	1	-1E+10	1	-1E+10	1	-1E+10	1	-1E+10	1
4901784	121	C	10/27/2018	10:51	-132.839	43.026	0	459.70	0	4.9160	0	34.2410	8	27.087	0	455.545	0	60.1	4	19.4	4	-1E+10	1	-1E+10	1	-1E+10	1	-1E+10	1	-1E+10	1	-1E+10	1
4901784	121	C	10/27/2018	10:51	-132.839	43.026	0	462.90	0	4.9010	0	34.2440	8	27.091	0	458.713	0	59.1	4	19.1	4	-1E+10	1	-1E+10	1	-1E+10	1	-1E+10	1	-1E+10	1	-1E+10	1
4901784	121	C	10/27/2018	10:51	-132.839	43.026	0	465.20	0	4.8880	0	34.2460	8	27.094	0	460.989	0	58.5	4	18.9	4	-1E+10	1	-1E+10	1	-1E+10	1	-1E+10	1	-1E+10	1	-1E+10	1
4901784	121	C	10/27/2018	10:51	-132.839	43.026	0	467.50	0	4.8790	0	34.2470	8	27.096	0	463.266	0	58.0	4	18.7	4	-1E+10	1	-1E+10	1	-1E+10	1	-1E+10	1	-1E+10	1	-1E+10	1
4901784	121	C	10/27/2018	10:51	-132.839	43.026	0	469.80	0	4.8600	0	34.2490	8	27.100	0	465.543	0	57.2	4	18.4	4	-1E+10	1	-1E+10	1	-1E+10	1	-1E+10	1	-1E+10	1	-1E+10	1
4901784	121	C	10/27/2018	10:51	-132.839	43.026	0	472.20	0	4.8440	0	34.2500	8	27.103	0	467.918	0	56.4	4	18.2	4	-1E+10	1	-1E+10	1	-1E+10	1	-1E+10	1	-1E+10	1	-1E+10	1
4901784	121	C	10/27/2018	10:51	-132.839	43.026	0	475.40	0	4.8240	0	34.2540	8	27.108	0	471.086	0	55.4	4	17.9	4	-1E+10	1	-1E+10	1	-1E+10	1	-1E+10	1	-1E+10	1	-1E+10	1
4901784	121	C	10/27/2018	10:51	-132.839	43.026	0	477.80	0	4.8200	0	34.2580	8	27.112	0	473.461	0	54.7	4	17.6	4	-1E+10	1	-1E+10	1	-1E+10	1	-1E+10	1	-1E+10	1	-1E+10	1
4901784	121	C	10/27/2018	10:51	-132.839	43.026	0	480.30	0	4.8070	0	34.2610	8	27.116	0	475.935	0	54.1	4	17.4	4	-1E+10	1	-1E+10	1	-1E+10	1	-1E+10	1	-1E+10	1	-1E+10	1
4901784	121	C	10/27/2018	10:51	-132.839	43.026	0	482.70	0	4.7950	0	34.2630	8	27.119	0	478.311	0	53.4	4	17.2	4	-1E+10	1	-1E+10	1	-1E+10	1	-1E+10	1	-1E+10	1	-1E+10	1
4901784	121	C	10/27/2018	10:51	-132.839	43.026	0	485.20	0	4.7800	0	34.2660	8	27.123	0	480.785	0	52.8	4	17.0	4	-1E+10	1	-1E+10	1	-1E+10	1	-1E+10	1	-1E+10	1	-1E+10	1
4901784	121	C	10/27/2018	10:51	-132.839	43.026	0	487.60	0	4.7760	0	34.2670	8	27.124	0	483.161	0	52.2	4	16.8	4	-1E+10	1	-1E+10	1	-1E+10	1	-1E+10	1	-1E+10	1	-1E+10	1
4901784	121	C	10/27/2018	10:51	-132.839	43.026	0	490.10	0	4.7650	0	34.2720	8	27.129	0	485.635	0	51.6	4	16.6	4	-1E+10	1	-1E+10	1	-1E+10	1	-1E+10	1	-1E+10	1	-1E+10	1
4901784	121	C	10/27/2018	10:51	-132.839	43.026	0	492.60	0	4.7630	0	34.2730	8	27.130	0	488.109	0	51.0	4	16.4	4	-1E+10	1	-1E+10	1	-1E+10	1	-1E+10	1	-1E+10	1	-1E+10	1
4901784	121	C	10/27/2018	10:51	-132.839	43.026	0	495.10	0	4.7570	0	34.2760	8	27.133	0	490.583	0	50.2	4	16.1	4	-1E+10	1	-1E+10	1	-1E+10	1	-1E+10	1	-1E+10	1	-1E+10	1
4901784	121	C	10/27/2018	10:51	-132.839	43.026	0	497.60	0	4.7480	0	34.2800	8	27.137	0	493.058	0	49.5	4	15.9	4	-1E+10	1	-1E+10	1	-1E+10	1	-1E+10	1	-1E+10	1	-1E+10	1
4901784	121	C	10/27/2018	10:51	-132.839	43.026	0	500.20	0	4.7350	0	34.2820	8	27.140	0	495.631	0	48.9	4	15.7	4	-1E+10	1	-1E+10	1	-1E+10	1	-1E+10	1	-1E+10	1	-1E+10	1
4901784	121	C	10/27/2018	10:51	-132.839	43.026	0	504.40	0	4.7140	0	34.2870	8	27.147	0	499.787	0	48.0	4	15.4	4	-1E+10	1	-1E+10	1	-1E+10	1	-1E+10	1	-1E+10	1	-1E+10	1
4901784	121	C	10/27/2018	10:51	-132.839	43.026	0	509.60	0	4.7010	0	34.2890	8	27.150	0	504.934	0	47.3	4	15.2	4	-1E+10	1	-1E+10	1	-1E+10	1	-1E+10	1	-1E+10	1	-1E+10	1
4901784	121	C	10/27/2018	10:51	-132.839	43.026	0	514.70	0	4.6850	0	34.2920	8	27.154	0	509.981	0	46.5	4	14.9	4	-1E+10	1	-1E+10	1	-1E+10	1	-1E+10	1	-1E+10	1	-1E+10	1
4901784	121	C	10/27/2018	10:51	-132.839	43.026	0	520.00	0	4.6680	0	34.2960	8	27.159	0	515.225	0	46.0	4	14.8	4	-1E+10	1	-1E+10	1	-1E+10	1	-1E+10	1	-1E+10	1	-1E+10	1
4901784	121	C	10/27/2018	10:51	-132.839	43.026	0	525.30	0	4.6660	0	34.2970	8	27.160	0	520.470	0	45.4	4	14.6	4	-1E+10	1	-1E+10	1	-1E+10	1	-1E+10	1	-1E+10	1	-1E+10	1
4901784	121	C	10/27/2018	10:51	-132.839	43.026	0	530.50	0	4.6580	0	34.2990	8	27.163	0	525.616	0	44.4	4	14.2	4	-1E+10	1	-1E+10	1	-1E+10	1	-1E+10	1	-1E+10	1	-1E+10	1
4901784	121	C	10/27/2018	10:51	-132.839	43.026	0	535.00	0	4.6500	0	34.3020	8	27.166	0	530.069	0	43.4	4	13.9	4	-1E+10	1	-1E+10	1	-1E+10	1	-1E+10	1	-1E+10	1	-1E+10	1
4901784	121	C	10/27/2018	10:51	-132.839	43.026	0	539.40	0	4.6400	0	34.3050	8	27.170	0	534.422	0	42.5	4	13.6	4	-1E+10	1	-1E+10	1	-1E+10	1	-1E+10	1	-1E+10	1	-1E+10	1
4901784	121	C	10/27/2018	10:51	-132.839	43.026	0	544.90	0	4.6320	0	34.3070	8	27.172	0	539.865	0	41.6	4	13.3	4	-1E+10	1	-1E+10	1	-1E+10	1	-1E+10	1	-1E+10	1	-1E+10	1
4901784	121	C	10/27/2018	10:51	-132.839	43.026	0	550.30	0	4.6250	0	34.3100	8	27.175	0	545.208	0	40.3	4	12.9	4	-1E+10	1	-1E+10	1	-1E+10	1	-1E+10	1	-1E+10	1	-1E+10	1
4901784	121	C	10/27/2018	10:51	-132.839	43.026	0	555.00	0	4.6010	0	34.3170	8	27.184	0	549.858	0	39.0	4	12.5	4	-1E+10	1	-1E+10	1	-1E+10	1	-1E+10	1	-1E+10	1	-1E+10	1
4901784	121	C	10/27/2018	10:51	-132.839	43.026	0	559.60	0	4.5700	0	34.3240	8	27.192	0	554.409	0	37.9	4	12.1	4	-1E+10	1	-1E+10	1	-1E+10	1	-1E+10	1	-1E+10	1	-1E+10	1
4901784	121	C	10/27/2018	10:51	-132.839	43.026	0	565.20	0	4.5550	0	34.3280	8	27.197	0	559.950	0	36.9	4	11.8	4	-1E+10	1	-1E+10	1	-1E+10	1	-1E+10	1	-1E+10	1	-1E+10	1
4901784	121	C	10/27/2018	10:51	-132.839	43.026	0	569.90	0	4.5420	0	34.3320	8	27.202	0	564.600	0	36.2	4	11.6	4	-1E+10	1	-1E+10	1	-1E+10	1	-1E+10	1	-1E+10	1	-1E+10	1
4901784	121	C	10/27/2018	10:51	-132.839	43.026	0	574.50	0	4.5350	0	34.3340	8	27.204	0	569.151	0	35.5	4	11.4	4	-1E+10	1	-1E+10	1	-1E+10	1	-1E+10	1	-1E+10	1	-1E+10	1
4901784	121	C	10/27/2018	10:51	-132.839	43.026	0	580.10	0	4.5180	0	34.3390	8	27.210	0	574.691	0	34.1	4	10.9	4	-1E+10	1	-1E+10	1	-1E+10	1	-1E+10	1	-1E+10	1	-1E+10	1
4901784	121	C	10/27/2018	10:51	-132.839	43.026	0	584.80	0	4.5180	0	34.3420	8	27.213	0	579.340	0	32.7	4	10.5	4	-1E+10	1	-1E+10	1	-1E+10	1	-1E+10	1	-1E+10	1	-1E+10	1
4901784	121	C	10/27/2018	10:51	-132.839	43.026	0	589.40	0	4.5050	0	34.3490	8	27.220	0	583.891	0	31.5	4	10.1	4	-1E+10	1	-1E+10	1	-1E+10	1	-1E+10	1	-1E+10	1	-1E+10	1
4901784	121	C	10/27/2018	10:51	-132.839	43.026	0	595.00	0	4.4980	0	34.3550	8	27.225	0	589.431	0	29.9	4	9.6	4	-1E+10	1	-1E+10	1	-1E+10	1	-1E+10	1	-1E+10	1	-1E+10	1
4901784	121	C	10/27/2018	10:51	-132.839	43.026	0	600.50	0	4.5060	0	34.3620	8	27.230	0	594.871	0	28.9	4	9.2	4	-1E+10	1	-1E+10	1	-1E+10	1	-1E+10	1	-1E+10	1	-1E+10	1
4901784	121	C	10/27/2018	10:51	-132.839	43.026	0	605.10	0	4.5040	0	34.3640	8	27.232	0	599.422	0	28.2	4	9.0	4	-1E+10	1	-1E+10	1	-1E+10	1	-1E+10	1	-1E+10	1	-1E+10	1
4901784	121	C	10/27/2018	10:51	-132.839	43.026	0	609.60	0	4.5020	0	34.3660	8	27.234	0	603.873	0	27.4	4	8.8	4	-1E+10	1	-1E+10	1	-1E+10	1	-1E+10	1	-1E+10	1	-1E+10	1
4901784	121	C	10/27/2018	10:51	-132.839	43.026	0	615.00	0	4.4940	0	34.3700	8	27.238	0	609.214	0	26.1	4	8.3	4	-1E+10	1	-1E+10	1	-1E+10	1	-1E+10	1	-1E+10	1	-1E+10	1
4901784	121	C	10/27/2018	10:51	-132.839	43.026	0	620.40	0	4.4800	0	34.3810	8	27.248	0	614.555	0	24.9	4	8.0	4	-1E+10	1	-1E+10	1	-1E+10	1	-1E+10	1	-1E+10	1	-1E+10	1
4901784	121	C	10/27/2018	10:51	-132.839	43.026	0	624.90	0	4.4760	0	34.3840	8	27.251	0	619.006	0	24.4	4	7.8	4	-1E+10	1	-1E+10	1	-1E+10	1	-1E+10	1	-1E+10	1	-1E+10	1
4901784	121	C	10/27/2018	10:51	-132.839	43.026	0	629.50	0	4.4640	0	34.3880	8	27.255	0	623.556	0	23.8	4	7.6	4	-1E+10	1	-1E+10	1	-1E+10	1	-1E+10	1	-1E+10	1	-1E+10	1
4901784	121	C	10/27/2018	10:51	-132.839	43.026	0	634.90	0	4.4610	0	34.3910	8	27.258	0	628.897	0	23.3	4	7.4	4	-1E+10	1	-1E+10	1	-1E+10	1	-1E+10	1	-1E+10	1	-1E+10	1
4901784	121	C	10/27/2018	10:51	-132.839	43.026	0	640.30	0	4.4400	0	34.3950	8	27.264	0	634.238	0	22.8	4	7.3	4	-1E+10	1	-1E+10	1	-1E+10	1	-1E+10	1	-1E+10	1	-1E+10	1
4901784	121	C	10/27/2018	10:51	-132.839	43.026	0	645.60	0	4.4030	0	34.3970	8	27.269	0	639.479	0	22.7	4	7.2	4	-1E+10	1	-1E+10	1	-1E+10	1	-1E+10	1	-1E+10	1	-1E+10	1
4901784	121	C	10/27/2018	10:51	-132.839	43.026	0	650.00	0	4.3840	0	34.3980	8	27.272	0	643.831	0	22.4	4	7.1	4	-1E+10	1	-1E+10	1	-1E+10	1	-1E+10	1	-1E+10	1	-1E+10	1
4901784	121	C	10/27/2018	10:51	-132.839	43.026	0	654.40	0	4.3670	0	34.4000	8	27.276	0	648.182	0	21.8	4	7.0	4	-1E+10	1	-1E+10	1	-1E+10	1	-1E+10	1	-1E+10	1	-1E+10	1
4901784	121	C	10/27/2018	10:51	-132.839	43.026	0	659.60	0	4.3680	0	34.4060	8	27.280	0	653.325	0	21.1	4	6.7	4	-1E+10	1	-1E+10	1	-1E+10	1	-1E+10	1	-1E+10	1	-1E+10	1
4901784	121	C	10/27/2018	10:51	-132.839	43.026	0	664.80	0	4.3290	0	34.4070	8	27.285	0	658.467	0	20.8	4	6.6	4	-1E+10	1	-1E+10	1	-1E+10	1	-1E+10	1	-1E+10	1	-1E+10	1
4901784	121	C	10/27/2018	10:51	-132.839	43.026	0	670.10	0	4.2660	0	34.4130	8	27.297	0	663.708	0	19.9	4	6.3	4	-1E+10	1	-1E+10	1	-1E+10	1	-1E+10	1	-1E+10	1	-1E+10	1
4901784	121	C	10/27/2018	10:51	-132.839	43.026	0	675.30	0	4.2640	0	34.4230	8	27.305	0	668.850	0	19.0	4	6.0	4	-1E+10	1	-1E+10	1	-1E+10	1	-1E+10	1	-1E+10	1	-1E+10	1
4901784	121	C	10/27/2018	10:51	-132.839	43.026	0	680.60	0	4.2590	0	34.4290	8	27.310	0	674.091	0	18.4	4	5.9	4	-1E+10	1	-1E+10	1	-1E+10	1	-1E+10	1	-1E+10	1	-1E+10	1
4901784	121	C	10/27/2018	10:51	-132.839	43.026	0	685.70	0	4.2530	0	34.4330	8	27.314	0	679.134	0	18.0	4	5.7	4	-1E+10	1	-1E+10	1	-1E+10	1	-1E+10	1	-1E+10	1	-1E+10	1
4901784	121	C	10/27/2018	10:51	-132.839	43.026	0	690.10	0	4.2480	0	34.4350	8	27.316	0	683.484	0	17.8	4	5.7	4	-1E+10	1	-1E+10	1	-1E+10	1	-1E+10	1	-1E+10	1	-1E+10	1
4901784	121	C	10/27/2018	10:51	-132.839	43.026	0	694.40	0	4.2270	0	34.4350	8	27.319	0	687.736	0	17.4	4	5.5	4	-1E+10	1	-1E+10	1	-1E+10	1	-1E+10	1	-1E+10	1	-1E+10	1
4901784	121	C	10/27/2018	10:51	-132.839	43.026	0	699.70	0	4.2070	0	34.4430	8	27.327	0	692.976	0	16.8	4	5.3	4	-1E+10	1	-1E+10	1	-1E+10	1	-1E+10	1	-1E+10	1	-1E+10	1
4901784	121	C	10/27/2018	10:51	-132.839	43.026	0	704.90	0	4.1840	0	34.4490	8	27.334	0	698.118	0	16.4	4	5.2	4	-1E+10	1	-1E+10	1	-1E+10	1	-1E+10	1	-1E+10	1	-1E+10	1
4901784	121	C	10/27/2018	10:51	-132.839	43.026	0	710.20	0	4.1440	0	34.4530	8	27.342	0	703.358	0	16.1	4	5.1	4	-1E+10	1	-1E+10	1	-1E+10	1	-1E+10	1	-1E+10	1	-1E+10	1
4901784	121	C	10/27/2018	10:51	-132.839	43.026	0	715.50	0	4.1690	0	34.4590	8	27.344	0	708.598	0	15.8	4	5.0	4	-1E+10	1	-1E+10	1	-1E+10	1	-1E+10	1	-1E+10	1	-1E+10	1
4901784	121	C	10/27/2018	10:51	-132.839	43.026	0	720.00	0	4.1170	0	34.4600	8	27.350	0	713.047	0	15.9	4	5.1	4	-1E+10	1	-1E+10	1	-1E+10	1	-1E+10	1	-1E+10	1	-1E+10	1
4901784	121	C	10/27/2018	10:51	-132.839	43.026	0	724.50	0	4.0930	0	34.4610	8	27.353	0	717.496	0	15.7	4	5.0	4	-1E+10	1	-1E+10	1	-1E+10	1	-1E+10	1	-1E+10	1	-1E+10	1
4901784	121	C	10/27/2018	10:51	-132.839	43.026	0	730.00	0	4.0670	0	34.4660	8	27.360	0	722.933	0	15.3	4	4.9	4	-1E+10	1	-1E+10	1	-1E+10	1	-1E+10	1	-1E+10	1	-1E+10	1
4901784	121	C	10/27/2018	10:51	-132.839	43.026	0	735.50	0	4.0460	0	34.4730	8	27.368	0	728.370	0	14.9	4	4.7	4	-1E+10	1	-1E+10	1	-1E+10	1	-1E+10	1	-1E+10	1	-1E+10	1
4901784	121	C	10/27/2018	10:51	-132.839	43.026	0	740.10	0	4.0610	0	34.4790	8	27.371	0	732.917	0	14.4	4	4.6	4	-1E+10	1	-1E+10	1	-1E+10	1	-1E+10	1	-1E+10	1	-1E+10	1
4901784	121	C	10/27/2018	10:51	-132.839	43.026	0	744.80	0	4.0480	0	34.4830	8	27.376	0	737.563	0	14.2	4	4.5	4	-1E+10	1	-1E+10	1	-1E+10	1	-1E+10	1	-1E+10	1	-1E+10	1
4901784	121	C	10/27/2018	10:51	-132.839	43.026	0	750.30	0	4.0340	0	34.4860	8	27.380	0	743.000	0	14.1	4	4.5	4	-1E+10	1	-1E+10	1	-1E+10	1	-1E+10	1	-1E+10	1	-1E+10	1
4901784	121	C	10/27/2018	10:51	-132.839	43.026	0	754.90	0	4.0200	0	34.4890	8	27.383	0	747.547	0	14.0	4	4.4	4	-1E+10	1	-1E+10	1	-1E+10	1	-1E+10	1	-1E+10	1	-1E+10	1
4901784	121	C	10/27/2018	10:51	-132.839	43.026	0	759.50	0	4.0010	0	34.4920	8	27.388	0	752.094	0	14.0	4	4.4	4	-1E+10	1	-1E+10	1	-1E+10	1	-1E+10	1	-1E+10	1	-1E+10	1
4901784	121	C	10/27/2018	10:51	-132.839	43.026	0	765.00	0	3.9570	0	34.4890	8	27.390	0	757.530	0	14.0	4	4.4	4	-1E+10	1	-1E+10	1	-1E+10	1	-1E+10	1	-1E+10	1	-1E+10	1
4901784	121	C	10/27/2018	10:51	-132.839	43.026	0	769.70	0	3.9430	0	34.4930	8	27.395	0	762.176	0	13.6	4	4.3	4	-1E+10	1	-1E+10	1	-1E+10	1	-1E+10	1	-1E+10	1	-1E+10	1
4901784	121	C	10/27/2018	10:51	-132.839	43.026	0	775.20	0	3.9630	0	34.5030	8	27.401	0	767.612	0	13.1	4	4.2	4	-1E+10	1	-1E+10	1	-1E+10	1	-1E+10	1	-1E+10	1	-1E+10	1
4901784	121	C	10/27/2018	10:51	-132.839	43.026	0	780.40	0	3.9530	0	34.5060	8	27.404	0	772.752	0	12.9	4	4.1	4	-1E+10	1	-1E+10	1	-1E+10	1	-1E+10	1	-1E+10	1	-1E+10	1
4901784	121	C	10/27/2018	10:51	-132.839	43.026	0	785.30	0	3.9380	0	34.5120	8	27.410	0	777.594	0	12.7	4	4.0	4	-1E+10	1	-1E+10	1	-1E+10	1	-1E+10	1	-1E+10	1	-1E+10	1
4901784	121	C	10/27/2018	10:51	-132.839	43.026	0	790.10	0	3.9230	0	34.5170	8	27.416	0	782.338	0	12.5	4	3.9	4	-1E+10	1	-1E+10	1	-1E+10	1	-1E+10	1	-1E+10	1	-1E+10	1
4901784	121	C	10/27/2018	10:51	-132.839	43.026	0	795.10	0	3.9100	0	34.5200	8	27.420	0	787.280	0	12.3	4	3.9	4	-1E+10	1	-1E+10	1	-1E+10	1	-1E+10	1	-1E+10	1	-1E+10	1
4901784	121	C	10/27/2018	10:51	-132.839	43.026	0	800.00	0	3.8870	0	34.5250	8	27.426	0	792.122	0	12.1	4	3.8	4	-1E+10	1	-1E+10	1	-1E+10	1	-1E+10	1	-1E+10	1	-1E+10	1
4901784	121	C	10/27/2018	10:51	-132.839	43.026	0	805.00	0	3.8710	0	34.5320	8	27.433	0	797.064	0	11.9	4	3.7	4	-1E+10	1	-1E+10	1	-1E+10	1	-1E+10	1	-1E+10	1	-1E+10	1
4901784	121	C	10/27/2018	10:51	-132.839	43.026	0	810.10	0	3.8540	0	34.5360	8	27.438	0	802.104	0	11.7	4	3.7	4	-1E+10	1	-1E+10	1	-1E+10	1	-1E+10	1	-1E+10	1	-1E+10	1
4901784	121	C	10/27/2018	10:51	-132.839	43.026	0	815.20	0	3.8400	0	34.5400	8	27.443	0	807.143	0	11.6	4	3.7	4	-1E+10	1	-1E+10	1	-1E+10	1	-1E+10	1	-1E+10	1	-1E+10	1
4901784	121	C	10/27/2018	10:51	-132.839	43.026	0	820.30	0	3.8320	0	34.5450	8	27.448	0	812.183	0	11.4	4	3.6	4	-1E+10	1	-1E+10	1	-1E+10	1	-1E+10	1	-1E+10	1	-1E+10	1
4901784	121	C	10/27/2018	10:51	-132.839	43.026	0	825.40	0	3.8220	0	34.5490	8	27.452	0	817.223	0	11.3	4	3.6	4	-1E+10	1	-1E+10	1	-1E+10	1	-1E+10	1	-1E+10	1	-1E+10	1
4901784	121	C	10/27/2018	10:51	-132.839	43.026	0	830.50	0	3.8030	0	34.5520	8	27.456	0	822.262	0	11.2	4	3.5	4	-1E+10	1	-1E+10	1	-1E+10	1	-1E+10	1	-1E+10	1	-1E+10	1
4901784	121	C	10/27/2018	10:51	-132.839	43.026	0	835.70	0	3.7750	0	34.5560	8	27.462	0	827.400	0	11.2	4	3.5	4	-1E+10	1	-1E+10	1	-1E+10	1	-1E+10	1	-1E+10	1	-1E+10	1
4901784	121	C	10/27/2018	10:51	-132.839	43.026	0	840.00	0	3.7680	0	34.5580	8	27.465	0	831.649	0	11.2	4	3.5	4	-1E+10	1	-1E+10	1	-1E+10	1	-1E+10	1	-1E+10	1	-1E+10	1
4901784	121	C	10/27/2018	10:51	-132.839	43.026	0	844.30	0	3.7570	0	34.5590	8	27.466	0	835.898	0	11.1	4	3.5	4	-1E+10	1	-1E+10	1	-1E+10	1	-1E+10	1	-1E+10	1	-1E+10	1
4901784	121	C	10/27/2018	10:51	-132.839	43.026	0	849.60	0	3.7470	0	34.5620	8	27.470	0	841.134	0	11.0	4	3.5	4	-1E+10	1	-1E+10	1	-1E+10	1	-1E+10	1	-1E+10	1	-1E+10	1
4901784	121	C	10/27/2018	10:51	-132.839	43.026	0	854.90	0	3.7360	0	34.5680	8	27.476	0	846.371	0	10.8	4	3.4	4	-1E+10	1	-1E+10	1	-1E+10	1	-1E+10	1	-1E+10	1	-1E+10	1
4901784	121	C	10/27/2018	10:51	-132.839	43.026	0	860.10	0	3.7340	0	34.5750	8	27.482	0	851.508	0	10.7	4	3.4	4	-1E+10	1	-1E+10	1	-1E+10	1	-1E+10	1	-1E+10	1	-1E+10	1
4901784	121	C	10/27/2018	10:51	-132.839	43.026	0	865.40	0	3.7230	0	34.5770	8	27.484	0	856.744	0	10.7	4	3.4	4	-1E+10	1	-1E+10	1	-1E+10	1	-1E+10	1	-1E+10	1	-1E+10	1
4901784	121	C	10/27/2018	10:51	-132.839	43.026	0	869.90	0	3.7130	0	34.5800	8	27.488	0	861.190	0	10.6	4	3.3	4	-1E+10	1	-1E+10	1	-1E+10	1	-1E+10	1	-1E+10	1	-1E+10	1
4901784	121	C	10/27/2018	10:51	-132.839	43.026	0	874.30	0	3.6990	0	34.5840	8	27.492	0	865.537	0	10.5	4	3.3	4	-1E+10	1	-1E+10	1	-1E+10	1	-1E+10	1	-1E+10	1	-1E+10	1
4901784	121	C	10/27/2018	10:51	-132.839	43.026	0	879.60	0	3.6890	0	34.5870	8	27.496	0	870.773	0	10.5	4	3.3	4	-1E+10	1	-1E+10	1	-1E+10	1	-1E+10	1	-1E+10	1	-1E+10	1
4901784	121	C	10/27/2018	10:51	-132.839	43.026	0	885.00	0	3.6700	0	34.5920	8	27.502	0	876.107	0	10.5	4	3.3	4	-1E+10	1	-1E+10	1	-1E+10	1	-1E+10	1	-1E+10	1	-1E+10	1
4901784	121	C	10/27/2018	10:51	-132.839	43.026	0	890.60	0	3.6580	0	34.5960	8	27.506	0	881.639	0	10.4	4	3.3	4	-1E+10	1	-1E+10	1	-1E+10	1	-1E+10	1	-1E+10	1	-1E+10	1
4901784	121	C	10/27/2018	10:51	-132.839	43.026	0	895.10	0	3.6560	0	34.5980	8	27.508	0	886.084	0	10.4	4	3.3	4	-1E+10	1	-1E+10	1	-1E+10	1	-1E+10	1	-1E+10	1	-1E+10	1
4901784	121	C	10/27/2018	10:51	-132.839	43.026	0	900.50	0	3.6500	0	34.6020	8	27.512	0	891.419	0	10.4	4	3.3	4	-1E+10	1	-1E+10	1	-1E+10	1	-1E+10	1	-1E+10	1	-1E+10	1
4901784	121	C	10/27/2018	10:51	-132.839	43.026	0	905.60	0	3.6370	0	34.6050	8	27.515	0	896.456	0	10.4	4	3.3	4	-1E+10	1	-1E+10	1	-1E+10	1	-1E+10	1	-1E+10	1	-1E+10	1
4901784	121	C	10/27/2018	10:51	-132.839	43.026	0	910.30	0	3.6300	0	34.6080	8	27.519	0	901.099	0	10.4	4	3.3	4	-1E+10	1	-1E+10	1	-1E+10	1	-1E+10	1	-1E+10	1	-1E+10	1
4901784	121	C	10/27/2018	10:51	-132.839	43.026	0	915.00	0	3.6190	0	34.6100	8	27.521	0	905.741	0	10.4	4	3.3	4	-1E+10	1	-1E+10	1	-1E+10	1	-1E+10	1	-1E+10	1	-1E+10	1
4901784	121	C	10/27/2018	10:51	-132.839	43.026	0	919.90	0	3.6090	0	34.6130	8	27.525	0	910.581	0	10.4	4	3.3	4	-1E+10	1	-1E+10	1	-1E+10	1	-1E+10	1	-1E+10	1	-1E+10	1
4901784	121	C	10/27/2018	10:51	-132.839	43.026	0	924.80	0	3.6030	0	34.6150	8	27.527	0	915.420	0	10.4	4	3.3	4	-1E+10	1	-1E+10	1	-1E+10	1	-1E+10	1	-1E+10	1	-1E+10	1
4901784	121	C	10/27/2018	10:51	-132.839	43.026	0	929.60	0	3.5970	0	34.6170	8	27.529	0	920.161	0	10.4	4	3.3	4	-1E+10	1	-1E+10	1	-1E+10	1	-1E+10	1	-1E+10	1	-1E+10	1
4901784	121	C	10/27/2018	10:51	-132.839	43.026	0	934.60	0	3.5880	0	34.6200	8	27.532	0	925.099	0	10.5	4	3.3	4	-1E+10	1	-1E+10	1	-1E+10	1	-1E+10	1	-1E+10	1	-1E+10	1
4901784	121	C	10/27/2018	10:51	-132.839	43.026	0	939.60	0	3.5790	0	34.6230	8	27.536	0	930.037	0	10.5	4	3.3	4	-1E+10	1	-1E+10	1	-1E+10	1	-1E+10	1	-1E+10	1	-1E+10	1
4901784	121	C	10/27/2018	10:51	-132.839	43.026	0	944.60	0	3.5620	0	34.6260	8	27.540	0	934.975	0	10.6	4	3.3	4	-1E+10	1	-1E+10	1	-1E+10	1	-1E+10	1	-1E+10	1	-1E+10	1
4901784	121	C	10/27/2018	10:51	-132.839	43.026	0	949.70	0	3.5480	0	34.6300	8	27.544	0	940.012	0	10.6	4	3.3	4	-1E+10	1	-1E+10	1	-1E+10	1	-1E+10	1	-1E+10	1	-1E+10	1
4901784	121	C	10/27/2018	10:51	-132.839	43.026	0	954.80	0	3.5410	0	34.6310	8	27.546	0	945.048	0	10.6	4	3.3	4	-1E+10	1	-1E+10	1	-1E+10	1	-1E+10	1	-1E+10	1	-1E+10	1
4901784	121	C	10/27/2018	10:51	-132.839	43.026	0	959.90	0	3.5340	0	34.6320	8	27.547	0	950.085	0	10.7	4	3.3	4	-1E+10	1	-1E+10	1	-1E+10	1	-1E+10	1	-1E+10	1	-1E+10	1
4901784	121	C	10/27/2018	10:51	-132.839	43.026	0	965.10	0	3.5230	0	34.6350	8	27.551	0	955.220	0	10.7	4	3.4	4	-1E+10	1	-1E+10	1	-1E+10	1	-1E+10	1	-1E+10	1	-1E+10	1
4901784	121	C	10/27/2018	10:51	-132.839	43.026	0	970.40	0	3.5180	0	34.6360	8	27.552	0	960.453	0	10.8	4	3.4	4	-1E+10	1	-1E+10	1	-1E+10	1	-1E+10	1	-1E+10	1	-1E+10	1
4901784	121	C	10/27/2018	10:51	-132.839	43.026	0	975.70	0	3.5050	0	34.6380	8	27.555	0	965.687	0	10.8	4	3.4	4	-1E+10	1	-1E+10	1	-1E+10	1	-1E+10	1	-1E+10	1	-1E+10	1
4901784	121	C	10/27/2018	10:51	-132.839	43.026	0	980.10	0	3.5000	0	34.6390	8	27.556	0	970.031	0	10.9	4	3.4	4	-1E+10	1	-1E+10	1	-1E+10	1	-1E+10	1	-1E+10	1	-1E+10	1
4901784	121	C	10/27/2018	10:51	-132.839	43.026	0	984.50	0	3.4890	0	34.6410	8	27.559	0	974.376	0	10.9	4	3.4	4	-1E+10	1	-1E+10	1	-1E+10	1	-1E+10	1	-1E+10	1	-1E+10	1
4901784	121	C	10/27/2018	10:51	-132.839	43.026	0	989.70	0	3.4770	0	34.6440	8	27.563	0	979.510	0	11.0	4	3.4	4	-1E+10	1	-1E+10	1	-1E+10	1	-1E+10	1	-1E+10	1	-1E+10	1
4901784	121	C	10/27/2018	10:51	-132.839	43.026	0	995.10	0	3.4660	0	34.6460	8	27.565	0	984.842	0	11.0	4	3.5	4	-1E+10	1	-1E+10	1	-1E+10	1	-1E+10	1	-1E+10	1	-1E+10	1
4901784	121	C	10/27/2018	10:51	-132.839	43.026	0	1000.50	0	3.4580	0	34.6470	8	27.567	0	990.174	0	11.1	4	3.5	4	-1E+10	1	-1E+10	1	-1E+10	1	-1E+10	1	-1E+10	1	-1E+10	1
4901784	121	C	10/27/2018	10:51	-132.839	43.026	0	1005.00	0	3.4530	0	34.6490	8	27.569	0	994.617	0	11.1	4	3.5	4	-1E+10	1	-1E+10	1	-1E+10	1	-1E+10	1	-1E+10	1	-1E+10	1
4901784	121	C	10/27/2018	10:51	-132.839	43.026	0	1009.50	0	3.4440	0	34.6500	8	27.571	0	999.059	0	11.2	4	3.5	4	-1E+10	1	-1E+10	1	-1E+10	1	-1E+10	1	-1E+10	1	-1E+10	1
4901784	121	C	10/27/2018	10:51	-132.839	43.026	0	1014.80	0	3.4330	0	34.6530	8	27.574	0	1004.292	0	11.3	4	3.5	4	-1E+10	1	-1E+10	1	-1E+10	1	-1E+10	1	-1E+10	1	-1E+10	1
4901784	121	C	10/27/2018	10:51	-132.839	43.026	0	1020.20	0	3.4180	0	34.6560	8	27.578	0	1009.623	0	11.4	4	3.6	4	-1E+10	1	-1E+10	1	-1E+10	1	-1E+10	1	-1E+10	1	-1E+10	1
4901784	121	C	10/27/2018	10:51	-132.839	43.026	0	1025.70	0	3.4090	0	34.6580	8	27.581	0	1015.053	0	11.6	4	3.6	4	-1E+10	1	-1E+10	1	-1E+10	1	-1E+10	1	-1E+10	1	-1E+10	1
4901784	121	C	10/27/2018	10:51	-132.839	43.026	0	1030.10	0	3.3970	0	34.6620	8	27.585	0	1019.396	0	11.7	4	3.6	4	-1E+10	1	-1E+10	1	-1E+10	1	-1E+10	1	-1E+10	1	-1E+10	1
4901784	121	C	10/27/2018	10:51	-132.839	43.026	0	1034.70	0	3.3890	0	34.6630	8	27.587	0	1023.937	0	11.8	4	3.7	4	-1E+10	1	-1E+10	1	-1E+10	1	-1E+10	1	-1E+10	1	-1E+10	1
4901784	121	C	10/27/2018	10:51	-132.839	43.026	0	1040.30	0	3.3770	0	34.6660	8	27.590	0	1029.465	0	11.9	4	3.7	4	-1E+10	1	-1E+10	1	-1E+10	1	-1E+10	1	-1E+10	1	-1E+10	1
4901784	121	C	10/27/2018	10:51	-132.839	43.026	0	1045.00	0	3.3670	0	34.6680	8	27.593	0	1034.105	0	12.0	4	3.7	4	-1E+10	1	-1E+10	1	-1E+10	1	-1E+10	1	-1E+10	1	-1E+10	1
4901784	121	C	10/27/2018	10:51	-132.839	43.026	0	1049.70	0	3.3560	0	34.6700	8	27.595	0	1038.744	0	12.0	4	3.8	4	-1E+10	1	-1E+10	1	-1E+10	1	-1E+10	1	-1E+10	1	-1E+10	1
4901784	121	C	10/27/2018	10:51	-132.839	43.026	0	1055.30	0	3.3460	0	34.6710	8	27.597	0	1044.272	0	12.1	4	3.8	4	-1E+10	1	-1E+10	1	-1E+10	1	-1E+10	1	-1E+10	1	-1E+10	1
4901784	121	C	10/27/2018	10:51	-132.839	43.026	0	1060.20	0	3.3330	0	34.6730	8	27.600	0	1049.108	0	12.2	4	3.8	4	-1E+10	1	-1E+10	1	-1E+10	1	-1E+10	1	-1E+10	1	-1E+10	1
4901784	121	C	10/27/2018	10:51	-132.839	43.026	0	1064.80	0	3.3280	0	34.6740	8	27.601	0	1053.649	0	12.2	4	3.8	4	-1E+10	1	-1E+10	1	-1E+10	1	-1E+10	1	-1E+10	1	-1E+10	1
4901784	121	C	10/27/2018	10:51	-132.839	43.026	0	1069.70	0	3.3190	0	34.6750	8	27.603	0	1058.485	0	12.3	4	3.8	4	-1E+10	1	-1E+10	1	-1E+10	1	-1E+10	1	-1E+10	1	-1E+10	1
4901784	121	C	10/27/2018	10:51	-132.839	43.026	0	1074.60	0	3.3080	0	34.6760	8	27.605	0	1063.321	0	12.4	4	3.9	4	-1E+10	1	-1E+10	1	-1E+10	1	-1E+10	1	-1E+10	1	-1E+10	1
4901784	121	C	10/27/2018	10:51	-132.839	43.026	0	1079.60	0	3.2890	0	34.6770	8	27.608	0	1068.256	0	12.5	4	3.9	4	-1E+10	1	-1E+10	1	-1E+10	1	-1E+10	1	-1E+10	1	-1E+10	1
4901784	121	C	10/27/2018	10:51	-132.839	43.026	0	1084.60	0	3.2770	0	34.6790	8	27.610	0	1073.191	0	12.6	4	3.9	4	-1E+10	1	-1E+10	1	-1E+10	1	-1E+10	1	-1E+10	1	-1E+10	1
4901784	121	C	10/27/2018	10:51	-132.839	43.026	0	1089.70	0	3.2700	0	34.6810	8	27.613	0	1078.224	0	12.8	4	4.0	4	-1E+10	1	-1E+10	1	-1E+10	1	-1E+10	1	-1E+10	1	-1E+10	1
4901784	121	C	10/27/2018	10:51	-132.839	43.026	0	1094.60	0	3.2450	0	34.6840	8	27.617	0	1083.060	0	12.9	4	4.0	4	-1E+10	1	-1E+10	1	-1E+10	1	-1E+10	1	-1E+10	1	-1E+10	1
4901784	121	C	10/27/2018	10:51	-132.839	43.026	0	1099.70	0	3.2310	0	34.6870	8	27.621	0	1088.093	0	13.1	4	4.1	4	-1E+10	1	-1E+10	1	-1E+10	1	-1E+10	1	-1E+10	1	-1E+10	1
4901784	121	C	10/27/2018	10:51	-132.839	43.026	0	1104.70	0	3.2190	0	34.6870	8	27.622	0	1093.027	0	13.1	4	4.1	4	-1E+10	1	-1E+10	1	-1E+10	1	-1E+10	1	-1E+10	1	-1E+10	1
4901784	121	C	10/27/2018	10:51	-132.839	43.026	0	1109.80	0	3.2080	0	34.6880	8	27.624	0	1098.060	0	13.3	4	4.1	4	-1E+10	1	-1E+10	1	-1E+10	1	-1E+10	1	-1E+10	1	-1E+10	1
4901784	121	C	10/27/2018	10:51	-132.839	43.026	0	1115.10	0	3.1880	0	34.6910	8	27.628	0	1103.290	0	13.4	4	4.2	4	-1E+10	1	-1E+10	1	-1E+10	1	-1E+10	1	-1E+10	1	-1E+10	1
4901784	121	C	10/27/2018	10:51	-132.839	43.026	0	1120.50	0	3.1850	0	34.6930	8	27.630	0	1108.618	0	13.6	4	4.2	4	-1E+10	1	-1E+10	1	-1E+10	1	-1E+10	1	-1E+10	1	-1E+10	1
4901784	121	C	10/27/2018	10:51	-132.839	43.026	0	1124.90	0	3.1840	0	34.6950	8	27.632	0	1112.960	0	13.7	4	4.3	4	-1E+10	1	-1E+10	1	-1E+10	1	-1E+10	1	-1E+10	1	-1E+10	1
4901784	121	C	10/27/2018	10:51	-132.839	43.026	0	1129.40	0	3.1730	0	34.6970	8	27.635	0	1117.400	0	13.8	4	4.3	4	-1E+10	1	-1E+10	1	-1E+10	1	-1E+10	1	-1E+10	1	-1E+10	1
4901784	121	C	10/27/2018	10:51	-132.839	43.026	0	1134.80	0	3.1600	0	34.6980	8	27.637	0	1122.728	0	13.9	4	4.3	4	-1E+10	1	-1E+10	1	-1E+10	1	-1E+10	1	-1E+10	1	-1E+10	1
4901784	121	C	10/27/2018	10:51	-132.839	43.026	0	1140.20	0	3.1500	0	34.6990	8	27.638	0	1128.056	0	14.0	4	4.3	4	-1E+10	1	-1E+10	1	-1E+10	1	-1E+10	1	-1E+10	1	-1E+10	1
4901784	121	C	10/27/2018	10:51	-132.839	43.026	0	1145.50	0	3.1390	0	34.7000	8	27.640	0	1133.286	0	14.0	4	4.4	4	-1E+10	1	-1E+10	1	-1E+10	1	-1E+10	1	-1E+10	1	-1E+10	1
4901784	121	C	10/27/2018	10:51	-132.839	43.026	0	1150.00	0	3.1380	0	34.7000	8	27.640	0	1137.726	0	14.1	4	4.4	4	-1E+10	1	-1E+10	1	-1E+10	1	-1E+10	1	-1E+10	1	-1E+10	1
4901784	121	C	10/27/2018	10:51	-132.839	43.026	0	1154.40	0	3.1300	0	34.7010	8	27.642	0	1142.067	0	14.2	4	4.4	4	-1E+10	1	-1E+10	1	-1E+10	1	-1E+10	1	-1E+10	1	-1E+10	1
4901784	121	C	10/27/2018	10:51	-132.839	43.026	0	1159.70	0	3.1210	0	34.7020	8	27.644	0	1147.295	0	14.3	4	4.4	4	-1E+10	1	-1E+10	1	-1E+10	1	-1E+10	1	-1E+10	1	-1E+10	1
4901784	121	C	10/27/2018	10:51	-132.839	43.026	0	1165.00	0	3.1120	0	34.7030	8	27.645	0	1152.524	0	14.4	4	4.5	4	-1E+10	1	-1E+10	1	-1E+10	1	-1E+10	1	-1E+10	1	-1E+10	1
4901784	121	C	10/27/2018	10:51	-132.839	43.026	0	1170.40	0	3.1010	0	34.7050	8	27.648	0	1157.852	0	14.5	4	4.5	4	-1E+10	1	-1E+10	1	-1E+10	1	-1E+10	1	-1E+10	1	-1E+10	1
4901784	121	C	10/27/2018	10:51	-132.839	43.026	0	1174.90	0	3.0930	0	34.7070	8	27.650	0	1162.291	0	14.6	4	4.5	4	-1E+10	1	-1E+10	1	-1E+10	1	-1E+10	1	-1E+10	1	-1E+10	1
4901784	121	C	10/27/2018	10:51	-132.839	43.026	0	1179.50	0	3.0870	0	34.7070	8	27.651	0	1166.829	0	14.7	4	4.6	4	-1E+10	1	-1E+10	1	-1E+10	1	-1E+10	1	-1E+10	1	-1E+10	1
4901784	121	C	10/27/2018	10:51	-132.839	43.026	0	1185.10	0	3.0830	0	34.7080	8	27.652	0	1172.353	0	14.8	4	4.6	4	-1E+10	1	-1E+10	1	-1E+10	1	-1E+10	1	-1E+10	1	-1E+10	1
4901784	121	C	10/27/2018	10:51	-132.839	43.026	0	1190.60	0	3.0770	0	34.7090	8	27.653	0	1177.778	0	14.9	4	4.6	4	-1E+10	1	-1E+10	1	-1E+10	1	-1E+10	1	-1E+10	1	-1E+10	1
4901784	121	C	10/27/2018	10:51	-132.839	43.026	0	1195.30	0	3.0690	0	34.7090	8	27.654	0	1182.415	0	15.1	4	4.7	4	-1E+10	1	-1E+10	1	-1E+10	1	-1E+10	1	-1E+10	1	-1E+10	1
4901784	121	C	10/27/2018	10:51	-132.839	43.026	0	1200.00	0	3.0570	0	34.7120	8	27.658	0	1187.051	0	15.2	4	4.7	4	-1E+10	1	-1E+10	1	-1E+10	1	-1E+10	1	-1E+10	1	-1E+10	1
4901784	121	C	10/27/2018	10:51	-132.839	43.026	0	1204.60	0	3.0430	0	34.7130	8	27.660	0	1191.588	0	15.4	4	4.8	4	-1E+10	1	-1E+10	1	-1E+10	1	-1E+10	1	-1E+10	1	-1E+10	1
4901784	121	C	10/27/2018	10:51	-132.839	43.026	0	1209.20	0	3.0350	0	34.7150	8	27.662	0	1196.125	0	15.5	4	4.8	4	-1E+10	1	-1E+10	1	-1E+10	1	-1E+10	1	-1E+10	1	-1E+10	1
4901784	121	C	10/27/2018	10:51	-132.839	43.026	0	1214.60	0	3.0310	0	34.7150	8	27.663	0	1201.451	0	15.6	4	4.8	4	-1E+10	1	-1E+10	1	-1E+10	1	-1E+10	1	-1E+10	1	-1E+10	1
4901784	121	C	10/27/2018	10:51	-132.839	43.026	0	1219.50	0	3.0260	0	34.7160	8	27.664	0	1206.284	0	15.7	4	4.9	4	-1E+10	1	-1E+10	1	-1E+10	1	-1E+10	1	-1E+10	1	-1E+10	1
4901784	121	C	10/27/2018	10:51	-132.839	43.026	0	1224.40	0	3.0130	0	34.7180	8	27.667	0	1211.117	0	15.9	4	4.9	4	-1E+10	1	-1E+10	1	-1E+10	1	-1E+10	1	-1E+10	1	-1E+10	1
4901784	121	C	10/27/2018	10:51	-132.839	43.026	0	1229.30	0	3.0030	0	34.7190	8	27.668	0	1215.950	0	16.0	4	4.9	4	-1E+10	1	-1E+10	1	-1E+10	1	-1E+10	1	-1E+10	1	-1E+10	1
4901784	121	C	10/27/2018	10:51	-132.839	43.026	0	1234.20	0	2.9970	0	34.7200	8	27.670	0	1220.782	0	16.1	4	5.0	4	-1E+10	1	-1E+10	1	-1E+10	1	-1E+10	1	-1E+10	1	-1E+10	1
4901784	121	C	10/27/2018	10:51	-132.839	43.026	0	1240.00	0	2.9860	0	34.7210	8	27.672	0	1226.502	0	16.3	4	5.0	4	-1E+10	1	-1E+10	1	-1E+10	1	-1E+10	1	-1E+10	1	-1E+10	1
4901784	121	C	10/27/2018	10:51	-132.839	43.026	0	1245.70	0	2.9740	0	34.7230	8	27.674	0	1232.124	0	16.5	4	5.1	4	-1E+10	1	-1E+10	1	-1E+10	1	-1E+10	1	-1E+10	1	-1E+10	1
4901784	121	C	10/27/2018	10:51	-132.839	43.026	0	1250.70	0	2.9670	0	34.7240	8	27.676	0	1237.055	0	16.7	4	5.2	4	-1E+10	1	-1E+10	1	-1E+10	1	-1E+10	1	-1E+10	1	-1E+10	1
4901784	121	C	10/27/2018	10:51	-132.839	43.026	0	1255.70	0	2.9600	0	34.7250	8	27.677	0	1241.985	0	16.8	4	5.2	4	-1E+10	1	-1E+10	1	-1E+10	1	-1E+10	1	-1E+10	1	-1E+10	1
4901784	121	C	10/27/2018	10:51	-132.839	43.026	0	1260.70	0	2.9470	0	34.7270	8	27.680	0	1246.916	0	17.1	4	5.3	4	-1E+10	1	-1E+10	1	-1E+10	1	-1E+10	1	-1E+10	1	-1E+10	1
4901784	121	C	10/27/2018	10:51	-132.839	43.026	0	1265.60	0	2.9290	0	34.7290	8	27.683	0	1251.748	0	17.4	4	5.4	4	-1E+10	1	-1E+10	1	-1E+10	1	-1E+10	1	-1E+10	1	-1E+10	1
4901784	121	C	10/27/2018	10:51	-132.839	43.026	0	1270.70	0	2.9180	0	34.7310	8	27.686	0	1256.777	0	17.5	4	5.4	4	-1E+10	1	-1E+10	1	-1E+10	1	-1E+10	1	-1E+10	1	-1E+10	1
4901784	121	C	10/27/2018	10:51	-132.839	43.026	0	1275.70	0	2.9130	0	34.7320	8	27.687	0	1261.707	0	17.7	4	5.5	4	-1E+10	1	-1E+10	1	-1E+10	1	-1E+10	1	-1E+10	1	-1E+10	1
4901784	121	C	10/27/2018	10:51	-132.839	43.026	0	1280.60	0	2.9090	0	34.7320	8	27.688	0	1266.538	0	17.8	4	5.5	4	-1E+10	1	-1E+10	1	-1E+10	1	-1E+10	1	-1E+10	1	-1E+10	1
4901784	121	C	10/27/2018	10:51	-132.839	43.026	0	1285.60	0	2.9020	0	34.7330	8	27.689	0	1271.468	0	18.0	4	5.5	4	-1E+10	1	-1E+10	1	-1E+10	1	-1E+10	1	-1E+10	1	-1E+10	1
4901784	121	C	10/27/2018	10:51	-132.839	43.026	0	1290.60	0	2.8950	0	34.7340	8	27.691	0	1276.398	0	18.2	4	5.6	4	-1E+10	1	-1E+10	1	-1E+10	1	-1E+10	1	-1E+10	1	-1E+10	1
4901784	121	C	10/27/2018	10:51	-132.839	43.026	0	1295.70	0	2.8870	0	34.7350	8	27.692	0	1281.427	0	18.4	4	5.7	4	-1E+10	1	-1E+10	1	-1E+10	1	-1E+10	1	-1E+10	1	-1E+10	1
4901784	121	C	10/27/2018	10:51	-132.839	43.026	0	1300.70	0	2.8780	0	34.7370	8	27.695	0	1286.356	0	18.7	4	5.8	4	-1E+10	1	-1E+10	1	-1E+10	1	-1E+10	1	-1E+10	1	-1E+10	1
4901784	121	C	10/27/2018	10:51	-132.839	43.026	0	1305.80	0	2.8640	0	34.7390	8	27.697	0	1291.385	0	18.9	4	5.8	4	-1E+10	1	-1E+10	1	-1E+10	1	-1E+10	1	-1E+10	1	-1E+10	1
4901784	121	C	10/27/2018	10:51	-132.839	43.026	0	1310.00	0	2.8540	0	34.7400	8	27.699	0	1295.525	0	19.0	4	5.9	4	-1E+10	1	-1E+10	1	-1E+10	1	-1E+10	1	-1E+10	1	-1E+10	1
4901784	121	C	10/27/2018	10:51	-132.839	43.026	0	1314.20	0	2.8450	0	34.7410	8	27.701	0	1299.666	0	19.3	4	5.9	4	-1E+10	1	-1E+10	1	-1E+10	1	-1E+10	1	-1E+10	1	-1E+10	1
4901784	121	C	10/27/2018	10:51	-132.839	43.026	0	1319.30	0	2.8390	0	34.7430	8	27.703	0	1304.694	0	19.5	4	6.0	4	-1E+10	1	-1E+10	1	-1E+10	1	-1E+10	1	-1E+10	1	-1E+10	1
4901784	121	C	10/27/2018	10:51	-132.839	43.026	0	1324.40	0	2.8330	0	34.7440	8	27.704	0	1309.721	0	19.6	4	6.0	4	-1E+10	1	-1E+10	1	-1E+10	1	-1E+10	1	-1E+10	1	-1E+10	1
4901784	121	C	10/27/2018	10:51	-132.839	43.026	0	1329.50	0	2.8220	0	34.7450	8	27.706	0	1314.749	0	19.7	4	6.1	4	-1E+10	1	-1E+10	1	-1E+10	1	-1E+10	1	-1E+10	1	-1E+10	1
4901784	121	C	10/27/2018	10:51	-132.839	43.026	0	1334.50	0	2.8170	0	34.7440	8	27.706	0	1319.678	0	19.8	4	6.1	4	-1E+10	1	-1E+10	1	-1E+10	1	-1E+10	1	-1E+10	1	-1E+10	1
4901784	121	C	10/27/2018	10:51	-132.839	43.026	0	1339.70	0	2.8070	0	34.7460	8	27.708	0	1324.804	0	20.2	4	6.2	4	-1E+10	1	-1E+10	1	-1E+10	1	-1E+10	1	-1E+10	1	-1E+10	1
4901784	121	C	10/27/2018	10:51	-132.839	43.026	0	1344.80	0	2.7930	0	34.7480	8	27.711	0	1329.831	0	20.5	4	6.3	4	-1E+10	1	-1E+10	1	-1E+10	1	-1E+10	1	-1E+10	1	-1E+10	1
4901784	121	C	10/27/2018	10:51	-132.839	43.026	0	1350.00	0	2.7790	0	34.7500	8	27.714	0	1334.957	0	20.6	4	6.3	4	-1E+10	1	-1E+10	1	-1E+10	1	-1E+10	1	-1E+10	1	-1E+10	1
4901784	121	C	10/27/2018	10:51	-132.839	43.026	0	1355.20	0	2.7660	0	34.7510	8	27.716	0	1340.082	0	20.8	4	6.4	4	-1E+10	1	-1E+10	1	-1E+10	1	-1E+10	1	-1E+10	1	-1E+10	1
4901784	121	C	10/27/2018	10:51	-132.839	43.026	0	1360.30	0	2.7570	0	34.7520	8	27.718	0	1345.109	0	21.0	4	6.5	4	-1E+10	1	-1E+10	1	-1E+10	1	-1E+10	1	-1E+10	1	-1E+10	1
4901784	121	C	10/27/2018	10:51	-132.839	43.026	0	1365.50	0	2.7490	0	34.7530	8	27.719	0	1350.234	0	21.2	4	6.5	4	-1E+10	1	-1E+10	1	-1E+10	1	-1E+10	1	-1E+10	1	-1E+10	1
4901784	121	C	10/27/2018	10:51	-132.839	43.026	0	1370.50	0	2.7380	0	34.7550	8	27.722	0	1355.162	0	21.3	4	6.6	4	-1E+10	1	-1E+10	1	-1E+10	1	-1E+10	1	-1E+10	1	-1E+10	1
4901784	121	C	10/27/2018	10:51	-132.839	43.026	0	1375.40	0	2.7280	0	34.7560	8	27.723	0	1359.992	0	21.5	4	6.6	4	-1E+10	1	-1E+10	1	-1E+10	1	-1E+10	1	-1E+10	1	-1E+10	1
4901784	121	C	10/27/2018	10:51	-132.839	43.026	0	1380.20	0	2.7210	0	34.7570	8	27.725	0	1364.722	0	21.6	4	6.6	4	-1E+10	1	-1E+10	1	-1E+10	1	-1E+10	1	-1E+10	1	-1E+10	1
4901784	121	C	10/27/2018	10:51	-132.839	43.026	0	1385.10	0	2.7140	0	34.7580	8	27.726	0	1369.552	0	21.8	4	6.7	4	-1E+10	1	-1E+10	1	-1E+10	1	-1E+10	1	-1E+10	1	-1E+10	1
4901784	121	C	10/27/2018	10:51	-132.839	43.026	0	1390.00	0	2.7080	0	34.7580	8	27.727	0	1374.381	0	22.0	4	6.8	4	-1E+10	1	-1E+10	1	-1E+10	1	-1E+10	1	-1E+10	1	-1E+10	1
4901784	121	C	10/27/2018	10:51	-132.839	43.026	0	1395.00	0	2.6970	0	34.7600	8	27.729	0	1379.308	0	22.3	4	6.9	4	-1E+10	1	-1E+10	1	-1E+10	1	-1E+10	1	-1E+10	1	-1E+10	1
4901784	121	C	10/27/2018	10:51	-132.839	43.026	0	1400.00	0	2.6870	0	34.7610	8	27.731	0	1384.235	0	22.5	4	6.9	4	-1E+10	1	-1E+10	1	-1E+10	1	-1E+10	1	-1E+10	1	-1E+10	1
4901784	121	C	10/27/2018	10:51	-132.839	43.026	0	1405.00	0	2.6790	0	34.7620	8	27.733	0	1389.163	0	22.9	4	7.0	4	-1E+10	1	-1E+10	1	-1E+10	1	-1E+10	1	-1E+10	1	-1E+10	1
4901784	121	C	10/27/2018	10:51	-132.839	43.026	0	1410.00	0	2.6670	0	34.7640	8	27.735	0	1394.090	0	23.2	4	7.1	4	-1E+10	1	-1E+10	1	-1E+10	1	-1E+10	1	-1E+10	1	-1E+10	1
4901784	121	C	10/27/2018	10:51	-132.839	43.026	0	1415.00	0	2.6580	0	34.7650	8	27.737	0	1399.017	0	23.5	4	7.2	4	-1E+10	1	-1E+10	1	-1E+10	1	-1E+10	1	-1E+10	1	-1E+10	1
4901784	121	C	10/27/2018	10:51	-132.839	43.026	0	1420.10	0	2.6510	0	34.7660	8	27.738	0	1404.042	0	23.6	4	7.3	4	-1E+10	1	-1E+10	1	-1E+10	1	-1E+10	1	-1E+10	1	-1E+10	1
4901784	121	C	10/27/2018	10:51	-132.839	43.026	0	1425.20	0	2.6480	0	34.7670	8	27.739	0	1409.068	0	23.8	4	7.3	4	-1E+10	1	-1E+10	1	-1E+10	1	-1E+10	1	-1E+10	1	-1E+10	1
4901784	121	C	10/27/2018	10:51	-132.839	43.026	0	1430.30	0	2.6420	0	34.7670	8	27.740	0	1414.093	0	24.1	4	7.4	4	-1E+10	1	-1E+10	1	-1E+10	1	-1E+10	1	-1E+10	1	-1E+10	1
4901784	121	C	10/27/2018	10:51	-132.839	43.026	0	1435.40	0	2.6260	0	34.7690	8	27.743	0	1419.118	0	24.5	4	7.5	4	-1E+10	1	-1E+10	1	-1E+10	1	-1E+10	1	-1E+10	1	-1E+10	1
4901784	121	C	10/27/2018	10:51	-132.839	43.026	0	1440.50	0	2.6180	0	34.7700	8	27.744	0	1424.143	0	24.9	4	7.6	4	-1E+10	1	-1E+10	1	-1E+10	1	-1E+10	1	-1E+10	1	-1E+10	1
4901784	121	C	10/27/2018	10:51	-132.839	43.026	0	1445.70	0	2.6110	0	34.7710	8	27.746	0	1429.266	0	25.5	4	7.8	4	-1E+10	1	-1E+10	1	-1E+10	1	-1E+10	1	-1E+10	1	-1E+10	1
4901784	121	C	10/27/2018	10:51	-132.839	43.026	0	1450.00	0	2.5960	0	34.7740	8	27.750	0	1433.503	0	26.0	4	8.0	4	-1E+10	1	-1E+10	1	-1E+10	1	-1E+10	1	-1E+10	1	-1E+10	1
4901784	121	C	10/27/2018	10:51	-132.839	43.026	0	1454.40	0	2.5870	0	34.7750	8	27.751	0	1437.838	0	26.2	4	8.0	4	-1E+10	1	-1E+10	1	-1E+10	1	-1E+10	1	-1E+10	1	-1E+10	1
4901784	121	C	10/27/2018	10:51	-132.839	43.026	0	1459.70	0	2.5840	0	34.7750	8	27.751	0	1443.059	0	26.3	4	8.1	4	-1E+10	1	-1E+10	1	-1E+10	1	-1E+10	1	-1E+10	1	-1E+10	1
4901784	121	C	10/27/2018	10:51	-132.839	43.026	0	1464.90	0	2.5810	0	34.7760	8	27.753	0	1448.182	0	26.6	4	8.2	4	-1E+10	1	-1E+10	1	-1E+10	1	-1E+10	1	-1E+10	1	-1E+10	1
4901784	121	C	10/27/2018	10:51	-132.839	43.026	0	1470.20	0	2.5770	0	34.7770	8	27.754	0	1453.403	0	27.0	4	8.3	4	-1E+10	1	-1E+10	1	-1E+10	1	-1E+10	1	-1E+10	1	-1E+10	1
4901784	121	C	10/27/2018	10:51	-132.839	43.026	0	1475.50	0	2.5650	0	34.7780	8	27.756	0	1458.625	0	27.2	4	8.3	4	-1E+10	1	-1E+10	1	-1E+10	1	-1E+10	1	-1E+10	1	-1E+10	1
4901784	121	C	10/27/2018	10:51	-132.839	43.026	0	1479.90	0	2.5580	0	34.7790	8	27.757	0	1462.959	0	27.4	4	8.4	4	-1E+10	1	-1E+10	1	-1E+10	1	-1E+10	1	-1E+10	1	-1E+10	1
4901784	121	C	10/27/2018	10:51	-132.839	43.026	0	1484.30	0	2.5570	0	34.7790	8	27.757	0	1467.293	0	27.9	4	8.5	4	-1E+10	1	-1E+10	1	-1E+10	1	-1E+10	1	-1E+10	1	-1E+10	1
4901784	121	C	10/27/2018	10:51	-132.839	43.026	0	1489.60	0	2.5510	0	34.7810	8	27.759	0	1472.514	0	28.2	4	8.6	4	-1E+10	1	-1E+10	1	-1E+10	1	-1E+10	1	-1E+10	1	-1E+10	1
4901784	121	C	10/27/2018	10:51	-132.839	43.026	0	1495.00	0	2.5440	0	34.7810	8	27.760	0	1477.833	0	28.5	4	8.7	4	-1E+10	1	-1E+10	1	-1E+10	1	-1E+10	1	-1E+10	1	-1E+10	1
4901784	121	C	10/27/2018	10:51	-132.839	43.026	0	1500.30	0	2.5280	0	34.7820	8	27.762	0	1483.054	0	28.9	4	8.8	4	-1E+10	1	-1E+10	1	-1E+10	1	-1E+10	1	-1E+10	1	-1E+10	1
4901784	121	C	10/27/2018	10:51	-132.839	43.026	0	1505.30	0	2.5110	0	34.7840	8	27.765	0	1487.979	0	29.2	4	8.9	4	-1E+10	1	-1E+10	1	-1E+10	1	-1E+10	1	-1E+10	1	-1E+10	1
4901784	121	C	10/27/2018	10:51	-132.839	43.026	0	1510.40	0	2.5030	0	34.7850	8	27.767	0	1493.002	0	29.4	4	9.0	4	-1E+10	1	-1E+10	1	-1E+10	1	-1E+10	1	-1E+10	1	-1E+10	1
4901784	121	C	10/27/2018	10:51	-132.839	43.026	0	1515.30	0	2.4960	0	34.7850	8	27.767	0	1497.829	0	29.5	4	9.0	4	-1E+10	1	-1E+10	1	-1E+10	1	-1E+10	1	-1E+10	1	-1E+10	1
4901784	121	C	10/27/2018	10:51	-132.839	43.026	0	1520.30	0	2.4910	0	34.7860	8	27.769	0	1502.753	0	29.7	4	9.1	4	-1E+10	1	-1E+10	1	-1E+10	1	-1E+10	1	-1E+10	1	-1E+10	1
4901784	121	C	10/27/2018	10:51	-132.839	43.026	0	1525.30	0	2.4850	0	34.7870	8	27.770	0	1507.678	0	29.9	4	9.2	4	-1E+10	1	-1E+10	1	-1E+10	1	-1E+10	1	-1E+10	1	-1E+10	1
4901784	121	C	10/27/2018	10:51	-132.839	43.026	0	1530.50	0	2.4750	0	34.7870	8	27.771	0	1512.799	0	30.1	4	9.2	4	-1E+10	1	-1E+10	1	-1E+10	1	-1E+10	1	-1E+10	1	-1E+10	1
4901784	121	C	10/27/2018	10:51	-132.839	43.026	0	1535.70	0	2.4690	0	34.7880	8	27.772	0	1517.920	0	30.3	4	9.3	4	-1E+10	1	-1E+10	1	-1E+10	1	-1E+10	1	-1E+10	1	-1E+10	1
4901784	121	C	10/27/2018	10:51	-132.839	43.026	0	1540.00	0	2.4580	0	34.7890	8	27.774	0	1522.155	0	30.4	4	9.3	4	-1E+10	1	-1E+10	1	-1E+10	1	-1E+10	1	-1E+10	1	-1E+10	1
4901784	121	C	10/27/2018	10:51	-132.839	43.026	0	1544.40	0	2.4520	0	34.7900	8	27.775	0	1526.488	0	30.5	4	9.3	4	-1E+10	1	-1E+10	1	-1E+10	1	-1E+10	1	-1E+10	1	-1E+10	1
4901784	121	C	10/27/2018	10:51	-132.839	43.026	0	1549.60	0	2.4460	0	34.7910	8	27.776	0	1531.609	0	30.7	4	9.4	4	-1E+10	1	-1E+10	1	-1E+10	1	-1E+10	1	-1E+10	1	-1E+10	1
4901784	121	C	10/27/2018	10:51	-132.839	43.026	0	1554.90	0	2.4420	0	34.7910	8	27.777	0	1536.828	0	30.9	4	9.4	4	-1E+10	1	-1E+10	1	-1E+10	1	-1E+10	1	-1E+10	1	-1E+10	1
4901784	121	C	10/27/2018	10:51	-132.839	43.026	0	1560.20	0	2.4350	0	34.7910	8	27.777	0	1542.047	0	31.2	4	9.5	4	-1E+10	1	-1E+10	1	-1E+10	1	-1E+10	1	-1E+10	1	-1E+10	1
4901784	121	C	10/27/2018	10:51	-132.839	43.026	0	1565.70	0	2.4240	0	34.7930	8	27.780	0	1547.463	0	31.6	4	9.6	4	-1E+10	1	-1E+10	1	-1E+10	1	-1E+10	1	-1E+10	1	-1E+10	1
4901784	121	C	10/27/2018	10:51	-132.839	43.026	0	1570.20	0	2.4170	0	34.7940	8	27.781	0	1551.894	0	31.8	4	9.7	4	-1E+10	1	-1E+10	1	-1E+10	1	-1E+10	1	-1E+10	1	-1E+10	1
4901784	121	C	10/27/2018	10:51	-132.839	43.026	0	1575.00	0	2.4110	0	34.7950	8	27.783	0	1556.621	0	32.0	4	9.8	4	-1E+10	1	-1E+10	1	-1E+10	1	-1E+10	1	-1E+10	1	-1E+10	1
4901784	121	C	10/27/2018	10:51	-132.839	43.026	0	1580.10	0	2.4060	0	34.7950	8	27.783	0	1561.642	0	32.2	4	9.8	4	-1E+10	1	-1E+10	1	-1E+10	1	-1E+10	1	-1E+10	1	-1E+10	1
4901784	121	C	10/27/2018	10:51	-132.839	43.026	0	1584.90	0	2.4010	0	34.7960	8	27.784	0	1566.368	0	32.3	4	9.9	4	-1E+10	1	-1E+10	1	-1E+10	1	-1E+10	1	-1E+10	1	-1E+10	1
4901784	121	C	10/27/2018	10:51	-132.839	43.026	0	1589.70	0	2.3970	0	34.7960	8	27.785	0	1571.094	0	32.6	4	9.9	4	-1E+10	1	-1E+10	1	-1E+10	1	-1E+10	1	-1E+10	1	-1E+10	1
4901784	121	C	10/27/2018	10:51	-132.839	43.026	0	1594.40	0	2.3880	0	34.7970	8	27.786	0	1575.722	0	32.8	4	10.0	4	-1E+10	1	-1E+10	1	-1E+10	1	-1E+10	1	-1E+10	1	-1E+10	1
4901784	121	C	10/27/2018	10:51	-132.839	43.026	0	1599.30	0	2.3830	0	34.7980	8	27.788	0	1580.546	0	33.1	4	10.1	4	-1E+10	1	-1E+10	1	-1E+10	1	-1E+10	1	-1E+10	1	-1E+10	1
4901784	121	C	10/27/2018	10:51	-132.839	43.026	0	1605.00	0	2.3700	0	34.7990	8	27.790	0	1586.158	0	33.7	4	10.3	4	-1E+10	1	-1E+10	1	-1E+10	1	-1E+10	1	-1E+10	1	-1E+10	1
4901784	121	C	10/27/2018	10:51	-132.839	43.026	0	1610.70	0	2.3590	0	34.8000	8	27.791	0	1591.770	0	34.2	4	10.4	4	-1E+10	1	-1E+10	1	-1E+10	1	-1E+10	1	-1E+10	1	-1E+10	1
4901784	121	C	10/27/2018	10:51	-132.839	43.026	0	1615.70	0	2.3520	0	34.8010	8	27.793	0	1596.692	0	34.4	4	10.5	4	-1E+10	1	-1E+10	1	-1E+10	1	-1E+10	1	-1E+10	1	-1E+10	1
4901784	121	C	10/27/2018	10:51	-132.839	43.026	0	1620.70	0	2.3480	0	34.8030	8	27.795	0	1601.614	0	34.7	4	10.6	4	-1E+10	1	-1E+10	1	-1E+10	1	-1E+10	1	-1E+10	1	-1E+10	1
4901784	121	C	10/27/2018	10:51	-132.839	43.026	0	1625.80	0	2.3420	0	34.8040	8	27.796	0	1606.635	0	35.0	4	10.7	4	-1E+10	1	-1E+10	1	-1E+10	1	-1E+10	1	-1E+10	1	-1E+10	1
4901784	121	C	10/27/2018	10:51	-132.839	43.026	0	1630.00	0	2.3360	0	34.8050	8	27.797	0	1610.770	0	35.3	4	10.8	4	-1E+10	1	-1E+10	1	-1E+10	1	-1E+10	1	-1E+10	1	-1E+10	1
4901784	121	C	10/27/2018	10:51	-132.839	43.026	0	1634.30	0	2.3330	0	34.8060	8	27.798	0	1615.003	0	35.6	4	10.8	4	-1E+10	1	-1E+10	1	-1E+10	1	-1E+10	1	-1E+10	1	-1E+10	1
4901784	121	C	10/27/2018	10:51	-132.839	43.026	0	1639.40	0	2.3240	0	34.8070	8	27.800	0	1620.023	0	35.8	4	10.9	4	-1E+10	1	-1E+10	1	-1E+10	1	-1E+10	1	-1E+10	1	-1E+10	1
4901784	121	C	10/27/2018	10:51	-132.839	43.026	0	1644.60	0	2.3170	0	34.8070	8	27.801	0	1625.141	0	36.1	4	11.0	4	-1E+10	1	-1E+10	1	-1E+10	1	-1E+10	1	-1E+10	1	-1E+10	1
4901784	121	C	10/27/2018	10:51	-132.839	43.026	0	1649.90	0	2.3050	0	34.8080	8	27.802	0	1630.358	0	36.6	4	11.1	4	-1E+10	1	-1E+10	1	-1E+10	1	-1E+10	1	-1E+10	1	-1E+10	1
4901784	121	C	10/27/2018	10:51	-132.839	43.026	0	1655.20	0	2.2960	0	34.8090	8	27.804	0	1635.575	0	37.0	4	11.3	4	-1E+10	1	-1E+10	1	-1E+10	1	-1E+10	1	-1E+10	1	-1E+10	1
4901784	121	C	10/27/2018	10:51	-132.839	43.026	0	1660.40	0	2.2890	0	34.8100	8	27.805	0	1640.693	0	37.4	4	11.4	4	-1E+10	1	-1E+10	1	-1E+10	1	-1E+10	1	-1E+10	1	-1E+10	1
4901784	121	C	10/27/2018	10:51	-132.839	43.026	0	1664.90	0	2.2820	0	34.8110	8	27.807	0	1645.122	0	37.9	4	11.5	4	-1E+10	1	-1E+10	1	-1E+10	1	-1E+10	1	-1E+10	1	-1E+10	1
4901784	121	C	10/27/2018	10:51	-132.839	43.026	0	1669.40	0	2.2730	0	34.8130	8	27.809	0	1649.551	0	38.3	4	11.7	4	-1E+10	1	-1E+10	1	-1E+10	1	-1E+10	1	-1E+10	1	-1E+10	1
4901784	121	C	10/27/2018	10:51	-132.839	43.026	0	1674.80	0	2.2650	0	34.8140	8	27.811	0	1654.866	0	38.8	4	11.8	4	-1E+10	1	-1E+10	1	-1E+10	1	-1E+10	1	-1E+10	1	-1E+10	1
4901784	121	C	10/27/2018	10:51	-132.839	43.026	0	1680.20	0	2.2610	0	34.8140	8	27.811	0	1660.181	0	39.1	4	11.9	4	-1E+10	1	-1E+10	1	-1E+10	1	-1E+10	1	-1E+10	1	-1E+10	1
4901784	121	C	10/27/2018	10:51	-132.839	43.026	0	1684.80	0	2.2560	0	34.8150	8	27.812	0	1664.708	0	39.4	4	12.0	4	-1E+10	1	-1E+10	1	-1E+10	1	-1E+10	1	-1E+10	1	-1E+10	1
4901784	121	C	10/27/2018	10:51	-132.839	43.026	0	1689.20	0	2.2510	0	34.8160	8	27.813	0	1669.038	0	39.8	4	12.1	4	-1E+10	1	-1E+10	1	-1E+10	1	-1E+10	1	-1E+10	1	-1E+10	1
4901784	121	C	10/27/2018	10:51	-132.839	43.026	0	1694.50	0	2.2420	0	34.8170	8	27.815	0	1674.254	0	40.1	4	12.2	4	-1E+10	1	-1E+10	1	-1E+10	1	-1E+10	1	-1E+10	1	-1E+10	1
4901784	121	C	10/27/2018	10:51	-132.839	43.026	0	1699.40	0	2.2330	0	34.8170	8	27.816	0	1679.076	0	40.3	4	12.3	4	-1E+10	1	-1E+10	1	-1E+10	1	-1E+10	1	-1E+10	1	-1E+10	1
4901784	121	C	10/27/2018	10:51	-132.839	43.026	0	1705.00	0	2.2260	0	34.8170	8	27.816	0	1684.587	0	40.7	4	12.4	4	-1E+10	1	-1E+10	1	-1E+10	1	-1E+10	1	-1E+10	1	-1E+10	1
4901784	121	C	10/27/2018	10:51	-132.839	43.026	0	1710.60	0	2.2170	0	34.8180	8	27.818	0	1690.097	0	41.1	4	12.5	4	-1E+10	1	-1E+10	1	-1E+10	1	-1E+10	1	-1E+10	1	-1E+10	1
4901784	121	C	10/27/2018	10:51	-132.839	43.026	0	1715.50	0	2.2130	0	34.8200	8	27.820	0	1694.919	0	41.5	4	12.6	4	-1E+10	1	-1E+10	1	-1E+10	1	-1E+10	1	-1E+10	1	-1E+10	1
4901784	121	C	10/27/2018	10:51	-132.839	43.026	0	1720.50	0	2.2060	0	34.8210	8	27.821	0	1699.839	0	42.0	4	12.7	4	-1E+10	1	-1E+10	1	-1E+10	1	-1E+10	1	-1E+10	1	-1E+10	1
4901784	121	C	10/27/2018	10:51	-132.839	43.026	0	1725.40	0	2.1960	0	34.8220	8	27.823	0	1704.661	0	42.4	4	12.9	4	-1E+10	1	-1E+10	1	-1E+10	1	-1E+10	1	-1E+10	1	-1E+10	1
4901784	121	C	10/27/2018	10:51	-132.839	43.026	0	1730.40	0	2.1920	0	34.8230	8	27.824	0	1709.580	0	42.8	4	13.0	4	-1E+10	1	-1E+10	1	-1E+10	1	-1E+10	1	-1E+10	1	-1E+10	1
4901784	121	C	10/27/2018	10:51	-132.839	43.026	0	1735.50	0	2.1860	0	34.8250	8	27.826	0	1714.598	0	43.2	4	13.1	4	-1E+10	1	-1E+10	1	-1E+10	1	-1E+10	1	-1E+10	1	-1E+10	1
4901784	121	C	10/27/2018	10:51	-132.839	43.026	0	1740.50	0	2.1810	0	34.8260	8	27.827	0	1719.518	0	43.6	4	13.2	4	-1E+10	1	-1E+10	1	-1E+10	1	-1E+10	1	-1E+10	1	-1E+10	1
4901784	121	C	10/27/2018	10:51	-132.839	43.026	0	1745.50	0	2.1750	0	34.8270	8	27.829	0	1724.437	0	44.0	4	13.3	4	-1E+10	1	-1E+10	1	-1E+10	1	-1E+10	1	-1E+10	1	-1E+10	1
4901784	121	C	10/27/2018	10:51	-132.839	43.026	0	1750.60	0	2.1680	0	34.8270	8	27.829	0	1729.455	0	44.4	4	13.5	4	-1E+10	1	-1E+10	1	-1E+10	1	-1E+10	1	-1E+10	1	-1E+10	1
4901784	121	C	10/27/2018	10:51	-132.839	43.026	0	1755.70	0	2.1590	0	34.8280	8	27.831	0	1734.473	0	44.8	4	13.6	4	-1E+10	1	-1E+10	1	-1E+10	1	-1E+10	1	-1E+10	1	-1E+10	1
4901784	121	C	10/27/2018	10:51	-132.839	43.026	0	1760.80	0	2.1520	0	34.8290	8	27.832	0	1739.490	0	45.2	4	13.7	4	-1E+10	1	-1E+10	1	-1E+10	1	-1E+10	1	-1E+10	1	-1E+10	1
4901784	121	C	10/27/2018	10:51	-132.839	43.026	0	1765.00	0	2.1460	0	34.8300	8	27.833	0	1743.622	0	45.5	4	13.8	4	-1E+10	1	-1E+10	1	-1E+10	1	-1E+10	1	-1E+10	1	-1E+10	1
4901784	121	C	10/27/2018	10:51	-132.839	43.026	0	1769.30	0	2.1400	0	34.8300	8	27.834	0	1747.852	0	45.7	4	13.9	4	-1E+10	1	-1E+10	1	-1E+10	1	-1E+10	1	-1E+10	1	-1E+10	1
4901784	121	C	10/27/2018	10:51	-132.839	43.026	0	1774.50	0	2.1350	0	34.8310	8	27.835	0	1752.968	0	46.0	4	13.9	4	-1E+10	1	-1E+10	1	-1E+10	1	-1E+10	1	-1E+10	1	-1E+10	1
4901784	121	C	10/27/2018	10:51	-132.839	43.026	0	1779.70	0	2.1310	0	34.8310	8	27.836	0	1758.083	0	46.3	4	14.0	4	-1E+10	1	-1E+10	1	-1E+10	1	-1E+10	1	-1E+10	1	-1E+10	1
4901784	121	C	10/27/2018	10:51	-132.839	43.026	0	1784.80	0	2.1270	0	34.8320	8	27.837	0	1763.100	0	46.5	4	14.1	4	-1E+10	1	-1E+10	1	-1E+10	1	-1E+10	1	-1E+10	1	-1E+10	1
4901784	121	C	10/27/2018	10:51	-132.839	43.026	0	1790.00	0	2.1220	0	34.8330	8	27.838	0	1768.215	0	46.9	4	14.2	4	-1E+10	1	-1E+10	1	-1E+10	1	-1E+10	1	-1E+10	1	-1E+10	1
4901784	121	C	10/27/2018	10:51	-132.839	43.026	0	1795.20	0	2.1190	0	34.8330	8	27.838	0	1773.330	0	47.2	4	14.3	4	-1E+10	1	-1E+10	1	-1E+10	1	-1E+10	1	-1E+10	1	-1E+10	1
4901784	121	C	10/27/2018	10:51	-132.839	43.026	0	1800.40	0	2.1110	0	34.8340	8	27.840	0	1778.445	0	47.7	4	14.4	4	-1E+10	1	-1E+10	1	-1E+10	1	-1E+10	1	-1E+10	1	-1E+10	1
4901784	121	C	10/27/2018	10:51	-132.839	43.026	0	1805.60	0	2.1030	0	34.8350	8	27.841	0	1783.560	0	48.1	4	14.6	4	-1E+10	1	-1E+10	1	-1E+10	1	-1E+10	1	-1E+10	1	-1E+10	1
4901784	121	C	10/27/2018	10:51	-132.839	43.026	0	1810.00	0	2.0980	0	34.8360	8	27.842	0	1787.888	0	48.4	4	14.7	4	-1E+10	1	-1E+10	1	-1E+10	1	-1E+10	1	-1E+10	1	-1E+10	1
4901784	121	C	10/27/2018	10:51	-132.839	43.026	0	1814.40	0	2.0920	0	34.8370	8	27.844	0	1792.215	0	48.7	4	14.7	4	-1E+10	1	-1E+10	1	-1E+10	1	-1E+10	1	-1E+10	1	-1E+10	1
4901784	121	C	10/27/2018	10:51	-132.839	43.026	0	1819.70	0	2.0890	0	34.8370	8	27.844	0	1797.428	0	49.0	4	14.8	4	-1E+10	1	-1E+10	1	-1E+10	1	-1E+10	1	-1E+10	1	-1E+10	1
4901784	121	C	10/27/2018	10:51	-132.839	43.026	0	1824.90	0	2.0840	0	34.8380	8	27.845	0	1802.543	0	49.2	4	14.9	4	-1E+10	1	-1E+10	1	-1E+10	1	-1E+10	1	-1E+10	1	-1E+10	1
4901784	121	C	10/27/2018	10:51	-132.839	43.026	0	1830.30	0	2.0820	0	34.8390	8	27.846	0	1807.853	0	49.5	4	15.0	4	-1E+10	1	-1E+10	1	-1E+10	1	-1E+10	1	-1E+10	1	-1E+10	1
4901784	121	C	10/27/2018	10:51	-132.839	43.026	0	1835.60	0	2.0800	0	34.8400	8	27.847	0	1813.066	0	49.8	4	15.1	4	-1E+10	1	-1E+10	1	-1E+10	1	-1E+10	1	-1E+10	1	-1E+10	1
4901784	121	C	10/27/2018	10:51	-132.839	43.026	0	1840.00	0	2.0740	0	34.8410	8	27.848	0	1817.393	0	50.2	4	15.2	4	-1E+10	1	-1E+10	1	-1E+10	1	-1E+10	1	-1E+10	1	-1E+10	1
4901784	121	C	10/27/2018	10:51	-132.839	43.026	0	1844.50	0	2.0690	0	34.8420	8	27.850	0	1821.818	0	50.5	4	15.3	4	-1E+10	1	-1E+10	1	-1E+10	1	-1E+10	1	-1E+10	1	-1E+10	1
4901784	121	C	10/27/2018	10:51	-132.839	43.026	0	1849.90	0	2.0660	0	34.8430	8	27.851	0	1827.129	0	50.8	4	15.4	4	-1E+10	1	-1E+10	1	-1E+10	1	-1E+10	1	-1E+10	1	-1E+10	1
4901784	121	C	10/27/2018	10:51	-132.839	43.026	0	1855.30	0	2.0610	0	34.8430	8	27.851	0	1832.439	0	51.3	4	15.5	4	-1E+10	1	-1E+10	1	-1E+10	1	-1E+10	1	-1E+10	1	-1E+10	1
4901784	121	C	10/27/2018	10:51	-132.839	43.026	0	1859.80	0	2.0540	0	34.8440	8	27.852	0	1836.864	0	51.6	4	15.6	4	-1E+10	1	-1E+10	1	-1E+10	1	-1E+10	1	-1E+10	1	-1E+10	1
4901784	121	C	10/27/2018	10:51	-132.839	43.026	0	1864.30	0	2.0490	0	34.8450	8	27.854	0	1841.289	0	51.9	4	15.7	4	-1E+10	1	-1E+10	1	-1E+10	1	-1E+10	1	-1E+10	1	-1E+10	1
4901784	121	C	10/27/2018	10:51	-132.839	43.026	0	1869.70	0	2.0460	0	34.8460	8	27.855	0	1846.599	0	52.2	4	15.8	4	-1E+10	1	-1E+10	1	-1E+10	1	-1E+10	1	-1E+10	1	-1E+10	1
4901784	121	C	10/27/2018	10:51	-132.839	43.026	0	1875.20	0	2.0400	0	34.8470	8	27.856	0	1852.007	0	52.5	4	15.9	4	-1E+10	1	-1E+10	1	-1E+10	1	-1E+10	1	-1E+10	1	-1E+10	1
4901784	121	C	10/27/2018	10:51	-132.839	43.026	0	1879.80	0	2.0360	0	34.8470	8	27.856	0	1856.530	0	52.8	4	16.0	4	-1E+10	1	-1E+10	1	-1E+10	1	-1E+10	1	-1E+10	1	-1E+10	1
4901784	121	C	10/27/2018	10:51	-132.839	43.026	0	1884.30	0	2.0320	0	34.8470	8	27.857	0	1860.955	0	53.1	4	16.1	4	-1E+10	1	-1E+10	1	-1E+10	1	-1E+10	1	-1E+10	1	-1E+10	1
4901784	121	C	10/27/2018	10:51	-132.839	43.026	0	1889.80	0	2.0270	0	34.8480	8	27.858	0	1866.363	0	53.5	4	16.2	4	-1E+10	1	-1E+10	1	-1E+10	1	-1E+10	1	-1E+10	1	-1E+10	1
4901784	121	C	10/27/2018	10:51	-132.839	43.026	0	1895.30	0	2.0220	0	34.8490	8	27.859	0	1871.770	0	53.9	4	16.3	4	-1E+10	1	-1E+10	1	-1E+10	1	-1E+10	1	-1E+10	1	-1E+10	1
4901784	121	C	10/27/2018	10:51	-132.839	43.026	0	1899.90	0	2.0180	0	34.8500	8	27.860	0	1876.293	0	54.2	4	16.4	4	-1E+10	1	-1E+10	1	-1E+10	1	-1E+10	1	-1E+10	1	-1E+10	1
4901784	121	C	10/27/2018	10:51	-132.839	43.026	0	1904.50	0	2.0120	0	34.8510	8	27.862	0	1880.815	0	54.4	4	16.4	4	-1E+10	1	-1E+10	1	-1E+10	1	-1E+10	1	-1E+10	1	-1E+10	1
4901784	121	C	10/27/2018	10:51	-132.839	43.026	0	1910.10	0	2.0100	0	34.8510	8	27.862	0	1886.321	0	54.5	4	16.5	4	-1E+10	1	-1E+10	1	-1E+10	1	-1E+10	1	-1E+10	1	-1E+10	1
4901784	121	C	10/27/2018	10:51	-132.839	43.026	0	1914.70	0	2.0090	0	34.8510	8	27.862	0	1890.843	0	54.7	4	16.5	4	-1E+10	1	-1E+10	1	-1E+10	1	-1E+10	1	-1E+10	1	-1E+10	1
4901784	121	C	10/27/2018	10:51	-132.839	43.026	0	1919.20	0	2.0060	0	34.8520	8	27.863	0	1895.267	0	54.9	4	16.6	4	-1E+10	1	-1E+10	1	-1E+10	1	-1E+10	1	-1E+10	1	-1E+10	1
4901784	121	C	10/27/2018	10:51	-132.839	43.026	0	1924.60	0	2.0040	0	34.8520	8	27.863	0	1900.576	0	55.1	4	16.7	4	-1E+10	1	-1E+10	1	-1E+10	1	-1E+10	1	-1E+10	1	-1E+10	1
4901784	121	C	10/27/2018	10:51	-132.839	43.026	0	1929.60	0	2.0000	0	34.8530	8	27.864	0	1905.491	0	55.5	4	16.8	4	-1E+10	1	-1E+10	1	-1E+10	1	-1E+10	1	-1E+10	1	-1E+10	1
4901784	121	C	10/27/2018	10:51	-132.839	43.026	0	1934.50	0	1.9960	0	34.8530	8	27.865	0	1910.308	0	55.8	4	16.8	4	-1E+10	1	-1E+10	1	-1E+10	1	-1E+10	1	-1E+10	1	-1E+10	1
4901784	121	C	10/27/2018	10:51	-132.839	43.026	0	1939.40	0	1.9920	0	34.8540	8	27.866	0	1915.125	0	56.0	4	16.9	4	-1E+10	1	-1E+10	1	-1E+10	1	-1E+10	1	-1E+10	1	-1E+10	1
4901784	121	C	10/27/2018	10:51	-132.839	43.026	0	1944.40	0	1.9910	0	34.8540	8	27.866	0	1920.039	0	56.1	4	17.0	4	-1E+10	1	-1E+10	1	-1E+10	1	-1E+10	1	-1E+10	1	-1E+10	1
4901784	121	C	10/27/2018	10:51	-132.839	43.026	0	1949.30	0	1.9890	0	34.8540	8	27.866	0	1924.856	0	56.5	4	17.1	4	-1E+10	1	-1E+10	1	-1E+10	1	-1E+10	1	-1E+10	1	-1E+10	1
4901784	121	C	10/27/2018	10:51	-132.839	43.026	0	1954.30	0	1.9830	0	34.8560	8	27.868	0	1929.771	0	56.9	4	17.2	4	-1E+10	1	-1E+10	1	-1E+10	1	-1E+10	1	-1E+10	1	-1E+10	1
4901784	121	C	10/27/2018	10:51	-132.839	43.026	0	1959.30	0	1.9790	0	34.8560	8	27.869	0	1934.685	0	57.2	4	17.3	4	-1E+10	1	-1E+10	1	-1E+10	1	-1E+10	1	-1E+10	1	-1E+10	1
4901784	121	C	10/27/2018	10:51	-132.839	43.026	0	1964.30	0	1.9740	0	34.8570	8	27.870	0	1939.600	0	57.4	4	17.3	4	-1E+10	1	-1E+10	1	-1E+10	1	-1E+10	1	-1E+10	1	-1E+10	1
4901784	121	C	10/27/2018	10:51	-132.839	43.026	0	1969.30	0	1.9690	0	34.8570	8	27.870	0	1944.514	0	57.6	4	17.4	4	-1E+10	1	-1E+10	1	-1E+10	1	-1E+10	1	-1E+10	1	-1E+10	1
4901784	121	C	10/27/2018	10:51	-132.839	43.026	0	1974.40	0	1.9630	0	34.8570	8	27.871	0	1949.526	0	57.7	4	17.4	4	-1E+10	1	-1E+10	1	-1E+10	1	-1E+10	1	-1E+10	1	-1E+10	1
4901784	121	C	10/27/2018	10:51	-132.839	43.026	0	1979.50	0	1.9620	0	34.8570	8	27.871	0	1954.539	0	58.0	4	17.5	4	-1E+10	1	-1E+10	1	-1E+10	1	-1E+10	1	-1E+10	1	-1E+10	1
4901784	121	C	10/27/2018	10:51	-132.839	43.026	0	1984.60	0	1.9590	0	34.8580	8	27.872	0	1959.551	0	58.2	4	17.6	4	-1E+10	1	-1E+10	1	-1E+10	1	-1E+10	1	-1E+10	1	-1E+10	1
4901784	121	C	10/27/2018	10:51	-132.839	43.026	0	1989.70	0	1.9530	0	34.8580	8	27.872	0	1964.563	0	58.5	4	17.7	4	-1E+10	1	-1E+10	1	-1E+10	1	-1E+10	1	-1E+10	1	-1E+10	1
4901784	121	C	10/27/2018	10:51	-132.839	43.026	0	1994.80	0	1.9470	0	34.8590	8	27.874	0	1969.575	0	58.9	4	17.8	4	-1E+10	1	-1E+10	1	-1E+10	1	-1E+10	1	-1E+10	1	-1E+10	1
4901784	121	C	10/27/2018	10:51	-132.839	43.026	0	1999.90	0	1.9450	0	34.8590	8	27.874	0	1974.587	0	59.1	4	17.8	4	-1E+10	1	-1E+10	1	-1E+10	1	-1E+10	1	-1E+10	1	-1E+10	1
4901784	121	C	10/27/2018	10:51	-132.839	43.026	0	2005.00	0	1.9420	0	34.8600	8	27.875	0	1979.599	0	59.3	4	17.9	4	-1E+10	1	-1E+10	1	-1E+10	1	-1E+10	1	-1E+10	1	-1E+10	1
4901784	121	C	10/27/2018	10:51	-132.839	43.026	0	2010.00	0	1.9390	0	34.8600	8	27.875	0	1984.512	0	59.7	4	18.0	4	-1E+10	1	-1E+10	1	-1E+10	1	-1E+10	1	-1E+10	1	-1E+10	1
4901784	121	C	10/27/2018	10:51	-132.839	43.026	0	2015.00	0	1.9370	0	34.8610	8	27.876	0	1989.425	0	60.0	4	18.1	4	-1E+10	1	-1E+10	1	-1E+10	1	-1E+10	1	-1E+10	1	-1E+10	1
4901784	121	C	10/27/2018	10:51	-132.839	43.026	0	2019.80	0	1.9340	0	34.8620	8	27.877	0	1994.142	0	60.3	4	18.2	4	-1E+10	1	-1E+10	1	-1E+10	1	-1E+10	1	-1E+10	1	-1E+10	1
4901784	121	C	10/27/2018	10:51	-132.839	43.026	0																										
4901784	122	C	11/06/2018	10:46	-133.005	43.024	0	1.80	0	16.4820	0	33.1350	8	24.205	0	1.786	0	236.2	4	96.9	4	-1E+10	1	-1E+10	1	-1E+10	1	-1E+10	1	-1E+10	1	-1E+10	1
4901784	122	C	11/06/2018	10:46	-133.005	43.024	0	3.50	0	16.4800	0	33.1360	8	24.206	0	3.472	0	236.2	4	96.8	4	-1E+10	1	-1E+10	1	-1E+10	1	-1E+10	1	-1E+10	1	-1E+10	1
4901784	122	C	11/06/2018	10:46	-133.005	43.024	0	5.30	0	16.4780	0	33.1340	8	24.205	0	5.258	0	236.2	4	96.8	4	-1E+10	1	-1E+10	1	-1E+10	1	-1E+10	1	-1E+10	1	-1E+10	1
4901784	122	C	11/06/2018	10:46	-133.005	43.024	0	7.00	0	16.4740	0	33.1360	8	24.207	0	6.944	0	236.1	4	96.8	4	-1E+10	1	-1E+10	1	-1E+10	1	-1E+10	1	-1E+10	1	-1E+10	1
4901784	122	C	11/06/2018	10:46	-133.005	43.024	0	8.80	0	16.4770	0	33.1350	8	24.206	0	8.730	0	235.9	4	96.7	4	-1E+10	1	-1E+10	1	-1E+10	1	-1E+10	1	-1E+10	1	-1E+10	1
4901784	122	C	11/06/2018	10:46	-133.005	43.024	0	10.50	0	16.4760	0	33.1350	8	24.206	0	10.416	0	235.9	4	96.7	4	-1E+10	1	-1E+10	1	-1E+10	1	-1E+10	1	-1E+10	1	-1E+10	1
4901784	122	C	11/06/2018	10:46	-133.005	43.024	0	12.30	0	16.4800	0	33.1330	8	24.204	0	12.202	0	235.9	4	96.7	4	-1E+10	1	-1E+10	1	-1E+10	1	-1E+10	1	-1E+10	1	-1E+10	1
4901784	122	C	11/06/2018	10:46	-133.005	43.024	0	14.00	0	16.4840	0	33.1350	8	24.205	0	13.888	0	235.8	4	96.7	4	-1E+10	1	-1E+10	1	-1E+10	1	-1E+10	1	-1E+10	1	-1E+10	1
4901784	122	C	11/06/2018	10:46	-133.005	43.024	0	15.90	0	16.4840	0	33.1350	8	24.205	0	15.773	0	235.7	4	96.6	4	-1E+10	1	-1E+10	1	-1E+10	1	-1E+10	1	-1E+10	1	-1E+10	1
4901784	122	C	11/06/2018	10:46	-133.005	43.024	0	18.20	0	16.4850	0	33.1350	8	24.204	0	18.055	0	235.6	4	96.6	4	-1E+10	1	-1E+10	1	-1E+10	1	-1E+10	1	-1E+10	1	-1E+10	1
4901784	122	C	11/06/2018	10:46	-133.005	43.024	0	20.00	0	16.4850	0	33.1350	8	24.205	0	19.840	0	235.4	4	96.5	4	-1E+10	1	-1E+10	1	-1E+10	1	-1E+10	1	-1E+10	1	-1E+10	1
4901784	122	C	11/06/2018	10:46	-133.005	43.024	0	21.60	0	16.4870	0	33.1350	8	24.204	0	21.427	0	235.3	4	96.5	4	-1E+10	1	-1E+10	1	-1E+10	1	-1E+10	1	-1E+10	1	-1E+10	1
4901784	122	C	11/06/2018	10:46	-133.005	43.024	0	23.20	0	16.4870	0	33.1340	8	24.203	0	23.015	0	235.5	4	96.6	4	-1E+10	1	-1E+10	1	-1E+10	1	-1E+10	1	-1E+10	1	-1E+10	1
4901784	122	C	11/06/2018	10:46	-133.005	43.024	0	24.70	0	16.4870	0	33.1340	8	24.204	0	24.503	0	235.3	4	96.5	4	-1E+10	1	-1E+10	1	-1E+10	1	-1E+10	1	-1E+10	1	-1E+10	1
4901784	122	C	11/06/2018	10:46	-133.005	43.024	0	26.30	0	16.4890	0	33.1340	8	24.203	0	26.090	0	235.0	4	96.4	4	-1E+10	1	-1E+10	1	-1E+10	1	-1E+10	1	-1E+10	1	-1E+10	1
4901784	122	C	11/06/2018	10:46	-133.005	43.024	0	27.80	0	16.4880	0	33.1340	8	24.203	0	27.578	0	235.0	4	96.4	4	-1E+10	1	-1E+10	1	-1E+10	1	-1E+10	1	-1E+10	1	-1E+10	1
4901784	122	C	11/06/2018	10:46	-133.005	43.024	0	29.40	0	16.4890	0	33.1340	8	24.203	0	29.165	0	234.8	4	96.3	4	-1E+10	1	-1E+10	1	-1E+10	1	-1E+10	1	-1E+10	1	-1E+10	1
4901784	122	C	11/06/2018	10:46	-133.005	43.024	0	31.10	0	16.4890	0	33.1340	8	24.203	0	30.851	0	234.6	4	96.2	4	-1E+10	1	-1E+10	1	-1E+10	1	-1E+10	1	-1E+10	1	-1E+10	1
4901784	122	C	11/06/2018	10:46	-133.005	43.024	0	32.60	0	16.4880	0	33.1340	8	24.204	0	32.339	0	234.6	4	96.2	4	-1E+10	1	-1E+10	1	-1E+10	1	-1E+10	1	-1E+10	1	-1E+10	1
4901784	122	C	11/06/2018	10:46	-133.005	43.024	0	34.20	0	16.4870	0	33.1340	8	24.204	0	33.926	0	234.3	4	96.1	4	-1E+10	1	-1E+10	1	-1E+10	1	-1E+10	1	-1E+10	1	-1E+10	1
4901784	122	C	11/06/2018	10:46	-133.005	43.024	0	35.70	0	16.4880	0	33.1330	8	24.203	0	35.414	0	234.3	4	96.1	4	-1E+10	1	-1E+10	1	-1E+10	1	-1E+10	1	-1E+10	1	-1E+10	1
4901784	122	C	11/06/2018	10:46	-133.005	43.024	0	37.40	0	16.4890	0	33.1330	8	24.203	0	37.100	0	234.1	4	96.0	4	-1E+10	1	-1E+10	1	-1E+10	1	-1E+10	1	-1E+10	1	-1E+10	1
4901784	122	C	11/06/2018	10:46	-133.005	43.024	0	39.10	0	16.4890	0	33.1320	8	24.202	0	38.786	0	234.2	4	96.0	4	-1E+10	1	-1E+10	1	-1E+10	1	-1E+10	1	-1E+10	1	-1E+10	1
4901784	122	C	11/06/2018	10:46	-133.005	43.024	0	40.80	0	16.4910	0	33.1310	8	24.201	0	40.472	0	234.1	4	96.0	4	-1E+10	1	-1E+10	1	-1E+10	1	-1E+10	1	-1E+10	1	-1E+10	1
4901784	122	C	11/06/2018	10:46	-133.005	43.024	0	42.50	0	16.4890	0	33.1300	8	24.201	0	42.158	0	234.2	4	96.0	4	-1E+10	1	-1E+10	1	-1E+10	1	-1E+10	1	-1E+10	1	-1E+10	1
4901784	122	C	11/06/2018	10:46	-133.005	43.024	0	44.30	0	16.4910	0	33.1290	8	24.199	0	43.944	0	234.1	4	96.0	4	-1E+10	1	-1E+10	1	-1E+10	1	-1E+10	1	-1E+10	1	-1E+10	1
4901784	122	C	11/06/2018	10:46	-133.005	43.024	0	46.00	0	16.4890	0	33.1270	8	24.198	0	45.630	0	234.4	4	96.1	4	-1E+10	1	-1E+10	1	-1E+10	1	-1E+10	1	-1E+10	1	-1E+10	1
4901784	122	C	11/06/2018	10:46	-133.005	43.024	0	47.70	0	16.4890	0	33.1250	8	24.197	0	47.316	0	235.2	4	96.5	4	-1E+10	1	-1E+10	1	-1E+10	1	-1E+10	1	-1E+10	1	-1E+10	1
4901784	122	C	11/06/2018	10:46	-133.005	43.024	0	49.40	0	16.4830	0	33.1220	8	24.196	0	49.002	0	236.1	4	96.8	4	-1E+10	1	-1E+10	1	-1E+10	1	-1E+10	1	-1E+10	1	-1E+10	1
4901784	122	C	11/06/2018	10:46	-133.005	43.024	0	51.00	0	16.4440	0	33.1210	8	24.204	0	50.589	0	237.3	4	97.2	4	-1E+10	1	-1E+10	1	-1E+10	1	-1E+10	1	-1E+10	1	-1E+10	1
4901784	122	C	11/06/2018	10:46	-133.005	43.024	0	52.60	0	16.4210	0	33.1100	8	24.201	0	52.176	0	239.4	4	98.0	4	-1E+10	1	-1E+10	1	-1E+10	1	-1E+10	1	-1E+10	1	-1E+10	1
4901784	122	C	11/06/2018	10:46	-133.005	43.024	0	54.20	0	16.3320	0	33.0960	8	24.211	0	53.763	0	242.1	4	99.0	4	-1E+10	1	-1E+10	1	-1E+10	1	-1E+10	1	-1E+10	1	-1E+10	1
4901784	122	C	11/06/2018	10:46	-133.005	43.024	0	55.80	0	16.1130	0	33.0670	8	24.238	0	55.350	0	246.0	4	100.1	4	-1E+10	1	-1E+10	1	-1E+10	1	-1E+10	1	-1E+10	1	-1E+10	1
4901784	122	C	11/06/2018	10:46	-133.005	43.024	0	57.90	0	15.2020	0	33.0480	8	24.426	0	57.432	0	253.2	4	101.2	4	-1E+10	1	-1E+10	1	-1E+10	1	-1E+10	1	-1E+10	1	-1E+10	1
4901784	122	C	11/06/2018	10:46	-133.005	43.024	0	59.50	0	14.5560	0	33.0490	8	24.566	0	59.019	0	260.3	4	102.7	4	-1E+10	1	-1E+10	1	-1E+10	1	-1E+10	1	-1E+10	1	-1E+10	1
4901784	122	C	11/06/2018	10:46	-133.005	43.024	0	60.90	0	14.1230	0	32.9980	8	24.617	0	60.408	0	264.6	4	103.5	4	-1E+10	1	-1E+10	1	-1E+10	1	-1E+10	1	-1E+10	1	-1E+10	1
4901784	122	C	11/06/2018	10:46	-133.005	43.024	0	62.20	0	13.8730	0	32.9800	8	24.655	0	61.697	0	267.4	4	104.0	4	-1E+10	1	-1E+10	1	-1E+10	1	-1E+10	1	-1E+10	1	-1E+10	1
4901784	122	C	11/06/2018	10:46	-133.005	43.024	0	63.60	0	13.6020	0	32.9740	8	24.706	0	63.086	0	269.7	4	104.4	4	-1E+10	1	-1E+10	1	-1E+10	1	-1E+10	1	-1E+10	1	-1E+10	1
4901784	122	C	11/06/2018	10:46	-133.005	43.024	0	65.00	0	13.1360	0	32.9580	8	24.787	0	64.474	0	272.8	4	104.6	4	-1E+10	1	-1E+10	1	-1E+10	1	-1E+10	1	-1E+10	1	-1E+10	1
4901784	122	C	11/06/2018	10:46	-133.005	43.024	0	66.50	0	12.9220	0	32.9180	8	24.798	0	65.962	0	274.5	4	104.7	4	-1E+10	1	-1E+10	1	-1E+10	1	-1E+10	1	-1E+10	1	-1E+10	1
4901784	122	C	11/06/2018	10:46	-133.005	43.024	0	68.10	0	11.7610	0	32.9670	8	25.057	0	67.548	0	278.8	4	103.9	4	-1E+10	1	-1E+10	1	-1E+10	1	-1E+10	1	-1E+10	1	-1E+10	1
4901784	122	C	11/06/2018	10:46	-133.005	43.024	0	69.70	0	11.3270	0	32.9180	8	25.098	0	69.135	0	282.4	4	104.2	4	-1E+10	1	-1E+10	1	-1E+10	1	-1E+10	1	-1E+10	1	-1E+10	1
4901784	122	C	11/06/2018	10:46	-133.005	43.024	0	71.30	0	11.0720	0	32.9380	8	25.159	0	70.722	0	281.3	4	103.3	4	-1E+10	1	-1E+10	1	-1E+10	1	-1E+10	1	-1E+10	1	-1E+10	1
4901784	122	C	11/06/2018	10:46	-133.005	43.024	0	72.90	0	10.8670	0	32.9400	8	25.197	0	72.309	0	281.5	4	102.9	4	-1E+10	1	-1E+10	1	-1E+10	1	-1E+10	1	-1E+10	1	-1E+10	1
4901784	122	C	11/06/2018	10:46	-133.005	43.024	0	74.60	0	10.7300	0	32.9430	8	25.223	0	73.995	0	280.8	4	102.3	4	-1E+10	1	-1E+10	1	-1E+10	1	-1E+10	1	-1E+10	1	-1E+10	1
4901784	122	C	11/06/2018	10:46	-133.005	43.024	0	76.30	0	10.6630	0	32.9350	8	25.229	0	75.680	0	280.3	4	102.0	4	-1E+10	1	-1E+10	1	-1E+10	1	-1E+10	1	-1E+10	1	-1E+10	1
4901784	122	C	11/06/2018	10:46	-133.005	43.024	0	78.10	0	10.6440	0	32.9370	8	25.234	0	77.465	0	279.1	4	101.5	4	-1E+10	1	-1E+10	1	-1E+10	1	-1E+10	1	-1E+10	1	-1E+10	1
4901784	122	C	11/06/2018	10:46	-133.005	43.024	0	79.80	0	10.5990	0	32.9360	8	25.241	0	79.151	0	277.7	4	100.9	4	-1E+10	1	-1E+10	1	-1E+10	1	-1E+10	1	-1E+10	1	-1E+10	1
4901784	122	C	11/06/2018	10:46	-133.005	43.024	0	81.60	0	10.5370	0	32.9320	8	25.248	0	80.936	0	276.4	4	100.3	4	-1E+10	1	-1E+10	1	-1E+10	1	-1E+10	1	-1E+10	1	-1E+10	1
4901784	122	C	11/06/2018	10:46	-133.005	43.024	0	83.30	0	10.4740	0	32.9320	8	25.259	0	82.622	0	274.9	4	99.6	4	-1E+10	1	-1E+10	1	-1E+10	1	-1E+10	1	-1E+10	1	-1E+10	1
4901784	122	C	11/06/2018	10:46	-133.005	43.024	0	85.10	0	10.3660	0	32.9330	8	25.279	0	84.407	0	273.3	4	98.8	4	-1E+10	1	-1E+10	1	-1E+10	1	-1E+10	1	-1E+10	1	-1E+10	1
4901784	122	C	11/06/2018	10:46	-133.005	43.024	0	86.90	0	10.3160	0	32.9320	8	25.286	0	86.192	0	271.6	4	98.1	4	-1E+10	1	-1E+10	1	-1E+10	1	-1E+10	1	-1E+10	1	-1E+10	1
4901784	122	C	11/06/2018	10:46	-133.005	43.024	0	88.60	0	10.2800	0	32.9320	8	25.292	0	87.878	0	269.3	4	97.2	4	-1E+10	1	-1E+10	1	-1E+10	1	-1E+10	1	-1E+10	1	-1E+10	1
4901784	122	C	11/06/2018	10:46	-133.005	43.024	0	90.30	0	10.2410	0	32.9290	8	25.297	0	89.564	0	266.6	4	96.1	4	-1E+10	1	-1E+10	1	-1E+10	1	-1E+10	1	-1E+10	1	-1E+10	1
4901784	122	C	11/06/2018	10:46	-133.005	43.024	0	92.00	0	10.0200	0	32.9430	8	25.345	0	91.249	0	264.7	4	95.0	4	-1E+10	1	-1E+10	1	-1E+10	1	-1E+10	1	-1E+10	1	-1E+10	1
4901784	122	C	11/06/2018	10:46	-133.005	43.024	0	93.80	0	9.9550	0	32.9350	8	25.349	0	93.034	0	263.1	4	94.3	4	-1E+10	1	-1E+10	1	-1E+10	1	-1E+10	1	-1E+10	1	-1E+10	1
4901784	122	C	11/06/2018	10:46	-133.005	43.024	0	95.60	0	9.8500	0	32.9410	8	25.372	0	94.819	0	261.5	4	93.5	4	-1E+10	1	-1E+10	1	-1E+10	1	-1E+10	1	-1E+10	1	-1E+10	1
4901784	122	C	11/06/2018	10:46	-133.005	43.024	0	97.40	0	9.8320	0	32.9420	8	25.375	0	96.604	0	259.9	4	92.9	4	-1E+10	1	-1E+10	1	-1E+10	1	-1E+10	1	-1E+10	1	-1E+10	1
4901784	122	C	11/06/2018	10:46	-133.005	43.024	0	99.10	0	9.7620	0	32.9480	8	25.392	0	98.290	0	258.3	4	92.2	4	-1E+10	1	-1E+10	1	-1E+10	1	-1E+10	1	-1E+10	1	-1E+10	1
4901784	122	C	11/06/2018	10:46	-133.005	43.024	0	102.60	0	9.6240	0	32.9450	8	25.412	0	101.760	0	255.1	4	90.8	4	-1E+10	1	-1E+10	1	-1E+10	1	-1E+10	1	-1E+10	1	-1E+10	1
4901784	122	C	11/06/2018	10:46	-133.005	43.024	0	105.30	0	9.5460	0	32.9490	8	25.428	0	104.438	0	252.7	4	89.8	4	-1E+10	1	-1E+10	1	-1E+10	1	-1E+10	1	-1E+10	1	-1E+10	1
4901784	122	C	11/06/2018	10:46	-133.005	43.024	0	108.00	0	9.4290	0	32.9620	8	25.457	0	107.115	0	250.4	4	88.7	4	-1E+10	1	-1E+10	1	-1E+10	1	-1E+10	1	-1E+10	1	-1E+10	1
4901784	122	C	11/06/2018	10:46	-133.005	43.024	0	109.80	0	9.3170	0	32.9720	8	25.482	0	108.900	0	249.5	4	88.2	4	-1E+10	1	-1E+10	1	-1E+10	1	-1E+10	1	-1E+10	1	-1E+10	1
4901784	122	C	11/06/2018	10:46	-133.005	43.024	0	112.70	0	9.2750	0	32.9810	8	25.496	0	111.775	0	247.9	4	87.6	4	-1E+10	1	-1E+10	1	-1E+10	1	-1E+10	1	-1E+10	1	-1E+10	1
4901784	122	C	11/06/2018	10:46	-133.005	43.024	0	115.40	0	9.1960	0	32.9840	8	25.511	0	114.452	0	246.4	4	86.9	4	-1E+10	1	-1E+10	1	-1E+10	1	-1E+10	1	-1E+10	1	-1E+10	1
4901784	122	C	11/06/2018	10:46	-133.005	43.024	0	117.30	0	9.0260	0	33.0070	8	25.556	0	116.336	0	245.5	4	86.3	4	-1E+10	1	-1E+10	1	-1E+10	1	-1E+10	1	-1E+10	1	-1E+10	1
4901784	122	C	11/06/2018	10:46	-133.005	43.024	0	119.80	0	8.8790	0	33.0340	8	25.600	0	118.815	0	244.8	4	85.8	4	-1E+10	1	-1E+10	1	-1E+10	1	-1E+10	1	-1E+10	1	-1E+10	1
4901784	122	C	11/06/2018	10:46	-133.005	43.024	0	122.50	0	8.7860	0	33.0650	8	25.639	0	121.492	0	243.8	4	85.2	4	-1E+10	1	-1E+10	1	-1E+10	1	-1E+10	1	-1E+10	1	-1E+10	1
4901784	122	C	11/06/2018	10:46	-133.005	43.024	0	124.90	0	8.7710	0	33.0800	8	25.653	0	123.871	0	242.2	4	84.7	4	-1E+10	1	-1E+10	1	-1E+10	1	-1E+10	1	-1E+10	1	-1E+10	1
4901784	122	C	11/06/2018	10:46	-133.005	43.024	0	127.30	0	8.6650	0	33.1140	8	25.696	0	126.251	0	240.9	4	84.1	4	-1E+10	1	-1E+10	1	-1E+10	1	-1E+10	1	-1E+10	1	-1E+10	1
4901784	122	C	11/06/2018	10:46	-133.005	43.024	0	129.70	0	8.5550	0	33.1660	8	25.753	0	128.630	0	239.7	4	83.5	4	-1E+10	1	-1E+10	1	-1E+10	1	-1E+10	1	-1E+10	1	-1E+10	1
4901784	122	C	11/06/2018	10:46	-133.005	43.024	0	132.20	0	8.4270	0	33.1970	8	25.797	0	131.109	0	238.9	4	83.0	4	-1E+10	1	-1E+10	1	-1E+10	1	-1E+10	1	-1E+10	1	-1E+10	1
4901784	122	C	11/06/2018	10:46	-133.005	43.024	0	134.70	0	8.2910	0	33.2420	8	25.853	0	133.587	0	237.9	4	82.4	4	-1E+10	1	-1E+10	1	-1E+10	1	-1E+10	1	-1E+10	1	-1E+10	1
4901784	122	C	11/06/2018	10:46	-133.005	43.024	0	137.20	0	8.1830	0	33.2790	8	25.898	0	136.066	0	237.2	4	82.0	4	-1E+10	1	-1E+10	1	-1E+10	1	-1E+10	1	-1E+10	1	-1E+10	1
4901784	122	C	11/06/2018	10:46	-133.005	43.024	0	140.30	0	8.1500	0	33.3070	8	25.925	0	139.139	0	235.3	4	81.3	4	-1E+10	1	-1E+10	1	-1E+10	1	-1E+10	1	-1E+10	1	-1E+10	1
4901784	122	C	11/06/2018	10:46	-133.005	43.024	0	142.80	0	8.1140	0	33.3400	8	25.956	0	141.618	0	233.1	4	80.5	4	-1E+10	1	-1E+10	1	-1E+10	1	-1E+10	1	-1E+10	1	-1E+10	1
4901784	122	C	11/06/2018	10:46	-133.005	43.024	0	145.00	0	8.0810	0	33.3840	8	25.995	0	143.799	0	230.5	4	79.5	4	-1E+10	1	-1E+10	1	-1E+10	1	-1E+10	1	-1E+10	1	-1E+10	1
4901784	122	C	11/06/2018	10:46	-133.005	43.024	0	147.20	0	8.0800	0	33.4030	8	26.010	0	145.980	0	227.3	4	78.4	4	-1E+10	1	-1E+10	1	-1E+10	1	-1E+10	1	-1E+10	1	-1E+10	1
4901784	122	C	11/06/2018	10:46	-133.005	43.024	0	150.10	0	8.0590	0	33.4650	8	26.062	0	148.855	0	221.8	4	76.5	4	-1E+10	1	-1E+10	1	-1E+10	1	-1E+10	1	-1E+10	1	-1E+10	1
4901784	122	C	11/06/2018	10:46	-133.005	43.024	0	152.30	0	8.0590	0	33.5290	8	26.112	0	151.036	0	217.5	4	75.1	4	-1E+10	1	-1E+10	1	-1E+10	1	-1E+10	1	-1E+10	1	-1E+10	1
4901784	122	C	11/06/2018	10:46	-133.005	43.024	0	154.60	0	8.0760	0	33.5800	8	26.150	0	153.316	0	213.1	4	73.7	4	-1E+10	1	-1E+10	1	-1E+10	1	-1E+10	1	-1E+10	1	-1E+10	1
4901784	122	C	11/06/2018	10:46	-133.005	43.024	0	157.10	0	8.0920	0	33.6200	8	26.179	0	155.794	0	208.5	4	72.1	4	-1E+10	1	-1E+10	1	-1E+10	1	-1E+10	1	-1E+10	1	-1E+10	1
4901784	122	C	11/06/2018	10:46	-133.005	43.024	0	159.70	0	8.1190	0	33.6670	8	26.212	0	158.371	0	202.8	4	70.2	4	-1E+10	1	-1E+10	1	-1E+10	1	-1E+10	1	-1E+10	1	-1E+10	1
4901784	122	C	11/06/2018	10:46	-133.005	43.024	0	162.20	0	8.1870	0	33.7700	8	26.283	0	160.849	0	196.2	4	68.0	4	-1E+10	1	-1E+10	1	-1E+10	1	-1E+10	1	-1E+10	1	-1E+10	1
4901784	122	C	11/06/2018	10:46	-133.005	43.024	0	164.80	0	8.2360	0	33.8310	8	26.323	0	163.427	0	190.7	4	66.3	4	-1E+10	1	-1E+10	1	-1E+10	1	-1E+10	1	-1E+10	1	-1E+10	1
4901784	122	C	11/06/2018	10:46	-133.005	43.024	0	167.40	0	8.2990	0	33.9120	8	26.378	0	166.004	0	186.0	4	64.8	4	-1E+10	1	-1E+10	1	-1E+10	1	-1E+10	1	-1E+10	1	-1E+10	1
4901784	122	C	11/06/2018	10:46	-133.005	43.024	0	170.00	0	8.3230	0	33.9590	8	26.411	0	168.581	0	182.9	4	63.7	4	-1E+10	1	-1E+10	1	-1E+10	1	-1E+10	1	-1E+10	1	-1E+10	1
4901784	122	C	11/06/2018	10:46	-133.005	43.024	0	172.80	0	8.3370	0	34.0000	8	26.441	0	171.357	0	179.9	4	62.7	4	-1E+10	1	-1E+10	1	-1E+10	1	-1E+10	1	-1E+10	1	-1E+10	1
4901784	122	C	11/06/2018	10:46	-133.005	43.024	0	174.50	0	8.3430	0	34.0240	8	26.459	0	173.042	0	178.0	4	62.1	4	-1E+10	1	-1E+10	1	-1E+10	1	-1E+10	1	-1E+10	1	-1E+10	1
4901784	122	C	11/06/2018	10:46	-133.005	43.024	0	177.20	0	8.3530	0	34.0560	8	26.483	0	175.718	0	175.1	4	61.1	4	-1E+10	1	-1E+10	1	-1E+10	1	-1E+10	1	-1E+10	1	-1E+10	1
4901784	122	C	11/06/2018	10:46	-133.005	43.024	0	180.00	0	8.3520	0	34.1060	8	26.522	0	178.494	0	172.5	4	60.2	4	-1E+10	1	-1E+10	1	-1E+10	1	-1E+10	1	-1E+10	1	-1E+10	1
4901784	122	C	11/06/2018	10:46	-133.005	43.024	0	181.80	0	8.3450	0	34.1350	8	26.546	0	180.278	0	171.5	4	59.8	4	-1E+10	1	-1E+10	1	-1E+10	1	-1E+10	1	-1E+10	1	-1E+10	1
4901784	122	C	11/06/2018	10:46	-133.005	43.024	0	184.70	0	8.3440	0	34.1460	8	26.555	0	183.152	0	169.4	4	59.1	4	-1E+10	1	-1E+10	1	-1E+10	1	-1E+10	1	-1E+10	1	-1E+10	1
4901784	122	C	11/06/2018	10:46	-133.005	43.024	0	187.60	0	8.3300	0	34.1660	8	26.572	0	186.027	0	167.3	4	58.4	4	-1E+10	1	-1E+10	1	-1E+10	1	-1E+10	1	-1E+10	1	-1E+10	1
4901784	122	C	11/06/2018	10:46	-133.005	43.024	0	189.50	0	8.3180	0	34.1750	8	26.581	0	187.910	0	166.0	4	57.9	4	-1E+10	1	-1E+10	1	-1E+10	1	-1E+10	1	-1E+10	1	-1E+10	1
4901784	122	C	11/06/2018	10:46	-133.005	43.024	0	192.40	0	8.2860	0	34.1920	8	26.600	0	190.784	0	164.6	4	57.4	4	-1E+10	1	-1E+10	1	-1E+10	1	-1E+10	1	-1E+10	1	-1E+10	1
4901784	122	C	11/06/2018	10:46	-133.005	43.024	0	195.30	0	8.2670	0	34.2000	8	26.609	0	193.658	0	163.7	4	57.1	4	-1E+10	1	-1E+10	1	-1E+10	1	-1E+10	1	-1E+10	1	-1E+10	1
4901784	122	C	11/06/2018	10:46	-133.005	43.024	0	197.20	0	8.2560	0	34.2030	8	26.613	0	195.542	0	163.1	4	56.8	4	-1E+10	1	-1E+10	1	-1E+10	1	-1E+10	1	-1E+10	1	-1E+10	1
4901784	122	C	11/06/2018	10:46	-133.005	43.024	0	200.20	0	8.2400	0	34.2080	8	26.619	0	198.515	0	162.1	4	56.5	4	-1E+10	1	-1E+10	1	-1E+10	1	-1E+10	1	-1E+10	1	-1E+10	1
4901784	122	C	11/06/2018	10:46	-133.005	43.024	0	203.40	0	8.2100	0	34.2170	8	26.631	0	201.686	0	161.2	4	56.1	4	-1E+10	1	-1E+10	1	-1E+10	1	-1E+10	1	-1E+10	1	-1E+10	1
4901784	122	C	11/06/2018	10:46	-133.005	43.024	0	204.80	0	8.1870	0	34.2220	8	26.638	0	203.074	0	160.8	4	56.0	4	-1E+10	1	-1E+10	1	-1E+10	1	-1E+10	1	-1E+10	1	-1E+10	1
4901784	122	C	11/06/2018	10:46	-133.005	43.024	0	207.30	0	8.1580	0	34.2250	8	26.645	0	205.552	0	160.2	4	55.7	4	-1E+10	1	-1E+10	1	-1E+10	1	-1E+10	1	-1E+10	1	-1E+10	1
4901784	122	C	11/06/2018	10:46	-133.005	43.024	0	209.70	0	8.1380	0	34.2290	8	26.651	0	207.930	0	159.7	4	55.5	4	-1E+10	1	-1E+10	1	-1E+10	1	-1E+10	1	-1E+10	1	-1E+10	1
4901784	122	C	11/06/2018	10:46	-133.005	43.024	0	213.00	0	8.1250	0	34.2300	8	26.654	0	211.201	0	158.9	4	55.2	4	-1E+10	1	-1E+10	1	-1E+10	1	-1E+10	1	-1E+10	1	-1E+10	1
4901784	122	C	11/06/2018	10:46	-133.005	43.024	0	215.40	0	8.0800	0	34.2370	8	26.666	0	213.579	0	157.8	4	54.8	4	-1E+10	1	-1E+10	1	-1E+10	1	-1E+10	1	-1E+10	1	-1E+10	1
4901784	122	C	11/06/2018	10:46	-133.005	43.024	0	217.80	0	8.0540	0	34.2360	8	26.669	0	215.958	0	156.7	4	54.4	4	-1E+10	1	-1E+10	1	-1E+10	1	-1E+10	1	-1E+10	1	-1E+10	1
4901784	122	C	11/06/2018	10:46	-133.005	43.024	0	220.20	0	7.9730	0	34.2430	8	26.687	0	218.336	0	155.1	4	53.7	4	-1E+10	1	-1E+10	1	-1E+10	1	-1E+10	1	-1E+10	1	-1E+10	1
4901784	122	C	11/06/2018	10:46	-133.005	43.024	0	222.70	0	7.9510	0	34.2400	8	26.688	0	220.813	0	153.9	4	53.3	4	-1E+10	1	-1E+10	1	-1E+10	1	-1E+10	1	-1E+10	1	-1E+10	1
4901784	122	C	11/06/2018	10:46	-133.005	43.024	0	225.20	0	7.8950	0	34.2450	8	26.700	0	223.291	0	152.3	4	52.7	4	-1E+10	1	-1E+10	1	-1E+10	1	-1E+10	1	-1E+10	1	-1E+10	1
4901784	122	C	11/06/2018	10:46	-133.005	43.024	0	227.70	0	7.8480	0	34.2400	8	26.703	0	225.768	0	151.1	4	52.2	4	-1E+10	1	-1E+10	1	-1E+10	1	-1E+10	1	-1E+10	1	-1E+10	1
4901784	122	C	11/06/2018	10:46	-133.005	43.024	0	230.30	0	7.7860	0	34.2420	8	26.714	0	228.345	0	149.9	4	51.7	4	-1E+10	1	-1E+10	1	-1E+10	1	-1E+10	1	-1E+10	1	-1E+10	1
4901784	122	C	11/06/2018	10:46	-133.005	43.024	0	232.80	0	7.7170	0	34.2430	8	26.725	0	230.822	0	149.0	4	51.3	4	-1E+10	1	-1E+10	1	-1E+10	1	-1E+10	1	-1E+10	1	-1E+10	1
4901784	122	C	11/06/2018	10:46	-133.005	43.024	0	235.40	0	7.6560	0	34.2480	8	26.737	0	233.399	0	148.0	4	50.9	4	-1E+10	1	-1E+10	1	-1E+10	1	-1E+10	1	-1E+10	1	-1E+10	1
4901784	122	C	11/06/2018	10:46	-133.005	43.024	0	237.10	0	7.6290	0	34.2450	8	26.739	0	235.083	0	147.6	4	50.8	4	-1E+10	1	-1E+10	1	-1E+10	1	-1E+10	1	-1E+10	1	-1E+10	1
4901784	122	C	11/06/2018	10:46	-133.005	43.024	0	239.70	0	7.5790	0	34.2460	8	26.747	0	237.660	0	146.6	4	50.3	4	-1E+10	1	-1E+10	1	-1E+10	1	-1E+10	1	-1E+10	1	-1E+10	1
4901784	122	C	11/06/2018	10:46	-133.005	43.024	0	242.30	0	7.5540	0	34.2450	8	26.750	0	240.236	0	146.3	4	50.2	4	-1E+10	1	-1E+10	1	-1E+10	1	-1E+10	1	-1E+10	1	-1E+10	1
4901784	122	C	11/06/2018	10:46	-133.005	43.024	0	245.00	0	7.5530	0	34.2450	8	26.750	0	242.911	0	145.9	4	50.1	4	-1E+10	1	-1E+10	1	-1E+10	1	-1E+10	1	-1E+10	1	-1E+10	1
4901784	122	C	11/06/2018	10:46	-133.005	43.024	0	247.50	0	7.5490	0	34.2450	8	26.750	0	245.389	0	145.1	4	49.8	4	-1E+10	1	-1E+10	1	-1E+10	1	-1E+10	1	-1E+10	1	-1E+10	1
4901784	122	C	11/06/2018	10:46	-133.005	43.024	0	250.10	0	7.5050	0	34.2440	8	26.756	0	247.965	0	143.9	4	49.3	4	-1E+10	1	-1E+10	1	-1E+10	1	-1E+10	1	-1E+10	1	-1E+10	1
4901784	122	C	11/06/2018	10:46	-133.005	43.024	0	252.70	0	7.4700	0	34.2440	8	26.761	0	250.541	0	142.5	4	48.8	4	-1E+10	1	-1E+10	1	-1E+10	1	-1E+10	1	-1E+10	1	-1E+10	1
4901784	122	C	11/06/2018	10:46	-133.005	43.024	0	254.50	0	7.4420	0	34.2450	8	26.766	0	252.325	0	141.4	4	48.4	4	-1E+10	1	-1E+10	1	-1E+10	1	-1E+10	1	-1E+10	1	-1E+10	1
4901784	122	C	11/06/2018	10:46	-133.005	43.024	0	257.30	0	7.3670	0	34.2430	8	26.775	0	255.099	0	140.3	4	47.9	4	-1E+10	1	-1E+10	1	-1E+10	1	-1E+10	1	-1E+10	1	-1E+10	1
4901784	122	C	11/06/2018	10:46	-133.005	43.024	0	259.90	0	7.3430	0	34.2410	8	26.777	0	257.675	0	139.3	4	47.6	4	-1E+10	1	-1E+10	1	-1E+10	1	-1E+10	1	-1E+10	1	-1E+10	1
4901784	122	C	11/06/2018	10:46	-133.005	43.024	0	262.70	0	7.3030	0	34.2420	8	26.783	0	260.449	0	138.4	4	47.2	4	-1E+10	1	-1E+10	1	-1E+10	1	-1E+10	1	-1E+10	1	-1E+10	1
4901784	122	C	11/06/2018	10:46	-133.005	43.024	0	265.50	0	7.2710	0	34.2410	8	26.787	0	263.224	0	137.4	4	46.8	4	-1E+10	1	-1E+10	1	-1E+10	1	-1E+10	1	-1E+10	1	-1E+10	1
4901784	122	C	11/06/2018	10:46	-133.005	43.024	0	267.30	0	7.2470	0	34.2410	8	26.790	0	265.007	0	136.7	4	46.6	4	-1E+10	1	-1E+10	1	-1E+10	1	-1E+10	1	-1E+10	1	-1E+10	1
4901784	122	C	11/06/2018	10:46	-133.005	43.024	0	270.10	0	7.2210	0	34.2390	8	26.792	0	267.781	0	135.6	4	46.2	4	-1E+10	1	-1E+10	1	-1E+10	1	-1E+10	1	-1E+10	1	-1E+10	1
4901784	122	C	11/06/2018	10:46	-133.005	43.024	0	272.90	0	7.1390	0	34.2400	8	26.805	0	270.555	0	134.6	4	45.8	4	-1E+10	1	-1E+10	1	-1E+10	1	-1E+10	1	-1E+10	1	-1E+10	1
4901784	122	C	11/06/2018	10:46	-133.005	43.024	0	274.80	0	7.1360	0	34.2400	8	26.805	0	272.438	0	134.1	4	45.6	4	-1E+10	1	-1E+10	1	-1E+10	1	-1E+10	1	-1E+10	1	-1E+10	1
4901784	122	C	11/06/2018	10:46	-133.005	43.024	0	277.50	0	7.1230	0	34.2390	8	26.806	0	275.113	0	132.9	4	45.2	4	-1E+10	1	-1E+10	1	-1E+10	1	-1E+10	1	-1E+10	1	-1E+10	1
4901784	122	C	11/06/2018	10:46	-133.005	43.024	0	280.30	0	7.0510	0	34.2410	8	26.818	0	277.887	0	131.8	4	44.7	4	-1E+10	1	-1E+10	1	-1E+10	1	-1E+10	1	-1E+10	1	-1E+10	1
4901784	122	C	11/06/2018	10:46	-133.005	43.024	0	282.20	0	7.0390	0	34.2380	8	26.817	0	279.769	0	131.4	4	44.6	4	-1E+10	1	-1E+10	1	-1E+10	1	-1E+10	1	-1E+10	1	-1E+10	1
4901784	122	C	11/06/2018	10:46	-133.005	43.024	0	285.00	0	7.0190	0	34.2370	8	26.819	0	282.543	0	130.5	4	44.2	4	-1E+10	1	-1E+10	1	-1E+10	1	-1E+10	1	-1E+10	1	-1E+10	1
4901784	122	C	11/06/2018	10:46	-133.005	43.024	0	287.80	0	6.9660	0	34.2360	8	26.825	0	285.317	0	129.7	4	43.9	4	-1E+10	1	-1E+10	1	-1E+10	1	-1E+10	1	-1E+10	1	-1E+10	1
4901784	122	C	11/06/2018	10:46	-133.005	43.024	0	289.70	0	6.9490	0	34.2360	8	26.828	0	287.199	0	129.2	4	43.7	4	-1E+10	1	-1E+10	1	-1E+10	1	-1E+10	1	-1E+10	1	-1E+10	1
4901784	122	C	11/06/2018	10:46	-133.005	43.024	0	292.50	0	6.8960	0	34.2360	8	26.835	0	289.973	0	128.5	4	43.4	4	-1E+10	1	-1E+10	1	-1E+10	1	-1E+10	1	-1E+10	1	-1E+10	1
4901784	122	C	11/06/2018	10:46	-133.005	43.024	0	295.30	0	6.8620	0	34.2350	8	26.839	0	292.747	0	127.7	4	43.1	4	-1E+10	1	-1E+10	1	-1E+10	1	-1E+10	1	-1E+10	1	-1E+10	1
4901784	122	C	11/06/2018	10:46	-133.005	43.024	0	297.20	0	6.8360	0	34.2340	8	26.842	0	294.629	0	126.8	4	42.8	4	-1E+10	1	-1E+10	1	-1E+10	1	-1E+10	1	-1E+10	1	-1E+10	1
4901784	122	C	11/06/2018	10:46	-133.005	43.024	0	300.00	0	6.7760	0	34.2340	8	26.850	0	297.403	0	125.6	4	42.3	4	-1E+10	1	-1E+10	1	-1E+10	1	-1E+10	1	-1E+10	1	-1E+10	1
4901784	122	C	11/06/2018	10:46	-133.005	43.024	0	302.80	0	6.7180	0	34.2330	8	26.857	0	300.177	0	124.6	4	41.9	4	-1E+10	1	-1E+10	1	-1E+10	1	-1E+10	1	-1E+10	1	-1E+10	1
4901784	122	C	11/06/2018	10:46	-133.005	43.024	0	304.70	0	6.6920	0	34.2320	8	26.860	0	302.059	0	123.8	4	41.7	4	-1E+10	1	-1E+10	1	-1E+10	1	-1E+10	1	-1E+10	1	-1E+10	1
4901784	122	C	11/06/2018	10:46	-133.005	43.024	0	307.60	0	6.6320	0	34.2320	8	26.868	0	304.932	0	122.9	4	41.3	4	-1E+10	1	-1E+10	1	-1E+10	1	-1E+10	1	-1E+10	1	-1E+10	1
4901784	122	C	11/06/2018	10:46	-133.005	43.024	0	310.40	0	6.5710	0	34.2320	8	26.876	0	307.705	0	121.9	4	40.9	4	-1E+10	1	-1E+10	1	-1E+10	1	-1E+10	1	-1E+10	1	-1E+10	1
4901784	122	C	11/06/2018	10:46	-133.005	43.024	0	312.30	0	6.5440	0	34.2310	8	26.878	0	309.587	0	121.3	4	40.7	4	-1E+10	1	-1E+10	1	-1E+10	1	-1E+10	1	-1E+10	1	-1E+10	1
4901784	122	C	11/06/2018	10:46	-133.005	43.024	0	315.10	0	6.5020	0	34.2290	8	26.882	0	312.361	0	120.1	4	40.2	4	-1E+10	1	-1E+10	1	-1E+10	1	-1E+10	1	-1E+10	1	-1E+10	1
4901784	122	C	11/06/2018	10:46	-133.005	43.024	0	318.00	0	6.4530	0	34.2280	8	26.888	0	315.234	0	118.6	4	39.7	4	-1E+10	1	-1E+10	1	-1E+10	1	-1E+10	1	-1E+10	1	-1E+10	1
4901784	122	C	11/06/2018	10:46	-133.005	43.024	0	319.90	0	6.4050	0	34.2270	8	26.894	0	317.116	0	117.4	4	39.3	4	-1E+10	1	-1E+10	1	-1E+10	1	-1E+10	1	-1E+10	1	-1E+10	1
4901784	122	C	11/06/2018	10:46	-133.005	43.024	0	321.80	0	6.3480	0	34.2270	8	26.901	0	318.998	0	116.5	4	38.9	4	-1E+10	1	-1E+10	1	-1E+10	1	-1E+10	1	-1E+10	1	-1E+10	1
4901784	122	C	11/06/2018	10:46	-133.005	43.024	0	324.70	0	6.2760	0	34.2270	8	26.910	0	321.870	0	115.3	4	38.4	4	-1E+10	1	-1E+10	1	-1E+10	1	-1E+10	1	-1E+10	1	-1E+10	1
4901784	122	C	11/06/2018	10:46	-133.005	43.024	0	327.60	0	6.2080	0	34.2270	8	26.919	0	324.743	0	114.2	4	38.0	4	-1E+10	1	-1E+10	1	-1E+10	1	-1E+10	1	-1E+10	1	-1E+10	1
4901784	122	C	11/06/2018	10:46	-133.005	43.024	0	329.40	0	6.2060	0	34.2270	8	26.919	0	326.525	0	113.4	4	37.7	4	-1E+10	1	-1E+10	1	-1E+10	1	-1E+10	1	-1E+10	1	-1E+10	1
4901784	122	C	11/06/2018	10:46	-133.005	43.024	0	332.30	0	6.1940	0	34.2260	8	26.920	0	329.398	0	111.8	4	37.2	4	-1E+10	1	-1E+10	1	-1E+10	1	-1E+10	1	-1E+10	1	-1E+10	1
4901784	122	C	11/06/2018	10:46	-133.005	43.024	0	335.10	0	6.1530	0	34.2250	8	26.925	0	332.171	0	110.3	4	36.7	4	-1E+10	1	-1E+10	1	-1E+10	1	-1E+10	1	-1E+10	1	-1E+10	1
4901784	122	C	11/06/2018	10:46	-133.005	43.024	0	337.00	0	6.1060	0	34.2270	8	26.932	0	334.053	0	109.5	4	36.3	4	-1E+10	1	-1E+10	1	-1E+10	1	-1E+10	1	-1E+10	1	-1E+10	1
4901784	122	C	11/06/2018	10:46	-133.005	43.024	0	339.80	0	6.0830	0	34.2260	8	26.934	0	336.826	0	108.4	4	36.0	4	-1E+10	1	-1E+10	1	-1E+10	1	-1E+10	1	-1E+10	1	-1E+10	1
4901784	122	C	11/06/2018	10:46	-133.005	43.024	0	342.70	0	6.0440	0	34.2260	8	26.939	0	339.698	0	107.4	4	35.6	4	-1E+10	1	-1E+10	1	-1E+10	1	-1E+10	1	-1E+10	1	-1E+10	1
4901784	122	C	11/06/2018	10:46	-133.005	43.024	0	344.50	0	6.0230	0	34.2260	8	26.942	0	341.481	0	106.8	4	35.4	4	-1E+10	1	-1E+10	1	-1E+10	1	-1E+10	1	-1E+10	1	-1E+10	1
4901784	122	C	11/06/2018	10:46	-133.005	43.024	0	347.40	0	5.9820	0	34.2250	8	26.946	0	344.353	0	105.7	4	35.0	4	-1E+10	1	-1E+10	1	-1E+10	1	-1E+10	1	-1E+10	1	-1E+10	1
4901784	122	C	11/06/2018	10:46	-133.005	43.024	0	350.20	0	5.9520	0	34.2240	8	26.949	0	347.126	0	104.6	4	34.6	4	-1E+10	1	-1E+10	1	-1E+10	1	-1E+10	1	-1E+10	1	-1E+10	1
4901784	122	C	11/06/2018	10:46	-133.005	43.024	0	352.10	0	5.9350	0	34.2240	8	26.952	0	349.008	0	103.6	4	34.3	4	-1E+10	1	-1E+10	1	-1E+10	1	-1E+10	1	-1E+10	1	-1E+10	1
4901784	122	C	11/06/2018	10:46	-133.005	43.024	0	354.80	0	5.8990	0	34.2230	8	26.955	0	351.682	0	101.7	4	33.6	4	-1E+10	1	-1E+10	1	-1E+10	1	-1E+10	1	-1E+10	1	-1E+10	1
4901784	122	C	11/06/2018	10:46	-133.005	43.024	0	357.60	0	5.8500	0	34.2260	8	26.964	0	354.455	0	99.4	4	32.8	4	-1E+10	1	-1E+10	1	-1E+10	1	-1E+10	1	-1E+10	1	-1E+10	1
4901784	122	C	11/06/2018	10:46	-133.005	43.024	0	359.40	0	5.8120	0	34.2240	8	26.967	0	356.238	0	98.3	4	32.4	4	-1E+10	1	-1E+10	1	-1E+10	1	-1E+10	1	-1E+10	1	-1E+10	1
4901784	122	C	11/06/2018	10:46	-133.005	43.024	0	362.20	0	5.7650	0	34.2270	8	26.975	0	359.011	0	96.9	4	31.9	4	-1E+10	1	-1E+10	1	-1E+10	1	-1E+10	1	-1E+10	1	-1E+10	1
4901784	122	C	11/06/2018	10:46	-133.005	43.024	0	365.00	0	5.7300	0	34.2280	8	26.980	0	361.784	0	96.0	4	31.6	4	-1E+10	1	-1E+10	1	-1E+10	1	-1E+10	1	-1E+10	1	-1E+10	1
4901784	122	C	11/06/2018	10:46	-133.005	43.024	0	367.80	0	5.7080	0	34.2280	8	26.983	0	364.557	0	95.1	4	31.3	4	-1E+10	1	-1E+10	1	-1E+10	1	-1E+10	1	-1E+10	1	-1E+10	1
4901784	122	C	11/06/2018	10:46	-133.005	43.024	0	370.70	0	5.6900	0	34.2280	8	26.985	0	367.428	0	94.3	4	31.0	4	-1E+10	1	-1E+10	1	-1E+10	1	-1E+10	1	-1E+10	1	-1E+10	1
4901784	122	C	11/06/2018	10:46	-133.005	43.024	0	372.50	0	5.6860	0	34.2270	8	26.985	0	369.211	0	93.7	4	30.8	4	-1E+10	1	-1E+10	1	-1E+10	1	-1E+10	1	-1E+10	1	-1E+10	1
4901784	122	C	11/06/2018	10:46	-133.005	43.024	0	374.40	0	5.6810	0	34.2270	8	26.986	0	371.092	0	92.9	4	30.5	4	-1E+10	1	-1E+10	1	-1E+10	1	-1E+10	1	-1E+10	1	-1E+10	1
4901784	122	C	11/06/2018	10:46	-133.005	43.024	0	377.30	0	5.6440	0	34.2270	8	26.990	0	373.964	0	91.6	4	30.1	4	-1E+10	1	-1E+10	1	-1E+10	1	-1E+10	1	-1E+10	1	-1E+10	1
4901784	122	C	11/06/2018	10:46	-133.005	43.024	0	380.00	0	5.5870	0	34.2290	8	26.999	0	376.638	0	90.5	4	29.7	4	-1E+10	1	-1E+10	1	-1E+10	1	-1E+10	1	-1E+10	1	-1E+10	1
4901784	122	C	11/06/2018	10:46	-133.005	43.024	0	382.00	0	5.5810	0	34.2290	8	26.999	0	378.618	0	90.0	4	29.5	4	-1E+10	1	-1E+10	1	-1E+10	1	-1E+10	1	-1E+10	1	-1E+10	1
4901784	122	C	11/06/2018	10:46	-133.005	43.024	0	384.80	0	5.5520	0	34.2310	8	27.004	0	381.391	0	89.1	4	29.2	4	-1E+10	1	-1E+10	1	-1E+10	1	-1E+10	1	-1E+10	1	-1E+10	1
4901784	122	C	11/06/2018	10:46	-133.005	43.024	0	387.60	0	5.5450	0	34.2300	8	27.005	0	384.164	0	88.3	4	28.9	4	-1E+10	1	-1E+10	1	-1E+10	1	-1E+10	1	-1E+10	1	-1E+10	1
4901784	122	C	11/06/2018	10:46	-133.005	43.024	0	389.40	0	5.5300	0	34.2310	8	27.007	0	385.946	0	87.4	4	28.6	4	-1E+10	1	-1E+10	1	-1E+10	1	-1E+10	1	-1E+10	1	-1E+10	1
4901784	122	C	11/06/2018	10:46	-133.005	43.024	0	392.30	0	5.5050	0	34.2310	8	27.010	0	388.818	0	86.2	4	28.2	4	-1E+10	1	-1E+10	1	-1E+10	1	-1E+10	1	-1E+10	1	-1E+10	1
4901784	122	C	11/06/2018	10:46	-133.005	43.024	0	395.20	0	5.4590	0	34.2320	8	27.016	0	391.689	0	84.9	4	27.8	4	-1E+10	1	-1E+10	1	-1E+10	1	-1E+10	1	-1E+10	1	-1E+10	1
4901784	122	C	11/06/2018	10:46	-133.005	43.024	0	397.20	0	5.4410	0	34.2320	8	27.019	0	393.669	0	84.0	4	27.4	4	-1E+10	1	-1E+10	1	-1E+10	1	-1E+10	1	-1E+10	1	-1E+10	1
4901784	122	C	11/06/2018	10:46	-133.005	43.024	0	400.00	0	5.3880	0	34.2350	8	27.027	0	396.442	0	82.8	4	27.0	4	-1E+10	1	-1E+10	1	-1E+10	1	-1E+10	1	-1E+10	1	-1E+10	1
4901784	122	C	11/06/2018	10:46	-133.005	43.024	0	402.90	0	5.3610	0	34.2370	8	27.032	0	399.313	0	81.9	4	26.7	4	-1E+10	1	-1E+10	1	-1E+10	1	-1E+10	1	-1E+10	1	-1E+10	1
4901784	122	C	11/06/2018	10:46	-133.005	43.024	0	404.80	0	5.3360	0	34.2380	8	27.036	0	401.194	0	81.4	4	26.6	4	-1E+10	1	-1E+10	1	-1E+10	1	-1E+10	1	-1E+10	1	-1E+10	1
4901784	122	C	11/06/2018	10:46	-133.005	43.024	0	407.60	0	5.3130	0	34.2400	8	27.040	0	403.967	0	80.6	4	26.3	4	-1E+10	1	-1E+10	1	-1E+10	1	-1E+10	1	-1E+10	1	-1E+10	1
4901784	122	C	11/06/2018	10:46	-133.005	43.024	0	410.40	0	5.2940	0	34.2400	8	27.043	0	406.739	0	79.8	4	26.0	4	-1E+10	1	-1E+10	1	-1E+10	1	-1E+10	1	-1E+10	1	-1E+10	1
4901784	122	C	11/06/2018	10:46	-133.005	43.024	0	412.30	0	5.2880	0	34.2410	8	27.044	0	408.620	0	79.2	4	25.8	4	-1E+10	1	-1E+10	1	-1E+10	1	-1E+10	1	-1E+10	1	-1E+10	1
4901784	122	C	11/06/2018	10:46	-133.005	43.024	0	415.20	0	5.2690	0	34.2420	8	27.047	0	411.492	0	78.1	4	25.4	4	-1E+10	1	-1E+10	1	-1E+10	1	-1E+10	1	-1E+10	1	-1E+10	1
4901784	122	C	11/06/2018	10:46	-133.005	43.024	0	418.10	0	5.2400	0	34.2440	8	27.052	0	414.363	0	76.9	4	25.0	4	-1E+10	1	-1E+10	1	-1E+10	1	-1E+10	1	-1E+10	1	-1E+10	1
4901784	122	C	11/06/2018	10:46	-133.005	43.024	0	420.10	0	5.2060	0	34.2480	8	27.059	0	416.343	0	76.1	4	24.7	4	-1E+10	1	-1E+10	1	-1E+10	1	-1E+10	1	-1E+10	1	-1E+10	1
4901784	122	C	11/06/2018	10:46	-133.005	43.024	0	422.00	0	5.1890	0	34.2500	8	27.063	0	418.224	0	75.7	4	24.6	4	-1E+10	1	-1E+10	1	-1E+10	1	-1E+10	1	-1E+10	1	-1E+10	1
4901784	122	C	11/06/2018	10:46	-133.005	43.024	0	424.60	0	5.1790	0	34.2510	8	27.065	0	420.798	0	75.2	4	24.4	4	-1E+10	1	-1E+10	1	-1E+10	1	-1E+10	1	-1E+10	1	-1E+10	1
4901784	122	C	11/06/2018	10:46	-133.005	43.024	0	427.40	0	5.1700	0	34.2520	8	27.067	0	423.570	0	74.4	4	24.2	4	-1E+10	1	-1E+10	1	-1E+10	1	-1E+10	1	-1E+10	1	-1E+10	1
4901784	122	C	11/06/2018	10:46	-133.005	43.024	0	429.90	0	5.1390	0	34.2550	8	27.073	0	426.045	0	73.5	4	23.9	4	-1E+10	1	-1E+10	1	-1E+10	1	-1E+10	1	-1E+10	1	-1E+10	1
4901784	122	C	11/06/2018	10:46	-133.005	43.024	0	432.40	0	5.1260	0	34.2550	8	27.074	0	428.520	0	72.9	4	23.7	4	-1E+10	1	-1E+10	1	-1E+10	1	-1E+10	1	-1E+10	1	-1E+10	1
4901784	122	C	11/06/2018	10:46	-133.005	43.024	0	434.80	0	5.1080	0	34.2570	8	27.078	0	430.896	0	72.1	4	23.4	4	-1E+10	1	-1E+10	1	-1E+10	1	-1E+10	1	-1E+10	1	-1E+10	1
4901784	122	C	11/06/2018	10:46	-133.005	43.024	0	437.30	0	5.0930	0	34.2600	8	27.082	0	433.371	0	71.4	4	23.1	4	-1E+10	1	-1E+10	1	-1E+10	1	-1E+10	1	-1E+10	1	-1E+10	1
4901784	122	C	11/06/2018	10:46	-133.005	43.024	0	439.70	0	5.0760	0	34.2610	8	27.085	0	435.747	0	70.5	4	22.9	4	-1E+10	1	-1E+10	1	-1E+10	1	-1E+10	1	-1E+10	1	-1E+10	1
4901784	122	C	11/06/2018	10:46	-133.005	43.024	0	442.20	0	5.0570	0	34.2640	8	27.089	0	438.222	0	69.8	4	22.6	4	-1E+10	1	-1E+10	1	-1E+10	1	-1E+10	1	-1E+10	1	-1E+10	1
4901784	122	C	11/06/2018	10:46	-133.005	43.024	0	444.70	0	5.0420	0	34.2660	8	27.093	0	440.697	0	69.0	4	22.3	4	-1E+10	1	-1E+10	1	-1E+10	1	-1E+10	1	-1E+10	1	-1E+10	1
4901784	122	C	11/06/2018	10:46	-133.005	43.024	0	447.20	0	5.0280	0	34.2680	8	27.096	0	443.172	0	68.1	4	22.0	4	-1E+10	1	-1E+10	1	-1E+10	1	-1E+10	1	-1E+10	1	-1E+10	1
4901784	122	C	11/06/2018	10:46	-133.005	43.024	0	449.60	0	5.0240	0	34.2680	8	27.096	0	445.547	0	66.9	4	21.7	4	-1E+10	1	-1E+10	1	-1E+10	1	-1E+10	1	-1E+10	1	-1E+10	1
4901784	122	C	11/06/2018	10:46	-133.005	43.024	0	452.10	0	5.0000	0	34.2710	8	27.102	0	448.022	0	65.2	4	21.1	4	-1E+10	1	-1E+10	1	-1E+10	1	-1E+10	1	-1E+10	1	-1E+10	1
4901784	122	C	11/06/2018	10:46	-133.005	43.024	0	454.60	0	4.9510	0	34.2800	8	27.114	0	450.497	0	63.7	4	20.6	4	-1E+10	1	-1E+10	1	-1E+10	1	-1E+10	1	-1E+10	1	-1E+10	1
4901784	122	C	11/06/2018	10:46	-133.005	43.024	0	457.20	0	4.9440	0	34.2810	8	27.116	0	453.071	0	62.8	4	20.3	4	-1E+10	1	-1E+10	1	-1E+10	1	-1E+10	1	-1E+10	1	-1E+10	1
4901784	122	C	11/06/2018	10:46	-133.005	43.024	0	459.80	0	4.9360	0	34.2820	8	27.118	0	455.644	0	61.7	4	19.9	4	-1E+10	1	-1E+10	1	-1E+10	1	-1E+10	1	-1E+10	1	-1E+10	1
4901784	122	C	11/06/2018	10:46	-133.005	43.024	0	462.40	0	4.9260	0	34.2840	8	27.120	0	458.218	0	60.4	4	19.5	4	-1E+10	1	-1E+10	1	-1E+10	1	-1E+10	1	-1E+10	1	-1E+10	1
4901784	122	C	11/06/2018	10:46	-133.005	43.024	0	465.00	0	4.9170	0	34.2850	8	27.122	0	460.791	0	58.9	4	19.0	4	-1E+10	1	-1E+10	1	-1E+10	1	-1E+10	1	-1E+10	1	-1E+10	1
4901784	122	C	11/06/2018	10:46	-133.005	43.024	0	467.70	0	4.8960	0	34.2910	8	27.129	0	463.464	0	57.7	4	18.6	4	-1E+10	1	-1E+10	1	-1E+10	1	-1E+10	1	-1E+10	1	-1E+10	1
4901784	122	C	11/06/2018	10:46	-133.005	43.024	0	470.30	0	4.8760	0	34.2950	8	27.135	0	466.038	0	56.9	4	18.4	4	-1E+10	1	-1E+10	1	-1E+10	1	-1E+10	1	-1E+10	1	-1E+10	1
4901784	122	C	11/06/2018	10:46	-133.005	43.024	0	472.90	0	4.8660	0	34.2970	8	27.137	0	468.611	0	56.2	4	18.1	4	-1E+10	1	-1E+10	1	-1E+10	1	-1E+10	1	-1E+10	1	-1E+10	1
4901784	122	C	11/06/2018	10:46	-133.005	43.024	0	475.40	0	4.8480	0	34.3010	8	27.143	0	471.086	0	55.4	4	17.9	4	-1E+10	1	-1E+10	1	-1E+10	1	-1E+10	1	-1E+10	1	-1E+10	1
4901784	122	C	11/06/2018	10:46	-133.005	43.024	0	477.10	0	4.8460	0	34.3000	8	27.142	0	472.768	0	55.1	4	17.8	4	-1E+10	1	-1E+10	1	-1E+10	1	-1E+10	1	-1E+10	1	-1E+10	1
4901784	122	C	11/06/2018	10:46	-133.005	43.024	0	479.70	0	4.8410	0	34.3020	8	27.144	0	475.342	0	54.6	4	17.6	4	-1E+10	1	-1E+10	1	-1E+10	1	-1E+10	1	-1E+10	1	-1E+10	1
4901784	122	C	11/06/2018	10:46	-133.005	43.024	0	482.20	0	4.8260	0	34.3040	8	27.148	0	477.816	0	54.1	4	17.4	4	-1E+10	1	-1E+10	1	-1E+10	1	-1E+10	1	-1E+10	1	-1E+10	1
4901784	122	C	11/06/2018	10:46	-133.005	43.024	0	484.80	0	4.8230	0	34.3050	8	27.149	0	480.389	0	53.6	4	17.3	4	-1E+10	1	-1E+10	1	-1E+10	1	-1E+10	1	-1E+10	1	-1E+10	1
4901784	122	C	11/06/2018	10:46	-133.005	43.024	0	487.40	0	4.8140	0	34.3060	8	27.151	0	482.963	0	52.9	4	17.0	4	-1E+10	1	-1E+10	1	-1E+10	1	-1E+10	1	-1E+10	1	-1E+10	1
4901784	122	C	11/06/2018	10:46	-133.005	43.024	0	490.00	0	4.8000	0	34.3090	8	27.155	0	485.536	0	52.1	4	16.8	4	-1E+10	1	-1E+10	1	-1E+10	1	-1E+10	1	-1E+10	1	-1E+10	1
4901784	122	C	11/06/2018	10:46	-133.005	43.024	0	492.60	0	4.7900	0	34.3090	8	27.156	0	488.109	0	51.0	4	16.4	4	-1E+10	1	-1E+10	1	-1E+10	1	-1E+10	1	-1E+10	1	-1E+10	1
4901784	122	C	11/06/2018	10:46	-133.005	43.024	0	495.30	0	4.7600	0	34.3180	8	27.166	0	490.781	0	49.8	4	16.0	4	-1E+10	1	-1E+10	1	-1E+10	1	-1E+10	1	-1E+10	1	-1E+10	1
4901784	122	C	11/06/2018	10:46	-133.005	43.024	0	497.80	0	4.7460	0	34.3210	8	27.170	0	493.256	0	48.8	4	15.7	4	-1E+10	1	-1E+10	1	-1E+10	1	-1E+10	1	-1E+10	1	-1E+10	1
4901784	122	C	11/06/2018	10:46	-133.005	43.024	0	499.60	0	4.7330	0	34.3250	8	27.175	0	495.037	0	48.3	4	15.5	4	-1E+10	1	-1E+10	1	-1E+10	1	-1E+10	1	-1E+10	1	-1E+10	1
4901784	122	C	11/06/2018	10:46	-133.005	43.024	0	504.80	0	4.7130	0	34.3280	8	27.179	0	500.183	0	47.2	4	15.2	4	-1E+10	1	-1E+10	1	-1E+10	1	-1E+10	1	-1E+10	1	-1E+10	1
4901784	122	C	11/06/2018	10:46	-133.005	43.024	0	510.20	0	4.6820	0	34.3350	8	27.188	0	505.527	0	45.8	4	14.7	4	-1E+10	1	-1E+10	1	-1E+10	1	-1E+10	1	-1E+10	1	-1E+10	1
4901784	122	C	11/06/2018	10:46	-133.005	43.024	0	515.60	0	4.6700	0	34.3390	8	27.193	0	510.871	0	44.9	4	14.4	4	-1E+10	1	-1E+10	1	-1E+10	1	-1E+10	1	-1E+10	1	-1E+10	1
4901784	122	C	11/06/2018	10:46	-133.005	43.024	0	520.10	0	4.6650	0	34.3400	8	27.194	0	515.324	0	44.3	4	14.2	4	-1E+10	1	-1E+10	1	-1E+10	1	-1E+10	1	-1E+10	1	-1E+10	1
4901784	122	C	11/06/2018	10:46	-133.005	43.024	0	524.60	0	4.6540	0	34.3420	8	27.197	0	519.778	0	43.5	4	14.0	4	-1E+10	1	-1E+10	1	-1E+10	1	-1E+10	1	-1E+10	1	-1E+10	1
4901784	122	C	11/06/2018	10:46	-133.005	43.024	0	530.00	0	4.6320	0	34.3470	8	27.204	0	525.121	0	42.3	4	13.6	4	-1E+10	1	-1E+10	1	-1E+10	1	-1E+10	1	-1E+10	1	-1E+10	1
4901784	122	C	11/06/2018	10:46	-133.005	43.024	0	535.50	0	4.6060	0	34.3530	8	27.211	0	530.563	0	41.2	4	13.2	4	-1E+10	1	-1E+10	1	-1E+10	1	-1E+10	1	-1E+10	1	-1E+10	1
4901784	122	C	11/06/2018	10:46	-133.005	43.024	0	540.10	0	4.5890	0	34.3560	8	27.216	0	535.115	0	40.6	4	13.0	4	-1E+10	1	-1E+10	1	-1E+10	1	-1E+10	1	-1E+10	1	-1E+10	1
4901784	122	C	11/06/2018	10:46	-133.005	43.024	0	544.70	0	4.5760	0	34.3550	8	27.216	0	539.667	0	39.8	4	12.7	4	-1E+10	1	-1E+10	1	-1E+10	1	-1E+10	1	-1E+10	1	-1E+10	1
4901784	122	C	11/06/2018	10:46	-133.005	43.024	0	550.10	0	4.5420	0	34.3610	8	27.225	0	545.010	0	37.8	4	12.1	4	-1E+10	1	-1E+10	1	-1E+10	1	-1E+10	1	-1E+10	1	-1E+10	1
4901784	122	C	11/06/2018	10:46	-133.005	43.024	0	555.50	0	4.5100	0	34.3700	8	27.236	0	550.353	0	36.3	4	11.6	4	-1E+10	1	-1E+10	1	-1E+10	1	-1E+10	1	-1E+10	1	-1E+10	1
4901784	122	C	11/06/2018	10:46	-133.005	43.024	0	560.20	0	4.5030	0	34.3720	8	27.238	0	555.003	0	35.2	4	11.3	4	-1E+10	1	-1E+10	1	-1E+10	1	-1E+10	1	-1E+10	1	-1E+10	1
4901784	122	C	11/06/2018	10:46	-133.005	43.024	0	564.80	0	4.4880	0	34.3780	8	27.244	0	559.554	0	34.0	4	10.9	4	-1E+10	1	-1E+10	1	-1E+10	1	-1E+10	1	-1E+10	1	-1E+10	1
4901784	122	C	11/06/2018	10:46	-133.005	43.024	0	570.40	0	4.4730	0	34.3840	8	27.251	0	565.094	0	32.8	4	10.5	4	-1E+10	1	-1E+10	1	-1E+10	1	-1E+10	1	-1E+10	1	-1E+10	1
4901784	122	C	11/06/2018	10:46	-133.005	43.024	0	575.00	0	4.4670	0	34.3870	8	27.254	0	569.645	0	32.0	4	10.2	4	-1E+10	1	-1E+10	1	-1E+10	1	-1E+10	1	-1E+10	1	-1E+10	1
4901784	122	C	11/06/2018	10:46	-133.005	43.024	0	579.70	0	4.4520	0	34.3910	8	27.259	0	574.295	0	31.0	4	9.9	4	-1E+10	1	-1E+10	1	-1E+10	1	-1E+10	1	-1E+10	1	-1E+10	1
4901784	122	C	11/06/2018	10:46	-133.005	43.024	0	585.40	0	4.4340	0	34.3970	8	27.265	0	579.934	0	29.9	4	9.6	4	-1E+10	1	-1E+10	1	-1E+10	1	-1E+10	1	-1E+10	1	-1E+10	1
4901784	122	C	11/06/2018	10:46	-133.005	43.024	0	590.00	0	4.4160	0	34.4010	8	27.271	0	584.485	0	29.4	4	9.4	4	-1E+10	1	-1E+10	1	-1E+10	1	-1E+10	1	-1E+10	1	-1E+10	1
4901784	122	C	11/06/2018	10:46	-133.005	43.024	0	594.70	0	4.4160	0	34.4010	8	27.271	0	589.134	0	28.8	4	9.2	4	-1E+10	1	-1E+10	1	-1E+10	1	-1E+10	1	-1E+10	1	-1E+10	1
4901784	122	C	11/06/2018	10:46	-133.005	43.024	0	600.30	0	4.3950	0	34.4070	8	27.278	0	594.673	0	27.5	4	8.8	4	-1E+10	1	-1E+10	1	-1E+10	1	-1E+10	1	-1E+10	1	-1E+10	1
4901784	122	C	11/06/2018	10:46	-133.005	43.024	0	605.00	0	4.3670	0	34.4150	8	27.287	0	599.323	0	26.6	4	8.5	4	-1E+10	1	-1E+10	1	-1E+10	1	-1E+10	1	-1E+10	1	-1E+10	1
4901784	122	C	11/06/2018	10:46	-133.005	43.024	0	609.60	0	4.3610	0	34.4180	8	27.290	0	603.873	0	26.0	4	8.3	4	-1E+10	1	-1E+10	1	-1E+10	1	-1E+10	1	-1E+10	1	-1E+10	1
4901784	122	C	11/06/2018	10:46	-133.005	43.024	0	615.40	0	4.3520	0	34.4220	8	27.294	0	609.610	0	25.4	4	8.1	4	-1E+10	1	-1E+10	1	-1E+10	1	-1E+10	1	-1E+10	1	-1E+10	1
4901784	122	C	11/06/2018	10:46	-133.005	43.024	0	619.60	0	4.3450	0	34.4250	8	27.297	0	613.764	0	24.8	4	7.9	4	-1E+10	1	-1E+10	1	-1E+10	1	-1E+10	1	-1E+10	1	-1E+10	1
4901784	122	C	11/06/2018	10:46	-133.005	43.024	0	624.50	0	4.3350	0	34.4300	8	27.303	0	618.611	0	23.9	4	7.6	4	-1E+10	1	-1E+10	1	-1E+10	1	-1E+10	1	-1E+10	1	-1E+10	1
4901784	122	C	11/06/2018	10:46	-133.005	43.024	0	629.20	0	4.3230	0	34.4350	8	27.308	0	623.259	0	23.2	4	7.4	4	-1E+10	1	-1E+10	1	-1E+10	1	-1E+10	1	-1E+10	1	-1E+10	1
4901784	122	C	11/06/2018	10:46	-133.005	43.024	0	635.00	0	4.3060	0	34.4410	8	27.314	0	628.996	0	22.5	4	7.2	4	-1E+10	1	-1E+10	1	-1E+10	1	-1E+10	1	-1E+10	1	-1E+10	1
4901784	122	C	11/06/2018	10:46	-133.005	43.024	0	640.80	0	4.2960	0	34.4450	8	27.319	0	634.732	0	21.8	4	6.9	4	-1E+10	1	-1E+10	1	-1E+10	1	-1E+10	1	-1E+10	1	-1E+10	1
4901784	122	C	11/06/2018	10:46	-133.005	43.024	0	645.70	0	4.2770	0	34.4500	8	27.325	0	639.578	0	21.0	4	6.7	4	-1E+10	1	-1E+10	1	-1E+10	1	-1E+10	1	-1E+10	1	-1E+10	1
4901784	122	C	11/06/2018	10:46	-133.005	43.024	0	650.70	0	4.2530	0	34.4580	8	27.334	0	644.523	0	20.3	4	6.5	4	-1E+10	1	-1E+10	1	-1E+10	1	-1E+10	1	-1E+10	1	-1E+10	1
4901784	122	C	11/06/2018	10:46	-133.005	43.024	0	655.00	0	4.2400	0	34.4630	8	27.339	0	648.776	0	20.1	4	6.4	4	-1E+10	1	-1E+10	1	-1E+10	1	-1E+10	1	-1E+10	1	-1E+10	1
4901784	122	C	11/06/2018	10:46	-133.005	43.024	0	659.30	0	4.2390	0	34.4640	8	27.340	0	653.028	0	19.9	4	6.3	4	-1E+10	1	-1E+10	1	-1E+10	1	-1E+10	1	-1E+10	1	-1E+10	1
4901784	122	C	11/06/2018	10:46	-133.005	43.024	0	664.50	0	4.2380	0	34.4650	8	27.341	0	658.170	0	19.5	4	6.2	4	-1E+10	1	-1E+10	1	-1E+10	1	-1E+10	1	-1E+10	1	-1E+10	1
4901784	122	C	11/06/2018	10:46	-133.005	43.024	0	669.70	0	4.2340	0	34.4700	8	27.345	0	663.313	0	18.8	4	6.0	4	-1E+10	1	-1E+10	1	-1E+10	1	-1E+10	1	-1E+10	1	-1E+10	1
4901784	122	C	11/06/2018	10:46	-133.005	43.024	0	675.10	0	4.2380	0	34.4770	8	27.351	0	668.652	0	18.1	4	5.8	4	-1E+10	1	-1E+10	1	-1E+10	1	-1E+10	1	-1E+10	1	-1E+10	1
4901784	122	C	11/06/2018	10:46	-133.005	43.024	0	680.50	0	4.2380	0	34.4810	8	27.354	0	673.992	0	17.9	4	5.7	4	-1E+10	1	-1E+10	1	-1E+10	1	-1E+10	1	-1E+10	1	-1E+10	1
4901784	122	C	11/06/2018	10:46	-133.005	43.024	0	685.10	0	4.1890	0	34.4820	8	27.360	0	678.541	0	17.7	4	5.6	4	-1E+10	1	-1E+10	1	-1E+10	1	-1E+10	1	-1E+10	1	-1E+10	1
4901784	122	C	11/06/2018	10:46	-133.005	43.024	0	690.00	0	4.1880	0	34.4860	8	27.363	0	683.386	0	17.3	4	5.5	4	-1E+10	1	-1E+10	1	-1E+10	1	-1E+10	1	-1E+10	1	-1E+10	1
4901784	122	C	11/06/2018	10:46	-133.005	43.024	0	695.10	0	4.1740	0	34.4910	8	27.369	0	688.428	0	16.8	4	5.3	4	-1E+10	1	-1E+10	1	-1E+10	1	-1E+10	1	-1E+10	1	-1E+10	1
4901784	122	C	11/06/2018	10:46	-133.005	43.024	0	699.70	0	4.1700	0	34.4950	8	27.372	0	692.977	0	15.9	4	5.1	4	-1E+10	1	-1E+10	1	-1E+10	1	-1E+10	1	-1E+10	1	-1E+10	1
4901784	122	C	11/06/2018	10:46	-133.005	43.024	0	704.50	0	4.2150	0	34.5100	8	27.380	0	697.722	0	14.9	4	4.7	4	-1E+10	1	-1E+10	1	-1E+10	1	-1E+10	1	-1E+10	1	-1E+10	1
4901784	122	C	11/06/2018	10:46	-133.005	43.024	0	709.30	0	4.1700	0	34.5120	8	27.386	0	702.468	0	14.6	4	4.6	4	-1E+10	1	-1E+10	1	-1E+10	1	-1E+10	1	-1E+10	1	-1E+10	1
4901784	122	C	11/06/2018	10:46	-133.005	43.024	0	714.20	0	4.2030	0	34.5190	8	27.388	0	707.313	0	13.8	4	4.4	4	-1E+10	1	-1E+10	1	-1E+10	1	-1E+10	1	-1E+10	1	-1E+10	1
4901784	122	C	11/06/2018	10:46	-133.005	43.024	0	720.00	0	4.2010	0	34.5280	8	27.395	0	713.047	0	13.5	4	4.3	4	-1E+10	1	-1E+10	1	-1E+10	1	-1E+10	1	-1E+10	1	-1E+10	1
4901784	122	C	11/06/2018	10:46	-133.005	43.024	0	725.80	0	4.1780	0	34.5310	8	27.400	0	718.781	0	13.5	4	4.3	4	-1E+10	1	-1E+10	1	-1E+10	1	-1E+10	1	-1E+10	1	-1E+10	1
4901784	122	C	11/06/2018	10:46	-133.005	43.024	0	730.00	0	4.1360	0	34.5330	8	27.406	0	722.933	0	13.5	4	4.3	4	-1E+10	1	-1E+10	1	-1E+10	1	-1E+10	1	-1E+10	1	-1E+10	1
4901784	122	C	11/06/2018	10:46	-133.005	43.024	0	734.30	0	4.1120	0	34.5350	8	27.410	0	727.184	0	13.5	4	4.3	4	-1E+10	1	-1E+10	1	-1E+10	1	-1E+10	1	-1E+10	1	-1E+10	1
4901784	122	C	11/06/2018	10:46	-133.005	43.024	0	739.40	0	4.0890	0	34.5350	8	27.413	0	732.225	0	13.6	4	4.3	4	-1E+10	1	-1E+10	1	-1E+10	1	-1E+10	1	-1E+10	1	-1E+10	1
4901784	122	C	11/06/2018	10:46	-133.005	43.024	0	744.60	0	4.0590	0	34.5370	8	27.418	0	737.366	0	13.6	4	4.3	4	-1E+10	1	-1E+10	1	-1E+10	1	-1E+10	1	-1E+10	1	-1E+10	1
4901784	122	C	11/06/2018	10:46	-133.005	43.024	0	749.90	0	4.0460	0	34.5390	8	27.421	0	742.605	0	13.5	4	4.3	4	-1E+10	1	-1E+10	1	-1E+10	1	-1E+10	1	-1E+10	1	-1E+10	1
4901784	122	C	11/06/2018	10:46	-133.005	43.024	0	755.20	0	4.0360	0	34.5410	8	27.423	0	747.844	0	13.4	4	4.3	4	-1E+10	1	-1E+10	1	-1E+10	1	-1E+10	1	-1E+10	1	-1E+10	1
4901784	122	C	11/06/2018	10:46	-133.005	43.024	0	760.60	0	4.0280	0	34.5430	8	27.426	0	753.181	0	13.3	4	4.2	4	-1E+10	1	-1E+10	1	-1E+10	1	-1E+10	1	-1E+10	1	-1E+10	1
4901784	122	C	11/06/2018	10:46	-133.005	43.024	0	765.20	0	4.0220	0	34.5460	8	27.429	0	757.728	0	13.2	4	4.2	4	-1E+10	1	-1E+10	1	-1E+10	1	-1E+10	1	-1E+10	1	-1E+10	1
4901784	122	C	11/06/2018	10:46	-133.005	43.024	0	769.90	0	4.0160	0	34.5480	8	27.431	0	762.374	0	13.1	4	4.1	4	-1E+10	1	-1E+10	1	-1E+10	1	-1E+10	1	-1E+10	1	-1E+10	1
4901784	122	C	11/06/2018	10:46	-133.005	43.024	0	775.50	0	4.0080	0	34.5500	8	27.433	0	767.909	0	12.9	4	4.1	4	-1E+10	1	-1E+10	1	-1E+10	1	-1E+10	1	-1E+10	1	-1E+10	1
4901784	122	C	11/06/2018	10:46	-133.005	43.024	0	780.20	0	4.0020	0	34.5530	8	27.436	0	772.554	0	12.8	4	4.1	4	-1E+10	1	-1E+10	1	-1E+10	1	-1E+10	1	-1E+10	1	-1E+10	1
4901784	122	C	11/06/2018	10:46	-133.005	43.024	0	785.00	0	3.9960	0	34.5550	8	27.439	0	777.298	0	12.6	4	4.0	4	-1E+10	1	-1E+10	1	-1E+10	1	-1E+10	1	-1E+10	1	-1E+10	1
4901784	122	C	11/06/2018	10:46	-133.005	43.024	0	790.60	0	3.9950	0	34.5600	8	27.443	0	782.833	0	12.5	4	4.0	4	-1E+10	1	-1E+10	1	-1E+10	1	-1E+10	1	-1E+10	1	-1E+10	1
4901784	122	C	11/06/2018	10:46	-133.005	43.024	0	795.40	0	3.9870	0	34.5640	8	27.447	0	787.576	0	12.4	4	3.9	4	-1E+10	1	-1E+10	1	-1E+10	1	-1E+10	1	-1E+10	1	-1E+10	1
4901784	122	C	11/06/2018	10:46	-133.005	43.024	0	800.10	0	3.9750	0	34.5650	8	27.449	0	792.221	0	12.3	4	3.9	4	-1E+10	1	-1E+10	1	-1E+10	1	-1E+10	1	-1E+10	1	-1E+10	1
4901784	122	C	11/06/2018	10:46	-133.005	43.024	0	804.80	0	3.9530	0	34.5660	8	27.452	0	796.866	0	12.3	4	3.9	4	-1E+10	1	-1E+10	1	-1E+10	1	-1E+10	1	-1E+10	1	-1E+10	1
4901784	122	C	11/06/2018	10:46	-133.005	43.024	0	809.50	0	3.9540	0	34.5700	8	27.455	0	801.511	0	12.1	4	3.8	4	-1E+10	1	-1E+10	1	-1E+10	1	-1E+10	1	-1E+10	1	-1E+10	1
4901784	122	C	11/06/2018	10:46	-133.005	43.024	0	815.20	0	3.9540	0	34.5760	8	27.460	0	807.143	0	11.9	4	3.8	4	-1E+10	1	-1E+10	1	-1E+10	1	-1E+10	1	-1E+10	1	-1E+10	1
4901784	122	C	11/06/2018	10:46	-133.005	43.024	0	819.90	0	3.9570	0	34.5780	8	27.461	0	811.788	0	11.8	4	3.7	4	-1E+10	1	-1E+10	1	-1E+10	1	-1E+10	1	-1E+10	1	-1E+10	1
4901784	122	C	11/06/2018	10:46	-133.005	43.024	0	824.60	0	3.9590	0	34.5790	8	27.462	0	816.432	0	11.7	4	3.7	4	-1E+10	1	-1E+10	1	-1E+10	1	-1E+10	1	-1E+10	1	-1E+10	1
4901784	122	C	11/06/2018	10:46	-133.005	43.024	0	830.30	0	3.9590	0	34.5840	8	27.466	0	822.065	0	11.6	4	3.7	4	-1E+10	1	-1E+10	1	-1E+10	1	-1E+10	1	-1E+10	1	-1E+10	1
4901784	122	C	11/06/2018	10:46	-133.005	43.024	0	835.10	0	3.9480	0	34.5880	8	27.470	0	826.807	0	11.5	4	3.6	4	-1E+10	1	-1E+10	1	-1E+10	1	-1E+10	1	-1E+10	1	-1E+10	1
4901784	122	C	11/06/2018	10:46	-133.005	43.024	0	839.90	0	3.9390	0	34.5900	8	27.473	0	831.550	0	11.4	4	3.6	4	-1E+10	1	-1E+10	1	-1E+10	1	-1E+10	1	-1E+10	1	-1E+10	1
4901784	122	C	11/06/2018	10:46	-133.005	43.024	0	844.80	0	3.9310	0	34.5940	8	27.477	0	836.392	0	11.3	4	3.6	4	-1E+10	1	-1E+10	1	-1E+10	1	-1E+10	1	-1E+10	1	-1E+10	1
4901784	122	C	11/06/2018	10:46	-133.005	43.024	0	849.60	0	3.9210	0	34.5970	8	27.480	0	841.134	0	11.2	4	3.6	4	-1E+10	1	-1E+10	1	-1E+10	1	-1E+10	1	-1E+10	1	-1E+10	1
4901784	122	C	11/06/2018	10:46	-133.005	43.024	0	855.30	0	3.9060	0	34.6020	8	27.486	0	846.766	0	11.1	4	3.5	4	-1E+10	1	-1E+10	1	-1E+10	1	-1E+10	1	-1E+10	1	-1E+10	1
4901784	122	C	11/06/2018	10:46	-133.005	43.024	0	859.90	0	3.8910	0	34.6060	8	27.491	0	851.311	0	11.1	4	3.5	4	-1E+10	1	-1E+10	1	-1E+10	1	-1E+10	1	-1E+10	1	-1E+10	1
4901784	122	C	11/06/2018	10:46	-133.005	43.024	0	864.60	0	3.8700	0	34.6100	8	27.496	0	855.954	0	11.0	4	3.5	4	-1E+10	1	-1E+10	1	-1E+10	1	-1E+10	1	-1E+10	1	-1E+10	1
4901784	122	C	11/06/2018	10:46	-133.005	43.024	0	870.10	0	3.8560	0	34.6150	8	27.501	0	861.388	0	10.9	4	3.5	4	-1E+10	1	-1E+10	1	-1E+10	1	-1E+10	1	-1E+10	1	-1E+10	1
4901784	122	C	11/06/2018	10:46	-133.005	43.024	0	875.60	0	3.8460	0	34.6190	8	27.506	0	866.821	0	10.9	4	3.4	4	-1E+10	1	-1E+10	1	-1E+10	1	-1E+10	1	-1E+10	1	-1E+10	1
4901784	122	C	11/06/2018	10:46	-133.005	43.024	0	880.20	0	3.8240	0	34.6250	8	27.513	0	871.366	0	10.8	4	3.4	4	-1E+10	1	-1E+10	1	-1E+10	1	-1E+10	1	-1E+10	1	-1E+10	1
4901784	122	C	11/06/2018	10:46	-133.005	43.024	0	884.70	0	3.8060	0	34.6300	8	27.518	0	875.811	0	10.8	4	3.4	4	-1E+10	1	-1E+10	1	-1E+10	1	-1E+10	1	-1E+10	1	-1E+10	1
4901784	122	C	11/06/2018	10:46	-133.005	43.024	0	890.20	0	3.7780	0	34.6340	8	27.524	0	881.244	0	10.8	4	3.4	4	-1E+10	1	-1E+10	1	-1E+10	1	-1E+10	1	-1E+10	1	-1E+10	1
4901784	122	C	11/06/2018	10:46	-133.005	43.024	0	894.80	0	3.7580	0	34.6390	8	27.531	0	885.788	0	10.8	4	3.4	4	-1E+10	1	-1E+10	1	-1E+10	1	-1E+10	1	-1E+10	1	-1E+10	1
4901784	122	C	11/06/2018	10:46	-133.005	43.024	0	899.40	0	3.7430	0	34.6420	8	27.534	0	890.332	0	10.8	4	3.4	4	-1E+10	1	-1E+10	1	-1E+10	1	-1E+10	1	-1E+10	1	-1E+10	1
4901784	122	C	11/06/2018	10:46	-133.005	43.024	0	905.00	0	3.7020	0	34.6480	8	27.543	0	895.864	0	10.8	4	3.4	4	-1E+10	1	-1E+10	1	-1E+10	1	-1E+10	1	-1E+10	1	-1E+10	1
4901784	122	C	11/06/2018	10:46	-133.005	43.024	0	910.50	0	3.6710	0	34.6530	8	27.550	0	901.296	0	10.8	4	3.4	4	-1E+10	1	-1E+10	1	-1E+10	1	-1E+10	1	-1E+10	1	-1E+10	1
4901784	122	C	11/06/2018	10:46	-133.005	43.024	0	915.20	0	3.6550	0	34.6560	8	27.554	0	905.939	0	10.8	4	3.4	4	-1E+10	1	-1E+10	1	-1E+10	1	-1E+10	1	-1E+10	1	-1E+10	1
4901784	122	C	11/06/2018	10:46	-133.005	43.024	0	919.80	0	3.6400	0	34.6580	8	27.558	0	910.482	0	10.8	4	3.4	4	-1E+10	1	-1E+10	1	-1E+10	1	-1E+10	1	-1E+10	1	-1E+10	1
4901784	122	C	11/06/2018	10:46	-133.005	43.024	0	925.30	0	3.6270	0	34.6610	8	27.561	0	915.914	0	10.8	4	3.4	4	-1E+10	1	-1E+10	1	-1E+10	1	-1E+10	1	-1E+10	1	-1E+10	1
4901784	122	C	11/06/2018	10:46	-133.005	43.024	0	929.90	0	3.6070	0	34.6640	8	27.566	0	920.458	0	10.8	4	3.4	4	-1E+10	1	-1E+10	1	-1E+10	1	-1E+10	1	-1E+10	1	-1E+10	1
4901784	122	C	11/06/2018	10:46	-133.005	43.024	0	934.50	0	3.5910	0	34.6670	8	27.570	0	925.001	0	10.8	4	3.4	4	-1E+10	1	-1E+10	1	-1E+10	1	-1E+10	1	-1E+10	1	-1E+10	1
4901784	122	C	11/06/2018	10:46	-133.005	43.024	0	940.00	0	3.5720	0	34.6700	8	27.574	0	930.433	0	10.9	4	3.4	4	-1E+10	1	-1E+10	1	-1E+10	1	-1E+10	1	-1E+10	1	-1E+10	1
4901784	122	C	11/06/2018	10:46	-133.005	43.024	0	945.50	0	3.5530	0	34.6730	8	27.578	0	935.864	0	10.9	4	3.4	4	-1E+10	1	-1E+10	1	-1E+10	1	-1E+10	1	-1E+10	1	-1E+10	1
4901784	122	C	11/06/2018	10:46	-133.005	43.024	0	950.20	0	3.5470	0	34.6740	8	27.580	0	940.506	0	10.9	4	3.4	4	-1E+10	1	-1E+10	1	-1E+10	1	-1E+10	1	-1E+10	1	-1E+10	1
4901784	122	C	11/06/2018	10:46	-133.005	43.024	0	954.80	0	3.5380	0	34.6760	8	27.582	0	945.049	0	10.9	4	3.4	4	-1E+10	1	-1E+10	1	-1E+10	1	-1E+10	1	-1E+10	1	-1E+10	1
4901784	122	C	11/06/2018	10:46	-133.005	43.024	0	960.40	0	3.5210	0	34.6790	8	27.586	0	950.579	0	10.9	4	3.4	4	-1E+10	1	-1E+10	1	-1E+10	1	-1E+10	1	-1E+10	1	-1E+10	1
4901784	122	C	11/06/2018	10:46	-133.005	43.024	0	964.60	0	3.5150	0	34.6800	8	27.588	0	954.726	0	11.0	4	3.4	4	-1E+10	1	-1E+10	1	-1E+10	1	-1E+10	1	-1E+10	1	-1E+10	1
4901784	122	C	11/06/2018	10:46	-133.005	43.024	0	969.40	0	3.5070	0	34.6820	8	27.590	0	959.466	0	11.0	4	3.4	4	-1E+10	1	-1E+10	1	-1E+10	1	-1E+10	1	-1E+10	1	-1E+10	1
4901784	122	C	11/06/2018	10:46	-133.005	43.024	0	974.30	0	3.4990	0	34.6840	8	27.592	0	964.304	0	11.0	4	3.4	4	-1E+10	1	-1E+10	1	-1E+10	1	-1E+10	1	-1E+10	1	-1E+10	1
4901784	122	C	11/06/2018	10:46	-133.005	43.024	0	979.20	0	3.4890	0	34.6850	8	27.594	0	969.143	0	11.0	4	3.5	4	-1E+10	1	-1E+10	1	-1E+10	1	-1E+10	1	-1E+10	1	-1E+10	1
4901784	122	C	11/06/2018	10:46	-133.005	43.024	0	985.00	0	3.4750	0	34.6890	8	27.599	0	974.870	0	11.1	4	3.5	4	-1E+10	1	-1E+10	1	-1E+10	1	-1E+10	1	-1E+10	1	-1E+10	1
4901784	122	C	11/06/2018	10:46	-133.005	43.024	0	990.70	0	3.4660	0	34.6900	8	27.600	0	980.498	0	11.1	4	3.5	4	-1E+10	1	-1E+10	1	-1E+10	1	-1E+10	1	-1E+10	1	-1E+10	1
4901784	122	C	11/06/2018	10:46	-133.005	43.024	0	995.70	0	3.4510	0	34.6940	8	27.605	0	985.435	0	11.2	4	3.5	4	-1E+10	1	-1E+10	1	-1E+10	1	-1E+10	1	-1E+10	1	-1E+10	1
4901784	122	C	11/06/2018	10:46	-133.005	43.024	0	1000.70	0	3.4400	0	34.6970	8	27.609	0	990.371	0	11.3	4	3.5	4	-1E+10	1	-1E+10	1	-1E+10	1	-1E+10	1	-1E+10	1	-1E+10	1
4901784	122	C	11/06/2018	10:46	-133.005	43.024	0	1005.80	0	3.4340	0	34.6980	8	27.610	0	995.407	0	11.3	4	3.5	4	-1E+10	1	-1E+10	1	-1E+10	1	-1E+10	1	-1E+10	1	-1E+10	1
4901784	122	C	11/06/2018	10:46	-133.005	43.024	0	1010.10	0	3.4250	0	34.7000	8	27.613	0	999.652	0	11.4	4	3.6	4	-1E+10	1	-1E+10	1	-1E+10	1	-1E+10	1	-1E+10	1	-1E+10	1
4901784	122	C	11/06/2018	10:46	-133.005	43.024	0	1014.50	0	3.4180	0	34.7010	8	27.614	0	1003.996	0	11.5	4	3.6	4	-1E+10	1	-1E+10	1	-1E+10	1	-1E+10	1	-1E+10	1	-1E+10	1
4901784	122	C	11/06/2018	10:46	-133.005	43.024	0	1019.70	0	3.4090	0	34.7030	8	27.616	0	1009.129	0	11.5	4	3.6	4	-1E+10	1	-1E+10	1	-1E+10	1	-1E+10	1	-1E+10	1	-1E+10	1
4901784	122	C	11/06/2018	10:46	-133.005	43.024	0	1025.00	0	3.4000	0	34.7050	8	27.619	0	1014.362	0	11.6	4	3.6	4	-1E+10	1	-1E+10	1	-1E+10	1	-1E+10	1	-1E+10	1	-1E+10	1
4901784	122	C	11/06/2018	10:46	-133.005	43.024	0	1030.40	0	3.3900	0	34.7070	8	27.622	0	1019.693	0	11.7	4	3.7	4	-1E+10	1	-1E+10	1	-1E+10	1	-1E+10	1	-1E+10	1	-1E+10	1
4901784	122	C	11/06/2018	10:46	-133.005	43.024	0	1034.80	0	3.3790	0	34.7100	8	27.625	0	1024.036	0	11.8	4	3.7	4	-1E+10	1	-1E+10	1	-1E+10	1	-1E+10	1	-1E+10	1	-1E+10	1
4901784	122	C	11/06/2018	10:46	-133.005	43.024	0	1039.30	0	3.3780	0	34.7100	8	27.625	0	1028.478	0	11.8	4	3.7	4	-1E+10	1	-1E+10	1	-1E+10	1	-1E+10	1	-1E+10	1	-1E+10	1
4901784	122	C	11/06/2018	10:46	-133.005	43.024	0	1044.80	0	3.3720	0	34.7110	8	27.627	0	1033.907	0	11.9	4	3.7	4	-1E+10	1	-1E+10	1	-1E+10	1	-1E+10	1	-1E+10	1	-1E+10	1
4901784	122	C	11/06/2018	10:46	-133.005	43.024	0	1050.30	0	3.3630	0	34.7130	8	27.629	0	1039.337	0	11.9	4	3.7	4	-1E+10	1	-1E+10	1	-1E+10	1	-1E+10	1	-1E+10	1	-1E+10	1
4901784	122	C	11/06/2018	10:46	-133.005	43.024	0	1055.40	0	3.3600	0	34.7140	8	27.630	0	1044.371	0	12.0	4	3.7	4	-1E+10	1	-1E+10	1	-1E+10	1	-1E+10	1	-1E+10	1	-1E+10	1
4901784	122	C	11/06/2018	10:46	-133.005	43.024	0	1059.50	0	3.3560	0	34.7150	8	27.631	0	1048.417	0	12.0	4	3.8	4	-1E+10	1	-1E+10	1	-1E+10	1	-1E+10	1	-1E+10	1	-1E+10	1
4901784	122	C	11/06/2018	10:46	-133.005	43.024	0	1065.10	0	3.3500	0	34.7160	8	27.633	0	1053.945	0	12.1	4	3.8	4	-1E+10	1	-1E+10	1	-1E+10	1	-1E+10	1	-1E+10	1	-1E+10	1
4901784	122	C	11/06/2018	10:46	-133.005	43.024	0	1070.70	0	3.3380	0	34.7180	8	27.636	0	1059.472	0	12.3	4	3.8	4	-1E+10	1	-1E+10	1	-1E+10	1	-1E+10	1	-1E+10	1	-1E+10	1
4901784	122	C	11/06/2018	10:46	-133.005	43.024	0	1075.50	0	3.3290	0	34.7200	8	27.638	0	1064.210	0	12.4	4	3.9	4	-1E+10	1	-1E+10	1	-1E+10	1	-1E+10	1	-1E+10	1	-1E+10	1
4901784	122	C	11/06/2018	10:46	-133.005	43.024	0	1080.40	0	3.3200	0	34.7220	8	27.641	0	1069.046	0	12.4	4	3.9	4	-1E+10	1	-1E+10	1	-1E+10	1	-1E+10	1	-1E+10	1	-1E+10	1
4901784	122	C	11/06/2018	10:46	-133.005	43.024	0	1085.40	0	3.3130	0	34.7230	8	27.642	0	1073.980	0	12.5	4	3.9	4	-1E+10	1	-1E+10	1	-1E+10	1	-1E+10	1	-1E+10	1	-1E+10	1
4901784	122	C	11/06/2018	10:46	-133.005	43.024	0	1090.40	0	3.3050	0	34.7250	8	27.644	0	1078.915	0	12.6	4	3.9	4	-1E+10	1	-1E+10	1	-1E+10	1	-1E+10	1	-1E+10	1	-1E+10	1
4901784	122	C	11/06/2018	10:46	-133.005	43.024	0	1095.50	0	3.3000	0	34.7250	8	27.645	0	1083.948	0	12.7	4	4.0	4	-1E+10	1	-1E+10	1	-1E+10	1	-1E+10	1	-1E+10	1	-1E+10	1
4901784	122	C	11/06/2018	10:46	-133.005	43.024	0	1100.60	0	3.2860	0	34.7280	8	27.649	0	1088.981	0	12.9	4	4.0	4	-1E+10	1	-1E+10	1	-1E+10	1	-1E+10	1	-1E+10	1	-1E+10	1
4901784	122	C	11/06/2018	10:46	-133.005	43.024	0	1105.70	0	3.2750	0	34.7290	8	27.651	0	1094.014	0	12.9	4	4.0	4	-1E+10	1	-1E+10	1	-1E+10	1	-1E+10	1	-1E+10	1	-1E+10	1
4901784	122	C	11/06/2018	10:46	-133.005	43.024	0	1110.00	0	3.2690	0	34.7310	8	27.653	0	1098.257	0	13.0	4	4.0	4	-1E+10	1	-1E+10	1	-1E+10	1	-1E+10	1	-1E+10	1	-1E+10	1
4901784	122	C	11/06/2018	10:46	-133.005	43.024	0	1114.40	0	3.2640	0	34.7310	8	27.653	0	1102.599	0	13.1	4	4.1	4	-1E+10	1	-1E+10	1	-1E+10	1	-1E+10	1	-1E+10	1	-1E+10	1
4901784	122	C	11/06/2018	10:46	-133.005	43.024	0	1119.60	0	3.2500	0	34.7330	8	27.656	0	1107.730	0	13.1	4	4.1	4	-1E+10	1	-1E+10	1	-1E+10	1	-1E+10	1	-1E+10	1	-1E+10	1
4901784	122	C	11/06/2018	10:46	-133.005	43.024	0	1124.80	0	3.2430	0	34.7330	8	27.657	0	1112.861	0	13.2	4	4.1	4	-1E+10	1	-1E+10	1	-1E+10	1	-1E+10	1	-1E+10	1	-1E+10	1
4901784	122	C	11/06/2018	10:46	-133.005	43.024	0	1130.10	0	3.2280	0	34.7360	8	27.661	0	1118.091	0	13.3	4	4.1	4	-1E+10	1	-1E+10	1	-1E+10	1	-1E+10	1	-1E+10	1	-1E+10	1
4901784	122	C	11/06/2018	10:46	-133.005	43.024	0	1135.40	0	3.2230	0	34.7360	8	27.661	0	1123.321	0	13.4	4	4.2	4	-1E+10	1	-1E+10	1	-1E+10	1	-1E+10	1	-1E+10	1	-1E+10	1
4901784	122	C	11/06/2018	10:46	-133.005	43.024	0	1139.90	0	3.2200	0	34.7370	8	27.662	0	1127.761	0	13.4	4	4.2	4	-1E+10	1	-1E+10	1	-1E+10	1	-1E+10	1	-1E+10	1	-1E+10	1
4901784	122	C	11/06/2018	10:46	-133.005	43.024	0	1144.40	0	3.2100	0	34.7380	8	27.664	0	1132.201	0	13.5	4	4.2	4	-1E+10	1	-1E+10	1	-1E+10	1	-1E+10	1	-1E+10	1	-1E+10	1
4901784	122	C	11/06/2018	10:46	-133.005	43.024	0	1149.70	0	3.2030	0	34.7390	8	27.666	0	1137.430	0	13.5	4	4.2	4	-1E+10	1	-1E+10	1	-1E+10	1	-1E+10	1	-1E+10	1	-1E+10	1
4901784	122	C	11/06/2018	10:46	-133.005	43.024	0	1155.10	0	3.2000	0	34.7390	8	27.666	0	1142.757	0	13.6	4	4.2	4	-1E+10	1	-1E+10	1	-1E+10	1	-1E+10	1	-1E+10	1	-1E+10	1
4901784	122	C	11/06/2018	10:46	-133.005	43.024	0	1160.50	0	3.1880	0	34.7410	8	27.669	0	1148.085	0	13.8	4	4.3	4	-1E+10	1	-1E+10	1	-1E+10	1	-1E+10	1	-1E+10	1	-1E+10	1
4901784	122	C	11/06/2018	10:46	-133.005	43.024	0	1165.00	0	3.1810	0	34.7420	8	27.670	0	1152.524	0	13.9	4	4.3	4	-1E+10	1	-1E+10	1	-1E+10	1	-1E+10	1	-1E+10	1	-1E+10	1
4901784	122	C	11/06/2018	10:46	-133.005	43.024	0	1169.50	0	3.1680	0	34.7430	8	27.672	0	1156.964	0	13.9	4	4.3	4	-1E+10	1	-1E+10	1	-1E+10	1	-1E+10	1	-1E+10	1	-1E+10	1
4901784	122	C	11/06/2018	10:46	-133.005	43.024	0	1175.00	0	3.1530	0	34.7440	8	27.674	0	1162.390	0	14.1	4	4.4	4	-1E+10	1	-1E+10	1	-1E+10	1	-1E+10	1	-1E+10	1	-1E+10	1
4901784	122	C	11/06/2018	10:46	-133.005	43.024	0	1180.50	0	3.1400	0	34.7460	8	27.677	0	1167.815	0	14.2	4	4.4	4	-1E+10	1	-1E+10	1	-1E+10	1	-1E+10	1	-1E+10	1	-1E+10	1
4901784	122	C	11/06/2018	10:46	-133.005	43.024	0	1185.10	0	3.1240	0	34.7480	8	27.680	0	1172.353	0	14.3	4	4.4	4	-1E+10	1	-1E+10	1	-1E+10	1	-1E+10	1	-1E+10	1	-1E+10	1
4901784	122	C	11/06/2018	10:46	-133.005	43.024	0	1189.70	0	3.1150	0	34.7480	8	27.681	0	1176.891	0	14.4	4	4.5	4	-1E+10	1	-1E+10	1	-1E+10	1	-1E+10	1	-1E+10	1	-1E+10	1
4901784	122	C	11/06/2018	10:46	-133.005	43.024	0	1195.20	0	3.1100	0	34.7480	8	27.682	0	1182.316	0	14.5	4	4.5	4	-1E+10	1	-1E+10	1	-1E+10	1	-1E+10	1	-1E+10	1	-1E+10	1
4901784	122	C	11/06/2018	10:46	-133.005	43.024	0	1199.90	0	3.0940	0	34.7500	8	27.685	0	1186.952	0	14.6	4	4.5	4	-1E+10	1	-1E+10	1	-1E+10	1	-1E+10	1	-1E+10	1	-1E+10	1
4901784	122	C	11/06/2018	10:46	-133.005	43.024	0	1204.50	0	3.0850	0	34.7510	8	27.686	0	1191.490	0	14.7	4	4.6	4	-1E+10	1	-1E+10	1	-1E+10	1	-1E+10	1	-1E+10	1	-1E+10	1
4901784	122	C	11/06/2018	10:46	-133.005	43.024	0	1210.10	0	3.0790	0	34.7520	8	27.688	0	1197.013	0	14.8	4	4.6	4	-1E+10	1	-1E+10	1	-1E+10	1	-1E+10	1	-1E+10	1	-1E+10	1
4901784	122	C	11/06/2018	10:46	-133.005	43.024	0	1214.80	0	3.0720	0	34.7540	8	27.690	0	1201.649	0	14.9	4	4.6	4	-1E+10	1	-1E+10	1	-1E+10	1	-1E+10	1	-1E+10	1	-1E+10	1
4901784	122	C	11/06/2018	10:46	-133.005	43.024	0	1219.50	0	3.0660	0	34.7550	8	27.691	0	1206.285	0	15.1	4	4.7	4	-1E+10	1	-1E+10	1	-1E+10	1	-1E+10	1	-1E+10	1	-1E+10	1
4901784	122	C	11/06/2018	10:46	-133.005	43.024	0	1224.90	0	3.0540	0	34.7570	8	27.694	0	1211.611	0	15.3	4	4.7	4	-1E+10	1	-1E+10	1	-1E+10	1	-1E+10	1	-1E+10	1	-1E+10	1
4901784	122	C	11/06/2018	10:46	-133.005	43.024	0	1229.20	0	3.0450	0	34.7580	8	27.696	0	1215.851	0	15.4	4	4.8	4	-1E+10	1	-1E+10	1	-1E+10	1	-1E+10	1	-1E+10	1	-1E+10	1
4901784	122	C	11/06/2018	10:46	-133.005	43.024	0	1234.90	0	3.0340	0	34.7610	8	27.699	0	1221.473	0	15.7	4	4.9	4	-1E+10	1	-1E+10	1	-1E+10	1	-1E+10	1	-1E+10	1	-1E+10	1
4901784	122	C	11/06/2018	10:46	-133.005	43.024	0	1240.70	0	3.0230	0	34.7620	8	27.701	0	1227.193	0	15.9	4	4.9	4	-1E+10	1	-1E+10	1	-1E+10	1	-1E+10	1	-1E+10	1	-1E+10	1
4901784	122	C	11/06/2018	10:46	-133.005	43.024	0	1245.60	0	3.0140	0	34.7640	8	27.704	0	1232.025	0	16.1	4	5.0	4	-1E+10	1	-1E+10	1	-1E+10	1	-1E+10	1	-1E+10	1	-1E+10	1
4901784	122	C	11/06/2018	10:46	-133.005	43.024	0	1250.60	0	3.0040	0	34.7660	8	27.706	0	1236.956	0	16.4	4	5.1	4	-1E+10	1	-1E+10	1	-1E+10	1	-1E+10	1	-1E+10	1	-1E+10	1
4901784	122	C	11/06/2018	10:46	-133.005	43.024	0	1255.60	0	2.9980	0	34.7680	8	27.708	0	1241.887	0	16.6	4	5.1	4	-1E+10	1	-1E+10	1	-1E+10	1	-1E+10	1	-1E+10	1	-1E+10	1
4901784	122	C	11/06/2018	10:46	-133.005	43.024	0	1260.60	0	2.9860	0	34.7690	8	27.710	0	1246.817	0	16.8	4	5.2	4	-1E+10	1	-1E+10	1	-1E+10	1	-1E+10	1	-1E+10	1	-1E+10	1
4901784	122	C	11/06/2018	10:46	-133.005	43.024	0	1265.60	0	2.9730	0	34.7700	8	27.712	0	1251.748	0	17.0	4	5.3	4	-1E+10	1	-1E+10	1	-1E+10	1	-1E+10	1	-1E+10	1	-1E+10	1
4901784	122	C	11/06/2018	10:46	-133.005	43.024	0	1270.60	0	2.9710	0	34.7720	8	27.714	0	1256.678	0	17.2	4	5.3	4	-1E+10	1	-1E+10	1	-1E+10	1	-1E+10	1	-1E+10	1	-1E+10	1
4901784	122	C	11/06/2018	10:46	-133.005	43.024	0	1275.60	0	2.9600	0	34.7730	8	27.716	0	1261.609	0	17.4	4	5.4	4	-1E+10	1	-1E+10	1	-1E+10	1	-1E+10	1	-1E+10	1	-1E+10	1
4901784	122	C	11/06/2018	10:46	-133.005	43.024	0	1280.60	0	2.9490	0	34.7750	8	27.718	0	1266.539	0	17.6	4	5.4	4	-1E+10	1	-1E+10	1	-1E+10	1	-1E+10	1	-1E+10	1	-1E+10	1
4901784	122	C	11/06/2018	10:46	-133.005	43.024	0	1285.60	0	2.9340	0	34.7770	8	27.721	0	1271.469	0	17.9	4	5.5	4	-1E+10	1	-1E+10	1	-1E+10	1	-1E+10	1	-1E+10	1	-1E+10	1
4901784	122	C	11/06/2018	10:46	-133.005	43.024	0	1290.70	0	2.9210	0	34.7790	8	27.724	0	1276.497	0	18.1	4	5.6	4	-1E+10	1	-1E+10	1	-1E+10	1	-1E+10	1	-1E+10	1	-1E+10	1
4901784	122	C	11/06/2018	10:46	-133.005	43.024	0	1295.00	0	2.9110	0	34.7800	8	27.726	0	1280.737	0	18.3	4	5.6	4	-1E+10	1	-1E+10	1	-1E+10	1	-1E+10	1	-1E+10	1	-1E+10	1
4901784	122	C	11/06/2018	10:46	-133.005	43.024	0	1299.20	0	2.9070	0	34.7800	8	27.726	0	1284.878	0	18.4	4	5.7	4	-1E+10	1	-1E+10	1	-1E+10	1	-1E+10	1	-1E+10	1	-1E+10	1
4901784	122	C	11/06/2018	10:46	-133.005	43.024	0	1304.30	0	2.8990	0	34.7810	8	27.728	0	1289.906	0	18.6	4	5.7	4	-1E+10	1	-1E+10	1	-1E+10	1	-1E+10	1	-1E+10	1	-1E+10	1
4901784	122	C	11/06/2018	10:46	-133.005	43.024	0	1309.40	0	2.8870	0	34.7830	8	27.731	0	1294.934	0	18.8	4	5.8	4	-1E+10	1	-1E+10	1	-1E+10	1	-1E+10	1	-1E+10	1	-1E+10	1
4901784	122	C	11/06/2018	10:46	-133.005	43.024	0	1314.40	0	2.8740	0	34.7840	8	27.733	0	1299.863	0	18.9	4	5.8	4	-1E+10	1	-1E+10	1	-1E+10	1	-1E+10	1	-1E+10	1	-1E+10	1
4901784	122	C	11/06/2018	10:46	-133.005	43.024	0	1319.60	0	2.8700	0	34.7850	8	27.734	0	1304.990	0	19.0	4	5.9	4	-1E+10	1	-1E+10	1	-1E+10	1	-1E+10	1	-1E+10	1	-1E+10	1
4901784	122	C	11/06/2018	10:46	-133.005	43.024	0	1324.70	0	2.8560	0	34.7860	8	27.736	0	1310.017	0	19.3	4	6.0	4	-1E+10	1	-1E+10	1	-1E+10	1	-1E+10	1	-1E+10	1	-1E+10	1
4901784	122	C	11/06/2018	10:46	-133.005	43.024	0	1329.80	0	2.8520	0	34.7880	8	27.738	0	1315.045	0	19.7	4	6.1	4	-1E+10	1	-1E+10	1	-1E+10	1	-1E+10	1	-1E+10	1	-1E+10	1
4901784	122	C	11/06/2018	10:46	-133.005	43.024	0	1334.90	0	2.8470	0	34.7890	8	27.739	0	1320.072	0	20.0	4	6.2	4	-1E+10	1	-1E+10	1	-1E+10	1	-1E+10	1	-1E+10	1	-1E+10	1
4901784	122	C	11/06/2018	10:46	-133.005	43.024	0	1340.00	0	2.8360	0	34.7910	8	27.742	0	1325.100	0	20.3	4	6.3	4	-1E+10	1	-1E+10	1	-1E+10	1	-1E+10	1	-1E+10	1	-1E+10	1
4901784	122	C	11/06/2018	10:46	-133.005	43.024	0	1345.10	0	2.8240	0	34.7930	8	27.744	0	1330.127	0	20.6	4	6.4	4	-1E+10	1	-1E+10	1	-1E+10	1	-1E+10	1	-1E+10	1	-1E+10	1
4901784	122	C	11/06/2018	10:46	-133.005	43.024	0	1350.30	0	2.8180	0	34.7940	8	27.746	0	1335.253	0	20.9	4	6.5	4	-1E+10	1	-1E+10	1	-1E+10	1	-1E+10	1	-1E+10	1	-1E+10	1
4901784	122	C	11/06/2018	10:46	-133.005	43.024	0	1355.40	0	2.8080	0	34.7950	8	27.747	0	1340.280	0	21.3	4	6.6	4	-1E+10	1	-1E+10	1	-1E+10	1	-1E+10	1	-1E+10	1	-1E+10	1
4901784	122	C	11/06/2018	10:46	-133.005	43.024	0	1360.60	0	2.7930	0	34.7980	8	27.751	0	1345.405	0	21.6	4	6.7	4	-1E+10	1	-1E+10	1	-1E+10	1	-1E+10	1	-1E+10	1	-1E+10	1
4901784	122	C	11/06/2018	10:46	-133.005	43.024	0	1364.90	0	2.7850	0	34.7990	8	27.753	0	1349.643	0	21.8	4	6.7	4	-1E+10	1	-1E+10	1	-1E+10	1	-1E+10	1	-1E+10	1	-1E+10	1
4901784	122	C	11/06/2018	10:46	-133.005	43.024	0	1369.20	0	2.7780	0	34.8000	8	27.754	0	1353.881	0	21.9	4	6.7	4	-1E+10	1	-1E+10	1	-1E+10	1	-1E+10	1	-1E+10	1	-1E+10	1
4901784	122	C	11/06/2018	10:46	-133.005	43.024	0	1374.40	0	2.7710	0	34.8010	8	27.756	0	1359.006	0	22.2	4	6.8	4	-1E+10	1	-1E+10	1	-1E+10	1	-1E+10	1	-1E+10	1	-1E+10	1
4901784	122	C	11/06/2018	10:46	-133.005	43.024	0	1379.40	0	2.7620	0	34.8020	8	27.757	0	1363.934	0	22.5	4	6.9	4	-1E+10	1	-1E+10	1	-1E+10	1	-1E+10	1	-1E+10	1	-1E+10	1
4901784	122	C	11/06/2018	10:46	-133.005	43.024	0	1384.40	0	2.7560	0	34.8030	8	27.759	0	1368.862	0	22.7	4	7.0	4	-1E+10	1	-1E+10	1	-1E+10	1	-1E+10	1	-1E+10	1	-1E+10	1
4901784	122	C	11/06/2018	10:46	-133.005	43.024	0	1389.50	0	2.7480	0	34.8050	8	27.761	0	1373.888	0	22.9	4	7.1	4	-1E+10	1	-1E+10	1	-1E+10	1	-1E+10	1	-1E+10	1	-1E+10	1
4901784	122	C	11/06/2018	10:46	-133.005	43.024	0	1394.60	0	2.7410	0	34.8050	8	27.762	0	1378.914	0	23.1	4	7.1	4	-1E+10	1	-1E+10	1	-1E+10	1	-1E+10	1	-1E+10	1	-1E+10	1
4901784	122	C	11/06/2018	10:46	-133.005	43.024	0	1399.60	0	2.7360	0	34.8050	8	27.762	0	1383.841	0	23.2	4	7.1	4	-1E+10	1	-1E+10	1	-1E+10	1	-1E+10	1	-1E+10	1	-1E+10	1
4901784	122	C	11/06/2018	10:46	-133.005	43.024	0	1404.60	0	2.7210	0	34.8060	8	27.764	0	1388.769	0	23.4	4	7.2	4	-1E+10	1	-1E+10	1	-1E+10	1	-1E+10	1	-1E+10	1	-1E+10	1
4901784	122	C	11/06/2018	10:46	-133.005	43.024	0	1409.70	0	2.7060	0	34.8080	8	27.767	0	1393.794	0	23.6	4	7.2	4	-1E+10	1	-1E+10	1	-1E+10	1	-1E+10	1	-1E+10	1	-1E+10	1
4901784	122	C	11/06/2018	10:46	-133.005	43.024	0	1414.90	0	2.6940	0	34.8080	8	27.768	0	1398.919	0	23.8	4	7.3	4	-1E+10	1	-1E+10	1	-1E+10	1	-1E+10	1	-1E+10	1	-1E+10	1
4901784	122	C	11/06/2018	10:46	-133.005	43.024	0	1420.10	0	2.6810	0	34.8100	8	27.771	0	1404.042	0	24.0	4	7.4	4	-1E+10	1	-1E+10	1	-1E+10	1	-1E+10	1	-1E+10	1	-1E+10	1
4901784	122	C	11/06/2018	10:46	-133.005	43.024	0	1425.30	0	2.6690	0	34.8110	8	27.773	0	1409.166	0	24.3	4	7.5	4	-1E+10	1	-1E+10	1	-1E+10	1	-1E+10	1	-1E+10	1	-1E+10	1
4901784	122	C	11/06/2018	10:46	-133.005	43.024	0	1430.50	0	2.6630	0	34.8120	8	27.774	0	1414.290	0	24.7	4	7.6	4	-1E+10	1	-1E+10	1	-1E+10	1	-1E+10	1	-1E+10	1	-1E+10	1
4901784	122	C	11/06/2018	10:46	-133.005	43.024	0	1435.70	0	2.6650	0	34.8130	8	27.775	0	1419.414	0	25.2	4	7.7	4	-1E+10	1	-1E+10	1	-1E+10	1	-1E+10	1	-1E+10	1	-1E+10	1
4901784	122	C	11/06/2018	10:46	-133.005	43.024	0	1440.10	0	2.6580	0	34.8150	8	27.777	0	1423.749	0	25.5	4	7.8	4	-1E+10	1	-1E+10	1	-1E+10	1	-1E+10	1	-1E+10	1	-1E+10	1
4901784	122	C	11/06/2018	10:46	-133.005	43.024	0	1444.50	0	2.6500	0	34.8160	8	27.779	0	1428.084	0	25.5	4	7.8	4	-1E+10	1	-1E+10	1	-1E+10	1	-1E+10	1	-1E+10	1	-1E+10	1
4901784	122	C	11/06/2018	10:46	-133.005	43.024	0	1449.80	0	2.6350	0	34.8160	8	27.780	0	1433.306	0	25.6	4	7.9	4	-1E+10	1	-1E+10	1	-1E+10	1	-1E+10	1	-1E+10	1	-1E+10	1
4901784	122	C	11/06/2018	10:46	-133.005	43.024	0	1455.10	0	2.6190	0	34.8170	8	27.782	0	1438.528	0	26.1	4	8.0	4	-1E+10	1	-1E+10	1	-1E+10	1	-1E+10	1	-1E+10	1	-1E+10	1
4901784	122	C	11/06/2018	10:46	-133.005	43.024	0	1460.50	0	2.6030	0	34.8190	8	27.785	0	1443.848	0	26.5	4	8.1	4	-1E+10	1	-1E+10	1	-1E+10	1	-1E+10	1	-1E+10	1	-1E+10	1
4901784	122	C	11/06/2018	10:46	-133.005	43.024	0	1465.00	0	2.5920	0	34.8200	8	27.787	0	1448.281	0	26.6	4	8.2	4	-1E+10	1	-1E+10	1	-1E+10	1	-1E+10	1	-1E+10	1	-1E+10	1
4901784	122	C	11/06/2018	10:46	-133.005	43.024	0	1469.50	0	2.5800	0	34.8210	8	27.789	0	1452.714	0	26.8	4	8.2	4	-1E+10	1	-1E+10	1	-1E+10	1	-1E+10	1	-1E+10	1	-1E+10	1
4901784	122	C	11/06/2018	10:46	-133.005	43.024	0	1474.90	0	2.5720	0	34.8220	8	27.790	0	1458.034	0	27.0	4	8.3	4	-1E+10	1	-1E+10	1	-1E+10	1	-1E+10	1	-1E+10	1	-1E+10	1
4901784	122	C	11/06/2018	10:46	-133.005	43.024	0	1480.30	0	2.5680	0	34.8230	8	27.791	0	1463.353	0	27.2	4	8.3	4	-1E+10	1	-1E+10	1	-1E+10	1	-1E+10	1	-1E+10	1	-1E+10	1
4901784	122	C	11/06/2018	10:46	-133.005	43.024	0	1484.80	0	2.5640	0	34.8230	8	27.792	0	1467.786	0	27.4	4	8.4	4	-1E+10	1	-1E+10	1	-1E+10	1	-1E+10	1	-1E+10	1	-1E+10	1
4901784	122	C	11/06/2018	10:46	-133.005	43.024	0	1489.30	0	2.5520	0	34.8240	8	27.794	0	1472.219	0	27.6	4	8.5	4	-1E+10	1	-1E+10	1	-1E+10	1	-1E+10	1	-1E+10	1	-1E+10	1
4901784	122	C	11/06/2018	10:46	-133.005	43.024	0	1494.50	0	2.5440	0	34.8250	8	27.795	0	1477.341	0	27.7	4	8.5	4	-1E+10	1	-1E+10	1	-1E+10	1	-1E+10	1	-1E+10	1	-1E+10	1
4901784	122	C	11/06/2018	10:46	-133.005	43.024	0	1499.50	0	2.5350	0	34.8250	8	27.796	0	1482.266	0	27.8	4	8.5	4	-1E+10	1	-1E+10	1	-1E+10	1	-1E+10	1	-1E+10	1	-1E+10	1
4901784	122	C	11/06/2018	10:46	-133.005	43.024	0	1504.50	0	2.5230	0	34.8270	8	27.799	0	1487.191	0	28.0	4	8.6	4	-1E+10	1	-1E+10	1	-1E+10	1	-1E+10	1	-1E+10	1	-1E+10	1
4901784	122	C	11/06/2018	10:46	-133.005	43.024	0	1509.60	0	2.5170	0	34.8280	8	27.800	0	1492.214	0	28.4	4	8.7	4	-1E+10	1	-1E+10	1	-1E+10	1	-1E+10	1	-1E+10	1	-1E+10	1
4901784	122	C	11/06/2018	10:46	-133.005	43.024	0	1514.60	0	2.5040	0	34.8300	8	27.803	0	1497.139	0	28.8	4	8.8	4	-1E+10	1	-1E+10	1	-1E+10	1	-1E+10	1	-1E+10	1	-1E+10	1
4901784	122	C	11/06/2018	10:46	-133.005	43.024	0	1519.60	0	2.4950	0	34.8310	8	27.804	0	1502.064	0	29.0	4	8.9	4	-1E+10	1	-1E+10	1	-1E+10	1	-1E+10	1	-1E+10	1	-1E+10	1
4901784	122	C	11/06/2018	10:46	-133.005	43.024	0	1524.60	0	2.4900	0	34.8310	8	27.805	0	1506.988	0	29.2	4	8.9	4	-1E+10	1	-1E+10	1	-1E+10	1	-1E+10	1	-1E+10	1	-1E+10	1
4901784	122	C	11/06/2018	10:46	-133.005	43.024	0	1529.70	0	2.4800	0	34.8320	8	27.806	0	1512.011	0	29.7	4	9.1	4	-1E+10	1	-1E+10	1	-1E+10	1	-1E+10	1	-1E+10	1	-1E+10	1
4901784	122	C	11/06/2018	10:46	-133.005	43.024	0	1534.80	0	2.4720	0	34.8340	8	27.809	0	1517.034	0	30.2	4	9.2	4	-1E+10	1	-1E+10	1	-1E+10	1	-1E+10	1	-1E+10	1	-1E+10	1
4901784	122	C	11/06/2018	10:46	-133.005	43.024	0	1539.90	0	2.4620	0	34.8350	8	27.810	0	1522.057	0	30.5	4	9.3	4	-1E+10	1	-1E+10	1	-1E+10	1	-1E+10	1	-1E+10	1	-1E+10	1
4901784	122	C	11/06/2018	10:46	-133.005	43.024	0	1545.10	0	2.4520	0	34.8370	8	27.813	0	1527.178	0	30.8	4	9.4	4	-1E+10	1	-1E+10	1	-1E+10	1	-1E+10	1	-1E+10	1	-1E+10	1
4901784	122	C	11/06/2018	10:46	-133.005	43.024	0	1550.30	0	2.4470	0	34.8370	8	27.813	0	1532.298	0	31.1	4	9.5	4	-1E+10	1	-1E+10	1	-1E+10	1	-1E+10	1	-1E+10	1	-1E+10	1
4901784	122	C	11/06/2018	10:46	-133.005	43.024	0	1555.50	0	2.4410	0	34.8380	8	27.815	0	1537.419	0	31.4	4	9.6	4	-1E+10	1	-1E+10	1	-1E+10	1	-1E+10	1	-1E+10	1	-1E+10	1
4901784	122	C	11/06/2018	10:46	-133.005	43.024	0	1559.90	0	2.4330	0	34.8390	8	27.816	0	1541.752	0	31.6	4	9.7	4	-1E+10	1	-1E+10	1	-1E+10	1	-1E+10	1	-1E+10	1	-1E+10	1
4901784	122	C	11/06/2018	10:46	-133.005	43.024	0	1564.30	0	2.4290	0	34.8390	8	27.816	0	1546.085	0	31.9	4	9.7	4	-1E+10	1	-1E+10	1	-1E+10	1	-1E+10	1	-1E+10	1	-1E+10	1
4901784	122	C	11/06/2018	10:46	-133.005	43.024	0	1569.60	0	2.4190	0	34.8410	8	27.819	0	1551.304	0	32.4	4	9.9	4	-1E+10	1	-1E+10	1	-1E+10	1	-1E+10	1	-1E+10	1	-1E+10	1
4901784	122	C	11/06/2018	10:46	-133.005	43.024	0	1574.90	0	2.4070	0	34.8420	8	27.821	0	1556.522	0	32.9	4	10.0	4	-1E+10	1	-1E+10	1	-1E+10	1	-1E+10	1	-1E+10	1	-1E+10	1
4901784	122	C	11/06/2018	10:46	-133.005	43.024	0	1580.20	0	2.3960	0	34.8440	8	27.823	0	1561.741	0	33.2	4	10.1	4	-1E+10	1	-1E+10	1	-1E+10	1	-1E+10	1	-1E+10	1	-1E+10	1
4901784	122	C	11/06/2018	10:46	-133.005	43.024	0	1585.50	0	2.3890	0	34.8440	8	27.824	0	1566.959	0	33.5	4	10.2	4	-1E+10	1	-1E+10	1	-1E+10	1	-1E+10	1	-1E+10	1	-1E+10	1
4901784	122	C	11/06/2018	10:46	-133.005	43.024	0	1589.90	0	2.3820	0	34.8450	8	27.825	0	1571.292	0	33.9	4	10.3	4	-1E+10	1	-1E+10	1	-1E+10	1	-1E+10	1	-1E+10	1	-1E+10	1
4901784	122	C	11/06/2018	10:46	-133.005	43.024	0	1594.30	0	2.3740	0	34.8470	8	27.828	0	1575.624	0	34.1	4	10.4	4	-1E+10	1	-1E+10	1	-1E+10	1	-1E+10	1	-1E+10	1	-1E+10	1
4901784	122	C	11/06/2018	10:46	-133.005	43.024	0	1599.70	0	2.3670	0	34.8480	8	27.829	0	1580.940	0	34.4	4	10.5	4	-1E+10	1	-1E+10	1	-1E+10	1	-1E+10	1	-1E+10	1	-1E+10	1
4901784	122	C	11/06/2018	10:46	-133.005	43.024	0	1605.20	0	2.3620	0	34.8480	8	27.829	0	1586.355	0	34.7	4	10.6	4	-1E+10	1	-1E+10	1	-1E+10	1	-1E+10	1	-1E+10	1	-1E+10	1
4901784	122	C	11/06/2018	10:46	-133.005	43.024	0	1609.70	0	2.3560	0	34.8490	8	27.831	0	1590.785	0	35.0	4	10.7	4	-1E+10	1	-1E+10	1	-1E+10	1	-1E+10	1	-1E+10	1	-1E+10	1
4901784	122	C	11/06/2018	10:46	-133.005	43.024	0	1614.40	0	2.3520	0	34.8490	8	27.831	0	1595.413	0	35.3	4	10.7	4	-1E+10	1	-1E+10	1	-1E+10	1	-1E+10	1	-1E+10	1	-1E+10	1
4901784	122	C	11/06/2018	10:46	-133.005	43.024	0	1619.90	0	2.3410	0	34.8510	8	27.834	0	1600.827	0	35.7	4	10.9	4	-1E+10	1	-1E+10	1	-1E+10	1	-1E+10	1	-1E+10	1	-1E+10	1
4901784	122	C	11/06/2018	10:46	-133.005	43.024	0	1625.50	0	2.3300	0	34.8520	8	27.835	0	1606.340	0	36.1	4	11.0	4	-1E+10	1	-1E+10	1	-1E+10	1	-1E+10	1	-1E+10	1	-1E+10	1
4901784	122	C	11/06/2018	10:46	-133.005	43.024	0	1630.20	0	2.3230	0	34.8520	8	27.836	0	1610.967	0	36.3	4	11.1	4	-1E+10	1	-1E+10	1	-1E+10	1	-1E+10	1	-1E+10	1	-1E+10	1
4901784	122	C	11/06/2018	10:46	-133.005	43.024	0	1634.80	0	2.3180	0	34.8530	8	27.837	0	1615.495	0	36.5	4	11.1	4	-1E+10	1	-1E+10	1	-1E+10	1	-1E+10	1	-1E+10	1	-1E+10	1
4901784	122	C	11/06/2018	10:46	-133.005	43.024	0	1639.70	0	2.3100	0	34.8540	8	27.839	0	1620.318	0	36.9	4	11.2	4	-1E+10	1	-1E+10	1	-1E+10	1	-1E+10	1	-1E+10	1	-1E+10	1
4901784	122	C	11/06/2018	10:46	-133.005	43.024	0	1644.60	0	2.3060	0	34.8550	8	27.840	0	1625.142	0	37.2	4	11.3	4	-1E+10	1	-1E+10	1	-1E+10	1	-1E+10	1	-1E+10	1	-1E+10	1
4901784	122	C	11/06/2018	10:46	-133.005	43.024	0	1649.50	0	2.2950	0	34.8550	8	27.841	0	1629.965	0	37.6	4	11.4	4	-1E+10	1	-1E+10	1	-1E+10	1	-1E+10	1	-1E+10	1	-1E+10	1
4901784	122	C	11/06/2018	10:46	-133.005	43.024	0	1654.60	0	2.2800	0	34.8560	8	27.843	0	1634.985	0	38.0	4	11.6	4	-1E+10	1	-1E+10	1	-1E+10	1	-1E+10	1	-1E+10	1	-1E+10	1
4901784	122	C	11/06/2018	10:46	-133.005	43.024	0	1659.70	0	2.2710	0	34.8570	8	27.844	0	1640.004	0	38.4	4	11.7	4	-1E+10	1	-1E+10	1	-1E+10	1	-1E+10	1	-1E+10	1	-1E+10	1
4901784	122	C	11/06/2018	10:46	-133.005	43.024	0	1664.80	0	2.2620	0	34.8580	8	27.846	0	1645.024	0	38.8	4	11.8	4	-1E+10	1	-1E+10	1	-1E+10	1	-1E+10	1	-1E+10	1	-1E+10	1
4901784	122	C	11/06/2018	10:46	-133.005	43.024	0	1669.90	0	2.2580	0	34.8590	8	27.847	0	1650.044	0	39.3	4	12.0	4	-1E+10	1	-1E+10	1	-1E+10	1	-1E+10	1	-1E+10	1	-1E+10	1
4901784	122	C	11/06/2018	10:46	-133.005	43.024	0	1675.00	0	2.2510	0	34.8610	8	27.849	0	1655.063	0	39.8	4	12.1	4	-1E+10	1	-1E+10	1	-1E+10	1	-1E+10	1	-1E+10	1	-1E+10	1
4901784	122	C	11/06/2018	10:46	-133.005	43.024	0	1680.20	0	2.2430	0	34.8620	8	27.851	0	1660.181	0	40.2	4	12.2	4	-1E+10	1	-1E+10	1	-1E+10	1	-1E+10	1	-1E+10	1	-1E+10	1
4901784	122	C	11/06/2018	10:46	-133.005	43.024	0	1685.50	0	2.2350	0	34.8630	8	27.852	0	1665.397	0	40.6	4	12.3	4	-1E+10	1	-1E+10	1	-1E+10	1	-1E+10	1	-1E+10	1	-1E+10	1
4901784	122	C	11/06/2018	10:46	-133.005	43.024	0	1689.90	0	2.2320	0	34.8640	8	27.853	0	1669.727	0	40.7	4	12.4	4	-1E+10	1	-1E+10	1	-1E+10	1	-1E+10	1	-1E+10	1	-1E+10	1
4901784	122	C	11/06/2018	10:46	-133.005	43.024	0	1694.30	0	2.2280	0	34.8640	8	27.854	0	1674.057	0	40.9	4	12.4	4	-1E+10	1	-1E+10	1	-1E+10	1	-1E+10	1	-1E+10	1	-1E+10	1
4901784	122	C	11/06/2018	10:46	-133.005	43.024	0	1699.70	0	2.2240	0	34.8640	8	27.854	0	1679.371	0	41.1	4	12.5	4	-1E+10	1	-1E+10	1	-1E+10	1	-1E+10	1	-1E+10	1	-1E+10	1
4901784	122	C	11/06/2018	10:46	-133.005	43.024	0	1705.10	0	2.2170	0	34.8650	8	27.855	0	1684.685	0	41.5	4	12.6	4	-1E+10	1	-1E+10	1	-1E+10	1	-1E+10	1	-1E+10	1	-1E+10	1
4901784	122	C	11/06/2018	10:46	-133.005	43.024	0	1710.50	0	2.2110	0	34.8660	8	27.857	0	1689.999	0	41.9	4	12.7	4	-1E+10	1	-1E+10	1	-1E+10	1	-1E+10	1	-1E+10	1	-1E+10	1
4901784	122	C	11/06/2018	10:46	-133.005	43.024	0	1715.00	0	2.2060	0	34.8660	8	27.857	0	1694.427	0	42.2	4	12.8	4	-1E+10	1	-1E+10	1	-1E+10	1	-1E+10	1	-1E+10	1	-1E+10	1
4901784	122	C	11/06/2018	10:46	-133.005	43.024	0	1719.60	0	2.2010	0	34.8670	8	27.858	0	1698.954	0	42.5	4	12.9	4	-1E+10	1	-1E+10	1	-1E+10	1	-1E+10	1	-1E+10	1	-1E+10	1
4901784	122	C	11/06/2018	10:46	-133.005	43.024	0	1725.00	0	2.1880	0	34.8690	8	27.861	0	1704.267	0	43.0	4	13.1	4	-1E+10	1	-1E+10	1	-1E+10	1	-1E+10	1	-1E+10	1	-1E+10	1
4901784	122	C	11/06/2018	10:46	-133.005	43.024	0	1730.60	0	2.1830	0	34.8700	8	27.862	0	1709.777	0	43.2	4	13.1	4	-1E+10	1	-1E+10	1	-1E+10	1	-1E+10	1	-1E+10	1	-1E+10	1
4901784	122	C	11/06/2018	10:46	-133.005	43.024	0	1735.20	0	2.1800	0	34.8700	8	27.863	0	1714.304	0	43.4	4	13.2	4	-1E+10	1	-1E+10	1	-1E+10	1	-1E+10	1	-1E+10	1	-1E+10	1
4901784	122	C	11/06/2018	10:46	-133.005	43.024	0	1739.80	0	2.1750	0	34.8700	8	27.863	0	1718.830	0	43.6	4	13.2	4	-1E+10	1	-1E+10	1	-1E+10	1	-1E+10	1	-1E+10	1	-1E+10	1
4901784	122	C	11/06/2018	10:46	-133.005	43.024	0	1745.10	0	2.1720	0	34.8710	8	27.864	0	1724.044	0	43.8	4	13.3	4	-1E+10	1	-1E+10	1	-1E+10	1	-1E+10	1	-1E+10	1	-1E+10	1
4901784	122	C	11/06/2018	10:46	-133.005	43.024	0	1749.40	0	2.1690	0	34.8710	8	27.864	0	1728.275	0	44.0	4	13.3	4	-1E+10	1	-1E+10	1	-1E+10	1	-1E+10	1	-1E+10	1	-1E+10	1
4901784	122	C	11/06/2018	10:46	-133.005	43.024	0	1755.10	0	2.1640	0	34.8720	8	27.866	0	1733.883	0	44.3	4	13.4	4	-1E+10	1	-1E+10	1	-1E+10	1	-1E+10	1	-1E+10	1	-1E+10	1
4901784	122	C	11/06/2018	10:46	-133.005	43.024	0	1760.70	0	2.1590	0	34.8730	8	27.867	0	1739.392	0	44.6	4	13.5	4	-1E+10	1	-1E+10	1	-1E+10	1	-1E+10	1	-1E+10	1	-1E+10	1
4901784	122	C	11/06/2018	10:46	-133.005	43.024	0	1765.70	0	2.1540	0	34.8740	8	27.868	0	1744.311	0	45.0	4	13.6	4	-1E+10	1	-1E+10	1	-1E+10	1	-1E+10	1	-1E+10	1	-1E+10	1
4901784	122	C	11/06/2018	10:46	-133.005	43.024	0	1770.70	0	2.1490	0	34.8740	8	27.869	0	1749.230	0	45.3	4	13.7	4	-1E+10	1	-1E+10	1	-1E+10	1	-1E+10	1	-1E+10	1	-1E+10	1
4901784	122	C	11/06/2018	10:46	-133.005	43.024	0	1775.80	0	2.1430	0	34.8750	8	27.870	0	1754.247	0	45.5	4	13.8	4	-1E+10	1	-1E+10	1	-1E+10	1	-1E+10	1	-1E+10	1	-1E+10	1
4901784	122	C	11/06/2018	10:46	-133.005	43.024	0	1780.80	0	2.1390	0	34.8750	8	27.870	0	1759.166	0	45.7	4	13.9	4	-1E+10	1	-1E+10	1	-1E+10	1	-1E+10	1	-1E+10	1	-1E+10	1
4901784	122	C	11/06/2018	10:46	-133.005	43.024	0	1785.00	0	2.1350	0	34.8760	8	27.871	0	1763.297	0	46.0	4	14.0	4	-1E+10	1	-1E+10	1	-1E+10	1	-1E+10	1	-1E+10	1	-1E+10	1
4901784	122	C	11/06/2018	10:46	-133.005	43.024	0	1789.20	0	2.1300	0	34.8770	8	27.873	0	1767.429	0	46.4	4	14.1	4	-1E+10	1	-1E+10	1	-1E+10	1	-1E+10	1	-1E+10	1	-1E+10	1
4901784	122	C	11/06/2018	10:46	-133.005	43.024	0	1794.30	0	2.1220	0	34.8780	8	27.874	0	1772.445	0	46.9	4	14.2	4	-1E+10	1	-1E+10	1	-1E+10	1	-1E+10	1	-1E+10	1	-1E+10	1
4901784	122	C	11/06/2018	10:46	-133.005	43.024	0	1799.40	0	2.1170	0	34.8790	8	27.875	0	1777.462	0	47.2	4	14.3	4	-1E+10	1	-1E+10	1	-1E+10	1	-1E+10	1	-1E+10	1	-1E+10	1
4901784	122	C	11/06/2018	10:46	-133.005	43.024	0	1804.60	0	2.1130	0	34.8790	8	27.876	0	1782.577	0	47.5	4	14.4	4	-1E+10	1	-1E+10	1	-1E+10	1	-1E+10	1	-1E+10	1	-1E+10	1
4901784	122	C	11/06/2018	10:46	-133.005	43.024	0	1809.80	0	2.1060	0	34.8800	8	27.877	0	1787.691	0	48.0	4	14.5	4	-1E+10	1	-1E+10	1	-1E+10	1	-1E+10	1	-1E+10	1	-1E+10	1
4901784	122	C	11/06/2018	10:46	-133.005	43.024	0	1815.00	0	2.0990	0	34.8810	8	27.878	0	1792.806	0	48.4	4	14.7	4	-1E+10	1	-1E+10	1	-1E+10	1	-1E+10	1	-1E+10	1	-1E+10	1
4901784	122	C	11/06/2018	10:46	-133.005	43.024	0	1820.30	0	2.0920	0	34.8820	8	27.880	0	1798.019	0	48.7	4	14.8	4	-1E+10	1	-1E+10	1	-1E+10	1	-1E+10	1	-1E+10	1	-1E+10	1
4901784	122	C	11/06/2018	10:46	-133.005	43.024	0	1825.50	0	2.0850	0	34.8830	8	27.881	0	1803.133	0	49.1	4	14.9	4	-1E+10	1	-1E+10	1	-1E+10	1	-1E+10	1	-1E+10	1	-1E+10	1
4901784	122	C	11/06/2018	10:46	-133.005	43.024	0	1829.90	0	2.0810	0	34.8840	8	27.882	0	1807.460	0	49.3	4	14.9	4	-1E+10	1	-1E+10	1	-1E+10	1	-1E+10	1	-1E+10	1	-1E+10	1
4901784	122	C	11/06/2018	10:46	-133.005	43.024	0	1834.30	0	2.0780	0	34.8850	8	27.883	0	1811.788	0	49.5	4	15.0	4	-1E+10	1	-1E+10	1	-1E+10	1	-1E+10	1	-1E+10	1	-1E+10	1
4901784	122	C	11/06/2018	10:46	-133.005	43.024	0	1839.70	0	2.0740	0	34.8850	8	27.884	0	1817.098	0	49.9	4	15.1	4	-1E+10	1	-1E+10	1	-1E+10	1	-1E+10	1	-1E+10	1	-1E+10	1
4901784	122	C	11/06/2018	10:46	-133.005	43.024	0	1845.10	0	2.0690	0	34.8860	8	27.885	0	1822.409	0	50.3	4	15.2	4	-1E+10	1	-1E+10	1	-1E+10	1	-1E+10	1	-1E+10	1	-1E+10	1
4901784	122	C	11/06/2018	10:46	-133.005	43.024	0	1850.50	0	2.0640	0	34.8870	8	27.886	0	1827.719	0	50.7	4	15.3	4	-1E+10	1	-1E+10	1	-1E+10	1	-1E+10	1	-1E+10	1	-1E+10	1
4901784	122	C	11/06/2018	10:46	-133.005	43.024	0	1855.00	0	2.0550	0	34.8880	8	27.888	0	1832.144	0	51.0	4	15.4	4	-1E+10	1	-1E+10	1	-1E+10	1	-1E+10	1	-1E+10	1	-1E+10	1
4901784	122	C	11/06/2018	10:46	-133.005	43.024	0	1859.50	0	2.0500	0	34.8880	8	27.888	0	1836.570	0	51.4	4	15.5	4	-1E+10	1	-1E+10	1	-1E+10	1	-1E+10	1	-1E+10	1	-1E+10	1
4901784	122	C	11/06/2018	10:46	-133.005	43.024	0	1865.00	0	2.0460	0	34.8890	8	27.889	0	1841.978	0	51.8	4	15.7	4	-1E+10	1	-1E+10	1	-1E+10	1	-1E+10	1	-1E+10	1	-1E+10	1
4901784	122	C	11/06/2018	10:46	-133.005	43.024	0	1870.40	0	2.0410	0	34.8900	8	27.890	0	1847.288	0	52.1	4	15.8	4	-1E+10	1	-1E+10	1	-1E+10	1	-1E+10	1	-1E+10	1	-1E+10	1
4901784	122	C	11/06/2018	10:46	-133.005	43.024	0	1875.00	0	2.0350	0	34.8910	8	27.892	0	1851.811	0	52.4	4	15.9	4	-1E+10	1	-1E+10	1	-1E+10	1	-1E+10	1	-1E+10	1	-1E+10	1
4901784	122	C	11/06/2018	10:46	-133.005	43.024	0	1879.60	0	2.0320	0	34.8910	8	27.892	0	1856.334	0	52.6	4	15.9	4	-1E+10	1	-1E+10	1	-1E+10	1	-1E+10	1	-1E+10	1	-1E+10	1
4901784	122	C	11/06/2018	10:46	-133.005	43.024	0	1885.20	0	2.0290	0	34.8920	8	27.893	0	1861.840	0	52.9	4	16.0	4	-1E+10	1	-1E+10	1	-1E+10	1	-1E+10	1	-1E+10	1	-1E+10	1
4901784	122	C	11/06/2018	10:46	-133.005	43.024	0	1890.70	0	2.0280	0	34.8930	8	27.894	0	1867.248	0	53.2	4	16.1	4	-1E+10	1	-1E+10	1	-1E+10	1	-1E+10	1	-1E+10	1	-1E+10	1
4901784	122	C	11/06/2018	10:46	-133.005	43.024	0	1895.20	0	2.0260	0	34.8940	8	27.895	0	1871.672	0	53.5	4	16.2	4	-1E+10	1	-1E+10	1	-1E+10	1	-1E+10	1	-1E+10	1	-1E+10	1
4901784	122	C	11/06/2018	10:46	-133.005	43.024	0	1899.80	0	2.0200	0	34.8940	8	27.895	0	1876.195	0	53.8	4	16.3	4	-1E+10	1	-1E+10	1	-1E+10	1	-1E+10	1	-1E+10	1	-1E+10	1
4901784	122	C	11/06/2018	10:46	-133.005	43.024	0	1905.20	0	2.0140	0	34.8950	8	27.897	0	1881.504	0	54.1	4	16.4	4	-1E+10	1	-1E+10	1	-1E+10	1	-1E+10	1	-1E+10	1	-1E+10	1
4901784	122	C	11/06/2018	10:46	-133.005	43.024	0	1910.60	0	2.0090	0	34.8950	8	27.897	0	1886.813	0	54.5	4	16.5	4	-1E+10	1	-1E+10	1	-1E+10	1	-1E+10	1	-1E+10	1	-1E+10	1
4901784	122	C	11/06/2018	10:46	-133.005	43.024	0	1915.40	0	2.0050	0	34.8960	8	27.898	0	1891.532	0	54.7	4	16.5	4	-1E+10	1	-1E+10	1	-1E+10	1	-1E+10	1	-1E+10	1	-1E+10	1
4901784	122	C	11/06/2018	10:46	-133.005	43.024	0	1920.30	0	2.0050	0	34.8960	8	27.898	0	1896.349	0	55.0	4	16.6	4	-1E+10	1	-1E+10	1	-1E+10	1	-1E+10	1	-1E+10	1	-1E+10	1
4901784	122	C	11/06/2018	10:46	-133.005	43.024	0	1925.20	0	2.0000	0	34.8970	8	27.900	0	1901.166	0	55.4	4	16.7	4	-1E+10	1	-1E+10	1	-1E+10	1	-1E+10	1	-1E+10	1	-1E+10	1
4901784	122	C	11/06/2018	10:46	-133.005	43.024	0	1930.20	0	1.9910	0	34.8980	8	27.901	0	1906.081	0	55.8	4	16.9	4	-1E+10	1	-1E+10	1	-1E+10	1	-1E+10	1	-1E+10	1	-1E+10	1
4901784	122	C	11/06/2018	10:46	-133.005	43.024	0	1935.10	0	1.9850	0	34.8990	8	27.902	0	1910.898	0	56.2	4	17.0	4	-1E+10	1	-1E+10	1	-1E+10	1	-1E+10	1	-1E+10	1	-1E+10	1
4901784	122	C	11/06/2018	10:46	-133.005	43.024	0	1940.20	0	1.9830	0	34.8990	8	27.903	0	1915.911	0	56.4	4	17.0	4	-1E+10	1	-1E+10	1	-1E+10	1	-1E+10	1	-1E+10	1	-1E+10	1
4901784	122	C	11/06/2018	10:46	-133.005	43.024	0	1945.30	0	1.9810	0	34.9000	8	27.904	0	1920.924	0	56.6	4	17.1	4	-1E+10	1	-1E+10	1	-1E+10	1	-1E+10	1	-1E+10	1	-1E+10	1
4901784	122	C	11/06/2018	10:46	-133.005	43.024	0	1950.40	0	1.9790	0	34.9010	8	27.905	0	1925.937	0	57.0	4	17.2	4	-1E+10	1	-1E+10	1	-1E+10	1	-1E+10	1	-1E+10	1	-1E+10	1
4901784	122	C	11/06/2018	10:46	-133.005	43.024	0	1955.50	0	1.9740	0	34.9020	8	27.906	0	1930.950	0	57.3	4	17.3	4	-1E+10	1	-1E+10	1	-1E+10	1	-1E+10	1	-1E+10	1	-1E+10	1
4901784	122	C	11/06/2018	10:46	-133.005	43.024	0	1960.60	0	1.9720	0	34.9020	8	27.906	0	1935.963	0	57.5	4	17.4	4	-1E+10	1	-1E+10	1	-1E+10	1	-1E+10	1	-1E+10	1	-1E+10	1
4901784	122	C	11/06/2018	10:46	-133.005	43.024	0	1965.00	0	1.9700	0	34.9030	8	27.907	0	1940.288	0	57.7	4	17.4	4	-1E+10	1	-1E+10	1	-1E+10	1	-1E+10	1	-1E+10	1	-1E+10	1
4901784	122	C	11/06/2018	10:46	-133.005	43.024	0	1969.30	0	1.9680	0	34.9030	8	27.907	0	1944.514	0	58.0	4	17.5	4	-1E+10	1	-1E+10	1	-1E+10	1	-1E+10	1	-1E+10	1	-1E+10	1
4901784	122	C	11/06/2018	10:46	-133.005	43.024	0	1974.60	0	1.9620	0	34.9040	8	27.908	0	1949.723	0	58.4	4	17.6	4	-1E+10	1	-1E+10	1	-1E+10	1	-1E+10	1	-1E+10	1	-1E+10	1
4901784	122	C	11/06/2018	10:46	-133.005	43.024	0	1979.80	0	1.9570	0	34.9050	8	27.910	0	1954.834	0	58.7	4	17.7	4	-1E+10	1	-1E+10	1	-1E+10	1	-1E+10	1	-1E+10	1	-1E+10	1
4901784	122	C	11/06/2018	10:46	-133.005	43.024	0	1985.10	0	1.9530	0	34.9050	8	27.910	0	1960.043	0	59.1	4	17.8	4	-1E+10	1	-1E+10	1	-1E+10	1	-1E+10	1	-1E+10	1	-1E+10	1
4901784	122	C	11/06/2018	10:46	-133.005	43.024	0	1990.50	0	1.9480	0	34.9060	8	27.911	0	1965.350	0	59.4	4	17.9	4	-1E+10	1	-1E+10	1	-1E+10	1	-1E+10	1	-1E+10	1	-1E+10	1
4901784	122	C	11/06/2018	10:46	-133.005	43.024	0	1994.90	0	1.9460	0	34.9060	8	27.911	0	1969.674	0	59.6	4	18.0	4	-1E+10	1	-1E+10	1	-1E+10	1	-1E+10	1	-1E+10	1	-1E+10	1
4901784	122	C	11/06/2018	10:46	-133.005	43.024	0	1999.40	0	1.9440	0	34.9070	8	27.912	0	1974.096	0	59.8	4	18.0	4	-1E+10	1	-1E+10	1	-1E+10	1	-1E+10	1	-1E+10	1	-1E+10	1
4901784	122	C	11/06/2018	10:46	-133.005	43.024	0	2005.40	0	1.9400	0	34.9070	8	27.913	0	1979.992	0	60.1	4	18.1	4	-1E+10	1	-1E+10	1	-1E+10	1	-1E+10	1	-1E+10	1	-1E+10	1
4901784	122	C	11/06/2018	10:46	-133.005	43.024	0	2010.30	0	1.9360	0	34.9080	8	27.914	0	1984.807	0	60.4	4	18.2	4	-1E+10	1	-1E+10	1	-1E+10	1	-1E+10	1	-1E+10	1	-1E+10	1
4901784	122	C	11/06/2018	10:46	-133.005	43.024	0	2015.50	0	1.9330	0	34.9090	8	27.915	0	1989.917	0	60.6	4	18.3	4	-1E+10	1	-1E+10	1	-1E+10	1	-1E+10	1	-1E+10	1	-1E+10	1
4901784	122	C	11/06/2018	10:46	-133.005	43.024	0	2020.30	0	1.9330	0	34.9090	8	27.915	0	1994.634	0	60.7	4	18.3	4	-1E+10	1	-1E+10	1	-1E+10	1	-1E+10	1	-1E+10	1	-1E+10	1
4901784	122	C	11/06/2018	10:46	-133.005	43.024	0																										
4901784	123	C	11/16/2018	10:42	-133.148	42.996	0	2.40	0	16.3500	0	33.1140	8	24.219	0	2.381	0	236.5	4	96.7	4	-1E+10	1	-1E+10	1	-1E+10	1	-1E+10	1	-1E+10	1	-1E+10	1
4901784	123	C	11/16/2018	10:42	-133.148	42.996	0	4.10	0	16.3490	0	33.1140	8	24.219	0	4.067	0	236.5	4	96.7	4	-1E+10	1	-1E+10	1	-1E+10	1	-1E+10	1	-1E+10	1	-1E+10	1
4901784	123	C	11/16/2018	10:42	-133.148	42.996	0	5.80	0	16.3520	0	33.1140	8	24.218	0	5.754	0	236.5	4	96.7	4	-1E+10	1	-1E+10	1	-1E+10	1	-1E+10	1	-1E+10	1	-1E+10	1
4901784	123	C	11/16/2018	10:42	-133.148	42.996	0	7.60	0	16.3520	0	33.1140	8	24.218	0	7.540	0	236.3	4	96.6	4	-1E+10	1	-1E+10	1	-1E+10	1	-1E+10	1	-1E+10	1	-1E+10	1
4901784	123	C	11/16/2018	10:42	-133.148	42.996	0	9.50	0	16.3530	0	33.1140	8	24.218	0	9.424	0	236.5	4	96.7	4	-1E+10	1	-1E+10	1	-1E+10	1	-1E+10	1	-1E+10	1	-1E+10	1
4901784	123	C	11/16/2018	10:42	-133.148	42.996	0	11.40	0	16.3530	0	33.1140	8	24.218	0	11.309	0	236.2	4	96.6	4	-1E+10	1	-1E+10	1	-1E+10	1	-1E+10	1	-1E+10	1	-1E+10	1
4901784	123	C	11/16/2018	10:42	-133.148	42.996	0	13.30	0	16.3550	0	33.1140	8	24.218	0	13.194	0	236.1	4	96.6	4	-1E+10	1	-1E+10	1	-1E+10	1	-1E+10	1	-1E+10	1	-1E+10	1
4901784	123	C	11/16/2018	10:42	-133.148	42.996	0	15.20	0	16.3550	0	33.1140	8	24.218	0	15.079	0	236.0	4	96.5	4	-1E+10	1	-1E+10	1	-1E+10	1	-1E+10	1	-1E+10	1	-1E+10	1
4901784	123	C	11/16/2018	10:42	-133.148	42.996	0	17.00	0	16.3560	0	33.1140	8	24.218	0	16.864	0	235.9	4	96.5	4	-1E+10	1	-1E+10	1	-1E+10	1	-1E+10	1	-1E+10	1	-1E+10	1
4901784	123	C	11/16/2018	10:42	-133.148	42.996	0	18.80	0	16.3560	0	33.1140	8	24.218	0	18.650	0	235.6	4	96.4	4	-1E+10	1	-1E+10	1	-1E+10	1	-1E+10	1	-1E+10	1	-1E+10	1
4901784	123	C	11/16/2018	10:42	-133.148	42.996	0	20.80	0	16.3580	0	33.1140	8	24.218	0	20.634	0	235.6	4	96.4	4	-1E+10	1	-1E+10	1	-1E+10	1	-1E+10	1	-1E+10	1	-1E+10	1
4901784	123	C	11/16/2018	10:42	-133.148	42.996	0	22.80	0	16.3590	0	33.1130	8	24.217	0	22.618	0	235.5	4	96.3	4	-1E+10	1	-1E+10	1	-1E+10	1	-1E+10	1	-1E+10	1	-1E+10	1
4901784	123	C	11/16/2018	10:42	-133.148	42.996	0	24.80	0	16.3590	0	33.1130	8	24.217	0	24.602	0	235.3	4	96.3	4	-1E+10	1	-1E+10	1	-1E+10	1	-1E+10	1	-1E+10	1	-1E+10	1
4901784	123	C	11/16/2018	10:42	-133.148	42.996	0	26.90	0	16.3590	0	33.1130	8	24.217	0	26.685	0	235.4	4	96.3	4	-1E+10	1	-1E+10	1	-1E+10	1	-1E+10	1	-1E+10	1	-1E+10	1
4901784	123	C	11/16/2018	10:42	-133.148	42.996	0	28.90	0	16.3590	0	33.1140	8	24.218	0	28.669	0	235.1	4	96.2	4	-1E+10	1	-1E+10	1	-1E+10	1	-1E+10	1	-1E+10	1	-1E+10	1
4901784	123	C	11/16/2018	10:42	-133.148	42.996	0	30.90	0	16.3580	0	33.1130	8	24.217	0	30.653	0	234.8	4	96.0	4	-1E+10	1	-1E+10	1	-1E+10	1	-1E+10	1	-1E+10	1	-1E+10	1
4901784	123	C	11/16/2018	10:42	-133.148	42.996	0	32.90	0	16.3580	0	33.1120	8	24.216	0	32.636	0	235.0	4	96.1	4	-1E+10	1	-1E+10	1	-1E+10	1	-1E+10	1	-1E+10	1	-1E+10	1
4901784	123	C	11/16/2018	10:42	-133.148	42.996	0	35.00	0	16.3590	0	33.1120	8	24.216	0	34.719	0	234.8	4	96.0	4	-1E+10	1	-1E+10	1	-1E+10	1	-1E+10	1	-1E+10	1	-1E+10	1
4901784	123	C	11/16/2018	10:42	-133.148	42.996	0	36.90	0	16.3580	0	33.1120	8	24.217	0	36.604	0	234.6	4	95.9	4	-1E+10	1	-1E+10	1	-1E+10	1	-1E+10	1	-1E+10	1	-1E+10	1
4901784	123	C	11/16/2018	10:42	-133.148	42.996	0	38.80	0	16.3590	0	33.1110	8	24.216	0	38.489	0	234.5	4	95.9	4	-1E+10	1	-1E+10	1	-1E+10	1	-1E+10	1	-1E+10	1	-1E+10	1
4901784	123	C	11/16/2018	10:42	-133.148	42.996	0	41.20	0	16.3490	0	33.1190	8	24.224	0	40.869	0	234.5	4	95.9	4	-1E+10	1	-1E+10	1	-1E+10	1	-1E+10	1	-1E+10	1	-1E+10	1
4901784	123	C	11/16/2018	10:42	-133.148	42.996	0	43.10	0	16.3370	0	33.1220	8	24.229	0	42.754	0	234.5	4	95.9	4	-1E+10	1	-1E+10	1	-1E+10	1	-1E+10	1	-1E+10	1	-1E+10	1
4901784	123	C	11/16/2018	10:42	-133.148	42.996	0	44.70	0	16.3360	0	33.1230	8	24.230	0	44.341	0	234.7	4	96.0	4	-1E+10	1	-1E+10	1	-1E+10	1	-1E+10	1	-1E+10	1	-1E+10	1
4901784	123	C	11/16/2018	10:42	-133.148	42.996	0	46.20	0	16.3360	0	33.1210	8	24.229	0	45.828	0	234.8	4	96.0	4	-1E+10	1	-1E+10	1	-1E+10	1	-1E+10	1	-1E+10	1	-1E+10	1
4901784	123	C	11/16/2018	10:42	-133.148	42.996	0	47.80	0	16.3360	0	33.1240	8	24.231	0	47.415	0	235.4	4	96.3	4	-1E+10	1	-1E+10	1	-1E+10	1	-1E+10	1	-1E+10	1	-1E+10	1
4901784	123	C	11/16/2018	10:42	-133.148	42.996	0	49.30	0	16.3400	0	33.1340	8	24.238	0	48.903	0	236.5	4	96.7	4	-1E+10	1	-1E+10	1	-1E+10	1	-1E+10	1	-1E+10	1	-1E+10	1
4901784	123	C	11/16/2018	10:42	-133.148	42.996	0	50.70	0	16.3430	0	33.1420	8	24.244	0	50.292	0	237.7	4	97.2	4	-1E+10	1	-1E+10	1	-1E+10	1	-1E+10	1	-1E+10	1	-1E+10	1
4901784	123	C	11/16/2018	10:42	-133.148	42.996	0	52.10	0	16.3340	0	33.1390	8	24.243	0	51.680	0	239.5	4	98.0	4	-1E+10	1	-1E+10	1	-1E+10	1	-1E+10	1	-1E+10	1	-1E+10	1
4901784	123	C	11/16/2018	10:42	-133.148	42.996	0	53.50	0	16.2910	0	33.1180	8	24.237	0	53.069	0	242.5	4	99.1	4	-1E+10	1	-1E+10	1	-1E+10	1	-1E+10	1	-1E+10	1	-1E+10	1
4901784	123	C	11/16/2018	10:42	-133.148	42.996	0	55.00	0	15.8870	0	33.0940	8	24.310	0	54.556	0	247.6	4	100.4	4	-1E+10	1	-1E+10	1	-1E+10	1	-1E+10	1	-1E+10	1	-1E+10	1
4901784	123	C	11/16/2018	10:42	-133.148	42.996	0	56.50	0	15.5020	0	33.0500	8	24.362	0	56.044	0	254.2	4	102.2	4	-1E+10	1	-1E+10	1	-1E+10	1	-1E+10	1	-1E+10	1	-1E+10	1
4901784	123	C	11/16/2018	10:42	-133.148	42.996	0	58.00	0	14.3500	0	33.0280	8	24.593	0	57.532	0	262.9	4	103.3	4	-1E+10	1	-1E+10	1	-1E+10	1	-1E+10	1	-1E+10	1	-1E+10	1
4901784	123	C	11/16/2018	10:42	-133.148	42.996	0	60.00	0	13.2930	0	33.0080	8	24.794	0	59.515	0	270.6	4	104.1	4	-1E+10	1	-1E+10	1	-1E+10	1	-1E+10	1	-1E+10	1	-1E+10	1
4901784	123	C	11/16/2018	10:42	-133.148	42.996	0	60.50	0	13.2040	0	33.0060	8	24.810	0	60.011	0	271.9	4	104.4	4	-1E+10	1	-1E+10	1	-1E+10	1	-1E+10	1	-1E+10	1	-1E+10	1
4901784	123	C	11/16/2018	10:42	-133.148	42.996	0	62.00	0	12.8450	0	33.0240	8	24.895	0	61.499	0	273.4	4	104.2	4	-1E+10	1	-1E+10	1	-1E+10	1	-1E+10	1	-1E+10	1	-1E+10	1
4901784	123	C	11/16/2018	10:42	-133.148	42.996	0	63.40	0	12.2570	0	33.0000	8	24.990	0	62.887	0	277.9	4	104.6	4	-1E+10	1	-1E+10	1	-1E+10	1	-1E+10	1	-1E+10	1	-1E+10	1
4901784	123	C	11/16/2018	10:42	-133.148	42.996	0	65.00	0	12.1490	0	32.9970	8	25.008	0	64.474	0	278.2	4	104.5	4	-1E+10	1	-1E+10	1	-1E+10	1	-1E+10	1	-1E+10	1	-1E+10	1
4901784	123	C	11/16/2018	10:42	-133.148	42.996	0	66.60	0	12.0580	0	32.9940	8	25.023	0	66.061	0	277.9	4	104.2	4	-1E+10	1	-1E+10	1	-1E+10	1	-1E+10	1	-1E+10	1	-1E+10	1
4901784	123	C	11/16/2018	10:42	-133.148	42.996	0	68.20	0	11.9760	0	32.9820	8	25.029	0	67.648	0	277.4	4	103.8	4	-1E+10	1	-1E+10	1	-1E+10	1	-1E+10	1	-1E+10	1	-1E+10	1
4901784	123	C	11/16/2018	10:42	-133.148	42.996	0	69.80	0	11.7290	0	32.9830	8	25.075	0	69.234	0	278.1	4	103.5	4	-1E+10	1	-1E+10	1	-1E+10	1	-1E+10	1	-1E+10	1	-1E+10	1
4901784	123	C	11/16/2018	10:42	-133.148	42.996	0	71.40	0	11.3940	0	32.9890	8	25.141	0	70.821	0	278.4	4	102.9	4	-1E+10	1	-1E+10	1	-1E+10	1	-1E+10	1	-1E+10	1	-1E+10	1
4901784	123	C	11/16/2018	10:42	-133.148	42.996	0	73.00	0	11.2680	0	32.9970	8	25.170	0	72.408	0	278.0	4	102.5	4	-1E+10	1	-1E+10	1	-1E+10	1	-1E+10	1	-1E+10	1	-1E+10	1
4901784	123	C	11/16/2018	10:42	-133.148	42.996	0	74.80	0	11.1730	0	32.9960	8	25.187	0	74.193	0	276.4	4	101.7	4	-1E+10	1	-1E+10	1	-1E+10	1	-1E+10	1	-1E+10	1	-1E+10	1
4901784	123	C	11/16/2018	10:42	-133.148	42.996	0	76.30	0	11.0420	0	32.9890	8	25.204	0	75.681	0	275.5	4	101.1	4	-1E+10	1	-1E+10	1	-1E+10	1	-1E+10	1	-1E+10	1	-1E+10	1
4901784	123	C	11/16/2018	10:42	-133.148	42.996	0	78.10	0	10.6730	0	33.0040	8	25.281	0	77.466	0	274.7	4	100.0	4	-1E+10	1	-1E+10	1	-1E+10	1	-1E+10	1	-1E+10	1	-1E+10	1
4901784	123	C	11/16/2018	10:42	-133.148	42.996	0	79.70	0	10.5250	0	32.9750	8	25.284	0	79.052	0	274.1	4	99.5	4	-1E+10	1	-1E+10	1	-1E+10	1	-1E+10	1	-1E+10	1	-1E+10	1
4901784	123	C	11/16/2018	10:42	-133.148	42.996	0	81.40	0	10.2470	0	32.9610	8	25.321	0	80.738	0	273.0	4	98.5	4	-1E+10	1	-1E+10	1	-1E+10	1	-1E+10	1	-1E+10	1	-1E+10	1
4901784	123	C	11/16/2018	10:42	-133.148	42.996	0	83.20	0	10.2090	0	32.9700	8	25.334	0	82.523	0	270.5	4	97.5	4	-1E+10	1	-1E+10	1	-1E+10	1	-1E+10	1	-1E+10	1	-1E+10	1
4901784	123	C	11/16/2018	10:42	-133.148	42.996	0	84.80	0	10.1680	0	32.9720	8	25.343	0	84.110	0	267.9	4	96.5	4	-1E+10	1	-1E+10	1	-1E+10	1	-1E+10	1	-1E+10	1	-1E+10	1
4901784	123	C	11/16/2018	10:42	-133.148	42.996	0	86.60	0	10.1700	0	33.0080	8	25.370	0	85.895	0	264.7	4	95.4	4	-1E+10	1	-1E+10	1	-1E+10	1	-1E+10	1	-1E+10	1	-1E+10	1
4901784	123	C	11/16/2018	10:42	-133.148	42.996	0	88.40	0	9.9740	0	33.0050	8	25.401	0	87.680	0	263.0	4	94.3	4	-1E+10	1	-1E+10	1	-1E+10	1	-1E+10	1	-1E+10	1	-1E+10	1
4901784	123	C	11/16/2018	10:42	-133.148	42.996	0	90.20	0	9.8150	0	32.9910	8	25.416	0	89.465	0	262.9	4	94.0	4	-1E+10	1	-1E+10	1	-1E+10	1	-1E+10	1	-1E+10	1	-1E+10	1
4901784	123	C	11/16/2018	10:42	-133.148	42.996	0	92.00	0	9.8390	0	33.0000	8	25.419	0	91.250	0	261.0	4	93.4	4	-1E+10	1	-1E+10	1	-1E+10	1	-1E+10	1	-1E+10	1	-1E+10	1
4901784	123	C	11/16/2018	10:42	-133.148	42.996	0	93.80	0	9.8640	0	33.0060	8	25.420	0	93.035	0	259.4	4	92.8	4	-1E+10	1	-1E+10	1	-1E+10	1	-1E+10	1	-1E+10	1	-1E+10	1
4901784	123	C	11/16/2018	10:42	-133.148	42.996	0	95.60	0	9.8420	0	33.0070	8	25.424	0	94.820	0	257.2	4	92.0	4	-1E+10	1	-1E+10	1	-1E+10	1	-1E+10	1	-1E+10	1	-1E+10	1
4901784	123	C	11/16/2018	10:42	-133.148	42.996	0	97.40	0	9.7210	0	33.0030	8	25.441	0	96.604	0	256.1	4	91.4	4	-1E+10	1	-1E+10	1	-1E+10	1	-1E+10	1	-1E+10	1	-1E+10	1
4901784	123	C	11/16/2018	10:42	-133.148	42.996	0	99.20	0	9.5860	0	32.9970	8	25.459	0	98.389	0	254.7	4	90.6	4	-1E+10	1	-1E+10	1	-1E+10	1	-1E+10	1	-1E+10	1	-1E+10	1
4901784	123	C	11/16/2018	10:42	-133.148	42.996	0	103.00	0	9.3250	0	32.9940	8	25.498	0	102.157	0	253.7	4	89.7	4	-1E+10	1	-1E+10	1	-1E+10	1	-1E+10	1	-1E+10	1	-1E+10	1
4901784	123	C	11/16/2018	10:42	-133.148	42.996	0	104.80	0	9.2780	0	32.9950	8	25.507	0	103.942	0	252.8	4	89.3	4	-1E+10	1	-1E+10	1	-1E+10	1	-1E+10	1	-1E+10	1	-1E+10	1
4901784	123	C	11/16/2018	10:42	-133.148	42.996	0	107.60	0	9.1990	0	32.9960	8	25.520	0	106.718	0	251.5	4	88.7	4	-1E+10	1	-1E+10	1	-1E+10	1	-1E+10	1	-1E+10	1	-1E+10	1
4901784	123	C	11/16/2018	10:42	-133.148	42.996	0	110.30	0	9.1400	0	33.0050	8	25.536	0	109.396	0	249.8	4	88.0	4	-1E+10	1	-1E+10	1	-1E+10	1	-1E+10	1	-1E+10	1	-1E+10	1
4901784	123	C	11/16/2018	10:42	-133.148	42.996	0	112.20	0	9.1470	0	33.0120	8	25.541	0	111.280	0	248.4	4	87.5	4	-1E+10	1	-1E+10	1	-1E+10	1	-1E+10	1	-1E+10	1	-1E+10	1
4901784	123	C	11/16/2018	10:42	-133.148	42.996	0	115.00	0	9.0610	0	33.0490	8	25.583	0	114.056	0	246.6	4	86.8	4	-1E+10	1	-1E+10	1	-1E+10	1	-1E+10	1	-1E+10	1	-1E+10	1
4901784	123	C	11/16/2018	10:42	-133.148	42.996	0	117.80	0	8.9970	0	33.0590	8	25.601	0	116.832	0	245.4	4	86.2	4	-1E+10	1	-1E+10	1	-1E+10	1	-1E+10	1	-1E+10	1	-1E+10	1
4901784	123	C	11/16/2018	10:42	-133.148	42.996	0	119.70	0	8.9090	0	33.0760	8	25.628	0	118.716	0	244.1	4	85.6	4	-1E+10	1	-1E+10	1	-1E+10	1	-1E+10	1	-1E+10	1	-1E+10	1
4901784	123	C	11/16/2018	10:42	-133.148	42.996	0	122.70	0	8.6690	0	33.1210	8	25.701	0	121.690	0	243.4	4	85.0	4	-1E+10	1	-1E+10	1	-1E+10	1	-1E+10	1	-1E+10	1	-1E+10	1
4901784	123	C	11/16/2018	10:42	-133.148	42.996	0	125.00	0	8.5320	0	33.1590	8	25.751	0	123.971	0	242.8	4	84.5	4	-1E+10	1	-1E+10	1	-1E+10	1	-1E+10	1	-1E+10	1	-1E+10	1
4901784	123	C	11/16/2018	10:42	-133.148	42.996	0	127.40	0	8.4820	0	33.1880	8	25.782	0	126.350	0	242.0	4	84.1	4	-1E+10	1	-1E+10	1	-1E+10	1	-1E+10	1	-1E+10	1	-1E+10	1
4901784	123	C	11/16/2018	10:42	-133.148	42.996	0	129.70	0	8.4490	0	33.2010	8	25.797	0	128.631	0	240.7	4	83.6	4	-1E+10	1	-1E+10	1	-1E+10	1	-1E+10	1	-1E+10	1	-1E+10	1
4901784	123	C	11/16/2018	10:42	-133.148	42.996	0	132.90	0	8.3530	0	33.2500	8	25.850	0	131.803	0	239.0	4	82.9	4	-1E+10	1	-1E+10	1	-1E+10	1	-1E+10	1	-1E+10	1	-1E+10	1
4901784	123	C	11/16/2018	10:42	-133.148	42.996	0	135.40	0	8.3280	0	33.2640	8	25.864	0	134.282	0	237.5	4	82.3	4	-1E+10	1	-1E+10	1	-1E+10	1	-1E+10	1	-1E+10	1	-1E+10	1
4901784	123	C	11/16/2018	10:42	-133.148	42.996	0	137.80	0	8.2710	0	33.2880	8	25.892	0	136.661	0	235.2	4	81.4	4	-1E+10	1	-1E+10	1	-1E+10	1	-1E+10	1	-1E+10	1	-1E+10	1
4901784	123	C	11/16/2018	10:42	-133.148	42.996	0	140.30	0	8.1480	0	33.3700	8	25.974	0	139.140	0	232.5	4	80.3	4	-1E+10	1	-1E+10	1	-1E+10	1	-1E+10	1	-1E+10	1	-1E+10	1
4901784	123	C	11/16/2018	10:42	-133.148	42.996	0	142.00	0	8.1350	0	33.4270	8	26.021	0	140.825	0	230.8	4	79.8	4	-1E+10	1	-1E+10	1	-1E+10	1	-1E+10	1	-1E+10	1	-1E+10	1
4901784	123	C	11/16/2018	10:42	-133.148	42.996	0	144.80	0	8.0580	0	33.5030	8	26.092	0	143.601	0	228.6	4	78.9	4	-1E+10	1	-1E+10	1	-1E+10	1	-1E+10	1	-1E+10	1	-1E+10	1
4901784	123	C	11/16/2018	10:42	-133.148	42.996	0	147.50	0	8.0140	0	33.5300	8	26.120	0	146.277	0	225.6	4	77.8	4	-1E+10	1	-1E+10	1	-1E+10	1	-1E+10	1	-1E+10	1	-1E+10	1
4901784	123	C	11/16/2018	10:42	-133.148	42.996	0	149.80	0	8.0240	0	33.5690	8	26.149	0	148.558	0	221.3	4	76.4	4	-1E+10	1	-1E+10	1	-1E+10	1	-1E+10	1	-1E+10	1	-1E+10	1
4901784	123	C	11/16/2018	10:42	-133.148	42.996	0	152.90	0	8.0740	0	33.6350	8	26.193	0	151.631	0	214.3	4	74.1	4	-1E+10	1	-1E+10	1	-1E+10	1	-1E+10	1	-1E+10	1	-1E+10	1
4901784	123	C	11/16/2018	10:42	-133.148	42.996	0	155.20	0	8.1180	0	33.6780	8	26.221	0	153.911	0	208.6	4	72.2	4	-1E+10	1	-1E+10	1	-1E+10	1	-1E+10	1	-1E+10	1	-1E+10	1
4901784	123	C	11/16/2018	10:42	-133.148	42.996	0	157.70	0	8.1920	0	33.7380	8	26.257	0	156.389	0	203.1	4	70.5	4	-1E+10	1	-1E+10	1	-1E+10	1	-1E+10	1	-1E+10	1	-1E+10	1
4901784	123	C	11/16/2018	10:42	-133.148	42.996	0	160.20	0	8.2270	0	33.8040	8	26.303	0	158.867	0	198.7	4	69.0	4	-1E+10	1	-1E+10	1	-1E+10	1	-1E+10	1	-1E+10	1	-1E+10	1
4901784	123	C	11/16/2018	10:42	-133.148	42.996	0	162.80	0	8.2500	0	33.8510	8	26.337	0	161.445	0	194.8	4	67.7	4	-1E+10	1	-1E+10	1	-1E+10	1	-1E+10	1	-1E+10	1	-1E+10	1
4901784	123	C	11/16/2018	10:42	-133.148	42.996	0	165.40	0	8.2790	0	33.9050	8	26.375	0	164.022	0	191.0	4	66.5	4	-1E+10	1	-1E+10	1	-1E+10	1	-1E+10	1	-1E+10	1	-1E+10	1
4901784	123	C	11/16/2018	10:42	-133.148	42.996	0	167.20	0	8.3040	0	33.9590	8	26.414	0	165.806	0	188.7	4	65.7	4	-1E+10	1	-1E+10	1	-1E+10	1	-1E+10	1	-1E+10	1	-1E+10	1
4901784	123	C	11/16/2018	10:42	-133.148	42.996	0	169.90	0	8.3190	0	33.9950	8	26.440	0	168.483	0	186.9	4	65.1	4	-1E+10	1	-1E+10	1	-1E+10	1	-1E+10	1	-1E+10	1	-1E+10	1
4901784	123	C	11/16/2018	10:42	-133.148	42.996	0	172.50	0	8.3250	0	34.0180	8	26.457	0	171.060	0	185.4	4	64.6	4	-1E+10	1	-1E+10	1	-1E+10	1	-1E+10	1	-1E+10	1	-1E+10	1
4901784	123	C	11/16/2018	10:42	-133.148	42.996	0	175.10	0	8.3290	0	34.0330	8	26.468	0	173.637	0	183.6	4	64.0	4	-1E+10	1	-1E+10	1	-1E+10	1	-1E+10	1	-1E+10	1	-1E+10	1
4901784	123	C	11/16/2018	10:42	-133.148	42.996	0	177.70	0	8.3330	0	34.0540	8	26.484	0	176.214	0	181.5	4	63.3	4	-1E+10	1	-1E+10	1	-1E+10	1	-1E+10	1	-1E+10	1	-1E+10	1
4901784	123	C	11/16/2018	10:42	-133.148	42.996	0	179.50	0	8.3400	0	34.0720	8	26.497	0	177.998	0	180.0	4	62.8	4	-1E+10	1	-1E+10	1	-1E+10	1	-1E+10	1	-1E+10	1	-1E+10	1
4901784	123	C	11/16/2018	10:42	-133.148	42.996	0	182.10	0	8.3420	0	34.1060	8	26.523	0	180.576	0	177.6	4	62.0	4	-1E+10	1	-1E+10	1	-1E+10	1	-1E+10	1	-1E+10	1	-1E+10	1
4901784	123	C	11/16/2018	10:42	-133.148	42.996	0	185.20	0	8.3500	0	34.1280	8	26.540	0	183.648	0	174.4	4	60.9	4	-1E+10	1	-1E+10	1	-1E+10	1	-1E+10	1	-1E+10	1	-1E+10	1
4901784	123	C	11/16/2018	10:42	-133.148	42.996	0	187.80	0	8.3540	0	34.1690	8	26.571	0	186.225	0	171.2	4	59.8	4	-1E+10	1	-1E+10	1	-1E+10	1	-1E+10	1	-1E+10	1	-1E+10	1
4901784	123	C	11/16/2018	10:42	-133.148	42.996	0	190.10	0	8.3450	0	34.2050	8	26.601	0	188.505	0	169.5	4	59.2	4	-1E+10	1	-1E+10	1	-1E+10	1	-1E+10	1	-1E+10	1	-1E+10	1
4901784	123	C	11/16/2018	10:42	-133.148	42.996	0	192.40	0	8.3360	0	34.2190	8	26.613	0	190.785	0	168.5	4	58.8	4	-1E+10	1	-1E+10	1	-1E+10	1	-1E+10	1	-1E+10	1	-1E+10	1
4901784	123	C	11/16/2018	10:42	-133.148	42.996	0	195.40	0	8.3030	0	34.2550	8	26.647	0	193.758	0	167.2	4	58.4	4	-1E+10	1	-1E+10	1	-1E+10	1	-1E+10	1	-1E+10	1	-1E+10	1
4901784	123	C	11/16/2018	10:42	-133.148	42.996	0	197.80	0	8.2810	0	34.2690	8	26.661	0	196.137	0	166.7	4	58.2	4	-1E+10	1	-1E+10	1	-1E+10	1	-1E+10	1	-1E+10	1	-1E+10	1
4901784	123	C	11/16/2018	10:42	-133.148	42.996	0	200.20	0	8.2440	0	34.2850	8	26.679	0	198.515	0	166.2	4	57.9	4	-1E+10	1	-1E+10	1	-1E+10	1	-1E+10	1	-1E+10	1	-1E+10	1
4901784	123	C	11/16/2018	10:42	-133.148	42.996	0	202.60	0	8.2250	0	34.2900	8	26.686	0	200.894	0	165.6	4	57.7	4	-1E+10	1	-1E+10	1	-1E+10	1	-1E+10	1	-1E+10	1	-1E+10	1
4901784	123	C	11/16/2018	10:42	-133.148	42.996	0	205.00	0	8.1900	0	34.2970	8	26.697	0	203.273	0	165.1	4	57.5	4	-1E+10	1	-1E+10	1	-1E+10	1	-1E+10	1	-1E+10	1	-1E+10	1
4901784	123	C	11/16/2018	10:42	-133.148	42.996	0	207.50	0	8.1800	0	34.2970	8	26.698	0	205.750	0	164.8	4	57.4	4	-1E+10	1	-1E+10	1	-1E+10	1	-1E+10	1	-1E+10	1	-1E+10	1
4901784	123	C	11/16/2018	10:42	-133.148	42.996	0	209.90	0	8.1620	0	34.3010	8	26.704	0	208.129	0	164.3	4	57.2	4	-1E+10	1	-1E+10	1	-1E+10	1	-1E+10	1	-1E+10	1	-1E+10	1
4901784	123	C	11/16/2018	10:42	-133.148	42.996	0	212.40	0	8.1550	0	34.3010	8	26.705	0	210.606	0	163.8	4	57.0	4	-1E+10	1	-1E+10	1	-1E+10	1	-1E+10	1	-1E+10	1	-1E+10	1
4901784	123	C	11/16/2018	10:42	-133.148	42.996	0	214.90	0	8.1440	0	34.3020	8	26.708	0	213.084	0	163.2	4	56.8	4	-1E+10	1	-1E+10	1	-1E+10	1	-1E+10	1	-1E+10	1	-1E+10	1
4901784	123	C	11/16/2018	10:42	-133.148	42.996	0	217.50	0	8.1220	0	34.3040	8	26.713	0	215.661	0	162.3	4	56.4	4	-1E+10	1	-1E+10	1	-1E+10	1	-1E+10	1	-1E+10	1	-1E+10	1
4901784	123	C	11/16/2018	10:42	-133.148	42.996	0	219.90	0	8.0920	0	34.3060	8	26.719	0	218.039	0	161.4	4	56.1	4	-1E+10	1	-1E+10	1	-1E+10	1	-1E+10	1	-1E+10	1	-1E+10	1
4901784	123	C	11/16/2018	10:42	-133.148	42.996	0	222.40	0	8.0620	0	34.3080	8	26.725	0	220.517	0	160.2	4	55.6	4	-1E+10	1	-1E+10	1	-1E+10	1	-1E+10	1	-1E+10	1	-1E+10	1
4901784	123	C	11/16/2018	10:42	-133.148	42.996	0	224.90	0	8.0100	0	34.3070	8	26.732	0	222.994	0	158.8	4	55.1	4	-1E+10	1	-1E+10	1	-1E+10	1	-1E+10	1	-1E+10	1	-1E+10	1
4901784	123	C	11/16/2018	10:42	-133.148	42.996	0	227.40	0	7.9750	0	34.3070	8	26.737	0	225.472	0	158.1	4	54.8	4	-1E+10	1	-1E+10	1	-1E+10	1	-1E+10	1	-1E+10	1	-1E+10	1
4901784	123	C	11/16/2018	10:42	-133.148	42.996	0	230.00	0	7.9590	0	34.3070	8	26.739	0	228.048	0	157.5	4	54.6	4	-1E+10	1	-1E+10	1	-1E+10	1	-1E+10	1	-1E+10	1	-1E+10	1
4901784	123	C	11/16/2018	10:42	-133.148	42.996	0	232.50	0	7.9150	0	34.3090	8	26.747	0	230.526	0	157.0	4	54.3	4	-1E+10	1	-1E+10	1	-1E+10	1	-1E+10	1	-1E+10	1	-1E+10	1
4901784	123	C	11/16/2018	10:42	-133.148	42.996	0	235.10	0	7.9090	0	34.3100	8	26.749	0	233.102	0	156.4	4	54.1	4	-1E+10	1	-1E+10	1	-1E+10	1	-1E+10	1	-1E+10	1	-1E+10	1
4901784	123	C	11/16/2018	10:42	-133.148	42.996	0	237.60	0	7.8990	0	34.3090	8	26.750	0	235.579	0	155.4	4	53.8	4	-1E+10	1	-1E+10	1	-1E+10	1	-1E+10	1	-1E+10	1	-1E+10	1
4901784	123	C	11/16/2018	10:42	-133.148	42.996	0	240.10	0	7.8670	0	34.3080	8	26.754	0	238.057	0	154.1	4	53.3	4	-1E+10	1	-1E+10	1	-1E+10	1	-1E+10	1	-1E+10	1	-1E+10	1
4901784	123	C	11/16/2018	10:42	-133.148	42.996	0	242.70	0	7.8180	0	34.3080	8	26.761	0	240.633	0	153.3	4	53.0	4	-1E+10	1	-1E+10	1	-1E+10	1	-1E+10	1	-1E+10	1	-1E+10	1
4901784	123	C	11/16/2018	10:42	-133.148	42.996	0	245.20	0	7.7950	0	34.3070	8	26.764	0	243.110	0	152.9	4	52.8	4	-1E+10	1	-1E+10	1	-1E+10	1	-1E+10	1	-1E+10	1	-1E+10	1
4901784	123	C	11/16/2018	10:42	-133.148	42.996	0	247.70	0	7.7590	0	34.3080	8	26.770	0	245.587	0	152.6	4	52.6	4	-1E+10	1	-1E+10	1	-1E+10	1	-1E+10	1	-1E+10	1	-1E+10	1
4901784	123	C	11/16/2018	10:42	-133.148	42.996	0	250.20	0	7.7260	0	34.3100	8	26.776	0	248.065	0	152.4	4	52.5	4	-1E+10	1	-1E+10	1	-1E+10	1	-1E+10	1	-1E+10	1	-1E+10	1
4901784	123	C	11/16/2018	10:42	-133.148	42.996	0	252.80	0	7.6950	0	34.3100	8	26.781	0	250.641	0	152.1	4	52.4	4	-1E+10	1	-1E+10	1	-1E+10	1	-1E+10	1	-1E+10	1	-1E+10	1
4901784	123	C	11/16/2018	10:42	-133.148	42.996	0	255.30	0	7.6710	0	34.3110	8	26.785	0	253.118	0	152.0	4	52.3	4	-1E+10	1	-1E+10	1	-1E+10	1	-1E+10	1	-1E+10	1	-1E+10	1
4901784	123	C	11/16/2018	10:42	-133.148	42.996	0	257.80	0	7.6580	0	34.3110	8	26.787	0	255.595	0	151.5	4	52.1	4	-1E+10	1	-1E+10	1	-1E+10	1	-1E+10	1	-1E+10	1	-1E+10	1
4901784	123	C	11/16/2018	10:42	-133.148	42.996	0	260.30	0	7.6200	0	34.3110	8	26.792	0	258.072	0	150.5	4	51.8	4	-1E+10	1	-1E+10	1	-1E+10	1	-1E+10	1	-1E+10	1	-1E+10	1
4901784	123	C	11/16/2018	10:42	-133.148	42.996	0	262.80	0	7.5900	0	34.3080	8	26.794	0	260.549	0	149.5	4	51.4	4	-1E+10	1	-1E+10	1	-1E+10	1	-1E+10	1	-1E+10	1	-1E+10	1
4901784	123	C	11/16/2018	10:42	-133.148	42.996	0	265.40	0	7.5290	0	34.3090	8	26.804	0	263.125	0	148.5	4	51.0	4	-1E+10	1	-1E+10	1	-1E+10	1	-1E+10	1	-1E+10	1	-1E+10	1
4901784	123	C	11/16/2018	10:42	-133.148	42.996	0	267.90	0	7.4760	0	34.3100	8	26.812	0	265.602	0	147.6	4	50.6	4	-1E+10	1	-1E+10	1	-1E+10	1	-1E+10	1	-1E+10	1	-1E+10	1
4901784	123	C	11/16/2018	10:42	-133.148	42.996	0	269.60	0	7.4530	0	34.3110	8	26.816	0	267.287	0	146.9	4	50.3	4	-1E+10	1	-1E+10	1	-1E+10	1	-1E+10	1	-1E+10	1	-1E+10	1
4901784	123	C	11/16/2018	10:42	-133.148	42.996	0	272.20	0	7.4090	0	34.3090	8	26.821	0	269.863	0	146.1	4	50.0	4	-1E+10	1	-1E+10	1	-1E+10	1	-1E+10	1	-1E+10	1	-1E+10	1
4901784	123	C	11/16/2018	10:42	-133.148	42.996	0	274.70	0	7.3680	0	34.3090	8	26.827	0	272.339	0	144.7	4	49.5	4	-1E+10	1	-1E+10	1	-1E+10	1	-1E+10	1	-1E+10	1	-1E+10	1
4901784	123	C	11/16/2018	10:42	-133.148	42.996	0	277.20	0	7.3150	0	34.3090	8	26.834	0	274.816	0	143.7	4	49.1	4	-1E+10	1	-1E+10	1	-1E+10	1	-1E+10	1	-1E+10	1	-1E+10	1
4901784	123	C	11/16/2018	10:42	-133.148	42.996	0	279.70	0	7.2830	0	34.3080	8	26.838	0	277.293	0	142.5	4	48.6	4	-1E+10	1	-1E+10	1	-1E+10	1	-1E+10	1	-1E+10	1	-1E+10	1
4901784	123	C	11/16/2018	10:42	-133.148	42.996	0	282.20	0	7.2500	0	34.3070	8	26.842	0	279.770	0	141.4	4	48.2	4	-1E+10	1	-1E+10	1	-1E+10	1	-1E+10	1	-1E+10	1	-1E+10	1
4901784	123	C	11/16/2018	10:42	-133.148	42.996	0	284.80	0	7.2260	0	34.3050	8	26.844	0	282.346	0	140.7	4	47.9	4	-1E+10	1	-1E+10	1	-1E+10	1	-1E+10	1	-1E+10	1	-1E+10	1
4901784	123	C	11/16/2018	10:42	-133.148	42.996	0	287.40	0	7.1790	0	34.3040	8	26.850	0	284.922	0	139.7	4	47.5	4	-1E+10	1	-1E+10	1	-1E+10	1	-1E+10	1	-1E+10	1	-1E+10	1
4901784	123	C	11/16/2018	10:42	-133.148	42.996	0	290.00	0	7.1230	0	34.3030	8	26.857	0	287.497	0	138.4	4	47.1	4	-1E+10	1	-1E+10	1	-1E+10	1	-1E+10	1	-1E+10	1	-1E+10	1
4901784	123	C	11/16/2018	10:42	-133.148	42.996	0	292.60	0	7.0380	0	34.3030	8	26.868	0	290.073	0	137.0	4	46.5	4	-1E+10	1	-1E+10	1	-1E+10	1	-1E+10	1	-1E+10	1	-1E+10	1
4901784	123	C	11/16/2018	10:42	-133.148	42.996	0	295.20	0	6.9660	0	34.3040	8	26.879	0	292.649	0	135.5	4	45.9	4	-1E+10	1	-1E+10	1	-1E+10	1	-1E+10	1	-1E+10	1	-1E+10	1
4901784	123	C	11/16/2018	10:42	-133.148	42.996	0	297.70	0	6.9150	0	34.3010	8	26.884	0	295.125	0	134.1	4	45.4	4	-1E+10	1	-1E+10	1	-1E+10	1	-1E+10	1	-1E+10	1	-1E+10	1
4901784	123	C	11/16/2018	10:42	-133.148	42.996	0	300.40	0	6.8560	0	34.3020	8	26.893	0	297.800	0	132.8	4	44.9	4	-1E+10	1	-1E+10	1	-1E+10	1	-1E+10	1	-1E+10	1	-1E+10	1
4901784	123	C	11/16/2018	10:42	-133.148	42.996	0	302.10	0	6.8330	0	34.3010	8	26.895	0	299.484	0	132.0	4	44.6	4	-1E+10	1	-1E+10	1	-1E+10	1	-1E+10	1	-1E+10	1	-1E+10	1
4901784	123	C	11/16/2018	10:42	-133.148	42.996	0	304.60	0	6.8070	0	34.2990	8	26.897	0	301.961	0	130.4	4	44.0	4	-1E+10	1	-1E+10	1	-1E+10	1	-1E+10	1	-1E+10	1	-1E+10	1
4901784	123	C	11/16/2018	10:42	-133.148	42.996	0	307.30	0	6.7360	0	34.2970	8	26.905	0	304.635	0	128.6	4	43.3	4	-1E+10	1	-1E+10	1	-1E+10	1	-1E+10	1	-1E+10	1	-1E+10	1
4901784	123	C	11/16/2018	10:42	-133.148	42.996	0	309.90	0	6.6350	0	34.2970	8	26.918	0	307.211	0	127.4	4	42.8	4	-1E+10	1	-1E+10	1	-1E+10	1	-1E+10	1	-1E+10	1	-1E+10	1
4901784	123	C	11/16/2018	10:42	-133.148	42.996	0	312.50	0	6.6060	0	34.2950	8	26.921	0	309.786	0	126.2	4	42.4	4	-1E+10	1	-1E+10	1	-1E+10	1	-1E+10	1	-1E+10	1	-1E+10	1
4901784	123	C	11/16/2018	10:42	-133.148	42.996	0	315.20	0	6.5510	0	34.2950	8	26.928	0	312.461	0	125.1	4	42.0	4	-1E+10	1	-1E+10	1	-1E+10	1	-1E+10	1	-1E+10	1	-1E+10	1
4901784	123	C	11/16/2018	10:42	-133.148	42.996	0	317.80	0	6.5070	0	34.2920	8	26.932	0	315.036	0	123.8	4	41.5	4	-1E+10	1	-1E+10	1	-1E+10	1	-1E+10	1	-1E+10	1	-1E+10	1
4901784	123	C	11/16/2018	10:42	-133.148	42.996	0	319.60	0	6.4600	0	34.2920	8	26.938	0	316.819	0	123.1	4	41.2	4	-1E+10	1	-1E+10	1	-1E+10	1	-1E+10	1	-1E+10	1	-1E+10	1
4901784	123	C	11/16/2018	10:42	-133.148	42.996	0	322.20	0	6.4090	0	34.2930	8	26.945	0	319.395	0	122.0	4	40.8	4	-1E+10	1	-1E+10	1	-1E+10	1	-1E+10	1	-1E+10	1	-1E+10	1
4901784	123	C	11/16/2018	10:42	-133.148	42.996	0	324.90	0	6.3680	0	34.2940	8	26.951	0	322.069	0	121.2	4	40.5	4	-1E+10	1	-1E+10	1	-1E+10	1	-1E+10	1	-1E+10	1	-1E+10	1
4901784	123	C	11/16/2018	10:42	-133.148	42.996	0	327.50	0	6.3350	0	34.2930	8	26.955	0	324.644	0	120.5	4	40.2	4	-1E+10	1	-1E+10	1	-1E+10	1	-1E+10	1	-1E+10	1	-1E+10	1
4901784	123	C	11/16/2018	10:42	-133.148	42.996	0	330.10	0	6.3150	0	34.2910	8	26.956	0	327.220	0	119.7	4	40.0	4	-1E+10	1	-1E+10	1	-1E+10	1	-1E+10	1	-1E+10	1	-1E+10	1
4901784	123	C	11/16/2018	10:42	-133.148	42.996	0	332.70	0	6.2840	0	34.2910	8	26.960	0	329.795	0	118.8	4	39.6	4	-1E+10	1	-1E+10	1	-1E+10	1	-1E+10	1	-1E+10	1	-1E+10	1
4901784	123	C	11/16/2018	10:42	-133.148	42.996	0	335.40	0	6.2470	0	34.2900	8	26.964	0	332.469	0	117.8	4	39.2	4	-1E+10	1	-1E+10	1	-1E+10	1	-1E+10	1	-1E+10	1	-1E+10	1
4901784	123	C	11/16/2018	10:42	-133.148	42.996	0	337.20	0	6.2240	0	34.2890	8	26.966	0	334.252	0	117.2	4	39.0	4	-1E+10	1	-1E+10	1	-1E+10	1	-1E+10	1	-1E+10	1	-1E+10	1
4901784	123	C	11/16/2018	10:42	-133.148	42.996	0	339.80	0	6.1820	0	34.2890	8	26.972	0	336.827	0	116.2	4	38.7	4	-1E+10	1	-1E+10	1	-1E+10	1	-1E+10	1	-1E+10	1	-1E+10	1
4901784	123	C	11/16/2018	10:42	-133.148	42.996	0	342.30	0	6.1460	0	34.2880	8	26.975	0	339.303	0	115.2	4	38.3	4	-1E+10	1	-1E+10	1	-1E+10	1	-1E+10	1	-1E+10	1	-1E+10	1
4901784	123	C	11/16/2018	10:42	-133.148	42.996	0	344.90	0	6.0850	0	34.2870	8	26.982	0	341.878	0	114.5	4	38.0	4	-1E+10	1	-1E+10	1	-1E+10	1	-1E+10	1	-1E+10	1	-1E+10	1
4901784	123	C	11/16/2018	10:42	-133.148	42.996	0	347.60	0	6.0670	0	34.2880	8	26.986	0	344.552	0	113.8	4	37.8	4	-1E+10	1	-1E+10	1	-1E+10	1	-1E+10	1	-1E+10	1	-1E+10	1
4901784	123	C	11/16/2018	10:42	-133.148	42.996	0	350.30	0	6.0500	0	34.2860	8	26.986	0	347.226	0	112.7	4	37.4	4	-1E+10	1	-1E+10	1	-1E+10	1	-1E+10	1	-1E+10	1	-1E+10	1
4901784	123	C	11/16/2018	10:42	-133.148	42.996	0	352.90	0	6.0320	0	34.2840	8	26.987	0	349.801	0	111.4	4	36.9	4	-1E+10	1	-1E+10	1	-1E+10	1	-1E+10	1	-1E+10	1	-1E+10	1
4901784	123	C	11/16/2018	10:42	-133.148	42.996	0	354.60	0	6.0050	0	34.2830	8	26.989	0	351.485	0	110.3	4	36.5	4	-1E+10	1	-1E+10	1	-1E+10	1	-1E+10	1	-1E+10	1	-1E+10	1
4901784	123	C	11/16/2018	10:42	-133.148	42.996	0	357.40	0	5.9290	0	34.2850	8	27.001	0	354.258	0	108.5	4	35.9	4	-1E+10	1	-1E+10	1	-1E+10	1	-1E+10	1	-1E+10	1	-1E+10	1
4901784	123	C	11/16/2018	10:42	-133.148	42.996	0	360.00	0	5.8700	0	34.2850	8	27.008	0	356.833	0	107.2	4	35.4	4	-1E+10	1	-1E+10	1	-1E+10	1	-1E+10	1	-1E+10	1	-1E+10	1
4901784	123	C	11/16/2018	10:42	-133.148	42.996	0	362.60	0	5.8260	0	34.2860	8	27.014	0	359.408	0	106.0	4	35.0	4	-1E+10	1	-1E+10	1	-1E+10	1	-1E+10	1	-1E+10	1	-1E+10	1
4901784	123	C	11/16/2018	10:42	-133.148	42.996	0	365.20	0	5.8120	0	34.2860	8	27.016	0	361.983	0	104.8	4	34.6	4	-1E+10	1	-1E+10	1	-1E+10	1	-1E+10	1	-1E+10	1	-1E+10	1
4901784	123	C	11/16/2018	10:42	-133.148	42.996	0	367.00	0	5.8120	0	34.2850	8	27.015	0	363.765	0	103.8	4	34.2	4	-1E+10	1	-1E+10	1	-1E+10	1	-1E+10	1	-1E+10	1	-1E+10	1
4901784	123	C	11/16/2018	10:42	-133.148	42.996	0	369.80	0	5.7620	0	34.2860	8	27.022	0	366.538	0	102.0	4	33.6	4	-1E+10	1	-1E+10	1	-1E+10	1	-1E+10	1	-1E+10	1	-1E+10	1
4901784	123	C	11/16/2018	10:42	-133.148	42.996	0	372.50	0	5.7250	0	34.2830	8	27.024	0	369.212	0	100.0	4	32.9	4	-1E+10	1	-1E+10	1	-1E+10	1	-1E+10	1	-1E+10	1	-1E+10	1
4901784	123	C	11/16/2018	10:42	-133.148	42.996	0	375.20	0	5.6570	0	34.2870	8	27.036	0	371.886	0	98.1	4	32.2	4	-1E+10	1	-1E+10	1	-1E+10	1	-1E+10	1	-1E+10	1	-1E+10	1
4901784	123	C	11/16/2018	10:42	-133.148	42.996	0	377.90	0	5.6420	0	34.2860	8	27.037	0	374.559	0	96.3	4	31.6	4	-1E+10	1	-1E+10	1	-1E+10	1	-1E+10	1	-1E+10	1	-1E+10	1
4901784	123	C	11/16/2018	10:42	-133.148	42.996	0	379.70	0	5.6140	0	34.2880	8	27.042	0	376.342	0	94.8	4	31.1	4	-1E+10	1	-1E+10	1	-1E+10	1	-1E+10	1	-1E+10	1	-1E+10	1
4901784	123	C	11/16/2018	10:42	-133.148	42.996	0	382.50	0	5.5640	0	34.2900	8	27.050	0	379.114	0	92.6	4	30.4	4	-1E+10	1	-1E+10	1	-1E+10	1	-1E+10	1	-1E+10	1	-1E+10	1
4901784	123	C	11/16/2018	10:42	-133.148	42.996	0	385.30	0	5.5230	0	34.2930	8	27.057	0	381.887	0	90.2	4	29.6	4	-1E+10	1	-1E+10	1	-1E+10	1	-1E+10	1	-1E+10	1	-1E+10	1
4901784	123	C	11/16/2018	10:42	-133.148	42.996	0	387.10	0	5.5200	0	34.2940	8	27.058	0	383.669	0	88.5	4	29.0	4	-1E+10	1	-1E+10	1	-1E+10	1	-1E+10	1	-1E+10	1	-1E+10	1
4901784	123	C	11/16/2018	10:42	-133.148	42.996	0	389.90	0	5.4840	0	34.2970	8	27.065	0	386.442	0	87.2	4	28.5	4	-1E+10	1	-1E+10	1	-1E+10	1	-1E+10	1	-1E+10	1	-1E+10	1
4901784	123	C	11/16/2018	10:42	-133.148	42.996	0	392.70	0	5.4720	0	34.2970	8	27.066	0	389.215	0	85.9	4	28.1	4	-1E+10	1	-1E+10	1	-1E+10	1	-1E+10	1	-1E+10	1	-1E+10	1
4901784	123	C	11/16/2018	10:42	-133.148	42.996	0	394.60	0	5.4470	0	34.3000	8	27.072	0	391.096	0	84.8	4	27.7	4	-1E+10	1	-1E+10	1	-1E+10	1	-1E+10	1	-1E+10	1	-1E+10	1
4901784	123	C	11/16/2018	10:42	-133.148	42.996	0	397.50	0	5.4230	0	34.3000	8	27.075	0	393.967	0	83.6	4	27.3	4	-1E+10	1	-1E+10	1	-1E+10	1	-1E+10	1	-1E+10	1	-1E+10	1
4901784	123	C	11/16/2018	10:42	-133.148	42.996	0	400.40	0	5.3930	0	34.3010	8	27.079	0	396.839	0	82.5	4	26.9	4	-1E+10	1	-1E+10	1	-1E+10	1	-1E+10	1	-1E+10	1	-1E+10	1
4901784	123	C	11/16/2018	10:42	-133.148	42.996	0	402.80	0	5.3690	0	34.3030	8	27.083	0	399.215	0	81.5	4	26.6	4	-1E+10	1	-1E+10	1	-1E+10	1	-1E+10	1	-1E+10	1	-1E+10	1
4901784	123	C	11/16/2018	10:42	-133.148	42.996	0	404.80	0	5.3390	0	34.3060	8	27.089	0	401.196	0	80.9	4	26.4	4	-1E+10	1	-1E+10	1	-1E+10	1	-1E+10	1	-1E+10	1	-1E+10	1
4901784	123	C	11/16/2018	10:42	-133.148	42.996	0	407.20	0	5.3280	0	34.3060	8	27.091	0	403.572	0	80.2	4	26.2	4	-1E+10	1	-1E+10	1	-1E+10	1	-1E+10	1	-1E+10	1	-1E+10	1
4901784	123	C	11/16/2018	10:42	-133.148	42.996	0	409.60	0	5.3190	0	34.3060	8	27.092	0	405.948	0	79.5	4	25.9	4	-1E+10	1	-1E+10	1	-1E+10	1	-1E+10	1	-1E+10	1	-1E+10	1
4901784	123	C	11/16/2018	10:42	-133.148	42.996	0	412.10	0	5.3020	0	34.3080	8	27.095	0	408.423	0	78.7	4	25.6	4	-1E+10	1	-1E+10	1	-1E+10	1	-1E+10	1	-1E+10	1	-1E+10	1
4901784	123	C	11/16/2018	10:42	-133.148	42.996	0	415.30	0	5.2920	0	34.3080	8	27.097	0	411.592	0	77.5	4	25.3	4	-1E+10	1	-1E+10	1	-1E+10	1	-1E+10	1	-1E+10	1	-1E+10	1
4901784	123	C	11/16/2018	10:42	-133.148	42.996	0	417.70	0	5.2740	0	34.3090	8	27.100	0	413.968	0	76.5	4	24.9	4	-1E+10	1	-1E+10	1	-1E+10	1	-1E+10	1	-1E+10	1	-1E+10	1
4901784	123	C	11/16/2018	10:42	-133.148	42.996	0	420.20	0	5.2640	0	34.3090	8	27.101	0	416.443	0	75.2	4	24.5	4	-1E+10	1	-1E+10	1	-1E+10	1	-1E+10	1	-1E+10	1	-1E+10	1
4901784	123	C	11/16/2018	10:42	-133.148	42.996	0	422.80	0	5.2400	0	34.3120	8	27.106	0	419.017	0	73.6	4	24.0	4	-1E+10	1	-1E+10	1	-1E+10	1	-1E+10	1	-1E+10	1	-1E+10	1
4901784	123	C	11/16/2018	10:42	-133.148	42.996	0	424.60	0	5.2120	0	34.3140	8	27.111	0	420.799	0	72.7	4	23.6	4	-1E+10	1	-1E+10	1	-1E+10	1	-1E+10	1	-1E+10	1	-1E+10	1
4901784	123	C	11/16/2018	10:42	-133.148	42.996	0	427.20	0	5.1730	0	34.3180	8	27.119	0	423.373	0	71.6	4	23.3	4	-1E+10	1	-1E+10	1	-1E+10	1	-1E+10	1	-1E+10	1	-1E+10	1
4901784	123	C	11/16/2018	10:42	-133.148	42.996	0	429.70	0	5.1530	0	34.3200	8	27.123	0	425.848	0	70.9	4	23.0	4	-1E+10	1	-1E+10	1	-1E+10	1	-1E+10	1	-1E+10	1	-1E+10	1
4901784	123	C	11/16/2018	10:42	-133.148	42.996	0	432.40	0	5.1270	0	34.3240	8	27.129	0	428.521	0	70.5	4	22.9	4	-1E+10	1	-1E+10	1	-1E+10	1	-1E+10	1	-1E+10	1	-1E+10	1
4901784	123	C	11/16/2018	10:42	-133.148	42.996	0	435.00	0	5.1130	0	34.3260	8	27.132	0	431.095	0	70.4	4	22.9	4	-1E+10	1	-1E+10	1	-1E+10	1	-1E+10	1	-1E+10	1	-1E+10	1
4901784	123	C	11/16/2018	10:42	-133.148	42.996	0	437.70	0	5.1080	0	34.3250	8	27.132	0	433.768	0	70.4	4	22.8	4	-1E+10	1	-1E+10	1	-1E+10	1	-1E+10	1	-1E+10	1	-1E+10	1
4901784	123	C	11/16/2018	10:42	-133.148	42.996	0	440.30	0	5.0980	0	34.3260	8	27.134	0	436.342	0	70.3	4	22.8	4	-1E+10	1	-1E+10	1	-1E+10	1	-1E+10	1	-1E+10	1	-1E+10	1
4901784	123	C	11/16/2018	10:42	-133.148	42.996	0	442.80	0	5.0900	0	34.3270	8	27.136	0	438.817	0	70.0	4	22.7	4	-1E+10	1	-1E+10	1	-1E+10	1	-1E+10	1	-1E+10	1	-1E+10	1
4901784	123	C	11/16/2018	10:42	-133.148	42.996	0	445.40	0	5.0830	0	34.3270	8	27.136	0	441.391	0	69.6	4	22.6	4	-1E+10	1	-1E+10	1	-1E+10	1	-1E+10	1	-1E+10	1	-1E+10	1
4901784	123	C	11/16/2018	10:42	-133.148	42.996	0	447.10	0	5.0760	0	34.3280	8	27.138	0	443.074	0	69.5	4	22.5	4	-1E+10	1	-1E+10	1	-1E+10	1	-1E+10	1	-1E+10	1	-1E+10	1
4901784	123	C	11/16/2018	10:42	-133.148	42.996	0	449.70	0	5.0690	0	34.3290	8	27.140	0	445.648	0	69.1	4	22.4	4	-1E+10	1	-1E+10	1	-1E+10	1	-1E+10	1	-1E+10	1	-1E+10	1
4901784	123	C	11/16/2018	10:42	-133.148	42.996	0	452.30	0	5.0620	0	34.3300	8	27.141	0	448.221	0	68.8	4	22.3	4	-1E+10	1	-1E+10	1	-1E+10	1	-1E+10	1	-1E+10	1	-1E+10	1
4901784	123	C	11/16/2018	10:42	-133.148	42.996	0	454.90	0	5.0500	0	34.3310	8	27.143	0	450.795	0	68.5	4	22.2	4	-1E+10	1	-1E+10	1	-1E+10	1	-1E+10	1	-1E+10	1	-1E+10	1
4901784	123	C	11/16/2018	10:42	-133.148	42.996	0	457.60	0	5.0400	0	34.3320	8	27.145	0	453.468	0	68.2	4	22.1	4	-1E+10	1	-1E+10	1	-1E+10	1	-1E+10	1	-1E+10	1	-1E+10	1
4901784	123	C	11/16/2018	10:42	-133.148	42.996	0	460.20	0	5.0370	0	34.3310	8	27.145	0	456.041	0	67.7	4	21.9	4	-1E+10	1	-1E+10	1	-1E+10	1	-1E+10	1	-1E+10	1	-1E+10	1
4901784	123	C	11/16/2018	10:42	-133.148	42.996	0	462.90	0	5.0260	0	34.3320	8	27.147	0	458.714	0	66.8	4	21.7	4	-1E+10	1	-1E+10	1	-1E+10	1	-1E+10	1	-1E+10	1	-1E+10	1
4901784	123	C	11/16/2018	10:42	-133.148	42.996	0	464.70	0	5.0220	0	34.3320	8	27.147	0	460.496	0	66.1	4	21.4	4	-1E+10	1	-1E+10	1	-1E+10	1	-1E+10	1	-1E+10	1	-1E+10	1
4901784	123	C	11/16/2018	10:42	-133.148	42.996	0	467.30	0	5.0040	0	34.3370	8	27.154	0	463.069	0	64.8	4	21.0	4	-1E+10	1	-1E+10	1	-1E+10	1	-1E+10	1	-1E+10	1	-1E+10	1
4901784	123	C	11/16/2018	10:42	-133.148	42.996	0	470.00	0	4.9940	0	34.3380	8	27.155	0	465.742	0	63.9	4	20.7	4	-1E+10	1	-1E+10	1	-1E+10	1	-1E+10	1	-1E+10	1	-1E+10	1
4901784	123	C	11/16/2018	10:42	-133.148	42.996	0	472.60	0	4.9870	0	34.3400	8	27.158	0	468.315	0	62.9	4	20.3	4	-1E+10	1	-1E+10	1	-1E+10	1	-1E+10	1	-1E+10	1	-1E+10	1
4901784	123	C	11/16/2018	10:42	-133.148	42.996	0	475.30	0	4.9790	0	34.3420	8	27.160	0	470.988	0	61.6	4	19.9	4	-1E+10	1	-1E+10	1	-1E+10	1	-1E+10	1	-1E+10	1	-1E+10	1
4901784	123	C	11/16/2018	10:42	-133.148	42.996	0	477.00	0	4.9790	0	34.3430	8	27.161	0	472.670	0	60.7	4	19.7	4	-1E+10	1	-1E+10	1	-1E+10	1	-1E+10	1	-1E+10	1	-1E+10	1
4901784	123	C	11/16/2018	10:42	-133.148	42.996	0	479.70	0	4.9640	0	34.3480	8	27.167	0	475.343	0	60.0	4	19.4	4	-1E+10	1	-1E+10	1	-1E+10	1	-1E+10	1	-1E+10	1	-1E+10	1
4901784	123	C	11/16/2018	10:42	-133.148	42.996	0	482.30	0	4.9490	0	34.3490	8	27.169	0	477.916	0	59.4	4	19.2	4	-1E+10	1	-1E+10	1	-1E+10	1	-1E+10	1	-1E+10	1	-1E+10	1
4901784	123	C	11/16/2018	10:42	-133.148	42.996	0	485.00	0	4.9340	0	34.3500	8	27.172	0	480.589	0	58.2	4	18.8	4	-1E+10	1	-1E+10	1	-1E+10	1	-1E+10	1	-1E+10	1	-1E+10	1
4901784	123	C	11/16/2018	10:42	-133.148	42.996	0	487.60	0	4.9020	0	34.3560	8	27.180	0	483.162	0	57.1	4	18.4	4	-1E+10	1	-1E+10	1	-1E+10	1	-1E+10	1	-1E+10	1	-1E+10	1
4901784	123	C	11/16/2018	10:42	-133.148	42.996	0	490.30	0	4.8790	0	34.3590	8	27.185	0	485.834	0	56.0	4	18.1	4	-1E+10	1	-1E+10	1	-1E+10	1	-1E+10	1	-1E+10	1	-1E+10	1
4901784	123	C	11/16/2018	10:42	-133.148	42.996	0	493.00	0	4.8440	0	34.3650	8	27.194	0	488.506	0	54.8	4	17.7	4	-1E+10	1	-1E+10	1	-1E+10	1	-1E+10	1	-1E+10	1	-1E+10	1
4901784	123	C	11/16/2018	10:42	-133.148	42.996	0	494.80	0	4.8400	0	34.3670	8	27.196	0	490.288	0	54.0	4	17.4	4	-1E+10	1	-1E+10	1	-1E+10	1	-1E+10	1	-1E+10	1	-1E+10	1
4901784	123	C	11/16/2018	10:42	-133.148	42.996	0	497.50	0	4.8330	0	34.3700	8	27.199	0	492.960	0	52.8	4	17.0	4	-1E+10	1	-1E+10	1	-1E+10	1	-1E+10	1	-1E+10	1	-1E+10	1
4901784	123	C	11/16/2018	10:42	-133.148	42.996	0	500.10	0	4.8060	0	34.3750	8	27.206	0	495.533	0	51.7	4	16.7	4	-1E+10	1	-1E+10	1	-1E+10	1	-1E+10	1	-1E+10	1	-1E+10	1
4901784	123	C	11/16/2018	10:42	-133.148	42.996	0	505.50	0	4.7830	0	34.3790	8	27.212	0	500.877	0	50.0	4	16.1	4	-1E+10	1	-1E+10	1	-1E+10	1	-1E+10	1	-1E+10	1	-1E+10	1
4901784	123	C	11/16/2018	10:42	-133.148	42.996	0	509.90	0	4.7430	0	34.3860	8	27.222	0	505.232	0	48.5	4	15.6	4	-1E+10	1	-1E+10	1	-1E+10	1	-1E+10	1	-1E+10	1	-1E+10	1
4901784	123	C	11/16/2018	10:42	-133.148	42.996	0	514.40	0	4.7120	0	34.3930	8	27.231	0	509.685	0	47.2	4	15.2	4	-1E+10	1	-1E+10	1	-1E+10	1	-1E+10	1	-1E+10	1	-1E+10	1
4901784	123	C	11/16/2018	10:42	-133.148	42.996	0	519.80	0	4.6860	0	34.3990	8	27.239	0	515.029	0	46.0	4	14.8	4	-1E+10	1	-1E+10	1	-1E+10	1	-1E+10	1	-1E+10	1	-1E+10	1
4901784	123	C	11/16/2018	10:42	-133.148	42.996	0	525.10	0	4.6730	0	34.4040	8	27.244	0	520.274	0	45.0	4	14.5	4	-1E+10	1	-1E+10	1	-1E+10	1	-1E+10	1	-1E+10	1	-1E+10	1
4901784	123	C	11/16/2018	10:42	-133.148	42.996	0	530.50	0	4.6510	0	34.4050	8	27.248	0	525.617	0	44.4	4	14.3	4	-1E+10	1	-1E+10	1	-1E+10	1	-1E+10	1	-1E+10	1	-1E+10	1
4901784	123	C	11/16/2018	10:42	-133.148	42.996	0	535.00	0	4.6190	0	34.4040	8	27.250	0	530.070	0	43.4	4	13.9	4	-1E+10	1	-1E+10	1	-1E+10	1	-1E+10	1	-1E+10	1	-1E+10	1
4901784	123	C	11/16/2018	10:42	-133.148	42.996	0	539.40	0	4.5940	0	34.4090	8	27.257	0	534.424	0	42.0	4	13.5	4	-1E+10	1	-1E+10	1	-1E+10	1	-1E+10	1	-1E+10	1	-1E+10	1
4901784	123	C	11/16/2018	10:42	-133.148	42.996	0	544.80	0	4.5770	0	34.4160	8	27.265	0	539.767	0	40.3	4	12.9	4	-1E+10	1	-1E+10	1	-1E+10	1	-1E+10	1	-1E+10	1	-1E+10	1
4901784	123	C	11/16/2018	10:42	-133.148	42.996	0	550.20	0	4.5560	0	34.4210	8	27.271	0	545.110	0	38.5	4	12.3	4	-1E+10	1	-1E+10	1	-1E+10	1	-1E+10	1	-1E+10	1	-1E+10	1
4901784	123	C	11/16/2018	10:42	-133.148	42.996	0	555.60	0	4.5220	0	34.4290	8	27.281	0	550.453	0	36.7	4	11.8	4	-1E+10	1	-1E+10	1	-1E+10	1	-1E+10	1	-1E+10	1	-1E+10	1
4901784	123	C	11/16/2018	10:42	-133.148	42.996	0	560.00	0	4.5100	0	34.4320	8	27.285	0	554.806	0	35.7	4	11.4	4	-1E+10	1	-1E+10	1	-1E+10	1	-1E+10	1	-1E+10	1	-1E+10	1
4901784	123	C	11/16/2018	10:42	-133.148	42.996	0	564.50	0	4.4920	0	34.4350	8	27.289	0	559.259	0	34.5	4	11.0	4	-1E+10	1	-1E+10	1	-1E+10	1	-1E+10	1	-1E+10	1	-1E+10	1
4901784	123	C	11/16/2018	10:42	-133.148	42.996	0	569.80	0	4.4570	0	34.4430	8	27.299	0	564.502	0	33.1	4	10.6	4	-1E+10	1	-1E+10	1	-1E+10	1	-1E+10	1	-1E+10	1	-1E+10	1
4901784	123	C	11/16/2018	10:42	-133.148	42.996	0	575.30	0	4.4460	0	34.4470	8	27.304	0	569.943	0	32.1	4	10.3	4	-1E+10	1	-1E+10	1	-1E+10	1	-1E+10	1	-1E+10	1	-1E+10	1
4901784	123	C	11/16/2018	10:42	-133.148	42.996	0	579.80	0	4.4370	0	34.4510	8	27.308	0	574.395	0	31.2	4	10.0	4	-1E+10	1	-1E+10	1	-1E+10	1	-1E+10	1	-1E+10	1	-1E+10	1
4901784	123	C	11/16/2018	10:42	-133.148	42.996	0	584.30	0	4.4210	0	34.4560	8	27.314	0	578.847	0	30.4	4	9.7	4	-1E+10	1	-1E+10	1	-1E+10	1	-1E+10	1	-1E+10	1	-1E+10	1
4901784	123	C	11/16/2018	10:42	-133.148	42.996	0	589.80	0	4.4100	0	34.4600	8	27.318	0	584.288	0	29.6	4	9.5	4	-1E+10	1	-1E+10	1	-1E+10	1	-1E+10	1	-1E+10	1	-1E+10	1
4901784	123	C	11/16/2018	10:42	-133.148	42.996	0	595.30	0	4.4040	0	34.4640	8	27.322	0	589.729	0	28.8	4	9.2	4	-1E+10	1	-1E+10	1	-1E+10	1	-1E+10	1	-1E+10	1	-1E+10	1
4901784	123	C	11/16/2018	10:42	-133.148	42.996	0	599.90	0	4.3960	0	34.4680	8	27.326	0	594.279	0	28.3	4	9.0	4	-1E+10	1	-1E+10	1	-1E+10	1	-1E+10	1	-1E+10	1	-1E+10	1
4901784	123	C	11/16/2018	10:42	-133.148	42.996	0	604.50	0	4.3910	0	34.4710	8	27.329	0	598.830	0	27.8	4	8.9	4	-1E+10	1	-1E+10	1	-1E+10	1	-1E+10	1	-1E+10	1	-1E+10	1
4901784	123	C	11/16/2018	10:42	-133.148	42.996	0	610.00	0	4.3870	0	34.4710	8	27.329	0	604.270	0	27.2	4	8.7	4	-1E+10	1	-1E+10	1	-1E+10	1	-1E+10	1	-1E+10	1	-1E+10	1
4901784	123	C	11/16/2018	10:42	-133.148	42.996	0	615.30	0	4.3690	0	34.4790	8	27.338	0	609.513	0	26.5	4	8.4	4	-1E+10	1	-1E+10	1	-1E+10	1	-1E+10	1	-1E+10	1	-1E+10	1
4901784	123	C	11/16/2018	10:42	-133.148	42.996	0	619.50	0	4.3640	0	34.4810	8	27.340	0	613.667	0	26.2	4	8.4	4	-1E+10	1	-1E+10	1	-1E+10	1	-1E+10	1	-1E+10	1	-1E+10	1
4901784	123	C	11/16/2018	10:42	-133.148	42.996	0	625.10	0	4.3630	0	34.4810	8	27.340	0	619.206	0	25.9	4	8.3	4	-1E+10	1	-1E+10	1	-1E+10	1	-1E+10	1	-1E+10	1	-1E+10	1
4901784	123	C	11/16/2018	10:42	-133.148	42.996	0	630.60	0	4.3540	0	34.4840	8	27.344	0	624.646	0	25.3	4	8.1	4	-1E+10	1	-1E+10	1	-1E+10	1	-1E+10	1	-1E+10	1	-1E+10	1
4901784	123	C	11/16/2018	10:42	-133.148	42.996	0	635.40	0	4.3420	0	34.4890	8	27.349	0	629.393	0	24.8	4	7.9	4	-1E+10	1	-1E+10	1	-1E+10	1	-1E+10	1	-1E+10	1	-1E+10	1
4901784	123	C	11/16/2018	10:42	-133.148	42.996	0	640.30	0	4.3390	0	34.4890	8	27.349	0	634.239	0	24.6	4	7.8	4	-1E+10	1	-1E+10	1	-1E+10	1	-1E+10	1	-1E+10	1	-1E+10	1
4901784	123	C	11/16/2018	10:42	-133.148	42.996	0	645.20	0	4.3380	0	34.4900	8	27.350	0	639.085	0	24.1	4	7.7	4	-1E+10	1	-1E+10	1	-1E+10	1	-1E+10	1	-1E+10	1	-1E+10	1
4901784	123	C	11/16/2018	10:42	-133.148	42.996	0	650.20	0	4.3280	0	34.4930	8	27.354	0	644.030	0	23.0	4	7.4	4	-1E+10	1	-1E+10	1	-1E+10	1	-1E+10	1	-1E+10	1	-1E+10	1
4901784	123	C	11/16/2018	10:42	-133.148	42.996	0	655.20	0	4.3020	0	34.5020	8	27.364	0	648.975	0	21.7	4	6.9	4	-1E+10	1	-1E+10	1	-1E+10	1	-1E+10	1	-1E+10	1	-1E+10	1
4901784	123	C	11/16/2018	10:42	-133.148	42.996	0	660.30	0	4.3040	0	34.5140	8	27.373	0	654.019	0	20.4	4	6.5	4	-1E+10	1	-1E+10	1	-1E+10	1	-1E+10	1	-1E+10	1	-1E+10	1
4901784	123	C	11/16/2018	10:42	-133.148	42.996	0	665.60	0	4.2950	0	34.5210	8	27.379	0	659.260	0	19.7	4	6.3	4	-1E+10	1	-1E+10	1	-1E+10	1	-1E+10	1	-1E+10	1	-1E+10	1
4901784	123	C	11/16/2018	10:42	-133.148	42.996	0	670.00	0	4.2920	0	34.5250	8	27.383	0	663.611	0	19.4	4	6.2	4	-1E+10	1	-1E+10	1	-1E+10	1	-1E+10	1	-1E+10	1	-1E+10	1
4901784	123	C	11/16/2018	10:42	-133.148	42.996	0	674.40	0	4.2720	0	34.5270	8	27.387	0	667.962	0	19.2	4	6.1	4	-1E+10	1	-1E+10	1	-1E+10	1	-1E+10	1	-1E+10	1	-1E+10	1
4901784	123	C	11/16/2018	10:42	-133.148	42.996	0	679.70	0	4.2340	0	34.5300	8	27.393	0	673.203	0	18.9	4	6.0	4	-1E+10	1	-1E+10	1	-1E+10	1	-1E+10	1	-1E+10	1	-1E+10	1
4901784	123	C	11/16/2018	10:42	-133.148	42.996	0	685.00	0	4.2160	0	34.5330	8	27.398	0	678.443	0	18.3	4	5.8	4	-1E+10	1	-1E+10	1	-1E+10	1	-1E+10	1	-1E+10	1	-1E+10	1
4901784	123	C	11/16/2018	10:42	-133.148	42.996	0	690.30	0	4.2150	0	34.5390	8	27.402	0	683.684	0	17.4	4	5.5	4	-1E+10	1	-1E+10	1	-1E+10	1	-1E+10	1	-1E+10	1	-1E+10	1
4901784	123	C	11/16/2018	10:42	-133.148	42.996	0	694.90	0	4.2290	0	34.5470	8	27.407	0	688.232	0	16.3	4	5.2	4	-1E+10	1	-1E+10	1	-1E+10	1	-1E+10	1	-1E+10	1	-1E+10	1
4901784	123	C	11/16/2018	10:42	-133.148	42.996	0	699.40	0	4.2330	0	34.5580	8	27.416	0	692.682	0	15.7	4	5.0	4	-1E+10	1	-1E+10	1	-1E+10	1	-1E+10	1	-1E+10	1	-1E+10	1
4901784	123	C	11/16/2018	10:42	-133.148	42.996	0	704.90	0	4.2000	0	34.5640	8	27.424	0	698.120	0	15.5	4	4.9	4	-1E+10	1	-1E+10	1	-1E+10	1	-1E+10	1	-1E+10	1	-1E+10	1
4901784	123	C	11/16/2018	10:42	-133.148	42.996	0	709.80	0	4.1620	0	34.5660	8	27.430	0	702.964	0	15.2	4	4.8	4	-1E+10	1	-1E+10	1	-1E+10	1	-1E+10	1	-1E+10	1	-1E+10	1
4901784	123	C	11/16/2018	10:42	-133.148	42.996	0	715.00	0	4.1520	0	34.5730	8	27.436	0	708.105	0	14.9	4	4.7	4	-1E+10	1	-1E+10	1	-1E+10	1	-1E+10	1	-1E+10	1	-1E+10	1
4901784	123	C	11/16/2018	10:42	-133.148	42.996	0	720.50	0	4.1270	0	34.5770	8	27.442	0	713.543	0	14.6	4	4.6	4	-1E+10	1	-1E+10	1	-1E+10	1	-1E+10	1	-1E+10	1	-1E+10	1
4901784	123	C	11/16/2018	10:42	-133.148	42.996	0	725.30	0	4.0980	0	34.5800	8	27.448	0	718.288	0	14.4	4	4.6	4	-1E+10	1	-1E+10	1	-1E+10	1	-1E+10	1	-1E+10	1	-1E+10	1
4901784	123	C	11/16/2018	10:42	-133.148	42.996	0	730.10	0	4.0930	0	34.5840	8	27.451	0	723.034	0	14.1	4	4.5	4	-1E+10	1	-1E+10	1	-1E+10	1	-1E+10	1	-1E+10	1	-1E+10	1
4901784	123	C	11/16/2018	10:42	-133.148	42.996	0	734.90	0	4.0680	0	34.5880	8	27.457	0	727.779	0	13.9	4	4.4	4	-1E+10	1	-1E+10	1	-1E+10	1	-1E+10	1	-1E+10	1	-1E+10	1
4901784	123	C	11/16/2018	10:42	-133.148	42.996	0	739.70	0	4.0500	0	34.5920	8	27.462	0	732.524	0	13.7	4	4.4	4	-1E+10	1	-1E+10	1	-1E+10	1	-1E+10	1	-1E+10	1	-1E+10	1
4901784	123	C	11/16/2018	10:42	-133.148	42.996	0	744.60	0	4.0270	0	34.5960	8	27.468	0	737.368	0	13.5	4	4.3	4	-1E+10	1	-1E+10	1	-1E+10	1	-1E+10	1	-1E+10	1	-1E+10	1
4901784	123	C	11/16/2018	10:42	-133.148	42.996	0	749.60	0	4.0120	0	34.6000	8	27.473	0	742.310	0	13.3	4	4.2	4	-1E+10	1	-1E+10	1	-1E+10	1	-1E+10	1	-1E+10	1	-1E+10	1
4901784	123	C	11/16/2018	10:42	-133.148	42.996	0	754.70	0	3.9980	0	34.6060	8	27.479	0	747.352	0	13.0	4	4.1	4	-1E+10	1	-1E+10	1	-1E+10	1	-1E+10	1	-1E+10	1	-1E+10	1
4901784	123	C	11/16/2018	10:42	-133.148	42.996	0	759.70	0	3.9870	0	34.6110	8	27.484	0	752.294	0	12.8	4	4.0	4	-1E+10	1	-1E+10	1	-1E+10	1	-1E+10	1	-1E+10	1	-1E+10	1
4901784	123	C	11/16/2018	10:42	-133.148	42.996	0	764.90	0	3.9760	0	34.6160	8	27.489	0	757.434	0	12.6	4	4.0	4	-1E+10	1	-1E+10	1	-1E+10	1	-1E+10	1	-1E+10	1	-1E+10	1
4901784	123	C	11/16/2018	10:42	-133.148	42.996	0	770.10	0	3.9610	0	34.6180	8	27.492	0	762.573	0	12.4	4	3.9	4	-1E+10	1	-1E+10	1	-1E+10	1	-1E+10	1	-1E+10	1	-1E+10	1
4901784	123	C	11/16/2018	10:42	-133.148	42.996	0	775.30	0	3.9510	0	34.6250	8	27.499	0	767.713	0	12.2	4	3.9	4	-1E+10	1	-1E+10	1	-1E+10	1	-1E+10	1	-1E+10	1	-1E+10	1
4901784	123	C	11/16/2018	10:42	-133.148	42.996	0	780.50	0	3.9230	0	34.6290	8	27.505	0	772.853	0	12.1	4	3.8	4	-1E+10	1	-1E+10	1	-1E+10	1	-1E+10	1	-1E+10	1	-1E+10	1
4901784	123	C	11/16/2018	10:42	-133.148	42.996	0	784.90	0	3.9220	0	34.6330	8	27.508	0	777.201	0	12.0	4	3.8	4	-1E+10	1	-1E+10	1	-1E+10	1	-1E+10	1	-1E+10	1	-1E+10	1
4901784	123	C	11/16/2018	10:42	-133.148	42.996	0	789.40	0	3.9070	0	34.6360	8	27.512	0	781.649	0	11.9	4	3.8	4	-1E+10	1	-1E+10	1	-1E+10	1	-1E+10	1	-1E+10	1	-1E+10	1
4901784	123	C	11/16/2018	10:42	-133.148	42.996	0	794.70	0	3.8900	0	34.6370	8	27.515	0	786.887	0	11.9	4	3.8	4	-1E+10	1	-1E+10	1	-1E+10	1	-1E+10	1	-1E+10	1	-1E+10	1
4901784	123	C	11/16/2018	10:42	-133.148	42.996	0	800.20	0	3.8630	0	34.6390	8	27.519	0	792.322	0	11.8	4	3.7	4	-1E+10	1	-1E+10	1	-1E+10	1	-1E+10	1	-1E+10	1	-1E+10	1
4901784	123	C	11/16/2018	10:42	-133.148	42.996	0	805.60	0	3.8540	0	34.6430	8	27.523	0	797.659	0	11.7	4	3.7	4	-1E+10	1	-1E+10	1	-1E+10	1	-1E+10	1	-1E+10	1	-1E+10	1
4901784	123	C	11/16/2018	10:42	-133.148	42.996	0	810.10	0	3.8350	0	34.6440	8	27.526	0	802.106	0	11.7	4	3.7	4	-1E+10	1	-1E+10	1	-1E+10	1	-1E+10	1	-1E+10	1	-1E+10	1
4901784	123	C	11/16/2018	10:42	-133.148	42.996	0	814.70	0	3.8210	0	34.6470	8	27.530	0	806.651	0	11.6	4	3.6	4	-1E+10	1	-1E+10	1	-1E+10	1	-1E+10	1	-1E+10	1	-1E+10	1
4901784	123	C	11/16/2018	10:42	-133.148	42.996	0	820.20	0	3.8010	0	34.6500	8	27.534	0	812.086	0	11.5	4	3.6	4	-1E+10	1	-1E+10	1	-1E+10	1	-1E+10	1	-1E+10	1	-1E+10	1
4901784	123	C	11/16/2018	10:42	-133.148	42.996	0	824.70	0	3.7920	0	34.6510	8	27.536	0	816.533	0	11.4	4	3.6	4	-1E+10	1	-1E+10	1	-1E+10	1	-1E+10	1	-1E+10	1	-1E+10	1
4901784	123	C	11/16/2018	10:42	-133.148	42.996	0	829.40	0	3.7800	0	34.6540	8	27.540	0	821.177	0	11.3	4	3.6	4	-1E+10	1	-1E+10	1	-1E+10	1	-1E+10	1	-1E+10	1	-1E+10	1
4901784	123	C	11/16/2018	10:42	-133.148	42.996	0	835.00	0	3.7720	0	34.6580	8	27.544	0	826.711	0	11.2	4	3.5	4	-1E+10	1	-1E+10	1	-1E+10	1	-1E+10	1	-1E+10	1	-1E+10	1
4901784	123	C	11/16/2018	10:42	-133.148	42.996	0	840.60	0	3.7660	0	34.6620	8	27.548	0	832.244	0	11.1	4	3.5	4	-1E+10	1	-1E+10	1	-1E+10	1	-1E+10	1	-1E+10	1	-1E+10	1
4901784	123	C	11/16/2018	10:42	-133.148	42.996	0	845.20	0	3.7630	0	34.6640	8	27.550	0	836.789	0	11.0	4	3.5	4	-1E+10	1	-1E+10	1	-1E+10	1	-1E+10	1	-1E+10	1	-1E+10	1
4901784	123	C	11/16/2018	10:42	-133.148	42.996	0	849.90	0	3.7540	0	34.6660	8	27.552	0	841.433	0	11.0	4	3.4	4	-1E+10	1	-1E+10	1	-1E+10	1	-1E+10	1	-1E+10	1	-1E+10	1
4901784	123	C	11/16/2018	10:42	-133.148	42.996	0	854.80	0	3.7430	0	34.6700	8	27.556	0	846.274	0	10.9	4	3.4	4	-1E+10	1	-1E+10	1	-1E+10	1	-1E+10	1	-1E+10	1	-1E+10	1
4901784	123	C	11/16/2018	10:42	-133.148	42.996	0	859.60	0	3.7340	0	34.6730	8	27.560	0	851.016	0	10.8	4	3.4	4	-1E+10	1	-1E+10	1	-1E+10	1	-1E+10	1	-1E+10	1	-1E+10	1
4901784	123	C	11/16/2018	10:42	-133.148	42.996	0	865.40	0	3.7290	0	34.6750	8	27.562	0	856.747	0	10.8	4	3.4	4	-1E+10	1	-1E+10	1	-1E+10	1	-1E+10	1	-1E+10	1	-1E+10	1
4901784	123	C	11/16/2018	10:42	-133.148	42.996	0	869.50	0	3.7200	0	34.6780	8	27.565	0	860.797	0	10.7	4	3.4	4	-1E+10	1	-1E+10	1	-1E+10	1	-1E+10	1	-1E+10	1	-1E+10	1
4901784	123	C	11/16/2018	10:42	-133.148	42.996	0	874.50	0	3.7140	0	34.6800	8	27.567	0	865.737	0	10.7	4	3.4	4	-1E+10	1	-1E+10	1	-1E+10	1	-1E+10	1	-1E+10	1	-1E+10	1
4901784	123	C	11/16/2018	10:42	-133.148	42.996	0	879.40	0	3.7090	0	34.6810	8	27.569	0	870.578	0	10.6	4	3.3	4	-1E+10	1	-1E+10	1	-1E+10	1	-1E+10	1	-1E+10	1	-1E+10	1
4901784	123	C	11/16/2018	10:42	-133.148	42.996	0	884.30	0	3.7030	0	34.6840	8	27.572	0	875.418	0	10.6	4	3.3	4	-1E+10	1	-1E+10	1	-1E+10	1	-1E+10	1	-1E+10	1	-1E+10	1
4901784	123	C	11/16/2018	10:42	-133.148	42.996	0	889.40	0	3.6950	0	34.6870	8	27.575	0	880.456	0	10.5	4	3.3	4	-1E+10	1	-1E+10	1	-1E+10	1	-1E+10	1	-1E+10	1	-1E+10	1
4901784	123	C	11/16/2018	10:42	-133.148	42.996	0	894.30	0	3.6830	0	34.6910	8	27.579	0	885.297	0	10.5	4	3.3	4	-1E+10	1	-1E+10	1	-1E+10	1	-1E+10	1	-1E+10	1	-1E+10	1
4901784	123	C	11/16/2018	10:42	-133.148	42.996	0	899.30	0	3.6730	0	34.6950	8	27.584	0	890.236	0	10.4	4	3.3	4	-1E+10	1	-1E+10	1	-1E+10	1	-1E+10	1	-1E+10	1	-1E+10	1
4901784	123	C	11/16/2018	10:42	-133.148	42.996	0	904.30	0	3.6650	0	34.6970	8	27.586	0	895.175	0	10.4	4	3.3	4	-1E+10	1	-1E+10	1	-1E+10	1	-1E+10	1	-1E+10	1	-1E+10	1
4901784	123	C	11/16/2018	10:42	-133.148	42.996	0	909.40	0	3.6510	0	34.7020	8	27.591	0	900.212	0	10.4	4	3.3	4	-1E+10	1	-1E+10	1	-1E+10	1	-1E+10	1	-1E+10	1	-1E+10	1
4901784	123	C	11/16/2018	10:42	-133.148	42.996	0	914.50	0	3.6390	0	34.7060	8	27.596	0	905.250	0	10.4	4	3.3	4	-1E+10	1	-1E+10	1	-1E+10	1	-1E+10	1	-1E+10	1	-1E+10	1
4901784	123	C	11/16/2018	10:42	-133.148	42.996	0	919.70	0	3.6230	0	34.7090	8	27.600	0	910.386	0	10.4	4	3.3	4	-1E+10	1	-1E+10	1	-1E+10	1	-1E+10	1	-1E+10	1	-1E+10	1
4901784	123	C	11/16/2018	10:42	-133.148	42.996	0	924.90	0	3.6120	0	34.7120	8	27.603	0	915.522	0	10.4	4	3.3	4	-1E+10	1	-1E+10	1	-1E+10	1	-1E+10	1	-1E+10	1	-1E+10	1
4901784	123	C	11/16/2018	10:42	-133.148	42.996	0	930.10	0	3.6010	0	34.7160	8	27.608	0	920.657	0	10.5	4	3.3	4	-1E+10	1	-1E+10	1	-1E+10	1	-1E+10	1	-1E+10	1	-1E+10	1
4901784	123	C	11/16/2018	10:42	-133.148	42.996	0	935.20	0	3.5900	0	34.7180	8	27.610	0	925.694	0	10.5	4	3.3	4	-1E+10	1	-1E+10	1	-1E+10	1	-1E+10	1	-1E+10	1	-1E+10	1
4901784	123	C	11/16/2018	10:42	-133.148	42.996	0	940.40	0	3.5800	0	34.7210	8	27.614	0	930.830	0	10.5	4	3.3	4	-1E+10	1	-1E+10	1	-1E+10	1	-1E+10	1	-1E+10	1	-1E+10	1
4901784	123	C	11/16/2018	10:42	-133.148	42.996	0	945.70	0	3.5750	0	34.7220	8	27.615	0	936.064	0	10.6	4	3.3	4	-1E+10	1	-1E+10	1	-1E+10	1	-1E+10	1	-1E+10	1	-1E+10	1
4901784	123	C	11/16/2018	10:42	-133.148	42.996	0	950.10	0	3.5640	0	34.7250	8	27.619	0	940.409	0	10.6	4	3.3	4	-1E+10	1	-1E+10	1	-1E+10	1	-1E+10	1	-1E+10	1	-1E+10	1
4901784	123	C	11/16/2018	10:42	-133.148	42.996	0	954.60	0	3.5510	0	34.7280	8	27.622	0	944.853	0	10.6	4	3.3	4	-1E+10	1	-1E+10	1	-1E+10	1	-1E+10	1	-1E+10	1	-1E+10	1
4901784	123	C	11/16/2018	10:42	-133.148	42.996	0	959.90	0	3.5410	0	34.7310	8	27.626	0	950.087	0	10.7	4	3.3	4	-1E+10	1	-1E+10	1	-1E+10	1	-1E+10	1	-1E+10	1	-1E+10	1
4901784	123	C	11/16/2018	10:42	-133.148	42.996	0	965.20	0	3.5370	0	34.7320	8	27.627	0	955.321	0	10.7	4	3.4	4	-1E+10	1	-1E+10	1	-1E+10	1	-1E+10	1	-1E+10	1	-1E+10	1
4901784	123	C	11/16/2018	10:42	-133.148	42.996	0	970.50	0	3.5310	0	34.7330	8	27.628	0	960.555	0	10.7	4	3.4	4	-1E+10	1	-1E+10	1	-1E+10	1	-1E+10	1	-1E+10	1	-1E+10	1
4901784	123	C	11/16/2018	10:42	-133.148	42.996	0	975.00	0	3.5270	0	34.7340	8	27.630	0	964.998	0	10.8	4	3.4	4	-1E+10	1	-1E+10	1	-1E+10	1	-1E+10	1	-1E+10	1	-1E+10	1
4901784	123	C	11/16/2018	10:42	-133.148	42.996	0	979.50	0	3.5200	0	34.7360	8	27.632	0	969.442	0	10.8	4	3.4	4	-1E+10	1	-1E+10	1	-1E+10	1	-1E+10	1	-1E+10	1	-1E+10	1
4901784	123	C	11/16/2018	10:42	-133.148	42.996	0	984.80	0	3.5140	0	34.7370	8	27.633	0	974.675	0	10.8	4	3.4	4	-1E+10	1	-1E+10	1	-1E+10	1	-1E+10	1	-1E+10	1	-1E+10	1
4901784	123	C	11/16/2018	10:42	-133.148	42.996	0	990.20	0	3.5010	0	34.7390	8	27.636	0	980.007	0	10.9	4	3.4	4	-1E+10	1	-1E+10	1	-1E+10	1	-1E+10	1	-1E+10	1	-1E+10	1
4901784	123	C	11/16/2018	10:42	-133.148	42.996	0	994.80	0	3.4930	0	34.7420	8	27.639	0	984.549	0	11.0	4	3.4	4	-1E+10	1	-1E+10	1	-1E+10	1	-1E+10	1	-1E+10	1	-1E+10	1
4901784	123	C	11/16/2018	10:42	-133.148	42.996	0	999.30	0	3.4830	0	34.7440	8	27.642	0	988.992	0	11.0	4	3.5	4	-1E+10	1	-1E+10	1	-1E+10	1	-1E+10	1	-1E+10	1	-1E+10	1
4901784	123	C	11/16/2018	10:42	-133.148	42.996	0	1004.80	0	3.4740	0	34.7460	8	27.644	0	994.422	0	11.1	4	3.5	4	-1E+10	1	-1E+10	1	-1E+10	1	-1E+10	1	-1E+10	1	-1E+10	1
4901784	123	C	11/16/2018	10:42	-133.148	42.996	0	1010.30	0	3.4530	0	34.7500	8	27.650	0	999.852	0	11.2	4	3.5	4	-1E+10	1	-1E+10	1	-1E+10	1	-1E+10	1	-1E+10	1	-1E+10	1
4901784	123	C	11/16/2018	10:42	-133.148	42.996	0	1014.90	0	3.4450	0	34.7520	8	27.652	0	1004.393	0	11.2	4	3.5	4	-1E+10	1	-1E+10	1	-1E+10	1	-1E+10	1	-1E+10	1	-1E+10	1
4901784	123	C	11/16/2018	10:42	-133.148	42.996	0	1019.60	0	3.4380	0	34.7530	8	27.654	0	1009.033	0	11.4	4	3.6	4	-1E+10	1	-1E+10	1	-1E+10	1	-1E+10	1	-1E+10	1	-1E+10	1
4901784	123	C	11/16/2018	10:42	-133.148	42.996	0	1025.10	0	3.4170	0	34.7580	8	27.660	0	1014.463	0	11.5	4	3.6	4	-1E+10	1	-1E+10	1	-1E+10	1	-1E+10	1	-1E+10	1	-1E+10	1
4901784	123	C	11/16/2018	10:42	-133.148	42.996	0	1029.70	0	3.4020	0	34.7610	8	27.664	0	1019.004	0	11.6	4	3.6	4	-1E+10	1	-1E+10	1	-1E+10	1	-1E+10	1	-1E+10	1	-1E+10	1
4901784	123	C	11/16/2018	10:42	-133.148	42.996	0	1035.10	0	3.3870	0	34.7640	8	27.667	0	1024.335	0	11.7	4	3.6	4	-1E+10	1	-1E+10	1	-1E+10	1	-1E+10	1	-1E+10	1	-1E+10	1
4901784	123	C	11/16/2018	10:42	-133.148	42.996	0	1040.20	0	3.3830	0	34.7650	8	27.669	0	1029.369	0	11.7	4	3.7	4	-1E+10	1	-1E+10	1	-1E+10	1	-1E+10	1	-1E+10	1	-1E+10	1
4901784	123	C	11/16/2018	10:42	-133.148	42.996	0	1045.10	0	3.3790	0	34.7660	8	27.670	0	1034.206	0	11.8	4	3.7	4	-1E+10	1	-1E+10	1	-1E+10	1	-1E+10	1	-1E+10	1	-1E+10	1
4901784	123	C	11/16/2018	10:42	-133.148	42.996	0	1049.90	0	3.3680	0	34.7680	8	27.672	0	1038.944	0	11.9	4	3.7	4	-1E+10	1	-1E+10	1	-1E+10	1	-1E+10	1	-1E+10	1	-1E+10	1
4901784	123	C	11/16/2018	10:42	-133.148	42.996	0	1054.70	0	3.3490	0	34.7720	8	27.678	0	1043.682	0	12.1	4	3.8	4	-1E+10	1	-1E+10	1	-1E+10	1	-1E+10	1	-1E+10	1	-1E+10	1
4901784	123	C	11/16/2018	10:42	-133.148	42.996	0	1059.70	0	3.3420	0	34.7730	8	27.679	0	1048.617	0	12.1	4	3.8	4	-1E+10	1	-1E+10	1	-1E+10	1	-1E+10	1	-1E+10	1	-1E+10	1
4901784	123	C	11/16/2018	10:42	-133.148	42.996	0	1064.60	0	3.3320	0	34.7750	8	27.682	0	1053.454	0	12.2	4	3.8	4	-1E+10	1	-1E+10	1	-1E+10	1	-1E+10	1	-1E+10	1	-1E+10	1
4901784	123	C	11/16/2018	10:42	-133.148	42.996	0	1069.50	0	3.3260	0	34.7760	8	27.683	0	1058.290	0	12.3	4	3.8	4	-1E+10	1	-1E+10	1	-1E+10	1	-1E+10	1	-1E+10	1	-1E+10	1
4901784	123	C	11/16/2018	10:42	-133.148	42.996	0	1074.40	0	3.3220	0	34.7760	8	27.683	0	1063.127	0	12.3	4	3.8	4	-1E+10	1	-1E+10	1	-1E+10	1	-1E+10	1	-1E+10	1	-1E+10	1
4901784	123	C	11/16/2018	10:42	-133.148	42.996	0	1079.40	0	3.3130	0	34.7770	8	27.685	0	1068.061	0	12.4	4	3.9	4	-1E+10	1	-1E+10	1	-1E+10	1	-1E+10	1	-1E+10	1	-1E+10	1
4901784	123	C	11/16/2018	10:42	-133.148	42.996	0	1084.40	0	3.2960	0	34.7790	8	27.688	0	1072.996	0	12.5	4	3.9	4	-1E+10	1	-1E+10	1	-1E+10	1	-1E+10	1	-1E+10	1	-1E+10	1
4901784	123	C	11/16/2018	10:42	-133.148	42.996	0	1089.40	0	3.2770	0	34.7820	8	27.693	0	1077.931	0	12.7	4	3.9	4	-1E+10	1	-1E+10	1	-1E+10	1	-1E+10	1	-1E+10	1	-1E+10	1
4901784	123	C	11/16/2018	10:42	-133.148	42.996	0	1094.40	0	3.2720	0	34.7830	8	27.694	0	1082.865	0	12.8	4	4.0	4	-1E+10	1	-1E+10	1	-1E+10	1	-1E+10	1	-1E+10	1	-1E+10	1
4901784	123	C	11/16/2018	10:42	-133.148	42.996	0	1099.60	0	3.2670	0	34.7840	8	27.695	0	1087.997	0	12.9	4	4.0	4	-1E+10	1	-1E+10	1	-1E+10	1	-1E+10	1	-1E+10	1	-1E+10	1
4901784	123	C	11/16/2018	10:42	-133.148	42.996	0	1104.80	0	3.2470	0	34.7870	8	27.699	0	1093.129	0	13.0	4	4.1	4	-1E+10	1	-1E+10	1	-1E+10	1	-1E+10	1	-1E+10	1	-1E+10	1
4901784	123	C	11/16/2018	10:42	-133.148	42.996	0	1110.30	0	3.2270	0	34.7890	8	27.703	0	1098.556	0	13.2	4	4.1	4	-1E+10	1	-1E+10	1	-1E+10	1	-1E+10	1	-1E+10	1	-1E+10	1
4901784	123	C	11/16/2018	10:42	-133.148	42.996	0	1115.10	0	3.2210	0	34.7910	8	27.705	0	1103.293	0	13.3	4	4.1	4	-1E+10	1	-1E+10	1	-1E+10	1	-1E+10	1	-1E+10	1	-1E+10	1
4901784	123	C	11/16/2018	10:42	-133.148	42.996	0	1119.80	0	3.2140	0	34.7930	8	27.707	0	1107.931	0	13.4	4	4.2	4	-1E+10	1	-1E+10	1	-1E+10	1	-1E+10	1	-1E+10	1	-1E+10	1
4901784	123	C	11/16/2018	10:42	-133.148	42.996	0	1125.50	0	3.2090	0	34.7930	8	27.708	0	1113.555	0	13.5	4	4.2	4	-1E+10	1	-1E+10	1	-1E+10	1	-1E+10	1	-1E+10	1	-1E+10	1
4901784	123	C	11/16/2018	10:42	-133.148	42.996	0	1130.20	0	3.2000	0	34.7940	8	27.710	0	1118.192	0	13.5	4	4.2	4	-1E+10	1	-1E+10	1	-1E+10	1	-1E+10	1	-1E+10	1	-1E+10	1
4901784	123	C	11/16/2018	10:42	-133.148	42.996	0	1135.00	0	3.1900	0	34.7960	8	27.712	0	1122.929	0	13.6	4	4.2	4	-1E+10	1	-1E+10	1	-1E+10	1	-1E+10	1	-1E+10	1	-1E+10	1
4901784	123	C	11/16/2018	10:42	-133.148	42.996	0	1139.80	0	3.1840	0	34.7970	8	27.714	0	1127.665	0	13.7	4	4.3	4	-1E+10	1	-1E+10	1	-1E+10	1	-1E+10	1	-1E+10	1	-1E+10	1
4901784	123	C	11/16/2018	10:42	-133.148	42.996	0	1144.50	0	3.1780	0	34.7980	8	27.715	0	1132.302	0	13.8	4	4.3	4	-1E+10	1	-1E+10	1	-1E+10	1	-1E+10	1	-1E+10	1	-1E+10	1
4901784	123	C	11/16/2018	10:42	-133.148	42.996	0	1150.30	0	3.1720	0	34.7990	8	27.716	0	1138.025	0	13.9	4	4.3	4	-1E+10	1	-1E+10	1	-1E+10	1	-1E+10	1	-1E+10	1	-1E+10	1
4901784	123	C	11/16/2018	10:42	-133.148	42.996	0	1155.00	0	3.1650	0	34.8000	8	27.718	0	1142.662	0	13.9	4	4.3	4	-1E+10	1	-1E+10	1	-1E+10	1	-1E+10	1	-1E+10	1	-1E+10	1
4901784	123	C	11/16/2018	10:42	-133.148	42.996	0	1159.80	0	3.1590	0	34.8010	8	27.719	0	1147.397	0	14.0	4	4.3	4	-1E+10	1	-1E+10	1	-1E+10	1	-1E+10	1	-1E+10	1	-1E+10	1
4901784	123	C	11/16/2018	10:42	-133.148	42.996	0	1165.60	0	3.1530	0	34.8010	8	27.720	0	1153.119	0	14.1	4	4.4	4	-1E+10	1	-1E+10	1	-1E+10	1	-1E+10	1	-1E+10	1	-1E+10	1
4901784	123	C	11/16/2018	10:42	-133.148	42.996	0	1170.40	0	3.1490	0	34.8010	8	27.720	0	1157.855	0	14.2	4	4.4	4	-1E+10	1	-1E+10	1	-1E+10	1	-1E+10	1	-1E+10	1	-1E+10	1
4901784	123	C	11/16/2018	10:42	-133.148	42.996	0	1175.20	0	3.1390	0	34.8030	8	27.723	0	1162.590	0	14.3	4	4.5	4	-1E+10	1	-1E+10	1	-1E+10	1	-1E+10	1	-1E+10	1	-1E+10	1
4901784	123	C	11/16/2018	10:42	-133.148	42.996	0	1180.00	0	3.1220	0	34.8050	8	27.726	0	1167.325	0	14.5	4	4.5	4	-1E+10	1	-1E+10	1	-1E+10	1	-1E+10	1	-1E+10	1	-1E+10	1
4901784	123	C	11/16/2018	10:42	-133.148	42.996	0	1184.80	0	3.1020	0	34.8070	8	27.729	0	1172.060	0	14.7	4	4.6	4	-1E+10	1	-1E+10	1	-1E+10	1	-1E+10	1	-1E+10	1	-1E+10	1
4901784	123	C	11/16/2018	10:42	-133.148	42.996	0	1189.60	0	3.0880	0	34.8090	8	27.732	0	1176.795	0	14.8	4	4.6	4	-1E+10	1	-1E+10	1	-1E+10	1	-1E+10	1	-1E+10	1	-1E+10	1
4901784	123	C	11/16/2018	10:42	-133.148	42.996	0	1194.50	0	3.0770	0	34.8100	8	27.734	0	1181.629	0	15.0	4	4.7	4	-1E+10	1	-1E+10	1	-1E+10	1	-1E+10	1	-1E+10	1	-1E+10	1
4901784	123	C	11/16/2018	10:42	-133.148	42.996	0	1200.30	0	3.0630	0	34.8120	8	27.737	0	1187.350	0	15.1	4	4.7	4	-1E+10	1	-1E+10	1	-1E+10	1	-1E+10	1	-1E+10	1	-1E+10	1
4901784	123	C	11/16/2018	10:42	-133.148	42.996	0	1205.30	0	3.0540	0	34.8130	8	27.739	0	1192.282	0	15.2	4	4.7	4	-1E+10	1	-1E+10	1	-1E+10	1	-1E+10	1	-1E+10	1	-1E+10	1
4901784	123	C	11/16/2018	10:42	-133.148	42.996	0	1210.10	0	3.0510	0	34.8140	8	27.740	0	1197.016	0	15.4	4	4.8	4	-1E+10	1	-1E+10	1	-1E+10	1	-1E+10	1	-1E+10	1	-1E+10	1
4901784	123	C	11/16/2018	10:42	-133.148	42.996	0	1215.10	0	3.0480	0	34.8160	8	27.742	0	1201.948	0	15.6	4	4.8	4	-1E+10	1	-1E+10	1	-1E+10	1	-1E+10	1	-1E+10	1	-1E+10	1
4901784	123	C	11/16/2018	10:42	-133.148	42.996	0	1220.00	0	3.0450	0	34.8170	8	27.743	0	1206.781	0	15.7	4	4.9	4	-1E+10	1	-1E+10	1	-1E+10	1	-1E+10	1	-1E+10	1	-1E+10	1
4901784	123	C	11/16/2018	10:42	-133.148	42.996	0	1224.80	0	3.0340	0	34.8190	8	27.746	0	1211.515	0	15.9	4	4.9	4	-1E+10	1	-1E+10	1	-1E+10	1	-1E+10	1	-1E+10	1	-1E+10	1
4901784	123	C	11/16/2018	10:42	-133.148	42.996	0	1229.80	0	3.0300	0	34.8190	8	27.746	0	1216.446	0	16.0	4	4.9	4	-1E+10	1	-1E+10	1	-1E+10	1	-1E+10	1	-1E+10	1	-1E+10	1
4901784	123	C	11/16/2018	10:42	-133.148	42.996	0	1234.70	0	3.0240	0	34.8200	8	27.747	0	1221.279	0	16.1	4	5.0	4	-1E+10	1	-1E+10	1	-1E+10	1	-1E+10	1	-1E+10	1	-1E+10	1
4901784	123	C	11/16/2018	10:42	-133.148	42.996	0	1239.50	0	3.0130	0	34.8220	8	27.750	0	1226.013	0	16.2	4	5.0	4	-1E+10	1	-1E+10	1	-1E+10	1	-1E+10	1	-1E+10	1	-1E+10	1
4901784	123	C	11/16/2018	10:42	-133.148	42.996	0	1245.40	0	3.0030	0	34.8230	8	27.752	0	1231.831	0	16.4	4	5.1	4	-1E+10	1	-1E+10	1	-1E+10	1	-1E+10	1	-1E+10	1	-1E+10	1
4901784	123	C	11/16/2018	10:42	-133.148	42.996	0	1250.20	0	2.9970	0	34.8230	8	27.752	0	1236.565	0	16.5	4	5.1	4	-1E+10	1	-1E+10	1	-1E+10	1	-1E+10	1	-1E+10	1	-1E+10	1
4901784	123	C	11/16/2018	10:42	-133.148	42.996	0	1254.70	0	2.9880	0	34.8240	8	27.754	0	1241.002	0	16.7	4	5.2	4	-1E+10	1	-1E+10	1	-1E+10	1	-1E+10	1	-1E+10	1	-1E+10	1
4901784	123	C	11/16/2018	10:42	-133.148	42.996	0	1260.10	0	2.9720	0	34.8260	8	27.757	0	1246.328	0	17.0	4	5.3	4	-1E+10	1	-1E+10	1	-1E+10	1	-1E+10	1	-1E+10	1	-1E+10	1
4901784	123	C	11/16/2018	10:42	-133.148	42.996	0	1265.50	0	2.9510	0	34.8290	8	27.761	0	1251.653	0	17.2	4	5.3	4	-1E+10	1	-1E+10	1	-1E+10	1	-1E+10	1	-1E+10	1	-1E+10	1
4901784	123	C	11/16/2018	10:42	-133.148	42.996	0	1270.10	0	2.9430	0	34.8300	8	27.763	0	1256.188	0	17.4	4	5.4	4	-1E+10	1	-1E+10	1	-1E+10	1	-1E+10	1	-1E+10	1	-1E+10	1
4901784	123	C	11/16/2018	10:42	-133.148	42.996	0	1274.70	0	2.9350	0	34.8310	8	27.764	0	1260.724	0	17.5	4	5.4	4	-1E+10	1	-1E+10	1	-1E+10	1	-1E+10	1	-1E+10	1	-1E+10	1
4901784	123	C	11/16/2018	10:42	-133.148	42.996	0	1280.30	0	2.9270	0	34.8310	8	27.765	0	1266.246	0	17.7	4	5.5	4	-1E+10	1	-1E+10	1	-1E+10	1	-1E+10	1	-1E+10	1	-1E+10	1
4901784	123	C	11/16/2018	10:42	-133.148	42.996	0	1284.90	0	2.9180	0	34.8340	8	27.768	0	1270.782	0	17.9	4	5.5	4	-1E+10	1	-1E+10	1	-1E+10	1	-1E+10	1	-1E+10	1	-1E+10	1
4901784	123	C	11/16/2018	10:42	-133.148	42.996	0	1289.80	0	2.9070	0	34.8350	8	27.770	0	1275.613	0	18.2	4	5.6	4	-1E+10	1	-1E+10	1	-1E+10	1	-1E+10	1	-1E+10	1	-1E+10	1
4901784	123	C	11/16/2018	10:42	-133.148	42.996	0	1295.00	0	2.8900	0	34.8380	8	27.774	0	1280.740	0	18.5	4	5.7	4	-1E+10	1	-1E+10	1	-1E+10	1	-1E+10	1	-1E+10	1	-1E+10	1
4901784	123	C	11/16/2018	10:42	-133.148	42.996	0	1299.90	0	2.8750	0	34.8390	8	27.776	0	1285.571	0	18.7	4	5.8	4	-1E+10	1	-1E+10	1	-1E+10	1	-1E+10	1	-1E+10	1	-1E+10	1
4901784	123	C	11/16/2018	10:42	-133.148	42.996	0	1304.60	0	2.8700	0	34.8400	8	27.778	0	1290.205	0	18.9	4	5.8	4	-1E+10	1	-1E+10	1	-1E+10	1	-1E+10	1	-1E+10	1	-1E+10	1
4901784	123	C	11/16/2018	10:42	-133.148	42.996	0	1309.50	0	2.8600	0	34.8420	8	27.780	0	1295.036	0	19.1	4	5.9	4	-1E+10	1	-1E+10	1	-1E+10	1	-1E+10	1	-1E+10	1	-1E+10	1
4901784	123	C	11/16/2018	10:42	-133.148	42.996	0	1314.50	0	2.8500	0	34.8430	8	27.782	0	1299.965	0	19.3	4	6.0	4	-1E+10	1	-1E+10	1	-1E+10	1	-1E+10	1	-1E+10	1	-1E+10	1
4901784	123	C	11/16/2018	10:42	-133.148	42.996	0	1319.40	0	2.8440	0	34.8440	8	27.783	0	1304.796	0	19.5	4	6.0	4	-1E+10	1	-1E+10	1	-1E+10	1	-1E+10	1	-1E+10	1	-1E+10	1
4901784	123	C	11/16/2018	10:42	-133.148	42.996	0	1324.40	0	2.8350	0	34.8450	8	27.785	0	1309.725	0	19.8	4	6.1	4	-1E+10	1	-1E+10	1	-1E+10	1	-1E+10	1	-1E+10	1	-1E+10	1
4901784	123	C	11/16/2018	10:42	-133.148	42.996	0	1329.40	0	2.8250	0	34.8470	8	27.787	0	1314.654	0	20.0	4	6.2	4	-1E+10	1	-1E+10	1	-1E+10	1	-1E+10	1	-1E+10	1	-1E+10	1
4901784	123	C	11/16/2018	10:42	-133.148	42.996	0	1334.40	0	2.8190	0	34.8480	8	27.789	0	1319.583	0	20.2	4	6.2	4	-1E+10	1	-1E+10	1	-1E+10	1	-1E+10	1	-1E+10	1	-1E+10	1
4901784	123	C	11/16/2018	10:42	-133.148	42.996	0	1339.60	0	2.8110	0	34.8490	8	27.790	0	1324.709	0	20.5	4	6.3	4	-1E+10	1	-1E+10	1	-1E+10	1	-1E+10	1	-1E+10	1	-1E+10	1
4901784	123	C	11/16/2018	10:42	-133.148	42.996	0	1344.60	0	2.8030	0	34.8500	8	27.792	0	1329.637	0	20.8	4	6.4	4	-1E+10	1	-1E+10	1	-1E+10	1	-1E+10	1	-1E+10	1	-1E+10	1
4901784	123	C	11/16/2018	10:42	-133.148	42.996	0	1349.90	0	2.7940	0	34.8510	8	27.793	0	1334.862	0	21.2	4	6.5	4	-1E+10	1	-1E+10	1	-1E+10	1	-1E+10	1	-1E+10	1	-1E+10	1
4901784	123	C	11/16/2018	10:42	-133.148	42.996	0	1355.10	0	2.7710	0	34.8540	8	27.798	0	1339.987	0	21.5	4	6.6	4	-1E+10	1	-1E+10	1	-1E+10	1	-1E+10	1	-1E+10	1	-1E+10	1
4901784	123	C	11/16/2018	10:42	-133.148	42.996	0	1360.40	0	2.7610	0	34.8560	8	27.800	0	1345.211	0	21.7	4	6.7	4	-1E+10	1	-1E+10	1	-1E+10	1	-1E+10	1	-1E+10	1	-1E+10	1
4901784	123	C	11/16/2018	10:42	-133.148	42.996	0	1365.70	0	2.7540	0	34.8570	8	27.802	0	1350.435	0	21.9	4	6.7	4	-1E+10	1	-1E+10	1	-1E+10	1	-1E+10	1	-1E+10	1	-1E+10	1
4901784	123	C	11/16/2018	10:42	-133.148	42.996	0	1370.10	0	2.7490	0	34.8570	8	27.802	0	1354.772	0	22.0	4	6.8	4	-1E+10	1	-1E+10	1	-1E+10	1	-1E+10	1	-1E+10	1	-1E+10	1
4901784	123	C	11/16/2018	10:42	-133.148	42.996	0	1374.60	0	2.7410	0	34.8580	8	27.804	0	1359.207	0	22.2	4	6.8	4	-1E+10	1	-1E+10	1	-1E+10	1	-1E+10	1	-1E+10	1	-1E+10	1
4901784	123	C	11/16/2018	10:42	-133.148	42.996	0	1380.00	0	2.7320	0	34.8590	8	27.805	0	1364.529	0	22.5	4	6.9	4	-1E+10	1	-1E+10	1	-1E+10	1	-1E+10	1	-1E+10	1	-1E+10	1
4901784	123	C	11/16/2018	10:42	-133.148	42.996	0	1385.40	0	2.7220	0	34.8600	8	27.807	0	1369.851	0	22.9	4	7.0	4	-1E+10	1	-1E+10	1	-1E+10	1	-1E+10	1	-1E+10	1	-1E+10	1
4901784	123	C	11/16/2018	10:42	-133.148	42.996	0	1389.90	0	2.7050	0	34.8630	8	27.811	0	1374.286	0	23.2	4	7.1	4	-1E+10	1	-1E+10	1	-1E+10	1	-1E+10	1	-1E+10	1	-1E+10	1
4901784	123	C	11/16/2018	10:42	-133.148	42.996	0	1394.30	0	2.7020	0	34.8630	8	27.811	0	1378.622	0	23.4	4	7.2	4	-1E+10	1	-1E+10	1	-1E+10	1	-1E+10	1	-1E+10	1	-1E+10	1
4901784	123	C	11/16/2018	10:42	-133.148	42.996	0	1399.50	0	2.6930	0	34.8640	8	27.813	0	1383.747	0	23.7	4	7.3	4	-1E+10	1	-1E+10	1	-1E+10	1	-1E+10	1	-1E+10	1	-1E+10	1
4901784	123	C	11/16/2018	10:42	-133.148	42.996	0	1404.40	0	2.6850	0	34.8650	8	27.814	0	1388.575	0	24.0	4	7.4	4	-1E+10	1	-1E+10	1	-1E+10	1	-1E+10	1	-1E+10	1	-1E+10	1
4901784	123	C	11/16/2018	10:42	-133.148	42.996	0	1409.20	0	2.6710	0	34.8670	8	27.817	0	1393.305	0	24.3	4	7.5	4	-1E+10	1	-1E+10	1	-1E+10	1	-1E+10	1	-1E+10	1	-1E+10	1
4901784	123	C	11/16/2018	10:42	-133.148	42.996	0	1414.90	0	2.6620	0	34.8680	8	27.819	0	1398.922	0	24.5	4	7.5	4	-1E+10	1	-1E+10	1	-1E+10	1	-1E+10	1	-1E+10	1	-1E+10	1
4901784	123	C	11/16/2018	10:42	-133.148	42.996	0	1420.50	0	2.6490	0	34.8690	8	27.821	0	1404.440	0	24.8	4	7.6	4	-1E+10	1	-1E+10	1	-1E+10	1	-1E+10	1	-1E+10	1	-1E+10	1
4901784	123	C	11/16/2018	10:42	-133.148	42.996	0	1425.40	0	2.6420	0	34.8690	8	27.822	0	1409.269	0	24.9	4	7.7	4	-1E+10	1	-1E+10	1	-1E+10	1	-1E+10	1	-1E+10	1	-1E+10	1
4901784	123	C	11/16/2018	10:42	-133.148	42.996	0	1430.30	0	2.6310	0	34.8700	8	27.823	0	1414.097	0	25.2	4	7.7	4	-1E+10	1	-1E+10	1	-1E+10	1	-1E+10	1	-1E+10	1	-1E+10	1
4901784	123	C	11/16/2018	10:42	-133.148	42.996	0	1435.20	0	2.6170	0	34.8710	8	27.825	0	1418.925	0	25.5	4	7.8	4	-1E+10	1	-1E+10	1	-1E+10	1	-1E+10	1	-1E+10	1	-1E+10	1
4901784	123	C	11/16/2018	10:42	-133.148	42.996	0	1440.20	0	2.5970	0	34.8730	8	27.829	0	1423.851	0	25.8	4	7.9	4	-1E+10	1	-1E+10	1	-1E+10	1	-1E+10	1	-1E+10	1	-1E+10	1
4901784	123	C	11/16/2018	10:42	-133.148	42.996	0	1445.20	0	2.5890	0	34.8740	8	27.830	0	1428.777	0	26.0	4	8.0	4	-1E+10	1	-1E+10	1	-1E+10	1	-1E+10	1	-1E+10	1	-1E+10	1
4901784	123	C	11/16/2018	10:42	-133.148	42.996	0	1450.20	0	2.5800	0	34.8750	8	27.832	0	1433.704	0	26.2	4	8.0	4	-1E+10	1	-1E+10	1	-1E+10	1	-1E+10	1	-1E+10	1	-1E+10	1
4901784	123	C	11/16/2018	10:42	-133.148	42.996	0	1455.30	0	2.5750	0	34.8750	8	27.832	0	1438.728	0	26.4	4	8.1	4	-1E+10	1	-1E+10	1	-1E+10	1	-1E+10	1	-1E+10	1	-1E+10	1
4901784	123	C	11/16/2018	10:42	-133.148	42.996	0	1460.40	0	2.5670	0	34.8760	8	27.834	0	1443.753	0	26.6	4	8.2	4	-1E+10	1	-1E+10	1	-1E+10	1	-1E+10	1	-1E+10	1	-1E+10	1
4901784	123	C	11/16/2018	10:42	-133.148	42.996	0	1465.50	0	2.5550	0	34.8780	8	27.836	0	1448.777	0	27.0	4	8.3	4	-1E+10	1	-1E+10	1	-1E+10	1	-1E+10	1	-1E+10	1	-1E+10	1
4901784	123	C	11/16/2018	10:42	-133.148	42.996	0	1470.70	0	2.5480	0	34.8790	8	27.838	0	1453.900	0	27.2	4	8.3	4	-1E+10	1	-1E+10	1	-1E+10	1	-1E+10	1	-1E+10	1	-1E+10	1
4901784	123	C	11/16/2018	10:42	-133.148	42.996	0	1475.00	0	2.5450	0	34.8790	8	27.838	0	1458.136	0	27.5	4	8.4	4	-1E+10	1	-1E+10	1	-1E+10	1	-1E+10	1	-1E+10	1	-1E+10	1
4901784	123	C	11/16/2018	10:42	-133.148	42.996	0	1479.30	0	2.5360	0	34.8800	8	27.840	0	1462.372	0	27.8	4	8.5	4	-1E+10	1	-1E+10	1	-1E+10	1	-1E+10	1	-1E+10	1	-1E+10	1
4901784	123	C	11/16/2018	10:42	-133.148	42.996	0	1484.60	0	2.5250	0	34.8820	8	27.842	0	1467.593	0	28.1	4	8.6	4	-1E+10	1	-1E+10	1	-1E+10	1	-1E+10	1	-1E+10	1	-1E+10	1
4901784	123	C	11/16/2018	10:42	-133.148	42.996	0	1489.90	0	2.5190	0	34.8820	8	27.843	0	1472.814	0	28.3	4	8.7	4	-1E+10	1	-1E+10	1	-1E+10	1	-1E+10	1	-1E+10	1	-1E+10	1
4901784	123	C	11/16/2018	10:42	-133.148	42.996	0	1495.20	0	2.5140	0	34.8830	8	27.844	0	1478.034	0	28.5	4	8.7	4	-1E+10	1	-1E+10	1	-1E+10	1	-1E+10	1	-1E+10	1	-1E+10	1
4901784	123	C	11/16/2018	10:42	-133.148	42.996	0	1500.60	0	2.5090	0	34.8840	8	27.845	0	1483.354	0	28.8	4	8.8	4	-1E+10	1	-1E+10	1	-1E+10	1	-1E+10	1	-1E+10	1	-1E+10	1
4901784	123	C	11/16/2018	10:42	-133.148	42.996	0	1505.10	0	2.5060	0	34.8840	8	27.846	0	1487.786	0	29.0	4	8.9	4	-1E+10	1	-1E+10	1	-1E+10	1	-1E+10	1	-1E+10	1	-1E+10	1
4901784	123	C	11/16/2018	10:42	-133.148	42.996	0	1509.60	0	2.4970	0	34.8850	8	27.847	0	1492.218	0	29.3	4	9.0	4	-1E+10	1	-1E+10	1	-1E+10	1	-1E+10	1	-1E+10	1	-1E+10	1
4901784	123	C	11/16/2018	10:42	-133.148	42.996	0	1515.00	0	2.4880	0	34.8870	8	27.850	0	1497.537	0	29.4	4	9.0	4	-1E+10	1	-1E+10	1	-1E+10	1	-1E+10	1	-1E+10	1	-1E+10	1
4901784	123	C	11/16/2018	10:42	-133.148	42.996	0	1520.50	0	2.4850	0	34.8870	8	27.850	0	1502.954	0	29.6	4	9.1	4	-1E+10	1	-1E+10	1	-1E+10	1	-1E+10	1	-1E+10	1	-1E+10	1
4901784	123	C	11/16/2018	10:42	-133.148	42.996	0	1525.10	0	2.4820	0	34.8870	8	27.850	0	1507.485	0	29.8	4	9.1	4	-1E+10	1	-1E+10	1	-1E+10	1	-1E+10	1	-1E+10	1	-1E+10	1
4901784	123	C	11/16/2018	10:42	-133.148	42.996	0	1529.60	0	2.4710	0	34.8880	8	27.852	0	1511.917	0	30.1	4	9.2	4	-1E+10	1	-1E+10	1	-1E+10	1	-1E+10	1	-1E+10	1	-1E+10	1
4901784	123	C	11/16/2018	10:42	-133.148	42.996	0	1535.10	0	2.4660	0	34.8890	8	27.853	0	1517.333	0	30.3	4	9.3	4	-1E+10	1	-1E+10	1	-1E+10	1	-1E+10	1	-1E+10	1	-1E+10	1
4901784	123	C	11/16/2018	10:42	-133.148	42.996	0	1540.60	0	2.4610	0	34.8900	8	27.854	0	1522.750	0	30.6	4	9.4	4	-1E+10	1	-1E+10	1	-1E+10	1	-1E+10	1	-1E+10	1	-1E+10	1
4901784	123	C	11/16/2018	10:42	-133.148	42.996	0	1545.20	0	2.4530	0	34.8910	8	27.856	0	1527.280	0	30.9	4	9.4	4	-1E+10	1	-1E+10	1	-1E+10	1	-1E+10	1	-1E+10	1	-1E+10	1
4901784	123	C	11/16/2018	10:42	-133.148	42.996	0	1549.70	0	2.4460	0	34.8910	8	27.857	0	1531.711	0	31.0	4	9.5	4	-1E+10	1	-1E+10	1	-1E+10	1	-1E+10	1	-1E+10	1	-1E+10	1
4901784	123	C	11/16/2018	10:42	-133.148	42.996	0	1555.20	0	2.4410	0	34.8920	8	27.858	0	1537.128	0	31.3	4	9.6	4	-1E+10	1	-1E+10	1	-1E+10	1	-1E+10	1	-1E+10	1	-1E+10	1
4901784	123	C	11/16/2018	10:42	-133.148	42.996	0	1559.80	0	2.4350	0	34.8930	8	27.859	0	1541.657	0	31.4	4	9.6	4	-1E+10	1	-1E+10	1	-1E+10	1	-1E+10	1	-1E+10	1	-1E+10	1
4901784	123	C	11/16/2018	10:42	-133.148	42.996	0	1564.40	0	2.4300	0	34.8930	8	27.860	0	1546.187	0	31.7	4	9.7	4	-1E+10	1	-1E+10	1	-1E+10	1	-1E+10	1	-1E+10	1	-1E+10	1
4901784	123	C	11/16/2018	10:42	-133.148	42.996	0	1569.90	0	2.4200	0	34.8950	8	27.862	0	1551.603	0	32.0	4	9.8	4	-1E+10	1	-1E+10	1	-1E+10	1	-1E+10	1	-1E+10	1	-1E+10	1
4901784	123	C	11/16/2018	10:42	-133.148	42.996	0	1575.40	0	2.4120	0	34.8960	8	27.864	0	1557.019	0	32.3	4	9.8	4	-1E+10	1	-1E+10	1	-1E+10	1	-1E+10	1	-1E+10	1	-1E+10	1
4901784	123	C	11/16/2018	10:42	-133.148	42.996	0	1580.00	0	2.4040	0	34.8970	8	27.865	0	1561.548	0	32.3	4	9.9	4	-1E+10	1	-1E+10	1	-1E+10	1	-1E+10	1	-1E+10	1	-1E+10	1
4901784	123	C	11/16/2018	10:42	-133.148	42.996	0	1584.60	0	2.3990	0	34.8970	8	27.865	0	1566.077	0	32.5	4	9.9	4	-1E+10	1	-1E+10	1	-1E+10	1	-1E+10	1	-1E+10	1	-1E+10	1
4901784	123	C	11/16/2018	10:42	-133.148	42.996	0	1590.20	0	2.3930	0	34.8980	8	27.867	0	1571.591	0	32.7	4	10.0	4	-1E+10	1	-1E+10	1	-1E+10	1	-1E+10	1	-1E+10	1	-1E+10	1
4901784	123	C	11/16/2018	10:42	-133.148	42.996	0	1594.80	0	2.3880	0	34.8980	8	27.867	0	1576.120	0	33.0	4	10.1	4	-1E+10	1	-1E+10	1	-1E+10	1	-1E+10	1	-1E+10	1	-1E+10	1
4901784	123	C	11/16/2018	10:42	-133.148	42.996	0	1599.50	0	2.3780	0	34.8990	8	27.869	0	1580.747	0	33.3	4	10.2	4	-1E+10	1	-1E+10	1	-1E+10	1	-1E+10	1	-1E+10	1	-1E+10	1
4901784	123	C	11/16/2018	10:42	-133.148	42.996	0	1605.00	0	2.3630	0	34.9010	8	27.872	0	1586.162	0	33.5	4	10.2	4	-1E+10	1	-1E+10	1	-1E+10	1	-1E+10	1	-1E+10	1	-1E+10	1
4901784	123	C	11/16/2018	10:42	-133.148	42.996	0	1610.50	0	2.3530	0	34.9020	8	27.873	0	1591.577	0	33.8	4	10.3	4	-1E+10	1	-1E+10	1	-1E+10	1	-1E+10	1	-1E+10	1	-1E+10	1
4901784	123	C	11/16/2018	10:42	-133.148	42.996	0	1615.50	0	2.3460	0	34.9030	8	27.875	0	1596.500	0	34.2	4	10.4	4	-1E+10	1	-1E+10	1	-1E+10	1	-1E+10	1	-1E+10	1	-1E+10	1
4901784	123	C	11/16/2018	10:42	-133.148	42.996	0	1620.50	0	2.3400	0	34.9040	8	27.876	0	1601.422	0	34.5	4	10.5	4	-1E+10	1	-1E+10	1	-1E+10	1	-1E+10	1	-1E+10	1	-1E+10	1
4901784	123	C	11/16/2018	10:42	-133.148	42.996	0	1625.40	0	2.3350	0	34.9050	8	27.877	0	1606.246	0	34.8	4	10.6	4	-1E+10	1	-1E+10	1	-1E+10	1	-1E+10	1	-1E+10	1	-1E+10	1
4901784	123	C	11/16/2018	10:42	-133.148	42.996	0	1630.40	0	2.3310	0	34.9060	8	27.879	0	1611.168	0	35.1	4	10.7	4	-1E+10	1	-1E+10	1	-1E+10	1	-1E+10	1	-1E+10	1	-1E+10	1
4901784	123	C	11/16/2018	10:42	-133.148	42.996	0	1635.40	0	2.3260	0	34.9060	8	27.879	0	1616.090	0	35.4	4	10.8	4	-1E+10	1	-1E+10	1	-1E+10	1	-1E+10	1	-1E+10	1	-1E+10	1
4901784	123	C	11/16/2018	10:42	-133.148	42.996	0	1640.40	0	2.3200	0	34.9070	8	27.880	0	1621.012	0	35.7	4	10.9	4	-1E+10	1	-1E+10	1	-1E+10	1	-1E+10	1	-1E+10	1	-1E+10	1
4901784	123	C	11/16/2018	10:42	-133.148	42.996	0	1645.40	0	2.3180	0	34.9070	8	27.881	0	1625.933	0	36.0	4	11.0	4	-1E+10	1	-1E+10	1	-1E+10	1	-1E+10	1	-1E+10	1	-1E+10	1
4901784	123	C	11/16/2018	10:42	-133.148	42.996	0	1650.50	0	2.3090	0	34.9090	8	27.883	0	1630.953	0	36.4	4	11.1	4	-1E+10	1	-1E+10	1	-1E+10	1	-1E+10	1	-1E+10	1	-1E+10	1
4901784	123	C	11/16/2018	10:42	-133.148	42.996	0	1655.50	0	2.2970	0	34.9100	8	27.885	0	1635.875	0	36.8	4	11.2	4	-1E+10	1	-1E+10	1	-1E+10	1	-1E+10	1	-1E+10	1	-1E+10	1
4901784	123	C	11/16/2018	10:42	-133.148	42.996	0	1660.50	0	2.2940	0	34.9110	8	27.886	0	1640.796	0	37.3	4	11.3	4	-1E+10	1	-1E+10	1	-1E+10	1	-1E+10	1	-1E+10	1	-1E+10	1
4901784	123	C	11/16/2018	10:42	-133.148	42.996	0	1665.60	0	2.2900	0	34.9120	8	27.887	0	1645.816	0	37.7	4	11.5	4	-1E+10	1	-1E+10	1	-1E+10	1	-1E+10	1	-1E+10	1	-1E+10	1
4901784	123	C	11/16/2018	10:42	-133.148	42.996	0	1670.60	0	2.2810	0	34.9130	8	27.889	0	1650.737	0	38.2	4	11.6	4	-1E+10	1	-1E+10	1	-1E+10	1	-1E+10	1	-1E+10	1	-1E+10	1
4901784	123	C	11/16/2018	10:42	-133.148	42.996	0	1675.70	0	2.2710	0	34.9140	8	27.890	0	1655.756	0	38.7	4	11.8	4	-1E+10	1	-1E+10	1	-1E+10	1	-1E+10	1	-1E+10	1	-1E+10	1
4901784	123	C	11/16/2018	10:42	-133.148	42.996	0	1680.00	0	2.2670	0	34.9150	8	27.891	0	1659.988	0	39.0	4	11.9	4	-1E+10	1	-1E+10	1	-1E+10	1	-1E+10	1	-1E+10	1	-1E+10	1
4901784	123	C	11/16/2018	10:42	-133.148	42.996	0	1684.30	0	2.2610	0	34.9160	8	27.893	0	1664.220	0	39.3	4	12.0	4	-1E+10	1	-1E+10	1	-1E+10	1	-1E+10	1	-1E+10	1	-1E+10	1
4901784	123	C	11/16/2018	10:42	-133.148	42.996	0	1689.40	0	2.2540	0	34.9170	8	27.894	0	1669.240	0	39.7	4	12.1	4	-1E+10	1	-1E+10	1	-1E+10	1	-1E+10	1	-1E+10	1	-1E+10	1
4901784	123	C	11/16/2018	10:42	-133.148	42.996	0	1694.60	0	2.2470	0	34.9180	8	27.895	0	1674.357	0	40.1	4	12.2	4	-1E+10	1	-1E+10	1	-1E+10	1	-1E+10	1	-1E+10	1	-1E+10	1
4901784	123	C	11/16/2018	10:42	-133.148	42.996	0	1699.80	0	2.2420	0	34.9190	8	27.897	0	1679.474	0	40.4	4	12.3	4	-1E+10	1	-1E+10	1	-1E+10	1	-1E+10	1	-1E+10	1	-1E+10	1
4901784	123	C	11/16/2018	10:42	-133.148	42.996	0	1705.00	0	2.2340	0	34.9200	8	27.898	0	1684.591	0	40.8	4	12.4	4	-1E+10	1	-1E+10	1	-1E+10	1	-1E+10	1	-1E+10	1	-1E+10	1
4901784	123	C	11/16/2018	10:42	-133.148	42.996	0	1710.20	0	2.2260	0	34.9210	8	27.900	0	1689.708	0	41.1	4	12.5	4	-1E+10	1	-1E+10	1	-1E+10	1	-1E+10	1	-1E+10	1	-1E+10	1
4901784	123	C	11/16/2018	10:42	-133.148	42.996	0	1715.40	0	2.2180	0	34.9210	8	27.900	0	1694.825	0	41.5	4	12.6	4	-1E+10	1	-1E+10	1	-1E+10	1	-1E+10	1	-1E+10	1	-1E+10	1
4901784	123	C	11/16/2018	10:42	-133.148	42.996	0	1720.60	0	2.2110	0	34.9230	8	27.903	0	1699.942	0	41.9	4	12.7	4	-1E+10	1	-1E+10	1	-1E+10	1	-1E+10	1	-1E+10	1	-1E+10	1
4901784	123	C	11/16/2018	10:42	-133.148	42.996	0	1725.00	0	2.2080	0	34.9230	8	27.903	0	1704.272	0	42.2	4	12.8	4	-1E+10	1	-1E+10	1	-1E+10	1	-1E+10	1	-1E+10	1	-1E+10	1
4901784	123	C	11/16/2018	10:42	-133.148	42.996	0	1729.40	0	2.2020	0	34.9230	8	27.903	0	1708.601	0	42.7	4	13.0	4	-1E+10	1	-1E+10	1	-1E+10	1	-1E+10	1	-1E+10	1	-1E+10	1
4901784	123	C	11/16/2018	10:42	-133.148	42.996	0	1734.70	0	2.1870	0	34.9260	8	27.907	0	1713.816	0	43.2	4	13.1	4	-1E+10	1	-1E+10	1	-1E+10	1	-1E+10	1	-1E+10	1	-1E+10	1
4901784	123	C	11/16/2018	10:42	-133.148	42.996	0	1740.10	0	2.1830	0	34.9260	8	27.907	0	1719.129	0	43.4	4	13.2	4	-1E+10	1	-1E+10	1	-1E+10	1	-1E+10	1	-1E+10	1	-1E+10	1
4901784	123	C	11/16/2018	10:42	-133.148	42.996	0	1745.40	0	2.1800	0	34.9270	8	27.908	0	1724.344	0	43.6	4	13.2	4	-1E+10	1	-1E+10	1	-1E+10	1	-1E+10	1	-1E+10	1	-1E+10	1
4901784	123	C	11/16/2018	10:42	-133.148	42.996	0	1749.80	0	2.1760	0	34.9270	8	27.909	0	1728.673	0	43.8	4	13.3	4	-1E+10	1	-1E+10	1	-1E+10	1	-1E+10	1	-1E+10	1	-1E+10	1
4901784	123	C	11/16/2018	10:42	-133.148	42.996	0	1754.30	0	2.1730	0	34.9270	8	27.909	0	1733.100	0	44.1	4	13.4	4	-1E+10	1	-1E+10	1	-1E+10	1	-1E+10	1	-1E+10	1	-1E+10	1
4901784	123	C	11/16/2018	10:42	-133.148	42.996	0	1759.60	0	2.1660	0	34.9280	8	27.910	0	1738.314	0	44.4	4	13.5	4	-1E+10	1	-1E+10	1	-1E+10	1	-1E+10	1	-1E+10	1	-1E+10	1
4901784	123	C	11/16/2018	10:42	-133.148	42.996	0	1765.00	0	2.1620	0	34.9290	8	27.912	0	1743.627	0	44.6	4	13.5	4	-1E+10	1	-1E+10	1	-1E+10	1	-1E+10	1	-1E+10	1	-1E+10	1
4901784	123	C	11/16/2018	10:42	-133.148	42.996	0	1770.30	0	2.1600	0	34.9290	8	27.912	0	1748.841	0	44.9	4	13.6	4	-1E+10	1	-1E+10	1	-1E+10	1	-1E+10	1	-1E+10	1	-1E+10	1
4901784	123	C	11/16/2018	10:42	-133.148	42.996	0	1775.70	0	2.1500	0	34.9310	8	27.914	0	1754.153	0	45.4	4	13.8	4	-1E+10	1	-1E+10	1	-1E+10	1	-1E+10	1	-1E+10	1	-1E+10	1
4901784	123	C	11/16/2018	10:42	-133.148	42.996	0	1780.10	0	2.1440	0	34.9320	8	27.915	0	1758.481	0	45.6	4	13.8	4	-1E+10	1	-1E+10	1	-1E+10	1	-1E+10	1	-1E+10	1	-1E+10	1
4901784	123	C	11/16/2018	10:42	-133.148	42.996	0	1784.60	0	2.1410	0	34.9320	8	27.916	0	1762.908	0	45.8	4	13.9	4	-1E+10	1	-1E+10	1	-1E+10	1	-1E+10	1	-1E+10	1	-1E+10	1
4901784	123	C	11/16/2018	10:42	-133.148	42.996	0	1790.10	0	2.1380	0	34.9320	8	27.916	0	1768.318	0	46.0	4	14.0	4	-1E+10	1	-1E+10	1	-1E+10	1	-1E+10	1	-1E+10	1	-1E+10	1
4901784	123	C	11/16/2018	10:42	-133.148	42.996	0	1794.70	0	2.1360	0	34.9330	8	27.917	0	1772.843	0	46.2	4	14.0	4	-1E+10	1	-1E+10	1	-1E+10	1	-1E+10	1	-1E+10	1	-1E+10	1
4901784	123	C	11/16/2018	10:42	-133.148	42.996	0	1799.30	0	2.1310	0	34.9330	8	27.917	0	1777.368	0	46.5	4	14.1	4	-1E+10	1	-1E+10	1	-1E+10	1	-1E+10	1	-1E+10	1	-1E+10	1
4901784	123	C	11/16/2018	10:42	-133.148	42.996	0	1804.80	0	2.1240	0	34.9330	8	27.918	0	1782.778	0	46.8	4	14.2	4	-1E+10	1	-1E+10	1	-1E+10	1	-1E+10	1	-1E+10	1	-1E+10	1
4901784	123	C	11/16/2018	10:42	-133.148	42.996	0	1810.40	0	2.1200	0	34.9340	8	27.919	0	1788.286	0	47.1	4	14.3	4	-1E+10	1	-1E+10	1	-1E+10	1	-1E+10	1	-1E+10	1	-1E+10	1
4901784	123	C	11/16/2018	10:42	-133.148	42.996	0	1814.90	0	2.1190	0	34.9350	8	27.920	0	1792.712	0	47.3	4	14.4	4	-1E+10	1	-1E+10	1	-1E+10	1	-1E+10	1	-1E+10	1	-1E+10	1
4901784	123	C	11/16/2018	10:42	-133.148	42.996	0	1819.50	0	2.1100	0	34.9360	8	27.922	0	1797.236	0	47.7	4	14.5	4	-1E+10	1	-1E+10	1	-1E+10	1	-1E+10	1	-1E+10	1	-1E+10	1
4901784	123	C	11/16/2018	10:42	-133.148	42.996	0	1825.00	0	2.1040	0	34.9360	8	27.922	0	1802.646	0	47.9	4	14.5	4	-1E+10	1	-1E+10	1	-1E+10	1	-1E+10	1	-1E+10	1	-1E+10	1
4901784	123	C	11/16/2018	10:42	-133.148	42.996	0	1830.50	0	2.1010	0	34.9370	8	27.923	0	1808.055	0	48.1	4	14.6	4	-1E+10	1	-1E+10	1	-1E+10	1	-1E+10	1	-1E+10	1	-1E+10	1
4901784	123	C	11/16/2018	10:42	-133.148	42.996	0	1835.40	0	2.1010	0	34.9380	8	27.924	0	1812.874	0	48.3	4	14.6	4	-1E+10	1	-1E+10	1	-1E+10	1	-1E+10	1	-1E+10	1	-1E+10	1
4901784	123	C	11/16/2018	10:42	-133.148	42.996	0	1840.40	0	2.0960	0	34.9390	8	27.925	0	1817.791	0	48.6	4	14.7	4	-1E+10	1	-1E+10	1	-1E+10	1	-1E+10	1	-1E+10	1	-1E+10	1
4901784	123	C	11/16/2018	10:42	-133.148	42.996	0	1845.50	0	2.0930	0	34.9390	8	27.926	0	1822.807	0	48.9	4	14.8	4	-1E+10	1	-1E+10	1	-1E+10	1	-1E+10	1	-1E+10	1	-1E+10	1
4901784	123	C	11/16/2018	10:42	-133.148	42.996	0	1850.50	0	2.0880	0	34.9400	8	27.927	0	1827.724	0	49.2	4	14.9	4	-1E+10	1	-1E+10	1	-1E+10	1	-1E+10	1	-1E+10	1	-1E+10	1
4901784	123	C	11/16/2018	10:42	-133.148	42.996	0	1855.60	0	2.0820	0	34.9410	8	27.928	0	1832.739	0	49.5	4	15.0	4	-1E+10	1	-1E+10	1	-1E+10	1	-1E+10	1	-1E+10	1	-1E+10	1
4901784	123	C	11/16/2018	10:42	-133.148	42.996	0	1860.60	0	2.0800	0	34.9410	8	27.928	0	1837.656	0	49.7	4	15.1	4	-1E+10	1	-1E+10	1	-1E+10	1	-1E+10	1	-1E+10	1	-1E+10	1
4901784	123	C	11/16/2018	10:42	-133.148	42.996	0	1865.80	0	2.0770	0	34.9410	8	27.929	0	1842.769	0	50.1	4	15.2	4	-1E+10	1	-1E+10	1	-1E+10	1	-1E+10	1	-1E+10	1	-1E+10	1
4901784	123	C	11/16/2018	10:42	-133.148	42.996	0	1870.00	0	2.0740	0	34.9420	8	27.930	0	1846.899	0	50.4	4	15.3	4	-1E+10	1	-1E+10	1	-1E+10	1	-1E+10	1	-1E+10	1	-1E+10	1
4901784	123	C	11/16/2018	10:42	-133.148	42.996	0	1874.40	0	2.0690	0	34.9420	8	27.930	0	1851.226	0	50.7	4	15.3	4	-1E+10	1	-1E+10	1	-1E+10	1	-1E+10	1	-1E+10	1	-1E+10	1
4901784	123	C	11/16/2018	10:42	-133.148	42.996	0	1879.60	0	2.0620	0	34.9430	8	27.931	0	1856.339	0	51.1	4	15.5	4	-1E+10	1	-1E+10	1	-1E+10	1	-1E+10	1	-1E+10	1	-1E+10	1
4901784	123	C	11/16/2018	10:42	-133.148	42.996	0	1884.80	0	2.0560	0	34.9430	8	27.932	0	1861.452	0	51.5	4	15.6	4	-1E+10	1	-1E+10	1	-1E+10	1	-1E+10	1	-1E+10	1	-1E+10	1
4901784	123	C	11/16/2018	10:42	-133.148	42.996	0	1890.00	0	2.0450	0	34.9450	8	27.934	0	1866.564	0	52.0	4	15.7	4	-1E+10	1	-1E+10	1	-1E+10	1	-1E+10	1	-1E+10	1	-1E+10	1
4901784	123	C	11/16/2018	10:42	-133.148	42.996	0	1895.30	0	2.0390	0	34.9450	8	27.935	0	1871.775	0	52.3	4	15.8	4	-1E+10	1	-1E+10	1	-1E+10	1	-1E+10	1	-1E+10	1	-1E+10	1
4901784	123	C	11/16/2018	10:42	-133.148	42.996	0	1900.60	0	2.0350	0	34.9460	8	27.936	0	1876.986	0	52.5	4	15.9	4	-1E+10	1	-1E+10	1	-1E+10	1	-1E+10	1	-1E+10	1	-1E+10	1
4901784	123	C	11/16/2018	10:42	-133.148	42.996	0	1905.10	0	2.0320	0	34.9470	8	27.937	0	1881.410	0	52.7	4	16.0	4	-1E+10	1	-1E+10	1	-1E+10	1	-1E+10	1	-1E+10	1	-1E+10	1
4901784	123	C	11/16/2018	10:42	-133.148	42.996	0	1909.60	0	2.0300	0	34.9470	8	27.937	0	1885.835	0	52.9	4	16.0	4	-1E+10	1	-1E+10	1	-1E+10	1	-1E+10	1	-1E+10	1	-1E+10	1
4901784	123	C	11/16/2018	10:42	-133.148	42.996	0	1915.60	0	2.0290	0	34.9470	8	27.937	0	1891.733	0	53.1	4	16.1	4	-1E+10	1	-1E+10	1	-1E+10	1	-1E+10	1	-1E+10	1	-1E+10	1
4901784	123	C	11/16/2018	10:42	-133.148	42.996	0	1920.60	0	2.0260	0	34.9480	8	27.938	0	1896.649	0	53.4	4	16.1	4	-1E+10	1	-1E+10	1	-1E+10	1	-1E+10	1	-1E+10	1	-1E+10	1
4901784	123	C	11/16/2018	10:42	-133.148	42.996	0	1925.30	0	2.0220	0	34.9480	8	27.939	0	1901.269	0	53.6	4	16.2	4	-1E+10	1	-1E+10	1	-1E+10	1	-1E+10	1	-1E+10	1	-1E+10	1
4901784	123	C	11/16/2018	10:42	-133.148	42.996	0	1930.10	0	2.0180	0	34.9490	8	27.940	0	1905.988	0	53.9	4	16.3	4	-1E+10	1	-1E+10	1	-1E+10	1	-1E+10	1	-1E+10	1	-1E+10	1
4901784	123	C	11/16/2018	10:42	-133.148	42.996	0	1934.90	0	2.0160	0	34.9490	8	27.940	0	1910.706	0	54.2	4	16.4	4	-1E+10	1	-1E+10	1	-1E+10	1	-1E+10	1	-1E+10	1	-1E+10	1
4901784	123	C	11/16/2018	10:42	-133.148	42.996	0	1939.70	0	2.0100	0	34.9500	8	27.941	0	1915.425	0	54.5	4	16.5	4	-1E+10	1	-1E+10	1	-1E+10	1	-1E+10	1	-1E+10	1	-1E+10	1
4901784	123	C	11/16/2018	10:42	-133.148	42.996	0	1944.60	0	2.0050	0	34.9500	8	27.942	0	1920.241	0	54.8	4	16.6	4	-1E+10	1	-1E+10	1	-1E+10	1	-1E+10	1	-1E+10	1	-1E+10	1
4901784	123	C	11/16/2018	10:42	-133.148	42.996	0	1949.50	0	1.9990	0	34.9510	8	27.943	0	1925.058	0	55.1	4	16.7	4	-1E+10	1	-1E+10	1	-1E+10	1	-1E+10	1	-1E+10	1	-1E+10	1
4901784	123	C	11/16/2018	10:42	-133.148	42.996	0	1954.50	0	1.9960	0	34.9520	8	27.944	0	1929.972	0	55.3	4	16.7	4	-1E+10	1	-1E+10	1	-1E+10	1	-1E+10	1	-1E+10	1	-1E+10	1
4901784	123	C	11/16/2018	10:42	-133.148	42.996	0	1959.40	0	1.9940	0	34.9520	8	27.944	0	1934.789	0	55.4	4	16.8	4	-1E+10	1	-1E+10	1	-1E+10	1	-1E+10	1	-1E+10	1	-1E+10	1
4901784	123	C	11/16/2018	10:42	-133.148	42.996	0	1964.30	0	1.9940	0	34.9520	8	27.944	0	1939.605	0	55.5	4	16.8	4	-1E+10	1	-1E+10	1	-1E+10	1	-1E+10	1	-1E+10	1	-1E+10	1
4901784	123	C	11/16/2018	10:42	-133.148	42.996	0	1969.40	0	1.9920	0	34.9520	8	27.945	0	1944.617	0	55.8	4	16.9	4	-1E+10	1	-1E+10	1	-1E+10	1	-1E+10	1	-1E+10	1	-1E+10	1
4901784	123	C	11/16/2018	10:42	-133.148	42.996	0	1974.40	0	1.9890	0	34.9530	8	27.946	0	1949.532	0	56.0	4	16.9	4	-1E+10	1	-1E+10	1	-1E+10	1	-1E+10	1	-1E+10	1	-1E+10	1
4901784	123	C	11/16/2018	10:42	-133.148	42.996	0	1979.40	0	1.9850	0	34.9540	8	27.947	0	1954.446	0	56.3	4	17.0	4	-1E+10	1	-1E+10	1	-1E+10	1	-1E+10	1	-1E+10	1	-1E+10	1
4901784	123	C	11/16/2018	10:42	-133.148	42.996	0	1984.50	0	1.9830	0	34.9540	8	27.947	0	1959.458	0	56.5	4	17.1	4	-1E+10	1	-1E+10	1	-1E+10	1	-1E+10	1	-1E+10	1	-1E+10	1
4901784	123	C	11/16/2018	10:42	-133.148	42.996	0	1989.50	0	1.9790	0	34.9550	8	27.948	0	1964.372	0	56.8	4	17.2	4	-1E+10	1	-1E+10	1	-1E+10	1	-1E+10	1	-1E+10	1	-1E+10	1
4901784	123	C	11/16/2018	10:42	-133.148	42.996	0	1994.60	0	1.9780	0	34.9550	8	27.948	0	1969.384	0	57.0	4	17.2	4	-1E+10	1	-1E+10	1	-1E+10	1	-1E+10	1	-1E+10	1	-1E+10	1
4901784	123	C	11/16/2018	10:42	-133.148	42.996	0	1999.70	0	1.9740	0	34.9560	8	27.949	0	1974.396	0	57.3	4	17.3	4	-1E+10	1	-1E+10	1	-1E+10	1	-1E+10	1	-1E+10	1	-1E+10	1
4901784	123	C	11/16/2018	10:42	-133.148	42.996	0	2005.40	0	1.9700	0	34.9560	8	27.950	0	1979.997	0	57.6	4	17.4	4	-1E+10	1	-1E+10	1	-1E+10	1	-1E+10	1	-1E+10	1	-1E+10	1
4901784	123	C	11/16/2018	10:42	-133.148	42.996	0	2010.00	0	1.9660	0	34.9570	8	27.951	0	1984.518	0	57.9	4	17.5	4	-1E+10	1	-1E+10	1	-1E+10	1	-1E+10	1	-1E+10	1	-1E+10	1
4901784	123	C	11/16/2018	10:42	-133.148	42.996	0	2014.90	0	1.9620	0	34.9580	8	27.952	0	1989.333	0	58.4	4	17.6	4	-1E+10	1	-1E+10	1	-1E+10	1	-1E+10	1	-1E+10	1	-1E+10	1
4901784	123	C	11/16/2018	10:42	-133.148	42.996	0	2020.10	0	1.9580	0	34.9590	8	27.953	0	1994.442	0	58.7	4	17.7	4	-1E+10	1	-1E+10	1	-1E+10	1	-1E+10	1	-1E+10	1	-1E+10	1
4901784	123	C	11/16/2018	10:42	-133.148	42.996	0																										
4901784	124	C	11/26/2018	10:43	-133.079	43.034	0	1.90	0	15.7080	0	33.0940	8	24.348	0	1.885	0	237.8	4	96.0	4	-1E+10	1	-1E+10	1	-1E+10	1	-1E+10	1	-1E+10	1	-1E+10	1
4901784	124	C	11/26/2018	10:43	-133.079	43.034	0	3.10	0	15.7080	0	33.0940	8	24.348	0	3.075	0	237.6	4	96.0	4	-1E+10	1	-1E+10	1	-1E+10	1	-1E+10	1	-1E+10	1	-1E+10	1
4901784	124	C	11/26/2018	10:43	-133.079	43.034	0	4.30	0	15.7080	0	33.0940	8	24.348	0	4.266	0	237.7	4	96.0	4	-1E+10	1	-1E+10	1	-1E+10	1	-1E+10	1	-1E+10	1	-1E+10	1
4901784	124	C	11/26/2018	10:43	-133.079	43.034	0	5.70	0	15.7090	0	33.0940	8	24.348	0	5.655	0	237.7	4	96.0	4	-1E+10	1	-1E+10	1	-1E+10	1	-1E+10	1	-1E+10	1	-1E+10	1
4901784	124	C	11/26/2018	10:43	-133.079	43.034	0	7.10	0	15.7100	0	33.0940	8	24.348	0	7.044	0	237.5	4	95.9	4	-1E+10	1	-1E+10	1	-1E+10	1	-1E+10	1	-1E+10	1	-1E+10	1
4901784	124	C	11/26/2018	10:43	-133.079	43.034	0	9.10	0	15.7090	0	33.0940	8	24.348	0	9.028	0	237.4	4	95.9	4	-1E+10	1	-1E+10	1	-1E+10	1	-1E+10	1	-1E+10	1	-1E+10	1
4901784	124	C	11/26/2018	10:43	-133.079	43.034	0	10.60	0	15.7100	0	33.0940	8	24.348	0	10.516	0	237.5	4	95.9	4	-1E+10	1	-1E+10	1	-1E+10	1	-1E+10	1	-1E+10	1	-1E+10	1
4901784	124	C	11/26/2018	10:43	-133.079	43.034	0	12.10	0	15.7120	0	33.0940	8	24.348	0	12.004	0	237.3	4	95.8	4	-1E+10	1	-1E+10	1	-1E+10	1	-1E+10	1	-1E+10	1	-1E+10	1
4901784	124	C	11/26/2018	10:43	-133.079	43.034	0	13.40	0	15.7110	0	33.0940	8	24.348	0	13.293	0	237.1	4	95.7	4	-1E+10	1	-1E+10	1	-1E+10	1	-1E+10	1	-1E+10	1	-1E+10	1
4901784	124	C	11/26/2018	10:43	-133.079	43.034	0	14.80	0	15.7120	0	33.0940	8	24.348	0	14.682	0	237.2	4	95.8	4	-1E+10	1	-1E+10	1	-1E+10	1	-1E+10	1	-1E+10	1	-1E+10	1
4901784	124	C	11/26/2018	10:43	-133.079	43.034	0	16.20	0	15.7120	0	33.0940	8	24.348	0	16.071	0	237.2	4	95.8	4	-1E+10	1	-1E+10	1	-1E+10	1	-1E+10	1	-1E+10	1	-1E+10	1
4901784	124	C	11/26/2018	10:43	-133.079	43.034	0	17.60	0	15.7120	0	33.0940	8	24.348	0	17.460	0	237.0	4	95.7	4	-1E+10	1	-1E+10	1	-1E+10	1	-1E+10	1	-1E+10	1	-1E+10	1
4901784	124	C	11/26/2018	10:43	-133.079	43.034	0	19.20	0	15.7130	0	33.0940	8	24.348	0	19.047	0	236.9	4	95.7	4	-1E+10	1	-1E+10	1	-1E+10	1	-1E+10	1	-1E+10	1	-1E+10	1
4901784	124	C	11/26/2018	10:43	-133.079	43.034	0	20.90	0	15.7120	0	33.0940	8	24.348	0	20.733	0	236.8	4	95.6	4	-1E+10	1	-1E+10	1	-1E+10	1	-1E+10	1	-1E+10	1	-1E+10	1
4901784	124	C	11/26/2018	10:43	-133.079	43.034	0	22.60	0	15.7120	0	33.0940	8	24.348	0	22.419	0	236.9	4	95.7	4	-1E+10	1	-1E+10	1	-1E+10	1	-1E+10	1	-1E+10	1	-1E+10	1
4901784	124	C	11/26/2018	10:43	-133.079	43.034	0	24.30	0	15.7130	0	33.0940	8	24.348	0	24.106	0	236.6	4	95.5	4	-1E+10	1	-1E+10	1	-1E+10	1	-1E+10	1	-1E+10	1	-1E+10	1
4901784	124	C	11/26/2018	10:43	-133.079	43.034	0	26.10	0	15.7130	0	33.0940	8	24.348	0	25.891	0	236.6	4	95.6	4	-1E+10	1	-1E+10	1	-1E+10	1	-1E+10	1	-1E+10	1	-1E+10	1
4901784	124	C	11/26/2018	10:43	-133.079	43.034	0	27.70	0	15.7130	0	33.0940	8	24.348	0	27.478	0	236.3	4	95.4	4	-1E+10	1	-1E+10	1	-1E+10	1	-1E+10	1	-1E+10	1	-1E+10	1
4901784	124	C	11/26/2018	10:43	-133.079	43.034	0	29.40	0	15.7130	0	33.0940	8	24.348	0	29.165	0	236.3	4	95.4	4	-1E+10	1	-1E+10	1	-1E+10	1	-1E+10	1	-1E+10	1	-1E+10	1
4901784	124	C	11/26/2018	10:43	-133.079	43.034	0	31.20	0	15.7130	0	33.0940	8	24.348	0	30.950	0	236.2	4	95.4	4	-1E+10	1	-1E+10	1	-1E+10	1	-1E+10	1	-1E+10	1	-1E+10	1
4901784	124	C	11/26/2018	10:43	-133.079	43.034	0	32.90	0	15.7140	0	33.0940	8	24.348	0	32.636	0	235.9	4	95.3	4	-1E+10	1	-1E+10	1	-1E+10	1	-1E+10	1	-1E+10	1	-1E+10	1
4901784	124	C	11/26/2018	10:43	-133.079	43.034	0	34.80	0	15.7140	0	33.0930	8	24.347	0	34.521	0	235.9	4	95.3	4	-1E+10	1	-1E+10	1	-1E+10	1	-1E+10	1	-1E+10	1	-1E+10	1
4901784	124	C	11/26/2018	10:43	-133.079	43.034	0	36.60	0	15.7140	0	33.0940	8	24.348	0	36.306	0	235.9	4	95.3	4	-1E+10	1	-1E+10	1	-1E+10	1	-1E+10	1	-1E+10	1	-1E+10	1
4901784	124	C	11/26/2018	10:43	-133.079	43.034	0	38.50	0	15.7160	0	33.0930	8	24.347	0	38.191	0	235.6	4	95.2	4	-1E+10	1	-1E+10	1	-1E+10	1	-1E+10	1	-1E+10	1	-1E+10	1
4901784	124	C	11/26/2018	10:43	-133.079	43.034	0	40.20	0	15.7160	0	33.0930	8	24.347	0	39.877	0	235.6	4	95.2	4	-1E+10	1	-1E+10	1	-1E+10	1	-1E+10	1	-1E+10	1	-1E+10	1
4901784	124	C	11/26/2018	10:43	-133.079	43.034	0	41.90	0	15.7140	0	33.0920	8	24.347	0	41.563	0	235.7	4	95.2	4	-1E+10	1	-1E+10	1	-1E+10	1	-1E+10	1	-1E+10	1	-1E+10	1
4901784	124	C	11/26/2018	10:43	-133.079	43.034	0	43.60	0	15.7120	0	33.0910	8	24.346	0	43.249	0	235.6	4	95.2	4	-1E+10	1	-1E+10	1	-1E+10	1	-1E+10	1	-1E+10	1	-1E+10	1
4901784	124	C	11/26/2018	10:43	-133.079	43.034	0	45.30	0	15.7150	0	33.0890	8	24.344	0	44.935	0	235.8	4	95.2	4	-1E+10	1	-1E+10	1	-1E+10	1	-1E+10	1	-1E+10	1	-1E+10	1
4901784	124	C	11/26/2018	10:43	-133.079	43.034	0	47.10	0	15.7100	0	33.0880	8	24.345	0	46.721	0	235.9	4	95.3	4	-1E+10	1	-1E+10	1	-1E+10	1	-1E+10	1	-1E+10	1	-1E+10	1
4901784	124	C	11/26/2018	10:43	-133.079	43.034	0	49.30	0	15.6630	0	33.0870	8	24.355	0	48.903	0	236.6	4	95.5	4	-1E+10	1	-1E+10	1	-1E+10	1	-1E+10	1	-1E+10	1	-1E+10	1
4901784	124	C	11/26/2018	10:43	-133.079	43.034	0	50.90	0	15.6110	0	33.0860	8	24.365	0	50.490	0	237.6	4	95.8	4	-1E+10	1	-1E+10	1	-1E+10	1	-1E+10	1	-1E+10	1	-1E+10	1
4901784	124	C	11/26/2018	10:43	-133.079	43.034	0	52.40	0	15.5930	0	33.0830	8	24.367	0	51.977	0	238.4	4	96.0	4	-1E+10	1	-1E+10	1	-1E+10	1	-1E+10	1	-1E+10	1	-1E+10	1
4901784	124	C	11/26/2018	10:43	-133.079	43.034	0	53.70	0	15.5690	0	33.0770	8	24.368	0	53.267	0	239.6	4	96.5	4	-1E+10	1	-1E+10	1	-1E+10	1	-1E+10	1	-1E+10	1	-1E+10	1
4901784	124	C	11/26/2018	10:43	-133.079	43.034	0	55.10	0	15.5350	0	33.0690	8	24.369	0	54.655	0	241.0	4	97.0	4	-1E+10	1	-1E+10	1	-1E+10	1	-1E+10	1	-1E+10	1	-1E+10	1
4901784	124	C	11/26/2018	10:43	-133.079	43.034	0	56.50	0	15.5270	0	33.0570	8	24.362	0	56.044	0	243.0	4	97.7	4	-1E+10	1	-1E+10	1	-1E+10	1	-1E+10	1	-1E+10	1	-1E+10	1
4901784	124	C	11/26/2018	10:43	-133.079	43.034	0	57.80	0	15.4710	0	33.0370	8	24.359	0	57.333	0	246.2	4	98.9	4	-1E+10	1	-1E+10	1	-1E+10	1	-1E+10	1	-1E+10	1	-1E+10	1
4901784	124	C	11/26/2018	10:43	-133.079	43.034	0	59.10	0	15.2760	0	33.0050	8	24.377	0	58.622	0	250.9	4	100.4	4	-1E+10	1	-1E+10	1	-1E+10	1	-1E+10	1	-1E+10	1	-1E+10	1
4901784	124	C	11/26/2018	10:43	-133.079	43.034	0	60.60	0	14.7890	0	32.9790	8	24.462	0	60.110	0	256.5	4	101.7	4	-1E+10	1	-1E+10	1	-1E+10	1	-1E+10	1	-1E+10	1	-1E+10	1
4901784	124	C	11/26/2018	10:43	-133.079	43.034	0	62.20	0	12.8030	0	32.9780	8	24.868	0	61.697	0	269.3	4	102.5	4	-1E+10	1	-1E+10	1	-1E+10	1	-1E+10	1	-1E+10	1	-1E+10	1
4901784	124	C	11/26/2018	10:43	-133.079	43.034	0	64.00	0	12.0250	0	32.9890	8	25.025	0	63.482	0	273.0	4	102.3	4	-1E+10	1	-1E+10	1	-1E+10	1	-1E+10	1	-1E+10	1	-1E+10	1
4901784	124	C	11/26/2018	10:43	-133.079	43.034	0	65.70	0	11.2810	0	32.9910	8	25.163	0	65.168	0	276.6	4	102.0	4	-1E+10	1	-1E+10	1	-1E+10	1	-1E+10	1	-1E+10	1	-1E+10	1
4901784	124	C	11/26/2018	10:43	-133.079	43.034	0	67.40	0	10.9540	0	32.9730	8	25.207	0	66.854	0	276.4	4	101.3	4	-1E+10	1	-1E+10	1	-1E+10	1	-1E+10	1	-1E+10	1	-1E+10	1
4901784	124	C	11/26/2018	10:43	-133.079	43.034	0	69.20	0	10.7870	0	32.9880	8	25.248	0	68.639	0	275.2	4	100.5	4	-1E+10	1	-1E+10	1	-1E+10	1	-1E+10	1	-1E+10	1	-1E+10	1
4901784	124	C	11/26/2018	10:43	-133.079	43.034	0	71.00	0	10.5610	0	32.9940	8	25.292	0	70.424	0	273.8	4	99.5	4	-1E+10	1	-1E+10	1	-1E+10	1	-1E+10	1	-1E+10	1	-1E+10	1
4901784	124	C	11/26/2018	10:43	-133.079	43.034	0	73.00	0	10.3720	0	33.0040	8	25.333	0	72.408	0	272.5	4	98.6	4	-1E+10	1	-1E+10	1	-1E+10	1	-1E+10	1	-1E+10	1	-1E+10	1
4901784	124	C	11/26/2018	10:43	-133.079	43.034	0	74.90	0	10.2820	0	33.0040	8	25.348	0	74.292	0	271.7	4	98.1	4	-1E+10	1	-1E+10	1	-1E+10	1	-1E+10	1	-1E+10	1	-1E+10	1
4901784	124	C	11/26/2018	10:43	-133.079	43.034	0	76.70	0	10.2310	0	33.0000	8	25.354	0	76.077	0	270.5	4	97.6	4	-1E+10	1	-1E+10	1	-1E+10	1	-1E+10	1	-1E+10	1	-1E+10	1
4901784	124	C	11/26/2018	10:43	-133.079	43.034	0	78.50	0	10.2160	0	32.9960	8	25.353	0	77.862	0	269.0	4	97.0	4	-1E+10	1	-1E+10	1	-1E+10	1	-1E+10	1	-1E+10	1	-1E+10	1
4901784	124	C	11/26/2018	10:43	-133.079	43.034	0	80.30	0	10.1080	0	32.9960	8	25.371	0	79.647	0	267.1	4	96.1	4	-1E+10	1	-1E+10	1	-1E+10	1	-1E+10	1	-1E+10	1	-1E+10	1
4901784	124	C	11/26/2018	10:43	-133.079	43.034	0	82.10	0	9.9710	0	32.9960	8	25.394	0	81.432	0	266.1	4	95.5	4	-1E+10	1	-1E+10	1	-1E+10	1	-1E+10	1	-1E+10	1	-1E+10	1
4901784	124	C	11/26/2018	10:43	-133.079	43.034	0	83.80	0	9.8920	0	32.9970	8	25.408	0	83.118	0	265.2	4	95.0	4	-1E+10	1	-1E+10	1	-1E+10	1	-1E+10	1	-1E+10	1	-1E+10	1
4901784	124	C	11/26/2018	10:43	-133.079	43.034	0	85.50	0	9.8510	0	32.9980	8	25.416	0	84.804	0	264.1	4	94.5	4	-1E+10	1	-1E+10	1	-1E+10	1	-1E+10	1	-1E+10	1	-1E+10	1
4901784	124	C	11/26/2018	10:43	-133.079	43.034	0	87.20	0	9.8360	0	32.9990	8	25.419	0	86.490	0	262.9	4	94.0	4	-1E+10	1	-1E+10	1	-1E+10	1	-1E+10	1	-1E+10	1	-1E+10	1
4901784	124	C	11/26/2018	10:43	-133.079	43.034	0	89.10	0	9.8140	0	33.0030	8	25.426	0	88.374	0	261.4	4	93.5	4	-1E+10	1	-1E+10	1	-1E+10	1	-1E+10	1	-1E+10	1	-1E+10	1
4901784	124	C	11/26/2018	10:43	-133.079	43.034	0	90.80	0	9.7410	0	33.0040	8	25.439	0	90.059	0	260.5	4	93.0	4	-1E+10	1	-1E+10	1	-1E+10	1	-1E+10	1	-1E+10	1	-1E+10	1
4901784	124	C	11/26/2018	10:43	-133.079	43.034	0	92.70	0	9.7200	0	33.0030	8	25.441	0	91.944	0	259.2	4	92.5	4	-1E+10	1	-1E+10	1	-1E+10	1	-1E+10	1	-1E+10	1	-1E+10	1
4901784	124	C	11/26/2018	10:43	-133.079	43.034	0	94.40	0	9.6490	0	32.9990	8	25.450	0	93.629	0	258.2	4	92.0	4	-1E+10	1	-1E+10	1	-1E+10	1	-1E+10	1	-1E+10	1	-1E+10	1
4901784	124	C	11/26/2018	10:43	-133.079	43.034	0	96.30	0	9.6140	0	32.9970	8	25.454	0	95.513	0	257.3	4	91.6	4	-1E+10	1	-1E+10	1	-1E+10	1	-1E+10	1	-1E+10	1	-1E+10	1
4901784	124	C	11/26/2018	10:43	-133.079	43.034	0	98.00	0	9.6140	0	33.0050	8	25.460	0	97.199	0	255.8	4	91.0	4	-1E+10	1	-1E+10	1	-1E+10	1	-1E+10	1	-1E+10	1	-1E+10	1
4901784	124	C	11/26/2018	10:43	-133.079	43.034	0	100.00	0	9.5780	0	33.0100	8	25.470	0	99.182	0	254.1	4	90.4	4	-1E+10	1	-1E+10	1	-1E+10	1	-1E+10	1	-1E+10	1	-1E+10	1
4901784	124	C	11/26/2018	10:43	-133.079	43.034	0	102.80	0	9.4570	0	33.0020	8	25.483	0	101.959	0	251.9	4	89.4	4	-1E+10	1	-1E+10	1	-1E+10	1	-1E+10	1	-1E+10	1	-1E+10	1
4901784	124	C	11/26/2018	10:43	-133.079	43.034	0	105.00	0	9.2840	0	32.9940	8	25.505	0	104.140	0	250.8	4	88.7	4	-1E+10	1	-1E+10	1	-1E+10	1	-1E+10	1	-1E+10	1	-1E+10	1
4901784	124	C	11/26/2018	10:43	-133.079	43.034	0	107.30	0	9.2210	0	32.9970	8	25.517	0	106.421	0	249.2	4	88.0	4	-1E+10	1	-1E+10	1	-1E+10	1	-1E+10	1	-1E+10	1	-1E+10	1
4901784	124	C	11/26/2018	10:43	-133.079	43.034	0	110.30	0	9.1270	0	33.0110	8	25.543	0	109.395	0	247.3	4	87.1	4	-1E+10	1	-1E+10	1	-1E+10	1	-1E+10	1	-1E+10	1	-1E+10	1
4901784	124	C	11/26/2018	10:43	-133.079	43.034	0	112.70	0	9.0590	0	33.0520	8	25.586	0	111.775	0	246.0	4	86.5	4	-1E+10	1	-1E+10	1	-1E+10	1	-1E+10	1	-1E+10	1	-1E+10	1
4901784	124	C	11/26/2018	10:43	-133.079	43.034	0	115.10	0	8.9790	0	33.0620	8	25.606	0	114.155	0	245.1	4	86.1	4	-1E+10	1	-1E+10	1	-1E+10	1	-1E+10	1	-1E+10	1	-1E+10	1
4901784	124	C	11/26/2018	10:43	-133.079	43.034	0	117.50	0	8.8970	0	33.0680	8	25.624	0	116.534	0	243.7	4	85.5	4	-1E+10	1	-1E+10	1	-1E+10	1	-1E+10	1	-1E+10	1	-1E+10	1
4901784	124	C	11/26/2018	10:43	-133.079	43.034	0	119.90	0	8.7560	0	33.0890	8	25.662	0	118.914	0	242.7	4	84.8	4	-1E+10	1	-1E+10	1	-1E+10	1	-1E+10	1	-1E+10	1	-1E+10	1
4901784	124	C	11/26/2018	10:43	-133.079	43.034	0	122.30	0	8.6350	0	33.1250	8	25.709	0	121.293	0	241.3	4	84.1	4	-1E+10	1	-1E+10	1	-1E+10	1	-1E+10	1	-1E+10	1	-1E+10	1
4901784	124	C	11/26/2018	10:43	-133.079	43.034	0	124.90	0	8.5370	0	33.1650	8	25.755	0	123.871	0	240.0	4	83.5	4	-1E+10	1	-1E+10	1	-1E+10	1	-1E+10	1	-1E+10	1	-1E+10	1
4901784	124	C	11/26/2018	10:43	-133.079	43.034	0	127.40	0	8.4730	0	33.2010	8	25.793	0	126.350	0	238.4	4	82.9	4	-1E+10	1	-1E+10	1	-1E+10	1	-1E+10	1	-1E+10	1	-1E+10	1
4901784	124	C	11/26/2018	10:43	-133.079	43.034	0	129.90	0	8.4300	0	33.2460	8	25.835	0	128.828	0	236.5	4	82.2	4	-1E+10	1	-1E+10	1	-1E+10	1	-1E+10	1	-1E+10	1	-1E+10	1
4901784	124	C	11/26/2018	10:43	-133.079	43.034	0	132.50	0	8.3790	0	33.2790	8	25.868	0	131.406	0	234.6	4	81.4	4	-1E+10	1	-1E+10	1	-1E+10	1	-1E+10	1	-1E+10	1	-1E+10	1
4901784	124	C	11/26/2018	10:43	-133.079	43.034	0	135.20	0	8.2930	0	33.3430	8	25.932	0	134.083	0	232.3	4	80.5	4	-1E+10	1	-1E+10	1	-1E+10	1	-1E+10	1	-1E+10	1	-1E+10	1
4901784	124	C	11/26/2018	10:43	-133.079	43.034	0	137.90	0	8.1950	0	33.4110	8	26.000	0	136.760	0	230.6	4	79.8	4	-1E+10	1	-1E+10	1	-1E+10	1	-1E+10	1	-1E+10	1	-1E+10	1
4901784	124	C	11/26/2018	10:43	-133.079	43.034	0	140.20	0	8.1490	0	33.4350	8	26.025	0	139.040	0	229.5	4	79.3	4	-1E+10	1	-1E+10	1	-1E+10	1	-1E+10	1	-1E+10	1	-1E+10	1
4901784	124	C	11/26/2018	10:43	-133.079	43.034	0	142.70	0	8.1280	0	33.4540	8	26.043	0	141.518	0	226.9	4	78.4	4	-1E+10	1	-1E+10	1	-1E+10	1	-1E+10	1	-1E+10	1	-1E+10	1
4901784	124	C	11/26/2018	10:43	-133.079	43.034	0	145.00	0	8.0940	0	33.4930	8	26.079	0	143.799	0	224.3	4	77.5	4	-1E+10	1	-1E+10	1	-1E+10	1	-1E+10	1	-1E+10	1	-1E+10	1
4901784	124	C	11/26/2018	10:43	-133.079	43.034	0	147.30	0	8.0870	0	33.5180	8	26.100	0	146.079	0	221.1	4	76.4	4	-1E+10	1	-1E+10	1	-1E+10	1	-1E+10	1	-1E+10	1	-1E+10	1
4901784	124	C	11/26/2018	10:43	-133.079	43.034	0	150.40	0	8.1120	0	33.5610	8	26.130	0	149.152	0	215.8	4	74.6	4	-1E+10	1	-1E+10	1	-1E+10	1	-1E+10	1	-1E+10	1	-1E+10	1
4901784	124	C	11/26/2018	10:43	-133.079	43.034	0	152.80	0	8.1340	0	33.6360	8	26.185	0	151.531	0	211.3	4	73.1	4	-1E+10	1	-1E+10	1	-1E+10	1	-1E+10	1	-1E+10	1	-1E+10	1
4901784	124	C	11/26/2018	10:43	-133.079	43.034	0	155.30	0	8.1430	0	33.6600	8	26.203	0	154.009	0	206.4	4	71.5	4	-1E+10	1	-1E+10	1	-1E+10	1	-1E+10	1	-1E+10	1	-1E+10	1
4901784	124	C	11/26/2018	10:43	-133.079	43.034	0	157.70	0	8.1800	0	33.7370	8	26.258	0	156.389	0	200.3	4	69.5	4	-1E+10	1	-1E+10	1	-1E+10	1	-1E+10	1	-1E+10	1	-1E+10	1
4901784	124	C	11/26/2018	10:43	-133.079	43.034	0	159.50	0	8.2340	0	33.8200	8	26.315	0	158.173	0	196.3	4	68.2	4	-1E+10	1	-1E+10	1	-1E+10	1	-1E+10	1	-1E+10	1	-1E+10	1
4901784	124	C	11/26/2018	10:43	-133.079	43.034	0	162.10	0	8.2680	0	33.8800	8	26.357	0	160.750	0	193.4	4	67.2	4	-1E+10	1	-1E+10	1	-1E+10	1	-1E+10	1	-1E+10	1	-1E+10	1
4901784	124	C	11/26/2018	10:43	-133.079	43.034	0	164.80	0	8.2800	0	33.9000	8	26.371	0	163.427	0	191.2	4	66.5	4	-1E+10	1	-1E+10	1	-1E+10	1	-1E+10	1	-1E+10	1	-1E+10	1
4901784	124	C	11/26/2018	10:43	-133.079	43.034	0	167.50	0	8.2960	0	33.9270	8	26.390	0	166.103	0	188.7	4	65.7	4	-1E+10	1	-1E+10	1	-1E+10	1	-1E+10	1	-1E+10	1	-1E+10	1
4901784	124	C	11/26/2018	10:43	-133.079	43.034	0	170.20	0	8.3060	0	33.9470	8	26.404	0	168.779	0	186.5	4	64.9	4	-1E+10	1	-1E+10	1	-1E+10	1	-1E+10	1	-1E+10	1	-1E+10	1
4901784	124	C	11/26/2018	10:43	-133.079	43.034	0	172.00	0	8.3180	0	33.9710	8	26.421	0	170.564	0	184.5	4	64.3	4	-1E+10	1	-1E+10	1	-1E+10	1	-1E+10	1	-1E+10	1	-1E+10	1
4901784	124	C	11/26/2018	10:43	-133.079	43.034	0	174.80	0	8.3290	0	33.9980	8	26.441	0	173.339	0	181.7	4	63.3	4	-1E+10	1	-1E+10	1	-1E+10	1	-1E+10	1	-1E+10	1	-1E+10	1
4901784	124	C	11/26/2018	10:43	-133.079	43.034	0	177.50	0	8.3480	0	34.0420	8	26.472	0	176.015	0	179.4	4	62.6	4	-1E+10	1	-1E+10	1	-1E+10	1	-1E+10	1	-1E+10	1	-1E+10	1
4901784	124	C	11/26/2018	10:43	-133.079	43.034	0	179.40	0	8.3560	0	34.0760	8	26.498	0	177.899	0	178.3	4	62.2	4	-1E+10	1	-1E+10	1	-1E+10	1	-1E+10	1	-1E+10	1	-1E+10	1
4901784	124	C	11/26/2018	10:43	-133.079	43.034	0	182.30	0	8.3570	0	34.0970	8	26.514	0	180.773	0	177.4	4	61.9	4	-1E+10	1	-1E+10	1	-1E+10	1	-1E+10	1	-1E+10	1	-1E+10	1
4901784	124	C	11/26/2018	10:43	-133.079	43.034	0	185.00	0	8.3520	0	34.1180	8	26.531	0	183.449	0	176.7	4	61.7	4	-1E+10	1	-1E+10	1	-1E+10	1	-1E+10	1	-1E+10	1	-1E+10	1
4901784	124	C	11/26/2018	10:43	-133.079	43.034	0	186.90	0	8.3520	0	34.1250	8	26.537	0	185.333	0	175.9	4	61.4	4	-1E+10	1	-1E+10	1	-1E+10	1	-1E+10	1	-1E+10	1	-1E+10	1
4901784	124	C	11/26/2018	10:43	-133.079	43.034	0	189.80	0	8.3500	0	34.1510	8	26.558	0	188.207	0	174.9	4	61.0	4	-1E+10	1	-1E+10	1	-1E+10	1	-1E+10	1	-1E+10	1	-1E+10	1
4901784	124	C	11/26/2018	10:43	-133.079	43.034	0	192.60	0	8.3480	0	34.1680	8	26.571	0	190.982	0	173.9	4	60.7	4	-1E+10	1	-1E+10	1	-1E+10	1	-1E+10	1	-1E+10	1	-1E+10	1
4901784	124	C	11/26/2018	10:43	-133.079	43.034	0	194.50	0	8.3460	0	34.1750	8	26.577	0	192.865	0	172.9	4	60.4	4	-1E+10	1	-1E+10	1	-1E+10	1	-1E+10	1	-1E+10	1	-1E+10	1
4901784	124	C	11/26/2018	10:43	-133.079	43.034	0	197.30	0	8.3300	0	34.2070	8	26.605	0	195.640	0	171.4	4	59.8	4	-1E+10	1	-1E+10	1	-1E+10	1	-1E+10	1	-1E+10	1	-1E+10	1
4901784	124	C	11/26/2018	10:43	-133.079	43.034	0	200.10	0	8.3170	0	34.2230	8	26.619	0	198.416	0	171.1	4	59.7	4	-1E+10	1	-1E+10	1	-1E+10	1	-1E+10	1	-1E+10	1	-1E+10	1
4901784	124	C	11/26/2018	10:43	-133.079	43.034	0	202.00	0	8.3140	0	34.2270	8	26.623	0	200.299	0	171.3	4	59.8	4	-1E+10	1	-1E+10	1	-1E+10	1	-1E+10	1	-1E+10	1	-1E+10	1
4901784	124	C	11/26/2018	10:43	-133.079	43.034	0	204.90	0	8.3100	0	34.2320	8	26.628	0	203.173	0	171.9	4	60.0	4	-1E+10	1	-1E+10	1	-1E+10	1	-1E+10	1	-1E+10	1	-1E+10	1
4901784	124	C	11/26/2018	10:43	-133.079	43.034	0	207.60	0	8.3070	0	34.2420	8	26.636	0	205.849	0	172.8	4	60.3	4	-1E+10	1	-1E+10	1	-1E+10	1	-1E+10	1	-1E+10	1	-1E+10	1
4901784	124	C	11/26/2018	10:43	-133.079	43.034	0	210.30	0	8.3020	0	34.2560	8	26.648	0	208.525	0	172.6	4	60.2	4	-1E+10	1	-1E+10	1	-1E+10	1	-1E+10	1	-1E+10	1	-1E+10	1
4901784	124	C	11/26/2018	10:43	-133.079	43.034	0	213.10	0	8.2800	0	34.2710	8	26.663	0	211.299	0	172.4	4	60.1	4	-1E+10	1	-1E+10	1	-1E+10	1	-1E+10	1	-1E+10	1	-1E+10	1
4901784	124	C	11/26/2018	10:43	-133.079	43.034	0	215.00	0	8.2690	0	34.2780	8	26.670	0	213.182	0	172.1	4	60.0	4	-1E+10	1	-1E+10	1	-1E+10	1	-1E+10	1	-1E+10	1	-1E+10	1
4901784	124	C	11/26/2018	10:43	-133.079	43.034	0	216.90	0	8.2650	0	34.2830	8	26.675	0	215.065	0	171.7	4	59.9	4	-1E+10	1	-1E+10	1	-1E+10	1	-1E+10	1	-1E+10	1	-1E+10	1
4901784	124	C	11/26/2018	10:43	-133.079	43.034	0	219.80	0	8.2400	0	34.2890	8	26.683	0	217.939	0	170.6	4	59.5	4	-1E+10	1	-1E+10	1	-1E+10	1	-1E+10	1	-1E+10	1	-1E+10	1
4901784	124	C	11/26/2018	10:43	-133.079	43.034	0	222.60	0	8.1960	0	34.2930	8	26.693	0	220.714	0	169.8	4	59.1	4	-1E+10	1	-1E+10	1	-1E+10	1	-1E+10	1	-1E+10	1	-1E+10	1
4901784	124	C	11/26/2018	10:43	-133.079	43.034	0	224.40	0	8.1860	0	34.2940	8	26.695	0	222.498	0	169.2	4	58.9	4	-1E+10	1	-1E+10	1	-1E+10	1	-1E+10	1	-1E+10	1	-1E+10	1
4901784	124	C	11/26/2018	10:43	-133.079	43.034	0	227.30	0	8.1580	0	34.2960	8	26.701	0	225.372	0	168.3	4	58.6	4	-1E+10	1	-1E+10	1	-1E+10	1	-1E+10	1	-1E+10	1	-1E+10	1
4901784	124	C	11/26/2018	10:43	-133.079	43.034	0	230.10	0	8.0960	0	34.2980	8	26.712	0	228.146	0	167.3	4	58.1	4	-1E+10	1	-1E+10	1	-1E+10	1	-1E+10	1	-1E+10	1	-1E+10	1
4901784	124	C	11/26/2018	10:43	-133.079	43.034	0	232.00	0	8.0690	0	34.3100	8	26.725	0	230.029	0	167.0	4	58.0	4	-1E+10	1	-1E+10	1	-1E+10	1	-1E+10	1	-1E+10	1	-1E+10	1
4901784	124	C	11/26/2018	10:43	-133.079	43.034	0	234.80	0	8.0330	0	34.3090	8	26.730	0	232.804	0	166.1	4	57.7	4	-1E+10	1	-1E+10	1	-1E+10	1	-1E+10	1	-1E+10	1	-1E+10	1
4901784	124	C	11/26/2018	10:43	-133.079	43.034	0	237.60	0	8.0180	0	34.3090	8	26.732	0	235.579	0	165.6	4	57.4	4	-1E+10	1	-1E+10	1	-1E+10	1	-1E+10	1	-1E+10	1	-1E+10	1
4901784	124	C	11/26/2018	10:43	-133.079	43.034	0	239.50	0	8.0120	0	34.3080	8	26.732	0	237.461	0	164.9	4	57.2	4	-1E+10	1	-1E+10	1	-1E+10	1	-1E+10	1	-1E+10	1	-1E+10	1
4901784	124	C	11/26/2018	10:43	-133.079	43.034	0	242.40	0	7.9540	0	34.3090	8	26.742	0	240.335	0	163.8	4	56.8	4	-1E+10	1	-1E+10	1	-1E+10	1	-1E+10	1	-1E+10	1	-1E+10	1
4901784	124	C	11/26/2018	10:43	-133.079	43.034	0	245.20	0	7.9100	0	34.3090	8	26.748	0	243.109	0	163.0	4	56.4	4	-1E+10	1	-1E+10	1	-1E+10	1	-1E+10	1	-1E+10	1	-1E+10	1
4901784	124	C	11/26/2018	10:43	-133.079	43.034	0	247.10	0	7.8870	0	34.3080	8	26.751	0	244.992	0	162.2	4	56.1	4	-1E+10	1	-1E+10	1	-1E+10	1	-1E+10	1	-1E+10	1	-1E+10	1
4901784	124	C	11/26/2018	10:43	-133.079	43.034	0	249.60	0	7.8810	0	34.3070	8	26.751	0	247.469	0	161.3	4	55.8	4	-1E+10	1	-1E+10	1	-1E+10	1	-1E+10	1	-1E+10	1	-1E+10	1
4901784	124	C	11/26/2018	10:43	-133.079	43.034	0	252.40	0	7.8200	0	34.3050	8	26.759	0	250.244	0	159.7	4	55.2	4	-1E+10	1	-1E+10	1	-1E+10	1	-1E+10	1	-1E+10	1	-1E+10	1
4901784	124	C	11/26/2018	10:43	-133.079	43.034	0	254.90	0	7.7570	0	34.3040	8	26.767	0	252.721	0	158.5	4	54.7	4	-1E+10	1	-1E+10	1	-1E+10	1	-1E+10	1	-1E+10	1	-1E+10	1
4901784	124	C	11/26/2018	10:43	-133.079	43.034	0	257.30	0	7.6800	0	34.3050	8	26.779	0	255.099	0	157.2	4	54.1	4	-1E+10	1	-1E+10	1	-1E+10	1	-1E+10	1	-1E+10	1	-1E+10	1
4901784	124	C	11/26/2018	10:43	-133.079	43.034	0	259.80	0	7.6140	0	34.3050	8	26.789	0	257.576	0	156.6	4	53.8	4	-1E+10	1	-1E+10	1	-1E+10	1	-1E+10	1	-1E+10	1	-1E+10	1
4901784	124	C	11/26/2018	10:43	-133.079	43.034	0	262.30	0	7.6050	0	34.3050	8	26.790	0	260.053	0	156.0	4	53.6	4	-1E+10	1	-1E+10	1	-1E+10	1	-1E+10	1	-1E+10	1	-1E+10	1
4901784	124	C	11/26/2018	10:43	-133.079	43.034	0	264.70	0	7.5960	0	34.3040	8	26.790	0	262.431	0	155.2	4	53.3	4	-1E+10	1	-1E+10	1	-1E+10	1	-1E+10	1	-1E+10	1	-1E+10	1
4901784	124	C	11/26/2018	10:43	-133.079	43.034	0	267.20	0	7.5790	0	34.3040	8	26.793	0	264.908	0	154.2	4	53.0	4	-1E+10	1	-1E+10	1	-1E+10	1	-1E+10	1	-1E+10	1	-1E+10	1
4901784	124	C	11/26/2018	10:43	-133.079	43.034	0	269.70	0	7.5660	0	34.3020	8	26.793	0	267.385	0	153.3	4	52.6	4	-1E+10	1	-1E+10	1	-1E+10	1	-1E+10	1	-1E+10	1	-1E+10	1
4901784	124	C	11/26/2018	10:43	-133.079	43.034	0	272.20	0	7.5500	0	34.3000	8	26.794	0	269.862	0	151.7	4	52.1	4	-1E+10	1	-1E+10	1	-1E+10	1	-1E+10	1	-1E+10	1	-1E+10	1
4901784	124	C	11/26/2018	10:43	-133.079	43.034	0	274.70	0	7.4670	0	34.3000	8	26.806	0	272.338	0	149.8	4	51.3	4	-1E+10	1	-1E+10	1	-1E+10	1	-1E+10	1	-1E+10	1	-1E+10	1
4901784	124	C	11/26/2018	10:43	-133.079	43.034	0	277.30	0	7.4210	0	34.3000	8	26.812	0	274.914	0	148.4	4	50.8	4	-1E+10	1	-1E+10	1	-1E+10	1	-1E+10	1	-1E+10	1	-1E+10	1
4901784	124	C	11/26/2018	10:43	-133.079	43.034	0	279.80	0	7.3590	0	34.2980	8	26.820	0	277.391	0	146.8	4	50.2	4	-1E+10	1	-1E+10	1	-1E+10	1	-1E+10	1	-1E+10	1	-1E+10	1
4901784	124	C	11/26/2018	10:43	-133.079	43.034	0	282.50	0	7.3150	0	34.2970	8	26.825	0	280.066	0	145.6	4	49.7	4	-1E+10	1	-1E+10	1	-1E+10	1	-1E+10	1	-1E+10	1	-1E+10	1
4901784	124	C	11/26/2018	10:43	-133.079	43.034	0	285.00	0	7.2810	0	34.2970	8	26.830	0	282.543	0	144.2	4	49.2	4	-1E+10	1	-1E+10	1	-1E+10	1	-1E+10	1	-1E+10	1	-1E+10	1
4901784	124	C	11/26/2018	10:43	-133.079	43.034	0	287.70	0	7.2130	0	34.2940	8	26.837	0	285.218	0	142.9	4	48.7	4	-1E+10	1	-1E+10	1	-1E+10	1	-1E+10	1	-1E+10	1	-1E+10	1
4901784	124	C	11/26/2018	10:43	-133.079	43.034	0	290.40	0	7.1640	0	34.2920	8	26.842	0	287.893	0	141.7	4	48.2	4	-1E+10	1	-1E+10	1	-1E+10	1	-1E+10	1	-1E+10	1	-1E+10	1
4901784	124	C	11/26/2018	10:43	-133.079	43.034	0	292.10	0	7.1280	0	34.2930	8	26.848	0	289.577	0	140.9	4	47.9	4	-1E+10	1	-1E+10	1	-1E+10	1	-1E+10	1	-1E+10	1	-1E+10	1
4901784	124	C	11/26/2018	10:43	-133.079	43.034	0	294.80	0	7.0990	0	34.2920	8	26.851	0	292.251	0	139.8	4	47.5	4	-1E+10	1	-1E+10	1	-1E+10	1	-1E+10	1	-1E+10	1	-1E+10	1
4901784	124	C	11/26/2018	10:43	-133.079	43.034	0	297.50	0	7.0520	0	34.2910	8	26.857	0	294.926	0	138.7	4	47.1	4	-1E+10	1	-1E+10	1	-1E+10	1	-1E+10	1	-1E+10	1	-1E+10	1
4901784	124	C	11/26/2018	10:43	-133.079	43.034	0	300.20	0	7.0180	0	34.2890	8	26.860	0	297.601	0	137.6	4	46.7	4	-1E+10	1	-1E+10	1	-1E+10	1	-1E+10	1	-1E+10	1	-1E+10	1
4901784	124	C	11/26/2018	10:43	-133.079	43.034	0	302.90	0	6.9840	0	34.2880	8	26.864	0	300.276	0	136.4	4	46.2	4	-1E+10	1	-1E+10	1	-1E+10	1	-1E+10	1	-1E+10	1	-1E+10	1
4901784	124	C	11/26/2018	10:43	-133.079	43.034	0	304.70	0	6.9660	0	34.2920	8	26.870	0	302.059	0	135.3	4	45.8	4	-1E+10	1	-1E+10	1	-1E+10	1	-1E+10	1	-1E+10	1	-1E+10	1
4901784	124	C	11/26/2018	10:43	-133.079	43.034	0	307.50	0	6.8770	0	34.2860	8	26.877	0	304.832	0	133.9	4	45.3	4	-1E+10	1	-1E+10	1	-1E+10	1	-1E+10	1	-1E+10	1	-1E+10	1
4901784	124	C	11/26/2018	10:43	-133.079	43.034	0	310.20	0	6.8410	0	34.2840	8	26.881	0	307.507	0	132.9	4	44.9	4	-1E+10	1	-1E+10	1	-1E+10	1	-1E+10	1	-1E+10	1	-1E+10	1
4901784	124	C	11/26/2018	10:43	-133.079	43.034	0	312.00	0	6.8020	0	34.2840	8	26.886	0	309.290	0	132.0	4	44.6	4	-1E+10	1	-1E+10	1	-1E+10	1	-1E+10	1	-1E+10	1	-1E+10	1
4901784	124	C	11/26/2018	10:43	-133.079	43.034	0	314.80	0	6.7630	0	34.2830	8	26.890	0	312.064	0	130.9	4	44.1	4	-1E+10	1	-1E+10	1	-1E+10	1	-1E+10	1	-1E+10	1	-1E+10	1
4901784	124	C	11/26/2018	10:43	-133.079	43.034	0	317.50	0	6.7290	0	34.2830	8	26.895	0	314.738	0	129.9	4	43.8	4	-1E+10	1	-1E+10	1	-1E+10	1	-1E+10	1	-1E+10	1	-1E+10	1
4901784	124	C	11/26/2018	10:43	-133.079	43.034	0	320.20	0	6.6990	0	34.2820	8	26.898	0	317.412	0	128.7	4	43.3	4	-1E+10	1	-1E+10	1	-1E+10	1	-1E+10	1	-1E+10	1	-1E+10	1
4901784	124	C	11/26/2018	10:43	-133.079	43.034	0	322.90	0	6.6450	0	34.2800	8	26.904	0	320.087	0	127.5	4	42.9	4	-1E+10	1	-1E+10	1	-1E+10	1	-1E+10	1	-1E+10	1	-1E+10	1
4901784	124	C	11/26/2018	10:43	-133.079	43.034	0	324.70	0	6.6090	0	34.2800	8	26.909	0	321.870	0	126.8	4	42.6	4	-1E+10	1	-1E+10	1	-1E+10	1	-1E+10	1	-1E+10	1	-1E+10	1
4901784	124	C	11/26/2018	10:43	-133.079	43.034	0	327.50	0	6.5970	0	34.2780	8	26.909	0	324.643	0	125.6	4	42.2	4	-1E+10	1	-1E+10	1	-1E+10	1	-1E+10	1	-1E+10	1	-1E+10	1
4901784	124	C	11/26/2018	10:43	-133.079	43.034	0	330.30	0	6.5350	0	34.2770	8	26.916	0	327.417	0	124.0	4	41.6	4	-1E+10	1	-1E+10	1	-1E+10	1	-1E+10	1	-1E+10	1	-1E+10	1
4901784	124	C	11/26/2018	10:43	-133.079	43.034	0	332.10	0	6.4970	0	34.2770	8	26.921	0	329.199	0	123.1	4	41.3	4	-1E+10	1	-1E+10	1	-1E+10	1	-1E+10	1	-1E+10	1	-1E+10	1
4901784	124	C	11/26/2018	10:43	-133.079	43.034	0	334.80	0	6.4370	0	34.2750	8	26.928	0	331.874	0	121.7	4	40.7	4	-1E+10	1	-1E+10	1	-1E+10	1	-1E+10	1	-1E+10	1	-1E+10	1
4901784	124	C	11/26/2018	10:43	-133.079	43.034	0	337.60	0	6.3740	0	34.2760	8	26.937	0	334.647	0	120.5	4	40.3	4	-1E+10	1	-1E+10	1	-1E+10	1	-1E+10	1	-1E+10	1	-1E+10	1
4901784	124	C	11/26/2018	10:43	-133.079	43.034	0	339.50	0	6.3530	0	34.2750	8	26.939	0	336.529	0	119.8	4	40.0	4	-1E+10	1	-1E+10	1	-1E+10	1	-1E+10	1	-1E+10	1	-1E+10	1
4901784	124	C	11/26/2018	10:43	-133.079	43.034	0	342.30	0	6.3230	0	34.2740	8	26.942	0	339.302	0	118.5	4	39.5	4	-1E+10	1	-1E+10	1	-1E+10	1	-1E+10	1	-1E+10	1	-1E+10	1
4901784	124	C	11/26/2018	10:43	-133.079	43.034	0	345.10	0	6.2800	0	34.2730	8	26.946	0	342.075	0	116.8	4	39.0	4	-1E+10	1	-1E+10	1	-1E+10	1	-1E+10	1	-1E+10	1	-1E+10	1
4901784	124	C	11/26/2018	10:43	-133.079	43.034	0	347.00	0	6.2470	0	34.2740	8	26.952	0	343.957	0	115.5	4	38.5	4	-1E+10	1	-1E+10	1	-1E+10	1	-1E+10	1	-1E+10	1	-1E+10	1
4901784	124	C	11/26/2018	10:43	-133.079	43.034	0	349.80	0	6.1700	0	34.2710	8	26.959	0	346.730	0	113.7	4	37.8	4	-1E+10	1	-1E+10	1	-1E+10	1	-1E+10	1	-1E+10	1	-1E+10	1
4901784	124	C	11/26/2018	10:43	-133.079	43.034	0	352.60	0	6.1040	0	34.2710	8	26.967	0	349.503	0	112.1	4	37.2	4	-1E+10	1	-1E+10	1	-1E+10	1	-1E+10	1	-1E+10	1	-1E+10	1
4901784	124	C	11/26/2018	10:43	-133.079	43.034	0	354.50	0	6.0710	0	34.2710	8	26.972	0	351.385	0	111.1	4	36.9	4	-1E+10	1	-1E+10	1	-1E+10	1	-1E+10	1	-1E+10	1	-1E+10	1
4901784	124	C	11/26/2018	10:43	-133.079	43.034	0	357.30	0	6.0270	0	34.2740	8	26.980	0	354.158	0	110.0	4	36.4	4	-1E+10	1	-1E+10	1	-1E+10	1	-1E+10	1	-1E+10	1	-1E+10	1
4901784	124	C	11/26/2018	10:43	-133.079	43.034	0	360.20	0	6.0050	0	34.2760	8	26.984	0	357.030	0	108.8	4	36.1	4	-1E+10	1	-1E+10	1	-1E+10	1	-1E+10	1	-1E+10	1	-1E+10	1
4901784	124	C	11/26/2018	10:43	-133.079	43.034	0	362.10	0	5.9900	0	34.2770	8	26.987	0	358.911	0	108.2	4	35.8	4	-1E+10	1	-1E+10	1	-1E+10	1	-1E+10	1	-1E+10	1	-1E+10	1
4901784	124	C	11/26/2018	10:43	-133.079	43.034	0	364.90	0	5.9590	0	34.2770	8	26.991	0	361.684	0	107.0	4	35.4	4	-1E+10	1	-1E+10	1	-1E+10	1	-1E+10	1	-1E+10	1	-1E+10	1
4901784	124	C	11/26/2018	10:43	-133.079	43.034	0	367.80	0	5.9150	0	34.2790	8	26.998	0	364.556	0	106.0	4	35.0	4	-1E+10	1	-1E+10	1	-1E+10	1	-1E+10	1	-1E+10	1	-1E+10	1
4901784	124	C	11/26/2018	10:43	-133.079	43.034	0	369.70	0	5.9070	0	34.2780	8	26.998	0	366.438	0	105.4	4	34.8	4	-1E+10	1	-1E+10	1	-1E+10	1	-1E+10	1	-1E+10	1	-1E+10	1
4901784	124	C	11/26/2018	10:43	-133.079	43.034	0	372.60	0	5.8790	0	34.2780	8	27.001	0	369.310	0	104.2	4	34.4	4	-1E+10	1	-1E+10	1	-1E+10	1	-1E+10	1	-1E+10	1	-1E+10	1
4901784	124	C	11/26/2018	10:43	-133.079	43.034	0	375.50	0	5.8290	0	34.2780	8	27.008	0	372.181	0	102.9	4	33.9	4	-1E+10	1	-1E+10	1	-1E+10	1	-1E+10	1	-1E+10	1	-1E+10	1
4901784	124	C	11/26/2018	10:43	-133.079	43.034	0	377.40	0	5.7890	0	34.2770	8	27.012	0	374.063	0	102.1	4	33.7	4	-1E+10	1	-1E+10	1	-1E+10	1	-1E+10	1	-1E+10	1	-1E+10	1
4901784	124	C	11/26/2018	10:43	-133.079	43.034	0	379.90	0	5.7410	0	34.2810	8	27.021	0	376.539	0	101.2	4	33.3	4	-1E+10	1	-1E+10	1	-1E+10	1	-1E+10	1	-1E+10	1	-1E+10	1
4901784	124	C	11/26/2018	10:43	-133.079	43.034	0	382.60	0	5.6890	0	34.2810	8	27.027	0	379.212	0	100.2	4	32.9	4	-1E+10	1	-1E+10	1	-1E+10	1	-1E+10	1	-1E+10	1	-1E+10	1
4901784	124	C	11/26/2018	10:43	-133.079	43.034	0	385.10	0	5.6650	0	34.2820	8	27.031	0	381.688	0	99.4	4	32.7	4	-1E+10	1	-1E+10	1	-1E+10	1	-1E+10	1	-1E+10	1	-1E+10	1
4901784	124	C	11/26/2018	10:43	-133.079	43.034	0	387.50	0	5.6460	0	34.2800	8	27.032	0	384.064	0	98.5	4	32.4	4	-1E+10	1	-1E+10	1	-1E+10	1	-1E+10	1	-1E+10	1	-1E+10	1
4901784	124	C	11/26/2018	10:43	-133.079	43.034	0	389.90	0	5.6260	0	34.2800	8	27.034	0	386.441	0	97.4	4	32.0	4	-1E+10	1	-1E+10	1	-1E+10	1	-1E+10	1	-1E+10	1	-1E+10	1
4901784	124	C	11/26/2018	10:43	-133.079	43.034	0	392.30	0	5.5780	0	34.2780	8	27.039	0	388.817	0	96.2	4	31.6	4	-1E+10	1	-1E+10	1	-1E+10	1	-1E+10	1	-1E+10	1	-1E+10	1
4901784	124	C	11/26/2018	10:43	-133.079	43.034	0	394.70	0	5.5420	0	34.2800	8	27.045	0	391.194	0	95.2	4	31.2	4	-1E+10	1	-1E+10	1	-1E+10	1	-1E+10	1	-1E+10	1	-1E+10	1
4901784	124	C	11/26/2018	10:43	-133.079	43.034	0	397.10	0	5.5230	0	34.2770	8	27.044	0	393.570	0	93.9	4	30.8	4	-1E+10	1	-1E+10	1	-1E+10	1	-1E+10	1	-1E+10	1	-1E+10	1
4901784	124	C	11/26/2018	10:43	-133.079	43.034	0	399.60	0	5.4600	0	34.2790	8	27.054	0	396.045	0	92.6	4	30.3	4	-1E+10	1	-1E+10	1	-1E+10	1	-1E+10	1	-1E+10	1	-1E+10	1
4901784	124	C	11/26/2018	10:43	-133.079	43.034	0	402.10	0	5.4340	0	34.2780	8	27.056	0	398.521	0	91.4	4	29.9	4	-1E+10	1	-1E+10	1	-1E+10	1	-1E+10	1	-1E+10	1	-1E+10	1
4901784	124	C	11/26/2018	10:43	-133.079	43.034	0	404.70	0	5.4000	0	34.2780	8	27.060	0	401.095	0	90.0	4	29.4	4	-1E+10	1	-1E+10	1	-1E+10	1	-1E+10	1	-1E+10	1	-1E+10	1
4901784	124	C	11/26/2018	10:43	-133.079	43.034	0	407.30	0	5.3630	0	34.2770	8	27.064	0	403.669	0	88.6	4	28.9	4	-1E+10	1	-1E+10	1	-1E+10	1	-1E+10	1	-1E+10	1	-1E+10	1
4901784	124	C	11/26/2018	10:43	-133.079	43.034	0	409.80	0	5.3350	0	34.2770	8	27.067	0	406.145	0	87.1	4	28.4	4	-1E+10	1	-1E+10	1	-1E+10	1	-1E+10	1	-1E+10	1	-1E+10	1
4901784	124	C	11/26/2018	10:43	-133.079	43.034	0	412.50	0	5.3030	0	34.2770	8	27.071	0	408.818	0	85.8	4	28.0	4	-1E+10	1	-1E+10	1	-1E+10	1	-1E+10	1	-1E+10	1	-1E+10	1
4901784	124	C	11/26/2018	10:43	-133.079	43.034	0	415.10	0	5.2920	0	34.2770	8	27.072	0	411.392	0	84.4	4	27.5	4	-1E+10	1	-1E+10	1	-1E+10	1	-1E+10	1	-1E+10	1	-1E+10	1
4901784	124	C	11/26/2018	10:43	-133.079	43.034	0	417.60	0	5.2480	0	34.2790	8	27.079	0	413.867	0	82.5	4	26.9	4	-1E+10	1	-1E+10	1	-1E+10	1	-1E+10	1	-1E+10	1	-1E+10	1
4901784	124	C	11/26/2018	10:43	-133.079	43.034	0	420.10	0	5.2100	0	34.2820	8	27.086	0	416.343	0	80.9	4	26.3	4	-1E+10	1	-1E+10	1	-1E+10	1	-1E+10	1	-1E+10	1	-1E+10	1
4901784	124	C	11/26/2018	10:43	-133.079	43.034	0	422.60	0	5.1980	0	34.2840	8	27.089	0	418.818	0	79.1	4	25.7	4	-1E+10	1	-1E+10	1	-1E+10	1	-1E+10	1	-1E+10	1	-1E+10	1
4901784	124	C	11/26/2018	10:43	-133.079	43.034	0	425.20	0	5.1810	0	34.2890	8	27.095	0	421.392	0	77.2	4	25.1	4	-1E+10	1	-1E+10	1	-1E+10	1	-1E+10	1	-1E+10	1	-1E+10	1
4901784	124	C	11/26/2018	10:43	-133.079	43.034	0	427.90	0	5.1500	0	34.2910	8	27.100	0	424.065	0	76.1	4	24.7	4	-1E+10	1	-1E+10	1	-1E+10	1	-1E+10	1	-1E+10	1	-1E+10	1
4901784	124	C	11/26/2018	10:43	-133.079	43.034	0	430.50	0	5.1480	0	34.2920	8	27.101	0	426.639	0	74.8	4	24.3	4	-1E+10	1	-1E+10	1	-1E+10	1	-1E+10	1	-1E+10	1	-1E+10	1
4901784	124	C	11/26/2018	10:43	-133.079	43.034	0	432.20	0	5.1460	0	34.2930	8	27.102	0	428.322	0	73.5	4	23.9	4	-1E+10	1	-1E+10	1	-1E+10	1	-1E+10	1	-1E+10	1	-1E+10	1
4901784	124	C	11/26/2018	10:43	-133.079	43.034	0	434.90	0	5.1460	0	34.2970	8	27.105	0	430.995	0	72.1	4	23.4	4	-1E+10	1	-1E+10	1	-1E+10	1	-1E+10	1	-1E+10	1	-1E+10	1
4901784	124	C	11/26/2018	10:43	-133.079	43.034	0	437.50	0	5.1360	0	34.3000	8	27.109	0	433.569	0	70.9	4	23.0	4	-1E+10	1	-1E+10	1	-1E+10	1	-1E+10	1	-1E+10	1	-1E+10	1
4901784	124	C	11/26/2018	10:43	-133.079	43.034	0	440.10	0	5.1310	0	34.3010	8	27.110	0	436.143	0	69.8	4	22.7	4	-1E+10	1	-1E+10	1	-1E+10	1	-1E+10	1	-1E+10	1	-1E+10	1
4901784	124	C	11/26/2018	10:43	-133.079	43.034	0	442.80	0	5.1050	0	34.3030	8	27.115	0	438.815	0	68.5	4	22.2	4	-1E+10	1	-1E+10	1	-1E+10	1	-1E+10	1	-1E+10	1	-1E+10	1
4901784	124	C	11/26/2018	10:43	-133.079	43.034	0	444.50	0	5.0950	0	34.3060	8	27.118	0	440.498	0	67.5	4	21.9	4	-1E+10	1	-1E+10	1	-1E+10	1	-1E+10	1	-1E+10	1	-1E+10	1
4901784	124	C	11/26/2018	10:43	-133.079	43.034	0	447.10	0	5.0720	0	34.3090	8	27.123	0	443.072	0	66.4	4	21.5	4	-1E+10	1	-1E+10	1	-1E+10	1	-1E+10	1	-1E+10	1	-1E+10	1
4901784	124	C	11/26/2018	10:43	-133.079	43.034	0	449.80	0	5.0470	0	34.3130	8	27.129	0	445.745	0	65.4	4	21.2	4	-1E+10	1	-1E+10	1	-1E+10	1	-1E+10	1	-1E+10	1	-1E+10	1
4901784	124	C	11/26/2018	10:43	-133.079	43.034	0	452.50	0	5.0410	0	34.3130	8	27.130	0	448.418	0	64.4	4	20.9	4	-1E+10	1	-1E+10	1	-1E+10	1	-1E+10	1	-1E+10	1	-1E+10	1
4901784	124	C	11/26/2018	10:43	-133.079	43.034	0	455.20	0	5.0200	0	34.3160	8	27.135	0	451.090	0	63.0	4	20.4	4	-1E+10	1	-1E+10	1	-1E+10	1	-1E+10	1	-1E+10	1	-1E+10	1
4901784	124	C	11/26/2018	10:43	-133.079	43.034	0	457.00	0	5.0010	0	34.3180	8	27.139	0	452.872	0	62.1	4	20.1	4	-1E+10	1	-1E+10	1	-1E+10	1	-1E+10	1	-1E+10	1	-1E+10	1
4901784	124	C	11/26/2018	10:43	-133.079	43.034	0	459.70	0	4.9590	0	34.3270	8	27.151	0	455.545	0	61.4	4	19.9	4	-1E+10	1	-1E+10	1	-1E+10	1	-1E+10	1	-1E+10	1	-1E+10	1
4901784	124	C	11/26/2018	10:43	-133.079	43.034	0	462.30	0	4.9530	0	34.3290	8	27.153	0	458.118	0	60.8	4	19.7	4	-1E+10	1	-1E+10	1	-1E+10	1	-1E+10	1	-1E+10	1	-1E+10	1
4901784	124	C	11/26/2018	10:43	-133.079	43.034	0	465.00	0	4.9540	0	34.3300	8	27.154	0	460.791	0	60.5	4	19.6	4	-1E+10	1	-1E+10	1	-1E+10	1	-1E+10	1	-1E+10	1	-1E+10	1
4901784	124	C	11/26/2018	10:43	-133.079	43.034	0	467.70	0	4.9470	0	34.3290	8	27.154	0	463.464	0	60.1	4	19.4	4	-1E+10	1	-1E+10	1	-1E+10	1	-1E+10	1	-1E+10	1	-1E+10	1
4901784	124	C	11/26/2018	10:43	-133.079	43.034	0	469.50	0	4.9400	0	34.3300	8	27.155	0	465.245	0	59.6	4	19.3	4	-1E+10	1	-1E+10	1	-1E+10	1	-1E+10	1	-1E+10	1	-1E+10	1
4901784	124	C	11/26/2018	10:43	-133.079	43.034	0	472.20	0	4.9360	0	34.3350	8	27.160	0	467.918	0	58.4	4	18.9	4	-1E+10	1	-1E+10	1	-1E+10	1	-1E+10	1	-1E+10	1	-1E+10	1
4901784	124	C	11/26/2018	10:43	-133.079	43.034	0	474.90	0	4.9270	0	34.3380	8	27.163	0	470.590	0	58.0	4	18.8	4	-1E+10	1	-1E+10	1	-1E+10	1	-1E+10	1	-1E+10	1	-1E+10	1
4901784	124	C	11/26/2018	10:43	-133.079	43.034	0	477.70	0	4.9200	0	34.3380	8	27.164	0	473.362	0	58.2	4	18.8	4	-1E+10	1	-1E+10	1	-1E+10	1	-1E+10	1	-1E+10	1	-1E+10	1
4901784	124	C	11/26/2018	10:43	-133.079	43.034	0	480.40	0	4.9010	0	34.3380	8	27.166	0	476.034	0	58.1	4	18.8	4	-1E+10	1	-1E+10	1	-1E+10	1	-1E+10	1	-1E+10	1	-1E+10	1
4901784	124	C	11/26/2018	10:43	-133.079	43.034	0	482.30	0	4.9050	0	34.3400	8	27.167	0	477.915	0	58.1	4	18.8	4	-1E+10	1	-1E+10	1	-1E+10	1	-1E+10	1	-1E+10	1	-1E+10	1
4901784	124	C	11/26/2018	10:43	-133.079	43.034	0	485.10	0	4.8960	0	34.3390	8	27.168	0	480.686	0	58.2	4	18.8	4	-1E+10	1	-1E+10	1	-1E+10	1	-1E+10	1	-1E+10	1	-1E+10	1
4901784	124	C	11/26/2018	10:43	-133.079	43.034	0	487.80	0	4.8790	0	34.3380	8	27.169	0	483.358	0	58.0	4	18.7	4	-1E+10	1	-1E+10	1	-1E+10	1	-1E+10	1	-1E+10	1	-1E+10	1
4901784	124	C	11/26/2018	10:43	-133.079	43.034	0	489.60	0	4.8730	0	34.3380	8	27.169	0	485.140	0	57.5	4	18.6	4	-1E+10	1	-1E+10	1	-1E+10	1	-1E+10	1	-1E+10	1	-1E+10	1
4901784	124	C	11/26/2018	10:43	-133.079	43.034	0	492.30	0	4.8670	0	34.3390	8	27.171	0	487.812	0	56.5	4	18.2	4	-1E+10	1	-1E+10	1	-1E+10	1	-1E+10	1	-1E+10	1	-1E+10	1
4901784	124	C	11/26/2018	10:43	-133.079	43.034	0	495.10	0	4.8490	0	34.3450	8	27.178	0	490.583	0	55.4	4	17.9	4	-1E+10	1	-1E+10	1	-1E+10	1	-1E+10	1	-1E+10	1	-1E+10	1
4901784	124	C	11/26/2018	10:43	-133.079	43.034	0	497.00	0	4.8450	0	34.3460	8	27.179	0	492.464	0	54.9	4	17.7	4	-1E+10	1	-1E+10	1	-1E+10	1	-1E+10	1	-1E+10	1	-1E+10	1
4901784	124	C	11/26/2018	10:43	-133.079	43.034	0	499.80	0	4.8320	0	34.3490	8	27.183	0	495.235	0	54.1	4	17.4	4	-1E+10	1	-1E+10	1	-1E+10	1	-1E+10	1	-1E+10	1	-1E+10	1
4901784	124	C	11/26/2018	10:43	-133.079	43.034	0	504.50	0	4.8130	0	34.3520	8	27.187	0	499.886	0	52.7	4	17.0	4	-1E+10	1	-1E+10	1	-1E+10	1	-1E+10	1	-1E+10	1	-1E+10	1
4901784	124	C	11/26/2018	10:43	-133.079	43.034	0	510.20	0	4.7920	0	34.3580	8	27.195	0	505.527	0	51.0	4	16.4	4	-1E+10	1	-1E+10	1	-1E+10	1	-1E+10	1	-1E+10	1	-1E+10	1
4901784	124	C	11/26/2018	10:43	-133.079	43.034	0	515.00	0	4.7680	0	34.3630	8	27.201	0	510.277	0	49.8	4	16.0	4	-1E+10	1	-1E+10	1	-1E+10	1	-1E+10	1	-1E+10	1	-1E+10	1
4901784	124	C	11/26/2018	10:43	-133.079	43.034	0	519.90	0	4.7470	0	34.3680	8	27.208	0	515.126	0	48.1	4	15.5	4	-1E+10	1	-1E+10	1	-1E+10	1	-1E+10	1	-1E+10	1	-1E+10	1
4901784	124	C	11/26/2018	10:43	-133.079	43.034	0	524.70	0	4.7250	0	34.3750	8	27.216	0	519.876	0	47.4	4	15.2	4	-1E+10	1	-1E+10	1	-1E+10	1	-1E+10	1	-1E+10	1	-1E+10	1
4901784	124	C	11/26/2018	10:43	-133.079	43.034	0	529.50	0	4.7050	0	34.3760	8	27.219	0	524.626	0	47.4	4	15.3	4	-1E+10	1	-1E+10	1	-1E+10	1	-1E+10	1	-1E+10	1	-1E+10	1
4901784	124	C	11/26/2018	10:43	-133.079	43.034	0	535.30	0	4.6910	0	34.3760	8	27.220	0	530.365	0	47.0	4	15.1	4	-1E+10	1	-1E+10	1	-1E+10	1	-1E+10	1	-1E+10	1	-1E+10	1
4901784	124	C	11/26/2018	10:43	-133.079	43.034	0	540.80	0	4.6710	0	34.3790	8	27.225	0	535.807	0	46.0	4	14.8	4	-1E+10	1	-1E+10	1	-1E+10	1	-1E+10	1	-1E+10	1	-1E+10	1
4901784	124	C	11/26/2018	10:43	-133.079	43.034	0	545.30	0	4.6580	0	34.3830	8	27.230	0	540.260	0	44.9	4	14.4	4	-1E+10	1	-1E+10	1	-1E+10	1	-1E+10	1	-1E+10	1	-1E+10	1
4901784	124	C	11/26/2018	10:43	-133.079	43.034	0	550.20	0	4.6360	0	34.3860	8	27.234	0	545.108	0	43.7	4	14.0	4	-1E+10	1	-1E+10	1	-1E+10	1	-1E+10	1	-1E+10	1	-1E+10	1
4901784	124	C	11/26/2018	10:43	-133.079	43.034	0	555.20	0	4.6120	0	34.3900	8	27.240	0	550.055	0	42.5	4	13.6	4	-1E+10	1	-1E+10	1	-1E+10	1	-1E+10	1	-1E+10	1	-1E+10	1
4901784	124	C	11/26/2018	10:43	-133.079	43.034	0	560.10	0	4.5900	0	34.3940	8	27.246	0	554.903	0	41.5	4	13.3	4	-1E+10	1	-1E+10	1	-1E+10	1	-1E+10	1	-1E+10	1	-1E+10	1
4901784	124	C	11/26/2018	10:43	-133.079	43.034	0	565.20	0	4.5830	0	34.3990	8	27.251	0	559.949	0	40.2	4	12.9	4	-1E+10	1	-1E+10	1	-1E+10	1	-1E+10	1	-1E+10	1	-1E+10	1
4901784	124	C	11/26/2018	10:43	-133.079	43.034	0	570.10	0	4.5790	0	34.4020	8	27.254	0	564.797	0	39.0	4	12.5	4	-1E+10	1	-1E+10	1	-1E+10	1	-1E+10	1	-1E+10	1	-1E+10	1
4901784	124	C	11/26/2018	10:43	-133.079	43.034	0	575.00	0	4.5600	0	34.4060	8	27.259	0	569.645	0	37.4	4	12.0	4	-1E+10	1	-1E+10	1	-1E+10	1	-1E+10	1	-1E+10	1	-1E+10	1
4901784	124	C	11/26/2018	10:43	-133.079	43.034	0	580.10	0	4.5360	0	34.4130	8	27.267	0	574.690	0	35.4	4	11.3	4	-1E+10	1	-1E+10	1	-1E+10	1	-1E+10	1	-1E+10	1	-1E+10	1
4901784	124	C	11/26/2018	10:43	-133.079	43.034	0	585.10	0	4.5110	0	34.4220	8	27.277	0	579.637	0	33.6	4	10.8	4	-1E+10	1	-1E+10	1	-1E+10	1	-1E+10	1	-1E+10	1	-1E+10	1
4901784	124	C	11/26/2018	10:43	-133.079	43.034	0	590.10	0	4.4940	0	34.4270	8	27.283	0	584.583	0	32.5	4	10.4	4	-1E+10	1	-1E+10	1	-1E+10	1	-1E+10	1	-1E+10	1	-1E+10	1
4901784	124	C	11/26/2018	10:43	-133.079	43.034	0	595.10	0	4.4790	0	34.4330	8	27.289	0	589.529	0	31.3	4	10.0	4	-1E+10	1	-1E+10	1	-1E+10	1	-1E+10	1	-1E+10	1	-1E+10	1
4901784	124	C	11/26/2018	10:43	-133.079	43.034	0	600.10	0	4.4730	0	34.4360	8	27.292	0	594.475	0	30.6	4	9.8	4	-1E+10	1	-1E+10	1	-1E+10	1	-1E+10	1	-1E+10	1	-1E+10	1
4901784	124	C	11/26/2018	10:43	-133.079	43.034	0	605.10	0	4.4560	0	34.4390	8	27.297	0	599.421	0	29.9	4	9.6	4	-1E+10	1	-1E+10	1	-1E+10	1	-1E+10	1	-1E+10	1	-1E+10	1
4901784	124	C	11/26/2018	10:43	-133.079	43.034	0	610.20	0	4.4180	0	34.4420	8	27.303	0	604.466	0	29.1	4	9.3	4	-1E+10	1	-1E+10	1	-1E+10	1	-1E+10	1	-1E+10	1	-1E+10	1
4901784	124	C	11/26/2018	10:43	-133.079	43.034	0	615.40	0	4.4050	0	34.4460	8	27.308	0	609.609	0	28.2	4	9.0	4	-1E+10	1	-1E+10	1	-1E+10	1	-1E+10	1	-1E+10	1	-1E+10	1
4901784	124	C	11/26/2018	10:43	-133.079	43.034	0	620.50	0	4.3850	0	34.4540	8	27.316	0	614.654	0	27.3	4	8.7	4	-1E+10	1	-1E+10	1	-1E+10	1	-1E+10	1	-1E+10	1	-1E+10	1
4901784	124	C	11/26/2018	10:43	-133.079	43.034	0	625.60	0	4.3790	0	34.4560	8	27.319	0	619.698	0	26.8	4	8.5	4	-1E+10	1	-1E+10	1	-1E+10	1	-1E+10	1	-1E+10	1	-1E+10	1
4901784	124	C	11/26/2018	10:43	-133.079	43.034	0	630.70	0	4.3690	0	34.4600	8	27.323	0	624.742	0	26.2	4	8.4	4	-1E+10	1	-1E+10	1	-1E+10	1	-1E+10	1	-1E+10	1	-1E+10	1
4901784	124	C	11/26/2018	10:43	-133.079	43.034	0	635.00	0	4.3640	0	34.4610	8	27.324	0	628.995	0	25.6	4	8.2	4	-1E+10	1	-1E+10	1	-1E+10	1	-1E+10	1	-1E+10	1	-1E+10	1
4901784	124	C	11/26/2018	10:43	-133.079	43.034	0	639.20	0	4.3530	0	34.4650	8	27.329	0	633.149	0	24.9	4	7.9	4	-1E+10	1	-1E+10	1	-1E+10	1	-1E+10	1	-1E+10	1	-1E+10	1
4901784	124	C	11/26/2018	10:43	-133.079	43.034	0	644.40	0	4.3400	0	34.4710	8	27.335	0	638.292	0	24.1	4	7.7	4	-1E+10	1	-1E+10	1	-1E+10	1	-1E+10	1	-1E+10	1	-1E+10	1
4901784	124	C	11/26/2018	10:43	-133.079	43.034	0	649.50	0	4.3300	0	34.4750	8	27.339	0	643.336	0	23.3	4	7.4	4	-1E+10	1	-1E+10	1	-1E+10	1	-1E+10	1	-1E+10	1	-1E+10	1
4901784	124	C	11/26/2018	10:43	-133.079	43.034	0	654.70	0	4.3200	0	34.4820	8	27.346	0	648.478	0	22.5	4	7.2	4	-1E+10	1	-1E+10	1	-1E+10	1	-1E+10	1	-1E+10	1	-1E+10	1
4901784	124	C	11/26/2018	10:43	-133.079	43.034	0	659.90	0	4.3130	0	34.4860	8	27.350	0	653.621	0	21.9	4	7.0	4	-1E+10	1	-1E+10	1	-1E+10	1	-1E+10	1	-1E+10	1	-1E+10	1
4901784	124	C	11/26/2018	10:43	-133.079	43.034	0	665.20	0	4.2940	0	34.4900	8	27.355	0	658.862	0	21.3	4	6.8	4	-1E+10	1	-1E+10	1	-1E+10	1	-1E+10	1	-1E+10	1	-1E+10	1
4901784	124	C	11/26/2018	10:43	-133.079	43.034	0	670.40	0	4.2790	0	34.4960	8	27.361	0	664.004	0	20.4	4	6.5	4	-1E+10	1	-1E+10	1	-1E+10	1	-1E+10	1	-1E+10	1	-1E+10	1
4901784	124	C	11/26/2018	10:43	-133.079	43.034	0	675.70	0	4.2690	0	34.5030	8	27.368	0	669.245	0	19.4	4	6.2	4	-1E+10	1	-1E+10	1	-1E+10	1	-1E+10	1	-1E+10	1	-1E+10	1
4901784	124	C	11/26/2018	10:43	-133.079	43.034	0	680.10	0	4.2650	0	34.5130	8	27.376	0	673.596	0	18.6	4	5.9	4	-1E+10	1	-1E+10	1	-1E+10	1	-1E+10	1	-1E+10	1	-1E+10	1
4901784	124	C	11/26/2018	10:43	-133.079	43.034	0	684.50	0	4.2560	0	34.5160	8	27.380	0	677.947	0	18.3	4	5.8	4	-1E+10	1	-1E+10	1	-1E+10	1	-1E+10	1	-1E+10	1	-1E+10	1
4901784	124	C	11/26/2018	10:43	-133.079	43.034	0	689.80	0	4.2470	0	34.5190	8	27.383	0	683.187	0	17.6	4	5.6	4	-1E+10	1	-1E+10	1	-1E+10	1	-1E+10	1	-1E+10	1	-1E+10	1
4901784	124	C	11/26/2018	10:43	-133.079	43.034	0	695.30	0	4.2520	0	34.5260	8	27.388	0	688.626	0	17.0	4	5.4	4	-1E+10	1	-1E+10	1	-1E+10	1	-1E+10	1	-1E+10	1	-1E+10	1
4901784	124	C	11/26/2018	10:43	-133.079	43.034	0	700.70	0	4.2240	0	34.5310	8	27.395	0	693.965	0	16.7	4	5.3	4	-1E+10	1	-1E+10	1	-1E+10	1	-1E+10	1	-1E+10	1	-1E+10	1
4901784	124	C	11/26/2018	10:43	-133.079	43.034	0	705.10	0	4.1970	0	34.5340	8	27.401	0	698.315	0	16.6	4	5.3	4	-1E+10	1	-1E+10	1	-1E+10	1	-1E+10	1	-1E+10	1	-1E+10	1
4901784	124	C	11/26/2018	10:43	-133.079	43.034	0	709.70	0	4.1850	0	34.5360	8	27.403	0	702.863	0	16.3	4	5.2	4	-1E+10	1	-1E+10	1	-1E+10	1	-1E+10	1	-1E+10	1	-1E+10	1
4901784	124	C	11/26/2018	10:43	-133.079	43.034	0	715.10	0	4.1740	0	34.5410	8	27.409	0	708.202	0	15.9	4	5.1	4	-1E+10	1	-1E+10	1	-1E+10	1	-1E+10	1	-1E+10	1	-1E+10	1
4901784	124	C	11/26/2018	10:43	-133.079	43.034	0	720.50	0	4.1560	0	34.5460	8	27.414	0	713.541	0	15.6	4	5.0	4	-1E+10	1	-1E+10	1	-1E+10	1	-1E+10	1	-1E+10	1	-1E+10	1
4901784	124	C	11/26/2018	10:43	-133.079	43.034	0	725.10	0	4.1390	0	34.5470	8	27.417	0	718.088	0	15.4	4	4.9	4	-1E+10	1	-1E+10	1	-1E+10	1	-1E+10	1	-1E+10	1	-1E+10	1
4901784	124	C	11/26/2018	10:43	-133.079	43.034	0	729.80	0	4.1120	0	34.5520	8	27.424	0	722.735	0	15.1	4	4.8	4	-1E+10	1	-1E+10	1	-1E+10	1	-1E+10	1	-1E+10	1	-1E+10	1
4901784	124	C	11/26/2018	10:43	-133.079	43.034	0	735.40	0	4.0860	0	34.5590	8	27.432	0	728.271	0	14.8	4	4.7	4	-1E+10	1	-1E+10	1	-1E+10	1	-1E+10	1	-1E+10	1	-1E+10	1
4901784	124	C	11/26/2018	10:43	-133.079	43.034	0	740.10	0	4.0690	0	34.5630	8	27.437	0	732.917	0	14.6	4	4.6	4	-1E+10	1	-1E+10	1	-1E+10	1	-1E+10	1	-1E+10	1	-1E+10	1
4901784	124	C	11/26/2018	10:43	-133.079	43.034	0	744.80	0	4.0610	0	34.5650	8	27.440	0	737.563	0	14.4	4	4.6	4	-1E+10	1	-1E+10	1	-1E+10	1	-1E+10	1	-1E+10	1	-1E+10	1
4901784	124	C	11/26/2018	10:43	-133.079	43.034	0	750.40	0	4.0500	0	34.5690	8	27.444	0	743.099	0	14.2	4	4.5	4	-1E+10	1	-1E+10	1	-1E+10	1	-1E+10	1	-1E+10	1	-1E+10	1
4901784	124	C	11/26/2018	10:43	-133.079	43.034	0	755.10	0	4.0350	0	34.5710	8	27.447	0	747.744	0	14.0	4	4.5	4	-1E+10	1	-1E+10	1	-1E+10	1	-1E+10	1	-1E+10	1	-1E+10	1
4901784	124	C	11/26/2018	10:43	-133.079	43.034	0	759.90	0	4.0230	0	34.5740	8	27.451	0	752.489	0	13.9	4	4.4	4	-1E+10	1	-1E+10	1	-1E+10	1	-1E+10	1	-1E+10	1	-1E+10	1
4901784	124	C	11/26/2018	10:43	-133.079	43.034	0	765.60	0	4.0140	0	34.5780	8	27.455	0	758.123	0	13.6	4	4.3	4	-1E+10	1	-1E+10	1	-1E+10	1	-1E+10	1	-1E+10	1	-1E+10	1
4901784	124	C	11/26/2018	10:43	-133.079	43.034	0	770.30	0	3.9950	0	34.5830	8	27.461	0	762.768	0	13.4	4	4.2	4	-1E+10	1	-1E+10	1	-1E+10	1	-1E+10	1	-1E+10	1	-1E+10	1
4901784	124	C	11/26/2018	10:43	-133.079	43.034	0	775.00	0	3.9710	0	34.5880	8	27.467	0	767.414	0	13.2	4	4.2	4	-1E+10	1	-1E+10	1	-1E+10	1	-1E+10	1	-1E+10	1	-1E+10	1
4901784	124	C	11/26/2018	10:43	-133.079	43.034	0	780.50	0	3.9570	0	34.5910	8	27.471	0	772.850	0	13.1	4	4.1	4	-1E+10	1	-1E+10	1	-1E+10	1	-1E+10	1	-1E+10	1	-1E+10	1
4901784	124	C	11/26/2018	10:43	-133.079	43.034	0	785.30	0	3.9560	0	34.5920	8	27.472	0	777.594	0	13.0	4	4.1	4	-1E+10	1	-1E+10	1	-1E+10	1	-1E+10	1	-1E+10	1	-1E+10	1
4901784	124	C	11/26/2018	10:43	-133.079	43.034	0	790.20	0	3.9390	0	34.5950	8	27.476	0	782.437	0	12.8	4	4.0	4	-1E+10	1	-1E+10	1	-1E+10	1	-1E+10	1	-1E+10	1	-1E+10	1
4901784	124	C	11/26/2018	10:43	-133.079	43.034	0	795.10	0	3.9230	0	34.5990	8	27.481	0	787.279	0	12.6	4	4.0	4	-1E+10	1	-1E+10	1	-1E+10	1	-1E+10	1	-1E+10	1	-1E+10	1
4901784	124	C	11/26/2018	10:43	-133.079	43.034	0	800.10	0	3.9080	0	34.6020	8	27.485	0	792.221	0	12.4	4	3.9	4	-1E+10	1	-1E+10	1	-1E+10	1	-1E+10	1	-1E+10	1	-1E+10	1
4901784	124	C	11/26/2018	10:43	-133.079	43.034	0	805.00	0	3.8870	0	34.6080	8	27.492	0	797.063	0	12.1	4	3.8	4	-1E+10	1	-1E+10	1	-1E+10	1	-1E+10	1	-1E+10	1	-1E+10	1
4901784	124	C	11/26/2018	10:43	-133.079	43.034	0	810.00	0	3.8550	0	34.6170	8	27.503	0	802.004	0	11.9	4	3.7	4	-1E+10	1	-1E+10	1	-1E+10	1	-1E+10	1	-1E+10	1	-1E+10	1
4901784	124	C	11/26/2018	10:43	-133.079	43.034	0	815.00	0	3.8340	0	34.6230	8	27.510	0	806.945	0	11.7	4	3.7	4	-1E+10	1	-1E+10	1	-1E+10	1	-1E+10	1	-1E+10	1	-1E+10	1
4901784	124	C	11/26/2018	10:43	-133.079	43.034	0	820.10	0	3.8210	0	34.6280	8	27.515	0	811.985	0	11.6	4	3.6	4	-1E+10	1	-1E+10	1	-1E+10	1	-1E+10	1	-1E+10	1	-1E+10	1
4901784	124	C	11/26/2018	10:43	-133.079	43.034	0	825.20	0	3.8160	0	34.6310	8	27.518	0	817.024	0	11.4	4	3.6	4	-1E+10	1	-1E+10	1	-1E+10	1	-1E+10	1	-1E+10	1	-1E+10	1
4901784	124	C	11/26/2018	10:43	-133.079	43.034	0	830.30	0	3.8030	0	34.6360	8	27.523	0	822.064	0	11.3	4	3.6	4	-1E+10	1	-1E+10	1	-1E+10	1	-1E+10	1	-1E+10	1	-1E+10	1
4901784	124	C	11/26/2018	10:43	-133.079	43.034	0	835.40	0	3.7910	0	34.6400	8	27.528	0	827.103	0	11.2	4	3.5	4	-1E+10	1	-1E+10	1	-1E+10	1	-1E+10	1	-1E+10	1	-1E+10	1
4901784	124	C	11/26/2018	10:43	-133.079	43.034	0	840.60	0	3.7790	0	34.6450	8	27.533	0	832.241	0	11.1	4	3.5	4	-1E+10	1	-1E+10	1	-1E+10	1	-1E+10	1	-1E+10	1	-1E+10	1
4901784	124	C	11/26/2018	10:43	-133.079	43.034	0	844.90	0	3.7710	0	34.6470	8	27.535	0	836.490	0	11.0	4	3.5	4	-1E+10	1	-1E+10	1	-1E+10	1	-1E+10	1	-1E+10	1	-1E+10	1
4901784	124	C	11/26/2018	10:43	-133.079	43.034	0	849.20	0	3.7570	0	34.6500	8	27.539	0	840.738	0	10.9	4	3.4	4	-1E+10	1	-1E+10	1	-1E+10	1	-1E+10	1	-1E+10	1	-1E+10	1
4901784	124	C	11/26/2018	10:43	-133.079	43.034	0	854.50	0	3.7350	0	34.6560	8	27.546	0	845.975	0	10.8	4	3.4	4	-1E+10	1	-1E+10	1	-1E+10	1	-1E+10	1	-1E+10	1	-1E+10	1
4901784	124	C	11/26/2018	10:43	-133.079	43.034	0	859.80	0	3.7240	0	34.6610	8	27.551	0	851.211	0	10.7	4	3.4	4	-1E+10	1	-1E+10	1	-1E+10	1	-1E+10	1	-1E+10	1	-1E+10	1
4901784	124	C	11/26/2018	10:43	-133.079	43.034	0	865.30	0	3.7180	0	34.6670	8	27.557	0	856.645	0	10.6	4	3.4	4	-1E+10	1	-1E+10	1	-1E+10	1	-1E+10	1	-1E+10	1	-1E+10	1
4901784	124	C	11/26/2018	10:43	-133.079	43.034	0	869.80	0	3.7110	0	34.6700	8	27.560	0	861.091	0	10.6	4	3.3	4	-1E+10	1	-1E+10	1	-1E+10	1	-1E+10	1	-1E+10	1	-1E+10	1
4901784	124	C	11/26/2018	10:43	-133.079	43.034	0	874.40	0	3.6990	0	34.6740	8	27.564	0	865.635	0	10.6	4	3.3	4	-1E+10	1	-1E+10	1	-1E+10	1	-1E+10	1	-1E+10	1	-1E+10	1
4901784	124	C	11/26/2018	10:43	-133.079	43.034	0	879.90	0	3.6950	0	34.6780	8	27.568	0	871.069	0	10.5	4	3.3	4	-1E+10	1	-1E+10	1	-1E+10	1	-1E+10	1	-1E+10	1	-1E+10	1
4901784	124	C	11/26/2018	10:43	-133.079	43.034	0	885.40	0	3.6720	0	34.6810	8	27.572	0	876.502	0	10.5	4	3.3	4	-1E+10	1	-1E+10	1	-1E+10	1	-1E+10	1	-1E+10	1	-1E+10	1
4901784	124	C	11/26/2018	10:43	-133.079	43.034	0	890.00	0	3.6600	0	34.6820	8	27.574	0	881.046	0	10.4	4	3.3	4	-1E+10	1	-1E+10	1	-1E+10	1	-1E+10	1	-1E+10	1	-1E+10	1
4901784	124	C	11/26/2018	10:43	-133.079	43.034	0	894.70	0	3.6480	0	34.6860	8	27.579	0	885.689	0	10.4	4	3.3	4	-1E+10	1	-1E+10	1	-1E+10	1	-1E+10	1	-1E+10	1	-1E+10	1
4901784	124	C	11/26/2018	10:43	-133.079	43.034	0	900.20	0	3.6370	0	34.6900	8	27.583	0	891.122	0	10.4	4	3.3	4	-1E+10	1	-1E+10	1	-1E+10	1	-1E+10	1	-1E+10	1	-1E+10	1
4901784	124	C	11/26/2018	10:43	-133.079	43.034	0	905.50	0	3.6300	0	34.6920	8	27.585	0	896.357	0	10.4	4	3.3	4	-1E+10	1	-1E+10	1	-1E+10	1	-1E+10	1	-1E+10	1	-1E+10	1
4901784	124	C	11/26/2018	10:43	-133.079	43.034	0	910.30	0	3.6240	0	34.6940	8	27.588	0	901.098	0	10.5	4	3.3	4	-1E+10	1	-1E+10	1	-1E+10	1	-1E+10	1	-1E+10	1	-1E+10	1
4901784	124	C	11/26/2018	10:43	-133.079	43.034	0	915.20	0	3.6140	0	34.6960	8	27.590	0	905.938	0	10.5	4	3.3	4	-1E+10	1	-1E+10	1	-1E+10	1	-1E+10	1	-1E+10	1	-1E+10	1
4901784	124	C	11/26/2018	10:43	-133.079	43.034	0	920.10	0	3.5990	0	34.7000	8	27.595	0	910.778	0	10.5	4	3.3	4	-1E+10	1	-1E+10	1	-1E+10	1	-1E+10	1	-1E+10	1	-1E+10	1
4901784	124	C	11/26/2018	10:43	-133.079	43.034	0	925.10	0	3.5940	0	34.7020	8	27.597	0	915.716	0	10.5	4	3.3	4	-1E+10	1	-1E+10	1	-1E+10	1	-1E+10	1	-1E+10	1	-1E+10	1
4901784	124	C	11/26/2018	10:43	-133.079	43.034	0	930.20	0	3.5860	0	34.7040	8	27.600	0	920.753	0	10.5	4	3.3	4	-1E+10	1	-1E+10	1	-1E+10	1	-1E+10	1	-1E+10	1	-1E+10	1
4901784	124	C	11/26/2018	10:43	-133.079	43.034	0	935.30	0	3.5770	0	34.7060	8	27.602	0	925.790	0	10.6	4	3.3	4	-1E+10	1	-1E+10	1	-1E+10	1	-1E+10	1	-1E+10	1	-1E+10	1
4901784	124	C	11/26/2018	10:43	-133.079	43.034	0	940.50	0	3.5730	0	34.7070	8	27.603	0	930.926	0	10.6	4	3.3	4	-1E+10	1	-1E+10	1	-1E+10	1	-1E+10	1	-1E+10	1	-1E+10	1
4901784	124	C	11/26/2018	10:43	-133.079	43.034	0	945.70	0	3.5730	0	34.7070	8	27.603	0	936.061	0	10.6	4	3.3	4	-1E+10	1	-1E+10	1	-1E+10	1	-1E+10	1	-1E+10	1	-1E+10	1
4901784	124	C	11/26/2018	10:43	-133.079	43.034	0	950.10	0	3.5700	0	34.7080	8	27.604	0	940.406	0	10.6	4	3.3	4	-1E+10	1	-1E+10	1	-1E+10	1	-1E+10	1	-1E+10	1	-1E+10	1
4901784	124	C	11/26/2018	10:43	-133.079	43.034	0	954.40	0	3.5550	0	34.7110	8	27.608	0	944.653	0	10.7	4	3.3	4	-1E+10	1	-1E+10	1	-1E+10	1	-1E+10	1	-1E+10	1	-1E+10	1
4901784	124	C	11/26/2018	10:43	-133.079	43.034	0	959.70	0	3.5480	0	34.7130	8	27.611	0	949.887	0	10.7	4	3.3	4	-1E+10	1	-1E+10	1	-1E+10	1	-1E+10	1	-1E+10	1	-1E+10	1
4901784	124	C	11/26/2018	10:43	-133.079	43.034	0	965.10	0	3.5380	0	34.7150	8	27.613	0	955.219	0	10.7	4	3.4	4	-1E+10	1	-1E+10	1	-1E+10	1	-1E+10	1	-1E+10	1	-1E+10	1
4901784	124	C	11/26/2018	10:43	-133.079	43.034	0	970.50	0	3.5260	0	34.7180	8	27.617	0	960.551	0	10.8	4	3.4	4	-1E+10	1	-1E+10	1	-1E+10	1	-1E+10	1	-1E+10	1	-1E+10	1
4901784	124	C	11/26/2018	10:43	-133.079	43.034	0	975.10	0	3.5190	0	34.7190	8	27.618	0	965.094	0	10.8	4	3.4	4	-1E+10	1	-1E+10	1	-1E+10	1	-1E+10	1	-1E+10	1	-1E+10	1
4901784	124	C	11/26/2018	10:43	-133.079	43.034	0	979.60	0	3.5110	0	34.7220	8	27.622	0	969.537	0	10.8	4	3.4	4	-1E+10	1	-1E+10	1	-1E+10	1	-1E+10	1	-1E+10	1	-1E+10	1
4901784	124	C	11/26/2018	10:43	-133.079	43.034	0	984.90	0	3.5070	0	34.7220	8	27.622	0	974.770	0	10.9	4	3.4	4	-1E+10	1	-1E+10	1	-1E+10	1	-1E+10	1	-1E+10	1	-1E+10	1
4901784	124	C	11/26/2018	10:43	-133.079	43.034	0	990.40	0	3.5030	0	34.7230	8	27.623	0	980.201	0	10.9	4	3.4	4	-1E+10	1	-1E+10	1	-1E+10	1	-1E+10	1	-1E+10	1	-1E+10	1
4901784	124	C	11/26/2018	10:43	-133.079	43.034	0	995.00	0	3.4930	0	34.7260	8	27.627	0	984.743	0	10.9	4	3.4	4	-1E+10	1	-1E+10	1	-1E+10	1	-1E+10	1	-1E+10	1	-1E+10	1
4901784	124	C	11/26/2018	10:43	-133.079	43.034	0	999.50	0	3.4840	0	34.7280	8	27.629	0	989.186	0	11.0	4	3.4	4	-1E+10	1	-1E+10	1	-1E+10	1	-1E+10	1	-1E+10	1	-1E+10	1
4901784	124	C	11/26/2018	10:43	-133.079	43.034	0	1005.00	0	3.4770	0	34.7290	8	27.631	0	994.616	0	11.0	4	3.5	4	-1E+10	1	-1E+10	1	-1E+10	1	-1E+10	1	-1E+10	1	-1E+10	1
4901784	124	C	11/26/2018	10:43	-133.079	43.034	0	1010.50	0	3.4670	0	34.7310	8	27.633	0	1000.046	0	11.1	4	3.5	4	-1E+10	1	-1E+10	1	-1E+10	1	-1E+10	1	-1E+10	1	-1E+10	1
4901784	124	C	11/26/2018	10:43	-133.079	43.034	0	1015.20	0	3.4510	0	34.7360	8	27.639	0	1004.686	0	11.2	4	3.5	4	-1E+10	1	-1E+10	1	-1E+10	1	-1E+10	1	-1E+10	1	-1E+10	1
4901784	124	C	11/26/2018	10:43	-133.079	43.034	0	1019.90	0	3.4410	0	34.7380	8	27.641	0	1009.326	0	11.2	4	3.5	4	-1E+10	1	-1E+10	1	-1E+10	1	-1E+10	1	-1E+10	1	-1E+10	1
4901784	124	C	11/26/2018	10:43	-133.079	43.034	0	1024.60	0	3.4370	0	34.7380	8	27.642	0	1013.966	0	11.3	4	3.5	4	-1E+10	1	-1E+10	1	-1E+10	1	-1E+10	1	-1E+10	1	-1E+10	1
4901784	124	C	11/26/2018	10:43	-133.079	43.034	0	1029.40	0	3.4250	0	34.7400	8	27.645	0	1018.704	0	11.4	4	3.6	4	-1E+10	1	-1E+10	1	-1E+10	1	-1E+10	1	-1E+10	1	-1E+10	1
4901784	124	C	11/26/2018	10:43	-133.079	43.034	0	1035.00	0	3.4080	0	34.7440	8	27.649	0	1024.233	0	11.5	4	3.6	4	-1E+10	1	-1E+10	1	-1E+10	1	-1E+10	1	-1E+10	1	-1E+10	1
4901784	124	C	11/26/2018	10:43	-133.079	43.034	0	1039.80	0	3.3970	0	34.7460	8	27.652	0	1028.971	0	11.6	4	3.6	4	-1E+10	1	-1E+10	1	-1E+10	1	-1E+10	1	-1E+10	1	-1E+10	1
4901784	124	C	11/26/2018	10:43	-133.079	43.034	0	1044.50	0	3.3810	0	34.7480	8	27.655	0	1033.610	0	11.6	4	3.6	4	-1E+10	1	-1E+10	1	-1E+10	1	-1E+10	1	-1E+10	1	-1E+10	1
4901784	124	C	11/26/2018	10:43	-133.079	43.034	0	1050.10	0	3.3720	0	34.7490	8	27.657	0	1039.138	0	11.7	4	3.7	4	-1E+10	1	-1E+10	1	-1E+10	1	-1E+10	1	-1E+10	1	-1E+10	1
4901784	124	C	11/26/2018	10:43	-133.079	43.034	0	1054.80	0	3.3580	0	34.7520	8	27.661	0	1043.777	0	11.8	4	3.7	4	-1E+10	1	-1E+10	1	-1E+10	1	-1E+10	1	-1E+10	1	-1E+10	1
4901784	124	C	11/26/2018	10:43	-133.079	43.034	0	1059.40	0	3.3530	0	34.7530	8	27.662	0	1048.318	0	11.9	4	3.7	4	-1E+10	1	-1E+10	1	-1E+10	1	-1E+10	1	-1E+10	1	-1E+10	1
4901784	124	C	11/26/2018	10:43	-133.079	43.034	0	1065.10	0	3.3410	0	34.7550	8	27.665	0	1053.944	0	12.0	4	3.7	4	-1E+10	1	-1E+10	1	-1E+10	1	-1E+10	1	-1E+10	1	-1E+10	1
4901784	124	C	11/26/2018	10:43	-133.079	43.034	0	1070.40	0	3.3330	0	34.7570	8	27.667	0	1059.175	0	12.1	4	3.8	4	-1E+10	1	-1E+10	1	-1E+10	1	-1E+10	1	-1E+10	1	-1E+10	1
4901784	124	C	11/26/2018	10:43	-133.079	43.034	0	1074.50	0	3.3300	0	34.7570	8	27.667	0	1063.222	0	12.1	4	3.8	4	-1E+10	1	-1E+10	1	-1E+10	1	-1E+10	1	-1E+10	1	-1E+10	1
4901784	124	C	11/26/2018	10:43	-133.079	43.034	0	1079.30	0	3.3190	0	34.7590	8	27.670	0	1067.959	0	12.3	4	3.8	4	-1E+10	1	-1E+10	1	-1E+10	1	-1E+10	1	-1E+10	1	-1E+10	1
4901784	124	C	11/26/2018	10:43	-133.079	43.034	0	1085.00	0	3.2970	0	34.7640	8	27.676	0	1073.585	0	12.5	4	3.9	4	-1E+10	1	-1E+10	1	-1E+10	1	-1E+10	1	-1E+10	1	-1E+10	1
4901784	124	C	11/26/2018	10:43	-133.079	43.034	0	1090.70	0	3.2820	0	34.7670	8	27.680	0	1079.210	0	12.7	4	4.0	4	-1E+10	1	-1E+10	1	-1E+10	1	-1E+10	1	-1E+10	1	-1E+10	1
4901784	124	C	11/26/2018	10:43	-133.079	43.034	0	1095.70	0	3.2720	0	34.7690	8	27.683	0	1084.144	0	12.8	4	4.0	4	-1E+10	1	-1E+10	1	-1E+10	1	-1E+10	1	-1E+10	1	-1E+10	1
4901784	124	C	11/26/2018	10:43	-133.079	43.034	0	1100.60	0	3.2650	0	34.7700	8	27.684	0	1088.980	0	12.8	4	4.0	4	-1E+10	1	-1E+10	1	-1E+10	1	-1E+10	1	-1E+10	1	-1E+10	1
4901784	124	C	11/26/2018	10:43	-133.079	43.034	0	1105.60	0	3.2600	0	34.7710	8	27.685	0	1093.914	0	12.9	4	4.0	4	-1E+10	1	-1E+10	1	-1E+10	1	-1E+10	1	-1E+10	1	-1E+10	1
4901784	124	C	11/26/2018	10:43	-133.079	43.034	0	1110.60	0	3.2500	0	34.7730	8	27.688	0	1098.848	0	13.1	4	4.1	4	-1E+10	1	-1E+10	1	-1E+10	1	-1E+10	1	-1E+10	1	-1E+10	1
4901784	124	C	11/26/2018	10:43	-133.079	43.034	0	1115.40	0	3.2380	0	34.7750	8	27.691	0	1103.585	0	13.2	4	4.1	4	-1E+10	1	-1E+10	1	-1E+10	1	-1E+10	1	-1E+10	1	-1E+10	1
4901784	124	C	11/26/2018	10:43	-133.079	43.034	0	1120.60	0	3.2260	0	34.7760	8	27.693	0	1108.716	0	13.2	4	4.1	4	-1E+10	1	-1E+10	1	-1E+10	1	-1E+10	1	-1E+10	1	-1E+10	1
4901784	124	C	11/26/2018	10:43	-133.079	43.034	0	1125.10	0	3.2160	0	34.7770	8	27.695	0	1113.156	0	13.3	4	4.1	4	-1E+10	1	-1E+10	1	-1E+10	1	-1E+10	1	-1E+10	1	-1E+10	1
4901784	124	C	11/26/2018	10:43	-133.079	43.034	0	1129.70	0	3.2100	0	34.7770	8	27.695	0	1117.695	0	13.4	4	4.2	4	-1E+10	1	-1E+10	1	-1E+10	1	-1E+10	1	-1E+10	1	-1E+10	1
4901784	124	C	11/26/2018	10:43	-133.079	43.034	0	1135.20	0	3.1990	0	34.7790	8	27.698	0	1123.122	0	13.5	4	4.2	4	-1E+10	1	-1E+10	1	-1E+10	1	-1E+10	1	-1E+10	1	-1E+10	1
4901784	124	C	11/26/2018	10:43	-133.079	43.034	0	1139.80	0	3.1910	0	34.7800	8	27.699	0	1127.661	0	13.6	4	4.2	4	-1E+10	1	-1E+10	1	-1E+10	1	-1E+10	1	-1E+10	1	-1E+10	1
4901784	124	C	11/26/2018	10:43	-133.079	43.034	0	1144.40	0	3.1750	0	34.7810	8	27.702	0	1132.200	0	13.8	4	4.3	4	-1E+10	1	-1E+10	1	-1E+10	1	-1E+10	1	-1E+10	1	-1E+10	1
4901784	124	C	11/26/2018	10:43	-133.079	43.034	0	1150.00	0	3.1590	0	34.7850	8	27.706	0	1137.725	0	14.0	4	4.3	4	-1E+10	1	-1E+10	1	-1E+10	1	-1E+10	1	-1E+10	1	-1E+10	1
4901784	124	C	11/26/2018	10:43	-133.079	43.034	0	1155.60	0	3.1460	0	34.7860	8	27.708	0	1143.250	0	14.1	4	4.4	4	-1E+10	1	-1E+10	1	-1E+10	1	-1E+10	1	-1E+10	1	-1E+10	1
4901784	124	C	11/26/2018	10:43	-133.079	43.034	0	1160.20	0	3.1340	0	34.7880	8	27.711	0	1147.788	0	14.3	4	4.4	4	-1E+10	1	-1E+10	1	-1E+10	1	-1E+10	1	-1E+10	1	-1E+10	1
4901784	124	C	11/26/2018	10:43	-133.079	43.034	0	1165.00	0	3.1210	0	34.7900	8	27.714	0	1152.523	0	14.5	4	4.5	4	-1E+10	1	-1E+10	1	-1E+10	1	-1E+10	1	-1E+10	1	-1E+10	1
4901784	124	C	11/26/2018	10:43	-133.079	43.034	0	1169.70	0	3.0990	0	34.7930	8	27.718	0	1157.160	0	14.6	4	4.5	4	-1E+10	1	-1E+10	1	-1E+10	1	-1E+10	1	-1E+10	1	-1E+10	1
4901784	124	C	11/26/2018	10:43	-133.079	43.034	0	1174.40	0	3.0930	0	34.7930	8	27.719	0	1161.797	0	14.7	4	4.6	4	-1E+10	1	-1E+10	1	-1E+10	1	-1E+10	1	-1E+10	1	-1E+10	1
4901784	124	C	11/26/2018	10:43	-133.079	43.034	0	1180.10	0	3.0730	0	34.7960	8	27.723	0	1167.420	0	15.0	4	4.6	4	-1E+10	1	-1E+10	1	-1E+10	1	-1E+10	1	-1E+10	1	-1E+10	1
4901784	124	C	11/26/2018	10:43	-133.079	43.034	0	1184.90	0	3.0650	0	34.7970	8	27.725	0	1172.155	0	15.1	4	4.7	4	-1E+10	1	-1E+10	1	-1E+10	1	-1E+10	1	-1E+10	1	-1E+10	1
4901784	124	C	11/26/2018	10:43	-133.079	43.034	0	1189.60	0	3.0590	0	34.7980	8	27.726	0	1176.791	0	15.3	4	4.7	4	-1E+10	1	-1E+10	1	-1E+10	1	-1E+10	1	-1E+10	1	-1E+10	1
4901784	124	C	11/26/2018	10:43	-133.079	43.034	0	1195.30	0	3.0480	0	34.8010	8	27.730	0	1182.414	0	15.5	4	4.8	4	-1E+10	1	-1E+10	1	-1E+10	1	-1E+10	1	-1E+10	1	-1E+10	1
4901784	124	C	11/26/2018	10:43	-133.079	43.034	0	1200.00	0	3.0410	0	34.8020	8	27.731	0	1187.050	0	15.6	4	4.8	4	-1E+10	1	-1E+10	1	-1E+10	1	-1E+10	1	-1E+10	1	-1E+10	1
4901784	124	C	11/26/2018	10:43	-133.079	43.034	0	1204.80	0	3.0280	0	34.8030	8	27.733	0	1191.784	0	15.7	4	4.9	4	-1E+10	1	-1E+10	1	-1E+10	1	-1E+10	1	-1E+10	1	-1E+10	1
4901784	124	C	11/26/2018	10:43	-133.079	43.034	0	1209.70	0	3.0210	0	34.8040	8	27.735	0	1196.618	0	15.9	4	4.9	4	-1E+10	1	-1E+10	1	-1E+10	1	-1E+10	1	-1E+10	1	-1E+10	1
4901784	124	C	11/26/2018	10:43	-133.079	43.034	0	1214.60	0	3.0070	0	34.8060	8	27.737	0	1201.451	0	16.0	4	5.0	4	-1E+10	1	-1E+10	1	-1E+10	1	-1E+10	1	-1E+10	1	-1E+10	1
4901784	124	C	11/26/2018	10:43	-133.079	43.034	0	1219.60	0	3.0010	0	34.8060	8	27.738	0	1206.382	0	16.1	4	5.0	4	-1E+10	1	-1E+10	1	-1E+10	1	-1E+10	1	-1E+10	1	-1E+10	1
4901784	124	C	11/26/2018	10:43	-133.079	43.034	0	1224.50	0	2.9910	0	34.8080	8	27.741	0	1211.215	0	16.2	4	5.0	4	-1E+10	1	-1E+10	1	-1E+10	1	-1E+10	1	-1E+10	1	-1E+10	1
4901784	124	C	11/26/2018	10:43	-133.079	43.034	0	1230.40	0	2.9870	0	34.8090	8	27.742	0	1217.034	0	16.3	4	5.1	4	-1E+10	1	-1E+10	1	-1E+10	1	-1E+10	1	-1E+10	1	-1E+10	1
4901784	124	C	11/26/2018	10:43	-133.079	43.034	0	1235.30	0	2.9810	0	34.8100	8	27.743	0	1221.866	0	16.5	4	5.1	4	-1E+10	1	-1E+10	1	-1E+10	1	-1E+10	1	-1E+10	1	-1E+10	1
4901784	124	C	11/26/2018	10:43	-133.079	43.034	0	1240.30	0	2.9720	0	34.8110	8	27.745	0	1226.798	0	16.6	4	5.1	4	-1E+10	1	-1E+10	1	-1E+10	1	-1E+10	1	-1E+10	1	-1E+10	1
4901784	124	C	11/26/2018	10:43	-133.079	43.034	0	1245.30	0	2.9660	0	34.8120	8	27.746	0	1231.728	0	16.7	4	5.2	4	-1E+10	1	-1E+10	1	-1E+10	1	-1E+10	1	-1E+10	1	-1E+10	1
4901784	124	C	11/26/2018	10:43	-133.079	43.034	0	1250.20	0	2.9550	0	34.8130	8	27.748	0	1236.561	0	16.9	4	5.2	4	-1E+10	1	-1E+10	1	-1E+10	1	-1E+10	1	-1E+10	1	-1E+10	1
4901784	124	C	11/26/2018	10:43	-133.079	43.034	0	1254.90	0	2.9480	0	34.8140	8	27.749	0	1241.196	0	17.1	4	5.3	4	-1E+10	1	-1E+10	1	-1E+10	1	-1E+10	1	-1E+10	1	-1E+10	1
4901784	124	C	11/26/2018	10:43	-133.079	43.034	0	1259.40	0	2.9380	0	34.8160	8	27.752	0	1245.633	0	17.2	4	5.3	4	-1E+10	1	-1E+10	1	-1E+10	1	-1E+10	1	-1E+10	1	-1E+10	1
4901784	124	C	11/26/2018	10:43	-133.079	43.034	0	1264.80	0	2.9270	0	34.8180	8	27.755	0	1250.958	0	17.4	4	5.4	4	-1E+10	1	-1E+10	1	-1E+10	1	-1E+10	1	-1E+10	1	-1E+10	1
4901784	124	C	11/26/2018	10:43	-133.079	43.034	0	1269.50	0	2.9190	0	34.8190	8	27.756	0	1255.593	0	17.6	4	5.4	4	-1E+10	1	-1E+10	1	-1E+10	1	-1E+10	1	-1E+10	1	-1E+10	1
4901784	124	C	11/26/2018	10:43	-133.079	43.034	0	1274.40	0	2.9120	0	34.8200	8	27.758	0	1260.424	0	17.7	4	5.5	4	-1E+10	1	-1E+10	1	-1E+10	1	-1E+10	1	-1E+10	1	-1E+10	1
4901784	124	C	11/26/2018	10:43	-133.079	43.034	0	1280.00	0	2.9080	0	34.8210	8	27.759	0	1265.946	0	17.8	4	5.5	4	-1E+10	1	-1E+10	1	-1E+10	1	-1E+10	1	-1E+10	1	-1E+10	1
4901784	124	C	11/26/2018	10:43	-133.079	43.034	0	1285.70	0	2.9030	0	34.8210	8	27.759	0	1271.566	0	17.9	4	5.5	4	-1E+10	1	-1E+10	1	-1E+10	1	-1E+10	1	-1E+10	1	-1E+10	1
4901784	124	C	11/26/2018	10:43	-133.079	43.034	0	1290.60	0	2.8960	0	34.8220	8	27.761	0	1276.397	0	18.0	4	5.6	4	-1E+10	1	-1E+10	1	-1E+10	1	-1E+10	1	-1E+10	1	-1E+10	1
4901784	124	C	11/26/2018	10:43	-133.079	43.034	0	1295.50	0	2.8890	0	34.8230	8	27.762	0	1281.229	0	18.2	4	5.6	4	-1E+10	1	-1E+10	1	-1E+10	1	-1E+10	1	-1E+10	1	-1E+10	1
4901784	124	C	11/26/2018	10:43	-133.079	43.034	0	1300.40	0	2.8820	0	34.8240	8	27.764	0	1286.060	0	18.3	4	5.7	4	-1E+10	1	-1E+10	1	-1E+10	1	-1E+10	1	-1E+10	1	-1E+10	1
4901784	124	C	11/26/2018	10:43	-133.079	43.034	0	1305.40	0	2.8720	0	34.8260	8	27.766	0	1290.989	0	18.5	4	5.7	4	-1E+10	1	-1E+10	1	-1E+10	1	-1E+10	1	-1E+10	1	-1E+10	1
4901784	124	C	11/26/2018	10:43	-133.079	43.034	0	1310.30	0	2.8610	0	34.8270	8	27.768	0	1295.820	0	18.7	4	5.8	4	-1E+10	1	-1E+10	1	-1E+10	1	-1E+10	1	-1E+10	1	-1E+10	1
4901784	124	C	11/26/2018	10:43	-133.079	43.034	0	1315.30	0	2.8540	0	34.8280	8	27.769	0	1300.749	0	18.9	4	5.8	4	-1E+10	1	-1E+10	1	-1E+10	1	-1E+10	1	-1E+10	1	-1E+10	1
4901784	124	C	11/26/2018	10:43	-133.079	43.034	0	1320.20	0	2.8460	0	34.8300	8	27.772	0	1305.580	0	19.1	4	5.9	4	-1E+10	1	-1E+10	1	-1E+10	1	-1E+10	1	-1E+10	1	-1E+10	1
4901784	124	C	11/26/2018	10:43	-133.079	43.034	0	1325.30	0	2.8400	0	34.8300	8	27.772	0	1310.608	0	19.2	4	5.9	4	-1E+10	1	-1E+10	1	-1E+10	1	-1E+10	1	-1E+10	1	-1E+10	1
4901784	124	C	11/26/2018	10:43	-133.079	43.034	0	1330.40	0	2.8340	0	34.8310	8	27.774	0	1315.635	0	19.4	4	6.0	4	-1E+10	1	-1E+10	1	-1E+10	1	-1E+10	1	-1E+10	1	-1E+10	1
4901784	124	C	11/26/2018	10:43	-133.079	43.034	0	1335.40	0	2.8240	0	34.8330	8	27.776	0	1320.564	0	19.7	4	6.1	4	-1E+10	1	-1E+10	1	-1E+10	1	-1E+10	1	-1E+10	1	-1E+10	1
4901784	124	C	11/26/2018	10:43	-133.079	43.034	0	1340.60	0	2.8130	0	34.8340	8	27.778	0	1325.690	0	19.9	4	6.1	4	-1E+10	1	-1E+10	1	-1E+10	1	-1E+10	1	-1E+10	1	-1E+10	1
4901784	124	C	11/26/2018	10:43	-133.079	43.034	0	1345.70	0	2.8060	0	34.8350	8	27.780	0	1330.717	0	20.0	4	6.2	4	-1E+10	1	-1E+10	1	-1E+10	1	-1E+10	1	-1E+10	1	-1E+10	1
4901784	124	C	11/26/2018	10:43	-133.079	43.034	0	1350.00	0	2.7940	0	34.8370	8	27.782	0	1334.956	0	20.1	4	6.2	4	-1E+10	1	-1E+10	1	-1E+10	1	-1E+10	1	-1E+10	1	-1E+10	1
4901784	124	C	11/26/2018	10:43	-133.079	43.034	0	1354.30	0	2.7860	0	34.8370	8	27.783	0	1339.194	0	20.3	4	6.3	4	-1E+10	1	-1E+10	1	-1E+10	1	-1E+10	1	-1E+10	1	-1E+10	1
4901784	124	C	11/26/2018	10:43	-133.079	43.034	0	1359.60	0	2.7770	0	34.8390	8	27.785	0	1344.418	0	20.5	4	6.3	4	-1E+10	1	-1E+10	1	-1E+10	1	-1E+10	1	-1E+10	1	-1E+10	1
4901784	124	C	11/26/2018	10:43	-133.079	43.034	0	1364.80	0	2.7670	0	34.8400	8	27.787	0	1349.543	0	20.7	4	6.4	4	-1E+10	1	-1E+10	1	-1E+10	1	-1E+10	1	-1E+10	1	-1E+10	1
4901784	124	C	11/26/2018	10:43	-133.079	43.034	0	1370.10	0	2.7580	0	34.8410	8	27.789	0	1354.767	0	20.8	4	6.4	4	-1E+10	1	-1E+10	1	-1E+10	1	-1E+10	1	-1E+10	1	-1E+10	1
4901784	124	C	11/26/2018	10:43	-133.079	43.034	0	1375.40	0	2.7520	0	34.8420	8	27.790	0	1359.991	0	21.0	4	6.5	4	-1E+10	1	-1E+10	1	-1E+10	1	-1E+10	1	-1E+10	1	-1E+10	1
4901784	124	C	11/26/2018	10:43	-133.079	43.034	0	1379.90	0	2.7490	0	34.8420	8	27.790	0	1364.426	0	21.2	4	6.5	4	-1E+10	1	-1E+10	1	-1E+10	1	-1E+10	1	-1E+10	1	-1E+10	1
4901784	124	C	11/26/2018	10:43	-133.079	43.034	0	1384.30	0	2.7370	0	34.8430	8	27.792	0	1368.762	0	21.4	4	6.6	4	-1E+10	1	-1E+10	1	-1E+10	1	-1E+10	1	-1E+10	1	-1E+10	1
4901784	124	C	11/26/2018	10:43	-133.079	43.034	0	1389.70	0	2.7180	0	34.8460	8	27.796	0	1374.084	0	21.7	4	6.7	4	-1E+10	1	-1E+10	1	-1E+10	1	-1E+10	1	-1E+10	1	-1E+10	1
4901784	124	C	11/26/2018	10:43	-133.079	43.034	0	1395.20	0	2.7100	0	34.8470	8	27.798	0	1379.504	0	22.0	4	6.8	4	-1E+10	1	-1E+10	1	-1E+10	1	-1E+10	1	-1E+10	1	-1E+10	1
4901784	124	C	11/26/2018	10:43	-133.079	43.034	0	1400.60	0	2.6990	0	34.8480	8	27.800	0	1384.826	0	22.3	4	6.8	4	-1E+10	1	-1E+10	1	-1E+10	1	-1E+10	1	-1E+10	1	-1E+10	1
4901784	124	C	11/26/2018	10:43	-133.079	43.034	0	1405.20	0	2.6900	0	34.8490	8	27.801	0	1389.359	0	22.5	4	6.9	4	-1E+10	1	-1E+10	1	-1E+10	1	-1E+10	1	-1E+10	1	-1E+10	1
4901784	124	C	11/26/2018	10:43	-133.079	43.034	0	1410.40	0	2.6820	0	34.8500	8	27.803	0	1394.483	0	22.7	4	7.0	4	-1E+10	1	-1E+10	1	-1E+10	1	-1E+10	1	-1E+10	1	-1E+10	1
4901784	124	C	11/26/2018	10:43	-133.079	43.034	0	1415.50	0	2.6700	0	34.8520	8	27.805	0	1399.509	0	23.0	4	7.1	4	-1E+10	1	-1E+10	1	-1E+10	1	-1E+10	1	-1E+10	1	-1E+10	1
4901784	124	C	11/26/2018	10:43	-133.079	43.034	0	1420.30	0	2.6640	0	34.8530	8	27.807	0	1404.238	0	23.2	4	7.1	4	-1E+10	1	-1E+10	1	-1E+10	1	-1E+10	1	-1E+10	1	-1E+10	1
4901784	124	C	11/26/2018	10:43	-133.079	43.034	0	1425.20	0	2.6550	0	34.8540	8	27.808	0	1409.067	0	23.5	4	7.2	4	-1E+10	1	-1E+10	1	-1E+10	1	-1E+10	1	-1E+10	1	-1E+10	1
4901784	124	C	11/26/2018	10:43	-133.079	43.034	0	1430.10	0	2.6460	0	34.8550	8	27.810	0	1413.895	0	23.8	4	7.3	4	-1E+10	1	-1E+10	1	-1E+10	1	-1E+10	1	-1E+10	1	-1E+10	1
4901784	124	C	11/26/2018	10:43	-133.079	43.034	0	1435.00	0	2.6390	0	34.8560	8	27.811	0	1418.723	0	24.0	4	7.4	4	-1E+10	1	-1E+10	1	-1E+10	1	-1E+10	1	-1E+10	1	-1E+10	1
4901784	124	C	11/26/2018	10:43	-133.079	43.034	0	1439.90	0	2.6280	0	34.8570	8	27.813	0	1423.551	0	24.2	4	7.4	4	-1E+10	1	-1E+10	1	-1E+10	1	-1E+10	1	-1E+10	1	-1E+10	1
4901784	124	C	11/26/2018	10:43	-133.079	43.034	0	1444.90	0	2.6190	0	34.8590	8	27.816	0	1428.477	0	24.5	4	7.5	4	-1E+10	1	-1E+10	1	-1E+10	1	-1E+10	1	-1E+10	1	-1E+10	1
4901784	124	C	11/26/2018	10:43	-133.079	43.034	0	1449.80	0	2.6120	0	34.8600	8	27.817	0	1433.305	0	24.7	4	7.6	4	-1E+10	1	-1E+10	1	-1E+10	1	-1E+10	1	-1E+10	1	-1E+10	1
4901784	124	C	11/26/2018	10:43	-133.079	43.034	0	1454.80	0	2.6060	0	34.8610	8	27.818	0	1438.231	0	24.9	4	7.6	4	-1E+10	1	-1E+10	1	-1E+10	1	-1E+10	1	-1E+10	1	-1E+10	1
4901784	124	C	11/26/2018	10:43	-133.079	43.034	0	1459.80	0	2.6000	0	34.8610	8	27.819	0	1443.157	0	25.0	4	7.7	4	-1E+10	1	-1E+10	1	-1E+10	1	-1E+10	1	-1E+10	1	-1E+10	1
4901784	124	C	11/26/2018	10:43	-133.079	43.034	0	1464.90	0	2.5970	0	34.8620	8	27.820	0	1448.181	0	25.2	4	7.7	4	-1E+10	1	-1E+10	1	-1E+10	1	-1E+10	1	-1E+10	1	-1E+10	1
4901784	124	C	11/26/2018	10:43	-133.079	43.034	0	1470.10	0	2.5880	0	34.8630	8	27.822	0	1453.304	0	25.5	4	7.8	4	-1E+10	1	-1E+10	1	-1E+10	1	-1E+10	1	-1E+10	1	-1E+10	1
4901784	124	C	11/26/2018	10:43	-133.079	43.034	0	1475.20	0	2.5800	0	34.8640	8	27.823	0	1458.328	0	25.8	4	7.9	4	-1E+10	1	-1E+10	1	-1E+10	1	-1E+10	1	-1E+10	1	-1E+10	1
4901784	124	C	11/26/2018	10:43	-133.079	43.034	0	1480.30	0	2.5690	0	34.8650	8	27.825	0	1463.352	0	26.1	4	8.0	4	-1E+10	1	-1E+10	1	-1E+10	1	-1E+10	1	-1E+10	1	-1E+10	1
4901784	124	C	11/26/2018	10:43	-133.079	43.034	0	1485.50	0	2.5620	0	34.8660	8	27.826	0	1468.474	0	26.4	4	8.1	4	-1E+10	1	-1E+10	1	-1E+10	1	-1E+10	1	-1E+10	1	-1E+10	1
4901784	124	C	11/26/2018	10:43	-133.079	43.034	0	1490.70	0	2.5530	0	34.8670	8	27.828	0	1473.597	0	26.7	4	8.2	4	-1E+10	1	-1E+10	1	-1E+10	1	-1E+10	1	-1E+10	1	-1E+10	1
4901784	124	C	11/26/2018	10:43	-133.079	43.034	0	1495.00	0	2.5450	0	34.8680	8	27.829	0	1477.832	0	26.9	4	8.2	4	-1E+10	1	-1E+10	1	-1E+10	1	-1E+10	1	-1E+10	1	-1E+10	1
4901784	124	C	11/26/2018	10:43	-133.079	43.034	0	1499.30	0	2.5360	0	34.8690	8	27.831	0	1482.068	0	27.1	4	8.3	4	-1E+10	1	-1E+10	1	-1E+10	1	-1E+10	1	-1E+10	1	-1E+10	1
4901784	124	C	11/26/2018	10:43	-133.079	43.034	0	1504.60	0	2.5240	0	34.8700	8	27.833	0	1487.288	0	27.6	4	8.4	4	-1E+10	1	-1E+10	1	-1E+10	1	-1E+10	1	-1E+10	1	-1E+10	1
4901784	124	C	11/26/2018	10:43	-133.079	43.034	0	1509.90	0	2.5090	0	34.8720	8	27.836	0	1492.509	0	28.0	4	8.6	4	-1E+10	1	-1E+10	1	-1E+10	1	-1E+10	1	-1E+10	1	-1E+10	1
4901784	124	C	11/26/2018	10:43	-133.079	43.034	0	1515.20	0	2.5020	0	34.8730	8	27.837	0	1497.729	0	28.2	4	8.6	4	-1E+10	1	-1E+10	1	-1E+10	1	-1E+10	1	-1E+10	1	-1E+10	1
4901784	124	C	11/26/2018	10:43	-133.079	43.034	0	1520.50	0	2.4970	0	34.8740	8	27.838	0	1502.949	0	28.4	4	8.7	4	-1E+10	1	-1E+10	1	-1E+10	1	-1E+10	1	-1E+10	1	-1E+10	1
4901784	124	C	11/26/2018	10:43	-133.079	43.034	0	1525.00	0	2.4920	0	34.8750	8	27.840	0	1507.381	0	28.7	4	8.8	4	-1E+10	1	-1E+10	1	-1E+10	1	-1E+10	1	-1E+10	1	-1E+10	1
4901784	124	C	11/26/2018	10:43	-133.079	43.034	0	1529.50	0	2.4850	0	34.8760	8	27.841	0	1511.813	0	29.0	4	8.9	4	-1E+10	1	-1E+10	1	-1E+10	1	-1E+10	1	-1E+10	1	-1E+10	1
4901784	124	C	11/26/2018	10:43	-133.079	43.034	0	1534.80	0	2.4760	0	34.8770	8	27.843	0	1517.033	0	29.4	4	9.0	4	-1E+10	1	-1E+10	1	-1E+10	1	-1E+10	1	-1E+10	1	-1E+10	1
4901784	124	C	11/26/2018	10:43	-133.079	43.034	0	1540.20	0	2.4690	0	34.8780	8	27.844	0	1522.351	0	29.8	4	9.1	4	-1E+10	1	-1E+10	1	-1E+10	1	-1E+10	1	-1E+10	1	-1E+10	1
4901784	124	C	11/26/2018	10:43	-133.079	43.034	0	1545.50	0	2.4630	0	34.8790	8	27.845	0	1527.570	0	30.1	4	9.2	4	-1E+10	1	-1E+10	1	-1E+10	1	-1E+10	1	-1E+10	1	-1E+10	1
4901784	124	C	11/26/2018	10:43	-133.079	43.034	0	1550.10	0	2.4580	0	34.8800	8	27.847	0	1532.100	0	30.4	4	9.3	4	-1E+10	1	-1E+10	1	-1E+10	1	-1E+10	1	-1E+10	1	-1E+10	1
4901784	124	C	11/26/2018	10:43	-133.079	43.034	0	1554.50	0	2.4540	0	34.8800	8	27.847	0	1536.433	0	30.6	4	9.4	4	-1E+10	1	-1E+10	1	-1E+10	1	-1E+10	1	-1E+10	1	-1E+10	1
4901784	124	C	11/26/2018	10:43	-133.079	43.034	0	1560.00	0	2.4450	0	34.8810	8	27.849	0	1541.849	0	31.0	4	9.5	4	-1E+10	1	-1E+10	1	-1E+10	1	-1E+10	1	-1E+10	1	-1E+10	1
4901784	124	C	11/26/2018	10:43	-133.079	43.034	0	1565.50	0	2.4340	0	34.8820	8	27.850	0	1547.265	0	31.4	4	9.6	4	-1E+10	1	-1E+10	1	-1E+10	1	-1E+10	1	-1E+10	1	-1E+10	1
4901784	124	C	11/26/2018	10:43	-133.079	43.034	0	1570.00	0	2.4240	0	34.8840	8	27.853	0	1551.696	0	31.8	4	9.7	4	-1E+10	1	-1E+10	1	-1E+10	1	-1E+10	1	-1E+10	1	-1E+10	1
4901784	124	C	11/26/2018	10:43	-133.079	43.034	0	1574.60	0	2.4170	0	34.8840	8	27.854	0	1556.226	0	32.1	4	9.8	4	-1E+10	1	-1E+10	1	-1E+10	1	-1E+10	1	-1E+10	1	-1E+10	1
4901784	124	C	11/26/2018	10:43	-133.079	43.034	0	1580.10	0	2.4090	0	34.8850	8	27.855	0	1561.641	0	32.4	4	9.9	4	-1E+10	1	-1E+10	1	-1E+10	1	-1E+10	1	-1E+10	1	-1E+10	1
4901784	124	C	11/26/2018	10:43	-133.079	43.034	0	1585.60	0	2.4020	0	34.8860	8	27.856	0	1567.056	0	32.6	4	10.0	4	-1E+10	1	-1E+10	1	-1E+10	1	-1E+10	1	-1E+10	1	-1E+10	1
4901784	124	C	11/26/2018	10:43	-133.079	43.034	0	1590.30	0	2.3960	0	34.8870	8	27.858	0	1571.684	0	32.8	4	10.0	4	-1E+10	1	-1E+10	1	-1E+10	1	-1E+10	1	-1E+10	1	-1E+10	1
4901784	124	C	11/26/2018	10:43	-133.079	43.034	0	1594.80	0	2.3890	0	34.8870	8	27.858	0	1576.115	0	33.0	4	10.1	4	-1E+10	1	-1E+10	1	-1E+10	1	-1E+10	1	-1E+10	1	-1E+10	1
4901784	124	C	11/26/2018	10:43	-133.079	43.034	0	1599.70	0	2.3840	0	34.8880	8	27.860	0	1580.939	0	33.3	4	10.2	4	-1E+10	1	-1E+10	1	-1E+10	1	-1E+10	1	-1E+10	1	-1E+10	1
4901784	124	C	11/26/2018	10:43	-133.079	43.034	0	1604.60	0	2.3790	0	34.8890	8	27.861	0	1585.763	0	33.5	4	10.2	4	-1E+10	1	-1E+10	1	-1E+10	1	-1E+10	1	-1E+10	1	-1E+10	1
4901784	124	C	11/26/2018	10:43	-133.079	43.034	0	1609.50	0	2.3700	0	34.8900	8	27.862	0	1590.587	0	33.8	4	10.3	4	-1E+10	1	-1E+10	1	-1E+10	1	-1E+10	1	-1E+10	1	-1E+10	1
4901784	124	C	11/26/2018	10:43	-133.079	43.034	0	1614.50	0	2.3650	0	34.8910	8	27.864	0	1595.510	0	34.1	4	10.4	4	-1E+10	1	-1E+10	1	-1E+10	1	-1E+10	1	-1E+10	1	-1E+10	1
4901784	124	C	11/26/2018	10:43	-133.079	43.034	0	1619.40	0	2.3600	0	34.8920	8	27.865	0	1600.334	0	34.4	4	10.5	4	-1E+10	1	-1E+10	1	-1E+10	1	-1E+10	1	-1E+10	1	-1E+10	1
4901784	124	C	11/26/2018	10:43	-133.079	43.034	0	1624.40	0	2.3500	0	34.8940	8	27.867	0	1605.256	0	34.7	4	10.6	4	-1E+10	1	-1E+10	1	-1E+10	1	-1E+10	1	-1E+10	1	-1E+10	1
4901784	124	C	11/26/2018	10:43	-133.079	43.034	0	1629.40	0	2.3450	0	34.8940	8	27.868	0	1610.178	0	34.9	4	10.6	4	-1E+10	1	-1E+10	1	-1E+10	1	-1E+10	1	-1E+10	1	-1E+10	1
4901784	124	C	11/26/2018	10:43	-133.079	43.034	0	1634.40	0	2.3380	0	34.8960	8	27.870	0	1615.100	0	35.2	4	10.7	4	-1E+10	1	-1E+10	1	-1E+10	1	-1E+10	1	-1E+10	1	-1E+10	1
4901784	124	C	11/26/2018	10:43	-133.079	43.034	0	1639.40	0	2.3350	0	34.8960	8	27.870	0	1620.022	0	35.4	4	10.8	4	-1E+10	1	-1E+10	1	-1E+10	1	-1E+10	1	-1E+10	1	-1E+10	1
4901784	124	C	11/26/2018	10:43	-133.079	43.034	0	1644.40	0	2.3310	0	34.8970	8	27.871	0	1624.943	0	35.8	4	10.9	4	-1E+10	1	-1E+10	1	-1E+10	1	-1E+10	1	-1E+10	1	-1E+10	1
4901784	124	C	11/26/2018	10:43	-133.079	43.034	0	1649.50	0	2.3240	0	34.8980	8	27.873	0	1629.963	0	36.2	4	11.0	4	-1E+10	1	-1E+10	1	-1E+10	1	-1E+10	1	-1E+10	1	-1E+10	1
4901784	124	C	11/26/2018	10:43	-133.079	43.034	0	1654.60	0	2.3160	0	34.8990	8	27.874	0	1634.983	0	36.5	4	11.1	4	-1E+10	1	-1E+10	1	-1E+10	1	-1E+10	1	-1E+10	1	-1E+10	1
4901784	124	C	11/26/2018	10:43	-133.079	43.034	0	1659.80	0	2.3080	0	34.9000	8	27.876	0	1640.102	0	36.8	4	11.2	4	-1E+10	1	-1E+10	1	-1E+10	1	-1E+10	1	-1E+10	1	-1E+10	1
4901784	124	C	11/26/2018	10:43	-133.079	43.034	0	1664.90	0	2.3010	0	34.9010	8	27.877	0	1645.121	0	37.1	4	11.3	4	-1E+10	1	-1E+10	1	-1E+10	1	-1E+10	1	-1E+10	1	-1E+10	1
4901784	124	C	11/26/2018	10:43	-133.079	43.034	0	1670.10	0	2.2970	0	34.9010	8	27.878	0	1650.239	0	37.4	4	11.4	4	-1E+10	1	-1E+10	1	-1E+10	1	-1E+10	1	-1E+10	1	-1E+10	1
4901784	124	C	11/26/2018	10:43	-133.079	43.034	0	1675.30	0	2.2870	0	34.9030	8	27.880	0	1655.357	0	37.9	4	11.5	4	-1E+10	1	-1E+10	1	-1E+10	1	-1E+10	1	-1E+10	1	-1E+10	1
4901784	124	C	11/26/2018	10:43	-133.079	43.034	0	1680.50	0	2.2820	0	34.9030	8	27.880	0	1660.475	0	38.3	4	11.6	4	-1E+10	1	-1E+10	1	-1E+10	1	-1E+10	1	-1E+10	1	-1E+10	1
4901784	124	C	11/26/2018	10:43	-133.079	43.034	0	1684.90	0	2.2750	0	34.9050	8	27.883	0	1664.805	0	38.6	4	11.8	4	-1E+10	1	-1E+10	1	-1E+10	1	-1E+10	1	-1E+10	1	-1E+10	1
4901784	124	C	11/26/2018	10:43	-133.079	43.034	0	1689.30	0	2.2680	0	34.9050	8	27.883	0	1669.135	0	39.0	4	11.9	4	-1E+10	1	-1E+10	1	-1E+10	1	-1E+10	1	-1E+10	1	-1E+10	1
4901784	124	C	11/26/2018	10:43	-133.079	43.034	0	1694.60	0	2.2630	0	34.9060	8	27.885	0	1674.351	0	39.3	4	12.0	4	-1E+10	1	-1E+10	1	-1E+10	1	-1E+10	1	-1E+10	1	-1E+10	1
4901784	124	C	11/26/2018	10:43	-133.079	43.034	0	1699.80	0	2.2540	0	34.9070	8	27.886	0	1679.468	0	39.7	4	12.1	4	-1E+10	1	-1E+10	1	-1E+10	1	-1E+10	1	-1E+10	1	-1E+10	1
4901784	124	C	11/26/2018	10:43	-133.079	43.034	0	1705.00	0	2.2460	0	34.9080	8	27.888	0	1684.586	0	40.0	4	12.2	4	-1E+10	1	-1E+10	1	-1E+10	1	-1E+10	1	-1E+10	1	-1E+10	1
4901784	124	C	11/26/2018	10:43	-133.079	43.034	0	1710.30	0	2.2410	0	34.9090	8	27.889	0	1689.801	0	40.3	4	12.2	4	-1E+10	1	-1E+10	1	-1E+10	1	-1E+10	1	-1E+10	1	-1E+10	1
4901784	124	C	11/26/2018	10:43	-133.079	43.034	0	1715.60	0	2.2360	0	34.9090	8	27.889	0	1695.016	0	40.6	4	12.3	4	-1E+10	1	-1E+10	1	-1E+10	1	-1E+10	1	-1E+10	1	-1E+10	1
4901784	124	C	11/26/2018	10:43	-133.079	43.034	0	1720.00	0	2.2290	0	34.9110	8	27.891	0	1699.346	0	41.0	4	12.5	4	-1E+10	1	-1E+10	1	-1E+10	1	-1E+10	1	-1E+10	1	-1E+10	1
4901784	124	C	11/26/2018	10:43	-133.079	43.034	0	1724.50	0	2.2220	0	34.9110	8	27.892	0	1703.774	0	41.3	4	12.5	4	-1E+10	1	-1E+10	1	-1E+10	1	-1E+10	1	-1E+10	1	-1E+10	1
4901784	124	C	11/26/2018	10:43	-133.079	43.034	0	1729.90	0	2.2160	0	34.9120	8	27.893	0	1709.087	0	41.6	4	12.7	4	-1E+10	1	-1E+10	1	-1E+10	1	-1E+10	1	-1E+10	1	-1E+10	1
4901784	124	C	11/26/2018	10:43	-133.079	43.034	0	1735.20	0	2.2090	0	34.9130	8	27.895	0	1714.302	0	42.0	4	12.8	4	-1E+10	1	-1E+10	1	-1E+10	1	-1E+10	1	-1E+10	1	-1E+10	1
4901784	124	C	11/26/2018	10:43	-133.079	43.034	0	1740.50	0	2.2000	0	34.9140	8	27.896	0	1719.517	0	42.4	4	12.9	4	-1E+10	1	-1E+10	1	-1E+10	1	-1E+10	1	-1E+10	1	-1E+10	1
4901784	124	C	11/26/2018	10:43	-133.079	43.034	0	1745.30	0	2.1950	0	34.9150	8	27.898	0	1724.239	0	42.6	4	12.9	4	-1E+10	1	-1E+10	1	-1E+10	1	-1E+10	1	-1E+10	1	-1E+10	1
4901784	124	C	11/26/2018	10:43	-133.079	43.034	0	1750.10	0	2.1920	0	34.9160	8	27.899	0	1728.962	0	42.8	4	13.0	4	-1E+10	1	-1E+10	1	-1E+10	1	-1E+10	1	-1E+10	1	-1E+10	1
4901784	124	C	11/26/2018	10:43	-133.079	43.034	0	1755.00	0	2.1880	0	34.9170	8	27.900	0	1733.783	0	43.1	4	13.1	4	-1E+10	1	-1E+10	1	-1E+10	1	-1E+10	1	-1E+10	1	-1E+10	1
4901784	124	C	11/26/2018	10:43	-133.079	43.034	0	1759.90	0	2.1830	0	34.9180	8	27.901	0	1738.603	0	43.5	4	13.2	4	-1E+10	1	-1E+10	1	-1E+10	1	-1E+10	1	-1E+10	1	-1E+10	1
4901784	124	C	11/26/2018	10:43	-133.079	43.034	0	1764.80	0	2.1760	0	34.9190	8	27.902	0	1743.424	0	43.8	4	13.3	4	-1E+10	1	-1E+10	1	-1E+10	1	-1E+10	1	-1E+10	1	-1E+10	1
4901784	124	C	11/26/2018	10:43	-133.079	43.034	0	1769.80	0	2.1720	0	34.9200	8	27.904	0	1748.343	0	44.1	4	13.4	4	-1E+10	1	-1E+10	1	-1E+10	1	-1E+10	1	-1E+10	1	-1E+10	1
4901784	124	C	11/26/2018	10:43	-133.079	43.034	0	1774.80	0	2.1670	0	34.9200	8	27.904	0	1753.262	0	44.5	4	13.5	4	-1E+10	1	-1E+10	1	-1E+10	1	-1E+10	1	-1E+10	1	-1E+10	1
4901784	124	C	11/26/2018	10:43	-133.079	43.034	0	1779.90	0	2.1570	0	34.9220	8	27.906	0	1758.279	0	45.1	4	13.7	4	-1E+10	1	-1E+10	1	-1E+10	1	-1E+10	1	-1E+10	1	-1E+10	1
4901784	124	C	11/26/2018	10:43	-133.079	43.034	0	1785.00	0	2.1460	0	34.9230	8	27.908	0	1763.296	0	45.6	4	13.8	4	-1E+10	1	-1E+10	1	-1E+10	1	-1E+10	1	-1E+10	1	-1E+10	1
4901784	124	C	11/26/2018	10:43	-133.079	43.034	0	1790.10	0	2.1400	0	34.9240	8	27.909	0	1768.312	0	46.0	4	13.9	4	-1E+10	1	-1E+10	1	-1E+10	1	-1E+10	1	-1E+10	1	-1E+10	1
4901784	124	C	11/26/2018	10:43	-133.079	43.034	0	1795.20	0	2.1320	0	34.9250	8	27.911	0	1773.329	0	46.3	4	14.1	4	-1E+10	1	-1E+10	1	-1E+10	1	-1E+10	1	-1E+10	1	-1E+10	1
4901784	124	C	11/26/2018	10:43	-133.079	43.034	0	1800.50	0	2.1250	0	34.9260	8	27.912	0	1778.542	0	46.7	4	14.1	4	-1E+10	1	-1E+10	1	-1E+10	1	-1E+10	1	-1E+10	1	-1E+10	1
4901784	124	C	11/26/2018	10:43	-133.079	43.034	0	1805.70	0	2.1200	0	34.9270	8	27.914	0	1783.657	0	47.0	4	14.3	4	-1E+10	1	-1E+10	1	-1E+10	1	-1E+10	1	-1E+10	1	-1E+10	1
4901784	124	C	11/26/2018	10:43	-133.079	43.034	0	1810.00	0	2.1170	0	34.9270	8	27.914	0	1787.886	0	47.3	4	14.4	4	-1E+10	1	-1E+10	1	-1E+10	1	-1E+10	1	-1E+10	1	-1E+10	1
4901784	124	C	11/26/2018	10:43	-133.079	43.034	0	1814.30	0	2.1140	0	34.9280	8	27.915	0	1792.116	0	47.7	4	14.5	4	-1E+10	1	-1E+10	1	-1E+10	1	-1E+10	1	-1E+10	1	-1E+10	1
4901784	124	C	11/26/2018	10:43	-133.079	43.034	0	1819.70	0	2.1050	0	34.9290	8	27.916	0	1797.427	0	48.2	4	14.6	4	-1E+10	1	-1E+10	1	-1E+10	1	-1E+10	1	-1E+10	1	-1E+10	1
4901784	124	C	11/26/2018	10:43	-133.079	43.034	0	1825.00	0	2.0990	0	34.9300	8	27.918	0	1802.640	0	48.6	4	14.7	4	-1E+10	1	-1E+10	1	-1E+10	1	-1E+10	1	-1E+10	1	-1E+10	1
4901784	124	C	11/26/2018	10:43	-133.079	43.034	0	1830.40	0	2.0900	0	34.9310	8	27.919	0	1807.950	0	49.0	4	14.8	4	-1E+10	1	-1E+10	1	-1E+10	1	-1E+10	1	-1E+10	1	-1E+10	1
4901784	124	C	11/26/2018	10:43	-133.079	43.034	0	1835.70	0	2.0840	0	34.9320	8	27.921	0	1813.163	0	49.4	4	15.0	4	-1E+10	1	-1E+10	1	-1E+10	1	-1E+10	1	-1E+10	1	-1E+10	1
4901784	124	C	11/26/2018	10:43	-133.079	43.034	0	1840.20	0	2.0810	0	34.9330	8	27.922	0	1817.588	0	49.6	4	15.0	4	-1E+10	1	-1E+10	1	-1E+10	1	-1E+10	1	-1E+10	1	-1E+10	1
4901784	124	C	11/26/2018	10:43	-133.079	43.034	0	1844.70	0	2.0780	0	34.9340	8	27.923	0	1822.014	0	49.9	4	15.1	4	-1E+10	1	-1E+10	1	-1E+10	1	-1E+10	1	-1E+10	1	-1E+10	1
4901784	124	C	11/26/2018	10:43	-133.079	43.034	0	1850.10	0	2.0740	0	34.9350	8	27.924	0	1827.324	0	50.1	4	15.2	4	-1E+10	1	-1E+10	1	-1E+10	1	-1E+10	1	-1E+10	1	-1E+10	1
4901784	124	C	11/26/2018	10:43	-133.079	43.034	0	1855.60	0	2.0690	0	34.9350	8	27.924	0	1832.733	0	50.4	4	15.3	4	-1E+10	1	-1E+10	1	-1E+10	1	-1E+10	1	-1E+10	1	-1E+10	1
4901784	124	C	11/26/2018	10:43	-133.079	43.034	0	1860.20	0	2.0660	0	34.9360	8	27.925	0	1837.256	0	50.5	4	15.3	4	-1E+10	1	-1E+10	1	-1E+10	1	-1E+10	1	-1E+10	1	-1E+10	1
4901784	124	C	11/26/2018	10:43	-133.079	43.034	0	1864.70	0	2.0640	0	34.9360	8	27.926	0	1841.681	0	50.7	4	15.3	4	-1E+10	1	-1E+10	1	-1E+10	1	-1E+10	1	-1E+10	1	-1E+10	1
4901784	124	C	11/26/2018	10:43	-133.079	43.034	0	1870.20	0	2.0610	0	34.9360	8	27.926	0	1847.089	0	50.8	4	15.4	4	-1E+10	1	-1E+10	1	-1E+10	1	-1E+10	1	-1E+10	1	-1E+10	1
4901784	124	C	11/26/2018	10:43	-133.079	43.034	0	1874.90	0	2.0600	0	34.9360	8	27.926	0	1851.711	0	51.0	4	15.5	4	-1E+10	1	-1E+10	1	-1E+10	1	-1E+10	1	-1E+10	1	-1E+10	1
4901784	124	C	11/26/2018	10:43	-133.079	43.034	0	1879.50	0	2.0560	0	34.9370	8	27.927	0	1856.234	0	51.4	4	15.6	4	-1E+10	1	-1E+10	1	-1E+10	1	-1E+10	1	-1E+10	1	-1E+10	1
4901784	124	C	11/26/2018	10:43	-133.079	43.034	0	1885.10	0	2.0480	0	34.9380	8	27.929	0	1861.740	0	51.8	4	15.7	4	-1E+10	1	-1E+10	1	-1E+10	1	-1E+10	1	-1E+10	1	-1E+10	1
4901784	124	C	11/26/2018	10:43	-133.079	43.034	0	1890.60	0	2.0430	0	34.9390	8	27.930	0	1867.148	0	52.1	4	15.8	4	-1E+10	1	-1E+10	1	-1E+10	1	-1E+10	1	-1E+10	1	-1E+10	1
4901784	124	C	11/26/2018	10:43	-133.079	43.034	0	1895.30	0	2.0410	0	34.9390	8	27.930	0	1871.769	0	52.3	4	15.8	4	-1E+10	1	-1E+10	1	-1E+10	1	-1E+10	1	-1E+10	1	-1E+10	1
4901784	124	C	11/26/2018	10:43	-133.079	43.034	0	1900.00	0	2.0370	0	34.9400	8	27.931	0	1876.390	0	52.7	4	15.9	4	-1E+10	1	-1E+10	1	-1E+10	1	-1E+10	1	-1E+10	1	-1E+10	1
4901784	124	C	11/26/2018	10:43	-133.079	43.034	0	1904.70	0	2.0290	0	34.9410	8	27.933	0	1881.011	0	53.0	4	16.0	4	-1E+10	1	-1E+10	1	-1E+10	1	-1E+10	1	-1E+10	1	-1E+10	1
4901784	124	C	11/26/2018	10:43	-133.079	43.034	0	1909.40	0	2.0250	0	34.9410	8	27.933	0	1885.631	0	53.3	4	16.1	4	-1E+10	1	-1E+10	1	-1E+10	1	-1E+10	1	-1E+10	1	-1E+10	1
4901784	124	C	11/26/2018	10:43	-133.079	43.034	0	1915.00	0	2.0180	0	34.9420	8	27.934	0	1891.137	0	53.7	4	16.2	4	-1E+10	1	-1E+10	1	-1E+10	1	-1E+10	1	-1E+10	1	-1E+10	1
4901784	124	C	11/26/2018	10:43	-133.079	43.034	0	1920.60	0	2.0160	0	34.9420	8	27.934	0	1896.642	0	54.0	4	16.3	4	-1E+10	1	-1E+10	1	-1E+10	1	-1E+10	1	-1E+10	1	-1E+10	1
4901784	124	C	11/26/2018	10:43	-133.079	43.034	0	1925.40	0	2.0110	0	34.9430	8	27.936	0	1901.361	0	54.5	4	16.5	4	-1E+10	1	-1E+10	1	-1E+10	1	-1E+10	1	-1E+10	1	-1E+10	1
4901784	124	C	11/26/2018	10:43	-133.079	43.034	0	1930.00	0	2.0020	0	34.9440	8	27.937	0	1905.883	0	55.0	4	16.6	4	-1E+10	1	-1E+10	1	-1E+10	1	-1E+10	1	-1E+10	1	-1E+10	1
4901784	124	C	11/26/2018	10:43	-133.079	43.034	0	1934.90	0	1.9960	0	34.9450	8	27.938	0	1910.700	0	55.4	4	16.7	4	-1E+10	1	-1E+10	1	-1E+10	1	-1E+10	1	-1E+10	1	-1E+10	1
4901784	124	C	11/26/2018	10:43	-133.079	43.034	0	1939.80	0	1.9900	0	34.9460	8	27.940	0	1915.516	0	55.8	4	16.9	4	-1E+10	1	-1E+10	1	-1E+10	1	-1E+10	1	-1E+10	1	-1E+10	1
4901784	124	C	11/26/2018	10:43	-133.079	43.034	0	1944.80	0	1.9870	0	34.9470	8	27.941	0	1920.431	0	56.0	4	16.9	4	-1E+10	1	-1E+10	1	-1E+10	1	-1E+10	1	-1E+10	1	-1E+10	1
4901784	124	C	11/26/2018	10:43	-133.079	43.034	0	1949.70	0	1.9840	0	34.9470	8	27.941	0	1925.248	0	56.3	4	17.0	4	-1E+10	1	-1E+10	1	-1E+10	1	-1E+10	1	-1E+10	1	-1E+10	1
4901784	124	C	11/26/2018	10:43	-133.079	43.034	0	1954.60	0	1.9810	0	34.9480	8	27.942	0	1930.064	0	56.6	4	17.1	4	-1E+10	1	-1E+10	1	-1E+10	1	-1E+10	1	-1E+10	1	-1E+10	1
4901784	124	C	11/26/2018	10:43	-133.079	43.034	0	1959.60	0	1.9760	0	34.9490	8	27.943	0	1934.979	0	56.9	4	17.2	4	-1E+10	1	-1E+10	1	-1E+10	1	-1E+10	1	-1E+10	1	-1E+10	1
4901784	124	C	11/26/2018	10:43	-133.079	43.034	0	1964.50	0	1.9740	0	34.9490	8	27.944	0	1939.795	0	57.1	4	17.3	4	-1E+10	1	-1E+10	1	-1E+10	1	-1E+10	1	-1E+10	1	-1E+10	1
4901784	124	C	11/26/2018	10:43	-133.079	43.034	0	1969.50	0	1.9700	0	34.9500	8	27.945	0	1944.709	0	57.4	4	17.3	4	-1E+10	1	-1E+10	1	-1E+10	1	-1E+10	1	-1E+10	1	-1E+10	1
4901784	124	C	11/26/2018	10:43	-133.079	43.034	0	1974.40	0	1.9690	0	34.9500	8	27.945	0	1949.525	0	57.6	4	17.4	4	-1E+10	1	-1E+10	1	-1E+10	1	-1E+10	1	-1E+10	1	-1E+10	1
4901784	124	C	11/26/2018	10:43	-133.079	43.034	0	1979.40	0	1.9650	0	34.9510	8	27.946	0	1954.439	0	58.0	4	17.5	4	-1E+10	1	-1E+10	1	-1E+10	1	-1E+10	1	-1E+10	1	-1E+10	1
4901784	124	C	11/26/2018	10:43	-133.079	43.034	0	1984.30	0	1.9610	0	34.9510	8	27.946	0	1959.255	0	58.4	4	17.6	4	-1E+10	1	-1E+10	1	-1E+10	1	-1E+10	1	-1E+10	1	-1E+10	1
4901784	124	C	11/26/2018	10:43	-133.079	43.034	0	1989.30	0	1.9550	0	34.9530	8	27.948	0	1964.169	0	58.8	4	17.8	4	-1E+10	1	-1E+10	1	-1E+10	1	-1E+10	1	-1E+10	1	-1E+10	1
4901784	124	C	11/26/2018	10:43	-133.079	43.034	0	1994.30	0	1.9520	0	34.9530	8	27.949	0	1969.082	0	59.1	4	17.8	4	-1E+10	1	-1E+10	1	-1E+10	1	-1E+10	1	-1E+10	1	-1E+10	1
4901784	124	C	11/26/2018	10:43	-133.079	43.034	0	1999.30	0	1.9470	0	34.9540	8	27.950	0	1973.996	0	59.4	4	17.9	4	-1E+10	1	-1E+10	1	-1E+10	1	-1E+10	1	-1E+10	1	-1E+10	1
4901784	124	C	11/26/2018	10:43	-133.079	43.034	0	2004.40	0	1.9440	0	34.9540	8	27.950	0	1979.008	0	59.7	4	18.0	4	-1E+10	1	-1E+10	1	-1E+10	1	-1E+10	1	-1E+10	1	-1E+10	1
4901784	124	C	11/26/2018	10:43	-133.079	43.034	0	2009.40	0	1.9410	0	34.9550	8	27.951	0	1983.921	0	60.0	4	18.1	4	-1E+10	1	-1E+10	1	-1E+10	1	-1E+10	1	-1E+10	1	-1E+10	1
4901784	124	C	11/26/2018	10:43	-133.079	43.034	0	2014.70	0	1.9350	0	34.9560	8	27.953	0	1989.129	0	60.4	4	18.2	4	-1E+10	1	-1E+10	1	-1E+10	1	-1E+10	1	-1E+10	1	-1E+10	1
4901784	124	C	11/26/2018	10:43	-133.079	43.034	0	2020.10	0	1.9320	0	34.9570	8	27.954	0	1994.435	0	60.7	4	18.3	4	-1E+10	1	-1E+10	1	-1E+10	1	-1E+10	1	-1E+10	1	-1E+10	1
4901784	124	C	11/26/2018	10:43	-133.079	43.034	0																										
4901784	125	C	12/06/2018	10:46	-133.268	43.013	0	2.20	0	14.6650	0	33.0500	8	24.542	0	2.183	0	242.4	4	95.9	4	-1E+10	1	-1E+10	1	-1E+10	1	-1E+10	1	-1E+10	1	-1E+10	1
4901784	125	C	12/06/2018	10:46	-133.268	43.013	0	3.70	0	14.6720	0	33.0490	8	24.539	0	3.671	0	242.7	4	96.0	4	-1E+10	1	-1E+10	1	-1E+10	1	-1E+10	1	-1E+10	1	-1E+10	1
4901784	125	C	12/06/2018	10:46	-133.268	43.013	0	5.20	0	14.6720	0	33.0490	8	24.540	0	5.159	0	242.7	4	96.0	4	-1E+10	1	-1E+10	1	-1E+10	1	-1E+10	1	-1E+10	1	-1E+10	1
4901784	125	C	12/06/2018	10:46	-133.268	43.013	0	6.90	0	14.6720	0	33.0490	8	24.540	0	6.845	0	242.6	4	96.0	4	-1E+10	1	-1E+10	1	-1E+10	1	-1E+10	1	-1E+10	1	-1E+10	1
4901784	125	C	12/06/2018	10:46	-133.268	43.013	0	8.50	0	14.6710	0	33.0500	8	24.541	0	8.432	0	242.3	4	95.8	4	-1E+10	1	-1E+10	1	-1E+10	1	-1E+10	1	-1E+10	1	-1E+10	1
4901784	125	C	12/06/2018	10:46	-133.268	43.013	0	10.30	0	14.6710	0	33.0490	8	24.540	0	10.218	0	242.5	4	95.9	4	-1E+10	1	-1E+10	1	-1E+10	1	-1E+10	1	-1E+10	1	-1E+10	1
4901784	125	C	12/06/2018	10:46	-133.268	43.013	0	12.00	0	14.6710	0	33.0500	8	24.541	0	11.904	0	242.4	4	95.9	4	-1E+10	1	-1E+10	1	-1E+10	1	-1E+10	1	-1E+10	1	-1E+10	1
4901784	125	C	12/06/2018	10:46	-133.268	43.013	0	13.80	0	14.6720	0	33.0490	8	24.540	0	13.690	0	242.4	4	95.9	4	-1E+10	1	-1E+10	1	-1E+10	1	-1E+10	1	-1E+10	1	-1E+10	1
4901784	125	C	12/06/2018	10:46	-133.268	43.013	0	15.80	0	14.6710	0	33.0490	8	24.540	0	15.674	0	242.3	4	95.9	4	-1E+10	1	-1E+10	1	-1E+10	1	-1E+10	1	-1E+10	1	-1E+10	1
4901784	125	C	12/06/2018	10:46	-133.268	43.013	0	17.70	0	14.6720	0	33.0500	8	24.541	0	17.559	0	242.3	4	95.8	4	-1E+10	1	-1E+10	1	-1E+10	1	-1E+10	1	-1E+10	1	-1E+10	1
4901784	125	C	12/06/2018	10:46	-133.268	43.013	0	19.60	0	14.6750	0	33.0500	8	24.540	0	19.444	0	242.2	4	95.8	4	-1E+10	1	-1E+10	1	-1E+10	1	-1E+10	1	-1E+10	1	-1E+10	1
4901784	125	C	12/06/2018	10:46	-133.268	43.013	0	21.40	0	14.6750	0	33.0500	8	24.540	0	21.229	0	242.1	4	95.8	4	-1E+10	1	-1E+10	1	-1E+10	1	-1E+10	1	-1E+10	1	-1E+10	1
4901784	125	C	12/06/2018	10:46	-133.268	43.013	0	23.20	0	14.6700	0	33.0490	8	24.540	0	23.015	0	242.2	4	95.8	4	-1E+10	1	-1E+10	1	-1E+10	1	-1E+10	1	-1E+10	1	-1E+10	1
4901784	125	C	12/06/2018	10:46	-133.268	43.013	0	25.00	0	14.6700	0	33.0500	8	24.541	0	24.800	0	242.1	4	95.8	4	-1E+10	1	-1E+10	1	-1E+10	1	-1E+10	1	-1E+10	1	-1E+10	1
4901784	125	C	12/06/2018	10:46	-133.268	43.013	0	26.80	0	14.6730	0	33.0490	8	24.540	0	26.586	0	242.1	4	95.8	4	-1E+10	1	-1E+10	1	-1E+10	1	-1E+10	1	-1E+10	1	-1E+10	1
4901784	125	C	12/06/2018	10:46	-133.268	43.013	0	28.50	0	14.6740	0	33.0490	8	24.540	0	28.272	0	241.7	4	95.6	4	-1E+10	1	-1E+10	1	-1E+10	1	-1E+10	1	-1E+10	1	-1E+10	1
4901784	125	C	12/06/2018	10:46	-133.268	43.013	0	30.40	0	14.6720	0	33.0500	8	24.541	0	30.157	0	241.8	4	95.6	4	-1E+10	1	-1E+10	1	-1E+10	1	-1E+10	1	-1E+10	1	-1E+10	1
4901784	125	C	12/06/2018	10:46	-133.268	43.013	0	32.20	0	14.6700	0	33.0490	8	24.541	0	31.942	0	241.7	4	95.6	4	-1E+10	1	-1E+10	1	-1E+10	1	-1E+10	1	-1E+10	1	-1E+10	1
4901784	125	C	12/06/2018	10:46	-133.268	43.013	0	33.80	0	14.6740	0	33.0490	8	24.540	0	33.529	0	241.7	4	95.6	4	-1E+10	1	-1E+10	1	-1E+10	1	-1E+10	1	-1E+10	1	-1E+10	1
4901784	125	C	12/06/2018	10:46	-133.268	43.013	0	35.60	0	14.6680	0	33.0500	8	24.542	0	35.314	0	241.6	4	95.6	4	-1E+10	1	-1E+10	1	-1E+10	1	-1E+10	1	-1E+10	1	-1E+10	1
4901784	125	C	12/06/2018	10:46	-133.268	43.013	0	37.20	0	14.6700	0	33.0490	8	24.541	0	36.901	0	241.6	4	95.6	4	-1E+10	1	-1E+10	1	-1E+10	1	-1E+10	1	-1E+10	1	-1E+10	1
4901784	125	C	12/06/2018	10:46	-133.268	43.013	0	38.90	0	14.6680	0	33.0490	8	24.541	0	38.588	0	241.5	4	95.5	4	-1E+10	1	-1E+10	1	-1E+10	1	-1E+10	1	-1E+10	1	-1E+10	1
4901784	125	C	12/06/2018	10:46	-133.268	43.013	0	40.60	0	14.6720	0	33.0490	8	24.541	0	40.274	0	241.5	4	95.5	4	-1E+10	1	-1E+10	1	-1E+10	1	-1E+10	1	-1E+10	1	-1E+10	1
4901784	125	C	12/06/2018	10:46	-133.268	43.013	0	42.20	0	14.6660	0	33.0490	8	24.542	0	41.861	0	241.2	4	95.4	4	-1E+10	1	-1E+10	1	-1E+10	1	-1E+10	1	-1E+10	1	-1E+10	1
4901784	125	C	12/06/2018	10:46	-133.268	43.013	0	43.80	0	14.6700	0	33.0490	8	24.541	0	43.448	0	241.0	4	95.3	4	-1E+10	1	-1E+10	1	-1E+10	1	-1E+10	1	-1E+10	1	-1E+10	1
4901784	125	C	12/06/2018	10:46	-133.268	43.013	0	45.40	0	14.6660	0	33.0490	8	24.542	0	45.035	0	241.0	4	95.3	4	-1E+10	1	-1E+10	1	-1E+10	1	-1E+10	1	-1E+10	1	-1E+10	1
4901784	125	C	12/06/2018	10:46	-133.268	43.013	0	47.00	0	14.6630	0	33.0480	8	24.542	0	46.622	0	240.9	4	95.3	4	-1E+10	1	-1E+10	1	-1E+10	1	-1E+10	1	-1E+10	1	-1E+10	1
4901784	125	C	12/06/2018	10:46	-133.268	43.013	0	48.60	0	14.6620	0	33.0480	8	24.542	0	48.209	0	240.8	4	95.2	4	-1E+10	1	-1E+10	1	-1E+10	1	-1E+10	1	-1E+10	1	-1E+10	1
4901784	125	C	12/06/2018	10:46	-133.268	43.013	0	50.30	0	14.6640	0	33.0480	8	24.542	0	49.895	0	240.8	4	95.2	4	-1E+10	1	-1E+10	1	-1E+10	1	-1E+10	1	-1E+10	1	-1E+10	1
4901784	125	C	12/06/2018	10:46	-133.268	43.013	0	52.00	0	14.6650	0	33.0480	8	24.542	0	51.581	0	240.7	4	95.2	4	-1E+10	1	-1E+10	1	-1E+10	1	-1E+10	1	-1E+10	1	-1E+10	1
4901784	125	C	12/06/2018	10:46	-133.268	43.013	0	53.70	0	14.6650	0	33.0480	8	24.542	0	53.267	0	240.4	4	95.1	4	-1E+10	1	-1E+10	1	-1E+10	1	-1E+10	1	-1E+10	1	-1E+10	1
4901784	125	C	12/06/2018	10:46	-133.268	43.013	0	55.50	0	14.6650	0	33.0470	8	24.541	0	55.052	0	240.3	4	95.0	4	-1E+10	1	-1E+10	1	-1E+10	1	-1E+10	1	-1E+10	1	-1E+10	1
4901784	125	C	12/06/2018	10:46	-133.268	43.013	0	57.40	0	14.6650	0	33.0470	8	24.541	0	56.937	0	240.5	4	95.1	4	-1E+10	1	-1E+10	1	-1E+10	1	-1E+10	1	-1E+10	1	-1E+10	1
4901784	125	C	12/06/2018	10:46	-133.268	43.013	0	59.10	0	14.6640	0	33.0460	8	24.541	0	58.623	0	240.7	4	95.2	4	-1E+10	1	-1E+10	1	-1E+10	1	-1E+10	1	-1E+10	1	-1E+10	1
4901784	125	C	12/06/2018	10:46	-133.268	43.013	0	61.10	0	14.6650	0	33.0440	8	24.539	0	60.606	0	240.7	4	95.2	4	-1E+10	1	-1E+10	1	-1E+10	1	-1E+10	1	-1E+10	1	-1E+10	1
4901784	125	C	12/06/2018	10:46	-133.268	43.013	0	61.60	0	14.6650	0	33.0430	8	24.538	0	61.102	0	240.9	4	95.3	4	-1E+10	1	-1E+10	1	-1E+10	1	-1E+10	1	-1E+10	1	-1E+10	1
4901784	125	C	12/06/2018	10:46	-133.268	43.013	0	63.10	0	14.6650	0	33.0400	8	24.536	0	62.590	0	241.3	4	95.4	4	-1E+10	1	-1E+10	1	-1E+10	1	-1E+10	1	-1E+10	1	-1E+10	1
4901784	125	C	12/06/2018	10:46	-133.268	43.013	0	64.40	0	14.6640	0	33.0360	8	24.533	0	63.879	0	242.3	4	95.8	4	-1E+10	1	-1E+10	1	-1E+10	1	-1E+10	1	-1E+10	1	-1E+10	1
4901784	125	C	12/06/2018	10:46	-133.268	43.013	0	65.70	0	14.6590	0	33.0310	8	24.530	0	65.168	0	243.3	4	96.2	4	-1E+10	1	-1E+10	1	-1E+10	1	-1E+10	1	-1E+10	1	-1E+10	1
4901784	125	C	12/06/2018	10:46	-133.268	43.013	0	67.00	0	14.6570	0	33.0210	8	24.523	0	66.458	0	245.1	4	96.9	4	-1E+10	1	-1E+10	1	-1E+10	1	-1E+10	1	-1E+10	1	-1E+10	1
4901784	125	C	12/06/2018	10:46	-133.268	43.013	0	68.20	0	14.6520	0	33.0070	8	24.513	0	67.648	0	247.8	4	97.9	4	-1E+10	1	-1E+10	1	-1E+10	1	-1E+10	1	-1E+10	1	-1E+10	1
4901784	125	C	12/06/2018	10:46	-133.268	43.013	0	69.30	0	14.6420	0	32.9790	8	24.494	0	68.739	0	251.5	4	99.4	4	-1E+10	1	-1E+10	1	-1E+10	1	-1E+10	1	-1E+10	1	-1E+10	1
4901784	125	C	12/06/2018	10:46	-133.268	43.013	0	70.70	0	14.1810	0	32.9500	8	24.569	0	70.127	0	257.7	4	100.9	4	-1E+10	1	-1E+10	1	-1E+10	1	-1E+10	1	-1E+10	1	-1E+10	1
4901784	125	C	12/06/2018	10:46	-133.268	43.013	0	72.20	0	12.4350	0	33.0220	8	24.973	0	71.615	0	268.9	4	101.7	4	-1E+10	1	-1E+10	1	-1E+10	1	-1E+10	1	-1E+10	1	-1E+10	1
4901784	125	C	12/06/2018	10:46	-133.268	43.013	0	73.80	0	11.9540	0	33.0180	8	25.061	0	73.201	0	272.9	4	102.1	4	-1E+10	1	-1E+10	1	-1E+10	1	-1E+10	1	-1E+10	1	-1E+10	1
4901784	125	C	12/06/2018	10:46	-133.268	43.013	0	75.50	0	11.4110	0	33.0050	8	25.151	0	74.887	0	274.7	4	101.6	4	-1E+10	1	-1E+10	1	-1E+10	1	-1E+10	1	-1E+10	1	-1E+10	1
4901784	125	C	12/06/2018	10:46	-133.268	43.013	0	77.10	0	10.7250	0	33.0040	8	25.272	0	76.474	0	277.2	4	101.1	4	-1E+10	1	-1E+10	1	-1E+10	1	-1E+10	1	-1E+10	1	-1E+10	1
4901784	125	C	12/06/2018	10:46	-133.268	43.013	0	78.70	0	10.6370	0	33.0030	8	25.286	0	78.061	0	275.2	4	100.1	4	-1E+10	1	-1E+10	1	-1E+10	1	-1E+10	1	-1E+10	1	-1E+10	1
4901784	125	C	12/06/2018	10:46	-133.268	43.013	0	80.50	0	10.4990	0	32.9980	8	25.306	0	79.846	0	272.9	4	99.0	4	-1E+10	1	-1E+10	1	-1E+10	1	-1E+10	1	-1E+10	1	-1E+10	1
4901784	125	C	12/06/2018	10:46	-133.268	43.013	0	82.20	0	10.2760	0	32.9810	8	25.331	0	81.531	0	272.8	4	98.5	4	-1E+10	1	-1E+10	1	-1E+10	1	-1E+10	1	-1E+10	1	-1E+10	1
4901784	125	C	12/06/2018	10:46	-133.268	43.013	0	84.00	0	10.1170	0	32.9810	8	25.358	0	83.316	0	270.7	4	97.4	4	-1E+10	1	-1E+10	1	-1E+10	1	-1E+10	1	-1E+10	1	-1E+10	1
4901784	125	C	12/06/2018	10:46	-133.268	43.013	0	85.80	0	9.8940	0	32.9620	8	25.380	0	85.101	0	270.0	4	96.7	4	-1E+10	1	-1E+10	1	-1E+10	1	-1E+10	1	-1E+10	1	-1E+10	1
4901784	125	C	12/06/2018	10:46	-133.268	43.013	0	87.50	0	9.8360	0	32.9530	8	25.383	0	86.787	0	269.1	4	96.2	4	-1E+10	1	-1E+10	1	-1E+10	1	-1E+10	1	-1E+10	1	-1E+10	1
4901784	125	C	12/06/2018	10:46	-133.268	43.013	0	89.20	0	9.7720	0	32.9690	8	25.406	0	88.473	0	268.4	4	95.9	4	-1E+10	1	-1E+10	1	-1E+10	1	-1E+10	1	-1E+10	1	-1E+10	1
4901784	125	C	12/06/2018	10:46	-133.268	43.013	0	91.00	0	9.8590	0	32.9940	8	25.411	0	90.258	0	267.1	4	95.6	4	-1E+10	1	-1E+10	1	-1E+10	1	-1E+10	1	-1E+10	1	-1E+10	1
4901784	125	C	12/06/2018	10:46	-133.268	43.013	0	92.80	0	9.8940	0	33.0160	8	25.423	0	92.043	0	264.0	4	94.6	4	-1E+10	1	-1E+10	1	-1E+10	1	-1E+10	1	-1E+10	1	-1E+10	1
4901784	125	C	12/06/2018	10:46	-133.268	43.013	0	94.60	0	9.7320	0	33.0070	8	25.442	0	93.828	0	262.9	4	93.8	4	-1E+10	1	-1E+10	1	-1E+10	1	-1E+10	1	-1E+10	1	-1E+10	1
4901784	125	C	12/06/2018	10:46	-133.268	43.013	0	96.30	0	9.7890	0	33.0260	8	25.448	0	95.514	0	261.3	4	93.4	4	-1E+10	1	-1E+10	1	-1E+10	1	-1E+10	1	-1E+10	1	-1E+10	1
4901784	125	C	12/06/2018	10:46	-133.268	43.013	0	98.10	0	9.7770	0	33.0250	8	25.449	0	97.298	0	259.8	4	92.8	4	-1E+10	1	-1E+10	1	-1E+10	1	-1E+10	1	-1E+10	1	-1E+10	1
4901784	125	C	12/06/2018	10:46	-133.268	43.013	0	99.90	0	9.7640	0	33.0210	8	25.448	0	99.083	0	258.1	4	92.2	4	-1E+10	1	-1E+10	1	-1E+10	1	-1E+10	1	-1E+10	1	-1E+10	1
4901784	125	C	12/06/2018	10:46	-133.268	43.013	0	102.70	0	9.5100	0	32.9900	8	25.465	0	101.860	0	256.6	4	91.1	4	-1E+10	1	-1E+10	1	-1E+10	1	-1E+10	1	-1E+10	1	-1E+10	1
4901784	125	C	12/06/2018	10:46	-133.268	43.013	0	105.30	0	9.3120	0	32.9690	8	25.481	0	104.438	0	255.5	4	90.3	4	-1E+10	1	-1E+10	1	-1E+10	1	-1E+10	1	-1E+10	1	-1E+10	1
4901784	125	C	12/06/2018	10:46	-133.268	43.013	0	107.10	0	9.2400	0	32.9690	8	25.492	0	106.223	0	254.4	4	89.8	4	-1E+10	1	-1E+10	1	-1E+10	1	-1E+10	1	-1E+10	1	-1E+10	1
4901784	125	C	12/06/2018	10:46	-133.268	43.013	0	109.80	0	9.2470	0	32.9820	8	25.501	0	108.900	0	252.6	4	89.2	4	-1E+10	1	-1E+10	1	-1E+10	1	-1E+10	1	-1E+10	1	-1E+10	1
4901784	125	C	12/06/2018	10:46	-133.268	43.013	0	112.40	0	9.1900	0	32.9930	8	25.519	0	111.478	0	250.6	4	88.4	4	-1E+10	1	-1E+10	1	-1E+10	1	-1E+10	1	-1E+10	1	-1E+10	1
4901784	125	C	12/06/2018	10:46	-133.268	43.013	0	115.10	0	9.1840	0	33.0200	8	25.541	0	114.155	0	248.1	4	87.5	4	-1E+10	1	-1E+10	1	-1E+10	1	-1E+10	1	-1E+10	1	-1E+10	1
4901784	125	C	12/06/2018	10:46	-133.268	43.013	0	117.80	0	8.9970	0	33.0250	8	25.575	0	116.832	0	246.8	4	86.7	4	-1E+10	1	-1E+10	1	-1E+10	1	-1E+10	1	-1E+10	1	-1E+10	1
4901784	125	C	12/06/2018	10:46	-133.268	43.013	0	119.60	0	8.8500	0	33.0310	8	25.602	0	118.617	0	246.6	4	86.4	4	-1E+10	1	-1E+10	1	-1E+10	1	-1E+10	1	-1E+10	1	-1E+10	1
4901784	125	C	12/06/2018	10:46	-133.268	43.013	0	122.00	0	8.7500	0	33.0550	8	25.636	0	120.996	0	245.4	4	85.8	4	-1E+10	1	-1E+10	1	-1E+10	1	-1E+10	1	-1E+10	1	-1E+10	1
4901784	125	C	12/06/2018	10:46	-133.268	43.013	0	124.60	0	8.6900	0	33.0900	8	25.673	0	123.574	0	243.8	4	85.1	4	-1E+10	1	-1E+10	1	-1E+10	1	-1E+10	1	-1E+10	1	-1E+10	1
4901784	125	C	12/06/2018	10:46	-133.268	43.013	0	127.70	0	8.6200	0	33.1120	8	25.701	0	126.647	0	241.5	4	84.2	4	-1E+10	1	-1E+10	1	-1E+10	1	-1E+10	1	-1E+10	1	-1E+10	1
4901784	125	C	12/06/2018	10:46	-133.268	43.013	0	130.00	0	8.6600	0	33.1870	8	25.754	0	128.928	0	238.7	4	83.3	4	-1E+10	1	-1E+10	1	-1E+10	1	-1E+10	1	-1E+10	1	-1E+10	1
4901784	125	C	12/06/2018	10:46	-133.268	43.013	0	132.40	0	8.5690	0	33.2440	8	25.812	0	131.307	0	237.3	4	82.7	4	-1E+10	1	-1E+10	1	-1E+10	1	-1E+10	1	-1E+10	1	-1E+10	1
4901784	125	C	12/06/2018	10:46	-133.268	43.013	0	134.90	0	8.5090	0	33.2850	8	25.854	0	133.786	0	236.0	4	82.2	4	-1E+10	1	-1E+10	1	-1E+10	1	-1E+10	1	-1E+10	1	-1E+10	1
4901784	125	C	12/06/2018	10:46	-133.268	43.013	0	137.50	0	8.4680	0	33.3030	8	25.874	0	136.363	0	234.7	4	81.6	4	-1E+10	1	-1E+10	1	-1E+10	1	-1E+10	1	-1E+10	1	-1E+10	1
4901784	125	C	12/06/2018	10:46	-133.268	43.013	0	140.20	0	8.3570	0	33.3550	8	25.931	0	139.040	0	233.1	4	80.9	4	-1E+10	1	-1E+10	1	-1E+10	1	-1E+10	1	-1E+10	1	-1E+10	1
4901784	125	C	12/06/2018	10:46	-133.268	43.013	0	142.50	0	8.2810	0	33.3880	8	25.969	0	141.320	0	232.1	4	80.5	4	-1E+10	1	-1E+10	1	-1E+10	1	-1E+10	1	-1E+10	1	-1E+10	1
4901784	125	C	12/06/2018	10:46	-133.268	43.013	0	145.00	0	8.2400	0	33.4140	8	25.995	0	143.799	0	230.6	4	79.9	4	-1E+10	1	-1E+10	1	-1E+10	1	-1E+10	1	-1E+10	1	-1E+10	1
4901784	125	C	12/06/2018	10:46	-133.268	43.013	0	148.00	0	8.0820	0	33.4430	8	26.041	0	146.773	0	229.2	4	79.1	4	-1E+10	1	-1E+10	1	-1E+10	1	-1E+10	1	-1E+10	1	-1E+10	1
4901784	125	C	12/06/2018	10:46	-133.268	43.013	0	150.20	0	7.9410	0	33.4690	8	26.083	0	148.954	0	227.8	4	78.4	4	-1E+10	1	-1E+10	1	-1E+10	1	-1E+10	1	-1E+10	1	-1E+10	1
4901784	125	C	12/06/2018	10:46	-133.268	43.013	0	152.50	0	8.0180	0	33.5170	8	26.109	0	151.234	0	225.0	4	77.6	4	-1E+10	1	-1E+10	1	-1E+10	1	-1E+10	1	-1E+10	1	-1E+10	1
4901784	125	C	12/06/2018	10:46	-133.268	43.013	0	155.50	0	7.9410	0	33.5490	8	26.146	0	154.208	0	221.9	4	76.4	4	-1E+10	1	-1E+10	1	-1E+10	1	-1E+10	1	-1E+10	1	-1E+10	1
4901784	125	C	12/06/2018	10:46	-133.268	43.013	0	157.70	0	7.9420	0	33.5860	8	26.174	0	156.389	0	218.2	4	75.2	4	-1E+10	1	-1E+10	1	-1E+10	1	-1E+10	1	-1E+10	1	-1E+10	1
4901784	125	C	12/06/2018	10:46	-133.268	43.013	0	160.10	0	7.9880	0	33.6430	8	26.213	0	158.768	0	213.4	4	73.6	4	-1E+10	1	-1E+10	1	-1E+10	1	-1E+10	1	-1E+10	1	-1E+10	1
4901784	125	C	12/06/2018	10:46	-133.268	43.013	0	162.60	0	8.0230	0	33.6860	8	26.241	0	161.246	0	208.3	4	72.0	4	-1E+10	1	-1E+10	1	-1E+10	1	-1E+10	1	-1E+10	1	-1E+10	1
4901784	125	C	12/06/2018	10:46	-133.268	43.013	0	165.10	0	8.1170	0	33.7760	8	26.298	0	163.724	0	202.5	4	70.1	4	-1E+10	1	-1E+10	1	-1E+10	1	-1E+10	1	-1E+10	1	-1E+10	1
4901784	125	C	12/06/2018	10:46	-133.268	43.013	0	167.60	0	8.1730	0	33.8400	8	26.340	0	166.203	0	198.5	4	68.9	4	-1E+10	1	-1E+10	1	-1E+10	1	-1E+10	1	-1E+10	1	-1E+10	1
4901784	125	C	12/06/2018	10:46	-133.268	43.013	0	170.10	0	8.2030	0	33.8730	8	26.361	0	168.681	0	194.5	4	67.5	4	-1E+10	1	-1E+10	1	-1E+10	1	-1E+10	1	-1E+10	1	-1E+10	1
4901784	125	C	12/06/2018	10:46	-133.268	43.013	0	172.60	0	8.2600	0	33.9260	8	26.394	0	171.159	0	190.3	4	66.2	4	-1E+10	1	-1E+10	1	-1E+10	1	-1E+10	1	-1E+10	1	-1E+10	1
4901784	125	C	12/06/2018	10:46	-133.268	43.013	0	175.20	0	8.2930	0	33.9650	8	26.420	0	173.736	0	186.8	4	65.0	4	-1E+10	1	-1E+10	1	-1E+10	1	-1E+10	1	-1E+10	1	-1E+10	1
4901784	125	C	12/06/2018	10:46	-133.268	43.013	0	177.80	0	8.3280	0	34.0160	8	26.455	0	176.313	0	184.0	4	64.1	4	-1E+10	1	-1E+10	1	-1E+10	1	-1E+10	1	-1E+10	1	-1E+10	1
4901784	125	C	12/06/2018	10:46	-133.268	43.013	0	179.60	0	8.3340	0	34.0420	8	26.474	0	178.097	0	182.9	4	63.8	4	-1E+10	1	-1E+10	1	-1E+10	1	-1E+10	1	-1E+10	1	-1E+10	1
4901784	125	C	12/06/2018	10:46	-133.268	43.013	0	182.20	0	8.3310	0	34.0630	8	26.491	0	180.674	0	181.4	4	63.3	4	-1E+10	1	-1E+10	1	-1E+10	1	-1E+10	1	-1E+10	1	-1E+10	1
4901784	125	C	12/06/2018	10:46	-133.268	43.013	0	184.90	0	8.3330	0	34.0980	8	26.519	0	183.351	0	179.2	4	62.5	4	-1E+10	1	-1E+10	1	-1E+10	1	-1E+10	1	-1E+10	1	-1E+10	1
4901784	125	C	12/06/2018	10:46	-133.268	43.013	0	187.60	0	8.3410	0	34.1270	8	26.540	0	186.027	0	176.8	4	61.7	4	-1E+10	1	-1E+10	1	-1E+10	1	-1E+10	1	-1E+10	1	-1E+10	1
4901784	125	C	12/06/2018	10:46	-133.268	43.013	0	190.30	0	8.3470	0	34.1680	8	26.572	0	188.703	0	174.7	4	61.0	4	-1E+10	1	-1E+10	1	-1E+10	1	-1E+10	1	-1E+10	1	-1E+10	1
4901784	125	C	12/06/2018	10:46	-133.268	43.013	0	192.20	0	8.3490	0	34.1850	8	26.585	0	190.586	0	173.4	4	60.6	4	-1E+10	1	-1E+10	1	-1E+10	1	-1E+10	1	-1E+10	1	-1E+10	1
4901784	125	C	12/06/2018	10:46	-133.268	43.013	0	194.90	0	8.3460	0	34.2040	8	26.600	0	193.262	0	172.8	4	60.3	4	-1E+10	1	-1E+10	1	-1E+10	1	-1E+10	1	-1E+10	1	-1E+10	1
4901784	125	C	12/06/2018	10:46	-133.268	43.013	0	197.70	0	8.3390	0	34.2320	8	26.623	0	196.037	0	171.4	4	59.9	4	-1E+10	1	-1E+10	1	-1E+10	1	-1E+10	1	-1E+10	1	-1E+10	1
4901784	125	C	12/06/2018	10:46	-133.268	43.013	0	199.60	0	8.3310	0	34.2410	8	26.631	0	197.920	0	170.1	4	59.4	4	-1E+10	1	-1E+10	1	-1E+10	1	-1E+10	1	-1E+10	1	-1E+10	1
4901784	125	C	12/06/2018	10:46	-133.268	43.013	0	202.40	0	8.3230	0	34.2490	8	26.639	0	200.695	0	168.7	4	58.9	4	-1E+10	1	-1E+10	1	-1E+10	1	-1E+10	1	-1E+10	1	-1E+10	1
4901784	125	C	12/06/2018	10:46	-133.268	43.013	0	205.30	0	8.3010	0	34.2570	8	26.649	0	203.570	0	167.2	4	58.3	4	-1E+10	1	-1E+10	1	-1E+10	1	-1E+10	1	-1E+10	1	-1E+10	1
4901784	125	C	12/06/2018	10:46	-133.268	43.013	0	207.30	0	8.2900	0	34.2600	8	26.653	0	205.552	0	166.7	4	58.2	4	-1E+10	1	-1E+10	1	-1E+10	1	-1E+10	1	-1E+10	1	-1E+10	1
4901784	125	C	12/06/2018	10:46	-133.268	43.013	0	210.20	0	8.2520	0	34.2830	8	26.676	0	208.426	0	165.6	4	57.7	4	-1E+10	1	-1E+10	1	-1E+10	1	-1E+10	1	-1E+10	1	-1E+10	1
4901784	125	C	12/06/2018	10:46	-133.268	43.013	0	213.10	0	8.2340	0	34.2840	8	26.680	0	211.300	0	164.3	4	57.3	4	-1E+10	1	-1E+10	1	-1E+10	1	-1E+10	1	-1E+10	1	-1E+10	1
4901784	125	C	12/06/2018	10:46	-133.268	43.013	0	215.00	0	8.2210	0	34.2870	8	26.684	0	213.183	0	163.4	4	56.9	4	-1E+10	1	-1E+10	1	-1E+10	1	-1E+10	1	-1E+10	1	-1E+10	1
4901784	125	C	12/06/2018	10:46	-133.268	43.013	0	216.90	0	8.2070	0	34.2860	8	26.686	0	215.066	0	162.4	4	56.6	4	-1E+10	1	-1E+10	1	-1E+10	1	-1E+10	1	-1E+10	1	-1E+10	1
4901784	125	C	12/06/2018	10:46	-133.268	43.013	0	219.80	0	8.1550	0	34.2930	8	26.699	0	217.940	0	160.5	4	55.8	4	-1E+10	1	-1E+10	1	-1E+10	1	-1E+10	1	-1E+10	1	-1E+10	1
4901784	125	C	12/06/2018	10:46	-133.268	43.013	0	222.80	0	8.0960	0	34.2960	8	26.710	0	220.913	0	158.6	4	55.1	4	-1E+10	1	-1E+10	1	-1E+10	1	-1E+10	1	-1E+10	1	-1E+10	1
4901784	125	C	12/06/2018	10:46	-133.268	43.013	0	224.70	0	8.0290	0	34.3010	8	26.724	0	222.796	0	157.7	4	54.7	4	-1E+10	1	-1E+10	1	-1E+10	1	-1E+10	1	-1E+10	1	-1E+10	1
4901784	125	C	12/06/2018	10:46	-133.268	43.013	0	227.60	0	7.9890	0	34.3020	8	26.731	0	225.669	0	157.0	4	54.4	4	-1E+10	1	-1E+10	1	-1E+10	1	-1E+10	1	-1E+10	1	-1E+10	1
4901784	125	C	12/06/2018	10:46	-133.268	43.013	0	230.60	0	7.9670	0	34.3010	8	26.733	0	228.642	0	156.4	4	54.2	4	-1E+10	1	-1E+10	1	-1E+10	1	-1E+10	1	-1E+10	1	-1E+10	1
4901784	125	C	12/06/2018	10:46	-133.268	43.013	0	232.60	0	7.9610	0	34.3030	8	26.736	0	230.624	0	155.9	4	54.0	4	-1E+10	1	-1E+10	1	-1E+10	1	-1E+10	1	-1E+10	1	-1E+10	1
4901784	125	C	12/06/2018	10:46	-133.268	43.013	0	234.60	0	7.9410	0	34.3040	8	26.740	0	232.606	0	155.4	4	53.8	4	-1E+10	1	-1E+10	1	-1E+10	1	-1E+10	1	-1E+10	1	-1E+10	1
4901784	125	C	12/06/2018	10:46	-133.268	43.013	0	237.60	0	7.9110	0	34.3040	8	26.744	0	235.579	0	154.3	4	53.4	4	-1E+10	1	-1E+10	1	-1E+10	1	-1E+10	1	-1E+10	1	-1E+10	1
4901784	125	C	12/06/2018	10:46	-133.268	43.013	0	240.50	0	7.8960	0	34.3010	8	26.744	0	238.453	0	153.0	4	52.9	4	-1E+10	1	-1E+10	1	-1E+10	1	-1E+10	1	-1E+10	1	-1E+10	1
4901784	125	C	12/06/2018	10:46	-133.268	43.013	0	242.60	0	7.8740	0	34.3000	8	26.747	0	240.534	0	152.0	4	52.6	4	-1E+10	1	-1E+10	1	-1E+10	1	-1E+10	1	-1E+10	1	-1E+10	1
4901784	125	C	12/06/2018	10:46	-133.268	43.013	0	244.50	0	7.8180	0	34.3070	8	26.760	0	242.416	0	150.9	4	52.1	4	-1E+10	1	-1E+10	1	-1E+10	1	-1E+10	1	-1E+10	1	-1E+10	1
4901784	125	C	12/06/2018	10:46	-133.268	43.013	0	247.50	0	7.7400	0	34.3050	8	26.770	0	245.389	0	150.0	4	51.7	4	-1E+10	1	-1E+10	1	-1E+10	1	-1E+10	1	-1E+10	1	-1E+10	1
4901784	125	C	12/06/2018	10:46	-133.268	43.013	0	250.30	0	7.7110	0	34.3050	8	26.774	0	248.163	0	149.2	4	51.4	4	-1E+10	1	-1E+10	1	-1E+10	1	-1E+10	1	-1E+10	1	-1E+10	1
4901784	125	C	12/06/2018	10:46	-133.268	43.013	0	252.30	0	7.6960	0	34.3030	8	26.775	0	250.145	0	148.8	4	51.2	4	-1E+10	1	-1E+10	1	-1E+10	1	-1E+10	1	-1E+10	1	-1E+10	1
4901784	125	C	12/06/2018	10:46	-133.268	43.013	0	255.20	0	7.6640	0	34.3040	8	26.780	0	253.019	0	148.0	4	50.9	4	-1E+10	1	-1E+10	1	-1E+10	1	-1E+10	1	-1E+10	1	-1E+10	1
4901784	125	C	12/06/2018	10:46	-133.268	43.013	0	258.30	0	7.6560	0	34.3030	8	26.781	0	256.090	0	147.0	4	50.6	4	-1E+10	1	-1E+10	1	-1E+10	1	-1E+10	1	-1E+10	1	-1E+10	1
4901784	125	C	12/06/2018	10:46	-133.268	43.013	0	260.20	0	7.6320	0	34.3030	8	26.784	0	257.973	0	146.2	4	50.3	4	-1E+10	1	-1E+10	1	-1E+10	1	-1E+10	1	-1E+10	1	-1E+10	1
4901784	125	C	12/06/2018	10:46	-133.268	43.013	0	262.80	0	7.5850	0	34.3030	8	26.791	0	260.549	0	145.2	4	49.9	4	-1E+10	1	-1E+10	1	-1E+10	1	-1E+10	1	-1E+10	1	-1E+10	1
4901784	125	C	12/06/2018	10:46	-133.268	43.013	0	264.70	0	7.5360	0	34.3090	8	26.803	0	262.431	0	144.2	4	49.5	4	-1E+10	1	-1E+10	1	-1E+10	1	-1E+10	1	-1E+10	1	-1E+10	1
4901784	125	C	12/06/2018	10:46	-133.268	43.013	0	267.10	0	7.4870	0	34.3040	8	26.806	0	264.809	0	143.5	4	49.2	4	-1E+10	1	-1E+10	1	-1E+10	1	-1E+10	1	-1E+10	1	-1E+10	1
4901784	125	C	12/06/2018	10:46	-133.268	43.013	0	270.30	0	7.4730	0	34.3020	8	26.806	0	267.980	0	142.4	4	48.8	4	-1E+10	1	-1E+10	1	-1E+10	1	-1E+10	1	-1E+10	1	-1E+10	1
4901784	125	C	12/06/2018	10:46	-133.268	43.013	0	272.80	0	7.4390	0	34.3020	8	26.811	0	270.457	0	141.3	4	48.4	4	-1E+10	1	-1E+10	1	-1E+10	1	-1E+10	1	-1E+10	1	-1E+10	1
4901784	125	C	12/06/2018	10:46	-133.268	43.013	0	275.20	0	7.4120	0	34.3010	8	26.814	0	272.834	0	140.3	4	48.0	4	-1E+10	1	-1E+10	1	-1E+10	1	-1E+10	1	-1E+10	1	-1E+10	1
4901784	125	C	12/06/2018	10:46	-133.268	43.013	0	277.70	0	7.3800	0	34.3000	8	26.818	0	275.311	0	139.3	4	47.6	4	-1E+10	1	-1E+10	1	-1E+10	1	-1E+10	1	-1E+10	1	-1E+10	1
4901784	125	C	12/06/2018	10:46	-133.268	43.013	0	280.30	0	7.3440	0	34.3000	8	26.823	0	277.887	0	137.8	4	47.1	4	-1E+10	1	-1E+10	1	-1E+10	1	-1E+10	1	-1E+10	1	-1E+10	1
4901784	125	C	12/06/2018	10:46	-133.268	43.013	0	282.90	0	7.2500	0	34.3010	8	26.837	0	280.463	0	136.5	4	46.5	4	-1E+10	1	-1E+10	1	-1E+10	1	-1E+10	1	-1E+10	1	-1E+10	1
4901784	125	C	12/06/2018	10:46	-133.268	43.013	0	284.70	0	7.2280	0	34.3010	8	26.840	0	282.246	0	136.0	4	46.3	4	-1E+10	1	-1E+10	1	-1E+10	1	-1E+10	1	-1E+10	1	-1E+10	1
4901784	125	C	12/06/2018	10:46	-133.268	43.013	0	287.40	0	7.2050	0	34.3000	8	26.843	0	284.921	0	135.0	4	46.0	4	-1E+10	1	-1E+10	1	-1E+10	1	-1E+10	1	-1E+10	1	-1E+10	1
4901784	125	C	12/06/2018	10:46	-133.268	43.013	0	290.00	0	7.1190	0	34.3010	8	26.856	0	287.497	0	134.0	4	45.6	4	-1E+10	1	-1E+10	1	-1E+10	1	-1E+10	1	-1E+10	1	-1E+10	1
4901784	125	C	12/06/2018	10:46	-133.268	43.013	0	292.60	0	7.0760	0	34.3000	8	26.861	0	290.073	0	133.1	4	45.2	4	-1E+10	1	-1E+10	1	-1E+10	1	-1E+10	1	-1E+10	1	-1E+10	1
4901784	125	C	12/06/2018	10:46	-133.268	43.013	0	295.30	0	7.0250	0	34.3010	8	26.869	0	292.747	0	132.5	4	44.9	4	-1E+10	1	-1E+10	1	-1E+10	1	-1E+10	1	-1E+10	1	-1E+10	1
4901784	125	C	12/06/2018	10:46	-133.268	43.013	0	297.00	0	7.0230	0	34.3010	8	26.869	0	294.431	0	132.2	4	44.9	4	-1E+10	1	-1E+10	1	-1E+10	1	-1E+10	1	-1E+10	1	-1E+10	1
4901784	125	C	12/06/2018	10:46	-133.268	43.013	0	299.70	0	7.0180	0	34.3000	8	26.869	0	297.106	0	131.6	4	44.6	4	-1E+10	1	-1E+10	1	-1E+10	1	-1E+10	1	-1E+10	1	-1E+10	1
4901784	125	C	12/06/2018	10:46	-133.268	43.013	0	302.30	0	7.0030	0	34.2990	8	26.870	0	299.682	0	131.0	4	44.4	4	-1E+10	1	-1E+10	1	-1E+10	1	-1E+10	1	-1E+10	1	-1E+10	1
4901784	125	C	12/06/2018	10:46	-133.268	43.013	0	304.90	0	6.9470	0	34.3010	8	26.880	0	302.257	0	130.2	4	44.1	4	-1E+10	1	-1E+10	1	-1E+10	1	-1E+10	1	-1E+10	1	-1E+10	1
4901784	125	C	12/06/2018	10:46	-133.268	43.013	0	307.60	0	6.8990	0	34.2990	8	26.885	0	304.932	0	129.9	4	43.9	4	-1E+10	1	-1E+10	1	-1E+10	1	-1E+10	1	-1E+10	1	-1E+10	1
4901784	125	C	12/06/2018	10:46	-133.268	43.013	0	310.30	0	6.8820	0	34.2990	8	26.887	0	307.607	0	129.3	4	43.7	4	-1E+10	1	-1E+10	1	-1E+10	1	-1E+10	1	-1E+10	1	-1E+10	1
4901784	125	C	12/06/2018	10:46	-133.268	43.013	0	312.90	0	6.8610	0	34.2980	8	26.889	0	310.182	0	128.7	4	43.5	4	-1E+10	1	-1E+10	1	-1E+10	1	-1E+10	1	-1E+10	1	-1E+10	1
4901784	125	C	12/06/2018	10:46	-133.268	43.013	0	314.70	0	6.8580	0	34.2970	8	26.889	0	311.965	0	128.2	4	43.3	4	-1E+10	1	-1E+10	1	-1E+10	1	-1E+10	1	-1E+10	1	-1E+10	1
4901784	125	C	12/06/2018	10:46	-133.268	43.013	0	317.40	0	6.8040	0	34.2980	8	26.897	0	314.640	0	127.6	4	43.1	4	-1E+10	1	-1E+10	1	-1E+10	1	-1E+10	1	-1E+10	1	-1E+10	1
4901784	125	C	12/06/2018	10:46	-133.268	43.013	0	320.00	0	6.7860	0	34.2970	8	26.898	0	317.215	0	126.9	4	42.8	4	-1E+10	1	-1E+10	1	-1E+10	1	-1E+10	1	-1E+10	1	-1E+10	1
4901784	125	C	12/06/2018	10:46	-133.268	43.013	0	322.70	0	6.7450	0	34.2980	8	26.905	0	319.889	0	126.2	4	42.5	4	-1E+10	1	-1E+10	1	-1E+10	1	-1E+10	1	-1E+10	1	-1E+10	1
4901784	125	C	12/06/2018	10:46	-133.268	43.013	0	325.40	0	6.7210	0	34.2950	8	26.906	0	322.564	0	125.7	4	42.4	4	-1E+10	1	-1E+10	1	-1E+10	1	-1E+10	1	-1E+10	1	-1E+10	1
4901784	125	C	12/06/2018	10:46	-133.268	43.013	0	327.20	0	6.6790	0	34.2960	8	26.912	0	324.347	0	125.3	4	42.2	4	-1E+10	1	-1E+10	1	-1E+10	1	-1E+10	1	-1E+10	1	-1E+10	1
4901784	125	C	12/06/2018	10:46	-133.268	43.013	0	329.90	0	6.6480	0	34.2950	8	26.915	0	327.021	0	124.6	4	41.9	4	-1E+10	1	-1E+10	1	-1E+10	1	-1E+10	1	-1E+10	1	-1E+10	1
4901784	125	C	12/06/2018	10:46	-133.268	43.013	0	332.60	0	6.6130	0	34.2930	8	26.919	0	329.695	0	123.6	4	41.5	4	-1E+10	1	-1E+10	1	-1E+10	1	-1E+10	1	-1E+10	1	-1E+10	1
4901784	125	C	12/06/2018	10:46	-133.268	43.013	0	335.10	0	6.5830	0	34.2940	8	26.923	0	332.171	0	122.2	4	41.0	4	-1E+10	1	-1E+10	1	-1E+10	1	-1E+10	1	-1E+10	1	-1E+10	1
4901784	125	C	12/06/2018	10:46	-133.268	43.013	0	337.80	0	6.5480	0	34.2910	8	26.926	0	334.846	0	121.0	4	40.6	4	-1E+10	1	-1E+10	1	-1E+10	1	-1E+10	1	-1E+10	1	-1E+10	1
4901784	125	C	12/06/2018	10:46	-133.268	43.013	0	339.70	0	6.5120	0	34.2910	8	26.930	0	336.728	0	119.8	4	40.2	4	-1E+10	1	-1E+10	1	-1E+10	1	-1E+10	1	-1E+10	1	-1E+10	1
4901784	125	C	12/06/2018	10:46	-133.268	43.013	0	342.60	0	6.4540	0	34.2940	8	26.940	0	339.600	0	118.3	4	39.6	4	-1E+10	1	-1E+10	1	-1E+10	1	-1E+10	1	-1E+10	1	-1E+10	1
4901784	125	C	12/06/2018	10:46	-133.268	43.013	0	345.30	0	6.4380	0	34.2920	8	26.941	0	342.274	0	117.0	4	39.2	4	-1E+10	1	-1E+10	1	-1E+10	1	-1E+10	1	-1E+10	1	-1E+10	1
4901784	125	C	12/06/2018	10:46	-133.268	43.013	0	347.20	0	6.4230	0	34.2900	8	26.941	0	344.156	0	115.7	4	38.7	4	-1E+10	1	-1E+10	1	-1E+10	1	-1E+10	1	-1E+10	1	-1E+10	1
4901784	125	C	12/06/2018	10:46	-133.268	43.013	0	349.90	0	6.3700	0	34.2910	8	26.949	0	346.830	0	114.4	4	38.2	4	-1E+10	1	-1E+10	1	-1E+10	1	-1E+10	1	-1E+10	1	-1E+10	1
4901784	125	C	12/06/2018	10:46	-133.268	43.013	0	352.60	0	6.3300	0	34.2880	8	26.952	0	349.504	0	112.8	4	37.7	4	-1E+10	1	-1E+10	1	-1E+10	1	-1E+10	1	-1E+10	1	-1E+10	1
4901784	125	C	12/06/2018	10:46	-133.268	43.013	0	354.40	0	6.2260	0	34.2920	8	26.969	0	351.286	0	112.1	4	37.3	4	-1E+10	1	-1E+10	1	-1E+10	1	-1E+10	1	-1E+10	1	-1E+10	1
4901784	125	C	12/06/2018	10:46	-133.268	43.013	0	357.20	0	6.1760	0	34.2840	8	26.969	0	354.059	0	110.8	4	36.9	4	-1E+10	1	-1E+10	1	-1E+10	1	-1E+10	1	-1E+10	1	-1E+10	1
4901784	125	C	12/06/2018	10:46	-133.268	43.013	0	360.10	0	6.1130	0	34.2830	8	26.976	0	356.931	0	109.0	4	36.2	4	-1E+10	1	-1E+10	1	-1E+10	1	-1E+10	1	-1E+10	1	-1E+10	1
4901784	125	C	12/06/2018	10:46	-133.268	43.013	0	361.90	0	6.0800	0	34.2810	8	26.979	0	358.714	0	107.7	4	35.8	4	-1E+10	1	-1E+10	1	-1E+10	1	-1E+10	1	-1E+10	1	-1E+10	1
4901784	125	C	12/06/2018	10:46	-133.268	43.013	0	364.80	0	5.9930	0	34.2830	8	26.991	0	361.586	0	106.3	4	35.2	4	-1E+10	1	-1E+10	1	-1E+10	1	-1E+10	1	-1E+10	1	-1E+10	1
4901784	125	C	12/06/2018	10:46	-133.268	43.013	0	367.70	0	5.9430	0	34.2820	8	26.997	0	364.458	0	105.4	4	34.9	4	-1E+10	1	-1E+10	1	-1E+10	1	-1E+10	1	-1E+10	1	-1E+10	1
4901784	125	C	12/06/2018	10:46	-133.268	43.013	0	369.60	0	5.8970	0	34.2790	8	27.000	0	366.339	0	104.9	4	34.7	4	-1E+10	1	-1E+10	1	-1E+10	1	-1E+10	1	-1E+10	1	-1E+10	1
4901784	125	C	12/06/2018	10:46	-133.268	43.013	0	372.50	0	5.8460	0	34.2770	8	27.005	0	369.211	0	104.1	4	34.4	4	-1E+10	1	-1E+10	1	-1E+10	1	-1E+10	1	-1E+10	1	-1E+10	1
4901784	125	C	12/06/2018	10:46	-133.268	43.013	0	375.40	0	5.7780	0	34.2780	8	27.014	0	372.083	0	103.4	4	34.1	4	-1E+10	1	-1E+10	1	-1E+10	1	-1E+10	1	-1E+10	1	-1E+10	1
4901784	125	C	12/06/2018	10:46	-133.268	43.013	0	377.30	0	5.7610	0	34.2770	8	27.015	0	373.965	0	102.9	4	33.9	4	-1E+10	1	-1E+10	1	-1E+10	1	-1E+10	1	-1E+10	1	-1E+10	1
4901784	125	C	12/06/2018	10:46	-133.268	43.013	0	379.30	0	5.7360	0	34.2750	8	27.017	0	375.945	0	102.5	4	33.7	4	-1E+10	1	-1E+10	1	-1E+10	1	-1E+10	1	-1E+10	1	-1E+10	1
4901784	125	C	12/06/2018	10:46	-133.268	43.013	0	382.40	0	5.6770	0	34.2760	8	27.025	0	379.015	0	101.6	4	33.4	4	-1E+10	1	-1E+10	1	-1E+10	1	-1E+10	1	-1E+10	1	-1E+10	1
4901784	125	C	12/06/2018	10:46	-133.268	43.013	0	385.30	0	5.6320	0	34.2770	8	27.031	0	381.887	0	100.9	4	33.1	4	-1E+10	1	-1E+10	1	-1E+10	1	-1E+10	1	-1E+10	1	-1E+10	1
4901784	125	C	12/06/2018	10:46	-133.268	43.013	0	387.80	0	5.6240	0	34.2770	8	27.032	0	384.362	0	100.4	4	33.0	4	-1E+10	1	-1E+10	1	-1E+10	1	-1E+10	1	-1E+10	1	-1E+10	1
4901784	125	C	12/06/2018	10:46	-133.268	43.013	0	390.30	0	5.6100	0	34.2770	8	27.034	0	386.838	0	99.9	4	32.8	4	-1E+10	1	-1E+10	1	-1E+10	1	-1E+10	1	-1E+10	1	-1E+10	1
4901784	125	C	12/06/2018	10:46	-133.268	43.013	0	392.70	0	5.5990	0	34.2760	8	27.034	0	389.214	0	99.3	4	32.6	4	-1E+10	1	-1E+10	1	-1E+10	1	-1E+10	1	-1E+10	1	-1E+10	1
4901784	125	C	12/06/2018	10:46	-133.268	43.013	0	395.10	0	5.5690	0	34.2760	8	27.038	0	391.590	0	98.6	4	32.3	4	-1E+10	1	-1E+10	1	-1E+10	1	-1E+10	1	-1E+10	1	-1E+10	1
4901784	125	C	12/06/2018	10:46	-133.268	43.013	0	397.60	0	5.5450	0	34.2770	8	27.042	0	394.066	0	98.1	4	32.2	4	-1E+10	1	-1E+10	1	-1E+10	1	-1E+10	1	-1E+10	1	-1E+10	1
4901784	125	C	12/06/2018	10:46	-133.268	43.013	0	400.10	0	5.5300	0	34.2770	8	27.044	0	396.541	0	97.6	4	32.0	4	-1E+10	1	-1E+10	1	-1E+10	1	-1E+10	1	-1E+10	1	-1E+10	1
4901784	125	C	12/06/2018	10:46	-133.268	43.013	0	402.50	0	5.5080	0	34.2770	8	27.046	0	398.918	0	96.9	4	31.7	4	-1E+10	1	-1E+10	1	-1E+10	1	-1E+10	1	-1E+10	1	-1E+10	1
4901784	125	C	12/06/2018	10:46	-133.268	43.013	0	405.00	0	5.4700	0	34.2800	8	27.053	0	401.393	0	96.2	4	31.5	4	-1E+10	1	-1E+10	1	-1E+10	1	-1E+10	1	-1E+10	1	-1E+10	1
4901784	125	C	12/06/2018	10:46	-133.268	43.013	0	407.60	0	5.4560	0	34.2830	8	27.057	0	403.967	0	96.0	4	31.4	4	-1E+10	1	-1E+10	1	-1E+10	1	-1E+10	1	-1E+10	1	-1E+10	1
4901784	125	C	12/06/2018	10:46	-133.268	43.013	0	410.10	0	5.4530	0	34.2830	8	27.058	0	406.443	0	95.7	4	31.3	4	-1E+10	1	-1E+10	1	-1E+10	1	-1E+10	1	-1E+10	1	-1E+10	1
4901784	125	C	12/06/2018	10:46	-133.268	43.013	0	412.60	0	5.4500	0	34.2840	8	27.059	0	408.918	0	95.3	4	31.2	4	-1E+10	1	-1E+10	1	-1E+10	1	-1E+10	1	-1E+10	1	-1E+10	1
4901784	125	C	12/06/2018	10:46	-133.268	43.013	0	415.30	0	5.4460	0	34.2840	8	27.059	0	411.591	0	95.0	4	31.1	4	-1E+10	1	-1E+10	1	-1E+10	1	-1E+10	1	-1E+10	1	-1E+10	1
4901784	125	C	12/06/2018	10:46	-133.268	43.013	0	417.90	0	5.4450	0	34.2850	8	27.060	0	414.165	0	94.4	4	30.9	4	-1E+10	1	-1E+10	1	-1E+10	1	-1E+10	1	-1E+10	1	-1E+10	1
4901784	125	C	12/06/2018	10:46	-133.268	43.013	0	420.40	0	5.4420	0	34.2870	8	27.062	0	416.640	0	93.7	4	30.7	4	-1E+10	1	-1E+10	1	-1E+10	1	-1E+10	1	-1E+10	1	-1E+10	1
4901784	125	C	12/06/2018	10:46	-133.268	43.013	0	422.20	0	5.4340	0	34.2900	8	27.066	0	418.422	0	93.2	4	30.5	4	-1E+10	1	-1E+10	1	-1E+10	1	-1E+10	1	-1E+10	1	-1E+10	1
4901784	125	C	12/06/2018	10:46	-133.268	43.013	0	424.80	0	5.4170	0	34.2930	8	27.070	0	420.997	0	92.3	4	30.2	4	-1E+10	1	-1E+10	1	-1E+10	1	-1E+10	1	-1E+10	1	-1E+10	1
4901784	125	C	12/06/2018	10:46	-133.268	43.013	0	427.40	0	5.3860	0	34.2940	8	27.075	0	423.571	0	91.3	4	29.8	4	-1E+10	1	-1E+10	1	-1E+10	1	-1E+10	1	-1E+10	1	-1E+10	1
4901784	125	C	12/06/2018	10:46	-133.268	43.013	0	429.90	0	5.3460	0	34.2950	8	27.080	0	426.046	0	90.5	4	29.5	4	-1E+10	1	-1E+10	1	-1E+10	1	-1E+10	1	-1E+10	1	-1E+10	1
4901784	125	C	12/06/2018	10:46	-133.268	43.013	0	432.60	0	5.3010	0	34.2960	8	27.086	0	428.719	0	89.6	4	29.2	4	-1E+10	1	-1E+10	1	-1E+10	1	-1E+10	1	-1E+10	1	-1E+10	1
4901784	125	C	12/06/2018	10:46	-133.268	43.013	0	435.20	0	5.2910	0	34.2960	8	27.087	0	431.293	0	88.8	4	28.9	4	-1E+10	1	-1E+10	1	-1E+10	1	-1E+10	1	-1E+10	1	-1E+10	1
4901784	125	C	12/06/2018	10:46	-133.268	43.013	0	437.80	0	5.2510	0	34.2960	8	27.092	0	433.867	0	87.8	4	28.6	4	-1E+10	1	-1E+10	1	-1E+10	1	-1E+10	1	-1E+10	1	-1E+10	1
4901784	125	C	12/06/2018	10:46	-133.268	43.013	0	440.30	0	5.2260	0	34.2970	8	27.096	0	436.341	0	87.0	4	28.3	4	-1E+10	1	-1E+10	1	-1E+10	1	-1E+10	1	-1E+10	1	-1E+10	1
4901784	125	C	12/06/2018	10:46	-133.268	43.013	0	442.80	0	5.2070	0	34.2970	8	27.098	0	438.816	0	86.3	4	28.1	4	-1E+10	1	-1E+10	1	-1E+10	1	-1E+10	1	-1E+10	1	-1E+10	1
4901784	125	C	12/06/2018	10:46	-133.268	43.013	0	444.60	0	5.1880	0	34.2980	8	27.101	0	440.598	0	85.7	4	27.9	4	-1E+10	1	-1E+10	1	-1E+10	1	-1E+10	1	-1E+10	1	-1E+10	1
4901784	125	C	12/06/2018	10:46	-133.268	43.013	0	447.20	0	5.1650	0	34.2990	8	27.105	0	443.172	0	84.9	4	27.6	4	-1E+10	1	-1E+10	1	-1E+10	1	-1E+10	1	-1E+10	1	-1E+10	1
4901784	125	C	12/06/2018	10:46	-133.268	43.013	0	449.80	0	5.1410	0	34.3010	8	27.109	0	445.746	0	83.9	4	27.3	4	-1E+10	1	-1E+10	1	-1E+10	1	-1E+10	1	-1E+10	1	-1E+10	1
4901784	125	C	12/06/2018	10:46	-133.268	43.013	0	452.40	0	5.1230	0	34.3010	8	27.111	0	448.320	0	82.9	4	26.9	4	-1E+10	1	-1E+10	1	-1E+10	1	-1E+10	1	-1E+10	1	-1E+10	1
4901784	125	C	12/06/2018	10:46	-133.268	43.013	0	455.00	0	5.1070	0	34.3010	8	27.113	0	450.893	0	81.7	4	26.5	4	-1E+10	1	-1E+10	1	-1E+10	1	-1E+10	1	-1E+10	1	-1E+10	1
4901784	125	C	12/06/2018	10:46	-133.268	43.013	0	457.60	0	5.0680	0	34.3040	8	27.120	0	453.467	0	80.6	4	26.1	4	-1E+10	1	-1E+10	1	-1E+10	1	-1E+10	1	-1E+10	1	-1E+10	1
4901784	125	C	12/06/2018	10:46	-133.268	43.013	0	460.20	0	5.0520	0	34.3060	8	27.123	0	456.041	0	79.8	4	25.8	4	-1E+10	1	-1E+10	1	-1E+10	1	-1E+10	1	-1E+10	1	-1E+10	1
4901784	125	C	12/06/2018	10:46	-133.268	43.013	0	462.80	0	5.0430	0	34.3060	8	27.124	0	458.614	0	78.8	4	25.5	4	-1E+10	1	-1E+10	1	-1E+10	1	-1E+10	1	-1E+10	1	-1E+10	1
4901784	125	C	12/06/2018	10:46	-133.268	43.013	0	465.40	0	5.0320	0	34.3070	8	27.127	0	461.188	0	77.5	4	25.1	4	-1E+10	1	-1E+10	1	-1E+10	1	-1E+10	1	-1E+10	1	-1E+10	1
4901784	125	C	12/06/2018	10:46	-133.268	43.013	0	467.10	0	5.0040	0	34.3090	8	27.131	0	462.871	0	76.6	4	24.8	4	-1E+10	1	-1E+10	1	-1E+10	1	-1E+10	1	-1E+10	1	-1E+10	1
4901784	125	C	12/06/2018	10:46	-133.268	43.013	0	469.70	0	4.9880	0	34.3100	8	27.134	0	465.444	0	75.0	4	24.3	4	-1E+10	1	-1E+10	1	-1E+10	1	-1E+10	1	-1E+10	1	-1E+10	1
4901784	125	C	12/06/2018	10:46	-133.268	43.013	0	472.30	0	4.9610	0	34.3140	8	27.140	0	468.018	0	73.5	4	23.8	4	-1E+10	1	-1E+10	1	-1E+10	1	-1E+10	1	-1E+10	1	-1E+10	1
4901784	125	C	12/06/2018	10:46	-133.268	43.013	0	474.90	0	4.9490	0	34.3160	8	27.143	0	470.591	0	72.1	4	23.3	4	-1E+10	1	-1E+10	1	-1E+10	1	-1E+10	1	-1E+10	1	-1E+10	1
4901784	125	C	12/06/2018	10:46	-133.268	43.013	0	477.60	0	4.9400	0	34.3170	8	27.145	0	473.264	0	70.4	4	22.8	4	-1E+10	1	-1E+10	1	-1E+10	1	-1E+10	1	-1E+10	1	-1E+10	1
4901784	125	C	12/06/2018	10:46	-133.268	43.013	0	480.20	0	4.9340	0	34.3200	8	27.148	0	475.837	0	68.4	4	22.1	4	-1E+10	1	-1E+10	1	-1E+10	1	-1E+10	1	-1E+10	1	-1E+10	1
4901784	125	C	12/06/2018	10:46	-133.268	43.013	0	482.80	0	4.9190	0	34.3240	8	27.153	0	478.410	0	66.8	4	21.6	4	-1E+10	1	-1E+10	1	-1E+10	1	-1E+10	1	-1E+10	1	-1E+10	1
4901784	125	C	12/06/2018	10:46	-133.268	43.013	0	484.60	0	4.9150	0	34.3250	8	27.154	0	480.192	0	65.8	4	21.3	4	-1E+10	1	-1E+10	1	-1E+10	1	-1E+10	1	-1E+10	1	-1E+10	1
4901784	125	C	12/06/2018	10:46	-133.268	43.013	0	487.20	0	4.9040	0	34.3270	8	27.157	0	482.765	0	63.8	4	20.6	4	-1E+10	1	-1E+10	1	-1E+10	1	-1E+10	1	-1E+10	1	-1E+10	1
4901784	125	C	12/06/2018	10:46	-133.268	43.013	0	489.80	0	4.8900	0	34.3330	8	27.164	0	485.339	0	61.2	4	19.8	4	-1E+10	1	-1E+10	1	-1E+10	1	-1E+10	1	-1E+10	1	-1E+10	1
4901784	125	C	12/06/2018	10:46	-133.268	43.013	0	492.40	0	4.8830	0	34.3380	8	27.168	0	487.912	0	58.7	4	18.9	4	-1E+10	1	-1E+10	1	-1E+10	1	-1E+10	1	-1E+10	1	-1E+10	1
4901784	125	C	12/06/2018	10:46	-133.268	43.013	0	495.00	0	4.8830	0	34.3440	8	27.173	0	490.485	0	56.2	4	18.1	4	-1E+10	1	-1E+10	1	-1E+10	1	-1E+10	1	-1E+10	1	-1E+10	1
4901784	125	C	12/06/2018	10:46	-133.268	43.013	0	497.70	0	4.8810	0	34.3530	8	27.180	0	493.157	0	54.0	4	17.4	4	-1E+10	1	-1E+10	1	-1E+10	1	-1E+10	1	-1E+10	1	-1E+10	1
4901784	125	C	12/06/2018	10:46	-133.268	43.013	0	500.40	0	4.8790	0	34.3560	8	27.183	0	495.829	0	52.2	8	16.8	8	-1E+10	1	-1E+10	1	-1E+10	1	-1E+10	1	-1E+10	1	-1E+10	1
4901784	125	C	12/06/2018	10:46	-133.268	43.013	0	504.90	0	4.8750	0	34.3690	8	27.194	0	500.283	0	49.3	4	15.9	4	-1E+10	1	-1E+10	1	-1E+10	1	-1E+10	1	-1E+10	1	-1E+10	1
4901784	125	C	12/06/2018	10:46	-133.268	43.013	0	509.50	0	4.8660	0	34.3760	8	27.201	0	504.835	0	47.7	4	15.4	4	-1E+10	1	-1E+10	1	-1E+10	1	-1E+10	1	-1E+10	1	-1E+10	1
4901784	125	C	12/06/2018	10:46	-133.268	43.013	0	514.80	0	4.8450	0	34.3810	8	27.207	0	510.080	0	46.4	4	15.0	4	-1E+10	1	-1E+10	1	-1E+10	1	-1E+10	1	-1E+10	1	-1E+10	1
4901784	125	C	12/06/2018	10:46	-133.268	43.013	0	520.10	0	4.8040	0	34.3850	8	27.215	0	515.325	0	44.6	4	14.4	4	-1E+10	1	-1E+10	1	-1E+10	1	-1E+10	1	-1E+10	1	-1E+10	1
4901784	125	C	12/06/2018	10:46	-133.268	43.013	0	525.50	0	4.7920	0	34.3980	8	27.226	0	520.669	0	42.3	4	13.6	4	-1E+10	1	-1E+10	1	-1E+10	1	-1E+10	1	-1E+10	1	-1E+10	1
4901784	125	C	12/06/2018	10:46	-133.268	43.013	0	530.00	0	4.7850	0	34.3990	8	27.228	0	525.122	0	42.0	4	13.5	4	-1E+10	1	-1E+10	1	-1E+10	1	-1E+10	1	-1E+10	1	-1E+10	1
4901784	125	C	12/06/2018	10:46	-133.268	43.013	0	534.60	0	4.7750	0	34.3990	8	27.229	0	529.673	0	41.6	4	13.4	4	-1E+10	1	-1E+10	1	-1E+10	1	-1E+10	1	-1E+10	1	-1E+10	1
4901784	125	C	12/06/2018	10:46	-133.268	43.013	0	540.10	0	4.7290	0	34.4020	8	27.237	0	535.116	0	41.3	4	13.3	4	-1E+10	1	-1E+10	1	-1E+10	1	-1E+10	1	-1E+10	1	-1E+10	1
4901784	125	C	12/06/2018	10:46	-133.268	43.013	0	545.50	0	4.6500	0	34.4050	8	27.248	0	540.459	0	41.4	4	13.3	4	-1E+10	1	-1E+10	1	-1E+10	1	-1E+10	1	-1E+10	1	-1E+10	1
4901784	125	C	12/06/2018	10:46	-133.268	43.013	0	550.10	0	4.6330	0	34.4050	8	27.250	0	545.010	0	41.3	4	13.2	4	-1E+10	1	-1E+10	1	-1E+10	1	-1E+10	1	-1E+10	1	-1E+10	1
4901784	125	C	12/06/2018	10:46	-133.268	43.013	0	554.60	0	4.6240	0	34.4050	8	27.251	0	549.463	0	40.7	4	13.1	4	-1E+10	1	-1E+10	1	-1E+10	1	-1E+10	1	-1E+10	1	-1E+10	1
4901784	125	C	12/06/2018	10:46	-133.268	43.013	0	560.10	0	4.6130	0	34.4050	8	27.252	0	554.904	0	39.4	4	12.6	4	-1E+10	1	-1E+10	1	-1E+10	1	-1E+10	1	-1E+10	1	-1E+10	1
4901784	125	C	12/06/2018	10:46	-133.268	43.013	0	565.50	0	4.5440	0	34.4140	8	27.267	0	560.247	0	37.7	4	12.1	4	-1E+10	1	-1E+10	1	-1E+10	1	-1E+10	1	-1E+10	1	-1E+10	1
4901784	125	C	12/06/2018	10:46	-133.268	43.013	0	570.10	0	4.5250	0	34.4210	8	27.275	0	564.798	0	36.4	4	11.7	4	-1E+10	1	-1E+10	1	-1E+10	1	-1E+10	1	-1E+10	1	-1E+10	1
4901784	125	C	12/06/2018	10:46	-133.268	43.013	0	574.80	0	4.5140	0	34.4250	8	27.279	0	569.448	0	35.0	4	11.2	4	-1E+10	1	-1E+10	1	-1E+10	1	-1E+10	1	-1E+10	1	-1E+10	1
4901784	125	C	12/06/2018	10:46	-133.268	43.013	0	580.50	0	4.4950	0	34.4330	8	27.287	0	575.087	0	33.1	4	10.6	4	-1E+10	1	-1E+10	1	-1E+10	1	-1E+10	1	-1E+10	1	-1E+10	1
4901784	125	C	12/06/2018	10:46	-133.268	43.013	0	585.10	0	4.4750	0	34.4410	8	27.296	0	579.638	0	32.0	4	10.2	4	-1E+10	1	-1E+10	1	-1E+10	1	-1E+10	1	-1E+10	1	-1E+10	1
4901784	125	C	12/06/2018	10:46	-133.268	43.013	0	589.80	0	4.4680	0	34.4420	8	27.298	0	584.287	0	31.2	4	10.0	4	-1E+10	1	-1E+10	1	-1E+10	1	-1E+10	1	-1E+10	1	-1E+10	1
4901784	125	C	12/06/2018	10:46	-133.268	43.013	0	594.60	0	4.4570	0	34.4460	8	27.302	0	589.036	0	29.8	4	9.5	4	-1E+10	1	-1E+10	1	-1E+10	1	-1E+10	1	-1E+10	1	-1E+10	1
4901784	125	C	12/06/2018	10:46	-133.268	43.013	0	599.40	0	4.4310	0	34.4550	8	27.312	0	593.784	0	28.6	4	9.1	4	-1E+10	1	-1E+10	1	-1E+10	1	-1E+10	1	-1E+10	1	-1E+10	1
4901784	125	C	12/06/2018	10:46	-133.268	43.013	0	604.80	0	4.4200	0	34.4600	8	27.317	0	599.125	0	27.9	4	8.9	4	-1E+10	1	-1E+10	1	-1E+10	1	-1E+10	1	-1E+10	1	-1E+10	1
4901784	125	C	12/06/2018	10:46	-133.268	43.013	0	610.00	0	4.4110	0	34.4630	8	27.321	0	604.269	0	26.9	4	8.6	4	-1E+10	1	-1E+10	1	-1E+10	1	-1E+10	1	-1E+10	1	-1E+10	1
4901784	125	C	12/06/2018	10:46	-133.268	43.013	0	615.80	0	4.3950	0	34.4700	8	27.328	0	610.006	0	25.8	4	8.2	4	-1E+10	1	-1E+10	1	-1E+10	1	-1E+10	1	-1E+10	1	-1E+10	1
4901784	125	C	12/06/2018	10:46	-133.268	43.013	0	620.80	0	4.3780	0	34.4760	8	27.335	0	614.952	0	24.9	4	8.0	4	-1E+10	1	-1E+10	1	-1E+10	1	-1E+10	1	-1E+10	1	-1E+10	1
4901784	125	C	12/06/2018	10:46	-133.268	43.013	0	625.10	0	4.3660	0	34.4800	8	27.339	0	619.205	0	24.4	4	7.8	4	-1E+10	1	-1E+10	1	-1E+10	1	-1E+10	1	-1E+10	1	-1E+10	1
4901784	125	C	12/06/2018	10:46	-133.268	43.013	0	629.40	0	4.3530	0	34.4830	8	27.343	0	623.458	0	24.1	4	7.7	4	-1E+10	1	-1E+10	1	-1E+10	1	-1E+10	1	-1E+10	1	-1E+10	1
4901784	125	C	12/06/2018	10:46	-133.268	43.013	0	634.50	0	4.3490	0	34.4860	8	27.346	0	628.502	0	23.8	4	7.6	4	-1E+10	1	-1E+10	1	-1E+10	1	-1E+10	1	-1E+10	1	-1E+10	1
4901784	125	C	12/06/2018	10:46	-133.268	43.013	0	639.60	0	4.3500	0	34.4860	8	27.346	0	633.546	0	23.4	4	7.5	4	-1E+10	1	-1E+10	1	-1E+10	1	-1E+10	1	-1E+10	1	-1E+10	1
4901784	125	C	12/06/2018	10:46	-133.268	43.013	0	644.90	0	4.3400	0	34.4890	8	27.349	0	638.788	0	22.8	4	7.3	4	-1E+10	1	-1E+10	1	-1E+10	1	-1E+10	1	-1E+10	1	-1E+10	1
4901784	125	C	12/06/2018	10:46	-133.268	43.013	0	650.20	0	4.3170	0	34.4940	8	27.356	0	644.029	0	22.3	4	7.1	4	-1E+10	1	-1E+10	1	-1E+10	1	-1E+10	1	-1E+10	1	-1E+10	1
4901784	125	C	12/06/2018	10:46	-133.268	43.013	0	655.50	0	4.2970	0	34.4960	8	27.359	0	649.271	0	21.8	4	6.9	4	-1E+10	1	-1E+10	1	-1E+10	1	-1E+10	1	-1E+10	1	-1E+10	1
4901784	125	C	12/06/2018	10:46	-133.268	43.013	0	660.10	0	4.2850	0	34.5000	8	27.364	0	653.820	0	21.1	4	6.7	4	-1E+10	1	-1E+10	1	-1E+10	1	-1E+10	1	-1E+10	1	-1E+10	1
4901784	125	C	12/06/2018	10:46	-133.268	43.013	0	664.60	0	4.2730	0	34.5060	8	27.370	0	658.270	0	20.6	4	6.6	4	-1E+10	1	-1E+10	1	-1E+10	1	-1E+10	1	-1E+10	1	-1E+10	1
4901784	125	C	12/06/2018	10:46	-133.268	43.013	0	670.00	0	4.2620	0	34.5100	8	27.374	0	663.610	0	20.0	4	6.4	4	-1E+10	1	-1E+10	1	-1E+10	1	-1E+10	1	-1E+10	1	-1E+10	1
4901784	125	C	12/06/2018	10:46	-133.268	43.013	0	675.60	0	4.2500	0	34.5140	8	27.379	0	669.148	0	19.4	4	6.2	4	-1E+10	1	-1E+10	1	-1E+10	1	-1E+10	1	-1E+10	1	-1E+10	1
4901784	125	C	12/06/2018	10:46	-133.268	43.013	0	680.30	0	4.2400	0	34.5190	8	27.384	0	673.795	0	18.6	4	5.9	4	-1E+10	1	-1E+10	1	-1E+10	1	-1E+10	1	-1E+10	1	-1E+10	1
4901784	125	C	12/06/2018	10:46	-133.268	43.013	0	684.90	0	4.2250	0	34.5280	8	27.393	0	678.344	0	17.7	4	5.6	4	-1E+10	1	-1E+10	1	-1E+10	1	-1E+10	1	-1E+10	1	-1E+10	1
4901784	125	C	12/06/2018	10:46	-133.268	43.013	0	690.60	0	4.2240	0	34.5370	8	27.400	0	683.980	0	16.9	4	5.4	4	-1E+10	1	-1E+10	1	-1E+10	1	-1E+10	1	-1E+10	1	-1E+10	1
4901784	125	C	12/06/2018	10:46	-133.268	43.013	0	695.30	0	4.2130	0	34.5410	8	27.404	0	688.627	0	16.4	4	5.2	4	-1E+10	1	-1E+10	1	-1E+10	1	-1E+10	1	-1E+10	1	-1E+10	1
4901784	125	C	12/06/2018	10:46	-133.268	43.013	0	700.10	0	4.1790	0	34.5480	8	27.413	0	693.373	0	16.0	4	5.1	4	-1E+10	1	-1E+10	1	-1E+10	1	-1E+10	1	-1E+10	1	-1E+10	1
4901784	125	C	12/06/2018	10:46	-133.268	43.013	0	704.80	0	4.1470	0	34.5550	8	27.422	0	698.020	0	15.7	4	5.0	4	-1E+10	1	-1E+10	1	-1E+10	1	-1E+10	1	-1E+10	1	-1E+10	1
4901784	125	C	12/06/2018	10:46	-133.268	43.013	0	709.60	0	4.1380	0	34.5570	8	27.425	0	702.765	0	15.5	4	4.9	4	-1E+10	1	-1E+10	1	-1E+10	1	-1E+10	1	-1E+10	1	-1E+10	1
4901784	125	C	12/06/2018	10:46	-133.268	43.013	0	715.40	0	4.1210	0	34.5610	8	27.430	0	708.500	0	15.1	4	4.8	4	-1E+10	1	-1E+10	1	-1E+10	1	-1E+10	1	-1E+10	1	-1E+10	1
4901784	125	C	12/06/2018	10:46	-133.268	43.013	0	720.30	0	4.0980	0	34.5670	8	27.437	0	713.344	0	14.8	4	4.7	4	-1E+10	1	-1E+10	1	-1E+10	1	-1E+10	1	-1E+10	1	-1E+10	1
4901784	125	C	12/06/2018	10:46	-133.268	43.013	0	724.80	0	4.0830	0	34.5700	8	27.441	0	717.793	0	14.6	4	4.6	4	-1E+10	1	-1E+10	1	-1E+10	1	-1E+10	1	-1E+10	1	-1E+10	1
4901784	125	C	12/06/2018	10:46	-133.268	43.013	0	730.00	0	4.0680	0	34.5740	8	27.446	0	722.934	0	14.4	4	4.6	4	-1E+10	1	-1E+10	1	-1E+10	1	-1E+10	1	-1E+10	1	-1E+10	1
4901784	125	C	12/06/2018	10:46	-133.268	43.013	0	735.60	0	4.0520	0	34.5790	8	27.452	0	728.470	0	14.1	4	4.5	4	-1E+10	1	-1E+10	1	-1E+10	1	-1E+10	1	-1E+10	1	-1E+10	1
4901784	125	C	12/06/2018	10:46	-133.268	43.013	0	740.50	0	4.0360	0	34.5840	8	27.457	0	733.314	0	13.9	4	4.4	4	-1E+10	1	-1E+10	1	-1E+10	1	-1E+10	1	-1E+10	1	-1E+10	1
4901784	125	C	12/06/2018	10:46	-133.268	43.013	0	745.50	0	4.0210	0	34.5860	8	27.460	0	738.256	0	13.7	4	4.4	4	-1E+10	1	-1E+10	1	-1E+10	1	-1E+10	1	-1E+10	1	-1E+10	1
4901784	125	C	12/06/2018	10:46	-133.268	43.013	0	750.40	0	4.0100	0	34.5890	8	27.464	0	743.100	0	13.6	4	4.3	4	-1E+10	1	-1E+10	1	-1E+10	1	-1E+10	1	-1E+10	1	-1E+10	1
4901784	125	C	12/06/2018	10:46	-133.268	43.013	0	755.40	0	4.0020	0	34.5920	8	27.467	0	748.042	0	13.5	4	4.3	4	-1E+10	1	-1E+10	1	-1E+10	1	-1E+10	1	-1E+10	1	-1E+10	1
4901784	125	C	12/06/2018	10:46	-133.268	43.013	0	760.30	0	3.9890	0	34.5940	8	27.470	0	752.886	0	13.3	4	4.2	4	-1E+10	1	-1E+10	1	-1E+10	1	-1E+10	1	-1E+10	1	-1E+10	1
4901784	125	C	12/06/2018	10:46	-133.268	43.013	0	765.30	0	3.9750	0	34.5970	8	27.474	0	757.828	0	13.2	4	4.2	4	-1E+10	1	-1E+10	1	-1E+10	1	-1E+10	1	-1E+10	1	-1E+10	1
4901784	125	C	12/06/2018	10:46	-133.268	43.013	0	770.50	0	3.9620	0	34.6000	8	27.478	0	762.968	0	13.0	4	4.1	4	-1E+10	1	-1E+10	1	-1E+10	1	-1E+10	1	-1E+10	1	-1E+10	1
4901784	125	C	12/06/2018	10:46	-133.268	43.013	0	775.70	0	3.9550	0	34.6040	8	27.482	0	768.107	0	12.8	4	4.1	4	-1E+10	1	-1E+10	1	-1E+10	1	-1E+10	1	-1E+10	1	-1E+10	1
4901784	125	C	12/06/2018	10:46	-133.268	43.013	0	780.00	0	3.9480	0	34.6070	8	27.485	0	772.357	0	12.7	4	4.0	4	-1E+10	1	-1E+10	1	-1E+10	1	-1E+10	1	-1E+10	1	-1E+10	1
4901784	125	C	12/06/2018	10:46	-133.268	43.013	0	784.30	0	3.9300	0	34.6100	8	27.489	0	776.607	0	12.6	4	4.0	4	-1E+10	1	-1E+10	1	-1E+10	1	-1E+10	1	-1E+10	1	-1E+10	1
4901784	125	C	12/06/2018	10:46	-133.268	43.013	0	789.60	0	3.9190	0	34.6130	8	27.493	0	781.845	0	12.5	4	4.0	4	-1E+10	1	-1E+10	1	-1E+10	1	-1E+10	1	-1E+10	1	-1E+10	1
4901784	125	C	12/06/2018	10:46	-133.268	43.013	0	794.80	0	3.9020	0	34.6140	8	27.495	0	786.984	0	12.4	4	3.9	4	-1E+10	1	-1E+10	1	-1E+10	1	-1E+10	1	-1E+10	1	-1E+10	1
4901784	125	C	12/06/2018	10:46	-133.268	43.013	0	800.10	0	3.8860	0	34.6180	8	27.500	0	792.222	0	12.3	4	3.9	4	-1E+10	1	-1E+10	1	-1E+10	1	-1E+10	1	-1E+10	1	-1E+10	1
4901784	125	C	12/06/2018	10:46	-133.268	43.013	0	805.40	0	3.8760	0	34.6210	8	27.504	0	797.460	0	12.1	4	3.8	4	-1E+10	1	-1E+10	1	-1E+10	1	-1E+10	1	-1E+10	1	-1E+10	1
4901784	125	C	12/06/2018	10:46	-133.268	43.013	0	810.60	0	3.8610	0	34.6250	8	27.508	0	802.599	0	12.0	4	3.8	4	-1E+10	1	-1E+10	1	-1E+10	1	-1E+10	1	-1E+10	1	-1E+10	1
4901784	125	C	12/06/2018	10:46	-133.268	43.013	0	814.90	0	3.8490	0	34.6280	8	27.512	0	806.848	0	11.8	4	3.7	4	-1E+10	1	-1E+10	1	-1E+10	1	-1E+10	1	-1E+10	1	-1E+10	1
4901784	125	C	12/06/2018	10:46	-133.268	43.013	0	819.30	0	3.8370	0	34.6320	8	27.516	0	811.196	0	11.7	4	3.7	4	-1E+10	1	-1E+10	1	-1E+10	1	-1E+10	1	-1E+10	1	-1E+10	1
4901784	125	C	12/06/2018	10:46	-133.268	43.013	0	824.70	0	3.8240	0	34.6360	8	27.521	0	816.532	0	11.6	4	3.7	4	-1E+10	1	-1E+10	1	-1E+10	1	-1E+10	1	-1E+10	1	-1E+10	1
4901784	125	C	12/06/2018	10:46	-133.268	43.013	0	830.10	0	3.8090	0	34.6410	8	27.526	0	821.868	0	11.4	4	3.6	4	-1E+10	1	-1E+10	1	-1E+10	1	-1E+10	1	-1E+10	1	-1E+10	1
4901784	125	C	12/06/2018	10:46	-133.268	43.013	0	835.50	0	3.8010	0	34.6440	8	27.530	0	827.204	0	11.3	4	3.6	4	-1E+10	1	-1E+10	1	-1E+10	1	-1E+10	1	-1E+10	1	-1E+10	1
4901784	125	C	12/06/2018	10:46	-133.268	43.013	0	840.10	0	3.7900	0	34.6480	8	27.534	0	831.749	0	11.3	4	3.6	4	-1E+10	1	-1E+10	1	-1E+10	1	-1E+10	1	-1E+10	1	-1E+10	1
4901784	125	C	12/06/2018	10:46	-133.268	43.013	0	844.50	0	3.7860	0	34.6490	8	27.535	0	836.096	0	11.2	4	3.5	4	-1E+10	1	-1E+10	1	-1E+10	1	-1E+10	1	-1E+10	1	-1E+10	1
4901784	125	C	12/06/2018	10:46	-133.268	43.013	0	849.90	0	3.7760	0	34.6520	8	27.539	0	841.432	0	11.1	4	3.5	4	-1E+10	1	-1E+10	1	-1E+10	1	-1E+10	1	-1E+10	1	-1E+10	1
4901784	125	C	12/06/2018	10:46	-133.268	43.013	0	855.40	0	3.7660	0	34.6560	8	27.543	0	846.866	0	11.0	4	3.5	4	-1E+10	1	-1E+10	1	-1E+10	1	-1E+10	1	-1E+10	1	-1E+10	1
4901784	125	C	12/06/2018	10:46	-133.268	43.013	0	859.90	0	3.7580	0	34.6590	8	27.546	0	851.312	0	11.0	4	3.5	4	-1E+10	1	-1E+10	1	-1E+10	1	-1E+10	1	-1E+10	1	-1E+10	1
4901784	125	C	12/06/2018	10:46	-133.268	43.013	0	864.30	0	3.7510	0	34.6610	8	27.548	0	855.659	0	10.9	4	3.4	4	-1E+10	1	-1E+10	1	-1E+10	1	-1E+10	1	-1E+10	1	-1E+10	1
4901784	125	C	12/06/2018	10:46	-133.268	43.013	0	869.80	0	3.7470	0	34.6620	8	27.550	0	861.092	0	10.9	4	3.4	4	-1E+10	1	-1E+10	1	-1E+10	1	-1E+10	1	-1E+10	1	-1E+10	1
4901784	125	C	12/06/2018	10:46	-133.268	43.013	0	875.30	0	3.7370	0	34.6650	8	27.553	0	866.526	0	10.8	4	3.4	4	-1E+10	1	-1E+10	1	-1E+10	1	-1E+10	1	-1E+10	1	-1E+10	1
4901784	125	C	12/06/2018	10:46	-133.268	43.013	0	879.90	0	3.7300	0	34.6690	8	27.557	0	871.070	0	10.7	4	3.4	4	-1E+10	1	-1E+10	1	-1E+10	1	-1E+10	1	-1E+10	1	-1E+10	1
4901784	125	C	12/06/2018	10:46	-133.268	43.013	0	884.50	0	3.7260	0	34.6710	8	27.559	0	875.614	0	10.6	4	3.3	4	-1E+10	1	-1E+10	1	-1E+10	1	-1E+10	1	-1E+10	1	-1E+10	1
4901784	125	C	12/06/2018	10:46	-133.268	43.013	0	890.00	0	3.7180	0	34.6750	8	27.563	0	881.048	0	10.5	4	3.3	4	-1E+10	1	-1E+10	1	-1E+10	1	-1E+10	1	-1E+10	1	-1E+10	1
4901784	125	C	12/06/2018	10:46	-133.268	43.013	0	895.60	0	3.7030	0	34.6810	8	27.569	0	886.579	0	10.5	4	3.3	4	-1E+10	1	-1E+10	1	-1E+10	1	-1E+10	1	-1E+10	1	-1E+10	1
4901784	125	C	12/06/2018	10:46	-133.268	43.013	0	900.10	0	3.6910	0	34.6850	8	27.574	0	891.024	0	10.4	4	3.3	4	-1E+10	1	-1E+10	1	-1E+10	1	-1E+10	1	-1E+10	1	-1E+10	1
4901784	125	C	12/06/2018	10:46	-133.268	43.013	0	904.80	0	3.6840	0	34.6870	8	27.576	0	895.667	0	10.4	4	3.3	4	-1E+10	1	-1E+10	1	-1E+10	1	-1E+10	1	-1E+10	1	-1E+10	1
4901784	125	C	12/06/2018	10:46	-133.268	43.013	0	910.40	0	3.6720	0	34.6910	8	27.581	0	901.198	0	10.4	4	3.3	4	-1E+10	1	-1E+10	1	-1E+10	1	-1E+10	1	-1E+10	1	-1E+10	1
4901784	125	C	12/06/2018	10:46	-133.268	43.013	0	915.00	0	3.6620	0	34.6940	8	27.584	0	905.742	0	10.4	4	3.3	4	-1E+10	1	-1E+10	1	-1E+10	1	-1E+10	1	-1E+10	1	-1E+10	1
4901784	125	C	12/06/2018	10:46	-133.268	43.013	0	919.60	0	3.6550	0	34.6950	8	27.586	0	910.285	0	10.4	4	3.3	4	-1E+10	1	-1E+10	1	-1E+10	1	-1E+10	1	-1E+10	1	-1E+10	1
4901784	125	C	12/06/2018	10:46	-133.268	43.013	0	925.20	0	3.6410	0	34.6990	8	27.590	0	915.817	0	10.4	4	3.3	4	-1E+10	1	-1E+10	1	-1E+10	1	-1E+10	1	-1E+10	1	-1E+10	1
4901784	125	C	12/06/2018	10:46	-133.268	43.013	0	929.90	0	3.6330	0	34.7010	8	27.593	0	920.459	0	10.4	4	3.3	4	-1E+10	1	-1E+10	1	-1E+10	1	-1E+10	1	-1E+10	1	-1E+10	1
4901784	125	C	12/06/2018	10:46	-133.268	43.013	0	934.50	0	3.6160	0	34.7060	8	27.598	0	925.002	0	10.4	4	3.3	4	-1E+10	1	-1E+10	1	-1E+10	1	-1E+10	1	-1E+10	1	-1E+10	1
4901784	125	C	12/06/2018	10:46	-133.268	43.013	0	940.30	0	3.6090	0	34.7080	8	27.601	0	930.730	0	10.4	4	3.3	4	-1E+10	1	-1E+10	1	-1E+10	1	-1E+10	1	-1E+10	1	-1E+10	1
4901784	125	C	12/06/2018	10:46	-133.268	43.013	0	945.00	0	3.5980	0	34.7110	8	27.604	0	935.371	0	10.4	4	3.3	4	-1E+10	1	-1E+10	1	-1E+10	1	-1E+10	1	-1E+10	1	-1E+10	1
4901784	125	C	12/06/2018	10:46	-133.268	43.013	0	949.80	0	3.5840	0	34.7140	8	27.608	0	940.112	0	10.4	4	3.3	4	-1E+10	1	-1E+10	1	-1E+10	1	-1E+10	1	-1E+10	1	-1E+10	1
4901784	125	C	12/06/2018	10:46	-133.268	43.013	0	954.60	0	3.5770	0	34.7160	8	27.610	0	944.852	0	10.5	4	3.3	4	-1E+10	1	-1E+10	1	-1E+10	1	-1E+10	1	-1E+10	1	-1E+10	1
4901784	125	C	12/06/2018	10:46	-133.268	43.013	0	960.10	0	3.5690	0	34.7170	8	27.612	0	950.283	0	10.5	4	3.3	4	-1E+10	1	-1E+10	1	-1E+10	1	-1E+10	1	-1E+10	1	-1E+10	1
4901784	125	C	12/06/2018	10:46	-133.268	43.013	0	965.40	0	3.5550	0	34.7210	8	27.616	0	955.517	0	10.5	4	3.3	4	-1E+10	1	-1E+10	1	-1E+10	1	-1E+10	1	-1E+10	1	-1E+10	1
4901784	125	C	12/06/2018	10:46	-133.268	43.013	0	970.20	0	3.5420	0	34.7240	8	27.620	0	960.257	0	10.6	4	3.3	4	-1E+10	1	-1E+10	1	-1E+10	1	-1E+10	1	-1E+10	1	-1E+10	1
4901784	125	C	12/06/2018	10:46	-133.268	43.013	0	975.10	0	3.5340	0	34.7260	8	27.622	0	965.095	0	10.6	4	3.3	4	-1E+10	1	-1E+10	1	-1E+10	1	-1E+10	1	-1E+10	1	-1E+10	1
4901784	125	C	12/06/2018	10:46	-133.268	43.013	0	980.10	0	3.5240	0	34.7290	8	27.626	0	970.033	0	10.7	4	3.3	4	-1E+10	1	-1E+10	1	-1E+10	1	-1E+10	1	-1E+10	1	-1E+10	1
4901784	125	C	12/06/2018	10:46	-133.268	43.013	0	985.00	0	3.5160	0	34.7310	8	27.628	0	974.871	0	10.7	4	3.4	4	-1E+10	1	-1E+10	1	-1E+10	1	-1E+10	1	-1E+10	1	-1E+10	1
4901784	125	C	12/06/2018	10:46	-133.268	43.013	0	989.90	0	3.5060	0	34.7320	8	27.630	0	979.709	0	10.7	4	3.4	4	-1E+10	1	-1E+10	1	-1E+10	1	-1E+10	1	-1E+10	1	-1E+10	1
4901784	125	C	12/06/2018	10:46	-133.268	43.013	0	994.90	0	3.5000	0	34.7340	8	27.632	0	984.646	0	10.8	4	3.4	4	-1E+10	1	-1E+10	1	-1E+10	1	-1E+10	1	-1E+10	1	-1E+10	1
4901784	125	C	12/06/2018	10:46	-133.268	43.013	0	999.80	0	3.4910	0	34.7350	8	27.634	0	989.484	0	10.8	4	3.4	4	-1E+10	1	-1E+10	1	-1E+10	1	-1E+10	1	-1E+10	1	-1E+10	1
4901784	125	C	12/06/2018	10:46	-133.268	43.013	0	1004.80	0	3.4810	0	34.7380	8	27.637	0	994.420	0	10.9	4	3.4	4	-1E+10	1	-1E+10	1	-1E+10	1	-1E+10	1	-1E+10	1	-1E+10	1
4901784	125	C	12/06/2018	10:46	-133.268	43.013	0	1009.80	0	3.4720	0	34.7390	8	27.639	0	999.357	0	10.9	4	3.4	4	-1E+10	1	-1E+10	1	-1E+10	1	-1E+10	1	-1E+10	1	-1E+10	1
4901784	125	C	12/06/2018	10:46	-133.268	43.013	0	1014.80	0	3.4600	0	34.7420	8	27.643	0	1004.293	0	11.1	4	3.5	4	-1E+10	1	-1E+10	1	-1E+10	1	-1E+10	1	-1E+10	1	-1E+10	1
4901784	125	C	12/06/2018	10:46	-133.268	43.013	0	1019.80	0	3.4470	0	34.7450	8	27.646	0	1009.229	0	11.1	4	3.5	4	-1E+10	1	-1E+10	1	-1E+10	1	-1E+10	1	-1E+10	1	-1E+10	1
4901784	125	C	12/06/2018	10:46	-133.268	43.013	0	1024.80	0	3.4300	0	34.7480	8	27.650	0	1014.165	0	11.3	4	3.5	4	-1E+10	1	-1E+10	1	-1E+10	1	-1E+10	1	-1E+10	1	-1E+10	1
4901784	125	C	12/06/2018	10:46	-133.268	43.013	0	1029.90	0	3.4150	0	34.7500	8	27.653	0	1019.200	0	11.4	4	3.6	4	-1E+10	1	-1E+10	1	-1E+10	1	-1E+10	1	-1E+10	1	-1E+10	1
4901784	125	C	12/06/2018	10:46	-133.268	43.013	0	1035.00	0	3.3980	0	34.7540	8	27.658	0	1024.235	0	11.5	4	3.6	4	-1E+10	1	-1E+10	1	-1E+10	1	-1E+10	1	-1E+10	1	-1E+10	1
4901784	125	C	12/06/2018	10:46	-133.268	43.013	0	1040.10	0	3.3820	0	34.7570	8	27.662	0	1029.269	0	11.6	4	3.6	4	-1E+10	1	-1E+10	1	-1E+10	1	-1E+10	1	-1E+10	1	-1E+10	1
4901784	125	C	12/06/2018	10:46	-133.268	43.013	0	1045.30	0	3.3690	0	34.7590	8	27.665	0	1034.402	0	11.7	4	3.7	4	-1E+10	1	-1E+10	1	-1E+10	1	-1E+10	1	-1E+10	1	-1E+10	1
4901784	125	C	12/06/2018	10:46	-133.268	43.013	0	1050.50	0	3.3580	0	34.7620	8	27.669	0	1039.535	0	11.8	4	3.7	4	-1E+10	1	-1E+10	1	-1E+10	1	-1E+10	1	-1E+10	1	-1E+10	1
4901784	125	C	12/06/2018	10:46	-133.268	43.013	0	1055.00	0	3.3480	0	34.7640	8	27.671	0	1043.977	0	11.9	4	3.7	4	-1E+10	1	-1E+10	1	-1E+10	1	-1E+10	1	-1E+10	1	-1E+10	1
4901784	125	C	12/06/2018	10:46	-133.268	43.013	0	1059.40	0	3.3430	0	34.7650	8	27.673	0	1048.320	0	12.0	4	3.7	4	-1E+10	1	-1E+10	1	-1E+10	1	-1E+10	1	-1E+10	1	-1E+10	1
4901784	125	C	12/06/2018	10:46	-133.268	43.013	0	1064.70	0	3.3320	0	34.7670	8	27.675	0	1053.551	0	12.0	4	3.8	4	-1E+10	1	-1E+10	1	-1E+10	1	-1E+10	1	-1E+10	1	-1E+10	1
4901784	125	C	12/06/2018	10:46	-133.268	43.013	0	1070.10	0	3.3250	0	34.7690	8	27.678	0	1058.881	0	12.1	4	3.8	4	-1E+10	1	-1E+10	1	-1E+10	1	-1E+10	1	-1E+10	1	-1E+10	1
4901784	125	C	12/06/2018	10:46	-133.268	43.013	0	1075.50	0	3.3190	0	34.7700	8	27.679	0	1064.211	0	12.2	4	3.8	4	-1E+10	1	-1E+10	1	-1E+10	1	-1E+10	1	-1E+10	1	-1E+10	1
4901784	125	C	12/06/2018	10:46	-133.268	43.013	0	1080.10	0	3.3120	0	34.7710	8	27.680	0	1068.751	0	12.3	4	3.8	4	-1E+10	1	-1E+10	1	-1E+10	1	-1E+10	1	-1E+10	1	-1E+10	1
4901784	125	C	12/06/2018	10:46	-133.268	43.013	0	1084.90	0	3.3030	0	34.7730	8	27.683	0	1073.488	0	12.4	4	3.9	4	-1E+10	1	-1E+10	1	-1E+10	1	-1E+10	1	-1E+10	1	-1E+10	1
4901784	125	C	12/06/2018	10:46	-133.268	43.013	0	1090.10	0	3.2950	0	34.7740	8	27.684	0	1078.620	0	12.4	4	3.9	4	-1E+10	1	-1E+10	1	-1E+10	1	-1E+10	1	-1E+10	1	-1E+10	1
4901784	125	C	12/06/2018	10:46	-133.268	43.013	0	1094.90	0	3.2850	0	34.7760	8	27.687	0	1083.357	0	12.6	4	3.9	4	-1E+10	1	-1E+10	1	-1E+10	1	-1E+10	1	-1E+10	1	-1E+10	1
4901784	125	C	12/06/2018	10:46	-133.268	43.013	0	1099.70	0	3.2760	0	34.7770	8	27.689	0	1088.094	0	12.6	4	3.9	4	-1E+10	1	-1E+10	1	-1E+10	1	-1E+10	1	-1E+10	1	-1E+10	1
4901784	125	C	12/06/2018	10:46	-133.268	43.013	0	1104.60	0	3.2660	0	34.7790	8	27.691	0	1092.929	0	12.8	4	4.0	4	-1E+10	1	-1E+10	1	-1E+10	1	-1E+10	1	-1E+10	1	-1E+10	1
4901784	125	C	12/06/2018	10:46	-133.268	43.013	0	1109.50	0	3.2510	0	34.7810	8	27.694	0	1097.765	0	12.9	4	4.0	4	-1E+10	1	-1E+10	1	-1E+10	1	-1E+10	1	-1E+10	1	-1E+10	1
4901784	125	C	12/06/2018	10:46	-133.268	43.013	0	1114.50	0	3.2450	0	34.7820	8	27.696	0	1102.699	0	12.9	4	4.0	4	-1E+10	1	-1E+10	1	-1E+10	1	-1E+10	1	-1E+10	1	-1E+10	1
4901784	125	C	12/06/2018	10:46	-133.268	43.013	0	1119.60	0	3.2380	0	34.7830	8	27.697	0	1107.731	0	13.0	4	4.1	4	-1E+10	1	-1E+10	1	-1E+10	1	-1E+10	1	-1E+10	1	-1E+10	1
4901784	125	C	12/06/2018	10:46	-133.268	43.013	0	1124.60	0	3.2260	0	34.7850	8	27.700	0	1112.665	0	13.1	4	4.1	4	-1E+10	1	-1E+10	1	-1E+10	1	-1E+10	1	-1E+10	1	-1E+10	1
4901784	125	C	12/06/2018	10:46	-133.268	43.013	0	1129.70	0	3.2240	0	34.7870	8	27.702	0	1117.697	0	13.3	4	4.1	4	-1E+10	1	-1E+10	1	-1E+10	1	-1E+10	1	-1E+10	1	-1E+10	1
4901784	125	C	12/06/2018	10:46	-133.268	43.013	0	1134.80	0	3.2200	0	34.7880	8	27.703	0	1122.730	0	13.3	4	4.1	4	-1E+10	1	-1E+10	1	-1E+10	1	-1E+10	1	-1E+10	1	-1E+10	1
4901784	125	C	12/06/2018	10:46	-133.268	43.013	0	1139.90	0	3.2170	0	34.7890	8	27.704	0	1127.762	0	13.4	4	4.2	4	-1E+10	1	-1E+10	1	-1E+10	1	-1E+10	1	-1E+10	1	-1E+10	1
4901784	125	C	12/06/2018	10:46	-133.268	43.013	0	1145.10	0	3.2100	0	34.7900	8	27.706	0	1132.892	0	13.5	4	4.2	4	-1E+10	1	-1E+10	1	-1E+10	1	-1E+10	1	-1E+10	1	-1E+10	1
4901784	125	C	12/06/2018	10:46	-133.268	43.013	0	1150.40	0	3.1990	0	34.7910	8	27.707	0	1138.122	0	13.6	4	4.2	4	-1E+10	1	-1E+10	1	-1E+10	1	-1E+10	1	-1E+10	1	-1E+10	1
4901784	125	C	12/06/2018	10:46	-133.268	43.013	0	1155.70	0	3.1800	0	34.7930	8	27.711	0	1143.350	0	13.7	4	4.3	4	-1E+10	1	-1E+10	1	-1E+10	1	-1E+10	1	-1E+10	1	-1E+10	1
4901784	125	C	12/06/2018	10:46	-133.268	43.013	0	1160.00	0	3.1700	0	34.7950	8	27.713	0	1147.593	0	13.8	4	4.3	4	-1E+10	1	-1E+10	1	-1E+10	1	-1E+10	1	-1E+10	1	-1E+10	1
4901784	125	C	12/06/2018	10:46	-133.268	43.013	0	1164.50	0	3.1600	0	34.7960	8	27.715	0	1152.032	0	13.9	4	4.3	4	-1E+10	1	-1E+10	1	-1E+10	1	-1E+10	1	-1E+10	1	-1E+10	1
4901784	125	C	12/06/2018	10:46	-133.268	43.013	0	1169.80	0	3.1490	0	34.7970	8	27.717	0	1157.261	0	14.0	4	4.4	4	-1E+10	1	-1E+10	1	-1E+10	1	-1E+10	1	-1E+10	1	-1E+10	1
4901784	125	C	12/06/2018	10:46	-133.268	43.013	0	1175.30	0	3.1400	0	34.7980	8	27.719	0	1162.687	0	14.2	4	4.4	4	-1E+10	1	-1E+10	1	-1E+10	1	-1E+10	1	-1E+10	1	-1E+10	1
4901784	125	C	12/06/2018	10:46	-133.268	43.013	0	1179.90	0	3.1350	0	34.8010	8	27.722	0	1167.225	0	14.3	4	4.4	4	-1E+10	1	-1E+10	1	-1E+10	1	-1E+10	1	-1E+10	1	-1E+10	1
4901784	125	C	12/06/2018	10:46	-133.268	43.013	0	1184.50	0	3.1280	0	34.8010	8	27.722	0	1171.763	0	14.4	4	4.5	4	-1E+10	1	-1E+10	1	-1E+10	1	-1E+10	1	-1E+10	1	-1E+10	1
4901784	125	C	12/06/2018	10:46	-133.268	43.013	0	1189.90	0	3.1140	0	34.8040	8	27.726	0	1177.089	0	14.5	4	4.5	4	-1E+10	1	-1E+10	1	-1E+10	1	-1E+10	1	-1E+10	1	-1E+10	1
4901784	125	C	12/06/2018	10:46	-133.268	43.013	0	1195.30	0	3.1080	0	34.8040	8	27.727	0	1182.416	0	14.7	4	4.6	4	-1E+10	1	-1E+10	1	-1E+10	1	-1E+10	1	-1E+10	1	-1E+10	1
4901784	125	C	12/06/2018	10:46	-133.268	43.013	0	1200.00	0	3.1010	0	34.8060	8	27.729	0	1187.052	0	14.7	4	4.6	4	-1E+10	1	-1E+10	1	-1E+10	1	-1E+10	1	-1E+10	1	-1E+10	1
4901784	125	C	12/06/2018	10:46	-133.268	43.013	0	1204.50	0	3.0950	0	34.8060	8	27.729	0	1191.491	0	14.9	4	4.6	4	-1E+10	1	-1E+10	1	-1E+10	1	-1E+10	1	-1E+10	1	-1E+10	1
4901784	125	C	12/06/2018	10:46	-133.268	43.013	0	1210.10	0	3.0810	0	34.8080	8	27.732	0	1197.014	0	15.0	4	4.7	4	-1E+10	1	-1E+10	1	-1E+10	1	-1E+10	1	-1E+10	1	-1E+10	1
4901784	125	C	12/06/2018	10:46	-133.268	43.013	0	1214.70	0	3.0770	0	34.8080	8	27.733	0	1201.551	0	15.2	4	4.7	4	-1E+10	1	-1E+10	1	-1E+10	1	-1E+10	1	-1E+10	1	-1E+10	1
4901784	125	C	12/06/2018	10:46	-133.268	43.013	0	1220.10	0	3.0600	0	34.8110	8	27.737	0	1206.878	0	15.3	4	4.8	4	-1E+10	1	-1E+10	1	-1E+10	1	-1E+10	1	-1E+10	1	-1E+10	1
4901784	125	C	12/06/2018	10:46	-133.268	43.013	0	1225.30	0	3.0480	0	34.8120	8	27.739	0	1212.006	0	15.5	4	4.8	4	-1E+10	1	-1E+10	1	-1E+10	1	-1E+10	1	-1E+10	1	-1E+10	1
4901784	125	C	12/06/2018	10:46	-133.268	43.013	0	1230.10	0	3.0400	0	34.8130	8	27.740	0	1216.740	0	15.6	4	4.8	4	-1E+10	1	-1E+10	1	-1E+10	1	-1E+10	1	-1E+10	1	-1E+10	1
4901784	125	C	12/06/2018	10:46	-133.268	43.013	0	1235.10	0	3.0270	0	34.8150	8	27.743	0	1221.671	0	15.8	4	4.9	4	-1E+10	1	-1E+10	1	-1E+10	1	-1E+10	1	-1E+10	1	-1E+10	1
4901784	125	C	12/06/2018	10:46	-133.268	43.013	0	1240.00	0	3.0190	0	34.8160	8	27.745	0	1226.504	0	15.9	4	4.9	4	-1E+10	1	-1E+10	1	-1E+10	1	-1E+10	1	-1E+10	1	-1E+10	1
4901784	125	C	12/06/2018	10:46	-133.268	43.013	0	1245.00	0	3.0090	0	34.8170	8	27.746	0	1231.435	0	16.0	4	5.0	4	-1E+10	1	-1E+10	1	-1E+10	1	-1E+10	1	-1E+10	1	-1E+10	1
4901784	125	C	12/06/2018	10:46	-133.268	43.013	0	1250.00	0	2.9980	0	34.8190	8	27.749	0	1236.366	0	16.2	4	5.0	4	-1E+10	1	-1E+10	1	-1E+10	1	-1E+10	1	-1E+10	1	-1E+10	1
4901784	125	C	12/06/2018	10:46	-133.268	43.013	0	1255.10	0	2.9960	0	34.8190	8	27.749	0	1241.395	0	16.3	4	5.0	4	-1E+10	1	-1E+10	1	-1E+10	1	-1E+10	1	-1E+10	1	-1E+10	1
4901784	125	C	12/06/2018	10:46	-133.268	43.013	0	1260.20	0	2.9870	0	34.8200	8	27.751	0	1246.424	0	16.5	4	5.1	4	-1E+10	1	-1E+10	1	-1E+10	1	-1E+10	1	-1E+10	1	-1E+10	1
4901784	125	C	12/06/2018	10:46	-133.268	43.013	0	1265.30	0	2.9730	0	34.8220	8	27.754	0	1251.453	0	16.7	4	5.2	4	-1E+10	1	-1E+10	1	-1E+10	1	-1E+10	1	-1E+10	1	-1E+10	1
4901784	125	C	12/06/2018	10:46	-133.268	43.013	0	1270.50	0	2.9600	0	34.8240	8	27.757	0	1256.581	0	16.9	4	5.2	4	-1E+10	1	-1E+10	1	-1E+10	1	-1E+10	1	-1E+10	1	-1E+10	1
4901784	125	C	12/06/2018	10:46	-133.268	43.013	0	1275.60	0	2.9510	0	34.8260	8	27.759	0	1261.610	0	17.1	4	5.3	4	-1E+10	1	-1E+10	1	-1E+10	1	-1E+10	1	-1E+10	1	-1E+10	1
4901784	125	C	12/06/2018	10:46	-133.268	43.013	0	1280.70	0	2.9370	0	34.8270	8	27.761	0	1266.639	0	17.3	4	5.4	4	-1E+10	1	-1E+10	1	-1E+10	1	-1E+10	1	-1E+10	1	-1E+10	1
4901784	125	C	12/06/2018	10:46	-133.268	43.013	0	1285.00	0	2.9290	0	34.8290	8	27.763	0	1270.878	0	17.4	4	5.4	4	-1E+10	1	-1E+10	1	-1E+10	1	-1E+10	1	-1E+10	1	-1E+10	1
4901784	125	C	12/06/2018	10:46	-133.268	43.013	0	1289.40	0	2.9230	0	34.8300	8	27.765	0	1275.217	0	17.6	4	5.4	4	-1E+10	1	-1E+10	1	-1E+10	1	-1E+10	1	-1E+10	1	-1E+10	1
4901784	125	C	12/06/2018	10:46	-133.268	43.013	0	1294.60	0	2.9110	0	34.8310	8	27.767	0	1280.344	0	17.8	4	5.5	4	-1E+10	1	-1E+10	1	-1E+10	1	-1E+10	1	-1E+10	1	-1E+10	1
4901784	125	C	12/06/2018	10:46	-133.268	43.013	0	1299.90	0	2.8990	0	34.8330	8	27.769	0	1285.569	0	18.0	4	5.6	4	-1E+10	1	-1E+10	1	-1E+10	1	-1E+10	1	-1E+10	1	-1E+10	1
4901784	125	C	12/06/2018	10:46	-133.268	43.013	0	1305.10	0	2.8920	0	34.8340	8	27.771	0	1290.696	0	18.2	4	5.6	4	-1E+10	1	-1E+10	1	-1E+10	1	-1E+10	1	-1E+10	1	-1E+10	1
4901784	125	C	12/06/2018	10:46	-133.268	43.013	0	1310.40	0	2.8840	0	34.8350	8	27.772	0	1295.921	0	18.4	4	5.7	4	-1E+10	1	-1E+10	1	-1E+10	1	-1E+10	1	-1E+10	1	-1E+10	1
4901784	125	C	12/06/2018	10:46	-133.268	43.013	0	1315.70	0	2.8760	0	34.8370	8	27.775	0	1301.146	0	18.6	4	5.7	4	-1E+10	1	-1E+10	1	-1E+10	1	-1E+10	1	-1E+10	1	-1E+10	1
4901784	125	C	12/06/2018	10:46	-133.268	43.013	0	1320.00	0	2.8720	0	34.8380	8	27.776	0	1305.385	0	18.9	4	5.8	4	-1E+10	1	-1E+10	1	-1E+10	1	-1E+10	1	-1E+10	1	-1E+10	1
4901784	125	C	12/06/2018	10:46	-133.268	43.013	0	1324.40	0	2.8680	0	34.8380	8	27.776	0	1309.723	0	19.1	4	5.9	4	-1E+10	1	-1E+10	1	-1E+10	1	-1E+10	1	-1E+10	1	-1E+10	1
4901784	125	C	12/06/2018	10:46	-133.268	43.013	0	1329.60	0	2.8580	0	34.8400	8	27.779	0	1314.849	0	19.5	4	6.0	4	-1E+10	1	-1E+10	1	-1E+10	1	-1E+10	1	-1E+10	1	-1E+10	1
4901784	125	C	12/06/2018	10:46	-133.268	43.013	0	1334.90	0	2.8470	0	34.8420	8	27.781	0	1320.074	0	19.8	4	6.1	4	-1E+10	1	-1E+10	1	-1E+10	1	-1E+10	1	-1E+10	1	-1E+10	1
4901784	125	C	12/06/2018	10:46	-133.268	43.013	0	1340.30	0	2.8370	0	34.8440	8	27.784	0	1325.397	0	20.1	4	6.2	4	-1E+10	1	-1E+10	1	-1E+10	1	-1E+10	1	-1E+10	1	-1E+10	1
4901784	125	C	12/06/2018	10:46	-133.268	43.013	0	1345.60	0	2.8280	0	34.8460	8	27.786	0	1330.621	0	20.4	4	6.3	4	-1E+10	1	-1E+10	1	-1E+10	1	-1E+10	1	-1E+10	1	-1E+10	1
4901784	125	C	12/06/2018	10:46	-133.268	43.013	0	1350.00	0	2.8230	0	34.8470	8	27.788	0	1334.958	0	20.5	4	6.3	4	-1E+10	1	-1E+10	1	-1E+10	1	-1E+10	1	-1E+10	1	-1E+10	1
4901784	125	C	12/06/2018	10:46	-133.268	43.013	0	1355.20	0	2.8140	0	34.8480	8	27.789	0	1340.084	0	20.7	4	6.4	4	-1E+10	1	-1E+10	1	-1E+10	1	-1E+10	1	-1E+10	1	-1E+10	1
4901784	125	C	12/06/2018	10:46	-133.268	43.013	0	1360.00	0	2.8050	0	34.8490	8	27.791	0	1344.815	0	20.8	4	6.4	4	-1E+10	1	-1E+10	1	-1E+10	1	-1E+10	1	-1E+10	1	-1E+10	1
4901784	125	C	12/06/2018	10:46	-133.268	43.013	0	1364.60	0	2.7960	0	34.8500	8	27.793	0	1349.349	0	21.0	4	6.5	4	-1E+10	1	-1E+10	1	-1E+10	1	-1E+10	1	-1E+10	1	-1E+10	1
4901784	125	C	12/06/2018	10:46	-133.268	43.013	0	1369.90	0	2.7860	0	34.8510	8	27.794	0	1354.573	0	21.2	4	6.5	4	-1E+10	1	-1E+10	1	-1E+10	1	-1E+10	1	-1E+10	1	-1E+10	1
4901784	125	C	12/06/2018	10:46	-133.268	43.013	0	1375.50	0	2.7740	0	34.8520	8	27.796	0	1360.092	0	21.4	4	6.6	4	-1E+10	1	-1E+10	1	-1E+10	1	-1E+10	1	-1E+10	1	-1E+10	1
4901784	125	C	12/06/2018	10:46	-133.268	43.013	0	1380.60	0	2.7610	0	34.8530	8	27.798	0	1365.118	0	21.6	4	6.7	4	-1E+10	1	-1E+10	1	-1E+10	1	-1E+10	1	-1E+10	1	-1E+10	1
4901784	125	C	12/06/2018	10:46	-133.268	43.013	0	1385.60	0	2.7510	0	34.8540	8	27.800	0	1370.046	0	21.8	4	6.7	4	-1E+10	1	-1E+10	1	-1E+10	1	-1E+10	1	-1E+10	1	-1E+10	1
4901784	125	C	12/06/2018	10:46	-133.268	43.013	0	1390.70	0	2.7430	0	34.8550	8	27.801	0	1375.072	0	22.1	4	6.8	4	-1E+10	1	-1E+10	1	-1E+10	1	-1E+10	1	-1E+10	1	-1E+10	1
4901784	125	C	12/06/2018	10:46	-133.268	43.013	0	1395.00	0	2.7320	0	34.8570	8	27.804	0	1379.310	0	22.4	4	6.9	4	-1E+10	1	-1E+10	1	-1E+10	1	-1E+10	1	-1E+10	1	-1E+10	1
4901784	125	C	12/06/2018	10:46	-133.268	43.013	0	1399.40	0	2.7170	0	34.8590	8	27.807	0	1383.646	0	22.7	4	7.0	4	-1E+10	1	-1E+10	1	-1E+10	1	-1E+10	1	-1E+10	1	-1E+10	1
4901784	125	C	12/06/2018	10:46	-133.268	43.013	0	1404.50	0	2.7060	0	34.8600	8	27.809	0	1388.672	0	23.0	4	7.1	4	-1E+10	1	-1E+10	1	-1E+10	1	-1E+10	1	-1E+10	1	-1E+10	1
4901784	125	C	12/06/2018	10:46	-133.268	43.013	0	1409.80	0	2.6950	0	34.8610	8	27.810	0	1393.895	0	23.3	4	7.2	4	-1E+10	1	-1E+10	1	-1E+10	1	-1E+10	1	-1E+10	1	-1E+10	1
4901784	125	C	12/06/2018	10:46	-133.268	43.013	0	1414.90	0	2.6810	0	34.8630	8	27.813	0	1398.920	0	23.6	4	7.3	4	-1E+10	1	-1E+10	1	-1E+10	1	-1E+10	1	-1E+10	1	-1E+10	1
4901784	125	C	12/06/2018	10:46	-133.268	43.013	0	1420.00	0	2.6740	0	34.8650	8	27.816	0	1403.945	0	23.9	4	7.3	4	-1E+10	1	-1E+10	1	-1E+10	1	-1E+10	1	-1E+10	1	-1E+10	1
4901784	125	C	12/06/2018	10:46	-133.268	43.013	0	1425.20	0	2.6680	0	34.8650	8	27.816	0	1409.069	0	24.1	4	7.4	4	-1E+10	1	-1E+10	1	-1E+10	1	-1E+10	1	-1E+10	1	-1E+10	1
4901784	125	C	12/06/2018	10:46	-133.268	43.013	0	1430.30	0	2.6610	0	34.8670	8	27.818	0	1414.095	0	24.4	4	7.5	4	-1E+10	1	-1E+10	1	-1E+10	1	-1E+10	1	-1E+10	1	-1E+10	1
4901784	125	C	12/06/2018	10:46	-133.268	43.013	0	1435.50	0	2.6550	0	34.8680	8	27.820	0	1419.218	0	24.6	4	7.5	4	-1E+10	1	-1E+10	1	-1E+10	1	-1E+10	1	-1E+10	1	-1E+10	1
4901784	125	C	12/06/2018	10:46	-133.268	43.013	0	1440.70	0	2.6440	0	34.8690	8	27.821	0	1424.342	0	24.8	4	7.6	4	-1E+10	1	-1E+10	1	-1E+10	1	-1E+10	1	-1E+10	1	-1E+10	1
4901784	125	C	12/06/2018	10:46	-133.268	43.013	0	1445.00	0	2.6370	0	34.8700	8	27.823	0	1428.578	0	25.0	4	7.7	4	-1E+10	1	-1E+10	1	-1E+10	1	-1E+10	1	-1E+10	1	-1E+10	1
4901784	125	C	12/06/2018	10:46	-133.268	43.013	0	1449.40	0	2.6320	0	34.8700	8	27.823	0	1432.913	0	25.2	4	7.7	4	-1E+10	1	-1E+10	1	-1E+10	1	-1E+10	1	-1E+10	1	-1E+10	1
4901784	125	C	12/06/2018	10:46	-133.268	43.013	0	1454.70	0	2.6260	0	34.8710	8	27.825	0	1438.135	0	25.4	4	7.8	4	-1E+10	1	-1E+10	1	-1E+10	1	-1E+10	1	-1E+10	1	-1E+10	1
4901784	125	C	12/06/2018	10:46	-133.268	43.013	0	1460.00	0	2.6160	0	34.8720	8	27.826	0	1443.357	0	25.7	4	7.9	4	-1E+10	1	-1E+10	1	-1E+10	1	-1E+10	1	-1E+10	1	-1E+10	1
4901784	125	C	12/06/2018	10:46	-133.268	43.013	0	1465.30	0	2.6050	0	34.8730	8	27.828	0	1448.578	0	25.9	4	7.9	4	-1E+10	1	-1E+10	1	-1E+10	1	-1E+10	1	-1E+10	1	-1E+10	1
4901784	125	C	12/06/2018	10:46	-133.268	43.013	0	1470.70	0	2.6000	0	34.8740	8	27.829	0	1453.898	0	26.1	4	8.0	4	-1E+10	1	-1E+10	1	-1E+10	1	-1E+10	1	-1E+10	1	-1E+10	1
4901784	125	C	12/06/2018	10:46	-133.268	43.013	0	1475.10	0	2.5920	0	34.8740	8	27.830	0	1458.232	0	26.3	4	8.1	4	-1E+10	1	-1E+10	1	-1E+10	1	-1E+10	1	-1E+10	1	-1E+10	1
4901784	125	C	12/06/2018	10:46	-133.268	43.013	0	1479.60	0	2.5810	0	34.8750	8	27.832	0	1462.665	0	26.5	4	8.1	4	-1E+10	1	-1E+10	1	-1E+10	1	-1E+10	1	-1E+10	1	-1E+10	1
4901784	125	C	12/06/2018	10:46	-133.268	43.013	0	1484.90	0	2.5720	0	34.8760	8	27.833	0	1467.886	0	26.8	4	8.2	4	-1E+10	1	-1E+10	1	-1E+10	1	-1E+10	1	-1E+10	1	-1E+10	1
4901784	125	C	12/06/2018	10:46	-133.268	43.013	0	1490.40	0	2.5580	0	34.8770	8	27.836	0	1473.304	0	27.2	4	8.3	4	-1E+10	1	-1E+10	1	-1E+10	1	-1E+10	1	-1E+10	1	-1E+10	1
4901784	125	C	12/06/2018	10:46	-133.268	43.013	0	1494.90	0	2.5450	0	34.8790	8	27.838	0	1477.737	0	27.4	4	8.4	4	-1E+10	1	-1E+10	1	-1E+10	1	-1E+10	1	-1E+10	1	-1E+10	1
4901784	125	C	12/06/2018	10:46	-133.268	43.013	0	1499.50	0	2.5360	0	34.8800	8	27.840	0	1482.268	0	27.6	4	8.5	4	-1E+10	1	-1E+10	1	-1E+10	1	-1E+10	1	-1E+10	1	-1E+10	1
4901784	125	C	12/06/2018	10:46	-133.268	43.013	0	1504.60	0	2.5290	0	34.8810	8	27.841	0	1487.291	0	27.8	4	8.5	4	-1E+10	1	-1E+10	1	-1E+10	1	-1E+10	1	-1E+10	1	-1E+10	1
4901784	125	C	12/06/2018	10:46	-133.268	43.013	0	1509.70	0	2.5230	0	34.8810	8	27.842	0	1492.315	0	28.0	4	8.6	4	-1E+10	1	-1E+10	1	-1E+10	1	-1E+10	1	-1E+10	1	-1E+10	1
4901784	125	C	12/06/2018	10:46	-133.268	43.013	0	1514.80	0	2.5110	0	34.8830	8	27.844	0	1497.338	0	28.5	4	8.7	4	-1E+10	1	-1E+10	1	-1E+10	1	-1E+10	1	-1E+10	1	-1E+10	1
4901784	125	C	12/06/2018	10:46	-133.268	43.013	0	1519.90	0	2.5020	0	34.8840	8	27.846	0	1502.361	0	29.0	4	8.9	4	-1E+10	1	-1E+10	1	-1E+10	1	-1E+10	1	-1E+10	1	-1E+10	1
4901784	125	C	12/06/2018	10:46	-133.268	43.013	0	1525.10	0	2.4910	0	34.8860	8	27.849	0	1507.482	0	29.4	4	9.0	4	-1E+10	1	-1E+10	1	-1E+10	1	-1E+10	1	-1E+10	1	-1E+10	1
4901784	125	C	12/06/2018	10:46	-133.268	43.013	0	1530.30	0	2.4840	0	34.8870	8	27.850	0	1512.604	0	29.6	4	9.1	4	-1E+10	1	-1E+10	1	-1E+10	1	-1E+10	1	-1E+10	1	-1E+10	1
4901784	125	C	12/06/2018	10:46	-133.268	43.013	0	1535.60	0	2.4780	0	34.8880	8	27.851	0	1517.823	0	29.9	4	9.1	4	-1E+10	1	-1E+10	1	-1E+10	1	-1E+10	1	-1E+10	1	-1E+10	1
4901784	125	C	12/06/2018	10:46	-133.268	43.013	0	1539.90	0	2.4740	0	34.8890	8	27.853	0	1522.058	0	30.1	4	9.2	4	-1E+10	1	-1E+10	1	-1E+10	1	-1E+10	1	-1E+10	1	-1E+10	1
4901784	125	C	12/06/2018	10:46	-133.268	43.013	0	1544.30	0	2.4690	0	34.8890	8	27.853	0	1526.391	0	30.4	4	9.3	4	-1E+10	1	-1E+10	1	-1E+10	1	-1E+10	1	-1E+10	1	-1E+10	1
4901784	125	C	12/06/2018	10:46	-133.268	43.013	0	1549.50	0	2.4600	0	34.8900	8	27.855	0	1531.512	0	30.7	4	9.4	4	-1E+10	1	-1E+10	1	-1E+10	1	-1E+10	1	-1E+10	1	-1E+10	1
4901784	125	C	12/06/2018	10:46	-133.268	43.013	0	1554.80	0	2.4530	0	34.8910	8	27.856	0	1536.731	0	31.0	4	9.5	4	-1E+10	1	-1E+10	1	-1E+10	1	-1E+10	1	-1E+10	1	-1E+10	1
4901784	125	C	12/06/2018	10:46	-133.268	43.013	0	1560.10	0	2.4450	0	34.8920	8	27.857	0	1541.951	0	31.3	4	9.6	4	-1E+10	1	-1E+10	1	-1E+10	1	-1E+10	1	-1E+10	1	-1E+10	1
4901784	125	C	12/06/2018	10:46	-133.268	43.013	0	1565.50	0	2.4320	0	34.8930	8	27.859	0	1547.268	0	31.6	4	9.6	4	-1E+10	1	-1E+10	1	-1E+10	1	-1E+10	1	-1E+10	1	-1E+10	1
4901784	125	C	12/06/2018	10:46	-133.268	43.013	0	1570.00	0	2.4230	0	34.8950	8	27.862	0	1551.699	0	31.8	4	9.7	4	-1E+10	1	-1E+10	1	-1E+10	1	-1E+10	1	-1E+10	1	-1E+10	1
4901784	125	C	12/06/2018	10:46	-133.268	43.013	0	1574.50	0	2.4180	0	34.8950	8	27.862	0	1556.130	0	32.0	4	9.8	4	-1E+10	1	-1E+10	1	-1E+10	1	-1E+10	1	-1E+10	1	-1E+10	1
4901784	125	C	12/06/2018	10:46	-133.268	43.013	0	1580.00	0	2.4090	0	34.8960	8	27.864	0	1561.546	0	32.2	4	9.8	4	-1E+10	1	-1E+10	1	-1E+10	1	-1E+10	1	-1E+10	1	-1E+10	1
4901784	125	C	12/06/2018	10:46	-133.268	43.013	0	1585.50	0	2.3970	0	34.8980	8	27.866	0	1566.961	0	32.8	4	10.0	4	-1E+10	1	-1E+10	1	-1E+10	1	-1E+10	1	-1E+10	1	-1E+10	1
4901784	125	C	12/06/2018	10:46	-133.268	43.013	0	1590.00	0	2.3890	0	34.8990	8	27.868	0	1571.392	0	33.2	4	10.1	4	-1E+10	1	-1E+10	1	-1E+10	1	-1E+10	1	-1E+10	1	-1E+10	1
4901784	125	C	12/06/2018	10:46	-133.268	43.013	0	1595.20	0	2.3800	0	34.9000	8	27.870	0	1576.511	0	33.4	4	10.2	4	-1E+10	1	-1E+10	1	-1E+10	1	-1E+10	1	-1E+10	1	-1E+10	1
4901784	125	C	12/06/2018	10:46	-133.268	43.013	0	1600.30	0	2.3710	0	34.9010	8	27.871	0	1581.533	0	33.5	4	10.2	4	-1E+10	1	-1E+10	1	-1E+10	1	-1E+10	1	-1E+10	1	-1E+10	1
4901784	125	C	12/06/2018	10:46	-133.268	43.013	0	1605.20	0	2.3640	0	34.9020	8	27.873	0	1586.357	0	33.7	4	10.3	4	-1E+10	1	-1E+10	1	-1E+10	1	-1E+10	1	-1E+10	1	-1E+10	1
4901784	125	C	12/06/2018	10:46	-133.268	43.013	0	1610.10	0	2.3570	0	34.9030	8	27.874	0	1591.181	0	33.9	4	10.3	4	-1E+10	1	-1E+10	1	-1E+10	1	-1E+10	1	-1E+10	1	-1E+10	1
4901784	125	C	12/06/2018	10:46	-133.268	43.013	0	1615.10	0	2.3540	0	34.9040	8	27.875	0	1596.103	0	34.1	4	10.4	4	-1E+10	1	-1E+10	1	-1E+10	1	-1E+10	1	-1E+10	1	-1E+10	1
4901784	125	C	12/06/2018	10:46	-133.268	43.013	0	1620.10	0	2.3520	0	34.9040	8	27.875	0	1601.026	0	34.3	4	10.4	4	-1E+10	1	-1E+10	1	-1E+10	1	-1E+10	1	-1E+10	1	-1E+10	1
4901784	125	C	12/06/2018	10:46	-133.268	43.013	0	1625.20	0	2.3460	0	34.9050	8	27.877	0	1606.046	0	34.6	4	10.5	4	-1E+10	1	-1E+10	1	-1E+10	1	-1E+10	1	-1E+10	1	-1E+10	1
4901784	125	C	12/06/2018	10:46	-133.268	43.013	0	1630.30	0	2.3390	0	34.9050	8	27.877	0	1611.067	0	34.9	4	10.6	4	-1E+10	1	-1E+10	1	-1E+10	1	-1E+10	1	-1E+10	1	-1E+10	1
4901784	125	C	12/06/2018	10:46	-133.268	43.013	0	1635.40	0	2.3280	0	34.9070	8	27.880	0	1616.087	0	35.2	4	10.7	4	-1E+10	1	-1E+10	1	-1E+10	1	-1E+10	1	-1E+10	1	-1E+10	1
4901784	125	C	12/06/2018	10:46	-133.268	43.013	0	1640.50	0	2.3240	0	34.9070	8	27.880	0	1621.108	0	35.5	4	10.8	4	-1E+10	1	-1E+10	1	-1E+10	1	-1E+10	1	-1E+10	1	-1E+10	1
4901784	125	C	12/06/2018	10:46	-133.268	43.013	0	1645.70	0	2.3170	0	34.9080	8	27.881	0	1626.226	0	36.0	4	11.0	4	-1E+10	1	-1E+10	1	-1E+10	1	-1E+10	1	-1E+10	1	-1E+10	1
4901784	125	C	12/06/2018	10:46	-133.268	43.013	0	1650.00	0	2.3070	0	34.9100	8	27.884	0	1630.459	0	36.3	4	11.1	4	-1E+10	1	-1E+10	1	-1E+10	1	-1E+10	1	-1E+10	1	-1E+10	1
4901784	125	C	12/06/2018	10:46	-133.268	43.013	0	1654.30	0	2.3020	0	34.9110	8	27.885	0	1634.691	0	36.5	4	11.1	4	-1E+10	1	-1E+10	1	-1E+10	1	-1E+10	1	-1E+10	1	-1E+10	1
4901784	125	C	12/06/2018	10:46	-133.268	43.013	0	1659.60	0	2.2990	0	34.9110	8	27.885	0	1639.908	0	36.7	4	11.2	4	-1E+10	1	-1E+10	1	-1E+10	1	-1E+10	1	-1E+10	1	-1E+10	1
4901784	125	C	12/06/2018	10:46	-133.268	43.013	0	1664.90	0	2.2950	0	34.9120	8	27.887	0	1645.124	0	37.0	4	11.3	4	-1E+10	1	-1E+10	1	-1E+10	1	-1E+10	1	-1E+10	1	-1E+10	1
4901784	125	C	12/06/2018	10:46	-133.268	43.013	0	1670.10	0	2.2900	0	34.9130	8	27.888	0	1650.242	0	37.1	4	11.3	4	-1E+10	1	-1E+10	1	-1E+10	1	-1E+10	1	-1E+10	1	-1E+10	1
4901784	125	C	12/06/2018	10:46	-133.268	43.013	0	1675.40	0	2.2850	0	34.9130	8	27.888	0	1655.459	0	37.3	4	11.4	4	-1E+10	1	-1E+10	1	-1E+10	1	-1E+10	1	-1E+10	1	-1E+10	1
4901784	125	C	12/06/2018	10:46	-133.268	43.013	0	1680.70	0	2.2760	0	34.9140	8	27.890	0	1660.675	0	37.7	4	11.5	4	-1E+10	1	-1E+10	1	-1E+10	1	-1E+10	1	-1E+10	1	-1E+10	1
4901784	125	C	12/06/2018	10:46	-133.268	43.013	0	1685.10	0	2.2710	0	34.9150	8	27.891	0	1665.005	0	38.0	4	11.6	4	-1E+10	1	-1E+10	1	-1E+10	1	-1E+10	1	-1E+10	1	-1E+10	1
4901784	125	C	12/06/2018	10:46	-133.268	43.013	0	1689.60	0	2.2660	0	34.9160	8	27.892	0	1669.434	0	38.4	4	11.7	4	-1E+10	1	-1E+10	1	-1E+10	1	-1E+10	1	-1E+10	1	-1E+10	1
4901784	125	C	12/06/2018	10:46	-133.268	43.013	0	1694.90	0	2.2600	0	34.9170	8	27.894	0	1674.650	0	38.8	4	11.8	4	-1E+10	1	-1E+10	1	-1E+10	1	-1E+10	1	-1E+10	1	-1E+10	1
4901784	125	C	12/06/2018	10:46	-133.268	43.013	0	1700.30	0	2.2500	0	34.9180	8	27.895	0	1679.964	0	39.1	4	11.9	4	-1E+10	1	-1E+10	1	-1E+10	1	-1E+10	1	-1E+10	1	-1E+10	1
4901784	125	C	12/06/2018	10:46	-133.268	43.013	0	1704.80	0	2.2450	0	34.9190	8	27.896	0	1684.392	0	39.4	4	12.0	4	-1E+10	1	-1E+10	1	-1E+10	1	-1E+10	1	-1E+10	1	-1E+10	1
4901784	125	C	12/06/2018	10:46	-133.268	43.013	0	1709.30	0	2.2390	0	34.9200	8	27.898	0	1688.820	0	39.6	4	12.0	4	-1E+10	1	-1E+10	1	-1E+10	1	-1E+10	1	-1E+10	1	-1E+10	1
4901784	125	C	12/06/2018	10:46	-133.268	43.013	0	1714.70	0	2.2370	0	34.9200	8	27.898	0	1694.134	0	39.8	4	12.1	4	-1E+10	1	-1E+10	1	-1E+10	1	-1E+10	1	-1E+10	1	-1E+10	1
4901784	125	C	12/06/2018	10:46	-133.268	43.013	0	1720.10	0	2.2340	0	34.9210	8	27.899	0	1699.448	0	40.0	4	12.2	4	-1E+10	1	-1E+10	1	-1E+10	1	-1E+10	1	-1E+10	1	-1E+10	1
4901784	125	C	12/06/2018	10:46	-133.268	43.013	0	1725.60	0	2.2300	0	34.9220	8	27.900	0	1704.859	0	40.4	4	12.3	4	-1E+10	1	-1E+10	1	-1E+10	1	-1E+10	1	-1E+10	1	-1E+10	1
4901784	125	C	12/06/2018	10:46	-133.268	43.013	0	1730.10	0	2.2260	0	34.9220	8	27.901	0	1709.287	0	40.7	4	12.4	4	-1E+10	1	-1E+10	1	-1E+10	1	-1E+10	1	-1E+10	1	-1E+10	1
4901784	125	C	12/06/2018	10:46	-133.268	43.013	0	1734.70	0	2.2170	0	34.9230	8	27.902	0	1713.813	0	41.1	4	12.5	4	-1E+10	1	-1E+10	1	-1E+10	1	-1E+10	1	-1E+10	1	-1E+10	1
4901784	125	C	12/06/2018	10:46	-133.268	43.013	0	1740.20	0	2.2100	0	34.9250	8	27.904	0	1719.225	0	41.4	4	12.6	4	-1E+10	1	-1E+10	1	-1E+10	1	-1E+10	1	-1E+10	1	-1E+10	1
4901784	125	C	12/06/2018	10:46	-133.268	43.013	0	1744.90	0	2.2070	0	34.9250	8	27.905	0	1723.849	0	41.6	4	12.6	4	-1E+10	1	-1E+10	1	-1E+10	1	-1E+10	1	-1E+10	1	-1E+10	1
4901784	125	C	12/06/2018	10:46	-133.268	43.013	0	1749.50	0	2.2040	0	34.9260	8	27.906	0	1728.375	0	41.8	4	12.7	4	-1E+10	1	-1E+10	1	-1E+10	1	-1E+10	1	-1E+10	1	-1E+10	1
4901784	125	C	12/06/2018	10:46	-133.268	43.013	0	1755.10	0	2.2000	0	34.9260	8	27.906	0	1733.884	0	42.1	4	12.8	4	-1E+10	1	-1E+10	1	-1E+10	1	-1E+10	1	-1E+10	1	-1E+10	1
4901784	125	C	12/06/2018	10:46	-133.268	43.013	0	1760.60	0	2.1950	0	34.9270	8	27.907	0	1739.295	0	42.3	4	12.9	4	-1E+10	1	-1E+10	1	-1E+10	1	-1E+10	1	-1E+10	1	-1E+10	1
4901784	125	C	12/06/2018	10:46	-133.268	43.013	0	1765.20	0	2.1940	0	34.9270	8	27.907	0	1743.821	0	42.5	4	12.9	4	-1E+10	1	-1E+10	1	-1E+10	1	-1E+10	1	-1E+10	1	-1E+10	1
4901784	125	C	12/06/2018	10:46	-133.268	43.013	0	1769.90	0	2.1900	0	34.9280	8	27.909	0	1748.445	0	42.9	4	13.0	4	-1E+10	1	-1E+10	1	-1E+10	1	-1E+10	1	-1E+10	1	-1E+10	1
4901784	125	C	12/06/2018	10:46	-133.268	43.013	0	1775.50	0	2.1820	0	34.9290	8	27.910	0	1753.954	0	43.2	4	13.1	4	-1E+10	1	-1E+10	1	-1E+10	1	-1E+10	1	-1E+10	1	-1E+10	1
4901784	125	C	12/06/2018	10:46	-133.268	43.013	0	1779.60	0	2.1800	0	34.9300	8	27.911	0	1757.987	0	43.4	4	13.2	4	-1E+10	1	-1E+10	1	-1E+10	1	-1E+10	1	-1E+10	1	-1E+10	1
4901784	125	C	12/06/2018	10:46	-133.268	43.013	0	1784.50	0	2.1760	0	34.9300	8	27.911	0	1762.807	0	43.8	4	13.3	4	-1E+10	1	-1E+10	1	-1E+10	1	-1E+10	1	-1E+10	1	-1E+10	1
4901784	125	C	12/06/2018	10:46	-133.268	43.013	0	1789.40	0	2.1720	0	34.9310	8	27.912	0	1767.627	0	44.2	4	13.4	4	-1E+10	1	-1E+10	1	-1E+10	1	-1E+10	1	-1E+10	1	-1E+10	1
4901784	125	C	12/06/2018	10:46	-133.268	43.013	0	1794.30	0	2.1660	0	34.9310	8	27.913	0	1772.447	0	44.5	4	13.5	4	-1E+10	1	-1E+10	1	-1E+10	1	-1E+10	1	-1E+10	1	-1E+10	1
4901784	125	C	12/06/2018	10:46	-133.268	43.013	0	1799.40	0	2.1600	0	34.9320	8	27.914	0	1777.464	0	44.9	4	13.6	4	-1E+10	1	-1E+10	1	-1E+10	1	-1E+10	1	-1E+10	1	-1E+10	1
4901784	125	C	12/06/2018	10:46	-133.268	43.013	0	1804.40	0	2.1520	0	34.9330	8	27.916	0	1782.382	0	45.2	4	13.7	4	-1E+10	1	-1E+10	1	-1E+10	1	-1E+10	1	-1E+10	1	-1E+10	1
4901784	125	C	12/06/2018	10:46	-133.268	43.013	0	1809.40	0	2.1480	0	34.9340	8	27.917	0	1787.300	0	45.5	4	13.8	4	-1E+10	1	-1E+10	1	-1E+10	1	-1E+10	1	-1E+10	1	-1E+10	1
4901784	125	C	12/06/2018	10:46	-133.268	43.013	0	1814.40	0	2.1430	0	34.9350	8	27.918	0	1792.218	0	45.6	4	13.8	4	-1E+10	1	-1E+10	1	-1E+10	1	-1E+10	1	-1E+10	1	-1E+10	1
4901784	125	C	12/06/2018	10:46	-133.268	43.013	0	1819.40	0	2.1420	0	34.9350	8	27.918	0	1797.135	0	45.8	4	13.9	4	-1E+10	1	-1E+10	1	-1E+10	1	-1E+10	1	-1E+10	1	-1E+10	1
4901784	125	C	12/06/2018	10:46	-133.268	43.013	0	1824.40	0	2.1400	0	34.9360	8	27.919	0	1802.053	0	46.0	4	14.0	4	-1E+10	1	-1E+10	1	-1E+10	1	-1E+10	1	-1E+10	1	-1E+10	1
4901784	125	C	12/06/2018	10:46	-133.268	43.013	0	1829.40	0	2.1360	0	34.9360	8	27.920	0	1806.970	0	46.3	4	14.1	4	-1E+10	1	-1E+10	1	-1E+10	1	-1E+10	1	-1E+10	1	-1E+10	1
4901784	125	C	12/06/2018	10:46	-133.268	43.013	0	1834.40	0	2.1290	0	34.9370	8	27.921	0	1811.888	0	46.7	4	14.2	4	-1E+10	1	-1E+10	1	-1E+10	1	-1E+10	1	-1E+10	1	-1E+10	1
4901784	125	C	12/06/2018	10:46	-133.268	43.013	0	1839.50	0	2.1220	0	34.9380	8	27.922	0	1816.903	0	46.9	4	14.2	4	-1E+10	1	-1E+10	1	-1E+10	1	-1E+10	1	-1E+10	1	-1E+10	1
4901784	125	C	12/06/2018	10:46	-133.268	43.013	0	1844.60	0	2.1210	0	34.9380	8	27.923	0	1821.919	0	47.1	4	14.3	4	-1E+10	1	-1E+10	1	-1E+10	1	-1E+10	1	-1E+10	1	-1E+10	1
4901784	125	C	12/06/2018	10:46	-133.268	43.013	0	1849.70	0	2.1180	0	34.9390	8	27.924	0	1826.934	0	47.3	4	14.3	4	-1E+10	1	-1E+10	1	-1E+10	1	-1E+10	1	-1E+10	1	-1E+10	1
4901784	125	C	12/06/2018	10:46	-133.268	43.013	0	1854.80	0	2.1150	0	34.9390	8	27.924	0	1831.950	0	47.7	4	14.4	4	-1E+10	1	-1E+10	1	-1E+10	1	-1E+10	1	-1E+10	1	-1E+10	1
4901784	125	C	12/06/2018	10:46	-133.268	43.013	0	1859.90	0	2.1080	0	34.9400	8	27.925	0	1836.965	0	48.1	4	14.6	4	-1E+10	1	-1E+10	1	-1E+10	1	-1E+10	1	-1E+10	1	-1E+10	1
4901784	125	C	12/06/2018	10:46	-133.268	43.013	0	1865.00	0	2.0990	0	34.9410	8	27.927	0	1841.980	0	48.5	4	14.7	4	-1E+10	1	-1E+10	1	-1E+10	1	-1E+10	1	-1E+10	1	-1E+10	1
4901784	125	C	12/06/2018	10:46	-133.268	43.013	0	1870.10	0	2.0930	0	34.9420	8	27.928	0	1846.995	0	48.7	4	14.8	4	-1E+10	1	-1E+10	1	-1E+10	1	-1E+10	1	-1E+10	1	-1E+10	1
4901784	125	C	12/06/2018	10:46	-133.268	43.013	0	1875.20	0	2.0890	0	34.9420	8	27.928	0	1852.009	0	48.9	4	14.8	4	-1E+10	1	-1E+10	1	-1E+10	1	-1E+10	1	-1E+10	1	-1E+10	1
4901784	125	C	12/06/2018	10:46	-133.268	43.013	0	1880.40	0	2.0880	0	34.9430	8	27.929	0	1857.123	0	49.1	4	14.9	4	-1E+10	1	-1E+10	1	-1E+10	1	-1E+10	1	-1E+10	1	-1E+10	1
4901784	125	C	12/06/2018	10:46	-133.268	43.013	0	1885.50	0	2.0840	0	34.9430	8	27.930	0	1862.137	0	49.5	4	15.0	4	-1E+10	1	-1E+10	1	-1E+10	1	-1E+10	1	-1E+10	1	-1E+10	1
4901784	125	C	12/06/2018	10:46	-133.268	43.013	0	1890.70	0	2.0800	0	34.9440	8	27.931	0	1867.250	0	49.9	4	15.1	4	-1E+10	1	-1E+10	1	-1E+10	1	-1E+10	1	-1E+10	1	-1E+10	1
4901784	125	C	12/06/2018	10:46	-133.268	43.013	0	1895.00	0	2.0750	0	34.9450	8	27.932	0	1871.478	0	50.3	4	15.2	4	-1E+10	1	-1E+10	1	-1E+10	1	-1E+10	1	-1E+10	1	-1E+10	1
4901784	125	C	12/06/2018	10:46	-133.268	43.013	0	1899.30	0	2.0670	0	34.9460	8	27.934	0	1875.705	0	50.9	4	15.4	4	-1E+10	1	-1E+10	1	-1E+10	1	-1E+10	1	-1E+10	1	-1E+10	1
4901784	125	C	12/06/2018	10:46	-133.268	43.013	0	1904.50	0	2.0580	0	34.9470	8	27.935	0	1880.818	0	51.5	4	15.6	4	-1E+10	1	-1E+10	1	-1E+10	1	-1E+10	1	-1E+10	1	-1E+10	1
4901784	125	C	12/06/2018	10:46	-133.268	43.013	0	1909.70	0	2.0470	0	34.9490	8	27.938	0	1885.930	0	52.1	4	15.8	4	-1E+10	1	-1E+10	1	-1E+10	1	-1E+10	1	-1E+10	1	-1E+10	1
4901784	125	C	12/06/2018	10:46	-133.268	43.013	0	1915.00	0	2.0390	0	34.9500	8	27.939	0	1891.141	0	52.6	4	15.9	4	-1E+10	1	-1E+10	1	-1E+10	1	-1E+10	1	-1E+10	1	-1E+10	1
4901784	125	C	12/06/2018	10:46	-133.268	43.013	0	1920.30	0	2.0340	0	34.9510	8	27.940	0	1896.351	0	53.0	4	16.0	4	-1E+10	1	-1E+10	1	-1E+10	1	-1E+10	1	-1E+10	1	-1E+10	1
4901784	125	C	12/06/2018	10:46	-133.268	43.013	0	1925.70	0	2.0280	0	34.9520	8	27.942	0	1901.659	0	53.4	4	16.2	4	-1E+10	1	-1E+10	1	-1E+10	1	-1E+10	1	-1E+10	1	-1E+10	1
4901784	125	C	12/06/2018	10:46	-133.268	43.013	0	1930.10	0	2.0250	0	34.9530	8	27.943	0	1905.985	0	53.7	4	16.2	4	-1E+10	1	-1E+10	1	-1E+10	1	-1E+10	1	-1E+10	1	-1E+10	1
4901784	125	C	12/06/2018	10:46	-133.268	43.013	0	1934.60	0	2.0200	0	34.9540	8	27.944	0	1910.408	0	54.0	4	16.3	4	-1E+10	1	-1E+10	1	-1E+10	1	-1E+10	1	-1E+10	1	-1E+10	1
4901784	125	C	12/06/2018	10:46	-133.268	43.013	0	1940.00	0	2.0150	0	34.9550	8	27.945	0	1915.717	0	54.3	4	16.4	4	-1E+10	1	-1E+10	1	-1E+10	1	-1E+10	1	-1E+10	1	-1E+10	1
4901784	125	C	12/06/2018	10:46	-133.268	43.013	0	1945.30	0	2.0110	0	34.9550	8	27.945	0	1920.926	0	54.6	4	16.5	4	-1E+10	1	-1E+10	1	-1E+10	1	-1E+10	1	-1E+10	1	-1E+10	1
4901784	125	C	12/06/2018	10:46	-133.268	43.013	0	1950.70	0	2.0090	0	34.9560	8	27.946	0	1926.234	0	54.8	4	16.6	4	-1E+10	1	-1E+10	1	-1E+10	1	-1E+10	1	-1E+10	1	-1E+10	1
4901784	125	C	12/06/2018	10:46	-133.268	43.013	0	1955.20	0	2.0060	0	34.9570	8	27.947	0	1930.657	0	55.1	4	16.6	4	-1E+10	1	-1E+10	1	-1E+10	1	-1E+10	1	-1E+10	1	-1E+10	1
4901784	125	C	12/06/2018	10:46	-133.268	43.013	0	1959.80	0	2.0040	0	34.9570	8	27.948	0	1935.179	0	55.2	4	16.7	4	-1E+10	1	-1E+10	1	-1E+10	1	-1E+10	1	-1E+10	1	-1E+10	1
4901784	125	C	12/06/2018	10:46	-133.268	43.013	0	1965.20	0	2.0010	0	34.9580	8	27.949	0	1940.486	0	55.4	4	16.8	4	-1E+10	1	-1E+10	1	-1E+10	1	-1E+10	1	-1E+10	1	-1E+10	1
4901784	125	C	12/06/2018	10:46	-133.268	43.013	0	1970.60	0	2.0000	0	34.9580	8	27.949	0	1945.794	0	55.7	4	16.9	4	-1E+10	1	-1E+10	1	-1E+10	1	-1E+10	1	-1E+10	1	-1E+10	1
4901784	125	C	12/06/2018	10:46	-133.268	43.013	0	1975.50	0	1.9950	0	34.9580	8	27.949	0	1950.610	0	56.2	4	17.0	4	-1E+10	1	-1E+10	1	-1E+10	1	-1E+10	1	-1E+10	1	-1E+10	1
4901784	125	C	12/06/2018	10:46	-133.268	43.013	0	1980.40	0	1.9870	0	34.9600	8	27.951	0	1955.426	0	56.7	4	17.2	4	-1E+10	1	-1E+10	1	-1E+10	1	-1E+10	1	-1E+10	1	-1E+10	1
4901784	125	C	12/06/2018	10:46	-133.268	43.013	0	1985.30	0	1.9820	0	34.9610	8	27.953	0	1960.241	0	57.1	4	17.2	4	-1E+10	1	-1E+10	1	-1E+10	1	-1E+10	1	-1E+10	1	-1E+10	1
4901784	125	C	12/06/2018	10:46	-133.268	43.013	0	1990.10	0	1.9780	0	34.9610	8	27.953	0	1964.959	0	57.5	4	17.4	4	-1E+10	1	-1E+10	1	-1E+10	1	-1E+10	1	-1E+10	1	-1E+10	1
4901784	125	C	12/06/2018	10:46	-133.268	43.013	0	1995.10	0	1.9700	0	34.9630	8	27.955	0	1969.872	0	57.9	4	17.5	4	-1E+10	1	-1E+10	1	-1E+10	1	-1E+10	1	-1E+10	1	-1E+10	1
4901784	125	C	12/06/2018	10:46	-133.268	43.013	0	2000.00	0	1.9670	0	34.9630	8	27.956	0	1974.688	0	58.1	4	17.5	4	-1E+10	1	-1E+10	1	-1E+10	1	-1E+10	1	-1E+10	1	-1E+10	1
4901784	125	C	12/06/2018	10:46	-133.268	43.013	0	2005.10	0	1.9660	0	34.9630	8	27.956	0	1979.699	0	58.2	4	17.6	4	-1E+10	1	-1E+10	1	-1E+10	1	-1E+10	1	-1E+10	1	-1E+10	1
4901784	125	C	12/06/2018	10:46	-133.268	43.013	0	2010.20	0	1.9640	0	34.9640	8	27.957	0	1984.711	0	58.4	4	17.7	4	-1E+10	1	-1E+10	1	-1E+10	1	-1E+10	1	-1E+10	1	-1E+10	1
4901784	125	C	12/06/2018	10:46	-133.268	43.013	0	2015.30	0	1.9610	0	34.9640	8	27.957	0	1989.723	0	58.7	4	17.7	4	-1E+10	1	-1E+10	1	-1E+10	1	-1E+10	1	-1E+10	1	-1E+10	1
4901784	125	C	12/06/2018	10:46	-133.268	43.013	0	2020.30	0	1.9580	0	34.9650	8	27.958	0	1994.636	0	58.8	4	17.8	4	-1E+10	1	-1E+10	1	-1E+10	1	-1E+10	1	-1E+10	1	-1E+10	1
4901784	125	C	12/06/2018	10:46	-133.268	43.013	0																										
4901784	126	C	12/16/2018	10:40	-133.217	43.026	0	2.40	0	13.8110	0	32.9510	8	24.644	0	2.381	0	245.7	4	95.5	4	-1E+10	1	-1E+10	1	-1E+10	1	-1E+10	1	-1E+10	1	-1E+10	1
4901784	126	C	12/16/2018	10:40	-133.217	43.026	0	3.70	0	13.8080	0	32.9500	8	24.644	0	3.671	0	245.7	4	95.5	4	-1E+10	1	-1E+10	1	-1E+10	1	-1E+10	1	-1E+10	1	-1E+10	1
4901784	126	C	12/16/2018	10:40	-133.217	43.026	0	5.20	0	13.8100	0	32.9510	8	24.644	0	5.159	0	245.6	4	95.4	4	-1E+10	1	-1E+10	1	-1E+10	1	-1E+10	1	-1E+10	1	-1E+10	1
4901784	126	C	12/16/2018	10:40	-133.217	43.026	0	6.80	0	13.8090	0	32.9500	8	24.643	0	6.746	0	245.5	4	95.4	4	-1E+10	1	-1E+10	1	-1E+10	1	-1E+10	1	-1E+10	1	-1E+10	1
4901784	126	C	12/16/2018	10:40	-133.217	43.026	0	8.60	0	13.8090	0	32.9500	8	24.643	0	8.532	0	245.5	4	95.4	4	-1E+10	1	-1E+10	1	-1E+10	1	-1E+10	1	-1E+10	1	-1E+10	1
4901784	126	C	12/16/2018	10:40	-133.217	43.026	0	10.40	0	13.8090	0	32.9500	8	24.644	0	10.317	0	245.3	4	95.3	4	-1E+10	1	-1E+10	1	-1E+10	1	-1E+10	1	-1E+10	1	-1E+10	1
4901784	126	C	12/16/2018	10:40	-133.217	43.026	0	12.30	0	13.8090	0	32.9500	8	24.644	0	12.202	0	245.4	4	95.3	4	-1E+10	1	-1E+10	1	-1E+10	1	-1E+10	1	-1E+10	1	-1E+10	1
4901784	126	C	12/16/2018	10:40	-133.217	43.026	0	14.50	0	13.8090	0	32.9500	8	24.644	0	14.384	0	245.5	4	95.4	4	-1E+10	1	-1E+10	1	-1E+10	1	-1E+10	1	-1E+10	1	-1E+10	1
4901784	126	C	12/16/2018	10:40	-133.217	43.026	0	16.50	0	13.8090	0	32.9500	8	24.644	0	16.368	0	245.3	4	95.3	4	-1E+10	1	-1E+10	1	-1E+10	1	-1E+10	1	-1E+10	1	-1E+10	1
4901784	126	C	12/16/2018	10:40	-133.217	43.026	0	18.50	0	13.8100	0	32.9500	8	24.644	0	18.352	0	245.1	4	95.2	4	-1E+10	1	-1E+10	1	-1E+10	1	-1E+10	1	-1E+10	1	-1E+10	1
4901784	126	C	12/16/2018	10:40	-133.217	43.026	0	20.50	0	13.8120	0	32.9510	8	24.644	0	20.336	0	245.1	4	95.2	4	-1E+10	1	-1E+10	1	-1E+10	1	-1E+10	1	-1E+10	1	-1E+10	1
4901784	126	C	12/16/2018	10:40	-133.217	43.026	0	22.50	0	13.8170	0	32.9520	8	24.644	0	22.320	0	245.0	4	95.2	4	-1E+10	1	-1E+10	1	-1E+10	1	-1E+10	1	-1E+10	1	-1E+10	1
4901784	126	C	12/16/2018	10:40	-133.217	43.026	0	24.50	0	13.8190	0	32.9540	8	24.645	0	24.304	0	244.9	4	95.2	4	-1E+10	1	-1E+10	1	-1E+10	1	-1E+10	1	-1E+10	1	-1E+10	1
4901784	126	C	12/16/2018	10:40	-133.217	43.026	0	26.50	0	13.8130	0	32.9510	8	24.644	0	26.288	0	245.0	4	95.2	4	-1E+10	1	-1E+10	1	-1E+10	1	-1E+10	1	-1E+10	1	-1E+10	1
4901784	126	C	12/16/2018	10:40	-133.217	43.026	0	28.50	0	13.8130	0	32.9500	8	24.643	0	28.272	0	244.9	4	95.1	4	-1E+10	1	-1E+10	1	-1E+10	1	-1E+10	1	-1E+10	1	-1E+10	1
4901784	126	C	12/16/2018	10:40	-133.217	43.026	0	30.60	0	13.8140	0	32.9520	8	24.645	0	30.355	0	244.8	4	95.1	4	-1E+10	1	-1E+10	1	-1E+10	1	-1E+10	1	-1E+10	1	-1E+10	1
4901784	126	C	12/16/2018	10:40	-133.217	43.026	0	32.50	0	13.8150	0	32.9520	8	24.644	0	32.240	0	244.8	4	95.1	4	-1E+10	1	-1E+10	1	-1E+10	1	-1E+10	1	-1E+10	1	-1E+10	1
4901784	126	C	12/16/2018	10:40	-133.217	43.026	0	34.50	0	13.8150	0	32.9520	8	24.645	0	34.223	0	244.8	4	95.1	4	-1E+10	1	-1E+10	1	-1E+10	1	-1E+10	1	-1E+10	1	-1E+10	1
4901784	126	C	12/16/2018	10:40	-133.217	43.026	0	36.60	0	13.8150	0	32.9510	8	24.644	0	36.306	0	244.5	4	95.0	4	-1E+10	1	-1E+10	1	-1E+10	1	-1E+10	1	-1E+10	1	-1E+10	1
4901784	126	C	12/16/2018	10:40	-133.217	43.026	0	38.70	0	13.8140	0	32.9510	8	24.644	0	38.389	0	244.6	4	95.1	4	-1E+10	1	-1E+10	1	-1E+10	1	-1E+10	1	-1E+10	1	-1E+10	1
4901784	126	C	12/16/2018	10:40	-133.217	43.026	0	40.80	0	13.8140	0	32.9510	8	24.644	0	40.472	0	244.4	4	95.0	4	-1E+10	1	-1E+10	1	-1E+10	1	-1E+10	1	-1E+10	1	-1E+10	1
4901784	126	C	12/16/2018	10:40	-133.217	43.026	0	42.80	0	13.8130	0	32.9510	8	24.644	0	42.456	0	244.3	4	94.9	4	-1E+10	1	-1E+10	1	-1E+10	1	-1E+10	1	-1E+10	1	-1E+10	1
4901784	126	C	12/16/2018	10:40	-133.217	43.026	0	44.70	0	13.8250	0	32.9570	8	24.647	0	44.340	0	244.3	4	95.0	4	-1E+10	1	-1E+10	1	-1E+10	1	-1E+10	1	-1E+10	1	-1E+10	1
4901784	126	C	12/16/2018	10:40	-133.217	43.026	0	46.50	0	13.8240	0	32.9560	8	24.646	0	46.126	0	244.3	4	95.0	4	-1E+10	1	-1E+10	1	-1E+10	1	-1E+10	1	-1E+10	1	-1E+10	1
4901784	126	C	12/16/2018	10:40	-133.217	43.026	0	48.40	0	13.8220	0	32.9560	8	24.647	0	48.010	0	244.2	4	94.9	4	-1E+10	1	-1E+10	1	-1E+10	1	-1E+10	1	-1E+10	1	-1E+10	1
4901784	126	C	12/16/2018	10:40	-133.217	43.026	0	50.30	0	13.8230	0	32.9560	8	24.646	0	49.895	0	243.9	4	94.8	4	-1E+10	1	-1E+10	1	-1E+10	1	-1E+10	1	-1E+10	1	-1E+10	1
4901784	126	C	12/16/2018	10:40	-133.217	43.026	0	52.10	0	13.8220	0	32.9550	8	24.646	0	51.680	0	243.7	4	94.7	4	-1E+10	1	-1E+10	1	-1E+10	1	-1E+10	1	-1E+10	1	-1E+10	1
4901784	126	C	12/16/2018	10:40	-133.217	43.026	0	54.00	0	13.8240	0	32.9560	8	24.646	0	53.564	0	243.7	4	94.7	4	-1E+10	1	-1E+10	1	-1E+10	1	-1E+10	1	-1E+10	1	-1E+10	1
4901784	126	C	12/16/2018	10:40	-133.217	43.026	0	55.70	0	13.8260	0	32.9560	8	24.646	0	55.250	0	243.5	4	94.7	4	-1E+10	1	-1E+10	1	-1E+10	1	-1E+10	1	-1E+10	1	-1E+10	1
4901784	126	C	12/16/2018	10:40	-133.217	43.026	0	57.50	0	13.8310	0	32.9590	8	24.647	0	57.036	0	243.4	4	94.6	4	-1E+10	1	-1E+10	1	-1E+10	1	-1E+10	1	-1E+10	1	-1E+10	1
4901784	126	C	12/16/2018	10:40	-133.217	43.026	0	59.20	0	13.8320	0	32.9580	8	24.646	0	58.722	0	243.3	4	94.6	4	-1E+10	1	-1E+10	1	-1E+10	1	-1E+10	1	-1E+10	1	-1E+10	1
4901784	126	C	12/16/2018	10:40	-133.217	43.026	0	61.10	0	13.8340	0	32.9580	8	24.646	0	60.606	0	243.1	4	94.5	4	-1E+10	1	-1E+10	1	-1E+10	1	-1E+10	1	-1E+10	1	-1E+10	1
4901784	126	C	12/16/2018	10:40	-133.217	43.026	0	62.80	0	13.8370	0	32.9580	8	24.645	0	62.292	0	243.2	4	94.5	4	-1E+10	1	-1E+10	1	-1E+10	1	-1E+10	1	-1E+10	1	-1E+10	1
4901784	126	C	12/16/2018	10:40	-133.217	43.026	0	64.70	0	13.8380	0	32.9570	8	24.645	0	64.176	0	243.2	4	94.6	4	-1E+10	1	-1E+10	1	-1E+10	1	-1E+10	1	-1E+10	1	-1E+10	1
4901784	126	C	12/16/2018	10:40	-133.217	43.026	0	66.50	0	13.8350	0	32.9510	8	24.641	0	65.962	0	243.2	4	94.5	4	-1E+10	1	-1E+10	1	-1E+10	1	-1E+10	1	-1E+10	1	-1E+10	1
4901784	126	C	12/16/2018	10:40	-133.217	43.026	0	66.90	0	13.8340	0	32.9490	8	24.639	0	66.358	0	243.3	4	94.6	4	-1E+10	1	-1E+10	1	-1E+10	1	-1E+10	1	-1E+10	1	-1E+10	1
4901784	126	C	12/16/2018	10:40	-133.217	43.026	0	68.30	0	13.8390	0	32.9480	8	24.638	0	67.747	0	243.7	4	94.7	4	-1E+10	1	-1E+10	1	-1E+10	1	-1E+10	1	-1E+10	1	-1E+10	1
4901784	126	C	12/16/2018	10:40	-133.217	43.026	0	69.80	0	13.8380	0	32.9390	8	24.631	0	69.234	0	244.3	4	95.0	4	-1E+10	1	-1E+10	1	-1E+10	1	-1E+10	1	-1E+10	1	-1E+10	1
4901784	126	C	12/16/2018	10:40	-133.217	43.026	0	71.20	0	13.8260	0	32.9240	8	24.622	0	70.623	0	245.3	4	95.3	4	-1E+10	1	-1E+10	1	-1E+10	1	-1E+10	1	-1E+10	1	-1E+10	1
4901784	126	C	12/16/2018	10:40	-133.217	43.026	0	72.70	0	13.7080	0	32.9170	8	24.640	0	72.110	0	246.8	4	95.7	4	-1E+10	1	-1E+10	1	-1E+10	1	-1E+10	1	-1E+10	1	-1E+10	1
4901784	126	C	12/16/2018	10:40	-133.217	43.026	0	74.00	0	13.5160	0	32.8580	8	24.634	0	73.400	0	249.3	4	96.2	4	-1E+10	1	-1E+10	1	-1E+10	1	-1E+10	1	-1E+10	1	-1E+10	1
4901784	126	C	12/16/2018	10:40	-133.217	43.026	0	75.50	0	12.0740	0	32.8190	8	24.884	0	74.887	0	255.9	4	95.9	4	-1E+10	1	-1E+10	1	-1E+10	1	-1E+10	1	-1E+10	1	-1E+10	1
4901784	126	C	12/16/2018	10:40	-133.217	43.026	0	77.10	0	10.6050	0	32.8130	8	25.144	0	76.474	0	264.1	4	95.9	4	-1E+10	1	-1E+10	1	-1E+10	1	-1E+10	1	-1E+10	1	-1E+10	1
4901784	126	C	12/16/2018	10:40	-133.217	43.026	0	78.80	0	10.0260	0	32.8030	8	25.234	0	78.160	0	268.7	4	96.4	4	-1E+10	1	-1E+10	1	-1E+10	1	-1E+10	1	-1E+10	1	-1E+10	1
4901784	126	C	12/16/2018	10:40	-133.217	43.026	0	80.70	0	9.7150	0	32.8210	8	25.300	0	80.044	0	268.8	4	95.8	4	-1E+10	1	-1E+10	1	-1E+10	1	-1E+10	1	-1E+10	1	-1E+10	1
4901784	126	C	12/16/2018	10:40	-133.217	43.026	0	82.60	0	9.5080	0	32.8120	8	25.326	0	81.928	0	268.5	4	95.2	4	-1E+10	1	-1E+10	1	-1E+10	1	-1E+10	1	-1E+10	1	-1E+10	1
4901784	126	C	12/16/2018	10:40	-133.217	43.026	0	84.60	0	9.5310	0	32.8550	8	25.356	0	83.911	0	267.4	4	94.9	4	-1E+10	1	-1E+10	1	-1E+10	1	-1E+10	1	-1E+10	1	-1E+10	1
4901784	126	C	12/16/2018	10:40	-133.217	43.026	0	86.40	0	9.4660	0	32.8500	8	25.363	0	85.696	0	266.3	4	94.4	4	-1E+10	1	-1E+10	1	-1E+10	1	-1E+10	1	-1E+10	1	-1E+10	1
4901784	126	C	12/16/2018	10:40	-133.217	43.026	0	88.20	0	9.5330	0	32.8750	8	25.372	0	87.481	0	264.6	4	94.0	4	-1E+10	1	-1E+10	1	-1E+10	1	-1E+10	1	-1E+10	1	-1E+10	1
4901784	126	C	12/16/2018	10:40	-133.217	43.026	0	90.00	0	9.5710	0	32.8980	8	25.383	0	89.266	0	262.9	4	93.4	4	-1E+10	1	-1E+10	1	-1E+10	1	-1E+10	1	-1E+10	1	-1E+10	1
4901784	126	C	12/16/2018	10:40	-133.217	43.026	0	91.80	0	9.5070	0	32.9160	8	25.408	0	91.051	0	260.9	4	92.6	4	-1E+10	1	-1E+10	1	-1E+10	1	-1E+10	1	-1E+10	1	-1E+10	1
4901784	126	C	12/16/2018	10:40	-133.217	43.026	0	93.70	0	9.3420	0	32.8760	8	25.403	0	92.935	0	261.1	4	92.3	4	-1E+10	1	-1E+10	1	-1E+10	1	-1E+10	1	-1E+10	1	-1E+10	1
4901784	126	C	12/16/2018	10:40	-133.217	43.026	0	95.70	0	9.4400	0	32.9190	8	25.421	0	94.918	0	259.2	4	91.9	4	-1E+10	1	-1E+10	1	-1E+10	1	-1E+10	1	-1E+10	1	-1E+10	1
4901784	126	C	12/16/2018	10:40	-133.217	43.026	0	97.60	0	9.4500	0	32.9180	8	25.419	0	96.802	0	257.8	4	91.4	4	-1E+10	1	-1E+10	1	-1E+10	1	-1E+10	1	-1E+10	1	-1E+10	1
4901784	126	C	12/16/2018	10:40	-133.217	43.026	0	99.40	0	9.2760	0	32.9150	8	25.444	0	98.587	0	257.1	4	90.8	4	-1E+10	1	-1E+10	1	-1E+10	1	-1E+10	1	-1E+10	1	-1E+10	1
4901784	126	C	12/16/2018	10:40	-133.217	43.026	0	102.20	0	9.3030	0	32.9220	8	25.445	0	101.364	0	255.2	4	90.2	4	-1E+10	1	-1E+10	1	-1E+10	1	-1E+10	1	-1E+10	1	-1E+10	1
4901784	126	C	12/16/2018	10:40	-133.217	43.026	0	105.00	0	9.3250	0	32.9380	8	25.455	0	104.140	0	253.1	4	89.5	4	-1E+10	1	-1E+10	1	-1E+10	1	-1E+10	1	-1E+10	1	-1E+10	1
4901784	126	C	12/16/2018	10:40	-133.217	43.026	0	106.80	0	9.1940	0	32.9320	8	25.471	0	105.925	0	252.3	4	88.9	4	-1E+10	1	-1E+10	1	-1E+10	1	-1E+10	1	-1E+10	1	-1E+10	1
4901784	126	C	12/16/2018	10:40	-133.217	43.026	0	109.90	0	9.0520	0	32.9260	8	25.488	0	108.999	0	251.5	4	88.4	4	-1E+10	1	-1E+10	1	-1E+10	1	-1E+10	1	-1E+10	1	-1E+10	1
4901784	126	C	12/16/2018	10:40	-133.217	43.026	0	112.60	0	8.9440	0	32.9540	8	25.527	0	111.676	0	249.3	4	87.4	4	-1E+10	1	-1E+10	1	-1E+10	1	-1E+10	1	-1E+10	1	-1E+10	1
4901784	126	C	12/16/2018	10:40	-133.217	43.026	0	114.80	0	8.6060	0	32.9420	8	25.570	0	113.857	0	249.6	4	86.9	4	-1E+10	1	-1E+10	1	-1E+10	1	-1E+10	1	-1E+10	1	-1E+10	1
4901784	126	C	12/16/2018	10:40	-133.217	43.026	0	117.90	0	8.5120	0	32.9680	8	25.604	0	116.931	0	248.6	4	86.4	4	-1E+10	1	-1E+10	1	-1E+10	1	-1E+10	1	-1E+10	1	-1E+10	1
4901784	126	C	12/16/2018	10:40	-133.217	43.026	0	120.40	0	8.4250	0	32.9700	8	25.619	0	119.410	0	247.4	4	85.8	4	-1E+10	1	-1E+10	1	-1E+10	1	-1E+10	1	-1E+10	1	-1E+10	1
4901784	126	C	12/16/2018	10:40	-133.217	43.026	0	122.70	0	8.3730	0	32.9810	8	25.636	0	121.690	0	246.2	4	85.3	4	-1E+10	1	-1E+10	1	-1E+10	1	-1E+10	1	-1E+10	1	-1E+10	1
4901784	126	C	12/16/2018	10:40	-133.217	43.026	0	125.00	0	8.4550	0	33.0330	8	25.664	0	123.970	0	243.6	4	84.5	4	-1E+10	1	-1E+10	1	-1E+10	1	-1E+10	1	-1E+10	1	-1E+10	1
4901784	126	C	12/16/2018	10:40	-133.217	43.026	0	127.30	0	8.1340	0	33.0820	8	25.750	0	126.251	0	243.0	4	83.8	4	-1E+10	1	-1E+10	1	-1E+10	1	-1E+10	1	-1E+10	1	-1E+10	1
4901784	126	C	12/16/2018	10:40	-133.217	43.026	0	129.70	0	8.0680	0	33.1260	8	25.794	0	128.630	0	241.5	4	83.2	4	-1E+10	1	-1E+10	1	-1E+10	1	-1E+10	1	-1E+10	1	-1E+10	1
4901784	126	C	12/16/2018	10:40	-133.217	43.026	0	132.20	0	7.9860	0	33.1750	8	25.845	0	131.109	0	239.8	4	82.4	4	-1E+10	1	-1E+10	1	-1E+10	1	-1E+10	1	-1E+10	1	-1E+10	1
4901784	126	C	12/16/2018	10:40	-133.217	43.026	0	134.90	0	7.9350	0	33.2390	8	25.903	0	133.786	0	238.0	4	81.8	4	-1E+10	1	-1E+10	1	-1E+10	1	-1E+10	1	-1E+10	1	-1E+10	1
4901784	126	C	12/16/2018	10:40	-133.217	43.026	0	137.70	0	7.9140	0	33.3060	8	25.958	0	136.562	0	236.3	4	81.2	4	-1E+10	1	-1E+10	1	-1E+10	1	-1E+10	1	-1E+10	1	-1E+10	1
4901784	126	C	12/16/2018	10:40	-133.217	43.026	0	139.90	0	7.8670	0	33.3270	8	25.982	0	138.743	0	234.7	4	80.6	4	-1E+10	1	-1E+10	1	-1E+10	1	-1E+10	1	-1E+10	1	-1E+10	1
4901784	126	C	12/16/2018	10:40	-133.217	43.026	0	143.00	0	7.8900	0	33.3950	8	26.032	0	141.816	0	232.1	4	79.8	4	-1E+10	1	-1E+10	1	-1E+10	1	-1E+10	1	-1E+10	1	-1E+10	1
4901784	126	C	12/16/2018	10:40	-133.217	43.026	0	145.40	0	7.8720	0	33.4090	8	26.045	0	144.195	0	230.6	4	79.2	4	-1E+10	1	-1E+10	1	-1E+10	1	-1E+10	1	-1E+10	1	-1E+10	1
4901784	126	C	12/16/2018	10:40	-133.217	43.026	0	147.60	0	7.8720	0	33.4600	8	26.086	0	146.376	0	228.2	4	78.4	4	-1E+10	1	-1E+10	1	-1E+10	1	-1E+10	1	-1E+10	1	-1E+10	1
4901784	126	C	12/16/2018	10:40	-133.217	43.026	0	150.00	0	7.8770	0	33.5020	8	26.118	0	148.755	0	226.0	4	77.7	4	-1E+10	1	-1E+10	1	-1E+10	1	-1E+10	1	-1E+10	1	-1E+10	1
4901784	126	C	12/16/2018	10:40	-133.217	43.026	0	152.40	0	7.9110	0	33.5650	8	26.162	0	151.135	0	223.6	4	77.0	4	-1E+10	1	-1E+10	1	-1E+10	1	-1E+10	1	-1E+10	1	-1E+10	1
4901784	126	C	12/16/2018	10:40	-133.217	43.026	0	155.00	0	7.9330	0	33.5950	8	26.183	0	153.712	0	221.9	4	76.5	4	-1E+10	1	-1E+10	1	-1E+10	1	-1E+10	1	-1E+10	1	-1E+10	1
4901784	126	C	12/16/2018	10:40	-133.217	43.026	0	157.60	0	7.9480	0	33.6150	8	26.196	0	156.289	0	220.3	4	75.9	4	-1E+10	1	-1E+10	1	-1E+10	1	-1E+10	1	-1E+10	1	-1E+10	1
4901784	126	C	12/16/2018	10:40	-133.217	43.026	0	160.20	0	7.9520	0	33.6200	8	26.200	0	158.867	0	218.4	4	75.3	4	-1E+10	1	-1E+10	1	-1E+10	1	-1E+10	1	-1E+10	1	-1E+10	1
4901784	126	C	12/16/2018	10:40	-133.217	43.026	0	162.80	0	7.9640	0	33.6440	8	26.217	0	161.444	0	215.4	4	74.3	4	-1E+10	1	-1E+10	1	-1E+10	1	-1E+10	1	-1E+10	1	-1E+10	1
4901784	126	C	12/16/2018	10:40	-133.217	43.026	0	165.30	0	7.9850	0	33.6690	8	26.233	0	163.922	0	211.4	4	73.0	4	-1E+10	1	-1E+10	1	-1E+10	1	-1E+10	1	-1E+10	1	-1E+10	1
4901784	126	C	12/16/2018	10:40	-133.217	43.026	0	167.90	0	8.0420	0	33.7380	8	26.279	0	166.500	0	206.2	4	71.3	4	-1E+10	1	-1E+10	1	-1E+10	1	-1E+10	1	-1E+10	1	-1E+10	1
4901784	126	C	12/16/2018	10:40	-133.217	43.026	0	170.50	0	8.1230	0	33.8340	8	26.343	0	169.077	0	200.9	4	69.6	4	-1E+10	1	-1E+10	1	-1E+10	1	-1E+10	1	-1E+10	1	-1E+10	1
4901784	126	C	12/16/2018	10:40	-133.217	43.026	0	172.20	0	8.1720	0	33.8900	8	26.379	0	170.762	0	198.0	4	68.7	4	-1E+10	1	-1E+10	1	-1E+10	1	-1E+10	1	-1E+10	1	-1E+10	1
4901784	126	C	12/16/2018	10:40	-133.217	43.026	0	174.90	0	8.2050	0	33.9250	8	26.402	0	173.438	0	194.0	4	67.4	4	-1E+10	1	-1E+10	1	-1E+10	1	-1E+10	1	-1E+10	1	-1E+10	1
4901784	126	C	12/16/2018	10:40	-133.217	43.026	0	177.60	0	8.2650	0	33.9890	8	26.443	0	176.115	0	189.8	4	66.0	4	-1E+10	1	-1E+10	1	-1E+10	1	-1E+10	1	-1E+10	1	-1E+10	1
4901784	126	C	12/16/2018	10:40	-133.217	43.026	0	180.00	0	8.2890	0	34.0170	8	26.462	0	178.494	0	187.2	4	65.2	4	-1E+10	1	-1E+10	1	-1E+10	1	-1E+10	1	-1E+10	1	-1E+10	1
4901784	126	C	12/16/2018	10:40	-133.217	43.026	0	182.60	0	8.3230	0	34.0700	8	26.498	0	181.071	0	183.4	4	63.9	4	-1E+10	1	-1E+10	1	-1E+10	1	-1E+10	1	-1E+10	1	-1E+10	1
4901784	126	C	12/16/2018	10:40	-133.217	43.026	0	185.00	0	8.3430	0	34.1110	8	26.527	0	183.449	0	181.8	4	63.4	4	-1E+10	1	-1E+10	1	-1E+10	1	-1E+10	1	-1E+10	1	-1E+10	1
4901784	126	C	12/16/2018	10:40	-133.217	43.026	0	187.40	0	8.3490	0	34.1210	8	26.534	0	185.828	0	181.0	4	63.2	4	-1E+10	1	-1E+10	1	-1E+10	1	-1E+10	1	-1E+10	1	-1E+10	1
4901784	126	C	12/16/2018	10:40	-133.217	43.026	0	189.80	0	8.3520	0	34.1280	8	26.539	0	188.207	0	180.2	4	62.9	4	-1E+10	1	-1E+10	1	-1E+10	1	-1E+10	1	-1E+10	1	-1E+10	1
4901784	126	C	12/16/2018	10:40	-133.217	43.026	0	192.20	0	8.3530	0	34.1310	8	26.542	0	190.586	0	179.1	4	62.5	4	-1E+10	1	-1E+10	1	-1E+10	1	-1E+10	1	-1E+10	1	-1E+10	1
4901784	126	C	12/16/2018	10:40	-133.217	43.026	0	195.30	0	8.3560	0	34.1390	8	26.547	0	193.658	0	176.8	4	61.7	4	-1E+10	1	-1E+10	1	-1E+10	1	-1E+10	1	-1E+10	1	-1E+10	1
4901784	126	C	12/16/2018	10:40	-133.217	43.026	0	197.70	0	8.3590	0	34.1550	8	26.560	0	196.037	0	174.5	4	60.9	4	-1E+10	1	-1E+10	1	-1E+10	1	-1E+10	1	-1E+10	1	-1E+10	1
4901784	126	C	12/16/2018	10:40	-133.217	43.026	0	200.10	0	8.3540	0	34.1850	8	26.584	0	198.416	0	171.6	4	59.9	4	-1E+10	1	-1E+10	1	-1E+10	1	-1E+10	1	-1E+10	1	-1E+10	1
4901784	126	C	12/16/2018	10:40	-133.217	43.026	0	202.60	0	8.3360	0	34.2070	8	26.604	0	200.893	0	169.3	4	59.1	4	-1E+10	1	-1E+10	1	-1E+10	1	-1E+10	1	-1E+10	1	-1E+10	1
4901784	126	C	12/16/2018	10:40	-133.217	43.026	0	205.10	0	8.3080	0	34.2210	8	26.619	0	203.371	0	167.7	4	58.5	4	-1E+10	1	-1E+10	1	-1E+10	1	-1E+10	1	-1E+10	1	-1E+10	1
4901784	126	C	12/16/2018	10:40	-133.217	43.026	0	207.50	0	8.3000	0	34.2300	8	26.628	0	205.750	0	166.8	4	58.2	4	-1E+10	1	-1E+10	1	-1E+10	1	-1E+10	1	-1E+10	1	-1E+10	1
4901784	126	C	12/16/2018	10:40	-133.217	43.026	0	209.90	0	8.2840	0	34.2340	8	26.633	0	208.128	0	164.9	4	57.5	4	-1E+10	1	-1E+10	1	-1E+10	1	-1E+10	1	-1E+10	1	-1E+10	1
4901784	126	C	12/16/2018	10:40	-133.217	43.026	0	212.40	0	8.2500	0	34.2400	8	26.643	0	210.606	0	163.1	4	56.9	4	-1E+10	1	-1E+10	1	-1E+10	1	-1E+10	1	-1E+10	1	-1E+10	1
4901784	126	C	12/16/2018	10:40	-133.217	43.026	0	214.90	0	8.2030	0	34.2510	8	26.659	0	213.083	0	161.4	4	56.2	4	-1E+10	1	-1E+10	1	-1E+10	1	-1E+10	1	-1E+10	1	-1E+10	1
4901784	126	C	12/16/2018	10:40	-133.217	43.026	0	217.40	0	8.1120	0	34.2580	8	26.678	0	215.561	0	159.6	4	55.5	4	-1E+10	1	-1E+10	1	-1E+10	1	-1E+10	1	-1E+10	1	-1E+10	1
4901784	126	C	12/16/2018	10:40	-133.217	43.026	0	219.90	0	8.0550	0	34.2630	8	26.690	0	218.039	0	158.5	4	55.0	4	-1E+10	1	-1E+10	1	-1E+10	1	-1E+10	1	-1E+10	1	-1E+10	1
4901784	126	C	12/16/2018	10:40	-133.217	43.026	0	222.50	0	8.0040	0	34.2660	8	26.700	0	220.615	0	157.4	4	54.6	4	-1E+10	1	-1E+10	1	-1E+10	1	-1E+10	1	-1E+10	1	-1E+10	1
4901784	126	C	12/16/2018	10:40	-133.217	43.026	0	225.10	0	7.9720	0	34.2670	8	26.706	0	223.192	0	156.3	4	54.2	4	-1E+10	1	-1E+10	1	-1E+10	1	-1E+10	1	-1E+10	1	-1E+10	1
4901784	126	C	12/16/2018	10:40	-133.217	43.026	0	227.80	0	7.9330	0	34.2660	8	26.711	0	225.867	0	155.0	4	53.7	4	-1E+10	1	-1E+10	1	-1E+10	1	-1E+10	1	-1E+10	1	-1E+10	1
4901784	126	C	12/16/2018	10:40	-133.217	43.026	0	229.50	0	7.9060	0	34.2680	8	26.717	0	227.552	0	154.1	4	53.3	4	-1E+10	1	-1E+10	1	-1E+10	1	-1E+10	1	-1E+10	1	-1E+10	1
4901784	126	C	12/16/2018	10:40	-133.217	43.026	0	232.20	0	7.8690	0	34.2670	8	26.721	0	230.228	0	152.7	4	52.8	4	-1E+10	1	-1E+10	1	-1E+10	1	-1E+10	1	-1E+10	1	-1E+10	1
4901784	126	C	12/16/2018	10:40	-133.217	43.026	0	234.90	0	7.8040	0	34.2670	8	26.731	0	232.903	0	151.2	4	52.2	4	-1E+10	1	-1E+10	1	-1E+10	1	-1E+10	1	-1E+10	1	-1E+10	1
4901784	126	C	12/16/2018	10:40	-133.217	43.026	0	237.60	0	7.7210	0	34.2670	8	26.743	0	235.579	0	149.9	4	51.6	4	-1E+10	1	-1E+10	1	-1E+10	1	-1E+10	1	-1E+10	1	-1E+10	1
4901784	126	C	12/16/2018	10:40	-133.217	43.026	0	240.40	0	7.6580	0	34.2690	8	26.754	0	238.353	0	148.6	4	51.1	4	-1E+10	1	-1E+10	1	-1E+10	1	-1E+10	1	-1E+10	1	-1E+10	1
4901784	126	C	12/16/2018	10:40	-133.217	43.026	0	242.20	0	7.6330	0	34.2690	8	26.757	0	240.137	0	147.7	4	50.8	4	-1E+10	1	-1E+10	1	-1E+10	1	-1E+10	1	-1E+10	1	-1E+10	1
4901784	126	C	12/16/2018	10:40	-133.217	43.026	0	244.90	0	7.5850	0	34.2690	8	26.764	0	242.812	0	146.2	4	50.2	4	-1E+10	1	-1E+10	1	-1E+10	1	-1E+10	1	-1E+10	1	-1E+10	1
4901784	126	C	12/16/2018	10:40	-133.217	43.026	0	247.70	0	7.5420	0	34.2680	8	26.770	0	245.587	0	144.4	4	49.5	4	-1E+10	1	-1E+10	1	-1E+10	1	-1E+10	1	-1E+10	1	-1E+10	1
4901784	126	C	12/16/2018	10:40	-133.217	43.026	0	250.40	0	7.4620	0	34.2650	8	26.779	0	248.262	0	142.9	4	48.9	4	-1E+10	1	-1E+10	1	-1E+10	1	-1E+10	1	-1E+10	1	-1E+10	1
4901784	126	C	12/16/2018	10:40	-133.217	43.026	0	253.00	0	7.3800	0	34.2660	8	26.791	0	250.838	0	142.1	4	48.6	4	-1E+10	1	-1E+10	1	-1E+10	1	-1E+10	1	-1E+10	1	-1E+10	1
4901784	126	C	12/16/2018	10:40	-133.217	43.026	0	254.80	0	7.3700	0	34.2660	8	26.793	0	252.622	0	141.8	4	48.5	4	-1E+10	1	-1E+10	1	-1E+10	1	-1E+10	1	-1E+10	1	-1E+10	1
4901784	126	C	12/16/2018	10:40	-133.217	43.026	0	257.70	0	7.3560	0	34.2650	8	26.794	0	255.495	0	141.2	4	48.2	4	-1E+10	1	-1E+10	1	-1E+10	1	-1E+10	1	-1E+10	1	-1E+10	1
4901784	126	C	12/16/2018	10:40	-133.217	43.026	0	260.50	0	7.3160	0	34.2650	8	26.799	0	258.270	0	140.5	4	48.0	4	-1E+10	1	-1E+10	1	-1E+10	1	-1E+10	1	-1E+10	1	-1E+10	1
4901784	126	C	12/16/2018	10:40	-133.217	43.026	0	262.40	0	7.3020	0	34.2650	8	26.801	0	260.152	0	140.1	4	47.8	4	-1E+10	1	-1E+10	1	-1E+10	1	-1E+10	1	-1E+10	1	-1E+10	1
4901784	126	C	12/16/2018	10:40	-133.217	43.026	0	264.40	0	7.2880	0	34.2650	8	26.803	0	262.134	0	139.6	4	47.6	4	-1E+10	1	-1E+10	1	-1E+10	1	-1E+10	1	-1E+10	1	-1E+10	1
4901784	126	C	12/16/2018	10:40	-133.217	43.026	0	267.30	0	7.2690	0	34.2630	8	26.805	0	265.007	0	138.7	4	47.3	4	-1E+10	1	-1E+10	1	-1E+10	1	-1E+10	1	-1E+10	1	-1E+10	1
4901784	126	C	12/16/2018	10:40	-133.217	43.026	0	270.10	0	7.2450	0	34.2640	8	26.809	0	267.781	0	137.4	4	46.8	4	-1E+10	1	-1E+10	1	-1E+10	1	-1E+10	1	-1E+10	1	-1E+10	1
4901784	126	C	12/16/2018	10:40	-133.217	43.026	0	271.90	0	7.2050	0	34.2620	8	26.813	0	269.565	0	136.3	4	46.4	4	-1E+10	1	-1E+10	1	-1E+10	1	-1E+10	1	-1E+10	1	-1E+10	1
4901784	126	C	12/16/2018	10:40	-133.217	43.026	0	274.80	0	7.1180	0	34.2610	8	26.824	0	272.438	0	134.8	4	45.8	4	-1E+10	1	-1E+10	1	-1E+10	1	-1E+10	1	-1E+10	1	-1E+10	1
4901784	126	C	12/16/2018	10:40	-133.217	43.026	0	277.50	0	7.0490	0	34.2620	8	26.834	0	275.113	0	133.5	4	45.3	4	-1E+10	1	-1E+10	1	-1E+10	1	-1E+10	1	-1E+10	1	-1E+10	1
4901784	126	C	12/16/2018	10:40	-133.217	43.026	0	280.30	0	7.0050	0	34.2610	8	26.840	0	277.887	0	132.2	4	44.8	4	-1E+10	1	-1E+10	1	-1E+10	1	-1E+10	1	-1E+10	1	-1E+10	1
4901784	126	C	12/16/2018	10:40	-133.217	43.026	0	283.10	0	6.9720	0	34.2610	8	26.844	0	280.661	0	131.1	4	44.4	4	-1E+10	1	-1E+10	1	-1E+10	1	-1E+10	1	-1E+10	1	-1E+10	1
4901784	126	C	12/16/2018	10:40	-133.217	43.026	0	285.00	0	6.9430	0	34.2610	8	26.848	0	282.543	0	130.4	4	44.1	4	-1E+10	1	-1E+10	1	-1E+10	1	-1E+10	1	-1E+10	1	-1E+10	1
4901784	126	C	12/16/2018	10:40	-133.217	43.026	0	286.90	0	6.9160	0	34.2600	8	26.851	0	284.425	0	129.6	4	43.9	4	-1E+10	1	-1E+10	1	-1E+10	1	-1E+10	1	-1E+10	1	-1E+10	1
4901784	126	C	12/16/2018	10:40	-133.217	43.026	0	289.80	0	6.8700	0	34.2590	8	26.857	0	287.298	0	128.6	4	43.5	4	-1E+10	1	-1E+10	1	-1E+10	1	-1E+10	1	-1E+10	1	-1E+10	1
4901784	126	C	12/16/2018	10:40	-133.217	43.026	0	292.60	0	6.8210	0	34.2570	8	26.862	0	290.072	0	127.8	4	43.1	4	-1E+10	1	-1E+10	1	-1E+10	1	-1E+10	1	-1E+10	1	-1E+10	1
4901784	126	C	12/16/2018	10:40	-133.217	43.026	0	294.60	0	6.7780	0	34.2580	8	26.868	0	292.054	0	127.3	4	42.9	4	-1E+10	1	-1E+10	1	-1E+10	1	-1E+10	1	-1E+10	1	-1E+10	1
4901784	126	C	12/16/2018	10:40	-133.217	43.026	0	297.50	0	6.7220	0	34.2570	8	26.875	0	294.926	0	126.7	4	42.7	4	-1E+10	1	-1E+10	1	-1E+10	1	-1E+10	1	-1E+10	1	-1E+10	1
4901784	126	C	12/16/2018	10:40	-133.217	43.026	0	300.30	0	6.6560	0	34.2560	8	26.883	0	297.700	0	126.0	4	42.4	4	-1E+10	1	-1E+10	1	-1E+10	1	-1E+10	1	-1E+10	1	-1E+10	1
4901784	126	C	12/16/2018	10:40	-133.217	43.026	0	302.20	0	6.6400	0	34.2550	8	26.885	0	299.582	0	125.4	4	42.2	4	-1E+10	1	-1E+10	1	-1E+10	1	-1E+10	1	-1E+10	1	-1E+10	1
4901784	126	C	12/16/2018	10:40	-133.217	43.026	0	305.10	0	6.6130	0	34.2550	8	26.888	0	302.455	0	124.3	4	41.8	4	-1E+10	1	-1E+10	1	-1E+10	1	-1E+10	1	-1E+10	1	-1E+10	1
4901784	126	C	12/16/2018	10:40	-133.217	43.026	0	307.90	0	6.5550	0	34.2530	8	26.894	0	305.229	0	123.2	4	41.3	4	-1E+10	1	-1E+10	1	-1E+10	1	-1E+10	1	-1E+10	1	-1E+10	1
4901784	126	C	12/16/2018	10:40	-133.217	43.026	0	309.90	0	6.5010	0	34.2530	8	26.901	0	307.210	0	122.4	4	41.0	4	-1E+10	1	-1E+10	1	-1E+10	1	-1E+10	1	-1E+10	1	-1E+10	1
4901784	126	C	12/16/2018	10:40	-133.217	43.026	0	311.80	0	6.4800	0	34.2530	8	26.904	0	309.092	0	121.7	4	40.8	4	-1E+10	1	-1E+10	1	-1E+10	1	-1E+10	1	-1E+10	1	-1E+10	1
4901784	126	C	12/16/2018	10:40	-133.217	43.026	0	314.70	0	6.4370	0	34.2530	8	26.910	0	311.965	0	120.7	4	40.4	4	-1E+10	1	-1E+10	1	-1E+10	1	-1E+10	1	-1E+10	1	-1E+10	1
4901784	126	C	12/16/2018	10:40	-133.217	43.026	0	317.50	0	6.4180	0	34.2510	8	26.911	0	314.738	0	119.6	4	40.0	4	-1E+10	1	-1E+10	1	-1E+10	1	-1E+10	1	-1E+10	1	-1E+10	1
4901784	126	C	12/16/2018	10:40	-133.217	43.026	0	319.40	0	6.3740	0	34.2520	8	26.917	0	316.620	0	118.8	4	39.7	4	-1E+10	1	-1E+10	1	-1E+10	1	-1E+10	1	-1E+10	1	-1E+10	1
4901784	126	C	12/16/2018	10:40	-133.217	43.026	0	322.20	0	6.3310	0	34.2510	8	26.922	0	319.394	0	117.8	4	39.3	4	-1E+10	1	-1E+10	1	-1E+10	1	-1E+10	1	-1E+10	1	-1E+10	1
4901784	126	C	12/16/2018	10:40	-133.217	43.026	0	325.10	0	6.2850	0	34.2500	8	26.927	0	322.266	0	117.0	4	39.0	4	-1E+10	1	-1E+10	1	-1E+10	1	-1E+10	1	-1E+10	1	-1E+10	1
4901784	126	C	12/16/2018	10:40	-133.217	43.026	0	327.10	0	6.2600	0	34.2510	8	26.931	0	324.247	0	116.5	4	38.8	4	-1E+10	1	-1E+10	1	-1E+10	1	-1E+10	1	-1E+10	1	-1E+10	1
4901784	126	C	12/16/2018	10:40	-133.217	43.026	0	330.10	0	6.2380	0	34.2500	8	26.934	0	327.219	0	115.9	4	38.6	4	-1E+10	1	-1E+10	1	-1E+10	1	-1E+10	1	-1E+10	1	-1E+10	1
4901784	126	C	12/16/2018	10:40	-133.217	43.026	0	332.60	0	6.2250	0	34.2490	8	26.934	0	329.695	0	115.0	4	38.3	4	-1E+10	1	-1E+10	1	-1E+10	1	-1E+10	1	-1E+10	1	-1E+10	1
4901784	126	C	12/16/2018	10:40	-133.217	43.026	0	335.10	0	6.1890	0	34.2470	8	26.937	0	332.171	0	113.7	4	37.8	4	-1E+10	1	-1E+10	1	-1E+10	1	-1E+10	1	-1E+10	1	-1E+10	1
4901784	126	C	12/16/2018	10:40	-133.217	43.026	0	337.60	0	6.1280	0	34.2470	8	26.945	0	334.647	0	112.7	4	37.4	4	-1E+10	1	-1E+10	1	-1E+10	1	-1E+10	1	-1E+10	1	-1E+10	1
4901784	126	C	12/16/2018	10:40	-133.217	43.026	0	340.10	0	6.0810	0	34.2460	8	26.950	0	337.123	0	111.6	4	37.0	4	-1E+10	1	-1E+10	1	-1E+10	1	-1E+10	1	-1E+10	1	-1E+10	1
4901784	126	C	12/16/2018	10:40	-133.217	43.026	0	342.70	0	6.0320	0	34.2440	8	26.955	0	339.698	0	110.5	4	36.6	4	-1E+10	1	-1E+10	1	-1E+10	1	-1E+10	1	-1E+10	1	-1E+10	1
4901784	126	C	12/16/2018	10:40	-133.217	43.026	0	345.10	0	6.0000	0	34.2420	8	26.958	0	342.075	0	109.3	4	36.2	4	-1E+10	1	-1E+10	1	-1E+10	1	-1E+10	1	-1E+10	1	-1E+10	1
4901784	126	C	12/16/2018	10:40	-133.217	43.026	0	347.60	0	5.9130	0	34.2440	8	26.970	0	344.551	0	108.0	4	35.7	4	-1E+10	1	-1E+10	1	-1E+10	1	-1E+10	1	-1E+10	1	-1E+10	1
4901784	126	C	12/16/2018	10:40	-133.217	43.026	0	350.10	0	5.8650	0	34.2400	8	26.973	0	347.027	0	106.9	4	35.3	4	-1E+10	1	-1E+10	1	-1E+10	1	-1E+10	1	-1E+10	1	-1E+10	1
4901784	126	C	12/16/2018	10:40	-133.217	43.026	0	352.60	0	5.8000	0	34.2400	8	26.981	0	349.503	0	105.8	4	34.9	4	-1E+10	1	-1E+10	1	-1E+10	1	-1E+10	1	-1E+10	1	-1E+10	1
4901784	126	C	12/16/2018	10:40	-133.217	43.026	0	355.20	0	5.7680	0	34.2390	8	26.984	0	352.078	0	104.9	4	34.5	4	-1E+10	1	-1E+10	1	-1E+10	1	-1E+10	1	-1E+10	1	-1E+10	1
4901784	126	C	12/16/2018	10:40	-133.217	43.026	0	357.80	0	5.7390	0	34.2380	8	26.987	0	354.653	0	103.7	4	34.1	4	-1E+10	1	-1E+10	1	-1E+10	1	-1E+10	1	-1E+10	1	-1E+10	1
4901784	126	C	12/16/2018	10:40	-133.217	43.026	0	360.50	0	5.6670	0	34.2370	8	26.995	0	357.327	0	102.4	4	33.7	4	-1E+10	1	-1E+10	1	-1E+10	1	-1E+10	1	-1E+10	1	-1E+10	1
4901784	126	C	12/16/2018	10:40	-133.217	43.026	0	362.20	0	5.6400	0	34.2360	8	26.998	0	359.011	0	101.7	4	33.4	4	-1E+10	1	-1E+10	1	-1E+10	1	-1E+10	1	-1E+10	1	-1E+10	1
4901784	126	C	12/16/2018	10:40	-133.217	43.026	0	364.90	0	5.5830	0	34.2390	8	27.007	0	361.685	0	100.7	4	33.0	4	-1E+10	1	-1E+10	1	-1E+10	1	-1E+10	1	-1E+10	1	-1E+10	1
4901784	126	C	12/16/2018	10:40	-133.217	43.026	0	367.60	0	5.5560	0	34.2370	8	27.009	0	364.358	0	99.8	4	32.7	4	-1E+10	1	-1E+10	1	-1E+10	1	-1E+10	1	-1E+10	1	-1E+10	1
4901784	126	C	12/16/2018	10:40	-133.217	43.026	0	370.20	0	5.5220	0	34.2380	8	27.013	0	366.933	0	98.8	4	32.4	4	-1E+10	1	-1E+10	1	-1E+10	1	-1E+10	1	-1E+10	1	-1E+10	1
4901784	126	C	12/16/2018	10:40	-133.217	43.026	0	372.90	0	5.4970	0	34.2380	8	27.016	0	369.607	0	97.9	4	32.0	4	-1E+10	1	-1E+10	1	-1E+10	1	-1E+10	1	-1E+10	1	-1E+10	1
4901784	126	C	12/16/2018	10:40	-133.217	43.026	0	374.70	0	5.4790	0	34.2390	8	27.019	0	371.389	0	97.2	4	31.8	4	-1E+10	1	-1E+10	1	-1E+10	1	-1E+10	1	-1E+10	1	-1E+10	1
4901784	126	C	12/16/2018	10:40	-133.217	43.026	0	377.50	0	5.4520	0	34.2390	8	27.023	0	374.162	0	96.2	4	31.4	4	-1E+10	1	-1E+10	1	-1E+10	1	-1E+10	1	-1E+10	1	-1E+10	1
4901784	126	C	12/16/2018	10:40	-133.217	43.026	0	380.30	0	5.4180	0	34.2390	8	27.027	0	376.935	0	95.1	4	31.1	4	-1E+10	1	-1E+10	1	-1E+10	1	-1E+10	1	-1E+10	1	-1E+10	1
4901784	126	C	12/16/2018	10:40	-133.217	43.026	0	382.10	0	5.3990	0	34.2380	8	27.028	0	378.717	0	94.4	4	30.8	4	-1E+10	1	-1E+10	1	-1E+10	1	-1E+10	1	-1E+10	1	-1E+10	1
4901784	126	C	12/16/2018	10:40	-133.217	43.026	0	384.90	0	5.3560	0	34.2400	8	27.035	0	381.490	0	93.2	4	30.4	4	-1E+10	1	-1E+10	1	-1E+10	1	-1E+10	1	-1E+10	1	-1E+10	1
4901784	126	C	12/16/2018	10:40	-133.217	43.026	0	387.70	0	5.3130	0	34.2420	8	27.042	0	384.263	0	92.3	4	30.1	4	-1E+10	1	-1E+10	1	-1E+10	1	-1E+10	1	-1E+10	1	-1E+10	1
4901784	126	C	12/16/2018	10:40	-133.217	43.026	0	389.60	0	5.2990	0	34.2430	8	27.044	0	386.144	0	91.8	4	29.9	4	-1E+10	1	-1E+10	1	-1E+10	1	-1E+10	1	-1E+10	1	-1E+10	1
4901784	126	C	12/16/2018	10:40	-133.217	43.026	0	392.30	0	5.2870	0	34.2430	8	27.046	0	388.817	0	91.0	4	29.7	4	-1E+10	1	-1E+10	1	-1E+10	1	-1E+10	1	-1E+10	1	-1E+10	1
4901784	126	C	12/16/2018	10:40	-133.217	43.026	0	395.10	0	5.2720	0	34.2450	8	27.049	0	391.590	0	90.2	4	29.4	4	-1E+10	1	-1E+10	1	-1E+10	1	-1E+10	1	-1E+10	1	-1E+10	1
4901784	126	C	12/16/2018	10:40	-133.217	43.026	0	397.80	0	5.2450	0	34.2490	8	27.055	0	394.263	0	89.6	4	29.1	4	-1E+10	1	-1E+10	1	-1E+10	1	-1E+10	1	-1E+10	1	-1E+10	1
4901784	126	C	12/16/2018	10:40	-133.217	43.026	0	400.60	0	5.2320	0	34.2490	8	27.057	0	397.036	0	89.1	4	29.0	4	-1E+10	1	-1E+10	1	-1E+10	1	-1E+10	1	-1E+10	1	-1E+10	1
4901784	126	C	12/16/2018	10:40	-133.217	43.026	0	402.50	0	5.2160	0	34.2510	8	27.060	0	398.917	0	88.7	4	28.8	4	-1E+10	1	-1E+10	1	-1E+10	1	-1E+10	1	-1E+10	1	-1E+10	1
4901784	126	C	12/16/2018	10:40	-133.217	43.026	0	404.40	0	5.2110	0	34.2520	8	27.062	0	400.798	0	88.4	4	28.7	4	-1E+10	1	-1E+10	1	-1E+10	1	-1E+10	1	-1E+10	1	-1E+10	1
4901784	126	C	12/16/2018	10:40	-133.217	43.026	0	407.20	0	5.2040	0	34.2530	8	27.063	0	403.571	0	88.0	4	28.6	4	-1E+10	1	-1E+10	1	-1E+10	1	-1E+10	1	-1E+10	1	-1E+10	1
4901784	126	C	12/16/2018	10:40	-133.217	43.026	0	410.10	0	5.1950	0	34.2530	8	27.064	0	406.442	0	87.6	4	28.5	4	-1E+10	1	-1E+10	1	-1E+10	1	-1E+10	1	-1E+10	1	-1E+10	1
4901784	126	C	12/16/2018	10:40	-133.217	43.026	0	412.00	0	5.1950	0	34.2530	8	27.064	0	408.323	0	87.3	4	28.4	4	-1E+10	1	-1E+10	1	-1E+10	1	-1E+10	1	-1E+10	1	-1E+10	1
4901784	126	C	12/16/2018	10:40	-133.217	43.026	0	414.80	0	5.1910	0	34.2520	8	27.064	0	411.095	0	86.6	4	28.1	4	-1E+10	1	-1E+10	1	-1E+10	1	-1E+10	1	-1E+10	1	-1E+10	1
4901784	126	C	12/16/2018	10:40	-133.217	43.026	0	417.70	0	5.1840	0	34.2530	8	27.066	0	413.967	0	85.8	4	27.9	4	-1E+10	1	-1E+10	1	-1E+10	1	-1E+10	1	-1E+10	1	-1E+10	1
4901784	126	C	12/16/2018	10:40	-133.217	43.026	0	419.60	0	5.1520	0	34.2590	8	27.074	0	415.848	0	85.0	4	27.6	4	-1E+10	1	-1E+10	1	-1E+10	1	-1E+10	1	-1E+10	1	-1E+10	1
4901784	126	C	12/16/2018	10:40	-133.217	43.026	0	422.50	0	5.1370	0	34.2570	8	27.074	0	418.719	0	84.5	4	27.4	4	-1E+10	1	-1E+10	1	-1E+10	1	-1E+10	1	-1E+10	1	-1E+10	1
4901784	126	C	12/16/2018	10:40	-133.217	43.026	0	425.30	0	5.1350	0	34.2580	8	27.075	0	421.491	0	83.8	4	27.2	4	-1E+10	1	-1E+10	1	-1E+10	1	-1E+10	1	-1E+10	1	-1E+10	1
4901784	126	C	12/16/2018	10:40	-133.217	43.026	0	427.20	0	5.1310	0	34.2600	8	27.078	0	423.372	0	83.1	4	27.0	4	-1E+10	1	-1E+10	1	-1E+10	1	-1E+10	1	-1E+10	1	-1E+10	1
4901784	126	C	12/16/2018	10:40	-133.217	43.026	0	430.10	0	5.1080	0	34.2620	8	27.082	0	426.243	0	81.9	4	26.6	4	-1E+10	1	-1E+10	1	-1E+10	1	-1E+10	1	-1E+10	1	-1E+10	1
4901784	126	C	12/16/2018	10:40	-133.217	43.026	0	432.90	0	5.0860	0	34.2650	8	27.087	0	429.015	0	80.9	4	26.2	4	-1E+10	1	-1E+10	1	-1E+10	1	-1E+10	1	-1E+10	1	-1E+10	1
4901784	126	C	12/16/2018	10:40	-133.217	43.026	0	434.80	0	5.0760	0	34.2670	8	27.089	0	430.896	0	80.1	4	26.0	4	-1E+10	1	-1E+10	1	-1E+10	1	-1E+10	1	-1E+10	1	-1E+10	1
4901784	126	C	12/16/2018	10:40	-133.217	43.026	0	437.60	0	5.0450	0	34.2690	8	27.095	0	433.668	0	79.2	4	25.7	4	-1E+10	1	-1E+10	1	-1E+10	1	-1E+10	1	-1E+10	1	-1E+10	1
4901784	126	C	12/16/2018	10:40	-133.217	43.026	0	440.40	0	5.0300	0	34.2700	8	27.097	0	436.440	0	78.3	4	25.3	4	-1E+10	1	-1E+10	1	-1E+10	1	-1E+10	1	-1E+10	1	-1E+10	1
4901784	126	C	12/16/2018	10:40	-133.217	43.026	0	442.20	0	5.0050	0	34.2740	8	27.103	0	438.222	0	77.6	4	25.1	4	-1E+10	1	-1E+10	1	-1E+10	1	-1E+10	1	-1E+10	1	-1E+10	1
4901784	126	C	12/16/2018	10:40	-133.217	43.026	0	445.00	0	4.9870	0	34.2750	8	27.106	0	440.994	0	76.9	4	24.9	4	-1E+10	1	-1E+10	1	-1E+10	1	-1E+10	1	-1E+10	1	-1E+10	1
4901784	126	C	12/16/2018	10:40	-133.217	43.026	0	447.80	0	4.9700	0	34.2770	8	27.110	0	443.765	0	76.1	4	24.6	4	-1E+10	1	-1E+10	1	-1E+10	1	-1E+10	1	-1E+10	1	-1E+10	1
4901784	126	C	12/16/2018	10:40	-133.217	43.026	0	449.60	0	4.9530	0	34.2800	8	27.114	0	445.547	0	75.6	4	24.4	4	-1E+10	1	-1E+10	1	-1E+10	1	-1E+10	1	-1E+10	1	-1E+10	1
4901784	126	C	12/16/2018	10:40	-133.217	43.026	0	452.40	0	4.9440	0	34.2800	8	27.115	0	448.319	0	74.9	4	24.2	4	-1E+10	1	-1E+10	1	-1E+10	1	-1E+10	1	-1E+10	1	-1E+10	1
4901784	126	C	12/16/2018	10:40	-133.217	43.026	0	455.20	0	4.9320	0	34.2810	8	27.117	0	451.091	0	74.0	4	23.9	4	-1E+10	1	-1E+10	1	-1E+10	1	-1E+10	1	-1E+10	1	-1E+10	1
4901784	126	C	12/16/2018	10:40	-133.217	43.026	0	457.00	0	4.9190	0	34.2820	8	27.119	0	452.873	0	73.3	4	23.7	4	-1E+10	1	-1E+10	1	-1E+10	1	-1E+10	1	-1E+10	1	-1E+10	1
4901784	126	C	12/16/2018	10:40	-133.217	43.026	0	459.80	0	4.8970	0	34.2860	8	27.125	0	455.644	0	72.3	4	23.3	4	-1E+10	1	-1E+10	1	-1E+10	1	-1E+10	1	-1E+10	1	-1E+10	1
4901784	126	C	12/16/2018	10:40	-133.217	43.026	0	462.70	0	4.8850	0	34.2880	8	27.128	0	458.515	0	71.6	4	23.1	4	-1E+10	1	-1E+10	1	-1E+10	1	-1E+10	1	-1E+10	1	-1E+10	1
4901784	126	C	12/16/2018	10:40	-133.217	43.026	0	464.60	0	4.8810	0	34.2880	8	27.129	0	460.395	0	71.0	4	22.9	4	-1E+10	1	-1E+10	1	-1E+10	1	-1E+10	1	-1E+10	1	-1E+10	1
4901784	126	C	12/16/2018	10:40	-133.217	43.026	0	467.40	0	4.8740	0	34.2880	8	27.129	0	463.167	0	69.9	4	22.6	4	-1E+10	1	-1E+10	1	-1E+10	1	-1E+10	1	-1E+10	1	-1E+10	1
4901784	126	C	12/16/2018	10:40	-133.217	43.026	0	470.20	0	4.8560	0	34.2920	8	27.135	0	465.939	0	68.6	4	22.1	4	-1E+10	1	-1E+10	1	-1E+10	1	-1E+10	1	-1E+10	1	-1E+10	1
4901784	126	C	12/16/2018	10:40	-133.217	43.026	0	472.20	0	4.8420	0	34.2950	8	27.139	0	467.918	0	67.9	4	21.9	4	-1E+10	1	-1E+10	1	-1E+10	1	-1E+10	1	-1E+10	1	-1E+10	1
4901784	126	C	12/16/2018	10:40	-133.217	43.026	0	475.00	0	4.8320	0	34.2960	8	27.141	0	470.690	0	67.1	4	21.6	4	-1E+10	1	-1E+10	1	-1E+10	1	-1E+10	1	-1E+10	1	-1E+10	1
4901784	126	C	12/16/2018	10:40	-133.217	43.026	0	477.80	0	4.8290	0	34.2960	8	27.141	0	473.461	0	66.1	4	21.3	4	-1E+10	1	-1E+10	1	-1E+10	1	-1E+10	1	-1E+10	1	-1E+10	1
4901784	126	C	12/16/2018	10:40	-133.217	43.026	0	479.70	0	4.8250	0	34.2950	8	27.141	0	475.342	0	65.1	4	21.0	4	-1E+10	1	-1E+10	1	-1E+10	1	-1E+10	1	-1E+10	1	-1E+10	1
4901784	126	C	12/16/2018	10:40	-133.217	43.026	0	482.60	0	4.7890	0	34.3050	8	27.153	0	478.212	0	64.1	4	20.6	4	-1E+10	1	-1E+10	1	-1E+10	1	-1E+10	1	-1E+10	1	-1E+10	1
4901784	126	C	12/16/2018	10:40	-133.217	43.026	0	485.40	0	4.7820	0	34.3060	8	27.154	0	480.983	0	63.5	4	20.4	4	-1E+10	1	-1E+10	1	-1E+10	1	-1E+10	1	-1E+10	1	-1E+10	1
4901784	126	C	12/16/2018	10:40	-133.217	43.026	0	487.30	0	4.7790	0	34.3070	8	27.155	0	482.864	0	63.0	4	20.3	4	-1E+10	1	-1E+10	1	-1E+10	1	-1E+10	1	-1E+10	1	-1E+10	1
4901784	126	C	12/16/2018	10:40	-133.217	43.026	0	490.10	0	4.7720	0	34.3090	8	27.158	0	485.635	0	62.2	4	20.0	4	-1E+10	1	-1E+10	1	-1E+10	1	-1E+10	1	-1E+10	1	-1E+10	1
4901784	126	C	12/16/2018	10:40	-133.217	43.026	0	493.00	0	4.7660	0	34.3110	8	27.160	0	488.505	0	61.3	4	19.7	4	-1E+10	1	-1E+10	1	-1E+10	1	-1E+10	1	-1E+10	1	-1E+10	1
4901784	126	C	12/16/2018	10:40	-133.217	43.026	0	494.90	0	4.7650	0	34.3110	8	27.160	0	490.386	0	60.6	4	19.5	4	-1E+10	1	-1E+10	1	-1E+10	1	-1E+10	1	-1E+10	1	-1E+10	1
4901784	126	C	12/16/2018	10:40	-133.217	43.026	0	497.70	0	4.7610	0	34.3120	8	27.161	0	493.157	0	59.1	4	19.0	4	-1E+10	1	-1E+10	1	-1E+10	1	-1E+10	1	-1E+10	1	-1E+10	1
4901784	126	C	12/16/2018	10:40	-133.217	43.026	0	500.50	0	4.7400	0	34.3190	8	27.169	0	495.928	0	57.4	4	18.5	4	-1E+10	1	-1E+10	1	-1E+10	1	-1E+10	1	-1E+10	1	-1E+10	1
4901784	126	C	12/16/2018	10:40	-133.217	43.026	0	505.20	0	4.7250	0	34.3270	8	27.177	0	500.579	0	54.7	4	17.6	4	-1E+10	1	-1E+10	1	-1E+10	1	-1E+10	1	-1E+10	1	-1E+10	1
4901784	126	C	12/16/2018	10:40	-133.217	43.026	0	509.90	0	4.7140	0	34.3310	8	27.182	0	505.230	0	53.1	4	17.1	4	-1E+10	1	-1E+10	1	-1E+10	1	-1E+10	1	-1E+10	1	-1E+10	1
4901784	126	C	12/16/2018	10:40	-133.217	43.026	0	514.70	0	4.7030	0	34.3360	8	27.187	0	509.981	0	51.0	4	16.4	4	-1E+10	1	-1E+10	1	-1E+10	1	-1E+10	1	-1E+10	1	-1E+10	1
4901784	126	C	12/16/2018	10:40	-133.217	43.026	0	519.60	0	4.6940	0	34.3420	8	27.193	0	514.830	0	49.1	4	15.8	4	-1E+10	1	-1E+10	1	-1E+10	1	-1E+10	1	-1E+10	1	-1E+10	1
4901784	126	C	12/16/2018	10:40	-133.217	43.026	0	525.30	0	4.6800	0	34.3480	8	27.199	0	520.470	0	47.0	4	15.1	4	-1E+10	1	-1E+10	1	-1E+10	1	-1E+10	1	-1E+10	1	-1E+10	1
4901784	126	C	12/16/2018	10:40	-133.217	43.026	0	530.80	0	4.6650	0	34.3540	8	27.206	0	525.913	0	45.1	4	14.5	4	-1E+10	1	-1E+10	1	-1E+10	1	-1E+10	1	-1E+10	1	-1E+10	1
4901784	126	C	12/16/2018	10:40	-133.217	43.026	0	535.20	0	4.6540	0	34.3610	8	27.212	0	530.267	0	43.3	4	13.9	4	-1E+10	1	-1E+10	1	-1E+10	1	-1E+10	1	-1E+10	1	-1E+10	1
4901784	126	C	12/16/2018	10:40	-133.217	43.026	0	540.10	0	4.6440	0	34.3680	8	27.219	0	535.115	0	41.9	4	13.5	4	-1E+10	1	-1E+10	1	-1E+10	1	-1E+10	1	-1E+10	1	-1E+10	1
4901784	126	C	12/16/2018	10:40	-133.217	43.026	0	545.10	0	4.6390	0	34.3700	8	27.221	0	540.062	0	40.6	4	13.1	4	-1E+10	1	-1E+10	1	-1E+10	1	-1E+10	1	-1E+10	1	-1E+10	1
4901784	126	C	12/16/2018	10:40	-133.217	43.026	0	550.00	0	4.6220	0	34.3770	8	27.229	0	544.911	0	38.7	4	12.4	4	-1E+10	1	-1E+10	1	-1E+10	1	-1E+10	1	-1E+10	1	-1E+10	1
4901784	126	C	12/16/2018	10:40	-133.217	43.026	0	555.00	0	4.6100	0	34.3850	8	27.237	0	549.858	0	36.8	4	11.8	4	-1E+10	1	-1E+10	1	-1E+10	1	-1E+10	1	-1E+10	1	-1E+10	1
4901784	126	C	12/16/2018	10:40	-133.217	43.026	0	560.00	0	4.6090	0	34.3910	8	27.241	0	554.805	0	35.5	4	11.4	4	-1E+10	1	-1E+10	1	-1E+10	1	-1E+10	1	-1E+10	1	-1E+10	1
4901784	126	C	12/16/2018	10:40	-133.217	43.026	0	565.00	0	4.5970	0	34.3960	8	27.247	0	559.752	0	34.0	4	10.9	4	-1E+10	1	-1E+10	1	-1E+10	1	-1E+10	1	-1E+10	1	-1E+10	1
4901784	126	C	12/16/2018	10:40	-133.217	43.026	0	570.20	0	4.5690	0	34.4020	8	27.255	0	564.896	0	33.3	4	10.7	4	-1E+10	1	-1E+10	1	-1E+10	1	-1E+10	1	-1E+10	1	-1E+10	1
4901784	126	C	12/16/2018	10:40	-133.217	43.026	0	575.30	0	4.5390	0	34.4040	8	27.260	0	569.942	0	32.9	4	10.5	4	-1E+10	1	-1E+10	1	-1E+10	1	-1E+10	1	-1E+10	1	-1E+10	1
4901784	126	C	12/16/2018	10:40	-133.217	43.026	0	580.40	0	4.5050	0	34.4040	8	27.263	0	574.987	0	32.4	4	10.4	4	-1E+10	1	-1E+10	1	-1E+10	1	-1E+10	1	-1E+10	1	-1E+10	1
4901784	126	C	12/16/2018	10:40	-133.217	43.026	0	585.50	0	4.4700	0	34.4100	8	27.272	0	580.033	0	31.2	4	10.0	4	-1E+10	1	-1E+10	1	-1E+10	1	-1E+10	1	-1E+10	1	-1E+10	1
4901784	126	C	12/16/2018	10:40	-133.217	43.026	0	590.70	0	4.4620	0	34.4150	8	27.277	0	585.177	0	29.9	4	9.6	4	-1E+10	1	-1E+10	1	-1E+10	1	-1E+10	1	-1E+10	1	-1E+10	1
4901784	126	C	12/16/2018	10:40	-133.217	43.026	0	595.10	0	4.4520	0	34.4220	8	27.283	0	589.529	0	28.8	4	9.2	4	-1E+10	1	-1E+10	1	-1E+10	1	-1E+10	1	-1E+10	1	-1E+10	1
4901784	126	C	12/16/2018	10:40	-133.217	43.026	0	599.40	0	4.4370	0	34.4260	8	27.288	0	593.783	0	27.9	4	8.9	4	-1E+10	1	-1E+10	1	-1E+10	1	-1E+10	1	-1E+10	1	-1E+10	1
4901784	126	C	12/16/2018	10:40	-133.217	43.026	0	604.60	0	4.4230	0	34.4300	8	27.293	0	598.927	0	26.9	4	8.6	4	-1E+10	1	-1E+10	1	-1E+10	1	-1E+10	1	-1E+10	1	-1E+10	1
4901784	126	C	12/16/2018	10:40	-133.217	43.026	0	609.90	0	4.4060	0	34.4370	8	27.300	0	604.170	0	25.7	4	8.2	4	-1E+10	1	-1E+10	1	-1E+10	1	-1E+10	1	-1E+10	1	-1E+10	1
4901784	126	C	12/16/2018	10:40	-133.217	43.026	0	615.30	0	4.3930	0	34.4430	8	27.307	0	609.511	0	24.6	4	7.9	4	-1E+10	1	-1E+10	1	-1E+10	1	-1E+10	1	-1E+10	1	-1E+10	1
4901784	126	C	12/16/2018	10:40	-133.217	43.026	0	619.80	0	4.3830	0	34.4490	8	27.313	0	613.962	0	23.8	4	7.6	4	-1E+10	1	-1E+10	1	-1E+10	1	-1E+10	1	-1E+10	1	-1E+10	1
4901784	126	C	12/16/2018	10:40	-133.217	43.026	0	624.30	0	4.3650	0	34.4540	8	27.318	0	618.413	0	23.3	4	7.4	4	-1E+10	1	-1E+10	1	-1E+10	1	-1E+10	1	-1E+10	1	-1E+10	1
4901784	126	C	12/16/2018	10:40	-133.217	43.026	0	629.80	0	4.3410	0	34.4580	8	27.324	0	623.853	0	22.7	4	7.3	4	-1E+10	1	-1E+10	1	-1E+10	1	-1E+10	1	-1E+10	1	-1E+10	1
4901784	126	C	12/16/2018	10:40	-133.217	43.026	0	635.30	0	4.3370	0	34.4610	8	27.327	0	629.292	0	22.1	4	7.1	4	-1E+10	1	-1E+10	1	-1E+10	1	-1E+10	1	-1E+10	1	-1E+10	1
4901784	126	C	12/16/2018	10:40	-133.217	43.026	0	639.90	0	4.3120	0	34.4640	8	27.332	0	633.842	0	21.5	4	6.9	4	-1E+10	1	-1E+10	1	-1E+10	1	-1E+10	1	-1E+10	1	-1E+10	1
4901784	126	C	12/16/2018	10:40	-133.217	43.026	0	644.50	0	4.2990	0	34.4700	8	27.338	0	638.391	0	21.0	4	6.7	4	-1E+10	1	-1E+10	1	-1E+10	1	-1E+10	1	-1E+10	1	-1E+10	1
4901784	126	C	12/16/2018	10:40	-133.217	43.026	0	650.10	0	4.2800	0	34.4730	8	27.343	0	643.930	0	20.5	4	6.5	4	-1E+10	1	-1E+10	1	-1E+10	1	-1E+10	1	-1E+10	1	-1E+10	1
4901784	126	C	12/16/2018	10:40	-133.217	43.026	0	654.70	0	4.2670	0	34.4790	8	27.349	0	648.479	0	19.9	4	6.3	4	-1E+10	1	-1E+10	1	-1E+10	1	-1E+10	1	-1E+10	1	-1E+10	1
4901784	126	C	12/16/2018	10:40	-133.217	43.026	0	659.40	0	4.2490	0	34.4830	8	27.354	0	653.127	0	19.5	4	6.2	4	-1E+10	1	-1E+10	1	-1E+10	1	-1E+10	1	-1E+10	1	-1E+10	1
4901784	126	C	12/16/2018	10:40	-133.217	43.026	0	664.70	0	4.2420	0	34.4860	8	27.357	0	658.368	0	18.7	4	6.0	4	-1E+10	1	-1E+10	1	-1E+10	1	-1E+10	1	-1E+10	1	-1E+10	1
4901784	126	C	12/16/2018	10:40	-133.217	43.026	0	669.60	0	4.2340	0	34.4940	8	27.365	0	663.214	0	18.0	4	5.7	4	-1E+10	1	-1E+10	1	-1E+10	1	-1E+10	1	-1E+10	1	-1E+10	1
4901784	126	C	12/16/2018	10:40	-133.217	43.026	0	674.40	0	4.2180	0	34.4990	8	27.370	0	667.960	0	17.6	4	5.6	4	-1E+10	1	-1E+10	1	-1E+10	1	-1E+10	1	-1E+10	1	-1E+10	1
4901784	126	C	12/16/2018	10:40	-133.217	43.026	0	679.20	0	4.2090	0	34.5040	8	27.375	0	672.707	0	17.1	4	5.4	4	-1E+10	1	-1E+10	1	-1E+10	1	-1E+10	1	-1E+10	1	-1E+10	1
4901784	126	C	12/16/2018	10:40	-133.217	43.026	0	684.90	0	4.1820	0	34.5100	8	27.383	0	678.343	0	16.6	4	5.3	4	-1E+10	1	-1E+10	1	-1E+10	1	-1E+10	1	-1E+10	1	-1E+10	1
4901784	126	C	12/16/2018	10:40	-133.217	43.026	0	690.50	0	4.1600	0	34.5170	8	27.391	0	683.880	0	16.1	4	5.1	4	-1E+10	1	-1E+10	1	-1E+10	1	-1E+10	1	-1E+10	1	-1E+10	1
4901784	126	C	12/16/2018	10:40	-133.217	43.026	0	695.50	0	4.1420	0	34.5220	8	27.397	0	688.824	0	15.8	4	5.0	4	-1E+10	1	-1E+10	1	-1E+10	1	-1E+10	1	-1E+10	1	-1E+10	1
4901784	126	C	12/16/2018	10:40	-133.217	43.026	0	700.30	0	4.1320	0	34.5240	8	27.399	0	693.570	0	15.5	4	4.9	4	-1E+10	1	-1E+10	1	-1E+10	1	-1E+10	1	-1E+10	1	-1E+10	1
4901784	126	C	12/16/2018	10:40	-133.217	43.026	0	705.30	0	4.1040	0	34.5310	8	27.408	0	698.513	0	15.2	4	4.8	4	-1E+10	1	-1E+10	1	-1E+10	1	-1E+10	1	-1E+10	1	-1E+10	1
4901784	126	C	12/16/2018	10:40	-133.217	43.026	0	710.40	0	4.0900	0	34.5340	8	27.412	0	703.556	0	15.1	4	4.8	4	-1E+10	1	-1E+10	1	-1E+10	1	-1E+10	1	-1E+10	1	-1E+10	1
4901784	126	C	12/16/2018	10:40	-133.217	43.026	0	715.40	0	4.0880	0	34.5350	8	27.413	0	708.499	0	14.9	4	4.7	4	-1E+10	1	-1E+10	1	-1E+10	1	-1E+10	1	-1E+10	1	-1E+10	1
4901784	126	C	12/16/2018	10:40	-133.217	43.026	0	720.50	0	4.0720	0	34.5380	8	27.417	0	713.541	0	14.6	4	4.6	4	-1E+10	1	-1E+10	1	-1E+10	1	-1E+10	1	-1E+10	1	-1E+10	1
4901784	126	C	12/16/2018	10:40	-133.217	43.026	0	725.70	0	4.0500	0	34.5430	8	27.423	0	718.682	0	14.4	4	4.6	4	-1E+10	1	-1E+10	1	-1E+10	1	-1E+10	1	-1E+10	1	-1E+10	1
4901784	126	C	12/16/2018	10:40	-133.217	43.026	0	730.10	0	4.0380	0	34.5470	8	27.428	0	723.032	0	14.3	4	4.5	4	-1E+10	1	-1E+10	1	-1E+10	1	-1E+10	1	-1E+10	1	-1E+10	1
4901784	126	C	12/16/2018	10:40	-133.217	43.026	0	734.50	0	4.0230	0	34.5490	8	27.431	0	727.381	0	14.2	4	4.5	4	-1E+10	1	-1E+10	1	-1E+10	1	-1E+10	1	-1E+10	1	-1E+10	1
4901784	126	C	12/16/2018	10:40	-133.217	43.026	0	739.80	0	4.0140	0	34.5520	8	27.434	0	732.621	0	14.0	4	4.4	4	-1E+10	1	-1E+10	1	-1E+10	1	-1E+10	1	-1E+10	1	-1E+10	1
4901784	126	C	12/16/2018	10:40	-133.217	43.026	0	745.20	0	4.0010	0	34.5560	8	27.439	0	737.959	0	13.8	4	4.4	4	-1E+10	1	-1E+10	1	-1E+10	1	-1E+10	1	-1E+10	1	-1E+10	1
4901784	126	C	12/16/2018	10:40	-133.217	43.026	0	750.50	0	3.9940	0	34.5570	8	27.440	0	743.198	0	13.6	4	4.3	4	-1E+10	1	-1E+10	1	-1E+10	1	-1E+10	1	-1E+10	1	-1E+10	1
4901784	126	C	12/16/2018	10:40	-133.217	43.026	0	755.00	0	3.9740	0	34.5620	8	27.446	0	747.646	0	13.3	4	4.2	4	-1E+10	1	-1E+10	1	-1E+10	1	-1E+10	1	-1E+10	1	-1E+10	1
4901784	126	C	12/16/2018	10:40	-133.217	43.026	0	759.50	0	3.9590	0	34.5660	8	27.451	0	752.094	0	13.1	4	4.1	4	-1E+10	1	-1E+10	1	-1E+10	1	-1E+10	1	-1E+10	1	-1E+10	1
4901784	126	C	12/16/2018	10:40	-133.217	43.026	0	764.80	0	3.9430	0	34.5710	8	27.457	0	757.333	0	12.9	4	4.1	4	-1E+10	1	-1E+10	1	-1E+10	1	-1E+10	1	-1E+10	1	-1E+10	1
4901784	126	C	12/16/2018	10:40	-133.217	43.026	0	770.30	0	3.9270	0	34.5760	8	27.462	0	762.769	0	12.7	4	4.0	4	-1E+10	1	-1E+10	1	-1E+10	1	-1E+10	1	-1E+10	1	-1E+10	1
4901784	126	C	12/16/2018	10:40	-133.217	43.026	0	774.80	0	3.9210	0	34.5780	8	27.465	0	767.217	0	12.6	4	4.0	4	-1E+10	1	-1E+10	1	-1E+10	1	-1E+10	1	-1E+10	1	-1E+10	1
4901784	126	C	12/16/2018	10:40	-133.217	43.026	0	779.40	0	3.9060	0	34.5800	8	27.468	0	771.763	0	12.4	4	3.9	4	-1E+10	1	-1E+10	1	-1E+10	1	-1E+10	1	-1E+10	1	-1E+10	1
4901784	126	C	12/16/2018	10:40	-133.217	43.026	0	784.90	0	3.8760	0	34.5870	8	27.476	0	777.199	0	12.3	4	3.9	4	-1E+10	1	-1E+10	1	-1E+10	1	-1E+10	1	-1E+10	1	-1E+10	1
4901784	126	C	12/16/2018	10:40	-133.217	43.026	0	790.40	0	3.8620	0	34.5910	8	27.481	0	782.635	0	12.1	4	3.8	4	-1E+10	1	-1E+10	1	-1E+10	1	-1E+10	1	-1E+10	1	-1E+10	1
4901784	126	C	12/16/2018	10:40	-133.217	43.026	0	794.90	0	3.8540	0	34.5930	8	27.483	0	787.082	0	12.0	4	3.8	4	-1E+10	1	-1E+10	1	-1E+10	1	-1E+10	1	-1E+10	1	-1E+10	1
4901784	126	C	12/16/2018	10:40	-133.217	43.026	0	799.60	0	3.8450	0	34.5970	8	27.488	0	791.727	0	11.9	4	3.8	4	-1E+10	1	-1E+10	1	-1E+10	1	-1E+10	1	-1E+10	1	-1E+10	1
4901784	126	C	12/16/2018	10:40	-133.217	43.026	0	805.20	0	3.8360	0	34.6000	8	27.491	0	797.261	0	11.8	4	3.7	4	-1E+10	1	-1E+10	1	-1E+10	1	-1E+10	1	-1E+10	1	-1E+10	1
4901784	126	C	12/16/2018	10:40	-133.217	43.026	0	809.90	0	3.8310	0	34.6010	8	27.492	0	801.906	0	11.7	4	3.7	4	-1E+10	1	-1E+10	1	-1E+10	1	-1E+10	1	-1E+10	1	-1E+10	1
4901784	126	C	12/16/2018	10:40	-133.217	43.026	0	814.90	0	3.8170	0	34.6060	8	27.498	0	806.847	0	11.6	4	3.6	4	-1E+10	1	-1E+10	1	-1E+10	1	-1E+10	1	-1E+10	1	-1E+10	1
4901784	126	C	12/16/2018	10:40	-133.217	43.026	0	820.00	0	3.8050	0	34.6100	8	27.502	0	811.887	0	11.5	4	3.6	4	-1E+10	1	-1E+10	1	-1E+10	1	-1E+10	1	-1E+10	1	-1E+10	1
4901784	126	C	12/16/2018	10:40	-133.217	43.026	0	824.80	0	3.7960	0	34.6130	8	27.505	0	816.630	0	11.4	4	3.6	4	-1E+10	1	-1E+10	1	-1E+10	1	-1E+10	1	-1E+10	1	-1E+10	1
4901784	126	C	12/16/2018	10:40	-133.217	43.026	0	829.60	0	3.7920	0	34.6140	8	27.507	0	821.373	0	11.4	4	3.6	4	-1E+10	1	-1E+10	1	-1E+10	1	-1E+10	1	-1E+10	1	-1E+10	1
4901784	126	C	12/16/2018	10:40	-133.217	43.026	0	834.40	0	3.7900	0	34.6150	8	27.508	0	826.116	0	11.3	4	3.6	4	-1E+10	1	-1E+10	1	-1E+10	1	-1E+10	1	-1E+10	1	-1E+10	1
4901784	126	C	12/16/2018	10:40	-133.217	43.026	0	839.30	0	3.7830	0	34.6180	8	27.511	0	830.957	0	11.2	4	3.5	4	-1E+10	1	-1E+10	1	-1E+10	1	-1E+10	1	-1E+10	1	-1E+10	1
4901784	126	C	12/16/2018	10:40	-133.217	43.026	0	844.30	0	3.7690	0	34.6230	8	27.516	0	835.898	0	11.0	4	3.5	4	-1E+10	1	-1E+10	1	-1E+10	1	-1E+10	1	-1E+10	1	-1E+10	1
4901784	126	C	12/16/2018	10:40	-133.217	43.026	0	849.30	0	3.7570	0	34.6270	8	27.521	0	840.838	0	11.0	4	3.5	4	-1E+10	1	-1E+10	1	-1E+10	1	-1E+10	1	-1E+10	1	-1E+10	1
4901784	126	C	12/16/2018	10:40	-133.217	43.026	0	854.40	0	3.7500	0	34.6290	8	27.523	0	845.877	0	10.9	4	3.4	4	-1E+10	1	-1E+10	1	-1E+10	1	-1E+10	1	-1E+10	1	-1E+10	1
4901784	126	C	12/16/2018	10:40	-133.217	43.026	0	859.40	0	3.7460	0	34.6330	8	27.527	0	850.817	0	10.8	4	3.4	4	-1E+10	1	-1E+10	1	-1E+10	1	-1E+10	1	-1E+10	1	-1E+10	1
4901784	126	C	12/16/2018	10:40	-133.217	43.026	0	864.50	0	3.7400	0	34.6360	8	27.530	0	855.855	0	10.7	4	3.4	4	-1E+10	1	-1E+10	1	-1E+10	1	-1E+10	1	-1E+10	1	-1E+10	1
4901784	126	C	12/16/2018	10:40	-133.217	43.026	0	869.60	0	3.7290	0	34.6380	8	27.532	0	860.894	0	10.7	4	3.4	4	-1E+10	1	-1E+10	1	-1E+10	1	-1E+10	1	-1E+10	1	-1E+10	1
4901784	126	C	12/16/2018	10:40	-133.217	43.026	0	874.70	0	3.7240	0	34.6410	8	27.535	0	865.932	0	10.6	4	3.3	4	-1E+10	1	-1E+10	1	-1E+10	1	-1E+10	1	-1E+10	1	-1E+10	1
4901784	126	C	12/16/2018	10:40	-133.217	43.026	0	879.80	0	3.7140	0	34.6440	8	27.539	0	870.970	0	10.6	4	3.3	4	-1E+10	1	-1E+10	1	-1E+10	1	-1E+10	1	-1E+10	1	-1E+10	1
4901784	126	C	12/16/2018	10:40	-133.217	43.026	0	885.00	0	3.6950	0	34.6460	8	27.542	0	876.107	0	10.5	4	3.3	4	-1E+10	1	-1E+10	1	-1E+10	1	-1E+10	1	-1E+10	1	-1E+10	1
4901784	126	C	12/16/2018	10:40	-133.217	43.026	0	890.10	0	3.6940	0	34.6510	8	27.546	0	881.145	0	10.5	4	3.3	4	-1E+10	1	-1E+10	1	-1E+10	1	-1E+10	1	-1E+10	1	-1E+10	1
4901784	126	C	12/16/2018	10:40	-133.217	43.026	0	895.40	0	3.6850	0	34.6550	8	27.550	0	886.381	0	10.4	4	3.3	4	-1E+10	1	-1E+10	1	-1E+10	1	-1E+10	1	-1E+10	1	-1E+10	1
4901784	126	C	12/16/2018	10:40	-133.217	43.026	0	900.70	0	3.6750	0	34.6580	8	27.554	0	891.616	0	10.4	4	3.3	4	-1E+10	1	-1E+10	1	-1E+10	1	-1E+10	1	-1E+10	1	-1E+10	1
4901784	126	C	12/16/2018	10:40	-133.217	43.026	0	905.10	0	3.6680	0	34.6600	8	27.556	0	895.962	0	10.4	4	3.3	4	-1E+10	1	-1E+10	1	-1E+10	1	-1E+10	1	-1E+10	1	-1E+10	1
4901784	126	C	12/16/2018	10:40	-133.217	43.026	0	909.40	0	3.6610	0	34.6600	8	27.557	0	900.210	0	10.4	4	3.3	4	-1E+10	1	-1E+10	1	-1E+10	1	-1E+10	1	-1E+10	1	-1E+10	1
4901784	126	C	12/16/2018	10:40	-133.217	43.026	0	914.70	0	3.6540	0	34.6630	8	27.560	0	905.445	0	10.4	4	3.3	4	-1E+10	1	-1E+10	1	-1E+10	1	-1E+10	1	-1E+10	1	-1E+10	1
4901784	126	C	12/16/2018	10:40	-133.217	43.026	0	920.10	0	3.6380	0	34.6680	8	27.566	0	910.778	0	10.4	4	3.3	4	-1E+10	1	-1E+10	1	-1E+10	1	-1E+10	1	-1E+10	1	-1E+10	1
4901784	126	C	12/16/2018	10:40	-133.217	43.026	0	925.40	0	3.6340	0	34.6700	8	27.568	0	916.013	0	10.4	4	3.3	4	-1E+10	1	-1E+10	1	-1E+10	1	-1E+10	1	-1E+10	1	-1E+10	1
4901784	126	C	12/16/2018	10:40	-133.217	43.026	0	929.90	0	3.6230	0	34.6730	8	27.571	0	920.457	0	10.4	4	3.3	4	-1E+10	1	-1E+10	1	-1E+10	1	-1E+10	1	-1E+10	1	-1E+10	1
4901784	126	C	12/16/2018	10:40	-133.217	43.026	0	934.40	0	3.6050	0	34.6760	8	27.575	0	924.902	0	10.4	4	3.3	4	-1E+10	1	-1E+10	1	-1E+10	1	-1E+10	1	-1E+10	1	-1E+10	1
4901784	126	C	12/16/2018	10:40	-133.217	43.026	0	939.90	0	3.5990	0	34.6780	8	27.578	0	930.334	0	10.4	4	3.3	4	-1E+10	1	-1E+10	1	-1E+10	1	-1E+10	1	-1E+10	1	-1E+10	1
4901784	126	C	12/16/2018	10:40	-133.217	43.026	0	945.30	0	3.5880	0	34.6810	8	27.581	0	935.667	0	10.4	4	3.3	4	-1E+10	1	-1E+10	1	-1E+10	1	-1E+10	1	-1E+10	1	-1E+10	1
4901784	126	C	12/16/2018	10:40	-133.217	43.026	0	949.90	0	3.5770	0	34.6840	8	27.585	0	940.209	0	10.5	4	3.3	4	-1E+10	1	-1E+10	1	-1E+10	1	-1E+10	1	-1E+10	1	-1E+10	1
4901784	126	C	12/16/2018	10:40	-133.217	43.026	0	954.40	0	3.5660	0	34.6860	8	27.587	0	944.653	0	10.5	4	3.3	4	-1E+10	1	-1E+10	1	-1E+10	1	-1E+10	1	-1E+10	1	-1E+10	1
4901784	126	C	12/16/2018	10:40	-133.217	43.026	0	959.90	0	3.5510	0	34.6900	8	27.592	0	950.085	0	10.5	4	3.3	4	-1E+10	1	-1E+10	1	-1E+10	1	-1E+10	1	-1E+10	1	-1E+10	1
4901784	126	C	12/16/2018	10:40	-133.217	43.026	0	965.30	0	3.5440	0	34.6910	8	27.594	0	955.417	0	10.6	4	3.3	4	-1E+10	1	-1E+10	1	-1E+10	1	-1E+10	1	-1E+10	1	-1E+10	1
4901784	126	C	12/16/2018	10:40	-133.217	43.026	0	969.80	0	3.5320	0	34.6940	8	27.597	0	959.861	0	10.6	4	3.3	4	-1E+10	1	-1E+10	1	-1E+10	1	-1E+10	1	-1E+10	1	-1E+10	1
4901784	126	C	12/16/2018	10:40	-133.217	43.026	0	974.40	0	3.5190	0	34.6970	8	27.601	0	964.403	0	10.7	4	3.3	4	-1E+10	1	-1E+10	1	-1E+10	1	-1E+10	1	-1E+10	1	-1E+10	1
4901784	126	C	12/16/2018	10:40	-133.217	43.026	0	980.00	0	3.5060	0	34.7000	8	27.604	0	969.933	0	10.7	4	3.4	4	-1E+10	1	-1E+10	1	-1E+10	1	-1E+10	1	-1E+10	1	-1E+10	1
4901784	126	C	12/16/2018	10:40	-133.217	43.026	0	985.50	0	3.4990	0	34.7010	8	27.606	0	975.363	0	10.8	4	3.4	4	-1E+10	1	-1E+10	1	-1E+10	1	-1E+10	1	-1E+10	1	-1E+10	1
4901784	126	C	12/16/2018	10:40	-133.217	43.026	0	990.10	0	3.4910	0	34.7040	8	27.609	0	979.905	0	10.8	4	3.4	4	-1E+10	1	-1E+10	1	-1E+10	1	-1E+10	1	-1E+10	1	-1E+10	1
4901784	126	C	12/16/2018	10:40	-133.217	43.026	0	994.70	0	3.4840	0	34.7050	8	27.611	0	984.447	0	10.9	4	3.4	4	-1E+10	1	-1E+10	1	-1E+10	1	-1E+10	1	-1E+10	1	-1E+10	1
4901784	126	C	12/16/2018	10:40	-133.217	43.026	0	1000.20	0	3.4740	0	34.7070	8	27.613	0	989.877	0	10.9	4	3.4	4	-1E+10	1	-1E+10	1	-1E+10	1	-1E+10	1	-1E+10	1	-1E+10	1
4901784	126	C	12/16/2018	10:40	-133.217	43.026	0	1004.80	0	3.4670	0	34.7090	8	27.616	0	994.419	0	10.9	4	3.4	4	-1E+10	1	-1E+10	1	-1E+10	1	-1E+10	1	-1E+10	1	-1E+10	1
4901784	126	C	12/16/2018	10:40	-133.217	43.026	0	1009.50	0	3.4610	0	34.7100	8	27.617	0	999.059	0	11.0	4	3.4	4	-1E+10	1	-1E+10	1	-1E+10	1	-1E+10	1	-1E+10	1	-1E+10	1
4901784	126	C	12/16/2018	10:40	-133.217	43.026	0	1015.10	0	3.4570	0	34.7110	8	27.618	0	1004.588	0	11.0	4	3.4	4	-1E+10	1	-1E+10	1	-1E+10	1	-1E+10	1	-1E+10	1	-1E+10	1
4901784	126	C	12/16/2018	10:40	-133.217	43.026	0	1019.90	0	3.4520	0	34.7110	8	27.619	0	1009.327	0	11.1	4	3.5	4	-1E+10	1	-1E+10	1	-1E+10	1	-1E+10	1	-1E+10	1	-1E+10	1
4901784	126	C	12/16/2018	10:40	-133.217	43.026	0	1025.30	0	3.4390	0	34.7140	8	27.622	0	1014.658	0	11.2	4	3.5	4	-1E+10	1	-1E+10	1	-1E+10	1	-1E+10	1	-1E+10	1	-1E+10	1
4901784	126	C	12/16/2018	10:40	-133.217	43.026	0	1030.40	0	3.4230	0	34.7170	8	27.626	0	1019.692	0	11.3	4	3.5	4	-1E+10	1	-1E+10	1	-1E+10	1	-1E+10	1	-1E+10	1	-1E+10	1
4901784	126	C	12/16/2018	10:40	-133.217	43.026	0	1035.20	0	3.4130	0	34.7190	8	27.629	0	1024.431	0	11.4	4	3.5	4	-1E+10	1	-1E+10	1	-1E+10	1	-1E+10	1	-1E+10	1	-1E+10	1
4901784	126	C	12/16/2018	10:40	-133.217	43.026	0	1040.00	0	3.3960	0	34.7230	8	27.634	0	1029.169	0	11.5	4	3.6	4	-1E+10	1	-1E+10	1	-1E+10	1	-1E+10	1	-1E+10	1	-1E+10	1
4901784	126	C	12/16/2018	10:40	-133.217	43.026	0	1044.90	0	3.3810	0	34.7260	8	27.638	0	1034.006	0	11.5	4	3.6	4	-1E+10	1	-1E+10	1	-1E+10	1	-1E+10	1	-1E+10	1	-1E+10	1
4901784	126	C	12/16/2018	10:40	-133.217	43.026	0	1049.80	0	3.3770	0	34.7270	8	27.639	0	1038.843	0	11.6	4	3.6	4	-1E+10	1	-1E+10	1	-1E+10	1	-1E+10	1	-1E+10	1	-1E+10	1
4901784	126	C	12/16/2018	10:40	-133.217	43.026	0	1054.70	0	3.3680	0	34.7280	8	27.641	0	1043.679	0	11.7	4	3.6	4	-1E+10	1	-1E+10	1	-1E+10	1	-1E+10	1	-1E+10	1	-1E+10	1
4901784	126	C	12/16/2018	10:40	-133.217	43.026	0	1059.70	0	3.3610	0	34.7300	8	27.643	0	1048.615	0	11.7	4	3.7	4	-1E+10	1	-1E+10	1	-1E+10	1	-1E+10	1	-1E+10	1	-1E+10	1
4901784	126	C	12/16/2018	10:40	-133.217	43.026	0	1064.70	0	3.3570	0	34.7300	8	27.643	0	1053.550	0	11.8	4	3.7	4	-1E+10	1	-1E+10	1	-1E+10	1	-1E+10	1	-1E+10	1	-1E+10	1
4901784	126	C	12/16/2018	10:40	-133.217	43.026	0	1069.60	0	3.3490	0	34.7320	8	27.646	0	1058.386	0	11.9	4	3.7	4	-1E+10	1	-1E+10	1	-1E+10	1	-1E+10	1	-1E+10	1	-1E+10	1
4901784	126	C	12/16/2018	10:40	-133.217	43.026	0	1074.60	0	3.3370	0	34.7350	8	27.649	0	1063.321	0	12.1	4	3.8	4	-1E+10	1	-1E+10	1	-1E+10	1	-1E+10	1	-1E+10	1	-1E+10	1
4901784	126	C	12/16/2018	10:40	-133.217	43.026	0	1079.50	0	3.3300	0	34.7370	8	27.652	0	1068.157	0	12.2	4	3.8	4	-1E+10	1	-1E+10	1	-1E+10	1	-1E+10	1	-1E+10	1	-1E+10	1
4901784	126	C	12/16/2018	10:40	-133.217	43.026	0	1084.50	0	3.3250	0	34.7390	8	27.654	0	1073.092	0	12.3	4	3.8	4	-1E+10	1	-1E+10	1	-1E+10	1	-1E+10	1	-1E+10	1	-1E+10	1
4901784	126	C	12/16/2018	10:40	-133.217	43.026	0	1089.50	0	3.3140	0	34.7410	8	27.656	0	1078.026	0	12.4	4	3.9	4	-1E+10	1	-1E+10	1	-1E+10	1	-1E+10	1	-1E+10	1	-1E+10	1
4901784	126	C	12/16/2018	10:40	-133.217	43.026	0	1094.50	0	3.3000	0	34.7440	8	27.660	0	1082.961	0	12.5	4	3.9	4	-1E+10	1	-1E+10	1	-1E+10	1	-1E+10	1	-1E+10	1	-1E+10	1
4901784	126	C	12/16/2018	10:40	-133.217	43.026	0	1100.00	0	3.2900	0	34.7450	8	27.662	0	1088.389	0	12.6	4	3.9	4	-1E+10	1	-1E+10	1	-1E+10	1	-1E+10	1	-1E+10	1	-1E+10	1
4901784	126	C	12/16/2018	10:40	-133.217	43.026	0	1105.60	0	3.2740	0	34.7470	8	27.665	0	1093.915	0	12.7	4	4.0	4	-1E+10	1	-1E+10	1	-1E+10	1	-1E+10	1	-1E+10	1	-1E+10	1
4901784	126	C	12/16/2018	10:40	-133.217	43.026	0	1110.20	0	3.2640	0	34.7490	8	27.668	0	1098.454	0	12.8	4	4.0	4	-1E+10	1	-1E+10	1	-1E+10	1	-1E+10	1	-1E+10	1	-1E+10	1
4901784	126	C	12/16/2018	10:40	-133.217	43.026	0	1114.90	0	3.2570	0	34.7500	8	27.669	0	1103.092	0	12.9	4	4.0	4	-1E+10	1	-1E+10	1	-1E+10	1	-1E+10	1	-1E+10	1	-1E+10	1
4901784	126	C	12/16/2018	10:40	-133.217	43.026	0	1120.50	0	3.2430	0	34.7510	8	27.671	0	1108.618	0	13.0	4	4.1	4	-1E+10	1	-1E+10	1	-1E+10	1	-1E+10	1	-1E+10	1	-1E+10	1
4901784	126	C	12/16/2018	10:40	-133.217	43.026	0	1125.20	0	3.2330	0	34.7530	8	27.674	0	1113.256	0	13.1	4	4.1	4	-1E+10	1	-1E+10	1	-1E+10	1	-1E+10	1	-1E+10	1	-1E+10	1
4901784	126	C	12/16/2018	10:40	-133.217	43.026	0	1130.00	0	3.2220	0	34.7540	8	27.676	0	1117.992	0	13.2	4	4.1	4	-1E+10	1	-1E+10	1	-1E+10	1	-1E+10	1	-1E+10	1	-1E+10	1
4901784	126	C	12/16/2018	10:40	-133.217	43.026	0	1134.90	0	3.2140	0	34.7560	8	27.678	0	1122.827	0	13.3	4	4.1	4	-1E+10	1	-1E+10	1	-1E+10	1	-1E+10	1	-1E+10	1	-1E+10	1
4901784	126	C	12/16/2018	10:40	-133.217	43.026	0	1139.80	0	3.2020	0	34.7570	8	27.680	0	1127.662	0	13.4	4	4.2	4	-1E+10	1	-1E+10	1	-1E+10	1	-1E+10	1	-1E+10	1	-1E+10	1
4901784	126	C	12/16/2018	10:40	-133.217	43.026	0	1144.70	0	3.1860	0	34.7590	8	27.683	0	1132.496	0	13.6	4	4.2	4	-1E+10	1	-1E+10	1	-1E+10	1	-1E+10	1	-1E+10	1	-1E+10	1
4901784	126	C	12/16/2018	10:40	-133.217	43.026	0	1149.60	0	3.1740	0	34.7610	8	27.686	0	1137.331	0	13.7	4	4.3	4	-1E+10	1	-1E+10	1	-1E+10	1	-1E+10	1	-1E+10	1	-1E+10	1
4901784	126	C	12/16/2018	10:40	-133.217	43.026	0	1154.60	0	3.1670	0	34.7620	8	27.687	0	1142.264	0	13.8	4	4.3	4	-1E+10	1	-1E+10	1	-1E+10	1	-1E+10	1	-1E+10	1	-1E+10	1
4901784	126	C	12/16/2018	10:40	-133.217	43.026	0	1159.50	0	3.1500	0	34.7640	8	27.691	0	1147.098	0	13.9	4	4.3	4	-1E+10	1	-1E+10	1	-1E+10	1	-1E+10	1	-1E+10	1	-1E+10	1
4901784	126	C	12/16/2018	10:40	-133.217	43.026	0	1164.60	0	3.1450	0	34.7650	8	27.692	0	1152.130	0	14.0	4	4.3	4	-1E+10	1	-1E+10	1	-1E+10	1	-1E+10	1	-1E+10	1	-1E+10	1
4901784	126	C	12/16/2018	10:40	-133.217	43.026	0	1169.60	0	3.1370	0	34.7660	8	27.693	0	1157.062	0	14.1	4	4.4	4	-1E+10	1	-1E+10	1	-1E+10	1	-1E+10	1	-1E+10	1	-1E+10	1
4901784	126	C	12/16/2018	10:40	-133.217	43.026	0	1174.70	0	3.1330	0	34.7680	8	27.695	0	1162.094	0	14.2	4	4.4	4	-1E+10	1	-1E+10	1	-1E+10	1	-1E+10	1	-1E+10	1	-1E+10	1
4901784	126	C	12/16/2018	10:40	-133.217	43.026	0	1179.90	0	3.1290	0	34.7680	8	27.696	0	1167.223	0	14.2	4	4.4	4	-1E+10	1	-1E+10	1	-1E+10	1	-1E+10	1	-1E+10	1	-1E+10	1
4901784	126	C	12/16/2018	10:40	-133.217	43.026	0	1185.00	0	3.1270	0	34.7680	8	27.696	0	1172.254	0	14.3	4	4.4	4	-1E+10	1	-1E+10	1	-1E+10	1	-1E+10	1	-1E+10	1	-1E+10	1
4901784	126	C	12/16/2018	10:40	-133.217	43.026	0	1190.20	0	3.1190	0	34.7690	8	27.698	0	1177.384	0	14.4	4	4.5	4	-1E+10	1	-1E+10	1	-1E+10	1	-1E+10	1	-1E+10	1	-1E+10	1
4901784	126	C	12/16/2018	10:40	-133.217	43.026	0	1195.50	0	3.1110	0	34.7710	8	27.700	0	1182.612	0	14.5	4	4.5	4	-1E+10	1	-1E+10	1	-1E+10	1	-1E+10	1	-1E+10	1	-1E+10	1
4901784	126	C	12/16/2018	10:40	-133.217	43.026	0	1200.00	0	3.1050	0	34.7710	8	27.701	0	1187.051	0	14.6	4	4.5	4	-1E+10	1	-1E+10	1	-1E+10	1	-1E+10	1	-1E+10	1	-1E+10	1
4901784	126	C	12/16/2018	10:40	-133.217	43.026	0	1204.50	0	3.0970	0	34.7720	8	27.702	0	1191.489	0	14.7	4	4.6	4	-1E+10	1	-1E+10	1	-1E+10	1	-1E+10	1	-1E+10	1	-1E+10	1
4901784	126	C	12/16/2018	10:40	-133.217	43.026	0	1209.80	0	3.0860	0	34.7730	8	27.704	0	1196.717	0	14.8	4	4.6	4	-1E+10	1	-1E+10	1	-1E+10	1	-1E+10	1	-1E+10	1	-1E+10	1
4901784	126	C	12/16/2018	10:40	-133.217	43.026	0	1215.20	0	3.0680	0	34.7760	8	27.708	0	1202.043	0	15.0	4	4.7	4	-1E+10	1	-1E+10	1	-1E+10	1	-1E+10	1	-1E+10	1	-1E+10	1
4901784	126	C	12/16/2018	10:40	-133.217	43.026	0	1220.40	0	3.0590	0	34.7780	8	27.710	0	1207.172	0	15.2	4	4.7	4	-1E+10	1	-1E+10	1	-1E+10	1	-1E+10	1	-1E+10	1	-1E+10	1
4901784	126	C	12/16/2018	10:40	-133.217	43.026	0	1224.90	0	3.0550	0	34.7790	8	27.712	0	1211.610	0	15.3	4	4.7	4	-1E+10	1	-1E+10	1	-1E+10	1	-1E+10	1	-1E+10	1	-1E+10	1
4901784	126	C	12/16/2018	10:40	-133.217	43.026	0	1229.20	0	3.0500	0	34.7790	8	27.712	0	1215.851	0	15.4	4	4.8	4	-1E+10	1	-1E+10	1	-1E+10	1	-1E+10	1	-1E+10	1	-1E+10	1
4901784	126	C	12/16/2018	10:40	-133.217	43.026	0	1234.20	0	3.0420	0	34.7800	8	27.714	0	1220.782	0	15.5	4	4.8	4	-1E+10	1	-1E+10	1	-1E+10	1	-1E+10	1	-1E+10	1	-1E+10	1
4901784	126	C	12/16/2018	10:40	-133.217	43.026	0	1239.30	0	3.0290	0	34.7820	8	27.717	0	1225.812	0	15.7	4	4.9	4	-1E+10	1	-1E+10	1	-1E+10	1	-1E+10	1	-1E+10	1	-1E+10	1
4901784	126	C	12/16/2018	10:40	-133.217	43.026	0	1244.30	0	3.0190	0	34.7830	8	27.718	0	1230.743	0	15.9	4	4.9	4	-1E+10	1	-1E+10	1	-1E+10	1	-1E+10	1	-1E+10	1	-1E+10	1
4901784	126	C	12/16/2018	10:40	-133.217	43.026	0	1249.40	0	3.0080	0	34.7850	8	27.721	0	1235.773	0	16.0	4	5.0	4	-1E+10	1	-1E+10	1	-1E+10	1	-1E+10	1	-1E+10	1	-1E+10	1
4901784	126	C	12/16/2018	10:40	-133.217	43.026	0	1254.50	0	3.0000	0	34.7860	8	27.722	0	1240.802	0	16.2	4	5.0	4	-1E+10	1	-1E+10	1	-1E+10	1	-1E+10	1	-1E+10	1	-1E+10	1
4901784	126	C	12/16/2018	10:40	-133.217	43.026	0	1259.60	0	2.9930	0	34.7880	8	27.725	0	1245.831	0	16.3	4	5.1	4	-1E+10	1	-1E+10	1	-1E+10	1	-1E+10	1	-1E+10	1	-1E+10	1
4901784	126	C	12/16/2018	10:40	-133.217	43.026	0	1264.80	0	2.9850	0	34.7890	8	27.726	0	1250.959	0	16.5	4	5.1	4	-1E+10	1	-1E+10	1	-1E+10	1	-1E+10	1	-1E+10	1	-1E+10	1
4901784	126	C	12/16/2018	10:40	-133.217	43.026	0	1270.10	0	2.9740	0	34.7900	8	27.728	0	1256.185	0	16.7	4	5.2	4	-1E+10	1	-1E+10	1	-1E+10	1	-1E+10	1	-1E+10	1	-1E+10	1
4901784	126	C	12/16/2018	10:40	-133.217	43.026	0	1275.50	0	2.9620	0	34.7920	8	27.731	0	1261.510	0	16.9	4	5.2	4	-1E+10	1	-1E+10	1	-1E+10	1	-1E+10	1	-1E+10	1	-1E+10	1
4901784	126	C	12/16/2018	10:40	-133.217	43.026	0	1279.90	0	2.9530	0	34.7940	8	27.733	0	1265.848	0	17.1	4	5.3	4	-1E+10	1	-1E+10	1	-1E+10	1	-1E+10	1	-1E+10	1	-1E+10	1
4901784	126	C	12/16/2018	10:40	-133.217	43.026	0	1284.40	0	2.9470	0	34.7940	8	27.734	0	1270.285	0	17.2	4	5.3	4	-1E+10	1	-1E+10	1	-1E+10	1	-1E+10	1	-1E+10	1	-1E+10	1
4901784	126	C	12/16/2018	10:40	-133.217	43.026	0	1289.80	0	2.9440	0	34.8080	8	27.745	0	1275.610	0	17.3	4	5.3	4	-1E+10	1	-1E+10	1	-1E+10	1	-1E+10	1	-1E+10	1	-1E+10	1
4901784	126	C	12/16/2018	10:40	-133.217	43.026	0	1295.30	0	2.9340	0	34.8370	8	27.769	0	1281.032	0	17.5	4	5.4	4	-1E+10	1	-1E+10	1	-1E+10	1	-1E+10	1	-1E+10	1	-1E+10	1
4901784	126	C	12/16/2018	10:40	-133.217	43.026	0	1299.80	0	2.9280	0	34.8380	8	27.771	0	1285.469	0	17.6	4	5.4	4	-1E+10	1	-1E+10	1	-1E+10	1	-1E+10	1	-1E+10	1	-1E+10	1
4901784	126	C	12/16/2018	10:40	-133.217	43.026	0	1304.30	0	2.9210	0	34.8390	8	27.772	0	1289.906	0	17.8	4	5.5	4	-1E+10	1	-1E+10	1	-1E+10	1	-1E+10	1	-1E+10	1	-1E+10	1
4901784	126	C	12/16/2018	10:40	-133.217	43.026	0	1309.80	0	2.9090	0	34.8410	8	27.775	0	1295.328	0	18.0	4	5.6	4	-1E+10	1	-1E+10	1	-1E+10	1	-1E+10	1	-1E+10	1	-1E+10	1
4901784	126	C	12/16/2018	10:40	-133.217	43.026	0	1315.30	0	2.9000	0	34.8420	8	27.777	0	1300.750	0	18.3	4	5.6	4	-1E+10	1	-1E+10	1	-1E+10	1	-1E+10	1	-1E+10	1	-1E+10	1
4901784	126	C	12/16/2018	10:40	-133.217	43.026	0	1319.90	0	2.8910	0	34.8430	8	27.778	0	1305.285	0	18.5	4	5.7	4	-1E+10	1	-1E+10	1	-1E+10	1	-1E+10	1	-1E+10	1	-1E+10	1
4901784	126	C	12/16/2018	10:40	-133.217	43.026	0	1324.50	0	2.8760	0	34.8450	8	27.781	0	1309.820	0	18.9	4	5.8	4	-1E+10	1	-1E+10	1	-1E+10	1	-1E+10	1	-1E+10	1	-1E+10	1
4901784	126	C	12/16/2018	10:40	-133.217	43.026	0	1330.10	0	2.8630	0	34.8470	8	27.784	0	1315.340	0	19.3	4	6.0	4	-1E+10	1	-1E+10	1	-1E+10	1	-1E+10	1	-1E+10	1	-1E+10	1
4901784	126	C	12/16/2018	10:40	-133.217	43.026	0	1334.80	0	2.8440	0	34.8510	8	27.789	0	1319.974	0	19.7	4	6.1	4	-1E+10	1	-1E+10	1	-1E+10	1	-1E+10	1	-1E+10	1	-1E+10	1
4901784	126	C	12/16/2018	10:40	-133.217	43.026	0	1339.70	0	2.8300	0	34.8530	8	27.792	0	1324.804	0	19.9	4	6.1	4	-1E+10	1	-1E+10	1	-1E+10	1	-1E+10	1	-1E+10	1	-1E+10	1
4901784	126	C	12/16/2018	10:40	-133.217	43.026	0	1344.90	0	2.8230	0	34.8540	8	27.793	0	1329.930	0	20.2	4	6.2	4	-1E+10	1	-1E+10	1	-1E+10	1	-1E+10	1	-1E+10	1	-1E+10	1
4901784	126	C	12/16/2018	10:40	-133.217	43.026	0	1349.70	0	2.8150	0	34.8550	8	27.795	0	1334.661	0	20.4	4	6.3	4	-1E+10	1	-1E+10	1	-1E+10	1	-1E+10	1	-1E+10	1	-1E+10	1
4901784	126	C	12/16/2018	10:40	-133.217	43.026	0	1354.50	0	2.8070	0	34.8560	8	27.796	0	1339.392	0	20.7	4	6.4	4	-1E+10	1	-1E+10	1	-1E+10	1	-1E+10	1	-1E+10	1	-1E+10	1
4901784	126	C	12/16/2018	10:40	-133.217	43.026	0	1359.40	0	2.7930	0	34.8580	8	27.799	0	1344.222	0	21.1	4	6.5	4	-1E+10	1	-1E+10	1	-1E+10	1	-1E+10	1	-1E+10	1	-1E+10	1
4901784	126	C	12/16/2018	10:40	-133.217	43.026	0	1364.30	0	2.7850	0	34.8600	8	27.801	0	1349.052	0	21.3	4	6.6	4	-1E+10	1	-1E+10	1	-1E+10	1	-1E+10	1	-1E+10	1	-1E+10	1
4901784	126	C	12/16/2018	10:40	-133.217	43.026	0	1370.00	0	2.7800	0	34.8610	8	27.803	0	1354.670	0	21.3	4	6.6	4	-1E+10	1	-1E+10	1	-1E+10	1	-1E+10	1	-1E+10	1	-1E+10	1
4901784	126	C	12/16/2018	10:40	-133.217	43.026	0	1375.80	0	2.7740	0	34.8610	8	27.803	0	1360.386	0	21.2	4	6.5	4	-1E+10	1	-1E+10	1	-1E+10	1	-1E+10	1	-1E+10	1	-1E+10	1
4901784	126	C	12/16/2018	10:40	-133.217	43.026	0	1380.70	0	2.7620	0	34.8610	8	27.804	0	1365.215	0	21.1	4	6.5	4	-1E+10	1	-1E+10	1	-1E+10	1	-1E+10	1	-1E+10	1	-1E+10	1
4901784	126	C	12/16/2018	10:40	-133.217	43.026	0	1385.70	0	2.7520	0	34.8610	8	27.805	0	1370.143	0	21.3	4	6.6	4	-1E+10	1	-1E+10	1	-1E+10	1	-1E+10	1	-1E+10	1	-1E+10	1
4901784	126	C	12/16/2018	10:40	-133.217	43.026	0	1390.60	0	2.7410	0	34.8630	8	27.808	0	1374.972	0	21.8	4	6.7	4	-1E+10	1	-1E+10	1	-1E+10	1	-1E+10	1	-1E+10	1	-1E+10	1
4901784	126	C	12/16/2018	10:40	-133.217	43.026	0	1395.60	0	2.7310	0	34.8650	8	27.810	0	1379.899	0	22.3	4	6.9	4	-1E+10	1	-1E+10	1	-1E+10	1	-1E+10	1	-1E+10	1	-1E+10	1
4901784	126	C	12/16/2018	10:40	-133.217	43.026	0	1400.60	0	2.7210	0	34.8670	8	27.813	0	1384.827	0	22.7	4	7.0	4	-1E+10	1	-1E+10	1	-1E+10	1	-1E+10	1	-1E+10	1	-1E+10	1
4901784	126	C	12/16/2018	10:40	-133.217	43.026	0	1405.70	0	2.7110	0	34.8690	8	27.815	0	1389.852	0	22.9	4	7.0	4	-1E+10	1	-1E+10	1	-1E+10	1	-1E+10	1	-1E+10	1	-1E+10	1
4901784	126	C	12/16/2018	10:40	-133.217	43.026	0	1410.80	0	2.7070	0	34.8690	8	27.816	0	1394.878	0	23.0	4	7.1	4	-1E+10	1	-1E+10	1	-1E+10	1	-1E+10	1	-1E+10	1	-1E+10	1
4901784	126	C	12/16/2018	10:40	-133.217	43.026	0	1415.00	0	2.7030	0	34.8690	8	27.816	0	1399.017	0	23.1	4	7.1	4	-1E+10	1	-1E+10	1	-1E+10	1	-1E+10	1	-1E+10	1	-1E+10	1
4901784	126	C	12/16/2018	10:40	-133.217	43.026	0	1419.30	0	2.6940	0	34.8700	8	27.818	0	1403.254	0	23.3	4	7.2	4	-1E+10	1	-1E+10	1	-1E+10	1	-1E+10	1	-1E+10	1	-1E+10	1
4901784	126	C	12/16/2018	10:40	-133.217	43.026	0	1424.40	0	2.6720	0	34.8730	8	27.822	0	1408.279	0	23.6	4	7.3	4	-1E+10	1	-1E+10	1	-1E+10	1	-1E+10	1	-1E+10	1	-1E+10	1
4901784	126	C	12/16/2018	10:40	-133.217	43.026	0	1429.60	0	2.6650	0	34.8730	8	27.823	0	1413.403	0	23.8	4	7.3	4	-1E+10	1	-1E+10	1	-1E+10	1	-1E+10	1	-1E+10	1	-1E+10	1
4901784	126	C	12/16/2018	10:40	-133.217	43.026	0	1434.70	0	2.6590	0	34.8740	8	27.824	0	1418.428	0	24.0	4	7.4	4	-1E+10	1	-1E+10	1	-1E+10	1	-1E+10	1	-1E+10	1	-1E+10	1
4901784	126	C	12/16/2018	10:40	-133.217	43.026	0	1439.80	0	2.6490	0	34.8760	8	27.827	0	1423.453	0	24.2	4	7.4	4	-1E+10	1	-1E+10	1	-1E+10	1	-1E+10	1	-1E+10	1	-1E+10	1
4901784	126	C	12/16/2018	10:40	-133.217	43.026	0	1444.90	0	2.6460	0	34.8760	8	27.827	0	1428.478	0	24.3	4	7.5	4	-1E+10	1	-1E+10	1	-1E+10	1	-1E+10	1	-1E+10	1	-1E+10	1
4901784	126	C	12/16/2018	10:40	-133.217	43.026	0	1450.00	0	2.6440	0	34.8760	8	27.827	0	1433.503	0	24.4	4	7.5	4	-1E+10	1	-1E+10	1	-1E+10	1	-1E+10	1	-1E+10	1	-1E+10	1
4901784	126	C	12/16/2018	10:40	-133.217	43.026	0	1455.10	0	2.6360	0	34.8770	8	27.829	0	1438.527	0	24.7	4	7.6	4	-1E+10	1	-1E+10	1	-1E+10	1	-1E+10	1	-1E+10	1	-1E+10	1
4901784	126	C	12/16/2018	10:40	-133.217	43.026	0	1460.20	0	2.6260	0	34.8780	8	27.830	0	1443.552	0	25.1	4	7.7	4	-1E+10	1	-1E+10	1	-1E+10	1	-1E+10	1	-1E+10	1	-1E+10	1
4901784	126	C	12/16/2018	10:40	-133.217	43.026	0	1465.30	0	2.6110	0	34.8800	8	27.833	0	1448.576	0	25.6	4	7.8	4	-1E+10	1	-1E+10	1	-1E+10	1	-1E+10	1	-1E+10	1	-1E+10	1
4901784	126	C	12/16/2018	10:40	-133.217	43.026	0	1470.40	0	2.5980	0	34.8820	8	27.836	0	1453.600	0	25.9	4	7.9	4	-1E+10	1	-1E+10	1	-1E+10	1	-1E+10	1	-1E+10	1	-1E+10	1
4901784	126	C	12/16/2018	10:40	-133.217	43.026	0	1475.60	0	2.5870	0	34.8830	8	27.838	0	1458.723	0	26.1	4	8.0	4	-1E+10	1	-1E+10	1	-1E+10	1	-1E+10	1	-1E+10	1	-1E+10	1
4901784	126	C	12/16/2018	10:40	-133.217	43.026	0	1479.90	0	2.5770	0	34.8840	8	27.839	0	1462.959	0	26.3	4	8.1	4	-1E+10	1	-1E+10	1	-1E+10	1	-1E+10	1	-1E+10	1	-1E+10	1
4901784	126	C	12/16/2018	10:40	-133.217	43.026	0	1484.30	0	2.5680	0	34.8850	8	27.841	0	1467.293	0	26.5	4	8.1	4	-1E+10	1	-1E+10	1	-1E+10	1	-1E+10	1	-1E+10	1	-1E+10	1
4901784	126	C	12/16/2018	10:40	-133.217	43.026	0	1489.50	0	2.5580	0	34.8860	8	27.843	0	1472.416	0	26.7	4	8.2	4	-1E+10	1	-1E+10	1	-1E+10	1	-1E+10	1	-1E+10	1	-1E+10	1
4901784	126	C	12/16/2018	10:40	-133.217	43.026	0	1494.70	0	2.5490	0	34.8870	8	27.844	0	1477.538	0	27.1	4	8.3	4	-1E+10	1	-1E+10	1	-1E+10	1	-1E+10	1	-1E+10	1	-1E+10	1
4901784	126	C	12/16/2018	10:40	-133.217	43.026	0	1500.00	0	2.5370	0	34.8880	8	27.846	0	1482.758	0	27.5	4	8.4	4	-1E+10	1	-1E+10	1	-1E+10	1	-1E+10	1	-1E+10	1	-1E+10	1
4901784	126	C	12/16/2018	10:40	-133.217	43.026	0	1505.30	0	2.5250	0	34.8900	8	27.849	0	1487.979	0	27.9	4	8.5	4	-1E+10	1	-1E+10	1	-1E+10	1	-1E+10	1	-1E+10	1	-1E+10	1
4901784	126	C	12/16/2018	10:40	-133.217	43.026	0	1510.60	0	2.5170	0	34.8910	8	27.850	0	1493.199	0	28.2	4	8.6	4	-1E+10	1	-1E+10	1	-1E+10	1	-1E+10	1	-1E+10	1	-1E+10	1
4901784	126	C	12/16/2018	10:40	-133.217	43.026	0	1515.00	0	2.5110	0	34.8920	8	27.852	0	1497.533	0	28.5	4	8.7	4	-1E+10	1	-1E+10	1	-1E+10	1	-1E+10	1	-1E+10	1	-1E+10	1
4901784	126	C	12/16/2018	10:40	-133.217	43.026	0	1519.40	0	2.5030	0	34.8930	8	27.853	0	1501.867	0	28.7	4	8.8	4	-1E+10	1	-1E+10	1	-1E+10	1	-1E+10	1	-1E+10	1	-1E+10	1
4901784	126	C	12/16/2018	10:40	-133.217	43.026	0	1524.80	0	2.4990	0	34.8930	8	27.854	0	1507.185	0	29.0	4	8.9	4	-1E+10	1	-1E+10	1	-1E+10	1	-1E+10	1	-1E+10	1	-1E+10	1
4901784	126	C	12/16/2018	10:40	-133.217	43.026	0	1530.20	0	2.4930	0	34.8940	8	27.855	0	1512.503	0	29.3	4	9.0	4	-1E+10	1	-1E+10	1	-1E+10	1	-1E+10	1	-1E+10	1	-1E+10	1
4901784	126	C	12/16/2018	10:40	-133.217	43.026	0	1535.50	0	2.4820	0	34.8960	8	27.857	0	1517.723	0	29.6	4	9.1	4	-1E+10	1	-1E+10	1	-1E+10	1	-1E+10	1	-1E+10	1	-1E+10	1
4901784	126	C	12/16/2018	10:40	-133.217	43.026	0	1540.00	0	2.4760	0	34.8960	8	27.858	0	1522.155	0	29.9	4	9.1	4	-1E+10	1	-1E+10	1	-1E+10	1	-1E+10	1	-1E+10	1	-1E+10	1
4901784	126	C	12/16/2018	10:40	-133.217	43.026	0	1544.60	0	2.4650	0	34.8990	8	27.861	0	1526.685	0	30.2	4	9.2	4	-1E+10	1	-1E+10	1	-1E+10	1	-1E+10	1	-1E+10	1	-1E+10	1
4901784	126	C	12/16/2018	10:40	-133.217	43.026	0	1550.10	0	2.4630	0	34.8990	8	27.862	0	1532.101	0	30.3	4	9.3	4	-1E+10	1	-1E+10	1	-1E+10	1	-1E+10	1	-1E+10	1	-1E+10	1
4901784	126	C	12/16/2018	10:40	-133.217	43.026	0	1554.70	0	2.4580	0	34.9000	8	27.863	0	1536.631	0	30.5	4	9.3	4	-1E+10	1	-1E+10	1	-1E+10	1	-1E+10	1	-1E+10	1	-1E+10	1
4901784	126	C	12/16/2018	10:40	-133.217	43.026	0	1559.30	0	2.4530	0	34.9000	8	27.863	0	1541.161	0	30.7	4	9.4	4	-1E+10	1	-1E+10	1	-1E+10	1	-1E+10	1	-1E+10	1	-1E+10	1
4901784	126	C	12/16/2018	10:40	-133.217	43.026	0	1564.80	0	2.4460	0	34.9010	8	27.865	0	1546.577	0	30.9	4	9.5	4	-1E+10	1	-1E+10	1	-1E+10	1	-1E+10	1	-1E+10	1	-1E+10	1
4901784	126	C	12/16/2018	10:40	-133.217	43.026	0	1570.40	0	2.4370	0	34.9020	8	27.866	0	1552.091	0	31.3	4	9.6	4	-1E+10	1	-1E+10	1	-1E+10	1	-1E+10	1	-1E+10	1	-1E+10	1
4901784	126	C	12/16/2018	10:40	-133.217	43.026	0	1575.10	0	2.4300	0	34.9030	8	27.868	0	1556.719	0	31.6	4	9.7	4	-1E+10	1	-1E+10	1	-1E+10	1	-1E+10	1	-1E+10	1	-1E+10	1
4901784	126	C	12/16/2018	10:40	-133.217	43.026	0	1579.80	0	2.4210	0	34.9040	8	27.869	0	1561.347	0	31.9	4	9.7	4	-1E+10	1	-1E+10	1	-1E+10	1	-1E+10	1	-1E+10	1	-1E+10	1
4901784	126	C	12/16/2018	10:40	-133.217	43.026	0	1585.50	0	2.4150	0	34.9050	8	27.871	0	1566.959	0	32.1	4	9.8	4	-1E+10	1	-1E+10	1	-1E+10	1	-1E+10	1	-1E+10	1	-1E+10	1
4901784	126	C	12/16/2018	10:40	-133.217	43.026	0	1590.20	0	2.4100	0	34.9060	8	27.872	0	1571.587	0	32.3	4	9.9	4	-1E+10	1	-1E+10	1	-1E+10	1	-1E+10	1	-1E+10	1	-1E+10	1
4901784	126	C	12/16/2018	10:40	-133.217	43.026	0	1594.90	0	2.4030	0	34.9060	8	27.872	0	1576.214	0	32.4	4	9.9	4	-1E+10	1	-1E+10	1	-1E+10	1	-1E+10	1	-1E+10	1	-1E+10	1
4901784	126	C	12/16/2018	10:40	-133.217	43.026	0	1599.80	0	2.3960	0	34.9070	8	27.874	0	1581.039	0	32.7	4	10.0	4	-1E+10	1	-1E+10	1	-1E+10	1	-1E+10	1	-1E+10	1	-1E+10	1
4901784	126	C	12/16/2018	10:40	-133.217	43.026	0	1604.70	0	2.3880	0	34.9080	8	27.875	0	1585.863	0	33.0	4	10.1	4	-1E+10	1	-1E+10	1	-1E+10	1	-1E+10	1	-1E+10	1	-1E+10	1
4901784	126	C	12/16/2018	10:40	-133.217	43.026	0	1609.60	0	2.3830	0	34.9090	8	27.877	0	1590.687	0	33.4	4	10.2	4	-1E+10	1	-1E+10	1	-1E+10	1	-1E+10	1	-1E+10	1	-1E+10	1
4901784	126	C	12/16/2018	10:40	-133.217	43.026	0	1614.50	0	2.3730	0	34.9100	8	27.878	0	1595.511	0	33.8	4	10.3	4	-1E+10	1	-1E+10	1	-1E+10	1	-1E+10	1	-1E+10	1	-1E+10	1
4901784	126	C	12/16/2018	10:40	-133.217	43.026	0	1619.50	0	2.3690	0	34.9110	8	27.879	0	1600.433	0	34.0	4	10.4	4	-1E+10	1	-1E+10	1	-1E+10	1	-1E+10	1	-1E+10	1	-1E+10	1
4901784	126	C	12/16/2018	10:40	-133.217	43.026	0	1624.50	0	2.3620	0	34.9110	8	27.880	0	1605.355	0	34.3	4	10.5	4	-1E+10	1	-1E+10	1	-1E+10	1	-1E+10	1	-1E+10	1	-1E+10	1
4901784	126	C	12/16/2018	10:40	-133.217	43.026	0	1629.50	0	2.3490	0	34.9130	8	27.883	0	1610.277	0	34.8	4	10.6	4	-1E+10	1	-1E+10	1	-1E+10	1	-1E+10	1	-1E+10	1	-1E+10	1
4901784	126	C	12/16/2018	10:40	-133.217	43.026	0	1634.60	0	2.3370	0	34.9150	8	27.885	0	1615.298	0	35.3	4	10.8	4	-1E+10	1	-1E+10	1	-1E+10	1	-1E+10	1	-1E+10	1	-1E+10	1
4901784	126	C	12/16/2018	10:40	-133.217	43.026	0	1639.60	0	2.3310	0	34.9160	8	27.887	0	1620.220	0	35.6	4	10.8	4	-1E+10	1	-1E+10	1	-1E+10	1	-1E+10	1	-1E+10	1	-1E+10	1
4901784	126	C	12/16/2018	10:40	-133.217	43.026	0	1644.70	0	2.3290	0	34.9160	8	27.887	0	1625.240	0	35.7	4	10.9	4	-1E+10	1	-1E+10	1	-1E+10	1	-1E+10	1	-1E+10	1	-1E+10	1
4901784	126	C	12/16/2018	10:40	-133.217	43.026	0	1649.80	0	2.3260	0	34.9170	8	27.888	0	1630.260	0	35.8	4	10.9	4	-1E+10	1	-1E+10	1	-1E+10	1	-1E+10	1	-1E+10	1	-1E+10	1
4901784	126	C	12/16/2018	10:40	-133.217	43.026	0	1654.90	0	2.3220	0	34.9170	8	27.888	0	1635.280	0	36.1	4	11.0	4	-1E+10	1	-1E+10	1	-1E+10	1	-1E+10	1	-1E+10	1	-1E+10	1
4901784	126	C	12/16/2018	10:40	-133.217	43.026	0	1660.10	0	2.3160	0	34.9180	8	27.890	0	1640.398	0	36.6	4	11.2	4	-1E+10	1	-1E+10	1	-1E+10	1	-1E+10	1	-1E+10	1	-1E+10	1
4901784	126	C	12/16/2018	10:40	-133.217	43.026	0	1665.40	0	2.3070	0	34.9190	8	27.891	0	1645.614	0	37.0	4	11.3	4	-1E+10	1	-1E+10	1	-1E+10	1	-1E+10	1	-1E+10	1	-1E+10	1
4901784	126	C	12/16/2018	10:40	-133.217	43.026	0	1670.60	0	2.3000	0	34.9200	8	27.893	0	1650.732	0	37.2	4	11.3	4	-1E+10	1	-1E+10	1	-1E+10	1	-1E+10	1	-1E+10	1	-1E+10	1
4901784	126	C	12/16/2018	10:40	-133.217	43.026	0	1675.00	0	2.2940	0	34.9210	8	27.894	0	1655.063	0	37.5	4	11.4	4	-1E+10	1	-1E+10	1	-1E+10	1	-1E+10	1	-1E+10	1	-1E+10	1
4901784	126	C	12/16/2018	10:40	-133.217	43.026	0	1679.30	0	2.2890	0	34.9210	8	27.894	0	1659.295	0	37.9	4	11.5	4	-1E+10	1	-1E+10	1	-1E+10	1	-1E+10	1	-1E+10	1	-1E+10	1
4901784	126	C	12/16/2018	10:40	-133.217	43.026	0	1684.50	0	2.2820	0	34.9230	8	27.897	0	1664.413	0	38.3	4	11.7	4	-1E+10	1	-1E+10	1	-1E+10	1	-1E+10	1	-1E+10	1	-1E+10	1
4901784	126	C	12/16/2018	10:40	-133.217	43.026	0	1689.80	0	2.2730	0	34.9240	8	27.898	0	1669.629	0	38.7	4	11.8	4	-1E+10	1	-1E+10	1	-1E+10	1	-1E+10	1	-1E+10	1	-1E+10	1
4901784	126	C	12/16/2018	10:40	-133.217	43.026	0	1695.00	0	2.2660	0	34.9240	8	27.899	0	1674.746	0	39.0	4	11.9	4	-1E+10	1	-1E+10	1	-1E+10	1	-1E+10	1	-1E+10	1	-1E+10	1
4901784	126	C	12/16/2018	10:40	-133.217	43.026	0	1700.30	0	2.2600	0	34.9250	8	27.900	0	1679.962	0	39.2	4	11.9	4	-1E+10	1	-1E+10	1	-1E+10	1	-1E+10	1	-1E+10	1	-1E+10	1
4901784	126	C	12/16/2018	10:40	-133.217	43.026	0	1705.60	0	2.2530	0	34.9260	8	27.901	0	1685.177	0	39.5	4	12.0	4	-1E+10	1	-1E+10	1	-1E+10	1	-1E+10	1	-1E+10	1	-1E+10	1
4901784	126	C	12/16/2018	10:40	-133.217	43.026	0	1710.00	0	2.2510	0	34.9270	8	27.902	0	1689.507	0	39.7	4	12.1	4	-1E+10	1	-1E+10	1	-1E+10	1	-1E+10	1	-1E+10	1	-1E+10	1
4901784	126	C	12/16/2018	10:40	-133.217	43.026	0	1714.40	0	2.2460	0	34.9280	8	27.904	0	1693.837	0	40.0	4	12.2	4	-1E+10	1	-1E+10	1	-1E+10	1	-1E+10	1	-1E+10	1	-1E+10	1
4901784	126	C	12/16/2018	10:40	-133.217	43.026	0	1719.60	0	2.2390	0	34.9280	8	27.904	0	1698.953	0	40.4	4	12.3	4	-1E+10	1	-1E+10	1	-1E+10	1	-1E+10	1	-1E+10	1	-1E+10	1
4901784	126	C	12/16/2018	10:40	-133.217	43.026	0	1724.30	0	2.2310	0	34.9290	8	27.906	0	1703.578	0	40.7	4	12.4	4	-1E+10	1	-1E+10	1	-1E+10	1	-1E+10	1	-1E+10	1	-1E+10	1
4901784	126	C	12/16/2018	10:40	-133.217	43.026	0	1730.00	0	2.2230	0	34.9300	8	27.907	0	1709.187	0	41.1	4	12.5	4	-1E+10	1	-1E+10	1	-1E+10	1	-1E+10	1	-1E+10	1	-1E+10	1
4901784	126	C	12/16/2018	10:40	-133.217	43.026	0	1735.60	0	2.2150	0	34.9320	8	27.910	0	1714.697	0	41.5	4	12.6	4	-1E+10	1	-1E+10	1	-1E+10	1	-1E+10	1	-1E+10	1	-1E+10	1
4901784	126	C	12/16/2018	10:40	-133.217	43.026	0	1740.50	0	2.2080	0	34.9330	8	27.911	0	1719.518	0	41.8	4	12.7	4	-1E+10	1	-1E+10	1	-1E+10	1	-1E+10	1	-1E+10	1	-1E+10	1
4901784	126	C	12/16/2018	10:40	-133.217	43.026	0	1745.40	0	2.2020	0	34.9340	8	27.912	0	1724.339	0	42.1	4	12.8	4	-1E+10	1	-1E+10	1	-1E+10	1	-1E+10	1	-1E+10	1	-1E+10	1
4901784	126	C	12/16/2018	10:40	-133.217	43.026	0	1750.30	0	2.1980	0	34.9350	8	27.913	0	1729.160	0	42.4	4	12.9	4	-1E+10	1	-1E+10	1	-1E+10	1	-1E+10	1	-1E+10	1	-1E+10	1
4901784	126	C	12/16/2018	10:40	-133.217	43.026	0	1755.30	0	2.1920	0	34.9360	8	27.915	0	1734.079	0	42.8	4	13.0	4	-1E+10	1	-1E+10	1	-1E+10	1	-1E+10	1	-1E+10	1	-1E+10	1
4901784	126	C	12/16/2018	10:40	-133.217	43.026	0	1760.30	0	2.1890	0	34.9360	8	27.915	0	1738.998	0	43.1	4	13.1	4	-1E+10	1	-1E+10	1	-1E+10	1	-1E+10	1	-1E+10	1	-1E+10	1
4901784	126	C	12/16/2018	10:40	-133.217	43.026	0	1765.30	0	2.1830	0	34.9370	8	27.916	0	1743.917	0	43.6	4	13.2	4	-1E+10	1	-1E+10	1	-1E+10	1	-1E+10	1	-1E+10	1	-1E+10	1
4901784	126	C	12/16/2018	10:40	-133.217	43.026	0	1770.40	0	2.1740	0	34.9380	8	27.918	0	1748.934	0	44.0	4	13.3	4	-1E+10	1	-1E+10	1	-1E+10	1	-1E+10	1	-1E+10	1	-1E+10	1
4901784	126	C	12/16/2018	10:40	-133.217	43.026	0	1775.50	0	2.1710	0	34.9390	8	27.919	0	1753.951	0	44.3	4	13.5	4	-1E+10	1	-1E+10	1	-1E+10	1	-1E+10	1	-1E+10	1	-1E+10	1
4901784	126	C	12/16/2018	10:40	-133.217	43.026	0	1780.70	0	2.1630	0	34.9400	8	27.920	0	1759.067	0	44.8	4	13.6	4	-1E+10	1	-1E+10	1	-1E+10	1	-1E+10	1	-1E+10	1	-1E+10	1
4901784	126	C	12/16/2018	10:40	-133.217	43.026	0	1785.00	0	2.1550	0	34.9410	8	27.922	0	1763.297	0	45.2	4	13.7	4	-1E+10	1	-1E+10	1	-1E+10	1	-1E+10	1	-1E+10	1	-1E+10	1
4901784	126	C	12/16/2018	10:40	-133.217	43.026	0	1789.30	0	2.1470	0	34.9420	8	27.923	0	1767.527	0	45.6	4	13.8	4	-1E+10	1	-1E+10	1	-1E+10	1	-1E+10	1	-1E+10	1	-1E+10	1
4901784	126	C	12/16/2018	10:40	-133.217	43.026	0	1794.50	0	2.1390	0	34.9430	8	27.925	0	1772.642	0	46.1	4	14.0	4	-1E+10	1	-1E+10	1	-1E+10	1	-1E+10	1	-1E+10	1	-1E+10	1
4901784	126	C	12/16/2018	10:40	-133.217	43.026	0	1799.70	0	2.1320	0	34.9440	8	27.926	0	1777.756	0	46.5	4	14.1	4	-1E+10	1	-1E+10	1	-1E+10	1	-1E+10	1	-1E+10	1	-1E+10	1
4901784	126	C	12/16/2018	10:40	-133.217	43.026	0	1804.90	0	2.1250	0	34.9450	8	27.928	0	1782.871	0	46.8	4	14.2	4	-1E+10	1	-1E+10	1	-1E+10	1	-1E+10	1	-1E+10	1	-1E+10	1
4901784	126	C	12/16/2018	10:40	-133.217	43.026	0	1810.20	0	2.1210	0	34.9460	8	27.929	0	1788.084	0	47.1	4	14.3	4	-1E+10	1	-1E+10	1	-1E+10	1	-1E+10	1	-1E+10	1	-1E+10	1
4901784	126	C	12/16/2018	10:40	-133.217	43.026	0	1815.50	0	2.1140	0	34.9470	8	27.930	0	1793.297	0	47.5	4	14.4	4	-1E+10	1	-1E+10	1	-1E+10	1	-1E+10	1	-1E+10	1	-1E+10	1
4901784	126	C	12/16/2018	10:40	-133.217	43.026	0	1819.90	0	2.1080	0	34.9480	8	27.931	0	1797.625	0	47.8	4	14.5	4	-1E+10	1	-1E+10	1	-1E+10	1	-1E+10	1	-1E+10	1	-1E+10	1
4901784	126	C	12/16/2018	10:40	-133.217	43.026	0	1824.40	0	2.1030	0	34.9480	8	27.932	0	1802.051	0	48.1	4	14.6	4	-1E+10	1	-1E+10	1	-1E+10	1	-1E+10	1	-1E+10	1	-1E+10	1
4901784	126	C	12/16/2018	10:40	-133.217	43.026	0	1829.80	0	2.1000	0	34.9490	8	27.933	0	1807.362	0	48.3	4	14.6	4	-1E+10	1	-1E+10	1	-1E+10	1	-1E+10	1	-1E+10	1	-1E+10	1
4901784	126	C	12/16/2018	10:40	-133.217	43.026	0	1835.30	0	2.0960	0	34.9500	8	27.934	0	1812.771	0	48.6	4	14.7	4	-1E+10	1	-1E+10	1	-1E+10	1	-1E+10	1	-1E+10	1	-1E+10	1
4901784	126	C	12/16/2018	10:40	-133.217	43.026	0	1839.90	0	2.0930	0	34.9510	8	27.935	0	1817.295	0	48.7	4	14.8	4	-1E+10	1	-1E+10	1	-1E+10	1	-1E+10	1	-1E+10	1	-1E+10	1
4901784	126	C	12/16/2018	10:40	-133.217	43.026	0	1845.20	0	2.0920	0	34.9510	8	27.935	0	1822.507	0	48.9	4	14.8	4	-1E+10	1	-1E+10	1	-1E+10	1	-1E+10	1	-1E+10	1	-1E+10	1
4901784	126	C	12/16/2018	10:40	-133.217	43.026	0	1850.30	0	2.0880	0	34.9510	8	27.936	0	1827.522	0	49.2	4	14.9	4	-1E+10	1	-1E+10	1	-1E+10	1	-1E+10	1	-1E+10	1	-1E+10	1
4901784	126	C	12/16/2018	10:40	-133.217	43.026	0	1855.10	0	2.0820	0	34.9530	8	27.938	0	1832.242	0	49.5	4	15.0	4	-1E+10	1	-1E+10	1	-1E+10	1	-1E+10	1	-1E+10	1	-1E+10	1
4901784	126	C	12/16/2018	10:40	-133.217	43.026	0	1860.00	0	2.0810	0	34.9530	8	27.938	0	1837.061	0	49.6	4	15.0	4	-1E+10	1	-1E+10	1	-1E+10	1	-1E+10	1	-1E+10	1	-1E+10	1
4901784	126	C	12/16/2018	10:40	-133.217	43.026	0	1864.90	0	2.0770	0	34.9530	8	27.938	0	1841.879	0	49.9	4	15.1	4	-1E+10	1	-1E+10	1	-1E+10	1	-1E+10	1	-1E+10	1	-1E+10	1
4901784	126	C	12/16/2018	10:40	-133.217	43.026	0	1869.90	0	2.0730	0	34.9540	8	27.939	0	1846.796	0	50.2	4	15.2	4	-1E+10	1	-1E+10	1	-1E+10	1	-1E+10	1	-1E+10	1	-1E+10	1
4901784	126	C	12/16/2018	10:40	-133.217	43.026	0	1874.90	0	2.0680	0	34.9550	8	27.941	0	1851.712	0	50.4	4	15.3	4	-1E+10	1	-1E+10	1	-1E+10	1	-1E+10	1	-1E+10	1	-1E+10	1
4901784	126	C	12/16/2018	10:40	-133.217	43.026	0	1879.90	0	2.0640	0	34.9560	8	27.942	0	1856.629	0	50.6	4	15.3	4	-1E+10	1	-1E+10	1	-1E+10	1	-1E+10	1	-1E+10	1	-1E+10	1
4901784	126	C	12/16/2018	10:40	-133.217	43.026	0	1884.90	0	2.0630	0	34.9560	8	27.942	0	1861.545	0	50.7	4	15.4	4	-1E+10	1	-1E+10	1	-1E+10	1	-1E+10	1	-1E+10	1	-1E+10	1
4901784	126	C	12/16/2018	10:40	-133.217	43.026	0	1890.00	0	2.0600	0	34.9570	8	27.943	0	1866.559	0	50.9	4	15.4	4	-1E+10	1	-1E+10	1	-1E+10	1	-1E+10	1	-1E+10	1	-1E+10	1
4901784	126	C	12/16/2018	10:40	-133.217	43.026	0	1895.10	0	2.0580	0	34.9570	8	27.943	0	1871.574	0	51.1	4	15.5	4	-1E+10	1	-1E+10	1	-1E+10	1	-1E+10	1	-1E+10	1	-1E+10	1
4901784	126	C	12/16/2018	10:40	-133.217	43.026	0	1900.20	0	2.0550	0	34.9580	8	27.944	0	1876.588	0	51.3	4	15.5	4	-1E+10	1	-1E+10	1	-1E+10	1	-1E+10	1	-1E+10	1	-1E+10	1
4901784	126	C	12/16/2018	10:40	-133.217	43.026	0	1905.40	0	2.0530	0	34.9580	8	27.944	0	1881.700	0	51.5	4	15.6	4	-1E+10	1	-1E+10	1	-1E+10	1	-1E+10	1	-1E+10	1	-1E+10	1
4901784	126	C	12/16/2018	10:40	-133.217	43.026	0	1910.60	0	2.0500	0	34.9590	8	27.945	0	1886.812	0	51.8	4	15.7	4	-1E+10	1	-1E+10	1	-1E+10	1	-1E+10	1	-1E+10	1	-1E+10	1
4901784	126	C	12/16/2018	10:40	-133.217	43.026	0	1915.70	0	2.0450	0	34.9600	8	27.947	0	1891.826	0	52.1	4	15.8	4	-1E+10	1	-1E+10	1	-1E+10	1	-1E+10	1	-1E+10	1	-1E+10	1
4901784	126	C	12/16/2018	10:40	-133.217	43.026	0	1920.00	0	2.0430	0	34.9600	8	27.947	0	1896.054	0	52.4	4	15.9	4	-1E+10	1	-1E+10	1	-1E+10	1	-1E+10	1	-1E+10	1	-1E+10	1
4901784	126	C	12/16/2018	10:40	-133.217	43.026	0	1924.40	0	2.0380	0	34.9610	8	27.948	0	1900.379	0	52.7	4	15.9	4	-1E+10	1	-1E+10	1	-1E+10	1	-1E+10	1	-1E+10	1	-1E+10	1
4901784	126	C	12/16/2018	10:40	-133.217	43.026	0	1929.70	0	2.0330	0	34.9620	8	27.949	0	1905.589	0	53.0	4	16.0	4	-1E+10	1	-1E+10	1	-1E+10	1	-1E+10	1	-1E+10	1	-1E+10	1
4901784	126	C	12/16/2018	10:40	-133.217	43.026	0	1935.00	0	2.0270	0	34.9630	8	27.951	0	1910.799	0	53.4	4	16.2	4	-1E+10	1	-1E+10	1	-1E+10	1	-1E+10	1	-1E+10	1	-1E+10	1
4901784	126	C	12/16/2018	10:40	-133.217	43.026	0	1940.30	0	2.0240	0	34.9630	8	27.951	0	1916.009	0	53.6	4	16.2	4	-1E+10	1	-1E+10	1	-1E+10	1	-1E+10	1	-1E+10	1	-1E+10	1
4901784	126	C	12/16/2018	10:40	-133.217	43.026	0	1945.70	0	2.0220	0	34.9630	8	27.951	0	1921.317	0	54.0	4	16.3	4	-1E+10	1	-1E+10	1	-1E+10	1	-1E+10	1	-1E+10	1	-1E+10	1
4901784	126	C	12/16/2018	10:40	-133.217	43.026	0	1950.10	0	2.0190	0	34.9640	8	27.952	0	1925.642	0	54.3	4	16.4	4	-1E+10	1	-1E+10	1	-1E+10	1	-1E+10	1	-1E+10	1	-1E+10	1
4901784	126	C	12/16/2018	10:40	-133.217	43.026	0	1954.70	0	2.0110	0	34.9650	8	27.953	0	1930.164	0	54.8	4	16.6	4	-1E+10	1	-1E+10	1	-1E+10	1	-1E+10	1	-1E+10	1	-1E+10	1
4901784	126	C	12/16/2018	10:40	-133.217	43.026	0	1960.10	0	2.0050	0	34.9660	8	27.955	0	1935.471	0	55.2	4	16.7	4	-1E+10	1	-1E+10	1	-1E+10	1	-1E+10	1	-1E+10	1	-1E+10	1
4901784	126	C	12/16/2018	10:40	-133.217	43.026	0	1965.50	0	1.9980	0	34.9670	8	27.956	0	1940.779	0	55.6	4	16.8	4	-1E+10	1	-1E+10	1	-1E+10	1	-1E+10	1	-1E+10	1	-1E+10	1
4901784	126	C	12/16/2018	10:40	-133.217	43.026	0	1970.00	0	1.9950	0	34.9680	8	27.957	0	1945.202	0	55.9	4	16.9	4	-1E+10	1	-1E+10	1	-1E+10	1	-1E+10	1	-1E+10	1	-1E+10	1
4901784	126	C	12/16/2018	10:40	-133.217	43.026	0	1974.60	0	1.9920	0	34.9680	8	27.957	0	1949.723	0	56.2	4	17.0	4	-1E+10	1	-1E+10	1	-1E+10	1	-1E+10	1	-1E+10	1	-1E+10	1
4901784	126	C	12/16/2018	10:40	-133.217	43.026	0	1980.60	0	1.9870	0	34.9690	8	27.959	0	1955.620	0	56.6	4	17.1	4	-1E+10	1	-1E+10	1	-1E+10	1	-1E+10	1	-1E+10	1	-1E+10	1
4901784	126	C	12/16/2018	10:40	-133.217	43.026	0	1985.60	0	1.9820	0	34.9700	8	27.960	0	1960.534	0	56.9	4	17.2	4	-1E+10	1	-1E+10	1	-1E+10	1	-1E+10	1	-1E+10	1	-1E+10	1
4901784	126	C	12/16/2018	10:40	-133.217	43.026	0	1990.80	0	1.9790	0	34.9710	8	27.961	0	1965.644	0	57.1	4	17.3	4	-1E+10	1	-1E+10	1	-1E+10	1	-1E+10	1	-1E+10	1	-1E+10	1
4901784	126	C	12/16/2018	10:40	-133.217	43.026	0	1995.50	0	1.9750	0	34.9710	8	27.961	0	1970.263	0	57.5	4	17.4	4	-1E+10	1	-1E+10	1	-1E+10	1	-1E+10	1	-1E+10	1	-1E+10	1
4901784	126	C	12/16/2018	10:40	-133.217	43.026	0	2000.40	0	1.9690	0	34.9720	8	27.963	0	1975.078	0	57.8	4	17.5	4	-1E+10	1	-1E+10	1	-1E+10	1	-1E+10	1	-1E+10	1	-1E+10	1
4901784	126	C	12/16/2018	10:40	-133.217	43.026	0	2004.30	0	1.9660	0	34.9730	8	27.964	0	1978.911	0	56.6	4	17.1	4	-1E+10	1	-1E+10	1	-1E+10	1	-1E+10	1	-1E+10	1	-1E+10	1
4901784	126	C	12/16/2018	10:40	-133.217	43.026	0																										
4901784	127	C	12/26/2018	10:43	-133.264	43.148	0	2.50	0	13.1240	0	32.9500	8	24.781	0	2.480	0	249.9	4	95.8	4	-1E+10	1	-1E+10	1	-1E+10	1	-1E+10	1	-1E+10	1	-1E+10	1
4901784	127	C	12/26/2018	10:43	-133.264	43.148	0	3.70	0	13.1230	0	32.9500	8	24.782	0	3.671	0	249.8	4	95.7	4	-1E+10	1	-1E+10	1	-1E+10	1	-1E+10	1	-1E+10	1	-1E+10	1
4901784	127	C	12/26/2018	10:43	-133.264	43.148	0	5.20	0	13.1250	0	32.9500	8	24.781	0	5.159	0	249.9	4	95.7	4	-1E+10	1	-1E+10	1	-1E+10	1	-1E+10	1	-1E+10	1	-1E+10	1
4901784	127	C	12/26/2018	10:43	-133.264	43.148	0	6.40	0	13.1280	0	32.9500	8	24.781	0	6.349	0	249.9	4	95.8	4	-1E+10	1	-1E+10	1	-1E+10	1	-1E+10	1	-1E+10	1	-1E+10	1
4901784	127	C	12/26/2018	10:43	-133.264	43.148	0	7.70	0	13.1300	0	32.9500	8	24.780	0	7.639	0	249.8	4	95.7	4	-1E+10	1	-1E+10	1	-1E+10	1	-1E+10	1	-1E+10	1	-1E+10	1
4901784	127	C	12/26/2018	10:43	-133.264	43.148	0	9.20	0	13.1260	0	32.9500	8	24.781	0	9.127	0	249.7	4	95.7	4	-1E+10	1	-1E+10	1	-1E+10	1	-1E+10	1	-1E+10	1	-1E+10	1
4901784	127	C	12/26/2018	10:43	-133.264	43.148	0	10.80	0	13.1320	0	32.9500	8	24.780	0	10.714	0	249.6	4	95.7	4	-1E+10	1	-1E+10	1	-1E+10	1	-1E+10	1	-1E+10	1	-1E+10	1
4901784	127	C	12/26/2018	10:43	-133.264	43.148	0	12.60	0	13.1310	0	32.9490	8	24.779	0	12.499	0	249.7	4	95.7	4	-1E+10	1	-1E+10	1	-1E+10	1	-1E+10	1	-1E+10	1	-1E+10	1
4901784	127	C	12/26/2018	10:43	-133.264	43.148	0	14.60	0	13.1380	0	32.9490	8	24.778	0	14.483	0	249.6	4	95.7	4	-1E+10	1	-1E+10	1	-1E+10	1	-1E+10	1	-1E+10	1	-1E+10	1
4901784	127	C	12/26/2018	10:43	-133.264	43.148	0	16.60	0	13.1400	0	32.9500	8	24.779	0	16.467	0	249.5	4	95.6	4	-1E+10	1	-1E+10	1	-1E+10	1	-1E+10	1	-1E+10	1	-1E+10	1
4901784	127	C	12/26/2018	10:43	-133.264	43.148	0	18.60	0	13.1330	0	32.9490	8	24.779	0	18.451	0	249.6	4	95.7	4	-1E+10	1	-1E+10	1	-1E+10	1	-1E+10	1	-1E+10	1	-1E+10	1
4901784	127	C	12/26/2018	10:43	-133.264	43.148	0	20.80	0	13.1330	0	32.9490	8	24.779	0	20.634	0	249.6	4	95.6	4	-1E+10	1	-1E+10	1	-1E+10	1	-1E+10	1	-1E+10	1	-1E+10	1
4901784	127	C	12/26/2018	10:43	-133.264	43.148	0	22.80	0	13.1330	0	32.9490	8	24.779	0	22.618	0	249.4	4	95.6	4	-1E+10	1	-1E+10	1	-1E+10	1	-1E+10	1	-1E+10	1	-1E+10	1
4901784	127	C	12/26/2018	10:43	-133.264	43.148	0	24.70	0	13.1340	0	32.9490	8	24.779	0	24.502	0	249.3	4	95.6	4	-1E+10	1	-1E+10	1	-1E+10	1	-1E+10	1	-1E+10	1	-1E+10	1
4901784	127	C	12/26/2018	10:43	-133.264	43.148	0	26.50	0	13.1320	0	32.9500	8	24.780	0	26.288	0	249.2	4	95.5	4	-1E+10	1	-1E+10	1	-1E+10	1	-1E+10	1	-1E+10	1	-1E+10	1
4901784	127	C	12/26/2018	10:43	-133.264	43.148	0	28.40	0	13.1350	0	32.9490	8	24.779	0	28.172	0	249.2	4	95.5	4	-1E+10	1	-1E+10	1	-1E+10	1	-1E+10	1	-1E+10	1	-1E+10	1
4901784	127	C	12/26/2018	10:43	-133.264	43.148	0	30.40	0	13.1340	0	32.9500	8	24.780	0	30.156	0	249.2	4	95.5	4	-1E+10	1	-1E+10	1	-1E+10	1	-1E+10	1	-1E+10	1	-1E+10	1
4901784	127	C	12/26/2018	10:43	-133.264	43.148	0	30.90	0	13.1350	0	32.9480	8	24.778	0	30.652	0	249.1	4	95.5	4	-1E+10	1	-1E+10	1	-1E+10	1	-1E+10	1	-1E+10	1	-1E+10	1
4901784	127	C	12/26/2018	10:43	-133.264	43.148	0	32.40	0	13.1360	0	32.9500	8	24.780	0	32.140	0	249.2	4	95.5	4	-1E+10	1	-1E+10	1	-1E+10	1	-1E+10	1	-1E+10	1	-1E+10	1
4901784	127	C	12/26/2018	10:43	-133.264	43.148	0	33.80	0	13.1370	0	32.9490	8	24.779	0	33.529	0	249.1	4	95.5	4	-1E+10	1	-1E+10	1	-1E+10	1	-1E+10	1	-1E+10	1	-1E+10	1
4901784	127	C	12/26/2018	10:43	-133.264	43.148	0	35.10	0	13.1370	0	32.9490	8	24.779	0	34.818	0	248.9	4	95.4	4	-1E+10	1	-1E+10	1	-1E+10	1	-1E+10	1	-1E+10	1	-1E+10	1
4901784	127	C	12/26/2018	10:43	-133.264	43.148	0	36.40	0	13.1340	0	32.9500	8	24.780	0	36.108	0	248.9	4	95.4	4	-1E+10	1	-1E+10	1	-1E+10	1	-1E+10	1	-1E+10	1	-1E+10	1
4901784	127	C	12/26/2018	10:43	-133.264	43.148	0	37.60	0	13.1370	0	32.9490	8	24.779	0	37.298	0	248.7	4	95.3	4	-1E+10	1	-1E+10	1	-1E+10	1	-1E+10	1	-1E+10	1	-1E+10	1
4901784	127	C	12/26/2018	10:43	-133.264	43.148	0	38.90	0	13.1360	0	32.9500	8	24.780	0	38.587	0	248.6	4	95.3	4	-1E+10	1	-1E+10	1	-1E+10	1	-1E+10	1	-1E+10	1	-1E+10	1
4901784	127	C	12/26/2018	10:43	-133.264	43.148	0	40.40	0	13.1380	0	32.9510	8	24.780	0	40.075	0	248.7	4	95.3	4	-1E+10	1	-1E+10	1	-1E+10	1	-1E+10	1	-1E+10	1	-1E+10	1
4901784	127	C	12/26/2018	10:43	-133.264	43.148	0	42.00	0	13.1400	0	32.9500	8	24.779	0	41.662	0	248.3	4	95.2	4	-1E+10	1	-1E+10	1	-1E+10	1	-1E+10	1	-1E+10	1	-1E+10	1
4901784	127	C	12/26/2018	10:43	-133.264	43.148	0	43.60	0	13.1360	0	32.9480	8	24.778	0	43.249	0	248.6	4	95.3	4	-1E+10	1	-1E+10	1	-1E+10	1	-1E+10	1	-1E+10	1	-1E+10	1
4901784	127	C	12/26/2018	10:43	-133.264	43.148	0	45.40	0	13.1390	0	32.9480	8	24.778	0	45.034	0	248.1	4	95.1	4	-1E+10	1	-1E+10	1	-1E+10	1	-1E+10	1	-1E+10	1	-1E+10	1
4901784	127	C	12/26/2018	10:43	-133.264	43.148	0	47.20	0	13.1390	0	32.9480	8	24.778	0	46.820	0	248.1	4	95.1	4	-1E+10	1	-1E+10	1	-1E+10	1	-1E+10	1	-1E+10	1	-1E+10	1
4901784	127	C	12/26/2018	10:43	-133.264	43.148	0	49.20	0	13.1430	0	32.9480	8	24.777	0	48.803	0	247.9	4	95.0	4	-1E+10	1	-1E+10	1	-1E+10	1	-1E+10	1	-1E+10	1	-1E+10	1
4901784	127	C	12/26/2018	10:43	-133.264	43.148	0	51.10	0	13.1430	0	32.9490	8	24.778	0	50.688	0	247.8	4	95.0	4	-1E+10	1	-1E+10	1	-1E+10	1	-1E+10	1	-1E+10	1	-1E+10	1
4901784	127	C	12/26/2018	10:43	-133.264	43.148	0	53.00	0	13.1440	0	32.9470	8	24.776	0	52.572	0	247.7	4	94.9	4	-1E+10	1	-1E+10	1	-1E+10	1	-1E+10	1	-1E+10	1	-1E+10	1
4901784	127	C	12/26/2018	10:43	-133.264	43.148	0	54.80	0	13.1430	0	32.9470	8	24.777	0	54.357	0	247.6	4	94.9	4	-1E+10	1	-1E+10	1	-1E+10	1	-1E+10	1	-1E+10	1	-1E+10	1
4901784	127	C	12/26/2018	10:43	-133.264	43.148	0	56.80	0	13.1400	0	32.9460	8	24.776	0	56.341	0	247.5	4	94.9	4	-1E+10	1	-1E+10	1	-1E+10	1	-1E+10	1	-1E+10	1	-1E+10	1
4901784	127	C	12/26/2018	10:43	-133.264	43.148	0	58.70	0	13.1430	0	32.9450	8	24.775	0	58.225	0	247.5	4	94.9	4	-1E+10	1	-1E+10	1	-1E+10	1	-1E+10	1	-1E+10	1	-1E+10	1
4901784	127	C	12/26/2018	10:43	-133.264	43.148	0	61.00	0	13.1440	0	32.9410	8	24.772	0	60.506	0	247.6	4	94.9	4	-1E+10	1	-1E+10	1	-1E+10	1	-1E+10	1	-1E+10	1	-1E+10	1
4901784	127	C	12/26/2018	10:43	-133.264	43.148	0	62.80	0	13.1320	0	32.9350	8	24.770	0	62.291	0	248.0	4	95.0	4	-1E+10	1	-1E+10	1	-1E+10	1	-1E+10	1	-1E+10	1	-1E+10	1
4901784	127	C	12/26/2018	10:43	-133.264	43.148	0	64.10	0	13.1260	0	32.9280	8	24.766	0	63.581	0	248.2	4	95.1	4	-1E+10	1	-1E+10	1	-1E+10	1	-1E+10	1	-1E+10	1	-1E+10	1
4901784	127	C	12/26/2018	10:43	-133.264	43.148	0	65.50	0	13.0910	0	32.9280	8	24.772	0	64.969	0	248.7	4	95.2	4	-1E+10	1	-1E+10	1	-1E+10	1	-1E+10	1	-1E+10	1	-1E+10	1
4901784	127	C	12/26/2018	10:43	-133.264	43.148	0	66.90	0	13.0090	0	32.9040	8	24.770	0	66.358	0	249.6	4	95.4	4	-1E+10	1	-1E+10	1	-1E+10	1	-1E+10	1	-1E+10	1	-1E+10	1
4901784	127	C	12/26/2018	10:43	-133.264	43.148	0	68.30	0	12.3250	0	32.9060	8	24.904	0	67.746	0	253.7	4	95.6	4	-1E+10	1	-1E+10	1	-1E+10	1	-1E+10	1	-1E+10	1	-1E+10	1
4901784	127	C	12/26/2018	10:43	-133.264	43.148	0	69.70	0	11.9020	0	32.9590	8	25.025	0	69.134	0	255.5	4	95.5	4	-1E+10	1	-1E+10	1	-1E+10	1	-1E+10	1	-1E+10	1	-1E+10	1
4901784	127	C	12/26/2018	10:43	-133.264	43.148	0	71.20	0	11.5710	0	32.9010	8	25.041	0	70.622	0	258.8	4	96.0	4	-1E+10	1	-1E+10	1	-1E+10	1	-1E+10	1	-1E+10	1	-1E+10	1
4901784	127	C	12/26/2018	10:43	-133.264	43.148	0	72.70	0	11.3080	0	32.8920	8	25.081	0	72.109	0	260.5	4	96.1	4	-1E+10	1	-1E+10	1	-1E+10	1	-1E+10	1	-1E+10	1	-1E+10	1
4901784	127	C	12/26/2018	10:43	-133.264	43.148	0	74.20	0	11.0610	0	32.8910	8	25.125	0	73.597	0	261.8	4	96.1	4	-1E+10	1	-1E+10	1	-1E+10	1	-1E+10	1	-1E+10	1	-1E+10	1
4901784	127	C	12/26/2018	10:43	-133.264	43.148	0	75.80	0	10.8930	0	32.8930	8	25.156	0	75.184	0	262.7	4	96.0	4	-1E+10	1	-1E+10	1	-1E+10	1	-1E+10	1	-1E+10	1	-1E+10	1
4901784	127	C	12/26/2018	10:43	-133.264	43.148	0	77.40	0	10.5420	0	32.9070	8	25.228	0	76.770	0	264.2	4	95.9	4	-1E+10	1	-1E+10	1	-1E+10	1	-1E+10	1	-1E+10	1	-1E+10	1
4901784	127	C	12/26/2018	10:43	-133.264	43.148	0	79.10	0	10.4070	0	32.9140	8	25.257	0	78.456	0	264.5	4	95.7	4	-1E+10	1	-1E+10	1	-1E+10	1	-1E+10	1	-1E+10	1	-1E+10	1
4901784	127	C	12/26/2018	10:43	-133.264	43.148	0	80.70	0	10.2560	0	32.9230	8	25.289	0	80.043	0	264.7	4	95.5	4	-1E+10	1	-1E+10	1	-1E+10	1	-1E+10	1	-1E+10	1	-1E+10	1
4901784	127	C	12/26/2018	10:43	-133.264	43.148	0	82.50	0	10.0400	0	32.9530	8	25.349	0	81.828	0	264.8	4	95.1	4	-1E+10	1	-1E+10	1	-1E+10	1	-1E+10	1	-1E+10	1	-1E+10	1
4901784	127	C	12/26/2018	10:43	-133.264	43.148	0	84.30	0	9.9510	0	32.9730	8	25.380	0	83.613	0	264.1	4	94.7	4	-1E+10	1	-1E+10	1	-1E+10	1	-1E+10	1	-1E+10	1	-1E+10	1
4901784	127	C	12/26/2018	10:43	-133.264	43.148	0	86.30	0	9.8920	0	32.9940	8	25.406	0	85.596	0	262.6	4	94.0	4	-1E+10	1	-1E+10	1	-1E+10	1	-1E+10	1	-1E+10	1	-1E+10	1
4901784	127	C	12/26/2018	10:43	-133.264	43.148	0	88.20	0	9.8490	0	32.9940	8	25.413	0	87.480	0	260.8	4	93.3	4	-1E+10	1	-1E+10	1	-1E+10	1	-1E+10	1	-1E+10	1	-1E+10	1
4901784	127	C	12/26/2018	10:43	-133.264	43.148	0	90.50	0	9.7230	0	32.9870	8	25.428	0	89.761	0	259.7	4	92.7	4	-1E+10	1	-1E+10	1	-1E+10	1	-1E+10	1	-1E+10	1	-1E+10	1
4901784	127	C	12/26/2018	10:43	-133.264	43.148	0	91.00	0	9.7220	0	32.9880	8	25.429	0	90.257	0	258.9	4	92.4	4	-1E+10	1	-1E+10	1	-1E+10	1	-1E+10	1	-1E+10	1	-1E+10	1
4901784	127	C	12/26/2018	10:43	-133.264	43.148	0	92.70	0	9.6080	0	32.9980	8	25.456	0	91.943	0	257.7	4	91.7	4	-1E+10	1	-1E+10	1	-1E+10	1	-1E+10	1	-1E+10	1	-1E+10	1
4901784	127	C	12/26/2018	10:43	-133.264	43.148	0	94.30	0	9.5610	0	32.9830	8	25.452	0	93.529	0	256.8	4	91.3	4	-1E+10	1	-1E+10	1	-1E+10	1	-1E+10	1	-1E+10	1	-1E+10	1
4901784	127	C	12/26/2018	10:43	-133.264	43.148	0	95.90	0	9.5510	0	32.9860	8	25.456	0	95.116	0	255.8	4	90.9	4	-1E+10	1	-1E+10	1	-1E+10	1	-1E+10	1	-1E+10	1	-1E+10	1
4901784	127	C	12/26/2018	10:43	-133.264	43.148	0	97.50	0	9.5580	0	32.9950	8	25.461	0	96.702	0	254.5	4	90.5	4	-1E+10	1	-1E+10	1	-1E+10	1	-1E+10	1	-1E+10	1	-1E+10	1
4901784	127	C	12/26/2018	10:43	-133.264	43.148	0	99.10	0	9.5730	0	33.0080	8	25.469	0	98.289	0	253.0	4	90.0	4	-1E+10	1	-1E+10	1	-1E+10	1	-1E+10	1	-1E+10	1	-1E+10	1
4901784	127	C	12/26/2018	10:43	-133.264	43.148	0	102.40	0	9.4680	0	33.0110	8	25.489	0	101.561	0	250.5	4	88.9	4	-1E+10	1	-1E+10	1	-1E+10	1	-1E+10	1	-1E+10	1	-1E+10	1
4901784	127	C	12/26/2018	10:43	-133.264	43.148	0	104.80	0	9.3640	0	33.0110	8	25.505	0	103.941	0	248.7	4	88.1	4	-1E+10	1	-1E+10	1	-1E+10	1	-1E+10	1	-1E+10	1	-1E+10	1
4901784	127	C	12/26/2018	10:43	-133.264	43.148	0	107.30	0	9.2820	0	33.0250	8	25.529	0	106.420	0	247.3	4	87.4	4	-1E+10	1	-1E+10	1	-1E+10	1	-1E+10	1	-1E+10	1	-1E+10	1
4901784	127	C	12/26/2018	10:43	-133.264	43.148	0	109.70	0	9.2360	0	33.0410	8	25.549	0	108.799	0	245.1	4	86.6	4	-1E+10	1	-1E+10	1	-1E+10	1	-1E+10	1	-1E+10	1	-1E+10	1
4901784	127	C	12/26/2018	10:43	-133.264	43.148	0	112.20	0	9.0980	0	33.0590	8	25.585	0	111.278	0	244.1	4	86.0	4	-1E+10	1	-1E+10	1	-1E+10	1	-1E+10	1	-1E+10	1	-1E+10	1
4901784	127	C	12/26/2018	10:43	-133.264	43.148	0	114.60	0	9.0690	0	33.0680	8	25.597	0	113.658	0	242.4	4	85.3	4	-1E+10	1	-1E+10	1	-1E+10	1	-1E+10	1	-1E+10	1	-1E+10	1
4901784	127	C	12/26/2018	10:43	-133.264	43.148	0	117.20	0	8.9600	0	33.1010	8	25.640	0	116.235	0	240.6	4	84.5	4	-1E+10	1	-1E+10	1	-1E+10	1	-1E+10	1	-1E+10	1	-1E+10	1
4901784	127	C	12/26/2018	10:43	-133.264	43.148	0	119.80	0	8.8790	0	33.1360	8	25.680	0	118.813	0	239.4	4	84.0	4	-1E+10	1	-1E+10	1	-1E+10	1	-1E+10	1	-1E+10	1	-1E+10	1
4901784	127	C	12/26/2018	10:43	-133.264	43.148	0	122.50	0	8.7310	0	33.1760	8	25.734	0	121.490	0	238.2	4	83.3	4	-1E+10	1	-1E+10	1	-1E+10	1	-1E+10	1	-1E+10	1	-1E+10	1
4901784	127	C	12/26/2018	10:43	-133.264	43.148	0	125.20	0	8.6310	0	33.1860	8	25.757	0	124.167	0	237.8	4	83.0	4	-1E+10	1	-1E+10	1	-1E+10	1	-1E+10	1	-1E+10	1	-1E+10	1
4901784	127	C	12/26/2018	10:43	-133.264	43.148	0	127.90	0	8.4790	0	33.2160	8	25.804	0	126.844	0	237.5	4	82.6	4	-1E+10	1	-1E+10	1	-1E+10	1	-1E+10	1	-1E+10	1	-1E+10	1
4901784	127	C	12/26/2018	10:43	-133.264	43.148	0	129.60	0	8.4380	0	33.2240	8	25.816	0	128.530	0	237.0	4	82.3	4	-1E+10	1	-1E+10	1	-1E+10	1	-1E+10	1	-1E+10	1	-1E+10	1
4901784	127	C	12/26/2018	10:43	-133.264	43.148	0	132.20	0	8.3730	0	33.2430	8	25.841	0	131.107	0	235.5	4	81.7	4	-1E+10	1	-1E+10	1	-1E+10	1	-1E+10	1	-1E+10	1	-1E+10	1
4901784	127	C	12/26/2018	10:43	-133.264	43.148	0	134.80	0	8.2590	0	33.2880	8	25.893	0	133.685	0	234.6	4	81.2	4	-1E+10	1	-1E+10	1	-1E+10	1	-1E+10	1	-1E+10	1	-1E+10	1
4901784	127	C	12/26/2018	10:43	-133.264	43.148	0	137.60	0	8.1560	0	33.3340	8	25.945	0	136.461	0	233.6	4	80.7	4	-1E+10	1	-1E+10	1	-1E+10	1	-1E+10	1	-1E+10	1	-1E+10	1
4901784	127	C	12/26/2018	10:43	-133.264	43.148	0	140.20	0	8.0800	0	33.3740	8	25.988	0	139.038	0	232.7	4	80.3	4	-1E+10	1	-1E+10	1	-1E+10	1	-1E+10	1	-1E+10	1	-1E+10	1
4901784	127	C	12/26/2018	10:43	-133.264	43.148	0	142.50	0	8.0640	0	33.3980	8	26.009	0	141.319	0	231.8	4	80.0	4	-1E+10	1	-1E+10	1	-1E+10	1	-1E+10	1	-1E+10	1	-1E+10	1
4901784	127	C	12/26/2018	10:43	-133.264	43.148	0	145.00	0	8.0460	0	33.4180	8	26.027	0	143.797	0	230.6	4	79.5	4	-1E+10	1	-1E+10	1	-1E+10	1	-1E+10	1	-1E+10	1	-1E+10	1
4901784	127	C	12/26/2018	10:43	-133.264	43.148	0	147.90	0	8.0300	0	33.4400	8	26.047	0	146.672	0	228.7	4	78.8	4	-1E+10	1	-1E+10	1	-1E+10	1	-1E+10	1	-1E+10	1	-1E+10	1
4901784	127	C	12/26/2018	10:43	-133.264	43.148	0	150.20	0	8.0140	0	33.4720	8	26.074	0	148.952	0	226.9	4	78.2	4	-1E+10	1	-1E+10	1	-1E+10	1	-1E+10	1	-1E+10	1	-1E+10	1
4901784	127	C	12/26/2018	10:43	-133.264	43.148	0	152.40	0	8.0060	0	33.4970	8	26.095	0	151.133	0	224.9	4	77.5	4	-1E+10	1	-1E+10	1	-1E+10	1	-1E+10	1	-1E+10	1	-1E+10	1
4901784	127	C	12/26/2018	10:43	-133.264	43.148	0	154.80	0	8.0030	0	33.5180	8	26.112	0	153.512	0	222.1	4	76.6	4	-1E+10	1	-1E+10	1	-1E+10	1	-1E+10	1	-1E+10	1	-1E+10	1
4901784	127	C	12/26/2018	10:43	-133.264	43.148	0	157.10	0	8.0120	0	33.5830	8	26.162	0	155.792	0	218.8	4	75.5	4	-1E+10	1	-1E+10	1	-1E+10	1	-1E+10	1	-1E+10	1	-1E+10	1
4901784	127	C	12/26/2018	10:43	-133.264	43.148	0	160.30	0	8.0490	0	33.6570	8	26.215	0	158.964	0	214.0	4	73.9	4	-1E+10	1	-1E+10	1	-1E+10	1	-1E+10	1	-1E+10	1	-1E+10	1
4901784	127	C	12/26/2018	10:43	-133.264	43.148	0	162.70	0	8.0630	0	33.6950	8	26.242	0	161.343	0	210.7	4	72.8	4	-1E+10	1	-1E+10	1	-1E+10	1	-1E+10	1	-1E+10	1	-1E+10	1
4901784	127	C	12/26/2018	10:43	-133.264	43.148	0	165.20	0	8.0800	0	33.7330	8	26.270	0	163.821	0	206.3	4	71.4	4	-1E+10	1	-1E+10	1	-1E+10	1	-1E+10	1	-1E+10	1	-1E+10	1
4901784	127	C	12/26/2018	10:43	-133.264	43.148	0	167.70	0	8.1430	0	33.8070	8	26.318	0	166.300	0	201.1	4	69.7	4	-1E+10	1	-1E+10	1	-1E+10	1	-1E+10	1	-1E+10	1	-1E+10	1
4901784	127	C	12/26/2018	10:43	-133.264	43.148	0	170.30	0	8.2070	0	33.8800	8	26.366	0	168.877	0	195.9	4	68.0	4	-1E+10	1	-1E+10	1	-1E+10	1	-1E+10	1	-1E+10	1	-1E+10	1
4901784	127	C	12/26/2018	10:43	-133.264	43.148	0	172.90	0	8.2410	0	33.9160	8	26.389	0	171.454	0	191.2	4	66.5	4	-1E+10	1	-1E+10	1	-1E+10	1	-1E+10	1	-1E+10	1	-1E+10	1
4901784	127	C	12/26/2018	10:43	-133.264	43.148	0	174.70	0	8.2510	0	33.9330	8	26.401	0	173.238	0	187.6	4	65.2	4	-1E+10	1	-1E+10	1	-1E+10	1	-1E+10	1	-1E+10	1	-1E+10	1
4901784	127	C	12/26/2018	10:43	-133.264	43.148	0	177.50	0	8.3100	0	34.0070	8	26.451	0	176.014	0	180.6	4	62.9	4	-1E+10	1	-1E+10	1	-1E+10	1	-1E+10	1	-1E+10	1	-1E+10	1
4901784	127	C	12/26/2018	10:43	-133.264	43.148	0	180.20	0	8.3450	0	34.0580	8	26.485	0	178.690	0	176.2	4	61.5	4	-1E+10	1	-1E+10	1	-1E+10	1	-1E+10	1	-1E+10	1	-1E+10	1
4901784	127	C	12/26/2018	10:43	-133.264	43.148	0	182.00	0	8.3500	0	34.0930	8	26.512	0	180.474	0	174.2	4	60.8	4	-1E+10	1	-1E+10	1	-1E+10	1	-1E+10	1	-1E+10	1	-1E+10	1
4901784	127	C	12/26/2018	10:43	-133.264	43.148	0	184.90	0	8.3510	0	34.1080	8	26.524	0	183.348	0	171.4	4	59.8	4	-1E+10	1	-1E+10	1	-1E+10	1	-1E+10	1	-1E+10	1	-1E+10	1
4901784	127	C	12/26/2018	10:43	-133.264	43.148	0	187.80	0	8.3450	0	34.1340	8	26.545	0	186.223	0	168.7	4	58.9	4	-1E+10	1	-1E+10	1	-1E+10	1	-1E+10	1	-1E+10	1	-1E+10	1
4901784	127	C	12/26/2018	10:43	-133.264	43.148	0	189.70	0	8.3350	0	34.1560	8	26.564	0	188.106	0	167.2	4	58.4	4	-1E+10	1	-1E+10	1	-1E+10	1	-1E+10	1	-1E+10	1	-1E+10	1
4901784	127	C	12/26/2018	10:43	-133.264	43.148	0	192.60	0	8.3170	0	34.1750	8	26.582	0	190.980	0	165.2	4	57.7	4	-1E+10	1	-1E+10	1	-1E+10	1	-1E+10	1	-1E+10	1	-1E+10	1
4901784	127	C	12/26/2018	10:43	-133.264	43.148	0	195.40	0	8.2990	0	34.1890	8	26.595	0	193.755	0	163.5	4	57.0	4	-1E+10	1	-1E+10	1	-1E+10	1	-1E+10	1	-1E+10	1	-1E+10	1
4901784	127	C	12/26/2018	10:43	-133.264	43.148	0	197.30	0	8.2960	0	34.1900	8	26.597	0	195.638	0	162.3	4	56.6	4	-1E+10	1	-1E+10	1	-1E+10	1	-1E+10	1	-1E+10	1	-1E+10	1
4901784	127	C	12/26/2018	10:43	-133.264	43.148	0	200.10	0	8.2610	0	34.2040	8	26.613	0	198.413	0	160.1	4	55.8	4	-1E+10	1	-1E+10	1	-1E+10	1	-1E+10	1	-1E+10	1	-1E+10	1
4901784	127	C	12/26/2018	10:43	-133.264	43.148	0	203.10	0	8.2090	0	34.2200	8	26.633	0	201.387	0	158.5	4	55.2	4	-1E+10	1	-1E+10	1	-1E+10	1	-1E+10	1	-1E+10	1	-1E+10	1
4901784	127	C	12/26/2018	10:43	-133.264	43.148	0	205.00	0	8.2010	0	34.2210	8	26.635	0	203.270	0	157.4	4	54.8	4	-1E+10	1	-1E+10	1	-1E+10	1	-1E+10	1	-1E+10	1	-1E+10	1
4901784	127	C	12/26/2018	10:43	-133.264	43.148	0	207.00	0	8.1560	0	34.2310	8	26.650	0	205.252	0	156.0	4	54.3	4	-1E+10	1	-1E+10	1	-1E+10	1	-1E+10	1	-1E+10	1	-1E+10	1
4901784	127	C	12/26/2018	10:43	-133.264	43.148	0	210.10	0	8.1070	0	34.2360	8	26.661	0	208.324	0	154.3	4	53.6	4	-1E+10	1	-1E+10	1	-1E+10	1	-1E+10	1	-1E+10	1	-1E+10	1
4901784	127	C	12/26/2018	10:43	-133.264	43.148	0	213.00	0	7.9990	0	34.2470	8	26.686	0	211.198	0	153.0	4	53.0	4	-1E+10	1	-1E+10	1	-1E+10	1	-1E+10	1	-1E+10	1	-1E+10	1
4901784	127	C	12/26/2018	10:43	-133.264	43.148	0	215.00	0	7.9670	0	34.2490	8	26.692	0	213.180	0	152.7	4	52.9	4	-1E+10	1	-1E+10	1	-1E+10	1	-1E+10	1	-1E+10	1	-1E+10	1
4901784	127	C	12/26/2018	10:43	-133.264	43.148	0	217.50	0	7.9530	0	34.2500	8	26.695	0	215.658	0	151.9	4	52.6	4	-1E+10	1	-1E+10	1	-1E+10	1	-1E+10	1	-1E+10	1	-1E+10	1
4901784	127	C	12/26/2018	10:43	-133.264	43.148	0	220.30	0	7.9350	0	34.2490	8	26.697	0	218.433	0	150.5	4	52.1	4	-1E+10	1	-1E+10	1	-1E+10	1	-1E+10	1	-1E+10	1	-1E+10	1
4901784	127	C	12/26/2018	10:43	-133.264	43.148	0	222.80	0	7.8650	0	34.2500	8	26.708	0	220.910	0	149.4	4	51.6	4	-1E+10	1	-1E+10	1	-1E+10	1	-1E+10	1	-1E+10	1	-1E+10	1
4901784	127	C	12/26/2018	10:43	-133.264	43.148	0	225.20	0	7.8080	0	34.2550	8	26.721	0	223.288	0	148.4	4	51.2	4	-1E+10	1	-1E+10	1	-1E+10	1	-1E+10	1	-1E+10	1	-1E+10	1
4901784	127	C	12/26/2018	10:43	-133.264	43.148	0	227.70	0	7.7610	0	34.2560	8	26.728	0	225.766	0	147.6	4	50.9	4	-1E+10	1	-1E+10	1	-1E+10	1	-1E+10	1	-1E+10	1	-1E+10	1
4901784	127	C	12/26/2018	10:43	-133.264	43.148	0	230.10	0	7.7370	0	34.2540	8	26.730	0	228.144	0	146.6	4	50.5	4	-1E+10	1	-1E+10	1	-1E+10	1	-1E+10	1	-1E+10	1	-1E+10	1
4901784	127	C	12/26/2018	10:43	-133.264	43.148	0	232.60	0	7.6810	0	34.2550	8	26.739	0	230.621	0	145.7	4	50.1	4	-1E+10	1	-1E+10	1	-1E+10	1	-1E+10	1	-1E+10	1	-1E+10	1
4901784	127	C	12/26/2018	10:43	-133.264	43.148	0	235.10	0	7.6130	0	34.2580	8	26.751	0	233.099	0	144.8	4	49.8	4	-1E+10	1	-1E+10	1	-1E+10	1	-1E+10	1	-1E+10	1	-1E+10	1
4901784	127	C	12/26/2018	10:43	-133.264	43.148	0	237.60	0	7.5740	0	34.2580	8	26.757	0	235.576	0	144.2	4	49.5	4	-1E+10	1	-1E+10	1	-1E+10	1	-1E+10	1	-1E+10	1	-1E+10	1
4901784	127	C	12/26/2018	10:43	-133.264	43.148	0	240.10	0	7.5660	0	34.2580	8	26.758	0	238.053	0	143.4	4	49.2	4	-1E+10	1	-1E+10	1	-1E+10	1	-1E+10	1	-1E+10	1	-1E+10	1
4901784	127	C	12/26/2018	10:43	-133.264	43.148	0	242.70	0	7.5310	0	34.2570	8	26.762	0	240.630	0	142.6	4	48.9	4	-1E+10	1	-1E+10	1	-1E+10	1	-1E+10	1	-1E+10	1	-1E+10	1
4901784	127	C	12/26/2018	10:43	-133.264	43.148	0	245.20	0	7.4890	0	34.2580	8	26.769	0	243.107	0	141.8	4	48.6	4	-1E+10	1	-1E+10	1	-1E+10	1	-1E+10	1	-1E+10	1	-1E+10	1
4901784	127	C	12/26/2018	10:43	-133.264	43.148	0	247.70	0	7.4540	0	34.2580	8	26.774	0	245.584	0	141.0	4	48.3	4	-1E+10	1	-1E+10	1	-1E+10	1	-1E+10	1	-1E+10	1	-1E+10	1
4901784	127	C	12/26/2018	10:43	-133.264	43.148	0	250.20	0	7.4250	0	34.2560	8	26.777	0	248.061	0	140.3	4	48.0	4	-1E+10	1	-1E+10	1	-1E+10	1	-1E+10	1	-1E+10	1	-1E+10	1
4901784	127	C	12/26/2018	10:43	-133.264	43.148	0	252.80	0	7.3950	0	34.2550	8	26.780	0	250.637	0	139.5	4	47.7	4	-1E+10	1	-1E+10	1	-1E+10	1	-1E+10	1	-1E+10	1	-1E+10	1
4901784	127	C	12/26/2018	10:43	-133.264	43.148	0	255.30	0	7.3730	0	34.2580	8	26.786	0	253.114	0	138.6	4	47.4	4	-1E+10	1	-1E+10	1	-1E+10	1	-1E+10	1	-1E+10	1	-1E+10	1
4901784	127	C	12/26/2018	10:43	-133.264	43.148	0	257.80	0	7.3430	0	34.2570	8	26.789	0	255.591	0	137.5	4	47.0	4	-1E+10	1	-1E+10	1	-1E+10	1	-1E+10	1	-1E+10	1	-1E+10	1
4901784	127	C	12/26/2018	10:43	-133.264	43.148	0	259.50	0	7.3080	0	34.2550	8	26.793	0	257.276	0	136.7	4	46.7	4	-1E+10	1	-1E+10	1	-1E+10	1	-1E+10	1	-1E+10	1	-1E+10	1
4901784	127	C	12/26/2018	10:43	-133.264	43.148	0	262.10	0	7.2480	0	34.2560	8	26.802	0	259.852	0	135.7	4	46.3	4	-1E+10	1	-1E+10	1	-1E+10	1	-1E+10	1	-1E+10	1	-1E+10	1
4901784	127	C	12/26/2018	10:43	-133.264	43.148	0	264.50	0	7.2060	0	34.2570	8	26.809	0	262.230	0	135.0	4	46.0	4	-1E+10	1	-1E+10	1	-1E+10	1	-1E+10	1	-1E+10	1	-1E+10	1
4901784	127	C	12/26/2018	10:43	-133.264	43.148	0	267.10	0	7.1820	0	34.2550	8	26.810	0	264.806	0	134.3	4	45.7	4	-1E+10	1	-1E+10	1	-1E+10	1	-1E+10	1	-1E+10	1	-1E+10	1
4901784	127	C	12/26/2018	10:43	-133.264	43.148	0	269.60	0	7.1550	0	34.2550	8	26.814	0	267.283	0	133.4	4	45.4	4	-1E+10	1	-1E+10	1	-1E+10	1	-1E+10	1	-1E+10	1	-1E+10	1
4901784	127	C	12/26/2018	10:43	-133.264	43.148	0	272.20	0	7.1290	0	34.2550	8	26.818	0	269.859	0	132.6	4	45.1	4	-1E+10	1	-1E+10	1	-1E+10	1	-1E+10	1	-1E+10	1	-1E+10	1
4901784	127	C	12/26/2018	10:43	-133.264	43.148	0	274.80	0	7.0870	0	34.2550	8	26.824	0	272.435	0	131.6	4	44.7	4	-1E+10	1	-1E+10	1	-1E+10	1	-1E+10	1	-1E+10	1	-1E+10	1
4901784	127	C	12/26/2018	10:43	-133.264	43.148	0	277.40	0	7.0670	0	34.2530	8	26.825	0	275.011	0	130.7	4	44.4	4	-1E+10	1	-1E+10	1	-1E+10	1	-1E+10	1	-1E+10	1	-1E+10	1
4901784	127	C	12/26/2018	10:43	-133.264	43.148	0	280.00	0	7.0010	0	34.2560	8	26.836	0	277.586	0	129.7	4	44.0	4	-1E+10	1	-1E+10	1	-1E+10	1	-1E+10	1	-1E+10	1	-1E+10	1
4901784	127	C	12/26/2018	10:43	-133.264	43.148	0	282.70	0	6.9870	0	34.2530	8	26.836	0	280.261	0	128.9	4	43.7	4	-1E+10	1	-1E+10	1	-1E+10	1	-1E+10	1	-1E+10	1	-1E+10	1
4901784	127	C	12/26/2018	10:43	-133.264	43.148	0	285.30	0	6.9660	0	34.2510	8	26.837	0	282.837	0	128.0	4	43.4	4	-1E+10	1	-1E+10	1	-1E+10	1	-1E+10	1	-1E+10	1	-1E+10	1
4901784	127	C	12/26/2018	10:43	-133.264	43.148	0	287.10	0	6.9400	0	34.2500	8	26.840	0	284.620	0	127.3	4	43.1	4	-1E+10	1	-1E+10	1	-1E+10	1	-1E+10	1	-1E+10	1	-1E+10	1
4901784	127	C	12/26/2018	10:43	-133.264	43.148	0	289.80	0	6.8960	0	34.2510	8	26.847	0	287.295	0	126.5	4	42.8	4	-1E+10	1	-1E+10	1	-1E+10	1	-1E+10	1	-1E+10	1	-1E+10	1
4901784	127	C	12/26/2018	10:43	-133.264	43.148	0	292.50	0	6.8620	0	34.2510	8	26.852	0	289.970	0	125.6	4	42.4	4	-1E+10	1	-1E+10	1	-1E+10	1	-1E+10	1	-1E+10	1	-1E+10	1
4901784	127	C	12/26/2018	10:43	-133.264	43.148	0	295.10	0	6.8430	0	34.2500	8	26.853	0	292.546	0	124.8	4	42.1	4	-1E+10	1	-1E+10	1	-1E+10	1	-1E+10	1	-1E+10	1	-1E+10	1
4901784	127	C	12/26/2018	10:43	-133.264	43.148	0	297.90	0	6.8210	0	34.2470	8	26.854	0	295.319	0	123.7	4	41.7	4	-1E+10	1	-1E+10	1	-1E+10	1	-1E+10	1	-1E+10	1	-1E+10	1
4901784	127	C	12/26/2018	10:43	-133.264	43.148	0	299.80	0	6.7730	0	34.2480	8	26.861	0	297.202	0	122.8	4	41.4	4	-1E+10	1	-1E+10	1	-1E+10	1	-1E+10	1	-1E+10	1	-1E+10	1
4901784	127	C	12/26/2018	10:43	-133.264	43.148	0	302.50	0	6.7430	0	34.2470	8	26.865	0	299.876	0	121.7	4	41.0	4	-1E+10	1	-1E+10	1	-1E+10	1	-1E+10	1	-1E+10	1	-1E+10	1
4901784	127	C	12/26/2018	10:43	-133.264	43.148	0	305.20	0	6.6870	0	34.2460	8	26.871	0	302.551	0	120.3	4	40.5	4	-1E+10	1	-1E+10	1	-1E+10	1	-1E+10	1	-1E+10	1	-1E+10	1
4901784	127	C	12/26/2018	10:43	-133.264	43.148	0	307.00	0	6.6220	0	34.2480	8	26.882	0	304.334	0	119.7	4	40.2	4	-1E+10	1	-1E+10	1	-1E+10	1	-1E+10	1	-1E+10	1	-1E+10	1
4901784	127	C	12/26/2018	10:43	-133.264	43.148	0	309.80	0	6.5740	0	34.2560	8	26.894	0	307.107	0	118.9	4	39.9	4	-1E+10	1	-1E+10	1	-1E+10	1	-1E+10	1	-1E+10	1	-1E+10	1
4901784	127	C	12/26/2018	10:43	-133.264	43.148	0	312.50	0	6.5120	0	34.2640	8	26.909	0	309.782	0	118.4	4	39.7	4	-1E+10	1	-1E+10	1	-1E+10	1	-1E+10	1	-1E+10	1	-1E+10	1
4901784	127	C	12/26/2018	10:43	-133.264	43.148	0	314.40	0	6.5020	0	34.2630	8	26.909	0	311.664	0	118.1	4	39.6	4	-1E+10	1	-1E+10	1	-1E+10	1	-1E+10	1	-1E+10	1	-1E+10	1
4901784	127	C	12/26/2018	10:43	-133.264	43.148	0	317.20	0	6.4470	0	34.2640	8	26.917	0	314.438	0	117.5	4	39.3	4	-1E+10	1	-1E+10	1	-1E+10	1	-1E+10	1	-1E+10	1	-1E+10	1
4901784	127	C	12/26/2018	10:43	-133.264	43.148	0	320.00	0	6.4040	0	34.2630	8	26.922	0	317.211	0	116.9	4	39.1	4	-1E+10	1	-1E+10	1	-1E+10	1	-1E+10	1	-1E+10	1	-1E+10	1
4901784	127	C	12/26/2018	10:43	-133.264	43.148	0	321.90	0	6.3830	0	34.2610	8	26.923	0	319.093	0	116.4	4	38.9	4	-1E+10	1	-1E+10	1	-1E+10	1	-1E+10	1	-1E+10	1	-1E+10	1
4901784	127	C	12/26/2018	10:43	-133.264	43.148	0	324.70	0	6.3570	0	34.2600	8	26.926	0	321.866	0	115.3	4	38.5	4	-1E+10	1	-1E+10	1	-1E+10	1	-1E+10	1	-1E+10	1	-1E+10	1
4901784	127	C	12/26/2018	10:43	-133.264	43.148	0	327.50	0	6.3040	0	34.2570	8	26.931	0	324.640	0	114.1	4	38.1	4	-1E+10	1	-1E+10	1	-1E+10	1	-1E+10	1	-1E+10	1	-1E+10	1
4901784	127	C	12/26/2018	10:43	-133.264	43.148	0	329.40	0	6.2750	0	34.2580	8	26.935	0	326.522	0	113.0	4	37.7	4	-1E+10	1	-1E+10	1	-1E+10	1	-1E+10	1	-1E+10	1	-1E+10	1
4901784	127	C	12/26/2018	10:43	-133.264	43.148	0	332.30	0	6.2060	0	34.2570	8	26.943	0	329.394	0	111.5	4	37.1	4	-1E+10	1	-1E+10	1	-1E+10	1	-1E+10	1	-1E+10	1	-1E+10	1
4901784	127	C	12/26/2018	10:43	-133.264	43.148	0	335.10	0	6.1650	0	34.2570	8	26.948	0	332.167	0	110.1	4	36.6	4	-1E+10	1	-1E+10	1	-1E+10	1	-1E+10	1	-1E+10	1	-1E+10	1
4901784	127	C	12/26/2018	10:43	-133.264	43.148	0	337.10	0	6.1170	0	34.2560	8	26.954	0	334.148	0	109.1	4	36.2	4	-1E+10	1	-1E+10	1	-1E+10	1	-1E+10	1	-1E+10	1	-1E+10	1
4901784	127	C	12/26/2018	10:43	-133.264	43.148	0	340.00	0	6.0750	0	34.2560	8	26.959	0	337.020	0	107.7	4	35.7	4	-1E+10	1	-1E+10	1	-1E+10	1	-1E+10	1	-1E+10	1	-1E+10	1
4901784	127	C	12/26/2018	10:43	-133.264	43.148	0	342.80	0	5.9990	0	34.2600	8	26.972	0	339.794	0	106.5	4	35.3	4	-1E+10	1	-1E+10	1	-1E+10	1	-1E+10	1	-1E+10	1	-1E+10	1
4901784	127	C	12/26/2018	10:43	-133.264	43.148	0	344.70	0	5.9580	0	34.2570	8	26.975	0	341.675	0	106.2	4	35.1	4	-1E+10	1	-1E+10	1	-1E+10	1	-1E+10	1	-1E+10	1	-1E+10	1
4901784	127	C	12/26/2018	10:43	-133.264	43.148	0	347.60	0	5.9560	0	34.2550	8	26.973	0	344.548	0	105.4	4	34.9	4	-1E+10	1	-1E+10	1	-1E+10	1	-1E+10	1	-1E+10	1	-1E+10	1
4901784	127	C	12/26/2018	10:43	-133.264	43.148	0	350.50	0	5.9090	0	34.2570	8	26.981	0	347.420	0	104.3	4	34.5	4	-1E+10	1	-1E+10	1	-1E+10	1	-1E+10	1	-1E+10	1	-1E+10	1
4901784	127	C	12/26/2018	10:43	-133.264	43.148	0	352.50	0	5.8950	0	34.2550	8	26.981	0	349.400	0	103.6	4	34.2	4	-1E+10	1	-1E+10	1	-1E+10	1	-1E+10	1	-1E+10	1	-1E+10	1
4901784	127	C	12/26/2018	10:43	-133.264	43.148	0	354.30	0	5.8760	0	34.2550	8	26.983	0	351.183	0	103.1	4	34.0	4	-1E+10	1	-1E+10	1	-1E+10	1	-1E+10	1	-1E+10	1	-1E+10	1
4901784	127	C	12/26/2018	10:43	-133.264	43.148	0	356.90	0	5.8170	0	34.2540	8	26.990	0	353.758	0	102.4	4	33.8	4	-1E+10	1	-1E+10	1	-1E+10	1	-1E+10	1	-1E+10	1	-1E+10	1
4901784	127	C	12/26/2018	10:43	-133.264	43.148	0	359.60	0	5.7820	0	34.2520	8	26.993	0	356.432	0	101.6	4	33.5	4	-1E+10	1	-1E+10	1	-1E+10	1	-1E+10	1	-1E+10	1	-1E+10	1
4901784	127	C	12/26/2018	10:43	-133.264	43.148	0	362.10	0	5.7620	0	34.2510	8	26.994	0	358.908	0	100.9	4	33.2	4	-1E+10	1	-1E+10	1	-1E+10	1	-1E+10	1	-1E+10	1	-1E+10	1
4901784	127	C	12/26/2018	10:43	-133.264	43.148	0	364.50	0	5.7400	0	34.2520	8	26.998	0	361.284	0	100.0	4	32.9	4	-1E+10	1	-1E+10	1	-1E+10	1	-1E+10	1	-1E+10	1	-1E+10	1
4901784	127	C	12/26/2018	10:43	-133.264	43.148	0	367.70	0	5.6920	0	34.2530	8	27.005	0	364.453	0	99.1	4	32.6	4	-1E+10	1	-1E+10	1	-1E+10	1	-1E+10	1	-1E+10	1	-1E+10	1
4901784	127	C	12/26/2018	10:43	-133.264	43.148	0	370.10	0	5.6480	0	34.2540	8	27.011	0	366.830	0	98.5	4	32.4	4	-1E+10	1	-1E+10	1	-1E+10	1	-1E+10	1	-1E+10	1	-1E+10	1
4901784	127	C	12/26/2018	10:43	-133.264	43.148	0	372.50	0	5.6150	0	34.2500	8	27.012	0	369.207	0	97.9	4	32.1	4	-1E+10	1	-1E+10	1	-1E+10	1	-1E+10	1	-1E+10	1	-1E+10	1
4901784	127	C	12/26/2018	10:43	-133.264	43.148	0	375.00	0	5.5840	0	34.2530	8	27.018	0	371.682	0	97.0	4	31.8	4	-1E+10	1	-1E+10	1	-1E+10	1	-1E+10	1	-1E+10	1	-1E+10	1
4901784	127	C	12/26/2018	10:43	-133.264	43.148	0	377.50	0	5.5590	0	34.2530	8	27.021	0	374.158	0	96.6	4	31.7	4	-1E+10	1	-1E+10	1	-1E+10	1	-1E+10	1	-1E+10	1	-1E+10	1
4901784	127	C	12/26/2018	10:43	-133.264	43.148	0	380.00	0	5.5480	0	34.2520	8	27.021	0	376.634	0	96.3	4	31.6	4	-1E+10	1	-1E+10	1	-1E+10	1	-1E+10	1	-1E+10	1	-1E+10	1
4901784	127	C	12/26/2018	10:43	-133.264	43.148	0	382.50	0	5.5440	0	34.2510	8	27.021	0	379.109	0	95.7	4	31.4	4	-1E+10	1	-1E+10	1	-1E+10	1	-1E+10	1	-1E+10	1	-1E+10	1
4901784	127	C	12/26/2018	10:43	-133.264	43.148	0	385.00	0	5.5230	0	34.2510	8	27.024	0	381.585	0	95.0	4	31.1	4	-1E+10	1	-1E+10	1	-1E+10	1	-1E+10	1	-1E+10	1	-1E+10	1
4901784	127	C	12/26/2018	10:43	-133.264	43.148	0	387.50	0	5.4530	0	34.2500	8	27.031	0	384.060	0	94.5	4	30.9	4	-1E+10	1	-1E+10	1	-1E+10	1	-1E+10	1	-1E+10	1	-1E+10	1
4901784	127	C	12/26/2018	10:43	-133.264	43.148	0	390.00	0	5.4250	0	34.2500	8	27.035	0	386.536	0	93.9	4	30.7	4	-1E+10	1	-1E+10	1	-1E+10	1	-1E+10	1	-1E+10	1	-1E+10	1
4901784	127	C	12/26/2018	10:43	-133.264	43.148	0	392.50	0	5.3970	0	34.2520	8	27.040	0	389.011	0	93.1	4	30.4	4	-1E+10	1	-1E+10	1	-1E+10	1	-1E+10	1	-1E+10	1	-1E+10	1
4901784	127	C	12/26/2018	10:43	-133.264	43.148	0	395.10	0	5.3820	0	34.2520	8	27.041	0	391.586	0	92.3	4	30.1	4	-1E+10	1	-1E+10	1	-1E+10	1	-1E+10	1	-1E+10	1	-1E+10	1
4901784	127	C	12/26/2018	10:43	-133.264	43.148	0	397.60	0	5.3640	0	34.2540	8	27.045	0	394.061	0	91.5	4	29.9	4	-1E+10	1	-1E+10	1	-1E+10	1	-1E+10	1	-1E+10	1	-1E+10	1
4901784	127	C	12/26/2018	10:43	-133.264	43.148	0	400.10	0	5.3570	0	34.2530	8	27.045	0	396.536	0	90.6	4	29.6	4	-1E+10	1	-1E+10	1	-1E+10	1	-1E+10	1	-1E+10	1	-1E+10	1
4901784	127	C	12/26/2018	10:43	-133.264	43.148	0	402.70	0	5.3320	0	34.2550	8	27.050	0	399.111	0	89.5	4	29.2	4	-1E+10	1	-1E+10	1	-1E+10	1	-1E+10	1	-1E+10	1	-1E+10	1
4901784	127	C	12/26/2018	10:43	-133.264	43.148	0	405.20	0	5.3140	0	34.2540	8	27.051	0	401.586	0	88.4	4	28.8	4	-1E+10	1	-1E+10	1	-1E+10	1	-1E+10	1	-1E+10	1	-1E+10	1
4901784	127	C	12/26/2018	10:43	-133.264	43.148	0	407.90	0	5.2600	0	34.2580	8	27.061	0	404.259	0	87.3	4	28.4	4	-1E+10	1	-1E+10	1	-1E+10	1	-1E+10	1	-1E+10	1	-1E+10	1
4901784	127	C	12/26/2018	10:43	-133.264	43.148	0	410.40	0	5.2280	0	34.2600	8	27.066	0	406.734	0	86.5	4	28.1	4	-1E+10	1	-1E+10	1	-1E+10	1	-1E+10	1	-1E+10	1	-1E+10	1
4901784	127	C	12/26/2018	10:43	-133.264	43.148	0	412.10	0	5.2220	0	34.2600	8	27.067	0	408.418	0	86.0	4	28.0	4	-1E+10	1	-1E+10	1	-1E+10	1	-1E+10	1	-1E+10	1	-1E+10	1
4901784	127	C	12/26/2018	10:43	-133.264	43.148	0	414.70	0	5.1900	0	34.2630	8	27.073	0	410.992	0	85.2	4	27.7	4	-1E+10	1	-1E+10	1	-1E+10	1	-1E+10	1	-1E+10	1	-1E+10	1
4901784	127	C	12/26/2018	10:43	-133.264	43.148	0	417.30	0	5.1600	0	34.2660	8	27.079	0	413.566	0	84.7	4	27.5	4	-1E+10	1	-1E+10	1	-1E+10	1	-1E+10	1	-1E+10	1	-1E+10	1
4901784	127	C	12/26/2018	10:43	-133.264	43.148	0	419.90	0	5.1530	0	34.2670	8	27.080	0	416.140	0	84.1	4	27.3	4	-1E+10	1	-1E+10	1	-1E+10	1	-1E+10	1	-1E+10	1	-1E+10	1
4901784	127	C	12/26/2018	10:43	-133.264	43.148	0	422.50	0	5.1420	0	34.2680	8	27.083	0	418.714	0	83.3	4	27.1	4	-1E+10	1	-1E+10	1	-1E+10	1	-1E+10	1	-1E+10	1	-1E+10	1
4901784	127	C	12/26/2018	10:43	-133.264	43.148	0	425.10	0	5.1290	0	34.2700	8	27.086	0	421.288	0	82.6	4	26.8	4	-1E+10	1	-1E+10	1	-1E+10	1	-1E+10	1	-1E+10	1	-1E+10	1
4901784	127	C	12/26/2018	10:43	-133.264	43.148	0	427.70	0	5.1180	0	34.2710	8	27.088	0	423.862	0	81.9	4	26.6	4	-1E+10	1	-1E+10	1	-1E+10	1	-1E+10	1	-1E+10	1	-1E+10	1
4901784	127	C	12/26/2018	10:43	-133.264	43.148	0	430.30	0	5.1060	0	34.2710	8	27.089	0	426.436	0	81.1	4	26.3	4	-1E+10	1	-1E+10	1	-1E+10	1	-1E+10	1	-1E+10	1	-1E+10	1
4901784	127	C	12/26/2018	10:43	-133.264	43.148	0	432.80	0	5.0890	0	34.2730	8	27.093	0	428.911	0	80.2	4	26.0	4	-1E+10	1	-1E+10	1	-1E+10	1	-1E+10	1	-1E+10	1	-1E+10	1
4901784	127	C	12/26/2018	10:43	-133.264	43.148	0	434.60	0	5.0800	0	34.2740	8	27.095	0	430.693	0	79.7	4	25.9	4	-1E+10	1	-1E+10	1	-1E+10	1	-1E+10	1	-1E+10	1	-1E+10	1
4901784	127	C	12/26/2018	10:43	-133.264	43.148	0	437.10	0	5.0670	0	34.2750	8	27.097	0	433.168	0	78.8	4	25.5	4	-1E+10	1	-1E+10	1	-1E+10	1	-1E+10	1	-1E+10	1	-1E+10	1
4901784	127	C	12/26/2018	10:43	-133.264	43.148	0	439.70	0	5.0590	0	34.2760	8	27.099	0	435.742	0	77.7	4	25.2	4	-1E+10	1	-1E+10	1	-1E+10	1	-1E+10	1	-1E+10	1	-1E+10	1
4901784	127	C	12/26/2018	10:43	-133.264	43.148	0	442.30	0	5.0340	0	34.2790	8	27.104	0	438.316	0	76.4	4	24.7	4	-1E+10	1	-1E+10	1	-1E+10	1	-1E+10	1	-1E+10	1	-1E+10	1
4901784	127	C	12/26/2018	10:43	-133.264	43.148	0	445.00	0	5.0200	0	34.2810	8	27.107	0	440.989	0	75.4	4	24.4	4	-1E+10	1	-1E+10	1	-1E+10	1	-1E+10	1	-1E+10	1	-1E+10	1
4901784	127	C	12/26/2018	10:43	-133.264	43.148	0	447.60	0	5.0140	0	34.2820	8	27.109	0	443.563	0	74.2	4	24.0	4	-1E+10	1	-1E+10	1	-1E+10	1	-1E+10	1	-1E+10	1	-1E+10	1
4901784	127	C	12/26/2018	10:43	-133.264	43.148	0	450.20	0	4.9960	0	34.2830	8	27.111	0	446.136	0	72.6	4	23.5	4	-1E+10	1	-1E+10	1	-1E+10	1	-1E+10	1	-1E+10	1	-1E+10	1
4901784	127	C	12/26/2018	10:43	-133.264	43.148	0	452.80	0	4.9690	0	34.2880	8	27.119	0	448.710	0	70.8	4	22.9	4	-1E+10	1	-1E+10	1	-1E+10	1	-1E+10	1	-1E+10	1	-1E+10	1
4901784	127	C	12/26/2018	10:43	-133.264	43.148	0	455.50	0	4.9470	0	34.2910	8	27.123	0	451.383	0	69.3	4	22.4	4	-1E+10	1	-1E+10	1	-1E+10	1	-1E+10	1	-1E+10	1	-1E+10	1
4901784	127	C	12/26/2018	10:43	-133.264	43.148	0	457.30	0	4.9340	0	34.2940	8	27.127	0	453.164	0	68.4	4	22.1	4	-1E+10	1	-1E+10	1	-1E+10	1	-1E+10	1	-1E+10	1	-1E+10	1
4901784	127	C	12/26/2018	10:43	-133.264	43.148	0	460.00	0	4.9290	0	34.2970	8	27.130	0	455.837	0	67.3	4	21.7	4	-1E+10	1	-1E+10	1	-1E+10	1	-1E+10	1	-1E+10	1	-1E+10	1
4901784	127	C	12/26/2018	10:43	-133.264	43.148	0	462.60	0	4.9250	0	34.2990	8	27.132	0	458.411	0	66.2	4	21.4	4	-1E+10	1	-1E+10	1	-1E+10	1	-1E+10	1	-1E+10	1	-1E+10	1
4901784	127	C	12/26/2018	10:43	-133.264	43.148	0	464.40	0	4.9190	0	34.3010	8	27.135	0	460.192	0	65.5	4	21.2	4	-1E+10	1	-1E+10	1	-1E+10	1	-1E+10	1	-1E+10	1	-1E+10	1
4901784	127	C	12/26/2018	10:43	-133.264	43.148	0	467.20	0	4.9130	0	34.3040	8	27.138	0	462.964	0	65.0	4	21.0	4	-1E+10	1	-1E+10	1	-1E+10	1	-1E+10	1	-1E+10	1	-1E+10	1
4901784	127	C	12/26/2018	10:43	-133.264	43.148	0	469.90	0	4.9080	0	34.3050	8	27.139	0	465.636	0	64.6	4	20.9	4	-1E+10	1	-1E+10	1	-1E+10	1	-1E+10	1	-1E+10	1	-1E+10	1
4901784	127	C	12/26/2018	10:43	-133.264	43.148	0	472.50	0	4.8860	0	34.3060	8	27.142	0	468.210	0	64.3	4	20.8	4	-1E+10	1	-1E+10	1	-1E+10	1	-1E+10	1	-1E+10	1	-1E+10	1
4901784	127	C	12/26/2018	10:43	-133.264	43.148	0	475.20	0	4.8650	0	34.3070	8	27.146	0	470.882	0	63.5	4	20.5	4	-1E+10	1	-1E+10	1	-1E+10	1	-1E+10	1	-1E+10	1	-1E+10	1
4901784	127	C	12/26/2018	10:43	-133.264	43.148	0	477.00	0	4.8640	0	34.3080	8	27.146	0	472.664	0	62.7	4	20.2	4	-1E+10	1	-1E+10	1	-1E+10	1	-1E+10	1	-1E+10	1	-1E+10	1
4901784	127	C	12/26/2018	10:43	-133.264	43.148	0	479.70	0	4.8660	0	34.3100	8	27.148	0	475.336	0	61.0	4	19.7	4	-1E+10	1	-1E+10	1	-1E+10	1	-1E+10	1	-1E+10	1	-1E+10	1
4901784	127	C	12/26/2018	10:43	-133.264	43.148	0	482.40	0	4.8530	0	34.3150	8	27.153	0	478.009	0	59.2	4	19.1	4	-1E+10	1	-1E+10	1	-1E+10	1	-1E+10	1	-1E+10	1	-1E+10	1
4901784	127	C	12/26/2018	10:43	-133.264	43.148	0	485.20	0	4.8470	0	34.3200	8	27.158	0	480.780	0	57.3	4	18.5	4	-1E+10	1	-1E+10	1	-1E+10	1	-1E+10	1	-1E+10	1	-1E+10	1
4901784	127	C	12/26/2018	10:43	-133.264	43.148	0	487.80	0	4.8460	0	34.3250	8	27.162	0	483.353	0	55.3	4	17.9	4	-1E+10	1	-1E+10	1	-1E+10	1	-1E+10	1	-1E+10	1	-1E+10	1
4901784	127	C	12/26/2018	10:43	-133.264	43.148	0	489.50	0	4.8500	0	34.3300	8	27.166	0	485.036	0	54.3	4	17.5	4	-1E+10	1	-1E+10	1	-1E+10	1	-1E+10	1	-1E+10	1	-1E+10	1
4901784	127	C	12/26/2018	10:43	-133.264	43.148	0	492.20	0	4.8500	0	34.3340	8	27.169	0	487.708	0	53.0	4	17.1	4	-1E+10	1	-1E+10	1	-1E+10	1	-1E+10	1	-1E+10	1	-1E+10	1
4901784	127	C	12/26/2018	10:43	-133.264	43.148	0	494.90	0	4.8470	0	34.3360	8	27.171	0	490.380	0	51.7	4	16.7	4	-1E+10	1	-1E+10	1	-1E+10	1	-1E+10	1	-1E+10	1	-1E+10	1
4901784	127	C	12/26/2018	10:43	-133.264	43.148	0	497.60	0	4.8480	0	34.3400	8	27.174	0	493.052	0	50.1	4	16.2	4	-1E+10	1	-1E+10	1	-1E+10	1	-1E+10	1	-1E+10	1	-1E+10	1
4901784	127	C	12/26/2018	10:43	-133.264	43.148	0	500.30	0	4.8470	0	34.3420	8	27.176	0	495.724	0	48.6	4	15.7	4	-1E+10	1	-1E+10	1	-1E+10	1	-1E+10	1	-1E+10	1	-1E+10	1
4901784	127	C	12/26/2018	10:43	-133.264	43.148	0	504.90	0	4.8300	0	34.3540	8	27.187	0	500.277	0	46.7	4	15.1	4	-1E+10	1	-1E+10	1	-1E+10	1	-1E+10	1	-1E+10	1	-1E+10	1
4901784	127	C	12/26/2018	10:43	-133.264	43.148	0	509.50	0	4.8210	0	34.3590	8	27.192	0	504.829	0	45.3	4	14.6	4	-1E+10	1	-1E+10	1	-1E+10	1	-1E+10	1	-1E+10	1	-1E+10	1
4901784	127	C	12/26/2018	10:43	-133.264	43.148	0	515.00	0	4.8200	0	34.3630	8	27.195	0	510.272	0	44.1	4	14.2	4	-1E+10	1	-1E+10	1	-1E+10	1	-1E+10	1	-1E+10	1	-1E+10	1
4901784	127	C	12/26/2018	10:43	-133.264	43.148	0	520.50	0	4.7930	0	34.3650	8	27.200	0	515.714	0	43.3	4	14.0	4	-1E+10	1	-1E+10	1	-1E+10	1	-1E+10	1	-1E+10	1	-1E+10	1
4901784	127	C	12/26/2018	10:43	-133.264	43.148	0	525.00	0	4.7650	0	34.3680	8	27.206	0	520.167	0	41.8	4	13.5	4	-1E+10	1	-1E+10	1	-1E+10	1	-1E+10	1	-1E+10	1	-1E+10	1
4901784	127	C	12/26/2018	10:43	-133.264	43.148	0	529.60	0	4.7440	0	34.3750	8	27.214	0	524.719	0	40.2	4	13.0	4	-1E+10	1	-1E+10	1	-1E+10	1	-1E+10	1	-1E+10	1	-1E+10	1
4901784	127	C	12/26/2018	10:43	-133.264	43.148	0	535.00	0	4.7180	0	34.3830	8	27.223	0	530.063	0	38.9	4	12.5	4	-1E+10	1	-1E+10	1	-1E+10	1	-1E+10	1	-1E+10	1	-1E+10	1
4901784	127	C	12/26/2018	10:43	-133.264	43.148	0	540.50	0	4.7060	0	34.3860	8	27.227	0	535.505	0	37.7	4	12.1	4	-1E+10	1	-1E+10	1	-1E+10	1	-1E+10	1	-1E+10	1	-1E+10	1
4901784	127	C	12/26/2018	10:43	-133.264	43.148	0	545.10	0	4.6980	0	34.3920	8	27.232	0	540.056	0	36.3	4	11.7	4	-1E+10	1	-1E+10	1	-1E+10	1	-1E+10	1	-1E+10	1	-1E+10	1
4901784	127	C	12/26/2018	10:43	-133.264	43.148	0	549.60	0	4.6870	0	34.3960	8	27.237	0	544.509	0	35.5	4	11.4	4	-1E+10	1	-1E+10	1	-1E+10	1	-1E+10	1	-1E+10	1	-1E+10	1
4901784	127	C	12/26/2018	10:43	-133.264	43.148	0	555.00	0	4.6710	0	34.4000	8	27.242	0	549.852	0	35.0	4	11.2	4	-1E+10	1	-1E+10	1	-1E+10	1	-1E+10	1	-1E+10	1	-1E+10	1
4901784	127	C	12/26/2018	10:43	-133.264	43.148	0	560.50	0	4.6290	0	34.4010	8	27.247	0	555.293	0	34.8	4	11.2	4	-1E+10	1	-1E+10	1	-1E+10	1	-1E+10	1	-1E+10	1	-1E+10	1
4901784	127	C	12/26/2018	10:43	-133.264	43.148	0	565.10	0	4.5910	0	34.4020	8	27.252	0	559.844	0	34.3	4	11.0	4	-1E+10	1	-1E+10	1	-1E+10	1	-1E+10	1	-1E+10	1	-1E+10	1
4901784	127	C	12/26/2018	10:43	-133.264	43.148	0	569.70	0	4.5850	0	34.4050	8	27.255	0	564.395	0	33.0	4	10.6	4	-1E+10	1	-1E+10	1	-1E+10	1	-1E+10	1	-1E+10	1	-1E+10	1
4901784	127	C	12/26/2018	10:43	-133.264	43.148	0	575.20	0	4.5680	0	34.4150	8	27.265	0	569.837	0	31.6	4	10.1	4	-1E+10	1	-1E+10	1	-1E+10	1	-1E+10	1	-1E+10	1	-1E+10	1
4901784	127	C	12/26/2018	10:43	-133.264	43.148	0	579.80	0	4.5480	0	34.4180	8	27.270	0	574.387	0	30.9	4	9.9	4	-1E+10	1	-1E+10	1	-1E+10	1	-1E+10	1	-1E+10	1	-1E+10	1
4901784	127	C	12/26/2018	10:43	-133.264	43.148	0	584.30	0	4.5190	0	34.4200	8	27.274	0	578.839	0	30.3	4	9.7	4	-1E+10	1	-1E+10	1	-1E+10	1	-1E+10	1	-1E+10	1	-1E+10	1
4901784	127	C	12/26/2018	10:43	-133.264	43.148	0	589.90	0	4.4810	0	34.4240	8	27.282	0	584.379	0	29.4	4	9.4	4	-1E+10	1	-1E+10	1	-1E+10	1	-1E+10	1	-1E+10	1	-1E+10	1
4901784	127	C	12/26/2018	10:43	-133.264	43.148	0	594.60	0	4.4490	0	34.4270	8	27.288	0	589.028	0	28.7	4	9.2	4	-1E+10	1	-1E+10	1	-1E+10	1	-1E+10	1	-1E+10	1	-1E+10	1
4901784	127	C	12/26/2018	10:43	-133.264	43.148	0	600.20	0	4.4240	0	34.4320	8	27.294	0	594.568	0	27.8	4	8.9	4	-1E+10	1	-1E+10	1	-1E+10	1	-1E+10	1	-1E+10	1	-1E+10	1
4901784	127	C	12/26/2018	10:43	-133.264	43.148	0	605.40	0	4.4010	0	34.4390	8	27.303	0	599.712	0	26.7	4	8.5	4	-1E+10	1	-1E+10	1	-1E+10	1	-1E+10	1	-1E+10	1	-1E+10	1
4901784	127	C	12/26/2018	10:43	-133.264	43.148	0	610.20	0	4.3960	0	34.4430	8	27.306	0	604.459	0	25.7	4	8.2	4	-1E+10	1	-1E+10	1	-1E+10	1	-1E+10	1	-1E+10	1	-1E+10	1
4901784	127	C	12/26/2018	10:43	-133.264	43.148	0	615.10	0	4.3790	0	34.4490	8	27.313	0	609.306	0	24.8	4	7.9	4	-1E+10	1	-1E+10	1	-1E+10	1	-1E+10	1	-1E+10	1	-1E+10	1
4901784	127	C	12/26/2018	10:43	-133.264	43.148	0	620.20	0	4.3590	0	34.4550	8	27.320	0	614.351	0	24.2	4	7.7	4	-1E+10	1	-1E+10	1	-1E+10	1	-1E+10	1	-1E+10	1	-1E+10	1
4901784	127	C	12/26/2018	10:43	-133.264	43.148	0	625.20	0	4.3480	0	34.4580	8	27.323	0	619.296	0	23.6	4	7.5	4	-1E+10	1	-1E+10	1	-1E+10	1	-1E+10	1	-1E+10	1	-1E+10	1
4901784	127	C	12/26/2018	10:43	-133.264	43.148	0	630.20	0	4.3360	0	34.4610	8	27.327	0	624.241	0	23.1	4	7.4	4	-1E+10	1	-1E+10	1	-1E+10	1	-1E+10	1	-1E+10	1	-1E+10	1
4901784	127	C	12/26/2018	10:43	-133.264	43.148	0	635.30	0	4.3230	0	34.4650	8	27.332	0	629.285	0	22.5	4	7.2	4	-1E+10	1	-1E+10	1	-1E+10	1	-1E+10	1	-1E+10	1	-1E+10	1
4901784	127	C	12/26/2018	10:43	-133.264	43.148	0	640.40	0	4.3100	0	34.4700	8	27.337	0	634.329	0	21.8	4	6.9	4	-1E+10	1	-1E+10	1	-1E+10	1	-1E+10	1	-1E+10	1	-1E+10	1
4901784	127	C	12/26/2018	10:43	-133.264	43.148	0	645.60	0	4.2930	0	34.4750	8	27.343	0	639.472	0	21.2	4	6.8	4	-1E+10	1	-1E+10	1	-1E+10	1	-1E+10	1	-1E+10	1	-1E+10	1
4901784	127	C	12/26/2018	10:43	-133.264	43.148	0	650.70	0	4.2820	0	34.4790	8	27.347	0	644.516	0	20.6	4	6.6	4	-1E+10	1	-1E+10	1	-1E+10	1	-1E+10	1	-1E+10	1	-1E+10	1
4901784	127	C	12/26/2018	10:43	-133.264	43.148	0	655.10	0	4.2760	0	34.4820	8	27.350	0	648.867	0	20.1	4	6.4	4	-1E+10	1	-1E+10	1	-1E+10	1	-1E+10	1	-1E+10	1	-1E+10	1
4901784	127	C	12/26/2018	10:43	-133.264	43.148	0	659.50	0	4.2620	0	34.4880	8	27.357	0	653.218	0	19.6	4	6.2	4	-1E+10	1	-1E+10	1	-1E+10	1	-1E+10	1	-1E+10	1	-1E+10	1
4901784	127	C	12/26/2018	10:43	-133.264	43.148	0	664.80	0	4.2470	0	34.4930	8	27.362	0	658.460	0	19.0	4	6.1	4	-1E+10	1	-1E+10	1	-1E+10	1	-1E+10	1	-1E+10	1	-1E+10	1
4901784	127	C	12/26/2018	10:43	-133.264	43.148	0	670.10	0	4.2350	0	34.4970	8	27.367	0	663.701	0	18.4	4	5.9	4	-1E+10	1	-1E+10	1	-1E+10	1	-1E+10	1	-1E+10	1	-1E+10	1
4901784	127	C	12/26/2018	10:43	-133.264	43.148	0	675.40	0	4.2180	0	34.5040	8	27.374	0	668.941	0	17.8	4	5.6	4	-1E+10	1	-1E+10	1	-1E+10	1	-1E+10	1	-1E+10	1	-1E+10	1
4901784	127	C	12/26/2018	10:43	-133.264	43.148	0	680.70	0	4.2020	0	34.5100	8	27.381	0	674.182	0	17.1	4	5.4	4	-1E+10	1	-1E+10	1	-1E+10	1	-1E+10	1	-1E+10	1	-1E+10	1
4901784	127	C	12/26/2018	10:43	-133.264	43.148	0	685.20	0	4.1860	0	34.5170	8	27.388	0	678.632	0	16.7	4	5.3	4	-1E+10	1	-1E+10	1	-1E+10	1	-1E+10	1	-1E+10	1	-1E+10	1
4901784	127	C	12/26/2018	10:43	-133.264	43.148	0	689.80	0	4.1790	0	34.5190	8	27.390	0	683.180	0	16.3	4	5.2	4	-1E+10	1	-1E+10	1	-1E+10	1	-1E+10	1	-1E+10	1	-1E+10	1
4901784	127	C	12/26/2018	10:43	-133.264	43.148	0	695.30	0	4.1620	0	34.5260	8	27.398	0	688.618	0	15.8	4	5.0	4	-1E+10	1	-1E+10	1	-1E+10	1	-1E+10	1	-1E+10	1	-1E+10	1
4901784	127	C	12/26/2018	10:43	-133.264	43.148	0	700.00	0	4.1520	0	34.5300	8	27.402	0	693.265	0	15.6	4	5.0	4	-1E+10	1	-1E+10	1	-1E+10	1	-1E+10	1	-1E+10	1	-1E+10	1
4901784	127	C	12/26/2018	10:43	-133.264	43.148	0	704.60	0	4.1300	0	34.5310	8	27.405	0	697.813	0	15.3	4	4.8	4	-1E+10	1	-1E+10	1	-1E+10	1	-1E+10	1	-1E+10	1	-1E+10	1
4901784	127	C	12/26/2018	10:43	-133.264	43.148	0	710.20	0	4.1070	0	34.5390	8	27.414	0	703.350	0	14.8	4	4.7	4	-1E+10	1	-1E+10	1	-1E+10	1	-1E+10	1	-1E+10	1	-1E+10	1
4901784	127	C	12/26/2018	10:43	-133.264	43.148	0	714.90	0	4.0860	0	34.5440	8	27.420	0	707.997	0	14.6	4	4.6	4	-1E+10	1	-1E+10	1	-1E+10	1	-1E+10	1	-1E+10	1	-1E+10	1
4901784	127	C	12/26/2018	10:43	-133.264	43.148	0	719.60	0	4.0750	0	34.5490	8	27.425	0	712.643	0	14.4	4	4.6	4	-1E+10	1	-1E+10	1	-1E+10	1	-1E+10	1	-1E+10	1	-1E+10	1
4901784	127	C	12/26/2018	10:43	-133.264	43.148	0	725.30	0	4.0580	0	34.5500	8	27.428	0	718.278	0	14.3	4	4.5	4	-1E+10	1	-1E+10	1	-1E+10	1	-1E+10	1	-1E+10	1	-1E+10	1
4901784	127	C	12/26/2018	10:43	-133.264	43.148	0	729.90	0	4.0500	0	34.5510	8	27.430	0	722.826	0	14.2	4	4.5	4	-1E+10	1	-1E+10	1	-1E+10	1	-1E+10	1	-1E+10	1	-1E+10	1
4901784	127	C	12/26/2018	10:43	-133.264	43.148	0	734.50	0	4.0320	0	34.5560	8	27.435	0	727.373	0	14.0	4	4.4	4	-1E+10	1	-1E+10	1	-1E+10	1	-1E+10	1	-1E+10	1	-1E+10	1
4901784	127	C	12/26/2018	10:43	-133.264	43.148	0	739.90	0	4.0180	0	34.5580	8	27.438	0	732.711	0	13.8	4	4.4	4	-1E+10	1	-1E+10	1	-1E+10	1	-1E+10	1	-1E+10	1	-1E+10	1
4901784	127	C	12/26/2018	10:43	-133.264	43.148	0	745.00	0	4.0020	0	34.5640	8	27.445	0	737.753	0	13.5	4	4.3	4	-1E+10	1	-1E+10	1	-1E+10	1	-1E+10	1	-1E+10	1	-1E+10	1
4901784	127	C	12/26/2018	10:43	-133.264	43.148	0	750.70	0	3.9900	0	34.5700	8	27.451	0	743.387	0	13.2	4	4.2	4	-1E+10	1	-1E+10	1	-1E+10	1	-1E+10	1	-1E+10	1	-1E+10	1
4901784	127	C	12/26/2018	10:43	-133.264	43.148	0	755.70	0	3.9760	0	34.5740	8	27.456	0	748.330	0	13.0	4	4.1	4	-1E+10	1	-1E+10	1	-1E+10	1	-1E+10	1	-1E+10	1	-1E+10	1
4901784	127	C	12/26/2018	10:43	-133.264	43.148	0	760.70	0	3.9650	0	34.5780	8	27.460	0	753.272	0	12.8	4	4.1	4	-1E+10	1	-1E+10	1	-1E+10	1	-1E+10	1	-1E+10	1	-1E+10	1
4901784	127	C	12/26/2018	10:43	-133.264	43.148	0	765.70	0	3.9490	0	34.5810	8	27.464	0	758.214	0	12.7	4	4.0	4	-1E+10	1	-1E+10	1	-1E+10	1	-1E+10	1	-1E+10	1	-1E+10	1
4901784	127	C	12/26/2018	10:43	-133.264	43.148	0	770.70	0	3.9310	0	34.5840	8	27.468	0	763.156	0	12.5	4	4.0	4	-1E+10	1	-1E+10	1	-1E+10	1	-1E+10	1	-1E+10	1	-1E+10	1
4901784	127	C	12/26/2018	10:43	-133.264	43.148	0	775.00	0	3.9280	0	34.5880	8	27.472	0	767.406	0	12.4	4	3.9	4	-1E+10	1	-1E+10	1	-1E+10	1	-1E+10	1	-1E+10	1	-1E+10	1
4901784	127	C	12/26/2018	10:43	-133.264	43.148	0	779.20	0	3.9260	0	34.5880	8	27.472	0	771.557	0	12.3	4	3.9	4	-1E+10	1	-1E+10	1	-1E+10	1	-1E+10	1	-1E+10	1	-1E+10	1
4901784	127	C	12/26/2018	10:43	-133.264	43.148	0	784.20	0	3.9020	0	34.5940	8	27.479	0	776.499	0	12.1	4	3.8	4	-1E+10	1	-1E+10	1	-1E+10	1	-1E+10	1	-1E+10	1	-1E+10	1
4901784	127	C	12/26/2018	10:43	-133.264	43.148	0	789.40	0	3.8860	0	34.5980	8	27.484	0	781.638	0	12.0	4	3.8	4	-1E+10	1	-1E+10	1	-1E+10	1	-1E+10	1	-1E+10	1	-1E+10	1
4901784	127	C	12/26/2018	10:43	-133.264	43.148	0	794.50	0	3.8770	0	34.5990	8	27.486	0	786.678	0	12.0	4	3.8	4	-1E+10	1	-1E+10	1	-1E+10	1	-1E+10	1	-1E+10	1	-1E+10	1
4901784	127	C	12/26/2018	10:43	-133.264	43.148	0	799.80	0	3.8640	0	34.6020	8	27.490	0	791.916	0	11.8	4	3.7	4	-1E+10	1	-1E+10	1	-1E+10	1	-1E+10	1	-1E+10	1	-1E+10	1
4901784	127	C	12/26/2018	10:43	-133.264	43.148	0	805.00	0	3.8470	0	34.6070	8	27.495	0	797.055	0	11.7	4	3.7	4	-1E+10	1	-1E+10	1	-1E+10	1	-1E+10	1	-1E+10	1	-1E+10	1
4901784	127	C	12/26/2018	10:43	-133.264	43.148	0	810.20	0	3.8290	0	34.6110	8	27.500	0	802.193	0	11.6	4	3.7	4	-1E+10	1	-1E+10	1	-1E+10	1	-1E+10	1	-1E+10	1	-1E+10	1
4901784	127	C	12/26/2018	10:43	-133.264	43.148	0	815.50	0	3.8190	0	34.6130	8	27.503	0	807.431	0	11.5	4	3.6	4	-1E+10	1	-1E+10	1	-1E+10	1	-1E+10	1	-1E+10	1	-1E+10	1
4901784	127	C	12/26/2018	10:43	-133.264	43.148	0	819.90	0	3.8080	0	34.6150	8	27.506	0	811.779	0	11.5	4	3.6	4	-1E+10	1	-1E+10	1	-1E+10	1	-1E+10	1	-1E+10	1	-1E+10	1
4901784	127	C	12/26/2018	10:43	-133.264	43.148	0	824.30	0	3.8010	0	34.6180	8	27.509	0	816.126	0	11.4	4	3.6	4	-1E+10	1	-1E+10	1	-1E+10	1	-1E+10	1	-1E+10	1	-1E+10	1
4901784	127	C	12/26/2018	10:43	-133.264	43.148	0	829.70	0	3.7960	0	34.6200	8	27.511	0	821.462	0	11.3	4	3.6	4	-1E+10	1	-1E+10	1	-1E+10	1	-1E+10	1	-1E+10	1	-1E+10	1
4901784	127	C	12/26/2018	10:43	-133.264	43.148	0	835.10	0	3.7880	0	34.6220	8	27.513	0	826.798	0	11.2	4	3.5	4	-1E+10	1	-1E+10	1	-1E+10	1	-1E+10	1	-1E+10	1	-1E+10	1
4901784	127	C	12/26/2018	10:43	-133.264	43.148	0	840.50	0	3.7800	0	34.6250	8	27.517	0	832.134	0	11.2	4	3.5	4	-1E+10	1	-1E+10	1	-1E+10	1	-1E+10	1	-1E+10	1	-1E+10	1
4901784	127	C	12/26/2018	10:43	-133.264	43.148	0	845.10	0	3.7690	0	34.6280	8	27.520	0	836.679	0	11.1	4	3.5	4	-1E+10	1	-1E+10	1	-1E+10	1	-1E+10	1	-1E+10	1	-1E+10	1
4901784	127	C	12/26/2018	10:43	-133.264	43.148	0	850.10	0	3.7600	0	34.6310	8	27.524	0	841.619	0	11.0	4	3.5	4	-1E+10	1	-1E+10	1	-1E+10	1	-1E+10	1	-1E+10	1	-1E+10	1
4901784	127	C	12/26/2018	10:43	-133.264	43.148	0	855.60	0	3.7540	0	34.6330	8	27.526	0	847.053	0	11.0	4	3.4	4	-1E+10	1	-1E+10	1	-1E+10	1	-1E+10	1	-1E+10	1	-1E+10	1
4901784	127	C	12/26/2018	10:43	-133.264	43.148	0	860.30	0	3.7480	0	34.6350	8	27.528	0	851.696	0	10.9	4	3.4	4	-1E+10	1	-1E+10	1	-1E+10	1	-1E+10	1	-1E+10	1	-1E+10	1
4901784	127	C	12/26/2018	10:43	-133.264	43.148	0	865.20	0	3.7380	0	34.6400	8	27.533	0	856.537	0	10.8	4	3.4	4	-1E+10	1	-1E+10	1	-1E+10	1	-1E+10	1	-1E+10	1	-1E+10	1
4901784	127	C	12/26/2018	10:43	-133.264	43.148	0	870.00	0	3.7320	0	34.6420	8	27.535	0	861.279	0	10.7	4	3.4	4	-1E+10	1	-1E+10	1	-1E+10	1	-1E+10	1	-1E+10	1	-1E+10	1
4901784	127	C	12/26/2018	10:43	-133.264	43.148	0	874.90	0	3.7260	0	34.6450	8	27.538	0	866.120	0	10.7	4	3.4	4	-1E+10	1	-1E+10	1	-1E+10	1	-1E+10	1	-1E+10	1	-1E+10	1
4901784	127	C	12/26/2018	10:43	-133.264	43.148	0	879.90	0	3.7180	0	34.6480	8	27.542	0	871.059	0	10.6	4	3.3	4	-1E+10	1	-1E+10	1	-1E+10	1	-1E+10	1	-1E+10	1	-1E+10	1
4901784	127	C	12/26/2018	10:43	-133.264	43.148	0	884.80	0	3.7100	0	34.6500	8	27.544	0	875.900	0	10.6	4	3.3	4	-1E+10	1	-1E+10	1	-1E+10	1	-1E+10	1	-1E+10	1	-1E+10	1
4901784	127	C	12/26/2018	10:43	-133.264	43.148	0	889.70	0	3.7040	0	34.6520	8	27.546	0	880.740	0	10.5	4	3.3	4	-1E+10	1	-1E+10	1	-1E+10	1	-1E+10	1	-1E+10	1	-1E+10	1
4901784	127	C	12/26/2018	10:43	-133.264	43.148	0	894.80	0	3.6980	0	34.6540	8	27.548	0	885.778	0	10.5	4	3.3	4	-1E+10	1	-1E+10	1	-1E+10	1	-1E+10	1	-1E+10	1	-1E+10	1
4901784	127	C	12/26/2018	10:43	-133.264	43.148	0	899.80	0	3.6860	0	34.6580	8	27.553	0	890.717	0	10.4	4	3.3	4	-1E+10	1	-1E+10	1	-1E+10	1	-1E+10	1	-1E+10	1	-1E+10	1
4901784	127	C	12/26/2018	10:43	-133.264	43.148	0	904.80	0	3.6770	0	34.6620	8	27.557	0	895.656	0	10.4	4	3.3	4	-1E+10	1	-1E+10	1	-1E+10	1	-1E+10	1	-1E+10	1	-1E+10	1
4901784	127	C	12/26/2018	10:43	-133.264	43.148	0	909.90	0	3.6660	0	34.6660	8	27.561	0	900.693	0	10.4	4	3.3	4	-1E+10	1	-1E+10	1	-1E+10	1	-1E+10	1	-1E+10	1	-1E+10	1
4901784	127	C	12/26/2018	10:43	-133.264	43.148	0	915.00	0	3.6570	0	34.6680	8	27.564	0	905.731	0	10.4	4	3.3	4	-1E+10	1	-1E+10	1	-1E+10	1	-1E+10	1	-1E+10	1	-1E+10	1
4901784	127	C	12/26/2018	10:43	-133.264	43.148	0	920.10	0	3.6460	0	34.6720	8	27.568	0	910.768	0	10.4	4	3.3	4	-1E+10	1	-1E+10	1	-1E+10	1	-1E+10	1	-1E+10	1	-1E+10	1
4901784	127	C	12/26/2018	10:43	-133.264	43.148	0	925.30	0	3.6420	0	34.6740	8	27.570	0	915.904	0	10.3	4	3.3	4	-1E+10	1	-1E+10	1	-1E+10	1	-1E+10	1	-1E+10	1	-1E+10	1
4901784	127	C	12/26/2018	10:43	-133.264	43.148	0	930.50	0	3.6340	0	34.6760	8	27.573	0	921.040	0	10.3	4	3.3	4	-1E+10	1	-1E+10	1	-1E+10	1	-1E+10	1	-1E+10	1	-1E+10	1
4901784	127	C	12/26/2018	10:43	-133.264	43.148	0	935.80	0	3.6260	0	34.6770	8	27.574	0	926.274	0	10.4	4	3.3	4	-1E+10	1	-1E+10	1	-1E+10	1	-1E+10	1	-1E+10	1	-1E+10	1
4901784	127	C	12/26/2018	10:43	-133.264	43.148	0	940.10	0	3.6120	0	34.6820	8	27.580	0	930.521	0	10.4	4	3.3	4	-1E+10	1	-1E+10	1	-1E+10	1	-1E+10	1	-1E+10	1	-1E+10	1
4901784	127	C	12/26/2018	10:43	-133.264	43.148	0	944.50	0	3.5980	0	34.6840	8	27.583	0	934.866	0	10.4	4	3.3	4	-1E+10	1	-1E+10	1	-1E+10	1	-1E+10	1	-1E+10	1	-1E+10	1
4901784	127	C	12/26/2018	10:43	-133.264	43.148	0	949.70	0	3.5840	0	34.6870	8	27.586	0	940.001	0	10.4	4	3.3	4	-1E+10	1	-1E+10	1	-1E+10	1	-1E+10	1	-1E+10	1	-1E+10	1
4901784	127	C	12/26/2018	10:43	-133.264	43.148	0	954.90	0	3.5710	0	34.6900	8	27.590	0	945.137	0	10.5	4	3.3	4	-1E+10	1	-1E+10	1	-1E+10	1	-1E+10	1	-1E+10	1	-1E+10	1
4901784	127	C	12/26/2018	10:43	-133.264	43.148	0	960.10	0	3.5660	0	34.6940	8	27.594	0	950.272	0	10.5	4	3.3	4	-1E+10	1	-1E+10	1	-1E+10	1	-1E+10	1	-1E+10	1	-1E+10	1
4901784	127	C	12/26/2018	10:43	-133.264	43.148	0	965.40	0	3.5580	0	34.6960	8	27.596	0	955.505	0	10.6	4	3.3	4	-1E+10	1	-1E+10	1	-1E+10	1	-1E+10	1	-1E+10	1	-1E+10	1
4901784	127	C	12/26/2018	10:43	-133.264	43.148	0	969.90	0	3.5460	0	34.6980	8	27.599	0	959.949	0	10.6	4	3.3	4	-1E+10	1	-1E+10	1	-1E+10	1	-1E+10	1	-1E+10	1	-1E+10	1
4901784	127	C	12/26/2018	10:43	-133.264	43.148	0	974.30	0	3.5410	0	34.7000	8	27.601	0	964.294	0	10.7	4	3.3	4	-1E+10	1	-1E+10	1	-1E+10	1	-1E+10	1	-1E+10	1	-1E+10	1
4901784	127	C	12/26/2018	10:43	-133.264	43.148	0	979.80	0	3.5270	0	34.7030	8	27.605	0	969.724	0	10.7	4	3.4	4	-1E+10	1	-1E+10	1	-1E+10	1	-1E+10	1	-1E+10	1	-1E+10	1
4901784	127	C	12/26/2018	10:43	-133.264	43.148	0	985.20	0	3.5160	0	34.7050	8	27.608	0	975.056	0	10.8	4	3.4	4	-1E+10	1	-1E+10	1	-1E+10	1	-1E+10	1	-1E+10	1	-1E+10	1
4901784	127	C	12/26/2018	10:43	-133.264	43.148	0	990.60	0	3.5080	0	34.7070	8	27.610	0	980.388	0	10.8	4	3.4	4	-1E+10	1	-1E+10	1	-1E+10	1	-1E+10	1	-1E+10	1	-1E+10	1
4901784	127	C	12/26/2018	10:43	-133.264	43.148	0	995.00	0	3.5000	0	34.7090	8	27.612	0	984.732	0	10.9	4	3.4	4	-1E+10	1	-1E+10	1	-1E+10	1	-1E+10	1	-1E+10	1	-1E+10	1
4901784	127	C	12/26/2018	10:43	-133.264	43.148	0	999.50	0	3.4900	0	34.7100	8	27.614	0	989.175	0	10.9	4	3.4	4	-1E+10	1	-1E+10	1	-1E+10	1	-1E+10	1	-1E+10	1	-1E+10	1
4901784	127	C	12/26/2018	10:43	-133.264	43.148	0	1004.90	0	3.4740	0	34.7140	8	27.619	0	994.507	0	11.0	4	3.4	4	-1E+10	1	-1E+10	1	-1E+10	1	-1E+10	1	-1E+10	1	-1E+10	1
4901784	127	C	12/26/2018	10:43	-133.264	43.148	0	1010.30	0	3.4600	0	34.7170	8	27.623	0	999.838	0	11.0	4	3.5	4	-1E+10	1	-1E+10	1	-1E+10	1	-1E+10	1	-1E+10	1	-1E+10	1
4901784	127	C	12/26/2018	10:43	-133.264	43.148	0	1014.90	0	3.4500	0	34.7190	8	27.625	0	1004.379	0	11.1	4	3.5	4	-1E+10	1	-1E+10	1	-1E+10	1	-1E+10	1	-1E+10	1	-1E+10	1
4901784	127	C	12/26/2018	10:43	-133.264	43.148	0	1019.40	0	3.4420	0	34.7200	8	27.627	0	1008.822	0	11.1	4	3.5	4	-1E+10	1	-1E+10	1	-1E+10	1	-1E+10	1	-1E+10	1	-1E+10	1
4901784	127	C	12/26/2018	10:43	-133.264	43.148	0	1024.80	0	3.4320	0	34.7220	8	27.629	0	1014.153	0	11.1	4	3.5	4	-1E+10	1	-1E+10	1	-1E+10	1	-1E+10	1	-1E+10	1	-1E+10	1
4901784	127	C	12/26/2018	10:43	-133.264	43.148	0	1030.10	0	3.4180	0	34.7230	8	27.632	0	1019.385	0	11.1	4	3.5	4	-1E+10	1	-1E+10	1	-1E+10	1	-1E+10	1	-1E+10	1	-1E+10	1
4901784	127	C	12/26/2018	10:43	-133.264	43.148	0	1035.40	0	3.4060	0	34.7250	8	27.634	0	1024.617	0	11.1	4	3.5	4	-1E+10	1	-1E+10	1	-1E+10	1	-1E+10	1	-1E+10	1	-1E+10	1
4901784	127	C	12/26/2018	10:43	-133.264	43.148	0	1039.80	0	3.4010	0	34.7270	8	27.637	0	1028.960	0	11.1	4	3.5	4	-1E+10	1	-1E+10	1	-1E+10	1	-1E+10	1	-1E+10	1	-1E+10	1
4901784	127	C	12/26/2018	10:43	-133.264	43.148	0	1044.30	0	3.3970	0	34.7280	8	27.638	0	1033.402	0	11.2	4	3.5	4	-1E+10	1	-1E+10	1	-1E+10	1	-1E+10	1	-1E+10	1	-1E+10	1
4901784	127	C	12/26/2018	10:43	-133.264	43.148	0	1049.60	0	3.3910	0	34.7290	8	27.639	0	1038.634	0	11.3	4	3.5	4	-1E+10	1	-1E+10	1	-1E+10	1	-1E+10	1	-1E+10	1	-1E+10	1
4901784	127	C	12/26/2018	10:43	-133.264	43.148	0	1055.00	0	3.3780	0	34.7330	8	27.644	0	1043.964	0	11.4	4	3.6	4	-1E+10	1	-1E+10	1	-1E+10	1	-1E+10	1	-1E+10	1	-1E+10	1
4901784	127	C	12/26/2018	10:43	-133.264	43.148	0	1060.40	0	3.3720	0	34.7340	8	27.645	0	1049.294	0	11.4	4	3.6	4	-1E+10	1	-1E+10	1	-1E+10	1	-1E+10	1	-1E+10	1	-1E+10	1
4901784	127	C	12/26/2018	10:43	-133.264	43.148	0	1064.90	0	3.3610	0	34.7360	8	27.648	0	1053.735	0	11.5	4	3.6	4	-1E+10	1	-1E+10	1	-1E+10	1	-1E+10	1	-1E+10	1	-1E+10	1
4901784	127	C	12/26/2018	10:43	-133.264	43.148	0	1069.40	0	3.3540	0	34.7370	8	27.649	0	1058.177	0	11.6	4	3.6	4	-1E+10	1	-1E+10	1	-1E+10	1	-1E+10	1	-1E+10	1	-1E+10	1
4901784	127	C	12/26/2018	10:43	-133.264	43.148	0	1074.80	0	3.3450	0	34.7390	8	27.652	0	1063.507	0	11.7	4	3.7	4	-1E+10	1	-1E+10	1	-1E+10	1	-1E+10	1	-1E+10	1	-1E+10	1
4901784	127	C	12/26/2018	10:43	-133.264	43.148	0	1080.30	0	3.3390	0	34.7410	8	27.654	0	1068.935	0	11.8	4	3.7	4	-1E+10	1	-1E+10	1	-1E+10	1	-1E+10	1	-1E+10	1	-1E+10	1
4901784	127	C	12/26/2018	10:43	-133.264	43.148	0	1084.90	0	3.3300	0	34.7420	8	27.656	0	1073.475	0	11.9	4	3.7	4	-1E+10	1	-1E+10	1	-1E+10	1	-1E+10	1	-1E+10	1	-1E+10	1
4901784	127	C	12/26/2018	10:43	-133.264	43.148	0	1090.00	0	3.3170	0	34.7460	8	27.660	0	1078.508	0	12.1	4	3.8	4	-1E+10	1	-1E+10	1	-1E+10	1	-1E+10	1	-1E+10	1	-1E+10	1
4901784	127	C	12/26/2018	10:43	-133.264	43.148	0	1095.60	0	3.3000	0	34.7490	8	27.664	0	1084.034	0	12.3	4	3.8	4	-1E+10	1	-1E+10	1	-1E+10	1	-1E+10	1	-1E+10	1	-1E+10	1
4901784	127	C	12/26/2018	10:43	-133.264	43.148	0	1100.30	0	3.2880	0	34.7510	8	27.667	0	1088.673	0	12.4	4	3.9	4	-1E+10	1	-1E+10	1	-1E+10	1	-1E+10	1	-1E+10	1	-1E+10	1
4901784	127	C	12/26/2018	10:43	-133.264	43.148	0	1105.10	0	3.2800	0	34.7520	8	27.668	0	1093.409	0	12.4	4	3.9	4	-1E+10	1	-1E+10	1	-1E+10	1	-1E+10	1	-1E+10	1	-1E+10	1
4901784	127	C	12/26/2018	10:43	-133.264	43.148	0	1110.00	0	3.2700	0	34.7540	8	27.671	0	1098.245	0	12.5	4	3.9	4	-1E+10	1	-1E+10	1	-1E+10	1	-1E+10	1	-1E+10	1	-1E+10	1
4901784	127	C	12/26/2018	10:43	-133.264	43.148	0	1115.00	0	3.2610	0	34.7560	8	27.673	0	1103.179	0	12.7	4	3.9	4	-1E+10	1	-1E+10	1	-1E+10	1	-1E+10	1	-1E+10	1	-1E+10	1
4901784	127	C	12/26/2018	10:43	-133.264	43.148	0	1120.30	0	3.2550	0	34.7570	8	27.675	0	1108.408	0	12.7	4	4.0	4	-1E+10	1	-1E+10	1	-1E+10	1	-1E+10	1	-1E+10	1	-1E+10	1
4901784	127	C	12/26/2018	10:43	-133.264	43.148	0	1125.60	0	3.2460	0	34.7580	8	27.677	0	1113.638	0	12.9	4	4.0	4	-1E+10	1	-1E+10	1	-1E+10	1	-1E+10	1	-1E+10	1	-1E+10	1
4901784	127	C	12/26/2018	10:43	-133.264	43.148	0	1130.00	0	3.2390	0	34.7600	8	27.679	0	1117.980	0	13.0	4	4.0	4	-1E+10	1	-1E+10	1	-1E+10	1	-1E+10	1	-1E+10	1	-1E+10	1
4901784	127	C	12/26/2018	10:43	-133.264	43.148	0	1134.50	0	3.2270	0	34.7610	8	27.681	0	1122.420	0	13.1	4	4.1	4	-1E+10	1	-1E+10	1	-1E+10	1	-1E+10	1	-1E+10	1	-1E+10	1
4901784	127	C	12/26/2018	10:43	-133.264	43.148	0	1139.90	0	3.2160	0	34.7640	8	27.684	0	1127.748	0	13.2	4	4.1	4	-1E+10	1	-1E+10	1	-1E+10	1	-1E+10	1	-1E+10	1	-1E+10	1
4901784	127	C	12/26/2018	10:43	-133.264	43.148	0	1145.30	0	3.2090	0	34.7650	8	27.686	0	1133.076	0	13.3	4	4.1	4	-1E+10	1	-1E+10	1	-1E+10	1	-1E+10	1	-1E+10	1	-1E+10	1
4901784	127	C	12/26/2018	10:43	-133.264	43.148	0	1149.80	0	3.2030	0	34.7660	8	27.687	0	1137.515	0	13.3	4	4.1	4	-1E+10	1	-1E+10	1	-1E+10	1	-1E+10	1	-1E+10	1	-1E+10	1
4901784	127	C	12/26/2018	10:43	-133.264	43.148	0	1154.30	0	3.1960	0	34.7660	8	27.688	0	1141.955	0	13.4	4	4.2	4	-1E+10	1	-1E+10	1	-1E+10	1	-1E+10	1	-1E+10	1	-1E+10	1
4901784	127	C	12/26/2018	10:43	-133.264	43.148	0	1159.70	0	3.1840	0	34.7680	8	27.691	0	1147.283	0	13.5	4	4.2	4	-1E+10	1	-1E+10	1	-1E+10	1	-1E+10	1	-1E+10	1	-1E+10	1
4901784	127	C	12/26/2018	10:43	-133.264	43.148	0	1165.20	0	3.1750	0	34.7700	8	27.693	0	1152.709	0	13.7	4	4.3	4	-1E+10	1	-1E+10	1	-1E+10	1	-1E+10	1	-1E+10	1	-1E+10	1
4901784	127	C	12/26/2018	10:43	-133.264	43.148	0	1169.80	0	3.1680	0	34.7710	8	27.695	0	1157.247	0	13.8	4	4.3	4	-1E+10	1	-1E+10	1	-1E+10	1	-1E+10	1	-1E+10	1	-1E+10	1
4901784	127	C	12/26/2018	10:43	-133.264	43.148	0	1174.30	0	3.1560	0	34.7730	8	27.697	0	1161.686	0	14.0	4	4.3	4	-1E+10	1	-1E+10	1	-1E+10	1	-1E+10	1	-1E+10	1	-1E+10	1
4901784	127	C	12/26/2018	10:43	-133.264	43.148	0	1179.70	0	3.1460	0	34.7750	8	27.700	0	1167.013	0	14.1	4	4.4	4	-1E+10	1	-1E+10	1	-1E+10	1	-1E+10	1	-1E+10	1	-1E+10	1
4901784	127	C	12/26/2018	10:43	-133.264	43.148	0	1185.20	0	3.1370	0	34.7760	8	27.701	0	1172.438	0	14.2	4	4.4	4	-1E+10	1	-1E+10	1	-1E+10	1	-1E+10	1	-1E+10	1	-1E+10	1
4901784	127	C	12/26/2018	10:43	-133.264	43.148	0	1189.80	0	3.1250	0	34.7770	8	27.703	0	1176.976	0	14.3	4	4.5	4	-1E+10	1	-1E+10	1	-1E+10	1	-1E+10	1	-1E+10	1	-1E+10	1
4901784	127	C	12/26/2018	10:43	-133.264	43.148	0	1194.40	0	3.1130	0	34.7780	8	27.705	0	1181.514	0	14.4	4	4.5	4	-1E+10	1	-1E+10	1	-1E+10	1	-1E+10	1	-1E+10	1	-1E+10	1
4901784	127	C	12/26/2018	10:43	-133.264	43.148	0	1200.00	0	3.1020	0	34.7800	8	27.708	0	1187.037	0	14.6	4	4.5	4	-1E+10	1	-1E+10	1	-1E+10	1	-1E+10	1	-1E+10	1	-1E+10	1
4901784	127	C	12/26/2018	10:43	-133.264	43.148	0	1205.60	0	3.0940	0	34.7820	8	27.710	0	1192.561	0	14.7	4	4.5	4	-1E+10	1	-1E+10	1	-1E+10	1	-1E+10	1	-1E+10	1	-1E+10	1
4901784	127	C	12/26/2018	10:43	-133.264	43.148	0	1210.20	0	3.0860	0	34.7830	8	27.712	0	1197.098	0	14.8	4	4.6	4	-1E+10	1	-1E+10	1	-1E+10	1	-1E+10	1	-1E+10	1	-1E+10	1
4901784	127	C	12/26/2018	10:43	-133.264	43.148	0	1214.80	0	3.0780	0	34.7840	8	27.713	0	1201.635	0	14.9	4	4.6	4	-1E+10	1	-1E+10	1	-1E+10	1	-1E+10	1	-1E+10	1	-1E+10	1
4901784	127	C	12/26/2018	10:43	-133.264	43.148	0	1220.30	0	3.0710	0	34.7850	8	27.715	0	1207.060	0	15.1	4	4.7	4	-1E+10	1	-1E+10	1	-1E+10	1	-1E+10	1	-1E+10	1	-1E+10	1
4901784	127	C	12/26/2018	10:43	-133.264	43.148	0	1225.10	0	3.0620	0	34.7860	8	27.717	0	1211.794	0	15.2	4	4.7	4	-1E+10	1	-1E+10	1	-1E+10	1	-1E+10	1	-1E+10	1	-1E+10	1
4901784	127	C	12/26/2018	10:43	-133.264	43.148	0	1229.90	0	3.0500	0	34.7880	8	27.719	0	1216.528	0	15.4	4	4.8	4	-1E+10	1	-1E+10	1	-1E+10	1	-1E+10	1	-1E+10	1	-1E+10	1
4901784	127	C	12/26/2018	10:43	-133.264	43.148	0	1235.60	0	3.0420	0	34.7900	8	27.722	0	1222.149	0	15.5	4	4.8	4	-1E+10	1	-1E+10	1	-1E+10	1	-1E+10	1	-1E+10	1	-1E+10	1
4901784	127	C	12/26/2018	10:43	-133.264	43.148	0	1240.30	0	3.0360	0	34.7910	8	27.723	0	1226.785	0	15.6	4	4.8	4	-1E+10	1	-1E+10	1	-1E+10	1	-1E+10	1	-1E+10	1	-1E+10	1
4901784	127	C	12/26/2018	10:43	-133.264	43.148	0	1244.80	0	3.0290	0	34.7910	8	27.724	0	1231.222	0	15.8	4	4.9	4	-1E+10	1	-1E+10	1	-1E+10	1	-1E+10	1	-1E+10	1	-1E+10	1
4901784	127	C	12/26/2018	10:43	-133.264	43.148	0	1250.00	0	3.0200	0	34.7930	8	27.726	0	1236.350	0	16.0	4	4.9	4	-1E+10	1	-1E+10	1	-1E+10	1	-1E+10	1	-1E+10	1	-1E+10	1
4901784	127	C	12/26/2018	10:43	-133.264	43.148	0	1255.30	0	3.0050	0	34.7940	8	27.728	0	1241.577	0	16.2	4	5.0	4	-1E+10	1	-1E+10	1	-1E+10	1	-1E+10	1	-1E+10	1	-1E+10	1
4901784	127	C	12/26/2018	10:43	-133.264	43.148	0	1260.60	0	2.9920	0	34.7960	8	27.731	0	1246.803	0	16.4	4	5.1	4	-1E+10	1	-1E+10	1	-1E+10	1	-1E+10	1	-1E+10	1	-1E+10	1
4901784	127	C	12/26/2018	10:43	-133.264	43.148	0	1265.00	0	2.9870	0	34.7980	8	27.733	0	1251.142	0	16.5	4	5.1	4	-1E+10	1	-1E+10	1	-1E+10	1	-1E+10	1	-1E+10	1	-1E+10	1
4901784	127	C	12/26/2018	10:43	-133.264	43.148	0	1269.40	0	2.9800	0	34.7980	8	27.734	0	1255.481	0	16.6	4	5.1	4	-1E+10	1	-1E+10	1	-1E+10	1	-1E+10	1	-1E+10	1	-1E+10	1
4901784	127	C	12/26/2018	10:43	-133.264	43.148	0	1274.70	0	2.9660	0	34.8000	8	27.737	0	1260.707	0	16.8	4	5.2	4	-1E+10	1	-1E+10	1	-1E+10	1	-1E+10	1	-1E+10	1	-1E+10	1
4901784	127	C	12/26/2018	10:43	-133.264	43.148	0	1280.10	0	2.9550	0	34.8010	8	27.739	0	1266.031	0	17.0	4	5.3	4	-1E+10	1	-1E+10	1	-1E+10	1	-1E+10	1	-1E+10	1	-1E+10	1
4901784	127	C	12/26/2018	10:43	-133.264	43.148	0	1285.50	0	2.9450	0	34.8020	8	27.740	0	1271.356	0	17.2	4	5.3	4	-1E+10	1	-1E+10	1	-1E+10	1	-1E+10	1	-1E+10	1	-1E+10	1
4901784	127	C	12/26/2018	10:43	-133.264	43.148	0	1290.00	0	2.9330	0	34.8040	8	27.743	0	1275.792	0	17.4	4	5.4	4	-1E+10	1	-1E+10	1	-1E+10	1	-1E+10	1	-1E+10	1	-1E+10	1
4901784	127	C	12/26/2018	10:43	-133.264	43.148	0	1294.60	0	2.9220	0	34.8050	8	27.745	0	1280.328	0	17.6	4	5.4	4	-1E+10	1	-1E+10	1	-1E+10	1	-1E+10	1	-1E+10	1	-1E+10	1
4901784	127	C	12/26/2018	10:43	-133.264	43.148	0	1300.10	0	2.9100	0	34.8070	8	27.748	0	1285.750	0	17.8	4	5.5	4	-1E+10	1	-1E+10	1	-1E+10	1	-1E+10	1	-1E+10	1	-1E+10	1
4901784	127	C	12/26/2018	10:43	-133.264	43.148	0	1305.60	0	2.9010	0	34.8090	8	27.750	0	1291.173	0	18.0	4	5.6	4	-1E+10	1	-1E+10	1	-1E+10	1	-1E+10	1	-1E+10	1	-1E+10	1
4901784	127	C	12/26/2018	10:43	-133.264	43.148	0	1310.20	0	2.8950	0	34.8090	8	27.751	0	1295.708	0	18.1	4	5.6	4	-1E+10	1	-1E+10	1	-1E+10	1	-1E+10	1	-1E+10	1	-1E+10	1
4901784	127	C	12/26/2018	10:43	-133.264	43.148	0	1314.80	0	2.8810	0	34.8120	8	27.754	0	1300.243	0	18.3	4	5.7	4	-1E+10	1	-1E+10	1	-1E+10	1	-1E+10	1	-1E+10	1	-1E+10	1
4901784	127	C	12/26/2018	10:43	-133.264	43.148	0	1320.00	0	2.8740	0	34.8130	8	27.756	0	1305.369	0	18.5	4	5.7	4	-1E+10	1	-1E+10	1	-1E+10	1	-1E+10	1	-1E+10	1	-1E+10	1
4901784	127	C	12/26/2018	10:43	-133.264	43.148	0	1324.40	0	2.8670	0	34.8140	8	27.757	0	1309.707	0	18.6	4	5.7	4	-1E+10	1	-1E+10	1	-1E+10	1	-1E+10	1	-1E+10	1	-1E+10	1
4901784	127	C	12/26/2018	10:43	-133.264	43.148	0	1330.10	0	2.8570	0	34.8160	8	27.760	0	1315.326	0	18.9	4	5.8	4	-1E+10	1	-1E+10	1	-1E+10	1	-1E+10	1	-1E+10	1	-1E+10	1
4901784	127	C	12/26/2018	10:43	-133.264	43.148	0	1335.80	0	2.8380	0	34.8180	8	27.763	0	1320.945	0	19.3	4	6.0	4	-1E+10	1	-1E+10	1	-1E+10	1	-1E+10	1	-1E+10	1	-1E+10	1
4901784	127	C	12/26/2018	10:43	-133.264	43.148	0	1340.70	0	2.8260	0	34.8200	8	27.766	0	1325.775	0	19.5	4	6.0	4	-1E+10	1	-1E+10	1	-1E+10	1	-1E+10	1	-1E+10	1	-1E+10	1
4901784	127	C	12/26/2018	10:43	-133.264	43.148	0	1345.70	0	2.8150	0	34.8210	8	27.768	0	1330.703	0	19.8	4	6.1	4	-1E+10	1	-1E+10	1	-1E+10	1	-1E+10	1	-1E+10	1	-1E+10	1
4901784	127	C	12/26/2018	10:43	-133.264	43.148	0	1350.60	0	2.8000	0	34.8230	8	27.770	0	1335.533	0	20.1	4	6.2	4	-1E+10	1	-1E+10	1	-1E+10	1	-1E+10	1	-1E+10	1	-1E+10	1
4901784	127	C	12/26/2018	10:43	-133.264	43.148	0	1355.50	0	2.7860	0	34.8250	8	27.773	0	1340.363	0	20.3	4	6.3	4	-1E+10	1	-1E+10	1	-1E+10	1	-1E+10	1	-1E+10	1	-1E+10	1
4901784	127	C	12/26/2018	10:43	-133.264	43.148	0	1360.60	0	2.7800	0	34.8260	8	27.775	0	1345.390	0	20.5	4	6.3	4	-1E+10	1	-1E+10	1	-1E+10	1	-1E+10	1	-1E+10	1	-1E+10	1
4901784	127	C	12/26/2018	10:43	-133.264	43.148	0	1365.70	0	2.7740	0	34.8260	8	27.775	0	1350.416	0	20.8	4	6.4	4	-1E+10	1	-1E+10	1	-1E+10	1	-1E+10	1	-1E+10	1	-1E+10	1
4901784	127	C	12/26/2018	10:43	-133.264	43.148	0	1370.80	0	2.7600	0	34.8280	8	27.778	0	1355.443	0	21.0	4	6.5	4	-1E+10	1	-1E+10	1	-1E+10	1	-1E+10	1	-1E+10	1	-1E+10	1
4901784	127	C	12/26/2018	10:43	-133.264	43.148	0	1375.10	0	2.7530	0	34.8300	8	27.780	0	1359.681	0	21.1	4	6.5	4	-1E+10	1	-1E+10	1	-1E+10	1	-1E+10	1	-1E+10	1	-1E+10	1
4901784	127	C	12/26/2018	10:43	-133.264	43.148	0	1379.40	0	2.7500	0	34.8300	8	27.781	0	1363.919	0	21.2	4	6.5	4	-1E+10	1	-1E+10	1	-1E+10	1	-1E+10	1	-1E+10	1	-1E+10	1
4901784	127	C	12/26/2018	10:43	-133.264	43.148	0	1384.60	0	2.7440	0	34.8310	8	27.782	0	1369.043	0	21.4	4	6.6	4	-1E+10	1	-1E+10	1	-1E+10	1	-1E+10	1	-1E+10	1	-1E+10	1
4901784	127	C	12/26/2018	10:43	-133.264	43.148	0	1389.90	0	2.7340	0	34.8320	8	27.784	0	1374.267	0	21.6	4	6.7	4	-1E+10	1	-1E+10	1	-1E+10	1	-1E+10	1	-1E+10	1	-1E+10	1
4901784	127	C	12/26/2018	10:43	-133.264	43.148	0	1395.20	0	2.7230	0	34.8340	8	27.786	0	1379.490	0	22.0	4	6.8	4	-1E+10	1	-1E+10	1	-1E+10	1	-1E+10	1	-1E+10	1	-1E+10	1
4901784	127	C	12/26/2018	10:43	-133.264	43.148	0	1400.50	0	2.7170	0	34.8340	8	27.787	0	1384.713	0	22.2	4	6.8	4	-1E+10	1	-1E+10	1	-1E+10	1	-1E+10	1	-1E+10	1	-1E+10	1
4901784	127	C	12/26/2018	10:43	-133.264	43.148	0	1404.90	0	2.7120	0	34.8350	8	27.788	0	1389.049	0	22.4	4	6.9	4	-1E+10	1	-1E+10	1	-1E+10	1	-1E+10	1	-1E+10	1	-1E+10	1
4901784	127	C	12/26/2018	10:43	-133.264	43.148	0	1409.40	0	2.7050	0	34.8360	8	27.790	0	1393.483	0	22.6	4	7.0	4	-1E+10	1	-1E+10	1	-1E+10	1	-1E+10	1	-1E+10	1	-1E+10	1
4901784	127	C	12/26/2018	10:43	-133.264	43.148	0	1414.80	0	2.6920	0	34.8370	8	27.792	0	1398.804	0	23.0	4	7.1	4	-1E+10	1	-1E+10	1	-1E+10	1	-1E+10	1	-1E+10	1	-1E+10	1
4901784	127	C	12/26/2018	10:43	-133.264	43.148	0	1420.20	0	2.6770	0	34.8390	8	27.794	0	1404.125	0	23.2	4	7.1	4	-1E+10	1	-1E+10	1	-1E+10	1	-1E+10	1	-1E+10	1	-1E+10	1
4901784	127	C	12/26/2018	10:43	-133.264	43.148	0	1424.80	0	2.6680	0	34.8390	8	27.795	0	1408.658	0	23.5	4	7.2	4	-1E+10	1	-1E+10	1	-1E+10	1	-1E+10	1	-1E+10	1	-1E+10	1
4901784	127	C	12/26/2018	10:43	-133.264	43.148	0	1429.90	0	2.6540	0	34.8420	8	27.799	0	1413.683	0	23.7	4	7.3	4	-1E+10	1	-1E+10	1	-1E+10	1	-1E+10	1	-1E+10	1	-1E+10	1
4901784	127	C	12/26/2018	10:43	-133.264	43.148	0	1435.40	0	2.6440	0	34.8430	8	27.801	0	1419.102	0	24.0	4	7.4	4	-1E+10	1	-1E+10	1	-1E+10	1	-1E+10	1	-1E+10	1	-1E+10	1
4901784	127	C	12/26/2018	10:43	-133.264	43.148	0	1440.30	0	2.6320	0	34.8440	8	27.802	0	1423.930	0	24.4	4	7.5	4	-1E+10	1	-1E+10	1	-1E+10	1	-1E+10	1	-1E+10	1	-1E+10	1
4901784	127	C	12/26/2018	10:43	-133.264	43.148	0	1445.10	0	2.6240	0	34.8450	8	27.804	0	1428.659	0	24.7	4	7.6	4	-1E+10	1	-1E+10	1	-1E+10	1	-1E+10	1	-1E+10	1	-1E+10	1
4901784	127	C	12/26/2018	10:43	-133.264	43.148	0	1450.00	0	2.6130	0	34.8460	8	27.806	0	1433.487	0	25.1	4	7.7	4	-1E+10	1	-1E+10	1	-1E+10	1	-1E+10	1	-1E+10	1	-1E+10	1
4901784	127	C	12/26/2018	10:43	-133.264	43.148	0	1454.80	0	2.5970	0	34.8490	8	27.810	0	1438.216	0	25.4	4	7.8	4	-1E+10	1	-1E+10	1	-1E+10	1	-1E+10	1	-1E+10	1	-1E+10	1
4901784	127	C	12/26/2018	10:43	-133.264	43.148	0	1459.70	0	2.5910	0	34.8500	8	27.811	0	1443.043	0	25.6	4	7.8	4	-1E+10	1	-1E+10	1	-1E+10	1	-1E+10	1	-1E+10	1	-1E+10	1
4901784	127	C	12/26/2018	10:43	-133.264	43.148	0	1464.70	0	2.5850	0	34.8510	8	27.812	0	1447.969	0	25.8	4	7.9	4	-1E+10	1	-1E+10	1	-1E+10	1	-1E+10	1	-1E+10	1	-1E+10	1
4901784	127	C	12/26/2018	10:43	-133.264	43.148	0	1469.60	0	2.5790	0	34.8520	8	27.814	0	1452.796	0	26.0	4	8.0	4	-1E+10	1	-1E+10	1	-1E+10	1	-1E+10	1	-1E+10	1	-1E+10	1
4901784	127	C	12/26/2018	10:43	-133.264	43.148	0	1474.70	0	2.5740	0	34.8520	8	27.814	0	1457.820	0	26.1	4	8.0	4	-1E+10	1	-1E+10	1	-1E+10	1	-1E+10	1	-1E+10	1	-1E+10	1
4901784	127	C	12/26/2018	10:43	-133.264	43.148	0	1479.70	0	2.5670	0	34.8530	8	27.815	0	1462.746	0	26.3	4	8.1	4	-1E+10	1	-1E+10	1	-1E+10	1	-1E+10	1	-1E+10	1	-1E+10	1
4901784	127	C	12/26/2018	10:43	-133.264	43.148	0	1484.70	0	2.5600	0	34.8540	8	27.817	0	1467.671	0	26.6	4	8.1	4	-1E+10	1	-1E+10	1	-1E+10	1	-1E+10	1	-1E+10	1	-1E+10	1
4901784	127	C	12/26/2018	10:43	-133.264	43.148	0	1489.80	0	2.5520	0	34.8550	8	27.818	0	1472.695	0	26.7	4	8.2	4	-1E+10	1	-1E+10	1	-1E+10	1	-1E+10	1	-1E+10	1	-1E+10	1
4901784	127	C	12/26/2018	10:43	-133.264	43.148	0	1494.80	0	2.5460	0	34.8560	8	27.820	0	1477.620	0	27.0	4	8.3	4	-1E+10	1	-1E+10	1	-1E+10	1	-1E+10	1	-1E+10	1	-1E+10	1
4901784	127	C	12/26/2018	10:43	-133.264	43.148	0	1499.90	0	2.5370	0	34.8570	8	27.821	0	1482.643	0	27.3	4	8.4	4	-1E+10	1	-1E+10	1	-1E+10	1	-1E+10	1	-1E+10	1	-1E+10	1
4901784	127	C	12/26/2018	10:43	-133.264	43.148	0	1505.00	0	2.5250	0	34.8580	8	27.823	0	1487.667	0	27.7	4	8.5	4	-1E+10	1	-1E+10	1	-1E+10	1	-1E+10	1	-1E+10	1	-1E+10	1
4901784	127	C	12/26/2018	10:43	-133.264	43.148	0	1510.20	0	2.5210	0	34.8590	8	27.824	0	1492.788	0	27.9	4	8.6	4	-1E+10	1	-1E+10	1	-1E+10	1	-1E+10	1	-1E+10	1	-1E+10	1
4901784	127	C	12/26/2018	10:43	-133.264	43.148	0	1515.30	0	2.5130	0	34.8610	8	27.827	0	1497.812	0	28.2	4	8.6	4	-1E+10	1	-1E+10	1	-1E+10	1	-1E+10	1	-1E+10	1	-1E+10	1
4901784	127	C	12/26/2018	10:43	-133.264	43.148	0	1520.50	0	2.5020	0	34.8620	8	27.828	0	1502.933	0	28.5	4	8.7	4	-1E+10	1	-1E+10	1	-1E+10	1	-1E+10	1	-1E+10	1	-1E+10	1
4901784	127	C	12/26/2018	10:43	-133.264	43.148	0	1524.90	0	2.4930	0	34.8630	8	27.830	0	1507.267	0	28.8	4	8.8	4	-1E+10	1	-1E+10	1	-1E+10	1	-1E+10	1	-1E+10	1	-1E+10	1
4901784	127	C	12/26/2018	10:43	-133.264	43.148	0	1529.30	0	2.4860	0	34.8640	8	27.831	0	1511.600	0	29.2	4	8.9	4	-1E+10	1	-1E+10	1	-1E+10	1	-1E+10	1	-1E+10	1	-1E+10	1
4901784	127	C	12/26/2018	10:43	-133.264	43.148	0	1534.50	0	2.4760	0	34.8650	8	27.833	0	1516.721	0	29.6	4	9.0	4	-1E+10	1	-1E+10	1	-1E+10	1	-1E+10	1	-1E+10	1	-1E+10	1
4901784	127	C	12/26/2018	10:43	-133.264	43.148	0	1539.80	0	2.4660	0	34.8660	8	27.835	0	1521.941	0	29.9	4	9.2	4	-1E+10	1	-1E+10	1	-1E+10	1	-1E+10	1	-1E+10	1	-1E+10	1
4901784	127	C	12/26/2018	10:43	-133.264	43.148	0	1545.10	0	2.4580	0	34.8670	8	27.836	0	1527.160	0	30.4	4	9.3	4	-1E+10	1	-1E+10	1	-1E+10	1	-1E+10	1	-1E+10	1	-1E+10	1
4901784	127	C	12/26/2018	10:43	-133.264	43.148	0	1550.40	0	2.4480	0	34.8680	8	27.838	0	1532.379	0	30.8	4	9.4	4	-1E+10	1	-1E+10	1	-1E+10	1	-1E+10	1	-1E+10	1	-1E+10	1
4901784	127	C	12/26/2018	10:43	-133.264	43.148	0	1555.70	0	2.4440	0	34.8690	8	27.839	0	1537.599	0	31.1	4	9.5	4	-1E+10	1	-1E+10	1	-1E+10	1	-1E+10	1	-1E+10	1	-1E+10	1
4901784	127	C	12/26/2018	10:43	-133.264	43.148	0	1560.10	0	2.4350	0	34.8700	8	27.841	0	1541.931	0	31.6	4	9.6	4	-1E+10	1	-1E+10	1	-1E+10	1	-1E+10	1	-1E+10	1	-1E+10	1
4901784	127	C	12/26/2018	10:43	-133.264	43.148	0	1564.50	0	2.4240	0	34.8710	8	27.842	0	1546.264	0	32.0	4	9.8	4	-1E+10	1	-1E+10	1	-1E+10	1	-1E+10	1	-1E+10	1	-1E+10	1
4901784	127	C	12/26/2018	10:43	-133.264	43.148	0	1569.80	0	2.4120	0	34.8730	8	27.845	0	1551.483	0	32.4	4	9.9	4	-1E+10	1	-1E+10	1	-1E+10	1	-1E+10	1	-1E+10	1	-1E+10	1
4901784	127	C	12/26/2018	10:43	-133.264	43.148	0	1575.10	0	2.4040	0	34.8740	8	27.847	0	1556.701	0	32.6	4	10.0	4	-1E+10	1	-1E+10	1	-1E+10	1	-1E+10	1	-1E+10	1	-1E+10	1
4901784	127	C	12/26/2018	10:43	-133.264	43.148	0	1580.50	0	2.3970	0	34.8740	8	27.847	0	1562.019	0	32.9	4	10.1	4	-1E+10	1	-1E+10	1	-1E+10	1	-1E+10	1	-1E+10	1	-1E+10	1
4901784	127	C	12/26/2018	10:43	-133.264	43.148	0	1585.00	0	2.3890	0	34.8760	8	27.849	0	1566.449	0	33.2	4	10.1	4	-1E+10	1	-1E+10	1	-1E+10	1	-1E+10	1	-1E+10	1	-1E+10	1
4901784	127	C	12/26/2018	10:43	-133.264	43.148	0	1589.50	0	2.3830	0	34.8760	8	27.850	0	1570.880	0	33.5	4	10.2	4	-1E+10	1	-1E+10	1	-1E+10	1	-1E+10	1	-1E+10	1	-1E+10	1
4901784	127	C	12/26/2018	10:43	-133.264	43.148	0	1595.00	0	2.3760	0	34.8780	8	27.852	0	1576.295	0	33.8	4	10.3	4	-1E+10	1	-1E+10	1	-1E+10	1	-1E+10	1	-1E+10	1	-1E+10	1
4901784	127	C	12/26/2018	10:43	-133.264	43.148	0	1600.50	0	2.3680	0	34.8790	8	27.854	0	1581.710	0	34.1	4	10.4	4	-1E+10	1	-1E+10	1	-1E+10	1	-1E+10	1	-1E+10	1	-1E+10	1
4901784	127	C	12/26/2018	10:43	-133.264	43.148	0	1605.00	0	2.3600	0	34.8810	8	27.856	0	1586.140	0	34.3	4	10.5	4	-1E+10	1	-1E+10	1	-1E+10	1	-1E+10	1	-1E+10	1	-1E+10	1
4901784	127	C	12/26/2018	10:43	-133.264	43.148	0	1609.60	0	2.3550	0	34.8810	8	27.856	0	1590.669	0	34.5	4	10.5	4	-1E+10	1	-1E+10	1	-1E+10	1	-1E+10	1	-1E+10	1	-1E+10	1
4901784	127	C	12/26/2018	10:43	-133.264	43.148	0	1615.10	0	2.3490	0	34.8820	8	27.858	0	1596.084	0	34.8	4	10.6	4	-1E+10	1	-1E+10	1	-1E+10	1	-1E+10	1	-1E+10	1	-1E+10	1
4901784	127	C	12/26/2018	10:43	-133.264	43.148	0	1620.50	0	2.3430	0	34.8830	8	27.859	0	1601.400	0	35.3	4	10.7	4	-1E+10	1	-1E+10	1	-1E+10	1	-1E+10	1	-1E+10	1	-1E+10	1
4901784	127	C	12/26/2018	10:43	-133.264	43.148	0	1625.10	0	2.3350	0	34.8840	8	27.861	0	1605.928	0	35.6	4	10.8	4	-1E+10	1	-1E+10	1	-1E+10	1	-1E+10	1	-1E+10	1	-1E+10	1
4901784	127	C	12/26/2018	10:43	-133.264	43.148	0	1629.70	0	2.3270	0	34.8840	8	27.861	0	1610.456	0	35.9	4	10.9	4	-1E+10	1	-1E+10	1	-1E+10	1	-1E+10	1	-1E+10	1	-1E+10	1
4901784	127	C	12/26/2018	10:43	-133.264	43.148	0	1635.20	0	2.3160	0	34.8860	8	27.864	0	1615.870	0	36.2	4	11.0	4	-1E+10	1	-1E+10	1	-1E+10	1	-1E+10	1	-1E+10	1	-1E+10	1
4901784	127	C	12/26/2018	10:43	-133.264	43.148	0	1639.80	0	2.3090	0	34.8870	8	27.865	0	1620.398	0	36.5	4	11.1	4	-1E+10	1	-1E+10	1	-1E+10	1	-1E+10	1	-1E+10	1	-1E+10	1
4901784	127	C	12/26/2018	10:43	-133.264	43.148	0	1644.50	0	2.3040	0	34.8880	8	27.866	0	1625.025	0	36.8	4	11.2	4	-1E+10	1	-1E+10	1	-1E+10	1	-1E+10	1	-1E+10	1	-1E+10	1
4901784	127	C	12/26/2018	10:43	-133.264	43.148	0	1650.10	0	2.3000	0	34.8880	8	27.867	0	1630.537	0	37.1	4	11.3	4	-1E+10	1	-1E+10	1	-1E+10	1	-1E+10	1	-1E+10	1	-1E+10	1
4901784	127	C	12/26/2018	10:43	-133.264	43.148	0	1654.70	0	2.2950	0	34.8890	8	27.868	0	1635.064	0	37.4	4	11.4	4	-1E+10	1	-1E+10	1	-1E+10	1	-1E+10	1	-1E+10	1	-1E+10	1
4901784	127	C	12/26/2018	10:43	-133.264	43.148	0	1659.40	0	2.2850	0	34.8900	8	27.870	0	1639.691	0	37.7	4	11.5	4	-1E+10	1	-1E+10	1	-1E+10	1	-1E+10	1	-1E+10	1	-1E+10	1
4901784	127	C	12/26/2018	10:43	-133.264	43.148	0	1665.00	0	2.2790	0	34.8920	8	27.872	0	1645.202	0	38.1	4	11.6	4	-1E+10	1	-1E+10	1	-1E+10	1	-1E+10	1	-1E+10	1	-1E+10	1
4901784	127	C	12/26/2018	10:43	-133.264	43.148	0	1670.60	0	2.2740	0	34.8930	8	27.873	0	1650.714	0	38.4	4	11.7	4	-1E+10	1	-1E+10	1	-1E+10	1	-1E+10	1	-1E+10	1	-1E+10	1
4901784	127	C	12/26/2018	10:43	-133.264	43.148	0	1675.80	0	2.2670	0	34.8940	8	27.874	0	1655.832	0	38.7	4	11.8	4	-1E+10	1	-1E+10	1	-1E+10	1	-1E+10	1	-1E+10	1	-1E+10	1
4901784	127	C	12/26/2018	10:43	-133.264	43.148	0	1680.20	0	2.2630	0	34.8940	8	27.875	0	1660.162	0	39.0	4	11.9	4	-1E+10	1	-1E+10	1	-1E+10	1	-1E+10	1	-1E+10	1	-1E+10	1
4901784	127	C	12/26/2018	10:43	-133.264	43.148	0	1685.10	0	2.2550	0	34.8960	8	27.877	0	1664.984	0	39.4	4	12.0	4	-1E+10	1	-1E+10	1	-1E+10	1	-1E+10	1	-1E+10	1	-1E+10	1
4901784	127	C	12/26/2018	10:43	-133.264	43.148	0	1690.10	0	2.2500	0	34.8970	8	27.878	0	1669.905	0	39.8	4	12.1	4	-1E+10	1	-1E+10	1	-1E+10	1	-1E+10	1	-1E+10	1	-1E+10	1
4901784	127	C	12/26/2018	10:43	-133.264	43.148	0	1695.00	0	2.2410	0	34.8980	8	27.880	0	1674.727	0	40.2	4	12.2	4	-1E+10	1	-1E+10	1	-1E+10	1	-1E+10	1	-1E+10	1	-1E+10	1
4901784	127	C	12/26/2018	10:43	-133.264	43.148	0	1700.10	0	2.2330	0	34.8990	8	27.881	0	1679.746	0	40.7	4	12.4	4	-1E+10	1	-1E+10	1	-1E+10	1	-1E+10	1	-1E+10	1	-1E+10	1
4901784	127	C	12/26/2018	10:43	-133.264	43.148	0	1705.10	0	2.2260	0	34.9000	8	27.883	0	1684.666	0	41.1	4	12.5	4	-1E+10	1	-1E+10	1	-1E+10	1	-1E+10	1	-1E+10	1	-1E+10	1
4901784	127	C	12/26/2018	10:43	-133.264	43.148	0	1710.10	0	2.2170	0	34.9010	8	27.884	0	1689.586	0	41.6	4	12.6	4	-1E+10	1	-1E+10	1	-1E+10	1	-1E+10	1	-1E+10	1	-1E+10	1
4901784	127	C	12/26/2018	10:43	-133.264	43.148	0	1715.10	0	2.2070	0	34.9030	8	27.887	0	1694.507	0	42.0	4	12.8	4	-1E+10	1	-1E+10	1	-1E+10	1	-1E+10	1	-1E+10	1	-1E+10	1
4901784	127	C	12/26/2018	10:43	-133.264	43.148	0	1720.10	0	2.2010	0	34.9030	8	27.887	0	1699.426	0	42.3	4	12.8	4	-1E+10	1	-1E+10	1	-1E+10	1	-1E+10	1	-1E+10	1	-1E+10	1
4901784	127	C	12/26/2018	10:43	-133.264	43.148	0	1725.20	0	2.1960	0	34.9040	8	27.889	0	1704.445	0	42.6	4	12.9	4	-1E+10	1	-1E+10	1	-1E+10	1	-1E+10	1	-1E+10	1	-1E+10	1
4901784	127	C	12/26/2018	10:43	-133.264	43.148	0	1730.40	0	2.1920	0	34.9050	8	27.890	0	1709.561	0	42.9	4	13.0	4	-1E+10	1	-1E+10	1	-1E+10	1	-1E+10	1	-1E+10	1	-1E+10	1
4901784	127	C	12/26/2018	10:43	-133.264	43.148	0	1735.50	0	2.1840	0	34.9060	8	27.891	0	1714.579	0	43.4	4	13.2	4	-1E+10	1	-1E+10	1	-1E+10	1	-1E+10	1	-1E+10	1	-1E+10	1
4901784	127	C	12/26/2018	10:43	-133.264	43.148	0	1740.60	0	2.1750	0	34.9070	8	27.893	0	1719.597	0	43.8	4	13.3	4	-1E+10	1	-1E+10	1	-1E+10	1	-1E+10	1	-1E+10	1	-1E+10	1
4901784	127	C	12/26/2018	10:43	-133.264	43.148	0	1744.90	0	2.1740	0	34.9070	8	27.893	0	1723.828	0	44.1	4	13.4	4	-1E+10	1	-1E+10	1	-1E+10	1	-1E+10	1	-1E+10	1	-1E+10	1
4901784	127	C	12/26/2018	10:43	-133.264	43.148	0	1749.20	0	2.1630	0	34.9080	8	27.895	0	1728.058	0	44.5	4	13.5	4	-1E+10	1	-1E+10	1	-1E+10	1	-1E+10	1	-1E+10	1	-1E+10	1
4901784	127	C	12/26/2018	10:43	-133.264	43.148	0	1754.50	0	2.1560	0	34.9090	8	27.896	0	1733.273	0	44.9	4	13.6	4	-1E+10	1	-1E+10	1	-1E+10	1	-1E+10	1	-1E+10	1	-1E+10	1
4901784	127	C	12/26/2018	10:43	-133.264	43.148	0	1759.80	0	2.1500	0	34.9100	8	27.897	0	1738.487	0	45.3	4	13.7	4	-1E+10	1	-1E+10	1	-1E+10	1	-1E+10	1	-1E+10	1	-1E+10	1
4901784	127	C	12/26/2018	10:43	-133.264	43.148	0	1765.10	0	2.1450	0	34.9100	8	27.898	0	1743.701	0	45.8	4	13.9	4	-1E+10	1	-1E+10	1	-1E+10	1	-1E+10	1	-1E+10	1	-1E+10	1
4901784	127	C	12/26/2018	10:43	-133.264	43.148	0	1770.40	0	2.1340	0	34.9120	8	27.900	0	1748.915	0	46.3	4	14.0	4	-1E+10	1	-1E+10	1	-1E+10	1	-1E+10	1	-1E+10	1	-1E+10	1
4901784	127	C	12/26/2018	10:43	-133.264	43.148	0	1774.90	0	2.1300	0	34.9130	8	27.901	0	1753.342	0	46.6	4	14.1	4	-1E+10	1	-1E+10	1	-1E+10	1	-1E+10	1	-1E+10	1	-1E+10	1
4901784	127	C	12/26/2018	10:43	-133.264	43.148	0	1779.40	0	2.1200	0	34.9140	8	27.903	0	1757.768	0	47.0	4	14.3	4	-1E+10	1	-1E+10	1	-1E+10	1	-1E+10	1	-1E+10	1	-1E+10	1
4901784	127	C	12/26/2018	10:43	-133.264	43.148	0	1784.90	0	2.1140	0	34.9150	8	27.904	0	1763.179	0	47.3	4	14.3	4	-1E+10	1	-1E+10	1	-1E+10	1	-1E+10	1	-1E+10	1	-1E+10	1
4901784	127	C	12/26/2018	10:43	-133.264	43.148	0	1790.40	0	2.1110	0	34.9150	8	27.905	0	1768.589	0	47.6	4	14.4	4	-1E+10	1	-1E+10	1	-1E+10	1	-1E+10	1	-1E+10	1	-1E+10	1
4901784	127	C	12/26/2018	10:43	-133.264	43.148	0	1795.00	0	2.1080	0	34.9160	8	27.906	0	1773.114	0	47.9	4	14.5	4	-1E+10	1	-1E+10	1	-1E+10	1	-1E+10	1	-1E+10	1	-1E+10	1
4901784	127	C	12/26/2018	10:43	-133.264	43.148	0	1800.30	0	2.0980	0	34.9170	8	27.907	0	1778.327	0	48.3	4	14.6	4	-1E+10	1	-1E+10	1	-1E+10	1	-1E+10	1	-1E+10	1	-1E+10	1
4901784	127	C	12/26/2018	10:43	-133.264	43.148	0	1805.40	0	2.0920	0	34.9190	8	27.909	0	1783.343	0	48.6	4	14.7	4	-1E+10	1	-1E+10	1	-1E+10	1	-1E+10	1	-1E+10	1	-1E+10	1
4901784	127	C	12/26/2018	10:43	-133.264	43.148	0	1810.20	0	2.0890	0	34.9200	8	27.910	0	1788.064	0	49.0	4	14.8	4	-1E+10	1	-1E+10	1	-1E+10	1	-1E+10	1	-1E+10	1	-1E+10	1
4901784	127	C	12/26/2018	10:43	-133.264	43.148	0	1815.10	0	2.0830	0	34.9200	8	27.911	0	1792.884	0	49.4	4	15.0	4	-1E+10	1	-1E+10	1	-1E+10	1	-1E+10	1	-1E+10	1	-1E+10	1
4901784	127	C	12/26/2018	10:43	-133.264	43.148	0	1819.90	0	2.0750	0	34.9220	8	27.913	0	1797.605	0	49.8	4	15.1	4	-1E+10	1	-1E+10	1	-1E+10	1	-1E+10	1	-1E+10	1	-1E+10	1
4901784	127	C	12/26/2018	10:43	-133.264	43.148	0	1824.80	0	2.0710	0	34.9220	8	27.913	0	1802.424	0	50.0	4	15.1	4	-1E+10	1	-1E+10	1	-1E+10	1	-1E+10	1	-1E+10	1	-1E+10	1
4901784	127	C	12/26/2018	10:43	-133.264	43.148	0	1829.70	0	2.0680	0	34.9230	8	27.915	0	1807.243	0	50.2	4	15.2	4	-1E+10	1	-1E+10	1	-1E+10	1	-1E+10	1	-1E+10	1	-1E+10	1
4901784	127	C	12/26/2018	10:43	-133.264	43.148	0	1834.60	0	2.0650	0	34.9230	8	27.915	0	1812.062	0	50.5	4	15.3	4	-1E+10	1	-1E+10	1	-1E+10	1	-1E+10	1	-1E+10	1	-1E+10	1
4901784	127	C	12/26/2018	10:43	-133.264	43.148	0	1839.50	0	2.0630	0	34.9240	8	27.916	0	1816.881	0	50.7	4	15.3	4	-1E+10	1	-1E+10	1	-1E+10	1	-1E+10	1	-1E+10	1	-1E+10	1
4901784	127	C	12/26/2018	10:43	-133.264	43.148	0	1844.50	0	2.0610	0	34.9240	8	27.916	0	1821.798	0	51.1	4	15.5	4	-1E+10	1	-1E+10	1	-1E+10	1	-1E+10	1	-1E+10	1	-1E+10	1
4901784	127	C	12/26/2018	10:43	-133.264	43.148	0	1849.40	0	2.0490	0	34.9250	8	27.918	0	1826.617	0	51.6	4	15.6	4	-1E+10	1	-1E+10	1	-1E+10	1	-1E+10	1	-1E+10	1	-1E+10	1
4901784	127	C	12/26/2018	10:43	-133.264	43.148	0	1854.50	0	2.0450	0	34.9260	8	27.919	0	1831.632	0	51.9	4	15.7	4	-1E+10	1	-1E+10	1	-1E+10	1	-1E+10	1	-1E+10	1	-1E+10	1
4901784	127	C	12/26/2018	10:43	-133.264	43.148	0	1859.60	0	2.0400	0	34.9260	8	27.919	0	1836.647	0	52.2	4	15.8	4	-1E+10	1	-1E+10	1	-1E+10	1	-1E+10	1	-1E+10	1	-1E+10	1
4901784	127	C	12/26/2018	10:43	-133.264	43.148	0	1864.70	0	2.0370	0	34.9270	8	27.920	0	1841.662	0	52.5	4	15.9	4	-1E+10	1	-1E+10	1	-1E+10	1	-1E+10	1	-1E+10	1	-1E+10	1
4901784	127	C	12/26/2018	10:43	-133.264	43.148	0	1869.80	0	2.0330	0	34.9280	8	27.922	0	1846.677	0	52.9	4	16.0	4	-1E+10	1	-1E+10	1	-1E+10	1	-1E+10	1	-1E+10	1	-1E+10	1
4901784	127	C	12/26/2018	10:43	-133.264	43.148	0	1875.00	0	2.0290	0	34.9290	8	27.923	0	1851.790	0	53.2	4	16.1	4	-1E+10	1	-1E+10	1	-1E+10	1	-1E+10	1	-1E+10	1	-1E+10	1
4901784	127	C	12/26/2018	10:43	-133.264	43.148	0	1880.20	0	2.0220	0	34.9290	8	27.923	0	1856.903	0	53.5	4	16.2	4	-1E+10	1	-1E+10	1	-1E+10	1	-1E+10	1	-1E+10	1	-1E+10	1
4901784	127	C	12/26/2018	10:43	-133.264	43.148	0	1885.50	0	2.0190	0	34.9300	8	27.924	0	1862.114	0	53.8	4	16.3	4	-1E+10	1	-1E+10	1	-1E+10	1	-1E+10	1	-1E+10	1	-1E+10	1
4901784	127	C	12/26/2018	10:43	-133.264	43.148	0	1890.70	0	2.0170	0	34.9310	8	27.925	0	1867.227	0	54.0	4	16.3	4	-1E+10	1	-1E+10	1	-1E+10	1	-1E+10	1	-1E+10	1	-1E+10	1
4901784	127	C	12/26/2018	10:43	-133.264	43.148	0	1895.10	0	2.0150	0	34.9310	8	27.926	0	1871.553	0	54.1	4	16.4	4	-1E+10	1	-1E+10	1	-1E+10	1	-1E+10	1	-1E+10	1	-1E+10	1
4901784	127	C	12/26/2018	10:43	-133.264	43.148	0	1899.50	0	2.0130	0	34.9320	8	27.927	0	1875.879	0	54.3	4	16.4	4	-1E+10	1	-1E+10	1	-1E+10	1	-1E+10	1	-1E+10	1	-1E+10	1
4901784	127	C	12/26/2018	10:43	-133.264	43.148	0	1904.90	0	2.0110	0	34.9320	8	27.927	0	1881.188	0	54.4	4	16.5	4	-1E+10	1	-1E+10	1	-1E+10	1	-1E+10	1	-1E+10	1	-1E+10	1
4901784	127	C	12/26/2018	10:43	-133.264	43.148	0	1910.20	0	2.0090	0	34.9330	8	27.928	0	1886.398	0	54.6	4	16.5	4	-1E+10	1	-1E+10	1	-1E+10	1	-1E+10	1	-1E+10	1	-1E+10	1
4901784	127	C	12/26/2018	10:43	-133.264	43.148	0	1915.60	0	2.0070	0	34.9330	8	27.928	0	1891.707	0	54.9	4	16.6	4	-1E+10	1	-1E+10	1	-1E+10	1	-1E+10	1	-1E+10	1	-1E+10	1
4901784	127	C	12/26/2018	10:43	-133.264	43.148	0	1920.10	0	2.0040	0	34.9340	8	27.929	0	1896.131	0	55.2	4	16.7	4	-1E+10	1	-1E+10	1	-1E+10	1	-1E+10	1	-1E+10	1	-1E+10	1
4901784	127	C	12/26/2018	10:43	-133.264	43.148	0	1924.60	0	1.9980	0	34.9350	8	27.930	0	1900.554	0	55.5	4	16.8	4	-1E+10	1	-1E+10	1	-1E+10	1	-1E+10	1	-1E+10	1	-1E+10	1
4901784	127	C	12/26/2018	10:43	-133.264	43.148	0	1930.10	0	1.9950	0	34.9350	8	27.931	0	1905.961	0	55.8	4	16.9	4	-1E+10	1	-1E+10	1	-1E+10	1	-1E+10	1	-1E+10	1	-1E+10	1
4901784	127	C	12/26/2018	10:43	-133.264	43.148	0	1935.20	0	1.9900	0	34.9360	8	27.932	0	1910.974	0	56.2	4	17.0	4	-1E+10	1	-1E+10	1	-1E+10	1	-1E+10	1	-1E+10	1	-1E+10	1
4901784	127	C	12/26/2018	10:43	-133.264	43.148	0	1939.40	0	1.9880	0	34.9370	8	27.933	0	1915.103	0	56.4	4	17.1	4	-1E+10	1	-1E+10	1	-1E+10	1	-1E+10	1	-1E+10	1	-1E+10	1
4901784	127	C	12/26/2018	10:43	-133.264	43.148	0	1944.30	0	1.9830	0	34.9380	8	27.934	0	1919.920	0	56.8	4	17.2	4	-1E+10	1	-1E+10	1	-1E+10	1	-1E+10	1	-1E+10	1	-1E+10	1
4901784	127	C	12/26/2018	10:43	-133.264	43.148	0	1950.00	0	1.9780	0	34.9390	8	27.935	0	1925.522	0	57.1	4	17.2	4	-1E+10	1	-1E+10	1	-1E+10	1	-1E+10	1	-1E+10	1	-1E+10	1
4901784	127	C	12/26/2018	10:43	-133.264	43.148	0	1955.80	0	1.9740	0	34.9390	8	27.935	0	1931.223	0	57.4	4	17.3	4	-1E+10	1	-1E+10	1	-1E+10	1	-1E+10	1	-1E+10	1	-1E+10	1
4901784	127	C	12/26/2018	10:43	-133.264	43.148	0	1960.80	0	1.9710	0	34.9400	8	27.937	0	1936.138	0	57.6	4	17.4	4	-1E+10	1	-1E+10	1	-1E+10	1	-1E+10	1	-1E+10	1	-1E+10	1
4901784	127	C	12/26/2018	10:43	-133.264	43.148	0	1965.00	0	1.9690	0	34.9410	8	27.938	0	1940.266	0	57.9	4	17.5	4	-1E+10	1	-1E+10	1	-1E+10	1	-1E+10	1	-1E+10	1	-1E+10	1
4901784	127	C	12/26/2018	10:43	-133.264	43.148	0	1969.20	0	1.9640	0	34.9410	8	27.938	0	1944.394	0	58.2	4	17.6	4	-1E+10	1	-1E+10	1	-1E+10	1	-1E+10	1	-1E+10	1	-1E+10	1
4901784	127	C	12/26/2018	10:43	-133.264	43.148	0	1974.30	0	1.9600	0	34.9420	8	27.939	0	1949.406	0	58.6	4	17.7	4	-1E+10	1	-1E+10	1	-1E+10	1	-1E+10	1	-1E+10	1	-1E+10	1
4901784	127	C	12/26/2018	10:43	-133.264	43.148	0	1979.30	0	1.9550	0	34.9420	8	27.940	0	1954.320	0	58.9	4	17.8	4	-1E+10	1	-1E+10	1	-1E+10	1	-1E+10	1	-1E+10	1	-1E+10	1
4901784	127	C	12/26/2018	10:43	-133.264	43.148	0	1984.40	0	1.9500	0	34.9430	8	27.941	0	1959.332	0	59.2	4	17.9	4	-1E+10	1	-1E+10	1	-1E+10	1	-1E+10	1	-1E+10	1	-1E+10	1
4901784	127	C	12/26/2018	10:43	-133.264	43.148	0	1989.50	0	1.9480	0	34.9430	8	27.941	0	1964.344	0	59.5	4	18.0	4	-1E+10	1	-1E+10	1	-1E+10	1	-1E+10	1	-1E+10	1	-1E+10	1
4901784	127	C	12/26/2018	10:43	-133.264	43.148	0	1994.70	0	1.9450	0	34.9440	8	27.942	0	1969.455	0	59.8	4	18.1	4	-1E+10	1	-1E+10	1	-1E+10	1	-1E+10	1	-1E+10	1	-1E+10	1
4901784	127	C	12/26/2018	10:43	-133.264	43.148	0	2000.00	0	1.9380	0	34.9440	8	27.943	0	1974.663	0	60.2	4	18.2	4	-1E+10	1	-1E+10	1	-1E+10	1	-1E+10	1	-1E+10	1	-1E+10	1
4901784	127	C	12/26/2018	10:43	-133.264	43.148	0	2005.80	0	1.9330	0	34.9450	8	27.944	0	1980.363	0	60.6	4	18.3	4	-1E+10	1	-1E+10	1	-1E+10	1	-1E+10	1	-1E+10	1	-1E+10	1
4901784	127	C	12/26/2018	10:43	-133.264	43.148	0	2010.60	0	1.9280	0	34.9460	8	27.945	0	1985.079	0	60.8	4	18.4	4	-1E+10	1	-1E+10	1	-1E+10	1	-1E+10	1	-1E+10	1	-1E+10	1
4901784	127	C	12/26/2018	10:43	-133.264	43.148	0	2015.60	0	1.9250	0	34.9470	8	27.946	0	1989.993	0	61.0	4	18.4	4	-1E+10	1	-1E+10	1	-1E+10	1	-1E+10	1	-1E+10	1	-1E+10	1
4901784	127	C	12/26/2018	10:43	-133.264	43.148	0	2020.20	0	1.9240	0	34.9470	8	27.946	0	1994.513	0	61.1	4	18.5	4	-1E+10	1	-1E+10	1	-1E+10	1	-1E+10	1	-1E+10	1	-1E+10	1
4901784	127	C	12/26/2018	10:43	-133.264	43.148	0																										
4901784	128	C	01/05/2019	10:46	-133.363	43.039	0	2.80	0	12.6650	0	33.5620	8	25.345	0	2.778	0	251.1	4	95.7	4	-1E+10	1	-1E+10	1	-1E+10	1	-1E+10	1	-1E+10	1	-1E+10	1
4901784	128	C	01/05/2019	10:46	-133.363	43.039	0	4.40	0	12.6650	0	33.5630	8	25.346	0	4.365	0	251.0	4	95.7	4	-1E+10	1	-1E+10	1	-1E+10	1	-1E+10	1	-1E+10	1	-1E+10	1
4901784	128	C	01/05/2019	10:46	-133.363	43.039	0	6.20	0	12.6660	0	33.5630	8	25.346	0	6.151	0	251.1	4	95.7	4	-1E+10	1	-1E+10	1	-1E+10	1	-1E+10	1	-1E+10	1	-1E+10	1
4901784	128	C	01/05/2019	10:46	-133.363	43.039	0	8.00	0	12.6670	0	33.5640	8	25.347	0	7.936	0	250.9	4	95.7	4	-1E+10	1	-1E+10	1	-1E+10	1	-1E+10	1	-1E+10	1	-1E+10	1
4901784	128	C	01/05/2019	10:46	-133.363	43.039	0	9.80	0	12.6620	0	33.5640	8	25.348	0	9.722	0	250.9	4	95.7	4	-1E+10	1	-1E+10	1	-1E+10	1	-1E+10	1	-1E+10	1	-1E+10	1
4901784	128	C	01/05/2019	10:46	-133.363	43.039	0	11.70	0	12.6640	0	33.5640	8	25.347	0	11.607	0	250.9	4	95.7	4	-1E+10	1	-1E+10	1	-1E+10	1	-1E+10	1	-1E+10	1	-1E+10	1
4901784	128	C	01/05/2019	10:46	-133.363	43.039	0	13.70	0	12.6680	0	33.5650	8	25.348	0	13.591	0	250.9	4	95.7	4	-1E+10	1	-1E+10	1	-1E+10	1	-1E+10	1	-1E+10	1	-1E+10	1
4901784	128	C	01/05/2019	10:46	-133.363	43.039	0	15.70	0	12.6680	0	33.5650	8	25.348	0	15.575	0	250.9	4	95.6	4	-1E+10	1	-1E+10	1	-1E+10	1	-1E+10	1	-1E+10	1	-1E+10	1
4901784	128	C	01/05/2019	10:46	-133.363	43.039	0	17.60	0	12.6680	0	33.5660	8	25.348	0	17.460	0	250.9	4	95.7	4	-1E+10	1	-1E+10	1	-1E+10	1	-1E+10	1	-1E+10	1	-1E+10	1
4901784	128	C	01/05/2019	10:46	-133.363	43.039	0	19.50	0	12.6680	0	33.5660	8	25.348	0	19.344	0	251.0	4	95.7	4	-1E+10	1	-1E+10	1	-1E+10	1	-1E+10	1	-1E+10	1	-1E+10	1
4901784	128	C	01/05/2019	10:46	-133.363	43.039	0	21.50	0	12.6680	0	33.5670	8	25.349	0	21.328	0	250.8	4	95.6	4	-1E+10	1	-1E+10	1	-1E+10	1	-1E+10	1	-1E+10	1	-1E+10	1
4901784	128	C	01/05/2019	10:46	-133.363	43.039	0	23.50	0	12.6690	0	33.5670	8	25.349	0	23.312	0	250.7	4	95.6	4	-1E+10	1	-1E+10	1	-1E+10	1	-1E+10	1	-1E+10	1	-1E+10	1
4901784	128	C	01/05/2019	10:46	-133.363	43.039	0	25.40	0	12.6690	0	33.5680	8	25.350	0	25.197	0	250.7	4	95.6	4	-1E+10	1	-1E+10	1	-1E+10	1	-1E+10	1	-1E+10	1	-1E+10	1
4901784	128	C	01/05/2019	10:46	-133.363	43.039	0	27.30	0	12.6690	0	33.5700	8	25.352	0	27.082	0	250.7	4	95.6	4	-1E+10	1	-1E+10	1	-1E+10	1	-1E+10	1	-1E+10	1	-1E+10	1
4901784	128	C	01/05/2019	10:46	-133.363	43.039	0	29.20	0	12.6690	0	33.5710	8	25.352	0	28.966	0	250.6	4	95.6	4	-1E+10	1	-1E+10	1	-1E+10	1	-1E+10	1	-1E+10	1	-1E+10	1
4901784	128	C	01/05/2019	10:46	-133.363	43.039	0	31.10	0	12.6700	0	33.5710	8	25.352	0	30.851	0	250.6	4	95.6	4	-1E+10	1	-1E+10	1	-1E+10	1	-1E+10	1	-1E+10	1	-1E+10	1
4901784	128	C	01/05/2019	10:46	-133.363	43.039	0	33.10	0	12.6700	0	33.5720	8	25.353	0	32.835	0	250.6	4	95.6	4	-1E+10	1	-1E+10	1	-1E+10	1	-1E+10	1	-1E+10	1	-1E+10	1
4901784	128	C	01/05/2019	10:46	-133.363	43.039	0	35.00	0	12.6700	0	33.5720	8	25.353	0	34.719	0	250.6	4	95.5	4	-1E+10	1	-1E+10	1	-1E+10	1	-1E+10	1	-1E+10	1	-1E+10	1
4901784	128	C	01/05/2019	10:46	-133.363	43.039	0	36.90	0	12.6710	0	33.5720	8	25.353	0	36.604	0	250.5	4	95.5	4	-1E+10	1	-1E+10	1	-1E+10	1	-1E+10	1	-1E+10	1	-1E+10	1
4901784	128	C	01/05/2019	10:46	-133.363	43.039	0	38.80	0	12.6710	0	33.5730	8	25.354	0	38.488	0	250.3	4	95.4	4	-1E+10	1	-1E+10	1	-1E+10	1	-1E+10	1	-1E+10	1	-1E+10	1
4901784	128	C	01/05/2019	10:46	-133.363	43.039	0	41.00	0	12.6720	0	33.5740	8	25.354	0	40.671	0	250.3	4	95.5	4	-1E+10	1	-1E+10	1	-1E+10	1	-1E+10	1	-1E+10	1	-1E+10	1
4901784	128	C	01/05/2019	10:46	-133.363	43.039	0	43.00	0	12.6730	0	33.5740	8	25.354	0	42.654	0	250.2	4	95.4	4	-1E+10	1	-1E+10	1	-1E+10	1	-1E+10	1	-1E+10	1	-1E+10	1
4901784	128	C	01/05/2019	10:46	-133.363	43.039	0	45.10	0	12.6730	0	33.5750	8	25.355	0	44.737	0	250.2	4	95.4	4	-1E+10	1	-1E+10	1	-1E+10	1	-1E+10	1	-1E+10	1	-1E+10	1
4901784	128	C	01/05/2019	10:46	-133.363	43.039	0	47.00	0	12.6730	0	33.5750	8	25.355	0	46.622	0	250.2	4	95.4	4	-1E+10	1	-1E+10	1	-1E+10	1	-1E+10	1	-1E+10	1	-1E+10	1
4901784	128	C	01/05/2019	10:46	-133.363	43.039	0	49.00	0	12.6730	0	33.5760	8	25.356	0	48.605	0	250.0	4	95.3	4	-1E+10	1	-1E+10	1	-1E+10	1	-1E+10	1	-1E+10	1	-1E+10	1
4901784	128	C	01/05/2019	10:46	-133.363	43.039	0	51.00	0	12.6730	0	33.5760	8	25.356	0	50.589	0	250.0	4	95.3	4	-1E+10	1	-1E+10	1	-1E+10	1	-1E+10	1	-1E+10	1	-1E+10	1
4901784	128	C	01/05/2019	10:46	-133.363	43.039	0	53.00	0	12.6740	0	33.5760	8	25.356	0	52.573	0	249.9	4	95.3	4	-1E+10	1	-1E+10	1	-1E+10	1	-1E+10	1	-1E+10	1	-1E+10	1
4901784	128	C	01/05/2019	10:46	-133.363	43.039	0	55.00	0	12.6730	0	33.5770	8	25.357	0	54.556	0	250.0	4	95.3	4	-1E+10	1	-1E+10	1	-1E+10	1	-1E+10	1	-1E+10	1	-1E+10	1
4901784	128	C	01/05/2019	10:46	-133.363	43.039	0	57.10	0	12.6710	0	33.5790	8	25.359	0	56.639	0	249.8	4	95.3	4	-1E+10	1	-1E+10	1	-1E+10	1	-1E+10	1	-1E+10	1	-1E+10	1
4901784	128	C	01/05/2019	10:46	-133.363	43.039	0	59.10	0	12.6720	0	33.5790	8	25.359	0	58.622	0	249.7	4	95.2	4	-1E+10	1	-1E+10	1	-1E+10	1	-1E+10	1	-1E+10	1	-1E+10	1
4901784	128	C	01/05/2019	10:46	-133.363	43.039	0	61.20	0	12.6730	0	33.5800	8	25.359	0	60.705	0	249.7	4	95.2	4	-1E+10	1	-1E+10	1	-1E+10	1	-1E+10	1	-1E+10	1	-1E+10	1
4901784	128	C	01/05/2019	10:46	-133.363	43.039	0	63.30	0	12.6720	0	33.5810	8	25.360	0	62.788	0	249.4	4	95.1	4	-1E+10	1	-1E+10	1	-1E+10	1	-1E+10	1	-1E+10	1	-1E+10	1
4901784	128	C	01/05/2019	10:46	-133.363	43.039	0	65.40	0	12.6730	0	33.5810	8	25.360	0	64.871	0	249.4	4	95.1	4	-1E+10	1	-1E+10	1	-1E+10	1	-1E+10	1	-1E+10	1	-1E+10	1
4901784	128	C	01/05/2019	10:46	-133.363	43.039	0	67.40	0	12.6680	0	33.5810	8	25.361	0	66.854	0	249.3	4	95.1	4	-1E+10	1	-1E+10	1	-1E+10	1	-1E+10	1	-1E+10	1	-1E+10	1
4901784	128	C	01/05/2019	10:46	-133.363	43.039	0	69.50	0	12.6730	0	33.5820	8	25.361	0	68.937	0	249.2	4	95.0	4	-1E+10	1	-1E+10	1	-1E+10	1	-1E+10	1	-1E+10	1	-1E+10	1
4901784	128	C	01/05/2019	10:46	-133.363	43.039	0	71.60	0	12.6730	0	33.5830	8	25.362	0	71.019	0	249.2	4	95.0	4	-1E+10	1	-1E+10	1	-1E+10	1	-1E+10	1	-1E+10	1	-1E+10	1
4901784	128	C	01/05/2019	10:46	-133.363	43.039	0	73.60	0	12.6730	0	33.5820	8	25.361	0	73.003	0	248.9	4	94.9	4	-1E+10	1	-1E+10	1	-1E+10	1	-1E+10	1	-1E+10	1	-1E+10	1
4901784	128	C	01/05/2019	10:46	-133.363	43.039	0	75.70	0	12.6740	0	33.5830	8	25.362	0	75.085	0	248.7	4	94.9	4	-1E+10	1	-1E+10	1	-1E+10	1	-1E+10	1	-1E+10	1	-1E+10	1
4901784	128	C	01/05/2019	10:46	-133.363	43.039	0	77.70	0	12.6700	0	33.5840	8	25.364	0	77.069	0	248.5	4	94.8	4	-1E+10	1	-1E+10	1	-1E+10	1	-1E+10	1	-1E+10	1	-1E+10	1
4901784	128	C	01/05/2019	10:46	-133.363	43.039	0	79.80	0	12.6750	0	33.5840	8	25.363	0	79.151	0	248.3	4	94.7	4	-1E+10	1	-1E+10	1	-1E+10	1	-1E+10	1	-1E+10	1	-1E+10	1
4901784	128	C	01/05/2019	10:46	-133.363	43.039	0	81.80	0	12.6750	0	33.5840	8	25.363	0	81.135	0	248.1	4	94.6	4	-1E+10	1	-1E+10	1	-1E+10	1	-1E+10	1	-1E+10	1	-1E+10	1
4901784	128	C	01/05/2019	10:46	-133.363	43.039	0	83.80	0	12.6750	0	33.5830	8	25.362	0	83.118	0	247.7	4	94.5	4	-1E+10	1	-1E+10	1	-1E+10	1	-1E+10	1	-1E+10	1	-1E+10	1
4901784	128	C	01/05/2019	10:46	-133.363	43.039	0	85.80	0	12.6760	0	33.5820	8	25.361	0	85.101	0	247.6	4	94.4	4	-1E+10	1	-1E+10	1	-1E+10	1	-1E+10	1	-1E+10	1	-1E+10	1
4901784	128	C	01/05/2019	10:46	-133.363	43.039	0	87.80	0	12.6760	0	33.5800	8	25.360	0	87.085	0	247.4	4	94.3	4	-1E+10	1	-1E+10	1	-1E+10	1	-1E+10	1	-1E+10	1	-1E+10	1
4901784	128	C	01/05/2019	10:46	-133.363	43.039	0	89.70	0	12.6760	0	33.5760	8	25.356	0	88.969	0	247.0	4	94.2	4	-1E+10	1	-1E+10	1	-1E+10	1	-1E+10	1	-1E+10	1	-1E+10	1
4901784	128	C	01/05/2019	10:46	-133.363	43.039	0	92.10	0	12.6730	0	33.5680	8	25.351	0	91.349	0	246.7	4	94.1	4	-1E+10	1	-1E+10	1	-1E+10	1	-1E+10	1	-1E+10	1	-1E+10	1
4901784	128	C	01/05/2019	10:46	-133.363	43.039	0	93.80	0	12.6650	0	33.5540	8	25.342	0	93.034	0	246.0	4	93.8	4	-1E+10	1	-1E+10	1	-1E+10	1	-1E+10	1	-1E+10	1	-1E+10	1
4901784	128	C	01/05/2019	10:46	-133.363	43.039	0	95.30	0	12.5320	0	33.5430	8	25.359	0	94.522	0	246.1	4	93.5	4	-1E+10	1	-1E+10	1	-1E+10	1	-1E+10	1	-1E+10	1	-1E+10	1
4901784	128	C	01/05/2019	10:46	-133.363	43.039	0	96.70	0	12.4560	0	33.5220	8	25.357	0	95.910	0	246.0	4	93.4	4	-1E+10	1	-1E+10	1	-1E+10	1	-1E+10	1	-1E+10	1	-1E+10	1
4901784	128	C	01/05/2019	10:46	-133.363	43.039	0	98.10	0	11.9410	0	33.5470	8	25.475	0	97.298	0	246.6	4	92.6	4	-1E+10	1	-1E+10	1	-1E+10	1	-1E+10	1	-1E+10	1	-1E+10	1
4901784	128	C	01/05/2019	10:46	-133.363	43.039	0	99.60	0	10.3620	0	33.5930	8	25.794	0	98.786	0	252.7	4	91.8	4	-1E+10	1	-1E+10	1	-1E+10	1	-1E+10	1	-1E+10	1	-1E+10	1
4901784	128	C	01/05/2019	10:46	-133.363	43.039	0	102.90	0	9.6230	0	33.5730	8	25.903	0	102.058	0	255.7	4	91.4	4	-1E+10	1	-1E+10	1	-1E+10	1	-1E+10	1	-1E+10	1	-1E+10	1
4901784	128	C	01/05/2019	10:46	-133.363	43.039	0	104.60	0	9.2890	0	33.5850	8	25.966	0	103.743	0	256.7	4	91.1	4	-1E+10	1	-1E+10	1	-1E+10	1	-1E+10	1	-1E+10	1	-1E+10	1
4901784	128	C	01/05/2019	10:46	-133.363	43.039	0	107.20	0	9.1170	0	33.5830	8	25.992	0	106.321	0	257.0	4	90.9	4	-1E+10	1	-1E+10	1	-1E+10	1	-1E+10	1	-1E+10	1	-1E+10	1
4901784	128	C	01/05/2019	10:46	-133.363	43.039	0	109.80	0	9.0330	0	33.5820	8	26.005	0	108.899	0	256.2	4	90.4	4	-1E+10	1	-1E+10	1	-1E+10	1	-1E+10	1	-1E+10	1	-1E+10	1
4901784	128	C	01/05/2019	10:46	-133.363	43.039	0	112.50	0	8.9530	0	33.5810	8	26.017	0	111.577	0	255.1	4	89.9	4	-1E+10	1	-1E+10	1	-1E+10	1	-1E+10	1	-1E+10	1	-1E+10	1
4901784	128	C	01/05/2019	10:46	-133.363	43.039	0	115.20	0	8.8110	0	33.5830	8	26.040	0	114.254	0	254.1	4	89.3	4	-1E+10	1	-1E+10	1	-1E+10	1	-1E+10	1	-1E+10	1	-1E+10	1
4901784	128	C	01/05/2019	10:46	-133.363	43.039	0	117.10	0	8.7620	0	33.5880	8	26.052	0	116.138	0	253.5	4	88.9	4	-1E+10	1	-1E+10	1	-1E+10	1	-1E+10	1	-1E+10	1	-1E+10	1
4901784	128	C	01/05/2019	10:46	-133.363	43.039	0	119.80	0	8.6340	0	33.5920	8	26.075	0	118.815	0	252.1	4	88.2	4	-1E+10	1	-1E+10	1	-1E+10	1	-1E+10	1	-1E+10	1	-1E+10	1
4901784	128	C	01/05/2019	10:46	-133.363	43.039	0	123.00	0	8.4560	0	33.6190	8	26.123	0	121.987	0	251.4	4	87.6	4	-1E+10	1	-1E+10	1	-1E+10	1	-1E+10	1	-1E+10	1	-1E+10	1
4901784	128	C	01/05/2019	10:46	-133.363	43.039	0	124.80	0	8.4140	0	33.6380	8	26.145	0	123.772	0	250.4	4	87.2	4	-1E+10	1	-1E+10	1	-1E+10	1	-1E+10	1	-1E+10	1	-1E+10	1
4901784	128	C	01/05/2019	10:46	-133.363	43.039	0	127.10	0	8.3710	0	33.6520	8	26.162	0	126.052	0	249.2	4	86.7	4	-1E+10	1	-1E+10	1	-1E+10	1	-1E+10	1	-1E+10	1	-1E+10	1
4901784	128	C	01/05/2019	10:46	-133.363	43.039	0	130.10	0	8.3140	0	33.6750	8	26.189	0	129.027	0	246.9	4	85.8	4	-1E+10	1	-1E+10	1	-1E+10	1	-1E+10	1	-1E+10	1	-1E+10	1
4901784	128	C	01/05/2019	10:46	-133.363	43.039	0	132.40	0	8.2450	0	33.7210	8	26.235	0	131.307	0	245.0	4	85.1	4	-1E+10	1	-1E+10	1	-1E+10	1	-1E+10	1	-1E+10	1	-1E+10	1
4901784	128	C	01/05/2019	10:46	-133.363	43.039	0	134.90	0	8.1640	0	33.7900	8	26.302	0	133.785	0	243.3	4	84.4	4	-1E+10	1	-1E+10	1	-1E+10	1	-1E+10	1	-1E+10	1	-1E+10	1
4901784	128	C	01/05/2019	10:46	-133.363	43.039	0	137.50	0	8.0940	0	33.8380	8	26.350	0	136.363	0	241.9	4	83.8	4	-1E+10	1	-1E+10	1	-1E+10	1	-1E+10	1	-1E+10	1	-1E+10	1
4901784	128	C	01/05/2019	10:46	-133.363	43.039	0	140.20	0	8.0260	0	33.9330	8	26.434	0	139.040	0	240.6	4	83.3	4	-1E+10	1	-1E+10	1	-1E+10	1	-1E+10	1	-1E+10	1	-1E+10	1
4901784	128	C	01/05/2019	10:46	-133.363	43.039	0	142.80	0	8.0090	0	33.9590	8	26.457	0	141.617	0	240.0	4	83.0	4	-1E+10	1	-1E+10	1	-1E+10	1	-1E+10	1	-1E+10	1	-1E+10	1
4901784	128	C	01/05/2019	10:46	-133.363	43.039	0	144.60	0	7.9990	0	33.9700	8	26.467	0	143.402	0	239.3	4	82.8	4	-1E+10	1	-1E+10	1	-1E+10	1	-1E+10	1	-1E+10	1	-1E+10	1
4901784	128	C	01/05/2019	10:46	-133.363	43.039	0	147.20	0	7.9900	0	33.9910	8	26.485	0	145.979	0	238.5	4	82.5	4	-1E+10	1	-1E+10	1	-1E+10	1	-1E+10	1	-1E+10	1	-1E+10	1
4901784	128	C	01/05/2019	10:46	-133.363	43.039	0	149.80	0	7.9820	0	34.0080	8	26.500	0	148.557	0	237.3	4	82.1	4	-1E+10	1	-1E+10	1	-1E+10	1	-1E+10	1	-1E+10	1	-1E+10	1
4901784	128	C	01/05/2019	10:46	-133.363	43.039	0	152.50	0	7.9520	0	34.0500	8	26.537	0	151.234	0	235.8	4	81.5	4	-1E+10	1	-1E+10	1	-1E+10	1	-1E+10	1	-1E+10	1	-1E+10	1
4901784	128	C	01/05/2019	10:46	-133.363	43.039	0	155.30	0	7.8950	0	34.1170	8	26.598	0	154.009	0	234.4	4	81.0	4	-1E+10	1	-1E+10	1	-1E+10	1	-1E+10	1	-1E+10	1	-1E+10	1
4901784	128	C	01/05/2019	10:46	-133.363	43.039	0	157.10	0	7.8850	0	34.1490	8	26.625	0	155.794	0	233.3	4	80.6	4	-1E+10	1	-1E+10	1	-1E+10	1	-1E+10	1	-1E+10	1	-1E+10	1
4901784	128	C	01/05/2019	10:46	-133.363	43.039	0	159.80	0	7.8740	0	34.2030	8	26.669	0	158.470	0	232.0	4	80.2	4	-1E+10	1	-1E+10	1	-1E+10	1	-1E+10	1	-1E+10	1	-1E+10	1
4901784	128	C	01/05/2019	10:46	-133.363	43.039	0	162.40	0	7.8780	0	34.2370	8	26.695	0	161.048	0	230.6	4	79.7	4	-1E+10	1	-1E+10	1	-1E+10	1	-1E+10	1	-1E+10	1	-1E+10	1
4901784	128	C	01/05/2019	10:46	-133.363	43.039	0	164.80	0	7.8980	0	34.2710	8	26.719	0	163.427	0	228.8	4	79.2	4	-1E+10	1	-1E+10	1	-1E+10	1	-1E+10	1	-1E+10	1	-1E+10	1
4901784	128	C	01/05/2019	10:46	-133.363	43.039	0	167.40	0	7.8910	0	34.3110	8	26.752	0	166.004	0	226.3	4	78.3	4	-1E+10	1	-1E+10	1	-1E+10	1	-1E+10	1	-1E+10	1	-1E+10	1
4901784	128	C	01/05/2019	10:46	-133.363	43.039	0	169.70	0	7.8990	0	34.3600	8	26.789	0	168.284	0	223.8	4	77.5	4	-1E+10	1	-1E+10	1	-1E+10	1	-1E+10	1	-1E+10	1	-1E+10	1
4901784	128	C	01/05/2019	10:46	-133.363	43.039	0	172.20	0	7.9200	0	34.4010	8	26.818	0	170.762	0	221.1	4	76.6	4	-1E+10	1	-1E+10	1	-1E+10	1	-1E+10	1	-1E+10	1	-1E+10	1
4901784	128	C	01/05/2019	10:46	-133.363	43.039	0	174.70	0	7.9430	0	34.4570	8	26.859	0	173.240	0	217.4	4	75.4	4	-1E+10	1	-1E+10	1	-1E+10	1	-1E+10	1	-1E+10	1	-1E+10	1
4901784	128	C	01/05/2019	10:46	-133.363	43.039	0	177.20	0	7.9730	0	34.5050	8	26.892	0	175.718	0	213.9	4	74.3	4	-1E+10	1	-1E+10	1	-1E+10	1	-1E+10	1	-1E+10	1	-1E+10	1
4901784	128	C	01/05/2019	10:46	-133.363	43.039	0	179.70	0	7.9950	0	34.5280	8	26.907	0	178.196	0	209.7	4	72.8	4	-1E+10	1	-1E+10	1	-1E+10	1	-1E+10	1	-1E+10	1	-1E+10	1
4901784	128	C	01/05/2019	10:46	-133.363	43.039	0	182.20	0	8.0610	0	34.5910	8	26.947	0	180.674	0	203.5	4	70.8	4	-1E+10	1	-1E+10	1	-1E+10	1	-1E+10	1	-1E+10	1	-1E+10	1
4901784	128	C	01/05/2019	10:46	-133.363	43.039	0	184.70	0	8.1390	0	34.6600	8	26.989	0	183.152	0	197.3	4	68.8	4	-1E+10	1	-1E+10	1	-1E+10	1	-1E+10	1	-1E+10	1	-1E+10	1
4901784	128	C	01/05/2019	10:46	-133.363	43.039	0	187.20	0	8.2090	0	34.7100	8	27.018	0	185.630	0	191.9	4	67.1	4	-1E+10	1	-1E+10	1	-1E+10	1	-1E+10	1	-1E+10	1	-1E+10	1
4901784	128	C	01/05/2019	10:46	-133.363	43.039	0	190.00	0	8.2940	0	34.7910	8	27.068	0	188.405	0	188.1	4	65.9	4	-1E+10	1	-1E+10	1	-1E+10	1	-1E+10	1	-1E+10	1	-1E+10	1
4901784	128	C	01/05/2019	10:46	-133.363	43.039	0	192.60	0	8.3070	0	34.8130	8	27.084	0	190.982	0	186.2	4	65.3	4	-1E+10	1	-1E+10	1	-1E+10	1	-1E+10	1	-1E+10	1	-1E+10	1
4901784	128	C	01/05/2019	10:46	-133.363	43.039	0	195.90	0	8.3240	0	34.8410	8	27.103	0	194.253	0	183.6	4	64.4	4	-1E+10	1	-1E+10	1	-1E+10	1	-1E+10	1	-1E+10	1	-1E+10	1
4901784	128	C	01/05/2019	10:46	-133.363	43.039	0	197.80	0	8.3390	0	34.8700	8	27.124	0	196.136	0	181.9	4	63.8	4	-1E+10	1	-1E+10	1	-1E+10	1	-1E+10	1	-1E+10	1	-1E+10	1
4901784	128	C	01/05/2019	10:46	-133.363	43.039	0	200.10	0	8.3420	0	34.8770	8	27.129	0	198.415	0	180.2	4	63.2	4	-1E+10	1	-1E+10	1	-1E+10	1	-1E+10	1	-1E+10	1	-1E+10	1
4901784	128	C	01/05/2019	10:46	-133.363	43.039	0	202.50	0	8.3440	0	34.8870	8	27.136	0	200.794	0	178.2	4	62.5	4	-1E+10	1	-1E+10	1	-1E+10	1	-1E+10	1	-1E+10	1	-1E+10	1
4901784	128	C	01/05/2019	10:46	-133.363	43.039	0	204.90	0	8.3420	0	34.9140	8	27.158	0	203.173	0	175.4	4	61.5	4	-1E+10	1	-1E+10	1	-1E+10	1	-1E+10	1	-1E+10	1	-1E+10	1
4901784	128	C	01/05/2019	10:46	-133.363	43.039	0	207.40	0	8.3440	0	34.9360	8	27.175	0	205.650	0	172.7	4	60.6	4	-1E+10	1	-1E+10	1	-1E+10	1	-1E+10	1	-1E+10	1	-1E+10	1
4901784	128	C	01/05/2019	10:46	-133.363	43.039	0	209.70	0	8.3360	0	34.9580	8	27.193	0	207.930	0	170.2	4	59.7	4	-1E+10	1	-1E+10	1	-1E+10	1	-1E+10	1	-1E+10	1	-1E+10	1
4901784	128	C	01/05/2019	10:46	-133.363	43.039	0	212.80	0	8.3030	0	34.9930	8	27.226	0	211.002	0	166.8	4	58.5	4	-1E+10	1	-1E+10	1	-1E+10	1	-1E+10	1	-1E+10	1	-1E+10	1
4901784	128	C	01/05/2019	10:46	-133.363	43.039	0	215.20	0	8.2880	0	35.0010	8	27.235	0	213.381	0	165.0	4	57.9	4	-1E+10	1	-1E+10	1	-1E+10	1	-1E+10	1	-1E+10	1	-1E+10	1
4901784	128	C	01/05/2019	10:46	-133.363	43.039	0	217.70	0	8.2610	0	35.0110	8	27.247	0	215.858	0	163.0	4	57.1	4	-1E+10	1	-1E+10	1	-1E+10	1	-1E+10	1	-1E+10	1	-1E+10	1
4901784	128	C	01/05/2019	10:46	-133.363	43.039	0	220.10	0	8.2310	0	35.0180	8	27.257	0	218.237	0	161.1	4	56.5	4	-1E+10	1	-1E+10	1	-1E+10	1	-1E+10	1	-1E+10	1	-1E+10	1
4901784	128	C	01/05/2019	10:46	-133.363	43.039	0	222.50	0	8.1930	0	35.0250	8	27.268	0	220.615	0	159.0	4	55.7	4	-1E+10	1	-1E+10	1	-1E+10	1	-1E+10	1	-1E+10	1	-1E+10	1
4901784	128	C	01/05/2019	10:46	-133.363	43.039	0	225.00	0	8.1370	0	35.0290	8	27.280	0	223.092	0	157.5	4	55.1	4	-1E+10	1	-1E+10	1	-1E+10	1	-1E+10	1	-1E+10	1	-1E+10	1
4901784	128	C	01/05/2019	10:46	-133.363	43.039	0	227.60	0	8.0840	0	35.0360	8	27.293	0	225.669	0	156.6	4	54.7	4	-1E+10	1	-1E+10	1	-1E+10	1	-1E+10	1	-1E+10	1	-1E+10	1
4901784	128	C	01/05/2019	10:46	-133.363	43.039	0	230.00	0	8.0570	0	35.0380	8	27.299	0	228.047	0	155.8	4	54.4	4	-1E+10	1	-1E+10	1	-1E+10	1	-1E+10	1	-1E+10	1	-1E+10	1
4901784	128	C	01/05/2019	10:46	-133.363	43.039	0	232.50	0	8.0300	0	35.0410	8	27.305	0	230.525	0	154.9	4	54.0	4	-1E+10	1	-1E+10	1	-1E+10	1	-1E+10	1	-1E+10	1	-1E+10	1
4901784	128	C	01/05/2019	10:46	-133.363	43.039	0	235.10	0	7.9940	0	35.0430	8	27.312	0	233.101	0	153.8	4	53.6	4	-1E+10	1	-1E+10	1	-1E+10	1	-1E+10	1	-1E+10	1	-1E+10	1
4901784	128	C	01/05/2019	10:46	-133.363	43.039	0	237.60	0	7.9610	0	35.0440	8	27.318	0	235.578	0	152.5	4	53.1	4	-1E+10	1	-1E+10	1	-1E+10	1	-1E+10	1	-1E+10	1	-1E+10	1
4901784	128	C	01/05/2019	10:46	-133.363	43.039	0	240.10	0	7.9000	0	35.0460	8	27.329	0	238.056	0	151.2	4	52.6	4	-1E+10	1	-1E+10	1	-1E+10	1	-1E+10	1	-1E+10	1	-1E+10	1
4901784	128	C	01/05/2019	10:46	-133.363	43.039	0	242.90	0	7.8490	0	35.0490	8	27.339	0	240.830	0	150.3	4	52.2	4	-1E+10	1	-1E+10	1	-1E+10	1	-1E+10	1	-1E+10	1	-1E+10	1
4901784	128	C	01/05/2019	10:46	-133.363	43.039	0	245.50	0	7.8040	0	35.0500	8	27.346	0	243.407	0	149.5	4	51.9	4	-1E+10	1	-1E+10	1	-1E+10	1	-1E+10	1	-1E+10	1	-1E+10	1
4901784	128	C	01/05/2019	10:46	-133.363	43.039	0	247.20	0	7.7910	0	35.0500	8	27.348	0	245.091	0	149.0	4	51.7	4	-1E+10	1	-1E+10	1	-1E+10	1	-1E+10	1	-1E+10	1	-1E+10	1
4901784	128	C	01/05/2019	10:46	-133.363	43.039	0	249.90	0	7.7460	0	35.0530	8	27.357	0	247.766	0	148.2	4	51.4	4	-1E+10	1	-1E+10	1	-1E+10	1	-1E+10	1	-1E+10	1	-1E+10	1
4901784	128	C	01/05/2019	10:46	-133.363	43.039	0	252.60	0	7.7320	0	35.0520	8	27.359	0	250.442	0	147.6	4	51.2	4	-1E+10	1	-1E+10	1	-1E+10	1	-1E+10	1	-1E+10	1	-1E+10	1
4901784	128	C	01/05/2019	10:46	-133.363	43.039	0	255.30	0	7.7080	0	35.0520	8	27.362	0	253.117	0	146.7	4	50.8	4	-1E+10	1	-1E+10	1	-1E+10	1	-1E+10	1	-1E+10	1	-1E+10	1
4901784	128	C	01/05/2019	10:46	-133.363	43.039	0	257.90	0	7.6760	0	35.0520	8	27.367	0	255.693	0	146.0	4	50.5	4	-1E+10	1	-1E+10	1	-1E+10	1	-1E+10	1	-1E+10	1	-1E+10	1
4901784	128	C	01/05/2019	10:46	-133.363	43.039	0	259.70	0	7.6490	0	35.0530	8	27.372	0	257.477	0	145.5	4	50.3	4	-1E+10	1	-1E+10	1	-1E+10	1	-1E+10	1	-1E+10	1	-1E+10	1
4901784	128	C	01/05/2019	10:46	-133.363	43.039	0	262.50	0	7.6090	0	35.0550	8	27.379	0	260.251	0	144.9	4	50.1	4	-1E+10	1	-1E+10	1	-1E+10	1	-1E+10	1	-1E+10	1	-1E+10	1
4901784	128	C	01/05/2019	10:46	-133.363	43.039	0	265.20	0	7.6000	0	35.0540	8	27.380	0	262.926	0	143.9	4	49.7	4	-1E+10	1	-1E+10	1	-1E+10	1	-1E+10	1	-1E+10	1	-1E+10	1
4901784	128	C	01/05/2019	10:46	-133.363	43.039	0	267.10	0	7.5850	0	35.0540	8	27.382	0	264.809	0	143.0	4	49.4	4	-1E+10	1	-1E+10	1	-1E+10	1	-1E+10	1	-1E+10	1	-1E+10	1
4901784	128	C	01/05/2019	10:46	-133.363	43.039	0	269.80	0	7.5150	0	35.0560	8	27.394	0	267.484	0	141.3	4	48.7	4	-1E+10	1	-1E+10	1	-1E+10	1	-1E+10	1	-1E+10	1	-1E+10	1
4901784	128	C	01/05/2019	10:46	-133.363	43.039	0	272.70	0	7.4670	0	35.0560	8	27.401	0	270.357	0	140.0	4	48.2	4	-1E+10	1	-1E+10	1	-1E+10	1	-1E+10	1	-1E+10	1	-1E+10	1
4901784	128	C	01/05/2019	10:46	-133.363	43.039	0	274.50	0	7.4280	0	35.0550	8	27.406	0	272.140	0	138.6	4	47.7	4	-1E+10	1	-1E+10	1	-1E+10	1	-1E+10	1	-1E+10	1	-1E+10	1
4901784	128	C	01/05/2019	10:46	-133.363	43.039	0	277.30	0	7.3830	0	35.0550	8	27.412	0	274.914	0	137.3	4	47.2	4	-1E+10	1	-1E+10	1	-1E+10	1	-1E+10	1	-1E+10	1	-1E+10	1
4901784	128	C	01/05/2019	10:46	-133.363	43.039	0	280.00	0	7.3180	0	35.0560	8	27.422	0	277.589	0	136.0	4	46.7	4	-1E+10	1	-1E+10	1	-1E+10	1	-1E+10	1	-1E+10	1	-1E+10	1
4901784	128	C	01/05/2019	10:46	-133.363	43.039	0	282.80	0	7.2650	0	35.0580	8	27.431	0	280.363	0	135.0	4	46.3	4	-1E+10	1	-1E+10	1	-1E+10	1	-1E+10	1	-1E+10	1	-1E+10	1
4901784	128	C	01/05/2019	10:46	-133.363	43.039	0	285.70	0	7.2370	0	35.0570	8	27.435	0	283.236	0	134.0	4	45.9	4	-1E+10	1	-1E+10	1	-1E+10	1	-1E+10	1	-1E+10	1	-1E+10	1
4901784	128	C	01/05/2019	10:46	-133.363	43.039	0	287.60	0	7.2160	0	35.0580	8	27.438	0	285.119	0	133.4	4	45.7	4	-1E+10	1	-1E+10	1	-1E+10	1	-1E+10	1	-1E+10	1	-1E+10	1
4901784	128	C	01/05/2019	10:46	-133.363	43.039	0	289.50	0	7.1860	0	35.0570	8	27.442	0	287.001	0	132.7	4	45.4	4	-1E+10	1	-1E+10	1	-1E+10	1	-1E+10	1	-1E+10	1	-1E+10	1
4901784	128	C	01/05/2019	10:46	-133.363	43.039	0	292.30	0	7.1550	0	35.0570	8	27.446	0	289.775	0	131.6	4	45.0	4	-1E+10	1	-1E+10	1	-1E+10	1	-1E+10	1	-1E+10	1	-1E+10	1
4901784	128	C	01/05/2019	10:46	-133.363	43.039	0	295.20	0	7.1180	0	35.0560	8	27.451	0	292.648	0	130.4	4	44.6	4	-1E+10	1	-1E+10	1	-1E+10	1	-1E+10	1	-1E+10	1	-1E+10	1
4901784	128	C	01/05/2019	10:46	-133.363	43.039	0	297.10	0	7.0840	0	35.0560	8	27.455	0	294.530	0	129.7	4	44.3	4	-1E+10	1	-1E+10	1	-1E+10	1	-1E+10	1	-1E+10	1	-1E+10	1
4901784	128	C	01/05/2019	10:46	-133.363	43.039	0	300.00	0	7.0210	0	35.0580	8	27.466	0	297.403	0	128.7	4	43.9	4	-1E+10	1	-1E+10	1	-1E+10	1	-1E+10	1	-1E+10	1	-1E+10	1
4901784	128	C	01/05/2019	10:46	-133.363	43.039	0	302.90	0	6.9710	0	35.0600	8	27.474	0	300.275	0	128.0	4	43.6	4	-1E+10	1	-1E+10	1	-1E+10	1	-1E+10	1	-1E+10	1	-1E+10	1
4901784	128	C	01/05/2019	10:46	-133.363	43.039	0	304.80	0	6.9580	0	35.0590	8	27.475	0	302.158	0	127.6	4	43.5	4	-1E+10	1	-1E+10	1	-1E+10	1	-1E+10	1	-1E+10	1	-1E+10	1
4901784	128	C	01/05/2019	10:46	-133.363	43.039	0	307.70	0	6.9560	0	35.0580	8	27.475	0	305.030	0	126.6	4	43.1	4	-1E+10	1	-1E+10	1	-1E+10	1	-1E+10	1	-1E+10	1	-1E+10	1
4901784	128	C	01/05/2019	10:46	-133.363	43.039	0	310.50	0	6.9040	0	35.0590	8	27.483	0	307.804	0	125.4	4	42.7	4	-1E+10	1	-1E+10	1	-1E+10	1	-1E+10	1	-1E+10	1	-1E+10	1
4901784	128	C	01/05/2019	10:46	-133.363	43.039	0	312.40	0	6.8760	0	35.0590	8	27.487	0	309.686	0	124.8	4	42.4	4	-1E+10	1	-1E+10	1	-1E+10	1	-1E+10	1	-1E+10	1	-1E+10	1
4901784	128	C	01/05/2019	10:46	-133.363	43.039	0	315.30	0	6.8220	0	35.0600	8	27.495	0	312.559	0	123.5	4	41.9	4	-1E+10	1	-1E+10	1	-1E+10	1	-1E+10	1	-1E+10	1	-1E+10	1
4901784	128	C	01/05/2019	10:46	-133.363	43.039	0	318.10	0	6.7900	0	35.0580	8	27.498	0	315.332	0	122.3	4	41.5	4	-1E+10	1	-1E+10	1	-1E+10	1	-1E+10	1	-1E+10	1	-1E+10	1
4901784	128	C	01/05/2019	10:46	-133.363	43.039	0	320.00	0	6.7590	0	35.0580	8	27.502	0	317.214	0	121.4	4	41.2	4	-1E+10	1	-1E+10	1	-1E+10	1	-1E+10	1	-1E+10	1	-1E+10	1
4901784	128	C	01/05/2019	10:46	-133.363	43.039	0	321.90	0	6.7260	0	35.0570	8	27.506	0	319.096	0	120.6	4	40.9	4	-1E+10	1	-1E+10	1	-1E+10	1	-1E+10	1	-1E+10	1	-1E+10	1
4901784	128	C	01/05/2019	10:46	-133.363	43.039	0	324.70	0	6.6510	0	35.0610	8	27.519	0	321.870	0	119.6	4	40.4	4	-1E+10	1	-1E+10	1	-1E+10	1	-1E+10	1	-1E+10	1	-1E+10	1
4901784	128	C	01/05/2019	10:46	-133.363	43.039	0	327.60	0	6.6130	0	35.0610	8	27.524	0	324.742	0	118.8	4	40.1	4	-1E+10	1	-1E+10	1	-1E+10	1	-1E+10	1	-1E+10	1	-1E+10	1
4901784	128	C	01/05/2019	10:46	-133.363	43.039	0	329.40	0	6.5870	0	35.0630	8	27.529	0	326.525	0	118.3	4	39.9	4	-1E+10	1	-1E+10	1	-1E+10	1	-1E+10	1	-1E+10	1	-1E+10	1
4901784	128	C	01/05/2019	10:46	-133.363	43.039	0	332.30	0	6.5620	0	35.0610	8	27.531	0	329.397	0	117.5	4	39.7	4	-1E+10	1	-1E+10	1	-1E+10	1	-1E+10	1	-1E+10	1	-1E+10	1
4901784	128	C	01/05/2019	10:46	-133.363	43.039	0	335.10	0	6.5130	0	35.0630	8	27.539	0	332.171	0	116.7	4	39.3	4	-1E+10	1	-1E+10	1	-1E+10	1	-1E+10	1	-1E+10	1	-1E+10	1
4901784	128	C	01/05/2019	10:46	-133.363	43.039	0	337.00	0	6.4960	0	35.0640	8	27.543	0	334.052	0	116.2	4	39.2	4	-1E+10	1	-1E+10	1	-1E+10	1	-1E+10	1	-1E+10	1	-1E+10	1
4901784	128	C	01/05/2019	10:46	-133.363	43.039	0	339.80	0	6.4700	0	35.0630	8	27.545	0	336.826	0	115.2	4	38.8	4	-1E+10	1	-1E+10	1	-1E+10	1	-1E+10	1	-1E+10	1	-1E+10	1
4901784	128	C	01/05/2019	10:46	-133.363	43.039	0	342.60	0	6.4460	0	35.0630	8	27.548	0	339.599	0	114.1	4	38.4	4	-1E+10	1	-1E+10	1	-1E+10	1	-1E+10	1	-1E+10	1	-1E+10	1
4901784	128	C	01/05/2019	10:46	-133.363	43.039	0	344.50	0	6.4180	0	35.0620	8	27.551	0	341.481	0	113.2	4	38.1	4	-1E+10	1	-1E+10	1	-1E+10	1	-1E+10	1	-1E+10	1	-1E+10	1
4901784	128	C	01/05/2019	10:46	-133.363	43.039	0	347.30	0	6.3570	0	35.0650	8	27.562	0	344.254	0	112.0	4	37.6	4	-1E+10	1	-1E+10	1	-1E+10	1	-1E+10	1	-1E+10	1	-1E+10	1
4901784	128	C	01/05/2019	10:46	-133.363	43.039	0	350.20	0	6.3270	0	35.0620	8	27.564	0	347.126	0	110.6	4	37.1	4	-1E+10	1	-1E+10	1	-1E+10	1	-1E+10	1	-1E+10	1	-1E+10	1
4901784	128	C	01/05/2019	10:46	-133.363	43.039	0	352.00	0	6.2620	0	35.0620	8	27.572	0	348.909	0	109.8	4	36.8	4	-1E+10	1	-1E+10	1	-1E+10	1	-1E+10	1	-1E+10	1	-1E+10	1
4901784	128	C	01/05/2019	10:46	-133.363	43.039	0	354.80	0	6.2100	0	35.0600	8	27.577	0	351.682	0	108.4	4	36.3	4	-1E+10	1	-1E+10	1	-1E+10	1	-1E+10	1	-1E+10	1	-1E+10	1
4901784	128	C	01/05/2019	10:46	-133.363	43.039	0	357.50	0	6.1330	0	35.0630	8	27.590	0	354.356	0	107.2	4	35.8	4	-1E+10	1	-1E+10	1	-1E+10	1	-1E+10	1	-1E+10	1	-1E+10	1
4901784	128	C	01/05/2019	10:46	-133.363	43.039	0	360.30	0	6.1150	0	35.0640	8	27.593	0	357.129	0	106.2	4	35.5	4	-1E+10	1	-1E+10	1	-1E+10	1	-1E+10	1	-1E+10	1	-1E+10	1
4901784	128	C	01/05/2019	10:46	-133.363	43.039	0	363.10	0	6.0920	0	35.0650	8	27.597	0	359.902	0	104.9	4	35.0	4	-1E+10	1	-1E+10	1	-1E+10	1	-1E+10	1	-1E+10	1	-1E+10	1
4901784	128	C	01/05/2019	10:46	-133.363	43.039	0	364.90	0	6.0370	0	35.0660	8	27.604	0	361.684	0	104.0	4	34.7	4	-1E+10	1	-1E+10	1	-1E+10	1	-1E+10	1	-1E+10	1	-1E+10	1
4901784	128	C	01/05/2019	10:46	-133.363	43.039	0	367.70	0	6.0180	0	35.0660	8	27.607	0	364.457	0	102.8	4	34.3	4	-1E+10	1	-1E+10	1	-1E+10	1	-1E+10	1	-1E+10	1	-1E+10	1
4901784	128	C	01/05/2019	10:46	-133.363	43.039	0	370.50	0	5.9950	0	35.0650	8	27.609	0	367.230	0	101.2	4	33.7	4	-1E+10	1	-1E+10	1	-1E+10	1	-1E+10	1	-1E+10	1	-1E+10	1
4901784	128	C	01/05/2019	10:46	-133.363	43.039	0	372.30	0	5.9330	0	35.0650	8	27.617	0	369.012	0	100.1	4	33.3	4	-1E+10	1	-1E+10	1	-1E+10	1	-1E+10	1	-1E+10	1	-1E+10	1
4901784	128	C	01/05/2019	10:46	-133.363	43.039	0	375.10	0	5.8990	0	35.0640	8	27.621	0	371.785	0	98.4	4	32.7	4	-1E+10	1	-1E+10	1	-1E+10	1	-1E+10	1	-1E+10	1	-1E+10	1
4901784	128	C	01/05/2019	10:46	-133.363	43.039	0	377.90	0	5.8180	0	35.0640	8	27.631	0	374.558	0	96.6	4	32.1	4	-1E+10	1	-1E+10	1	-1E+10	1	-1E+10	1	-1E+10	1	-1E+10	1
4901784	128	C	01/05/2019	10:46	-133.363	43.039	0	379.80	0	5.7850	0	35.0640	8	27.635	0	376.439	0	95.7	4	31.7	4	-1E+10	1	-1E+10	1	-1E+10	1	-1E+10	1	-1E+10	1	-1E+10	1
4901784	128	C	01/05/2019	10:46	-133.363	43.039	0	382.60	0	5.7410	0	35.0660	8	27.642	0	379.212	0	94.4	4	31.3	4	-1E+10	1	-1E+10	1	-1E+10	1	-1E+10	1	-1E+10	1	-1E+10	1
4901784	128	C	01/05/2019	10:46	-133.363	43.039	0	385.40	0	5.7100	0	35.0670	8	27.647	0	381.985	0	93.3	4	30.9	4	-1E+10	1	-1E+10	1	-1E+10	1	-1E+10	1	-1E+10	1	-1E+10	1
4901784	128	C	01/05/2019	10:46	-133.363	43.039	0	387.30	0	5.6880	0	35.0680	8	27.650	0	383.866	0	92.7	4	30.7	4	-1E+10	1	-1E+10	1	-1E+10	1	-1E+10	1	-1E+10	1	-1E+10	1
4901784	128	C	01/05/2019	10:46	-133.363	43.039	0	389.10	0	5.6680	0	35.0690	8	27.654	0	385.648	0	92.2	4	30.5	4	-1E+10	1	-1E+10	1	-1E+10	1	-1E+10	1	-1E+10	1	-1E+10	1
4901784	128	C	01/05/2019	10:46	-133.363	43.039	0	392.30	0	5.6460	0	35.0690	8	27.656	0	388.817	0	91.4	4	30.2	4	-1E+10	1	-1E+10	1	-1E+10	1	-1E+10	1	-1E+10	1	-1E+10	1
4901784	128	C	01/05/2019	10:46	-133.363	43.039	0	395.20	0	5.6160	0	35.0700	8	27.661	0	391.689	0	90.8	4	30.0	4	-1E+10	1	-1E+10	1	-1E+10	1	-1E+10	1	-1E+10	1	-1E+10	1
4901784	128	C	01/05/2019	10:46	-133.363	43.039	0	397.70	0	5.6010	0	35.0710	8	27.664	0	394.164	0	90.3	4	29.8	4	-1E+10	1	-1E+10	1	-1E+10	1	-1E+10	1	-1E+10	1	-1E+10	1
4901784	128	C	01/05/2019	10:46	-133.363	43.039	0	400.10	0	5.5650	0	35.0730	8	27.670	0	396.540	0	89.4	4	29.5	4	-1E+10	1	-1E+10	1	-1E+10	1	-1E+10	1	-1E+10	1	-1E+10	1
4901784	128	C	01/05/2019	10:46	-133.363	43.039	0	402.50	0	5.5530	0	35.0710	8	27.670	0	398.917	0	88.0	4	29.0	4	-1E+10	1	-1E+10	1	-1E+10	1	-1E+10	1	-1E+10	1	-1E+10	1
4901784	128	C	01/05/2019	10:46	-133.363	43.039	0	405.00	0	5.5260	0	35.0690	8	27.671	0	401.392	0	86.5	4	28.5	4	-1E+10	1	-1E+10	1	-1E+10	1	-1E+10	1	-1E+10	1	-1E+10	1
4901784	128	C	01/05/2019	10:46	-133.363	43.039	0	407.40	0	5.4520	0	35.0760	8	27.686	0	403.768	0	84.8	4	27.9	4	-1E+10	1	-1E+10	1	-1E+10	1	-1E+10	1	-1E+10	1	-1E+10	1
4901784	128	C	01/05/2019	10:46	-133.363	43.039	0	409.90	0	5.4200	0	35.0780	8	27.691	0	406.243	0	83.8	4	27.6	4	-1E+10	1	-1E+10	1	-1E+10	1	-1E+10	1	-1E+10	1	-1E+10	1
4901784	128	C	01/05/2019	10:46	-133.363	43.039	0	412.50	0	5.4010	0	35.0790	8	27.694	0	408.818	0	83.0	4	27.3	4	-1E+10	1	-1E+10	1	-1E+10	1	-1E+10	1	-1E+10	1	-1E+10	1
4901784	128	C	01/05/2019	10:46	-133.363	43.039	0	415.00	0	5.3800	0	35.0800	8	27.698	0	411.293	0	82.0	4	26.9	4	-1E+10	1	-1E+10	1	-1E+10	1	-1E+10	1	-1E+10	1	-1E+10	1
4901784	128	C	01/05/2019	10:46	-133.363	43.039	0	417.60	0	5.3530	0	35.0810	8	27.702	0	413.867	0	81.2	4	26.7	4	-1E+10	1	-1E+10	1	-1E+10	1	-1E+10	1	-1E+10	1	-1E+10	1
4901784	128	C	01/05/2019	10:46	-133.363	43.039	0	420.30	0	5.3350	0	35.0830	8	27.706	0	416.540	0	80.2	4	26.3	4	-1E+10	1	-1E+10	1	-1E+10	1	-1E+10	1	-1E+10	1	-1E+10	1
4901784	128	C	01/05/2019	10:46	-133.363	43.039	0	422.90	0	5.3030	0	35.0850	8	27.711	0	419.114	0	79.3	4	26.0	4	-1E+10	1	-1E+10	1	-1E+10	1	-1E+10	1	-1E+10	1	-1E+10	1
4901784	128	C	01/05/2019	10:46	-133.363	43.039	0	425.50	0	5.2800	0	35.0880	8	27.716	0	421.688	0	78.5	4	25.7	4	-1E+10	1	-1E+10	1	-1E+10	1	-1E+10	1	-1E+10	1	-1E+10	1
4901784	128	C	01/05/2019	10:46	-133.363	43.039	0	427.20	0	5.2750	0	35.0870	8	27.716	0	423.372	0	77.9	4	25.5	4	-1E+10	1	-1E+10	1	-1E+10	1	-1E+10	1	-1E+10	1	-1E+10	1
4901784	128	C	01/05/2019	10:46	-133.363	43.039	0	429.80	0	5.2540	0	35.0880	8	27.719	0	425.946	0	76.7	4	25.1	4	-1E+10	1	-1E+10	1	-1E+10	1	-1E+10	1	-1E+10	1	-1E+10	1
4901784	128	C	01/05/2019	10:46	-133.363	43.039	0	432.40	0	5.2280	0	35.0890	8	27.723	0	428.520	0	75.4	4	24.7	4	-1E+10	1	-1E+10	1	-1E+10	1	-1E+10	1	-1E+10	1	-1E+10	1
4901784	128	C	01/05/2019	10:46	-133.363	43.039	0	435.00	0	5.1950	0	35.0940	8	27.731	0	431.094	0	74.1	4	24.2	4	-1E+10	1	-1E+10	1	-1E+10	1	-1E+10	1	-1E+10	1	-1E+10	1
4901784	128	C	01/05/2019	10:46	-133.363	43.039	0	437.70	0	5.1710	0	35.0960	8	27.736	0	433.766	0	72.8	4	23.8	4	-1E+10	1	-1E+10	1	-1E+10	1	-1E+10	1	-1E+10	1	-1E+10	1
4901784	128	C	01/05/2019	10:46	-133.363	43.039	0	439.50	0	5.1460	0	35.0990	8	27.741	0	435.548	0	71.9	4	23.5	4	-1E+10	1	-1E+10	1	-1E+10	1	-1E+10	1	-1E+10	1	-1E+10	1
4901784	128	C	01/05/2019	10:46	-133.363	43.039	0	442.20	0	5.1180	0	35.1030	8	27.748	0	438.221	0	70.8	4	23.1	4	-1E+10	1	-1E+10	1	-1E+10	1	-1E+10	1	-1E+10	1	-1E+10	1
4901784	128	C	01/05/2019	10:46	-133.363	43.039	0	444.80	0	5.0980	0	35.1060	8	27.752	0	440.795	0	69.8	4	22.8	4	-1E+10	1	-1E+10	1	-1E+10	1	-1E+10	1	-1E+10	1	-1E+10	1
4901784	128	C	01/05/2019	10:46	-133.363	43.039	0	447.40	0	5.0780	0	35.1090	8	27.757	0	443.369	0	68.8	4	22.4	4	-1E+10	1	-1E+10	1	-1E+10	1	-1E+10	1	-1E+10	1	-1E+10	1
4901784	128	C	01/05/2019	10:46	-133.363	43.039	0	450.00	0	5.0480	0	35.1130	8	27.764	0	445.943	0	68.0	4	22.2	4	-1E+10	1	-1E+10	1	-1E+10	1	-1E+10	1	-1E+10	1	-1E+10	1
4901784	128	C	01/05/2019	10:46	-133.363	43.039	0	452.70	0	5.0360	0	35.1140	8	27.766	0	448.615	0	67.3	4	21.9	4	-1E+10	1	-1E+10	1	-1E+10	1	-1E+10	1	-1E+10	1	-1E+10	1
4901784	128	C	01/05/2019	10:46	-133.363	43.039	0	455.30	0	5.0230	0	35.1150	8	27.768	0	451.189	0	66.5	4	21.7	4	-1E+10	1	-1E+10	1	-1E+10	1	-1E+10	1	-1E+10	1	-1E+10	1
4901784	128	C	01/05/2019	10:46	-133.363	43.039	0	457.10	0	5.0140	0	35.1160	8	27.770	0	452.971	0	65.8	4	21.4	4	-1E+10	1	-1E+10	1	-1E+10	1	-1E+10	1	-1E+10	1	-1E+10	1
4901784	128	C	01/05/2019	10:46	-133.363	43.039	0	459.80	0	4.9940	0	35.1200	8	27.776	0	455.644	0	64.9	4	21.1	4	-1E+10	1	-1E+10	1	-1E+10	1	-1E+10	1	-1E+10	1	-1E+10	1
4901784	128	C	01/05/2019	10:46	-133.363	43.039	0	462.40	0	4.9780	0	35.1220	8	27.779	0	458.217	0	64.0	4	20.8	4	-1E+10	1	-1E+10	1	-1E+10	1	-1E+10	1	-1E+10	1	-1E+10	1
4901784	128	C	01/05/2019	10:46	-133.363	43.039	0	465.10	0	4.9600	0	35.1250	8	27.784	0	460.890	0	63.1	4	20.5	4	-1E+10	1	-1E+10	1	-1E+10	1	-1E+10	1	-1E+10	1	-1E+10	1
4901784	128	C	01/05/2019	10:46	-133.363	43.039	0	467.70	0	4.9440	0	35.1270	8	27.787	0	463.463	0	62.1	4	20.2	4	-1E+10	1	-1E+10	1	-1E+10	1	-1E+10	1	-1E+10	1	-1E+10	1
4901784	128	C	01/05/2019	10:46	-133.363	43.039	0	469.50	0	4.9300	0	35.1300	8	27.791	0	465.245	0	61.3	4	19.9	4	-1E+10	1	-1E+10	1	-1E+10	1	-1E+10	1	-1E+10	1	-1E+10	1
4901784	128	C	01/05/2019	10:46	-133.363	43.039	0	472.20	0	4.9080	0	35.1340	8	27.797	0	467.918	0	60.4	4	19.6	4	-1E+10	1	-1E+10	1	-1E+10	1	-1E+10	1	-1E+10	1	-1E+10	1
4901784	128	C	01/05/2019	10:46	-133.363	43.039	0	474.90	0	4.8880	0	35.1370	8	27.802	0	470.590	0	59.6	4	19.3	4	-1E+10	1	-1E+10	1	-1E+10	1	-1E+10	1	-1E+10	1	-1E+10	1
4901784	128	C	01/05/2019	10:46	-133.363	43.039	0	477.60	0	4.8750	0	35.1400	8	27.805	0	473.262	0	58.8	4	19.1	4	-1E+10	1	-1E+10	1	-1E+10	1	-1E+10	1	-1E+10	1	-1E+10	1
4901784	128	C	01/05/2019	10:46	-133.363	43.039	0	480.30	0	4.8600	0	35.1430	8	27.810	0	475.935	0	58.1	4	18.8	4	-1E+10	1	-1E+10	1	-1E+10	1	-1E+10	1	-1E+10	1	-1E+10	1
4901784	128	C	01/05/2019	10:46	-133.363	43.039	0	482.10	0	4.8470	0	35.1460	8	27.813	0	477.716	0	57.6	4	18.7	4	-1E+10	1	-1E+10	1	-1E+10	1	-1E+10	1	-1E+10	1	-1E+10	1
4901784	128	C	01/05/2019	10:46	-133.363	43.039	0	484.90	0	4.8460	0	35.1470	8	27.814	0	480.488	0	56.9	4	18.5	4	-1E+10	1	-1E+10	1	-1E+10	1	-1E+10	1	-1E+10	1	-1E+10	1
4901784	128	C	01/05/2019	10:46	-133.363	43.039	0	487.60	0	4.8380	0	35.1470	8	27.815	0	483.160	0	55.9	4	18.1	4	-1E+10	1	-1E+10	1	-1E+10	1	-1E+10	1	-1E+10	1	-1E+10	1
4901784	128	C	01/05/2019	10:46	-133.363	43.039	0	490.30	0	4.8230	0	35.1530	8	27.822	0	485.832	0	54.8	4	17.8	4	-1E+10	1	-1E+10	1	-1E+10	1	-1E+10	1	-1E+10	1	-1E+10	1
4901784	128	C	01/05/2019	10:46	-133.363	43.039	0	493.10	0	4.7900	0	35.1590	8	27.830	0	488.603	0	54.1	4	17.5	4	-1E+10	1	-1E+10	1	-1E+10	1	-1E+10	1	-1E+10	1	-1E+10	1
4901784	128	C	01/05/2019	10:46	-133.363	43.039	0	494.90	0	4.7830	0	35.1600	8	27.832	0	490.385	0	53.8	4	17.4	4	-1E+10	1	-1E+10	1	-1E+10	1	-1E+10	1	-1E+10	1	-1E+10	1
4901784	128	C	01/05/2019	10:46	-133.363	43.039	0	497.60	0	4.7800	0	35.1620	8	27.834	0	493.057	0	53.2	4	17.2	4	-1E+10	1	-1E+10	1	-1E+10	1	-1E+10	1	-1E+10	1	-1E+10	1
4901784	128	C	01/05/2019	10:46	-133.363	43.039	0	500.40	0	4.7780	0	35.1630	8	27.835	0	495.828	0	52.6	4	17.0	4	-1E+10	1	-1E+10	1	-1E+10	1	-1E+10	1	-1E+10	1	-1E+10	1
4901784	128	C	01/05/2019	10:46	-133.363	43.039	0	504.80	0	4.7690	0	35.1670	8	27.839	0	500.183	0	51.1	4	16.6	4	-1E+10	1	-1E+10	1	-1E+10	1	-1E+10	1	-1E+10	1	-1E+10	1
4901784	128	C	01/05/2019	10:46	-133.363	43.039	0	509.40	0	4.7460	0	35.1740	8	27.847	0	504.735	0	49.7	4	16.1	4	-1E+10	1	-1E+10	1	-1E+10	1	-1E+10	1	-1E+10	1	-1E+10	1
4901784	128	C	01/05/2019	10:46	-133.363	43.039	0	514.90	0	4.7360	0	35.1770	8	27.851	0	510.178	0	48.6	4	15.7	4	-1E+10	1	-1E+10	1	-1E+10	1	-1E+10	1	-1E+10	1	-1E+10	1
4901784	128	C	01/05/2019	10:46	-133.363	43.039	0	520.40	0	4.7040	0	35.1840	8	27.860	0	515.621	0	46.9	4	15.2	4	-1E+10	1	-1E+10	1	-1E+10	1	-1E+10	1	-1E+10	1	-1E+10	1
4901784	128	C	01/05/2019	10:46	-133.363	43.039	0	525.00	0	4.6850	0	35.1880	8	27.866	0	520.173	0	45.8	4	14.8	4	-1E+10	1	-1E+10	1	-1E+10	1	-1E+10	1	-1E+10	1	-1E+10	1
4901784	128	C	01/05/2019	10:46	-133.363	43.039	0	530.10	0	4.6600	0	35.1930	8	27.872	0	525.219	0	44.5	4	14.4	4	-1E+10	1	-1E+10	1	-1E+10	1	-1E+10	1	-1E+10	1	-1E+10	1
4901784	128	C	01/05/2019	10:46	-133.363	43.039	0	535.20	0	4.6330	0	35.2000	8	27.881	0	530.266	0	43.3	4	14.0	4	-1E+10	1	-1E+10	1	-1E+10	1	-1E+10	1	-1E+10	1	-1E+10	1
4901784	128	C	01/05/2019	10:46	-133.363	43.039	0	539.90	0	4.6190	0	35.2040	8	27.886	0	534.917	0	42.5	4	13.7	4	-1E+10	1	-1E+10	1	-1E+10	1	-1E+10	1	-1E+10	1	-1E+10	1
4901784	128	C	01/05/2019	10:46	-133.363	43.039	0	544.70	0	4.6090	0	35.2060	8	27.889	0	539.666	0	41.6	4	13.4	4	-1E+10	1	-1E+10	1	-1E+10	1	-1E+10	1	-1E+10	1	-1E+10	1
4901784	128	C	01/05/2019	10:46	-133.363	43.039	0	549.60	0	4.6010	0	35.2090	8	27.892	0	544.514	0	40.4	4	13.0	4	-1E+10	1	-1E+10	1	-1E+10	1	-1E+10	1	-1E+10	1	-1E+10	1
4901784	128	C	01/05/2019	10:46	-133.363	43.039	0	554.40	0	4.5920	0	35.2140	8	27.897	0	549.264	0	38.5	4	12.4	4	-1E+10	1	-1E+10	1	-1E+10	1	-1E+10	1	-1E+10	1	-1E+10	1
4901784	128	C	01/05/2019	10:46	-133.363	43.039	0	559.30	0	4.5590	0	35.2220	8	27.907	0	554.112	0	36.9	4	11.9	4	-1E+10	1	-1E+10	1	-1E+10	1	-1E+10	1	-1E+10	1	-1E+10	1
4901784	128	C	01/05/2019	10:46	-133.363	43.039	0	564.30	0	4.5240	0	35.2290	8	27.917	0	559.058	0	35.4	4	11.4	4	-1E+10	1	-1E+10	1	-1E+10	1	-1E+10	1	-1E+10	1	-1E+10	1
4901784	128	C	01/05/2019	10:46	-133.363	43.039	0	569.30	0	4.5070	0	35.2350	8	27.923	0	564.005	0	34.0	4	10.9	4	-1E+10	1	-1E+10	1	-1E+10	1	-1E+10	1	-1E+10	1	-1E+10	1
4901784	128	C	01/05/2019	10:46	-133.363	43.039	0	575.00	0	4.4900	0	35.2430	8	27.931	0	569.644	0	32.0	4	10.3	4	-1E+10	1	-1E+10	1	-1E+10	1	-1E+10	1	-1E+10	1	-1E+10	1
4901784	128	C	01/05/2019	10:46	-133.363	43.039	0	580.80	0	4.4740	0	35.2530	8	27.941	0	575.382	0	29.8	4	9.6	4	-1E+10	1	-1E+10	1	-1E+10	1	-1E+10	1	-1E+10	1	-1E+10	1
4901784	128	C	01/05/2019	10:46	-133.363	43.039	0	585.80	0	4.4410	0	35.2620	8	27.952	0	580.329	0	28.7	4	9.2	4	-1E+10	1	-1E+10	1	-1E+10	1	-1E+10	1	-1E+10	1	-1E+10	1
4901784	128	C	01/05/2019	10:46	-133.363	43.039	0	590.00	0	4.4300	0	35.2660	8	27.957	0	584.484	0	28.1	4	9.0	4	-1E+10	1	-1E+10	1	-1E+10	1	-1E+10	1	-1E+10	1	-1E+10	1
4901784	128	C	01/05/2019	10:46	-133.363	43.039	0	594.30	0	4.4240	0	35.2690	8	27.960	0	588.737	0	27.2	4	8.7	4	-1E+10	1	-1E+10	1	-1E+10	1	-1E+10	1	-1E+10	1	-1E+10	1
4901784	128	C	01/05/2019	10:46	-133.363	43.039	0	599.50	0	4.4100	0	35.2760	8	27.967	0	593.881	0	26.2	4	8.4	4	-1E+10	1	-1E+10	1	-1E+10	1	-1E+10	1	-1E+10	1	-1E+10	1
4901784	128	C	01/05/2019	10:46	-133.363	43.039	0	604.80	0	4.3940	0	35.2820	8	27.973	0	599.124	0	25.4	4	8.2	4	-1E+10	1	-1E+10	1	-1E+10	1	-1E+10	1	-1E+10	1	-1E+10	1
4901784	128	C	01/05/2019	10:46	-133.363	43.039	0	609.90	0	4.3830	0	35.2860	8	27.978	0	604.169	0	24.8	4	8.0	4	-1E+10	1	-1E+10	1	-1E+10	1	-1E+10	1	-1E+10	1	-1E+10	1
4901784	128	C	01/05/2019	10:46	-133.363	43.039	0	615.30	0	4.3660	0	35.2920	8	27.984	0	609.510	0	24.1	4	7.7	4	-1E+10	1	-1E+10	1	-1E+10	1	-1E+10	1	-1E+10	1	-1E+10	1
4901784	128	C	01/05/2019	10:46	-133.363	43.039	0	620.60	0	4.3560	0	35.2950	8	27.988	0	614.752	0	23.6	4	7.6	4	-1E+10	1	-1E+10	1	-1E+10	1	-1E+10	1	-1E+10	1	-1E+10	1
4901784	128	C	01/05/2019	10:46	-133.363	43.039	0	625.10	0	4.3420	0	35.3000	8	27.993	0	619.203	0	23.1	4	7.4	4	-1E+10	1	-1E+10	1	-1E+10	1	-1E+10	1	-1E+10	1	-1E+10	1
4901784	128	C	01/05/2019	10:46	-133.363	43.039	0	629.60	0	4.3360	0	35.3030	8	27.997	0	623.654	0	22.8	4	7.3	4	-1E+10	1	-1E+10	1	-1E+10	1	-1E+10	1	-1E+10	1	-1E+10	1
4901784	128	C	01/05/2019	10:46	-133.363	43.039	0	635.10	0	4.3330	0	35.3040	8	27.998	0	629.094	0	22.5	4	7.2	4	-1E+10	1	-1E+10	1	-1E+10	1	-1E+10	1	-1E+10	1	-1E+10	1
4901784	128	C	01/05/2019	10:46	-133.363	43.039	0	640.60	0	4.3220	0	35.3080	8	28.002	0	634.533	0	22.0	4	7.1	4	-1E+10	1	-1E+10	1	-1E+10	1	-1E+10	1	-1E+10	1	-1E+10	1
4901784	128	C	01/05/2019	10:46	-133.363	43.039	0	645.10	0	4.3120	0	35.3120	8	28.006	0	638.984	0	21.7	4	7.0	4	-1E+10	1	-1E+10	1	-1E+10	1	-1E+10	1	-1E+10	1	-1E+10	1
4901784	128	C	01/05/2019	10:46	-133.363	43.039	0	649.70	0	4.3070	0	35.3130	8	28.008	0	643.533	0	21.4	4	6.9	4	-1E+10	1	-1E+10	1	-1E+10	1	-1E+10	1	-1E+10	1	-1E+10	1
4901784	128	C	01/05/2019	10:46	-133.363	43.039	0	655.40	0	4.2990	0	35.3170	8	28.012	0	649.170	0	20.9	4	6.7	4	-1E+10	1	-1E+10	1	-1E+10	1	-1E+10	1	-1E+10	1	-1E+10	1
4901784	128	C	01/05/2019	10:46	-133.363	43.039	0	660.20	0	4.2940	0	35.3190	8	28.014	0	653.917	0	20.5	4	6.6	4	-1E+10	1	-1E+10	1	-1E+10	1	-1E+10	1	-1E+10	1	-1E+10	1
4901784	128	C	01/05/2019	10:46	-133.363	43.039	0	665.00	0	4.2850	0	35.3230	8	28.018	0	658.664	0	20.1	4	6.5	4	-1E+10	1	-1E+10	1	-1E+10	1	-1E+10	1	-1E+10	1	-1E+10	1
4901784	128	C	01/05/2019	10:46	-133.363	43.039	0	669.80	0	4.2760	0	35.3270	8	28.022	0	663.411	0	19.8	4	6.3	4	-1E+10	1	-1E+10	1	-1E+10	1	-1E+10	1	-1E+10	1	-1E+10	1
4901784	128	C	01/05/2019	10:46	-133.363	43.039	0	674.50	0	4.2630	0	35.3300	8	28.026	0	668.058	0	19.3	4	6.2	4	-1E+10	1	-1E+10	1	-1E+10	1	-1E+10	1	-1E+10	1	-1E+10	1
4901784	128	C	01/05/2019	10:46	-133.363	43.039	0	680.20	0	4.2460	0	35.3360	8	28.033	0	673.695	0	18.7	4	6.0	4	-1E+10	1	-1E+10	1	-1E+10	1	-1E+10	1	-1E+10	1	-1E+10	1
4901784	128	C	01/05/2019	10:46	-133.363	43.039	0	685.00	0	4.2350	0	35.3410	8	28.038	0	678.441	0	18.3	4	5.9	4	-1E+10	1	-1E+10	1	-1E+10	1	-1E+10	1	-1E+10	1	-1E+10	1
4901784	128	C	01/05/2019	10:46	-133.363	43.039	0	689.70	0	4.2260	0	35.3460	8	28.043	0	683.088	0	17.9	4	5.7	4	-1E+10	1	-1E+10	1	-1E+10	1	-1E+10	1	-1E+10	1	-1E+10	1
4901784	128	C	01/05/2019	10:46	-133.363	43.039	0	695.50	0	4.2160	0	35.3500	8	28.047	0	688.823	0	17.5	4	5.6	4	-1E+10	1	-1E+10	1	-1E+10	1	-1E+10	1	-1E+10	1	-1E+10	1
4901784	128	C	01/05/2019	10:46	-133.363	43.039	0	700.30	0	4.2110	0	35.3520	8	28.050	0	693.569	0	17.2	4	5.5	4	-1E+10	1	-1E+10	1	-1E+10	1	-1E+10	1	-1E+10	1	-1E+10	1
4901784	128	C	01/05/2019	10:46	-133.363	43.039	0	705.20	0	4.1990	0	35.3570	8	28.055	0	698.414	0	16.8	4	5.4	4	-1E+10	1	-1E+10	1	-1E+10	1	-1E+10	1	-1E+10	1	-1E+10	1
4901784	128	C	01/05/2019	10:46	-133.363	43.039	0	710.70	0	4.1820	0	35.3620	8	28.061	0	703.851	0	16.5	4	5.3	4	-1E+10	1	-1E+10	1	-1E+10	1	-1E+10	1	-1E+10	1	-1E+10	1
4901784	128	C	01/05/2019	10:46	-133.363	43.039	0	715.20	0	4.1720	0	35.3660	8	28.065	0	708.300	0	16.2	4	5.2	4	-1E+10	1	-1E+10	1	-1E+10	1	-1E+10	1	-1E+10	1	-1E+10	1
4901784	128	C	01/05/2019	10:46	-133.363	43.039	0	720.10	0	4.1580	0	35.3700	8	28.070	0	713.145	0	15.8	4	5.1	4	-1E+10	1	-1E+10	1	-1E+10	1	-1E+10	1	-1E+10	1	-1E+10	1
4901784	128	C	01/05/2019	10:46	-133.363	43.039	0	725.00	0	4.1390	0	35.3750	8	28.076	0	717.989	0	15.5	4	4.9	4	-1E+10	1	-1E+10	1	-1E+10	1	-1E+10	1	-1E+10	1	-1E+10	1
4901784	128	C	01/05/2019	10:46	-133.363	43.039	0	729.90	0	4.1090	0	35.3820	8	28.085	0	722.833	0	15.2	4	4.9	4	-1E+10	1	-1E+10	1	-1E+10	1	-1E+10	1	-1E+10	1	-1E+10	1
4901784	128	C	01/05/2019	10:46	-133.363	43.039	0	734.70	0	4.0910	0	35.3860	8	28.090	0	727.578	0	15.0	4	4.8	4	-1E+10	1	-1E+10	1	-1E+10	1	-1E+10	1	-1E+10	1	-1E+10	1
4901784	128	C	01/05/2019	10:46	-133.363	43.039	0	739.60	0	4.0740	0	35.3900	8	28.095	0	732.422	0	14.8	4	4.7	4	-1E+10	1	-1E+10	1	-1E+10	1	-1E+10	1	-1E+10	1	-1E+10	1
4901784	128	C	01/05/2019	10:46	-133.363	43.039	0	744.50	0	4.0620	0	35.3930	8	28.098	0	737.266	0	14.5	4	4.6	4	-1E+10	1	-1E+10	1	-1E+10	1	-1E+10	1	-1E+10	1	-1E+10	1
4901784	128	C	01/05/2019	10:46	-133.363	43.039	0	749.40	0	4.0520	0	35.3970	8	28.103	0	742.110	0	14.2	4	4.5	4	-1E+10	1	-1E+10	1	-1E+10	1	-1E+10	1	-1E+10	1	-1E+10	1
4901784	128	C	01/05/2019	10:46	-133.363	43.039	0	754.30	0	4.0310	0	35.4030	8	28.110	0	746.953	0	14.0	4	4.5	4	-1E+10	1	-1E+10	1	-1E+10	1	-1E+10	1	-1E+10	1	-1E+10	1
4901784	128	C	01/05/2019	10:46	-133.363	43.039	0	759.40	0	4.0210	0	35.4060	8	28.113	0	751.994	0	13.7	4	4.4	4	-1E+10	1	-1E+10	1	-1E+10	1	-1E+10	1	-1E+10	1	-1E+10	1
4901784	128	C	01/05/2019	10:46	-133.363	43.039	0	764.40	0	4.0030	0	35.4120	8	28.120	0	756.937	0	13.4	4	4.3	4	-1E+10	1	-1E+10	1	-1E+10	1	-1E+10	1	-1E+10	1	-1E+10	1
4901784	128	C	01/05/2019	10:46	-133.363	43.039	0	769.50	0	3.9880	0	35.4190	8	28.127	0	761.977	0	13.2	4	4.2	4	-1E+10	1	-1E+10	1	-1E+10	1	-1E+10	1	-1E+10	1	-1E+10	1
4901784	128	C	01/05/2019	10:46	-133.363	43.039	0	774.70	0	3.9720	0	35.4240	8	28.133	0	767.117	0	13.0	4	4.2	4	-1E+10	1	-1E+10	1	-1E+10	1	-1E+10	1	-1E+10	1	-1E+10	1
4901784	128	C	01/05/2019	10:46	-133.363	43.039	0	779.80	0	3.9600	0	35.4260	8	28.136	0	772.158	0	13.0	4	4.1	4	-1E+10	1	-1E+10	1	-1E+10	1	-1E+10	1	-1E+10	1	-1E+10	1
4901784	128	C	01/05/2019	10:46	-133.363	43.039	0	784.90	0	3.9540	0	35.4280	8	28.138	0	777.198	0	12.8	4	4.1	4	-1E+10	1	-1E+10	1	-1E+10	1	-1E+10	1	-1E+10	1	-1E+10	1
4901784	128	C	01/05/2019	10:46	-133.363	43.039	0	790.00	0	3.9330	0	35.4340	8	28.145	0	782.239	0	12.6	4	4.0	4	-1E+10	1	-1E+10	1	-1E+10	1	-1E+10	1	-1E+10	1	-1E+10	1
4901784	128	C	01/05/2019	10:46	-133.363	43.039	0	795.10	0	3.9250	0	35.4380	8	28.149	0	787.279	0	12.5	4	4.0	4	-1E+10	1	-1E+10	1	-1E+10	1	-1E+10	1	-1E+10	1	-1E+10	1
4901784	128	C	01/05/2019	10:46	-133.363	43.039	0	800.20	0	3.9220	0	35.4400	8	28.151	0	792.319	0	12.4	4	3.9	4	-1E+10	1	-1E+10	1	-1E+10	1	-1E+10	1	-1E+10	1	-1E+10	1
4901784	128	C	01/05/2019	10:46	-133.363	43.039	0	805.40	0	3.9110	0	35.4430	8	28.155	0	797.458	0	12.2	4	3.9	4	-1E+10	1	-1E+10	1	-1E+10	1	-1E+10	1	-1E+10	1	-1E+10	1
4901784	128	C	01/05/2019	10:46	-133.363	43.039	0	810.60	0	3.8990	0	35.4470	8	28.159	0	802.597	0	12.1	4	3.9	4	-1E+10	1	-1E+10	1	-1E+10	1	-1E+10	1	-1E+10	1	-1E+10	1
4901784	128	C	01/05/2019	10:46	-133.363	43.039	0	815.80	0	3.8840	0	35.4510	8	28.164	0	807.735	0	12.0	4	3.8	4	-1E+10	1	-1E+10	1	-1E+10	1	-1E+10	1	-1E+10	1	-1E+10	1
4901784	128	C	01/05/2019	10:46	-133.363	43.039	0	820.10	0	3.8770	0	35.4550	8	28.168	0	811.984	0	11.9	4	3.8	4	-1E+10	1	-1E+10	1	-1E+10	1	-1E+10	1	-1E+10	1	-1E+10	1
4901784	128	C	01/05/2019	10:46	-133.363	43.039	0	824.50	0	3.8700	0	35.4560	8	28.169	0	816.332	0	11.8	4	3.7	4	-1E+10	1	-1E+10	1	-1E+10	1	-1E+10	1	-1E+10	1	-1E+10	1
4901784	128	C	01/05/2019	10:46	-133.363	43.039	0	829.80	0	3.8530	0	35.4620	8	28.176	0	821.569	0	11.6	4	3.7	4	-1E+10	1	-1E+10	1	-1E+10	1	-1E+10	1	-1E+10	1	-1E+10	1
4901784	128	C	01/05/2019	10:46	-133.363	43.039	0	835.10	0	3.8390	0	35.4650	8	28.180	0	826.806	0	11.5	4	3.7	4	-1E+10	1	-1E+10	1	-1E+10	1	-1E+10	1	-1E+10	1	-1E+10	1
4901784	128	C	01/05/2019	10:46	-133.363	43.039	0	840.40	0	3.8190	0	35.4700	8	28.186	0	832.043	0	11.4	4	3.6	4	-1E+10	1	-1E+10	1	-1E+10	1	-1E+10	1	-1E+10	1	-1E+10	1
4901784	128	C	01/05/2019	10:46	-133.363	43.039	0	844.80	0	3.8070	0	35.4730	8	28.190	0	836.391	0	11.2	4	3.6	4	-1E+10	1	-1E+10	1	-1E+10	1	-1E+10	1	-1E+10	1	-1E+10	1
4901784	128	C	01/05/2019	10:46	-133.363	43.039	0	849.30	0	3.7890	0	35.4790	8	28.196	0	840.837	0	11.1	4	3.5	4	-1E+10	1	-1E+10	1	-1E+10	1	-1E+10	1	-1E+10	1	-1E+10	1
4901784	128	C	01/05/2019	10:46	-133.363	43.039	0	854.70	0	3.7770	0	35.4850	8	28.202	0	846.172	0	11.0	4	3.5	4	-1E+10	1	-1E+10	1	-1E+10	1	-1E+10	1	-1E+10	1	-1E+10	1
4901784	128	C	01/05/2019	10:46	-133.363	43.039	0	860.00	0	3.7610	0	35.4890	8	28.207	0	851.408	0	10.9	4	3.5	4	-1E+10	1	-1E+10	1	-1E+10	1	-1E+10	1	-1E+10	1	-1E+10	1
4901784	128	C	01/05/2019	10:46	-133.363	43.039	0	865.40	0	3.7480	0	35.4930	8	28.212	0	856.743	0	10.8	4	3.4	4	-1E+10	1	-1E+10	1	-1E+10	1	-1E+10	1	-1E+10	1	-1E+10	1
4901784	128	C	01/05/2019	10:46	-133.363	43.039	0	869.90	0	3.7410	0	35.4950	8	28.214	0	861.189	0	10.7	4	3.4	4	-1E+10	1	-1E+10	1	-1E+10	1	-1E+10	1	-1E+10	1	-1E+10	1
4901784	128	C	01/05/2019	10:46	-133.363	43.039	0	874.50	0	3.7310	0	35.4990	8	28.218	0	865.733	0	10.7	4	3.4	4	-1E+10	1	-1E+10	1	-1E+10	1	-1E+10	1	-1E+10	1	-1E+10	1
4901784	128	C	01/05/2019	10:46	-133.363	43.039	0	880.00	0	3.7200	0	35.5030	8	28.223	0	871.167	0	10.6	4	3.3	4	-1E+10	1	-1E+10	1	-1E+10	1	-1E+10	1	-1E+10	1	-1E+10	1
4901784	128	C	01/05/2019	10:46	-133.363	43.039	0	885.40	0	3.7070	0	35.5090	8	28.229	0	876.501	0	10.5	4	3.3	4	-1E+10	1	-1E+10	1	-1E+10	1	-1E+10	1	-1E+10	1	-1E+10	1
4901784	128	C	01/05/2019	10:46	-133.363	43.039	0	890.00	0	3.6990	0	35.5120	8	28.232	0	881.045	0	10.4	4	3.3	4	-1E+10	1	-1E+10	1	-1E+10	1	-1E+10	1	-1E+10	1	-1E+10	1
4901784	128	C	01/05/2019	10:46	-133.363	43.039	0	894.50	0	3.6900	0	35.5170	8	28.237	0	885.491	0	10.4	4	3.3	4	-1E+10	1	-1E+10	1	-1E+10	1	-1E+10	1	-1E+10	1	-1E+10	1
4901784	128	C	01/05/2019	10:46	-133.363	43.039	0	900.00	0	3.6820	0	35.5200	8	28.240	0	890.924	0	10.3	4	3.3	4	-1E+10	1	-1E+10	1	-1E+10	1	-1E+10	1	-1E+10	1	-1E+10	1
4901784	128	C	01/05/2019	10:46	-133.363	43.039	0	905.60	0	3.6700	0	35.5250	8	28.245	0	896.455	0	10.3	4	3.3	4	-1E+10	1	-1E+10	1	-1E+10	1	-1E+10	1	-1E+10	1	-1E+10	1
4901784	128	C	01/05/2019	10:46	-133.363	43.039	0	910.40	0	3.6640	0	35.5260	8	28.247	0	901.196	0	10.3	4	3.3	4	-1E+10	1	-1E+10	1	-1E+10	1	-1E+10	1	-1E+10	1	-1E+10	1
4901784	128	C	01/05/2019	10:46	-133.363	43.039	0	914.90	0	3.6550	0	35.5290	8	28.250	0	905.641	0	10.3	4	3.3	4	-1E+10	1	-1E+10	1	-1E+10	1	-1E+10	1	-1E+10	1	-1E+10	1
4901784	128	C	01/05/2019	10:46	-133.363	43.039	0	919.80	0	3.6370	0	35.5340	8	28.256	0	910.481	0	10.3	4	3.3	4	-1E+10	1	-1E+10	1	-1E+10	1	-1E+10	1	-1E+10	1	-1E+10	1
4901784	128	C	01/05/2019	10:46	-133.363	43.039	0	924.70	0	3.6260	0	35.5370	8	28.260	0	915.320	0	10.3	4	3.3	4	-1E+10	1	-1E+10	1	-1E+10	1	-1E+10	1	-1E+10	1	-1E+10	1
4901784	128	C	01/05/2019	10:46	-133.363	43.039	0	929.80	0	3.6100	0	35.5420	8	28.265	0	920.357	0	10.3	4	3.3	4	-1E+10	1	-1E+10	1	-1E+10	1	-1E+10	1	-1E+10	1	-1E+10	1
4901784	128	C	01/05/2019	10:46	-133.363	43.039	0	934.80	0	3.6000	0	35.5470	8	28.270	0	925.296	0	10.3	4	3.3	4	-1E+10	1	-1E+10	1	-1E+10	1	-1E+10	1	-1E+10	1	-1E+10	1
4901784	128	C	01/05/2019	10:46	-133.363	43.039	0	939.90	0	3.5840	0	35.5500	8	28.274	0	930.333	0	10.3	4	3.3	4	-1E+10	1	-1E+10	1	-1E+10	1	-1E+10	1	-1E+10	1	-1E+10	1
4901784	128	C	01/05/2019	10:46	-133.363	43.039	0	945.00	0	3.5750	0	35.5520	8	28.277	0	935.369	0	10.4	4	3.3	4	-1E+10	1	-1E+10	1	-1E+10	1	-1E+10	1	-1E+10	1	-1E+10	1
4901784	128	C	01/05/2019	10:46	-133.363	43.039	0	950.00	0	3.5660	0	35.5550	8	28.280	0	940.307	0	10.4	4	3.3	4	-1E+10	1	-1E+10	1	-1E+10	1	-1E+10	1	-1E+10	1	-1E+10	1
4901784	128	C	01/05/2019	10:46	-133.363	43.039	0	955.20	0	3.5550	0	35.5590	8	28.284	0	945.442	0	10.5	4	3.3	4	-1E+10	1	-1E+10	1	-1E+10	1	-1E+10	1	-1E+10	1	-1E+10	1
4901784	128	C	01/05/2019	10:46	-133.363	43.039	0	960.30	0	3.5370	0	35.5620	8	28.289	0	950.479	0	10.5	4	3.3	4	-1E+10	1	-1E+10	1	-1E+10	1	-1E+10	1	-1E+10	1	-1E+10	1
4901784	128	C	01/05/2019	10:46	-133.363	43.039	0	965.50	0	3.5160	0	35.5660	8	28.294	0	955.614	0	10.5	4	3.3	4	-1E+10	1	-1E+10	1	-1E+10	1	-1E+10	1	-1E+10	1	-1E+10	1
4901784	128	C	01/05/2019	10:46	-133.363	43.039	0	970.70	0	3.5140	0	35.5690	8	28.297	0	960.748	0	10.6	4	3.3	4	-1E+10	1	-1E+10	1	-1E+10	1	-1E+10	1	-1E+10	1	-1E+10	1
4901784	128	C	01/05/2019	10:46	-133.363	43.039	0	975.10	0	3.4990	0	35.5710	8	28.300	0	965.093	0	10.6	4	3.3	4	-1E+10	1	-1E+10	1	-1E+10	1	-1E+10	1	-1E+10	1	-1E+10	1
4901784	128	C	01/05/2019	10:46	-133.363	43.039	0	979.60	0	3.4820	0	35.5730	8	28.303	0	969.536	0	10.6	4	3.3	4	-1E+10	1	-1E+10	1	-1E+10	1	-1E+10	1	-1E+10	1	-1E+10	1
4901784	128	C	01/05/2019	10:46	-133.363	43.039	0	984.80	0	3.4640	0	35.5760	8	28.307	0	974.671	0	10.6	4	3.4	4	-1E+10	1	-1E+10	1	-1E+10	1	-1E+10	1	-1E+10	1	-1E+10	1
4901784	128	C	01/05/2019	10:46	-133.363	43.039	0	990.20	0	3.4540	0	35.5800	8	28.311	0	980.003	0	10.8	4	3.4	4	-1E+10	1	-1E+10	1	-1E+10	1	-1E+10	1	-1E+10	1	-1E+10	1
4901784	128	C	01/05/2019	10:46	-133.363	43.039	0	995.50	0	3.4560	0	35.5830	8	28.314	0	985.236	0	10.9	4	3.4	4	-1E+10	1	-1E+10	1	-1E+10	1	-1E+10	1	-1E+10	1	-1E+10	1
4901784	128	C	01/05/2019	10:46	-133.363	43.039	0	1000.00	0	3.4490	0	35.5860	8	28.317	0	989.679	0	11.0	4	3.5	4	-1E+10	1	-1E+10	1	-1E+10	1	-1E+10	1	-1E+10	1	-1E+10	1
4901784	128	C	01/05/2019	10:46	-133.363	43.039	0	1004.40	0	3.4380	0	35.5880	8	28.320	0	994.023	0	11.0	4	3.5	4	-1E+10	1	-1E+10	1	-1E+10	1	-1E+10	1	-1E+10	1	-1E+10	1
4901784	128	C	01/05/2019	10:46	-133.363	43.039	0	1009.80	0	3.4140	0	35.5910	8	28.324	0	999.354	0	11.1	4	3.5	4	-1E+10	1	-1E+10	1	-1E+10	1	-1E+10	1	-1E+10	1	-1E+10	1
4901784	128	C	01/05/2019	10:46	-133.363	43.039	0	1015.30	0	3.4010	0	35.5950	8	28.329	0	1004.784	0	11.2	4	3.5	4	-1E+10	1	-1E+10	1	-1E+10	1	-1E+10	1	-1E+10	1	-1E+10	1
4901784	128	C	01/05/2019	10:46	-133.363	43.039	0	1019.80	0	3.3950	0	35.5980	8	28.332	0	1009.227	0	11.3	4	3.6	4	-1E+10	1	-1E+10	1	-1E+10	1	-1E+10	1	-1E+10	1	-1E+10	1
4901784	128	C	01/05/2019	10:46	-133.363	43.039	0	1024.40	0	3.3890	0	35.5990	8	28.333	0	1013.768	0	11.3	4	3.6	4	-1E+10	1	-1E+10	1	-1E+10	1	-1E+10	1	-1E+10	1	-1E+10	1
4901784	128	C	01/05/2019	10:46	-133.363	43.039	0	1030.10	0	3.3830	0	35.6010	8	28.336	0	1019.395	0	11.3	4	3.6	4	-1E+10	1	-1E+10	1	-1E+10	1	-1E+10	1	-1E+10	1	-1E+10	1
4901784	128	C	01/05/2019	10:46	-133.363	43.039	0	1034.80	0	3.3780	0	35.6020	8	28.337	0	1024.035	0	11.4	4	3.6	4	-1E+10	1	-1E+10	1	-1E+10	1	-1E+10	1	-1E+10	1	-1E+10	1
4901784	128	C	01/05/2019	10:46	-133.363	43.039	0	1039.60	0	3.3690	0	35.6040	8	28.339	0	1028.773	0	11.4	4	3.6	4	-1E+10	1	-1E+10	1	-1E+10	1	-1E+10	1	-1E+10	1	-1E+10	1
4901784	128	C	01/05/2019	10:46	-133.363	43.039	0	1045.40	0	3.3580	0	35.6060	8	28.342	0	1034.498	0	11.6	4	3.6	4	-1E+10	1	-1E+10	1	-1E+10	1	-1E+10	1	-1E+10	1	-1E+10	1
4901784	128	C	01/05/2019	10:46	-133.363	43.039	0	1049.50	0	3.3510	0	35.6080	8	28.344	0	1038.545	0	11.7	4	3.7	4	-1E+10	1	-1E+10	1	-1E+10	1	-1E+10	1	-1E+10	1	-1E+10	1
4901784	128	C	01/05/2019	10:46	-133.363	43.039	0	1054.40	0	3.3410	0	35.6110	8	28.348	0	1043.382	0	11.8	4	3.7	4	-1E+10	1	-1E+10	1	-1E+10	1	-1E+10	1	-1E+10	1	-1E+10	1
4901784	128	C	01/05/2019	10:46	-133.363	43.039	0	1059.20	0	3.3330	0	35.6130	8	28.350	0	1048.120	0	11.9	4	3.7	4	-1E+10	1	-1E+10	1	-1E+10	1	-1E+10	1	-1E+10	1	-1E+10	1
4901784	128	C	01/05/2019	10:46	-133.363	43.039	0	1064.90	0	3.3190	0	35.6160	8	28.354	0	1053.746	0	12.1	4	3.8	4	-1E+10	1	-1E+10	1	-1E+10	1	-1E+10	1	-1E+10	1	-1E+10	1
4901784	128	C	01/05/2019	10:46	-133.363	43.039	0	1070.60	0	3.3070	0	35.6190	8	28.358	0	1059.372	0	12.2	4	3.8	4	-1E+10	1	-1E+10	1	-1E+10	1	-1E+10	1	-1E+10	1	-1E+10	1
4901784	128	C	01/05/2019	10:46	-133.363	43.039	0	1075.60	0	3.3020	0	35.6200	8	28.359	0	1064.307	0	12.3	4	3.9	4	-1E+10	1	-1E+10	1	-1E+10	1	-1E+10	1	-1E+10	1	-1E+10	1
4901784	128	C	01/05/2019	10:46	-133.363	43.039	0	1080.60	0	3.2890	0	35.6230	8	28.363	0	1069.241	0	12.4	4	3.9	4	-1E+10	1	-1E+10	1	-1E+10	1	-1E+10	1	-1E+10	1	-1E+10	1
4901784	128	C	01/05/2019	10:46	-133.363	43.039	0	1085.60	0	3.2810	0	35.6240	8	28.364	0	1074.176	0	12.5	4	3.9	4	-1E+10	1	-1E+10	1	-1E+10	1	-1E+10	1	-1E+10	1	-1E+10	1
4901784	128	C	01/05/2019	10:46	-133.363	43.039	0	1090.70	0	3.2750	0	35.6250	8	28.366	0	1079.209	0	12.5	4	3.9	4	-1E+10	1	-1E+10	1	-1E+10	1	-1E+10	1	-1E+10	1	-1E+10	1
4901784	128	C	01/05/2019	10:46	-133.363	43.039	0	1095.70	0	3.2670	0	35.6270	8	28.368	0	1084.144	0	12.6	4	4.0	4	-1E+10	1	-1E+10	1	-1E+10	1	-1E+10	1	-1E+10	1	-1E+10	1
4901784	128	C	01/05/2019	10:46	-133.363	43.039	0	1100.80	0	3.2570	0	35.6290	8	28.371	0	1089.177	0	12.7	4	4.0	4	-1E+10	1	-1E+10	1	-1E+10	1	-1E+10	1	-1E+10	1	-1E+10	1
4901784	128	C	01/05/2019	10:46	-133.363	43.039	0	1105.30	0	3.2540	0	35.6300	8	28.372	0	1093.618	0	12.8	4	4.0	4	-1E+10	1	-1E+10	1	-1E+10	1	-1E+10	1	-1E+10	1	-1E+10	1
4901784	128	C	01/05/2019	10:46	-133.363	43.039	0	1109.90	0	3.2450	0	35.6310	8	28.373	0	1098.157	0	12.9	4	4.1	4	-1E+10	1	-1E+10	1	-1E+10	1	-1E+10	1	-1E+10	1	-1E+10	1
4901784	128	C	01/05/2019	10:46	-133.363	43.039	0	1115.60	0	3.2320	0	35.6350	8	28.378	0	1103.782	0	13.1	4	4.1	4	-1E+10	1	-1E+10	1	-1E+10	1	-1E+10	1	-1E+10	1	-1E+10	1
4901784	128	C	01/05/2019	10:46	-133.363	43.039	0	1120.00	0	3.2220	0	35.6360	8	28.380	0	1108.123	0	13.2	4	4.1	4	-1E+10	1	-1E+10	1	-1E+10	1	-1E+10	1	-1E+10	1	-1E+10	1
4901784	128	C	01/05/2019	10:46	-133.363	43.039	0	1124.90	0	3.2080	0	35.6390	8	28.383	0	1112.958	0	13.4	4	4.2	4	-1E+10	1	-1E+10	1	-1E+10	1	-1E+10	1	-1E+10	1	-1E+10	1
4901784	128	C	01/05/2019	10:46	-133.363	43.039	0	1130.40	0	3.1940	0	35.6420	8	28.387	0	1118.385	0	13.5	4	4.2	4	-1E+10	1	-1E+10	1	-1E+10	1	-1E+10	1	-1E+10	1	-1E+10	1
4901784	128	C	01/05/2019	10:46	-133.363	43.039	0	1135.20	0	3.1860	0	35.6430	8	28.389	0	1123.122	0	13.6	4	4.3	4	-1E+10	1	-1E+10	1	-1E+10	1	-1E+10	1	-1E+10	1	-1E+10	1
4901784	128	C	01/05/2019	10:46	-133.363	43.039	0	1140.00	0	3.1740	0	35.6460	8	28.392	0	1127.858	0	13.7	4	4.3	4	-1E+10	1	-1E+10	1	-1E+10	1	-1E+10	1	-1E+10	1	-1E+10	1
4901784	128	C	01/05/2019	10:46	-133.363	43.039	0	1144.90	0	3.1710	0	35.6460	8	28.393	0	1132.692	0	13.8	4	4.3	4	-1E+10	1	-1E+10	1	-1E+10	1	-1E+10	1	-1E+10	1	-1E+10	1
4901784	128	C	01/05/2019	10:46	-133.363	43.039	0	1149.80	0	3.1610	0	35.6480	8	28.395	0	1137.527	0	13.9	4	4.3	4	-1E+10	1	-1E+10	1	-1E+10	1	-1E+10	1	-1E+10	1	-1E+10	1
4901784	128	C	01/05/2019	10:46	-133.363	43.039	0	1154.60	0	3.1470	0	35.6500	8	28.398	0	1142.262	0	14.0	4	4.4	4	-1E+10	1	-1E+10	1	-1E+10	1	-1E+10	1	-1E+10	1	-1E+10	1
4901784	128	C	01/05/2019	10:46	-133.363	43.039	0	1159.60	0	3.1390	0	35.6510	8	28.400	0	1147.195	0	14.1	4	4.4	4	-1E+10	1	-1E+10	1	-1E+10	1	-1E+10	1	-1E+10	1	-1E+10	1
4901784	128	C	01/05/2019	10:46	-133.363	43.039	0	1164.60	0	3.1300	0	35.6530	8	28.402	0	1152.128	0	14.3	4	4.5	4	-1E+10	1	-1E+10	1	-1E+10	1	-1E+10	1	-1E+10	1	-1E+10	1
4901784	128	C	01/05/2019	10:46	-133.363	43.039	0	1169.80	0	3.1170	0	35.6550	8	28.405	0	1157.258	0	14.4	4	4.5	4	-1E+10	1	-1E+10	1	-1E+10	1	-1E+10	1	-1E+10	1	-1E+10	1
4901784	128	C	01/05/2019	10:46	-133.363	43.039	0	1175.00	0	3.1100	0	35.6560	8	28.407	0	1162.388	0	14.5	4	4.5	4	-1E+10	1	-1E+10	1	-1E+10	1	-1E+10	1	-1E+10	1	-1E+10	1
4901784	128	C	01/05/2019	10:46	-133.363	43.039	0	1180.20	0	3.0990	0	35.6570	8	28.409	0	1167.518	0	14.6	4	4.6	4	-1E+10	1	-1E+10	1	-1E+10	1	-1E+10	1	-1E+10	1	-1E+10	1
4901784	128	C	01/05/2019	10:46	-133.363	43.039	0	1185.40	0	3.0890	0	35.6590	8	28.411	0	1172.647	0	14.8	4	4.6	4	-1E+10	1	-1E+10	1	-1E+10	1	-1E+10	1	-1E+10	1	-1E+10	1
4901784	128	C	01/05/2019	10:46	-133.363	43.039	0	1189.90	0	3.0770	0	35.6610	8	28.414	0	1177.086	0	15.0	4	4.7	4	-1E+10	1	-1E+10	1	-1E+10	1	-1E+10	1	-1E+10	1	-1E+10	1
4901784	128	C	01/05/2019	10:46	-133.363	43.039	0	1194.30	0	3.0740	0	35.6640	8	28.417	0	1181.427	0	15.1	4	4.7	4	-1E+10	1	-1E+10	1	-1E+10	1	-1E+10	1	-1E+10	1	-1E+10	1
4901784	128	C	01/05/2019	10:46	-133.363	43.039	0	1199.70	0	3.0710	0	35.6650	8	28.418	0	1186.753	0	15.2	4	4.7	4	-1E+10	1	-1E+10	1	-1E+10	1	-1E+10	1	-1E+10	1	-1E+10	1
4901784	128	C	01/05/2019	10:46	-133.363	43.039	0	1205.10	0	3.0580	0	35.6660	8	28.420	0	1192.080	0	15.3	4	4.8	4	-1E+10	1	-1E+10	1	-1E+10	1	-1E+10	1	-1E+10	1	-1E+10	1
4901784	128	C	01/05/2019	10:46	-133.363	43.039	0	1210.60	0	3.0460	0	35.6670	8	28.422	0	1197.505	0	15.4	4	4.8	4	-1E+10	1	-1E+10	1	-1E+10	1	-1E+10	1	-1E+10	1	-1E+10	1
4901784	128	C	01/05/2019	10:46	-133.363	43.039	0	1215.20	0	3.0360	0	35.6690	8	28.424	0	1202.042	0	15.5	4	4.8	4	-1E+10	1	-1E+10	1	-1E+10	1	-1E+10	1	-1E+10	1	-1E+10	1
4901784	128	C	01/05/2019	10:46	-133.363	43.039	0	1219.80	0	3.0300	0	35.6690	8	28.425	0	1206.579	0	15.6	4	4.9	4	-1E+10	1	-1E+10	1	-1E+10	1	-1E+10	1	-1E+10	1	-1E+10	1
4901784	128	C	01/05/2019	10:46	-133.363	43.039	0	1225.30	0	3.0210	0	35.6710	8	28.427	0	1212.003	0	15.8	4	4.9	4	-1E+10	1	-1E+10	1	-1E+10	1	-1E+10	1	-1E+10	1	-1E+10	1
4901784	128	C	01/05/2019	10:46	-133.363	43.039	0	1230.80	0	3.0070	0	35.6740	8	28.431	0	1217.428	0	16.1	4	5.0	4	-1E+10	1	-1E+10	1	-1E+10	1	-1E+10	1	-1E+10	1	-1E+10	1
4901784	128	C	01/05/2019	10:46	-133.363	43.039	0	1235.00	0	2.9990	0	35.6750	8	28.433	0	1221.570	0	16.3	4	5.1	4	-1E+10	1	-1E+10	1	-1E+10	1	-1E+10	1	-1E+10	1	-1E+10	1
4901784	128	C	01/05/2019	10:46	-133.363	43.039	0	1239.30	0	2.9800	0	35.6780	8	28.437	0	1225.811	0	16.5	4	5.1	4	-1E+10	1	-1E+10	1	-1E+10	1	-1E+10	1	-1E+10	1	-1E+10	1
4901784	128	C	01/05/2019	10:46	-133.363	43.039	0	1244.50	0	2.9680	0	35.6800	8	28.440	0	1230.939	0	16.7	4	5.2	4	-1E+10	1	-1E+10	1	-1E+10	1	-1E+10	1	-1E+10	1	-1E+10	1
4901784	128	C	01/05/2019	10:46	-133.363	43.039	0	1249.80	0	2.9640	0	35.6820	8	28.442	0	1236.166	0	16.8	4	5.2	4	-1E+10	1	-1E+10	1	-1E+10	1	-1E+10	1	-1E+10	1	-1E+10	1
4901784	128	C	01/05/2019	10:46	-133.363	43.039	0	1255.10	0	2.9600	0	35.6830	8	28.443	0	1241.392	0	16.9	4	5.3	4	-1E+10	1	-1E+10	1	-1E+10	1	-1E+10	1	-1E+10	1	-1E+10	1
4901784	128	C	01/05/2019	10:46	-133.363	43.039	0	1260.40	0	2.9550	0	35.6830	8	28.443	0	1246.619	0	17.0	4	5.3	4	-1E+10	1	-1E+10	1	-1E+10	1	-1E+10	1	-1E+10	1	-1E+10	1
4901784	128	C	01/05/2019	10:46	-133.363	43.039	0	1264.80	0	2.9490	0	35.6850	8	28.446	0	1250.957	0	17.2	4	5.3	4	-1E+10	1	-1E+10	1	-1E+10	1	-1E+10	1	-1E+10	1	-1E+10	1
4901784	128	C	01/05/2019	10:46	-133.363	43.039	0	1269.30	0	2.9430	0	35.6860	8	28.447	0	1255.395	0	17.3	4	5.4	4	-1E+10	1	-1E+10	1	-1E+10	1	-1E+10	1	-1E+10	1	-1E+10	1
4901784	128	C	01/05/2019	10:46	-133.363	43.039	0	1274.60	0	2.9340	0	35.6880	8	28.449	0	1260.621	0	17.6	4	5.5	4	-1E+10	1	-1E+10	1	-1E+10	1	-1E+10	1	-1E+10	1	-1E+10	1
4901784	128	C	01/05/2019	10:46	-133.363	43.039	0	1280.00	0	2.9200	0	35.6900	8	28.452	0	1265.945	0	17.7	4	5.5	4	-1E+10	1	-1E+10	1	-1E+10	1	-1E+10	1	-1E+10	1	-1E+10	1
4901784	128	C	01/05/2019	10:46	-133.363	43.039	0	1285.40	0	2.9090	0	35.6910	8	28.454	0	1271.270	0	17.9	4	5.6	4	-1E+10	1	-1E+10	1	-1E+10	1	-1E+10	1	-1E+10	1	-1E+10	1
4901784	128	C	01/05/2019	10:46	-133.363	43.039	0	1289.90	0	2.9040	0	35.6920	8	28.455	0	1275.707	0	18.0	4	5.6	4	-1E+10	1	-1E+10	1	-1E+10	1	-1E+10	1	-1E+10	1	-1E+10	1
4901784	128	C	01/05/2019	10:46	-133.363	43.039	0	1294.50	0	2.8950	0	35.6940	8	28.458	0	1280.242	0	18.2	4	5.7	4	-1E+10	1	-1E+10	1	-1E+10	1	-1E+10	1	-1E+10	1	-1E+10	1
4901784	128	C	01/05/2019	10:46	-133.363	43.039	0	1299.90	0	2.8900	0	35.6950	8	28.459	0	1285.566	0	18.3	4	5.7	4	-1E+10	1	-1E+10	1	-1E+10	1	-1E+10	1	-1E+10	1	-1E+10	1
4901784	128	C	01/05/2019	10:46	-133.363	43.039	0	1305.50	0	2.8840	0	35.6960	8	28.461	0	1291.087	0	18.4	4	5.7	4	-1E+10	1	-1E+10	1	-1E+10	1	-1E+10	1	-1E+10	1	-1E+10	1
4901784	128	C	01/05/2019	10:46	-133.363	43.039	0	1310.10	0	2.8790	0	35.6970	8	28.462	0	1295.622	0	18.5	4	5.7	4	-1E+10	1	-1E+10	1	-1E+10	1	-1E+10	1	-1E+10	1	-1E+10	1
4901784	128	C	01/05/2019	10:46	-133.363	43.039	0	1314.80	0	2.8750	0	35.6980	8	28.463	0	1300.256	0	18.6	4	5.8	4	-1E+10	1	-1E+10	1	-1E+10	1	-1E+10	1	-1E+10	1	-1E+10	1
4901784	128	C	01/05/2019	10:46	-133.363	43.039	0	1320.20	0	2.8670	0	35.6990	8	28.465	0	1305.579	0	18.8	4	5.9	4	-1E+10	1	-1E+10	1	-1E+10	1	-1E+10	1	-1E+10	1	-1E+10	1
4901784	128	C	01/05/2019	10:46	-133.363	43.039	0	1325.50	0	2.8580	0	35.7010	8	28.467	0	1310.804	0	19.1	4	5.9	4	-1E+10	1	-1E+10	1	-1E+10	1	-1E+10	1	-1E+10	1	-1E+10	1
4901784	128	C	01/05/2019	10:46	-133.363	43.039	0	1330.40	0	2.8450	0	35.7030	8	28.470	0	1315.635	0	19.2	4	6.0	4	-1E+10	1	-1E+10	1	-1E+10	1	-1E+10	1	-1E+10	1	-1E+10	1
4901784	128	C	01/05/2019	10:46	-133.363	43.039	0	1335.30	0	2.8370	0	35.7040	8	28.471	0	1320.465	0	19.4	4	6.0	4	-1E+10	1	-1E+10	1	-1E+10	1	-1E+10	1	-1E+10	1	-1E+10	1
4901784	128	C	01/05/2019	10:46	-133.363	43.039	0	1340.30	0	2.8290	0	35.7050	8	28.473	0	1325.394	0	19.6	4	6.1	4	-1E+10	1	-1E+10	1	-1E+10	1	-1E+10	1	-1E+10	1	-1E+10	1
4901784	128	C	01/05/2019	10:46	-133.363	43.039	0	1345.20	0	2.8230	0	35.7060	8	28.474	0	1330.224	0	19.7	4	6.1	4	-1E+10	1	-1E+10	1	-1E+10	1	-1E+10	1	-1E+10	1	-1E+10	1
4901784	128	C	01/05/2019	10:46	-133.363	43.039	0	1350.20	0	2.8140	0	35.7070	8	28.476	0	1335.152	0	20.0	4	6.2	4	-1E+10	1	-1E+10	1	-1E+10	1	-1E+10	1	-1E+10	1	-1E+10	1
4901784	128	C	01/05/2019	10:46	-133.363	43.039	0	1355.20	0	2.8040	0	35.7090	8	28.479	0	1340.080	0	20.2	4	6.3	4	-1E+10	1	-1E+10	1	-1E+10	1	-1E+10	1	-1E+10	1	-1E+10	1
4901784	128	C	01/05/2019	10:46	-133.363	43.039	0	1360.20	0	2.7960	0	35.7110	8	28.481	0	1345.009	0	20.4	4	6.3	4	-1E+10	1	-1E+10	1	-1E+10	1	-1E+10	1	-1E+10	1	-1E+10	1
4901784	128	C	01/05/2019	10:46	-133.363	43.039	0	1365.20	0	2.7880	0	35.7120	8	28.483	0	1349.937	0	20.5	4	6.4	4	-1E+10	1	-1E+10	1	-1E+10	1	-1E+10	1	-1E+10	1	-1E+10	1
4901784	128	C	01/05/2019	10:46	-133.363	43.039	0	1370.30	0	2.7840	0	35.7130	8	28.484	0	1354.964	0	20.7	4	6.4	4	-1E+10	1	-1E+10	1	-1E+10	1	-1E+10	1	-1E+10	1	-1E+10	1
4901784	128	C	01/05/2019	10:46	-133.363	43.039	0	1375.40	0	2.7740	0	35.7140	8	28.485	0	1359.990	0	20.9	4	6.5	4	-1E+10	1	-1E+10	1	-1E+10	1	-1E+10	1	-1E+10	1	-1E+10	1
4901784	128	C	01/05/2019	10:46	-133.363	43.039	0	1380.40	0	2.7670	0	35.7160	8	28.488	0	1364.918	0	21.1	4	6.6	4	-1E+10	1	-1E+10	1	-1E+10	1	-1E+10	1	-1E+10	1	-1E+10	1
4901784	128	C	01/05/2019	10:46	-133.363	43.039	0	1385.50	0	2.7600	0	35.7170	8	28.489	0	1369.944	0	21.4	4	6.6	4	-1E+10	1	-1E+10	1	-1E+10	1	-1E+10	1	-1E+10	1	-1E+10	1
4901784	128	C	01/05/2019	10:46	-133.363	43.039	0	1390.60	0	2.7500	0	35.7180	8	28.491	0	1374.970	0	21.6	4	6.7	4	-1E+10	1	-1E+10	1	-1E+10	1	-1E+10	1	-1E+10	1	-1E+10	1
4901784	128	C	01/05/2019	10:46	-133.363	43.039	0	1395.70	0	2.7330	0	35.7200	8	28.494	0	1379.996	0	21.8	4	6.7	4	-1E+10	1	-1E+10	1	-1E+10	1	-1E+10	1	-1E+10	1	-1E+10	1
4901784	128	C	01/05/2019	10:46	-133.363	43.039	0	1400.10	0	2.7230	0	35.7220	8	28.497	0	1384.332	0	22.0	4	6.8	4	-1E+10	1	-1E+10	1	-1E+10	1	-1E+10	1	-1E+10	1	-1E+10	1
4901784	128	C	01/05/2019	10:46	-133.363	43.039	0	1404.40	0	2.7190	0	35.7230	8	28.498	0	1388.570	0	22.1	4	6.8	4	-1E+10	1	-1E+10	1	-1E+10	1	-1E+10	1	-1E+10	1	-1E+10	1
4901784	128	C	01/05/2019	10:46	-133.363	43.039	0	1409.60	0	2.7120	0	35.7240	8	28.499	0	1393.694	0	22.3	4	6.9	4	-1E+10	1	-1E+10	1	-1E+10	1	-1E+10	1	-1E+10	1	-1E+10	1
4901784	128	C	01/05/2019	10:46	-133.363	43.039	0	1414.90	0	2.7060	0	35.7250	8	28.501	0	1398.917	0	22.5	4	7.0	4	-1E+10	1	-1E+10	1	-1E+10	1	-1E+10	1	-1E+10	1	-1E+10	1
4901784	128	C	01/05/2019	10:46	-133.363	43.039	0	1420.10	0	2.7040	0	35.7260	8	28.502	0	1404.041	0	22.8	4	7.1	4	-1E+10	1	-1E+10	1	-1E+10	1	-1E+10	1	-1E+10	1	-1E+10	1
4901784	128	C	01/05/2019	10:46	-133.363	43.039	0	1425.40	0	2.6940	0	35.7270	8	28.503	0	1409.263	0	23.2	4	7.2	4	-1E+10	1	-1E+10	1	-1E+10	1	-1E+10	1	-1E+10	1	-1E+10	1
4901784	128	C	01/05/2019	10:46	-133.363	43.039	0	1429.90	0	2.6850	0	35.7300	8	28.507	0	1413.697	0	23.6	4	7.3	4	-1E+10	1	-1E+10	1	-1E+10	1	-1E+10	1	-1E+10	1	-1E+10	1
4901784	128	C	01/05/2019	10:46	-133.363	43.039	0	1434.30	0	2.6720	0	35.7310	8	28.509	0	1418.032	0	23.8	4	7.4	4	-1E+10	1	-1E+10	1	-1E+10	1	-1E+10	1	-1E+10	1	-1E+10	1
4901784	128	C	01/05/2019	10:46	-133.363	43.039	0	1439.70	0	2.6620	0	35.7330	8	28.511	0	1423.353	0	24.1	4	7.5	4	-1E+10	1	-1E+10	1	-1E+10	1	-1E+10	1	-1E+10	1	-1E+10	1
4901784	128	C	01/05/2019	10:46	-133.363	43.039	0	1445.10	0	2.6570	0	35.7340	8	28.512	0	1428.673	0	24.4	4	7.5	4	-1E+10	1	-1E+10	1	-1E+10	1	-1E+10	1	-1E+10	1	-1E+10	1
4901784	128	C	01/05/2019	10:46	-133.363	43.039	0	1450.60	0	2.6490	0	35.7360	8	28.515	0	1434.092	0	24.7	4	7.6	4	-1E+10	1	-1E+10	1	-1E+10	1	-1E+10	1	-1E+10	1	-1E+10	1
4901784	128	C	01/05/2019	10:46	-133.363	43.039	0	1455.10	0	2.6400	0	35.7380	8	28.517	0	1438.526	0	24.9	4	7.7	4	-1E+10	1	-1E+10	1	-1E+10	1	-1E+10	1	-1E+10	1	-1E+10	1
4901784	128	C	01/05/2019	10:46	-133.363	43.039	0	1459.70	0	2.6340	0	35.7380	8	28.518	0	1443.057	0	25.1	4	7.8	4	-1E+10	1	-1E+10	1	-1E+10	1	-1E+10	1	-1E+10	1	-1E+10	1
4901784	128	C	01/05/2019	10:46	-133.363	43.039	0	1465.20	0	2.6250	0	35.7400	8	28.520	0	1448.476	0	25.3	4	7.8	4	-1E+10	1	-1E+10	1	-1E+10	1	-1E+10	1	-1E+10	1	-1E+10	1
4901784	128	C	01/05/2019	10:46	-133.363	43.039	0	1470.60	0	2.6170	0	35.7410	8	28.522	0	1453.796	0	25.5	4	7.9	4	-1E+10	1	-1E+10	1	-1E+10	1	-1E+10	1	-1E+10	1	-1E+10	1
4901784	128	C	01/05/2019	10:46	-133.363	43.039	0	1475.10	0	2.6120	0	35.7410	8	28.522	0	1458.229	0	25.7	4	7.9	4	-1E+10	1	-1E+10	1	-1E+10	1	-1E+10	1	-1E+10	1	-1E+10	1
4901784	128	C	01/05/2019	10:46	-133.363	43.039	0	1479.60	0	2.6020	0	35.7430	8	28.525	0	1462.662	0	25.9	4	8.0	4	-1E+10	1	-1E+10	1	-1E+10	1	-1E+10	1	-1E+10	1	-1E+10	1
4901784	128	C	01/05/2019	10:46	-133.363	43.039	0	1485.00	0	2.5930	0	35.7440	8	28.526	0	1467.981	0	26.1	4	8.1	4	-1E+10	1	-1E+10	1	-1E+10	1	-1E+10	1	-1E+10	1	-1E+10	1
4901784	128	C	01/05/2019	10:46	-133.363	43.039	0	1490.50	0	2.5850	0	35.7450	8	28.528	0	1473.399	0	26.4	4	8.2	4	-1E+10	1	-1E+10	1	-1E+10	1	-1E+10	1	-1E+10	1	-1E+10	1
4901784	128	C	01/05/2019	10:46	-133.363	43.039	0	1495.10	0	2.5730	0	35.7470	8	28.531	0	1477.930	0	26.7	4	8.2	4	-1E+10	1	-1E+10	1	-1E+10	1	-1E+10	1	-1E+10	1	-1E+10	1
4901784	128	C	01/05/2019	10:46	-133.363	43.039	0	1499.70	0	2.5650	0	35.7480	8	28.532	0	1482.461	0	26.9	4	8.3	4	-1E+10	1	-1E+10	1	-1E+10	1	-1E+10	1	-1E+10	1	-1E+10	1
4901784	128	C	01/05/2019	10:46	-133.363	43.039	0	1505.20	0	2.5570	0	35.7490	8	28.534	0	1487.879	0	27.0	4	8.3	4	-1E+10	1	-1E+10	1	-1E+10	1	-1E+10	1	-1E+10	1	-1E+10	1
4901784	128	C	01/05/2019	10:46	-133.363	43.039	0	1509.90	0	2.5530	0	35.7500	8	28.535	0	1492.508	0	27.2	4	8.4	4	-1E+10	1	-1E+10	1	-1E+10	1	-1E+10	1	-1E+10	1	-1E+10	1
4901784	128	C	01/05/2019	10:46	-133.363	43.039	0	1514.50	0	2.5490	0	35.7500	8	28.535	0	1497.039	0	27.3	4	8.4	4	-1E+10	1	-1E+10	1	-1E+10	1	-1E+10	1	-1E+10	1	-1E+10	1
4901784	128	C	01/05/2019	10:46	-133.363	43.039	0	1520.00	0	2.5380	0	35.7520	8	28.538	0	1502.456	0	27.5	4	8.5	4	-1E+10	1	-1E+10	1	-1E+10	1	-1E+10	1	-1E+10	1	-1E+10	1
4901784	128	C	01/05/2019	10:46	-133.363	43.039	0	1525.60	0	2.5280	0	35.7530	8	28.540	0	1507.971	0	27.9	4	8.6	4	-1E+10	1	-1E+10	1	-1E+10	1	-1E+10	1	-1E+10	1	-1E+10	1
4901784	128	C	01/05/2019	10:46	-133.363	43.039	0	1530.30	0	2.5190	0	35.7550	8	28.542	0	1512.600	0	28.1	4	8.7	4	-1E+10	1	-1E+10	1	-1E+10	1	-1E+10	1	-1E+10	1	-1E+10	1
4901784	128	C	01/05/2019	10:46	-133.363	43.039	0	1534.90	0	2.5120	0	35.7560	8	28.543	0	1517.130	0	28.4	4	8.7	4	-1E+10	1	-1E+10	1	-1E+10	1	-1E+10	1	-1E+10	1	-1E+10	1
4901784	128	C	01/05/2019	10:46	-133.363	43.039	0	1540.50	0	2.5030	0	35.7570	8	28.545	0	1522.645	0	28.8	4	8.9	4	-1E+10	1	-1E+10	1	-1E+10	1	-1E+10	1	-1E+10	1	-1E+10	1
4901784	128	C	01/05/2019	10:46	-133.363	43.039	0	1545.20	0	2.4930	0	35.7590	8	28.547	0	1527.274	0	29.2	4	9.0	4	-1E+10	1	-1E+10	1	-1E+10	1	-1E+10	1	-1E+10	1	-1E+10	1
4901784	128	C	01/05/2019	10:46	-133.363	43.039	0	1549.90	0	2.4860	0	35.7600	8	28.549	0	1531.902	0	29.4	4	9.1	4	-1E+10	1	-1E+10	1	-1E+10	1	-1E+10	1	-1E+10	1	-1E+10	1
4901784	128	C	01/05/2019	10:46	-133.363	43.039	0	1555.50	0	2.4760	0	35.7610	8	28.551	0	1537.417	0	29.9	4	9.2	4	-1E+10	1	-1E+10	1	-1E+10	1	-1E+10	1	-1E+10	1	-1E+10	1
4901784	128	C	01/05/2019	10:46	-133.363	43.039	0	1560.20	0	2.4660	0	35.7630	8	28.553	0	1542.045	0	30.3	4	9.3	4	-1E+10	1	-1E+10	1	-1E+10	1	-1E+10	1	-1E+10	1	-1E+10	1
4901784	128	C	01/05/2019	10:46	-133.363	43.039	0	1564.90	0	2.4560	0	35.7640	8	28.555	0	1546.673	0	30.6	4	9.4	4	-1E+10	1	-1E+10	1	-1E+10	1	-1E+10	1	-1E+10	1	-1E+10	1
4901784	128	C	01/05/2019	10:46	-133.363	43.039	0	1570.50	0	2.4460	0	35.7660	8	28.557	0	1552.188	0	31.0	4	9.5	4	-1E+10	1	-1E+10	1	-1E+10	1	-1E+10	1	-1E+10	1	-1E+10	1
4901784	128	C	01/05/2019	10:46	-133.363	43.039	0	1575.30	0	2.4400	0	35.7670	8	28.559	0	1556.914	0	31.3	4	9.6	4	-1E+10	1	-1E+10	1	-1E+10	1	-1E+10	1	-1E+10	1	-1E+10	1
4901784	128	C	01/05/2019	10:46	-133.363	43.039	0	1579.90	0	2.4290	0	35.7690	8	28.561	0	1561.443	0	31.8	4	9.8	4	-1E+10	1	-1E+10	1	-1E+10	1	-1E+10	1	-1E+10	1	-1E+10	1
4901784	128	C	01/05/2019	10:46	-133.363	43.039	0	1584.80	0	2.4150	0	35.7710	8	28.564	0	1566.268	0	32.1	4	9.9	4	-1E+10	1	-1E+10	1	-1E+10	1	-1E+10	1	-1E+10	1	-1E+10	1
4901784	128	C	01/05/2019	10:46	-133.363	43.039	0	1589.80	0	2.4080	0	35.7720	8	28.565	0	1571.191	0	32.4	4	10.0	4	-1E+10	1	-1E+10	1	-1E+10	1	-1E+10	1	-1E+10	1	-1E+10	1
4901784	128	C	01/05/2019	10:46	-133.363	43.039	0	1594.80	0	2.3960	0	35.7740	8	28.568	0	1576.114	0	32.7	4	10.0	4	-1E+10	1	-1E+10	1	-1E+10	1	-1E+10	1	-1E+10	1	-1E+10	1
4901784	128	C	01/05/2019	10:46	-133.363	43.039	0	1599.90	0	2.3920	0	35.7750	8	28.569	0	1581.135	0	32.8	4	10.1	4	-1E+10	1	-1E+10	1	-1E+10	1	-1E+10	1	-1E+10	1	-1E+10	1
4901784	128	C	01/05/2019	10:46	-133.363	43.039	0	1605.00	0	2.3870	0	35.7760	8	28.571	0	1586.156	0	32.9	4	10.1	4	-1E+10	1	-1E+10	1	-1E+10	1	-1E+10	1	-1E+10	1	-1E+10	1
4901784	128	C	01/05/2019	10:46	-133.363	43.039	0	1610.10	0	2.3820	0	35.7760	8	28.571	0	1591.177	0	33.1	4	10.2	4	-1E+10	1	-1E+10	1	-1E+10	1	-1E+10	1	-1E+10	1	-1E+10	1
4901784	128	C	01/05/2019	10:46	-133.363	43.039	0	1615.10	0	2.3720	0	35.7780	8	28.574	0	1596.099	0	33.5	4	10.3	4	-1E+10	1	-1E+10	1	-1E+10	1	-1E+10	1	-1E+10	1	-1E+10	1
4901784	128	C	01/05/2019	10:46	-133.363	43.039	0	1620.20	0	2.3650	0	35.7790	8	28.575	0	1601.120	0	33.8	4	10.4	4	-1E+10	1	-1E+10	1	-1E+10	1	-1E+10	1	-1E+10	1	-1E+10	1
4901784	128	C	01/05/2019	10:46	-133.363	43.039	0	1625.20	0	2.3570	0	35.7810	8	28.577	0	1606.042	0	34.2	4	10.5	4	-1E+10	1	-1E+10	1	-1E+10	1	-1E+10	1	-1E+10	1	-1E+10	1
4901784	128	C	01/05/2019	10:46	-133.363	43.039	0	1630.40	0	2.3480	0	35.7820	8	28.579	0	1611.161	0	34.6	4	10.6	4	-1E+10	1	-1E+10	1	-1E+10	1	-1E+10	1	-1E+10	1	-1E+10	1
4901784	128	C	01/05/2019	10:46	-133.363	43.039	0	1635.50	0	2.3410	0	35.7830	8	28.580	0	1616.182	0	35.0	4	10.7	4	-1E+10	1	-1E+10	1	-1E+10	1	-1E+10	1	-1E+10	1	-1E+10	1
4901784	128	C	01/05/2019	10:46	-133.363	43.039	0	1640.70	0	2.3300	0	35.7850	8	28.583	0	1621.300	0	35.3	4	10.8	4	-1E+10	1	-1E+10	1	-1E+10	1	-1E+10	1	-1E+10	1	-1E+10	1
4901784	128	C	01/05/2019	10:46	-133.363	43.039	0	1645.10	0	2.3240	0	35.7860	8	28.584	0	1625.631	0	35.6	4	10.9	4	-1E+10	1	-1E+10	1	-1E+10	1	-1E+10	1	-1E+10	1	-1E+10	1
4901784	128	C	01/05/2019	10:46	-133.363	43.039	0	1649.40	0	2.3190	0	35.7870	8	28.585	0	1629.864	0	35.8	4	11.0	4	-1E+10	1	-1E+10	1	-1E+10	1	-1E+10	1	-1E+10	1	-1E+10	1
4901784	128	C	01/05/2019	10:46	-133.363	43.039	0	1654.60	0	2.3130	0	35.7880	8	28.587	0	1634.982	0	36.0	4	11.1	4	-1E+10	1	-1E+10	1	-1E+10	1	-1E+10	1	-1E+10	1	-1E+10	1
4901784	128	C	01/05/2019	10:46	-133.363	43.039	0	1659.80	0	2.3070	0	35.7880	8	28.587	0	1640.101	0	36.3	4	11.1	4	-1E+10	1	-1E+10	1	-1E+10	1	-1E+10	1	-1E+10	1	-1E+10	1
4901784	128	C	01/05/2019	10:46	-133.363	43.039	0	1665.10	0	2.3000	0	35.7900	8	28.590	0	1645.317	0	36.7	4	11.3	4	-1E+10	1	-1E+10	1	-1E+10	1	-1E+10	1	-1E+10	1	-1E+10	1
4901784	128	C	01/05/2019	10:46	-133.363	43.039	0	1670.40	0	2.2910	0	35.7910	8	28.591	0	1650.534	0	37.1	4	11.4	4	-1E+10	1	-1E+10	1	-1E+10	1	-1E+10	1	-1E+10	1	-1E+10	1
4901784	128	C	01/05/2019	10:46	-133.363	43.039	0	1674.90	0	2.2840	0	35.7930	8	28.593	0	1654.963	0	37.4	4	11.5	4	-1E+10	1	-1E+10	1	-1E+10	1	-1E+10	1	-1E+10	1	-1E+10	1
4901784	128	C	01/05/2019	10:46	-133.363	43.039	0	1679.30	0	2.2780	0	35.7930	8	28.594	0	1659.293	0	37.7	4	11.5	4	-1E+10	1	-1E+10	1	-1E+10	1	-1E+10	1	-1E+10	1	-1E+10	1
4901784	128	C	01/05/2019	10:46	-133.363	43.039	0	1684.60	0	2.2700	0	35.7950	8	28.596	0	1664.509	0	38.0	4	11.6	4	-1E+10	1	-1E+10	1	-1E+10	1	-1E+10	1	-1E+10	1	-1E+10	1
4901784	128	C	01/05/2019	10:46	-133.363	43.039	0	1689.90	0	2.2650	0	35.7960	8	28.597	0	1669.725	0	38.3	4	11.7	4	-1E+10	1	-1E+10	1	-1E+10	1	-1E+10	1	-1E+10	1	-1E+10	1
4901784	128	C	01/05/2019	10:46	-133.363	43.039	0	1695.20	0	2.2570	0	35.7970	8	28.599	0	1674.941	0	38.8	4	11.9	4	-1E+10	1	-1E+10	1	-1E+10	1	-1E+10	1	-1E+10	1	-1E+10	1
4901784	128	C	01/05/2019	10:46	-133.363	43.039	0	1700.60	0	2.2490	0	35.7990	8	28.601	0	1680.255	0	39.2	4	12.0	4	-1E+10	1	-1E+10	1	-1E+10	1	-1E+10	1	-1E+10	1	-1E+10	1
4901784	128	C	01/05/2019	10:46	-133.363	43.039	0	1705.00	0	2.2440	0	35.8000	8	28.603	0	1684.585	0	39.6	4	12.1	4	-1E+10	1	-1E+10	1	-1E+10	1	-1E+10	1	-1E+10	1	-1E+10	1
4901784	128	C	01/05/2019	10:46	-133.363	43.039	0	1709.50	0	2.2340	0	35.8010	8	28.604	0	1689.013	0	40.1	4	12.3	4	-1E+10	1	-1E+10	1	-1E+10	1	-1E+10	1	-1E+10	1	-1E+10	1
4901784	128	C	01/05/2019	10:46	-133.363	43.039	0	1714.80	0	2.2250	0	35.8030	8	28.607	0	1694.228	0	40.5	4	12.4	4	-1E+10	1	-1E+10	1	-1E+10	1	-1E+10	1	-1E+10	1	-1E+10	1
4901784	128	C	01/05/2019	10:46	-133.363	43.039	0	1720.10	0	2.2190	0	35.8040	8	28.608	0	1699.443	0	40.8	4	12.5	4	-1E+10	1	-1E+10	1	-1E+10	1	-1E+10	1	-1E+10	1	-1E+10	1
4901784	128	C	01/05/2019	10:46	-133.363	43.039	0	1725.50	0	2.2130	0	35.8050	8	28.609	0	1704.757	0	41.0	4	12.6	4	-1E+10	1	-1E+10	1	-1E+10	1	-1E+10	1	-1E+10	1	-1E+10	1
4901784	128	C	01/05/2019	10:46	-133.363	43.039	0	1730.00	0	2.2110	0	35.8060	8	28.610	0	1709.185	0	41.4	4	12.7	4	-1E+10	1	-1E+10	1	-1E+10	1	-1E+10	1	-1E+10	1	-1E+10	1
4901784	128	C	01/05/2019	10:46	-133.363	43.039	0	1734.50	0	2.2070	0	35.8070	8	28.611	0	1713.612	0	41.8	4	12.8	4	-1E+10	1	-1E+10	1	-1E+10	1	-1E+10	1	-1E+10	1	-1E+10	1
4901784	128	C	01/05/2019	10:46	-133.363	43.039	0	1740.50	0	2.1950	0	35.8090	8	28.614	0	1719.516	0	42.3	4	12.9	4	-1E+10	1	-1E+10	1	-1E+10	1	-1E+10	1	-1E+10	1	-1E+10	1
4901784	128	C	01/05/2019	10:46	-133.363	43.039	0	1745.40	0	2.1860	0	35.8100	8	28.616	0	1724.337	0	42.7	4	13.1	4	-1E+10	1	-1E+10	1	-1E+10	1	-1E+10	1	-1E+10	1	-1E+10	1
4901784	128	C	01/05/2019	10:46	-133.363	43.039	0	1750.10	0	2.1800	0	35.8110	8	28.617	0	1728.961	0	43.0	4	13.2	4	-1E+10	1	-1E+10	1	-1E+10	1	-1E+10	1	-1E+10	1	-1E+10	1
4901784	128	C	01/05/2019	10:46	-133.363	43.039	0	1754.90	0	2.1710	0	35.8120	8	28.619	0	1733.683	0	43.4	4	13.3	4	-1E+10	1	-1E+10	1	-1E+10	1	-1E+10	1	-1E+10	1	-1E+10	1
4901784	128	C	01/05/2019	10:46	-133.363	43.039	0	1759.70	0	2.1670	0	35.8130	8	28.620	0	1738.406	0	43.7	4	13.4	4	-1E+10	1	-1E+10	1	-1E+10	1	-1E+10	1	-1E+10	1	-1E+10	1
4901784	128	C	01/05/2019	10:46	-133.363	43.039	0	1764.60	0	2.1610	0	35.8150	8	28.622	0	1743.226	0	44.1	4	13.5	4	-1E+10	1	-1E+10	1	-1E+10	1	-1E+10	1	-1E+10	1	-1E+10	1
4901784	128	C	01/05/2019	10:46	-133.363	43.039	0	1769.40	0	2.1540	0	35.8160	8	28.623	0	1747.949	0	44.4	4	13.6	4	-1E+10	1	-1E+10	1	-1E+10	1	-1E+10	1	-1E+10	1	-1E+10	1
4901784	128	C	01/05/2019	10:46	-133.363	43.039	0	1774.30	0	2.1510	0	35.8160	8	28.624	0	1752.769	0	44.6	4	13.6	4	-1E+10	1	-1E+10	1	-1E+10	1	-1E+10	1	-1E+10	1	-1E+10	1
4901784	128	C	01/05/2019	10:46	-133.363	43.039	0	1779.30	0	2.1490	0	35.8170	8	28.625	0	1757.688	0	44.8	4	13.7	4	-1E+10	1	-1E+10	1	-1E+10	1	-1E+10	1	-1E+10	1	-1E+10	1
4901784	128	C	01/05/2019	10:46	-133.363	43.039	0	1784.20	0	2.1420	0	35.8180	8	28.626	0	1762.508	0	45.2	4	13.8	4	-1E+10	1	-1E+10	1	-1E+10	1	-1E+10	1	-1E+10	1	-1E+10	1
4901784	128	C	01/05/2019	10:46	-133.363	43.039	0	1789.20	0	2.1380	0	35.8190	8	28.627	0	1767.426	0	45.4	4	13.9	4	-1E+10	1	-1E+10	1	-1E+10	1	-1E+10	1	-1E+10	1	-1E+10	1
4901784	128	C	01/05/2019	10:46	-133.363	43.039	0	1794.30	0	2.1350	0	35.8200	8	28.628	0	1772.443	0	45.7	4	14.0	4	-1E+10	1	-1E+10	1	-1E+10	1	-1E+10	1	-1E+10	1	-1E+10	1
4901784	128	C	01/05/2019	10:46	-133.363	43.039	0	1799.30	0	2.1300	0	35.8210	8	28.629	0	1777.361	0	46.1	4	14.1	4	-1E+10	1	-1E+10	1	-1E+10	1	-1E+10	1	-1E+10	1	-1E+10	1
4901784	128	C	01/05/2019	10:46	-133.363	43.039	0	1804.40	0	2.1240	0	35.8220	8	28.631	0	1782.377	0	46.5	4	14.2	4	-1E+10	1	-1E+10	1	-1E+10	1	-1E+10	1	-1E+10	1	-1E+10	1
4901784	128	C	01/05/2019	10:46	-133.363	43.039	0	1809.40	0	2.1160	0	35.8230	8	28.632	0	1787.295	0	47.0	4	14.3	4	-1E+10	1	-1E+10	1	-1E+10	1	-1E+10	1	-1E+10	1	-1E+10	1
4901784	128	C	01/05/2019	10:46	-133.363	43.039	0	1814.50	0	2.1100	0	35.8240	8	28.634	0	1792.312	0	47.3	4	14.4	4	-1E+10	1	-1E+10	1	-1E+10	1	-1E+10	1	-1E+10	1	-1E+10	1
4901784	128	C	01/05/2019	10:46	-133.363	43.039	0	1819.70	0	2.1050	0	35.8250	8	28.635	0	1797.426	0	47.7	4	14.5	4	-1E+10	1	-1E+10	1	-1E+10	1	-1E+10	1	-1E+10	1	-1E+10	1
4901784	128	C	01/05/2019	10:46	-133.363	43.039	0	1824.90	0	2.1000	0	35.8260	8	28.636	0	1802.540	0	48.0	4	14.7	4	-1E+10	1	-1E+10	1	-1E+10	1	-1E+10	1	-1E+10	1	-1E+10	1
4901784	128	C	01/05/2019	10:46	-133.363	43.039	0	1830.00	0	2.0940	0	35.8270	8	28.637	0	1807.556	0	48.4	4	14.8	4	-1E+10	1	-1E+10	1	-1E+10	1	-1E+10	1	-1E+10	1	-1E+10	1
4901784	128	C	01/05/2019	10:46	-133.363	43.039	0	1835.20	0	2.0880	0	35.8280	8	28.639	0	1812.670	0	48.7	4	14.9	4	-1E+10	1	-1E+10	1	-1E+10	1	-1E+10	1	-1E+10	1	-1E+10	1
4901784	128	C	01/05/2019	10:46	-133.363	43.039	0	1840.40	0	2.0850	0	35.8290	8	28.640	0	1817.784	0	48.9	4	14.9	4	-1E+10	1	-1E+10	1	-1E+10	1	-1E+10	1	-1E+10	1	-1E+10	1
4901784	128	C	01/05/2019	10:46	-133.363	43.039	0	1845.70	0	2.0810	0	35.8300	8	28.641	0	1822.996	0	49.2	4	15.0	4	-1E+10	1	-1E+10	1	-1E+10	1	-1E+10	1	-1E+10	1	-1E+10	1
4901784	128	C	01/05/2019	10:46	-133.363	43.039	0	1850.20	0	2.0770	0	35.8310	8	28.642	0	1827.422	0	49.5	4	15.1	4	-1E+10	1	-1E+10	1	-1E+10	1	-1E+10	1	-1E+10	1	-1E+10	1
4901784	128	C	01/05/2019	10:46	-133.363	43.039	0	1854.70	0	2.0730	0	35.8320	8	28.643	0	1831.847	0	49.6	4	15.1	4	-1E+10	1	-1E+10	1	-1E+10	1	-1E+10	1	-1E+10	1	-1E+10	1
4901784	128	C	01/05/2019	10:46	-133.363	43.039	0	1860.00	0	2.0700	0	35.8330	8	28.644	0	1837.059	0	49.9	4	15.2	4	-1E+10	1	-1E+10	1	-1E+10	1	-1E+10	1	-1E+10	1	-1E+10	1
4901784	128	C	01/05/2019	10:46	-133.363	43.039	0	1865.40	0	2.0660	0	35.8340	8	28.645	0	1842.369	0	50.3	4	15.3	4	-1E+10	1	-1E+10	1	-1E+10	1	-1E+10	1	-1E+10	1	-1E+10	1
4901784	128	C	01/05/2019	10:46	-133.363	43.039	0	1869.90	0	2.0620	0	35.8340	8	28.646	0	1846.794	0	50.5	4	15.4	4	-1E+10	1	-1E+10	1	-1E+10	1	-1E+10	1	-1E+10	1	-1E+10	1
4901784	128	C	01/05/2019	10:46	-133.363	43.039	0	1874.50	0	2.0590	0	35.8350	8	28.647	0	1851.317	0	50.8	4	15.5	4	-1E+10	1	-1E+10	1	-1E+10	1	-1E+10	1	-1E+10	1	-1E+10	1
4901784	128	C	01/05/2019	10:46	-133.363	43.039	0	1879.90	0	2.0530	0	35.8360	8	28.648	0	1856.626	0	51.2	4	15.6	4	-1E+10	1	-1E+10	1	-1E+10	1	-1E+10	1	-1E+10	1	-1E+10	1
4901784	128	C	01/05/2019	10:46	-133.363	43.039	0	1885.00	0	2.0500	0	35.8360	8	28.649	0	1861.641	0	51.5	4	15.7	4	-1E+10	1	-1E+10	1	-1E+10	1	-1E+10	1	-1E+10	1	-1E+10	1
4901784	128	C	01/05/2019	10:46	-133.363	43.039	0	1890.10	0	2.0430	0	35.8380	8	28.651	0	1866.655	0	51.8	4	15.8	4	-1E+10	1	-1E+10	1	-1E+10	1	-1E+10	1	-1E+10	1	-1E+10	1
4901784	128	C	01/05/2019	10:46	-133.363	43.039	0	1895.70	0	2.0400	0	35.8380	8	28.651	0	1872.161	0	52.1	4	15.9	4	-1E+10	1	-1E+10	1	-1E+10	1	-1E+10	1	-1E+10	1	-1E+10	1
4901784	128	C	01/05/2019	10:46	-133.363	43.039	0	1900.50	0	2.0360	0	35.8390	8	28.652	0	1876.880	0	52.3	4	15.9	4	-1E+10	1	-1E+10	1	-1E+10	1	-1E+10	1	-1E+10	1	-1E+10	1
4901784	128	C	01/05/2019	10:46	-133.363	43.039	0	1905.40	0	2.0340	0	35.8400	8	28.653	0	1881.698	0	52.5	4	16.0	4	-1E+10	1	-1E+10	1	-1E+10	1	-1E+10	1	-1E+10	1	-1E+10	1
4901784	128	C	01/05/2019	10:46	-133.363	43.039	0	1910.30	0	2.0300	0	35.8400	8	28.654	0	1886.515	0	52.9	4	16.1	4	-1E+10	1	-1E+10	1	-1E+10	1	-1E+10	1	-1E+10	1	-1E+10	1
4901784	128	C	01/05/2019	10:46	-133.363	43.039	0	1915.20	0	2.0240	0	35.8420	8	28.656	0	1891.332	0	53.3	4	16.2	4	-1E+10	1	-1E+10	1	-1E+10	1	-1E+10	1	-1E+10	1	-1E+10	1
4901784	128	C	01/05/2019	10:46	-133.363	43.039	0	1920.10	0	2.0200	0	35.8430	8	28.657	0	1896.150	0	53.5	4	16.3	4	-1E+10	1	-1E+10	1	-1E+10	1	-1E+10	1	-1E+10	1	-1E+10	1
4901784	128	C	01/05/2019	10:46	-133.363	43.039	0	1925.00	0	2.0170	0	35.8430	8	28.657	0	1900.967	0	53.9	4	16.4	4	-1E+10	1	-1E+10	1	-1E+10	1	-1E+10	1	-1E+10	1	-1E+10	1
4901784	128	C	01/05/2019	10:46	-133.363	43.039	0	1930.10	0	2.0110	0	35.8440	8	28.658	0	1905.980	0	54.2	4	16.5	4	-1E+10	1	-1E+10	1	-1E+10	1	-1E+10	1	-1E+10	1	-1E+10	1
4901784	128	C	01/05/2019	10:46	-133.363	43.039	0	1935.10	0	2.0070	0	35.8450	8	28.660	0	1910.895	0	54.5	4	16.6	4	-1E+10	1	-1E+10	1	-1E+10	1	-1E+10	1	-1E+10	1	-1E+10	1
4901784	128	C	01/05/2019	10:46	-133.363	43.039	0	1940.20	0	2.0030	0	35.8450	8	28.660	0	1915.908	0	54.9	4	16.7	4	-1E+10	1	-1E+10	1	-1E+10	1	-1E+10	1	-1E+10	1	-1E+10	1
4901784	128	C	01/05/2019	10:46	-133.363	43.039	0	1945.30	0	1.9950	0	35.8470	8	28.662	0	1920.922	0	55.3	4	16.8	4	-1E+10	1	-1E+10	1	-1E+10	1	-1E+10	1	-1E+10	1	-1E+10	1
4901784	128	C	01/05/2019	10:46	-133.363	43.039	0	1950.50	0	1.9930	0	35.8480	8	28.663	0	1926.033	0	55.5	4	16.9	4	-1E+10	1	-1E+10	1	-1E+10	1	-1E+10	1	-1E+10	1	-1E+10	1
4901784	128	C	01/05/2019	10:46	-133.363	43.039	0	1955.70	0	1.9900	0	35.8480	8	28.663	0	1931.144	0	55.8	4	17.0	4	-1E+10	1	-1E+10	1	-1E+10	1	-1E+10	1	-1E+10	1	-1E+10	1
4901784	128	C	01/05/2019	10:46	-133.363	43.039	0	1960.00	0	1.9870	0	35.8490	8	28.665	0	1935.371	0	56.0	4	17.0	4	-1E+10	1	-1E+10	1	-1E+10	1	-1E+10	1	-1E+10	1	-1E+10	1
4901784	128	C	01/05/2019	10:46	-133.363	43.039	0	1964.40	0	1.9830	0	35.8500	8	28.666	0	1939.695	0	56.2	4	17.1	4	-1E+10	1	-1E+10	1	-1E+10	1	-1E+10	1	-1E+10	1	-1E+10	1
4901784	128	C	01/05/2019	10:46	-133.363	43.039	0	1969.60	0	1.9810	0	35.8500	8	28.666	0	1944.806	0	56.5	4	17.2	4	-1E+10	1	-1E+10	1	-1E+10	1	-1E+10	1	-1E+10	1	-1E+10	1
4901784	128	C	01/05/2019	10:46	-133.363	43.039	0	1974.90	0	1.9760	0	35.8510	8	28.667	0	1950.015	0	56.9	4	17.3	4	-1E+10	1	-1E+10	1	-1E+10	1	-1E+10	1	-1E+10	1	-1E+10	1
4901784	128	C	01/05/2019	10:46	-133.363	43.039	0	1980.20	0	1.9700	0	35.8520	8	28.668	0	1955.224	0	57.2	4	17.4	4	-1E+10	1	-1E+10	1	-1E+10	1	-1E+10	1	-1E+10	1	-1E+10	1
4901784	128	C	01/05/2019	10:46	-133.363	43.039	0	1985.50	0	1.9660	0	35.8530	8	28.670	0	1960.433	0	57.4	4	17.5	4	-1E+10	1	-1E+10	1	-1E+10	1	-1E+10	1	-1E+10	1	-1E+10	1
4901784	128	C	01/05/2019	10:46	-133.363	43.039	0	1990.10	0	1.9640	0	35.8530	8	28.670	0	1964.954	0	57.6	4	17.5	4	-1E+10	1	-1E+10	1	-1E+10	1	-1E+10	1	-1E+10	1	-1E+10	1
4901784	128	C	01/05/2019	10:46	-133.363	43.039	0	1995.50	0	1.9600	0	35.8540	8	28.671	0	1970.261	0	57.9	4	17.6	4	-1E+10	1	-1E+10	1	-1E+10	1	-1E+10	1	-1E+10	1	-1E+10	1
4901784	128	C	01/05/2019	10:46	-133.363	43.039	0	2000.10	0	1.9560	0	35.8550	8	28.672	0	1974.781	0	58.2	4	17.7	4	-1E+10	1	-1E+10	1	-1E+10	1	-1E+10	1	-1E+10	1	-1E+10	1
4901784	128	C	01/05/2019	10:46	-133.363	43.039	0	2005.40	0	1.9550	0	35.8560	8	28.673	0	1979.989	0	58.4	4	17.8	4	-1E+10	1	-1E+10	1	-1E+10	1	-1E+10	1	-1E+10	1	-1E+10	1
4901784	128	C	01/05/2019	10:46	-133.363	43.039	0	2010.10	0	1.9530	0	35.8570	8	28.674	0	1984.608	0	58.7	4	17.8	4	-1E+10	1	-1E+10	1	-1E+10	1	-1E+10	1	-1E+10	1	-1E+10	1
4901784	128	C	01/05/2019	10:46	-133.363	43.039	0	2015.10	0	1.9490	0	35.8590	8	28.676	0	1989.521	0	59.0	4	17.9	4	-1E+10	1	-1E+10	1	-1E+10	1	-1E+10	1	-1E+10	1	-1E+10	1
4901784	128	C	01/05/2019	10:46	-133.363	43.039	0	2019.00	0	1.9470	0	35.8600	8	28.677	0	1993.354	0	58.8	4	17.9	4	-1E+10	1	-1E+10	1	-1E+10	1	-1E+10	1	-1E+10	1	-1E+10	1
4901784	128	C	01/05/2019	10:46	-133.363	43.039	0																										
4901784	129	C	01/15/2019	10:42	-133.285	43.018	0	2.40	0	12.2540	0	33.5510	8	25.416	0	2.381	0	251.0	4	94.9	4	-1E+10	1	-1E+10	1	-1E+10	1	-1E+10	1	-1E+10	1	-1E+10	1
4901784	129	C	01/15/2019	10:42	-133.285	43.018	0	4.00	0	12.2540	0	33.5520	8	25.417	0	3.968	0	251.0	4	94.9	4	-1E+10	1	-1E+10	1	-1E+10	1	-1E+10	1	-1E+10	1	-1E+10	1
4901784	129	C	01/15/2019	10:42	-133.285	43.018	0	5.70	0	12.2530	0	33.5520	8	25.417	0	5.655	0	250.9	4	94.8	4	-1E+10	1	-1E+10	1	-1E+10	1	-1E+10	1	-1E+10	1	-1E+10	1
4901784	129	C	01/15/2019	10:42	-133.285	43.018	0	7.50	0	12.2560	0	33.5520	8	25.417	0	7.440	0	250.8	4	94.8	4	-1E+10	1	-1E+10	1	-1E+10	1	-1E+10	1	-1E+10	1	-1E+10	1
4901784	129	C	01/15/2019	10:42	-133.285	43.018	0	9.30	0	12.2530	0	33.5520	8	25.417	0	9.226	0	250.8	4	94.8	4	-1E+10	1	-1E+10	1	-1E+10	1	-1E+10	1	-1E+10	1	-1E+10	1
4901784	129	C	01/15/2019	10:42	-133.285	43.018	0	11.20	0	12.2540	0	33.5530	8	25.418	0	11.111	0	250.6	4	94.7	4	-1E+10	1	-1E+10	1	-1E+10	1	-1E+10	1	-1E+10	1	-1E+10	1
4901784	129	C	01/15/2019	10:42	-133.285	43.018	0	13.10	0	12.2580	0	33.5530	8	25.417	0	12.996	0	250.9	4	94.9	4	-1E+10	1	-1E+10	1	-1E+10	1	-1E+10	1	-1E+10	1	-1E+10	1
4901784	129	C	01/15/2019	10:42	-133.285	43.018	0	15.00	0	12.2580	0	33.5540	8	25.418	0	14.880	0	250.8	4	94.8	4	-1E+10	1	-1E+10	1	-1E+10	1	-1E+10	1	-1E+10	1	-1E+10	1
4901784	129	C	01/15/2019	10:42	-133.285	43.018	0	16.90	0	12.2580	0	33.5540	8	25.418	0	16.765	0	250.7	4	94.7	4	-1E+10	1	-1E+10	1	-1E+10	1	-1E+10	1	-1E+10	1	-1E+10	1
4901784	129	C	01/15/2019	10:42	-133.285	43.018	0	18.80	0	12.2580	0	33.5550	8	25.419	0	18.650	0	250.5	4	94.7	4	-1E+10	1	-1E+10	1	-1E+10	1	-1E+10	1	-1E+10	1	-1E+10	1
4901784	129	C	01/15/2019	10:42	-133.285	43.018	0	20.80	0	12.2580	0	33.5550	8	25.419	0	20.634	0	250.5	4	94.7	4	-1E+10	1	-1E+10	1	-1E+10	1	-1E+10	1	-1E+10	1	-1E+10	1
4901784	129	C	01/15/2019	10:42	-133.285	43.018	0	22.80	0	12.2590	0	33.5560	8	25.420	0	22.618	0	250.6	4	94.7	4	-1E+10	1	-1E+10	1	-1E+10	1	-1E+10	1	-1E+10	1	-1E+10	1
4901784	129	C	01/15/2019	10:42	-133.285	43.018	0	24.80	0	12.2590	0	33.5560	8	25.420	0	24.602	0	250.6	4	94.7	4	-1E+10	1	-1E+10	1	-1E+10	1	-1E+10	1	-1E+10	1	-1E+10	1
4901784	129	C	01/15/2019	10:42	-133.285	43.018	0	26.70	0	12.2590	0	33.5560	8	25.420	0	26.486	0	250.4	4	94.7	4	-1E+10	1	-1E+10	1	-1E+10	1	-1E+10	1	-1E+10	1	-1E+10	1
4901784	129	C	01/15/2019	10:42	-133.285	43.018	0	28.70	0	12.2600	0	33.5570	8	25.420	0	28.470	0	250.4	4	94.7	4	-1E+10	1	-1E+10	1	-1E+10	1	-1E+10	1	-1E+10	1	-1E+10	1
4901784	129	C	01/15/2019	10:42	-133.285	43.018	0	30.70	0	12.2600	0	33.5570	8	25.420	0	30.454	0	250.3	4	94.6	4	-1E+10	1	-1E+10	1	-1E+10	1	-1E+10	1	-1E+10	1	-1E+10	1
4901784	129	C	01/15/2019	10:42	-133.285	43.018	0	32.60	0	12.2600	0	33.5580	8	25.421	0	32.339	0	250.2	4	94.6	4	-1E+10	1	-1E+10	1	-1E+10	1	-1E+10	1	-1E+10	1	-1E+10	1
4901784	129	C	01/15/2019	10:42	-133.285	43.018	0	34.60	0	12.2600	0	33.5580	8	25.421	0	34.323	0	250.1	4	94.5	4	-1E+10	1	-1E+10	1	-1E+10	1	-1E+10	1	-1E+10	1	-1E+10	1
4901784	129	C	01/15/2019	10:42	-133.285	43.018	0	36.50	0	12.2590	0	33.5590	8	25.422	0	36.207	0	250.1	4	94.6	4	-1E+10	1	-1E+10	1	-1E+10	1	-1E+10	1	-1E+10	1	-1E+10	1
4901784	129	C	01/15/2019	10:42	-133.285	43.018	0	38.40	0	12.2600	0	33.5590	8	25.422	0	38.092	0	250.1	4	94.5	4	-1E+10	1	-1E+10	1	-1E+10	1	-1E+10	1	-1E+10	1	-1E+10	1
4901784	129	C	01/15/2019	10:42	-133.285	43.018	0	40.30	0	12.2600	0	33.5600	8	25.423	0	39.976	0	250.0	4	94.5	4	-1E+10	1	-1E+10	1	-1E+10	1	-1E+10	1	-1E+10	1	-1E+10	1
4901784	129	C	01/15/2019	10:42	-133.285	43.018	0	42.20	0	12.2600	0	33.5610	8	25.424	0	41.861	0	250.0	4	94.5	4	-1E+10	1	-1E+10	1	-1E+10	1	-1E+10	1	-1E+10	1	-1E+10	1
4901784	129	C	01/15/2019	10:42	-133.285	43.018	0	44.10	0	12.2610	0	33.5610	8	25.424	0	43.745	0	249.9	4	94.5	4	-1E+10	1	-1E+10	1	-1E+10	1	-1E+10	1	-1E+10	1	-1E+10	1
4901784	129	C	01/15/2019	10:42	-133.285	43.018	0	46.10	0	12.2610	0	33.5610	8	25.424	0	45.729	0	249.8	4	94.5	4	-1E+10	1	-1E+10	1	-1E+10	1	-1E+10	1	-1E+10	1	-1E+10	1
4901784	129	C	01/15/2019	10:42	-133.285	43.018	0	48.10	0	12.2600	0	33.5620	8	25.425	0	47.713	0	249.9	4	94.5	4	-1E+10	1	-1E+10	1	-1E+10	1	-1E+10	1	-1E+10	1	-1E+10	1
4901784	129	C	01/15/2019	10:42	-133.285	43.018	0	50.20	0	12.2600	0	33.5630	8	25.426	0	49.796	0	249.6	4	94.4	4	-1E+10	1	-1E+10	1	-1E+10	1	-1E+10	1	-1E+10	1	-1E+10	1
4901784	129	C	01/15/2019	10:42	-133.285	43.018	0	52.30	0	12.2620	0	33.5630	8	25.425	0	51.878	0	249.4	4	94.3	4	-1E+10	1	-1E+10	1	-1E+10	1	-1E+10	1	-1E+10	1	-1E+10	1
4901784	129	C	01/15/2019	10:42	-133.285	43.018	0	54.30	0	12.2620	0	33.5640	8	25.426	0	53.862	0	249.6	4	94.3	4	-1E+10	1	-1E+10	1	-1E+10	1	-1E+10	1	-1E+10	1	-1E+10	1
4901784	129	C	01/15/2019	10:42	-133.285	43.018	0	56.30	0	12.2610	0	33.5640	8	25.426	0	55.846	0	249.1	4	94.2	4	-1E+10	1	-1E+10	1	-1E+10	1	-1E+10	1	-1E+10	1	-1E+10	1
4901784	129	C	01/15/2019	10:42	-133.285	43.018	0	58.20	0	12.2620	0	33.5650	8	25.427	0	57.730	0	249.1	4	94.2	4	-1E+10	1	-1E+10	1	-1E+10	1	-1E+10	1	-1E+10	1	-1E+10	1
4901784	129	C	01/15/2019	10:42	-133.285	43.018	0	60.20	0	12.2620	0	33.5650	8	25.427	0	59.714	0	248.8	4	94.0	4	-1E+10	1	-1E+10	1	-1E+10	1	-1E+10	1	-1E+10	1	-1E+10	1
4901784	129	C	01/15/2019	10:42	-133.285	43.018	0	62.10	0	12.2570	0	33.5660	8	25.429	0	61.598	0	248.6	4	94.0	4	-1E+10	1	-1E+10	1	-1E+10	1	-1E+10	1	-1E+10	1	-1E+10	1
4901784	129	C	01/15/2019	10:42	-133.285	43.018	0	64.00	0	12.2500	0	33.5660	8	25.430	0	63.482	0	248.6	4	94.0	4	-1E+10	1	-1E+10	1	-1E+10	1	-1E+10	1	-1E+10	1	-1E+10	1
4901784	129	C	01/15/2019	10:42	-133.285	43.018	0	66.00	0	12.2500	0	33.5660	8	25.430	0	65.466	0	248.4	4	93.9	4	-1E+10	1	-1E+10	1	-1E+10	1	-1E+10	1	-1E+10	1	-1E+10	1
4901784	129	C	01/15/2019	10:42	-133.285	43.018	0	67.80	0	12.2470	0	33.5660	8	25.431	0	67.251	0	248.2	4	93.8	4	-1E+10	1	-1E+10	1	-1E+10	1	-1E+10	1	-1E+10	1	-1E+10	1
4901784	129	C	01/15/2019	10:42	-133.285	43.018	0	69.70	0	12.2460	0	33.5660	8	25.431	0	69.135	0	248.0	4	93.7	4	-1E+10	1	-1E+10	1	-1E+10	1	-1E+10	1	-1E+10	1	-1E+10	1
4901784	129	C	01/15/2019	10:42	-133.285	43.018	0	71.60	0	12.2460	0	33.5660	8	25.431	0	71.019	0	247.7	4	93.6	4	-1E+10	1	-1E+10	1	-1E+10	1	-1E+10	1	-1E+10	1	-1E+10	1
4901784	129	C	01/15/2019	10:42	-133.285	43.018	0	73.50	0	12.2450	0	33.5660	8	25.431	0	72.904	0	247.5	4	93.5	4	-1E+10	1	-1E+10	1	-1E+10	1	-1E+10	1	-1E+10	1	-1E+10	1
4901784	129	C	01/15/2019	10:42	-133.285	43.018	0	75.40	0	12.2430	0	33.5650	8	25.431	0	74.788	0	247.3	4	93.4	4	-1E+10	1	-1E+10	1	-1E+10	1	-1E+10	1	-1E+10	1	-1E+10	1
4901784	129	C	01/15/2019	10:42	-133.285	43.018	0	77.50	0	12.2430	0	33.5620	8	25.429	0	76.871	0	246.7	4	93.3	4	-1E+10	1	-1E+10	1	-1E+10	1	-1E+10	1	-1E+10	1	-1E+10	1
4901784	129	C	01/15/2019	10:42	-133.285	43.018	0	78.00	0	12.2430	0	33.5610	8	25.428	0	77.366	0	246.9	4	93.3	4	-1E+10	1	-1E+10	1	-1E+10	1	-1E+10	1	-1E+10	1	-1E+10	1
4901784	129	C	01/15/2019	10:42	-133.285	43.018	0	79.60	0	12.2420	0	33.5560	8	25.424	0	78.953	0	246.5	4	93.1	4	-1E+10	1	-1E+10	1	-1E+10	1	-1E+10	1	-1E+10	1	-1E+10	1
4901784	129	C	01/15/2019	10:42	-133.285	43.018	0	81.00	0	12.2410	0	33.5480	8	25.418	0	80.341	0	246.0	4	93.0	4	-1E+10	1	-1E+10	1	-1E+10	1	-1E+10	1	-1E+10	1	-1E+10	1
4901784	129	C	01/15/2019	10:42	-133.285	43.018	0	82.40	0	12.2400	0	33.5350	8	25.408	0	81.730	0	245.7	4	92.8	4	-1E+10	1	-1E+10	1	-1E+10	1	-1E+10	1	-1E+10	1	-1E+10	1
4901784	129	C	01/15/2019	10:42	-133.285	43.018	0	83.90	0	12.1190	0	33.5460	8	25.440	0	83.217	0	245.0	4	92.3	4	-1E+10	1	-1E+10	1	-1E+10	1	-1E+10	1	-1E+10	1	-1E+10	1
4901784	129	C	01/15/2019	10:42	-133.285	43.018	0	85.30	0	11.7330	0	33.5300	8	25.500	0	84.606	0	246.2	4	92.0	4	-1E+10	1	-1E+10	1	-1E+10	1	-1E+10	1	-1E+10	1	-1E+10	1
4901784	129	C	01/15/2019	10:42	-133.285	43.018	0	86.80	0	10.7290	0	33.6010	8	25.736	0	86.093	0	249.1	4	91.2	4	-1E+10	1	-1E+10	1	-1E+10	1	-1E+10	1	-1E+10	1	-1E+10	1
4901784	129	C	01/15/2019	10:42	-133.285	43.018	0	88.40	0	10.2950	0	33.5950	8	25.807	0	87.680	0	252.6	4	91.6	4	-1E+10	1	-1E+10	1	-1E+10	1	-1E+10	1	-1E+10	1	-1E+10	1
4901784	129	C	01/15/2019	10:42	-133.285	43.018	0	90.00	0	9.9900	0	33.5960	8	25.859	0	89.266	0	253.4	4	91.3	4	-1E+10	1	-1E+10	1	-1E+10	1	-1E+10	1	-1E+10	1	-1E+10	1
4901784	129	C	01/15/2019	10:42	-133.285	43.018	0	91.60	0	9.6350	0	33.6220	8	25.939	0	90.853	0	253.9	4	90.8	4	-1E+10	1	-1E+10	1	-1E+10	1	-1E+10	1	-1E+10	1	-1E+10	1
4901784	129	C	01/15/2019	10:42	-133.285	43.018	0	93.40	0	9.3210	0	33.6060	8	25.977	0	92.638	0	255.9	4	90.9	4	-1E+10	1	-1E+10	1	-1E+10	1	-1E+10	1	-1E+10	1	-1E+10	1
4901784	129	C	01/15/2019	10:42	-133.285	43.018	0	95.20	0	9.1480	0	33.6130	8	26.011	0	94.423	0	256.2	4	90.7	4	-1E+10	1	-1E+10	1	-1E+10	1	-1E+10	1	-1E+10	1	-1E+10	1
4901784	129	C	01/15/2019	10:42	-133.285	43.018	0	97.00	0	9.0300	0	33.6170	8	26.032	0	96.208	0	256.6	4	90.6	4	-1E+10	1	-1E+10	1	-1E+10	1	-1E+10	1	-1E+10	1	-1E+10	1
4901784	129	C	01/15/2019	10:42	-133.285	43.018	0	98.80	0	9.0200	0	33.6150	8	26.032	0	97.992	0	256.3	4	90.5	4	-1E+10	1	-1E+10	1	-1E+10	1	-1E+10	1	-1E+10	1	-1E+10	1
4901784	129	C	01/15/2019	10:42	-133.285	43.018	0	102.30	0	9.0000	0	33.6110	8	26.033	0	101.463	0	255.2	4	90.0	4	-1E+10	1	-1E+10	1	-1E+10	1	-1E+10	1	-1E+10	1	-1E+10	1
4901784	129	C	01/15/2019	10:42	-133.285	43.018	0	105.00	0	8.8650	0	33.6180	8	26.059	0	104.140	0	254.7	4	89.6	4	-1E+10	1	-1E+10	1	-1E+10	1	-1E+10	1	-1E+10	1	-1E+10	1
4901784	129	C	01/15/2019	10:42	-133.285	43.018	0	108.20	0	8.7520	0	33.6250	8	26.082	0	107.313	0	254.2	4	89.2	4	-1E+10	1	-1E+10	1	-1E+10	1	-1E+10	1	-1E+10	1	-1E+10	1
4901784	129	C	01/15/2019	10:42	-133.285	43.018	0	110.00	0	8.7320	0	33.6220	8	26.083	0	109.098	0	253.6	4	88.9	4	-1E+10	1	-1E+10	1	-1E+10	1	-1E+10	1	-1E+10	1	-1E+10	1
4901784	129	C	01/15/2019	10:42	-133.285	43.018	0	112.30	0	8.6290	0	33.6330	8	26.108	0	111.378	0	252.7	4	88.4	4	-1E+10	1	-1E+10	1	-1E+10	1	-1E+10	1	-1E+10	1	-1E+10	1
4901784	129	C	01/15/2019	10:42	-133.285	43.018	0	115.30	0	8.5860	0	33.6470	8	26.125	0	114.353	0	250.9	4	87.7	4	-1E+10	1	-1E+10	1	-1E+10	1	-1E+10	1	-1E+10	1	-1E+10	1
4901784	129	C	01/15/2019	10:42	-133.285	43.018	0	117.60	0	8.5380	0	33.6680	8	26.149	0	116.633	0	249.2	4	87.0	4	-1E+10	1	-1E+10	1	-1E+10	1	-1E+10	1	-1E+10	1	-1E+10	1
4901784	129	C	01/15/2019	10:42	-133.285	43.018	0	120.00	0	8.3520	0	33.6970	8	26.200	0	119.013	0	248.3	4	86.4	4	-1E+10	1	-1E+10	1	-1E+10	1	-1E+10	1	-1E+10	1	-1E+10	1
4901784	129	C	01/15/2019	10:42	-133.285	43.018	0	122.30	0	8.2150	0	33.7200	8	26.239	0	121.293	0	247.3	4	85.8	4	-1E+10	1	-1E+10	1	-1E+10	1	-1E+10	1	-1E+10	1	-1E+10	1
4901784	129	C	01/15/2019	10:42	-133.285	43.018	0	124.70	0	8.1950	0	33.7610	8	26.274	0	123.673	0	245.5	4	85.2	4	-1E+10	1	-1E+10	1	-1E+10	1	-1E+10	1	-1E+10	1	-1E+10	1
4901784	129	C	01/15/2019	10:42	-133.285	43.018	0	127.10	0	8.1880	0	33.8330	8	26.332	0	126.053	0	243.7	4	84.6	4	-1E+10	1	-1E+10	1	-1E+10	1	-1E+10	1	-1E+10	1	-1E+10	1
4901784	129	C	01/15/2019	10:42	-133.285	43.018	0	129.80	0	8.1750	0	33.8550	8	26.351	0	128.729	0	242.3	4	84.1	4	-1E+10	1	-1E+10	1	-1E+10	1	-1E+10	1	-1E+10	1	-1E+10	1
4901784	129	C	01/15/2019	10:42	-133.285	43.018	0	132.30	0	8.1140	0	33.9070	8	26.401	0	131.208	0	240.9	4	83.5	4	-1E+10	1	-1E+10	1	-1E+10	1	-1E+10	1	-1E+10	1	-1E+10	1
4901784	129	C	01/15/2019	10:42	-133.285	43.018	0	134.90	0	8.0560	0	33.9620	8	26.453	0	133.786	0	239.8	4	83.1	4	-1E+10	1	-1E+10	1	-1E+10	1	-1E+10	1	-1E+10	1	-1E+10	1
4901784	129	C	01/15/2019	10:42	-133.285	43.018	0	138.00	0	8.0330	0	33.9970	8	26.484	0	136.859	0	238.5	4	82.6	4	-1E+10	1	-1E+10	1	-1E+10	1	-1E+10	1	-1E+10	1	-1E+10	1
4901784	129	C	01/15/2019	10:42	-133.285	43.018	0	139.80	0	7.9720	0	34.0410	8	26.527	0	138.644	0	237.8	4	82.2	4	-1E+10	1	-1E+10	1	-1E+10	1	-1E+10	1	-1E+10	1	-1E+10	1
4901784	129	C	01/15/2019	10:42	-133.285	43.018	0	142.10	0	7.9560	0	34.0700	8	26.552	0	140.924	0	236.4	4	81.8	4	-1E+10	1	-1E+10	1	-1E+10	1	-1E+10	1	-1E+10	1	-1E+10	1
4901784	129	C	01/15/2019	10:42	-133.285	43.018	0	145.10	0	7.9260	0	34.1480	8	26.618	0	143.898	0	234.5	4	81.1	4	-1E+10	1	-1E+10	1	-1E+10	1	-1E+10	1	-1E+10	1	-1E+10	1
4901784	129	C	01/15/2019	10:42	-133.285	43.018	0	147.50	0	7.9030	0	34.2180	8	26.676	0	146.277	0	233.2	4	80.7	4	-1E+10	1	-1E+10	1	-1E+10	1	-1E+10	1	-1E+10	1	-1E+10	1
4901784	129	C	01/15/2019	10:42	-133.285	43.018	0	149.90	0	7.9100	0	34.2480	8	26.699	0	148.656	0	232.0	4	80.3	4	-1E+10	1	-1E+10	1	-1E+10	1	-1E+10	1	-1E+10	1	-1E+10	1
4901784	129	C	01/15/2019	10:42	-133.285	43.018	0	152.40	0	7.9180	0	34.2760	8	26.720	0	151.135	0	230.6	4	79.8	4	-1E+10	1	-1E+10	1	-1E+10	1	-1E+10	1	-1E+10	1	-1E+10	1
4901784	129	C	01/15/2019	10:42	-133.285	43.018	0	154.90	0	7.9230	0	34.3440	8	26.773	0	153.613	0	228.8	4	79.2	4	-1E+10	1	-1E+10	1	-1E+10	1	-1E+10	1	-1E+10	1	-1E+10	1
4901784	129	C	01/15/2019	10:42	-133.285	43.018	0	157.40	0	7.9320	0	34.3870	8	26.805	0	156.091	0	227.4	4	78.8	4	-1E+10	1	-1E+10	1	-1E+10	1	-1E+10	1	-1E+10	1	-1E+10	1
4901784	129	C	01/15/2019	10:42	-133.285	43.018	0	159.90	0	7.9440	0	34.4360	8	26.842	0	158.570	0	226.0	4	78.4	4	-1E+10	1	-1E+10	1	-1E+10	1	-1E+10	1	-1E+10	1	-1E+10	1
4901784	129	C	01/15/2019	10:42	-133.285	43.018	0	162.40	0	7.9510	0	34.4530	8	26.854	0	161.048	0	225.0	4	78.0	4	-1E+10	1	-1E+10	1	-1E+10	1	-1E+10	1	-1E+10	1	-1E+10	1
4901784	129	C	01/15/2019	10:42	-133.285	43.018	0	165.00	0	7.9710	0	34.4870	8	26.878	0	163.625	0	223.3	4	77.5	4	-1E+10	1	-1E+10	1	-1E+10	1	-1E+10	1	-1E+10	1	-1E+10	1
4901784	129	C	01/15/2019	10:42	-133.285	43.018	0	167.60	0	7.9970	0	34.5240	8	26.903	0	166.202	0	221.2	4	76.8	4	-1E+10	1	-1E+10	1	-1E+10	1	-1E+10	1	-1E+10	1	-1E+10	1
4901784	129	C	01/15/2019	10:42	-133.285	43.018	0	170.30	0	8.0210	0	34.5570	8	26.926	0	168.879	0	218.7	4	76.0	4	-1E+10	1	-1E+10	1	-1E+10	1	-1E+10	1	-1E+10	1	-1E+10	1
4901784	129	C	01/15/2019	10:42	-133.285	43.018	0	172.90	0	8.0580	0	34.6050	8	26.958	0	171.456	0	215.9	4	75.1	4	-1E+10	1	-1E+10	1	-1E+10	1	-1E+10	1	-1E+10	1	-1E+10	1
4901784	129	C	01/15/2019	10:42	-133.285	43.018	0	174.70	0	8.1060	0	34.6630	8	26.996	0	173.240	0	213.7	4	74.5	4	-1E+10	1	-1E+10	1	-1E+10	1	-1E+10	1	-1E+10	1	-1E+10	1
4901784	129	C	01/15/2019	10:42	-133.285	43.018	0	177.60	0	8.1460	0	34.7100	8	27.027	0	176.115	0	210.5	4	73.4	4	-1E+10	1	-1E+10	1	-1E+10	1	-1E+10	1	-1E+10	1	-1E+10	1
4901784	129	C	01/15/2019	10:42	-133.285	43.018	0	179.90	0	8.1990	0	34.7650	8	27.062	0	178.395	0	207.4	4	72.5	4	-1E+10	1	-1E+10	1	-1E+10	1	-1E+10	1	-1E+10	1	-1E+10	1
4901784	129	C	01/15/2019	10:42	-133.285	43.018	0	183.00	0	8.2630	0	34.8270	8	27.101	0	181.467	0	203.4	4	71.2	4	-1E+10	1	-1E+10	1	-1E+10	1	-1E+10	1	-1E+10	1	-1E+10	1
4901784	129	C	01/15/2019	10:42	-133.285	43.018	0	185.20	0	8.2930	0	34.8580	8	27.121	0	183.648	0	200.5	4	70.3	4	-1E+10	1	-1E+10	1	-1E+10	1	-1E+10	1	-1E+10	1	-1E+10	1
4901784	129	C	01/15/2019	10:42	-133.285	43.018	0	187.50	0	8.3180	0	34.8820	8	27.136	0	185.928	0	197.2	4	69.2	4	-1E+10	1	-1E+10	1	-1E+10	1	-1E+10	1	-1E+10	1	-1E+10	1
4901784	129	C	01/15/2019	10:42	-133.285	43.018	0	189.70	0	8.3570	0	34.9220	8	27.162	0	188.108	0	193.4	4	67.9	4	-1E+10	1	-1E+10	1	-1E+10	1	-1E+10	1	-1E+10	1	-1E+10	1
4901784	129	C	01/15/2019	10:42	-133.285	43.018	0	192.20	0	8.4200	0	34.9950	8	27.209	0	190.586	0	189.9	4	66.8	4	-1E+10	1	-1E+10	1	-1E+10	1	-1E+10	1	-1E+10	1	-1E+10	1
4901784	129	C	01/15/2019	10:42	-133.285	43.018	0	195.40	0	8.4390	0	35.0250	8	27.230	0	193.758	0	187.4	4	66.0	4	-1E+10	1	-1E+10	1	-1E+10	1	-1E+10	1	-1E+10	1	-1E+10	1
4901784	129	C	01/15/2019	10:42	-133.285	43.018	0	197.80	0	8.4440	0	35.0340	8	27.236	0	196.136	0	185.9	4	65.4	4	-1E+10	1	-1E+10	1	-1E+10	1	-1E+10	1	-1E+10	1	-1E+10	1
4901784	129	C	01/15/2019	10:42	-133.285	43.018	0	200.30	0	8.4470	0	35.0410	8	27.241	0	198.614	0	184.0	4	64.8	4	-1E+10	1	-1E+10	1	-1E+10	1	-1E+10	1	-1E+10	1	-1E+10	1
4901784	129	C	01/15/2019	10:42	-133.285	43.018	0	202.90	0	8.4520	0	35.0690	8	27.263	0	201.191	0	181.6	4	64.0	4	-1E+10	1	-1E+10	1	-1E+10	1	-1E+10	1	-1E+10	1	-1E+10	1
4901784	129	C	01/15/2019	10:42	-133.285	43.018	0	205.30	0	8.4430	0	35.0880	8	27.279	0	203.570	0	179.8	4	63.3	4	-1E+10	1	-1E+10	1	-1E+10	1	-1E+10	1	-1E+10	1	-1E+10	1
4901784	129	C	01/15/2019	10:42	-133.285	43.018	0	207.90	0	8.4340	0	35.0980	8	27.288	0	206.146	0	178.2	4	62.8	4	-1E+10	1	-1E+10	1	-1E+10	1	-1E+10	1	-1E+10	1	-1E+10	1
4901784	129	C	01/15/2019	10:42	-133.285	43.018	0	209.50	0	8.4140	0	35.1040	8	27.296	0	207.732	0	177.3	4	62.4	4	-1E+10	1	-1E+10	1	-1E+10	1	-1E+10	1	-1E+10	1	-1E+10	1
4901784	129	C	01/15/2019	10:42	-133.285	43.018	0	212.10	0	8.3710	0	35.1150	8	27.311	0	210.309	0	176.2	4	62.0	4	-1E+10	1	-1E+10	1	-1E+10	1	-1E+10	1	-1E+10	1	-1E+10	1
4901784	129	C	01/15/2019	10:42	-133.285	43.018	0	214.60	0	8.3510	0	35.1190	8	27.318	0	212.786	0	175.1	4	61.6	4	-1E+10	1	-1E+10	1	-1E+10	1	-1E+10	1	-1E+10	1	-1E+10	1
4901784	129	C	01/15/2019	10:42	-133.285	43.018	0	217.20	0	8.3390	0	35.1180	8	27.319	0	215.363	0	173.8	4	61.1	4	-1E+10	1	-1E+10	1	-1E+10	1	-1E+10	1	-1E+10	1	-1E+10	1
4901784	129	C	01/15/2019	10:42	-133.285	43.018	0	219.70	0	8.2770	0	35.1250	8	27.334	0	217.841	0	172.2	4	60.4	4	-1E+10	1	-1E+10	1	-1E+10	1	-1E+10	1	-1E+10	1	-1E+10	1
4901784	129	C	01/15/2019	10:42	-133.285	43.018	0	222.20	0	8.2190	0	35.1240	8	27.342	0	220.318	0	171.0	4	59.9	4	-1E+10	1	-1E+10	1	-1E+10	1	-1E+10	1	-1E+10	1	-1E+10	1
4901784	129	C	01/15/2019	10:42	-133.285	43.018	0	224.80	0	8.1800	0	35.1220	8	27.346	0	222.895	0	169.6	4	59.4	4	-1E+10	1	-1E+10	1	-1E+10	1	-1E+10	1	-1E+10	1	-1E+10	1
4901784	129	C	01/15/2019	10:42	-133.285	43.018	0	227.50	0	8.1050	0	35.1270	8	27.362	0	225.570	0	168.3	4	58.8	4	-1E+10	1	-1E+10	1	-1E+10	1	-1E+10	1	-1E+10	1	-1E+10	1
4901784	129	C	01/15/2019	10:42	-133.285	43.018	0	230.10	0	8.0740	0	35.1240	8	27.364	0	228.147	0	167.2	4	58.4	4	-1E+10	1	-1E+10	1	-1E+10	1	-1E+10	1	-1E+10	1	-1E+10	1
4901784	129	C	01/15/2019	10:42	-133.285	43.018	0	232.80	0	8.0290	0	35.1230	8	27.370	0	230.822	0	165.5	4	57.8	4	-1E+10	1	-1E+10	1	-1E+10	1	-1E+10	1	-1E+10	1	-1E+10	1
4901784	129	C	01/15/2019	10:42	-133.285	43.018	0	235.40	0	7.9680	0	35.1210	8	27.378	0	233.399	0	164.0	4	57.2	4	-1E+10	1	-1E+10	1	-1E+10	1	-1E+10	1	-1E+10	1	-1E+10	1
4901784	129	C	01/15/2019	10:42	-133.285	43.018	0	237.10	0	7.8990	0	35.1220	8	27.389	0	235.083	0	162.8	4	56.7	4	-1E+10	1	-1E+10	1	-1E+10	1	-1E+10	1	-1E+10	1	-1E+10	1
4901784	129	C	01/15/2019	10:42	-133.285	43.018	0	239.70	0	7.8300	0	35.1200	8	27.397	0	237.660	0	161.6	4	56.2	4	-1E+10	1	-1E+10	1	-1E+10	1	-1E+10	1	-1E+10	1	-1E+10	1
4901784	129	C	01/15/2019	10:42	-133.285	43.018	0	242.40	0	7.7710	0	35.1190	8	27.405	0	240.335	0	160.6	4	55.7	4	-1E+10	1	-1E+10	1	-1E+10	1	-1E+10	1	-1E+10	1	-1E+10	1
4901784	129	C	01/15/2019	10:42	-133.285	43.018	0	244.90	0	7.7270	0	35.1200	8	27.413	0	242.812	0	159.8	4	55.4	4	-1E+10	1	-1E+10	1	-1E+10	1	-1E+10	1	-1E+10	1	-1E+10	1
4901784	129	C	01/15/2019	10:42	-133.285	43.018	0	247.50	0	7.7040	0	35.1190	8	27.415	0	245.389	0	159.0	4	55.1	4	-1E+10	1	-1E+10	1	-1E+10	1	-1E+10	1	-1E+10	1	-1E+10	1
4901784	129	C	01/15/2019	10:42	-133.285	43.018	0	250.10	0	7.6950	0	35.1170	8	27.415	0	247.965	0	157.9	4	54.7	4	-1E+10	1	-1E+10	1	-1E+10	1	-1E+10	1	-1E+10	1	-1E+10	1
4901784	129	C	01/15/2019	10:42	-133.285	43.018	0	252.80	0	7.6660	0	35.1160	8	27.419	0	250.640	0	156.3	4	54.1	4	-1E+10	1	-1E+10	1	-1E+10	1	-1E+10	1	-1E+10	1	-1E+10	1
4901784	129	C	01/15/2019	10:42	-133.285	43.018	0	254.50	0	7.6350	0	35.1150	8	27.422	0	252.325	0	155.2	4	53.7	4	-1E+10	1	-1E+10	1	-1E+10	1	-1E+10	1	-1E+10	1	-1E+10	1
4901784	129	C	01/15/2019	10:42	-133.285	43.018	0	257.20	0	7.5620	0	35.1140	8	27.432	0	255.000	0	153.6	4	53.0	4	-1E+10	1	-1E+10	1	-1E+10	1	-1E+10	1	-1E+10	1	-1E+10	1
4901784	129	C	01/15/2019	10:42	-133.285	43.018	0	259.80	0	7.5070	0	35.1120	8	27.439	0	257.576	0	152.0	4	52.4	4	-1E+10	1	-1E+10	1	-1E+10	1	-1E+10	1	-1E+10	1	-1E+10	1
4901784	129	C	01/15/2019	10:42	-133.285	43.018	0	262.50	0	7.4580	0	35.1120	8	27.446	0	260.251	0	150.5	4	51.9	4	-1E+10	1	-1E+10	1	-1E+10	1	-1E+10	1	-1E+10	1	-1E+10	1
4901784	129	C	01/15/2019	10:42	-133.285	43.018	0	265.10	0	7.4060	0	35.1140	8	27.455	0	262.827	0	149.0	4	51.3	4	-1E+10	1	-1E+10	1	-1E+10	1	-1E+10	1	-1E+10	1	-1E+10	1
4901784	129	C	01/15/2019	10:42	-133.285	43.018	0	267.80	0	7.3650	0	35.1130	8	27.460	0	265.503	0	147.8	4	50.8	4	-1E+10	1	-1E+10	1	-1E+10	1	-1E+10	1	-1E+10	1	-1E+10	1
4901784	129	C	01/15/2019	10:42	-133.285	43.018	0	270.50	0	7.3370	0	35.1130	8	27.464	0	268.178	0	146.4	4	50.3	4	-1E+10	1	-1E+10	1	-1E+10	1	-1E+10	1	-1E+10	1	-1E+10	1
4901784	129	C	01/15/2019	10:42	-133.285	43.018	0	272.20	0	7.3200	0	35.1120	8	27.466	0	269.862	0	145.3	4	49.9	4	-1E+10	1	-1E+10	1	-1E+10	1	-1E+10	1	-1E+10	1	-1E+10	1
4901784	129	C	01/15/2019	10:42	-133.285	43.018	0	275.00	0	7.2540	0	35.1140	8	27.477	0	272.636	0	143.8	4	49.3	4	-1E+10	1	-1E+10	1	-1E+10	1	-1E+10	1	-1E+10	1	-1E+10	1
4901784	129	C	01/15/2019	10:42	-133.285	43.018	0	277.70	0	7.2260	0	35.1120	8	27.479	0	275.311	0	142.2	4	48.8	4	-1E+10	1	-1E+10	1	-1E+10	1	-1E+10	1	-1E+10	1	-1E+10	1
4901784	129	C	01/15/2019	10:42	-133.285	43.018	0	279.50	0	7.1730	0	35.1140	8	27.488	0	277.094	0	141.0	4	48.3	4	-1E+10	1	-1E+10	1	-1E+10	1	-1E+10	1	-1E+10	1	-1E+10	1
4901784	129	C	01/15/2019	10:42	-133.285	43.018	0	282.30	0	7.1350	0	35.1130	8	27.493	0	279.868	0	139.4	4	47.7	4	-1E+10	1	-1E+10	1	-1E+10	1	-1E+10	1	-1E+10	1	-1E+10	1
4901784	129	C	01/15/2019	10:42	-133.285	43.018	0	285.00	0	7.0950	0	35.1110	8	27.497	0	282.543	0	137.6	4	47.0	4	-1E+10	1	-1E+10	1	-1E+10	1	-1E+10	1	-1E+10	1	-1E+10	1
4901784	129	C	01/15/2019	10:42	-133.285	43.018	0	286.90	0	7.0540	0	35.1100	8	27.502	0	284.426	0	136.2	4	46.5	4	-1E+10	1	-1E+10	1	-1E+10	1	-1E+10	1	-1E+10	1	-1E+10	1
4901784	129	C	01/15/2019	10:42	-133.285	43.018	0	289.80	0	6.9580	0	35.1110	8	27.516	0	287.299	0	135.0	4	46.0	4	-1E+10	1	-1E+10	1	-1E+10	1	-1E+10	1	-1E+10	1	-1E+10	1
4901784	129	C	01/15/2019	10:42	-133.285	43.018	0	292.60	0	6.9400	0	35.1100	8	27.518	0	290.072	0	134.1	4	45.7	4	-1E+10	1	-1E+10	1	-1E+10	1	-1E+10	1	-1E+10	1	-1E+10	1
4901784	129	C	01/15/2019	10:42	-133.285	43.018	0	294.50	0	6.9230	0	35.1080	8	27.519	0	291.955	0	133.2	4	45.4	4	-1E+10	1	-1E+10	1	-1E+10	1	-1E+10	1	-1E+10	1	-1E+10	1
4901784	129	C	01/15/2019	10:42	-133.285	43.018	0	297.30	0	6.9100	0	35.1070	8	27.520	0	294.729	0	132.1	4	45.0	4	-1E+10	1	-1E+10	1	-1E+10	1	-1E+10	1	-1E+10	1	-1E+10	1
4901784	129	C	01/15/2019	10:42	-133.285	43.018	0	300.20	0	6.8970	0	35.1060	8	27.521	0	297.601	0	130.6	4	44.4	4	-1E+10	1	-1E+10	1	-1E+10	1	-1E+10	1	-1E+10	1	-1E+10	1
4901784	129	C	01/15/2019	10:42	-133.285	43.018	0	302.10	0	6.8750	0	35.1050	8	27.523	0	299.484	0	129.4	4	44.0	4	-1E+10	1	-1E+10	1	-1E+10	1	-1E+10	1	-1E+10	1	-1E+10	1
4901784	129	C	01/15/2019	10:42	-133.285	43.018	0	304.80	0	6.7610	0	35.1090	8	27.542	0	302.158	0	127.5	4	43.3	4	-1E+10	1	-1E+10	1	-1E+10	1	-1E+10	1	-1E+10	1	-1E+10	1
4901784	129	C	01/15/2019	10:42	-133.285	43.018	0	307.60	0	6.6860	0	35.1080	8	27.551	0	304.932	0	126.6	4	42.9	4	-1E+10	1	-1E+10	1	-1E+10	1	-1E+10	1	-1E+10	1	-1E+10	1
4901784	129	C	01/15/2019	10:42	-133.285	43.018	0	309.60	0	6.6610	0	35.1100	8	27.556	0	306.913	0	126.1	4	42.7	4	-1E+10	1	-1E+10	1	-1E+10	1	-1E+10	1	-1E+10	1	-1E+10	1
4901784	129	C	01/15/2019	10:42	-133.285	43.018	0	312.50	0	6.6450	0	35.1090	8	27.558	0	309.786	0	125.0	4	42.3	4	-1E+10	1	-1E+10	1	-1E+10	1	-1E+10	1	-1E+10	1	-1E+10	1
4901784	129	C	01/15/2019	10:42	-133.285	43.018	0	315.40	0	6.5990	0	35.1100	8	27.565	0	312.658	0	123.7	4	41.8	4	-1E+10	1	-1E+10	1	-1E+10	1	-1E+10	1	-1E+10	1	-1E+10	1
4901784	129	C	01/15/2019	10:42	-133.285	43.018	0	317.30	0	6.5750	0	35.1100	8	27.568	0	314.540	0	123.0	4	41.5	4	-1E+10	1	-1E+10	1	-1E+10	1	-1E+10	1	-1E+10	1	-1E+10	1
4901784	129	C	01/15/2019	10:42	-133.285	43.018	0	319.30	0	6.5540	0	35.1090	8	27.570	0	316.521	0	122.2	4	41.3	4	-1E+10	1	-1E+10	1	-1E+10	1	-1E+10	1	-1E+10	1	-1E+10	1
4901784	129	C	01/15/2019	10:42	-133.285	43.018	0	322.20	0	6.5180	0	35.1070	8	27.573	0	319.394	0	120.8	4	40.7	4	-1E+10	1	-1E+10	1	-1E+10	1	-1E+10	1	-1E+10	1	-1E+10	1
4901784	129	C	01/15/2019	10:42	-133.285	43.018	0	325.20	0	6.4900	0	35.1030	8	27.574	0	322.366	0	119.3	4	40.2	4	-1E+10	1	-1E+10	1	-1E+10	1	-1E+10	1	-1E+10	1	-1E+10	1
4901784	129	C	01/15/2019	10:42	-133.285	43.018	0	327.70	0	6.4150	0	35.1030	8	27.584	0	324.842	0	118.2	4	39.8	4	-1E+10	1	-1E+10	1	-1E+10	1	-1E+10	1	-1E+10	1	-1E+10	1
4901784	129	C	01/15/2019	10:42	-133.285	43.018	0	329.70	0	6.3810	0	35.1020	8	27.588	0	326.823	0	117.3	4	39.5	4	-1E+10	1	-1E+10	1	-1E+10	1	-1E+10	1	-1E+10	1	-1E+10	1
4901784	129	C	01/15/2019	10:42	-133.285	43.018	0	332.10	0	6.3440	0	35.1020	8	27.593	0	329.200	0	116.3	4	39.1	4	-1E+10	1	-1E+10	1	-1E+10	1	-1E+10	1	-1E+10	1	-1E+10	1
4901784	129	C	01/15/2019	10:42	-133.285	43.018	0	335.40	0	6.2850	0	35.1020	8	27.600	0	332.468	0	114.6	4	38.4	4	-1E+10	1	-1E+10	1	-1E+10	1	-1E+10	1	-1E+10	1	-1E+10	1
4901784	129	C	01/15/2019	10:42	-133.285	43.018	0	337.80	0	6.2410	0	35.1030	8	27.607	0	334.846	0	113.4	4	38.0	4	-1E+10	1	-1E+10	1	-1E+10	1	-1E+10	1	-1E+10	1	-1E+10	1
4901784	129	C	01/15/2019	10:42	-133.285	43.018	0	340.20	0	6.1950	0	35.1020	8	27.612	0	337.223	0	112.0	4	37.5	4	-1E+10	1	-1E+10	1	-1E+10	1	-1E+10	1	-1E+10	1	-1E+10	1
4901784	129	C	01/15/2019	10:42	-133.285	43.018	0	342.60	0	6.1830	0	35.0990	8	27.611	0	339.600	0	110.6	4	37.0	4	-1E+10	1	-1E+10	1	-1E+10	1	-1E+10	1	-1E+10	1	-1E+10	1
4901784	129	C	01/15/2019	10:42	-133.285	43.018	0	345.10	0	6.1000	0	35.1000	8	27.623	0	342.076	0	109.5	4	36.6	4	-1E+10	1	-1E+10	1	-1E+10	1	-1E+10	1	-1E+10	1	-1E+10	1
4901784	129	C	01/15/2019	10:42	-133.285	43.018	0	347.70	0	6.0450	0	35.1010	8	27.631	0	344.651	0	108.6	4	36.2	4	-1E+10	1	-1E+10	1	-1E+10	1	-1E+10	1	-1E+10	1	-1E+10	1
4901784	129	C	01/15/2019	10:42	-133.285	43.018	0	350.30	0	6.0310	0	35.0990	8	27.631	0	347.226	0	107.5	4	35.8	4	-1E+10	1	-1E+10	1	-1E+10	1	-1E+10	1	-1E+10	1	-1E+10	1
4901784	129	C	01/15/2019	10:42	-133.285	43.018	0	352.90	0	6.0110	0	35.0990	8	27.634	0	349.801	0	105.8	4	35.3	4	-1E+10	1	-1E+10	1	-1E+10	1	-1E+10	1	-1E+10	1	-1E+10	1
4901784	129	C	01/15/2019	10:42	-133.285	43.018	0	354.60	0	5.9460	0	35.0970	8	27.640	0	351.484	0	104.7	4	34.8	4	-1E+10	1	-1E+10	1	-1E+10	1	-1E+10	1	-1E+10	1	-1E+10	1
4901784	129	C	01/15/2019	10:42	-133.285	43.018	0	357.20	0	5.9000	0	35.0980	8	27.647	0	354.059	0	103.4	4	34.4	4	-1E+10	1	-1E+10	1	-1E+10	1	-1E+10	1	-1E+10	1	-1E+10	1
4901784	129	C	01/15/2019	10:42	-133.285	43.018	0	359.70	0	5.8540	0	35.0990	8	27.654	0	356.535	0	101.9	4	33.8	4	-1E+10	1	-1E+10	1	-1E+10	1	-1E+10	1	-1E+10	1	-1E+10	1
4901784	129	C	01/15/2019	10:42	-133.285	43.018	0	362.30	0	5.8080	0	35.1020	8	27.662	0	359.110	0	100.6	4	33.4	4	-1E+10	1	-1E+10	1	-1E+10	1	-1E+10	1	-1E+10	1	-1E+10	1
4901784	129	C	01/15/2019	10:42	-133.285	43.018	0	364.90	0	5.7870	0	35.1010	8	27.664	0	361.685	0	99.7	4	33.1	4	-1E+10	1	-1E+10	1	-1E+10	1	-1E+10	1	-1E+10	1	-1E+10	1
4901784	129	C	01/15/2019	10:42	-133.285	43.018	0	367.40	0	5.7530	0	35.1040	8	27.670	0	364.161	0	99.0	4	32.8	4	-1E+10	1	-1E+10	1	-1E+10	1	-1E+10	1	-1E+10	1	-1E+10	1
4901784	129	C	01/15/2019	10:42	-133.285	43.018	0	370.00	0	5.7450	0	35.1030	8	27.671	0	366.735	0	98.5	4	32.6	4	-1E+10	1	-1E+10	1	-1E+10	1	-1E+10	1	-1E+10	1	-1E+10	1
4901784	129	C	01/15/2019	10:42	-133.285	43.018	0	372.50	0	5.7430	0	35.1010	8	27.669	0	369.211	0	97.5	4	32.3	4	-1E+10	1	-1E+10	1	-1E+10	1	-1E+10	1	-1E+10	1	-1E+10	1
4901784	129	C	01/15/2019	10:42	-133.285	43.018	0	375.00	0	5.6740	0	35.1040	8	27.680	0	371.687	0	96.6	4	32.0	4	-1E+10	1	-1E+10	1	-1E+10	1	-1E+10	1	-1E+10	1	-1E+10	1
4901784	129	C	01/15/2019	10:42	-133.285	43.018	0	377.50	0	5.6420	0	35.1040	8	27.684	0	374.162	0	96.2	4	31.8	4	-1E+10	1	-1E+10	1	-1E+10	1	-1E+10	1	-1E+10	1	-1E+10	1
4901784	129	C	01/15/2019	10:42	-133.285	43.018	0	380.10	0	5.6100	0	35.1050	8	27.689	0	376.737	0	95.7	4	31.6	4	-1E+10	1	-1E+10	1	-1E+10	1	-1E+10	1	-1E+10	1	-1E+10	1
4901784	129	C	01/15/2019	10:42	-133.285	43.018	0	382.60	0	5.5970	0	35.1040	8	27.690	0	379.213	0	94.9	4	31.3	4	-1E+10	1	-1E+10	1	-1E+10	1	-1E+10	1	-1E+10	1	-1E+10	1
4901784	129	C	01/15/2019	10:42	-133.285	43.018	0	385.10	0	5.5860	0	35.1070	8	27.694	0	381.688	0	94.1	4	31.1	4	-1E+10	1	-1E+10	1	-1E+10	1	-1E+10	1	-1E+10	1	-1E+10	1
4901784	129	C	01/15/2019	10:42	-133.285	43.018	0	387.60	0	5.5630	0	35.1070	8	27.697	0	384.164	0	93.9	4	31.0	4	-1E+10	1	-1E+10	1	-1E+10	1	-1E+10	1	-1E+10	1	-1E+10	1
4901784	129	C	01/15/2019	10:42	-133.285	43.018	0	390.10	0	5.5430	0	35.1070	8	27.699	0	386.639	0	94.0	4	31.0	4	-1E+10	1	-1E+10	1	-1E+10	1	-1E+10	1	-1E+10	1	-1E+10	1
4901784	129	C	01/15/2019	10:42	-133.285	43.018	0	392.70	0	5.5070	0	35.1050	8	27.702	0	389.214	0	94.4	4	31.1	4	-1E+10	1	-1E+10	1	-1E+10	1	-1E+10	1	-1E+10	1	-1E+10	1
4901784	129	C	01/15/2019	10:42	-133.285	43.018	0	395.20	0	5.4850	0	35.1020	8	27.702	0	391.689	0	94.1	4	31.0	4	-1E+10	1	-1E+10	1	-1E+10	1	-1E+10	1	-1E+10	1	-1E+10	1
4901784	129	C	01/15/2019	10:42	-133.285	43.018	0	397.80	0	5.4480	0	35.1050	8	27.709	0	394.264	0	93.5	4	30.8	4	-1E+10	1	-1E+10	1	-1E+10	1	-1E+10	1	-1E+10	1	-1E+10	1
4901784	129	C	01/15/2019	10:42	-133.285	43.018	0	400.40	0	5.4380	0	35.1040	8	27.710	0	396.838	0	93.0	4	30.6	4	-1E+10	1	-1E+10	1	-1E+10	1	-1E+10	1	-1E+10	1	-1E+10	1
4901784	129	C	01/15/2019	10:42	-133.285	43.018	0	402.10	0	5.4330	0	35.1040	8	27.710	0	398.521	0	92.5	4	30.4	4	-1E+10	1	-1E+10	1	-1E+10	1	-1E+10	1	-1E+10	1	-1E+10	1
4901784	129	C	01/15/2019	10:42	-133.285	43.018	0	404.60	0	5.4120	0	35.1070	8	27.715	0	400.997	0	91.6	4	30.1	4	-1E+10	1	-1E+10	1	-1E+10	1	-1E+10	1	-1E+10	1	-1E+10	1
4901784	129	C	01/15/2019	10:42	-133.285	43.018	0	407.20	0	5.3650	0	35.1080	8	27.722	0	403.571	0	91.0	4	29.9	4	-1E+10	1	-1E+10	1	-1E+10	1	-1E+10	1	-1E+10	1	-1E+10	1
4901784	129	C	01/15/2019	10:42	-133.285	43.018	0	409.80	0	5.3390	0	35.1090	8	27.726	0	406.145	0	90.5	4	29.7	4	-1E+10	1	-1E+10	1	-1E+10	1	-1E+10	1	-1E+10	1	-1E+10	1
4901784	129	C	01/15/2019	10:42	-133.285	43.018	0	412.30	0	5.3260	0	35.1070	8	27.726	0	408.621	0	89.8	4	29.5	4	-1E+10	1	-1E+10	1	-1E+10	1	-1E+10	1	-1E+10	1	-1E+10	1
4901784	129	C	01/15/2019	10:42	-133.285	43.018	0	414.90	0	5.3150	0	35.1070	8	27.727	0	411.195	0	88.7	4	29.1	4	-1E+10	1	-1E+10	1	-1E+10	1	-1E+10	1	-1E+10	1	-1E+10	1
4901784	129	C	01/15/2019	10:42	-133.285	43.018	0	417.60	0	5.2760	0	35.1090	8	27.733	0	413.868	0	87.2	4	28.6	4	-1E+10	1	-1E+10	1	-1E+10	1	-1E+10	1	-1E+10	1	-1E+10	1
4901784	129	C	01/15/2019	10:42	-133.285	43.018	0	420.20	0	5.2540	0	35.1100	8	27.737	0	416.442	0	85.3	4	27.9	4	-1E+10	1	-1E+10	1	-1E+10	1	-1E+10	1	-1E+10	1	-1E+10	1
4901784	129	C	01/15/2019	10:42	-133.285	43.018	0	422.70	0	5.2250	0	35.1150	8	27.744	0	418.917	0	83.3	4	27.3	4	-1E+10	1	-1E+10	1	-1E+10	1	-1E+10	1	-1E+10	1	-1E+10	1
4901784	129	C	01/15/2019	10:42	-133.285	43.018	0	425.30	0	5.2090	0	35.1170	8	27.748	0	421.491	0	82.2	4	26.9	4	-1E+10	1	-1E+10	1	-1E+10	1	-1E+10	1	-1E+10	1	-1E+10	1
4901784	129	C	01/15/2019	10:42	-133.285	43.018	0	427.80	0	5.1690	0	35.1200	8	27.755	0	423.966	0	81.2	4	26.5	4	-1E+10	1	-1E+10	1	-1E+10	1	-1E+10	1	-1E+10	1	-1E+10	1
4901784	129	C	01/15/2019	10:42	-133.285	43.018	0	429.50	0	5.1410	0	35.1210	8	27.759	0	425.649	0	80.4	4	26.3	4	-1E+10	1	-1E+10	1	-1E+10	1	-1E+10	1	-1E+10	1	-1E+10	1
4901784	129	C	01/15/2019	10:42	-133.285	43.018	0	432.20	0	5.1070	0	35.1250	8	27.766	0	428.322	0	79.4	4	25.9	4	-1E+10	1	-1E+10	1	-1E+10	1	-1E+10	1	-1E+10	1	-1E+10	1
4901784	129	C	01/15/2019	10:42	-133.285	43.018	0	434.80	0	5.0730	0	35.1280	8	27.773	0	430.896	0	78.5	4	25.6	4	-1E+10	1	-1E+10	1	-1E+10	1	-1E+10	1	-1E+10	1	-1E+10	1
4901784	129	C	01/15/2019	10:42	-133.285	43.018	0	437.40	0	5.0640	0	35.1300	8	27.775	0	433.470	0	77.6	4	25.3	4	-1E+10	1	-1E+10	1	-1E+10	1	-1E+10	1	-1E+10	1	-1E+10	1
4901784	129	C	01/15/2019	10:42	-133.285	43.018	0	440.10	0	5.0510	0	35.1330	8	27.779	0	436.143	0	76.6	4	25.0	4	-1E+10	1	-1E+10	1	-1E+10	1	-1E+10	1	-1E+10	1	-1E+10	1
4901784	129	C	01/15/2019	10:42	-133.285	43.018	0	442.70	0	5.0570	0	35.1350	8	27.780	0	438.717	0	75.4	4	24.6	4	-1E+10	1	-1E+10	1	-1E+10	1	-1E+10	1	-1E+10	1	-1E+10	1
4901784	129	C	01/15/2019	10:42	-133.285	43.018	0	445.40	0	5.0450	0	35.1380	8	27.784	0	441.390	0	74.6	4	24.3	4	-1E+10	1	-1E+10	1	-1E+10	1	-1E+10	1	-1E+10	1	-1E+10	1
4901784	129	C	01/15/2019	10:42	-133.285	43.018	0	447.10	0	5.0470	0	35.1380	8	27.784	0	443.073	0	74.3	4	24.2	4	-1E+10	1	-1E+10	1	-1E+10	1	-1E+10	1	-1E+10	1	-1E+10	1
4901784	129	C	01/15/2019	10:42	-133.285	43.018	0	449.80	0	5.0140	0	35.1370	8	27.787	0	445.746	0	73.9	4	24.1	4	-1E+10	1	-1E+10	1	-1E+10	1	-1E+10	1	-1E+10	1	-1E+10	1
4901784	129	C	01/15/2019	10:42	-133.285	43.018	0	452.50	0	4.9460	0	35.1430	8	27.799	0	448.418	0	73.3	4	23.8	4	-1E+10	1	-1E+10	1	-1E+10	1	-1E+10	1	-1E+10	1	-1E+10	1
4901784	129	C	01/15/2019	10:42	-133.285	43.018	0	455.20	0	4.9340	0	35.1450	8	27.802	0	451.091	0	72.3	4	23.5	4	-1E+10	1	-1E+10	1	-1E+10	1	-1E+10	1	-1E+10	1	-1E+10	1
4901784	129	C	01/15/2019	10:42	-133.285	43.018	0	457.90	0	4.9200	0	35.1480	8	27.806	0	453.764	0	71.3	4	23.2	4	-1E+10	1	-1E+10	1	-1E+10	1	-1E+10	1	-1E+10	1	-1E+10	1
4901784	129	C	01/15/2019	10:42	-133.285	43.018	0	459.70	0	4.9180	0	35.1500	8	27.808	0	455.546	0	70.6	4	22.9	4	-1E+10	1	-1E+10	1	-1E+10	1	-1E+10	1	-1E+10	1	-1E+10	1
4901784	129	C	01/15/2019	10:42	-133.285	43.018	0	462.40	0	4.9130	0	35.1530	8	27.811	0	458.218	0	69.8	4	22.7	4	-1E+10	1	-1E+10	1	-1E+10	1	-1E+10	1	-1E+10	1	-1E+10	1
4901784	129	C	01/15/2019	10:42	-133.285	43.018	0	465.10	0	4.8930	0	35.1560	8	27.816	0	460.891	0	69.2	4	22.5	4	-1E+10	1	-1E+10	1	-1E+10	1	-1E+10	1	-1E+10	1	-1E+10	1
4901784	129	C	01/15/2019	10:42	-133.285	43.018	0	467.00	0	4.8880	0	35.1560	8	27.817	0	462.771	0	68.8	4	22.4	4	-1E+10	1	-1E+10	1	-1E+10	1	-1E+10	1	-1E+10	1	-1E+10	1
4901784	129	C	01/15/2019	10:42	-133.285	43.018	0	469.80	0	4.8690	0	35.1590	8	27.821	0	465.543	0	68.0	4	22.1	4	-1E+10	1	-1E+10	1	-1E+10	1	-1E+10	1	-1E+10	1	-1E+10	1
4901784	129	C	01/15/2019	10:42	-133.285	43.018	0	472.50	0	4.8550	0	35.1620	8	27.825	0	468.215	0	67.0	4	21.8	4	-1E+10	1	-1E+10	1	-1E+10	1	-1E+10	1	-1E+10	1	-1E+10	1
4901784	129	C	01/15/2019	10:42	-133.285	43.018	0	475.20	0	4.8460	0	35.1650	8	27.829	0	470.888	0	66.1	4	21.5	4	-1E+10	1	-1E+10	1	-1E+10	1	-1E+10	1	-1E+10	1	-1E+10	1
4901784	129	C	01/15/2019	10:42	-133.285	43.018	0	477.90	0	4.8350	0	35.1680	8	27.832	0	473.560	0	65.2	4	21.2	4	-1E+10	1	-1E+10	1	-1E+10	1	-1E+10	1	-1E+10	1	-1E+10	1
4901784	129	C	01/15/2019	10:42	-133.285	43.018	0	479.70	0	4.8260	0	35.1700	8	27.835	0	475.342	0	64.7	4	21.0	4	-1E+10	1	-1E+10	1	-1E+10	1	-1E+10	1	-1E+10	1	-1E+10	1
4901784	129	C	01/15/2019	10:42	-133.285	43.018	0	482.40	0	4.8170	0	35.1740	8	27.839	0	478.014	0	63.8	4	20.7	4	-1E+10	1	-1E+10	1	-1E+10	1	-1E+10	1	-1E+10	1	-1E+10	1
4901784	129	C	01/15/2019	10:42	-133.285	43.018	0	485.00	0	4.8100	0	35.1770	8	27.842	0	480.588	0	62.9	4	20.4	4	-1E+10	1	-1E+10	1	-1E+10	1	-1E+10	1	-1E+10	1	-1E+10	1
4901784	129	C	01/15/2019	10:42	-133.285	43.018	0	487.80	0	4.8010	0	35.1780	8	27.844	0	483.359	0	62.1	4	20.1	4	-1E+10	1	-1E+10	1	-1E+10	1	-1E+10	1	-1E+10	1	-1E+10	1
4901784	129	C	01/15/2019	10:42	-133.285	43.018	0	490.60	0	4.7920	0	35.1810	8	27.848	0	486.130	0	61.1	4	19.8	4	-1E+10	1	-1E+10	1	-1E+10	1	-1E+10	1	-1E+10	1	-1E+10	1
4901784	129	C	01/15/2019	10:42	-133.285	43.018	0	492.50	0	4.7820	0	35.1830	8	27.850	0	488.011	0	60.3	4	19.5	4	-1E+10	1	-1E+10	1	-1E+10	1	-1E+10	1	-1E+10	1	-1E+10	1
4901784	129	C	01/15/2019	10:42	-133.285	43.018	0	495.20	0	4.7700	0	35.1860	8	27.854	0	490.683	0	58.7	4	19.0	4	-1E+10	1	-1E+10	1	-1E+10	1	-1E+10	1	-1E+10	1	-1E+10	1
4901784	129	C	01/15/2019	10:42	-133.285	43.018	0	497.90	0	4.7610	0	35.1890	8	27.858	0	493.355	0	56.3	4	18.2	4	-1E+10	1	-1E+10	1	-1E+10	1	-1E+10	1	-1E+10	1	-1E+10	1
4901784	129	C	01/15/2019	10:42	-133.285	43.018	0	499.70	0	4.7790	0	35.1930	8	27.859	0	495.136	0	54.0	4	17.5	4	-1E+10	1	-1E+10	1	-1E+10	1	-1E+10	1	-1E+10	1	-1E+10	1
4901784	129	C	01/15/2019	10:42	-133.285	43.018	0	505.20	0	4.8070	0	35.2100	8	27.869	0	500.580	0	49.4	4	16.0	4	-1E+10	1	-1E+10	1	-1E+10	1	-1E+10	1	-1E+10	1	-1E+10	1
4901784	129	C	01/15/2019	10:42	-133.285	43.018	0	510.70	0	4.7810	0	35.2190	8	27.879	0	506.023	0	48.2	4	15.6	4	-1E+10	1	-1E+10	1	-1E+10	1	-1E+10	1	-1E+10	1	-1E+10	1
4901784	129	C	01/15/2019	10:42	-133.285	43.018	0	515.20	0	4.7780	0	35.2210	8	27.881	0	510.476	0	47.5	4	15.4	4	-1E+10	1	-1E+10	1	-1E+10	1	-1E+10	1	-1E+10	1	-1E+10	1
4901784	129	C	01/15/2019	10:42	-133.285	43.018	0	519.70	0	4.7630	0	35.2240	8	27.885	0	514.929	0	46.5	4	15.1	4	-1E+10	1	-1E+10	1	-1E+10	1	-1E+10	1	-1E+10	1	-1E+10	1
4901784	129	C	01/15/2019	10:42	-133.285	43.018	0	525.30	0	4.7460	0	35.2260	8	27.889	0	520.471	0	44.8	4	14.5	4	-1E+10	1	-1E+10	1	-1E+10	1	-1E+10	1	-1E+10	1	-1E+10	1
4901784	129	C	01/15/2019	10:42	-133.285	43.018	0	530.00	0	4.7240	0	35.2340	8	27.898	0	525.121	0	43.1	4	14.0	4	-1E+10	1	-1E+10	1	-1E+10	1	-1E+10	1	-1E+10	1	-1E+10	1
4901784	129	C	01/15/2019	10:42	-133.285	43.018	0	534.70	0	4.6950	0	35.2410	8	27.907	0	529.772	0	42.0	4	13.6	4	-1E+10	1	-1E+10	1	-1E+10	1	-1E+10	1	-1E+10	1	-1E+10	1
4901784	129	C	01/15/2019	10:42	-133.285	43.018	0	540.30	0	4.6650	0	35.2440	8	27.912	0	535.313	0	41.0	4	13.3	4	-1E+10	1	-1E+10	1	-1E+10	1	-1E+10	1	-1E+10	1	-1E+10	1
4901784	129	C	01/15/2019	10:42	-133.285	43.018	0	545.60	0	4.6270	0	35.2510	8	27.922	0	540.558	0	39.1	4	12.6	4	-1E+10	1	-1E+10	1	-1E+10	1	-1E+10	1	-1E+10	1	-1E+10	1
4901784	129	C	01/15/2019	10:42	-133.285	43.018	0	550.50	0	4.6120	0	35.2600	8	27.931	0	545.406	0	37.7	4	12.2	4	-1E+10	1	-1E+10	1	-1E+10	1	-1E+10	1	-1E+10	1	-1E+10	1
4901784	129	C	01/15/2019	10:42	-133.285	43.018	0	555.30	0	4.6000	0	35.2630	8	27.935	0	550.155	0	37.0	4	12.0	4	-1E+10	1	-1E+10	1	-1E+10	1	-1E+10	1	-1E+10	1	-1E+10	1
4901784	129	C	01/15/2019	10:42	-133.285	43.018	0	560.10	0	4.5900	0	35.2660	8	27.939	0	554.904	0	36.0	4	11.6	4	-1E+10	1	-1E+10	1	-1E+10	1	-1E+10	1	-1E+10	1	-1E+10	1
4901784	129	C	01/15/2019	10:42	-133.285	43.018	0	565.20	0	4.5540	0	35.2720	8	27.947	0	559.950	0	34.9	4	11.3	4	-1E+10	1	-1E+10	1	-1E+10	1	-1E+10	1	-1E+10	1	-1E+10	1
4901784	129	C	01/15/2019	10:42	-133.285	43.018	0	570.10	0	4.5390	0	35.2760	8	27.952	0	564.798	0	33.9	4	10.9	4	-1E+10	1	-1E+10	1	-1E+10	1	-1E+10	1	-1E+10	1	-1E+10	1
4901784	129	C	01/15/2019	10:42	-133.285	43.018	0	575.10	0	4.5230	0	35.2830	8	27.960	0	569.744	0	32.0	4	10.3	4	-1E+10	1	-1E+10	1	-1E+10	1	-1E+10	1	-1E+10	1	-1E+10	1
4901784	129	C	01/15/2019	10:42	-133.285	43.018	0	580.20	0	4.5220	0	35.2910	8	27.966	0	574.790	0	30.8	4	9.9	4	-1E+10	1	-1E+10	1	-1E+10	1	-1E+10	1	-1E+10	1	-1E+10	1
4901784	129	C	01/15/2019	10:42	-133.285	43.018	0	585.30	0	4.5090	0	35.2960	8	27.972	0	579.835	0	29.9	4	9.6	4	-1E+10	1	-1E+10	1	-1E+10	1	-1E+10	1	-1E+10	1	-1E+10	1
4901784	129	C	01/15/2019	10:42	-133.285	43.018	0	590.50	0	4.4850	0	35.2990	8	27.977	0	584.979	0	29.2	4	9.4	4	-1E+10	1	-1E+10	1	-1E+10	1	-1E+10	1	-1E+10	1	-1E+10	1
4901784	129	C	01/15/2019	10:42	-133.285	43.018	0	595.70	0	4.4410	0	35.3050	8	27.986	0	590.123	0	28.1	4	9.1	4	-1E+10	1	-1E+10	1	-1E+10	1	-1E+10	1	-1E+10	1	-1E+10	1
4901784	129	C	01/15/2019	10:42	-133.285	43.018	0	600.20	0	4.4260	0	35.3110	8	27.993	0	594.575	0	27.4	4	8.8	4	-1E+10	1	-1E+10	1	-1E+10	1	-1E+10	1	-1E+10	1	-1E+10	1
4901784	129	C	01/15/2019	10:42	-133.285	43.018	0	604.60	0	4.4130	0	35.3150	8	27.997	0	598.927	0	26.8	4	8.6	4	-1E+10	1	-1E+10	1	-1E+10	1	-1E+10	1	-1E+10	1	-1E+10	1
4901784	129	C	01/15/2019	10:42	-133.285	43.018	0	609.90	0	4.4050	0	35.3190	8	28.002	0	604.170	0	26.2	4	8.4	4	-1E+10	1	-1E+10	1	-1E+10	1	-1E+10	1	-1E+10	1	-1E+10	1
4901784	129	C	01/15/2019	10:42	-133.285	43.018	0	615.20	0	4.3940	0	35.3220	8	28.005	0	609.412	0	25.6	4	8.2	4	-1E+10	1	-1E+10	1	-1E+10	1	-1E+10	1	-1E+10	1	-1E+10	1
4901784	129	C	01/15/2019	10:42	-133.285	43.018	0	620.50	0	4.3750	0	35.3270	8	28.011	0	614.655	0	24.9	4	8.0	4	-1E+10	1	-1E+10	1	-1E+10	1	-1E+10	1	-1E+10	1	-1E+10	1
4901784	129	C	01/15/2019	10:42	-133.285	43.018	0	624.90	0	4.3630	0	35.3300	8	28.015	0	619.007	0	24.5	4	7.9	4	-1E+10	1	-1E+10	1	-1E+10	1	-1E+10	1	-1E+10	1	-1E+10	1
4901784	129	C	01/15/2019	10:42	-133.285	43.018	0	629.30	0	4.3540	0	35.3320	8	28.018	0	623.359	0	23.9	4	7.7	4	-1E+10	1	-1E+10	1	-1E+10	1	-1E+10	1	-1E+10	1	-1E+10	1
4901784	129	C	01/15/2019	10:42	-133.285	43.018	0	634.60	0	4.3320	0	35.3390	8	28.026	0	628.601	0	23.0	4	7.4	4	-1E+10	1	-1E+10	1	-1E+10	1	-1E+10	1	-1E+10	1	-1E+10	1
4901784	129	C	01/15/2019	10:42	-133.285	43.018	0	639.90	0	4.3110	0	35.3460	8	28.034	0	633.842	0	22.3	4	7.1	4	-1E+10	1	-1E+10	1	-1E+10	1	-1E+10	1	-1E+10	1	-1E+10	1
4901784	129	C	01/15/2019	10:42	-133.285	43.018	0	645.20	0	4.2960	0	35.3510	8	28.039	0	639.084	0	21.7	4	7.0	4	-1E+10	1	-1E+10	1	-1E+10	1	-1E+10	1	-1E+10	1	-1E+10	1
4901784	129	C	01/15/2019	10:42	-133.285	43.018	0	650.50	0	4.2820	0	35.3560	8	28.045	0	644.326	0	21.1	4	6.8	4	-1E+10	1	-1E+10	1	-1E+10	1	-1E+10	1	-1E+10	1	-1E+10	1
4901784	129	C	01/15/2019	10:42	-133.285	43.018	0	654.90	0	4.2760	0	35.3580	8	28.047	0	648.677	0	20.7	4	6.6	4	-1E+10	1	-1E+10	1	-1E+10	1	-1E+10	1	-1E+10	1	-1E+10	1
4901784	129	C	01/15/2019	10:42	-133.285	43.018	0	659.40	0	4.2630	0	35.3630	8	28.052	0	653.127	0	19.9	4	6.4	4	-1E+10	1	-1E+10	1	-1E+10	1	-1E+10	1	-1E+10	1	-1E+10	1
4901784	129	C	01/15/2019	10:42	-133.285	43.018	0	664.70	0	4.2520	0	35.3730	8	28.062	0	658.369	0	19.2	4	6.2	4	-1E+10	1	-1E+10	1	-1E+10	1	-1E+10	1	-1E+10	1	-1E+10	1
4901784	129	C	01/15/2019	10:42	-133.285	43.018	0	670.10	0	4.2440	0	35.3780	8	28.066	0	663.708	0	18.8	4	6.0	4	-1E+10	1	-1E+10	1	-1E+10	1	-1E+10	1	-1E+10	1	-1E+10	1
4901784	129	C	01/15/2019	10:42	-133.285	43.018	0	675.60	0	4.2360	0	35.3810	8	28.070	0	669.147	0	18.5	4	5.9	4	-1E+10	1	-1E+10	1	-1E+10	1	-1E+10	1	-1E+10	1	-1E+10	1
4901784	129	C	01/15/2019	10:42	-133.285	43.018	0	680.10	0	4.2310	0	35.3840	8	28.073	0	673.597	0	18.1	4	5.8	4	-1E+10	1	-1E+10	1	-1E+10	1	-1E+10	1	-1E+10	1	-1E+10	1
4901784	129	C	01/15/2019	10:42	-133.285	43.018	0	684.80	0	4.2200	0	35.3890	8	28.078	0	678.244	0	17.7	4	5.7	4	-1E+10	1	-1E+10	1	-1E+10	1	-1E+10	1	-1E+10	1	-1E+10	1
4901784	129	C	01/15/2019	10:42	-133.285	43.018	0	690.40	0	4.2110	0	35.3920	8	28.081	0	683.782	0	17.3	4	5.5	4	-1E+10	1	-1E+10	1	-1E+10	1	-1E+10	1	-1E+10	1	-1E+10	1
4901784	129	C	01/15/2019	10:42	-133.285	43.018	0	695.10	0	4.1930	0	35.3980	8	28.088	0	688.429	0	16.9	4	5.4	4	-1E+10	1	-1E+10	1	-1E+10	1	-1E+10	1	-1E+10	1	-1E+10	1
4901784	129	C	01/15/2019	10:42	-133.285	43.018	0	699.80	0	4.1830	0	35.4010	8	28.092	0	693.076	0	16.6	4	5.3	4	-1E+10	1	-1E+10	1	-1E+10	1	-1E+10	1	-1E+10	1	-1E+10	1
4901784	129	C	01/15/2019	10:42	-133.285	43.018	0	704.50	0	4.1710	0	35.4060	8	28.097	0	697.723	0	16.4	4	5.2	4	-1E+10	1	-1E+10	1	-1E+10	1	-1E+10	1	-1E+10	1	-1E+10	1
4901784	129	C	01/15/2019	10:42	-133.285	43.018	0	709.30	0	4.1620	0	35.4090	8	28.100	0	702.469	0	16.1	4	5.2	4	-1E+10	1	-1E+10	1	-1E+10	1	-1E+10	1	-1E+10	1	-1E+10	1
4901784	129	C	01/15/2019	10:42	-133.285	43.018	0	714.60	0	4.1430	0	35.4140	8	28.106	0	707.709	0	15.8	4	5.1	4	-1E+10	1	-1E+10	1	-1E+10	1	-1E+10	1	-1E+10	1	-1E+10	1
4901784	129	C	01/15/2019	10:42	-133.285	43.018	0	719.40	0	4.1280	0	35.4170	8	28.110	0	712.454	0	15.6	4	5.0	4	-1E+10	1	-1E+10	1	-1E+10	1	-1E+10	1	-1E+10	1	-1E+10	1
4901784	129	C	01/15/2019	10:42	-133.285	43.018	0	724.30	0	4.1200	0	35.4200	8	28.114	0	717.298	0	15.4	4	4.9	4	-1E+10	1	-1E+10	1	-1E+10	1	-1E+10	1	-1E+10	1	-1E+10	1
4901784	129	C	01/15/2019	10:42	-133.285	43.018	0	730.00	0	4.1060	0	35.4240	8	28.118	0	722.933	0	15.1	4	4.8	4	-1E+10	1	-1E+10	1	-1E+10	1	-1E+10	1	-1E+10	1	-1E+10	1
4901784	129	C	01/15/2019	10:42	-133.285	43.018	0	735.70	0	4.1010	0	35.4300	8	28.124	0	728.568	0	14.6	4	4.7	4	-1E+10	1	-1E+10	1	-1E+10	1	-1E+10	1	-1E+10	1	-1E+10	1
4901784	129	C	01/15/2019	10:42	-133.285	43.018	0	740.70	0	4.0750	0	35.4350	8	28.131	0	733.511	0	14.4	4	4.6	4	-1E+10	1	-1E+10	1	-1E+10	1	-1E+10	1	-1E+10	1	-1E+10	1
4901784	129	C	01/15/2019	10:42	-133.285	43.018	0	745.60	0	4.0620	0	35.4390	8	28.135	0	738.355	0	14.1	4	4.5	4	-1E+10	1	-1E+10	1	-1E+10	1	-1E+10	1	-1E+10	1	-1E+10	1
4901784	129	C	01/15/2019	10:42	-133.285	43.018	0	750.50	0	4.0410	0	35.4470	8	28.144	0	743.198	0	13.8	4	4.4	4	-1E+10	1	-1E+10	1	-1E+10	1	-1E+10	1	-1E+10	1	-1E+10	1
4901784	129	C	01/15/2019	10:42	-133.285	43.018	0	755.50	0	4.0260	0	35.4500	8	28.148	0	748.141	0	13.7	4	4.4	4	-1E+10	1	-1E+10	1	-1E+10	1	-1E+10	1	-1E+10	1	-1E+10	1
4901784	129	C	01/15/2019	10:42	-133.285	43.018	0	760.60	0	4.0140	0	35.4530	8	28.151	0	753.182	0	13.5	4	4.3	4	-1E+10	1	-1E+10	1	-1E+10	1	-1E+10	1	-1E+10	1	-1E+10	1
4901784	129	C	01/15/2019	10:42	-133.285	43.018	0	765.50	0	4.0000	0	35.4570	8	28.156	0	758.025	0	13.4	4	4.3	4	-1E+10	1	-1E+10	1	-1E+10	1	-1E+10	1	-1E+10	1	-1E+10	1
4901784	129	C	01/15/2019	10:42	-133.285	43.018	0	770.60	0	3.9880	0	35.4600	8	28.160	0	763.066	0	13.2	4	4.2	4	-1E+10	1	-1E+10	1	-1E+10	1	-1E+10	1	-1E+10	1	-1E+10	1
4901784	129	C	01/15/2019	10:42	-133.285	43.018	0	775.60	0	3.9720	0	35.4650	8	28.166	0	768.008	0	13.0	4	4.1	4	-1E+10	1	-1E+10	1	-1E+10	1	-1E+10	1	-1E+10	1	-1E+10	1
4901784	129	C	01/15/2019	10:42	-133.285	43.018	0	780.70	0	3.9600	0	35.4690	8	28.170	0	773.049	0	12.8	4	4.1	4	-1E+10	1	-1E+10	1	-1E+10	1	-1E+10	1	-1E+10	1	-1E+10	1
4901784	129	C	01/15/2019	10:42	-133.285	43.018	0	785.00	0	3.9490	0	35.4730	8	28.174	0	777.299	0	12.6	4	4.0	4	-1E+10	1	-1E+10	1	-1E+10	1	-1E+10	1	-1E+10	1	-1E+10	1
4901784	129	C	01/15/2019	10:42	-133.285	43.018	0	789.20	0	3.9340	0	35.4780	8	28.180	0	781.449	0	12.5	4	4.0	4	-1E+10	1	-1E+10	1	-1E+10	1	-1E+10	1	-1E+10	1	-1E+10	1
4901784	129	C	01/15/2019	10:42	-133.285	43.018	0	794.30	0	3.9220	0	35.4810	8	28.184	0	786.490	0	12.3	4	3.9	4	-1E+10	1	-1E+10	1	-1E+10	1	-1E+10	1	-1E+10	1	-1E+10	1
4901784	129	C	01/15/2019	10:42	-133.285	43.018	0	799.50	0	3.9090	0	35.4850	8	28.188	0	791.629	0	12.1	4	3.9	4	-1E+10	1	-1E+10	1	-1E+10	1	-1E+10	1	-1E+10	1	-1E+10	1
4901784	129	C	01/15/2019	10:42	-133.285	43.018	0	804.70	0	3.8900	0	35.4910	8	28.195	0	796.768	0	12.0	4	3.8	4	-1E+10	1	-1E+10	1	-1E+10	1	-1E+10	1	-1E+10	1	-1E+10	1
4901784	129	C	01/15/2019	10:42	-133.285	43.018	0	809.90	0	3.8740	0	35.4960	8	28.201	0	801.906	0	11.8	4	3.7	4	-1E+10	1	-1E+10	1	-1E+10	1	-1E+10	1	-1E+10	1	-1E+10	1
4901784	129	C	01/15/2019	10:42	-133.285	43.018	0	815.30	0	3.8590	0	35.5020	8	28.207	0	807.243	0	11.6	4	3.7	4	-1E+10	1	-1E+10	1	-1E+10	1	-1E+10	1	-1E+10	1	-1E+10	1
4901784	129	C	01/15/2019	10:42	-133.285	43.018	0	820.60	0	3.8460	0	35.5070	8	28.212	0	812.480	0	11.5	4	3.7	4	-1E+10	1	-1E+10	1	-1E+10	1	-1E+10	1	-1E+10	1	-1E+10	1
4901784	129	C	01/15/2019	10:42	-133.285	43.018	0	825.00	0	3.8390	0	35.5090	8	28.215	0	816.828	0	11.5	4	3.6	4	-1E+10	1	-1E+10	1	-1E+10	1	-1E+10	1	-1E+10	1	-1E+10	1
4901784	129	C	01/15/2019	10:42	-133.285	43.018	0	829.50	0	3.8330	0	35.5100	8	28.216	0	821.275	0	11.4	4	3.6	4	-1E+10	1	-1E+10	1	-1E+10	1	-1E+10	1	-1E+10	1	-1E+10	1
4901784	129	C	01/15/2019	10:42	-133.285	43.018	0	834.90	0	3.8180	0	35.5140	8	28.221	0	826.610	0	11.3	4	3.6	4	-1E+10	1	-1E+10	1	-1E+10	1	-1E+10	1	-1E+10	1	-1E+10	1
4901784	129	C	01/15/2019	10:42	-133.285	43.018	0	840.40	0	3.8060	0	35.5180	8	28.225	0	832.045	0	11.2	4	3.6	4	-1E+10	1	-1E+10	1	-1E+10	1	-1E+10	1	-1E+10	1	-1E+10	1
4901784	129	C	01/15/2019	10:42	-133.285	43.018	0	844.90	0	3.7950	0	35.5210	8	28.229	0	836.491	0	11.1	4	3.5	4	-1E+10	1	-1E+10	1	-1E+10	1	-1E+10	1	-1E+10	1	-1E+10	1
4901784	129	C	01/15/2019	10:42	-133.285	43.018	0	850.20	0	3.7740	0	35.5270	8	28.236	0	841.728	0	11.0	4	3.5	4	-1E+10	1	-1E+10	1	-1E+10	1	-1E+10	1	-1E+10	1	-1E+10	1
4901784	129	C	01/15/2019	10:42	-133.285	43.018	0	855.30	0	3.7590	0	35.5320	8	28.242	0	846.766	0	10.9	4	3.5	4	-1E+10	1	-1E+10	1	-1E+10	1	-1E+10	1	-1E+10	1	-1E+10	1
4901784	129	C	01/15/2019	10:42	-133.285	43.018	0	860.00	0	3.7520	0	35.5340	8	28.244	0	851.410	0	10.8	4	3.4	4	-1E+10	1	-1E+10	1	-1E+10	1	-1E+10	1	-1E+10	1	-1E+10	1
4901784	129	C	01/15/2019	10:42	-133.285	43.018	0	864.80	0	3.7440	0	35.5370	8	28.247	0	856.152	0	10.8	4	3.4	4	-1E+10	1	-1E+10	1	-1E+10	1	-1E+10	1	-1E+10	1	-1E+10	1
4901784	129	C	01/15/2019	10:42	-133.285	43.018	0	869.60	0	3.7400	0	35.5380	8	28.248	0	860.894	0	10.8	4	3.4	4	-1E+10	1	-1E+10	1	-1E+10	1	-1E+10	1	-1E+10	1	-1E+10	1
4901784	129	C	01/15/2019	10:42	-133.285	43.018	0	874.40	0	3.7350	0	35.5410	8	28.251	0	865.636	0	10.7	4	3.4	4	-1E+10	1	-1E+10	1	-1E+10	1	-1E+10	1	-1E+10	1	-1E+10	1
4901784	129	C	01/15/2019	10:42	-133.285	43.018	0	879.40	0	3.7260	0	35.5440	8	28.255	0	870.576	0	10.6	4	3.4	4	-1E+10	1	-1E+10	1	-1E+10	1	-1E+10	1	-1E+10	1	-1E+10	1
4901784	129	C	01/15/2019	10:42	-133.285	43.018	0	884.40	0	3.7150	0	35.5480	8	28.259	0	875.515	0	10.5	4	3.3	4	-1E+10	1	-1E+10	1	-1E+10	1	-1E+10	1	-1E+10	1	-1E+10	1
4901784	129	C	01/15/2019	10:42	-133.285	43.018	0	889.40	0	3.7080	0	35.5520	8	28.263	0	880.454	0	10.5	4	3.3	4	-1E+10	1	-1E+10	1	-1E+10	1	-1E+10	1	-1E+10	1	-1E+10	1
4901784	129	C	01/15/2019	10:42	-133.285	43.018	0	894.50	0	3.7010	0	35.5550	8	28.266	0	885.492	0	10.4	4	3.3	4	-1E+10	1	-1E+10	1	-1E+10	1	-1E+10	1	-1E+10	1	-1E+10	1
4901784	129	C	01/15/2019	10:42	-133.285	43.018	0	899.60	0	3.6910	0	35.5590	8	28.270	0	890.530	0	10.4	4	3.3	4	-1E+10	1	-1E+10	1	-1E+10	1	-1E+10	1	-1E+10	1	-1E+10	1
4901784	129	C	01/15/2019	10:42	-133.285	43.018	0	904.80	0	3.6780	0	35.5640	8	28.276	0	895.667	0	10.3	4	3.3	4	-1E+10	1	-1E+10	1	-1E+10	1	-1E+10	1	-1E+10	1	-1E+10	1
4901784	129	C	01/15/2019	10:42	-133.285	43.018	0	910.00	0	3.6690	0	35.5680	8	28.280	0	900.803	0	10.3	4	3.3	4	-1E+10	1	-1E+10	1	-1E+10	1	-1E+10	1	-1E+10	1	-1E+10	1
4901784	129	C	01/15/2019	10:42	-133.285	43.018	0	915.10	0	3.6580	0	35.5720	8	28.284	0	905.840	0	10.3	4	3.3	4	-1E+10	1	-1E+10	1	-1E+10	1	-1E+10	1	-1E+10	1	-1E+10	1
4901784	129	C	01/15/2019	10:42	-133.285	43.018	0	920.40	0	3.6510	0	35.5750	8	28.287	0	911.075	0	10.3	4	3.3	4	-1E+10	1	-1E+10	1	-1E+10	1	-1E+10	1	-1E+10	1	-1E+10	1
4901784	129	C	01/15/2019	10:42	-133.285	43.018	0	924.90	0	3.6420	0	35.5780	8	28.291	0	915.520	0	10.3	4	3.3	4	-1E+10	1	-1E+10	1	-1E+10	1	-1E+10	1	-1E+10	1	-1E+10	1
4901784	129	C	01/15/2019	10:42	-133.285	43.018	0	929.40	0	3.6300	0	35.5820	8	28.295	0	919.964	0	10.3	4	3.3	4	-1E+10	1	-1E+10	1	-1E+10	1	-1E+10	1	-1E+10	1	-1E+10	1
4901784	129	C	01/15/2019	10:42	-133.285	43.018	0	934.80	0	3.6160	0	35.5860	8	28.300	0	925.297	0	10.3	4	3.3	4	-1E+10	1	-1E+10	1	-1E+10	1	-1E+10	1	-1E+10	1	-1E+10	1
4901784	129	C	01/15/2019	10:42	-133.285	43.018	0	940.20	0	3.6070	0	35.5890	8	28.303	0	930.631	0	10.4	4	3.3	4	-1E+10	1	-1E+10	1	-1E+10	1	-1E+10	1	-1E+10	1	-1E+10	1
4901784	129	C	01/15/2019	10:42	-133.285	43.018	0	945.60	0	3.5980	0	35.5920	8	28.306	0	935.964	0	10.4	4	3.3	4	-1E+10	1	-1E+10	1	-1E+10	1	-1E+10	1	-1E+10	1	-1E+10	1
4901784	129	C	01/15/2019	10:42	-133.285	43.018	0	950.20	0	3.5960	0	35.5930	8	28.307	0	940.506	0	10.4	4	3.3	4	-1E+10	1	-1E+10	1	-1E+10	1	-1E+10	1	-1E+10	1	-1E+10	1
4901784	129	C	01/15/2019	10:42	-133.285	43.018	0	954.90	0	3.5880	0	35.5960	8	28.311	0	945.148	0	10.4	4	3.3	4	-1E+10	1	-1E+10	1	-1E+10	1	-1E+10	1	-1E+10	1	-1E+10	1
4901784	129	C	01/15/2019	10:42	-133.285	43.018	0	960.50	0	3.5790	0	35.5980	8	28.313	0	950.678	0	10.5	4	3.3	4	-1E+10	1	-1E+10	1	-1E+10	1	-1E+10	1	-1E+10	1	-1E+10	1
4901784	129	C	01/15/2019	10:42	-133.285	43.018	0	965.20	0	3.5660	0	35.6020	8	28.318	0	955.319	0	10.5	4	3.3	4	-1E+10	1	-1E+10	1	-1E+10	1	-1E+10	1	-1E+10	1	-1E+10	1
4901784	129	C	01/15/2019	10:42	-133.285	43.018	0	969.90	0	3.5550	0	35.6040	8	28.320	0	959.960	0	10.5	4	3.3	4	-1E+10	1	-1E+10	1	-1E+10	1	-1E+10	1	-1E+10	1	-1E+10	1
4901784	129	C	01/15/2019	10:42	-133.285	43.018	0	974.60	0	3.5470	0	35.6060	8	28.323	0	964.601	0	10.6	4	3.3	4	-1E+10	1	-1E+10	1	-1E+10	1	-1E+10	1	-1E+10	1	-1E+10	1
4901784	129	C	01/15/2019	10:42	-133.285	43.018	0	979.40	0	3.5330	0	35.6090	8	28.327	0	969.341	0	10.6	4	3.3	4	-1E+10	1	-1E+10	1	-1E+10	1	-1E+10	1	-1E+10	1	-1E+10	1
4901784	129	C	01/15/2019	10:42	-133.285	43.018	0	984.70	0	3.5200	0	35.6120	8	28.330	0	974.574	0	10.6	4	3.3	4	-1E+10	1	-1E+10	1	-1E+10	1	-1E+10	1	-1E+10	1	-1E+10	1
4901784	129	C	01/15/2019	10:42	-133.285	43.018	0	989.50	0	3.5120	0	35.6140	8	28.333	0	979.314	0	10.6	4	3.4	4	-1E+10	1	-1E+10	1	-1E+10	1	-1E+10	1	-1E+10	1	-1E+10	1
4901784	129	C	01/15/2019	10:42	-133.285	43.018	0	994.40	0	3.4960	0	35.6170	8	28.337	0	984.152	0	10.6	4	3.4	4	-1E+10	1	-1E+10	1	-1E+10	1	-1E+10	1	-1E+10	1	-1E+10	1
4901784	129	C	01/15/2019	10:42	-133.285	43.018	0	1000.00	0	3.4930	0	35.6190	8	28.339	0	989.681	0	10.7	4	3.4	4	-1E+10	1	-1E+10	1	-1E+10	1	-1E+10	1	-1E+10	1	-1E+10	1
4901784	129	C	01/15/2019	10:42	-133.285	43.018	0	1005.70	0	3.4810	0	35.6200	8	28.341	0	995.308	0	10.7	4	3.4	4	-1E+10	1	-1E+10	1	-1E+10	1	-1E+10	1	-1E+10	1	-1E+10	1
4901784	129	C	01/15/2019	10:42	-133.285	43.018	0	1010.60	0	3.4740	0	35.6230	8	28.344	0	1000.146	0	10.7	4	3.4	4	-1E+10	1	-1E+10	1	-1E+10	1	-1E+10	1	-1E+10	1	-1E+10	1
4901784	129	C	01/15/2019	10:42	-133.285	43.018	0	1015.50	0	3.4660	0	35.6250	8	28.346	0	1004.984	0	10.8	4	3.4	4	-1E+10	1	-1E+10	1	-1E+10	1	-1E+10	1	-1E+10	1	-1E+10	1
4901784	129	C	01/15/2019	10:42	-133.285	43.018	0	1020.50	0	3.4600	0	35.6260	8	28.348	0	1009.920	0	10.8	4	3.4	4	-1E+10	1	-1E+10	1	-1E+10	1	-1E+10	1	-1E+10	1	-1E+10	1
4901784	129	C	01/15/2019	10:42	-133.285	43.018	0	1025.50	0	3.4480	0	35.6290	8	28.351	0	1014.856	0	10.9	4	3.4	4	-1E+10	1	-1E+10	1	-1E+10	1	-1E+10	1	-1E+10	1	-1E+10	1
4901784	129	C	01/15/2019	10:42	-133.285	43.018	0	1030.50	0	3.4320	0	35.6330	8	28.356	0	1019.792	0	11.0	4	3.4	4	-1E+10	1	-1E+10	1	-1E+10	1	-1E+10	1	-1E+10	1	-1E+10	1
4901784	129	C	01/15/2019	10:42	-133.285	43.018	0	1035.60	0	3.4210	0	35.6350	8	28.359	0	1024.826	0	11.0	4	3.5	4	-1E+10	1	-1E+10	1	-1E+10	1	-1E+10	1	-1E+10	1	-1E+10	1
4901784	129	C	01/15/2019	10:42	-133.285	43.018	0	1040.70	0	3.4120	0	35.6380	8	28.362	0	1029.861	0	11.1	4	3.5	4	-1E+10	1	-1E+10	1	-1E+10	1	-1E+10	1	-1E+10	1	-1E+10	1
4901784	129	C	01/15/2019	10:42	-133.285	43.018	0	1045.80	0	3.4030	0	35.6410	8	28.366	0	1034.895	0	11.2	4	3.5	4	-1E+10	1	-1E+10	1	-1E+10	1	-1E+10	1	-1E+10	1	-1E+10	1
4901784	129	C	01/15/2019	10:42	-133.285	43.018	0	1050.00	0	3.3960	0	35.6430	8	28.368	0	1039.041	0	11.2	4	3.5	4	-1E+10	1	-1E+10	1	-1E+10	1	-1E+10	1	-1E+10	1	-1E+10	1
4901784	129	C	01/15/2019	10:42	-133.285	43.018	0	1054.20	0	3.3880	0	35.6440	8	28.370	0	1043.187	0	11.3	4	3.6	4	-1E+10	1	-1E+10	1	-1E+10	1	-1E+10	1	-1E+10	1	-1E+10	1
4901784	129	C	01/15/2019	10:42	-133.285	43.018	0	1059.20	0	3.3830	0	35.6460	8	28.372	0	1048.122	0	11.4	4	3.6	4	-1E+10	1	-1E+10	1	-1E+10	1	-1E+10	1	-1E+10	1	-1E+10	1
4901784	129	C	01/15/2019	10:42	-133.285	43.018	0	1064.20	0	3.3790	0	35.6480	8	28.374	0	1053.057	0	11.5	4	3.6	4	-1E+10	1	-1E+10	1	-1E+10	1	-1E+10	1	-1E+10	1	-1E+10	1
4901784	129	C	01/15/2019	10:42	-133.285	43.018	0	1069.20	0	3.3680	0	35.6500	8	28.376	0	1057.992	0	11.5	4	3.6	4	-1E+10	1	-1E+10	1	-1E+10	1	-1E+10	1	-1E+10	1	-1E+10	1
4901784	129	C	01/15/2019	10:42	-133.285	43.018	0	1074.20	0	3.3590	0	35.6520	8	28.379	0	1062.927	0	11.6	4	3.6	4	-1E+10	1	-1E+10	1	-1E+10	1	-1E+10	1	-1E+10	1	-1E+10	1
4901784	129	C	01/15/2019	10:42	-133.285	43.018	0	1079.20	0	3.3470	0	35.6550	8	28.382	0	1067.862	0	11.7	4	3.7	4	-1E+10	1	-1E+10	1	-1E+10	1	-1E+10	1	-1E+10	1	-1E+10	1
4901784	129	C	01/15/2019	10:42	-133.285	43.018	0	1084.20	0	3.3410	0	35.6570	8	28.385	0	1072.797	0	11.8	4	3.7	4	-1E+10	1	-1E+10	1	-1E+10	1	-1E+10	1	-1E+10	1	-1E+10	1
4901784	129	C	01/15/2019	10:42	-133.285	43.018	0	1089.20	0	3.3330	0	35.6580	8	28.386	0	1077.731	0	11.9	4	3.7	4	-1E+10	1	-1E+10	1	-1E+10	1	-1E+10	1	-1E+10	1	-1E+10	1
4901784	129	C	01/15/2019	10:42	-133.285	43.018	0	1094.20	0	3.3230	0	35.6610	8	28.390	0	1082.666	0	12.0	4	3.8	4	-1E+10	1	-1E+10	1	-1E+10	1	-1E+10	1	-1E+10	1	-1E+10	1
4901784	129	C	01/15/2019	10:42	-133.285	43.018	0	1099.20	0	3.3120	0	35.6640	8	28.393	0	1087.600	0	12.1	4	3.8	4	-1E+10	1	-1E+10	1	-1E+10	1	-1E+10	1	-1E+10	1	-1E+10	1
4901784	129	C	01/15/2019	10:42	-133.285	43.018	0	1104.30	0	3.3040	0	35.6660	8	28.396	0	1092.633	0	12.3	4	3.8	4	-1E+10	1	-1E+10	1	-1E+10	1	-1E+10	1	-1E+10	1	-1E+10	1
4901784	129	C	01/15/2019	10:42	-133.285	43.018	0	1109.40	0	3.2950	0	35.6680	8	28.398	0	1097.666	0	12.4	4	3.9	4	-1E+10	1	-1E+10	1	-1E+10	1	-1E+10	1	-1E+10	1	-1E+10	1
4901784	129	C	01/15/2019	10:42	-133.285	43.018	0	1114.40	0	3.2870	0	35.6690	8	28.400	0	1102.600	0	12.5	4	3.9	4	-1E+10	1	-1E+10	1	-1E+10	1	-1E+10	1	-1E+10	1	-1E+10	1
4901784	129	C	01/15/2019	10:42	-133.285	43.018	0	1119.50	0	3.2710	0	35.6730	8	28.405	0	1107.632	0	12.6	4	4.0	4	-1E+10	1	-1E+10	1	-1E+10	1	-1E+10	1	-1E+10	1	-1E+10	1
4901784	129	C	01/15/2019	10:42	-133.285	43.018	0	1124.60	0	3.2580	0	35.6750	8	28.407	0	1112.665	0	12.8	4	4.0	4	-1E+10	1	-1E+10	1	-1E+10	1	-1E+10	1	-1E+10	1	-1E+10	1
4901784	129	C	01/15/2019	10:42	-133.285	43.018	0	1129.80	0	3.2470	0	35.6770	8	28.410	0	1117.796	0	12.9	4	4.1	4	-1E+10	1	-1E+10	1	-1E+10	1	-1E+10	1	-1E+10	1	-1E+10	1
4901784	129	C	01/15/2019	10:42	-133.285	43.018	0	1134.80	0	3.2370	0	35.6790	8	28.413	0	1122.729	0	13.1	4	4.1	4	-1E+10	1	-1E+10	1	-1E+10	1	-1E+10	1	-1E+10	1	-1E+10	1
4901784	129	C	01/15/2019	10:42	-133.285	43.018	0	1139.90	0	3.2210	0	35.6820	8	28.417	0	1127.761	0	13.2	4	4.1	4	-1E+10	1	-1E+10	1	-1E+10	1	-1E+10	1	-1E+10	1	-1E+10	1
4901784	129	C	01/15/2019	10:42	-133.285	43.018	0	1145.00	0	3.2100	0	35.6830	8	28.419	0	1132.793	0	13.3	4	4.2	4	-1E+10	1	-1E+10	1	-1E+10	1	-1E+10	1	-1E+10	1	-1E+10	1
4901784	129	C	01/15/2019	10:42	-133.285	43.018	0	1150.10	0	3.1980	0	35.6860	8	28.422	0	1137.825	0	13.4	4	4.2	4	-1E+10	1	-1E+10	1	-1E+10	1	-1E+10	1	-1E+10	1	-1E+10	1
4901784	129	C	01/15/2019	10:42	-133.285	43.018	0	1155.20	0	3.1910	0	35.6870	8	28.424	0	1142.857	0	13.5	4	4.2	4	-1E+10	1	-1E+10	1	-1E+10	1	-1E+10	1	-1E+10	1	-1E+10	1
4901784	129	C	01/15/2019	10:42	-133.285	43.018	0	1160.40	0	3.1830	0	35.6890	8	28.426	0	1147.987	0	13.7	4	4.3	4	-1E+10	1	-1E+10	1	-1E+10	1	-1E+10	1	-1E+10	1	-1E+10	1
4901784	129	C	01/15/2019	10:42	-133.285	43.018	0	1165.60	0	3.1760	0	35.6900	8	28.428	0	1153.117	0	13.8	4	4.3	4	-1E+10	1	-1E+10	1	-1E+10	1	-1E+10	1	-1E+10	1	-1E+10	1
4901784	129	C	01/15/2019	10:42	-133.285	43.018	0	1169.90	0	3.1640	0	35.6920	8	28.430	0	1157.359	0	14.0	4	4.4	4	-1E+10	1	-1E+10	1	-1E+10	1	-1E+10	1	-1E+10	1	-1E+10	1
4901784	129	C	01/15/2019	10:42	-133.285	43.018	0	1174.30	0	3.1490	0	35.6950	8	28.434	0	1161.700	0	14.1	4	4.4	4	-1E+10	1	-1E+10	1	-1E+10	1	-1E+10	1	-1E+10	1	-1E+10	1
4901784	129	C	01/15/2019	10:42	-133.285	43.018	0	1179.60	0	3.1340	0	35.6970	8	28.437	0	1166.928	0	14.3	4	4.5	4	-1E+10	1	-1E+10	1	-1E+10	1	-1E+10	1	-1E+10	1	-1E+10	1
4901784	129	C	01/15/2019	10:42	-133.285	43.018	0	1184.80	0	3.1190	0	35.7000	8	28.441	0	1172.058	0	14.4	4	4.5	4	-1E+10	1	-1E+10	1	-1E+10	1	-1E+10	1	-1E+10	1	-1E+10	1
4901784	129	C	01/15/2019	10:42	-133.285	43.018	0	1190.00	0	3.1160	0	35.7010	8	28.442	0	1177.187	0	14.6	4	4.6	4	-1E+10	1	-1E+10	1	-1E+10	1	-1E+10	1	-1E+10	1	-1E+10	1
4901784	129	C	01/15/2019	10:42	-133.285	43.018	0	1195.30	0	3.1030	0	35.7040	8	28.446	0	1182.416	0	14.7	4	4.6	4	-1E+10	1	-1E+10	1	-1E+10	1	-1E+10	1	-1E+10	1	-1E+10	1
4901784	129	C	01/15/2019	10:42	-133.285	43.018	0	1200.70	0	3.0910	0	35.7060	8	28.449	0	1187.742	0	14.8	4	4.6	4	-1E+10	1	-1E+10	1	-1E+10	1	-1E+10	1	-1E+10	1	-1E+10	1
4901784	129	C	01/15/2019	10:42	-133.285	43.018	0	1205.10	0	3.0870	0	35.7070	8	28.450	0	1192.082	0	14.9	4	4.7	4	-1E+10	1	-1E+10	1	-1E+10	1	-1E+10	1	-1E+10	1	-1E+10	1
4901784	129	C	01/15/2019	10:42	-133.285	43.018	0	1209.60	0	3.0800	0	35.7070	8	28.451	0	1196.521	0	15.0	4	4.7	4	-1E+10	1	-1E+10	1	-1E+10	1	-1E+10	1	-1E+10	1	-1E+10	1
4901784	129	C	01/15/2019	10:42	-133.285	43.018	0	1215.00	0	3.0730	0	35.7090	8	28.453	0	1201.847	0	15.1	4	4.7	4	-1E+10	1	-1E+10	1	-1E+10	1	-1E+10	1	-1E+10	1	-1E+10	1
4901784	129	C	01/15/2019	10:42	-133.285	43.018	0	1220.50	0	3.0630	0	35.7100	8	28.455	0	1207.272	0	15.2	4	4.7	4	-1E+10	1	-1E+10	1	-1E+10	1	-1E+10	1	-1E+10	1	-1E+10	1
4901784	129	C	01/15/2019	10:42	-133.285	43.018	0	1225.00	0	3.0560	0	35.7110	8	28.456	0	1211.710	0	15.3	4	4.8	4	-1E+10	1	-1E+10	1	-1E+10	1	-1E+10	1	-1E+10	1	-1E+10	1
4901784	129	C	01/15/2019	10:42	-133.285	43.018	0	1229.60	0	3.0500	0	35.7130	8	28.458	0	1216.247	0	15.4	4	4.8	4	-1E+10	1	-1E+10	1	-1E+10	1	-1E+10	1	-1E+10	1	-1E+10	1
4901784	129	C	01/15/2019	10:42	-133.285	43.018	0	1235.10	0	3.0400	0	35.7140	8	28.460	0	1221.671	0	15.6	4	4.9	4	-1E+10	1	-1E+10	1	-1E+10	1	-1E+10	1	-1E+10	1	-1E+10	1
4901784	129	C	01/15/2019	10:42	-133.285	43.018	0	1239.70	0	3.0300	0	35.7160	8	28.463	0	1226.207	0	15.8	4	4.9	4	-1E+10	1	-1E+10	1	-1E+10	1	-1E+10	1	-1E+10	1	-1E+10	1
4901784	129	C	01/15/2019	10:42	-133.285	43.018	0	1244.70	0	3.0210	0	35.7180	8	28.465	0	1231.138	0	15.9	4	5.0	4	-1E+10	1	-1E+10	1	-1E+10	1	-1E+10	1	-1E+10	1	-1E+10	1
4901784	129	C	01/15/2019	10:42	-133.285	43.018	0	1249.90	0	3.0130	0	35.7190	8	28.467	0	1236.267	0	16.1	4	5.0	4	-1E+10	1	-1E+10	1	-1E+10	1	-1E+10	1	-1E+10	1	-1E+10	1
4901784	129	C	01/15/2019	10:42	-133.285	43.018	0	1254.80	0	3.0040	0	35.7210	8	28.469	0	1241.099	0	16.3	4	5.1	4	-1E+10	1	-1E+10	1	-1E+10	1	-1E+10	1	-1E+10	1	-1E+10	1
4901784	129	C	01/15/2019	10:42	-133.285	43.018	0	1259.70	0	2.9940	0	35.7230	8	28.472	0	1245.931	0	16.5	4	5.1	4	-1E+10	1	-1E+10	1	-1E+10	1	-1E+10	1	-1E+10	1	-1E+10	1
4901784	129	C	01/15/2019	10:42	-133.285	43.018	0	1264.60	0	2.9800	0	35.7260	8	28.475	0	1250.763	0	16.8	4	5.2	4	-1E+10	1	-1E+10	1	-1E+10	1	-1E+10	1	-1E+10	1	-1E+10	1
4901784	129	C	01/15/2019	10:42	-133.285	43.018	0	1269.50	0	2.9670	0	35.7280	8	28.478	0	1255.594	0	16.9	4	5.3	4	-1E+10	1	-1E+10	1	-1E+10	1	-1E+10	1	-1E+10	1	-1E+10	1
4901784	129	C	01/15/2019	10:42	-133.285	43.018	0	1274.40	0	2.9570	0	35.7290	8	28.480	0	1260.426	0	17.0	4	5.3	4	-1E+10	1	-1E+10	1	-1E+10	1	-1E+10	1	-1E+10	1	-1E+10	1
4901784	129	C	01/15/2019	10:42	-133.285	43.018	0	1279.40	0	2.9500	0	35.7300	8	28.482	0	1265.356	0	17.2	4	5.3	4	-1E+10	1	-1E+10	1	-1E+10	1	-1E+10	1	-1E+10	1	-1E+10	1
4901784	129	C	01/15/2019	10:42	-133.285	43.018	0	1284.50	0	2.9400	0	35.7320	8	28.484	0	1270.385	0	17.3	4	5.4	4	-1E+10	1	-1E+10	1	-1E+10	1	-1E+10	1	-1E+10	1	-1E+10	1
4901784	129	C	01/15/2019	10:42	-133.285	43.018	0	1289.60	0	2.9300	0	35.7330	8	28.486	0	1275.413	0	17.4	4	5.4	4	-1E+10	1	-1E+10	1	-1E+10	1	-1E+10	1	-1E+10	1	-1E+10	1
4901784	129	C	01/15/2019	10:42	-133.285	43.018	0	1294.80	0	2.9220	0	35.7350	8	28.488	0	1280.540	0	17.5	4	5.5	4	-1E+10	1	-1E+10	1	-1E+10	1	-1E+10	1	-1E+10	1	-1E+10	1
4901784	129	C	01/15/2019	10:42	-133.285	43.018	0	1300.00	0	2.9200	0	35.7350	8	28.488	0	1285.667	0	17.7	4	5.5	4	-1E+10	1	-1E+10	1	-1E+10	1	-1E+10	1	-1E+10	1	-1E+10	1
4901784	129	C	01/15/2019	10:42	-133.285	43.018	0	1305.20	0	2.9070	0	35.7370	8	28.491	0	1290.794	0	17.9	4	5.6	4	-1E+10	1	-1E+10	1	-1E+10	1	-1E+10	1	-1E+10	1	-1E+10	1
4901784	129	C	01/15/2019	10:42	-133.285	43.018	0	1310.40	0	2.8930	0	35.7390	8	28.494	0	1295.921	0	18.1	4	5.6	4	-1E+10	1	-1E+10	1	-1E+10	1	-1E+10	1	-1E+10	1	-1E+10	1
4901784	129	C	01/15/2019	10:42	-133.285	43.018	0	1315.60	0	2.8830	0	35.7400	8	28.496	0	1301.047	0	18.3	4	5.7	4	-1E+10	1	-1E+10	1	-1E+10	1	-1E+10	1	-1E+10	1	-1E+10	1
4901784	129	C	01/15/2019	10:42	-133.285	43.018	0	1320.00	0	2.8750	0	35.7420	8	28.498	0	1305.385	0	18.5	4	5.7	4	-1E+10	1	-1E+10	1	-1E+10	1	-1E+10	1	-1E+10	1	-1E+10	1
4901784	129	C	01/15/2019	10:42	-133.285	43.018	0	1325.10	0	2.8640	0	35.7440	8	28.501	0	1310.412	0	18.8	4	5.8	4	-1E+10	1	-1E+10	1	-1E+10	1	-1E+10	1	-1E+10	1	-1E+10	1
4901784	129	C	01/15/2019	10:42	-133.285	43.018	0	1329.90	0	2.8500	0	35.7460	8	28.504	0	1315.144	0	19.0	4	5.9	4	-1E+10	1	-1E+10	1	-1E+10	1	-1E+10	1	-1E+10	1	-1E+10	1
4901784	129	C	01/15/2019	10:42	-133.285	43.018	0	1335.10	0	2.8420	0	35.7480	8	28.506	0	1320.270	0	19.2	4	6.0	4	-1E+10	1	-1E+10	1	-1E+10	1	-1E+10	1	-1E+10	1	-1E+10	1
4901784	129	C	01/15/2019	10:42	-133.285	43.018	0	1340.50	0	2.8330	0	35.7490	8	28.508	0	1325.593	0	19.5	4	6.1	4	-1E+10	1	-1E+10	1	-1E+10	1	-1E+10	1	-1E+10	1	-1E+10	1
4901784	129	C	01/15/2019	10:42	-133.285	43.018	0	1345.50	0	2.8250	0	35.7510	8	28.510	0	1330.522	0	19.8	4	6.2	4	-1E+10	1	-1E+10	1	-1E+10	1	-1E+10	1	-1E+10	1	-1E+10	1
4901784	129	C	01/15/2019	10:42	-133.285	43.018	0	1350.20	0	2.8120	0	35.7540	8	28.514	0	1335.155	0	20.1	4	6.3	4	-1E+10	1	-1E+10	1	-1E+10	1	-1E+10	1	-1E+10	1	-1E+10	1
4901784	129	C	01/15/2019	10:42	-133.285	43.018	0	1355.20	0	2.8040	0	35.7550	8	28.515	0	1340.083	0	20.4	4	6.3	4	-1E+10	1	-1E+10	1	-1E+10	1	-1E+10	1	-1E+10	1	-1E+10	1
4901784	129	C	01/15/2019	10:42	-133.285	43.018	0	1360.30	0	2.7950	0	35.7570	8	28.518	0	1345.110	0	20.6	4	6.4	4	-1E+10	1	-1E+10	1	-1E+10	1	-1E+10	1	-1E+10	1	-1E+10	1
4901784	129	C	01/15/2019	10:42	-133.285	43.018	0	1365.40	0	2.7880	0	35.7590	8	28.520	0	1350.137	0	20.8	4	6.5	4	-1E+10	1	-1E+10	1	-1E+10	1	-1E+10	1	-1E+10	1	-1E+10	1
4901784	129	C	01/15/2019	10:42	-133.285	43.018	0	1370.50	0	2.7820	0	35.7600	8	28.522	0	1355.163	0	21.0	4	6.5	4	-1E+10	1	-1E+10	1	-1E+10	1	-1E+10	1	-1E+10	1	-1E+10	1
4901784	129	C	01/15/2019	10:42	-133.285	43.018	0	1375.70	0	2.7770	0	35.7610	8	28.523	0	1360.288	0	21.3	4	6.6	4	-1E+10	1	-1E+10	1	-1E+10	1	-1E+10	1	-1E+10	1	-1E+10	1
4901784	129	C	01/15/2019	10:42	-133.285	43.018	0	1380.10	0	2.7690	0	35.7630	8	28.525	0	1364.625	0	21.6	4	6.7	4	-1E+10	1	-1E+10	1	-1E+10	1	-1E+10	1	-1E+10	1	-1E+10	1
4901784	129	C	01/15/2019	10:42	-133.285	43.018	0	1384.50	0	2.7620	0	35.7640	8	28.527	0	1368.961	0	21.9	4	6.8	4	-1E+10	1	-1E+10	1	-1E+10	1	-1E+10	1	-1E+10	1	-1E+10	1
4901784	129	C	01/15/2019	10:42	-133.285	43.018	0	1389.70	0	2.7560	0	35.7660	8	28.529	0	1374.086	0	22.2	4	6.9	4	-1E+10	1	-1E+10	1	-1E+10	1	-1E+10	1	-1E+10	1	-1E+10	1
4901784	129	C	01/15/2019	10:42	-133.285	43.018	0	1395.00	0	2.7400	0	35.7680	8	28.532	0	1379.309	0	22.5	4	7.0	4	-1E+10	1	-1E+10	1	-1E+10	1	-1E+10	1	-1E+10	1	-1E+10	1
4901784	129	C	01/15/2019	10:42	-133.285	43.018	0	1400.30	0	2.7290	0	35.7690	8	28.534	0	1384.532	0	22.7	4	7.0	4	-1E+10	1	-1E+10	1	-1E+10	1	-1E+10	1	-1E+10	1	-1E+10	1
4901784	129	C	01/15/2019	10:42	-133.285	43.018	0	1405.60	0	2.7180	0	35.7700	8	28.536	0	1389.755	0	22.9	4	7.1	4	-1E+10	1	-1E+10	1	-1E+10	1	-1E+10	1	-1E+10	1	-1E+10	1
4901784	129	C	01/15/2019	10:42	-133.285	43.018	0	1409.90	0	2.7040	0	35.7730	8	28.539	0	1393.992	0	23.1	4	7.1	4	-1E+10	1	-1E+10	1	-1E+10	1	-1E+10	1	-1E+10	1	-1E+10	1
4901784	129	C	01/15/2019	10:42	-133.285	43.018	0	1414.50	0	2.6960	0	35.7740	8	28.541	0	1398.525	0	23.2	4	7.2	4	-1E+10	1	-1E+10	1	-1E+10	1	-1E+10	1	-1E+10	1	-1E+10	1
4901784	129	C	01/15/2019	10:42	-133.285	43.018	0	1419.90	0	2.6880	0	35.7750	8	28.542	0	1403.846	0	23.3	4	7.2	4	-1E+10	1	-1E+10	1	-1E+10	1	-1E+10	1	-1E+10	1	-1E+10	1
4901784	129	C	01/15/2019	10:42	-133.285	43.018	0	1425.30	0	2.6840	0	35.7750	8	28.543	0	1409.167	0	23.5	4	7.3	4	-1E+10	1	-1E+10	1	-1E+10	1	-1E+10	1	-1E+10	1	-1E+10	1
4901784	129	C	01/15/2019	10:42	-133.285	43.018	0	1429.90	0	2.6740	0	35.7770	8	28.545	0	1413.700	0	23.6	4	7.3	4	-1E+10	1	-1E+10	1	-1E+10	1	-1E+10	1	-1E+10	1	-1E+10	1
4901784	129	C	01/15/2019	10:42	-133.285	43.018	0	1434.50	0	2.6690	0	35.7780	8	28.546	0	1418.232	0	23.8	4	7.4	4	-1E+10	1	-1E+10	1	-1E+10	1	-1E+10	1	-1E+10	1	-1E+10	1
4901784	129	C	01/15/2019	10:42	-133.285	43.018	0	1440.00	0	2.6600	0	35.7790	8	28.548	0	1423.651	0	24.0	4	7.4	4	-1E+10	1	-1E+10	1	-1E+10	1	-1E+10	1	-1E+10	1	-1E+10	1
4901784	129	C	01/15/2019	10:42	-133.285	43.018	0	1445.60	0	2.6540	0	35.7800	8	28.549	0	1429.169	0	24.2	4	7.5	4	-1E+10	1	-1E+10	1	-1E+10	1	-1E+10	1	-1E+10	1	-1E+10	1
4901784	129	C	01/15/2019	10:42	-133.285	43.018	0	1450.20	0	2.6480	0	35.7810	8	28.551	0	1433.701	0	24.4	4	7.5	4	-1E+10	1	-1E+10	1	-1E+10	1	-1E+10	1	-1E+10	1	-1E+10	1
4901784	129	C	01/15/2019	10:42	-133.285	43.018	0	1454.90	0	2.6390	0	35.7820	8	28.552	0	1438.331	0	24.6	4	7.6	4	-1E+10	1	-1E+10	1	-1E+10	1	-1E+10	1	-1E+10	1	-1E+10	1
4901784	129	C	01/15/2019	10:42	-133.285	43.018	0	1460.60	0	2.6290	0	35.7840	8	28.555	0	1443.947	0	24.8	4	7.7	4	-1E+10	1	-1E+10	1	-1E+10	1	-1E+10	1	-1E+10	1	-1E+10	1
4901784	129	C	01/15/2019	10:42	-133.285	43.018	0	1465.30	0	2.6230	0	35.7850	8	28.556	0	1448.577	0	25.0	4	7.7	4	-1E+10	1	-1E+10	1	-1E+10	1	-1E+10	1	-1E+10	1	-1E+10	1
4901784	129	C	01/15/2019	10:42	-133.285	43.018	0	1469.90	0	2.6140	0	35.7860	8	28.558	0	1453.109	0	25.2	4	7.8	4	-1E+10	1	-1E+10	1	-1E+10	1	-1E+10	1	-1E+10	1	-1E+10	1
4901784	129	C	01/15/2019	10:42	-133.285	43.018	0	1475.20	0	2.6010	0	35.7880	8	28.561	0	1458.330	0	25.4	4	7.8	4	-1E+10	1	-1E+10	1	-1E+10	1	-1E+10	1	-1E+10	1	-1E+10	1
4901784	129	C	01/15/2019	10:42	-133.285	43.018	0	1480.50	0	2.5940	0	35.7890	8	28.562	0	1463.551	0	25.5	4	7.9	4	-1E+10	1	-1E+10	1	-1E+10	1	-1E+10	1	-1E+10	1	-1E+10	1
4901784	129	C	01/15/2019	10:42	-133.285	43.018	0	1484.90	0	2.5870	0	35.7900	8	28.564	0	1467.886	0	25.7	4	7.9	4	-1E+10	1	-1E+10	1	-1E+10	1	-1E+10	1	-1E+10	1	-1E+10	1
4901784	129	C	01/15/2019	10:42	-133.285	43.018	0	1489.40	0	2.5770	0	35.7910	8	28.565	0	1472.318	0	26.0	4	8.0	4	-1E+10	1	-1E+10	1	-1E+10	1	-1E+10	1	-1E+10	1	-1E+10	1
4901784	129	C	01/15/2019	10:42	-133.285	43.018	0	1494.80	0	2.5600	0	35.7940	8	28.569	0	1477.638	0	26.4	4	8.1	4	-1E+10	1	-1E+10	1	-1E+10	1	-1E+10	1	-1E+10	1	-1E+10	1
4901784	129	C	01/15/2019	10:42	-133.285	43.018	0	1500.10	0	2.5520	0	35.7950	8	28.571	0	1482.858	0	26.7	4	8.2	4	-1E+10	1	-1E+10	1	-1E+10	1	-1E+10	1	-1E+10	1	-1E+10	1
4901784	129	C	01/15/2019	10:42	-133.285	43.018	0	1505.60	0	2.5440	0	35.7960	8	28.572	0	1488.275	0	27.0	4	8.3	4	-1E+10	1	-1E+10	1	-1E+10	1	-1E+10	1	-1E+10	1	-1E+10	1
4901784	129	C	01/15/2019	10:42	-133.285	43.018	0	1510.10	0	2.5360	0	35.7980	8	28.575	0	1492.708	0	27.3	4	8.4	4	-1E+10	1	-1E+10	1	-1E+10	1	-1E+10	1	-1E+10	1	-1E+10	1
4901784	129	C	01/15/2019	10:42	-133.285	43.018	0	1514.70	0	2.5260	0	35.7990	8	28.576	0	1497.239	0	27.5	4	8.5	4	-1E+10	1	-1E+10	1	-1E+10	1	-1E+10	1	-1E+10	1	-1E+10	1
4901784	129	C	01/15/2019	10:42	-133.285	43.018	0	1520.10	0	2.5170	0	35.8000	8	28.578	0	1502.557	0	27.6	4	8.5	4	-1E+10	1	-1E+10	1	-1E+10	1	-1E+10	1	-1E+10	1	-1E+10	1
4901784	129	C	01/15/2019	10:42	-133.285	43.018	0	1525.60	0	2.5130	0	35.8010	8	28.579	0	1507.974	0	27.9	4	8.6	4	-1E+10	1	-1E+10	1	-1E+10	1	-1E+10	1	-1E+10	1	-1E+10	1
4901784	129	C	01/15/2019	10:42	-133.285	43.018	0	1530.20	0	2.5050	0	35.8020	8	28.581	0	1512.504	0	28.3	4	8.7	4	-1E+10	1	-1E+10	1	-1E+10	1	-1E+10	1	-1E+10	1	-1E+10	1
4901784	129	C	01/15/2019	10:42	-133.285	43.018	0	1534.90	0	2.4980	0	35.8040	8	28.583	0	1517.133	0	29.0	4	8.9	4	-1E+10	1	-1E+10	1	-1E+10	1	-1E+10	1	-1E+10	1	-1E+10	1
4901784	129	C	01/15/2019	10:42	-133.285	43.018	0	1540.50	0	2.4870	0	35.8060	8	28.586	0	1522.648	0	29.5	4	9.1	4	-1E+10	1	-1E+10	1	-1E+10	1	-1E+10	1	-1E+10	1	-1E+10	1
4901784	129	C	01/15/2019	10:42	-133.285	43.018	0	1545.10	0	2.4800	0	35.8070	8	28.587	0	1527.178	0	29.6	4	9.1	4	-1E+10	1	-1E+10	1	-1E+10	1	-1E+10	1	-1E+10	1	-1E+10	1
4901784	129	C	01/15/2019	10:42	-133.285	43.018	0	1549.80	0	2.4730	0	35.8080	8	28.588	0	1531.807	0	29.7	4	9.1	4	-1E+10	1	-1E+10	1	-1E+10	1	-1E+10	1	-1E+10	1	-1E+10	1
4901784	129	C	01/15/2019	10:42	-133.285	43.018	0	1555.30	0	2.4640	0	35.8090	8	28.590	0	1537.223	0	29.8	4	9.2	4	-1E+10	1	-1E+10	1	-1E+10	1	-1E+10	1	-1E+10	1	-1E+10	1
4901784	129	C	01/15/2019	10:42	-133.285	43.018	0	1560.00	0	2.4570	0	35.8100	8	28.592	0	1541.851	0	29.9	4	9.2	4	-1E+10	1	-1E+10	1	-1E+10	1	-1E+10	1	-1E+10	1	-1E+10	1
4901784	129	C	01/15/2019	10:42	-133.285	43.018	0	1564.70	0	2.4480	0	35.8110	8	28.593	0	1546.479	0	30.1	4	9.3	4	-1E+10	1	-1E+10	1	-1E+10	1	-1E+10	1	-1E+10	1	-1E+10	1
4901784	129	C	01/15/2019	10:42	-133.285	43.018	0	1570.40	0	2.4420	0	35.8120	8	28.594	0	1552.092	0	30.3	4	9.3	4	-1E+10	1	-1E+10	1	-1E+10	1	-1E+10	1	-1E+10	1	-1E+10	1
4901784	129	C	01/15/2019	10:42	-133.285	43.018	0	1574.50	0	2.4340	0	35.8140	8	28.597	0	1556.129	0	30.6	4	9.4	4	-1E+10	1	-1E+10	1	-1E+10	1	-1E+10	1	-1E+10	1	-1E+10	1
4901784	129	C	01/15/2019	10:42	-133.285	43.018	0	1579.50	0	2.4320	0	35.8140	8	28.597	0	1561.053	0	30.9	4	9.5	4	-1E+10	1	-1E+10	1	-1E+10	1	-1E+10	1	-1E+10	1	-1E+10	1
4901784	129	C	01/15/2019	10:42	-133.285	43.018	0	1584.50	0	2.4260	0	35.8160	8	28.599	0	1565.976	0	31.2	4	9.6	4	-1E+10	1	-1E+10	1	-1E+10	1	-1E+10	1	-1E+10	1	-1E+10	1
4901784	129	C	01/15/2019	10:42	-133.285	43.018	0	1589.40	0	2.4180	0	35.8170	8	28.601	0	1570.800	0	31.6	4	9.7	4	-1E+10	1	-1E+10	1	-1E+10	1	-1E+10	1	-1E+10	1	-1E+10	1
4901784	129	C	01/15/2019	10:42	-133.285	43.018	0	1594.30	0	2.4090	0	35.8190	8	28.603	0	1575.625	0	31.9	4	9.8	4	-1E+10	1	-1E+10	1	-1E+10	1	-1E+10	1	-1E+10	1	-1E+10	1
4901784	129	C	01/15/2019	10:42	-133.285	43.018	0	1599.30	0	2.4020	0	35.8200	8	28.605	0	1580.547	0	32.2	4	9.9	4	-1E+10	1	-1E+10	1	-1E+10	1	-1E+10	1	-1E+10	1	-1E+10	1
4901784	129	C	01/15/2019	10:42	-133.285	43.018	0	1604.30	0	2.3950	0	35.8210	8	28.606	0	1585.470	0	32.6	4	10.0	4	-1E+10	1	-1E+10	1	-1E+10	1	-1E+10	1	-1E+10	1	-1E+10	1
4901784	129	C	01/15/2019	10:42	-133.285	43.018	0	1609.40	0	2.3850	0	35.8220	8	28.608	0	1590.491	0	32.9	4	10.1	4	-1E+10	1	-1E+10	1	-1E+10	1	-1E+10	1	-1E+10	1	-1E+10	1
4901784	129	C	01/15/2019	10:42	-133.285	43.018	0	1614.50	0	2.3780	0	35.8240	8	28.610	0	1595.512	0	33.3	4	10.2	4	-1E+10	1	-1E+10	1	-1E+10	1	-1E+10	1	-1E+10	1	-1E+10	1
4901784	129	C	01/15/2019	10:42	-133.285	43.018	0	1619.50	0	2.3690	0	35.8250	8	28.611	0	1600.434	0	33.7	4	10.3	4	-1E+10	1	-1E+10	1	-1E+10	1	-1E+10	1	-1E+10	1	-1E+10	1
4901784	129	C	01/15/2019	10:42	-133.285	43.018	0	1624.60	0	2.3580	0	35.8270	8	28.614	0	1605.455	0	34.1	4	10.5	4	-1E+10	1	-1E+10	1	-1E+10	1	-1E+10	1	-1E+10	1	-1E+10	1
4901784	129	C	01/15/2019	10:42	-133.285	43.018	0	1629.80	0	2.3470	0	35.8290	8	28.617	0	1610.574	0	34.6	4	10.6	4	-1E+10	1	-1E+10	1	-1E+10	1	-1E+10	1	-1E+10	1	-1E+10	1
4901784	129	C	01/15/2019	10:42	-133.285	43.018	0	1634.90	0	2.3360	0	35.8310	8	28.619	0	1615.594	0	35.0	4	10.7	4	-1E+10	1	-1E+10	1	-1E+10	1	-1E+10	1	-1E+10	1	-1E+10	1
4901784	129	C	01/15/2019	10:42	-133.285	43.018	0	1640.00	0	2.3310	0	35.8320	8	28.620	0	1620.615	0	35.1	4	10.8	4	-1E+10	1	-1E+10	1	-1E+10	1	-1E+10	1	-1E+10	1	-1E+10	1
4901784	129	C	01/15/2019	10:42	-133.285	43.018	0	1645.30	0	2.3240	0	35.8330	8	28.622	0	1625.832	0	35.4	4	10.9	4	-1E+10	1	-1E+10	1	-1E+10	1	-1E+10	1	-1E+10	1	-1E+10	1
4901784	129	C	01/15/2019	10:42	-133.285	43.018	0	1650.50	0	2.3150	0	35.8340	8	28.623	0	1630.950	0	35.6	4	10.9	4	-1E+10	1	-1E+10	1	-1E+10	1	-1E+10	1	-1E+10	1	-1E+10	1
4901784	129	C	01/15/2019	10:42	-133.285	43.018	0	1654.90	0	2.3090	0	35.8350	8	28.625	0	1635.281	0	36.0	4	11.0	4	-1E+10	1	-1E+10	1	-1E+10	1	-1E+10	1	-1E+10	1	-1E+10	1
4901784	129	C	01/15/2019	10:42	-133.285	43.018	0	1659.40	0	2.3020	0	35.8360	8	28.626	0	1639.710	0	36.3	4	11.1	4	-1E+10	1	-1E+10	1	-1E+10	1	-1E+10	1	-1E+10	1	-1E+10	1
4901784	129	C	01/15/2019	10:42	-133.285	43.018	0	1664.80	0	2.2910	0	35.8380	8	28.629	0	1645.025	0	36.8	4	11.3	4	-1E+10	1	-1E+10	1	-1E+10	1	-1E+10	1	-1E+10	1	-1E+10	1
4901784	129	C	01/15/2019	10:42	-133.285	43.018	0	1670.20	0	2.2830	0	35.8390	8	28.630	0	1650.340	0	37.2	4	11.4	4	-1E+10	1	-1E+10	1	-1E+10	1	-1E+10	1	-1E+10	1	-1E+10	1
4901784	129	C	01/15/2019	10:42	-133.285	43.018	0	1675.60	0	2.2720	0	35.8410	8	28.633	0	1655.655	0	37.6	4	11.5	4	-1E+10	1	-1E+10	1	-1E+10	1	-1E+10	1	-1E+10	1	-1E+10	1
4901784	129	C	01/15/2019	10:42	-133.285	43.018	0	1680.10	0	2.2690	0	35.8420	8	28.634	0	1660.084	0	37.8	4	11.6	4	-1E+10	1	-1E+10	1	-1E+10	1	-1E+10	1	-1E+10	1	-1E+10	1
4901784	129	C	01/15/2019	10:42	-133.285	43.018	0	1684.60	0	2.2650	0	35.8430	8	28.635	0	1664.512	0	38.2	4	11.7	4	-1E+10	1	-1E+10	1	-1E+10	1	-1E+10	1	-1E+10	1	-1E+10	1
4901784	129	C	01/15/2019	10:42	-133.285	43.018	0	1690.10	0	2.2580	0	35.8440	8	28.637	0	1669.925	0	38.6	4	11.8	4	-1E+10	1	-1E+10	1	-1E+10	1	-1E+10	1	-1E+10	1	-1E+10	1
4901784	129	C	01/15/2019	10:42	-133.285	43.018	0	1695.60	0	2.2490	0	35.8460	8	28.639	0	1675.338	0	38.8	4	11.9	4	-1E+10	1	-1E+10	1	-1E+10	1	-1E+10	1	-1E+10	1	-1E+10	1
4901784	129	C	01/15/2019	10:42	-133.285	43.018	0	1700.20	0	2.2460	0	35.8460	8	28.639	0	1679.864	0	39.1	4	12.0	4	-1E+10	1	-1E+10	1	-1E+10	1	-1E+10	1	-1E+10	1	-1E+10	1
4901784	129	C	01/15/2019	10:42	-133.285	43.018	0	1704.80	0	2.2430	0	35.8470	8	28.640	0	1684.391	0	39.4	4	12.1	4	-1E+10	1	-1E+10	1	-1E+10	1	-1E+10	1	-1E+10	1	-1E+10	1
4901784	129	C	01/15/2019	10:42	-133.285	43.018	0	1710.20	0	2.2350	0	35.8490	8	28.643	0	1689.705	0	39.6	4	12.1	4	-1E+10	1	-1E+10	1	-1E+10	1	-1E+10	1	-1E+10	1	-1E+10	1
4901784	129	C	01/15/2019	10:42	-133.285	43.018	0	1715.60	0	2.2320	0	35.8490	8	28.643	0	1695.019	0	39.8	4	12.2	4	-1E+10	1	-1E+10	1	-1E+10	1	-1E+10	1	-1E+10	1	-1E+10	1
4901784	129	C	01/15/2019	10:42	-133.285	43.018	0	1720.50	0	2.2290	0	35.8500	8	28.644	0	1699.840	0	40.0	4	12.3	4	-1E+10	1	-1E+10	1	-1E+10	1	-1E+10	1	-1E+10	1	-1E+10	1
4901784	129	C	01/15/2019	10:42	-133.285	43.018	0	1725.40	0	2.2230	0	35.8510	8	28.645	0	1704.662	0	40.3	4	12.3	4	-1E+10	1	-1E+10	1	-1E+10	1	-1E+10	1	-1E+10	1	-1E+10	1
4901784	129	C	01/15/2019	10:42	-133.285	43.018	0	1730.30	0	2.2190	0	35.8520	8	28.646	0	1709.483	0	40.5	4	12.4	4	-1E+10	1	-1E+10	1	-1E+10	1	-1E+10	1	-1E+10	1	-1E+10	1
4901784	129	C	01/15/2019	10:42	-133.285	43.018	0	1735.20	0	2.2170	0	35.8520	8	28.647	0	1714.304	0	40.7	4	12.5	4	-1E+10	1	-1E+10	1	-1E+10	1	-1E+10	1	-1E+10	1	-1E+10	1
4901784	129	C	01/15/2019	10:42	-133.285	43.018	0	1740.20	0	2.2130	0	35.8530	8	28.648	0	1719.224	0	41.1	4	12.6	4	-1E+10	1	-1E+10	1	-1E+10	1	-1E+10	1	-1E+10	1	-1E+10	1
4901784	129	C	01/15/2019	10:42	-133.285	43.018	0	1745.20	0	2.2040	0	35.8550	8	28.650	0	1724.143	0	41.5	4	12.7	4	-1E+10	1	-1E+10	1	-1E+10	1	-1E+10	1	-1E+10	1	-1E+10	1
4901784	129	C	01/15/2019	10:42	-133.285	43.018	0	1750.20	0	2.1970	0	35.8560	8	28.652	0	1729.063	0	41.8	4	12.8	4	-1E+10	1	-1E+10	1	-1E+10	1	-1E+10	1	-1E+10	1	-1E+10	1
4901784	129	C	01/15/2019	10:42	-133.285	43.018	0	1755.20	0	2.1940	0	35.8570	8	28.653	0	1733.982	0	42.0	4	12.9	4	-1E+10	1	-1E+10	1	-1E+10	1	-1E+10	1	-1E+10	1	-1E+10	1
4901784	129	C	01/15/2019	10:42	-133.285	43.018	0	1760.20	0	2.1860	0	35.8580	8	28.654	0	1738.901	0	42.5	4	13.0	4	-1E+10	1	-1E+10	1	-1E+10	1	-1E+10	1	-1E+10	1	-1E+10	1
4901784	129	C	01/15/2019	10:42	-133.285	43.018	0	1765.30	0	2.1760	0	35.8600	8	28.657	0	1743.919	0	42.9	4	13.1	4	-1E+10	1	-1E+10	1	-1E+10	1	-1E+10	1	-1E+10	1	-1E+10	1
4901784	129	C	01/15/2019	10:42	-133.285	43.018	0	1770.40	0	2.1680	0	35.8610	8	28.658	0	1748.936	0	43.1	4	13.2	4	-1E+10	1	-1E+10	1	-1E+10	1	-1E+10	1	-1E+10	1	-1E+10	1
4901784	129	C	01/15/2019	10:42	-133.285	43.018	0	1775.50	0	2.1610	0	35.8620	8	28.660	0	1753.953	0	43.3	4	13.2	4	-1E+10	1	-1E+10	1	-1E+10	1	-1E+10	1	-1E+10	1	-1E+10	1
4901784	129	C	01/15/2019	10:42	-133.285	43.018	0	1780.60	0	2.1580	0	35.8630	8	28.661	0	1758.970	0	43.5	4	13.3	4	-1E+10	1	-1E+10	1	-1E+10	1	-1E+10	1	-1E+10	1	-1E+10	1
4901784	129	C	01/15/2019	10:42	-133.285	43.018	0	1785.70	0	2.1560	0	35.8640	8	28.662	0	1763.987	0	43.7	4	13.3	4	-1E+10	1	-1E+10	1	-1E+10	1	-1E+10	1	-1E+10	1	-1E+10	1
4901784	129	C	01/15/2019	10:42	-133.285	43.018	0	1790.00	0	2.1540	0	35.8640	8	28.662	0	1768.217	0	43.9	4	13.4	4	-1E+10	1	-1E+10	1	-1E+10	1	-1E+10	1	-1E+10	1	-1E+10	1
4901784	129	C	01/15/2019	10:42	-133.285	43.018	0	1794.30	0	2.1480	0	35.8650	8	28.663	0	1772.446	0	44.1	4	13.5	4	-1E+10	1	-1E+10	1	-1E+10	1	-1E+10	1	-1E+10	1	-1E+10	1
4901784	129	C	01/15/2019	10:42	-133.285	43.018	0	1799.50	0	2.1460	0	35.8660	8	28.664	0	1777.561	0	44.4	4	13.6	4	-1E+10	1	-1E+10	1	-1E+10	1	-1E+10	1	-1E+10	1	-1E+10	1
4901784	129	C	01/15/2019	10:42	-133.285	43.018	0	1804.70	0	2.1430	0	35.8670	8	28.665	0	1782.676	0	44.6	4	13.6	4	-1E+10	1	-1E+10	1	-1E+10	1	-1E+10	1	-1E+10	1	-1E+10	1
4901784	129	C	01/15/2019	10:42	-133.285	43.018	0	1809.90	0	2.1400	0	35.8680	8	28.666	0	1787.791	0	44.8	4	13.7	4	-1E+10	1	-1E+10	1	-1E+10	1	-1E+10	1	-1E+10	1	-1E+10	1
4901784	129	C	01/15/2019	10:42	-133.285	43.018	0	1815.10	0	2.1360	0	35.8680	8	28.667	0	1792.905	0	45.1	4	13.8	4	-1E+10	1	-1E+10	1	-1E+10	1	-1E+10	1	-1E+10	1	-1E+10	1
4901784	129	C	01/15/2019	10:42	-133.285	43.018	0	1820.30	0	2.1290	0	35.8700	8	28.669	0	1798.020	0	45.5	4	13.9	4	-1E+10	1	-1E+10	1	-1E+10	1	-1E+10	1	-1E+10	1	-1E+10	1
4901784	129	C	01/15/2019	10:42	-133.285	43.018	0	1825.60	0	2.1240	0	35.8710	8	28.670	0	1803.232	0	45.8	4	14.0	4	-1E+10	1	-1E+10	1	-1E+10	1	-1E+10	1	-1E+10	1	-1E+10	1
4901784	129	C	01/15/2019	10:42	-133.285	43.018	0	1830.10	0	2.1200	0	35.8720	8	28.671	0	1807.658	0	46.1	4	14.1	4	-1E+10	1	-1E+10	1	-1E+10	1	-1E+10	1	-1E+10	1	-1E+10	1
4901784	129	C	01/15/2019	10:42	-133.285	43.018	0	1834.50	0	2.1150	0	35.8730	8	28.673	0	1811.985	0	46.3	4	14.2	4	-1E+10	1	-1E+10	1	-1E+10	1	-1E+10	1	-1E+10	1	-1E+10	1
4901784	129	C	01/15/2019	10:42	-133.285	43.018	0	1839.90	0	2.1120	0	35.8740	8	28.674	0	1817.296	0	46.7	4	14.3	4	-1E+10	1	-1E+10	1	-1E+10	1	-1E+10	1	-1E+10	1	-1E+10	1
4901784	129	C	01/15/2019	10:42	-133.285	43.018	0	1845.30	0	2.1070	0	35.8740	8	28.674	0	1822.607	0	47.0	4	14.3	4	-1E+10	1	-1E+10	1	-1E+10	1	-1E+10	1	-1E+10	1	-1E+10	1
4901784	129	C	01/15/2019	10:42	-133.285	43.018	0	1849.80	0	2.1050	0	35.8750	8	28.675	0	1827.032	0	47.3	4	14.4	4	-1E+10	1	-1E+10	1	-1E+10	1	-1E+10	1	-1E+10	1	-1E+10	1
4901784	129	C	01/15/2019	10:42	-133.285	43.018	0	1854.40	0	2.1000	0	35.8760	8	28.676	0	1831.555	0	47.6	4	14.5	4	-1E+10	1	-1E+10	1	-1E+10	1	-1E+10	1	-1E+10	1	-1E+10	1
4901784	129	C	01/15/2019	10:42	-133.285	43.018	0	1859.80	0	2.0960	0	35.8770	8	28.678	0	1836.866	0	47.9	4	14.6	4	-1E+10	1	-1E+10	1	-1E+10	1	-1E+10	1	-1E+10	1	-1E+10	1
4901784	129	C	01/15/2019	10:42	-133.285	43.018	0	1865.30	0	2.0900	0	35.8780	8	28.679	0	1842.274	0	48.2	4	14.7	4	-1E+10	1	-1E+10	1	-1E+10	1	-1E+10	1	-1E+10	1	-1E+10	1
4901784	129	C	01/15/2019	10:42	-133.285	43.018	0	1870.00	0	2.0850	0	35.8790	8	28.680	0	1846.896	0	48.4	4	14.8	4	-1E+10	1	-1E+10	1	-1E+10	1	-1E+10	1	-1E+10	1	-1E+10	1
4901784	129	C	01/15/2019	10:42	-133.285	43.018	0	1874.80	0	2.0830	0	35.8800	8	28.681	0	1851.615	0	48.7	4	14.9	4	-1E+10	1	-1E+10	1	-1E+10	1	-1E+10	1	-1E+10	1	-1E+10	1
4901784	129	C	01/15/2019	10:42	-133.285	43.018	0	1880.00	0	2.0790	0	35.8810	8	28.682	0	1856.728	0	49.0	4	15.0	4	-1E+10	1	-1E+10	1	-1E+10	1	-1E+10	1	-1E+10	1	-1E+10	1
4901784	129	C	01/15/2019	10:42	-133.285	43.018	0	1884.90	0	2.0740	0	35.8810	8	28.683	0	1861.546	0	49.4	4	15.1	4	-1E+10	1	-1E+10	1	-1E+10	1	-1E+10	1	-1E+10	1	-1E+10	1
4901784	129	C	01/15/2019	10:42	-133.285	43.018	0	1889.80	0	2.0690	0	35.8830	8	28.685	0	1866.364	0	49.7	4	15.1	4	-1E+10	1	-1E+10	1	-1E+10	1	-1E+10	1	-1E+10	1	-1E+10	1
4901784	129	C	01/15/2019	10:42	-133.285	43.018	0	1894.60	0	2.0640	0	35.8840	8	28.686	0	1871.083	0	49.9	4	15.2	4	-1E+10	1	-1E+10	1	-1E+10	1	-1E+10	1	-1E+10	1	-1E+10	1
4901784	129	C	01/15/2019	10:42	-133.285	43.018	0	1899.50	0	2.0600	0	35.8850	8	28.687	0	1875.901	0	50.1	4	15.3	4	-1E+10	1	-1E+10	1	-1E+10	1	-1E+10	1	-1E+10	1	-1E+10	1
4901784	129	C	01/15/2019	10:42	-133.285	43.018	0	1904.50	0	2.0590	0	35.8850	8	28.687	0	1880.817	0	50.3	4	15.3	4	-1E+10	1	-1E+10	1	-1E+10	1	-1E+10	1	-1E+10	1	-1E+10	1
4901784	129	C	01/15/2019	10:42	-133.285	43.018	0	1909.40	0	2.0560	0	35.8860	8	28.688	0	1885.634	0	50.6	4	15.4	4	-1E+10	1	-1E+10	1	-1E+10	1	-1E+10	1	-1E+10	1	-1E+10	1
4901784	129	C	01/15/2019	10:42	-133.285	43.018	0	1914.40	0	2.0530	0	35.8870	8	28.689	0	1890.550	0	50.9	4	15.5	4	-1E+10	1	-1E+10	1	-1E+10	1	-1E+10	1	-1E+10	1	-1E+10	1
4901784	129	C	01/15/2019	10:42	-133.285	43.018	0	1919.40	0	2.0480	0	35.8880	8	28.691	0	1895.465	0	51.3	4	15.6	4	-1E+10	1	-1E+10	1	-1E+10	1	-1E+10	1	-1E+10	1	-1E+10	1
4901784	129	C	01/15/2019	10:42	-133.285	43.018	0	1924.40	0	2.0420	0	35.8890	8	28.692	0	1900.381	0	51.6	4	15.7	4	-1E+10	1	-1E+10	1	-1E+10	1	-1E+10	1	-1E+10	1	-1E+10	1
4901784	129	C	01/15/2019	10:42	-133.285	43.018	0	1929.30	0	2.0400	0	35.8890	8	28.692	0	1905.198	0	51.9	4	15.8	4	-1E+10	1	-1E+10	1	-1E+10	1	-1E+10	1	-1E+10	1	-1E+10	1
4901784	129	C	01/15/2019	10:42	-133.285	43.018	0	1934.20	0	2.0350	0	35.8900	8	28.693	0	1910.014	0	52.3	4	15.9	4	-1E+10	1	-1E+10	1	-1E+10	1	-1E+10	1	-1E+10	1	-1E+10	1
4901784	129	C	01/15/2019	10:42	-133.285	43.018	0	1939.20	0	2.0290	0	35.8910	8	28.695	0	1914.929	0	52.7	4	16.1	4	-1E+10	1	-1E+10	1	-1E+10	1	-1E+10	1	-1E+10	1	-1E+10	1
4901784	129	C	01/15/2019	10:42	-133.285	43.018	0	1944.20	0	2.0250	0	35.8920	8	28.696	0	1919.844	0	53.0	4	16.2	4	-1E+10	1	-1E+10	1	-1E+10	1	-1E+10	1	-1E+10	1	-1E+10	1
4901784	129	C	01/15/2019	10:42	-133.285	43.018	0	1949.30	0	2.0190	0	35.8930	8	28.697	0	1924.857	0	53.5	4	16.3	4	-1E+10	1	-1E+10	1	-1E+10	1	-1E+10	1	-1E+10	1	-1E+10	1
4901784	129	C	01/15/2019	10:42	-133.285	43.018	0	1954.40	0	2.0130	0	35.8950	8	28.699	0	1929.870	0	53.8	4	16.4	4	-1E+10	1	-1E+10	1	-1E+10	1	-1E+10	1	-1E+10	1	-1E+10	1
4901784	129	C	01/15/2019	10:42	-133.285	43.018	0	1959.50	0	2.0100	0	35.8950	8	28.700	0	1934.883	0	54.1	4	16.5	4	-1E+10	1	-1E+10	1	-1E+10	1	-1E+10	1	-1E+10	1	-1E+10	1
4901784	129	C	01/15/2019	10:42	-133.285	43.018	0	1964.60	0	2.0070	0	35.8960	8	28.701	0	1939.896	0	54.4	4	16.6	4	-1E+10	1	-1E+10	1	-1E+10	1	-1E+10	1	-1E+10	1	-1E+10	1
4901784	129	C	01/15/2019	10:42	-133.285	43.018	0	1969.70	0	2.0030	0	35.8970	8	28.702	0	1944.908	0	54.7	4	16.7	4	-1E+10	1	-1E+10	1	-1E+10	1	-1E+10	1	-1E+10	1	-1E+10	1
4901784	129	C	01/15/2019	10:42	-133.285	43.018	0	1974.80	0	1.9990	0	35.8980	8	28.703	0	1949.921	0	55.0	4	16.7	4	-1E+10	1	-1E+10	1	-1E+10	1	-1E+10	1	-1E+10	1	-1E+10	1
4901784	129	C	01/15/2019	10:42	-133.285	43.018	0	1979.90	0	1.9950	0	35.8990	8	28.704	0	1954.933	0	55.2	4	16.8	4	-1E+10	1	-1E+10	1	-1E+10	1	-1E+10	1	-1E+10	1	-1E+10	1
4901784	129	C	01/15/2019	10:42	-133.285	43.018	0	1985.40	0	1.9920	0	35.9000	8	28.705	0	1960.339	0	55.5	4	16.9	4	-1E+10	1	-1E+10	1	-1E+10	1	-1E+10	1	-1E+10	1	-1E+10	1
4901784	129	C	01/15/2019	10:42	-133.285	43.018	0	1990.20	0	1.9890	0	35.9000	8	28.705	0	1965.056	0	55.7	4	17.0	4	-1E+10	1	-1E+10	1	-1E+10	1	-1E+10	1	-1E+10	1	-1E+10	1
4901784	129	C	01/15/2019	10:42	-133.285	43.018	0	1994.80	0	1.9870	0	35.9010	8	28.706	0	1969.577	0	55.9	4	17.0	4	-1E+10	1	-1E+10	1	-1E+10	1	-1E+10	1	-1E+10	1	-1E+10	1
4901784	129	C	01/15/2019	10:42	-133.285	43.018	0	2000.00	0	1.9820	0	35.9020	8	28.708	0	1974.687	0	56.2	4	17.1	4	-1E+10	1	-1E+10	1	-1E+10	1	-1E+10	1	-1E+10	1	-1E+10	1
4901784	129	C	01/15/2019	10:42	-133.285	43.018	0	2006.00	0	1.9790	0	35.9030	8	28.709	0	1980.583	0	55.1	4	16.8	4	-1E+10	1	-1E+10	1	-1E+10	1	-1E+10	1	-1E+10	1	-1E+10	1
4901784	129	C	01/15/2019	10:42	-133.285	43.018	0																										
4901784	130	C	01/25/2019	10:46	-133.181	43.083	0	2.40	0	12.0260	0	33.5810	8	25.483	0	2.381	0	255.7	4	96.2	4	-1E+10	1	-1E+10	1	-1E+10	1	-1E+10	1	-1E+10	1	-1E+10	1
4901784	130	C	01/25/2019	10:46	-133.181	43.083	0	3.90	0	12.0270	0	33.5810	8	25.483	0	3.869	0	255.6	4	96.2	4	-1E+10	1	-1E+10	1	-1E+10	1	-1E+10	1	-1E+10	1	-1E+10	1
4901784	130	C	01/25/2019	10:46	-133.181	43.083	0	5.60	0	12.0260	0	33.5810	8	25.483	0	5.555	0	255.7	4	96.2	4	-1E+10	1	-1E+10	1	-1E+10	1	-1E+10	1	-1E+10	1	-1E+10	1
4901784	130	C	01/25/2019	10:46	-133.181	43.083	0	7.40	0	12.0080	0	33.5840	8	25.489	0	7.341	0	255.4	4	96.1	4	-1E+10	1	-1E+10	1	-1E+10	1	-1E+10	1	-1E+10	1	-1E+10	1
4901784	130	C	01/25/2019	10:46	-133.181	43.083	0	9.20	0	11.9930	0	33.5870	8	25.494	0	9.127	0	255.6	4	96.1	4	-1E+10	1	-1E+10	1	-1E+10	1	-1E+10	1	-1E+10	1	-1E+10	1
4901784	130	C	01/25/2019	10:46	-133.181	43.083	0	11.10	0	11.9530	0	33.5920	8	25.505	0	11.012	0	255.5	4	96.0	4	-1E+10	1	-1E+10	1	-1E+10	1	-1E+10	1	-1E+10	1	-1E+10	1
4901784	130	C	01/25/2019	10:46	-133.181	43.083	0	13.00	0	11.9470	0	33.5910	8	25.506	0	12.896	0	255.6	4	96.0	4	-1E+10	1	-1E+10	1	-1E+10	1	-1E+10	1	-1E+10	1	-1E+10	1
4901784	130	C	01/25/2019	10:46	-133.181	43.083	0	14.80	0	11.9430	0	33.5920	8	25.507	0	14.682	0	255.4	4	95.9	4	-1E+10	1	-1E+10	1	-1E+10	1	-1E+10	1	-1E+10	1	-1E+10	1
4901784	130	C	01/25/2019	10:46	-133.181	43.083	0	16.70	0	11.9400	0	33.5950	8	25.510	0	16.567	0	255.3	4	95.9	4	-1E+10	1	-1E+10	1	-1E+10	1	-1E+10	1	-1E+10	1	-1E+10	1
4901784	130	C	01/25/2019	10:46	-133.181	43.083	0	18.60	0	11.9500	0	33.6010	8	25.513	0	18.451	0	255.1	4	95.8	4	-1E+10	1	-1E+10	1	-1E+10	1	-1E+10	1	-1E+10	1	-1E+10	1
4901784	130	C	01/25/2019	10:46	-133.181	43.083	0	20.50	0	11.9640	0	33.6070	8	25.515	0	20.336	0	254.9	4	95.8	4	-1E+10	1	-1E+10	1	-1E+10	1	-1E+10	1	-1E+10	1	-1E+10	1
4901784	130	C	01/25/2019	10:46	-133.181	43.083	0	22.40	0	12.0120	0	33.6190	8	25.515	0	22.221	0	254.6	4	95.8	4	-1E+10	1	-1E+10	1	-1E+10	1	-1E+10	1	-1E+10	1	-1E+10	1
4901784	130	C	01/25/2019	10:46	-133.181	43.083	0	24.30	0	12.0060	0	33.6190	8	25.517	0	24.106	0	254.3	4	95.7	4	-1E+10	1	-1E+10	1	-1E+10	1	-1E+10	1	-1E+10	1	-1E+10	1
4901784	130	C	01/25/2019	10:46	-133.181	43.083	0	26.20	0	12.0020	0	33.6190	8	25.517	0	25.990	0	254.2	4	95.6	4	-1E+10	1	-1E+10	1	-1E+10	1	-1E+10	1	-1E+10	1	-1E+10	1
4901784	130	C	01/25/2019	10:46	-133.181	43.083	0	28.10	0	12.0030	0	33.6200	8	25.518	0	27.875	0	254.0	4	95.5	4	-1E+10	1	-1E+10	1	-1E+10	1	-1E+10	1	-1E+10	1	-1E+10	1
4901784	130	C	01/25/2019	10:46	-133.181	43.083	0	30.00	0	12.0040	0	33.6210	8	25.519	0	29.760	0	254.0	4	95.6	4	-1E+10	1	-1E+10	1	-1E+10	1	-1E+10	1	-1E+10	1	-1E+10	1
4901784	130	C	01/25/2019	10:46	-133.181	43.083	0	31.90	0	12.0070	0	33.6220	8	25.519	0	31.644	0	253.7	4	95.5	4	-1E+10	1	-1E+10	1	-1E+10	1	-1E+10	1	-1E+10	1	-1E+10	1
4901784	130	C	01/25/2019	10:46	-133.181	43.083	0	33.80	0	12.0050	0	33.6230	8	25.520	0	33.529	0	253.8	4	95.5	4	-1E+10	1	-1E+10	1	-1E+10	1	-1E+10	1	-1E+10	1	-1E+10	1
4901784	130	C	01/25/2019	10:46	-133.181	43.083	0	35.70	0	12.0040	0	33.6240	8	25.521	0	35.413	0	253.5	4	95.4	4	-1E+10	1	-1E+10	1	-1E+10	1	-1E+10	1	-1E+10	1	-1E+10	1
4901784	130	C	01/25/2019	10:46	-133.181	43.083	0	37.60	0	12.0040	0	33.6250	8	25.522	0	37.298	0	253.2	4	95.2	4	-1E+10	1	-1E+10	1	-1E+10	1	-1E+10	1	-1E+10	1	-1E+10	1
4901784	130	C	01/25/2019	10:46	-133.181	43.083	0	39.60	0	12.0040	0	33.6260	8	25.523	0	39.282	0	253.3	4	95.3	4	-1E+10	1	-1E+10	1	-1E+10	1	-1E+10	1	-1E+10	1	-1E+10	1
4901784	130	C	01/25/2019	10:46	-133.181	43.083	0	41.50	0	12.0030	0	33.6260	8	25.523	0	41.166	0	253.3	4	95.3	4	-1E+10	1	-1E+10	1	-1E+10	1	-1E+10	1	-1E+10	1	-1E+10	1
4901784	130	C	01/25/2019	10:46	-133.181	43.083	0	43.40	0	12.0020	0	33.6270	8	25.524	0	43.051	0	253.0	4	95.2	4	-1E+10	1	-1E+10	1	-1E+10	1	-1E+10	1	-1E+10	1	-1E+10	1
4901784	130	C	01/25/2019	10:46	-133.181	43.083	0	45.30	0	12.0010	0	33.6270	8	25.524	0	44.935	0	252.8	4	95.1	4	-1E+10	1	-1E+10	1	-1E+10	1	-1E+10	1	-1E+10	1	-1E+10	1
4901784	130	C	01/25/2019	10:46	-133.181	43.083	0	47.20	0	12.0000	0	33.6280	8	25.525	0	46.820	0	252.6	4	95.0	4	-1E+10	1	-1E+10	1	-1E+10	1	-1E+10	1	-1E+10	1	-1E+10	1
4901784	130	C	01/25/2019	10:46	-133.181	43.083	0	49.10	0	11.9990	0	33.6290	8	25.526	0	48.704	0	252.5	4	95.0	4	-1E+10	1	-1E+10	1	-1E+10	1	-1E+10	1	-1E+10	1	-1E+10	1
4901784	130	C	01/25/2019	10:46	-133.181	43.083	0	51.00	0	11.9980	0	33.6300	8	25.527	0	50.589	0	252.4	4	95.0	4	-1E+10	1	-1E+10	1	-1E+10	1	-1E+10	1	-1E+10	1	-1E+10	1
4901784	130	C	01/25/2019	10:46	-133.181	43.083	0	52.90	0	11.9980	0	33.6300	8	25.527	0	52.473	0	252.1	4	94.8	4	-1E+10	1	-1E+10	1	-1E+10	1	-1E+10	1	-1E+10	1	-1E+10	1
4901784	130	C	01/25/2019	10:46	-133.181	43.083	0	54.80	0	11.9960	0	33.6310	8	25.529	0	54.358	0	251.9	4	94.8	4	-1E+10	1	-1E+10	1	-1E+10	1	-1E+10	1	-1E+10	1	-1E+10	1
4901784	130	C	01/25/2019	10:46	-133.181	43.083	0	56.70	0	11.9930	0	33.6320	8	25.530	0	56.242	0	251.5	4	94.6	4	-1E+10	1	-1E+10	1	-1E+10	1	-1E+10	1	-1E+10	1	-1E+10	1
4901784	130	C	01/25/2019	10:46	-133.181	43.083	0	58.60	0	11.9930	0	33.6320	8	25.530	0	58.126	0	251.3	4	94.5	4	-1E+10	1	-1E+10	1	-1E+10	1	-1E+10	1	-1E+10	1	-1E+10	1
4901784	130	C	01/25/2019	10:46	-133.181	43.083	0	60.50	0	11.9900	0	33.6340	8	25.532	0	60.011	0	251.2	4	94.5	4	-1E+10	1	-1E+10	1	-1E+10	1	-1E+10	1	-1E+10	1	-1E+10	1
4901784	130	C	01/25/2019	10:46	-133.181	43.083	0	62.40	0	11.9870	0	33.6350	8	25.533	0	61.895	0	250.8	4	94.3	4	-1E+10	1	-1E+10	1	-1E+10	1	-1E+10	1	-1E+10	1	-1E+10	1
4901784	130	C	01/25/2019	10:46	-133.181	43.083	0	64.30	0	11.9800	0	33.6380	8	25.537	0	63.779	0	250.5	4	94.2	4	-1E+10	1	-1E+10	1	-1E+10	1	-1E+10	1	-1E+10	1	-1E+10	1
4901784	130	C	01/25/2019	10:46	-133.181	43.083	0	66.20	0	11.9770	0	33.6390	8	25.539	0	65.664	0	250.4	4	94.2	4	-1E+10	1	-1E+10	1	-1E+10	1	-1E+10	1	-1E+10	1	-1E+10	1
4901784	130	C	01/25/2019	10:46	-133.181	43.083	0	68.10	0	11.9760	0	33.6400	8	25.540	0	67.548	0	249.9	4	94.0	4	-1E+10	1	-1E+10	1	-1E+10	1	-1E+10	1	-1E+10	1	-1E+10	1
4901784	130	C	01/25/2019	10:46	-133.181	43.083	0	70.00	0	11.9760	0	33.6390	8	25.539	0	69.432	0	249.7	4	93.9	4	-1E+10	1	-1E+10	1	-1E+10	1	-1E+10	1	-1E+10	1	-1E+10	1
4901784	130	C	01/25/2019	10:46	-133.181	43.083	0	71.80	0	11.9760	0	33.6400	8	25.540	0	71.217	0	249.5	4	93.8	4	-1E+10	1	-1E+10	1	-1E+10	1	-1E+10	1	-1E+10	1	-1E+10	1
4901784	130	C	01/25/2019	10:46	-133.181	43.083	0	73.70	0	11.9740	0	33.6390	8	25.539	0	73.102	0	248.8	4	93.5	4	-1E+10	1	-1E+10	1	-1E+10	1	-1E+10	1	-1E+10	1	-1E+10	1
4901784	130	C	01/25/2019	10:46	-133.181	43.083	0	75.40	0	11.9630	0	33.6370	8	25.540	0	74.788	0	248.3	4	93.4	4	-1E+10	1	-1E+10	1	-1E+10	1	-1E+10	1	-1E+10	1	-1E+10	1
4901784	130	C	01/25/2019	10:46	-133.181	43.083	0	77.20	0	11.9300	0	33.6390	8	25.548	0	76.573	0	247.7	4	93.1	4	-1E+10	1	-1E+10	1	-1E+10	1	-1E+10	1	-1E+10	1	-1E+10	1
4901784	130	C	01/25/2019	10:46	-133.181	43.083	0	79.00	0	11.6940	0	33.6350	8	25.589	0	78.358	0	247.7	4	92.6	4	-1E+10	1	-1E+10	1	-1E+10	1	-1E+10	1	-1E+10	1	-1E+10	1
4901784	130	C	01/25/2019	10:46	-133.181	43.083	0	80.70	0	11.4890	0	33.6410	8	25.631	0	80.043	0	248.6	4	92.6	4	-1E+10	1	-1E+10	1	-1E+10	1	-1E+10	1	-1E+10	1	-1E+10	1
4901784	130	C	01/25/2019	10:46	-133.181	43.083	0	83.00	0	11.3990	0	33.6370	8	25.644	0	82.324	0	248.7	4	92.4	4	-1E+10	1	-1E+10	1	-1E+10	1	-1E+10	1	-1E+10	1	-1E+10	1
4901784	130	C	01/25/2019	10:46	-133.181	43.083	0	84.90	0	11.3490	0	33.6320	8	25.650	0	84.208	0	248.4	4	92.2	4	-1E+10	1	-1E+10	1	-1E+10	1	-1E+10	1	-1E+10	1	-1E+10	1
4901784	130	C	01/25/2019	10:46	-133.181	43.083	0	86.30	0	11.2760	0	33.6290	8	25.661	0	85.597	0	248.5	4	92.1	4	-1E+10	1	-1E+10	1	-1E+10	1	-1E+10	1	-1E+10	1	-1E+10	1
4901784	130	C	01/25/2019	10:46	-133.181	43.083	0	87.80	0	11.1040	0	33.6300	8	25.692	0	87.084	0	247.9	4	91.5	4	-1E+10	1	-1E+10	1	-1E+10	1	-1E+10	1	-1E+10	1	-1E+10	1
4901784	130	C	01/25/2019	10:46	-133.181	43.083	0	89.30	0	10.8970	0	33.6350	8	25.733	0	88.572	0	248.7	4	91.4	4	-1E+10	1	-1E+10	1	-1E+10	1	-1E+10	1	-1E+10	1	-1E+10	1
4901784	130	C	01/25/2019	10:46	-133.181	43.083	0	90.80	0	10.7860	0	33.6260	8	25.746	0	90.059	0	248.6	4	91.2	4	-1E+10	1	-1E+10	1	-1E+10	1	-1E+10	1	-1E+10	1	-1E+10	1
4901784	130	C	01/25/2019	10:46	-133.181	43.083	0	92.30	0	10.4020	0	33.6360	8	25.821	0	91.546	0	249.4	4	90.7	4	-1E+10	1	-1E+10	1	-1E+10	1	-1E+10	1	-1E+10	1	-1E+10	1
4901784	130	C	01/25/2019	10:46	-133.181	43.083	0	93.90	0	10.2780	0	33.6380	8	25.844	0	93.133	0	249.5	4	90.5	4	-1E+10	1	-1E+10	1	-1E+10	1	-1E+10	1	-1E+10	1	-1E+10	1
4901784	130	C	01/25/2019	10:46	-133.181	43.083	0	95.50	0	10.1780	0	33.6330	8	25.857	0	94.720	0	248.8	4	90.1	4	-1E+10	1	-1E+10	1	-1E+10	1	-1E+10	1	-1E+10	1	-1E+10	1
4901784	130	C	01/25/2019	10:46	-133.181	43.083	0	97.10	0	10.0160	0	33.6390	8	25.889	0	96.306	0	248.0	4	89.5	4	-1E+10	1	-1E+10	1	-1E+10	1	-1E+10	1	-1E+10	1	-1E+10	1
4901784	130	C	01/25/2019	10:46	-133.181	43.083	0	98.70	0	9.4920	0	33.6480	8	25.983	0	97.893	0	249.2	4	88.9	4	-1E+10	1	-1E+10	1	-1E+10	1	-1E+10	1	-1E+10	1	-1E+10	1
4901784	130	C	01/25/2019	10:46	-133.181	43.083	0	102.70	0	8.7430	0	33.6750	8	26.123	0	101.859	0	250.6	4	87.9	4	-1E+10	1	-1E+10	1	-1E+10	1	-1E+10	1	-1E+10	1	-1E+10	1
4901784	130	C	01/25/2019	10:46	-133.181	43.083	0	105.20	0	8.5400	0	33.6830	8	26.160	0	104.338	0	250.5	4	87.5	4	-1E+10	1	-1E+10	1	-1E+10	1	-1E+10	1	-1E+10	1	-1E+10	1
4901784	130	C	01/25/2019	10:46	-133.181	43.083	0	107.40	0	8.3410	0	33.7180	8	26.218	0	106.519	0	249.8	4	86.9	4	-1E+10	1	-1E+10	1	-1E+10	1	-1E+10	1	-1E+10	1	-1E+10	1
4901784	130	C	01/25/2019	10:46	-133.181	43.083	0	109.60	0	8.2670	0	33.7350	8	26.243	0	108.701	0	249.7	4	86.8	4	-1E+10	1	-1E+10	1	-1E+10	1	-1E+10	1	-1E+10	1	-1E+10	1
4901784	130	C	01/25/2019	10:46	-133.181	43.083	0	112.50	0	8.2390	0	33.7420	8	26.252	0	111.576	0	248.9	4	86.4	4	-1E+10	1	-1E+10	1	-1E+10	1	-1E+10	1	-1E+10	1	-1E+10	1
4901784	130	C	01/25/2019	10:46	-133.181	43.083	0	114.90	0	8.2050	0	33.7530	8	26.266	0	113.956	0	247.6	4	85.9	4	-1E+10	1	-1E+10	1	-1E+10	1	-1E+10	1	-1E+10	1	-1E+10	1
4901784	130	C	01/25/2019	10:46	-133.181	43.083	0	117.40	0	8.1720	0	33.7740	8	26.288	0	116.434	0	246.5	4	85.5	4	-1E+10	1	-1E+10	1	-1E+10	1	-1E+10	1	-1E+10	1	-1E+10	1
4901784	130	C	01/25/2019	10:46	-133.181	43.083	0	119.80	0	8.1720	0	33.8090	8	26.315	0	118.814	0	244.5	4	84.8	4	-1E+10	1	-1E+10	1	-1E+10	1	-1E+10	1	-1E+10	1	-1E+10	1
4901784	130	C	01/25/2019	10:46	-133.181	43.083	0	122.30	0	8.1400	0	33.8740	8	26.371	0	121.293	0	242.8	4	84.2	4	-1E+10	1	-1E+10	1	-1E+10	1	-1E+10	1	-1E+10	1	-1E+10	1
4901784	130	C	01/25/2019	10:46	-133.181	43.083	0	124.80	0	8.0900	0	33.9520	8	26.440	0	123.771	0	241.7	4	83.8	4	-1E+10	1	-1E+10	1	-1E+10	1	-1E+10	1	-1E+10	1	-1E+10	1
4901784	130	C	01/25/2019	10:46	-133.181	43.083	0	127.30	0	8.0670	0	33.9710	8	26.458	0	126.250	0	241.0	4	83.5	4	-1E+10	1	-1E+10	1	-1E+10	1	-1E+10	1	-1E+10	1	-1E+10	1
4901784	130	C	01/25/2019	10:46	-133.181	43.083	0	130.50	0	8.0350	0	33.9930	8	26.480	0	129.423	0	240.0	4	83.1	4	-1E+10	1	-1E+10	1	-1E+10	1	-1E+10	1	-1E+10	1	-1E+10	1
4901784	130	C	01/25/2019	10:46	-133.181	43.083	0	132.80	0	8.0150	0	34.0110	8	26.497	0	131.703	0	239.1	4	82.8	4	-1E+10	1	-1E+10	1	-1E+10	1	-1E+10	1	-1E+10	1	-1E+10	1
4901784	130	C	01/25/2019	10:46	-133.181	43.083	0	135.30	0	7.9910	0	34.0540	8	26.534	0	134.181	0	237.7	4	82.3	4	-1E+10	1	-1E+10	1	-1E+10	1	-1E+10	1	-1E+10	1	-1E+10	1
4901784	130	C	01/25/2019	10:46	-133.181	43.083	0	137.70	0	7.9470	0	34.1130	8	26.587	0	136.561	0	236.5	4	81.8	4	-1E+10	1	-1E+10	1	-1E+10	1	-1E+10	1	-1E+10	1	-1E+10	1
4901784	130	C	01/25/2019	10:46	-133.181	43.083	0	140.30	0	7.9390	0	34.1610	8	26.626	0	139.138	0	235.4	4	81.4	4	-1E+10	1	-1E+10	1	-1E+10	1	-1E+10	1	-1E+10	1	-1E+10	1
4901784	130	C	01/25/2019	10:46	-133.181	43.083	0	142.80	0	7.9300	0	34.2080	8	26.665	0	141.617	0	234.0	4	81.0	4	-1E+10	1	-1E+10	1	-1E+10	1	-1E+10	1	-1E+10	1	-1E+10	1
4901784	130	C	01/25/2019	10:46	-133.181	43.083	0	144.60	0	7.9020	0	34.2220	8	26.680	0	143.401	0	233.3	4	80.7	4	-1E+10	1	-1E+10	1	-1E+10	1	-1E+10	1	-1E+10	1	-1E+10	1
4901784	130	C	01/25/2019	10:46	-133.181	43.083	0	147.20	0	7.9040	0	34.2850	8	26.729	0	145.979	0	232.2	4	80.3	4	-1E+10	1	-1E+10	1	-1E+10	1	-1E+10	1	-1E+10	1	-1E+10	1
4901784	130	C	01/25/2019	10:46	-133.181	43.083	0	149.80	0	7.9010	0	34.3030	8	26.744	0	148.556	0	231.1	4	80.0	4	-1E+10	1	-1E+10	1	-1E+10	1	-1E+10	1	-1E+10	1	-1E+10	1
4901784	130	C	01/25/2019	10:46	-133.181	43.083	0	152.10	0	7.8990	0	34.3080	8	26.748	0	150.836	0	229.9	4	79.5	4	-1E+10	1	-1E+10	1	-1E+10	1	-1E+10	1	-1E+10	1	-1E+10	1
4901784	130	C	01/25/2019	10:46	-133.181	43.083	0	154.60	0	7.8880	0	34.3330	8	26.769	0	153.315	0	227.4	4	78.7	4	-1E+10	1	-1E+10	1	-1E+10	1	-1E+10	1	-1E+10	1	-1E+10	1
4901784	130	C	01/25/2019	10:46	-133.181	43.083	0	157.80	0	7.9130	0	34.4370	8	26.847	0	156.487	0	223.2	4	77.3	4	-1E+10	1	-1E+10	1	-1E+10	1	-1E+10	1	-1E+10	1	-1E+10	1
4901784	130	C	01/25/2019	10:46	-133.181	43.083	0	160.10	0	7.9720	0	34.5610	8	26.936	0	158.767	0	219.7	4	76.3	4	-1E+10	1	-1E+10	1	-1E+10	1	-1E+10	1	-1E+10	1	-1E+10	1
4901784	130	C	01/25/2019	10:46	-133.181	43.083	0	162.50	0	8.0190	0	34.6220	8	26.977	0	161.146	0	217.2	4	75.5	4	-1E+10	1	-1E+10	1	-1E+10	1	-1E+10	1	-1E+10	1	-1E+10	1
4901784	130	C	01/25/2019	10:46	-133.181	43.083	0	165.00	0	8.0660	0	34.6770	8	27.013	0	163.624	0	214.5	4	74.7	4	-1E+10	1	-1E+10	1	-1E+10	1	-1E+10	1	-1E+10	1	-1E+10	1
4901784	130	C	01/25/2019	10:46	-133.181	43.083	0	167.50	0	8.1370	0	34.7510	8	27.061	0	166.102	0	212.2	4	74.1	4	-1E+10	1	-1E+10	1	-1E+10	1	-1E+10	1	-1E+10	1	-1E+10	1
4901784	130	C	01/25/2019	10:46	-133.181	43.083	0	170.10	0	8.1620	0	34.7760	8	27.076	0	168.680	0	210.4	4	73.5	4	-1E+10	1	-1E+10	1	-1E+10	1	-1E+10	1	-1E+10	1	-1E+10	1
4901784	130	C	01/25/2019	10:46	-133.181	43.083	0	172.30	0	8.1820	0	34.7960	8	27.089	0	170.860	0	208.7	4	72.9	4	-1E+10	1	-1E+10	1	-1E+10	1	-1E+10	1	-1E+10	1	-1E+10	1
4901784	130	C	01/25/2019	10:46	-133.181	43.083	0	174.80	0	8.2310	0	34.8440	8	27.119	0	173.338	0	206.2	4	72.2	4	-1E+10	1	-1E+10	1	-1E+10	1	-1E+10	1	-1E+10	1	-1E+10	1
4901784	130	C	01/25/2019	10:46	-133.181	43.083	0	177.80	0	8.2650	0	34.8780	8	27.141	0	176.312	0	204.0	4	71.4	4	-1E+10	1	-1E+10	1	-1E+10	1	-1E+10	1	-1E+10	1	-1E+10	1
4901784	130	C	01/25/2019	10:46	-133.181	43.083	0	180.10	0	8.2820	0	34.8940	8	27.151	0	178.592	0	201.9	4	70.8	4	-1E+10	1	-1E+10	1	-1E+10	1	-1E+10	1	-1E+10	1	-1E+10	1
4901784	130	C	01/25/2019	10:46	-133.181	43.083	0	182.50	0	8.3070	0	34.9260	8	27.172	0	180.971	0	199.7	4	70.1	4	-1E+10	1	-1E+10	1	-1E+10	1	-1E+10	1	-1E+10	1	-1E+10	1
4901784	130	C	01/25/2019	10:46	-133.181	43.083	0	184.80	0	8.3320	0	34.9510	8	27.188	0	183.250	0	198.2	4	69.6	4	-1E+10	1	-1E+10	1	-1E+10	1	-1E+10	1	-1E+10	1	-1E+10	1
4901784	130	C	01/25/2019	10:46	-133.181	43.083	0	187.20	0	8.3400	0	34.9580	8	27.192	0	185.629	0	196.6	4	69.0	4	-1E+10	1	-1E+10	1	-1E+10	1	-1E+10	1	-1E+10	1	-1E+10	1
4901784	130	C	01/25/2019	10:46	-133.181	43.083	0	189.70	0	8.3560	0	34.9750	8	27.203	0	188.107	0	194.5	4	68.3	4	-1E+10	1	-1E+10	1	-1E+10	1	-1E+10	1	-1E+10	1	-1E+10	1
4901784	130	C	01/25/2019	10:46	-133.181	43.083	0	192.10	0	8.3800	0	35.0030	8	27.222	0	190.486	0	191.7	4	67.4	4	-1E+10	1	-1E+10	1	-1E+10	1	-1E+10	1	-1E+10	1	-1E+10	1
4901784	130	C	01/25/2019	10:46	-133.181	43.083	0	195.30	0	8.4060	0	35.0390	8	27.246	0	193.657	0	189.1	4	66.5	4	-1E+10	1	-1E+10	1	-1E+10	1	-1E+10	1	-1E+10	1	-1E+10	1
4901784	130	C	01/25/2019	10:46	-133.181	43.083	0	197.60	0	8.4200	0	35.0610	8	27.261	0	195.937	0	187.5	4	66.0	4	-1E+10	1	-1E+10	1	-1E+10	1	-1E+10	1	-1E+10	1	-1E+10	1
4901784	130	C	01/25/2019	10:46	-133.181	43.083	0	200.10	0	8.4390	0	35.0740	8	27.268	0	198.415	0	186.0	4	65.5	4	-1E+10	1	-1E+10	1	-1E+10	1	-1E+10	1	-1E+10	1	-1E+10	1
4901784	130	C	01/25/2019	10:46	-133.181	43.083	0	202.50	0	8.4520	0	35.0920	8	27.281	0	200.793	0	184.1	4	64.9	4	-1E+10	1	-1E+10	1	-1E+10	1	-1E+10	1	-1E+10	1	-1E+10	1
4901784	130	C	01/25/2019	10:46	-133.181	43.083	0	205.00	0	8.4490	0	35.1110	8	27.296	0	203.271	0	182.5	4	64.3	4	-1E+10	1	-1E+10	1	-1E+10	1	-1E+10	1	-1E+10	1	-1E+10	1
4901784	130	C	01/25/2019	10:46	-133.181	43.083	0	207.50	0	8.4420	0	35.1260	8	27.309	0	205.749	0	181.4	4	63.9	4	-1E+10	1	-1E+10	1	-1E+10	1	-1E+10	1	-1E+10	1	-1E+10	1
4901784	130	C	01/25/2019	10:46	-133.181	43.083	0	210.00	0	8.4370	0	35.1300	8	27.313	0	208.226	0	180.1	4	63.5	4	-1E+10	1	-1E+10	1	-1E+10	1	-1E+10	1	-1E+10	1	-1E+10	1
4901784	130	C	01/25/2019	10:46	-133.181	43.083	0	212.40	0	8.4280	0	35.1350	8	27.318	0	210.605	0	179.0	4	63.0	4	-1E+10	1	-1E+10	1	-1E+10	1	-1E+10	1	-1E+10	1	-1E+10	1
4901784	130	C	01/25/2019	10:46	-133.181	43.083	0	215.00	0	8.3960	0	35.1450	8	27.331	0	213.181	0	177.8	4	62.6	4	-1E+10	1	-1E+10	1	-1E+10	1	-1E+10	1	-1E+10	1	-1E+10	1
4901784	130	C	01/25/2019	10:46	-133.181	43.083	0	217.50	0	8.3700	0	35.1520	8	27.341	0	215.659	0	177.1	4	62.3	4	-1E+10	1	-1E+10	1	-1E+10	1	-1E+10	1	-1E+10	1	-1E+10	1
4901784	130	C	01/25/2019	10:46	-133.181	43.083	0	220.00	0	8.3660	0	35.1520	8	27.341	0	218.137	0	176.4	4	62.0	4	-1E+10	1	-1E+10	1	-1E+10	1	-1E+10	1	-1E+10	1	-1E+10	1
4901784	130	C	01/25/2019	10:46	-133.181	43.083	0	222.50	0	8.3460	0	35.1550	8	27.347	0	220.614	0	175.4	4	61.7	4	-1E+10	1	-1E+10	1	-1E+10	1	-1E+10	1	-1E+10	1	-1E+10	1
4901784	130	C	01/25/2019	10:46	-133.181	43.083	0	225.10	0	8.3200	0	35.1570	8	27.352	0	223.191	0	174.1	4	61.2	4	-1E+10	1	-1E+10	1	-1E+10	1	-1E+10	1	-1E+10	1	-1E+10	1
4901784	130	C	01/25/2019	10:46	-133.181	43.083	0	227.60	0	8.2950	0	35.1590	8	27.358	0	225.668	0	172.8	4	60.7	4	-1E+10	1	-1E+10	1	-1E+10	1	-1E+10	1	-1E+10	1	-1E+10	1
4901784	130	C	01/25/2019	10:46	-133.181	43.083	0	230.10	0	8.2440	0	35.1600	8	27.366	0	228.145	0	171.2	4	60.1	4	-1E+10	1	-1E+10	1	-1E+10	1	-1E+10	1	-1E+10	1	-1E+10	1
4901784	130	C	01/25/2019	10:46	-133.181	43.083	0	232.70	0	8.1640	0	35.1630	8	27.381	0	230.722	0	169.9	4	59.5	4	-1E+10	1	-1E+10	1	-1E+10	1	-1E+10	1	-1E+10	1	-1E+10	1
4901784	130	C	01/25/2019	10:46	-133.181	43.083	0	235.30	0	8.1160	0	35.1630	8	27.388	0	233.298	0	169.0	4	59.1	4	-1E+10	1	-1E+10	1	-1E+10	1	-1E+10	1	-1E+10	1	-1E+10	1
4901784	130	C	01/25/2019	10:46	-133.181	43.083	0	237.90	0	8.0800	0	35.1620	8	27.393	0	235.875	0	168.1	4	58.8	4	-1E+10	1	-1E+10	1	-1E+10	1	-1E+10	1	-1E+10	1	-1E+10	1
4901784	130	C	01/25/2019	10:46	-133.181	43.083	0	240.30	0	8.0470	0	35.1620	8	27.398	0	238.253	0	166.8	4	58.3	4	-1E+10	1	-1E+10	1	-1E+10	1	-1E+10	1	-1E+10	1	-1E+10	1
4901784	130	C	01/25/2019	10:46	-133.181	43.083	0	242.90	0	7.9900	0	35.1600	8	27.405	0	240.829	0	165.5	4	57.8	4	-1E+10	1	-1E+10	1	-1E+10	1	-1E+10	1	-1E+10	1	-1E+10	1
4901784	130	C	01/25/2019	10:46	-133.181	43.083	0	245.40	0	7.9340	0	35.1610	8	27.414	0	243.306	0	164.5	4	57.3	4	-1E+10	1	-1E+10	1	-1E+10	1	-1E+10	1	-1E+10	1	-1E+10	1
4901784	130	C	01/25/2019	10:46	-133.181	43.083	0	247.90	0	7.8970	0	35.1610	8	27.420	0	245.784	0	163.3	4	56.9	4	-1E+10	1	-1E+10	1	-1E+10	1	-1E+10	1	-1E+10	1	-1E+10	1
4901784	130	C	01/25/2019	10:46	-133.181	43.083	0	249.60	0	7.8780	0	35.1580	8	27.420	0	247.468	0	162.6	4	56.6	4	-1E+10	1	-1E+10	1	-1E+10	1	-1E+10	1	-1E+10	1	-1E+10	1
4901784	130	C	01/25/2019	10:46	-133.181	43.083	0	252.20	0	7.8150	0	35.1580	8	27.430	0	250.044	0	161.4	4	56.1	4	-1E+10	1	-1E+10	1	-1E+10	1	-1E+10	1	-1E+10	1	-1E+10	1
4901784	130	C	01/25/2019	10:46	-133.181	43.083	0	254.80	0	7.7550	0	35.1600	8	27.440	0	252.621	0	160.5	4	55.7	4	-1E+10	1	-1E+10	1	-1E+10	1	-1E+10	1	-1E+10	1	-1E+10	1
4901784	130	C	01/25/2019	10:46	-133.181	43.083	0	257.50	0	7.7400	0	35.1590	8	27.442	0	255.296	0	159.8	4	55.4	4	-1E+10	1	-1E+10	1	-1E+10	1	-1E+10	1	-1E+10	1	-1E+10	1
4901784	130	C	01/25/2019	10:46	-133.181	43.083	0	260.10	0	7.7190	0	35.1580	8	27.444	0	257.872	0	158.7	4	55.0	4	-1E+10	1	-1E+10	1	-1E+10	1	-1E+10	1	-1E+10	1	-1E+10	1
4901784	130	C	01/25/2019	10:46	-133.181	43.083	0	262.70	0	7.6850	0	35.1570	8	27.448	0	260.448	0	157.7	4	54.6	4	-1E+10	1	-1E+10	1	-1E+10	1	-1E+10	1	-1E+10	1	-1E+10	1
4901784	130	C	01/25/2019	10:46	-133.181	43.083	0	265.30	0	7.6550	0	35.1560	8	27.452	0	263.024	0	156.5	4	54.2	4	-1E+10	1	-1E+10	1	-1E+10	1	-1E+10	1	-1E+10	1	-1E+10	1
4901784	130	C	01/25/2019	10:46	-133.181	43.083	0	267.10	0	7.6390	0	35.1550	8	27.454	0	264.807	0	155.4	4	53.8	4	-1E+10	1	-1E+10	1	-1E+10	1	-1E+10	1	-1E+10	1	-1E+10	1
4901784	130	C	01/25/2019	10:46	-133.181	43.083	0	269.80	0	7.5700	0	35.1550	8	27.464	0	267.483	0	153.8	4	53.2	4	-1E+10	1	-1E+10	1	-1E+10	1	-1E+10	1	-1E+10	1	-1E+10	1
4901784	130	C	01/25/2019	10:46	-133.181	43.083	0	272.40	0	7.5110	0	35.1550	8	27.472	0	270.059	0	152.5	4	52.6	4	-1E+10	1	-1E+10	1	-1E+10	1	-1E+10	1	-1E+10	1	-1E+10	1
4901784	130	C	01/25/2019	10:46	-133.181	43.083	0	275.20	0	7.4770	0	35.1530	8	27.476	0	272.833	0	151.2	4	52.2	4	-1E+10	1	-1E+10	1	-1E+10	1	-1E+10	1	-1E+10	1	-1E+10	1
4901784	130	C	01/25/2019	10:46	-133.181	43.083	0	277.90	0	7.4480	0	35.1520	8	27.479	0	275.508	0	149.8	4	51.6	4	-1E+10	1	-1E+10	1	-1E+10	1	-1E+10	1	-1E+10	1	-1E+10	1
4901784	130	C	01/25/2019	10:46	-133.181	43.083	0	279.80	0	7.3980	0	35.1540	8	27.488	0	277.390	0	148.7	4	51.2	4	-1E+10	1	-1E+10	1	-1E+10	1	-1E+10	1	-1E+10	1	-1E+10	1
4901784	130	C	01/25/2019	10:46	-133.181	43.083	0	282.60	0	7.3590	0	35.1530	8	27.493	0	280.164	0	147.4	4	50.7	4	-1E+10	1	-1E+10	1	-1E+10	1	-1E+10	1	-1E+10	1	-1E+10	1
4901784	130	C	01/25/2019	10:46	-133.181	43.083	0	285.40	0	7.3080	0	35.1530	8	27.500	0	282.938	0	146.2	4	50.2	4	-1E+10	1	-1E+10	1	-1E+10	1	-1E+10	1	-1E+10	1	-1E+10	1
4901784	130	C	01/25/2019	10:46	-133.181	43.083	0	287.20	0	7.2860	0	35.1530	8	27.503	0	284.721	0	145.3	4	49.9	4	-1E+10	1	-1E+10	1	-1E+10	1	-1E+10	1	-1E+10	1	-1E+10	1
4901784	130	C	01/25/2019	10:46	-133.181	43.083	0	290.00	0	7.2560	0	35.1530	8	27.507	0	287.495	0	143.9	4	49.4	4	-1E+10	1	-1E+10	1	-1E+10	1	-1E+10	1	-1E+10	1	-1E+10	1
4901784	130	C	01/25/2019	10:46	-133.181	43.083	0	292.90	0	7.2460	0	35.1490	8	27.506	0	290.368	0	142.4	4	48.8	4	-1E+10	1	-1E+10	1	-1E+10	1	-1E+10	1	-1E+10	1	-1E+10	1
4901784	130	C	01/25/2019	10:46	-133.181	43.083	0	294.70	0	7.1900	0	35.1510	8	27.515	0	292.151	0	141.0	4	48.3	4	-1E+10	1	-1E+10	1	-1E+10	1	-1E+10	1	-1E+10	1	-1E+10	1
4901784	130	C	01/25/2019	10:46	-133.181	43.083	0	297.50	0	7.1140	0	35.1530	8	27.528	0	294.925	0	139.7	4	47.8	4	-1E+10	1	-1E+10	1	-1E+10	1	-1E+10	1	-1E+10	1	-1E+10	1
4901784	130	C	01/25/2019	10:46	-133.181	43.083	0	300.30	0	7.1010	0	35.1530	8	27.530	0	297.699	0	138.4	4	47.3	4	-1E+10	1	-1E+10	1	-1E+10	1	-1E+10	1	-1E+10	1	-1E+10	1
4901784	130	C	01/25/2019	10:46	-133.181	43.083	0	302.10	0	7.0760	0	35.1530	8	27.533	0	299.482	0	137.5	4	47.0	4	-1E+10	1	-1E+10	1	-1E+10	1	-1E+10	1	-1E+10	1	-1E+10	1
4901784	130	C	01/25/2019	10:46	-133.181	43.083	0	305.00	0	7.0420	0	35.1510	8	27.536	0	302.354	0	135.8	4	46.4	4	-1E+10	1	-1E+10	1	-1E+10	1	-1E+10	1	-1E+10	1	-1E+10	1
4901784	130	C	01/25/2019	10:46	-133.181	43.083	0	307.80	0	6.9500	0	35.1550	8	27.552	0	305.128	0	134.1	4	45.7	4	-1E+10	1	-1E+10	1	-1E+10	1	-1E+10	1	-1E+10	1	-1E+10	1
4901784	130	C	01/25/2019	10:46	-133.181	43.083	0	309.70	0	6.9130	0	35.1540	8	27.557	0	307.010	0	133.2	4	45.3	4	-1E+10	1	-1E+10	1	-1E+10	1	-1E+10	1	-1E+10	1	-1E+10	1
4901784	130	C	01/25/2019	10:46	-133.181	43.083	0	312.60	0	6.8810	0	35.1540	8	27.561	0	309.883	0	131.8	4	44.9	4	-1E+10	1	-1E+10	1	-1E+10	1	-1E+10	1	-1E+10	1	-1E+10	1
4901784	130	C	01/25/2019	10:46	-133.181	43.083	0	315.40	0	6.8380	0	35.1530	8	27.566	0	312.656	0	130.0	4	44.2	4	-1E+10	1	-1E+10	1	-1E+10	1	-1E+10	1	-1E+10	1	-1E+10	1
4901784	130	C	01/25/2019	10:46	-133.181	43.083	0	317.40	0	6.7960	0	35.1540	8	27.573	0	314.638	0	128.7	4	43.7	4	-1E+10	1	-1E+10	1	-1E+10	1	-1E+10	1	-1E+10	1	-1E+10	1
4901784	130	C	01/25/2019	10:46	-133.181	43.083	0	320.20	0	6.7390	0	35.1540	8	27.581	0	317.411	0	127.2	4	43.1	4	-1E+10	1	-1E+10	1	-1E+10	1	-1E+10	1	-1E+10	1	-1E+10	1
4901784	130	C	01/25/2019	10:46	-133.181	43.083	0	323.00	0	6.6730	0	35.1550	8	27.590	0	320.184	0	125.8	4	42.6	4	-1E+10	1	-1E+10	1	-1E+10	1	-1E+10	1	-1E+10	1	-1E+10	1
4901784	130	C	01/25/2019	10:46	-133.181	43.083	0	324.90	0	6.6510	0	35.1560	8	27.594	0	322.066	0	125.1	4	42.4	4	-1E+10	1	-1E+10	1	-1E+10	1	-1E+10	1	-1E+10	1	-1E+10	1
4901784	130	C	01/25/2019	10:46	-133.181	43.083	0	327.80	0	6.6250	0	35.1540	8	27.596	0	324.939	0	123.9	4	41.9	4	-1E+10	1	-1E+10	1	-1E+10	1	-1E+10	1	-1E+10	1	-1E+10	1
4901784	130	C	01/25/2019	10:46	-133.181	43.083	0	330.60	0	6.5900	0	35.1540	8	27.601	0	327.712	0	122.6	4	41.4	4	-1E+10	1	-1E+10	1	-1E+10	1	-1E+10	1	-1E+10	1	-1E+10	1
4901784	130	C	01/25/2019	10:46	-133.181	43.083	0	332.60	0	6.5710	0	35.1540	8	27.604	0	329.693	0	121.6	4	41.1	4	-1E+10	1	-1E+10	1	-1E+10	1	-1E+10	1	-1E+10	1	-1E+10	1
4901784	130	C	01/25/2019	10:46	-133.181	43.083	0	334.50	0	6.5250	0	35.1530	8	27.609	0	331.575	0	120.4	4	40.6	4	-1E+10	1	-1E+10	1	-1E+10	1	-1E+10	1	-1E+10	1	-1E+10	1
4901784	130	C	01/25/2019	10:46	-133.181	43.083	0	337.40	0	6.4650	0	35.1520	8	27.616	0	334.447	0	118.9	4	40.1	4	-1E+10	1	-1E+10	1	-1E+10	1	-1E+10	1	-1E+10	1	-1E+10	1
4901784	130	C	01/25/2019	10:46	-133.181	43.083	0	340.40	0	6.4030	0	35.1520	8	27.624	0	337.419	0	117.5	4	39.6	4	-1E+10	1	-1E+10	1	-1E+10	1	-1E+10	1	-1E+10	1	-1E+10	1
4901784	130	C	01/25/2019	10:46	-133.181	43.083	0	342.30	0	6.3770	0	35.1520	8	27.628	0	339.300	0	116.6	4	39.2	4	-1E+10	1	-1E+10	1	-1E+10	1	-1E+10	1	-1E+10	1	-1E+10	1
4901784	130	C	01/25/2019	10:46	-133.181	43.083	0	345.20	0	6.3160	0	35.1530	8	27.637	0	342.173	0	115.3	4	38.7	4	-1E+10	1	-1E+10	1	-1E+10	1	-1E+10	1	-1E+10	1	-1E+10	1
4901784	130	C	01/25/2019	10:46	-133.181	43.083	0	348.00	0	6.2610	0	35.1540	8	27.645	0	344.946	0	114.2	4	38.3	4	-1E+10	1	-1E+10	1	-1E+10	1	-1E+10	1	-1E+10	1	-1E+10	1
4901784	130	C	01/25/2019	10:46	-133.181	43.083	0	349.90	0	6.2260	0	35.1530	8	27.649	0	346.827	0	113.8	4	38.1	4	-1E+10	1	-1E+10	1	-1E+10	1	-1E+10	1	-1E+10	1	-1E+10	1
4901784	130	C	01/25/2019	10:46	-133.181	43.083	0	352.80	0	6.2100	0	35.1530	8	27.651	0	349.700	0	113.1	4	37.9	4	-1E+10	1	-1E+10	1	-1E+10	1	-1E+10	1	-1E+10	1	-1E+10	1
4901784	130	C	01/25/2019	10:46	-133.181	43.083	0	355.60	0	6.2010	0	35.1520	8	27.651	0	352.473	0	112.2	4	37.6	4	-1E+10	1	-1E+10	1	-1E+10	1	-1E+10	1	-1E+10	1	-1E+10	1
4901784	130	C	01/25/2019	10:46	-133.181	43.083	0	357.60	0	6.1650	0	35.1530	8	27.657	0	354.453	0	111.5	4	37.3	4	-1E+10	1	-1E+10	1	-1E+10	1	-1E+10	1	-1E+10	1	-1E+10	1
4901784	130	C	01/25/2019	10:46	-133.181	43.083	0	359.50	0	6.1470	0	35.1520	8	27.658	0	356.335	0	110.7	4	37.0	4	-1E+10	1	-1E+10	1	-1E+10	1	-1E+10	1	-1E+10	1	-1E+10	1
4901784	130	C	01/25/2019	10:46	-133.181	43.083	0	362.50	0	6.0870	0	35.1530	8	27.667	0	359.306	0	109.6	4	36.6	4	-1E+10	1	-1E+10	1	-1E+10	1	-1E+10	1	-1E+10	1	-1E+10	1
4901784	130	C	01/25/2019	10:46	-133.181	43.083	0	365.00	0	6.0550	0	35.1520	8	27.670	0	361.782	0	108.8	4	36.3	4	-1E+10	1	-1E+10	1	-1E+10	1	-1E+10	1	-1E+10	1	-1E+10	1
4901784	130	C	01/25/2019	10:46	-133.181	43.083	0	367.40	0	6.0300	0	35.1510	8	27.673	0	364.158	0	107.8	4	36.0	4	-1E+10	1	-1E+10	1	-1E+10	1	-1E+10	1	-1E+10	1	-1E+10	1
4901784	130	C	01/25/2019	10:46	-133.181	43.083	0	369.90	0	5.9880	0	35.1510	8	27.678	0	366.634	0	106.7	4	35.6	4	-1E+10	1	-1E+10	1	-1E+10	1	-1E+10	1	-1E+10	1	-1E+10	1
4901784	130	C	01/25/2019	10:46	-133.181	43.083	0	372.30	0	5.9190	0	35.1530	8	27.688	0	369.011	0	105.7	4	35.2	4	-1E+10	1	-1E+10	1	-1E+10	1	-1E+10	1	-1E+10	1	-1E+10	1
4901784	130	C	01/25/2019	10:46	-133.181	43.083	0	374.80	0	5.8990	0	35.1530	8	27.691	0	371.487	0	104.9	4	34.9	4	-1E+10	1	-1E+10	1	-1E+10	1	-1E+10	1	-1E+10	1	-1E+10	1
4901784	130	C	01/25/2019	10:46	-133.181	43.083	0	377.20	0	5.8560	0	35.1490	8	27.693	0	373.863	0	104.2	4	34.6	4	-1E+10	1	-1E+10	1	-1E+10	1	-1E+10	1	-1E+10	1	-1E+10	1
4901784	130	C	01/25/2019	10:46	-133.181	43.083	0	379.60	0	5.8480	0	35.1480	8	27.694	0	376.240	0	103.3	4	34.3	4	-1E+10	1	-1E+10	1	-1E+10	1	-1E+10	1	-1E+10	1	-1E+10	1
4901784	130	C	01/25/2019	10:46	-133.181	43.083	0	382.90	0	5.8080	0	35.1480	8	27.699	0	379.507	0	101.9	4	33.8	4	-1E+10	1	-1E+10	1	-1E+10	1	-1E+10	1	-1E+10	1	-1E+10	1
4901784	130	C	01/25/2019	10:46	-133.181	43.083	0	385.30	0	5.7870	0	35.1460	8	27.700	0	381.884	0	100.7	4	33.4	4	-1E+10	1	-1E+10	1	-1E+10	1	-1E+10	1	-1E+10	1	-1E+10	1
4901784	130	C	01/25/2019	10:46	-133.181	43.083	0	387.70	0	5.7010	0	35.1490	8	27.713	0	384.261	0	99.6	4	33.0	4	-1E+10	1	-1E+10	1	-1E+10	1	-1E+10	1	-1E+10	1	-1E+10	1
4901784	130	C	01/25/2019	10:46	-133.181	43.083	0	390.20	0	5.6690	0	35.1470	8	27.715	0	386.736	0	98.8	4	32.7	4	-1E+10	1	-1E+10	1	-1E+10	1	-1E+10	1	-1E+10	1	-1E+10	1
4901784	130	C	01/25/2019	10:46	-133.181	43.083	0	392.70	0	5.6410	0	35.1490	8	27.720	0	389.211	0	98.1	4	32.4	4	-1E+10	1	-1E+10	1	-1E+10	1	-1E+10	1	-1E+10	1	-1E+10	1
4901784	130	C	01/25/2019	10:46	-133.181	43.083	0	395.20	0	5.6220	0	35.1490	8	27.723	0	391.687	0	97.2	4	32.1	4	-1E+10	1	-1E+10	1	-1E+10	1	-1E+10	1	-1E+10	1	-1E+10	1
4901784	130	C	01/25/2019	10:46	-133.181	43.083	0	397.70	0	5.5720	0	35.1500	8	27.730	0	394.162	0	96.5	4	31.8	4	-1E+10	1	-1E+10	1	-1E+10	1	-1E+10	1	-1E+10	1	-1E+10	1
4901784	130	C	01/25/2019	10:46	-133.181	43.083	0	400.10	0	5.5470	0	35.1510	8	27.734	0	396.539	0	95.9	4	31.6	4	-1E+10	1	-1E+10	1	-1E+10	1	-1E+10	1	-1E+10	1	-1E+10	1
4901784	130	C	01/25/2019	10:46	-133.181	43.083	0	402.60	0	5.5300	0	35.1510	8	27.736	0	399.014	0	95.1	4	31.4	4	-1E+10	1	-1E+10	1	-1E+10	1	-1E+10	1	-1E+10	1	-1E+10	1
4901784	130	C	01/25/2019	10:46	-133.181	43.083	0	405.10	0	5.4660	0	35.1510	8	27.744	0	401.489	0	94.3	4	31.1	4	-1E+10	1	-1E+10	1	-1E+10	1	-1E+10	1	-1E+10	1	-1E+10	1
4901784	130	C	01/25/2019	10:46	-133.181	43.083	0	407.70	0	5.4500	0	35.1510	8	27.745	0	404.064	0	93.7	4	30.9	4	-1E+10	1	-1E+10	1	-1E+10	1	-1E+10	1	-1E+10	1	-1E+10	1
4901784	130	C	01/25/2019	10:46	-133.181	43.083	0	410.20	0	5.4610	0	35.1550	8	27.747	0	406.539	0	93.1	4	30.6	4	-1E+10	1	-1E+10	1	-1E+10	1	-1E+10	1	-1E+10	1	-1E+10	1
4901784	130	C	01/25/2019	10:46	-133.181	43.083	0	412.80	0	5.4290	0	35.1550	8	27.751	0	409.113	0	91.8	4	30.2	4	-1E+10	1	-1E+10	1	-1E+10	1	-1E+10	1	-1E+10	1	-1E+10	1
4901784	130	C	01/25/2019	10:46	-133.181	43.083	0	415.40	0	5.3710	0	35.1520	8	27.756	0	411.687	0	90.7	4	29.8	4	-1E+10	1	-1E+10	1	-1E+10	1	-1E+10	1	-1E+10	1	-1E+10	1
4901784	130	C	01/25/2019	10:46	-133.181	43.083	0	417.10	0	5.3400	0	35.1540	8	27.761	0	413.370	0	90.1	4	29.6	4	-1E+10	1	-1E+10	1	-1E+10	1	-1E+10	1	-1E+10	1	-1E+10	1
4901784	130	C	01/25/2019	10:46	-133.181	43.083	0	419.70	0	5.3160	0	35.1570	8	27.767	0	415.945	0	89.1	4	29.2	4	-1E+10	1	-1E+10	1	-1E+10	1	-1E+10	1	-1E+10	1	-1E+10	1
4901784	130	C	01/25/2019	10:46	-133.181	43.083	0	422.30	0	5.3030	0	35.1600	8	27.771	0	418.519	0	88.1	4	28.9	4	-1E+10	1	-1E+10	1	-1E+10	1	-1E+10	1	-1E+10	1	-1E+10	1
4901784	130	C	01/25/2019	10:46	-133.181	43.083	0	424.80	0	5.2510	0	35.1600	8	27.777	0	420.994	0	87.1	4	28.5	4	-1E+10	1	-1E+10	1	-1E+10	1	-1E+10	1	-1E+10	1	-1E+10	1
4901784	130	C	01/25/2019	10:46	-133.181	43.083	0	427.40	0	5.2190	0	35.1620	8	27.782	0	423.568	0	86.5	4	28.3	4	-1E+10	1	-1E+10	1	-1E+10	1	-1E+10	1	-1E+10	1	-1E+10	1
4901784	130	C	01/25/2019	10:46	-133.181	43.083	0	430.00	0	5.2200	0	35.1630	8	27.783	0	426.142	0	85.7	4	28.1	4	-1E+10	1	-1E+10	1	-1E+10	1	-1E+10	1	-1E+10	1	-1E+10	1
4901784	130	C	01/25/2019	10:46	-133.181	43.083	0	432.60	0	5.2050	0	35.1650	8	27.786	0	428.716	0	84.7	4	27.7	4	-1E+10	1	-1E+10	1	-1E+10	1	-1E+10	1	-1E+10	1	-1E+10	1
4901784	130	C	01/25/2019	10:46	-133.181	43.083	0	435.30	0	5.1810	0	35.1670	8	27.791	0	431.389	0	83.6	4	27.4	4	-1E+10	1	-1E+10	1	-1E+10	1	-1E+10	1	-1E+10	1	-1E+10	1
4901784	130	C	01/25/2019	10:46	-133.181	43.083	0	437.90	0	5.1370	0	35.1650	8	27.794	0	433.963	0	82.4	4	26.9	4	-1E+10	1	-1E+10	1	-1E+10	1	-1E+10	1	-1E+10	1	-1E+10	1
4901784	130	C	01/25/2019	10:46	-133.181	43.083	0	439.70	0	5.1220	0	35.1670	8	27.798	0	435.745	0	81.8	4	26.7	4	-1E+10	1	-1E+10	1	-1E+10	1	-1E+10	1	-1E+10	1	-1E+10	1
4901784	130	C	01/25/2019	10:46	-133.181	43.083	0	442.40	0	5.1020	0	35.1670	8	27.800	0	438.417	0	80.7	4	26.4	4	-1E+10	1	-1E+10	1	-1E+10	1	-1E+10	1	-1E+10	1	-1E+10	1
4901784	130	C	01/25/2019	10:46	-133.181	43.083	0	445.10	0	5.0880	0	35.1680	8	27.803	0	441.090	0	79.8	4	26.1	4	-1E+10	1	-1E+10	1	-1E+10	1	-1E+10	1	-1E+10	1	-1E+10	1
4901784	130	C	01/25/2019	10:46	-133.181	43.083	0	447.80	0	5.0580	0	35.1700	8	27.808	0	443.763	0	79.2	4	25.8	4	-1E+10	1	-1E+10	1	-1E+10	1	-1E+10	1	-1E+10	1	-1E+10	1
4901784	130	C	01/25/2019	10:46	-133.181	43.083	0	450.50	0	5.0370	0	35.1720	8	27.812	0	446.436	0	78.4	4	25.6	4	-1E+10	1	-1E+10	1	-1E+10	1	-1E+10	1	-1E+10	1	-1E+10	1
4901784	130	C	01/25/2019	10:46	-133.181	43.083	0	452.30	0	5.0240	0	35.1730	8	27.814	0	448.218	0	78.1	4	25.4	4	-1E+10	1	-1E+10	1	-1E+10	1	-1E+10	1	-1E+10	1	-1E+10	1
4901784	130	C	01/25/2019	10:46	-133.181	43.083	0	455.00	0	5.0080	0	35.1750	8	27.818	0	450.890	0	77.3	4	25.2	4	-1E+10	1	-1E+10	1	-1E+10	1	-1E+10	1	-1E+10	1	-1E+10	1
4901784	130	C	01/25/2019	10:46	-133.181	43.083	0	457.70	0	4.9910	0	35.1780	8	27.822	0	453.563	0	76.4	4	24.9	4	-1E+10	1	-1E+10	1	-1E+10	1	-1E+10	1	-1E+10	1	-1E+10	1
4901784	130	C	01/25/2019	10:46	-133.181	43.083	0	459.50	0	4.9860	0	35.1790	8	27.823	0	455.345	0	75.7	4	24.6	4	-1E+10	1	-1E+10	1	-1E+10	1	-1E+10	1	-1E+10	1	-1E+10	1
4901784	130	C	01/25/2019	10:46	-133.181	43.083	0	462.20	0	4.9750	0	35.1830	8	27.828	0	458.017	0	74.5	4	24.3	4	-1E+10	1	-1E+10	1	-1E+10	1	-1E+10	1	-1E+10	1	-1E+10	1
4901784	130	C	01/25/2019	10:46	-133.181	43.083	0	465.00	0	4.9760	0	35.1830	8	27.828	0	460.789	0	73.5	4	23.9	4	-1E+10	1	-1E+10	1	-1E+10	1	-1E+10	1	-1E+10	1	-1E+10	1
4901784	130	C	01/25/2019	10:46	-133.181	43.083	0	467.80	0	4.9440	0	35.1890	8	27.836	0	463.560	0	72.7	4	23.7	4	-1E+10	1	-1E+10	1	-1E+10	1	-1E+10	1	-1E+10	1	-1E+10	1
4901784	130	C	01/25/2019	10:46	-133.181	43.083	0	470.60	0	4.9300	0	35.1890	8	27.838	0	466.332	0	72.0	4	23.4	4	-1E+10	1	-1E+10	1	-1E+10	1	-1E+10	1	-1E+10	1	-1E+10	1
4901784	130	C	01/25/2019	10:46	-133.181	43.083	0	472.40	0	4.9170	0	35.1920	8	27.842	0	468.114	0	71.5	4	23.3	4	-1E+10	1	-1E+10	1	-1E+10	1	-1E+10	1	-1E+10	1	-1E+10	1
4901784	130	C	01/25/2019	10:46	-133.181	43.083	0	475.20	0	4.9050	0	35.1940	8	27.845	0	470.885	0	70.5	4	22.9	4	-1E+10	1	-1E+10	1	-1E+10	1	-1E+10	1	-1E+10	1	-1E+10	1
4901784	130	C	01/25/2019	10:46	-133.181	43.083	0	478.00	0	4.8910	0	35.1980	8	27.850	0	473.656	0	69.3	4	22.5	4	-1E+10	1	-1E+10	1	-1E+10	1	-1E+10	1	-1E+10	1	-1E+10	1
4901784	130	C	01/25/2019	10:46	-133.181	43.083	0	479.90	0	4.8880	0	35.1980	8	27.850	0	475.537	0	68.7	4	22.3	4	-1E+10	1	-1E+10	1	-1E+10	1	-1E+10	1	-1E+10	1	-1E+10	1
4901784	130	C	01/25/2019	10:46	-133.181	43.083	0	482.70	0	4.8670	0	35.2030	8	27.856	0	478.308	0	67.4	4	21.9	4	-1E+10	1	-1E+10	1	-1E+10	1	-1E+10	1	-1E+10	1	-1E+10	1
4901784	130	C	01/25/2019	10:46	-133.181	43.083	0	485.50	0	4.8420	0	35.2090	8	27.864	0	481.080	0	66.3	4	21.5	4	-1E+10	1	-1E+10	1	-1E+10	1	-1E+10	1	-1E+10	1	-1E+10	1
4901784	130	C	01/25/2019	10:46	-133.181	43.083	0	487.40	0	4.8400	0	35.2100	8	27.865	0	482.960	0	65.6	4	21.3	4	-1E+10	1	-1E+10	1	-1E+10	1	-1E+10	1	-1E+10	1	-1E+10	1
4901784	130	C	01/25/2019	10:46	-133.181	43.083	0	490.20	0	4.8330	0	35.2120	8	27.868	0	485.731	0	64.4	4	20.9	4	-1E+10	1	-1E+10	1	-1E+10	1	-1E+10	1	-1E+10	1	-1E+10	1
4901784	130	C	01/25/2019	10:46	-133.181	43.083	0	493.00	0	4.8120	0	35.2200	8	27.876	0	488.502	0	63.3	4	20.5	4	-1E+10	1	-1E+10	1	-1E+10	1	-1E+10	1	-1E+10	1	-1E+10	1
4901784	130	C	01/25/2019	10:46	-133.181	43.083	0	494.90	0	4.8010	0	35.2210	8	27.878	0	490.383	0	63.0	4	20.4	4	-1E+10	1	-1E+10	1	-1E+10	1	-1E+10	1	-1E+10	1	-1E+10	1
4901784	130	C	01/25/2019	10:46	-133.181	43.083	0	497.70	0	4.7820	0	35.2230	8	27.882	0	493.154	0	62.4	4	20.2	4	-1E+10	1	-1E+10	1	-1E+10	1	-1E+10	1	-1E+10	1	-1E+10	1
4901784	130	C	01/25/2019	10:46	-133.181	43.083	0	500.40	0	4.7600	0	35.2260	8	27.887	0	495.826	0	61.5	4	19.9	4	-1E+10	1	-1E+10	1	-1E+10	1	-1E+10	1	-1E+10	1	-1E+10	1
4901784	130	C	01/25/2019	10:46	-133.181	43.083	0	505.10	0	4.7480	0	35.2330	8	27.894	0	500.478	0	60.1	4	19.5	4	-1E+10	1	-1E+10	1	-1E+10	1	-1E+10	1	-1E+10	1	-1E+10	1
4901784	130	C	01/25/2019	10:46	-133.181	43.083	0	509.70	0	4.7220	0	35.2350	8	27.899	0	505.030	0	58.6	4	19.0	4	-1E+10	1	-1E+10	1	-1E+10	1	-1E+10	1	-1E+10	1	-1E+10	1
4901784	130	C	01/25/2019	10:46	-133.181	43.083	0	515.40	0	4.7060	0	35.2440	8	27.908	0	510.671	0	54.6	4	17.7	4	-1E+10	1	-1E+10	1	-1E+10	1	-1E+10	1	-1E+10	1	-1E+10	1
4901784	130	C	01/25/2019	10:46	-133.181	43.083	0	520.00	0	4.7080	0	35.2520	8	27.914	0	515.223	0	52.1	4	16.9	4	-1E+10	1	-1E+10	1	-1E+10	1	-1E+10	1	-1E+10	1	-1E+10	1
4901784	130	C	01/25/2019	10:46	-133.181	43.083	0	524.80	0	4.7010	0	35.2610	8	27.922	0	519.973	0	49.4	4	16.0	4	-1E+10	1	-1E+10	1	-1E+10	1	-1E+10	1	-1E+10	1	-1E+10	1
4901784	130	C	01/25/2019	10:46	-133.181	43.083	0	529.70	0	4.7010	0	35.2660	8	27.926	0	524.821	0	48.0	4	15.5	4	-1E+10	1	-1E+10	1	-1E+10	1	-1E+10	1	-1E+10	1	-1E+10	1
4901784	130	C	01/25/2019	10:46	-133.181	43.083	0	534.50	0	4.6920	0	35.2700	8	27.930	0	529.571	0	46.8	4	15.1	4	-1E+10	1	-1E+10	1	-1E+10	1	-1E+10	1	-1E+10	1	-1E+10	1
4901784	130	C	01/25/2019	10:46	-133.181	43.083	0	540.40	0	4.6660	0	35.2730	8	27.935	0	535.409	0	45.6	4	14.7	4	-1E+10	1	-1E+10	1	-1E+10	1	-1E+10	1	-1E+10	1	-1E+10	1
4901784	130	C	01/25/2019	10:46	-133.181	43.083	0	545.30	0	4.6340	0	35.2770	8	27.942	0	540.257	0	43.8	4	14.2	4	-1E+10	1	-1E+10	1	-1E+10	1	-1E+10	1	-1E+10	1	-1E+10	1
4901784	130	C	01/25/2019	10:46	-133.181	43.083	0	550.20	0	4.6160	0	35.2870	8	27.952	0	545.106	0	41.4	4	13.4	4	-1E+10	1	-1E+10	1	-1E+10	1	-1E+10	1	-1E+10	1	-1E+10	1
4901784	130	C	01/25/2019	10:46	-133.181	43.083	0	555.20	0	4.6100	0	35.2930	8	27.958	0	550.053	0	39.4	4	12.7	4	-1E+10	1	-1E+10	1	-1E+10	1	-1E+10	1	-1E+10	1	-1E+10	1
4901784	130	C	01/25/2019	10:46	-133.181	43.083	0	560.30	0	4.6030	0	35.3020	8	27.966	0	555.099	0	37.8	4	12.2	4	-1E+10	1	-1E+10	1	-1E+10	1	-1E+10	1	-1E+10	1	-1E+10	1
4901784	130	C	01/25/2019	10:46	-133.181	43.083	0	565.20	0	4.5990	0	35.3070	8	27.970	0	559.947	0	36.4	4	11.8	4	-1E+10	1	-1E+10	1	-1E+10	1	-1E+10	1	-1E+10	1	-1E+10	1
4901784	130	C	01/25/2019	10:46	-133.181	43.083	0	570.10	0	4.5950	0	35.3110	8	27.974	0	564.794	0	35.0	4	11.3	4	-1E+10	1	-1E+10	1	-1E+10	1	-1E+10	1	-1E+10	1	-1E+10	1
4901784	130	C	01/25/2019	10:46	-133.181	43.083	0	575.00	0	4.5840	0	35.3180	8	27.981	0	569.642	0	33.6	4	10.9	4	-1E+10	1	-1E+10	1	-1E+10	1	-1E+10	1	-1E+10	1	-1E+10	1
4901784	130	C	01/25/2019	10:46	-133.181	43.083	0	580.00	0	4.5740	0	35.3240	8	27.987	0	574.589	0	32.2	4	10.4	4	-1E+10	1	-1E+10	1	-1E+10	1	-1E+10	1	-1E+10	1	-1E+10	1
4901784	130	C	01/25/2019	10:46	-133.181	43.083	0	585.00	0	4.5610	0	35.3300	8	27.993	0	579.535	0	31.1	4	10.0	4	-1E+10	1	-1E+10	1	-1E+10	1	-1E+10	1	-1E+10	1	-1E+10	1
4901784	130	C	01/25/2019	10:46	-133.181	43.083	0	590.00	0	4.5500	0	35.3360	8	27.999	0	584.481	0	30.2	4	9.7	4	-1E+10	1	-1E+10	1	-1E+10	1	-1E+10	1	-1E+10	1	-1E+10	1
4901784	130	C	01/25/2019	10:46	-133.181	43.083	0	595.10	0	4.5210	0	35.3410	8	28.006	0	589.526	0	29.6	4	9.5	4	-1E+10	1	-1E+10	1	-1E+10	1	-1E+10	1	-1E+10	1	-1E+10	1
4901784	130	C	01/25/2019	10:46	-133.181	43.083	0	599.80	0	4.4880	0	35.3450	8	28.013	0	594.176	0	28.9	4	9.3	4	-1E+10	1	-1E+10	1	-1E+10	1	-1E+10	1	-1E+10	1	-1E+10	1
4901784	130	C	01/25/2019	10:46	-133.181	43.083	0	604.90	0	4.4470	0	35.3490	8	28.021	0	599.221	0	28.4	4	9.1	4	-1E+10	1	-1E+10	1	-1E+10	1	-1E+10	1	-1E+10	1	-1E+10	1
4901784	130	C	01/25/2019	10:46	-133.181	43.083	0	609.90	0	4.4510	0	35.3520	8	28.023	0	604.166	0	27.6	4	8.9	4	-1E+10	1	-1E+10	1	-1E+10	1	-1E+10	1	-1E+10	1	-1E+10	1
4901784	130	C	01/25/2019	10:46	-133.181	43.083	0	615.00	0	4.4320	0	35.3550	8	28.027	0	609.211	0	26.7	4	8.6	4	-1E+10	1	-1E+10	1	-1E+10	1	-1E+10	1	-1E+10	1	-1E+10	1
4901784	130	C	01/25/2019	10:46	-133.181	43.083	0	620.10	0	4.3940	0	35.3630	8	28.038	0	614.255	0	25.7	4	8.3	4	-1E+10	1	-1E+10	1	-1E+10	1	-1E+10	1	-1E+10	1	-1E+10	1
4901784	130	C	01/25/2019	10:46	-133.181	43.083	0	625.30	0	4.3810	0	35.3670	8	28.042	0	619.399	0	24.8	4	8.0	4	-1E+10	1	-1E+10	1	-1E+10	1	-1E+10	1	-1E+10	1	-1E+10	1
4901784	130	C	01/25/2019	10:46	-133.181	43.083	0	630.50	0	4.3610	0	35.3740	8	28.050	0	624.542	0	23.8	4	7.6	4	-1E+10	1	-1E+10	1	-1E+10	1	-1E+10	1	-1E+10	1	-1E+10	1
4901784	130	C	01/25/2019	10:46	-133.181	43.083	0	635.70	0	4.3400	0	35.3830	8	28.060	0	629.685	0	22.8	4	7.3	4	-1E+10	1	-1E+10	1	-1E+10	1	-1E+10	1	-1E+10	1	-1E+10	1
4901784	130	C	01/25/2019	10:46	-133.181	43.083	0	640.10	0	4.3240	0	35.3890	8	28.066	0	634.036	0	22.2	4	7.1	4	-1E+10	1	-1E+10	1	-1E+10	1	-1E+10	1	-1E+10	1	-1E+10	1
4901784	130	C	01/25/2019	10:46	-133.181	43.083	0	644.50	0	4.3100	0	35.3930	8	28.071	0	638.388	0	21.8	4	7.0	4	-1E+10	1	-1E+10	1	-1E+10	1	-1E+10	1	-1E+10	1	-1E+10	1
4901784	130	C	01/25/2019	10:46	-133.181	43.083	0	649.70	0	4.2950	0	35.3970	8	28.076	0	643.531	0	21.2	4	6.8	4	-1E+10	1	-1E+10	1	-1E+10	1	-1E+10	1	-1E+10	1	-1E+10	1
4901784	130	C	01/25/2019	10:46	-133.181	43.083	0	655.10	0	4.2890	0	35.4020	8	28.081	0	648.871	0	20.5	4	6.6	4	-1E+10	1	-1E+10	1	-1E+10	1	-1E+10	1	-1E+10	1	-1E+10	1
4901784	130	C	01/25/2019	10:46	-133.181	43.083	0	660.40	0	4.2710	0	35.4080	8	28.087	0	654.112	0	19.9	4	6.4	4	-1E+10	1	-1E+10	1	-1E+10	1	-1E+10	1	-1E+10	1	-1E+10	1
4901784	130	C	01/25/2019	10:46	-133.181	43.083	0	665.70	0	4.2450	0	35.4140	8	28.095	0	659.353	0	19.5	4	6.3	4	-1E+10	1	-1E+10	1	-1E+10	1	-1E+10	1	-1E+10	1	-1E+10	1
4901784	130	C	01/25/2019	10:46	-133.181	43.083	0	670.10	0	4.2120	0	35.4190	8	28.103	0	663.704	0	19.3	4	6.2	4	-1E+10	1	-1E+10	1	-1E+10	1	-1E+10	1	-1E+10	1	-1E+10	1
4901784	130	C	01/25/2019	10:46	-133.181	43.083	0	674.70	0	4.1990	0	35.4210	8	28.106	0	668.253	0	19.2	4	6.1	4	-1E+10	1	-1E+10	1	-1E+10	1	-1E+10	1	-1E+10	1	-1E+10	1
4901784	130	C	01/25/2019	10:46	-133.181	43.083	0	680.20	0	4.1900	0	35.4240	8	28.109	0	673.692	0	18.8	4	6.0	4	-1E+10	1	-1E+10	1	-1E+10	1	-1E+10	1	-1E+10	1	-1E+10	1
4901784	130	C	01/25/2019	10:46	-133.181	43.083	0	684.80	0	4.1710	0	35.4290	8	28.115	0	678.240	0	18.5	4	5.9	4	-1E+10	1	-1E+10	1	-1E+10	1	-1E+10	1	-1E+10	1	-1E+10	1
4901784	130	C	01/25/2019	10:46	-133.181	43.083	0	689.40	0	4.1570	0	35.4320	8	28.119	0	682.789	0	18.1	4	5.8	4	-1E+10	1	-1E+10	1	-1E+10	1	-1E+10	1	-1E+10	1	-1E+10	1
4901784	130	C	01/25/2019	10:46	-133.181	43.083	0	694.90	0	4.1450	0	35.4400	8	28.127	0	688.227	0	17.6	4	5.6	4	-1E+10	1	-1E+10	1	-1E+10	1	-1E+10	1	-1E+10	1	-1E+10	1
4901784	130	C	01/25/2019	10:46	-133.181	43.083	0	700.50	0	4.1430	0	35.4420	8	28.129	0	693.764	0	17.1	4	5.5	4	-1E+10	1	-1E+10	1	-1E+10	1	-1E+10	1	-1E+10	1	-1E+10	1
4901784	130	C	01/25/2019	10:46	-133.181	43.083	0	705.10	0	4.1350	0	35.4480	8	28.134	0	698.312	0	16.5	4	5.3	4	-1E+10	1	-1E+10	1	-1E+10	1	-1E+10	1	-1E+10	1	-1E+10	1
4901784	130	C	01/25/2019	10:46	-133.181	43.083	0	709.80	0	4.1290	0	35.4550	8	28.140	0	702.959	0	16.0	4	5.1	4	-1E+10	1	-1E+10	1	-1E+10	1	-1E+10	1	-1E+10	1	-1E+10	1
4901784	130	C	01/25/2019	10:46	-133.181	43.083	0	715.50	0	4.1200	0	35.4600	8	28.145	0	708.594	0	15.5	4	5.0	4	-1E+10	1	-1E+10	1	-1E+10	1	-1E+10	1	-1E+10	1	-1E+10	1
4901784	130	C	01/25/2019	10:46	-133.181	43.083	0	720.20	0	4.1080	0	35.4650	8	28.151	0	713.241	0	15.1	4	4.8	4	-1E+10	1	-1E+10	1	-1E+10	1	-1E+10	1	-1E+10	1	-1E+10	1
4901784	130	C	01/25/2019	10:46	-133.181	43.083	0	724.90	0	4.0930	0	35.4690	8	28.156	0	717.887	0	14.8	4	4.7	4	-1E+10	1	-1E+10	1	-1E+10	1	-1E+10	1	-1E+10	1	-1E+10	1
4901784	130	C	01/25/2019	10:46	-133.181	43.083	0	730.40	0	4.0730	0	35.4750	8	28.162	0	723.324	0	14.4	4	4.6	4	-1E+10	1	-1E+10	1	-1E+10	1	-1E+10	1	-1E+10	1	-1E+10	1
4901784	130	C	01/25/2019	10:46	-133.181	43.083	0	735.30	0	4.0490	0	35.4840	8	28.172	0	728.168	0	14.1	4	4.5	4	-1E+10	1	-1E+10	1	-1E+10	1	-1E+10	1	-1E+10	1	-1E+10	1
4901784	130	C	01/25/2019	10:46	-133.181	43.083	0	739.90	0	4.0280	0	35.4890	8	28.178	0	732.716	0	13.9	4	4.4	4	-1E+10	1	-1E+10	1	-1E+10	1	-1E+10	1	-1E+10	1	-1E+10	1
4901784	130	C	01/25/2019	10:46	-133.181	43.083	0	744.80	0	4.0160	0	35.4910	8	28.181	0	737.559	0	13.8	4	4.4	4	-1E+10	1	-1E+10	1	-1E+10	1	-1E+10	1	-1E+10	1	-1E+10	1
4901784	130	C	01/25/2019	10:46	-133.181	43.083	0	749.70	0	4.0040	0	35.4940	8	28.185	0	742.403	0	13.5	4	4.3	4	-1E+10	1	-1E+10	1	-1E+10	1	-1E+10	1	-1E+10	1	-1E+10	1
4901784	130	C	01/25/2019	10:46	-133.181	43.083	0	754.70	0	3.9890	0	35.5000	8	28.191	0	747.346	0	13.2	4	4.2	4	-1E+10	1	-1E+10	1	-1E+10	1	-1E+10	1	-1E+10	1	-1E+10	1
4901784	130	C	01/25/2019	10:46	-133.181	43.083	0	759.60	0	3.9760	0	35.5050	8	28.197	0	752.189	0	13.0	4	4.2	4	-1E+10	1	-1E+10	1	-1E+10	1	-1E+10	1	-1E+10	1	-1E+10	1
4901784	130	C	01/25/2019	10:46	-133.181	43.083	0	764.50	0	3.9600	0	35.5110	8	28.203	0	757.032	0	12.9	4	4.1	4	-1E+10	1	-1E+10	1	-1E+10	1	-1E+10	1	-1E+10	1	-1E+10	1
4901784	130	C	01/25/2019	10:46	-133.181	43.083	0	769.60	0	3.9450	0	35.5140	8	28.207	0	762.073	0	12.8	4	4.1	4	-1E+10	1	-1E+10	1	-1E+10	1	-1E+10	1	-1E+10	1	-1E+10	1
4901784	130	C	01/25/2019	10:46	-133.181	43.083	0	774.70	0	3.9340	0	35.5160	8	28.210	0	767.114	0	12.7	4	4.0	4	-1E+10	1	-1E+10	1	-1E+10	1	-1E+10	1	-1E+10	1	-1E+10	1
4901784	130	C	01/25/2019	10:46	-133.181	43.083	0	779.80	0	3.9220	0	35.5190	8	28.214	0	772.155	0	12.6	4	4.0	4	-1E+10	1	-1E+10	1	-1E+10	1	-1E+10	1	-1E+10	1	-1E+10	1
4901784	130	C	01/25/2019	10:46	-133.181	43.083	0	785.00	0	3.9170	0	35.5220	8	28.217	0	777.294	0	12.3	4	3.9	4	-1E+10	1	-1E+10	1	-1E+10	1	-1E+10	1	-1E+10	1	-1E+10	1
4901784	130	C	01/25/2019	10:46	-133.181	43.083	0	790.10	0	3.9030	0	35.5290	8	28.224	0	782.334	0	12.1	4	3.9	4	-1E+10	1	-1E+10	1	-1E+10	1	-1E+10	1	-1E+10	1	-1E+10	1
4901784	130	C	01/25/2019	10:46	-133.181	43.083	0	795.20	0	3.8880	0	35.5330	8	28.229	0	787.375	0	12.1	4	3.8	4	-1E+10	1	-1E+10	1	-1E+10	1	-1E+10	1	-1E+10	1	-1E+10	1
4901784	130	C	01/25/2019	10:46	-133.181	43.083	0	800.50	0	3.8770	0	35.5350	8	28.231	0	792.612	0	12.0	4	3.8	4	-1E+10	1	-1E+10	1	-1E+10	1	-1E+10	1	-1E+10	1	-1E+10	1
4901784	130	C	01/25/2019	10:46	-133.181	43.083	0	805.00	0	3.8630	0	35.5380	8	28.235	0	797.059	0	11.9	4	3.8	4	-1E+10	1	-1E+10	1	-1E+10	1	-1E+10	1	-1E+10	1	-1E+10	1
4901784	130	C	01/25/2019	10:46	-133.181	43.083	0	809.50	0	3.8530	0	35.5400	8	28.238	0	801.506	0	11.8	4	3.8	4	-1E+10	1	-1E+10	1	-1E+10	1	-1E+10	1	-1E+10	1	-1E+10	1
4901784	130	C	01/25/2019	10:46	-133.181	43.083	0	814.80	0	3.8480	0	35.5440	8	28.242	0	806.744	0	11.6	4	3.7	4	-1E+10	1	-1E+10	1	-1E+10	1	-1E+10	1	-1E+10	1	-1E+10	1
4901784	130	C	01/25/2019	10:46	-133.181	43.083	0	820.30	0	3.8310	0	35.5500	8	28.248	0	812.179	0	11.5	4	3.7	4	-1E+10	1	-1E+10	1	-1E+10	1	-1E+10	1	-1E+10	1	-1E+10	1
4901784	130	C	01/25/2019	10:46	-133.181	43.083	0	824.90	0	3.8220	0	35.5530	8	28.252	0	816.724	0	11.4	4	3.6	4	-1E+10	1	-1E+10	1	-1E+10	1	-1E+10	1	-1E+10	1	-1E+10	1
4901784	130	C	01/25/2019	10:46	-133.181	43.083	0	829.60	0	3.8150	0	35.5560	8	28.255	0	821.368	0	11.3	4	3.6	4	-1E+10	1	-1E+10	1	-1E+10	1	-1E+10	1	-1E+10	1	-1E+10	1
4901784	130	C	01/25/2019	10:46	-133.181	43.083	0	835.20	0	3.8000	0	35.5600	8	28.260	0	826.902	0	11.2	4	3.6	4	-1E+10	1	-1E+10	1	-1E+10	1	-1E+10	1	-1E+10	1	-1E+10	1
4901784	130	C	01/25/2019	10:46	-133.181	43.083	0	839.90	0	3.7900	0	35.5640	8	28.264	0	831.546	0	11.1	4	3.5	4	-1E+10	1	-1E+10	1	-1E+10	1	-1E+10	1	-1E+10	1	-1E+10	1
4901784	130	C	01/25/2019	10:46	-133.181	43.083	0	845.00	0	3.7840	0	35.5670	8	28.267	0	836.585	0	11.1	4	3.5	4	-1E+10	1	-1E+10	1	-1E+10	1	-1E+10	1	-1E+10	1	-1E+10	1
4901784	130	C	01/25/2019	10:46	-133.181	43.083	0	850.50	0	3.7730	0	35.5700	8	28.270	0	842.019	0	11.0	4	3.5	4	-1E+10	1	-1E+10	1	-1E+10	1	-1E+10	1	-1E+10	1	-1E+10	1
4901784	130	C	01/25/2019	10:46	-133.181	43.083	0	855.30	0	3.7600	0	35.5740	8	28.275	0	846.761	0	10.9	4	3.5	4	-1E+10	1	-1E+10	1	-1E+10	1	-1E+10	1	-1E+10	1	-1E+10	1
4901784	130	C	01/25/2019	10:46	-133.181	43.083	0	860.10	0	3.7520	0	35.5770	8	28.278	0	851.504	0	10.8	4	3.4	4	-1E+10	1	-1E+10	1	-1E+10	1	-1E+10	1	-1E+10	1	-1E+10	1
4901784	130	C	01/25/2019	10:46	-133.181	43.083	0	865.00	0	3.7440	0	35.5810	8	28.282	0	856.345	0	10.8	4	3.4	4	-1E+10	1	-1E+10	1	-1E+10	1	-1E+10	1	-1E+10	1	-1E+10	1
4901784	130	C	01/25/2019	10:46	-133.181	43.083	0	870.00	0	3.7430	0	35.5820	8	28.283	0	861.284	0	10.8	4	3.4	4	-1E+10	1	-1E+10	1	-1E+10	1	-1E+10	1	-1E+10	1	-1E+10	1
4901784	130	C	01/25/2019	10:46	-133.181	43.083	0	875.00	0	3.7360	0	35.5850	8	28.286	0	866.224	0	10.7	4	3.4	4	-1E+10	1	-1E+10	1	-1E+10	1	-1E+10	1	-1E+10	1	-1E+10	1
4901784	130	C	01/25/2019	10:46	-133.181	43.083	0	880.00	0	3.7290	0	35.5880	8	28.289	0	871.163	0	10.6	4	3.4	4	-1E+10	1	-1E+10	1	-1E+10	1	-1E+10	1	-1E+10	1	-1E+10	1
4901784	130	C	01/25/2019	10:46	-133.181	43.083	0	885.20	0	3.7200	0	35.5910	8	28.293	0	876.300	0	10.6	4	3.3	4	-1E+10	1	-1E+10	1	-1E+10	1	-1E+10	1	-1E+10	1	-1E+10	1
4901784	130	C	01/25/2019	10:46	-133.181	43.083	0	890.20	0	3.7080	0	35.5960	8	28.298	0	881.239	0	10.5	4	3.3	4	-1E+10	1	-1E+10	1	-1E+10	1	-1E+10	1	-1E+10	1	-1E+10	1
4901784	130	C	01/25/2019	10:46	-133.181	43.083	0	895.40	0	3.7010	0	35.5990	8	28.301	0	886.376	0	10.4	4	3.3	4	-1E+10	1	-1E+10	1	-1E+10	1	-1E+10	1	-1E+10	1	-1E+10	1
4901784	130	C	01/25/2019	10:46	-133.181	43.083	0	900.50	0	3.6900	0	35.6040	8	28.306	0	891.414	0	10.4	4	3.3	4	-1E+10	1	-1E+10	1	-1E+10	1	-1E+10	1	-1E+10	1	-1E+10	1
4901784	130	C	01/25/2019	10:46	-133.181	43.083	0	905.70	0	3.6810	0	35.6070	8	28.310	0	896.550	0	10.4	4	3.3	4	-1E+10	1	-1E+10	1	-1E+10	1	-1E+10	1	-1E+10	1	-1E+10	1
4901784	130	C	01/25/2019	10:46	-133.181	43.083	0	910.00	0	3.6760	0	35.6100	8	28.313	0	900.798	0	10.4	4	3.3	4	-1E+10	1	-1E+10	1	-1E+10	1	-1E+10	1	-1E+10	1	-1E+10	1
4901784	130	C	01/25/2019	10:46	-133.181	43.083	0	914.40	0	3.6720	0	35.6120	8	28.315	0	905.144	0	10.3	4	3.3	4	-1E+10	1	-1E+10	1	-1E+10	1	-1E+10	1	-1E+10	1	-1E+10	1
4901784	130	C	01/25/2019	10:46	-133.181	43.083	0	919.60	0	3.6690	0	35.6130	8	28.316	0	910.280	0	10.3	4	3.3	4	-1E+10	1	-1E+10	1	-1E+10	1	-1E+10	1	-1E+10	1	-1E+10	1
4901784	130	C	01/25/2019	10:46	-133.181	43.083	0	924.70	0	3.6550	0	35.6160	8	28.320	0	915.317	0	10.3	4	3.3	4	-1E+10	1	-1E+10	1	-1E+10	1	-1E+10	1	-1E+10	1	-1E+10	1
4901784	130	C	01/25/2019	10:46	-133.181	43.083	0	929.90	0	3.6440	0	35.6190	8	28.323	0	920.453	0	10.3	4	3.3	4	-1E+10	1	-1E+10	1	-1E+10	1	-1E+10	1	-1E+10	1	-1E+10	1
4901784	130	C	01/25/2019	10:46	-133.181	43.083	0	935.20	0	3.6350	0	35.6220	8	28.327	0	925.687	0	10.3	4	3.3	4	-1E+10	1	-1E+10	1	-1E+10	1	-1E+10	1	-1E+10	1	-1E+10	1
4901784	130	C	01/25/2019	10:46	-133.181	43.083	0	940.40	0	3.6280	0	35.6260	8	28.330	0	930.823	0	10.3	4	3.3	4	-1E+10	1	-1E+10	1	-1E+10	1	-1E+10	1	-1E+10	1	-1E+10	1
4901784	130	C	01/25/2019	10:46	-133.181	43.083	0	944.90	0	3.6260	0	35.6280	8	28.332	0	935.267	0	10.3	4	3.3	4	-1E+10	1	-1E+10	1	-1E+10	1	-1E+10	1	-1E+10	1	-1E+10	1
4901784	130	C	01/25/2019	10:46	-133.181	43.083	0	949.40	0	3.6170	0	35.6310	8	28.336	0	939.711	0	10.4	4	3.3	4	-1E+10	1	-1E+10	1	-1E+10	1	-1E+10	1	-1E+10	1	-1E+10	1
4901784	130	C	01/25/2019	10:46	-133.181	43.083	0	954.80	0	3.6090	0	35.6330	8	28.338	0	945.043	0	10.3	4	3.3	4	-1E+10	1	-1E+10	1	-1E+10	1	-1E+10	1	-1E+10	1	-1E+10	1
4901784	130	C	01/25/2019	10:46	-133.181	43.083	0	960.20	0	3.6010	0	35.6350	8	28.341	0	950.376	0	10.4	4	3.3	4	-1E+10	1	-1E+10	1	-1E+10	1	-1E+10	1	-1E+10	1	-1E+10	1
4901784	130	C	01/25/2019	10:46	-133.181	43.083	0	965.60	0	3.5870	0	35.6380	8	28.344	0	955.708	0	10.4	4	3.3	4	-1E+10	1	-1E+10	1	-1E+10	1	-1E+10	1	-1E+10	1	-1E+10	1
4901784	130	C	01/25/2019	10:46	-133.181	43.083	0	970.10	0	3.5830	0	35.6410	8	28.347	0	960.152	0	10.4	4	3.3	4	-1E+10	1	-1E+10	1	-1E+10	1	-1E+10	1	-1E+10	1	-1E+10	1
4901784	130	C	01/25/2019	10:46	-133.181	43.083	0	974.60	0	3.5800	0	35.6420	8	28.348	0	964.595	0	10.5	4	3.3	4	-1E+10	1	-1E+10	1	-1E+10	1	-1E+10	1	-1E+10	1	-1E+10	1
4901784	130	C	01/25/2019	10:46	-133.181	43.083	0	980.00	0	3.5650	0	35.6460	8	28.353	0	969.928	0	10.5	4	3.3	4	-1E+10	1	-1E+10	1	-1E+10	1	-1E+10	1	-1E+10	1	-1E+10	1
4901784	130	C	01/25/2019	10:46	-133.181	43.083	0	985.50	0	3.5540	0	35.6490	8	28.357	0	975.358	0	10.5	4	3.3	4	-1E+10	1	-1E+10	1	-1E+10	1	-1E+10	1	-1E+10	1	-1E+10	1
4901784	130	C	01/25/2019	10:46	-133.181	43.083	0	990.10	0	3.5540	0	35.6490	8	28.357	0	979.900	0	10.5	4	3.3	4	-1E+10	1	-1E+10	1	-1E+10	1	-1E+10	1	-1E+10	1	-1E+10	1
4901784	130	C	01/25/2019	10:46	-133.181	43.083	0	994.70	0	3.5400	0	35.6510	8	28.360	0	984.442	0	10.5	4	3.3	4	-1E+10	1	-1E+10	1	-1E+10	1	-1E+10	1	-1E+10	1	-1E+10	1
4901784	130	C	01/25/2019	10:46	-133.181	43.083	0	1000.20	0	3.5250	0	35.6550	8	28.364	0	989.872	0	10.6	4	3.3	4	-1E+10	1	-1E+10	1	-1E+10	1	-1E+10	1	-1E+10	1	-1E+10	1
4901784	130	C	01/25/2019	10:46	-133.181	43.083	0	1004.90	0	3.5080	0	35.6600	8	28.370	0	994.513	0	10.7	4	3.4	4	-1E+10	1	-1E+10	1	-1E+10	1	-1E+10	1	-1E+10	1	-1E+10	1
4901784	130	C	01/25/2019	10:46	-133.181	43.083	0	1009.60	0	3.5000	0	35.6620	8	28.373	0	999.153	0	10.7	4	3.4	4	-1E+10	1	-1E+10	1	-1E+10	1	-1E+10	1	-1E+10	1	-1E+10	1
4901784	130	C	01/25/2019	10:46	-133.181	43.083	0	1015.10	0	3.4860	0	35.6650	8	28.376	0	1004.583	0	10.8	4	3.4	4	-1E+10	1	-1E+10	1	-1E+10	1	-1E+10	1	-1E+10	1	-1E+10	1
4901784	130	C	01/25/2019	10:46	-133.181	43.083	0	1019.80	0	3.4690	0	35.6690	8	28.381	0	1009.223	0	10.8	4	3.4	4	-1E+10	1	-1E+10	1	-1E+10	1	-1E+10	1	-1E+10	1	-1E+10	1
4901784	130	C	01/25/2019	10:46	-133.181	43.083	0	1024.40	0	3.4590	0	35.6710	8	28.384	0	1013.764	0	10.8	4	3.4	4	-1E+10	1	-1E+10	1	-1E+10	1	-1E+10	1	-1E+10	1	-1E+10	1
4901784	130	C	01/25/2019	10:46	-133.181	43.083	0	1030.10	0	3.4520	0	35.6730	8	28.386	0	1019.391	0	10.9	4	3.4	4	-1E+10	1	-1E+10	1	-1E+10	1	-1E+10	1	-1E+10	1	-1E+10	1
4901784	130	C	01/25/2019	10:46	-133.181	43.083	0	1034.80	0	3.4480	0	35.6740	8	28.387	0	1024.031	0	10.9	4	3.4	4	-1E+10	1	-1E+10	1	-1E+10	1	-1E+10	1	-1E+10	1	-1E+10	1
4901784	130	C	01/25/2019	10:46	-133.181	43.083	0	1039.90	0	3.4390	0	35.6770	8	28.391	0	1029.065	0	11.0	4	3.5	4	-1E+10	1	-1E+10	1	-1E+10	1	-1E+10	1	-1E+10	1	-1E+10	1
4901784	130	C	01/25/2019	10:46	-133.181	43.083	0	1045.10	0	3.4340	0	35.6790	8	28.393	0	1034.198	0	11.2	4	3.5	4	-1E+10	1	-1E+10	1	-1E+10	1	-1E+10	1	-1E+10	1	-1E+10	1
4901784	130	C	01/25/2019	10:46	-133.181	43.083	0	1049.90	0	3.4230	0	35.6820	8	28.396	0	1038.936	0	11.2	4	3.5	4	-1E+10	1	-1E+10	1	-1E+10	1	-1E+10	1	-1E+10	1	-1E+10	1
4901784	130	C	01/25/2019	10:46	-133.181	43.083	0	1054.80	0	3.4090	0	35.6860	8	28.401	0	1043.773	0	11.3	4	3.6	4	-1E+10	1	-1E+10	1	-1E+10	1	-1E+10	1	-1E+10	1	-1E+10	1
4901784	130	C	01/25/2019	10:46	-133.181	43.083	0	1059.80	0	3.3960	0	35.6880	8	28.404	0	1048.708	0	11.4	4	3.6	4	-1E+10	1	-1E+10	1	-1E+10	1	-1E+10	1	-1E+10	1	-1E+10	1
4901784	130	C	01/25/2019	10:46	-133.181	43.083	0	1064.70	0	3.3840	0	35.6920	8	28.408	0	1053.544	0	11.5	4	3.6	4	-1E+10	1	-1E+10	1	-1E+10	1	-1E+10	1	-1E+10	1	-1E+10	1
4901784	130	C	01/25/2019	10:46	-133.181	43.083	0	1069.70	0	3.3790	0	35.6930	8	28.410	0	1058.479	0	11.6	4	3.6	4	-1E+10	1	-1E+10	1	-1E+10	1	-1E+10	1	-1E+10	1	-1E+10	1
4901784	130	C	01/25/2019	10:46	-133.181	43.083	0	1074.70	0	3.3740	0	35.6950	8	28.412	0	1063.414	0	11.7	4	3.7	4	-1E+10	1	-1E+10	1	-1E+10	1	-1E+10	1	-1E+10	1	-1E+10	1
4901784	130	C	01/25/2019	10:46	-133.181	43.083	0	1079.70	0	3.3650	0	35.6970	8	28.414	0	1068.349	0	11.7	4	3.7	4	-1E+10	1	-1E+10	1	-1E+10	1	-1E+10	1	-1E+10	1	-1E+10	1
4901784	130	C	01/25/2019	10:46	-133.181	43.083	0	1084.90	0	3.3610	0	35.6980	8	28.416	0	1073.481	0	11.8	4	3.7	4	-1E+10	1	-1E+10	1	-1E+10	1	-1E+10	1	-1E+10	1	-1E+10	1
4901784	130	C	01/25/2019	10:46	-133.181	43.083	0	1090.10	0	3.3510	0	35.7000	8	28.418	0	1078.613	0	11.8	4	3.7	4	-1E+10	1	-1E+10	1	-1E+10	1	-1E+10	1	-1E+10	1	-1E+10	1
4901784	130	C	01/25/2019	10:46	-133.181	43.083	0	1095.20	0	3.3390	0	35.7020	8	28.421	0	1083.646	0	11.9	4	3.7	4	-1E+10	1	-1E+10	1	-1E+10	1	-1E+10	1	-1E+10	1	-1E+10	1
4901784	130	C	01/25/2019	10:46	-133.181	43.083	0	1100.40	0	3.3320	0	35.7040	8	28.423	0	1088.778	0	12.0	4	3.8	4	-1E+10	1	-1E+10	1	-1E+10	1	-1E+10	1	-1E+10	1	-1E+10	1
4901784	130	C	01/25/2019	10:46	-133.181	43.083	0	1104.70	0	3.3230	0	35.7060	8	28.426	0	1093.021	0	12.0	4	3.8	4	-1E+10	1	-1E+10	1	-1E+10	1	-1E+10	1	-1E+10	1	-1E+10	1
4901784	130	C	01/25/2019	10:46	-133.181	43.083	0	1109.50	0	3.3110	0	35.7090	8	28.429	0	1097.758	0	12.1	4	3.8	4	-1E+10	1	-1E+10	1	-1E+10	1	-1E+10	1	-1E+10	1	-1E+10	1
4901784	130	C	01/25/2019	10:46	-133.181	43.083	0	1115.20	0	3.3090	0	35.7090	8	28.430	0	1103.382	0	12.2	4	3.8	4	-1E+10	1	-1E+10	1	-1E+10	1	-1E+10	1	-1E+10	1	-1E+10	1
4901784	130	C	01/25/2019	10:46	-133.181	43.083	0	1120.00	0	3.2980	0	35.7120	8	28.433	0	1108.119	0	12.4	4	3.9	4	-1E+10	1	-1E+10	1	-1E+10	1	-1E+10	1	-1E+10	1	-1E+10	1
4901784	130	C	01/25/2019	10:46	-133.181	43.083	0	1124.70	0	3.2870	0	35.7140	8	28.436	0	1112.757	0	12.5	4	3.9	4	-1E+10	1	-1E+10	1	-1E+10	1	-1E+10	1	-1E+10	1	-1E+10	1
4901784	130	C	01/25/2019	10:46	-133.181	43.083	0	1130.50	0	3.2730	0	35.7160	8	28.439	0	1118.480	0	12.6	4	4.0	4	-1E+10	1	-1E+10	1	-1E+10	1	-1E+10	1	-1E+10	1	-1E+10	1
4901784	130	C	01/25/2019	10:46	-133.181	43.083	0	1135.30	0	3.2610	0	35.7190	8	28.442	0	1123.216	0	12.7	4	4.0	4	-1E+10	1	-1E+10	1	-1E+10	1	-1E+10	1	-1E+10	1	-1E+10	1
4901784	130	C	01/25/2019	10:46	-133.181	43.083	0	1140.20	0	3.2530	0	35.7210	8	28.445	0	1128.050	0	12.8	4	4.0	4	-1E+10	1	-1E+10	1	-1E+10	1	-1E+10	1	-1E+10	1	-1E+10	1
4901784	130	C	01/25/2019	10:46	-133.181	43.083	0	1145.10	0	3.2480	0	35.7220	8	28.446	0	1132.885	0	12.9	4	4.0	4	-1E+10	1	-1E+10	1	-1E+10	1	-1E+10	1	-1E+10	1	-1E+10	1
4901784	130	C	01/25/2019	10:46	-133.181	43.083	0	1149.90	0	3.2370	0	35.7230	8	28.448	0	1137.621	0	13.0	4	4.1	4	-1E+10	1	-1E+10	1	-1E+10	1	-1E+10	1	-1E+10	1	-1E+10	1
4901784	130	C	01/25/2019	10:46	-133.181	43.083	0	1154.80	0	3.2240	0	35.7260	8	28.452	0	1142.455	0	13.2	4	4.1	4	-1E+10	1	-1E+10	1	-1E+10	1	-1E+10	1	-1E+10	1	-1E+10	1
4901784	130	C	01/25/2019	10:46	-133.181	43.083	0	1159.80	0	3.2090	0	35.7280	8	28.455	0	1147.388	0	13.3	4	4.2	4	-1E+10	1	-1E+10	1	-1E+10	1	-1E+10	1	-1E+10	1	-1E+10	1
4901784	130	C	01/25/2019	10:46	-133.181	43.083	0	1164.80	0	3.1970	0	35.7310	8	28.458	0	1152.321	0	13.4	4	4.2	4	-1E+10	1	-1E+10	1	-1E+10	1	-1E+10	1	-1E+10	1	-1E+10	1
4901784	130	C	01/25/2019	10:46	-133.181	43.083	0	1169.80	0	3.1900	0	35.7320	8	28.460	0	1157.254	0	13.5	4	4.2	4	-1E+10	1	-1E+10	1	-1E+10	1	-1E+10	1	-1E+10	1	-1E+10	1
4901784	130	C	01/25/2019	10:46	-133.181	43.083	0	1174.60	0	3.1840	0	35.7330	8	28.461	0	1161.989	0	13.6	4	4.3	4	-1E+10	1	-1E+10	1	-1E+10	1	-1E+10	1	-1E+10	1	-1E+10	1
4901784	130	C	01/25/2019	10:46	-133.181	43.083	0	1179.50	0	3.1720	0	35.7350	8	28.464	0	1166.823	0	13.7	4	4.3	4	-1E+10	1	-1E+10	1	-1E+10	1	-1E+10	1	-1E+10	1	-1E+10	1
4901784	130	C	01/25/2019	10:46	-133.181	43.083	0	1185.50	0	3.1580	0	35.7380	8	28.468	0	1172.741	0	13.9	4	4.3	4	-1E+10	1	-1E+10	1	-1E+10	1	-1E+10	1	-1E+10	1	-1E+10	1
4901784	130	C	01/25/2019	10:46	-133.181	43.083	0	1190.30	0	3.1490	0	35.7400	8	28.470	0	1177.476	0	14.0	4	4.4	4	-1E+10	1	-1E+10	1	-1E+10	1	-1E+10	1	-1E+10	1	-1E+10	1
4901784	130	C	01/25/2019	10:46	-133.181	43.083	0	1195.20	0	3.1420	0	35.7410	8	28.472	0	1182.310	0	14.1	4	4.4	4	-1E+10	1	-1E+10	1	-1E+10	1	-1E+10	1	-1E+10	1	-1E+10	1
4901784	130	C	01/25/2019	10:46	-133.181	43.083	0	1200.20	0	3.1310	0	35.7430	8	28.474	0	1187.242	0	14.3	4	4.5	4	-1E+10	1	-1E+10	1	-1E+10	1	-1E+10	1	-1E+10	1	-1E+10	1
4901784	130	C	01/25/2019	10:46	-133.181	43.083	0	1205.00	0	3.1130	0	35.7460	8	28.479	0	1191.976	0	14.5	4	4.5	4	-1E+10	1	-1E+10	1	-1E+10	1	-1E+10	1	-1E+10	1	-1E+10	1
4901784	130	C	01/25/2019	10:46	-133.181	43.083	0	1209.80	0	3.1040	0	35.7480	8	28.481	0	1196.711	0	14.6	4	4.6	4	-1E+10	1	-1E+10	1	-1E+10	1	-1E+10	1	-1E+10	1	-1E+10	1
4901784	130	C	01/25/2019	10:46	-133.181	43.083	0	1214.60	0	3.0920	0	35.7500	8	28.484	0	1201.445	0	14.8	4	4.6	4	-1E+10	1	-1E+10	1	-1E+10	1	-1E+10	1	-1E+10	1	-1E+10	1
4901784	130	C	01/25/2019	10:46	-133.181	43.083	0	1220.40	0	3.0800	0	35.7520	8	28.487	0	1207.166	0	15.0	4	4.7	4	-1E+10	1	-1E+10	1	-1E+10	1	-1E+10	1	-1E+10	1	-1E+10	1
4901784	130	C	01/25/2019	10:46	-133.181	43.083	0	1225.20	0	3.0690	0	35.7540	8	28.489	0	1211.900	0	15.1	4	4.7	4	-1E+10	1	-1E+10	1	-1E+10	1	-1E+10	1	-1E+10	1	-1E+10	1
4901784	130	C	01/25/2019	10:46	-133.181	43.083	0	1230.00	0	3.0610	0	35.7550	8	28.491	0	1216.634	0	15.2	4	4.8	4	-1E+10	1	-1E+10	1	-1E+10	1	-1E+10	1	-1E+10	1	-1E+10	1
4901784	130	C	01/25/2019	10:46	-133.181	43.083	0	1234.90	0	3.0500	0	35.7570	8	28.493	0	1221.466	0	15.4	4	4.8	4	-1E+10	1	-1E+10	1	-1E+10	1	-1E+10	1	-1E+10	1	-1E+10	1
4901784	130	C	01/25/2019	10:46	-133.181	43.083	0	1239.60	0	3.0390	0	35.7590	8	28.496	0	1226.101	0	15.6	4	4.9	4	-1E+10	1	-1E+10	1	-1E+10	1	-1E+10	1	-1E+10	1	-1E+10	1
4901784	130	C	01/25/2019	10:46	-133.181	43.083	0	1245.00	0	3.0280	0	35.7600	8	28.498	0	1231.427	0	15.8	4	4.9	4	-1E+10	1	-1E+10	1	-1E+10	1	-1E+10	1	-1E+10	1	-1E+10	1
4901784	130	C	01/25/2019	10:46	-133.181	43.083	0	1250.40	0	3.0020	0	35.7640	8	28.504	0	1236.752	0	16.1	4	5.0	4	-1E+10	1	-1E+10	1	-1E+10	1	-1E+10	1	-1E+10	1	-1E+10	1
4901784	130	C	01/25/2019	10:46	-133.181	43.083	0	1255.00	0	2.9930	0	35.7660	8	28.506	0	1241.288	0	16.3	4	5.1	4	-1E+10	1	-1E+10	1	-1E+10	1	-1E+10	1	-1E+10	1	-1E+10	1
4901784	130	C	01/25/2019	10:46	-133.181	43.083	0	1259.50	0	2.9790	0	35.7680	8	28.509	0	1245.726	0	16.5	4	5.2	4	-1E+10	1	-1E+10	1	-1E+10	1	-1E+10	1	-1E+10	1	-1E+10	1
4901784	130	C	01/25/2019	10:46	-133.181	43.083	0	1264.90	0	2.9650	0	35.7710	8	28.513	0	1251.051	0	16.8	4	5.2	4	-1E+10	1	-1E+10	1	-1E+10	1	-1E+10	1	-1E+10	1	-1E+10	1
4901784	130	C	01/25/2019	10:46	-133.181	43.083	0	1270.30	0	2.9540	0	35.7730	8	28.515	0	1256.376	0	16.9	4	5.3	4	-1E+10	1	-1E+10	1	-1E+10	1	-1E+10	1	-1E+10	1	-1E+10	1
4901784	130	C	01/25/2019	10:46	-133.181	43.083	0	1275.00	0	2.9490	0	35.7740	8	28.517	0	1261.010	0	17.0	4	5.3	4	-1E+10	1	-1E+10	1	-1E+10	1	-1E+10	1	-1E+10	1	-1E+10	1
4901784	130	C	01/25/2019	10:46	-133.181	43.083	0	1279.60	0	2.9420	0	35.7750	8	28.518	0	1265.546	0	17.1	4	5.3	4	-1E+10	1	-1E+10	1	-1E+10	1	-1E+10	1	-1E+10	1	-1E+10	1
4901784	130	C	01/25/2019	10:46	-133.181	43.083	0	1285.10	0	2.9310	0	35.7770	8	28.521	0	1270.969	0	17.3	4	5.4	4	-1E+10	1	-1E+10	1	-1E+10	1	-1E+10	1	-1E+10	1	-1E+10	1
4901784	130	C	01/25/2019	10:46	-133.181	43.083	0	1289.80	0	2.9240	0	35.7780	8	28.522	0	1275.603	0	17.5	4	5.4	4	-1E+10	1	-1E+10	1	-1E+10	1	-1E+10	1	-1E+10	1	-1E+10	1
4901784	130	C	01/25/2019	10:46	-133.181	43.083	0	1294.70	0	2.9120	0	35.7800	8	28.525	0	1280.434	0	17.7	4	5.5	4	-1E+10	1	-1E+10	1	-1E+10	1	-1E+10	1	-1E+10	1	-1E+10	1
4901784	130	C	01/25/2019	10:46	-133.181	43.083	0	1299.90	0	2.8960	0	35.7830	8	28.529	0	1285.561	0	18.0	4	5.6	4	-1E+10	1	-1E+10	1	-1E+10	1	-1E+10	1	-1E+10	1	-1E+10	1
4901784	130	C	01/25/2019	10:46	-133.181	43.083	0	1304.80	0	2.8840	0	35.7850	8	28.532	0	1290.392	0	18.2	4	5.7	4	-1E+10	1	-1E+10	1	-1E+10	1	-1E+10	1	-1E+10	1	-1E+10	1
4901784	130	C	01/25/2019	10:46	-133.181	43.083	0	1309.70	0	2.8790	0	35.7860	8	28.533	0	1295.223	0	18.3	4	5.7	4	-1E+10	1	-1E+10	1	-1E+10	1	-1E+10	1	-1E+10	1	-1E+10	1
4901784	130	C	01/25/2019	10:46	-133.181	43.083	0	1314.70	0	2.8750	0	35.7870	8	28.534	0	1300.152	0	18.5	4	5.7	4	-1E+10	1	-1E+10	1	-1E+10	1	-1E+10	1	-1E+10	1	-1E+10	1
4901784	130	C	01/25/2019	10:46	-133.181	43.083	0	1319.60	0	2.8690	0	35.7880	8	28.536	0	1304.983	0	18.7	4	5.8	4	-1E+10	1	-1E+10	1	-1E+10	1	-1E+10	1	-1E+10	1	-1E+10	1
4901784	130	C	01/25/2019	10:46	-133.181	43.083	0	1324.60	0	2.8610	0	35.7900	8	28.538	0	1309.912	0	18.9	4	5.9	4	-1E+10	1	-1E+10	1	-1E+10	1	-1E+10	1	-1E+10	1	-1E+10	1
4901784	130	C	01/25/2019	10:46	-133.181	43.083	0	1329.60	0	2.8460	0	35.7920	8	28.541	0	1314.841	0	19.2	4	6.0	4	-1E+10	1	-1E+10	1	-1E+10	1	-1E+10	1	-1E+10	1	-1E+10	1
4901784	130	C	01/25/2019	10:46	-133.181	43.083	0	1334.60	0	2.8380	0	35.7940	8	28.543	0	1319.769	0	19.5	4	6.1	4	-1E+10	1	-1E+10	1	-1E+10	1	-1E+10	1	-1E+10	1	-1E+10	1
4901784	130	C	01/25/2019	10:46	-133.181	43.083	0	1339.70	0	2.8270	0	35.7960	8	28.546	0	1324.797	0	19.7	4	6.1	4	-1E+10	1	-1E+10	1	-1E+10	1	-1E+10	1	-1E+10	1	-1E+10	1
4901784	130	C	01/25/2019	10:46	-133.181	43.083	0	1344.80	0	2.8150	0	35.7980	8	28.549	0	1329.824	0	19.9	4	6.2	4	-1E+10	1	-1E+10	1	-1E+10	1	-1E+10	1	-1E+10	1	-1E+10	1
4901784	130	C	01/25/2019	10:46	-133.181	43.083	0	1350.10	0	2.8050	0	35.7990	8	28.550	0	1335.048	0	20.1	4	6.2	4	-1E+10	1	-1E+10	1	-1E+10	1	-1E+10	1	-1E+10	1	-1E+10	1
4901784	130	C	01/25/2019	10:46	-133.181	43.083	0	1355.30	0	2.8010	0	35.8000	8	28.552	0	1340.174	0	20.2	4	6.3	4	-1E+10	1	-1E+10	1	-1E+10	1	-1E+10	1	-1E+10	1	-1E+10	1
4901784	130	C	01/25/2019	10:46	-133.181	43.083	0	1360.60	0	2.7970	0	35.8010	8	28.553	0	1345.398	0	20.4	4	6.3	4	-1E+10	1	-1E+10	1	-1E+10	1	-1E+10	1	-1E+10	1	-1E+10	1
4901784	130	C	01/25/2019	10:46	-133.181	43.083	0	1365.00	0	2.7870	0	35.8030	8	28.555	0	1349.734	0	20.7	4	6.4	4	-1E+10	1	-1E+10	1	-1E+10	1	-1E+10	1	-1E+10	1	-1E+10	1
4901784	130	C	01/25/2019	10:46	-133.181	43.083	0	1369.50	0	2.7820	0	35.8040	8	28.557	0	1354.170	0	20.9	4	6.5	4	-1E+10	1	-1E+10	1	-1E+10	1	-1E+10	1	-1E+10	1	-1E+10	1
4901784	130	C	01/25/2019	10:46	-133.181	43.083	0	1374.80	0	2.7700	0	35.8060	8	28.559	0	1359.393	0	21.1	4	6.6	4	-1E+10	1	-1E+10	1	-1E+10	1	-1E+10	1	-1E+10	1	-1E+10	1
4901784	130	C	01/25/2019	10:46	-133.181	43.083	0	1380.30	0	2.7530	0	35.8080	8	28.563	0	1364.814	0	21.2	4	6.6	4	-1E+10	1	-1E+10	1	-1E+10	1	-1E+10	1	-1E+10	1	-1E+10	1
4901784	130	C	01/25/2019	10:46	-133.181	43.083	0	1384.80	0	2.7450	0	35.8090	8	28.564	0	1369.249	0	21.4	4	6.6	4	-1E+10	1	-1E+10	1	-1E+10	1	-1E+10	1	-1E+10	1	-1E+10	1
4901784	130	C	01/25/2019	10:46	-133.181	43.083	0	1389.30	0	2.7380	0	35.8100	8	28.566	0	1373.684	0	21.6	4	6.7	4	-1E+10	1	-1E+10	1	-1E+10	1	-1E+10	1	-1E+10	1	-1E+10	1
4901784	130	C	01/25/2019	10:46	-133.181	43.083	0	1394.60	0	2.7290	0	35.8120	8	28.568	0	1378.907	0	22.0	4	6.8	4	-1E+10	1	-1E+10	1	-1E+10	1	-1E+10	1	-1E+10	1	-1E+10	1
4901784	130	C	01/25/2019	10:46	-133.181	43.083	0	1399.30	0	2.7210	0	35.8140	8	28.570	0	1383.538	0	22.3	4	6.9	4	-1E+10	1	-1E+10	1	-1E+10	1	-1E+10	1	-1E+10	1	-1E+10	1
4901784	130	C	01/25/2019	10:46	-133.181	43.083	0	1404.90	0	2.7090	0	35.8160	8	28.573	0	1389.057	0	22.6	4	7.0	4	-1E+10	1	-1E+10	1	-1E+10	1	-1E+10	1	-1E+10	1	-1E+10	1
4901784	130	C	01/25/2019	10:46	-133.181	43.083	0	1410.70	0	2.6990	0	35.8170	8	28.575	0	1394.772	0	22.7	4	7.0	4	-1E+10	1	-1E+10	1	-1E+10	1	-1E+10	1	-1E+10	1	-1E+10	1
4901784	130	C	01/25/2019	10:46	-133.181	43.083	0	1415.60	0	2.6820	0	35.8190	8	28.578	0	1399.601	0	22.9	4	7.1	4	-1E+10	1	-1E+10	1	-1E+10	1	-1E+10	1	-1E+10	1	-1E+10	1
4901784	130	C	01/25/2019	10:46	-133.181	43.083	0	1420.40	0	2.6750	0	35.8200	8	28.579	0	1404.330	0	23.2	4	7.2	4	-1E+10	1	-1E+10	1	-1E+10	1	-1E+10	1	-1E+10	1	-1E+10	1
4901784	130	C	01/25/2019	10:46	-133.181	43.083	0	1425.30	0	2.6620	0	35.8220	8	28.582	0	1409.159	0	23.6	4	7.3	4	-1E+10	1	-1E+10	1	-1E+10	1	-1E+10	1	-1E+10	1	-1E+10	1
4901784	130	C	01/25/2019	10:46	-133.181	43.083	0	1430.30	0	2.6530	0	35.8240	8	28.585	0	1414.085	0	23.8	4	7.4	4	-1E+10	1	-1E+10	1	-1E+10	1	-1E+10	1	-1E+10	1	-1E+10	1
4901784	130	C	01/25/2019	10:46	-133.181	43.083	0	1435.40	0	2.6480	0	35.8250	8	28.586	0	1419.110	0	24.0	4	7.4	4	-1E+10	1	-1E+10	1	-1E+10	1	-1E+10	1	-1E+10	1	-1E+10	1
4901784	130	C	01/25/2019	10:46	-133.181	43.083	0	1440.50	0	2.6380	0	35.8260	8	28.588	0	1424.135	0	24.2	4	7.5	4	-1E+10	1	-1E+10	1	-1E+10	1	-1E+10	1	-1E+10	1	-1E+10	1
4901784	130	C	01/25/2019	10:46	-133.181	43.083	0	1445.60	0	2.6300	0	35.8270	8	28.589	0	1429.160	0	24.5	4	7.6	4	-1E+10	1	-1E+10	1	-1E+10	1	-1E+10	1	-1E+10	1	-1E+10	1
4901784	130	C	01/25/2019	10:46	-133.181	43.083	0	1450.70	0	2.6220	0	35.8280	8	28.591	0	1434.185	0	24.8	4	7.7	4	-1E+10	1	-1E+10	1	-1E+10	1	-1E+10	1	-1E+10	1	-1E+10	1
4901784	130	C	01/25/2019	10:46	-133.181	43.083	0	1455.00	0	2.6130	0	35.8300	8	28.593	0	1438.421	0	25.2	4	7.8	4	-1E+10	1	-1E+10	1	-1E+10	1	-1E+10	1	-1E+10	1	-1E+10	1
4901784	130	C	01/25/2019	10:46	-133.181	43.083	0	1459.30	0	2.6000	0	35.8320	8	28.596	0	1442.658	0	25.4	4	7.9	4	-1E+10	1	-1E+10	1	-1E+10	1	-1E+10	1	-1E+10	1	-1E+10	1
4901784	130	C	01/25/2019	10:46	-133.181	43.083	0	1464.60	0	2.5840	0	35.8340	8	28.599	0	1447.879	0	25.9	4	8.0	4	-1E+10	1	-1E+10	1	-1E+10	1	-1E+10	1	-1E+10	1	-1E+10	1
4901784	130	C	01/25/2019	10:46	-133.181	43.083	0	1469.90	0	2.5710	0	35.8360	8	28.602	0	1453.100	0	26.1	4	8.1	4	-1E+10	1	-1E+10	1	-1E+10	1	-1E+10	1	-1E+10	1	-1E+10	1
4901784	130	C	01/25/2019	10:46	-133.181	43.083	0	1475.20	0	2.5660	0	35.8370	8	28.603	0	1458.321	0	26.4	4	8.1	4	-1E+10	1	-1E+10	1	-1E+10	1	-1E+10	1	-1E+10	1	-1E+10	1
4901784	130	C	01/25/2019	10:46	-133.181	43.083	0	1480.60	0	2.5580	0	35.8380	8	28.605	0	1463.641	0	26.7	4	8.2	4	-1E+10	1	-1E+10	1	-1E+10	1	-1E+10	1	-1E+10	1	-1E+10	1
4901784	130	C	01/25/2019	10:46	-133.181	43.083	0	1485.10	0	2.5510	0	35.8400	8	28.607	0	1468.074	0	26.9	4	8.3	4	-1E+10	1	-1E+10	1	-1E+10	1	-1E+10	1	-1E+10	1	-1E+10	1
4901784	130	C	01/25/2019	10:46	-133.181	43.083	0	1489.60	0	2.5420	0	35.8410	8	28.608	0	1472.506	0	27.2	4	8.4	4	-1E+10	1	-1E+10	1	-1E+10	1	-1E+10	1	-1E+10	1	-1E+10	1
4901784	130	C	01/25/2019	10:46	-133.181	43.083	0	1495.10	0	2.5310	0	35.8430	8	28.611	0	1477.924	0	27.5	4	8.5	4	-1E+10	1	-1E+10	1	-1E+10	1	-1E+10	1	-1E+10	1	-1E+10	1
4901784	130	C	01/25/2019	10:46	-133.181	43.083	0	1500.50	0	2.5250	0	35.8430	8	28.612	0	1483.243	0	27.8	4	8.6	4	-1E+10	1	-1E+10	1	-1E+10	1	-1E+10	1	-1E+10	1	-1E+10	1
4901784	130	C	01/25/2019	10:46	-133.181	43.083	0	1505.20	0	2.5140	0	35.8450	8	28.614	0	1487.872	0	28.2	4	8.7	4	-1E+10	1	-1E+10	1	-1E+10	1	-1E+10	1	-1E+10	1	-1E+10	1
4901784	130	C	01/25/2019	10:46	-133.181	43.083	0	1510.50	0	2.5010	0	35.8470	8	28.617	0	1493.093	0	28.6	4	8.8	4	-1E+10	1	-1E+10	1	-1E+10	1	-1E+10	1	-1E+10	1	-1E+10	1
4901784	130	C	01/25/2019	10:46	-133.181	43.083	0	1515.50	0	2.4880	0	35.8490	8	28.620	0	1498.017	0	28.9	4	8.9	4	-1E+10	1	-1E+10	1	-1E+10	1	-1E+10	1	-1E+10	1	-1E+10	1
4901784	130	C	01/25/2019	10:46	-133.181	43.083	0	1520.30	0	2.4800	0	35.8510	8	28.622	0	1502.745	0	29.2	4	9.0	4	-1E+10	1	-1E+10	1	-1E+10	1	-1E+10	1	-1E+10	1	-1E+10	1
4901784	130	C	01/25/2019	10:46	-133.181	43.083	0	1525.10	0	2.4720	0	35.8520	8	28.624	0	1507.473	0	29.4	4	9.1	4	-1E+10	1	-1E+10	1	-1E+10	1	-1E+10	1	-1E+10	1	-1E+10	1
4901784	130	C	01/25/2019	10:46	-133.181	43.083	0	1529.90	0	2.4620	0	35.8530	8	28.625	0	1512.200	0	29.6	4	9.1	4	-1E+10	1	-1E+10	1	-1E+10	1	-1E+10	1	-1E+10	1	-1E+10	1
4901784	130	C	01/25/2019	10:46	-133.181	43.083	0	1534.70	0	2.4570	0	35.8540	8	28.627	0	1516.927	0	29.9	4	9.2	4	-1E+10	1	-1E+10	1	-1E+10	1	-1E+10	1	-1E+10	1	-1E+10	1
4901784	130	C	01/25/2019	10:46	-133.181	43.083	0	1539.60	0	2.4480	0	35.8560	8	28.629	0	1521.753	0	30.2	4	9.3	4	-1E+10	1	-1E+10	1	-1E+10	1	-1E+10	1	-1E+10	1	-1E+10	1
4901784	130	C	01/25/2019	10:46	-133.181	43.083	0	1544.50	0	2.4390	0	35.8570	8	28.631	0	1526.578	0	30.5	4	9.4	4	-1E+10	1	-1E+10	1	-1E+10	1	-1E+10	1	-1E+10	1	-1E+10	1
4901784	130	C	01/25/2019	10:46	-133.181	43.083	0	1549.50	0	2.4310	0	35.8580	8	28.632	0	1531.502	0	30.7	4	9.5	4	-1E+10	1	-1E+10	1	-1E+10	1	-1E+10	1	-1E+10	1	-1E+10	1
4901784	130	C	01/25/2019	10:46	-133.181	43.083	0	1554.50	0	2.4230	0	35.8600	8	28.634	0	1536.426	0	31.1	4	9.6	4	-1E+10	1	-1E+10	1	-1E+10	1	-1E+10	1	-1E+10	1	-1E+10	1
4901784	130	C	01/25/2019	10:46	-133.181	43.083	0	1559.40	0	2.4140	0	35.8610	8	28.636	0	1541.251	0	31.3	4	9.6	4	-1E+10	1	-1E+10	1	-1E+10	1	-1E+10	1	-1E+10	1	-1E+10	1
4901784	130	C	01/25/2019	10:46	-133.181	43.083	0	1564.40	0	2.4120	0	35.8620	8	28.637	0	1546.175	0	31.5	4	9.7	4	-1E+10	1	-1E+10	1	-1E+10	1	-1E+10	1	-1E+10	1	-1E+10	1
4901784	130	C	01/25/2019	10:46	-133.181	43.083	0	1569.50	0	2.4070	0	35.8630	8	28.638	0	1551.197	0	31.8	4	9.8	4	-1E+10	1	-1E+10	1	-1E+10	1	-1E+10	1	-1E+10	1	-1E+10	1
4901784	130	C	01/25/2019	10:46	-133.181	43.083	0	1574.50	0	2.3970	0	35.8650	8	28.641	0	1556.120	0	32.1	4	9.9	4	-1E+10	1	-1E+10	1	-1E+10	1	-1E+10	1	-1E+10	1	-1E+10	1
4901784	130	C	01/25/2019	10:46	-133.181	43.083	0	1579.50	0	2.3950	0	35.8650	8	28.641	0	1561.043	0	32.3	4	9.9	4	-1E+10	1	-1E+10	1	-1E+10	1	-1E+10	1	-1E+10	1	-1E+10	1
4901784	130	C	01/25/2019	10:46	-133.181	43.083	0	1584.70	0	2.3900	0	35.8660	8	28.642	0	1566.163	0	32.7	4	10.0	4	-1E+10	1	-1E+10	1	-1E+10	1	-1E+10	1	-1E+10	1	-1E+10	1
4901784	130	C	01/25/2019	10:46	-133.181	43.083	0	1589.80	0	2.3810	0	35.8680	8	28.645	0	1571.185	0	33.0	4	10.1	4	-1E+10	1	-1E+10	1	-1E+10	1	-1E+10	1	-1E+10	1	-1E+10	1
4901784	130	C	01/25/2019	10:46	-133.181	43.083	0	1595.00	0	2.3720	0	35.8690	8	28.646	0	1576.304	0	33.3	4	10.2	4	-1E+10	1	-1E+10	1	-1E+10	1	-1E+10	1	-1E+10	1	-1E+10	1
4901784	130	C	01/25/2019	10:46	-133.181	43.083	0	1600.10	0	2.3640	0	35.8710	8	28.649	0	1581.325	0	33.6	4	10.3	4	-1E+10	1	-1E+10	1	-1E+10	1	-1E+10	1	-1E+10	1	-1E+10	1
4901784	130	C	01/25/2019	10:46	-133.181	43.083	0	1605.30	0	2.3590	0	35.8710	8	28.649	0	1586.445	0	34.0	4	10.4	4	-1E+10	1	-1E+10	1	-1E+10	1	-1E+10	1	-1E+10	1	-1E+10	1
4901784	130	C	01/25/2019	10:46	-133.181	43.083	0	1610.40	0	2.3500	0	35.8730	8	28.651	0	1591.466	0	34.4	4	10.6	4	-1E+10	1	-1E+10	1	-1E+10	1	-1E+10	1	-1E+10	1	-1E+10	1
4901784	130	C	01/25/2019	10:46	-133.181	43.083	0	1615.60	0	2.3390	0	35.8750	8	28.654	0	1596.585	0	34.9	4	10.7	4	-1E+10	1	-1E+10	1	-1E+10	1	-1E+10	1	-1E+10	1	-1E+10	1
4901784	130	C	01/25/2019	10:46	-133.181	43.083	0	1620.70	0	2.3310	0	35.8760	8	28.656	0	1601.606	0	35.2	4	10.8	4	-1E+10	1	-1E+10	1	-1E+10	1	-1E+10	1	-1E+10	1	-1E+10	1
4901784	130	C	01/25/2019	10:46	-133.181	43.083	0	1625.00	0	2.3270	0	35.8770	8	28.657	0	1605.839	0	35.4	4	10.9	4	-1E+10	1	-1E+10	1	-1E+10	1	-1E+10	1	-1E+10	1	-1E+10	1
4901784	130	C	01/25/2019	10:46	-133.181	43.083	0	1629.30	0	2.3230	0	35.8780	8	28.658	0	1610.072	0	35.6	4	10.9	4	-1E+10	1	-1E+10	1	-1E+10	1	-1E+10	1	-1E+10	1	-1E+10	1
4901784	130	C	01/25/2019	10:46	-133.181	43.083	0	1634.50	0	2.3160	0	35.8790	8	28.659	0	1615.191	0	36.0	4	11.0	4	-1E+10	1	-1E+10	1	-1E+10	1	-1E+10	1	-1E+10	1	-1E+10	1
4901784	130	C	01/25/2019	10:46	-133.181	43.083	0	1639.70	0	2.3080	0	35.8800	8	28.661	0	1620.309	0	36.4	4	11.2	4	-1E+10	1	-1E+10	1	-1E+10	1	-1E+10	1	-1E+10	1	-1E+10	1
4901784	130	C	01/25/2019	10:46	-133.181	43.083	0	1645.00	0	2.2970	0	35.8820	8	28.663	0	1625.526	0	36.9	4	11.3	4	-1E+10	1	-1E+10	1	-1E+10	1	-1E+10	1	-1E+10	1	-1E+10	1
4901784	130	C	01/25/2019	10:46	-133.181	43.083	0	1650.40	0	2.2880	0	35.8830	8	28.665	0	1630.842	0	37.3	4	11.4	4	-1E+10	1	-1E+10	1	-1E+10	1	-1E+10	1	-1E+10	1	-1E+10	1
4901784	130	C	01/25/2019	10:46	-133.181	43.083	0	1654.90	0	2.2820	0	35.8850	8	28.667	0	1635.271	0	37.7	4	11.6	4	-1E+10	1	-1E+10	1	-1E+10	1	-1E+10	1	-1E+10	1	-1E+10	1
4901784	130	C	01/25/2019	10:46	-133.181	43.083	0	1659.40	0	2.2740	0	35.8860	8	28.669	0	1639.700	0	38.1	4	11.7	4	-1E+10	1	-1E+10	1	-1E+10	1	-1E+10	1	-1E+10	1	-1E+10	1
4901784	130	C	01/25/2019	10:46	-133.181	43.083	0	1664.80	0	2.2660	0	35.8870	8	28.670	0	1645.015	0	38.5	4	11.8	4	-1E+10	1	-1E+10	1	-1E+10	1	-1E+10	1	-1E+10	1	-1E+10	1
4901784	130	C	01/25/2019	10:46	-133.181	43.083	0	1670.30	0	2.2560	0	35.8890	8	28.673	0	1650.429	0	39.0	4	11.9	4	-1E+10	1	-1E+10	1	-1E+10	1	-1E+10	1	-1E+10	1	-1E+10	1
4901784	130	C	01/25/2019	10:46	-133.181	43.083	0	1675.30	0	2.2480	0	35.8900	8	28.674	0	1655.350	0	39.4	4	12.1	4	-1E+10	1	-1E+10	1	-1E+10	1	-1E+10	1	-1E+10	1	-1E+10	1
4901784	130	C	01/25/2019	10:46	-133.181	43.083	0	1679.50	0	2.2410	0	35.8910	8	28.676	0	1659.483	0	39.8	4	12.2	4	-1E+10	1	-1E+10	1	-1E+10	1	-1E+10	1	-1E+10	1	-1E+10	1
4901784	130	C	01/25/2019	10:46	-133.181	43.083	0	1685.10	0	2.2340	0	35.8930	8	28.678	0	1664.994	0	40.1	4	12.3	4	-1E+10	1	-1E+10	1	-1E+10	1	-1E+10	1	-1E+10	1	-1E+10	1
4901784	130	C	01/25/2019	10:46	-133.181	43.083	0	1690.60	0	2.2260	0	35.8940	8	28.679	0	1670.407	0	40.5	4	12.4	4	-1E+10	1	-1E+10	1	-1E+10	1	-1E+10	1	-1E+10	1	-1E+10	1
4901784	130	C	01/25/2019	10:46	-133.181	43.083	0	1695.50	0	2.2210	0	35.8950	8	28.681	0	1675.229	0	40.7	4	12.5	4	-1E+10	1	-1E+10	1	-1E+10	1	-1E+10	1	-1E+10	1	-1E+10	1
4901784	130	C	01/25/2019	10:46	-133.181	43.083	0	1700.30	0	2.2160	0	35.8960	8	28.682	0	1679.953	0	40.9	4	12.5	4	-1E+10	1	-1E+10	1	-1E+10	1	-1E+10	1	-1E+10	1	-1E+10	1
4901784	130	C	01/25/2019	10:46	-133.181	43.083	0	1705.30	0	2.2130	0	35.8970	8	28.683	0	1684.873	0	41.2	4	12.6	4	-1E+10	1	-1E+10	1	-1E+10	1	-1E+10	1	-1E+10	1	-1E+10	1
4901784	130	C	01/25/2019	10:46	-133.181	43.083	0	1710.30	0	2.2050	0	35.8980	8	28.684	0	1689.793	0	41.5	4	12.7	4	-1E+10	1	-1E+10	1	-1E+10	1	-1E+10	1	-1E+10	1	-1E+10	1
4901784	130	C	01/25/2019	10:46	-133.181	43.083	0	1715.30	0	2.2010	0	35.8990	8	28.686	0	1694.713	0	41.9	4	12.8	4	-1E+10	1	-1E+10	1	-1E+10	1	-1E+10	1	-1E+10	1	-1E+10	1
4901784	130	C	01/25/2019	10:46	-133.181	43.083	0	1720.30	0	2.1950	0	35.9000	8	28.687	0	1699.633	0	42.2	4	12.9	4	-1E+10	1	-1E+10	1	-1E+10	1	-1E+10	1	-1E+10	1	-1E+10	1
4901784	130	C	01/25/2019	10:46	-133.181	43.083	0	1725.30	0	2.1880	0	35.9010	8	28.688	0	1704.553	0	42.6	4	13.0	4	-1E+10	1	-1E+10	1	-1E+10	1	-1E+10	1	-1E+10	1	-1E+10	1
4901784	130	C	01/25/2019	10:46	-133.181	43.083	0	1730.40	0	2.1810	0	35.9030	8	28.691	0	1709.571	0	42.9	4	13.1	4	-1E+10	1	-1E+10	1	-1E+10	1	-1E+10	1	-1E+10	1	-1E+10	1
4901784	130	C	01/25/2019	10:46	-133.181	43.083	0	1735.50	0	2.1760	0	35.9040	8	28.692	0	1714.589	0	43.3	4	13.2	4	-1E+10	1	-1E+10	1	-1E+10	1	-1E+10	1	-1E+10	1	-1E+10	1
4901784	130	C	01/25/2019	10:46	-133.181	43.083	0	1740.60	0	2.1680	0	35.9050	8	28.693	0	1719.607	0	43.6	4	13.3	4	-1E+10	1	-1E+10	1	-1E+10	1	-1E+10	1	-1E+10	1	-1E+10	1
4901784	130	C	01/25/2019	10:46	-133.181	43.083	0	1744.90	0	2.1660	0	35.9060	8	28.694	0	1723.838	0	43.9	4	13.4	4	-1E+10	1	-1E+10	1	-1E+10	1	-1E+10	1	-1E+10	1	-1E+10	1
4901784	130	C	01/25/2019	10:46	-133.181	43.083	0	1749.30	0	2.1580	0	35.9070	8	28.696	0	1728.167	0	44.2	4	13.5	4	-1E+10	1	-1E+10	1	-1E+10	1	-1E+10	1	-1E+10	1	-1E+10	1
4901784	130	C	01/25/2019	10:46	-133.181	43.083	0	1754.50	0	2.1540	0	35.9080	8	28.697	0	1733.283	0	44.5	4	13.6	4	-1E+10	1	-1E+10	1	-1E+10	1	-1E+10	1	-1E+10	1	-1E+10	1
4901784	130	C	01/25/2019	10:46	-133.181	43.083	0	1759.70	0	2.1510	0	35.9090	8	28.698	0	1738.399	0	44.7	4	13.7	4	-1E+10	1	-1E+10	1	-1E+10	1	-1E+10	1	-1E+10	1	-1E+10	1
4901784	130	C	01/25/2019	10:46	-133.181	43.083	0	1765.00	0	2.1490	0	35.9090	8	28.698	0	1743.613	0	45.0	4	13.8	4	-1E+10	1	-1E+10	1	-1E+10	1	-1E+10	1	-1E+10	1	-1E+10	1
4901784	130	C	01/25/2019	10:46	-133.181	43.083	0	1770.30	0	2.1400	0	35.9110	8	28.701	0	1748.827	0	45.4	4	13.9	4	-1E+10	1	-1E+10	1	-1E+10	1	-1E+10	1	-1E+10	1	-1E+10	1
4901784	130	C	01/25/2019	10:46	-133.181	43.083	0	1775.50	0	2.1350	0	35.9120	8	28.702	0	1753.942	0	45.7	4	14.0	4	-1E+10	1	-1E+10	1	-1E+10	1	-1E+10	1	-1E+10	1	-1E+10	1
4901784	130	C	01/25/2019	10:46	-133.181	43.083	0	1779.90	0	2.1320	0	35.9130	8	28.703	0	1758.271	0	46.0	4	14.0	4	-1E+10	1	-1E+10	1	-1E+10	1	-1E+10	1	-1E+10	1	-1E+10	1
4901784	130	C	01/25/2019	10:46	-133.181	43.083	0	1784.30	0	2.1260	0	35.9140	8	28.704	0	1762.599	0	46.2	4	14.1	4	-1E+10	1	-1E+10	1	-1E+10	1	-1E+10	1	-1E+10	1	-1E+10	1
4901784	130	C	01/25/2019	10:46	-133.181	43.083	0	1789.60	0	2.1200	0	35.9150	8	28.706	0	1767.812	0	46.5	4	14.2	4	-1E+10	1	-1E+10	1	-1E+10	1	-1E+10	1	-1E+10	1	-1E+10	1
4901784	130	C	01/25/2019	10:46	-133.181	43.083	0	1795.00	0	2.1170	0	35.9160	8	28.707	0	1773.124	0	46.7	4	14.3	4	-1E+10	1	-1E+10	1	-1E+10	1	-1E+10	1	-1E+10	1	-1E+10	1
4901784	130	C	01/25/2019	10:46	-133.181	43.083	0	1800.30	0	2.1150	0	35.9160	8	28.707	0	1778.337	0	46.9	4	14.3	4	-1E+10	1	-1E+10	1	-1E+10	1	-1E+10	1	-1E+10	1	-1E+10	1
4901784	130	C	01/25/2019	10:46	-133.181	43.083	0	1804.90	0	2.1130	0	35.9170	8	28.708	0	1782.862	0	47.2	4	14.4	4	-1E+10	1	-1E+10	1	-1E+10	1	-1E+10	1	-1E+10	1	-1E+10	1
4901784	130	C	01/25/2019	10:46	-133.181	43.083	0	1809.30	0	2.1070	0	35.9170	8	28.708	0	1787.190	0	47.6	4	14.5	4	-1E+10	1	-1E+10	1	-1E+10	1	-1E+10	1	-1E+10	1	-1E+10	1
4901784	130	C	01/25/2019	10:46	-133.181	43.083	0	1814.80	0	2.0980	0	35.9190	8	28.711	0	1792.599	0	48.0	4	14.6	4	-1E+10	1	-1E+10	1	-1E+10	1	-1E+10	1	-1E+10	1	-1E+10	1
4901784	130	C	01/25/2019	10:46	-133.181	43.083	0	1820.20	0	2.0920	0	35.9210	8	28.713	0	1797.910	0	48.3	4	14.7	4	-1E+10	1	-1E+10	1	-1E+10	1	-1E+10	1	-1E+10	1	-1E+10	1
4901784	130	C	01/25/2019	10:46	-133.181	43.083	0	1824.90	0	2.0880	0	35.9220	8	28.714	0	1802.533	0	48.5	4	14.8	4	-1E+10	1	-1E+10	1	-1E+10	1	-1E+10	1	-1E+10	1	-1E+10	1
4901784	130	C	01/25/2019	10:46	-133.181	43.083	0	1829.50	0	2.0830	0	35.9230	8	28.715	0	1807.057	0	48.8	4	14.9	4	-1E+10	1	-1E+10	1	-1E+10	1	-1E+10	1	-1E+10	1	-1E+10	1
4901784	130	C	01/25/2019	10:46	-133.181	43.083	0	1835.00	0	2.0770	0	35.9240	8	28.717	0	1812.466	0	49.2	4	15.0	4	-1E+10	1	-1E+10	1	-1E+10	1	-1E+10	1	-1E+10	1	-1E+10	1
4901784	130	C	01/25/2019	10:46	-133.181	43.083	0	1839.60	0	2.0720	0	35.9260	8	28.719	0	1816.990	0	49.6	4	15.1	4	-1E+10	1	-1E+10	1	-1E+10	1	-1E+10	1	-1E+10	1	-1E+10	1
4901784	130	C	01/25/2019	10:46	-133.181	43.083	0	1844.10	0	2.0680	0	35.9270	8	28.720	0	1821.415	0	49.9	4	15.2	4	-1E+10	1	-1E+10	1	-1E+10	1	-1E+10	1	-1E+10	1	-1E+10	1
4901784	130	C	01/25/2019	10:46	-133.181	43.083	0	1849.50	0	2.0610	0	35.9280	8	28.721	0	1826.726	0	50.4	4	15.4	4	-1E+10	1	-1E+10	1	-1E+10	1	-1E+10	1	-1E+10	1	-1E+10	1
4901784	130	C	01/25/2019	10:46	-133.181	43.083	0	1854.40	0	2.0520	0	35.9290	8	28.723	0	1831.544	0	50.8	4	15.5	4	-1E+10	1	-1E+10	1	-1E+10	1	-1E+10	1	-1E+10	1	-1E+10	1
4901784	130	C	01/25/2019	10:46	-133.181	43.083	0	1859.30	0	2.0470	0	35.9310	8	28.725	0	1836.363	0	51.0	4	15.6	4	-1E+10	1	-1E+10	1	-1E+10	1	-1E+10	1	-1E+10	1	-1E+10	1
4901784	130	C	01/25/2019	10:46	-133.181	43.083	0	1864.20	0	2.0450	0	35.9310	8	28.725	0	1841.181	0	51.2	4	15.6	4	-1E+10	1	-1E+10	1	-1E+10	1	-1E+10	1	-1E+10	1	-1E+10	1
4901784	130	C	01/25/2019	10:46	-133.181	43.083	0	1869.30	0	2.0420	0	35.9320	8	28.726	0	1846.196	0	51.3	4	15.6	4	-1E+10	1	-1E+10	1	-1E+10	1	-1E+10	1	-1E+10	1	-1E+10	1
4901784	130	C	01/25/2019	10:46	-133.181	43.083	0	1874.30	0	2.0400	0	35.9330	8	28.727	0	1851.113	0	51.5	4	15.7	4	-1E+10	1	-1E+10	1	-1E+10	1	-1E+10	1	-1E+10	1	-1E+10	1
4901784	130	C	01/25/2019	10:46	-133.181	43.083	0	1879.40	0	2.0360	0	35.9340	8	28.728	0	1856.127	0	51.8	4	15.8	4	-1E+10	1	-1E+10	1	-1E+10	1	-1E+10	1	-1E+10	1	-1E+10	1
4901784	130	C	01/25/2019	10:46	-133.181	43.083	0	1884.50	0	2.0310	0	35.9350	8	28.729	0	1861.142	0	52.0	4	15.9	4	-1E+10	1	-1E+10	1	-1E+10	1	-1E+10	1	-1E+10	1	-1E+10	1
4901784	130	C	01/25/2019	10:46	-133.181	43.083	0	1889.70	0	2.0290	0	35.9360	8	28.730	0	1866.254	0	52.2	4	15.9	4	-1E+10	1	-1E+10	1	-1E+10	1	-1E+10	1	-1E+10	1	-1E+10	1
4901784	130	C	01/25/2019	10:46	-133.181	43.083	0	1894.90	0	2.0270	0	35.9360	8	28.731	0	1871.367	0	52.3	4	15.9	4	-1E+10	1	-1E+10	1	-1E+10	1	-1E+10	1	-1E+10	1	-1E+10	1
4901784	130	C	01/25/2019	10:46	-133.181	43.083	0	1900.10	0	2.0260	0	35.9370	8	28.732	0	1876.480	0	52.4	4	16.0	4	-1E+10	1	-1E+10	1	-1E+10	1	-1E+10	1	-1E+10	1	-1E+10	1
4901784	130	C	01/25/2019	10:46	-133.181	43.083	0	1905.20	0	2.0260	0	35.9370	8	28.732	0	1881.494	0	52.7	4	16.1	4	-1E+10	1	-1E+10	1	-1E+10	1	-1E+10	1	-1E+10	1	-1E+10	1
4901784	130	C	01/25/2019	10:46	-133.181	43.083	0	1910.50	0	2.0230	0	35.9380	8	28.733	0	1886.704	0	53.0	4	16.1	4	-1E+10	1	-1E+10	1	-1E+10	1	-1E+10	1	-1E+10	1	-1E+10	1
4901784	130	C	01/25/2019	10:46	-133.181	43.083	0	1914.90	0	2.0180	0	35.9390	8	28.734	0	1891.030	0	53.2	4	16.2	4	-1E+10	1	-1E+10	1	-1E+10	1	-1E+10	1	-1E+10	1	-1E+10	1
4901784	130	C	01/25/2019	10:46	-133.181	43.083	0	1919.30	0	2.0160	0	35.9390	8	28.734	0	1895.356	0	53.4	4	16.3	4	-1E+10	1	-1E+10	1	-1E+10	1	-1E+10	1	-1E+10	1	-1E+10	1
4901784	130	C	01/25/2019	10:46	-133.181	43.083	0	1924.60	0	2.0140	0	35.9400	8	28.735	0	1900.566	0	53.6	4	16.3	4	-1E+10	1	-1E+10	1	-1E+10	1	-1E+10	1	-1E+10	1	-1E+10	1
4901784	130	C	01/25/2019	10:46	-133.181	43.083	0	1929.90	0	2.0100	0	35.9410	8	28.736	0	1905.776	0	53.9	4	16.4	4	-1E+10	1	-1E+10	1	-1E+10	1	-1E+10	1	-1E+10	1	-1E+10	1
4901784	130	C	01/25/2019	10:46	-133.181	43.083	0	1935.10	0	2.0060	0	35.9420	8	28.737	0	1910.887	0	54.2	4	16.5	4	-1E+10	1	-1E+10	1	-1E+10	1	-1E+10	1	-1E+10	1	-1E+10	1
4901784	130	C	01/25/2019	10:46	-133.181	43.083	0	1940.40	0	2.0050	0	35.9420	8	28.738	0	1916.097	0	54.3	4	16.6	4	-1E+10	1	-1E+10	1	-1E+10	1	-1E+10	1	-1E+10	1	-1E+10	1
4901784	130	C	01/25/2019	10:46	-133.181	43.083	0	1945.70	0	2.0030	0	35.9430	8	28.739	0	1921.307	0	54.6	4	16.6	4	-1E+10	1	-1E+10	1	-1E+10	1	-1E+10	1	-1E+10	1	-1E+10	1
4901784	130	C	01/25/2019	10:46	-133.181	43.083	0	1950.10	0	1.9990	0	35.9440	8	28.740	0	1925.632	0	54.8	4	16.7	4	-1E+10	1	-1E+10	1	-1E+10	1	-1E+10	1	-1E+10	1	-1E+10	1
4901784	130	C	01/25/2019	10:46	-133.181	43.083	0	1954.50	0	1.9980	0	35.9440	8	28.740	0	1929.957	0	55.1	4	16.8	4	-1E+10	1	-1E+10	1	-1E+10	1	-1E+10	1	-1E+10	1	-1E+10	1
4901784	130	C	01/25/2019	10:46	-133.181	43.083	0	1959.70	0	1.9930	0	35.9450	8	28.741	0	1935.068	0	55.5	4	16.9	4	-1E+10	1	-1E+10	1	-1E+10	1	-1E+10	1	-1E+10	1	-1E+10	1
4901784	130	C	01/25/2019	10:46	-133.181	43.083	0	1965.00	0	1.9860	0	35.9460	8	28.742	0	1940.277	0	55.9	4	17.0	4	-1E+10	1	-1E+10	1	-1E+10	1	-1E+10	1	-1E+10	1	-1E+10	1
4901784	130	C	01/25/2019	10:46	-133.181	43.083	0	1970.40	0	1.9830	0	35.9470	8	28.744	0	1945.585	0	56.2	4	17.1	4	-1E+10	1	-1E+10	1	-1E+10	1	-1E+10	1	-1E+10	1	-1E+10	1
4901784	130	C	01/25/2019	10:46	-133.181	43.083	0	1974.80	0	1.9800	0	35.9480	8	28.745	0	1949.909	0	56.4	4	17.2	4	-1E+10	1	-1E+10	1	-1E+10	1	-1E+10	1	-1E+10	1	-1E+10	1
4901784	130	C	01/25/2019	10:46	-133.181	43.083	0	1979.30	0	1.9780	0	35.9480	8	28.745	0	1954.332	0	56.7	4	17.3	4	-1E+10	1	-1E+10	1	-1E+10	1	-1E+10	1	-1E+10	1	-1E+10	1
4901784	130	C	01/25/2019	10:46	-133.181	43.083	0	1984.70	0	1.9740	0	35.9490	8	28.746	0	1959.639	0	57.2	4	17.4	4	-1E+10	1	-1E+10	1	-1E+10	1	-1E+10	1	-1E+10	1	-1E+10	1
4901784	130	C	01/25/2019	10:46	-133.181	43.083	0	1990.10	0	1.9650	0	35.9510	8	28.748	0	1964.946	0	57.7	4	17.6	4	-1E+10	1	-1E+10	1	-1E+10	1	-1E+10	1	-1E+10	1	-1E+10	1
4901784	130	C	01/25/2019	10:46	-133.181	43.083	0	1995.50	0	1.9610	0	35.9520	8	28.749	0	1970.253	0	58.0	4	17.7	4	-1E+10	1	-1E+10	1	-1E+10	1	-1E+10	1	-1E+10	1	-1E+10	1
4901784	130	C	01/25/2019	10:46	-133.181	43.083	0	2000.00	0	1.9570	0	35.9530	8	28.751	0	1974.675	0	58.2	4	17.7	4	-1E+10	1	-1E+10	1	-1E+10	1	-1E+10	1	-1E+10	1	-1E+10	1
4901784	130	C	01/25/2019	10:46	-133.181	43.083	0	2005.10	0	1.9540	0	35.9540	8	28.752	0	1979.687	0	58.5	4	17.8	4	-1E+10	1	-1E+10	1	-1E+10	1	-1E+10	1	-1E+10	1	-1E+10	1
4901784	130	C	01/25/2019	10:46	-133.181	43.083	0	2010.40	0	1.9500	0	35.9540	8	28.752	0	1984.895	0	58.9	4	17.9	4	-1E+10	1	-1E+10	1	-1E+10	1	-1E+10	1	-1E+10	1	-1E+10	1
4901784	130	C	01/25/2019	10:46	-133.181	43.083	0	2015.60	0	1.9460	0	35.9550	8	28.753	0	1990.004	0	59.2	4	18.0	4	-1E+10	1	-1E+10	1	-1E+10	1	-1E+10	1	-1E+10	1	-1E+10	1
4901784	130	C	01/25/2019	10:46	-133.181	43.083	0	2021.10	0	1.9410	0	35.9570	8	28.755	0	1995.409	0	57.9	4	17.6	4	-1E+10	1	-1E+10	1	-1E+10	1	-1E+10	1	-1E+10	1	-1E+10	1
4901784	130	C	01/25/2019	10:46	-133.181	43.083	0																										
4901784	131	C	02/04/2019	10:42	-133.260	43.241	0	1.90	0	11.6280	0	33.6260	8	25.592	0	1.885	0	255.6	4	95.4	4	-1E+10	1	-1E+10	1	-1E+10	1	-1E+10	1	-1E+10	1	-1E+10	1
4901784	131	C	02/04/2019	10:42	-133.260	43.241	0	4.30	0	11.6300	0	33.6260	8	25.592	0	4.266	0	255.6	4	95.4	4	-1E+10	1	-1E+10	1	-1E+10	1	-1E+10	1	-1E+10	1	-1E+10	1
4901784	131	C	02/04/2019	10:42	-133.260	43.241	0	6.80	0	11.6290	0	33.6270	8	25.593	0	6.746	0	255.5	4	95.4	4	-1E+10	1	-1E+10	1	-1E+10	1	-1E+10	1	-1E+10	1	-1E+10	1
4901784	131	C	02/04/2019	10:42	-133.260	43.241	0	9.00	0	11.6340	0	33.6280	8	25.593	0	8.928	0	255.3	4	95.3	4	-1E+10	1	-1E+10	1	-1E+10	1	-1E+10	1	-1E+10	1	-1E+10	1
4901784	131	C	02/04/2019	10:42	-133.260	43.241	0	11.40	0	11.6320	0	33.6280	8	25.593	0	11.309	0	255.5	4	95.4	4	-1E+10	1	-1E+10	1	-1E+10	1	-1E+10	1	-1E+10	1	-1E+10	1
4901784	131	C	02/04/2019	10:42	-133.260	43.241	0	13.50	0	11.6380	0	33.6280	8	25.592	0	13.392	0	255.3	4	95.3	4	-1E+10	1	-1E+10	1	-1E+10	1	-1E+10	1	-1E+10	1	-1E+10	1
4901784	131	C	02/04/2019	10:42	-133.260	43.241	0	15.50	0	11.6390	0	33.6290	8	25.593	0	15.376	0	255.4	4	95.3	4	-1E+10	1	-1E+10	1	-1E+10	1	-1E+10	1	-1E+10	1	-1E+10	1
4901784	131	C	02/04/2019	10:42	-133.260	43.241	0	17.50	0	11.6370	0	33.6290	8	25.593	0	17.360	0	255.4	4	95.3	4	-1E+10	1	-1E+10	1	-1E+10	1	-1E+10	1	-1E+10	1	-1E+10	1
4901784	131	C	02/04/2019	10:42	-133.260	43.241	0	19.20	0	11.6370	0	33.6300	8	25.594	0	19.046	0	255.5	4	95.4	4	-1E+10	1	-1E+10	1	-1E+10	1	-1E+10	1	-1E+10	1	-1E+10	1
4901784	131	C	02/04/2019	10:42	-133.260	43.241	0	21.30	0	11.6360	0	33.6300	8	25.594	0	21.129	0	255.4	4	95.4	4	-1E+10	1	-1E+10	1	-1E+10	1	-1E+10	1	-1E+10	1	-1E+10	1
4901784	131	C	02/04/2019	10:42	-133.260	43.241	0	22.80	0	11.6360	0	33.6300	8	25.594	0	22.617	0	255.4	4	95.4	4	-1E+10	1	-1E+10	1	-1E+10	1	-1E+10	1	-1E+10	1	-1E+10	1
4901784	131	C	02/04/2019	10:42	-133.260	43.241	0	24.40	0	11.6360	0	33.6320	8	25.596	0	24.204	0	255.2	4	95.3	4	-1E+10	1	-1E+10	1	-1E+10	1	-1E+10	1	-1E+10	1	-1E+10	1
4901784	131	C	02/04/2019	10:42	-133.260	43.241	0	26.20	0	11.6360	0	33.6320	8	25.596	0	25.990	0	255.4	4	95.4	4	-1E+10	1	-1E+10	1	-1E+10	1	-1E+10	1	-1E+10	1	-1E+10	1
4901784	131	C	02/04/2019	10:42	-133.260	43.241	0	28.30	0	11.6400	0	33.6320	8	25.595	0	28.073	0	255.4	4	95.4	4	-1E+10	1	-1E+10	1	-1E+10	1	-1E+10	1	-1E+10	1	-1E+10	1
4901784	131	C	02/04/2019	10:42	-133.260	43.241	0	30.60	0	11.6400	0	33.6320	8	25.595	0	30.354	0	255.2	4	95.3	4	-1E+10	1	-1E+10	1	-1E+10	1	-1E+10	1	-1E+10	1	-1E+10	1
4901784	131	C	02/04/2019	10:42	-133.260	43.241	0	32.90	0	11.6400	0	33.6320	8	25.595	0	32.636	0	255.1	4	95.3	4	-1E+10	1	-1E+10	1	-1E+10	1	-1E+10	1	-1E+10	1	-1E+10	1
4901784	131	C	02/04/2019	10:42	-133.260	43.241	0	35.00	0	11.6410	0	33.6330	8	25.596	0	34.719	0	255.0	4	95.2	4	-1E+10	1	-1E+10	1	-1E+10	1	-1E+10	1	-1E+10	1	-1E+10	1
4901784	131	C	02/04/2019	10:42	-133.260	43.241	0	37.10	0	11.6410	0	33.6340	8	25.597	0	36.802	0	255.0	4	95.2	4	-1E+10	1	-1E+10	1	-1E+10	1	-1E+10	1	-1E+10	1	-1E+10	1
4901784	131	C	02/04/2019	10:42	-133.260	43.241	0	39.30	0	11.6410	0	33.6340	8	25.597	0	38.984	0	255.0	4	95.2	4	-1E+10	1	-1E+10	1	-1E+10	1	-1E+10	1	-1E+10	1	-1E+10	1
4901784	131	C	02/04/2019	10:42	-133.260	43.241	0	41.40	0	11.6430	0	33.6350	8	25.597	0	41.066	0	254.9	4	95.2	4	-1E+10	1	-1E+10	1	-1E+10	1	-1E+10	1	-1E+10	1	-1E+10	1
4901784	131	C	02/04/2019	10:42	-133.260	43.241	0	44.00	0	11.6430	0	33.6360	8	25.598	0	43.645	0	254.9	4	95.2	4	-1E+10	1	-1E+10	1	-1E+10	1	-1E+10	1	-1E+10	1	-1E+10	1
4901784	131	C	02/04/2019	10:42	-133.260	43.241	0	44.70	0	11.6430	0	33.6350	8	25.597	0	44.340	0	254.8	4	95.2	4	-1E+10	1	-1E+10	1	-1E+10	1	-1E+10	1	-1E+10	1	-1E+10	1
4901784	131	C	02/04/2019	10:42	-133.260	43.241	0	46.50	0	11.6410	0	33.6360	8	25.598	0	46.125	0	255.0	4	95.2	4	-1E+10	1	-1E+10	1	-1E+10	1	-1E+10	1	-1E+10	1	-1E+10	1
4901784	131	C	02/04/2019	10:42	-133.260	43.241	0	48.10	0	11.6410	0	33.6370	8	25.599	0	47.712	0	254.8	4	95.1	4	-1E+10	1	-1E+10	1	-1E+10	1	-1E+10	1	-1E+10	1	-1E+10	1
4901784	131	C	02/04/2019	10:42	-133.260	43.241	0	49.70	0	11.6420	0	33.6370	8	25.599	0	49.299	0	254.8	4	95.2	4	-1E+10	1	-1E+10	1	-1E+10	1	-1E+10	1	-1E+10	1	-1E+10	1
4901784	131	C	02/04/2019	10:42	-133.260	43.241	0	51.20	0	11.6420	0	33.6370	8	25.599	0	50.786	0	254.9	4	95.2	4	-1E+10	1	-1E+10	1	-1E+10	1	-1E+10	1	-1E+10	1	-1E+10	1
4901784	131	C	02/04/2019	10:42	-133.260	43.241	0	52.70	0	11.6410	0	33.6380	8	25.600	0	52.274	0	254.8	4	95.1	4	-1E+10	1	-1E+10	1	-1E+10	1	-1E+10	1	-1E+10	1	-1E+10	1
4901784	131	C	02/04/2019	10:42	-133.260	43.241	0	54.50	0	11.6430	0	33.6380	8	25.600	0	54.059	0	254.7	4	95.1	4	-1E+10	1	-1E+10	1	-1E+10	1	-1E+10	1	-1E+10	1	-1E+10	1
4901784	131	C	02/04/2019	10:42	-133.260	43.241	0	55.90	0	11.6440	0	33.6390	8	25.600	0	55.448	0	254.6	4	95.1	4	-1E+10	1	-1E+10	1	-1E+10	1	-1E+10	1	-1E+10	1	-1E+10	1
4901784	131	C	02/04/2019	10:42	-133.260	43.241	0	57.30	0	11.6430	0	33.6390	8	25.601	0	56.836	0	254.4	4	95.0	4	-1E+10	1	-1E+10	1	-1E+10	1	-1E+10	1	-1E+10	1	-1E+10	1
4901784	131	C	02/04/2019	10:42	-133.260	43.241	0	59.00	0	11.6430	0	33.6400	8	25.601	0	58.522	0	254.3	4	95.0	4	-1E+10	1	-1E+10	1	-1E+10	1	-1E+10	1	-1E+10	1	-1E+10	1
4901784	131	C	02/04/2019	10:42	-133.260	43.241	0	60.50	0	11.6440	0	33.6410	8	25.602	0	60.010	0	254.4	4	95.0	4	-1E+10	1	-1E+10	1	-1E+10	1	-1E+10	1	-1E+10	1	-1E+10	1
4901784	131	C	02/04/2019	10:42	-133.260	43.241	0	62.50	0	11.6440	0	33.6420	8	25.603	0	61.993	0	254.1	4	94.9	4	-1E+10	1	-1E+10	1	-1E+10	1	-1E+10	1	-1E+10	1	-1E+10	1
4901784	131	C	02/04/2019	10:42	-133.260	43.241	0	64.60	0	11.6430	0	33.6430	8	25.604	0	64.076	0	254.1	4	94.9	4	-1E+10	1	-1E+10	1	-1E+10	1	-1E+10	1	-1E+10	1	-1E+10	1
4901784	131	C	02/04/2019	10:42	-133.260	43.241	0	66.50	0	11.6430	0	33.6430	8	25.604	0	65.960	0	253.9	4	94.8	4	-1E+10	1	-1E+10	1	-1E+10	1	-1E+10	1	-1E+10	1	-1E+10	1
4901784	131	C	02/04/2019	10:42	-133.260	43.241	0	68.50	0	11.6390	0	33.6440	8	25.606	0	67.944	0	253.9	4	94.8	4	-1E+10	1	-1E+10	1	-1E+10	1	-1E+10	1	-1E+10	1	-1E+10	1
4901784	131	C	02/04/2019	10:42	-133.260	43.241	0	70.40	0	11.6410	0	33.6440	8	25.605	0	69.828	0	253.8	4	94.8	4	-1E+10	1	-1E+10	1	-1E+10	1	-1E+10	1	-1E+10	1	-1E+10	1
4901784	131	C	02/04/2019	10:42	-133.260	43.241	0	72.60	0	11.6420	0	33.6440	8	25.605	0	72.010	0	253.6	4	94.7	4	-1E+10	1	-1E+10	1	-1E+10	1	-1E+10	1	-1E+10	1	-1E+10	1
4901784	131	C	02/04/2019	10:42	-133.260	43.241	0	74.60	0	11.6320	0	33.6470	8	25.609	0	73.993	0	253.3	4	94.6	4	-1E+10	1	-1E+10	1	-1E+10	1	-1E+10	1	-1E+10	1	-1E+10	1
4901784	131	C	02/04/2019	10:42	-133.260	43.241	0	76.70	0	11.6390	0	33.6460	8	25.607	0	76.076	0	253.4	4	94.6	4	-1E+10	1	-1E+10	1	-1E+10	1	-1E+10	1	-1E+10	1	-1E+10	1
4901784	131	C	02/04/2019	10:42	-133.260	43.241	0	78.70	0	11.6410	0	33.6460	8	25.607	0	78.059	0	253.1	4	94.5	4	-1E+10	1	-1E+10	1	-1E+10	1	-1E+10	1	-1E+10	1	-1E+10	1
4901784	131	C	02/04/2019	10:42	-133.260	43.241	0	80.80	0	11.6390	0	33.6450	8	25.607	0	80.141	0	252.7	4	94.4	4	-1E+10	1	-1E+10	1	-1E+10	1	-1E+10	1	-1E+10	1	-1E+10	1
4901784	131	C	02/04/2019	10:42	-133.260	43.241	0	82.60	0	11.6190	0	33.6480	8	25.613	0	81.926	0	252.5	4	94.2	4	-1E+10	1	-1E+10	1	-1E+10	1	-1E+10	1	-1E+10	1	-1E+10	1
4901784	131	C	02/04/2019	10:42	-133.260	43.241	0	84.50	0	11.6320	0	33.6450	8	25.608	0	83.811	0	252.0	4	94.1	4	-1E+10	1	-1E+10	1	-1E+10	1	-1E+10	1	-1E+10	1	-1E+10	1
4901784	131	C	02/04/2019	10:42	-133.260	43.241	0	86.20	0	11.6290	0	33.6410	8	25.605	0	85.496	0	251.4	4	93.9	4	-1E+10	1	-1E+10	1	-1E+10	1	-1E+10	1	-1E+10	1	-1E+10	1
4901784	131	C	02/04/2019	10:42	-133.260	43.241	0	88.20	0	11.6280	0	33.6370	8	25.603	0	87.480	0	250.7	4	93.6	4	-1E+10	1	-1E+10	1	-1E+10	1	-1E+10	1	-1E+10	1	-1E+10	1
4901784	131	C	02/04/2019	10:42	-133.260	43.241	0	88.80	0	11.6230	0	33.6340	8	25.601	0	88.075	0	250.4	4	93.5	4	-1E+10	1	-1E+10	1	-1E+10	1	-1E+10	1	-1E+10	1	-1E+10	1
4901784	131	C	02/04/2019	10:42	-133.260	43.241	0	90.30	0	11.5320	0	33.6340	8	25.618	0	89.562	0	249.8	4	93.0	4	-1E+10	1	-1E+10	1	-1E+10	1	-1E+10	1	-1E+10	1	-1E+10	1
4901784	131	C	02/04/2019	10:42	-133.260	43.241	0	91.70	0	11.4580	0	33.6320	8	25.630	0	90.950	0	249.1	4	92.7	4	-1E+10	1	-1E+10	1	-1E+10	1	-1E+10	1	-1E+10	1	-1E+10	1
4901784	131	C	02/04/2019	10:42	-133.260	43.241	0	93.00	0	11.4310	0	33.6220	8	25.627	0	92.239	0	247.8	4	92.1	4	-1E+10	1	-1E+10	1	-1E+10	1	-1E+10	1	-1E+10	1	-1E+10	1
4901784	131	C	02/04/2019	10:42	-133.260	43.241	0	94.50	0	11.0680	0	33.6320	8	25.701	0	93.727	0	247.7	4	91.4	4	-1E+10	1	-1E+10	1	-1E+10	1	-1E+10	1	-1E+10	1	-1E+10	1
4901784	131	C	02/04/2019	10:42	-133.260	43.241	0	96.00	0	10.3770	0	33.6740	8	25.855	0	95.214	0	249.4	4	90.7	4	-1E+10	1	-1E+10	1	-1E+10	1	-1E+10	1	-1E+10	1	-1E+10	1
4901784	131	C	02/04/2019	10:42	-133.260	43.241	0	97.60	0	10.1390	0	33.6950	8	25.912	0	96.801	0	250.7	4	90.7	4	-1E+10	1	-1E+10	1	-1E+10	1	-1E+10	1	-1E+10	1	-1E+10	1
4901784	131	C	02/04/2019	10:42	-133.260	43.241	0	99.30	0	9.9470	0	33.7080	8	25.954	0	98.486	0	251.2	4	90.5	4	-1E+10	1	-1E+10	1	-1E+10	1	-1E+10	1	-1E+10	1	-1E+10	1
4901784	131	C	02/04/2019	10:42	-133.260	43.241	0	102.70	0	9.7740	0	33.7200	8	25.993	0	101.858	0	251.2	4	90.2	4	-1E+10	1	-1E+10	1	-1E+10	1	-1E+10	1	-1E+10	1	-1E+10	1
4901784	131	C	02/04/2019	10:42	-133.260	43.241	0	105.30	0	9.7030	0	33.7250	8	26.008	0	104.436	0	250.8	4	89.9	4	-1E+10	1	-1E+10	1	-1E+10	1	-1E+10	1	-1E+10	1	-1E+10	1
4901784	131	C	02/04/2019	10:42	-133.260	43.241	0	108.00	0	9.6370	0	33.7260	8	26.020	0	107.113	0	250.3	4	89.6	4	-1E+10	1	-1E+10	1	-1E+10	1	-1E+10	1	-1E+10	1	-1E+10	1
4901784	131	C	02/04/2019	10:42	-133.260	43.241	0	109.70	0	9.6280	0	33.7210	8	26.018	0	108.798	0	249.5	4	89.3	4	-1E+10	1	-1E+10	1	-1E+10	1	-1E+10	1	-1E+10	1	-1E+10	1
4901784	131	C	02/04/2019	10:42	-133.260	43.241	0	112.30	0	9.5600	0	33.7150	8	26.024	0	111.376	0	247.5	4	88.5	4	-1E+10	1	-1E+10	1	-1E+10	1	-1E+10	1	-1E+10	1	-1E+10	1
4901784	131	C	02/04/2019	10:42	-133.260	43.241	0	115.00	0	9.0950	0	33.7320	8	26.112	0	114.053	0	246.0	4	87.0	4	-1E+10	1	-1E+10	1	-1E+10	1	-1E+10	1	-1E+10	1	-1E+10	1
4901784	131	C	02/04/2019	10:42	-133.260	43.241	0	116.90	0	8.7850	0	33.7770	8	26.196	0	115.937	0	247.2	4	86.9	4	-1E+10	1	-1E+10	1	-1E+10	1	-1E+10	1	-1E+10	1	-1E+10	1
4901784	131	C	02/04/2019	10:42	-133.260	43.241	0	119.80	0	8.7000	0	33.7750	8	26.208	0	118.812	0	246.4	4	86.4	4	-1E+10	1	-1E+10	1	-1E+10	1	-1E+10	1	-1E+10	1	-1E+10	1
4901784	131	C	02/04/2019	10:42	-133.260	43.241	0	122.60	0	8.5940	0	33.7720	8	26.222	0	121.588	0	245.0	4	85.8	4	-1E+10	1	-1E+10	1	-1E+10	1	-1E+10	1	-1E+10	1	-1E+10	1
4901784	131	C	02/04/2019	10:42	-133.260	43.241	0	124.90	0	8.4510	0	33.8130	8	26.276	0	123.869	0	242.9	4	84.8	4	-1E+10	1	-1E+10	1	-1E+10	1	-1E+10	1	-1E+10	1	-1E+10	1
4901784	131	C	02/04/2019	10:42	-133.260	43.241	0	128.00	0	8.2420	0	33.8820	8	26.362	0	126.942	0	242.1	4	84.2	4	-1E+10	1	-1E+10	1	-1E+10	1	-1E+10	1	-1E+10	1	-1E+10	1
4901784	131	C	02/04/2019	10:42	-133.260	43.241	0	130.30	0	8.1980	0	33.9080	8	26.389	0	129.222	0	241.0	4	83.7	4	-1E+10	1	-1E+10	1	-1E+10	1	-1E+10	1	-1E+10	1	-1E+10	1
4901784	131	C	02/04/2019	10:42	-133.260	43.241	0	132.90	0	8.1380	0	33.9480	8	26.429	0	131.800	0	239.6	4	83.1	4	-1E+10	1	-1E+10	1	-1E+10	1	-1E+10	1	-1E+10	1	-1E+10	1
4901784	131	C	02/04/2019	10:42	-133.260	43.241	0	135.50	0	8.0930	0	33.9950	8	26.473	0	134.378	0	238.1	4	82.6	4	-1E+10	1	-1E+10	1	-1E+10	1	-1E+10	1	-1E+10	1	-1E+10	1
4901784	131	C	02/04/2019	10:42	-133.260	43.241	0	137.20	0	8.0730	0	34.0150	8	26.492	0	136.063	0	237.3	4	82.2	4	-1E+10	1	-1E+10	1	-1E+10	1	-1E+10	1	-1E+10	1	-1E+10	1
4901784	131	C	02/04/2019	10:42	-133.260	43.241	0	139.50	0	8.0530	0	34.0600	8	26.530	0	138.343	0	235.6	4	81.7	4	-1E+10	1	-1E+10	1	-1E+10	1	-1E+10	1	-1E+10	1	-1E+10	1
4901784	131	C	02/04/2019	10:42	-133.260	43.241	0	142.10	0	8.0020	0	34.1430	8	26.603	0	140.921	0	234.0	4	81.1	4	-1E+10	1	-1E+10	1	-1E+10	1	-1E+10	1	-1E+10	1	-1E+10	1
4901784	131	C	02/04/2019	10:42	-133.260	43.241	0	145.20	0	7.9830	0	34.1830	8	26.637	0	143.994	0	232.7	4	80.6	4	-1E+10	1	-1E+10	1	-1E+10	1	-1E+10	1	-1E+10	1	-1E+10	1
4901784	131	C	02/04/2019	10:42	-133.260	43.241	0	147.30	0	7.9830	0	34.1880	8	26.641	0	146.076	0	231.6	4	80.2	4	-1E+10	1	-1E+10	1	-1E+10	1	-1E+10	1	-1E+10	1	-1E+10	1
4901784	131	C	02/04/2019	10:42	-133.260	43.241	0	149.60	0	7.9800	0	34.2210	8	26.667	0	148.356	0	229.8	4	79.6	4	-1E+10	1	-1E+10	1	-1E+10	1	-1E+10	1	-1E+10	1	-1E+10	1
4901784	131	C	02/04/2019	10:42	-133.260	43.241	0	152.70	0	7.9900	0	34.2480	8	26.687	0	151.429	0	227.1	4	78.7	4	-1E+10	1	-1E+10	1	-1E+10	1	-1E+10	1	-1E+10	1	-1E+10	1
4901784	131	C	02/04/2019	10:42	-133.260	43.241	0	155.10	0	8.0140	0	34.2790	8	26.708	0	153.808	0	224.3	4	77.8	4	-1E+10	1	-1E+10	1	-1E+10	1	-1E+10	1	-1E+10	1	-1E+10	1
4901784	131	C	02/04/2019	10:42	-133.260	43.241	0	157.60	0	8.0230	0	34.3360	8	26.752	0	156.286	0	221.5	4	76.9	4	-1E+10	1	-1E+10	1	-1E+10	1	-1E+10	1	-1E+10	1	-1E+10	1
4901784	131	C	02/04/2019	10:42	-133.260	43.241	0	160.10	0	8.0210	0	34.3690	8	26.778	0	158.765	0	218.6	4	75.9	4	-1E+10	1	-1E+10	1	-1E+10	1	-1E+10	1	-1E+10	1	-1E+10	1
4901784	131	C	02/04/2019	10:42	-133.260	43.241	0	162.80	0	8.0410	0	34.4410	8	26.831	0	161.441	0	215.3	4	74.8	4	-1E+10	1	-1E+10	1	-1E+10	1	-1E+10	1	-1E+10	1	-1E+10	1
4901784	131	C	02/04/2019	10:42	-133.260	43.241	0	165.50	0	8.0530	0	34.4810	8	26.861	0	164.117	0	212.5	4	73.9	4	-1E+10	1	-1E+10	1	-1E+10	1	-1E+10	1	-1E+10	1	-1E+10	1
4901784	131	C	02/04/2019	10:42	-133.260	43.241	0	167.20	0	8.0690	0	34.5170	8	26.887	0	165.803	0	210.3	4	73.2	4	-1E+10	1	-1E+10	1	-1E+10	1	-1E+10	1	-1E+10	1	-1E+10	1
4901784	131	C	02/04/2019	10:42	-133.260	43.241	0	169.80	0	8.0840	0	34.5460	8	26.908	0	168.380	0	206.8	4	72.0	4	-1E+10	1	-1E+10	1	-1E+10	1	-1E+10	1	-1E+10	1	-1E+10	1
4901784	131	C	02/04/2019	10:42	-133.260	43.241	0	172.40	0	8.1150	0	34.6010	8	26.946	0	170.957	0	202.8	4	70.7	4	-1E+10	1	-1E+10	1	-1E+10	1	-1E+10	1	-1E+10	1	-1E+10	1
4901784	131	C	02/04/2019	10:42	-133.260	43.241	0	174.90	0	8.1560	0	34.6650	8	26.990	0	173.435	0	198.9	4	69.4	4	-1E+10	1	-1E+10	1	-1E+10	1	-1E+10	1	-1E+10	1	-1E+10	1
4901784	131	C	02/04/2019	10:42	-133.260	43.241	0	177.60	0	8.2010	0	34.7130	8	27.021	0	176.111	0	195.2	4	68.2	4	-1E+10	1	-1E+10	1	-1E+10	1	-1E+10	1	-1E+10	1	-1E+10	1
4901784	131	C	02/04/2019	10:42	-133.260	43.241	0	180.00	0	8.2270	0	34.7800	8	27.070	0	178.490	0	192.6	4	67.4	4	-1E+10	1	-1E+10	1	-1E+10	1	-1E+10	1	-1E+10	1	-1E+10	1
4901784	131	C	02/04/2019	10:42	-133.260	43.241	0	182.70	0	8.2470	0	34.7990	8	27.082	0	181.166	0	189.9	4	66.4	4	-1E+10	1	-1E+10	1	-1E+10	1	-1E+10	1	-1E+10	1	-1E+10	1
4901784	131	C	02/04/2019	10:42	-133.260	43.241	0	185.10	0	8.2650	0	34.8410	8	27.112	0	183.545	0	187.4	4	65.6	4	-1E+10	1	-1E+10	1	-1E+10	1	-1E+10	1	-1E+10	1	-1E+10	1
4901784	131	C	02/04/2019	10:42	-133.260	43.241	0	187.40	0	8.2790	0	34.8670	8	27.130	0	185.825	0	184.9	4	64.8	4	-1E+10	1	-1E+10	1	-1E+10	1	-1E+10	1	-1E+10	1	-1E+10	1
4901784	131	C	02/04/2019	10:42	-133.260	43.241	0	189.80	0	8.2930	0	34.8910	8	27.147	0	188.203	0	182.1	4	63.8	4	-1E+10	1	-1E+10	1	-1E+10	1	-1E+10	1	-1E+10	1	-1E+10	1
4901784	131	C	02/04/2019	10:42	-133.260	43.241	0	192.30	0	8.3120	0	34.9320	8	27.176	0	190.681	0	179.2	4	62.9	4	-1E+10	1	-1E+10	1	-1E+10	1	-1E+10	1	-1E+10	1	-1E+10	1
4901784	131	C	02/04/2019	10:42	-133.260	43.241	0	194.80	0	8.3200	0	34.9510	8	27.190	0	193.159	0	176.9	4	62.1	4	-1E+10	1	-1E+10	1	-1E+10	1	-1E+10	1	-1E+10	1	-1E+10	1
4901784	131	C	02/04/2019	10:42	-133.260	43.241	0	197.20	0	8.3210	0	34.9790	8	27.212	0	195.538	0	174.4	4	61.2	4	-1E+10	1	-1E+10	1	-1E+10	1	-1E+10	1	-1E+10	1	-1E+10	1
4901784	131	C	02/04/2019	10:42	-133.260	43.241	0	199.70	0	8.3190	0	35.0100	8	27.237	0	198.015	0	172.3	4	60.5	4	-1E+10	1	-1E+10	1	-1E+10	1	-1E+10	1	-1E+10	1	-1E+10	1
4901784	131	C	02/04/2019	10:42	-133.260	43.241	0	202.20	0	8.3140	0	35.0310	8	27.254	0	200.493	0	170.7	4	59.9	4	-1E+10	1	-1E+10	1	-1E+10	1	-1E+10	1	-1E+10	1	-1E+10	1
4901784	131	C	02/04/2019	10:42	-133.260	43.241	0	204.70	0	8.3060	0	35.0460	8	27.267	0	202.971	0	169.5	4	59.5	4	-1E+10	1	-1E+10	1	-1E+10	1	-1E+10	1	-1E+10	1	-1E+10	1
4901784	131	C	02/04/2019	10:42	-133.260	43.241	0	207.20	0	8.2940	0	35.0600	8	27.280	0	205.448	0	168.6	4	59.2	4	-1E+10	1	-1E+10	1	-1E+10	1	-1E+10	1	-1E+10	1	-1E+10	1
4901784	131	C	02/04/2019	10:42	-133.260	43.241	0	209.60	0	8.2880	0	35.0640	8	27.284	0	207.827	0	167.6	4	58.8	4	-1E+10	1	-1E+10	1	-1E+10	1	-1E+10	1	-1E+10	1	-1E+10	1
4901784	131	C	02/04/2019	10:42	-133.260	43.241	0	212.10	0	8.2830	0	35.0680	8	27.288	0	210.304	0	166.5	4	58.4	4	-1E+10	1	-1E+10	1	-1E+10	1	-1E+10	1	-1E+10	1	-1E+10	1
4901784	131	C	02/04/2019	10:42	-133.260	43.241	0	214.60	0	8.2710	0	35.0750	8	27.295	0	212.782	0	164.9	4	57.8	4	-1E+10	1	-1E+10	1	-1E+10	1	-1E+10	1	-1E+10	1	-1E+10	1
4901784	131	C	02/04/2019	10:42	-133.260	43.241	0	217.10	0	8.2240	0	35.0960	8	27.319	0	215.259	0	163.8	4	57.4	4	-1E+10	1	-1E+10	1	-1E+10	1	-1E+10	1	-1E+10	1	-1E+10	1
4901784	131	C	02/04/2019	10:42	-133.260	43.241	0	219.60	0	8.1900	0	35.1070	8	27.333	0	217.737	0	163.2	4	57.2	4	-1E+10	1	-1E+10	1	-1E+10	1	-1E+10	1	-1E+10	1	-1E+10	1
4901784	131	C	02/04/2019	10:42	-133.260	43.241	0	222.10	0	8.1590	0	35.1170	8	27.346	0	220.214	0	162.4	4	56.9	4	-1E+10	1	-1E+10	1	-1E+10	1	-1E+10	1	-1E+10	1	-1E+10	1
4901784	131	C	02/04/2019	10:42	-133.260	43.241	0	224.60	0	8.1250	0	35.1230	8	27.355	0	222.692	0	161.6	4	56.5	4	-1E+10	1	-1E+10	1	-1E+10	1	-1E+10	1	-1E+10	1	-1E+10	1
4901784	131	C	02/04/2019	10:42	-133.260	43.241	0	227.10	0	8.0830	0	35.1310	8	27.368	0	225.169	0	160.6	4	56.1	4	-1E+10	1	-1E+10	1	-1E+10	1	-1E+10	1	-1E+10	1	-1E+10	1
4901784	131	C	02/04/2019	10:42	-133.260	43.241	0	230.30	0	8.0440	0	35.1320	8	27.375	0	228.340	0	159.7	4	55.8	4	-1E+10	1	-1E+10	1	-1E+10	1	-1E+10	1	-1E+10	1	-1E+10	1
4901784	131	C	02/04/2019	10:42	-133.260	43.241	0	232.80	0	8.0150	0	35.1330	8	27.380	0	230.818	0	158.6	4	55.4	4	-1E+10	1	-1E+10	1	-1E+10	1	-1E+10	1	-1E+10	1	-1E+10	1
4901784	131	C	02/04/2019	10:42	-133.260	43.241	0	234.50	0	8.0060	0	35.1320	8	27.381	0	232.502	0	158.0	4	55.1	4	-1E+10	1	-1E+10	1	-1E+10	1	-1E+10	1	-1E+10	1	-1E+10	1
4901784	131	C	02/04/2019	10:42	-133.260	43.241	0	237.10	0	7.9720	0	35.1320	8	27.386	0	235.079	0	157.1	4	54.8	4	-1E+10	1	-1E+10	1	-1E+10	1	-1E+10	1	-1E+10	1	-1E+10	1
4901784	131	C	02/04/2019	10:42	-133.260	43.241	0	239.70	0	7.9470	0	35.1320	8	27.390	0	237.655	0	156.4	4	54.5	4	-1E+10	1	-1E+10	1	-1E+10	1	-1E+10	1	-1E+10	1	-1E+10	1
4901784	131	C	02/04/2019	10:42	-133.260	43.241	0	242.20	0	7.9030	0	35.1340	8	27.398	0	240.132	0	156.2	4	54.4	4	-1E+10	1	-1E+10	1	-1E+10	1	-1E+10	1	-1E+10	1	-1E+10	1
4901784	131	C	02/04/2019	10:42	-133.260	43.241	0	244.80	0	7.8920	0	35.1370	8	27.402	0	242.708	0	156.1	4	54.3	4	-1E+10	1	-1E+10	1	-1E+10	1	-1E+10	1	-1E+10	1	-1E+10	1
4901784	131	C	02/04/2019	10:42	-133.260	43.241	0	247.40	0	7.8910	0	35.1380	8	27.403	0	245.285	0	155.4	4	54.1	4	-1E+10	1	-1E+10	1	-1E+10	1	-1E+10	1	-1E+10	1	-1E+10	1
4901784	131	C	02/04/2019	10:42	-133.260	43.241	0	250.00	0	7.8880	0	35.1370	8	27.402	0	247.861	0	154.3	4	53.7	4	-1E+10	1	-1E+10	1	-1E+10	1	-1E+10	1	-1E+10	1	-1E+10	1
4901784	131	C	02/04/2019	10:42	-133.260	43.241	0	252.70	0	7.8230	0	35.1360	8	27.411	0	250.536	0	153.0	4	53.2	4	-1E+10	1	-1E+10	1	-1E+10	1	-1E+10	1	-1E+10	1	-1E+10	1
4901784	131	C	02/04/2019	10:42	-133.260	43.241	0	255.30	0	7.7850	0	35.1370	8	27.418	0	253.112	0	152.2	4	52.9	4	-1E+10	1	-1E+10	1	-1E+10	1	-1E+10	1	-1E+10	1	-1E+10	1
4901784	131	C	02/04/2019	10:42	-133.260	43.241	0	257.10	0	7.7560	0	35.1380	8	27.423	0	254.896	0	151.8	4	52.7	4	-1E+10	1	-1E+10	1	-1E+10	1	-1E+10	1	-1E+10	1	-1E+10	1
4901784	131	C	02/04/2019	10:42	-133.260	43.241	0	259.70	0	7.7280	0	35.1380	8	27.427	0	257.472	0	151.1	4	52.4	4	-1E+10	1	-1E+10	1	-1E+10	1	-1E+10	1	-1E+10	1	-1E+10	1
4901784	131	C	02/04/2019	10:42	-133.260	43.241	0	262.40	0	7.6850	0	35.1400	8	27.435	0	260.147	0	150.3	4	52.1	4	-1E+10	1	-1E+10	1	-1E+10	1	-1E+10	1	-1E+10	1	-1E+10	1
4901784	131	C	02/04/2019	10:42	-133.260	43.241	0	265.00	0	7.6190	0	35.1430	8	27.447	0	262.723	0	149.0	4	51.5	4	-1E+10	1	-1E+10	1	-1E+10	1	-1E+10	1	-1E+10	1	-1E+10	1
4901784	131	C	02/04/2019	10:42	-133.260	43.241	0	267.60	0	7.5960	0	35.1410	8	27.449	0	265.299	0	147.8	4	51.1	4	-1E+10	1	-1E+10	1	-1E+10	1	-1E+10	1	-1E+10	1	-1E+10	1
4901784	131	C	02/04/2019	10:42	-133.260	43.241	0	270.30	0	7.5490	0	35.1410	8	27.456	0	267.974	0	146.3	4	50.5	4	-1E+10	1	-1E+10	1	-1E+10	1	-1E+10	1	-1E+10	1	-1E+10	1
4901784	131	C	02/04/2019	10:42	-133.260	43.241	0	273.00	0	7.5040	0	35.1420	8	27.463	0	270.649	0	145.2	4	50.1	4	-1E+10	1	-1E+10	1	-1E+10	1	-1E+10	1	-1E+10	1	-1E+10	1
4901784	131	C	02/04/2019	10:42	-133.260	43.241	0	274.70	0	7.4870	0	35.1400	8	27.464	0	272.333	0	144.5	4	49.8	4	-1E+10	1	-1E+10	1	-1E+10	1	-1E+10	1	-1E+10	1	-1E+10	1
4901784	131	C	02/04/2019	10:42	-133.260	43.241	0	277.40	0	7.4520	0	35.1400	8	27.469	0	275.008	0	143.0	4	49.3	4	-1E+10	1	-1E+10	1	-1E+10	1	-1E+10	1	-1E+10	1	-1E+10	1
4901784	131	C	02/04/2019	10:42	-133.260	43.241	0	280.10	0	7.3970	0	35.1400	8	27.477	0	277.683	0	141.4	4	48.7	4	-1E+10	1	-1E+10	1	-1E+10	1	-1E+10	1	-1E+10	1	-1E+10	1
4901784	131	C	02/04/2019	10:42	-133.260	43.241	0	282.00	0	7.3670	0	35.1400	8	27.481	0	279.565	0	140.2	4	48.2	4	-1E+10	1	-1E+10	1	-1E+10	1	-1E+10	1	-1E+10	1	-1E+10	1
4901784	131	C	02/04/2019	10:42	-133.260	43.241	0	284.80	0	7.3230	0	35.1390	8	27.487	0	282.339	0	138.3	4	47.5	4	-1E+10	1	-1E+10	1	-1E+10	1	-1E+10	1	-1E+10	1	-1E+10	1
4901784	131	C	02/04/2019	10:42	-133.260	43.241	0	287.60	0	7.2160	0	35.1410	8	27.504	0	285.113	0	136.6	4	46.8	4	-1E+10	1	-1E+10	1	-1E+10	1	-1E+10	1	-1E+10	1	-1E+10	1
4901784	131	C	02/04/2019	10:42	-133.260	43.241	0	289.50	0	7.2090	0	35.1380	8	27.502	0	286.996	0	135.6	4	46.5	4	-1E+10	1	-1E+10	1	-1E+10	1	-1E+10	1	-1E+10	1	-1E+10	1
4901784	131	C	02/04/2019	10:42	-133.260	43.241	0	292.30	0	7.1470	0	35.1390	8	27.512	0	289.769	0	133.8	4	45.8	4	-1E+10	1	-1E+10	1	-1E+10	1	-1E+10	1	-1E+10	1	-1E+10	1
4901784	131	C	02/04/2019	10:42	-133.260	43.241	0	295.10	0	7.0770	0	35.1390	8	27.522	0	292.543	0	132.3	4	45.2	4	-1E+10	1	-1E+10	1	-1E+10	1	-1E+10	1	-1E+10	1	-1E+10	1
4901784	131	C	02/04/2019	10:42	-133.260	43.241	0	297.80	0	7.0060	0	35.1410	8	27.533	0	295.218	0	131.2	4	44.8	4	-1E+10	1	-1E+10	1	-1E+10	1	-1E+10	1	-1E+10	1	-1E+10	1
4901784	131	C	02/04/2019	10:42	-133.260	43.241	0	300.50	0	6.9500	0	35.1420	8	27.542	0	297.892	0	130.2	4	44.4	4	-1E+10	1	-1E+10	1	-1E+10	1	-1E+10	1	-1E+10	1	-1E+10	1
4901784	131	C	02/04/2019	10:42	-133.260	43.241	0	302.40	0	6.9350	0	35.1410	8	27.543	0	299.775	0	129.6	4	44.1	4	-1E+10	1	-1E+10	1	-1E+10	1	-1E+10	1	-1E+10	1	-1E+10	1
4901784	131	C	02/04/2019	10:42	-133.260	43.241	0	305.10	0	6.9200	0	35.1410	8	27.545	0	302.449	0	128.4	4	43.7	4	-1E+10	1	-1E+10	1	-1E+10	1	-1E+10	1	-1E+10	1	-1E+10	1
4901784	131	C	02/04/2019	10:42	-133.260	43.241	0	307.90	0	6.9040	0	35.1390	8	27.546	0	305.223	0	126.7	4	43.1	4	-1E+10	1	-1E+10	1	-1E+10	1	-1E+10	1	-1E+10	1	-1E+10	1
4901784	131	C	02/04/2019	10:42	-133.260	43.241	0	309.90	0	6.8740	0	35.1360	8	27.548	0	307.204	0	125.4	4	42.6	4	-1E+10	1	-1E+10	1	-1E+10	1	-1E+10	1	-1E+10	1	-1E+10	1
4901784	131	C	02/04/2019	10:42	-133.260	43.241	0	312.70	0	6.7640	0	35.1400	8	27.566	0	309.977	0	124.0	4	42.1	4	-1E+10	1	-1E+10	1	-1E+10	1	-1E+10	1	-1E+10	1	-1E+10	1
4901784	131	C	02/04/2019	10:42	-133.260	43.241	0	315.50	0	6.7270	0	35.1390	8	27.570	0	312.751	0	122.9	4	41.7	4	-1E+10	1	-1E+10	1	-1E+10	1	-1E+10	1	-1E+10	1	-1E+10	1
4901784	131	C	02/04/2019	10:42	-133.260	43.241	0	317.40	0	6.7070	0	35.1380	8	27.572	0	314.633	0	121.5	4	41.2	4	-1E+10	1	-1E+10	1	-1E+10	1	-1E+10	1	-1E+10	1	-1E+10	1
4901784	131	C	02/04/2019	10:42	-133.260	43.241	0	320.20	0	6.6580	0	35.1380	8	27.579	0	317.406	0	119.5	4	40.5	4	-1E+10	1	-1E+10	1	-1E+10	1	-1E+10	1	-1E+10	1	-1E+10	1
4901784	131	C	02/04/2019	10:42	-133.260	43.241	0	323.10	0	6.5760	0	35.1410	8	27.592	0	320.279	0	117.6	4	39.7	4	-1E+10	1	-1E+10	1	-1E+10	1	-1E+10	1	-1E+10	1	-1E+10	1
4901784	131	C	02/04/2019	10:42	-133.260	43.241	0	324.90	0	6.5310	0	35.1410	8	27.599	0	322.062	0	116.8	4	39.4	4	-1E+10	1	-1E+10	1	-1E+10	1	-1E+10	1	-1E+10	1	-1E+10	1
4901784	131	C	02/04/2019	10:42	-133.260	43.241	0	326.80	0	6.5220	0	35.1400	8	27.599	0	323.944	0	116.1	4	39.2	4	-1E+10	1	-1E+10	1	-1E+10	1	-1E+10	1	-1E+10	1	-1E+10	1
4901784	131	C	02/04/2019	10:42	-133.260	43.241	0	329.70	0	6.4830	0	35.1420	8	27.606	0	326.816	0	115.0	4	38.8	4	-1E+10	1	-1E+10	1	-1E+10	1	-1E+10	1	-1E+10	1	-1E+10	1
4901784	131	C	02/04/2019	10:42	-133.260	43.241	0	332.50	0	6.4610	0	35.1410	8	27.608	0	329.589	0	113.7	4	38.3	4	-1E+10	1	-1E+10	1	-1E+10	1	-1E+10	1	-1E+10	1	-1E+10	1
4901784	131	C	02/04/2019	10:42	-133.260	43.241	0	335.30	0	6.3890	0	35.1420	8	27.618	0	332.363	0	112.2	4	37.8	4	-1E+10	1	-1E+10	1	-1E+10	1	-1E+10	1	-1E+10	1	-1E+10	1
4901784	131	C	02/04/2019	10:42	-133.260	43.241	0	338.40	0	6.3320	0	35.1430	8	27.627	0	335.433	0	111.0	4	37.3	4	-1E+10	1	-1E+10	1	-1E+10	1	-1E+10	1	-1E+10	1	-1E+10	1
4901784	131	C	02/04/2019	10:42	-133.260	43.241	0	339.80	0	6.3260	0	35.1420	8	27.627	0	336.819	0	110.3	4	37.0	4	-1E+10	1	-1E+10	1	-1E+10	1	-1E+10	1	-1E+10	1	-1E+10	1
4901784	131	C	02/04/2019	10:42	-133.260	43.241	0	342.20	0	6.2750	0	35.1430	8	27.634	0	339.196	0	108.6	4	36.4	4	-1E+10	1	-1E+10	1	-1E+10	1	-1E+10	1	-1E+10	1	-1E+10	1
4901784	131	C	02/04/2019	10:42	-133.260	43.241	0	344.60	0	6.1930	0	35.1430	8	27.645	0	341.573	0	107.4	4	36.0	4	-1E+10	1	-1E+10	1	-1E+10	1	-1E+10	1	-1E+10	1	-1E+10	1
4901784	131	C	02/04/2019	10:42	-133.260	43.241	0	347.80	0	6.1300	0	35.1440	8	27.654	0	344.743	0	106.3	4	35.5	4	-1E+10	1	-1E+10	1	-1E+10	1	-1E+10	1	-1E+10	1	-1E+10	1
4901784	131	C	02/04/2019	10:42	-133.260	43.241	0	350.20	0	6.1110	0	35.1430	8	27.656	0	347.120	0	105.3	4	35.2	4	-1E+10	1	-1E+10	1	-1E+10	1	-1E+10	1	-1E+10	1	-1E+10	1
4901784	131	C	02/04/2019	10:42	-133.260	43.241	0	352.70	0	6.0720	0	35.1440	8	27.661	0	349.595	0	104.3	4	34.8	4	-1E+10	1	-1E+10	1	-1E+10	1	-1E+10	1	-1E+10	1	-1E+10	1
4901784	131	C	02/04/2019	10:42	-133.260	43.241	0	355.10	0	6.0440	0	35.1420	8	27.664	0	351.972	0	103.2	4	34.4	4	-1E+10	1	-1E+10	1	-1E+10	1	-1E+10	1	-1E+10	1	-1E+10	1
4901784	131	C	02/04/2019	10:42	-133.260	43.241	0	357.50	0	5.9830	0	35.1450	8	27.674	0	354.349	0	101.9	4	34.0	4	-1E+10	1	-1E+10	1	-1E+10	1	-1E+10	1	-1E+10	1	-1E+10	1
4901784	131	C	02/04/2019	10:42	-133.260	43.241	0	359.90	0	5.9420	0	35.1450	8	27.679	0	356.726	0	101.0	4	33.6	4	-1E+10	1	-1E+10	1	-1E+10	1	-1E+10	1	-1E+10	1	-1E+10	1
4901784	131	C	02/04/2019	10:42	-133.260	43.241	0	362.40	0	5.9100	0	35.1470	8	27.685	0	359.202	0	100.2	4	33.4	4	-1E+10	1	-1E+10	1	-1E+10	1	-1E+10	1	-1E+10	1	-1E+10	1
4901784	131	C	02/04/2019	10:42	-133.260	43.241	0	364.90	0	5.8920	0	35.1480	8	27.688	0	361.677	0	99.4	4	33.1	4	-1E+10	1	-1E+10	1	-1E+10	1	-1E+10	1	-1E+10	1	-1E+10	1
4901784	131	C	02/04/2019	10:42	-133.260	43.241	0	367.40	0	5.8590	0	35.1480	8	27.692	0	364.153	0	98.6	4	32.8	4	-1E+10	1	-1E+10	1	-1E+10	1	-1E+10	1	-1E+10	1	-1E+10	1
4901784	131	C	02/04/2019	10:42	-133.260	43.241	0	369.90	0	5.8270	0	35.1480	8	27.696	0	366.629	0	97.7	4	32.4	4	-1E+10	1	-1E+10	1	-1E+10	1	-1E+10	1	-1E+10	1	-1E+10	1
4901784	131	C	02/04/2019	10:42	-133.260	43.241	0	372.50	0	5.8030	0	35.1480	8	27.699	0	369.204	0	96.7	4	32.1	4	-1E+10	1	-1E+10	1	-1E+10	1	-1E+10	1	-1E+10	1	-1E+10	1
4901784	131	C	02/04/2019	10:42	-133.260	43.241	0	375.00	0	5.7650	0	35.1490	8	27.705	0	371.679	0	95.9	4	31.8	4	-1E+10	1	-1E+10	1	-1E+10	1	-1E+10	1	-1E+10	1	-1E+10	1
4901784	131	C	02/04/2019	10:42	-133.260	43.241	0	377.60	0	5.7340	0	35.1510	8	27.710	0	374.254	0	95.2	4	31.5	4	-1E+10	1	-1E+10	1	-1E+10	1	-1E+10	1	-1E+10	1	-1E+10	1
4901784	131	C	02/04/2019	10:42	-133.260	43.241	0	380.10	0	5.7160	0	35.1510	8	27.712	0	376.729	0	94.4	4	31.3	4	-1E+10	1	-1E+10	1	-1E+10	1	-1E+10	1	-1E+10	1	-1E+10	1
4901784	131	C	02/04/2019	10:42	-133.260	43.241	0	382.60	0	5.6890	0	35.1530	8	27.717	0	379.205	0	93.3	4	30.9	4	-1E+10	1	-1E+10	1	-1E+10	1	-1E+10	1	-1E+10	1	-1E+10	1
4901784	131	C	02/04/2019	10:42	-133.260	43.241	0	385.20	0	5.6470	0	35.1530	8	27.723	0	381.779	0	92.2	4	30.5	4	-1E+10	1	-1E+10	1	-1E+10	1	-1E+10	1	-1E+10	1	-1E+10	1
4901784	131	C	02/04/2019	10:42	-133.260	43.241	0	387.80	0	5.6410	0	35.1520	8	27.723	0	384.354	0	91.0	4	30.1	4	-1E+10	1	-1E+10	1	-1E+10	1	-1E+10	1	-1E+10	1	-1E+10	1
4901784	131	C	02/04/2019	10:42	-133.260	43.241	0	390.40	0	5.5800	0	35.1560	8	27.733	0	386.928	0	89.6	4	29.6	4	-1E+10	1	-1E+10	1	-1E+10	1	-1E+10	1	-1E+10	1	-1E+10	1
4901784	131	C	02/04/2019	10:42	-133.260	43.241	0	392.00	0	5.5510	0	35.1570	8	27.738	0	388.513	0	88.9	4	29.3	4	-1E+10	1	-1E+10	1	-1E+10	1	-1E+10	1	-1E+10	1	-1E+10	1
4901784	131	C	02/04/2019	10:42	-133.260	43.241	0	394.60	0	5.5210	0	35.1580	8	27.742	0	391.087	0	88.4	4	29.1	4	-1E+10	1	-1E+10	1	-1E+10	1	-1E+10	1	-1E+10	1	-1E+10	1
4901784	131	C	02/04/2019	10:42	-133.260	43.241	0	397.20	0	5.5110	0	35.1580	8	27.743	0	393.662	0	87.9	4	29.0	4	-1E+10	1	-1E+10	1	-1E+10	1	-1E+10	1	-1E+10	1	-1E+10	1
4901784	131	C	02/04/2019	10:42	-133.260	43.241	0	399.70	0	5.5090	0	35.1580	8	27.744	0	396.137	0	87.3	4	28.8	4	-1E+10	1	-1E+10	1	-1E+10	1	-1E+10	1	-1E+10	1	-1E+10	1
4901784	131	C	02/04/2019	10:42	-133.260	43.241	0	402.20	0	5.4870	0	35.1600	8	27.748	0	398.612	0	86.4	4	28.5	4	-1E+10	1	-1E+10	1	-1E+10	1	-1E+10	1	-1E+10	1	-1E+10	1
4901784	131	C	02/04/2019	10:42	-133.260	43.241	0	404.70	0	5.4650	0	35.1600	8	27.751	0	401.087	0	85.8	4	28.3	4	-1E+10	1	-1E+10	1	-1E+10	1	-1E+10	1	-1E+10	1	-1E+10	1
4901784	131	C	02/04/2019	10:42	-133.260	43.241	0	407.20	0	5.4450	0	35.1610	8	27.754	0	403.563	0	85.2	4	28.0	4	-1E+10	1	-1E+10	1	-1E+10	1	-1E+10	1	-1E+10	1	-1E+10	1
4901784	131	C	02/04/2019	10:42	-133.260	43.241	0	409.70	0	5.4260	0	35.1620	8	27.757	0	406.038	0	84.4	4	27.8	4	-1E+10	1	-1E+10	1	-1E+10	1	-1E+10	1	-1E+10	1	-1E+10	1
4901784	131	C	02/04/2019	10:42	-133.260	43.241	0	412.20	0	5.4140	0	35.1620	8	27.759	0	408.513	0	83.7	4	27.5	4	-1E+10	1	-1E+10	1	-1E+10	1	-1E+10	1	-1E+10	1	-1E+10	1
4901784	131	C	02/04/2019	10:42	-133.260	43.241	0	414.80	0	5.3920	0	35.1620	8	27.761	0	411.087	0	82.4	4	27.1	4	-1E+10	1	-1E+10	1	-1E+10	1	-1E+10	1	-1E+10	1	-1E+10	1
4901784	131	C	02/04/2019	10:42	-133.260	43.241	0	417.30	0	5.3350	0	35.1660	8	27.771	0	413.562	0	81.5	4	26.8	4	-1E+10	1	-1E+10	1	-1E+10	1	-1E+10	1	-1E+10	1	-1E+10	1
4901784	131	C	02/04/2019	10:42	-133.260	43.241	0	419.90	0	5.3220	0	35.1670	8	27.774	0	416.137	0	81.1	4	26.6	4	-1E+10	1	-1E+10	1	-1E+10	1	-1E+10	1	-1E+10	1	-1E+10	1
4901784	131	C	02/04/2019	10:42	-133.260	43.241	0	422.50	0	5.3070	0	35.1680	8	27.776	0	418.711	0	80.7	4	26.5	4	-1E+10	1	-1E+10	1	-1E+10	1	-1E+10	1	-1E+10	1	-1E+10	1
4901784	131	C	02/04/2019	10:42	-133.260	43.241	0	425.00	0	5.2840	0	35.1700	8	27.781	0	421.186	0	80.4	4	26.4	4	-1E+10	1	-1E+10	1	-1E+10	1	-1E+10	1	-1E+10	1	-1E+10	1
4901784	131	C	02/04/2019	10:42	-133.260	43.241	0	427.40	0	5.2660	0	35.1710	8	27.784	0	423.562	0	80.3	4	26.3	4	-1E+10	1	-1E+10	1	-1E+10	1	-1E+10	1	-1E+10	1	-1E+10	1
4901784	131	C	02/04/2019	10:42	-133.260	43.241	0	430.00	0	5.2590	0	35.1710	8	27.785	0	426.136	0	79.8	4	26.2	4	-1E+10	1	-1E+10	1	-1E+10	1	-1E+10	1	-1E+10	1	-1E+10	1
4901784	131	C	02/04/2019	10:42	-133.260	43.241	0	432.50	0	5.2430	0	35.1710	8	27.787	0	428.611	0	78.9	4	25.8	4	-1E+10	1	-1E+10	1	-1E+10	1	-1E+10	1	-1E+10	1	-1E+10	1
4901784	131	C	02/04/2019	10:42	-133.260	43.241	0	435.00	0	5.2180	0	35.1730	8	27.791	0	431.086	0	77.2	4	25.3	4	-1E+10	1	-1E+10	1	-1E+10	1	-1E+10	1	-1E+10	1	-1E+10	1
4901784	131	C	02/04/2019	10:42	-133.260	43.241	0	437.50	0	5.1840	0	35.1740	8	27.796	0	433.560	0	75.4	4	24.7	4	-1E+10	1	-1E+10	1	-1E+10	1	-1E+10	1	-1E+10	1	-1E+10	1
4901784	131	C	02/04/2019	10:42	-133.260	43.241	0	440.10	0	5.1470	0	35.1800	8	27.805	0	436.134	0	74.2	4	24.3	4	-1E+10	1	-1E+10	1	-1E+10	1	-1E+10	1	-1E+10	1	-1E+10	1
4901784	131	C	02/04/2019	10:42	-133.260	43.241	0	442.60	0	5.1030	0	35.1850	8	27.814	0	438.609	0	73.2	4	23.9	4	-1E+10	1	-1E+10	1	-1E+10	1	-1E+10	1	-1E+10	1	-1E+10	1
4901784	131	C	02/04/2019	10:42	-133.260	43.241	0	445.10	0	5.0950	0	35.1870	8	27.817	0	441.084	0	72.4	4	23.6	4	-1E+10	1	-1E+10	1	-1E+10	1	-1E+10	1	-1E+10	1	-1E+10	1
4901784	131	C	02/04/2019	10:42	-133.260	43.241	0	447.60	0	5.0820	0	35.1870	8	27.818	0	443.559	0	71.6	4	23.4	4	-1E+10	1	-1E+10	1	-1E+10	1	-1E+10	1	-1E+10	1	-1E+10	1
4901784	131	C	02/04/2019	10:42	-133.260	43.241	0	450.20	0	5.0580	0	35.1910	8	27.824	0	446.132	0	70.6	4	23.0	4	-1E+10	1	-1E+10	1	-1E+10	1	-1E+10	1	-1E+10	1	-1E+10	1
4901784	131	C	02/04/2019	10:42	-133.260	43.241	0	452.80	0	5.0380	0	35.1950	8	27.830	0	448.706	0	69.3	4	22.6	4	-1E+10	1	-1E+10	1	-1E+10	1	-1E+10	1	-1E+10	1	-1E+10	1
4901784	131	C	02/04/2019	10:42	-133.260	43.241	0	455.40	0	5.0350	0	35.1950	8	27.830	0	451.280	0	68.3	4	22.3	4	-1E+10	1	-1E+10	1	-1E+10	1	-1E+10	1	-1E+10	1	-1E+10	1
4901784	131	C	02/04/2019	10:42	-133.260	43.241	0	457.90	0	5.0120	0	35.1980	8	27.835	0	453.754	0	66.9	4	21.8	4	-1E+10	1	-1E+10	1	-1E+10	1	-1E+10	1	-1E+10	1	-1E+10	1
4901784	131	C	02/04/2019	10:42	-133.260	43.241	0	459.60	0	5.0130	0	35.2020	8	27.838	0	455.437	0	65.8	4	21.4	4	-1E+10	1	-1E+10	1	-1E+10	1	-1E+10	1	-1E+10	1	-1E+10	1
4901784	131	C	02/04/2019	10:42	-133.260	43.241	0	462.20	0	4.9980	0	35.2050	8	27.843	0	458.011	0	65.2	4	21.2	4	-1E+10	1	-1E+10	1	-1E+10	1	-1E+10	1	-1E+10	1	-1E+10	1
4901784	131	C	02/04/2019	10:42	-133.260	43.241	0	464.80	0	4.9850	0	35.2060	8	27.845	0	460.584	0	64.4	4	21.0	4	-1E+10	1	-1E+10	1	-1E+10	1	-1E+10	1	-1E+10	1	-1E+10	1
4901784	131	C	02/04/2019	10:42	-133.260	43.241	0	467.30	0	4.9680	0	35.2080	8	27.849	0	463.059	0	63.3	4	20.6	4	-1E+10	1	-1E+10	1	-1E+10	1	-1E+10	1	-1E+10	1	-1E+10	1
4901784	131	C	02/04/2019	10:42	-133.260	43.241	0	469.90	0	4.9500	0	35.2130	8	27.855	0	465.632	0	62.1	4	20.2	4	-1E+10	1	-1E+10	1	-1E+10	1	-1E+10	1	-1E+10	1	-1E+10	1
4901784	131	C	02/04/2019	10:42	-133.260	43.241	0	472.40	0	4.9490	0	35.2150	8	27.856	0	468.107	0	61.3	4	19.9	4	-1E+10	1	-1E+10	1	-1E+10	1	-1E+10	1	-1E+10	1	-1E+10	1
4901784	131	C	02/04/2019	10:42	-133.260	43.241	0	474.90	0	4.9190	0	35.2200	8	27.864	0	470.581	0	60.6	4	19.7	4	-1E+10	1	-1E+10	1	-1E+10	1	-1E+10	1	-1E+10	1	-1E+10	1
4901784	131	C	02/04/2019	10:42	-133.260	43.241	0	477.50	0	4.9170	0	35.2220	8	27.866	0	473.155	0	59.9	4	19.5	4	-1E+10	1	-1E+10	1	-1E+10	1	-1E+10	1	-1E+10	1	-1E+10	1
4901784	131	C	02/04/2019	10:42	-133.260	43.241	0	480.00	0	4.9110	0	35.2240	8	27.868	0	475.629	0	59.3	4	19.3	4	-1E+10	1	-1E+10	1	-1E+10	1	-1E+10	1	-1E+10	1	-1E+10	1
4901784	131	C	02/04/2019	10:42	-133.260	43.241	0	482.60	0	4.9090	0	35.2250	8	27.869	0	478.202	0	58.8	4	19.1	4	-1E+10	1	-1E+10	1	-1E+10	1	-1E+10	1	-1E+10	1	-1E+10	1
4901784	131	C	02/04/2019	10:42	-133.260	43.241	0	485.20	0	4.8940	0	35.2280	8	27.873	0	480.776	0	58.0	4	18.9	4	-1E+10	1	-1E+10	1	-1E+10	1	-1E+10	1	-1E+10	1	-1E+10	1
4901784	131	C	02/04/2019	10:42	-133.260	43.241	0	487.80	0	4.8860	0	35.2310	8	27.876	0	483.349	0	57.4	4	18.6	4	-1E+10	1	-1E+10	1	-1E+10	1	-1E+10	1	-1E+10	1	-1E+10	1
4901784	131	C	02/04/2019	10:42	-133.260	43.241	0	490.30	0	4.8800	0	35.2320	8	27.878	0	485.823	0	56.7	4	18.4	4	-1E+10	1	-1E+10	1	-1E+10	1	-1E+10	1	-1E+10	1	-1E+10	1
4901784	131	C	02/04/2019	10:42	-133.260	43.241	0	492.80	0	4.8730	0	35.2320	8	27.879	0	488.297	0	55.6	4	18.1	4	-1E+10	1	-1E+10	1	-1E+10	1	-1E+10	1	-1E+10	1	-1E+10	1
4901784	131	C	02/04/2019	10:42	-133.260	43.241	0	495.40	0	4.8560	0	35.2380	8	27.886	0	490.871	0	54.4	4	17.7	4	-1E+10	1	-1E+10	1	-1E+10	1	-1E+10	1	-1E+10	1	-1E+10	1
4901784	131	C	02/04/2019	10:42	-133.260	43.241	0	497.10	0	4.8500	0	35.2400	8	27.888	0	492.553	0	53.7	4	17.4	4	-1E+10	1	-1E+10	1	-1E+10	1	-1E+10	1	-1E+10	1	-1E+10	1
4901784	131	C	02/04/2019	10:42	-133.260	43.241	0	499.80	0	4.8320	0	35.2450	8	27.894	0	495.225	0	52.7	4	17.1	4	-1E+10	1	-1E+10	1	-1E+10	1	-1E+10	1	-1E+10	1	-1E+10	1
4901784	131	C	02/04/2019	10:42	-133.260	43.241	0	505.00	0	4.8110	0	35.2500	8	27.900	0	500.371	0	51.2	4	16.6	4	-1E+10	1	-1E+10	1	-1E+10	1	-1E+10	1	-1E+10	1	-1E+10	1
4901784	131	C	02/04/2019	10:42	-133.260	43.241	0	509.20	0	4.7930	0	35.2560	8	27.907	0	504.528	0	49.9	4	16.2	4	-1E+10	1	-1E+10	1	-1E+10	1	-1E+10	1	-1E+10	1	-1E+10	1
4901784	131	C	02/04/2019	10:42	-133.260	43.241	0	514.40	0	4.7610	0	35.2620	8	27.916	0	509.674	0	48.2	4	15.6	4	-1E+10	1	-1E+10	1	-1E+10	1	-1E+10	1	-1E+10	1	-1E+10	1
4901784	131	C	02/04/2019	10:42	-133.260	43.241	0	519.70	0	4.7510	0	35.2680	8	27.922	0	514.918	0	46.8	4	15.2	4	-1E+10	1	-1E+10	1	-1E+10	1	-1E+10	1	-1E+10	1	-1E+10	1
4901784	131	C	02/04/2019	10:42	-133.260	43.241	0	524.90	0	4.7280	0	35.2720	8	27.927	0	520.064	0	45.9	4	14.9	4	-1E+10	1	-1E+10	1	-1E+10	1	-1E+10	1	-1E+10	1	-1E+10	1
4901784	131	C	02/04/2019	10:42	-133.260	43.241	0	530.30	0	4.7020	0	35.2760	8	27.934	0	525.407	0	44.9	4	14.5	4	-1E+10	1	-1E+10	1	-1E+10	1	-1E+10	1	-1E+10	1	-1E+10	1
4901784	131	C	02/04/2019	10:42	-133.260	43.241	0	535.70	0	4.6620	0	35.2820	8	27.943	0	530.751	0	44.0	4	14.2	4	-1E+10	1	-1E+10	1	-1E+10	1	-1E+10	1	-1E+10	1	-1E+10	1
4901784	131	C	02/04/2019	10:42	-133.260	43.241	0	540.20	0	4.6460	0	35.2850	8	27.947	0	535.203	0	43.3	4	14.0	4	-1E+10	1	-1E+10	1	-1E+10	1	-1E+10	1	-1E+10	1	-1E+10	1
4901784	131	C	02/04/2019	10:42	-133.260	43.241	0	544.80	0	4.6340	0	35.2870	8	27.950	0	539.755	0	42.7	4	13.8	4	-1E+10	1	-1E+10	1	-1E+10	1	-1E+10	1	-1E+10	1	-1E+10	1
4901784	131	C	02/04/2019	10:42	-133.260	43.241	0	549.90	0	4.6190	0	35.2900	8	27.954	0	544.801	0	41.4	4	13.4	4	-1E+10	1	-1E+10	1	-1E+10	1	-1E+10	1	-1E+10	1	-1E+10	1
4901784	131	C	02/04/2019	10:42	-133.260	43.241	0	554.60	0	4.5950	0	35.2970	8	27.963	0	549.451	0	40.0	4	12.9	4	-1E+10	1	-1E+10	1	-1E+10	1	-1E+10	1	-1E+10	1	-1E+10	1
4901784	131	C	02/04/2019	10:42	-133.260	43.241	0	560.10	0	4.5800	0	35.3040	8	27.970	0	554.893	0	38.4	4	12.4	4	-1E+10	1	-1E+10	1	-1E+10	1	-1E+10	1	-1E+10	1	-1E+10	1
4901784	131	C	02/04/2019	10:42	-133.260	43.241	0	565.70	0	4.5760	0	35.3110	8	27.976	0	560.433	0	36.6	4	11.8	4	-1E+10	1	-1E+10	1	-1E+10	1	-1E+10	1	-1E+10	1	-1E+10	1
4901784	131	C	02/04/2019	10:42	-133.260	43.241	0	570.60	0	4.5770	0	35.3150	8	27.979	0	565.281	0	35.1	4	11.3	4	-1E+10	1	-1E+10	1	-1E+10	1	-1E+10	1	-1E+10	1	-1E+10	1
4901784	131	C	02/04/2019	10:42	-133.260	43.241	0	575.40	0	4.5590	0	35.3230	8	27.987	0	570.030	0	33.3	4	10.8	4	-1E+10	1	-1E+10	1	-1E+10	1	-1E+10	1	-1E+10	1	-1E+10	1
4901784	131	C	02/04/2019	10:42	-133.260	43.241	0	580.20	0	4.5150	0	35.3310	8	27.999	0	574.778	0	32.4	4	10.5	4	-1E+10	1	-1E+10	1	-1E+10	1	-1E+10	1	-1E+10	1	-1E+10	1
4901784	131	C	02/04/2019	10:42	-133.260	43.241	0	585.20	0	4.4900	0	35.3340	8	28.004	0	579.724	0	31.7	4	10.2	4	-1E+10	1	-1E+10	1	-1E+10	1	-1E+10	1	-1E+10	1	-1E+10	1
4901784	131	C	02/04/2019	10:42	-133.260	43.241	0	590.20	0	4.4690	0	35.3370	8	28.009	0	584.671	0	30.6	4	9.9	4	-1E+10	1	-1E+10	1	-1E+10	1	-1E+10	1	-1E+10	1	-1E+10	1
4901784	131	C	02/04/2019	10:42	-133.260	43.241	0	595.20	0	4.4470	0	35.3450	8	28.017	0	589.617	0	29.4	4	9.5	4	-1E+10	1	-1E+10	1	-1E+10	1	-1E+10	1	-1E+10	1	-1E+10	1
4901784	131	C	02/04/2019	10:42	-133.260	43.241	0	600.30	0	4.4310	0	35.3500	8	28.023	0	594.662	0	28.4	4	9.2	4	-1E+10	1	-1E+10	1	-1E+10	1	-1E+10	1	-1E+10	1	-1E+10	1
4901784	131	C	02/04/2019	10:42	-133.260	43.241	0	605.50	0	4.4150	0	35.3570	8	28.031	0	599.805	0	27.3	4	8.8	4	-1E+10	1	-1E+10	1	-1E+10	1	-1E+10	1	-1E+10	1	-1E+10	1
4901784	131	C	02/04/2019	10:42	-133.260	43.241	0	610.60	0	4.4000	0	35.3620	8	28.036	0	604.850	0	26.5	4	8.5	4	-1E+10	1	-1E+10	1	-1E+10	1	-1E+10	1	-1E+10	1	-1E+10	1
4901784	131	C	02/04/2019	10:42	-133.260	43.241	0	615.80	0	4.3870	0	35.3680	8	28.043	0	609.993	0	25.6	4	8.2	4	-1E+10	1	-1E+10	1	-1E+10	1	-1E+10	1	-1E+10	1	-1E+10	1
4901784	131	C	02/04/2019	10:42	-133.260	43.241	0	620.10	0	4.3730	0	35.3720	8	28.047	0	614.246	0	25.1	4	8.1	4	-1E+10	1	-1E+10	1	-1E+10	1	-1E+10	1	-1E+10	1	-1E+10	1
4901784	131	C	02/04/2019	10:42	-133.260	43.241	0	624.50	0	4.3640	0	35.3770	8	28.052	0	618.598	0	24.7	4	7.9	4	-1E+10	1	-1E+10	1	-1E+10	1	-1E+10	1	-1E+10	1	-1E+10	1
4901784	131	C	02/04/2019	10:42	-133.260	43.241	0	629.80	0	4.3600	0	35.3780	8	28.054	0	623.840	0	24.2	4	7.8	4	-1E+10	1	-1E+10	1	-1E+10	1	-1E+10	1	-1E+10	1	-1E+10	1
4901784	131	C	02/04/2019	10:42	-133.260	43.241	0	635.10	0	4.3460	0	35.3820	8	28.058	0	629.082	0	23.7	4	7.6	4	-1E+10	1	-1E+10	1	-1E+10	1	-1E+10	1	-1E+10	1	-1E+10	1
4901784	131	C	02/04/2019	10:42	-133.260	43.241	0	640.30	0	4.3360	0	35.3860	8	28.063	0	634.225	0	22.9	4	7.4	4	-1E+10	1	-1E+10	1	-1E+10	1	-1E+10	1	-1E+10	1	-1E+10	1
4901784	131	C	02/04/2019	10:42	-133.260	43.241	0	645.60	0	4.3180	0	35.3940	8	28.071	0	639.467	0	22.3	4	7.2	4	-1E+10	1	-1E+10	1	-1E+10	1	-1E+10	1	-1E+10	1	-1E+10	1
4901784	131	C	02/04/2019	10:42	-133.260	43.241	0	650.10	0	4.3110	0	35.3960	8	28.073	0	643.917	0	22.0	4	7.1	4	-1E+10	1	-1E+10	1	-1E+10	1	-1E+10	1	-1E+10	1	-1E+10	1
4901784	131	C	02/04/2019	10:42	-133.260	43.241	0	654.50	0	4.3020	0	35.3990	8	28.077	0	648.268	0	21.6	4	6.9	4	-1E+10	1	-1E+10	1	-1E+10	1	-1E+10	1	-1E+10	1	-1E+10	1
4901784	131	C	02/04/2019	10:42	-133.260	43.241	0	659.90	0	4.2860	0	35.4030	8	28.082	0	653.608	0	21.4	4	6.9	4	-1E+10	1	-1E+10	1	-1E+10	1	-1E+10	1	-1E+10	1	-1E+10	1
4901784	131	C	02/04/2019	10:42	-133.260	43.241	0	665.30	0	4.2470	0	35.4060	8	28.088	0	658.948	0	21.2	4	6.8	4	-1E+10	1	-1E+10	1	-1E+10	1	-1E+10	1	-1E+10	1	-1E+10	1
4901784	131	C	02/04/2019	10:42	-133.260	43.241	0	669.90	0	4.2220	0	35.4110	8	28.095	0	663.497	0	20.9	4	6.7	4	-1E+10	1	-1E+10	1	-1E+10	1	-1E+10	1	-1E+10	1	-1E+10	1
4901784	131	C	02/04/2019	10:42	-133.260	43.241	0	674.50	0	4.2180	0	35.4140	8	28.098	0	668.046	0	20.4	4	6.5	4	-1E+10	1	-1E+10	1	-1E+10	1	-1E+10	1	-1E+10	1	-1E+10	1
4901784	131	C	02/04/2019	10:42	-133.260	43.241	0	680.20	0	4.2070	0	35.4170	8	28.102	0	673.682	0	19.9	4	6.4	4	-1E+10	1	-1E+10	1	-1E+10	1	-1E+10	1	-1E+10	1	-1E+10	1
4901784	131	C	02/04/2019	10:42	-133.260	43.241	0	685.00	0	4.1960	0	35.4230	8	28.108	0	678.428	0	19.2	4	6.2	4	-1E+10	1	-1E+10	1	-1E+10	1	-1E+10	1	-1E+10	1	-1E+10	1
4901784	131	C	02/04/2019	10:42	-133.260	43.241	0	689.70	0	4.1700	0	35.4300	8	28.116	0	683.075	0	18.7	4	6.0	4	-1E+10	1	-1E+10	1	-1E+10	1	-1E+10	1	-1E+10	1	-1E+10	1
4901784	131	C	02/04/2019	10:42	-133.260	43.241	0	695.40	0	4.1590	0	35.4370	8	28.123	0	688.711	0	18.0	4	5.8	4	-1E+10	1	-1E+10	1	-1E+10	1	-1E+10	1	-1E+10	1	-1E+10	1
4901784	131	C	02/04/2019	10:42	-133.260	43.241	0	700.40	0	4.1530	0	35.4420	8	28.127	0	693.655	0	17.5	4	5.6	4	-1E+10	1	-1E+10	1	-1E+10	1	-1E+10	1	-1E+10	1	-1E+10	1
4901784	131	C	02/04/2019	10:42	-133.260	43.241	0	704.90	0	4.1500	0	35.4480	8	28.133	0	698.104	0	16.8	4	5.4	4	-1E+10	1	-1E+10	1	-1E+10	1	-1E+10	1	-1E+10	1	-1E+10	1
4901784	131	C	02/04/2019	10:42	-133.260	43.241	0	709.70	0	4.1480	0	35.4540	8	28.138	0	702.850	0	16.3	4	5.2	4	-1E+10	1	-1E+10	1	-1E+10	1	-1E+10	1	-1E+10	1	-1E+10	1
4901784	131	C	02/04/2019	10:42	-133.260	43.241	0	714.60	0	4.1360	0	35.4590	8	28.143	0	707.694	0	16.0	4	5.1	4	-1E+10	1	-1E+10	1	-1E+10	1	-1E+10	1	-1E+10	1	-1E+10	1
4901784	131	C	02/04/2019	10:42	-133.260	43.241	0	719.40	0	4.1220	0	35.4630	8	28.148	0	712.439	0	15.7	4	5.0	4	-1E+10	1	-1E+10	1	-1E+10	1	-1E+10	1	-1E+10	1	-1E+10	1
4901784	131	C	02/04/2019	10:42	-133.260	43.241	0	724.20	0	4.1120	0	35.4660	8	28.151	0	717.185	0	15.5	4	5.0	4	-1E+10	1	-1E+10	1	-1E+10	1	-1E+10	1	-1E+10	1	-1E+10	1
4901784	131	C	02/04/2019	10:42	-133.260	43.241	0	729.20	0	4.0950	0	35.4710	8	28.157	0	722.128	0	15.2	4	4.9	4	-1E+10	1	-1E+10	1	-1E+10	1	-1E+10	1	-1E+10	1	-1E+10	1
4901784	131	C	02/04/2019	10:42	-133.260	43.241	0	734.20	0	4.0850	0	35.4750	8	28.161	0	727.070	0	15.0	4	4.8	4	-1E+10	1	-1E+10	1	-1E+10	1	-1E+10	1	-1E+10	1	-1E+10	1
4901784	131	C	02/04/2019	10:42	-133.260	43.241	0	739.20	0	4.0710	0	35.4790	8	28.166	0	732.013	0	14.7	4	4.7	4	-1E+10	1	-1E+10	1	-1E+10	1	-1E+10	1	-1E+10	1	-1E+10	1
4901784	131	C	02/04/2019	10:42	-133.260	43.241	0	744.30	0	4.0570	0	35.4830	8	28.171	0	737.055	0	14.4	4	4.6	4	-1E+10	1	-1E+10	1	-1E+10	1	-1E+10	1	-1E+10	1	-1E+10	1
4901784	131	C	02/04/2019	10:42	-133.260	43.241	0	749.30	0	4.0390	0	35.4890	8	28.177	0	741.997	0	14.2	4	4.5	4	-1E+10	1	-1E+10	1	-1E+10	1	-1E+10	1	-1E+10	1	-1E+10	1
4901784	131	C	02/04/2019	10:42	-133.260	43.241	0	754.40	0	4.0220	0	35.4930	8	28.182	0	747.038	0	14.0	4	4.5	4	-1E+10	1	-1E+10	1	-1E+10	1	-1E+10	1	-1E+10	1	-1E+10	1
4901784	131	C	02/04/2019	10:42	-133.260	43.241	0	759.50	0	4.0100	0	35.4960	8	28.186	0	752.079	0	13.8	4	4.4	4	-1E+10	1	-1E+10	1	-1E+10	1	-1E+10	1	-1E+10	1	-1E+10	1
4901784	131	C	02/04/2019	10:42	-133.260	43.241	0	764.60	0	4.0000	0	35.4990	8	28.190	0	757.120	0	13.6	4	4.3	4	-1E+10	1	-1E+10	1	-1E+10	1	-1E+10	1	-1E+10	1	-1E+10	1
4901784	131	C	02/04/2019	10:42	-133.260	43.241	0	769.70	0	3.9880	0	35.5020	8	28.193	0	762.161	0	13.4	4	4.3	4	-1E+10	1	-1E+10	1	-1E+10	1	-1E+10	1	-1E+10	1	-1E+10	1
4901784	131	C	02/04/2019	10:42	-133.260	43.241	0	774.80	0	3.9730	0	35.5080	8	28.200	0	767.202	0	13.2	4	4.2	4	-1E+10	1	-1E+10	1	-1E+10	1	-1E+10	1	-1E+10	1	-1E+10	1
4901784	131	C	02/04/2019	10:42	-133.260	43.241	0	780.00	0	3.9650	0	35.5130	8	28.205	0	772.341	0	13.0	4	4.1	4	-1E+10	1	-1E+10	1	-1E+10	1	-1E+10	1	-1E+10	1	-1E+10	1
4901784	131	C	02/04/2019	10:42	-133.260	43.241	0	785.20	0	3.9630	0	35.5160	8	28.207	0	777.480	0	12.9	4	4.1	4	-1E+10	1	-1E+10	1	-1E+10	1	-1E+10	1	-1E+10	1	-1E+10	1
4901784	131	C	02/04/2019	10:42	-133.260	43.241	0	790.30	0	3.9590	0	35.5170	8	28.208	0	782.521	0	12.8	4	4.1	4	-1E+10	1	-1E+10	1	-1E+10	1	-1E+10	1	-1E+10	1	-1E+10	1
4901784	131	C	02/04/2019	10:42	-133.260	43.241	0	795.50	0	3.9480	0	35.5200	8	28.212	0	787.660	0	12.7	4	4.1	4	-1E+10	1	-1E+10	1	-1E+10	1	-1E+10	1	-1E+10	1	-1E+10	1
4901784	131	C	02/04/2019	10:42	-133.260	43.241	0	799.80	0	3.9410	0	35.5230	8	28.215	0	791.909	0	12.6	4	4.0	4	-1E+10	1	-1E+10	1	-1E+10	1	-1E+10	1	-1E+10	1	-1E+10	1
4901784	131	C	02/04/2019	10:42	-133.260	43.241	0	804.30	0	3.9320	0	35.5250	8	28.218	0	796.356	0	12.6	4	4.0	4	-1E+10	1	-1E+10	1	-1E+10	1	-1E+10	1	-1E+10	1	-1E+10	1
4901784	131	C	02/04/2019	10:42	-133.260	43.241	0	809.50	0	3.9310	0	35.5260	8	28.219	0	801.495	0	12.5	4	4.0	4	-1E+10	1	-1E+10	1	-1E+10	1	-1E+10	1	-1E+10	1	-1E+10	1
4901784	131	C	02/04/2019	10:42	-133.260	43.241	0	814.70	0	3.9200	0	35.5280	8	28.221	0	806.633	0	12.4	4	4.0	4	-1E+10	1	-1E+10	1	-1E+10	1	-1E+10	1	-1E+10	1	-1E+10	1
4901784	131	C	02/04/2019	10:42	-133.260	43.241	0	819.90	0	3.9020	0	35.5330	8	28.227	0	811.772	0	12.3	4	3.9	4	-1E+10	1	-1E+10	1	-1E+10	1	-1E+10	1	-1E+10	1	-1E+10	1
4901784	131	C	02/04/2019	10:42	-133.260	43.241	0	825.20	0	3.9010	0	35.5360	8	28.230	0	817.009	0	12.1	4	3.9	4	-1E+10	1	-1E+10	1	-1E+10	1	-1E+10	1	-1E+10	1	-1E+10	1
4901784	131	C	02/04/2019	10:42	-133.260	43.241	0	830.40	0	3.8900	0	35.5400	8	28.234	0	822.147	0	12.0	4	3.8	4	-1E+10	1	-1E+10	1	-1E+10	1	-1E+10	1	-1E+10	1	-1E+10	1
4901784	131	C	02/04/2019	10:42	-133.260	43.241	0	835.70	0	3.8710	0	35.5430	8	28.239	0	827.384	0	11.9	4	3.8	4	-1E+10	1	-1E+10	1	-1E+10	1	-1E+10	1	-1E+10	1	-1E+10	1
4901784	131	C	02/04/2019	10:42	-133.260	43.241	0	840.10	0	3.8570	0	35.5480	8	28.244	0	831.731	0	11.8	4	3.7	4	-1E+10	1	-1E+10	1	-1E+10	1	-1E+10	1	-1E+10	1	-1E+10	1
4901784	131	C	02/04/2019	10:42	-133.260	43.241	0	844.60	0	3.8470	0	35.5510	8	28.248	0	836.177	0	11.7	4	3.7	4	-1E+10	1	-1E+10	1	-1E+10	1	-1E+10	1	-1E+10	1	-1E+10	1
4901784	131	C	02/04/2019	10:42	-133.260	43.241	0	850.00	0	3.8380	0	35.5540	8	28.251	0	841.513	0	11.6	4	3.7	4	-1E+10	1	-1E+10	1	-1E+10	1	-1E+10	1	-1E+10	1	-1E+10	1
4901784	131	C	02/04/2019	10:42	-133.260	43.241	0	855.30	0	3.8250	0	35.5590	8	28.256	0	846.749	0	11.5	4	3.6	4	-1E+10	1	-1E+10	1	-1E+10	1	-1E+10	1	-1E+10	1	-1E+10	1
4901784	131	C	02/04/2019	10:42	-133.260	43.241	0	860.70	0	3.8230	0	35.5600	8	28.257	0	852.084	0	11.4	4	3.6	4	-1E+10	1	-1E+10	1	-1E+10	1	-1E+10	1	-1E+10	1	-1E+10	1
4901784	131	C	02/04/2019	10:42	-133.260	43.241	0	865.20	0	3.8130	0	35.5630	8	28.261	0	856.530	0	11.3	4	3.6	4	-1E+10	1	-1E+10	1	-1E+10	1	-1E+10	1	-1E+10	1	-1E+10	1
4901784	131	C	02/04/2019	10:42	-133.260	43.241	0	869.70	0	3.7980	0	35.5680	8	28.266	0	860.975	0	11.2	4	3.5	4	-1E+10	1	-1E+10	1	-1E+10	1	-1E+10	1	-1E+10	1	-1E+10	1
4901784	131	C	02/04/2019	10:42	-133.260	43.241	0	875.10	0	3.7860	0	35.5730	8	28.272	0	866.310	0	11.1	4	3.5	4	-1E+10	1	-1E+10	1	-1E+10	1	-1E+10	1	-1E+10	1	-1E+10	1
4901784	131	C	02/04/2019	10:42	-133.260	43.241	0	880.60	0	3.7770	0	35.5770	8	28.276	0	871.743	0	11.0	4	3.5	4	-1E+10	1	-1E+10	1	-1E+10	1	-1E+10	1	-1E+10	1	-1E+10	1
4901784	131	C	02/04/2019	10:42	-133.260	43.241	0	885.10	0	3.7720	0	35.5780	8	28.277	0	876.189	0	10.9	4	3.5	4	-1E+10	1	-1E+10	1	-1E+10	1	-1E+10	1	-1E+10	1	-1E+10	1
4901784	131	C	02/04/2019	10:42	-133.260	43.241	0	889.70	0	3.7620	0	35.5810	8	28.281	0	880.733	0	10.9	4	3.5	4	-1E+10	1	-1E+10	1	-1E+10	1	-1E+10	1	-1E+10	1	-1E+10	1
4901784	131	C	02/04/2019	10:42	-133.260	43.241	0	895.20	0	3.7520	0	35.5840	8	28.284	0	886.166	0	10.8	4	3.4	4	-1E+10	1	-1E+10	1	-1E+10	1	-1E+10	1	-1E+10	1	-1E+10	1
4901784	131	C	02/04/2019	10:42	-133.260	43.241	0	899.80	0	3.7450	0	35.5870	8	28.287	0	890.709	0	10.7	4	3.4	4	-1E+10	1	-1E+10	1	-1E+10	1	-1E+10	1	-1E+10	1	-1E+10	1
4901784	131	C	02/04/2019	10:42	-133.260	43.241	0	904.40	0	3.7370	0	35.5890	8	28.290	0	895.253	0	10.7	4	3.4	4	-1E+10	1	-1E+10	1	-1E+10	1	-1E+10	1	-1E+10	1	-1E+10	1
4901784	131	C	02/04/2019	10:42	-133.260	43.241	0	910.00	0	3.7250	0	35.5950	8	28.296	0	900.784	0	10.6	4	3.4	4	-1E+10	1	-1E+10	1	-1E+10	1	-1E+10	1	-1E+10	1	-1E+10	1
4901784	131	C	02/04/2019	10:42	-133.260	43.241	0	915.60	0	3.7160	0	35.5990	8	28.300	0	906.316	0	10.5	4	3.3	4	-1E+10	1	-1E+10	1	-1E+10	1	-1E+10	1	-1E+10	1	-1E+10	1
4901784	131	C	02/04/2019	10:42	-133.260	43.241	0	920.30	0	3.7130	0	35.6000	8	28.301	0	910.958	0	10.5	4	3.3	4	-1E+10	1	-1E+10	1	-1E+10	1	-1E+10	1	-1E+10	1	-1E+10	1
4901784	131	C	02/04/2019	10:42	-133.260	43.241	0	924.70	0	3.7030	0	35.6050	8	28.306	0	915.303	0	10.4	4	3.3	4	-1E+10	1	-1E+10	1	-1E+10	1	-1E+10	1	-1E+10	1	-1E+10	1
4901784	131	C	02/04/2019	10:42	-133.260	43.241	0	929.50	0	3.6920	0	35.6090	8	28.310	0	920.044	0	10.4	4	3.3	4	-1E+10	1	-1E+10	1	-1E+10	1	-1E+10	1	-1E+10	1	-1E+10	1
4901784	131	C	02/04/2019	10:42	-133.260	43.241	0	934.30	0	3.6830	0	35.6120	8	28.314	0	924.785	0	10.3	4	3.3	4	-1E+10	1	-1E+10	1	-1E+10	1	-1E+10	1	-1E+10	1	-1E+10	1
4901784	131	C	02/04/2019	10:42	-133.260	43.241	0	939.90	0	3.6690	0	35.6180	8	28.320	0	930.315	0	10.3	4	3.3	4	-1E+10	1	-1E+10	1	-1E+10	1	-1E+10	1	-1E+10	1	-1E+10	1
4901784	131	C	02/04/2019	10:42	-133.260	43.241	0	945.70	0	3.6530	0	35.6230	8	28.326	0	936.043	0	10.3	4	3.3	4	-1E+10	1	-1E+10	1	-1E+10	1	-1E+10	1	-1E+10	1	-1E+10	1
4901784	131	C	02/04/2019	10:42	-133.260	43.241	0	950.70	0	3.6330	0	35.6280	8	28.332	0	940.981	0	10.3	4	3.2	4	-1E+10	1	-1E+10	1	-1E+10	1	-1E+10	1	-1E+10	1	-1E+10	1
4901784	131	C	02/04/2019	10:42	-133.260	43.241	0	954.90	0	3.6280	0	35.6300	8	28.334	0	945.128	0	10.3	4	3.2	4	-1E+10	1	-1E+10	1	-1E+10	1	-1E+10	1	-1E+10	1	-1E+10	1
4901784	131	C	02/04/2019	10:42	-133.260	43.241	0	959.20	0	3.6240	0	35.6310	8	28.335	0	949.375	0	10.3	4	3.3	4	-1E+10	1	-1E+10	1	-1E+10	1	-1E+10	1	-1E+10	1	-1E+10	1
4901784	131	C	02/04/2019	10:42	-133.260	43.241	0	964.40	0	3.6100	0	35.6350	8	28.340	0	954.510	0	10.3	4	3.3	4	-1E+10	1	-1E+10	1	-1E+10	1	-1E+10	1	-1E+10	1	-1E+10	1
4901784	131	C	02/04/2019	10:42	-133.260	43.241	0	969.50	0	3.5920	0	35.6410	8	28.346	0	959.546	0	10.3	4	3.3	4	-1E+10	1	-1E+10	1	-1E+10	1	-1E+10	1	-1E+10	1	-1E+10	1
4901784	131	C	02/04/2019	10:42	-133.260	43.241	0	974.60	0	3.5680	0	35.6450	8	28.352	0	964.581	0	10.3	4	3.3	4	-1E+10	1	-1E+10	1	-1E+10	1	-1E+10	1	-1E+10	1	-1E+10	1
4901784	131	C	02/04/2019	10:42	-133.260	43.241	0	979.80	0	3.5470	0	35.6450	8	28.354	0	969.716	0	10.3	4	3.3	4	-1E+10	1	-1E+10	1	-1E+10	1	-1E+10	1	-1E+10	1	-1E+10	1
4901784	131	C	02/04/2019	10:42	-133.260	43.241	0	985.00	0	3.5310	0	35.6470	8	28.357	0	974.850	0	10.3	4	3.3	4	-1E+10	1	-1E+10	1	-1E+10	1	-1E+10	1	-1E+10	1	-1E+10	1
4901784	131	C	02/04/2019	10:42	-133.260	43.241	0	990.40	0	3.5300	0	35.6510	8	28.361	0	980.182	0	10.3	4	3.3	4	-1E+10	1	-1E+10	1	-1E+10	1	-1E+10	1	-1E+10	1	-1E+10	1
4901784	131	C	02/04/2019	10:42	-133.260	43.241	0	995.70	0	3.5130	0	35.6520	8	28.363	0	985.415	0	10.3	4	3.3	4	-1E+10	1	-1E+10	1	-1E+10	1	-1E+10	1	-1E+10	1	-1E+10	1
4901784	131	C	02/04/2019	10:42	-133.260	43.241	0	1000.10	0	3.4930	0	35.6540	8	28.367	0	989.759	0	10.4	4	3.3	4	-1E+10	1	-1E+10	1	-1E+10	1	-1E+10	1	-1E+10	1	-1E+10	1
4901784	131	C	02/04/2019	10:42	-133.260	43.241	0	1004.70	0	3.4930	0	35.6560	8	28.368	0	994.301	0	10.4	4	3.3	4	-1E+10	1	-1E+10	1	-1E+10	1	-1E+10	1	-1E+10	1	-1E+10	1
4901784	131	C	02/04/2019	10:42	-133.260	43.241	0	1010.10	0	3.4970	0	35.6600	8	28.371	0	999.632	0	10.5	4	3.3	4	-1E+10	1	-1E+10	1	-1E+10	1	-1E+10	1	-1E+10	1	-1E+10	1
4901784	131	C	02/04/2019	10:42	-133.260	43.241	0	1015.50	0	3.4920	0	35.6650	8	28.376	0	1004.963	0	10.6	4	3.3	4	-1E+10	1	-1E+10	1	-1E+10	1	-1E+10	1	-1E+10	1	-1E+10	1
4901784	131	C	02/04/2019	10:42	-133.260	43.241	0	1020.00	0	3.4790	0	35.6700	8	28.381	0	1009.405	0	10.7	4	3.4	4	-1E+10	1	-1E+10	1	-1E+10	1	-1E+10	1	-1E+10	1	-1E+10	1
4901784	131	C	02/04/2019	10:42	-133.260	43.241	0	1024.60	0	3.4700	0	35.6720	8	28.384	0	1013.947	0	10.7	4	3.4	4	-1E+10	1	-1E+10	1	-1E+10	1	-1E+10	1	-1E+10	1	-1E+10	1
4901784	131	C	02/04/2019	10:42	-133.260	43.241	0	1030.20	0	3.4630	0	35.6750	8	28.387	0	1019.475	0	10.8	4	3.4	4	-1E+10	1	-1E+10	1	-1E+10	1	-1E+10	1	-1E+10	1	-1E+10	1
4901784	131	C	02/04/2019	10:42	-133.260	43.241	0	1034.90	0	3.4540	0	35.6770	8	28.389	0	1024.114	0	10.8	4	3.4	4	-1E+10	1	-1E+10	1	-1E+10	1	-1E+10	1	-1E+10	1	-1E+10	1
4901784	131	C	02/04/2019	10:42	-133.260	43.241	0	1039.50	0	3.4470	0	35.6790	8	28.392	0	1028.655	0	10.9	4	3.4	4	-1E+10	1	-1E+10	1	-1E+10	1	-1E+10	1	-1E+10	1	-1E+10	1
4901784	131	C	02/04/2019	10:42	-133.260	43.241	0	1045.00	0	3.4330	0	35.6810	8	28.395	0	1034.084	0	11.0	4	3.5	4	-1E+10	1	-1E+10	1	-1E+10	1	-1E+10	1	-1E+10	1	-1E+10	1
4901784	131	C	02/04/2019	10:42	-133.260	43.241	0	1050.60	0	3.4250	0	35.6830	8	28.397	0	1039.612	0	11.0	4	3.5	4	-1E+10	1	-1E+10	1	-1E+10	1	-1E+10	1	-1E+10	1	-1E+10	1
4901784	131	C	02/04/2019	10:42	-133.260	43.241	0	1055.20	0	3.4120	0	35.6860	8	28.401	0	1044.152	0	11.0	4	3.5	4	-1E+10	1	-1E+10	1	-1E+10	1	-1E+10	1	-1E+10	1	-1E+10	1
4901784	131	C	02/04/2019	10:42	-133.260	43.241	0	1059.80	0	3.3820	0	35.6880	8	28.405	0	1048.693	0	10.9	4	3.4	4	-1E+10	1	-1E+10	1	-1E+10	1	-1E+10	1	-1E+10	1	-1E+10	1
4901784	131	C	02/04/2019	10:42	-133.260	43.241	0	1065.40	0	3.3600	0	35.6880	8	28.407	0	1054.220	0	10.9	4	3.4	4	-1E+10	1	-1E+10	1	-1E+10	1	-1E+10	1	-1E+10	1	-1E+10	1
4901784	131	C	02/04/2019	10:42	-133.260	43.241	0	1069.50	0	3.3550	0	35.6880	8	28.408	0	1058.266	0	10.9	4	3.4	4	-1E+10	1	-1E+10	1	-1E+10	1	-1E+10	1	-1E+10	1	-1E+10	1
4901784	131	C	02/04/2019	10:42	-133.260	43.241	0	1074.50	0	3.3470	0	35.6910	8	28.411	0	1063.201	0	11.0	4	3.5	4	-1E+10	1	-1E+10	1	-1E+10	1	-1E+10	1	-1E+10	1	-1E+10	1
4901784	131	C	02/04/2019	10:42	-133.260	43.241	0	1079.40	0	3.3490	0	35.6950	8	28.414	0	1068.037	0	11.1	4	3.5	4	-1E+10	1	-1E+10	1	-1E+10	1	-1E+10	1	-1E+10	1	-1E+10	1
4901784	131	C	02/04/2019	10:42	-133.260	43.241	0	1085.10	0	3.3300	0	35.6950	8	28.416	0	1073.663	0	11.0	4	3.5	4	-1E+10	1	-1E+10	1	-1E+10	1	-1E+10	1	-1E+10	1	-1E+10	1
4901784	131	C	02/04/2019	10:42	-133.260	43.241	0	1090.80	0	3.3030	0	35.6980	8	28.421	0	1079.288	0	11.1	4	3.5	4	-1E+10	1	-1E+10	1	-1E+10	1	-1E+10	1	-1E+10	1	-1E+10	1
4901784	131	C	02/04/2019	10:42	-133.260	43.241	0	1095.80	0	3.2950	0	35.6990	8	28.423	0	1084.222	0	11.2	4	3.5	4	-1E+10	1	-1E+10	1	-1E+10	1	-1E+10	1	-1E+10	1	-1E+10	1
4901784	131	C	02/04/2019	10:42	-133.260	43.241	0	1100.70	0	3.2820	0	35.7030	8	28.427	0	1089.058	0	11.2	4	3.5	4	-1E+10	1	-1E+10	1	-1E+10	1	-1E+10	1	-1E+10	1	-1E+10	1
4901784	131	C	02/04/2019	10:42	-133.260	43.241	0	1105.80	0	3.2680	0	35.7060	8	28.431	0	1094.091	0	11.3	4	3.5	4	-1E+10	1	-1E+10	1	-1E+10	1	-1E+10	1	-1E+10	1	-1E+10	1
4901784	131	C	02/04/2019	10:42	-133.260	43.241	0	1110.80	0	3.2590	0	35.7080	8	28.434	0	1099.025	0	11.4	4	3.6	4	-1E+10	1	-1E+10	1	-1E+10	1	-1E+10	1	-1E+10	1	-1E+10	1
4901784	131	C	02/04/2019	10:42	-133.260	43.241	0	1115.20	0	3.2520	0	35.7090	8	28.435	0	1103.366	0	11.5	4	3.6	4	-1E+10	1	-1E+10	1	-1E+10	1	-1E+10	1	-1E+10	1	-1E+10	1
4901784	131	C	02/04/2019	10:42	-133.260	43.241	0	1119.70	0	3.2420	0	35.7120	8	28.438	0	1107.807	0	11.7	4	3.7	4	-1E+10	1	-1E+10	1	-1E+10	1	-1E+10	1	-1E+10	1	-1E+10	1
4901784	131	C	02/04/2019	10:42	-133.260	43.241	0	1125.30	0	3.2220	0	35.7170	8	28.444	0	1113.333	0	11.9	4	3.7	4	-1E+10	1	-1E+10	1	-1E+10	1	-1E+10	1	-1E+10	1	-1E+10	1
4901784	131	C	02/04/2019	10:42	-133.260	43.241	0	1130.00	0	3.2130	0	35.7200	8	28.448	0	1117.970	0	12.1	4	3.8	4	-1E+10	1	-1E+10	1	-1E+10	1	-1E+10	1	-1E+10	1	-1E+10	1
4901784	131	C	02/04/2019	10:42	-133.260	43.241	0	1134.60	0	3.1970	0	35.7240	8	28.452	0	1122.509	0	12.2	4	3.8	4	-1E+10	1	-1E+10	1	-1E+10	1	-1E+10	1	-1E+10	1	-1E+10	1
4901784	131	C	02/04/2019	10:42	-133.260	43.241	0	1140.20	0	3.1880	0	35.7270	8	28.456	0	1128.034	0	12.4	4	3.9	4	-1E+10	1	-1E+10	1	-1E+10	1	-1E+10	1	-1E+10	1	-1E+10	1
4901784	131	C	02/04/2019	10:42	-133.260	43.241	0	1144.90	0	3.1800	0	35.7290	8	28.458	0	1132.671	0	12.5	4	3.9	4	-1E+10	1	-1E+10	1	-1E+10	1	-1E+10	1	-1E+10	1	-1E+10	1
4901784	131	C	02/04/2019	10:42	-133.260	43.241	0	1149.50	0	3.1760	0	35.7310	8	28.460	0	1137.210	0	12.5	4	3.9	4	-1E+10	1	-1E+10	1	-1E+10	1	-1E+10	1	-1E+10	1	-1E+10	1
4901784	131	C	02/04/2019	10:42	-133.260	43.241	0	1155.20	0	3.1710	0	35.7310	8	28.461	0	1142.833	0	12.6	4	4.0	4	-1E+10	1	-1E+10	1	-1E+10	1	-1E+10	1	-1E+10	1	-1E+10	1
4901784	131	C	02/04/2019	10:42	-133.260	43.241	0	1159.90	0	3.1550	0	35.7340	8	28.465	0	1147.470	0	12.8	4	4.0	4	-1E+10	1	-1E+10	1	-1E+10	1	-1E+10	1	-1E+10	1	-1E+10	1
4901784	131	C	02/04/2019	10:42	-133.260	43.241	0	1164.60	0	3.1370	0	35.7370	8	28.469	0	1152.107	0	12.9	4	4.0	4	-1E+10	1	-1E+10	1	-1E+10	1	-1E+10	1	-1E+10	1	-1E+10	1
4901784	131	C	02/04/2019	10:42	-133.260	43.241	0	1170.30	0	3.1240	0	35.7400	8	28.472	0	1157.730	0	13.1	4	4.1	4	-1E+10	1	-1E+10	1	-1E+10	1	-1E+10	1	-1E+10	1	-1E+10	1
4901784	131	C	02/04/2019	10:42	-133.260	43.241	0	1175.00	0	3.1170	0	35.7420	8	28.475	0	1162.366	0	13.2	4	4.1	4	-1E+10	1	-1E+10	1	-1E+10	1	-1E+10	1	-1E+10	1	-1E+10	1
4901784	131	C	02/04/2019	10:42	-133.260	43.241	0	1179.70	0	3.1080	0	35.7440	8	28.477	0	1167.003	0	13.3	4	4.2	4	-1E+10	1	-1E+10	1	-1E+10	1	-1E+10	1	-1E+10	1	-1E+10	1
4901784	131	C	02/04/2019	10:42	-133.260	43.241	0	1184.60	0	3.1030	0	35.7450	8	28.479	0	1171.837	0	13.4	4	4.2	4	-1E+10	1	-1E+10	1	-1E+10	1	-1E+10	1	-1E+10	1	-1E+10	1
4901784	131	C	02/04/2019	10:42	-133.260	43.241	0	1189.40	0	3.0970	0	35.7460	8	28.480	0	1176.571	0	13.4	4	4.2	4	-1E+10	1	-1E+10	1	-1E+10	1	-1E+10	1	-1E+10	1	-1E+10	1
4901784	131	C	02/04/2019	10:42	-133.260	43.241	0	1195.20	0	3.0890	0	35.7480	8	28.482	0	1182.292	0	13.5	4	4.2	4	-1E+10	1	-1E+10	1	-1E+10	1	-1E+10	1	-1E+10	1	-1E+10	1
4901784	131	C	02/04/2019	10:42	-133.260	43.241	0	1200.10	0	3.0870	0	35.7480	8	28.483	0	1187.126	0	13.6	4	4.2	4	-1E+10	1	-1E+10	1	-1E+10	1	-1E+10	1	-1E+10	1	-1E+10	1
4901784	131	C	02/04/2019	10:42	-133.260	43.241	0	1205.00	0	3.0840	0	35.7490	8	28.484	0	1191.959	0	13.7	4	4.3	4	-1E+10	1	-1E+10	1	-1E+10	1	-1E+10	1	-1E+10	1	-1E+10	1
4901784	131	C	02/04/2019	10:42	-133.260	43.241	0	1209.90	0	3.0770	0	35.7510	8	28.486	0	1196.792	0	13.9	4	4.3	4	-1E+10	1	-1E+10	1	-1E+10	1	-1E+10	1	-1E+10	1	-1E+10	1
4901784	131	C	02/04/2019	10:42	-133.260	43.241	0	1214.80	0	3.0640	0	35.7540	8	28.490	0	1201.625	0	14.1	4	4.4	4	-1E+10	1	-1E+10	1	-1E+10	1	-1E+10	1	-1E+10	1	-1E+10	1
4901784	131	C	02/04/2019	10:42	-133.260	43.241	0	1219.90	0	3.0600	0	35.7550	8	28.491	0	1206.655	0	14.2	4	4.4	4	-1E+10	1	-1E+10	1	-1E+10	1	-1E+10	1	-1E+10	1	-1E+10	1
4901784	131	C	02/04/2019	10:42	-133.260	43.241	0	1224.80	0	3.0470	0	35.7570	8	28.494	0	1211.488	0	14.5	4	4.5	4	-1E+10	1	-1E+10	1	-1E+10	1	-1E+10	1	-1E+10	1	-1E+10	1
4901784	131	C	02/04/2019	10:42	-133.260	43.241	0	1229.80	0	3.0340	0	35.7600	8	28.497	0	1216.419	0	14.7	4	4.6	4	-1E+10	1	-1E+10	1	-1E+10	1	-1E+10	1	-1E+10	1	-1E+10	1
4901784	131	C	02/04/2019	10:42	-133.260	43.241	0	1234.90	0	3.0200	0	35.7620	8	28.500	0	1221.449	0	14.9	4	4.6	4	-1E+10	1	-1E+10	1	-1E+10	1	-1E+10	1	-1E+10	1	-1E+10	1
4901784	131	C	02/04/2019	10:42	-133.260	43.241	0	1240.10	0	3.0050	0	35.7650	8	28.504	0	1226.577	0	15.2	4	4.7	4	-1E+10	1	-1E+10	1	-1E+10	1	-1E+10	1	-1E+10	1	-1E+10	1
4901784	131	C	02/04/2019	10:42	-133.260	43.241	0	1245.00	0	2.9880	0	35.7680	8	28.508	0	1231.409	0	15.4	4	4.8	4	-1E+10	1	-1E+10	1	-1E+10	1	-1E+10	1	-1E+10	1	-1E+10	1
4901784	131	C	02/04/2019	10:42	-133.260	43.241	0	1250.60	0	2.9760	0	35.7700	8	28.511	0	1236.931	0	15.6	4	4.9	4	-1E+10	1	-1E+10	1	-1E+10	1	-1E+10	1	-1E+10	1	-1E+10	1
4901784	131	C	02/04/2019	10:42	-133.260	43.241	0	1255.90	0	2.9650	0	35.7720	8	28.514	0	1242.158	0	15.6	4	4.9	4	-1E+10	1	-1E+10	1	-1E+10	1	-1E+10	1	-1E+10	1	-1E+10	1
4901784	131	C	02/04/2019	10:42	-133.260	43.241	0	1260.20	0	2.9560	0	35.7730	8	28.515	0	1246.398	0	15.8	4	4.9	4	-1E+10	1	-1E+10	1	-1E+10	1	-1E+10	1	-1E+10	1	-1E+10	1
4901784	131	C	02/04/2019	10:42	-133.260	43.241	0	1265.10	0	2.9450	0	35.7750	8	28.518	0	1251.230	0	15.9	4	4.9	4	-1E+10	1	-1E+10	1	-1E+10	1	-1E+10	1	-1E+10	1	-1E+10	1
4901784	131	C	02/04/2019	10:42	-133.260	43.241	0	1270.10	0	2.9410	0	35.7760	8	28.519	0	1256.160	0	15.9	4	5.0	4	-1E+10	1	-1E+10	1	-1E+10	1	-1E+10	1	-1E+10	1	-1E+10	1
4901784	131	C	02/04/2019	10:42	-133.260	43.241	0	1275.10	0	2.9310	0	35.7770	8	28.521	0	1261.090	0	16.0	4	5.0	4	-1E+10	1	-1E+10	1	-1E+10	1	-1E+10	1	-1E+10	1	-1E+10	1
4901784	131	C	02/04/2019	10:42	-133.260	43.241	0	1280.20	0	2.9110	0	35.7790	8	28.524	0	1266.119	0	16.0	4	5.0	4	-1E+10	1	-1E+10	1	-1E+10	1	-1E+10	1	-1E+10	1	-1E+10	1
4901784	131	C	02/04/2019	10:42	-133.260	43.241	0	1285.30	0	2.9040	0	35.7800	8	28.526	0	1271.148	0	16.3	4	5.1	4	-1E+10	1	-1E+10	1	-1E+10	1	-1E+10	1	-1E+10	1	-1E+10	1
4901784	131	C	02/04/2019	10:42	-133.260	43.241	0	1290.40	0	2.8910	0	35.7830	8	28.529	0	1276.176	0	16.5	4	5.1	4	-1E+10	1	-1E+10	1	-1E+10	1	-1E+10	1	-1E+10	1	-1E+10	1
4901784	131	C	02/04/2019	10:42	-133.260	43.241	0	1295.50	0	2.8780	0	35.7850	8	28.532	0	1281.204	0	16.7	4	5.2	4	-1E+10	1	-1E+10	1	-1E+10	1	-1E+10	1	-1E+10	1	-1E+10	1
4901784	131	C	02/04/2019	10:42	-133.260	43.241	0	1300.60	0	2.8640	0	35.7870	8	28.535	0	1286.232	0	17.0	4	5.3	4	-1E+10	1	-1E+10	1	-1E+10	1	-1E+10	1	-1E+10	1	-1E+10	1
4901784	131	C	02/04/2019	10:42	-133.260	43.241	0	1304.90	0	2.8560	0	35.7890	8	28.538	0	1290.472	0	17.3	4	5.4	4	-1E+10	1	-1E+10	1	-1E+10	1	-1E+10	1	-1E+10	1	-1E+10	1
4901784	131	C	02/04/2019	10:42	-133.260	43.241	0	1309.20	0	2.8390	0	35.7920	8	28.541	0	1294.711	0	17.6	4	5.5	4	-1E+10	1	-1E+10	1	-1E+10	1	-1E+10	1	-1E+10	1	-1E+10	1
4901784	131	C	02/04/2019	10:42	-133.260	43.241	0	1314.40	0	2.8320	0	35.7930	8	28.543	0	1299.837	0	17.8	4	5.5	4	-1E+10	1	-1E+10	1	-1E+10	1	-1E+10	1	-1E+10	1	-1E+10	1
4901784	131	C	02/04/2019	10:42	-133.260	43.241	0	1319.70	0	2.8200	0	35.7960	8	28.546	0	1305.062	0	18.1	4	5.6	4	-1E+10	1	-1E+10	1	-1E+10	1	-1E+10	1	-1E+10	1	-1E+10	1
4901784	131	C	02/04/2019	10:42	-133.260	43.241	0	1324.90	0	2.8090	0	35.7980	8	28.549	0	1310.188	0	18.5	4	5.7	4	-1E+10	1	-1E+10	1	-1E+10	1	-1E+10	1	-1E+10	1	-1E+10	1
4901784	131	C	02/04/2019	10:42	-133.260	43.241	0	1330.20	0	2.7980	0	35.8000	8	28.552	0	1315.413	0	18.9	4	5.9	4	-1E+10	1	-1E+10	1	-1E+10	1	-1E+10	1	-1E+10	1	-1E+10	1
4901784	131	C	02/04/2019	10:42	-133.260	43.241	0	1335.50	0	2.7860	0	35.8030	8	28.555	0	1320.637	0	19.2	4	5.9	4	-1E+10	1	-1E+10	1	-1E+10	1	-1E+10	1	-1E+10	1	-1E+10	1
4901784	131	C	02/04/2019	10:42	-133.260	43.241	0	1339.90	0	2.7800	0	35.8040	8	28.557	0	1324.975	0	19.3	4	6.0	4	-1E+10	1	-1E+10	1	-1E+10	1	-1E+10	1	-1E+10	1	-1E+10	1
4901784	131	C	02/04/2019	10:42	-133.260	43.241	0	1344.40	0	2.7760	0	35.8050	8	28.558	0	1329.410	0	19.6	4	6.1	4	-1E+10	1	-1E+10	1	-1E+10	1	-1E+10	1	-1E+10	1	-1E+10	1
4901784	131	C	02/04/2019	10:42	-133.260	43.241	0	1349.80	0	2.7630	0	35.8080	8	28.561	0	1334.733	0	19.9	4	6.2	4	-1E+10	1	-1E+10	1	-1E+10	1	-1E+10	1	-1E+10	1	-1E+10	1
4901784	131	C	02/04/2019	10:42	-133.260	43.241	0	1355.30	0	2.7520	0	35.8090	8	28.563	0	1340.154	0	20.1	4	6.2	4	-1E+10	1	-1E+10	1	-1E+10	1	-1E+10	1	-1E+10	1	-1E+10	1
4901784	131	C	02/04/2019	10:42	-133.260	43.241	0	1360.40	0	2.7420	0	35.8110	8	28.566	0	1345.181	0	20.4	4	6.3	4	-1E+10	1	-1E+10	1	-1E+10	1	-1E+10	1	-1E+10	1	-1E+10	1
4901784	131	C	02/04/2019	10:42	-133.260	43.241	0	1364.50	0	2.7380	0	35.8120	8	28.567	0	1349.222	0	20.5	4	6.3	4	-1E+10	1	-1E+10	1	-1E+10	1	-1E+10	1	-1E+10	1	-1E+10	1
4901784	131	C	02/04/2019	10:42	-133.260	43.241	0	1370.10	0	2.7370	0	35.8120	8	28.567	0	1354.741	0	20.6	4	6.4	4	-1E+10	1	-1E+10	1	-1E+10	1	-1E+10	1	-1E+10	1	-1E+10	1
4901784	131	C	02/04/2019	10:42	-133.260	43.241	0	1375.50	0	2.7270	0	35.8140	8	28.570	0	1360.063	0	21.0	4	6.5	4	-1E+10	1	-1E+10	1	-1E+10	1	-1E+10	1	-1E+10	1	-1E+10	1
4901784	131	C	02/04/2019	10:42	-133.260	43.241	0	1380.30	0	2.7160	0	35.8170	8	28.573	0	1364.794	0	21.2	4	6.6	4	-1E+10	1	-1E+10	1	-1E+10	1	-1E+10	1	-1E+10	1	-1E+10	1
4901784	131	C	02/04/2019	10:42	-133.260	43.241	0	1385.20	0	2.7120	0	35.8180	8	28.574	0	1369.623	0	21.4	4	6.6	4	-1E+10	1	-1E+10	1	-1E+10	1	-1E+10	1	-1E+10	1	-1E+10	1
4901784	131	C	02/04/2019	10:42	-133.260	43.241	0	1390.10	0	2.7080	0	35.8190	8	28.575	0	1374.452	0	21.6	4	6.7	4	-1E+10	1	-1E+10	1	-1E+10	1	-1E+10	1	-1E+10	1	-1E+10	1
4901784	131	C	02/04/2019	10:42	-133.260	43.241	0	1395.10	0	2.7030	0	35.8200	8	28.577	0	1379.379	0	21.7	4	6.7	4	-1E+10	1	-1E+10	1	-1E+10	1	-1E+10	1	-1E+10	1	-1E+10	1
4901784	131	C	02/04/2019	10:42	-133.260	43.241	0	1400.00	0	2.6960	0	35.8210	8	28.578	0	1384.208	0	21.8	4	6.8	4	-1E+10	1	-1E+10	1	-1E+10	1	-1E+10	1	-1E+10	1	-1E+10	1
4901784	131	C	02/04/2019	10:42	-133.260	43.241	0	1405.00	0	2.6930	0	35.8220	8	28.579	0	1389.135	0	21.9	4	6.8	4	-1E+10	1	-1E+10	1	-1E+10	1	-1E+10	1	-1E+10	1	-1E+10	1
4901784	131	C	02/04/2019	10:42	-133.260	43.241	0	1410.00	0	2.6890	0	35.8220	8	28.580	0	1394.062	0	22.1	4	6.8	4	-1E+10	1	-1E+10	1	-1E+10	1	-1E+10	1	-1E+10	1	-1E+10	1
4901784	131	C	02/04/2019	10:42	-133.260	43.241	0	1414.90	0	2.6810	0	35.8240	8	28.582	0	1398.891	0	22.2	4	6.9	4	-1E+10	1	-1E+10	1	-1E+10	1	-1E+10	1	-1E+10	1	-1E+10	1
4901784	131	C	02/04/2019	10:42	-133.260	43.241	0	1419.90	0	2.6770	0	35.8240	8	28.582	0	1403.817	0	22.3	4	6.9	4	-1E+10	1	-1E+10	1	-1E+10	1	-1E+10	1	-1E+10	1	-1E+10	1
4901784	131	C	02/04/2019	10:42	-133.260	43.241	0	1424.90	0	2.6720	0	35.8250	8	28.584	0	1408.744	0	22.4	4	6.9	4	-1E+10	1	-1E+10	1	-1E+10	1	-1E+10	1	-1E+10	1	-1E+10	1
4901784	131	C	02/04/2019	10:42	-133.260	43.241	0	1429.90	0	2.6690	0	35.8260	8	28.585	0	1413.671	0	22.6	4	7.0	4	-1E+10	1	-1E+10	1	-1E+10	1	-1E+10	1	-1E+10	1	-1E+10	1
4901784	131	C	02/04/2019	10:42	-133.260	43.241	0	1434.90	0	2.6640	0	35.8270	8	28.586	0	1418.597	0	22.8	4	7.0	4	-1E+10	1	-1E+10	1	-1E+10	1	-1E+10	1	-1E+10	1	-1E+10	1
4901784	131	C	02/04/2019	10:42	-133.260	43.241	0	1440.00	0	2.6550	0	35.8280	8	28.588	0	1423.622	0	23.1	4	7.1	4	-1E+10	1	-1E+10	1	-1E+10	1	-1E+10	1	-1E+10	1	-1E+10	1
4901784	131	C	02/04/2019	10:42	-133.260	43.241	0	1445.10	0	2.6450	0	35.8300	8	28.590	0	1428.647	0	23.4	4	7.2	4	-1E+10	1	-1E+10	1	-1E+10	1	-1E+10	1	-1E+10	1	-1E+10	1
4901784	131	C	02/04/2019	10:42	-133.260	43.241	0	1450.10	0	2.6390	0	35.8310	8	28.592	0	1433.573	0	23.7	4	7.3	4	-1E+10	1	-1E+10	1	-1E+10	1	-1E+10	1	-1E+10	1	-1E+10	1
4901784	131	C	02/04/2019	10:42	-133.260	43.241	0	1455.20	0	2.6290	0	35.8330	8	28.594	0	1438.597	0	24.0	4	7.4	4	-1E+10	1	-1E+10	1	-1E+10	1	-1E+10	1	-1E+10	1	-1E+10	1
4901784	131	C	02/04/2019	10:42	-133.260	43.241	0	1460.40	0	2.6230	0	35.8340	8	28.596	0	1443.720	0	24.2	4	7.5	4	-1E+10	1	-1E+10	1	-1E+10	1	-1E+10	1	-1E+10	1	-1E+10	1
4901784	131	C	02/04/2019	10:42	-133.260	43.241	0	1465.60	0	2.6160	0	35.8360	8	28.598	0	1448.843	0	24.5	4	7.6	4	-1E+10	1	-1E+10	1	-1E+10	1	-1E+10	1	-1E+10	1	-1E+10	1
4901784	131	C	02/04/2019	10:42	-133.260	43.241	0	1470.70	0	2.6050	0	35.8370	8	28.600	0	1453.867	0	24.9	4	7.7	4	-1E+10	1	-1E+10	1	-1E+10	1	-1E+10	1	-1E+10	1	-1E+10	1
4901784	131	C	02/04/2019	10:42	-133.260	43.241	0	1475.10	0	2.5970	0	35.8380	8	28.601	0	1458.202	0	25.3	4	7.8	4	-1E+10	1	-1E+10	1	-1E+10	1	-1E+10	1	-1E+10	1	-1E+10	1
4901784	131	C	02/04/2019	10:42	-133.260	43.241	0	1479.40	0	2.5850	0	35.8410	8	28.605	0	1462.438	0	25.6	4	7.9	4	-1E+10	1	-1E+10	1	-1E+10	1	-1E+10	1	-1E+10	1	-1E+10	1
4901784	131	C	02/04/2019	10:42	-133.260	43.241	0	1484.70	0	2.5730	0	35.8430	8	28.607	0	1467.658	0	26.0	4	8.0	4	-1E+10	1	-1E+10	1	-1E+10	1	-1E+10	1	-1E+10	1	-1E+10	1
4901784	131	C	02/04/2019	10:42	-133.260	43.241	0	1489.90	0	2.5670	0	35.8440	8	28.609	0	1472.781	0	26.3	4	8.1	4	-1E+10	1	-1E+10	1	-1E+10	1	-1E+10	1	-1E+10	1	-1E+10	1
4901784	131	C	02/04/2019	10:42	-133.260	43.241	0	1495.10	0	2.5540	0	35.8460	8	28.611	0	1477.903	0	26.6	4	8.2	4	-1E+10	1	-1E+10	1	-1E+10	1	-1E+10	1	-1E+10	1	-1E+10	1
4901784	131	C	02/04/2019	10:42	-133.260	43.241	0	1500.30	0	2.5470	0	35.8470	8	28.613	0	1483.025	0	27.0	4	8.3	4	-1E+10	1	-1E+10	1	-1E+10	1	-1E+10	1	-1E+10	1	-1E+10	1
4901784	131	C	02/04/2019	10:42	-133.260	43.241	0	1505.50	0	2.5390	0	35.8490	8	28.615	0	1488.146	0	27.3	4	8.4	4	-1E+10	1	-1E+10	1	-1E+10	1	-1E+10	1	-1E+10	1	-1E+10	1
4901784	131	C	02/04/2019	10:42	-133.260	43.241	0	1509.80	0	2.5280	0	35.8510	8	28.618	0	1492.382	0	27.6	4	8.5	4	-1E+10	1	-1E+10	1	-1E+10	1	-1E+10	1	-1E+10	1	-1E+10	1
4901784	131	C	02/04/2019	10:42	-133.260	43.241	0	1514.30	0	2.5230	0	35.8520	8	28.619	0	1496.814	0	27.8	4	8.6	4	-1E+10	1	-1E+10	1	-1E+10	1	-1E+10	1	-1E+10	1	-1E+10	1
4901784	131	C	02/04/2019	10:42	-133.260	43.241	0	1519.60	0	2.5200	0	35.8520	8	28.619	0	1502.034	0	28.0	4	8.6	4	-1E+10	1	-1E+10	1	-1E+10	1	-1E+10	1	-1E+10	1	-1E+10	1
4901784	131	C	02/04/2019	10:42	-133.260	43.241	0	1525.00	0	2.5130	0	35.8530	8	28.621	0	1507.352	0	28.3	4	8.7	4	-1E+10	1	-1E+10	1	-1E+10	1	-1E+10	1	-1E+10	1	-1E+10	1
4901784	131	C	02/04/2019	10:42	-133.260	43.241	0	1530.30	0	2.5030	0	35.8550	8	28.623	0	1512.572	0	28.6	4	8.8	4	-1E+10	1	-1E+10	1	-1E+10	1	-1E+10	1	-1E+10	1	-1E+10	1
4901784	131	C	02/04/2019	10:42	-133.260	43.241	0	1534.80	0	2.4960	0	35.8570	8	28.626	0	1517.004	0	28.8	4	8.9	4	-1E+10	1	-1E+10	1	-1E+10	1	-1E+10	1	-1E+10	1	-1E+10	1
4901784	131	C	02/04/2019	10:42	-133.260	43.241	0	1539.30	0	2.4900	0	35.8570	8	28.626	0	1521.435	0	29.1	4	9.0	4	-1E+10	1	-1E+10	1	-1E+10	1	-1E+10	1	-1E+10	1	-1E+10	1
4901784	131	C	02/04/2019	10:42	-133.260	43.241	0	1544.80	0	2.4810	0	35.8590	8	28.629	0	1526.852	0	29.5	4	9.1	4	-1E+10	1	-1E+10	1	-1E+10	1	-1E+10	1	-1E+10	1	-1E+10	1
4901784	131	C	02/04/2019	10:42	-133.260	43.241	0	1550.30	0	2.4690	0	35.8610	8	28.631	0	1532.268	0	29.9	4	9.2	4	-1E+10	1	-1E+10	1	-1E+10	1	-1E+10	1	-1E+10	1	-1E+10	1
4901784	131	C	02/04/2019	10:42	-133.260	43.241	0	1555.00	0	2.4620	0	35.8620	8	28.633	0	1536.896	0	30.2	4	9.3	4	-1E+10	1	-1E+10	1	-1E+10	1	-1E+10	1	-1E+10	1	-1E+10	1
4901784	131	C	02/04/2019	10:42	-133.260	43.241	0	1559.60	0	2.4550	0	35.8630	8	28.634	0	1541.426	0	30.4	4	9.4	4	-1E+10	1	-1E+10	1	-1E+10	1	-1E+10	1	-1E+10	1	-1E+10	1
4901784	131	C	02/04/2019	10:42	-133.260	43.241	0	1565.20	0	2.4450	0	35.8640	8	28.636	0	1546.940	0	30.9	4	9.5	4	-1E+10	1	-1E+10	1	-1E+10	1	-1E+10	1	-1E+10	1	-1E+10	1
4901784	131	C	02/04/2019	10:42	-133.260	43.241	0	1569.80	0	2.4360	0	35.8650	8	28.637	0	1551.470	0	31.1	4	9.6	4	-1E+10	1	-1E+10	1	-1E+10	1	-1E+10	1	-1E+10	1	-1E+10	1
4901784	131	C	02/04/2019	10:42	-133.260	43.241	0	1574.50	0	2.4330	0	35.8660	8	28.639	0	1556.097	0	31.2	4	9.6	4	-1E+10	1	-1E+10	1	-1E+10	1	-1E+10	1	-1E+10	1	-1E+10	1
4901784	131	C	02/04/2019	10:42	-133.260	43.241	0	1580.10	0	2.4280	0	35.8670	8	28.640	0	1561.611	0	31.5	4	9.7	4	-1E+10	1	-1E+10	1	-1E+10	1	-1E+10	1	-1E+10	1	-1E+10	1
4901784	131	C	02/04/2019	10:42	-133.260	43.241	0	1584.80	0	2.4230	0	35.8680	8	28.641	0	1566.239	0	31.7	4	9.8	4	-1E+10	1	-1E+10	1	-1E+10	1	-1E+10	1	-1E+10	1	-1E+10	1
4901784	131	C	02/04/2019	10:42	-133.260	43.241	0	1589.70	0	2.4150	0	35.8690	8	28.643	0	1571.063	0	32.0	4	9.9	4	-1E+10	1	-1E+10	1	-1E+10	1	-1E+10	1	-1E+10	1	-1E+10	1
4901784	131	C	02/04/2019	10:42	-133.260	43.241	0	1594.90	0	2.4060	0	35.8710	8	28.645	0	1576.183	0	32.3	4	9.9	4	-1E+10	1	-1E+10	1	-1E+10	1	-1E+10	1	-1E+10	1	-1E+10	1
4901784	131	C	02/04/2019	10:42	-133.260	43.241	0	1599.90	0	2.4030	0	35.8710	8	28.645	0	1581.106	0	32.6	4	10.0	4	-1E+10	1	-1E+10	1	-1E+10	1	-1E+10	1	-1E+10	1	-1E+10	1
4901784	131	C	02/04/2019	10:42	-133.260	43.241	0	1604.80	0	2.3910	0	35.8730	8	28.648	0	1585.930	0	33.1	4	10.2	4	-1E+10	1	-1E+10	1	-1E+10	1	-1E+10	1	-1E+10	1	-1E+10	1
4901784	131	C	02/04/2019	10:42	-133.260	43.241	0	1609.70	0	2.3830	0	35.8750	8	28.650	0	1590.754	0	33.4	4	10.3	4	-1E+10	1	-1E+10	1	-1E+10	1	-1E+10	1	-1E+10	1	-1E+10	1
4901784	131	C	02/04/2019	10:42	-133.260	43.241	0	1614.70	0	2.3760	0	35.8760	8	28.652	0	1595.676	0	33.7	4	10.4	4	-1E+10	1	-1E+10	1	-1E+10	1	-1E+10	1	-1E+10	1	-1E+10	1
4901784	131	C	02/04/2019	10:42	-133.260	43.241	0	1619.70	0	2.3670	0	35.8770	8	28.653	0	1600.598	0	34.1	4	10.5	4	-1E+10	1	-1E+10	1	-1E+10	1	-1E+10	1	-1E+10	1	-1E+10	1
4901784	131	C	02/04/2019	10:42	-133.260	43.241	0	1624.70	0	2.3570	0	35.8780	8	28.655	0	1605.520	0	34.5	4	10.6	4	-1E+10	1	-1E+10	1	-1E+10	1	-1E+10	1	-1E+10	1	-1E+10	1
4901784	131	C	02/04/2019	10:42	-133.260	43.241	0	1629.80	0	2.3470	0	35.8800	8	28.657	0	1610.541	0	34.7	4	10.7	4	-1E+10	1	-1E+10	1	-1E+10	1	-1E+10	1	-1E+10	1	-1E+10	1
4901784	131	C	02/04/2019	10:42	-133.260	43.241	0	1634.90	0	2.3450	0	35.8810	8	28.658	0	1615.561	0	34.9	4	10.7	4	-1E+10	1	-1E+10	1	-1E+10	1	-1E+10	1	-1E+10	1	-1E+10	1
4901784	131	C	02/04/2019	10:42	-133.260	43.241	0	1640.00	0	2.3410	0	35.8810	8	28.659	0	1620.581	0	35.1	4	10.8	4	-1E+10	1	-1E+10	1	-1E+10	1	-1E+10	1	-1E+10	1	-1E+10	1
4901784	131	C	02/04/2019	10:42	-133.260	43.241	0	1645.10	0	2.3360	0	35.8830	8	28.661	0	1625.601	0	35.3	4	10.8	4	-1E+10	1	-1E+10	1	-1E+10	1	-1E+10	1	-1E+10	1	-1E+10	1
4901784	131	C	02/04/2019	10:42	-133.260	43.241	0	1650.20	0	2.3320	0	35.8840	8	28.662	0	1630.621	0	35.6	4	10.9	4	-1E+10	1	-1E+10	1	-1E+10	1	-1E+10	1	-1E+10	1	-1E+10	1
4901784	131	C	02/04/2019	10:42	-133.260	43.241	0	1655.40	0	2.3260	0	35.8850	8	28.663	0	1635.739	0	35.8	4	11.0	4	-1E+10	1	-1E+10	1	-1E+10	1	-1E+10	1	-1E+10	1	-1E+10	1
4901784	131	C	02/04/2019	10:42	-133.260	43.241	0	1660.70	0	2.3200	0	35.8870	8	28.666	0	1640.956	0	36.0	4	11.1	4	-1E+10	1	-1E+10	1	-1E+10	1	-1E+10	1	-1E+10	1	-1E+10	1
4901784	131	C	02/04/2019	10:42	-133.260	43.241	0	1665.10	0	2.3150	0	35.8880	8	28.667	0	1645.287	0	36.2	4	11.1	4	-1E+10	1	-1E+10	1	-1E+10	1	-1E+10	1	-1E+10	1	-1E+10	1
4901784	131	C	02/04/2019	10:42	-133.260	43.241	0	1669.50	0	2.3120	0	35.8880	8	28.667	0	1649.617	0	36.4	4	11.2	4	-1E+10	1	-1E+10	1	-1E+10	1	-1E+10	1	-1E+10	1	-1E+10	1
4901784	131	C	02/04/2019	10:42	-133.260	43.241	0	1674.80	0	2.3050	0	35.8890	8	28.669	0	1654.833	0	36.8	4	11.3	4	-1E+10	1	-1E+10	1	-1E+10	1	-1E+10	1	-1E+10	1	-1E+10	1
4901784	131	C	02/04/2019	10:42	-133.260	43.241	0	1680.10	0	2.2970	0	35.8910	8	28.671	0	1660.049	0	37.1	4	11.4	4	-1E+10	1	-1E+10	1	-1E+10	1	-1E+10	1	-1E+10	1	-1E+10	1
4901784	131	C	02/04/2019	10:42	-133.260	43.241	0	1685.40	0	2.2890	0	35.8920	8	28.672	0	1665.265	0	37.5	4	11.5	4	-1E+10	1	-1E+10	1	-1E+10	1	-1E+10	1	-1E+10	1	-1E+10	1
4901784	131	C	02/04/2019	10:42	-133.260	43.241	0	1689.90	0	2.2850	0	35.8930	8	28.674	0	1669.694	0	37.7	4	11.5	4	-1E+10	1	-1E+10	1	-1E+10	1	-1E+10	1	-1E+10	1	-1E+10	1
4901784	131	C	02/04/2019	10:42	-133.260	43.241	0	1694.30	0	2.2810	0	35.8930	8	28.674	0	1674.024	0	37.8	4	11.6	4	-1E+10	1	-1E+10	1	-1E+10	1	-1E+10	1	-1E+10	1	-1E+10	1
4901784	131	C	02/04/2019	10:42	-133.260	43.241	0	1699.70	0	2.2760	0	35.8940	8	28.675	0	1679.338	0	38.1	4	11.7	4	-1E+10	1	-1E+10	1	-1E+10	1	-1E+10	1	-1E+10	1	-1E+10	1
4901784	131	C	02/04/2019	10:42	-133.260	43.241	0	1705.00	0	2.2680	0	35.8960	8	28.677	0	1684.553	0	38.4	4	11.8	4	-1E+10	1	-1E+10	1	-1E+10	1	-1E+10	1	-1E+10	1	-1E+10	1
4901784	131	C	02/04/2019	10:42	-133.260	43.241	0	1710.40	0	2.2650	0	35.8960	8	28.678	0	1689.867	0	38.7	4	11.9	4	-1E+10	1	-1E+10	1	-1E+10	1	-1E+10	1	-1E+10	1	-1E+10	1
4901784	131	C	02/04/2019	10:42	-133.260	43.241	0	1714.90	0	2.2620	0	35.8970	8	28.679	0	1694.295	0	38.9	4	11.9	4	-1E+10	1	-1E+10	1	-1E+10	1	-1E+10	1	-1E+10	1	-1E+10	1
4901784	131	C	02/04/2019	10:42	-133.260	43.241	0	1719.40	0	2.2570	0	35.8980	8	28.680	0	1698.723	0	39.2	4	12.0	4	-1E+10	1	-1E+10	1	-1E+10	1	-1E+10	1	-1E+10	1	-1E+10	1
4901784	131	C	02/04/2019	10:42	-133.260	43.241	0	1724.80	0	2.2500	0	35.8990	8	28.682	0	1704.037	0	39.7	4	12.2	4	-1E+10	1	-1E+10	1	-1E+10	1	-1E+10	1	-1E+10	1	-1E+10	1
4901784	131	C	02/04/2019	10:42	-133.260	43.241	0	1730.30	0	2.2430	0	35.9000	8	28.683	0	1709.448	0	40.1	4	12.3	4	-1E+10	1	-1E+10	1	-1E+10	1	-1E+10	1	-1E+10	1	-1E+10	1
4901784	131	C	02/04/2019	10:42	-133.260	43.241	0	1734.80	0	2.2350	0	35.9020	8	28.685	0	1713.876	0	40.5	4	12.4	4	-1E+10	1	-1E+10	1	-1E+10	1	-1E+10	1	-1E+10	1	-1E+10	1
4901784	131	C	02/04/2019	10:42	-133.260	43.241	0	1739.50	0	2.2270	0	35.9030	8	28.687	0	1718.500	0	40.9	4	12.5	4	-1E+10	1	-1E+10	1	-1E+10	1	-1E+10	1	-1E+10	1	-1E+10	1
4901784	131	C	02/04/2019	10:42	-133.260	43.241	0	1745.00	0	2.2190	0	35.9050	8	28.689	0	1723.911	0	41.4	4	12.7	4	-1E+10	1	-1E+10	1	-1E+10	1	-1E+10	1	-1E+10	1	-1E+10	1
4901784	131	C	02/04/2019	10:42	-133.260	43.241	0	1749.70	0	2.2090	0	35.9060	8	28.691	0	1728.535	0	41.8	4	12.8	4	-1E+10	1	-1E+10	1	-1E+10	1	-1E+10	1	-1E+10	1	-1E+10	1
4901784	131	C	02/04/2019	10:42	-133.260	43.241	0	1754.40	0	2.2010	0	35.9080	8	28.693	0	1733.159	0	42.1	4	12.9	4	-1E+10	1	-1E+10	1	-1E+10	1	-1E+10	1	-1E+10	1	-1E+10	1
4901784	131	C	02/04/2019	10:42	-133.260	43.241	0	1760.00	0	2.1940	0	35.9090	8	28.694	0	1738.669	0	42.5	4	13.0	4	-1E+10	1	-1E+10	1	-1E+10	1	-1E+10	1	-1E+10	1	-1E+10	1
4901784	131	C	02/04/2019	10:42	-133.260	43.241	0	1765.60	0	2.1870	0	35.9100	8	28.696	0	1744.178	0	42.9	4	13.1	4	-1E+10	1	-1E+10	1	-1E+10	1	-1E+10	1	-1E+10	1	-1E+10	1
4901784	131	C	02/04/2019	10:42	-133.260	43.241	0	1770.30	0	2.1820	0	35.9110	8	28.697	0	1748.801	0	43.1	4	13.2	4	-1E+10	1	-1E+10	1	-1E+10	1	-1E+10	1	-1E+10	1	-1E+10	1
4901784	131	C	02/04/2019	10:42	-133.260	43.241	0	1774.90	0	2.1780	0	35.9120	8	28.698	0	1753.327	0	43.5	4	13.3	4	-1E+10	1	-1E+10	1	-1E+10	1	-1E+10	1	-1E+10	1	-1E+10	1
4901784	131	C	02/04/2019	10:42	-133.260	43.241	0	1779.80	0	2.1680	0	35.9130	8	28.700	0	1758.147	0	44.1	4	13.5	4	-1E+10	1	-1E+10	1	-1E+10	1	-1E+10	1	-1E+10	1	-1E+10	1
4901784	131	C	02/04/2019	10:42	-133.260	43.241	0	1784.80	0	2.1570	0	35.9150	8	28.702	0	1763.065	0	44.4	4	13.6	4	-1E+10	1	-1E+10	1	-1E+10	1	-1E+10	1	-1E+10	1	-1E+10	1
4901784	131	C	02/04/2019	10:42	-133.260	43.241	0	1789.70	0	2.1520	0	35.9150	8	28.703	0	1767.885	0	44.6	4	13.7	4	-1E+10	1	-1E+10	1	-1E+10	1	-1E+10	1	-1E+10	1	-1E+10	1
4901784	131	C	02/04/2019	10:42	-133.260	43.241	0	1794.60	0	2.1470	0	35.9160	8	28.704	0	1772.705	0	44.9	4	13.7	4	-1E+10	1	-1E+10	1	-1E+10	1	-1E+10	1	-1E+10	1	-1E+10	1
4901784	131	C	02/04/2019	10:42	-133.260	43.241	0	1799.70	0	2.1430	0	35.9170	8	28.705	0	1777.721	0	45.2	4	13.8	4	-1E+10	1	-1E+10	1	-1E+10	1	-1E+10	1	-1E+10	1	-1E+10	1
4901784	131	C	02/04/2019	10:42	-133.260	43.241	0	1804.70	0	2.1350	0	35.9180	8	28.707	0	1782.639	0	45.7	4	14.0	4	-1E+10	1	-1E+10	1	-1E+10	1	-1E+10	1	-1E+10	1	-1E+10	1
4901784	131	C	02/04/2019	10:42	-133.260	43.241	0	1809.80	0	2.1270	0	35.9190	8	28.708	0	1787.656	0	46.0	4	14.1	4	-1E+10	1	-1E+10	1	-1E+10	1	-1E+10	1	-1E+10	1	-1E+10	1
4901784	131	C	02/04/2019	10:42	-133.260	43.241	0	1815.00	0	2.1180	0	35.9210	8	28.711	0	1792.770	0	46.4	4	14.2	4	-1E+10	1	-1E+10	1	-1E+10	1	-1E+10	1	-1E+10	1	-1E+10	1
4901784	131	C	02/04/2019	10:42	-133.260	43.241	0	1820.10	0	2.1160	0	35.9220	8	28.712	0	1797.786	0	46.8	4	14.3	4	-1E+10	1	-1E+10	1	-1E+10	1	-1E+10	1	-1E+10	1	-1E+10	1
4901784	131	C	02/04/2019	10:42	-133.260	43.241	0	1825.30	0	2.1120	0	35.9250	8	28.714	0	1802.900	0	47.2	4	14.4	4	-1E+10	1	-1E+10	1	-1E+10	1	-1E+10	1	-1E+10	1	-1E+10	1
4901784	131	C	02/04/2019	10:42	-133.260	43.241	0	1830.40	0	2.1090	0	35.9250	8	28.715	0	1807.916	0	47.4	4	14.5	4	-1E+10	1	-1E+10	1	-1E+10	1	-1E+10	1	-1E+10	1	-1E+10	1
4901784	131	C	02/04/2019	10:42	-133.260	43.241	0	1835.70	0	2.1050	0	35.9270	8	28.717	0	1813.128	0	47.8	4	14.6	4	-1E+10	1	-1E+10	1	-1E+10	1	-1E+10	1	-1E+10	1	-1E+10	1
4901784	131	C	02/04/2019	10:42	-133.260	43.241	0	1840.00	0	2.0990	0	35.9280	8	28.718	0	1817.357	0	48.1	4	14.7	4	-1E+10	1	-1E+10	1	-1E+10	1	-1E+10	1	-1E+10	1	-1E+10	1
4901784	131	C	02/04/2019	10:42	-133.260	43.241	0	1844.40	0	2.0930	0	35.9290	8	28.719	0	1821.684	0	48.4	4	14.8	4	-1E+10	1	-1E+10	1	-1E+10	1	-1E+10	1	-1E+10	1	-1E+10	1
4901784	131	C	02/04/2019	10:42	-133.260	43.241	0	1849.70	0	2.0900	0	35.9300	8	28.720	0	1826.896	0	48.7	4	14.9	4	-1E+10	1	-1E+10	1	-1E+10	1	-1E+10	1	-1E+10	1	-1E+10	1
4901784	131	C	02/04/2019	10:42	-133.260	43.241	0	1855.00	0	2.0860	0	35.9300	8	28.721	0	1832.108	0	49.1	4	15.0	4	-1E+10	1	-1E+10	1	-1E+10	1	-1E+10	1	-1E+10	1	-1E+10	1
4901784	131	C	02/04/2019	10:42	-133.260	43.241	0	1860.30	0	2.0770	0	35.9320	8	28.723	0	1837.320	0	49.6	4	15.1	4	-1E+10	1	-1E+10	1	-1E+10	1	-1E+10	1	-1E+10	1	-1E+10	1
4901784	131	C	02/04/2019	10:42	-133.260	43.241	0	1865.60	0	2.0690	0	35.9340	8	28.725	0	1842.531	0	50.0	4	15.3	4	-1E+10	1	-1E+10	1	-1E+10	1	-1E+10	1	-1E+10	1	-1E+10	1
4901784	131	C	02/04/2019	10:42	-133.260	43.241	0	1870.10	0	2.0660	0	35.9340	8	28.726	0	1846.956	0	50.3	4	15.4	4	-1E+10	1	-1E+10	1	-1E+10	1	-1E+10	1	-1E+10	1	-1E+10	1
4901784	131	C	02/04/2019	10:42	-133.260	43.241	0	1874.60	0	2.0600	0	35.9350	8	28.727	0	1851.381	0	50.5	4	15.4	4	-1E+10	1	-1E+10	1	-1E+10	1	-1E+10	1	-1E+10	1	-1E+10	1
4901784	131	C	02/04/2019	10:42	-133.260	43.241	0	1880.10	0	2.0570	0	35.9360	8	28.728	0	1856.788	0	50.8	4	15.5	4	-1E+10	1	-1E+10	1	-1E+10	1	-1E+10	1	-1E+10	1	-1E+10	1
4901784	131	C	02/04/2019	10:42	-133.260	43.241	0	1885.60	0	2.0530	0	35.9370	8	28.729	0	1862.196	0	51.1	4	15.6	4	-1E+10	1	-1E+10	1	-1E+10	1	-1E+10	1	-1E+10	1	-1E+10	1
4901784	131	C	02/04/2019	10:42	-133.260	43.241	0	1890.10	0	2.0490	0	35.9380	8	28.730	0	1866.621	0	51.3	4	15.6	4	-1E+10	1	-1E+10	1	-1E+10	1	-1E+10	1	-1E+10	1	-1E+10	1
4901784	131	C	02/04/2019	10:42	-133.260	43.241	0	1894.90	0	2.0440	0	35.9380	8	28.731	0	1871.340	0	51.4	4	15.7	4	-1E+10	1	-1E+10	1	-1E+10	1	-1E+10	1	-1E+10	1	-1E+10	1
4901784	131	C	02/04/2019	10:42	-133.260	43.241	0	1900.10	0	2.0400	0	35.9380	8	28.731	0	1876.452	0	51.7	4	15.8	4	-1E+10	1	-1E+10	1	-1E+10	1	-1E+10	1	-1E+10	1	-1E+10	1
4901784	131	C	02/04/2019	10:42	-133.260	43.241	0	1905.00	0	2.0340	0	35.9390	8	28.733	0	1881.270	0	52.0	4	15.9	4	-1E+10	1	-1E+10	1	-1E+10	1	-1E+10	1	-1E+10	1	-1E+10	1
4901784	131	C	02/04/2019	10:42	-133.260	43.241	0	1909.80	0	2.0280	0	35.9400	8	28.734	0	1885.989	0	52.4	4	16.0	4	-1E+10	1	-1E+10	1	-1E+10	1	-1E+10	1	-1E+10	1	-1E+10	1
4901784	131	C	02/04/2019	10:42	-133.260	43.241	0	1914.70	0	2.0230	0	35.9400	8	28.734	0	1890.806	0	52.7	4	16.1	4	-1E+10	1	-1E+10	1	-1E+10	1	-1E+10	1	-1E+10	1	-1E+10	1
4901784	131	C	02/04/2019	10:42	-133.260	43.241	0	1919.60	0	2.0180	0	35.9410	8	28.736	0	1895.623	0	53.2	4	16.2	4	-1E+10	1	-1E+10	1	-1E+10	1	-1E+10	1	-1E+10	1	-1E+10	1
4901784	131	C	02/04/2019	10:42	-133.260	43.241	0	1924.50	0	2.0140	0	35.9420	8	28.737	0	1900.440	0	53.7	4	16.4	4	-1E+10	1	-1E+10	1	-1E+10	1	-1E+10	1	-1E+10	1	-1E+10	1
4901784	131	C	02/04/2019	10:42	-133.260	43.241	0	1929.50	0	2.0070	0	35.9440	8	28.739	0	1905.355	0	54.2	4	16.5	4	-1E+10	1	-1E+10	1	-1E+10	1	-1E+10	1	-1E+10	1	-1E+10	1
4901784	131	C	02/04/2019	10:42	-133.260	43.241	0	1934.50	0	2.0020	0	35.9450	8	28.740	0	1910.270	0	54.5	4	16.6	4	-1E+10	1	-1E+10	1	-1E+10	1	-1E+10	1	-1E+10	1	-1E+10	1
4901784	131	C	02/04/2019	10:42	-133.260	43.241	0	1939.60	0	1.9980	0	35.9470	8	28.742	0	1915.283	0	54.8	4	16.7	4	-1E+10	1	-1E+10	1	-1E+10	1	-1E+10	1	-1E+10	1	-1E+10	1
4901784	131	C	02/04/2019	10:42	-133.260	43.241	0	1944.60	0	1.9940	0	35.9480	8	28.743	0	1920.198	0	55.1	4	16.8	4	-1E+10	1	-1E+10	1	-1E+10	1	-1E+10	1	-1E+10	1	-1E+10	1
4901784	131	C	02/04/2019	10:42	-133.260	43.241	0	1949.70	0	1.9900	0	35.9480	8	28.744	0	1925.211	0	55.3	4	16.9	4	-1E+10	1	-1E+10	1	-1E+10	1	-1E+10	1	-1E+10	1	-1E+10	1
4901784	131	C	02/04/2019	10:42	-133.260	43.241	0	1954.80	0	1.9880	0	35.9490	8	28.745	0	1930.224	0	55.6	4	16.9	4	-1E+10	1	-1E+10	1	-1E+10	1	-1E+10	1	-1E+10	1	-1E+10	1
4901784	131	C	02/04/2019	10:42	-133.260	43.241	0	1959.90	0	1.9850	0	35.9500	8	28.746	0	1935.236	0	55.9	4	17.0	4	-1E+10	1	-1E+10	1	-1E+10	1	-1E+10	1	-1E+10	1	-1E+10	1
4901784	131	C	02/04/2019	10:42	-133.260	43.241	0	1965.00	0	1.9790	0	35.9510	8	28.747	0	1940.249	0	56.3	4	17.1	4	-1E+10	1	-1E+10	1	-1E+10	1	-1E+10	1	-1E+10	1	-1E+10	1
4901784	131	C	02/04/2019	10:42	-133.260	43.241	0	1970.20	0	1.9750	0	35.9520	8	28.748	0	1945.360	0	56.5	4	17.2	4	-1E+10	1	-1E+10	1	-1E+10	1	-1E+10	1	-1E+10	1	-1E+10	1
4901784	131	C	02/04/2019	10:42	-133.260	43.241	0	1975.40	0	1.9720	0	35.9530	8	28.749	0	1950.471	0	56.8	4	17.3	4	-1E+10	1	-1E+10	1	-1E+10	1	-1E+10	1	-1E+10	1	-1E+10	1
4901784	131	C	02/04/2019	10:42	-133.260	43.241	0	1980.70	0	1.9690	0	35.9540	8	28.750	0	1955.679	0	57.0	4	17.4	4	-1E+10	1	-1E+10	1	-1E+10	1	-1E+10	1	-1E+10	1	-1E+10	1
4901784	131	C	02/04/2019	10:42	-133.260	43.241	0	1985.00	0	1.9670	0	35.9540	8	28.751	0	1959.905	0	57.2	4	17.4	4	-1E+10	1	-1E+10	1	-1E+10	1	-1E+10	1	-1E+10	1	-1E+10	1
4901784	131	C	02/04/2019	10:42	-133.260	43.241	0	1989.40	0	1.9640	0	35.9550	8	28.752	0	1964.229	0	57.4	4	17.5	4	-1E+10	1	-1E+10	1	-1E+10	1	-1E+10	1	-1E+10	1	-1E+10	1
4901784	131	C	02/04/2019	10:42	-133.260	43.241	0	1994.70	0	1.9620	0	35.9560	8	28.753	0	1969.438	0	57.7	4	17.6	4	-1E+10	1	-1E+10	1	-1E+10	1	-1E+10	1	-1E+10	1	-1E+10	1
4901784	131	C	02/04/2019	10:42	-133.260	43.241	0	1999.90	0	1.9590	0	35.9560	8	28.753	0	1974.548	0	58.0	4	17.6	4	-1E+10	1	-1E+10	1	-1E+10	1	-1E+10	1	-1E+10	1	-1E+10	1
4901784	131	C	02/04/2019	10:42	-133.260	43.241	0	2005.20	0	1.9530	0	35.9570	8	28.754	0	1979.756	0	58.2	4	17.7	4	-1E+10	1	-1E+10	1	-1E+10	1	-1E+10	1	-1E+10	1	-1E+10	1
4901784	131	C	02/04/2019	10:42	-133.260	43.241	0	2009.80	0	1.9520	0	35.9580	8	28.755	0	1984.276	0	58.4	4	17.8	4	-1E+10	1	-1E+10	1	-1E+10	1	-1E+10	1	-1E+10	1	-1E+10	1
4901784	131	C	02/04/2019	10:42	-133.260	43.241	0	2015.70	0	1.9510	0	35.9590	8	28.756	0	1990.074	0	58.6	4	17.8	4	-1E+10	1	-1E+10	1	-1E+10	1	-1E+10	1	-1E+10	1	-1E+10	1
4901784	131	C	02/04/2019	10:42	-133.260	43.241	0	2020.20	0	1.9480	0	35.9600	8	28.757	0	1994.496	0	58.9	4	17.9	4	-1E+10	1	-1E+10	1	-1E+10	1	-1E+10	1	-1E+10	1	-1E+10	1
4901784	131	C	02/04/2019	10:42	-133.260	43.241	0																										
4901784	132	C	02/14/2019	10:48	-133.207	43.114	0	2.50	0	11.0610	0	33.6020	8	25.677	0	2.480	0	258.4	4	95.3	4	-1E+10	1	-1E+10	1	-1E+10	1	-1E+10	1	-1E+10	1	-1E+10	1
4901784	132	C	02/14/2019	10:48	-133.207	43.114	0	3.80	0	11.0580	0	33.6020	8	25.677	0	3.770	0	258.4	4	95.3	4	-1E+10	1	-1E+10	1	-1E+10	1	-1E+10	1	-1E+10	1	-1E+10	1
4901784	132	C	02/14/2019	10:48	-133.207	43.114	0	5.40	0	11.0580	0	33.6030	8	25.678	0	5.357	0	258.3	4	95.3	4	-1E+10	1	-1E+10	1	-1E+10	1	-1E+10	1	-1E+10	1	-1E+10	1
4901784	132	C	02/14/2019	10:48	-133.207	43.114	0	6.90	0	11.0600	0	33.6030	8	25.678	0	6.845	0	258.3	4	95.3	4	-1E+10	1	-1E+10	1	-1E+10	1	-1E+10	1	-1E+10	1	-1E+10	1
4901784	132	C	02/14/2019	10:48	-133.207	43.114	0	8.40	0	11.0600	0	33.6030	8	25.678	0	8.333	0	258.4	4	95.3	4	-1E+10	1	-1E+10	1	-1E+10	1	-1E+10	1	-1E+10	1	-1E+10	1
4901784	132	C	02/14/2019	10:48	-133.207	43.114	0	9.90	0	11.0600	0	33.6040	8	25.678	0	9.821	0	258.5	4	95.3	4	-1E+10	1	-1E+10	1	-1E+10	1	-1E+10	1	-1E+10	1	-1E+10	1
4901784	132	C	02/14/2019	10:48	-133.207	43.114	0	11.50	0	11.0600	0	33.6040	8	25.678	0	11.408	0	258.2	4	95.2	4	-1E+10	1	-1E+10	1	-1E+10	1	-1E+10	1	-1E+10	1	-1E+10	1
4901784	132	C	02/14/2019	10:48	-133.207	43.114	0	13.30	0	11.0610	0	33.6050	8	25.679	0	13.194	0	258.2	4	95.2	4	-1E+10	1	-1E+10	1	-1E+10	1	-1E+10	1	-1E+10	1	-1E+10	1
4901784	132	C	02/14/2019	10:48	-133.207	43.114	0	15.30	0	11.0680	0	33.6050	8	25.678	0	15.178	0	258.3	4	95.3	4	-1E+10	1	-1E+10	1	-1E+10	1	-1E+10	1	-1E+10	1	-1E+10	1
4901784	132	C	02/14/2019	10:48	-133.207	43.114	0	17.30	0	11.0620	0	33.6050	8	25.679	0	17.162	0	258.3	4	95.3	4	-1E+10	1	-1E+10	1	-1E+10	1	-1E+10	1	-1E+10	1	-1E+10	1
4901784	132	C	02/14/2019	10:48	-133.207	43.114	0	19.20	0	11.0660	0	33.6060	8	25.679	0	19.047	0	258.2	4	95.2	4	-1E+10	1	-1E+10	1	-1E+10	1	-1E+10	1	-1E+10	1	-1E+10	1
4901784	132	C	02/14/2019	10:48	-133.207	43.114	0	21.30	0	11.0740	0	33.6060	8	25.678	0	21.130	0	258.3	4	95.3	4	-1E+10	1	-1E+10	1	-1E+10	1	-1E+10	1	-1E+10	1	-1E+10	1
4901784	132	C	02/14/2019	10:48	-133.207	43.114	0	23.30	0	11.0740	0	33.6060	8	25.678	0	23.114	0	258.4	4	95.3	4	-1E+10	1	-1E+10	1	-1E+10	1	-1E+10	1	-1E+10	1	-1E+10	1
4901784	132	C	02/14/2019	10:48	-133.207	43.114	0	25.20	0	11.0740	0	33.6070	8	25.679	0	24.998	0	258.2	4	95.3	4	-1E+10	1	-1E+10	1	-1E+10	1	-1E+10	1	-1E+10	1	-1E+10	1
4901784	132	C	02/14/2019	10:48	-133.207	43.114	0	27.30	0	11.0740	0	33.6070	8	25.679	0	27.081	0	258.2	4	95.3	4	-1E+10	1	-1E+10	1	-1E+10	1	-1E+10	1	-1E+10	1	-1E+10	1
4901784	132	C	02/14/2019	10:48	-133.207	43.114	0	29.40	0	11.0750	0	33.6080	8	25.679	0	29.164	0	258.2	4	95.2	4	-1E+10	1	-1E+10	1	-1E+10	1	-1E+10	1	-1E+10	1	-1E+10	1
4901784	132	C	02/14/2019	10:48	-133.207	43.114	0	31.40	0	11.0750	0	33.6080	8	25.679	0	31.148	0	258.1	4	95.2	4	-1E+10	1	-1E+10	1	-1E+10	1	-1E+10	1	-1E+10	1	-1E+10	1
4901784	132	C	02/14/2019	10:48	-133.207	43.114	0	33.50	0	11.0750	0	33.6090	8	25.680	0	33.231	0	258.0	4	95.2	4	-1E+10	1	-1E+10	1	-1E+10	1	-1E+10	1	-1E+10	1	-1E+10	1
4901784	132	C	02/14/2019	10:48	-133.207	43.114	0	35.50	0	11.0750	0	33.6090	8	25.680	0	35.215	0	258.0	4	95.2	4	-1E+10	1	-1E+10	1	-1E+10	1	-1E+10	1	-1E+10	1	-1E+10	1
4901784	132	C	02/14/2019	10:48	-133.207	43.114	0	37.50	0	11.0760	0	33.6090	8	25.680	0	37.199	0	258.1	4	95.2	4	-1E+10	1	-1E+10	1	-1E+10	1	-1E+10	1	-1E+10	1	-1E+10	1
4901784	132	C	02/14/2019	10:48	-133.207	43.114	0	39.60	0	11.0760	0	33.6100	8	25.681	0	39.282	0	257.9	4	95.2	4	-1E+10	1	-1E+10	1	-1E+10	1	-1E+10	1	-1E+10	1	-1E+10	1
4901784	132	C	02/14/2019	10:48	-133.207	43.114	0	41.60	0	11.0760	0	33.6100	8	25.681	0	41.265	0	258.0	4	95.2	4	-1E+10	1	-1E+10	1	-1E+10	1	-1E+10	1	-1E+10	1	-1E+10	1
4901784	132	C	02/14/2019	10:48	-133.207	43.114	0	43.60	0	11.0760	0	33.6100	8	25.681	0	43.249	0	257.9	4	95.2	4	-1E+10	1	-1E+10	1	-1E+10	1	-1E+10	1	-1E+10	1	-1E+10	1
4901784	132	C	02/14/2019	10:48	-133.207	43.114	0	45.60	0	11.0760	0	33.6110	8	25.682	0	45.233	0	257.9	4	95.1	4	-1E+10	1	-1E+10	1	-1E+10	1	-1E+10	1	-1E+10	1	-1E+10	1
4901784	132	C	02/14/2019	10:48	-133.207	43.114	0	47.70	0	11.0770	0	33.6120	8	25.682	0	47.316	0	257.9	4	95.1	4	-1E+10	1	-1E+10	1	-1E+10	1	-1E+10	1	-1E+10	1	-1E+10	1
4901784	132	C	02/14/2019	10:48	-133.207	43.114	0	49.70	0	11.0780	0	33.6110	8	25.682	0	49.299	0	257.8	4	95.1	4	-1E+10	1	-1E+10	1	-1E+10	1	-1E+10	1	-1E+10	1	-1E+10	1
4901784	132	C	02/14/2019	10:48	-133.207	43.114	0	51.70	0	11.0770	0	33.6120	8	25.683	0	51.283	0	257.9	4	95.1	4	-1E+10	1	-1E+10	1	-1E+10	1	-1E+10	1	-1E+10	1	-1E+10	1
4901784	132	C	02/14/2019	10:48	-133.207	43.114	0	53.80	0	11.0770	0	33.6130	8	25.683	0	53.366	0	257.8	4	95.1	4	-1E+10	1	-1E+10	1	-1E+10	1	-1E+10	1	-1E+10	1	-1E+10	1
4901784	132	C	02/14/2019	10:48	-133.207	43.114	0	55.70	0	11.0780	0	33.6130	8	25.683	0	55.250	0	257.8	4	95.1	4	-1E+10	1	-1E+10	1	-1E+10	1	-1E+10	1	-1E+10	1	-1E+10	1
4901784	132	C	02/14/2019	10:48	-133.207	43.114	0	57.70	0	11.0780	0	33.6140	8	25.684	0	57.234	0	257.5	4	95.0	4	-1E+10	1	-1E+10	1	-1E+10	1	-1E+10	1	-1E+10	1	-1E+10	1
4901784	132	C	02/14/2019	10:48	-133.207	43.114	0	59.60	0	11.0780	0	33.6150	8	25.685	0	59.118	0	257.4	4	95.0	4	-1E+10	1	-1E+10	1	-1E+10	1	-1E+10	1	-1E+10	1	-1E+10	1
4901784	132	C	02/14/2019	10:48	-133.207	43.114	0	61.60	0	11.0780	0	33.6150	8	25.685	0	61.101	0	257.6	4	95.0	4	-1E+10	1	-1E+10	1	-1E+10	1	-1E+10	1	-1E+10	1	-1E+10	1
4901784	132	C	02/14/2019	10:48	-133.207	43.114	0	63.50	0	11.0790	0	33.6150	8	25.685	0	62.986	0	257.5	4	95.0	4	-1E+10	1	-1E+10	1	-1E+10	1	-1E+10	1	-1E+10	1	-1E+10	1
4901784	132	C	02/14/2019	10:48	-133.207	43.114	0	65.50	0	11.0790	0	33.6160	8	25.686	0	64.969	0	257.3	4	94.9	4	-1E+10	1	-1E+10	1	-1E+10	1	-1E+10	1	-1E+10	1	-1E+10	1
4901784	132	C	02/14/2019	10:48	-133.207	43.114	0	67.40	0	11.0790	0	33.6170	8	25.686	0	66.854	0	257.3	4	94.9	4	-1E+10	1	-1E+10	1	-1E+10	1	-1E+10	1	-1E+10	1	-1E+10	1
4901784	132	C	02/14/2019	10:48	-133.207	43.114	0	69.30	0	11.0790	0	33.6170	8	25.686	0	68.738	0	257.3	4	94.9	4	-1E+10	1	-1E+10	1	-1E+10	1	-1E+10	1	-1E+10	1	-1E+10	1
4901784	132	C	02/14/2019	10:48	-133.207	43.114	0	71.20	0	11.0800	0	33.6180	8	25.687	0	70.622	0	257.2	4	94.9	4	-1E+10	1	-1E+10	1	-1E+10	1	-1E+10	1	-1E+10	1	-1E+10	1
4901784	132	C	02/14/2019	10:48	-133.207	43.114	0	73.20	0	11.0800	0	33.6180	8	25.687	0	72.606	0	256.9	4	94.8	4	-1E+10	1	-1E+10	1	-1E+10	1	-1E+10	1	-1E+10	1	-1E+10	1
4901784	132	C	02/14/2019	10:48	-133.207	43.114	0	75.10	0	11.0800	0	33.6190	8	25.688	0	74.490	0	256.9	4	94.8	4	-1E+10	1	-1E+10	1	-1E+10	1	-1E+10	1	-1E+10	1	-1E+10	1
4901784	132	C	02/14/2019	10:48	-133.207	43.114	0	77.00	0	11.0800	0	33.6190	8	25.688	0	76.374	0	256.8	4	94.8	4	-1E+10	1	-1E+10	1	-1E+10	1	-1E+10	1	-1E+10	1	-1E+10	1
4901784	132	C	02/14/2019	10:48	-133.207	43.114	0	79.00	0	11.0810	0	33.6200	8	25.689	0	78.357	0	256.8	4	94.8	4	-1E+10	1	-1E+10	1	-1E+10	1	-1E+10	1	-1E+10	1	-1E+10	1
4901784	132	C	02/14/2019	10:48	-133.207	43.114	0	80.90	0	11.0810	0	33.6200	8	25.689	0	80.242	0	256.6	4	94.7	4	-1E+10	1	-1E+10	1	-1E+10	1	-1E+10	1	-1E+10	1	-1E+10	1
4901784	132	C	02/14/2019	10:48	-133.207	43.114	0	82.80	0	11.0810	0	33.6210	8	25.690	0	82.126	0	256.5	4	94.7	4	-1E+10	1	-1E+10	1	-1E+10	1	-1E+10	1	-1E+10	1	-1E+10	1
4901784	132	C	02/14/2019	10:48	-133.207	43.114	0	84.80	0	11.0810	0	33.6210	8	25.690	0	84.109	0	256.2	4	94.5	4	-1E+10	1	-1E+10	1	-1E+10	1	-1E+10	1	-1E+10	1	-1E+10	1
4901784	132	C	02/14/2019	10:48	-133.207	43.114	0	86.70	0	11.0820	0	33.6220	8	25.690	0	85.993	0	255.9	4	94.4	4	-1E+10	1	-1E+10	1	-1E+10	1	-1E+10	1	-1E+10	1	-1E+10	1
4901784	132	C	02/14/2019	10:48	-133.207	43.114	0	88.60	0	11.0820	0	33.6220	8	25.690	0	87.877	0	255.7	4	94.4	4	-1E+10	1	-1E+10	1	-1E+10	1	-1E+10	1	-1E+10	1	-1E+10	1
4901784	132	C	02/14/2019	10:48	-133.207	43.114	0	91.10	0	11.0810	0	33.6220	8	25.690	0	90.356	0	255.2	4	94.2	4	-1E+10	1	-1E+10	1	-1E+10	1	-1E+10	1	-1E+10	1	-1E+10	1
4901784	132	C	02/14/2019	10:48	-133.207	43.114	0	93.10	0	11.0790	0	33.6220	8	25.691	0	92.340	0	254.7	4	94.0	4	-1E+10	1	-1E+10	1	-1E+10	1	-1E+10	1	-1E+10	1	-1E+10	1
4901784	132	C	02/14/2019	10:48	-133.207	43.114	0	94.60	0	11.0740	0	33.6200	8	25.690	0	93.827	0	254.2	4	93.8	4	-1E+10	1	-1E+10	1	-1E+10	1	-1E+10	1	-1E+10	1	-1E+10	1
4901784	132	C	02/14/2019	10:48	-133.207	43.114	0	96.30	0	11.0730	0	33.6190	8	25.690	0	95.513	0	253.5	4	93.5	4	-1E+10	1	-1E+10	1	-1E+10	1	-1E+10	1	-1E+10	1	-1E+10	1
4901784	132	C	02/14/2019	10:48	-133.207	43.114	0	97.80	0	11.0730	0	33.6160	8	25.687	0	97.000	0	252.6	4	93.2	4	-1E+10	1	-1E+10	1	-1E+10	1	-1E+10	1	-1E+10	1	-1E+10	1
4901784	132	C	02/14/2019	10:48	-133.207	43.114	0	99.30	0	11.0710	0	33.6110	8	25.684	0	98.487	0	251.4	4	92.7	4	-1E+10	1	-1E+10	1	-1E+10	1	-1E+10	1	-1E+10	1	-1E+10	1
4901784	132	C	02/14/2019	10:48	-133.207	43.114	0	102.40	0	11.0300	0	33.5880	8	25.673	0	101.561	0	247.9	4	91.3	4	-1E+10	1	-1E+10	1	-1E+10	1	-1E+10	1	-1E+10	1	-1E+10	1
4901784	132	C	02/14/2019	10:48	-133.207	43.114	0	104.70	0	10.3110	0	33.6160	8	25.821	0	103.842	0	246.6	4	89.5	4	-1E+10	1	-1E+10	1	-1E+10	1	-1E+10	1	-1E+10	1	-1E+10	1
4901784	132	C	02/14/2019	10:48	-133.207	43.114	0	107.20	0	9.6050	0	33.6490	8	25.965	0	106.321	0	248.8	4	89.0	4	-1E+10	1	-1E+10	1	-1E+10	1	-1E+10	1	-1E+10	1	-1E+10	1
4901784	132	C	02/14/2019	10:48	-133.207	43.114	0	109.60	0	9.3680	0	33.6480	8	26.003	0	108.700	0	248.8	4	88.5	4	-1E+10	1	-1E+10	1	-1E+10	1	-1E+10	1	-1E+10	1	-1E+10	1
4901784	132	C	02/14/2019	10:48	-133.207	43.114	0	112.20	0	9.2240	0	33.6440	8	26.023	0	111.278	0	248.2	4	88.0	4	-1E+10	1	-1E+10	1	-1E+10	1	-1E+10	1	-1E+10	1	-1E+10	1
4901784	132	C	02/14/2019	10:48	-133.207	43.114	0	114.90	0	8.7820	0	33.6710	8	26.114	0	113.955	0	248.6	4	87.3	4	-1E+10	1	-1E+10	1	-1E+10	1	-1E+10	1	-1E+10	1	-1E+10	1
4901784	132	C	02/14/2019	10:48	-133.207	43.114	0	117.60	0	8.5410	0	33.6960	8	26.171	0	116.632	0	248.8	4	86.9	4	-1E+10	1	-1E+10	1	-1E+10	1	-1E+10	1	-1E+10	1	-1E+10	1
4901784	132	C	02/14/2019	10:48	-133.207	43.114	0	119.50	0	8.3810	0	33.7060	8	26.203	0	118.516	0	249.2	4	86.8	4	-1E+10	1	-1E+10	1	-1E+10	1	-1E+10	1	-1E+10	1	-1E+10	1
4901784	132	C	02/14/2019	10:48	-133.207	43.114	0	122.50	0	8.3400	0	33.7320	8	26.229	0	121.491	0	248.4	4	86.4	4	-1E+10	1	-1E+10	1	-1E+10	1	-1E+10	1	-1E+10	1	-1E+10	1
4901784	132	C	02/14/2019	10:48	-133.207	43.114	0	125.20	0	8.3330	0	33.7520	8	26.246	0	124.168	0	247.3	4	86.1	4	-1E+10	1	-1E+10	1	-1E+10	1	-1E+10	1	-1E+10	1	-1E+10	1
4901784	132	C	02/14/2019	10:48	-133.207	43.114	0	127.60	0	8.3080	0	33.7680	8	26.263	0	126.547	0	246.3	4	85.7	4	-1E+10	1	-1E+10	1	-1E+10	1	-1E+10	1	-1E+10	1	-1E+10	1
4901784	132	C	02/14/2019	10:48	-133.207	43.114	0	130.10	0	8.2700	0	33.7840	8	26.281	0	129.026	0	245.4	4	85.3	4	-1E+10	1	-1E+10	1	-1E+10	1	-1E+10	1	-1E+10	1	-1E+10	1
4901784	132	C	02/14/2019	10:48	-133.207	43.114	0	132.40	0	8.2160	0	33.8150	8	26.313	0	131.306	0	244.4	4	84.8	4	-1E+10	1	-1E+10	1	-1E+10	1	-1E+10	1	-1E+10	1	-1E+10	1
4901784	132	C	02/14/2019	10:48	-133.207	43.114	0	134.80	0	8.1980	0	33.8310	8	26.329	0	133.685	0	242.9	4	84.3	4	-1E+10	1	-1E+10	1	-1E+10	1	-1E+10	1	-1E+10	1	-1E+10	1
4901784	132	C	02/14/2019	10:48	-133.207	43.114	0	137.10	0	8.1310	0	33.8900	8	26.385	0	135.966	0	241.9	4	83.9	4	-1E+10	1	-1E+10	1	-1E+10	1	-1E+10	1	-1E+10	1	-1E+10	1
4901784	132	C	02/14/2019	10:48	-133.207	43.114	0	139.70	0	8.1350	0	33.9130	8	26.402	0	138.543	0	240.7	4	83.5	4	-1E+10	1	-1E+10	1	-1E+10	1	-1E+10	1	-1E+10	1	-1E+10	1
4901784	132	C	02/14/2019	10:48	-133.207	43.114	0	142.30	0	8.0950	0	33.9480	8	26.436	0	141.121	0	239.3	4	83.0	4	-1E+10	1	-1E+10	1	-1E+10	1	-1E+10	1	-1E+10	1	-1E+10	1
4901784	132	C	02/14/2019	10:48	-133.207	43.114	0	144.80	0	8.0630	0	33.9870	8	26.471	0	143.599	0	238.2	4	82.5	4	-1E+10	1	-1E+10	1	-1E+10	1	-1E+10	1	-1E+10	1	-1E+10	1
4901784	132	C	02/14/2019	10:48	-133.207	43.114	0	147.50	0	8.0590	0	34.0260	8	26.503	0	146.276	0	236.8	4	82.1	4	-1E+10	1	-1E+10	1	-1E+10	1	-1E+10	1	-1E+10	1	-1E+10	1
4901784	132	C	02/14/2019	10:48	-133.207	43.114	0	150.10	0	7.9570	0	34.0300	8	26.521	0	148.853	0	235.6	4	81.4	4	-1E+10	1	-1E+10	1	-1E+10	1	-1E+10	1	-1E+10	1	-1E+10	1
4901784	132	C	02/14/2019	10:48	-133.207	43.114	0	152.40	0	7.8640	0	34.1340	8	26.616	0	151.133	0	234.4	4	80.9	4	-1E+10	1	-1E+10	1	-1E+10	1	-1E+10	1	-1E+10	1	-1E+10	1
4901784	132	C	02/14/2019	10:48	-133.207	43.114	0	154.90	0	7.8670	0	34.1570	8	26.634	0	153.612	0	233.0	4	80.5	4	-1E+10	1	-1E+10	1	-1E+10	1	-1E+10	1	-1E+10	1	-1E+10	1
4901784	132	C	02/14/2019	10:48	-133.207	43.114	0	157.90	0	7.8660	0	34.2070	8	26.673	0	156.586	0	230.7	4	79.7	4	-1E+10	1	-1E+10	1	-1E+10	1	-1E+10	1	-1E+10	1	-1E+10	1
4901784	132	C	02/14/2019	10:48	-133.207	43.114	0	160.20	0	7.8690	0	34.2660	8	26.719	0	158.866	0	228.6	4	79.0	4	-1E+10	1	-1E+10	1	-1E+10	1	-1E+10	1	-1E+10	1	-1E+10	1
4901784	132	C	02/14/2019	10:48	-133.207	43.114	0	162.50	0	7.8630	0	34.2750	8	26.727	0	161.146	0	226.5	4	78.3	4	-1E+10	1	-1E+10	1	-1E+10	1	-1E+10	1	-1E+10	1	-1E+10	1
4901784	132	C	02/14/2019	10:48	-133.207	43.114	0	165.00	0	7.8790	0	34.3550	8	26.788	0	163.624	0	223.6	4	77.4	4	-1E+10	1	-1E+10	1	-1E+10	1	-1E+10	1	-1E+10	1	-1E+10	1
4901784	132	C	02/14/2019	10:48	-133.207	43.114	0	167.50	0	7.8920	0	34.3910	8	26.814	0	166.102	0	220.8	4	76.4	4	-1E+10	1	-1E+10	1	-1E+10	1	-1E+10	1	-1E+10	1	-1E+10	1
4901784	132	C	02/14/2019	10:48	-133.207	43.114	0	169.90	0	7.9230	0	34.4540	8	26.859	0	168.481	0	217.4	4	75.4	4	-1E+10	1	-1E+10	1	-1E+10	1	-1E+10	1	-1E+10	1	-1E+10	1
4901784	132	C	02/14/2019	10:48	-133.207	43.114	0	172.40	0	7.9780	0	34.5410	8	26.919	0	170.959	0	213.9	4	74.3	4	-1E+10	1	-1E+10	1	-1E+10	1	-1E+10	1	-1E+10	1	-1E+10	1
4901784	132	C	02/14/2019	10:48	-133.207	43.114	0	175.00	0	8.0360	0	34.6120	8	26.967	0	173.536	0	210.8	4	73.3	4	-1E+10	1	-1E+10	1	-1E+10	1	-1E+10	1	-1E+10	1	-1E+10	1
4901784	132	C	02/14/2019	10:48	-133.207	43.114	0	177.60	0	8.0600	0	34.6490	8	26.992	0	176.113	0	208.3	4	72.5	4	-1E+10	1	-1E+10	1	-1E+10	1	-1E+10	1	-1E+10	1	-1E+10	1
4901784	132	C	02/14/2019	10:48	-133.207	43.114	0	180.30	0	8.0730	0	34.6870	8	27.020	0	178.789	0	205.5	4	71.6	4	-1E+10	1	-1E+10	1	-1E+10	1	-1E+10	1	-1E+10	1	-1E+10	1
4901784	132	C	02/14/2019	10:48	-133.207	43.114	0	182.60	0	8.1080	0	34.7420	8	27.058	0	181.069	0	202.7	4	70.7	4	-1E+10	1	-1E+10	1	-1E+10	1	-1E+10	1	-1E+10	1	-1E+10	1
4901784	132	C	02/14/2019	10:48	-133.207	43.114	0	185.00	0	8.1670	0	34.7890	8	27.086	0	183.448	0	198.8	4	69.4	4	-1E+10	1	-1E+10	1	-1E+10	1	-1E+10	1	-1E+10	1	-1E+10	1
4901784	132	C	02/14/2019	10:48	-133.207	43.114	0	188.00	0	8.2230	0	34.8500	8	27.126	0	186.421	0	194.8	4	68.1	4	-1E+10	1	-1E+10	1	-1E+10	1	-1E+10	1	-1E+10	1	-1E+10	1
4901784	132	C	02/14/2019	10:48	-133.207	43.114	0	190.20	0	8.2620	0	34.8920	8	27.153	0	188.602	0	191.8	4	67.2	4	-1E+10	1	-1E+10	1	-1E+10	1	-1E+10	1	-1E+10	1	-1E+10	1
4901784	132	C	02/14/2019	10:48	-133.207	43.114	0	192.40	0	8.3100	0	34.9370	8	27.181	0	190.783	0	188.7	4	66.2	4	-1E+10	1	-1E+10	1	-1E+10	1	-1E+10	1	-1E+10	1	-1E+10	1
4901784	132	C	02/14/2019	10:48	-133.207	43.114	0	194.80	0	8.3530	0	34.9850	8	27.212	0	193.161	0	186.4	4	65.5	4	-1E+10	1	-1E+10	1	-1E+10	1	-1E+10	1	-1E+10	1	-1E+10	1
4901784	132	C	02/14/2019	10:48	-133.207	43.114	0	197.10	0	8.3690	0	35.0040	8	27.224	0	195.441	0	184.3	4	64.8	4	-1E+10	1	-1E+10	1	-1E+10	1	-1E+10	1	-1E+10	1	-1E+10	1
4901784	132	C	02/14/2019	10:48	-133.207	43.114	0	200.20	0	8.3970	0	35.0420	8	27.250	0	198.513	0	181.4	4	63.8	4	-1E+10	1	-1E+10	1	-1E+10	1	-1E+10	1	-1E+10	1	-1E+10	1
4901784	132	C	02/14/2019	10:48	-133.207	43.114	0	202.60	0	8.4060	0	35.0590	8	27.262	0	200.892	0	179.4	4	63.1	4	-1E+10	1	-1E+10	1	-1E+10	1	-1E+10	1	-1E+10	1	-1E+10	1
4901784	132	C	02/14/2019	10:48	-133.207	43.114	0	205.10	0	8.4040	0	35.0760	8	27.276	0	203.370	0	177.0	4	62.3	4	-1E+10	1	-1E+10	1	-1E+10	1	-1E+10	1	-1E+10	1	-1E+10	1
4901784	132	C	02/14/2019	10:48	-133.207	43.114	0	207.50	0	8.3880	0	35.0910	8	27.290	0	205.748	0	174.9	4	61.5	4	-1E+10	1	-1E+10	1	-1E+10	1	-1E+10	1	-1E+10	1	-1E+10	1
4901784	132	C	02/14/2019	10:48	-133.207	43.114	0	210.00	0	8.3670	0	35.0980	8	27.299	0	208.226	0	173.5	4	61.0	4	-1E+10	1	-1E+10	1	-1E+10	1	-1E+10	1	-1E+10	1	-1E+10	1
4901784	132	C	02/14/2019	10:48	-133.207	43.114	0	212.60	0	8.3570	0	35.1100	8	27.310	0	210.802	0	172.2	4	60.6	4	-1E+10	1	-1E+10	1	-1E+10	1	-1E+10	1	-1E+10	1	-1E+10	1
4901784	132	C	02/14/2019	10:48	-133.207	43.114	0	215.10	0	8.3240	0	35.1220	8	27.324	0	213.280	0	171.1	4	60.1	4	-1E+10	1	-1E+10	1	-1E+10	1	-1E+10	1	-1E+10	1	-1E+10	1
4901784	132	C	02/14/2019	10:48	-133.207	43.114	0	217.60	0	8.3110	0	35.1240	8	27.328	0	215.758	0	169.9	4	59.7	4	-1E+10	1	-1E+10	1	-1E+10	1	-1E+10	1	-1E+10	1	-1E+10	1
4901784	132	C	02/14/2019	10:48	-133.207	43.114	0	220.10	0	8.2610	0	35.1290	8	27.339	0	218.235	0	168.5	4	59.1	4	-1E+10	1	-1E+10	1	-1E+10	1	-1E+10	1	-1E+10	1	-1E+10	1
4901784	132	C	02/14/2019	10:48	-133.207	43.114	0	222.60	0	8.2260	0	35.1310	8	27.346	0	220.713	0	167.6	4	58.8	4	-1E+10	1	-1E+10	1	-1E+10	1	-1E+10	1	-1E+10	1	-1E+10	1
4901784	132	C	02/14/2019	10:48	-133.207	43.114	0	225.20	0	8.2050	0	35.1330	8	27.351	0	223.289	0	166.6	4	58.4	4	-1E+10	1	-1E+10	1	-1E+10	1	-1E+10	1	-1E+10	1	-1E+10	1
4901784	132	C	02/14/2019	10:48	-133.207	43.114	0	227.70	0	8.1800	0	35.1360	8	27.357	0	225.766	0	165.4	4	57.9	4	-1E+10	1	-1E+10	1	-1E+10	1	-1E+10	1	-1E+10	1	-1E+10	1
4901784	132	C	02/14/2019	10:48	-133.207	43.114	0	230.30	0	8.1230	0	35.1360	8	27.366	0	228.343	0	164.1	4	57.4	4	-1E+10	1	-1E+10	1	-1E+10	1	-1E+10	1	-1E+10	1	-1E+10	1
4901784	132	C	02/14/2019	10:48	-133.207	43.114	0	232.80	0	8.1030	0	35.1340	8	27.368	0	230.820	0	162.9	4	57.0	4	-1E+10	1	-1E+10	1	-1E+10	1	-1E+10	1	-1E+10	1	-1E+10	1
4901784	132	C	02/14/2019	10:48	-133.207	43.114	0	235.30	0	8.0700	0	35.1340	8	27.373	0	233.298	0	161.6	4	56.5	4	-1E+10	1	-1E+10	1	-1E+10	1	-1E+10	1	-1E+10	1	-1E+10	1
4901784	132	C	02/14/2019	10:48	-133.207	43.114	0	237.60	0	7.9730	0	35.1380	8	27.390	0	235.577	0	159.7	4	55.7	4	-1E+10	1	-1E+10	1	-1E+10	1	-1E+10	1	-1E+10	1	-1E+10	1
4901784	132	C	02/14/2019	10:48	-133.207	43.114	0	240.10	0	7.9220	0	35.1360	8	27.396	0	238.054	0	157.8	4	54.9	4	-1E+10	1	-1E+10	1	-1E+10	1	-1E+10	1	-1E+10	1	-1E+10	1
4901784	132	C	02/14/2019	10:48	-133.207	43.114	0	242.70	0	7.8460	0	35.1320	8	27.405	0	240.630	0	155.9	4	54.2	4	-1E+10	1	-1E+10	1	-1E+10	1	-1E+10	1	-1E+10	1	-1E+10	1
4901784	132	C	02/14/2019	10:48	-133.207	43.114	0	245.30	0	7.7850	0	35.1340	8	27.415	0	243.207	0	154.5	4	53.7	4	-1E+10	1	-1E+10	1	-1E+10	1	-1E+10	1	-1E+10	1	-1E+10	1
4901784	132	C	02/14/2019	10:48	-133.207	43.114	0	247.90	0	7.7320	0	35.1310	8	27.421	0	245.783	0	153.4	4	53.2	4	-1E+10	1	-1E+10	1	-1E+10	1	-1E+10	1	-1E+10	1	-1E+10	1
4901784	132	C	02/14/2019	10:48	-133.207	43.114	0	250.40	0	7.6880	0	35.1300	8	27.426	0	248.260	0	152.7	4	52.9	4	-1E+10	1	-1E+10	1	-1E+10	1	-1E+10	1	-1E+10	1	-1E+10	1
4901784	132	C	02/14/2019	10:48	-133.207	43.114	0	252.90	0	7.6430	0	35.1330	8	27.435	0	250.737	0	152.6	4	52.8	4	-1E+10	1	-1E+10	1	-1E+10	1	-1E+10	1	-1E+10	1	-1E+10	1
4901784	132	C	02/14/2019	10:48	-133.207	43.114	0	254.70	0	7.6110	0	35.1360	8	27.443	0	252.521	0	152.1	4	52.6	4	-1E+10	1	-1E+10	1	-1E+10	1	-1E+10	1	-1E+10	1	-1E+10	1
4901784	132	C	02/14/2019	10:48	-133.207	43.114	0	257.30	0	7.5950	0	35.1360	8	27.445	0	255.097	0	151.4	4	52.3	4	-1E+10	1	-1E+10	1	-1E+10	1	-1E+10	1	-1E+10	1	-1E+10	1
4901784	132	C	02/14/2019	10:48	-133.207	43.114	0	259.80	0	7.5760	0	35.1350	8	27.447	0	257.574	0	149.7	4	51.7	4	-1E+10	1	-1E+10	1	-1E+10	1	-1E+10	1	-1E+10	1	-1E+10	1
4901784	132	C	02/14/2019	10:48	-133.207	43.114	0	262.40	0	7.4860	0	35.1350	8	27.460	0	260.150	0	147.2	4	50.8	4	-1E+10	1	-1E+10	1	-1E+10	1	-1E+10	1	-1E+10	1	-1E+10	1
4901784	132	C	02/14/2019	10:48	-133.207	43.114	0	265.00	0	7.4220	0	35.1330	8	27.468	0	262.726	0	146.0	4	50.3	4	-1E+10	1	-1E+10	1	-1E+10	1	-1E+10	1	-1E+10	1	-1E+10	1
4901784	132	C	02/14/2019	10:48	-133.207	43.114	0	267.70	0	7.3590	0	35.1400	8	27.482	0	265.401	0	144.7	4	49.8	4	-1E+10	1	-1E+10	1	-1E+10	1	-1E+10	1	-1E+10	1	-1E+10	1
4901784	132	C	02/14/2019	10:48	-133.207	43.114	0	270.30	0	7.3000	0	35.1370	8	27.488	0	267.977	0	143.1	4	49.1	4	-1E+10	1	-1E+10	1	-1E+10	1	-1E+10	1	-1E+10	1	-1E+10	1
4901784	132	C	02/14/2019	10:48	-133.207	43.114	0	272.10	0	7.2930	0	35.1360	8	27.489	0	269.761	0	141.8	4	48.7	4	-1E+10	1	-1E+10	1	-1E+10	1	-1E+10	1	-1E+10	1	-1E+10	1
4901784	132	C	02/14/2019	10:48	-133.207	43.114	0	274.80	0	7.2530	0	35.1340	8	27.493	0	272.436	0	139.2	4	47.7	4	-1E+10	1	-1E+10	1	-1E+10	1	-1E+10	1	-1E+10	1	-1E+10	1
4901784	132	C	02/14/2019	10:48	-133.207	43.114	0	277.50	0	7.1860	0	35.1320	8	27.501	0	275.111	0	137.1	4	47.0	4	-1E+10	1	-1E+10	1	-1E+10	1	-1E+10	1	-1E+10	1	-1E+10	1
4901784	132	C	02/14/2019	10:48	-133.207	43.114	0	280.20	0	7.1540	0	35.1300	8	27.504	0	277.785	0	135.4	4	46.3	4	-1E+10	1	-1E+10	1	-1E+10	1	-1E+10	1	-1E+10	1	-1E+10	1
4901784	132	C	02/14/2019	10:48	-133.207	43.114	0	282.90	0	7.1140	0	35.1280	8	27.508	0	280.460	0	133.6	4	45.7	4	-1E+10	1	-1E+10	1	-1E+10	1	-1E+10	1	-1E+10	1	-1E+10	1
4901784	132	C	02/14/2019	10:48	-133.207	43.114	0	284.70	0	7.0800	0	35.1290	8	27.513	0	282.244	0	132.4	4	45.2	4	-1E+10	1	-1E+10	1	-1E+10	1	-1E+10	1	-1E+10	1	-1E+10	1
4901784	132	C	02/14/2019	10:48	-133.207	43.114	0	287.40	0	6.9960	0	35.1290	8	27.525	0	284.918	0	130.4	4	44.5	4	-1E+10	1	-1E+10	1	-1E+10	1	-1E+10	1	-1E+10	1	-1E+10	1
4901784	132	C	02/14/2019	10:48	-133.207	43.114	0	290.00	0	6.9230	0	35.1300	8	27.536	0	287.494	0	128.8	4	43.9	4	-1E+10	1	-1E+10	1	-1E+10	1	-1E+10	1	-1E+10	1	-1E+10	1
4901784	132	C	02/14/2019	10:48	-133.207	43.114	0	292.70	0	6.8930	0	35.1300	8	27.540	0	290.169	0	127.5	4	43.4	4	-1E+10	1	-1E+10	1	-1E+10	1	-1E+10	1	-1E+10	1	-1E+10	1
4901784	132	C	02/14/2019	10:48	-133.207	43.114	0	295.30	0	6.8520	0	35.1290	8	27.545	0	292.745	0	126.0	4	42.8	4	-1E+10	1	-1E+10	1	-1E+10	1	-1E+10	1	-1E+10	1	-1E+10	1
4901784	132	C	02/14/2019	10:48	-133.207	43.114	0	297.10	0	6.8230	0	35.1300	8	27.550	0	294.528	0	125.2	4	42.5	4	-1E+10	1	-1E+10	1	-1E+10	1	-1E+10	1	-1E+10	1	-1E+10	1
4901784	132	C	02/14/2019	10:48	-133.207	43.114	0	299.80	0	6.7960	0	35.1290	8	27.553	0	297.202	0	123.9	4	42.1	4	-1E+10	1	-1E+10	1	-1E+10	1	-1E+10	1	-1E+10	1	-1E+10	1
4901784	132	C	02/14/2019	10:48	-133.207	43.114	0	302.60	0	6.7590	0	35.1280	8	27.557	0	299.976	0	122.5	4	41.6	4	-1E+10	1	-1E+10	1	-1E+10	1	-1E+10	1	-1E+10	1	-1E+10	1
4901784	132	C	02/14/2019	10:48	-133.207	43.114	0	304.50	0	6.7330	0	35.1270	8	27.560	0	301.858	0	121.6	4	41.2	4	-1E+10	1	-1E+10	1	-1E+10	1	-1E+10	1	-1E+10	1	-1E+10	1
4901784	132	C	02/14/2019	10:48	-133.207	43.114	0	307.20	0	6.6700	0	35.1270	8	27.569	0	304.533	0	120.2	4	40.7	4	-1E+10	1	-1E+10	1	-1E+10	1	-1E+10	1	-1E+10	1	-1E+10	1
4901784	132	C	02/14/2019	10:48	-133.207	43.114	0	309.90	0	6.5930	0	35.1300	8	27.581	0	307.207	0	118.9	4	40.2	4	-1E+10	1	-1E+10	1	-1E+10	1	-1E+10	1	-1E+10	1	-1E+10	1
4901784	132	C	02/14/2019	10:48	-133.207	43.114	0	312.70	0	6.5600	0	35.1290	8	27.585	0	309.981	0	118.1	4	39.9	4	-1E+10	1	-1E+10	1	-1E+10	1	-1E+10	1	-1E+10	1	-1E+10	1
4901784	132	C	02/14/2019	10:48	-133.207	43.114	0	315.40	0	6.5360	0	35.1300	8	27.589	0	312.656	0	117.4	4	39.6	4	-1E+10	1	-1E+10	1	-1E+10	1	-1E+10	1	-1E+10	1	-1E+10	1
4901784	132	C	02/14/2019	10:48	-133.207	43.114	0	317.30	0	6.5310	0	35.1300	8	27.590	0	314.538	0	116.9	4	39.5	4	-1E+10	1	-1E+10	1	-1E+10	1	-1E+10	1	-1E+10	1	-1E+10	1
4901784	132	C	02/14/2019	10:48	-133.207	43.114	0	320.10	0	6.5270	0	35.1290	8	27.590	0	317.311	0	115.9	4	39.1	4	-1E+10	1	-1E+10	1	-1E+10	1	-1E+10	1	-1E+10	1	-1E+10	1
4901784	132	C	02/14/2019	10:48	-133.207	43.114	0	322.90	0	6.4990	0	35.1270	8	27.592	0	320.084	0	114.5	4	38.6	4	-1E+10	1	-1E+10	1	-1E+10	1	-1E+10	1	-1E+10	1	-1E+10	1
4901784	132	C	02/14/2019	10:48	-133.207	43.114	0	324.80	0	6.4620	0	35.1280	8	27.597	0	321.966	0	113.5	4	38.2	4	-1E+10	1	-1E+10	1	-1E+10	1	-1E+10	1	-1E+10	1	-1E+10	1
4901784	132	C	02/14/2019	10:48	-133.207	43.114	0	327.60	0	6.4080	0	35.1290	8	27.605	0	324.740	0	112.1	4	37.7	4	-1E+10	1	-1E+10	1	-1E+10	1	-1E+10	1	-1E+10	1	-1E+10	1
4901784	132	C	02/14/2019	10:48	-133.207	43.114	0	330.50	0	6.3340	0	35.1310	8	27.617	0	327.612	0	111.1	4	37.3	4	-1E+10	1	-1E+10	1	-1E+10	1	-1E+10	1	-1E+10	1	-1E+10	1
4901784	132	C	02/14/2019	10:48	-133.207	43.114	0	332.30	0	6.3040	0	35.1280	8	27.618	0	329.395	0	110.4	4	37.1	4	-1E+10	1	-1E+10	1	-1E+10	1	-1E+10	1	-1E+10	1	-1E+10	1
4901784	132	C	02/14/2019	10:48	-133.207	43.114	0	335.30	0	6.2490	0	35.1310	8	27.628	0	332.366	0	109.7	4	36.8	4	-1E+10	1	-1E+10	1	-1E+10	1	-1E+10	1	-1E+10	1	-1E+10	1
4901784	132	C	02/14/2019	10:48	-133.207	43.114	0	338.20	0	6.2270	0	35.1320	8	27.632	0	335.239	0	109.1	4	36.6	4	-1E+10	1	-1E+10	1	-1E+10	1	-1E+10	1	-1E+10	1	-1E+10	1
4901784	132	C	02/14/2019	10:48	-133.207	43.114	0	340.10	0	6.2160	0	35.1310	8	27.632	0	337.121	0	108.7	4	36.4	4	-1E+10	1	-1E+10	1	-1E+10	1	-1E+10	1	-1E+10	1	-1E+10	1
4901784	132	C	02/14/2019	10:48	-133.207	43.114	0	342.00	0	6.2080	0	35.1310	8	27.633	0	339.002	0	108.3	4	36.3	4	-1E+10	1	-1E+10	1	-1E+10	1	-1E+10	1	-1E+10	1	-1E+10	1
4901784	132	C	02/14/2019	10:48	-133.207	43.114	0	344.90	0	6.1980	0	35.1300	8	27.634	0	341.875	0	107.5	4	36.0	4	-1E+10	1	-1E+10	1	-1E+10	1	-1E+10	1	-1E+10	1	-1E+10	1
4901784	132	C	02/14/2019	10:48	-133.207	43.114	0	347.70	0	6.1600	0	35.1300	8	27.639	0	344.648	0	106.4	4	35.6	4	-1E+10	1	-1E+10	1	-1E+10	1	-1E+10	1	-1E+10	1	-1E+10	1
4901784	132	C	02/14/2019	10:48	-133.207	43.114	0	349.50	0	6.1190	0	35.1290	8	27.644	0	346.430	0	105.9	4	35.4	4	-1E+10	1	-1E+10	1	-1E+10	1	-1E+10	1	-1E+10	1	-1E+10	1
4901784	132	C	02/14/2019	10:48	-133.207	43.114	0	352.40	0	6.0980	0	35.1290	8	27.646	0	349.302	0	105.1	4	35.1	4	-1E+10	1	-1E+10	1	-1E+10	1	-1E+10	1	-1E+10	1	-1E+10	1
4901784	132	C	02/14/2019	10:48	-133.207	43.114	0	355.10	0	6.0590	0	35.1300	8	27.652	0	351.976	0	104.2	4	34.8	4	-1E+10	1	-1E+10	1	-1E+10	1	-1E+10	1	-1E+10	1	-1E+10	1
4901784	132	C	02/14/2019	10:48	-133.207	43.114	0	357.00	0	6.0430	0	35.1290	8	27.653	0	353.858	0	103.6	4	34.6	4	-1E+10	1	-1E+10	1	-1E+10	1	-1E+10	1	-1E+10	1	-1E+10	1
4901784	132	C	02/14/2019	10:48	-133.207	43.114	0	359.90	0	6.0050	0	35.1290	8	27.658	0	356.730	0	102.6	4	34.2	4	-1E+10	1	-1E+10	1	-1E+10	1	-1E+10	1	-1E+10	1	-1E+10	1
4901784	132	C	02/14/2019	10:48	-133.207	43.114	0	362.70	0	5.9770	0	35.1300	8	27.663	0	359.503	0	101.6	4	33.9	4	-1E+10	1	-1E+10	1	-1E+10	1	-1E+10	1	-1E+10	1	-1E+10	1
4901784	132	C	02/14/2019	10:48	-133.207	43.114	0	364.60	0	5.9400	0	35.1310	8	27.668	0	361.385	0	100.9	4	33.6	4	-1E+10	1	-1E+10	1	-1E+10	1	-1E+10	1	-1E+10	1	-1E+10	1
4901784	132	C	02/14/2019	10:48	-133.207	43.114	0	367.40	0	5.9100	0	35.1320	8	27.673	0	364.157	0	100.2	4	33.3	4	-1E+10	1	-1E+10	1	-1E+10	1	-1E+10	1	-1E+10	1	-1E+10	1
4901784	132	C	02/14/2019	10:48	-133.207	43.114	0	370.20	0	5.8920	0	35.1320	8	27.675	0	366.930	0	99.4	4	33.1	4	-1E+10	1	-1E+10	1	-1E+10	1	-1E+10	1	-1E+10	1	-1E+10	1
4901784	132	C	02/14/2019	10:48	-133.207	43.114	0	372.10	0	5.8740	0	35.1320	8	27.677	0	368.812	0	98.9	4	32.9	4	-1E+10	1	-1E+10	1	-1E+10	1	-1E+10	1	-1E+10	1	-1E+10	1
4901784	132	C	02/14/2019	10:48	-133.207	43.114	0	374.90	0	5.8560	0	35.1320	8	27.680	0	371.584	0	98.0	4	32.5	4	-1E+10	1	-1E+10	1	-1E+10	1	-1E+10	1	-1E+10	1	-1E+10	1
4901784	132	C	02/14/2019	10:48	-133.207	43.114	0	377.70	0	5.8340	0	35.1320	8	27.683	0	374.357	0	96.8	4	32.2	4	-1E+10	1	-1E+10	1	-1E+10	1	-1E+10	1	-1E+10	1	-1E+10	1
4901784	132	C	02/14/2019	10:48	-133.207	43.114	0	379.60	0	5.8210	0	35.1300	8	27.683	0	376.239	0	95.8	4	31.8	4	-1E+10	1	-1E+10	1	-1E+10	1	-1E+10	1	-1E+10	1	-1E+10	1
4901784	132	C	02/14/2019	10:48	-133.207	43.114	0	382.60	0	5.7310	0	35.1350	8	27.698	0	379.209	0	94.4	4	31.3	4	-1E+10	1	-1E+10	1	-1E+10	1	-1E+10	1	-1E+10	1	-1E+10	1
4901784	132	C	02/14/2019	10:48	-133.207	43.114	0	385.00	0	5.6980	0	35.1360	8	27.703	0	381.586	0	93.6	4	31.0	4	-1E+10	1	-1E+10	1	-1E+10	1	-1E+10	1	-1E+10	1	-1E+10	1
4901784	132	C	02/14/2019	10:48	-133.207	43.114	0	387.40	0	5.6680	0	35.1370	8	27.707	0	383.962	0	92.7	4	30.7	4	-1E+10	1	-1E+10	1	-1E+10	1	-1E+10	1	-1E+10	1	-1E+10	1
4901784	132	C	02/14/2019	10:48	-133.207	43.114	0	389.80	0	5.6380	0	35.1390	8	27.713	0	386.339	0	91.9	4	30.4	4	-1E+10	1	-1E+10	1	-1E+10	1	-1E+10	1	-1E+10	1	-1E+10	1
4901784	132	C	02/14/2019	10:48	-133.207	43.114	0	392.30	0	5.6180	0	35.1390	8	27.715	0	388.814	0	91.1	4	30.1	4	-1E+10	1	-1E+10	1	-1E+10	1	-1E+10	1	-1E+10	1	-1E+10	1
4901784	132	C	02/14/2019	10:48	-133.207	43.114	0	394.70	0	5.6020	0	35.1380	8	27.716	0	391.191	0	90.2	4	29.8	4	-1E+10	1	-1E+10	1	-1E+10	1	-1E+10	1	-1E+10	1	-1E+10	1
4901784	132	C	02/14/2019	10:48	-133.207	43.114	0	397.90	0	5.5430	0	35.1400	8	27.725	0	394.359	0	88.8	4	29.3	4	-1E+10	1	-1E+10	1	-1E+10	1	-1E+10	1	-1E+10	1	-1E+10	1
4901784	132	C	02/14/2019	10:48	-133.207	43.114	0	400.30	0	5.4960	0	35.1440	8	27.734	0	396.736	0	87.7	4	28.9	4	-1E+10	1	-1E+10	1	-1E+10	1	-1E+10	1	-1E+10	1	-1E+10	1
4901784	132	C	02/14/2019	10:48	-133.207	43.114	0	402.90	0	5.4590	0	35.1440	8	27.739	0	399.310	0	86.8	4	28.6	4	-1E+10	1	-1E+10	1	-1E+10	1	-1E+10	1	-1E+10	1	-1E+10	1
4901784	132	C	02/14/2019	10:48	-133.207	43.114	0	405.40	0	5.4330	0	35.1430	8	27.741	0	401.785	0	85.7	4	28.2	4	-1E+10	1	-1E+10	1	-1E+10	1	-1E+10	1	-1E+10	1	-1E+10	1
4901784	132	C	02/14/2019	10:48	-133.207	43.114	0	407.80	0	5.3930	0	35.1470	8	27.749	0	404.161	0	85.0	4	27.9	4	-1E+10	1	-1E+10	1	-1E+10	1	-1E+10	1	-1E+10	1	-1E+10	1
4901784	132	C	02/14/2019	10:48	-133.207	43.114	0	410.30	0	5.3520	0	35.1520	8	27.758	0	406.637	0	84.5	4	27.8	4	-1E+10	1	-1E+10	1	-1E+10	1	-1E+10	1	-1E+10	1	-1E+10	1
4901784	132	C	02/14/2019	10:48	-133.207	43.114	0	412.70	0	5.3400	0	35.1520	8	27.760	0	409.013	0	84.6	4	27.8	4	-1E+10	1	-1E+10	1	-1E+10	1	-1E+10	1	-1E+10	1	-1E+10	1
4901784	132	C	02/14/2019	10:48	-133.207	43.114	0	415.10	0	5.3370	0	35.1510	8	27.759	0	411.389	0	84.8	4	27.8	4	-1E+10	1	-1E+10	1	-1E+10	1	-1E+10	1	-1E+10	1	-1E+10	1
4901784	132	C	02/14/2019	10:48	-133.207	43.114	0	417.60	0	5.3240	0	35.1500	8	27.760	0	413.864	0	85.3	4	28.0	4	-1E+10	1	-1E+10	1	-1E+10	1	-1E+10	1	-1E+10	1	-1E+10	1
4901784	132	C	02/14/2019	10:48	-133.207	43.114	0	420.10	0	5.2840	0	35.1520	8	27.766	0	416.339	0	86.1	4	28.2	4	-1E+10	1	-1E+10	1	-1E+10	1	-1E+10	1	-1E+10	1	-1E+10	1
4901784	132	C	02/14/2019	10:48	-133.207	43.114	0	422.60	0	5.2450	0	35.1550	8	27.773	0	418.815	0	86.1	4	28.2	4	-1E+10	1	-1E+10	1	-1E+10	1	-1E+10	1	-1E+10	1	-1E+10	1
4901784	132	C	02/14/2019	10:48	-133.207	43.114	0	425.20	0	5.2080	0	35.1580	8	27.780	0	421.389	0	85.7	4	28.1	4	-1E+10	1	-1E+10	1	-1E+10	1	-1E+10	1	-1E+10	1	-1E+10	1
4901784	132	C	02/14/2019	10:48	-133.207	43.114	0	427.70	0	5.2040	0	35.1590	8	27.782	0	423.864	0	85.4	4	28.0	4	-1E+10	1	-1E+10	1	-1E+10	1	-1E+10	1	-1E+10	1	-1E+10	1
4901784	132	C	02/14/2019	10:48	-133.207	43.114	0	430.20	0	5.2010	0	35.1590	8	27.782	0	426.339	0	85.0	4	27.8	4	-1E+10	1	-1E+10	1	-1E+10	1	-1E+10	1	-1E+10	1	-1E+10	1
4901784	132	C	02/14/2019	10:48	-133.207	43.114	0	432.70	0	5.1980	0	35.1590	8	27.782	0	428.814	0	84.3	4	27.6	4	-1E+10	1	-1E+10	1	-1E+10	1	-1E+10	1	-1E+10	1	-1E+10	1
4901784	132	C	02/14/2019	10:48	-133.207	43.114	0	435.20	0	5.1950	0	35.1580	8	27.782	0	431.289	0	83.3	4	27.3	4	-1E+10	1	-1E+10	1	-1E+10	1	-1E+10	1	-1E+10	1	-1E+10	1
4901784	132	C	02/14/2019	10:48	-133.207	43.114	0	437.80	0	5.1790	0	35.1600	8	27.785	0	433.862	0	81.5	4	26.7	4	-1E+10	1	-1E+10	1	-1E+10	1	-1E+10	1	-1E+10	1	-1E+10	1
4901784	132	C	02/14/2019	10:48	-133.207	43.114	0	440.30	0	5.1560	0	35.1630	8	27.791	0	436.337	0	79.4	4	25.9	4	-1E+10	1	-1E+10	1	-1E+10	1	-1E+10	1	-1E+10	1	-1E+10	1
4901784	132	C	02/14/2019	10:48	-133.207	43.114	0	442.90	0	5.1370	0	35.1650	8	27.794	0	438.911	0	77.3	4	25.2	4	-1E+10	1	-1E+10	1	-1E+10	1	-1E+10	1	-1E+10	1	-1E+10	1
4901784	132	C	02/14/2019	10:48	-133.207	43.114	0	445.40	0	5.1180	0	35.1680	8	27.799	0	441.386	0	75.4	4	24.6	4	-1E+10	1	-1E+10	1	-1E+10	1	-1E+10	1	-1E+10	1	-1E+10	1
4901784	132	C	02/14/2019	10:48	-133.207	43.114	0	447.10	0	5.1130	0	35.1700	8	27.801	0	443.069	0	74.4	4	24.3	4	-1E+10	1	-1E+10	1	-1E+10	1	-1E+10	1	-1E+10	1	-1E+10	1
4901784	132	C	02/14/2019	10:48	-133.207	43.114	0	449.70	0	5.0920	0	35.1720	8	27.805	0	445.643	0	72.9	4	23.8	4	-1E+10	1	-1E+10	1	-1E+10	1	-1E+10	1	-1E+10	1	-1E+10	1
4901784	132	C	02/14/2019	10:48	-133.207	43.114	0	452.30	0	5.0820	0	35.1740	8	27.808	0	448.216	0	71.4	4	23.3	4	-1E+10	1	-1E+10	1	-1E+10	1	-1E+10	1	-1E+10	1	-1E+10	1
4901784	132	C	02/14/2019	10:48	-133.207	43.114	0	455.00	0	5.0330	0	35.1800	8	27.819	0	450.889	0	71.2	4	23.2	4	-1E+10	1	-1E+10	1	-1E+10	1	-1E+10	1	-1E+10	1	-1E+10	1
4901784	132	C	02/14/2019	10:48	-133.207	43.114	0	457.70	0	5.0150	0	35.1840	8	27.824	0	453.562	0	71.2	4	23.2	4	-1E+10	1	-1E+10	1	-1E+10	1	-1E+10	1	-1E+10	1	-1E+10	1
4901784	132	C	02/14/2019	10:48	-133.207	43.114	0	460.30	0	4.9960	0	35.1820	8	27.825	0	456.135	0	71.4	4	23.3	4	-1E+10	1	-1E+10	1	-1E+10	1	-1E+10	1	-1E+10	1	-1E+10	1
4901784	132	C	02/14/2019	10:48	-133.207	43.114	0	463.00	0	4.9800	0	35.1830	8	27.827	0	458.808	0	70.6	4	23.0	4	-1E+10	1	-1E+10	1	-1E+10	1	-1E+10	1	-1E+10	1	-1E+10	1
4901784	132	C	02/14/2019	10:48	-133.207	43.114	0	464.80	0	4.9750	0	35.1840	8	27.829	0	460.590	0	69.5	4	22.6	4	-1E+10	1	-1E+10	1	-1E+10	1	-1E+10	1	-1E+10	1	-1E+10	1
4901784	132	C	02/14/2019	10:48	-133.207	43.114	0	467.40	0	4.9760	0	35.1880	8	27.832	0	463.163	0	67.4	4	22.0	4	-1E+10	1	-1E+10	1	-1E+10	1	-1E+10	1	-1E+10	1	-1E+10	1
4901784	132	C	02/14/2019	10:48	-133.207	43.114	0	470.20	0	4.9650	0	35.1910	8	27.835	0	465.935	0	66.1	4	21.5	4	-1E+10	1	-1E+10	1	-1E+10	1	-1E+10	1	-1E+10	1	-1E+10	1
4901784	132	C	02/14/2019	10:48	-133.207	43.114	0	472.80	0	4.9590	0	35.1950	8	27.839	0	468.508	0	65.2	4	21.2	4	-1E+10	1	-1E+10	1	-1E+10	1	-1E+10	1	-1E+10	1	-1E+10	1
4901784	132	C	02/14/2019	10:48	-133.207	43.114	0	475.60	0	4.9310	0	35.1960	8	27.843	0	471.280	0	64.7	4	21.1	4	-1E+10	1	-1E+10	1	-1E+10	1	-1E+10	1	-1E+10	1	-1E+10	1
4901784	132	C	02/14/2019	10:48	-133.207	43.114	0	477.40	0	4.9090	0	35.1970	8	27.847	0	473.061	0	63.8	4	20.7	4	-1E+10	1	-1E+10	1	-1E+10	1	-1E+10	1	-1E+10	1	-1E+10	1
4901784	132	C	02/14/2019	10:48	-133.207	43.114	0	480.10	0	4.8960	0	35.2050	8	27.855	0	475.734	0	61.5	4	20.0	4	-1E+10	1	-1E+10	1	-1E+10	1	-1E+10	1	-1E+10	1	-1E+10	1
4901784	132	C	02/14/2019	10:48	-133.207	43.114	0	482.90	0	4.8930	0	35.2090	8	27.858	0	478.505	0	60.4	4	19.6	4	-1E+10	1	-1E+10	1	-1E+10	1	-1E+10	1	-1E+10	1	-1E+10	1
4901784	132	C	02/14/2019	10:48	-133.207	43.114	0	484.80	0	4.8910	0	35.2100	8	27.859	0	480.385	0	59.7	4	19.4	4	-1E+10	1	-1E+10	1	-1E+10	1	-1E+10	1	-1E+10	1	-1E+10	1
4901784	132	C	02/14/2019	10:48	-133.207	43.114	0	487.50	0	4.8870	0	35.2110	8	27.860	0	483.058	0	58.6	4	19.1	4	-1E+10	1	-1E+10	1	-1E+10	1	-1E+10	1	-1E+10	1	-1E+10	1
4901784	132	C	02/14/2019	10:48	-133.207	43.114	0	490.30	0	4.8730	0	35.2140	8	27.865	0	485.829	0	57.7	4	18.7	4	-1E+10	1	-1E+10	1	-1E+10	1	-1E+10	1	-1E+10	1	-1E+10	1
4901784	132	C	02/14/2019	10:48	-133.207	43.114	0	492.20	0	4.8650	0	35.2160	8	27.867	0	487.709	0	57.1	4	18.5	4	-1E+10	1	-1E+10	1	-1E+10	1	-1E+10	1	-1E+10	1	-1E+10	1
4901784	132	C	02/14/2019	10:48	-133.207	43.114	0	494.90	0	4.8510	0	35.2200	8	27.872	0	490.382	0	56.1	4	18.2	4	-1E+10	1	-1E+10	1	-1E+10	1	-1E+10	1	-1E+10	1	-1E+10	1
4901784	132	C	02/14/2019	10:48	-133.207	43.114	0	497.70	0	4.8340	0	35.2240	8	27.877	0	493.153	0	55.3	4	17.9	4	-1E+10	1	-1E+10	1	-1E+10	1	-1E+10	1	-1E+10	1	-1E+10	1
4901784	132	C	02/14/2019	10:48	-133.207	43.114	0	499.60	0	4.8300	0	35.2250	8	27.878	0	495.033	0	54.9	4	17.8	4	-1E+10	1	-1E+10	1	-1E+10	1	-1E+10	1	-1E+10	1	-1E+10	1
4901784	132	C	02/14/2019	10:48	-133.207	43.114	0	505.20	0	4.8060	0	35.2310	8	27.886	0	500.575	0	53.5	4	17.4	4	-1E+10	1	-1E+10	1	-1E+10	1	-1E+10	1	-1E+10	1	-1E+10	1
4901784	132	C	02/14/2019	10:48	-133.207	43.114	0	509.90	0	4.7970	0	35.2330	8	27.888	0	505.226	0	52.7	4	17.1	4	-1E+10	1	-1E+10	1	-1E+10	1	-1E+10	1	-1E+10	1	-1E+10	1
4901784	132	C	02/14/2019	10:48	-133.207	43.114	0	514.60	0	4.7860	0	35.2360	8	27.892	0	509.877	0	51.4	4	16.7	4	-1E+10	1	-1E+10	1	-1E+10	1	-1E+10	1	-1E+10	1	-1E+10	1
4901784	132	C	02/14/2019	10:48	-133.207	43.114	0	520.00	0	4.7750	0	35.2420	8	27.898	0	515.221	0	50.0	4	16.2	4	-1E+10	1	-1E+10	1	-1E+10	1	-1E+10	1	-1E+10	1	-1E+10	1
4901784	132	C	02/14/2019	10:48	-133.207	43.114	0	524.40	0	4.7580	0	35.2460	8	27.903	0	519.575	0	48.5	4	15.7	4	-1E+10	1	-1E+10	1	-1E+10	1	-1E+10	1	-1E+10	1	-1E+10	1
4901784	132	C	02/14/2019	10:48	-133.207	43.114	0	530.00	0	4.7360	0	35.2540	8	27.912	0	525.117	0	46.5	4	15.1	4	-1E+10	1	-1E+10	1	-1E+10	1	-1E+10	1	-1E+10	1	-1E+10	1
4901784	132	C	02/14/2019	10:48	-133.207	43.114	0	535.50	0	4.7210	0	35.2600	8	27.919	0	530.559	0	44.4	4	14.4	4	-1E+10	1	-1E+10	1	-1E+10	1	-1E+10	1	-1E+10	1	-1E+10	1
4901784	132	C	02/14/2019	10:48	-133.207	43.114	0	540.30	0	4.7050	0	35.2690	8	27.928	0	535.309	0	42.6	4	13.8	4	-1E+10	1	-1E+10	1	-1E+10	1	-1E+10	1	-1E+10	1	-1E+10	1
4901784	132	C	02/14/2019	10:48	-133.207	43.114	0	545.20	0	4.6840	0	35.2760	8	27.936	0	540.157	0	41.2	4	13.3	4	-1E+10	1	-1E+10	1	-1E+10	1	-1E+10	1	-1E+10	1	-1E+10	1
4901784	132	C	02/14/2019	10:48	-133.207	43.114	0	550.10	0	4.6620	0	35.2820	8	27.943	0	545.005	0	40.3	4	13.0	4	-1E+10	1	-1E+10	1	-1E+10	1	-1E+10	1	-1E+10	1	-1E+10	1
4901784	132	C	02/14/2019	10:48	-133.207	43.114	0	555.10	0	4.6430	0	35.2870	8	27.949	0	549.952	0	39.1	4	12.6	4	-1E+10	1	-1E+10	1	-1E+10	1	-1E+10	1	-1E+10	1	-1E+10	1
4901784	132	C	02/14/2019	10:48	-133.207	43.114	0	560.10	0	4.6230	0	35.2920	8	27.955	0	554.899	0	38.0	4	12.3	4	-1E+10	1	-1E+10	1	-1E+10	1	-1E+10	1	-1E+10	1	-1E+10	1
4901784	132	C	02/14/2019	10:48	-133.207	43.114	0	565.20	0	4.6040	0	35.2970	8	27.962	0	559.945	0	36.8	4	11.9	4	-1E+10	1	-1E+10	1	-1E+10	1	-1E+10	1	-1E+10	1	-1E+10	1
4901784	132	C	02/14/2019	10:48	-133.207	43.114	0	570.40	0	4.5850	0	35.3010	8	27.967	0	565.090	0	35.9	4	11.6	4	-1E+10	1	-1E+10	1	-1E+10	1	-1E+10	1	-1E+10	1	-1E+10	1
4901784	132	C	02/14/2019	10:48	-133.207	43.114	0	575.50	0	4.5670	0	35.3060	8	27.973	0	570.135	0	34.9	4	11.3	4	-1E+10	1	-1E+10	1	-1E+10	1	-1E+10	1	-1E+10	1	-1E+10	1
4901784	132	C	02/14/2019	10:48	-133.207	43.114	0	580.70	0	4.5590	0	35.3080	8	27.976	0	575.280	0	34.0	4	11.0	4	-1E+10	1	-1E+10	1	-1E+10	1	-1E+10	1	-1E+10	1	-1E+10	1
4901784	132	C	02/14/2019	10:48	-133.207	43.114	0	585.00	0	4.5370	0	35.3140	8	27.983	0	579.533	0	32.9	4	10.6	4	-1E+10	1	-1E+10	1	-1E+10	1	-1E+10	1	-1E+10	1	-1E+10	1
4901784	132	C	02/14/2019	10:48	-133.207	43.114	0	589.30	0	4.5160	0	35.3200	8	27.990	0	583.787	0	32.2	4	10.4	4	-1E+10	1	-1E+10	1	-1E+10	1	-1E+10	1	-1E+10	1	-1E+10	1
4901784	132	C	02/14/2019	10:48	-133.207	43.114	0	594.60	0	4.5000	0	35.3230	8	27.994	0	589.030	0	31.4	4	10.1	4	-1E+10	1	-1E+10	1	-1E+10	1	-1E+10	1	-1E+10	1	-1E+10	1
4901784	132	C	02/14/2019	10:48	-133.207	43.114	0	599.90	0	4.4900	0	35.3250	8	27.997	0	594.273	0	30.4	4	9.8	4	-1E+10	1	-1E+10	1	-1E+10	1	-1E+10	1	-1E+10	1	-1E+10	1
4901784	132	C	02/14/2019	10:48	-133.207	43.114	0	605.10	0	4.4610	0	35.3330	8	28.006	0	599.417	0	29.0	4	9.4	4	-1E+10	1	-1E+10	1	-1E+10	1	-1E+10	1	-1E+10	1	-1E+10	1
4901784	132	C	02/14/2019	10:48	-133.207	43.114	0	610.50	0	4.4280	0	35.3400	8	28.016	0	604.758	0	28.2	4	9.1	4	-1E+10	1	-1E+10	1	-1E+10	1	-1E+10	1	-1E+10	1	-1E+10	1
4901784	132	C	02/14/2019	10:48	-133.207	43.114	0	614.90	0	4.4030	0	35.3460	8	28.023	0	609.110	0	27.8	4	8.9	4	-1E+10	1	-1E+10	1	-1E+10	1	-1E+10	1	-1E+10	1	-1E+10	1
4901784	132	C	02/14/2019	10:48	-133.207	43.114	0	619.50	0	4.3820	0	35.3480	8	28.027	0	613.660	0	27.5	4	8.8	4	-1E+10	1	-1E+10	1	-1E+10	1	-1E+10	1	-1E+10	1	-1E+10	1
4901784	132	C	02/14/2019	10:48	-133.207	43.114	0	624.90	0	4.3690	0	35.3510	8	28.031	0	619.001	0	27.2	4	8.7	4	-1E+10	1	-1E+10	1	-1E+10	1	-1E+10	1	-1E+10	1	-1E+10	1
4901784	132	C	02/14/2019	10:48	-133.207	43.114	0	630.50	0	4.3470	0	35.3540	8	28.036	0	624.540	0	27.0	4	8.7	4	-1E+10	1	-1E+10	1	-1E+10	1	-1E+10	1	-1E+10	1	-1E+10	1
4901784	132	C	02/14/2019	10:48	-133.207	43.114	0	635.10	0	4.3190	0	35.3560	8	28.041	0	629.090	0	26.7	4	8.6	4	-1E+10	1	-1E+10	1	-1E+10	1	-1E+10	1	-1E+10	1	-1E+10	1
4901784	132	C	02/14/2019	10:48	-133.207	43.114	0	639.60	0	4.2920	0	35.3610	8	28.048	0	633.540	0	26.1	4	8.4	4	-1E+10	1	-1E+10	1	-1E+10	1	-1E+10	1	-1E+10	1	-1E+10	1
4901784	132	C	02/14/2019	10:48	-133.207	43.114	0	645.10	0	4.2760	0	35.3660	8	28.053	0	638.980	0	25.2	4	8.1	4	-1E+10	1	-1E+10	1	-1E+10	1	-1E+10	1	-1E+10	1	-1E+10	1
4901784	132	C	02/14/2019	10:48	-133.207	43.114	0	649.70	0	4.2650	0	35.3690	8	28.057	0	643.529	0	24.4	4	7.8	4	-1E+10	1	-1E+10	1	-1E+10	1	-1E+10	1	-1E+10	1	-1E+10	1
4901784	132	C	02/14/2019	10:48	-133.207	43.114	0	654.40	0	4.2550	0	35.3760	8	28.064	0	648.177	0	23.4	4	7.5	4	-1E+10	1	-1E+10	1	-1E+10	1	-1E+10	1	-1E+10	1	-1E+10	1
4901784	132	C	02/14/2019	10:48	-133.207	43.114	0	660.00	0	4.2530	0	35.3840	8	28.070	0	653.715	0	21.9	4	7.0	4	-1E+10	1	-1E+10	1	-1E+10	1	-1E+10	1	-1E+10	1	-1E+10	1
4901784	132	C	02/14/2019	10:48	-133.207	43.114	0	664.70	0	4.2730	0	35.3900	8	28.073	0	658.363	0	20.9	4	6.7	4	-1E+10	1	-1E+10	1	-1E+10	1	-1E+10	1	-1E+10	1	-1E+10	1
4901784	132	C	02/14/2019	10:48	-133.207	43.114	0	669.40	0	4.2740	0	35.3960	8	28.078	0	663.010	0	20.3	4	6.5	4	-1E+10	1	-1E+10	1	-1E+10	1	-1E+10	1	-1E+10	1	-1E+10	1
4901784	132	C	02/14/2019	10:48	-133.207	43.114	0	675.00	0	4.2640	0	35.4020	8	28.083	0	668.548	0	19.8	4	6.3	4	-1E+10	1	-1E+10	1	-1E+10	1	-1E+10	1	-1E+10	1	-1E+10	1
4901784	132	C	02/14/2019	10:48	-133.207	43.114	0	680.60	0	4.2550	0	35.4050	8	28.087	0	674.085	0	19.5	4	6.2	4	-1E+10	1	-1E+10	1	-1E+10	1	-1E+10	1	-1E+10	1	-1E+10	1
4901784	132	C	02/14/2019	10:48	-133.207	43.114	0	685.30	0	4.2530	0	35.4070	8	28.089	0	678.733	0	19.3	4	6.2	4	-1E+10	1	-1E+10	1	-1E+10	1	-1E+10	1	-1E+10	1	-1E+10	1
4901784	132	C	02/14/2019	10:48	-133.207	43.114	0	690.10	0	4.2470	0	35.4080	8	28.090	0	683.479	0	18.9	4	6.1	4	-1E+10	1	-1E+10	1	-1E+10	1	-1E+10	1	-1E+10	1	-1E+10	1
4901784	132	C	02/14/2019	10:48	-133.207	43.114	0	694.80	0	4.2360	0	35.4130	8	28.095	0	688.126	0	18.4	4	5.9	4	-1E+10	1	-1E+10	1	-1E+10	1	-1E+10	1	-1E+10	1	-1E+10	1
4901784	132	C	02/14/2019	10:48	-133.207	43.114	0	699.50	0	4.2200	0	35.4180	8	28.101	0	692.773	0	18.1	4	5.8	4	-1E+10	1	-1E+10	1	-1E+10	1	-1E+10	1	-1E+10	1	-1E+10	1
4901784	132	C	02/14/2019	10:48	-133.207	43.114	0	705.10	0	4.2060	0	35.4240	8	28.107	0	698.310	0	17.7	4	5.7	4	-1E+10	1	-1E+10	1	-1E+10	1	-1E+10	1	-1E+10	1	-1E+10	1
4901784	132	C	02/14/2019	10:48	-133.207	43.114	0	709.90	0	4.2020	0	35.4270	8	28.110	0	703.056	0	17.4	4	5.6	4	-1E+10	1	-1E+10	1	-1E+10	1	-1E+10	1	-1E+10	1	-1E+10	1
4901784	132	C	02/14/2019	10:48	-133.207	43.114	0	714.80	0	4.1970	0	35.4300	8	28.113	0	707.900	0	17.2	4	5.5	4	-1E+10	1	-1E+10	1	-1E+10	1	-1E+10	1	-1E+10	1	-1E+10	1
4901784	132	C	02/14/2019	10:48	-133.207	43.114	0	720.50	0	4.1930	0	35.4320	8	28.115	0	713.535	0	16.9	4	5.4	4	-1E+10	1	-1E+10	1	-1E+10	1	-1E+10	1	-1E+10	1	-1E+10	1
4901784	132	C	02/14/2019	10:48	-133.207	43.114	0	725.20	0	4.1800	0	35.4370	8	28.121	0	718.182	0	16.6	4	5.3	4	-1E+10	1	-1E+10	1	-1E+10	1	-1E+10	1	-1E+10	1	-1E+10	1
4901784	132	C	02/14/2019	10:48	-133.207	43.114	0	730.00	0	4.1750	0	35.4390	8	28.123	0	722.927	0	16.4	4	5.2	4	-1E+10	1	-1E+10	1	-1E+10	1	-1E+10	1	-1E+10	1	-1E+10	1
4901784	132	C	02/14/2019	10:48	-133.207	43.114	0	734.80	0	4.1690	0	35.4420	8	28.126	0	727.672	0	16.2	4	5.2	4	-1E+10	1	-1E+10	1	-1E+10	1	-1E+10	1	-1E+10	1	-1E+10	1
4901784	132	C	02/14/2019	10:48	-133.207	43.114	0	739.60	0	4.1550	0	35.4450	8	28.130	0	732.417	0	15.9	4	5.1	4	-1E+10	1	-1E+10	1	-1E+10	1	-1E+10	1	-1E+10	1	-1E+10	1
4901784	132	C	02/14/2019	10:48	-133.207	43.114	0	745.40	0	4.1300	0	35.4510	8	28.137	0	738.151	0	15.5	4	4.9	4	-1E+10	1	-1E+10	1	-1E+10	1	-1E+10	1	-1E+10	1	-1E+10	1
4901784	132	C	02/14/2019	10:48	-133.207	43.114	0	750.10	0	4.1150	0	35.4570	8	28.144	0	742.796	0	15.3	4	4.9	4	-1E+10	1	-1E+10	1	-1E+10	1	-1E+10	1	-1E+10	1	-1E+10	1
4901784	132	C	02/14/2019	10:48	-133.207	43.114	0	754.90	0	4.1050	0	35.4580	8	28.146	0	747.541	0	15.1	4	4.8	4	-1E+10	1	-1E+10	1	-1E+10	1	-1E+10	1	-1E+10	1	-1E+10	1
4901784	132	C	02/14/2019	10:48	-133.207	43.114	0	759.80	0	4.0880	0	35.4620	8	28.151	0	752.384	0	14.9	4	4.8	4	-1E+10	1	-1E+10	1	-1E+10	1	-1E+10	1	-1E+10	1	-1E+10	1
4901784	132	C	02/14/2019	10:48	-133.207	43.114	0	765.00	0	4.0710	0	35.4660	8	28.156	0	757.524	0	14.7	4	4.7	4	-1E+10	1	-1E+10	1	-1E+10	1	-1E+10	1	-1E+10	1	-1E+10	1
4901784	132	C	02/14/2019	10:48	-133.207	43.114	0	770.60	0	4.0540	0	35.4700	8	28.161	0	763.059	0	14.5	4	4.6	4	-1E+10	1	-1E+10	1	-1E+10	1	-1E+10	1	-1E+10	1	-1E+10	1
4901784	132	C	02/14/2019	10:48	-133.207	43.114	0	775.30	0	4.0440	0	35.4730	8	28.164	0	767.705	0	14.3	4	4.6	4	-1E+10	1	-1E+10	1	-1E+10	1	-1E+10	1	-1E+10	1	-1E+10	1
4901784	132	C	02/14/2019	10:48	-133.207	43.114	0	780.00	0	4.0350	0	35.4770	8	28.169	0	772.350	0	14.0	4	4.5	4	-1E+10	1	-1E+10	1	-1E+10	1	-1E+10	1	-1E+10	1	-1E+10	1
4901784	132	C	02/14/2019	10:48	-133.207	43.114	0	784.90	0	4.0300	0	35.4830	8	28.174	0	777.193	0	13.6	4	4.3	4	-1E+10	1	-1E+10	1	-1E+10	1	-1E+10	1	-1E+10	1	-1E+10	1
4901784	132	C	02/14/2019	10:48	-133.207	43.114	0	789.80	0	4.0070	0	35.4900	8	28.182	0	782.036	0	13.3	4	4.2	4	-1E+10	1	-1E+10	1	-1E+10	1	-1E+10	1	-1E+10	1	-1E+10	1
4901784	132	C	02/14/2019	10:48	-133.207	43.114	0	794.60	0	3.9930	0	35.4960	8	28.188	0	786.779	0	13.0	4	4.2	4	-1E+10	1	-1E+10	1	-1E+10	1	-1E+10	1	-1E+10	1	-1E+10	1
4901784	132	C	02/14/2019	10:48	-133.207	43.114	0	799.60	0	3.9790	0	35.5000	8	28.193	0	791.721	0	12.9	4	4.1	4	-1E+10	1	-1E+10	1	-1E+10	1	-1E+10	1	-1E+10	1	-1E+10	1
4901784	132	C	02/14/2019	10:48	-133.207	43.114	0	804.60	0	3.9650	0	35.5050	8	28.198	0	796.662	0	12.7	4	4.0	4	-1E+10	1	-1E+10	1	-1E+10	1	-1E+10	1	-1E+10	1	-1E+10	1
4901784	132	C	02/14/2019	10:48	-133.207	43.114	0	809.60	0	3.9530	0	35.5080	8	28.202	0	801.603	0	12.5	4	4.0	4	-1E+10	1	-1E+10	1	-1E+10	1	-1E+10	1	-1E+10	1	-1E+10	1
4901784	132	C	02/14/2019	10:48	-133.207	43.114	0	814.60	0	3.9380	0	35.5130	8	28.208	0	806.544	0	12.4	4	3.9	4	-1E+10	1	-1E+10	1	-1E+10	1	-1E+10	1	-1E+10	1	-1E+10	1
4901784	132	C	02/14/2019	10:48	-133.207	43.114	0	819.60	0	3.9240	0	35.5170	8	28.212	0	811.485	0	12.3	4	3.9	4	-1E+10	1	-1E+10	1	-1E+10	1	-1E+10	1	-1E+10	1	-1E+10	1
4901784	132	C	02/14/2019	10:48	-133.207	43.114	0	824.70	0	3.9100	0	35.5210	8	28.217	0	816.524	0	12.1	4	3.8	4	-1E+10	1	-1E+10	1	-1E+10	1	-1E+10	1	-1E+10	1	-1E+10	1
4901784	132	C	02/14/2019	10:48	-133.207	43.114	0	829.70	0	3.8950	0	35.5260	8	28.223	0	821.465	0	11.9	4	3.8	4	-1E+10	1	-1E+10	1	-1E+10	1	-1E+10	1	-1E+10	1	-1E+10	1
4901784	132	C	02/14/2019	10:48	-133.207	43.114	0	834.70	0	3.8740	0	35.5320	8	28.230	0	826.405	0	11.8	4	3.7	4	-1E+10	1	-1E+10	1	-1E+10	1	-1E+10	1	-1E+10	1	-1E+10	1
4901784	132	C	02/14/2019	10:48	-133.207	43.114	0	839.70	0	3.8670	0	35.5340	8	28.232	0	831.346	0	11.7	4	3.7	4	-1E+10	1	-1E+10	1	-1E+10	1	-1E+10	1	-1E+10	1	-1E+10	1
4901784	132	C	02/14/2019	10:48	-133.207	43.114	0	844.80	0	3.8520	0	35.5380	8	28.237	0	836.385	0	11.5	4	3.7	4	-1E+10	1	-1E+10	1	-1E+10	1	-1E+10	1	-1E+10	1	-1E+10	1
4901784	132	C	02/14/2019	10:48	-133.207	43.114	0	849.80	0	3.8310	0	35.5450	8	28.244	0	841.325	0	11.3	4	3.6	4	-1E+10	1	-1E+10	1	-1E+10	1	-1E+10	1	-1E+10	1	-1E+10	1
4901784	132	C	02/14/2019	10:48	-133.207	43.114	0	854.80	0	3.8200	0	35.5500	8	28.250	0	846.265	0	11.2	4	3.6	4	-1E+10	1	-1E+10	1	-1E+10	1	-1E+10	1	-1E+10	1	-1E+10	1
4901784	132	C	02/14/2019	10:48	-133.207	43.114	0	859.70	0	3.7990	0	35.5550	8	28.256	0	851.106	0	11.1	4	3.5	4	-1E+10	1	-1E+10	1	-1E+10	1	-1E+10	1	-1E+10	1	-1E+10	1
4901784	132	C	02/14/2019	10:48	-133.207	43.114	0	864.70	0	3.7780	0	35.5610	8	28.263	0	856.046	0	11.0	4	3.5	4	-1E+10	1	-1E+10	1	-1E+10	1	-1E+10	1	-1E+10	1	-1E+10	1
4901784	132	C	02/14/2019	10:48	-133.207	43.114	0	869.80	0	3.7680	0	35.5640	8	28.266	0	861.084	0	10.9	4	3.5	4	-1E+10	1	-1E+10	1	-1E+10	1	-1E+10	1	-1E+10	1	-1E+10	1
4901784	132	C	02/14/2019	10:48	-133.207	43.114	0	875.00	0	3.7620	0	35.5660	8	28.269	0	866.221	0	10.9	4	3.5	4	-1E+10	1	-1E+10	1	-1E+10	1	-1E+10	1	-1E+10	1	-1E+10	1
4901784	132	C	02/14/2019	10:48	-133.207	43.114	0	880.10	0	3.7560	0	35.5690	8	28.272	0	871.260	0	10.8	4	3.4	4	-1E+10	1	-1E+10	1	-1E+10	1	-1E+10	1	-1E+10	1	-1E+10	1
4901784	132	C	02/14/2019	10:48	-133.207	43.114	0	885.30	0	3.7420	0	35.5740	8	28.277	0	876.397	0	10.7	4	3.4	4	-1E+10	1	-1E+10	1	-1E+10	1	-1E+10	1	-1E+10	1	-1E+10	1
4901784	132	C	02/14/2019	10:48	-133.207	43.114	0	890.50	0	3.7350	0	35.5770	8	28.280	0	881.533	0	10.7	4	3.4	4	-1E+10	1	-1E+10	1	-1E+10	1	-1E+10	1	-1E+10	1	-1E+10	1
4901784	132	C	02/14/2019	10:48	-133.207	43.114	0	894.90	0	3.7300	0	35.5790	8	28.282	0	885.880	0	10.6	4	3.4	4	-1E+10	1	-1E+10	1	-1E+10	1	-1E+10	1	-1E+10	1	-1E+10	1
4901784	132	C	02/14/2019	10:48	-133.207	43.114	0	899.40	0	3.7200	0	35.5830	8	28.287	0	890.325	0	10.5	4	3.3	4	-1E+10	1	-1E+10	1	-1E+10	1	-1E+10	1	-1E+10	1	-1E+10	1
4901784	132	C	02/14/2019	10:48	-133.207	43.114	0	904.70	0	3.7100	0	35.5870	8	28.291	0	895.560	0	10.5	4	3.3	4	-1E+10	1	-1E+10	1	-1E+10	1	-1E+10	1	-1E+10	1	-1E+10	1
4901784	132	C	02/14/2019	10:48	-133.207	43.114	0	910.40	0	3.7030	0	35.5900	8	28.294	0	901.190	0	10.4	4	3.3	4	-1E+10	1	-1E+10	1	-1E+10	1	-1E+10	1	-1E+10	1	-1E+10	1
4901784	132	C	02/14/2019	10:48	-133.207	43.114	0	915.40	0	3.6920	0	35.5940	8	28.298	0	906.129	0	10.4	4	3.3	4	-1E+10	1	-1E+10	1	-1E+10	1	-1E+10	1	-1E+10	1	-1E+10	1
4901784	132	C	02/14/2019	10:48	-133.207	43.114	0	920.00	0	3.6830	0	35.5980	8	28.302	0	910.672	0	10.3	4	3.3	4	-1E+10	1	-1E+10	1	-1E+10	1	-1E+10	1	-1E+10	1	-1E+10	1
4901784	132	C	02/14/2019	10:48	-133.207	43.114	0	924.70	0	3.6740	0	35.6010	8	28.306	0	915.314	0	10.3	4	3.3	4	-1E+10	1	-1E+10	1	-1E+10	1	-1E+10	1	-1E+10	1	-1E+10	1
4901784	132	C	02/14/2019	10:48	-133.207	43.114	0	929.40	0	3.6620	0	35.6060	8	28.311	0	919.956	0	10.3	4	3.3	4	-1E+10	1	-1E+10	1	-1E+10	1	-1E+10	1	-1E+10	1	-1E+10	1
4901784	132	C	02/14/2019	10:48	-133.207	43.114	0	934.90	0	3.6420	0	35.6130	8	28.319	0	925.388	0	10.3	4	3.3	4	-1E+10	1	-1E+10	1	-1E+10	1	-1E+10	1	-1E+10	1	-1E+10	1
4901784	132	C	02/14/2019	10:48	-133.207	43.114	0	940.70	0	3.6270	0	35.6160	8	28.323	0	931.116	0	10.3	4	3.3	4	-1E+10	1	-1E+10	1	-1E+10	1	-1E+10	1	-1E+10	1	-1E+10	1
4901784	132	C	02/14/2019	10:48	-133.207	43.114	0	945.60	0	3.6100	0	35.6220	8	28.329	0	935.955	0	10.4	4	3.3	4	-1E+10	1	-1E+10	1	-1E+10	1	-1E+10	1	-1E+10	1	-1E+10	1
4901784	132	C	02/14/2019	10:48	-133.207	43.114	0	950.70	0	3.5950	0	35.6270	8	28.335	0	940.992	0	10.4	4	3.3	4	-1E+10	1	-1E+10	1	-1E+10	1	-1E+10	1	-1E+10	1	-1E+10	1
4901784	132	C	02/14/2019	10:48	-133.207	43.114	0	954.90	0	3.5840	0	35.6300	8	28.338	0	945.139	0	10.4	4	3.3	4	-1E+10	1	-1E+10	1	-1E+10	1	-1E+10	1	-1E+10	1	-1E+10	1
4901784	132	C	02/14/2019	10:48	-133.207	43.114	0	959.20	0	3.5680	0	35.6330	8	28.342	0	949.386	0	10.4	4	3.3	4	-1E+10	1	-1E+10	1	-1E+10	1	-1E+10	1	-1E+10	1	-1E+10	1
4901784	132	C	02/14/2019	10:48	-133.207	43.114	0	964.30	0	3.5510	0	35.6360	8	28.346	0	954.422	0	10.4	4	3.3	4	-1E+10	1	-1E+10	1	-1E+10	1	-1E+10	1	-1E+10	1	-1E+10	1
4901784	132	C	02/14/2019	10:48	-133.207	43.114	0	969.50	0	3.5400	0	35.6390	8	28.350	0	959.557	0	10.5	4	3.3	4	-1E+10	1	-1E+10	1	-1E+10	1	-1E+10	1	-1E+10	1	-1E+10	1
4901784	132	C	02/14/2019	10:48	-133.207	43.114	0	974.80	0	3.5280	0	35.6420	8	28.354	0	964.790	0	10.6	4	3.3	4	-1E+10	1	-1E+10	1	-1E+10	1	-1E+10	1	-1E+10	1	-1E+10	1
4901784	132	C	02/14/2019	10:48	-133.207	43.114	0	980.10	0	3.5190	0	35.6470	8	28.358	0	970.024	0	10.7	4	3.4	4	-1E+10	1	-1E+10	1	-1E+10	1	-1E+10	1	-1E+10	1	-1E+10	1
4901784	132	C	02/14/2019	10:48	-133.207	43.114	0	985.40	0	3.5060	0	35.6500	8	28.362	0	975.257	0	10.7	4	3.4	4	-1E+10	1	-1E+10	1	-1E+10	1	-1E+10	1	-1E+10	1	-1E+10	1
4901784	132	C	02/14/2019	10:48	-133.207	43.114	0	990.60	0	3.5000	0	35.6520	8	28.364	0	980.391	0	10.7	4	3.4	4	-1E+10	1	-1E+10	1	-1E+10	1	-1E+10	1	-1E+10	1	-1E+10	1
4901784	132	C	02/14/2019	10:48	-133.207	43.114	0	994.60	0	3.4940	0	35.6540	8	28.367	0	984.340	0	10.8	4	3.4	4	-1E+10	1	-1E+10	1	-1E+10	1	-1E+10	1	-1E+10	1	-1E+10	1
4901784	132	C	02/14/2019	10:48	-133.207	43.114	0	1000.10	0	3.4790	0	35.6570	8	28.371	0	989.771	0	10.8	4	3.4	4	-1E+10	1	-1E+10	1	-1E+10	1	-1E+10	1	-1E+10	1	-1E+10	1
4901784	132	C	02/14/2019	10:48	-133.207	43.114	0	1005.50	0	3.4670	0	35.6600	8	28.374	0	995.102	0	10.9	4	3.4	4	-1E+10	1	-1E+10	1	-1E+10	1	-1E+10	1	-1E+10	1	-1E+10	1
4901784	132	C	02/14/2019	10:48	-133.207	43.114	0	1010.40	0	3.4540	0	35.6630	8	28.378	0	999.940	0	11.0	4	3.5	4	-1E+10	1	-1E+10	1	-1E+10	1	-1E+10	1	-1E+10	1	-1E+10	1
4901784	132	C	02/14/2019	10:48	-133.207	43.114	0	1015.20	0	3.4460	0	35.6650	8	28.380	0	1004.679	0	11.0	4	3.5	4	-1E+10	1	-1E+10	1	-1E+10	1	-1E+10	1	-1E+10	1	-1E+10	1
4901784	132	C	02/14/2019	10:48	-133.207	43.114	0	1020.10	0	3.4370	0	35.6670	8	28.383	0	1009.516	0	11.1	4	3.5	4	-1E+10	1	-1E+10	1	-1E+10	1	-1E+10	1	-1E+10	1	-1E+10	1
4901784	132	C	02/14/2019	10:48	-133.207	43.114	0	1025.10	0	3.4190	0	35.6710	8	28.388	0	1014.452	0	11.2	4	3.5	4	-1E+10	1	-1E+10	1	-1E+10	1	-1E+10	1	-1E+10	1	-1E+10	1
4901784	132	C	02/14/2019	10:48	-133.207	43.114	0	1030.10	0	3.4000	0	35.6760	8	28.394	0	1019.388	0	11.3	4	3.6	4	-1E+10	1	-1E+10	1	-1E+10	1	-1E+10	1	-1E+10	1	-1E+10	1
4901784	132	C	02/14/2019	10:48	-133.207	43.114	0	1035.20	0	3.3950	0	35.6770	8	28.395	0	1024.422	0	11.4	4	3.6	4	-1E+10	1	-1E+10	1	-1E+10	1	-1E+10	1	-1E+10	1	-1E+10	1
4901784	132	C	02/14/2019	10:48	-133.207	43.114	0	1040.30	0	3.3820	0	35.6810	8	28.400	0	1029.457	0	11.5	4	3.6	4	-1E+10	1	-1E+10	1	-1E+10	1	-1E+10	1	-1E+10	1	-1E+10	1
4901784	132	C	02/14/2019	10:48	-133.207	43.114	0	1045.40	0	3.3720	0	35.6840	8	28.403	0	1034.491	0	11.6	4	3.7	4	-1E+10	1	-1E+10	1	-1E+10	1	-1E+10	1	-1E+10	1	-1E+10	1
4901784	132	C	02/14/2019	10:48	-133.207	43.114	0	1050.60	0	3.3610	0	35.6860	8	28.406	0	1039.624	0	11.7	4	3.7	4	-1E+10	1	-1E+10	1	-1E+10	1	-1E+10	1	-1E+10	1	-1E+10	1
4901784	132	C	02/14/2019	10:48	-133.207	43.114	0	1054.90	0	3.3530	0	35.6880	8	28.408	0	1043.868	0	11.8	4	3.7	4	-1E+10	1	-1E+10	1	-1E+10	1	-1E+10	1	-1E+10	1	-1E+10	1
4901784	132	C	02/14/2019	10:48	-133.207	43.114	0	1059.20	0	3.3470	0	35.6890	8	28.409	0	1048.113	0	11.9	4	3.7	4	-1E+10	1	-1E+10	1	-1E+10	1	-1E+10	1	-1E+10	1	-1E+10	1
4901784	132	C	02/14/2019	10:48	-133.207	43.114	0	1064.50	0	3.3380	0	35.6910	8	28.412	0	1053.344	0	11.9	4	3.8	4	-1E+10	1	-1E+10	1	-1E+10	1	-1E+10	1	-1E+10	1	-1E+10	1
4901784	132	C	02/14/2019	10:48	-133.207	43.114	0	1069.80	0	3.3320	0	35.6930	8	28.414	0	1058.575	0	12.0	4	3.8	4	-1E+10	1	-1E+10	1	-1E+10	1	-1E+10	1	-1E+10	1	-1E+10	1
4901784	132	C	02/14/2019	10:48	-133.207	43.114	0	1075.10	0	3.3160	0	35.6960	8	28.418	0	1063.806	0	12.2	4	3.8	4	-1E+10	1	-1E+10	1	-1E+10	1	-1E+10	1	-1E+10	1	-1E+10	1
4901784	132	C	02/14/2019	10:48	-133.207	43.114	0	1080.40	0	3.3100	0	35.6980	8	28.420	0	1069.037	0	12.2	4	3.8	4	-1E+10	1	-1E+10	1	-1E+10	1	-1E+10	1	-1E+10	1	-1E+10	1
4901784	132	C	02/14/2019	10:48	-133.207	43.114	0	1084.80	0	3.3050	0	35.6990	8	28.422	0	1073.379	0	12.3	4	3.9	4	-1E+10	1	-1E+10	1	-1E+10	1	-1E+10	1	-1E+10	1	-1E+10	1
4901784	132	C	02/14/2019	10:48	-133.207	43.114	0	1089.30	0	3.2950	0	35.7010	8	28.424	0	1077.820	0	12.4	4	3.9	4	-1E+10	1	-1E+10	1	-1E+10	1	-1E+10	1	-1E+10	1	-1E+10	1
4901784	132	C	02/14/2019	10:48	-133.207	43.114	0	1094.80	0	3.2840	0	35.7030	8	28.427	0	1083.248	0	12.5	4	3.9	4	-1E+10	1	-1E+10	1	-1E+10	1	-1E+10	1	-1E+10	1	-1E+10	1
4901784	132	C	02/14/2019	10:48	-133.207	43.114	0	1100.20	0	3.2710	0	35.7060	8	28.431	0	1088.577	0	12.6	4	4.0	4	-1E+10	1	-1E+10	1	-1E+10	1	-1E+10	1	-1E+10	1	-1E+10	1
4901784	132	C	02/14/2019	10:48	-133.207	43.114	0	1105.50	0	3.2600	0	35.7080	8	28.433	0	1093.807	0	12.7	4	4.0	4	-1E+10	1	-1E+10	1	-1E+10	1	-1E+10	1	-1E+10	1	-1E+10	1
4901784	132	C	02/14/2019	10:48	-133.207	43.114	0	1110.60	0	3.2530	0	35.7100	8	28.436	0	1098.840	0	12.8	4	4.0	4	-1E+10	1	-1E+10	1	-1E+10	1	-1E+10	1	-1E+10	1	-1E+10	1
4901784	132	C	02/14/2019	10:48	-133.207	43.114	0	1115.50	0	3.2440	0	35.7110	8	28.437	0	1103.675	0	12.9	4	4.1	4	-1E+10	1	-1E+10	1	-1E+10	1	-1E+10	1	-1E+10	1	-1E+10	1
4901784	132	C	02/14/2019	10:48	-133.207	43.114	0	1120.40	0	3.2350	0	35.7130	8	28.440	0	1108.511	0	13.1	4	4.1	4	-1E+10	1	-1E+10	1	-1E+10	1	-1E+10	1	-1E+10	1	-1E+10	1
4901784	132	C	02/14/2019	10:48	-133.207	43.114	0	1125.50	0	3.2170	0	35.7160	8	28.444	0	1113.543	0	13.2	4	4.1	4	-1E+10	1	-1E+10	1	-1E+10	1	-1E+10	1	-1E+10	1	-1E+10	1
4901784	132	C	02/14/2019	10:48	-133.207	43.114	0	1130.50	0	3.2070	0	35.7170	8	28.446	0	1118.476	0	13.3	4	4.2	4	-1E+10	1	-1E+10	1	-1E+10	1	-1E+10	1	-1E+10	1	-1E+10	1
4901784	132	C	02/14/2019	10:48	-133.207	43.114	0	1135.70	0	3.1980	0	35.7190	8	28.448	0	1123.607	0	13.4	4	4.2	4	-1E+10	1	-1E+10	1	-1E+10	1	-1E+10	1	-1E+10	1	-1E+10	1
4901784	132	C	02/14/2019	10:48	-133.207	43.114	0	1139.90	0	3.1850	0	35.7220	8	28.452	0	1127.751	0	13.5	4	4.2	4	-1E+10	1	-1E+10	1	-1E+10	1	-1E+10	1	-1E+10	1	-1E+10	1
4901784	132	C	02/14/2019	10:48	-133.207	43.114	0	1144.20	0	3.1820	0	35.7220	8	28.452	0	1131.994	0	13.5	4	4.2	4	-1E+10	1	-1E+10	1	-1E+10	1	-1E+10	1	-1E+10	1	-1E+10	1
4901784	132	C	02/14/2019	10:48	-133.207	43.114	0	1149.40	0	3.1740	0	35.7240	8	28.455	0	1137.124	0	13.6	4	4.3	4	-1E+10	1	-1E+10	1	-1E+10	1	-1E+10	1	-1E+10	1	-1E+10	1
4901784	132	C	02/14/2019	10:48	-133.207	43.114	0	1154.50	0	3.1690	0	35.7250	8	28.456	0	1142.156	0	13.6	4	4.3	4	-1E+10	1	-1E+10	1	-1E+10	1	-1E+10	1	-1E+10	1	-1E+10	1
4901784	132	C	02/14/2019	10:48	-133.207	43.114	0	1159.80	0	3.1610	0	35.7260	8	28.458	0	1147.385	0	13.7	4	4.3	4	-1E+10	1	-1E+10	1	-1E+10	1	-1E+10	1	-1E+10	1	-1E+10	1
4901784	132	C	02/14/2019	10:48	-133.207	43.114	0	1165.10	0	3.1490	0	35.7280	8	28.460	0	1152.614	0	13.8	4	4.3	4	-1E+10	1	-1E+10	1	-1E+10	1	-1E+10	1	-1E+10	1	-1E+10	1
4901784	132	C	02/14/2019	10:48	-133.207	43.114	0	1170.40	0	3.1450	0	35.7290	8	28.462	0	1157.842	0	13.9	4	4.4	4	-1E+10	1	-1E+10	1	-1E+10	1	-1E+10	1	-1E+10	1	-1E+10	1
4901784	132	C	02/14/2019	10:48	-133.207	43.114	0	1175.70	0	3.1380	0	35.7300	8	28.463	0	1163.071	0	14.0	4	4.4	4	-1E+10	1	-1E+10	1	-1E+10	1	-1E+10	1	-1E+10	1	-1E+10	1
4901784	132	C	02/14/2019	10:48	-133.207	43.114	0	1180.10	0	3.1300	0	35.7320	8	28.466	0	1167.411	0	14.1	4	4.4	4	-1E+10	1	-1E+10	1	-1E+10	1	-1E+10	1	-1E+10	1	-1E+10	1
4901784	132	C	02/14/2019	10:48	-133.207	43.114	0	1184.60	0	3.1250	0	35.7330	8	28.467	0	1171.850	0	14.1	4	4.4	4	-1E+10	1	-1E+10	1	-1E+10	1	-1E+10	1	-1E+10	1	-1E+10	1
4901784	132	C	02/14/2019	10:48	-133.207	43.114	0	1190.00	0	3.1200	0	35.7340	8	28.468	0	1177.177	0	14.2	4	4.4	4	-1E+10	1	-1E+10	1	-1E+10	1	-1E+10	1	-1E+10	1	-1E+10	1
4901784	132	C	02/14/2019	10:48	-133.207	43.114	0	1195.50	0	3.1130	0	35.7350	8	28.470	0	1182.602	0	14.3	4	4.5	4	-1E+10	1	-1E+10	1	-1E+10	1	-1E+10	1	-1E+10	1	-1E+10	1
4901784	132	C	02/14/2019	10:48	-133.207	43.114	0	1200.10	0	3.1020	0	35.7370	8	28.472	0	1187.140	0	14.5	4	4.5	4	-1E+10	1	-1E+10	1	-1E+10	1	-1E+10	1	-1E+10	1	-1E+10	1
4901784	132	C	02/14/2019	10:48	-133.207	43.114	0	1204.70	0	3.0880	0	35.7400	8	28.476	0	1191.677	0	14.7	4	4.6	4	-1E+10	1	-1E+10	1	-1E+10	1	-1E+10	1	-1E+10	1	-1E+10	1
4901784	132	C	02/14/2019	10:48	-133.207	43.114	0	1210.10	0	3.0750	0	35.7420	8	28.479	0	1197.003	0	14.8	4	4.6	4	-1E+10	1	-1E+10	1	-1E+10	1	-1E+10	1	-1E+10	1	-1E+10	1
4901784	132	C	02/14/2019	10:48	-133.207	43.114	0	1214.80	0	3.0710	0	35.7430	8	28.480	0	1201.639	0	14.9	4	4.6	4	-1E+10	1	-1E+10	1	-1E+10	1	-1E+10	1	-1E+10	1	-1E+10	1
4901784	132	C	02/14/2019	10:48	-133.207	43.114	0	1219.40	0	3.0690	0	35.7440	8	28.481	0	1206.176	0	14.9	4	4.7	4	-1E+10	1	-1E+10	1	-1E+10	1	-1E+10	1	-1E+10	1	-1E+10	1
4901784	132	C	02/14/2019	10:48	-133.207	43.114	0	1225.00	0	3.0620	0	35.7450	8	28.483	0	1211.699	0	15.1	4	4.7	4	-1E+10	1	-1E+10	1	-1E+10	1	-1E+10	1	-1E+10	1	-1E+10	1
4901784	132	C	02/14/2019	10:48	-133.207	43.114	0	1230.60	0	3.0510	0	35.7470	8	28.485	0	1217.222	0	15.3	4	4.8	4	-1E+10	1	-1E+10	1	-1E+10	1	-1E+10	1	-1E+10	1	-1E+10	1
4901784	132	C	02/14/2019	10:48	-133.207	43.114	0	1235.30	0	3.0370	0	35.7490	8	28.488	0	1221.857	0	15.5	4	4.8	4	-1E+10	1	-1E+10	1	-1E+10	1	-1E+10	1	-1E+10	1	-1E+10	1
4901784	132	C	02/14/2019	10:48	-133.207	43.114	0	1239.90	0	3.0230	0	35.7510	8	28.491	0	1226.394	0	15.7	4	4.9	4	-1E+10	1	-1E+10	1	-1E+10	1	-1E+10	1	-1E+10	1	-1E+10	1
4901784	132	C	02/14/2019	10:48	-133.207	43.114	0	1245.20	0	3.0130	0	35.7540	8	28.495	0	1231.621	0	15.8	4	4.9	4	-1E+10	1	-1E+10	1	-1E+10	1	-1E+10	1	-1E+10	1	-1E+10	1
4901784	132	C	02/14/2019	10:48	-133.207	43.114	0	1250.30	0	3.0040	0	35.7550	8	28.496	0	1236.650	0	16.0	4	5.0	4	-1E+10	1	-1E+10	1	-1E+10	1	-1E+10	1	-1E+10	1	-1E+10	1
4901784	132	C	02/14/2019	10:48	-133.207	43.114	0	1255.50	0	2.9980	0	35.7560	8	28.498	0	1241.778	0	16.1	4	5.0	4	-1E+10	1	-1E+10	1	-1E+10	1	-1E+10	1	-1E+10	1	-1E+10	1
4901784	132	C	02/14/2019	10:48	-133.207	43.114	0	1260.60	0	2.9860	0	35.7590	8	28.501	0	1246.807	0	16.3	4	5.1	4	-1E+10	1	-1E+10	1	-1E+10	1	-1E+10	1	-1E+10	1	-1E+10	1
4901784	132	C	02/14/2019	10:48	-133.207	43.114	0	1264.90	0	2.9760	0	35.7610	8	28.504	0	1251.047	0	16.4	4	5.1	4	-1E+10	1	-1E+10	1	-1E+10	1	-1E+10	1	-1E+10	1	-1E+10	1
4901784	132	C	02/14/2019	10:48	-133.207	43.114	0	1269.30	0	2.9680	0	35.7620	8	28.505	0	1255.386	0	16.6	4	5.2	4	-1E+10	1	-1E+10	1	-1E+10	1	-1E+10	1	-1E+10	1	-1E+10	1
4901784	132	C	02/14/2019	10:48	-133.207	43.114	0	1274.60	0	2.9540	0	35.7650	8	28.509	0	1260.612	0	16.8	4	5.2	4	-1E+10	1	-1E+10	1	-1E+10	1	-1E+10	1	-1E+10	1	-1E+10	1
4901784	132	C	02/14/2019	10:48	-133.207	43.114	0	1279.90	0	2.9450	0	35.7660	8	28.511	0	1265.838	0	17.0	4	5.3	4	-1E+10	1	-1E+10	1	-1E+10	1	-1E+10	1	-1E+10	1	-1E+10	1
4901784	132	C	02/14/2019	10:48	-133.207	43.114	0	1285.20	0	2.9380	0	35.7670	8	28.512	0	1271.064	0	17.1	4	5.3	4	-1E+10	1	-1E+10	1	-1E+10	1	-1E+10	1	-1E+10	1	-1E+10	1
4901784	132	C	02/14/2019	10:48	-133.207	43.114	0	1290.60	0	2.9280	0	35.7690	8	28.515	0	1276.388	0	17.3	4	5.4	4	-1E+10	1	-1E+10	1	-1E+10	1	-1E+10	1	-1E+10	1	-1E+10	1
4901784	132	C	02/14/2019	10:48	-133.207	43.114	0	1295.00	0	2.9140	0	35.7710	8	28.518	0	1280.726	0	17.5	4	5.4	4	-1E+10	1	-1E+10	1	-1E+10	1	-1E+10	1	-1E+10	1	-1E+10	1
4901784	132	C	02/14/2019	10:48	-133.207	43.114	0	1299.40	0	2.9040	0	35.7730	8	28.520	0	1285.064	0	17.6	4	5.5	4	-1E+10	1	-1E+10	1	-1E+10	1	-1E+10	1	-1E+10	1	-1E+10	1
4901784	132	C	02/14/2019	10:48	-133.207	43.114	0	1304.80	0	2.8930	0	35.7750	8	28.523	0	1290.388	0	17.8	4	5.5	4	-1E+10	1	-1E+10	1	-1E+10	1	-1E+10	1	-1E+10	1	-1E+10	1
4901784	132	C	02/14/2019	10:48	-133.207	43.114	0	1310.20	0	2.8880	0	35.7750	8	28.523	0	1295.712	0	18.1	4	5.6	4	-1E+10	1	-1E+10	1	-1E+10	1	-1E+10	1	-1E+10	1	-1E+10	1
4901784	132	C	02/14/2019	10:48	-133.207	43.114	0	1315.50	0	2.8740	0	35.7780	8	28.527	0	1300.937	0	18.4	4	5.7	4	-1E+10	1	-1E+10	1	-1E+10	1	-1E+10	1	-1E+10	1	-1E+10	1
4901784	132	C	02/14/2019	10:48	-133.207	43.114	0	1319.90	0	2.8650	0	35.7790	8	28.529	0	1305.275	0	18.5	4	5.8	4	-1E+10	1	-1E+10	1	-1E+10	1	-1E+10	1	-1E+10	1	-1E+10	1
4901784	132	C	02/14/2019	10:48	-133.207	43.114	0	1324.40	0	2.8560	0	35.7810	8	28.531	0	1309.711	0	18.6	4	5.8	4	-1E+10	1	-1E+10	1	-1E+10	1	-1E+10	1	-1E+10	1	-1E+10	1
4901784	132	C	02/14/2019	10:48	-133.207	43.114	0	1329.80	0	2.8480	0	35.7830	8	28.534	0	1315.034	0	18.8	4	5.9	4	-1E+10	1	-1E+10	1	-1E+10	1	-1E+10	1	-1E+10	1	-1E+10	1
4901784	132	C	02/14/2019	10:48	-133.207	43.114	0	1335.20	0	2.8410	0	35.7840	8	28.535	0	1320.357	0	19.1	4	5.9	4	-1E+10	1	-1E+10	1	-1E+10	1	-1E+10	1	-1E+10	1	-1E+10	1
4901784	132	C	02/14/2019	10:48	-133.207	43.114	0	1339.70	0	2.8360	0	35.7850	8	28.536	0	1324.793	0	19.2	4	6.0	4	-1E+10	1	-1E+10	1	-1E+10	1	-1E+10	1	-1E+10	1	-1E+10	1
4901784	132	C	02/14/2019	10:48	-133.207	43.114	0	1344.30	0	2.8280	0	35.7860	8	28.538	0	1329.327	0	19.4	4	6.0	4	-1E+10	1	-1E+10	1	-1E+10	1	-1E+10	1	-1E+10	1	-1E+10	1
4901784	132	C	02/14/2019	10:48	-133.207	43.114	0	1349.80	0	2.8170	0	35.7880	8	28.541	0	1334.749	0	19.6	4	6.1	4	-1E+10	1	-1E+10	1	-1E+10	1	-1E+10	1	-1E+10	1	-1E+10	1
4901784	132	C	02/14/2019	10:48	-133.207	43.114	0	1355.20	0	2.8090	0	35.7890	8	28.542	0	1340.071	0	19.8	4	6.1	4	-1E+10	1	-1E+10	1	-1E+10	1	-1E+10	1	-1E+10	1	-1E+10	1
4901784	132	C	02/14/2019	10:48	-133.207	43.114	0	1359.80	0	2.8010	0	35.7910	8	28.545	0	1344.605	0	20.0	4	6.2	4	-1E+10	1	-1E+10	1	-1E+10	1	-1E+10	1	-1E+10	1	-1E+10	1
4901784	132	C	02/14/2019	10:48	-133.207	43.114	0	1364.40	0	2.7970	0	35.7920	8	28.546	0	1349.139	0	20.1	4	6.3	4	-1E+10	1	-1E+10	1	-1E+10	1	-1E+10	1	-1E+10	1	-1E+10	1
4901784	132	C	02/14/2019	10:48	-133.207	43.114	0	1370.00	0	2.7900	0	35.7930	8	28.547	0	1354.659	0	20.3	4	6.3	4	-1E+10	1	-1E+10	1	-1E+10	1	-1E+10	1	-1E+10	1	-1E+10	1
4901784	132	C	02/14/2019	10:48	-133.207	43.114	0	1375.50	0	2.7780	0	35.7940	8	28.549	0	1360.079	0	20.5	4	6.4	4	-1E+10	1	-1E+10	1	-1E+10	1	-1E+10	1	-1E+10	1	-1E+10	1
4901784	132	C	02/14/2019	10:48	-133.207	43.114	0	1380.20	0	2.7650	0	35.7970	8	28.553	0	1364.711	0	20.7	4	6.4	4	-1E+10	1	-1E+10	1	-1E+10	1	-1E+10	1	-1E+10	1	-1E+10	1
4901784	132	C	02/14/2019	10:48	-133.207	43.114	0	1384.90	0	2.7590	0	35.7970	8	28.553	0	1369.343	0	20.9	4	6.5	4	-1E+10	1	-1E+10	1	-1E+10	1	-1E+10	1	-1E+10	1	-1E+10	1
4901784	132	C	02/14/2019	10:48	-133.207	43.114	0	1390.50	0	2.7440	0	35.8000	8	28.557	0	1374.862	0	21.1	4	6.6	4	-1E+10	1	-1E+10	1	-1E+10	1	-1E+10	1	-1E+10	1	-1E+10	1
4901784	132	C	02/14/2019	10:48	-133.207	43.114	0	1394.60	0	2.7350	0	35.8010	8	28.559	0	1378.903	0	21.3	4	6.6	4	-1E+10	1	-1E+10	1	-1E+10	1	-1E+10	1	-1E+10	1	-1E+10	1
4901784	132	C	02/14/2019	10:48	-133.207	43.114	0	1399.50	0	2.7300	0	35.8020	8	28.560	0	1383.731	0	21.5	4	6.7	4	-1E+10	1	-1E+10	1	-1E+10	1	-1E+10	1	-1E+10	1	-1E+10	1
4901784	132	C	02/14/2019	10:48	-133.207	43.114	0	1404.30	0	2.7210	0	35.8040	8	28.562	0	1388.462	0	21.6	4	6.7	4	-1E+10	1	-1E+10	1	-1E+10	1	-1E+10	1	-1E+10	1	-1E+10	1
4901784	132	C	02/14/2019	10:48	-133.207	43.114	0	1410.10	0	2.7180	0	35.8050	8	28.564	0	1394.177	0	21.8	4	6.8	4	-1E+10	1	-1E+10	1	-1E+10	1	-1E+10	1	-1E+10	1	-1E+10	1
4901784	132	C	02/14/2019	10:48	-133.207	43.114	0	1415.80	0	2.7080	0	35.8060	8	28.565	0	1399.794	0	22.1	4	6.8	4	-1E+10	1	-1E+10	1	-1E+10	1	-1E+10	1	-1E+10	1	-1E+10	1
4901784	132	C	02/14/2019	10:48	-133.207	43.114	0	1420.80	0	2.7010	0	35.8080	8	28.568	0	1404.721	0	22.3	4	6.9	4	-1E+10	1	-1E+10	1	-1E+10	1	-1E+10	1	-1E+10	1	-1E+10	1
4901784	132	C	02/14/2019	10:48	-133.207	43.114	0	1425.70	0	2.6940	0	35.8090	8	28.569	0	1409.549	0	22.5	4	7.0	4	-1E+10	1	-1E+10	1	-1E+10	1	-1E+10	1	-1E+10	1	-1E+10	1
4901784	132	C	02/14/2019	10:48	-133.207	43.114	0	1430.70	0	2.6850	0	35.8100	8	28.571	0	1414.475	0	22.9	4	7.1	4	-1E+10	1	-1E+10	1	-1E+10	1	-1E+10	1	-1E+10	1	-1E+10	1
4901784	132	C	02/14/2019	10:48	-133.207	43.114	0	1435.80	0	2.6750	0	35.8120	8	28.573	0	1419.501	0	23.3	4	7.2	4	-1E+10	1	-1E+10	1	-1E+10	1	-1E+10	1	-1E+10	1	-1E+10	1
4901784	132	C	02/14/2019	10:48	-133.207	43.114	0	1440.80	0	2.6640	0	35.8140	8	28.576	0	1424.427	0	23.7	4	7.3	4	-1E+10	1	-1E+10	1	-1E+10	1	-1E+10	1	-1E+10	1	-1E+10	1
4901784	132	C	02/14/2019	10:48	-133.207	43.114	0	1445.00	0	2.6600	0	35.8160	8	28.578	0	1428.565	0	23.9	4	7.4	4	-1E+10	1	-1E+10	1	-1E+10	1	-1E+10	1	-1E+10	1	-1E+10	1
4901784	132	C	02/14/2019	10:48	-133.207	43.114	0	1449.30	0	2.6530	0	35.8170	8	28.579	0	1432.801	0	24.1	4	7.4	4	-1E+10	1	-1E+10	1	-1E+10	1	-1E+10	1	-1E+10	1	-1E+10	1
4901784	132	C	02/14/2019	10:48	-133.207	43.114	0	1454.40	0	2.6460	0	35.8180	8	28.581	0	1437.826	0	24.3	4	7.5	4	-1E+10	1	-1E+10	1	-1E+10	1	-1E+10	1	-1E+10	1	-1E+10	1
4901784	132	C	02/14/2019	10:48	-133.207	43.114	0	1459.60	0	2.6350	0	35.8190	8	28.582	0	1442.949	0	24.7	4	7.6	4	-1E+10	1	-1E+10	1	-1E+10	1	-1E+10	1	-1E+10	1	-1E+10	1
4901784	132	C	02/14/2019	10:48	-133.207	43.114	0	1464.80	0	2.6250	0	35.8210	8	28.585	0	1448.072	0	24.9	4	7.7	4	-1E+10	1	-1E+10	1	-1E+10	1	-1E+10	1	-1E+10	1	-1E+10	1
4901784	132	C	02/14/2019	10:48	-133.207	43.114	0	1470.00	0	2.6160	0	35.8230	8	28.587	0	1453.195	0	25.1	4	7.8	4	-1E+10	1	-1E+10	1	-1E+10	1	-1E+10	1	-1E+10	1	-1E+10	1
4901784	132	C	02/14/2019	10:48	-133.207	43.114	0	1475.30	0	2.6140	0	35.8230	8	28.588	0	1458.416	0	25.2	4	7.8	4	-1E+10	1	-1E+10	1	-1E+10	1	-1E+10	1	-1E+10	1	-1E+10	1
4901784	132	C	02/14/2019	10:48	-133.207	43.114	0	1480.40	0	2.6020	0	35.8250	8	28.590	0	1463.440	0	25.5	4	7.9	4	-1E+10	1	-1E+10	1	-1E+10	1	-1E+10	1	-1E+10	1	-1E+10	1
4901784	132	C	02/14/2019	10:48	-133.207	43.114	0	1485.60	0	2.5920	0	35.8260	8	28.592	0	1468.562	0	25.7	4	7.9	4	-1E+10	1	-1E+10	1	-1E+10	1	-1E+10	1	-1E+10	1	-1E+10	1
4901784	132	C	02/14/2019	10:48	-133.207	43.114	0	1490.00	0	2.5880	0	35.8270	8	28.593	0	1472.896	0	25.8	4	8.0	4	-1E+10	1	-1E+10	1	-1E+10	1	-1E+10	1	-1E+10	1	-1E+10	1
4901784	132	C	02/14/2019	10:48	-133.207	43.114	0	1494.50	0	2.5800	0	35.8280	8	28.595	0	1477.329	0	26.1	4	8.1	4	-1E+10	1	-1E+10	1	-1E+10	1	-1E+10	1	-1E+10	1	-1E+10	1
4901784	132	C	02/14/2019	10:48	-133.207	43.114	0	1499.80	0	2.5690	0	35.8290	8	28.597	0	1482.549	0	26.4	4	8.1	4	-1E+10	1	-1E+10	1	-1E+10	1	-1E+10	1	-1E+10	1	-1E+10	1
4901784	132	C	02/14/2019	10:48	-133.207	43.114	0	1505.20	0	2.5570	0	35.8310	8	28.599	0	1487.868	0	26.8	4	8.3	4	-1E+10	1	-1E+10	1	-1E+10	1	-1E+10	1	-1E+10	1	-1E+10	1
4901784	132	C	02/14/2019	10:48	-133.207	43.114	0	1509.80	0	2.5450	0	35.8330	8	28.602	0	1492.399	0	27.0	4	8.3	4	-1E+10	1	-1E+10	1	-1E+10	1	-1E+10	1	-1E+10	1	-1E+10	1
4901784	132	C	02/14/2019	10:48	-133.207	43.114	0	1514.40	0	2.5410	0	35.8340	8	28.603	0	1496.930	0	27.2	4	8.4	4	-1E+10	1	-1E+10	1	-1E+10	1	-1E+10	1	-1E+10	1	-1E+10	1
4901784	132	C	02/14/2019	10:48	-133.207	43.114	0	1519.80	0	2.5340	0	35.8350	8	28.605	0	1502.248	0	27.4	4	8.5	4	-1E+10	1	-1E+10	1	-1E+10	1	-1E+10	1	-1E+10	1	-1E+10	1
4901784	132	C	02/14/2019	10:48	-133.207	43.114	0	1525.30	0	2.5240	0	35.8370	8	28.607	0	1507.665	0	27.7	4	8.6	4	-1E+10	1	-1E+10	1	-1E+10	1	-1E+10	1	-1E+10	1	-1E+10	1
4901784	132	C	02/14/2019	10:48	-133.207	43.114	0	1529.90	0	2.5200	0	35.8380	8	28.608	0	1512.196	0	28.0	4	8.6	4	-1E+10	1	-1E+10	1	-1E+10	1	-1E+10	1	-1E+10	1	-1E+10	1
4901784	132	C	02/14/2019	10:48	-133.207	43.114	0	1534.50	0	2.5090	0	35.8400	8	28.611	0	1516.726	0	28.4	4	8.7	4	-1E+10	1	-1E+10	1	-1E+10	1	-1E+10	1	-1E+10	1	-1E+10	1
4901784	132	C	02/14/2019	10:48	-133.207	43.114	0	1540.00	0	2.5000	0	35.8420	8	28.613	0	1522.142	0	28.7	4	8.9	4	-1E+10	1	-1E+10	1	-1E+10	1	-1E+10	1	-1E+10	1	-1E+10	1
4901784	132	C	02/14/2019	10:48	-133.207	43.114	0	1545.50	0	2.4900	0	35.8430	8	28.615	0	1527.559	0	29.1	4	9.0	4	-1E+10	1	-1E+10	1	-1E+10	1	-1E+10	1	-1E+10	1	-1E+10	1
4901784	132	C	02/14/2019	10:48	-133.207	43.114	0	1550.20	0	2.4830	0	35.8440	8	28.616	0	1532.187	0	29.5	4	9.1	4	-1E+10	1	-1E+10	1	-1E+10	1	-1E+10	1	-1E+10	1	-1E+10	1
4901784	132	C	02/14/2019	10:48	-133.207	43.114	0	1554.80	0	2.4670	0	35.8470	8	28.620	0	1536.717	0	29.9	4	9.2	4	-1E+10	1	-1E+10	1	-1E+10	1	-1E+10	1	-1E+10	1	-1E+10	1
4901784	132	C	02/14/2019	10:48	-133.207	43.114	0	1560.40	0	2.4550	0	35.8490	8	28.623	0	1542.232	0	30.3	4	9.3	4	-1E+10	1	-1E+10	1	-1E+10	1	-1E+10	1	-1E+10	1	-1E+10	1
4901784	132	C	02/14/2019	10:48	-133.207	43.114	0	1565.10	0	2.4510	0	35.8500	8	28.624	0	1546.860	0	30.5	4	9.4	4	-1E+10	1	-1E+10	1	-1E+10	1	-1E+10	1	-1E+10	1	-1E+10	1
4901784	132	C	02/14/2019	10:48	-133.207	43.114	0	1569.90	0	2.4450	0	35.8500	8	28.625	0	1551.586	0	30.8	4	9.5	4	-1E+10	1	-1E+10	1	-1E+10	1	-1E+10	1	-1E+10	1	-1E+10	1
4901784	132	C	02/14/2019	10:48	-133.207	43.114	0	1575.50	0	2.4330	0	35.8510	8	28.627	0	1557.100	0	31.2	4	9.6	4	-1E+10	1	-1E+10	1	-1E+10	1	-1E+10	1	-1E+10	1	-1E+10	1
4901784	132	C	02/14/2019	10:48	-133.207	43.114	0	1580.30	0	2.4210	0	35.8530	8	28.629	0	1561.826	0	31.6	4	9.7	4	-1E+10	1	-1E+10	1	-1E+10	1	-1E+10	1	-1E+10	1	-1E+10	1
4901784	132	C	02/14/2019	10:48	-133.207	43.114	0	1585.10	0	2.4130	0	35.8540	8	28.631	0	1566.553	0	31.8	4	9.8	4	-1E+10	1	-1E+10	1	-1E+10	1	-1E+10	1	-1E+10	1	-1E+10	1
4901784	132	C	02/14/2019	10:48	-133.207	43.114	0	1589.90	0	2.4060	0	35.8560	8	28.633	0	1571.279	0	32.1	4	9.9	4	-1E+10	1	-1E+10	1	-1E+10	1	-1E+10	1	-1E+10	1	-1E+10	1
4901784	132	C	02/14/2019	10:48	-133.207	43.114	0	1594.70	0	2.4020	0	35.8560	8	28.633	0	1576.004	0	32.3	4	9.9	4	-1E+10	1	-1E+10	1	-1E+10	1	-1E+10	1	-1E+10	1	-1E+10	1
4901784	132	C	02/14/2019	10:48	-133.207	43.114	0	1600.40	0	2.3930	0	35.8580	8	28.636	0	1581.616	0	32.5	4	10.0	4	-1E+10	1	-1E+10	1	-1E+10	1	-1E+10	1	-1E+10	1	-1E+10	1
4901784	132	C	02/14/2019	10:48	-133.207	43.114	0	1605.80	0	2.3910	0	35.8590	8	28.637	0	1586.933	0	32.6	4	10.0	4	-1E+10	1	-1E+10	1	-1E+10	1	-1E+10	1	-1E+10	1	-1E+10	1
4901784	132	C	02/14/2019	10:48	-133.207	43.114	0	1610.20	0	2.3890	0	35.8600	8	28.638	0	1591.265	0	32.8	4	10.1	4	-1E+10	1	-1E+10	1	-1E+10	1	-1E+10	1	-1E+10	1	-1E+10	1
4901784	132	C	02/14/2019	10:48	-133.207	43.114	0	1615.10	0	2.3870	0	35.8600	8	28.638	0	1596.088	0	32.9	4	10.1	4	-1E+10	1	-1E+10	1	-1E+10	1	-1E+10	1	-1E+10	1	-1E+10	1
4901784	132	C	02/14/2019	10:48	-133.207	43.114	0	1620.10	0	2.3790	0	35.8620	8	28.640	0	1601.011	0	33.3	4	10.2	4	-1E+10	1	-1E+10	1	-1E+10	1	-1E+10	1	-1E+10	1	-1E+10	1
4901784	132	C	02/14/2019	10:48	-133.207	43.114	0	1625.10	0	2.3720	0	35.8630	8	28.642	0	1605.933	0	33.6	4	10.3	4	-1E+10	1	-1E+10	1	-1E+10	1	-1E+10	1	-1E+10	1	-1E+10	1
4901784	132	C	02/14/2019	10:48	-133.207	43.114	0	1630.10	0	2.3620	0	35.8640	8	28.643	0	1610.855	0	33.9	4	10.4	4	-1E+10	1	-1E+10	1	-1E+10	1	-1E+10	1	-1E+10	1	-1E+10	1
4901784	132	C	02/14/2019	10:48	-133.207	43.114	0	1635.30	0	2.3540	0	35.8650	8	28.645	0	1615.974	0	34.2	4	10.5	4	-1E+10	1	-1E+10	1	-1E+10	1	-1E+10	1	-1E+10	1	-1E+10	1
4901784	132	C	02/14/2019	10:48	-133.207	43.114	0	1640.30	0	2.3480	0	35.8670	8	28.647	0	1620.896	0	34.5	4	10.6	4	-1E+10	1	-1E+10	1	-1E+10	1	-1E+10	1	-1E+10	1	-1E+10	1
4901784	132	C	02/14/2019	10:48	-133.207	43.114	0	1645.30	0	2.3400	0	35.8680	8	28.649	0	1625.817	0	34.8	4	10.7	4	-1E+10	1	-1E+10	1	-1E+10	1	-1E+10	1	-1E+10	1	-1E+10	1
4901784	132	C	02/14/2019	10:48	-133.207	43.114	0	1650.40	0	2.3360	0	35.8690	8	28.650	0	1630.837	0	35.0	4	10.7	4	-1E+10	1	-1E+10	1	-1E+10	1	-1E+10	1	-1E+10	1	-1E+10	1
4901784	132	C	02/14/2019	10:48	-133.207	43.114	0	1655.50	0	2.3340	0	35.8690	8	28.650	0	1635.857	0	35.3	4	10.8	4	-1E+10	1	-1E+10	1	-1E+10	1	-1E+10	1	-1E+10	1	-1E+10	1
4901784	132	C	02/14/2019	10:48	-133.207	43.114	0	1660.60	0	2.3220	0	35.8700	8	28.652	0	1640.877	0	35.8	4	11.0	4	-1E+10	1	-1E+10	1	-1E+10	1	-1E+10	1	-1E+10	1	-1E+10	1
4901784	132	C	02/14/2019	10:48	-133.207	43.114	0	1664.90	0	2.3100	0	35.8730	8	28.655	0	1645.109	0	36.2	4	11.1	4	-1E+10	1	-1E+10	1	-1E+10	1	-1E+10	1	-1E+10	1	-1E+10	1
4901784	132	C	02/14/2019	10:48	-133.207	43.114	0	1669.20	0	2.3060	0	35.8730	8	28.656	0	1649.341	0	36.4	4	11.2	4	-1E+10	1	-1E+10	1	-1E+10	1	-1E+10	1	-1E+10	1	-1E+10	1
4901784	132	C	02/14/2019	10:48	-133.207	43.114	0	1674.50	0	2.3030	0	35.8740	8	28.657	0	1654.557	0	36.7	4	11.3	4	-1E+10	1	-1E+10	1	-1E+10	1	-1E+10	1	-1E+10	1	-1E+10	1
4901784	132	C	02/14/2019	10:48	-133.207	43.114	0	1679.70	0	2.2950	0	35.8750	8	28.658	0	1659.675	0	37.0	4	11.4	4	-1E+10	1	-1E+10	1	-1E+10	1	-1E+10	1	-1E+10	1	-1E+10	1
4901784	132	C	02/14/2019	10:48	-133.207	43.114	0	1684.90	0	2.2860	0	35.8770	8	28.661	0	1664.793	0	37.5	4	11.5	4	-1E+10	1	-1E+10	1	-1E+10	1	-1E+10	1	-1E+10	1	-1E+10	1
4901784	132	C	02/14/2019	10:48	-133.207	43.114	0	1690.20	0	2.2790	0	35.8780	8	28.662	0	1670.009	0	37.9	4	11.6	4	-1E+10	1	-1E+10	1	-1E+10	1	-1E+10	1	-1E+10	1	-1E+10	1
4901784	132	C	02/14/2019	10:48	-133.207	43.114	0	1695.50	0	2.2690	0	35.8800	8	28.665	0	1675.224	0	38.4	4	11.8	4	-1E+10	1	-1E+10	1	-1E+10	1	-1E+10	1	-1E+10	1	-1E+10	1
4901784	132	C	02/14/2019	10:48	-133.207	43.114	0	1700.00	0	2.2580	0	35.8820	8	28.667	0	1679.653	0	38.7	4	11.9	4	-1E+10	1	-1E+10	1	-1E+10	1	-1E+10	1	-1E+10	1	-1E+10	1
4901784	132	C	02/14/2019	10:48	-133.207	43.114	0	1704.50	0	2.2550	0	35.8820	8	28.667	0	1684.081	0	38.9	4	11.9	4	-1E+10	1	-1E+10	1	-1E+10	1	-1E+10	1	-1E+10	1	-1E+10	1
4901784	132	C	02/14/2019	10:48	-133.207	43.114	0	1709.90	0	2.2530	0	35.8830	8	28.668	0	1689.395	0	39.1	4	12.0	4	-1E+10	1	-1E+10	1	-1E+10	1	-1E+10	1	-1E+10	1	-1E+10	1
4901784	132	C	02/14/2019	10:48	-133.207	43.114	0	1715.30	0	2.2470	0	35.8840	8	28.670	0	1694.709	0	39.4	4	12.1	4	-1E+10	1	-1E+10	1	-1E+10	1	-1E+10	1	-1E+10	1	-1E+10	1
4901784	132	C	02/14/2019	10:48	-133.207	43.114	0	1719.80	0	2.2420	0	35.8850	8	28.671	0	1699.137	0	39.7	4	12.2	4	-1E+10	1	-1E+10	1	-1E+10	1	-1E+10	1	-1E+10	1	-1E+10	1
4901784	132	C	02/14/2019	10:48	-133.207	43.114	0	1724.30	0	2.2320	0	35.8860	8	28.673	0	1703.564	0	40.0	4	12.3	4	-1E+10	1	-1E+10	1	-1E+10	1	-1E+10	1	-1E+10	1	-1E+10	1
4901784	132	C	02/14/2019	10:48	-133.207	43.114	0	1729.80	0	2.2290	0	35.8870	8	28.674	0	1708.976	0	40.3	4	12.3	4	-1E+10	1	-1E+10	1	-1E+10	1	-1E+10	1	-1E+10	1	-1E+10	1
4901784	132	C	02/14/2019	10:48	-133.207	43.114	0	1735.20	0	2.2210	0	35.8880	8	28.675	0	1714.289	0	40.7	4	12.5	4	-1E+10	1	-1E+10	1	-1E+10	1	-1E+10	1	-1E+10	1	-1E+10	1
4901784	132	C	02/14/2019	10:48	-133.207	43.114	0	1739.80	0	2.2170	0	35.8890	8	28.676	0	1718.815	0	40.9	4	12.5	4	-1E+10	1	-1E+10	1	-1E+10	1	-1E+10	1	-1E+10	1	-1E+10	1
4901784	132	C	02/14/2019	10:48	-133.207	43.114	0	1744.20	0	2.2140	0	35.8900	8	28.677	0	1723.144	0	41.2	4	12.6	4	-1E+10	1	-1E+10	1	-1E+10	1	-1E+10	1	-1E+10	1	-1E+10	1
4901784	132	C	02/14/2019	10:48	-133.207	43.114	0	1749.60	0	2.2070	0	35.8910	8	28.679	0	1728.457	0	41.7	4	12.8	4	-1E+10	1	-1E+10	1	-1E+10	1	-1E+10	1	-1E+10	1	-1E+10	1
4901784	132	C	02/14/2019	10:48	-133.207	43.114	0	1754.50	0	2.1990	0	35.8930	8	28.681	0	1733.278	0	42.2	4	12.9	4	-1E+10	1	-1E+10	1	-1E+10	1	-1E+10	1	-1E+10	1	-1E+10	1
4901784	132	C	02/14/2019	10:48	-133.207	43.114	0	1759.40	0	2.1880	0	35.8950	8	28.684	0	1738.099	0	42.7	4	13.1	4	-1E+10	1	-1E+10	1	-1E+10	1	-1E+10	1	-1E+10	1	-1E+10	1
4901784	132	C	02/14/2019	10:48	-133.207	43.114	0	1764.30	0	2.1780	0	35.8970	8	28.686	0	1742.919	0	43.0	4	13.1	4	-1E+10	1	-1E+10	1	-1E+10	1	-1E+10	1	-1E+10	1	-1E+10	1
4901784	132	C	02/14/2019	10:48	-133.207	43.114	0	1769.20	0	2.1760	0	35.8970	8	28.686	0	1747.740	0	43.1	4	13.2	4	-1E+10	1	-1E+10	1	-1E+10	1	-1E+10	1	-1E+10	1	-1E+10	1
4901784	132	C	02/14/2019	10:48	-133.207	43.114	0	1775.00	0	2.1750	0	35.8980	8	28.687	0	1753.445	0	43.3	4	13.3	4	-1E+10	1	-1E+10	1	-1E+10	1	-1E+10	1	-1E+10	1	-1E+10	1
4901784	132	C	02/14/2019	10:48	-133.207	43.114	0	1780.80	0	2.1670	0	35.8990	8	28.689	0	1759.151	0	43.7	4	13.4	4	-1E+10	1	-1E+10	1	-1E+10	1	-1E+10	1	-1E+10	1	-1E+10	1
4901784	132	C	02/14/2019	10:48	-133.207	43.114	0	1785.80	0	2.1630	0	35.9000	8	28.690	0	1764.069	0	44.0	4	13.4	4	-1E+10	1	-1E+10	1	-1E+10	1	-1E+10	1	-1E+10	1	-1E+10	1
4901784	132	C	02/14/2019	10:48	-133.207	43.114	0	1790.80	0	2.1590	0	35.9010	8	28.691	0	1768.988	0	44.3	4	13.5	4	-1E+10	1	-1E+10	1	-1E+10	1	-1E+10	1	-1E+10	1	-1E+10	1
4901784	132	C	02/14/2019	10:48	-133.207	43.114	0	1795.80	0	2.1530	0	35.9020	8	28.692	0	1773.906	0	44.6	4	13.6	4	-1E+10	1	-1E+10	1	-1E+10	1	-1E+10	1	-1E+10	1	-1E+10	1
4901784	132	C	02/14/2019	10:48	-133.207	43.114	0	1800.10	0	2.1490	0	35.9030	8	28.694	0	1778.136	0	44.8	4	13.7	4	-1E+10	1	-1E+10	1	-1E+10	1	-1E+10	1	-1E+10	1	-1E+10	1
4901784	132	C	02/14/2019	10:48	-133.207	43.114	0	1804.30	0	2.1460	0	35.9030	8	28.694	0	1782.267	0	45.1	4	13.8	4	-1E+10	1	-1E+10	1	-1E+10	1	-1E+10	1	-1E+10	1	-1E+10	1
4901784	132	C	02/14/2019	10:48	-133.207	43.114	0	1809.30	0	2.1410	0	35.9040	8	28.695	0	1787.185	0	45.4	4	13.9	4	-1E+10	1	-1E+10	1	-1E+10	1	-1E+10	1	-1E+10	1	-1E+10	1
4901784	132	C	02/14/2019	10:48	-133.207	43.114	0	1814.40	0	2.1360	0	35.9060	8	28.697	0	1792.201	0	45.7	4	14.0	4	-1E+10	1	-1E+10	1	-1E+10	1	-1E+10	1	-1E+10	1	-1E+10	1
4901784	132	C	02/14/2019	10:48	-133.207	43.114	0	1819.50	0	2.1320	0	35.9060	8	28.698	0	1797.217	0	46.0	4	14.0	4	-1E+10	1	-1E+10	1	-1E+10	1	-1E+10	1	-1E+10	1	-1E+10	1
4901784	132	C	02/14/2019	10:48	-133.207	43.114	0	1824.70	0	2.1280	0	35.9070	8	28.699	0	1802.331	0	46.3	4	14.1	4	-1E+10	1	-1E+10	1	-1E+10	1	-1E+10	1	-1E+10	1	-1E+10	1
4901784	132	C	02/14/2019	10:48	-133.207	43.114	0	1829.80	0	2.1200	0	35.9090	8	28.701	0	1807.347	0	46.7	4	14.3	4	-1E+10	1	-1E+10	1	-1E+10	1	-1E+10	1	-1E+10	1	-1E+10	1
4901784	132	C	02/14/2019	10:48	-133.207	43.114	0	1834.90	0	2.1150	0	35.9100	8	28.702	0	1812.363	0	47.1	4	14.4	4	-1E+10	1	-1E+10	1	-1E+10	1	-1E+10	1	-1E+10	1	-1E+10	1
4901784	132	C	02/14/2019	10:48	-133.207	43.114	0	1840.10	0	2.1100	0	35.9110	8	28.704	0	1817.477	0	47.4	4	14.5	4	-1E+10	1	-1E+10	1	-1E+10	1	-1E+10	1	-1E+10	1	-1E+10	1
4901784	132	C	02/14/2019	10:48	-133.207	43.114	0	1845.20	0	2.1040	0	35.9120	8	28.705	0	1822.492	0	47.8	4	14.6	4	-1E+10	1	-1E+10	1	-1E+10	1	-1E+10	1	-1E+10	1	-1E+10	1
4901784	132	C	02/14/2019	10:48	-133.207	43.114	0	1850.40	0	2.0990	0	35.9130	8	28.706	0	1827.606	0	48.1	4	14.7	4	-1E+10	1	-1E+10	1	-1E+10	1	-1E+10	1	-1E+10	1	-1E+10	1
4901784	132	C	02/14/2019	10:48	-133.207	43.114	0	1855.60	0	2.0920	0	35.9140	8	28.707	0	1832.719	0	48.4	4	14.8	4	-1E+10	1	-1E+10	1	-1E+10	1	-1E+10	1	-1E+10	1	-1E+10	1
4901784	132	C	02/14/2019	10:48	-133.207	43.114	0	1860.00	0	2.0890	0	35.9150	8	28.709	0	1837.046	0	48.5	4	14.8	4	-1E+10	1	-1E+10	1	-1E+10	1	-1E+10	1	-1E+10	1	-1E+10	1
4901784	132	C	02/14/2019	10:48	-133.207	43.114	0	1864.40	0	2.0890	0	35.9160	8	28.709	0	1841.373	0	48.7	4	14.9	4	-1E+10	1	-1E+10	1	-1E+10	1	-1E+10	1	-1E+10	1	-1E+10	1
4901784	132	C	02/14/2019	10:48	-133.207	43.114	0	1869.70	0	2.0860	0	35.9160	8	28.710	0	1846.584	0	49.0	4	15.0	4	-1E+10	1	-1E+10	1	-1E+10	1	-1E+10	1	-1E+10	1	-1E+10	1
4901784	132	C	02/14/2019	10:48	-133.207	43.114	0	1875.10	0	2.0800	0	35.9170	8	28.711	0	1851.894	0	49.4	4	15.1	4	-1E+10	1	-1E+10	1	-1E+10	1	-1E+10	1	-1E+10	1	-1E+10	1
4901784	132	C	02/14/2019	10:48	-133.207	43.114	0	1880.40	0	2.0740	0	35.9190	8	28.713	0	1857.105	0	49.9	4	15.2	4	-1E+10	1	-1E+10	1	-1E+10	1	-1E+10	1	-1E+10	1	-1E+10	1
4901784	132	C	02/14/2019	10:48	-133.207	43.114	0	1885.70	0	2.0650	0	35.9200	8	28.715	0	1862.316	0	50.4	4	15.4	4	-1E+10	1	-1E+10	1	-1E+10	1	-1E+10	1	-1E+10	1	-1E+10	1
4901784	132	C	02/14/2019	10:48	-133.207	43.114	0	1890.10	0	2.0600	0	35.9210	8	28.716	0	1866.642	0	50.7	4	15.5	4	-1E+10	1	-1E+10	1	-1E+10	1	-1E+10	1	-1E+10	1	-1E+10	1
4901784	132	C	02/14/2019	10:48	-133.207	43.114	0	1894.60	0	2.0550	0	35.9220	8	28.717	0	1871.067	0	50.9	4	15.5	4	-1E+10	1	-1E+10	1	-1E+10	1	-1E+10	1	-1E+10	1	-1E+10	1
4901784	132	C	02/14/2019	10:48	-133.207	43.114	0	1900.00	0	2.0520	0	35.9230	8	28.718	0	1876.376	0	51.1	4	15.6	4	-1E+10	1	-1E+10	1	-1E+10	1	-1E+10	1	-1E+10	1	-1E+10	1
4901784	132	C	02/14/2019	10:48	-133.207	43.114	0	1905.30	0	2.0500	0	35.9240	8	28.719	0	1881.587	0	51.4	4	15.7	4	-1E+10	1	-1E+10	1	-1E+10	1	-1E+10	1	-1E+10	1	-1E+10	1
4901784	132	C	02/14/2019	10:48	-133.207	43.114	0	1910.70	0	2.0440	0	35.9250	8	28.721	0	1886.895	0	51.7	4	15.8	4	-1E+10	1	-1E+10	1	-1E+10	1	-1E+10	1	-1E+10	1	-1E+10	1
4901784	132	C	02/14/2019	10:48	-133.207	43.114	0	1915.10	0	2.0420	0	35.9260	8	28.722	0	1891.221	0	52.0	4	15.9	4	-1E+10	1	-1E+10	1	-1E+10	1	-1E+10	1	-1E+10	1	-1E+10	1
4901784	132	C	02/14/2019	10:48	-133.207	43.114	0	1919.60	0	2.0370	0	35.9270	8	28.723	0	1895.645	0	52.3	4	15.9	4	-1E+10	1	-1E+10	1	-1E+10	1	-1E+10	1	-1E+10	1	-1E+10	1
4901784	132	C	02/14/2019	10:48	-133.207	43.114	0	1925.00	0	2.0330	0	35.9270	8	28.723	0	1900.954	0	52.6	4	16.0	4	-1E+10	1	-1E+10	1	-1E+10	1	-1E+10	1	-1E+10	1	-1E+10	1
4901784	132	C	02/14/2019	10:48	-133.207	43.114	0	1929.70	0	2.0290	0	35.9280	8	28.724	0	1905.574	0	52.8	4	16.1	4	-1E+10	1	-1E+10	1	-1E+10	1	-1E+10	1	-1E+10	1	-1E+10	1
4901784	132	C	02/14/2019	10:48	-133.207	43.114	0	1934.90	0	2.0250	0	35.9290	8	28.725	0	1910.686	0	53.2	4	16.2	4	-1E+10	1	-1E+10	1	-1E+10	1	-1E+10	1	-1E+10	1	-1E+10	1
4901784	132	C	02/14/2019	10:48	-133.207	43.114	0	1940.60	0	2.0190	0	35.9310	8	28.728	0	1916.288	0	53.5	4	16.3	4	-1E+10	1	-1E+10	1	-1E+10	1	-1E+10	1	-1E+10	1	-1E+10	1
4901784	132	C	02/14/2019	10:48	-133.207	43.114	0	1945.40	0	2.0150	0	35.9310	8	28.728	0	1921.007	0	53.9	4	16.4	4	-1E+10	1	-1E+10	1	-1E+10	1	-1E+10	1	-1E+10	1	-1E+10	1
4901784	132	C	02/14/2019	10:48	-133.207	43.114	0	1950.20	0	2.0090	0	35.9330	8	28.730	0	1925.725	0	54.3	4	16.5	4	-1E+10	1	-1E+10	1	-1E+10	1	-1E+10	1	-1E+10	1	-1E+10	1
4901784	132	C	02/14/2019	10:48	-133.207	43.114	0	1955.10	0	2.0050	0	35.9340	8	28.731	0	1930.541	0	54.5	4	16.6	4	-1E+10	1	-1E+10	1	-1E+10	1	-1E+10	1	-1E+10	1	-1E+10	1
4901784	132	C	02/14/2019	10:48	-133.207	43.114	0	1960.10	0	2.0020	0	35.9340	8	28.732	0	1935.456	0	54.8	4	16.7	4	-1E+10	1	-1E+10	1	-1E+10	1	-1E+10	1	-1E+10	1	-1E+10	1
4901784	132	C	02/14/2019	10:48	-133.207	43.114	0	1964.90	0	1.9990	0	35.9350	8	28.733	0	1940.173	0	55.0	4	16.7	4	-1E+10	1	-1E+10	1	-1E+10	1	-1E+10	1	-1E+10	1	-1E+10	1
4901784	132	C	02/14/2019	10:48	-133.207	43.114	0	1969.90	0	1.9960	0	35.9360	8	28.734	0	1945.088	0	55.2	4	16.8	4	-1E+10	1	-1E+10	1	-1E+10	1	-1E+10	1	-1E+10	1	-1E+10	1
4901784	132	C	02/14/2019	10:48	-133.207	43.114	0	1974.90	0	1.9940	0	35.9360	8	28.734	0	1950.002	0	55.4	4	16.9	4	-1E+10	1	-1E+10	1	-1E+10	1	-1E+10	1	-1E+10	1	-1E+10	1
4901784	132	C	02/14/2019	10:48	-133.207	43.114	0	1979.80	0	1.9920	0	35.9370	8	28.735	0	1954.818	0	55.7	4	17.0	4	-1E+10	1	-1E+10	1	-1E+10	1	-1E+10	1	-1E+10	1	-1E+10	1
4901784	132	C	02/14/2019	10:48	-133.207	43.114	0	1984.80	0	1.9890	0	35.9380	8	28.736	0	1959.732	0	56.0	4	17.1	4	-1E+10	1	-1E+10	1	-1E+10	1	-1E+10	1	-1E+10	1	-1E+10	1
4901784	132	C	02/14/2019	10:48	-133.207	43.114	0	1989.80	0	1.9820	0	35.9390	8	28.737	0	1964.645	0	56.4	4	17.2	4	-1E+10	1	-1E+10	1	-1E+10	1	-1E+10	1	-1E+10	1	-1E+10	1
4901784	132	C	02/14/2019	10:48	-133.207	43.114	0	1994.80	0	1.9780	0	35.9400	8	28.738	0	1969.559	0	56.7	4	17.3	4	-1E+10	1	-1E+10	1	-1E+10	1	-1E+10	1	-1E+10	1	-1E+10	1
4901784	132	C	02/14/2019	10:48	-133.207	43.114	0	1999.80	0	1.9740	0	35.9410	8	28.740	0	1974.473	0	57.0	4	17.4	4	-1E+10	1	-1E+10	1	-1E+10	1	-1E+10	1	-1E+10	1	-1E+10	1
4901784	132	C	02/14/2019	10:48	-133.207	43.114	0	2004.70	0	1.9710	0	35.9420	8	28.741	0	1979.288	0	57.3	4	17.4	4	-1E+10	1	-1E+10	1	-1E+10	1	-1E+10	1	-1E+10	1	-1E+10	1
4901784	132	C	02/14/2019	10:48	-133.207	43.114	0	2009.60	0	1.9660	0	35.9430	8	28.742	0	1984.103	0	57.6	4	17.5	4	-1E+10	1	-1E+10	1	-1E+10	1	-1E+10	1	-1E+10	1	-1E+10	1
4901784	132	C	02/14/2019	10:48	-133.207	43.114	0	2015.10	0	1.9630	0	35.9440	8	28.743	0	1989.508	0	57.7	4	17.6	4	-1E+10	1	-1E+10	1	-1E+10	1	-1E+10	1	-1E+10	1	-1E+10	1
4901784	132	C	02/14/2019	10:48	-133.207	43.114	0	2019.90	0	1.9630	0	35.9440	8	28.743	0	1994.224	0	57.8	4	17.6	4	-1E+10	1	-1E+10	1	-1E+10	1	-1E+10	1	-1E+10	1	-1E+10	1
4901784	132	C	02/14/2019	10:48	-133.207	43.114	0																										
4901784	133	C	02/24/2019	10:45	-133.051	43.118	0	3.20	0	10.6700	0	33.6120	8	25.754	0	3.175	0	262.8	4	96.1	4	-1E+10	1	-1E+10	1	-1E+10	1	-1E+10	1	-1E+10	1	-1E+10	1
4901784	133	C	02/24/2019	10:45	-133.051	43.118	0	5.10	0	10.6740	0	33.6140	8	25.755	0	5.059	0	262.7	4	96.1	4	-1E+10	1	-1E+10	1	-1E+10	1	-1E+10	1	-1E+10	1	-1E+10	1
4901784	133	C	02/24/2019	10:45	-133.051	43.118	0	6.90	0	10.6740	0	33.6130	8	25.754	0	6.845	0	262.7	4	96.1	4	-1E+10	1	-1E+10	1	-1E+10	1	-1E+10	1	-1E+10	1	-1E+10	1
4901784	133	C	02/24/2019	10:45	-133.051	43.118	0	8.70	0	10.6770	0	33.6150	8	25.755	0	8.631	0	262.9	4	96.2	4	-1E+10	1	-1E+10	1	-1E+10	1	-1E+10	1	-1E+10	1	-1E+10	1
4901784	133	C	02/24/2019	10:45	-133.051	43.118	0	10.50	0	10.6740	0	33.6140	8	25.755	0	10.416	0	262.8	4	96.1	4	-1E+10	1	-1E+10	1	-1E+10	1	-1E+10	1	-1E+10	1	-1E+10	1
4901784	133	C	02/24/2019	10:45	-133.051	43.118	0	12.90	0	10.6740	0	33.6140	8	25.755	0	12.797	0	262.6	4	96.1	4	-1E+10	1	-1E+10	1	-1E+10	1	-1E+10	1	-1E+10	1	-1E+10	1
4901784	133	C	02/24/2019	10:45	-133.051	43.118	0	14.90	0	10.6890	0	33.6220	8	25.758	0	14.781	0	262.7	4	96.1	4	-1E+10	1	-1E+10	1	-1E+10	1	-1E+10	1	-1E+10	1	-1E+10	1
4901784	133	C	02/24/2019	10:45	-133.051	43.118	0	16.50	0	10.6930	0	33.6220	8	25.758	0	16.368	0	262.7	4	96.1	4	-1E+10	1	-1E+10	1	-1E+10	1	-1E+10	1	-1E+10	1	-1E+10	1
4901784	133	C	02/24/2019	10:45	-133.051	43.118	0	18.10	0	10.6950	0	33.6240	8	25.759	0	17.955	0	262.5	4	96.1	4	-1E+10	1	-1E+10	1	-1E+10	1	-1E+10	1	-1E+10	1	-1E+10	1
4901784	133	C	02/24/2019	10:45	-133.051	43.118	0	19.70	0	10.6960	0	33.6250	8	25.760	0	19.543	0	262.5	4	96.1	4	-1E+10	1	-1E+10	1	-1E+10	1	-1E+10	1	-1E+10	1	-1E+10	1
4901784	133	C	02/24/2019	10:45	-133.051	43.118	0	21.40	0	10.6980	0	33.6250	8	25.759	0	21.229	0	262.5	4	96.1	4	-1E+10	1	-1E+10	1	-1E+10	1	-1E+10	1	-1E+10	1	-1E+10	1
4901784	133	C	02/24/2019	10:45	-133.051	43.118	0	22.90	0	10.6970	0	33.6250	8	25.759	0	22.717	0	262.5	4	96.1	4	-1E+10	1	-1E+10	1	-1E+10	1	-1E+10	1	-1E+10	1	-1E+10	1
4901784	133	C	02/24/2019	10:45	-133.051	43.118	0	24.50	0	10.6980	0	33.6270	8	25.761	0	24.304	0	262.4	4	96.0	4	-1E+10	1	-1E+10	1	-1E+10	1	-1E+10	1	-1E+10	1	-1E+10	1
4901784	133	C	02/24/2019	10:45	-133.051	43.118	0	26.10	0	10.7040	0	33.6290	8	25.761	0	25.891	0	262.3	4	96.0	4	-1E+10	1	-1E+10	1	-1E+10	1	-1E+10	1	-1E+10	1	-1E+10	1
4901784	133	C	02/24/2019	10:45	-133.051	43.118	0	27.60	0	10.7090	0	33.6380	8	25.768	0	27.379	0	262.0	4	95.9	4	-1E+10	1	-1E+10	1	-1E+10	1	-1E+10	1	-1E+10	1	-1E+10	1
4901784	133	C	02/24/2019	10:45	-133.051	43.118	0	29.30	0	10.6980	0	33.6390	8	25.770	0	29.065	0	262.0	4	95.9	4	-1E+10	1	-1E+10	1	-1E+10	1	-1E+10	1	-1E+10	1	-1E+10	1
4901784	133	C	02/24/2019	10:45	-133.051	43.118	0	30.90	0	10.6850	0	33.6410	8	25.774	0	30.652	0	262.1	4	95.9	4	-1E+10	1	-1E+10	1	-1E+10	1	-1E+10	1	-1E+10	1	-1E+10	1
4901784	133	C	02/24/2019	10:45	-133.051	43.118	0	32.60	0	10.6830	0	33.6420	8	25.775	0	32.338	0	261.9	4	95.9	4	-1E+10	1	-1E+10	1	-1E+10	1	-1E+10	1	-1E+10	1	-1E+10	1
4901784	133	C	02/24/2019	10:45	-133.051	43.118	0	34.30	0	10.6830	0	33.6420	8	25.775	0	34.025	0	261.8	4	95.8	4	-1E+10	1	-1E+10	1	-1E+10	1	-1E+10	1	-1E+10	1	-1E+10	1
4901784	133	C	02/24/2019	10:45	-133.051	43.118	0	36.00	0	10.6830	0	33.6430	8	25.776	0	35.711	0	261.7	4	95.8	4	-1E+10	1	-1E+10	1	-1E+10	1	-1E+10	1	-1E+10	1	-1E+10	1
4901784	133	C	02/24/2019	10:45	-133.051	43.118	0	37.70	0	10.6830	0	33.6430	8	25.776	0	37.397	0	261.7	4	95.8	4	-1E+10	1	-1E+10	1	-1E+10	1	-1E+10	1	-1E+10	1	-1E+10	1
4901784	133	C	02/24/2019	10:45	-133.051	43.118	0	39.40	0	10.6830	0	33.6440	8	25.777	0	39.083	0	261.6	4	95.7	4	-1E+10	1	-1E+10	1	-1E+10	1	-1E+10	1	-1E+10	1	-1E+10	1
4901784	133	C	02/24/2019	10:45	-133.051	43.118	0	41.00	0	10.6830	0	33.6440	8	25.777	0	40.670	0	261.6	4	95.7	4	-1E+10	1	-1E+10	1	-1E+10	1	-1E+10	1	-1E+10	1	-1E+10	1
4901784	133	C	02/24/2019	10:45	-133.051	43.118	0	42.70	0	10.6840	0	33.6450	8	25.778	0	42.356	0	261.4	4	95.7	4	-1E+10	1	-1E+10	1	-1E+10	1	-1E+10	1	-1E+10	1	-1E+10	1
4901784	133	C	02/24/2019	10:45	-133.051	43.118	0	44.30	0	10.6840	0	33.6450	8	25.778	0	43.943	0	261.4	4	95.6	4	-1E+10	1	-1E+10	1	-1E+10	1	-1E+10	1	-1E+10	1	-1E+10	1
4901784	133	C	02/24/2019	10:45	-133.051	43.118	0	46.00	0	10.6840	0	33.6460	8	25.779	0	45.629	0	261.0	4	95.5	4	-1E+10	1	-1E+10	1	-1E+10	1	-1E+10	1	-1E+10	1	-1E+10	1
4901784	133	C	02/24/2019	10:45	-133.051	43.118	0	47.70	0	10.6830	0	33.6520	8	25.783	0	47.316	0	260.9	4	95.5	4	-1E+10	1	-1E+10	1	-1E+10	1	-1E+10	1	-1E+10	1	-1E+10	1
4901784	133	C	02/24/2019	10:45	-133.051	43.118	0	49.40	0	10.6870	0	33.6550	8	25.785	0	49.002	0	260.9	4	95.5	4	-1E+10	1	-1E+10	1	-1E+10	1	-1E+10	1	-1E+10	1	-1E+10	1
4901784	133	C	02/24/2019	10:45	-133.051	43.118	0	51.10	0	10.6830	0	33.6570	8	25.787	0	50.688	0	260.7	4	95.4	4	-1E+10	1	-1E+10	1	-1E+10	1	-1E+10	1	-1E+10	1	-1E+10	1
4901784	133	C	02/24/2019	10:45	-133.051	43.118	0	52.90	0	10.6820	0	33.6570	8	25.788	0	52.473	0	260.6	4	95.4	4	-1E+10	1	-1E+10	1	-1E+10	1	-1E+10	1	-1E+10	1	-1E+10	1
4901784	133	C	02/24/2019	10:45	-133.051	43.118	0	54.60	0	10.6820	0	33.6580	8	25.788	0	54.159	0	260.7	4	95.4	4	-1E+10	1	-1E+10	1	-1E+10	1	-1E+10	1	-1E+10	1	-1E+10	1
4901784	133	C	02/24/2019	10:45	-133.051	43.118	0	56.30	0	10.6830	0	33.6590	8	25.789	0	55.845	0	260.6	4	95.4	4	-1E+10	1	-1E+10	1	-1E+10	1	-1E+10	1	-1E+10	1	-1E+10	1
4901784	133	C	02/24/2019	10:45	-133.051	43.118	0	58.10	0	10.6820	0	33.6590	8	25.789	0	57.630	0	260.7	4	95.4	4	-1E+10	1	-1E+10	1	-1E+10	1	-1E+10	1	-1E+10	1	-1E+10	1
4901784	133	C	02/24/2019	10:45	-133.051	43.118	0	59.90	0	10.6870	0	33.6630	8	25.792	0	59.415	0	260.8	4	95.5	4	-1E+10	1	-1E+10	1	-1E+10	1	-1E+10	1	-1E+10	1	-1E+10	1
4901784	133	C	02/24/2019	10:45	-133.051	43.118	0	61.60	0	10.6860	0	33.6640	8	25.793	0	61.101	0	260.8	4	95.5	4	-1E+10	1	-1E+10	1	-1E+10	1	-1E+10	1	-1E+10	1	-1E+10	1
4901784	133	C	02/24/2019	10:45	-133.051	43.118	0	63.30	0	10.6880	0	33.6640	8	25.792	0	62.787	0	260.7	4	95.4	4	-1E+10	1	-1E+10	1	-1E+10	1	-1E+10	1	-1E+10	1	-1E+10	1
4901784	133	C	02/24/2019	10:45	-133.051	43.118	0	65.00	0	10.6880	0	33.6640	8	25.792	0	64.473	0	260.6	4	95.4	4	-1E+10	1	-1E+10	1	-1E+10	1	-1E+10	1	-1E+10	1	-1E+10	1
4901784	133	C	02/24/2019	10:45	-133.051	43.118	0	66.80	0	10.6880	0	33.6650	8	25.793	0	66.259	0	260.7	4	95.4	4	-1E+10	1	-1E+10	1	-1E+10	1	-1E+10	1	-1E+10	1	-1E+10	1
4901784	133	C	02/24/2019	10:45	-133.051	43.118	0	68.50	0	10.6890	0	33.6660	8	25.794	0	67.944	0	260.6	4	95.4	4	-1E+10	1	-1E+10	1	-1E+10	1	-1E+10	1	-1E+10	1	-1E+10	1
4901784	133	C	02/24/2019	10:45	-133.051	43.118	0	70.20	0	10.6890	0	33.6660	8	25.794	0	69.630	0	260.5	4	95.4	4	-1E+10	1	-1E+10	1	-1E+10	1	-1E+10	1	-1E+10	1	-1E+10	1
4901784	133	C	02/24/2019	10:45	-133.051	43.118	0	71.90	0	10.6900	0	33.6670	8	25.794	0	71.316	0	260.5	4	95.3	4	-1E+10	1	-1E+10	1	-1E+10	1	-1E+10	1	-1E+10	1	-1E+10	1
4901784	133	C	02/24/2019	10:45	-133.051	43.118	0	73.60	0	10.6900	0	33.6670	8	25.794	0	73.002	0	260.4	4	95.3	4	-1E+10	1	-1E+10	1	-1E+10	1	-1E+10	1	-1E+10	1	-1E+10	1
4901784	133	C	02/24/2019	10:45	-133.051	43.118	0	75.20	0	10.6910	0	33.6680	8	25.795	0	74.589	0	260.2	4	95.2	4	-1E+10	1	-1E+10	1	-1E+10	1	-1E+10	1	-1E+10	1	-1E+10	1
4901784	133	C	02/24/2019	10:45	-133.051	43.118	0	76.90	0	10.6900	0	33.6680	8	25.795	0	76.275	0	260.1	4	95.2	4	-1E+10	1	-1E+10	1	-1E+10	1	-1E+10	1	-1E+10	1	-1E+10	1
4901784	133	C	02/24/2019	10:45	-133.051	43.118	0	78.60	0	10.6870	0	33.6680	8	25.796	0	77.961	0	259.9	4	95.1	4	-1E+10	1	-1E+10	1	-1E+10	1	-1E+10	1	-1E+10	1	-1E+10	1
4901784	133	C	02/24/2019	10:45	-133.051	43.118	0	80.30	0	10.6830	0	33.6700	8	25.798	0	79.647	0	259.8	4	95.1	4	-1E+10	1	-1E+10	1	-1E+10	1	-1E+10	1	-1E+10	1	-1E+10	1
4901784	133	C	02/24/2019	10:45	-133.051	43.118	0	82.00	0	10.6670	0	33.6660	8	25.798	0	81.332	0	259.7	4	95.0	4	-1E+10	1	-1E+10	1	-1E+10	1	-1E+10	1	-1E+10	1	-1E+10	1
4901784	133	C	02/24/2019	10:45	-133.051	43.118	0	83.70	0	10.6660	0	33.6670	8	25.799	0	83.018	0	259.5	4	95.0	4	-1E+10	1	-1E+10	1	-1E+10	1	-1E+10	1	-1E+10	1	-1E+10	1
4901784	133	C	02/24/2019	10:45	-133.051	43.118	0	85.40	0	10.6640	0	33.6670	8	25.799	0	84.704	0	259.5	4	94.9	4	-1E+10	1	-1E+10	1	-1E+10	1	-1E+10	1	-1E+10	1	-1E+10	1
4901784	133	C	02/24/2019	10:45	-133.051	43.118	0	87.10	0	10.6680	0	33.6690	8	25.800	0	86.390	0	259.0	4	94.8	4	-1E+10	1	-1E+10	1	-1E+10	1	-1E+10	1	-1E+10	1	-1E+10	1
4901784	133	C	02/24/2019	10:45	-133.051	43.118	0	88.80	0	10.6680	0	33.6680	8	25.799	0	88.076	0	258.9	4	94.7	4	-1E+10	1	-1E+10	1	-1E+10	1	-1E+10	1	-1E+10	1	-1E+10	1
4901784	133	C	02/24/2019	10:45	-133.051	43.118	0	90.50	0	10.6700	0	33.6690	8	25.800	0	89.761	0	258.6	4	94.6	4	-1E+10	1	-1E+10	1	-1E+10	1	-1E+10	1	-1E+10	1	-1E+10	1
4901784	133	C	02/24/2019	10:45	-133.051	43.118	0	92.10	0	10.6690	0	33.6680	8	25.799	0	91.348	0	257.9	4	94.4	4	-1E+10	1	-1E+10	1	-1E+10	1	-1E+10	1	-1E+10	1	-1E+10	1
4901784	133	C	02/24/2019	10:45	-133.051	43.118	0	93.80	0	10.6730	0	33.6680	8	25.799	0	93.034	0	257.3	4	94.1	4	-1E+10	1	-1E+10	1	-1E+10	1	-1E+10	1	-1E+10	1	-1E+10	1
4901784	133	C	02/24/2019	10:45	-133.051	43.118	0	95.50	0	10.6460	0	33.6630	8	25.799	0	94.719	0	256.4	4	93.8	4	-1E+10	1	-1E+10	1	-1E+10	1	-1E+10	1	-1E+10	1	-1E+10	1
4901784	133	C	02/24/2019	10:45	-133.051	43.118	0	97.10	0	10.6420	0	33.6600	8	25.798	0	96.306	0	255.6	4	93.5	4	-1E+10	1	-1E+10	1	-1E+10	1	-1E+10	1	-1E+10	1	-1E+10	1
4901784	133	C	02/24/2019	10:45	-133.051	43.118	0	98.70	0	10.6340	0	33.6550	8	25.795	0	97.892	0	254.2	4	92.9	4	-1E+10	1	-1E+10	1	-1E+10	1	-1E+10	1	-1E+10	1	-1E+10	1
4901784	133	C	02/24/2019	10:45	-133.051	43.118	0	100.40	0	10.6330	0	33.6490	8	25.791	0	99.578	0	252.1	4	92.2	4	-1E+10	1	-1E+10	1	-1E+10	1	-1E+10	1	-1E+10	1	-1E+10	1
4901784	133	C	02/24/2019	10:45	-133.051	43.118	0	102.70	0	10.5710	0	33.6370	8	25.792	0	101.859	0	248.3	4	90.6	4	-1E+10	1	-1E+10	1	-1E+10	1	-1E+10	1	-1E+10	1	-1E+10	1
4901784	133	C	02/24/2019	10:45	-133.051	43.118	0	105.00	0	10.0640	0	33.6480	8	25.888	0	104.139	0	245.0	4	88.5	4	-1E+10	1	-1E+10	1	-1E+10	1	-1E+10	1	-1E+10	1	-1E+10	1
4901784	133	C	02/24/2019	10:45	-133.051	43.118	0	107.50	0	9.3750	0	33.7090	8	26.049	0	106.618	0	245.8	4	87.5	4	-1E+10	1	-1E+10	1	-1E+10	1	-1E+10	1	-1E+10	1	-1E+10	1
4901784	133	C	02/24/2019	10:45	-133.051	43.118	0	110.10	0	9.1080	0	33.7450	8	26.120	0	109.196	0	245.0	4	86.7	4	-1E+10	1	-1E+10	1	-1E+10	1	-1E+10	1	-1E+10	1	-1E+10	1
4901784	133	C	02/24/2019	10:45	-133.051	43.118	0	112.00	0	8.8080	0	33.7680	8	26.186	0	111.080	0	245.0	4	86.2	4	-1E+10	1	-1E+10	1	-1E+10	1	-1E+10	1	-1E+10	1	-1E+10	1
4901784	133	C	02/24/2019	10:45	-133.051	43.118	0	114.90	0	8.5460	0	33.7650	8	26.224	0	113.955	0	245.5	4	85.8	4	-1E+10	1	-1E+10	1	-1E+10	1	-1E+10	1	-1E+10	1	-1E+10	1
4901784	133	C	02/24/2019	10:45	-133.051	43.118	0	117.70	0	8.4260	0	33.7840	8	26.257	0	116.732	0	244.4	4	85.2	4	-1E+10	1	-1E+10	1	-1E+10	1	-1E+10	1	-1E+10	1	-1E+10	1
4901784	133	C	02/24/2019	10:45	-133.051	43.118	0	119.90	0	8.4440	0	33.7930	8	26.262	0	118.913	0	242.6	4	84.7	4	-1E+10	1	-1E+10	1	-1E+10	1	-1E+10	1	-1E+10	1	-1E+10	1
4901784	133	C	02/24/2019	10:45	-133.051	43.118	0	122.30	0	8.4110	0	33.8400	8	26.303	0	121.292	0	240.1	4	83.8	4	-1E+10	1	-1E+10	1	-1E+10	1	-1E+10	1	-1E+10	1	-1E+10	1
4901784	133	C	02/24/2019	10:45	-133.051	43.118	0	124.70	0	8.3580	0	33.9070	8	26.364	0	123.672	0	238.1	4	83.0	4	-1E+10	1	-1E+10	1	-1E+10	1	-1E+10	1	-1E+10	1	-1E+10	1
4901784	133	C	02/24/2019	10:45	-133.051	43.118	0	127.80	0	8.3380	0	34.0040	8	26.443	0	126.745	0	234.8	4	81.9	4	-1E+10	1	-1E+10	1	-1E+10	1	-1E+10	1	-1E+10	1	-1E+10	1
4901784	133	C	02/24/2019	10:45	-133.051	43.118	0	130.20	0	8.2860	0	34.0430	8	26.482	0	129.125	0	233.0	4	81.2	4	-1E+10	1	-1E+10	1	-1E+10	1	-1E+10	1	-1E+10	1	-1E+10	1
4901784	133	C	02/24/2019	10:45	-133.051	43.118	0	132.60	0	8.1850	0	34.1050	8	26.546	0	131.504	0	231.0	4	80.3	4	-1E+10	1	-1E+10	1	-1E+10	1	-1E+10	1	-1E+10	1	-1E+10	1
4901784	133	C	02/24/2019	10:45	-133.051	43.118	0	135.10	0	8.1450	0	34.1530	8	26.589	0	133.983	0	229.0	4	79.6	4	-1E+10	1	-1E+10	1	-1E+10	1	-1E+10	1	-1E+10	1	-1E+10	1
4901784	133	C	02/24/2019	10:45	-133.051	43.118	0	137.60	0	8.0820	0	34.2220	8	26.653	0	136.461	0	226.9	4	78.8	4	-1E+10	1	-1E+10	1	-1E+10	1	-1E+10	1	-1E+10	1	-1E+10	1
4901784	133	C	02/24/2019	10:45	-133.051	43.118	0	140.20	0	8.0340	0	34.2670	8	26.695	0	139.039	0	225.4	4	78.2	4	-1E+10	1	-1E+10	1	-1E+10	1	-1E+10	1	-1E+10	1	-1E+10	1
4901784	133	C	02/24/2019	10:45	-133.051	43.118	0	141.90	0	7.9880	0	34.3020	8	26.730	0	140.724	0	224.1	4	77.7	4	-1E+10	1	-1E+10	1	-1E+10	1	-1E+10	1	-1E+10	1	-1E+10	1
4901784	133	C	02/24/2019	10:45	-133.051	43.118	0	144.90	0	7.9290	0	34.3650	8	26.788	0	143.698	0	222.3	4	77.0	4	-1E+10	1	-1E+10	1	-1E+10	1	-1E+10	1	-1E+10	1	-1E+10	1
4901784	133	C	02/24/2019	10:45	-133.051	43.118	0	147.70	0	7.9330	0	34.3930	8	26.810	0	146.474	0	220.1	4	76.2	4	-1E+10	1	-1E+10	1	-1E+10	1	-1E+10	1	-1E+10	1	-1E+10	1
4901784	133	C	02/24/2019	10:45	-133.051	43.118	0	150.00	0	7.9630	0	34.4300	8	26.834	0	148.754	0	217.5	4	75.4	4	-1E+10	1	-1E+10	1	-1E+10	1	-1E+10	1	-1E+10	1	-1E+10	1
4901784	133	C	02/24/2019	10:45	-133.051	43.118	0	152.30	0	8.0030	0	34.4690	8	26.859	0	151.034	0	215.2	4	74.7	4	-1E+10	1	-1E+10	1	-1E+10	1	-1E+10	1	-1E+10	1	-1E+10	1
4901784	133	C	02/24/2019	10:45	-133.051	43.118	0	154.70	0	8.0180	0	34.4820	8	26.867	0	153.413	0	212.8	4	73.9	4	-1E+10	1	-1E+10	1	-1E+10	1	-1E+10	1	-1E+10	1	-1E+10	1
4901784	133	C	02/24/2019	10:45	-133.051	43.118	0	157.20	0	8.0470	0	34.5110	8	26.885	0	155.892	0	210.0	4	73.0	4	-1E+10	1	-1E+10	1	-1E+10	1	-1E+10	1	-1E+10	1	-1E+10	1
4901784	133	C	02/24/2019	10:45	-133.051	43.118	0	159.60	0	8.0910	0	34.5700	8	26.925	0	158.271	0	207.5	4	72.2	4	-1E+10	1	-1E+10	1	-1E+10	1	-1E+10	1	-1E+10	1	-1E+10	1
4901784	133	C	02/24/2019	10:45	-133.051	43.118	0	162.80	0	8.1120	0	34.6160	8	26.958	0	161.443	0	204.7	4	71.3	4	-1E+10	1	-1E+10	1	-1E+10	1	-1E+10	1	-1E+10	1	-1E+10	1
4901784	133	C	02/24/2019	10:45	-133.051	43.118	0	165.30	0	8.1150	0	34.6460	8	26.981	0	163.921	0	202.6	4	70.6	4	-1E+10	1	-1E+10	1	-1E+10	1	-1E+10	1	-1E+10	1	-1E+10	1
4901784	133	C	02/24/2019	10:45	-133.051	43.118	0	167.00	0	8.1240	0	34.6710	8	27.000	0	165.606	0	200.7	4	70.0	4	-1E+10	1	-1E+10	1	-1E+10	1	-1E+10	1	-1E+10	1	-1E+10	1
4901784	133	C	02/24/2019	10:45	-133.051	43.118	0	169.60	0	8.1340	0	34.6890	8	27.012	0	168.183	0	197.3	4	68.8	4	-1E+10	1	-1E+10	1	-1E+10	1	-1E+10	1	-1E+10	1	-1E+10	1
4901784	133	C	02/24/2019	10:45	-133.051	43.118	0	172.20	0	8.2010	0	34.7480	8	27.049	0	170.761	0	192.9	4	67.4	4	-1E+10	1	-1E+10	1	-1E+10	1	-1E+10	1	-1E+10	1	-1E+10	1
4901784	133	C	02/24/2019	10:45	-133.051	43.118	0	175.00	0	8.2350	0	34.8050	8	27.088	0	173.536	0	189.1	4	66.2	4	-1E+10	1	-1E+10	1	-1E+10	1	-1E+10	1	-1E+10	1	-1E+10	1
4901784	133	C	02/24/2019	10:45	-133.051	43.118	0	177.60	0	8.2730	0	34.8540	8	27.121	0	176.113	0	184.8	4	64.7	4	-1E+10	1	-1E+10	1	-1E+10	1	-1E+10	1	-1E+10	1	-1E+10	1
4901784	133	C	02/24/2019	10:45	-133.051	43.118	0	179.90	0	8.2900	0	34.8830	8	27.141	0	178.393	0	182.3	4	63.9	4	-1E+10	1	-1E+10	1	-1E+10	1	-1E+10	1	-1E+10	1	-1E+10	1
4901784	133	C	02/24/2019	10:45	-133.051	43.118	0	182.20	0	8.3040	0	34.9080	8	27.159	0	180.673	0	179.6	4	63.0	4	-1E+10	1	-1E+10	1	-1E+10	1	-1E+10	1	-1E+10	1	-1E+10	1
4901784	133	C	02/24/2019	10:45	-133.051	43.118	0	184.60	0	8.3220	0	34.9490	8	27.188	0	183.051	0	177.0	4	62.1	4	-1E+10	1	-1E+10	1	-1E+10	1	-1E+10	1	-1E+10	1	-1E+10	1
4901784	133	C	02/24/2019	10:45	-133.051	43.118	0	187.80	0	8.3360	0	34.9950	8	27.222	0	186.223	0	173.9	4	61.1	4	-1E+10	1	-1E+10	1	-1E+10	1	-1E+10	1	-1E+10	1	-1E+10	1
4901784	133	C	02/24/2019	10:45	-133.051	43.118	0	190.40	0	8.3360	0	35.0170	8	27.239	0	188.800	0	171.3	4	60.2	4	-1E+10	1	-1E+10	1	-1E+10	1	-1E+10	1	-1E+10	1	-1E+10	1
4901784	133	C	02/24/2019	10:45	-133.051	43.118	0	192.70	0	8.3280	0	35.0310	8	27.252	0	191.080	0	169.3	4	59.4	4	-1E+10	1	-1E+10	1	-1E+10	1	-1E+10	1	-1E+10	1	-1E+10	1
4901784	133	C	02/24/2019	10:45	-133.051	43.118	0	195.10	0	8.3110	0	35.0560	8	27.274	0	193.458	0	167.1	4	58.7	4	-1E+10	1	-1E+10	1	-1E+10	1	-1E+10	1	-1E+10	1	-1E+10	1
4901784	133	C	02/24/2019	10:45	-133.051	43.118	0	197.60	0	8.2860	0	35.0800	8	27.297	0	195.936	0	165.2	4	58.0	4	-1E+10	1	-1E+10	1	-1E+10	1	-1E+10	1	-1E+10	1	-1E+10	1
4901784	133	C	02/24/2019	10:45	-133.051	43.118	0	200.10	0	8.2260	0	35.0960	8	27.318	0	198.414	0	163.5	4	57.3	4	-1E+10	1	-1E+10	1	-1E+10	1	-1E+10	1	-1E+10	1	-1E+10	1
4901784	133	C	02/24/2019	10:45	-133.051	43.118	0	202.60	0	8.1930	0	35.1050	8	27.331	0	200.892	0	162.6	4	57.0	4	-1E+10	1	-1E+10	1	-1E+10	1	-1E+10	1	-1E+10	1	-1E+10	1
4901784	133	C	02/24/2019	10:45	-133.051	43.118	0	205.10	0	8.1780	0	35.1060	8	27.334	0	203.369	0	161.9	4	56.7	4	-1E+10	1	-1E+10	1	-1E+10	1	-1E+10	1	-1E+10	1	-1E+10	1
4901784	133	C	02/24/2019	10:45	-133.051	43.118	0	207.60	0	8.1470	0	35.1110	8	27.342	0	205.847	0	160.9	4	56.3	4	-1E+10	1	-1E+10	1	-1E+10	1	-1E+10	1	-1E+10	1	-1E+10	1
4901784	133	C	02/24/2019	10:45	-133.051	43.118	0	210.10	0	8.1140	0	35.1150	8	27.351	0	208.325	0	160.3	4	56.1	4	-1E+10	1	-1E+10	1	-1E+10	1	-1E+10	1	-1E+10	1	-1E+10	1
4901784	133	C	02/24/2019	10:45	-133.051	43.118	0	212.70	0	8.1020	0	35.1150	8	27.352	0	210.901	0	159.3	4	55.7	4	-1E+10	1	-1E+10	1	-1E+10	1	-1E+10	1	-1E+10	1	-1E+10	1
4901784	133	C	02/24/2019	10:45	-133.051	43.118	0	215.30	0	8.0450	0	35.1210	8	27.366	0	213.478	0	158.6	4	55.4	4	-1E+10	1	-1E+10	1	-1E+10	1	-1E+10	1	-1E+10	1	-1E+10	1
4901784	133	C	02/24/2019	10:45	-133.051	43.118	0	217.10	0	8.0170	0	35.1240	8	27.372	0	215.262	0	158.2	4	55.2	4	-1E+10	1	-1E+10	1	-1E+10	1	-1E+10	1	-1E+10	1	-1E+10	1
4901784	133	C	02/24/2019	10:45	-133.051	43.118	0	219.70	0	7.9990	0	35.1240	8	27.375	0	217.839	0	157.6	4	55.0	4	-1E+10	1	-1E+10	1	-1E+10	1	-1E+10	1	-1E+10	1	-1E+10	1
4901784	133	C	02/24/2019	10:45	-133.051	43.118	0	222.20	0	7.9620	0	35.1270	8	27.383	0	220.316	0	157.3	4	54.8	4	-1E+10	1	-1E+10	1	-1E+10	1	-1E+10	1	-1E+10	1	-1E+10	1
4901784	133	C	02/24/2019	10:45	-133.051	43.118	0	224.80	0	7.9560	0	35.1270	8	27.384	0	222.893	0	156.9	4	54.7	4	-1E+10	1	-1E+10	1	-1E+10	1	-1E+10	1	-1E+10	1	-1E+10	1
4901784	133	C	02/24/2019	10:45	-133.051	43.118	0	227.40	0	7.9520	0	35.1260	8	27.384	0	225.469	0	156.4	4	54.5	4	-1E+10	1	-1E+10	1	-1E+10	1	-1E+10	1	-1E+10	1	-1E+10	1
4901784	133	C	02/24/2019	10:45	-133.051	43.118	0	230.00	0	7.9230	0	35.1290	8	27.391	0	228.046	0	155.4	4	54.1	4	-1E+10	1	-1E+10	1	-1E+10	1	-1E+10	1	-1E+10	1	-1E+10	1
4901784	133	C	02/24/2019	10:45	-133.051	43.118	0	232.60	0	7.8730	0	35.1300	8	27.399	0	230.622	0	155.0	4	53.9	4	-1E+10	1	-1E+10	1	-1E+10	1	-1E+10	1	-1E+10	1	-1E+10	1
4901784	133	C	02/24/2019	10:45	-133.051	43.118	0	235.20	0	7.8570	0	35.1310	8	27.402	0	233.198	0	154.4	4	53.7	4	-1E+10	1	-1E+10	1	-1E+10	1	-1E+10	1	-1E+10	1	-1E+10	1
4901784	133	C	02/24/2019	10:45	-133.051	43.118	0	237.80	0	7.8470	0	35.1310	8	27.404	0	235.775	0	153.8	4	53.5	4	-1E+10	1	-1E+10	1	-1E+10	1	-1E+10	1	-1E+10	1	-1E+10	1
4901784	133	C	02/24/2019	10:45	-133.051	43.118	0	239.50	0	7.8320	0	35.1310	8	27.406	0	237.459	0	153.1	4	53.2	4	-1E+10	1	-1E+10	1	-1E+10	1	-1E+10	1	-1E+10	1	-1E+10	1
4901784	133	C	02/24/2019	10:45	-133.051	43.118	0	242.10	0	7.8080	0	35.1310	8	27.409	0	240.036	0	152.0	4	52.8	4	-1E+10	1	-1E+10	1	-1E+10	1	-1E+10	1	-1E+10	1	-1E+10	1
4901784	133	C	02/24/2019	10:45	-133.051	43.118	0	244.80	0	7.7680	0	35.1300	8	27.415	0	242.711	0	150.8	4	52.3	4	-1E+10	1	-1E+10	1	-1E+10	1	-1E+10	1	-1E+10	1	-1E+10	1
4901784	133	C	02/24/2019	10:45	-133.051	43.118	0	247.40	0	7.7120	0	35.1310	8	27.424	0	245.287	0	149.6	4	51.8	4	-1E+10	1	-1E+10	1	-1E+10	1	-1E+10	1	-1E+10	1	-1E+10	1
4901784	133	C	02/24/2019	10:45	-133.051	43.118	0	250.00	0	7.6660	0	35.1330	8	27.432	0	247.864	0	148.1	4	51.3	4	-1E+10	1	-1E+10	1	-1E+10	1	-1E+10	1	-1E+10	1	-1E+10	1
4901784	133	C	02/24/2019	10:45	-133.051	43.118	0	252.80	0	7.6110	0	35.1310	8	27.439	0	250.638	0	146.6	4	50.7	4	-1E+10	1	-1E+10	1	-1E+10	1	-1E+10	1	-1E+10	1	-1E+10	1
4901784	133	C	02/24/2019	10:45	-133.051	43.118	0	255.50	0	7.5610	0	35.1310	8	27.446	0	253.313	0	145.5	4	50.3	4	-1E+10	1	-1E+10	1	-1E+10	1	-1E+10	1	-1E+10	1	-1E+10	1
4901784	133	C	02/24/2019	10:45	-133.051	43.118	0	257.30	0	7.5220	0	35.1320	8	27.452	0	255.097	0	144.5	4	49.9	4	-1E+10	1	-1E+10	1	-1E+10	1	-1E+10	1	-1E+10	1	-1E+10	1
4901784	133	C	02/24/2019	10:45	-133.051	43.118	0	259.90	0	7.4460	0	35.1320	8	27.463	0	257.673	0	143.0	4	49.3	4	-1E+10	1	-1E+10	1	-1E+10	1	-1E+10	1	-1E+10	1	-1E+10	1
4901784	133	C	02/24/2019	10:45	-133.051	43.118	0	262.60	0	7.3680	0	35.1360	8	27.478	0	260.348	0	142.0	4	48.9	4	-1E+10	1	-1E+10	1	-1E+10	1	-1E+10	1	-1E+10	1	-1E+10	1
4901784	133	C	02/24/2019	10:45	-133.051	43.118	0	265.30	0	7.3520	0	35.1340	8	27.478	0	263.023	0	141.3	4	48.6	4	-1E+10	1	-1E+10	1	-1E+10	1	-1E+10	1	-1E+10	1	-1E+10	1
4901784	133	C	02/24/2019	10:45	-133.051	43.118	0	268.00	0	7.3460	0	35.1330	8	27.479	0	265.698	0	140.2	4	48.2	4	-1E+10	1	-1E+10	1	-1E+10	1	-1E+10	1	-1E+10	1	-1E+10	1
4901784	133	C	02/24/2019	10:45	-133.051	43.118	0	269.80	0	7.3090	0	35.1330	8	27.484	0	267.482	0	139.2	4	47.8	4	-1E+10	1	-1E+10	1	-1E+10	1	-1E+10	1	-1E+10	1	-1E+10	1
4901784	133	C	02/24/2019	10:45	-133.051	43.118	0	272.50	0	7.2390	0	35.1360	8	27.496	0	270.157	0	138.2	4	47.4	4	-1E+10	1	-1E+10	1	-1E+10	1	-1E+10	1	-1E+10	1	-1E+10	1
4901784	133	C	02/24/2019	10:45	-133.051	43.118	0	275.20	0	7.2210	0	35.1360	8	27.499	0	272.832	0	137.4	4	47.1	4	-1E+10	1	-1E+10	1	-1E+10	1	-1E+10	1	-1E+10	1	-1E+10	1
4901784	133	C	02/24/2019	10:45	-133.051	43.118	0	277.00	0	7.2160	0	35.1340	8	27.498	0	274.615	0	136.6	4	46.8	4	-1E+10	1	-1E+10	1	-1E+10	1	-1E+10	1	-1E+10	1	-1E+10	1
4901784	133	C	02/24/2019	10:45	-133.051	43.118	0	279.80	0	7.1740	0	35.1340	8	27.504	0	277.389	0	135.3	4	46.3	4	-1E+10	1	-1E+10	1	-1E+10	1	-1E+10	1	-1E+10	1	-1E+10	1
4901784	133	C	02/24/2019	10:45	-133.051	43.118	0	282.40	0	7.1140	0	35.1350	8	27.513	0	279.965	0	134.0	4	45.8	4	-1E+10	1	-1E+10	1	-1E+10	1	-1E+10	1	-1E+10	1	-1E+10	1
4901784	133	C	02/24/2019	10:45	-133.051	43.118	0	285.10	0	7.0830	0	35.1340	8	27.517	0	282.640	0	133.3	4	45.5	4	-1E+10	1	-1E+10	1	-1E+10	1	-1E+10	1	-1E+10	1	-1E+10	1
4901784	133	C	02/24/2019	10:45	-133.051	43.118	0	287.90	0	7.0420	0	35.1330	8	27.522	0	285.414	0	132.3	4	45.2	4	-1E+10	1	-1E+10	1	-1E+10	1	-1E+10	1	-1E+10	1	-1E+10	1
4901784	133	C	02/24/2019	10:45	-133.051	43.118	0	289.70	0	7.0080	0	35.1350	8	27.528	0	287.197	0	131.5	4	44.9	4	-1E+10	1	-1E+10	1	-1E+10	1	-1E+10	1	-1E+10	1	-1E+10	1
4901784	133	C	02/24/2019	10:45	-133.051	43.118	0	292.50	0	6.9260	0	35.1360	8	27.540	0	289.971	0	130.3	4	44.4	4	-1E+10	1	-1E+10	1	-1E+10	1	-1E+10	1	-1E+10	1	-1E+10	1
4901784	133	C	02/24/2019	10:45	-133.051	43.118	0	295.30	0	6.8830	0	35.1350	8	27.546	0	292.745	0	130.0	4	44.2	4	-1E+10	1	-1E+10	1	-1E+10	1	-1E+10	1	-1E+10	1	-1E+10	1
4901784	133	C	02/24/2019	10:45	-133.051	43.118	0	297.20	0	6.8770	0	35.1370	8	27.548	0	294.627	0	129.7	4	44.1	4	-1E+10	1	-1E+10	1	-1E+10	1	-1E+10	1	-1E+10	1	-1E+10	1
4901784	133	C	02/24/2019	10:45	-133.051	43.118	0	300.00	0	6.8310	0	35.1370	8	27.554	0	297.400	0	128.8	4	43.8	4	-1E+10	1	-1E+10	1	-1E+10	1	-1E+10	1	-1E+10	1	-1E+10	1
4901784	133	C	02/24/2019	10:45	-133.051	43.118	0	302.70	0	6.8040	0	35.1370	8	27.558	0	300.075	0	128.1	4	43.5	4	-1E+10	1	-1E+10	1	-1E+10	1	-1E+10	1	-1E+10	1	-1E+10	1
4901784	133	C	02/24/2019	10:45	-133.051	43.118	0	304.50	0	6.7910	0	35.1370	8	27.560	0	301.858	0	127.6	4	43.3	4	-1E+10	1	-1E+10	1	-1E+10	1	-1E+10	1	-1E+10	1	-1E+10	1
4901784	133	C	02/24/2019	10:45	-133.051	43.118	0	307.20	0	6.7680	0	35.1370	8	27.563	0	304.533	0	127.1	4	43.1	4	-1E+10	1	-1E+10	1	-1E+10	1	-1E+10	1	-1E+10	1	-1E+10	1
4901784	133	C	02/24/2019	10:45	-133.051	43.118	0	310.00	0	6.7490	0	35.1370	8	27.566	0	307.306	0	126.6	4	42.9	4	-1E+10	1	-1E+10	1	-1E+10	1	-1E+10	1	-1E+10	1	-1E+10	1
4901784	133	C	02/24/2019	10:45	-133.051	43.118	0	312.70	0	6.7280	0	35.1360	8	27.568	0	309.981	0	125.8	4	42.6	4	-1E+10	1	-1E+10	1	-1E+10	1	-1E+10	1	-1E+10	1	-1E+10	1
4901784	133	C	02/24/2019	10:45	-133.051	43.118	0	315.30	0	6.6780	0	35.1350	8	27.574	0	312.556	0	124.7	4	42.2	4	-1E+10	1	-1E+10	1	-1E+10	1	-1E+10	1	-1E+10	1	-1E+10	1
4901784	133	C	02/24/2019	10:45	-133.051	43.118	0	317.10	0	6.6530	0	35.1350	8	27.577	0	314.339	0	124.1	4	42.0	4	-1E+10	1	-1E+10	1	-1E+10	1	-1E+10	1	-1E+10	1	-1E+10	1
4901784	133	C	02/24/2019	10:45	-133.051	43.118	0	319.80	0	6.5980	0	35.1370	8	27.586	0	317.014	0	123.2	4	41.7	4	-1E+10	1	-1E+10	1	-1E+10	1	-1E+10	1	-1E+10	1	-1E+10	1
4901784	133	C	02/24/2019	10:45	-133.051	43.118	0	322.40	0	6.5670	0	35.1360	8	27.590	0	319.589	0	122.2	4	41.3	4	-1E+10	1	-1E+10	1	-1E+10	1	-1E+10	1	-1E+10	1	-1E+10	1
4901784	133	C	02/24/2019	10:45	-133.051	43.118	0	325.10	0	6.5330	0	35.1340	8	27.593	0	322.263	0	121.0	4	40.8	4	-1E+10	1	-1E+10	1	-1E+10	1	-1E+10	1	-1E+10	1	-1E+10	1
4901784	133	C	02/24/2019	10:45	-133.051	43.118	0	327.80	0	6.4930	0	35.1350	8	27.599	0	324.938	0	119.6	4	40.3	4	-1E+10	1	-1E+10	1	-1E+10	1	-1E+10	1	-1E+10	1	-1E+10	1
4901784	133	C	02/24/2019	10:45	-133.051	43.118	0	329.60	0	6.4390	0	35.1370	8	27.608	0	326.721	0	118.9	4	40.0	4	-1E+10	1	-1E+10	1	-1E+10	1	-1E+10	1	-1E+10	1	-1E+10	1
4901784	133	C	02/24/2019	10:45	-133.051	43.118	0	332.30	0	6.4060	0	35.1360	8	27.611	0	329.395	0	117.8	4	39.6	4	-1E+10	1	-1E+10	1	-1E+10	1	-1E+10	1	-1E+10	1	-1E+10	1
4901784	133	C	02/24/2019	10:45	-133.051	43.118	0	335.00	0	6.3750	0	35.1360	8	27.615	0	332.069	0	116.8	4	39.3	4	-1E+10	1	-1E+10	1	-1E+10	1	-1E+10	1	-1E+10	1	-1E+10	1
4901784	133	C	02/24/2019	10:45	-133.051	43.118	0	337.70	0	6.3430	0	35.1350	8	27.619	0	334.743	0	115.4	4	38.8	4	-1E+10	1	-1E+10	1	-1E+10	1	-1E+10	1	-1E+10	1	-1E+10	1
4901784	133	C	02/24/2019	10:45	-133.051	43.118	0	340.30	0	6.3040	0	35.1350	8	27.624	0	337.318	0	114.0	4	38.3	4	-1E+10	1	-1E+10	1	-1E+10	1	-1E+10	1	-1E+10	1	-1E+10	1
4901784	133	C	02/24/2019	10:45	-133.051	43.118	0	342.10	0	6.2690	0	35.1350	8	27.629	0	339.101	0	113.0	4	37.9	4	-1E+10	1	-1E+10	1	-1E+10	1	-1E+10	1	-1E+10	1	-1E+10	1
4901784	133	C	02/24/2019	10:45	-133.051	43.118	0	344.70	0	6.2210	0	35.1360	8	27.636	0	341.676	0	111.6	4	37.4	4	-1E+10	1	-1E+10	1	-1E+10	1	-1E+10	1	-1E+10	1	-1E+10	1
4901784	133	C	02/24/2019	10:45	-133.051	43.118	0	347.40	0	6.2050	0	35.1340	8	27.636	0	344.350	0	109.7	4	36.7	4	-1E+10	1	-1E+10	1	-1E+10	1	-1E+10	1	-1E+10	1	-1E+10	1
4901784	133	C	02/24/2019	10:45	-133.051	43.118	0	350.00	0	6.1510	0	35.1350	8	27.644	0	346.925	0	107.5	4	35.9	4	-1E+10	1	-1E+10	1	-1E+10	1	-1E+10	1	-1E+10	1	-1E+10	1
4901784	133	C	02/24/2019	10:45	-133.051	43.118	0	352.60	0	6.0970	0	35.1350	8	27.651	0	349.500	0	105.9	4	35.4	4	-1E+10	1	-1E+10	1	-1E+10	1	-1E+10	1	-1E+10	1	-1E+10	1
4901784	133	C	02/24/2019	10:45	-133.051	43.118	0	355.30	0	6.0440	0	35.1360	8	27.659	0	352.174	0	104.7	4	34.9	4	-1E+10	1	-1E+10	1	-1E+10	1	-1E+10	1	-1E+10	1	-1E+10	1
4901784	133	C	02/24/2019	10:45	-133.051	43.118	0	357.90	0	6.0110	0	35.1350	8	27.662	0	354.749	0	103.0	4	34.3	4	-1E+10	1	-1E+10	1	-1E+10	1	-1E+10	1	-1E+10	1	-1E+10	1
4901784	133	C	02/24/2019	10:45	-133.051	43.118	0	359.70	0	5.9810	0	35.1400	8	27.670	0	356.532	0	101.7	4	33.9	4	-1E+10	1	-1E+10	1	-1E+10	1	-1E+10	1	-1E+10	1	-1E+10	1
4901784	133	C	02/24/2019	10:45	-133.051	43.118	0	362.30	0	5.9230	0	35.1390	8	27.677	0	359.107	0	100.6	4	33.5	4	-1E+10	1	-1E+10	1	-1E+10	1	-1E+10	1	-1E+10	1	-1E+10	1
4901784	133	C	02/24/2019	10:45	-133.051	43.118	0	364.90	0	5.8750	0	35.1400	8	27.684	0	361.682	0	99.9	4	33.2	4	-1E+10	1	-1E+10	1	-1E+10	1	-1E+10	1	-1E+10	1	-1E+10	1
4901784	133	C	02/24/2019	10:45	-133.051	43.118	0	367.60	0	5.8680	0	35.1400	8	27.685	0	364.355	0	99.4	4	33.0	4	-1E+10	1	-1E+10	1	-1E+10	1	-1E+10	1	-1E+10	1	-1E+10	1
4901784	133	C	02/24/2019	10:45	-133.051	43.118	0	370.20	0	5.8410	0	35.1400	8	27.688	0	366.930	0	98.8	4	32.8	4	-1E+10	1	-1E+10	1	-1E+10	1	-1E+10	1	-1E+10	1	-1E+10	1
4901784	133	C	02/24/2019	10:45	-133.051	43.118	0	372.80	0	5.8110	0	35.1400	8	27.692	0	369.505	0	98.3	4	32.6	4	-1E+10	1	-1E+10	1	-1E+10	1	-1E+10	1	-1E+10	1	-1E+10	1
4901784	133	C	02/24/2019	10:45	-133.051	43.118	0	375.50	0	5.7830	0	35.1390	8	27.695	0	372.179	0	97.8	4	32.4	4	-1E+10	1	-1E+10	1	-1E+10	1	-1E+10	1	-1E+10	1	-1E+10	1
4901784	133	C	02/24/2019	10:45	-133.051	43.118	0	377.20	0	5.7310	0	35.1430	8	27.704	0	373.862	0	97.5	4	32.3	4	-1E+10	1	-1E+10	1	-1E+10	1	-1E+10	1	-1E+10	1	-1E+10	1
4901784	133	C	02/24/2019	10:45	-133.051	43.118	0	379.80	0	5.7110	0	35.1430	8	27.707	0	376.437	0	97.0	4	32.1	4	-1E+10	1	-1E+10	1	-1E+10	1	-1E+10	1	-1E+10	1	-1E+10	1
4901784	133	C	02/24/2019	10:45	-133.051	43.118	0	382.50	0	5.6660	0	35.1460	8	27.715	0	379.110	0	96.6	4	31.9	4	-1E+10	1	-1E+10	1	-1E+10	1	-1E+10	1	-1E+10	1	-1E+10	1
4901784	133	C	02/24/2019	10:45	-133.051	43.118	0	385.00	0	5.6420	0	35.1450	8	27.717	0	381.586	0	96.1	4	31.8	4	-1E+10	1	-1E+10	1	-1E+10	1	-1E+10	1	-1E+10	1	-1E+10	1
4901784	133	C	02/24/2019	10:45	-133.051	43.118	0	387.60	0	5.6180	0	35.1460	8	27.721	0	384.160	0	95.0	4	31.4	4	-1E+10	1	-1E+10	1	-1E+10	1	-1E+10	1	-1E+10	1	-1E+10	1
4901784	133	C	02/24/2019	10:45	-133.051	43.118	0	390.30	0	5.5870	0	35.1470	8	27.725	0	386.834	0	93.2	4	30.8	4	-1E+10	1	-1E+10	1	-1E+10	1	-1E+10	1	-1E+10	1	-1E+10	1
4901784	133	C	02/24/2019	10:45	-133.051	43.118	0	392.90	0	5.5690	0	35.1450	8	27.726	0	389.408	0	90.7	4	29.9	4	-1E+10	1	-1E+10	1	-1E+10	1	-1E+10	1	-1E+10	1	-1E+10	1
4901784	133	C	02/24/2019	10:45	-133.051	43.118	0	394.70	0	5.5190	0	35.1510	8	27.737	0	391.191	0	88.2	4	29.1	4	-1E+10	1	-1E+10	1	-1E+10	1	-1E+10	1	-1E+10	1	-1E+10	1
4901784	133	C	02/24/2019	10:45	-133.051	43.118	0	397.50	0	5.4950	0	35.1510	8	27.740	0	393.963	0	85.6	4	28.2	4	-1E+10	1	-1E+10	1	-1E+10	1	-1E+10	1	-1E+10	1	-1E+10	1
4901784	133	C	02/24/2019	10:45	-133.051	43.118	0	400.20	0	5.4450	0	35.1540	8	27.748	0	396.636	0	84.0	4	27.6	4	-1E+10	1	-1E+10	1	-1E+10	1	-1E+10	1	-1E+10	1	-1E+10	1
4901784	133	C	02/24/2019	10:45	-133.051	43.118	0	402.00	0	5.4160	0	35.1520	8	27.750	0	398.419	0	83.0	4	27.3	4	-1E+10	1	-1E+10	1	-1E+10	1	-1E+10	1	-1E+10	1	-1E+10	1
4901784	133	C	02/24/2019	10:45	-133.051	43.118	0	404.80	0	5.3450	0	35.1600	8	27.765	0	401.191	0	81.8	4	26.9	4	-1E+10	1	-1E+10	1	-1E+10	1	-1E+10	1	-1E+10	1	-1E+10	1
4901784	133	C	02/24/2019	10:45	-133.051	43.118	0	407.10	0	5.3160	0	35.1610	8	27.770	0	403.468	0	81.1	4	26.6	4	-1E+10	1	-1E+10	1	-1E+10	1	-1E+10	1	-1E+10	1	-1E+10	1
4901784	133	C	02/24/2019	10:45	-133.051	43.118	0	410.20	0	5.2740	0	35.1650	8	27.778	0	406.538	0	80.5	4	26.4	4	-1E+10	1	-1E+10	1	-1E+10	1	-1E+10	1	-1E+10	1	-1E+10	1
4901784	133	C	02/24/2019	10:45	-133.051	43.118	0	412.50	0	5.2630	0	35.1650	8	27.779	0	408.815	0	80.0	4	26.2	4	-1E+10	1	-1E+10	1	-1E+10	1	-1E+10	1	-1E+10	1	-1E+10	1
4901784	133	C	02/24/2019	10:45	-133.051	43.118	0	414.70	0	5.2540	0	35.1650	8	27.780	0	410.993	0	79.2	4	26.0	4	-1E+10	1	-1E+10	1	-1E+10	1	-1E+10	1	-1E+10	1	-1E+10	1
4901784	133	C	02/24/2019	10:45	-133.051	43.118	0	417.90	0	5.2220	0	35.1670	8	27.786	0	414.161	0	77.9	4	25.5	4	-1E+10	1	-1E+10	1	-1E+10	1	-1E+10	1	-1E+10	1	-1E+10	1
4901784	133	C	02/24/2019	10:45	-133.051	43.118	0	420.20	0	5.1860	0	35.1720	8	27.794	0	416.438	0	76.9	4	25.2	4	-1E+10	1	-1E+10	1	-1E+10	1	-1E+10	1	-1E+10	1	-1E+10	1
4901784	133	C	02/24/2019	10:45	-133.051	43.118	0	422.70	0	5.1680	0	35.1730	8	27.797	0	418.913	0	75.9	4	24.8	4	-1E+10	1	-1E+10	1	-1E+10	1	-1E+10	1	-1E+10	1	-1E+10	1
4901784	133	C	02/24/2019	10:45	-133.051	43.118	0	425.10	0	5.1550	0	35.1750	8	27.800	0	421.289	0	74.8	4	24.5	4	-1E+10	1	-1E+10	1	-1E+10	1	-1E+10	1	-1E+10	1	-1E+10	1
4901784	133	C	02/24/2019	10:45	-133.051	43.118	0	427.50	0	5.1450	0	35.1760	8	27.802	0	423.665	0	73.9	4	24.2	4	-1E+10	1	-1E+10	1	-1E+10	1	-1E+10	1	-1E+10	1	-1E+10	1
4901784	133	C	02/24/2019	10:45	-133.051	43.118	0	429.90	0	5.1290	0	35.1780	8	27.806	0	426.041	0	72.9	4	23.8	4	-1E+10	1	-1E+10	1	-1E+10	1	-1E+10	1	-1E+10	1	-1E+10	1
4901784	133	C	02/24/2019	10:45	-133.051	43.118	0	432.30	0	5.1140	0	35.1800	8	27.809	0	428.417	0	72.1	4	23.5	4	-1E+10	1	-1E+10	1	-1E+10	1	-1E+10	1	-1E+10	1	-1E+10	1
4901784	133	C	02/24/2019	10:45	-133.051	43.118	0	434.80	0	5.0890	0	35.1830	8	27.814	0	430.892	0	71.5	4	23.3	4	-1E+10	1	-1E+10	1	-1E+10	1	-1E+10	1	-1E+10	1	-1E+10	1
4901784	133	C	02/24/2019	10:45	-133.051	43.118	0	437.40	0	5.0720	0	35.1830	8	27.816	0	433.466	0	71.4	4	23.3	4	-1E+10	1	-1E+10	1	-1E+10	1	-1E+10	1	-1E+10	1	-1E+10	1
4901784	133	C	02/24/2019	10:45	-133.051	43.118	0	439.90	0	5.0200	0	35.1870	8	27.826	0	435.941	0	70.7	4	23.0	4	-1E+10	1	-1E+10	1	-1E+10	1	-1E+10	1	-1E+10	1	-1E+10	1
4901784	133	C	02/24/2019	10:45	-133.051	43.118	0	442.50	0	4.9690	0	35.1910	8	27.835	0	438.515	0	69.7	4	22.7	4	-1E+10	1	-1E+10	1	-1E+10	1	-1E+10	1	-1E+10	1	-1E+10	1
4901784	133	C	02/24/2019	10:45	-133.051	43.118	0	445.10	0	4.9540	0	35.1960	8	27.840	0	441.089	0	67.9	4	22.1	4	-1E+10	1	-1E+10	1	-1E+10	1	-1E+10	1	-1E+10	1	-1E+10	1
4901784	133	C	02/24/2019	10:45	-133.051	43.118	0	447.60	0	4.9520	0	35.1990	8	27.843	0	443.564	0	66.6	4	21.7	4	-1E+10	1	-1E+10	1	-1E+10	1	-1E+10	1	-1E+10	1	-1E+10	1
4901784	133	C	02/24/2019	10:45	-133.051	43.118	0	450.30	0	4.9410	0	35.2020	8	27.847	0	446.236	0	65.4	4	21.3	4	-1E+10	1	-1E+10	1	-1E+10	1	-1E+10	1	-1E+10	1	-1E+10	1
4901784	133	C	02/24/2019	10:45	-133.051	43.118	0	452.80	0	4.9180	0	35.2060	8	27.853	0	448.711	0	64.3	4	20.9	4	-1E+10	1	-1E+10	1	-1E+10	1	-1E+10	1	-1E+10	1	-1E+10	1
4901784	133	C	02/24/2019	10:45	-133.051	43.118	0	455.40	0	4.8970	0	35.2110	8	27.859	0	451.285	0	63.4	4	20.6	4	-1E+10	1	-1E+10	1	-1E+10	1	-1E+10	1	-1E+10	1	-1E+10	1
4901784	133	C	02/24/2019	10:45	-133.051	43.118	0	457.20	0	4.8940	0	35.2120	8	27.860	0	453.067	0	62.8	4	20.4	4	-1E+10	1	-1E+10	1	-1E+10	1	-1E+10	1	-1E+10	1	-1E+10	1
4901784	133	C	02/24/2019	10:45	-133.051	43.118	0	459.80	0	4.8890	0	35.2130	8	27.862	0	455.640	0	61.7	4	20.1	4	-1E+10	1	-1E+10	1	-1E+10	1	-1E+10	1	-1E+10	1	-1E+10	1
4901784	133	C	02/24/2019	10:45	-133.051	43.118	0	462.40	0	4.8760	0	35.2180	8	27.867	0	458.214	0	60.3	4	19.6	4	-1E+10	1	-1E+10	1	-1E+10	1	-1E+10	1	-1E+10	1	-1E+10	1
4901784	133	C	02/24/2019	10:45	-133.051	43.118	0	465.00	0	4.8660	0	35.2230	8	27.872	0	460.787	0	59.3	4	19.3	4	-1E+10	1	-1E+10	1	-1E+10	1	-1E+10	1	-1E+10	1	-1E+10	1
4901784	133	C	02/24/2019	10:45	-133.051	43.118	0	467.70	0	4.8490	0	35.2280	8	27.878	0	463.460	0	58.4	4	19.0	4	-1E+10	1	-1E+10	1	-1E+10	1	-1E+10	1	-1E+10	1	-1E+10	1
4901784	133	C	02/24/2019	10:45	-133.051	43.118	0	470.30	0	4.8450	0	35.2280	8	27.879	0	466.034	0	57.6	4	18.7	4	-1E+10	1	-1E+10	1	-1E+10	1	-1E+10	1	-1E+10	1	-1E+10	1
4901784	133	C	02/24/2019	10:45	-133.051	43.118	0	472.90	0	4.8400	0	35.2300	8	27.881	0	468.607	0	56.7	4	18.4	4	-1E+10	1	-1E+10	1	-1E+10	1	-1E+10	1	-1E+10	1	-1E+10	1
4901784	133	C	02/24/2019	10:45	-133.051	43.118	0	474.70	0	4.8370	0	35.2310	8	27.882	0	470.389	0	55.9	4	18.2	4	-1E+10	1	-1E+10	1	-1E+10	1	-1E+10	1	-1E+10	1	-1E+10	1
4901784	133	C	02/24/2019	10:45	-133.051	43.118	0	477.40	0	4.8210	0	35.2360	8	27.888	0	473.061	0	54.5	4	17.7	4	-1E+10	1	-1E+10	1	-1E+10	1	-1E+10	1	-1E+10	1	-1E+10	1
4901784	133	C	02/24/2019	10:45	-133.051	43.118	0	480.10	0	4.8110	0	35.2390	8	27.891	0	475.733	0	53.2	4	17.3	4	-1E+10	1	-1E+10	1	-1E+10	1	-1E+10	1	-1E+10	1	-1E+10	1
4901784	133	C	02/24/2019	10:45	-133.051	43.118	0	481.90	0	4.8000	0	35.2410	8	27.894	0	477.515	0	52.1	4	16.9	4	-1E+10	1	-1E+10	1	-1E+10	1	-1E+10	1	-1E+10	1	-1E+10	1
4901784	133	C	02/24/2019	10:45	-133.051	43.118	0	484.70	0	4.7820	0	35.2480	8	27.902	0	480.286	0	50.8	4	16.5	4	-1E+10	1	-1E+10	1	-1E+10	1	-1E+10	1	-1E+10	1	-1E+10	1
4901784	133	C	02/24/2019	10:45	-133.051	43.118	0	487.50	0	4.7670	0	35.2520	8	27.907	0	483.058	0	49.7	4	16.1	4	-1E+10	1	-1E+10	1	-1E+10	1	-1E+10	1	-1E+10	1	-1E+10	1
4901784	133	C	02/24/2019	10:45	-133.051	43.118	0	490.20	0	4.7480	0	35.2570	8	27.913	0	485.730	0	48.9	4	15.8	4	-1E+10	1	-1E+10	1	-1E+10	1	-1E+10	1	-1E+10	1	-1E+10	1
4901784	133	C	02/24/2019	10:45	-133.051	43.118	0	493.00	0	4.7300	0	35.2600	8	27.917	0	488.501	0	48.2	4	15.6	4	-1E+10	1	-1E+10	1	-1E+10	1	-1E+10	1	-1E+10	1	-1E+10	1
4901784	133	C	02/24/2019	10:45	-133.051	43.118	0	494.90	0	4.7270	0	35.2610	8	27.919	0	490.381	0	47.8	4	15.5	4	-1E+10	1	-1E+10	1	-1E+10	1	-1E+10	1	-1E+10	1	-1E+10	1
4901784	133	C	02/24/2019	10:45	-133.051	43.118	0	496.60	0	4.7250	0	35.2620	8	27.920	0	492.064	0	47.2	4	15.3	4	-1E+10	1	-1E+10	1	-1E+10	1	-1E+10	1	-1E+10	1	-1E+10	1
4901784	133	C	02/24/2019	10:45	-133.051	43.118	0	499.70	0	4.7100	0	35.2650	8	27.924	0	495.132	0	46.5	4	15.0	4	-1E+10	1	-1E+10	1	-1E+10	1	-1E+10	1	-1E+10	1	-1E+10	1
4901784	133	C	02/24/2019	10:45	-133.051	43.118	0	505.60	0	4.6700	0	35.2730	8	27.935	0	500.971	0	44.9	4	14.5	4	-1E+10	1	-1E+10	1	-1E+10	1	-1E+10	1	-1E+10	1	-1E+10	1
4901784	133	C	02/24/2019	10:45	-133.051	43.118	0	510.30	0	4.6470	0	35.2790	8	27.942	0	505.622	0	42.9	4	13.9	4	-1E+10	1	-1E+10	1	-1E+10	1	-1E+10	1	-1E+10	1	-1E+10	1
4901784	133	C	02/24/2019	10:45	-133.051	43.118	0	515.10	0	4.6330	0	35.2860	8	27.949	0	510.372	0	40.8	4	13.2	4	-1E+10	1	-1E+10	1	-1E+10	1	-1E+10	1	-1E+10	1	-1E+10	1
4901784	133	C	02/24/2019	10:45	-133.051	43.118	0	519.90	0	4.6210	0	35.2950	8	27.958	0	515.122	0	38.7	4	12.5	4	-1E+10	1	-1E+10	1	-1E+10	1	-1E+10	1	-1E+10	1	-1E+10	1
4901784	133	C	02/24/2019	10:45	-133.051	43.118	0	524.80	0	4.6170	0	35.3010	8	27.963	0	519.971	0	37.3	4	12.0	4	-1E+10	1	-1E+10	1	-1E+10	1	-1E+10	1	-1E+10	1	-1E+10	1
4901784	133	C	02/24/2019	10:45	-133.051	43.118	0	529.80	0	4.6080	0	35.3030	8	27.966	0	524.919	0	36.1	4	11.7	4	-1E+10	1	-1E+10	1	-1E+10	1	-1E+10	1	-1E+10	1	-1E+10	1
4901784	133	C	02/24/2019	10:45	-133.051	43.118	0	534.70	0	4.5680	0	35.3110	8	27.976	0	529.767	0	34.6	4	11.2	4	-1E+10	1	-1E+10	1	-1E+10	1	-1E+10	1	-1E+10	1	-1E+10	1
4901784	133	C	02/24/2019	10:45	-133.051	43.118	0	539.60	0	4.5450	0	35.3180	8	27.985	0	534.616	0	33.4	4	10.8	4	-1E+10	1	-1E+10	1	-1E+10	1	-1E+10	1	-1E+10	1	-1E+10	1
4901784	133	C	02/24/2019	10:45	-133.051	43.118	0	544.60	0	4.5340	0	35.3230	8	27.990	0	539.563	0	32.6	4	10.5	4	-1E+10	1	-1E+10	1	-1E+10	1	-1E+10	1	-1E+10	1	-1E+10	1
4901784	133	C	02/24/2019	10:45	-133.051	43.118	0	549.60	0	4.5170	0	35.3250	8	27.993	0	544.510	0	31.9	4	10.3	4	-1E+10	1	-1E+10	1	-1E+10	1	-1E+10	1	-1E+10	1	-1E+10	1
4901784	133	C	02/24/2019	10:45	-133.051	43.118	0	554.70	0	4.4900	0	35.3310	8	28.001	0	549.556	0	31.0	4	10.0	4	-1E+10	1	-1E+10	1	-1E+10	1	-1E+10	1	-1E+10	1	-1E+10	1
4901784	133	C	02/24/2019	10:45	-133.051	43.118	0	559.80	0	4.4790	0	35.3340	8	28.005	0	554.602	0	30.2	4	9.7	4	-1E+10	1	-1E+10	1	-1E+10	1	-1E+10	1	-1E+10	1	-1E+10	1
4901784	133	C	02/24/2019	10:45	-133.051	43.118	0	564.80	0	4.4660	0	35.3390	8	28.010	0	559.549	0	29.3	4	9.4	4	-1E+10	1	-1E+10	1	-1E+10	1	-1E+10	1	-1E+10	1	-1E+10	1
4901784	133	C	02/24/2019	10:45	-133.051	43.118	0	570.00	0	4.4520	0	35.3440	8	28.016	0	564.694	0	28.5	4	9.2	4	-1E+10	1	-1E+10	1	-1E+10	1	-1E+10	1	-1E+10	1	-1E+10	1
4901784	133	C	02/24/2019	10:45	-133.051	43.118	0	575.10	0	4.4380	0	35.3470	8	28.020	0	569.739	0	27.7	4	8.9	4	-1E+10	1	-1E+10	1	-1E+10	1	-1E+10	1	-1E+10	1	-1E+10	1
4901784	133	C	02/24/2019	10:45	-133.051	43.118	0	580.20	0	4.4150	0	35.3540	8	28.028	0	574.785	0	27.0	4	8.7	4	-1E+10	1	-1E+10	1	-1E+10	1	-1E+10	1	-1E+10	1	-1E+10	1
4901784	133	C	02/24/2019	10:45	-133.051	43.118	0	585.40	0	4.4080	0	35.3560	8	28.030	0	579.929	0	26.5	4	8.5	4	-1E+10	1	-1E+10	1	-1E+10	1	-1E+10	1	-1E+10	1	-1E+10	1
4901784	133	C	02/24/2019	10:45	-133.051	43.118	0	590.70	0	4.3970	0	35.3600	8	28.035	0	585.172	0	26.0	4	8.3	4	-1E+10	1	-1E+10	1	-1E+10	1	-1E+10	1	-1E+10	1	-1E+10	1
4901784	133	C	02/24/2019	10:45	-133.051	43.118	0	595.00	0	4.3870	0	35.3620	8	28.038	0	589.426	0	25.4	4	8.2	4	-1E+10	1	-1E+10	1	-1E+10	1	-1E+10	1	-1E+10	1	-1E+10	1
4901784	133	C	02/24/2019	10:45	-133.051	43.118	0	599.30	0	4.3720	0	35.3650	8	28.042	0	593.679	0	25.0	4	8.0	4	-1E+10	1	-1E+10	1	-1E+10	1	-1E+10	1	-1E+10	1	-1E+10	1
4901784	133	C	02/24/2019	10:45	-133.051	43.118	0	604.40	0	4.3520	0	35.3700	8	28.048	0	598.724	0	24.3	4	7.8	4	-1E+10	1	-1E+10	1	-1E+10	1	-1E+10	1	-1E+10	1	-1E+10	1
4901784	133	C	02/24/2019	10:45	-133.051	43.118	0	609.60	0	4.3310	0	35.3760	8	28.055	0	603.868	0	23.6	4	7.6	4	-1E+10	1	-1E+10	1	-1E+10	1	-1E+10	1	-1E+10	1	-1E+10	1
4901784	133	C	02/24/2019	10:45	-133.051	43.118	0	614.90	0	4.3180	0	35.3800	8	28.060	0	609.110	0	23.1	4	7.4	4	-1E+10	1	-1E+10	1	-1E+10	1	-1E+10	1	-1E+10	1	-1E+10	1
4901784	133	C	02/24/2019	10:45	-133.051	43.118	0	620.20	0	4.2970	0	35.3850	8	28.066	0	614.352	0	22.7	4	7.3	4	-1E+10	1	-1E+10	1	-1E+10	1	-1E+10	1	-1E+10	1	-1E+10	1
4901784	133	C	02/24/2019	10:45	-133.051	43.118	0	625.60	0	4.2830	0	35.3880	8	28.070	0	619.693	0	22.4	4	7.2	4	-1E+10	1	-1E+10	1	-1E+10	1	-1E+10	1	-1E+10	1	-1E+10	1
4901784	133	C	02/24/2019	10:45	-133.051	43.118	0	630.20	0	4.2770	0	35.3900	8	28.072	0	624.243	0	22.2	4	7.1	4	-1E+10	1	-1E+10	1	-1E+10	1	-1E+10	1	-1E+10	1	-1E+10	1
4901784	133	C	02/24/2019	10:45	-133.051	43.118	0	634.90	0	4.2670	0	35.3920	8	28.075	0	628.892	0	21.7	4	7.0	4	-1E+10	1	-1E+10	1	-1E+10	1	-1E+10	1	-1E+10	1	-1E+10	1
4901784	133	C	02/24/2019	10:45	-133.051	43.118	0	640.40	0	4.2530	0	35.3980	8	28.081	0	634.331	0	21.0	4	6.7	4	-1E+10	1	-1E+10	1	-1E+10	1	-1E+10	1	-1E+10	1	-1E+10	1
4901784	133	C	02/24/2019	10:45	-133.051	43.118	0	645.00	0	4.2550	0	35.4040	8	28.086	0	638.880	0	20.4	4	6.5	4	-1E+10	1	-1E+10	1	-1E+10	1	-1E+10	1	-1E+10	1	-1E+10	1
4901784	133	C	02/24/2019	10:45	-133.051	43.118	0	649.70	0	4.2460	0	35.4070	8	28.089	0	643.529	0	20.0	4	6.4	4	-1E+10	1	-1E+10	1	-1E+10	1	-1E+10	1	-1E+10	1	-1E+10	1
4901784	133	C	02/24/2019	10:45	-133.051	43.118	0	655.30	0	4.2410	0	35.4120	8	28.094	0	649.067	0	19.4	4	6.2	4	-1E+10	1	-1E+10	1	-1E+10	1	-1E+10	1	-1E+10	1	-1E+10	1
4901784	133	C	02/24/2019	10:45	-133.051	43.118	0	660.00	0	4.2360	0	35.4160	8	28.097	0	653.715	0	18.9	4	6.1	4	-1E+10	1	-1E+10	1	-1E+10	1	-1E+10	1	-1E+10	1	-1E+10	1
4901784	133	C	02/24/2019	10:45	-133.051	43.118	0	664.60	0	4.2270	0	35.4210	8	28.102	0	658.264	0	18.5	4	5.9	4	-1E+10	1	-1E+10	1	-1E+10	1	-1E+10	1	-1E+10	1	-1E+10	1
4901784	133	C	02/24/2019	10:45	-133.051	43.118	0	670.30	0	4.2200	0	35.4240	8	28.106	0	663.900	0	18.1	4	5.8	4	-1E+10	1	-1E+10	1	-1E+10	1	-1E+10	1	-1E+10	1	-1E+10	1
4901784	133	C	02/24/2019	10:45	-133.051	43.118	0	675.20	0	4.2090	0	35.4290	8	28.111	0	668.745	0	17.7	4	5.7	4	-1E+10	1	-1E+10	1	-1E+10	1	-1E+10	1	-1E+10	1	-1E+10	1
4901784	133	C	02/24/2019	10:45	-133.051	43.118	0	680.00	0	4.1970	0	35.4330	8	28.115	0	673.492	0	17.5	4	5.6	4	-1E+10	1	-1E+10	1	-1E+10	1	-1E+10	1	-1E+10	1	-1E+10	1
4901784	133	C	02/24/2019	10:45	-133.051	43.118	0	684.80	0	4.1910	0	35.4360	8	28.118	0	678.238	0	17.2	4	5.5	4	-1E+10	1	-1E+10	1	-1E+10	1	-1E+10	1	-1E+10	1	-1E+10	1
4901784	133	C	02/24/2019	10:45	-133.051	43.118	0	689.60	0	4.1860	0	35.4380	8	28.121	0	682.984	0	16.9	4	5.4	4	-1E+10	1	-1E+10	1	-1E+10	1	-1E+10	1	-1E+10	1	-1E+10	1
4901784	133	C	02/24/2019	10:45	-133.051	43.118	0	695.30	0	4.1720	0	35.4430	8	28.126	0	688.620	0	16.5	4	5.3	4	-1E+10	1	-1E+10	1	-1E+10	1	-1E+10	1	-1E+10	1	-1E+10	1
4901784	133	C	02/24/2019	10:45	-133.051	43.118	0	700.30	0	4.1600	0	35.4470	8	28.131	0	693.564	0	16.2	4	5.2	4	-1E+10	1	-1E+10	1	-1E+10	1	-1E+10	1	-1E+10	1	-1E+10	1
4901784	133	C	02/24/2019	10:45	-133.051	43.118	0	704.80	0	4.1450	0	35.4520	8	28.136	0	698.013	0	16.0	4	5.1	4	-1E+10	1	-1E+10	1	-1E+10	1	-1E+10	1	-1E+10	1	-1E+10	1
4901784	133	C	02/24/2019	10:45	-133.051	43.118	0	709.70	0	4.1320	0	35.4550	8	28.140	0	702.858	0	15.7	4	5.0	4	-1E+10	1	-1E+10	1	-1E+10	1	-1E+10	1	-1E+10	1	-1E+10	1
4901784	133	C	02/24/2019	10:45	-133.051	43.118	0	714.50	0	4.1150	0	35.4600	8	28.146	0	707.603	0	15.3	4	4.9	4	-1E+10	1	-1E+10	1	-1E+10	1	-1E+10	1	-1E+10	1	-1E+10	1
4901784	133	C	02/24/2019	10:45	-133.051	43.118	0	719.40	0	4.0960	0	35.4660	8	28.153	0	712.447	0	15.1	4	4.8	4	-1E+10	1	-1E+10	1	-1E+10	1	-1E+10	1	-1E+10	1	-1E+10	1
4901784	133	C	02/24/2019	10:45	-133.051	43.118	0	725.00	0	4.0810	0	35.4710	8	28.158	0	717.984	0	14.8	4	4.7	4	-1E+10	1	-1E+10	1	-1E+10	1	-1E+10	1	-1E+10	1	-1E+10	1
4901784	133	C	02/24/2019	10:45	-133.051	43.118	0	730.70	0	4.0740	0	35.4730	8	28.161	0	723.619	0	14.7	4	4.7	4	-1E+10	1	-1E+10	1	-1E+10	1	-1E+10	1	-1E+10	1	-1E+10	1
4901784	133	C	02/24/2019	10:45	-133.051	43.118	0	735.70	0	4.0650	0	35.4760	8	28.164	0	728.561	0	14.5	4	4.6	4	-1E+10	1	-1E+10	1	-1E+10	1	-1E+10	1	-1E+10	1	-1E+10	1
4901784	133	C	02/24/2019	10:45	-133.051	43.118	0	740.70	0	4.0570	0	35.4790	8	28.167	0	733.504	0	14.3	4	4.6	4	-1E+10	1	-1E+10	1	-1E+10	1	-1E+10	1	-1E+10	1	-1E+10	1
4901784	133	C	02/24/2019	10:45	-133.051	43.118	0	745.70	0	4.0380	0	35.4840	8	28.173	0	738.447	0	14.0	4	4.5	4	-1E+10	1	-1E+10	1	-1E+10	1	-1E+10	1	-1E+10	1	-1E+10	1
4901784	133	C	02/24/2019	10:45	-133.051	43.118	0	750.70	0	4.0260	0	35.4890	8	28.179	0	743.389	0	13.7	4	4.4	4	-1E+10	1	-1E+10	1	-1E+10	1	-1E+10	1	-1E+10	1	-1E+10	1
4901784	133	C	02/24/2019	10:45	-133.051	43.118	0	755.00	0	4.0120	0	35.4940	8	28.184	0	747.640	0	13.5	4	4.3	4	-1E+10	1	-1E+10	1	-1E+10	1	-1E+10	1	-1E+10	1	-1E+10	1
4901784	133	C	02/24/2019	10:45	-133.051	43.118	0	759.30	0	3.9990	0	35.4970	8	28.188	0	751.890	0	13.3	4	4.2	4	-1E+10	1	-1E+10	1	-1E+10	1	-1E+10	1	-1E+10	1	-1E+10	1
4901784	133	C	02/24/2019	10:45	-133.051	43.118	0	764.50	0	3.9820	0	35.5040	8	28.195	0	757.030	0	13.0	4	4.1	4	-1E+10	1	-1E+10	1	-1E+10	1	-1E+10	1	-1E+10	1	-1E+10	1
4901784	133	C	02/24/2019	10:45	-133.051	43.118	0	769.70	0	3.9600	0	35.5090	8	28.202	0	762.170	0	12.8	4	4.1	4	-1E+10	1	-1E+10	1	-1E+10	1	-1E+10	1	-1E+10	1	-1E+10	1
4901784	133	C	02/24/2019	10:45	-133.051	43.118	0	774.80	0	3.9410	0	35.5140	8	28.208	0	767.210	0	12.6	4	4.0	4	-1E+10	1	-1E+10	1	-1E+10	1	-1E+10	1	-1E+10	1	-1E+10	1
4901784	133	C	02/24/2019	10:45	-133.051	43.118	0	780.10	0	3.9280	0	35.5190	8	28.213	0	772.449	0	12.4	4	4.0	4	-1E+10	1	-1E+10	1	-1E+10	1	-1E+10	1	-1E+10	1	-1E+10	1
4901784	133	C	02/24/2019	10:45	-133.051	43.118	0	785.40	0	3.9110	0	35.5230	8	28.218	0	777.687	0	12.3	4	3.9	4	-1E+10	1	-1E+10	1	-1E+10	1	-1E+10	1	-1E+10	1	-1E+10	1
4901784	133	C	02/24/2019	10:45	-133.051	43.118	0	790.70	0	3.8990	0	35.5300	8	28.225	0	782.925	0	12.1	4	3.8	4	-1E+10	1	-1E+10	1	-1E+10	1	-1E+10	1	-1E+10	1	-1E+10	1
4901784	133	C	02/24/2019	10:45	-133.051	43.118	0	795.00	0	3.8850	0	35.5340	8	28.230	0	787.174	0	12.0	4	3.8	4	-1E+10	1	-1E+10	1	-1E+10	1	-1E+10	1	-1E+10	1	-1E+10	1
4901784	133	C	02/24/2019	10:45	-133.051	43.118	0	799.50	0	3.8800	0	35.5350	8	28.231	0	791.621	0	11.9	4	3.8	4	-1E+10	1	-1E+10	1	-1E+10	1	-1E+10	1	-1E+10	1	-1E+10	1
4901784	133	C	02/24/2019	10:45	-133.051	43.118	0	804.90	0	3.8650	0	35.5400	8	28.237	0	796.958	0	11.7	4	3.7	4	-1E+10	1	-1E+10	1	-1E+10	1	-1E+10	1	-1E+10	1	-1E+10	1
4901784	133	C	02/24/2019	10:45	-133.051	43.118	0	810.30	0	3.8550	0	35.5420	8	28.239	0	802.294	0	11.6	4	3.7	4	-1E+10	1	-1E+10	1	-1E+10	1	-1E+10	1	-1E+10	1	-1E+10	1
4901784	133	C	02/24/2019	10:45	-133.051	43.118	0	814.90	0	3.8390	0	35.5470	8	28.245	0	806.840	0	11.5	4	3.7	4	-1E+10	1	-1E+10	1	-1E+10	1	-1E+10	1	-1E+10	1	-1E+10	1
4901784	133	C	02/24/2019	10:45	-133.051	43.118	0	819.40	0	3.8190	0	35.5510	8	28.250	0	811.287	0	11.5	4	3.6	4	-1E+10	1	-1E+10	1	-1E+10	1	-1E+10	1	-1E+10	1	-1E+10	1
4901784	133	C	02/24/2019	10:45	-133.051	43.118	0	825.00	0	3.8110	0	35.5540	8	28.254	0	816.820	0	11.4	4	3.6	4	-1E+10	1	-1E+10	1	-1E+10	1	-1E+10	1	-1E+10	1	-1E+10	1
4901784	133	C	02/24/2019	10:45	-133.051	43.118	0	830.50	0	3.8060	0	35.5570	8	28.256	0	822.255	0	11.3	4	3.6	4	-1E+10	1	-1E+10	1	-1E+10	1	-1E+10	1	-1E+10	1	-1E+10	1
4901784	133	C	02/24/2019	10:45	-133.051	43.118	0	835.20	0	3.8040	0	35.5580	8	28.258	0	826.899	0	11.2	4	3.6	4	-1E+10	1	-1E+10	1	-1E+10	1	-1E+10	1	-1E+10	1	-1E+10	1
4901784	133	C	02/24/2019	10:45	-133.051	43.118	0	839.80	0	3.7940	0	35.5610	8	28.261	0	831.444	0	11.2	4	3.5	4	-1E+10	1	-1E+10	1	-1E+10	1	-1E+10	1	-1E+10	1	-1E+10	1
4901784	133	C	02/24/2019	10:45	-133.051	43.118	0	845.40	0	3.7820	0	35.5650	8	28.265	0	836.977	0	11.1	4	3.5	4	-1E+10	1	-1E+10	1	-1E+10	1	-1E+10	1	-1E+10	1	-1E+10	1
4901784	133	C	02/24/2019	10:45	-133.051	43.118	0	850.10	0	3.7740	0	35.5680	8	28.269	0	841.621	0	11.0	4	3.5	4	-1E+10	1	-1E+10	1	-1E+10	1	-1E+10	1	-1E+10	1	-1E+10	1
4901784	133	C	02/24/2019	10:45	-133.051	43.118	0	854.80	0	3.7620	0	35.5720	8	28.273	0	846.265	0	10.9	4	3.4	4	-1E+10	1	-1E+10	1	-1E+10	1	-1E+10	1	-1E+10	1	-1E+10	1
4901784	133	C	02/24/2019	10:45	-133.051	43.118	0	860.50	0	3.7490	0	35.5770	8	28.278	0	851.896	0	10.8	4	3.4	4	-1E+10	1	-1E+10	1	-1E+10	1	-1E+10	1	-1E+10	1	-1E+10	1
4901784	133	C	02/24/2019	10:45	-133.051	43.118	0	865.10	0	3.7380	0	35.5810	8	28.283	0	856.441	0	10.7	4	3.4	4	-1E+10	1	-1E+10	1	-1E+10	1	-1E+10	1	-1E+10	1	-1E+10	1
4901784	133	C	02/24/2019	10:45	-133.051	43.118	0	869.90	0	3.7260	0	35.5850	8	28.287	0	861.183	0	10.6	4	3.4	4	-1E+10	1	-1E+10	1	-1E+10	1	-1E+10	1	-1E+10	1	-1E+10	1
4901784	133	C	02/24/2019	10:45	-133.051	43.118	0	875.50	0	3.7170	0	35.5890	8	28.291	0	866.715	0	10.6	4	3.3	4	-1E+10	1	-1E+10	1	-1E+10	1	-1E+10	1	-1E+10	1	-1E+10	1
4901784	133	C	02/24/2019	10:45	-133.051	43.118	0	880.40	0	3.7130	0	35.5920	8	28.294	0	871.556	0	10.5	4	3.3	4	-1E+10	1	-1E+10	1	-1E+10	1	-1E+10	1	-1E+10	1	-1E+10	1
4901784	133	C	02/24/2019	10:45	-133.051	43.118	0	884.90	0	3.7030	0	35.5960	8	28.299	0	876.001	0	10.5	4	3.3	4	-1E+10	1	-1E+10	1	-1E+10	1	-1E+10	1	-1E+10	1	-1E+10	1
4901784	133	C	02/24/2019	10:45	-133.051	43.118	0	889.80	0	3.6960	0	35.5990	8	28.302	0	880.841	0	10.4	4	3.3	4	-1E+10	1	-1E+10	1	-1E+10	1	-1E+10	1	-1E+10	1	-1E+10	1
4901784	133	C	02/24/2019	10:45	-133.051	43.118	0	894.80	0	3.6910	0	35.6010	8	28.304	0	885.781	0	10.4	4	3.3	4	-1E+10	1	-1E+10	1	-1E+10	1	-1E+10	1	-1E+10	1	-1E+10	1
4901784	133	C	02/24/2019	10:45	-133.051	43.118	0	899.90	0	3.6780	0	35.6020	8	28.306	0	890.818	0	10.4	4	3.3	4	-1E+10	1	-1E+10	1	-1E+10	1	-1E+10	1	-1E+10	1	-1E+10	1
4901784	133	C	02/24/2019	10:45	-133.051	43.118	0	905.00	0	3.6710	0	35.6060	8	28.310	0	895.856	0	10.3	4	3.3	4	-1E+10	1	-1E+10	1	-1E+10	1	-1E+10	1	-1E+10	1	-1E+10	1
4901784	133	C	02/24/2019	10:45	-133.051	43.118	0	910.10	0	3.6630	0	35.6080	8	28.312	0	900.893	0	10.3	4	3.3	4	-1E+10	1	-1E+10	1	-1E+10	1	-1E+10	1	-1E+10	1	-1E+10	1
4901784	133	C	02/24/2019	10:45	-133.051	43.118	0	915.20	0	3.6520	0	35.6110	8	28.316	0	905.931	0	10.3	4	3.3	4	-1E+10	1	-1E+10	1	-1E+10	1	-1E+10	1	-1E+10	1	-1E+10	1
4901784	133	C	02/24/2019	10:45	-133.051	43.118	0	920.30	0	3.6550	0	35.6140	8	28.318	0	910.968	0	10.3	4	3.3	4	-1E+10	1	-1E+10	1	-1E+10	1	-1E+10	1	-1E+10	1	-1E+10	1
4901784	133	C	02/24/2019	10:45	-133.051	43.118	0	925.40	0	3.6440	0	35.6150	8	28.320	0	916.005	0	10.3	4	3.3	4	-1E+10	1	-1E+10	1	-1E+10	1	-1E+10	1	-1E+10	1	-1E+10	1
4901784	133	C	02/24/2019	10:45	-133.051	43.118	0	930.50	0	3.6350	0	35.6180	8	28.323	0	921.042	0	10.3	4	3.3	4	-1E+10	1	-1E+10	1	-1E+10	1	-1E+10	1	-1E+10	1	-1E+10	1
4901784	133	C	02/24/2019	10:45	-133.051	43.118	0	935.60	0	3.6260	0	35.6220	8	28.327	0	926.079	0	10.3	4	3.3	4	-1E+10	1	-1E+10	1	-1E+10	1	-1E+10	1	-1E+10	1	-1E+10	1
4901784	133	C	02/24/2019	10:45	-133.051	43.118	0	939.90	0	3.6170	0	35.6240	8	28.330	0	930.326	0	10.3	4	3.3	4	-1E+10	1	-1E+10	1	-1E+10	1	-1E+10	1	-1E+10	1	-1E+10	1
4901784	133	C	02/24/2019	10:45	-133.051	43.118	0	944.20	0	3.6140	0	35.6280	8	28.333	0	934.572	0	10.3	4	3.3	4	-1E+10	1	-1E+10	1	-1E+10	1	-1E+10	1	-1E+10	1	-1E+10	1
4901784	133	C	02/24/2019	10:45	-133.051	43.118	0	949.30	0	3.6080	0	35.6290	8	28.335	0	939.609	0	10.3	4	3.3	4	-1E+10	1	-1E+10	1	-1E+10	1	-1E+10	1	-1E+10	1	-1E+10	1
4901784	133	C	02/24/2019	10:45	-133.051	43.118	0	954.50	0	3.5990	0	35.6330	8	28.339	0	944.744	0	10.3	4	3.3	4	-1E+10	1	-1E+10	1	-1E+10	1	-1E+10	1	-1E+10	1	-1E+10	1
4901784	133	C	02/24/2019	10:45	-133.051	43.118	0	959.70	0	3.5830	0	35.6380	8	28.345	0	949.879	0	10.3	4	3.3	4	-1E+10	1	-1E+10	1	-1E+10	1	-1E+10	1	-1E+10	1	-1E+10	1
4901784	133	C	02/24/2019	10:45	-133.051	43.118	0	964.90	0	3.5710	0	35.6410	8	28.348	0	955.014	0	10.4	4	3.3	4	-1E+10	1	-1E+10	1	-1E+10	1	-1E+10	1	-1E+10	1	-1E+10	1
4901784	133	C	02/24/2019	10:45	-133.051	43.118	0	970.10	0	3.5610	0	35.6430	8	28.351	0	960.149	0	10.4	4	3.3	4	-1E+10	1	-1E+10	1	-1E+10	1	-1E+10	1	-1E+10	1	-1E+10	1
4901784	133	C	02/24/2019	10:45	-133.051	43.118	0	975.40	0	3.5390	0	35.6480	8	28.357	0	965.382	0	10.4	4	3.3	4	-1E+10	1	-1E+10	1	-1E+10	1	-1E+10	1	-1E+10	1	-1E+10	1
4901784	133	C	02/24/2019	10:45	-133.051	43.118	0	979.80	0	3.5250	0	35.6530	8	28.363	0	969.727	0	10.5	4	3.3	4	-1E+10	1	-1E+10	1	-1E+10	1	-1E+10	1	-1E+10	1	-1E+10	1
4901784	133	C	02/24/2019	10:45	-133.051	43.118	0	984.30	0	3.5170	0	35.6550	8	28.365	0	974.170	0	10.5	4	3.3	4	-1E+10	1	-1E+10	1	-1E+10	1	-1E+10	1	-1E+10	1	-1E+10	1
4901784	133	C	02/24/2019	10:45	-133.051	43.118	0	989.60	0	3.5100	0	35.6570	8	28.367	0	979.403	0	10.6	4	3.3	4	-1E+10	1	-1E+10	1	-1E+10	1	-1E+10	1	-1E+10	1	-1E+10	1
4901784	133	C	02/24/2019	10:45	-133.051	43.118	0	994.90	0	3.5000	0	35.6600	8	28.371	0	984.636	0	10.7	4	3.4	4	-1E+10	1	-1E+10	1	-1E+10	1	-1E+10	1	-1E+10	1	-1E+10	1
4901784	133	C	02/24/2019	10:45	-133.051	43.118	0	1000.20	0	3.4850	0	35.6640	8	28.376	0	989.869	0	10.8	4	3.4	4	-1E+10	1	-1E+10	1	-1E+10	1	-1E+10	1	-1E+10	1	-1E+10	1
4901784	133	C	02/24/2019	10:45	-133.051	43.118	0	1005.60	0	3.4730	0	35.6680	8	28.380	0	995.200	0	10.8	4	3.4	4	-1E+10	1	-1E+10	1	-1E+10	1	-1E+10	1	-1E+10	1	-1E+10	1
4901784	133	C	02/24/2019	10:45	-133.051	43.118	0	1010.10	0	3.4650	0	35.6700	8	28.382	0	999.643	0	10.9	4	3.4	4	-1E+10	1	-1E+10	1	-1E+10	1	-1E+10	1	-1E+10	1	-1E+10	1
4901784	133	C	02/24/2019	10:45	-133.051	43.118	0	1014.70	0	3.4540	0	35.6720	8	28.385	0	1004.185	0	10.9	4	3.4	4	-1E+10	1	-1E+10	1	-1E+10	1	-1E+10	1	-1E+10	1	-1E+10	1
4901784	133	C	02/24/2019	10:45	-133.051	43.118	0	1020.10	0	3.4400	0	35.6750	8	28.389	0	1009.516	0	11.0	4	3.5	4	-1E+10	1	-1E+10	1	-1E+10	1	-1E+10	1	-1E+10	1	-1E+10	1
4901784	133	C	02/24/2019	10:45	-133.051	43.118	0	1025.60	0	3.4290	0	35.6780	8	28.392	0	1014.945	0	11.1	4	3.5	4	-1E+10	1	-1E+10	1	-1E+10	1	-1E+10	1	-1E+10	1	-1E+10	1
4901784	133	C	02/24/2019	10:45	-133.051	43.118	0	1030.20	0	3.4170	0	35.6820	8	28.397	0	1019.486	0	11.2	4	3.5	4	-1E+10	1	-1E+10	1	-1E+10	1	-1E+10	1	-1E+10	1	-1E+10	1
4901784	133	C	02/24/2019	10:45	-133.051	43.118	0	1035.60	0	3.4060	0	35.6850	8	28.400	0	1024.817	0	11.3	4	3.6	4	-1E+10	1	-1E+10	1	-1E+10	1	-1E+10	1	-1E+10	1	-1E+10	1
4901784	133	C	02/24/2019	10:45	-133.051	43.118	0	1040.60	0	3.3980	0	35.6870	8	28.403	0	1029.753	0	11.3	4	3.6	4	-1E+10	1	-1E+10	1	-1E+10	1	-1E+10	1	-1E+10	1	-1E+10	1
4901784	133	C	02/24/2019	10:45	-133.051	43.118	0	1045.30	0	3.3910	0	35.6880	8	28.404	0	1034.392	0	11.4	4	3.6	4	-1E+10	1	-1E+10	1	-1E+10	1	-1E+10	1	-1E+10	1	-1E+10	1
4901784	133	C	02/24/2019	10:45	-133.051	43.118	0	1050.10	0	3.3780	0	35.6910	8	28.408	0	1039.130	0	11.5	4	3.6	4	-1E+10	1	-1E+10	1	-1E+10	1	-1E+10	1	-1E+10	1	-1E+10	1
4901784	133	C	02/24/2019	10:45	-133.051	43.118	0	1055.00	0	3.3690	0	35.6930	8	28.410	0	1043.967	0	11.5	4	3.6	4	-1E+10	1	-1E+10	1	-1E+10	1	-1E+10	1	-1E+10	1	-1E+10	1
4901784	133	C	02/24/2019	10:45	-133.051	43.118	0	1059.90	0	3.3610	0	35.6950	8	28.413	0	1048.803	0	11.7	4	3.7	4	-1E+10	1	-1E+10	1	-1E+10	1	-1E+10	1	-1E+10	1	-1E+10	1
4901784	133	C	02/24/2019	10:45	-133.051	43.118	0	1064.80	0	3.3500	0	35.6970	8	28.416	0	1053.640	0	11.8	4	3.7	4	-1E+10	1	-1E+10	1	-1E+10	1	-1E+10	1	-1E+10	1	-1E+10	1
4901784	133	C	02/24/2019	10:45	-133.051	43.118	0	1069.70	0	3.3360	0	35.7010	8	28.420	0	1058.476	0	11.9	4	3.7	4	-1E+10	1	-1E+10	1	-1E+10	1	-1E+10	1	-1E+10	1	-1E+10	1
4901784	133	C	02/24/2019	10:45	-133.051	43.118	0	1074.60	0	3.3250	0	35.7030	8	28.423	0	1063.312	0	12.0	4	3.8	4	-1E+10	1	-1E+10	1	-1E+10	1	-1E+10	1	-1E+10	1	-1E+10	1
4901784	133	C	02/24/2019	10:45	-133.051	43.118	0	1079.50	0	3.3170	0	35.7050	8	28.425	0	1068.148	0	12.1	4	3.8	4	-1E+10	1	-1E+10	1	-1E+10	1	-1E+10	1	-1E+10	1	-1E+10	1
4901784	133	C	02/24/2019	10:45	-133.051	43.118	0	1084.50	0	3.3090	0	35.7070	8	28.428	0	1073.083	0	12.2	4	3.8	4	-1E+10	1	-1E+10	1	-1E+10	1	-1E+10	1	-1E+10	1	-1E+10	1
4901784	133	C	02/24/2019	10:45	-133.051	43.118	0	1089.50	0	3.2970	0	35.7090	8	28.431	0	1078.017	0	12.3	4	3.9	4	-1E+10	1	-1E+10	1	-1E+10	1	-1E+10	1	-1E+10	1	-1E+10	1
4901784	133	C	02/24/2019	10:45	-133.051	43.118	0	1094.60	0	3.2780	0	35.7130	8	28.436	0	1083.050	0	12.5	4	3.9	4	-1E+10	1	-1E+10	1	-1E+10	1	-1E+10	1	-1E+10	1	-1E+10	1
4901784	133	C	02/24/2019	10:45	-133.051	43.118	0	1099.60	0	3.2710	0	35.7150	8	28.438	0	1087.985	0	12.6	4	3.9	4	-1E+10	1	-1E+10	1	-1E+10	1	-1E+10	1	-1E+10	1	-1E+10	1
4901784	133	C	02/24/2019	10:45	-133.051	43.118	0	1104.80	0	3.2620	0	35.7170	8	28.440	0	1093.116	0	12.7	4	4.0	4	-1E+10	1	-1E+10	1	-1E+10	1	-1E+10	1	-1E+10	1	-1E+10	1
4901784	133	C	02/24/2019	10:45	-133.051	43.118	0	1109.90	0	3.2530	0	35.7180	8	28.442	0	1098.149	0	12.8	4	4.0	4	-1E+10	1	-1E+10	1	-1E+10	1	-1E+10	1	-1E+10	1	-1E+10	1
4901784	133	C	02/24/2019	10:45	-133.051	43.118	0	1115.10	0	3.2420	0	35.7200	8	28.445	0	1103.280	0	12.9	4	4.1	4	-1E+10	1	-1E+10	1	-1E+10	1	-1E+10	1	-1E+10	1	-1E+10	1
4901784	133	C	02/24/2019	10:45	-133.051	43.118	0	1120.50	0	3.2240	0	35.7240	8	28.450	0	1108.609	0	13.1	4	4.1	4	-1E+10	1	-1E+10	1	-1E+10	1	-1E+10	1	-1E+10	1	-1E+10	1
4901784	133	C	02/24/2019	10:45	-133.051	43.118	0	1125.10	0	3.2220	0	35.7250	8	28.451	0	1113.148	0	13.1	4	4.1	4	-1E+10	1	-1E+10	1	-1E+10	1	-1E+10	1	-1E+10	1	-1E+10	1
4901784	133	C	02/24/2019	10:45	-133.051	43.118	0	1129.30	0	3.2180	0	35.7260	8	28.452	0	1117.292	0	13.1	4	4.1	4	-1E+10	1	-1E+10	1	-1E+10	1	-1E+10	1	-1E+10	1	-1E+10	1
4901784	133	C	02/24/2019	10:45	-133.051	43.118	0	1134.50	0	3.2160	0	35.7260	8	28.452	0	1122.423	0	13.2	4	4.1	4	-1E+10	1	-1E+10	1	-1E+10	1	-1E+10	1	-1E+10	1	-1E+10	1
4901784	133	C	02/24/2019	10:45	-133.051	43.118	0	1139.30	0	3.2070	0	35.7280	8	28.455	0	1127.159	0	13.3	4	4.2	4	-1E+10	1	-1E+10	1	-1E+10	1	-1E+10	1	-1E+10	1	-1E+10	1
4901784	133	C	02/24/2019	10:45	-133.051	43.118	0	1145.00	0	3.1950	0	35.7300	8	28.458	0	1132.783	0	13.4	4	4.2	4	-1E+10	1	-1E+10	1	-1E+10	1	-1E+10	1	-1E+10	1	-1E+10	1
4901784	133	C	02/24/2019	10:45	-133.051	43.118	0	1150.70	0	3.1870	0	35.7320	8	28.460	0	1138.406	0	13.5	4	4.2	4	-1E+10	1	-1E+10	1	-1E+10	1	-1E+10	1	-1E+10	1	-1E+10	1
4901784	133	C	02/24/2019	10:45	-133.051	43.118	0	1155.60	0	3.1820	0	35.7330	8	28.461	0	1143.241	0	13.5	4	4.2	4	-1E+10	1	-1E+10	1	-1E+10	1	-1E+10	1	-1E+10	1	-1E+10	1
4901784	133	C	02/24/2019	10:45	-133.051	43.118	0	1160.50	0	3.1760	0	35.7340	8	28.463	0	1148.075	0	13.6	4	4.3	4	-1E+10	1	-1E+10	1	-1E+10	1	-1E+10	1	-1E+10	1	-1E+10	1
4901784	133	C	02/24/2019	10:45	-133.051	43.118	0	1165.40	0	3.1660	0	35.7360	8	28.465	0	1152.909	0	13.7	4	4.3	4	-1E+10	1	-1E+10	1	-1E+10	1	-1E+10	1	-1E+10	1	-1E+10	1
4901784	133	C	02/24/2019	10:45	-133.051	43.118	0	1170.40	0	3.1570	0	35.7370	8	28.467	0	1157.842	0	13.8	4	4.3	4	-1E+10	1	-1E+10	1	-1E+10	1	-1E+10	1	-1E+10	1	-1E+10	1
4901784	133	C	02/24/2019	10:45	-133.051	43.118	0	1175.30	0	3.1450	0	35.7390	8	28.470	0	1162.676	0	13.9	4	4.3	4	-1E+10	1	-1E+10	1	-1E+10	1	-1E+10	1	-1E+10	1	-1E+10	1
4901784	133	C	02/24/2019	10:45	-133.051	43.118	0	1180.20	0	3.1330	0	35.7410	8	28.472	0	1167.509	0	13.9	4	4.3	4	-1E+10	1	-1E+10	1	-1E+10	1	-1E+10	1	-1E+10	1	-1E+10	1
4901784	133	C	02/24/2019	10:45	-133.051	43.118	0	1185.20	0	3.1180	0	35.7420	8	28.475	0	1172.442	0	13.8	4	4.3	4	-1E+10	1	-1E+10	1	-1E+10	1	-1E+10	1	-1E+10	1	-1E+10	1
4901784	133	C	02/24/2019	10:45	-133.051	43.118	0	1190.30	0	3.1060	0	35.7430	8	28.477	0	1177.473	0	13.9	4	4.3	4	-1E+10	1	-1E+10	1	-1E+10	1	-1E+10	1	-1E+10	1	-1E+10	1
4901784	133	C	02/24/2019	10:45	-133.051	43.118	0	1195.40	0	3.0980	0	35.7450	8	28.479	0	1182.503	0	14.0	4	4.4	4	-1E+10	1	-1E+10	1	-1E+10	1	-1E+10	1	-1E+10	1	-1E+10	1
4901784	133	C	02/24/2019	10:45	-133.051	43.118	0	1200.70	0	3.0850	0	35.7470	8	28.482	0	1187.731	0	14.2	4	4.4	4	-1E+10	1	-1E+10	1	-1E+10	1	-1E+10	1	-1E+10	1	-1E+10	1
4901784	133	C	02/24/2019	10:45	-133.051	43.118	0	1205.00	0	3.0790	0	35.7490	8	28.484	0	1191.972	0	14.4	4	4.5	4	-1E+10	1	-1E+10	1	-1E+10	1	-1E+10	1	-1E+10	1	-1E+10	1
4901784	133	C	02/24/2019	10:45	-133.051	43.118	0	1209.40	0	3.0710	0	35.7500	8	28.486	0	1196.312	0	14.5	4	4.5	4	-1E+10	1	-1E+10	1	-1E+10	1	-1E+10	1	-1E+10	1	-1E+10	1
4901784	133	C	02/24/2019	10:45	-133.051	43.118	0	1214.70	0	3.0630	0	35.7530	8	28.489	0	1201.540	0	14.6	4	4.5	4	-1E+10	1	-1E+10	1	-1E+10	1	-1E+10	1	-1E+10	1	-1E+10	1
4901784	133	C	02/24/2019	10:45	-133.051	43.118	0	1220.00	0	3.0560	0	35.7530	8	28.490	0	1206.767	0	14.4	4	4.5	4	-1E+10	1	-1E+10	1	-1E+10	1	-1E+10	1	-1E+10	1	-1E+10	1
4901784	133	C	02/24/2019	10:45	-133.051	43.118	0	1225.30	0	3.0350	0	35.7530	8	28.492	0	1211.995	0	14.2	4	4.4	4	-1E+10	1	-1E+10	1	-1E+10	1	-1E+10	1	-1E+10	1	-1E+10	1
4901784	133	C	02/24/2019	10:45	-133.051	43.118	0	1230.70	0	3.0270	0	35.7550	8	28.494	0	1217.320	0	14.3	4	4.5	4	-1E+10	1	-1E+10	1	-1E+10	1	-1E+10	1	-1E+10	1	-1E+10	1
4901784	133	C	02/24/2019	10:45	-133.051	43.118	0	1235.10	0	3.0200	0	35.7560	8	28.495	0	1221.660	0	14.4	4	4.5	4	-1E+10	1	-1E+10	1	-1E+10	1	-1E+10	1	-1E+10	1	-1E+10	1
4901784	133	C	02/24/2019	10:45	-133.051	43.118	0	1239.60	0	3.0130	0	35.7570	8	28.497	0	1226.098	0	14.5	4	4.5	4	-1E+10	1	-1E+10	1	-1E+10	1	-1E+10	1	-1E+10	1	-1E+10	1
4901784	133	C	02/24/2019	10:45	-133.051	43.118	0	1245.00	0	3.0050	0	35.7590	8	28.499	0	1231.423	0	14.7	4	4.6	4	-1E+10	1	-1E+10	1	-1E+10	1	-1E+10	1	-1E+10	1	-1E+10	1
4901784	133	C	02/24/2019	10:45	-133.051	43.118	0	1250.30	0	2.9910	0	35.7610	8	28.502	0	1236.650	0	14.9	4	4.6	4	-1E+10	1	-1E+10	1	-1E+10	1	-1E+10	1	-1E+10	1	-1E+10	1
4901784	133	C	02/24/2019	10:45	-133.051	43.118	0	1255.30	0	2.9790	0	35.7640	8	28.506	0	1241.580	0	15.1	4	4.7	4	-1E+10	1	-1E+10	1	-1E+10	1	-1E+10	1	-1E+10	1	-1E+10	1
4901784	133	C	02/24/2019	10:45	-133.051	43.118	0	1260.30	0	2.9720	0	35.7650	8	28.507	0	1246.511	0	15.2	4	4.7	4	-1E+10	1	-1E+10	1	-1E+10	1	-1E+10	1	-1E+10	1	-1E+10	1
4901784	133	C	02/24/2019	10:45	-133.051	43.118	0	1265.30	0	2.9620	0	35.7670	8	28.510	0	1251.441	0	15.4	4	4.8	4	-1E+10	1	-1E+10	1	-1E+10	1	-1E+10	1	-1E+10	1	-1E+10	1
4901784	133	C	02/24/2019	10:45	-133.051	43.118	0	1270.30	0	2.9580	0	35.7680	8	28.511	0	1256.372	0	15.5	4	4.8	4	-1E+10	1	-1E+10	1	-1E+10	1	-1E+10	1	-1E+10	1	-1E+10	1
4901784	133	C	02/24/2019	10:45	-133.051	43.118	0	1275.30	0	2.9520	0	35.7690	8	28.512	0	1261.302	0	15.6	4	4.9	4	-1E+10	1	-1E+10	1	-1E+10	1	-1E+10	1	-1E+10	1	-1E+10	1
4901784	133	C	02/24/2019	10:45	-133.051	43.118	0	1280.30	0	2.9450	0	35.7710	8	28.515	0	1266.232	0	15.8	4	4.9	4	-1E+10	1	-1E+10	1	-1E+10	1	-1E+10	1	-1E+10	1	-1E+10	1
4901784	133	C	02/24/2019	10:45	-133.051	43.118	0	1285.30	0	2.9430	0	35.7720	8	28.516	0	1271.162	0	16.1	4	5.0	4	-1E+10	1	-1E+10	1	-1E+10	1	-1E+10	1	-1E+10	1	-1E+10	1
4901784	133	C	02/24/2019	10:45	-133.051	43.118	0	1290.40	0	2.9320	0	35.7750	8	28.519	0	1276.190	0	16.3	4	5.1	4	-1E+10	1	-1E+10	1	-1E+10	1	-1E+10	1	-1E+10	1	-1E+10	1
4901784	133	C	02/24/2019	10:45	-133.051	43.118	0	1295.50	0	2.9180	0	35.7760	8	28.521	0	1281.219	0	16.4	4	5.1	4	-1E+10	1	-1E+10	1	-1E+10	1	-1E+10	1	-1E+10	1	-1E+10	1
4901784	133	C	02/24/2019	10:45	-133.051	43.118	0	1300.70	0	2.9050	0	35.7780	8	28.524	0	1286.345	0	16.6	4	5.2	4	-1E+10	1	-1E+10	1	-1E+10	1	-1E+10	1	-1E+10	1	-1E+10	1
4901784	133	C	02/24/2019	10:45	-133.051	43.118	0	1305.00	0	2.8950	0	35.7800	8	28.527	0	1290.585	0	16.7	4	5.2	4	-1E+10	1	-1E+10	1	-1E+10	1	-1E+10	1	-1E+10	1	-1E+10	1
4901784	133	C	02/24/2019	10:45	-133.051	43.118	0	1309.30	0	2.8900	0	35.7810	8	28.528	0	1294.824	0	16.9	4	5.3	4	-1E+10	1	-1E+10	1	-1E+10	1	-1E+10	1	-1E+10	1	-1E+10	1
4901784	133	C	02/24/2019	10:45	-133.051	43.118	0	1314.50	0	2.8750	0	35.7830	8	28.531	0	1299.951	0	17.1	4	5.3	4	-1E+10	1	-1E+10	1	-1E+10	1	-1E+10	1	-1E+10	1	-1E+10	1
4901784	133	C	02/24/2019	10:45	-133.051	43.118	0	1319.70	0	2.8660	0	35.7850	8	28.534	0	1305.077	0	17.2	4	5.4	4	-1E+10	1	-1E+10	1	-1E+10	1	-1E+10	1	-1E+10	1	-1E+10	1
4901784	133	C	02/24/2019	10:45	-133.051	43.118	0	1324.90	0	2.8580	0	35.7860	8	28.535	0	1310.203	0	17.3	4	5.4	4	-1E+10	1	-1E+10	1	-1E+10	1	-1E+10	1	-1E+10	1	-1E+10	1
4901784	133	C	02/24/2019	10:45	-133.051	43.118	0	1330.20	0	2.8470	0	35.7880	8	28.538	0	1315.428	0	17.4	4	5.4	4	-1E+10	1	-1E+10	1	-1E+10	1	-1E+10	1	-1E+10	1	-1E+10	1
4901784	133	C	02/24/2019	10:45	-133.051	43.118	0	1335.50	0	2.8420	0	35.7890	8	28.539	0	1320.652	0	17.7	4	5.5	4	-1E+10	1	-1E+10	1	-1E+10	1	-1E+10	1	-1E+10	1	-1E+10	1
4901784	133	C	02/24/2019	10:45	-133.051	43.118	0	1339.90	0	2.8360	0	35.7910	8	28.541	0	1324.990	0	17.8	4	5.5	4	-1E+10	1	-1E+10	1	-1E+10	1	-1E+10	1	-1E+10	1	-1E+10	1
4901784	133	C	02/24/2019	10:45	-133.051	43.118	0	1344.40	0	2.8330	0	35.7920	8	28.542	0	1329.425	0	17.9	4	5.5	4	-1E+10	1	-1E+10	1	-1E+10	1	-1E+10	1	-1E+10	1	-1E+10	1
4901784	133	C	02/24/2019	10:45	-133.051	43.118	0	1349.70	0	2.8250	0	35.7920	8	28.543	0	1334.650	0	18.0	4	5.6	4	-1E+10	1	-1E+10	1	-1E+10	1	-1E+10	1	-1E+10	1	-1E+10	1
4901784	133	C	02/24/2019	10:45	-133.051	43.118	0	1355.00	0	2.8190	0	35.7940	8	28.545	0	1339.874	0	18.4	4	5.7	4	-1E+10	1	-1E+10	1	-1E+10	1	-1E+10	1	-1E+10	1	-1E+10	1
4901784	133	C	02/24/2019	10:45	-133.051	43.118	0	1360.30	0	2.8080	0	35.7970	8	28.549	0	1345.098	0	18.7	4	5.8	4	-1E+10	1	-1E+10	1	-1E+10	1	-1E+10	1	-1E+10	1	-1E+10	1
4901784	133	C	02/24/2019	10:45	-133.051	43.118	0	1365.60	0	2.8000	0	35.7980	8	28.550	0	1350.321	0	18.9	4	5.9	4	-1E+10	1	-1E+10	1	-1E+10	1	-1E+10	1	-1E+10	1	-1E+10	1
4901784	133	C	02/24/2019	10:45	-133.051	43.118	0	1370.10	0	2.7940	0	35.7990	8	28.552	0	1354.757	0	19.1	4	5.9	4	-1E+10	1	-1E+10	1	-1E+10	1	-1E+10	1	-1E+10	1	-1E+10	1
4901784	133	C	02/24/2019	10:45	-133.051	43.118	0	1374.50	0	2.7880	0	35.8010	8	28.554	0	1359.093	0	19.4	4	6.0	4	-1E+10	1	-1E+10	1	-1E+10	1	-1E+10	1	-1E+10	1	-1E+10	1
4901784	133	C	02/24/2019	10:45	-133.051	43.118	0	1379.90	0	2.7790	0	35.8030	8	28.556	0	1364.415	0	19.6	4	6.1	4	-1E+10	1	-1E+10	1	-1E+10	1	-1E+10	1	-1E+10	1	-1E+10	1
4901784	133	C	02/24/2019	10:45	-133.051	43.118	0	1385.20	0	2.7600	0	35.8040	8	28.559	0	1369.638	0	19.8	4	6.1	4	-1E+10	1	-1E+10	1	-1E+10	1	-1E+10	1	-1E+10	1	-1E+10	1
4901784	133	C	02/24/2019	10:45	-133.051	43.118	0	1390.60	0	2.7470	0	35.8070	8	28.562	0	1374.960	0	20.1	4	6.2	4	-1E+10	1	-1E+10	1	-1E+10	1	-1E+10	1	-1E+10	1	-1E+10	1
4901784	133	C	02/24/2019	10:45	-133.051	43.118	0	1395.10	0	2.7410	0	35.8080	8	28.564	0	1379.395	0	20.3	4	6.3	4	-1E+10	1	-1E+10	1	-1E+10	1	-1E+10	1	-1E+10	1	-1E+10	1
4901784	133	C	02/24/2019	10:45	-133.051	43.118	0	1399.70	0	2.7340	0	35.8090	8	28.565	0	1383.928	0	20.7	4	6.4	4	-1E+10	1	-1E+10	1	-1E+10	1	-1E+10	1	-1E+10	1	-1E+10	1
4901784	133	C	02/24/2019	10:45	-133.051	43.118	0	1405.20	0	2.7180	0	35.8120	8	28.569	0	1389.348	0	21.1	4	6.5	4	-1E+10	1	-1E+10	1	-1E+10	1	-1E+10	1	-1E+10	1	-1E+10	1
4901784	133	C	02/24/2019	10:45	-133.051	43.118	0	1409.80	0	2.7080	0	35.8150	8	28.572	0	1393.881	0	21.4	4	6.6	4	-1E+10	1	-1E+10	1	-1E+10	1	-1E+10	1	-1E+10	1	-1E+10	1
4901784	133	C	02/24/2019	10:45	-133.051	43.118	0	1414.50	0	2.7030	0	35.8150	8	28.573	0	1398.512	0	21.7	4	6.7	4	-1E+10	1	-1E+10	1	-1E+10	1	-1E+10	1	-1E+10	1	-1E+10	1
4901784	133	C	02/24/2019	10:45	-133.051	43.118	0	1420.00	0	2.6910	0	35.8180	8	28.576	0	1403.932	0	22.2	4	6.9	4	-1E+10	1	-1E+10	1	-1E+10	1	-1E+10	1	-1E+10	1	-1E+10	1
4901784	133	C	02/24/2019	10:45	-133.051	43.118	0	1425.60	0	2.6860	0	35.8190	8	28.578	0	1409.450	0	22.6	4	7.0	4	-1E+10	1	-1E+10	1	-1E+10	1	-1E+10	1	-1E+10	1	-1E+10	1
4901784	133	C	02/24/2019	10:45	-133.051	43.118	0	1430.30	0	2.6730	0	35.8210	8	28.581	0	1414.081	0	22.9	4	7.1	4	-1E+10	1	-1E+10	1	-1E+10	1	-1E+10	1	-1E+10	1	-1E+10	1
4901784	133	C	02/24/2019	10:45	-133.051	43.118	0	1434.90	0	2.6650	0	35.8230	8	28.583	0	1418.613	0	23.1	4	7.1	4	-1E+10	1	-1E+10	1	-1E+10	1	-1E+10	1	-1E+10	1	-1E+10	1
4901784	133	C	02/24/2019	10:45	-133.051	43.118	0	1439.80	0	2.6580	0	35.8240	8	28.584	0	1423.441	0	23.4	4	7.2	4	-1E+10	1	-1E+10	1	-1E+10	1	-1E+10	1	-1E+10	1	-1E+10	1
4901784	133	C	02/24/2019	10:45	-133.051	43.118	0	1444.60	0	2.6480	0	35.8260	8	28.587	0	1428.170	0	23.7	4	7.3	4	-1E+10	1	-1E+10	1	-1E+10	1	-1E+10	1	-1E+10	1	-1E+10	1
4901784	133	C	02/24/2019	10:45	-133.051	43.118	0	1449.50	0	2.6360	0	35.8270	8	28.589	0	1432.998	0	24.1	4	7.4	4	-1E+10	1	-1E+10	1	-1E+10	1	-1E+10	1	-1E+10	1	-1E+10	1
4901784	133	C	02/24/2019	10:45	-133.051	43.118	0	1454.50	0	2.6250	0	35.8300	8	28.592	0	1437.924	0	24.4	4	7.5	4	-1E+10	1	-1E+10	1	-1E+10	1	-1E+10	1	-1E+10	1	-1E+10	1
4901784	133	C	02/24/2019	10:45	-133.051	43.118	0	1459.40	0	2.6190	0	35.8310	8	28.594	0	1442.751	0	24.6	4	7.6	4	-1E+10	1	-1E+10	1	-1E+10	1	-1E+10	1	-1E+10	1	-1E+10	1
4901784	133	C	02/24/2019	10:45	-133.051	43.118	0	1464.30	0	2.6110	0	35.8320	8	28.595	0	1447.579	0	25.0	4	7.7	4	-1E+10	1	-1E+10	1	-1E+10	1	-1E+10	1	-1E+10	1	-1E+10	1
4901784	133	C	02/24/2019	10:45	-133.051	43.118	0	1469.30	0	2.5980	0	35.8340	8	28.598	0	1452.504	0	25.3	4	7.8	4	-1E+10	1	-1E+10	1	-1E+10	1	-1E+10	1	-1E+10	1	-1E+10	1
4901784	133	C	02/24/2019	10:45	-133.051	43.118	0	1474.20	0	2.5840	0	35.8360	8	28.601	0	1457.331	0	25.7	4	7.9	4	-1E+10	1	-1E+10	1	-1E+10	1	-1E+10	1	-1E+10	1	-1E+10	1
4901784	133	C	02/24/2019	10:45	-133.051	43.118	0	1479.20	0	2.5740	0	35.8380	8	28.603	0	1462.257	0	26.1	4	8.1	4	-1E+10	1	-1E+10	1	-1E+10	1	-1E+10	1	-1E+10	1	-1E+10	1
4901784	133	C	02/24/2019	10:45	-133.051	43.118	0	1484.20	0	2.5590	0	35.8400	8	28.606	0	1467.182	0	26.5	4	8.2	4	-1E+10	1	-1E+10	1	-1E+10	1	-1E+10	1	-1E+10	1	-1E+10	1
4901784	133	C	02/24/2019	10:45	-133.051	43.118	0	1489.30	0	2.5500	0	35.8420	8	28.609	0	1472.206	0	26.9	4	8.3	4	-1E+10	1	-1E+10	1	-1E+10	1	-1E+10	1	-1E+10	1	-1E+10	1
4901784	133	C	02/24/2019	10:45	-133.051	43.118	0	1494.40	0	2.5470	0	35.8430	8	28.610	0	1477.230	0	27.1	4	8.4	4	-1E+10	1	-1E+10	1	-1E+10	1	-1E+10	1	-1E+10	1	-1E+10	1
4901784	133	C	02/24/2019	10:45	-133.051	43.118	0	1499.50	0	2.5410	0	35.8440	8	28.611	0	1482.253	0	27.3	4	8.4	4	-1E+10	1	-1E+10	1	-1E+10	1	-1E+10	1	-1E+10	1	-1E+10	1
4901784	133	C	02/24/2019	10:45	-133.051	43.118	0	1504.60	0	2.5350	0	35.8450	8	28.612	0	1487.277	0	27.5	4	8.5	4	-1E+10	1	-1E+10	1	-1E+10	1	-1E+10	1	-1E+10	1	-1E+10	1
4901784	133	C	02/24/2019	10:45	-133.051	43.118	0	1509.80	0	2.5280	0	35.8460	8	28.614	0	1492.399	0	27.8	4	8.6	4	-1E+10	1	-1E+10	1	-1E+10	1	-1E+10	1	-1E+10	1	-1E+10	1
4901784	133	C	02/24/2019	10:45	-133.051	43.118	0	1515.10	0	2.5190	0	35.8480	8	28.616	0	1497.619	0	28.0	4	8.6	4	-1E+10	1	-1E+10	1	-1E+10	1	-1E+10	1	-1E+10	1	-1E+10	1
4901784	133	C	02/24/2019	10:45	-133.051	43.118	0	1520.30	0	2.5130	0	35.8490	8	28.618	0	1502.740	0	28.2	4	8.7	4	-1E+10	1	-1E+10	1	-1E+10	1	-1E+10	1	-1E+10	1	-1E+10	1
4901784	133	C	02/24/2019	10:45	-133.051	43.118	0	1525.60	0	2.5090	0	35.8490	8	28.618	0	1507.960	0	28.6	4	8.8	4	-1E+10	1	-1E+10	1	-1E+10	1	-1E+10	1	-1E+10	1	-1E+10	1
4901784	133	C	02/24/2019	10:45	-133.051	43.118	0	1530.00	0	2.5020	0	35.8510	8	28.620	0	1512.294	0	28.9	4	8.9	4	-1E+10	1	-1E+10	1	-1E+10	1	-1E+10	1	-1E+10	1	-1E+10	1
4901784	133	C	02/24/2019	10:45	-133.051	43.118	0	1534.40	0	2.4890	0	35.8530	8	28.623	0	1516.627	0	29.3	4	9.0	4	-1E+10	1	-1E+10	1	-1E+10	1	-1E+10	1	-1E+10	1	-1E+10	1
4901784	133	C	02/24/2019	10:45	-133.051	43.118	0	1539.80	0	2.4750	0	35.8540	8	28.625	0	1521.945	0	29.7	4	9.2	4	-1E+10	1	-1E+10	1	-1E+10	1	-1E+10	1	-1E+10	1	-1E+10	1
4901784	133	C	02/24/2019	10:45	-133.051	43.118	0	1545.20	0	2.4640	0	35.8570	8	28.628	0	1527.263	0	30.0	4	9.3	4	-1E+10	1	-1E+10	1	-1E+10	1	-1E+10	1	-1E+10	1	-1E+10	1
4901784	133	C	02/24/2019	10:45	-133.051	43.118	0	1550.60	0	2.4540	0	35.8580	8	28.630	0	1532.580	0	30.4	4	9.4	4	-1E+10	1	-1E+10	1	-1E+10	1	-1E+10	1	-1E+10	1	-1E+10	1
4901784	133	C	02/24/2019	10:45	-133.051	43.118	0	1555.20	0	2.4470	0	35.8590	8	28.632	0	1537.110	0	30.8	4	9.5	4	-1E+10	1	-1E+10	1	-1E+10	1	-1E+10	1	-1E+10	1	-1E+10	1
4901784	133	C	02/24/2019	10:45	-133.051	43.118	0	1559.70	0	2.4350	0	35.8610	8	28.634	0	1541.542	0	31.2	4	9.6	4	-1E+10	1	-1E+10	1	-1E+10	1	-1E+10	1	-1E+10	1	-1E+10	1
4901784	133	C	02/24/2019	10:45	-133.051	43.118	0	1565.10	0	2.4240	0	35.8630	8	28.637	0	1546.859	0	31.5	4	9.7	4	-1E+10	1	-1E+10	1	-1E+10	1	-1E+10	1	-1E+10	1	-1E+10	1
4901784	133	C	02/24/2019	10:45	-133.051	43.118	0	1570.40	0	2.4130	0	35.8650	8	28.639	0	1552.078	0	31.8	4	9.8	4	-1E+10	1	-1E+10	1	-1E+10	1	-1E+10	1	-1E+10	1	-1E+10	1
4901784	133	C	02/24/2019	10:45	-133.051	43.118	0	1575.10	0	2.4080	0	35.8660	8	28.641	0	1556.706	0	32.1	4	9.9	4	-1E+10	1	-1E+10	1	-1E+10	1	-1E+10	1	-1E+10	1	-1E+10	1
4901784	133	C	02/24/2019	10:45	-133.051	43.118	0	1580.00	0	2.4030	0	35.8670	8	28.642	0	1561.530	0	32.3	4	9.9	4	-1E+10	1	-1E+10	1	-1E+10	1	-1E+10	1	-1E+10	1	-1E+10	1
4901784	133	C	02/24/2019	10:45	-133.051	43.118	0	1584.90	0	2.3950	0	35.8680	8	28.643	0	1566.355	0	32.6	4	10.0	4	-1E+10	1	-1E+10	1	-1E+10	1	-1E+10	1	-1E+10	1	-1E+10	1
4901784	133	C	02/24/2019	10:45	-133.051	43.118	0	1589.90	0	2.3910	0	35.8690	8	28.645	0	1571.278	0	32.9	4	10.1	4	-1E+10	1	-1E+10	1	-1E+10	1	-1E+10	1	-1E+10	1	-1E+10	1
4901784	133	C	02/24/2019	10:45	-133.051	43.118	0	1594.80	0	2.3810	0	35.8700	8	28.646	0	1576.102	0	33.4	4	10.3	4	-1E+10	1	-1E+10	1	-1E+10	1	-1E+10	1	-1E+10	1	-1E+10	1
4901784	133	C	02/24/2019	10:45	-133.051	43.118	0	1599.80	0	2.3680	0	35.8720	8	28.649	0	1581.025	0	33.8	4	10.4	4	-1E+10	1	-1E+10	1	-1E+10	1	-1E+10	1	-1E+10	1	-1E+10	1
4901784	133	C	02/24/2019	10:45	-133.051	43.118	0	1604.80	0	2.3620	0	35.8730	8	28.650	0	1585.948	0	34.0	4	10.5	4	-1E+10	1	-1E+10	1	-1E+10	1	-1E+10	1	-1E+10	1	-1E+10	1
4901784	133	C	02/24/2019	10:45	-133.051	43.118	0	1609.80	0	2.3580	0	35.8740	8	28.652	0	1590.870	0	34.3	4	10.6	4	-1E+10	1	-1E+10	1	-1E+10	1	-1E+10	1	-1E+10	1	-1E+10	1
4901784	133	C	02/24/2019	10:45	-133.051	43.118	0	1614.90	0	2.3530	0	35.8750	8	28.653	0	1595.891	0	34.9	4	10.7	4	-1E+10	1	-1E+10	1	-1E+10	1	-1E+10	1	-1E+10	1	-1E+10	1
4901784	133	C	02/24/2019	10:45	-133.051	43.118	0	1619.90	0	2.3360	0	35.8780	8	28.657	0	1600.813	0	35.3	4	10.8	4	-1E+10	1	-1E+10	1	-1E+10	1	-1E+10	1	-1E+10	1	-1E+10	1
4901784	133	C	02/24/2019	10:45	-133.051	43.118	0	1625.00	0	2.3310	0	35.8790	8	28.658	0	1605.834	0	35.6	4	10.9	4	-1E+10	1	-1E+10	1	-1E+10	1	-1E+10	1	-1E+10	1	-1E+10	1
4901784	133	C	02/24/2019	10:45	-133.051	43.118	0	1630.10	0	2.3200	0	35.8800	8	28.660	0	1610.854	0	36.1	4	11.1	4	-1E+10	1	-1E+10	1	-1E+10	1	-1E+10	1	-1E+10	1	-1E+10	1
4901784	133	C	02/24/2019	10:45	-133.051	43.118	0	1635.20	0	2.3120	0	35.8810	8	28.661	0	1615.875	0	36.6	4	11.2	4	-1E+10	1	-1E+10	1	-1E+10	1	-1E+10	1	-1E+10	1	-1E+10	1
4901784	133	C	02/24/2019	10:45	-133.051	43.118	0	1640.40	0	2.3030	0	35.8830	8	28.664	0	1620.993	0	37.0	4	11.3	4	-1E+10	1	-1E+10	1	-1E+10	1	-1E+10	1	-1E+10	1	-1E+10	1
4901784	133	C	02/24/2019	10:45	-133.051	43.118	0	1645.60	0	2.2960	0	35.8840	8	28.665	0	1626.112	0	37.3	4	11.4	4	-1E+10	1	-1E+10	1	-1E+10	1	-1E+10	1	-1E+10	1	-1E+10	1
4901784	133	C	02/24/2019	10:45	-133.051	43.118	0	1649.90	0	2.2860	0	35.8860	8	28.668	0	1630.344	0	37.5	4	11.5	4	-1E+10	1	-1E+10	1	-1E+10	1	-1E+10	1	-1E+10	1	-1E+10	1
4901784	133	C	02/24/2019	10:45	-133.051	43.118	0	1654.30	0	2.2820	0	35.8870	8	28.669	0	1634.675	0	37.6	4	11.5	4	-1E+10	1	-1E+10	1	-1E+10	1	-1E+10	1	-1E+10	1	-1E+10	1
4901784	133	C	02/24/2019	10:45	-133.051	43.118	0	1659.60	0	2.2800	0	35.8870	8	28.669	0	1639.892	0	37.7	4	11.6	4	-1E+10	1	-1E+10	1	-1E+10	1	-1E+10	1	-1E+10	1	-1E+10	1
4901784	133	C	02/24/2019	10:45	-133.051	43.118	0	1664.90	0	2.2780	0	35.8880	8	28.670	0	1645.108	0	37.9	4	11.6	4	-1E+10	1	-1E+10	1	-1E+10	1	-1E+10	1	-1E+10	1	-1E+10	1
4901784	133	C	02/24/2019	10:45	-133.051	43.118	0	1670.30	0	2.2720	0	35.8900	8	28.672	0	1650.423	0	38.1	4	11.7	4	-1E+10	1	-1E+10	1	-1E+10	1	-1E+10	1	-1E+10	1	-1E+10	1
4901784	133	C	02/24/2019	10:45	-133.051	43.118	0	1675.60	0	2.2680	0	35.8900	8	28.672	0	1655.639	0	38.4	4	11.8	4	-1E+10	1	-1E+10	1	-1E+10	1	-1E+10	1	-1E+10	1	-1E+10	1
4901784	133	C	02/24/2019	10:45	-133.051	43.118	0	1680.10	0	2.2620	0	35.8920	8	28.675	0	1660.068	0	38.7	4	11.9	4	-1E+10	1	-1E+10	1	-1E+10	1	-1E+10	1	-1E+10	1	-1E+10	1
4901784	133	C	02/24/2019	10:45	-133.051	43.118	0	1684.60	0	2.2570	0	35.8920	8	28.675	0	1664.497	0	39.0	4	11.9	4	-1E+10	1	-1E+10	1	-1E+10	1	-1E+10	1	-1E+10	1	-1E+10	1
4901784	133	C	02/24/2019	10:45	-133.051	43.118	0	1690.10	0	2.2500	0	35.8940	8	28.677	0	1669.910	0	39.4	4	12.1	4	-1E+10	1	-1E+10	1	-1E+10	1	-1E+10	1	-1E+10	1	-1E+10	1
4901784	133	C	02/24/2019	10:45	-133.051	43.118	0	1695.60	0	2.2420	0	35.8950	8	28.679	0	1675.322	0	39.9	4	12.2	4	-1E+10	1	-1E+10	1	-1E+10	1	-1E+10	1	-1E+10	1	-1E+10	1
4901784	133	C	02/24/2019	10:45	-133.051	43.118	0	1700.10	0	2.2340	0	35.8960	8	28.680	0	1679.751	0	40.3	4	12.3	4	-1E+10	1	-1E+10	1	-1E+10	1	-1E+10	1	-1E+10	1	-1E+10	1
4901784	133	C	02/24/2019	10:45	-133.051	43.118	0	1704.70	0	2.2260	0	35.8980	8	28.683	0	1684.277	0	40.7	4	12.5	4	-1E+10	1	-1E+10	1	-1E+10	1	-1E+10	1	-1E+10	1	-1E+10	1
4901784	133	C	02/24/2019	10:45	-133.051	43.118	0	1710.10	0	2.2170	0	35.8990	8	28.684	0	1689.591	0	41.1	4	12.6	4	-1E+10	1	-1E+10	1	-1E+10	1	-1E+10	1	-1E+10	1	-1E+10	1
4901784	133	C	02/24/2019	10:45	-133.051	43.118	0	1715.50	0	2.2100	0	35.9000	8	28.686	0	1694.905	0	41.5	4	12.7	4	-1E+10	1	-1E+10	1	-1E+10	1	-1E+10	1	-1E+10	1	-1E+10	1
4901784	133	C	02/24/2019	10:45	-133.051	43.118	0	1720.40	0	2.2010	0	35.9020	8	28.688	0	1699.726	0	41.9	4	12.8	4	-1E+10	1	-1E+10	1	-1E+10	1	-1E+10	1	-1E+10	1	-1E+10	1
4901784	133	C	02/24/2019	10:45	-133.051	43.118	0	1725.40	0	2.1930	0	35.9030	8	28.689	0	1704.646	0	42.3	4	12.9	4	-1E+10	1	-1E+10	1	-1E+10	1	-1E+10	1	-1E+10	1	-1E+10	1
4901784	133	C	02/24/2019	10:45	-133.051	43.118	0	1730.40	0	2.1850	0	35.9050	8	28.692	0	1709.566	0	42.7	4	13.1	4	-1E+10	1	-1E+10	1	-1E+10	1	-1E+10	1	-1E+10	1	-1E+10	1
4901784	133	C	02/24/2019	10:45	-133.051	43.118	0	1735.40	0	2.1800	0	35.9060	8	28.693	0	1714.485	0	42.9	4	13.1	4	-1E+10	1	-1E+10	1	-1E+10	1	-1E+10	1	-1E+10	1	-1E+10	1
4901784	133	C	02/24/2019	10:45	-133.051	43.118	0	1740.50	0	2.1740	0	35.9070	8	28.694	0	1719.503	0	43.3	4	13.2	4	-1E+10	1	-1E+10	1	-1E+10	1	-1E+10	1	-1E+10	1	-1E+10	1
4901784	133	C	02/24/2019	10:45	-133.051	43.118	0	1745.60	0	2.1690	0	35.9080	8	28.696	0	1724.521	0	43.6	4	13.3	4	-1E+10	1	-1E+10	1	-1E+10	1	-1E+10	1	-1E+10	1	-1E+10	1
4901784	133	C	02/24/2019	10:45	-133.051	43.118	0	1749.90	0	2.1630	0	35.9090	8	28.697	0	1728.752	0	43.9	4	13.4	4	-1E+10	1	-1E+10	1	-1E+10	1	-1E+10	1	-1E+10	1	-1E+10	1
4901784	133	C	02/24/2019	10:45	-133.051	43.118	0	1754.30	0	2.1580	0	35.9100	8	28.698	0	1733.081	0	44.2	4	13.5	4	-1E+10	1	-1E+10	1	-1E+10	1	-1E+10	1	-1E+10	1	-1E+10	1
4901784	133	C	02/24/2019	10:45	-133.051	43.118	0	1759.50	0	2.1520	0	35.9110	8	28.700	0	1738.196	0	44.6	4	13.6	4	-1E+10	1	-1E+10	1	-1E+10	1	-1E+10	1	-1E+10	1	-1E+10	1
4901784	133	C	02/24/2019	10:45	-133.051	43.118	0	1764.70	0	2.1460	0	35.9120	8	28.701	0	1743.312	0	45.0	4	13.8	4	-1E+10	1	-1E+10	1	-1E+10	1	-1E+10	1	-1E+10	1	-1E+10	1
4901784	133	C	02/24/2019	10:45	-133.051	43.118	0	1770.00	0	2.1390	0	35.9130	8	28.702	0	1748.526	0	45.4	4	13.9	4	-1E+10	1	-1E+10	1	-1E+10	1	-1E+10	1	-1E+10	1	-1E+10	1
4901784	133	C	02/24/2019	10:45	-133.051	43.118	0	1775.40	0	2.1320	0	35.9150	8	28.704	0	1753.838	0	45.8	4	14.0	4	-1E+10	1	-1E+10	1	-1E+10	1	-1E+10	1	-1E+10	1	-1E+10	1
4901784	133	C	02/24/2019	10:45	-133.051	43.118	0	1779.80	0	2.1250	0	35.9160	8	28.706	0	1758.167	0	46.2	4	14.1	4	-1E+10	1	-1E+10	1	-1E+10	1	-1E+10	1	-1E+10	1	-1E+10	1
4901784	133	C	02/24/2019	10:45	-133.051	43.118	0	1784.30	0	2.1210	0	35.9170	8	28.707	0	1762.593	0	46.4	4	14.2	4	-1E+10	1	-1E+10	1	-1E+10	1	-1E+10	1	-1E+10	1	-1E+10	1
4901784	133	C	02/24/2019	10:45	-133.051	43.118	0	1789.70	0	2.1160	0	35.9190	8	28.709	0	1767.905	0	46.7	4	14.3	4	-1E+10	1	-1E+10	1	-1E+10	1	-1E+10	1	-1E+10	1	-1E+10	1
4901784	133	C	02/24/2019	10:45	-133.051	43.118	0	1795.10	0	2.1140	0	35.9190	8	28.709	0	1773.217	0	46.9	4	14.3	4	-1E+10	1	-1E+10	1	-1E+10	1	-1E+10	1	-1E+10	1	-1E+10	1
4901784	133	C	02/24/2019	10:45	-133.051	43.118	0	1800.60	0	2.1100	0	35.9200	8	28.710	0	1778.627	0	47.1	4	14.4	4	-1E+10	1	-1E+10	1	-1E+10	1	-1E+10	1	-1E+10	1	-1E+10	1
4901784	133	C	02/24/2019	10:45	-133.051	43.118	0	1805.10	0	2.1070	0	35.9200	8	28.711	0	1783.053	0	47.4	4	14.5	4	-1E+10	1	-1E+10	1	-1E+10	1	-1E+10	1	-1E+10	1	-1E+10	1
4901784	133	C	02/24/2019	10:45	-133.051	43.118	0	1809.80	0	2.1010	0	35.9210	8	28.712	0	1787.676	0	47.7	4	14.6	4	-1E+10	1	-1E+10	1	-1E+10	1	-1E+10	1	-1E+10	1	-1E+10	1
4901784	133	C	02/24/2019	10:45	-133.051	43.118	0	1815.30	0	2.0940	0	35.9220	8	28.713	0	1793.085	0	48.1	4	14.7	4	-1E+10	1	-1E+10	1	-1E+10	1	-1E+10	1	-1E+10	1	-1E+10	1
4901784	133	C	02/24/2019	10:45	-133.051	43.118	0	1819.90	0	2.0890	0	35.9230	8	28.715	0	1797.610	0	48.4	4	14.8	4	-1E+10	1	-1E+10	1	-1E+10	1	-1E+10	1	-1E+10	1	-1E+10	1
4901784	133	C	02/24/2019	10:45	-133.051	43.118	0	1824.50	0	2.0820	0	35.9240	8	28.716	0	1802.134	0	48.7	4	14.9	4	-1E+10	1	-1E+10	1	-1E+10	1	-1E+10	1	-1E+10	1	-1E+10	1
4901784	133	C	02/24/2019	10:45	-133.051	43.118	0	1829.90	0	2.0780	0	35.9250	8	28.717	0	1807.445	0	48.9	4	14.9	4	-1E+10	1	-1E+10	1	-1E+10	1	-1E+10	1	-1E+10	1	-1E+10	1
4901784	133	C	02/24/2019	10:45	-133.051	43.118	0	1835.40	0	2.0720	0	35.9260	8	28.719	0	1812.854	0	49.3	4	15.0	4	-1E+10	1	-1E+10	1	-1E+10	1	-1E+10	1	-1E+10	1	-1E+10	1
4901784	133	C	02/24/2019	10:45	-133.051	43.118	0	1840.00	0	2.0670	0	35.9270	8	28.720	0	1817.377	0	49.5	4	15.1	4	-1E+10	1	-1E+10	1	-1E+10	1	-1E+10	1	-1E+10	1	-1E+10	1
4901784	133	C	02/24/2019	10:45	-133.051	43.118	0	1844.50	0	2.0640	0	35.9280	8	28.721	0	1821.803	0	49.8	4	15.2	4	-1E+10	1	-1E+10	1	-1E+10	1	-1E+10	1	-1E+10	1	-1E+10	1
4901784	133	C	02/24/2019	10:45	-133.051	43.118	0	1850.10	0	2.0600	0	35.9280	8	28.721	0	1827.310	0	50.1	4	15.3	4	-1E+10	1	-1E+10	1	-1E+10	1	-1E+10	1	-1E+10	1	-1E+10	1
4901784	133	C	02/24/2019	10:45	-133.051	43.118	0	1854.70	0	2.0570	0	35.9290	8	28.722	0	1831.833	0	50.4	4	15.4	4	-1E+10	1	-1E+10	1	-1E+10	1	-1E+10	1	-1E+10	1	-1E+10	1
4901784	133	C	02/24/2019	10:45	-133.051	43.118	0	1859.20	0	2.0520	0	35.9300	8	28.724	0	1836.259	0	50.6	4	15.4	4	-1E+10	1	-1E+10	1	-1E+10	1	-1E+10	1	-1E+10	1	-1E+10	1
4901784	133	C	02/24/2019	10:45	-133.051	43.118	0	1864.60	0	2.0460	0	35.9310	8	28.725	0	1841.569	0	51.0	4	15.6	4	-1E+10	1	-1E+10	1	-1E+10	1	-1E+10	1	-1E+10	1	-1E+10	1
4901784	133	C	02/24/2019	10:45	-133.051	43.118	0	1869.50	0	2.0400	0	35.9330	8	28.727	0	1846.387	0	51.3	4	15.6	4	-1E+10	1	-1E+10	1	-1E+10	1	-1E+10	1	-1E+10	1	-1E+10	1
4901784	133	C	02/24/2019	10:45	-133.051	43.118	0	1874.40	0	2.0380	0	35.9330	8	28.727	0	1851.205	0	51.5	4	15.7	4	-1E+10	1	-1E+10	1	-1E+10	1	-1E+10	1	-1E+10	1	-1E+10	1
4901784	133	C	02/24/2019	10:45	-133.051	43.118	0	1879.30	0	2.0350	0	35.9330	8	28.728	0	1856.023	0	51.7	4	15.8	4	-1E+10	1	-1E+10	1	-1E+10	1	-1E+10	1	-1E+10	1	-1E+10	1
4901784	133	C	02/24/2019	10:45	-133.051	43.118	0	1884.30	0	2.0300	0	35.9350	8	28.730	0	1860.939	0	52.0	4	15.9	4	-1E+10	1	-1E+10	1	-1E+10	1	-1E+10	1	-1E+10	1	-1E+10	1
4901784	133	C	02/24/2019	10:45	-133.051	43.118	0	1890.00	0	2.0270	0	35.9360	8	28.731	0	1866.543	0	52.2	4	15.9	4	-1E+10	1	-1E+10	1	-1E+10	1	-1E+10	1	-1E+10	1	-1E+10	1
4901784	133	C	02/24/2019	10:45	-133.051	43.118	0	1895.70	0	2.0250	0	35.9360	8	28.731	0	1872.148	0	52.5	4	16.0	4	-1E+10	1	-1E+10	1	-1E+10	1	-1E+10	1	-1E+10	1	-1E+10	1
4901784	133	C	02/24/2019	10:45	-133.051	43.118	0	1900.70	0	2.0210	0	35.9370	8	28.732	0	1877.063	0	52.8	4	16.1	4	-1E+10	1	-1E+10	1	-1E+10	1	-1E+10	1	-1E+10	1	-1E+10	1
4901784	133	C	02/24/2019	10:45	-133.051	43.118	0	1905.70	0	2.0140	0	35.9380	8	28.733	0	1881.979	0	53.2	4	16.2	4	-1E+10	1	-1E+10	1	-1E+10	1	-1E+10	1	-1E+10	1	-1E+10	1
4901784	133	C	02/24/2019	10:45	-133.051	43.118	0	1910.60	0	2.0100	0	35.9390	8	28.735	0	1886.796	0	53.4	4	16.3	4	-1E+10	1	-1E+10	1	-1E+10	1	-1E+10	1	-1E+10	1	-1E+10	1
4901784	133	C	02/24/2019	10:45	-133.051	43.118	0	1915.60	0	2.0070	0	35.9400	8	28.736	0	1891.712	0	53.7	4	16.4	4	-1E+10	1	-1E+10	1	-1E+10	1	-1E+10	1	-1E+10	1	-1E+10	1
4901784	133	C	02/24/2019	10:45	-133.051	43.118	0	1920.60	0	2.0040	0	35.9410	8	28.737	0	1896.627	0	54.0	4	16.5	4	-1E+10	1	-1E+10	1	-1E+10	1	-1E+10	1	-1E+10	1	-1E+10	1
4901784	133	C	02/24/2019	10:45	-133.051	43.118	0	1925.60	0	1.9960	0	35.9420	8	28.738	0	1901.543	0	54.3	4	16.5	4	-1E+10	1	-1E+10	1	-1E+10	1	-1E+10	1	-1E+10	1	-1E+10	1
4901784	133	C	02/24/2019	10:45	-133.051	43.118	0	1930.60	0	1.9950	0	35.9430	8	28.739	0	1906.458	0	54.5	4	16.6	4	-1E+10	1	-1E+10	1	-1E+10	1	-1E+10	1	-1E+10	1	-1E+10	1
4901784	133	C	02/24/2019	10:45	-133.051	43.118	0	1935.60	0	1.9910	0	35.9430	8	28.739	0	1911.373	0	54.7	4	16.7	4	-1E+10	1	-1E+10	1	-1E+10	1	-1E+10	1	-1E+10	1	-1E+10	1
4901784	133	C	02/24/2019	10:45	-133.051	43.118	0	1940.70	0	1.9870	0	35.9440	8	28.741	0	1916.386	0	55.0	4	16.8	4	-1E+10	1	-1E+10	1	-1E+10	1	-1E+10	1	-1E+10	1	-1E+10	1
4901784	133	C	02/24/2019	10:45	-133.051	43.118	0	1944.90	0	1.9840	0	35.9450	8	28.742	0	1920.515	0	55.3	4	16.8	4	-1E+10	1	-1E+10	1	-1E+10	1	-1E+10	1	-1E+10	1	-1E+10	1
4901784	133	C	02/24/2019	10:45	-133.051	43.118	0	1949.20	0	1.9820	0	35.9460	8	28.743	0	1924.741	0	55.6	4	16.9	4	-1E+10	1	-1E+10	1	-1E+10	1	-1E+10	1	-1E+10	1	-1E+10	1
4901784	133	C	02/24/2019	10:45	-133.051	43.118	0	1954.20	0	1.9800	0	35.9470	8	28.744	0	1929.656	0	55.8	4	17.0	4	-1E+10	1	-1E+10	1	-1E+10	1	-1E+10	1	-1E+10	1	-1E+10	1
4901784	133	C	02/24/2019	10:45	-133.051	43.118	0	1959.30	0	1.9740	0	35.9470	8	28.744	0	1934.669	0	56.1	4	17.1	4	-1E+10	1	-1E+10	1	-1E+10	1	-1E+10	1	-1E+10	1	-1E+10	1
4901784	133	C	02/24/2019	10:45	-133.051	43.118	0	1964.40	0	1.9700	0	35.9480	8	28.745	0	1939.681	0	56.3	4	17.1	4	-1E+10	1	-1E+10	1	-1E+10	1	-1E+10	1	-1E+10	1	-1E+10	1
4901784	133	C	02/24/2019	10:45	-133.051	43.118	0	1969.50	0	1.9670	0	35.9490	8	28.746	0	1944.694	0	56.5	4	17.2	4	-1E+10	1	-1E+10	1	-1E+10	1	-1E+10	1	-1E+10	1	-1E+10	1
4901784	133	C	02/24/2019	10:45	-133.051	43.118	0	1974.60	0	1.9650	0	35.9490	8	28.747	0	1949.706	0	56.8	4	17.3	4	-1E+10	1	-1E+10	1	-1E+10	1	-1E+10	1	-1E+10	1	-1E+10	1
4901784	133	C	02/24/2019	10:45	-133.051	43.118	0	1979.60	0	1.9640	0	35.9510	8	28.748	0	1954.620	0	57.1	4	17.4	4	-1E+10	1	-1E+10	1	-1E+10	1	-1E+10	1	-1E+10	1	-1E+10	1
4901784	133	C	02/24/2019	10:45	-133.051	43.118	0	1984.80	0	1.9590	0	35.9520	8	28.750	0	1959.731	0	57.5	4	17.5	4	-1E+10	1	-1E+10	1	-1E+10	1	-1E+10	1	-1E+10	1	-1E+10	1
4901784	133	C	02/24/2019	10:45	-133.051	43.118	0	1989.90	0	1.9570	0	35.9530	8	28.751	0	1964.743	0	58.0	4	17.6	4	-1E+10	1	-1E+10	1	-1E+10	1	-1E+10	1	-1E+10	1	-1E+10	1
4901784	133	C	02/24/2019	10:45	-133.051	43.118	0	1995.10	0	1.9520	0	35.9540	8	28.752	0	1969.853	0	58.3	4	17.8	4	-1E+10	1	-1E+10	1	-1E+10	1	-1E+10	1	-1E+10	1	-1E+10	1
4901784	133	C	02/24/2019	10:45	-133.051	43.118	0	2000.20	0	1.9480	0	35.9550	8	28.753	0	1974.865	0	58.7	4	17.9	4	-1E+10	1	-1E+10	1	-1E+10	1	-1E+10	1	-1E+10	1	-1E+10	1
4901784	133	C	02/24/2019	10:45	-133.051	43.118	0	2005.30	0	1.9440	0	35.9560	8	28.754	0	1979.877	0	58.9	4	17.9	4	-1E+10	1	-1E+10	1	-1E+10	1	-1E+10	1	-1E+10	1	-1E+10	1
4901784	133	C	02/24/2019	10:45	-133.051	43.118	0	2010.30	0	1.9430	0	35.9560	8	28.754	0	1984.790	0	59.0	4	18.0	4	-1E+10	1	-1E+10	1	-1E+10	1	-1E+10	1	-1E+10	1	-1E+10	1
4901784	133	C	02/24/2019	10:45	-133.051	43.118	0	2015.30	0	1.9420	0	35.9560	8	28.754	0	1989.703	0	59.3	4	18.0	4	-1E+10	1	-1E+10	1	-1E+10	1	-1E+10	1	-1E+10	1	-1E+10	1
4901784	133	C	02/24/2019	10:45	-133.051	43.118	0	2020.00	0	1.9340	0	35.9570	8	28.756	0	1994.322	0	59.6	4	18.1	4	-1E+10	1	-1E+10	1	-1E+10	1	-1E+10	1	-1E+10	1	-1E+10	1
4901784	133	C	02/24/2019	10:45	-133.051	43.118	0																										
4901784	134	C	03/06/2019	10:44	-133.110	43.189	0	2.90	0	10.1450	0	33.5710	8	25.812	0	2.877	0	266.3	4	96.3	4	-1E+10	1	-1E+10	1	-1E+10	1	-1E+10	1	-1E+10	1	-1E+10	1
4901784	134	C	03/06/2019	10:44	-133.110	43.189	0	4.70	0	10.1450	0	33.5710	8	25.812	0	4.663	0	266.2	4	96.2	4	-1E+10	1	-1E+10	1	-1E+10	1	-1E+10	1	-1E+10	1	-1E+10	1
4901784	134	C	03/06/2019	10:44	-133.110	43.189	0	6.40	0	10.1460	0	33.5710	8	25.812	0	6.349	0	266.4	4	96.3	4	-1E+10	1	-1E+10	1	-1E+10	1	-1E+10	1	-1E+10	1	-1E+10	1
4901784	134	C	03/06/2019	10:44	-133.110	43.189	0	8.20	0	10.1460	0	33.5720	8	25.813	0	8.135	0	266.3	4	96.3	4	-1E+10	1	-1E+10	1	-1E+10	1	-1E+10	1	-1E+10	1	-1E+10	1
4901784	134	C	03/06/2019	10:44	-133.110	43.189	0	10.00	0	10.1450	0	33.5710	8	25.812	0	9.920	0	266.3	4	96.3	4	-1E+10	1	-1E+10	1	-1E+10	1	-1E+10	1	-1E+10	1	-1E+10	1
4901784	134	C	03/06/2019	10:44	-133.110	43.189	0	12.00	0	10.1460	0	33.5720	8	25.813	0	11.904	0	266.2	4	96.2	4	-1E+10	1	-1E+10	1	-1E+10	1	-1E+10	1	-1E+10	1	-1E+10	1
4901784	134	C	03/06/2019	10:44	-133.110	43.189	0	13.90	0	10.1470	0	33.5720	8	25.813	0	13.789	0	266.2	4	96.3	4	-1E+10	1	-1E+10	1	-1E+10	1	-1E+10	1	-1E+10	1	-1E+10	1
4901784	134	C	03/06/2019	10:44	-133.110	43.189	0	15.90	0	10.1490	0	33.5720	8	25.812	0	15.773	0	266.1	4	96.2	4	-1E+10	1	-1E+10	1	-1E+10	1	-1E+10	1	-1E+10	1	-1E+10	1
4901784	134	C	03/06/2019	10:44	-133.110	43.189	0	18.00	0	10.1500	0	33.5730	8	25.813	0	17.856	0	266.3	4	96.3	4	-1E+10	1	-1E+10	1	-1E+10	1	-1E+10	1	-1E+10	1	-1E+10	1
4901784	134	C	03/06/2019	10:44	-133.110	43.189	0	20.00	0	10.1470	0	33.5730	8	25.814	0	19.840	0	266.3	4	96.3	4	-1E+10	1	-1E+10	1	-1E+10	1	-1E+10	1	-1E+10	1	-1E+10	1
4901784	134	C	03/06/2019	10:44	-133.110	43.189	0	22.00	0	10.1480	0	33.5730	8	25.814	0	21.824	0	266.1	4	96.2	4	-1E+10	1	-1E+10	1	-1E+10	1	-1E+10	1	-1E+10	1	-1E+10	1
4901784	134	C	03/06/2019	10:44	-133.110	43.189	0	24.10	0	10.1500	0	33.5730	8	25.813	0	23.907	0	266.2	4	96.3	4	-1E+10	1	-1E+10	1	-1E+10	1	-1E+10	1	-1E+10	1	-1E+10	1
4901784	134	C	03/06/2019	10:44	-133.110	43.189	0	26.10	0	10.1500	0	33.5740	8	25.814	0	25.891	0	266.2	4	96.3	4	-1E+10	1	-1E+10	1	-1E+10	1	-1E+10	1	-1E+10	1	-1E+10	1
4901784	134	C	03/06/2019	10:44	-133.110	43.189	0	28.20	0	10.1510	0	33.5740	8	25.814	0	27.974	0	266.1	4	96.2	4	-1E+10	1	-1E+10	1	-1E+10	1	-1E+10	1	-1E+10	1	-1E+10	1
4901784	134	C	03/06/2019	10:44	-133.110	43.189	0	30.30	0	10.1620	0	33.5760	8	25.814	0	30.057	0	266.3	4	96.3	4	-1E+10	1	-1E+10	1	-1E+10	1	-1E+10	1	-1E+10	1	-1E+10	1
4901784	134	C	03/06/2019	10:44	-133.110	43.189	0	32.30	0	10.1660	0	33.5760	8	25.813	0	32.041	0	266.3	4	96.3	4	-1E+10	1	-1E+10	1	-1E+10	1	-1E+10	1	-1E+10	1	-1E+10	1
4901784	134	C	03/06/2019	10:44	-133.110	43.189	0	34.20	0	10.1650	0	33.5770	8	25.814	0	33.925	0	266.1	4	96.3	4	-1E+10	1	-1E+10	1	-1E+10	1	-1E+10	1	-1E+10	1	-1E+10	1
4901784	134	C	03/06/2019	10:44	-133.110	43.189	0	36.20	0	10.1630	0	33.5770	8	25.814	0	35.909	0	266.2	4	96.3	4	-1E+10	1	-1E+10	1	-1E+10	1	-1E+10	1	-1E+10	1	-1E+10	1
4901784	134	C	03/06/2019	10:44	-133.110	43.189	0	38.30	0	10.1620	0	33.5780	8	25.815	0	37.992	0	266.2	4	96.3	4	-1E+10	1	-1E+10	1	-1E+10	1	-1E+10	1	-1E+10	1	-1E+10	1
4901784	134	C	03/06/2019	10:44	-133.110	43.189	0	40.50	0	10.1740	0	33.5820	8	25.817	0	40.174	0	266.2	4	96.3	4	-1E+10	1	-1E+10	1	-1E+10	1	-1E+10	1	-1E+10	1	-1E+10	1
4901784	134	C	03/06/2019	10:44	-133.110	43.189	0	42.70	0	10.1740	0	33.5800	8	25.815	0	42.356	0	266.1	4	96.3	4	-1E+10	1	-1E+10	1	-1E+10	1	-1E+10	1	-1E+10	1	-1E+10	1
4901784	134	C	03/06/2019	10:44	-133.110	43.189	0	44.80	0	10.1830	0	33.5810	8	25.814	0	44.439	0	266.1	4	96.3	4	-1E+10	1	-1E+10	1	-1E+10	1	-1E+10	1	-1E+10	1	-1E+10	1
4901784	134	C	03/06/2019	10:44	-133.110	43.189	0	46.70	0	10.1850	0	33.5810	8	25.814	0	46.323	0	266.0	4	96.3	4	-1E+10	1	-1E+10	1	-1E+10	1	-1E+10	1	-1E+10	1	-1E+10	1
4901784	134	C	03/06/2019	10:44	-133.110	43.189	0	48.70	0	10.1880	0	33.5810	8	25.814	0	48.307	0	266.0	4	96.3	4	-1E+10	1	-1E+10	1	-1E+10	1	-1E+10	1	-1E+10	1	-1E+10	1
4901784	134	C	03/06/2019	10:44	-133.110	43.189	0	50.70	0	10.1900	0	33.5820	8	25.814	0	50.291	0	266.0	4	96.3	4	-1E+10	1	-1E+10	1	-1E+10	1	-1E+10	1	-1E+10	1	-1E+10	1
4901784	134	C	03/06/2019	10:44	-133.110	43.189	0	52.60	0	10.1890	0	33.5820	8	25.814	0	52.175	0	266.1	4	96.3	4	-1E+10	1	-1E+10	1	-1E+10	1	-1E+10	1	-1E+10	1	-1E+10	1
4901784	134	C	03/06/2019	10:44	-133.110	43.189	0	54.50	0	10.1830	0	33.5810	8	25.814	0	54.059	0	266.0	4	96.3	4	-1E+10	1	-1E+10	1	-1E+10	1	-1E+10	1	-1E+10	1	-1E+10	1
4901784	134	C	03/06/2019	10:44	-133.110	43.189	0	56.40	0	10.1840	0	33.5830	8	25.816	0	55.944	0	265.9	4	96.2	4	-1E+10	1	-1E+10	1	-1E+10	1	-1E+10	1	-1E+10	1	-1E+10	1
4901784	134	C	03/06/2019	10:44	-133.110	43.189	0	58.30	0	10.1870	0	33.5830	8	25.815	0	57.828	0	265.9	4	96.3	4	-1E+10	1	-1E+10	1	-1E+10	1	-1E+10	1	-1E+10	1	-1E+10	1
4901784	134	C	03/06/2019	10:44	-133.110	43.189	0	60.20	0	10.1880	0	33.5840	8	25.816	0	59.713	0	265.8	4	96.2	4	-1E+10	1	-1E+10	1	-1E+10	1	-1E+10	1	-1E+10	1	-1E+10	1
4901784	134	C	03/06/2019	10:44	-133.110	43.189	0	62.00	0	10.1880	0	33.5850	8	25.817	0	61.498	0	266.0	4	96.3	4	-1E+10	1	-1E+10	1	-1E+10	1	-1E+10	1	-1E+10	1	-1E+10	1
4901784	134	C	03/06/2019	10:44	-133.110	43.189	0	63.80	0	10.1890	0	33.5850	8	25.817	0	63.283	0	265.7	4	96.2	4	-1E+10	1	-1E+10	1	-1E+10	1	-1E+10	1	-1E+10	1	-1E+10	1
4901784	134	C	03/06/2019	10:44	-133.110	43.189	0	65.60	0	10.1910	0	33.5850	8	25.816	0	65.068	0	265.8	4	96.2	4	-1E+10	1	-1E+10	1	-1E+10	1	-1E+10	1	-1E+10	1	-1E+10	1
4901784	134	C	03/06/2019	10:44	-133.110	43.189	0	68.10	0	10.1830	0	33.5850	8	25.818	0	67.547	0	265.7	4	96.2	4	-1E+10	1	-1E+10	1	-1E+10	1	-1E+10	1	-1E+10	1	-1E+10	1
4901784	134	C	03/06/2019	10:44	-133.110	43.189	0	70.00	0	10.1770	0	33.5850	8	25.819	0	69.432	0	265.7	4	96.1	4	-1E+10	1	-1E+10	1	-1E+10	1	-1E+10	1	-1E+10	1	-1E+10	1
4901784	134	C	03/06/2019	10:44	-133.110	43.189	0	71.50	0	10.1830	0	33.5860	8	25.819	0	70.919	0	265.8	4	96.2	4	-1E+10	1	-1E+10	1	-1E+10	1	-1E+10	1	-1E+10	1	-1E+10	1
4901784	134	C	03/06/2019	10:44	-133.110	43.189	0	73.10	0	10.1720	0	33.5840	8	25.819	0	72.506	0	265.6	4	96.1	4	-1E+10	1	-1E+10	1	-1E+10	1	-1E+10	1	-1E+10	1	-1E+10	1
4901784	134	C	03/06/2019	10:44	-133.110	43.189	0	74.60	0	10.1740	0	33.5850	8	25.820	0	73.993	0	265.7	4	96.1	4	-1E+10	1	-1E+10	1	-1E+10	1	-1E+10	1	-1E+10	1	-1E+10	1
4901784	134	C	03/06/2019	10:44	-133.110	43.189	0	76.20	0	10.1750	0	33.5850	8	25.819	0	75.580	0	265.6	4	96.1	4	-1E+10	1	-1E+10	1	-1E+10	1	-1E+10	1	-1E+10	1	-1E+10	1
4901784	134	C	03/06/2019	10:44	-133.110	43.189	0	77.80	0	10.1870	0	33.5870	8	25.819	0	77.167	0	265.5	4	96.1	4	-1E+10	1	-1E+10	1	-1E+10	1	-1E+10	1	-1E+10	1	-1E+10	1
4901784	134	C	03/06/2019	10:44	-133.110	43.189	0	79.40	0	10.1870	0	33.5870	8	25.819	0	78.753	0	265.3	4	96.0	4	-1E+10	1	-1E+10	1	-1E+10	1	-1E+10	1	-1E+10	1	-1E+10	1
4901784	134	C	03/06/2019	10:44	-133.110	43.189	0	80.90	0	10.1870	0	33.5880	8	25.820	0	80.241	0	265.3	4	96.0	4	-1E+10	1	-1E+10	1	-1E+10	1	-1E+10	1	-1E+10	1	-1E+10	1
4901784	134	C	03/06/2019	10:44	-133.110	43.189	0	82.60	0	10.1880	0	33.5880	8	25.820	0	81.927	0	265.2	4	96.0	4	-1E+10	1	-1E+10	1	-1E+10	1	-1E+10	1	-1E+10	1	-1E+10	1
4901784	134	C	03/06/2019	10:44	-133.110	43.189	0	84.20	0	10.1880	0	33.5880	8	25.820	0	83.513	0	265.3	4	96.0	4	-1E+10	1	-1E+10	1	-1E+10	1	-1E+10	1	-1E+10	1	-1E+10	1
4901784	134	C	03/06/2019	10:44	-133.110	43.189	0	85.80	0	10.1870	0	33.5880	8	25.820	0	85.100	0	265.0	4	95.9	4	-1E+10	1	-1E+10	1	-1E+10	1	-1E+10	1	-1E+10	1	-1E+10	1
4901784	134	C	03/06/2019	10:44	-133.110	43.189	0	87.60	0	10.1810	0	33.5880	8	25.821	0	86.885	0	265.0	4	95.9	4	-1E+10	1	-1E+10	1	-1E+10	1	-1E+10	1	-1E+10	1	-1E+10	1
4901784	134	C	03/06/2019	10:44	-133.110	43.189	0	89.20	0	10.1780	0	33.5900	8	25.823	0	88.472	0	264.8	4	95.8	4	-1E+10	1	-1E+10	1	-1E+10	1	-1E+10	1	-1E+10	1	-1E+10	1
4901784	134	C	03/06/2019	10:44	-133.110	43.189	0	90.80	0	10.1810	0	33.5880	8	25.821	0	90.058	0	264.8	4	95.8	4	-1E+10	1	-1E+10	1	-1E+10	1	-1E+10	1	-1E+10	1	-1E+10	1
4901784	134	C	03/06/2019	10:44	-133.110	43.189	0	92.60	0	10.1800	0	33.5910	8	25.824	0	91.843	0	264.5	4	95.7	4	-1E+10	1	-1E+10	1	-1E+10	1	-1E+10	1	-1E+10	1	-1E+10	1
4901784	134	C	03/06/2019	10:44	-133.110	43.189	0	94.40	0	10.1760	0	33.5870	8	25.821	0	93.628	0	264.2	4	95.6	4	-1E+10	1	-1E+10	1	-1E+10	1	-1E+10	1	-1E+10	1	-1E+10	1
4901784	134	C	03/06/2019	10:44	-133.110	43.189	0	96.30	0	10.1550	0	33.5870	8	25.825	0	95.512	0	264.1	4	95.5	4	-1E+10	1	-1E+10	1	-1E+10	1	-1E+10	1	-1E+10	1	-1E+10	1
4901784	134	C	03/06/2019	10:44	-133.110	43.189	0	98.50	0	10.1430	0	33.5880	8	25.828	0	97.693	0	263.7	4	95.4	4	-1E+10	1	-1E+10	1	-1E+10	1	-1E+10	1	-1E+10	1	-1E+10	1
4901784	134	C	03/06/2019	10:44	-133.110	43.189	0	99.00	0	10.1530	0	33.5880	8	25.826	0	98.189	0	263.7	4	95.4	4	-1E+10	1	-1E+10	1	-1E+10	1	-1E+10	1	-1E+10	1	-1E+10	1
4901784	134	C	03/06/2019	10:44	-133.110	43.189	0	102.80	0	10.1500	0	33.5850	8	25.824	0	101.957	0	261.9	4	94.7	4	-1E+10	1	-1E+10	1	-1E+10	1	-1E+10	1	-1E+10	1	-1E+10	1
4901784	134	C	03/06/2019	10:44	-133.110	43.189	0	105.10	0	10.1220	0	33.5790	8	25.824	0	104.238	0	260.5	4	94.1	4	-1E+10	1	-1E+10	1	-1E+10	1	-1E+10	1	-1E+10	1	-1E+10	1
4901784	134	C	03/06/2019	10:44	-133.110	43.189	0	107.40	0	10.1100	0	33.5790	8	25.826	0	106.518	0	258.0	4	93.2	4	-1E+10	1	-1E+10	1	-1E+10	1	-1E+10	1	-1E+10	1	-1E+10	1
4901784	134	C	03/06/2019	10:44	-133.110	43.189	0	110.30	0	10.0630	0	33.5680	8	25.826	0	109.394	0	252.7	4	91.2	4	-1E+10	1	-1E+10	1	-1E+10	1	-1E+10	1	-1E+10	1	-1E+10	1
4901784	134	C	03/06/2019	10:44	-133.110	43.189	0	112.50	0	9.8840	0	33.5700	8	25.857	0	111.575	0	247.7	4	89.0	4	-1E+10	1	-1E+10	1	-1E+10	1	-1E+10	1	-1E+10	1	-1E+10	1
4901784	134	C	03/06/2019	10:44	-133.110	43.189	0	114.90	0	9.4130	0	33.6490	8	25.997	0	113.955	0	244.9	4	87.2	4	-1E+10	1	-1E+10	1	-1E+10	1	-1E+10	1	-1E+10	1	-1E+10	1
4901784	134	C	03/06/2019	10:44	-133.110	43.189	0	117.50	0	8.9260	0	33.7380	8	26.144	0	116.532	0	243.0	4	85.7	4	-1E+10	1	-1E+10	1	-1E+10	1	-1E+10	1	-1E+10	1	-1E+10	1
4901784	134	C	03/06/2019	10:44	-133.110	43.189	0	120.10	0	8.8040	0	33.7540	8	26.176	0	119.110	0	243.2	4	85.5	4	-1E+10	1	-1E+10	1	-1E+10	1	-1E+10	1	-1E+10	1	-1E+10	1
4901784	134	C	03/06/2019	10:44	-133.110	43.189	0	122.80	0	8.6760	0	33.7660	8	26.205	0	121.787	0	241.9	4	84.8	4	-1E+10	1	-1E+10	1	-1E+10	1	-1E+10	1	-1E+10	1	-1E+10	1
4901784	134	C	03/06/2019	10:44	-133.110	43.189	0	124.60	0	8.5550	0	33.8050	8	26.254	0	123.572	0	241.6	4	84.5	4	-1E+10	1	-1E+10	1	-1E+10	1	-1E+10	1	-1E+10	1	-1E+10	1
4901784	134	C	03/06/2019	10:44	-133.110	43.189	0	127.20	0	8.5390	0	33.8180	8	26.267	0	126.150	0	240.5	4	84.1	4	-1E+10	1	-1E+10	1	-1E+10	1	-1E+10	1	-1E+10	1	-1E+10	1
4901784	134	C	03/06/2019	10:44	-133.110	43.189	0	129.70	0	8.5340	0	33.8230	8	26.271	0	128.628	0	238.9	4	83.6	4	-1E+10	1	-1E+10	1	-1E+10	1	-1E+10	1	-1E+10	1	-1E+10	1
4901784	134	C	03/06/2019	10:44	-133.110	43.189	0	132.20	0	8.5600	0	33.8640	8	26.300	0	131.107	0	236.1	4	82.6	4	-1E+10	1	-1E+10	1	-1E+10	1	-1E+10	1	-1E+10	1	-1E+10	1
4901784	134	C	03/06/2019	10:44	-133.110	43.189	0	134.80	0	8.5390	0	33.8830	8	26.318	0	133.684	0	233.3	4	81.6	4	-1E+10	1	-1E+10	1	-1E+10	1	-1E+10	1	-1E+10	1	-1E+10	1
4901784	134	C	03/06/2019	10:44	-133.110	43.189	0	137.40	0	8.5020	0	33.9360	8	26.365	0	136.262	0	229.1	4	80.1	4	-1E+10	1	-1E+10	1	-1E+10	1	-1E+10	1	-1E+10	1	-1E+10	1
4901784	134	C	03/06/2019	10:44	-133.110	43.189	0	140.10	0	8.5400	0	34.0530	8	26.451	0	138.939	0	223.2	4	78.2	4	-1E+10	1	-1E+10	1	-1E+10	1	-1E+10	1	-1E+10	1	-1E+10	1
4901784	134	C	03/06/2019	10:44	-133.110	43.189	0	142.00	0	8.3680	0	34.1530	8	26.556	0	140.822	0	221.6	4	77.4	4	-1E+10	1	-1E+10	1	-1E+10	1	-1E+10	1	-1E+10	1	-1E+10	1
4901784	134	C	03/06/2019	10:44	-133.110	43.189	0	144.80	0	8.3240	0	34.1880	8	26.590	0	143.598	0	220.5	4	77.0	4	-1E+10	1	-1E+10	1	-1E+10	1	-1E+10	1	-1E+10	1	-1E+10	1
4901784	134	C	03/06/2019	10:44	-133.110	43.189	0	147.50	0	8.3000	0	34.1990	8	26.602	0	146.275	0	218.9	4	76.4	4	-1E+10	1	-1E+10	1	-1E+10	1	-1E+10	1	-1E+10	1	-1E+10	1
4901784	134	C	03/06/2019	10:44	-133.110	43.189	0	150.30	0	8.2830	0	34.2260	8	26.626	0	149.051	0	216.7	4	75.6	4	-1E+10	1	-1E+10	1	-1E+10	1	-1E+10	1	-1E+10	1	-1E+10	1
4901784	134	C	03/06/2019	10:44	-133.110	43.189	0	153.00	0	8.2590	0	34.2450	8	26.645	0	151.727	0	214.1	4	74.7	4	-1E+10	1	-1E+10	1	-1E+10	1	-1E+10	1	-1E+10	1	-1E+10	1
4901784	134	C	03/06/2019	10:44	-133.110	43.189	0	154.80	0	8.2340	0	34.2900	8	26.684	0	153.512	0	212.2	4	73.9	4	-1E+10	1	-1E+10	1	-1E+10	1	-1E+10	1	-1E+10	1	-1E+10	1
4901784	134	C	03/06/2019	10:44	-133.110	43.189	0	157.50	0	8.1960	0	34.3550	8	26.741	0	156.188	0	210.2	4	73.2	4	-1E+10	1	-1E+10	1	-1E+10	1	-1E+10	1	-1E+10	1	-1E+10	1
4901784	134	C	03/06/2019	10:44	-133.110	43.189	0	160.70	0	8.1880	0	34.4020	8	26.779	0	159.360	0	208.1	4	72.5	4	-1E+10	1	-1E+10	1	-1E+10	1	-1E+10	1	-1E+10	1	-1E+10	1
4901784	134	C	03/06/2019	10:44	-133.110	43.189	0	162.40	0	8.1750	0	34.4220	8	26.796	0	161.045	0	207.1	4	72.2	4	-1E+10	1	-1E+10	1	-1E+10	1	-1E+10	1	-1E+10	1	-1E+10	1
4901784	134	C	03/06/2019	10:44	-133.110	43.189	0	164.50	0	8.1550	0	34.4680	8	26.836	0	163.127	0	205.7	4	71.7	4	-1E+10	1	-1E+10	1	-1E+10	1	-1E+10	1	-1E+10	1	-1E+10	1
4901784	134	C	03/06/2019	10:44	-133.110	43.189	0	167.40	0	8.1260	0	34.4930	8	26.860	0	166.002	0	202.7	4	70.6	4	-1E+10	1	-1E+10	1	-1E+10	1	-1E+10	1	-1E+10	1	-1E+10	1
4901784	134	C	03/06/2019	10:44	-133.110	43.189	0	170.30	0	8.1530	0	34.5300	8	26.885	0	168.876	0	197.4	4	68.8	4	-1E+10	1	-1E+10	1	-1E+10	1	-1E+10	1	-1E+10	1	-1E+10	1
4901784	134	C	03/06/2019	10:44	-133.110	43.189	0	172.70	0	8.1600	0	34.5450	8	26.895	0	171.255	0	192.3	4	67.0	4	-1E+10	1	-1E+10	1	-1E+10	1	-1E+10	1	-1E+10	1	-1E+10	1
4901784	134	C	03/06/2019	10:44	-133.110	43.189	0	175.20	0	8.2270	0	34.6390	8	26.959	0	173.733	0	186.1	4	65.0	4	-1E+10	1	-1E+10	1	-1E+10	1	-1E+10	1	-1E+10	1	-1E+10	1
4901784	134	C	03/06/2019	10:44	-133.110	43.189	0	177.60	0	8.2620	0	34.6990	8	27.001	0	176.112	0	181.7	4	63.6	4	-1E+10	1	-1E+10	1	-1E+10	1	-1E+10	1	-1E+10	1	-1E+10	1
4901784	134	C	03/06/2019	10:44	-133.110	43.189	0	180.00	0	8.2850	0	34.7450	8	27.034	0	178.491	0	178.9	4	62.6	4	-1E+10	1	-1E+10	1	-1E+10	1	-1E+10	1	-1E+10	1	-1E+10	1
4901784	134	C	03/06/2019	10:44	-133.110	43.189	0	182.50	0	8.2950	0	34.7740	8	27.055	0	180.969	0	177.0	4	62.0	4	-1E+10	1	-1E+10	1	-1E+10	1	-1E+10	1	-1E+10	1	-1E+10	1
4901784	134	C	03/06/2019	10:44	-133.110	43.189	0	184.90	0	8.3040	0	34.8230	8	27.092	0	183.348	0	175.6	4	61.6	4	-1E+10	1	-1E+10	1	-1E+10	1	-1E+10	1	-1E+10	1	-1E+10	1
4901784	134	C	03/06/2019	10:44	-133.110	43.189	0	187.40	0	8.3080	0	34.8420	8	27.106	0	185.825	0	174.4	4	61.1	4	-1E+10	1	-1E+10	1	-1E+10	1	-1E+10	1	-1E+10	1	-1E+10	1
4901784	134	C	03/06/2019	10:44	-133.110	43.189	0	189.90	0	8.3130	0	34.8710	8	27.128	0	188.303	0	173.2	4	60.7	4	-1E+10	1	-1E+10	1	-1E+10	1	-1E+10	1	-1E+10	1	-1E+10	1
4901784	134	C	03/06/2019	10:44	-133.110	43.189	0	192.60	0	8.3140	0	34.8850	8	27.139	0	190.979	0	171.9	4	60.3	4	-1E+10	1	-1E+10	1	-1E+10	1	-1E+10	1	-1E+10	1	-1E+10	1
4901784	134	C	03/06/2019	10:44	-133.110	43.189	0	195.10	0	8.3140	0	34.9030	8	27.153	0	193.457	0	170.6	4	59.8	4	-1E+10	1	-1E+10	1	-1E+10	1	-1E+10	1	-1E+10	1	-1E+10	1
4901784	134	C	03/06/2019	10:44	-133.110	43.189	0	197.60	0	8.3120	0	34.9250	8	27.171	0	195.935	0	169.4	4	59.4	4	-1E+10	1	-1E+10	1	-1E+10	1	-1E+10	1	-1E+10	1	-1E+10	1
4901784	134	C	03/06/2019	10:44	-133.110	43.189	0	199.80	0	8.3040	0	34.9570	8	27.197	0	198.115	0	168.3	4	59.1	4	-1E+10	1	-1E+10	1	-1E+10	1	-1E+10	1	-1E+10	1	-1E+10	1
4901784	134	C	03/06/2019	10:44	-133.110	43.189	0	202.30	0	8.3010	0	34.9640	8	27.203	0	200.593	0	167.6	4	58.8	4	-1E+10	1	-1E+10	1	-1E+10	1	-1E+10	1	-1E+10	1	-1E+10	1
4901784	134	C	03/06/2019	10:44	-133.110	43.189	0	205.20	0	8.2930	0	34.9800	8	27.217	0	203.467	0	166.5	4	58.4	4	-1E+10	1	-1E+10	1	-1E+10	1	-1E+10	1	-1E+10	1	-1E+10	1
4901784	134	C	03/06/2019	10:44	-133.110	43.189	0	207.30	0	8.2850	0	34.9900	8	27.226	0	205.548	0	165.7	4	58.1	4	-1E+10	1	-1E+10	1	-1E+10	1	-1E+10	1	-1E+10	1	-1E+10	1
4901784	134	C	03/06/2019	10:44	-133.110	43.189	0	209.60	0	8.2730	0	35.0010	8	27.237	0	207.828	0	164.7	4	57.8	4	-1E+10	1	-1E+10	1	-1E+10	1	-1E+10	1	-1E+10	1	-1E+10	1
4901784	134	C	03/06/2019	10:44	-133.110	43.189	0	212.60	0	8.2440	0	35.0220	8	27.258	0	210.801	0	163.4	4	57.3	4	-1E+10	1	-1E+10	1	-1E+10	1	-1E+10	1	-1E+10	1	-1E+10	1
4901784	134	C	03/06/2019	10:44	-133.110	43.189	0	214.90	0	8.2230	0	35.0300	8	27.267	0	213.080	0	162.5	4	56.9	4	-1E+10	1	-1E+10	1	-1E+10	1	-1E+10	1	-1E+10	1	-1E+10	1
4901784	134	C	03/06/2019	10:44	-133.110	43.189	0	217.30	0	8.2040	0	35.0370	8	27.276	0	215.459	0	161.4	4	56.5	4	-1E+10	1	-1E+10	1	-1E+10	1	-1E+10	1	-1E+10	1	-1E+10	1
4901784	134	C	03/06/2019	10:44	-133.110	43.189	0	219.70	0	8.1800	0	35.0450	8	27.286	0	217.837	0	160.5	4	56.2	4	-1E+10	1	-1E+10	1	-1E+10	1	-1E+10	1	-1E+10	1	-1E+10	1
4901784	134	C	03/06/2019	10:44	-133.110	43.189	0	222.10	0	8.1650	0	35.0500	8	27.292	0	220.215	0	159.8	4	55.9	4	-1E+10	1	-1E+10	1	-1E+10	1	-1E+10	1	-1E+10	1	-1E+10	1
4901784	134	C	03/06/2019	10:44	-133.110	43.189	0	225.40	0	8.1400	0	35.0580	8	27.302	0	223.486	0	158.3	4	55.4	4	-1E+10	1	-1E+10	1	-1E+10	1	-1E+10	1	-1E+10	1	-1E+10	1
4901784	134	C	03/06/2019	10:44	-133.110	43.189	0	227.90	0	8.1180	0	35.0610	8	27.308	0	225.963	0	157.2	4	55.0	4	-1E+10	1	-1E+10	1	-1E+10	1	-1E+10	1	-1E+10	1	-1E+10	1
4901784	134	C	03/06/2019	10:44	-133.110	43.189	0	230.40	0	8.1030	0	35.0620	8	27.311	0	228.440	0	155.7	4	54.4	4	-1E+10	1	-1E+10	1	-1E+10	1	-1E+10	1	-1E+10	1	-1E+10	1
4901784	134	C	03/06/2019	10:44	-133.110	43.189	0	232.90	0	8.0640	0	35.0670	8	27.321	0	230.918	0	154.1	4	53.8	4	-1E+10	1	-1E+10	1	-1E+10	1	-1E+10	1	-1E+10	1	-1E+10	1
4901784	134	C	03/06/2019	10:44	-133.110	43.189	0	234.60	0	8.0280	0	35.0680	8	27.327	0	232.602	0	152.7	4	53.3	4	-1E+10	1	-1E+10	1	-1E+10	1	-1E+10	1	-1E+10	1	-1E+10	1
4901784	134	C	03/06/2019	10:44	-133.110	43.189	0	237.20	0	7.9320	0	35.0760	8	27.348	0	235.179	0	151.5	4	52.7	4	-1E+10	1	-1E+10	1	-1E+10	1	-1E+10	1	-1E+10	1	-1E+10	1
4901784	134	C	03/06/2019	10:44	-133.110	43.189	0	239.90	0	7.8960	0	35.0780	8	27.355	0	237.854	0	150.5	4	52.4	4	-1E+10	1	-1E+10	1	-1E+10	1	-1E+10	1	-1E+10	1	-1E+10	1
4901784	134	C	03/06/2019	10:44	-133.110	43.189	0	242.50	0	7.8500	0	35.0800	8	27.363	0	240.431	0	149.2	4	51.9	4	-1E+10	1	-1E+10	1	-1E+10	1	-1E+10	1	-1E+10	1	-1E+10	1
4901784	134	C	03/06/2019	10:44	-133.110	43.189	0	245.20	0	7.8180	0	35.0810	8	27.369	0	243.106	0	147.7	4	51.3	4	-1E+10	1	-1E+10	1	-1E+10	1	-1E+10	1	-1E+10	1	-1E+10	1
4901784	134	C	03/06/2019	10:44	-133.110	43.189	0	247.00	0	7.7630	0	35.0810	8	27.377	0	244.889	0	146.9	4	51.0	4	-1E+10	1	-1E+10	1	-1E+10	1	-1E+10	1	-1E+10	1	-1E+10	1
4901784	134	C	03/06/2019	10:44	-133.110	43.189	0	249.80	0	7.7040	0	35.0860	8	27.389	0	247.664	0	145.9	4	50.6	4	-1E+10	1	-1E+10	1	-1E+10	1	-1E+10	1	-1E+10	1	-1E+10	1
4901784	134	C	03/06/2019	10:44	-133.110	43.189	0	252.50	0	7.6860	0	35.0840	8	27.391	0	250.339	0	144.8	4	50.2	4	-1E+10	1	-1E+10	1	-1E+10	1	-1E+10	1	-1E+10	1	-1E+10	1
4901784	134	C	03/06/2019	10:44	-133.110	43.189	0	255.30	0	7.6360	0	35.0840	8	27.398	0	253.113	0	143.2	4	49.5	4	-1E+10	1	-1E+10	1	-1E+10	1	-1E+10	1	-1E+10	1	-1E+10	1
4901784	134	C	03/06/2019	10:44	-133.110	43.189	0	258.10	0	7.5700	0	35.0860	8	27.409	0	255.888	0	141.7	4	48.9	4	-1E+10	1	-1E+10	1	-1E+10	1	-1E+10	1	-1E+10	1	-1E+10	1
4901784	134	C	03/06/2019	10:44	-133.110	43.189	0	259.90	0	7.5260	0	35.0870	8	27.416	0	257.671	0	140.8	4	48.6	4	-1E+10	1	-1E+10	1	-1E+10	1	-1E+10	1	-1E+10	1	-1E+10	1
4901784	134	C	03/06/2019	10:44	-133.110	43.189	0	262.80	0	7.4700	0	35.0880	8	27.425	0	260.545	0	139.5	4	48.1	4	-1E+10	1	-1E+10	1	-1E+10	1	-1E+10	1	-1E+10	1	-1E+10	1
4901784	134	C	03/06/2019	10:44	-133.110	43.189	0	265.50	0	7.4150	0	35.0900	8	27.435	0	263.220	0	138.4	4	47.6	4	-1E+10	1	-1E+10	1	-1E+10	1	-1E+10	1	-1E+10	1	-1E+10	1
4901784	134	C	03/06/2019	10:44	-133.110	43.189	0	267.50	0	7.3660	0	35.0930	8	27.444	0	265.201	0	137.7	4	47.3	4	-1E+10	1	-1E+10	1	-1E+10	1	-1E+10	1	-1E+10	1	-1E+10	1
4901784	134	C	03/06/2019	10:44	-133.110	43.189	0	269.50	0	7.3450	0	35.0940	8	27.448	0	267.183	0	137.2	4	47.1	4	-1E+10	1	-1E+10	1	-1E+10	1	-1E+10	1	-1E+10	1	-1E+10	1
4901784	134	C	03/06/2019	10:44	-133.110	43.189	0	272.30	0	7.3190	0	35.0910	8	27.449	0	269.957	0	136.4	4	46.9	4	-1E+10	1	-1E+10	1	-1E+10	1	-1E+10	1	-1E+10	1	-1E+10	1
4901784	134	C	03/06/2019	10:44	-133.110	43.189	0	275.20	0	7.3010	0	35.0900	8	27.451	0	272.830	0	135.4	4	46.5	4	-1E+10	1	-1E+10	1	-1E+10	1	-1E+10	1	-1E+10	1	-1E+10	1
4901784	134	C	03/06/2019	10:44	-133.110	43.189	0	277.10	0	7.2780	0	35.0910	8	27.455	0	274.712	0	134.6	4	46.2	4	-1E+10	1	-1E+10	1	-1E+10	1	-1E+10	1	-1E+10	1	-1E+10	1
4901784	134	C	03/06/2019	10:44	-133.110	43.189	0	279.90	0	7.2430	0	35.0900	8	27.460	0	277.486	0	133.3	4	45.7	4	-1E+10	1	-1E+10	1	-1E+10	1	-1E+10	1	-1E+10	1	-1E+10	1
4901784	134	C	03/06/2019	10:44	-133.110	43.189	0	282.80	0	7.1900	0	35.0890	8	27.466	0	280.359	0	131.8	4	45.2	4	-1E+10	1	-1E+10	1	-1E+10	1	-1E+10	1	-1E+10	1	-1E+10	1
4901784	134	C	03/06/2019	10:44	-133.110	43.189	0	284.70	0	7.1330	0	35.0900	8	27.475	0	282.242	0	130.7	4	44.7	4	-1E+10	1	-1E+10	1	-1E+10	1	-1E+10	1	-1E+10	1	-1E+10	1
4901784	134	C	03/06/2019	10:44	-133.110	43.189	0	287.50	0	7.0370	0	35.0920	8	27.490	0	285.016	0	129.4	4	44.2	4	-1E+10	1	-1E+10	1	-1E+10	1	-1E+10	1	-1E+10	1	-1E+10	1
4901784	134	C	03/06/2019	10:44	-133.110	43.189	0	290.50	0	6.9800	0	35.0920	8	27.498	0	287.988	0	128.1	4	43.7	4	-1E+10	1	-1E+10	1	-1E+10	1	-1E+10	1	-1E+10	1	-1E+10	1
4901784	134	C	03/06/2019	10:44	-133.110	43.189	0	292.40	0	6.9270	0	35.0940	8	27.507	0	289.870	0	127.4	4	43.4	4	-1E+10	1	-1E+10	1	-1E+10	1	-1E+10	1	-1E+10	1	-1E+10	1
4901784	134	C	03/06/2019	10:44	-133.110	43.189	0	294.40	0	6.8850	0	35.0960	8	27.515	0	291.851	0	126.7	4	43.1	4	-1E+10	1	-1E+10	1	-1E+10	1	-1E+10	1	-1E+10	1	-1E+10	1
4901784	134	C	03/06/2019	10:44	-133.110	43.189	0	297.30	0	6.8530	0	35.0920	8	27.516	0	294.724	0	125.4	4	42.6	4	-1E+10	1	-1E+10	1	-1E+10	1	-1E+10	1	-1E+10	1	-1E+10	1
4901784	134	C	03/06/2019	10:44	-133.110	43.189	0	300.30	0	6.7890	0	35.0930	8	27.525	0	297.696	0	124.1	4	42.1	4	-1E+10	1	-1E+10	1	-1E+10	1	-1E+10	1	-1E+10	1	-1E+10	1
4901784	134	C	03/06/2019	10:44	-133.110	43.189	0	302.20	0	6.7710	0	35.0910	8	27.526	0	299.578	0	123.2	4	41.8	4	-1E+10	1	-1E+10	1	-1E+10	1	-1E+10	1	-1E+10	1	-1E+10	1
4901784	134	C	03/06/2019	10:44	-133.110	43.189	0	305.10	0	6.6900	0	35.0930	8	27.539	0	302.451	0	122.1	4	41.3	4	-1E+10	1	-1E+10	1	-1E+10	1	-1E+10	1	-1E+10	1	-1E+10	1
4901784	134	C	03/06/2019	10:44	-133.110	43.189	0	308.00	0	6.6280	0	35.0960	8	27.550	0	305.323	0	121.0	4	40.9	4	-1E+10	1	-1E+10	1	-1E+10	1	-1E+10	1	-1E+10	1	-1E+10	1
4901784	134	C	03/06/2019	10:44	-133.110	43.189	0	310.00	0	6.6030	0	35.0950	8	27.552	0	307.304	0	120.5	4	40.7	4	-1E+10	1	-1E+10	1	-1E+10	1	-1E+10	1	-1E+10	1	-1E+10	1
4901784	134	C	03/06/2019	10:44	-133.110	43.189	0	312.00	0	6.5910	0	35.0930	8	27.552	0	309.286	0	120.0	4	40.5	4	-1E+10	1	-1E+10	1	-1E+10	1	-1E+10	1	-1E+10	1	-1E+10	1
4901784	134	C	03/06/2019	10:44	-133.110	43.189	0	315.00	0	6.5710	0	35.0910	8	27.554	0	312.257	0	118.7	4	40.1	4	-1E+10	1	-1E+10	1	-1E+10	1	-1E+10	1	-1E+10	1	-1E+10	1
4901784	134	C	03/06/2019	10:44	-133.110	43.189	0	318.00	0	6.4790	0	35.0940	8	27.568	0	315.229	0	117.5	4	39.6	4	-1E+10	1	-1E+10	1	-1E+10	1	-1E+10	1	-1E+10	1	-1E+10	1
4901784	134	C	03/06/2019	10:44	-133.110	43.189	0	319.80	0	6.4420	0	35.0940	8	27.573	0	317.012	0	116.9	4	39.4	4	-1E+10	1	-1E+10	1	-1E+10	1	-1E+10	1	-1E+10	1	-1E+10	1
4901784	134	C	03/06/2019	10:44	-133.110	43.189	0	322.80	0	6.3950	0	35.0940	8	27.579	0	319.983	0	116.1	4	39.1	4	-1E+10	1	-1E+10	1	-1E+10	1	-1E+10	1	-1E+10	1	-1E+10	1
4901784	134	C	03/06/2019	10:44	-133.110	43.189	0	325.70	0	6.3360	0	35.0960	8	27.589	0	322.856	0	115.7	4	38.8	4	-1E+10	1	-1E+10	1	-1E+10	1	-1E+10	1	-1E+10	1	-1E+10	1
4901784	134	C	03/06/2019	10:44	-133.110	43.189	0	327.60	0	6.3310	0	35.0960	8	27.590	0	324.738	0	115.5	4	38.8	4	-1E+10	1	-1E+10	1	-1E+10	1	-1E+10	1	-1E+10	1	-1E+10	1
4901784	134	C	03/06/2019	10:44	-133.110	43.189	0	329.60	0	6.3300	0	35.0950	8	27.589	0	326.719	0	115.3	4	38.7	4	-1E+10	1	-1E+10	1	-1E+10	1	-1E+10	1	-1E+10	1	-1E+10	1
4901784	134	C	03/06/2019	10:44	-133.110	43.189	0	332.50	0	6.3220	0	35.0950	8	27.590	0	329.591	0	114.8	4	38.6	4	-1E+10	1	-1E+10	1	-1E+10	1	-1E+10	1	-1E+10	1	-1E+10	1
4901784	134	C	03/06/2019	10:44	-133.110	43.189	0	335.40	0	6.3100	0	35.0940	8	27.591	0	332.463	0	114.2	4	38.3	4	-1E+10	1	-1E+10	1	-1E+10	1	-1E+10	1	-1E+10	1	-1E+10	1
4901784	134	C	03/06/2019	10:44	-133.110	43.189	0	337.30	0	6.2850	0	35.0920	8	27.593	0	334.345	0	113.7	4	38.2	4	-1E+10	1	-1E+10	1	-1E+10	1	-1E+10	1	-1E+10	1	-1E+10	1
4901784	134	C	03/06/2019	10:44	-133.110	43.189	0	340.30	0	6.2180	0	35.0940	8	27.603	0	337.316	0	113.1	4	37.9	4	-1E+10	1	-1E+10	1	-1E+10	1	-1E+10	1	-1E+10	1	-1E+10	1
4901784	134	C	03/06/2019	10:44	-133.110	43.189	0	343.20	0	6.1930	0	35.0930	8	27.605	0	340.188	0	112.3	4	37.6	4	-1E+10	1	-1E+10	1	-1E+10	1	-1E+10	1	-1E+10	1	-1E+10	1
4901784	134	C	03/06/2019	10:44	-133.110	43.189	0	345.10	0	6.1840	0	35.0920	8	27.606	0	342.070	0	111.5	4	37.3	4	-1E+10	1	-1E+10	1	-1E+10	1	-1E+10	1	-1E+10	1	-1E+10	1
4901784	134	C	03/06/2019	10:44	-133.110	43.189	0	347.00	0	6.1530	0	35.0940	8	27.611	0	343.952	0	110.6	4	37.0	4	-1E+10	1	-1E+10	1	-1E+10	1	-1E+10	1	-1E+10	1	-1E+10	1
4901784	134	C	03/06/2019	10:44	-133.110	43.189	0	349.80	0	6.1150	0	35.0920	8	27.615	0	346.725	0	109.3	4	36.5	4	-1E+10	1	-1E+10	1	-1E+10	1	-1E+10	1	-1E+10	1	-1E+10	1
4901784	134	C	03/06/2019	10:44	-133.110	43.189	0	352.60	0	6.0580	0	35.0900	8	27.621	0	349.498	0	108.2	4	36.1	4	-1E+10	1	-1E+10	1	-1E+10	1	-1E+10	1	-1E+10	1	-1E+10	1
4901784	134	C	03/06/2019	10:44	-133.110	43.189	0	354.50	0	5.9870	0	35.0940	8	27.633	0	351.380	0	107.2	4	35.7	4	-1E+10	1	-1E+10	1	-1E+10	1	-1E+10	1	-1E+10	1	-1E+10	1
4901784	134	C	03/06/2019	10:44	-133.110	43.189	0	357.40	0	5.9530	0	35.0920	8	27.636	0	354.252	0	106.1	4	35.3	4	-1E+10	1	-1E+10	1	-1E+10	1	-1E+10	1	-1E+10	1	-1E+10	1
4901784	134	C	03/06/2019	10:44	-133.110	43.189	0	360.10	0	5.8960	0	35.0940	8	27.645	0	356.926	0	105.0	4	34.9	4	-1E+10	1	-1E+10	1	-1E+10	1	-1E+10	1	-1E+10	1	-1E+10	1
4901784	134	C	03/06/2019	10:44	-133.110	43.189	0	362.00	0	5.8690	0	35.0940	8	27.648	0	358.807	0	104.6	4	34.7	4	-1E+10	1	-1E+10	1	-1E+10	1	-1E+10	1	-1E+10	1	-1E+10	1
4901784	134	C	03/06/2019	10:44	-133.110	43.189	0	364.70	0	5.8430	0	35.0950	8	27.652	0	361.481	0	103.6	4	34.4	4	-1E+10	1	-1E+10	1	-1E+10	1	-1E+10	1	-1E+10	1	-1E+10	1
4901784	134	C	03/06/2019	10:44	-133.110	43.189	0	367.40	0	5.8150	0	35.0950	8	27.656	0	364.155	0	102.7	4	34.1	4	-1E+10	1	-1E+10	1	-1E+10	1	-1E+10	1	-1E+10	1	-1E+10	1
4901784	134	C	03/06/2019	10:44	-133.110	43.189	0	370.20	0	5.7930	0	35.0950	8	27.658	0	366.928	0	101.6	4	33.7	4	-1E+10	1	-1E+10	1	-1E+10	1	-1E+10	1	-1E+10	1	-1E+10	1
4901784	134	C	03/06/2019	10:44	-133.110	43.189	0	372.90	0	5.7770	0	35.0950	8	27.660	0	369.601	0	100.4	4	33.3	4	-1E+10	1	-1E+10	1	-1E+10	1	-1E+10	1	-1E+10	1	-1E+10	1
4901784	134	C	03/06/2019	10:44	-133.110	43.189	0	374.60	0	5.7480	0	35.0950	8	27.664	0	371.285	0	99.4	4	32.9	4	-1E+10	1	-1E+10	1	-1E+10	1	-1E+10	1	-1E+10	1	-1E+10	1
4901784	134	C	03/06/2019	10:44	-133.110	43.189	0	377.30	0	5.7060	0	35.0970	8	27.671	0	373.959	0	98.1	4	32.5	4	-1E+10	1	-1E+10	1	-1E+10	1	-1E+10	1	-1E+10	1	-1E+10	1
4901784	134	C	03/06/2019	10:44	-133.110	43.189	0	380.00	0	5.6280	0	35.1020	8	27.685	0	376.632	0	97.2	4	32.1	4	-1E+10	1	-1E+10	1	-1E+10	1	-1E+10	1	-1E+10	1	-1E+10	1
4901784	134	C	03/06/2019	10:44	-133.110	43.189	0	382.70	0	5.6080	0	35.1010	8	27.686	0	379.306	0	96.6	4	31.9	4	-1E+10	1	-1E+10	1	-1E+10	1	-1E+10	1	-1E+10	1	-1E+10	1
4901784	134	C	03/06/2019	10:44	-133.110	43.189	0	385.50	0	5.5890	0	35.1000	8	27.688	0	382.078	0	95.7	4	31.6	4	-1E+10	1	-1E+10	1	-1E+10	1	-1E+10	1	-1E+10	1	-1E+10	1
4901784	134	C	03/06/2019	10:44	-133.110	43.189	0	387.30	0	5.5430	0	35.1030	8	27.696	0	383.861	0	94.9	4	31.3	4	-1E+10	1	-1E+10	1	-1E+10	1	-1E+10	1	-1E+10	1	-1E+10	1
4901784	134	C	03/06/2019	10:44	-133.110	43.189	0	390.00	0	5.5200	0	35.1040	8	27.700	0	386.534	0	93.8	4	30.9	4	-1E+10	1	-1E+10	1	-1E+10	1	-1E+10	1	-1E+10	1	-1E+10	1
4901784	134	C	03/06/2019	10:44	-133.110	43.189	0	392.60	0	5.4820	0	35.1070	8	27.707	0	389.109	0	93.1	4	30.7	4	-1E+10	1	-1E+10	1	-1E+10	1	-1E+10	1	-1E+10	1	-1E+10	1
4901784	134	C	03/06/2019	10:44	-133.110	43.189	0	394.50	0	5.4720	0	35.1060	8	27.707	0	390.990	0	92.5	4	30.4	4	-1E+10	1	-1E+10	1	-1E+10	1	-1E+10	1	-1E+10	1	-1E+10	1
4901784	134	C	03/06/2019	10:44	-133.110	43.189	0	397.20	0	5.4450	0	35.1070	8	27.711	0	393.663	0	91.0	4	29.9	4	-1E+10	1	-1E+10	1	-1E+10	1	-1E+10	1	-1E+10	1	-1E+10	1
4901784	134	C	03/06/2019	10:44	-133.110	43.189	0	400.00	0	5.4150	0	35.1080	8	27.716	0	396.436	0	89.1	4	29.3	4	-1E+10	1	-1E+10	1	-1E+10	1	-1E+10	1	-1E+10	1	-1E+10	1
4901784	134	C	03/06/2019	10:44	-133.110	43.189	0	402.00	0	5.3980	0	35.1080	8	27.718	0	398.416	0	87.6	4	28.8	4	-1E+10	1	-1E+10	1	-1E+10	1	-1E+10	1	-1E+10	1	-1E+10	1
4901784	134	C	03/06/2019	10:44	-133.110	43.189	0	404.70	0	5.3570	0	35.1120	8	27.726	0	401.089	0	85.4	4	28.0	4	-1E+10	1	-1E+10	1	-1E+10	1	-1E+10	1	-1E+10	1	-1E+10	1
4901784	134	C	03/06/2019	10:44	-133.110	43.189	0	407.40	0	5.3160	0	35.1140	8	27.732	0	403.763	0	83.3	4	27.3	4	-1E+10	1	-1E+10	1	-1E+10	1	-1E+10	1	-1E+10	1	-1E+10	1
4901784	134	C	03/06/2019	10:44	-133.110	43.189	0	410.10	0	5.2830	0	35.1180	8	27.740	0	406.436	0	81.2	4	26.6	4	-1E+10	1	-1E+10	1	-1E+10	1	-1E+10	1	-1E+10	1	-1E+10	1
4901784	134	C	03/06/2019	10:44	-133.110	43.189	0	412.90	0	5.2530	0	35.1210	8	27.745	0	409.208	0	79.7	4	26.1	4	-1E+10	1	-1E+10	1	-1E+10	1	-1E+10	1	-1E+10	1	-1E+10	1
4901784	134	C	03/06/2019	10:44	-133.110	43.189	0	414.70	0	5.2290	0	35.1230	8	27.750	0	410.990	0	79.0	4	25.9	4	-1E+10	1	-1E+10	1	-1E+10	1	-1E+10	1	-1E+10	1	-1E+10	1
4901784	134	C	03/06/2019	10:44	-133.110	43.189	0	417.60	0	5.1990	0	35.1250	8	27.755	0	413.861	0	78.3	4	25.6	4	-1E+10	1	-1E+10	1	-1E+10	1	-1E+10	1	-1E+10	1	-1E+10	1
4901784	134	C	03/06/2019	10:44	-133.110	43.189	0	420.00	0	5.1740	0	35.1270	8	27.760	0	416.238	0	77.6	4	25.4	4	-1E+10	1	-1E+10	1	-1E+10	1	-1E+10	1	-1E+10	1	-1E+10	1
4901784	134	C	03/06/2019	10:44	-133.110	43.189	0	422.40	0	5.1430	0	35.1290	8	27.765	0	418.614	0	76.8	4	25.1	4	-1E+10	1	-1E+10	1	-1E+10	1	-1E+10	1	-1E+10	1	-1E+10	1
4901784	134	C	03/06/2019	10:44	-133.110	43.189	0	424.80	0	5.1150	0	35.1330	8	27.771	0	420.990	0	75.8	4	24.8	4	-1E+10	1	-1E+10	1	-1E+10	1	-1E+10	1	-1E+10	1	-1E+10	1
4901784	134	C	03/06/2019	10:44	-133.110	43.189	0	427.20	0	5.0950	0	35.1350	8	27.775	0	423.366	0	75.3	4	24.6	4	-1E+10	1	-1E+10	1	-1E+10	1	-1E+10	1	-1E+10	1	-1E+10	1
4901784	134	C	03/06/2019	10:44	-133.110	43.189	0	429.70	0	5.0930	0	35.1350	8	27.776	0	425.841	0	74.5	4	24.3	4	-1E+10	1	-1E+10	1	-1E+10	1	-1E+10	1	-1E+10	1	-1E+10	1
4901784	134	C	03/06/2019	10:44	-133.110	43.189	0	432.90	0	5.0690	0	35.1380	8	27.781	0	429.009	0	73.0	4	23.8	4	-1E+10	1	-1E+10	1	-1E+10	1	-1E+10	1	-1E+10	1	-1E+10	1
4901784	134	C	03/06/2019	10:44	-133.110	43.189	0	435.30	0	5.0340	0	35.1420	8	27.788	0	431.385	0	71.9	4	23.4	4	-1E+10	1	-1E+10	1	-1E+10	1	-1E+10	1	-1E+10	1	-1E+10	1
4901784	134	C	03/06/2019	10:44	-133.110	43.189	0	437.70	0	5.0120	0	35.1450	8	27.793	0	433.760	0	71.0	4	23.1	4	-1E+10	1	-1E+10	1	-1E+10	1	-1E+10	1	-1E+10	1	-1E+10	1
4901784	134	C	03/06/2019	10:44	-133.110	43.189	0	440.30	0	4.9910	0	35.1480	8	27.798	0	436.334	0	70.1	4	22.8	4	-1E+10	1	-1E+10	1	-1E+10	1	-1E+10	1	-1E+10	1	-1E+10	1
4901784	134	C	03/06/2019	10:44	-133.110	43.189	0	442.80	0	4.9880	0	35.1490	8	27.799	0	438.809	0	69.2	4	22.5	4	-1E+10	1	-1E+10	1	-1E+10	1	-1E+10	1	-1E+10	1	-1E+10	1
4901784	134	C	03/06/2019	10:44	-133.110	43.189	0	445.30	0	4.9780	0	35.1510	8	27.802	0	441.284	0	68.1	4	22.2	4	-1E+10	1	-1E+10	1	-1E+10	1	-1E+10	1	-1E+10	1	-1E+10	1
4901784	134	C	03/06/2019	10:44	-133.110	43.189	0	447.90	0	4.9740	0	35.1530	8	27.804	0	443.858	0	66.8	4	21.8	4	-1E+10	1	-1E+10	1	-1E+10	1	-1E+10	1	-1E+10	1	-1E+10	1
4901784	134	C	03/06/2019	10:44	-133.110	43.189	0	450.40	0	4.9690	0	35.1550	8	27.806	0	446.333	0	65.6	4	21.3	4	-1E+10	1	-1E+10	1	-1E+10	1	-1E+10	1	-1E+10	1	-1E+10	1
4901784	134	C	03/06/2019	10:44	-133.110	43.189	0	452.10	0	4.9650	0	35.1580	8	27.809	0	448.015	0	64.8	4	21.1	4	-1E+10	1	-1E+10	1	-1E+10	1	-1E+10	1	-1E+10	1	-1E+10	1
4901784	134	C	03/06/2019	10:44	-133.110	43.189	0	454.70	0	4.9620	0	35.1600	8	27.811	0	450.589	0	64.1	4	20.9	4	-1E+10	1	-1E+10	1	-1E+10	1	-1E+10	1	-1E+10	1	-1E+10	1
4901784	134	C	03/06/2019	10:44	-133.110	43.189	0	457.30	0	4.9580	0	35.1610	8	27.812	0	453.163	0	63.6	4	20.7	4	-1E+10	1	-1E+10	1	-1E+10	1	-1E+10	1	-1E+10	1	-1E+10	1
4901784	134	C	03/06/2019	10:44	-133.110	43.189	0	460.00	0	4.9500	0	35.1630	8	27.815	0	455.835	0	62.8	4	20.4	4	-1E+10	1	-1E+10	1	-1E+10	1	-1E+10	1	-1E+10	1	-1E+10	1
4901784	134	C	03/06/2019	10:44	-133.110	43.189	0	462.70	0	4.9420	0	35.1640	8	27.817	0	458.508	0	62.1	4	20.2	4	-1E+10	1	-1E+10	1	-1E+10	1	-1E+10	1	-1E+10	1	-1E+10	1
4901784	134	C	03/06/2019	10:44	-133.110	43.189	0	465.30	0	4.9340	0	35.1670	8	27.820	0	461.081	0	61.2	4	19.9	4	-1E+10	1	-1E+10	1	-1E+10	1	-1E+10	1	-1E+10	1	-1E+10	1
4901784	134	C	03/06/2019	10:44	-133.110	43.189	0	468.00	0	4.9210	0	35.1700	8	27.824	0	463.754	0	60.5	4	19.7	4	-1E+10	1	-1E+10	1	-1E+10	1	-1E+10	1	-1E+10	1	-1E+10	1
4901784	134	C	03/06/2019	10:44	-133.110	43.189	0	469.70	0	4.9130	0	35.1730	8	27.827	0	465.437	0	60.0	4	19.5	4	-1E+10	1	-1E+10	1	-1E+10	1	-1E+10	1	-1E+10	1	-1E+10	1
4901784	134	C	03/06/2019	10:44	-133.110	43.189	0	472.40	0	4.9080	0	35.1740	8	27.829	0	468.109	0	59.7	4	19.4	4	-1E+10	1	-1E+10	1	-1E+10	1	-1E+10	1	-1E+10	1	-1E+10	1
4901784	134	C	03/06/2019	10:44	-133.110	43.189	0	475.20	0	4.9010	0	35.1760	8	27.831	0	470.880	0	59.2	4	19.3	4	-1E+10	1	-1E+10	1	-1E+10	1	-1E+10	1	-1E+10	1	-1E+10	1
4901784	134	C	03/06/2019	10:44	-133.110	43.189	0	477.80	0	4.8950	0	35.1780	8	27.833	0	473.454	0	58.8	4	19.1	4	-1E+10	1	-1E+10	1	-1E+10	1	-1E+10	1	-1E+10	1	-1E+10	1
4901784	134	C	03/06/2019	10:44	-133.110	43.189	0	480.40	0	4.8920	0	35.1780	8	27.834	0	476.027	0	58.3	4	18.9	4	-1E+10	1	-1E+10	1	-1E+10	1	-1E+10	1	-1E+10	1	-1E+10	1
4901784	134	C	03/06/2019	10:44	-133.110	43.189	0	482.20	0	4.8890	0	35.1790	8	27.835	0	477.809	0	57.9	4	18.8	4	-1E+10	1	-1E+10	1	-1E+10	1	-1E+10	1	-1E+10	1	-1E+10	1
4901784	134	C	03/06/2019	10:44	-133.110	43.189	0	484.90	0	4.8860	0	35.1800	8	27.836	0	480.481	0	57.4	4	18.6	4	-1E+10	1	-1E+10	1	-1E+10	1	-1E+10	1	-1E+10	1	-1E+10	1
4901784	134	C	03/06/2019	10:44	-133.110	43.189	0	487.60	0	4.8750	0	35.1830	8	27.840	0	483.153	0	56.7	4	18.4	4	-1E+10	1	-1E+10	1	-1E+10	1	-1E+10	1	-1E+10	1	-1E+10	1
4901784	134	C	03/06/2019	10:44	-133.110	43.189	0	489.40	0	4.8720	0	35.1830	8	27.840	0	484.935	0	56.2	4	18.2	4	-1E+10	1	-1E+10	1	-1E+10	1	-1E+10	1	-1E+10	1	-1E+10	1
4901784	134	C	03/06/2019	10:44	-133.110	43.189	0	492.40	0	4.8580	0	35.1860	8	27.844	0	487.904	0	55.3	4	18.0	4	-1E+10	1	-1E+10	1	-1E+10	1	-1E+10	1	-1E+10	1	-1E+10	1
4901784	134	C	03/06/2019	10:44	-133.110	43.189	0	495.20	0	4.8390	0	35.1900	8	27.849	0	490.675	0	54.5	4	17.7	4	-1E+10	1	-1E+10	1	-1E+10	1	-1E+10	1	-1E+10	1	-1E+10	1
4901784	134	C	03/06/2019	10:44	-133.110	43.189	0	497.50	0	4.8150	0	35.1940	8	27.855	0	492.951	0	54.1	4	17.6	4	-1E+10	1	-1E+10	1	-1E+10	1	-1E+10	1	-1E+10	1	-1E+10	1
4901784	134	C	03/06/2019	10:44	-133.110	43.189	0	499.80	0	4.8050	0	35.1950	8	27.857	0	495.228	0	53.6	4	17.4	4	-1E+10	1	-1E+10	1	-1E+10	1	-1E+10	1	-1E+10	1	-1E+10	1
4901784	134	C	03/06/2019	10:44	-133.110	43.189	0	504.60	0	4.7900	0	35.1990	8	27.862	0	499.978	0	51.9	4	16.8	4	-1E+10	1	-1E+10	1	-1E+10	1	-1E+10	1	-1E+10	1	-1E+10	1
4901784	134	C	03/06/2019	10:44	-133.110	43.189	0	509.40	0	4.7730	0	35.2060	8	27.870	0	504.728	0	50.1	4	16.3	4	-1E+10	1	-1E+10	1	-1E+10	1	-1E+10	1	-1E+10	1	-1E+10	1
4901784	134	C	03/06/2019	10:44	-133.110	43.189	0	514.30	0	4.7490	0	35.2120	8	27.877	0	509.577	0	49.0	4	15.9	4	-1E+10	1	-1E+10	1	-1E+10	1	-1E+10	1	-1E+10	1	-1E+10	1
4901784	134	C	03/06/2019	10:44	-133.110	43.189	0	519.20	0	4.7270	0	35.2160	8	27.883	0	514.426	0	47.7	4	15.4	4	-1E+10	1	-1E+10	1	-1E+10	1	-1E+10	1	-1E+10	1	-1E+10	1
4901784	134	C	03/06/2019	10:44	-133.110	43.189	0	524.20	0	4.7050	0	35.2230	8	27.891	0	519.374	0	46.3	4	15.0	4	-1E+10	1	-1E+10	1	-1E+10	1	-1E+10	1	-1E+10	1	-1E+10	1
4901784	134	C	03/06/2019	10:44	-133.110	43.189	0	529.30	0	4.6920	0	35.2270	8	27.896	0	524.420	0	45.0	4	14.6	4	-1E+10	1	-1E+10	1	-1E+10	1	-1E+10	1	-1E+10	1	-1E+10	1
4901784	134	C	03/06/2019	10:44	-133.110	43.189	0	534.40	0	4.6870	0	35.2310	8	27.900	0	529.467	0	43.0	4	13.9	4	-1E+10	1	-1E+10	1	-1E+10	1	-1E+10	1	-1E+10	1	-1E+10	1
4901784	134	C	03/06/2019	10:44	-133.110	43.189	0	539.50	0	4.6630	0	35.2410	8	27.910	0	534.513	0	41.5	4	13.4	4	-1E+10	1	-1E+10	1	-1E+10	1	-1E+10	1	-1E+10	1	-1E+10	1
4901784	134	C	03/06/2019	10:44	-133.110	43.189	0	544.70	0	4.6590	0	35.2450	8	27.914	0	539.659	0	40.7	4	13.1	4	-1E+10	1	-1E+10	1	-1E+10	1	-1E+10	1	-1E+10	1	-1E+10	1
4901784	134	C	03/06/2019	10:44	-133.110	43.189	0	549.90	0	4.6430	0	35.2480	8	27.918	0	544.804	0	39.8	4	12.9	4	-1E+10	1	-1E+10	1	-1E+10	1	-1E+10	1	-1E+10	1	-1E+10	1
4901784	134	C	03/06/2019	10:44	-133.110	43.189	0	555.10	0	4.6250	0	35.2510	8	27.923	0	549.948	0	38.8	4	12.5	4	-1E+10	1	-1E+10	1	-1E+10	1	-1E+10	1	-1E+10	1	-1E+10	1
4901784	134	C	03/06/2019	10:44	-133.110	43.189	0	560.40	0	4.6050	0	35.2560	8	27.929	0	555.192	0	37.3	4	12.1	4	-1E+10	1	-1E+10	1	-1E+10	1	-1E+10	1	-1E+10	1	-1E+10	1
4901784	134	C	03/06/2019	10:44	-133.110	43.189	0	565.60	0	4.5710	0	35.2640	8	27.939	0	560.337	0	35.8	4	11.5	4	-1E+10	1	-1E+10	1	-1E+10	1	-1E+10	1	-1E+10	1	-1E+10	1
4901784	134	C	03/06/2019	10:44	-133.110	43.189	0	570.00	0	4.5520	0	35.2720	8	27.948	0	564.690	0	34.5	4	11.1	4	-1E+10	1	-1E+10	1	-1E+10	1	-1E+10	1	-1E+10	1	-1E+10	1
4901784	134	C	03/06/2019	10:44	-133.110	43.189	0	574.50	0	4.5330	0	35.2770	8	27.954	0	569.142	0	33.9	4	10.9	4	-1E+10	1	-1E+10	1	-1E+10	1	-1E+10	1	-1E+10	1	-1E+10	1
4901784	134	C	03/06/2019	10:44	-133.110	43.189	0	579.90	0	4.5200	0	35.2790	8	27.957	0	574.484	0	33.4	4	10.8	4	-1E+10	1	-1E+10	1	-1E+10	1	-1E+10	1	-1E+10	1	-1E+10	1
4901784	134	C	03/06/2019	10:44	-133.110	43.189	0	585.30	0	4.5020	0	35.2820	8	27.961	0	579.826	0	32.4	4	10.4	4	-1E+10	1	-1E+10	1	-1E+10	1	-1E+10	1	-1E+10	1	-1E+10	1
4901784	134	C	03/06/2019	10:44	-133.110	43.189	0	589.90	0	4.4800	0	35.2880	8	27.968	0	584.377	0	31.6	4	10.2	4	-1E+10	1	-1E+10	1	-1E+10	1	-1E+10	1	-1E+10	1	-1E+10	1
4901784	134	C	03/06/2019	10:44	-133.110	43.189	0	594.60	0	4.4700	0	35.2910	8	27.972	0	589.026	0	31.0	4	10.0	4	-1E+10	1	-1E+10	1	-1E+10	1	-1E+10	1	-1E+10	1	-1E+10	1
4901784	134	C	03/06/2019	10:44	-133.110	43.189	0	600.10	0	4.4560	0	35.2940	8	27.976	0	594.467	0	30.3	4	9.8	4	-1E+10	1	-1E+10	1	-1E+10	1	-1E+10	1	-1E+10	1	-1E+10	1
4901784	134	C	03/06/2019	10:44	-133.110	43.189	0	605.60	0	4.4400	0	35.2980	8	27.981	0	599.907	0	29.8	4	9.6	4	-1E+10	1	-1E+10	1	-1E+10	1	-1E+10	1	-1E+10	1	-1E+10	1
4901784	134	C	03/06/2019	10:44	-133.110	43.189	0	610.30	0	4.4190	0	35.3010	8	27.986	0	604.556	0	29.2	4	9.4	4	-1E+10	1	-1E+10	1	-1E+10	1	-1E+10	1	-1E+10	1	-1E+10	1
4901784	134	C	03/06/2019	10:44	-133.110	43.189	0	614.90	0	4.4110	0	35.3040	8	27.989	0	609.106	0	28.6	4	9.2	4	-1E+10	1	-1E+10	1	-1E+10	1	-1E+10	1	-1E+10	1	-1E+10	1
4901784	134	C	03/06/2019	10:44	-133.110	43.189	0	620.50	0	4.3810	0	35.3100	8	27.997	0	614.645	0	28.0	4	9.0	4	-1E+10	1	-1E+10	1	-1E+10	1	-1E+10	1	-1E+10	1	-1E+10	1
4901784	134	C	03/06/2019	10:44	-133.110	43.189	0	625.20	0	4.3750	0	35.3110	8	27.999	0	619.294	0	27.6	4	8.9	4	-1E+10	1	-1E+10	1	-1E+10	1	-1E+10	1	-1E+10	1	-1E+10	1
4901784	134	C	03/06/2019	10:44	-133.110	43.189	0	629.80	0	4.3590	0	35.3150	8	28.004	0	623.843	0	27.0	4	8.7	4	-1E+10	1	-1E+10	1	-1E+10	1	-1E+10	1	-1E+10	1	-1E+10	1
4901784	134	C	03/06/2019	10:44	-133.110	43.189	0	635.30	0	4.3440	0	35.3200	8	28.009	0	629.283	0	26.1	4	8.4	4	-1E+10	1	-1E+10	1	-1E+10	1	-1E+10	1	-1E+10	1	-1E+10	1
4901784	134	C	03/06/2019	10:44	-133.110	43.189	0	639.90	0	4.3260	0	35.3260	8	28.016	0	633.832	0	25.6	4	8.2	4	-1E+10	1	-1E+10	1	-1E+10	1	-1E+10	1	-1E+10	1	-1E+10	1
4901784	134	C	03/06/2019	10:44	-133.110	43.189	0	644.60	0	4.3130	0	35.3290	8	28.020	0	638.481	0	25.2	4	8.1	4	-1E+10	1	-1E+10	1	-1E+10	1	-1E+10	1	-1E+10	1	-1E+10	1
4901784	134	C	03/06/2019	10:44	-133.110	43.189	0	650.10	0	4.3070	0	35.3310	8	28.022	0	643.920	0	24.5	4	7.9	4	-1E+10	1	-1E+10	1	-1E+10	1	-1E+10	1	-1E+10	1	-1E+10	1
4901784	134	C	03/06/2019	10:44	-133.110	43.189	0	655.50	0	4.3010	0	35.3360	8	28.027	0	649.260	0	23.8	4	7.6	4	-1E+10	1	-1E+10	1	-1E+10	1	-1E+10	1	-1E+10	1	-1E+10	1
4901784	134	C	03/06/2019	10:44	-133.110	43.189	0	660.20	0	4.2890	0	35.3400	8	28.031	0	653.908	0	23.2	4	7.4	4	-1E+10	1	-1E+10	1	-1E+10	1	-1E+10	1	-1E+10	1	-1E+10	1
4901784	134	C	03/06/2019	10:44	-133.110	43.189	0	664.90	0	4.2750	0	35.3440	8	28.036	0	658.556	0	22.7	4	7.3	4	-1E+10	1	-1E+10	1	-1E+10	1	-1E+10	1	-1E+10	1	-1E+10	1
4901784	134	C	03/06/2019	10:44	-133.110	43.189	0	670.40	0	4.2640	0	35.3500	8	28.042	0	663.995	0	22.0	4	7.1	4	-1E+10	1	-1E+10	1	-1E+10	1	-1E+10	1	-1E+10	1	-1E+10	1
4901784	134	C	03/06/2019	10:44	-133.110	43.189	0	675.00	0	4.2510	0	35.3540	8	28.047	0	668.543	0	21.6	4	6.9	4	-1E+10	1	-1E+10	1	-1E+10	1	-1E+10	1	-1E+10	1	-1E+10	1
4901784	134	C	03/06/2019	10:44	-133.110	43.189	0	679.60	0	4.2450	0	35.3570	8	28.050	0	673.092	0	21.2	4	6.8	4	-1E+10	1	-1E+10	1	-1E+10	1	-1E+10	1	-1E+10	1	-1E+10	1
4901784	134	C	03/06/2019	10:44	-133.110	43.189	0	685.00	0	4.2420	0	35.3610	8	28.053	0	678.431	0	20.4	4	6.5	4	-1E+10	1	-1E+10	1	-1E+10	1	-1E+10	1	-1E+10	1	-1E+10	1
4901784	134	C	03/06/2019	10:44	-133.110	43.189	0	690.50	0	4.2390	0	35.3680	8	28.059	0	683.870	0	19.7	4	6.3	4	-1E+10	1	-1E+10	1	-1E+10	1	-1E+10	1	-1E+10	1	-1E+10	1
4901784	134	C	03/06/2019	10:44	-133.110	43.189	0	694.90	0	4.2390	0	35.3700	8	28.061	0	688.220	0	19.3	4	6.2	4	-1E+10	1	-1E+10	1	-1E+10	1	-1E+10	1	-1E+10	1	-1E+10	1
4901784	134	C	03/06/2019	10:44	-133.110	43.189	0	699.30	0	4.2320	0	35.3740	8	28.065	0	692.571	0	18.8	4	6.0	4	-1E+10	1	-1E+10	1	-1E+10	1	-1E+10	1	-1E+10	1	-1E+10	1
4901784	134	C	03/06/2019	10:44	-133.110	43.189	0	704.60	0	4.2250	0	35.3790	8	28.070	0	697.811	0	18.2	4	5.8	4	-1E+10	1	-1E+10	1	-1E+10	1	-1E+10	1	-1E+10	1	-1E+10	1
4901784	134	C	03/06/2019	10:44	-133.110	43.189	0	710.10	0	4.2140	0	35.3850	8	28.076	0	703.248	0	17.8	4	5.7	4	-1E+10	1	-1E+10	1	-1E+10	1	-1E+10	1	-1E+10	1	-1E+10	1
4901784	134	C	03/06/2019	10:44	-133.110	43.189	0	715.40	0	4.1980	0	35.3900	8	28.081	0	708.488	0	17.4	4	5.6	4	-1E+10	1	-1E+10	1	-1E+10	1	-1E+10	1	-1E+10	1	-1E+10	1
4901784	134	C	03/06/2019	10:44	-133.110	43.189	0	719.90	0	4.1910	0	35.3930	8	28.085	0	712.937	0	17.1	4	5.5	4	-1E+10	1	-1E+10	1	-1E+10	1	-1E+10	1	-1E+10	1	-1E+10	1
4901784	134	C	03/06/2019	10:44	-133.110	43.189	0	724.40	0	4.1790	0	35.3980	8	28.090	0	717.386	0	16.8	4	5.4	4	-1E+10	1	-1E+10	1	-1E+10	1	-1E+10	1	-1E+10	1	-1E+10	1
4901784	134	C	03/06/2019	10:44	-133.110	43.189	0	729.60	0	4.1690	0	35.4010	8	28.093	0	722.526	0	16.5	4	5.3	4	-1E+10	1	-1E+10	1	-1E+10	1	-1E+10	1	-1E+10	1	-1E+10	1
4901784	134	C	03/06/2019	10:44	-133.110	43.189	0	734.90	0	4.1580	0	35.4040	8	28.097	0	727.766	0	16.2	4	5.2	4	-1E+10	1	-1E+10	1	-1E+10	1	-1E+10	1	-1E+10	1	-1E+10	1
4901784	134	C	03/06/2019	10:44	-133.110	43.189	0	740.30	0	4.1450	0	35.4090	8	28.102	0	733.104	0	15.7	4	5.0	4	-1E+10	1	-1E+10	1	-1E+10	1	-1E+10	1	-1E+10	1	-1E+10	1
4901784	134	C	03/06/2019	10:44	-133.110	43.189	0	744.90	0	4.1240	0	35.4180	8	28.112	0	737.651	0	15.3	4	4.9	4	-1E+10	1	-1E+10	1	-1E+10	1	-1E+10	1	-1E+10	1	-1E+10	1
4901784	134	C	03/06/2019	10:44	-133.110	43.189	0	749.50	0	4.1160	0	35.4210	8	28.115	0	742.198	0	15.1	4	4.8	4	-1E+10	1	-1E+10	1	-1E+10	1	-1E+10	1	-1E+10	1	-1E+10	1
4901784	134	C	03/06/2019	10:44	-133.110	43.189	0	755.00	0	4.1060	0	35.4250	8	28.119	0	747.635	0	14.8	4	4.7	4	-1E+10	1	-1E+10	1	-1E+10	1	-1E+10	1	-1E+10	1	-1E+10	1
4901784	134	C	03/06/2019	10:44	-133.110	43.189	0	760.50	0	4.0910	0	35.4290	8	28.124	0	753.071	0	14.4	4	4.6	4	-1E+10	1	-1E+10	1	-1E+10	1	-1E+10	1	-1E+10	1	-1E+10	1
4901784	134	C	03/06/2019	10:44	-133.110	43.189	0	765.10	0	4.0710	0	35.4350	8	28.131	0	757.618	0	14.0	4	4.5	4	-1E+10	1	-1E+10	1	-1E+10	1	-1E+10	1	-1E+10	1	-1E+10	1
4901784	134	C	03/06/2019	10:44	-133.110	43.189	0	769.60	0	4.0530	0	35.4420	8	28.139	0	762.066	0	13.8	4	4.4	4	-1E+10	1	-1E+10	1	-1E+10	1	-1E+10	1	-1E+10	1	-1E+10	1
4901784	134	C	03/06/2019	10:44	-133.110	43.189	0	775.10	0	4.0400	0	35.4460	8	28.143	0	767.502	0	13.5	4	4.3	4	-1E+10	1	-1E+10	1	-1E+10	1	-1E+10	1	-1E+10	1	-1E+10	1
4901784	134	C	03/06/2019	10:44	-133.110	43.189	0	780.30	0	4.0250	0	35.4510	8	28.149	0	772.641	0	13.3	4	4.3	4	-1E+10	1	-1E+10	1	-1E+10	1	-1E+10	1	-1E+10	1	-1E+10	1
4901784	134	C	03/06/2019	10:44	-133.110	43.189	0	784.50	0	4.0120	0	35.4550	8	28.153	0	776.792	0	13.2	4	4.2	4	-1E+10	1	-1E+10	1	-1E+10	1	-1E+10	1	-1E+10	1	-1E+10	1
4901784	134	C	03/06/2019	10:44	-133.110	43.189	0	789.30	0	3.9910	0	35.4600	8	28.160	0	781.536	0	13.0	4	4.1	4	-1E+10	1	-1E+10	1	-1E+10	1	-1E+10	1	-1E+10	1	-1E+10	1
4901784	134	C	03/06/2019	10:44	-133.110	43.189	0	794.90	0	3.9680	0	35.4660	8	28.167	0	787.070	0	12.7	4	4.0	4	-1E+10	1	-1E+10	1	-1E+10	1	-1E+10	1	-1E+10	1	-1E+10	1
4901784	134	C	03/06/2019	10:44	-133.110	43.189	0	800.50	0	3.9490	0	35.4710	8	28.173	0	792.605	0	12.5	4	4.0	4	-1E+10	1	-1E+10	1	-1E+10	1	-1E+10	1	-1E+10	1	-1E+10	1
4901784	134	C	03/06/2019	10:44	-133.110	43.189	0	805.50	0	3.9370	0	35.4750	8	28.177	0	797.546	0	12.4	4	3.9	4	-1E+10	1	-1E+10	1	-1E+10	1	-1E+10	1	-1E+10	1	-1E+10	1
4901784	134	C	03/06/2019	10:44	-133.110	43.189	0	810.40	0	3.9140	0	35.4800	8	28.184	0	802.388	0	12.2	4	3.9	4	-1E+10	1	-1E+10	1	-1E+10	1	-1E+10	1	-1E+10	1	-1E+10	1
4901784	134	C	03/06/2019	10:44	-133.110	43.189	0	815.30	0	3.8990	0	35.4840	8	28.189	0	807.230	0	12.0	4	3.8	4	-1E+10	1	-1E+10	1	-1E+10	1	-1E+10	1	-1E+10	1	-1E+10	1
4901784	134	C	03/06/2019	10:44	-133.110	43.189	0	820.20	0	3.8810	0	35.4900	8	28.195	0	812.072	0	11.9	4	3.8	4	-1E+10	1	-1E+10	1	-1E+10	1	-1E+10	1	-1E+10	1	-1E+10	1
4901784	134	C	03/06/2019	10:44	-133.110	43.189	0	825.20	0	3.8750	0	35.4940	8	28.199	0	817.013	0	11.7	4	3.7	4	-1E+10	1	-1E+10	1	-1E+10	1	-1E+10	1	-1E+10	1	-1E+10	1
4901784	134	C	03/06/2019	10:44	-133.110	43.189	0	830.30	0	3.8640	0	35.5010	8	28.206	0	822.052	0	11.5	4	3.6	4	-1E+10	1	-1E+10	1	-1E+10	1	-1E+10	1	-1E+10	1	-1E+10	1
4901784	134	C	03/06/2019	10:44	-133.110	43.189	0	835.40	0	3.8420	0	35.5070	8	28.213	0	827.091	0	11.4	4	3.6	4	-1E+10	1	-1E+10	1	-1E+10	1	-1E+10	1	-1E+10	1	-1E+10	1
4901784	134	C	03/06/2019	10:44	-133.110	43.189	0	840.60	0	3.8190	0	35.5100	8	28.218	0	832.229	0	11.3	4	3.6	4	-1E+10	1	-1E+10	1	-1E+10	1	-1E+10	1	-1E+10	1	-1E+10	1
4901784	134	C	03/06/2019	10:44	-133.110	43.189	0	845.00	0	3.8040	0	35.5140	8	28.223	0	836.577	0	11.2	4	3.5	4	-1E+10	1	-1E+10	1	-1E+10	1	-1E+10	1	-1E+10	1	-1E+10	1
4901784	134	C	03/06/2019	10:44	-133.110	43.189	0	849.30	0	3.7890	0	35.5180	8	28.227	0	840.825	0	11.1	4	3.5	4	-1E+10	1	-1E+10	1	-1E+10	1	-1E+10	1	-1E+10	1	-1E+10	1
4901784	134	C	03/06/2019	10:44	-133.110	43.189	0	854.70	0	3.7770	0	35.5220	8	28.232	0	846.160	0	11.0	4	3.5	4	-1E+10	1	-1E+10	1	-1E+10	1	-1E+10	1	-1E+10	1	-1E+10	1
4901784	134	C	03/06/2019	10:44	-133.110	43.189	0	860.10	0	3.7710	0	35.5240	8	28.234	0	851.495	0	10.9	4	3.5	4	-1E+10	1	-1E+10	1	-1E+10	1	-1E+10	1	-1E+10	1	-1E+10	1
4901784	134	C	03/06/2019	10:44	-133.110	43.189	0	865.50	0	3.7610	0	35.5270	8	28.237	0	856.830	0	10.9	4	3.4	4	-1E+10	1	-1E+10	1	-1E+10	1	-1E+10	1	-1E+10	1	-1E+10	1
4901784	134	C	03/06/2019	10:44	-133.110	43.189	0	870.20	0	3.7480	0	35.5330	8	28.244	0	861.474	0	10.8	4	3.4	4	-1E+10	1	-1E+10	1	-1E+10	1	-1E+10	1	-1E+10	1	-1E+10	1
4901784	134	C	03/06/2019	10:44	-133.110	43.189	0	874.60	0	3.7460	0	35.5340	8	28.245	0	865.820	0	10.7	4	3.4	4	-1E+10	1	-1E+10	1	-1E+10	1	-1E+10	1	-1E+10	1	-1E+10	1
4901784	134	C	03/06/2019	10:44	-133.110	43.189	0	879.80	0	3.7350	0	35.5370	8	28.248	0	870.957	0	10.7	4	3.4	4	-1E+10	1	-1E+10	1	-1E+10	1	-1E+10	1	-1E+10	1	-1E+10	1
4901784	134	C	03/06/2019	10:44	-133.110	43.189	0	884.50	0	3.7270	0	35.5400	8	28.251	0	875.600	0	10.6	4	3.4	4	-1E+10	1	-1E+10	1	-1E+10	1	-1E+10	1	-1E+10	1	-1E+10	1
4901784	134	C	03/06/2019	10:44	-133.110	43.189	0	890.10	0	3.7180	0	35.5440	8	28.256	0	881.132	0	10.5	4	3.3	4	-1E+10	1	-1E+10	1	-1E+10	1	-1E+10	1	-1E+10	1	-1E+10	1
4901784	134	C	03/06/2019	10:44	-133.110	43.189	0	895.70	0	3.7050	0	35.5490	8	28.261	0	886.664	0	10.5	4	3.3	4	-1E+10	1	-1E+10	1	-1E+10	1	-1E+10	1	-1E+10	1	-1E+10	1
4901784	134	C	03/06/2019	10:44	-133.110	43.189	0	900.60	0	3.6930	0	35.5530	8	28.265	0	891.504	0	10.4	4	3.3	4	-1E+10	1	-1E+10	1	-1E+10	1	-1E+10	1	-1E+10	1	-1E+10	1
4901784	134	C	03/06/2019	10:44	-133.110	43.189	0	905.50	0	3.6840	0	35.5570	8	28.270	0	896.344	0	10.4	4	3.3	4	-1E+10	1	-1E+10	1	-1E+10	1	-1E+10	1	-1E+10	1	-1E+10	1
4901784	134	C	03/06/2019	10:44	-133.110	43.189	0	910.50	0	3.6780	0	35.5600	8	28.273	0	901.283	0	10.3	4	3.3	4	-1E+10	1	-1E+10	1	-1E+10	1	-1E+10	1	-1E+10	1	-1E+10	1
4901784	134	C	03/06/2019	10:44	-133.110	43.189	0	915.50	0	3.6680	0	35.5640	8	28.277	0	906.221	0	10.3	4	3.3	4	-1E+10	1	-1E+10	1	-1E+10	1	-1E+10	1	-1E+10	1	-1E+10	1
4901784	134	C	03/06/2019	10:44	-133.110	43.189	0	920.50	0	3.6560	0	35.5680	8	28.281	0	911.160	0	10.3	4	3.3	4	-1E+10	1	-1E+10	1	-1E+10	1	-1E+10	1	-1E+10	1	-1E+10	1
4901784	134	C	03/06/2019	10:44	-133.110	43.189	0	925.60	0	3.6420	0	35.5730	8	28.287	0	916.197	0	10.3	4	3.3	4	-1E+10	1	-1E+10	1	-1E+10	1	-1E+10	1	-1E+10	1	-1E+10	1
4901784	134	C	03/06/2019	10:44	-133.110	43.189	0	930.70	0	3.6290	0	35.5770	8	28.291	0	921.234	0	10.3	4	3.3	4	-1E+10	1	-1E+10	1	-1E+10	1	-1E+10	1	-1E+10	1	-1E+10	1
4901784	134	C	03/06/2019	10:44	-133.110	43.189	0	935.00	0	3.6180	0	35.5810	8	28.296	0	925.480	0	10.3	4	3.3	4	-1E+10	1	-1E+10	1	-1E+10	1	-1E+10	1	-1E+10	1	-1E+10	1
4901784	134	C	03/06/2019	10:44	-133.110	43.189	0	939.30	0	3.6100	0	35.5830	8	28.298	0	929.727	0	10.3	4	3.3	4	-1E+10	1	-1E+10	1	-1E+10	1	-1E+10	1	-1E+10	1	-1E+10	1
4901784	134	C	03/06/2019	10:44	-133.110	43.189	0	944.60	0	3.5950	0	35.5880	8	28.304	0	934.961	0	10.4	4	3.3	4	-1E+10	1	-1E+10	1	-1E+10	1	-1E+10	1	-1E+10	1	-1E+10	1
4901784	134	C	03/06/2019	10:44	-133.110	43.189	0	949.90	0	3.5750	0	35.5930	8	28.310	0	940.195	0	10.4	4	3.3	4	-1E+10	1	-1E+10	1	-1E+10	1	-1E+10	1	-1E+10	1	-1E+10	1
4901784	134	C	03/06/2019	10:44	-133.110	43.189	0	955.30	0	3.5610	0	35.5970	8	28.314	0	945.528	0	10.5	4	3.3	4	-1E+10	1	-1E+10	1	-1E+10	1	-1E+10	1	-1E+10	1	-1E+10	1
4901784	134	C	03/06/2019	10:44	-133.110	43.189	0	960.60	0	3.5440	0	35.6000	8	28.318	0	950.762	0	10.5	4	3.3	4	-1E+10	1	-1E+10	1	-1E+10	1	-1E+10	1	-1E+10	1	-1E+10	1
4901784	134	C	03/06/2019	10:44	-133.110	43.189	0	965.20	0	3.5320	0	35.6040	8	28.323	0	955.304	0	10.6	4	3.3	4	-1E+10	1	-1E+10	1	-1E+10	1	-1E+10	1	-1E+10	1	-1E+10	1
4901784	134	C	03/06/2019	10:44	-133.110	43.189	0	969.70	0	3.5240	0	35.6060	8	28.325	0	959.748	0	10.6	4	3.3	4	-1E+10	1	-1E+10	1	-1E+10	1	-1E+10	1	-1E+10	1	-1E+10	1
4901784	134	C	03/06/2019	10:44	-133.110	43.189	0	975.10	0	3.5120	0	35.6090	8	28.329	0	965.080	0	10.6	4	3.4	4	-1E+10	1	-1E+10	1	-1E+10	1	-1E+10	1	-1E+10	1	-1E+10	1
4901784	134	C	03/06/2019	10:44	-133.110	43.189	0	980.50	0	3.5020	0	35.6110	8	28.331	0	970.412	0	10.7	4	3.4	4	-1E+10	1	-1E+10	1	-1E+10	1	-1E+10	1	-1E+10	1	-1E+10	1
4901784	134	C	03/06/2019	10:44	-133.110	43.189	0	985.10	0	3.4970	0	35.6120	8	28.333	0	974.954	0	10.7	4	3.4	4	-1E+10	1	-1E+10	1	-1E+10	1	-1E+10	1	-1E+10	1	-1E+10	1
4901784	134	C	03/06/2019	10:44	-133.110	43.189	0	989.80	0	3.4820	0	35.6160	8	28.337	0	979.594	0	10.7	4	3.4	4	-1E+10	1	-1E+10	1	-1E+10	1	-1E+10	1	-1E+10	1	-1E+10	1
4901784	134	C	03/06/2019	10:44	-133.110	43.189	0	995.30	0	3.4630	0	35.6190	8	28.342	0	985.025	0	10.8	4	3.4	4	-1E+10	1	-1E+10	1	-1E+10	1	-1E+10	1	-1E+10	1	-1E+10	1
4901784	134	C	03/06/2019	10:44	-133.110	43.189	0	999.90	0	3.4550	0	35.6210	8	28.344	0	989.566	0	10.8	4	3.4	4	-1E+10	1	-1E+10	1	-1E+10	1	-1E+10	1	-1E+10	1	-1E+10	1
4901784	134	C	03/06/2019	10:44	-133.110	43.189	0	1004.60	0	3.4520	0	35.6230	8	28.346	0	994.207	0	10.9	4	3.4	4	-1E+10	1	-1E+10	1	-1E+10	1	-1E+10	1	-1E+10	1	-1E+10	1
4901784	134	C	03/06/2019	10:44	-133.110	43.189	0	1010.20	0	3.4440	0	35.6260	8	28.349	0	999.735	0	11.0	4	3.5	4	-1E+10	1	-1E+10	1	-1E+10	1	-1E+10	1	-1E+10	1	-1E+10	1
4901784	134	C	03/06/2019	10:44	-133.110	43.189	0	1015.50	0	3.4310	0	35.6290	8	28.353	0	1004.968	0	11.1	4	3.5	4	-1E+10	1	-1E+10	1	-1E+10	1	-1E+10	1	-1E+10	1	-1E+10	1
4901784	134	C	03/06/2019	10:44	-133.110	43.189	0	1020.30	0	3.4200	0	35.6320	8	28.357	0	1009.706	0	11.2	4	3.5	4	-1E+10	1	-1E+10	1	-1E+10	1	-1E+10	1	-1E+10	1	-1E+10	1
4901784	134	C	03/06/2019	10:44	-133.110	43.189	0	1025.10	0	3.4070	0	35.6350	8	28.360	0	1014.445	0	11.2	4	3.5	4	-1E+10	1	-1E+10	1	-1E+10	1	-1E+10	1	-1E+10	1	-1E+10	1
4901784	134	C	03/06/2019	10:44	-133.110	43.189	0	1030.00	0	3.3990	0	35.6370	8	28.363	0	1019.282	0	11.3	4	3.6	4	-1E+10	1	-1E+10	1	-1E+10	1	-1E+10	1	-1E+10	1	-1E+10	1
4901784	134	C	03/06/2019	10:44	-133.110	43.189	0	1035.00	0	3.3890	0	35.6400	8	28.366	0	1024.218	0	11.4	4	3.6	4	-1E+10	1	-1E+10	1	-1E+10	1	-1E+10	1	-1E+10	1	-1E+10	1
4901784	134	C	03/06/2019	10:44	-133.110	43.189	0	1039.90	0	3.3770	0	35.6420	8	28.369	0	1029.055	0	11.4	4	3.6	4	-1E+10	1	-1E+10	1	-1E+10	1	-1E+10	1	-1E+10	1	-1E+10	1
4901784	134	C	03/06/2019	10:44	-133.110	43.189	0	1044.90	0	3.3660	0	35.6430	8	28.371	0	1033.990	0	11.4	4	3.6	4	-1E+10	1	-1E+10	1	-1E+10	1	-1E+10	1	-1E+10	1	-1E+10	1
4901784	134	C	03/06/2019	10:44	-133.110	43.189	0	1049.80	0	3.3480	0	35.6450	8	28.374	0	1038.827	0	11.5	4	3.6	4	-1E+10	1	-1E+10	1	-1E+10	1	-1E+10	1	-1E+10	1	-1E+10	1
4901784	134	C	03/06/2019	10:44	-133.110	43.189	0	1054.90	0	3.3460	0	35.6480	8	28.377	0	1043.861	0	11.6	4	3.7	4	-1E+10	1	-1E+10	1	-1E+10	1	-1E+10	1	-1E+10	1	-1E+10	1
4901784	134	C	03/06/2019	10:44	-133.110	43.189	0	1059.80	0	3.3350	0	35.6500	8	28.380	0	1048.698	0	11.7	4	3.7	4	-1E+10	1	-1E+10	1	-1E+10	1	-1E+10	1	-1E+10	1	-1E+10	1
4901784	134	C	03/06/2019	10:44	-133.110	43.189	0	1064.80	0	3.3290	0	35.6520	8	28.382	0	1053.633	0	11.8	4	3.7	4	-1E+10	1	-1E+10	1	-1E+10	1	-1E+10	1	-1E+10	1	-1E+10	1
4901784	134	C	03/06/2019	10:44	-133.110	43.189	0	1069.70	0	3.3290	0	35.6530	8	28.383	0	1058.469	0	11.9	4	3.7	4	-1E+10	1	-1E+10	1	-1E+10	1	-1E+10	1	-1E+10	1	-1E+10	1
4901784	134	C	03/06/2019	10:44	-133.110	43.189	0	1074.70	0	3.3240	0	35.6550	8	28.385	0	1063.404	0	12.0	4	3.8	4	-1E+10	1	-1E+10	1	-1E+10	1	-1E+10	1	-1E+10	1	-1E+10	1
4901784	134	C	03/06/2019	10:44	-133.110	43.189	0	1079.70	0	3.3140	0	35.6570	8	28.387	0	1068.338	0	12.0	4	3.8	4	-1E+10	1	-1E+10	1	-1E+10	1	-1E+10	1	-1E+10	1	-1E+10	1
4901784	134	C	03/06/2019	10:44	-133.110	43.189	0	1084.70	0	3.3030	0	35.6590	8	28.390	0	1073.273	0	12.2	4	3.8	4	-1E+10	1	-1E+10	1	-1E+10	1	-1E+10	1	-1E+10	1	-1E+10	1
4901784	134	C	03/06/2019	10:44	-133.110	43.189	0	1089.90	0	3.3030	0	35.6610	8	28.392	0	1078.405	0	12.3	4	3.9	4	-1E+10	1	-1E+10	1	-1E+10	1	-1E+10	1	-1E+10	1	-1E+10	1
4901784	134	C	03/06/2019	10:44	-133.110	43.189	0	1095.40	0	3.2980	0	35.6630	8	28.394	0	1083.833	0	12.4	4	3.9	4	-1E+10	1	-1E+10	1	-1E+10	1	-1E+10	1	-1E+10	1	-1E+10	1
4901784	134	C	03/06/2019	10:44	-133.110	43.189	0	1100.00	0	3.2860	0	35.6650	8	28.397	0	1088.372	0	12.5	4	3.9	4	-1E+10	1	-1E+10	1	-1E+10	1	-1E+10	1	-1E+10	1	-1E+10	1
4901784	134	C	03/06/2019	10:44	-133.110	43.189	0	1104.70	0	3.2730	0	35.6670	8	28.399	0	1093.010	0	12.6	4	4.0	4	-1E+10	1	-1E+10	1	-1E+10	1	-1E+10	1	-1E+10	1	-1E+10	1
4901784	134	C	03/06/2019	10:44	-133.110	43.189	0	1110.20	0	3.2620	0	35.6690	8	28.402	0	1098.438	0	12.7	4	4.0	4	-1E+10	1	-1E+10	1	-1E+10	1	-1E+10	1	-1E+10	1	-1E+10	1
4901784	134	C	03/06/2019	10:44	-133.110	43.189	0	1114.90	0	3.2490	0	35.6720	8	28.406	0	1103.076	0	12.9	4	4.0	4	-1E+10	1	-1E+10	1	-1E+10	1	-1E+10	1	-1E+10	1	-1E+10	1
4901784	134	C	03/06/2019	10:44	-133.110	43.189	0	1119.60	0	3.2410	0	35.6730	8	28.407	0	1107.713	0	13.0	4	4.1	4	-1E+10	1	-1E+10	1	-1E+10	1	-1E+10	1	-1E+10	1	-1E+10	1
4901784	134	C	03/06/2019	10:44	-133.110	43.189	0	1125.20	0	3.2240	0	35.6760	8	28.411	0	1113.239	0	13.1	4	4.1	4	-1E+10	1	-1E+10	1	-1E+10	1	-1E+10	1	-1E+10	1	-1E+10	1
4901784	134	C	03/06/2019	10:44	-133.110	43.189	0	1129.90	0	3.2040	0	35.6790	8	28.416	0	1117.877	0	13.2	4	4.1	4	-1E+10	1	-1E+10	1	-1E+10	1	-1E+10	1	-1E+10	1	-1E+10	1
4901784	134	C	03/06/2019	10:44	-133.110	43.189	0	1134.60	0	3.1940	0	35.6810	8	28.418	0	1122.514	0	13.2	4	4.1	4	-1E+10	1	-1E+10	1	-1E+10	1	-1E+10	1	-1E+10	1	-1E+10	1
4901784	134	C	03/06/2019	10:44	-133.110	43.189	0	1140.30	0	3.1890	0	35.6820	8	28.420	0	1128.138	0	13.3	4	4.2	4	-1E+10	1	-1E+10	1	-1E+10	1	-1E+10	1	-1E+10	1	-1E+10	1
4901784	134	C	03/06/2019	10:44	-133.110	43.189	0	1145.00	0	3.1870	0	35.6830	8	28.421	0	1132.775	0	13.4	4	4.2	4	-1E+10	1	-1E+10	1	-1E+10	1	-1E+10	1	-1E+10	1	-1E+10	1
4901784	134	C	03/06/2019	10:44	-133.110	43.189	0	1149.80	0	3.1830	0	35.6830	8	28.421	0	1137.511	0	13.5	4	4.2	4	-1E+10	1	-1E+10	1	-1E+10	1	-1E+10	1	-1E+10	1	-1E+10	1
4901784	134	C	03/06/2019	10:44	-133.110	43.189	0	1155.50	0	3.1730	0	35.6850	8	28.424	0	1143.135	0	13.5	4	4.2	4	-1E+10	1	-1E+10	1	-1E+10	1	-1E+10	1	-1E+10	1	-1E+10	1
4901784	134	C	03/06/2019	10:44	-133.110	43.189	0	1160.30	0	3.1570	0	35.6880	8	28.428	0	1147.870	0	13.6	4	4.3	4	-1E+10	1	-1E+10	1	-1E+10	1	-1E+10	1	-1E+10	1	-1E+10	1
4901784	134	C	03/06/2019	10:44	-133.110	43.189	0	1165.20	0	3.1450	0	35.6880	8	28.429	0	1152.704	0	13.6	4	4.3	4	-1E+10	1	-1E+10	1	-1E+10	1	-1E+10	1	-1E+10	1	-1E+10	1
4901784	134	C	03/06/2019	10:44	-133.110	43.189	0	1170.00	0	3.1340	0	35.6900	8	28.432	0	1157.440	0	13.7	4	4.3	4	-1E+10	1	-1E+10	1	-1E+10	1	-1E+10	1	-1E+10	1	-1E+10	1
4901784	134	C	03/06/2019	10:44	-133.110	43.189	0	1174.90	0	3.1300	0	35.6920	8	28.434	0	1162.273	0	13.8	4	4.3	4	-1E+10	1	-1E+10	1	-1E+10	1	-1E+10	1	-1E+10	1	-1E+10	1
4901784	134	C	03/06/2019	10:44	-133.110	43.189	0	1179.80	0	3.1240	0	35.6930	8	28.435	0	1167.107	0	13.9	4	4.3	4	-1E+10	1	-1E+10	1	-1E+10	1	-1E+10	1	-1E+10	1	-1E+10	1
4901784	134	C	03/06/2019	10:44	-133.110	43.189	0	1184.80	0	3.1110	0	35.6940	8	28.437	0	1172.039	0	13.9	4	4.3	4	-1E+10	1	-1E+10	1	-1E+10	1	-1E+10	1	-1E+10	1	-1E+10	1
4901784	134	C	03/06/2019	10:44	-133.110	43.189	0	1189.70	0	3.1060	0	35.6950	8	28.438	0	1176.873	0	13.9	4	4.4	4	-1E+10	1	-1E+10	1	-1E+10	1	-1E+10	1	-1E+10	1	-1E+10	1
4901784	134	C	03/06/2019	10:44	-133.110	43.189	0	1194.60	0	3.0860	0	35.6970	8	28.442	0	1181.706	0	13.9	4	4.4	4	-1E+10	1	-1E+10	1	-1E+10	1	-1E+10	1	-1E+10	1	-1E+10	1
4901784	134	C	03/06/2019	10:44	-133.110	43.189	0	1200.50	0	3.0710	0	35.6990	8	28.445	0	1187.526	0	13.9	4	4.4	4	-1E+10	1	-1E+10	1	-1E+10	1	-1E+10	1	-1E+10	1	-1E+10	1
4901784	134	C	03/06/2019	10:44	-133.110	43.189	0	1205.50	0	3.0600	0	35.7000	8	28.447	0	1192.458	0	13.9	4	4.3	4	-1E+10	1	-1E+10	1	-1E+10	1	-1E+10	1	-1E+10	1	-1E+10	1
4901784	134	C	03/06/2019	10:44	-133.110	43.189	0	1210.30	0	3.0470	0	35.7010	8	28.449	0	1197.192	0	13.9	4	4.3	4	-1E+10	1	-1E+10	1	-1E+10	1	-1E+10	1	-1E+10	1	-1E+10	1
4901784	134	C	03/06/2019	10:44	-133.110	43.189	0	1215.20	0	3.0370	0	35.7020	8	28.451	0	1202.025	0	14.0	4	4.4	4	-1E+10	1	-1E+10	1	-1E+10	1	-1E+10	1	-1E+10	1	-1E+10	1
4901784	134	C	03/06/2019	10:44	-133.110	43.189	0	1220.10	0	3.0240	0	35.7040	8	28.453	0	1206.858	0	14.2	4	4.4	4	-1E+10	1	-1E+10	1	-1E+10	1	-1E+10	1	-1E+10	1	-1E+10	1
4901784	134	C	03/06/2019	10:44	-133.110	43.189	0	1224.90	0	3.0170	0	35.7060	8	28.456	0	1211.592	0	14.3	4	4.5	4	-1E+10	1	-1E+10	1	-1E+10	1	-1E+10	1	-1E+10	1	-1E+10	1
4901784	134	C	03/06/2019	10:44	-133.110	43.189	0	1229.30	0	3.0130	0	35.7070	8	28.457	0	1215.932	0	14.5	4	4.5	4	-1E+10	1	-1E+10	1	-1E+10	1	-1E+10	1	-1E+10	1	-1E+10	1
4901784	134	C	03/06/2019	10:44	-133.110	43.189	0	1234.70	0	3.0080	0	35.7090	8	28.459	0	1221.257	0	14.8	4	4.6	4	-1E+10	1	-1E+10	1	-1E+10	1	-1E+10	1	-1E+10	1	-1E+10	1
4901784	134	C	03/06/2019	10:44	-133.110	43.189	0	1240.20	0	2.9940	0	35.7120	8	28.463	0	1226.681	0	15.0	4	4.7	4	-1E+10	1	-1E+10	1	-1E+10	1	-1E+10	1	-1E+10	1	-1E+10	1
4901784	134	C	03/06/2019	10:44	-133.110	43.189	0	1245.60	0	2.9940	0	35.7140	8	28.464	0	1232.007	0	15.5	4	4.8	4	-1E+10	1	-1E+10	1	-1E+10	1	-1E+10	1	-1E+10	1	-1E+10	1
4901784	134	C	03/06/2019	10:44	-133.110	43.189	0	1250.10	0	2.9940	0	35.7170	8	28.467	0	1236.444	0	15.7	4	4.9	4	-1E+10	1	-1E+10	1	-1E+10	1	-1E+10	1	-1E+10	1	-1E+10	1
4901784	134	C	03/06/2019	10:44	-133.110	43.189	0	1254.70	0	2.9750	0	35.7190	8	28.470	0	1240.980	0	15.7	4	4.9	4	-1E+10	1	-1E+10	1	-1E+10	1	-1E+10	1	-1E+10	1	-1E+10	1
4901784	134	C	03/06/2019	10:44	-133.110	43.189	0	1260.10	0	2.9520	0	35.7200	8	28.473	0	1246.305	0	15.6	4	4.8	4	-1E+10	1	-1E+10	1	-1E+10	1	-1E+10	1	-1E+10	1	-1E+10	1
4901784	134	C	03/06/2019	10:44	-133.110	43.189	0	1265.50	0	2.9370	0	35.7210	8	28.475	0	1251.630	0	15.7	4	4.9	4	-1E+10	1	-1E+10	1	-1E+10	1	-1E+10	1	-1E+10	1	-1E+10	1
4901784	134	C	03/06/2019	10:44	-133.110	43.189	0	1270.30	0	2.9300	0	35.7230	8	28.478	0	1256.363	0	15.9	4	4.9	4	-1E+10	1	-1E+10	1	-1E+10	1	-1E+10	1	-1E+10	1	-1E+10	1
4901784	134	C	03/06/2019	10:44	-133.110	43.189	0	1275.10	0	2.9180	0	35.7260	8	28.481	0	1261.096	0	16.1	4	5.0	4	-1E+10	1	-1E+10	1	-1E+10	1	-1E+10	1	-1E+10	1	-1E+10	1
4901784	134	C	03/06/2019	10:44	-133.110	43.189	0	1280.00	0	2.9080	0	35.7260	8	28.482	0	1265.928	0	16.1	4	5.0	4	-1E+10	1	-1E+10	1	-1E+10	1	-1E+10	1	-1E+10	1	-1E+10	1
4901784	134	C	03/06/2019	10:44	-133.110	43.189	0	1285.00	0	2.8920	0	35.7290	8	28.486	0	1270.858	0	16.3	4	5.1	4	-1E+10	1	-1E+10	1	-1E+10	1	-1E+10	1	-1E+10	1	-1E+10	1
4901784	134	C	03/06/2019	10:44	-133.110	43.189	0	1290.00	0	2.8820	0	35.7310	8	28.489	0	1275.788	0	16.5	4	5.1	4	-1E+10	1	-1E+10	1	-1E+10	1	-1E+10	1	-1E+10	1	-1E+10	1
4901784	134	C	03/06/2019	10:44	-133.110	43.189	0	1295.10	0	2.8780	0	35.7320	8	28.490	0	1280.816	0	16.6	4	5.2	4	-1E+10	1	-1E+10	1	-1E+10	1	-1E+10	1	-1E+10	1	-1E+10	1
4901784	134	C	03/06/2019	10:44	-133.110	43.189	0	1300.10	0	2.8700	0	35.7330	8	28.491	0	1285.745	0	16.8	4	5.2	4	-1E+10	1	-1E+10	1	-1E+10	1	-1E+10	1	-1E+10	1	-1E+10	1
4901784	134	C	03/06/2019	10:44	-133.110	43.189	0	1305.20	0	2.8630	0	35.7350	8	28.494	0	1290.773	0	17.0	4	5.3	4	-1E+10	1	-1E+10	1	-1E+10	1	-1E+10	1	-1E+10	1	-1E+10	1
4901784	134	C	03/06/2019	10:44	-133.110	43.189	0	1310.40	0	2.8530	0	35.7370	8	28.496	0	1295.900	0	17.3	4	5.4	4	-1E+10	1	-1E+10	1	-1E+10	1	-1E+10	1	-1E+10	1	-1E+10	1
4901784	134	C	03/06/2019	10:44	-133.110	43.189	0	1315.50	0	2.8420	0	35.7390	8	28.499	0	1300.928	0	17.6	4	5.5	4	-1E+10	1	-1E+10	1	-1E+10	1	-1E+10	1	-1E+10	1	-1E+10	1
4901784	134	C	03/06/2019	10:44	-133.110	43.189	0	1320.70	0	2.8340	0	35.7410	8	28.501	0	1306.054	0	17.7	4	5.5	4	-1E+10	1	-1E+10	1	-1E+10	1	-1E+10	1	-1E+10	1	-1E+10	1
4901784	134	C	03/06/2019	10:44	-133.110	43.189	0	1325.00	0	2.8310	0	35.7420	8	28.502	0	1310.293	0	17.8	4	5.5	4	-1E+10	1	-1E+10	1	-1E+10	1	-1E+10	1	-1E+10	1	-1E+10	1
4901784	134	C	03/06/2019	10:44	-133.110	43.189	0	1329.30	0	2.8220	0	35.7430	8	28.504	0	1314.532	0	18.0	4	5.6	4	-1E+10	1	-1E+10	1	-1E+10	1	-1E+10	1	-1E+10	1	-1E+10	1
4901784	134	C	03/06/2019	10:44	-133.110	43.189	0	1334.60	0	2.8170	0	35.7440	8	28.505	0	1319.757	0	18.2	4	5.6	4	-1E+10	1	-1E+10	1	-1E+10	1	-1E+10	1	-1E+10	1	-1E+10	1
4901784	134	C	03/06/2019	10:44	-133.110	43.189	0	1339.80	0	2.8050	0	35.7460	8	28.508	0	1324.882	0	18.5	4	5.7	4	-1E+10	1	-1E+10	1	-1E+10	1	-1E+10	1	-1E+10	1	-1E+10	1
4901784	134	C	03/06/2019	10:44	-133.110	43.189	0	1345.00	0	2.7970	0	35.7480	8	28.510	0	1330.008	0	18.7	4	5.8	4	-1E+10	1	-1E+10	1	-1E+10	1	-1E+10	1	-1E+10	1	-1E+10	1
4901784	134	C	03/06/2019	10:44	-133.110	43.189	0	1350.30	0	2.7910	0	35.7490	8	28.512	0	1335.232	0	19.0	4	5.9	4	-1E+10	1	-1E+10	1	-1E+10	1	-1E+10	1	-1E+10	1	-1E+10	1
4901784	134	C	03/06/2019	10:44	-133.110	43.189	0	1355.60	0	2.7810	0	35.7510	8	28.514	0	1340.456	0	19.2	4	6.0	4	-1E+10	1	-1E+10	1	-1E+10	1	-1E+10	1	-1E+10	1	-1E+10	1
4901784	134	C	03/06/2019	10:44	-133.110	43.189	0	1360.10	0	2.7760	0	35.7520	8	28.516	0	1344.892	0	19.5	4	6.1	4	-1E+10	1	-1E+10	1	-1E+10	1	-1E+10	1	-1E+10	1	-1E+10	1
4901784	134	C	03/06/2019	10:44	-133.110	43.189	0	1364.60	0	2.7660	0	35.7550	8	28.519	0	1349.327	0	19.9	4	6.2	4	-1E+10	1	-1E+10	1	-1E+10	1	-1E+10	1	-1E+10	1	-1E+10	1
4901784	134	C	03/06/2019	10:44	-133.110	43.189	0	1370.00	0	2.7570	0	35.7560	8	28.521	0	1354.649	0	20.2	4	6.3	4	-1E+10	1	-1E+10	1	-1E+10	1	-1E+10	1	-1E+10	1	-1E+10	1
4901784	134	C	03/06/2019	10:44	-133.110	43.189	0	1375.40	0	2.7450	0	35.7590	8	28.524	0	1359.971	0	20.5	4	6.4	4	-1E+10	1	-1E+10	1	-1E+10	1	-1E+10	1	-1E+10	1	-1E+10	1
4901784	134	C	03/06/2019	10:44	-133.110	43.189	0	1379.90	0	2.7360	0	35.7610	8	28.527	0	1364.406	0	20.7	4	6.4	4	-1E+10	1	-1E+10	1	-1E+10	1	-1E+10	1	-1E+10	1	-1E+10	1
4901784	134	C	03/06/2019	10:44	-133.110	43.189	0	1384.40	0	2.7280	0	35.7620	8	28.528	0	1368.841	0	20.9	4	6.5	4	-1E+10	1	-1E+10	1	-1E+10	1	-1E+10	1	-1E+10	1	-1E+10	1
4901784	134	C	03/06/2019	10:44	-133.110	43.189	0	1389.70	0	2.7200	0	35.7630	8	28.530	0	1374.064	0	21.1	4	6.5	4	-1E+10	1	-1E+10	1	-1E+10	1	-1E+10	1	-1E+10	1	-1E+10	1
4901784	134	C	03/06/2019	10:44	-133.110	43.189	0	1394.50	0	2.7140	0	35.7650	8	28.532	0	1378.795	0	21.3	4	6.6	4	-1E+10	1	-1E+10	1	-1E+10	1	-1E+10	1	-1E+10	1	-1E+10	1
4901784	134	C	03/06/2019	10:44	-133.110	43.189	0	1399.30	0	2.7070	0	35.7660	8	28.533	0	1383.525	0	21.6	4	6.7	4	-1E+10	1	-1E+10	1	-1E+10	1	-1E+10	1	-1E+10	1	-1E+10	1
4901784	134	C	03/06/2019	10:44	-133.110	43.189	0	1405.00	0	2.7000	0	35.7670	8	28.535	0	1389.142	0	21.8	4	6.7	4	-1E+10	1	-1E+10	1	-1E+10	1	-1E+10	1	-1E+10	1	-1E+10	1
4901784	134	C	03/06/2019	10:44	-133.110	43.189	0	1410.70	0	2.6950	0	35.7680	8	28.536	0	1394.759	0	22.0	4	6.8	4	-1E+10	1	-1E+10	1	-1E+10	1	-1E+10	1	-1E+10	1	-1E+10	1
4901784	134	C	03/06/2019	10:44	-133.110	43.189	0	1415.60	0	2.6870	0	35.7700	8	28.538	0	1399.587	0	22.2	4	6.9	4	-1E+10	1	-1E+10	1	-1E+10	1	-1E+10	1	-1E+10	1	-1E+10	1
4901784	134	C	03/06/2019	10:44	-133.110	43.189	0	1420.60	0	2.6780	0	35.7710	8	28.540	0	1404.514	0	22.4	4	6.9	4	-1E+10	1	-1E+10	1	-1E+10	1	-1E+10	1	-1E+10	1	-1E+10	1
4901784	134	C	03/06/2019	10:44	-133.110	43.189	0	1425.70	0	2.6720	0	35.7720	8	28.541	0	1409.539	0	22.7	4	7.0	4	-1E+10	1	-1E+10	1	-1E+10	1	-1E+10	1	-1E+10	1	-1E+10	1
4901784	134	C	03/06/2019	10:44	-133.110	43.189	0	1430.00	0	2.6620	0	35.7740	8	28.544	0	1413.776	0	23.0	4	7.1	4	-1E+10	1	-1E+10	1	-1E+10	1	-1E+10	1	-1E+10	1	-1E+10	1
4901784	134	C	03/06/2019	10:44	-133.110	43.189	0	1434.30	0	2.6560	0	35.7760	8	28.546	0	1418.013	0	23.2	4	7.2	4	-1E+10	1	-1E+10	1	-1E+10	1	-1E+10	1	-1E+10	1	-1E+10	1
4901784	134	C	03/06/2019	10:44	-133.110	43.189	0	1439.40	0	2.6450	0	35.7770	8	28.548	0	1423.038	0	23.6	4	7.3	4	-1E+10	1	-1E+10	1	-1E+10	1	-1E+10	1	-1E+10	1	-1E+10	1
4901784	134	C	03/06/2019	10:44	-133.110	43.189	0	1444.70	0	2.6350	0	35.7790	8	28.550	0	1428.259	0	23.9	4	7.4	4	-1E+10	1	-1E+10	1	-1E+10	1	-1E+10	1	-1E+10	1	-1E+10	1
4901784	134	C	03/06/2019	10:44	-133.110	43.189	0	1449.90	0	2.6270	0	35.7810	8	28.553	0	1433.383	0	24.1	4	7.5	4	-1E+10	1	-1E+10	1	-1E+10	1	-1E+10	1	-1E+10	1	-1E+10	1
4901784	134	C	03/06/2019	10:44	-133.110	43.189	0	1455.30	0	2.6180	0	35.7820	8	28.554	0	1438.703	0	24.4	4	7.5	4	-1E+10	1	-1E+10	1	-1E+10	1	-1E+10	1	-1E+10	1	-1E+10	1
4901784	134	C	03/06/2019	10:44	-133.110	43.189	0	1460.60	0	2.6100	0	35.7830	8	28.556	0	1443.924	0	24.7	4	7.6	4	-1E+10	1	-1E+10	1	-1E+10	1	-1E+10	1	-1E+10	1	-1E+10	1
4901784	134	C	03/06/2019	10:44	-133.110	43.189	0	1465.00	0	2.6000	0	35.7850	8	28.558	0	1448.259	0	25.0	4	7.7	4	-1E+10	1	-1E+10	1	-1E+10	1	-1E+10	1	-1E+10	1	-1E+10	1
4901784	134	C	03/06/2019	10:44	-133.110	43.189	0	1469.50	0	2.5930	0	35.7860	8	28.560	0	1452.692	0	25.2	4	7.8	4	-1E+10	1	-1E+10	1	-1E+10	1	-1E+10	1	-1E+10	1	-1E+10	1
4901784	134	C	03/06/2019	10:44	-133.110	43.189	0	1474.90	0	2.5870	0	35.7870	8	28.561	0	1458.012	0	25.6	4	7.9	4	-1E+10	1	-1E+10	1	-1E+10	1	-1E+10	1	-1E+10	1	-1E+10	1
4901784	134	C	03/06/2019	10:44	-133.110	43.189	0	1480.40	0	2.5680	0	35.7900	8	28.565	0	1463.430	0	26.0	4	8.0	4	-1E+10	1	-1E+10	1	-1E+10	1	-1E+10	1	-1E+10	1	-1E+10	1
4901784	134	C	03/06/2019	10:44	-133.110	43.189	0	1485.00	0	2.5640	0	35.7910	8	28.567	0	1467.961	0	26.2	4	8.1	4	-1E+10	1	-1E+10	1	-1E+10	1	-1E+10	1	-1E+10	1	-1E+10	1
4901784	134	C	03/06/2019	10:44	-133.110	43.189	0	1489.60	0	2.5520	0	35.7930	8	28.569	0	1472.492	0	26.6	4	8.2	4	-1E+10	1	-1E+10	1	-1E+10	1	-1E+10	1	-1E+10	1	-1E+10	1
4901784	134	C	03/06/2019	10:44	-133.110	43.189	0	1495.70	0	2.5410	0	35.7940	8	28.571	0	1478.501	0	27.0	4	8.3	4	-1E+10	1	-1E+10	1	-1E+10	1	-1E+10	1	-1E+10	1	-1E+10	1
4901784	134	C	03/06/2019	10:44	-133.110	43.189	0	1500.70	0	2.5320	0	35.7960	8	28.573	0	1483.426	0	27.2	4	8.4	4	-1E+10	1	-1E+10	1	-1E+10	1	-1E+10	1	-1E+10	1	-1E+10	1
4901784	134	C	03/06/2019	10:44	-133.110	43.189	0	1505.40	0	2.5280	0	35.7970	8	28.575	0	1488.055	0	27.4	4	8.5	4	-1E+10	1	-1E+10	1	-1E+10	1	-1E+10	1	-1E+10	1	-1E+10	1
4901784	134	C	03/06/2019	10:44	-133.110	43.189	0	1510.20	0	2.5180	0	35.7990	8	28.577	0	1492.783	0	27.7	4	8.5	4	-1E+10	1	-1E+10	1	-1E+10	1	-1E+10	1	-1E+10	1	-1E+10	1
4901784	134	C	03/06/2019	10:44	-133.110	43.189	0	1515.00	0	2.5140	0	35.8000	8	28.578	0	1497.510	0	27.8	4	8.6	4	-1E+10	1	-1E+10	1	-1E+10	1	-1E+10	1	-1E+10	1	-1E+10	1
4901784	134	C	03/06/2019	10:44	-133.110	43.189	0	1519.80	0	2.5130	0	35.8000	8	28.578	0	1502.238	0	28.0	4	8.6	4	-1E+10	1	-1E+10	1	-1E+10	1	-1E+10	1	-1E+10	1	-1E+10	1
4901784	134	C	03/06/2019	10:44	-133.110	43.189	0	1524.60	0	2.5040	0	35.8010	8	28.580	0	1506.965	0	28.3	4	8.7	4	-1E+10	1	-1E+10	1	-1E+10	1	-1E+10	1	-1E+10	1	-1E+10	1
4901784	134	C	03/06/2019	10:44	-133.110	43.189	0	1529.60	0	2.4980	0	35.8020	8	28.581	0	1511.890	0	28.6	4	8.8	4	-1E+10	1	-1E+10	1	-1E+10	1	-1E+10	1	-1E+10	1	-1E+10	1
4901784	134	C	03/06/2019	10:44	-133.110	43.189	0	1534.50	0	2.4900	0	35.8040	8	28.584	0	1516.715	0	28.9	4	8.9	4	-1E+10	1	-1E+10	1	-1E+10	1	-1E+10	1	-1E+10	1	-1E+10	1
4901784	134	C	03/06/2019	10:44	-133.110	43.189	0	1539.50	0	2.4830	0	35.8050	8	28.585	0	1521.639	0	29.2	4	9.0	4	-1E+10	1	-1E+10	1	-1E+10	1	-1E+10	1	-1E+10	1	-1E+10	1
4901784	134	C	03/06/2019	10:44	-133.110	43.189	0	1544.50	0	2.4760	0	35.8060	8	28.587	0	1526.563	0	29.5	4	9.1	4	-1E+10	1	-1E+10	1	-1E+10	1	-1E+10	1	-1E+10	1	-1E+10	1
4901784	134	C	03/06/2019	10:44	-133.110	43.189	0	1549.50	0	2.4680	0	35.8080	8	28.589	0	1531.487	0	29.8	4	9.2	4	-1E+10	1	-1E+10	1	-1E+10	1	-1E+10	1	-1E+10	1	-1E+10	1
4901784	134	C	03/06/2019	10:44	-133.110	43.189	0	1554.60	0	2.4580	0	35.8090	8	28.591	0	1536.509	0	30.2	4	9.3	4	-1E+10	1	-1E+10	1	-1E+10	1	-1E+10	1	-1E+10	1	-1E+10	1
4901784	134	C	03/06/2019	10:44	-133.110	43.189	0	1559.70	0	2.4490	0	35.8110	8	28.593	0	1541.532	0	30.6	4	9.4	4	-1E+10	1	-1E+10	1	-1E+10	1	-1E+10	1	-1E+10	1	-1E+10	1
4901784	134	C	03/06/2019	10:44	-133.110	43.189	0	1564.90	0	2.4370	0	35.8120	8	28.595	0	1546.652	0	31.0	4	9.5	4	-1E+10	1	-1E+10	1	-1E+10	1	-1E+10	1	-1E+10	1	-1E+10	1
4901784	134	C	03/06/2019	10:44	-133.110	43.189	0	1570.00	0	2.4260	0	35.8140	8	28.597	0	1551.674	0	31.3	4	9.6	4	-1E+10	1	-1E+10	1	-1E+10	1	-1E+10	1	-1E+10	1	-1E+10	1
4901784	134	C	03/06/2019	10:44	-133.110	43.189	0	1575.20	0	2.4200	0	35.8150	8	28.599	0	1556.794	0	31.5	4	9.7	4	-1E+10	1	-1E+10	1	-1E+10	1	-1E+10	1	-1E+10	1	-1E+10	1
4901784	134	C	03/06/2019	10:44	-133.110	43.189	0	1580.40	0	2.4160	0	35.8160	8	28.600	0	1561.914	0	31.8	4	9.8	4	-1E+10	1	-1E+10	1	-1E+10	1	-1E+10	1	-1E+10	1	-1E+10	1
4901784	134	C	03/06/2019	10:44	-133.110	43.189	0	1585.50	0	2.4100	0	35.8170	8	28.601	0	1566.936	0	32.0	4	9.8	4	-1E+10	1	-1E+10	1	-1E+10	1	-1E+10	1	-1E+10	1	-1E+10	1
4901784	134	C	03/06/2019	10:44	-133.110	43.189	0	1589.90	0	2.4050	0	35.8180	8	28.603	0	1571.268	0	32.3	4	9.9	4	-1E+10	1	-1E+10	1	-1E+10	1	-1E+10	1	-1E+10	1	-1E+10	1
4901784	134	C	03/06/2019	10:44	-133.110	43.189	0	1594.30	0	2.3970	0	35.8190	8	28.604	0	1575.600	0	32.5	4	10.0	4	-1E+10	1	-1E+10	1	-1E+10	1	-1E+10	1	-1E+10	1	-1E+10	1
4901784	134	C	03/06/2019	10:44	-133.110	43.189	0	1599.60	0	2.3880	0	35.8210	8	28.607	0	1580.818	0	32.8	4	10.1	4	-1E+10	1	-1E+10	1	-1E+10	1	-1E+10	1	-1E+10	1	-1E+10	1
4901784	134	C	03/06/2019	10:44	-133.110	43.189	0	1604.80	0	2.3830	0	35.8210	8	28.607	0	1585.937	0	33.1	4	10.2	4	-1E+10	1	-1E+10	1	-1E+10	1	-1E+10	1	-1E+10	1	-1E+10	1
4901784	134	C	03/06/2019	10:44	-133.110	43.189	0	1610.00	0	2.3770	0	35.8230	8	28.609	0	1591.057	0	33.4	4	10.3	4	-1E+10	1	-1E+10	1	-1E+10	1	-1E+10	1	-1E+10	1	-1E+10	1
4901784	134	C	03/06/2019	10:44	-133.110	43.189	0	1615.30	0	2.3700	0	35.8240	8	28.611	0	1596.274	0	33.7	4	10.4	4	-1E+10	1	-1E+10	1	-1E+10	1	-1E+10	1	-1E+10	1	-1E+10	1
4901784	134	C	03/06/2019	10:44	-133.110	43.189	0	1620.50	0	2.3620	0	35.8260	8	28.613	0	1601.393	0	34.0	4	10.4	4	-1E+10	1	-1E+10	1	-1E+10	1	-1E+10	1	-1E+10	1	-1E+10	1
4901784	134	C	03/06/2019	10:44	-133.110	43.189	0	1624.90	0	2.3550	0	35.8270	8	28.614	0	1605.725	0	34.3	4	10.5	4	-1E+10	1	-1E+10	1	-1E+10	1	-1E+10	1	-1E+10	1	-1E+10	1
4901784	134	C	03/06/2019	10:44	-133.110	43.189	0	1629.20	0	2.3490	0	35.8270	8	28.615	0	1609.958	0	34.6	4	10.6	4	-1E+10	1	-1E+10	1	-1E+10	1	-1E+10	1	-1E+10	1	-1E+10	1
4901784	134	C	03/06/2019	10:44	-133.110	43.189	0	1634.50	0	2.3380	0	35.8290	8	28.617	0	1615.175	0	35.0	4	10.8	4	-1E+10	1	-1E+10	1	-1E+10	1	-1E+10	1	-1E+10	1	-1E+10	1
4901784	134	C	03/06/2019	10:44	-133.110	43.189	0	1639.90	0	2.3310	0	35.8310	8	28.620	0	1620.491	0	35.3	4	10.8	4	-1E+10	1	-1E+10	1	-1E+10	1	-1E+10	1	-1E+10	1	-1E+10	1
4901784	134	C	03/06/2019	10:44	-133.110	43.189	0	1645.30	0	2.3250	0	35.8320	8	28.621	0	1625.806	0	35.7	4	11.0	4	-1E+10	1	-1E+10	1	-1E+10	1	-1E+10	1	-1E+10	1	-1E+10	1
4901784	134	C	03/06/2019	10:44	-133.110	43.189	0	1650.70	0	2.3150	0	35.8340	8	28.623	0	1631.121	0	36.2	4	11.1	4	-1E+10	1	-1E+10	1	-1E+10	1	-1E+10	1	-1E+10	1	-1E+10	1
4901784	134	C	03/06/2019	10:44	-133.110	43.189	0	1655.10	0	2.3080	0	35.8350	8	28.625	0	1635.452	0	36.4	4	11.2	4	-1E+10	1	-1E+10	1	-1E+10	1	-1E+10	1	-1E+10	1	-1E+10	1
4901784	134	C	03/06/2019	10:44	-133.110	43.189	0	1659.60	0	2.3030	0	35.8360	8	28.626	0	1639.881	0	36.7	4	11.3	4	-1E+10	1	-1E+10	1	-1E+10	1	-1E+10	1	-1E+10	1	-1E+10	1
4901784	134	C	03/06/2019	10:44	-133.110	43.189	0	1665.00	0	2.2960	0	35.8370	8	28.628	0	1645.196	0	37.0	4	11.3	4	-1E+10	1	-1E+10	1	-1E+10	1	-1E+10	1	-1E+10	1	-1E+10	1
4901784	134	C	03/06/2019	10:44	-133.110	43.189	0	1670.40	0	2.2920	0	35.8370	8	28.628	0	1650.511	0	37.4	4	11.5	4	-1E+10	1	-1E+10	1	-1E+10	1	-1E+10	1	-1E+10	1	-1E+10	1
4901784	134	C	03/06/2019	10:44	-133.110	43.189	0	1675.00	0	2.2820	0	35.8400	8	28.631	0	1655.038	0	37.8	4	11.6	4	-1E+10	1	-1E+10	1	-1E+10	1	-1E+10	1	-1E+10	1	-1E+10	1
4901784	134	C	03/06/2019	10:44	-133.110	43.189	0	1679.50	0	2.2720	0	35.8410	8	28.633	0	1659.467	0	38.3	4	11.7	4	-1E+10	1	-1E+10	1	-1E+10	1	-1E+10	1	-1E+10	1	-1E+10	1
4901784	134	C	03/06/2019	10:44	-133.110	43.189	0	1685.00	0	2.2610	0	35.8430	8	28.635	0	1664.880	0	38.7	4	11.9	4	-1E+10	1	-1E+10	1	-1E+10	1	-1E+10	1	-1E+10	1	-1E+10	1
4901784	134	C	03/06/2019	10:44	-133.110	43.189	0	1690.50	0	2.2540	0	35.8440	8	28.637	0	1670.292	0	39.0	4	12.0	4	-1E+10	1	-1E+10	1	-1E+10	1	-1E+10	1	-1E+10	1	-1E+10	1
4901784	134	C	03/06/2019	10:44	-133.110	43.189	0	1695.10	0	2.2490	0	35.8460	8	28.639	0	1674.819	0	39.2	4	12.0	4	-1E+10	1	-1E+10	1	-1E+10	1	-1E+10	1	-1E+10	1	-1E+10	1
4901784	134	C	03/06/2019	10:44	-133.110	43.189	0	1699.70	0	2.2470	0	35.8460	8	28.639	0	1679.346	0	39.3	4	12.1	4	-1E+10	1	-1E+10	1	-1E+10	1	-1E+10	1	-1E+10	1	-1E+10	1
4901784	134	C	03/06/2019	10:44	-133.110	43.189	0	1705.30	0	2.2450	0	35.8460	8	28.639	0	1684.857	0	39.6	4	12.1	4	-1E+10	1	-1E+10	1	-1E+10	1	-1E+10	1	-1E+10	1	-1E+10	1
4901784	134	C	03/06/2019	10:44	-133.110	43.189	0	1709.90	0	2.2400	0	35.8470	8	28.641	0	1689.383	0	39.9	4	12.2	4	-1E+10	1	-1E+10	1	-1E+10	1	-1E+10	1	-1E+10	1	-1E+10	1
4901784	134	C	03/06/2019	10:44	-133.110	43.189	0	1715.10	0	2.2340	0	35.8490	8	28.643	0	1694.500	0	40.2	4	12.3	4	-1E+10	1	-1E+10	1	-1E+10	1	-1E+10	1	-1E+10	1	-1E+10	1
4901784	134	C	03/06/2019	10:44	-133.110	43.189	0	1720.20	0	2.2270	0	35.8500	8	28.644	0	1699.518	0	40.5	4	12.4	4	-1E+10	1	-1E+10	1	-1E+10	1	-1E+10	1	-1E+10	1	-1E+10	1
4901784	134	C	03/06/2019	10:44	-133.110	43.189	0	1725.10	0	2.2220	0	35.8510	8	28.645	0	1704.340	0	40.9	4	12.5	4	-1E+10	1	-1E+10	1	-1E+10	1	-1E+10	1	-1E+10	1	-1E+10	1
4901784	134	C	03/06/2019	10:44	-133.110	43.189	0	1730.00	0	2.2130	0	35.8520	8	28.647	0	1709.161	0	41.3	4	12.7	4	-1E+10	1	-1E+10	1	-1E+10	1	-1E+10	1	-1E+10	1	-1E+10	1
4901784	134	C	03/06/2019	10:44	-133.110	43.189	0	1734.80	0	2.2070	0	35.8530	8	28.648	0	1713.884	0	41.8	4	12.8	4	-1E+10	1	-1E+10	1	-1E+10	1	-1E+10	1	-1E+10	1	-1E+10	1
4901784	134	C	03/06/2019	10:44	-133.110	43.189	0	1739.70	0	2.1970	0	35.8550	8	28.651	0	1718.705	0	42.3	4	12.9	4	-1E+10	1	-1E+10	1	-1E+10	1	-1E+10	1	-1E+10	1	-1E+10	1
4901784	134	C	03/06/2019	10:44	-133.110	43.189	0	1744.50	0	2.1870	0	35.8560	8	28.652	0	1723.428	0	42.8	4	13.1	4	-1E+10	1	-1E+10	1	-1E+10	1	-1E+10	1	-1E+10	1	-1E+10	1
4901784	134	C	03/06/2019	10:44	-133.110	43.189	0	1749.50	0	2.1770	0	35.8580	8	28.655	0	1728.347	0	43.2	4	13.2	4	-1E+10	1	-1E+10	1	-1E+10	1	-1E+10	1	-1E+10	1	-1E+10	1
4901784	134	C	03/06/2019	10:44	-133.110	43.189	0	1754.40	0	2.1700	0	35.8590	8	28.656	0	1733.168	0	43.6	4	13.3	4	-1E+10	1	-1E+10	1	-1E+10	1	-1E+10	1	-1E+10	1	-1E+10	1
4901784	134	C	03/06/2019	10:44	-133.110	43.189	0	1759.40	0	2.1630	0	35.8610	8	28.659	0	1738.087	0	43.9	4	13.4	4	-1E+10	1	-1E+10	1	-1E+10	1	-1E+10	1	-1E+10	1	-1E+10	1
4901784	134	C	03/06/2019	10:44	-133.110	43.189	0	1764.40	0	2.1600	0	35.8610	8	28.659	0	1743.006	0	44.2	4	13.5	4	-1E+10	1	-1E+10	1	-1E+10	1	-1E+10	1	-1E+10	1	-1E+10	1
4901784	134	C	03/06/2019	10:44	-133.110	43.189	0	1769.40	0	2.1520	0	35.8630	8	28.661	0	1747.924	0	44.7	4	13.7	4	-1E+10	1	-1E+10	1	-1E+10	1	-1E+10	1	-1E+10	1	-1E+10	1
4901784	134	C	03/06/2019	10:44	-133.110	43.189	0	1774.50	0	2.1440	0	35.8640	8	28.663	0	1752.941	0	45.2	4	13.8	4	-1E+10	1	-1E+10	1	-1E+10	1	-1E+10	1	-1E+10	1	-1E+10	1
4901784	134	C	03/06/2019	10:44	-133.110	43.189	0	1779.60	0	2.1360	0	35.8660	8	28.665	0	1757.958	0	45.6	4	13.9	4	-1E+10	1	-1E+10	1	-1E+10	1	-1E+10	1	-1E+10	1	-1E+10	1
4901784	134	C	03/06/2019	10:44	-133.110	43.189	0	1784.70	0	2.1280	0	35.8670	8	28.666	0	1762.975	0	46.0	4	14.1	4	-1E+10	1	-1E+10	1	-1E+10	1	-1E+10	1	-1E+10	1	-1E+10	1
4901784	134	C	03/06/2019	10:44	-133.110	43.189	0	1789.80	0	2.1230	0	35.8680	8	28.668	0	1767.992	0	46.3	4	14.1	4	-1E+10	1	-1E+10	1	-1E+10	1	-1E+10	1	-1E+10	1	-1E+10	1
4901784	134	C	03/06/2019	10:44	-133.110	43.189	0	1795.10	0	2.1190	0	35.8690	8	28.669	0	1773.205	0	46.6	4	14.2	4	-1E+10	1	-1E+10	1	-1E+10	1	-1E+10	1	-1E+10	1	-1E+10	1
4901784	134	C	03/06/2019	10:44	-133.110	43.189	0	1800.30	0	2.1150	0	35.8700	8	28.670	0	1778.320	0	47.0	4	14.3	4	-1E+10	1	-1E+10	1	-1E+10	1	-1E+10	1	-1E+10	1	-1E+10	1
4901784	134	C	03/06/2019	10:44	-133.110	43.189	0	1805.60	0	2.1080	0	35.8720	8	28.672	0	1783.533	0	47.4	4	14.5	4	-1E+10	1	-1E+10	1	-1E+10	1	-1E+10	1	-1E+10	1	-1E+10	1
4901784	134	C	03/06/2019	10:44	-133.110	43.189	0	1810.00	0	2.1020	0	35.8730	8	28.673	0	1787.861	0	47.8	4	14.6	4	-1E+10	1	-1E+10	1	-1E+10	1	-1E+10	1	-1E+10	1	-1E+10	1
4901784	134	C	03/06/2019	10:44	-133.110	43.189	0	1814.50	0	2.0950	0	35.8740	8	28.675	0	1792.287	0	48.1	4	14.7	4	-1E+10	1	-1E+10	1	-1E+10	1	-1E+10	1	-1E+10	1	-1E+10	1
4901784	134	C	03/06/2019	10:44	-133.110	43.189	0	1819.80	0	2.0880	0	35.8750	8	28.676	0	1797.500	0	48.5	4	14.8	4	-1E+10	1	-1E+10	1	-1E+10	1	-1E+10	1	-1E+10	1	-1E+10	1
4901784	134	C	03/06/2019	10:44	-133.110	43.189	0	1825.20	0	2.0830	0	35.8760	8	28.678	0	1802.810	0	48.9	4	14.9	4	-1E+10	1	-1E+10	1	-1E+10	1	-1E+10	1	-1E+10	1	-1E+10	1
4901784	134	C	03/06/2019	10:44	-133.110	43.189	0	1830.60	0	2.0780	0	35.8770	8	28.679	0	1808.121	0	49.3	4	15.0	4	-1E+10	1	-1E+10	1	-1E+10	1	-1E+10	1	-1E+10	1	-1E+10	1
4901784	134	C	03/06/2019	10:44	-133.110	43.189	0	1835.00	0	2.0730	0	35.8780	8	28.680	0	1812.448	0	49.6	4	15.1	4	-1E+10	1	-1E+10	1	-1E+10	1	-1E+10	1	-1E+10	1	-1E+10	1
4901784	134	C	03/06/2019	10:44	-133.110	43.189	0	1839.60	0	2.0670	0	35.8790	8	28.681	0	1816.972	0	49.9	4	15.2	4	-1E+10	1	-1E+10	1	-1E+10	1	-1E+10	1	-1E+10	1	-1E+10	1
4901784	134	C	03/06/2019	10:44	-133.110	43.189	0	1845.00	0	2.0630	0	35.8800	8	28.682	0	1822.283	0	50.2	4	15.3	4	-1E+10	1	-1E+10	1	-1E+10	1	-1E+10	1	-1E+10	1	-1E+10	1
4901784	134	C	03/06/2019	10:44	-133.110	43.189	0	1850.20	0	2.0600	0	35.8810	8	28.684	0	1827.396	0	50.6	4	15.4	4	-1E+10	1	-1E+10	1	-1E+10	1	-1E+10	1	-1E+10	1	-1E+10	1
4901784	134	C	03/06/2019	10:44	-133.110	43.189	0	1854.50	0	2.0510	0	35.8830	8	28.686	0	1831.625	0	51.0	4	15.5	4	-1E+10	1	-1E+10	1	-1E+10	1	-1E+10	1	-1E+10	1	-1E+10	1
4901784	134	C	03/06/2019	10:44	-133.110	43.189	0	1859.30	0	2.0480	0	35.8840	8	28.687	0	1836.345	0	51.3	4	15.6	4	-1E+10	1	-1E+10	1	-1E+10	1	-1E+10	1	-1E+10	1	-1E+10	1
4901784	134	C	03/06/2019	10:44	-133.110	43.189	0	1864.90	0	2.0430	0	35.8850	8	28.688	0	1841.852	0	51.6	4	15.7	4	-1E+10	1	-1E+10	1	-1E+10	1	-1E+10	1	-1E+10	1	-1E+10	1
4901784	134	C	03/06/2019	10:44	-133.110	43.189	0	1870.60	0	2.0360	0	35.8850	8	28.689	0	1847.456	0	52.0	4	15.9	4	-1E+10	1	-1E+10	1	-1E+10	1	-1E+10	1	-1E+10	1	-1E+10	1
4901784	134	C	03/06/2019	10:44	-133.110	43.189	0	1875.50	0	2.0250	0	35.8860	8	28.691	0	1852.274	0	52.3	4	16.0	4	-1E+10	1	-1E+10	1	-1E+10	1	-1E+10	1	-1E+10	1	-1E+10	1
4901784	134	C	03/06/2019	10:44	-133.110	43.189	0	1880.50	0	2.0210	0	35.8870	8	28.692	0	1857.191	0	52.5	4	16.0	4	-1E+10	1	-1E+10	1	-1E+10	1	-1E+10	1	-1E+10	1	-1E+10	1
4901784	134	C	03/06/2019	10:44	-133.110	43.189	0	1885.50	0	2.0190	0	35.8880	8	28.693	0	1862.107	0	52.7	4	16.1	4	-1E+10	1	-1E+10	1	-1E+10	1	-1E+10	1	-1E+10	1	-1E+10	1
4901784	134	C	03/06/2019	10:44	-133.110	43.189	0	1890.50	0	2.0170	0	35.8880	8	28.693	0	1867.023	0	52.9	4	16.1	4	-1E+10	1	-1E+10	1	-1E+10	1	-1E+10	1	-1E+10	1	-1E+10	1
4901784	134	C	03/06/2019	10:44	-133.110	43.189	0	1895.60	0	2.0120	0	35.8890	8	28.694	0	1872.037	0	53.2	4	16.2	4	-1E+10	1	-1E+10	1	-1E+10	1	-1E+10	1	-1E+10	1	-1E+10	1
4901784	134	C	03/06/2019	10:44	-133.110	43.189	0	1900.70	0	2.0060	0	35.8900	8	28.695	0	1877.051	0	53.5	4	16.3	4	-1E+10	1	-1E+10	1	-1E+10	1	-1E+10	1	-1E+10	1	-1E+10	1
4901784	134	C	03/06/2019	10:44	-133.110	43.189	0	1905.70	0	2.0020	0	35.8910	8	28.697	0	1881.967	0	53.8	4	16.4	4	-1E+10	1	-1E+10	1	-1E+10	1	-1E+10	1	-1E+10	1	-1E+10	1
4901784	134	C	03/06/2019	10:44	-133.110	43.189	0	1910.80	0	2.0010	0	35.8920	8	28.698	0	1886.981	0	54.0	4	16.4	4	-1E+10	1	-1E+10	1	-1E+10	1	-1E+10	1	-1E+10	1	-1E+10	1
4901784	134	C	03/06/2019	10:44	-133.110	43.189	0	1915.00	0	1.9990	0	35.8920	8	28.698	0	1891.110	0	54.2	4	16.5	4	-1E+10	1	-1E+10	1	-1E+10	1	-1E+10	1	-1E+10	1	-1E+10	1
4901784	134	C	03/06/2019	10:44	-133.110	43.189	0	1919.40	0	1.9940	0	35.8930	8	28.699	0	1895.435	0	54.5	4	16.6	4	-1E+10	1	-1E+10	1	-1E+10	1	-1E+10	1	-1E+10	1	-1E+10	1
4901784	134	C	03/06/2019	10:44	-133.110	43.189	0	1924.70	0	1.9890	0	35.8940	8	28.700	0	1900.645	0	54.8	4	16.7	4	-1E+10	1	-1E+10	1	-1E+10	1	-1E+10	1	-1E+10	1	-1E+10	1
4901784	134	C	03/06/2019	10:44	-133.110	43.189	0	1929.90	0	1.9860	0	35.8950	8	28.701	0	1905.757	0	55.1	4	16.8	4	-1E+10	1	-1E+10	1	-1E+10	1	-1E+10	1	-1E+10	1	-1E+10	1
4901784	134	C	03/06/2019	10:44	-133.110	43.189	0	1935.20	0	1.9820	0	35.8960	8	28.702	0	1910.967	0	55.4	4	16.9	4	-1E+10	1	-1E+10	1	-1E+10	1	-1E+10	1	-1E+10	1	-1E+10	1
4901784	134	C	03/06/2019	10:44	-133.110	43.189	0	1940.60	0	1.9790	0	35.8970	8	28.704	0	1916.275	0	55.7	4	16.9	4	-1E+10	1	-1E+10	1	-1E+10	1	-1E+10	1	-1E+10	1	-1E+10	1
4901784	134	C	03/06/2019	10:44	-133.110	43.189	0	1945.00	0	1.9770	0	35.8980	8	28.705	0	1920.600	0	55.9	4	17.0	4	-1E+10	1	-1E+10	1	-1E+10	1	-1E+10	1	-1E+10	1	-1E+10	1
4901784	134	C	03/06/2019	10:44	-133.110	43.189	0	1949.50	0	1.9760	0	35.8980	8	28.705	0	1925.023	0	56.2	4	17.1	4	-1E+10	1	-1E+10	1	-1E+10	1	-1E+10	1	-1E+10	1	-1E+10	1
4901784	134	C	03/06/2019	10:44	-133.110	43.189	0	1954.90	0	1.9690	0	35.9000	8	28.707	0	1930.331	0	56.6	4	17.2	4	-1E+10	1	-1E+10	1	-1E+10	1	-1E+10	1	-1E+10	1	-1E+10	1
4901784	134	C	03/06/2019	10:44	-133.110	43.189	0	1960.30	0	1.9660	0	35.9000	8	28.707	0	1935.639	0	56.9	4	17.3	4	-1E+10	1	-1E+10	1	-1E+10	1	-1E+10	1	-1E+10	1	-1E+10	1
4901784	134	C	03/06/2019	10:44	-133.110	43.189	0	1964.80	0	1.9630	0	35.9010	8	28.708	0	1940.062	0	57.1	4	17.4	4	-1E+10	1	-1E+10	1	-1E+10	1	-1E+10	1	-1E+10	1	-1E+10	1
4901784	134	C	03/06/2019	10:44	-133.110	43.189	0	1969.40	0	1.9600	0	35.9020	8	28.709	0	1944.583	0	57.3	4	17.4	4	-1E+10	1	-1E+10	1	-1E+10	1	-1E+10	1	-1E+10	1	-1E+10	1
4901784	134	C	03/06/2019	10:44	-133.110	43.189	0	1975.00	0	1.9580	0	35.9030	8	28.710	0	1950.087	0	57.5	4	17.5	4	-1E+10	1	-1E+10	1	-1E+10	1	-1E+10	1	-1E+10	1	-1E+10	1
4901784	134	C	03/06/2019	10:44	-133.110	43.189	0	1980.10	0	1.9570	0	35.9030	8	28.710	0	1955.099	0	57.7	4	17.6	4	-1E+10	1	-1E+10	1	-1E+10	1	-1E+10	1	-1E+10	1	-1E+10	1
4901784	134	C	03/06/2019	10:44	-133.110	43.189	0	1984.80	0	1.9540	0	35.9040	8	28.711	0	1959.718	0	58.0	4	17.6	4	-1E+10	1	-1E+10	1	-1E+10	1	-1E+10	1	-1E+10	1	-1E+10	1
4901784	134	C	03/06/2019	10:44	-133.110	43.189	0	1989.50	0	1.9510	0	35.9050	8	28.713	0	1964.337	0	58.2	4	17.7	4	-1E+10	1	-1E+10	1	-1E+10	1	-1E+10	1	-1E+10	1	-1E+10	1
4901784	134	C	03/06/2019	10:44	-133.110	43.189	0	1995.00	0	1.9490	0	35.9060	8	28.714	0	1969.742	0	58.4	4	17.8	4	-1E+10	1	-1E+10	1	-1E+10	1	-1E+10	1	-1E+10	1	-1E+10	1
4901784	134	C	03/06/2019	10:44	-133.110	43.189	0	2000.00	0	1.9460	0	35.9060	8	28.714	0	1974.656	0	58.6	4	17.8	4	-1E+10	1	-1E+10	1	-1E+10	1	-1E+10	1	-1E+10	1	-1E+10	1
4901784	134	C	03/06/2019	10:44	-133.110	43.189	0	2006.20	0	1.9430	0	35.9070	8	28.715	0	1980.748	0	58.2	4	17.7	4	-1E+10	1	-1E+10	1	-1E+10	1	-1E+10	1	-1E+10	1	-1E+10	1
4901784	134	C	03/06/2019	10:44	-133.110	43.189	0																										
4901784	135	C	03/16/2019	10:49	-133.173	43.080	0	2.50	0	10.2350	0	33.5760	8	25.801	0	2.480	0	268.6	4	97.3	4	-1E+10	1	-1E+10	1	-1E+10	1	-1E+10	1	-1E+10	1	-1E+10	1
4901784	135	C	03/16/2019	10:49	-133.173	43.080	0	3.60	0	10.2360	0	33.5760	8	25.801	0	3.571	0	268.5	4	97.3	4	-1E+10	1	-1E+10	1	-1E+10	1	-1E+10	1	-1E+10	1	-1E+10	1
4901784	135	C	03/16/2019	10:49	-133.173	43.080	0	4.90	0	10.2360	0	33.5760	8	25.801	0	4.861	0	268.4	4	97.2	4	-1E+10	1	-1E+10	1	-1E+10	1	-1E+10	1	-1E+10	1	-1E+10	1
4901784	135	C	03/16/2019	10:49	-133.173	43.080	0	6.20	0	10.2350	0	33.5760	8	25.801	0	6.151	0	268.5	4	97.3	4	-1E+10	1	-1E+10	1	-1E+10	1	-1E+10	1	-1E+10	1	-1E+10	1
4901784	135	C	03/16/2019	10:49	-133.173	43.080	0	7.80	0	10.2350	0	33.5760	8	25.801	0	7.738	0	268.5	4	97.3	4	-1E+10	1	-1E+10	1	-1E+10	1	-1E+10	1	-1E+10	1	-1E+10	1
4901784	135	C	03/16/2019	10:49	-133.173	43.080	0	9.50	0	10.2330	0	33.5770	8	25.802	0	9.424	0	268.4	4	97.2	4	-1E+10	1	-1E+10	1	-1E+10	1	-1E+10	1	-1E+10	1	-1E+10	1
4901784	135	C	03/16/2019	10:49	-133.173	43.080	0	11.30	0	10.2370	0	33.5780	8	25.802	0	11.210	0	268.3	4	97.2	4	-1E+10	1	-1E+10	1	-1E+10	1	-1E+10	1	-1E+10	1	-1E+10	1
4901784	135	C	03/16/2019	10:49	-133.173	43.080	0	13.00	0	10.2370	0	33.5770	8	25.801	0	12.896	0	268.4	4	97.2	4	-1E+10	1	-1E+10	1	-1E+10	1	-1E+10	1	-1E+10	1	-1E+10	1
4901784	135	C	03/16/2019	10:49	-133.173	43.080	0	14.70	0	10.2360	0	33.5780	8	25.802	0	14.583	0	268.5	4	97.3	4	-1E+10	1	-1E+10	1	-1E+10	1	-1E+10	1	-1E+10	1	-1E+10	1
4901784	135	C	03/16/2019	10:49	-133.173	43.080	0	16.50	0	10.2380	0	33.5780	8	25.802	0	16.368	0	268.5	4	97.3	4	-1E+10	1	-1E+10	1	-1E+10	1	-1E+10	1	-1E+10	1	-1E+10	1
4901784	135	C	03/16/2019	10:49	-133.173	43.080	0	18.20	0	10.2380	0	33.5780	8	25.802	0	18.055	0	268.3	4	97.2	4	-1E+10	1	-1E+10	1	-1E+10	1	-1E+10	1	-1E+10	1	-1E+10	1
4901784	135	C	03/16/2019	10:49	-133.173	43.080	0	19.80	0	10.2380	0	33.5790	8	25.803	0	19.642	0	268.0	4	97.1	4	-1E+10	1	-1E+10	1	-1E+10	1	-1E+10	1	-1E+10	1	-1E+10	1
4901784	135	C	03/16/2019	10:49	-133.173	43.080	0	21.50	0	10.2390	0	33.5790	8	25.803	0	21.328	0	268.3	4	97.2	4	-1E+10	1	-1E+10	1	-1E+10	1	-1E+10	1	-1E+10	1	-1E+10	1
4901784	135	C	03/16/2019	10:49	-133.173	43.080	0	23.10	0	10.2380	0	33.5790	8	25.803	0	22.915	0	268.1	4	97.1	4	-1E+10	1	-1E+10	1	-1E+10	1	-1E+10	1	-1E+10	1	-1E+10	1
4901784	135	C	03/16/2019	10:49	-133.173	43.080	0	24.80	0	10.2390	0	33.5790	8	25.803	0	24.602	0	268.0	4	97.1	4	-1E+10	1	-1E+10	1	-1E+10	1	-1E+10	1	-1E+10	1	-1E+10	1
4901784	135	C	03/16/2019	10:49	-133.173	43.080	0	26.50	0	10.2390	0	33.5800	8	25.804	0	26.288	0	268.1	4	97.1	4	-1E+10	1	-1E+10	1	-1E+10	1	-1E+10	1	-1E+10	1	-1E+10	1
4901784	135	C	03/16/2019	10:49	-133.173	43.080	0	28.20	0	10.2370	0	33.5810	8	25.805	0	27.974	0	268.1	4	97.1	4	-1E+10	1	-1E+10	1	-1E+10	1	-1E+10	1	-1E+10	1	-1E+10	1
4901784	135	C	03/16/2019	10:49	-133.173	43.080	0	29.90	0	10.2360	0	33.5810	8	25.805	0	29.660	0	268.2	4	97.2	4	-1E+10	1	-1E+10	1	-1E+10	1	-1E+10	1	-1E+10	1	-1E+10	1
4901784	135	C	03/16/2019	10:49	-133.173	43.080	0	31.80	0	10.2360	0	33.5810	8	25.805	0	31.545	0	268.0	4	97.1	4	-1E+10	1	-1E+10	1	-1E+10	1	-1E+10	1	-1E+10	1	-1E+10	1
4901784	135	C	03/16/2019	10:49	-133.173	43.080	0	33.60	0	10.2350	0	33.5800	8	25.804	0	33.330	0	267.9	4	97.1	4	-1E+10	1	-1E+10	1	-1E+10	1	-1E+10	1	-1E+10	1	-1E+10	1
4901784	135	C	03/16/2019	10:49	-133.173	43.080	0	35.40	0	10.2380	0	33.5800	8	25.804	0	35.116	0	267.9	4	97.0	4	-1E+10	1	-1E+10	1	-1E+10	1	-1E+10	1	-1E+10	1	-1E+10	1
4901784	135	C	03/16/2019	10:49	-133.173	43.080	0	37.30	0	10.2380	0	33.5800	8	25.804	0	37.000	0	267.9	4	97.1	4	-1E+10	1	-1E+10	1	-1E+10	1	-1E+10	1	-1E+10	1	-1E+10	1
4901784	135	C	03/16/2019	10:49	-133.173	43.080	0	39.10	0	10.2280	0	33.5800	8	25.806	0	38.786	0	267.8	4	97.0	4	-1E+10	1	-1E+10	1	-1E+10	1	-1E+10	1	-1E+10	1	-1E+10	1
4901784	135	C	03/16/2019	10:49	-133.173	43.080	0	40.90	0	10.2210	0	33.5790	8	25.806	0	40.571	0	267.7	4	97.0	4	-1E+10	1	-1E+10	1	-1E+10	1	-1E+10	1	-1E+10	1	-1E+10	1
4901784	135	C	03/16/2019	10:49	-133.173	43.080	0	42.50	0	10.1930	0	33.5780	8	25.810	0	42.158	0	267.9	4	97.0	4	-1E+10	1	-1E+10	1	-1E+10	1	-1E+10	1	-1E+10	1	-1E+10	1
4901784	135	C	03/16/2019	10:49	-133.173	43.080	0	44.30	0	10.1880	0	33.5750	8	25.809	0	43.943	0	267.8	4	96.9	4	-1E+10	1	-1E+10	1	-1E+10	1	-1E+10	1	-1E+10	1	-1E+10	1
4901784	135	C	03/16/2019	10:49	-133.173	43.080	0	46.00	0	10.1810	0	33.5720	8	25.808	0	45.630	0	267.7	4	96.9	4	-1E+10	1	-1E+10	1	-1E+10	1	-1E+10	1	-1E+10	1	-1E+10	1
4901784	135	C	03/16/2019	10:49	-133.173	43.080	0	47.70	0	10.1540	0	33.5690	8	25.810	0	47.316	0	267.8	4	96.9	4	-1E+10	1	-1E+10	1	-1E+10	1	-1E+10	1	-1E+10	1	-1E+10	1
4901784	135	C	03/16/2019	10:49	-133.173	43.080	0	49.40	0	10.0100	0	33.5620	8	25.829	0	49.002	0	268.4	4	96.7	4	-1E+10	1	-1E+10	1	-1E+10	1	-1E+10	1	-1E+10	1	-1E+10	1
4901784	135	C	03/16/2019	10:49	-133.173	43.080	0	51.20	0	9.8560	0	33.5590	8	25.852	0	50.787	0	268.8	4	96.6	4	-1E+10	1	-1E+10	1	-1E+10	1	-1E+10	1	-1E+10	1	-1E+10	1
4901784	135	C	03/16/2019	10:49	-133.173	43.080	0	53.00	0	9.8210	0	33.5560	8	25.856	0	52.572	0	269.1	4	96.6	4	-1E+10	1	-1E+10	1	-1E+10	1	-1E+10	1	-1E+10	1	-1E+10	1
4901784	135	C	03/16/2019	10:49	-133.173	43.080	0	54.80	0	9.8080	0	33.5550	8	25.857	0	54.358	0	269.0	4	96.6	4	-1E+10	1	-1E+10	1	-1E+10	1	-1E+10	1	-1E+10	1	-1E+10	1
4901784	135	C	03/16/2019	10:49	-133.173	43.080	0	56.60	0	9.7950	0	33.5530	8	25.858	0	56.143	0	269.0	4	96.5	4	-1E+10	1	-1E+10	1	-1E+10	1	-1E+10	1	-1E+10	1	-1E+10	1
4901784	135	C	03/16/2019	10:49	-133.173	43.080	0	58.40	0	9.7690	0	33.5520	8	25.861	0	57.928	0	269.1	4	96.5	4	-1E+10	1	-1E+10	1	-1E+10	1	-1E+10	1	-1E+10	1	-1E+10	1
4901784	135	C	03/16/2019	10:49	-133.173	43.080	0	60.20	0	9.7570	0	33.5500	8	25.862	0	59.713	0	269.2	4	96.5	4	-1E+10	1	-1E+10	1	-1E+10	1	-1E+10	1	-1E+10	1	-1E+10	1
4901784	135	C	03/16/2019	10:49	-133.173	43.080	0	61.90	0	9.7300	0	33.5490	8	25.866	0	61.399	0	269.1	4	96.4	4	-1E+10	1	-1E+10	1	-1E+10	1	-1E+10	1	-1E+10	1	-1E+10	1
4901784	135	C	03/16/2019	10:49	-133.173	43.080	0	63.70	0	9.7100	0	33.5480	8	25.868	0	63.184	0	269.0	4	96.3	4	-1E+10	1	-1E+10	1	-1E+10	1	-1E+10	1	-1E+10	1	-1E+10	1
4901784	135	C	03/16/2019	10:49	-133.173	43.080	0	65.50	0	9.6980	0	33.5470	8	25.869	0	64.970	0	269.2	4	96.4	4	-1E+10	1	-1E+10	1	-1E+10	1	-1E+10	1	-1E+10	1	-1E+10	1
4901784	135	C	03/16/2019	10:49	-133.173	43.080	0	67.20	0	9.6910	0	33.5460	8	25.870	0	66.655	0	269.0	4	96.3	4	-1E+10	1	-1E+10	1	-1E+10	1	-1E+10	1	-1E+10	1	-1E+10	1
4901784	135	C	03/16/2019	10:49	-133.173	43.080	0	68.90	0	9.6860	0	33.5460	8	25.871	0	68.341	0	268.9	4	96.3	4	-1E+10	1	-1E+10	1	-1E+10	1	-1E+10	1	-1E+10	1	-1E+10	1
4901784	135	C	03/16/2019	10:49	-133.173	43.080	0	70.70	0	9.6800	0	33.5460	8	25.872	0	70.126	0	268.9	4	96.2	4	-1E+10	1	-1E+10	1	-1E+10	1	-1E+10	1	-1E+10	1	-1E+10	1
4901784	135	C	03/16/2019	10:49	-133.173	43.080	0	72.40	0	9.6740	0	33.5460	8	25.873	0	71.812	0	268.9	4	96.2	4	-1E+10	1	-1E+10	1	-1E+10	1	-1E+10	1	-1E+10	1	-1E+10	1
4901784	135	C	03/16/2019	10:49	-133.173	43.080	0	74.10	0	9.6710	0	33.5460	8	25.873	0	73.498	0	268.7	4	96.1	4	-1E+10	1	-1E+10	1	-1E+10	1	-1E+10	1	-1E+10	1	-1E+10	1
4901784	135	C	03/16/2019	10:49	-133.173	43.080	0	75.90	0	9.6670	0	33.5470	8	25.875	0	75.283	0	268.5	4	96.1	4	-1E+10	1	-1E+10	1	-1E+10	1	-1E+10	1	-1E+10	1	-1E+10	1
4901784	135	C	03/16/2019	10:49	-133.173	43.080	0	77.60	0	9.6670	0	33.5460	8	25.874	0	76.969	0	268.7	4	96.1	4	-1E+10	1	-1E+10	1	-1E+10	1	-1E+10	1	-1E+10	1	-1E+10	1
4901784	135	C	03/16/2019	10:49	-133.173	43.080	0	79.40	0	9.6660	0	33.5470	8	25.875	0	78.754	0	268.6	4	96.1	4	-1E+10	1	-1E+10	1	-1E+10	1	-1E+10	1	-1E+10	1	-1E+10	1
4901784	135	C	03/16/2019	10:49	-133.173	43.080	0	81.10	0	9.6660	0	33.5470	8	25.875	0	80.440	0	268.6	4	96.1	4	-1E+10	1	-1E+10	1	-1E+10	1	-1E+10	1	-1E+10	1	-1E+10	1
4901784	135	C	03/16/2019	10:49	-133.173	43.080	0	82.80	0	9.6660	0	33.5470	8	25.875	0	82.126	0	268.5	4	96.1	4	-1E+10	1	-1E+10	1	-1E+10	1	-1E+10	1	-1E+10	1	-1E+10	1
4901784	135	C	03/16/2019	10:49	-133.173	43.080	0	84.60	0	9.6620	0	33.5480	8	25.876	0	83.911	0	268.4	4	96.0	4	-1E+10	1	-1E+10	1	-1E+10	1	-1E+10	1	-1E+10	1	-1E+10	1
4901784	135	C	03/16/2019	10:49	-133.173	43.080	0	86.30	0	9.6620	0	33.5480	8	25.876	0	85.597	0	268.3	4	96.0	4	-1E+10	1	-1E+10	1	-1E+10	1	-1E+10	1	-1E+10	1	-1E+10	1
4901784	135	C	03/16/2019	10:49	-133.173	43.080	0	88.10	0	9.6590	0	33.5470	8	25.876	0	87.382	0	268.4	4	96.0	4	-1E+10	1	-1E+10	1	-1E+10	1	-1E+10	1	-1E+10	1	-1E+10	1
4901784	135	C	03/16/2019	10:49	-133.173	43.080	0	89.80	0	9.6560	0	33.5480	8	25.877	0	89.067	0	268.1	4	95.9	4	-1E+10	1	-1E+10	1	-1E+10	1	-1E+10	1	-1E+10	1	-1E+10	1
4901784	135	C	03/16/2019	10:49	-133.173	43.080	0	91.50	0	9.6550	0	33.5480	8	25.878	0	90.753	0	268.3	4	96.0	4	-1E+10	1	-1E+10	1	-1E+10	1	-1E+10	1	-1E+10	1	-1E+10	1
4901784	135	C	03/16/2019	10:49	-133.173	43.080	0	93.20	0	9.6540	0	33.5480	8	25.878	0	92.439	0	268.1	4	95.9	4	-1E+10	1	-1E+10	1	-1E+10	1	-1E+10	1	-1E+10	1	-1E+10	1
4901784	135	C	03/16/2019	10:49	-133.173	43.080	0	95.00	0	9.6550	0	33.5490	8	25.879	0	94.224	0	268.0	4	95.9	4	-1E+10	1	-1E+10	1	-1E+10	1	-1E+10	1	-1E+10	1	-1E+10	1
4901784	135	C	03/16/2019	10:49	-133.173	43.080	0	96.70	0	9.6570	0	33.5490	8	25.878	0	95.910	0	267.8	4	95.8	4	-1E+10	1	-1E+10	1	-1E+10	1	-1E+10	1	-1E+10	1	-1E+10	1
4901784	135	C	03/16/2019	10:49	-133.173	43.080	0	98.40	0	9.6550	0	33.5500	8	25.879	0	97.595	0	267.7	4	95.8	4	-1E+10	1	-1E+10	1	-1E+10	1	-1E+10	1	-1E+10	1	-1E+10	1
4901784	135	C	03/16/2019	10:49	-133.173	43.080	0	100.10	0	9.6550	0	33.5500	8	25.879	0	99.281	0	267.6	4	95.7	4	-1E+10	1	-1E+10	1	-1E+10	1	-1E+10	1	-1E+10	1	-1E+10	1
4901784	135	C	03/16/2019	10:49	-133.173	43.080	0	102.70	0	9.6530	0	33.5510	8	25.881	0	101.859	0	267.1	4	95.5	4	-1E+10	1	-1E+10	1	-1E+10	1	-1E+10	1	-1E+10	1	-1E+10	1
4901784	135	C	03/16/2019	10:49	-133.173	43.080	0	105.20	0	9.6510	0	33.5500	8	25.880	0	104.338	0	266.9	4	95.5	4	-1E+10	1	-1E+10	1	-1E+10	1	-1E+10	1	-1E+10	1	-1E+10	1
4901784	135	C	03/16/2019	10:49	-133.173	43.080	0	107.80	0	9.6490	0	33.5510	8	25.881	0	106.916	0	266.0	4	95.2	4	-1E+10	1	-1E+10	1	-1E+10	1	-1E+10	1	-1E+10	1	-1E+10	1
4901784	135	C	03/16/2019	10:49	-133.173	43.080	0	110.40	0	9.6460	0	33.5500	8	25.881	0	109.494	0	265.2	4	94.8	4	-1E+10	1	-1E+10	1	-1E+10	1	-1E+10	1	-1E+10	1	-1E+10	1
4901784	135	C	03/16/2019	10:49	-133.173	43.080	0	112.90	0	9.6420	0	33.5490	8	25.881	0	111.973	0	263.6	4	94.3	4	-1E+10	1	-1E+10	1	-1E+10	1	-1E+10	1	-1E+10	1	-1E+10	1
4901784	135	C	03/16/2019	10:49	-133.173	43.080	0	115.40	0	9.6370	0	33.5470	8	25.880	0	114.452	0	261.5	4	93.5	4	-1E+10	1	-1E+10	1	-1E+10	1	-1E+10	1	-1E+10	1	-1E+10	1
4901784	135	C	03/16/2019	10:49	-133.173	43.080	0	117.80	0	9.6170	0	33.5450	8	25.882	0	116.831	0	258.1	4	92.2	4	-1E+10	1	-1E+10	1	-1E+10	1	-1E+10	1	-1E+10	1	-1E+10	1
4901784	135	C	03/16/2019	10:49	-133.173	43.080	0	120.10	0	9.6050	0	33.5370	8	25.878	0	119.112	0	253.1	4	90.4	4	-1E+10	1	-1E+10	1	-1E+10	1	-1E+10	1	-1E+10	1	-1E+10	1
4901784	135	C	03/16/2019	10:49	-133.173	43.080	0	122.10	0	9.4460	0	33.5650	8	25.926	0	121.094	0	246.7	4	87.8	4	-1E+10	1	-1E+10	1	-1E+10	1	-1E+10	1	-1E+10	1	-1E+10	1
4901784	135	C	03/16/2019	10:49	-133.173	43.080	0	124.60	0	8.8610	0	33.6790	8	26.108	0	123.573	0	242.1	4	85.2	4	-1E+10	1	-1E+10	1	-1E+10	1	-1E+10	1	-1E+10	1	-1E+10	1
4901784	135	C	03/16/2019	10:49	-133.173	43.080	0	127.70	0	8.4390	0	33.7850	8	26.256	0	126.647	0	240.8	4	84.0	4	-1E+10	1	-1E+10	1	-1E+10	1	-1E+10	1	-1E+10	1	-1E+10	1
4901784	135	C	03/16/2019	10:49	-133.173	43.080	0	130.00	0	8.3230	0	33.8220	8	26.303	0	128.927	0	239.8	4	83.5	4	-1E+10	1	-1E+10	1	-1E+10	1	-1E+10	1	-1E+10	1	-1E+10	1
4901784	135	C	03/16/2019	10:49	-133.173	43.080	0	132.40	0	8.2880	0	33.8730	8	26.348	0	131.306	0	238.0	4	82.8	4	-1E+10	1	-1E+10	1	-1E+10	1	-1E+10	1	-1E+10	1	-1E+10	1
4901784	135	C	03/16/2019	10:49	-133.173	43.080	0	134.80	0	8.3000	0	33.9410	8	26.400	0	133.686	0	236.4	4	82.3	4	-1E+10	1	-1E+10	1	-1E+10	1	-1E+10	1	-1E+10	1	-1E+10	1
4901784	135	C	03/16/2019	10:49	-133.173	43.080	0	137.30	0	8.2960	0	33.9760	8	26.428	0	136.164	0	235.5	4	82.0	4	-1E+10	1	-1E+10	1	-1E+10	1	-1E+10	1	-1E+10	1	-1E+10	1
4901784	135	C	03/16/2019	10:49	-133.173	43.080	0	139.70	0	8.2880	0	33.9870	8	26.438	0	138.544	0	234.6	4	81.7	4	-1E+10	1	-1E+10	1	-1E+10	1	-1E+10	1	-1E+10	1	-1E+10	1
4901784	135	C	03/16/2019	10:49	-133.173	43.080	0	142.30	0	8.2690	0	34.0060	8	26.455	0	141.121	0	233.4	4	81.2	4	-1E+10	1	-1E+10	1	-1E+10	1	-1E+10	1	-1E+10	1	-1E+10	1
4901784	135	C	03/16/2019	10:49	-133.173	43.080	0	145.50	0	8.2360	0	34.0400	8	26.487	0	144.294	0	231.3	4	80.5	4	-1E+10	1	-1E+10	1	-1E+10	1	-1E+10	1	-1E+10	1	-1E+10	1
4901784	135	C	03/16/2019	10:49	-133.173	43.080	0	147.70	0	8.2150	0	34.0700	8	26.514	0	146.475	0	229.5	4	79.8	4	-1E+10	1	-1E+10	1	-1E+10	1	-1E+10	1	-1E+10	1	-1E+10	1
4901784	135	C	03/16/2019	10:49	-133.173	43.080	0	149.90	0	8.1630	0	34.1250	8	26.565	0	148.656	0	227.5	4	79.1	4	-1E+10	1	-1E+10	1	-1E+10	1	-1E+10	1	-1E+10	1	-1E+10	1
4901784	135	C	03/16/2019	10:49	-133.173	43.080	0	152.90	0	8.1440	0	34.1680	8	26.602	0	151.630	0	224.6	4	78.1	4	-1E+10	1	-1E+10	1	-1E+10	1	-1E+10	1	-1E+10	1	-1E+10	1
4901784	135	C	03/16/2019	10:49	-133.173	43.080	0	155.30	0	8.1340	0	34.2180	8	26.642	0	154.009	0	221.9	4	77.1	4	-1E+10	1	-1E+10	1	-1E+10	1	-1E+10	1	-1E+10	1	-1E+10	1
4901784	135	C	03/16/2019	10:49	-133.173	43.080	0	157.70	0	8.0930	0	34.2780	8	26.696	0	156.388	0	219.4	4	76.2	4	-1E+10	1	-1E+10	1	-1E+10	1	-1E+10	1	-1E+10	1	-1E+10	1
4901784	135	C	03/16/2019	10:49	-133.173	43.080	0	160.00	0	8.0490	0	34.3190	8	26.734	0	158.668	0	217.6	4	75.5	4	-1E+10	1	-1E+10	1	-1E+10	1	-1E+10	1	-1E+10	1	-1E+10	1
4901784	135	C	03/16/2019	10:49	-133.173	43.080	0	162.40	0	8.0500	0	34.3430	8	26.753	0	161.047	0	215.0	4	74.7	4	-1E+10	1	-1E+10	1	-1E+10	1	-1E+10	1	-1E+10	1	-1E+10	1
4901784	135	C	03/16/2019	10:49	-133.173	43.080	0	164.90	0	8.0570	0	34.3800	8	26.781	0	163.525	0	211.8	4	73.6	4	-1E+10	1	-1E+10	1	-1E+10	1	-1E+10	1	-1E+10	1	-1E+10	1
4901784	135	C	03/16/2019	10:49	-133.173	43.080	0	167.40	0	8.0600	0	34.4050	8	26.800	0	166.003	0	208.1	4	72.3	4	-1E+10	1	-1E+10	1	-1E+10	1	-1E+10	1	-1E+10	1	-1E+10	1
4901784	135	C	03/16/2019	10:49	-133.173	43.080	0	170.00	0	8.0640	0	34.4330	8	26.822	0	168.580	0	203.4	4	70.7	4	-1E+10	1	-1E+10	1	-1E+10	1	-1E+10	1	-1E+10	1	-1E+10	1
4901784	135	C	03/16/2019	10:49	-133.173	43.080	0	172.70	0	8.0920	0	34.5350	8	26.898	0	171.257	0	197.2	4	68.6	4	-1E+10	1	-1E+10	1	-1E+10	1	-1E+10	1	-1E+10	1	-1E+10	1
4901784	135	C	03/16/2019	10:49	-133.173	43.080	0	175.50	0	8.1550	0	34.6130	8	26.950	0	174.032	0	191.0	4	66.6	4	-1E+10	1	-1E+10	1	-1E+10	1	-1E+10	1	-1E+10	1	-1E+10	1
4901784	135	C	03/16/2019	10:49	-133.173	43.080	0	177.40	0	8.1910	0	34.6640	8	26.984	0	175.916	0	187.6	4	65.5	4	-1E+10	1	-1E+10	1	-1E+10	1	-1E+10	1	-1E+10	1	-1E+10	1
4901784	135	C	03/16/2019	10:49	-133.173	43.080	0	179.40	0	8.2100	0	34.6820	8	26.996	0	177.898	0	184.4	4	64.4	4	-1E+10	1	-1E+10	1	-1E+10	1	-1E+10	1	-1E+10	1	-1E+10	1
4901784	135	C	03/16/2019	10:49	-133.173	43.080	0	182.20	0	8.2560	0	34.7230	8	27.021	0	180.673	0	179.3	4	62.7	4	-1E+10	1	-1E+10	1	-1E+10	1	-1E+10	1	-1E+10	1	-1E+10	1
4901784	135	C	03/16/2019	10:49	-133.173	43.080	0	185.10	0	8.2850	0	34.7670	8	27.051	0	183.548	0	175.2	4	61.4	4	-1E+10	1	-1E+10	1	-1E+10	1	-1E+10	1	-1E+10	1	-1E+10	1
4901784	135	C	03/16/2019	10:49	-133.173	43.080	0	187.00	0	8.3010	0	34.8040	8	27.078	0	185.431	0	173.2	4	60.7	4	-1E+10	1	-1E+10	1	-1E+10	1	-1E+10	1	-1E+10	1	-1E+10	1
4901784	135	C	03/16/2019	10:49	-133.173	43.080	0	189.80	0	8.3070	0	34.8270	8	27.095	0	188.206	0	170.9	4	59.9	4	-1E+10	1	-1E+10	1	-1E+10	1	-1E+10	1	-1E+10	1	-1E+10	1
4901784	135	C	03/16/2019	10:49	-133.173	43.080	0	193.00	0	8.3110	0	34.8370	8	27.102	0	191.378	0	168.2	4	59.0	4	-1E+10	1	-1E+10	1	-1E+10	1	-1E+10	1	-1E+10	1	-1E+10	1
4901784	135	C	03/16/2019	10:49	-133.173	43.080	0	194.90	0	8.3140	0	34.8500	8	27.112	0	193.261	0	165.6	4	58.1	4	-1E+10	1	-1E+10	1	-1E+10	1	-1E+10	1	-1E+10	1	-1E+10	1
4901784	135	C	03/16/2019	10:49	-133.173	43.080	0	197.20	0	8.3180	0	34.9140	8	27.161	0	195.540	0	163.4	4	57.3	4	-1E+10	1	-1E+10	1	-1E+10	1	-1E+10	1	-1E+10	1	-1E+10	1
4901784	135	C	03/16/2019	10:49	-133.173	43.080	0	200.40	0	8.3150	0	34.9300	8	27.175	0	198.712	0	161.9	4	56.8	4	-1E+10	1	-1E+10	1	-1E+10	1	-1E+10	1	-1E+10	1	-1E+10	1
4901784	135	C	03/16/2019	10:49	-133.173	43.080	0	202.70	0	8.3120	0	34.9430	8	27.185	0	200.992	0	160.7	4	56.4	4	-1E+10	1	-1E+10	1	-1E+10	1	-1E+10	1	-1E+10	1	-1E+10	1
4901784	135	C	03/16/2019	10:49	-133.173	43.080	0	205.10	0	8.3050	0	34.9610	8	27.200	0	203.370	0	159.6	4	56.0	4	-1E+10	1	-1E+10	1	-1E+10	1	-1E+10	1	-1E+10	1	-1E+10	1
4901784	135	C	03/16/2019	10:49	-133.173	43.080	0	207.50	0	8.2970	0	34.9860	8	27.221	0	205.749	0	158.8	4	55.7	4	-1E+10	1	-1E+10	1	-1E+10	1	-1E+10	1	-1E+10	1	-1E+10	1
4901784	135	C	03/16/2019	10:49	-133.173	43.080	0	209.90	0	8.2900	0	35.0020	8	27.235	0	208.127	0	157.9	4	55.4	4	-1E+10	1	-1E+10	1	-1E+10	1	-1E+10	1	-1E+10	1	-1E+10	1
4901784	135	C	03/16/2019	10:49	-133.173	43.080	0	212.40	0	8.2420	0	35.0300	8	27.264	0	210.605	0	156.3	4	54.8	4	-1E+10	1	-1E+10	1	-1E+10	1	-1E+10	1	-1E+10	1	-1E+10	1
4901784	135	C	03/16/2019	10:49	-133.173	43.080	0	214.80	0	8.2290	0	35.0350	8	27.270	0	212.983	0	155.9	4	54.6	4	-1E+10	1	-1E+10	1	-1E+10	1	-1E+10	1	-1E+10	1	-1E+10	1
4901784	135	C	03/16/2019	10:49	-133.173	43.080	0	217.30	0	8.2120	0	35.0420	8	27.278	0	215.461	0	155.7	4	54.6	4	-1E+10	1	-1E+10	1	-1E+10	1	-1E+10	1	-1E+10	1	-1E+10	1
4901784	135	C	03/16/2019	10:49	-133.173	43.080	0	219.70	0	8.1930	0	35.0540	8	27.291	0	217.839	0	155.4	4	54.4	4	-1E+10	1	-1E+10	1	-1E+10	1	-1E+10	1	-1E+10	1	-1E+10	1
4901784	135	C	03/16/2019	10:49	-133.173	43.080	0	222.90	0	8.1560	0	35.0640	8	27.304	0	221.010	0	154.5	4	54.1	4	-1E+10	1	-1E+10	1	-1E+10	1	-1E+10	1	-1E+10	1	-1E+10	1
4901784	135	C	03/16/2019	10:49	-133.173	43.080	0	225.30	0	8.1150	0	35.0740	8	27.318	0	223.389	0	154.3	4	53.9	4	-1E+10	1	-1E+10	1	-1E+10	1	-1E+10	1	-1E+10	1	-1E+10	1
4901784	135	C	03/16/2019	10:49	-133.173	43.080	0	227.80	0	8.0980	0	35.0830	8	27.328	0	225.866	0	153.1	4	53.5	4	-1E+10	1	-1E+10	1	-1E+10	1	-1E+10	1	-1E+10	1	-1E+10	1
4901784	135	C	03/16/2019	10:49	-133.173	43.080	0	230.30	0	8.0420	0	35.0870	8	27.340	0	228.344	0	151.2	4	52.8	4	-1E+10	1	-1E+10	1	-1E+10	1	-1E+10	1	-1E+10	1	-1E+10	1
4901784	135	C	03/16/2019	10:49	-133.173	43.080	0	232.80	0	7.9830	0	35.0890	8	27.350	0	230.821	0	149.4	4	52.1	4	-1E+10	1	-1E+10	1	-1E+10	1	-1E+10	1	-1E+10	1	-1E+10	1
4901784	135	C	03/16/2019	10:49	-133.173	43.080	0	235.30	0	7.9440	0	35.0890	8	27.356	0	233.298	0	148.0	4	51.5	4	-1E+10	1	-1E+10	1	-1E+10	1	-1E+10	1	-1E+10	1	-1E+10	1
4901784	135	C	03/16/2019	10:49	-133.173	43.080	0	237.80	0	7.9180	0	35.0890	8	27.360	0	235.776	0	146.6	4	51.0	4	-1E+10	1	-1E+10	1	-1E+10	1	-1E+10	1	-1E+10	1	-1E+10	1
4901784	135	C	03/16/2019	10:49	-133.173	43.080	0	240.40	0	7.8680	0	35.0910	8	27.369	0	238.352	0	145.1	4	50.5	4	-1E+10	1	-1E+10	1	-1E+10	1	-1E+10	1	-1E+10	1	-1E+10	1
4901784	135	C	03/16/2019	10:49	-133.173	43.080	0	242.00	0	7.8310	0	35.0920	8	27.375	0	239.938	0	144.4	4	50.2	4	-1E+10	1	-1E+10	1	-1E+10	1	-1E+10	1	-1E+10	1	-1E+10	1
4901784	135	C	03/16/2019	10:49	-133.173	43.080	0	244.60	0	7.8110	0	35.0910	8	27.378	0	242.514	0	142.9	4	49.6	4	-1E+10	1	-1E+10	1	-1E+10	1	-1E+10	1	-1E+10	1	-1E+10	1
4901784	135	C	03/16/2019	10:49	-133.173	43.080	0	247.10	0	7.7830	0	35.0890	8	27.380	0	244.991	0	141.1	4	49.0	4	-1E+10	1	-1E+10	1	-1E+10	1	-1E+10	1	-1E+10	1	-1E+10	1
4901784	135	C	03/16/2019	10:49	-133.173	43.080	0	249.60	0	7.6940	0	35.0920	8	27.396	0	247.468	0	139.2	4	48.2	4	-1E+10	1	-1E+10	1	-1E+10	1	-1E+10	1	-1E+10	1	-1E+10	1
4901784	135	C	03/16/2019	10:49	-133.173	43.080	0	252.10	0	7.6150	0	35.0960	8	27.410	0	249.945	0	137.8	4	47.7	4	-1E+10	1	-1E+10	1	-1E+10	1	-1E+10	1	-1E+10	1	-1E+10	1
4901784	135	C	03/16/2019	10:49	-133.173	43.080	0	254.70	0	7.5940	0	35.0950	8	27.413	0	252.522	0	136.8	4	47.3	4	-1E+10	1	-1E+10	1	-1E+10	1	-1E+10	1	-1E+10	1	-1E+10	1
4901784	135	C	03/16/2019	10:49	-133.173	43.080	0	257.20	0	7.5560	0	35.0950	8	27.418	0	254.999	0	135.3	4	46.7	4	-1E+10	1	-1E+10	1	-1E+10	1	-1E+10	1	-1E+10	1	-1E+10	1
4901784	135	C	03/16/2019	10:49	-133.173	43.080	0	259.80	0	7.5130	0	35.0950	8	27.425	0	257.575	0	134.0	4	46.2	4	-1E+10	1	-1E+10	1	-1E+10	1	-1E+10	1	-1E+10	1	-1E+10	1
4901784	135	C	03/16/2019	10:49	-133.173	43.080	0	262.40	0	7.4530	0	35.0970	8	27.435	0	260.151	0	132.8	4	45.8	4	-1E+10	1	-1E+10	1	-1E+10	1	-1E+10	1	-1E+10	1	-1E+10	1
4901784	135	C	03/16/2019	10:49	-133.173	43.080	0	265.10	0	7.4170	0	35.0980	8	27.441	0	262.826	0	131.9	4	45.4	4	-1E+10	1	-1E+10	1	-1E+10	1	-1E+10	1	-1E+10	1	-1E+10	1
4901784	135	C	03/16/2019	10:49	-133.173	43.080	0	267.70	0	7.3860	0	35.0980	8	27.445	0	265.402	0	131.0	4	45.1	4	-1E+10	1	-1E+10	1	-1E+10	1	-1E+10	1	-1E+10	1	-1E+10	1
4901784	135	C	03/16/2019	10:49	-133.173	43.080	0	269.50	0	7.3590	0	35.0990	8	27.450	0	267.185	0	130.2	4	44.8	4	-1E+10	1	-1E+10	1	-1E+10	1	-1E+10	1	-1E+10	1	-1E+10	1
4901784	135	C	03/16/2019	10:49	-133.173	43.080	0	272.20	0	7.3230	0	35.1000	8	27.456	0	269.860	0	129.3	4	44.4	4	-1E+10	1	-1E+10	1	-1E+10	1	-1E+10	1	-1E+10	1	-1E+10	1
4901784	135	C	03/16/2019	10:49	-133.173	43.080	0	274.90	0	7.2990	0	35.1010	8	27.460	0	272.535	0	128.5	4	44.1	4	-1E+10	1	-1E+10	1	-1E+10	1	-1E+10	1	-1E+10	1	-1E+10	1
4901784	135	C	03/16/2019	10:49	-133.173	43.080	0	277.60	0	7.2850	0	35.0990	8	27.461	0	275.210	0	127.8	4	43.9	4	-1E+10	1	-1E+10	1	-1E+10	1	-1E+10	1	-1E+10	1	-1E+10	1
4901784	135	C	03/16/2019	10:49	-133.173	43.080	0	280.30	0	7.2370	0	35.1010	8	27.469	0	277.885	0	127.1	4	43.6	4	-1E+10	1	-1E+10	1	-1E+10	1	-1E+10	1	-1E+10	1	-1E+10	1
4901784	135	C	03/16/2019	10:49	-133.173	43.080	0	282.80	0	7.2080	0	35.1040	8	27.476	0	280.362	0	126.8	4	43.4	4	-1E+10	1	-1E+10	1	-1E+10	1	-1E+10	1	-1E+10	1	-1E+10	1
4901784	135	C	03/16/2019	10:49	-133.173	43.080	0	285.50	0	7.1550	0	35.1020	8	27.482	0	283.037	0	126.1	4	43.2	4	-1E+10	1	-1E+10	1	-1E+10	1	-1E+10	1	-1E+10	1	-1E+10	1
4901784	135	C	03/16/2019	10:49	-133.173	43.080	0	287.20	0	7.1490	0	35.1020	8	27.482	0	284.721	0	124.9	4	42.7	4	-1E+10	1	-1E+10	1	-1E+10	1	-1E+10	1	-1E+10	1	-1E+10	1
4901784	135	C	03/16/2019	10:49	-133.173	43.080	0	290.00	0	7.1300	0	35.1020	8	27.485	0	287.495	0	123.2	4	42.2	4	-1E+10	1	-1E+10	1	-1E+10	1	-1E+10	1	-1E+10	1	-1E+10	1
4901784	135	C	03/16/2019	10:49	-133.173	43.080	0	292.70	0	7.1110	0	35.1010	8	27.487	0	290.170	0	121.7	4	41.6	4	-1E+10	1	-1E+10	1	-1E+10	1	-1E+10	1	-1E+10	1	-1E+10	1
4901784	135	C	03/16/2019	10:49	-133.173	43.080	0	294.60	0	7.0790	0	35.1020	8	27.492	0	292.052	0	120.6	4	41.2	4	-1E+10	1	-1E+10	1	-1E+10	1	-1E+10	1	-1E+10	1	-1E+10	1
4901784	135	C	03/16/2019	10:49	-133.173	43.080	0	297.30	0	7.0110	0	35.1030	8	27.503	0	294.727	0	119.2	4	40.7	4	-1E+10	1	-1E+10	1	-1E+10	1	-1E+10	1	-1E+10	1	-1E+10	1
4901784	135	C	03/16/2019	10:49	-133.173	43.080	0	300.20	0	6.9620	0	35.1030	8	27.509	0	297.600	0	119.0	4	40.6	4	-1E+10	1	-1E+10	1	-1E+10	1	-1E+10	1	-1E+10	1	-1E+10	1
4901784	135	C	03/16/2019	10:49	-133.173	43.080	0	302.00	0	6.9230	0	35.1040	8	27.516	0	299.383	0	118.7	4	40.4	4	-1E+10	1	-1E+10	1	-1E+10	1	-1E+10	1	-1E+10	1	-1E+10	1
4901784	135	C	03/16/2019	10:49	-133.173	43.080	0	305.00	0	6.8600	0	35.1050	8	27.525	0	302.355	0	118.8	4	40.4	4	-1E+10	1	-1E+10	1	-1E+10	1	-1E+10	1	-1E+10	1	-1E+10	1
4901784	135	C	03/16/2019	10:49	-133.173	43.080	0	307.80	0	6.8210	0	35.1060	8	27.531	0	305.128	0	118.9	4	40.4	4	-1E+10	1	-1E+10	1	-1E+10	1	-1E+10	1	-1E+10	1	-1E+10	1
4901784	135	C	03/16/2019	10:49	-133.173	43.080	0	309.70	0	6.8030	0	35.1040	8	27.532	0	307.010	0	118.7	4	40.3	4	-1E+10	1	-1E+10	1	-1E+10	1	-1E+10	1	-1E+10	1	-1E+10	1
4901784	135	C	03/16/2019	10:49	-133.173	43.080	0	312.50	0	6.7620	0	35.1060	8	27.540	0	309.784	0	117.6	4	39.9	4	-1E+10	1	-1E+10	1	-1E+10	1	-1E+10	1	-1E+10	1	-1E+10	1
4901784	135	C	03/16/2019	10:49	-133.173	43.080	0	315.40	0	6.6700	0	35.1040	8	27.550	0	312.657	0	117.6	4	39.8	4	-1E+10	1	-1E+10	1	-1E+10	1	-1E+10	1	-1E+10	1	-1E+10	1
4901784	135	C	03/16/2019	10:49	-133.173	43.080	0	317.80	0	6.5960	0	35.1040	8	27.560	0	315.034	0	116.6	4	39.4	4	-1E+10	1	-1E+10	1	-1E+10	1	-1E+10	1	-1E+10	1	-1E+10	1
4901784	135	C	03/16/2019	10:49	-133.173	43.080	0	319.70	0	6.5590	0	35.1050	8	27.566	0	316.916	0	116.0	4	39.2	4	-1E+10	1	-1E+10	1	-1E+10	1	-1E+10	1	-1E+10	1	-1E+10	1
4901784	135	C	03/16/2019	10:49	-133.173	43.080	0	322.10	0	6.5240	0	35.1050	8	27.571	0	319.293	0	115.4	4	38.9	4	-1E+10	1	-1E+10	1	-1E+10	1	-1E+10	1	-1E+10	1	-1E+10	1
4901784	135	C	03/16/2019	10:49	-133.173	43.080	0	324.60	0	6.5060	0	35.1030	8	27.572	0	321.769	0	114.5	4	38.6	4	-1E+10	1	-1E+10	1	-1E+10	1	-1E+10	1	-1E+10	1	-1E+10	1
4901784	135	C	03/16/2019	10:49	-133.173	43.080	0	327.10	0	6.4510	0	35.1020	8	27.578	0	324.246	0	113.3	4	38.2	4	-1E+10	1	-1E+10	1	-1E+10	1	-1E+10	1	-1E+10	1	-1E+10	1
4901784	135	C	03/16/2019	10:49	-133.173	43.080	0	330.30	0	6.3240	0	35.1030	8	27.596	0	327.415	0	112.0	4	37.6	4	-1E+10	1	-1E+10	1	-1E+10	1	-1E+10	1	-1E+10	1	-1E+10	1
4901784	135	C	03/16/2019	10:49	-133.173	43.080	0	332.80	0	6.2510	0	35.1040	8	27.606	0	329.891	0	111.4	4	37.4	4	-1E+10	1	-1E+10	1	-1E+10	1	-1E+10	1	-1E+10	1	-1E+10	1
4901784	135	C	03/16/2019	10:49	-133.173	43.080	0	335.20	0	6.2490	0	35.1030	8	27.606	0	332.268	0	110.8	4	37.2	4	-1E+10	1	-1E+10	1	-1E+10	1	-1E+10	1	-1E+10	1	-1E+10	1
4901784	135	C	03/16/2019	10:49	-133.173	43.080	0	337.70	0	6.2370	0	35.1030	8	27.608	0	334.745	0	109.9	4	36.8	4	-1E+10	1	-1E+10	1	-1E+10	1	-1E+10	1	-1E+10	1	-1E+10	1
4901784	135	C	03/16/2019	10:49	-133.173	43.080	0	340.20	0	6.2030	0	35.1030	8	27.612	0	337.221	0	109.0	4	36.5	4	-1E+10	1	-1E+10	1	-1E+10	1	-1E+10	1	-1E+10	1	-1E+10	1
4901784	135	C	03/16/2019	10:49	-133.173	43.080	0	342.60	0	6.1650	0	35.1030	8	27.617	0	339.598	0	108.0	4	36.1	4	-1E+10	1	-1E+10	1	-1E+10	1	-1E+10	1	-1E+10	1	-1E+10	1
4901784	135	C	03/16/2019	10:49	-133.173	43.080	0	345.20	0	6.1380	0	35.1040	8	27.621	0	342.173	0	107.1	4	35.8	4	-1E+10	1	-1E+10	1	-1E+10	1	-1E+10	1	-1E+10	1	-1E+10	1
4901784	135	C	03/16/2019	10:49	-133.173	43.080	0	347.70	0	6.1170	0	35.1040	8	27.624	0	344.649	0	106.2	4	35.5	4	-1E+10	1	-1E+10	1	-1E+10	1	-1E+10	1	-1E+10	1	-1E+10	1
4901784	135	C	03/16/2019	10:49	-133.173	43.080	0	350.30	0	6.0840	0	35.1060	8	27.630	0	347.224	0	105.2	4	35.1	4	-1E+10	1	-1E+10	1	-1E+10	1	-1E+10	1	-1E+10	1	-1E+10	1
4901784	135	C	03/16/2019	10:49	-133.173	43.080	0	352.80	0	6.0580	0	35.1060	8	27.633	0	349.700	0	104.3	4	34.8	4	-1E+10	1	-1E+10	1	-1E+10	1	-1E+10	1	-1E+10	1	-1E+10	1
4901784	135	C	03/16/2019	10:49	-133.173	43.080	0	354.60	0	6.0390	0	35.1070	8	27.637	0	351.482	0	103.7	4	34.6	4	-1E+10	1	-1E+10	1	-1E+10	1	-1E+10	1	-1E+10	1	-1E+10	1
4901784	135	C	03/16/2019	10:49	-133.173	43.080	0	357.20	0	6.0150	0	35.1090	8	27.641	0	354.057	0	103.1	4	34.4	4	-1E+10	1	-1E+10	1	-1E+10	1	-1E+10	1	-1E+10	1	-1E+10	1
4901784	135	C	03/16/2019	10:49	-133.173	43.080	0	359.80	0	6.0100	0	35.1070	8	27.640	0	356.632	0	102.3	4	34.1	4	-1E+10	1	-1E+10	1	-1E+10	1	-1E+10	1	-1E+10	1	-1E+10	1
4901784	135	C	03/16/2019	10:49	-133.173	43.080	0	362.30	0	5.9700	0	35.1070	8	27.645	0	359.108	0	101.2	4	33.7	4	-1E+10	1	-1E+10	1	-1E+10	1	-1E+10	1	-1E+10	1	-1E+10	1
4901784	135	C	03/16/2019	10:49	-133.173	43.080	0	364.90	0	5.9330	0	35.1110	8	27.653	0	361.683	0	100.0	4	33.3	4	-1E+10	1	-1E+10	1	-1E+10	1	-1E+10	1	-1E+10	1	-1E+10	1
4901784	135	C	03/16/2019	10:49	-133.173	43.080	0	367.50	0	5.9010	0	35.1110	8	27.657	0	364.258	0	99.0	4	32.9	4	-1E+10	1	-1E+10	1	-1E+10	1	-1E+10	1	-1E+10	1	-1E+10	1
4901784	135	C	03/16/2019	10:49	-133.173	43.080	0	370.10	0	5.8790	0	35.1130	8	27.662	0	366.832	0	97.9	4	32.6	4	-1E+10	1	-1E+10	1	-1E+10	1	-1E+10	1	-1E+10	1	-1E+10	1
4901784	135	C	03/16/2019	10:49	-133.173	43.080	0	372.70	0	5.8450	0	35.1100	8	27.664	0	369.407	0	97.2	4	32.3	4	-1E+10	1	-1E+10	1	-1E+10	1	-1E+10	1	-1E+10	1	-1E+10	1
4901784	135	C	03/16/2019	10:49	-133.173	43.080	0	375.30	0	5.7820	0	35.1140	8	27.675	0	371.982	0	96.3	4	31.9	4	-1E+10	1	-1E+10	1	-1E+10	1	-1E+10	1	-1E+10	1	-1E+10	1
4901784	135	C	03/16/2019	10:49	-133.173	43.080	0	377.80	0	5.7420	0	35.1120	8	27.678	0	374.457	0	95.8	4	31.7	4	-1E+10	1	-1E+10	1	-1E+10	1	-1E+10	1	-1E+10	1	-1E+10	1
4901784	135	C	03/16/2019	10:49	-133.173	43.080	0	380.40	0	5.7200	0	35.1120	8	27.681	0	377.032	0	95.2	4	31.5	4	-1E+10	1	-1E+10	1	-1E+10	1	-1E+10	1	-1E+10	1	-1E+10	1
4901784	135	C	03/16/2019	10:49	-133.173	43.080	0	382.20	0	5.6860	0	35.1120	8	27.685	0	378.814	0	94.8	4	31.4	4	-1E+10	1	-1E+10	1	-1E+10	1	-1E+10	1	-1E+10	1	-1E+10	1
4901784	135	C	03/16/2019	10:49	-133.173	43.080	0	384.80	0	5.6610	0	35.1140	8	27.690	0	381.389	0	93.9	4	31.1	4	-1E+10	1	-1E+10	1	-1E+10	1	-1E+10	1	-1E+10	1	-1E+10	1
4901784	135	C	03/16/2019	10:49	-133.173	43.080	0	387.40	0	5.6320	0	35.1150	8	27.694	0	383.964	0	92.9	4	30.7	4	-1E+10	1	-1E+10	1	-1E+10	1	-1E+10	1	-1E+10	1	-1E+10	1
4901784	135	C	03/16/2019	10:49	-133.173	43.080	0	390.10	0	5.5900	0	35.1160	8	27.700	0	386.637	0	92.1	4	30.4	4	-1E+10	1	-1E+10	1	-1E+10	1	-1E+10	1	-1E+10	1	-1E+10	1
4901784	135	C	03/16/2019	10:49	-133.173	43.080	0	392.60	0	5.5620	0	35.1180	8	27.706	0	389.113	0	91.3	4	30.1	4	-1E+10	1	-1E+10	1	-1E+10	1	-1E+10	1	-1E+10	1	-1E+10	1
4901784	135	C	03/16/2019	10:49	-133.173	43.080	0	395.20	0	5.5420	0	35.1180	8	27.708	0	391.687	0	90.5	4	29.9	4	-1E+10	1	-1E+10	1	-1E+10	1	-1E+10	1	-1E+10	1	-1E+10	1
4901784	135	C	03/16/2019	10:49	-133.173	43.080	0	397.80	0	5.5240	0	35.1190	8	27.711	0	394.261	0	90.0	4	29.7	4	-1E+10	1	-1E+10	1	-1E+10	1	-1E+10	1	-1E+10	1	-1E+10	1
4901784	135	C	03/16/2019	10:49	-133.173	43.080	0	399.50	0	5.5040	0	35.1200	8	27.714	0	395.945	0	89.7	4	29.6	4	-1E+10	1	-1E+10	1	-1E+10	1	-1E+10	1	-1E+10	1	-1E+10	1
4901784	135	C	03/16/2019	10:49	-133.173	43.080	0	402.20	0	5.4730	0	35.1190	8	27.717	0	398.618	0	89.3	4	29.4	4	-1E+10	1	-1E+10	1	-1E+10	1	-1E+10	1	-1E+10	1	-1E+10	1
4901784	135	C	03/16/2019	10:49	-133.173	43.080	0	404.80	0	5.4230	0	35.1220	8	27.726	0	401.192	0	88.6	4	29.1	4	-1E+10	1	-1E+10	1	-1E+10	1	-1E+10	1	-1E+10	1	-1E+10	1
4901784	135	C	03/16/2019	10:49	-133.173	43.080	0	407.50	0	5.4150	0	35.1230	8	27.728	0	403.866	0	87.9	4	28.9	4	-1E+10	1	-1E+10	1	-1E+10	1	-1E+10	1	-1E+10	1	-1E+10	1
4901784	135	C	03/16/2019	10:49	-133.173	43.080	0	410.20	0	5.4110	0	35.1220	8	27.727	0	406.539	0	87.0	4	28.6	4	-1E+10	1	-1E+10	1	-1E+10	1	-1E+10	1	-1E+10	1	-1E+10	1
4901784	135	C	03/16/2019	10:49	-133.173	43.080	0	412.00	0	5.4050	0	35.1220	8	27.728	0	408.321	0	86.1	4	28.3	4	-1E+10	1	-1E+10	1	-1E+10	1	-1E+10	1	-1E+10	1	-1E+10	1
4901784	135	C	03/16/2019	10:49	-133.173	43.080	0	414.70	0	5.3550	0	35.1250	8	27.736	0	410.994	0	84.6	4	27.8	4	-1E+10	1	-1E+10	1	-1E+10	1	-1E+10	1	-1E+10	1	-1E+10	1
4901784	135	C	03/16/2019	10:49	-133.173	43.080	0	417.20	0	5.3130	0	35.1290	8	27.745	0	413.470	0	83.3	4	27.3	4	-1E+10	1	-1E+10	1	-1E+10	1	-1E+10	1	-1E+10	1	-1E+10	1
4901784	135	C	03/16/2019	10:49	-133.173	43.080	0	419.90	0	5.3100	0	35.1310	8	27.747	0	416.143	0	82.0	4	26.9	4	-1E+10	1	-1E+10	1	-1E+10	1	-1E+10	1	-1E+10	1	-1E+10	1
4901784	135	C	03/16/2019	10:49	-133.173	43.080	0	422.50	0	5.3000	0	35.1320	8	27.749	0	418.717	0	80.8	4	26.5	4	-1E+10	1	-1E+10	1	-1E+10	1	-1E+10	1	-1E+10	1	-1E+10	1
4901784	135	C	03/16/2019	10:49	-133.173	43.080	0	425.20	0	5.2860	0	35.1340	8	27.752	0	421.390	0	79.9	4	26.2	4	-1E+10	1	-1E+10	1	-1E+10	1	-1E+10	1	-1E+10	1	-1E+10	1
4901784	135	C	03/16/2019	10:49	-133.173	43.080	0	427.90	0	5.2710	0	35.1340	8	27.754	0	424.063	0	79.1	4	25.9	4	-1E+10	1	-1E+10	1	-1E+10	1	-1E+10	1	-1E+10	1	-1E+10	1
4901784	135	C	03/16/2019	10:49	-133.173	43.080	0	429.80	0	5.2600	0	35.1360	8	27.757	0	425.944	0	78.5	4	25.7	4	-1E+10	1	-1E+10	1	-1E+10	1	-1E+10	1	-1E+10	1	-1E+10	1
4901784	135	C	03/16/2019	10:49	-133.173	43.080	0	432.50	0	5.2560	0	35.1350	8	27.756	0	428.617	0	77.6	4	25.4	4	-1E+10	1	-1E+10	1	-1E+10	1	-1E+10	1	-1E+10	1	-1E+10	1
4901784	135	C	03/16/2019	10:49	-133.173	43.080	0	435.20	0	5.1990	0	35.1390	8	27.766	0	431.290	0	76.5	4	25.0	4	-1E+10	1	-1E+10	1	-1E+10	1	-1E+10	1	-1E+10	1	-1E+10	1
4901784	135	C	03/16/2019	10:49	-133.173	43.080	0	437.00	0	5.1890	0	35.1390	8	27.768	0	433.072	0	75.6	4	24.7	4	-1E+10	1	-1E+10	1	-1E+10	1	-1E+10	1	-1E+10	1	-1E+10	1
4901784	135	C	03/16/2019	10:49	-133.173	43.080	0	439.80	0	5.1550	0	35.1440	8	27.776	0	435.844	0	73.9	4	24.2	4	-1E+10	1	-1E+10	1	-1E+10	1	-1E+10	1	-1E+10	1	-1E+10	1
4901784	135	C	03/16/2019	10:49	-133.173	43.080	0	442.60	0	5.1290	0	35.1460	8	27.780	0	438.616	0	72.8	4	23.8	4	-1E+10	1	-1E+10	1	-1E+10	1	-1E+10	1	-1E+10	1	-1E+10	1
4901784	135	C	03/16/2019	10:49	-133.173	43.080	0	445.30	0	5.0940	0	35.1510	8	27.788	0	441.288	0	71.9	4	23.5	4	-1E+10	1	-1E+10	1	-1E+10	1	-1E+10	1	-1E+10	1	-1E+10	1
4901784	135	C	03/16/2019	10:49	-133.173	43.080	0	448.10	0	5.0750	0	35.1530	8	27.792	0	444.060	0	71.2	4	23.2	4	-1E+10	1	-1E+10	1	-1E+10	1	-1E+10	1	-1E+10	1	-1E+10	1
4901784	135	C	03/16/2019	10:49	-133.173	43.080	0	449.90	0	5.0700	0	35.1530	8	27.793	0	445.842	0	70.6	4	23.0	4	-1E+10	1	-1E+10	1	-1E+10	1	-1E+10	1	-1E+10	1	-1E+10	1
4901784	135	C	03/16/2019	10:49	-133.173	43.080	0	452.60	0	5.0650	0	35.1540	8	27.794	0	448.515	0	69.8	4	22.8	4	-1E+10	1	-1E+10	1	-1E+10	1	-1E+10	1	-1E+10	1	-1E+10	1
4901784	135	C	03/16/2019	10:49	-133.173	43.080	0	455.40	0	5.0450	0	35.1570	8	27.799	0	451.286	0	68.7	4	22.4	4	-1E+10	1	-1E+10	1	-1E+10	1	-1E+10	1	-1E+10	1	-1E+10	1
4901784	135	C	03/16/2019	10:49	-133.173	43.080	0	457.30	0	5.0350	0	35.1580	8	27.801	0	453.167	0	68.0	4	22.2	4	-1E+10	1	-1E+10	1	-1E+10	1	-1E+10	1	-1E+10	1	-1E+10	1
4901784	135	C	03/16/2019	10:49	-133.173	43.080	0	460.00	0	5.0230	0	35.1600	8	27.804	0	455.840	0	66.8	4	21.8	4	-1E+10	1	-1E+10	1	-1E+10	1	-1E+10	1	-1E+10	1	-1E+10	1
4901784	135	C	03/16/2019	10:49	-133.173	43.080	0	462.90	0	5.0000	0	35.1650	8	27.811	0	458.710	0	65.6	4	21.4	4	-1E+10	1	-1E+10	1	-1E+10	1	-1E+10	1	-1E+10	1	-1E+10	1
4901784	135	C	03/16/2019	10:49	-133.173	43.080	0	464.80	0	4.9940	0	35.1660	8	27.812	0	460.591	0	64.8	4	21.1	4	-1E+10	1	-1E+10	1	-1E+10	1	-1E+10	1	-1E+10	1	-1E+10	1
4901784	135	C	03/16/2019	10:49	-133.173	43.080	0	467.60	0	4.9760	0	35.1690	8	27.817	0	463.363	0	63.6	4	20.7	4	-1E+10	1	-1E+10	1	-1E+10	1	-1E+10	1	-1E+10	1	-1E+10	1
4901784	135	C	03/16/2019	10:49	-133.173	43.080	0	470.50	0	4.9550	0	35.1720	8	27.822	0	466.233	0	62.5	4	20.3	4	-1E+10	1	-1E+10	1	-1E+10	1	-1E+10	1	-1E+10	1	-1E+10	1
4901784	135	C	03/16/2019	10:49	-133.173	43.080	0	472.40	0	4.9410	0	35.1750	8	27.826	0	468.114	0	61.8	4	20.1	4	-1E+10	1	-1E+10	1	-1E+10	1	-1E+10	1	-1E+10	1	-1E+10	1
4901784	135	C	03/16/2019	10:49	-133.173	43.080	0	475.20	0	4.9290	0	35.1780	8	27.829	0	470.885	0	60.8	4	19.8	4	-1E+10	1	-1E+10	1	-1E+10	1	-1E+10	1	-1E+10	1	-1E+10	1
4901784	135	C	03/16/2019	10:49	-133.173	43.080	0	478.00	0	4.9170	0	35.1810	8	27.833	0	473.657	0	59.7	4	19.4	4	-1E+10	1	-1E+10	1	-1E+10	1	-1E+10	1	-1E+10	1	-1E+10	1
4901784	135	C	03/16/2019	10:49	-133.173	43.080	0	479.80	0	4.8960	0	35.1850	8	27.839	0	475.438	0	59.1	4	19.2	4	-1E+10	1	-1E+10	1	-1E+10	1	-1E+10	1	-1E+10	1	-1E+10	1
4901784	135	C	03/16/2019	10:49	-133.173	43.080	0	482.70	0	4.8870	0	35.1880	8	27.842	0	478.308	0	58.4	4	19.0	4	-1E+10	1	-1E+10	1	-1E+10	1	-1E+10	1	-1E+10	1	-1E+10	1
4901784	135	C	03/16/2019	10:49	-133.173	43.080	0	485.40	0	4.8770	0	35.1910	8	27.846	0	480.981	0	57.5	4	18.7	4	-1E+10	1	-1E+10	1	-1E+10	1	-1E+10	1	-1E+10	1	-1E+10	1
4901784	135	C	03/16/2019	10:49	-133.173	43.080	0	487.30	0	4.8710	0	35.1920	8	27.847	0	482.861	0	57.1	4	18.5	4	-1E+10	1	-1E+10	1	-1E+10	1	-1E+10	1	-1E+10	1	-1E+10	1
4901784	135	C	03/16/2019	10:49	-133.173	43.080	0	490.20	0	4.8610	0	35.1950	8	27.851	0	485.731	0	56.4	4	18.3	4	-1E+10	1	-1E+10	1	-1E+10	1	-1E+10	1	-1E+10	1	-1E+10	1
4901784	135	C	03/16/2019	10:49	-133.173	43.080	0	492.90	0	4.8510	0	35.1980	8	27.854	0	488.404	0	55.8	4	18.1	4	-1E+10	1	-1E+10	1	-1E+10	1	-1E+10	1	-1E+10	1	-1E+10	1
4901784	135	C	03/16/2019	10:49	-133.173	43.080	0	494.90	0	4.8500	0	35.1990	8	27.855	0	490.383	0	55.5	4	18.0	4	-1E+10	1	-1E+10	1	-1E+10	1	-1E+10	1	-1E+10	1	-1E+10	1
4901784	135	C	03/16/2019	10:49	-133.173	43.080	0	497.70	0	4.8440	0	35.2010	8	27.858	0	493.154	0	54.9	4	17.8	4	-1E+10	1	-1E+10	1	-1E+10	1	-1E+10	1	-1E+10	1	-1E+10	1
4901784	135	C	03/16/2019	10:49	-133.173	43.080	0	500.60	0	4.8410	0	35.2020	8	27.859	0	496.024	0	54.4	4	17.6	4	-1E+10	1	-1E+10	1	-1E+10	1	-1E+10	1	-1E+10	1	-1E+10	1
4901784	135	C	03/16/2019	10:49	-133.173	43.080	0	505.40	0	4.8310	0	35.2040	8	27.862	0	500.775	0	53.0	4	17.2	4	-1E+10	1	-1E+10	1	-1E+10	1	-1E+10	1	-1E+10	1	-1E+10	1
4901784	135	C	03/16/2019	10:49	-133.173	43.080	0	509.90	0	4.8050	0	35.2120	8	27.871	0	505.228	0	52.0	4	16.9	4	-1E+10	1	-1E+10	1	-1E+10	1	-1E+10	1	-1E+10	1	-1E+10	1
4901784	135	C	03/16/2019	10:49	-133.173	43.080	0	514.30	0	4.7890	0	35.2150	8	27.875	0	509.582	0	51.4	4	16.7	4	-1E+10	1	-1E+10	1	-1E+10	1	-1E+10	1	-1E+10	1	-1E+10	1
4901784	135	C	03/16/2019	10:49	-133.173	43.080	0	519.90	0	4.7740	0	35.2180	8	27.879	0	515.124	0	50.6	4	16.4	4	-1E+10	1	-1E+10	1	-1E+10	1	-1E+10	1	-1E+10	1	-1E+10	1
4901784	135	C	03/16/2019	10:49	-133.173	43.080	0	525.60	0	4.7490	0	35.2230	8	27.886	0	520.764	0	49.1	4	15.9	4	-1E+10	1	-1E+10	1	-1E+10	1	-1E+10	1	-1E+10	1	-1E+10	1
4901784	135	C	03/16/2019	10:49	-133.173	43.080	0	530.60	0	4.7310	0	35.2270	8	27.891	0	525.712	0	47.9	4	15.5	4	-1E+10	1	-1E+10	1	-1E+10	1	-1E+10	1	-1E+10	1	-1E+10	1
4901784	135	C	03/16/2019	10:49	-133.173	43.080	0	535.60	0	4.7110	0	35.2330	8	27.898	0	530.660	0	46.3	4	15.0	4	-1E+10	1	-1E+10	1	-1E+10	1	-1E+10	1	-1E+10	1	-1E+10	1
4901784	135	C	03/16/2019	10:49	-133.173	43.080	0	540.50	0	4.6940	0	35.2400	8	27.906	0	535.508	0	44.8	4	14.5	4	-1E+10	1	-1E+10	1	-1E+10	1	-1E+10	1	-1E+10	1	-1E+10	1
4901784	135	C	03/16/2019	10:49	-133.173	43.080	0	545.50	0	4.6860	0	35.2430	8	27.909	0	540.455	0	43.6	4	14.1	4	-1E+10	1	-1E+10	1	-1E+10	1	-1E+10	1	-1E+10	1	-1E+10	1
4901784	135	C	03/16/2019	10:49	-133.173	43.080	0	550.50	0	4.6700	0	35.2490	8	27.916	0	545.403	0	41.9	4	13.5	4	-1E+10	1	-1E+10	1	-1E+10	1	-1E+10	1	-1E+10	1	-1E+10	1
4901784	135	C	03/16/2019	10:49	-133.173	43.080	0	555.40	0	4.6520	0	35.2550	8	27.923	0	550.251	0	40.3	4	13.0	4	-1E+10	1	-1E+10	1	-1E+10	1	-1E+10	1	-1E+10	1	-1E+10	1
4901784	135	C	03/16/2019	10:49	-133.173	43.080	0	560.40	0	4.6380	0	35.2610	8	27.929	0	555.198	0	38.8	4	12.5	4	-1E+10	1	-1E+10	1	-1E+10	1	-1E+10	1	-1E+10	1	-1E+10	1
4901784	135	C	03/16/2019	10:49	-133.173	43.080	0	565.40	0	4.6150	0	35.2680	8	27.937	0	560.145	0	37.6	4	12.1	4	-1E+10	1	-1E+10	1	-1E+10	1	-1E+10	1	-1E+10	1	-1E+10	1
4901784	135	C	03/16/2019	10:49	-133.173	43.080	0	570.50	0	4.5990	0	35.2710	8	27.942	0	565.190	0	36.6	4	11.8	4	-1E+10	1	-1E+10	1	-1E+10	1	-1E+10	1	-1E+10	1	-1E+10	1
4901784	135	C	03/16/2019	10:49	-133.173	43.080	0	575.50	0	4.5790	0	35.2780	8	27.949	0	570.137	0	35.5	4	11.4	4	-1E+10	1	-1E+10	1	-1E+10	1	-1E+10	1	-1E+10	1	-1E+10	1
4901784	135	C	03/16/2019	10:49	-133.173	43.080	0	580.60	0	4.5600	0	35.2820	8	27.955	0	575.182	0	34.5	4	11.1	4	-1E+10	1	-1E+10	1	-1E+10	1	-1E+10	1	-1E+10	1	-1E+10	1
4901784	135	C	03/16/2019	10:49	-133.173	43.080	0	585.60	0	4.5170	0	35.2890	8	27.965	0	580.129	0	33.3	4	10.7	4	-1E+10	1	-1E+10	1	-1E+10	1	-1E+10	1	-1E+10	1	-1E+10	1
4901784	135	C	03/16/2019	10:49	-133.173	43.080	0	590.60	0	4.4820	0	35.2980	8	27.976	0	585.075	0	32.4	4	10.4	4	-1E+10	1	-1E+10	1	-1E+10	1	-1E+10	1	-1E+10	1	-1E+10	1
4901784	135	C	03/16/2019	10:49	-133.173	43.080	0	595.60	0	4.4580	0	35.3020	8	27.982	0	590.021	0	31.7	4	10.2	4	-1E+10	1	-1E+10	1	-1E+10	1	-1E+10	1	-1E+10	1	-1E+10	1
4901784	135	C	03/16/2019	10:49	-133.173	43.080	0	600.60	0	4.4270	0	35.3070	8	27.990	0	594.967	0	31.0	4	10.0	4	-1E+10	1	-1E+10	1	-1E+10	1	-1E+10	1	-1E+10	1	-1E+10	1
4901784	135	C	03/16/2019	10:49	-133.173	43.080	0	605.60	0	4.4070	0	35.3110	8	27.995	0	599.913	0	30.6	4	9.8	4	-1E+10	1	-1E+10	1	-1E+10	1	-1E+10	1	-1E+10	1	-1E+10	1
4901784	135	C	03/16/2019	10:49	-133.173	43.080	0	610.70	0	4.4050	0	35.3120	8	27.996	0	604.958	0	29.9	4	9.6	4	-1E+10	1	-1E+10	1	-1E+10	1	-1E+10	1	-1E+10	1	-1E+10	1
4901784	135	C	03/16/2019	10:49	-133.173	43.080	0	615.70	0	4.3780	0	35.3190	8	28.005	0	609.903	0	29.1	4	9.3	4	-1E+10	1	-1E+10	1	-1E+10	1	-1E+10	1	-1E+10	1	-1E+10	1
4901784	135	C	03/16/2019	10:49	-133.173	43.080	0	620.80	0	4.3590	0	35.3220	8	28.009	0	614.948	0	28.3	4	9.1	4	-1E+10	1	-1E+10	1	-1E+10	1	-1E+10	1	-1E+10	1	-1E+10	1
4901784	135	C	03/16/2019	10:49	-133.173	43.080	0	625.80	0	4.3410	0	35.3280	8	28.016	0	619.893	0	27.5	4	8.8	4	-1E+10	1	-1E+10	1	-1E+10	1	-1E+10	1	-1E+10	1	-1E+10	1
4901784	135	C	03/16/2019	10:49	-133.173	43.080	0	630.00	0	4.3210	0	35.3330	8	28.022	0	624.047	0	26.9	4	8.6	4	-1E+10	1	-1E+10	1	-1E+10	1	-1E+10	1	-1E+10	1	-1E+10	1
4901784	135	C	03/16/2019	10:49	-133.173	43.080	0	634.20	0	4.3110	0	35.3350	8	28.025	0	628.201	0	26.3	4	8.4	4	-1E+10	1	-1E+10	1	-1E+10	1	-1E+10	1	-1E+10	1	-1E+10	1
4901784	135	C	03/16/2019	10:49	-133.173	43.080	0	639.20	0	4.2900	0	35.3410	8	28.032	0	633.147	0	25.7	4	8.2	4	-1E+10	1	-1E+10	1	-1E+10	1	-1E+10	1	-1E+10	1	-1E+10	1
4901784	135	C	03/16/2019	10:49	-133.173	43.080	0	644.30	0	4.2690	0	35.3450	8	28.037	0	638.190	0	25.1	4	8.0	4	-1E+10	1	-1E+10	1	-1E+10	1	-1E+10	1	-1E+10	1	-1E+10	1
4901784	135	C	03/16/2019	10:49	-133.173	43.080	0	649.40	0	4.2620	0	35.3490	8	28.041	0	643.234	0	24.6	4	7.9	4	-1E+10	1	-1E+10	1	-1E+10	1	-1E+10	1	-1E+10	1	-1E+10	1
4901784	135	C	03/16/2019	10:49	-133.173	43.080	0	654.60	0	4.2400	0	35.3520	8	28.046	0	648.377	0	24.2	4	7.8	4	-1E+10	1	-1E+10	1	-1E+10	1	-1E+10	1	-1E+10	1	-1E+10	1
4901784	135	C	03/16/2019	10:49	-133.173	43.080	0	659.80	0	4.2110	0	35.3570	8	28.053	0	653.519	0	23.2	4	7.4	4	-1E+10	1	-1E+10	1	-1E+10	1	-1E+10	1	-1E+10	1	-1E+10	1
4901784	135	C	03/16/2019	10:49	-133.173	43.080	0	664.90	0	4.2000	0	35.3650	8	28.061	0	658.563	0	21.2	4	6.8	4	-1E+10	1	-1E+10	1	-1E+10	1	-1E+10	1	-1E+10	1	-1E+10	1
4901784	135	C	03/16/2019	10:49	-133.173	43.080	0	670.00	0	4.2300	0	35.3780	8	28.068	0	663.606	0	19.2	4	6.2	4	-1E+10	1	-1E+10	1	-1E+10	1	-1E+10	1	-1E+10	1	-1E+10	1
4901784	135	C	03/16/2019	10:49	-133.173	43.080	0	675.30	0	4.2210	0	35.3860	8	28.075	0	668.847	0	18.5	4	5.9	4	-1E+10	1	-1E+10	1	-1E+10	1	-1E+10	1	-1E+10	1	-1E+10	1
4901784	135	C	03/16/2019	10:49	-133.173	43.080	0	680.60	0	4.2060	0	35.3920	8	28.082	0	674.087	0	18.0	4	5.8	4	-1E+10	1	-1E+10	1	-1E+10	1	-1E+10	1	-1E+10	1	-1E+10	1
4901784	135	C	03/16/2019	10:49	-133.173	43.080	0	685.10	0	4.1990	0	35.3960	8	28.086	0	678.537	0	17.5	4	5.6	4	-1E+10	1	-1E+10	1	-1E+10	1	-1E+10	1	-1E+10	1	-1E+10	1
4901784	135	C	03/16/2019	10:49	-133.173	43.080	0	689.60	0	4.1890	0	35.4010	8	28.091	0	682.987	0	17.1	4	5.5	4	-1E+10	1	-1E+10	1	-1E+10	1	-1E+10	1	-1E+10	1	-1E+10	1
4901784	135	C	03/16/2019	10:49	-133.173	43.080	0	695.00	0	4.1730	0	35.4080	8	28.098	0	688.326	0	16.6	4	5.3	4	-1E+10	1	-1E+10	1	-1E+10	1	-1E+10	1	-1E+10	1	-1E+10	1
4901784	135	C	03/16/2019	10:49	-133.173	43.080	0	700.50	0	4.1610	0	35.4130	8	28.104	0	693.764	0	16.2	4	5.2	4	-1E+10	1	-1E+10	1	-1E+10	1	-1E+10	1	-1E+10	1	-1E+10	1
4901784	135	C	03/16/2019	10:49	-133.173	43.080	0	705.40	0	4.1510	0	35.4170	8	28.108	0	698.609	0	15.8	4	5.1	4	-1E+10	1	-1E+10	1	-1E+10	1	-1E+10	1	-1E+10	1	-1E+10	1
4901784	135	C	03/16/2019	10:49	-133.173	43.080	0	709.80	0	4.1360	0	35.4220	8	28.113	0	702.959	0	15.5	4	4.9	4	-1E+10	1	-1E+10	1	-1E+10	1	-1E+10	1	-1E+10	1	-1E+10	1
4901784	135	C	03/16/2019	10:49	-133.173	43.080	0	714.70	0	4.1170	0	35.4290	8	28.121	0	707.803	0	15.1	4	4.8	4	-1E+10	1	-1E+10	1	-1E+10	1	-1E+10	1	-1E+10	1	-1E+10	1
4901784	135	C	03/16/2019	10:49	-133.173	43.080	0	719.60	0	4.1070	0	35.4330	8	28.125	0	712.648	0	14.9	4	4.8	4	-1E+10	1	-1E+10	1	-1E+10	1	-1E+10	1	-1E+10	1	-1E+10	1
4901784	135	C	03/16/2019	10:49	-133.173	43.080	0	724.60	0	4.1000	0	35.4350	8	28.128	0	717.591	0	14.8	4	4.7	4	-1E+10	1	-1E+10	1	-1E+10	1	-1E+10	1	-1E+10	1	-1E+10	1
4901784	135	C	03/16/2019	10:49	-133.173	43.080	0	729.60	0	4.0890	0	35.4380	8	28.131	0	722.534	0	14.5	4	4.6	4	-1E+10	1	-1E+10	1	-1E+10	1	-1E+10	1	-1E+10	1	-1E+10	1
4901784	135	C	03/16/2019	10:49	-133.173	43.080	0	734.60	0	4.0810	0	35.4400	8	28.134	0	727.477	0	14.3	4	4.6	4	-1E+10	1	-1E+10	1	-1E+10	1	-1E+10	1	-1E+10	1	-1E+10	1
4901784	135	C	03/16/2019	10:49	-133.173	43.080	0	739.60	0	4.0590	0	35.4460	8	28.141	0	732.419	0	14.0	4	4.5	4	-1E+10	1	-1E+10	1	-1E+10	1	-1E+10	1	-1E+10	1	-1E+10	1
4901784	135	C	03/16/2019	10:49	-133.173	43.080	0	744.70	0	4.0440	0	35.4520	8	28.147	0	737.461	0	13.8	4	4.4	4	-1E+10	1	-1E+10	1	-1E+10	1	-1E+10	1	-1E+10	1	-1E+10	1
4901784	135	C	03/16/2019	10:49	-133.173	43.080	0	749.90	0	4.0320	0	35.4550	8	28.151	0	742.601	0	13.7	4	4.4	4	-1E+10	1	-1E+10	1	-1E+10	1	-1E+10	1	-1E+10	1	-1E+10	1
4901784	135	C	03/16/2019	10:49	-133.173	43.080	0	755.00	0	4.0210	0	35.4580	8	28.155	0	747.642	0	13.5	4	4.3	4	-1E+10	1	-1E+10	1	-1E+10	1	-1E+10	1	-1E+10	1	-1E+10	1
4901784	135	C	03/16/2019	10:49	-133.173	43.080	0	760.30	0	4.0120	0	35.4630	8	28.160	0	752.881	0	13.2	4	4.2	4	-1E+10	1	-1E+10	1	-1E+10	1	-1E+10	1	-1E+10	1	-1E+10	1
4901784	135	C	03/16/2019	10:49	-133.173	43.080	0	765.40	0	3.9990	0	35.4690	8	28.166	0	757.922	0	12.9	4	4.1	4	-1E+10	1	-1E+10	1	-1E+10	1	-1E+10	1	-1E+10	1	-1E+10	1
4901784	135	C	03/16/2019	10:49	-133.173	43.080	0	769.90	0	3.9870	0	35.4730	8	28.170	0	762.370	0	12.8	4	4.1	4	-1E+10	1	-1E+10	1	-1E+10	1	-1E+10	1	-1E+10	1	-1E+10	1
4901784	135	C	03/16/2019	10:49	-133.173	43.080	0	774.30	0	3.9750	0	35.4770	8	28.175	0	766.719	0	12.6	4	4.0	4	-1E+10	1	-1E+10	1	-1E+10	1	-1E+10	1	-1E+10	1	-1E+10	1
4901784	135	C	03/16/2019	10:49	-133.173	43.080	0	779.70	0	3.9630	0	35.4810	8	28.179	0	772.056	0	12.5	4	4.0	4	-1E+10	1	-1E+10	1	-1E+10	1	-1E+10	1	-1E+10	1	-1E+10	1
4901784	135	C	03/16/2019	10:49	-133.173	43.080	0	785.00	0	3.9560	0	35.4840	8	28.182	0	777.294	0	12.3	4	3.9	4	-1E+10	1	-1E+10	1	-1E+10	1	-1E+10	1	-1E+10	1	-1E+10	1
4901784	135	C	03/16/2019	10:49	-133.173	43.080	0	790.50	0	3.9440	0	35.4890	8	28.188	0	782.730	0	12.2	4	3.9	4	-1E+10	1	-1E+10	1	-1E+10	1	-1E+10	1	-1E+10	1	-1E+10	1
4901784	135	C	03/16/2019	10:49	-133.173	43.080	0	794.90	0	3.9370	0	35.4920	8	28.191	0	787.078	0	12.1	4	3.9	4	-1E+10	1	-1E+10	1	-1E+10	1	-1E+10	1	-1E+10	1	-1E+10	1
4901784	135	C	03/16/2019	10:49	-133.173	43.080	0	799.50	0	3.9310	0	35.4950	8	28.194	0	791.624	0	12.0	4	3.8	4	-1E+10	1	-1E+10	1	-1E+10	1	-1E+10	1	-1E+10	1	-1E+10	1
4901784	135	C	03/16/2019	10:49	-133.173	43.080	0	805.00	0	3.9230	0	35.4960	8	28.196	0	797.060	0	11.9	4	3.8	4	-1E+10	1	-1E+10	1	-1E+10	1	-1E+10	1	-1E+10	1	-1E+10	1
4901784	135	C	03/16/2019	10:49	-133.173	43.080	0	810.60	0	3.8970	0	35.5030	8	28.204	0	802.594	0	11.7	4	3.7	4	-1E+10	1	-1E+10	1	-1E+10	1	-1E+10	1	-1E+10	1	-1E+10	1
4901784	135	C	03/16/2019	10:49	-133.173	43.080	0	815.20	0	3.8820	0	35.5070	8	28.209	0	807.139	0	11.6	4	3.7	4	-1E+10	1	-1E+10	1	-1E+10	1	-1E+10	1	-1E+10	1	-1E+10	1
4901784	135	C	03/16/2019	10:49	-133.173	43.080	0	819.80	0	3.8730	0	35.5100	8	28.212	0	811.685	0	11.6	4	3.7	4	-1E+10	1	-1E+10	1	-1E+10	1	-1E+10	1	-1E+10	1	-1E+10	1
4901784	135	C	03/16/2019	10:49	-133.173	43.080	0	825.40	0	3.8580	0	35.5140	8	28.217	0	817.219	0	11.5	4	3.6	4	-1E+10	1	-1E+10	1	-1E+10	1	-1E+10	1	-1E+10	1	-1E+10	1
4901784	135	C	03/16/2019	10:49	-133.173	43.080	0	830.10	0	3.8510	0	35.5170	8	28.220	0	821.863	0	11.4	4	3.6	4	-1E+10	1	-1E+10	1	-1E+10	1	-1E+10	1	-1E+10	1	-1E+10	1
4901784	135	C	03/16/2019	10:49	-133.173	43.080	0	834.80	0	3.8420	0	35.5190	8	28.223	0	826.507	0	11.3	4	3.6	4	-1E+10	1	-1E+10	1	-1E+10	1	-1E+10	1	-1E+10	1	-1E+10	1
4901784	135	C	03/16/2019	10:49	-133.173	43.080	0	840.50	0	3.8370	0	35.5210	8	28.225	0	832.139	0	11.3	4	3.6	4	-1E+10	1	-1E+10	1	-1E+10	1	-1E+10	1	-1E+10	1	-1E+10	1
4901784	135	C	03/16/2019	10:49	-133.173	43.080	0	845.30	0	3.8250	0	35.5250	8	28.229	0	836.881	0	11.2	4	3.6	4	-1E+10	1	-1E+10	1	-1E+10	1	-1E+10	1	-1E+10	1	-1E+10	1
4901784	135	C	03/16/2019	10:49	-133.173	43.080	0	850.00	0	3.8160	0	35.5280	8	28.232	0	841.525	0	11.1	4	3.5	4	-1E+10	1	-1E+10	1	-1E+10	1	-1E+10	1	-1E+10	1	-1E+10	1
4901784	135	C	03/16/2019	10:49	-133.173	43.080	0	854.70	0	3.8050	0	35.5310	8	28.236	0	846.169	0	11.1	4	3.5	4	-1E+10	1	-1E+10	1	-1E+10	1	-1E+10	1	-1E+10	1	-1E+10	1
4901784	135	C	03/16/2019	10:49	-133.173	43.080	0	859.50	0	3.8010	0	35.5320	8	28.237	0	850.911	0	11.0	4	3.5	4	-1E+10	1	-1E+10	1	-1E+10	1	-1E+10	1	-1E+10	1	-1E+10	1
4901784	135	C	03/16/2019	10:49	-133.173	43.080	0	864.90	0	3.7910	0	35.5350	8	28.241	0	856.246	0	11.0	4	3.5	4	-1E+10	1	-1E+10	1	-1E+10	1	-1E+10	1	-1E+10	1	-1E+10	1
4901784	135	C	03/16/2019	10:49	-133.173	43.080	0	869.20	0	3.7840	0	35.5370	8	28.243	0	860.494	0	10.9	4	3.5	4	-1E+10	1	-1E+10	1	-1E+10	1	-1E+10	1	-1E+10	1	-1E+10	1
4901784	135	C	03/16/2019	10:49	-133.173	43.080	0	875.00	0	3.7730	0	35.5400	8	28.247	0	866.224	0	10.8	4	3.4	4	-1E+10	1	-1E+10	1	-1E+10	1	-1E+10	1	-1E+10	1	-1E+10	1
4901784	135	C	03/16/2019	10:49	-133.173	43.080	0	880.80	0	3.7570	0	35.5450	8	28.252	0	871.954	0	10.7	4	3.4	4	-1E+10	1	-1E+10	1	-1E+10	1	-1E+10	1	-1E+10	1	-1E+10	1
4901784	135	C	03/16/2019	10:49	-133.173	43.080	0	885.70	0	3.7480	0	35.5490	8	28.256	0	876.794	0	10.7	4	3.4	4	-1E+10	1	-1E+10	1	-1E+10	1	-1E+10	1	-1E+10	1	-1E+10	1
4901784	135	C	03/16/2019	10:49	-133.173	43.080	0	890.70	0	3.7350	0	35.5540	8	28.262	0	881.734	0	10.6	4	3.4	4	-1E+10	1	-1E+10	1	-1E+10	1	-1E+10	1	-1E+10	1	-1E+10	1
4901784	135	C	03/16/2019	10:49	-133.173	43.080	0	895.60	0	3.7220	0	35.5590	8	28.267	0	886.574	0	10.5	4	3.3	4	-1E+10	1	-1E+10	1	-1E+10	1	-1E+10	1	-1E+10	1	-1E+10	1
4901784	135	C	03/16/2019	10:49	-133.173	43.080	0	900.50	0	3.7170	0	35.5600	8	28.269	0	891.414	0	10.5	4	3.3	4	-1E+10	1	-1E+10	1	-1E+10	1	-1E+10	1	-1E+10	1	-1E+10	1
4901784	135	C	03/16/2019	10:49	-133.173	43.080	0	905.50	0	3.7020	0	35.5660	8	28.275	0	896.353	0	10.4	4	3.3	4	-1E+10	1	-1E+10	1	-1E+10	1	-1E+10	1	-1E+10	1	-1E+10	1
4901784	135	C	03/16/2019	10:49	-133.173	43.080	0	910.60	0	3.6930	0	35.5690	8	28.278	0	901.390	0	10.4	4	3.3	4	-1E+10	1	-1E+10	1	-1E+10	1	-1E+10	1	-1E+10	1	-1E+10	1
4901784	135	C	03/16/2019	10:49	-133.173	43.080	0	915.60	0	3.6830	0	35.5730	8	28.282	0	906.329	0	10.3	4	3.3	4	-1E+10	1	-1E+10	1	-1E+10	1	-1E+10	1	-1E+10	1	-1E+10	1
4901784	135	C	03/16/2019	10:49	-133.173	43.080	0	920.60	0	3.6710	0	35.5770	8	28.287	0	911.267	0	10.3	4	3.3	4	-1E+10	1	-1E+10	1	-1E+10	1	-1E+10	1	-1E+10	1	-1E+10	1
4901784	135	C	03/16/2019	10:49	-133.173	43.080	0	925.60	0	3.6640	0	35.5790	8	28.289	0	916.206	0	10.3	4	3.3	4	-1E+10	1	-1E+10	1	-1E+10	1	-1E+10	1	-1E+10	1	-1E+10	1
4901784	135	C	03/16/2019	10:49	-133.173	43.080	0	930.70	0	3.6440	0	35.5850	8	28.296	0	921.243	0	10.3	4	3.3	4	-1E+10	1	-1E+10	1	-1E+10	1	-1E+10	1	-1E+10	1	-1E+10	1
4901784	135	C	03/16/2019	10:49	-133.173	43.080	0	935.00	0	3.6380	0	35.5870	8	28.298	0	925.490	0	10.3	4	3.3	4	-1E+10	1	-1E+10	1	-1E+10	1	-1E+10	1	-1E+10	1	-1E+10	1
4901784	135	C	03/16/2019	10:49	-133.173	43.080	0	939.20	0	3.6310	0	35.5890	8	28.301	0	929.638	0	10.3	4	3.3	4	-1E+10	1	-1E+10	1	-1E+10	1	-1E+10	1	-1E+10	1	-1E+10	1
4901784	135	C	03/16/2019	10:49	-133.173	43.080	0	944.30	0	3.6240	0	35.5910	8	28.303	0	934.674	0	10.3	4	3.3	4	-1E+10	1	-1E+10	1	-1E+10	1	-1E+10	1	-1E+10	1	-1E+10	1
4901784	135	C	03/16/2019	10:49	-133.173	43.080	0	949.40	0	3.6020	0	35.5980	8	28.311	0	939.711	0	10.4	4	3.3	4	-1E+10	1	-1E+10	1	-1E+10	1	-1E+10	1	-1E+10	1	-1E+10	1
4901784	135	C	03/16/2019	10:49	-133.173	43.080	0	954.70	0	3.5920	0	35.6010	8	28.314	0	944.945	0	10.4	4	3.3	4	-1E+10	1	-1E+10	1	-1E+10	1	-1E+10	1	-1E+10	1	-1E+10	1
4901784	135	C	03/16/2019	10:49	-133.173	43.080	0	959.90	0	3.5770	0	35.6050	8	28.319	0	950.080	0	10.4	4	3.3	4	-1E+10	1	-1E+10	1	-1E+10	1	-1E+10	1	-1E+10	1	-1E+10	1
4901784	135	C	03/16/2019	10:49	-133.173	43.080	0	965.20	0	3.5630	0	35.6080	8	28.323	0	955.314	0	10.4	4	3.3	4	-1E+10	1	-1E+10	1	-1E+10	1	-1E+10	1	-1E+10	1	-1E+10	1
4901784	135	C	03/16/2019	10:49	-133.173	43.080	0	970.50	0	3.5500	0	35.6100	8	28.326	0	960.547	0	10.5	4	3.3	4	-1E+10	1	-1E+10	1	-1E+10	1	-1E+10	1	-1E+10	1	-1E+10	1
4901784	135	C	03/16/2019	10:49	-133.173	43.080	0	974.90	0	3.5350	0	35.6140	8	28.330	0	964.892	0	10.5	4	3.3	4	-1E+10	1	-1E+10	1	-1E+10	1	-1E+10	1	-1E+10	1	-1E+10	1
4901784	135	C	03/16/2019	10:49	-133.173	43.080	0	979.40	0	3.5230	0	35.6170	8	28.334	0	969.335	0	10.5	4	3.3	4	-1E+10	1	-1E+10	1	-1E+10	1	-1E+10	1	-1E+10	1	-1E+10	1
4901784	135	C	03/16/2019	10:49	-133.173	43.080	0	984.70	0	3.5130	0	35.6190	8	28.337	0	974.569	0	10.5	4	3.3	4	-1E+10	1	-1E+10	1	-1E+10	1	-1E+10	1	-1E+10	1	-1E+10	1
4901784	135	C	03/16/2019	10:49	-133.173	43.080	0	990.00	0	3.4990	0	35.6190	8	28.338	0	979.802	0	10.5	4	3.3	4	-1E+10	1	-1E+10	1	-1E+10	1	-1E+10	1	-1E+10	1	-1E+10	1
4901784	135	C	03/16/2019	10:49	-133.173	43.080	0	995.40	0	3.4890	0	35.6230	8	28.342	0	985.133	0	10.6	4	3.3	4	-1E+10	1	-1E+10	1	-1E+10	1	-1E+10	1	-1E+10	1	-1E+10	1
4901784	135	C	03/16/2019	10:49	-133.173	43.080	0	999.90	0	3.4890	0	35.6250	8	28.344	0	989.576	0	10.7	4	3.4	4	-1E+10	1	-1E+10	1	-1E+10	1	-1E+10	1	-1E+10	1	-1E+10	1
4901784	135	C	03/16/2019	10:49	-133.173	43.080	0	1004.40	0	3.4820	0	35.6270	8	28.346	0	994.019	0	10.7	4	3.4	4	-1E+10	1	-1E+10	1	-1E+10	1	-1E+10	1	-1E+10	1	-1E+10	1
4901784	135	C	03/16/2019	10:49	-133.173	43.080	0	1009.90	0	3.4720	0	35.6290	8	28.349	0	999.449	0	10.7	4	3.4	4	-1E+10	1	-1E+10	1	-1E+10	1	-1E+10	1	-1E+10	1	-1E+10	1
4901784	135	C	03/16/2019	10:49	-133.173	43.080	0	1015.40	0	3.4610	0	35.6320	8	28.352	0	1004.879	0	10.8	4	3.4	4	-1E+10	1	-1E+10	1	-1E+10	1	-1E+10	1	-1E+10	1	-1E+10	1
4901784	135	C	03/16/2019	10:49	-133.173	43.080	0	1019.90	0	3.4510	0	35.6360	8	28.357	0	1009.322	0	10.9	4	3.4	4	-1E+10	1	-1E+10	1	-1E+10	1	-1E+10	1	-1E+10	1	-1E+10	1
4901784	135	C	03/16/2019	10:49	-133.173	43.080	0	1024.50	0	3.4460	0	35.6380	8	28.359	0	1013.863	0	11.0	4	3.5	4	-1E+10	1	-1E+10	1	-1E+10	1	-1E+10	1	-1E+10	1	-1E+10	1
4901784	135	C	03/16/2019	10:49	-133.173	43.080	0	1030.10	0	3.4380	0	35.6400	8	28.361	0	1019.391	0	11.0	4	3.5	4	-1E+10	1	-1E+10	1	-1E+10	1	-1E+10	1	-1E+10	1	-1E+10	1
4901784	135	C	03/16/2019	10:49	-133.173	43.080	0	1034.90	0	3.4280	0	35.6430	8	28.365	0	1024.130	0	11.1	4	3.5	4	-1E+10	1	-1E+10	1	-1E+10	1	-1E+10	1	-1E+10	1	-1E+10	1
4901784	135	C	03/16/2019	10:49	-133.173	43.080	0	1040.40	0	3.4010	0	35.6470	8	28.371	0	1029.559	0	11.1	4	3.5	4	-1E+10	1	-1E+10	1	-1E+10	1	-1E+10	1	-1E+10	1	-1E+10	1
4901784	135	C	03/16/2019	10:49	-133.173	43.080	0	1045.20	0	3.3830	0	35.6480	8	28.373	0	1034.297	0	11.1	4	3.5	4	-1E+10	1	-1E+10	1	-1E+10	1	-1E+10	1	-1E+10	1	-1E+10	1
4901784	135	C	03/16/2019	10:49	-133.173	43.080	0	1050.00	0	3.3720	0	35.6490	8	28.375	0	1039.035	0	11.2	4	3.5	4	-1E+10	1	-1E+10	1	-1E+10	1	-1E+10	1	-1E+10	1	-1E+10	1
4901784	135	C	03/16/2019	10:49	-133.173	43.080	0	1054.90	0	3.3690	0	35.6530	8	28.379	0	1043.872	0	11.5	4	3.6	4	-1E+10	1	-1E+10	1	-1E+10	1	-1E+10	1	-1E+10	1	-1E+10	1
4901784	135	C	03/16/2019	10:49	-133.173	43.080	0	1059.70	0	3.3700	0	35.6570	8	28.382	0	1048.609	0	11.6	4	3.7	4	-1E+10	1	-1E+10	1	-1E+10	1	-1E+10	1	-1E+10	1	-1E+10	1
4901784	135	C	03/16/2019	10:49	-133.173	43.080	0	1064.50	0	3.3640	0	35.6590	8	28.384	0	1053.347	0	11.7	4	3.7	4	-1E+10	1	-1E+10	1	-1E+10	1	-1E+10	1	-1E+10	1	-1E+10	1
4901784	135	C	03/16/2019	10:49	-133.173	43.080	0	1069.40	0	3.3570	0	35.6610	8	28.386	0	1058.183	0	11.8	4	3.7	4	-1E+10	1	-1E+10	1	-1E+10	1	-1E+10	1	-1E+10	1	-1E+10	1
4901784	135	C	03/16/2019	10:49	-133.173	43.080	0	1074.30	0	3.3430	0	35.6630	8	28.389	0	1063.020	0	11.8	4	3.7	4	-1E+10	1	-1E+10	1	-1E+10	1	-1E+10	1	-1E+10	1	-1E+10	1
4901784	135	C	03/16/2019	10:49	-133.173	43.080	0	1079.30	0	3.3290	0	35.6660	8	28.393	0	1067.954	0	11.9	4	3.7	4	-1E+10	1	-1E+10	1	-1E+10	1	-1E+10	1	-1E+10	1	-1E+10	1
4901784	135	C	03/16/2019	10:49	-133.173	43.080	0	1084.30	0	3.3190	0	35.6670	8	28.395	0	1072.889	0	11.8	4	3.7	4	-1E+10	1	-1E+10	1	-1E+10	1	-1E+10	1	-1E+10	1	-1E+10	1
4901784	135	C	03/16/2019	10:49	-133.173	43.080	0	1089.30	0	3.3090	0	35.6680	8	28.397	0	1077.824	0	11.8	4	3.7	4	-1E+10	1	-1E+10	1	-1E+10	1	-1E+10	1	-1E+10	1	-1E+10	1
4901784	135	C	03/16/2019	10:49	-133.173	43.080	0	1094.30	0	3.2950	0	35.6680	8	28.398	0	1082.758	0	11.7	4	3.7	4	-1E+10	1	-1E+10	1	-1E+10	1	-1E+10	1	-1E+10	1	-1E+10	1
4901784	135	C	03/16/2019	10:49	-133.173	43.080	0	1099.50	0	3.2680	0	35.6700	8	28.402	0	1087.890	0	11.7	4	3.7	4	-1E+10	1	-1E+10	1	-1E+10	1	-1E+10	1	-1E+10	1	-1E+10	1
4901784	135	C	03/16/2019	10:49	-133.173	43.080	0	1104.60	0	3.2580	0	35.6700	8	28.403	0	1092.923	0	11.7	4	3.7	4	-1E+10	1	-1E+10	1	-1E+10	1	-1E+10	1	-1E+10	1	-1E+10	1
4901784	135	C	03/16/2019	10:49	-133.173	43.080	0	1110.70	0	3.2510	0	35.6710	8	28.405	0	1098.942	0	11.7	4	3.7	4	-1E+10	1	-1E+10	1	-1E+10	1	-1E+10	1	-1E+10	1	-1E+10	1
4901784	135	C	03/16/2019	10:49	-133.173	43.080	0	1115.40	0	3.2400	0	35.6720	8	28.407	0	1103.580	0	11.7	4	3.7	4	-1E+10	1	-1E+10	1	-1E+10	1	-1E+10	1	-1E+10	1	-1E+10	1
4901784	135	C	03/16/2019	10:49	-133.173	43.080	0	1120.10	0	3.2240	0	35.6740	8	28.410	0	1108.218	0	11.8	4	3.7	4	-1E+10	1	-1E+10	1	-1E+10	1	-1E+10	1	-1E+10	1	-1E+10	1
4901784	135	C	03/16/2019	10:49	-133.173	43.080	0	1124.90	0	3.2140	0	35.6770	8	28.413	0	1112.954	0	11.9	4	3.7	4	-1E+10	1	-1E+10	1	-1E+10	1	-1E+10	1	-1E+10	1	-1E+10	1
4901784	135	C	03/16/2019	10:49	-133.173	43.080	0	1129.70	0	3.2020	0	35.6790	8	28.416	0	1117.690	0	12.0	4	3.8	4	-1E+10	1	-1E+10	1	-1E+10	1	-1E+10	1	-1E+10	1	-1E+10	1
4901784	135	C	03/16/2019	10:49	-133.173	43.080	0	1134.60	0	3.1950	0	35.6810	8	28.418	0	1122.525	0	12.1	4	3.8	4	-1E+10	1	-1E+10	1	-1E+10	1	-1E+10	1	-1E+10	1	-1E+10	1
4901784	135	C	03/16/2019	10:49	-133.173	43.080	0	1139.50	0	3.1840	0	35.6840	8	28.422	0	1127.360	0	12.3	4	3.8	4	-1E+10	1	-1E+10	1	-1E+10	1	-1E+10	1	-1E+10	1	-1E+10	1
4901784	135	C	03/16/2019	10:49	-133.173	43.080	0	1144.40	0	3.1760	0	35.6860	8	28.424	0	1132.195	0	12.5	4	3.9	4	-1E+10	1	-1E+10	1	-1E+10	1	-1E+10	1	-1E+10	1	-1E+10	1
4901784	135	C	03/16/2019	10:49	-133.173	43.080	0	1149.40	0	3.1570	0	35.6900	8	28.429	0	1137.128	0	12.7	4	4.0	4	-1E+10	1	-1E+10	1	-1E+10	1	-1E+10	1	-1E+10	1	-1E+10	1
4901784	135	C	03/16/2019	10:49	-133.173	43.080	0	1154.40	0	3.1470	0	35.6930	8	28.433	0	1142.061	0	12.9	4	4.0	4	-1E+10	1	-1E+10	1	-1E+10	1	-1E+10	1	-1E+10	1	-1E+10	1
4901784	135	C	03/16/2019	10:49	-133.173	43.080	0	1159.40	0	3.1280	0	35.6960	8	28.437	0	1146.994	0	13.1	4	4.1	4	-1E+10	1	-1E+10	1	-1E+10	1	-1E+10	1	-1E+10	1	-1E+10	1
4901784	135	C	03/16/2019	10:49	-133.173	43.080	0	1164.40	0	3.1170	0	35.6990	8	28.440	0	1151.927	0	13.4	4	4.2	4	-1E+10	1	-1E+10	1	-1E+10	1	-1E+10	1	-1E+10	1	-1E+10	1
4901784	135	C	03/16/2019	10:49	-133.173	43.080	0	1169.40	0	3.1140	0	35.7010	8	28.442	0	1156.859	0	13.5	4	4.2	4	-1E+10	1	-1E+10	1	-1E+10	1	-1E+10	1	-1E+10	1	-1E+10	1
4901784	135	C	03/16/2019	10:49	-133.173	43.080	0	1174.50	0	3.1100	0	35.7030	8	28.444	0	1161.890	0	13.7	4	4.3	4	-1E+10	1	-1E+10	1	-1E+10	1	-1E+10	1	-1E+10	1	-1E+10	1
4901784	135	C	03/16/2019	10:49	-133.173	43.080	0	1179.70	0	3.1040	0	35.7060	8	28.447	0	1167.020	0	13.9	4	4.4	4	-1E+10	1	-1E+10	1	-1E+10	1	-1E+10	1	-1E+10	1	-1E+10	1
4901784	135	C	03/16/2019	10:49	-133.173	43.080	0	1184.90	0	3.1010	0	35.7070	8	28.448	0	1172.150	0	14.1	4	4.4	4	-1E+10	1	-1E+10	1	-1E+10	1	-1E+10	1	-1E+10	1	-1E+10	1
4901784	135	C	03/16/2019	10:49	-133.173	43.080	0	1190.10	0	3.0970	0	35.7080	8	28.450	0	1177.279	0	14.2	4	4.4	4	-1E+10	1	-1E+10	1	-1E+10	1	-1E+10	1	-1E+10	1	-1E+10	1
4901784	135	C	03/16/2019	10:49	-133.173	43.080	0	1195.40	0	3.0880	0	35.7100	8	28.452	0	1182.507	0	14.4	4	4.5	4	-1E+10	1	-1E+10	1	-1E+10	1	-1E+10	1	-1E+10	1	-1E+10	1
4901784	135	C	03/16/2019	10:49	-133.173	43.080	0	1199.80	0	3.0840	0	35.7110	8	28.453	0	1186.847	0	14.6	4	4.6	4	-1E+10	1	-1E+10	1	-1E+10	1	-1E+10	1	-1E+10	1	-1E+10	1
4901784	135	C	03/16/2019	10:49	-133.173	43.080	0	1204.30	0	3.0720	0	35.7140	8	28.457	0	1191.286	0	14.8	4	4.6	4	-1E+10	1	-1E+10	1	-1E+10	1	-1E+10	1	-1E+10	1	-1E+10	1
4901784	135	C	03/16/2019	10:49	-133.173	43.080	0	1209.70	0	3.0590	0	35.7170	8	28.460	0	1196.612	0	15.0	4	4.7	4	-1E+10	1	-1E+10	1	-1E+10	1	-1E+10	1	-1E+10	1	-1E+10	1
4901784	135	C	03/16/2019	10:49	-133.173	43.080	0	1215.20	0	3.0500	0	35.7180	8	28.462	0	1202.037	0	15.1	4	4.7	4	-1E+10	1	-1E+10	1	-1E+10	1	-1E+10	1	-1E+10	1	-1E+10	1
4901784	135	C	03/16/2019	10:49	-133.173	43.080	0	1220.60	0	3.0440	0	35.7190	8	28.464	0	1207.363	0	15.2	4	4.8	4	-1E+10	1	-1E+10	1	-1E+10	1	-1E+10	1	-1E+10	1	-1E+10	1
4901784	135	C	03/16/2019	10:49	-133.173	43.080	0	1225.80	0	3.0370	0	35.7210	8	28.466	0	1212.492	0	15.4	4	4.8	4	-1E+10	1	-1E+10	1	-1E+10	1	-1E+10	1	-1E+10	1	-1E+10	1
4901784	135	C	03/16/2019	10:49	-133.173	43.080	0	1230.00	0	3.0340	0	35.7220	8	28.467	0	1216.634	0	15.4	4	4.8	4	-1E+10	1	-1E+10	1	-1E+10	1	-1E+10	1	-1E+10	1	-1E+10	1
4901784	135	C	03/16/2019	10:49	-133.173	43.080	0	1234.30	0	3.0270	0	35.7230	8	28.468	0	1220.875	0	15.6	4	4.9	4	-1E+10	1	-1E+10	1	-1E+10	1	-1E+10	1	-1E+10	1	-1E+10	1
4901784	135	C	03/16/2019	10:49	-133.173	43.080	0	1239.40	0	3.0170	0	35.7240	8	28.470	0	1225.905	0	15.8	4	4.9	4	-1E+10	1	-1E+10	1	-1E+10	1	-1E+10	1	-1E+10	1	-1E+10	1
4901784	135	C	03/16/2019	10:49	-133.173	43.080	0	1244.50	0	3.0010	0	35.7270	8	28.474	0	1230.934	0	16.0	4	5.0	4	-1E+10	1	-1E+10	1	-1E+10	1	-1E+10	1	-1E+10	1	-1E+10	1
4901784	135	C	03/16/2019	10:49	-133.173	43.080	0	1249.70	0	2.9950	0	35.7290	8	28.476	0	1236.062	0	16.1	4	5.0	4	-1E+10	1	-1E+10	1	-1E+10	1	-1E+10	1	-1E+10	1	-1E+10	1
4901784	135	C	03/16/2019	10:49	-133.173	43.080	0	1254.90	0	2.9890	0	35.7300	8	28.478	0	1241.190	0	16.2	4	5.1	4	-1E+10	1	-1E+10	1	-1E+10	1	-1E+10	1	-1E+10	1	-1E+10	1
4901784	135	C	03/16/2019	10:49	-133.173	43.080	0	1260.10	0	2.9830	0	35.7310	8	28.479	0	1246.318	0	16.4	4	5.1	4	-1E+10	1	-1E+10	1	-1E+10	1	-1E+10	1	-1E+10	1	-1E+10	1
4901784	135	C	03/16/2019	10:49	-133.173	43.080	0	1265.40	0	2.9700	0	35.7330	8	28.482	0	1251.544	0	16.6	4	5.2	4	-1E+10	1	-1E+10	1	-1E+10	1	-1E+10	1	-1E+10	1	-1E+10	1
4901784	135	C	03/16/2019	10:49	-133.173	43.080	0	1269.90	0	2.9620	0	35.7350	8	28.484	0	1255.982	0	16.7	4	5.2	4	-1E+10	1	-1E+10	1	-1E+10	1	-1E+10	1	-1E+10	1	-1E+10	1
4901784	135	C	03/16/2019	10:49	-133.173	43.080	0	1274.40	0	2.9580	0	35.7360	8	28.486	0	1260.419	0	16.8	4	5.2	4	-1E+10	1	-1E+10	1	-1E+10	1	-1E+10	1	-1E+10	1	-1E+10	1
4901784	135	C	03/16/2019	10:49	-133.173	43.080	0	1279.70	0	2.9480	0	35.7370	8	28.487	0	1265.645	0	17.0	4	5.3	4	-1E+10	1	-1E+10	1	-1E+10	1	-1E+10	1	-1E+10	1	-1E+10	1
4901784	135	C	03/16/2019	10:49	-133.173	43.080	0	1285.00	0	2.9390	0	35.7390	8	28.490	0	1270.870	0	17.1	4	5.3	4	-1E+10	1	-1E+10	1	-1E+10	1	-1E+10	1	-1E+10	1	-1E+10	1
4901784	135	C	03/16/2019	10:49	-133.173	43.080	0	1290.20	0	2.9350	0	35.7400	8	28.491	0	1275.998	0	17.3	4	5.4	4	-1E+10	1	-1E+10	1	-1E+10	1	-1E+10	1	-1E+10	1	-1E+10	1
4901784	135	C	03/16/2019	10:49	-133.173	43.080	0	1295.50	0	2.9260	0	35.7420	8	28.493	0	1281.223	0	17.5	4	5.4	4	-1E+10	1	-1E+10	1	-1E+10	1	-1E+10	1	-1E+10	1	-1E+10	1
4901784	135	C	03/16/2019	10:49	-133.173	43.080	0	1300.00	0	2.9200	0	35.7420	8	28.494	0	1285.660	0	17.7	4	5.5	4	-1E+10	1	-1E+10	1	-1E+10	1	-1E+10	1	-1E+10	1	-1E+10	1
4901784	135	C	03/16/2019	10:49	-133.173	43.080	0	1304.50	0	2.9080	0	35.7450	8	28.498	0	1290.096	0	17.9	4	5.6	4	-1E+10	1	-1E+10	1	-1E+10	1	-1E+10	1	-1E+10	1	-1E+10	1
4901784	135	C	03/16/2019	10:49	-133.173	43.080	0	1310.00	0	2.8990	0	35.7460	8	28.499	0	1295.519	0	18.1	4	5.6	4	-1E+10	1	-1E+10	1	-1E+10	1	-1E+10	1	-1E+10	1	-1E+10	1
4901784	135	C	03/16/2019	10:49	-133.173	43.080	0	1315.50	0	2.8860	0	35.7480	8	28.502	0	1300.941	0	18.3	4	5.7	4	-1E+10	1	-1E+10	1	-1E+10	1	-1E+10	1	-1E+10	1	-1E+10	1
4901784	135	C	03/16/2019	10:49	-133.173	43.080	0	1320.10	0	2.8740	0	35.7510	8	28.506	0	1305.476	0	18.5	4	5.8	4	-1E+10	1	-1E+10	1	-1E+10	1	-1E+10	1	-1E+10	1	-1E+10	1
4901784	135	C	03/16/2019	10:49	-133.173	43.080	0	1324.60	0	2.8680	0	35.7510	8	28.506	0	1309.912	0	18.6	4	5.8	4	-1E+10	1	-1E+10	1	-1E+10	1	-1E+10	1	-1E+10	1	-1E+10	1
4901784	135	C	03/16/2019	10:49	-133.173	43.080	0	1330.10	0	2.8610	0	35.7520	8	28.508	0	1315.334	0	18.8	4	5.8	4	-1E+10	1	-1E+10	1	-1E+10	1	-1E+10	1	-1E+10	1	-1E+10	1
4901784	135	C	03/16/2019	10:49	-133.173	43.080	0	1335.50	0	2.8530	0	35.7540	8	28.510	0	1320.657	0	19.0	4	5.9	4	-1E+10	1	-1E+10	1	-1E+10	1	-1E+10	1	-1E+10	1	-1E+10	1
4901784	135	C	03/16/2019	10:49	-133.173	43.080	0	1340.10	0	2.8440	0	35.7560	8	28.512	0	1325.191	0	19.2	4	6.0	4	-1E+10	1	-1E+10	1	-1E+10	1	-1E+10	1	-1E+10	1	-1E+10	1
4901784	135	C	03/16/2019	10:49	-133.173	43.080	0	1344.70	0	2.8380	0	35.7560	8	28.513	0	1329.726	0	19.3	4	6.0	4	-1E+10	1	-1E+10	1	-1E+10	1	-1E+10	1	-1E+10	1	-1E+10	1
4901784	135	C	03/16/2019	10:49	-133.173	43.080	0	1350.30	0	2.8310	0	35.7580	8	28.515	0	1335.246	0	19.5	4	6.1	4	-1E+10	1	-1E+10	1	-1E+10	1	-1E+10	1	-1E+10	1	-1E+10	1
4901784	135	C	03/16/2019	10:49	-133.173	43.080	0	1354.90	0	2.8250	0	35.7590	8	28.517	0	1339.780	0	19.7	4	6.1	4	-1E+10	1	-1E+10	1	-1E+10	1	-1E+10	1	-1E+10	1	-1E+10	1
4901784	135	C	03/16/2019	10:49	-133.173	43.080	0	1359.40	0	2.8160	0	35.7600	8	28.518	0	1344.215	0	19.8	4	6.2	4	-1E+10	1	-1E+10	1	-1E+10	1	-1E+10	1	-1E+10	1	-1E+10	1
4901784	135	C	03/16/2019	10:49	-133.173	43.080	0	1365.10	0	2.8080	0	35.7620	8	28.521	0	1349.833	0	20.0	4	6.2	4	-1E+10	1	-1E+10	1	-1E+10	1	-1E+10	1	-1E+10	1	-1E+10	1
4901784	135	C	03/16/2019	10:49	-133.173	43.080	0	1370.60	0	2.8020	0	35.7630	8	28.522	0	1355.254	0	20.1	4	6.3	4	-1E+10	1	-1E+10	1	-1E+10	1	-1E+10	1	-1E+10	1	-1E+10	1
4901784	135	C	03/16/2019	10:49	-133.173	43.080	0	1375.20	0	2.7970	0	35.7640	8	28.523	0	1359.788	0	20.3	4	6.3	4	-1E+10	1	-1E+10	1	-1E+10	1	-1E+10	1	-1E+10	1	-1E+10	1
4901784	135	C	03/16/2019	10:49	-133.173	43.080	0	1379.90	0	2.7870	0	35.7650	8	28.525	0	1364.420	0	20.6	4	6.4	4	-1E+10	1	-1E+10	1	-1E+10	1	-1E+10	1	-1E+10	1	-1E+10	1
4901784	135	C	03/16/2019	10:49	-133.173	43.080	0	1385.10	0	2.7730	0	35.7670	8	28.528	0	1369.545	0	20.9	4	6.5	4	-1E+10	1	-1E+10	1	-1E+10	1	-1E+10	1	-1E+10	1	-1E+10	1
4901784	135	C	03/16/2019	10:49	-133.173	43.080	0	1389.40	0	2.7640	0	35.7680	8	28.530	0	1373.782	0	21.1	4	6.5	4	-1E+10	1	-1E+10	1	-1E+10	1	-1E+10	1	-1E+10	1	-1E+10	1
4901784	135	C	03/16/2019	10:49	-133.173	43.080	0	1394.30	0	2.7490	0	35.7710	8	28.533	0	1378.611	0	21.5	4	6.7	4	-1E+10	1	-1E+10	1	-1E+10	1	-1E+10	1	-1E+10	1	-1E+10	1
4901784	135	C	03/16/2019	10:49	-133.173	43.080	0	1400.00	0	2.7350	0	35.7740	8	28.537	0	1384.229	0	21.8	4	6.8	4	-1E+10	1	-1E+10	1	-1E+10	1	-1E+10	1	-1E+10	1	-1E+10	1
4901784	135	C	03/16/2019	10:49	-133.173	43.080	0	1405.80	0	2.7260	0	35.7750	8	28.539	0	1389.944	0	22.2	4	6.9	4	-1E+10	1	-1E+10	1	-1E+10	1	-1E+10	1	-1E+10	1	-1E+10	1
4901784	135	C	03/16/2019	10:49	-133.173	43.080	0	1410.70	0	2.7150	0	35.7770	8	28.541	0	1394.773	0	22.4	4	7.0	4	-1E+10	1	-1E+10	1	-1E+10	1	-1E+10	1	-1E+10	1	-1E+10	1
4901784	135	C	03/16/2019	10:49	-133.173	43.080	0	1415.60	0	2.7070	0	35.7790	8	28.544	0	1399.601	0	22.7	4	7.0	4	-1E+10	1	-1E+10	1	-1E+10	1	-1E+10	1	-1E+10	1	-1E+10	1
4901784	135	C	03/16/2019	10:49	-133.173	43.080	0	1420.50	0	2.7020	0	35.7800	8	28.545	0	1404.429	0	22.9	4	7.1	4	-1E+10	1	-1E+10	1	-1E+10	1	-1E+10	1	-1E+10	1	-1E+10	1
4901784	135	C	03/16/2019	10:49	-133.173	43.080	0	1425.60	0	2.6970	0	35.7810	8	28.546	0	1409.455	0	23.1	4	7.1	4	-1E+10	1	-1E+10	1	-1E+10	1	-1E+10	1	-1E+10	1	-1E+10	1
4901784	135	C	03/16/2019	10:49	-133.173	43.080	0	1430.60	0	2.6930	0	35.7820	8	28.548	0	1414.381	0	23.3	4	7.2	4	-1E+10	1	-1E+10	1	-1E+10	1	-1E+10	1	-1E+10	1	-1E+10	1
4901784	135	C	03/16/2019	10:49	-133.173	43.080	0	1435.70	0	2.6850	0	35.7830	8	28.549	0	1419.406	0	23.6	4	7.3	4	-1E+10	1	-1E+10	1	-1E+10	1	-1E+10	1	-1E+10	1	-1E+10	1
4901784	135	C	03/16/2019	10:49	-133.173	43.080	0	1440.80	0	2.6720	0	35.7850	8	28.552	0	1424.431	0	23.9	4	7.4	4	-1E+10	1	-1E+10	1	-1E+10	1	-1E+10	1	-1E+10	1	-1E+10	1
4901784	135	C	03/16/2019	10:49	-133.173	43.080	0	1445.00	0	2.6640	0	35.7860	8	28.553	0	1428.569	0	24.1	4	7.4	4	-1E+10	1	-1E+10	1	-1E+10	1	-1E+10	1	-1E+10	1	-1E+10	1
4901784	135	C	03/16/2019	10:49	-133.173	43.080	0	1449.30	0	2.6540	0	35.7870	8	28.555	0	1432.806	0	24.3	4	7.5	4	-1E+10	1	-1E+10	1	-1E+10	1	-1E+10	1	-1E+10	1	-1E+10	1
4901784	135	C	03/16/2019	10:49	-133.173	43.080	0	1454.40	0	2.6450	0	35.7890	8	28.558	0	1437.831	0	24.5	4	7.6	4	-1E+10	1	-1E+10	1	-1E+10	1	-1E+10	1	-1E+10	1	-1E+10	1
4901784	135	C	03/16/2019	10:49	-133.173	43.080	0	1459.40	0	2.6330	0	35.7900	8	28.559	0	1442.756	0	24.8	4	7.7	4	-1E+10	1	-1E+10	1	-1E+10	1	-1E+10	1	-1E+10	1	-1E+10	1
4901784	135	C	03/16/2019	10:49	-133.173	43.080	0	1464.50	0	2.6140	0	35.7920	8	28.563	0	1447.781	0	25.1	4	7.8	4	-1E+10	1	-1E+10	1	-1E+10	1	-1E+10	1	-1E+10	1	-1E+10	1
4901784	135	C	03/16/2019	10:49	-133.173	43.080	0	1469.60	0	2.5970	0	35.7950	8	28.567	0	1452.805	0	25.3	4	7.8	4	-1E+10	1	-1E+10	1	-1E+10	1	-1E+10	1	-1E+10	1	-1E+10	1
4901784	135	C	03/16/2019	10:49	-133.173	43.080	0	1474.70	0	2.5870	0	35.7950	8	28.568	0	1457.829	0	25.5	4	7.9	4	-1E+10	1	-1E+10	1	-1E+10	1	-1E+10	1	-1E+10	1	-1E+10	1
4901784	135	C	03/16/2019	10:49	-133.173	43.080	0	1479.80	0	2.5740	0	35.7970	8	28.570	0	1462.853	0	25.8	4	8.0	4	-1E+10	1	-1E+10	1	-1E+10	1	-1E+10	1	-1E+10	1	-1E+10	1
4901784	135	C	03/16/2019	10:49	-133.173	43.080	0	1484.80	0	2.5620	0	35.8000	8	28.574	0	1467.779	0	26.1	4	8.0	4	-1E+10	1	-1E+10	1	-1E+10	1	-1E+10	1	-1E+10	1	-1E+10	1
4901784	135	C	03/16/2019	10:49	-133.173	43.080	0	1489.90	0	2.5530	0	35.8010	8	28.576	0	1472.802	0	26.4	4	8.1	4	-1E+10	1	-1E+10	1	-1E+10	1	-1E+10	1	-1E+10	1	-1E+10	1
4901784	135	C	03/16/2019	10:49	-133.173	43.080	0	1495.00	0	2.5420	0	35.8030	8	28.578	0	1477.826	0	26.8	4	8.3	4	-1E+10	1	-1E+10	1	-1E+10	1	-1E+10	1	-1E+10	1	-1E+10	1
4901784	135	C	03/16/2019	10:49	-133.173	43.080	0	1500.10	0	2.5280	0	35.8050	8	28.581	0	1482.850	0	27.0	4	8.3	4	-1E+10	1	-1E+10	1	-1E+10	1	-1E+10	1	-1E+10	1	-1E+10	1
4901784	135	C	03/16/2019	10:49	-133.173	43.080	0	1505.30	0	2.5240	0	35.8060	8	28.582	0	1487.971	0	27.2	4	8.4	4	-1E+10	1	-1E+10	1	-1E+10	1	-1E+10	1	-1E+10	1	-1E+10	1
4901784	135	C	03/16/2019	10:49	-133.173	43.080	0	1510.40	0	2.5160	0	35.8070	8	28.584	0	1492.995	0	27.5	4	8.5	4	-1E+10	1	-1E+10	1	-1E+10	1	-1E+10	1	-1E+10	1	-1E+10	1
4901784	135	C	03/16/2019	10:49	-133.173	43.080	0	1515.70	0	2.5090	0	35.8080	8	28.585	0	1498.215	0	27.9	4	8.6	4	-1E+10	1	-1E+10	1	-1E+10	1	-1E+10	1	-1E+10	1	-1E+10	1
4901784	135	C	03/16/2019	10:49	-133.173	43.080	0	1520.10	0	2.4960	0	35.8100	8	28.588	0	1502.548	0	28.2	4	8.7	4	-1E+10	1	-1E+10	1	-1E+10	1	-1E+10	1	-1E+10	1	-1E+10	1
4901784	135	C	03/16/2019	10:49	-133.173	43.080	0	1524.50	0	2.4850	0	35.8120	8	28.590	0	1506.882	0	28.5	4	8.8	4	-1E+10	1	-1E+10	1	-1E+10	1	-1E+10	1	-1E+10	1	-1E+10	1
4901784	135	C	03/16/2019	10:49	-133.173	43.080	0	1529.80	0	2.4800	0	35.8130	8	28.592	0	1512.102	0	28.7	4	8.8	4	-1E+10	1	-1E+10	1	-1E+10	1	-1E+10	1	-1E+10	1	-1E+10	1
4901784	135	C	03/16/2019	10:49	-133.173	43.080	0	1535.10	0	2.4730	0	35.8150	8	28.594	0	1517.321	0	28.9	4	8.9	4	-1E+10	1	-1E+10	1	-1E+10	1	-1E+10	1	-1E+10	1	-1E+10	1
4901784	135	C	03/16/2019	10:49	-133.173	43.080	0	1540.30	0	2.4720	0	35.8150	8	28.594	0	1522.443	0	29.1	4	9.0	4	-1E+10	1	-1E+10	1	-1E+10	1	-1E+10	1	-1E+10	1	-1E+10	1
4901784	135	C	03/16/2019	10:49	-133.173	43.080	0	1545.60	0	2.4650	0	35.8160	8	28.596	0	1527.662	0	29.5	4	9.1	4	-1E+10	1	-1E+10	1	-1E+10	1	-1E+10	1	-1E+10	1	-1E+10	1
4901784	135	C	03/16/2019	10:49	-133.173	43.080	0	1550.10	0	2.4540	0	35.8180	8	28.598	0	1532.093	0	29.9	4	9.2	4	-1E+10	1	-1E+10	1	-1E+10	1	-1E+10	1	-1E+10	1	-1E+10	1
4901784	135	C	03/16/2019	10:49	-133.173	43.080	0	1554.60	0	2.4440	0	35.8190	8	28.600	0	1536.525	0	30.3	4	9.3	4	-1E+10	1	-1E+10	1	-1E+10	1	-1E+10	1	-1E+10	1	-1E+10	1
4901784	135	C	03/16/2019	10:49	-133.173	43.080	0	1559.90	0	2.4340	0	35.8210	8	28.602	0	1541.744	0	30.6	4	9.4	4	-1E+10	1	-1E+10	1	-1E+10	1	-1E+10	1	-1E+10	1	-1E+10	1
4901784	135	C	03/16/2019	10:49	-133.173	43.080	0	1565.30	0	2.4280	0	35.8220	8	28.604	0	1547.061	0	30.9	4	9.5	4	-1E+10	1	-1E+10	1	-1E+10	1	-1E+10	1	-1E+10	1	-1E+10	1
4901784	135	C	03/16/2019	10:49	-133.173	43.080	0	1570.30	0	2.4190	0	35.8230	8	28.605	0	1551.985	0	31.3	4	9.6	4	-1E+10	1	-1E+10	1	-1E+10	1	-1E+10	1	-1E+10	1	-1E+10	1
4901784	135	C	03/16/2019	10:49	-133.173	43.080	0	1574.50	0	2.4070	0	35.8260	8	28.609	0	1556.120	0	31.7	4	9.7	4	-1E+10	1	-1E+10	1	-1E+10	1	-1E+10	1	-1E+10	1	-1E+10	1
4901784	135	C	03/16/2019	10:49	-133.173	43.080	0	1580.00	0	2.3980	0	35.8280	8	28.611	0	1561.536	0	32.0	4	9.8	4	-1E+10	1	-1E+10	1	-1E+10	1	-1E+10	1	-1E+10	1	-1E+10	1
4901784	135	C	03/16/2019	10:49	-133.173	43.080	0	1585.60	0	2.3910	0	35.8290	8	28.613	0	1567.050	0	32.4	4	10.0	4	-1E+10	1	-1E+10	1	-1E+10	1	-1E+10	1	-1E+10	1	-1E+10	1
4901784	135	C	03/16/2019	10:49	-133.173	43.080	0	1590.40	0	2.3820	0	35.8300	8	28.614	0	1571.776	0	32.7	4	10.1	4	-1E+10	1	-1E+10	1	-1E+10	1	-1E+10	1	-1E+10	1	-1E+10	1
4901784	135	C	03/16/2019	10:49	-133.173	43.080	0	1595.30	0	2.3750	0	35.8320	8	28.616	0	1576.600	0	32.9	4	10.1	4	-1E+10	1	-1E+10	1	-1E+10	1	-1E+10	1	-1E+10	1	-1E+10	1
4901784	135	C	03/16/2019	10:49	-133.173	43.080	0	1600.10	0	2.3700	0	35.8330	8	28.618	0	1581.326	0	33.2	4	10.2	4	-1E+10	1	-1E+10	1	-1E+10	1	-1E+10	1	-1E+10	1	-1E+10	1
4901784	135	C	03/16/2019	10:49	-133.173	43.080	0	1605.00	0	2.3630	0	35.8340	8	28.619	0	1586.150	0	33.5	4	10.3	4	-1E+10	1	-1E+10	1	-1E+10	1	-1E+10	1	-1E+10	1	-1E+10	1
4901784	135	C	03/16/2019	10:49	-133.173	43.080	0	1610.00	0	2.3560	0	35.8350	8	28.621	0	1591.073	0	33.8	4	10.4	4	-1E+10	1	-1E+10	1	-1E+10	1	-1E+10	1	-1E+10	1	-1E+10	1
4901784	135	C	03/16/2019	10:49	-133.173	43.080	0	1615.00	0	2.3550	0	35.8360	8	28.621	0	1595.995	0	33.9	4	10.4	4	-1E+10	1	-1E+10	1	-1E+10	1	-1E+10	1	-1E+10	1	-1E+10	1
4901784	135	C	03/16/2019	10:49	-133.173	43.080	0	1620.00	0	2.3500	0	35.8360	8	28.622	0	1600.917	0	34.3	4	10.5	4	-1E+10	1	-1E+10	1	-1E+10	1	-1E+10	1	-1E+10	1	-1E+10	1
4901784	135	C	03/16/2019	10:49	-133.173	43.080	0	1625.10	0	2.3410	0	35.8390	8	28.625	0	1605.938	0	34.6	4	10.6	4	-1E+10	1	-1E+10	1	-1E+10	1	-1E+10	1	-1E+10	1	-1E+10	1
4901784	135	C	03/16/2019	10:49	-133.173	43.080	0	1630.10	0	2.3360	0	35.8390	8	28.626	0	1610.860	0	34.9	4	10.7	4	-1E+10	1	-1E+10	1	-1E+10	1	-1E+10	1	-1E+10	1	-1E+10	1
4901784	135	C	03/16/2019	10:49	-133.173	43.080	0	1635.20	0	2.3260	0	35.8410	8	28.628	0	1615.880	0	35.2	4	10.8	4	-1E+10	1	-1E+10	1	-1E+10	1	-1E+10	1	-1E+10	1	-1E+10	1
4901784	135	C	03/16/2019	10:49	-133.173	43.080	0	1640.30	0	2.3190	0	35.8430	8	28.630	0	1620.901	0	35.6	4	10.9	4	-1E+10	1	-1E+10	1	-1E+10	1	-1E+10	1	-1E+10	1	-1E+10	1
4901784	135	C	03/16/2019	10:49	-133.173	43.080	0	1645.40	0	2.3130	0	35.8440	8	28.632	0	1625.921	0	35.8	4	11.0	4	-1E+10	1	-1E+10	1	-1E+10	1	-1E+10	1	-1E+10	1	-1E+10	1
4901784	135	C	03/16/2019	10:49	-133.173	43.080	0	1650.60	0	2.3080	0	35.8450	8	28.633	0	1631.039	0	36.2	4	11.1	4	-1E+10	1	-1E+10	1	-1E+10	1	-1E+10	1	-1E+10	1	-1E+10	1
4901784	135	C	03/16/2019	10:49	-133.173	43.080	0	1655.70	0	2.3020	0	35.8460	8	28.634	0	1636.059	0	36.5	4	11.2	4	-1E+10	1	-1E+10	1	-1E+10	1	-1E+10	1	-1E+10	1	-1E+10	1
4901784	135	C	03/16/2019	10:49	-133.173	43.080	0	1660.10	0	2.2980	0	35.8470	8	28.635	0	1640.390	0	36.7	4	11.3	4	-1E+10	1	-1E+10	1	-1E+10	1	-1E+10	1	-1E+10	1	-1E+10	1
4901784	135	C	03/16/2019	10:49	-133.173	43.080	0	1664.40	0	2.2920	0	35.8470	8	28.636	0	1644.622	0	36.8	4	11.3	4	-1E+10	1	-1E+10	1	-1E+10	1	-1E+10	1	-1E+10	1	-1E+10	1
4901784	135	C	03/16/2019	10:49	-133.173	43.080	0	1669.70	0	2.2850	0	35.8490	8	28.638	0	1649.838	0	37.1	4	11.4	4	-1E+10	1	-1E+10	1	-1E+10	1	-1E+10	1	-1E+10	1	-1E+10	1
4901784	135	C	03/16/2019	10:49	-133.173	43.080	0	1674.90	0	2.2780	0	35.8500	8	28.640	0	1654.956	0	37.3	4	11.4	4	-1E+10	1	-1E+10	1	-1E+10	1	-1E+10	1	-1E+10	1	-1E+10	1
4901784	135	C	03/16/2019	10:49	-133.173	43.080	0	1680.20	0	2.2680	0	35.8510	8	28.641	0	1660.172	0	37.6	4	11.5	4	-1E+10	1	-1E+10	1	-1E+10	1	-1E+10	1	-1E+10	1	-1E+10	1
4901784	135	C	03/16/2019	10:49	-133.173	43.080	0	1685.40	0	2.2620	0	35.8520	8	28.643	0	1665.290	0	37.9	4	11.6	4	-1E+10	1	-1E+10	1	-1E+10	1	-1E+10	1	-1E+10	1	-1E+10	1
4901784	135	C	03/16/2019	10:49	-133.173	43.080	0	1690.70	0	2.2580	0	35.8530	8	28.644	0	1670.506	0	38.2	4	11.7	4	-1E+10	1	-1E+10	1	-1E+10	1	-1E+10	1	-1E+10	1	-1E+10	1
4901784	135	C	03/16/2019	10:49	-133.173	43.080	0	1695.20	0	2.2540	0	35.8540	8	28.645	0	1674.934	0	38.4	4	11.8	4	-1E+10	1	-1E+10	1	-1E+10	1	-1E+10	1	-1E+10	1	-1E+10	1
4901784	135	C	03/16/2019	10:49	-133.173	43.080	0	1699.70	0	2.2490	0	35.8550	8	28.646	0	1679.363	0	38.8	4	11.9	4	-1E+10	1	-1E+10	1	-1E+10	1	-1E+10	1	-1E+10	1	-1E+10	1
4901784	135	C	03/16/2019	10:49	-133.173	43.080	0	1705.00	0	2.2390	0	35.8560	8	28.648	0	1684.578	0	39.3	4	12.0	4	-1E+10	1	-1E+10	1	-1E+10	1	-1E+10	1	-1E+10	1	-1E+10	1
4901784	135	C	03/16/2019	10:49	-133.173	43.080	0	1710.40	0	2.2290	0	35.8580	8	28.650	0	1689.892	0	39.7	4	12.2	4	-1E+10	1	-1E+10	1	-1E+10	1	-1E+10	1	-1E+10	1	-1E+10	1
4901784	135	C	03/16/2019	10:49	-133.173	43.080	0	1714.90	0	2.2200	0	35.8600	8	28.653	0	1694.320	0	39.9	4	12.2	4	-1E+10	1	-1E+10	1	-1E+10	1	-1E+10	1	-1E+10	1	-1E+10	1
4901784	135	C	03/16/2019	10:49	-133.173	43.080	0	1719.40	0	2.2160	0	35.8610	8	28.654	0	1698.748	0	40.2	4	12.3	4	-1E+10	1	-1E+10	1	-1E+10	1	-1E+10	1	-1E+10	1	-1E+10	1
4901784	135	C	03/16/2019	10:49	-133.173	43.080	0	1724.80	0	2.2110	0	35.8620	8	28.655	0	1704.062	0	40.4	4	12.4	4	-1E+10	1	-1E+10	1	-1E+10	1	-1E+10	1	-1E+10	1	-1E+10	1
4901784	135	C	03/16/2019	10:49	-133.173	43.080	0	1730.20	0	2.2040	0	35.8630	8	28.657	0	1709.375	0	40.6	4	12.4	4	-1E+10	1	-1E+10	1	-1E+10	1	-1E+10	1	-1E+10	1	-1E+10	1
4901784	135	C	03/16/2019	10:49	-133.173	43.080	0	1735.60	0	2.2030	0	35.8640	8	28.657	0	1714.688	0	40.8	4	12.5	4	-1E+10	1	-1E+10	1	-1E+10	1	-1E+10	1	-1E+10	1	-1E+10	1
4901784	135	C	03/16/2019	10:49	-133.173	43.080	0	1740.20	0	2.1990	0	35.8640	8	28.658	0	1719.214	0	41.0	4	12.6	4	-1E+10	1	-1E+10	1	-1E+10	1	-1E+10	1	-1E+10	1	-1E+10	1
4901784	135	C	03/16/2019	10:49	-133.173	43.080	0	1744.80	0	2.1950	0	35.8650	8	28.659	0	1723.740	0	41.2	4	12.6	4	-1E+10	1	-1E+10	1	-1E+10	1	-1E+10	1	-1E+10	1	-1E+10	1
4901784	135	C	03/16/2019	10:49	-133.173	43.080	0	1750.30	0	2.1910	0	35.8660	8	28.660	0	1729.151	0	41.5	4	12.7	4	-1E+10	1	-1E+10	1	-1E+10	1	-1E+10	1	-1E+10	1	-1E+10	1
4901784	135	C	03/16/2019	10:49	-133.173	43.080	0	1754.80	0	2.1880	0	35.8670	8	28.661	0	1733.579	0	41.8	4	12.8	4	-1E+10	1	-1E+10	1	-1E+10	1	-1E+10	1	-1E+10	1	-1E+10	1
4901784	135	C	03/16/2019	10:49	-133.173	43.080	0	1759.20	0	2.1800	0	35.8690	8	28.664	0	1737.907	0	42.1	4	12.9	4	-1E+10	1	-1E+10	1	-1E+10	1	-1E+10	1	-1E+10	1	-1E+10	1
4901784	135	C	03/16/2019	10:49	-133.173	43.080	0	1764.60	0	2.1720	0	35.8690	8	28.664	0	1743.220	0	42.7	4	13.0	4	-1E+10	1	-1E+10	1	-1E+10	1	-1E+10	1	-1E+10	1	-1E+10	1
4901784	135	C	03/16/2019	10:49	-133.173	43.080	0	1769.40	0	2.1640	0	35.8710	8	28.667	0	1747.942	0	43.2	4	13.2	4	-1E+10	1	-1E+10	1	-1E+10	1	-1E+10	1	-1E+10	1	-1E+10	1
4901784	135	C	03/16/2019	10:49	-133.173	43.080	0	1774.40	0	2.1530	0	35.8730	8	28.669	0	1752.861	0	43.8	4	13.4	4	-1E+10	1	-1E+10	1	-1E+10	1	-1E+10	1	-1E+10	1	-1E+10	1
4901784	135	C	03/16/2019	10:49	-133.173	43.080	0	1779.30	0	2.1460	0	35.8740	8	28.670	0	1757.681	0	44.1	4	13.5	4	-1E+10	1	-1E+10	1	-1E+10	1	-1E+10	1	-1E+10	1	-1E+10	1
4901784	135	C	03/16/2019	10:49	-133.173	43.080	0	1784.30	0	2.1410	0	35.8750	8	28.672	0	1762.599	0	44.5	4	13.6	4	-1E+10	1	-1E+10	1	-1E+10	1	-1E+10	1	-1E+10	1	-1E+10	1
4901784	135	C	03/16/2019	10:49	-133.173	43.080	0	1789.30	0	2.1320	0	35.8770	8	28.674	0	1767.518	0	45.0	4	13.7	4	-1E+10	1	-1E+10	1	-1E+10	1	-1E+10	1	-1E+10	1	-1E+10	1
4901784	135	C	03/16/2019	10:49	-133.173	43.080	0	1794.20	0	2.1250	0	35.8780	8	28.675	0	1772.338	0	45.3	4	13.9	4	-1E+10	1	-1E+10	1	-1E+10	1	-1E+10	1	-1E+10	1	-1E+10	1
4901784	135	C	03/16/2019	10:49	-133.173	43.080	0	1799.30	0	2.1200	0	35.8800	8	28.678	0	1777.354	0	45.6	4	13.9	4	-1E+10	1	-1E+10	1	-1E+10	1	-1E+10	1	-1E+10	1	-1E+10	1
4901784	135	C	03/16/2019	10:49	-133.173	43.080	0	1804.30	0	2.1170	0	35.8800	8	28.678	0	1782.272	0	45.9	4	14.0	4	-1E+10	1	-1E+10	1	-1E+10	1	-1E+10	1	-1E+10	1	-1E+10	1
4901784	135	C	03/16/2019	10:49	-133.173	43.080	0	1809.40	0	2.1150	0	35.8810	8	28.679	0	1787.289	0	46.1	4	14.1	4	-1E+10	1	-1E+10	1	-1E+10	1	-1E+10	1	-1E+10	1	-1E+10	1
4901784	135	C	03/16/2019	10:49	-133.173	43.080	0	1814.50	0	2.1090	0	35.8820	8	28.680	0	1792.305	0	46.5	4	14.2	4	-1E+10	1	-1E+10	1	-1E+10	1	-1E+10	1	-1E+10	1	-1E+10	1
4901784	135	C	03/16/2019	10:49	-133.173	43.080	0	1819.70	0	2.1040	0	35.8830	8	28.681	0	1797.419	0	46.9	4	14.3	4	-1E+10	1	-1E+10	1	-1E+10	1	-1E+10	1	-1E+10	1	-1E+10	1
4901784	135	C	03/16/2019	10:49	-133.173	43.080	0	1824.90	0	2.0980	0	35.8840	8	28.683	0	1802.533	0	47.4	4	14.5	4	-1E+10	1	-1E+10	1	-1E+10	1	-1E+10	1	-1E+10	1	-1E+10	1
4901784	135	C	03/16/2019	10:49	-133.173	43.080	0	1830.10	0	2.0910	0	35.8850	8	28.684	0	1807.648	0	48.1	4	14.7	4	-1E+10	1	-1E+10	1	-1E+10	1	-1E+10	1	-1E+10	1	-1E+10	1
4901784	135	C	03/16/2019	10:49	-133.173	43.080	0	1835.30	0	2.0810	0	35.8870	8	28.687	0	1812.762	0	48.7	4	14.9	4	-1E+10	1	-1E+10	1	-1E+10	1	-1E+10	1	-1E+10	1	-1E+10	1
4901784	135	C	03/16/2019	10:49	-133.173	43.080	0	1840.50	0	2.0770	0	35.8880	8	28.688	0	1817.876	0	49.1	4	15.0	4	-1E+10	1	-1E+10	1	-1E+10	1	-1E+10	1	-1E+10	1	-1E+10	1
4901784	135	C	03/16/2019	10:49	-133.173	43.080	0	1845.70	0	2.0690	0	35.8900	8	28.690	0	1822.989	0	49.5	4	15.1	4	-1E+10	1	-1E+10	1	-1E+10	1	-1E+10	1	-1E+10	1	-1E+10	1
4901784	135	C	03/16/2019	10:49	-133.173	43.080	0	1850.20	0	2.0670	0	35.8900	8	28.690	0	1827.415	0	49.6	4	15.1	4	-1E+10	1	-1E+10	1	-1E+10	1	-1E+10	1	-1E+10	1	-1E+10	1
4901784	135	C	03/16/2019	10:49	-133.173	43.080	0	1854.60	0	2.0640	0	35.8910	8	28.691	0	1831.741	0	49.9	4	15.2	4	-1E+10	1	-1E+10	1	-1E+10	1	-1E+10	1	-1E+10	1	-1E+10	1
4901784	135	C	03/16/2019	10:49	-133.173	43.080	0	1859.90	0	2.0590	0	35.8920	8	28.693	0	1836.953	0	50.2	4	15.3	4	-1E+10	1	-1E+10	1	-1E+10	1	-1E+10	1	-1E+10	1	-1E+10	1
4901784	135	C	03/16/2019	10:49	-133.173	43.080	0	1865.40	0	2.0560	0	35.8930	8	28.694	0	1842.362	0	50.5	4	15.4	4	-1E+10	1	-1E+10	1	-1E+10	1	-1E+10	1	-1E+10	1	-1E+10	1
4901784	135	C	03/16/2019	10:49	-133.173	43.080	0	1869.90	0	2.0530	0	35.8940	8	28.695	0	1846.787	0	50.6	4	15.4	4	-1E+10	1	-1E+10	1	-1E+10	1	-1E+10	1	-1E+10	1	-1E+10	1
4901784	135	C	03/16/2019	10:49	-133.173	43.080	0	1874.40	0	2.0520	0	35.8940	8	28.695	0	1851.211	0	50.9	4	15.5	4	-1E+10	1	-1E+10	1	-1E+10	1	-1E+10	1	-1E+10	1	-1E+10	1
4901784	135	C	03/16/2019	10:49	-133.173	43.080	0	1880.50	0	2.0430	0	35.8960	8	28.697	0	1857.209	0	51.5	4	15.7	4	-1E+10	1	-1E+10	1	-1E+10	1	-1E+10	1	-1E+10	1	-1E+10	1
4901784	135	C	03/16/2019	10:49	-133.173	43.080	0	1885.50	0	2.0360	0	35.8970	8	28.699	0	1862.125	0	51.9	4	15.8	4	-1E+10	1	-1E+10	1	-1E+10	1	-1E+10	1	-1E+10	1	-1E+10	1
4901784	135	C	03/16/2019	10:49	-133.173	43.080	0	1890.30	0	2.0300	0	35.8990	8	28.701	0	1866.845	0	52.2	4	15.9	4	-1E+10	1	-1E+10	1	-1E+10	1	-1E+10	1	-1E+10	1	-1E+10	1
4901784	135	C	03/16/2019	10:49	-133.173	43.080	0	1895.10	0	2.0270	0	35.8990	8	28.701	0	1871.564	0	52.5	4	16.0	4	-1E+10	1	-1E+10	1	-1E+10	1	-1E+10	1	-1E+10	1	-1E+10	1
4901784	135	C	03/16/2019	10:49	-133.173	43.080	0	1900.00	0	2.0250	0	35.9000	8	28.702	0	1876.382	0	52.7	4	16.1	4	-1E+10	1	-1E+10	1	-1E+10	1	-1E+10	1	-1E+10	1	-1E+10	1
4901784	135	C	03/16/2019	10:49	-133.173	43.080	0	1904.80	0	2.0210	0	35.9010	8	28.703	0	1881.101	0	53.1	4	16.2	4	-1E+10	1	-1E+10	1	-1E+10	1	-1E+10	1	-1E+10	1	-1E+10	1
4901784	135	C	03/16/2019	10:49	-133.173	43.080	0	1909.70	0	2.0160	0	35.9010	8	28.704	0	1885.918	0	53.5	4	16.3	4	-1E+10	1	-1E+10	1	-1E+10	1	-1E+10	1	-1E+10	1	-1E+10	1
4901784	135	C	03/16/2019	10:49	-133.173	43.080	0	1914.70	0	2.0110	0	35.9030	8	28.706	0	1890.834	0	53.8	4	16.4	4	-1E+10	1	-1E+10	1	-1E+10	1	-1E+10	1	-1E+10	1	-1E+10	1
4901784	135	C	03/16/2019	10:49	-133.173	43.080	0	1919.60	0	2.0060	0	35.9040	8	28.707	0	1895.651	0	54.2	4	16.5	4	-1E+10	1	-1E+10	1	-1E+10	1	-1E+10	1	-1E+10	1	-1E+10	1
4901784	135	C	03/16/2019	10:49	-133.173	43.080	0	1924.60	0	2.0010	0	35.9050	8	28.708	0	1900.566	0	54.5	4	16.6	4	-1E+10	1	-1E+10	1	-1E+10	1	-1E+10	1	-1E+10	1	-1E+10	1
4901784	135	C	03/16/2019	10:49	-133.173	43.080	0	1929.70	0	1.9980	0	35.9060	8	28.709	0	1905.580	0	54.8	4	16.7	4	-1E+10	1	-1E+10	1	-1E+10	1	-1E+10	1	-1E+10	1	-1E+10	1
4901784	135	C	03/16/2019	10:49	-133.173	43.080	0	1934.80	0	1.9930	0	35.9070	8	28.710	0	1910.593	0	55.1	4	16.8	4	-1E+10	1	-1E+10	1	-1E+10	1	-1E+10	1	-1E+10	1	-1E+10	1
4901784	135	C	03/16/2019	10:49	-133.173	43.080	0	1940.00	0	1.9910	0	35.9080	8	28.711	0	1915.705	0	55.3	4	16.8	4	-1E+10	1	-1E+10	1	-1E+10	1	-1E+10	1	-1E+10	1	-1E+10	1
4901784	135	C	03/16/2019	10:49	-133.173	43.080	0	1945.10	0	1.9890	0	35.9080	8	28.712	0	1920.718	0	55.5	4	16.9	4	-1E+10	1	-1E+10	1	-1E+10	1	-1E+10	1	-1E+10	1	-1E+10	1
4901784	135	C	03/16/2019	10:49	-133.173	43.080	0	1950.30	0	1.9860	0	35.9090	8	28.713	0	1925.829	0	55.8	4	17.0	4	-1E+10	1	-1E+10	1	-1E+10	1	-1E+10	1	-1E+10	1	-1E+10	1
4901784	135	C	03/16/2019	10:49	-133.173	43.080	0	1955.50	0	1.9840	0	35.9100	8	28.714	0	1930.940	0	56.1	4	17.1	4	-1E+10	1	-1E+10	1	-1E+10	1	-1E+10	1	-1E+10	1	-1E+10	1
4901784	135	C	03/16/2019	10:49	-133.173	43.080	0	1960.70	0	1.9770	0	35.9110	8	28.715	0	1936.051	0	56.5	4	17.2	4	-1E+10	1	-1E+10	1	-1E+10	1	-1E+10	1	-1E+10	1	-1E+10	1
4901784	135	C	03/16/2019	10:49	-133.173	43.080	0	1965.10	0	1.9750	0	35.9110	8	28.715	0	1940.376	0	56.6	4	17.2	4	-1E+10	1	-1E+10	1	-1E+10	1	-1E+10	1	-1E+10	1	-1E+10	1
4901784	135	C	03/16/2019	10:49	-133.173	43.080	0	1969.50	0	1.9750	0	35.9120	8	28.716	0	1944.701	0	56.8	4	17.3	4	-1E+10	1	-1E+10	1	-1E+10	1	-1E+10	1	-1E+10	1	-1E+10	1
4901784	135	C	03/16/2019	10:49	-133.173	43.080	0	1974.60	0	1.9710	0	35.9120	8	28.716	0	1949.713	0	57.1	4	17.4	4	-1E+10	1	-1E+10	1	-1E+10	1	-1E+10	1	-1E+10	1	-1E+10	1
4901784	135	C	03/16/2019	10:49	-133.173	43.080	0	1979.70	0	1.9680	0	35.9130	8	28.718	0	1954.725	0	57.3	4	17.4	4	-1E+10	1	-1E+10	1	-1E+10	1	-1E+10	1	-1E+10	1	-1E+10	1
4901784	135	C	03/16/2019	10:49	-133.173	43.080	0	1984.40	0	1.9640	0	35.9140	8	28.719	0	1959.345	0	57.7	4	17.6	4	-1E+10	1	-1E+10	1	-1E+10	1	-1E+10	1	-1E+10	1	-1E+10	1
4901784	135	C	03/16/2019	10:49	-133.173	43.080	0	1989.90	0	1.9600	0	35.9150	8	28.720	0	1964.750	0	57.9	4	17.6	4	-1E+10	1	-1E+10	1	-1E+10	1	-1E+10	1	-1E+10	1	-1E+10	1
4901784	135	C	03/16/2019	10:49	-133.173	43.080	0	1994.70	0	1.9590	0	35.9150	8	28.720	0	1969.467	0	58.1	4	17.7	4	-1E+10	1	-1E+10	1	-1E+10	1	-1E+10	1	-1E+10	1	-1E+10	1
4901784	135	C	03/16/2019	10:49	-133.173	43.080	0	2000.30	0	1.9540	0	35.9160	8	28.721	0	1974.970	0	58.4	4	17.8	4	-1E+10	1	-1E+10	1	-1E+10	1	-1E+10	1	-1E+10	1	-1E+10	1
4901784	135	C	03/16/2019	10:49	-133.173	43.080	0	2004.70	0	1.9480	0	35.9180	8	28.723	0	1979.294	0	56.7	4	17.2	4	-1E+10	1	-1E+10	1	-1E+10	1	-1E+10	1	-1E+10	1	-1E+10	1
4901784	135	C	03/16/2019	10:49	-133.173	43.080	0																										
4901784	136	C	03/26/2019	10:48	-133.079	42.928	0	2.70	0	10.8980	0	33.7600	8	25.829	0	2.679	0	264.8	4	97.4	4	-1E+10	1	-1E+10	1	-1E+10	1	-1E+10	1	-1E+10	1	-1E+10	1
4901784	136	C	03/26/2019	10:48	-133.079	42.928	0	4.20	0	10.9080	0	33.7590	8	25.826	0	4.167	0	264.7	4	97.4	4	-1E+10	1	-1E+10	1	-1E+10	1	-1E+10	1	-1E+10	1	-1E+10	1
4901784	136	C	03/26/2019	10:48	-133.079	42.928	0	5.70	0	10.9070	0	33.7590	8	25.826	0	5.655	0	264.8	4	97.5	4	-1E+10	1	-1E+10	1	-1E+10	1	-1E+10	1	-1E+10	1	-1E+10	1
4901784	136	C	03/26/2019	10:48	-133.079	42.928	0	7.50	0	10.9090	0	33.7590	8	25.826	0	7.440	0	264.9	4	97.5	4	-1E+10	1	-1E+10	1	-1E+10	1	-1E+10	1	-1E+10	1	-1E+10	1
4901784	136	C	03/26/2019	10:48	-133.079	42.928	0	9.30	0	10.9080	0	33.7590	8	25.826	0	9.226	0	264.9	4	97.5	4	-1E+10	1	-1E+10	1	-1E+10	1	-1E+10	1	-1E+10	1	-1E+10	1
4901784	136	C	03/26/2019	10:48	-133.079	42.928	0	11.20	0	10.8950	0	33.7570	8	25.827	0	11.111	0	265.2	4	97.6	4	-1E+10	1	-1E+10	1	-1E+10	1	-1E+10	1	-1E+10	1	-1E+10	1
4901784	136	C	03/26/2019	10:48	-133.079	42.928	0	13.10	0	10.8660	0	33.7600	8	25.835	0	12.996	0	265.6	4	97.6	4	-1E+10	1	-1E+10	1	-1E+10	1	-1E+10	1	-1E+10	1	-1E+10	1
4901784	136	C	03/26/2019	10:48	-133.079	42.928	0	15.40	0	10.8290	0	33.7630	8	25.843	0	15.277	0	265.7	4	97.6	4	-1E+10	1	-1E+10	1	-1E+10	1	-1E+10	1	-1E+10	1	-1E+10	1
4901784	136	C	03/26/2019	10:48	-133.079	42.928	0	15.90	0	10.8040	0	33.7660	8	25.850	0	15.773	0	265.9	4	97.7	4	-1E+10	1	-1E+10	1	-1E+10	1	-1E+10	1	-1E+10	1	-1E+10	1
4901784	136	C	03/26/2019	10:48	-133.079	42.928	0	17.50	0	10.7730	0	33.7680	8	25.857	0	17.361	0	266.3	4	97.7	4	-1E+10	1	-1E+10	1	-1E+10	1	-1E+10	1	-1E+10	1	-1E+10	1
4901784	136	C	03/26/2019	10:48	-133.079	42.928	0	19.20	0	10.7570	0	33.7690	8	25.861	0	19.047	0	266.2	4	97.6	4	-1E+10	1	-1E+10	1	-1E+10	1	-1E+10	1	-1E+10	1	-1E+10	1
4901784	136	C	03/26/2019	10:48	-133.079	42.928	0	20.90	0	10.7520	0	33.7700	8	25.863	0	20.733	0	266.1	4	97.6	4	-1E+10	1	-1E+10	1	-1E+10	1	-1E+10	1	-1E+10	1	-1E+10	1
4901784	136	C	03/26/2019	10:48	-133.079	42.928	0	22.50	0	10.7430	0	33.7700	8	25.864	0	22.320	0	266.1	4	97.6	4	-1E+10	1	-1E+10	1	-1E+10	1	-1E+10	1	-1E+10	1	-1E+10	1
4901784	136	C	03/26/2019	10:48	-133.079	42.928	0	24.20	0	10.7370	0	33.7700	8	25.865	0	24.007	0	265.8	4	97.5	4	-1E+10	1	-1E+10	1	-1E+10	1	-1E+10	1	-1E+10	1	-1E+10	1
4901784	136	C	03/26/2019	10:48	-133.079	42.928	0	25.90	0	10.7360	0	33.7710	8	25.866	0	25.693	0	265.8	4	97.5	4	-1E+10	1	-1E+10	1	-1E+10	1	-1E+10	1	-1E+10	1	-1E+10	1
4901784	136	C	03/26/2019	10:48	-133.079	42.928	0	27.50	0	10.7350	0	33.7710	8	25.867	0	27.280	0	265.6	4	97.4	4	-1E+10	1	-1E+10	1	-1E+10	1	-1E+10	1	-1E+10	1	-1E+10	1
4901784	136	C	03/26/2019	10:48	-133.079	42.928	0	29.20	0	10.7340	0	33.7720	8	25.868	0	28.966	0	265.5	4	97.3	4	-1E+10	1	-1E+10	1	-1E+10	1	-1E+10	1	-1E+10	1	-1E+10	1
4901784	136	C	03/26/2019	10:48	-133.079	42.928	0	30.80	0	10.7340	0	33.7730	8	25.868	0	30.554	0	265.3	4	97.3	4	-1E+10	1	-1E+10	1	-1E+10	1	-1E+10	1	-1E+10	1	-1E+10	1
4901784	136	C	03/26/2019	10:48	-133.079	42.928	0	32.50	0	10.7320	0	33.7730	8	25.869	0	32.240	0	265.1	4	97.2	4	-1E+10	1	-1E+10	1	-1E+10	1	-1E+10	1	-1E+10	1	-1E+10	1
4901784	136	C	03/26/2019	10:48	-133.079	42.928	0	34.20	0	10.7320	0	33.7730	8	25.869	0	33.926	0	265.0	4	97.2	4	-1E+10	1	-1E+10	1	-1E+10	1	-1E+10	1	-1E+10	1	-1E+10	1
4901784	136	C	03/26/2019	10:48	-133.079	42.928	0	35.80	0	10.7300	0	33.7740	8	25.870	0	35.513	0	265.1	4	97.2	4	-1E+10	1	-1E+10	1	-1E+10	1	-1E+10	1	-1E+10	1	-1E+10	1
4901784	136	C	03/26/2019	10:48	-133.079	42.928	0	37.50	0	10.7290	0	33.7750	8	25.871	0	37.199	0	264.8	4	97.1	4	-1E+10	1	-1E+10	1	-1E+10	1	-1E+10	1	-1E+10	1	-1E+10	1
4901784	136	C	03/26/2019	10:48	-133.079	42.928	0	39.20	0	10.7290	0	33.7750	8	25.871	0	38.886	0	264.5	4	97.0	4	-1E+10	1	-1E+10	1	-1E+10	1	-1E+10	1	-1E+10	1	-1E+10	1
4901784	136	C	03/26/2019	10:48	-133.079	42.928	0	40.90	0	10.7300	0	33.7760	8	25.872	0	40.572	0	264.7	4	97.1	4	-1E+10	1	-1E+10	1	-1E+10	1	-1E+10	1	-1E+10	1	-1E+10	1
4901784	136	C	03/26/2019	10:48	-133.079	42.928	0	42.60	0	10.7280	0	33.7760	8	25.872	0	42.258	0	264.7	4	97.0	4	-1E+10	1	-1E+10	1	-1E+10	1	-1E+10	1	-1E+10	1	-1E+10	1
4901784	136	C	03/26/2019	10:48	-133.079	42.928	0	44.20	0	10.7230	0	33.7770	8	25.874	0	43.845	0	264.3	4	96.9	4	-1E+10	1	-1E+10	1	-1E+10	1	-1E+10	1	-1E+10	1	-1E+10	1
4901784	136	C	03/26/2019	10:48	-133.079	42.928	0	46.00	0	10.7210	0	33.7780	8	25.875	0	45.630	0	264.0	4	96.8	4	-1E+10	1	-1E+10	1	-1E+10	1	-1E+10	1	-1E+10	1	-1E+10	1
4901784	136	C	03/26/2019	10:48	-133.079	42.928	0	47.60	0	10.7200	0	33.7780	8	25.875	0	47.217	0	264.0	4	96.8	4	-1E+10	1	-1E+10	1	-1E+10	1	-1E+10	1	-1E+10	1	-1E+10	1
4901784	136	C	03/26/2019	10:48	-133.079	42.928	0	49.30	0	10.7200	0	33.7780	8	25.875	0	48.903	0	263.8	4	96.7	4	-1E+10	1	-1E+10	1	-1E+10	1	-1E+10	1	-1E+10	1	-1E+10	1
4901784	136	C	03/26/2019	10:48	-133.079	42.928	0	50.90	0	10.7170	0	33.7790	8	25.876	0	50.490	0	263.7	4	96.7	4	-1E+10	1	-1E+10	1	-1E+10	1	-1E+10	1	-1E+10	1	-1E+10	1
4901784	136	C	03/26/2019	10:48	-133.079	42.928	0	52.70	0	10.7140	0	33.7790	8	25.877	0	52.276	0	263.5	4	96.6	4	-1E+10	1	-1E+10	1	-1E+10	1	-1E+10	1	-1E+10	1	-1E+10	1
4901784	136	C	03/26/2019	10:48	-133.079	42.928	0	54.30	0	10.7090	0	33.7790	8	25.878	0	53.862	0	263.2	4	96.5	4	-1E+10	1	-1E+10	1	-1E+10	1	-1E+10	1	-1E+10	1	-1E+10	1
4901784	136	C	03/26/2019	10:48	-133.079	42.928	0	56.00	0	10.6860	0	33.7790	8	25.882	0	55.548	0	262.9	4	96.3	4	-1E+10	1	-1E+10	1	-1E+10	1	-1E+10	1	-1E+10	1	-1E+10	1
4901784	136	C	03/26/2019	10:48	-133.079	42.928	0	57.60	0	10.6790	0	33.7810	8	25.885	0	57.135	0	262.5	4	96.2	4	-1E+10	1	-1E+10	1	-1E+10	1	-1E+10	1	-1E+10	1	-1E+10	1
4901784	136	C	03/26/2019	10:48	-133.079	42.928	0	59.40	0	10.6750	0	33.7840	8	25.888	0	58.921	0	261.9	4	95.9	4	-1E+10	1	-1E+10	1	-1E+10	1	-1E+10	1	-1E+10	1	-1E+10	1
4901784	136	C	03/26/2019	10:48	-133.079	42.928	0	61.00	0	10.6630	0	33.7860	8	25.892	0	60.507	0	261.6	4	95.8	4	-1E+10	1	-1E+10	1	-1E+10	1	-1E+10	1	-1E+10	1	-1E+10	1
4901784	136	C	03/26/2019	10:48	-133.079	42.928	0	62.70	0	10.6380	0	33.7900	8	25.899	0	62.193	0	261.1	4	95.5	4	-1E+10	1	-1E+10	1	-1E+10	1	-1E+10	1	-1E+10	1	-1E+10	1
4901784	136	C	03/26/2019	10:48	-133.079	42.928	0	64.40	0	10.6190	0	33.7920	8	25.904	0	63.879	0	260.7	4	95.4	4	-1E+10	1	-1E+10	1	-1E+10	1	-1E+10	1	-1E+10	1	-1E+10	1
4901784	136	C	03/26/2019	10:48	-133.079	42.928	0	66.20	0	10.5840	0	33.7950	8	25.913	0	65.665	0	260.6	4	95.3	4	-1E+10	1	-1E+10	1	-1E+10	1	-1E+10	1	-1E+10	1	-1E+10	1
4901784	136	C	03/26/2019	10:48	-133.079	42.928	0	67.90	0	10.5750	0	33.7940	8	25.913	0	67.351	0	260.5	4	95.2	4	-1E+10	1	-1E+10	1	-1E+10	1	-1E+10	1	-1E+10	1	-1E+10	1
4901784	136	C	03/26/2019	10:48	-133.079	42.928	0	69.70	0	10.5540	0	33.7950	8	25.918	0	69.136	0	260.5	4	95.2	4	-1E+10	1	-1E+10	1	-1E+10	1	-1E+10	1	-1E+10	1	-1E+10	1
4901784	136	C	03/26/2019	10:48	-133.079	42.928	0	71.40	0	10.5380	0	33.7960	8	25.921	0	70.822	0	260.5	4	95.1	4	-1E+10	1	-1E+10	1	-1E+10	1	-1E+10	1	-1E+10	1	-1E+10	1
4901784	136	C	03/26/2019	10:48	-133.079	42.928	0	73.20	0	10.5210	0	33.7960	8	25.924	0	72.607	0	260.6	4	95.1	4	-1E+10	1	-1E+10	1	-1E+10	1	-1E+10	1	-1E+10	1	-1E+10	1
4901784	136	C	03/26/2019	10:48	-133.079	42.928	0	74.90	0	10.5050	0	33.7980	8	25.929	0	74.293	0	260.9	4	95.2	4	-1E+10	1	-1E+10	1	-1E+10	1	-1E+10	1	-1E+10	1	-1E+10	1
4901784	136	C	03/26/2019	10:48	-133.079	42.928	0	76.70	0	10.4950	0	33.7980	8	25.931	0	76.078	0	261.0	4	95.2	4	-1E+10	1	-1E+10	1	-1E+10	1	-1E+10	1	-1E+10	1	-1E+10	1
4901784	136	C	03/26/2019	10:48	-133.079	42.928	0	78.30	0	10.4920	0	33.7980	8	25.931	0	77.665	0	261.1	4	95.3	4	-1E+10	1	-1E+10	1	-1E+10	1	-1E+10	1	-1E+10	1	-1E+10	1
4901784	136	C	03/26/2019	10:48	-133.079	42.928	0	80.00	0	10.4790	0	33.7980	8	25.933	0	79.350	0	261.1	4	95.2	4	-1E+10	1	-1E+10	1	-1E+10	1	-1E+10	1	-1E+10	1	-1E+10	1
4901784	136	C	03/26/2019	10:48	-133.079	42.928	0	81.80	0	10.4420	0	33.7960	8	25.938	0	81.135	0	261.4	4	95.3	4	-1E+10	1	-1E+10	1	-1E+10	1	-1E+10	1	-1E+10	1	-1E+10	1
4901784	136	C	03/26/2019	10:48	-133.079	42.928	0	83.50	0	10.3810	0	33.7930	8	25.947	0	82.821	0	262.0	4	95.4	4	-1E+10	1	-1E+10	1	-1E+10	1	-1E+10	1	-1E+10	1	-1E+10	1
4901784	136	C	03/26/2019	10:48	-133.079	42.928	0	85.20	0	10.3720	0	33.7900	8	25.946	0	84.507	0	262.4	4	95.5	4	-1E+10	1	-1E+10	1	-1E+10	1	-1E+10	1	-1E+10	1	-1E+10	1
4901784	136	C	03/26/2019	10:48	-133.079	42.928	0	87.00	0	10.3700	0	33.7870	8	25.944	0	86.292	0	262.6	4	95.6	4	-1E+10	1	-1E+10	1	-1E+10	1	-1E+10	1	-1E+10	1	-1E+10	1
4901784	136	C	03/26/2019	10:48	-133.079	42.928	0	88.70	0	10.2610	0	33.7770	8	25.955	0	87.978	0	263.3	4	95.6	4	-1E+10	1	-1E+10	1	-1E+10	1	-1E+10	1	-1E+10	1	-1E+10	1
4901784	136	C	03/26/2019	10:48	-133.079	42.928	0	90.50	0	10.2250	0	33.7740	8	25.959	0	89.763	0	263.4	4	95.5	4	-1E+10	1	-1E+10	1	-1E+10	1	-1E+10	1	-1E+10	1	-1E+10	1
4901784	136	C	03/26/2019	10:48	-133.079	42.928	0	92.30	0	10.2270	0	33.7720	8	25.957	0	91.548	0	263.1	4	95.4	4	-1E+10	1	-1E+10	1	-1E+10	1	-1E+10	1	-1E+10	1	-1E+10	1
4901784	136	C	03/26/2019	10:48	-133.079	42.928	0	94.10	0	10.1690	0	33.7690	8	25.964	0	93.333	0	262.8	4	95.2	4	-1E+10	1	-1E+10	1	-1E+10	1	-1E+10	1	-1E+10	1	-1E+10	1
4901784	136	C	03/26/2019	10:48	-133.079	42.928	0	95.80	0	10.1450	0	33.7670	8	25.967	0	95.018	0	262.2	4	94.9	4	-1E+10	1	-1E+10	1	-1E+10	1	-1E+10	1	-1E+10	1	-1E+10	1
4901784	136	C	03/26/2019	10:48	-133.079	42.928	0	97.50	0	10.1360	0	33.7660	8	25.968	0	96.704	0	261.4	4	94.6	4	-1E+10	1	-1E+10	1	-1E+10	1	-1E+10	1	-1E+10	1	-1E+10	1
4901784	136	C	03/26/2019	10:48	-133.079	42.928	0	99.20	0	10.0950	0	33.7680	8	25.976	0	98.390	0	260.0	4	94.0	4	-1E+10	1	-1E+10	1	-1E+10	1	-1E+10	1	-1E+10	1	-1E+10	1
4901784	136	C	03/26/2019	10:48	-133.079	42.928	0	102.80	0	10.0810	0	33.7790	8	25.987	0	101.960	0	256.8	4	92.9	4	-1E+10	1	-1E+10	1	-1E+10	1	-1E+10	1	-1E+10	1	-1E+10	1
4901784	136	C	03/26/2019	10:48	-133.079	42.928	0	104.60	0	10.1350	0	33.8000	8	25.995	0	103.744	0	254.8	4	92.2	4	-1E+10	1	-1E+10	1	-1E+10	1	-1E+10	1	-1E+10	1	-1E+10	1
4901784	136	C	03/26/2019	10:48	-133.079	42.928	0	107.40	0	9.9660	0	33.8080	8	26.029	0	106.521	0	253.7	4	91.5	4	-1E+10	1	-1E+10	1	-1E+10	1	-1E+10	1	-1E+10	1	-1E+10	1
4901784	136	C	03/26/2019	10:48	-133.079	42.928	0	109.70	0	9.8080	0	33.8050	8	26.054	0	108.801	0	253.5	4	91.1	4	-1E+10	1	-1E+10	1	-1E+10	1	-1E+10	1	-1E+10	1	-1E+10	1
4901784	136	C	03/26/2019	10:48	-133.079	42.928	0	112.60	0	9.5750	0	33.8060	8	26.093	0	111.677	0	251.8	4	90.1	4	-1E+10	1	-1E+10	1	-1E+10	1	-1E+10	1	-1E+10	1	-1E+10	1
4901784	136	C	03/26/2019	10:48	-133.079	42.928	0	115.40	0	9.4160	0	33.8210	8	26.131	0	114.453	0	248.8	4	88.7	4	-1E+10	1	-1E+10	1	-1E+10	1	-1E+10	1	-1E+10	1	-1E+10	1
4901784	136	C	03/26/2019	10:48	-133.079	42.928	0	117.70	0	9.3260	0	33.8270	8	26.150	0	116.734	0	246.0	4	87.5	4	-1E+10	1	-1E+10	1	-1E+10	1	-1E+10	1	-1E+10	1	-1E+10	1
4901784	136	C	03/26/2019	10:48	-133.079	42.928	0	119.90	0	9.1510	0	33.8480	8	26.194	0	118.915	0	242.7	4	86.1	4	-1E+10	1	-1E+10	1	-1E+10	1	-1E+10	1	-1E+10	1	-1E+10	1
4901784	136	C	03/26/2019	10:48	-133.079	42.928	0	122.20	0	8.7940	0	33.9160	8	26.304	0	121.195	0	239.7	4	84.4	4	-1E+10	1	-1E+10	1	-1E+10	1	-1E+10	1	-1E+10	1	-1E+10	1
4901784	136	C	03/26/2019	10:48	-133.079	42.928	0	124.60	0	8.4720	0	33.9760	8	26.401	0	123.575	0	238.8	4	83.5	4	-1E+10	1	-1E+10	1	-1E+10	1	-1E+10	1	-1E+10	1	-1E+10	1
4901784	136	C	03/26/2019	10:48	-133.079	42.928	0	127.20	0	8.2950	0	34.0360	8	26.475	0	126.153	0	237.2	4	82.6	4	-1E+10	1	-1E+10	1	-1E+10	1	-1E+10	1	-1E+10	1	-1E+10	1
4901784	136	C	03/26/2019	10:48	-133.079	42.928	0	129.80	0	8.2270	0	34.1040	8	26.538	0	128.730	0	235.7	4	82.0	4	-1E+10	1	-1E+10	1	-1E+10	1	-1E+10	1	-1E+10	1	-1E+10	1
4901784	136	C	03/26/2019	10:48	-133.079	42.928	0	132.40	0	8.2480	0	34.1230	8	26.550	0	131.308	0	233.7	4	81.4	4	-1E+10	1	-1E+10	1	-1E+10	1	-1E+10	1	-1E+10	1	-1E+10	1
4901784	136	C	03/26/2019	10:48	-133.079	42.928	0	135.00	0	8.2280	0	34.1710	8	26.591	0	133.886	0	231.3	4	80.6	4	-1E+10	1	-1E+10	1	-1E+10	1	-1E+10	1	-1E+10	1	-1E+10	1
4901784	136	C	03/26/2019	10:48	-133.079	42.928	0	138.30	0	8.1550	0	34.2380	8	26.655	0	137.158	0	228.5	4	79.5	4	-1E+10	1	-1E+10	1	-1E+10	1	-1E+10	1	-1E+10	1	-1E+10	1
4901784	136	C	03/26/2019	10:48	-133.079	42.928	0	140.00	0	8.1140	0	34.2650	8	26.682	0	138.843	0	226.6	4	78.8	4	-1E+10	1	-1E+10	1	-1E+10	1	-1E+10	1	-1E+10	1	-1E+10	1
4901784	136	C	03/26/2019	10:48	-133.079	42.928	0	142.20	0	8.0260	0	34.3500	8	26.762	0	141.024	0	223.4	4	77.5	4	-1E+10	1	-1E+10	1	-1E+10	1	-1E+10	1	-1E+10	1	-1E+10	1
4901784	136	C	03/26/2019	10:48	-133.079	42.928	0	145.20	0	8.0250	0	34.4180	8	26.815	0	143.998	0	217.8	4	75.6	4	-1E+10	1	-1E+10	1	-1E+10	1	-1E+10	1	-1E+10	1	-1E+10	1
4901784	136	C	03/26/2019	10:48	-133.079	42.928	0	147.60	0	8.0620	0	34.5010	8	26.875	0	146.378	0	212.3	4	73.8	4	-1E+10	1	-1E+10	1	-1E+10	1	-1E+10	1	-1E+10	1	-1E+10	1
4901784	136	C	03/26/2019	10:48	-133.079	42.928	0	149.90	0	8.0760	0	34.5710	8	26.928	0	148.658	0	207.1	4	72.1	4	-1E+10	1	-1E+10	1	-1E+10	1	-1E+10	1	-1E+10	1	-1E+10	1
4901784	136	C	03/26/2019	10:48	-133.079	42.928	0	152.40	0	8.0850	0	34.6230	8	26.968	0	151.136	0	201.4	4	70.1	4	-1E+10	1	-1E+10	1	-1E+10	1	-1E+10	1	-1E+10	1	-1E+10	1
4901784	136	C	03/26/2019	10:48	-133.079	42.928	0	155.00	0	8.1350	0	34.6880	8	27.011	0	153.713	0	194.3	4	67.8	4	-1E+10	1	-1E+10	1	-1E+10	1	-1E+10	1	-1E+10	1	-1E+10	1
4901784	136	C	03/26/2019	10:48	-133.079	42.928	0	157.50	0	8.1670	0	34.7640	8	27.066	0	156.192	0	188.0	4	65.6	4	-1E+10	1	-1E+10	1	-1E+10	1	-1E+10	1	-1E+10	1	-1E+10	1
4901784	136	C	03/26/2019	10:48	-133.079	42.928	0	160.00	0	8.2490	0	34.8610	8	27.130	0	158.670	0	181.9	4	63.7	4	-1E+10	1	-1E+10	1	-1E+10	1	-1E+10	1	-1E+10	1	-1E+10	1
4901784	136	C	03/26/2019	10:48	-133.079	42.928	0	162.70	0	8.2780	0	34.9250	8	27.176	0	161.347	0	178.3	4	62.5	4	-1E+10	1	-1E+10	1	-1E+10	1	-1E+10	1	-1E+10	1	-1E+10	1
4901784	136	C	03/26/2019	10:48	-133.079	42.928	0	165.40	0	8.2950	0	34.9790	8	27.216	0	164.023	0	175.3	4	61.5	4	-1E+10	1	-1E+10	1	-1E+10	1	-1E+10	1	-1E+10	1	-1E+10	1
4901784	136	C	03/26/2019	10:48	-133.079	42.928	0	168.00	0	8.3060	0	35.0240	8	27.249	0	166.600	0	173.4	4	60.9	4	-1E+10	1	-1E+10	1	-1E+10	1	-1E+10	1	-1E+10	1	-1E+10	1
4901784	136	C	03/26/2019	10:48	-133.079	42.928	0	169.80	0	8.3070	0	35.0270	8	27.251	0	168.385	0	172.4	4	60.5	4	-1E+10	1	-1E+10	1	-1E+10	1	-1E+10	1	-1E+10	1	-1E+10	1
4901784	136	C	03/26/2019	10:48	-133.079	42.928	0	172.60	0	8.3090	0	35.0400	8	27.261	0	171.160	0	170.7	4	59.9	4	-1E+10	1	-1E+10	1	-1E+10	1	-1E+10	1	-1E+10	1	-1E+10	1
4901784	136	C	03/26/2019	10:48	-133.079	42.928	0	175.50	0	8.3110	0	35.0840	8	27.296	0	174.035	0	168.9	4	59.3	4	-1E+10	1	-1E+10	1	-1E+10	1	-1E+10	1	-1E+10	1	-1E+10	1
4901784	136	C	03/26/2019	10:48	-133.079	42.928	0	177.40	0	8.3090	0	35.1110	8	27.317	0	175.918	0	168.3	4	59.1	4	-1E+10	1	-1E+10	1	-1E+10	1	-1E+10	1	-1E+10	1	-1E+10	1
4901784	136	C	03/26/2019	10:48	-133.079	42.928	0	179.80	0	8.3090	0	35.1400	8	27.340	0	178.297	0	168.9	4	59.3	4	-1E+10	1	-1E+10	1	-1E+10	1	-1E+10	1	-1E+10	1	-1E+10	1
4901784	136	C	03/26/2019	10:48	-133.079	42.928	0	182.50	0	8.3100	0	35.1590	8	27.355	0	180.973	0	167.8	4	59.0	4	-1E+10	1	-1E+10	1	-1E+10	1	-1E+10	1	-1E+10	1	-1E+10	1
4901784	136	C	03/26/2019	10:48	-133.079	42.928	0	184.90	0	8.3030	0	35.1640	8	27.360	0	183.352	0	166.2	4	58.4	4	-1E+10	1	-1E+10	1	-1E+10	1	-1E+10	1	-1E+10	1	-1E+10	1
4901784	136	C	03/26/2019	10:48	-133.079	42.928	0	187.40	0	8.3000	0	35.1660	8	27.362	0	185.830	0	164.6	4	57.8	4	-1E+10	1	-1E+10	1	-1E+10	1	-1E+10	1	-1E+10	1	-1E+10	1
4901784	136	C	03/26/2019	10:48	-133.079	42.928	0	189.80	0	8.2930	0	35.1680	8	27.365	0	188.209	0	163.8	4	57.5	4	-1E+10	1	-1E+10	1	-1E+10	1	-1E+10	1	-1E+10	1	-1E+10	1
4901784	136	C	03/26/2019	10:48	-133.079	42.928	0	192.30	0	8.2850	0	35.1780	8	27.374	0	190.687	0	164.0	4	57.6	4	-1E+10	1	-1E+10	1	-1E+10	1	-1E+10	1	-1E+10	1	-1E+10	1
4901784	136	C	03/26/2019	10:48	-133.079	42.928	0	194.90	0	8.2740	0	35.1880	8	27.383	0	193.264	0	165.8	4	58.2	4	-1E+10	1	-1E+10	1	-1E+10	1	-1E+10	1	-1E+10	1	-1E+10	1
4901784	136	C	03/26/2019	10:48	-133.079	42.928	0	197.40	0	8.2710	0	35.2160	8	27.406	0	195.741	0	168.4	4	59.1	4	-1E+10	1	-1E+10	1	-1E+10	1	-1E+10	1	-1E+10	1	-1E+10	1
4901784	136	C	03/26/2019	10:48	-133.079	42.928	0	199.90	0	8.2820	0	35.2410	8	27.424	0	198.219	0	173.2	4	60.8	4	-1E+10	1	-1E+10	1	-1E+10	1	-1E+10	1	-1E+10	1	-1E+10	1
4901784	136	C	03/26/2019	10:48	-133.079	42.928	0	202.50	0	8.3360	0	35.2610	8	27.431	0	200.796	0	173.2	4	60.9	4	-1E+10	1	-1E+10	1	-1E+10	1	-1E+10	1	-1E+10	1	-1E+10	1
4901784	136	C	03/26/2019	10:48	-133.079	42.928	0	205.10	0	8.3090	0	35.2630	8	27.437	0	203.373	0	171.3	4	60.2	4	-1E+10	1	-1E+10	1	-1E+10	1	-1E+10	1	-1E+10	1	-1E+10	1
4901784	136	C	03/26/2019	10:48	-133.079	42.928	0	207.70	0	8.2890	0	35.2670	8	27.443	0	205.950	0	171.6	4	60.3	4	-1E+10	1	-1E+10	1	-1E+10	1	-1E+10	1	-1E+10	1	-1E+10	1
4901784	136	C	03/26/2019	10:48	-133.079	42.928	0	210.30	0	8.2910	0	35.2690	8	27.445	0	208.527	0	171.9	4	60.4	4	-1E+10	1	-1E+10	1	-1E+10	1	-1E+10	1	-1E+10	1	-1E+10	1
4901784	136	C	03/26/2019	10:48	-133.079	42.928	0	212.10	0	8.2840	0	35.2750	8	27.450	0	210.310	0	172.4	4	60.6	4	-1E+10	1	-1E+10	1	-1E+10	1	-1E+10	1	-1E+10	1	-1E+10	1
4901784	136	C	03/26/2019	10:48	-133.079	42.928	0	214.70	0	8.2820	0	35.2870	8	27.460	0	212.887	0	172.1	4	60.5	4	-1E+10	1	-1E+10	1	-1E+10	1	-1E+10	1	-1E+10	1	-1E+10	1
4901784	136	C	03/26/2019	10:48	-133.079	42.928	0	217.20	0	8.2800	0	35.2890	8	27.462	0	215.365	0	170.8	4	60.0	4	-1E+10	1	-1E+10	1	-1E+10	1	-1E+10	1	-1E+10	1	-1E+10	1
4901784	136	C	03/26/2019	10:48	-133.079	42.928	0	219.80	0	8.2620	0	35.2910	8	27.466	0	217.941	0	168.8	4	59.3	4	-1E+10	1	-1E+10	1	-1E+10	1	-1E+10	1	-1E+10	1	-1E+10	1
4901784	136	C	03/26/2019	10:48	-133.079	42.928	0	222.40	0	8.2470	0	35.2900	8	27.468	0	220.518	0	165.8	4	58.2	4	-1E+10	1	-1E+10	1	-1E+10	1	-1E+10	1	-1E+10	1	-1E+10	1
4901784	136	C	03/26/2019	10:48	-133.079	42.928	0	225.00	0	8.1570	0	35.2940	8	27.485	0	223.095	0	162.9	4	57.1	4	-1E+10	1	-1E+10	1	-1E+10	1	-1E+10	1	-1E+10	1	-1E+10	1
4901784	136	C	03/26/2019	10:48	-133.079	42.928	0	227.70	0	8.0830	0	35.2930	8	27.495	0	225.770	0	161.6	4	56.5	4	-1E+10	1	-1E+10	1	-1E+10	1	-1E+10	1	-1E+10	1	-1E+10	1
4901784	136	C	03/26/2019	10:48	-133.079	42.928	0	230.30	0	8.0690	0	35.2940	8	27.498	0	228.347	0	161.3	4	56.4	4	-1E+10	1	-1E+10	1	-1E+10	1	-1E+10	1	-1E+10	1	-1E+10	1
4901784	136	C	03/26/2019	10:48	-133.079	42.928	0	232.90	0	8.0890	0	35.3040	8	27.503	0	230.923	0	159.5	4	55.8	4	-1E+10	1	-1E+10	1	-1E+10	1	-1E+10	1	-1E+10	1	-1E+10	1
4901784	136	C	03/26/2019	10:48	-133.079	42.928	0	234.60	0	8.0400	0	35.3010	8	27.508	0	232.608	0	156.6	4	54.8	4	-1E+10	1	-1E+10	1	-1E+10	1	-1E+10	1	-1E+10	1	-1E+10	1
4901784	136	C	03/26/2019	10:48	-133.079	42.928	0	237.20	0	7.9540	0	35.2900	8	27.513	0	235.184	0	153.6	4	53.6	4	-1E+10	1	-1E+10	1	-1E+10	1	-1E+10	1	-1E+10	1	-1E+10	1
4901784	136	C	03/26/2019	10:48	-133.079	42.928	0	239.90	0	7.8760	0	35.2970	8	27.530	0	237.860	0	152.5	4	53.1	4	-1E+10	1	-1E+10	1	-1E+10	1	-1E+10	1	-1E+10	1	-1E+10	1
4901784	136	C	03/26/2019	10:48	-133.079	42.928	0	242.40	0	7.8340	0	35.2980	8	27.537	0	240.337	0	152.5	4	53.1	4	-1E+10	1	-1E+10	1	-1E+10	1	-1E+10	1	-1E+10	1	-1E+10	1
4901784	136	C	03/26/2019	10:48	-133.079	42.928	0	245.00	0	7.7480	0	35.2970	8	27.549	0	242.914	0	149.1	4	51.8	4	-1E+10	1	-1E+10	1	-1E+10	1	-1E+10	1	-1E+10	1	-1E+10	1
4901784	136	C	03/26/2019	10:48	-133.079	42.928	0	247.60	0	7.7050	0	35.2960	8	27.554	0	245.490	0	146.6	4	50.9	4	-1E+10	1	-1E+10	1	-1E+10	1	-1E+10	1	-1E+10	1	-1E+10	1
4901784	136	C	03/26/2019	10:48	-133.079	42.928	0	250.10	0	7.6730	0	35.2920	8	27.556	0	247.967	0	144.0	4	49.9	4	-1E+10	1	-1E+10	1	-1E+10	1	-1E+10	1	-1E+10	1	-1E+10	1
4901784	136	C	03/26/2019	10:48	-133.079	42.928	0	252.70	0	7.6100	0	35.2900	8	27.564	0	250.543	0	141.2	4	48.9	4	-1E+10	1	-1E+10	1	-1E+10	1	-1E+10	1	-1E+10	1	-1E+10	1
4901784	136	C	03/26/2019	10:48	-133.079	42.928	0	255.20	0	7.5020	0	35.2910	8	27.580	0	253.020	0	138.8	4	48.0	4	-1E+10	1	-1E+10	1	-1E+10	1	-1E+10	1	-1E+10	1	-1E+10	1
4901784	136	C	03/26/2019	10:48	-133.079	42.928	0	257.80	0	7.4520	0	35.2900	8	27.587	0	255.597	0	139.2	4	48.0	4	-1E+10	1	-1E+10	1	-1E+10	1	-1E+10	1	-1E+10	1	-1E+10	1
4901784	136	C	03/26/2019	10:48	-133.079	42.928	0	260.40	0	7.4410	0	35.2900	8	27.588	0	258.173	0	141.0	4	48.6	4	-1E+10	1	-1E+10	1	-1E+10	1	-1E+10	1	-1E+10	1	-1E+10	1
4901784	136	C	03/26/2019	10:48	-133.079	42.928	0	262.10	0	7.4390	0	35.2900	8	27.589	0	259.857	0	142.5	4	49.1	4	-1E+10	1	-1E+10	1	-1E+10	1	-1E+10	1	-1E+10	1	-1E+10	1
4901784	136	C	03/26/2019	10:48	-133.079	42.928	0	264.70	0	7.4040	0	35.3000	8	27.602	0	262.433	0	143.9	4	49.6	4	-1E+10	1	-1E+10	1	-1E+10	1	-1E+10	1	-1E+10	1	-1E+10	1
4901784	136	C	03/26/2019	10:48	-133.079	42.928	0	267.20	0	7.3810	0	35.3010	8	27.606	0	264.910	0	141.6	4	48.8	4	-1E+10	1	-1E+10	1	-1E+10	1	-1E+10	1	-1E+10	1	-1E+10	1
4901784	136	C	03/26/2019	10:48	-133.079	42.928	0	269.70	0	7.3300	0	35.3000	8	27.612	0	267.387	0	138.2	4	47.6	4	-1E+10	1	-1E+10	1	-1E+10	1	-1E+10	1	-1E+10	1	-1E+10	1
4901784	136	C	03/26/2019	10:48	-133.079	42.928	0	272.30	0	7.2790	0	35.2970	8	27.617	0	269.963	0	134.0	4	46.1	4	-1E+10	1	-1E+10	1	-1E+10	1	-1E+10	1	-1E+10	1	-1E+10	1
4901784	136	C	03/26/2019	10:48	-133.079	42.928	0	274.80	0	7.1940	0	35.2930	8	27.626	0	272.440	0	130.4	4	44.7	4	-1E+10	1	-1E+10	1	-1E+10	1	-1E+10	1	-1E+10	1	-1E+10	1
4901784	136	C	03/26/2019	10:48	-133.079	42.928	0	277.30	0	7.1140	0	35.2910	8	27.636	0	274.917	0	129.1	4	44.2	4	-1E+10	1	-1E+10	1	-1E+10	1	-1E+10	1	-1E+10	1	-1E+10	1
4901784	136	C	03/26/2019	10:48	-133.079	42.928	0	279.90	0	7.0440	0	35.2920	8	27.647	0	277.493	0	128.5	4	43.9	4	-1E+10	1	-1E+10	1	-1E+10	1	-1E+10	1	-1E+10	1	-1E+10	1
4901784	136	C	03/26/2019	10:48	-133.079	42.928	0	282.40	0	6.9820	0	35.2940	8	27.657	0	279.970	0	127.7	4	43.6	4	-1E+10	1	-1E+10	1	-1E+10	1	-1E+10	1	-1E+10	1	-1E+10	1
4901784	136	C	03/26/2019	10:48	-133.079	42.928	0	284.90	0	6.9340	0	35.2950	8	27.665	0	282.447	0	127.4	4	43.5	4	-1E+10	1	-1E+10	1	-1E+10	1	-1E+10	1	-1E+10	1	-1E+10	1
4901784	136	C	03/26/2019	10:48	-133.079	42.928	0	287.40	0	6.9130	0	35.2950	8	27.667	0	284.923	0	126.8	4	43.2	4	-1E+10	1	-1E+10	1	-1E+10	1	-1E+10	1	-1E+10	1	-1E+10	1
4901784	136	C	03/26/2019	10:48	-133.079	42.928	0	289.90	0	6.8950	0	35.2950	8	27.670	0	287.400	0	126.1	4	43.0	4	-1E+10	1	-1E+10	1	-1E+10	1	-1E+10	1	-1E+10	1	-1E+10	1
4901784	136	C	03/26/2019	10:48	-133.079	42.928	0	292.40	0	6.8420	0	35.2980	8	27.680	0	289.877	0	125.6	4	42.7	4	-1E+10	1	-1E+10	1	-1E+10	1	-1E+10	1	-1E+10	1	-1E+10	1
4901784	136	C	03/26/2019	10:48	-133.079	42.928	0	294.90	0	6.8250	0	35.2980	8	27.682	0	292.353	0	125.1	4	42.6	4	-1E+10	1	-1E+10	1	-1E+10	1	-1E+10	1	-1E+10	1	-1E+10	1
4901784	136	C	03/26/2019	10:48	-133.079	42.928	0	297.40	0	6.8170	0	35.2980	8	27.683	0	294.830	0	124.7	4	42.4	4	-1E+10	1	-1E+10	1	-1E+10	1	-1E+10	1	-1E+10	1	-1E+10	1
4901784	136	C	03/26/2019	10:48	-133.079	42.928	0	299.80	0	6.8080	0	35.2990	8	27.685	0	297.208	0	124.1	4	42.2	4	-1E+10	1	-1E+10	1	-1E+10	1	-1E+10	1	-1E+10	1	-1E+10	1
4901784	136	C	03/26/2019	10:48	-133.079	42.928	0	302.30	0	6.7860	0	35.2980	8	27.688	0	299.684	0	123.4	4	41.9	4	-1E+10	1	-1E+10	1	-1E+10	1	-1E+10	1	-1E+10	1	-1E+10	1
4901784	136	C	03/26/2019	10:48	-133.079	42.928	0	304.90	0	6.7720	0	35.2990	8	27.690	0	302.260	0	122.3	4	41.5	4	-1E+10	1	-1E+10	1	-1E+10	1	-1E+10	1	-1E+10	1	-1E+10	1
4901784	136	C	03/26/2019	10:48	-133.079	42.928	0	307.50	0	6.7420	0	35.2960	8	27.692	0	304.835	0	121.1	4	41.1	4	-1E+10	1	-1E+10	1	-1E+10	1	-1E+10	1	-1E+10	1	-1E+10	1
4901784	136	C	03/26/2019	10:48	-133.079	42.928	0	310.00	0	6.6810	0	35.2970	8	27.701	0	307.312	0	120.1	4	40.7	4	-1E+10	1	-1E+10	1	-1E+10	1	-1E+10	1	-1E+10	1	-1E+10	1
4901784	136	C	03/26/2019	10:48	-133.079	42.928	0	312.40	0	6.6500	0	35.2990	8	27.707	0	309.689	0	119.0	4	40.3	4	-1E+10	1	-1E+10	1	-1E+10	1	-1E+10	1	-1E+10	1	-1E+10	1
4901784	136	C	03/26/2019	10:48	-133.079	42.928	0	314.90	0	6.6220	0	35.2990	8	27.711	0	312.166	0	118.0	4	40.0	4	-1E+10	1	-1E+10	1	-1E+10	1	-1E+10	1	-1E+10	1	-1E+10	1
4901784	136	C	03/26/2019	10:48	-133.079	42.928	0	317.40	0	6.5660	0	35.3020	8	27.721	0	314.642	0	117.2	4	39.7	4	-1E+10	1	-1E+10	1	-1E+10	1	-1E+10	1	-1E+10	1	-1E+10	1
4901784	136	C	03/26/2019	10:48	-133.079	42.928	0	319.90	0	6.5550	0	35.3000	8	27.721	0	317.118	0	116.6	4	39.4	4	-1E+10	1	-1E+10	1	-1E+10	1	-1E+10	1	-1E+10	1	-1E+10	1
4901784	136	C	03/26/2019	10:48	-133.079	42.928	0	322.20	0	6.5340	0	35.2990	8	27.723	0	319.397	0	115.7	4	39.1	4	-1E+10	1	-1E+10	1	-1E+10	1	-1E+10	1	-1E+10	1	-1E+10	1
4901784	136	C	03/26/2019	10:48	-133.079	42.928	0	324.70	0	6.4900	0	35.3000	8	27.730	0	321.873	0	114.7	4	38.7	4	-1E+10	1	-1E+10	1	-1E+10	1	-1E+10	1	-1E+10	1	-1E+10	1
4901784	136	C	03/26/2019	10:48	-133.079	42.928	0	327.10	0	6.4690	0	35.2980	8	27.731	0	324.250	0	113.7	4	38.4	4	-1E+10	1	-1E+10	1	-1E+10	1	-1E+10	1	-1E+10	1	-1E+10	1
4901784	136	C	03/26/2019	10:48	-133.079	42.928	0	329.80	0	6.3920	0	35.2980	8	27.741	0	326.924	0	112.6	4	37.9	4	-1E+10	1	-1E+10	1	-1E+10	1	-1E+10	1	-1E+10	1	-1E+10	1
4901784	136	C	03/26/2019	10:48	-133.079	42.928	0	332.30	0	6.2780	0	35.3040	8	27.761	0	329.401	0	111.7	4	37.5	4	-1E+10	1	-1E+10	1	-1E+10	1	-1E+10	1	-1E+10	1	-1E+10	1
4901784	136	C	03/26/2019	10:48	-133.079	42.928	0	334.80	0	6.2230	0	35.2980	8	27.763	0	331.877	0	111.0	4	37.2	4	-1E+10	1	-1E+10	1	-1E+10	1	-1E+10	1	-1E+10	1	-1E+10	1
4901784	136	C	03/26/2019	10:48	-133.079	42.928	0	337.40	0	6.1960	0	35.2980	8	27.767	0	334.452	0	110.0	4	36.9	4	-1E+10	1	-1E+10	1	-1E+10	1	-1E+10	1	-1E+10	1	-1E+10	1
4901784	136	C	03/26/2019	10:48	-133.079	42.928	0	340.00	0	6.1640	0	35.2990	8	27.772	0	337.027	0	109.0	4	36.5	4	-1E+10	1	-1E+10	1	-1E+10	1	-1E+10	1	-1E+10	1	-1E+10	1
4901784	136	C	03/26/2019	10:48	-133.079	42.928	0	342.50	0	6.1350	0	35.2990	8	27.776	0	339.503	0	108.4	4	36.3	4	-1E+10	1	-1E+10	1	-1E+10	1	-1E+10	1	-1E+10	1	-1E+10	1
4901784	136	C	03/26/2019	10:48	-133.079	42.928	0	345.10	0	6.1090	0	35.3010	8	27.781	0	342.078	0	107.9	4	36.1	4	-1E+10	1	-1E+10	1	-1E+10	1	-1E+10	1	-1E+10	1	-1E+10	1
4901784	136	C	03/26/2019	10:48	-133.079	42.928	0	347.60	0	6.1030	0	35.3000	8	27.781	0	344.555	0	107.8	4	36.1	4	-1E+10	1	-1E+10	1	-1E+10	1	-1E+10	1	-1E+10	1	-1E+10	1
4901784	136	C	03/26/2019	10:48	-133.079	42.928	0	350.20	0	6.0740	0	35.3010	8	27.785	0	347.130	0	107.3	4	35.9	4	-1E+10	1	-1E+10	1	-1E+10	1	-1E+10	1	-1E+10	1	-1E+10	1
4901784	136	C	03/26/2019	10:48	-133.079	42.928	0	352.80	0	6.0690	0	35.3000	8	27.785	0	349.705	0	106.5	4	35.6	4	-1E+10	1	-1E+10	1	-1E+10	1	-1E+10	1	-1E+10	1	-1E+10	1
4901784	136	C	03/26/2019	10:48	-133.079	42.928	0	354.60	0	6.0550	0	35.2990	8	27.786	0	351.487	0	105.6	4	35.3	4	-1E+10	1	-1E+10	1	-1E+10	1	-1E+10	1	-1E+10	1	-1E+10	1
4901784	136	C	03/26/2019	10:48	-133.079	42.928	0	357.30	0	6.0210	0	35.3000	8	27.791	0	354.161	0	104.8	4	35.0	4	-1E+10	1	-1E+10	1	-1E+10	1	-1E+10	1	-1E+10	1	-1E+10	1
4901784	136	C	03/26/2019	10:48	-133.079	42.928	0	360.00	0	5.9740	0	35.3000	8	27.797	0	356.835	0	103.9	4	34.7	4	-1E+10	1	-1E+10	1	-1E+10	1	-1E+10	1	-1E+10	1	-1E+10	1
4901784	136	C	03/26/2019	10:48	-133.079	42.928	0	362.80	0	5.9090	0	35.3000	8	27.806	0	359.608	0	102.8	4	34.2	4	-1E+10	1	-1E+10	1	-1E+10	1	-1E+10	1	-1E+10	1	-1E+10	1
4901784	136	C	03/26/2019	10:48	-133.079	42.928	0	365.50	0	5.8790	0	35.2990	8	27.809	0	362.282	0	101.6	4	33.8	4	-1E+10	1	-1E+10	1	-1E+10	1	-1E+10	1	-1E+10	1	-1E+10	1
4901784	136	C	03/26/2019	10:48	-133.079	42.928	0	367.30	0	5.8420	0	35.3000	8	27.814	0	364.065	0	100.9	4	33.5	4	-1E+10	1	-1E+10	1	-1E+10	1	-1E+10	1	-1E+10	1	-1E+10	1
4901784	136	C	03/26/2019	10:48	-133.079	42.928	0	370.10	0	5.7850	0	35.3020	8	27.823	0	366.837	0	99.8	4	33.1	4	-1E+10	1	-1E+10	1	-1E+10	1	-1E+10	1	-1E+10	1	-1E+10	1
4901784	136	C	03/26/2019	10:48	-133.079	42.928	0	372.80	0	5.7410	0	35.3040	8	27.830	0	369.511	0	98.6	4	32.7	4	-1E+10	1	-1E+10	1	-1E+10	1	-1E+10	1	-1E+10	1	-1E+10	1
4901784	136	C	03/26/2019	10:48	-133.079	42.928	0	374.60	0	5.7150	0	35.3040	8	27.834	0	371.294	0	98.0	4	32.5	4	-1E+10	1	-1E+10	1	-1E+10	1	-1E+10	1	-1E+10	1	-1E+10	1
4901784	136	C	03/26/2019	10:48	-133.079	42.928	0	377.30	0	5.6760	0	35.3060	8	27.840	0	373.967	0	97.1	4	32.2	4	-1E+10	1	-1E+10	1	-1E+10	1	-1E+10	1	-1E+10	1	-1E+10	1
4901784	136	C	03/26/2019	10:48	-133.079	42.928	0	380.10	0	5.6450	0	35.3060	8	27.844	0	376.740	0	96.5	4	31.9	4	-1E+10	1	-1E+10	1	-1E+10	1	-1E+10	1	-1E+10	1	-1E+10	1
4901784	136	C	03/26/2019	10:48	-133.079	42.928	0	382.00	0	5.6360	0	35.3060	8	27.845	0	378.622	0	96.0	4	31.8	4	-1E+10	1	-1E+10	1	-1E+10	1	-1E+10	1	-1E+10	1	-1E+10	1
4901784	136	C	03/26/2019	10:48	-133.079	42.928	0	384.80	0	5.6090	0	35.3080	8	27.850	0	381.394	0	95.1	4	31.5	4	-1E+10	1	-1E+10	1	-1E+10	1	-1E+10	1	-1E+10	1	-1E+10	1
4901784	136	C	03/26/2019	10:48	-133.079	42.928	0	387.50	0	5.5820	0	35.3090	8	27.854	0	384.068	0	94.4	4	31.2	4	-1E+10	1	-1E+10	1	-1E+10	1	-1E+10	1	-1E+10	1	-1E+10	1
4901784	136	C	03/26/2019	10:48	-133.079	42.928	0	390.30	0	5.5740	0	35.3080	8	27.854	0	386.841	0	93.5	4	30.9	4	-1E+10	1	-1E+10	1	-1E+10	1	-1E+10	1	-1E+10	1	-1E+10	1
4901784	136	C	03/26/2019	10:48	-133.079	42.928	0	393.10	0	5.5470	0	35.3100	8	27.859	0	389.613	0	92.3	4	30.5	4	-1E+10	1	-1E+10	1	-1E+10	1	-1E+10	1	-1E+10	1	-1E+10	1
4901784	136	C	03/26/2019	10:48	-133.079	42.928	0	394.90	0	5.5120	0	35.3120	8	27.865	0	391.395	0	91.5	4	30.2	4	-1E+10	1	-1E+10	1	-1E+10	1	-1E+10	1	-1E+10	1	-1E+10	1
4901784	136	C	03/26/2019	10:48	-133.079	42.928	0	397.70	0	5.4690	0	35.3140	8	27.872	0	394.168	0	90.8	4	30.0	4	-1E+10	1	-1E+10	1	-1E+10	1	-1E+10	1	-1E+10	1	-1E+10	1
4901784	136	C	03/26/2019	10:48	-133.079	42.928	0	400.60	0	5.4480	0	35.3150	8	27.876	0	397.039	0	90.3	4	29.7	4	-1E+10	1	-1E+10	1	-1E+10	1	-1E+10	1	-1E+10	1	-1E+10	1
4901784	136	C	03/26/2019	10:48	-133.079	42.928	0	402.50	0	5.4280	0	35.3170	8	27.880	0	398.921	0	89.8	4	29.6	4	-1E+10	1	-1E+10	1	-1E+10	1	-1E+10	1	-1E+10	1	-1E+10	1
4901784	136	C	03/26/2019	10:48	-133.079	42.928	0	405.30	0	5.4070	0	35.3170	8	27.882	0	401.693	0	89.1	4	29.4	4	-1E+10	1	-1E+10	1	-1E+10	1	-1E+10	1	-1E+10	1	-1E+10	1
4901784	136	C	03/26/2019	10:48	-133.079	42.928	0	408.40	0	5.3770	0	35.3200	8	27.888	0	404.762	0	88.4	4	29.1	4	-1E+10	1	-1E+10	1	-1E+10	1	-1E+10	1	-1E+10	1	-1E+10	1
4901784	136	C	03/26/2019	10:48	-133.079	42.928	0	409.80	0	5.3480	0	35.3190	8	27.891	0	406.149	0	88.0	4	28.9	4	-1E+10	1	-1E+10	1	-1E+10	1	-1E+10	1	-1E+10	1	-1E+10	1
4901784	136	C	03/26/2019	10:48	-133.079	42.928	0	412.30	0	5.3100	0	35.3220	8	27.898	0	408.624	0	87.3	4	28.7	4	-1E+10	1	-1E+10	1	-1E+10	1	-1E+10	1	-1E+10	1	-1E+10	1
4901784	136	C	03/26/2019	10:48	-133.079	42.928	0	414.70	0	5.2920	0	35.3230	8	27.901	0	411.000	0	86.7	4	28.5	4	-1E+10	1	-1E+10	1	-1E+10	1	-1E+10	1	-1E+10	1	-1E+10	1
4901784	136	C	03/26/2019	10:48	-133.079	42.928	0	417.20	0	5.2680	0	35.3250	8	27.905	0	413.475	0	86.1	4	28.3	4	-1E+10	1	-1E+10	1	-1E+10	1	-1E+10	1	-1E+10	1	-1E+10	1
4901784	136	C	03/26/2019	10:48	-133.079	42.928	0	419.60	0	5.2500	0	35.3260	8	27.908	0	415.852	0	85.6	4	28.1	4	-1E+10	1	-1E+10	1	-1E+10	1	-1E+10	1	-1E+10	1	-1E+10	1
4901784	136	C	03/26/2019	10:48	-133.079	42.928	0	422.80	0	5.2250	0	35.3270	8	27.912	0	419.020	0	84.6	4	27.8	4	-1E+10	1	-1E+10	1	-1E+10	1	-1E+10	1	-1E+10	1	-1E+10	1
4901784	136	C	03/26/2019	10:48	-133.079	42.928	0	425.30	0	5.2070	0	35.3280	8	27.915	0	421.495	0	83.8	4	27.5	4	-1E+10	1	-1E+10	1	-1E+10	1	-1E+10	1	-1E+10	1	-1E+10	1
4901784	136	C	03/26/2019	10:48	-133.079	42.928	0	427.70	0	5.1920	0	35.3310	8	27.919	0	423.871	0	82.6	4	27.1	4	-1E+10	1	-1E+10	1	-1E+10	1	-1E+10	1	-1E+10	1	-1E+10	1
4901784	136	C	03/26/2019	10:48	-133.079	42.928	0	430.10	0	5.1760	0	35.3330	8	27.923	0	426.247	0	81.9	4	26.8	4	-1E+10	1	-1E+10	1	-1E+10	1	-1E+10	1	-1E+10	1	-1E+10	1
4901784	136	C	03/26/2019	10:48	-133.079	42.928	0	432.60	0	5.1620	0	35.3330	8	27.925	0	428.722	0	81.4	4	26.7	4	-1E+10	1	-1E+10	1	-1E+10	1	-1E+10	1	-1E+10	1	-1E+10	1
4901784	136	C	03/26/2019	10:48	-133.079	42.928	0	435.10	0	5.1350	0	35.3360	8	27.930	0	431.197	0	80.7	4	26.4	4	-1E+10	1	-1E+10	1	-1E+10	1	-1E+10	1	-1E+10	1	-1E+10	1
4901784	136	C	03/26/2019	10:48	-133.079	42.928	0	437.70	0	5.1160	0	35.3380	8	27.934	0	433.771	0	80.0	4	26.2	4	-1E+10	1	-1E+10	1	-1E+10	1	-1E+10	1	-1E+10	1	-1E+10	1
4901784	136	C	03/26/2019	10:48	-133.079	42.928	0	440.20	0	5.1040	0	35.3390	8	27.936	0	436.246	0	79.0	4	25.8	4	-1E+10	1	-1E+10	1	-1E+10	1	-1E+10	1	-1E+10	1	-1E+10	1
4901784	136	C	03/26/2019	10:48	-133.079	42.928	0	442.70	0	5.0980	0	35.3400	8	27.938	0	438.721	0	77.3	4	25.3	4	-1E+10	1	-1E+10	1	-1E+10	1	-1E+10	1	-1E+10	1	-1E+10	1
4901784	136	C	03/26/2019	10:48	-133.079	42.928	0	445.20	0	5.0940	0	35.3440	8	27.941	0	441.196	0	75.5	4	24.7	4	-1E+10	1	-1E+10	1	-1E+10	1	-1E+10	1	-1E+10	1	-1E+10	1
4901784	136	C	03/26/2019	10:48	-133.079	42.928	0	447.80	0	5.0850	0	35.3460	8	27.944	0	443.769	0	74.6	4	24.4	4	-1E+10	1	-1E+10	1	-1E+10	1	-1E+10	1	-1E+10	1	-1E+10	1
4901784	136	C	03/26/2019	10:48	-133.079	42.928	0	450.40	0	5.0740	0	35.3470	8	27.946	0	446.343	0	73.7	4	24.1	4	-1E+10	1	-1E+10	1	-1E+10	1	-1E+10	1	-1E+10	1	-1E+10	1
4901784	136	C	03/26/2019	10:48	-133.079	42.928	0	452.20	0	5.0620	0	35.3490	8	27.949	0	448.125	0	72.9	4	23.8	4	-1E+10	1	-1E+10	1	-1E+10	1	-1E+10	1	-1E+10	1	-1E+10	1
4901784	136	C	03/26/2019	10:48	-133.079	42.928	0	454.80	0	5.0470	0	35.3520	8	27.953	0	450.699	0	72.0	4	23.5	4	-1E+10	1	-1E+10	1	-1E+10	1	-1E+10	1	-1E+10	1	-1E+10	1
4901784	136	C	03/26/2019	10:48	-133.079	42.928	0	457.40	0	5.0370	0	35.3540	8	27.956	0	453.273	0	71.3	4	23.3	4	-1E+10	1	-1E+10	1	-1E+10	1	-1E+10	1	-1E+10	1	-1E+10	1
4901784	136	C	03/26/2019	10:48	-133.079	42.928	0	460.10	0	5.0350	0	35.3550	8	27.957	0	455.945	0	70.5	4	23.0	4	-1E+10	1	-1E+10	1	-1E+10	1	-1E+10	1	-1E+10	1	-1E+10	1
4901784	136	C	03/26/2019	10:48	-133.079	42.928	0	462.70	0	5.0320	0	35.3560	8	27.958	0	458.519	0	69.6	4	22.7	4	-1E+10	1	-1E+10	1	-1E+10	1	-1E+10	1	-1E+10	1	-1E+10	1
4901784	136	C	03/26/2019	10:48	-133.079	42.928	0	465.40	0	5.0210	0	35.3580	8	27.961	0	461.191	0	68.6	4	22.4	4	-1E+10	1	-1E+10	1	-1E+10	1	-1E+10	1	-1E+10	1	-1E+10	1
4901784	136	C	03/26/2019	10:48	-133.079	42.928	0	468.00	0	5.0100	0	35.3590	8	27.963	0	463.765	0	67.5	4	22.0	4	-1E+10	1	-1E+10	1	-1E+10	1	-1E+10	1	-1E+10	1	-1E+10	1
4901784	136	C	03/26/2019	10:48	-133.079	42.928	0	469.80	0	4.9940	0	35.3650	8	27.970	0	465.547	0	66.7	4	21.8	4	-1E+10	1	-1E+10	1	-1E+10	1	-1E+10	1	-1E+10	1	-1E+10	1
4901784	136	C	03/26/2019	10:48	-133.079	42.928	0	472.40	0	4.9700	0	35.3650	8	27.973	0	468.120	0	65.7	4	21.4	4	-1E+10	1	-1E+10	1	-1E+10	1	-1E+10	1	-1E+10	1	-1E+10	1
4901784	136	C	03/26/2019	10:48	-133.079	42.928	0	475.10	0	4.9530	0	35.3690	8	27.978	0	470.793	0	63.9	4	20.8	4	-1E+10	1	-1E+10	1	-1E+10	1	-1E+10	1	-1E+10	1	-1E+10	1
4901784	136	C	03/26/2019	10:48	-133.079	42.928	0	476.90	0	4.9480	0	35.3710	8	27.980	0	472.574	0	62.8	4	20.5	4	-1E+10	1	-1E+10	1	-1E+10	1	-1E+10	1	-1E+10	1	-1E+10	1
4901784	136	C	03/26/2019	10:48	-133.079	42.928	0	479.70	0	4.9360	0	35.3760	8	27.986	0	475.346	0	61.4	4	20.0	4	-1E+10	1	-1E+10	1	-1E+10	1	-1E+10	1	-1E+10	1	-1E+10	1
4901784	136	C	03/26/2019	10:48	-133.079	42.928	0	482.50	0	4.9160	0	35.3810	8	27.992	0	478.117	0	60.5	4	19.7	4	-1E+10	1	-1E+10	1	-1E+10	1	-1E+10	1	-1E+10	1	-1E+10	1
4901784	136	C	03/26/2019	10:48	-133.079	42.928	0	484.40	0	4.9000	0	35.3850	8	27.997	0	479.998	0	60.2	4	19.6	4	-1E+10	1	-1E+10	1	-1E+10	1	-1E+10	1	-1E+10	1	-1E+10	1
4901784	136	C	03/26/2019	10:48	-133.079	42.928	0	487.20	0	4.8940	0	35.3860	8	27.999	0	482.769	0	60.0	4	19.5	4	-1E+10	1	-1E+10	1	-1E+10	1	-1E+10	1	-1E+10	1	-1E+10	1
4901784	136	C	03/26/2019	10:48	-133.079	42.928	0	490.00	0	4.8840	0	35.3880	8	28.001	0	485.540	0	59.6	4	19.4	4	-1E+10	1	-1E+10	1	-1E+10	1	-1E+10	1	-1E+10	1	-1E+10	1
4901784	136	C	03/26/2019	10:48	-133.079	42.928	0	491.90	0	4.8820	0	35.3880	8	28.002	0	487.421	0	59.2	4	19.3	4	-1E+10	1	-1E+10	1	-1E+10	1	-1E+10	1	-1E+10	1	-1E+10	1
4901784	136	C	03/26/2019	10:48	-133.079	42.928	0	494.70	0	4.8730	0	35.3900	8	28.004	0	490.192	0	58.5	4	19.0	4	-1E+10	1	-1E+10	1	-1E+10	1	-1E+10	1	-1E+10	1	-1E+10	1
4901784	136	C	03/26/2019	10:48	-133.079	42.928	0	497.50	0	4.8680	0	35.3900	8	28.005	0	492.963	0	57.7	4	18.8	4	-1E+10	1	-1E+10	1	-1E+10	1	-1E+10	1	-1E+10	1	-1E+10	1
4901784	136	C	03/26/2019	10:48	-133.079	42.928	0	500.30	0	4.8430	0	35.3980	8	28.014	0	495.734	0	56.7	4	18.4	4	-1E+10	1	-1E+10	1	-1E+10	1	-1E+10	1	-1E+10	1	-1E+10	1
4901784	136	C	03/26/2019	10:48	-133.079	42.928	0	505.00	0	4.8320	0	35.4020	8	28.019	0	500.386	0	55.2	4	18.0	4	-1E+10	1	-1E+10	1	-1E+10	1	-1E+10	1	-1E+10	1	-1E+10	1
4901784	136	C	03/26/2019	10:48	-133.079	42.928	0	509.80	0	4.8190	0	35.4070	8	28.024	0	505.136	0	53.3	4	17.3	4	-1E+10	1	-1E+10	1	-1E+10	1	-1E+10	1	-1E+10	1	-1E+10	1
4901784	136	C	03/26/2019	10:48	-133.079	42.928	0	514.50	0	4.8010	0	35.4130	8	28.031	0	509.787	0	51.5	4	16.7	4	-1E+10	1	-1E+10	1	-1E+10	1	-1E+10	1	-1E+10	1	-1E+10	1
4901784	136	C	03/26/2019	10:48	-133.079	42.928	0	520.10	0	4.7870	0	35.4190	8	28.037	0	515.329	0	49.2	4	16.0	4	-1E+10	1	-1E+10	1	-1E+10	1	-1E+10	1	-1E+10	1	-1E+10	1
4901784	136	C	03/26/2019	10:48	-133.079	42.928	0	524.90	0	4.7690	0	35.4270	8	28.046	0	520.079	0	47.1	4	15.3	4	-1E+10	1	-1E+10	1	-1E+10	1	-1E+10	1	-1E+10	1	-1E+10	1
4901784	136	C	03/26/2019	10:48	-133.079	42.928	0	529.60	0	4.7450	0	35.4330	8	28.053	0	524.730	0	45.8	4	14.9	4	-1E+10	1	-1E+10	1	-1E+10	1	-1E+10	1	-1E+10	1	-1E+10	1
4901784	136	C	03/26/2019	10:48	-133.079	42.928	0	535.20	0	4.7310	0	35.4380	8	28.059	0	530.271	0	43.9	4	14.2	4	-1E+10	1	-1E+10	1	-1E+10	1	-1E+10	1	-1E+10	1	-1E+10	1
4901784	136	C	03/26/2019	10:48	-133.079	42.928	0	539.80	0	4.7080	0	35.4450	8	28.067	0	534.823	0	42.4	4	13.8	4	-1E+10	1	-1E+10	1	-1E+10	1	-1E+10	1	-1E+10	1	-1E+10	1
4901784	136	C	03/26/2019	10:48	-133.079	42.928	0	544.50	0	4.6720	0	35.4510	8	28.076	0	539.474	0	41.5	4	13.4	4	-1E+10	1	-1E+10	1	-1E+10	1	-1E+10	1	-1E+10	1	-1E+10	1
4901784	136	C	03/26/2019	10:48	-133.079	42.928	0	550.20	0	4.6340	0	35.4570	8	28.085	0	545.113	0	40.3	4	13.0	4	-1E+10	1	-1E+10	1	-1E+10	1	-1E+10	1	-1E+10	1	-1E+10	1
4901784	136	C	03/26/2019	10:48	-133.079	42.928	0	555.00	0	4.6130	0	35.4620	8	28.092	0	549.863	0	38.9	4	12.6	4	-1E+10	1	-1E+10	1	-1E+10	1	-1E+10	1	-1E+10	1	-1E+10	1
4901784	136	C	03/26/2019	10:48	-133.079	42.928	0	559.80	0	4.5820	0	35.4680	8	28.100	0	554.612	0	37.6	4	12.1	4	-1E+10	1	-1E+10	1	-1E+10	1	-1E+10	1	-1E+10	1	-1E+10	1
4901784	136	C	03/26/2019	10:48	-133.079	42.928	0	565.50	0	4.5460	0	35.4760	8	28.110	0	560.251	0	35.9	4	11.6	4	-1E+10	1	-1E+10	1	-1E+10	1	-1E+10	1	-1E+10	1	-1E+10	1
4901784	136	C	03/26/2019	10:48	-133.079	42.928	0	570.20	0	4.5280	0	35.4830	8	28.118	0	564.901	0	34.2	4	11.0	4	-1E+10	1	-1E+10	1	-1E+10	1	-1E+10	1	-1E+10	1	-1E+10	1
4901784	136	C	03/26/2019	10:48	-133.079	42.928	0	574.80	0	4.5110	0	35.4910	8	28.126	0	569.452	0	32.8	4	10.6	4	-1E+10	1	-1E+10	1	-1E+10	1	-1E+10	1	-1E+10	1	-1E+10	1
4901784	136	C	03/26/2019	10:48	-133.079	42.928	0	580.50	0	4.4990	0	35.4960	8	28.132	0	575.091	0	31.9	4	10.3	4	-1E+10	1	-1E+10	1	-1E+10	1	-1E+10	1	-1E+10	1	-1E+10	1
4901784	136	C	03/26/2019	10:48	-133.079	42.928	0	585.20	0	4.4880	0	35.5000	8	28.136	0	579.741	0	31.2	4	10.1	4	-1E+10	1	-1E+10	1	-1E+10	1	-1E+10	1	-1E+10	1	-1E+10	1
4901784	136	C	03/26/2019	10:48	-133.079	42.928	0	589.90	0	4.4720	0	35.5030	8	28.140	0	584.391	0	30.6	4	9.9	4	-1E+10	1	-1E+10	1	-1E+10	1	-1E+10	1	-1E+10	1	-1E+10	1
4901784	136	C	03/26/2019	10:48	-133.079	42.928	0	594.70	0	4.4600	0	35.5070	8	28.145	0	589.139	0	30.1	4	9.7	4	-1E+10	1	-1E+10	1	-1E+10	1	-1E+10	1	-1E+10	1	-1E+10	1
4901784	136	C	03/26/2019	10:48	-133.079	42.928	0	599.50	0	4.4540	0	35.5080	8	28.146	0	593.887	0	29.6	4	9.5	4	-1E+10	1	-1E+10	1	-1E+10	1	-1E+10	1	-1E+10	1	-1E+10	1
4901784	136	C	03/26/2019	10:48	-133.079	42.928	0	604.90	0	4.4420	0	35.5120	8	28.151	0	599.229	0	28.7	4	9.3	4	-1E+10	1	-1E+10	1	-1E+10	1	-1E+10	1	-1E+10	1	-1E+10	1
4901784	136	C	03/26/2019	10:48	-133.079	42.928	0	609.30	0	4.4220	0	35.5190	8	28.159	0	603.581	0	27.9	4	9.0	4	-1E+10	1	-1E+10	1	-1E+10	1	-1E+10	1	-1E+10	1	-1E+10	1
4901784	136	C	03/26/2019	10:48	-133.079	42.928	0	615.00	0	4.4050	0	35.5240	8	28.165	0	609.220	0	26.8	4	8.6	4	-1E+10	1	-1E+10	1	-1E+10	1	-1E+10	1	-1E+10	1	-1E+10	1
4901784	136	C	03/26/2019	10:48	-133.079	42.928	0	620.60	0	4.3800	0	35.5330	8	28.175	0	614.759	0	25.3	4	8.1	4	-1E+10	1	-1E+10	1	-1E+10	1	-1E+10	1	-1E+10	1	-1E+10	1
4901784	136	C	03/26/2019	10:48	-133.079	42.928	0	625.40	0	4.3520	0	35.5410	8	28.184	0	619.506	0	24.6	4	7.9	4	-1E+10	1	-1E+10	1	-1E+10	1	-1E+10	1	-1E+10	1	-1E+10	1
4901784	136	C	03/26/2019	10:48	-133.079	42.928	0	630.30	0	4.3400	0	35.5440	8	28.188	0	624.353	0	24.2	4	7.8	4	-1E+10	1	-1E+10	1	-1E+10	1	-1E+10	1	-1E+10	1	-1E+10	1
4901784	136	C	03/26/2019	10:48	-133.079	42.928	0	635.20	0	4.3290	0	35.5460	8	28.191	0	629.199	0	23.9	4	7.7	4	-1E+10	1	-1E+10	1	-1E+10	1	-1E+10	1	-1E+10	1	-1E+10	1
4901784	136	C	03/26/2019	10:48	-133.079	42.928	0	640.20	0	4.2860	0	35.5530	8	28.201	0	634.144	0	23.6	4	7.6	4	-1E+10	1	-1E+10	1	-1E+10	1	-1E+10	1	-1E+10	1	-1E+10	1
4901784	136	C	03/26/2019	10:48	-133.079	42.928	0	645.20	0	4.2690	0	35.5560	8	28.205	0	639.089	0	23.4	4	7.5	4	-1E+10	1	-1E+10	1	-1E+10	1	-1E+10	1	-1E+10	1	-1E+10	1
4901784	136	C	03/26/2019	10:48	-133.079	42.928	0	650.20	0	4.2370	0	35.5610	8	28.213	0	644.034	0	23.2	4	7.4	4	-1E+10	1	-1E+10	1	-1E+10	1	-1E+10	1	-1E+10	1	-1E+10	1
4901784	136	C	03/26/2019	10:48	-133.079	42.928	0	655.20	0	4.2120	0	35.5650	8	28.219	0	648.979	0	22.3	4	7.2	4	-1E+10	1	-1E+10	1	-1E+10	1	-1E+10	1	-1E+10	1	-1E+10	1
4901784	136	C	03/26/2019	10:48	-133.079	42.928	0	660.20	0	4.2090	0	35.5730	8	28.225	0	653.924	0	21.5	4	6.9	4	-1E+10	1	-1E+10	1	-1E+10	1	-1E+10	1	-1E+10	1	-1E+10	1
4901784	136	C	03/26/2019	10:48	-133.079	42.928	0	665.20	0	4.1960	0	35.5770	8	28.230	0	658.868	0	21.0	4	6.7	4	-1E+10	1	-1E+10	1	-1E+10	1	-1E+10	1	-1E+10	1	-1E+10	1
4901784	136	C	03/26/2019	10:48	-133.079	42.928	0	670.30	0	4.1870	0	35.5810	8	28.234	0	663.912	0	20.6	4	6.6	4	-1E+10	1	-1E+10	1	-1E+10	1	-1E+10	1	-1E+10	1	-1E+10	1
4901784	136	C	03/26/2019	10:48	-133.079	42.928	0	675.50	0	4.1810	0	35.5850	8	28.238	0	669.054	0	20.1	4	6.4	4	-1E+10	1	-1E+10	1	-1E+10	1	-1E+10	1	-1E+10	1	-1E+10	1
4901784	136	C	03/26/2019	10:48	-133.079	42.928	0	680.70	0	4.1770	0	35.5900	8	28.242	0	674.196	0	19.8	4	6.3	4	-1E+10	1	-1E+10	1	-1E+10	1	-1E+10	1	-1E+10	1	-1E+10	1
4901784	136	C	03/26/2019	10:48	-133.079	42.928	0	685.80	0	4.1750	0	35.5910	8	28.244	0	679.239	0	19.7	4	6.3	4	-1E+10	1	-1E+10	1	-1E+10	1	-1E+10	1	-1E+10	1	-1E+10	1
4901784	136	C	03/26/2019	10:48	-133.079	42.928	0	689.80	0	4.1740	0	35.5920	8	28.244	0	683.194	0	19.6	4	6.3	4	-1E+10	1	-1E+10	1	-1E+10	1	-1E+10	1	-1E+10	1	-1E+10	1
4901784	136	C	03/26/2019	10:48	-133.079	42.928	0	695.10	0	4.1710	0	35.5930	8	28.246	0	688.434	0	19.5	4	6.3	4	-1E+10	1	-1E+10	1	-1E+10	1	-1E+10	1	-1E+10	1	-1E+10	1
4901784	136	C	03/26/2019	10:48	-133.079	42.928	0	700.50	0	4.1660	0	35.5950	8	28.248	0	693.774	0	19.5	4	6.3	4	-1E+10	1	-1E+10	1	-1E+10	1	-1E+10	1	-1E+10	1	-1E+10	1
4901784	136	C	03/26/2019	10:48	-133.079	42.928	0	705.40	0	4.1350	0	35.5970	8	28.253	0	698.618	0	19.9	4	6.4	4	-1E+10	1	-1E+10	1	-1E+10	1	-1E+10	1	-1E+10	1	-1E+10	1
4901784	136	C	03/26/2019	10:48	-133.079	42.928	0	710.10	0	4.0990	0	35.5980	8	28.257	0	703.265	0	20.0	4	6.4	4	-1E+10	1	-1E+10	1	-1E+10	1	-1E+10	1	-1E+10	1	-1E+10	1
4901784	136	C	03/26/2019	10:48	-133.079	42.928	0	715.10	0	4.0820	0	35.6010	8	28.262	0	708.209	0	19.6	4	6.3	4	-1E+10	1	-1E+10	1	-1E+10	1	-1E+10	1	-1E+10	1	-1E+10	1
4901784	136	C	03/26/2019	10:48	-133.079	42.928	0	720.00	0	4.0500	0	35.6090	8	28.271	0	713.053	0	19.0	4	6.1	4	-1E+10	1	-1E+10	1	-1E+10	1	-1E+10	1	-1E+10	1	-1E+10	1
4901784	136	C	03/26/2019	10:48	-133.079	42.928	0	724.90	0	4.0410	0	35.6130	8	28.276	0	717.897	0	18.7	4	6.0	4	-1E+10	1	-1E+10	1	-1E+10	1	-1E+10	1	-1E+10	1	-1E+10	1
4901784	136	C	03/26/2019	10:48	-133.079	42.928	0	730.00	0	4.0210	0	35.6160	8	28.280	0	722.939	0	18.4	4	5.9	4	-1E+10	1	-1E+10	1	-1E+10	1	-1E+10	1	-1E+10	1	-1E+10	1
4901784	136	C	03/26/2019	10:48	-133.079	42.928	0	735.10	0	4.0010	0	35.6210	8	28.286	0	727.981	0	18.1	4	5.8	4	-1E+10	1	-1E+10	1	-1E+10	1	-1E+10	1	-1E+10	1	-1E+10	1
4901784	136	C	03/26/2019	10:48	-133.079	42.928	0	740.20	0	3.9830	0	35.6250	8	28.291	0	733.023	0	17.8	4	5.7	4	-1E+10	1	-1E+10	1	-1E+10	1	-1E+10	1	-1E+10	1	-1E+10	1
4901784	136	C	03/26/2019	10:48	-133.079	42.928	0	745.30	0	3.9660	0	35.6300	8	28.297	0	738.064	0	17.5	4	5.6	4	-1E+10	1	-1E+10	1	-1E+10	1	-1E+10	1	-1E+10	1	-1E+10	1
4901784	136	C	03/26/2019	10:48	-133.079	42.928	0	750.50	0	3.9480	0	35.6340	8	28.302	0	743.205	0	17.0	4	5.4	4	-1E+10	1	-1E+10	1	-1E+10	1	-1E+10	1	-1E+10	1	-1E+10	1
4901784	136	C	03/26/2019	10:48	-133.079	42.928	0	755.70	0	3.9320	0	35.6400	8	28.309	0	748.345	0	16.5	4	5.3	4	-1E+10	1	-1E+10	1	-1E+10	1	-1E+10	1	-1E+10	1	-1E+10	1
4901784	136	C	03/26/2019	10:48	-133.079	42.928	0	760.10	0	3.9320	0	35.6440	8	28.312	0	752.694	0	16.0	4	5.1	4	-1E+10	1	-1E+10	1	-1E+10	1	-1E+10	1	-1E+10	1	-1E+10	1
4901784	136	C	03/26/2019	10:48	-133.079	42.928	0	764.60	0	3.9170	0	35.6490	8	28.318	0	757.142	0	15.6	4	5.0	4	-1E+10	1	-1E+10	1	-1E+10	1	-1E+10	1	-1E+10	1	-1E+10	1
4901784	136	C	03/26/2019	10:48	-133.079	42.928	0	769.80	0	3.9200	0	35.6570	8	28.324	0	762.282	0	15.1	4	4.8	4	-1E+10	1	-1E+10	1	-1E+10	1	-1E+10	1	-1E+10	1	-1E+10	1
4901784	136	C	03/26/2019	10:48	-133.079	42.928	0	775.20	0	3.9070	0	35.6610	8	28.328	0	767.619	0	14.8	4	4.7	4	-1E+10	1	-1E+10	1	-1E+10	1	-1E+10	1	-1E+10	1	-1E+10	1
4901784	136	C	03/26/2019	10:48	-133.079	42.928	0	780.60	0	3.9020	0	35.6640	8	28.331	0	772.956	0	14.5	4	4.6	4	-1E+10	1	-1E+10	1	-1E+10	1	-1E+10	1	-1E+10	1	-1E+10	1
4901784	136	C	03/26/2019	10:48	-133.079	42.928	0	785.00	0	3.8910	0	35.6670	8	28.335	0	777.305	0	14.2	4	4.5	4	-1E+10	1	-1E+10	1	-1E+10	1	-1E+10	1	-1E+10	1	-1E+10	1
4901784	136	C	03/26/2019	10:48	-133.079	42.928	0	789.50	0	3.8820	0	35.6710	8	28.339	0	781.752	0	13.8	4	4.4	4	-1E+10	1	-1E+10	1	-1E+10	1	-1E+10	1	-1E+10	1	-1E+10	1
4901784	136	C	03/26/2019	10:48	-133.079	42.928	0	795.10	0	3.8760	0	35.6820	8	28.349	0	787.287	0	13.1	4	4.2	4	-1E+10	1	-1E+10	1	-1E+10	1	-1E+10	1	-1E+10	1	-1E+10	1
4901784	136	C	03/26/2019	10:48	-133.079	42.928	0	800.60	0	3.8710	0	35.6910	8	28.356	0	792.722	0	12.7	4	4.0	4	-1E+10	1	-1E+10	1	-1E+10	1	-1E+10	1	-1E+10	1	-1E+10	1
4901784	136	C	03/26/2019	10:48	-133.079	42.928	0	805.20	0	3.8640	0	35.6950	8	28.360	0	797.268	0	12.5	4	4.0	4	-1E+10	1	-1E+10	1	-1E+10	1	-1E+10	1	-1E+10	1	-1E+10	1
4901784	136	C	03/26/2019	10:48	-133.079	42.928	0	809.80	0	3.8670	0	35.6990	8	28.363	0	801.814	0	12.3	4	3.9	4	-1E+10	1	-1E+10	1	-1E+10	1	-1E+10	1	-1E+10	1	-1E+10	1
4901784	136	C	03/26/2019	10:48	-133.079	42.928	0	815.40	0	3.8570	0	35.7040	8	28.368	0	807.348	0	12.1	4	3.8	4	-1E+10	1	-1E+10	1	-1E+10	1	-1E+10	1	-1E+10	1	-1E+10	1
4901784	136	C	03/26/2019	10:48	-133.079	42.928	0	820.00	0	3.8430	0	35.7080	8	28.373	0	811.894	0	11.9	4	3.8	4	-1E+10	1	-1E+10	1	-1E+10	1	-1E+10	1	-1E+10	1	-1E+10	1
4901784	136	C	03/26/2019	10:48	-133.079	42.928	0	824.50	0	3.8310	0	35.7120	8	28.377	0	816.341	0	11.8	4	3.8	4	-1E+10	1	-1E+10	1	-1E+10	1	-1E+10	1	-1E+10	1	-1E+10	1
4901784	136	C	03/26/2019	10:48	-133.079	42.928	0	830.00	0	3.8230	0	35.7150	8	28.381	0	821.775	0	11.7	4	3.7	4	-1E+10	1	-1E+10	1	-1E+10	1	-1E+10	1	-1E+10	1	-1E+10	1
4901784	136	C	03/26/2019	10:48	-133.079	42.928	0	835.60	0	3.8140	0	35.7190	8	28.385	0	827.309	0	11.6	4	3.7	4	-1E+10	1	-1E+10	1	-1E+10	1	-1E+10	1	-1E+10	1	-1E+10	1
4901784	136	C	03/26/2019	10:48	-133.079	42.928	0	840.20	0	3.8080	0	35.7210	8	28.387	0	831.854	0	11.6	4	3.7	4	-1E+10	1	-1E+10	1	-1E+10	1	-1E+10	1	-1E+10	1	-1E+10	1
4901784	136	C	03/26/2019	10:48	-133.079	42.928	0	844.90	0	3.8030	0	35.7230	8	28.389	0	836.498	0	11.4	4	3.6	4	-1E+10	1	-1E+10	1	-1E+10	1	-1E+10	1	-1E+10	1	-1E+10	1
4901784	136	C	03/26/2019	10:48	-133.079	42.928	0	850.50	0	3.7800	0	35.7290	8	28.396	0	842.031	0	11.3	4	3.6	4	-1E+10	1	-1E+10	1	-1E+10	1	-1E+10	1	-1E+10	1	-1E+10	1
4901784	136	C	03/26/2019	10:48	-133.079	42.928	0	855.20	0	3.7740	0	35.7320	8	28.399	0	846.675	0	11.2	4	3.5	4	-1E+10	1	-1E+10	1	-1E+10	1	-1E+10	1	-1E+10	1	-1E+10	1
4901784	136	C	03/26/2019	10:48	-133.079	42.928	0	859.90	0	3.7640	0	35.7380	8	28.405	0	851.318	0	11.1	4	3.5	4	-1E+10	1	-1E+10	1	-1E+10	1	-1E+10	1	-1E+10	1	-1E+10	1
4901784	136	C	03/26/2019	10:48	-133.079	42.928	0	865.40	0	3.7550	0	35.7410	8	28.409	0	856.752	0	11.0	4	3.5	4	-1E+10	1	-1E+10	1	-1E+10	1	-1E+10	1	-1E+10	1	-1E+10	1
4901784	136	C	03/26/2019	10:48	-133.079	42.928	0	870.00	0	3.7480	0	35.7450	8	28.413	0	861.297	0	10.9	4	3.4	4	-1E+10	1	-1E+10	1	-1E+10	1	-1E+10	1	-1E+10	1	-1E+10	1
4901784	136	C	03/26/2019	10:48	-133.079	42.928	0	874.70	0	3.7400	0	35.7490	8	28.417	0	865.940	0	10.8	4	3.4	4	-1E+10	1	-1E+10	1	-1E+10	1	-1E+10	1	-1E+10	1	-1E+10	1
4901784	136	C	03/26/2019	10:48	-133.079	42.928	0	880.40	0	3.7320	0	35.7520	8	28.420	0	871.571	0	10.7	4	3.4	4	-1E+10	1	-1E+10	1	-1E+10	1	-1E+10	1	-1E+10	1	-1E+10	1
4901784	136	C	03/26/2019	10:48	-133.079	42.928	0	885.00	0	3.7200	0	35.7550	8	28.424	0	876.115	0	10.6	4	3.4	4	-1E+10	1	-1E+10	1	-1E+10	1	-1E+10	1	-1E+10	1	-1E+10	1
4901784	136	C	03/26/2019	10:48	-133.079	42.928	0	889.80	0	3.7070	0	35.7620	8	28.430	0	880.857	0	10.5	4	3.3	4	-1E+10	1	-1E+10	1	-1E+10	1	-1E+10	1	-1E+10	1	-1E+10	1
4901784	136	C	03/26/2019	10:48	-133.079	42.928	0	895.40	0	3.7020	0	35.7650	8	28.433	0	886.389	0	10.5	4	3.3	4	-1E+10	1	-1E+10	1	-1E+10	1	-1E+10	1	-1E+10	1	-1E+10	1
4901784	136	C	03/26/2019	10:48	-133.079	42.928	0	900.10	0	3.6950	0	35.7690	8	28.437	0	891.031	0	10.4	4	3.3	4	-1E+10	1	-1E+10	1	-1E+10	1	-1E+10	1	-1E+10	1	-1E+10	1
4901784	136	C	03/26/2019	10:48	-133.079	42.928	0	904.80	0	3.6750	0	35.7750	8	28.444	0	895.674	0	10.4	4	3.3	4	-1E+10	1	-1E+10	1	-1E+10	1	-1E+10	1	-1E+10	1	-1E+10	1
4901784	136	C	03/26/2019	10:48	-133.079	42.928	0	910.10	0	3.6630	0	35.7770	8	28.447	0	900.909	0	10.4	4	3.3	4	-1E+10	1	-1E+10	1	-1E+10	1	-1E+10	1	-1E+10	1	-1E+10	1
4901784	136	C	03/26/2019	10:48	-133.079	42.928	0	914.50	0	3.6370	0	35.7800	8	28.452	0	905.255	0	10.3	4	3.3	4	-1E+10	1	-1E+10	1	-1E+10	1	-1E+10	1	-1E+10	1	-1E+10	1
4901784	136	C	03/26/2019	10:48	-133.079	42.928	0	920.10	0	3.6340	0	35.7850	8	28.456	0	910.786	0	10.3	4	3.3	4	-1E+10	1	-1E+10	1	-1E+10	1	-1E+10	1	-1E+10	1	-1E+10	1
4901784	136	C	03/26/2019	10:48	-133.079	42.928	0	925.80	0	3.6160	0	35.7860	8	28.459	0	916.416	0	10.3	4	3.3	4	-1E+10	1	-1E+10	1	-1E+10	1	-1E+10	1	-1E+10	1	-1E+10	1
4901784	136	C	03/26/2019	10:48	-133.079	42.928	0	930.80	0	3.5730	0	35.7880	8	28.465	0	921.355	0	10.3	4	3.3	4	-1E+10	1	-1E+10	1	-1E+10	1	-1E+10	1	-1E+10	1	-1E+10	1
4901784	136	C	03/26/2019	10:48	-133.079	42.928	0	935.70	0	3.5580	0	35.7910	8	28.469	0	926.194	0	10.3	4	3.3	4	-1E+10	1	-1E+10	1	-1E+10	1	-1E+10	1	-1E+10	1	-1E+10	1
4901784	136	C	03/26/2019	10:48	-133.079	42.928	0	940.60	0	3.5520	0	35.7920	8	28.470	0	931.033	0	10.3	4	3.2	4	-1E+10	1	-1E+10	1	-1E+10	1	-1E+10	1	-1E+10	1	-1E+10	1
4901784	136	C	03/26/2019	10:48	-133.079	42.928	0	945.50	0	3.5410	0	35.7970	8	28.476	0	935.873	0	10.2	4	3.2	4	-1E+10	1	-1E+10	1	-1E+10	1	-1E+10	1	-1E+10	1	-1E+10	1
4901784	136	C	03/26/2019	10:48	-133.079	42.928	0	950.50	0	3.5390	0	35.7980	8	28.477	0	940.810	0	10.2	4	3.2	4	-1E+10	1	-1E+10	1	-1E+10	1	-1E+10	1	-1E+10	1	-1E+10	1
4901784	136	C	03/26/2019	10:48	-133.079	42.928	0	955.40	0	3.5300	0	35.8030	8	28.482	0	945.649	0	10.2	4	3.2	4	-1E+10	1	-1E+10	1	-1E+10	1	-1E+10	1	-1E+10	1	-1E+10	1
4901784	136	C	03/26/2019	10:48	-133.079	42.928	0	960.40	0	3.5140	0	35.8070	8	28.486	0	950.587	0	10.2	4	3.2	4	-1E+10	1	-1E+10	1	-1E+10	1	-1E+10	1	-1E+10	1	-1E+10	1
4901784	136	C	03/26/2019	10:48	-133.079	42.928	0	965.50	0	3.5090	0	35.8090	8	28.489	0	955.623	0	10.2	4	3.2	4	-1E+10	1	-1E+10	1	-1E+10	1	-1E+10	1	-1E+10	1	-1E+10	1
4901784	136	C	03/26/2019	10:48	-133.079	42.928	0	970.60	0	3.5100	0	35.8130	8	28.492	0	960.659	0	10.3	4	3.3	4	-1E+10	1	-1E+10	1	-1E+10	1	-1E+10	1	-1E+10	1	-1E+10	1
4901784	136	C	03/26/2019	10:48	-133.079	42.928	0	974.90	0	3.5230	0	35.8190	8	28.495	0	964.905	0	10.4	4	3.3	4	-1E+10	1	-1E+10	1	-1E+10	1	-1E+10	1	-1E+10	1	-1E+10	1
4901784	136	C	03/26/2019	10:48	-133.079	42.928	0	979.30	0	3.5150	0	35.8210	8	28.498	0	969.250	0	10.5	4	3.3	4	-1E+10	1	-1E+10	1	-1E+10	1	-1E+10	1	-1E+10	1	-1E+10	1
4901784	136	C	03/26/2019	10:48	-133.079	42.928	0	984.60	0	3.5110	0	35.8250	8	28.501	0	974.483	0	10.5	4	3.3	4	-1E+10	1	-1E+10	1	-1E+10	1	-1E+10	1	-1E+10	1	-1E+10	1
4901784	136	C	03/26/2019	10:48	-133.079	42.928	0	989.80	0	3.4890	0	35.8290	8	28.507	0	979.618	0	10.5	4	3.3	4	-1E+10	1	-1E+10	1	-1E+10	1	-1E+10	1	-1E+10	1	-1E+10	1
4901784	136	C	03/26/2019	10:48	-133.079	42.928	0	995.20	0	3.4560	0	35.8300	8	28.511	0	984.950	0	10.4	4	3.3	4	-1E+10	1	-1E+10	1	-1E+10	1	-1E+10	1	-1E+10	1	-1E+10	1
4901784	136	C	03/26/2019	10:48	-133.079	42.928	0	1000.60	0	3.4370	0	35.8330	8	28.515	0	990.281	0	10.5	4	3.3	4	-1E+10	1	-1E+10	1	-1E+10	1	-1E+10	1	-1E+10	1	-1E+10	1
4901784	136	C	03/26/2019	10:48	-133.079	42.928	0	1005.00	0	3.4250	0	35.8350	8	28.518	0	994.625	0	10.5	4	3.3	4	-1E+10	1	-1E+10	1	-1E+10	1	-1E+10	1	-1E+10	1	-1E+10	1
4901784	136	C	03/26/2019	10:48	-133.079	42.928	0	1009.40	0	3.4120	0	35.8390	8	28.522	0	998.970	0	10.6	4	3.3	4	-1E+10	1	-1E+10	1	-1E+10	1	-1E+10	1	-1E+10	1	-1E+10	1
4901784	136	C	03/26/2019	10:48	-133.079	42.928	0	1014.70	0	3.4030	0	35.8440	8	28.527	0	1004.202	0	10.7	4	3.4	4	-1E+10	1	-1E+10	1	-1E+10	1	-1E+10	1	-1E+10	1	-1E+10	1
4901784	136	C	03/26/2019	10:48	-133.079	42.928	0	1020.10	0	3.3980	0	35.8480	8	28.531	0	1009.533	0	10.9	4	3.4	4	-1E+10	1	-1E+10	1	-1E+10	1	-1E+10	1	-1E+10	1	-1E+10	1
4901784	136	C	03/26/2019	10:48	-133.079	42.928	0	1025.50	0	3.3970	0	35.8520	8	28.534	0	1014.864	0	11.0	4	3.5	4	-1E+10	1	-1E+10	1	-1E+10	1	-1E+10	1	-1E+10	1	-1E+10	1
4901784	136	C	03/26/2019	10:48	-133.079	42.928	0	1030.00	0	3.3960	0	35.8560	8	28.538	0	1019.307	0	11.1	4	3.5	4	-1E+10	1	-1E+10	1	-1E+10	1	-1E+10	1	-1E+10	1	-1E+10	1
4901784	136	C	03/26/2019	10:48	-133.079	42.928	0	1035.00	0	3.3870	0	35.8580	8	28.540	0	1024.243	0	11.2	4	3.5	4	-1E+10	1	-1E+10	1	-1E+10	1	-1E+10	1	-1E+10	1	-1E+10	1
4901784	136	C	03/26/2019	10:48	-133.079	42.928	0	1040.10	0	3.3750	0	35.8600	8	28.543	0	1029.277	0	11.3	4	3.6	4	-1E+10	1	-1E+10	1	-1E+10	1	-1E+10	1	-1E+10	1	-1E+10	1
4901784	136	C	03/26/2019	10:48	-133.079	42.928	0	1044.80	0	3.3690	0	35.8630	8	28.546	0	1033.917	0	11.4	4	3.6	4	-1E+10	1	-1E+10	1	-1E+10	1	-1E+10	1	-1E+10	1	-1E+10	1
4901784	136	C	03/26/2019	10:48	-133.079	42.928	0	1049.60	0	3.3590	0	35.8660	8	28.549	0	1038.655	0	11.5	4	3.6	4	-1E+10	1	-1E+10	1	-1E+10	1	-1E+10	1	-1E+10	1	-1E+10	1
4901784	136	C	03/26/2019	10:48	-133.079	42.928	0	1054.40	0	3.3480	0	35.8690	8	28.553	0	1043.393	0	11.6	4	3.7	4	-1E+10	1	-1E+10	1	-1E+10	1	-1E+10	1	-1E+10	1	-1E+10	1
4901784	136	C	03/26/2019	10:48	-133.079	42.928	0	1059.20	0	3.3430	0	35.8710	8	28.555	0	1048.131	0	11.7	4	3.7	4	-1E+10	1	-1E+10	1	-1E+10	1	-1E+10	1	-1E+10	1	-1E+10	1
4901784	136	C	03/26/2019	10:48	-133.079	42.928	0	1064.90	0	3.3350	0	35.8730	8	28.558	0	1053.757	0	11.8	4	3.7	4	-1E+10	1	-1E+10	1	-1E+10	1	-1E+10	1	-1E+10	1	-1E+10	1
4901784	136	C	03/26/2019	10:48	-133.079	42.928	0	1070.70	0	3.3180	0	35.8760	8	28.562	0	1059.481	0	12.0	4	3.8	4	-1E+10	1	-1E+10	1	-1E+10	1	-1E+10	1	-1E+10	1	-1E+10	1
4901784	136	C	03/26/2019	10:48	-133.079	42.928	0	1075.70	0	3.3080	0	35.8790	8	28.565	0	1064.416	0	12.2	4	3.8	4	-1E+10	1	-1E+10	1	-1E+10	1	-1E+10	1	-1E+10	1	-1E+10	1
4901784	136	C	03/26/2019	10:48	-133.079	42.928	0	1080.70	0	3.2970	0	35.8830	8	28.569	0	1069.351	0	12.3	4	3.9	4	-1E+10	1	-1E+10	1	-1E+10	1	-1E+10	1	-1E+10	1	-1E+10	1
4901784	136	C	03/26/2019	10:48	-133.079	42.928	0	1084.90	0	3.2960	0	35.8840	8	28.570	0	1073.496	0	12.4	4	3.9	4	-1E+10	1	-1E+10	1	-1E+10	1	-1E+10	1	-1E+10	1	-1E+10	1
4901784	136	C	03/26/2019	10:48	-133.079	42.928	0	1089.20	0	3.2860	0	35.8860	8	28.573	0	1077.740	0	12.5	4	3.9	4	-1E+10	1	-1E+10	1	-1E+10	1	-1E+10	1	-1E+10	1	-1E+10	1
4901784	136	C	03/26/2019	10:48	-133.079	42.928	0	1094.20	0	3.2660	0	35.8890	8	28.577	0	1082.674	0	12.6	4	4.0	4	-1E+10	1	-1E+10	1	-1E+10	1	-1E+10	1	-1E+10	1	-1E+10	1
4901784	136	C	03/26/2019	10:48	-133.079	42.928	0	1099.50	0	3.2500	0	35.8920	8	28.581	0	1087.905	0	12.8	4	4.0	4	-1E+10	1	-1E+10	1	-1E+10	1	-1E+10	1	-1E+10	1	-1E+10	1
4901784	136	C	03/26/2019	10:48	-133.079	42.928	0	1104.70	0	3.2330	0	35.8940	8	28.585	0	1093.037	0	12.7	4	4.0	4	-1E+10	1	-1E+10	1	-1E+10	1	-1E+10	1	-1E+10	1	-1E+10	1
4901784	136	C	03/26/2019	10:48	-133.079	42.928	0	1110.00	0	3.2220	0	35.8940	8	28.586	0	1098.267	0	12.7	4	4.0	4	-1E+10	1	-1E+10	1	-1E+10	1	-1E+10	1	-1E+10	1	-1E+10	1
4901784	136	C	03/26/2019	10:48	-133.079	42.928	0	1115.20	0	3.2130	0	35.8950	8	28.587	0	1103.398	0	12.8	4	4.0	4	-1E+10	1	-1E+10	1	-1E+10	1	-1E+10	1	-1E+10	1	-1E+10	1
4901784	136	C	03/26/2019	10:48	-133.079	42.928	0	1120.50	0	3.2050	0	35.8980	8	28.591	0	1108.628	0	13.1	4	4.1	4	-1E+10	1	-1E+10	1	-1E+10	1	-1E+10	1	-1E+10	1	-1E+10	1
4901784	136	C	03/26/2019	10:48	-133.079	42.928	0	1124.90	0	3.2070	0	35.9010	8	28.593	0	1112.970	0	13.3	4	4.2	4	-1E+10	1	-1E+10	1	-1E+10	1	-1E+10	1	-1E+10	1	-1E+10	1
4901784	136	C	03/26/2019	10:48	-133.079	42.928	0	1129.40	0	3.1970	0	35.9040	8	28.596	0	1117.410	0	13.5	4	4.2	4	-1E+10	1	-1E+10	1	-1E+10	1	-1E+10	1	-1E+10	1	-1E+10	1
4901784	136	C	03/26/2019	10:48	-133.079	42.928	0	1134.80	0	3.1880	0	35.9060	8	28.599	0	1122.738	0	13.6	4	4.3	4	-1E+10	1	-1E+10	1	-1E+10	1	-1E+10	1	-1E+10	1	-1E+10	1
4901784	136	C	03/26/2019	10:48	-133.079	42.928	0	1140.10	0	3.1800	0	35.9070	8	28.600	0	1127.968	0	13.7	4	4.3	4	-1E+10	1	-1E+10	1	-1E+10	1	-1E+10	1	-1E+10	1	-1E+10	1
4901784	136	C	03/26/2019	10:48	-133.079	42.928	0	1145.60	0	3.1660	0	35.9090	8	28.603	0	1133.394	0	13.8	4	4.3	4	-1E+10	1	-1E+10	1	-1E+10	1	-1E+10	1	-1E+10	1	-1E+10	1
4901784	136	C	03/26/2019	10:48	-133.079	42.928	0	1150.10	0	3.1610	0	35.9100	8	28.605	0	1137.834	0	13.8	4	4.3	4	-1E+10	1	-1E+10	1	-1E+10	1	-1E+10	1	-1E+10	1	-1E+10	1
4901784	136	C	03/26/2019	10:48	-133.079	42.928	0	1154.60	0	3.1510	0	35.9120	8	28.607	0	1142.274	0	14.0	4	4.4	4	-1E+10	1	-1E+10	1	-1E+10	1	-1E+10	1	-1E+10	1	-1E+10	1
4901784	136	C	03/26/2019	10:48	-133.079	42.928	0	1160.20	0	3.1350	0	35.9150	8	28.611	0	1147.799	0	14.1	4	4.4	4	-1E+10	1	-1E+10	1	-1E+10	1	-1E+10	1	-1E+10	1	-1E+10	1
4901784	136	C	03/26/2019	10:48	-133.079	42.928	0	1164.80	0	3.1280	0	35.9160	8	28.613	0	1152.337	0	14.2	4	4.5	4	-1E+10	1	-1E+10	1	-1E+10	1	-1E+10	1	-1E+10	1	-1E+10	1
4901784	136	C	03/26/2019	10:48	-133.079	42.928	0	1169.40	0	3.1210	0	35.9170	8	28.614	0	1156.875	0	14.3	4	4.5	4	-1E+10	1	-1E+10	1	-1E+10	1	-1E+10	1	-1E+10	1	-1E+10	1
4901784	136	C	03/26/2019	10:48	-133.079	42.928	0	1175.00	0	3.1160	0	35.9180	8	28.615	0	1162.400	0	14.4	4	4.5	4	-1E+10	1	-1E+10	1	-1E+10	1	-1E+10	1	-1E+10	1	-1E+10	1
4901784	136	C	03/26/2019	10:48	-133.079	42.928	0	1179.70	0	3.1060	0	35.9200	8	28.618	0	1167.036	0	14.5	4	4.5	4	-1E+10	1	-1E+10	1	-1E+10	1	-1E+10	1	-1E+10	1	-1E+10	1
4901784	136	C	03/26/2019	10:48	-133.079	42.928	0	1184.40	0	3.0980	0	35.9220	8	28.620	0	1171.673	0	14.6	4	4.6	4	-1E+10	1	-1E+10	1	-1E+10	1	-1E+10	1	-1E+10	1	-1E+10	1
4901784	136	C	03/26/2019	10:48	-133.079	42.928	0	1190.10	0	3.0900	0	35.9230	8	28.622	0	1177.296	0	14.7	4	4.6	4	-1E+10	1	-1E+10	1	-1E+10	1	-1E+10	1	-1E+10	1	-1E+10	1
4901784	136	C	03/26/2019	10:48	-133.079	42.928	0	1194.80	0	3.0840	0	35.9250	8	28.624	0	1181.932	0	14.8	4	4.6	4	-1E+10	1	-1E+10	1	-1E+10	1	-1E+10	1	-1E+10	1	-1E+10	1
4901784	136	C	03/26/2019	10:48	-133.079	42.928	0	1199.50	0	3.0760	0	35.9260	8	28.626	0	1186.568	0	15.0	4	4.7	4	-1E+10	1	-1E+10	1	-1E+10	1	-1E+10	1	-1E+10	1	-1E+10	1
4901784	136	C	03/26/2019	10:48	-133.079	42.928	0	1205.20	0	3.0680	0	35.9280	8	28.628	0	1192.190	0	15.1	4	4.7	4	-1E+10	1	-1E+10	1	-1E+10	1	-1E+10	1	-1E+10	1	-1E+10	1
4901784	136	C	03/26/2019	10:48	-133.079	42.928	0	1210.00	0	3.0620	0	35.9290	8	28.630	0	1196.925	0	15.2	4	4.7	4	-1E+10	1	-1E+10	1	-1E+10	1	-1E+10	1	-1E+10	1	-1E+10	1
4901784	136	C	03/26/2019	10:48	-133.079	42.928	0	1214.80	0	3.0480	0	35.9310	8	28.633	0	1201.660	0	15.3	4	4.8	4	-1E+10	1	-1E+10	1	-1E+10	1	-1E+10	1	-1E+10	1	-1E+10	1
4901784	136	C	03/26/2019	10:48	-133.079	42.928	0	1220.50	0	3.0410	0	35.9320	8	28.634	0	1207.281	0	15.4	4	4.8	4	-1E+10	1	-1E+10	1	-1E+10	1	-1E+10	1	-1E+10	1	-1E+10	1
4901784	136	C	03/26/2019	10:48	-133.079	42.928	0	1225.30	0	3.0360	0	35.9330	8	28.635	0	1212.016	0	15.5	4	4.8	4	-1E+10	1	-1E+10	1	-1E+10	1	-1E+10	1	-1E+10	1	-1E+10	1
4901784	136	C	03/26/2019	10:48	-133.079	42.928	0	1230.10	0	3.0280	0	35.9340	8	28.637	0	1216.750	0	15.7	4	4.9	4	-1E+10	1	-1E+10	1	-1E+10	1	-1E+10	1	-1E+10	1	-1E+10	1
4901784	136	C	03/26/2019	10:48	-133.079	42.928	0	1235.00	0	3.0160	0	35.9370	8	28.641	0	1221.582	0	15.8	4	4.9	4	-1E+10	1	-1E+10	1	-1E+10	1	-1E+10	1	-1E+10	1	-1E+10	1
4901784	136	C	03/26/2019	10:48	-133.079	42.928	0	1239.70	0	3.0070	0	35.9380	8	28.642	0	1226.218	0	16.0	4	5.0	4	-1E+10	1	-1E+10	1	-1E+10	1	-1E+10	1	-1E+10	1	-1E+10	1
4901784	136	C	03/26/2019	10:48	-133.079	42.928	0	1245.50	0	2.9950	0	35.9410	8	28.646	0	1231.938	0	16.1	4	5.0	4	-1E+10	1	-1E+10	1	-1E+10	1	-1E+10	1	-1E+10	1	-1E+10	1
4901784	136	C	03/26/2019	10:48	-133.079	42.928	0	1250.40	0	2.9920	0	35.9410	8	28.646	0	1236.770	0	16.1	4	5.0	4	-1E+10	1	-1E+10	1	-1E+10	1	-1E+10	1	-1E+10	1	-1E+10	1
4901784	136	C	03/26/2019	10:48	-133.079	42.928	0	1255.00	0	2.9890	0	35.9410	8	28.646	0	1241.306	0	16.3	4	5.1	4	-1E+10	1	-1E+10	1	-1E+10	1	-1E+10	1	-1E+10	1	-1E+10	1
4901784	136	C	03/26/2019	10:48	-133.079	42.928	0	1259.90	0	2.9750	0	35.9440	8	28.650	0	1246.138	0	16.5	4	5.1	4	-1E+10	1	-1E+10	1	-1E+10	1	-1E+10	1	-1E+10	1	-1E+10	1
4901784	136	C	03/26/2019	10:48	-133.079	42.928	0	1264.80	0	2.9670	0	35.9450	8	28.652	0	1250.970	0	16.7	4	5.2	4	-1E+10	1	-1E+10	1	-1E+10	1	-1E+10	1	-1E+10	1	-1E+10	1
4901784	136	C	03/26/2019	10:48	-133.079	42.928	0	1269.70	0	2.9530	0	35.9480	8	28.655	0	1255.802	0	16.9	4	5.3	4	-1E+10	1	-1E+10	1	-1E+10	1	-1E+10	1	-1E+10	1	-1E+10	1
4901784	136	C	03/26/2019	10:48	-133.079	42.928	0	1274.60	0	2.9450	0	35.9490	8	28.657	0	1260.634	0	17.1	4	5.3	4	-1E+10	1	-1E+10	1	-1E+10	1	-1E+10	1	-1E+10	1	-1E+10	1
4901784	136	C	03/26/2019	10:48	-133.079	42.928	0	1279.50	0	2.9350	0	35.9510	8	28.660	0	1265.465	0	17.2	4	5.4	4	-1E+10	1	-1E+10	1	-1E+10	1	-1E+10	1	-1E+10	1	-1E+10	1
4901784	136	C	03/26/2019	10:48	-133.079	42.928	0	1284.50	0	2.9300	0	35.9520	8	28.661	0	1270.395	0	17.3	4	5.4	4	-1E+10	1	-1E+10	1	-1E+10	1	-1E+10	1	-1E+10	1	-1E+10	1
4901784	136	C	03/26/2019	10:48	-133.079	42.928	0	1289.40	0	2.9200	0	35.9540	8	28.663	0	1275.227	0	17.5	4	5.5	4	-1E+10	1	-1E+10	1	-1E+10	1	-1E+10	1	-1E+10	1	-1E+10	1
4901784	136	C	03/26/2019	10:48	-133.079	42.928	0	1294.40	0	2.9080	0	35.9560	8	28.666	0	1280.156	0	17.7	4	5.5	4	-1E+10	1	-1E+10	1	-1E+10	1	-1E+10	1	-1E+10	1	-1E+10	1
4901784	136	C	03/26/2019	10:48	-133.079	42.928	0	1299.40	0	2.8960	0	35.9580	8	28.669	0	1285.086	0	17.8	4	5.6	4	-1E+10	1	-1E+10	1	-1E+10	1	-1E+10	1	-1E+10	1	-1E+10	1
4901784	136	C	03/26/2019	10:48	-133.079	42.928	0	1304.50	0	2.8810	0	35.9600	8	28.672	0	1290.114	0	17.9	4	5.6	4	-1E+10	1	-1E+10	1	-1E+10	1	-1E+10	1	-1E+10	1	-1E+10	1
4901784	136	C	03/26/2019	10:48	-133.079	42.928	0	1309.50	0	2.8760	0	35.9610	8	28.673	0	1295.044	0	18.0	4	5.6	4	-1E+10	1	-1E+10	1	-1E+10	1	-1E+10	1	-1E+10	1	-1E+10	1
4901784	136	C	03/26/2019	10:48	-133.079	42.928	0	1314.60	0	2.8680	0	35.9620	8	28.675	0	1300.072	0	18.1	4	5.6	4	-1E+10	1	-1E+10	1	-1E+10	1	-1E+10	1	-1E+10	1	-1E+10	1
4901784	136	C	03/26/2019	10:48	-133.079	42.928	0	1319.80	0	2.8570	0	35.9640	8	28.677	0	1305.198	0	18.3	4	5.7	4	-1E+10	1	-1E+10	1	-1E+10	1	-1E+10	1	-1E+10	1	-1E+10	1
4901784	136	C	03/26/2019	10:48	-133.079	42.928	0	1324.90	0	2.8460	0	35.9660	8	28.680	0	1310.226	0	18.6	4	5.8	4	-1E+10	1	-1E+10	1	-1E+10	1	-1E+10	1	-1E+10	1	-1E+10	1
4901784	136	C	03/26/2019	10:48	-133.079	42.928	0	1329.90	0	2.8360	0	35.9680	8	28.683	0	1315.155	0	18.9	4	5.9	4	-1E+10	1	-1E+10	1	-1E+10	1	-1E+10	1	-1E+10	1	-1E+10	1
4901784	136	C	03/26/2019	10:48	-133.079	42.928	0	1335.00	0	2.8250	0	35.9690	8	28.685	0	1320.183	0	19.3	4	6.0	4	-1E+10	1	-1E+10	1	-1E+10	1	-1E+10	1	-1E+10	1	-1E+10	1
4901784	136	C	03/26/2019	10:48	-133.079	42.928	0	1340.10	0	2.8060	0	35.9730	8	28.689	0	1325.210	0	19.6	4	6.1	4	-1E+10	1	-1E+10	1	-1E+10	1	-1E+10	1	-1E+10	1	-1E+10	1
4901784	136	C	03/26/2019	10:48	-133.079	42.928	0	1345.30	0	2.7980	0	35.9750	8	28.692	0	1330.336	0	19.8	4	6.2	4	-1E+10	1	-1E+10	1	-1E+10	1	-1E+10	1	-1E+10	1	-1E+10	1
4901784	136	C	03/26/2019	10:48	-133.079	42.928	0	1350.20	0	2.7950	0	35.9750	8	28.692	0	1335.166	0	20.0	4	6.2	4	-1E+10	1	-1E+10	1	-1E+10	1	-1E+10	1	-1E+10	1	-1E+10	1
4901784	136	C	03/26/2019	10:48	-133.079	42.928	0	1354.90	0	2.7880	0	35.9770	8	28.694	0	1339.799	0	20.1	4	6.2	4	-1E+10	1	-1E+10	1	-1E+10	1	-1E+10	1	-1E+10	1	-1E+10	1
4901784	136	C	03/26/2019	10:48	-133.079	42.928	0	1360.00	0	2.7820	0	35.9770	8	28.695	0	1344.825	0	20.3	4	6.3	4	-1E+10	1	-1E+10	1	-1E+10	1	-1E+10	1	-1E+10	1	-1E+10	1
4901784	136	C	03/26/2019	10:48	-133.079	42.928	0	1364.50	0	2.7680	0	35.9800	8	28.699	0	1349.261	0	20.4	4	6.3	4	-1E+10	1	-1E+10	1	-1E+10	1	-1E+10	1	-1E+10	1	-1E+10	1
4901784	136	C	03/26/2019	10:48	-133.079	42.928	0	1369.40	0	2.7630	0	35.9810	8	28.700	0	1354.090	0	20.6	4	6.4	4	-1E+10	1	-1E+10	1	-1E+10	1	-1E+10	1	-1E+10	1	-1E+10	1
4901784	136	C	03/26/2019	10:48	-133.079	42.928	0	1374.40	0	2.7560	0	35.9820	8	28.701	0	1359.018	0	20.8	4	6.4	4	-1E+10	1	-1E+10	1	-1E+10	1	-1E+10	1	-1E+10	1	-1E+10	1
4901784	136	C	03/26/2019	10:48	-133.079	42.928	0	1379.30	0	2.7510	0	35.9830	8	28.703	0	1363.848	0	21.0	4	6.5	4	-1E+10	1	-1E+10	1	-1E+10	1	-1E+10	1	-1E+10	1	-1E+10	1
4901784	136	C	03/26/2019	10:48	-133.079	42.928	0	1384.30	0	2.7410	0	35.9850	8	28.705	0	1368.775	0	21.3	4	6.6	4	-1E+10	1	-1E+10	1	-1E+10	1	-1E+10	1	-1E+10	1	-1E+10	1
4901784	136	C	03/26/2019	10:48	-133.079	42.928	0	1389.30	0	2.7320	0	35.9870	8	28.708	0	1373.703	0	21.5	4	6.7	4	-1E+10	1	-1E+10	1	-1E+10	1	-1E+10	1	-1E+10	1	-1E+10	1
4901784	136	C	03/26/2019	10:48	-133.079	42.928	0	1394.30	0	2.7220	0	35.9880	8	28.709	0	1378.631	0	21.8	4	6.7	4	-1E+10	1	-1E+10	1	-1E+10	1	-1E+10	1	-1E+10	1	-1E+10	1
4901784	136	C	03/26/2019	10:48	-133.079	42.928	0	1399.40	0	2.7080	0	35.9910	8	28.713	0	1383.657	0	22.0	4	6.8	4	-1E+10	1	-1E+10	1	-1E+10	1	-1E+10	1	-1E+10	1	-1E+10	1
4901784	136	C	03/26/2019	10:48	-133.079	42.928	0	1404.50	0	2.7060	0	35.9910	8	28.713	0	1388.682	0	22.0	4	6.8	4	-1E+10	1	-1E+10	1	-1E+10	1	-1E+10	1	-1E+10	1	-1E+10	1
4901784	136	C	03/26/2019	10:48	-133.079	42.928	0	1409.70	0	2.7020	0	35.9920	8	28.715	0	1393.807	0	22.2	4	6.9	4	-1E+10	1	-1E+10	1	-1E+10	1	-1E+10	1	-1E+10	1	-1E+10	1
4901784	136	C	03/26/2019	10:48	-133.079	42.928	0	1414.90	0	2.6890	0	35.9940	8	28.717	0	1398.931	0	22.5	4	7.0	4	-1E+10	1	-1E+10	1	-1E+10	1	-1E+10	1	-1E+10	1	-1E+10	1
4901784	136	C	03/26/2019	10:48	-133.079	42.928	0	1420.10	0	2.6840	0	35.9950	8	28.719	0	1404.055	0	22.7	4	7.0	4	-1E+10	1	-1E+10	1	-1E+10	1	-1E+10	1	-1E+10	1	-1E+10	1
4901784	136	C	03/26/2019	10:48	-133.079	42.928	0	1425.40	0	2.6770	0	35.9960	8	28.720	0	1409.277	0	22.9	4	7.1	4	-1E+10	1	-1E+10	1	-1E+10	1	-1E+10	1	-1E+10	1	-1E+10	1
4901784	136	C	03/26/2019	10:48	-133.079	42.928	0	1429.80	0	2.6710	0	35.9970	8	28.722	0	1413.613	0	23.1	4	7.2	4	-1E+10	1	-1E+10	1	-1E+10	1	-1E+10	1	-1E+10	1	-1E+10	1
4901784	136	C	03/26/2019	10:48	-133.079	42.928	0	1434.40	0	2.6570	0	35.9990	8	28.724	0	1418.145	0	23.4	4	7.3	4	-1E+10	1	-1E+10	1	-1E+10	1	-1E+10	1	-1E+10	1	-1E+10	1
4901784	136	C	03/26/2019	10:48	-133.079	42.928	0	1439.80	0	2.6380	0	36.0020	8	28.729	0	1423.466	0	23.8	4	7.4	4	-1E+10	1	-1E+10	1	-1E+10	1	-1E+10	1	-1E+10	1	-1E+10	1
4901784	136	C	03/26/2019	10:48	-133.079	42.928	0	1445.20	0	2.6320	0	36.0030	8	28.730	0	1428.786	0	24.0	4	7.4	4	-1E+10	1	-1E+10	1	-1E+10	1	-1E+10	1	-1E+10	1	-1E+10	1
4901784	136	C	03/26/2019	10:48	-133.079	42.928	0	1450.70	0	2.6200	0	36.0060	8	28.733	0	1434.205	0	24.4	4	7.5	4	-1E+10	1	-1E+10	1	-1E+10	1	-1E+10	1	-1E+10	1	-1E+10	1
4901784	136	C	03/26/2019	10:48	-133.079	42.928	0	1455.20	0	2.6130	0	36.0060	8	28.734	0	1438.639	0	24.7	4	7.6	4	-1E+10	1	-1E+10	1	-1E+10	1	-1E+10	1	-1E+10	1	-1E+10	1
4901784	136	C	03/26/2019	10:48	-133.079	42.928	0	1459.80	0	2.6010	0	36.0090	8	28.738	0	1443.171	0	25.1	4	7.8	4	-1E+10	1	-1E+10	1	-1E+10	1	-1E+10	1	-1E+10	1	-1E+10	1
4901784	136	C	03/26/2019	10:48	-133.079	42.928	0	1465.40	0	2.5890	0	36.0110	8	28.740	0	1448.688	0	25.5	4	7.9	4	-1E+10	1	-1E+10	1	-1E+10	1	-1E+10	1	-1E+10	1	-1E+10	1
4901784	136	C	03/26/2019	10:48	-133.079	42.928	0	1470.00	0	2.5840	0	36.0120	8	28.742	0	1453.219	0	25.7	4	7.9	4	-1E+10	1	-1E+10	1	-1E+10	1	-1E+10	1	-1E+10	1	-1E+10	1
4901784	136	C	03/26/2019	10:48	-133.079	42.928	0	1474.60	0	2.5810	0	36.0120	8	28.742	0	1457.751	0	25.8	4	8.0	4	-1E+10	1	-1E+10	1	-1E+10	1	-1E+10	1	-1E+10	1	-1E+10	1
4901784	136	C	03/26/2019	10:48	-133.079	42.928	0	1480.20	0	2.5670	0	36.0140	8	28.745	0	1463.268	0	26.2	4	8.1	4	-1E+10	1	-1E+10	1	-1E+10	1	-1E+10	1	-1E+10	1	-1E+10	1
4901784	136	C	03/26/2019	10:48	-133.079	42.928	0	1484.70	0	2.5580	0	36.0160	8	28.747	0	1467.701	0	26.5	4	8.2	4	-1E+10	1	-1E+10	1	-1E+10	1	-1E+10	1	-1E+10	1	-1E+10	1
4901784	136	C	03/26/2019	10:48	-133.079	42.928	0	1489.30	0	2.5470	0	36.0180	8	28.750	0	1472.232	0	26.7	4	8.3	4	-1E+10	1	-1E+10	1	-1E+10	1	-1E+10	1	-1E+10	1	-1E+10	1
4901784	136	C	03/26/2019	10:48	-133.079	42.928	0	1494.50	0	2.5410	0	36.0180	8	28.750	0	1477.354	0	27.0	4	8.3	4	-1E+10	1	-1E+10	1	-1E+10	1	-1E+10	1	-1E+10	1	-1E+10	1
4901784	136	C	03/26/2019	10:48	-133.079	42.928	0	1499.70	0	2.5310	0	36.0200	8	28.753	0	1482.476	0	27.3	4	8.4	4	-1E+10	1	-1E+10	1	-1E+10	1	-1E+10	1	-1E+10	1	-1E+10	1
4901784	136	C	03/26/2019	10:48	-133.079	42.928	0	1504.90	0	2.5190	0	36.0220	8	28.756	0	1487.598	0	27.8	4	8.6	4	-1E+10	1	-1E+10	1	-1E+10	1	-1E+10	1	-1E+10	1	-1E+10	1
4901784	136	C	03/26/2019	10:48	-133.079	42.928	0	1510.10	0	2.5070	0	36.0250	8	28.759	0	1492.720	0	28.2	4	8.7	4	-1E+10	1	-1E+10	1	-1E+10	1	-1E+10	1	-1E+10	1	-1E+10	1
4901784	136	C	03/26/2019	10:48	-133.079	42.928	0	1515.30	0	2.4990	0	36.0260	8	28.761	0	1497.842	0	28.5	4	8.8	4	-1E+10	1	-1E+10	1	-1E+10	1	-1E+10	1	-1E+10	1	-1E+10	1
4901784	136	C	03/26/2019	10:48	-133.079	42.928	0	1520.50	0	2.4930	0	36.0270	8	28.762	0	1502.963	0	28.9	4	8.9	4	-1E+10	1	-1E+10	1	-1E+10	1	-1E+10	1	-1E+10	1	-1E+10	1
4901784	136	C	03/26/2019	10:48	-133.079	42.928	0	1524.90	0	2.4830	0	36.0290	8	28.764	0	1507.297	0	29.3	4	9.0	4	-1E+10	1	-1E+10	1	-1E+10	1	-1E+10	1	-1E+10	1	-1E+10	1
4901784	136	C	03/26/2019	10:48	-133.079	42.928	0	1529.30	0	2.4660	0	36.0320	8	28.768	0	1511.631	0	29.7	4	9.2	4	-1E+10	1	-1E+10	1	-1E+10	1	-1E+10	1	-1E+10	1	-1E+10	1
4901784	136	C	03/26/2019	10:48	-133.079	42.928	0	1534.60	0	2.4580	0	36.0330	8	28.770	0	1516.850	0	30.0	4	9.2	4	-1E+10	1	-1E+10	1	-1E+10	1	-1E+10	1	-1E+10	1	-1E+10	1
4901784	136	C	03/26/2019	10:48	-133.079	42.928	0	1540.00	0	2.4510	0	36.0350	8	28.772	0	1522.168	0	30.3	4	9.3	4	-1E+10	1	-1E+10	1	-1E+10	1	-1E+10	1	-1E+10	1	-1E+10	1
4901784	136	C	03/26/2019	10:48	-133.079	42.928	0	1545.30	0	2.4430	0	36.0360	8	28.774	0	1527.388	0	30.7	4	9.5	4	-1E+10	1	-1E+10	1	-1E+10	1	-1E+10	1	-1E+10	1	-1E+10	1
4901784	136	C	03/26/2019	10:48	-133.079	42.928	0	1550.70	0	2.4310	0	36.0370	8	28.775	0	1532.706	0	31.1	4	9.6	4	-1E+10	1	-1E+10	1	-1E+10	1	-1E+10	1	-1E+10	1	-1E+10	1
4901784	136	C	03/26/2019	10:48	-133.079	42.928	0	1555.20	0	2.4190	0	36.0400	8	28.779	0	1537.137	0	31.4	4	9.7	4	-1E+10	1	-1E+10	1	-1E+10	1	-1E+10	1	-1E+10	1	-1E+10	1
4901784	136	C	03/26/2019	10:48	-133.079	42.928	0	1559.70	0	2.4170	0	36.0400	8	28.779	0	1541.569	0	31.7	4	9.8	4	-1E+10	1	-1E+10	1	-1E+10	1	-1E+10	1	-1E+10	1	-1E+10	1
4901784	136	C	03/26/2019	10:48	-133.079	42.928	0	1565.20	0	2.4050	0	36.0420	8	28.782	0	1546.984	0	32.2	4	9.9	4	-1E+10	1	-1E+10	1	-1E+10	1	-1E+10	1	-1E+10	1	-1E+10	1
4901784	136	C	03/26/2019	10:48	-133.079	42.928	0	1570.70	0	2.3930	0	36.0440	8	28.785	0	1552.400	0	32.6	4	10.0	4	-1E+10	1	-1E+10	1	-1E+10	1	-1E+10	1	-1E+10	1	-1E+10	1
4901784	136	C	03/26/2019	10:48	-133.079	42.928	0	1575.20	0	2.3890	0	36.0450	8	28.786	0	1556.831	0	32.8	4	10.1	4	-1E+10	1	-1E+10	1	-1E+10	1	-1E+10	1	-1E+10	1	-1E+10	1
4901784	136	C	03/26/2019	10:48	-133.079	42.928	0	1580.40	0	2.3800	0	36.0460	8	28.787	0	1561.952	0	33.2	4	10.2	4	-1E+10	1	-1E+10	1	-1E+10	1	-1E+10	1	-1E+10	1	-1E+10	1
4901784	136	C	03/26/2019	10:48	-133.079	42.928	0	1585.40	0	2.3720	0	36.0480	8	28.790	0	1566.875	0	33.5	4	10.3	4	-1E+10	1	-1E+10	1	-1E+10	1	-1E+10	1	-1E+10	1	-1E+10	1
4901784	136	C	03/26/2019	10:48	-133.079	42.928	0	1590.30	0	2.3640	0	36.0490	8	28.791	0	1571.699	0	33.9	4	10.4	4	-1E+10	1	-1E+10	1	-1E+10	1	-1E+10	1	-1E+10	1	-1E+10	1
4901784	136	C	03/26/2019	10:48	-133.079	42.928	0	1595.20	0	2.3560	0	36.0500	8	28.793	0	1576.524	0	34.3	4	10.5	4	-1E+10	1	-1E+10	1	-1E+10	1	-1E+10	1	-1E+10	1	-1E+10	1
4901784	136	C	03/26/2019	10:48	-133.079	42.928	0	1600.00	0	2.3490	0	36.0510	8	28.794	0	1581.250	0	34.7	4	10.7	4	-1E+10	1	-1E+10	1	-1E+10	1	-1E+10	1	-1E+10	1	-1E+10	1
4901784	136	C	03/26/2019	10:48	-133.079	42.928	0	1604.90	0	2.3380	0	36.0530	8	28.797	0	1586.074	0	35.1	4	10.8	4	-1E+10	1	-1E+10	1	-1E+10	1	-1E+10	1	-1E+10	1	-1E+10	1
4901784	136	C	03/26/2019	10:48	-133.079	42.928	0	1609.80	0	2.3220	0	36.0550	8	28.800	0	1590.898	0	35.6	4	11.0	4	-1E+10	1	-1E+10	1	-1E+10	1	-1E+10	1	-1E+10	1	-1E+10	1
4901784	136	C	03/26/2019	10:48	-133.079	42.928	0	1614.60	0	2.3140	0	36.0570	8	28.802	0	1595.624	0	35.9	4	11.0	4	-1E+10	1	-1E+10	1	-1E+10	1	-1E+10	1	-1E+10	1	-1E+10	1
4901784	136	C	03/26/2019	10:48	-133.079	42.928	0	1619.50	0	2.3060	0	36.0580	8	28.804	0	1600.447	0	36.2	4	11.1	4	-1E+10	1	-1E+10	1	-1E+10	1	-1E+10	1	-1E+10	1	-1E+10	1
4901784	136	C	03/26/2019	10:48	-133.079	42.928	0	1624.40	0	2.3030	0	36.0590	8	28.805	0	1605.271	0	36.5	4	11.2	4	-1E+10	1	-1E+10	1	-1E+10	1	-1E+10	1	-1E+10	1	-1E+10	1
4901784	136	C	03/26/2019	10:48	-133.079	42.928	0	1629.40	0	2.2930	0	36.0610	8	28.807	0	1610.193	0	36.8	4	11.3	4	-1E+10	1	-1E+10	1	-1E+10	1	-1E+10	1	-1E+10	1	-1E+10	1
4901784	136	C	03/26/2019	10:48	-133.079	42.928	0	1634.40	0	2.2890	0	36.0620	8	28.808	0	1615.115	0	37.0	4	11.4	4	-1E+10	1	-1E+10	1	-1E+10	1	-1E+10	1	-1E+10	1	-1E+10	1
4901784	136	C	03/26/2019	10:48	-133.079	42.928	0	1639.50	0	2.2860	0	36.0620	8	28.809	0	1620.136	0	37.3	4	11.4	4	-1E+10	1	-1E+10	1	-1E+10	1	-1E+10	1	-1E+10	1	-1E+10	1
4901784	136	C	03/26/2019	10:48	-133.079	42.928	0	1644.50	0	2.2790	0	36.0640	8	28.811	0	1625.057	0	37.5	4	11.5	4	-1E+10	1	-1E+10	1	-1E+10	1	-1E+10	1	-1E+10	1	-1E+10	1
4901784	136	C	03/26/2019	10:48	-133.079	42.928	0	1649.60	0	2.2740	0	36.0650	8	28.812	0	1630.078	0	37.8	4	11.6	4	-1E+10	1	-1E+10	1	-1E+10	1	-1E+10	1	-1E+10	1	-1E+10	1
4901784	136	C	03/26/2019	10:48	-133.079	42.928	0	1654.70	0	2.2700	0	36.0660	8	28.813	0	1635.097	0	38.1	4	11.7	4	-1E+10	1	-1E+10	1	-1E+10	1	-1E+10	1	-1E+10	1	-1E+10	1
4901784	136	C	03/26/2019	10:48	-133.079	42.928	0	1659.70	0	2.2620	0	36.0670	8	28.815	0	1640.019	0	38.5	4	11.8	4	-1E+10	1	-1E+10	1	-1E+10	1	-1E+10	1	-1E+10	1	-1E+10	1
4901784	136	C	03/26/2019	10:48	-133.079	42.928	0	1664.80	0	2.2540	0	36.0680	8	28.816	0	1645.039	0	38.8	4	11.9	4	-1E+10	1	-1E+10	1	-1E+10	1	-1E+10	1	-1E+10	1	-1E+10	1
4901784	136	C	03/26/2019	10:48	-133.079	42.928	0	1670.00	0	2.2490	0	36.0690	8	28.817	0	1650.157	0	39.1	4	12.0	4	-1E+10	1	-1E+10	1	-1E+10	1	-1E+10	1	-1E+10	1	-1E+10	1
4901784	136	C	03/26/2019	10:48	-133.079	42.928	0	1675.10	0	2.2430	0	36.0700	8	28.819	0	1655.176	0	39.4	4	12.1	4	-1E+10	1	-1E+10	1	-1E+10	1	-1E+10	1	-1E+10	1	-1E+10	1
4901784	136	C	03/26/2019	10:48	-133.079	42.928	0	1680.30	0	2.2390	0	36.0710	8	28.820	0	1660.294	0	39.6	4	12.2	4	-1E+10	1	-1E+10	1	-1E+10	1	-1E+10	1	-1E+10	1	-1E+10	1
4901784	136	C	03/26/2019	10:48	-133.079	42.928	0	1685.60	0	2.2360	0	36.0720	8	28.821	0	1665.510	0	39.9	4	12.2	4	-1E+10	1	-1E+10	1	-1E+10	1	-1E+10	1	-1E+10	1	-1E+10	1
4901784	136	C	03/26/2019	10:48	-133.079	42.928	0	1690.00	0	2.2330	0	36.0720	8	28.821	0	1669.840	0	40.1	4	12.3	4	-1E+10	1	-1E+10	1	-1E+10	1	-1E+10	1	-1E+10	1	-1E+10	1
4901784	136	C	03/26/2019	10:48	-133.079	42.928	0	1694.40	0	2.2260	0	36.0730	8	28.823	0	1674.171	0	40.5	4	12.4	4	-1E+10	1	-1E+10	1	-1E+10	1	-1E+10	1	-1E+10	1	-1E+10	1
4901784	136	C	03/26/2019	10:48	-133.079	42.928	0	1699.70	0	2.2190	0	36.0750	8	28.825	0	1679.386	0	40.8	4	12.5	4	-1E+10	1	-1E+10	1	-1E+10	1	-1E+10	1	-1E+10	1	-1E+10	1
4901784	136	C	03/26/2019	10:48	-133.079	42.928	0	1705.00	0	2.2120	0	36.0760	8	28.826	0	1684.602	0	41.2	4	12.6	4	-1E+10	1	-1E+10	1	-1E+10	1	-1E+10	1	-1E+10	1	-1E+10	1
4901784	136	C	03/26/2019	10:48	-133.079	42.928	0	1710.30	0	2.2050	0	36.0780	8	28.829	0	1689.817	0	41.6	4	12.7	4	-1E+10	1	-1E+10	1	-1E+10	1	-1E+10	1	-1E+10	1	-1E+10	1
4901784	136	C	03/26/2019	10:48	-133.079	42.928	0	1715.70	0	2.2000	0	36.0780	8	28.829	0	1695.131	0	42.0	4	12.9	4	-1E+10	1	-1E+10	1	-1E+10	1	-1E+10	1	-1E+10	1	-1E+10	1
4901784	136	C	03/26/2019	10:48	-133.079	42.928	0	1720.20	0	2.1920	0	36.0800	8	28.831	0	1699.559	0	42.3	4	13.0	4	-1E+10	1	-1E+10	1	-1E+10	1	-1E+10	1	-1E+10	1	-1E+10	1
4901784	136	C	03/26/2019	10:48	-133.079	42.928	0	1724.70	0	2.1850	0	36.0810	8	28.833	0	1703.987	0	42.6	4	13.1	4	-1E+10	1	-1E+10	1	-1E+10	1	-1E+10	1	-1E+10	1	-1E+10	1
4901784	136	C	03/26/2019	10:48	-133.079	42.928	0	1730.20	0	2.1800	0	36.0820	8	28.834	0	1709.399	0	42.9	4	13.1	4	-1E+10	1	-1E+10	1	-1E+10	1	-1E+10	1	-1E+10	1	-1E+10	1
4901784	136	C	03/26/2019	10:48	-133.079	42.928	0	1735.20	0	2.1760	0	36.0830	8	28.835	0	1714.319	0	43.1	4	13.2	4	-1E+10	1	-1E+10	1	-1E+10	1	-1E+10	1	-1E+10	1	-1E+10	1
4901784	136	C	03/26/2019	10:48	-133.079	42.928	0	1739.40	0	2.1710	0	36.0840	8	28.837	0	1718.451	0	43.4	4	13.3	4	-1E+10	1	-1E+10	1	-1E+10	1	-1E+10	1	-1E+10	1	-1E+10	1
4901784	136	C	03/26/2019	10:48	-133.079	42.928	0	1745.00	0	2.1650	0	36.0850	8	28.838	0	1723.961	0	43.8	4	13.4	4	-1E+10	1	-1E+10	1	-1E+10	1	-1E+10	1	-1E+10	1	-1E+10	1
4901784	136	C	03/26/2019	10:48	-133.079	42.928	0	1750.60	0	2.1570	0	36.0870	8	28.840	0	1729.471	0	44.2	4	13.5	4	-1E+10	1	-1E+10	1	-1E+10	1	-1E+10	1	-1E+10	1	-1E+10	1
4901784	136	C	03/26/2019	10:48	-133.079	42.928	0	1755.40	0	2.1520	0	36.0880	8	28.841	0	1734.193	0	44.4	4	13.6	4	-1E+10	1	-1E+10	1	-1E+10	1	-1E+10	1	-1E+10	1	-1E+10	1
4901784	136	C	03/26/2019	10:48	-133.079	42.928	0	1760.30	0	2.1490	0	36.0890	8	28.842	0	1739.014	0	44.6	4	13.7	4	-1E+10	1	-1E+10	1	-1E+10	1	-1E+10	1	-1E+10	1	-1E+10	1
4901784	136	C	03/26/2019	10:48	-133.079	42.928	0	1765.30	0	2.1450	0	36.0900	8	28.844	0	1743.933	0	44.9	4	13.8	4	-1E+10	1	-1E+10	1	-1E+10	1	-1E+10	1	-1E+10	1	-1E+10	1
4901784	136	C	03/26/2019	10:48	-133.079	42.928	0	1770.30	0	2.1400	0	36.0910	8	28.845	0	1748.852	0	45.3	4	13.9	4	-1E+10	1	-1E+10	1	-1E+10	1	-1E+10	1	-1E+10	1	-1E+10	1
4901784	136	C	03/26/2019	10:48	-133.079	42.928	0	1775.40	0	2.1320	0	36.0930	8	28.847	0	1753.869	0	45.7	4	14.0	4	-1E+10	1	-1E+10	1	-1E+10	1	-1E+10	1	-1E+10	1	-1E+10	1
4901784	136	C	03/26/2019	10:48	-133.079	42.928	0	1780.50	0	2.1270	0	36.0930	8	28.848	0	1758.886	0	46.0	4	14.1	4	-1E+10	1	-1E+10	1	-1E+10	1	-1E+10	1	-1E+10	1	-1E+10	1
4901784	136	C	03/26/2019	10:48	-133.079	42.928	0	1785.60	0	2.1200	0	36.0940	8	28.849	0	1763.903	0	46.5	4	14.2	4	-1E+10	1	-1E+10	1	-1E+10	1	-1E+10	1	-1E+10	1	-1E+10	1
4901784	136	C	03/26/2019	10:48	-133.079	42.928	0	1790.70	0	2.1100	0	36.0960	8	28.852	0	1768.920	0	47.0	4	14.4	4	-1E+10	1	-1E+10	1	-1E+10	1	-1E+10	1	-1E+10	1	-1E+10	1
4901784	136	C	03/26/2019	10:48	-133.079	42.928	0	1795.00	0	2.1030	0	36.0970	8	28.853	0	1773.149	0	47.4	4	14.5	4	-1E+10	1	-1E+10	1	-1E+10	1	-1E+10	1	-1E+10	1	-1E+10	1
4901784	136	C	03/26/2019	10:48	-133.079	42.928	0	1799.30	0	2.0970	0	36.0980	8	28.854	0	1777.379	0	47.7	4	14.6	4	-1E+10	1	-1E+10	1	-1E+10	1	-1E+10	1	-1E+10	1	-1E+10	1
4901784	136	C	03/26/2019	10:48	-133.079	42.928	0	1804.60	0	2.0890	0	36.1000	8	28.857	0	1782.592	0	48.0	4	14.7	4	-1E+10	1	-1E+10	1	-1E+10	1	-1E+10	1	-1E+10	1	-1E+10	1
4901784	136	C	03/26/2019	10:48	-133.079	42.928	0	1809.80	0	2.0850	0	36.1010	8	28.858	0	1787.707	0	48.2	4	14.7	4	-1E+10	1	-1E+10	1	-1E+10	1	-1E+10	1	-1E+10	1	-1E+10	1
4901784	136	C	03/26/2019	10:48	-133.079	42.928	0	1815.20	0	2.0810	0	36.1020	8	28.859	0	1793.018	0	48.5	4	14.8	4	-1E+10	1	-1E+10	1	-1E+10	1	-1E+10	1	-1E+10	1	-1E+10	1
4901784	136	C	03/26/2019	10:48	-133.079	42.928	0	1820.60	0	2.0780	0	36.1020	8	28.859	0	1798.329	0	48.7	4	14.9	4	-1E+10	1	-1E+10	1	-1E+10	1	-1E+10	1	-1E+10	1	-1E+10	1
4901784	136	C	03/26/2019	10:48	-133.079	42.928	0	1825.00	0	2.0740	0	36.1030	8	28.860	0	1802.657	0	49.0	4	15.0	4	-1E+10	1	-1E+10	1	-1E+10	1	-1E+10	1	-1E+10	1	-1E+10	1
4901784	136	C	03/26/2019	10:48	-133.079	42.928	0	1829.50	0	2.0700	0	36.1040	8	28.861	0	1807.083	0	49.3	4	15.1	4	-1E+10	1	-1E+10	1	-1E+10	1	-1E+10	1	-1E+10	1	-1E+10	1
4901784	136	C	03/26/2019	10:48	-133.079	42.928	0	1835.00	0	2.0640	0	36.1050	8	28.863	0	1812.492	0	49.7	4	15.2	4	-1E+10	1	-1E+10	1	-1E+10	1	-1E+10	1	-1E+10	1	-1E+10	1
4901784	136	C	03/26/2019	10:48	-133.079	42.928	0	1840.30	0	2.0580	0	36.1060	8	28.864	0	1817.704	0	50.1	4	15.3	4	-1E+10	1	-1E+10	1	-1E+10	1	-1E+10	1	-1E+10	1	-1E+10	1
4901784	136	C	03/26/2019	10:48	-133.079	42.928	0	1845.60	0	2.0520	0	36.1080	8	28.866	0	1822.916	0	50.4	4	15.4	4	-1E+10	1	-1E+10	1	-1E+10	1	-1E+10	1	-1E+10	1	-1E+10	1
4901784	136	C	03/26/2019	10:48	-133.079	42.928	0	1850.40	0	2.0500	0	36.1090	8	28.867	0	1827.637	0	50.6	4	15.4	4	-1E+10	1	-1E+10	1	-1E+10	1	-1E+10	1	-1E+10	1	-1E+10	1
4901784	136	C	03/26/2019	10:48	-133.079	42.928	0	1855.30	0	2.0480	0	36.1090	8	28.867	0	1832.456	0	50.8	4	15.5	4	-1E+10	1	-1E+10	1	-1E+10	1	-1E+10	1	-1E+10	1	-1E+10	1
4901784	136	C	03/26/2019	10:48	-133.079	42.928	0	1860.20	0	2.0430	0	36.1110	8	28.870	0	1837.274	0	51.0	4	15.6	4	-1E+10	1	-1E+10	1	-1E+10	1	-1E+10	1	-1E+10	1	-1E+10	1
4901784	136	C	03/26/2019	10:48	-133.079	42.928	0	1865.10	0	2.0420	0	36.1110	8	28.870	0	1842.092	0	51.2	4	15.6	4	-1E+10	1	-1E+10	1	-1E+10	1	-1E+10	1	-1E+10	1	-1E+10	1
4901784	136	C	03/26/2019	10:48	-133.079	42.928	0	1870.20	0	2.0410	0	36.1120	8	28.871	0	1847.107	0	51.3	4	15.7	4	-1E+10	1	-1E+10	1	-1E+10	1	-1E+10	1	-1E+10	1	-1E+10	1
4901784	136	C	03/26/2019	10:48	-133.079	42.928	0	1875.20	0	2.0390	0	36.1120	8	28.871	0	1852.024	0	51.5	4	15.7	4	-1E+10	1	-1E+10	1	-1E+10	1	-1E+10	1	-1E+10	1	-1E+10	1
4901784	136	C	03/26/2019	10:48	-133.079	42.928	0	1880.30	0	2.0350	0	36.1130	8	28.872	0	1857.039	0	51.8	4	15.8	4	-1E+10	1	-1E+10	1	-1E+10	1	-1E+10	1	-1E+10	1	-1E+10	1
4901784	136	C	03/26/2019	10:48	-133.079	42.928	0	1885.40	0	2.0300	0	36.1140	8	28.873	0	1862.053	0	52.1	4	15.9	4	-1E+10	1	-1E+10	1	-1E+10	1	-1E+10	1	-1E+10	1	-1E+10	1
4901784	136	C	03/26/2019	10:48	-133.079	42.928	0	1890.60	0	2.0270	0	36.1150	8	28.874	0	1867.166	0	52.3	4	16.0	4	-1E+10	1	-1E+10	1	-1E+10	1	-1E+10	1	-1E+10	1	-1E+10	1
4901784	136	C	03/26/2019	10:48	-133.079	42.928	0	1895.00	0	2.0250	0	36.1160	8	28.875	0	1871.492	0	52.5	4	16.0	4	-1E+10	1	-1E+10	1	-1E+10	1	-1E+10	1	-1E+10	1	-1E+10	1
4901784	136	C	03/26/2019	10:48	-133.079	42.928	0	1899.30	0	2.0220	0	36.1160	8	28.876	0	1875.720	0	52.8	4	16.1	4	-1E+10	1	-1E+10	1	-1E+10	1	-1E+10	1	-1E+10	1	-1E+10	1
4901784	136	C	03/26/2019	10:48	-133.079	42.928	0	1904.60	0	2.0180	0	36.1180	8	28.877	0	1880.931	0	53.0	4	16.2	4	-1E+10	1	-1E+10	1	-1E+10	1	-1E+10	1	-1E+10	1	-1E+10	1
4901784	136	C	03/26/2019	10:48	-133.079	42.928	0	1909.90	0	2.0170	0	36.1180	8	28.878	0	1886.141	0	53.2	4	16.2	4	-1E+10	1	-1E+10	1	-1E+10	1	-1E+10	1	-1E+10	1	-1E+10	1
4901784	136	C	03/26/2019	10:48	-133.079	42.928	0	1915.20	0	2.0130	0	36.1190	8	28.879	0	1891.352	0	53.5	4	16.3	4	-1E+10	1	-1E+10	1	-1E+10	1	-1E+10	1	-1E+10	1	-1E+10	1
4901784	136	C	03/26/2019	10:48	-133.079	42.928	0	1920.60	0	2.0090	0	36.1200	8	28.880	0	1896.660	0	53.9	4	16.4	4	-1E+10	1	-1E+10	1	-1E+10	1	-1E+10	1	-1E+10	1	-1E+10	1
4901784	136	C	03/26/2019	10:48	-133.079	42.928	0	1925.00	0	2.0030	0	36.1210	8	28.881	0	1900.986	0	54.1	4	16.5	4	-1E+10	1	-1E+10	1	-1E+10	1	-1E+10	1	-1E+10	1	-1E+10	1
4901784	136	C	03/26/2019	10:48	-133.079	42.928	0	1929.40	0	2.0010	0	36.1220	8	28.882	0	1905.311	0	54.4	4	16.6	4	-1E+10	1	-1E+10	1	-1E+10	1	-1E+10	1	-1E+10	1	-1E+10	1
4901784	136	C	03/26/2019	10:48	-133.079	42.928	0	1934.80	0	1.9960	0	36.1230	8	28.883	0	1910.620	0	54.7	4	16.7	4	-1E+10	1	-1E+10	1	-1E+10	1	-1E+10	1	-1E+10	1	-1E+10	1
4901784	136	C	03/26/2019	10:48	-133.079	42.928	0	1940.20	0	1.9930	0	36.1240	8	28.885	0	1915.928	0	54.9	4	16.7	4	-1E+10	1	-1E+10	1	-1E+10	1	-1E+10	1	-1E+10	1	-1E+10	1
4901784	136	C	03/26/2019	10:48	-133.079	42.928	0	1945.50	0	1.9910	0	36.1240	8	28.885	0	1921.138	0	55.1	4	16.8	4	-1E+10	1	-1E+10	1	-1E+10	1	-1E+10	1	-1E+10	1	-1E+10	1
4901784	136	C	03/26/2019	10:48	-133.079	42.928	0	1950.10	0	1.9880	0	36.1250	8	28.886	0	1925.659	0	55.4	4	16.9	4	-1E+10	1	-1E+10	1	-1E+10	1	-1E+10	1	-1E+10	1	-1E+10	1
4901784	136	C	03/26/2019	10:48	-133.079	42.928	0	1954.60	0	1.9850	0	36.1260	8	28.887	0	1930.083	0	55.6	4	16.9	4	-1E+10	1	-1E+10	1	-1E+10	1	-1E+10	1	-1E+10	1	-1E+10	1
4901784	136	C	03/26/2019	10:48	-133.079	42.928	0	1960.00	0	1.9810	0	36.1270	8	28.888	0	1935.390	0	55.9	4	17.0	4	-1E+10	1	-1E+10	1	-1E+10	1	-1E+10	1	-1E+10	1	-1E+10	1
4901784	136	C	03/26/2019	10:48	-133.079	42.928	0	1965.50	0	1.9770	0	36.1280	8	28.889	0	1940.796	0	56.1	4	17.1	4	-1E+10	1	-1E+10	1	-1E+10	1	-1E+10	1	-1E+10	1	-1E+10	1
4901784	136	C	03/26/2019	10:48	-133.079	42.928	0	1970.00	0	1.9770	0	36.1280	8	28.889	0	1945.219	0	56.2	4	17.1	4	-1E+10	1	-1E+10	1	-1E+10	1	-1E+10	1	-1E+10	1	-1E+10	1
4901784	136	C	03/26/2019	10:48	-133.079	42.928	0	1974.50	0	1.9730	0	36.1280	8	28.890	0	1949.642	0	56.5	4	17.2	4	-1E+10	1	-1E+10	1	-1E+10	1	-1E+10	1	-1E+10	1	-1E+10	1
4901784	136	C	03/26/2019	10:48	-133.079	42.928	0	1979.90	0	1.9640	0	36.1300	8	28.892	0	1954.949	0	57.0	4	17.4	4	-1E+10	1	-1E+10	1	-1E+10	1	-1E+10	1	-1E+10	1	-1E+10	1
4901784	136	C	03/26/2019	10:48	-133.079	42.928	0	1985.00	0	1.9570	0	36.1310	8	28.893	0	1959.962	0	57.2	4	17.4	4	-1E+10	1	-1E+10	1	-1E+10	1	-1E+10	1	-1E+10	1	-1E+10	1
4901784	136	C	03/26/2019	10:48	-133.079	42.928	0	1990.00	0	1.9550	0	36.1310	8	28.894	0	1964.876	0	57.5	4	17.5	4	-1E+10	1	-1E+10	1	-1E+10	1	-1E+10	1	-1E+10	1	-1E+10	1
4901784	136	C	03/26/2019	10:48	-133.079	42.928	0	1995.70	0	1.9490	0	36.1320	8	28.895	0	1970.477	0	57.9	4	17.6	4	-1E+10	1	-1E+10	1	-1E+10	1	-1E+10	1	-1E+10	1	-1E+10	1
4901784	136	C	03/26/2019	10:48	-133.079	42.928	0	2000.50	0	1.9450	0	36.1330	8	28.896	0	1975.194	0	58.1	4	17.7	4	-1E+10	1	-1E+10	1	-1E+10	1	-1E+10	1	-1E+10	1	-1E+10	1
4901784	136	C	03/26/2019	10:48	-133.079	42.928	0	2005.50	0	1.9410	0	36.1340	8	28.897	0	1980.108	0	58.4	4	17.8	4	-1E+10	1	-1E+10	1	-1E+10	1	-1E+10	1	-1E+10	1	-1E+10	1
4901784	136	C	03/26/2019	10:48	-133.079	42.928	0	2010.30	0	1.9370	0	36.1350	8	28.898	0	1984.825	0	58.6	4	17.9	4	-1E+10	1	-1E+10	1	-1E+10	1	-1E+10	1	-1E+10	1	-1E+10	1
4901784	136	C	03/26/2019	10:48	-133.079	42.928	0	2015.30	0	1.9360	0	36.1360	8	28.899	0	1989.738	0	58.6	4	17.9	4	-1E+10	1	-1E+10	1	-1E+10	1	-1E+10	1	-1E+10	1	-1E+10	1
4901784	136	C	03/26/2019	10:48	-133.079	42.928	0	2018.40	0	1.9360	0	36.1360	8	28.899	0	1992.784	0	55.9	4	17.0	4	-1E+10	1	-1E+10	1	-1E+10	1	-1E+10	1	-1E+10	1	-1E+10	1
4901784	136	C	03/26/2019	10:48	-133.079	42.928	0																										
4901784	137	C	04/05/2019	10:49	-132.878	42.927	0	3.00	0	11.0860	0	33.8600	8	25.873	0	2.976	0	264.0	4	97.6	4	-1E+10	1	-1E+10	1	-1E+10	1	-1E+10	1	-1E+10	1	-1E+10	1
4901784	137	C	04/05/2019	10:49	-132.878	42.927	0	4.30	0	11.0980	0	33.8600	8	25.871	0	4.266	0	264.0	4	97.6	4	-1E+10	1	-1E+10	1	-1E+10	1	-1E+10	1	-1E+10	1	-1E+10	1
4901784	137	C	04/05/2019	10:49	-132.878	42.927	0	5.70	0	11.0990	0	33.8600	8	25.871	0	5.655	0	264.1	4	97.7	4	-1E+10	1	-1E+10	1	-1E+10	1	-1E+10	1	-1E+10	1	-1E+10	1
4901784	137	C	04/05/2019	10:49	-132.878	42.927	0	7.40	0	11.0960	0	33.8600	8	25.871	0	7.341	0	263.9	4	97.6	4	-1E+10	1	-1E+10	1	-1E+10	1	-1E+10	1	-1E+10	1	-1E+10	1
4901784	137	C	04/05/2019	10:49	-132.878	42.927	0	9.20	0	11.0940	0	33.8610	8	25.872	0	9.127	0	264.0	4	97.6	4	-1E+10	1	-1E+10	1	-1E+10	1	-1E+10	1	-1E+10	1	-1E+10	1
4901784	137	C	04/05/2019	10:49	-132.878	42.927	0	11.00	0	11.0900	0	33.8610	8	25.873	0	10.913	0	263.9	4	97.5	4	-1E+10	1	-1E+10	1	-1E+10	1	-1E+10	1	-1E+10	1	-1E+10	1
4901784	137	C	04/05/2019	10:49	-132.878	42.927	0	13.00	0	11.0910	0	33.8610	8	25.873	0	12.897	0	263.9	4	97.6	4	-1E+10	1	-1E+10	1	-1E+10	1	-1E+10	1	-1E+10	1	-1E+10	1
4901784	137	C	04/05/2019	10:49	-132.878	42.927	0	14.90	0	11.0960	0	33.8620	8	25.873	0	14.781	0	264.0	4	97.6	4	-1E+10	1	-1E+10	1	-1E+10	1	-1E+10	1	-1E+10	1	-1E+10	1
4901784	137	C	04/05/2019	10:49	-132.878	42.927	0	16.90	0	11.0940	0	33.8620	8	25.873	0	16.765	0	264.0	4	97.6	4	-1E+10	1	-1E+10	1	-1E+10	1	-1E+10	1	-1E+10	1	-1E+10	1
4901784	137	C	04/05/2019	10:49	-132.878	42.927	0	19.10	0	11.0950	0	33.8630	8	25.874	0	18.948	0	263.8	4	97.5	4	-1E+10	1	-1E+10	1	-1E+10	1	-1E+10	1	-1E+10	1	-1E+10	1
4901784	137	C	04/05/2019	10:49	-132.878	42.927	0	21.20	0	11.0950	0	33.8630	8	25.874	0	21.031	0	263.6	4	97.5	4	-1E+10	1	-1E+10	1	-1E+10	1	-1E+10	1	-1E+10	1	-1E+10	1
4901784	137	C	04/05/2019	10:49	-132.878	42.927	0	23.30	0	11.0900	0	33.8610	8	25.873	0	23.114	0	264.0	4	97.6	4	-1E+10	1	-1E+10	1	-1E+10	1	-1E+10	1	-1E+10	1	-1E+10	1
4901784	137	C	04/05/2019	10:49	-132.878	42.927	0	25.40	0	11.0920	0	33.8640	8	25.875	0	25.197	0	263.7	4	97.5	4	-1E+10	1	-1E+10	1	-1E+10	1	-1E+10	1	-1E+10	1	-1E+10	1
4901784	137	C	04/05/2019	10:49	-132.878	42.927	0	27.20	0	11.0940	0	33.8630	8	25.874	0	26.983	0	263.7	4	97.5	4	-1E+10	1	-1E+10	1	-1E+10	1	-1E+10	1	-1E+10	1	-1E+10	1
4901784	137	C	04/05/2019	10:49	-132.878	42.927	0	29.20	0	11.0870	0	33.8640	8	25.876	0	28.966	0	263.8	4	97.5	4	-1E+10	1	-1E+10	1	-1E+10	1	-1E+10	1	-1E+10	1	-1E+10	1
4901784	137	C	04/05/2019	10:49	-132.878	42.927	0	31.10	0	11.0900	0	33.8630	8	25.875	0	30.851	0	263.7	4	97.5	4	-1E+10	1	-1E+10	1	-1E+10	1	-1E+10	1	-1E+10	1	-1E+10	1
4901784	137	C	04/05/2019	10:49	-132.878	42.927	0	32.90	0	11.0660	0	33.8650	8	25.881	0	32.637	0	263.7	4	97.5	4	-1E+10	1	-1E+10	1	-1E+10	1	-1E+10	1	-1E+10	1	-1E+10	1
4901784	137	C	04/05/2019	10:49	-132.878	42.927	0	34.80	0	11.0690	0	33.8650	8	25.881	0	34.521	0	263.5	4	97.4	4	-1E+10	1	-1E+10	1	-1E+10	1	-1E+10	1	-1E+10	1	-1E+10	1
4901784	137	C	04/05/2019	10:49	-132.878	42.927	0	36.70	0	11.0700	0	33.8660	8	25.881	0	36.406	0	263.6	4	97.4	4	-1E+10	1	-1E+10	1	-1E+10	1	-1E+10	1	-1E+10	1	-1E+10	1
4901784	137	C	04/05/2019	10:49	-132.878	42.927	0	38.40	0	11.0670	0	33.8660	8	25.882	0	38.092	0	263.3	4	97.3	4	-1E+10	1	-1E+10	1	-1E+10	1	-1E+10	1	-1E+10	1	-1E+10	1
4901784	137	C	04/05/2019	10:49	-132.878	42.927	0	40.40	0	11.0550	0	33.8670	8	25.885	0	40.076	0	263.5	4	97.3	4	-1E+10	1	-1E+10	1	-1E+10	1	-1E+10	1	-1E+10	1	-1E+10	1
4901784	137	C	04/05/2019	10:49	-132.878	42.927	0	42.20	0	11.0560	0	33.8670	8	25.885	0	41.861	0	263.2	4	97.2	4	-1E+10	1	-1E+10	1	-1E+10	1	-1E+10	1	-1E+10	1	-1E+10	1
4901784	137	C	04/05/2019	10:49	-132.878	42.927	0	44.40	0	11.0560	0	33.8670	8	25.885	0	44.043	0	262.9	4	97.1	4	-1E+10	1	-1E+10	1	-1E+10	1	-1E+10	1	-1E+10	1	-1E+10	1
4901784	137	C	04/05/2019	10:49	-132.878	42.927	0	44.80	0	11.0590	0	33.8660	8	25.883	0	44.440	0	263.2	4	97.2	4	-1E+10	1	-1E+10	1	-1E+10	1	-1E+10	1	-1E+10	1	-1E+10	1
4901784	137	C	04/05/2019	10:49	-132.878	42.927	0	46.40	0	11.0500	0	33.8680	8	25.887	0	46.027	0	263.0	4	97.2	4	-1E+10	1	-1E+10	1	-1E+10	1	-1E+10	1	-1E+10	1	-1E+10	1
4901784	137	C	04/05/2019	10:49	-132.878	42.927	0	48.00	0	11.0320	0	33.8670	8	25.889	0	47.614	0	262.9	4	97.1	4	-1E+10	1	-1E+10	1	-1E+10	1	-1E+10	1	-1E+10	1	-1E+10	1
4901784	137	C	04/05/2019	10:49	-132.878	42.927	0	49.50	0	11.0210	0	33.8670	8	25.891	0	49.102	0	262.7	4	97.0	4	-1E+10	1	-1E+10	1	-1E+10	1	-1E+10	1	-1E+10	1	-1E+10	1
4901784	137	C	04/05/2019	10:49	-132.878	42.927	0	50.90	0	11.0210	0	33.8620	8	25.887	0	50.490	0	262.5	4	96.9	4	-1E+10	1	-1E+10	1	-1E+10	1	-1E+10	1	-1E+10	1	-1E+10	1
4901784	137	C	04/05/2019	10:49	-132.878	42.927	0	52.40	0	10.9850	0	33.8630	8	25.894	0	51.978	0	262.2	4	96.7	4	-1E+10	1	-1E+10	1	-1E+10	1	-1E+10	1	-1E+10	1	-1E+10	1
4901784	137	C	04/05/2019	10:49	-132.878	42.927	0	53.90	0	10.9510	0	33.8660	8	25.903	0	53.466	0	262.0	4	96.6	4	-1E+10	1	-1E+10	1	-1E+10	1	-1E+10	1	-1E+10	1	-1E+10	1
4901784	137	C	04/05/2019	10:49	-132.878	42.927	0	55.40	0	10.9600	0	33.8640	8	25.900	0	54.953	0	261.3	4	96.3	4	-1E+10	1	-1E+10	1	-1E+10	1	-1E+10	1	-1E+10	1	-1E+10	1
4901784	137	C	04/05/2019	10:49	-132.878	42.927	0	57.00	0	10.9240	0	33.8660	8	25.908	0	56.540	0	261.3	4	96.3	4	-1E+10	1	-1E+10	1	-1E+10	1	-1E+10	1	-1E+10	1	-1E+10	1
4901784	137	C	04/05/2019	10:49	-132.878	42.927	0	58.70	0	10.8700	0	33.8560	8	25.910	0	58.226	0	260.6	4	95.9	4	-1E+10	1	-1E+10	1	-1E+10	1	-1E+10	1	-1E+10	1	-1E+10	1
4901784	137	C	04/05/2019	10:49	-132.878	42.927	0	60.50	0	10.7050	0	33.8810	8	25.958	0	60.012	0	260.3	4	95.5	4	-1E+10	1	-1E+10	1	-1E+10	1	-1E+10	1	-1E+10	1	-1E+10	1
4901784	137	C	04/05/2019	10:49	-132.878	42.927	0	62.20	0	10.6810	0	33.8770	8	25.959	0	61.698	0	260.3	4	95.4	4	-1E+10	1	-1E+10	1	-1E+10	1	-1E+10	1	-1E+10	1	-1E+10	1
4901784	137	C	04/05/2019	10:49	-132.878	42.927	0	64.10	0	10.6740	0	33.8770	8	25.961	0	63.582	0	260.1	4	95.3	4	-1E+10	1	-1E+10	1	-1E+10	1	-1E+10	1	-1E+10	1	-1E+10	1
4901784	137	C	04/05/2019	10:49	-132.878	42.927	0	65.90	0	10.6490	0	33.8790	8	25.967	0	65.367	0	259.7	4	95.1	4	-1E+10	1	-1E+10	1	-1E+10	1	-1E+10	1	-1E+10	1	-1E+10	1
4901784	137	C	04/05/2019	10:49	-132.878	42.927	0	67.80	0	10.6220	0	33.8790	8	25.971	0	67.251	0	259.7	4	95.1	4	-1E+10	1	-1E+10	1	-1E+10	1	-1E+10	1	-1E+10	1	-1E+10	1
4901784	137	C	04/05/2019	10:49	-132.878	42.927	0	69.70	0	10.5700	0	33.8800	8	25.981	0	69.136	0	259.6	4	94.9	4	-1E+10	1	-1E+10	1	-1E+10	1	-1E+10	1	-1E+10	1	-1E+10	1
4901784	137	C	04/05/2019	10:49	-132.878	42.927	0	71.50	0	10.5440	0	33.8790	8	25.985	0	70.921	0	259.8	4	94.9	4	-1E+10	1	-1E+10	1	-1E+10	1	-1E+10	1	-1E+10	1	-1E+10	1
4901784	137	C	04/05/2019	10:49	-132.878	42.927	0	73.30	0	10.5090	0	33.8790	8	25.991	0	72.706	0	260.0	4	94.9	4	-1E+10	1	-1E+10	1	-1E+10	1	-1E+10	1	-1E+10	1	-1E+10	1
4901784	137	C	04/05/2019	10:49	-132.878	42.927	0	75.10	0	10.4630	0	33.8810	8	26.001	0	74.491	0	259.8	4	94.8	4	-1E+10	1	-1E+10	1	-1E+10	1	-1E+10	1	-1E+10	1	-1E+10	1
4901784	137	C	04/05/2019	10:49	-132.878	42.927	0	76.90	0	10.4270	0	33.8810	8	26.007	0	76.276	0	259.9	4	94.8	4	-1E+10	1	-1E+10	1	-1E+10	1	-1E+10	1	-1E+10	1	-1E+10	1
4901784	137	C	04/05/2019	10:49	-132.878	42.927	0	78.80	0	10.4170	0	33.8800	8	26.008	0	78.160	0	259.8	4	94.7	4	-1E+10	1	-1E+10	1	-1E+10	1	-1E+10	1	-1E+10	1	-1E+10	1
4901784	137	C	04/05/2019	10:49	-132.878	42.927	0	80.60	0	10.4060	0	33.8800	8	26.010	0	79.945	0	260.0	4	94.7	4	-1E+10	1	-1E+10	1	-1E+10	1	-1E+10	1	-1E+10	1	-1E+10	1
4901784	137	C	04/05/2019	10:49	-132.878	42.927	0	82.40	0	10.3800	0	33.8800	8	26.015	0	81.730	0	259.9	4	94.7	4	-1E+10	1	-1E+10	1	-1E+10	1	-1E+10	1	-1E+10	1	-1E+10	1
4901784	137	C	04/05/2019	10:49	-132.878	42.927	0	84.20	0	10.3760	0	33.8790	8	26.015	0	83.515	0	260.0	4	94.7	4	-1E+10	1	-1E+10	1	-1E+10	1	-1E+10	1	-1E+10	1	-1E+10	1
4901784	137	C	04/05/2019	10:49	-132.878	42.927	0	86.00	0	10.3600	0	33.8790	8	26.017	0	85.300	0	260.2	4	94.7	4	-1E+10	1	-1E+10	1	-1E+10	1	-1E+10	1	-1E+10	1	-1E+10	1
4901784	137	C	04/05/2019	10:49	-132.878	42.927	0	87.70	0	10.3130	0	33.8760	8	26.023	0	86.986	0	260.3	4	94.7	4	-1E+10	1	-1E+10	1	-1E+10	1	-1E+10	1	-1E+10	1	-1E+10	1
4901784	137	C	04/05/2019	10:49	-132.878	42.927	0	89.50	0	10.2950	0	33.8730	8	26.024	0	88.771	0	260.2	4	94.6	4	-1E+10	1	-1E+10	1	-1E+10	1	-1E+10	1	-1E+10	1	-1E+10	1
4901784	137	C	04/05/2019	10:49	-132.878	42.927	0	91.20	0	10.2340	0	33.8720	8	26.034	0	90.457	0	260.3	4	94.5	4	-1E+10	1	-1E+10	1	-1E+10	1	-1E+10	1	-1E+10	1	-1E+10	1
4901784	137	C	04/05/2019	10:49	-132.878	42.927	0	93.00	0	10.1890	0	33.8690	8	26.039	0	92.242	0	260.3	4	94.4	4	-1E+10	1	-1E+10	1	-1E+10	1	-1E+10	1	-1E+10	1	-1E+10	1
4901784	137	C	04/05/2019	10:49	-132.878	42.927	0	94.70	0	10.1530	0	33.8690	8	26.045	0	93.928	0	260.2	4	94.3	4	-1E+10	1	-1E+10	1	-1E+10	1	-1E+10	1	-1E+10	1	-1E+10	1
4901784	137	C	04/05/2019	10:49	-132.878	42.927	0	96.50	0	10.1040	0	33.8700	8	26.054	0	95.713	0	260.2	4	94.2	4	-1E+10	1	-1E+10	1	-1E+10	1	-1E+10	1	-1E+10	1	-1E+10	1
4901784	137	C	04/05/2019	10:49	-132.878	42.927	0	98.20	0	10.0620	0	33.8720	8	26.063	0	97.398	0	260.2	4	94.1	4	-1E+10	1	-1E+10	1	-1E+10	1	-1E+10	1	-1E+10	1	-1E+10	1
4901784	137	C	04/05/2019	10:49	-132.878	42.927	0	99.90	0	10.0600	0	33.8710	8	26.063	0	99.084	0	259.9	4	94.0	4	-1E+10	1	-1E+10	1	-1E+10	1	-1E+10	1	-1E+10	1	-1E+10	1
4901784	137	C	04/05/2019	10:49	-132.878	42.927	0	102.50	0	10.0590	0	33.8700	8	26.062	0	101.662	0	258.7	4	93.6	4	-1E+10	1	-1E+10	1	-1E+10	1	-1E+10	1	-1E+10	1	-1E+10	1
4901784	137	C	04/05/2019	10:49	-132.878	42.927	0	105.10	0	10.0170	0	33.8670	8	26.067	0	104.240	0	257.5	4	93.0	4	-1E+10	1	-1E+10	1	-1E+10	1	-1E+10	1	-1E+10	1	-1E+10	1
4901784	137	C	04/05/2019	10:49	-132.878	42.927	0	107.70	0	9.9370	0	33.8640	8	26.078	0	106.818	0	256.0	4	92.3	4	-1E+10	1	-1E+10	1	-1E+10	1	-1E+10	1	-1E+10	1	-1E+10	1
4901784	137	C	04/05/2019	10:49	-132.878	42.927	0	110.30	0	9.8630	0	33.8740	8	26.098	0	109.396	0	253.5	4	91.3	4	-1E+10	1	-1E+10	1	-1E+10	1	-1E+10	1	-1E+10	1	-1E+10	1
4901784	137	C	04/05/2019	10:49	-132.878	42.927	0	112.90	0	9.7980	0	33.8800	8	26.114	0	111.974	0	250.6	4	90.1	4	-1E+10	1	-1E+10	1	-1E+10	1	-1E+10	1	-1E+10	1	-1E+10	1
4901784	137	C	04/05/2019	10:49	-132.878	42.927	0	115.40	0	9.6040	0	33.9320	8	26.187	0	114.453	0	247.7	4	88.7	4	-1E+10	1	-1E+10	1	-1E+10	1	-1E+10	1	-1E+10	1	-1E+10	1
4901784	137	C	04/05/2019	10:49	-132.878	42.927	0	117.80	0	9.4260	0	33.9710	8	26.246	0	116.833	0	247.0	4	88.2	4	-1E+10	1	-1E+10	1	-1E+10	1	-1E+10	1	-1E+10	1	-1E+10	1
4901784	137	C	04/05/2019	10:49	-132.878	42.927	0	120.30	0	9.3380	0	33.9900	8	26.275	0	119.312	0	245.5	4	87.5	4	-1E+10	1	-1E+10	1	-1E+10	1	-1E+10	1	-1E+10	1	-1E+10	1
4901784	137	C	04/05/2019	10:49	-132.878	42.927	0	122.80	0	9.2410	0	34.0140	8	26.310	0	121.790	0	243.9	4	86.7	4	-1E+10	1	-1E+10	1	-1E+10	1	-1E+10	1	-1E+10	1	-1E+10	1
4901784	137	C	04/05/2019	10:49	-132.878	42.927	0	125.40	0	9.1900	0	34.0210	8	26.324	0	124.368	0	242.3	4	86.1	4	-1E+10	1	-1E+10	1	-1E+10	1	-1E+10	1	-1E+10	1	-1E+10	1
4901784	137	C	04/05/2019	10:49	-132.878	42.927	0	127.60	0	9.0750	0	34.0490	8	26.364	0	126.549	0	240.1	4	85.1	4	-1E+10	1	-1E+10	1	-1E+10	1	-1E+10	1	-1E+10	1	-1E+10	1
4901784	137	C	04/05/2019	10:49	-132.878	42.927	0	130.00	0	8.9010	0	34.0860	8	26.421	0	128.929	0	238.6	4	84.3	4	-1E+10	1	-1E+10	1	-1E+10	1	-1E+10	1	-1E+10	1	-1E+10	1
4901784	137	C	04/05/2019	10:49	-132.878	42.927	0	132.80	0	8.6700	0	34.1320	8	26.493	0	131.705	0	237.4	4	83.5	4	-1E+10	1	-1E+10	1	-1E+10	1	-1E+10	1	-1E+10	1	-1E+10	1
4901784	137	C	04/05/2019	10:49	-132.878	42.927	0	135.00	0	8.4420	0	34.1310	8	26.527	0	133.886	0	237.5	4	83.1	4	-1E+10	1	-1E+10	1	-1E+10	1	-1E+10	1	-1E+10	1	-1E+10	1
4901784	137	C	04/05/2019	10:49	-132.878	42.927	0	137.30	0	8.2100	0	34.1600	8	26.585	0	136.166	0	237.3	4	82.6	4	-1E+10	1	-1E+10	1	-1E+10	1	-1E+10	1	-1E+10	1	-1E+10	1
4901784	137	C	04/05/2019	10:49	-132.878	42.927	0	140.50	0	8.1350	0	34.1750	8	26.608	0	139.339	0	235.6	4	81.9	4	-1E+10	1	-1E+10	1	-1E+10	1	-1E+10	1	-1E+10	1	-1E+10	1
4901784	137	C	04/05/2019	10:49	-132.878	42.927	0	142.80	0	8.0310	0	34.2480	8	26.681	0	141.619	0	234.5	4	81.3	4	-1E+10	1	-1E+10	1	-1E+10	1	-1E+10	1	-1E+10	1	-1E+10	1
4901784	137	C	04/05/2019	10:49	-132.878	42.927	0	145.20	0	7.9890	0	34.2820	8	26.714	0	143.998	0	233.6	4	81.0	4	-1E+10	1	-1E+10	1	-1E+10	1	-1E+10	1	-1E+10	1	-1E+10	1
4901784	137	C	04/05/2019	10:49	-132.878	42.927	0	147.20	0	7.9550	0	34.2930	8	26.728	0	145.981	0	232.5	4	80.6	4	-1E+10	1	-1E+10	1	-1E+10	1	-1E+10	1	-1E+10	1	-1E+10	1
4901784	137	C	04/05/2019	10:49	-132.878	42.927	0	149.90	0	7.9100	0	34.3300	8	26.763	0	148.658	0	230.4	4	79.8	4	-1E+10	1	-1E+10	1	-1E+10	1	-1E+10	1	-1E+10	1	-1E+10	1
4901784	137	C	04/05/2019	10:49	-132.878	42.927	0	152.70	0	7.8990	0	34.3680	8	26.795	0	151.433	0	227.2	4	78.6	4	-1E+10	1	-1E+10	1	-1E+10	1	-1E+10	1	-1E+10	1	-1E+10	1
4901784	137	C	04/05/2019	10:49	-132.878	42.927	0	155.00	0	7.9140	0	34.4700	8	26.873	0	153.713	0	224.2	4	77.7	4	-1E+10	1	-1E+10	1	-1E+10	1	-1E+10	1	-1E+10	1	-1E+10	1
4901784	137	C	04/05/2019	10:49	-132.878	42.927	0	157.20	0	7.9300	0	34.5090	8	26.901	0	155.894	0	221.7	4	76.9	4	-1E+10	1	-1E+10	1	-1E+10	1	-1E+10	1	-1E+10	1	-1E+10	1
4901784	137	C	04/05/2019	10:49	-132.878	42.927	0	160.30	0	7.9710	0	34.5900	8	26.959	0	158.967	0	218.2	4	75.8	4	-1E+10	1	-1E+10	1	-1E+10	1	-1E+10	1	-1E+10	1	-1E+10	1
4901784	137	C	04/05/2019	10:49	-132.878	42.927	0	162.70	0	7.9840	0	34.6310	8	26.989	0	161.347	0	215.7	4	75.0	4	-1E+10	1	-1E+10	1	-1E+10	1	-1E+10	1	-1E+10	1	-1E+10	1
4901784	137	C	04/05/2019	10:49	-132.878	42.927	0	165.20	0	7.9990	0	34.6640	8	27.013	0	163.825	0	213.5	4	74.2	4	-1E+10	1	-1E+10	1	-1E+10	1	-1E+10	1	-1E+10	1	-1E+10	1
4901784	137	C	04/05/2019	10:49	-132.878	42.927	0	167.80	0	8.0250	0	34.6940	8	27.033	0	166.402	0	210.9	4	73.4	4	-1E+10	1	-1E+10	1	-1E+10	1	-1E+10	1	-1E+10	1	-1E+10	1
4901784	137	C	04/05/2019	10:49	-132.878	42.927	0	170.30	0	8.0460	0	34.7170	8	27.048	0	168.880	0	208.1	4	72.4	4	-1E+10	1	-1E+10	1	-1E+10	1	-1E+10	1	-1E+10	1	-1E+10	1
4901784	137	C	04/05/2019	10:49	-132.878	42.927	0	172.70	0	8.0640	0	34.7530	8	27.073	0	171.259	0	204.5	4	71.2	4	-1E+10	1	-1E+10	1	-1E+10	1	-1E+10	1	-1E+10	1	-1E+10	1
4901784	137	C	04/05/2019	10:49	-132.878	42.927	0	175.30	0	8.1120	0	34.8440	8	27.137	0	173.836	0	200.7	4	70.1	4	-1E+10	1	-1E+10	1	-1E+10	1	-1E+10	1	-1E+10	1	-1E+10	1
4901784	137	C	04/05/2019	10:49	-132.878	42.927	0	177.90	0	8.1320	0	34.8790	8	27.162	0	176.414	0	197.6	4	69.0	4	-1E+10	1	-1E+10	1	-1E+10	1	-1E+10	1	-1E+10	1	-1E+10	1
4901784	137	C	04/05/2019	10:49	-132.878	42.927	0	179.60	0	8.1490	0	34.9020	8	27.177	0	178.099	0	195.2	4	68.2	4	-1E+10	1	-1E+10	1	-1E+10	1	-1E+10	1	-1E+10	1	-1E+10	1
4901784	137	C	04/05/2019	10:49	-132.878	42.927	0	182.40	0	8.1900	0	34.9640	8	27.220	0	180.874	0	191.1	4	66.9	4	-1E+10	1	-1E+10	1	-1E+10	1	-1E+10	1	-1E+10	1	-1E+10	1
4901784	137	C	04/05/2019	10:49	-132.878	42.927	0	185.20	0	8.2240	0	35.0230	8	27.261	0	183.649	0	187.5	4	65.7	4	-1E+10	1	-1E+10	1	-1E+10	1	-1E+10	1	-1E+10	1	-1E+10	1
4901784	137	C	04/05/2019	10:49	-132.878	42.927	0	187.10	0	8.2310	0	35.0370	8	27.271	0	185.533	0	185.0	4	64.8	4	-1E+10	1	-1E+10	1	-1E+10	1	-1E+10	1	-1E+10	1	-1E+10	1
4901784	137	C	04/05/2019	10:49	-132.878	42.927	0	189.80	0	8.2780	0	35.1110	8	27.322	0	188.209	0	181.0	4	63.5	4	-1E+10	1	-1E+10	1	-1E+10	1	-1E+10	1	-1E+10	1	-1E+10	1
4901784	137	C	04/05/2019	10:49	-132.878	42.927	0	192.40	0	8.2990	0	35.1520	8	27.351	0	190.786	0	178.0	4	62.5	4	-1E+10	1	-1E+10	1	-1E+10	1	-1E+10	1	-1E+10	1	-1E+10	1
4901784	137	C	04/05/2019	10:49	-132.878	42.927	0	194.20	0	8.3110	0	35.1850	8	27.375	0	192.570	0	176.0	4	61.8	4	-1E+10	1	-1E+10	1	-1E+10	1	-1E+10	1	-1E+10	1	-1E+10	1
4901784	137	C	04/05/2019	10:49	-132.878	42.927	0	197.10	0	8.3160	0	35.2130	8	27.396	0	195.444	0	172.7	4	60.7	4	-1E+10	1	-1E+10	1	-1E+10	1	-1E+10	1	-1E+10	1	-1E+10	1
4901784	137	C	04/05/2019	10:49	-132.878	42.927	0	199.80	0	8.3180	0	35.2660	8	27.438	0	198.120	0	169.5	4	59.6	4	-1E+10	1	-1E+10	1	-1E+10	1	-1E+10	1	-1E+10	1	-1E+10	1
4901784	137	C	04/05/2019	10:49	-132.878	42.927	0	202.10	0	8.3110	0	35.2860	8	27.455	0	200.400	0	167.6	4	59.0	4	-1E+10	1	-1E+10	1	-1E+10	1	-1E+10	1	-1E+10	1	-1E+10	1
4901784	137	C	04/05/2019	10:49	-132.878	42.927	0	205.00	0	8.2970	0	35.3080	8	27.474	0	203.274	0	165.3	4	58.1	4	-1E+10	1	-1E+10	1	-1E+10	1	-1E+10	1	-1E+10	1	-1E+10	1
4901784	137	C	04/05/2019	10:49	-132.878	42.927	0	207.30	0	8.2770	0	35.3220	8	27.488	0	205.553	0	163.4	4	57.4	4	-1E+10	1	-1E+10	1	-1E+10	1	-1E+10	1	-1E+10	1	-1E+10	1
4901784	137	C	04/05/2019	10:49	-132.878	42.927	0	209.60	0	8.2090	0	35.3500	8	27.521	0	207.833	0	161.6	4	56.7	4	-1E+10	1	-1E+10	1	-1E+10	1	-1E+10	1	-1E+10	1	-1E+10	1
4901784	137	C	04/05/2019	10:49	-132.878	42.927	0	212.80	0	8.1480	0	35.3610	8	27.539	0	211.004	0	160.0	4	56.1	4	-1E+10	1	-1E+10	1	-1E+10	1	-1E+10	1	-1E+10	1	-1E+10	1
4901784	137	C	04/05/2019	10:49	-132.878	42.927	0	215.20	0	8.1010	0	35.3670	8	27.551	0	213.383	0	159.0	4	55.7	4	-1E+10	1	-1E+10	1	-1E+10	1	-1E+10	1	-1E+10	1	-1E+10	1
4901784	137	C	04/05/2019	10:49	-132.878	42.927	0	217.60	0	8.0620	0	35.3710	8	27.560	0	215.761	0	158.3	4	55.4	4	-1E+10	1	-1E+10	1	-1E+10	1	-1E+10	1	-1E+10	1	-1E+10	1
4901784	137	C	04/05/2019	10:49	-132.878	42.927	0	220.00	0	8.0310	0	35.3730	8	27.566	0	218.140	0	157.8	4	55.2	4	-1E+10	1	-1E+10	1	-1E+10	1	-1E+10	1	-1E+10	1	-1E+10	1
4901784	137	C	04/05/2019	10:49	-132.878	42.927	0	222.40	0	8.0230	0	35.3740	8	27.568	0	220.518	0	156.8	4	54.8	4	-1E+10	1	-1E+10	1	-1E+10	1	-1E+10	1	-1E+10	1	-1E+10	1
4901784	137	C	04/05/2019	10:49	-132.878	42.927	0	224.90	0	7.9890	0	35.3760	8	27.575	0	222.996	0	155.7	4	54.4	4	-1E+10	1	-1E+10	1	-1E+10	1	-1E+10	1	-1E+10	1	-1E+10	1
4901784	137	C	04/05/2019	10:49	-132.878	42.927	0	227.40	0	7.9610	0	35.3770	8	27.580	0	225.473	0	154.5	4	54.0	4	-1E+10	1	-1E+10	1	-1E+10	1	-1E+10	1	-1E+10	1	-1E+10	1
4901784	137	C	04/05/2019	10:49	-132.878	42.927	0	229.90	0	7.9440	0	35.3780	8	27.583	0	227.950	0	153.2	4	53.5	4	-1E+10	1	-1E+10	1	-1E+10	1	-1E+10	1	-1E+10	1	-1E+10	1
4901784	137	C	04/05/2019	10:49	-132.878	42.927	0	232.50	0	7.8930	0	35.3780	8	27.591	0	230.527	0	151.9	4	53.0	4	-1E+10	1	-1E+10	1	-1E+10	1	-1E+10	1	-1E+10	1	-1E+10	1
4901784	137	C	04/05/2019	10:49	-132.878	42.927	0	235.00	0	7.8140	0	35.3830	8	27.607	0	233.004	0	150.7	4	52.5	4	-1E+10	1	-1E+10	1	-1E+10	1	-1E+10	1	-1E+10	1	-1E+10	1
4901784	137	C	04/05/2019	10:49	-132.878	42.927	0	237.60	0	7.7950	0	35.3820	8	27.609	0	235.581	0	149.1	4	51.9	4	-1E+10	1	-1E+10	1	-1E+10	1	-1E+10	1	-1E+10	1	-1E+10	1
4901784	137	C	04/05/2019	10:49	-132.878	42.927	0	240.10	0	7.7700	0	35.3810	8	27.612	0	238.058	0	146.9	4	51.1	4	-1E+10	1	-1E+10	1	-1E+10	1	-1E+10	1	-1E+10	1	-1E+10	1
4901784	137	C	04/05/2019	10:49	-132.878	42.927	0	242.70	0	7.7200	0	35.3810	8	27.619	0	240.635	0	145.0	4	50.4	4	-1E+10	1	-1E+10	1	-1E+10	1	-1E+10	1	-1E+10	1	-1E+10	1
4901784	137	C	04/05/2019	10:49	-132.878	42.927	0	245.30	0	7.6560	0	35.3830	8	27.630	0	243.211	0	142.7	4	49.5	4	-1E+10	1	-1E+10	1	-1E+10	1	-1E+10	1	-1E+10	1	-1E+10	1
4901784	137	C	04/05/2019	10:49	-132.878	42.927	0	247.10	0	7.6390	0	35.3800	8	27.630	0	244.994	0	140.6	4	48.7	4	-1E+10	1	-1E+10	1	-1E+10	1	-1E+10	1	-1E+10	1	-1E+10	1
4901784	137	C	04/05/2019	10:49	-132.878	42.927	0	249.60	0	7.5450	0	35.3800	8	27.644	0	247.472	0	137.5	4	47.6	4	-1E+10	1	-1E+10	1	-1E+10	1	-1E+10	1	-1E+10	1	-1E+10	1
4901784	137	C	04/05/2019	10:49	-132.878	42.927	0	252.30	0	7.4490	0	35.3820	8	27.660	0	250.147	0	135.4	4	46.7	4	-1E+10	1	-1E+10	1	-1E+10	1	-1E+10	1	-1E+10	1	-1E+10	1
4901784	137	C	04/05/2019	10:49	-132.878	42.927	0	255.00	0	7.4010	0	35.3810	8	27.666	0	252.822	0	133.1	4	45.9	4	-1E+10	1	-1E+10	1	-1E+10	1	-1E+10	1	-1E+10	1	-1E+10	1
4901784	137	C	04/05/2019	10:49	-132.878	42.927	0	257.70	0	7.3240	0	35.3810	8	27.677	0	255.498	0	130.9	4	45.1	4	-1E+10	1	-1E+10	1	-1E+10	1	-1E+10	1	-1E+10	1	-1E+10	1
4901784	137	C	04/05/2019	10:49	-132.878	42.927	0	260.30	0	7.2680	0	35.3810	8	27.685	0	258.074	0	128.6	4	44.2	4	-1E+10	1	-1E+10	1	-1E+10	1	-1E+10	1	-1E+10	1	-1E+10	1
4901784	137	C	04/05/2019	10:49	-132.878	42.927	0	263.00	0	7.1460	0	35.3850	8	27.705	0	260.749	0	126.9	4	43.5	4	-1E+10	1	-1E+10	1	-1E+10	1	-1E+10	1	-1E+10	1	-1E+10	1
4901784	137	C	04/05/2019	10:49	-132.878	42.927	0	264.70	0	7.1400	0	35.3830	8	27.705	0	262.433	0	126.2	4	43.3	4	-1E+10	1	-1E+10	1	-1E+10	1	-1E+10	1	-1E+10	1	-1E+10	1
4901784	137	C	04/05/2019	10:49	-132.878	42.927	0	267.50	0	7.0940	0	35.3850	8	27.713	0	265.208	0	124.9	4	42.8	4	-1E+10	1	-1E+10	1	-1E+10	1	-1E+10	1	-1E+10	1	-1E+10	1
4901784	137	C	04/05/2019	10:49	-132.878	42.927	0	270.10	0	7.0570	0	35.3850	8	27.718	0	267.784	0	123.6	4	42.3	4	-1E+10	1	-1E+10	1	-1E+10	1	-1E+10	1	-1E+10	1	-1E+10	1
4901784	137	C	04/05/2019	10:49	-132.878	42.927	0	272.80	0	6.9950	0	35.3880	8	27.729	0	270.459	0	122.2	4	41.7	4	-1E+10	1	-1E+10	1	-1E+10	1	-1E+10	1	-1E+10	1	-1E+10	1
4901784	137	C	04/05/2019	10:49	-132.878	42.927	0	275.50	0	6.9600	0	35.3880	8	27.734	0	273.134	0	121.2	4	41.4	4	-1E+10	1	-1E+10	1	-1E+10	1	-1E+10	1	-1E+10	1	-1E+10	1
4901784	137	C	04/05/2019	10:49	-132.878	42.927	0	277.30	0	6.9570	0	35.3860	8	27.733	0	274.917	0	120.5	4	41.1	4	-1E+10	1	-1E+10	1	-1E+10	1	-1E+10	1	-1E+10	1	-1E+10	1
4901784	137	C	04/05/2019	10:49	-132.878	42.927	0	280.00	0	6.9180	0	35.3870	8	27.739	0	277.592	0	119.0	4	40.6	4	-1E+10	1	-1E+10	1	-1E+10	1	-1E+10	1	-1E+10	1	-1E+10	1
4901784	137	C	04/05/2019	10:49	-132.878	42.927	0	282.70	0	6.8450	0	35.3880	8	27.750	0	280.267	0	117.8	4	40.1	4	-1E+10	1	-1E+10	1	-1E+10	1	-1E+10	1	-1E+10	1	-1E+10	1
4901784	137	C	04/05/2019	10:49	-132.878	42.927	0	284.60	0	6.8270	0	35.3890	8	27.753	0	282.149	0	117.3	4	39.9	4	-1E+10	1	-1E+10	1	-1E+10	1	-1E+10	1	-1E+10	1	-1E+10	1
4901784	137	C	04/05/2019	10:49	-132.878	42.927	0	287.30	0	6.7830	0	35.3900	8	27.760	0	284.824	0	116.4	4	39.6	4	-1E+10	1	-1E+10	1	-1E+10	1	-1E+10	1	-1E+10	1	-1E+10	1
4901784	137	C	04/05/2019	10:49	-132.878	42.927	0	290.00	0	6.7450	0	35.3920	8	27.767	0	287.499	0	115.6	4	39.3	4	-1E+10	1	-1E+10	1	-1E+10	1	-1E+10	1	-1E+10	1	-1E+10	1
4901784	137	C	04/05/2019	10:49	-132.878	42.927	0	292.80	0	6.7260	0	35.3910	8	27.769	0	290.273	0	114.7	4	39.0	4	-1E+10	1	-1E+10	1	-1E+10	1	-1E+10	1	-1E+10	1	-1E+10	1
4901784	137	C	04/05/2019	10:49	-132.878	42.927	0	295.50	0	6.6880	0	35.3910	8	27.774	0	292.948	0	113.8	4	38.6	4	-1E+10	1	-1E+10	1	-1E+10	1	-1E+10	1	-1E+10	1	-1E+10	1
4901784	137	C	04/05/2019	10:49	-132.878	42.927	0	297.40	0	6.6770	0	35.3920	8	27.777	0	294.830	0	113.2	4	38.4	4	-1E+10	1	-1E+10	1	-1E+10	1	-1E+10	1	-1E+10	1	-1E+10	1
4901784	137	C	04/05/2019	10:49	-132.878	42.927	0	300.20	0	6.6410	0	35.3930	8	27.782	0	297.604	0	112.3	4	38.1	4	-1E+10	1	-1E+10	1	-1E+10	1	-1E+10	1	-1E+10	1	-1E+10	1
4901784	137	C	04/05/2019	10:49	-132.878	42.927	0	302.90	0	6.6200	0	35.3930	8	27.785	0	300.279	0	111.5	4	37.8	4	-1E+10	1	-1E+10	1	-1E+10	1	-1E+10	1	-1E+10	1	-1E+10	1
4901784	137	C	04/05/2019	10:49	-132.878	42.927	0	304.80	0	6.6000	0	35.3930	8	27.788	0	302.161	0	110.9	4	37.6	4	-1E+10	1	-1E+10	1	-1E+10	1	-1E+10	1	-1E+10	1	-1E+10	1
4901784	137	C	04/05/2019	10:49	-132.878	42.927	0	307.60	0	6.5640	0	35.3950	8	27.794	0	304.934	0	110.1	4	37.3	4	-1E+10	1	-1E+10	1	-1E+10	1	-1E+10	1	-1E+10	1	-1E+10	1
4901784	137	C	04/05/2019	10:49	-132.878	42.927	0	310.30	0	6.5440	0	35.3940	8	27.796	0	307.609	0	109.3	4	37.0	4	-1E+10	1	-1E+10	1	-1E+10	1	-1E+10	1	-1E+10	1	-1E+10	1
4901784	137	C	04/05/2019	10:49	-132.878	42.927	0	312.10	0	6.5330	0	35.3940	8	27.798	0	309.392	0	108.7	4	36.8	4	-1E+10	1	-1E+10	1	-1E+10	1	-1E+10	1	-1E+10	1	-1E+10	1
4901784	137	C	04/05/2019	10:49	-132.878	42.927	0	314.90	0	6.4930	0	35.3960	8	27.805	0	312.166	0	107.8	4	36.4	4	-1E+10	1	-1E+10	1	-1E+10	1	-1E+10	1	-1E+10	1	-1E+10	1
4901784	137	C	04/05/2019	10:49	-132.878	42.927	0	317.70	0	6.4630	0	35.3990	8	27.811	0	314.939	0	107.1	4	36.2	4	-1E+10	1	-1E+10	1	-1E+10	1	-1E+10	1	-1E+10	1	-1E+10	1
4901784	137	C	04/05/2019	10:49	-132.878	42.927	0	319.50	0	6.4560	0	35.3970	8	27.811	0	316.722	0	106.7	4	36.0	4	-1E+10	1	-1E+10	1	-1E+10	1	-1E+10	1	-1E+10	1	-1E+10	1
4901784	137	C	04/05/2019	10:49	-132.878	42.927	0	322.20	0	6.4490	0	35.3950	8	27.810	0	319.397	0	105.6	4	35.7	4	-1E+10	1	-1E+10	1	-1E+10	1	-1E+10	1	-1E+10	1	-1E+10	1
4901784	137	C	04/05/2019	10:49	-132.878	42.927	0	324.90	0	6.3830	0	35.3970	8	27.820	0	322.071	0	104.5	4	35.2	4	-1E+10	1	-1E+10	1	-1E+10	1	-1E+10	1	-1E+10	1	-1E+10	1
4901784	137	C	04/05/2019	10:49	-132.878	42.927	0	327.70	0	6.3350	0	35.3980	8	27.828	0	324.844	0	103.1	4	34.7	4	-1E+10	1	-1E+10	1	-1E+10	1	-1E+10	1	-1E+10	1	-1E+10	1
4901784	137	C	04/05/2019	10:49	-132.878	42.927	0	330.30	0	6.3000	0	35.3990	8	27.833	0	327.420	0	101.9	4	34.3	4	-1E+10	1	-1E+10	1	-1E+10	1	-1E+10	1	-1E+10	1	-1E+10	1
4901784	137	C	04/05/2019	10:49	-132.878	42.927	0	332.20	0	6.2640	0	35.4030	8	27.841	0	329.302	0	100.9	4	33.9	4	-1E+10	1	-1E+10	1	-1E+10	1	-1E+10	1	-1E+10	1	-1E+10	1
4901784	137	C	04/05/2019	10:49	-132.878	42.927	0	335.00	0	6.2300	0	35.4020	8	27.845	0	332.075	0	100.4	4	33.7	4	-1E+10	1	-1E+10	1	-1E+10	1	-1E+10	1	-1E+10	1	-1E+10	1
4901784	137	C	04/05/2019	10:49	-132.878	42.927	0	337.70	0	6.2140	0	35.4020	8	27.847	0	334.749	0	99.8	4	33.5	4	-1E+10	1	-1E+10	1	-1E+10	1	-1E+10	1	-1E+10	1	-1E+10	1
4901784	137	C	04/05/2019	10:49	-132.878	42.927	0	339.60	0	6.2040	0	35.4020	8	27.848	0	336.631	0	99.1	4	33.3	4	-1E+10	1	-1E+10	1	-1E+10	1	-1E+10	1	-1E+10	1	-1E+10	1
4901784	137	C	04/05/2019	10:49	-132.878	42.927	0	342.40	0	6.1840	0	35.4030	8	27.852	0	339.404	0	97.6	4	32.7	4	-1E+10	1	-1E+10	1	-1E+10	1	-1E+10	1	-1E+10	1	-1E+10	1
4901784	137	C	04/05/2019	10:49	-132.878	42.927	0	345.20	0	6.1670	0	35.4030	8	27.854	0	342.178	0	95.8	4	32.1	4	-1E+10	1	-1E+10	1	-1E+10	1	-1E+10	1	-1E+10	1	-1E+10	1
4901784	137	C	04/05/2019	10:49	-132.878	42.927	0	347.10	0	6.1230	0	35.4060	8	27.862	0	344.059	0	94.6	4	31.7	4	-1E+10	1	-1E+10	1	-1E+10	1	-1E+10	1	-1E+10	1	-1E+10	1
4901784	137	C	04/05/2019	10:49	-132.878	42.927	0	349.90	0	6.0980	0	35.4080	8	27.867	0	346.832	0	92.8	4	31.1	4	-1E+10	1	-1E+10	1	-1E+10	1	-1E+10	1	-1E+10	1	-1E+10	1
4901784	137	C	04/05/2019	10:49	-132.878	42.927	0	352.80	0	6.0850	0	35.4090	8	27.869	0	349.705	0	91.3	4	30.6	4	-1E+10	1	-1E+10	1	-1E+10	1	-1E+10	1	-1E+10	1	-1E+10	1
4901784	137	C	04/05/2019	10:49	-132.878	42.927	0	354.70	0	6.0670	0	35.4100	8	27.872	0	351.586	0	90.2	4	30.2	4	-1E+10	1	-1E+10	1	-1E+10	1	-1E+10	1	-1E+10	1	-1E+10	1
4901784	137	C	04/05/2019	10:49	-132.878	42.927	0	357.50	0	6.0440	0	35.4120	8	27.877	0	354.359	0	88.7	4	29.7	4	-1E+10	1	-1E+10	1	-1E+10	1	-1E+10	1	-1E+10	1	-1E+10	1
4901784	137	C	04/05/2019	10:49	-132.878	42.927	0	360.50	0	5.9910	0	35.4170	8	27.888	0	357.330	0	87.2	4	29.1	4	-1E+10	1	-1E+10	1	-1E+10	1	-1E+10	1	-1E+10	1	-1E+10	1
4901784	137	C	04/05/2019	10:49	-132.878	42.927	0	362.40	0	5.9830	0	35.4170	8	27.889	0	359.212	0	86.7	4	29.0	4	-1E+10	1	-1E+10	1	-1E+10	1	-1E+10	1	-1E+10	1	-1E+10	1
4901784	137	C	04/05/2019	10:49	-132.878	42.927	0	364.30	0	5.9640	0	35.4180	8	27.892	0	361.094	0	86.2	4	28.8	4	-1E+10	1	-1E+10	1	-1E+10	1	-1E+10	1	-1E+10	1	-1E+10	1
4901784	137	C	04/05/2019	10:49	-132.878	42.927	0	367.40	0	5.9590	0	35.4190	8	27.894	0	364.164	0	85.3	4	28.5	4	-1E+10	1	-1E+10	1	-1E+10	1	-1E+10	1	-1E+10	1	-1E+10	1
4901784	137	C	04/05/2019	10:49	-132.878	42.927	0	370.30	0	5.9440	0	35.4200	8	27.896	0	367.036	0	84.2	4	28.1	4	-1E+10	1	-1E+10	1	-1E+10	1	-1E+10	1	-1E+10	1	-1E+10	1
4901784	137	C	04/05/2019	10:49	-132.878	42.927	0	372.80	0	5.9290	0	35.4210	8	27.899	0	369.511	0	83.0	4	27.7	4	-1E+10	1	-1E+10	1	-1E+10	1	-1E+10	1	-1E+10	1	-1E+10	1
4901784	137	C	04/05/2019	10:49	-132.878	42.927	0	375.20	0	5.9080	0	35.4220	8	27.903	0	371.888	0	81.9	4	27.3	4	-1E+10	1	-1E+10	1	-1E+10	1	-1E+10	1	-1E+10	1	-1E+10	1
4901784	137	C	04/05/2019	10:49	-132.878	42.927	0	377.70	0	5.8760	0	35.4220	8	27.907	0	374.364	0	80.2	4	26.7	4	-1E+10	1	-1E+10	1	-1E+10	1	-1E+10	1	-1E+10	1	-1E+10	1
4901784	137	C	04/05/2019	10:49	-132.878	42.927	0	380.20	0	5.8360	0	35.4260	8	27.915	0	376.839	0	78.8	4	26.2	4	-1E+10	1	-1E+10	1	-1E+10	1	-1E+10	1	-1E+10	1	-1E+10	1
4901784	137	C	04/05/2019	10:49	-132.878	42.927	0	382.70	0	5.8090	0	35.4290	8	27.921	0	379.315	0	77.3	4	25.7	4	-1E+10	1	-1E+10	1	-1E+10	1	-1E+10	1	-1E+10	1	-1E+10	1
4901784	137	C	04/05/2019	10:49	-132.878	42.927	0	385.10	0	5.7850	0	35.4310	8	27.925	0	381.691	0	75.9	4	25.2	4	-1E+10	1	-1E+10	1	-1E+10	1	-1E+10	1	-1E+10	1	-1E+10	1
4901784	137	C	04/05/2019	10:49	-132.878	42.927	0	387.60	0	5.7620	0	35.4350	8	27.932	0	384.167	0	74.4	4	24.7	4	-1E+10	1	-1E+10	1	-1E+10	1	-1E+10	1	-1E+10	1	-1E+10	1
4901784	137	C	04/05/2019	10:49	-132.878	42.927	0	390.20	0	5.7390	0	35.4350	8	27.934	0	386.742	0	73.2	4	24.3	4	-1E+10	1	-1E+10	1	-1E+10	1	-1E+10	1	-1E+10	1	-1E+10	1
4901784	137	C	04/05/2019	10:49	-132.878	42.927	0	392.70	0	5.7210	0	35.4380	8	27.939	0	389.217	0	71.7	4	23.8	4	-1E+10	1	-1E+10	1	-1E+10	1	-1E+10	1	-1E+10	1	-1E+10	1
4901784	137	C	04/05/2019	10:49	-132.878	42.927	0	395.40	0	5.6940	0	35.4400	8	27.944	0	391.891	0	70.2	4	23.3	4	-1E+10	1	-1E+10	1	-1E+10	1	-1E+10	1	-1E+10	1	-1E+10	1
4901784	137	C	04/05/2019	10:49	-132.878	42.927	0	397.10	0	5.6520	0	35.4440	8	27.953	0	393.574	0	69.4	4	23.0	4	-1E+10	1	-1E+10	1	-1E+10	1	-1E+10	1	-1E+10	1	-1E+10	1
4901784	137	C	04/05/2019	10:49	-132.878	42.927	0	399.70	0	5.6330	0	35.4460	8	27.957	0	396.148	0	68.1	4	22.6	4	-1E+10	1	-1E+10	1	-1E+10	1	-1E+10	1	-1E+10	1	-1E+10	1
4901784	137	C	04/05/2019	10:49	-132.878	42.927	0	402.20	0	5.6160	0	35.4490	8	27.961	0	398.624	0	67.1	4	22.2	4	-1E+10	1	-1E+10	1	-1E+10	1	-1E+10	1	-1E+10	1	-1E+10	1
4901784	137	C	04/05/2019	10:49	-132.878	42.927	0	404.80	0	5.5950	0	35.4510	8	27.965	0	401.198	0	66.2	4	21.9	4	-1E+10	1	-1E+10	1	-1E+10	1	-1E+10	1	-1E+10	1	-1E+10	1
4901784	137	C	04/05/2019	10:49	-132.878	42.927	0	407.40	0	5.5670	0	35.4530	8	27.970	0	403.772	0	65.5	4	21.7	4	-1E+10	1	-1E+10	1	-1E+10	1	-1E+10	1	-1E+10	1	-1E+10	1
4901784	137	C	04/05/2019	10:49	-132.878	42.927	0	410.00	0	5.5300	0	35.4580	8	27.979	0	406.347	0	64.8	4	21.4	4	-1E+10	1	-1E+10	1	-1E+10	1	-1E+10	1	-1E+10	1	-1E+10	1
4901784	137	C	04/05/2019	10:49	-132.878	42.927	0	412.70	0	5.5210	0	35.4580	8	27.980	0	409.020	0	64.4	4	21.3	4	-1E+10	1	-1E+10	1	-1E+10	1	-1E+10	1	-1E+10	1	-1E+10	1
4901784	137	C	04/05/2019	10:49	-132.878	42.927	0	415.30	0	5.5150	0	35.4580	8	27.981	0	411.594	0	63.7	4	21.1	4	-1E+10	1	-1E+10	1	-1E+10	1	-1E+10	1	-1E+10	1	-1E+10	1
4901784	137	C	04/05/2019	10:49	-132.878	42.927	0	418.00	0	5.4980	0	35.4600	8	27.984	0	414.267	0	62.9	4	20.8	4	-1E+10	1	-1E+10	1	-1E+10	1	-1E+10	1	-1E+10	1	-1E+10	1
4901784	137	C	04/05/2019	10:49	-132.878	42.927	0	419.80	0	5.4710	0	35.4630	8	27.990	0	416.050	0	62.3	4	20.6	4	-1E+10	1	-1E+10	1	-1E+10	1	-1E+10	1	-1E+10	1	-1E+10	1
4901784	137	C	04/05/2019	10:49	-132.878	42.927	0	422.60	0	5.4620	0	35.4640	8	27.992	0	418.822	0	61.5	4	20.3	4	-1E+10	1	-1E+10	1	-1E+10	1	-1E+10	1	-1E+10	1	-1E+10	1
4901784	137	C	04/05/2019	10:49	-132.878	42.927	0	425.30	0	5.4480	0	35.4660	8	27.995	0	421.495	0	60.5	4	20.0	4	-1E+10	1	-1E+10	1	-1E+10	1	-1E+10	1	-1E+10	1	-1E+10	1
4901784	137	C	04/05/2019	10:49	-132.878	42.927	0	427.10	0	5.4330	0	35.4680	8	27.999	0	423.277	0	59.7	4	19.7	4	-1E+10	1	-1E+10	1	-1E+10	1	-1E+10	1	-1E+10	1	-1E+10	1
4901784	137	C	04/05/2019	10:49	-132.878	42.927	0	429.80	0	5.4170	0	35.4700	8	28.002	0	425.950	0	58.9	4	19.4	4	-1E+10	1	-1E+10	1	-1E+10	1	-1E+10	1	-1E+10	1	-1E+10	1
4901784	137	C	04/05/2019	10:49	-132.878	42.927	0	432.50	0	5.3910	0	35.4740	8	28.009	0	428.623	0	58.1	4	19.2	4	-1E+10	1	-1E+10	1	-1E+10	1	-1E+10	1	-1E+10	1	-1E+10	1
4901784	137	C	04/05/2019	10:49	-132.878	42.927	0	435.20	0	5.3460	0	35.4790	8	28.018	0	431.296	0	57.7	4	19.0	4	-1E+10	1	-1E+10	1	-1E+10	1	-1E+10	1	-1E+10	1	-1E+10	1
4901784	137	C	04/05/2019	10:49	-132.878	42.927	0	437.90	0	5.3400	0	35.4800	8	28.020	0	433.969	0	57.5	4	18.9	4	-1E+10	1	-1E+10	1	-1E+10	1	-1E+10	1	-1E+10	1	-1E+10	1
4901784	137	C	04/05/2019	10:49	-132.878	42.927	0	439.80	0	5.3330	0	35.4800	8	28.021	0	435.850	0	57.5	4	18.9	4	-1E+10	1	-1E+10	1	-1E+10	1	-1E+10	1	-1E+10	1	-1E+10	1
4901784	137	C	04/05/2019	10:49	-132.878	42.927	0	442.60	0	5.3150	0	35.4820	8	28.024	0	438.622	0	57.5	4	18.9	4	-1E+10	1	-1E+10	1	-1E+10	1	-1E+10	1	-1E+10	1	-1E+10	1
4901784	137	C	04/05/2019	10:49	-132.878	42.927	0	445.30	0	5.2950	0	35.4810	8	28.026	0	441.295	0	57.9	4	19.0	4	-1E+10	1	-1E+10	1	-1E+10	1	-1E+10	1	-1E+10	1	-1E+10	1
4901784	137	C	04/05/2019	10:49	-132.878	42.927	0	447.20	0	5.2870	0	35.4790	8	28.026	0	443.176	0	58.3	4	19.2	4	-1E+10	1	-1E+10	1	-1E+10	1	-1E+10	1	-1E+10	1	-1E+10	1
4901784	137	C	04/05/2019	10:49	-132.878	42.927	0	450.00	0	5.2250	0	35.4800	8	28.034	0	445.947	0	59.3	4	19.5	4	-1E+10	1	-1E+10	1	-1E+10	1	-1E+10	1	-1E+10	1	-1E+10	1
4901784	137	C	04/05/2019	10:49	-132.878	42.927	0	452.80	0	5.0960	0	35.4780	8	28.048	0	448.719	0	60.3	4	19.7	4	-1E+10	1	-1E+10	1	-1E+10	1	-1E+10	1	-1E+10	1	-1E+10	1
4901784	137	C	04/05/2019	10:49	-132.878	42.927	0	454.60	0	5.0820	0	35.4740	8	28.046	0	450.501	0	59.5	4	19.5	4	-1E+10	1	-1E+10	1	-1E+10	1	-1E+10	1	-1E+10	1	-1E+10	1
4901784	137	C	04/05/2019	10:49	-132.878	42.927	0	457.50	0	5.0800	0	35.4800	8	28.051	0	453.372	0	57.1	4	18.7	4	-1E+10	1	-1E+10	1	-1E+10	1	-1E+10	1	-1E+10	1	-1E+10	1
4901784	137	C	04/05/2019	10:49	-132.878	42.927	0	460.30	0	5.0970	0	35.4960	8	28.062	0	456.143	0	55.3	4	18.1	4	-1E+10	1	-1E+10	1	-1E+10	1	-1E+10	1	-1E+10	1	-1E+10	1
4901784	137	C	04/05/2019	10:49	-132.878	42.927	0	462.20	0	5.0690	0	35.4900	8	28.060	0	458.024	0	54.2	4	17.7	4	-1E+10	1	-1E+10	1	-1E+10	1	-1E+10	1	-1E+10	1	-1E+10	1
4901784	137	C	04/05/2019	10:49	-132.878	42.927	0	465.10	0	5.1440	0	35.4980	8	28.058	0	460.895	0	53.6	4	17.6	4	-1E+10	1	-1E+10	1	-1E+10	1	-1E+10	1	-1E+10	1	-1E+10	1
4901784	137	C	04/05/2019	10:49	-132.878	42.927	0	467.90	0	5.0650	0	35.4960	8	28.066	0	463.666	0	55.2	4	18.1	4	-1E+10	1	-1E+10	1	-1E+10	1	-1E+10	1	-1E+10	1	-1E+10	1
4901784	137	C	04/05/2019	10:49	-132.878	42.927	0	469.80	0	5.0190	0	35.4950	8	28.070	0	465.547	0	55.6	4	18.2	4	-1E+10	1	-1E+10	1	-1E+10	1	-1E+10	1	-1E+10	1	-1E+10	1
4901784	137	C	04/05/2019	10:49	-132.878	42.927	0	472.60	0	5.0020	0	35.4950	8	28.072	0	468.318	0	55.7	4	18.2	4	-1E+10	1	-1E+10	1	-1E+10	1	-1E+10	1	-1E+10	1	-1E+10	1
4901784	137	C	04/05/2019	10:49	-132.878	42.927	0	475.40	0	4.9260	0	35.4950	8	28.081	0	471.090	0	56.1	4	18.3	4	-1E+10	1	-1E+10	1	-1E+10	1	-1E+10	1	-1E+10	1	-1E+10	1
4901784	137	C	04/05/2019	10:49	-132.878	42.927	0	477.30	0	4.8890	0	35.4980	8	28.088	0	472.970	0	55.8	4	18.2	4	-1E+10	1	-1E+10	1	-1E+10	1	-1E+10	1	-1E+10	1	-1E+10	1
4901784	137	C	04/05/2019	10:49	-132.878	42.927	0	480.30	0	4.8540	0	35.4980	8	28.092	0	475.940	0	55.2	4	18.0	4	-1E+10	1	-1E+10	1	-1E+10	1	-1E+10	1	-1E+10	1	-1E+10	1
4901784	137	C	04/05/2019	10:49	-132.878	42.927	0	483.20	0	4.8190	0	35.5000	8	28.098	0	478.810	0	54.6	4	17.8	4	-1E+10	1	-1E+10	1	-1E+10	1	-1E+10	1	-1E+10	1	-1E+10	1
4901784	137	C	04/05/2019	10:49	-132.878	42.927	0	485.10	0	4.8050	0	35.5040	8	28.102	0	480.691	0	53.9	4	17.5	4	-1E+10	1	-1E+10	1	-1E+10	1	-1E+10	1	-1E+10	1	-1E+10	1
4901784	137	C	04/05/2019	10:49	-132.878	42.927	0	487.00	0	4.7980	0	35.5040	8	28.103	0	482.571	0	53.5	4	17.4	4	-1E+10	1	-1E+10	1	-1E+10	1	-1E+10	1	-1E+10	1	-1E+10	1
4901784	137	C	04/05/2019	10:49	-132.878	42.927	0	489.90	0	4.7900	0	35.5070	8	28.107	0	485.441	0	52.4	4	17.0	4	-1E+10	1	-1E+10	1	-1E+10	1	-1E+10	1	-1E+10	1	-1E+10	1
4901784	137	C	04/05/2019	10:49	-132.878	42.927	0	492.70	0	4.7830	0	35.5100	8	28.110	0	488.213	0	51.5	4	16.7	4	-1E+10	1	-1E+10	1	-1E+10	1	-1E+10	1	-1E+10	1	-1E+10	1
4901784	137	C	04/05/2019	10:49	-132.878	42.927	0	494.70	0	4.7820	0	35.5100	8	28.110	0	490.192	0	50.8	4	16.5	4	-1E+10	1	-1E+10	1	-1E+10	1	-1E+10	1	-1E+10	1	-1E+10	1
4901784	137	C	04/05/2019	10:49	-132.878	42.927	0	497.60	0	4.7730	0	35.5150	8	28.115	0	493.062	0	49.6	4	16.1	4	-1E+10	1	-1E+10	1	-1E+10	1	-1E+10	1	-1E+10	1	-1E+10	1
4901784	137	C	04/05/2019	10:49	-132.878	42.927	0	500.60	0	4.7630	0	35.5180	8	28.119	0	496.031	0	48.8	4	15.8	4	-1E+10	1	-1E+10	1	-1E+10	1	-1E+10	1	-1E+10	1	-1E+10	1
4901784	137	C	04/05/2019	10:49	-132.878	42.927	0	504.50	0	4.7460	0	35.5220	8	28.124	0	499.891	0	47.5	4	15.4	4	-1E+10	1	-1E+10	1	-1E+10	1	-1E+10	1	-1E+10	1	-1E+10	1
4901784	137	C	04/05/2019	10:49	-132.878	42.927	0	510.30	0	4.7210	0	35.5310	8	28.134	0	505.631	0	45.3	4	14.7	4	-1E+10	1	-1E+10	1	-1E+10	1	-1E+10	1	-1E+10	1	-1E+10	1
4901784	137	C	04/05/2019	10:49	-132.878	42.927	0	515.10	0	4.7080	0	35.5380	8	28.141	0	510.381	0	43.7	4	14.2	4	-1E+10	1	-1E+10	1	-1E+10	1	-1E+10	1	-1E+10	1	-1E+10	1
4901784	137	C	04/05/2019	10:49	-132.878	42.927	0	519.90	0	4.6910	0	35.5420	8	28.146	0	515.131	0	42.5	4	13.8	4	-1E+10	1	-1E+10	1	-1E+10	1	-1E+10	1	-1E+10	1	-1E+10	1
4901784	137	C	04/05/2019	10:49	-132.878	42.927	0	524.80	0	4.6700	0	35.5470	8	28.152	0	519.980	0	41.1	4	13.3	4	-1E+10	1	-1E+10	1	-1E+10	1	-1E+10	1	-1E+10	1	-1E+10	1
4901784	137	C	04/05/2019	10:49	-132.878	42.927	0	529.50	0	4.6430	0	35.5550	8	28.162	0	524.631	0	39.6	4	12.8	4	-1E+10	1	-1E+10	1	-1E+10	1	-1E+10	1	-1E+10	1	-1E+10	1
4901784	137	C	04/05/2019	10:49	-132.878	42.927	0	535.40	0	4.6210	0	35.5620	8	28.170	0	530.469	0	38.6	4	12.5	4	-1E+10	1	-1E+10	1	-1E+10	1	-1E+10	1	-1E+10	1	-1E+10	1
4901784	137	C	04/05/2019	10:49	-132.878	42.927	0	540.20	0	4.6080	0	35.5650	8	28.174	0	535.219	0	37.9	4	12.3	4	-1E+10	1	-1E+10	1	-1E+10	1	-1E+10	1	-1E+10	1	-1E+10	1
4901784	137	C	04/05/2019	10:49	-132.878	42.927	0	545.10	0	4.5900	0	35.5690	8	28.179	0	540.067	0	37.1	4	12.0	4	-1E+10	1	-1E+10	1	-1E+10	1	-1E+10	1	-1E+10	1	-1E+10	1
4901784	137	C	04/05/2019	10:49	-132.878	42.927	0	550.60	0	4.5770	0	35.5720	8	28.183	0	545.509	0	36.0	4	11.6	4	-1E+10	1	-1E+10	1	-1E+10	1	-1E+10	1	-1E+10	1	-1E+10	1
4901784	137	C	04/05/2019	10:49	-132.878	42.927	0	555.50	0	4.5520	0	35.5790	8	28.191	0	550.358	0	34.7	4	11.2	4	-1E+10	1	-1E+10	1	-1E+10	1	-1E+10	1	-1E+10	1	-1E+10	1
4901784	137	C	04/05/2019	10:49	-132.878	42.927	0	560.50	0	4.5400	0	35.5830	8	28.196	0	555.305	0	33.5	4	10.8	4	-1E+10	1	-1E+10	1	-1E+10	1	-1E+10	1	-1E+10	1	-1E+10	1
4901784	137	C	04/05/2019	10:49	-132.878	42.927	0	565.50	0	4.5240	0	35.5890	8	28.203	0	560.251	0	32.1	4	10.4	4	-1E+10	1	-1E+10	1	-1E+10	1	-1E+10	1	-1E+10	1	-1E+10	1
4901784	137	C	04/05/2019	10:49	-132.878	42.927	0	570.40	0	4.4990	0	35.5980	8	28.213	0	565.099	0	31.1	4	10.0	4	-1E+10	1	-1E+10	1	-1E+10	1	-1E+10	1	-1E+10	1	-1E+10	1
4901784	137	C	04/05/2019	10:49	-132.878	42.927	0	575.40	0	4.4860	0	35.6020	8	28.217	0	570.046	0	30.5	4	9.8	4	-1E+10	1	-1E+10	1	-1E+10	1	-1E+10	1	-1E+10	1	-1E+10	1
4901784	137	C	04/05/2019	10:49	-132.878	42.927	0	580.50	0	4.4720	0	35.6060	8	28.222	0	575.092	0	29.9	4	9.7	4	-1E+10	1	-1E+10	1	-1E+10	1	-1E+10	1	-1E+10	1	-1E+10	1
4901784	137	C	04/05/2019	10:49	-132.878	42.927	0	585.40	0	4.4610	0	35.6090	8	28.226	0	579.939	0	29.5	4	9.5	4	-1E+10	1	-1E+10	1	-1E+10	1	-1E+10	1	-1E+10	1	-1E+10	1
4901784	137	C	04/05/2019	10:49	-132.878	42.927	0	590.40	0	4.4280	0	35.6130	8	28.233	0	584.885	0	29.1	4	9.4	4	-1E+10	1	-1E+10	1	-1E+10	1	-1E+10	1	-1E+10	1	-1E+10	1
4901784	137	C	04/05/2019	10:49	-132.878	42.927	0	595.40	0	4.4070	0	35.6180	8	28.239	0	589.832	0	28.2	4	9.1	4	-1E+10	1	-1E+10	1	-1E+10	1	-1E+10	1	-1E+10	1	-1E+10	1
4901784	137	C	04/05/2019	10:49	-132.878	42.927	0	600.40	0	4.3900	0	35.6230	8	28.245	0	594.778	0	27.7	4	8.9	4	-1E+10	1	-1E+10	1	-1E+10	1	-1E+10	1	-1E+10	1	-1E+10	1
4901784	137	C	04/05/2019	10:49	-132.878	42.927	0	605.30	0	4.3720	0	35.6260	8	28.249	0	599.625	0	27.2	4	8.8	4	-1E+10	1	-1E+10	1	-1E+10	1	-1E+10	1	-1E+10	1	-1E+10	1
4901784	137	C	04/05/2019	10:49	-132.878	42.927	0	610.40	0	4.3460	0	35.6300	8	28.255	0	604.670	0	26.0	4	8.4	4	-1E+10	1	-1E+10	1	-1E+10	1	-1E+10	1	-1E+10	1	-1E+10	1
4901784	137	C	04/05/2019	10:49	-132.878	42.927	0	615.50	0	4.3120	0	35.6410	8	28.268	0	609.714	0	25.1	4	8.1	4	-1E+10	1	-1E+10	1	-1E+10	1	-1E+10	1	-1E+10	1	-1E+10	1
4901784	137	C	04/05/2019	10:49	-132.878	42.927	0	620.60	0	4.2960	0	35.6450	8	28.273	0	614.759	0	24.3	4	7.8	4	-1E+10	1	-1E+10	1	-1E+10	1	-1E+10	1	-1E+10	1	-1E+10	1
4901784	137	C	04/05/2019	10:49	-132.878	42.927	0	625.70	0	4.2820	0	35.6500	8	28.278	0	619.803	0	23.4	4	7.5	4	-1E+10	1	-1E+10	1	-1E+10	1	-1E+10	1	-1E+10	1	-1E+10	1
4901784	137	C	04/05/2019	10:49	-132.878	42.927	0	630.10	0	4.2680	0	35.6570	8	28.285	0	624.155	0	22.7	4	7.3	4	-1E+10	1	-1E+10	1	-1E+10	1	-1E+10	1	-1E+10	1	-1E+10	1
4901784	137	C	04/05/2019	10:49	-132.878	42.927	0	634.40	0	4.2530	0	35.6620	8	28.291	0	628.408	0	22.1	4	7.1	4	-1E+10	1	-1E+10	1	-1E+10	1	-1E+10	1	-1E+10	1	-1E+10	1
4901784	137	C	04/05/2019	10:49	-132.878	42.927	0	639.70	0	4.2360	0	35.6680	8	28.298	0	633.650	0	21.6	4	6.9	4	-1E+10	1	-1E+10	1	-1E+10	1	-1E+10	1	-1E+10	1	-1E+10	1
4901784	137	C	04/05/2019	10:49	-132.878	42.927	0	644.90	0	4.2140	0	35.6730	8	28.304	0	638.793	0	21.3	4	6.8	4	-1E+10	1	-1E+10	1	-1E+10	1	-1E+10	1	-1E+10	1	-1E+10	1
4901784	137	C	04/05/2019	10:49	-132.878	42.927	0	650.20	0	4.1960	0	35.6780	8	28.310	0	644.034	0	20.7	4	6.7	4	-1E+10	1	-1E+10	1	-1E+10	1	-1E+10	1	-1E+10	1	-1E+10	1
4901784	137	C	04/05/2019	10:49	-132.878	42.927	0	655.40	0	4.1890	0	35.6820	8	28.314	0	649.177	0	20.1	4	6.5	4	-1E+10	1	-1E+10	1	-1E+10	1	-1E+10	1	-1E+10	1	-1E+10	1
4901784	137	C	04/05/2019	10:49	-132.878	42.927	0	660.60	0	4.1730	0	35.6880	8	28.321	0	654.319	0	19.5	4	6.3	4	-1E+10	1	-1E+10	1	-1E+10	1	-1E+10	1	-1E+10	1	-1E+10	1
4901784	137	C	04/05/2019	10:49	-132.878	42.927	0	665.10	0	4.1550	0	35.6940	8	28.327	0	658.770	0	19.1	4	6.1	4	-1E+10	1	-1E+10	1	-1E+10	1	-1E+10	1	-1E+10	1	-1E+10	1
4901784	137	C	04/05/2019	10:49	-132.878	42.927	0	669.60	0	4.1410	0	35.6970	8	28.331	0	663.220	0	18.9	4	6.1	4	-1E+10	1	-1E+10	1	-1E+10	1	-1E+10	1	-1E+10	1	-1E+10	1
4901784	137	C	04/05/2019	10:49	-132.878	42.927	0	675.00	0	4.1120	0	35.7030	8	28.339	0	668.559	0	18.7	4	6.0	4	-1E+10	1	-1E+10	1	-1E+10	1	-1E+10	1	-1E+10	1	-1E+10	1
4901784	137	C	04/05/2019	10:49	-132.878	42.927	0	680.50	0	4.0930	0	35.7060	8	28.344	0	673.998	0	18.7	4	6.0	4	-1E+10	1	-1E+10	1	-1E+10	1	-1E+10	1	-1E+10	1	-1E+10	1
4901784	137	C	04/05/2019	10:49	-132.878	42.927	0	685.10	0	4.0730	0	35.7090	8	28.348	0	678.547	0	18.5	4	5.9	4	-1E+10	1	-1E+10	1	-1E+10	1	-1E+10	1	-1E+10	1	-1E+10	1
4901784	137	C	04/05/2019	10:49	-132.878	42.927	0	689.70	0	4.0620	0	35.7130	8	28.353	0	683.095	0	18.0	4	5.8	4	-1E+10	1	-1E+10	1	-1E+10	1	-1E+10	1	-1E+10	1	-1E+10	1
4901784	137	C	04/05/2019	10:49	-132.878	42.927	0	695.30	0	4.0580	0	35.7170	8	28.356	0	688.632	0	17.7	4	5.7	4	-1E+10	1	-1E+10	1	-1E+10	1	-1E+10	1	-1E+10	1	-1E+10	1
4901784	137	C	04/05/2019	10:49	-132.878	42.927	0	700.30	0	4.0500	0	35.7190	8	28.359	0	693.576	0	17.6	4	5.6	4	-1E+10	1	-1E+10	1	-1E+10	1	-1E+10	1	-1E+10	1	-1E+10	1
4901784	137	C	04/05/2019	10:49	-132.878	42.927	0	704.80	0	4.0210	0	35.7230	8	28.365	0	698.025	0	17.4	4	5.6	4	-1E+10	1	-1E+10	1	-1E+10	1	-1E+10	1	-1E+10	1	-1E+10	1
4901784	137	C	04/05/2019	10:49	-132.878	42.927	0	709.70	0	4.0020	0	35.7270	8	28.370	0	702.870	0	17.1	4	5.5	4	-1E+10	1	-1E+10	1	-1E+10	1	-1E+10	1	-1E+10	1	-1E+10	1
4901784	137	C	04/05/2019	10:49	-132.878	42.927	0	714.60	0	3.9880	0	35.7310	8	28.375	0	707.714	0	16.6	4	5.3	4	-1E+10	1	-1E+10	1	-1E+10	1	-1E+10	1	-1E+10	1	-1E+10	1
4901784	137	C	04/05/2019	10:49	-132.878	42.927	0	719.60	0	3.9760	0	35.7400	8	28.384	0	712.658	0	16.0	4	5.1	4	-1E+10	1	-1E+10	1	-1E+10	1	-1E+10	1	-1E+10	1	-1E+10	1
4901784	137	C	04/05/2019	10:49	-132.878	42.927	0	724.60	0	3.9700	0	35.7450	8	28.388	0	717.601	0	15.4	4	4.9	4	-1E+10	1	-1E+10	1	-1E+10	1	-1E+10	1	-1E+10	1	-1E+10	1
4901784	137	C	04/05/2019	10:49	-132.878	42.927	0	729.50	0	3.9890	0	35.7520	8	28.392	0	722.445	0	14.8	4	4.7	4	-1E+10	1	-1E+10	1	-1E+10	1	-1E+10	1	-1E+10	1	-1E+10	1
4901784	137	C	04/05/2019	10:49	-132.878	42.927	0	734.50	0	3.9760	0	35.7540	8	28.395	0	727.388	0	14.8	4	4.7	4	-1E+10	1	-1E+10	1	-1E+10	1	-1E+10	1	-1E+10	1	-1E+10	1
4901784	137	C	04/05/2019	10:49	-132.878	42.927	0	739.70	0	3.9390	0	35.7580	8	28.402	0	732.529	0	14.6	4	4.7	4	-1E+10	1	-1E+10	1	-1E+10	1	-1E+10	1	-1E+10	1	-1E+10	1
4901784	137	C	04/05/2019	10:49	-132.878	42.927	0	744.80	0	3.9200	0	35.7630	8	28.408	0	737.570	0	14.4	4	4.6	4	-1E+10	1	-1E+10	1	-1E+10	1	-1E+10	1	-1E+10	1	-1E+10	1
4901784	137	C	04/05/2019	10:49	-132.878	42.927	0	750.00	0	3.9120	0	35.7680	8	28.413	0	742.710	0	14.0	4	4.5	4	-1E+10	1	-1E+10	1	-1E+10	1	-1E+10	1	-1E+10	1	-1E+10	1
4901784	137	C	04/05/2019	10:49	-132.878	42.927	0	755.20	0	3.9080	0	35.7740	8	28.418	0	747.850	0	13.5	4	4.3	4	-1E+10	1	-1E+10	1	-1E+10	1	-1E+10	1	-1E+10	1	-1E+10	1
4901784	137	C	04/05/2019	10:49	-132.878	42.927	0	760.50	0	3.9170	0	35.7810	8	28.423	0	753.089	0	13.1	4	4.2	4	-1E+10	1	-1E+10	1	-1E+10	1	-1E+10	1	-1E+10	1	-1E+10	1
4901784	137	C	04/05/2019	10:49	-132.878	42.927	0	765.70	0	3.9160	0	35.7840	8	28.425	0	758.229	0	13.1	4	4.2	4	-1E+10	1	-1E+10	1	-1E+10	1	-1E+10	1	-1E+10	1	-1E+10	1
4901784	137	C	04/05/2019	10:49	-132.878	42.927	0	770.10	0	3.9030	0	35.7830	8	28.426	0	762.578	0	13.1	4	4.2	4	-1E+10	1	-1E+10	1	-1E+10	1	-1E+10	1	-1E+10	1	-1E+10	1
4901784	137	C	04/05/2019	10:49	-132.878	42.927	0	774.40	0	3.8820	0	35.7860	8	28.431	0	766.828	0	12.9	4	4.1	4	-1E+10	1	-1E+10	1	-1E+10	1	-1E+10	1	-1E+10	1	-1E+10	1
4901784	137	C	04/05/2019	10:49	-132.878	42.927	0	779.80	0	3.8530	0	35.7910	8	28.438	0	772.166	0	12.7	4	4.1	4	-1E+10	1	-1E+10	1	-1E+10	1	-1E+10	1	-1E+10	1	-1E+10	1
4901784	137	C	04/05/2019	10:49	-132.878	42.927	0	785.20	0	3.8400	0	35.7970	8	28.444	0	777.503	0	12.4	4	3.9	4	-1E+10	1	-1E+10	1	-1E+10	1	-1E+10	1	-1E+10	1	-1E+10	1
4901784	137	C	04/05/2019	10:49	-132.878	42.927	0	789.80	0	3.8590	0	35.8050	8	28.448	0	782.049	0	12.0	4	3.8	4	-1E+10	1	-1E+10	1	-1E+10	1	-1E+10	1	-1E+10	1	-1E+10	1
4901784	137	C	04/05/2019	10:49	-132.878	42.927	0	794.40	0	3.8570	0	35.8100	8	28.452	0	786.595	0	11.9	4	3.8	4	-1E+10	1	-1E+10	1	-1E+10	1	-1E+10	1	-1E+10	1	-1E+10	1
4901784	137	C	04/05/2019	10:49	-132.878	42.927	0	799.90	0	3.8270	0	35.8110	8	28.456	0	792.031	0	12.0	4	3.8	4	-1E+10	1	-1E+10	1	-1E+10	1	-1E+10	1	-1E+10	1	-1E+10	1
4901784	137	C	04/05/2019	10:49	-132.878	42.927	0	805.30	0	3.7950	0	35.8150	8	28.463	0	797.367	0	11.9	4	3.8	4	-1E+10	1	-1E+10	1	-1E+10	1	-1E+10	1	-1E+10	1	-1E+10	1
4901784	137	C	04/05/2019	10:49	-132.878	42.927	0	809.90	0	3.7880	0	35.8180	8	28.466	0	801.913	0	11.7	4	3.7	4	-1E+10	1	-1E+10	1	-1E+10	1	-1E+10	1	-1E+10	1	-1E+10	1
4901784	137	C	04/05/2019	10:49	-132.878	42.927	0	814.60	0	3.7850	0	35.8240	8	28.471	0	806.558	0	11.6	4	3.7	4	-1E+10	1	-1E+10	1	-1E+10	1	-1E+10	1	-1E+10	1	-1E+10	1
4901784	137	C	04/05/2019	10:49	-132.878	42.927	0	820.20	0	3.7760	0	35.8260	8	28.474	0	812.092	0	11.5	4	3.7	4	-1E+10	1	-1E+10	1	-1E+10	1	-1E+10	1	-1E+10	1	-1E+10	1
4901784	137	C	04/05/2019	10:49	-132.878	42.927	0	825.00	0	3.7580	0	35.8280	8	28.477	0	816.835	0	11.4	4	3.6	4	-1E+10	1	-1E+10	1	-1E+10	1	-1E+10	1	-1E+10	1	-1E+10	1
4901784	137	C	04/05/2019	10:49	-132.878	42.927	0	829.70	0	3.7520	0	35.8330	8	28.482	0	821.479	0	11.3	4	3.6	4	-1E+10	1	-1E+10	1	-1E+10	1	-1E+10	1	-1E+10	1	-1E+10	1
4901784	137	C	04/05/2019	10:49	-132.878	42.927	0	834.50	0	3.7530	0	35.8350	8	28.483	0	826.222	0	11.3	4	3.6	4	-1E+10	1	-1E+10	1	-1E+10	1	-1E+10	1	-1E+10	1	-1E+10	1
4901784	137	C	04/05/2019	10:49	-132.878	42.927	0	839.20	0	3.7540	0	35.8360	8	28.484	0	830.866	0	11.2	4	3.6	4	-1E+10	1	-1E+10	1	-1E+10	1	-1E+10	1	-1E+10	1	-1E+10	1
4901784	137	C	04/05/2019	10:49	-132.878	42.927	0	844.60	0	3.7510	0	35.8380	8	28.486	0	836.202	0	11.2	4	3.5	4	-1E+10	1	-1E+10	1	-1E+10	1	-1E+10	1	-1E+10	1	-1E+10	1
4901784	137	C	04/05/2019	10:49	-132.878	42.927	0	849.40	0	3.7410	0	35.8420	8	28.490	0	840.944	0	11.1	4	3.5	4	-1E+10	1	-1E+10	1	-1E+10	1	-1E+10	1	-1E+10	1	-1E+10	1
4901784	137	C	04/05/2019	10:49	-132.878	42.927	0	854.20	0	3.7310	0	35.8440	8	28.493	0	845.687	0	11.0	4	3.5	4	-1E+10	1	-1E+10	1	-1E+10	1	-1E+10	1	-1E+10	1	-1E+10	1
4901784	137	C	04/05/2019	10:49	-132.878	42.927	0	859.90	0	3.7090	0	35.8500	8	28.500	0	851.318	0	10.9	4	3.5	4	-1E+10	1	-1E+10	1	-1E+10	1	-1E+10	1	-1E+10	1	-1E+10	1
4901784	137	C	04/05/2019	10:49	-132.878	42.927	0	865.80	0	3.6980	0	35.8540	8	28.505	0	857.147	0	10.8	4	3.4	4	-1E+10	1	-1E+10	1	-1E+10	1	-1E+10	1	-1E+10	1	-1E+10	1
4901784	137	C	04/05/2019	10:49	-132.878	42.927	0	870.80	0	3.6930	0	35.8580	8	28.508	0	862.087	0	10.7	4	3.4	4	-1E+10	1	-1E+10	1	-1E+10	1	-1E+10	1	-1E+10	1	-1E+10	1
4901784	137	C	04/05/2019	10:49	-132.878	42.927	0	875.80	0	3.6910	0	35.8610	8	28.511	0	867.027	0	10.6	4	3.4	4	-1E+10	1	-1E+10	1	-1E+10	1	-1E+10	1	-1E+10	1	-1E+10	1
4901784	137	C	04/05/2019	10:49	-132.878	42.927	0	880.80	0	3.6860	0	35.8660	8	28.515	0	871.966	0	10.6	4	3.3	4	-1E+10	1	-1E+10	1	-1E+10	1	-1E+10	1	-1E+10	1	-1E+10	1
4901784	137	C	04/05/2019	10:49	-132.878	42.927	0	885.00	0	3.6880	0	35.8690	8	28.518	0	876.115	0	10.5	4	3.3	4	-1E+10	1	-1E+10	1	-1E+10	1	-1E+10	1	-1E+10	1	-1E+10	1
4901784	137	C	04/05/2019	10:49	-132.878	42.927	0	889.30	0	3.6800	0	35.8730	8	28.522	0	880.363	0	10.4	4	3.3	4	-1E+10	1	-1E+10	1	-1E+10	1	-1E+10	1	-1E+10	1	-1E+10	1
4901784	137	C	04/05/2019	10:49	-132.878	42.927	0	894.40	0	3.6660	0	35.8750	8	28.525	0	885.401	0	10.4	4	3.3	4	-1E+10	1	-1E+10	1	-1E+10	1	-1E+10	1	-1E+10	1	-1E+10	1
4901784	137	C	04/05/2019	10:49	-132.878	42.927	0	899.50	0	3.6480	0	35.8750	8	28.527	0	890.439	0	10.4	4	3.3	4	-1E+10	1	-1E+10	1	-1E+10	1	-1E+10	1	-1E+10	1	-1E+10	1
4901784	137	C	04/05/2019	10:49	-132.878	42.927	0	904.60	0	3.6380	0	35.8810	8	28.532	0	895.476	0	10.4	4	3.3	4	-1E+10	1	-1E+10	1	-1E+10	1	-1E+10	1	-1E+10	1	-1E+10	1
4901784	137	C	04/05/2019	10:49	-132.878	42.927	0	909.70	0	3.6500	0	35.8870	8	28.536	0	900.514	0	10.3	4	3.3	4	-1E+10	1	-1E+10	1	-1E+10	1	-1E+10	1	-1E+10	1	-1E+10	1
4901784	137	C	04/05/2019	10:49	-132.878	42.927	0	914.90	0	3.6470	0	35.8880	8	28.537	0	905.650	0	10.3	4	3.3	4	-1E+10	1	-1E+10	1	-1E+10	1	-1E+10	1	-1E+10	1	-1E+10	1
4901784	137	C	04/05/2019	10:49	-132.878	42.927	0	920.10	0	3.6390	0	35.8920	8	28.541	0	910.786	0	10.3	4	3.3	4	-1E+10	1	-1E+10	1	-1E+10	1	-1E+10	1	-1E+10	1	-1E+10	1
4901784	137	C	04/05/2019	10:49	-132.878	42.927	0	925.30	0	3.6200	0	35.8970	8	28.547	0	915.922	0	10.3	4	3.3	4	-1E+10	1	-1E+10	1	-1E+10	1	-1E+10	1	-1E+10	1	-1E+10	1
4901784	137	C	04/05/2019	10:49	-132.878	42.927	0	930.70	0	3.6090	0	35.9010	8	28.552	0	921.256	0	10.3	4	3.2	4	-1E+10	1	-1E+10	1	-1E+10	1	-1E+10	1	-1E+10	1	-1E+10	1
4901784	137	C	04/05/2019	10:49	-132.878	42.927	0	935.10	0	3.5910	0	35.9050	8	28.557	0	925.601	0	10.2	4	3.2	4	-1E+10	1	-1E+10	1	-1E+10	1	-1E+10	1	-1E+10	1	-1E+10	1
4901784	137	C	04/05/2019	10:49	-132.878	42.927	0	939.40	0	3.5660	0	35.9050	8	28.559	0	929.848	0	10.2	4	3.2	4	-1E+10	1	-1E+10	1	-1E+10	1	-1E+10	1	-1E+10	1	-1E+10	1
4901784	137	C	04/05/2019	10:49	-132.878	42.927	0	944.70	0	3.5410	0	35.9050	8	28.562	0	935.083	0	10.2	4	3.2	4	-1E+10	1	-1E+10	1	-1E+10	1	-1E+10	1	-1E+10	1	-1E+10	1
4901784	137	C	04/05/2019	10:49	-132.878	42.927	0	950.00	0	3.5370	0	35.9080	8	28.565	0	940.317	0	10.2	4	3.2	4	-1E+10	1	-1E+10	1	-1E+10	1	-1E+10	1	-1E+10	1	-1E+10	1
4901784	137	C	04/05/2019	10:49	-132.878	42.927	0	955.30	0	3.5290	0	35.9120	8	28.569	0	945.551	0	10.2	4	3.2	4	-1E+10	1	-1E+10	1	-1E+10	1	-1E+10	1	-1E+10	1	-1E+10	1
4901784	137	C	04/05/2019	10:49	-132.878	42.927	0	960.60	0	3.5230	0	35.9130	8	28.570	0	950.785	0	10.3	4	3.2	4	-1E+10	1	-1E+10	1	-1E+10	1	-1E+10	1	-1E+10	1	-1E+10	1
4901784	137	C	04/05/2019	10:49	-132.878	42.927	0	965.00	0	3.5190	0	35.9180	8	28.574	0	955.130	0	10.3	4	3.2	4	-1E+10	1	-1E+10	1	-1E+10	1	-1E+10	1	-1E+10	1	-1E+10	1
4901784	137	C	04/05/2019	10:49	-132.878	42.927	0	969.40	0	3.5050	0	35.9200	8	28.577	0	959.475	0	10.3	4	3.3	4	-1E+10	1	-1E+10	1	-1E+10	1	-1E+10	1	-1E+10	1	-1E+10	1
4901784	137	C	04/05/2019	10:49	-132.878	42.927	0	974.80	0	3.4950	0	35.9250	8	28.583	0	964.807	0	10.3	4	3.3	4	-1E+10	1	-1E+10	1	-1E+10	1	-1E+10	1	-1E+10	1	-1E+10	1
4901784	137	C	04/05/2019	10:49	-132.878	42.927	0	980.00	0	3.4860	0	35.9280	8	28.586	0	969.941	0	10.3	4	3.3	4	-1E+10	1	-1E+10	1	-1E+10	1	-1E+10	1	-1E+10	1	-1E+10	1
4901784	137	C	04/05/2019	10:49	-132.878	42.927	0	985.20	0	3.4870	0	35.9310	8	28.588	0	975.076	0	10.4	4	3.3	4	-1E+10	1	-1E+10	1	-1E+10	1	-1E+10	1	-1E+10	1	-1E+10	1
4901784	137	C	04/05/2019	10:49	-132.878	42.927	0	990.40	0	3.4860	0	35.9340	8	28.591	0	980.210	0	10.5	4	3.3	4	-1E+10	1	-1E+10	1	-1E+10	1	-1E+10	1	-1E+10	1	-1E+10	1
4901784	137	C	04/05/2019	10:49	-132.878	42.927	0	995.60	0	3.4840	0	35.9390	8	28.595	0	985.345	0	10.5	4	3.3	4	-1E+10	1	-1E+10	1	-1E+10	1	-1E+10	1	-1E+10	1	-1E+10	1
4901784	137	C	04/05/2019	10:49	-132.878	42.927	0	1000.00	0	3.4830	0	35.9400	8	28.596	0	989.689	0	10.6	4	3.3	4	-1E+10	1	-1E+10	1	-1E+10	1	-1E+10	1	-1E+10	1	-1E+10	1
4901784	137	C	04/05/2019	10:49	-132.878	42.927	0	1004.40	0	3.4760	0	35.9420	8	28.598	0	994.033	0	10.6	4	3.4	4	-1E+10	1	-1E+10	1	-1E+10	1	-1E+10	1	-1E+10	1	-1E+10	1
4901784	137	C	04/05/2019	10:49	-132.878	42.927	0	1009.60	0	3.4660	0	35.9440	8	28.601	0	999.167	0	10.7	4	3.4	4	-1E+10	1	-1E+10	1	-1E+10	1	-1E+10	1	-1E+10	1	-1E+10	1
4901784	137	C	04/05/2019	10:49	-132.878	42.927	0	1014.90	0	3.4550	0	35.9480	8	28.605	0	1004.400	0	10.8	4	3.4	4	-1E+10	1	-1E+10	1	-1E+10	1	-1E+10	1	-1E+10	1	-1E+10	1
4901784	137	C	04/05/2019	10:49	-132.878	42.927	0	1020.30	0	3.4410	0	35.9510	8	28.609	0	1009.731	0	10.8	4	3.4	4	-1E+10	1	-1E+10	1	-1E+10	1	-1E+10	1	-1E+10	1	-1E+10	1
4901784	137	C	04/05/2019	10:49	-132.878	42.927	0	1024.80	0	3.4330	0	35.9530	8	28.611	0	1014.173	0	10.9	4	3.4	4	-1E+10	1	-1E+10	1	-1E+10	1	-1E+10	1	-1E+10	1	-1E+10	1
4901784	137	C	04/05/2019	10:49	-132.878	42.927	0	1029.40	0	3.4190	0	35.9560	8	28.615	0	1018.714	0	11.0	4	3.5	4	-1E+10	1	-1E+10	1	-1E+10	1	-1E+10	1	-1E+10	1	-1E+10	1
4901784	137	C	04/05/2019	10:49	-132.878	42.927	0	1034.80	0	3.4130	0	35.9600	8	28.619	0	1024.045	0	11.1	4	3.5	4	-1E+10	1	-1E+10	1	-1E+10	1	-1E+10	1	-1E+10	1	-1E+10	1
4901784	137	C	04/05/2019	10:49	-132.878	42.927	0	1040.30	0	3.4070	0	35.9630	8	28.622	0	1029.475	0	11.2	4	3.5	4	-1E+10	1	-1E+10	1	-1E+10	1	-1E+10	1	-1E+10	1	-1E+10	1
4901784	137	C	04/05/2019	10:49	-132.878	42.927	0	1044.80	0	3.3970	0	35.9660	8	28.626	0	1033.917	0	11.3	4	3.6	4	-1E+10	1	-1E+10	1	-1E+10	1	-1E+10	1	-1E+10	1	-1E+10	1
4901784	137	C	04/05/2019	10:49	-132.878	42.927	0	1049.40	0	3.3870	0	35.9690	8	28.629	0	1038.457	0	11.4	4	3.6	4	-1E+10	1	-1E+10	1	-1E+10	1	-1E+10	1	-1E+10	1	-1E+10	1
4901784	137	C	04/05/2019	10:49	-132.878	42.927	0	1054.80	0	3.3790	0	35.9710	8	28.631	0	1043.788	0	11.5	4	3.6	4	-1E+10	1	-1E+10	1	-1E+10	1	-1E+10	1	-1E+10	1	-1E+10	1
4901784	137	C	04/05/2019	10:49	-132.878	42.927	0	1060.30	0	3.3690	0	35.9730	8	28.634	0	1049.216	0	11.5	4	3.6	4	-1E+10	1	-1E+10	1	-1E+10	1	-1E+10	1	-1E+10	1	-1E+10	1
4901784	137	C	04/05/2019	10:49	-132.878	42.927	0	1064.90	0	3.3600	0	35.9750	8	28.637	0	1053.757	0	11.5	4	3.6	4	-1E+10	1	-1E+10	1	-1E+10	1	-1E+10	1	-1E+10	1	-1E+10	1
4901784	137	C	04/05/2019	10:49	-132.878	42.927	0	1069.40	0	3.3460	0	35.9750	8	28.638	0	1058.198	0	11.6	4	3.6	4	-1E+10	1	-1E+10	1	-1E+10	1	-1E+10	1	-1E+10	1	-1E+10	1
4901784	137	C	04/05/2019	10:49	-132.878	42.927	0	1074.80	0	3.3320	0	35.9780	8	28.642	0	1063.528	0	11.7	4	3.7	4	-1E+10	1	-1E+10	1	-1E+10	1	-1E+10	1	-1E+10	1	-1E+10	1
4901784	137	C	04/05/2019	10:49	-132.878	42.927	0	1080.20	0	3.3210	0	35.9810	8	28.645	0	1068.858	0	11.8	4	3.7	4	-1E+10	1	-1E+10	1	-1E+10	1	-1E+10	1	-1E+10	1	-1E+10	1
4901784	137	C	04/05/2019	10:49	-132.878	42.927	0	1085.50	0	3.3090	0	35.9820	8	28.647	0	1074.089	0	11.8	4	3.7	4	-1E+10	1	-1E+10	1	-1E+10	1	-1E+10	1	-1E+10	1	-1E+10	1
4901784	137	C	04/05/2019	10:49	-132.878	42.927	0	1090.00	0	3.3010	0	35.9850	8	28.650	0	1078.530	0	11.9	4	3.8	4	-1E+10	1	-1E+10	1	-1E+10	1	-1E+10	1	-1E+10	1	-1E+10	1
4901784	137	C	04/05/2019	10:49	-132.878	42.927	0	1094.40	0	3.2960	0	35.9870	8	28.653	0	1082.872	0	12.0	4	3.8	4	-1E+10	1	-1E+10	1	-1E+10	1	-1E+10	1	-1E+10	1	-1E+10	1
4901784	137	C	04/05/2019	10:49	-132.878	42.927	0	1099.70	0	3.2890	0	35.9880	8	28.654	0	1088.102	0	12.0	4	3.8	4	-1E+10	1	-1E+10	1	-1E+10	1	-1E+10	1	-1E+10	1	-1E+10	1
4901784	137	C	04/05/2019	10:49	-132.878	42.927	0	1105.10	0	3.2780	0	35.9900	8	28.657	0	1093.431	0	12.2	4	3.8	4	-1E+10	1	-1E+10	1	-1E+10	1	-1E+10	1	-1E+10	1	-1E+10	1
4901784	137	C	04/05/2019	10:49	-132.878	42.927	0	1110.20	0	3.2690	0	35.9930	8	28.660	0	1098.464	0	12.3	4	3.9	4	-1E+10	1	-1E+10	1	-1E+10	1	-1E+10	1	-1E+10	1	-1E+10	1
4901784	137	C	04/05/2019	10:49	-132.878	42.927	0	1115.00	0	3.2620	0	35.9950	8	28.662	0	1103.201	0	12.3	4	3.9	4	-1E+10	1	-1E+10	1	-1E+10	1	-1E+10	1	-1E+10	1	-1E+10	1
4901784	137	C	04/05/2019	10:49	-132.878	42.927	0	1120.40	0	3.2530	0	35.9960	8	28.664	0	1108.530	0	12.4	4	3.9	4	-1E+10	1	-1E+10	1	-1E+10	1	-1E+10	1	-1E+10	1	-1E+10	1
4901784	137	C	04/05/2019	10:49	-132.878	42.927	0	1125.20	0	3.2490	0	35.9980	8	28.666	0	1113.266	0	12.6	4	4.0	4	-1E+10	1	-1E+10	1	-1E+10	1	-1E+10	1	-1E+10	1	-1E+10	1
4901784	137	C	04/05/2019	10:49	-132.878	42.927	0	1130.20	0	3.2400	0	36.0010	8	28.669	0	1118.200	0	12.7	4	4.0	4	-1E+10	1	-1E+10	1	-1E+10	1	-1E+10	1	-1E+10	1	-1E+10	1
4901784	137	C	04/05/2019	10:49	-132.878	42.927	0	1135.30	0	3.2170	0	36.0030	8	28.673	0	1123.232	0	12.9	4	4.0	4	-1E+10	1	-1E+10	1	-1E+10	1	-1E+10	1	-1E+10	1	-1E+10	1
4901784	137	C	04/05/2019	10:49	-132.878	42.927	0	1140.50	0	3.2070	0	36.0060	8	28.677	0	1128.363	0	13.0	4	4.1	4	-1E+10	1	-1E+10	1	-1E+10	1	-1E+10	1	-1E+10	1	-1E+10	1
4901784	137	C	04/05/2019	10:49	-132.878	42.927	0	1144.90	0	3.1970	0	36.0090	8	28.680	0	1132.704	0	13.2	4	4.1	4	-1E+10	1	-1E+10	1	-1E+10	1	-1E+10	1	-1E+10	1	-1E+10	1
4901784	137	C	04/05/2019	10:49	-132.878	42.927	0	1149.30	0	3.1900	0	36.0110	8	28.682	0	1137.045	0	13.3	4	4.2	4	-1E+10	1	-1E+10	1	-1E+10	1	-1E+10	1	-1E+10	1	-1E+10	1
4901784	137	C	04/05/2019	10:49	-132.878	42.927	0	1154.50	0	3.1800	0	36.0130	8	28.685	0	1142.176	0	13.5	4	4.2	4	-1E+10	1	-1E+10	1	-1E+10	1	-1E+10	1	-1E+10	1	-1E+10	1
4901784	137	C	04/05/2019	10:49	-132.878	42.927	0	1159.90	0	3.1720	0	36.0150	8	28.687	0	1147.503	0	13.6	4	4.3	4	-1E+10	1	-1E+10	1	-1E+10	1	-1E+10	1	-1E+10	1	-1E+10	1
4901784	137	C	04/05/2019	10:49	-132.878	42.927	0	1165.20	0	3.1600	0	36.0170	8	28.690	0	1152.732	0	13.7	4	4.3	4	-1E+10	1	-1E+10	1	-1E+10	1	-1E+10	1	-1E+10	1	-1E+10	1
4901784	137	C	04/05/2019	10:49	-132.878	42.927	0	1170.60	0	3.1440	0	36.0190	8	28.693	0	1158.059	0	13.9	4	4.4	4	-1E+10	1	-1E+10	1	-1E+10	1	-1E+10	1	-1E+10	1	-1E+10	1
4901784	137	C	04/05/2019	10:49	-132.878	42.927	0	1175.20	0	3.1350	0	36.0210	8	28.696	0	1162.597	0	14.0	4	4.4	4	-1E+10	1	-1E+10	1	-1E+10	1	-1E+10	1	-1E+10	1	-1E+10	1
4901784	137	C	04/05/2019	10:49	-132.878	42.927	0	1179.80	0	3.1270	0	36.0220	8	28.698	0	1167.135	0	14.1	4	4.4	4	-1E+10	1	-1E+10	1	-1E+10	1	-1E+10	1	-1E+10	1	-1E+10	1
4901784	137	C	04/05/2019	10:49	-132.878	42.927	0	1185.30	0	3.1000	0	36.0270	8	28.704	0	1172.561	0	14.3	4	4.5	4	-1E+10	1	-1E+10	1	-1E+10	1	-1E+10	1	-1E+10	1	-1E+10	1
4901784	137	C	04/05/2019	10:49	-132.878	42.927	0	1190.00	0	3.0890	0	36.0290	8	28.707	0	1177.197	0	14.4	4	4.5	4	-1E+10	1	-1E+10	1	-1E+10	1	-1E+10	1	-1E+10	1	-1E+10	1
4901784	137	C	04/05/2019	10:49	-132.878	42.927	0	1194.70	0	3.0790	0	36.0300	8	28.709	0	1181.833	0	14.5	4	4.6	4	-1E+10	1	-1E+10	1	-1E+10	1	-1E+10	1	-1E+10	1	-1E+10	1
4901784	137	C	04/05/2019	10:49	-132.878	42.927	0	1200.40	0	3.0690	0	36.0320	8	28.711	0	1187.456	0	14.6	4	4.6	4	-1E+10	1	-1E+10	1	-1E+10	1	-1E+10	1	-1E+10	1	-1E+10	1
4901784	137	C	04/05/2019	10:49	-132.878	42.927	0	1205.10	0	3.0650	0	36.0330	8	28.712	0	1192.092	0	14.7	4	4.6	4	-1E+10	1	-1E+10	1	-1E+10	1	-1E+10	1	-1E+10	1	-1E+10	1
4901784	137	C	04/05/2019	10:49	-132.878	42.927	0	1210.00	0	3.0450	0	36.0360	8	28.717	0	1196.925	0	14.7	4	4.6	4	-1E+10	1	-1E+10	1	-1E+10	1	-1E+10	1	-1E+10	1	-1E+10	1
4901784	137	C	04/05/2019	10:49	-132.878	42.927	0	1214.80	0	3.0310	0	36.0360	8	28.718	0	1201.660	0	14.6	4	4.6	4	-1E+10	1	-1E+10	1	-1E+10	1	-1E+10	1	-1E+10	1	-1E+10	1
4901784	137	C	04/05/2019	10:49	-132.878	42.927	0	1219.70	0	3.0090	0	36.0390	8	28.723	0	1206.492	0	14.6	4	4.6	4	-1E+10	1	-1E+10	1	-1E+10	1	-1E+10	1	-1E+10	1	-1E+10	1
4901784	137	C	04/05/2019	10:49	-132.878	42.927	0	1224.60	0	3.0050	0	36.0400	8	28.724	0	1211.325	0	14.7	4	4.6	4	-1E+10	1	-1E+10	1	-1E+10	1	-1E+10	1	-1E+10	1	-1E+10	1
4901784	137	C	04/05/2019	10:49	-132.878	42.927	0	1229.50	0	2.9990	0	36.0410	8	28.725	0	1216.158	0	14.8	4	4.6	4	-1E+10	1	-1E+10	1	-1E+10	1	-1E+10	1	-1E+10	1	-1E+10	1
4901784	137	C	04/05/2019	10:49	-132.878	42.927	0	1235.50	0	2.9900	0	36.0430	8	28.728	0	1222.076	0	15.0	4	4.7	4	-1E+10	1	-1E+10	1	-1E+10	1	-1E+10	1	-1E+10	1	-1E+10	1
4901784	137	C	04/05/2019	10:49	-132.878	42.927	0	1240.40	0	2.9830	0	36.0440	8	28.729	0	1226.908	0	15.1	4	4.7	4	-1E+10	1	-1E+10	1	-1E+10	1	-1E+10	1	-1E+10	1	-1E+10	1
4901784	137	C	04/05/2019	10:49	-132.878	42.927	0	1245.40	0	2.9670	0	36.0470	8	28.733	0	1231.839	0	15.3	4	4.8	4	-1E+10	1	-1E+10	1	-1E+10	1	-1E+10	1	-1E+10	1	-1E+10	1
4901784	137	C	04/05/2019	10:49	-132.878	42.927	0	1250.40	0	2.9640	0	36.0480	8	28.734	0	1236.770	0	15.4	4	4.8	4	-1E+10	1	-1E+10	1	-1E+10	1	-1E+10	1	-1E+10	1	-1E+10	1
4901784	137	C	04/05/2019	10:49	-132.878	42.927	0	1255.10	0	2.9580	0	36.0490	8	28.736	0	1241.405	0	15.6	4	4.9	4	-1E+10	1	-1E+10	1	-1E+10	1	-1E+10	1	-1E+10	1	-1E+10	1
4901784	137	C	04/05/2019	10:49	-132.878	42.927	0	1260.60	0	2.9460	0	36.0520	8	28.739	0	1246.829	0	15.7	4	4.9	4	-1E+10	1	-1E+10	1	-1E+10	1	-1E+10	1	-1E+10	1	-1E+10	1
4901784	137	C	04/05/2019	10:49	-132.878	42.927	0	1265.30	0	2.9380	0	36.0540	8	28.742	0	1251.463	0	15.9	4	5.0	4	-1E+10	1	-1E+10	1	-1E+10	1	-1E+10	1	-1E+10	1	-1E+10	1
4901784	137	C	04/05/2019	10:49	-132.878	42.927	0	1269.70	0	2.9330	0	36.0550	8	28.743	0	1255.802	0	16.0	4	5.0	4	-1E+10	1	-1E+10	1	-1E+10	1	-1E+10	1	-1E+10	1	-1E+10	1
4901784	137	C	04/05/2019	10:49	-132.878	42.927	0	1274.50	0	2.9270	0	36.0560	8	28.744	0	1260.535	0	16.3	4	5.1	4	-1E+10	1	-1E+10	1	-1E+10	1	-1E+10	1	-1E+10	1	-1E+10	1
4901784	137	C	04/05/2019	10:49	-132.878	42.927	0	1279.40	0	2.9110	0	36.0590	8	28.748	0	1265.367	0	16.6	4	5.2	4	-1E+10	1	-1E+10	1	-1E+10	1	-1E+10	1	-1E+10	1	-1E+10	1
4901784	137	C	04/05/2019	10:49	-132.878	42.927	0	1284.30	0	2.9000	0	36.0620	8	28.752	0	1270.198	0	16.9	4	5.3	4	-1E+10	1	-1E+10	1	-1E+10	1	-1E+10	1	-1E+10	1	-1E+10	1
4901784	137	C	04/05/2019	10:49	-132.878	42.927	0	1290.00	0	2.8900	0	36.0640	8	28.754	0	1275.818	0	17.2	4	5.3	4	-1E+10	1	-1E+10	1	-1E+10	1	-1E+10	1	-1E+10	1	-1E+10	1
4901784	137	C	04/05/2019	10:49	-132.878	42.927	0	1295.80	0	2.8790	0	36.0660	8	28.757	0	1281.537	0	17.4	4	5.4	4	-1E+10	1	-1E+10	1	-1E+10	1	-1E+10	1	-1E+10	1	-1E+10	1
4901784	137	C	04/05/2019	10:49	-132.878	42.927	0	1300.00	0	2.8670	0	36.0680	8	28.760	0	1285.678	0	17.7	4	5.5	4	-1E+10	1	-1E+10	1	-1E+10	1	-1E+10	1	-1E+10	1	-1E+10	1
4901784	137	C	04/05/2019	10:49	-132.878	42.927	0	1304.20	0	2.8590	0	36.0690	8	28.761	0	1289.819	0	17.9	4	5.6	4	-1E+10	1	-1E+10	1	-1E+10	1	-1E+10	1	-1E+10	1	-1E+10	1
4901784	137	C	04/05/2019	10:49	-132.878	42.927	0	1309.20	0	2.8480	0	36.0720	8	28.765	0	1294.748	0	18.3	4	5.7	4	-1E+10	1	-1E+10	1	-1E+10	1	-1E+10	1	-1E+10	1	-1E+10	1
4901784	137	C	04/05/2019	10:49	-132.878	42.927	0	1314.20	0	2.8340	0	36.0740	8	28.768	0	1299.678	0	18.7	4	5.8	4	-1E+10	1	-1E+10	1	-1E+10	1	-1E+10	1	-1E+10	1	-1E+10	1
4901784	137	C	04/05/2019	10:49	-132.878	42.927	0	1320.00	0	2.8190	0	36.0770	8	28.771	0	1305.396	0	19.1	4	5.9	4	-1E+10	1	-1E+10	1	-1E+10	1	-1E+10	1	-1E+10	1	-1E+10	1
4901784	137	C	04/05/2019	10:49	-132.878	42.927	0	1325.00	0	2.8020	0	36.0800	8	28.775	0	1310.325	0	19.4	4	6.0	4	-1E+10	1	-1E+10	1	-1E+10	1	-1E+10	1	-1E+10	1	-1E+10	1
4901784	137	C	04/05/2019	10:49	-132.878	42.927	0	1329.40	0	2.7960	0	36.0810	8	28.777	0	1314.662	0	19.5	4	6.1	4	-1E+10	1	-1E+10	1	-1E+10	1	-1E+10	1	-1E+10	1	-1E+10	1
4901784	137	C	04/05/2019	10:49	-132.878	42.927	0	1334.60	0	2.7920	0	36.0830	8	28.779	0	1319.788	0	19.7	4	6.1	4	-1E+10	1	-1E+10	1	-1E+10	1	-1E+10	1	-1E+10	1	-1E+10	1
4901784	137	C	04/05/2019	10:49	-132.878	42.927	0	1339.80	0	2.7870	0	36.0830	8	28.779	0	1324.914	0	19.9	4	6.2	4	-1E+10	1	-1E+10	1	-1E+10	1	-1E+10	1	-1E+10	1	-1E+10	1
4901784	137	C	04/05/2019	10:49	-132.878	42.927	0	1345.10	0	2.7770	0	36.0850	8	28.782	0	1330.139	0	20.3	4	6.3	4	-1E+10	1	-1E+10	1	-1E+10	1	-1E+10	1	-1E+10	1	-1E+10	1
4901784	137	C	04/05/2019	10:49	-132.878	42.927	0	1350.40	0	2.7610	0	36.0880	8	28.786	0	1335.363	0	20.5	4	6.4	4	-1E+10	1	-1E+10	1	-1E+10	1	-1E+10	1	-1E+10	1	-1E+10	1
4901784	137	C	04/05/2019	10:49	-132.878	42.927	0	1355.70	0	2.7580	0	36.0890	8	28.787	0	1340.587	0	20.6	4	6.4	4	-1E+10	1	-1E+10	1	-1E+10	1	-1E+10	1	-1E+10	1	-1E+10	1
4901784	137	C	04/05/2019	10:49	-132.878	42.927	0	1360.20	0	2.7520	0	36.0900	8	28.788	0	1345.023	0	20.9	4	6.5	4	-1E+10	1	-1E+10	1	-1E+10	1	-1E+10	1	-1E+10	1	-1E+10	1
4901784	137	C	04/05/2019	10:49	-132.878	42.927	0	1364.60	0	2.7390	0	36.0920	8	28.791	0	1349.359	0	21.1	4	6.6	4	-1E+10	1	-1E+10	1	-1E+10	1	-1E+10	1	-1E+10	1	-1E+10	1
4901784	137	C	04/05/2019	10:49	-132.878	42.927	0	1370.00	0	2.7280	0	36.0940	8	28.794	0	1354.682	0	21.5	4	6.7	4	-1E+10	1	-1E+10	1	-1E+10	1	-1E+10	1	-1E+10	1	-1E+10	1
4901784	137	C	04/05/2019	10:49	-132.878	42.927	0	1375.60	0	2.7170	0	36.0960	8	28.796	0	1360.201	0	21.8	4	6.8	4	-1E+10	1	-1E+10	1	-1E+10	1	-1E+10	1	-1E+10	1	-1E+10	1
4901784	137	C	04/05/2019	10:49	-132.878	42.927	0	1380.20	0	2.7070	0	36.0980	8	28.799	0	1364.735	0	22.1	4	6.9	4	-1E+10	1	-1E+10	1	-1E+10	1	-1E+10	1	-1E+10	1	-1E+10	1
4901784	137	C	04/05/2019	10:49	-132.878	42.927	0	1384.80	0	2.6960	0	36.1000	8	28.801	0	1369.268	0	22.4	4	7.0	4	-1E+10	1	-1E+10	1	-1E+10	1	-1E+10	1	-1E+10	1	-1E+10	1
4901784	137	C	04/05/2019	10:49	-132.878	42.927	0	1390.30	0	2.6890	0	36.1010	8	28.803	0	1374.689	0	22.8	4	7.1	4	-1E+10	1	-1E+10	1	-1E+10	1	-1E+10	1	-1E+10	1	-1E+10	1
4901784	137	C	04/05/2019	10:49	-132.878	42.927	0	1394.80	0	2.6720	0	36.1040	8	28.807	0	1379.124	0	23.2	4	7.2	4	-1E+10	1	-1E+10	1	-1E+10	1	-1E+10	1	-1E+10	1	-1E+10	1
4901784	137	C	04/05/2019	10:49	-132.878	42.927	0	1399.70	0	2.6620	0	36.1060	8	28.809	0	1383.952	0	23.5	4	7.3	4	-1E+10	1	-1E+10	1	-1E+10	1	-1E+10	1	-1E+10	1	-1E+10	1
4901784	137	C	04/05/2019	10:49	-132.878	42.927	0	1405.00	0	2.6510	0	36.1080	8	28.812	0	1389.175	0	23.9	4	7.4	4	-1E+10	1	-1E+10	1	-1E+10	1	-1E+10	1	-1E+10	1	-1E+10	1
4901784	137	C	04/05/2019	10:49	-132.878	42.927	0	1409.90	0	2.6390	0	36.1100	8	28.815	0	1394.004	0	24.3	4	7.5	4	-1E+10	1	-1E+10	1	-1E+10	1	-1E+10	1	-1E+10	1	-1E+10	1
4901784	137	C	04/05/2019	10:49	-132.878	42.927	0	1414.80	0	2.6270	0	36.1120	8	28.817	0	1398.832	0	24.5	4	7.6	4	-1E+10	1	-1E+10	1	-1E+10	1	-1E+10	1	-1E+10	1	-1E+10	1
4901784	137	C	04/05/2019	10:49	-132.878	42.927	0	1419.80	0	2.6210	0	36.1130	8	28.819	0	1403.759	0	24.6	4	7.6	4	-1E+10	1	-1E+10	1	-1E+10	1	-1E+10	1	-1E+10	1	-1E+10	1
4901784	137	C	04/05/2019	10:49	-132.878	42.927	0	1424.70	0	2.6190	0	36.1140	8	28.820	0	1408.588	0	24.8	4	7.7	4	-1E+10	1	-1E+10	1	-1E+10	1	-1E+10	1	-1E+10	1	-1E+10	1
4901784	137	C	04/05/2019	10:49	-132.878	42.927	0	1429.70	0	2.6150	0	36.1150	8	28.821	0	1413.514	0	25.0	4	7.7	4	-1E+10	1	-1E+10	1	-1E+10	1	-1E+10	1	-1E+10	1	-1E+10	1
4901784	137	C	04/05/2019	10:49	-132.878	42.927	0	1434.70	0	2.6080	0	36.1160	8	28.822	0	1418.441	0	25.2	4	7.8	4	-1E+10	1	-1E+10	1	-1E+10	1	-1E+10	1	-1E+10	1	-1E+10	1
4901784	137	C	04/05/2019	10:49	-132.878	42.927	0	1439.80	0	2.6020	0	36.1170	8	28.824	0	1423.466	0	25.4	4	7.9	4	-1E+10	1	-1E+10	1	-1E+10	1	-1E+10	1	-1E+10	1	-1E+10	1
4901784	137	C	04/05/2019	10:49	-132.878	42.927	0	1444.80	0	2.5910	0	36.1190	8	28.826	0	1428.392	0	25.8	4	8.0	4	-1E+10	1	-1E+10	1	-1E+10	1	-1E+10	1	-1E+10	1	-1E+10	1
4901784	137	C	04/05/2019	10:49	-132.878	42.927	0	1449.90	0	2.5830	0	36.1210	8	28.829	0	1433.417	0	26.1	4	8.1	4	-1E+10	1	-1E+10	1	-1E+10	1	-1E+10	1	-1E+10	1	-1E+10	1
4901784	137	C	04/05/2019	10:49	-132.878	42.927	0	1455.00	0	2.5730	0	36.1220	8	28.830	0	1438.442	0	26.4	4	8.2	4	-1E+10	1	-1E+10	1	-1E+10	1	-1E+10	1	-1E+10	1	-1E+10	1
4901784	137	C	04/05/2019	10:49	-132.878	42.927	0	1460.20	0	2.5610	0	36.1240	8	28.833	0	1443.565	0	26.8	4	8.3	4	-1E+10	1	-1E+10	1	-1E+10	1	-1E+10	1	-1E+10	1	-1E+10	1
4901784	137	C	04/05/2019	10:49	-132.878	42.927	0	1465.40	0	2.5500	0	36.1260	8	28.836	0	1448.688	0	27.2	4	8.4	4	-1E+10	1	-1E+10	1	-1E+10	1	-1E+10	1	-1E+10	1	-1E+10	1
4901784	137	C	04/05/2019	10:49	-132.878	42.927	0	1470.60	0	2.5370	0	36.1280	8	28.839	0	1453.811	0	27.5	4	8.5	4	-1E+10	1	-1E+10	1	-1E+10	1	-1E+10	1	-1E+10	1	-1E+10	1
4901784	137	C	04/05/2019	10:49	-132.878	42.927	0	1475.70	0	2.5300	0	36.1290	8	28.840	0	1458.835	0	27.8	4	8.6	4	-1E+10	1	-1E+10	1	-1E+10	1	-1E+10	1	-1E+10	1	-1E+10	1
4901784	137	C	04/05/2019	10:49	-132.878	42.927	0	1480.10	0	2.5240	0	36.1300	8	28.841	0	1463.169	0	28.0	4	8.7	4	-1E+10	1	-1E+10	1	-1E+10	1	-1E+10	1	-1E+10	1	-1E+10	1
4901784	137	C	04/05/2019	10:49	-132.878	42.927	0	1484.50	0	2.5140	0	36.1320	8	28.844	0	1467.504	0	28.3	4	8.8	4	-1E+10	1	-1E+10	1	-1E+10	1	-1E+10	1	-1E+10	1	-1E+10	1
4901784	137	C	04/05/2019	10:49	-132.878	42.927	0	1489.60	0	2.5030	0	36.1340	8	28.846	0	1472.528	0	28.6	4	8.8	4	-1E+10	1	-1E+10	1	-1E+10	1	-1E+10	1	-1E+10	1	-1E+10	1
4901784	137	C	04/05/2019	10:49	-132.878	42.927	0	1494.80	0	2.4950	0	36.1350	8	28.848	0	1477.650	0	28.9	4	8.9	4	-1E+10	1	-1E+10	1	-1E+10	1	-1E+10	1	-1E+10	1	-1E+10	1
4901784	137	C	04/05/2019	10:49	-132.878	42.927	0	1499.90	0	2.4830	0	36.1370	8	28.851	0	1482.673	0	29.3	4	9.0	4	-1E+10	1	-1E+10	1	-1E+10	1	-1E+10	1	-1E+10	1	-1E+10	1
4901784	137	C	04/05/2019	10:49	-132.878	42.927	0	1505.10	0	2.4770	0	36.1380	8	28.852	0	1487.795	0	29.6	4	9.1	4	-1E+10	1	-1E+10	1	-1E+10	1	-1E+10	1	-1E+10	1	-1E+10	1
4901784	137	C	04/05/2019	10:49	-132.878	42.927	0	1510.40	0	2.4690	0	36.1400	8	28.854	0	1493.016	0	30.0	4	9.3	4	-1E+10	1	-1E+10	1	-1E+10	1	-1E+10	1	-1E+10	1	-1E+10	1
4901784	137	C	04/05/2019	10:49	-132.878	42.927	0	1515.60	0	2.4510	0	36.1430	8	28.858	0	1498.137	0	30.6	4	9.4	4	-1E+10	1	-1E+10	1	-1E+10	1	-1E+10	1	-1E+10	1	-1E+10	1
4901784	137	C	04/05/2019	10:49	-132.878	42.927	0	1519.90	0	2.4390	0	36.1450	8	28.861	0	1502.373	0	30.9	4	9.5	4	-1E+10	1	-1E+10	1	-1E+10	1	-1E+10	1	-1E+10	1	-1E+10	1
4901784	137	C	04/05/2019	10:49	-132.878	42.927	0	1524.30	0	2.4310	0	36.1460	8	28.863	0	1506.706	0	31.1	4	9.6	4	-1E+10	1	-1E+10	1	-1E+10	1	-1E+10	1	-1E+10	1	-1E+10	1
4901784	137	C	04/05/2019	10:49	-132.878	42.927	0	1529.60	0	2.4260	0	36.1470	8	28.864	0	1511.926	0	31.4	4	9.7	4	-1E+10	1	-1E+10	1	-1E+10	1	-1E+10	1	-1E+10	1	-1E+10	1
4901784	137	C	04/05/2019	10:49	-132.878	42.927	0	1535.00	0	2.4180	0	36.1480	8	28.865	0	1517.244	0	31.6	4	9.8	4	-1E+10	1	-1E+10	1	-1E+10	1	-1E+10	1	-1E+10	1	-1E+10	1
4901784	137	C	04/05/2019	10:49	-132.878	42.927	0	1540.30	0	2.4120	0	36.1490	8	28.867	0	1522.464	0	32.0	4	9.9	4	-1E+10	1	-1E+10	1	-1E+10	1	-1E+10	1	-1E+10	1	-1E+10	1
4901784	137	C	04/05/2019	10:49	-132.878	42.927	0	1545.60	0	2.4010	0	36.1510	8	28.869	0	1527.683	0	32.2	4	9.9	4	-1E+10	1	-1E+10	1	-1E+10	1	-1E+10	1	-1E+10	1	-1E+10	1
4901784	137	C	04/05/2019	10:49	-132.878	42.927	0	1550.10	0	2.4000	0	36.1520	8	28.870	0	1532.115	0	32.3	4	10.0	4	-1E+10	1	-1E+10	1	-1E+10	1	-1E+10	1	-1E+10	1	-1E+10	1
4901784	137	C	04/05/2019	10:49	-132.878	42.927	0	1554.60	0	2.3950	0	36.1530	8	28.872	0	1536.546	0	32.6	4	10.0	4	-1E+10	1	-1E+10	1	-1E+10	1	-1E+10	1	-1E+10	1	-1E+10	1
4901784	137	C	04/05/2019	10:49	-132.878	42.927	0	1560.00	0	2.3890	0	36.1540	8	28.873	0	1541.864	0	32.9	4	10.1	4	-1E+10	1	-1E+10	1	-1E+10	1	-1E+10	1	-1E+10	1	-1E+10	1
4901784	137	C	04/05/2019	10:49	-132.878	42.927	0	1565.50	0	2.3800	0	36.1550	8	28.875	0	1547.280	0	33.2	4	10.2	4	-1E+10	1	-1E+10	1	-1E+10	1	-1E+10	1	-1E+10	1	-1E+10	1
4901784	137	C	04/05/2019	10:49	-132.878	42.927	0	1570.10	0	2.3710	0	36.1580	8	28.878	0	1551.810	0	33.6	4	10.3	4	-1E+10	1	-1E+10	1	-1E+10	1	-1E+10	1	-1E+10	1	-1E+10	1
4901784	137	C	04/05/2019	10:49	-132.878	42.927	0	1574.60	0	2.3630	0	36.1590	8	28.879	0	1556.241	0	33.7	4	10.4	4	-1E+10	1	-1E+10	1	-1E+10	1	-1E+10	1	-1E+10	1	-1E+10	1
4901784	137	C	04/05/2019	10:49	-132.878	42.927	0	1580.00	0	2.3610	0	36.1590	8	28.879	0	1561.558	0	33.9	4	10.4	4	-1E+10	1	-1E+10	1	-1E+10	1	-1E+10	1	-1E+10	1	-1E+10	1
4901784	137	C	04/05/2019	10:49	-132.878	42.927	0	1585.50	0	2.3580	0	36.1600	8	28.881	0	1566.973	0	34.2	4	10.5	4	-1E+10	1	-1E+10	1	-1E+10	1	-1E+10	1	-1E+10	1	-1E+10	1
4901784	137	C	04/05/2019	10:49	-132.878	42.927	0	1590.10	0	2.3500	0	36.1620	8	28.883	0	1571.502	0	34.6	4	10.7	4	-1E+10	1	-1E+10	1	-1E+10	1	-1E+10	1	-1E+10	1	-1E+10	1
4901784	137	C	04/05/2019	10:49	-132.878	42.927	0	1594.70	0	2.3400	0	36.1630	8	28.885	0	1576.032	0	34.9	4	10.7	4	-1E+10	1	-1E+10	1	-1E+10	1	-1E+10	1	-1E+10	1	-1E+10	1
4901784	137	C	04/05/2019	10:49	-132.878	42.927	0	1600.20	0	2.3330	0	36.1650	8	28.887	0	1581.447	0	35.2	4	10.8	4	-1E+10	1	-1E+10	1	-1E+10	1	-1E+10	1	-1E+10	1	-1E+10	1
4901784	137	C	04/05/2019	10:49	-132.878	42.927	0	1604.80	0	2.3260	0	36.1660	8	28.888	0	1585.976	0	35.6	4	10.9	4	-1E+10	1	-1E+10	1	-1E+10	1	-1E+10	1	-1E+10	1	-1E+10	1
4901784	137	C	04/05/2019	10:49	-132.878	42.927	0	1609.70	0	2.3180	0	36.1670	8	28.890	0	1590.800	0	35.9	4	11.1	4	-1E+10	1	-1E+10	1	-1E+10	1	-1E+10	1	-1E+10	1	-1E+10	1
4901784	137	C	04/05/2019	10:49	-132.878	42.927	0	1614.90	0	2.3090	0	36.1690	8	28.892	0	1595.919	0	36.3	4	11.2	4	-1E+10	1	-1E+10	1	-1E+10	1	-1E+10	1	-1E+10	1	-1E+10	1
4901784	137	C	04/05/2019	10:49	-132.878	42.927	0	1619.80	0	2.3030	0	36.1700	8	28.894	0	1600.743	0	36.6	4	11.3	4	-1E+10	1	-1E+10	1	-1E+10	1	-1E+10	1	-1E+10	1	-1E+10	1
4901784	137	C	04/05/2019	10:49	-132.878	42.927	0	1624.70	0	2.2930	0	36.1720	8	28.896	0	1605.567	0	37.1	4	11.4	4	-1E+10	1	-1E+10	1	-1E+10	1	-1E+10	1	-1E+10	1	-1E+10	1
4901784	137	C	04/05/2019	10:49	-132.878	42.927	0	1629.70	0	2.2870	0	36.1730	8	28.897	0	1610.489	0	37.4	4	11.5	4	-1E+10	1	-1E+10	1	-1E+10	1	-1E+10	1	-1E+10	1	-1E+10	1
4901784	137	C	04/05/2019	10:49	-132.878	42.927	0	1634.70	0	2.2790	0	36.1740	8	28.899	0	1615.411	0	37.9	4	11.6	4	-1E+10	1	-1E+10	1	-1E+10	1	-1E+10	1	-1E+10	1	-1E+10	1
4901784	137	C	04/05/2019	10:49	-132.878	42.927	0	1639.70	0	2.2700	0	36.1760	8	28.901	0	1620.333	0	38.3	4	11.8	4	-1E+10	1	-1E+10	1	-1E+10	1	-1E+10	1	-1E+10	1	-1E+10	1
4901784	137	C	04/05/2019	10:49	-132.878	42.927	0	1644.60	0	2.2600	0	36.1770	8	28.903	0	1625.156	0	38.8	4	11.9	4	-1E+10	1	-1E+10	1	-1E+10	1	-1E+10	1	-1E+10	1	-1E+10	1
4901784	137	C	04/05/2019	10:49	-132.878	42.927	0	1649.70	0	2.2520	0	36.1780	8	28.904	0	1630.176	0	39.2	4	12.0	4	-1E+10	1	-1E+10	1	-1E+10	1	-1E+10	1	-1E+10	1	-1E+10	1
4901784	137	C	04/05/2019	10:49	-132.878	42.927	0	1654.80	0	2.2430	0	36.1800	8	28.907	0	1635.196	0	39.6	4	12.2	4	-1E+10	1	-1E+10	1	-1E+10	1	-1E+10	1	-1E+10	1	-1E+10	1
4901784	137	C	04/05/2019	10:49	-132.878	42.927	0	1660.00	0	2.2350	0	36.1820	8	28.909	0	1640.314	0	40.0	4	12.3	4	-1E+10	1	-1E+10	1	-1E+10	1	-1E+10	1	-1E+10	1	-1E+10	1
4901784	137	C	04/05/2019	10:49	-132.878	42.927	0	1665.10	0	2.2290	0	36.1830	8	28.911	0	1645.334	0	40.4	4	12.4	4	-1E+10	1	-1E+10	1	-1E+10	1	-1E+10	1	-1E+10	1	-1E+10	1
4901784	137	C	04/05/2019	10:49	-132.878	42.927	0	1670.40	0	2.2190	0	36.1850	8	28.913	0	1650.551	0	40.8	4	12.5	4	-1E+10	1	-1E+10	1	-1E+10	1	-1E+10	1	-1E+10	1	-1E+10	1
4901784	137	C	04/05/2019	10:49	-132.878	42.927	0	1675.60	0	2.2140	0	36.1860	8	28.914	0	1655.668	0	41.0	4	12.6	4	-1E+10	1	-1E+10	1	-1E+10	1	-1E+10	1	-1E+10	1	-1E+10	1
4901784	137	C	04/05/2019	10:49	-132.878	42.927	0	1680.00	0	2.2090	0	36.1870	8	28.916	0	1659.999	0	41.2	4	12.7	4	-1E+10	1	-1E+10	1	-1E+10	1	-1E+10	1	-1E+10	1	-1E+10	1
4901784	137	C	04/05/2019	10:49	-132.878	42.927	0	1684.50	0	2.2060	0	36.1870	8	28.916	0	1664.428	0	41.4	4	12.7	4	-1E+10	1	-1E+10	1	-1E+10	1	-1E+10	1	-1E+10	1	-1E+10	1
4901784	137	C	04/05/2019	10:49	-132.878	42.927	0	1689.80	0	2.2000	0	36.1880	8	28.917	0	1669.644	0	41.9	4	12.8	4	-1E+10	1	-1E+10	1	-1E+10	1	-1E+10	1	-1E+10	1	-1E+10	1
4901784	137	C	04/05/2019	10:49	-132.878	42.927	0	1695.20	0	2.1930	0	36.1900	8	28.919	0	1674.958	0	42.4	4	13.0	4	-1E+10	1	-1E+10	1	-1E+10	1	-1E+10	1	-1E+10	1	-1E+10	1
4901784	137	C	04/05/2019	10:49	-132.878	42.927	0	1700.60	0	2.1800	0	36.1920	8	28.922	0	1680.272	0	42.9	4	13.2	4	-1E+10	1	-1E+10	1	-1E+10	1	-1E+10	1	-1E+10	1	-1E+10	1
4901784	137	C	04/05/2019	10:49	-132.878	42.927	0	1705.20	0	2.1710	0	36.1930	8	28.924	0	1684.799	0	43.3	4	13.3	4	-1E+10	1	-1E+10	1	-1E+10	1	-1E+10	1	-1E+10	1	-1E+10	1
4901784	137	C	04/05/2019	10:49	-132.878	42.927	0	1709.80	0	2.1620	0	36.1940	8	28.925	0	1689.326	0	43.6	4	13.4	4	-1E+10	1	-1E+10	1	-1E+10	1	-1E+10	1	-1E+10	1	-1E+10	1
4901784	137	C	04/05/2019	10:49	-132.878	42.927	0	1715.30	0	2.1560	0	36.1950	8	28.927	0	1694.738	0	43.9	4	13.5	4	-1E+10	1	-1E+10	1	-1E+10	1	-1E+10	1	-1E+10	1	-1E+10	1
4901784	137	C	04/05/2019	10:49	-132.878	42.927	0	1719.90	0	2.1510	0	36.1970	8	28.929	0	1699.264	0	44.1	4	13.5	4	-1E+10	1	-1E+10	1	-1E+10	1	-1E+10	1	-1E+10	1	-1E+10	1
4901784	137	C	04/05/2019	10:49	-132.878	42.927	0	1724.80	0	2.1490	0	36.1970	8	28.929	0	1704.086	0	44.4	4	13.6	4	-1E+10	1	-1E+10	1	-1E+10	1	-1E+10	1	-1E+10	1	-1E+10	1
4901784	137	C	04/05/2019	10:49	-132.878	42.927	0	1730.10	0	2.1430	0	36.1980	8	28.930	0	1709.301	0	44.8	4	13.7	4	-1E+10	1	-1E+10	1	-1E+10	1	-1E+10	1	-1E+10	1	-1E+10	1
4901784	137	C	04/05/2019	10:49	-132.878	42.927	0	1734.90	0	2.1350	0	36.2000	8	28.932	0	1714.024	0	45.2	4	13.8	4	-1E+10	1	-1E+10	1	-1E+10	1	-1E+10	1	-1E+10	1	-1E+10	1
4901784	137	C	04/05/2019	10:49	-132.878	42.927	0	1739.70	0	2.1320	0	36.2010	8	28.934	0	1718.746	0	45.6	4	14.0	4	-1E+10	1	-1E+10	1	-1E+10	1	-1E+10	1	-1E+10	1	-1E+10	1
4901784	137	C	04/05/2019	10:49	-132.878	42.927	0	1744.60	0	2.1210	0	36.2030	8	28.936	0	1723.567	0	45.9	4	14.1	4	-1E+10	1	-1E+10	1	-1E+10	1	-1E+10	1	-1E+10	1	-1E+10	1
4901784	137	C	04/05/2019	10:49	-132.878	42.927	0	1749.50	0	2.1190	0	36.2040	8	28.937	0	1728.389	0	46.0	4	14.1	4	-1E+10	1	-1E+10	1	-1E+10	1	-1E+10	1	-1E+10	1	-1E+10	1
4901784	137	C	04/05/2019	10:49	-132.878	42.927	0	1754.60	0	2.1180	0	36.2040	8	28.937	0	1733.406	0	46.1	4	14.1	4	-1E+10	1	-1E+10	1	-1E+10	1	-1E+10	1	-1E+10	1	-1E+10	1
4901784	137	C	04/05/2019	10:49	-132.878	42.927	0	1759.60	0	2.1170	0	36.2050	8	28.938	0	1738.325	0	46.2	4	14.1	4	-1E+10	1	-1E+10	1	-1E+10	1	-1E+10	1	-1E+10	1	-1E+10	1
4901784	137	C	04/05/2019	10:49	-132.878	42.927	0	1764.60	0	2.1170	0	36.2050	8	28.938	0	1743.244	0	46.3	4	14.2	4	-1E+10	1	-1E+10	1	-1E+10	1	-1E+10	1	-1E+10	1	-1E+10	1
4901784	137	C	04/05/2019	10:49	-132.878	42.927	0	1769.70	0	2.1150	0	36.2060	8	28.939	0	1748.262	0	46.5	4	14.2	4	-1E+10	1	-1E+10	1	-1E+10	1	-1E+10	1	-1E+10	1	-1E+10	1
4901784	137	C	04/05/2019	10:49	-132.878	42.927	0	1774.80	0	2.1130	0	36.2070	8	28.940	0	1753.279	0	46.8	4	14.3	4	-1E+10	1	-1E+10	1	-1E+10	1	-1E+10	1	-1E+10	1	-1E+10	1
4901784	137	C	04/05/2019	10:49	-132.878	42.927	0	1779.90	0	2.1050	0	36.2080	8	28.942	0	1758.296	0	47.2	4	14.4	4	-1E+10	1	-1E+10	1	-1E+10	1	-1E+10	1	-1E+10	1	-1E+10	1
4901784	137	C	04/05/2019	10:49	-132.878	42.927	0	1785.10	0	2.1010	0	36.2090	8	28.943	0	1763.411	0	47.7	4	14.6	4	-1E+10	1	-1E+10	1	-1E+10	1	-1E+10	1	-1E+10	1	-1E+10	1
4901784	137	C	04/05/2019	10:49	-132.878	42.927	0	1790.20	0	2.0900	0	36.2110	8	28.945	0	1768.428	0	48.3	4	14.8	4	-1E+10	1	-1E+10	1	-1E+10	1	-1E+10	1	-1E+10	1	-1E+10	1
4901784	137	C	04/05/2019	10:49	-132.878	42.927	0	1795.50	0	2.0780	0	36.2130	8	28.948	0	1773.641	0	48.8	4	14.9	4	-1E+10	1	-1E+10	1	-1E+10	1	-1E+10	1	-1E+10	1	-1E+10	1
4901784	137	C	04/05/2019	10:49	-132.878	42.927	0	1800.70	0	2.0710	0	36.2140	8	28.949	0	1778.756	0	49.2	4	15.1	4	-1E+10	1	-1E+10	1	-1E+10	1	-1E+10	1	-1E+10	1	-1E+10	1
4901784	137	C	04/05/2019	10:49	-132.878	42.927	0	1805.10	0	2.0660	0	36.2150	8	28.951	0	1783.084	0	49.6	4	15.2	4	-1E+10	1	-1E+10	1	-1E+10	1	-1E+10	1	-1E+10	1	-1E+10	1
4901784	137	C	04/05/2019	10:49	-132.878	42.927	0	1809.50	0	2.0580	0	36.2160	8	28.952	0	1787.412	0	50.0	4	15.3	4	-1E+10	1	-1E+10	1	-1E+10	1	-1E+10	1	-1E+10	1	-1E+10	1
4901784	137	C	04/05/2019	10:49	-132.878	42.927	0	1814.80	0	2.0510	0	36.2180	8	28.954	0	1792.625	0	50.4	4	15.4	4	-1E+10	1	-1E+10	1	-1E+10	1	-1E+10	1	-1E+10	1	-1E+10	1
4901784	137	C	04/05/2019	10:49	-132.878	42.927	0	1820.10	0	2.0440	0	36.2190	8	28.956	0	1797.838	0	50.8	4	15.5	4	-1E+10	1	-1E+10	1	-1E+10	1	-1E+10	1	-1E+10	1	-1E+10	1
4901784	137	C	04/05/2019	10:49	-132.878	42.927	0	1825.50	0	2.0390	0	36.2200	8	28.957	0	1803.149	0	51.1	4	15.6	4	-1E+10	1	-1E+10	1	-1E+10	1	-1E+10	1	-1E+10	1	-1E+10	1
4901784	137	C	04/05/2019	10:49	-132.878	42.927	0	1829.90	0	2.0330	0	36.2210	8	28.958	0	1807.476	0	51.5	4	15.7	4	-1E+10	1	-1E+10	1	-1E+10	1	-1E+10	1	-1E+10	1	-1E+10	1
4901784	137	C	04/05/2019	10:49	-132.878	42.927	0	1834.40	0	2.0270	0	36.2230	8	28.960	0	1811.902	0	51.8	4	15.8	4	-1E+10	1	-1E+10	1	-1E+10	1	-1E+10	1	-1E+10	1	-1E+10	1
4901784	137	C	04/05/2019	10:49	-132.878	42.927	0	1839.80	0	2.0240	0	36.2230	8	28.961	0	1817.213	0	51.9	4	15.9	4	-1E+10	1	-1E+10	1	-1E+10	1	-1E+10	1	-1E+10	1	-1E+10	1
4901784	137	C	04/05/2019	10:49	-132.878	42.927	0	1845.20	0	2.0230	0	36.2240	8	28.962	0	1822.523	0	52.1	4	15.9	4	-1E+10	1	-1E+10	1	-1E+10	1	-1E+10	1	-1E+10	1	-1E+10	1
4901784	137	C	04/05/2019	10:49	-132.878	42.927	0	1850.50	0	2.0200	0	36.2250	8	28.963	0	1827.735	0	52.4	4	16.0	4	-1E+10	1	-1E+10	1	-1E+10	1	-1E+10	1	-1E+10	1	-1E+10	1
4901784	137	C	04/05/2019	10:49	-132.878	42.927	0	1855.00	0	2.0150	0	36.2260	8	28.964	0	1832.161	0	52.7	4	16.1	4	-1E+10	1	-1E+10	1	-1E+10	1	-1E+10	1	-1E+10	1	-1E+10	1
4901784	137	C	04/05/2019	10:49	-132.878	42.927	0	1859.90	0	2.0130	0	36.2270	8	28.965	0	1836.979	0	52.9	4	16.1	4	-1E+10	1	-1E+10	1	-1E+10	1	-1E+10	1	-1E+10	1	-1E+10	1
4901784	137	C	04/05/2019	10:49	-132.878	42.927	0	1865.00	0	2.0110	0	36.2270	8	28.965	0	1841.994	0	53.2	4	16.2	4	-1E+10	1	-1E+10	1	-1E+10	1	-1E+10	1	-1E+10	1	-1E+10	1
4901784	137	C	04/05/2019	10:49	-132.878	42.927	0	1869.80	0	2.0030	0	36.2290	8	28.967	0	1846.714	0	53.6	4	16.4	4	-1E+10	1	-1E+10	1	-1E+10	1	-1E+10	1	-1E+10	1	-1E+10	1
4901784	137	C	04/05/2019	10:49	-132.878	42.927	0	1874.70	0	1.9970	0	36.2300	8	28.969	0	1851.532	0	53.9	4	16.4	4	-1E+10	1	-1E+10	1	-1E+10	1	-1E+10	1	-1E+10	1	-1E+10	1
4901784	137	C	04/05/2019	10:49	-132.878	42.927	0	1879.60	0	1.9930	0	36.2310	8	28.970	0	1856.350	0	54.1	4	16.5	4	-1E+10	1	-1E+10	1	-1E+10	1	-1E+10	1	-1E+10	1	-1E+10	1
4901784	137	C	04/05/2019	10:49	-132.878	42.927	0	1884.50	0	1.9910	0	36.2320	8	28.971	0	1861.168	0	54.2	4	16.6	4	-1E+10	1	-1E+10	1	-1E+10	1	-1E+10	1	-1E+10	1	-1E+10	1
4901784	137	C	04/05/2019	10:49	-132.878	42.927	0	1889.20	0	1.9890	0	36.2330	8	28.972	0	1865.790	0	54.4	4	16.6	4	-1E+10	1	-1E+10	1	-1E+10	1	-1E+10	1	-1E+10	1	-1E+10	1
4901784	137	C	04/05/2019	10:49	-132.878	42.927	0	1894.90	0	1.9890	0	36.2330	8	28.972	0	1871.394	0	54.4	4	16.6	4	-1E+10	1	-1E+10	1	-1E+10	1	-1E+10	1	-1E+10	1	-1E+10	1
4901784	137	C	04/05/2019	10:49	-132.878	42.927	0	1900.70	0	1.9880	0	36.2330	8	28.972	0	1877.096	0	54.7	4	16.7	4	-1E+10	1	-1E+10	1	-1E+10	1	-1E+10	1	-1E+10	1	-1E+10	1
4901784	137	C	04/05/2019	10:49	-132.878	42.927	0	1905.70	0	1.9830	0	36.2340	8	28.973	0	1882.012	0	55.0	4	16.8	4	-1E+10	1	-1E+10	1	-1E+10	1	-1E+10	1	-1E+10	1	-1E+10	1
4901784	137	C	04/05/2019	10:49	-132.878	42.927	0	1910.70	0	1.9800	0	36.2350	8	28.974	0	1886.928	0	55.4	4	16.9	4	-1E+10	1	-1E+10	1	-1E+10	1	-1E+10	1	-1E+10	1	-1E+10	1
4901784	137	C	04/05/2019	10:49	-132.878	42.927	0	1915.70	0	1.9710	0	36.2370	8	28.977	0	1891.843	0	56.0	4	17.1	4	-1E+10	1	-1E+10	1	-1E+10	1	-1E+10	1	-1E+10	1	-1E+10	1
4901784	137	C	04/05/2019	10:49	-132.878	42.927	0	1920.80	0	1.9650	0	36.2380	8	28.978	0	1896.857	0	56.3	4	17.2	4	-1E+10	1	-1E+10	1	-1E+10	1	-1E+10	1	-1E+10	1	-1E+10	1
4901784	137	C	04/05/2019	10:49	-132.878	42.927	0	1925.80	0	1.9600	0	36.2390	8	28.979	0	1901.773	0	56.6	4	17.3	4	-1E+10	1	-1E+10	1	-1E+10	1	-1E+10	1	-1E+10	1	-1E+10	1
4901784	137	C	04/05/2019	10:49	-132.878	42.927	0	1930.00	0	1.9580	0	36.2400	8	28.980	0	1905.901	0	56.7	4	17.3	4	-1E+10	1	-1E+10	1	-1E+10	1	-1E+10	1	-1E+10	1	-1E+10	1
4901784	137	C	04/05/2019	10:49	-132.878	42.927	0	1934.20	0	1.9560	0	36.2400	8	28.981	0	1910.030	0	57.0	4	17.4	4	-1E+10	1	-1E+10	1	-1E+10	1	-1E+10	1	-1E+10	1	-1E+10	1
4901784	137	C	04/05/2019	10:49	-132.878	42.927	0	1939.30	0	1.9510	0	36.2420	8	28.983	0	1915.044	0	57.4	4	17.5	4	-1E+10	1	-1E+10	1	-1E+10	1	-1E+10	1	-1E+10	1	-1E+10	1
4901784	137	C	04/05/2019	10:49	-132.878	42.927	0	1944.50	0	1.9460	0	36.2430	8	28.984	0	1920.155	0	57.7	4	17.6	4	-1E+10	1	-1E+10	1	-1E+10	1	-1E+10	1	-1E+10	1	-1E+10	1
4901784	137	C	04/05/2019	10:49	-132.878	42.927	0	1949.60	0	1.9420	0	36.2440	8	28.985	0	1925.168	0	58.0	4	17.7	4	-1E+10	1	-1E+10	1	-1E+10	1	-1E+10	1	-1E+10	1	-1E+10	1
4901784	137	C	04/05/2019	10:49	-132.878	42.927	0	1954.80	0	1.9400	0	36.2440	8	28.985	0	1930.280	0	58.2	4	17.8	4	-1E+10	1	-1E+10	1	-1E+10	1	-1E+10	1	-1E+10	1	-1E+10	1
4901784	137	C	04/05/2019	10:49	-132.878	42.927	0	1959.90	0	1.9360	0	36.2450	8	28.986	0	1935.292	0	58.6	4	17.9	4	-1E+10	1	-1E+10	1	-1E+10	1	-1E+10	1	-1E+10	1	-1E+10	1
4901784	137	C	04/05/2019	10:49	-132.878	42.927	0	1965.10	0	1.9330	0	36.2460	8	28.987	0	1940.403	0	58.9	4	18.0	4	-1E+10	1	-1E+10	1	-1E+10	1	-1E+10	1	-1E+10	1	-1E+10	1
4901784	137	C	04/05/2019	10:49	-132.878	42.927	0	1970.20	0	1.9290	0	36.2470	8	28.989	0	1945.416	0	59.3	4	18.1	4	-1E+10	1	-1E+10	1	-1E+10	1	-1E+10	1	-1E+10	1	-1E+10	1
4901784	137	C	04/05/2019	10:49	-132.878	42.927	0	1975.40	0	1.9220	0	36.2490	8	28.991	0	1950.527	0	59.7	4	18.2	4	-1E+10	1	-1E+10	1	-1E+10	1	-1E+10	1	-1E+10	1	-1E+10	1
4901784	137	C	04/05/2019	10:49	-132.878	42.927	0	1980.70	0	1.9170	0	36.2500	8	28.992	0	1955.736	0	60.0	4	18.3	4	-1E+10	1	-1E+10	1	-1E+10	1	-1E+10	1	-1E+10	1	-1E+10	1
4901784	137	C	04/05/2019	10:49	-132.878	42.927	0	1985.10	0	1.9150	0	36.2510	8	28.993	0	1960.060	0	60.2	4	18.3	4	-1E+10	1	-1E+10	1	-1E+10	1	-1E+10	1	-1E+10	1	-1E+10	1
4901784	137	C	04/05/2019	10:49	-132.878	42.927	0	1989.50	0	1.9130	0	36.2510	8	28.993	0	1964.384	0	60.4	4	18.4	4	-1E+10	1	-1E+10	1	-1E+10	1	-1E+10	1	-1E+10	1	-1E+10	1
4901784	137	C	04/05/2019	10:49	-132.878	42.927	0	1994.90	0	1.9110	0	36.2520	8	28.994	0	1969.691	0	60.5	4	18.4	4	-1E+10	1	-1E+10	1	-1E+10	1	-1E+10	1	-1E+10	1	-1E+10	1
4901784	137	C	04/05/2019	10:49	-132.878	42.927	0	2000.20	0	1.9100	0	36.2520	8	28.994	0	1974.900	0	60.7	4	18.5	4	-1E+10	1	-1E+10	1	-1E+10	1	-1E+10	1	-1E+10	1	-1E+10	1
4901784	137	C	04/05/2019	10:49	-132.878	42.927	0	2004.90	0	1.9090	0	36.2530	8	28.995	0	1979.518	0	60.9	4	18.6	4	-1E+10	1	-1E+10	1	-1E+10	1	-1E+10	1	-1E+10	1	-1E+10	1
4901784	137	C	04/05/2019	10:49	-132.878	42.927	0	2010.40	0	1.9030	0	36.2540	8	28.997	0	1984.923	0	61.3	4	18.7	4	-1E+10	1	-1E+10	1	-1E+10	1	-1E+10	1	-1E+10	1	-1E+10	1
4901784	137	C	04/05/2019	10:49	-132.878	42.927	0	2015.10	0	1.9010	0	36.2550	8	28.998	0	1989.542	0	61.5	4	18.7	4	-1E+10	1	-1E+10	1	-1E+10	1	-1E+10	1	-1E+10	1	-1E+10	1
4901784	137	C	04/05/2019	10:49	-132.878	42.927	0	2020.30	0	1.8980	0	36.2560	8	28.999	0	1994.651	0	61.7	4	18.8	4	-1E+10	1	-1E+10	1	-1E+10	1	-1E+10	1	-1E+10	1	-1E+10	1
4901784	137	C	04/05/2019	10:49	-132.878	42.927	0																										
4901784	138	C	04/15/2019	10:47	-132.846	42.877	0	3.20	0	10.5590	0	33.8610	8	25.967	0	3.175	0	269.4	4	98.5	4	-1E+10	1	-1E+10	1	-1E+10	1	-1E+10	1	-1E+10	1	-1E+10	1
4901784	138	C	04/15/2019	10:47	-132.846	42.877	0	4.70	0	10.5600	0	33.8630	8	25.968	0	4.663	0	269.4	4	98.5	4	-1E+10	1	-1E+10	1	-1E+10	1	-1E+10	1	-1E+10	1	-1E+10	1
4901784	138	C	04/15/2019	10:47	-132.846	42.877	0	6.30	0	10.5600	0	33.8630	8	25.969	0	6.250	0	269.4	4	98.5	4	-1E+10	1	-1E+10	1	-1E+10	1	-1E+10	1	-1E+10	1	-1E+10	1
4901784	138	C	04/15/2019	10:47	-132.846	42.877	0	7.80	0	10.5600	0	33.8640	8	25.969	0	7.738	0	269.3	4	98.4	4	-1E+10	1	-1E+10	1	-1E+10	1	-1E+10	1	-1E+10	1	-1E+10	1
4901784	138	C	04/15/2019	10:47	-132.846	42.877	0	9.40	0	10.5620	0	33.8640	8	25.969	0	9.325	0	269.3	4	98.4	4	-1E+10	1	-1E+10	1	-1E+10	1	-1E+10	1	-1E+10	1	-1E+10	1
4901784	138	C	04/15/2019	10:47	-132.846	42.877	0	11.20	0	10.5630	0	33.8640	8	25.969	0	11.111	0	269.4	4	98.5	4	-1E+10	1	-1E+10	1	-1E+10	1	-1E+10	1	-1E+10	1	-1E+10	1
4901784	138	C	04/15/2019	10:47	-132.846	42.877	0	12.90	0	10.5640	0	33.8640	8	25.969	0	12.797	0	269.2	4	98.4	4	-1E+10	1	-1E+10	1	-1E+10	1	-1E+10	1	-1E+10	1	-1E+10	1
4901784	138	C	04/15/2019	10:47	-132.846	42.877	0	14.70	0	10.5510	0	33.8640	8	25.971	0	14.583	0	269.1	4	98.4	4	-1E+10	1	-1E+10	1	-1E+10	1	-1E+10	1	-1E+10	1	-1E+10	1
4901784	138	C	04/15/2019	10:47	-132.846	42.877	0	16.40	0	10.5390	0	33.8650	8	25.974	0	16.269	0	269.3	4	98.4	4	-1E+10	1	-1E+10	1	-1E+10	1	-1E+10	1	-1E+10	1	-1E+10	1
4901784	138	C	04/15/2019	10:47	-132.846	42.877	0	18.00	0	10.5450	0	33.8660	8	25.974	0	17.857	0	269.3	4	98.4	4	-1E+10	1	-1E+10	1	-1E+10	1	-1E+10	1	-1E+10	1	-1E+10	1
4901784	138	C	04/15/2019	10:47	-132.846	42.877	0	19.70	0	10.5430	0	33.8670	8	25.975	0	19.543	0	269.3	4	98.4	4	-1E+10	1	-1E+10	1	-1E+10	1	-1E+10	1	-1E+10	1	-1E+10	1
4901784	138	C	04/15/2019	10:47	-132.846	42.877	0	21.30	0	10.5440	0	33.8680	8	25.976	0	21.130	0	269.1	4	98.3	4	-1E+10	1	-1E+10	1	-1E+10	1	-1E+10	1	-1E+10	1	-1E+10	1
4901784	138	C	04/15/2019	10:47	-132.846	42.877	0	23.10	0	10.5400	0	33.8680	8	25.976	0	22.916	0	269.2	4	98.4	4	-1E+10	1	-1E+10	1	-1E+10	1	-1E+10	1	-1E+10	1	-1E+10	1
4901784	138	C	04/15/2019	10:47	-132.846	42.877	0	24.70	0	10.5400	0	33.8680	8	25.976	0	24.503	0	269.0	4	98.3	4	-1E+10	1	-1E+10	1	-1E+10	1	-1E+10	1	-1E+10	1	-1E+10	1
4901784	138	C	04/15/2019	10:47	-132.846	42.877	0	26.50	0	10.5430	0	33.8650	8	25.973	0	26.288	0	269.0	4	98.3	4	-1E+10	1	-1E+10	1	-1E+10	1	-1E+10	1	-1E+10	1	-1E+10	1
4901784	138	C	04/15/2019	10:47	-132.846	42.877	0	28.30	0	10.5490	0	33.8680	8	25.975	0	28.074	0	269.0	4	98.3	4	-1E+10	1	-1E+10	1	-1E+10	1	-1E+10	1	-1E+10	1	-1E+10	1
4901784	138	C	04/15/2019	10:47	-132.846	42.877	0	30.10	0	10.5480	0	33.8680	8	25.975	0	29.859	0	268.8	4	98.2	4	-1E+10	1	-1E+10	1	-1E+10	1	-1E+10	1	-1E+10	1	-1E+10	1
4901784	138	C	04/15/2019	10:47	-132.846	42.877	0	31.70	0	10.5440	0	33.8710	8	25.978	0	31.446	0	268.8	4	98.2	4	-1E+10	1	-1E+10	1	-1E+10	1	-1E+10	1	-1E+10	1	-1E+10	1
4901784	138	C	04/15/2019	10:47	-132.846	42.877	0	33.40	0	10.5490	0	33.8690	8	25.976	0	33.133	0	268.6	4	98.2	4	-1E+10	1	-1E+10	1	-1E+10	1	-1E+10	1	-1E+10	1	-1E+10	1
4901784	138	C	04/15/2019	10:47	-132.846	42.877	0	35.00	0	10.5450	0	33.8700	8	25.977	0	34.720	0	268.6	4	98.2	4	-1E+10	1	-1E+10	1	-1E+10	1	-1E+10	1	-1E+10	1	-1E+10	1
4901784	138	C	04/15/2019	10:47	-132.846	42.877	0	36.70	0	10.5320	0	33.8700	8	25.979	0	36.406	0	268.3	4	98.0	4	-1E+10	1	-1E+10	1	-1E+10	1	-1E+10	1	-1E+10	1	-1E+10	1
4901784	138	C	04/15/2019	10:47	-132.846	42.877	0	38.40	0	10.5340	0	33.8690	8	25.978	0	38.092	0	268.2	4	98.0	4	-1E+10	1	-1E+10	1	-1E+10	1	-1E+10	1	-1E+10	1	-1E+10	1
4901784	138	C	04/15/2019	10:47	-132.846	42.877	0	40.10	0	10.5370	0	33.8690	8	25.978	0	39.778	0	267.7	4	97.8	4	-1E+10	1	-1E+10	1	-1E+10	1	-1E+10	1	-1E+10	1	-1E+10	1
4901784	138	C	04/15/2019	10:47	-132.846	42.877	0	41.90	0	10.5130	0	33.8690	8	25.982	0	41.564	0	267.2	4	97.6	4	-1E+10	1	-1E+10	1	-1E+10	1	-1E+10	1	-1E+10	1	-1E+10	1
4901784	138	C	04/15/2019	10:47	-132.846	42.877	0	43.70	0	10.4560	0	33.8680	8	25.991	0	43.349	0	267.2	4	97.5	4	-1E+10	1	-1E+10	1	-1E+10	1	-1E+10	1	-1E+10	1	-1E+10	1
4901784	138	C	04/15/2019	10:47	-132.846	42.877	0	45.30	0	10.4320	0	33.8660	8	25.994	0	44.936	0	266.6	4	97.2	4	-1E+10	1	-1E+10	1	-1E+10	1	-1E+10	1	-1E+10	1	-1E+10	1
4901784	138	C	04/15/2019	10:47	-132.846	42.877	0	47.00	0	10.4140	0	33.8690	8	25.999	0	46.622	0	266.1	4	97.0	4	-1E+10	1	-1E+10	1	-1E+10	1	-1E+10	1	-1E+10	1	-1E+10	1
4901784	138	C	04/15/2019	10:47	-132.846	42.877	0	48.60	0	10.4040	0	33.8690	8	26.001	0	48.209	0	265.5	4	96.7	4	-1E+10	1	-1E+10	1	-1E+10	1	-1E+10	1	-1E+10	1	-1E+10	1
4901784	138	C	04/15/2019	10:47	-132.846	42.877	0	50.20	0	10.3330	0	33.8670	8	26.012	0	49.796	0	264.7	4	96.3	4	-1E+10	1	-1E+10	1	-1E+10	1	-1E+10	1	-1E+10	1	-1E+10	1
4901784	138	C	04/15/2019	10:47	-132.846	42.877	0	51.90	0	10.2410	0	33.8660	8	26.027	0	51.482	0	264.2	4	95.9	4	-1E+10	1	-1E+10	1	-1E+10	1	-1E+10	1	-1E+10	1	-1E+10	1
4901784	138	C	04/15/2019	10:47	-132.846	42.877	0	53.50	0	10.2060	0	33.8690	8	26.035	0	53.069	0	263.5	4	95.6	4	-1E+10	1	-1E+10	1	-1E+10	1	-1E+10	1	-1E+10	1	-1E+10	1
4901784	138	C	04/15/2019	10:47	-132.846	42.877	0	55.10	0	10.1240	0	33.8660	8	26.047	0	54.656	0	263.5	4	95.4	4	-1E+10	1	-1E+10	1	-1E+10	1	-1E+10	1	-1E+10	1	-1E+10	1
4901784	138	C	04/15/2019	10:47	-132.846	42.877	0	56.90	0	10.0730	0	33.8710	8	26.060	0	56.441	0	263.3	4	95.2	4	-1E+10	1	-1E+10	1	-1E+10	1	-1E+10	1	-1E+10	1	-1E+10	1
4901784	138	C	04/15/2019	10:47	-132.846	42.877	0	58.50	0	10.0530	0	33.8710	8	26.063	0	58.028	0	263.4	4	95.2	4	-1E+10	1	-1E+10	1	-1E+10	1	-1E+10	1	-1E+10	1	-1E+10	1
4901784	138	C	04/15/2019	10:47	-132.846	42.877	0	60.20	0	10.0430	0	33.8720	8	26.065	0	59.714	0	263.3	4	95.2	4	-1E+10	1	-1E+10	1	-1E+10	1	-1E+10	1	-1E+10	1	-1E+10	1
4901784	138	C	04/15/2019	10:47	-132.846	42.877	0	61.90	0	10.0380	0	33.8710	8	26.066	0	61.400	0	263.3	4	95.2	4	-1E+10	1	-1E+10	1	-1E+10	1	-1E+10	1	-1E+10	1	-1E+10	1
4901784	138	C	04/15/2019	10:47	-132.846	42.877	0	63.50	0	10.0300	0	33.8710	8	26.067	0	62.987	0	263.1	4	95.1	4	-1E+10	1	-1E+10	1	-1E+10	1	-1E+10	1	-1E+10	1	-1E+10	1
4901784	138	C	04/15/2019	10:47	-132.846	42.877	0	65.10	0	9.9740	0	33.8770	8	26.081	0	64.574	0	263.1	4	95.0	4	-1E+10	1	-1E+10	1	-1E+10	1	-1E+10	1	-1E+10	1	-1E+10	1
4901784	138	C	04/15/2019	10:47	-132.846	42.877	0	66.80	0	9.9560	0	33.8780	8	26.085	0	66.260	0	262.9	4	94.9	4	-1E+10	1	-1E+10	1	-1E+10	1	-1E+10	1	-1E+10	1	-1E+10	1
4901784	138	C	04/15/2019	10:47	-132.846	42.877	0	68.60	0	9.9150	0	33.8820	8	26.095	0	68.045	0	263.0	4	94.8	4	-1E+10	1	-1E+10	1	-1E+10	1	-1E+10	1	-1E+10	1	-1E+10	1
4901784	138	C	04/15/2019	10:47	-132.846	42.877	0	70.30	0	9.9120	0	33.8810	8	26.095	0	69.731	0	263.0	4	94.8	4	-1E+10	1	-1E+10	1	-1E+10	1	-1E+10	1	-1E+10	1	-1E+10	1
4901784	138	C	04/15/2019	10:47	-132.846	42.877	0	72.00	0	9.8820	0	33.8850	8	26.103	0	71.417	0	263.2	4	94.8	4	-1E+10	1	-1E+10	1	-1E+10	1	-1E+10	1	-1E+10	1	-1E+10	1
4901784	138	C	04/15/2019	10:47	-132.846	42.877	0	73.70	0	9.8780	0	33.8850	8	26.104	0	73.103	0	263.0	4	94.8	4	-1E+10	1	-1E+10	1	-1E+10	1	-1E+10	1	-1E+10	1	-1E+10	1
4901784	138	C	04/15/2019	10:47	-132.846	42.877	0	75.40	0	9.8750	0	33.8860	8	26.105	0	74.789	0	263.1	4	94.8	4	-1E+10	1	-1E+10	1	-1E+10	1	-1E+10	1	-1E+10	1	-1E+10	1
4901784	138	C	04/15/2019	10:47	-132.846	42.877	0	77.00	0	9.8720	0	33.8860	8	26.105	0	76.376	0	262.8	4	94.7	4	-1E+10	1	-1E+10	1	-1E+10	1	-1E+10	1	-1E+10	1	-1E+10	1
4901784	138	C	04/15/2019	10:47	-132.846	42.877	0	78.80	0	9.8540	0	33.8870	8	26.109	0	78.161	0	262.6	4	94.6	4	-1E+10	1	-1E+10	1	-1E+10	1	-1E+10	1	-1E+10	1	-1E+10	1
4901784	138	C	04/15/2019	10:47	-132.846	42.877	0	80.60	0	9.8360	0	33.8890	8	26.114	0	79.946	0	262.7	4	94.6	4	-1E+10	1	-1E+10	1	-1E+10	1	-1E+10	1	-1E+10	1	-1E+10	1
4901784	138	C	04/15/2019	10:47	-132.846	42.877	0	82.30	0	9.8360	0	33.8880	8	26.113	0	81.632	0	262.5	4	94.5	4	-1E+10	1	-1E+10	1	-1E+10	1	-1E+10	1	-1E+10	1	-1E+10	1
4901784	138	C	04/15/2019	10:47	-132.846	42.877	0	84.20	0	9.8320	0	33.8880	8	26.114	0	83.516	0	262.4	4	94.4	4	-1E+10	1	-1E+10	1	-1E+10	1	-1E+10	1	-1E+10	1	-1E+10	1
4901784	138	C	04/15/2019	10:47	-132.846	42.877	0	86.00	0	9.8040	0	33.8900	8	26.120	0	85.301	0	262.1	4	94.3	4	-1E+10	1	-1E+10	1	-1E+10	1	-1E+10	1	-1E+10	1	-1E+10	1
4901784	138	C	04/15/2019	10:47	-132.846	42.877	0	87.70	0	9.7770	0	33.8960	8	26.129	0	86.987	0	262.0	4	94.2	4	-1E+10	1	-1E+10	1	-1E+10	1	-1E+10	1	-1E+10	1	-1E+10	1
4901784	138	C	04/15/2019	10:47	-132.846	42.877	0	89.50	0	9.7230	0	33.9010	8	26.142	0	88.772	0	262.0	4	94.1	4	-1E+10	1	-1E+10	1	-1E+10	1	-1E+10	1	-1E+10	1	-1E+10	1
4901784	138	C	04/15/2019	10:47	-132.846	42.877	0	91.30	0	9.6860	0	33.9060	8	26.152	0	90.557	0	261.5	4	93.8	4	-1E+10	1	-1E+10	1	-1E+10	1	-1E+10	1	-1E+10	1	-1E+10	1
4901784	138	C	04/15/2019	10:47	-132.846	42.877	0	93.10	0	9.6470	0	33.9130	8	26.164	0	92.342	0	261.1	4	93.6	4	-1E+10	1	-1E+10	1	-1E+10	1	-1E+10	1	-1E+10	1	-1E+10	1
4901784	138	C	04/15/2019	10:47	-132.846	42.877	0	95.00	0	9.6410	0	33.9130	8	26.165	0	94.226	0	260.5	4	93.4	4	-1E+10	1	-1E+10	1	-1E+10	1	-1E+10	1	-1E+10	1	-1E+10	1
4901784	138	C	04/15/2019	10:47	-132.846	42.877	0	96.70	0	9.6260	0	33.9130	8	26.168	0	95.911	0	259.8	4	93.1	4	-1E+10	1	-1E+10	1	-1E+10	1	-1E+10	1	-1E+10	1	-1E+10	1
4901784	138	C	04/15/2019	10:47	-132.846	42.877	0	98.40	0	9.6200	0	33.9120	8	26.168	0	97.597	0	258.4	4	92.6	4	-1E+10	1	-1E+10	1	-1E+10	1	-1E+10	1	-1E+10	1	-1E+10	1
4901784	138	C	04/15/2019	10:47	-132.846	42.877	0	100.40	0	9.5840	0	33.9140	8	26.176	0	99.580	0	256.7	4	91.9	4	-1E+10	1	-1E+10	1	-1E+10	1	-1E+10	1	-1E+10	1	-1E+10	1
4901784	138	C	04/15/2019	10:47	-132.846	42.877	0	103.00	0	9.4930	0	33.9200	8	26.195	0	102.158	0	252.6	4	90.3	4	-1E+10	1	-1E+10	1	-1E+10	1	-1E+10	1	-1E+10	1	-1E+10	1
4901784	138	C	04/15/2019	10:47	-132.846	42.877	0	105.00	0	9.4020	0	33.9160	8	26.207	0	104.142	0	248.4	4	88.6	4	-1E+10	1	-1E+10	1	-1E+10	1	-1E+10	1	-1E+10	1	-1E+10	1
4901784	138	C	04/15/2019	10:47	-132.846	42.877	0	107.20	0	8.9980	0	33.9890	8	26.329	0	106.323	0	245.8	4	86.9	4	-1E+10	1	-1E+10	1	-1E+10	1	-1E+10	1	-1E+10	1	-1E+10	1
4901784	138	C	04/15/2019	10:47	-132.846	42.877	0	110.00	0	8.7650	0	34.0300	8	26.398	0	109.099	0	242.0	4	85.2	4	-1E+10	1	-1E+10	1	-1E+10	1	-1E+10	1	-1E+10	1	-1E+10	1
4901784	138	C	04/15/2019	10:47	-132.846	42.877	0	112.30	0	8.5320	0	34.0800	8	26.473	0	111.380	0	239.5	4	83.9	4	-1E+10	1	-1E+10	1	-1E+10	1	-1E+10	1	-1E+10	1	-1E+10	1
4901784	138	C	04/15/2019	10:47	-132.846	42.877	0	114.70	0	8.2090	0	34.1670	8	26.590	0	113.760	0	237.8	4	82.8	4	-1E+10	1	-1E+10	1	-1E+10	1	-1E+10	1	-1E+10	1	-1E+10	1
4901784	138	C	04/15/2019	10:47	-132.846	42.877	0	117.30	0	8.1080	0	34.2040	8	26.635	0	116.338	0	236.4	4	82.1	4	-1E+10	1	-1E+10	1	-1E+10	1	-1E+10	1	-1E+10	1	-1E+10	1
4901784	138	C	04/15/2019	10:47	-132.846	42.877	0	120.00	0	8.0350	0	34.2720	8	26.699	0	119.015	0	234.1	4	81.2	4	-1E+10	1	-1E+10	1	-1E+10	1	-1E+10	1	-1E+10	1	-1E+10	1
4901784	138	C	04/15/2019	10:47	-132.846	42.877	0	122.60	0	7.9720	0	34.3470	8	26.767	0	121.592	0	232.2	4	80.5	4	-1E+10	1	-1E+10	1	-1E+10	1	-1E+10	1	-1E+10	1	-1E+10	1
4901784	138	C	04/15/2019	10:47	-132.846	42.877	0	125.20	0	7.9450	0	34.4110	8	26.822	0	124.170	0	230.5	4	79.9	4	-1E+10	1	-1E+10	1	-1E+10	1	-1E+10	1	-1E+10	1	-1E+10	1
4901784	138	C	04/15/2019	10:47	-132.846	42.877	0	127.80	0	7.9400	0	34.4180	8	26.828	0	126.748	0	228.9	4	79.3	4	-1E+10	1	-1E+10	1	-1E+10	1	-1E+10	1	-1E+10	1	-1E+10	1
4901784	138	C	04/15/2019	10:47	-132.846	42.877	0	130.40	0	7.9130	0	34.4730	8	26.875	0	129.326	0	226.7	4	78.6	4	-1E+10	1	-1E+10	1	-1E+10	1	-1E+10	1	-1E+10	1	-1E+10	1
4901784	138	C	04/15/2019	10:47	-132.846	42.877	0	133.00	0	7.8900	0	34.5430	8	26.934	0	131.904	0	224.5	4	77.8	4	-1E+10	1	-1E+10	1	-1E+10	1	-1E+10	1	-1E+10	1	-1E+10	1
4901784	138	C	04/15/2019	10:47	-132.846	42.877	0	134.80	0	7.9080	0	34.5680	8	26.951	0	133.688	0	223.0	4	77.3	4	-1E+10	1	-1E+10	1	-1E+10	1	-1E+10	1	-1E+10	1	-1E+10	1
4901784	138	C	04/15/2019	10:47	-132.846	42.877	0	137.60	0	7.8800	0	34.6180	8	26.994	0	136.464	0	220.7	4	76.5	4	-1E+10	1	-1E+10	1	-1E+10	1	-1E+10	1	-1E+10	1	-1E+10	1
4901784	138	C	04/15/2019	10:47	-132.846	42.877	0	141.00	0	7.9270	0	34.6850	8	27.040	0	139.835	0	217.4	4	75.5	4	-1E+10	1	-1E+10	1	-1E+10	1	-1E+10	1	-1E+10	1	-1E+10	1
4901784	138	C	04/15/2019	10:47	-132.846	42.877	0	142.80	0	7.9230	0	34.7200	8	27.068	0	141.620	0	215.6	4	74.9	4	-1E+10	1	-1E+10	1	-1E+10	1	-1E+10	1	-1E+10	1	-1E+10	1
4901784	138	C	04/15/2019	10:47	-132.846	42.877	0	145.00	0	7.9290	0	34.7710	8	27.107	0	143.801	0	213.8	4	74.3	4	-1E+10	1	-1E+10	1	-1E+10	1	-1E+10	1	-1E+10	1	-1E+10	1
4901784	138	C	04/15/2019	10:47	-132.846	42.877	0	147.40	0	7.8900	0	34.7950	8	27.132	0	146.180	0	211.8	4	73.5	4	-1E+10	1	-1E+10	1	-1E+10	1	-1E+10	1	-1E+10	1	-1E+10	1
4901784	138	C	04/15/2019	10:47	-132.846	42.877	0	149.80	0	7.9460	0	34.8500	8	27.167	0	148.559	0	208.3	4	72.4	4	-1E+10	1	-1E+10	1	-1E+10	1	-1E+10	1	-1E+10	1	-1E+10	1
4901784	138	C	04/15/2019	10:47	-132.846	42.877	0	152.20	0	7.9500	0	34.9160	8	27.218	0	150.938	0	206.1	4	71.7	4	-1E+10	1	-1E+10	1	-1E+10	1	-1E+10	1	-1E+10	1	-1E+10	1
4901784	138	C	04/15/2019	10:47	-132.846	42.877	0	154.70	0	7.9140	0	34.9660	8	27.263	0	153.417	0	204.0	4	71.0	4	-1E+10	1	-1E+10	1	-1E+10	1	-1E+10	1	-1E+10	1	-1E+10	1
4901784	138	C	04/15/2019	10:47	-132.846	42.877	0	157.30	0	7.9180	0	35.0170	8	27.302	0	155.994	0	201.2	4	70.0	4	-1E+10	1	-1E+10	1	-1E+10	1	-1E+10	1	-1E+10	1	-1E+10	1
4901784	138	C	04/15/2019	10:47	-132.846	42.877	0	159.80	0	7.9550	0	35.0480	8	27.321	0	158.473	0	197.5	4	68.8	4	-1E+10	1	-1E+10	1	-1E+10	1	-1E+10	1	-1E+10	1	-1E+10	1
4901784	138	C	04/15/2019	10:47	-132.846	42.877	0	162.40	0	8.0360	0	35.1140	8	27.361	0	161.050	0	193.5	4	67.6	4	-1E+10	1	-1E+10	1	-1E+10	1	-1E+10	1	-1E+10	1	-1E+10	1
4901784	138	C	04/15/2019	10:47	-132.846	42.877	0	165.00	0	8.0970	0	35.1880	8	27.410	0	163.627	0	190.4	4	66.6	4	-1E+10	1	-1E+10	1	-1E+10	1	-1E+10	1	-1E+10	1	-1E+10	1
4901784	138	C	04/15/2019	10:47	-132.846	42.877	0	167.60	0	8.1350	0	35.2250	8	27.433	0	166.205	0	188.3	4	65.9	4	-1E+10	1	-1E+10	1	-1E+10	1	-1E+10	1	-1E+10	1	-1E+10	1
4901784	138	C	04/15/2019	10:47	-132.846	42.877	0	169.40	0	8.1530	0	35.2420	8	27.444	0	167.989	0	186.8	4	65.5	4	-1E+10	1	-1E+10	1	-1E+10	1	-1E+10	1	-1E+10	1	-1E+10	1
4901784	138	C	04/15/2019	10:47	-132.846	42.877	0	172.40	0	8.1680	0	35.2800	8	27.471	0	170.963	0	184.6	4	64.7	4	-1E+10	1	-1E+10	1	-1E+10	1	-1E+10	1	-1E+10	1	-1E+10	1
4901784	138	C	04/15/2019	10:47	-132.846	42.877	0	175.20	0	8.1900	0	35.3100	8	27.492	0	173.738	0	181.7	4	63.7	4	-1E+10	1	-1E+10	1	-1E+10	1	-1E+10	1	-1E+10	1	-1E+10	1
4901784	138	C	04/15/2019	10:47	-132.846	42.877	0	177.40	0	8.2180	0	35.3310	8	27.504	0	175.919	0	179.1	4	62.9	4	-1E+10	1	-1E+10	1	-1E+10	1	-1E+10	1	-1E+10	1	-1E+10	1
4901784	138	C	04/15/2019	10:47	-132.846	42.877	0	180.30	0	8.2500	0	35.3620	8	27.523	0	178.793	0	176.3	4	61.9	4	-1E+10	1	-1E+10	1	-1E+10	1	-1E+10	1	-1E+10	1	-1E+10	1
4901784	138	C	04/15/2019	10:47	-132.846	42.877	0	182.60	0	8.2520	0	35.3740	8	27.532	0	181.073	0	174.5	4	61.3	4	-1E+10	1	-1E+10	1	-1E+10	1	-1E+10	1	-1E+10	1	-1E+10	1
4901784	138	C	04/15/2019	10:47	-132.846	42.877	0	184.90	0	8.2490	0	35.3820	8	27.539	0	183.353	0	172.1	4	60.5	4	-1E+10	1	-1E+10	1	-1E+10	1	-1E+10	1	-1E+10	1	-1E+10	1
4901784	138	C	04/15/2019	10:47	-132.846	42.877	0	187.20	0	8.2500	0	35.4010	8	27.554	0	185.633	0	168.7	4	59.3	4	-1E+10	1	-1E+10	1	-1E+10	1	-1E+10	1	-1E+10	1	-1E+10	1
4901784	138	C	04/15/2019	10:47	-132.846	42.877	0	189.60	0	8.2750	0	35.4250	8	27.569	0	188.011	0	166.3	4	58.5	4	-1E+10	1	-1E+10	1	-1E+10	1	-1E+10	1	-1E+10	1	-1E+10	1
4901784	138	C	04/15/2019	10:47	-132.846	42.877	0	192.80	0	8.2510	0	35.4380	8	27.583	0	191.183	0	164.0	4	57.7	4	-1E+10	1	-1E+10	1	-1E+10	1	-1E+10	1	-1E+10	1	-1E+10	1
4901784	138	C	04/15/2019	10:47	-132.846	42.877	0	195.30	0	8.2070	0	35.4430	8	27.594	0	193.661	0	162.9	4	57.2	4	-1E+10	1	-1E+10	1	-1E+10	1	-1E+10	1	-1E+10	1	-1E+10	1
4901784	138	C	04/15/2019	10:47	-132.846	42.877	0	197.80	0	8.1910	0	35.4470	8	27.599	0	196.139	0	161.7	4	56.8	4	-1E+10	1	-1E+10	1	-1E+10	1	-1E+10	1	-1E+10	1	-1E+10	1
4901784	138	C	04/15/2019	10:47	-132.846	42.877	0	200.30	0	8.1610	0	35.4480	8	27.605	0	198.617	0	160.4	4	56.3	4	-1E+10	1	-1E+10	1	-1E+10	1	-1E+10	1	-1E+10	1	-1E+10	1
4901784	138	C	04/15/2019	10:47	-132.846	42.877	0	202.80	0	8.1260	0	35.4510	8	27.613	0	201.094	0	158.8	4	55.7	4	-1E+10	1	-1E+10	1	-1E+10	1	-1E+10	1	-1E+10	1	-1E+10	1
4901784	138	C	04/15/2019	10:47	-132.846	42.877	0	205.30	0	8.0490	0	35.4540	8	27.627	0	203.572	0	157.7	4	55.2	4	-1E+10	1	-1E+10	1	-1E+10	1	-1E+10	1	-1E+10	1	-1E+10	1
4901784	138	C	04/15/2019	10:47	-132.846	42.877	0	207.80	0	8.0150	0	35.4580	8	27.635	0	206.050	0	156.9	4	54.9	4	-1E+10	1	-1E+10	1	-1E+10	1	-1E+10	1	-1E+10	1	-1E+10	1
4901784	138	C	04/15/2019	10:47	-132.846	42.877	0	210.40	0	8.0040	0	35.4560	8	27.635	0	208.627	0	155.9	4	54.5	4	-1E+10	1	-1E+10	1	-1E+10	1	-1E+10	1	-1E+10	1	-1E+10	1
4901784	138	C	04/15/2019	10:47	-132.846	42.877	0	212.90	0	7.9750	0	35.4560	8	27.640	0	211.104	0	154.7	4	54.1	4	-1E+10	1	-1E+10	1	-1E+10	1	-1E+10	1	-1E+10	1	-1E+10	1
4901784	138	C	04/15/2019	10:47	-132.846	42.877	0	215.30	0	7.9550	0	35.4530	8	27.640	0	213.483	0	153.1	4	53.5	4	-1E+10	1	-1E+10	1	-1E+10	1	-1E+10	1	-1E+10	1	-1E+10	1
4901784	138	C	04/15/2019	10:47	-132.846	42.877	0	217.10	0	7.8540	0	35.4590	8	27.660	0	215.267	0	152.1	4	53.0	4	-1E+10	1	-1E+10	1	-1E+10	1	-1E+10	1	-1E+10	1	-1E+10	1
4901784	138	C	04/15/2019	10:47	-132.846	42.877	0	219.60	0	7.8150	0	35.4580	8	27.665	0	217.744	0	151.5	4	52.8	4	-1E+10	1	-1E+10	1	-1E+10	1	-1E+10	1	-1E+10	1	-1E+10	1
4901784	138	C	04/15/2019	10:47	-132.846	42.877	0	222.20	0	7.7630	0	35.4600	8	27.674	0	220.321	0	150.9	4	52.5	4	-1E+10	1	-1E+10	1	-1E+10	1	-1E+10	1	-1E+10	1	-1E+10	1
4901784	138	C	04/15/2019	10:47	-132.846	42.877	0	224.80	0	7.7370	0	35.4630	8	27.681	0	222.898	0	150.4	4	52.3	4	-1E+10	1	-1E+10	1	-1E+10	1	-1E+10	1	-1E+10	1	-1E+10	1
4901784	138	C	04/15/2019	10:47	-132.846	42.877	0	227.50	0	7.7250	0	35.4630	8	27.683	0	225.573	0	149.8	4	52.1	4	-1E+10	1	-1E+10	1	-1E+10	1	-1E+10	1	-1E+10	1	-1E+10	1
4901784	138	C	04/15/2019	10:47	-132.846	42.877	0	230.20	0	7.7060	0	35.4630	8	27.685	0	228.249	0	149.1	4	51.8	4	-1E+10	1	-1E+10	1	-1E+10	1	-1E+10	1	-1E+10	1	-1E+10	1
4901784	138	C	04/15/2019	10:47	-132.846	42.877	0	232.80	0	7.6810	0	35.4630	8	27.689	0	230.825	0	148.4	4	51.5	4	-1E+10	1	-1E+10	1	-1E+10	1	-1E+10	1	-1E+10	1	-1E+10	1
4901784	138	C	04/15/2019	10:47	-132.846	42.877	0	234.60	0	7.6640	0	35.4630	8	27.692	0	232.609	0	147.8	4	51.3	4	-1E+10	1	-1E+10	1	-1E+10	1	-1E+10	1	-1E+10	1	-1E+10	1
4901784	138	C	04/15/2019	10:47	-132.846	42.877	0	237.20	0	7.6330	0	35.4650	8	27.698	0	235.186	0	146.8	4	50.9	4	-1E+10	1	-1E+10	1	-1E+10	1	-1E+10	1	-1E+10	1	-1E+10	1
4901784	138	C	04/15/2019	10:47	-132.846	42.877	0	239.90	0	7.6010	0	35.4640	8	27.702	0	237.861	0	145.5	4	50.4	4	-1E+10	1	-1E+10	1	-1E+10	1	-1E+10	1	-1E+10	1	-1E+10	1
4901784	138	C	04/15/2019	10:47	-132.846	42.877	0	242.60	0	7.5620	0	35.4650	8	27.708	0	240.537	0	144.0	4	49.9	4	-1E+10	1	-1E+10	1	-1E+10	1	-1E+10	1	-1E+10	1	-1E+10	1
4901784	138	C	04/15/2019	10:47	-132.846	42.877	0	245.30	0	7.4760	0	35.4640	8	27.720	0	243.212	0	142.4	4	49.2	4	-1E+10	1	-1E+10	1	-1E+10	1	-1E+10	1	-1E+10	1	-1E+10	1
4901784	138	C	04/15/2019	10:47	-132.846	42.877	0	247.00	0	7.4270	0	35.4650	8	27.728	0	244.897	0	141.6	4	48.9	4	-1E+10	1	-1E+10	1	-1E+10	1	-1E+10	1	-1E+10	1	-1E+10	1
4901784	138	C	04/15/2019	10:47	-132.846	42.877	0	249.70	0	7.3940	0	35.4640	8	27.732	0	247.572	0	140.4	4	48.4	4	-1E+10	1	-1E+10	1	-1E+10	1	-1E+10	1	-1E+10	1	-1E+10	1
4901784	138	C	04/15/2019	10:47	-132.846	42.877	0	252.30	0	7.3290	0	35.4660	8	27.743	0	250.148	0	139.2	4	48.0	4	-1E+10	1	-1E+10	1	-1E+10	1	-1E+10	1	-1E+10	1	-1E+10	1
4901784	138	C	04/15/2019	10:47	-132.846	42.877	0	255.00	0	7.2870	0	35.4660	8	27.749	0	252.823	0	137.9	4	47.5	4	-1E+10	1	-1E+10	1	-1E+10	1	-1E+10	1	-1E+10	1	-1E+10	1
4901784	138	C	04/15/2019	10:47	-132.846	42.877	0	257.70	0	7.2290	0	35.4680	8	27.759	0	255.499	0	136.6	4	46.9	4	-1E+10	1	-1E+10	1	-1E+10	1	-1E+10	1	-1E+10	1	-1E+10	1
4901784	138	C	04/15/2019	10:47	-132.846	42.877	0	259.40	0	7.1730	0	35.4690	8	27.768	0	257.183	0	135.7	4	46.6	4	-1E+10	1	-1E+10	1	-1E+10	1	-1E+10	1	-1E+10	1	-1E+10	1
4901784	138	C	04/15/2019	10:47	-132.846	42.877	0	262.20	0	7.1400	0	35.4670	8	27.771	0	259.958	0	134.6	4	46.2	4	-1E+10	1	-1E+10	1	-1E+10	1	-1E+10	1	-1E+10	1	-1E+10	1
4901784	138	C	04/15/2019	10:47	-132.846	42.877	0	264.80	0	7.0760	0	35.4690	8	27.782	0	262.534	0	133.5	4	45.7	4	-1E+10	1	-1E+10	1	-1E+10	1	-1E+10	1	-1E+10	1	-1E+10	1
4901784	138	C	04/15/2019	10:47	-132.846	42.877	0	267.50	0	7.0340	0	35.4700	8	27.788	0	265.209	0	132.8	4	45.5	4	-1E+10	1	-1E+10	1	-1E+10	1	-1E+10	1	-1E+10	1	-1E+10	1
4901784	138	C	04/15/2019	10:47	-132.846	42.877	0	270.30	0	7.0180	0	35.4700	8	27.791	0	267.983	0	132.1	4	45.2	4	-1E+10	1	-1E+10	1	-1E+10	1	-1E+10	1	-1E+10	1	-1E+10	1
4901784	138	C	04/15/2019	10:47	-132.846	42.877	0	272.00	0	6.9970	0	35.4690	8	27.793	0	269.667	0	131.5	4	45.0	4	-1E+10	1	-1E+10	1	-1E+10	1	-1E+10	1	-1E+10	1	-1E+10	1
4901784	138	C	04/15/2019	10:47	-132.846	42.877	0	274.80	0	6.9620	0	35.4710	8	27.799	0	272.441	0	130.7	4	44.7	4	-1E+10	1	-1E+10	1	-1E+10	1	-1E+10	1	-1E+10	1	-1E+10	1
4901784	138	C	04/15/2019	10:47	-132.846	42.877	0	277.50	0	6.9310	0	35.4710	8	27.804	0	275.117	0	129.9	4	44.4	4	-1E+10	1	-1E+10	1	-1E+10	1	-1E+10	1	-1E+10	1	-1E+10	1
4901784	138	C	04/15/2019	10:47	-132.846	42.877	0	280.20	0	6.9150	0	35.4720	8	27.807	0	277.792	0	129.1	4	44.1	4	-1E+10	1	-1E+10	1	-1E+10	1	-1E+10	1	-1E+10	1	-1E+10	1
4901784	138	C	04/15/2019	10:47	-132.846	42.877	0	282.90	0	6.9030	0	35.4710	8	27.808	0	280.466	0	128.0	4	43.7	4	-1E+10	1	-1E+10	1	-1E+10	1	-1E+10	1	-1E+10	1	-1E+10	1
4901784	138	C	04/15/2019	10:47	-132.846	42.877	0	284.80	0	6.8710	0	35.4720	8	27.813	0	282.349	0	127.4	4	43.4	4	-1E+10	1	-1E+10	1	-1E+10	1	-1E+10	1	-1E+10	1	-1E+10	1
4901784	138	C	04/15/2019	10:47	-132.846	42.877	0	287.60	0	6.8520	0	35.4720	8	27.815	0	285.123	0	126.1	4	43.0	4	-1E+10	1	-1E+10	1	-1E+10	1	-1E+10	1	-1E+10	1	-1E+10	1
4901784	138	C	04/15/2019	10:47	-132.846	42.877	0	290.40	0	6.8210	0	35.4700	8	27.818	0	287.897	0	124.8	4	42.5	4	-1E+10	1	-1E+10	1	-1E+10	1	-1E+10	1	-1E+10	1	-1E+10	1
4901784	138	C	04/15/2019	10:47	-132.846	42.877	0	292.20	0	6.7580	0	35.4740	8	27.830	0	289.680	0	123.9	4	42.1	4	-1E+10	1	-1E+10	1	-1E+10	1	-1E+10	1	-1E+10	1	-1E+10	1
4901784	138	C	04/15/2019	10:47	-132.846	42.877	0	295.00	0	6.7260	0	35.4730	8	27.834	0	292.454	0	123.1	4	41.8	4	-1E+10	1	-1E+10	1	-1E+10	1	-1E+10	1	-1E+10	1	-1E+10	1
4901784	138	C	04/15/2019	10:47	-132.846	42.877	0	297.80	0	6.6840	0	35.4750	8	27.841	0	295.228	0	122.4	4	41.6	4	-1E+10	1	-1E+10	1	-1E+10	1	-1E+10	1	-1E+10	1	-1E+10	1
4901784	138	C	04/15/2019	10:47	-132.846	42.877	0	299.60	0	6.6740	0	35.4750	8	27.842	0	297.011	0	122.0	4	41.4	4	-1E+10	1	-1E+10	1	-1E+10	1	-1E+10	1	-1E+10	1	-1E+10	1
4901784	138	C	04/15/2019	10:47	-132.846	42.877	0	302.30	0	6.6680	0	35.4740	8	27.843	0	299.686	0	121.1	4	41.1	4	-1E+10	1	-1E+10	1	-1E+10	1	-1E+10	1	-1E+10	1	-1E+10	1
4901784	138	C	04/15/2019	10:47	-132.846	42.877	0	305.10	0	6.6460	0	35.4720	8	27.844	0	302.459	0	120.0	4	40.7	4	-1E+10	1	-1E+10	1	-1E+10	1	-1E+10	1	-1E+10	1	-1E+10	1
4901784	138	C	04/15/2019	10:47	-132.846	42.877	0	307.00	0	6.5940	0	35.4740	8	27.853	0	304.341	0	119.0	4	40.3	4	-1E+10	1	-1E+10	1	-1E+10	1	-1E+10	1	-1E+10	1	-1E+10	1
4901784	138	C	04/15/2019	10:47	-132.846	42.877	0	309.90	0	6.5360	0	35.4740	8	27.861	0	307.214	0	117.8	4	39.9	4	-1E+10	1	-1E+10	1	-1E+10	1	-1E+10	1	-1E+10	1	-1E+10	1
4901784	138	C	04/15/2019	10:47	-132.846	42.877	0	312.70	0	6.5030	0	35.4740	8	27.865	0	309.988	0	116.4	4	39.4	4	-1E+10	1	-1E+10	1	-1E+10	1	-1E+10	1	-1E+10	1	-1E+10	1
4901784	138	C	04/15/2019	10:47	-132.846	42.877	0	314.50	0	6.4890	0	35.4700	8	27.864	0	311.771	0	115.1	4	38.9	4	-1E+10	1	-1E+10	1	-1E+10	1	-1E+10	1	-1E+10	1	-1E+10	1
4901784	138	C	04/15/2019	10:47	-132.846	42.877	0	317.20	0	6.3890	0	35.4750	8	27.881	0	314.445	0	113.6	4	38.3	4	-1E+10	1	-1E+10	1	-1E+10	1	-1E+10	1	-1E+10	1	-1E+10	1
4901784	138	C	04/15/2019	10:47	-132.846	42.877	0	320.00	0	6.3720	0	35.4730	8	27.882	0	317.219	0	112.1	4	37.8	4	-1E+10	1	-1E+10	1	-1E+10	1	-1E+10	1	-1E+10	1	-1E+10	1
4901784	138	C	04/15/2019	10:47	-132.846	42.877	0	321.90	0	6.3420	0	35.4740	8	27.887	0	319.101	0	111.0	4	37.4	4	-1E+10	1	-1E+10	1	-1E+10	1	-1E+10	1	-1E+10	1	-1E+10	1
4901784	138	C	04/15/2019	10:47	-132.846	42.877	0	324.80	0	6.2840	0	35.4740	8	27.894	0	321.973	0	109.4	4	36.8	4	-1E+10	1	-1E+10	1	-1E+10	1	-1E+10	1	-1E+10	1	-1E+10	1
4901784	138	C	04/15/2019	10:47	-132.846	42.877	0	327.60	0	6.2050	0	35.4780	8	27.908	0	324.747	0	108.1	4	36.3	4	-1E+10	1	-1E+10	1	-1E+10	1	-1E+10	1	-1E+10	1	-1E+10	1
4901784	138	C	04/15/2019	10:47	-132.846	42.877	0	329.50	0	6.1860	0	35.4790	8	27.911	0	326.629	0	107.5	4	36.1	4	-1E+10	1	-1E+10	1	-1E+10	1	-1E+10	1	-1E+10	1	-1E+10	1
4901784	138	C	04/15/2019	10:47	-132.846	42.877	0	332.40	0	6.1730	0	35.4790	8	27.913	0	329.501	0	106.8	4	35.8	4	-1E+10	1	-1E+10	1	-1E+10	1	-1E+10	1	-1E+10	1	-1E+10	1
4901784	138	C	04/15/2019	10:47	-132.846	42.877	0	335.30	0	6.1410	0	35.4790	8	27.917	0	332.374	0	106.1	4	35.6	4	-1E+10	1	-1E+10	1	-1E+10	1	-1E+10	1	-1E+10	1	-1E+10	1
4901784	138	C	04/15/2019	10:47	-132.846	42.877	0	337.30	0	6.1180	0	35.4790	8	27.920	0	334.355	0	105.3	4	35.3	4	-1E+10	1	-1E+10	1	-1E+10	1	-1E+10	1	-1E+10	1	-1E+10	1
4901784	138	C	04/15/2019	10:47	-132.846	42.877	0	339.10	0	6.1100	0	35.4780	8	27.920	0	336.137	0	104.4	4	35.0	4	-1E+10	1	-1E+10	1	-1E+10	1	-1E+10	1	-1E+10	1	-1E+10	1
4901784	138	C	04/15/2019	10:47	-132.846	42.877	0	342.30	0	6.0530	0	35.4810	8	27.930	0	339.307	0	102.9	4	34.4	4	-1E+10	1	-1E+10	1	-1E+10	1	-1E+10	1	-1E+10	1	-1E+10	1
4901784	138	C	04/15/2019	10:47	-132.846	42.877	0	345.30	0	6.0460	0	35.4820	8	27.932	0	342.278	0	100.8	4	33.7	4	-1E+10	1	-1E+10	1	-1E+10	1	-1E+10	1	-1E+10	1	-1E+10	1
4901784	138	C	04/15/2019	10:47	-132.846	42.877	0	347.70	0	6.0400	0	35.4830	8	27.934	0	344.655	0	99.1	4	33.2	4	-1E+10	1	-1E+10	1	-1E+10	1	-1E+10	1	-1E+10	1	-1E+10	1
4901784	138	C	04/15/2019	10:47	-132.846	42.877	0	350.20	0	6.0160	0	35.4850	8	27.938	0	347.131	0	97.4	4	32.6	4	-1E+10	1	-1E+10	1	-1E+10	1	-1E+10	1	-1E+10	1	-1E+10	1
4901784	138	C	04/15/2019	10:47	-132.846	42.877	0	352.70	0	5.9520	0	35.4850	8	27.947	0	349.607	0	96.3	4	32.2	4	-1E+10	1	-1E+10	1	-1E+10	1	-1E+10	1	-1E+10	1	-1E+10	1
4901784	138	C	04/15/2019	10:47	-132.846	42.877	0	355.20	0	5.9260	0	35.4880	8	27.952	0	352.083	0	94.5	4	31.5	4	-1E+10	1	-1E+10	1	-1E+10	1	-1E+10	1	-1E+10	1	-1E+10	1
4901784	138	C	04/15/2019	10:47	-132.846	42.877	0	357.70	0	5.9040	0	35.4900	8	27.957	0	354.559	0	93.0	4	31.0	4	-1E+10	1	-1E+10	1	-1E+10	1	-1E+10	1	-1E+10	1	-1E+10	1
4901784	138	C	04/15/2019	10:47	-132.846	42.877	0	360.20	0	5.8620	0	35.4930	8	27.964	0	357.035	0	91.8	4	30.6	4	-1E+10	1	-1E+10	1	-1E+10	1	-1E+10	1	-1E+10	1	-1E+10	1
4901784	138	C	04/15/2019	10:47	-132.846	42.877	0	362.70	0	5.8160	0	35.4920	8	27.970	0	359.511	0	89.7	4	29.9	4	-1E+10	1	-1E+10	1	-1E+10	1	-1E+10	1	-1E+10	1	-1E+10	1
4901784	138	C	04/15/2019	10:47	-132.846	42.877	0	365.20	0	5.7980	0	35.4990	8	27.977	0	361.987	0	87.2	4	29.0	4	-1E+10	1	-1E+10	1	-1E+10	1	-1E+10	1	-1E+10	1	-1E+10	1
4901784	138	C	04/15/2019	10:47	-132.846	42.877	0	367.80	0	5.8150	0	35.5020	8	27.978	0	364.561	0	85.8	4	28.5	4	-1E+10	1	-1E+10	1	-1E+10	1	-1E+10	1	-1E+10	1	-1E+10	1
4901784	138	C	04/15/2019	10:47	-132.846	42.877	0	370.30	0	5.8100	0	35.5030	8	27.979	0	367.037	0	84.8	4	28.2	4	-1E+10	1	-1E+10	1	-1E+10	1	-1E+10	1	-1E+10	1	-1E+10	1
4901784	138	C	04/15/2019	10:47	-132.846	42.877	0	372.80	0	5.7840	0	35.5040	8	27.983	0	369.513	0	83.9	4	27.9	4	-1E+10	1	-1E+10	1	-1E+10	1	-1E+10	1	-1E+10	1	-1E+10	1
4901784	138	C	04/15/2019	10:47	-132.846	42.877	0	375.40	0	5.7630	0	35.5040	8	27.986	0	372.088	0	82.7	4	27.5	4	-1E+10	1	-1E+10	1	-1E+10	1	-1E+10	1	-1E+10	1	-1E+10	1
4901784	138	C	04/15/2019	10:47	-132.846	42.877	0	377.10	0	5.7500	0	35.5050	8	27.988	0	373.771	0	81.6	4	27.1	4	-1E+10	1	-1E+10	1	-1E+10	1	-1E+10	1	-1E+10	1	-1E+10	1
4901784	138	C	04/15/2019	10:47	-132.846	42.877	0	379.70	0	5.7400	0	35.5080	8	27.992	0	376.346	0	79.7	4	26.5	4	-1E+10	1	-1E+10	1	-1E+10	1	-1E+10	1	-1E+10	1	-1E+10	1
4901784	138	C	04/15/2019	10:47	-132.846	42.877	0	382.30	0	5.6970	0	35.5110	8	28.000	0	378.921	0	78.1	4	25.9	4	-1E+10	1	-1E+10	1	-1E+10	1	-1E+10	1	-1E+10	1	-1E+10	1
4901784	138	C	04/15/2019	10:47	-132.846	42.877	0	384.90	0	5.6700	0	35.5150	8	28.006	0	381.495	0	76.7	4	25.4	4	-1E+10	1	-1E+10	1	-1E+10	1	-1E+10	1	-1E+10	1	-1E+10	1
4901784	138	C	04/15/2019	10:47	-132.846	42.877	0	387.60	0	5.6610	0	35.5190	8	28.011	0	384.169	0	75.4	4	25.0	4	-1E+10	1	-1E+10	1	-1E+10	1	-1E+10	1	-1E+10	1	-1E+10	1
4901784	138	C	04/15/2019	10:47	-132.846	42.877	0	390.20	0	5.6500	0	35.5190	8	28.012	0	386.743	0	74.0	4	24.5	4	-1E+10	1	-1E+10	1	-1E+10	1	-1E+10	1	-1E+10	1	-1E+10	1
4901784	138	C	04/15/2019	10:47	-132.846	42.877	0	392.90	0	5.6360	0	35.5230	8	28.017	0	389.417	0	72.7	4	24.1	4	-1E+10	1	-1E+10	1	-1E+10	1	-1E+10	1	-1E+10	1	-1E+10	1
4901784	138	C	04/15/2019	10:47	-132.846	42.877	0	394.70	0	5.6170	0	35.5250	8	28.021	0	391.199	0	72.0	4	23.9	4	-1E+10	1	-1E+10	1	-1E+10	1	-1E+10	1	-1E+10	1	-1E+10	1
4901784	138	C	04/15/2019	10:47	-132.846	42.877	0	397.30	0	5.5880	0	35.5260	8	28.025	0	393.774	0	71.0	4	23.5	4	-1E+10	1	-1E+10	1	-1E+10	1	-1E+10	1	-1E+10	1	-1E+10	1
4901784	138	C	04/15/2019	10:47	-132.846	42.877	0	400.00	0	5.5710	0	35.5280	8	28.029	0	396.447	0	69.9	4	23.2	4	-1E+10	1	-1E+10	1	-1E+10	1	-1E+10	1	-1E+10	1	-1E+10	1
4901784	138	C	04/15/2019	10:47	-132.846	42.877	0	402.70	0	5.5490	0	35.5300	8	28.033	0	399.121	0	68.8	4	22.8	4	-1E+10	1	-1E+10	1	-1E+10	1	-1E+10	1	-1E+10	1	-1E+10	1
4901784	138	C	04/15/2019	10:47	-132.846	42.877	0	405.50	0	5.5200	0	35.5330	8	28.039	0	401.893	0	67.8	4	22.4	4	-1E+10	1	-1E+10	1	-1E+10	1	-1E+10	1	-1E+10	1	-1E+10	1
4901784	138	C	04/15/2019	10:47	-132.846	42.877	0	407.30	0	5.5030	0	35.5350	8	28.043	0	403.675	0	67.3	4	22.2	4	-1E+10	1	-1E+10	1	-1E+10	1	-1E+10	1	-1E+10	1	-1E+10	1
4901784	138	C	04/15/2019	10:47	-132.846	42.877	0	410.10	0	5.4760	0	35.5370	8	28.048	0	406.448	0	66.4	4	21.9	4	-1E+10	1	-1E+10	1	-1E+10	1	-1E+10	1	-1E+10	1	-1E+10	1
4901784	138	C	04/15/2019	10:47	-132.846	42.877	0	412.80	0	5.4500	0	35.5400	8	28.054	0	409.121	0	65.7	4	21.7	4	-1E+10	1	-1E+10	1	-1E+10	1	-1E+10	1	-1E+10	1	-1E+10	1
4901784	138	C	04/15/2019	10:47	-132.846	42.877	0	414.70	0	5.4420	0	35.5410	8	28.055	0	411.002	0	65.1	4	21.5	4	-1E+10	1	-1E+10	1	-1E+10	1	-1E+10	1	-1E+10	1	-1E+10	1
4901784	138	C	04/15/2019	10:47	-132.846	42.877	0	417.40	0	5.4270	0	35.5450	8	28.061	0	413.675	0	64.2	4	21.2	4	-1E+10	1	-1E+10	1	-1E+10	1	-1E+10	1	-1E+10	1	-1E+10	1
4901784	138	C	04/15/2019	10:47	-132.846	42.877	0	420.00	0	5.4150	0	35.5460	8	28.063	0	416.249	0	63.7	4	21.0	4	-1E+10	1	-1E+10	1	-1E+10	1	-1E+10	1	-1E+10	1	-1E+10	1
4901784	138	C	04/15/2019	10:47	-132.846	42.877	0	422.70	0	5.4000	0	35.5480	8	28.066	0	418.923	0	63.3	4	20.9	4	-1E+10	1	-1E+10	1	-1E+10	1	-1E+10	1	-1E+10	1	-1E+10	1
4901784	138	C	04/15/2019	10:47	-132.846	42.877	0	425.40	0	5.3790	0	35.5480	8	28.069	0	421.596	0	62.9	4	20.7	4	-1E+10	1	-1E+10	1	-1E+10	1	-1E+10	1	-1E+10	1	-1E+10	1
4901784	138	C	04/15/2019	10:47	-132.846	42.877	0	427.20	0	5.3680	0	35.5480	8	28.070	0	423.378	0	62.4	4	20.6	4	-1E+10	1	-1E+10	1	-1E+10	1	-1E+10	1	-1E+10	1	-1E+10	1
4901784	138	C	04/15/2019	10:47	-132.846	42.877	0	429.90	0	5.3480	0	35.5500	8	28.074	0	426.051	0	61.4	4	20.2	4	-1E+10	1	-1E+10	1	-1E+10	1	-1E+10	1	-1E+10	1	-1E+10	1
4901784	138	C	04/15/2019	10:47	-132.846	42.877	0	432.70	0	5.3330	0	35.5540	8	28.079	0	428.823	0	60.4	4	19.9	4	-1E+10	1	-1E+10	1	-1E+10	1	-1E+10	1	-1E+10	1	-1E+10	1
4901784	138	C	04/15/2019	10:47	-132.846	42.877	0	434.50	0	5.3230	0	35.5570	8	28.083	0	430.605	0	59.7	4	19.7	4	-1E+10	1	-1E+10	1	-1E+10	1	-1E+10	1	-1E+10	1	-1E+10	1
4901784	138	C	04/15/2019	10:47	-132.846	42.877	0	437.30	0	5.3120	0	35.5600	8	28.087	0	433.377	0	59.1	4	19.4	4	-1E+10	1	-1E+10	1	-1E+10	1	-1E+10	1	-1E+10	1	-1E+10	1
4901784	138	C	04/15/2019	10:47	-132.846	42.877	0	440.00	0	5.2940	0	35.5620	8	28.090	0	436.050	0	58.7	4	19.3	4	-1E+10	1	-1E+10	1	-1E+10	1	-1E+10	1	-1E+10	1	-1E+10	1
4901784	138	C	04/15/2019	10:47	-132.846	42.877	0	442.80	0	5.2830	0	35.5620	8	28.092	0	438.822	0	58.3	4	19.2	4	-1E+10	1	-1E+10	1	-1E+10	1	-1E+10	1	-1E+10	1	-1E+10	1
4901784	138	C	04/15/2019	10:47	-132.846	42.877	0	445.50	0	5.2630	0	35.5640	8	28.096	0	441.495	0	58.0	4	19.1	4	-1E+10	1	-1E+10	1	-1E+10	1	-1E+10	1	-1E+10	1	-1E+10	1
4901784	138	C	04/15/2019	10:47	-132.846	42.877	0	447.30	0	5.2500	0	35.5650	8	28.098	0	443.277	0	57.8	4	19.0	4	-1E+10	1	-1E+10	1	-1E+10	1	-1E+10	1	-1E+10	1	-1E+10	1
4901784	138	C	04/15/2019	10:47	-132.846	42.877	0	449.90	0	5.2310	0	35.5660	8	28.101	0	445.850	0	57.5	4	18.9	4	-1E+10	1	-1E+10	1	-1E+10	1	-1E+10	1	-1E+10	1	-1E+10	1
4901784	138	C	04/15/2019	10:47	-132.846	42.877	0	452.60	0	5.2110	0	35.5670	8	28.104	0	448.523	0	57.0	4	18.7	4	-1E+10	1	-1E+10	1	-1E+10	1	-1E+10	1	-1E+10	1	-1E+10	1
4901784	138	C	04/15/2019	10:47	-132.846	42.877	0	455.40	0	5.1990	0	35.5690	8	28.108	0	451.295	0	56.0	4	18.4	4	-1E+10	1	-1E+10	1	-1E+10	1	-1E+10	1	-1E+10	1	-1E+10	1
4901784	138	C	04/15/2019	10:47	-132.846	42.877	0	458.00	0	5.1820	0	35.5710	8	28.111	0	453.869	0	55.1	4	18.1	4	-1E+10	1	-1E+10	1	-1E+10	1	-1E+10	1	-1E+10	1	-1E+10	1
4901784	138	C	04/15/2019	10:47	-132.846	42.877	0	459.80	0	5.1700	0	35.5730	8	28.114	0	455.650	0	54.5	4	17.9	4	-1E+10	1	-1E+10	1	-1E+10	1	-1E+10	1	-1E+10	1	-1E+10	1
4901784	138	C	04/15/2019	10:47	-132.846	42.877	0	462.50	0	5.1440	0	35.5770	8	28.121	0	458.323	0	53.4	4	17.5	4	-1E+10	1	-1E+10	1	-1E+10	1	-1E+10	1	-1E+10	1	-1E+10	1
4901784	138	C	04/15/2019	10:47	-132.846	42.877	0	465.20	0	5.1300	0	35.5800	8	28.125	0	460.996	0	52.4	4	17.2	4	-1E+10	1	-1E+10	1	-1E+10	1	-1E+10	1	-1E+10	1	-1E+10	1
4901784	138	C	04/15/2019	10:47	-132.846	42.877	0	467.00	0	5.1180	0	35.5830	8	28.128	0	462.777	0	51.7	4	16.9	4	-1E+10	1	-1E+10	1	-1E+10	1	-1E+10	1	-1E+10	1	-1E+10	1
4901784	138	C	04/15/2019	10:47	-132.846	42.877	0	469.70	0	5.1030	0	35.5860	8	28.133	0	465.450	0	50.5	4	16.5	4	-1E+10	1	-1E+10	1	-1E+10	1	-1E+10	1	-1E+10	1	-1E+10	1
4901784	138	C	04/15/2019	10:47	-132.846	42.877	0	472.40	0	5.0880	0	35.5920	8	28.139	0	468.123	0	49.4	4	16.2	4	-1E+10	1	-1E+10	1	-1E+10	1	-1E+10	1	-1E+10	1	-1E+10	1
4901784	138	C	04/15/2019	10:47	-132.846	42.877	0	475.10	0	5.0810	0	35.5940	8	28.142	0	470.795	0	48.4	4	15.9	4	-1E+10	1	-1E+10	1	-1E+10	1	-1E+10	1	-1E+10	1	-1E+10	1
4901784	138	C	04/15/2019	10:47	-132.846	42.877	0	477.80	0	5.0720	0	35.5960	8	28.144	0	473.467	0	47.2	4	15.4	4	-1E+10	1	-1E+10	1	-1E+10	1	-1E+10	1	-1E+10	1	-1E+10	1
4901784	138	C	04/15/2019	10:47	-132.846	42.877	0	479.60	0	5.0650	0	35.5990	8	28.148	0	475.249	0	46.2	4	15.1	4	-1E+10	1	-1E+10	1	-1E+10	1	-1E+10	1	-1E+10	1	-1E+10	1
4901784	138	C	04/15/2019	10:47	-132.846	42.877	0	482.30	0	5.0350	0	35.6070	8	28.157	0	477.921	0	45.2	4	14.8	4	-1E+10	1	-1E+10	1	-1E+10	1	-1E+10	1	-1E+10	1	-1E+10	1
4901784	138	C	04/15/2019	10:47	-132.846	42.877	0	484.90	0	5.0070	0	35.6130	8	28.165	0	480.495	0	44.7	4	14.6	4	-1E+10	1	-1E+10	1	-1E+10	1	-1E+10	1	-1E+10	1	-1E+10	1
4901784	138	C	04/15/2019	10:47	-132.846	42.877	0	487.70	0	4.9850	0	35.6170	8	28.171	0	483.266	0	44.6	4	14.6	4	-1E+10	1	-1E+10	1	-1E+10	1	-1E+10	1	-1E+10	1	-1E+10	1
4901784	138	C	04/15/2019	10:47	-132.846	42.877	0	490.40	0	4.9800	0	35.6170	8	28.172	0	485.938	0	44.7	4	14.6	4	-1E+10	1	-1E+10	1	-1E+10	1	-1E+10	1	-1E+10	1	-1E+10	1
4901784	138	C	04/15/2019	10:47	-132.846	42.877	0	492.20	0	4.9780	0	35.6170	8	28.172	0	487.720	0	44.7	4	14.6	4	-1E+10	1	-1E+10	1	-1E+10	1	-1E+10	1	-1E+10	1	-1E+10	1
4901784	138	C	04/15/2019	10:47	-132.846	42.877	0	495.00	0	4.9710	0	35.6180	8	28.174	0	490.491	0	44.7	4	14.6	4	-1E+10	1	-1E+10	1	-1E+10	1	-1E+10	1	-1E+10	1	-1E+10	1
4901784	138	C	04/15/2019	10:47	-132.846	42.877	0	497.70	0	4.9660	0	35.6180	8	28.174	0	493.163	0	44.9	4	14.7	4	-1E+10	1	-1E+10	1	-1E+10	1	-1E+10	1	-1E+10	1	-1E+10	1
4901784	138	C	04/15/2019	10:47	-132.846	42.877	0	499.60	0	4.9440	0	35.6180	8	28.177	0	495.044	0	45.5	4	14.8	4	-1E+10	1	-1E+10	1	-1E+10	1	-1E+10	1	-1E+10	1	-1E+10	1
4901784	138	C	04/15/2019	10:47	-132.846	42.877	0	505.20	0	4.8540	0	35.6190	8	28.188	0	500.586	0	45.7	4	14.9	4	-1E+10	1	-1E+10	1	-1E+10	1	-1E+10	1	-1E+10	1	-1E+10	1
4901784	138	C	04/15/2019	10:47	-132.846	42.877	0	509.80	0	4.8300	0	35.6210	8	28.193	0	505.138	0	45.5	4	14.8	4	-1E+10	1	-1E+10	1	-1E+10	1	-1E+10	1	-1E+10	1	-1E+10	1
4901784	138	C	04/15/2019	10:47	-132.846	42.877	0	514.50	0	4.7600	0	35.6250	8	28.204	0	509.790	0	46.0	4	15.0	4	-1E+10	1	-1E+10	1	-1E+10	1	-1E+10	1	-1E+10	1	-1E+10	1
4901784	138	C	04/15/2019	10:47	-132.846	42.877	0	520.10	0	4.7080	0	35.6240	8	28.209	0	515.331	0	45.9	4	14.9	4	-1E+10	1	-1E+10	1	-1E+10	1	-1E+10	1	-1E+10	1	-1E+10	1
4901784	138	C	04/15/2019	10:47	-132.846	42.877	0	524.80	0	4.6740	0	35.6270	8	28.215	0	519.982	0	44.8	4	14.5	4	-1E+10	1	-1E+10	1	-1E+10	1	-1E+10	1	-1E+10	1	-1E+10	1
4901784	138	C	04/15/2019	10:47	-132.846	42.877	0	529.50	0	4.6520	0	35.6340	8	28.224	0	524.633	0	42.9	4	13.9	4	-1E+10	1	-1E+10	1	-1E+10	1	-1E+10	1	-1E+10	1	-1E+10	1
4901784	138	C	04/15/2019	10:47	-132.846	42.877	0	535.10	0	4.6260	0	35.6430	8	28.234	0	530.175	0	40.2	4	13.0	4	-1E+10	1	-1E+10	1	-1E+10	1	-1E+10	1	-1E+10	1	-1E+10	1
4901784	138	C	04/15/2019	10:47	-132.846	42.877	0	539.80	0	4.6130	0	35.6490	8	28.240	0	534.826	0	38.6	4	12.5	4	-1E+10	1	-1E+10	1	-1E+10	1	-1E+10	1	-1E+10	1	-1E+10	1
4901784	138	C	04/15/2019	10:47	-132.846	42.877	0	545.20	0	4.5920	0	35.6560	8	28.248	0	540.169	0	37.4	4	12.1	4	-1E+10	1	-1E+10	1	-1E+10	1	-1E+10	1	-1E+10	1	-1E+10	1
4901784	138	C	04/15/2019	10:47	-132.846	42.877	0	550.40	0	4.5770	0	35.6600	8	28.253	0	545.314	0	36.1	4	11.7	4	-1E+10	1	-1E+10	1	-1E+10	1	-1E+10	1	-1E+10	1	-1E+10	1
4901784	138	C	04/15/2019	10:47	-132.846	42.877	0	555.30	0	4.5500	0	35.6680	8	28.262	0	550.162	0	35.0	4	11.3	4	-1E+10	1	-1E+10	1	-1E+10	1	-1E+10	1	-1E+10	1	-1E+10	1
4901784	138	C	04/15/2019	10:47	-132.846	42.877	0	560.10	0	4.5410	0	35.6700	8	28.265	0	554.911	0	34.3	4	11.1	4	-1E+10	1	-1E+10	1	-1E+10	1	-1E+10	1	-1E+10	1	-1E+10	1
4901784	138	C	04/15/2019	10:47	-132.846	42.877	0	564.90	0	4.5240	0	35.6740	8	28.270	0	559.660	0	33.2	4	10.7	4	-1E+10	1	-1E+10	1	-1E+10	1	-1E+10	1	-1E+10	1	-1E+10	1
4901784	138	C	04/15/2019	10:47	-132.846	42.877	0	569.90	0	4.5000	0	35.6810	8	28.278	0	564.607	0	32.3	4	10.4	4	-1E+10	1	-1E+10	1	-1E+10	1	-1E+10	1	-1E+10	1	-1E+10	1
4901784	138	C	04/15/2019	10:47	-132.846	42.877	0	574.90	0	4.4900	0	35.6850	8	28.283	0	569.554	0	31.3	4	10.1	4	-1E+10	1	-1E+10	1	-1E+10	1	-1E+10	1	-1E+10	1	-1E+10	1
4901784	138	C	04/15/2019	10:47	-132.846	42.877	0	579.90	0	4.4670	0	35.6900	8	28.289	0	574.501	0	30.3	4	9.8	4	-1E+10	1	-1E+10	1	-1E+10	1	-1E+10	1	-1E+10	1	-1E+10	1
4901784	138	C	04/15/2019	10:47	-132.846	42.877	0	585.00	0	4.4420	0	35.6970	8	28.298	0	579.546	0	29.6	4	9.6	4	-1E+10	1	-1E+10	1	-1E+10	1	-1E+10	1	-1E+10	1	-1E+10	1
4901784	138	C	04/15/2019	10:47	-132.846	42.877	0	590.20	0	4.4270	0	35.7000	8	28.302	0	584.690	0	29.2	4	9.4	4	-1E+10	1	-1E+10	1	-1E+10	1	-1E+10	1	-1E+10	1	-1E+10	1
4901784	138	C	04/15/2019	10:47	-132.846	42.877	0	595.40	0	4.4180	0	35.7030	8	28.305	0	589.834	0	28.3	4	9.1	4	-1E+10	1	-1E+10	1	-1E+10	1	-1E+10	1	-1E+10	1	-1E+10	1
4901784	138	C	04/15/2019	10:47	-132.846	42.877	0	600.60	0	4.4070	0	35.7080	8	28.311	0	594.978	0	27.4	4	8.8	4	-1E+10	1	-1E+10	1	-1E+10	1	-1E+10	1	-1E+10	1	-1E+10	1
4901784	138	C	04/15/2019	10:47	-132.846	42.877	0	605.00	0	4.3830	0	35.7140	8	28.318	0	599.331	0	26.6	4	8.6	4	-1E+10	1	-1E+10	1	-1E+10	1	-1E+10	1	-1E+10	1	-1E+10	1
4901784	138	C	04/15/2019	10:47	-132.846	42.877	0	609.30	0	4.3680	0	35.7190	8	28.324	0	603.584	0	26.1	4	8.4	4	-1E+10	1	-1E+10	1	-1E+10	1	-1E+10	1	-1E+10	1	-1E+10	1
4901784	138	C	04/15/2019	10:47	-132.846	42.877	0	614.60	0	4.3470	0	35.7230	8	28.329	0	608.827	0	25.7	4	8.3	4	-1E+10	1	-1E+10	1	-1E+10	1	-1E+10	1	-1E+10	1	-1E+10	1
4901784	138	C	04/15/2019	10:47	-132.846	42.877	0	620.00	0	4.3290	0	35.7280	8	28.335	0	614.168	0	25.3	4	8.2	4	-1E+10	1	-1E+10	1	-1E+10	1	-1E+10	1	-1E+10	1	-1E+10	1
4901784	138	C	04/15/2019	10:47	-132.846	42.877	0	625.30	0	4.3220	0	35.7310	8	28.338	0	619.410	0	24.9	4	8.0	4	-1E+10	1	-1E+10	1	-1E+10	1	-1E+10	1	-1E+10	1	-1E+10	1
4901784	138	C	04/15/2019	10:47	-132.846	42.877	0	630.70	0	4.3040	0	35.7350	8	28.344	0	624.751	0	24.5	4	7.9	4	-1E+10	1	-1E+10	1	-1E+10	1	-1E+10	1	-1E+10	1	-1E+10	1
4901784	138	C	04/15/2019	10:47	-132.846	42.877	0	635.10	0	4.2950	0	35.7380	8	28.347	0	629.103	0	24.2	4	7.8	4	-1E+10	1	-1E+10	1	-1E+10	1	-1E+10	1	-1E+10	1	-1E+10	1
4901784	138	C	04/15/2019	10:47	-132.846	42.877	0	639.60	0	4.2800	0	35.7410	8	28.351	0	633.554	0	23.9	4	7.7	4	-1E+10	1	-1E+10	1	-1E+10	1	-1E+10	1	-1E+10	1	-1E+10	1
4901784	138	C	04/15/2019	10:47	-132.846	42.877	0	645.10	0	4.2620	0	35.7450	8	28.356	0	638.994	0	23.3	4	7.5	4	-1E+10	1	-1E+10	1	-1E+10	1	-1E+10	1	-1E+10	1	-1E+10	1
4901784	138	C	04/15/2019	10:47	-132.846	42.877	0	650.60	0	4.2520	0	35.7500	8	28.361	0	644.433	0	22.4	4	7.2	4	-1E+10	1	-1E+10	1	-1E+10	1	-1E+10	1	-1E+10	1	-1E+10	1
4901784	138	C	04/15/2019	10:47	-132.846	42.877	0	655.30	0	4.2440	0	35.7560	8	28.367	0	649.081	0	21.7	4	7.0	4	-1E+10	1	-1E+10	1	-1E+10	1	-1E+10	1	-1E+10	1	-1E+10	1
4901784	138	C	04/15/2019	10:47	-132.846	42.877	0	659.90	0	4.2350	0	35.7600	8	28.371	0	653.630	0	21.1	4	6.8	4	-1E+10	1	-1E+10	1	-1E+10	1	-1E+10	1	-1E+10	1	-1E+10	1
4901784	138	C	04/15/2019	10:47	-132.846	42.877	0	665.40	0	4.2240	0	35.7660	8	28.377	0	659.069	0	20.5	4	6.6	4	-1E+10	1	-1E+10	1	-1E+10	1	-1E+10	1	-1E+10	1	-1E+10	1
4901784	138	C	04/15/2019	10:47	-132.846	42.877	0	670.00	0	4.2090	0	35.7700	8	28.382	0	663.618	0	20.5	4	6.6	4	-1E+10	1	-1E+10	1	-1E+10	1	-1E+10	1	-1E+10	1	-1E+10	1
4901784	138	C	04/15/2019	10:47	-132.846	42.877	0	674.70	0	4.1890	0	35.7720	8	28.386	0	668.266	0	20.3	4	6.5	4	-1E+10	1	-1E+10	1	-1E+10	1	-1E+10	1	-1E+10	1	-1E+10	1
4901784	138	C	04/15/2019	10:47	-132.846	42.877	0	680.40	0	4.1710	0	35.7770	8	28.392	0	673.902	0	20.1	4	6.4	4	-1E+10	1	-1E+10	1	-1E+10	1	-1E+10	1	-1E+10	1	-1E+10	1
4901784	138	C	04/15/2019	10:47	-132.846	42.877	0	685.30	0	4.1560	0	35.7790	8	28.395	0	678.748	0	19.8	4	6.3	4	-1E+10	1	-1E+10	1	-1E+10	1	-1E+10	1	-1E+10	1	-1E+10	1
4901784	138	C	04/15/2019	10:47	-132.846	42.877	0	689.80	0	4.1460	0	35.7850	8	28.401	0	683.197	0	19.1	4	6.1	4	-1E+10	1	-1E+10	1	-1E+10	1	-1E+10	1	-1E+10	1	-1E+10	1
4901784	138	C	04/15/2019	10:47	-132.846	42.877	0	694.70	0	4.1350	0	35.7900	8	28.406	0	688.042	0	18.6	4	6.0	4	-1E+10	1	-1E+10	1	-1E+10	1	-1E+10	1	-1E+10	1	-1E+10	1
4901784	138	C	04/15/2019	10:47	-132.846	42.877	0	699.60	0	4.1230	0	35.7950	8	28.412	0	692.887	0	18.1	4	5.8	4	-1E+10	1	-1E+10	1	-1E+10	1	-1E+10	1	-1E+10	1	-1E+10	1
4901784	138	C	04/15/2019	10:47	-132.846	42.877	0	704.50	0	4.1080	0	35.8000	8	28.417	0	697.732	0	17.5	4	5.6	4	-1E+10	1	-1E+10	1	-1E+10	1	-1E+10	1	-1E+10	1	-1E+10	1
4901784	138	C	04/15/2019	10:47	-132.846	42.877	0	709.40	0	4.1040	0	35.8070	8	28.423	0	702.577	0	16.8	4	5.4	4	-1E+10	1	-1E+10	1	-1E+10	1	-1E+10	1	-1E+10	1	-1E+10	1
4901784	138	C	04/15/2019	10:47	-132.846	42.877	0	714.40	0	4.0860	0	35.8130	8	28.430	0	707.520	0	16.6	4	5.3	4	-1E+10	1	-1E+10	1	-1E+10	1	-1E+10	1	-1E+10	1	-1E+10	1
4901784	138	C	04/15/2019	10:47	-132.846	42.877	0	719.30	0	4.0670	0	35.8180	8	28.436	0	712.364	0	16.3	4	5.2	4	-1E+10	1	-1E+10	1	-1E+10	1	-1E+10	1	-1E+10	1	-1E+10	1
4901784	138	C	04/15/2019	10:47	-132.846	42.877	0	724.40	0	4.0570	0	35.8220	8	28.440	0	717.406	0	15.8	4	5.1	4	-1E+10	1	-1E+10	1	-1E+10	1	-1E+10	1	-1E+10	1	-1E+10	1
4901784	138	C	04/15/2019	10:47	-132.846	42.877	0	729.50	0	4.0610	0	35.8290	8	28.446	0	722.448	0	15.3	4	4.9	4	-1E+10	1	-1E+10	1	-1E+10	1	-1E+10	1	-1E+10	1	-1E+10	1
4901784	138	C	04/15/2019	10:47	-132.846	42.877	0	734.60	0	4.0500	0	35.8320	8	28.449	0	727.490	0	15.1	4	4.8	4	-1E+10	1	-1E+10	1	-1E+10	1	-1E+10	1	-1E+10	1	-1E+10	1
4901784	138	C	04/15/2019	10:47	-132.846	42.877	0	739.80	0	4.0340	0	35.8360	8	28.454	0	732.631	0	14.8	4	4.7	4	-1E+10	1	-1E+10	1	-1E+10	1	-1E+10	1	-1E+10	1	-1E+10	1
4901784	138	C	04/15/2019	10:47	-132.846	42.877	0	745.00	0	4.0170	0	35.8420	8	28.461	0	737.771	0	14.6	4	4.7	4	-1E+10	1	-1E+10	1	-1E+10	1	-1E+10	1	-1E+10	1	-1E+10	1
4901784	138	C	04/15/2019	10:47	-132.846	42.877	0	750.20	0	4.0000	0	35.8460	8	28.466	0	742.911	0	14.4	4	4.6	4	-1E+10	1	-1E+10	1	-1E+10	1	-1E+10	1	-1E+10	1	-1E+10	1
4901784	138	C	04/15/2019	10:47	-132.846	42.877	0	755.50	0	3.9810	0	35.8500	8	28.471	0	748.150	0	14.3	4	4.6	4	-1E+10	1	-1E+10	1	-1E+10	1	-1E+10	1	-1E+10	1	-1E+10	1
4901784	138	C	04/15/2019	10:47	-132.846	42.877	0	760.70	0	3.9640	0	35.8530	8	28.475	0	753.291	0	14.1	4	4.5	4	-1E+10	1	-1E+10	1	-1E+10	1	-1E+10	1	-1E+10	1	-1E+10	1
4901784	138	C	04/15/2019	10:47	-132.846	42.877	0	765.00	0	3.9610	0	35.8570	8	28.479	0	757.541	0	13.9	4	4.4	4	-1E+10	1	-1E+10	1	-1E+10	1	-1E+10	1	-1E+10	1	-1E+10	1
4901784	138	C	04/15/2019	10:47	-132.846	42.877	0	769.40	0	3.9370	0	35.8620	8	28.485	0	761.890	0	13.7	4	4.4	4	-1E+10	1	-1E+10	1	-1E+10	1	-1E+10	1	-1E+10	1	-1E+10	1
4901784	138	C	04/15/2019	10:47	-132.846	42.877	0	774.60	0	3.9330	0	35.8640	8	28.487	0	767.030	0	13.6	4	4.4	4	-1E+10	1	-1E+10	1	-1E+10	1	-1E+10	1	-1E+10	1	-1E+10	1
4901784	138	C	04/15/2019	10:47	-132.846	42.877	0	779.90	0	3.9240	0	35.8670	8	28.491	0	772.268	0	13.5	4	4.3	4	-1E+10	1	-1E+10	1	-1E+10	1	-1E+10	1	-1E+10	1	-1E+10	1
4901784	138	C	04/15/2019	10:47	-132.846	42.877	0	785.10	0	3.9130	0	35.8700	8	28.494	0	777.407	0	13.3	4	4.3	4	-1E+10	1	-1E+10	1	-1E+10	1	-1E+10	1	-1E+10	1	-1E+10	1
4901784	138	C	04/15/2019	10:47	-132.846	42.877	0	790.40	0	3.8960	0	35.8740	8	28.499	0	782.646	0	13.2	4	4.2	4	-1E+10	1	-1E+10	1	-1E+10	1	-1E+10	1	-1E+10	1	-1E+10	1
4901784	138	C	04/15/2019	10:47	-132.846	42.877	0	794.90	0	3.8890	0	35.8770	8	28.502	0	787.093	0	13.0	4	4.1	4	-1E+10	1	-1E+10	1	-1E+10	1	-1E+10	1	-1E+10	1	-1E+10	1
4901784	138	C	04/15/2019	10:47	-132.846	42.877	0	799.40	0	3.8810	0	35.8810	8	28.507	0	791.540	0	12.9	4	4.1	4	-1E+10	1	-1E+10	1	-1E+10	1	-1E+10	1	-1E+10	1	-1E+10	1
4901784	138	C	04/15/2019	10:47	-132.846	42.877	0	804.80	0	3.8720	0	35.8840	8	28.510	0	796.877	0	12.7	4	4.1	4	-1E+10	1	-1E+10	1	-1E+10	1	-1E+10	1	-1E+10	1	-1E+10	1
4901784	138	C	04/15/2019	10:47	-132.846	42.877	0	810.10	0	3.8600	0	35.8870	8	28.514	0	802.114	0	12.6	4	4.0	4	-1E+10	1	-1E+10	1	-1E+10	1	-1E+10	1	-1E+10	1	-1E+10	1
4901784	138	C	04/15/2019	10:47	-132.846	42.877	0	815.60	0	3.8410	0	35.8920	8	28.520	0	807.550	0	12.5	4	4.0	4	-1E+10	1	-1E+10	1	-1E+10	1	-1E+10	1	-1E+10	1	-1E+10	1
4901784	138	C	04/15/2019	10:47	-132.846	42.877	0	820.10	0	3.8350	0	35.8940	8	28.522	0	811.996	0	12.4	4	3.9	4	-1E+10	1	-1E+10	1	-1E+10	1	-1E+10	1	-1E+10	1	-1E+10	1
4901784	138	C	04/15/2019	10:47	-132.846	42.877	0	824.60	0	3.8240	0	35.8970	8	28.525	0	816.443	0	12.2	4	3.9	4	-1E+10	1	-1E+10	1	-1E+10	1	-1E+10	1	-1E+10	1	-1E+10	1
4901784	138	C	04/15/2019	10:47	-132.846	42.877	0	830.10	0	3.8130	0	35.9010	8	28.530	0	821.878	0	12.1	4	3.9	4	-1E+10	1	-1E+10	1	-1E+10	1	-1E+10	1	-1E+10	1	-1E+10	1
4901784	138	C	04/15/2019	10:47	-132.846	42.877	0	835.50	0	3.8020	0	35.9040	8	28.533	0	827.214	0	12.0	4	3.8	4	-1E+10	1	-1E+10	1	-1E+10	1	-1E+10	1	-1E+10	1	-1E+10	1
4901784	138	C	04/15/2019	10:47	-132.846	42.877	0	840.00	0	3.7880	0	35.9090	8	28.539	0	831.660	0	11.7	4	3.7	4	-1E+10	1	-1E+10	1	-1E+10	1	-1E+10	1	-1E+10	1	-1E+10	1
4901784	138	C	04/15/2019	10:47	-132.846	42.877	0	844.60	0	3.7740	0	35.9150	8	28.545	0	836.205	0	11.6	4	3.7	4	-1E+10	1	-1E+10	1	-1E+10	1	-1E+10	1	-1E+10	1	-1E+10	1
4901784	138	C	04/15/2019	10:47	-132.846	42.877	0	850.10	0	3.7630	0	35.9200	8	28.550	0	841.640	0	11.4	4	3.6	4	-1E+10	1	-1E+10	1	-1E+10	1	-1E+10	1	-1E+10	1	-1E+10	1
4901784	138	C	04/15/2019	10:47	-132.846	42.877	0	855.60	0	3.7520	0	35.9240	8	28.555	0	847.074	0	11.3	4	3.6	4	-1E+10	1	-1E+10	1	-1E+10	1	-1E+10	1	-1E+10	1	-1E+10	1
4901784	138	C	04/15/2019	10:47	-132.846	42.877	0	860.20	0	3.7470	0	35.9270	8	28.558	0	851.619	0	11.2	4	3.6	4	-1E+10	1	-1E+10	1	-1E+10	1	-1E+10	1	-1E+10	1	-1E+10	1
4901784	138	C	04/15/2019	10:47	-132.846	42.877	0	864.80	0	3.7430	0	35.9330	8	28.563	0	856.163	0	11.1	4	3.5	4	-1E+10	1	-1E+10	1	-1E+10	1	-1E+10	1	-1E+10	1	-1E+10	1
4901784	138	C	04/15/2019	10:47	-132.846	42.877	0	870.20	0	3.7410	0	35.9350	8	28.565	0	861.498	0	11.0	4	3.5	4	-1E+10	1	-1E+10	1	-1E+10	1	-1E+10	1	-1E+10	1	-1E+10	1
4901784	138	C	04/15/2019	10:47	-132.846	42.877	0	875.70	0	3.7240	0	35.9370	8	28.568	0	866.932	0	11.0	4	3.5	4	-1E+10	1	-1E+10	1	-1E+10	1	-1E+10	1	-1E+10	1	-1E+10	1
4901784	138	C	04/15/2019	10:47	-132.846	42.877	0	880.10	0	3.7140	0	35.9400	8	28.572	0	871.279	0	10.9	4	3.5	4	-1E+10	1	-1E+10	1	-1E+10	1	-1E+10	1	-1E+10	1	-1E+10	1
4901784	138	C	04/15/2019	10:47	-132.846	42.877	0	884.60	0	3.6930	0	35.9450	8	28.578	0	875.724	0	10.8	4	3.4	4	-1E+10	1	-1E+10	1	-1E+10	1	-1E+10	1	-1E+10	1	-1E+10	1
4901784	138	C	04/15/2019	10:47	-132.846	42.877	0	890.10	0	3.6840	0	35.9490	8	28.582	0	881.157	0	10.7	4	3.4	4	-1E+10	1	-1E+10	1	-1E+10	1	-1E+10	1	-1E+10	1	-1E+10	1
4901784	138	C	04/15/2019	10:47	-132.846	42.877	0	895.50	0	3.6660	0	35.9540	8	28.588	0	886.492	0	10.6	4	3.4	4	-1E+10	1	-1E+10	1	-1E+10	1	-1E+10	1	-1E+10	1	-1E+10	1
4901784	138	C	04/15/2019	10:47	-132.846	42.877	0	900.10	0	3.6550	0	35.9590	8	28.593	0	891.036	0	10.5	4	3.3	4	-1E+10	1	-1E+10	1	-1E+10	1	-1E+10	1	-1E+10	1	-1E+10	1
4901784	138	C	04/15/2019	10:47	-132.846	42.877	0	904.70	0	3.6470	0	35.9620	8	28.596	0	895.579	0	10.5	4	3.3	4	-1E+10	1	-1E+10	1	-1E+10	1	-1E+10	1	-1E+10	1	-1E+10	1
4901784	138	C	04/15/2019	10:47	-132.846	42.877	0	910.20	0	3.6320	0	35.9680	8	28.602	0	901.012	0	10.4	4	3.3	4	-1E+10	1	-1E+10	1	-1E+10	1	-1E+10	1	-1E+10	1	-1E+10	1
4901784	138	C	04/15/2019	10:47	-132.846	42.877	0	915.60	0	3.6240	0	35.9720	8	28.607	0	906.346	0	10.4	4	3.3	4	-1E+10	1	-1E+10	1	-1E+10	1	-1E+10	1	-1E+10	1	-1E+10	1
4901784	138	C	04/15/2019	10:47	-132.846	42.877	0	920.20	0	3.6280	0	35.9770	8	28.610	0	910.889	0	10.3	4	3.3	4	-1E+10	1	-1E+10	1	-1E+10	1	-1E+10	1	-1E+10	1	-1E+10	1
4901784	138	C	04/15/2019	10:47	-132.846	42.877	0	924.70	0	3.6320	0	35.9790	8	28.611	0	915.334	0	10.3	4	3.3	4	-1E+10	1	-1E+10	1	-1E+10	1	-1E+10	1	-1E+10	1	-1E+10	1
4901784	138	C	04/15/2019	10:47	-132.846	42.877	0	930.20	0	3.6280	0	35.9860	8	28.617	0	920.766	0	10.2	4	3.3	4	-1E+10	1	-1E+10	1	-1E+10	1	-1E+10	1	-1E+10	1	-1E+10	1
4901784	138	C	04/15/2019	10:47	-132.846	42.877	0	935.00	0	3.6250	0	35.9900	8	28.621	0	925.507	0	10.2	4	3.2	4	-1E+10	1	-1E+10	1	-1E+10	1	-1E+10	1	-1E+10	1	-1E+10	1
4901784	138	C	04/15/2019	10:47	-132.846	42.877	0	939.70	0	3.6160	0	35.9950	8	28.626	0	930.149	0	10.3	4	3.3	4	-1E+10	1	-1E+10	1	-1E+10	1	-1E+10	1	-1E+10	1	-1E+10	1
4901784	138	C	04/15/2019	10:47	-132.846	42.877	0	945.40	0	3.6170	0	36.0000	8	28.630	0	935.778	0	10.2	4	3.2	4	-1E+10	1	-1E+10	1	-1E+10	1	-1E+10	1	-1E+10	1	-1E+10	1
4901784	138	C	04/15/2019	10:47	-132.846	42.877	0	950.10	0	3.5890	0	36.0040	8	28.636	0	940.420	0	10.3	4	3.3	4	-1E+10	1	-1E+10	1	-1E+10	1	-1E+10	1	-1E+10	1	-1E+10	1
4901784	138	C	04/15/2019	10:47	-132.846	42.877	0	954.90	0	3.5830	0	36.0070	8	28.639	0	945.160	0	10.3	4	3.3	4	-1E+10	1	-1E+10	1	-1E+10	1	-1E+10	1	-1E+10	1	-1E+10	1
4901784	138	C	04/15/2019	10:47	-132.846	42.877	0	959.50	0	3.5660	0	36.0100	8	28.643	0	949.703	0	10.3	4	3.3	4	-1E+10	1	-1E+10	1	-1E+10	1	-1E+10	1	-1E+10	1	-1E+10	1
4901784	138	C	04/15/2019	10:47	-132.846	42.877	0	964.10	0	3.5330	0	36.0100	8	28.646	0	954.245	0	10.3	4	3.3	4	-1E+10	1	-1E+10	1	-1E+10	1	-1E+10	1	-1E+10	1	-1E+10	1
4901784	138	C	04/15/2019	10:47	-132.846	42.877	0	969.50	0	3.5180	0	36.0150	8	28.652	0	959.578	0	10.4	4	3.3	4	-1E+10	1	-1E+10	1	-1E+10	1	-1E+10	1	-1E+10	1	-1E+10	1
4901784	138	C	04/15/2019	10:47	-132.846	42.877	0	974.40	0	3.5270	0	36.0200	8	28.655	0	964.416	0	10.4	4	3.3	4	-1E+10	1	-1E+10	1	-1E+10	1	-1E+10	1	-1E+10	1	-1E+10	1
4901784	138	C	04/15/2019	10:47	-132.846	42.877	0	979.40	0	3.5080	0	36.0230	8	28.659	0	969.354	0	10.5	4	3.3	4	-1E+10	1	-1E+10	1	-1E+10	1	-1E+10	1	-1E+10	1	-1E+10	1
4901784	138	C	04/15/2019	10:47	-132.846	42.877	0	984.40	0	3.4880	0	36.0270	8	28.665	0	974.291	0	10.5	4	3.3	4	-1E+10	1	-1E+10	1	-1E+10	1	-1E+10	1	-1E+10	1	-1E+10	1
4901784	138	C	04/15/2019	10:47	-132.846	42.877	0	989.50	0	3.4680	0	36.0310	8	28.670	0	979.326	0	10.5	4	3.3	4	-1E+10	1	-1E+10	1	-1E+10	1	-1E+10	1	-1E+10	1	-1E+10	1
4901784	138	C	04/15/2019	10:47	-132.846	42.877	0	994.60	0	3.4560	0	36.0330	8	28.673	0	984.362	0	10.6	4	3.4	4	-1E+10	1	-1E+10	1	-1E+10	1	-1E+10	1	-1E+10	1	-1E+10	1
4901784	138	C	04/15/2019	10:47	-132.846	42.877	0	999.80	0	3.4480	0	36.0360	8	28.676	0	989.496	0	10.7	4	3.4	4	-1E+10	1	-1E+10	1	-1E+10	1	-1E+10	1	-1E+10	1	-1E+10	1
4901784	138	C	04/15/2019	10:47	-132.846	42.877	0	1005.10	0	3.4280	0	36.0400	8	28.681	0	994.729	0	10.8	4	3.4	4	-1E+10	1	-1E+10	1	-1E+10	1	-1E+10	1	-1E+10	1	-1E+10	1
4901784	138	C	04/15/2019	10:47	-132.846	42.877	0	1010.30	0	3.4130	0	36.0440	8	28.686	0	999.863	0	10.9	4	3.4	4	-1E+10	1	-1E+10	1	-1E+10	1	-1E+10	1	-1E+10	1	-1E+10	1
4901784	138	C	04/15/2019	10:47	-132.846	42.877	0	1015.70	0	3.4100	0	36.0480	8	28.689	0	1005.194	0	11.0	4	3.5	4	-1E+10	1	-1E+10	1	-1E+10	1	-1E+10	1	-1E+10	1	-1E+10	1
4901784	138	C	04/15/2019	10:47	-132.846	42.877	0	1020.20	0	3.4000	0	36.0490	8	28.691	0	1009.637	0	11.0	4	3.5	4	-1E+10	1	-1E+10	1	-1E+10	1	-1E+10	1	-1E+10	1	-1E+10	1
4901784	138	C	04/15/2019	10:47	-132.846	42.877	0	1024.70	0	3.3840	0	36.0520	8	28.695	0	1014.079	0	11.1	4	3.5	4	-1E+10	1	-1E+10	1	-1E+10	1	-1E+10	1	-1E+10	1	-1E+10	1
4901784	138	C	04/15/2019	10:47	-132.846	42.877	0	1030.20	0	3.3650	0	36.0560	8	28.700	0	1019.509	0	11.2	4	3.5	4	-1E+10	1	-1E+10	1	-1E+10	1	-1E+10	1	-1E+10	1	-1E+10	1
4901784	138	C	04/15/2019	10:47	-132.846	42.877	0	1035.30	0	3.3530	0	36.0590	8	28.704	0	1024.544	0	11.3	4	3.6	4	-1E+10	1	-1E+10	1	-1E+10	1	-1E+10	1	-1E+10	1	-1E+10	1
4901784	138	C	04/15/2019	10:47	-132.846	42.877	0	1039.50	0	3.3450	0	36.0610	8	28.706	0	1028.690	0	11.4	4	3.6	4	-1E+10	1	-1E+10	1	-1E+10	1	-1E+10	1	-1E+10	1	-1E+10	1
4901784	138	C	04/15/2019	10:47	-132.846	42.877	0	1044.30	0	3.3400	0	36.0640	8	28.709	0	1033.428	0	11.5	4	3.6	4	-1E+10	1	-1E+10	1	-1E+10	1	-1E+10	1	-1E+10	1	-1E+10	1
4901784	138	C	04/15/2019	10:47	-132.846	42.877	0	1049.90	0	3.3210	0	36.0670	8	28.714	0	1038.956	0	11.6	4	3.6	4	-1E+10	1	-1E+10	1	-1E+10	1	-1E+10	1	-1E+10	1	-1E+10	1
4901784	138	C	04/15/2019	10:47	-132.846	42.877	0	1055.60	0	3.3110	0	36.0700	8	28.717	0	1044.582	0	11.7	4	3.7	4	-1E+10	1	-1E+10	1	-1E+10	1	-1E+10	1	-1E+10	1	-1E+10	1
4901784	138	C	04/15/2019	10:47	-132.846	42.877	0	1060.50	0	3.3090	0	36.0720	8	28.719	0	1049.419	0	11.8	4	3.7	4	-1E+10	1	-1E+10	1	-1E+10	1	-1E+10	1	-1E+10	1	-1E+10	1
4901784	138	C	04/15/2019	10:47	-132.846	42.877	0	1065.40	0	3.2990	0	36.0750	8	28.722	0	1054.255	0	12.0	4	3.8	4	-1E+10	1	-1E+10	1	-1E+10	1	-1E+10	1	-1E+10	1	-1E+10	1
4901784	138	C	04/15/2019	10:47	-132.846	42.877	0	1070.30	0	3.2930	0	36.0770	8	28.725	0	1059.092	0	12.1	4	3.8	4	-1E+10	1	-1E+10	1	-1E+10	1	-1E+10	1	-1E+10	1	-1E+10	1
4901784	138	C	04/15/2019	10:47	-132.846	42.877	0	1075.30	0	3.2910	0	36.0790	8	28.726	0	1064.027	0	12.3	4	3.9	4	-1E+10	1	-1E+10	1	-1E+10	1	-1E+10	1	-1E+10	1	-1E+10	1
4901784	138	C	04/15/2019	10:47	-132.846	42.877	0	1080.30	0	3.2850	0	36.0820	8	28.729	0	1068.961	0	12.4	4	3.9	4	-1E+10	1	-1E+10	1	-1E+10	1	-1E+10	1	-1E+10	1	-1E+10	1
4901784	138	C	04/15/2019	10:47	-132.846	42.877	0	1085.30	0	3.2740	0	36.0850	8	28.733	0	1073.896	0	12.4	4	3.9	4	-1E+10	1	-1E+10	1	-1E+10	1	-1E+10	1	-1E+10	1	-1E+10	1
4901784	138	C	04/15/2019	10:47	-132.846	42.877	0	1090.40	0	3.2480	0	36.0860	8	28.736	0	1078.929	0	12.4	4	3.9	4	-1E+10	1	-1E+10	1	-1E+10	1	-1E+10	1	-1E+10	1	-1E+10	1
4901784	138	C	04/15/2019	10:47	-132.846	42.877	0	1095.70	0	3.2250	0	36.0890	8	28.741	0	1084.160	0	12.4	4	3.9	4	-1E+10	1	-1E+10	1	-1E+10	1	-1E+10	1	-1E+10	1	-1E+10	1
4901784	138	C	04/15/2019	10:47	-132.846	42.877	0	1100.30	0	3.2080	0	36.0900	8	28.743	0	1088.700	0	12.5	4	3.9	4	-1E+10	1	-1E+10	1	-1E+10	1	-1E+10	1	-1E+10	1	-1E+10	1
4901784	138	C	04/15/2019	10:47	-132.846	42.877	0	1104.80	0	3.1960	0	36.0930	8	28.747	0	1093.140	0	12.6	4	3.9	4	-1E+10	1	-1E+10	1	-1E+10	1	-1E+10	1	-1E+10	1	-1E+10	1
4901784	138	C	04/15/2019	10:47	-132.846	42.877	0	1109.60	0	3.1870	0	36.0950	8	28.750	0	1097.877	0	12.6	4	4.0	4	-1E+10	1	-1E+10	1	-1E+10	1	-1E+10	1	-1E+10	1	-1E+10	1
4901784	138	C	04/15/2019	10:47	-132.846	42.877	0	1114.50	0	3.1700	0	36.0970	8	28.753	0	1102.713	0	12.6	4	4.0	4	-1E+10	1	-1E+10	1	-1E+10	1	-1E+10	1	-1E+10	1	-1E+10	1
4901784	138	C	04/15/2019	10:47	-132.846	42.877	0	1119.40	0	3.1630	0	36.0980	8	28.754	0	1107.548	0	12.7	4	4.0	4	-1E+10	1	-1E+10	1	-1E+10	1	-1E+10	1	-1E+10	1	-1E+10	1
4901784	138	C	04/15/2019	10:47	-132.846	42.877	0	1124.40	0	3.1520	0	36.0990	8	28.756	0	1112.482	0	12.8	4	4.0	4	-1E+10	1	-1E+10	1	-1E+10	1	-1E+10	1	-1E+10	1	-1E+10	1
4901784	138	C	04/15/2019	10:47	-132.846	42.877	0	1129.50	0	3.1390	0	36.1030	8	28.761	0	1117.514	0	13.1	4	4.1	4	-1E+10	1	-1E+10	1	-1E+10	1	-1E+10	1	-1E+10	1	-1E+10	1
4901784	138	C	04/15/2019	10:47	-132.846	42.877	0	1134.70	0	3.1460	0	36.1060	8	28.762	0	1122.645	0	13.5	4	4.2	4	-1E+10	1	-1E+10	1	-1E+10	1	-1E+10	1	-1E+10	1	-1E+10	1
4901784	138	C	04/15/2019	10:47	-132.846	42.877	0	1139.80	0	3.1330	0	36.1090	8	28.766	0	1127.677	0	13.5	4	4.2	4	-1E+10	1	-1E+10	1	-1E+10	1	-1E+10	1	-1E+10	1	-1E+10	1
4901784	138	C	04/15/2019	10:47	-132.846	42.877	0	1145.00	0	3.1150	0	36.1090	8	28.768	0	1132.808	0	13.4	4	4.2	4	-1E+10	1	-1E+10	1	-1E+10	1	-1E+10	1	-1E+10	1	-1E+10	1
4901784	138	C	04/15/2019	10:47	-132.846	42.877	0	1150.30	0	3.0920	0	36.1120	8	28.773	0	1138.037	0	13.4	4	4.2	4	-1E+10	1	-1E+10	1	-1E+10	1	-1E+10	1	-1E+10	1	-1E+10	1
4901784	138	C	04/15/2019	10:47	-132.846	42.877	0	1155.60	0	3.0890	0	36.1130	8	28.774	0	1143.266	0	13.4	4	4.2	4	-1E+10	1	-1E+10	1	-1E+10	1	-1E+10	1	-1E+10	1	-1E+10	1
4901784	138	C	04/15/2019	10:47	-132.846	42.877	0	1160.00	0	3.0830	0	36.1140	8	28.775	0	1147.607	0	13.5	4	4.2	4	-1E+10	1	-1E+10	1	-1E+10	1	-1E+10	1	-1E+10	1	-1E+10	1
4901784	138	C	04/15/2019	10:47	-132.846	42.877	0	1164.50	0	3.0780	0	36.1150	8	28.776	0	1152.047	0	13.5	4	4.2	4	-1E+10	1	-1E+10	1	-1E+10	1	-1E+10	1	-1E+10	1	-1E+10	1
4901784	138	C	04/15/2019	10:47	-132.846	42.877	0	1169.90	0	3.0710	0	36.1170	8	28.779	0	1157.374	0	13.6	4	4.3	4	-1E+10	1	-1E+10	1	-1E+10	1	-1E+10	1	-1E+10	1	-1E+10	1
4901784	138	C	04/15/2019	10:47	-132.846	42.877	0	1175.40	0	3.0630	0	36.1190	8	28.781	0	1162.800	0	13.8	4	4.3	4	-1E+10	1	-1E+10	1	-1E+10	1	-1E+10	1	-1E+10	1	-1E+10	1
4901784	138	C	04/15/2019	10:47	-132.846	42.877	0	1179.90	0	3.0580	0	36.1200	8	28.782	0	1167.239	0	13.8	4	4.3	4	-1E+10	1	-1E+10	1	-1E+10	1	-1E+10	1	-1E+10	1	-1E+10	1
4901784	138	C	04/15/2019	10:47	-132.846	42.877	0	1184.40	0	3.0540	0	36.1210	8	28.784	0	1171.679	0	13.9	4	4.4	4	-1E+10	1	-1E+10	1	-1E+10	1	-1E+10	1	-1E+10	1	-1E+10	1
4901784	138	C	04/15/2019	10:47	-132.846	42.877	0	1189.80	0	3.0430	0	36.1230	8	28.786	0	1177.005	0	14.0	4	4.4	4	-1E+10	1	-1E+10	1	-1E+10	1	-1E+10	1	-1E+10	1	-1E+10	1
4901784	138	C	04/15/2019	10:47	-132.846	42.877	0	1195.30	0	3.0360	0	36.1250	8	28.789	0	1182.431	0	14.1	4	4.4	4	-1E+10	1	-1E+10	1	-1E+10	1	-1E+10	1	-1E+10	1	-1E+10	1
4901784	138	C	04/15/2019	10:47	-132.846	42.877	0	1199.90	0	3.0330	0	36.1260	8	28.790	0	1186.968	0	14.2	4	4.4	4	-1E+10	1	-1E+10	1	-1E+10	1	-1E+10	1	-1E+10	1	-1E+10	1
4901784	138	C	04/15/2019	10:47	-132.846	42.877	0	1204.50	0	3.0310	0	36.1260	8	28.790	0	1191.506	0	14.3	4	4.5	4	-1E+10	1	-1E+10	1	-1E+10	1	-1E+10	1	-1E+10	1	-1E+10	1
4901784	138	C	04/15/2019	10:47	-132.846	42.877	0	1210.00	0	3.0180	0	36.1290	8	28.794	0	1196.931	0	14.5	4	4.5	4	-1E+10	1	-1E+10	1	-1E+10	1	-1E+10	1	-1E+10	1	-1E+10	1
4901784	138	C	04/15/2019	10:47	-132.846	42.877	0	1215.60	0	3.0040	0	36.1320	8	28.797	0	1202.454	0	14.7	4	4.6	4	-1E+10	1	-1E+10	1	-1E+10	1	-1E+10	1	-1E+10	1	-1E+10	1
4901784	138	C	04/15/2019	10:47	-132.846	42.877	0	1220.20	0	2.9950	0	36.1340	8	28.800	0	1206.991	0	14.8	4	4.6	4	-1E+10	1	-1E+10	1	-1E+10	1	-1E+10	1	-1E+10	1	-1E+10	1
4901784	138	C	04/15/2019	10:47	-132.846	42.877	0	1224.60	0	2.9880	0	36.1350	8	28.801	0	1211.331	0	15.0	4	4.7	4	-1E+10	1	-1E+10	1	-1E+10	1	-1E+10	1	-1E+10	1	-1E+10	1
4901784	138	C	04/15/2019	10:47	-132.846	42.877	0	1230.00	0	2.9760	0	36.1380	8	28.805	0	1216.657	0	15.3	4	4.8	4	-1E+10	1	-1E+10	1	-1E+10	1	-1E+10	1	-1E+10	1	-1E+10	1
4901784	138	C	04/15/2019	10:47	-132.846	42.877	0	1235.10	0	2.9660	0	36.1400	8	28.807	0	1221.687	0	15.5	4	4.8	4	-1E+10	1	-1E+10	1	-1E+10	1	-1E+10	1	-1E+10	1	-1E+10	1
4901784	138	C	04/15/2019	10:47	-132.846	42.877	0	1240.20	0	2.9560	0	36.1430	8	28.811	0	1226.716	0	15.7	4	4.9	4	-1E+10	1	-1E+10	1	-1E+10	1	-1E+10	1	-1E+10	1	-1E+10	1
4901784	138	C	04/15/2019	10:47	-132.846	42.877	0	1245.40	0	2.9500	0	36.1440	8	28.812	0	1231.845	0	15.8	4	4.9	4	-1E+10	1	-1E+10	1	-1E+10	1	-1E+10	1	-1E+10	1	-1E+10	1
4901784	138	C	04/15/2019	10:47	-132.846	42.877	0	1250.60	0	2.9410	0	36.1460	8	28.815	0	1236.973	0	16.1	4	5.0	4	-1E+10	1	-1E+10	1	-1E+10	1	-1E+10	1	-1E+10	1	-1E+10	1
4901784	138	C	04/15/2019	10:47	-132.846	42.877	0	1255.00	0	2.9350	0	36.1470	8	28.816	0	1241.312	0	16.3	4	5.1	4	-1E+10	1	-1E+10	1	-1E+10	1	-1E+10	1	-1E+10	1	-1E+10	1
4901784	138	C	04/15/2019	10:47	-132.846	42.877	0	1259.40	0	2.9210	0	36.1500	8	28.820	0	1245.651	0	16.5	4	5.2	4	-1E+10	1	-1E+10	1	-1E+10	1	-1E+10	1	-1E+10	1	-1E+10	1
4901784	138	C	04/15/2019	10:47	-132.846	42.877	0	1264.70	0	2.9090	0	36.1520	8	28.823	0	1250.877	0	16.8	4	5.2	4	-1E+10	1	-1E+10	1	-1E+10	1	-1E+10	1	-1E+10	1	-1E+10	1
4901784	138	C	04/15/2019	10:47	-132.846	42.877	0	1270.00	0	2.9000	0	36.1540	8	28.825	0	1256.104	0	17.0	4	5.3	4	-1E+10	1	-1E+10	1	-1E+10	1	-1E+10	1	-1E+10	1	-1E+10	1
4901784	138	C	04/15/2019	10:47	-132.846	42.877	0	1275.30	0	2.8910	0	36.1560	8	28.828	0	1261.330	0	17.2	4	5.4	4	-1E+10	1	-1E+10	1	-1E+10	1	-1E+10	1	-1E+10	1	-1E+10	1
4901784	138	C	04/15/2019	10:47	-132.846	42.877	0	1280.70	0	2.8860	0	36.1570	8	28.829	0	1266.654	0	17.4	4	5.4	4	-1E+10	1	-1E+10	1	-1E+10	1	-1E+10	1	-1E+10	1	-1E+10	1
4901784	138	C	04/15/2019	10:47	-132.846	42.877	0	1285.00	0	2.8780	0	36.1600	8	28.832	0	1270.894	0	17.5	4	5.5	4	-1E+10	1	-1E+10	1	-1E+10	1	-1E+10	1	-1E+10	1	-1E+10	1
4901784	138	C	04/15/2019	10:47	-132.846	42.877	0	1289.40	0	2.8730	0	36.1600	8	28.832	0	1275.233	0	17.7	4	5.5	4	-1E+10	1	-1E+10	1	-1E+10	1	-1E+10	1	-1E+10	1	-1E+10	1
4901784	138	C	04/15/2019	10:47	-132.846	42.877	0	1294.70	0	2.8670	0	36.1620	8	28.835	0	1280.458	0	17.8	4	5.5	4	-1E+10	1	-1E+10	1	-1E+10	1	-1E+10	1	-1E+10	1	-1E+10	1
4901784	138	C	04/15/2019	10:47	-132.846	42.877	0	1300.10	0	2.8610	0	36.1630	8	28.836	0	1285.782	0	17.9	4	5.6	4	-1E+10	1	-1E+10	1	-1E+10	1	-1E+10	1	-1E+10	1	-1E+10	1
4901784	138	C	04/15/2019	10:47	-132.846	42.877	0	1305.40	0	2.8560	0	36.1640	8	28.837	0	1291.008	0	18.0	4	5.6	4	-1E+10	1	-1E+10	1	-1E+10	1	-1E+10	1	-1E+10	1	-1E+10	1
4901784	138	C	04/15/2019	10:47	-132.846	42.877	0	1309.90	0	2.8490	0	36.1660	8	28.840	0	1295.444	0	18.2	4	5.7	4	-1E+10	1	-1E+10	1	-1E+10	1	-1E+10	1	-1E+10	1	-1E+10	1
4901784	138	C	04/15/2019	10:47	-132.846	42.877	0	1314.40	0	2.8400	0	36.1670	8	28.841	0	1299.881	0	18.3	4	5.7	4	-1E+10	1	-1E+10	1	-1E+10	1	-1E+10	1	-1E+10	1	-1E+10	1
4901784	138	C	04/15/2019	10:47	-132.846	42.877	0	1319.80	0	2.8320	0	36.1690	8	28.844	0	1305.205	0	18.6	4	5.8	4	-1E+10	1	-1E+10	1	-1E+10	1	-1E+10	1	-1E+10	1	-1E+10	1
4901784	138	C	04/15/2019	10:47	-132.846	42.877	0	1325.20	0	2.8220	0	36.1710	8	28.846	0	1310.528	0	18.8	4	5.9	4	-1E+10	1	-1E+10	1	-1E+10	1	-1E+10	1	-1E+10	1	-1E+10	1
4901784	138	C	04/15/2019	10:47	-132.846	42.877	0	1330.60	0	2.8180	0	36.1710	8	28.847	0	1315.851	0	19.1	4	5.9	4	-1E+10	1	-1E+10	1	-1E+10	1	-1E+10	1	-1E+10	1	-1E+10	1
4901784	138	C	04/15/2019	10:47	-132.846	42.877	0	1335.10	0	2.8100	0	36.1730	8	28.849	0	1320.287	0	19.4	4	6.1	4	-1E+10	1	-1E+10	1	-1E+10	1	-1E+10	1	-1E+10	1	-1E+10	1
4901784	138	C	04/15/2019	10:47	-132.846	42.877	0	1339.60	0	2.7960	0	36.1760	8	28.853	0	1324.723	0	19.8	4	6.2	4	-1E+10	1	-1E+10	1	-1E+10	1	-1E+10	1	-1E+10	1	-1E+10	1
4901784	138	C	04/15/2019	10:47	-132.846	42.877	0	1345.00	0	2.7770	0	36.1790	8	28.857	0	1330.046	0	20.2	4	6.3	4	-1E+10	1	-1E+10	1	-1E+10	1	-1E+10	1	-1E+10	1	-1E+10	1
4901784	138	C	04/15/2019	10:47	-132.846	42.877	0	1350.40	0	2.7640	0	36.1810	8	28.860	0	1335.369	0	20.4	4	6.3	4	-1E+10	1	-1E+10	1	-1E+10	1	-1E+10	1	-1E+10	1	-1E+10	1
4901784	138	C	04/15/2019	10:47	-132.846	42.877	0	1355.00	0	2.7580	0	36.1820	8	28.861	0	1339.903	0	20.6	4	6.4	4	-1E+10	1	-1E+10	1	-1E+10	1	-1E+10	1	-1E+10	1	-1E+10	1
4901784	138	C	04/15/2019	10:47	-132.846	42.877	0	1359.50	0	2.7480	0	36.1840	8	28.864	0	1344.339	0	20.9	4	6.5	4	-1E+10	1	-1E+10	1	-1E+10	1	-1E+10	1	-1E+10	1	-1E+10	1
4901784	138	C	04/15/2019	10:47	-132.846	42.877	0	1364.90	0	2.7380	0	36.1860	8	28.866	0	1349.661	0	21.3	4	6.6	4	-1E+10	1	-1E+10	1	-1E+10	1	-1E+10	1	-1E+10	1	-1E+10	1
4901784	138	C	04/15/2019	10:47	-132.846	42.877	0	1370.30	0	2.7230	0	36.1880	8	28.869	0	1354.984	0	21.7	4	6.7	4	-1E+10	1	-1E+10	1	-1E+10	1	-1E+10	1	-1E+10	1	-1E+10	1
4901784	138	C	04/15/2019	10:47	-132.846	42.877	0	1374.90	0	2.7070	0	36.1920	8	28.874	0	1359.518	0	22.1	4	6.9	4	-1E+10	1	-1E+10	1	-1E+10	1	-1E+10	1	-1E+10	1	-1E+10	1
4901784	138	C	04/15/2019	10:47	-132.846	42.877	0	1379.40	0	2.6970	0	36.1930	8	28.876	0	1363.953	0	22.3	4	6.9	4	-1E+10	1	-1E+10	1	-1E+10	1	-1E+10	1	-1E+10	1	-1E+10	1
4901784	138	C	04/15/2019	10:47	-132.846	42.877	0	1384.90	0	2.6880	0	36.1950	8	28.878	0	1369.373	0	22.6	4	7.0	4	-1E+10	1	-1E+10	1	-1E+10	1	-1E+10	1	-1E+10	1	-1E+10	1
4901784	138	C	04/15/2019	10:47	-132.846	42.877	0	1390.30	0	2.6780	0	36.1970	8	28.881	0	1374.695	0	23.0	4	7.2	4	-1E+10	1	-1E+10	1	-1E+10	1	-1E+10	1	-1E+10	1	-1E+10	1
4901784	138	C	04/15/2019	10:47	-132.846	42.877	0	1394.80	0	2.6690	0	36.1990	8	28.883	0	1379.130	0	23.3	4	7.2	4	-1E+10	1	-1E+10	1	-1E+10	1	-1E+10	1	-1E+10	1	-1E+10	1
4901784	138	C	04/15/2019	10:47	-132.846	42.877	0	1399.40	0	2.6620	0	36.2000	8	28.885	0	1383.663	0	23.5	4	7.3	4	-1E+10	1	-1E+10	1	-1E+10	1	-1E+10	1	-1E+10	1	-1E+10	1
4901784	138	C	04/15/2019	10:47	-132.846	42.877	0	1404.90	0	2.6490	0	36.2020	8	28.887	0	1389.083	0	23.9	4	7.4	4	-1E+10	1	-1E+10	1	-1E+10	1	-1E+10	1	-1E+10	1	-1E+10	1
4901784	138	C	04/15/2019	10:47	-132.846	42.877	0	1410.40	0	2.6400	0	36.2040	8	28.890	0	1394.503	0	24.1	4	7.5	4	-1E+10	1	-1E+10	1	-1E+10	1	-1E+10	1	-1E+10	1	-1E+10	1
4901784	138	C	04/15/2019	10:47	-132.846	42.877	0	1415.00	0	2.6340	0	36.2050	8	28.891	0	1399.036	0	24.2	4	7.5	4	-1E+10	1	-1E+10	1	-1E+10	1	-1E+10	1	-1E+10	1	-1E+10	1
4901784	138	C	04/15/2019	10:47	-132.846	42.877	0	1419.70	0	2.6270	0	36.2060	8	28.893	0	1403.667	0	24.5	4	7.6	4	-1E+10	1	-1E+10	1	-1E+10	1	-1E+10	1	-1E+10	1	-1E+10	1
4901784	138	C	04/15/2019	10:47	-132.846	42.877	0	1424.90	0	2.6180	0	36.2090	8	28.896	0	1408.791	0	24.7	4	7.7	4	-1E+10	1	-1E+10	1	-1E+10	1	-1E+10	1	-1E+10	1	-1E+10	1
4901784	138	C	04/15/2019	10:47	-132.846	42.877	0	1430.00	0	2.6120	0	36.2100	8	28.897	0	1413.817	0	24.9	4	7.7	4	-1E+10	1	-1E+10	1	-1E+10	1	-1E+10	1	-1E+10	1	-1E+10	1
4901784	138	C	04/15/2019	10:47	-132.846	42.877	0	1435.70	0	2.6080	0	36.2100	8	28.898	0	1419.433	0	25.1	4	7.8	4	-1E+10	1	-1E+10	1	-1E+10	1	-1E+10	1	-1E+10	1	-1E+10	1
4901784	138	C	04/15/2019	10:47	-132.846	42.877	0	1440.60	0	2.6010	0	36.2120	8	28.900	0	1424.261	0	25.4	4	7.9	4	-1E+10	1	-1E+10	1	-1E+10	1	-1E+10	1	-1E+10	1	-1E+10	1
4901784	138	C	04/15/2019	10:47	-132.846	42.877	0	1445.50	0	2.5910	0	36.2130	8	28.902	0	1429.089	0	25.8	4	8.0	4	-1E+10	1	-1E+10	1	-1E+10	1	-1E+10	1	-1E+10	1	-1E+10	1
4901784	138	C	04/15/2019	10:47	-132.846	42.877	0	1450.40	0	2.5780	0	36.2150	8	28.904	0	1433.916	0	26.2	4	8.1	4	-1E+10	1	-1E+10	1	-1E+10	1	-1E+10	1	-1E+10	1	-1E+10	1
4901784	138	C	04/15/2019	10:47	-132.846	42.877	0	1455.30	0	2.5640	0	36.2180	8	28.908	0	1438.744	0	26.6	4	8.2	4	-1E+10	1	-1E+10	1	-1E+10	1	-1E+10	1	-1E+10	1	-1E+10	1
4901784	138	C	04/15/2019	10:47	-132.846	42.877	0	1460.20	0	2.5520	0	36.2200	8	28.911	0	1443.572	0	27.0	4	8.4	4	-1E+10	1	-1E+10	1	-1E+10	1	-1E+10	1	-1E+10	1	-1E+10	1
4901784	138	C	04/15/2019	10:47	-132.846	42.877	0	1465.20	0	2.5430	0	36.2210	8	28.912	0	1448.497	0	27.3	4	8.4	4	-1E+10	1	-1E+10	1	-1E+10	1	-1E+10	1	-1E+10	1	-1E+10	1
4901784	138	C	04/15/2019	10:47	-132.846	42.877	0	1470.10	0	2.5370	0	36.2220	8	28.914	0	1453.325	0	27.5	4	8.5	4	-1E+10	1	-1E+10	1	-1E+10	1	-1E+10	1	-1E+10	1	-1E+10	1
4901784	138	C	04/15/2019	10:47	-132.846	42.877	0	1475.20	0	2.5260	0	36.2240	8	28.916	0	1458.349	0	27.8	4	8.6	4	-1E+10	1	-1E+10	1	-1E+10	1	-1E+10	1	-1E+10	1	-1E+10	1
4901784	138	C	04/15/2019	10:47	-132.846	42.877	0	1480.20	0	2.5130	0	36.2260	8	28.919	0	1463.275	0	28.1	4	8.7	4	-1E+10	1	-1E+10	1	-1E+10	1	-1E+10	1	-1E+10	1	-1E+10	1
4901784	138	C	04/15/2019	10:47	-132.846	42.877	0	1485.30	0	2.5050	0	36.2270	8	28.921	0	1468.299	0	28.5	4	8.8	4	-1E+10	1	-1E+10	1	-1E+10	1	-1E+10	1	-1E+10	1	-1E+10	1
4901784	138	C	04/15/2019	10:47	-132.846	42.877	0	1490.30	0	2.4980	0	36.2290	8	28.923	0	1473.224	0	28.7	4	8.9	4	-1E+10	1	-1E+10	1	-1E+10	1	-1E+10	1	-1E+10	1	-1E+10	1
4901784	138	C	04/15/2019	10:47	-132.846	42.877	0	1495.50	0	2.4930	0	36.2300	8	28.924	0	1478.346	0	28.9	4	8.9	4	-1E+10	1	-1E+10	1	-1E+10	1	-1E+10	1	-1E+10	1	-1E+10	1
4901784	138	C	04/15/2019	10:47	-132.846	42.877	0	1500.70	0	2.4860	0	36.2310	8	28.926	0	1483.468	0	29.1	4	9.0	4	-1E+10	1	-1E+10	1	-1E+10	1	-1E+10	1	-1E+10	1	-1E+10	1
4901784	138	C	04/15/2019	10:47	-132.846	42.877	0	1505.00	0	2.4820	0	36.2320	8	28.927	0	1487.704	0	29.3	4	9.1	4	-1E+10	1	-1E+10	1	-1E+10	1	-1E+10	1	-1E+10	1	-1E+10	1
4901784	138	C	04/15/2019	10:47	-132.846	42.877	0	1509.30	0	2.4730	0	36.2340	8	28.929	0	1491.939	0	29.5	4	9.1	4	-1E+10	1	-1E+10	1	-1E+10	1	-1E+10	1	-1E+10	1	-1E+10	1
4901784	138	C	04/15/2019	10:47	-132.846	42.877	0	1514.40	0	2.4710	0	36.2340	8	28.930	0	1496.963	0	29.6	4	9.2	4	-1E+10	1	-1E+10	1	-1E+10	1	-1E+10	1	-1E+10	1	-1E+10	1
4901784	138	C	04/15/2019	10:47	-132.846	42.877	0	1519.60	0	2.4680	0	36.2350	8	28.931	0	1502.084	0	29.9	4	9.2	4	-1E+10	1	-1E+10	1	-1E+10	1	-1E+10	1	-1E+10	1	-1E+10	1
4901784	138	C	04/15/2019	10:47	-132.846	42.877	0	1524.90	0	2.4580	0	36.2360	8	28.932	0	1507.304	0	30.2	4	9.3	4	-1E+10	1	-1E+10	1	-1E+10	1	-1E+10	1	-1E+10	1	-1E+10	1
4901784	138	C	04/15/2019	10:47	-132.846	42.877	0	1530.30	0	2.4450	0	36.2390	8	28.936	0	1512.623	0	30.6	4	9.5	4	-1E+10	1	-1E+10	1	-1E+10	1	-1E+10	1	-1E+10	1	-1E+10	1
4901784	138	C	04/15/2019	10:47	-132.846	42.877	0	1535.60	0	2.4370	0	36.2400	8	28.937	0	1517.842	0	30.9	4	9.5	4	-1E+10	1	-1E+10	1	-1E+10	1	-1E+10	1	-1E+10	1	-1E+10	1
4901784	138	C	04/15/2019	10:47	-132.846	42.877	0	1540.00	0	2.4330	0	36.2410	8	28.939	0	1522.176	0	31.1	4	9.6	4	-1E+10	1	-1E+10	1	-1E+10	1	-1E+10	1	-1E+10	1	-1E+10	1
4901784	138	C	04/15/2019	10:47	-132.846	42.877	0	1544.60	0	2.4240	0	36.2420	8	28.940	0	1526.706	0	31.4	4	9.7	4	-1E+10	1	-1E+10	1	-1E+10	1	-1E+10	1	-1E+10	1	-1E+10	1
4901784	138	C	04/15/2019	10:47	-132.846	42.877	0	1550.00	0	2.4130	0	36.2440	8	28.943	0	1532.024	0	31.7	4	9.8	4	-1E+10	1	-1E+10	1	-1E+10	1	-1E+10	1	-1E+10	1	-1E+10	1
4901784	138	C	04/15/2019	10:47	-132.846	42.877	0	1555.50	0	2.4080	0	36.2450	8	28.944	0	1537.440	0	31.9	4	9.8	4	-1E+10	1	-1E+10	1	-1E+10	1	-1E+10	1	-1E+10	1	-1E+10	1
4901784	138	C	04/15/2019	10:47	-132.846	42.877	0	1560.10	0	2.4040	0	36.2460	8	28.945	0	1541.970	0	32.0	4	9.9	4	-1E+10	1	-1E+10	1	-1E+10	1	-1E+10	1	-1E+10	1	-1E+10	1
4901784	138	C	04/15/2019	10:47	-132.846	42.877	0	1564.80	0	2.3990	0	36.2470	8	28.947	0	1546.598	0	32.3	4	10.0	4	-1E+10	1	-1E+10	1	-1E+10	1	-1E+10	1	-1E+10	1	-1E+10	1
4901784	138	C	04/15/2019	10:47	-132.846	42.877	0	1570.30	0	2.3910	0	36.2480	8	28.948	0	1552.014	0	32.7	4	10.1	4	-1E+10	1	-1E+10	1	-1E+10	1	-1E+10	1	-1E+10	1	-1E+10	1
4901784	138	C	04/15/2019	10:47	-132.846	42.877	0	1574.90	0	2.3810	0	36.2500	8	28.951	0	1556.543	0	33.0	4	10.2	4	-1E+10	1	-1E+10	1	-1E+10	1	-1E+10	1	-1E+10	1	-1E+10	1
4901784	138	C	04/15/2019	10:47	-132.846	42.877	0	1580.20	0	2.3780	0	36.2510	8	28.952	0	1561.762	0	33.2	4	10.2	4	-1E+10	1	-1E+10	1	-1E+10	1	-1E+10	1	-1E+10	1	-1E+10	1
4901784	138	C	04/15/2019	10:47	-132.846	42.877	0	1585.40	0	2.3700	0	36.2530	8	28.954	0	1566.882	0	33.6	4	10.3	4	-1E+10	1	-1E+10	1	-1E+10	1	-1E+10	1	-1E+10	1	-1E+10	1
4901784	138	C	04/15/2019	10:47	-132.846	42.877	0	1590.30	0	2.3640	0	36.2550	8	28.956	0	1571.707	0	33.8	4	10.4	4	-1E+10	1	-1E+10	1	-1E+10	1	-1E+10	1	-1E+10	1	-1E+10	1
4901784	138	C	04/15/2019	10:47	-132.846	42.877	0	1595.10	0	2.3560	0	36.2560	8	28.958	0	1576.433	0	34.2	4	10.5	4	-1E+10	1	-1E+10	1	-1E+10	1	-1E+10	1	-1E+10	1	-1E+10	1
4901784	138	C	04/15/2019	10:47	-132.846	42.877	0	1599.90	0	2.3490	0	36.2570	8	28.959	0	1581.159	0	34.5	4	10.6	4	-1E+10	1	-1E+10	1	-1E+10	1	-1E+10	1	-1E+10	1	-1E+10	1
4901784	138	C	04/15/2019	10:47	-132.846	42.877	0	1604.80	0	2.3400	0	36.2590	8	28.962	0	1585.983	0	34.9	4	10.7	4	-1E+10	1	-1E+10	1	-1E+10	1	-1E+10	1	-1E+10	1	-1E+10	1
4901784	138	C	04/15/2019	10:47	-132.846	42.877	0	1609.80	0	2.3330	0	36.2600	8	28.963	0	1590.906	0	35.1	4	10.8	4	-1E+10	1	-1E+10	1	-1E+10	1	-1E+10	1	-1E+10	1	-1E+10	1
4901784	138	C	04/15/2019	10:47	-132.846	42.877	0	1614.90	0	2.3280	0	36.2620	8	28.965	0	1595.926	0	35.4	4	10.9	4	-1E+10	1	-1E+10	1	-1E+10	1	-1E+10	1	-1E+10	1	-1E+10	1
4901784	138	C	04/15/2019	10:47	-132.846	42.877	0	1619.90	0	2.3230	0	36.2620	8	28.966	0	1600.849	0	35.6	4	11.0	4	-1E+10	1	-1E+10	1	-1E+10	1	-1E+10	1	-1E+10	1	-1E+10	1
4901784	138	C	04/15/2019	10:47	-132.846	42.877	0	1624.90	0	2.3190	0	36.2630	8	28.967	0	1605.771	0	35.9	4	11.1	4	-1E+10	1	-1E+10	1	-1E+10	1	-1E+10	1	-1E+10	1	-1E+10	1
4901784	138	C	04/15/2019	10:47	-132.846	42.877	0	1630.00	0	2.3110	0	36.2650	8	28.969	0	1610.792	0	36.4	4	11.2	4	-1E+10	1	-1E+10	1	-1E+10	1	-1E+10	1	-1E+10	1	-1E+10	1
4901784	138	C	04/15/2019	10:47	-132.846	42.877	0	1635.00	0	2.3010	0	36.2660	8	28.971	0	1615.714	0	36.8	4	11.3	4	-1E+10	1	-1E+10	1	-1E+10	1	-1E+10	1	-1E+10	1	-1E+10	1
4901784	138	C	04/15/2019	10:47	-132.846	42.877	0	1640.00	0	2.2930	0	36.2680	8	28.973	0	1620.636	0	37.2	4	11.4	4	-1E+10	1	-1E+10	1	-1E+10	1	-1E+10	1	-1E+10	1	-1E+10	1
4901784	138	C	04/15/2019	10:47	-132.846	42.877	0	1645.10	0	2.2850	0	36.2690	8	28.975	0	1625.656	0	37.6	4	11.6	4	-1E+10	1	-1E+10	1	-1E+10	1	-1E+10	1	-1E+10	1	-1E+10	1
4901784	138	C	04/15/2019	10:47	-132.846	42.877	0	1650.20	0	2.2780	0	36.2710	8	28.977	0	1630.676	0	37.9	4	11.6	4	-1E+10	1	-1E+10	1	-1E+10	1	-1E+10	1	-1E+10	1	-1E+10	1
4901784	138	C	04/15/2019	10:47	-132.846	42.877	0	1655.30	0	2.2730	0	36.2710	8	28.977	0	1635.696	0	38.3	4	11.8	4	-1E+10	1	-1E+10	1	-1E+10	1	-1E+10	1	-1E+10	1	-1E+10	1
4901784	138	C	04/15/2019	10:47	-132.846	42.877	0	1660.50	0	2.2600	0	36.2730	8	28.980	0	1640.814	0	38.8	4	11.9	4	-1E+10	1	-1E+10	1	-1E+10	1	-1E+10	1	-1E+10	1	-1E+10	1
4901784	138	C	04/15/2019	10:47	-132.846	42.877	0	1665.70	0	2.2490	0	36.2750	8	28.983	0	1645.932	0	39.1	4	12.0	4	-1E+10	1	-1E+10	1	-1E+10	1	-1E+10	1	-1E+10	1	-1E+10	1
4901784	138	C	04/15/2019	10:47	-132.846	42.877	0	1670.00	0	2.2450	0	36.2760	8	28.984	0	1650.165	0	39.3	4	12.1	4	-1E+10	1	-1E+10	1	-1E+10	1	-1E+10	1	-1E+10	1	-1E+10	1
4901784	138	C	04/15/2019	10:47	-132.846	42.877	0	1674.40	0	2.2430	0	36.2770	8	28.985	0	1654.495	0	39.5	4	12.1	4	-1E+10	1	-1E+10	1	-1E+10	1	-1E+10	1	-1E+10	1	-1E+10	1
4901784	138	C	04/15/2019	10:47	-132.846	42.877	0	1679.70	0	2.2380	0	36.2780	8	28.986	0	1659.711	0	39.8	4	12.2	4	-1E+10	1	-1E+10	1	-1E+10	1	-1E+10	1	-1E+10	1	-1E+10	1
4901784	138	C	04/15/2019	10:47	-132.846	42.877	0	1685.00	0	2.2320	0	36.2790	8	28.987	0	1664.928	0	40.1	4	12.3	4	-1E+10	1	-1E+10	1	-1E+10	1	-1E+10	1	-1E+10	1	-1E+10	1
4901784	138	C	04/15/2019	10:47	-132.846	42.877	0	1690.40	0	2.2260	0	36.2800	8	28.989	0	1670.242	0	40.5	4	12.4	4	-1E+10	1	-1E+10	1	-1E+10	1	-1E+10	1	-1E+10	1	-1E+10	1
4901784	138	C	04/15/2019	10:47	-132.846	42.877	0	1694.90	0	2.2200	0	36.2820	8	28.991	0	1674.671	0	40.7	4	12.5	4	-1E+10	1	-1E+10	1	-1E+10	1	-1E+10	1	-1E+10	1	-1E+10	1
4901784	138	C	04/15/2019	10:47	-132.846	42.877	0	1699.30	0	2.2160	0	36.2820	8	28.991	0	1679.001	0	40.9	4	12.6	4	-1E+10	1	-1E+10	1	-1E+10	1	-1E+10	1	-1E+10	1	-1E+10	1
4901784	138	C	04/15/2019	10:47	-132.846	42.877	0	1704.70	0	2.2110	0	36.2830	8	28.992	0	1684.315	0	41.2	4	12.6	4	-1E+10	1	-1E+10	1	-1E+10	1	-1E+10	1	-1E+10	1	-1E+10	1
4901784	138	C	04/15/2019	10:47	-132.846	42.877	0	1710.00	0	2.2030	0	36.2850	8	28.995	0	1689.530	0	41.6	4	12.8	4	-1E+10	1	-1E+10	1	-1E+10	1	-1E+10	1	-1E+10	1	-1E+10	1
4901784	138	C	04/15/2019	10:47	-132.846	42.877	0	1715.50	0	2.1960	0	36.2860	8	28.996	0	1694.942	0	41.8	4	12.8	4	-1E+10	1	-1E+10	1	-1E+10	1	-1E+10	1	-1E+10	1	-1E+10	1
4901784	138	C	04/15/2019	10:47	-132.846	42.877	0	1720.00	0	2.1930	0	36.2860	8	28.996	0	1699.370	0	42.0	4	12.9	4	-1E+10	1	-1E+10	1	-1E+10	1	-1E+10	1	-1E+10	1	-1E+10	1
4901784	138	C	04/15/2019	10:47	-132.846	42.877	0	1724.60	0	2.1910	0	36.2870	8	28.997	0	1703.897	0	42.3	4	13.0	4	-1E+10	1	-1E+10	1	-1E+10	1	-1E+10	1	-1E+10	1	-1E+10	1
4901784	138	C	04/15/2019	10:47	-132.846	42.877	0	1730.10	0	2.1810	0	36.2880	8	28.999	0	1709.309	0	42.8	4	13.1	4	-1E+10	1	-1E+10	1	-1E+10	1	-1E+10	1	-1E+10	1	-1E+10	1
4901784	138	C	04/15/2019	10:47	-132.846	42.877	0	1734.70	0	2.1700	0	36.2910	8	29.003	0	1713.835	0	43.3	4	13.3	4	-1E+10	1	-1E+10	1	-1E+10	1	-1E+10	1	-1E+10	1	-1E+10	1
4901784	138	C	04/15/2019	10:47	-132.846	42.877	0	1739.10	0	2.1660	0	36.2910	8	29.003	0	1718.164	0	43.6	4	13.4	4	-1E+10	1	-1E+10	1	-1E+10	1	-1E+10	1	-1E+10	1	-1E+10	1
4901784	138	C	04/15/2019	10:47	-132.846	42.877	0	1744.50	0	2.1570	0	36.2930	8	29.005	0	1723.477	0	44.1	4	13.5	4	-1E+10	1	-1E+10	1	-1E+10	1	-1E+10	1	-1E+10	1	-1E+10	1
4901784	138	C	04/15/2019	10:47	-132.846	42.877	0	1749.40	0	2.1490	0	36.2950	8	29.008	0	1728.298	0	44.5	4	13.6	4	-1E+10	1	-1E+10	1	-1E+10	1	-1E+10	1	-1E+10	1	-1E+10	1
4901784	138	C	04/15/2019	10:47	-132.846	42.877	0	1754.20	0	2.1450	0	36.2960	8	29.009	0	1733.021	0	44.8	4	13.7	4	-1E+10	1	-1E+10	1	-1E+10	1	-1E+10	1	-1E+10	1	-1E+10	1
4901784	138	C	04/15/2019	10:47	-132.846	42.877	0	1759.90	0	2.1380	0	36.2970	8	29.010	0	1738.629	0	45.2	4	13.9	4	-1E+10	1	-1E+10	1	-1E+10	1	-1E+10	1	-1E+10	1	-1E+10	1
4901784	138	C	04/15/2019	10:47	-132.846	42.877	0	1765.70	0	2.1310	0	36.2990	8	29.012	0	1744.335	0	45.6	4	14.0	4	-1E+10	1	-1E+10	1	-1E+10	1	-1E+10	1	-1E+10	1	-1E+10	1
4901784	138	C	04/15/2019	10:47	-132.846	42.877	0	1770.80	0	2.1260	0	36.3000	8	29.014	0	1749.352	0	45.8	4	14.0	4	-1E+10	1	-1E+10	1	-1E+10	1	-1E+10	1	-1E+10	1	-1E+10	1
4901784	138	C	04/15/2019	10:47	-132.846	42.877	0	1775.00	0	2.1230	0	36.3010	8	29.015	0	1753.484	0	46.0	4	14.1	4	-1E+10	1	-1E+10	1	-1E+10	1	-1E+10	1	-1E+10	1	-1E+10	1
4901784	138	C	04/15/2019	10:47	-132.846	42.877	0	1779.20	0	2.1210	0	36.3010	8	29.015	0	1757.615	0	46.2	4	14.2	4	-1E+10	1	-1E+10	1	-1E+10	1	-1E+10	1	-1E+10	1	-1E+10	1
4901784	138	C	04/15/2019	10:47	-132.846	42.877	0	1784.30	0	2.1170	0	36.3020	8	29.016	0	1762.632	0	46.7	4	14.3	4	-1E+10	1	-1E+10	1	-1E+10	1	-1E+10	1	-1E+10	1	-1E+10	1
4901784	138	C	04/15/2019	10:47	-132.846	42.877	0	1789.40	0	2.1050	0	36.3040	8	29.019	0	1767.649	0	47.2	4	14.5	4	-1E+10	1	-1E+10	1	-1E+10	1	-1E+10	1	-1E+10	1	-1E+10	1
4901784	138	C	04/15/2019	10:47	-132.846	42.877	0	1794.50	0	2.0970	0	36.3060	8	29.021	0	1772.666	0	47.6	4	14.6	4	-1E+10	1	-1E+10	1	-1E+10	1	-1E+10	1	-1E+10	1	-1E+10	1
4901784	138	C	04/15/2019	10:47	-132.846	42.877	0	1799.60	0	2.0910	0	36.3070	8	29.022	0	1777.683	0	47.9	4	14.7	4	-1E+10	1	-1E+10	1	-1E+10	1	-1E+10	1	-1E+10	1	-1E+10	1
4901784	138	C	04/15/2019	10:47	-132.846	42.877	0	1804.80	0	2.0880	0	36.3080	8	29.023	0	1782.797	0	48.1	4	14.7	4	-1E+10	1	-1E+10	1	-1E+10	1	-1E+10	1	-1E+10	1	-1E+10	1
4901784	138	C	04/15/2019	10:47	-132.846	42.877	0	1809.90	0	2.0850	0	36.3090	8	29.025	0	1787.814	0	48.3	4	14.8	4	-1E+10	1	-1E+10	1	-1E+10	1	-1E+10	1	-1E+10	1	-1E+10	1
4901784	138	C	04/15/2019	10:47	-132.846	42.877	0	1815.00	0	2.0820	0	36.3100	8	29.026	0	1792.830	0	48.6	4	14.9	4	-1E+10	1	-1E+10	1	-1E+10	1	-1E+10	1	-1E+10	1	-1E+10	1
4901784	138	C	04/15/2019	10:47	-132.846	42.877	0	1820.10	0	2.0760	0	36.3110	8	29.027	0	1797.846	0	49.0	4	15.0	4	-1E+10	1	-1E+10	1	-1E+10	1	-1E+10	1	-1E+10	1	-1E+10	1
4901784	138	C	04/15/2019	10:47	-132.846	42.877	0	1825.20	0	2.0700	0	36.3120	8	29.028	0	1802.862	0	49.3	4	15.1	4	-1E+10	1	-1E+10	1	-1E+10	1	-1E+10	1	-1E+10	1	-1E+10	1
4901784	138	C	04/15/2019	10:47	-132.846	42.877	0	1830.30	0	2.0640	0	36.3140	8	29.030	0	1807.878	0	49.7	4	15.2	4	-1E+10	1	-1E+10	1	-1E+10	1	-1E+10	1	-1E+10	1	-1E+10	1
4901784	138	C	04/15/2019	10:47	-132.846	42.877	0	1835.60	0	2.0590	0	36.3150	8	29.032	0	1813.091	0	50.0	4	15.3	4	-1E+10	1	-1E+10	1	-1E+10	1	-1E+10	1	-1E+10	1	-1E+10	1
4901784	138	C	04/15/2019	10:47	-132.846	42.877	0	1839.90	0	2.0560	0	36.3160	8	29.033	0	1817.320	0	50.2	4	15.4	4	-1E+10	1	-1E+10	1	-1E+10	1	-1E+10	1	-1E+10	1	-1E+10	1
4901784	138	C	04/15/2019	10:47	-132.846	42.877	0	1844.30	0	2.0520	0	36.3170	8	29.034	0	1821.647	0	50.5	4	15.4	4	-1E+10	1	-1E+10	1	-1E+10	1	-1E+10	1	-1E+10	1	-1E+10	1
4901784	138	C	04/15/2019	10:47	-132.846	42.877	0	1849.60	0	2.0480	0	36.3170	8	29.034	0	1826.859	0	50.7	4	15.5	4	-1E+10	1	-1E+10	1	-1E+10	1	-1E+10	1	-1E+10	1	-1E+10	1
4901784	138	C	04/15/2019	10:47	-132.846	42.877	0	1854.90	0	2.0440	0	36.3180	8	29.035	0	1832.071	0	51.1	4	15.6	4	-1E+10	1	-1E+10	1	-1E+10	1	-1E+10	1	-1E+10	1	-1E+10	1
4901784	138	C	04/15/2019	10:47	-132.846	42.877	0	1860.30	0	2.0370	0	36.3200	8	29.038	0	1837.381	0	51.5	4	15.7	4	-1E+10	1	-1E+10	1	-1E+10	1	-1E+10	1	-1E+10	1	-1E+10	1
4901784	138	C	04/15/2019	10:47	-132.846	42.877	0	1865.70	0	2.0290	0	36.3210	8	29.039	0	1842.691	0	51.8	4	15.9	4	-1E+10	1	-1E+10	1	-1E+10	1	-1E+10	1	-1E+10	1	-1E+10	1
4901784	138	C	04/15/2019	10:47	-132.846	42.877	0	1870.20	0	2.0250	0	36.3220	8	29.040	0	1847.116	0	52.0	4	15.9	4	-1E+10	1	-1E+10	1	-1E+10	1	-1E+10	1	-1E+10	1	-1E+10	1
4901784	138	C	04/15/2019	10:47	-132.846	42.877	0	1874.70	0	2.0230	0	36.3230	8	29.041	0	1851.541	0	52.1	4	15.9	4	-1E+10	1	-1E+10	1	-1E+10	1	-1E+10	1	-1E+10	1	-1E+10	1
4901784	138	C	04/15/2019	10:47	-132.846	42.877	0	1880.20	0	2.0230	0	36.3230	8	29.041	0	1856.949	0	52.3	4	16.0	4	-1E+10	1	-1E+10	1	-1E+10	1	-1E+10	1	-1E+10	1	-1E+10	1
4901784	138	C	04/15/2019	10:47	-132.846	42.877	0	1884.80	0	2.0210	0	36.3240	8	29.042	0	1861.472	0	52.6	4	16.1	4	-1E+10	1	-1E+10	1	-1E+10	1	-1E+10	1	-1E+10	1	-1E+10	1
4901784	138	C	04/15/2019	10:47	-132.846	42.877	0	1889.40	0	2.0160	0	36.3240	8	29.043	0	1865.995	0	53.0	4	16.2	4	-1E+10	1	-1E+10	1	-1E+10	1	-1E+10	1	-1E+10	1	-1E+10	1
4901784	138	C	04/15/2019	10:47	-132.846	42.877	0	1894.90	0	2.0050	0	36.3260	8	29.045	0	1871.403	0	53.6	4	16.4	4	-1E+10	1	-1E+10	1	-1E+10	1	-1E+10	1	-1E+10	1	-1E+10	1
4901784	138	C	04/15/2019	10:47	-132.846	42.877	0	1900.50	0	1.9980	0	36.3280	8	29.048	0	1876.908	0	53.9	4	16.5	4	-1E+10	1	-1E+10	1	-1E+10	1	-1E+10	1	-1E+10	1	-1E+10	1
4901784	138	C	04/15/2019	10:47	-132.846	42.877	0	1905.10	0	1.9960	0	36.3290	8	29.049	0	1881.431	0	54.1	4	16.5	4	-1E+10	1	-1E+10	1	-1E+10	1	-1E+10	1	-1E+10	1	-1E+10	1
4901784	138	C	04/15/2019	10:47	-132.846	42.877	0	1909.70	0	1.9930	0	36.3290	8	29.049	0	1885.954	0	54.4	4	16.6	4	-1E+10	1	-1E+10	1	-1E+10	1	-1E+10	1	-1E+10	1	-1E+10	1
4901784	138	C	04/15/2019	10:47	-132.846	42.877	0	1915.20	0	1.9860	0	36.3310	8	29.051	0	1891.361	0	54.9	4	16.8	4	-1E+10	1	-1E+10	1	-1E+10	1	-1E+10	1	-1E+10	1	-1E+10	1
4901784	138	C	04/15/2019	10:47	-132.846	42.877	0	1919.80	0	1.9800	0	36.3320	8	29.052	0	1895.883	0	55.3	4	16.9	4	-1E+10	1	-1E+10	1	-1E+10	1	-1E+10	1	-1E+10	1	-1E+10	1
4901784	138	C	04/15/2019	10:47	-132.846	42.877	0	1924.40	0	1.9750	0	36.3330	8	29.054	0	1900.405	0	55.8	4	17.0	4	-1E+10	1	-1E+10	1	-1E+10	1	-1E+10	1	-1E+10	1	-1E+10	1
4901784	138	C	04/15/2019	10:47	-132.846	42.877	0	1929.90	0	1.9670	0	36.3350	8	29.056	0	1905.812	0	56.2	4	17.2	4	-1E+10	1	-1E+10	1	-1E+10	1	-1E+10	1	-1E+10	1	-1E+10	1
4901784	138	C	04/15/2019	10:47	-132.846	42.877	0	1935.50	0	1.9620	0	36.3360	8	29.057	0	1911.317	0	56.5	4	17.3	4	-1E+10	1	-1E+10	1	-1E+10	1	-1E+10	1	-1E+10	1	-1E+10	1
4901784	138	C	04/15/2019	10:47	-132.846	42.877	0	1939.60	0	1.9590	0	36.3370	8	29.058	0	1915.347	0	56.7	4	17.3	4	-1E+10	1	-1E+10	1	-1E+10	1	-1E+10	1	-1E+10	1	-1E+10	1
4901784	138	C	04/15/2019	10:47	-132.846	42.877	0	1944.60	0	1.9560	0	36.3380	8	29.059	0	1920.262	0	57.0	4	17.4	4	-1E+10	1	-1E+10	1	-1E+10	1	-1E+10	1	-1E+10	1	-1E+10	1
4901784	138	C	04/15/2019	10:47	-132.846	42.877	0	1949.40	0	1.9520	0	36.3380	8	29.060	0	1924.981	0	57.5	4	17.5	4	-1E+10	1	-1E+10	1	-1E+10	1	-1E+10	1	-1E+10	1	-1E+10	1
4901784	138	C	04/15/2019	10:47	-132.846	42.877	0	1954.40	0	1.9430	0	36.3400	8	29.062	0	1929.895	0	58.0	4	17.7	4	-1E+10	1	-1E+10	1	-1E+10	1	-1E+10	1	-1E+10	1	-1E+10	1
4901784	138	C	04/15/2019	10:47	-132.846	42.877	0	1959.30	0	1.9400	0	36.3410	8	29.063	0	1934.712	0	58.3	4	17.8	4	-1E+10	1	-1E+10	1	-1E+10	1	-1E+10	1	-1E+10	1	-1E+10	1
4901784	138	C	04/15/2019	10:47	-132.846	42.877	0	1964.40	0	1.9370	0	36.3420	8	29.064	0	1939.724	0	58.7	4	17.9	4	-1E+10	1	-1E+10	1	-1E+10	1	-1E+10	1	-1E+10	1	-1E+10	1
4901784	138	C	04/15/2019	10:47	-132.846	42.877	0	1969.40	0	1.9290	0	36.3440	8	29.066	0	1944.639	0	59.2	4	18.1	4	-1E+10	1	-1E+10	1	-1E+10	1	-1E+10	1	-1E+10	1	-1E+10	1
4901784	138	C	04/15/2019	10:47	-132.846	42.877	0	1974.50	0	1.9230	0	36.3450	8	29.068	0	1949.651	0	59.6	4	18.2	4	-1E+10	1	-1E+10	1	-1E+10	1	-1E+10	1	-1E+10	1	-1E+10	1
4901784	138	C	04/15/2019	10:47	-132.846	42.877	0	1979.60	0	1.9200	0	36.3460	8	29.069	0	1954.664	0	59.9	4	18.3	4	-1E+10	1	-1E+10	1	-1E+10	1	-1E+10	1	-1E+10	1	-1E+10	1
4901784	138	C	04/15/2019	10:47	-132.846	42.877	0	1984.80	0	1.9150	0	36.3470	8	29.070	0	1959.774	0	60.3	4	18.4	4	-1E+10	1	-1E+10	1	-1E+10	1	-1E+10	1	-1E+10	1	-1E+10	1
4901784	138	C	04/15/2019	10:47	-132.846	42.877	0	1989.90	0	1.9130	0	36.3480	8	29.071	0	1964.787	0	60.5	4	18.4	4	-1E+10	1	-1E+10	1	-1E+10	1	-1E+10	1	-1E+10	1	-1E+10	1
4901784	138	C	04/15/2019	10:47	-132.846	42.877	0	1995.10	0	1.9080	0	36.3490	8	29.072	0	1969.897	0	60.8	4	18.5	4	-1E+10	1	-1E+10	1	-1E+10	1	-1E+10	1	-1E+10	1	-1E+10	1
4901784	138	C	04/15/2019	10:47	-132.846	42.877	0	2000.20	0	1.9050	0	36.3500	8	29.073	0	1974.909	0	61.0	4	18.6	4	-1E+10	1	-1E+10	1	-1E+10	1	-1E+10	1	-1E+10	1	-1E+10	1
4901784	138	C	04/15/2019	10:47	-132.846	42.877	0	2005.10	0	1.9030	0	36.3500	8	29.074	0	1979.724	0	61.2	4	18.7	4	-1E+10	1	-1E+10	1	-1E+10	1	-1E+10	1	-1E+10	1	-1E+10	1
4901784	138	C	04/15/2019	10:47	-132.846	42.877	0	2010.00	0	1.9010	0	36.3510	8	29.075	0	1984.539	0	61.4	4	18.7	4	-1E+10	1	-1E+10	1	-1E+10	1	-1E+10	1	-1E+10	1	-1E+10	1
4901784	138	C	04/15/2019	10:47	-132.846	42.877	0	2015.40	0	1.8990	0	36.3520	8	29.076	0	1989.846	0	61.5	4	18.7	4	-1E+10	1	-1E+10	1	-1E+10	1	-1E+10	1	-1E+10	1	-1E+10	1
4901784	138	C	04/15/2019	10:47	-132.846	42.877	0	2019.90	0	1.8960	0	36.3520	8	29.076	0	1994.268	0	58.8	4	17.9	4	-1E+10	1	-1E+10	1	-1E+10	1	-1E+10	1	-1E+10	1	-1E+10	1
4901784	138	C	04/15/2019	10:47	-132.846	42.877	0																										
4901784	139	C	04/25/2019	10:49	-132.807	42.871	0	2.30	0	10.9020	0	33.8930	8	25.932	0	2.282	0	267.5	4	98.5	4	-1E+10	1	-1E+10	1	-1E+10	1	-1E+10	1	-1E+10	1	-1E+10	1
4901784	139	C	04/25/2019	10:49	-132.807	42.871	0	3.90	0	10.9130	0	33.8930	8	25.930	0	3.869	0	267.3	4	98.5	4	-1E+10	1	-1E+10	1	-1E+10	1	-1E+10	1	-1E+10	1	-1E+10	1
4901784	139	C	04/25/2019	10:49	-132.807	42.871	0	5.60	0	10.9130	0	33.8940	8	25.930	0	5.556	0	267.2	4	98.5	4	-1E+10	1	-1E+10	1	-1E+10	1	-1E+10	1	-1E+10	1	-1E+10	1
4901784	139	C	04/25/2019	10:49	-132.807	42.871	0	7.10	0	10.9140	0	33.8940	8	25.930	0	7.044	0	267.2	4	98.5	4	-1E+10	1	-1E+10	1	-1E+10	1	-1E+10	1	-1E+10	1	-1E+10	1
4901784	139	C	04/25/2019	10:49	-132.807	42.871	0	8.70	0	10.9120	0	33.8940	8	25.931	0	8.631	0	267.1	4	98.4	4	-1E+10	1	-1E+10	1	-1E+10	1	-1E+10	1	-1E+10	1	-1E+10	1
4901784	139	C	04/25/2019	10:49	-132.807	42.871	0	10.40	0	10.9110	0	33.8950	8	25.932	0	10.317	0	267.4	4	98.5	4	-1E+10	1	-1E+10	1	-1E+10	1	-1E+10	1	-1E+10	1	-1E+10	1
4901784	139	C	04/25/2019	10:49	-132.807	42.871	0	12.00	0	10.9140	0	33.8950	8	25.931	0	11.905	0	267.2	4	98.4	4	-1E+10	1	-1E+10	1	-1E+10	1	-1E+10	1	-1E+10	1	-1E+10	1
4901784	139	C	04/25/2019	10:49	-132.807	42.871	0	13.80	0	10.9150	0	33.8950	8	25.931	0	13.690	0	267.1	4	98.4	4	-1E+10	1	-1E+10	1	-1E+10	1	-1E+10	1	-1E+10	1	-1E+10	1
4901784	139	C	04/25/2019	10:49	-132.807	42.871	0	15.50	0	10.9110	0	33.8970	8	25.933	0	15.377	0	267.2	4	98.4	4	-1E+10	1	-1E+10	1	-1E+10	1	-1E+10	1	-1E+10	1	-1E+10	1
4901784	139	C	04/25/2019	10:49	-132.807	42.871	0	17.30	0	10.9110	0	33.8970	8	25.933	0	17.162	0	266.9	4	98.3	4	-1E+10	1	-1E+10	1	-1E+10	1	-1E+10	1	-1E+10	1	-1E+10	1
4901784	139	C	04/25/2019	10:49	-132.807	42.871	0	19.20	0	10.9120	0	33.8970	8	25.933	0	19.047	0	266.9	4	98.3	4	-1E+10	1	-1E+10	1	-1E+10	1	-1E+10	1	-1E+10	1	-1E+10	1
4901784	139	C	04/25/2019	10:49	-132.807	42.871	0	20.90	0	10.9100	0	33.8970	8	25.934	0	20.733	0	266.7	4	98.3	4	-1E+10	1	-1E+10	1	-1E+10	1	-1E+10	1	-1E+10	1	-1E+10	1
4901784	139	C	04/25/2019	10:49	-132.807	42.871	0	22.90	0	10.9100	0	33.8980	8	25.934	0	22.717	0	266.8	4	98.3	4	-1E+10	1	-1E+10	1	-1E+10	1	-1E+10	1	-1E+10	1	-1E+10	1
4901784	139	C	04/25/2019	10:49	-132.807	42.871	0	24.70	0	10.9120	0	33.8970	8	25.933	0	24.503	0	266.8	4	98.3	4	-1E+10	1	-1E+10	1	-1E+10	1	-1E+10	1	-1E+10	1	-1E+10	1
4901784	139	C	04/25/2019	10:49	-132.807	42.871	0	26.70	0	10.9120	0	33.8970	8	25.933	0	26.487	0	266.5	4	98.2	4	-1E+10	1	-1E+10	1	-1E+10	1	-1E+10	1	-1E+10	1	-1E+10	1
4901784	139	C	04/25/2019	10:49	-132.807	42.871	0	28.50	0	10.9110	0	33.8950	8	25.932	0	28.272	0	266.5	4	98.2	4	-1E+10	1	-1E+10	1	-1E+10	1	-1E+10	1	-1E+10	1	-1E+10	1
4901784	139	C	04/25/2019	10:49	-132.807	42.871	0	30.30	0	10.8960	0	33.8910	8	25.932	0	30.058	0	266.5	4	98.2	4	-1E+10	1	-1E+10	1	-1E+10	1	-1E+10	1	-1E+10	1	-1E+10	1
4901784	139	C	04/25/2019	10:49	-132.807	42.871	0	32.10	0	10.8430	0	33.8940	8	25.943	0	31.843	0	266.4	4	98.0	4	-1E+10	1	-1E+10	1	-1E+10	1	-1E+10	1	-1E+10	1	-1E+10	1
4901784	139	C	04/25/2019	10:49	-132.807	42.871	0	34.20	0	10.7690	0	33.8940	8	25.957	0	33.926	0	266.3	4	97.8	4	-1E+10	1	-1E+10	1	-1E+10	1	-1E+10	1	-1E+10	1	-1E+10	1
4901784	139	C	04/25/2019	10:49	-132.807	42.871	0	34.70	0	10.7110	0	33.9040	8	25.975	0	34.422	0	266.3	4	97.7	4	-1E+10	1	-1E+10	1	-1E+10	1	-1E+10	1	-1E+10	1	-1E+10	1
4901784	139	C	04/25/2019	10:49	-132.807	42.871	0	36.30	0	10.6500	0	33.9010	8	25.983	0	36.009	0	266.5	4	97.6	4	-1E+10	1	-1E+10	1	-1E+10	1	-1E+10	1	-1E+10	1	-1E+10	1
4901784	139	C	04/25/2019	10:49	-132.807	42.871	0	37.90	0	10.5570	0	33.9080	8	26.005	0	37.596	0	266.8	4	97.5	4	-1E+10	1	-1E+10	1	-1E+10	1	-1E+10	1	-1E+10	1	-1E+10	1
4901784	139	C	04/25/2019	10:49	-132.807	42.871	0	39.40	0	10.5450	0	33.9080	8	26.007	0	39.084	0	266.7	4	97.5	4	-1E+10	1	-1E+10	1	-1E+10	1	-1E+10	1	-1E+10	1	-1E+10	1
4901784	139	C	04/25/2019	10:49	-132.807	42.871	0	41.00	0	10.5410	0	33.9080	8	26.008	0	40.671	0	266.3	4	97.4	4	-1E+10	1	-1E+10	1	-1E+10	1	-1E+10	1	-1E+10	1	-1E+10	1
4901784	139	C	04/25/2019	10:49	-132.807	42.871	0	42.50	0	10.5350	0	33.9090	8	26.009	0	42.159	0	266.0	4	97.2	4	-1E+10	1	-1E+10	1	-1E+10	1	-1E+10	1	-1E+10	1	-1E+10	1
4901784	139	C	04/25/2019	10:49	-132.807	42.871	0	44.10	0	10.5190	0	33.9070	8	26.011	0	43.746	0	265.4	4	97.0	4	-1E+10	1	-1E+10	1	-1E+10	1	-1E+10	1	-1E+10	1	-1E+10	1
4901784	139	C	04/25/2019	10:49	-132.807	42.871	0	45.60	0	10.5140	0	33.9090	8	26.013	0	45.234	0	265.0	4	96.8	4	-1E+10	1	-1E+10	1	-1E+10	1	-1E+10	1	-1E+10	1	-1E+10	1
4901784	139	C	04/25/2019	10:49	-132.807	42.871	0	47.20	0	10.4790	0	33.9090	8	26.019	0	46.821	0	264.5	4	96.5	4	-1E+10	1	-1E+10	1	-1E+10	1	-1E+10	1	-1E+10	1	-1E+10	1
4901784	139	C	04/25/2019	10:49	-132.807	42.871	0	48.70	0	10.4520	0	33.9090	8	26.024	0	48.308	0	264.1	4	96.4	4	-1E+10	1	-1E+10	1	-1E+10	1	-1E+10	1	-1E+10	1	-1E+10	1
4901784	139	C	04/25/2019	10:49	-132.807	42.871	0	50.30	0	10.4150	0	33.9080	8	26.030	0	49.895	0	264.0	4	96.3	4	-1E+10	1	-1E+10	1	-1E+10	1	-1E+10	1	-1E+10	1	-1E+10	1
4901784	139	C	04/25/2019	10:49	-132.807	42.871	0	51.90	0	10.3840	0	33.9090	8	26.036	0	51.482	0	263.7	4	96.1	4	-1E+10	1	-1E+10	1	-1E+10	1	-1E+10	1	-1E+10	1	-1E+10	1
4901784	139	C	04/25/2019	10:49	-132.807	42.871	0	53.50	0	10.3680	0	33.9100	8	26.039	0	53.069	0	263.6	4	96.0	4	-1E+10	1	-1E+10	1	-1E+10	1	-1E+10	1	-1E+10	1	-1E+10	1
4901784	139	C	04/25/2019	10:49	-132.807	42.871	0	55.10	0	10.3470	0	33.9100	8	26.043	0	54.656	0	263.0	4	95.7	4	-1E+10	1	-1E+10	1	-1E+10	1	-1E+10	1	-1E+10	1	-1E+10	1
4901784	139	C	04/25/2019	10:49	-132.807	42.871	0	56.70	0	10.3250	0	33.9120	8	26.048	0	56.243	0	262.9	4	95.7	4	-1E+10	1	-1E+10	1	-1E+10	1	-1E+10	1	-1E+10	1	-1E+10	1
4901784	139	C	04/25/2019	10:49	-132.807	42.871	0	58.30	0	10.3090	0	33.9110	8	26.050	0	57.830	0	262.8	4	95.6	4	-1E+10	1	-1E+10	1	-1E+10	1	-1E+10	1	-1E+10	1	-1E+10	1
4901784	139	C	04/25/2019	10:49	-132.807	42.871	0	60.00	0	10.2860	0	33.9130	8	26.056	0	59.516	0	262.4	4	95.4	4	-1E+10	1	-1E+10	1	-1E+10	1	-1E+10	1	-1E+10	1	-1E+10	1
4901784	139	C	04/25/2019	10:49	-132.807	42.871	0	61.70	0	10.2690	0	33.9130	8	26.059	0	61.202	0	262.2	4	95.3	4	-1E+10	1	-1E+10	1	-1E+10	1	-1E+10	1	-1E+10	1	-1E+10	1
4901784	139	C	04/25/2019	10:49	-132.807	42.871	0	63.20	0	10.2640	0	33.9130	8	26.060	0	62.690	0	262.0	4	95.2	4	-1E+10	1	-1E+10	1	-1E+10	1	-1E+10	1	-1E+10	1	-1E+10	1
4901784	139	C	04/25/2019	10:49	-132.807	42.871	0	64.90	0	10.2410	0	33.9140	8	26.065	0	64.376	0	261.7	4	95.0	4	-1E+10	1	-1E+10	1	-1E+10	1	-1E+10	1	-1E+10	1	-1E+10	1
4901784	139	C	04/25/2019	10:49	-132.807	42.871	0	66.60	0	10.2170	0	33.9150	8	26.070	0	66.062	0	261.6	4	95.0	4	-1E+10	1	-1E+10	1	-1E+10	1	-1E+10	1	-1E+10	1	-1E+10	1
4901784	139	C	04/25/2019	10:49	-132.807	42.871	0	68.20	0	10.2080	0	33.9150	8	26.071	0	67.648	0	261.4	4	94.9	4	-1E+10	1	-1E+10	1	-1E+10	1	-1E+10	1	-1E+10	1	-1E+10	1
4901784	139	C	04/25/2019	10:49	-132.807	42.871	0	69.90	0	10.1910	0	33.9170	8	26.076	0	69.334	0	261.3	4	94.8	4	-1E+10	1	-1E+10	1	-1E+10	1	-1E+10	1	-1E+10	1	-1E+10	1
4901784	139	C	04/25/2019	10:49	-132.807	42.871	0	71.60	0	10.1810	0	33.9170	8	26.077	0	71.020	0	260.9	4	94.6	4	-1E+10	1	-1E+10	1	-1E+10	1	-1E+10	1	-1E+10	1	-1E+10	1
4901784	139	C	04/25/2019	10:49	-132.807	42.871	0	73.20	0	10.1510	0	33.9190	8	26.084	0	72.607	0	260.8	4	94.5	4	-1E+10	1	-1E+10	1	-1E+10	1	-1E+10	1	-1E+10	1	-1E+10	1
4901784	139	C	04/25/2019	10:49	-132.807	42.871	0	74.90	0	10.1410	0	33.9180	8	26.085	0	74.293	0	260.7	4	94.5	4	-1E+10	1	-1E+10	1	-1E+10	1	-1E+10	1	-1E+10	1	-1E+10	1
4901784	139	C	04/25/2019	10:49	-132.807	42.871	0	76.60	0	10.1400	0	33.9180	8	26.085	0	75.979	0	260.4	4	94.4	4	-1E+10	1	-1E+10	1	-1E+10	1	-1E+10	1	-1E+10	1	-1E+10	1
4901784	139	C	04/25/2019	10:49	-132.807	42.871	0	78.20	0	10.1130	0	33.9180	8	26.090	0	77.566	0	260.2	4	94.3	4	-1E+10	1	-1E+10	1	-1E+10	1	-1E+10	1	-1E+10	1	-1E+10	1
4901784	139	C	04/25/2019	10:49	-132.807	42.871	0	79.90	0	10.0810	0	33.9200	8	26.097	0	79.252	0	260.1	4	94.1	4	-1E+10	1	-1E+10	1	-1E+10	1	-1E+10	1	-1E+10	1	-1E+10	1
4901784	139	C	04/25/2019	10:49	-132.807	42.871	0	81.60	0	10.0700	0	33.9180	8	26.097	0	80.938	0	259.9	4	94.0	4	-1E+10	1	-1E+10	1	-1E+10	1	-1E+10	1	-1E+10	1	-1E+10	1
4901784	139	C	04/25/2019	10:49	-132.807	42.871	0	83.20	0	10.0390	0	33.9180	8	26.102	0	82.524	0	259.9	4	94.0	4	-1E+10	1	-1E+10	1	-1E+10	1	-1E+10	1	-1E+10	1	-1E+10	1
4901784	139	C	04/25/2019	10:49	-132.807	42.871	0	84.90	0	9.9650	0	33.9190	8	26.116	0	84.210	0	260.0	4	93.9	4	-1E+10	1	-1E+10	1	-1E+10	1	-1E+10	1	-1E+10	1	-1E+10	1
4901784	139	C	04/25/2019	10:49	-132.807	42.871	0	86.60	0	9.9480	0	33.9180	8	26.118	0	85.896	0	259.7	4	93.7	4	-1E+10	1	-1E+10	1	-1E+10	1	-1E+10	1	-1E+10	1	-1E+10	1
4901784	139	C	04/25/2019	10:49	-132.807	42.871	0	88.20	0	9.9090	0	33.9180	8	26.124	0	87.483	0	259.3	4	93.5	4	-1E+10	1	-1E+10	1	-1E+10	1	-1E+10	1	-1E+10	1	-1E+10	1
4901784	139	C	04/25/2019	10:49	-132.807	42.871	0	89.80	0	9.8400	0	33.9240	8	26.141	0	89.069	0	259.0	4	93.3	4	-1E+10	1	-1E+10	1	-1E+10	1	-1E+10	1	-1E+10	1	-1E+10	1
4901784	139	C	04/25/2019	10:49	-132.807	42.871	0	91.50	0	9.8340	0	33.9230	8	26.141	0	90.755	0	258.3	4	93.0	4	-1E+10	1	-1E+10	1	-1E+10	1	-1E+10	1	-1E+10	1	-1E+10	1
4901784	139	C	04/25/2019	10:49	-132.807	42.871	0	93.20	0	9.7800	0	33.9280	8	26.154	0	92.441	0	257.3	4	92.5	4	-1E+10	1	-1E+10	1	-1E+10	1	-1E+10	1	-1E+10	1	-1E+10	1
4901784	139	C	04/25/2019	10:49	-132.807	42.871	0	94.90	0	9.7170	0	33.9330	8	26.168	0	94.126	0	256.8	4	92.3	4	-1E+10	1	-1E+10	1	-1E+10	1	-1E+10	1	-1E+10	1	-1E+10	1
4901784	139	C	04/25/2019	10:49	-132.807	42.871	0	96.70	0	9.6900	0	33.9320	8	26.172	0	95.911	0	255.8	4	91.8	4	-1E+10	1	-1E+10	1	-1E+10	1	-1E+10	1	-1E+10	1	-1E+10	1
4901784	139	C	04/25/2019	10:49	-132.807	42.871	0	98.40	0	9.6070	0	33.9410	8	26.193	0	97.597	0	254.5	4	91.2	4	-1E+10	1	-1E+10	1	-1E+10	1	-1E+10	1	-1E+10	1	-1E+10	1
4901784	139	C	04/25/2019	10:49	-132.807	42.871	0	100.10	0	9.5380	0	33.9440	8	26.207	0	99.283	0	253.5	4	90.7	4	-1E+10	1	-1E+10	1	-1E+10	1	-1E+10	1	-1E+10	1	-1E+10	1
4901784	139	C	04/25/2019	10:49	-132.807	42.871	0	102.70	0	9.4170	0	33.9580	8	26.237	0	101.861	0	251.3	4	89.7	4	-1E+10	1	-1E+10	1	-1E+10	1	-1E+10	1	-1E+10	1	-1E+10	1
4901784	139	C	04/25/2019	10:49	-132.807	42.871	0	105.20	0	9.3040	0	33.9680	8	26.263	0	104.340	0	248.7	4	88.5	4	-1E+10	1	-1E+10	1	-1E+10	1	-1E+10	1	-1E+10	1	-1E+10	1
4901784	139	C	04/25/2019	10:49	-132.807	42.871	0	107.70	0	9.0860	0	34.0030	8	26.326	0	106.819	0	245.8	4	87.1	4	-1E+10	1	-1E+10	1	-1E+10	1	-1E+10	1	-1E+10	1	-1E+10	1
4901784	139	C	04/25/2019	10:49	-132.807	42.871	0	110.10	0	8.8010	0	34.0640	8	26.419	0	109.199	0	243.9	4	85.9	4	-1E+10	1	-1E+10	1	-1E+10	1	-1E+10	1	-1E+10	1	-1E+10	1
4901784	139	C	04/25/2019	10:49	-132.807	42.871	0	111.90	0	8.7030	0	34.0860	8	26.451	0	110.983	0	242.7	4	85.4	4	-1E+10	1	-1E+10	1	-1E+10	1	-1E+10	1	-1E+10	1	-1E+10	1
4901784	139	C	04/25/2019	10:49	-132.807	42.871	0	114.70	0	8.5580	0	34.1220	8	26.502	0	113.760	0	240.6	4	84.4	4	-1E+10	1	-1E+10	1	-1E+10	1	-1E+10	1	-1E+10	1	-1E+10	1
4901784	139	C	04/25/2019	10:49	-132.807	42.871	0	117.30	0	8.3720	0	34.1720	8	26.570	0	116.338	0	238.8	4	83.4	4	-1E+10	1	-1E+10	1	-1E+10	1	-1E+10	1	-1E+10	1	-1E+10	1
4901784	139	C	04/25/2019	10:49	-132.807	42.871	0	120.00	0	8.1800	0	34.2460	8	26.657	0	119.015	0	238.2	4	82.9	4	-1E+10	1	-1E+10	1	-1E+10	1	-1E+10	1	-1E+10	1	-1E+10	1
4901784	139	C	04/25/2019	10:49	-132.807	42.871	0	122.60	0	8.1470	0	34.2530	8	26.667	0	121.593	0	237.2	4	82.5	4	-1E+10	1	-1E+10	1	-1E+10	1	-1E+10	1	-1E+10	1	-1E+10	1
4901784	139	C	04/25/2019	10:49	-132.807	42.871	0	124.90	0	8.0600	0	34.2890	8	26.709	0	123.873	0	236.0	4	81.9	4	-1E+10	1	-1E+10	1	-1E+10	1	-1E+10	1	-1E+10	1	-1E+10	1
4901784	139	C	04/25/2019	10:49	-132.807	42.871	0	127.50	0	7.9800	0	34.3520	8	26.770	0	126.451	0	235.1	4	81.5	4	-1E+10	1	-1E+10	1	-1E+10	1	-1E+10	1	-1E+10	1	-1E+10	1
4901784	139	C	04/25/2019	10:49	-132.807	42.871	0	129.80	0	7.9650	0	34.3690	8	26.786	0	128.731	0	234.3	4	81.2	4	-1E+10	1	-1E+10	1	-1E+10	1	-1E+10	1	-1E+10	1	-1E+10	1
4901784	139	C	04/25/2019	10:49	-132.807	42.871	0	132.20	0	7.9500	0	34.3870	8	26.802	0	131.111	0	233.3	4	80.9	4	-1E+10	1	-1E+10	1	-1E+10	1	-1E+10	1	-1E+10	1	-1E+10	1
4901784	139	C	04/25/2019	10:49	-132.807	42.871	0	135.40	0	7.9140	0	34.4130	8	26.828	0	134.283	0	231.4	4	80.2	4	-1E+10	1	-1E+10	1	-1E+10	1	-1E+10	1	-1E+10	1	-1E+10	1
4901784	139	C	04/25/2019	10:49	-132.807	42.871	0	137.80	0	7.8620	0	34.4670	8	26.878	0	136.663	0	230.0	4	79.6	4	-1E+10	1	-1E+10	1	-1E+10	1	-1E+10	1	-1E+10	1	-1E+10	1
4901784	139	C	04/25/2019	10:49	-132.807	42.871	0	140.30	0	7.8450	0	34.5090	8	26.914	0	139.141	0	228.4	4	79.1	4	-1E+10	1	-1E+10	1	-1E+10	1	-1E+10	1	-1E+10	1	-1E+10	1
4901784	139	C	04/25/2019	10:49	-132.807	42.871	0	142.90	0	7.8380	0	34.5530	8	26.949	0	141.719	0	227.0	4	78.6	4	-1E+10	1	-1E+10	1	-1E+10	1	-1E+10	1	-1E+10	1	-1E+10	1
4901784	139	C	04/25/2019	10:49	-132.807	42.871	0	145.20	0	7.8330	0	34.5870	8	26.977	0	143.999	0	225.5	4	78.1	4	-1E+10	1	-1E+10	1	-1E+10	1	-1E+10	1	-1E+10	1	-1E+10	1
4901784	139	C	04/25/2019	10:49	-132.807	42.871	0	147.80	0	7.8240	0	34.6290	8	27.011	0	146.577	0	223.6	4	77.4	4	-1E+10	1	-1E+10	1	-1E+10	1	-1E+10	1	-1E+10	1	-1E+10	1
4901784	139	C	04/25/2019	10:49	-132.807	42.871	0	150.10	0	7.8230	0	34.6440	8	27.023	0	148.857	0	221.4	4	76.7	4	-1E+10	1	-1E+10	1	-1E+10	1	-1E+10	1	-1E+10	1	-1E+10	1
4901784	139	C	04/25/2019	10:49	-132.807	42.871	0	152.40	0	7.8420	0	34.7050	8	27.068	0	151.137	0	218.2	4	75.6	4	-1E+10	1	-1E+10	1	-1E+10	1	-1E+10	1	-1E+10	1	-1E+10	1
4901784	139	C	04/25/2019	10:49	-132.807	42.871	0	155.30	0	7.8870	0	34.7970	8	27.134	0	154.012	0	214.1	4	74.3	4	-1E+10	1	-1E+10	1	-1E+10	1	-1E+10	1	-1E+10	1	-1E+10	1
4901784	139	C	04/25/2019	10:49	-132.807	42.871	0	157.70	0	7.9280	0	34.8710	8	27.186	0	156.391	0	211.7	4	73.6	4	-1E+10	1	-1E+10	1	-1E+10	1	-1E+10	1	-1E+10	1	-1E+10	1
4901784	139	C	04/25/2019	10:49	-132.807	42.871	0	160.20	0	7.9420	0	34.9000	8	27.207	0	158.869	0	210.3	4	73.1	4	-1E+10	1	-1E+10	1	-1E+10	1	-1E+10	1	-1E+10	1	-1E+10	1
4901784	139	C	04/25/2019	10:49	-132.807	42.871	0	162.70	0	7.9490	0	34.9150	8	27.218	0	161.347	0	208.9	4	72.7	4	-1E+10	1	-1E+10	1	-1E+10	1	-1E+10	1	-1E+10	1	-1E+10	1
4901784	139	C	04/25/2019	10:49	-132.807	42.871	0	165.20	0	7.9620	0	34.9430	8	27.238	0	163.826	0	207.1	4	72.1	4	-1E+10	1	-1E+10	1	-1E+10	1	-1E+10	1	-1E+10	1	-1E+10	1
4901784	139	C	04/25/2019	10:49	-132.807	42.871	0	167.70	0	7.9700	0	34.9570	8	27.247	0	166.304	0	205.3	4	71.5	4	-1E+10	1	-1E+10	1	-1E+10	1	-1E+10	1	-1E+10	1	-1E+10	1
4901784	139	C	04/25/2019	10:49	-132.807	42.871	0	170.30	0	7.9940	0	34.9990	8	27.277	0	168.881	0	202.8	4	70.7	4	-1E+10	1	-1E+10	1	-1E+10	1	-1E+10	1	-1E+10	1	-1E+10	1
4901784	139	C	04/25/2019	10:49	-132.807	42.871	0	172.90	0	8.0080	0	35.0430	8	27.309	0	171.458	0	200.5	4	69.9	4	-1E+10	1	-1E+10	1	-1E+10	1	-1E+10	1	-1E+10	1	-1E+10	1
4901784	139	C	04/25/2019	10:49	-132.807	42.871	0	174.60	0	8.0160	0	35.0760	8	27.334	0	173.143	0	198.7	4	69.3	4	-1E+10	1	-1E+10	1	-1E+10	1	-1E+10	1	-1E+10	1	-1E+10	1
4901784	139	C	04/25/2019	10:49	-132.807	42.871	0	177.30	0	8.0270	0	35.1120	8	27.361	0	175.820	0	196.2	4	68.5	4	-1E+10	1	-1E+10	1	-1E+10	1	-1E+10	1	-1E+10	1	-1E+10	1
4901784	139	C	04/25/2019	10:49	-132.807	42.871	0	180.10	0	8.0440	0	35.1620	8	27.398	0	178.595	0	193.2	4	67.5	4	-1E+10	1	-1E+10	1	-1E+10	1	-1E+10	1	-1E+10	1	-1E+10	1
4901784	139	C	04/25/2019	10:49	-132.807	42.871	0	182.00	0	8.0690	0	35.1900	8	27.416	0	180.479	0	191.1	4	66.8	4	-1E+10	1	-1E+10	1	-1E+10	1	-1E+10	1	-1E+10	1	-1E+10	1
4901784	139	C	04/25/2019	10:49	-132.807	42.871	0	184.90	0	8.1220	0	35.2560	8	27.460	0	183.353	0	188.6	4	66.0	4	-1E+10	1	-1E+10	1	-1E+10	1	-1E+10	1	-1E+10	1	-1E+10	1
4901784	139	C	04/25/2019	10:49	-132.807	42.871	0	187.30	0	8.1080	0	35.2680	8	27.471	0	185.732	0	187.0	4	65.4	4	-1E+10	1	-1E+10	1	-1E+10	1	-1E+10	1	-1E+10	1	-1E+10	1
4901784	139	C	04/25/2019	10:49	-132.807	42.871	0	190.40	0	8.1360	0	35.3140	8	27.503	0	188.804	0	183.0	4	64.1	4	-1E+10	1	-1E+10	1	-1E+10	1	-1E+10	1	-1E+10	1	-1E+10	1
4901784	139	C	04/25/2019	10:49	-132.807	42.871	0	192.60	0	8.1700	0	35.3470	8	27.524	0	190.985	0	180.1	4	63.2	4	-1E+10	1	-1E+10	1	-1E+10	1	-1E+10	1	-1E+10	1	-1E+10	1
4901784	139	C	04/25/2019	10:49	-132.807	42.871	0	195.00	0	8.1960	0	35.3770	8	27.544	0	193.364	0	177.4	4	62.3	4	-1E+10	1	-1E+10	1	-1E+10	1	-1E+10	1	-1E+10	1	-1E+10	1
4901784	139	C	04/25/2019	10:49	-132.807	42.871	0	197.30	0	8.2130	0	35.3980	8	27.558	0	195.643	0	175.0	4	61.5	4	-1E+10	1	-1E+10	1	-1E+10	1	-1E+10	1	-1E+10	1	-1E+10	1
4901784	139	C	04/25/2019	10:49	-132.807	42.871	0	199.80	0	8.2210	0	35.4280	8	27.580	0	198.121	0	173.1	4	60.8	4	-1E+10	1	-1E+10	1	-1E+10	1	-1E+10	1	-1E+10	1	-1E+10	1
4901784	139	C	04/25/2019	10:49	-132.807	42.871	0	202.20	0	8.2190	0	35.4360	8	27.587	0	200.500	0	171.7	4	60.3	4	-1E+10	1	-1E+10	1	-1E+10	1	-1E+10	1	-1E+10	1	-1E+10	1
4901784	139	C	04/25/2019	10:49	-132.807	42.871	0	204.80	0	8.2100	0	35.4450	8	27.595	0	203.077	0	170.0	4	59.7	4	-1E+10	1	-1E+10	1	-1E+10	1	-1E+10	1	-1E+10	1	-1E+10	1
4901784	139	C	04/25/2019	10:49	-132.807	42.871	0	207.30	0	8.1690	0	35.4730	8	27.623	0	205.554	0	168.2	4	59.0	4	-1E+10	1	-1E+10	1	-1E+10	1	-1E+10	1	-1E+10	1	-1E+10	1
4901784	139	C	04/25/2019	10:49	-132.807	42.871	0	209.80	0	8.1420	0	35.4800	8	27.633	0	208.032	0	167.0	4	58.6	4	-1E+10	1	-1E+10	1	-1E+10	1	-1E+10	1	-1E+10	1	-1E+10	1
4901784	139	C	04/25/2019	10:49	-132.807	42.871	0	212.40	0	8.1180	0	35.4820	8	27.638	0	210.609	0	165.9	4	58.2	4	-1E+10	1	-1E+10	1	-1E+10	1	-1E+10	1	-1E+10	1	-1E+10	1
4901784	139	C	04/25/2019	10:49	-132.807	42.871	0	215.00	0	8.0620	0	35.4910	8	27.654	0	213.186	0	165.2	4	57.9	4	-1E+10	1	-1E+10	1	-1E+10	1	-1E+10	1	-1E+10	1	-1E+10	1
4901784	139	C	04/25/2019	10:49	-132.807	42.871	0	217.60	0	8.0510	0	35.4910	8	27.656	0	215.762	0	164.4	4	57.6	4	-1E+10	1	-1E+10	1	-1E+10	1	-1E+10	1	-1E+10	1	-1E+10	1
4901784	139	C	04/25/2019	10:49	-132.807	42.871	0	220.20	0	8.0050	0	35.4950	8	27.666	0	218.339	0	163.5	4	57.2	4	-1E+10	1	-1E+10	1	-1E+10	1	-1E+10	1	-1E+10	1	-1E+10	1
4901784	139	C	04/25/2019	10:49	-132.807	42.871	0	222.90	0	7.9840	0	35.4950	8	27.669	0	221.015	0	162.4	4	56.8	4	-1E+10	1	-1E+10	1	-1E+10	1	-1E+10	1	-1E+10	1	-1E+10	1
4901784	139	C	04/25/2019	10:49	-132.807	42.871	0	224.60	0	7.9380	0	35.4990	8	27.679	0	222.699	0	161.2	4	56.3	4	-1E+10	1	-1E+10	1	-1E+10	1	-1E+10	1	-1E+10	1	-1E+10	1
4901784	139	C	04/25/2019	10:49	-132.807	42.871	0	227.20	0	7.8900	0	35.5010	8	27.688	0	225.276	0	160.2	4	55.9	4	-1E+10	1	-1E+10	1	-1E+10	1	-1E+10	1	-1E+10	1	-1E+10	1
4901784	139	C	04/25/2019	10:49	-132.807	42.871	0	229.90	0	7.8600	0	35.5020	8	27.693	0	227.952	0	159.1	4	55.5	4	-1E+10	1	-1E+10	1	-1E+10	1	-1E+10	1	-1E+10	1	-1E+10	1
4901784	139	C	04/25/2019	10:49	-132.807	42.871	0	232.50	0	7.8450	0	35.5010	8	27.695	0	230.528	0	157.8	4	55.0	4	-1E+10	1	-1E+10	1	-1E+10	1	-1E+10	1	-1E+10	1	-1E+10	1
4901784	139	C	04/25/2019	10:49	-132.807	42.871	0	235.20	0	7.8370	0	35.4990	8	27.694	0	233.204	0	156.1	4	54.4	4	-1E+10	1	-1E+10	1	-1E+10	1	-1E+10	1	-1E+10	1	-1E+10	1
4901784	139	C	04/25/2019	10:49	-132.807	42.871	0	237.80	0	7.7680	0	35.5000	8	27.705	0	235.780	0	154.0	4	53.6	4	-1E+10	1	-1E+10	1	-1E+10	1	-1E+10	1	-1E+10	1	-1E+10	1
4901784	139	C	04/25/2019	10:49	-132.807	42.871	0	240.50	0	7.6880	0	35.5010	8	27.718	0	238.456	0	152.2	4	52.9	4	-1E+10	1	-1E+10	1	-1E+10	1	-1E+10	1	-1E+10	1	-1E+10	1
4901784	139	C	04/25/2019	10:49	-132.807	42.871	0	242.20	0	7.6750	0	35.4990	8	27.718	0	240.140	0	151.6	4	52.7	4	-1E+10	1	-1E+10	1	-1E+10	1	-1E+10	1	-1E+10	1	-1E+10	1
4901784	139	C	04/25/2019	10:49	-132.807	42.871	0	245.00	0	7.6180	0	35.5010	8	27.728	0	242.915	0	150.3	4	52.1	4	-1E+10	1	-1E+10	1	-1E+10	1	-1E+10	1	-1E+10	1	-1E+10	1
4901784	139	C	04/25/2019	10:49	-132.807	42.871	0	247.70	0	7.5850	0	35.4990	8	27.732	0	245.590	0	148.5	4	51.5	4	-1E+10	1	-1E+10	1	-1E+10	1	-1E+10	1	-1E+10	1	-1E+10	1
4901784	139	C	04/25/2019	10:49	-132.807	42.871	0	249.60	0	7.5340	0	35.5020	8	27.742	0	247.473	0	147.1	4	50.9	4	-1E+10	1	-1E+10	1	-1E+10	1	-1E+10	1	-1E+10	1	-1E+10	1
4901784	139	C	04/25/2019	10:49	-132.807	42.871	0	252.30	0	7.4620	0	35.5020	8	27.752	0	250.148	0	146.6	4	50.7	4	-1E+10	1	-1E+10	1	-1E+10	1	-1E+10	1	-1E+10	1	-1E+10	1
4901784	139	C	04/25/2019	10:49	-132.807	42.871	0	255.00	0	7.4290	0	35.5030	8	27.758	0	252.824	0	146.1	4	50.5	4	-1E+10	1	-1E+10	1	-1E+10	1	-1E+10	1	-1E+10	1	-1E+10	1
4901784	139	C	04/25/2019	10:49	-132.807	42.871	0	257.70	0	7.4270	0	35.5040	8	27.759	0	255.499	0	145.8	4	50.4	4	-1E+10	1	-1E+10	1	-1E+10	1	-1E+10	1	-1E+10	1	-1E+10	1
4901784	139	C	04/25/2019	10:49	-132.807	42.871	0	260.40	0	7.4250	0	35.5050	8	27.760	0	258.174	0	145.3	4	50.2	4	-1E+10	1	-1E+10	1	-1E+10	1	-1E+10	1	-1E+10	1	-1E+10	1
4901784	139	C	04/25/2019	10:49	-132.807	42.871	0	262.30	0	7.4260	0	35.5040	8	27.759	0	260.057	0	144.8	4	50.0	4	-1E+10	1	-1E+10	1	-1E+10	1	-1E+10	1	-1E+10	1	-1E+10	1
4901784	139	C	04/25/2019	10:49	-132.807	42.871	0	265.10	0	7.4100	0	35.5020	8	27.760	0	262.831	0	143.7	4	49.6	4	-1E+10	1	-1E+10	1	-1E+10	1	-1E+10	1	-1E+10	1	-1E+10	1
4901784	139	C	04/25/2019	10:49	-132.807	42.871	0	267.80	0	7.3910	0	35.5020	8	27.763	0	265.506	0	142.0	4	49.0	4	-1E+10	1	-1E+10	1	-1E+10	1	-1E+10	1	-1E+10	1	-1E+10	1
4901784	139	C	04/25/2019	10:49	-132.807	42.871	0	269.60	0	7.3410	0	35.5030	8	27.771	0	267.290	0	140.4	4	48.4	4	-1E+10	1	-1E+10	1	-1E+10	1	-1E+10	1	-1E+10	1	-1E+10	1
4901784	139	C	04/25/2019	10:49	-132.807	42.871	0	272.30	0	7.2750	0	35.5040	8	27.781	0	269.965	0	139.1	4	47.9	4	-1E+10	1	-1E+10	1	-1E+10	1	-1E+10	1	-1E+10	1	-1E+10	1
4901784	139	C	04/25/2019	10:49	-132.807	42.871	0	275.00	0	7.2490	0	35.5050	8	27.786	0	272.640	0	137.9	4	47.5	4	-1E+10	1	-1E+10	1	-1E+10	1	-1E+10	1	-1E+10	1	-1E+10	1
4901784	139	C	04/25/2019	10:49	-132.807	42.871	0	277.70	0	7.2240	0	35.5040	8	27.788	0	275.315	0	136.5	4	46.9	4	-1E+10	1	-1E+10	1	-1E+10	1	-1E+10	1	-1E+10	1	-1E+10	1
4901784	139	C	04/25/2019	10:49	-132.807	42.871	0	280.50	0	7.1790	0	35.5060	8	27.796	0	278.089	0	134.8	4	46.3	4	-1E+10	1	-1E+10	1	-1E+10	1	-1E+10	1	-1E+10	1	-1E+10	1
4901784	139	C	04/25/2019	10:49	-132.807	42.871	0	282.20	0	7.1670	0	35.5040	8	27.797	0	279.773	0	133.9	4	46.0	4	-1E+10	1	-1E+10	1	-1E+10	1	-1E+10	1	-1E+10	1	-1E+10	1
4901784	139	C	04/25/2019	10:49	-132.807	42.871	0	285.00	0	7.1060	0	35.5040	8	27.805	0	282.547	0	132.7	4	45.5	4	-1E+10	1	-1E+10	1	-1E+10	1	-1E+10	1	-1E+10	1	-1E+10	1
4901784	139	C	04/25/2019	10:49	-132.807	42.871	0	287.70	0	7.0730	0	35.5030	8	27.809	0	285.222	0	131.5	4	45.1	4	-1E+10	1	-1E+10	1	-1E+10	1	-1E+10	1	-1E+10	1	-1E+10	1
4901784	139	C	04/25/2019	10:49	-132.807	42.871	0	289.50	0	7.0010	0	35.5060	8	27.822	0	287.005	0	130.7	4	44.7	4	-1E+10	1	-1E+10	1	-1E+10	1	-1E+10	1	-1E+10	1	-1E+10	1
4901784	139	C	04/25/2019	10:49	-132.807	42.871	0	292.30	0	6.9850	0	35.5050	8	27.823	0	289.779	0	129.8	4	44.4	4	-1E+10	1	-1E+10	1	-1E+10	1	-1E+10	1	-1E+10	1	-1E+10	1
4901784	139	C	04/25/2019	10:49	-132.807	42.871	0	295.00	0	6.9510	0	35.5060	8	27.829	0	292.454	0	128.7	4	44.0	4	-1E+10	1	-1E+10	1	-1E+10	1	-1E+10	1	-1E+10	1	-1E+10	1
4901784	139	C	04/25/2019	10:49	-132.807	42.871	0	297.70	0	6.9030	0	35.5070	8	27.836	0	295.129	0	127.6	4	43.6	4	-1E+10	1	-1E+10	1	-1E+10	1	-1E+10	1	-1E+10	1	-1E+10	1
4901784	139	C	04/25/2019	10:49	-132.807	42.871	0	300.50	0	6.8750	0	35.5060	8	27.839	0	297.903	0	126.6	4	43.2	4	-1E+10	1	-1E+10	1	-1E+10	1	-1E+10	1	-1E+10	1	-1E+10	1
4901784	139	C	04/25/2019	10:49	-132.807	42.871	0	302.30	0	6.8380	0	35.5070	8	27.845	0	299.686	0	125.9	4	42.9	4	-1E+10	1	-1E+10	1	-1E+10	1	-1E+10	1	-1E+10	1	-1E+10	1
4901784	139	C	04/25/2019	10:49	-132.807	42.871	0	305.10	0	6.8100	0	35.5080	8	27.850	0	302.459	0	124.9	4	42.5	4	-1E+10	1	-1E+10	1	-1E+10	1	-1E+10	1	-1E+10	1	-1E+10	1
4901784	139	C	04/25/2019	10:49	-132.807	42.871	0	307.90	0	6.7940	0	35.5070	8	27.851	0	305.233	0	123.9	4	42.2	4	-1E+10	1	-1E+10	1	-1E+10	1	-1E+10	1	-1E+10	1	-1E+10	1
4901784	139	C	04/25/2019	10:49	-132.807	42.871	0	309.70	0	6.7440	0	35.5100	8	27.861	0	307.016	0	123.0	4	41.8	4	-1E+10	1	-1E+10	1	-1E+10	1	-1E+10	1	-1E+10	1	-1E+10	1
4901784	139	C	04/25/2019	10:49	-132.807	42.871	0	312.40	0	6.7230	0	35.5070	8	27.861	0	309.691	0	121.9	4	41.4	4	-1E+10	1	-1E+10	1	-1E+10	1	-1E+10	1	-1E+10	1	-1E+10	1
4901784	139	C	04/25/2019	10:49	-132.807	42.871	0	315.20	0	6.6790	0	35.5070	8	27.867	0	312.464	0	120.4	4	40.9	4	-1E+10	1	-1E+10	1	-1E+10	1	-1E+10	1	-1E+10	1	-1E+10	1
4901784	139	C	04/25/2019	10:49	-132.807	42.871	0	317.00	0	6.6260	0	35.5100	8	27.877	0	314.247	0	119.6	4	40.5	4	-1E+10	1	-1E+10	1	-1E+10	1	-1E+10	1	-1E+10	1	-1E+10	1
4901784	139	C	04/25/2019	10:49	-132.807	42.871	0	319.90	0	6.5820	0	35.5100	8	27.883	0	317.120	0	118.4	4	40.1	4	-1E+10	1	-1E+10	1	-1E+10	1	-1E+10	1	-1E+10	1	-1E+10	1
4901784	139	C	04/25/2019	10:49	-132.807	42.871	0	322.60	0	6.5670	0	35.5080	8	27.883	0	319.795	0	117.1	4	39.7	4	-1E+10	1	-1E+10	1	-1E+10	1	-1E+10	1	-1E+10	1	-1E+10	1
4901784	139	C	04/25/2019	10:49	-132.807	42.871	0	325.10	0	6.5370	0	35.5070	8	27.887	0	322.271	0	115.4	4	39.1	4	-1E+10	1	-1E+10	1	-1E+10	1	-1E+10	1	-1E+10	1	-1E+10	1
4901784	139	C	04/25/2019	10:49	-132.807	42.871	0	327.80	0	6.4440	0	35.5090	8	27.901	0	324.945	0	113.2	4	38.2	4	-1E+10	1	-1E+10	1	-1E+10	1	-1E+10	1	-1E+10	1	-1E+10	1
4901784	139	C	04/25/2019	10:49	-132.807	42.871	0	330.10	0	6.3810	0	35.5110	8	27.911	0	327.223	0	111.6	4	37.6	4	-1E+10	1	-1E+10	1	-1E+10	1	-1E+10	1	-1E+10	1	-1E+10	1
4901784	139	C	04/25/2019	10:49	-132.807	42.871	0	332.50	0	6.3320	0	35.5130	8	27.919	0	329.601	0	110.3	4	37.2	4	-1E+10	1	-1E+10	1	-1E+10	1	-1E+10	1	-1E+10	1	-1E+10	1
4901784	139	C	04/25/2019	10:49	-132.807	42.871	0	334.80	0	6.3200	0	35.5130	8	27.920	0	331.879	0	108.7	4	36.6	4	-1E+10	1	-1E+10	1	-1E+10	1	-1E+10	1	-1E+10	1	-1E+10	1
4901784	139	C	04/25/2019	10:49	-132.807	42.871	0	337.30	0	6.3020	0	35.5140	8	27.924	0	334.355	0	107.2	4	36.1	4	-1E+10	1	-1E+10	1	-1E+10	1	-1E+10	1	-1E+10	1	-1E+10	1
4901784	139	C	04/25/2019	10:49	-132.807	42.871	0	340.30	0	6.2460	0	35.5150	8	27.932	0	337.326	0	105.5	4	35.5	4	-1E+10	1	-1E+10	1	-1E+10	1	-1E+10	1	-1E+10	1	-1E+10	1
4901784	139	C	04/25/2019	10:49	-132.807	42.871	0	342.70	0	6.2230	0	35.5150	8	27.935	0	339.703	0	104.0	4	34.9	4	-1E+10	1	-1E+10	1	-1E+10	1	-1E+10	1	-1E+10	1	-1E+10	1
4901784	139	C	04/25/2019	10:49	-132.807	42.871	0	345.10	0	6.1880	0	35.5130	8	27.938	0	342.080	0	101.9	4	34.2	4	-1E+10	1	-1E+10	1	-1E+10	1	-1E+10	1	-1E+10	1	-1E+10	1
4901784	139	C	04/25/2019	10:49	-132.807	42.871	0	347.50	0	6.0950	0	35.5180	8	27.954	0	344.457	0	100.2	4	33.6	4	-1E+10	1	-1E+10	1	-1E+10	1	-1E+10	1	-1E+10	1	-1E+10	1
4901784	139	C	04/25/2019	10:49	-132.807	42.871	0	350.00	0	6.0520	0	35.5190	8	27.961	0	346.933	0	98.9	4	33.1	4	-1E+10	1	-1E+10	1	-1E+10	1	-1E+10	1	-1E+10	1	-1E+10	1
4901784	139	C	04/25/2019	10:49	-132.807	42.871	0	352.40	0	6.0110	0	35.5230	8	27.969	0	349.310	0	97.5	4	32.6	4	-1E+10	1	-1E+10	1	-1E+10	1	-1E+10	1	-1E+10	1	-1E+10	1
4901784	139	C	04/25/2019	10:49	-132.807	42.871	0	354.90	0	6.0010	0	35.5230	8	27.970	0	351.786	0	96.3	4	32.2	4	-1E+10	1	-1E+10	1	-1E+10	1	-1E+10	1	-1E+10	1	-1E+10	1
4901784	139	C	04/25/2019	10:49	-132.807	42.871	0	357.30	0	5.9850	0	35.5240	8	27.973	0	354.163	0	95.1	4	31.8	4	-1E+10	1	-1E+10	1	-1E+10	1	-1E+10	1	-1E+10	1	-1E+10	1
4901784	139	C	04/25/2019	10:49	-132.807	42.871	0	359.80	0	5.9770	0	35.5230	8	27.973	0	356.639	0	93.2	4	31.2	4	-1E+10	1	-1E+10	1	-1E+10	1	-1E+10	1	-1E+10	1	-1E+10	1
4901784	139	C	04/25/2019	10:49	-132.807	42.871	0	362.30	0	5.9530	0	35.5220	8	27.976	0	359.115	0	90.6	4	30.2	4	-1E+10	1	-1E+10	1	-1E+10	1	-1E+10	1	-1E+10	1	-1E+10	1
4901784	139	C	04/25/2019	10:49	-132.807	42.871	0	364.80	0	5.8680	0	35.5340	8	27.996	0	361.591	0	88.7	4	29.6	4	-1E+10	1	-1E+10	1	-1E+10	1	-1E+10	1	-1E+10	1	-1E+10	1
4901784	139	C	04/25/2019	10:49	-132.807	42.871	0	367.30	0	5.8600	0	35.5330	8	27.996	0	364.067	0	88.2	4	29.4	4	-1E+10	1	-1E+10	1	-1E+10	1	-1E+10	1	-1E+10	1	-1E+10	1
4901784	139	C	04/25/2019	10:49	-132.807	42.871	0	369.80	0	5.8330	0	35.5350	8	28.001	0	366.542	0	87.8	4	29.2	4	-1E+10	1	-1E+10	1	-1E+10	1	-1E+10	1	-1E+10	1	-1E+10	1
4901784	139	C	04/25/2019	10:49	-132.807	42.871	0	372.30	0	5.8190	0	35.5350	8	28.003	0	369.018	0	87.3	4	29.1	4	-1E+10	1	-1E+10	1	-1E+10	1	-1E+10	1	-1E+10	1	-1E+10	1
4901784	139	C	04/25/2019	10:49	-132.807	42.871	0	374.70	0	5.7960	0	35.5360	8	28.007	0	371.395	0	86.6	4	28.8	4	-1E+10	1	-1E+10	1	-1E+10	1	-1E+10	1	-1E+10	1	-1E+10	1
4901784	139	C	04/25/2019	10:49	-132.807	42.871	0	377.30	0	5.7780	0	35.5370	8	28.010	0	373.969	0	85.9	4	28.6	4	-1E+10	1	-1E+10	1	-1E+10	1	-1E+10	1	-1E+10	1	-1E+10	1
4901784	139	C	04/25/2019	10:49	-132.807	42.871	0	379.70	0	5.7640	0	35.5380	8	28.013	0	376.346	0	84.9	4	28.2	4	-1E+10	1	-1E+10	1	-1E+10	1	-1E+10	1	-1E+10	1	-1E+10	1
4901784	139	C	04/25/2019	10:49	-132.807	42.871	0	382.20	0	5.7570	0	35.5380	8	28.014	0	378.822	0	83.8	4	27.8	4	-1E+10	1	-1E+10	1	-1E+10	1	-1E+10	1	-1E+10	1	-1E+10	1
4901784	139	C	04/25/2019	10:49	-132.807	42.871	0	384.70	0	5.7410	0	35.5390	8	28.016	0	381.297	0	82.2	4	27.3	4	-1E+10	1	-1E+10	1	-1E+10	1	-1E+10	1	-1E+10	1	-1E+10	1
4901784	139	C	04/25/2019	10:49	-132.807	42.871	0	387.20	0	5.7140	0	35.5430	8	28.023	0	383.773	0	80.3	4	26.7	4	-1E+10	1	-1E+10	1	-1E+10	1	-1E+10	1	-1E+10	1	-1E+10	1
4901784	139	C	04/25/2019	10:49	-132.807	42.871	0	389.70	0	5.6820	0	35.5470	8	28.030	0	386.248	0	79.1	4	26.3	4	-1E+10	1	-1E+10	1	-1E+10	1	-1E+10	1	-1E+10	1	-1E+10	1
4901784	139	C	04/25/2019	10:49	-132.807	42.871	0	392.30	0	5.6470	0	35.5470	8	28.035	0	388.823	0	78.3	4	26.0	4	-1E+10	1	-1E+10	1	-1E+10	1	-1E+10	1	-1E+10	1	-1E+10	1
4901784	139	C	04/25/2019	10:49	-132.807	42.871	0	394.90	0	5.6350	0	35.5470	8	28.036	0	391.398	0	77.3	4	25.6	4	-1E+10	1	-1E+10	1	-1E+10	1	-1E+10	1	-1E+10	1	-1E+10	1
4901784	139	C	04/25/2019	10:49	-132.807	42.871	0	397.40	0	5.5840	0	35.5490	8	28.044	0	393.873	0	76.1	4	25.2	4	-1E+10	1	-1E+10	1	-1E+10	1	-1E+10	1	-1E+10	1	-1E+10	1
4901784	139	C	04/25/2019	10:49	-132.807	42.871	0	399.90	0	5.5520	0	35.5550	8	28.053	0	396.348	0	75.1	4	24.9	4	-1E+10	1	-1E+10	1	-1E+10	1	-1E+10	1	-1E+10	1	-1E+10	1
4901784	139	C	04/25/2019	10:49	-132.807	42.871	0	402.50	0	5.5440	0	35.5550	8	28.054	0	398.923	0	74.2	4	24.6	4	-1E+10	1	-1E+10	1	-1E+10	1	-1E+10	1	-1E+10	1	-1E+10	1
4901784	139	C	04/25/2019	10:49	-132.807	42.871	0	405.00	0	5.5150	0	35.5580	8	28.060	0	401.398	0	73.2	4	24.2	4	-1E+10	1	-1E+10	1	-1E+10	1	-1E+10	1	-1E+10	1	-1E+10	1
4901784	139	C	04/25/2019	10:49	-132.807	42.871	0	407.50	0	5.4930	0	35.5600	8	28.064	0	403.873	0	72.5	4	24.0	4	-1E+10	1	-1E+10	1	-1E+10	1	-1E+10	1	-1E+10	1	-1E+10	1
4901784	139	C	04/25/2019	10:49	-132.807	42.871	0	410.00	0	5.4800	0	35.5620	8	28.067	0	406.349	0	71.8	4	23.7	4	-1E+10	1	-1E+10	1	-1E+10	1	-1E+10	1	-1E+10	1	-1E+10	1
4901784	139	C	04/25/2019	10:49	-132.807	42.871	0	412.50	0	5.4690	0	35.5640	8	28.070	0	408.824	0	71.2	4	23.5	4	-1E+10	1	-1E+10	1	-1E+10	1	-1E+10	1	-1E+10	1	-1E+10	1
4901784	139	C	04/25/2019	10:49	-132.807	42.871	0	415.00	0	5.4580	0	35.5650	8	28.073	0	411.299	0	70.7	4	23.4	4	-1E+10	1	-1E+10	1	-1E+10	1	-1E+10	1	-1E+10	1	-1E+10	1
4901784	139	C	04/25/2019	10:49	-132.807	42.871	0	417.60	0	5.4460	0	35.5650	8	28.074	0	413.874	0	70.1	4	23.2	4	-1E+10	1	-1E+10	1	-1E+10	1	-1E+10	1	-1E+10	1	-1E+10	1
4901784	139	C	04/25/2019	10:49	-132.807	42.871	0	420.10	0	5.4270	0	35.5670	8	28.078	0	416.349	0	69.4	4	22.9	4	-1E+10	1	-1E+10	1	-1E+10	1	-1E+10	1	-1E+10	1	-1E+10	1
4901784	139	C	04/25/2019	10:49	-132.807	42.871	0	422.70	0	5.3810	0	35.5700	8	28.086	0	418.923	0	68.9	4	22.7	4	-1E+10	1	-1E+10	1	-1E+10	1	-1E+10	1	-1E+10	1	-1E+10	1
4901784	139	C	04/25/2019	10:49	-132.807	42.871	0	425.30	0	5.3760	0	35.5700	8	28.087	0	421.497	0	68.2	4	22.5	4	-1E+10	1	-1E+10	1	-1E+10	1	-1E+10	1	-1E+10	1	-1E+10	1
4901784	139	C	04/25/2019	10:49	-132.807	42.871	0	427.90	0	5.3700	0	35.5700	8	28.087	0	424.071	0	67.1	4	22.1	4	-1E+10	1	-1E+10	1	-1E+10	1	-1E+10	1	-1E+10	1	-1E+10	1
4901784	139	C	04/25/2019	10:49	-132.807	42.871	0	429.70	0	5.3540	0	35.5740	8	28.093	0	425.853	0	66.4	4	21.9	4	-1E+10	1	-1E+10	1	-1E+10	1	-1E+10	1	-1E+10	1	-1E+10	1
4901784	139	C	04/25/2019	10:49	-132.807	42.871	0	432.30	0	5.3270	0	35.5780	8	28.099	0	428.427	0	65.6	4	21.6	4	-1E+10	1	-1E+10	1	-1E+10	1	-1E+10	1	-1E+10	1	-1E+10	1
4901784	139	C	04/25/2019	10:49	-132.807	42.871	0	434.90	0	5.3230	0	35.5790	8	28.100	0	431.001	0	65.1	4	21.4	4	-1E+10	1	-1E+10	1	-1E+10	1	-1E+10	1	-1E+10	1	-1E+10	1
4901784	139	C	04/25/2019	10:49	-132.807	42.871	0	437.60	0	5.3160	0	35.5800	8	28.102	0	433.674	0	64.2	4	21.1	4	-1E+10	1	-1E+10	1	-1E+10	1	-1E+10	1	-1E+10	1	-1E+10	1
4901784	139	C	04/25/2019	10:49	-132.807	42.871	0	440.20	0	5.2800	0	35.5840	8	28.110	0	436.248	0	63.4	4	20.9	4	-1E+10	1	-1E+10	1	-1E+10	1	-1E+10	1	-1E+10	1	-1E+10	1
4901784	139	C	04/25/2019	10:49	-132.807	42.871	0	442.80	0	5.2730	0	35.5860	8	28.112	0	438.822	0	62.6	4	20.6	4	-1E+10	1	-1E+10	1	-1E+10	1	-1E+10	1	-1E+10	1	-1E+10	1
4901784	139	C	04/25/2019	10:49	-132.807	42.871	0	445.30	0	5.2610	0	35.5880	8	28.115	0	441.297	0	61.8	4	20.3	4	-1E+10	1	-1E+10	1	-1E+10	1	-1E+10	1	-1E+10	1	-1E+10	1
4901784	139	C	04/25/2019	10:49	-132.807	42.871	0	447.10	0	5.2580	0	35.5890	8	28.116	0	443.079	0	61.3	4	20.2	4	-1E+10	1	-1E+10	1	-1E+10	1	-1E+10	1	-1E+10	1	-1E+10	1
4901784	139	C	04/25/2019	10:49	-132.807	42.871	0	449.70	0	5.2440	0	35.5910	8	28.120	0	445.653	0	60.4	4	19.9	4	-1E+10	1	-1E+10	1	-1E+10	1	-1E+10	1	-1E+10	1	-1E+10	1
4901784	139	C	04/25/2019	10:49	-132.807	42.871	0	452.30	0	5.2300	0	35.5930	8	28.123	0	448.226	0	59.4	4	19.5	4	-1E+10	1	-1E+10	1	-1E+10	1	-1E+10	1	-1E+10	1	-1E+10	1
4901784	139	C	04/25/2019	10:49	-132.807	42.871	0	454.90	0	5.2190	0	35.5960	8	28.127	0	450.800	0	58.1	4	19.1	4	-1E+10	1	-1E+10	1	-1E+10	1	-1E+10	1	-1E+10	1	-1E+10	1
4901784	139	C	04/25/2019	10:49	-132.807	42.871	0	457.60	0	5.1970	0	35.5990	8	28.132	0	453.473	0	57.0	4	18.7	4	-1E+10	1	-1E+10	1	-1E+10	1	-1E+10	1	-1E+10	1	-1E+10	1
4901784	139	C	04/25/2019	10:49	-132.807	42.871	0	460.30	0	5.1580	0	35.6040	8	28.140	0	456.146	0	56.1	4	18.4	4	-1E+10	1	-1E+10	1	-1E+10	1	-1E+10	1	-1E+10	1	-1E+10	1
4901784	139	C	04/25/2019	10:49	-132.807	42.871	0	463.00	0	5.1170	0	35.6080	8	28.148	0	458.818	0	55.5	4	18.2	4	-1E+10	1	-1E+10	1	-1E+10	1	-1E+10	1	-1E+10	1	-1E+10	1
4901784	139	C	04/25/2019	10:49	-132.807	42.871	0	464.70	0	5.0980	0	35.6100	8	28.152	0	460.501	0	55.0	4	18.0	4	-1E+10	1	-1E+10	1	-1E+10	1	-1E+10	1	-1E+10	1	-1E+10	1
4901784	139	C	04/25/2019	10:49	-132.807	42.871	0	467.40	0	5.0820	0	35.6120	8	28.156	0	463.174	0	54.4	4	17.8	4	-1E+10	1	-1E+10	1	-1E+10	1	-1E+10	1	-1E+10	1	-1E+10	1
4901784	139	C	04/25/2019	10:49	-132.807	42.871	0	470.20	0	5.0640	0	35.6160	8	28.161	0	465.945	0	53.7	4	17.6	4	-1E+10	1	-1E+10	1	-1E+10	1	-1E+10	1	-1E+10	1	-1E+10	1
4901784	139	C	04/25/2019	10:49	-132.807	42.871	0	472.90	0	5.0590	0	35.6160	8	28.162	0	468.618	0	52.9	4	17.3	4	-1E+10	1	-1E+10	1	-1E+10	1	-1E+10	1	-1E+10	1	-1E+10	1
4901784	139	C	04/25/2019	10:49	-132.807	42.871	0	475.50	0	5.0460	0	35.6180	8	28.165	0	471.191	0	51.9	4	17.0	4	-1E+10	1	-1E+10	1	-1E+10	1	-1E+10	1	-1E+10	1	-1E+10	1
4901784	139	C	04/25/2019	10:49	-132.807	42.871	0	477.30	0	5.0360	0	35.6200	8	28.168	0	472.973	0	51.2	4	16.7	4	-1E+10	1	-1E+10	1	-1E+10	1	-1E+10	1	-1E+10	1	-1E+10	1
4901784	139	C	04/25/2019	10:49	-132.807	42.871	0	480.00	0	5.0110	0	35.6260	8	28.175	0	475.645	0	49.9	4	16.3	4	-1E+10	1	-1E+10	1	-1E+10	1	-1E+10	1	-1E+10	1	-1E+10	1
4901784	139	C	04/25/2019	10:49	-132.807	42.871	0	482.70	0	4.9930	0	35.6290	8	28.180	0	478.318	0	48.7	4	15.9	4	-1E+10	1	-1E+10	1	-1E+10	1	-1E+10	1	-1E+10	1	-1E+10	1
4901784	139	C	04/25/2019	10:49	-132.807	42.871	0	484.50	0	4.9790	0	35.6320	8	28.184	0	480.099	0	47.8	4	15.6	4	-1E+10	1	-1E+10	1	-1E+10	1	-1E+10	1	-1E+10	1	-1E+10	1
4901784	139	C	04/25/2019	10:49	-132.807	42.871	0	487.30	0	4.9640	0	35.6380	8	28.190	0	482.871	0	46.5	4	15.2	4	-1E+10	1	-1E+10	1	-1E+10	1	-1E+10	1	-1E+10	1	-1E+10	1
4901784	139	C	04/25/2019	10:49	-132.807	42.871	0	490.10	0	4.9650	0	35.6410	8	28.193	0	485.642	0	45.0	4	14.7	4	-1E+10	1	-1E+10	1	-1E+10	1	-1E+10	1	-1E+10	1	-1E+10	1
4901784	139	C	04/25/2019	10:49	-132.807	42.871	0	491.90	0	4.9640	0	35.6440	8	28.195	0	487.423	0	43.9	4	14.3	4	-1E+10	1	-1E+10	1	-1E+10	1	-1E+10	1	-1E+10	1	-1E+10	1
4901784	139	C	04/25/2019	10:49	-132.807	42.871	0	494.70	0	4.9770	0	35.6530	8	28.201	0	490.195	0	42.8	4	14.0	4	-1E+10	1	-1E+10	1	-1E+10	1	-1E+10	1	-1E+10	1	-1E+10	1
4901784	139	C	04/25/2019	10:49	-132.807	42.871	0	497.50	0	4.9590	0	35.6540	8	28.204	0	492.966	0	42.3	4	13.8	4	-1E+10	1	-1E+10	1	-1E+10	1	-1E+10	1	-1E+10	1	-1E+10	1
4901784	139	C	04/25/2019	10:49	-132.807	42.871	0	499.50	0	4.9210	0	35.6560	8	28.210	0	494.945	0	41.8	4	13.6	4	-1E+10	1	-1E+10	1	-1E+10	1	-1E+10	1	-1E+10	1	-1E+10	1
4901784	139	C	04/25/2019	10:49	-132.807	42.871	0	505.10	0	4.9140	0	35.6670	8	28.219	0	500.487	0	40.0	4	13.0	4	-1E+10	1	-1E+10	1	-1E+10	1	-1E+10	1	-1E+10	1	-1E+10	1
4901784	139	C	04/25/2019	10:49	-132.807	42.871	0	509.80	0	4.8970	0	35.6700	8	28.224	0	505.139	0	39.3	4	12.8	4	-1E+10	1	-1E+10	1	-1E+10	1	-1E+10	1	-1E+10	1	-1E+10	1
4901784	139	C	04/25/2019	10:49	-132.807	42.871	0	514.60	0	4.8820	0	35.6750	8	28.230	0	509.889	0	38.4	4	12.5	4	-1E+10	1	-1E+10	1	-1E+10	1	-1E+10	1	-1E+10	1	-1E+10	1
4901784	139	C	04/25/2019	10:49	-132.807	42.871	0	520.20	0	4.8700	0	35.6780	8	28.233	0	515.431	0	37.3	4	12.2	4	-1E+10	1	-1E+10	1	-1E+10	1	-1E+10	1	-1E+10	1	-1E+10	1
4901784	139	C	04/25/2019	10:49	-132.807	42.871	0	524.90	0	4.8650	0	35.6830	8	28.238	0	520.082	0	36.3	4	11.8	4	-1E+10	1	-1E+10	1	-1E+10	1	-1E+10	1	-1E+10	1	-1E+10	1
4901784	139	C	04/25/2019	10:49	-132.807	42.871	0	529.60	0	4.8560	0	35.6870	8	28.242	0	524.733	0	35.4	4	11.5	4	-1E+10	1	-1E+10	1	-1E+10	1	-1E+10	1	-1E+10	1	-1E+10	1
4901784	139	C	04/25/2019	10:49	-132.807	42.871	0	535.30	0	4.8350	0	35.6930	8	28.250	0	530.373	0	34.0	4	11.1	4	-1E+10	1	-1E+10	1	-1E+10	1	-1E+10	1	-1E+10	1	-1E+10	1
4901784	139	C	04/25/2019	10:49	-132.807	42.871	0	540.60	0	4.8190	0	35.7010	8	28.258	0	535.617	0	32.5	4	10.6	4	-1E+10	1	-1E+10	1	-1E+10	1	-1E+10	1	-1E+10	1	-1E+10	1
4901784	139	C	04/25/2019	10:49	-132.807	42.871	0	545.50	0	4.8100	0	35.7070	8	28.264	0	540.466	0	31.4	4	10.2	4	-1E+10	1	-1E+10	1	-1E+10	1	-1E+10	1	-1E+10	1	-1E+10	1
4901784	139	C	04/25/2019	10:49	-132.807	42.871	0	550.30	0	4.7970	0	35.7120	8	28.269	0	545.215	0	30.4	4	9.9	4	-1E+10	1	-1E+10	1	-1E+10	1	-1E+10	1	-1E+10	1	-1E+10	1
4901784	139	C	04/25/2019	10:49	-132.807	42.871	0	555.20	0	4.7800	0	35.7190	8	28.277	0	550.064	0	29.4	4	9.6	4	-1E+10	1	-1E+10	1	-1E+10	1	-1E+10	1	-1E+10	1	-1E+10	1
4901784	139	C	04/25/2019	10:49	-132.807	42.871	0	560.10	0	4.7680	0	35.7230	8	28.281	0	554.912	0	28.5	4	9.3	4	-1E+10	1	-1E+10	1	-1E+10	1	-1E+10	1	-1E+10	1	-1E+10	1
4901784	139	C	04/25/2019	10:49	-132.807	42.871	0	564.90	0	4.7480	0	35.7310	8	28.290	0	559.661	0	27.5	4	9.0	4	-1E+10	1	-1E+10	1	-1E+10	1	-1E+10	1	-1E+10	1	-1E+10	1
4901784	139	C	04/25/2019	10:49	-132.807	42.871	0	569.80	0	4.7310	0	35.7350	8	28.295	0	564.509	0	26.9	4	8.7	4	-1E+10	1	-1E+10	1	-1E+10	1	-1E+10	1	-1E+10	1	-1E+10	1
4901784	139	C	04/25/2019	10:49	-132.807	42.871	0	574.70	0	4.7010	0	35.7410	8	28.303	0	569.356	0	26.7	4	8.7	4	-1E+10	1	-1E+10	1	-1E+10	1	-1E+10	1	-1E+10	1	-1E+10	1
4901784	139	C	04/25/2019	10:49	-132.807	42.871	0	579.60	0	4.6490	0	35.7430	8	28.311	0	574.204	0	27.1	4	8.8	4	-1E+10	1	-1E+10	1	-1E+10	1	-1E+10	1	-1E+10	1	-1E+10	1
4901784	139	C	04/25/2019	10:49	-132.807	42.871	0	584.60	0	4.6190	0	35.7420	8	28.314	0	579.151	0	27.8	4	9.0	4	-1E+10	1	-1E+10	1	-1E+10	1	-1E+10	1	-1E+10	1	-1E+10	1
4901784	139	C	04/25/2019	10:49	-132.807	42.871	0	589.60	0	4.5580	0	35.7410	8	28.320	0	584.097	0	28.2	4	9.1	4	-1E+10	1	-1E+10	1	-1E+10	1	-1E+10	1	-1E+10	1	-1E+10	1
4901784	139	C	04/25/2019	10:49	-132.807	42.871	0	594.70	0	4.5300	0	35.7400	8	28.322	0	589.142	0	28.1	4	9.1	4	-1E+10	1	-1E+10	1	-1E+10	1	-1E+10	1	-1E+10	1	-1E+10	1
4901784	139	C	04/25/2019	10:49	-132.807	42.871	0	599.70	0	4.4850	0	35.7430	8	28.330	0	594.088	0	26.8	4	8.7	4	-1E+10	1	-1E+10	1	-1E+10	1	-1E+10	1	-1E+10	1	-1E+10	1
4901784	139	C	04/25/2019	10:49	-132.807	42.871	0	604.80	0	4.5640	0	35.7590	8	28.334	0	599.133	0	24.6	4	8.0	4	-1E+10	1	-1E+10	1	-1E+10	1	-1E+10	1	-1E+10	1	-1E+10	1
4901784	139	C	04/25/2019	10:49	-132.807	42.871	0	609.90	0	4.5320	0	35.7590	8	28.337	0	604.178	0	25.5	4	8.3	4	-1E+10	1	-1E+10	1	-1E+10	1	-1E+10	1	-1E+10	1	-1E+10	1
4901784	139	C	04/25/2019	10:49	-132.807	42.871	0	615.00	0	4.3830	0	35.7540	8	28.350	0	609.223	0	25.7	4	8.3	4	-1E+10	1	-1E+10	1	-1E+10	1	-1E+10	1	-1E+10	1	-1E+10	1
4901784	139	C	04/25/2019	10:49	-132.807	42.871	0	620.10	0	4.3690	0	35.7630	8	28.359	0	614.267	0	23.7	4	7.6	4	-1E+10	1	-1E+10	1	-1E+10	1	-1E+10	1	-1E+10	1	-1E+10	1
4901784	139	C	04/25/2019	10:49	-132.807	42.871	0	625.30	0	4.3980	0	35.7770	8	28.367	0	619.411	0	22.3	4	7.2	4	-1E+10	1	-1E+10	1	-1E+10	1	-1E+10	1	-1E+10	1	-1E+10	1
4901784	139	C	04/25/2019	10:49	-132.807	42.871	0	630.50	0	4.3740	0	35.7820	8	28.373	0	624.554	0	21.3	4	6.9	4	-1E+10	1	-1E+10	1	-1E+10	1	-1E+10	1	-1E+10	1	-1E+10	1
4901784	139	C	04/25/2019	10:49	-132.807	42.871	0	635.70	0	4.3770	0	35.7930	8	28.382	0	629.697	0	20.2	4	6.5	4	-1E+10	1	-1E+10	1	-1E+10	1	-1E+10	1	-1E+10	1	-1E+10	1
4901784	139	C	04/25/2019	10:49	-132.807	42.871	0	640.00	0	4.4150	0	35.8000	8	28.383	0	633.950	0	19.2	4	6.2	4	-1E+10	1	-1E+10	1	-1E+10	1	-1E+10	1	-1E+10	1	-1E+10	1
4901784	139	C	04/25/2019	10:49	-132.807	42.871	0	644.40	0	4.4260	0	35.8050	8	28.386	0	638.302	0	19.0	4	6.1	4	-1E+10	1	-1E+10	1	-1E+10	1	-1E+10	1	-1E+10	1	-1E+10	1
4901784	139	C	04/25/2019	10:49	-132.807	42.871	0	649.60	0	4.3370	0	35.8080	8	28.398	0	643.444	0	18.7	4	6.0	4	-1E+10	1	-1E+10	1	-1E+10	1	-1E+10	1	-1E+10	1	-1E+10	1
4901784	139	C	04/25/2019	10:49	-132.807	42.871	0	654.80	0	4.3920	0	35.8160	8	28.399	0	648.587	0	18.4	4	5.9	4	-1E+10	1	-1E+10	1	-1E+10	1	-1E+10	1	-1E+10	1	-1E+10	1
4901784	139	C	04/25/2019	10:49	-132.807	42.871	0	660.10	0	4.2950	0	35.8090	8	28.404	0	653.828	0	19.2	4	6.2	4	-1E+10	1	-1E+10	1	-1E+10	1	-1E+10	1	-1E+10	1	-1E+10	1
4901784	139	C	04/25/2019	10:49	-132.807	42.871	0	665.40	0	4.2270	0	35.8130	8	28.414	0	659.070	0	18.8	4	6.0	4	-1E+10	1	-1E+10	1	-1E+10	1	-1E+10	1	-1E+10	1	-1E+10	1
4901784	139	C	04/25/2019	10:49	-132.807	42.871	0	669.90	0	4.2290	0	35.8210	8	28.421	0	663.520	0	18.2	4	5.8	4	-1E+10	1	-1E+10	1	-1E+10	1	-1E+10	1	-1E+10	1	-1E+10	1
4901784	139	C	04/25/2019	10:49	-132.807	42.871	0	674.30	0	4.2110	0	35.8240	8	28.425	0	667.871	0	18.0	4	5.8	4	-1E+10	1	-1E+10	1	-1E+10	1	-1E+10	1	-1E+10	1	-1E+10	1
4901784	139	C	04/25/2019	10:49	-132.807	42.871	0	679.70	0	4.1850	0	35.8270	8	28.430	0	673.211	0	17.9	4	5.7	4	-1E+10	1	-1E+10	1	-1E+10	1	-1E+10	1	-1E+10	1	-1E+10	1
4901784	139	C	04/25/2019	10:49	-132.807	42.871	0	685.10	0	4.1530	0	35.8300	8	28.436	0	678.550	0	17.6	4	5.6	4	-1E+10	1	-1E+10	1	-1E+10	1	-1E+10	1	-1E+10	1	-1E+10	1
4901784	139	C	04/25/2019	10:49	-132.807	42.871	0	690.60	0	4.1450	0	35.8360	8	28.442	0	683.989	0	16.8	4	5.4	4	-1E+10	1	-1E+10	1	-1E+10	1	-1E+10	1	-1E+10	1	-1E+10	1
4901784	139	C	04/25/2019	10:49	-132.807	42.871	0	695.20	0	4.1350	0	35.8420	8	28.448	0	688.537	0	16.4	4	5.3	4	-1E+10	1	-1E+10	1	-1E+10	1	-1E+10	1	-1E+10	1	-1E+10	1
4901784	139	C	04/25/2019	10:49	-132.807	42.871	0	699.80	0	4.1250	0	35.8470	8	28.453	0	693.085	0	16.2	4	5.2	4	-1E+10	1	-1E+10	1	-1E+10	1	-1E+10	1	-1E+10	1	-1E+10	1
4901784	139	C	04/25/2019	10:49	-132.807	42.871	0	705.30	0	4.1180	0	35.8510	8	28.457	0	698.523	0	15.9	4	5.1	4	-1E+10	1	-1E+10	1	-1E+10	1	-1E+10	1	-1E+10	1	-1E+10	1
4901784	139	C	04/25/2019	10:49	-132.807	42.871	0	710.00	0	4.1070	0	35.8540	8	28.460	0	703.170	0	15.8	4	5.1	4	-1E+10	1	-1E+10	1	-1E+10	1	-1E+10	1	-1E+10	1	-1E+10	1
4901784	139	C	04/25/2019	10:49	-132.807	42.871	0	714.70	0	4.0900	0	35.8570	8	28.465	0	707.817	0	15.7	4	5.0	4	-1E+10	1	-1E+10	1	-1E+10	1	-1E+10	1	-1E+10	1	-1E+10	1
4901784	139	C	04/25/2019	10:49	-132.807	42.871	0	720.00	0	4.0750	0	35.8610	8	28.469	0	713.057	0	15.6	4	5.0	4	-1E+10	1	-1E+10	1	-1E+10	1	-1E+10	1	-1E+10	1	-1E+10	1
4901784	139	C	04/25/2019	10:49	-132.807	42.871	0	724.40	0	4.0490	0	35.8630	8	28.474	0	717.407	0	15.6	4	5.0	4	-1E+10	1	-1E+10	1	-1E+10	1	-1E+10	1	-1E+10	1	-1E+10	1
4901784	139	C	04/25/2019	10:49	-132.807	42.871	0	730.10	0	4.0250	0	35.8680	8	28.480	0	723.042	0	15.2	4	4.9	4	-1E+10	1	-1E+10	1	-1E+10	1	-1E+10	1	-1E+10	1	-1E+10	1
4901784	139	C	04/25/2019	10:49	-132.807	42.871	0	735.70	0	4.0320	0	35.8760	8	28.486	0	728.578	0	14.6	4	4.7	4	-1E+10	1	-1E+10	1	-1E+10	1	-1E+10	1	-1E+10	1	-1E+10	1
4901784	139	C	04/25/2019	10:49	-132.807	42.871	0	740.60	0	4.0250	0	35.8790	8	28.489	0	733.422	0	14.3	4	4.6	4	-1E+10	1	-1E+10	1	-1E+10	1	-1E+10	1	-1E+10	1	-1E+10	1
4901784	139	C	04/25/2019	10:49	-132.807	42.871	0	745.50	0	4.0130	0	35.8830	8	28.494	0	738.266	0	14.1	4	4.5	4	-1E+10	1	-1E+10	1	-1E+10	1	-1E+10	1	-1E+10	1	-1E+10	1
4901784	139	C	04/25/2019	10:49	-132.807	42.871	0	750.50	0	4.0050	0	35.8860	8	28.497	0	743.208	0	13.9	4	4.4	4	-1E+10	1	-1E+10	1	-1E+10	1	-1E+10	1	-1E+10	1	-1E+10	1
4901784	139	C	04/25/2019	10:49	-132.807	42.871	0	755.60	0	3.9920	0	35.8920	8	28.503	0	748.250	0	13.6	4	4.4	4	-1E+10	1	-1E+10	1	-1E+10	1	-1E+10	1	-1E+10	1	-1E+10	1
4901784	139	C	04/25/2019	10:49	-132.807	42.871	0	760.60	0	3.9780	0	35.8950	8	28.507	0	753.192	0	13.4	4	4.3	4	-1E+10	1	-1E+10	1	-1E+10	1	-1E+10	1	-1E+10	1	-1E+10	1
4901784	139	C	04/25/2019	10:49	-132.807	42.871	0	765.70	0	3.9600	0	35.9010	8	28.514	0	758.233	0	13.2	4	4.2	4	-1E+10	1	-1E+10	1	-1E+10	1	-1E+10	1	-1E+10	1	-1E+10	1
4901784	139	C	04/25/2019	10:49	-132.807	42.871	0	770.10	0	3.9450	0	35.9040	8	28.518	0	762.582	0	13.1	4	4.2	4	-1E+10	1	-1E+10	1	-1E+10	1	-1E+10	1	-1E+10	1	-1E+10	1
4901784	139	C	04/25/2019	10:49	-132.807	42.871	0	774.40	0	3.9330	0	35.9060	8	28.521	0	766.832	0	13.0	4	4.2	4	-1E+10	1	-1E+10	1	-1E+10	1	-1E+10	1	-1E+10	1	-1E+10	1
4901784	139	C	04/25/2019	10:49	-132.807	42.871	0	779.70	0	3.9110	0	35.9120	8	28.528	0	772.071	0	12.8	4	4.1	4	-1E+10	1	-1E+10	1	-1E+10	1	-1E+10	1	-1E+10	1	-1E+10	1
4901784	139	C	04/25/2019	10:49	-132.807	42.871	0	785.00	0	3.8990	0	35.9170	8	28.533	0	777.309	0	12.6	4	4.0	4	-1E+10	1	-1E+10	1	-1E+10	1	-1E+10	1	-1E+10	1	-1E+10	1
4901784	139	C	04/25/2019	10:49	-132.807	42.871	0	790.30	0	3.8830	0	35.9210	8	28.538	0	782.547	0	12.6	4	4.0	4	-1E+10	1	-1E+10	1	-1E+10	1	-1E+10	1	-1E+10	1	-1E+10	1
4901784	139	C	04/25/2019	10:49	-132.807	42.871	0	795.60	0	3.8600	0	35.9240	8	28.543	0	787.785	0	12.5	4	4.0	4	-1E+10	1	-1E+10	1	-1E+10	1	-1E+10	1	-1E+10	1	-1E+10	1
4901784	139	C	04/25/2019	10:49	-132.807	42.871	0	800.00	0	3.8530	0	35.9250	8	28.545	0	792.134	0	12.4	4	4.0	4	-1E+10	1	-1E+10	1	-1E+10	1	-1E+10	1	-1E+10	1	-1E+10	1
4901784	139	C	04/25/2019	10:49	-132.807	42.871	0	804.40	0	3.8390	0	35.9290	8	28.549	0	796.482	0	12.2	4	3.9	4	-1E+10	1	-1E+10	1	-1E+10	1	-1E+10	1	-1E+10	1	-1E+10	1
4901784	139	C	04/25/2019	10:49	-132.807	42.871	0	809.80	0	3.8240	0	35.9350	8	28.556	0	801.818	0	12.0	4	3.8	4	-1E+10	1	-1E+10	1	-1E+10	1	-1E+10	1	-1E+10	1	-1E+10	1
4901784	139	C	04/25/2019	10:49	-132.807	42.871	0	815.10	0	3.8110	0	35.9420	8	28.563	0	807.056	0	11.8	4	3.8	4	-1E+10	1	-1E+10	1	-1E+10	1	-1E+10	1	-1E+10	1	-1E+10	1
4901784	139	C	04/25/2019	10:49	-132.807	42.871	0	820.50	0	3.8030	0	35.9450	8	28.566	0	812.392	0	11.7	4	3.7	4	-1E+10	1	-1E+10	1	-1E+10	1	-1E+10	1	-1E+10	1	-1E+10	1
4901784	139	C	04/25/2019	10:49	-132.807	42.871	0	825.00	0	3.7840	0	35.9490	8	28.571	0	816.839	0	11.6	4	3.7	4	-1E+10	1	-1E+10	1	-1E+10	1	-1E+10	1	-1E+10	1	-1E+10	1
4901784	139	C	04/25/2019	10:49	-132.807	42.871	0	829.40	0	3.7760	0	35.9510	8	28.573	0	821.187	0	11.5	4	3.6	4	-1E+10	1	-1E+10	1	-1E+10	1	-1E+10	1	-1E+10	1	-1E+10	1
4901784	139	C	04/25/2019	10:49	-132.807	42.871	0	834.80	0	3.7590	0	35.9570	8	28.580	0	826.523	0	11.3	4	3.6	4	-1E+10	1	-1E+10	1	-1E+10	1	-1E+10	1	-1E+10	1	-1E+10	1
4901784	139	C	04/25/2019	10:49	-132.807	42.871	0	840.20	0	3.7450	0	35.9620	8	28.586	0	831.858	0	11.2	4	3.6	4	-1E+10	1	-1E+10	1	-1E+10	1	-1E+10	1	-1E+10	1	-1E+10	1
4901784	139	C	04/25/2019	10:49	-132.807	42.871	0	845.60	0	3.7350	0	35.9670	8	28.591	0	837.194	0	11.1	4	3.5	4	-1E+10	1	-1E+10	1	-1E+10	1	-1E+10	1	-1E+10	1	-1E+10	1
4901784	139	C	04/25/2019	10:49	-132.807	42.871	0	850.20	0	3.7260	0	35.9700	8	28.594	0	841.739	0	11.0	4	3.5	4	-1E+10	1	-1E+10	1	-1E+10	1	-1E+10	1	-1E+10	1	-1E+10	1
4901784	139	C	04/25/2019	10:49	-132.807	42.871	0	854.80	0	3.7180	0	35.9730	8	28.597	0	846.284	0	10.9	4	3.5	4	-1E+10	1	-1E+10	1	-1E+10	1	-1E+10	1	-1E+10	1	-1E+10	1
4901784	139	C	04/25/2019	10:49	-132.807	42.871	0	860.30	0	3.7060	0	35.9780	8	28.602	0	851.718	0	10.8	4	3.4	4	-1E+10	1	-1E+10	1	-1E+10	1	-1E+10	1	-1E+10	1	-1E+10	1
4901784	139	C	04/25/2019	10:49	-132.807	42.871	0	864.90	0	3.7000	0	35.9800	8	28.605	0	856.263	0	10.8	4	3.4	4	-1E+10	1	-1E+10	1	-1E+10	1	-1E+10	1	-1E+10	1	-1E+10	1
4901784	139	C	04/25/2019	10:49	-132.807	42.871	0	869.50	0	3.6960	0	35.9810	8	28.606	0	860.807	0	10.7	4	3.4	4	-1E+10	1	-1E+10	1	-1E+10	1	-1E+10	1	-1E+10	1	-1E+10	1
4901784	139	C	04/25/2019	10:49	-132.807	42.871	0	875.10	0	3.6800	0	35.9870	8	28.612	0	866.340	0	10.6	4	3.4	4	-1E+10	1	-1E+10	1	-1E+10	1	-1E+10	1	-1E+10	1	-1E+10	1
4901784	139	C	04/25/2019	10:49	-132.807	42.871	0	879.80	0	3.6630	0	35.9920	8	28.618	0	870.983	0	10.6	4	3.4	4	-1E+10	1	-1E+10	1	-1E+10	1	-1E+10	1	-1E+10	1	-1E+10	1
4901784	139	C	04/25/2019	10:49	-132.807	42.871	0	885.00	0	3.6570	0	35.9950	8	28.621	0	876.120	0	10.6	4	3.4	4	-1E+10	1	-1E+10	1	-1E+10	1	-1E+10	1	-1E+10	1	-1E+10	1
4901784	139	C	04/25/2019	10:49	-132.807	42.871	0	890.60	0	3.6520	0	35.9960	8	28.623	0	881.652	0	10.5	4	3.3	4	-1E+10	1	-1E+10	1	-1E+10	1	-1E+10	1	-1E+10	1	-1E+10	1
4901784	139	C	04/25/2019	10:49	-132.807	42.871	0	895.40	0	3.6450	0	36.0010	8	28.627	0	886.393	0	10.4	4	3.3	4	-1E+10	1	-1E+10	1	-1E+10	1	-1E+10	1	-1E+10	1	-1E+10	1
4901784	139	C	04/25/2019	10:49	-132.807	42.871	0	900.30	0	3.6380	0	36.0050	8	28.631	0	891.234	0	10.4	4	3.3	4	-1E+10	1	-1E+10	1	-1E+10	1	-1E+10	1	-1E+10	1	-1E+10	1
4901784	139	C	04/25/2019	10:49	-132.807	42.871	0	905.20	0	3.6300	0	36.0080	8	28.635	0	896.074	0	10.3	4	3.3	4	-1E+10	1	-1E+10	1	-1E+10	1	-1E+10	1	-1E+10	1	-1E+10	1
4901784	139	C	04/25/2019	10:49	-132.807	42.871	0	910.20	0	3.6210	0	36.0120	8	28.639	0	901.013	0	10.3	4	3.3	4	-1E+10	1	-1E+10	1	-1E+10	1	-1E+10	1	-1E+10	1	-1E+10	1
4901784	139	C	04/25/2019	10:49	-132.807	42.871	0	915.20	0	3.6100	0	36.0160	8	28.643	0	905.951	0	10.3	4	3.3	4	-1E+10	1	-1E+10	1	-1E+10	1	-1E+10	1	-1E+10	1	-1E+10	1
4901784	139	C	04/25/2019	10:49	-132.807	42.871	0	920.20	0	3.6060	0	36.0210	8	28.647	0	910.890	0	10.3	4	3.3	4	-1E+10	1	-1E+10	1	-1E+10	1	-1E+10	1	-1E+10	1	-1E+10	1
4901784	139	C	04/25/2019	10:49	-132.807	42.871	0	925.30	0	3.6050	0	36.0230	8	28.649	0	915.927	0	10.2	4	3.2	4	-1E+10	1	-1E+10	1	-1E+10	1	-1E+10	1	-1E+10	1	-1E+10	1
4901784	139	C	04/25/2019	10:49	-132.807	42.871	0	930.30	0	3.5980	0	36.0260	8	28.652	0	920.866	0	10.2	4	3.2	4	-1E+10	1	-1E+10	1	-1E+10	1	-1E+10	1	-1E+10	1	-1E+10	1
4901784	139	C	04/25/2019	10:49	-132.807	42.871	0	935.30	0	3.5900	0	36.0290	8	28.656	0	925.804	0	10.2	4	3.2	4	-1E+10	1	-1E+10	1	-1E+10	1	-1E+10	1	-1E+10	1	-1E+10	1
4901784	139	C	04/25/2019	10:49	-132.807	42.871	0	940.40	0	3.5710	0	36.0340	8	28.662	0	930.841	0	10.2	4	3.2	4	-1E+10	1	-1E+10	1	-1E+10	1	-1E+10	1	-1E+10	1	-1E+10	1
4901784	139	C	04/25/2019	10:49	-132.807	42.871	0	945.60	0	3.5590	0	36.0370	8	28.665	0	935.976	0	10.2	4	3.2	4	-1E+10	1	-1E+10	1	-1E+10	1	-1E+10	1	-1E+10	1	-1E+10	1
4901784	139	C	04/25/2019	10:49	-132.807	42.871	0	950.70	0	3.5570	0	36.0390	8	28.667	0	941.013	0	10.2	4	3.2	4	-1E+10	1	-1E+10	1	-1E+10	1	-1E+10	1	-1E+10	1	-1E+10	1
4901784	139	C	04/25/2019	10:49	-132.807	42.871	0	955.00	0	3.5490	0	36.0430	8	28.671	0	945.259	0	10.2	4	3.2	4	-1E+10	1	-1E+10	1	-1E+10	1	-1E+10	1	-1E+10	1	-1E+10	1
4901784	139	C	04/25/2019	10:49	-132.807	42.871	0	959.30	0	3.5340	0	36.0460	8	28.675	0	949.506	0	10.3	4	3.3	4	-1E+10	1	-1E+10	1	-1E+10	1	-1E+10	1	-1E+10	1	-1E+10	1
4901784	139	C	04/25/2019	10:49	-132.807	42.871	0	964.60	0	3.5170	0	36.0500	8	28.680	0	954.740	0	10.3	4	3.3	4	-1E+10	1	-1E+10	1	-1E+10	1	-1E+10	1	-1E+10	1	-1E+10	1
4901784	139	C	04/25/2019	10:49	-132.807	42.871	0	969.80	0	3.5020	0	36.0540	8	28.685	0	959.874	0	10.4	4	3.3	4	-1E+10	1	-1E+10	1	-1E+10	1	-1E+10	1	-1E+10	1	-1E+10	1
4901784	139	C	04/25/2019	10:49	-132.807	42.871	0	975.10	0	3.4870	0	36.0600	8	28.691	0	965.108	0	10.4	4	3.3	4	-1E+10	1	-1E+10	1	-1E+10	1	-1E+10	1	-1E+10	1	-1E+10	1
4901784	139	C	04/25/2019	10:49	-132.807	42.871	0	980.30	0	3.4730	0	36.0650	8	28.696	0	970.243	0	10.5	4	3.3	4	-1E+10	1	-1E+10	1	-1E+10	1	-1E+10	1	-1E+10	1	-1E+10	1
4901784	139	C	04/25/2019	10:49	-132.807	42.871	0	985.60	0	3.4670	0	36.0680	8	28.699	0	975.476	0	10.6	4	3.3	4	-1E+10	1	-1E+10	1	-1E+10	1	-1E+10	1	-1E+10	1	-1E+10	1
4901784	139	C	04/25/2019	10:49	-132.807	42.871	0	990.00	0	3.4650	0	36.0690	8	28.701	0	979.821	0	10.6	4	3.4	4	-1E+10	1	-1E+10	1	-1E+10	1	-1E+10	1	-1E+10	1	-1E+10	1
4901784	139	C	04/25/2019	10:49	-132.807	42.871	0	994.50	0	3.4500	0	36.0720	8	28.704	0	984.264	0	10.6	4	3.4	4	-1E+10	1	-1E+10	1	-1E+10	1	-1E+10	1	-1E+10	1	-1E+10	1
4901784	139	C	04/25/2019	10:49	-132.807	42.871	0	999.80	0	3.4400	0	36.0740	8	28.707	0	989.497	0	10.7	4	3.4	4	-1E+10	1	-1E+10	1	-1E+10	1	-1E+10	1	-1E+10	1	-1E+10	1
4901784	139	C	04/25/2019	10:49	-132.807	42.871	0	1005.10	0	3.4370	0	36.0770	8	28.710	0	994.729	0	10.8	4	3.4	4	-1E+10	1	-1E+10	1	-1E+10	1	-1E+10	1	-1E+10	1	-1E+10	1
4901784	139	C	04/25/2019	10:49	-132.807	42.871	0	1010.40	0	3.4370	0	36.0800	8	28.712	0	999.962	0	10.9	4	3.4	4	-1E+10	1	-1E+10	1	-1E+10	1	-1E+10	1	-1E+10	1	-1E+10	1
4901784	139	C	04/25/2019	10:49	-132.807	42.871	0	1014.80	0	3.4280	0	36.0830	8	28.716	0	1004.306	0	11.0	4	3.5	4	-1E+10	1	-1E+10	1	-1E+10	1	-1E+10	1	-1E+10	1	-1E+10	1
4901784	139	C	04/25/2019	10:49	-132.807	42.871	0	1019.30	0	3.4210	0	36.0850	8	28.718	0	1008.749	0	11.0	4	3.5	4	-1E+10	1	-1E+10	1	-1E+10	1	-1E+10	1	-1E+10	1	-1E+10	1
4901784	139	C	04/25/2019	10:49	-132.807	42.871	0	1024.80	0	3.4020	0	36.0890	8	28.723	0	1014.179	0	11.1	4	3.5	4	-1E+10	1	-1E+10	1	-1E+10	1	-1E+10	1	-1E+10	1	-1E+10	1
4901784	139	C	04/25/2019	10:49	-132.807	42.871	0	1030.20	0	3.3820	0	36.0920	8	28.727	0	1019.509	0	11.2	4	3.5	4	-1E+10	1	-1E+10	1	-1E+10	1	-1E+10	1	-1E+10	1	-1E+10	1
4901784	139	C	04/25/2019	10:49	-132.807	42.871	0	1034.90	0	3.3700	0	36.0950	8	28.731	0	1024.149	0	11.3	4	3.6	4	-1E+10	1	-1E+10	1	-1E+10	1	-1E+10	1	-1E+10	1	-1E+10	1
4901784	139	C	04/25/2019	10:49	-132.807	42.871	0	1039.50	0	3.3610	0	36.0990	8	28.735	0	1028.690	0	11.4	4	3.6	4	-1E+10	1	-1E+10	1	-1E+10	1	-1E+10	1	-1E+10	1	-1E+10	1
4901784	139	C	04/25/2019	10:49	-132.807	42.871	0	1045.10	0	3.3510	0	36.1010	8	28.738	0	1034.218	0	11.4	4	3.6	4	-1E+10	1	-1E+10	1	-1E+10	1	-1E+10	1	-1E+10	1	-1E+10	1
4901784	139	C	04/25/2019	10:49	-132.807	42.871	0	1049.80	0	3.3380	0	36.1020	8	28.740	0	1038.858	0	11.4	4	3.6	4	-1E+10	1	-1E+10	1	-1E+10	1	-1E+10	1	-1E+10	1	-1E+10	1
4901784	139	C	04/25/2019	10:49	-132.807	42.871	0	1055.20	0	3.3120	0	36.1040	8	28.744	0	1044.188	0	11.4	4	3.6	4	-1E+10	1	-1E+10	1	-1E+10	1	-1E+10	1	-1E+10	1	-1E+10	1
4901784	139	C	04/25/2019	10:49	-132.807	42.871	0	1060.20	0	3.3000	0	36.1050	8	28.746	0	1049.123	0	11.5	4	3.6	4	-1E+10	1	-1E+10	1	-1E+10	1	-1E+10	1	-1E+10	1	-1E+10	1
4901784	139	C	04/25/2019	10:49	-132.807	42.871	0	1065.00	0	3.3000	0	36.1070	8	28.748	0	1053.861	0	11.6	4	3.7	4	-1E+10	1	-1E+10	1	-1E+10	1	-1E+10	1	-1E+10	1	-1E+10	1
4901784	139	C	04/25/2019	10:49	-132.807	42.871	0	1069.90	0	3.2890	0	36.1110	8	28.752	0	1058.697	0	11.7	4	3.7	4	-1E+10	1	-1E+10	1	-1E+10	1	-1E+10	1	-1E+10	1	-1E+10	1
4901784	139	C	04/25/2019	10:49	-132.807	42.871	0	1074.70	0	3.2760	0	36.1120	8	28.754	0	1063.435	0	11.7	4	3.7	4	-1E+10	1	-1E+10	1	-1E+10	1	-1E+10	1	-1E+10	1	-1E+10	1
4901784	139	C	04/25/2019	10:49	-132.807	42.871	0	1079.60	0	3.2630	0	36.1140	8	28.757	0	1068.271	0	11.8	4	3.7	4	-1E+10	1	-1E+10	1	-1E+10	1	-1E+10	1	-1E+10	1	-1E+10	1
4901784	139	C	04/25/2019	10:49	-132.807	42.871	0	1084.40	0	3.2530	0	36.1170	8	28.760	0	1073.008	0	11.8	4	3.7	4	-1E+10	1	-1E+10	1	-1E+10	1	-1E+10	1	-1E+10	1	-1E+10	1
4901784	139	C	04/25/2019	10:49	-132.807	42.871	0	1089.30	0	3.2470	0	36.1180	8	28.762	0	1077.844	0	11.9	4	3.7	4	-1E+10	1	-1E+10	1	-1E+10	1	-1E+10	1	-1E+10	1	-1E+10	1
4901784	139	C	04/25/2019	10:49	-132.807	42.871	0	1094.40	0	3.2360	0	36.1200	8	28.765	0	1082.878	0	11.9	4	3.7	4	-1E+10	1	-1E+10	1	-1E+10	1	-1E+10	1	-1E+10	1	-1E+10	1
4901784	139	C	04/25/2019	10:49	-132.807	42.871	0	1099.40	0	3.2250	0	36.1210	8	28.767	0	1087.812	0	12.0	4	3.8	4	-1E+10	1	-1E+10	1	-1E+10	1	-1E+10	1	-1E+10	1	-1E+10	1
4901784	139	C	04/25/2019	10:49	-132.807	42.871	0	1104.70	0	3.2160	0	36.1250	8	28.771	0	1093.042	0	12.2	4	3.8	4	-1E+10	1	-1E+10	1	-1E+10	1	-1E+10	1	-1E+10	1	-1E+10	1
4901784	139	C	04/25/2019	10:49	-132.807	42.871	0	1110.10	0	3.2110	0	36.1280	8	28.774	0	1098.371	0	12.4	4	3.9	4	-1E+10	1	-1E+10	1	-1E+10	1	-1E+10	1	-1E+10	1	-1E+10	1
4901784	139	C	04/25/2019	10:49	-132.807	42.871	0	1115.50	0	3.1900	0	36.1310	8	28.778	0	1103.700	0	12.4	4	3.9	4	-1E+10	1	-1E+10	1	-1E+10	1	-1E+10	1	-1E+10	1	-1E+10	1
4901784	139	C	04/25/2019	10:49	-132.807	42.871	0	1120.10	0	3.1850	0	36.1320	8	28.779	0	1108.239	0	12.4	4	3.9	4	-1E+10	1	-1E+10	1	-1E+10	1	-1E+10	1	-1E+10	1	-1E+10	1
4901784	139	C	04/25/2019	10:49	-132.807	42.871	0	1124.80	0	3.1780	0	36.1330	8	28.781	0	1112.877	0	12.4	4	3.9	4	-1E+10	1	-1E+10	1	-1E+10	1	-1E+10	1	-1E+10	1	-1E+10	1
4901784	139	C	04/25/2019	10:49	-132.807	42.871	0	1130.30	0	3.1690	0	36.1340	8	28.783	0	1118.304	0	12.5	4	3.9	4	-1E+10	1	-1E+10	1	-1E+10	1	-1E+10	1	-1E+10	1	-1E+10	1
4901784	139	C	04/25/2019	10:49	-132.807	42.871	0	1135.00	0	3.1580	0	36.1370	8	28.786	0	1122.942	0	12.6	4	4.0	4	-1E+10	1	-1E+10	1	-1E+10	1	-1E+10	1	-1E+10	1	-1E+10	1
4901784	139	C	04/25/2019	10:49	-132.807	42.871	0	1139.70	0	3.1500	0	36.1380	8	28.788	0	1127.579	0	12.7	4	4.0	4	-1E+10	1	-1E+10	1	-1E+10	1	-1E+10	1	-1E+10	1	-1E+10	1
4901784	139	C	04/25/2019	10:49	-132.807	42.871	0	1145.40	0	3.1350	0	36.1410	8	28.792	0	1133.203	0	12.9	4	4.0	4	-1E+10	1	-1E+10	1	-1E+10	1	-1E+10	1	-1E+10	1	-1E+10	1
4901784	139	C	04/25/2019	10:49	-132.807	42.871	0	1150.10	0	3.1230	0	36.1430	8	28.794	0	1137.840	0	13.0	4	4.1	4	-1E+10	1	-1E+10	1	-1E+10	1	-1E+10	1	-1E+10	1	-1E+10	1
4901784	139	C	04/25/2019	10:49	-132.807	42.871	0	1154.80	0	3.1150	0	36.1450	8	28.797	0	1142.478	0	13.1	4	4.1	4	-1E+10	1	-1E+10	1	-1E+10	1	-1E+10	1	-1E+10	1	-1E+10	1
4901784	139	C	04/25/2019	10:49	-132.807	42.871	0	1160.50	0	3.1050	0	36.1470	8	28.799	0	1148.101	0	13.2	4	4.1	4	-1E+10	1	-1E+10	1	-1E+10	1	-1E+10	1	-1E+10	1	-1E+10	1
4901784	139	C	04/25/2019	10:49	-132.807	42.871	0	1165.30	0	3.0940	0	36.1490	8	28.802	0	1152.837	0	13.4	4	4.2	4	-1E+10	1	-1E+10	1	-1E+10	1	-1E+10	1	-1E+10	1	-1E+10	1
4901784	139	C	04/25/2019	10:49	-132.807	42.871	0	1170.10	0	3.0790	0	36.1530	8	28.807	0	1157.572	0	13.5	4	4.2	4	-1E+10	1	-1E+10	1	-1E+10	1	-1E+10	1	-1E+10	1	-1E+10	1
4901784	139	C	04/25/2019	10:49	-132.807	42.871	0	1174.90	0	3.0740	0	36.1540	8	28.808	0	1162.307	0	13.6	4	4.3	4	-1E+10	1	-1E+10	1	-1E+10	1	-1E+10	1	-1E+10	1	-1E+10	1
4901784	139	C	04/25/2019	10:49	-132.807	42.871	0	1179.80	0	3.0670	0	36.1550	8	28.809	0	1167.141	0	13.7	4	4.3	4	-1E+10	1	-1E+10	1	-1E+10	1	-1E+10	1	-1E+10	1	-1E+10	1
4901784	139	C	04/25/2019	10:49	-132.807	42.871	0	1184.60	0	3.0630	0	36.1570	8	28.811	0	1171.876	0	13.8	4	4.3	4	-1E+10	1	-1E+10	1	-1E+10	1	-1E+10	1	-1E+10	1	-1E+10	1
4901784	139	C	04/25/2019	10:49	-132.807	42.871	0	1189.60	0	3.0540	0	36.1580	8	28.813	0	1176.809	0	13.9	4	4.4	4	-1E+10	1	-1E+10	1	-1E+10	1	-1E+10	1	-1E+10	1	-1E+10	1
4901784	139	C	04/25/2019	10:49	-132.807	42.871	0	1195.40	0	3.0390	0	36.1610	8	28.817	0	1182.530	0	14.1	4	4.4	4	-1E+10	1	-1E+10	1	-1E+10	1	-1E+10	1	-1E+10	1	-1E+10	1
4901784	139	C	04/25/2019	10:49	-132.807	42.871	0	1200.30	0	3.0290	0	36.1630	8	28.820	0	1187.364	0	14.3	4	4.5	4	-1E+10	1	-1E+10	1	-1E+10	1	-1E+10	1	-1E+10	1	-1E+10	1
4901784	139	C	04/25/2019	10:49	-132.807	42.871	0	1205.30	0	3.0180	0	36.1660	8	28.823	0	1192.295	0	14.5	4	4.5	4	-1E+10	1	-1E+10	1	-1E+10	1	-1E+10	1	-1E+10	1	-1E+10	1
4901784	139	C	04/25/2019	10:49	-132.807	42.871	0	1210.10	0	3.0100	0	36.1680	8	28.825	0	1197.030	0	14.6	4	4.6	4	-1E+10	1	-1E+10	1	-1E+10	1	-1E+10	1	-1E+10	1	-1E+10	1
4901784	139	C	04/25/2019	10:49	-132.807	42.871	0	1215.10	0	3.0020	0	36.1700	8	28.828	0	1201.962	0	14.7	4	4.6	4	-1E+10	1	-1E+10	1	-1E+10	1	-1E+10	1	-1E+10	1	-1E+10	1
4901784	139	C	04/25/2019	10:49	-132.807	42.871	0	1220.10	0	3.0000	0	36.1700	8	28.828	0	1206.893	0	14.8	4	4.6	4	-1E+10	1	-1E+10	1	-1E+10	1	-1E+10	1	-1E+10	1	-1E+10	1
4901784	139	C	04/25/2019	10:49	-132.807	42.871	0	1225.00	0	2.9900	0	36.1730	8	28.831	0	1211.726	0	15.0	4	4.7	4	-1E+10	1	-1E+10	1	-1E+10	1	-1E+10	1	-1E+10	1	-1E+10	1
4901784	139	C	04/25/2019	10:49	-132.807	42.871	0	1230.00	0	2.9830	0	36.1740	8	28.833	0	1216.658	0	15.1	4	4.7	4	-1E+10	1	-1E+10	1	-1E+10	1	-1E+10	1	-1E+10	1	-1E+10	1
4901784	139	C	04/25/2019	10:49	-132.807	42.871	0	1234.60	0	2.9750	0	36.1760	8	28.835	0	1221.194	0	15.3	4	4.8	4	-1E+10	1	-1E+10	1	-1E+10	1	-1E+10	1	-1E+10	1	-1E+10	1
4901784	139	C	04/25/2019	10:49	-132.807	42.871	0	1240.10	0	2.9690	0	36.1770	8	28.837	0	1226.619	0	15.4	4	4.8	4	-1E+10	1	-1E+10	1	-1E+10	1	-1E+10	1	-1E+10	1	-1E+10	1
4901784	139	C	04/25/2019	10:49	-132.807	42.871	0	1245.60	0	2.9630	0	36.1790	8	28.839	0	1232.043	0	15.6	4	4.9	4	-1E+10	1	-1E+10	1	-1E+10	1	-1E+10	1	-1E+10	1	-1E+10	1
4901784	139	C	04/25/2019	10:49	-132.807	42.871	0	1250.10	0	2.9550	0	36.1810	8	28.841	0	1236.480	0	15.7	4	4.9	4	-1E+10	1	-1E+10	1	-1E+10	1	-1E+10	1	-1E+10	1	-1E+10	1
4901784	139	C	04/25/2019	10:49	-132.807	42.871	0	1254.60	0	2.9510	0	36.1820	8	28.843	0	1240.918	0	15.8	4	4.9	4	-1E+10	1	-1E+10	1	-1E+10	1	-1E+10	1	-1E+10	1	-1E+10	1
4901784	139	C	04/25/2019	10:49	-132.807	42.871	0	1260.10	0	2.9460	0	36.1830	8	28.844	0	1246.342	0	15.9	4	5.0	4	-1E+10	1	-1E+10	1	-1E+10	1	-1E+10	1	-1E+10	1	-1E+10	1
4901784	139	C	04/25/2019	10:49	-132.807	42.871	0	1265.60	0	2.9390	0	36.1840	8	28.845	0	1251.766	0	16.1	4	5.0	4	-1E+10	1	-1E+10	1	-1E+10	1	-1E+10	1	-1E+10	1	-1E+10	1
4901784	139	C	04/25/2019	10:49	-132.807	42.871	0	1270.20	0	2.9320	0	36.1860	8	28.848	0	1256.301	0	16.3	4	5.1	4	-1E+10	1	-1E+10	1	-1E+10	1	-1E+10	1	-1E+10	1	-1E+10	1
4901784	139	C	04/25/2019	10:49	-132.807	42.871	0	1275.50	0	2.9190	0	36.1890	8	28.851	0	1261.528	0	16.5	4	5.2	4	-1E+10	1	-1E+10	1	-1E+10	1	-1E+10	1	-1E+10	1	-1E+10	1
4901784	139	C	04/25/2019	10:49	-132.807	42.871	0	1280.50	0	2.9120	0	36.1900	8	28.853	0	1266.458	0	16.7	4	5.2	4	-1E+10	1	-1E+10	1	-1E+10	1	-1E+10	1	-1E+10	1	-1E+10	1
4901784	139	C	04/25/2019	10:49	-132.807	42.871	0	1285.30	0	2.9040	0	36.1910	8	28.854	0	1271.191	0	16.9	4	5.3	4	-1E+10	1	-1E+10	1	-1E+10	1	-1E+10	1	-1E+10	1	-1E+10	1
4901784	139	C	04/25/2019	10:49	-132.807	42.871	0	1290.00	0	2.8910	0	36.1940	8	28.858	0	1275.825	0	17.3	4	5.4	4	-1E+10	1	-1E+10	1	-1E+10	1	-1E+10	1	-1E+10	1	-1E+10	1
4901784	139	C	04/25/2019	10:49	-132.807	42.871	0	1294.90	0	2.8740	0	36.1970	8	28.862	0	1280.656	0	17.6	4	5.5	4	-1E+10	1	-1E+10	1	-1E+10	1	-1E+10	1	-1E+10	1	-1E+10	1
4901784	139	C	04/25/2019	10:49	-132.807	42.871	0	1299.70	0	2.8660	0	36.1990	8	28.864	0	1285.389	0	17.9	4	5.6	4	-1E+10	1	-1E+10	1	-1E+10	1	-1E+10	1	-1E+10	1	-1E+10	1
4901784	139	C	04/25/2019	10:49	-132.807	42.871	0	1304.70	0	2.8570	0	36.2010	8	28.867	0	1290.318	0	18.0	4	5.6	4	-1E+10	1	-1E+10	1	-1E+10	1	-1E+10	1	-1E+10	1	-1E+10	1
4901784	139	C	04/25/2019	10:49	-132.807	42.871	0	1309.70	0	2.8490	0	36.2030	8	28.869	0	1295.248	0	18.2	4	5.7	4	-1E+10	1	-1E+10	1	-1E+10	1	-1E+10	1	-1E+10	1	-1E+10	1
4901784	139	C	04/25/2019	10:49	-132.807	42.871	0	1314.60	0	2.8410	0	36.2040	8	28.871	0	1300.079	0	18.4	4	5.7	4	-1E+10	1	-1E+10	1	-1E+10	1	-1E+10	1	-1E+10	1	-1E+10	1
4901784	139	C	04/25/2019	10:49	-132.807	42.871	0	1319.70	0	2.8370	0	36.2060	8	28.873	0	1305.107	0	18.5	4	5.8	4	-1E+10	1	-1E+10	1	-1E+10	1	-1E+10	1	-1E+10	1	-1E+10	1
4901784	139	C	04/25/2019	10:49	-132.807	42.871	0	1324.70	0	2.8320	0	36.2060	8	28.873	0	1310.036	0	18.7	4	5.8	4	-1E+10	1	-1E+10	1	-1E+10	1	-1E+10	1	-1E+10	1	-1E+10	1
4901784	139	C	04/25/2019	10:49	-132.807	42.871	0	1329.80	0	2.8230	0	36.2080	8	28.876	0	1315.063	0	18.9	4	5.9	4	-1E+10	1	-1E+10	1	-1E+10	1	-1E+10	1	-1E+10	1	-1E+10	1
4901784	139	C	04/25/2019	10:49	-132.807	42.871	0	1335.00	0	2.8120	0	36.2100	8	28.878	0	1320.190	0	19.2	4	6.0	4	-1E+10	1	-1E+10	1	-1E+10	1	-1E+10	1	-1E+10	1	-1E+10	1
4901784	139	C	04/25/2019	10:49	-132.807	42.871	0	1340.10	0	2.8050	0	36.2120	8	28.881	0	1325.217	0	19.5	4	6.1	4	-1E+10	1	-1E+10	1	-1E+10	1	-1E+10	1	-1E+10	1	-1E+10	1
4901784	139	C	04/25/2019	10:49	-132.807	42.871	0	1345.30	0	2.7940	0	36.2140	8	28.883	0	1330.343	0	19.7	4	6.1	4	-1E+10	1	-1E+10	1	-1E+10	1	-1E+10	1	-1E+10	1	-1E+10	1
4901784	139	C	04/25/2019	10:49	-132.807	42.871	0	1350.50	0	2.7870	0	36.2150	8	28.885	0	1335.468	0	19.9	4	6.2	4	-1E+10	1	-1E+10	1	-1E+10	1	-1E+10	1	-1E+10	1	-1E+10	1
4901784	139	C	04/25/2019	10:49	-132.807	42.871	0	1354.90	0	2.7800	0	36.2170	8	28.887	0	1339.806	0	20.1	4	6.3	4	-1E+10	1	-1E+10	1	-1E+10	1	-1E+10	1	-1E+10	1	-1E+10	1
4901784	139	C	04/25/2019	10:49	-132.807	42.871	0	1359.30	0	2.7700	0	36.2180	8	28.889	0	1344.143	0	20.4	4	6.3	4	-1E+10	1	-1E+10	1	-1E+10	1	-1E+10	1	-1E+10	1	-1E+10	1
4901784	139	C	04/25/2019	10:49	-132.807	42.871	0	1364.70	0	2.7520	0	36.2210	8	28.893	0	1349.465	0	20.6	4	6.4	4	-1E+10	1	-1E+10	1	-1E+10	1	-1E+10	1	-1E+10	1	-1E+10	1
4901784	139	C	04/25/2019	10:49	-132.807	42.871	0	1370.20	0	2.7460	0	36.2220	8	28.894	0	1354.886	0	20.9	4	6.5	4	-1E+10	1	-1E+10	1	-1E+10	1	-1E+10	1	-1E+10	1	-1E+10	1
4901784	139	C	04/25/2019	10:49	-132.807	42.871	0	1375.70	0	2.7350	0	36.2240	8	28.897	0	1360.307	0	21.1	4	6.6	4	-1E+10	1	-1E+10	1	-1E+10	1	-1E+10	1	-1E+10	1	-1E+10	1
4901784	139	C	04/25/2019	10:49	-132.807	42.871	0	1380.20	0	2.7270	0	36.2260	8	28.899	0	1364.742	0	21.4	4	6.6	4	-1E+10	1	-1E+10	1	-1E+10	1	-1E+10	1	-1E+10	1	-1E+10	1
4901784	139	C	04/25/2019	10:49	-132.807	42.871	0	1384.80	0	2.7190	0	36.2280	8	28.902	0	1369.275	0	21.5	4	6.7	4	-1E+10	1	-1E+10	1	-1E+10	1	-1E+10	1	-1E+10	1	-1E+10	1
4901784	139	C	04/25/2019	10:49	-132.807	42.871	0	1390.30	0	2.7130	0	36.2290	8	28.903	0	1374.696	0	21.8	4	6.8	4	-1E+10	1	-1E+10	1	-1E+10	1	-1E+10	1	-1E+10	1	-1E+10	1
4901784	139	C	04/25/2019	10:49	-132.807	42.871	0	1394.90	0	2.7060	0	36.2300	8	28.905	0	1379.229	0	22.0	4	6.8	4	-1E+10	1	-1E+10	1	-1E+10	1	-1E+10	1	-1E+10	1	-1E+10	1
4901784	139	C	04/25/2019	10:49	-132.807	42.871	0	1400.20	0	2.6970	0	36.2320	8	28.907	0	1384.452	0	22.2	4	6.9	4	-1E+10	1	-1E+10	1	-1E+10	1	-1E+10	1	-1E+10	1	-1E+10	1
4901784	139	C	04/25/2019	10:49	-132.807	42.871	0	1405.30	0	2.6910	0	36.2330	8	28.908	0	1389.478	0	22.4	4	7.0	4	-1E+10	1	-1E+10	1	-1E+10	1	-1E+10	1	-1E+10	1	-1E+10	1
4901784	139	C	04/25/2019	10:49	-132.807	42.871	0	1410.20	0	2.6830	0	36.2350	8	28.911	0	1394.307	0	22.7	4	7.0	4	-1E+10	1	-1E+10	1	-1E+10	1	-1E+10	1	-1E+10	1	-1E+10	1
4901784	139	C	04/25/2019	10:49	-132.807	42.871	0	1415.10	0	2.6730	0	36.2370	8	28.913	0	1399.135	0	23.0	4	7.1	4	-1E+10	1	-1E+10	1	-1E+10	1	-1E+10	1	-1E+10	1	-1E+10	1
4901784	139	C	04/25/2019	10:49	-132.807	42.871	0	1420.00	0	2.6670	0	36.2380	8	28.915	0	1403.964	0	23.2	4	7.2	4	-1E+10	1	-1E+10	1	-1E+10	1	-1E+10	1	-1E+10	1	-1E+10	1
4901784	139	C	04/25/2019	10:49	-132.807	42.871	0	1425.00	0	2.6630	0	36.2390	8	28.916	0	1408.891	0	23.4	4	7.3	4	-1E+10	1	-1E+10	1	-1E+10	1	-1E+10	1	-1E+10	1	-1E+10	1
4901784	139	C	04/25/2019	10:49	-132.807	42.871	0	1430.00	0	2.6560	0	36.2410	8	28.918	0	1413.817	0	23.6	4	7.3	4	-1E+10	1	-1E+10	1	-1E+10	1	-1E+10	1	-1E+10	1	-1E+10	1
4901784	139	C	04/25/2019	10:49	-132.807	42.871	0	1434.90	0	2.6520	0	36.2420	8	28.919	0	1418.645	0	23.8	4	7.4	4	-1E+10	1	-1E+10	1	-1E+10	1	-1E+10	1	-1E+10	1	-1E+10	1
4901784	139	C	04/25/2019	10:49	-132.807	42.871	0	1439.90	0	2.6470	0	36.2430	8	28.921	0	1423.572	0	24.0	4	7.4	4	-1E+10	1	-1E+10	1	-1E+10	1	-1E+10	1	-1E+10	1	-1E+10	1
4901784	139	C	04/25/2019	10:49	-132.807	42.871	0	1444.90	0	2.6400	0	36.2440	8	28.922	0	1428.498	0	24.2	4	7.5	4	-1E+10	1	-1E+10	1	-1E+10	1	-1E+10	1	-1E+10	1	-1E+10	1
4901784	139	C	04/25/2019	10:49	-132.807	42.871	0	1449.90	0	2.6310	0	36.2460	8	28.925	0	1433.425	0	24.5	4	7.6	4	-1E+10	1	-1E+10	1	-1E+10	1	-1E+10	1	-1E+10	1	-1E+10	1
4901784	139	C	04/25/2019	10:49	-132.807	42.871	0	1455.00	0	2.6220	0	36.2480	8	28.927	0	1438.449	0	24.8	4	7.7	4	-1E+10	1	-1E+10	1	-1E+10	1	-1E+10	1	-1E+10	1	-1E+10	1
4901784	139	C	04/25/2019	10:49	-132.807	42.871	0	1460.10	0	2.6110	0	36.2500	8	28.930	0	1443.474	0	25.1	4	7.8	4	-1E+10	1	-1E+10	1	-1E+10	1	-1E+10	1	-1E+10	1	-1E+10	1
4901784	139	C	04/25/2019	10:49	-132.807	42.871	0	1465.20	0	2.6050	0	36.2510	8	28.931	0	1448.498	0	25.4	4	7.9	4	-1E+10	1	-1E+10	1	-1E+10	1	-1E+10	1	-1E+10	1	-1E+10	1
4901784	139	C	04/25/2019	10:49	-132.807	42.871	0	1470.40	0	2.5930	0	36.2530	8	28.934	0	1453.621	0	25.8	4	8.0	4	-1E+10	1	-1E+10	1	-1E+10	1	-1E+10	1	-1E+10	1	-1E+10	1
4901784	139	C	04/25/2019	10:49	-132.807	42.871	0	1475.70	0	2.5830	0	36.2540	8	28.935	0	1458.842	0	26.2	4	8.1	4	-1E+10	1	-1E+10	1	-1E+10	1	-1E+10	1	-1E+10	1	-1E+10	1
4901784	139	C	04/25/2019	10:49	-132.807	42.871	0	1480.00	0	2.5690	0	36.2570	8	28.939	0	1463.078	0	26.5	4	8.2	4	-1E+10	1	-1E+10	1	-1E+10	1	-1E+10	1	-1E+10	1	-1E+10	1
4901784	139	C	04/25/2019	10:49	-132.807	42.871	0	1484.40	0	2.5640	0	36.2580	8	28.940	0	1467.413	0	26.7	4	8.3	4	-1E+10	1	-1E+10	1	-1E+10	1	-1E+10	1	-1E+10	1	-1E+10	1
4901784	139	C	04/25/2019	10:49	-132.807	42.871	0	1489.50	0	2.5530	0	36.2590	8	28.942	0	1472.437	0	27.2	4	8.4	4	-1E+10	1	-1E+10	1	-1E+10	1	-1E+10	1	-1E+10	1	-1E+10	1
4901784	139	C	04/25/2019	10:49	-132.807	42.871	0	1494.80	0	2.5390	0	36.2610	8	28.945	0	1477.658	0	27.5	4	8.5	4	-1E+10	1	-1E+10	1	-1E+10	1	-1E+10	1	-1E+10	1	-1E+10	1
4901784	139	C	04/25/2019	10:49	-132.807	42.871	0	1500.10	0	2.5270	0	36.2640	8	28.949	0	1482.878	0	27.9	4	8.6	4	-1E+10	1	-1E+10	1	-1E+10	1	-1E+10	1	-1E+10	1	-1E+10	1
4901784	139	C	04/25/2019	10:49	-132.807	42.871	0	1505.50	0	2.5200	0	36.2650	8	28.950	0	1488.197	0	28.1	4	8.7	4	-1E+10	1	-1E+10	1	-1E+10	1	-1E+10	1	-1E+10	1	-1E+10	1
4901784	139	C	04/25/2019	10:49	-132.807	42.871	0	1510.00	0	2.5170	0	36.2660	8	28.951	0	1492.630	0	28.4	4	8.8	4	-1E+10	1	-1E+10	1	-1E+10	1	-1E+10	1	-1E+10	1	-1E+10	1
4901784	139	C	04/25/2019	10:49	-132.807	42.871	0	1514.50	0	2.5070	0	36.2670	8	28.953	0	1497.062	0	28.7	4	8.9	4	-1E+10	1	-1E+10	1	-1E+10	1	-1E+10	1	-1E+10	1	-1E+10	1
4901784	139	C	04/25/2019	10:49	-132.807	42.871	0	1519.90	0	2.4970	0	36.2700	8	28.956	0	1502.380	0	29.0	4	9.0	4	-1E+10	1	-1E+10	1	-1E+10	1	-1E+10	1	-1E+10	1	-1E+10	1
4901784	139	C	04/25/2019	10:49	-132.807	42.871	0	1525.50	0	2.4930	0	36.2700	8	28.957	0	1507.896	0	29.2	4	9.0	4	-1E+10	1	-1E+10	1	-1E+10	1	-1E+10	1	-1E+10	1	-1E+10	1
4901784	139	C	04/25/2019	10:49	-132.807	42.871	0	1530.00	0	2.4880	0	36.2710	8	28.958	0	1512.328	0	29.4	4	9.1	4	-1E+10	1	-1E+10	1	-1E+10	1	-1E+10	1	-1E+10	1	-1E+10	1
4901784	139	C	04/25/2019	10:49	-132.807	42.871	0	1534.70	0	2.4820	0	36.2720	8	28.959	0	1516.957	0	29.7	4	9.2	4	-1E+10	1	-1E+10	1	-1E+10	1	-1E+10	1	-1E+10	1	-1E+10	1
4901784	139	C	04/25/2019	10:49	-132.807	42.871	0	1540.20	0	2.4710	0	36.2740	8	28.962	0	1522.373	0	30.1	4	9.3	4	-1E+10	1	-1E+10	1	-1E+10	1	-1E+10	1	-1E+10	1	-1E+10	1
4901784	139	C	04/25/2019	10:49	-132.807	42.871	0	1544.70	0	2.4590	0	36.2760	8	28.964	0	1526.805	0	30.5	4	9.4	4	-1E+10	1	-1E+10	1	-1E+10	1	-1E+10	1	-1E+10	1	-1E+10	1
4901784	139	C	04/25/2019	10:49	-132.807	42.871	0	1549.30	0	2.4470	0	36.2780	8	28.967	0	1531.335	0	30.9	4	9.6	4	-1E+10	1	-1E+10	1	-1E+10	1	-1E+10	1	-1E+10	1	-1E+10	1
4901784	139	C	04/25/2019	10:49	-132.807	42.871	0	1554.80	0	2.4370	0	36.2800	8	28.970	0	1536.751	0	31.3	4	9.7	4	-1E+10	1	-1E+10	1	-1E+10	1	-1E+10	1	-1E+10	1	-1E+10	1
4901784	139	C	04/25/2019	10:49	-132.807	42.871	0	1560.10	0	2.4280	0	36.2810	8	28.971	0	1541.971	0	31.6	4	9.8	4	-1E+10	1	-1E+10	1	-1E+10	1	-1E+10	1	-1E+10	1	-1E+10	1
4901784	139	C	04/25/2019	10:49	-132.807	42.871	0	1565.50	0	2.4180	0	36.2830	8	28.974	0	1547.288	0	31.9	4	9.9	4	-1E+10	1	-1E+10	1	-1E+10	1	-1E+10	1	-1E+10	1	-1E+10	1
4901784	139	C	04/25/2019	10:49	-132.807	42.871	0	1570.30	0	2.4100	0	36.2850	8	28.976	0	1552.015	0	32.2	4	9.9	4	-1E+10	1	-1E+10	1	-1E+10	1	-1E+10	1	-1E+10	1	-1E+10	1
4901784	139	C	04/25/2019	10:49	-132.807	42.871	0	1575.20	0	2.4060	0	36.2850	8	28.976	0	1556.840	0	32.4	4	10.0	4	-1E+10	1	-1E+10	1	-1E+10	1	-1E+10	1	-1E+10	1	-1E+10	1
4901784	139	C	04/25/2019	10:49	-132.807	42.871	0	1580.10	0	2.3970	0	36.2870	8	28.979	0	1561.664	0	32.8	4	10.1	4	-1E+10	1	-1E+10	1	-1E+10	1	-1E+10	1	-1E+10	1	-1E+10	1
4901784	139	C	04/25/2019	10:49	-132.807	42.871	0	1585.00	0	2.3890	0	36.2880	8	28.980	0	1566.489	0	33.1	4	10.2	4	-1E+10	1	-1E+10	1	-1E+10	1	-1E+10	1	-1E+10	1	-1E+10	1
4901784	139	C	04/25/2019	10:49	-132.807	42.871	0	1589.90	0	2.3820	0	36.2900	8	28.983	0	1571.314	0	33.3	4	10.3	4	-1E+10	1	-1E+10	1	-1E+10	1	-1E+10	1	-1E+10	1	-1E+10	1
4901784	139	C	04/25/2019	10:49	-132.807	42.871	0	1594.70	0	2.3760	0	36.2910	8	28.984	0	1576.040	0	33.6	4	10.4	4	-1E+10	1	-1E+10	1	-1E+10	1	-1E+10	1	-1E+10	1	-1E+10	1
4901784	139	C	04/25/2019	10:49	-132.807	42.871	0	1599.60	0	2.3700	0	36.2920	8	28.985	0	1580.864	0	33.9	4	10.5	4	-1E+10	1	-1E+10	1	-1E+10	1	-1E+10	1	-1E+10	1	-1E+10	1
4901784	139	C	04/25/2019	10:49	-132.807	42.871	0	1604.60	0	2.3580	0	36.2940	8	28.988	0	1585.787	0	34.4	4	10.6	4	-1E+10	1	-1E+10	1	-1E+10	1	-1E+10	1	-1E+10	1	-1E+10	1
4901784	139	C	04/25/2019	10:49	-132.807	42.871	0	1609.70	0	2.3460	0	36.2960	8	28.991	0	1590.808	0	34.7	4	10.7	4	-1E+10	1	-1E+10	1	-1E+10	1	-1E+10	1	-1E+10	1	-1E+10	1
4901784	139	C	04/25/2019	10:49	-132.807	42.871	0	1614.80	0	2.3430	0	36.2970	8	28.992	0	1595.829	0	34.9	4	10.8	4	-1E+10	1	-1E+10	1	-1E+10	1	-1E+10	1	-1E+10	1	-1E+10	1
4901784	139	C	04/25/2019	10:49	-132.807	42.871	0	1619.90	0	2.3340	0	36.2990	8	28.994	0	1600.850	0	35.2	4	10.9	4	-1E+10	1	-1E+10	1	-1E+10	1	-1E+10	1	-1E+10	1	-1E+10	1
4901784	139	C	04/25/2019	10:49	-132.807	42.871	0	1625.10	0	2.3290	0	36.3000	8	28.996	0	1605.969	0	35.4	4	10.9	4	-1E+10	1	-1E+10	1	-1E+10	1	-1E+10	1	-1E+10	1	-1E+10	1
4901784	139	C	04/25/2019	10:49	-132.807	42.871	0	1630.20	0	2.3250	0	36.3010	8	28.997	0	1610.989	0	35.7	4	11.0	4	-1E+10	1	-1E+10	1	-1E+10	1	-1E+10	1	-1E+10	1	-1E+10	1
4901784	139	C	04/25/2019	10:49	-132.807	42.871	0	1635.40	0	2.3190	0	36.3010	8	28.997	0	1616.108	0	36.2	4	11.1	4	-1E+10	1	-1E+10	1	-1E+10	1	-1E+10	1	-1E+10	1	-1E+10	1
4901784	139	C	04/25/2019	10:49	-132.807	42.871	0	1640.60	0	2.3050	0	36.3040	8	29.001	0	1621.227	0	36.6	4	11.3	4	-1E+10	1	-1E+10	1	-1E+10	1	-1E+10	1	-1E+10	1	-1E+10	1
4901784	139	C	04/25/2019	10:49	-132.807	42.871	0	1644.90	0	2.2990	0	36.3050	8	29.002	0	1625.460	0	37.0	4	11.4	4	-1E+10	1	-1E+10	1	-1E+10	1	-1E+10	1	-1E+10	1	-1E+10	1
4901784	139	C	04/25/2019	10:49	-132.807	42.871	0	1649.30	0	2.2890	0	36.3060	8	29.004	0	1629.791	0	37.3	4	11.5	4	-1E+10	1	-1E+10	1	-1E+10	1	-1E+10	1	-1E+10	1	-1E+10	1
4901784	139	C	04/25/2019	10:49	-132.807	42.871	0	1654.50	0	2.2810	0	36.3080	8	29.006	0	1634.909	0	37.7	4	11.6	4	-1E+10	1	-1E+10	1	-1E+10	1	-1E+10	1	-1E+10	1	-1E+10	1
4901784	139	C	04/25/2019	10:49	-132.807	42.871	0	1659.80	0	2.2750	0	36.3090	8	29.008	0	1640.126	0	38.0	4	11.7	4	-1E+10	1	-1E+10	1	-1E+10	1	-1E+10	1	-1E+10	1	-1E+10	1
4901784	139	C	04/25/2019	10:49	-132.807	42.871	0	1665.00	0	2.2700	0	36.3110	8	29.010	0	1645.244	0	38.3	4	11.8	4	-1E+10	1	-1E+10	1	-1E+10	1	-1E+10	1	-1E+10	1	-1E+10	1
4901784	139	C	04/25/2019	10:49	-132.807	42.871	0	1670.30	0	2.2620	0	36.3120	8	29.011	0	1650.461	0	38.7	4	11.9	4	-1E+10	1	-1E+10	1	-1E+10	1	-1E+10	1	-1E+10	1	-1E+10	1
4901784	139	C	04/25/2019	10:49	-132.807	42.871	0	1675.60	0	2.2560	0	36.3130	8	29.013	0	1655.677	0	39.2	4	12.1	4	-1E+10	1	-1E+10	1	-1E+10	1	-1E+10	1	-1E+10	1	-1E+10	1
4901784	139	C	04/25/2019	10:49	-132.807	42.871	0	1680.00	0	2.2440	0	36.3150	8	29.015	0	1660.008	0	39.7	4	12.2	4	-1E+10	1	-1E+10	1	-1E+10	1	-1E+10	1	-1E+10	1	-1E+10	1
4901784	139	C	04/25/2019	10:49	-132.807	42.871	0	1684.50	0	2.2360	0	36.3160	8	29.017	0	1664.436	0	40.1	4	12.3	4	-1E+10	1	-1E+10	1	-1E+10	1	-1E+10	1	-1E+10	1	-1E+10	1
4901784	139	C	04/25/2019	10:49	-132.807	42.871	0	1689.80	0	2.2270	0	36.3180	8	29.019	0	1669.652	0	40.6	4	12.5	4	-1E+10	1	-1E+10	1	-1E+10	1	-1E+10	1	-1E+10	1	-1E+10	1
4901784	139	C	04/25/2019	10:49	-132.807	42.871	0	1695.10	0	2.2160	0	36.3200	8	29.022	0	1674.868	0	41.0	4	12.6	4	-1E+10	1	-1E+10	1	-1E+10	1	-1E+10	1	-1E+10	1	-1E+10	1
4901784	139	C	04/25/2019	10:49	-132.807	42.871	0	1700.50	0	2.2110	0	36.3210	8	29.023	0	1680.182	0	41.4	4	12.7	4	-1E+10	1	-1E+10	1	-1E+10	1	-1E+10	1	-1E+10	1	-1E+10	1
4901784	139	C	04/25/2019	10:49	-132.807	42.871	0	1705.00	0	2.2020	0	36.3230	8	29.025	0	1684.611	0	41.8	4	12.8	4	-1E+10	1	-1E+10	1	-1E+10	1	-1E+10	1	-1E+10	1	-1E+10	1
4901784	139	C	04/25/2019	10:49	-132.807	42.871	0	1709.50	0	2.1960	0	36.3240	8	29.027	0	1689.039	0	42.2	4	13.0	4	-1E+10	1	-1E+10	1	-1E+10	1	-1E+10	1	-1E+10	1	-1E+10	1
4901784	139	C	04/25/2019	10:49	-132.807	42.871	0	1715.00	0	2.1840	0	36.3250	8	29.028	0	1694.451	0	43.0	4	13.2	4	-1E+10	1	-1E+10	1	-1E+10	1	-1E+10	1	-1E+10	1	-1E+10	1
4901784	139	C	04/25/2019	10:49	-132.807	42.871	0	1720.40	0	2.1650	0	36.3290	8	29.033	0	1699.765	0	43.7	4	13.4	4	-1E+10	1	-1E+10	1	-1E+10	1	-1E+10	1	-1E+10	1	-1E+10	1
4901784	139	C	04/25/2019	10:49	-132.807	42.871	0	1725.00	0	2.1570	0	36.3300	8	29.035	0	1704.291	0	44.0	4	13.5	4	-1E+10	1	-1E+10	1	-1E+10	1	-1E+10	1	-1E+10	1	-1E+10	1
4901784	139	C	04/25/2019	10:49	-132.807	42.871	0	1729.60	0	2.1520	0	36.3310	8	29.036	0	1708.818	0	44.2	4	13.6	4	-1E+10	1	-1E+10	1	-1E+10	1	-1E+10	1	-1E+10	1	-1E+10	1
4901784	139	C	04/25/2019	10:49	-132.807	42.871	0	1735.20	0	2.1480	0	36.3320	8	29.037	0	1714.328	0	44.5	4	13.7	4	-1E+10	1	-1E+10	1	-1E+10	1	-1E+10	1	-1E+10	1	-1E+10	1
4901784	139	C	04/25/2019	10:49	-132.807	42.871	0	1739.80	0	2.1440	0	36.3330	8	29.038	0	1718.854	0	44.8	4	13.8	4	-1E+10	1	-1E+10	1	-1E+10	1	-1E+10	1	-1E+10	1	-1E+10	1
4901784	139	C	04/25/2019	10:49	-132.807	42.871	0	1745.10	0	2.1340	0	36.3350	8	29.041	0	1724.068	0	45.2	4	13.9	4	-1E+10	1	-1E+10	1	-1E+10	1	-1E+10	1	-1E+10	1	-1E+10	1
4901784	139	C	04/25/2019	10:49	-132.807	42.871	0	1750.20	0	2.1310	0	36.3360	8	29.042	0	1729.086	0	45.4	4	13.9	4	-1E+10	1	-1E+10	1	-1E+10	1	-1E+10	1	-1E+10	1	-1E+10	1
4901784	139	C	04/25/2019	10:49	-132.807	42.871	0	1755.10	0	2.1290	0	36.3360	8	29.042	0	1733.907	0	45.6	4	14.0	4	-1E+10	1	-1E+10	1	-1E+10	1	-1E+10	1	-1E+10	1	-1E+10	1
4901784	139	C	04/25/2019	10:49	-132.807	42.871	0	1759.90	0	2.1240	0	36.3370	8	29.043	0	1738.629	0	45.9	4	14.1	4	-1E+10	1	-1E+10	1	-1E+10	1	-1E+10	1	-1E+10	1	-1E+10	1
4901784	139	C	04/25/2019	10:49	-132.807	42.871	0	1764.80	0	2.1200	0	36.3380	8	29.045	0	1743.450	0	46.3	4	14.2	4	-1E+10	1	-1E+10	1	-1E+10	1	-1E+10	1	-1E+10	1	-1E+10	1
4901784	139	C	04/25/2019	10:49	-132.807	42.871	0	1769.70	0	2.1110	0	36.3400	8	29.047	0	1748.271	0	46.6	4	14.3	4	-1E+10	1	-1E+10	1	-1E+10	1	-1E+10	1	-1E+10	1	-1E+10	1
4901784	139	C	04/25/2019	10:49	-132.807	42.871	0	1774.50	0	2.1060	0	36.3410	8	29.048	0	1752.993	0	46.9	4	14.4	4	-1E+10	1	-1E+10	1	-1E+10	1	-1E+10	1	-1E+10	1	-1E+10	1
4901784	139	C	04/25/2019	10:49	-132.807	42.871	0	1779.40	0	2.1030	0	36.3420	8	29.049	0	1757.813	0	47.1	4	14.4	4	-1E+10	1	-1E+10	1	-1E+10	1	-1E+10	1	-1E+10	1	-1E+10	1
4901784	139	C	04/25/2019	10:49	-132.807	42.871	0	1784.40	0	2.1000	0	36.3420	8	29.050	0	1762.732	0	47.5	4	14.6	4	-1E+10	1	-1E+10	1	-1E+10	1	-1E+10	1	-1E+10	1	-1E+10	1
4901784	139	C	04/25/2019	10:49	-132.807	42.871	0	1789.30	0	2.0900	0	36.3440	8	29.052	0	1767.552	0	48.1	4	14.7	4	-1E+10	1	-1E+10	1	-1E+10	1	-1E+10	1	-1E+10	1	-1E+10	1
4901784	139	C	04/25/2019	10:49	-132.807	42.871	0	1794.30	0	2.0820	0	36.3450	8	29.054	0	1772.470	0	48.6	4	14.9	4	-1E+10	1	-1E+10	1	-1E+10	1	-1E+10	1	-1E+10	1	-1E+10	1
4901784	139	C	04/25/2019	10:49	-132.807	42.871	0	1799.40	0	2.0690	0	36.3480	8	29.057	0	1777.487	0	49.2	4	15.1	4	-1E+10	1	-1E+10	1	-1E+10	1	-1E+10	1	-1E+10	1	-1E+10	1
4901784	139	C	04/25/2019	10:49	-132.807	42.871	0	1804.40	0	2.0600	0	36.3500	8	29.059	0	1782.405	0	49.6	4	15.2	4	-1E+10	1	-1E+10	1	-1E+10	1	-1E+10	1	-1E+10	1	-1E+10	1
4901784	139	C	04/25/2019	10:49	-132.807	42.871	0	1809.50	0	2.0570	0	36.3510	8	29.061	0	1787.421	0	49.8	4	15.3	4	-1E+10	1	-1E+10	1	-1E+10	1	-1E+10	1	-1E+10	1	-1E+10	1
4901784	139	C	04/25/2019	10:49	-132.807	42.871	0	1814.60	0	2.0540	0	36.3520	8	29.062	0	1792.438	0	50.1	4	15.3	4	-1E+10	1	-1E+10	1	-1E+10	1	-1E+10	1	-1E+10	1	-1E+10	1
4901784	139	C	04/25/2019	10:49	-132.807	42.871	0	1819.80	0	2.0500	0	36.3530	8	29.063	0	1797.552	0	50.5	4	15.5	4	-1E+10	1	-1E+10	1	-1E+10	1	-1E+10	1	-1E+10	1	-1E+10	1
4901784	139	C	04/25/2019	10:49	-132.807	42.871	0	1824.90	0	2.0440	0	36.3540	8	29.064	0	1802.568	0	50.9	4	15.6	4	-1E+10	1	-1E+10	1	-1E+10	1	-1E+10	1	-1E+10	1	-1E+10	1
4901784	139	C	04/25/2019	10:49	-132.807	42.871	0	1830.10	0	2.0360	0	36.3550	8	29.066	0	1807.682	0	51.4	4	15.7	4	-1E+10	1	-1E+10	1	-1E+10	1	-1E+10	1	-1E+10	1	-1E+10	1
4901784	139	C	04/25/2019	10:49	-132.807	42.871	0	1835.40	0	2.0290	0	36.3570	8	29.068	0	1812.895	0	51.8	4	15.8	4	-1E+10	1	-1E+10	1	-1E+10	1	-1E+10	1	-1E+10	1	-1E+10	1
4901784	139	C	04/25/2019	10:49	-132.807	42.871	0	1840.70	0	2.0240	0	36.3580	8	29.069	0	1818.107	0	52.0	4	15.9	4	-1E+10	1	-1E+10	1	-1E+10	1	-1E+10	1	-1E+10	1	-1E+10	1
4901784	139	C	04/25/2019	10:49	-132.807	42.871	0	1845.10	0	2.0230	0	36.3590	8	29.070	0	1822.434	0	52.2	4	16.0	4	-1E+10	1	-1E+10	1	-1E+10	1	-1E+10	1	-1E+10	1	-1E+10	1
4901784	139	C	04/25/2019	10:49	-132.807	42.871	0	1849.60	0	2.0190	0	36.3600	8	29.071	0	1826.860	0	52.5	4	16.1	4	-1E+10	1	-1E+10	1	-1E+10	1	-1E+10	1	-1E+10	1	-1E+10	1
4901784	139	C	04/25/2019	10:49	-132.807	42.871	0	1854.90	0	2.0130	0	36.3610	8	29.072	0	1832.072	0	52.9	4	16.2	4	-1E+10	1	-1E+10	1	-1E+10	1	-1E+10	1	-1E+10	1	-1E+10	1
4901784	139	C	04/25/2019	10:49	-132.807	42.871	0	1860.30	0	2.0080	0	36.3620	8	29.074	0	1837.382	0	53.2	4	16.3	4	-1E+10	1	-1E+10	1	-1E+10	1	-1E+10	1	-1E+10	1	-1E+10	1
4901784	139	C	04/25/2019	10:49	-132.807	42.871	0	1865.70	0	2.0050	0	36.3630	8	29.075	0	1842.692	0	53.4	4	16.3	4	-1E+10	1	-1E+10	1	-1E+10	1	-1E+10	1	-1E+10	1	-1E+10	1
4901784	139	C	04/25/2019	10:49	-132.807	42.871	0	1870.40	0	2.0010	0	36.3640	8	29.076	0	1847.314	0	53.8	4	16.4	4	-1E+10	1	-1E+10	1	-1E+10	1	-1E+10	1	-1E+10	1	-1E+10	1
4901784	139	C	04/25/2019	10:49	-132.807	42.871	0	1874.80	0	1.9980	0	36.3650	8	29.077	0	1851.640	0	54.1	4	16.5	4	-1E+10	1	-1E+10	1	-1E+10	1	-1E+10	1	-1E+10	1	-1E+10	1
4901784	139	C	04/25/2019	10:49	-132.807	42.871	0	1879.60	0	1.9910	0	36.3660	8	29.078	0	1856.360	0	54.5	4	16.7	4	-1E+10	1	-1E+10	1	-1E+10	1	-1E+10	1	-1E+10	1	-1E+10	1
4901784	139	C	04/25/2019	10:49	-132.807	42.871	0	1884.40	0	1.9870	0	36.3670	8	29.080	0	1861.080	0	54.8	4	16.7	4	-1E+10	1	-1E+10	1	-1E+10	1	-1E+10	1	-1E+10	1	-1E+10	1
4901784	139	C	04/25/2019	10:49	-132.807	42.871	0	1890.00	0	1.9840	0	36.3690	8	29.082	0	1866.586	0	55.1	4	16.8	4	-1E+10	1	-1E+10	1	-1E+10	1	-1E+10	1	-1E+10	1	-1E+10	1
4901784	139	C	04/25/2019	10:49	-132.807	42.871	0	1895.70	0	1.9800	0	36.3700	8	29.083	0	1872.190	0	55.4	4	16.9	4	-1E+10	1	-1E+10	1	-1E+10	1	-1E+10	1	-1E+10	1	-1E+10	1
4901784	139	C	04/25/2019	10:49	-132.807	42.871	0	1900.60	0	1.9770	0	36.3710	8	29.084	0	1877.008	0	55.7	4	17.0	4	-1E+10	1	-1E+10	1	-1E+10	1	-1E+10	1	-1E+10	1	-1E+10	1
4901784	139	C	04/25/2019	10:49	-132.807	42.871	0	1905.50	0	1.9740	0	36.3720	8	29.085	0	1881.825	0	56.1	4	17.1	4	-1E+10	1	-1E+10	1	-1E+10	1	-1E+10	1	-1E+10	1	-1E+10	1
4901784	139	C	04/25/2019	10:49	-132.807	42.871	0	1910.50	0	1.9690	0	36.3730	8	29.086	0	1886.741	0	56.4	4	17.2	4	-1E+10	1	-1E+10	1	-1E+10	1	-1E+10	1	-1E+10	1	-1E+10	1
4901784	139	C	04/25/2019	10:49	-132.807	42.871	0	1915.50	0	1.9640	0	36.3740	8	29.087	0	1891.657	0	56.8	4	17.3	4	-1E+10	1	-1E+10	1	-1E+10	1	-1E+10	1	-1E+10	1	-1E+10	1
4901784	139	C	04/25/2019	10:49	-132.807	42.871	0	1920.60	0	1.9600	0	36.3750	8	29.088	0	1896.671	0	57.1	4	17.4	4	-1E+10	1	-1E+10	1	-1E+10	1	-1E+10	1	-1E+10	1	-1E+10	1
4901784	139	C	04/25/2019	10:49	-132.807	42.871	0	1925.70	0	1.9570	0	36.3760	8	29.090	0	1901.684	0	57.4	4	17.5	4	-1E+10	1	-1E+10	1	-1E+10	1	-1E+10	1	-1E+10	1	-1E+10	1
4901784	139	C	04/25/2019	10:49	-132.807	42.871	0	1930.80	0	1.9550	0	36.3770	8	29.091	0	1906.698	0	57.7	4	17.6	4	-1E+10	1	-1E+10	1	-1E+10	1	-1E+10	1	-1E+10	1	-1E+10	1
4901784	139	C	04/25/2019	10:49	-132.807	42.871	0	1935.00	0	1.9500	0	36.3790	8	29.093	0	1910.827	0	58.1	4	17.7	4	-1E+10	1	-1E+10	1	-1E+10	1	-1E+10	1	-1E+10	1	-1E+10	1
4901784	139	C	04/25/2019	10:49	-132.807	42.871	0	1939.30	0	1.9440	0	36.3790	8	29.093	0	1915.054	0	58.3	4	17.8	4	-1E+10	1	-1E+10	1	-1E+10	1	-1E+10	1	-1E+10	1	-1E+10	1
4901784	139	C	04/25/2019	10:49	-132.807	42.871	0	1944.50	0	1.9420	0	36.3800	8	29.094	0	1920.165	0	58.4	4	17.8	4	-1E+10	1	-1E+10	1	-1E+10	1	-1E+10	1	-1E+10	1	-1E+10	1
4901784	139	C	04/25/2019	10:49	-132.807	42.871	0	1949.60	0	1.9390	0	36.3800	8	29.094	0	1925.178	0	58.6	4	17.9	4	-1E+10	1	-1E+10	1	-1E+10	1	-1E+10	1	-1E+10	1	-1E+10	1
4901784	139	C	04/25/2019	10:49	-132.807	42.871	0	1954.90	0	1.9360	0	36.3810	8	29.095	0	1930.388	0	59.0	4	18.0	4	-1E+10	1	-1E+10	1	-1E+10	1	-1E+10	1	-1E+10	1	-1E+10	1
4901784	139	C	04/25/2019	10:49	-132.807	42.871	0	1960.20	0	1.9320	0	36.3820	8	29.097	0	1935.597	0	59.3	4	18.1	4	-1E+10	1	-1E+10	1	-1E+10	1	-1E+10	1	-1E+10	1	-1E+10	1
4901784	139	C	04/25/2019	10:49	-132.807	42.871	0	1965.50	0	1.9270	0	36.3820	8	29.097	0	1940.807	0	59.4	4	18.1	4	-1E+10	1	-1E+10	1	-1E+10	1	-1E+10	1	-1E+10	1	-1E+10	1
4901784	139	C	04/25/2019	10:49	-132.807	42.871	0	1970.50	0	1.9210	0	36.3830	8	29.098	0	1945.721	0	59.7	4	18.2	4	-1E+10	1	-1E+10	1	-1E+10	1	-1E+10	1	-1E+10	1	-1E+10	1
4901784	139	C	04/25/2019	10:49	-132.807	42.871	0	1974.60	0	1.9190	0	36.3840	8	29.099	0	1949.751	0	59.8	4	18.2	4	-1E+10	1	-1E+10	1	-1E+10	1	-1E+10	1	-1E+10	1	-1E+10	1
4901784	139	C	04/25/2019	10:49	-132.807	42.871	0	1980.10	0	1.9180	0	36.3850	8	29.100	0	1955.156	0	59.9	4	18.3	4	-1E+10	1	-1E+10	1	-1E+10	1	-1E+10	1	-1E+10	1	-1E+10	1
4901784	139	C	04/25/2019	10:49	-132.807	42.871	0	1985.60	0	1.9170	0	36.3850	8	29.100	0	1960.562	0	60.0	4	18.3	4	-1E+10	1	-1E+10	1	-1E+10	1	-1E+10	1	-1E+10	1	-1E+10	1
4901784	139	C	04/25/2019	10:49	-132.807	42.871	0	1990.30	0	1.9160	0	36.3850	8	29.101	0	1965.181	0	60.3	4	18.4	4	-1E+10	1	-1E+10	1	-1E+10	1	-1E+10	1	-1E+10	1	-1E+10	1
4901784	139	C	04/25/2019	10:49	-132.807	42.871	0	1995.10	0	1.9090	0	36.3860	8	29.102	0	1969.898	0	60.5	4	18.5	4	-1E+10	1	-1E+10	1	-1E+10	1	-1E+10	1	-1E+10	1	-1E+10	1
4901784	139	C	04/25/2019	10:49	-132.807	42.871	0	2000.20	0	1.9070	0	36.3870	8	29.103	0	1974.910	0	60.7	4	18.5	4	-1E+10	1	-1E+10	1	-1E+10	1	-1E+10	1	-1E+10	1	-1E+10	1
4901784	139	C	04/25/2019	10:49	-132.807	42.871	0	2005.20	0	1.9050	0	36.3880	8	29.104	0	1979.823	0	61.0	4	18.6	4	-1E+10	1	-1E+10	1	-1E+10	1	-1E+10	1	-1E+10	1	-1E+10	1
4901784	139	C	04/25/2019	10:49	-132.807	42.871	0	2010.20	0	1.9030	0	36.3890	8	29.105	0	1984.737	0	61.0	4	18.6	4	-1E+10	1	-1E+10	1	-1E+10	1	-1E+10	1	-1E+10	1	-1E+10	1
4901784	139	C	04/25/2019	10:49	-132.807	42.871	0	2012.90	0	1.9050	0	36.3890	8	29.105	0	1987.390	0	60.1	4	18.3	4	-1E+10	1	-1E+10	1	-1E+10	1	-1E+10	1	-1E+10	1	-1E+10	1
4901784	139	C	04/25/2019	10:49	-132.807	42.871	0																										
4901784	140	C	05/05/2019	10:49	-132.813	42.837	0	2.70	0	11.4570	0	33.9700	8	25.891	0	2.679	0	263.5	4	98.2	4	-1E+10	1	-1E+10	1	-1E+10	1	-1E+10	1	-1E+10	1	-1E+10	1
4901784	140	C	05/05/2019	10:49	-132.813	42.837	0	4.30	0	11.4570	0	33.9700	8	25.891	0	4.266	0	263.4	4	98.2	4	-1E+10	1	-1E+10	1	-1E+10	1	-1E+10	1	-1E+10	1	-1E+10	1
4901784	140	C	05/05/2019	10:49	-132.813	42.837	0	6.20	0	11.4560	0	33.9720	8	25.893	0	6.151	0	263.4	4	98.2	4	-1E+10	1	-1E+10	1	-1E+10	1	-1E+10	1	-1E+10	1	-1E+10	1
4901784	140	C	05/05/2019	10:49	-132.813	42.837	0	7.90	0	11.4590	0	33.9720	8	25.892	0	7.837	0	263.3	4	98.2	4	-1E+10	1	-1E+10	1	-1E+10	1	-1E+10	1	-1E+10	1	-1E+10	1
4901784	140	C	05/05/2019	10:49	-132.813	42.837	0	9.50	0	11.4610	0	33.9720	8	25.892	0	9.425	0	263.2	4	98.1	4	-1E+10	1	-1E+10	1	-1E+10	1	-1E+10	1	-1E+10	1	-1E+10	1
4901784	140	C	05/05/2019	10:49	-132.813	42.837	0	11.00	0	11.4610	0	33.9730	8	25.893	0	10.913	0	263.1	4	98.1	4	-1E+10	1	-1E+10	1	-1E+10	1	-1E+10	1	-1E+10	1	-1E+10	1
4901784	140	C	05/05/2019	10:49	-132.813	42.837	0	12.50	0	11.4610	0	33.9740	8	25.894	0	12.401	0	263.2	4	98.2	4	-1E+10	1	-1E+10	1	-1E+10	1	-1E+10	1	-1E+10	1	-1E+10	1
4901784	140	C	05/05/2019	10:49	-132.813	42.837	0	14.10	0	11.4610	0	33.9750	8	25.894	0	13.988	0	263.1	4	98.1	4	-1E+10	1	-1E+10	1	-1E+10	1	-1E+10	1	-1E+10	1	-1E+10	1
4901784	140	C	05/05/2019	10:49	-132.813	42.837	0	15.70	0	11.4610	0	33.9750	8	25.894	0	15.575	0	263.3	4	98.2	4	-1E+10	1	-1E+10	1	-1E+10	1	-1E+10	1	-1E+10	1	-1E+10	1
4901784	140	C	05/05/2019	10:49	-132.813	42.837	0	17.40	0	11.4610	0	33.9760	8	25.895	0	17.261	0	262.9	4	98.0	4	-1E+10	1	-1E+10	1	-1E+10	1	-1E+10	1	-1E+10	1	-1E+10	1
4901784	140	C	05/05/2019	10:49	-132.813	42.837	0	19.10	0	11.4630	0	33.9760	8	25.895	0	18.948	0	263.0	4	98.1	4	-1E+10	1	-1E+10	1	-1E+10	1	-1E+10	1	-1E+10	1	-1E+10	1
4901784	140	C	05/05/2019	10:49	-132.813	42.837	0	21.00	0	11.4620	0	33.9760	8	25.895	0	20.833	0	263.0	4	98.1	4	-1E+10	1	-1E+10	1	-1E+10	1	-1E+10	1	-1E+10	1	-1E+10	1
4901784	140	C	05/05/2019	10:49	-132.813	42.837	0	22.90	0	11.4640	0	33.9760	8	25.895	0	22.717	0	262.8	4	98.0	4	-1E+10	1	-1E+10	1	-1E+10	1	-1E+10	1	-1E+10	1	-1E+10	1
4901784	140	C	05/05/2019	10:49	-132.813	42.837	0	24.80	0	11.4580	0	33.9760	8	25.896	0	24.602	0	262.9	4	98.0	4	-1E+10	1	-1E+10	1	-1E+10	1	-1E+10	1	-1E+10	1	-1E+10	1
4901784	140	C	05/05/2019	10:49	-132.813	42.837	0	27.20	0	11.4630	0	33.9750	8	25.894	0	26.983	0	262.7	4	98.0	4	-1E+10	1	-1E+10	1	-1E+10	1	-1E+10	1	-1E+10	1	-1E+10	1
4901784	140	C	05/05/2019	10:49	-132.813	42.837	0	29.10	0	11.4630	0	33.9730	8	25.893	0	28.868	0	262.5	4	97.9	4	-1E+10	1	-1E+10	1	-1E+10	1	-1E+10	1	-1E+10	1	-1E+10	1
4901784	140	C	05/05/2019	10:49	-132.813	42.837	0	30.60	0	11.4600	0	33.9700	8	25.891	0	30.355	0	262.4	4	97.8	4	-1E+10	1	-1E+10	1	-1E+10	1	-1E+10	1	-1E+10	1	-1E+10	1
4901784	140	C	05/05/2019	10:49	-132.813	42.837	0	32.10	0	11.4600	0	33.9630	8	25.886	0	31.843	0	262.2	4	97.8	4	-1E+10	1	-1E+10	1	-1E+10	1	-1E+10	1	-1E+10	1	-1E+10	1
4901784	140	C	05/05/2019	10:49	-132.813	42.837	0	33.60	0	11.4120	0	33.9490	8	25.884	0	33.331	0	262.3	4	97.7	4	-1E+10	1	-1E+10	1	-1E+10	1	-1E+10	1	-1E+10	1	-1E+10	1
4901784	140	C	05/05/2019	10:49	-132.813	42.837	0	35.20	0	11.0680	0	33.9740	8	25.966	0	34.918	0	263.0	4	97.2	4	-1E+10	1	-1E+10	1	-1E+10	1	-1E+10	1	-1E+10	1	-1E+10	1
4901784	140	C	05/05/2019	10:49	-132.813	42.837	0	36.80	0	10.8000	0	33.9300	8	25.979	0	36.505	0	265.1	4	97.5	4	-1E+10	1	-1E+10	1	-1E+10	1	-1E+10	1	-1E+10	1	-1E+10	1
4901784	140	C	05/05/2019	10:49	-132.813	42.837	0	38.30	0	10.7120	0	33.9300	8	25.995	0	37.993	0	265.6	4	97.5	4	-1E+10	1	-1E+10	1	-1E+10	1	-1E+10	1	-1E+10	1	-1E+10	1
4901784	140	C	05/05/2019	10:49	-132.813	42.837	0	39.90	0	10.6480	0	33.9220	8	26.000	0	39.580	0	265.8	4	97.4	4	-1E+10	1	-1E+10	1	-1E+10	1	-1E+10	1	-1E+10	1	-1E+10	1
4901784	140	C	05/05/2019	10:49	-132.813	42.837	0	41.40	0	10.5810	0	33.9200	8	26.010	0	41.068	0	265.5	4	97.1	4	-1E+10	1	-1E+10	1	-1E+10	1	-1E+10	1	-1E+10	1	-1E+10	1
4901784	140	C	05/05/2019	10:49	-132.813	42.837	0	43.00	0	10.5010	0	33.9230	8	26.026	0	42.655	0	265.7	4	97.0	4	-1E+10	1	-1E+10	1	-1E+10	1	-1E+10	1	-1E+10	1	-1E+10	1
4901784	140	C	05/05/2019	10:49	-132.813	42.837	0	44.70	0	10.4670	0	33.9240	8	26.033	0	44.341	0	265.5	4	96.9	4	-1E+10	1	-1E+10	1	-1E+10	1	-1E+10	1	-1E+10	1	-1E+10	1
4901784	140	C	05/05/2019	10:49	-132.813	42.837	0	46.40	0	10.4450	0	33.9240	8	26.037	0	46.027	0	265.8	4	97.0	4	-1E+10	1	-1E+10	1	-1E+10	1	-1E+10	1	-1E+10	1	-1E+10	1
4901784	140	C	05/05/2019	10:49	-132.813	42.837	0	48.10	0	10.4230	0	33.9230	8	26.040	0	47.714	0	265.7	4	96.9	4	-1E+10	1	-1E+10	1	-1E+10	1	-1E+10	1	-1E+10	1	-1E+10	1
4901784	140	C	05/05/2019	10:49	-132.813	42.837	0	49.90	0	10.3990	0	33.9230	8	26.044	0	49.499	0	265.7	4	96.8	4	-1E+10	1	-1E+10	1	-1E+10	1	-1E+10	1	-1E+10	1	-1E+10	1
4901784	140	C	05/05/2019	10:49	-132.813	42.837	0	51.50	0	10.3590	0	33.9200	8	26.049	0	51.086	0	265.9	4	96.8	4	-1E+10	1	-1E+10	1	-1E+10	1	-1E+10	1	-1E+10	1	-1E+10	1
4901784	140	C	05/05/2019	10:49	-132.813	42.837	0	53.20	0	10.3370	0	33.9200	8	26.053	0	52.772	0	265.8	4	96.7	4	-1E+10	1	-1E+10	1	-1E+10	1	-1E+10	1	-1E+10	1	-1E+10	1
4901784	140	C	05/05/2019	10:49	-132.813	42.837	0	54.90	0	10.3390	0	33.9210	8	26.053	0	54.458	0	265.3	4	96.6	4	-1E+10	1	-1E+10	1	-1E+10	1	-1E+10	1	-1E+10	1	-1E+10	1
4901784	140	C	05/05/2019	10:49	-132.813	42.837	0	56.60	0	10.3190	0	33.9200	8	26.056	0	56.144	0	264.9	4	96.4	4	-1E+10	1	-1E+10	1	-1E+10	1	-1E+10	1	-1E+10	1	-1E+10	1
4901784	140	C	05/05/2019	10:49	-132.813	42.837	0	58.30	0	10.3080	0	33.9220	8	26.059	0	57.830	0	264.2	4	96.1	4	-1E+10	1	-1E+10	1	-1E+10	1	-1E+10	1	-1E+10	1	-1E+10	1
4901784	140	C	05/05/2019	10:49	-132.813	42.837	0	60.00	0	10.2730	0	33.9230	8	26.066	0	59.516	0	263.7	4	95.9	4	-1E+10	1	-1E+10	1	-1E+10	1	-1E+10	1	-1E+10	1	-1E+10	1
4901784	140	C	05/05/2019	10:49	-132.813	42.837	0	61.70	0	10.2670	0	33.9300	8	26.073	0	61.202	0	263.0	4	95.6	4	-1E+10	1	-1E+10	1	-1E+10	1	-1E+10	1	-1E+10	1	-1E+10	1
4901784	140	C	05/05/2019	10:49	-132.813	42.837	0	63.30	0	10.2860	0	33.9350	8	26.073	0	62.789	0	262.3	4	95.4	4	-1E+10	1	-1E+10	1	-1E+10	1	-1E+10	1	-1E+10	1	-1E+10	1
4901784	140	C	05/05/2019	10:49	-132.813	42.837	0	65.00	0	10.3600	0	33.9600	8	26.080	0	64.475	0	261.1	4	95.1	4	-1E+10	1	-1E+10	1	-1E+10	1	-1E+10	1	-1E+10	1	-1E+10	1
4901784	140	C	05/05/2019	10:49	-132.813	42.837	0	66.60	0	10.2880	0	33.9530	8	26.087	0	66.062	0	261.3	4	95.0	4	-1E+10	1	-1E+10	1	-1E+10	1	-1E+10	1	-1E+10	1	-1E+10	1
4901784	140	C	05/05/2019	10:49	-132.813	42.837	0	68.30	0	10.2170	0	33.9430	8	26.091	0	67.748	0	261.4	4	94.9	4	-1E+10	1	-1E+10	1	-1E+10	1	-1E+10	1	-1E+10	1	-1E+10	1
4901784	140	C	05/05/2019	10:49	-132.813	42.837	0	69.90	0	10.1620	0	33.9420	8	26.100	0	69.335	0	261.7	4	94.9	4	-1E+10	1	-1E+10	1	-1E+10	1	-1E+10	1	-1E+10	1	-1E+10	1
4901784	140	C	05/05/2019	10:49	-132.813	42.837	0	71.50	0	10.1360	0	33.9370	8	26.101	0	70.921	0	261.3	4	94.7	4	-1E+10	1	-1E+10	1	-1E+10	1	-1E+10	1	-1E+10	1	-1E+10	1
4901784	140	C	05/05/2019	10:49	-132.813	42.837	0	73.20	0	10.0930	0	33.9360	8	26.107	0	72.607	0	261.0	4	94.5	4	-1E+10	1	-1E+10	1	-1E+10	1	-1E+10	1	-1E+10	1	-1E+10	1
4901784	140	C	05/05/2019	10:49	-132.813	42.837	0	74.80	0	10.0640	0	33.9380	8	26.114	0	74.194	0	260.9	4	94.4	4	-1E+10	1	-1E+10	1	-1E+10	1	-1E+10	1	-1E+10	1	-1E+10	1
4901784	140	C	05/05/2019	10:49	-132.813	42.837	0	76.50	0	10.0480	0	33.9370	8	26.116	0	75.880	0	260.8	4	94.4	4	-1E+10	1	-1E+10	1	-1E+10	1	-1E+10	1	-1E+10	1	-1E+10	1
4901784	140	C	05/05/2019	10:49	-132.813	42.837	0	78.10	0	10.0370	0	33.9370	8	26.118	0	77.467	0	260.6	4	94.2	4	-1E+10	1	-1E+10	1	-1E+10	1	-1E+10	1	-1E+10	1	-1E+10	1
4901784	140	C	05/05/2019	10:49	-132.813	42.837	0	79.80	0	9.9910	0	33.9400	8	26.128	0	79.153	0	260.5	4	94.1	4	-1E+10	1	-1E+10	1	-1E+10	1	-1E+10	1	-1E+10	1	-1E+10	1
4901784	140	C	05/05/2019	10:49	-132.813	42.837	0	81.30	0	9.9830	0	33.9400	8	26.129	0	80.640	0	260.5	4	94.1	4	-1E+10	1	-1E+10	1	-1E+10	1	-1E+10	1	-1E+10	1	-1E+10	1
4901784	140	C	05/05/2019	10:49	-132.813	42.837	0	83.00	0	9.9680	0	33.9400	8	26.132	0	82.326	0	260.4	4	94.0	4	-1E+10	1	-1E+10	1	-1E+10	1	-1E+10	1	-1E+10	1	-1E+10	1
4901784	140	C	05/05/2019	10:49	-132.813	42.837	0	84.70	0	9.9560	0	33.9390	8	26.133	0	84.012	0	260.1	4	93.9	4	-1E+10	1	-1E+10	1	-1E+10	1	-1E+10	1	-1E+10	1	-1E+10	1
4901784	140	C	05/05/2019	10:49	-132.813	42.837	0	86.30	0	9.9020	0	33.9410	8	26.144	0	85.599	0	260.3	4	93.9	4	-1E+10	1	-1E+10	1	-1E+10	1	-1E+10	1	-1E+10	1	-1E+10	1
4901784	140	C	05/05/2019	10:49	-132.813	42.837	0	88.00	0	9.8740	0	33.9420	8	26.149	0	87.284	0	260.2	4	93.8	4	-1E+10	1	-1E+10	1	-1E+10	1	-1E+10	1	-1E+10	1	-1E+10	1
4901784	140	C	05/05/2019	10:49	-132.813	42.837	0	89.70	0	9.8540	0	33.9430	8	26.153	0	88.970	0	260.3	4	93.8	4	-1E+10	1	-1E+10	1	-1E+10	1	-1E+10	1	-1E+10	1	-1E+10	1
4901784	140	C	05/05/2019	10:49	-132.813	42.837	0	91.40	0	9.8520	0	33.9420	8	26.153	0	90.656	0	259.9	4	93.6	4	-1E+10	1	-1E+10	1	-1E+10	1	-1E+10	1	-1E+10	1	-1E+10	1
4901784	140	C	05/05/2019	10:49	-132.813	42.837	0	93.20	0	9.8270	0	33.9450	8	26.159	0	92.441	0	259.4	4	93.4	4	-1E+10	1	-1E+10	1	-1E+10	1	-1E+10	1	-1E+10	1	-1E+10	1
4901784	140	C	05/05/2019	10:49	-132.813	42.837	0	94.80	0	9.8150	0	33.9450	8	26.161	0	94.028	0	259.2	4	93.3	4	-1E+10	1	-1E+10	1	-1E+10	1	-1E+10	1	-1E+10	1	-1E+10	1
4901784	140	C	05/05/2019	10:49	-132.813	42.837	0	96.60	0	9.7850	0	33.9510	8	26.171	0	95.813	0	258.6	4	93.0	4	-1E+10	1	-1E+10	1	-1E+10	1	-1E+10	1	-1E+10	1	-1E+10	1
4901784	140	C	05/05/2019	10:49	-132.813	42.837	0	98.20	0	9.7390	0	33.9510	8	26.179	0	97.399	0	258.4	4	92.9	4	-1E+10	1	-1E+10	1	-1E+10	1	-1E+10	1	-1E+10	1	-1E+10	1
4901784	140	C	05/05/2019	10:49	-132.813	42.837	0	100.00	0	9.7190	0	33.9500	8	26.181	0	99.184	0	258.0	4	92.7	4	-1E+10	1	-1E+10	1	-1E+10	1	-1E+10	1	-1E+10	1	-1E+10	1
4901784	140	C	05/05/2019	10:49	-132.813	42.837	0	102.50	0	9.6900	0	33.9480	8	26.185	0	101.663	0	257.1	4	92.3	4	-1E+10	1	-1E+10	1	-1E+10	1	-1E+10	1	-1E+10	1	-1E+10	1
4901784	140	C	05/05/2019	10:49	-132.813	42.837	0	105.10	0	9.5910	0	33.9510	8	26.203	0	104.241	0	255.8	4	91.6	4	-1E+10	1	-1E+10	1	-1E+10	1	-1E+10	1	-1E+10	1	-1E+10	1
4901784	140	C	05/05/2019	10:49	-132.813	42.837	0	107.60	0	9.4670	0	33.9680	8	26.237	0	106.720	0	254.9	4	91.1	4	-1E+10	1	-1E+10	1	-1E+10	1	-1E+10	1	-1E+10	1	-1E+10	1
4901784	140	C	05/05/2019	10:49	-132.813	42.837	0	110.30	0	9.3440	0	33.9870	8	26.272	0	109.397	0	253.6	4	90.4	4	-1E+10	1	-1E+10	1	-1E+10	1	-1E+10	1	-1E+10	1	-1E+10	1
4901784	140	C	05/05/2019	10:49	-132.813	42.837	0	112.10	0	9.3160	0	33.9860	8	26.276	0	111.182	0	253.0	4	90.1	4	-1E+10	1	-1E+10	1	-1E+10	1	-1E+10	1	-1E+10	1	-1E+10	1
4901784	140	C	05/05/2019	10:49	-132.813	42.837	0	114.70	0	9.2710	0	33.9890	8	26.285	0	113.760	0	251.1	4	89.4	4	-1E+10	1	-1E+10	1	-1E+10	1	-1E+10	1	-1E+10	1	-1E+10	1
4901784	140	C	05/05/2019	10:49	-132.813	42.837	0	117.20	0	9.1140	0	34.0210	8	26.336	0	116.239	0	249.4	4	88.5	4	-1E+10	1	-1E+10	1	-1E+10	1	-1E+10	1	-1E+10	1	-1E+10	1
4901784	140	C	05/05/2019	10:49	-132.813	42.837	0	119.80	0	9.0530	0	34.0320	8	26.354	0	118.817	0	247.5	4	87.7	4	-1E+10	1	-1E+10	1	-1E+10	1	-1E+10	1	-1E+10	1	-1E+10	1
4901784	140	C	05/05/2019	10:49	-132.813	42.837	0	122.60	0	8.9640	0	34.0490	8	26.382	0	121.593	0	244.8	4	86.6	4	-1E+10	1	-1E+10	1	-1E+10	1	-1E+10	1	-1E+10	1	-1E+10	1
4901784	140	C	05/05/2019	10:49	-132.813	42.837	0	125.30	0	8.7970	0	34.0960	8	26.445	0	124.270	0	242.8	4	85.6	4	-1E+10	1	-1E+10	1	-1E+10	1	-1E+10	1	-1E+10	1	-1E+10	1
4901784	140	C	05/05/2019	10:49	-132.813	42.837	0	128.50	0	8.6340	0	34.1520	8	26.514	0	127.443	0	240.6	4	84.5	4	-1E+10	1	-1E+10	1	-1E+10	1	-1E+10	1	-1E+10	1	-1E+10	1
4901784	140	C	05/05/2019	10:49	-132.813	42.837	0	129.90	0	8.5290	0	34.1850	8	26.556	0	128.831	0	239.6	4	84.0	4	-1E+10	1	-1E+10	1	-1E+10	1	-1E+10	1	-1E+10	1	-1E+10	1
4901784	140	C	05/05/2019	10:49	-132.813	42.837	0	132.30	0	8.4260	0	34.2170	8	26.597	0	131.210	0	238.3	4	83.4	4	-1E+10	1	-1E+10	1	-1E+10	1	-1E+10	1	-1E+10	1	-1E+10	1
4901784	140	C	05/05/2019	10:49	-132.813	42.837	0	134.60	0	8.3610	0	34.2370	8	26.623	0	133.491	0	236.4	4	82.6	4	-1E+10	1	-1E+10	1	-1E+10	1	-1E+10	1	-1E+10	1	-1E+10	1
4901784	140	C	05/05/2019	10:49	-132.813	42.837	0	136.90	0	8.2460	0	34.2920	8	26.683	0	135.771	0	234.0	4	81.6	4	-1E+10	1	-1E+10	1	-1E+10	1	-1E+10	1	-1E+10	1	-1E+10	1
4901784	140	C	05/05/2019	10:49	-132.813	42.837	0	139.50	0	8.0890	0	34.3840	8	26.779	0	138.348	0	232.6	4	80.9	4	-1E+10	1	-1E+10	1	-1E+10	1	-1E+10	1	-1E+10	1	-1E+10	1
4901784	140	C	05/05/2019	10:49	-132.813	42.837	0	142.50	0	8.0090	0	34.4540	8	26.846	0	141.323	0	230.4	4	80.0	4	-1E+10	1	-1E+10	1	-1E+10	1	-1E+10	1	-1E+10	1	-1E+10	1
4901784	140	C	05/05/2019	10:49	-132.813	42.837	0	145.30	0	7.9900	0	34.5070	8	26.891	0	144.099	0	228.5	4	79.3	4	-1E+10	1	-1E+10	1	-1E+10	1	-1E+10	1	-1E+10	1	-1E+10	1
4901784	140	C	05/05/2019	10:49	-132.813	42.837	0	147.60	0	7.9640	0	34.5580	8	26.935	0	146.379	0	227.2	4	78.9	4	-1E+10	1	-1E+10	1	-1E+10	1	-1E+10	1	-1E+10	1	-1E+10	1
4901784	140	C	05/05/2019	10:49	-132.813	42.837	0	149.90	0	7.9570	0	34.5690	8	26.944	0	148.659	0	226.1	4	78.5	4	-1E+10	1	-1E+10	1	-1E+10	1	-1E+10	1	-1E+10	1	-1E+10	1
4901784	140	C	05/05/2019	10:49	-132.813	42.837	0	152.20	0	7.9550	0	34.5750	8	26.949	0	150.939	0	224.4	4	77.9	4	-1E+10	1	-1E+10	1	-1E+10	1	-1E+10	1	-1E+10	1	-1E+10	1
4901784	140	C	05/05/2019	10:49	-132.813	42.837	0	154.60	0	7.9220	0	34.6260	8	26.994	0	153.318	0	222.3	4	77.1	4	-1E+10	1	-1E+10	1	-1E+10	1	-1E+10	1	-1E+10	1	-1E+10	1
4901784	140	C	05/05/2019	10:49	-132.813	42.837	0	157.90	0	7.9000	0	34.6840	8	27.043	0	156.590	0	218.7	4	75.9	4	-1E+10	1	-1E+10	1	-1E+10	1	-1E+10	1	-1E+10	1	-1E+10	1
4901784	140	C	05/05/2019	10:49	-132.813	42.837	0	160.20	0	7.9180	0	34.7570	8	27.098	0	158.870	0	215.5	4	74.8	4	-1E+10	1	-1E+10	1	-1E+10	1	-1E+10	1	-1E+10	1	-1E+10	1
4901784	140	C	05/05/2019	10:49	-132.813	42.837	0	162.70	0	7.9250	0	34.8080	8	27.137	0	161.348	0	212.3	4	73.8	4	-1E+10	1	-1E+10	1	-1E+10	1	-1E+10	1	-1E+10	1	-1E+10	1
4901784	140	C	05/05/2019	10:49	-132.813	42.837	0	165.10	0	7.9390	0	34.8680	8	27.182	0	163.727	0	208.5	4	72.5	4	-1E+10	1	-1E+10	1	-1E+10	1	-1E+10	1	-1E+10	1	-1E+10	1
4901784	140	C	05/05/2019	10:49	-132.813	42.837	0	167.60	0	7.9650	0	34.9240	8	27.222	0	166.205	0	204.2	4	71.1	4	-1E+10	1	-1E+10	1	-1E+10	1	-1E+10	1	-1E+10	1	-1E+10	1
4901784	140	C	05/05/2019	10:49	-132.813	42.837	0	170.30	0	8.0340	0	35.0160	8	27.284	0	168.882	0	199.8	4	69.7	4	-1E+10	1	-1E+10	1	-1E+10	1	-1E+10	1	-1E+10	1	-1E+10	1
4901784	140	C	05/05/2019	10:49	-132.813	42.837	0	172.10	0	8.0850	0	35.0780	8	27.325	0	170.666	0	197.5	4	69.0	4	-1E+10	1	-1E+10	1	-1E+10	1	-1E+10	1	-1E+10	1	-1E+10	1
4901784	140	C	05/05/2019	10:49	-132.813	42.837	0	174.90	0	8.1080	0	35.1140	8	27.350	0	173.441	0	195.0	4	68.2	4	-1E+10	1	-1E+10	1	-1E+10	1	-1E+10	1	-1E+10	1	-1E+10	1
4901784	140	C	05/05/2019	10:49	-132.813	42.837	0	178.10	0	8.1590	0	35.1860	8	27.399	0	176.613	0	192.6	4	67.5	4	-1E+10	1	-1E+10	1	-1E+10	1	-1E+10	1	-1E+10	1	-1E+10	1
4901784	140	C	05/05/2019	10:49	-132.813	42.837	0	180.00	0	8.1450	0	35.2130	8	27.422	0	178.497	0	191.9	4	67.2	4	-1E+10	1	-1E+10	1	-1E+10	1	-1E+10	1	-1E+10	1	-1E+10	1
4901784	140	C	05/05/2019	10:49	-132.813	42.837	0	182.20	0	8.1590	0	35.2350	8	27.438	0	180.677	0	190.1	4	66.6	4	-1E+10	1	-1E+10	1	-1E+10	1	-1E+10	1	-1E+10	1	-1E+10	1
4901784	140	C	05/05/2019	10:49	-132.813	42.837	0	185.30	0	8.1740	0	35.2650	8	27.459	0	183.750	0	186.9	4	65.5	4	-1E+10	1	-1E+10	1	-1E+10	1	-1E+10	1	-1E+10	1	-1E+10	1
4901784	140	C	05/05/2019	10:49	-132.813	42.837	0	187.70	0	8.2160	0	35.2860	8	27.469	0	186.129	0	184.3	4	64.7	4	-1E+10	1	-1E+10	1	-1E+10	1	-1E+10	1	-1E+10	1	-1E+10	1
4901784	140	C	05/05/2019	10:49	-132.813	42.837	0	190.00	0	8.2380	0	35.3410	8	27.509	0	188.409	0	182.2	4	64.0	4	-1E+10	1	-1E+10	1	-1E+10	1	-1E+10	1	-1E+10	1	-1E+10	1
4901784	140	C	05/05/2019	10:49	-132.813	42.837	0	192.40	0	8.2570	0	35.3880	8	27.543	0	190.787	0	180.6	4	63.5	4	-1E+10	1	-1E+10	1	-1E+10	1	-1E+10	1	-1E+10	1	-1E+10	1
4901784	140	C	05/05/2019	10:49	-132.813	42.837	0	194.80	0	8.2590	0	35.3950	8	27.548	0	193.166	0	179.5	4	63.1	4	-1E+10	1	-1E+10	1	-1E+10	1	-1E+10	1	-1E+10	1	-1E+10	1
4901784	140	C	05/05/2019	10:49	-132.813	42.837	0	197.30	0	8.2620	0	35.4090	8	27.559	0	195.644	0	178.3	4	62.7	4	-1E+10	1	-1E+10	1	-1E+10	1	-1E+10	1	-1E+10	1	-1E+10	1
4901784	140	C	05/05/2019	10:49	-132.813	42.837	0	199.70	0	8.2640	0	35.4180	8	27.565	0	198.023	0	176.4	4	62.0	4	-1E+10	1	-1E+10	1	-1E+10	1	-1E+10	1	-1E+10	1	-1E+10	1
4901784	140	C	05/05/2019	10:49	-132.813	42.837	0	202.20	0	8.2650	0	35.4390	8	27.582	0	200.500	0	174.3	4	61.3	4	-1E+10	1	-1E+10	1	-1E+10	1	-1E+10	1	-1E+10	1	-1E+10	1
4901784	140	C	05/05/2019	10:49	-132.813	42.837	0	204.60	0	8.2540	0	35.4600	8	27.600	0	202.879	0	171.9	4	60.4	4	-1E+10	1	-1E+10	1	-1E+10	1	-1E+10	1	-1E+10	1	-1E+10	1
4901784	140	C	05/05/2019	10:49	-132.813	42.837	0	207.90	0	8.2330	0	35.4850	8	27.623	0	206.150	0	169.7	4	59.7	4	-1E+10	1	-1E+10	1	-1E+10	1	-1E+10	1	-1E+10	1	-1E+10	1
4901784	140	C	05/05/2019	10:49	-132.813	42.837	0	210.40	0	8.2270	0	35.4900	8	27.628	0	208.627	0	168.7	4	59.3	4	-1E+10	1	-1E+10	1	-1E+10	1	-1E+10	1	-1E+10	1	-1E+10	1
4901784	140	C	05/05/2019	10:49	-132.813	42.837	0	212.90	0	8.2020	0	35.4970	8	27.637	0	211.105	0	167.5	4	58.9	4	-1E+10	1	-1E+10	1	-1E+10	1	-1E+10	1	-1E+10	1	-1E+10	1
4901784	140	C	05/05/2019	10:49	-132.813	42.837	0	215.40	0	8.1780	0	35.5020	8	27.645	0	213.583	0	166.5	4	58.5	4	-1E+10	1	-1E+10	1	-1E+10	1	-1E+10	1	-1E+10	1	-1E+10	1
4901784	140	C	05/05/2019	10:49	-132.813	42.837	0	217.10	0	8.1600	0	35.5060	8	27.651	0	215.268	0	166.0	4	58.3	4	-1E+10	1	-1E+10	1	-1E+10	1	-1E+10	1	-1E+10	1	-1E+10	1
4901784	140	C	05/05/2019	10:49	-132.813	42.837	0	219.60	0	8.1330	0	35.5120	8	27.660	0	217.745	0	165.3	4	58.0	4	-1E+10	1	-1E+10	1	-1E+10	1	-1E+10	1	-1E+10	1	-1E+10	1
4901784	140	C	05/05/2019	10:49	-132.813	42.837	0	222.90	0	8.1020	0	35.5170	8	27.668	0	221.015	0	164.4	4	57.7	4	-1E+10	1	-1E+10	1	-1E+10	1	-1E+10	1	-1E+10	1	-1E+10	1
4901784	140	C	05/05/2019	10:49	-132.813	42.837	0	225.40	0	8.0900	0	35.5180	8	27.671	0	223.493	0	164.0	4	57.5	4	-1E+10	1	-1E+10	1	-1E+10	1	-1E+10	1	-1E+10	1	-1E+10	1
4901784	140	C	05/05/2019	10:49	-132.813	42.837	0	227.10	0	8.0850	0	35.5180	8	27.672	0	225.178	0	163.6	4	57.3	4	-1E+10	1	-1E+10	1	-1E+10	1	-1E+10	1	-1E+10	1	-1E+10	1
4901784	140	C	05/05/2019	10:49	-132.813	42.837	0	229.70	0	8.0640	0	35.5190	8	27.676	0	227.754	0	162.4	4	56.9	4	-1E+10	1	-1E+10	1	-1E+10	1	-1E+10	1	-1E+10	1	-1E+10	1
4901784	140	C	05/05/2019	10:49	-132.813	42.837	0	232.20	0	8.0260	0	35.5230	8	27.685	0	230.232	0	161.3	4	56.5	4	-1E+10	1	-1E+10	1	-1E+10	1	-1E+10	1	-1E+10	1	-1E+10	1
4901784	140	C	05/05/2019	10:49	-132.813	42.837	0	234.80	0	7.9680	0	35.5270	8	27.697	0	232.808	0	160.1	4	56.0	4	-1E+10	1	-1E+10	1	-1E+10	1	-1E+10	1	-1E+10	1	-1E+10	1
4901784	140	C	05/05/2019	10:49	-132.813	42.837	0	237.40	0	7.9300	0	35.5290	8	27.704	0	235.385	0	159.4	4	55.7	4	-1E+10	1	-1E+10	1	-1E+10	1	-1E+10	1	-1E+10	1	-1E+10	1
4901784	140	C	05/05/2019	10:49	-132.813	42.837	0	240.10	0	7.9160	0	35.5290	8	27.706	0	238.060	0	158.9	4	55.5	4	-1E+10	1	-1E+10	1	-1E+10	1	-1E+10	1	-1E+10	1	-1E+10	1
4901784	140	C	05/05/2019	10:49	-132.813	42.837	0	242.70	0	7.9100	0	35.5290	8	27.707	0	240.637	0	158.2	4	55.3	4	-1E+10	1	-1E+10	1	-1E+10	1	-1E+10	1	-1E+10	1	-1E+10	1
4901784	140	C	05/05/2019	10:49	-132.813	42.837	0	245.30	0	7.8860	0	35.5290	8	27.711	0	243.213	0	157.3	4	54.9	4	-1E+10	1	-1E+10	1	-1E+10	1	-1E+10	1	-1E+10	1	-1E+10	1
4901784	140	C	05/05/2019	10:49	-132.813	42.837	0	247.90	0	7.8340	0	35.5280	8	27.718	0	245.789	0	156.1	4	54.4	4	-1E+10	1	-1E+10	1	-1E+10	1	-1E+10	1	-1E+10	1	-1E+10	1
4901784	140	C	05/05/2019	10:49	-132.813	42.837	0	249.70	0	7.8020	0	35.5340	8	27.727	0	247.573	0	155.5	4	54.2	4	-1E+10	1	-1E+10	1	-1E+10	1	-1E+10	1	-1E+10	1	-1E+10	1
4901784	140	C	05/05/2019	10:49	-132.813	42.837	0	252.30	0	7.7640	0	35.5310	8	27.731	0	250.149	0	154.8	4	53.9	4	-1E+10	1	-1E+10	1	-1E+10	1	-1E+10	1	-1E+10	1	-1E+10	1
4901784	140	C	05/05/2019	10:49	-132.813	42.837	0	255.00	0	7.7450	0	35.5290	8	27.732	0	252.824	0	153.7	4	53.5	4	-1E+10	1	-1E+10	1	-1E+10	1	-1E+10	1	-1E+10	1	-1E+10	1
4901784	140	C	05/05/2019	10:49	-132.813	42.837	0	257.60	0	7.6770	0	35.5310	8	27.744	0	255.401	0	152.1	4	52.9	4	-1E+10	1	-1E+10	1	-1E+10	1	-1E+10	1	-1E+10	1	-1E+10	1
4901784	140	C	05/05/2019	10:49	-132.813	42.837	0	260.30	0	7.6380	0	35.5280	8	27.747	0	258.076	0	150.5	4	52.2	4	-1E+10	1	-1E+10	1	-1E+10	1	-1E+10	1	-1E+10	1	-1E+10	1
4901784	140	C	05/05/2019	10:49	-132.813	42.837	0	262.00	0	7.5900	0	35.5300	8	27.756	0	259.760	0	149.4	4	51.8	4	-1E+10	1	-1E+10	1	-1E+10	1	-1E+10	1	-1E+10	1	-1E+10	1
4901784	140	C	05/05/2019	10:49	-132.813	42.837	0	264.80	0	7.5480	0	35.5300	8	27.762	0	262.535	0	147.6	4	51.1	4	-1E+10	1	-1E+10	1	-1E+10	1	-1E+10	1	-1E+10	1	-1E+10	1
4901784	140	C	05/05/2019	10:49	-132.813	42.837	0	267.50	0	7.4780	0	35.5310	8	27.773	0	265.210	0	145.9	4	50.5	4	-1E+10	1	-1E+10	1	-1E+10	1	-1E+10	1	-1E+10	1	-1E+10	1
4901784	140	C	05/05/2019	10:49	-132.813	42.837	0	270.30	0	7.4390	0	35.5310	8	27.779	0	267.984	0	144.2	4	49.8	4	-1E+10	1	-1E+10	1	-1E+10	1	-1E+10	1	-1E+10	1	-1E+10	1
4901784	140	C	05/05/2019	10:49	-132.813	42.837	0	273.00	0	7.3900	0	35.5320	8	27.787	0	270.659	0	142.9	4	49.3	4	-1E+10	1	-1E+10	1	-1E+10	1	-1E+10	1	-1E+10	1	-1E+10	1
4901784	140	C	05/05/2019	10:49	-132.813	42.837	0	274.80	0	7.3740	0	35.5320	8	27.789	0	272.442	0	142.1	4	49.0	4	-1E+10	1	-1E+10	1	-1E+10	1	-1E+10	1	-1E+10	1	-1E+10	1
4901784	140	C	05/05/2019	10:49	-132.813	42.837	0	277.60	0	7.3440	0	35.5330	8	27.794	0	275.217	0	141.2	4	48.7	4	-1E+10	1	-1E+10	1	-1E+10	1	-1E+10	1	-1E+10	1	-1E+10	1
4901784	140	C	05/05/2019	10:49	-132.813	42.837	0	280.30	0	7.3250	0	35.5320	8	27.796	0	277.892	0	140.3	4	48.3	4	-1E+10	1	-1E+10	1	-1E+10	1	-1E+10	1	-1E+10	1	-1E+10	1
4901784	140	C	05/05/2019	10:49	-132.813	42.837	0	282.20	0	7.3030	0	35.5330	8	27.800	0	279.774	0	139.5	4	48.1	4	-1E+10	1	-1E+10	1	-1E+10	1	-1E+10	1	-1E+10	1	-1E+10	1
4901784	140	C	05/05/2019	10:49	-132.813	42.837	0	284.90	0	7.2820	0	35.5330	8	27.803	0	282.449	0	138.3	4	47.6	4	-1E+10	1	-1E+10	1	-1E+10	1	-1E+10	1	-1E+10	1	-1E+10	1
4901784	140	C	05/05/2019	10:49	-132.813	42.837	0	287.60	0	7.2430	0	35.5320	8	27.808	0	285.124	0	136.9	4	47.1	4	-1E+10	1	-1E+10	1	-1E+10	1	-1E+10	1	-1E+10	1	-1E+10	1
4901784	140	C	05/05/2019	10:49	-132.813	42.837	0	290.30	0	7.1790	0	35.5330	8	27.818	0	287.799	0	135.3	4	46.5	4	-1E+10	1	-1E+10	1	-1E+10	1	-1E+10	1	-1E+10	1	-1E+10	1
4901784	140	C	05/05/2019	10:49	-132.813	42.837	0	293.00	0	7.1080	0	35.5350	8	27.829	0	290.474	0	134.2	4	46.0	4	-1E+10	1	-1E+10	1	-1E+10	1	-1E+10	1	-1E+10	1	-1E+10	1
4901784	140	C	05/05/2019	10:49	-132.813	42.837	0	294.90	0	7.0740	0	35.5360	8	27.835	0	292.356	0	133.8	4	45.9	4	-1E+10	1	-1E+10	1	-1E+10	1	-1E+10	1	-1E+10	1	-1E+10	1
4901784	140	C	05/05/2019	10:49	-132.813	42.837	0	297.60	0	7.0550	0	35.5380	8	27.839	0	295.031	0	133.1	4	45.6	4	-1E+10	1	-1E+10	1	-1E+10	1	-1E+10	1	-1E+10	1	-1E+10	1
4901784	140	C	05/05/2019	10:49	-132.813	42.837	0	300.40	0	7.0350	0	35.5370	8	27.841	0	297.804	0	132.2	4	45.3	4	-1E+10	1	-1E+10	1	-1E+10	1	-1E+10	1	-1E+10	1	-1E+10	1
4901784	140	C	05/05/2019	10:49	-132.813	42.837	0	302.30	0	7.0250	0	35.5370	8	27.843	0	299.687	0	131.5	4	45.0	4	-1E+10	1	-1E+10	1	-1E+10	1	-1E+10	1	-1E+10	1	-1E+10	1
4901784	140	C	05/05/2019	10:49	-132.813	42.837	0	305.20	0	6.9920	0	35.5370	8	27.847	0	302.559	0	130.4	4	44.6	4	-1E+10	1	-1E+10	1	-1E+10	1	-1E+10	1	-1E+10	1	-1E+10	1
4901784	140	C	05/05/2019	10:49	-132.813	42.837	0	308.00	0	6.9730	0	35.5370	8	27.850	0	305.333	0	129.2	4	44.2	4	-1E+10	1	-1E+10	1	-1E+10	1	-1E+10	1	-1E+10	1	-1E+10	1
4901784	140	C	05/05/2019	10:49	-132.813	42.837	0	309.90	0	6.9520	0	35.5350	8	27.852	0	307.215	0	128.1	4	43.8	4	-1E+10	1	-1E+10	1	-1E+10	1	-1E+10	1	-1E+10	1	-1E+10	1
4901784	140	C	05/05/2019	10:49	-132.813	42.837	0	312.60	0	6.8930	0	35.5360	8	27.861	0	309.890	0	126.2	4	43.1	4	-1E+10	1	-1E+10	1	-1E+10	1	-1E+10	1	-1E+10	1	-1E+10	1
4901784	140	C	05/05/2019	10:49	-132.813	42.837	0	315.40	0	6.7930	0	35.5380	8	27.876	0	312.664	0	124.4	4	42.4	4	-1E+10	1	-1E+10	1	-1E+10	1	-1E+10	1	-1E+10	1	-1E+10	1
4901784	140	C	05/05/2019	10:49	-132.813	42.837	0	317.20	0	6.7580	0	35.5390	8	27.882	0	314.447	0	123.5	4	42.0	4	-1E+10	1	-1E+10	1	-1E+10	1	-1E+10	1	-1E+10	1	-1E+10	1
4901784	140	C	05/05/2019	10:49	-132.813	42.837	0	320.00	0	6.7030	0	35.5390	8	27.889	0	317.220	0	121.9	4	41.4	4	-1E+10	1	-1E+10	1	-1E+10	1	-1E+10	1	-1E+10	1	-1E+10	1
4901784	140	C	05/05/2019	10:49	-132.813	42.837	0	322.90	0	6.6470	0	35.5380	8	27.896	0	320.093	0	120.5	4	40.9	4	-1E+10	1	-1E+10	1	-1E+10	1	-1E+10	1	-1E+10	1	-1E+10	1
4901784	140	C	05/05/2019	10:49	-132.813	42.837	0	324.70	0	6.5880	0	35.5410	8	27.907	0	321.876	0	119.7	4	40.6	4	-1E+10	1	-1E+10	1	-1E+10	1	-1E+10	1	-1E+10	1	-1E+10	1
4901784	140	C	05/05/2019	10:49	-132.813	42.837	0	327.40	0	6.5690	0	35.5400	8	27.908	0	324.550	0	118.8	4	40.3	4	-1E+10	1	-1E+10	1	-1E+10	1	-1E+10	1	-1E+10	1	-1E+10	1
4901784	140	C	05/05/2019	10:49	-132.813	42.837	0	330.20	0	6.5450	0	35.5390	8	27.911	0	327.323	0	117.7	4	39.9	4	-1E+10	1	-1E+10	1	-1E+10	1	-1E+10	1	-1E+10	1	-1E+10	1
4901784	140	C	05/05/2019	10:49	-132.813	42.837	0	332.10	0	6.5060	0	35.5420	8	27.919	0	329.205	0	116.9	4	39.5	4	-1E+10	1	-1E+10	1	-1E+10	1	-1E+10	1	-1E+10	1	-1E+10	1
4901784	140	C	05/05/2019	10:49	-132.813	42.837	0	334.80	0	6.4740	0	35.5390	8	27.920	0	331.880	0	115.8	4	39.1	4	-1E+10	1	-1E+10	1	-1E+10	1	-1E+10	1	-1E+10	1	-1E+10	1
4901784	140	C	05/05/2019	10:49	-132.813	42.837	0	337.60	0	6.4450	0	35.5390	8	27.924	0	334.653	0	114.3	4	38.6	4	-1E+10	1	-1E+10	1	-1E+10	1	-1E+10	1	-1E+10	1	-1E+10	1
4901784	140	C	05/05/2019	10:49	-132.813	42.837	0	340.30	0	6.3700	0	35.5400	8	27.935	0	337.327	0	113.1	4	38.1	4	-1E+10	1	-1E+10	1	-1E+10	1	-1E+10	1	-1E+10	1	-1E+10	1
4901784	140	C	05/05/2019	10:49	-132.813	42.837	0	343.10	0	6.3110	0	35.5400	8	27.943	0	340.100	0	111.8	4	37.7	4	-1E+10	1	-1E+10	1	-1E+10	1	-1E+10	1	-1E+10	1	-1E+10	1
4901784	140	C	05/05/2019	10:49	-132.813	42.837	0	344.90	0	6.3020	0	35.5390	8	27.944	0	341.883	0	111.1	4	37.4	4	-1E+10	1	-1E+10	1	-1E+10	1	-1E+10	1	-1E+10	1	-1E+10	1
4901784	140	C	05/05/2019	10:49	-132.813	42.837	0	347.80	0	6.2640	0	35.5390	8	27.949	0	344.755	0	109.6	4	36.9	4	-1E+10	1	-1E+10	1	-1E+10	1	-1E+10	1	-1E+10	1	-1E+10	1
4901784	140	C	05/05/2019	10:49	-132.813	42.837	0	350.60	0	6.1960	0	35.5410	8	27.959	0	347.529	0	108.3	4	36.4	4	-1E+10	1	-1E+10	1	-1E+10	1	-1E+10	1	-1E+10	1	-1E+10	1
4901784	140	C	05/05/2019	10:49	-132.813	42.837	0	352.40	0	6.1700	0	35.5410	8	27.963	0	349.311	0	107.5	4	36.1	4	-1E+10	1	-1E+10	1	-1E+10	1	-1E+10	1	-1E+10	1	-1E+10	1
4901784	140	C	05/05/2019	10:49	-132.813	42.837	0	355.20	0	6.1460	0	35.5410	8	27.966	0	352.084	0	106.1	4	35.6	4	-1E+10	1	-1E+10	1	-1E+10	1	-1E+10	1	-1E+10	1	-1E+10	1
4901784	140	C	05/05/2019	10:49	-132.813	42.837	0	358.00	0	6.1130	0	35.5410	8	27.970	0	354.857	0	104.5	4	35.0	4	-1E+10	1	-1E+10	1	-1E+10	1	-1E+10	1	-1E+10	1	-1E+10	1
4901784	140	C	05/05/2019	10:49	-132.813	42.837	0	359.90	0	6.0890	0	35.5420	8	27.974	0	356.739	0	103.1	4	34.6	4	-1E+10	1	-1E+10	1	-1E+10	1	-1E+10	1	-1E+10	1	-1E+10	1
4901784	140	C	05/05/2019	10:49	-132.813	42.837	0	362.80	0	6.0260	0	35.5440	8	27.984	0	359.611	0	100.9	4	33.8	4	-1E+10	1	-1E+10	1	-1E+10	1	-1E+10	1	-1E+10	1	-1E+10	1
4901784	140	C	05/05/2019	10:49	-132.813	42.837	0	365.60	0	5.9780	0	35.5460	8	27.992	0	362.384	0	99.2	4	33.2	4	-1E+10	1	-1E+10	1	-1E+10	1	-1E+10	1	-1E+10	1	-1E+10	1
4901784	140	C	05/05/2019	10:49	-132.813	42.837	0	367.50	0	5.9520	0	35.5470	8	27.996	0	364.266	0	98.4	4	32.9	4	-1E+10	1	-1E+10	1	-1E+10	1	-1E+10	1	-1E+10	1	-1E+10	1
4901784	140	C	05/05/2019	10:49	-132.813	42.837	0	369.90	0	5.9140	0	35.5480	8	28.001	0	366.642	0	97.6	4	32.6	4	-1E+10	1	-1E+10	1	-1E+10	1	-1E+10	1	-1E+10	1	-1E+10	1
4901784	140	C	05/05/2019	10:49	-132.813	42.837	0	372.60	0	5.8770	0	35.5490	8	28.007	0	369.316	0	96.7	4	32.2	4	-1E+10	1	-1E+10	1	-1E+10	1	-1E+10	1	-1E+10	1	-1E+10	1
4901784	140	C	05/05/2019	10:49	-132.813	42.837	0	375.00	0	5.7950	0	35.5490	8	28.017	0	371.693	0	95.8	4	31.9	4	-1E+10	1	-1E+10	1	-1E+10	1	-1E+10	1	-1E+10	1	-1E+10	1
4901784	140	C	05/05/2019	10:49	-132.813	42.837	0	377.40	0	5.7550	0	35.5520	8	28.025	0	374.070	0	94.2	4	31.3	4	-1E+10	1	-1E+10	1	-1E+10	1	-1E+10	1	-1E+10	1	-1E+10	1
4901784	140	C	05/05/2019	10:49	-132.813	42.837	0	379.80	0	5.7260	0	35.5510	8	28.028	0	376.446	0	93.1	4	31.0	4	-1E+10	1	-1E+10	1	-1E+10	1	-1E+10	1	-1E+10	1	-1E+10	1
4901784	140	C	05/05/2019	10:49	-132.813	42.837	0	382.20	0	5.7000	0	35.5530	8	28.033	0	378.823	0	91.6	4	30.4	4	-1E+10	1	-1E+10	1	-1E+10	1	-1E+10	1	-1E+10	1	-1E+10	1
4901784	140	C	05/05/2019	10:49	-132.813	42.837	0	384.60	0	5.6580	0	35.5540	8	28.039	0	381.200	0	89.7	4	29.8	4	-1E+10	1	-1E+10	1	-1E+10	1	-1E+10	1	-1E+10	1	-1E+10	1
4901784	140	C	05/05/2019	10:49	-132.813	42.837	0	387.10	0	5.6160	0	35.5560	8	28.046	0	383.675	0	87.6	4	29.0	4	-1E+10	1	-1E+10	1	-1E+10	1	-1E+10	1	-1E+10	1	-1E+10	1
4901784	140	C	05/05/2019	10:49	-132.813	42.837	0	390.40	0	5.5910	0	35.5620	8	28.053	0	386.943	0	84.1	4	27.8	4	-1E+10	1	-1E+10	1	-1E+10	1	-1E+10	1	-1E+10	1	-1E+10	1
4901784	140	C	05/05/2019	10:49	-132.813	42.837	0	392.90	0	5.5790	0	35.5660	8	28.058	0	389.418	0	82.7	4	27.4	4	-1E+10	1	-1E+10	1	-1E+10	1	-1E+10	1	-1E+10	1	-1E+10	1
4901784	140	C	05/05/2019	10:49	-132.813	42.837	0	395.40	0	5.5350	0	35.5660	8	28.064	0	391.894	0	80.7	4	26.7	4	-1E+10	1	-1E+10	1	-1E+10	1	-1E+10	1	-1E+10	1	-1E+10	1
4901784	140	C	05/05/2019	10:49	-132.813	42.837	0	397.80	0	5.5200	0	35.5720	8	28.070	0	394.270	0	78.7	4	26.0	4	-1E+10	1	-1E+10	1	-1E+10	1	-1E+10	1	-1E+10	1	-1E+10	1
4901784	140	C	05/05/2019	10:49	-132.813	42.837	0	400.20	0	5.4950	0	35.5750	8	28.076	0	396.647	0	77.7	4	25.7	4	-1E+10	1	-1E+10	1	-1E+10	1	-1E+10	1	-1E+10	1	-1E+10	1
4901784	140	C	05/05/2019	10:49	-132.813	42.837	0	402.70	0	5.4600	0	35.5760	8	28.081	0	399.122	0	76.5	4	25.3	4	-1E+10	1	-1E+10	1	-1E+10	1	-1E+10	1	-1E+10	1	-1E+10	1
4901784	140	C	05/05/2019	10:49	-132.813	42.837	0	405.10	0	5.4490	0	35.5790	8	28.085	0	401.498	0	74.9	4	24.8	4	-1E+10	1	-1E+10	1	-1E+10	1	-1E+10	1	-1E+10	1	-1E+10	1
4901784	140	C	05/05/2019	10:49	-132.813	42.837	0	407.50	0	5.4390	0	35.5820	8	28.088	0	403.875	0	73.0	4	24.1	4	-1E+10	1	-1E+10	1	-1E+10	1	-1E+10	1	-1E+10	1	-1E+10	1
4901784	140	C	05/05/2019	10:49	-132.813	42.837	0	410.00	0	5.4260	0	35.5850	8	28.092	0	406.350	0	71.4	4	23.6	4	-1E+10	1	-1E+10	1	-1E+10	1	-1E+10	1	-1E+10	1	-1E+10	1
4901784	140	C	05/05/2019	10:49	-132.813	42.837	0	412.40	0	5.3920	0	35.5900	8	28.100	0	408.726	0	69.9	4	23.0	4	-1E+10	1	-1E+10	1	-1E+10	1	-1E+10	1	-1E+10	1	-1E+10	1
4901784	140	C	05/05/2019	10:49	-132.813	42.837	0	414.90	0	5.3780	0	35.5940	8	28.105	0	411.202	0	68.7	4	22.6	4	-1E+10	1	-1E+10	1	-1E+10	1	-1E+10	1	-1E+10	1	-1E+10	1
4901784	140	C	05/05/2019	10:49	-132.813	42.837	0	417.30	0	5.3760	0	35.5950	8	28.106	0	413.578	0	67.5	4	22.2	4	-1E+10	1	-1E+10	1	-1E+10	1	-1E+10	1	-1E+10	1	-1E+10	1
4901784	140	C	05/05/2019	10:49	-132.813	42.837	0	419.80	0	5.3640	0	35.6000	8	28.112	0	416.053	0	66.1	4	21.8	4	-1E+10	1	-1E+10	1	-1E+10	1	-1E+10	1	-1E+10	1	-1E+10	1
4901784	140	C	05/05/2019	10:49	-132.813	42.837	0	422.20	0	5.3450	0	35.6050	8	28.118	0	418.429	0	65.0	4	21.4	4	-1E+10	1	-1E+10	1	-1E+10	1	-1E+10	1	-1E+10	1	-1E+10	1
4901784	140	C	05/05/2019	10:49	-132.813	42.837	0	424.80	0	5.3370	0	35.6050	8	28.119	0	421.003	0	64.4	4	21.2	4	-1E+10	1	-1E+10	1	-1E+10	1	-1E+10	1	-1E+10	1	-1E+10	1
4901784	140	C	05/05/2019	10:49	-132.813	42.837	0	427.30	0	5.3280	0	35.6060	8	28.121	0	423.478	0	63.4	4	20.9	4	-1E+10	1	-1E+10	1	-1E+10	1	-1E+10	1	-1E+10	1	-1E+10	1
4901784	140	C	05/05/2019	10:49	-132.813	42.837	0	429.80	0	5.3020	0	35.6100	8	28.127	0	425.953	0	62.2	4	20.5	4	-1E+10	1	-1E+10	1	-1E+10	1	-1E+10	1	-1E+10	1	-1E+10	1
4901784	140	C	05/05/2019	10:49	-132.813	42.837	0	432.30	0	5.2900	0	35.6130	8	28.131	0	428.429	0	61.3	4	20.2	4	-1E+10	1	-1E+10	1	-1E+10	1	-1E+10	1	-1E+10	1	-1E+10	1
4901784	140	C	05/05/2019	10:49	-132.813	42.837	0	434.70	0	5.2700	0	35.6170	8	28.137	0	430.805	0	60.4	4	19.9	4	-1E+10	1	-1E+10	1	-1E+10	1	-1E+10	1	-1E+10	1	-1E+10	1
4901784	140	C	05/05/2019	10:49	-132.813	42.837	0	437.20	0	5.2620	0	35.6200	8	28.140	0	433.280	0	59.6	4	19.6	4	-1E+10	1	-1E+10	1	-1E+10	1	-1E+10	1	-1E+10	1	-1E+10	1
4901784	140	C	05/05/2019	10:49	-132.813	42.837	0	439.70	0	5.2490	0	35.6210	8	28.143	0	435.755	0	58.8	4	19.3	4	-1E+10	1	-1E+10	1	-1E+10	1	-1E+10	1	-1E+10	1	-1E+10	1
4901784	140	C	05/05/2019	10:49	-132.813	42.837	0	442.20	0	5.2330	0	35.6240	8	28.147	0	438.229	0	57.9	4	19.0	4	-1E+10	1	-1E+10	1	-1E+10	1	-1E+10	1	-1E+10	1	-1E+10	1
4901784	140	C	05/05/2019	10:49	-132.813	42.837	0	444.70	0	5.2120	0	35.6280	8	28.153	0	440.704	0	57.2	4	18.8	4	-1E+10	1	-1E+10	1	-1E+10	1	-1E+10	1	-1E+10	1	-1E+10	1
4901784	140	C	05/05/2019	10:49	-132.813	42.837	0	447.20	0	5.1950	0	35.6300	8	28.156	0	443.179	0	56.5	4	18.5	4	-1E+10	1	-1E+10	1	-1E+10	1	-1E+10	1	-1E+10	1	-1E+10	1
4901784	140	C	05/05/2019	10:49	-132.813	42.837	0	449.80	0	5.1730	0	35.6320	8	28.161	0	445.753	0	55.7	4	18.3	4	-1E+10	1	-1E+10	1	-1E+10	1	-1E+10	1	-1E+10	1	-1E+10	1
4901784	140	C	05/05/2019	10:49	-132.813	42.837	0	452.30	0	5.1480	0	35.6350	8	28.166	0	448.228	0	54.9	4	18.0	4	-1E+10	1	-1E+10	1	-1E+10	1	-1E+10	1	-1E+10	1	-1E+10	1
4901784	140	C	05/05/2019	10:49	-132.813	42.837	0	454.90	0	5.1290	0	35.6390	8	28.171	0	450.802	0	54.1	4	17.7	4	-1E+10	1	-1E+10	1	-1E+10	1	-1E+10	1	-1E+10	1	-1E+10	1
4901784	140	C	05/05/2019	10:49	-132.813	42.837	0	457.50	0	5.1130	0	35.6410	8	28.175	0	453.375	0	53.4	4	17.5	4	-1E+10	1	-1E+10	1	-1E+10	1	-1E+10	1	-1E+10	1	-1E+10	1
4901784	140	C	05/05/2019	10:49	-132.813	42.837	0	460.00	0	5.1010	0	35.6430	8	28.178	0	455.850	0	52.5	4	17.2	4	-1E+10	1	-1E+10	1	-1E+10	1	-1E+10	1	-1E+10	1	-1E+10	1
4901784	140	C	05/05/2019	10:49	-132.813	42.837	0	462.60	0	5.0940	0	35.6460	8	28.181	0	458.424	0	51.6	4	16.9	4	-1E+10	1	-1E+10	1	-1E+10	1	-1E+10	1	-1E+10	1	-1E+10	1
4901784	140	C	05/05/2019	10:49	-132.813	42.837	0	465.20	0	5.0800	0	35.6490	8	28.185	0	460.997	0	50.7	4	16.6	4	-1E+10	1	-1E+10	1	-1E+10	1	-1E+10	1	-1E+10	1	-1E+10	1
4901784	140	C	05/05/2019	10:49	-132.813	42.837	0	467.70	0	5.0620	0	35.6540	8	28.191	0	463.472	0	49.8	4	16.3	4	-1E+10	1	-1E+10	1	-1E+10	1	-1E+10	1	-1E+10	1	-1E+10	1
4901784	140	C	05/05/2019	10:49	-132.813	42.837	0	470.30	0	5.0550	0	35.6560	8	28.194	0	466.046	0	49.3	4	16.2	4	-1E+10	1	-1E+10	1	-1E+10	1	-1E+10	1	-1E+10	1	-1E+10	1
4901784	140	C	05/05/2019	10:49	-132.813	42.837	0	472.80	0	5.0440	0	35.6590	8	28.198	0	468.520	0	48.9	4	16.0	4	-1E+10	1	-1E+10	1	-1E+10	1	-1E+10	1	-1E+10	1	-1E+10	1
4901784	140	C	05/05/2019	10:49	-132.813	42.837	0	474.60	0	5.0420	0	35.6600	8	28.199	0	470.302	0	48.7	4	15.9	4	-1E+10	1	-1E+10	1	-1E+10	1	-1E+10	1	-1E+10	1	-1E+10	1
4901784	140	C	05/05/2019	10:49	-132.813	42.837	0	477.10	0	5.0390	0	35.6610	8	28.200	0	472.776	0	48.2	4	15.8	4	-1E+10	1	-1E+10	1	-1E+10	1	-1E+10	1	-1E+10	1	-1E+10	1
4901784	140	C	05/05/2019	10:49	-132.813	42.837	0	479.70	0	5.0240	0	35.6630	8	28.203	0	475.350	0	47.6	4	15.6	4	-1E+10	1	-1E+10	1	-1E+10	1	-1E+10	1	-1E+10	1	-1E+10	1
4901784	140	C	05/05/2019	10:49	-132.813	42.837	0	482.30	0	5.0010	0	35.6660	8	28.208	0	477.923	0	47.0	4	15.4	4	-1E+10	1	-1E+10	1	-1E+10	1	-1E+10	1	-1E+10	1	-1E+10	1
4901784	140	C	05/05/2019	10:49	-132.813	42.837	0	485.00	0	4.9880	0	35.6680	8	28.211	0	480.596	0	46.4	4	15.2	4	-1E+10	1	-1E+10	1	-1E+10	1	-1E+10	1	-1E+10	1	-1E+10	1
4901784	140	C	05/05/2019	10:49	-132.813	42.837	0	487.60	0	4.9770	0	35.6700	8	28.214	0	483.169	0	45.7	4	14.9	4	-1E+10	1	-1E+10	1	-1E+10	1	-1E+10	1	-1E+10	1	-1E+10	1
4901784	140	C	05/05/2019	10:49	-132.813	42.837	0	490.30	0	4.9640	0	35.6720	8	28.217	0	485.841	0	45.0	4	14.7	4	-1E+10	1	-1E+10	1	-1E+10	1	-1E+10	1	-1E+10	1	-1E+10	1
4901784	140	C	05/05/2019	10:49	-132.813	42.837	0	492.10	0	4.9520	0	35.6760	8	28.222	0	487.623	0	44.5	4	14.6	4	-1E+10	1	-1E+10	1	-1E+10	1	-1E+10	1	-1E+10	1	-1E+10	1
4901784	140	C	05/05/2019	10:49	-132.813	42.837	0	494.80	0	4.9380	0	35.6790	8	28.226	0	490.295	0	44.0	4	14.4	4	-1E+10	1	-1E+10	1	-1E+10	1	-1E+10	1	-1E+10	1	-1E+10	1
4901784	140	C	05/05/2019	10:49	-132.813	42.837	0	497.40	0	4.9320	0	35.6800	8	28.228	0	492.868	0	43.5	4	14.2	4	-1E+10	1	-1E+10	1	-1E+10	1	-1E+10	1	-1E+10	1	-1E+10	1
4901784	140	C	05/05/2019	10:49	-132.813	42.837	0	500.10	0	4.9260	0	35.6810	8	28.229	0	495.541	0	43.0	4	14.0	4	-1E+10	1	-1E+10	1	-1E+10	1	-1E+10	1	-1E+10	1	-1E+10	1
4901784	140	C	05/05/2019	10:49	-132.813	42.837	0	504.60	0	4.8870	0	35.6860	8	28.238	0	499.994	0	41.7	4	13.6	4	-1E+10	1	-1E+10	1	-1E+10	1	-1E+10	1	-1E+10	1	-1E+10	1
4901784	140	C	05/05/2019	10:49	-132.813	42.837	0	510.00	0	4.8650	0	35.6950	8	28.247	0	505.338	0	40.1	4	13.1	4	-1E+10	1	-1E+10	1	-1E+10	1	-1E+10	1	-1E+10	1	-1E+10	1
4901784	140	C	05/05/2019	10:49	-132.813	42.837	0	515.50	0	4.8280	0	35.7000	8	28.256	0	510.781	0	38.8	4	12.6	4	-1E+10	1	-1E+10	1	-1E+10	1	-1E+10	1	-1E+10	1	-1E+10	1
4901784	140	C	05/05/2019	10:49	-132.813	42.837	0	520.20	0	4.8050	0	35.7070	8	28.264	0	515.432	0	37.6	4	12.2	4	-1E+10	1	-1E+10	1	-1E+10	1	-1E+10	1	-1E+10	1	-1E+10	1
4901784	140	C	05/05/2019	10:49	-132.813	42.837	0	524.80	0	4.7880	0	35.7120	8	28.270	0	519.984	0	36.6	4	11.9	4	-1E+10	1	-1E+10	1	-1E+10	1	-1E+10	1	-1E+10	1	-1E+10	1
4901784	140	C	05/05/2019	10:49	-132.813	42.837	0	530.50	0	4.7550	0	35.7170	8	28.278	0	525.625	0	35.2	4	11.4	4	-1E+10	1	-1E+10	1	-1E+10	1	-1E+10	1	-1E+10	1	-1E+10	1
4901784	140	C	05/05/2019	10:49	-132.813	42.837	0	535.40	0	4.7510	0	35.7260	8	28.285	0	530.474	0	33.3	4	10.8	4	-1E+10	1	-1E+10	1	-1E+10	1	-1E+10	1	-1E+10	1	-1E+10	1
4901784	140	C	05/05/2019	10:49	-132.813	42.837	0	539.90	0	4.7650	0	35.7340	8	28.290	0	534.926	0	32.3	4	10.5	4	-1E+10	1	-1E+10	1	-1E+10	1	-1E+10	1	-1E+10	1	-1E+10	1
4901784	140	C	05/05/2019	10:49	-132.813	42.837	0	544.70	0	4.7400	0	35.7370	8	28.296	0	539.676	0	31.7	4	10.3	4	-1E+10	1	-1E+10	1	-1E+10	1	-1E+10	1	-1E+10	1	-1E+10	1
4901784	140	C	05/05/2019	10:49	-132.813	42.837	0	549.60	0	4.7200	0	35.7390	8	28.299	0	544.524	0	30.9	4	10.0	4	-1E+10	1	-1E+10	1	-1E+10	1	-1E+10	1	-1E+10	1	-1E+10	1
4901784	140	C	05/05/2019	10:49	-132.813	42.837	0	554.50	0	4.7040	0	35.7470	8	28.308	0	549.373	0	29.4	4	9.5	4	-1E+10	1	-1E+10	1	-1E+10	1	-1E+10	1	-1E+10	1	-1E+10	1
4901784	140	C	05/05/2019	10:49	-132.813	42.837	0	559.50	0	4.7080	0	35.7560	8	28.314	0	554.320	0	28.2	4	9.2	4	-1E+10	1	-1E+10	1	-1E+10	1	-1E+10	1	-1E+10	1	-1E+10	1
4901784	140	C	05/05/2019	10:49	-132.813	42.837	0	564.70	0	4.7130	0	35.7600	8	28.317	0	559.465	0	27.4	4	8.9	4	-1E+10	1	-1E+10	1	-1E+10	1	-1E+10	1	-1E+10	1	-1E+10	1
4901784	140	C	05/05/2019	10:49	-132.813	42.837	0	569.80	0	4.6920	0	35.7650	8	28.323	0	564.510	0	27.1	4	8.8	4	-1E+10	1	-1E+10	1	-1E+10	1	-1E+10	1	-1E+10	1	-1E+10	1
4901784	140	C	05/05/2019	10:49	-132.813	42.837	0	574.90	0	4.6560	0	35.7670	8	28.329	0	569.556	0	27.0	4	8.8	4	-1E+10	1	-1E+10	1	-1E+10	1	-1E+10	1	-1E+10	1	-1E+10	1
4901784	140	C	05/05/2019	10:49	-132.813	42.837	0	579.90	0	4.5980	0	35.7700	8	28.338	0	574.503	0	27.2	4	8.8	4	-1E+10	1	-1E+10	1	-1E+10	1	-1E+10	1	-1E+10	1	-1E+10	1
4901784	140	C	05/05/2019	10:49	-132.813	42.837	0	585.00	0	4.5470	0	35.7720	8	28.346	0	579.548	0	27.1	4	8.8	4	-1E+10	1	-1E+10	1	-1E+10	1	-1E+10	1	-1E+10	1	-1E+10	1
4901784	140	C	05/05/2019	10:49	-132.813	42.837	0	590.30	0	4.5130	0	35.7740	8	28.351	0	584.791	0	26.9	4	8.7	4	-1E+10	1	-1E+10	1	-1E+10	1	-1E+10	1	-1E+10	1	-1E+10	1
4901784	140	C	05/05/2019	10:49	-132.813	42.837	0	595.50	0	4.4580	0	35.7760	8	28.359	0	589.935	0	26.2	4	8.5	4	-1E+10	1	-1E+10	1	-1E+10	1	-1E+10	1	-1E+10	1	-1E+10	1
4901784	140	C	05/05/2019	10:49	-132.813	42.837	0	599.90	0	4.4810	0	35.7850	8	28.363	0	594.288	0	24.5	4	7.9	4	-1E+10	1	-1E+10	1	-1E+10	1	-1E+10	1	-1E+10	1	-1E+10	1
4901784	140	C	05/05/2019	10:49	-132.813	42.837	0	604.50	0	4.5310	0	35.7930	8	28.364	0	598.838	0	23.8	4	7.7	4	-1E+10	1	-1E+10	1	-1E+10	1	-1E+10	1	-1E+10	1	-1E+10	1
4901784	140	C	05/05/2019	10:49	-132.813	42.837	0	609.70	0	4.5060	0	35.7930	8	28.367	0	603.982	0	24.4	4	7.9	4	-1E+10	1	-1E+10	1	-1E+10	1	-1E+10	1	-1E+10	1	-1E+10	1
4901784	140	C	05/05/2019	10:49	-132.813	42.837	0	615.00	0	4.3940	0	35.7920	8	28.379	0	609.225	0	24.3	4	7.8	4	-1E+10	1	-1E+10	1	-1E+10	1	-1E+10	1	-1E+10	1	-1E+10	1
4901784	140	C	05/05/2019	10:49	-132.813	42.837	0	620.30	0	4.4270	0	35.7980	8	28.380	0	614.467	0	23.8	4	7.7	4	-1E+10	1	-1E+10	1	-1E+10	1	-1E+10	1	-1E+10	1	-1E+10	1
4901784	140	C	05/05/2019	10:49	-132.813	42.837	0	625.70	0	4.3500	0	35.7970	8	28.388	0	619.808	0	23.8	4	7.7	4	-1E+10	1	-1E+10	1	-1E+10	1	-1E+10	1	-1E+10	1	-1E+10	1
4901784	140	C	05/05/2019	10:49	-132.813	42.837	0	630.20	0	4.3260	0	35.8000	8	28.393	0	624.259	0	23.5	4	7.6	4	-1E+10	1	-1E+10	1	-1E+10	1	-1E+10	1	-1E+10	1	-1E+10	1
4901784	140	C	05/05/2019	10:49	-132.813	42.837	0	634.70	0	4.3110	0	35.8040	8	28.398	0	628.710	0	23.0	4	7.4	4	-1E+10	1	-1E+10	1	-1E+10	1	-1E+10	1	-1E+10	1	-1E+10	1
4901784	140	C	05/05/2019	10:49	-132.813	42.837	0	640.10	0	4.3020	0	35.8090	8	28.403	0	634.051	0	22.3	4	7.2	4	-1E+10	1	-1E+10	1	-1E+10	1	-1E+10	1	-1E+10	1	-1E+10	1
4901784	140	C	05/05/2019	10:49	-132.813	42.837	0	645.50	0	4.2760	0	35.8150	8	28.410	0	639.392	0	21.8	4	7.0	4	-1E+10	1	-1E+10	1	-1E+10	1	-1E+10	1	-1E+10	1	-1E+10	1
4901784	140	C	05/05/2019	10:49	-132.813	42.837	0	650.00	0	4.2700	0	35.8180	8	28.414	0	643.842	0	21.2	4	6.8	4	-1E+10	1	-1E+10	1	-1E+10	1	-1E+10	1	-1E+10	1	-1E+10	1
4901784	140	C	05/05/2019	10:49	-132.813	42.837	0	654.50	0	4.2780	0	35.8250	8	28.418	0	648.292	0	20.4	4	6.6	4	-1E+10	1	-1E+10	1	-1E+10	1	-1E+10	1	-1E+10	1	-1E+10	1
4901784	140	C	05/05/2019	10:49	-132.813	42.837	0	659.90	0	4.2790	0	35.8310	8	28.423	0	653.633	0	19.9	4	6.4	4	-1E+10	1	-1E+10	1	-1E+10	1	-1E+10	1	-1E+10	1	-1E+10	1
4901784	140	C	05/05/2019	10:49	-132.813	42.837	0	665.40	0	4.2390	0	35.8350	8	28.431	0	659.072	0	19.9	4	6.4	4	-1E+10	1	-1E+10	1	-1E+10	1	-1E+10	1	-1E+10	1	-1E+10	1
4901784	140	C	05/05/2019	10:49	-132.813	42.837	0	669.90	0	4.2130	0	35.8360	8	28.434	0	663.522	0	19.7	4	6.3	4	-1E+10	1	-1E+10	1	-1E+10	1	-1E+10	1	-1E+10	1	-1E+10	1
4901784	140	C	05/05/2019	10:49	-132.813	42.837	0	674.50	0	4.2100	0	35.8400	8	28.438	0	668.071	0	19.3	4	6.2	4	-1E+10	1	-1E+10	1	-1E+10	1	-1E+10	1	-1E+10	1	-1E+10	1
4901784	140	C	05/05/2019	10:49	-132.813	42.837	0	680.10	0	4.2050	0	35.8430	8	28.441	0	673.608	0	19.0	4	6.1	4	-1E+10	1	-1E+10	1	-1E+10	1	-1E+10	1	-1E+10	1	-1E+10	1
4901784	140	C	05/05/2019	10:49	-132.813	42.837	0	685.60	0	4.1950	0	35.8460	8	28.444	0	679.047	0	18.7	4	6.0	4	-1E+10	1	-1E+10	1	-1E+10	1	-1E+10	1	-1E+10	1	-1E+10	1
4901784	140	C	05/05/2019	10:49	-132.813	42.837	0	690.20	0	4.1860	0	35.8480	8	28.447	0	683.595	0	18.2	4	5.8	4	-1E+10	1	-1E+10	1	-1E+10	1	-1E+10	1	-1E+10	1	-1E+10	1
4901784	140	C	05/05/2019	10:49	-132.813	42.837	0	694.70	0	4.1770	0	35.8560	8	28.454	0	688.045	0	17.4	4	5.6	4	-1E+10	1	-1E+10	1	-1E+10	1	-1E+10	1	-1E+10	1	-1E+10	1
4901784	140	C	05/05/2019	10:49	-132.813	42.837	0	700.30	0	4.2050	0	35.8670	8	28.460	0	693.582	0	16.5	4	5.3	4	-1E+10	1	-1E+10	1	-1E+10	1	-1E+10	1	-1E+10	1	-1E+10	1
4901784	140	C	05/05/2019	10:49	-132.813	42.837	0	705.00	0	4.2130	0	35.8740	8	28.465	0	698.229	0	15.9	4	5.1	4	-1E+10	1	-1E+10	1	-1E+10	1	-1E+10	1	-1E+10	1	-1E+10	1
4901784	140	C	05/05/2019	10:49	-132.813	42.837	0	709.60	0	4.1960	0	35.8790	8	28.471	0	702.777	0	15.5	4	5.0	4	-1E+10	1	-1E+10	1	-1E+10	1	-1E+10	1	-1E+10	1	-1E+10	1
4901784	140	C	05/05/2019	10:49	-132.813	42.837	0	715.00	0	4.1980	0	35.8890	8	28.478	0	708.116	0	15.0	4	4.8	4	-1E+10	1	-1E+10	1	-1E+10	1	-1E+10	1	-1E+10	1	-1E+10	1
4901784	140	C	05/05/2019	10:49	-132.813	42.837	0	719.40	0	4.1500	0	35.8880	8	28.483	0	712.466	0	15.3	4	4.9	4	-1E+10	1	-1E+10	1	-1E+10	1	-1E+10	1	-1E+10	1	-1E+10	1
4901784	140	C	05/05/2019	10:49	-132.813	42.837	0	725.00	0	4.0820	0	35.8910	8	28.493	0	718.002	0	15.2	4	4.9	4	-1E+10	1	-1E+10	1	-1E+10	1	-1E+10	1	-1E+10	1	-1E+10	1
4901784	140	C	05/05/2019	10:49	-132.813	42.837	0	730.60	0	4.0720	0	35.8970	8	28.498	0	723.539	0	14.8	4	4.7	4	-1E+10	1	-1E+10	1	-1E+10	1	-1E+10	1	-1E+10	1	-1E+10	1
4901784	140	C	05/05/2019	10:49	-132.813	42.837	0	735.50	0	4.0630	0	35.9000	8	28.502	0	728.383	0	14.6	4	4.7	4	-1E+10	1	-1E+10	1	-1E+10	1	-1E+10	1	-1E+10	1	-1E+10	1
4901784	140	C	05/05/2019	10:49	-132.813	42.837	0	740.30	0	4.0410	0	35.9060	8	28.509	0	733.128	0	14.3	4	4.6	4	-1E+10	1	-1E+10	1	-1E+10	1	-1E+10	1	-1E+10	1	-1E+10	1
4901784	140	C	05/05/2019	10:49	-132.813	42.837	0	745.30	0	4.0250	0	35.9110	8	28.515	0	738.070	0	14.1	4	4.5	4	-1E+10	1	-1E+10	1	-1E+10	1	-1E+10	1	-1E+10	1	-1E+10	1
4901784	140	C	05/05/2019	10:49	-132.813	42.837	0	750.20	0	4.0330	0	35.9160	8	28.518	0	742.914	0	13.8	4	4.4	4	-1E+10	1	-1E+10	1	-1E+10	1	-1E+10	1	-1E+10	1	-1E+10	1
4901784	140	C	05/05/2019	10:49	-132.813	42.837	0	755.20	0	4.0080	0	35.9210	8	28.525	0	747.857	0	13.6	4	4.4	4	-1E+10	1	-1E+10	1	-1E+10	1	-1E+10	1	-1E+10	1	-1E+10	1
4901784	140	C	05/05/2019	10:49	-132.813	42.837	0	760.20	0	3.9790	0	35.9260	8	28.532	0	752.799	0	13.5	4	4.3	4	-1E+10	1	-1E+10	1	-1E+10	1	-1E+10	1	-1E+10	1	-1E+10	1
4901784	140	C	05/05/2019	10:49	-132.813	42.837	0	765.30	0	3.9710	0	35.9280	8	28.534	0	757.840	0	13.3	4	4.3	4	-1E+10	1	-1E+10	1	-1E+10	1	-1E+10	1	-1E+10	1	-1E+10	1
4901784	140	C	05/05/2019	10:49	-132.813	42.837	0	770.30	0	3.9540	0	35.9310	8	28.538	0	762.782	0	13.2	4	4.2	4	-1E+10	1	-1E+10	1	-1E+10	1	-1E+10	1	-1E+10	1	-1E+10	1
4901784	140	C	05/05/2019	10:49	-132.813	42.837	0	775.50	0	3.9380	0	35.9360	8	28.544	0	767.922	0	13.0	4	4.1	4	-1E+10	1	-1E+10	1	-1E+10	1	-1E+10	1	-1E+10	1	-1E+10	1
4901784	140	C	05/05/2019	10:49	-132.813	42.837	0	780.70	0	3.9100	0	35.9400	8	28.550	0	773.062	0	12.9	4	4.1	4	-1E+10	1	-1E+10	1	-1E+10	1	-1E+10	1	-1E+10	1	-1E+10	1
4901784	140	C	05/05/2019	10:49	-132.813	42.837	0	785.20	0	3.9140	0	35.9440	8	28.553	0	777.509	0	12.7	4	4.1	4	-1E+10	1	-1E+10	1	-1E+10	1	-1E+10	1	-1E+10	1	-1E+10	1
4901784	140	C	05/05/2019	10:49	-132.813	42.837	0	789.60	0	3.9030	0	35.9460	8	28.556	0	781.858	0	12.6	4	4.0	4	-1E+10	1	-1E+10	1	-1E+10	1	-1E+10	1	-1E+10	1	-1E+10	1
4901784	140	C	05/05/2019	10:49	-132.813	42.837	0	795.10	0	3.8940	0	35.9500	8	28.560	0	787.294	0	12.5	4	4.0	4	-1E+10	1	-1E+10	1	-1E+10	1	-1E+10	1	-1E+10	1	-1E+10	1
4901784	140	C	05/05/2019	10:49	-132.813	42.837	0	800.50	0	3.8870	0	35.9520	8	28.562	0	792.630	0	12.4	4	3.9	4	-1E+10	1	-1E+10	1	-1E+10	1	-1E+10	1	-1E+10	1	-1E+10	1
4901784	140	C	05/05/2019	10:49	-132.813	42.837	0	805.10	0	3.8680	0	35.9560	8	28.568	0	797.176	0	12.3	4	3.9	4	-1E+10	1	-1E+10	1	-1E+10	1	-1E+10	1	-1E+10	1	-1E+10	1
4901784	140	C	05/05/2019	10:49	-132.813	42.837	0	809.60	0	3.8560	0	35.9590	8	28.571	0	801.623	0	12.1	4	3.9	4	-1E+10	1	-1E+10	1	-1E+10	1	-1E+10	1	-1E+10	1	-1E+10	1
4901784	140	C	05/05/2019	10:49	-132.813	42.837	0	815.00	0	3.8470	0	35.9630	8	28.576	0	806.960	0	12.0	4	3.8	4	-1E+10	1	-1E+10	1	-1E+10	1	-1E+10	1	-1E+10	1	-1E+10	1
4901784	140	C	05/05/2019	10:49	-132.813	42.837	0	820.40	0	3.8300	0	35.9680	8	28.581	0	812.296	0	11.8	4	3.8	4	-1E+10	1	-1E+10	1	-1E+10	1	-1E+10	1	-1E+10	1	-1E+10	1
4901784	140	C	05/05/2019	10:49	-132.813	42.837	0	825.10	0	3.8070	0	35.9720	8	28.587	0	816.940	0	11.8	4	3.8	4	-1E+10	1	-1E+10	1	-1E+10	1	-1E+10	1	-1E+10	1	-1E+10	1
4901784	140	C	05/05/2019	10:49	-132.813	42.837	0	830.10	0	3.7920	0	35.9750	8	28.591	0	821.881	0	11.7	4	3.7	4	-1E+10	1	-1E+10	1	-1E+10	1	-1E+10	1	-1E+10	1	-1E+10	1
4901784	140	C	05/05/2019	10:49	-132.813	42.837	0	835.10	0	3.7780	0	35.9790	8	28.596	0	826.822	0	11.5	4	3.7	4	-1E+10	1	-1E+10	1	-1E+10	1	-1E+10	1	-1E+10	1	-1E+10	1
4901784	140	C	05/05/2019	10:49	-132.813	42.837	0	839.90	0	3.7680	0	35.9840	8	28.601	0	831.565	0	11.4	4	3.6	4	-1E+10	1	-1E+10	1	-1E+10	1	-1E+10	1	-1E+10	1	-1E+10	1
4901784	140	C	05/05/2019	10:49	-132.813	42.837	0	844.70	0	3.7620	0	35.9870	8	28.604	0	836.307	0	11.3	4	3.6	4	-1E+10	1	-1E+10	1	-1E+10	1	-1E+10	1	-1E+10	1	-1E+10	1
4901784	140	C	05/05/2019	10:49	-132.813	42.837	0	849.50	0	3.7490	0	35.9930	8	28.610	0	841.050	0	11.2	4	3.6	4	-1E+10	1	-1E+10	1	-1E+10	1	-1E+10	1	-1E+10	1	-1E+10	1
4901784	140	C	05/05/2019	10:49	-132.813	42.837	0	854.40	0	3.7380	0	35.9960	8	28.613	0	845.891	0	11.1	4	3.5	4	-1E+10	1	-1E+10	1	-1E+10	1	-1E+10	1	-1E+10	1	-1E+10	1
4901784	140	C	05/05/2019	10:49	-132.813	42.837	0	860.00	0	3.7290	0	36.0000	8	28.618	0	851.424	0	11.0	4	3.5	4	-1E+10	1	-1E+10	1	-1E+10	1	-1E+10	1	-1E+10	1	-1E+10	1
4901784	140	C	05/05/2019	10:49	-132.813	42.837	0	865.70	0	3.7210	0	36.0040	8	28.622	0	857.056	0	10.9	4	3.5	4	-1E+10	1	-1E+10	1	-1E+10	1	-1E+10	1	-1E+10	1	-1E+10	1
4901784	140	C	05/05/2019	10:49	-132.813	42.837	0	870.60	0	3.7160	0	36.0070	8	28.625	0	861.897	0	10.8	4	3.4	4	-1E+10	1	-1E+10	1	-1E+10	1	-1E+10	1	-1E+10	1	-1E+10	1
4901784	140	C	05/05/2019	10:49	-132.813	42.837	0	875.60	0	3.7100	0	36.0100	8	28.628	0	866.836	0	10.8	4	3.4	4	-1E+10	1	-1E+10	1	-1E+10	1	-1E+10	1	-1E+10	1	-1E+10	1
4901784	140	C	05/05/2019	10:49	-132.813	42.837	0	880.70	0	3.7050	0	36.0130	8	28.631	0	871.875	0	10.7	4	3.4	4	-1E+10	1	-1E+10	1	-1E+10	1	-1E+10	1	-1E+10	1	-1E+10	1
4901784	140	C	05/05/2019	10:49	-132.813	42.837	0	885.70	0	3.6970	0	36.0160	8	28.634	0	876.814	0	10.6	4	3.4	4	-1E+10	1	-1E+10	1	-1E+10	1	-1E+10	1	-1E+10	1	-1E+10	1
4901784	140	C	05/05/2019	10:49	-132.813	42.837	0	890.80	0	3.6880	0	36.0200	8	28.638	0	881.852	0	10.6	4	3.4	4	-1E+10	1	-1E+10	1	-1E+10	1	-1E+10	1	-1E+10	1	-1E+10	1
4901784	140	C	05/05/2019	10:49	-132.813	42.837	0	894.90	0	3.6780	0	36.0240	8	28.642	0	885.902	0	10.5	4	3.3	4	-1E+10	1	-1E+10	1	-1E+10	1	-1E+10	1	-1E+10	1	-1E+10	1
4901784	140	C	05/05/2019	10:49	-132.813	42.837	0	899.20	0	3.6690	0	36.0260	8	28.645	0	890.150	0	10.5	4	3.3	4	-1E+10	1	-1E+10	1	-1E+10	1	-1E+10	1	-1E+10	1	-1E+10	1
4901784	140	C	05/05/2019	10:49	-132.813	42.837	0	904.40	0	3.6570	0	36.0300	8	28.649	0	895.286	0	10.4	4	3.3	4	-1E+10	1	-1E+10	1	-1E+10	1	-1E+10	1	-1E+10	1	-1E+10	1
4901784	140	C	05/05/2019	10:49	-132.813	42.837	0	909.50	0	3.6480	0	36.0340	8	28.653	0	900.324	0	10.3	4	3.3	4	-1E+10	1	-1E+10	1	-1E+10	1	-1E+10	1	-1E+10	1	-1E+10	1
4901784	140	C	05/05/2019	10:49	-132.813	42.837	0	914.70	0	3.6310	0	36.0410	8	28.661	0	905.460	0	10.3	4	3.3	4	-1E+10	1	-1E+10	1	-1E+10	1	-1E+10	1	-1E+10	1	-1E+10	1
4901784	140	C	05/05/2019	10:49	-132.813	42.837	0	920.00	0	3.6210	0	36.0430	8	28.663	0	910.695	0	10.3	4	3.3	4	-1E+10	1	-1E+10	1	-1E+10	1	-1E+10	1	-1E+10	1	-1E+10	1
4901784	140	C	05/05/2019	10:49	-132.813	42.837	0	925.30	0	3.6090	0	36.0480	8	28.669	0	915.930	0	10.2	4	3.2	4	-1E+10	1	-1E+10	1	-1E+10	1	-1E+10	1	-1E+10	1	-1E+10	1
4901784	140	C	05/05/2019	10:49	-132.813	42.837	0	930.70	0	3.6010	0	36.0520	8	28.673	0	921.264	0	10.2	4	3.2	4	-1E+10	1	-1E+10	1	-1E+10	1	-1E+10	1	-1E+10	1	-1E+10	1
4901784	140	C	05/05/2019	10:49	-132.813	42.837	0	935.10	0	3.5910	0	36.0560	8	28.677	0	925.609	0	10.2	4	3.2	4	-1E+10	1	-1E+10	1	-1E+10	1	-1E+10	1	-1E+10	1	-1E+10	1
4901784	140	C	05/05/2019	10:49	-132.813	42.837	0	939.60	0	3.5810	0	36.0580	8	28.680	0	930.054	0	10.2	4	3.2	4	-1E+10	1	-1E+10	1	-1E+10	1	-1E+10	1	-1E+10	1	-1E+10	1
4901784	140	C	05/05/2019	10:49	-132.813	42.837	0	945.10	0	3.5760	0	36.0600	8	28.682	0	935.485	0	10.2	4	3.2	4	-1E+10	1	-1E+10	1	-1E+10	1	-1E+10	1	-1E+10	1	-1E+10	1
4901784	140	C	05/05/2019	10:49	-132.813	42.837	0	950.60	0	3.5710	0	36.0630	8	28.685	0	940.917	0	10.2	4	3.2	4	-1E+10	1	-1E+10	1	-1E+10	1	-1E+10	1	-1E+10	1	-1E+10	1
4901784	140	C	05/05/2019	10:49	-132.813	42.837	0	955.20	0	3.5660	0	36.0660	8	28.688	0	945.460	0	10.2	4	3.2	4	-1E+10	1	-1E+10	1	-1E+10	1	-1E+10	1	-1E+10	1	-1E+10	1
4901784	140	C	05/05/2019	10:49	-132.813	42.837	0	959.80	0	3.5610	0	36.0680	8	28.690	0	950.002	0	10.2	4	3.2	4	-1E+10	1	-1E+10	1	-1E+10	1	-1E+10	1	-1E+10	1	-1E+10	1
4901784	140	C	05/05/2019	10:49	-132.813	42.837	0	965.50	0	3.5540	0	36.0710	8	28.693	0	955.631	0	10.2	4	3.2	4	-1E+10	1	-1E+10	1	-1E+10	1	-1E+10	1	-1E+10	1	-1E+10	1
4901784	140	C	05/05/2019	10:49	-132.813	42.837	0	970.10	0	3.5490	0	36.0730	8	28.695	0	960.174	0	10.2	4	3.2	4	-1E+10	1	-1E+10	1	-1E+10	1	-1E+10	1	-1E+10	1	-1E+10	1
4901784	140	C	05/05/2019	10:49	-132.813	42.837	0	974.80	0	3.5290	0	36.0780	8	28.701	0	964.815	0	10.3	4	3.3	4	-1E+10	1	-1E+10	1	-1E+10	1	-1E+10	1	-1E+10	1	-1E+10	1
4901784	140	C	05/05/2019	10:49	-132.813	42.837	0	980.30	0	3.5270	0	36.0800	8	28.703	0	970.246	0	10.3	4	3.3	4	-1E+10	1	-1E+10	1	-1E+10	1	-1E+10	1	-1E+10	1	-1E+10	1
4901784	140	C	05/05/2019	10:49	-132.813	42.837	0	985.00	0	3.5070	0	36.0840	8	28.708	0	974.887	0	10.3	4	3.3	4	-1E+10	1	-1E+10	1	-1E+10	1	-1E+10	1	-1E+10	1	-1E+10	1
4901784	140	C	05/05/2019	10:49	-132.813	42.837	0	989.70	0	3.4950	0	36.0870	8	28.712	0	979.527	0	10.4	4	3.3	4	-1E+10	1	-1E+10	1	-1E+10	1	-1E+10	1	-1E+10	1	-1E+10	1
4901784	140	C	05/05/2019	10:49	-132.813	42.837	0	994.50	0	3.4890	0	36.0910	8	28.716	0	984.267	0	10.4	4	3.3	4	-1E+10	1	-1E+10	1	-1E+10	1	-1E+10	1	-1E+10	1	-1E+10	1
4901784	140	C	05/05/2019	10:49	-132.813	42.837	0	999.20	0	3.4780	0	36.0940	8	28.719	0	988.907	0	10.5	4	3.3	4	-1E+10	1	-1E+10	1	-1E+10	1	-1E+10	1	-1E+10	1	-1E+10	1
4901784	140	C	05/05/2019	10:49	-132.813	42.837	0	1004.50	0	3.4710	0	36.0960	8	28.722	0	994.140	0	10.5	4	3.3	4	-1E+10	1	-1E+10	1	-1E+10	1	-1E+10	1	-1E+10	1	-1E+10	1
4901784	140	C	05/05/2019	10:49	-132.813	42.837	0	1009.40	0	3.4650	0	36.0980	8	28.724	0	998.978	0	10.6	4	3.3	4	-1E+10	1	-1E+10	1	-1E+10	1	-1E+10	1	-1E+10	1	-1E+10	1
4901784	140	C	05/05/2019	10:49	-132.813	42.837	0	1014.30	0	3.4540	0	36.1010	8	28.727	0	1003.816	0	10.6	4	3.4	4	-1E+10	1	-1E+10	1	-1E+10	1	-1E+10	1	-1E+10	1	-1E+10	1
4901784	140	C	05/05/2019	10:49	-132.813	42.837	0	1019.90	0	3.4460	0	36.1040	8	28.731	0	1009.344	0	10.7	4	3.4	4	-1E+10	1	-1E+10	1	-1E+10	1	-1E+10	1	-1E+10	1	-1E+10	1
4901784	140	C	05/05/2019	10:49	-132.813	42.837	0	1025.60	0	3.4290	0	36.1090	8	28.736	0	1014.971	0	10.8	4	3.4	4	-1E+10	1	-1E+10	1	-1E+10	1	-1E+10	1	-1E+10	1	-1E+10	1
4901784	140	C	05/05/2019	10:49	-132.813	42.837	0	1030.60	0	3.4200	0	36.1130	8	28.740	0	1019.908	0	10.9	4	3.4	4	-1E+10	1	-1E+10	1	-1E+10	1	-1E+10	1	-1E+10	1	-1E+10	1
4901784	140	C	05/05/2019	10:49	-132.813	42.837	0	1035.50	0	3.4100	0	36.1140	8	28.742	0	1024.745	0	10.9	4	3.4	4	-1E+10	1	-1E+10	1	-1E+10	1	-1E+10	1	-1E+10	1	-1E+10	1
4901784	140	C	05/05/2019	10:49	-132.813	42.837	0	1040.50	0	3.3910	0	36.1170	8	28.747	0	1029.681	0	11.0	4	3.5	4	-1E+10	1	-1E+10	1	-1E+10	1	-1E+10	1	-1E+10	1	-1E+10	1
4901784	140	C	05/05/2019	10:49	-132.813	42.837	0	1045.50	0	3.3770	0	36.1210	8	28.751	0	1034.616	0	11.1	4	3.5	4	-1E+10	1	-1E+10	1	-1E+10	1	-1E+10	1	-1E+10	1	-1E+10	1
4901784	140	C	05/05/2019	10:49	-132.813	42.837	0	1050.50	0	3.3700	0	36.1230	8	28.754	0	1039.552	0	11.2	4	3.5	4	-1E+10	1	-1E+10	1	-1E+10	1	-1E+10	1	-1E+10	1	-1E+10	1
4901784	140	C	05/05/2019	10:49	-132.813	42.837	0	1055.50	0	3.3630	0	36.1270	8	28.757	0	1044.487	0	11.4	4	3.6	4	-1E+10	1	-1E+10	1	-1E+10	1	-1E+10	1	-1E+10	1	-1E+10	1
4901784	140	C	05/05/2019	10:49	-132.813	42.837	0	1060.50	0	3.3500	0	36.1300	8	28.761	0	1049.423	0	11.5	4	3.6	4	-1E+10	1	-1E+10	1	-1E+10	1	-1E+10	1	-1E+10	1	-1E+10	1
4901784	140	C	05/05/2019	10:49	-132.813	42.837	0	1065.40	0	3.3290	0	36.1360	8	28.768	0	1054.259	0	11.6	4	3.7	4	-1E+10	1	-1E+10	1	-1E+10	1	-1E+10	1	-1E+10	1	-1E+10	1
4901784	140	C	05/05/2019	10:49	-132.813	42.837	0	1070.40	0	3.3170	0	36.1380	8	28.771	0	1059.194	0	11.7	4	3.7	4	-1E+10	1	-1E+10	1	-1E+10	1	-1E+10	1	-1E+10	1	-1E+10	1
4901784	140	C	05/05/2019	10:49	-132.813	42.837	0	1075.40	0	3.2970	0	36.1400	8	28.774	0	1064.129	0	11.7	4	3.7	4	-1E+10	1	-1E+10	1	-1E+10	1	-1E+10	1	-1E+10	1	-1E+10	1
4901784	140	C	05/05/2019	10:49	-132.813	42.837	0	1080.40	0	3.2820	0	36.1420	8	28.778	0	1069.064	0	11.7	4	3.7	4	-1E+10	1	-1E+10	1	-1E+10	1	-1E+10	1	-1E+10	1	-1E+10	1
4901784	140	C	05/05/2019	10:49	-132.813	42.837	0	1085.50	0	3.2700	0	36.1430	8	28.780	0	1074.097	0	11.7	4	3.7	4	-1E+10	1	-1E+10	1	-1E+10	1	-1E+10	1	-1E+10	1	-1E+10	1
4901784	140	C	05/05/2019	10:49	-132.813	42.837	0	1090.50	0	3.2630	0	36.1460	8	28.783	0	1079.032	0	11.8	4	3.7	4	-1E+10	1	-1E+10	1	-1E+10	1	-1E+10	1	-1E+10	1	-1E+10	1
4901784	140	C	05/05/2019	10:49	-132.813	42.837	0	1095.60	0	3.2530	0	36.1470	8	28.785	0	1084.065	0	11.8	4	3.7	4	-1E+10	1	-1E+10	1	-1E+10	1	-1E+10	1	-1E+10	1	-1E+10	1
4901784	140	C	05/05/2019	10:49	-132.813	42.837	0	1100.60	0	3.2380	0	36.1480	8	28.787	0	1089.000	0	11.8	4	3.7	4	-1E+10	1	-1E+10	1	-1E+10	1	-1E+10	1	-1E+10	1	-1E+10	1
4901784	140	C	05/05/2019	10:49	-132.813	42.837	0	1104.90	0	3.2300	0	36.1500	8	28.789	0	1093.243	0	11.9	4	3.7	4	-1E+10	1	-1E+10	1	-1E+10	1	-1E+10	1	-1E+10	1	-1E+10	1
4901784	140	C	05/05/2019	10:49	-132.813	42.837	0	1109.20	0	3.2290	0	36.1520	8	28.791	0	1097.487	0	12.0	4	3.8	4	-1E+10	1	-1E+10	1	-1E+10	1	-1E+10	1	-1E+10	1	-1E+10	1
4901784	140	C	05/05/2019	10:49	-132.813	42.837	0	1114.40	0	3.2240	0	36.1530	8	28.792	0	1102.618	0	12.0	4	3.8	4	-1E+10	1	-1E+10	1	-1E+10	1	-1E+10	1	-1E+10	1	-1E+10	1
4901784	140	C	05/05/2019	10:49	-132.813	42.837	0	1119.60	0	3.2120	0	36.1550	8	28.795	0	1107.749	0	12.2	4	3.8	4	-1E+10	1	-1E+10	1	-1E+10	1	-1E+10	1	-1E+10	1	-1E+10	1
4901784	140	C	05/05/2019	10:49	-132.813	42.837	0	1125.20	0	3.2040	0	36.1570	8	28.798	0	1113.275	0	12.3	4	3.9	4	-1E+10	1	-1E+10	1	-1E+10	1	-1E+10	1	-1E+10	1	-1E+10	1
4901784	140	C	05/05/2019	10:49	-132.813	42.837	0	1129.90	0	3.1970	0	36.1590	8	28.800	0	1117.913	0	12.4	4	3.9	4	-1E+10	1	-1E+10	1	-1E+10	1	-1E+10	1	-1E+10	1	-1E+10	1
4901784	140	C	05/05/2019	10:49	-132.813	42.837	0	1134.70	0	3.1820	0	36.1620	8	28.804	0	1122.649	0	12.5	4	3.9	4	-1E+10	1	-1E+10	1	-1E+10	1	-1E+10	1	-1E+10	1	-1E+10	1
4901784	140	C	05/05/2019	10:49	-132.813	42.837	0	1140.50	0	3.1650	0	36.1650	8	28.808	0	1128.372	0	12.6	4	4.0	4	-1E+10	1	-1E+10	1	-1E+10	1	-1E+10	1	-1E+10	1	-1E+10	1
4901784	140	C	05/05/2019	10:49	-132.813	42.837	0	1145.30	0	3.1520	0	36.1690	8	28.812	0	1133.108	0	12.8	4	4.0	4	-1E+10	1	-1E+10	1	-1E+10	1	-1E+10	1	-1E+10	1	-1E+10	1
4901784	140	C	05/05/2019	10:49	-132.813	42.837	0	1150.20	0	3.1450	0	36.1700	8	28.814	0	1137.943	0	12.9	4	4.1	4	-1E+10	1	-1E+10	1	-1E+10	1	-1E+10	1	-1E+10	1	-1E+10	1
4901784	140	C	05/05/2019	10:49	-132.813	42.837	0	1155.10	0	3.1370	0	36.1720	8	28.816	0	1142.777	0	13.0	4	4.1	4	-1E+10	1	-1E+10	1	-1E+10	1	-1E+10	1	-1E+10	1	-1E+10	1
4901784	140	C	05/05/2019	10:49	-132.813	42.837	0	1160.00	0	3.1280	0	36.1740	8	28.819	0	1147.611	0	13.2	4	4.1	4	-1E+10	1	-1E+10	1	-1E+10	1	-1E+10	1	-1E+10	1	-1E+10	1
4901784	140	C	05/05/2019	10:49	-132.813	42.837	0	1165.30	0	3.1210	0	36.1770	8	28.822	0	1152.840	0	13.4	4	4.2	4	-1E+10	1	-1E+10	1	-1E+10	1	-1E+10	1	-1E+10	1	-1E+10	1
4901784	140	C	05/05/2019	10:49	-132.813	42.837	0	1170.60	0	3.1120	0	36.1790	8	28.824	0	1158.069	0	13.5	4	4.2	4	-1E+10	1	-1E+10	1	-1E+10	1	-1E+10	1	-1E+10	1	-1E+10	1
4901784	140	C	05/05/2019	10:49	-132.813	42.837	0	1175.50	0	3.1020	0	36.1810	8	28.827	0	1162.903	0	13.7	4	4.3	4	-1E+10	1	-1E+10	1	-1E+10	1	-1E+10	1	-1E+10	1	-1E+10	1
4901784	140	C	05/05/2019	10:49	-132.813	42.837	0	1180.50	0	3.0880	0	36.1840	8	28.831	0	1167.836	0	13.9	4	4.4	4	-1E+10	1	-1E+10	1	-1E+10	1	-1E+10	1	-1E+10	1	-1E+10	1
4901784	140	C	05/05/2019	10:49	-132.813	42.837	0	1185.60	0	3.0780	0	36.1860	8	28.833	0	1172.867	0	14.1	4	4.4	4	-1E+10	1	-1E+10	1	-1E+10	1	-1E+10	1	-1E+10	1	-1E+10	1
4901784	140	C	05/05/2019	10:49	-132.813	42.837	0	1190.70	0	3.0720	0	36.1880	8	28.835	0	1177.898	0	14.3	4	4.5	4	-1E+10	1	-1E+10	1	-1E+10	1	-1E+10	1	-1E+10	1	-1E+10	1
4901784	140	C	05/05/2019	10:49	-132.813	42.837	0	1195.80	0	3.0580	0	36.1910	8	28.839	0	1182.928	0	14.5	4	4.5	4	-1E+10	1	-1E+10	1	-1E+10	1	-1E+10	1	-1E+10	1	-1E+10	1
4901784	140	C	05/05/2019	10:49	-132.813	42.837	0	1200.10	0	3.0440	0	36.1930	8	28.842	0	1187.170	0	14.6	4	4.6	4	-1E+10	1	-1E+10	1	-1E+10	1	-1E+10	1	-1E+10	1	-1E+10	1
4901784	140	C	05/05/2019	10:49	-132.813	42.837	0	1204.30	0	3.0310	0	36.1950	8	28.845	0	1191.313	0	14.8	4	4.6	4	-1E+10	1	-1E+10	1	-1E+10	1	-1E+10	1	-1E+10	1	-1E+10	1
4901784	140	C	05/05/2019	10:49	-132.813	42.837	0	1209.50	0	3.0150	0	36.1980	8	28.849	0	1196.442	0	15.0	4	4.7	4	-1E+10	1	-1E+10	1	-1E+10	1	-1E+10	1	-1E+10	1	-1E+10	1
4901784	140	C	05/05/2019	10:49	-132.813	42.837	0	1214.70	0	2.9980	0	36.2010	8	28.853	0	1201.571	0	15.2	4	4.8	4	-1E+10	1	-1E+10	1	-1E+10	1	-1E+10	1	-1E+10	1	-1E+10	1
4901784	140	C	05/05/2019	10:49	-132.813	42.837	0	1220.00	0	2.9890	0	36.2030	8	28.856	0	1206.798	0	15.4	4	4.8	4	-1E+10	1	-1E+10	1	-1E+10	1	-1E+10	1	-1E+10	1	-1E+10	1
4901784	140	C	05/05/2019	10:49	-132.813	42.837	0	1225.30	0	2.9780	0	36.2050	8	28.858	0	1212.026	0	15.6	4	4.9	4	-1E+10	1	-1E+10	1	-1E+10	1	-1E+10	1	-1E+10	1	-1E+10	1
4901784	140	C	05/05/2019	10:49	-132.813	42.837	0	1230.60	0	2.9700	0	36.2070	8	28.861	0	1217.253	0	15.7	4	4.9	4	-1E+10	1	-1E+10	1	-1E+10	1	-1E+10	1	-1E+10	1	-1E+10	1
4901784	140	C	05/05/2019	10:49	-132.813	42.837	0	1235.10	0	2.9620	0	36.2090	8	28.863	0	1221.691	0	15.9	4	5.0	4	-1E+10	1	-1E+10	1	-1E+10	1	-1E+10	1	-1E+10	1	-1E+10	1
4901784	140	C	05/05/2019	10:49	-132.813	42.837	0	1239.60	0	2.9560	0	36.2110	8	28.865	0	1226.129	0	15.9	4	5.0	4	-1E+10	1	-1E+10	1	-1E+10	1	-1E+10	1	-1E+10	1	-1E+10	1
4901784	140	C	05/05/2019	10:49	-132.813	42.837	0	1244.90	0	2.9520	0	36.2110	8	28.866	0	1231.356	0	16.1	4	5.0	4	-1E+10	1	-1E+10	1	-1E+10	1	-1E+10	1	-1E+10	1	-1E+10	1
4901784	140	C	05/05/2019	10:49	-132.813	42.837	0	1250.00	0	2.9400	0	36.2140	8	28.869	0	1236.386	0	16.3	4	5.1	4	-1E+10	1	-1E+10	1	-1E+10	1	-1E+10	1	-1E+10	1	-1E+10	1
4901784	140	C	05/05/2019	10:49	-132.813	42.837	0	1255.10	0	2.9300	0	36.2160	8	28.872	0	1241.415	0	16.5	4	5.2	4	-1E+10	1	-1E+10	1	-1E+10	1	-1E+10	1	-1E+10	1	-1E+10	1
4901784	140	C	05/05/2019	10:49	-132.813	42.837	0	1260.00	0	2.9220	0	36.2170	8	28.873	0	1246.247	0	16.7	4	5.2	4	-1E+10	1	-1E+10	1	-1E+10	1	-1E+10	1	-1E+10	1	-1E+10	1
4901784	140	C	05/05/2019	10:49	-132.813	42.837	0	1265.00	0	2.9120	0	36.2200	8	28.877	0	1251.178	0	16.9	4	5.3	4	-1E+10	1	-1E+10	1	-1E+10	1	-1E+10	1	-1E+10	1	-1E+10	1
4901784	140	C	05/05/2019	10:49	-132.813	42.837	0	1270.10	0	2.9080	0	36.2210	8	28.878	0	1256.207	0	17.0	4	5.3	4	-1E+10	1	-1E+10	1	-1E+10	1	-1E+10	1	-1E+10	1	-1E+10	1
4901784	140	C	05/05/2019	10:49	-132.813	42.837	0	1275.30	0	2.9000	0	36.2220	8	28.879	0	1261.334	0	17.1	4	5.4	4	-1E+10	1	-1E+10	1	-1E+10	1	-1E+10	1	-1E+10	1	-1E+10	1
4901784	140	C	05/05/2019	10:49	-132.813	42.837	0	1280.50	0	2.8930	0	36.2240	8	28.882	0	1266.462	0	17.3	4	5.4	4	-1E+10	1	-1E+10	1	-1E+10	1	-1E+10	1	-1E+10	1	-1E+10	1
4901784	140	C	05/05/2019	10:49	-132.813	42.837	0	1285.60	0	2.8870	0	36.2250	8	28.883	0	1271.491	0	17.4	4	5.4	4	-1E+10	1	-1E+10	1	-1E+10	1	-1E+10	1	-1E+10	1	-1E+10	1
4901784	140	C	05/05/2019	10:49	-132.813	42.837	0	1290.00	0	2.8820	0	36.2260	8	28.884	0	1275.829	0	17.6	4	5.5	4	-1E+10	1	-1E+10	1	-1E+10	1	-1E+10	1	-1E+10	1	-1E+10	1
4901784	140	C	05/05/2019	10:49	-132.813	42.837	0	1294.30	0	2.8720	0	36.2280	8	28.887	0	1280.069	0	17.7	4	5.5	4	-1E+10	1	-1E+10	1	-1E+10	1	-1E+10	1	-1E+10	1	-1E+10	1
4901784	140	C	05/05/2019	10:49	-132.813	42.837	0	1299.60	0	2.8670	0	36.2290	8	28.888	0	1285.294	0	17.8	4	5.6	4	-1E+10	1	-1E+10	1	-1E+10	1	-1E+10	1	-1E+10	1	-1E+10	1
4901784	140	C	05/05/2019	10:49	-132.813	42.837	0	1304.90	0	2.8610	0	36.2300	8	28.890	0	1290.520	0	18.0	4	5.6	4	-1E+10	1	-1E+10	1	-1E+10	1	-1E+10	1	-1E+10	1	-1E+10	1
4901784	140	C	05/05/2019	10:49	-132.813	42.837	0	1310.30	0	2.8470	0	36.2330	8	28.893	0	1295.844	0	18.2	4	5.7	4	-1E+10	1	-1E+10	1	-1E+10	1	-1E+10	1	-1E+10	1	-1E+10	1
4901784	140	C	05/05/2019	10:49	-132.813	42.837	0	1315.60	0	2.8350	0	36.2350	8	28.896	0	1301.069	0	18.4	4	5.7	4	-1E+10	1	-1E+10	1	-1E+10	1	-1E+10	1	-1E+10	1	-1E+10	1
4901784	140	C	05/05/2019	10:49	-132.813	42.837	0	1319.90	0	2.8330	0	36.2360	8	28.897	0	1305.308	0	18.6	4	5.8	4	-1E+10	1	-1E+10	1	-1E+10	1	-1E+10	1	-1E+10	1	-1E+10	1
4901784	140	C	05/05/2019	10:49	-132.813	42.837	0	1324.30	0	2.8210	0	36.2380	8	28.900	0	1309.646	0	18.8	4	5.9	4	-1E+10	1	-1E+10	1	-1E+10	1	-1E+10	1	-1E+10	1	-1E+10	1
4901784	140	C	05/05/2019	10:49	-132.813	42.837	0	1329.70	0	2.8130	0	36.2400	8	28.902	0	1314.969	0	19.0	4	5.9	4	-1E+10	1	-1E+10	1	-1E+10	1	-1E+10	1	-1E+10	1	-1E+10	1
4901784	140	C	05/05/2019	10:49	-132.813	42.837	0	1335.10	0	2.8100	0	36.2400	8	28.903	0	1320.292	0	19.1	4	6.0	4	-1E+10	1	-1E+10	1	-1E+10	1	-1E+10	1	-1E+10	1	-1E+10	1
4901784	140	C	05/05/2019	10:49	-132.813	42.837	0	1340.60	0	2.8000	0	36.2420	8	28.905	0	1325.714	0	19.4	4	6.0	4	-1E+10	1	-1E+10	1	-1E+10	1	-1E+10	1	-1E+10	1	-1E+10	1
4901784	140	C	05/05/2019	10:49	-132.813	42.837	0	1345.10	0	2.7890	0	36.2440	8	28.908	0	1330.150	0	19.6	4	6.1	4	-1E+10	1	-1E+10	1	-1E+10	1	-1E+10	1	-1E+10	1	-1E+10	1
4901784	140	C	05/05/2019	10:49	-132.813	42.837	0	1349.70	0	2.7750	0	36.2460	8	28.911	0	1334.684	0	19.8	4	6.2	4	-1E+10	1	-1E+10	1	-1E+10	1	-1E+10	1	-1E+10	1	-1E+10	1
4901784	140	C	05/05/2019	10:49	-132.813	42.837	0	1355.20	0	2.7670	0	36.2480	8	28.913	0	1340.105	0	20.1	4	6.3	4	-1E+10	1	-1E+10	1	-1E+10	1	-1E+10	1	-1E+10	1	-1E+10	1
4901784	140	C	05/05/2019	10:49	-132.813	42.837	0	1359.80	0	2.7580	0	36.2500	8	28.916	0	1344.640	0	20.3	4	6.3	4	-1E+10	1	-1E+10	1	-1E+10	1	-1E+10	1	-1E+10	1	-1E+10	1
4901784	140	C	05/05/2019	10:49	-132.813	42.837	0	1364.30	0	2.7530	0	36.2510	8	28.917	0	1349.075	0	20.5	4	6.4	4	-1E+10	1	-1E+10	1	-1E+10	1	-1E+10	1	-1E+10	1	-1E+10	1
4901784	140	C	05/05/2019	10:49	-132.813	42.837	0	1369.80	0	2.7450	0	36.2530	8	28.919	0	1354.496	0	20.8	4	6.5	4	-1E+10	1	-1E+10	1	-1E+10	1	-1E+10	1	-1E+10	1	-1E+10	1
4901784	140	C	05/05/2019	10:49	-132.813	42.837	0	1375.10	0	2.7390	0	36.2540	8	28.921	0	1359.720	0	20.9	4	6.5	4	-1E+10	1	-1E+10	1	-1E+10	1	-1E+10	1	-1E+10	1	-1E+10	1
4901784	140	C	05/05/2019	10:49	-132.813	42.837	0	1380.40	0	2.7350	0	36.2550	8	28.922	0	1364.943	0	21.2	4	6.6	4	-1E+10	1	-1E+10	1	-1E+10	1	-1E+10	1	-1E+10	1	-1E+10	1
4901784	140	C	05/05/2019	10:49	-132.813	42.837	0	1385.30	0	2.7260	0	36.2570	8	28.924	0	1369.773	0	21.5	4	6.7	4	-1E+10	1	-1E+10	1	-1E+10	1	-1E+10	1	-1E+10	1	-1E+10	1
4901784	140	C	05/05/2019	10:49	-132.813	42.837	0	1390.10	0	2.7140	0	36.2590	8	28.927	0	1374.503	0	21.9	4	6.8	4	-1E+10	1	-1E+10	1	-1E+10	1	-1E+10	1	-1E+10	1	-1E+10	1
4901784	140	C	05/05/2019	10:49	-132.813	42.837	0	1395.00	0	2.7010	0	36.2610	8	28.930	0	1379.332	0	22.3	4	6.9	4	-1E+10	1	-1E+10	1	-1E+10	1	-1E+10	1	-1E+10	1	-1E+10	1
4901784	140	C	05/05/2019	10:49	-132.813	42.837	0	1399.70	0	2.6830	0	36.2640	8	28.934	0	1383.964	0	22.6	4	7.0	4	-1E+10	1	-1E+10	1	-1E+10	1	-1E+10	1	-1E+10	1	-1E+10	1
4901784	140	C	05/05/2019	10:49	-132.813	42.837	0	1404.60	0	2.6690	0	36.2670	8	28.938	0	1388.793	0	22.8	4	7.1	4	-1E+10	1	-1E+10	1	-1E+10	1	-1E+10	1	-1E+10	1	-1E+10	1
4901784	140	C	05/05/2019	10:49	-132.813	42.837	0	1409.60	0	2.6630	0	36.2680	8	28.939	0	1393.720	0	22.9	4	7.1	4	-1E+10	1	-1E+10	1	-1E+10	1	-1E+10	1	-1E+10	1	-1E+10	1
4901784	140	C	05/05/2019	10:49	-132.813	42.837	0	1414.60	0	2.6570	0	36.2690	8	28.940	0	1398.647	0	23.1	4	7.2	4	-1E+10	1	-1E+10	1	-1E+10	1	-1E+10	1	-1E+10	1	-1E+10	1
4901784	140	C	05/05/2019	10:49	-132.813	42.837	0	1419.60	0	2.6530	0	36.2700	8	28.942	0	1403.574	0	23.2	4	7.2	4	-1E+10	1	-1E+10	1	-1E+10	1	-1E+10	1	-1E+10	1	-1E+10	1
4901784	140	C	05/05/2019	10:49	-132.813	42.837	0	1424.60	0	2.6490	0	36.2710	8	28.943	0	1408.501	0	23.5	4	7.3	4	-1E+10	1	-1E+10	1	-1E+10	1	-1E+10	1	-1E+10	1	-1E+10	1
4901784	140	C	05/05/2019	10:49	-132.813	42.837	0	1429.60	0	2.6390	0	36.2730	8	28.945	0	1413.428	0	23.8	4	7.4	4	-1E+10	1	-1E+10	1	-1E+10	1	-1E+10	1	-1E+10	1	-1E+10	1
4901784	140	C	05/05/2019	10:49	-132.813	42.837	0	1434.60	0	2.6300	0	36.2740	8	28.947	0	1418.354	0	24.2	4	7.5	4	-1E+10	1	-1E+10	1	-1E+10	1	-1E+10	1	-1E+10	1	-1E+10	1
4901784	140	C	05/05/2019	10:49	-132.813	42.837	0	1439.60	0	2.6220	0	36.2760	8	28.949	0	1423.281	0	24.5	4	7.6	4	-1E+10	1	-1E+10	1	-1E+10	1	-1E+10	1	-1E+10	1	-1E+10	1
4901784	140	C	05/05/2019	10:49	-132.813	42.837	0	1444.60	0	2.6080	0	36.2780	8	28.952	0	1428.207	0	24.9	4	7.7	4	-1E+10	1	-1E+10	1	-1E+10	1	-1E+10	1	-1E+10	1	-1E+10	1
4901784	140	C	05/05/2019	10:49	-132.813	42.837	0	1449.60	0	2.5960	0	36.2800	8	28.955	0	1433.134	0	25.3	4	7.8	4	-1E+10	1	-1E+10	1	-1E+10	1	-1E+10	1	-1E+10	1	-1E+10	1
4901784	140	C	05/05/2019	10:49	-132.813	42.837	0	1454.60	0	2.5850	0	36.2820	8	28.957	0	1438.060	0	25.6	4	7.9	4	-1E+10	1	-1E+10	1	-1E+10	1	-1E+10	1	-1E+10	1	-1E+10	1
4901784	140	C	05/05/2019	10:49	-132.813	42.837	0	1459.60	0	2.5800	0	36.2840	8	28.960	0	1442.986	0	25.8	4	8.0	4	-1E+10	1	-1E+10	1	-1E+10	1	-1E+10	1	-1E+10	1	-1E+10	1
4901784	140	C	05/05/2019	10:49	-132.813	42.837	0	1464.80	0	2.5730	0	36.2850	8	28.961	0	1448.109	0	26.2	4	8.1	4	-1E+10	1	-1E+10	1	-1E+10	1	-1E+10	1	-1E+10	1	-1E+10	1
4901784	140	C	05/05/2019	10:49	-132.813	42.837	0	1470.00	0	2.5580	0	36.2870	8	28.964	0	1453.232	0	26.6	4	8.2	4	-1E+10	1	-1E+10	1	-1E+10	1	-1E+10	1	-1E+10	1	-1E+10	1
4901784	140	C	05/05/2019	10:49	-132.813	42.837	0	1475.20	0	2.5500	0	36.2890	8	28.966	0	1458.354	0	26.8	4	8.3	4	-1E+10	1	-1E+10	1	-1E+10	1	-1E+10	1	-1E+10	1	-1E+10	1
4901784	140	C	05/05/2019	10:49	-132.813	42.837	0	1480.40	0	2.5410	0	36.2910	8	28.969	0	1463.477	0	27.2	4	8.4	4	-1E+10	1	-1E+10	1	-1E+10	1	-1E+10	1	-1E+10	1	-1E+10	1
4901784	140	C	05/05/2019	10:49	-132.813	42.837	0	1485.50	0	2.5340	0	36.2910	8	28.969	0	1468.501	0	27.5	4	8.5	4	-1E+10	1	-1E+10	1	-1E+10	1	-1E+10	1	-1E+10	1	-1E+10	1
4901784	140	C	05/05/2019	10:49	-132.813	42.837	0	1490.60	0	2.5200	0	36.2930	8	28.972	0	1473.525	0	27.9	4	8.6	4	-1E+10	1	-1E+10	1	-1E+10	1	-1E+10	1	-1E+10	1	-1E+10	1
4901784	140	C	05/05/2019	10:49	-132.813	42.837	0	1494.90	0	2.5140	0	36.2950	8	28.974	0	1477.761	0	28.2	4	8.7	4	-1E+10	1	-1E+10	1	-1E+10	1	-1E+10	1	-1E+10	1	-1E+10	1
4901784	140	C	05/05/2019	10:49	-132.813	42.837	0	1499.30	0	2.5000	0	36.2970	8	28.977	0	1482.095	0	28.5	4	8.8	4	-1E+10	1	-1E+10	1	-1E+10	1	-1E+10	1	-1E+10	1	-1E+10	1
4901784	140	C	05/05/2019	10:49	-132.813	42.837	0	1504.60	0	2.4900	0	36.2990	8	28.980	0	1487.315	0	28.9	4	8.9	4	-1E+10	1	-1E+10	1	-1E+10	1	-1E+10	1	-1E+10	1	-1E+10	1
4901784	140	C	05/05/2019	10:49	-132.813	42.837	0	1509.80	0	2.4760	0	36.3010	8	28.983	0	1492.437	0	29.2	4	9.0	4	-1E+10	1	-1E+10	1	-1E+10	1	-1E+10	1	-1E+10	1	-1E+10	1
4901784	140	C	05/05/2019	10:49	-132.813	42.837	0	1515.10	0	2.4680	0	36.3020	8	28.984	0	1497.657	0	29.5	4	9.1	4	-1E+10	1	-1E+10	1	-1E+10	1	-1E+10	1	-1E+10	1	-1E+10	1
4901784	140	C	05/05/2019	10:49	-132.813	42.837	0	1520.40	0	2.4590	0	36.3040	8	28.987	0	1502.878	0	29.8	4	9.2	4	-1E+10	1	-1E+10	1	-1E+10	1	-1E+10	1	-1E+10	1	-1E+10	1
4901784	140	C	05/05/2019	10:49	-132.813	42.837	0	1525.70	0	2.4510	0	36.3050	8	28.988	0	1508.098	0	30.0	4	9.3	4	-1E+10	1	-1E+10	1	-1E+10	1	-1E+10	1	-1E+10	1	-1E+10	1
4901784	140	C	05/05/2019	10:49	-132.813	42.837	0	1530.10	0	2.4450	0	36.3060	8	28.990	0	1512.431	0	30.2	4	9.3	4	-1E+10	1	-1E+10	1	-1E+10	1	-1E+10	1	-1E+10	1	-1E+10	1
4901784	140	C	05/05/2019	10:49	-132.813	42.837	0	1534.50	0	2.4380	0	36.3070	8	28.991	0	1516.765	0	30.5	4	9.4	4	-1E+10	1	-1E+10	1	-1E+10	1	-1E+10	1	-1E+10	1	-1E+10	1
4901784	140	C	05/05/2019	10:49	-132.813	42.837	0	1539.80	0	2.4260	0	36.3090	8	28.994	0	1521.984	0	30.8	4	9.5	4	-1E+10	1	-1E+10	1	-1E+10	1	-1E+10	1	-1E+10	1	-1E+10	1
4901784	140	C	05/05/2019	10:49	-132.813	42.837	0	1545.10	0	2.4200	0	36.3110	8	28.996	0	1527.204	0	31.1	4	9.6	4	-1E+10	1	-1E+10	1	-1E+10	1	-1E+10	1	-1E+10	1	-1E+10	1
4901784	140	C	05/05/2019	10:49	-132.813	42.837	0	1550.50	0	2.4160	0	36.3120	8	28.997	0	1532.522	0	31.5	4	9.7	4	-1E+10	1	-1E+10	1	-1E+10	1	-1E+10	1	-1E+10	1	-1E+10	1
4901784	140	C	05/05/2019	10:49	-132.813	42.837	0	1555.00	0	2.4110	0	36.3130	8	28.998	0	1536.953	0	31.7	4	9.8	4	-1E+10	1	-1E+10	1	-1E+10	1	-1E+10	1	-1E+10	1	-1E+10	1
4901784	140	C	05/05/2019	10:49	-132.813	42.837	0	1559.50	0	2.4030	0	36.3150	8	29.001	0	1541.385	0	31.9	4	9.9	4	-1E+10	1	-1E+10	1	-1E+10	1	-1E+10	1	-1E+10	1	-1E+10	1
4901784	140	C	05/05/2019	10:49	-132.813	42.837	0	1564.90	0	2.3970	0	36.3160	8	29.002	0	1546.702	0	32.2	4	9.9	4	-1E+10	1	-1E+10	1	-1E+10	1	-1E+10	1	-1E+10	1	-1E+10	1
4901784	140	C	05/05/2019	10:49	-132.813	42.837	0	1570.20	0	2.3860	0	36.3170	8	29.004	0	1551.921	0	32.6	4	10.1	4	-1E+10	1	-1E+10	1	-1E+10	1	-1E+10	1	-1E+10	1	-1E+10	1
4901784	140	C	05/05/2019	10:49	-132.813	42.837	0	1575.60	0	2.3780	0	36.3190	8	29.006	0	1557.238	0	33.0	4	10.2	4	-1E+10	1	-1E+10	1	-1E+10	1	-1E+10	1	-1E+10	1	-1E+10	1
4901784	140	C	05/05/2019	10:49	-132.813	42.837	0	1580.40	0	2.3750	0	36.3200	8	29.007	0	1561.965	0	33.4	4	10.3	4	-1E+10	1	-1E+10	1	-1E+10	1	-1E+10	1	-1E+10	1	-1E+10	1
4901784	140	C	05/05/2019	10:49	-132.813	42.837	0	1585.30	0	2.3670	0	36.3220	8	29.010	0	1566.789	0	33.8	4	10.4	4	-1E+10	1	-1E+10	1	-1E+10	1	-1E+10	1	-1E+10	1	-1E+10	1
4901784	140	C	05/05/2019	10:49	-132.813	42.837	0	1590.10	0	2.3600	0	36.3230	8	29.011	0	1571.516	0	34.1	4	10.5	4	-1E+10	1	-1E+10	1	-1E+10	1	-1E+10	1	-1E+10	1	-1E+10	1
4901784	140	C	05/05/2019	10:49	-132.813	42.837	0	1595.00	0	2.3560	0	36.3240	8	29.012	0	1576.340	0	34.3	4	10.6	4	-1E+10	1	-1E+10	1	-1E+10	1	-1E+10	1	-1E+10	1	-1E+10	1
4901784	140	C	05/05/2019	10:49	-132.813	42.837	0	1599.90	0	2.3520	0	36.3250	8	29.013	0	1581.164	0	34.6	4	10.7	4	-1E+10	1	-1E+10	1	-1E+10	1	-1E+10	1	-1E+10	1	-1E+10	1
4901784	140	C	05/05/2019	10:49	-132.813	42.837	0	1604.90	0	2.3430	0	36.3260	8	29.015	0	1586.087	0	35.0	4	10.8	4	-1E+10	1	-1E+10	1	-1E+10	1	-1E+10	1	-1E+10	1	-1E+10	1
4901784	140	C	05/05/2019	10:49	-132.813	42.837	0	1609.80	0	2.3350	0	36.3270	8	29.017	0	1590.911	0	35.2	4	10.8	4	-1E+10	1	-1E+10	1	-1E+10	1	-1E+10	1	-1E+10	1	-1E+10	1
4901784	140	C	05/05/2019	10:49	-132.813	42.837	0	1614.80	0	2.3320	0	36.3280	8	29.018	0	1595.834	0	35.3	4	10.9	4	-1E+10	1	-1E+10	1	-1E+10	1	-1E+10	1	-1E+10	1	-1E+10	1
4901784	140	C	05/05/2019	10:49	-132.813	42.837	0	1619.90	0	2.3290	0	36.3290	8	29.019	0	1600.855	0	35.5	4	10.9	4	-1E+10	1	-1E+10	1	-1E+10	1	-1E+10	1	-1E+10	1	-1E+10	1
4901784	140	C	05/05/2019	10:49	-132.813	42.837	0	1625.00	0	2.3220	0	36.3300	8	29.020	0	1605.875	0	35.9	4	11.0	4	-1E+10	1	-1E+10	1	-1E+10	1	-1E+10	1	-1E+10	1	-1E+10	1
4901784	140	C	05/05/2019	10:49	-132.813	42.837	0	1630.00	0	2.3130	0	36.3320	8	29.023	0	1610.798	0	36.3	4	11.2	4	-1E+10	1	-1E+10	1	-1E+10	1	-1E+10	1	-1E+10	1	-1E+10	1
4901784	140	C	05/05/2019	10:49	-132.813	42.837	0	1635.10	0	2.3010	0	36.3340	8	29.025	0	1615.818	0	36.7	4	11.3	4	-1E+10	1	-1E+10	1	-1E+10	1	-1E+10	1	-1E+10	1	-1E+10	1
4901784	140	C	05/05/2019	10:49	-132.813	42.837	0	1640.30	0	2.2960	0	36.3350	8	29.026	0	1620.937	0	37.0	4	11.4	4	-1E+10	1	-1E+10	1	-1E+10	1	-1E+10	1	-1E+10	1	-1E+10	1
4901784	140	C	05/05/2019	10:49	-132.813	42.837	0	1645.40	0	2.2880	0	36.3360	8	29.028	0	1625.957	0	37.4	4	11.5	4	-1E+10	1	-1E+10	1	-1E+10	1	-1E+10	1	-1E+10	1	-1E+10	1
4901784	140	C	05/05/2019	10:49	-132.813	42.837	0	1650.60	0	2.2780	0	36.3380	8	29.031	0	1631.076	0	37.7	4	11.6	4	-1E+10	1	-1E+10	1	-1E+10	1	-1E+10	1	-1E+10	1	-1E+10	1
4901784	140	C	05/05/2019	10:49	-132.813	42.837	0	1655.00	0	2.2740	0	36.3390	8	29.032	0	1635.407	0	37.9	4	11.7	4	-1E+10	1	-1E+10	1	-1E+10	1	-1E+10	1	-1E+10	1	-1E+10	1
4901784	140	C	05/05/2019	10:49	-132.813	42.837	0	1659.30	0	2.2700	0	36.3400	8	29.033	0	1639.639	0	38.1	4	11.7	4	-1E+10	1	-1E+10	1	-1E+10	1	-1E+10	1	-1E+10	1	-1E+10	1
4901784	140	C	05/05/2019	10:49	-132.813	42.837	0	1664.50	0	2.2610	0	36.3420	8	29.035	0	1644.757	0	38.5	4	11.8	4	-1E+10	1	-1E+10	1	-1E+10	1	-1E+10	1	-1E+10	1	-1E+10	1
4901784	140	C	05/05/2019	10:49	-132.813	42.837	0	1669.80	0	2.2580	0	36.3420	8	29.036	0	1649.974	0	38.7	4	11.9	4	-1E+10	1	-1E+10	1	-1E+10	1	-1E+10	1	-1E+10	1	-1E+10	1
4901784	140	C	05/05/2019	10:49	-132.813	42.837	0	1675.10	0	2.2510	0	36.3440	8	29.038	0	1655.190	0	39.1	4	12.0	4	-1E+10	1	-1E+10	1	-1E+10	1	-1E+10	1	-1E+10	1	-1E+10	1
4901784	140	C	05/05/2019	10:49	-132.813	42.837	0	1680.40	0	2.2460	0	36.3450	8	29.039	0	1660.406	0	39.3	4	12.1	4	-1E+10	1	-1E+10	1	-1E+10	1	-1E+10	1	-1E+10	1	-1E+10	1
4901784	140	C	05/05/2019	10:49	-132.813	42.837	0	1684.90	0	2.2420	0	36.3460	8	29.040	0	1664.835	0	39.6	4	12.2	4	-1E+10	1	-1E+10	1	-1E+10	1	-1E+10	1	-1E+10	1	-1E+10	1
4901784	140	C	05/05/2019	10:49	-132.813	42.837	0	1689.50	0	2.2370	0	36.3470	8	29.041	0	1669.362	0	39.9	4	12.3	4	-1E+10	1	-1E+10	1	-1E+10	1	-1E+10	1	-1E+10	1	-1E+10	1
4901784	140	C	05/05/2019	10:49	-132.813	42.837	0	1694.90	0	2.2290	0	36.3480	8	29.043	0	1674.677	0	40.3	4	12.4	4	-1E+10	1	-1E+10	1	-1E+10	1	-1E+10	1	-1E+10	1	-1E+10	1
4901784	140	C	05/05/2019	10:49	-132.813	42.837	0	1700.40	0	2.2230	0	36.3490	8	29.044	0	1680.089	0	40.7	4	12.5	4	-1E+10	1	-1E+10	1	-1E+10	1	-1E+10	1	-1E+10	1	-1E+10	1
4901784	140	C	05/05/2019	10:49	-132.813	42.837	0	1705.00	0	2.2150	0	36.3510	8	29.047	0	1684.616	0	41.1	4	12.6	4	-1E+10	1	-1E+10	1	-1E+10	1	-1E+10	1	-1E+10	1	-1E+10	1
4901784	140	C	05/05/2019	10:49	-132.813	42.837	0	1709.50	0	2.2050	0	36.3530	8	29.049	0	1689.044	0	41.5	4	12.7	4	-1E+10	1	-1E+10	1	-1E+10	1	-1E+10	1	-1E+10	1	-1E+10	1
4901784	140	C	05/05/2019	10:49	-132.813	42.837	0	1715.00	0	2.1980	0	36.3540	8	29.051	0	1694.457	0	41.8	4	12.8	4	-1E+10	1	-1E+10	1	-1E+10	1	-1E+10	1	-1E+10	1	-1E+10	1
4901784	140	C	05/05/2019	10:49	-132.813	42.837	0	1720.40	0	2.1930	0	36.3550	8	29.052	0	1699.770	0	42.2	4	13.0	4	-1E+10	1	-1E+10	1	-1E+10	1	-1E+10	1	-1E+10	1	-1E+10	1
4901784	140	C	05/05/2019	10:49	-132.813	42.837	0	1725.30	0	2.1840	0	36.3570	8	29.054	0	1704.592	0	42.6	4	13.1	4	-1E+10	1	-1E+10	1	-1E+10	1	-1E+10	1	-1E+10	1	-1E+10	1
4901784	140	C	05/05/2019	10:49	-132.813	42.837	0	1730.20	0	2.1780	0	36.3580	8	29.056	0	1709.413	0	42.9	4	13.2	4	-1E+10	1	-1E+10	1	-1E+10	1	-1E+10	1	-1E+10	1	-1E+10	1
4901784	140	C	05/05/2019	10:49	-132.813	42.837	0	1735.10	0	2.1730	0	36.3590	8	29.057	0	1714.235	0	43.2	4	13.3	4	-1E+10	1	-1E+10	1	-1E+10	1	-1E+10	1	-1E+10	1	-1E+10	1
4901784	140	C	05/05/2019	10:49	-132.813	42.837	0	1740.10	0	2.1650	0	36.3610	8	29.059	0	1719.154	0	43.6	4	13.4	4	-1E+10	1	-1E+10	1	-1E+10	1	-1E+10	1	-1E+10	1	-1E+10	1
4901784	140	C	05/05/2019	10:49	-132.813	42.837	0	1745.00	0	2.1610	0	36.3620	8	29.060	0	1723.975	0	43.9	4	13.5	4	-1E+10	1	-1E+10	1	-1E+10	1	-1E+10	1	-1E+10	1	-1E+10	1
4901784	140	C	05/05/2019	10:49	-132.813	42.837	0	1750.00	0	2.1530	0	36.3630	8	29.062	0	1728.895	0	44.2	4	13.6	4	-1E+10	1	-1E+10	1	-1E+10	1	-1E+10	1	-1E+10	1	-1E+10	1
4901784	140	C	05/05/2019	10:49	-132.813	42.837	0	1755.00	0	2.1490	0	36.3640	8	29.063	0	1733.814	0	44.5	4	13.6	4	-1E+10	1	-1E+10	1	-1E+10	1	-1E+10	1	-1E+10	1	-1E+10	1
4901784	140	C	05/05/2019	10:49	-132.813	42.837	0	1760.10	0	2.1430	0	36.3650	8	29.064	0	1738.832	0	44.7	4	13.7	4	-1E+10	1	-1E+10	1	-1E+10	1	-1E+10	1	-1E+10	1	-1E+10	1
4901784	140	C	05/05/2019	10:49	-132.813	42.837	0	1765.20	0	2.1390	0	36.3660	8	29.065	0	1743.849	0	45.0	4	13.8	4	-1E+10	1	-1E+10	1	-1E+10	1	-1E+10	1	-1E+10	1	-1E+10	1
4901784	140	C	05/05/2019	10:49	-132.813	42.837	0	1770.30	0	2.1350	0	36.3670	8	29.067	0	1748.866	0	45.3	4	13.9	4	-1E+10	1	-1E+10	1	-1E+10	1	-1E+10	1	-1E+10	1	-1E+10	1
4901784	140	C	05/05/2019	10:49	-132.813	42.837	0	1775.30	0	2.1300	0	36.3680	8	29.068	0	1753.785	0	45.6	4	14.0	4	-1E+10	1	-1E+10	1	-1E+10	1	-1E+10	1	-1E+10	1	-1E+10	1
4901784	140	C	05/05/2019	10:49	-132.813	42.837	0	1780.40	0	2.1250	0	36.3700	8	29.070	0	1758.802	0	45.9	4	14.1	4	-1E+10	1	-1E+10	1	-1E+10	1	-1E+10	1	-1E+10	1	-1E+10	1
4901784	140	C	05/05/2019	10:49	-132.813	42.837	0	1785.60	0	2.1220	0	36.3700	8	29.070	0	1763.918	0	46.1	4	14.1	4	-1E+10	1	-1E+10	1	-1E+10	1	-1E+10	1	-1E+10	1	-1E+10	1
4901784	140	C	05/05/2019	10:49	-132.813	42.837	0	1790.70	0	2.1160	0	36.3720	8	29.072	0	1768.934	0	46.4	4	14.2	4	-1E+10	1	-1E+10	1	-1E+10	1	-1E+10	1	-1E+10	1	-1E+10	1
4901784	140	C	05/05/2019	10:49	-132.813	42.837	0	1795.00	0	2.1120	0	36.3720	8	29.073	0	1773.164	0	46.6	4	14.3	4	-1E+10	1	-1E+10	1	-1E+10	1	-1E+10	1	-1E+10	1	-1E+10	1
4901784	140	C	05/05/2019	10:49	-132.813	42.837	0	1799.30	0	2.1080	0	36.3730	8	29.074	0	1777.394	0	46.9	4	14.4	4	-1E+10	1	-1E+10	1	-1E+10	1	-1E+10	1	-1E+10	1	-1E+10	1
4901784	140	C	05/05/2019	10:49	-132.813	42.837	0	1804.50	0	2.1040	0	36.3740	8	29.075	0	1782.509	0	47.1	4	14.4	4	-1E+10	1	-1E+10	1	-1E+10	1	-1E+10	1	-1E+10	1	-1E+10	1
4901784	140	C	05/05/2019	10:49	-132.813	42.837	0	1809.70	0	2.1000	0	36.3750	8	29.076	0	1787.624	0	47.4	4	14.5	4	-1E+10	1	-1E+10	1	-1E+10	1	-1E+10	1	-1E+10	1	-1E+10	1
4901784	140	C	05/05/2019	10:49	-132.813	42.837	0	1814.90	0	2.0940	0	36.3760	8	29.078	0	1792.738	0	47.7	4	14.6	4	-1E+10	1	-1E+10	1	-1E+10	1	-1E+10	1	-1E+10	1	-1E+10	1
4901784	140	C	05/05/2019	10:49	-132.813	42.837	0	1820.20	0	2.0880	0	36.3770	8	29.079	0	1797.951	0	48.2	4	14.8	4	-1E+10	1	-1E+10	1	-1E+10	1	-1E+10	1	-1E+10	1	-1E+10	1
4901784	140	C	05/05/2019	10:49	-132.813	42.837	0	1825.40	0	2.0790	0	36.3790	8	29.081	0	1803.066	0	48.6	4	14.9	4	-1E+10	1	-1E+10	1	-1E+10	1	-1E+10	1	-1E+10	1	-1E+10	1
4901784	140	C	05/05/2019	10:49	-132.813	42.837	0	1830.70	0	2.0730	0	36.3800	8	29.083	0	1808.278	0	48.9	4	15.0	4	-1E+10	1	-1E+10	1	-1E+10	1	-1E+10	1	-1E+10	1	-1E+10	1
4901784	140	C	05/05/2019	10:49	-132.813	42.837	0	1835.00	0	2.0690	0	36.3810	8	29.084	0	1812.507	0	49.2	4	15.1	4	-1E+10	1	-1E+10	1	-1E+10	1	-1E+10	1	-1E+10	1	-1E+10	1
4901784	140	C	05/05/2019	10:49	-132.813	42.837	0	1839.40	0	2.0660	0	36.3820	8	29.085	0	1816.835	0	49.4	4	15.1	4	-1E+10	1	-1E+10	1	-1E+10	1	-1E+10	1	-1E+10	1	-1E+10	1
4901784	140	C	05/05/2019	10:49	-132.813	42.837	0	1844.70	0	2.0630	0	36.3830	8	29.086	0	1822.047	0	49.7	4	15.2	4	-1E+10	1	-1E+10	1	-1E+10	1	-1E+10	1	-1E+10	1	-1E+10	1
4901784	140	C	05/05/2019	10:49	-132.813	42.837	0	1850.10	0	2.0570	0	36.3850	8	29.088	0	1827.357	0	50.1	4	15.3	4	-1E+10	1	-1E+10	1	-1E+10	1	-1E+10	1	-1E+10	1	-1E+10	1
4901784	140	C	05/05/2019	10:49	-132.813	42.837	0	1855.40	0	2.0530	0	36.3860	8	29.089	0	1832.569	0	50.5	4	15.5	4	-1E+10	1	-1E+10	1	-1E+10	1	-1E+10	1	-1E+10	1	-1E+10	1
4901784	140	C	05/05/2019	10:49	-132.813	42.837	0	1859.90	0	2.0470	0	36.3870	8	29.091	0	1836.995	0	50.8	4	15.6	4	-1E+10	1	-1E+10	1	-1E+10	1	-1E+10	1	-1E+10	1	-1E+10	1
4901784	140	C	05/05/2019	10:49	-132.813	42.837	0	1864.40	0	2.0420	0	36.3880	8	29.092	0	1841.420	0	51.1	4	15.6	4	-1E+10	1	-1E+10	1	-1E+10	1	-1E+10	1	-1E+10	1	-1E+10	1
4901784	140	C	05/05/2019	10:49	-132.813	42.837	0	1869.80	0	2.0380	0	36.3890	8	29.093	0	1846.730	0	51.5	4	15.8	4	-1E+10	1	-1E+10	1	-1E+10	1	-1E+10	1	-1E+10	1	-1E+10	1
4901784	140	C	05/05/2019	10:49	-132.813	42.837	0	1875.20	0	2.0290	0	36.3900	8	29.095	0	1852.039	0	51.9	4	15.9	4	-1E+10	1	-1E+10	1	-1E+10	1	-1E+10	1	-1E+10	1	-1E+10	1
4901784	140	C	05/05/2019	10:49	-132.813	42.837	0	1879.80	0	2.0250	0	36.3920	8	29.097	0	1856.563	0	52.2	4	16.0	4	-1E+10	1	-1E+10	1	-1E+10	1	-1E+10	1	-1E+10	1	-1E+10	1
4901784	140	C	05/05/2019	10:49	-132.813	42.837	0	1884.40	0	2.0210	0	36.3920	8	29.097	0	1861.086	0	52.5	4	16.1	4	-1E+10	1	-1E+10	1	-1E+10	1	-1E+10	1	-1E+10	1	-1E+10	1
4901784	140	C	05/05/2019	10:49	-132.813	42.837	0	1889.90	0	2.0150	0	36.3940	8	29.099	0	1866.493	0	52.9	4	16.2	4	-1E+10	1	-1E+10	1	-1E+10	1	-1E+10	1	-1E+10	1	-1E+10	1
4901784	140	C	05/05/2019	10:49	-132.813	42.837	0	1895.40	0	2.0110	0	36.3950	8	29.100	0	1871.901	0	53.1	4	16.2	4	-1E+10	1	-1E+10	1	-1E+10	1	-1E+10	1	-1E+10	1	-1E+10	1
4901784	140	C	05/05/2019	10:49	-132.813	42.837	0	1900.00	0	2.0070	0	36.3960	8	29.101	0	1876.424	0	53.3	4	16.3	4	-1E+10	1	-1E+10	1	-1E+10	1	-1E+10	1	-1E+10	1	-1E+10	1
4901784	140	C	05/05/2019	10:49	-132.813	42.837	0	1904.70	0	2.0040	0	36.3970	8	29.102	0	1881.045	0	53.5	4	16.4	4	-1E+10	1	-1E+10	1	-1E+10	1	-1E+10	1	-1E+10	1	-1E+10	1
4901784	140	C	05/05/2019	10:49	-132.813	42.837	0	1910.30	0	2.0020	0	36.3970	8	29.103	0	1886.550	0	53.7	4	16.4	4	-1E+10	1	-1E+10	1	-1E+10	1	-1E+10	1	-1E+10	1	-1E+10	1
4901784	140	C	05/05/2019	10:49	-132.813	42.837	0	1914.50	0	2.0000	0	36.3980	8	29.104	0	1890.680	0	53.9	4	16.5	4	-1E+10	1	-1E+10	1	-1E+10	1	-1E+10	1	-1E+10	1	-1E+10	1
4901784	140	C	05/05/2019	10:49	-132.813	42.837	0	1919.50	0	1.9970	0	36.3990	8	29.105	0	1895.595	0	54.1	4	16.5	4	-1E+10	1	-1E+10	1	-1E+10	1	-1E+10	1	-1E+10	1	-1E+10	1
4901784	140	C	05/05/2019	10:49	-132.813	42.837	0	1924.50	0	1.9940	0	36.4000	8	29.106	0	1900.511	0	54.4	4	16.6	4	-1E+10	1	-1E+10	1	-1E+10	1	-1E+10	1	-1E+10	1	-1E+10	1
4901784	140	C	05/05/2019	10:49	-132.813	42.837	0	1929.50	0	1.9890	0	36.4010	8	29.107	0	1905.426	0	54.7	4	16.7	4	-1E+10	1	-1E+10	1	-1E+10	1	-1E+10	1	-1E+10	1	-1E+10	1
4901784	140	C	05/05/2019	10:49	-132.813	42.837	0	1934.50	0	1.9860	0	36.4020	8	29.108	0	1910.341	0	55.0	4	16.8	4	-1E+10	1	-1E+10	1	-1E+10	1	-1E+10	1	-1E+10	1	-1E+10	1
4901784	140	C	05/05/2019	10:49	-132.813	42.837	0	1939.50	0	1.9810	0	36.4030	8	29.109	0	1915.256	0	55.4	4	16.9	4	-1E+10	1	-1E+10	1	-1E+10	1	-1E+10	1	-1E+10	1	-1E+10	1
4901784	140	C	05/05/2019	10:49	-132.813	42.837	0	1944.60	0	1.9770	0	36.4040	8	29.111	0	1920.269	0	55.7	4	17.0	4	-1E+10	1	-1E+10	1	-1E+10	1	-1E+10	1	-1E+10	1	-1E+10	1
4901784	140	C	05/05/2019	10:49	-132.813	42.837	0	1949.70	0	1.9740	0	36.4050	8	29.112	0	1925.282	0	56.0	4	17.1	4	-1E+10	1	-1E+10	1	-1E+10	1	-1E+10	1	-1E+10	1	-1E+10	1
4901784	140	C	05/05/2019	10:49	-132.813	42.837	0	1954.90	0	1.9700	0	36.4060	8	29.113	0	1930.394	0	56.2	4	17.2	4	-1E+10	1	-1E+10	1	-1E+10	1	-1E+10	1	-1E+10	1	-1E+10	1
4901784	140	C	05/05/2019	10:49	-132.813	42.837	0	1960.10	0	1.9670	0	36.4070	8	29.114	0	1935.505	0	56.5	4	17.3	4	-1E+10	1	-1E+10	1	-1E+10	1	-1E+10	1	-1E+10	1	-1E+10	1
4901784	140	C	05/05/2019	10:49	-132.813	42.837	0	1965.30	0	1.9640	0	36.4070	8	29.114	0	1940.616	0	56.9	4	17.4	4	-1E+10	1	-1E+10	1	-1E+10	1	-1E+10	1	-1E+10	1	-1E+10	1
4901784	140	C	05/05/2019	10:49	-132.813	42.837	0	1970.50	0	1.9580	0	36.4090	8	29.116	0	1945.727	0	57.3	4	17.5	4	-1E+10	1	-1E+10	1	-1E+10	1	-1E+10	1	-1E+10	1	-1E+10	1
4901784	140	C	05/05/2019	10:49	-132.813	42.837	0	1974.90	0	1.9530	0	36.4100	8	29.118	0	1950.052	0	57.7	4	17.6	4	-1E+10	1	-1E+10	1	-1E+10	1	-1E+10	1	-1E+10	1	-1E+10	1
4901784	140	C	05/05/2019	10:49	-132.813	42.837	0	1979.30	0	1.9490	0	36.4110	8	29.119	0	1954.376	0	57.9	4	17.7	4	-1E+10	1	-1E+10	1	-1E+10	1	-1E+10	1	-1E+10	1	-1E+10	1
4901784	140	C	05/05/2019	10:49	-132.813	42.837	0	1984.60	0	1.9460	0	36.4120	8	29.120	0	1959.585	0	58.1	4	17.7	4	-1E+10	1	-1E+10	1	-1E+10	1	-1E+10	1	-1E+10	1	-1E+10	1
4901784	140	C	05/05/2019	10:49	-132.813	42.837	0	1989.90	0	1.9440	0	36.4130	8	29.121	0	1964.794	0	58.3	4	17.8	4	-1E+10	1	-1E+10	1	-1E+10	1	-1E+10	1	-1E+10	1	-1E+10	1
4901784	140	C	05/05/2019	10:49	-132.813	42.837	0	1995.30	0	1.9430	0	36.4140	8	29.122	0	1970.101	0	58.4	4	17.8	4	-1E+10	1	-1E+10	1	-1E+10	1	-1E+10	1	-1E+10	1	-1E+10	1
4901784	140	C	05/05/2019	10:49	-132.813	42.837	0	2000.60	0	1.9410	0	36.4140	8	29.122	0	1975.309	0	58.6	4	17.9	4	-1E+10	1	-1E+10	1	-1E+10	1	-1E+10	1	-1E+10	1	-1E+10	1
4901784	140	C	05/05/2019	10:49	-132.813	42.837	0	2005.60	0	1.9380	0	36.4150	8	29.123	0	1980.223	0	58.9	4	18.0	4	-1E+10	1	-1E+10	1	-1E+10	1	-1E+10	1	-1E+10	1	-1E+10	1
4901784	140	C	05/05/2019	10:49	-132.813	42.837	0	2009.70	0	1.9340	0	36.4150	8	29.123	0	1984.252	0	59.1	4	18.1	4	-1E+10	1	-1E+10	1	-1E+10	1	-1E+10	1	-1E+10	1	-1E+10	1
4901784	140	C	05/05/2019	10:49	-132.813	42.837	0	2014.80	0	1.9310	0	36.4160	8	29.124	0	1989.264	0	59.2	4	18.1	4	-1E+10	1	-1E+10	1	-1E+10	1	-1E+10	1	-1E+10	1	-1E+10	1
4901784	140	C	05/05/2019	10:49	-132.813	42.837	0	2019.50	0	1.9310	0	36.4170	8	29.125	0	1993.882	0	59.3	4	18.1	4	-1E+10	1	-1E+10	1	-1E+10	1	-1E+10	1	-1E+10	1	-1E+10	1
4901784	140	C	05/05/2019	10:49	-132.813	42.837	0																										
4901784	141	C	05/15/2019	10:43	-132.732	42.830	0	2.10	0	11.6470	0	33.9090	8	25.808	0	2.083	0	262.6	4	98.2	4	-1E+10	1	-1E+10	1	-1E+10	1	-1E+10	1	-1E+10	1	-1E+10	1
4901784	141	C	05/15/2019	10:43	-132.732	42.830	0	3.80	0	11.6100	0	33.9120	8	25.818	0	3.770	0	262.8	4	98.3	4	-1E+10	1	-1E+10	1	-1E+10	1	-1E+10	1	-1E+10	1	-1E+10	1
4901784	141	C	05/15/2019	10:43	-132.732	42.830	0	5.50	0	11.4950	0	33.9150	8	25.841	0	5.456	0	263.2	4	98.2	4	-1E+10	1	-1E+10	1	-1E+10	1	-1E+10	1	-1E+10	1	-1E+10	1
4901784	141	C	05/15/2019	10:43	-132.732	42.830	0	7.10	0	11.4210	0	33.9180	8	25.857	0	7.044	0	263.6	4	98.2	4	-1E+10	1	-1E+10	1	-1E+10	1	-1E+10	1	-1E+10	1	-1E+10	1
4901784	141	C	05/15/2019	10:43	-132.732	42.830	0	9.00	0	11.4070	0	33.9190	8	25.861	0	8.929	0	263.8	4	98.2	4	-1E+10	1	-1E+10	1	-1E+10	1	-1E+10	1	-1E+10	1	-1E+10	1
4901784	141	C	05/15/2019	10:43	-132.732	42.830	0	10.80	0	11.3980	0	33.9200	8	25.863	0	10.714	0	263.8	4	98.2	4	-1E+10	1	-1E+10	1	-1E+10	1	-1E+10	1	-1E+10	1	-1E+10	1
4901784	141	C	05/15/2019	10:43	-132.732	42.830	0	12.60	0	11.3950	0	33.9210	8	25.864	0	12.500	0	263.9	4	98.2	4	-1E+10	1	-1E+10	1	-1E+10	1	-1E+10	1	-1E+10	1	-1E+10	1
4901784	141	C	05/15/2019	10:43	-132.732	42.830	0	14.50	0	11.3900	0	33.9220	8	25.866	0	14.385	0	263.6	4	98.1	4	-1E+10	1	-1E+10	1	-1E+10	1	-1E+10	1	-1E+10	1	-1E+10	1
4901784	141	C	05/15/2019	10:43	-132.732	42.830	0	16.30	0	11.3860	0	33.9220	8	25.867	0	16.170	0	263.7	4	98.1	4	-1E+10	1	-1E+10	1	-1E+10	1	-1E+10	1	-1E+10	1	-1E+10	1
4901784	141	C	05/15/2019	10:43	-132.732	42.830	0	18.30	0	11.3800	0	33.9230	8	25.869	0	18.154	0	263.7	4	98.1	4	-1E+10	1	-1E+10	1	-1E+10	1	-1E+10	1	-1E+10	1	-1E+10	1
4901784	141	C	05/15/2019	10:43	-132.732	42.830	0	20.10	0	11.3680	0	33.9230	8	25.871	0	19.940	0	263.5	4	98.0	4	-1E+10	1	-1E+10	1	-1E+10	1	-1E+10	1	-1E+10	1	-1E+10	1
4901784	141	C	05/15/2019	10:43	-132.732	42.830	0	22.00	0	11.3530	0	33.9250	8	25.875	0	21.825	0	263.2	4	97.9	4	-1E+10	1	-1E+10	1	-1E+10	1	-1E+10	1	-1E+10	1	-1E+10	1
4901784	141	C	05/15/2019	10:43	-132.732	42.830	0	24.00	0	11.3200	0	33.9270	8	25.883	0	23.809	0	263.3	4	97.8	4	-1E+10	1	-1E+10	1	-1E+10	1	-1E+10	1	-1E+10	1	-1E+10	1
4901784	141	C	05/15/2019	10:43	-132.732	42.830	0	25.90	0	11.2700	0	33.9300	8	25.895	0	25.693	0	263.4	4	97.8	4	-1E+10	1	-1E+10	1	-1E+10	1	-1E+10	1	-1E+10	1	-1E+10	1
4901784	141	C	05/15/2019	10:43	-132.732	42.830	0	27.80	0	11.2320	0	33.9310	8	25.902	0	27.578	0	263.4	4	97.7	4	-1E+10	1	-1E+10	1	-1E+10	1	-1E+10	1	-1E+10	1	-1E+10	1
4901784	141	C	05/15/2019	10:43	-132.732	42.830	0	29.70	0	11.2210	0	33.9320	8	25.905	0	29.463	0	263.5	4	97.7	4	-1E+10	1	-1E+10	1	-1E+10	1	-1E+10	1	-1E+10	1	-1E+10	1
4901784	141	C	05/15/2019	10:43	-132.732	42.830	0	32.10	0	11.2030	0	33.9320	8	25.908	0	31.843	0	263.4	4	97.7	4	-1E+10	1	-1E+10	1	-1E+10	1	-1E+10	1	-1E+10	1	-1E+10	1
4901784	141	C	05/15/2019	10:43	-132.732	42.830	0	34.00	0	11.1950	0	33.9320	8	25.910	0	33.728	0	263.3	4	97.6	4	-1E+10	1	-1E+10	1	-1E+10	1	-1E+10	1	-1E+10	1	-1E+10	1
4901784	141	C	05/15/2019	10:43	-132.732	42.830	0	35.60	0	11.1900	0	33.9320	8	25.911	0	35.315	0	263.2	4	97.5	4	-1E+10	1	-1E+10	1	-1E+10	1	-1E+10	1	-1E+10	1	-1E+10	1
4901784	141	C	05/15/2019	10:43	-132.732	42.830	0	37.20	0	11.1850	0	33.9310	8	25.911	0	36.902	0	262.9	4	97.4	4	-1E+10	1	-1E+10	1	-1E+10	1	-1E+10	1	-1E+10	1	-1E+10	1
4901784	141	C	05/15/2019	10:43	-132.732	42.830	0	38.70	0	11.1830	0	33.9290	8	25.910	0	38.390	0	262.8	4	97.4	4	-1E+10	1	-1E+10	1	-1E+10	1	-1E+10	1	-1E+10	1	-1E+10	1
4901784	141	C	05/15/2019	10:43	-132.732	42.830	0	40.10	0	11.1680	0	33.9260	8	25.910	0	39.779	0	262.8	4	97.4	4	-1E+10	1	-1E+10	1	-1E+10	1	-1E+10	1	-1E+10	1	-1E+10	1
4901784	141	C	05/15/2019	10:43	-132.732	42.830	0	41.60	0	11.1000	0	33.9360	8	25.930	0	41.266	0	262.6	4	97.1	4	-1E+10	1	-1E+10	1	-1E+10	1	-1E+10	1	-1E+10	1	-1E+10	1
4901784	141	C	05/15/2019	10:43	-132.732	42.830	0	43.20	0	10.9770	0	33.9480	8	25.962	0	42.853	0	262.2	4	96.8	4	-1E+10	1	-1E+10	1	-1E+10	1	-1E+10	1	-1E+10	1	-1E+10	1
4901784	141	C	05/15/2019	10:43	-132.732	42.830	0	44.90	0	10.7390	0	33.9780	8	26.028	0	44.540	0	262.8	4	96.5	4	-1E+10	1	-1E+10	1	-1E+10	1	-1E+10	1	-1E+10	1	-1E+10	1
4901784	141	C	05/15/2019	10:43	-132.732	42.830	0	46.60	0	10.6990	0	33.9730	8	26.031	0	46.226	0	262.7	4	96.4	4	-1E+10	1	-1E+10	1	-1E+10	1	-1E+10	1	-1E+10	1	-1E+10	1
4901784	141	C	05/15/2019	10:43	-132.732	42.830	0	48.20	0	10.6750	0	33.9700	8	26.033	0	47.813	0	262.7	4	96.4	4	-1E+10	1	-1E+10	1	-1E+10	1	-1E+10	1	-1E+10	1	-1E+10	1
4901784	141	C	05/15/2019	10:43	-132.732	42.830	0	50.00	0	10.5560	0	33.9630	8	26.048	0	49.598	0	263.0	4	96.2	4	-1E+10	1	-1E+10	1	-1E+10	1	-1E+10	1	-1E+10	1	-1E+10	1
4901784	141	C	05/15/2019	10:43	-132.732	42.830	0	51.60	0	10.5070	0	33.9600	8	26.054	0	51.185	0	263.1	4	96.1	4	-1E+10	1	-1E+10	1	-1E+10	1	-1E+10	1	-1E+10	1	-1E+10	1
4901784	141	C	05/15/2019	10:43	-132.732	42.830	0	53.30	0	10.4990	0	33.9600	8	26.056	0	52.871	0	262.9	4	96.1	4	-1E+10	1	-1E+10	1	-1E+10	1	-1E+10	1	-1E+10	1	-1E+10	1
4901784	141	C	05/15/2019	10:43	-132.732	42.830	0	55.00	0	10.4480	0	33.9550	8	26.061	0	54.557	0	263.0	4	96.0	4	-1E+10	1	-1E+10	1	-1E+10	1	-1E+10	1	-1E+10	1	-1E+10	1
4901784	141	C	05/15/2019	10:43	-132.732	42.830	0	56.70	0	10.4190	0	33.9540	8	26.065	0	56.243	0	263.0	4	95.9	4	-1E+10	1	-1E+10	1	-1E+10	1	-1E+10	1	-1E+10	1	-1E+10	1
4901784	141	C	05/15/2019	10:43	-132.732	42.830	0	58.40	0	10.3530	0	33.9540	8	26.076	0	57.929	0	262.9	4	95.7	4	-1E+10	1	-1E+10	1	-1E+10	1	-1E+10	1	-1E+10	1	-1E+10	1
4901784	141	C	05/15/2019	10:43	-132.732	42.830	0	60.10	0	10.3450	0	33.9510	8	26.076	0	59.615	0	263.1	4	95.8	4	-1E+10	1	-1E+10	1	-1E+10	1	-1E+10	1	-1E+10	1	-1E+10	1
4901784	141	C	05/15/2019	10:43	-132.732	42.830	0	61.80	0	10.3450	0	33.9530	8	26.077	0	61.301	0	262.8	4	95.7	4	-1E+10	1	-1E+10	1	-1E+10	1	-1E+10	1	-1E+10	1	-1E+10	1
4901784	141	C	05/15/2019	10:43	-132.732	42.830	0	63.50	0	10.3100	0	33.9560	8	26.086	0	62.987	0	263.0	4	95.7	4	-1E+10	1	-1E+10	1	-1E+10	1	-1E+10	1	-1E+10	1	-1E+10	1
4901784	141	C	05/15/2019	10:43	-132.732	42.830	0	65.30	0	10.2880	0	33.9570	8	26.090	0	64.773	0	263.2	4	95.7	4	-1E+10	1	-1E+10	1	-1E+10	1	-1E+10	1	-1E+10	1	-1E+10	1
4901784	141	C	05/15/2019	10:43	-132.732	42.830	0	67.10	0	10.1730	0	33.9370	8	26.094	0	66.558	0	263.8	4	95.7	4	-1E+10	1	-1E+10	1	-1E+10	1	-1E+10	1	-1E+10	1	-1E+10	1
4901784	141	C	05/15/2019	10:43	-132.732	42.830	0	68.80	0	10.1450	0	33.9350	8	26.097	0	68.244	0	263.7	4	95.6	4	-1E+10	1	-1E+10	1	-1E+10	1	-1E+10	1	-1E+10	1	-1E+10	1
4901784	141	C	05/15/2019	10:43	-132.732	42.830	0	70.60	0	10.1290	0	33.9340	8	26.099	0	70.029	0	263.4	4	95.5	4	-1E+10	1	-1E+10	1	-1E+10	1	-1E+10	1	-1E+10	1	-1E+10	1
4901784	141	C	05/15/2019	10:43	-132.732	42.830	0	72.40	0	10.1180	0	33.9350	8	26.102	0	71.814	0	263.0	4	95.3	4	-1E+10	1	-1E+10	1	-1E+10	1	-1E+10	1	-1E+10	1	-1E+10	1
4901784	141	C	05/15/2019	10:43	-132.732	42.830	0	74.10	0	10.1030	0	33.9360	8	26.106	0	73.500	0	262.7	4	95.1	4	-1E+10	1	-1E+10	1	-1E+10	1	-1E+10	1	-1E+10	1	-1E+10	1
4901784	141	C	05/15/2019	10:43	-132.732	42.830	0	75.80	0	10.1000	0	33.9380	8	26.108	0	75.186	0	262.2	4	94.9	4	-1E+10	1	-1E+10	1	-1E+10	1	-1E+10	1	-1E+10	1	-1E+10	1
4901784	141	C	05/15/2019	10:43	-132.732	42.830	0	77.70	0	10.1150	0	33.9440	8	26.110	0	77.070	0	261.5	4	94.7	4	-1E+10	1	-1E+10	1	-1E+10	1	-1E+10	1	-1E+10	1	-1E+10	1
4901784	141	C	05/15/2019	10:43	-132.732	42.830	0	79.40	0	10.1370	0	33.9530	8	26.113	0	78.756	0	260.6	4	94.5	4	-1E+10	1	-1E+10	1	-1E+10	1	-1E+10	1	-1E+10	1	-1E+10	1
4901784	141	C	05/15/2019	10:43	-132.732	42.830	0	81.20	0	10.1190	0	33.9510	8	26.115	0	80.541	0	260.3	4	94.3	4	-1E+10	1	-1E+10	1	-1E+10	1	-1E+10	1	-1E+10	1	-1E+10	1
4901784	141	C	05/15/2019	10:43	-132.732	42.830	0	82.90	0	10.1450	0	33.9580	8	26.116	0	82.227	0	259.3	4	94.0	4	-1E+10	1	-1E+10	1	-1E+10	1	-1E+10	1	-1E+10	1	-1E+10	1
4901784	141	C	05/15/2019	10:43	-132.732	42.830	0	84.70	0	10.1330	0	33.9590	8	26.119	0	84.012	0	258.7	4	93.8	4	-1E+10	1	-1E+10	1	-1E+10	1	-1E+10	1	-1E+10	1	-1E+10	1
4901784	141	C	05/15/2019	10:43	-132.732	42.830	0	86.50	0	10.0640	0	33.9600	8	26.131	0	85.797	0	258.1	4	93.4	4	-1E+10	1	-1E+10	1	-1E+10	1	-1E+10	1	-1E+10	1	-1E+10	1
4901784	141	C	05/15/2019	10:43	-132.732	42.830	0	88.30	0	10.0300	0	33.9600	8	26.137	0	87.582	0	257.5	4	93.1	4	-1E+10	1	-1E+10	1	-1E+10	1	-1E+10	1	-1E+10	1	-1E+10	1
4901784	141	C	05/15/2019	10:43	-132.732	42.830	0	90.00	0	9.9770	0	33.9550	8	26.142	0	89.268	0	257.0	4	92.9	4	-1E+10	1	-1E+10	1	-1E+10	1	-1E+10	1	-1E+10	1	-1E+10	1
4901784	141	C	05/15/2019	10:43	-132.732	42.830	0	91.80	0	9.9320	0	33.9580	8	26.152	0	91.053	0	256.3	4	92.5	4	-1E+10	1	-1E+10	1	-1E+10	1	-1E+10	1	-1E+10	1	-1E+10	1
4901784	141	C	05/15/2019	10:43	-132.732	42.830	0	93.60	0	9.8740	0	33.9660	8	26.168	0	92.838	0	255.8	4	92.2	4	-1E+10	1	-1E+10	1	-1E+10	1	-1E+10	1	-1E+10	1	-1E+10	1
4901784	141	C	05/15/2019	10:43	-132.732	42.830	0	95.40	0	9.8390	0	33.9600	8	26.169	0	94.623	0	255.4	4	92.0	4	-1E+10	1	-1E+10	1	-1E+10	1	-1E+10	1	-1E+10	1	-1E+10	1
4901784	141	C	05/15/2019	10:43	-132.732	42.830	0	97.30	0	9.7710	0	33.9660	8	26.185	0	96.507	0	254.9	4	91.7	4	-1E+10	1	-1E+10	1	-1E+10	1	-1E+10	1	-1E+10	1	-1E+10	1
4901784	141	C	05/15/2019	10:43	-132.732	42.830	0	99.10	0	9.7460	0	33.9680	8	26.191	0	98.292	0	253.4	4	91.1	4	-1E+10	1	-1E+10	1	-1E+10	1	-1E+10	1	-1E+10	1	-1E+10	1
4901784	141	C	05/15/2019	10:43	-132.732	42.830	0	102.60	0	9.5230	0	34.0020	8	26.254	0	101.762	0	250.9	4	89.8	4	-1E+10	1	-1E+10	1	-1E+10	1	-1E+10	1	-1E+10	1	-1E+10	1
4901784	141	C	05/15/2019	10:43	-132.732	42.830	0	104.50	0	9.4280	0	34.0090	8	26.275	0	103.646	0	251.2	4	89.7	4	-1E+10	1	-1E+10	1	-1E+10	1	-1E+10	1	-1E+10	1	-1E+10	1
4901784	141	C	05/15/2019	10:43	-132.732	42.830	0	107.30	0	9.3450	0	34.0200	8	26.298	0	106.423	0	249.9	4	89.1	4	-1E+10	1	-1E+10	1	-1E+10	1	-1E+10	1	-1E+10	1	-1E+10	1
4901784	141	C	05/15/2019	10:43	-132.732	42.830	0	110.10	0	9.3010	0	34.0190	8	26.304	0	109.199	0	248.5	4	88.5	4	-1E+10	1	-1E+10	1	-1E+10	1	-1E+10	1	-1E+10	1	-1E+10	1
4901784	141	C	05/15/2019	10:43	-132.732	42.830	0	111.90	0	9.2040	0	34.0370	8	26.334	0	110.984	0	247.4	4	87.9	4	-1E+10	1	-1E+10	1	-1E+10	1	-1E+10	1	-1E+10	1	-1E+10	1
4901784	141	C	05/15/2019	10:43	-132.732	42.830	0	115.00	0	9.0340	0	34.0730	8	26.389	0	114.058	0	246.0	4	87.1	4	-1E+10	1	-1E+10	1	-1E+10	1	-1E+10	1	-1E+10	1	-1E+10	1
4901784	141	C	05/15/2019	10:43	-132.732	42.830	0	117.40	0	8.9900	0	34.0800	8	26.402	0	116.437	0	244.6	4	86.5	4	-1E+10	1	-1E+10	1	-1E+10	1	-1E+10	1	-1E+10	1	-1E+10	1
4901784	141	C	05/15/2019	10:43	-132.732	42.830	0	120.30	0	8.8350	0	34.1150	8	26.454	0	119.313	0	241.8	4	85.3	4	-1E+10	1	-1E+10	1	-1E+10	1	-1E+10	1	-1E+10	1	-1E+10	1
4901784	141	C	05/15/2019	10:43	-132.732	42.830	0	122.50	0	8.6700	0	34.1600	8	26.515	0	121.494	0	239.8	4	84.3	4	-1E+10	1	-1E+10	1	-1E+10	1	-1E+10	1	-1E+10	1	-1E+10	1
4901784	141	C	05/15/2019	10:43	-132.732	42.830	0	124.70	0	8.5910	0	34.1740	8	26.538	0	123.675	0	237.4	4	83.3	4	-1E+10	1	-1E+10	1	-1E+10	1	-1E+10	1	-1E+10	1	-1E+10	1
4901784	141	C	05/15/2019	10:43	-132.732	42.830	0	127.10	0	8.3230	0	34.2510	8	26.639	0	126.055	0	234.7	4	81.9	4	-1E+10	1	-1E+10	1	-1E+10	1	-1E+10	1	-1E+10	1	-1E+10	1
4901784	141	C	05/15/2019	10:43	-132.732	42.830	0	129.70	0	8.1180	0	34.3290	8	26.731	0	128.632	0	233.4	4	81.2	4	-1E+10	1	-1E+10	1	-1E+10	1	-1E+10	1	-1E+10	1	-1E+10	1
4901784	141	C	05/15/2019	10:43	-132.732	42.830	0	132.30	0	7.9530	0	34.3990	8	26.811	0	131.210	0	231.8	4	80.3	4	-1E+10	1	-1E+10	1	-1E+10	1	-1E+10	1	-1E+10	1	-1E+10	1
4901784	141	C	05/15/2019	10:43	-132.732	42.830	0	134.90	0	7.8010	0	34.4710	8	26.890	0	133.788	0	231.1	4	79.9	4	-1E+10	1	-1E+10	1	-1E+10	1	-1E+10	1	-1E+10	1	-1E+10	1
4901784	141	C	05/15/2019	10:43	-132.732	42.830	0	137.20	0	7.7630	0	34.5160	8	26.931	0	136.068	0	230.5	4	79.6	4	-1E+10	1	-1E+10	1	-1E+10	1	-1E+10	1	-1E+10	1	-1E+10	1
4901784	141	C	05/15/2019	10:43	-132.732	42.830	0	140.10	0	7.7560	0	34.5310	8	26.944	0	138.943	0	229.2	4	79.2	4	-1E+10	1	-1E+10	1	-1E+10	1	-1E+10	1	-1E+10	1	-1E+10	1
4901784	141	C	05/15/2019	10:43	-132.732	42.830	0	143.00	0	7.7200	0	34.5680	8	26.978	0	141.818	0	227.6	4	78.6	4	-1E+10	1	-1E+10	1	-1E+10	1	-1E+10	1	-1E+10	1	-1E+10	1
4901784	141	C	05/15/2019	10:43	-132.732	42.830	0	145.20	0	7.7090	0	34.5920	8	26.999	0	144.000	0	226.0	4	78.0	4	-1E+10	1	-1E+10	1	-1E+10	1	-1E+10	1	-1E+10	1	-1E+10	1
4901784	141	C	05/15/2019	10:43	-132.732	42.830	0	147.30	0	7.7060	0	34.6380	8	27.035	0	146.081	0	224.2	4	77.4	4	-1E+10	1	-1E+10	1	-1E+10	1	-1E+10	1	-1E+10	1	-1E+10	1
4901784	141	C	05/15/2019	10:43	-132.732	42.830	0	150.20	0	7.7660	0	34.6980	8	27.074	0	148.956	0	221.1	4	76.5	4	-1E+10	1	-1E+10	1	-1E+10	1	-1E+10	1	-1E+10	1	-1E+10	1
4901784	141	C	05/15/2019	10:43	-132.732	42.830	0	152.50	0	7.8140	0	34.7730	8	27.126	0	151.236	0	218.1	4	75.6	4	-1E+10	1	-1E+10	1	-1E+10	1	-1E+10	1	-1E+10	1	-1E+10	1
4901784	141	C	05/15/2019	10:43	-132.732	42.830	0	155.00	0	7.8380	0	34.8510	8	27.184	0	153.715	0	215.7	4	74.8	4	-1E+10	1	-1E+10	1	-1E+10	1	-1E+10	1	-1E+10	1	-1E+10	1
4901784	141	C	05/15/2019	10:43	-132.732	42.830	0	157.40	0	7.8590	0	34.8970	8	27.217	0	156.094	0	213.7	4	74.2	4	-1E+10	1	-1E+10	1	-1E+10	1	-1E+10	1	-1E+10	1	-1E+10	1
4901784	141	C	05/15/2019	10:43	-132.732	42.830	0	159.80	0	7.8630	0	34.9170	8	27.232	0	158.473	0	211.6	4	73.5	4	-1E+10	1	-1E+10	1	-1E+10	1	-1E+10	1	-1E+10	1	-1E+10	1
4901784	141	C	05/15/2019	10:43	-132.732	42.830	0	162.30	0	7.8780	0	34.9650	8	27.267	0	160.951	0	208.8	4	72.6	4	-1E+10	1	-1E+10	1	-1E+10	1	-1E+10	1	-1E+10	1	-1E+10	1
4901784	141	C	05/15/2019	10:43	-132.732	42.830	0	164.90	0	7.8960	0	35.0090	8	27.299	0	163.529	0	205.5	4	71.5	4	-1E+10	1	-1E+10	1	-1E+10	1	-1E+10	1	-1E+10	1	-1E+10	1
4901784	141	C	05/15/2019	10:43	-132.732	42.830	0	167.60	0	7.9330	0	35.0640	8	27.337	0	166.205	0	202.0	4	70.3	4	-1E+10	1	-1E+10	1	-1E+10	1	-1E+10	1	-1E+10	1	-1E+10	1
4901784	141	C	05/15/2019	10:43	-132.732	42.830	0	170.30	0	7.9770	0	35.1080	8	27.365	0	168.882	0	197.7	4	68.9	4	-1E+10	1	-1E+10	1	-1E+10	1	-1E+10	1	-1E+10	1	-1E+10	1
4901784	141	C	05/15/2019	10:43	-132.732	42.830	0	173.00	0	8.0440	0	35.1760	8	27.408	0	171.558	0	193.0	4	67.4	4	-1E+10	1	-1E+10	1	-1E+10	1	-1E+10	1	-1E+10	1	-1E+10	1
4901784	141	C	05/15/2019	10:43	-132.732	42.830	0	175.30	0	8.1080	0	35.2400	8	27.449	0	173.838	0	189.3	4	66.2	4	-1E+10	1	-1E+10	1	-1E+10	1	-1E+10	1	-1E+10	1	-1E+10	1
4901784	141	C	05/15/2019	10:43	-132.732	42.830	0	177.90	0	8.1520	0	35.2770	8	27.472	0	176.415	0	184.8	4	64.8	4	-1E+10	1	-1E+10	1	-1E+10	1	-1E+10	1	-1E+10	1	-1E+10	1
4901784	141	C	05/15/2019	10:43	-132.732	42.830	0	180.10	0	8.1890	0	35.3170	8	27.497	0	178.596	0	181.4	4	63.6	4	-1E+10	1	-1E+10	1	-1E+10	1	-1E+10	1	-1E+10	1	-1E+10	1
4901784	141	C	05/15/2019	10:43	-132.732	42.830	0	182.40	0	8.2200	0	35.3500	8	27.519	0	180.876	0	177.8	4	62.4	4	-1E+10	1	-1E+10	1	-1E+10	1	-1E+10	1	-1E+10	1	-1E+10	1
4901784	141	C	05/15/2019	10:43	-132.732	42.830	0	185.40	0	8.2600	0	35.4110	8	27.560	0	183.849	0	172.9	4	60.8	4	-1E+10	1	-1E+10	1	-1E+10	1	-1E+10	1	-1E+10	1	-1E+10	1
4901784	141	C	05/15/2019	10:43	-132.732	42.830	0	187.80	0	8.2730	0	35.4370	8	27.579	0	186.228	0	170.9	4	60.1	4	-1E+10	1	-1E+10	1	-1E+10	1	-1E+10	1	-1E+10	1	-1E+10	1
4901784	141	C	05/15/2019	10:43	-132.732	42.830	0	190.30	0	8.2720	0	35.4500	8	27.589	0	188.706	0	169.7	4	59.7	4	-1E+10	1	-1E+10	1	-1E+10	1	-1E+10	1	-1E+10	1	-1E+10	1
4901784	141	C	05/15/2019	10:43	-132.732	42.830	0	192.80	0	8.2640	0	35.4700	8	27.606	0	191.184	0	168.9	4	59.4	4	-1E+10	1	-1E+10	1	-1E+10	1	-1E+10	1	-1E+10	1	-1E+10	1
4901784	141	C	05/15/2019	10:43	-132.732	42.830	0	195.30	0	8.2520	0	35.4780	8	27.614	0	193.662	0	168.2	4	59.2	4	-1E+10	1	-1E+10	1	-1E+10	1	-1E+10	1	-1E+10	1	-1E+10	1
4901784	141	C	05/15/2019	10:43	-132.732	42.830	0	197.70	0	8.2370	0	35.4870	8	27.624	0	196.041	0	166.9	4	58.7	4	-1E+10	1	-1E+10	1	-1E+10	1	-1E+10	1	-1E+10	1	-1E+10	1
4901784	141	C	05/15/2019	10:43	-132.732	42.830	0	200.20	0	8.2100	0	35.5000	8	27.638	0	198.518	0	166.2	4	58.4	4	-1E+10	1	-1E+10	1	-1E+10	1	-1E+10	1	-1E+10	1	-1E+10	1
4901784	141	C	05/15/2019	10:43	-132.732	42.830	0	202.70	0	8.1910	0	35.5060	8	27.646	0	200.996	0	165.8	4	58.3	4	-1E+10	1	-1E+10	1	-1E+10	1	-1E+10	1	-1E+10	1	-1E+10	1
4901784	141	C	05/15/2019	10:43	-132.732	42.830	0	205.20	0	8.1760	0	35.5110	8	27.652	0	203.474	0	165.2	4	58.0	4	-1E+10	1	-1E+10	1	-1E+10	1	-1E+10	1	-1E+10	1	-1E+10	1
4901784	141	C	05/15/2019	10:43	-132.732	42.830	0	207.70	0	8.1620	0	35.5130	8	27.656	0	205.952	0	164.4	4	57.7	4	-1E+10	1	-1E+10	1	-1E+10	1	-1E+10	1	-1E+10	1	-1E+10	1
4901784	141	C	05/15/2019	10:43	-132.732	42.830	0	210.20	0	8.1370	0	35.5170	8	27.663	0	208.429	0	164.0	4	57.5	4	-1E+10	1	-1E+10	1	-1E+10	1	-1E+10	1	-1E+10	1	-1E+10	1
4901784	141	C	05/15/2019	10:43	-132.732	42.830	0	212.70	0	8.1340	0	35.5180	8	27.664	0	210.907	0	163.7	4	57.4	4	-1E+10	1	-1E+10	1	-1E+10	1	-1E+10	1	-1E+10	1	-1E+10	1
4901784	141	C	05/15/2019	10:43	-132.732	42.830	0	215.30	0	8.1290	0	35.5190	8	27.666	0	213.484	0	163.4	4	57.3	4	-1E+10	1	-1E+10	1	-1E+10	1	-1E+10	1	-1E+10	1	-1E+10	1
4901784	141	C	05/15/2019	10:43	-132.732	42.830	0	217.80	0	8.1200	0	35.5210	8	27.669	0	215.961	0	162.7	4	57.1	4	-1E+10	1	-1E+10	1	-1E+10	1	-1E+10	1	-1E+10	1	-1E+10	1
4901784	141	C	05/15/2019	10:43	-132.732	42.830	0	220.30	0	8.1140	0	35.5210	8	27.670	0	218.439	0	161.9	4	56.8	4	-1E+10	1	-1E+10	1	-1E+10	1	-1E+10	1	-1E+10	1	-1E+10	1
4901784	141	C	05/15/2019	10:43	-132.732	42.830	0	222.90	0	8.1030	0	35.5220	8	27.672	0	221.016	0	160.9	4	56.4	4	-1E+10	1	-1E+10	1	-1E+10	1	-1E+10	1	-1E+10	1	-1E+10	1
4901784	141	C	05/15/2019	10:43	-132.732	42.830	0	225.40	0	8.0840	0	35.5230	8	27.676	0	223.493	0	159.5	4	55.9	4	-1E+10	1	-1E+10	1	-1E+10	1	-1E+10	1	-1E+10	1	-1E+10	1
4901784	141	C	05/15/2019	10:43	-132.732	42.830	0	228.00	0	8.0560	0	35.5230	8	27.680	0	226.070	0	158.0	4	55.4	4	-1E+10	1	-1E+10	1	-1E+10	1	-1E+10	1	-1E+10	1	-1E+10	1
4901784	141	C	05/15/2019	10:43	-132.732	42.830	0	229.80	0	8.0400	0	35.5210	8	27.681	0	227.853	0	157.0	4	55.0	4	-1E+10	1	-1E+10	1	-1E+10	1	-1E+10	1	-1E+10	1	-1E+10	1
4901784	141	C	05/15/2019	10:43	-132.732	42.830	0	232.50	0	7.9370	0	35.5290	8	27.703	0	230.529	0	156.3	4	54.6	4	-1E+10	1	-1E+10	1	-1E+10	1	-1E+10	1	-1E+10	1	-1E+10	1
4901784	141	C	05/15/2019	10:43	-132.732	42.830	0	235.20	0	7.9000	0	35.5300	8	27.709	0	233.205	0	156.5	4	54.6	4	-1E+10	1	-1E+10	1	-1E+10	1	-1E+10	1	-1E+10	1	-1E+10	1
4901784	141	C	05/15/2019	10:43	-132.732	42.830	0	237.00	0	7.8970	0	35.5300	8	27.710	0	234.988	0	156.9	4	54.8	4	-1E+10	1	-1E+10	1	-1E+10	1	-1E+10	1	-1E+10	1	-1E+10	1
4901784	141	C	05/15/2019	10:43	-132.732	42.830	0	239.70	0	7.8820	0	35.5330	8	27.714	0	237.664	0	157.1	4	54.8	4	-1E+10	1	-1E+10	1	-1E+10	1	-1E+10	1	-1E+10	1	-1E+10	1
4901784	141	C	05/15/2019	10:43	-132.732	42.830	0	242.40	0	7.8860	0	35.5400	8	27.719	0	240.339	0	157.5	4	55.0	4	-1E+10	1	-1E+10	1	-1E+10	1	-1E+10	1	-1E+10	1	-1E+10	1
4901784	141	C	05/15/2019	10:43	-132.732	42.830	0	245.00	0	7.8320	0	35.5420	8	27.729	0	242.916	0	155.6	4	54.2	4	-1E+10	1	-1E+10	1	-1E+10	1	-1E+10	1	-1E+10	1	-1E+10	1
4901784	141	C	05/15/2019	10:43	-132.732	42.830	0	247.70	0	7.7650	0	35.5370	8	27.735	0	245.591	0	153.9	4	53.6	4	-1E+10	1	-1E+10	1	-1E+10	1	-1E+10	1	-1E+10	1	-1E+10	1
4901784	141	C	05/15/2019	10:43	-132.732	42.830	0	249.50	0	7.7380	0	35.5380	8	27.740	0	247.375	0	153.4	4	53.4	4	-1E+10	1	-1E+10	1	-1E+10	1	-1E+10	1	-1E+10	1	-1E+10	1
4901784	141	C	05/15/2019	10:43	-132.732	42.830	0	252.20	0	7.6970	0	35.5390	8	27.747	0	250.050	0	152.0	4	52.8	4	-1E+10	1	-1E+10	1	-1E+10	1	-1E+10	1	-1E+10	1	-1E+10	1
4901784	141	C	05/15/2019	10:43	-132.732	42.830	0	254.90	0	7.6280	0	35.5380	8	27.756	0	252.726	0	149.9	4	52.0	4	-1E+10	1	-1E+10	1	-1E+10	1	-1E+10	1	-1E+10	1	-1E+10	1
4901784	141	C	05/15/2019	10:43	-132.732	42.830	0	257.60	0	7.5530	0	35.5380	8	27.767	0	255.401	0	147.6	4	51.1	4	-1E+10	1	-1E+10	1	-1E+10	1	-1E+10	1	-1E+10	1	-1E+10	1
4901784	141	C	05/15/2019	10:43	-132.732	42.830	0	260.30	0	7.4490	0	35.5380	8	27.783	0	258.076	0	145.6	4	50.3	4	-1E+10	1	-1E+10	1	-1E+10	1	-1E+10	1	-1E+10	1	-1E+10	1
4901784	141	C	05/15/2019	10:43	-132.732	42.830	0	262.10	0	7.4150	0	35.5390	8	27.788	0	259.860	0	144.5	4	49.9	4	-1E+10	1	-1E+10	1	-1E+10	1	-1E+10	1	-1E+10	1	-1E+10	1
4901784	141	C	05/15/2019	10:43	-132.732	42.830	0	264.80	0	7.4030	0	35.5360	8	27.788	0	262.535	0	143.5	4	49.5	4	-1E+10	1	-1E+10	1	-1E+10	1	-1E+10	1	-1E+10	1	-1E+10	1
4901784	141	C	05/15/2019	10:43	-132.732	42.830	0	267.50	0	7.3710	0	35.5360	8	27.792	0	265.210	0	142.4	4	49.1	4	-1E+10	1	-1E+10	1	-1E+10	1	-1E+10	1	-1E+10	1	-1E+10	1
4901784	141	C	05/15/2019	10:43	-132.732	42.830	0	270.20	0	7.3180	0	35.5380	8	27.802	0	267.885	0	141.3	4	48.7	4	-1E+10	1	-1E+10	1	-1E+10	1	-1E+10	1	-1E+10	1	-1E+10	1
4901784	141	C	05/15/2019	10:43	-132.732	42.830	0	272.90	0	7.2810	0	35.5370	8	27.806	0	270.560	0	140.4	4	48.3	4	-1E+10	1	-1E+10	1	-1E+10	1	-1E+10	1	-1E+10	1	-1E+10	1
4901784	141	C	05/15/2019	10:43	-132.732	42.830	0	274.70	0	7.2380	0	35.5420	8	27.816	0	272.344	0	139.9	4	48.1	4	-1E+10	1	-1E+10	1	-1E+10	1	-1E+10	1	-1E+10	1	-1E+10	1
4901784	141	C	05/15/2019	10:43	-132.732	42.830	0	277.50	0	7.2140	0	35.5400	8	27.818	0	275.118	0	139.6	4	48.0	4	-1E+10	1	-1E+10	1	-1E+10	1	-1E+10	1	-1E+10	1	-1E+10	1
4901784	141	C	05/15/2019	10:43	-132.732	42.830	0	280.30	0	7.2060	0	35.5410	8	27.820	0	277.892	0	138.9	4	47.7	4	-1E+10	1	-1E+10	1	-1E+10	1	-1E+10	1	-1E+10	1	-1E+10	1
4901784	141	C	05/15/2019	10:43	-132.732	42.830	0	282.10	0	7.1990	0	35.5380	8	27.819	0	279.675	0	138.3	4	47.5	4	-1E+10	1	-1E+10	1	-1E+10	1	-1E+10	1	-1E+10	1	-1E+10	1
4901784	141	C	05/15/2019	10:43	-132.732	42.830	0	284.80	0	7.1550	0	35.5400	8	27.827	0	282.350	0	137.2	4	47.1	4	-1E+10	1	-1E+10	1	-1E+10	1	-1E+10	1	-1E+10	1	-1E+10	1
4901784	141	C	05/15/2019	10:43	-132.732	42.830	0	287.60	0	7.0900	0	35.5420	8	27.837	0	285.124	0	136.4	4	46.8	4	-1E+10	1	-1E+10	1	-1E+10	1	-1E+10	1	-1E+10	1	-1E+10	1
4901784	141	C	05/15/2019	10:43	-132.732	42.830	0	289.50	0	7.0750	0	35.5420	8	27.840	0	287.006	0	135.8	4	46.6	4	-1E+10	1	-1E+10	1	-1E+10	1	-1E+10	1	-1E+10	1	-1E+10	1
4901784	141	C	05/15/2019	10:43	-132.732	42.830	0	292.40	0	7.0550	0	35.5420	8	27.842	0	289.879	0	134.1	4	45.9	4	-1E+10	1	-1E+10	1	-1E+10	1	-1E+10	1	-1E+10	1	-1E+10	1
4901784	141	C	05/15/2019	10:43	-132.732	42.830	0	295.10	0	6.9930	0	35.5430	8	27.852	0	292.554	0	132.1	4	45.2	4	-1E+10	1	-1E+10	1	-1E+10	1	-1E+10	1	-1E+10	1	-1E+10	1
4901784	141	C	05/15/2019	10:43	-132.732	42.830	0	297.10	0	6.9550	0	35.5450	8	27.859	0	294.536	0	131.3	4	44.9	4	-1E+10	1	-1E+10	1	-1E+10	1	-1E+10	1	-1E+10	1	-1E+10	1
4901784	141	C	05/15/2019	10:43	-132.732	42.830	0	299.90	0	6.9300	0	35.5450	8	27.862	0	297.309	0	130.2	4	44.5	4	-1E+10	1	-1E+10	1	-1E+10	1	-1E+10	1	-1E+10	1	-1E+10	1
4901784	141	C	05/15/2019	10:43	-132.732	42.830	0	302.70	0	6.9000	0	35.5450	8	27.867	0	300.083	0	128.4	4	43.8	4	-1E+10	1	-1E+10	1	-1E+10	1	-1E+10	1	-1E+10	1	-1E+10	1
4901784	141	C	05/15/2019	10:43	-132.732	42.830	0	304.60	0	6.8900	0	35.5440	8	27.867	0	301.965	0	127.4	4	43.5	4	-1E+10	1	-1E+10	1	-1E+10	1	-1E+10	1	-1E+10	1	-1E+10	1
4901784	141	C	05/15/2019	10:43	-132.732	42.830	0	307.50	0	6.8680	0	35.5440	8	27.870	0	304.838	0	125.7	4	42.9	4	-1E+10	1	-1E+10	1	-1E+10	1	-1E+10	1	-1E+10	1	-1E+10	1
4901784	141	C	05/15/2019	10:43	-132.732	42.830	0	310.40	0	6.7980	0	35.5450	8	27.881	0	307.711	0	123.9	4	42.2	4	-1E+10	1	-1E+10	1	-1E+10	1	-1E+10	1	-1E+10	1	-1E+10	1
4901784	141	C	05/15/2019	10:43	-132.732	42.830	0	312.30	0	6.7440	0	35.5490	8	27.891	0	309.593	0	123.1	4	41.9	4	-1E+10	1	-1E+10	1	-1E+10	1	-1E+10	1	-1E+10	1	-1E+10	1
4901784	141	C	05/15/2019	10:43	-132.732	42.830	0	315.20	0	6.7080	0	35.5490	8	27.896	0	312.466	0	122.5	4	41.6	4	-1E+10	1	-1E+10	1	-1E+10	1	-1E+10	1	-1E+10	1	-1E+10	1
4901784	141	C	05/15/2019	10:43	-132.732	42.830	0	318.20	0	6.6940	0	35.5490	8	27.898	0	315.437	0	121.9	4	41.4	4	-1E+10	1	-1E+10	1	-1E+10	1	-1E+10	1	-1E+10	1	-1E+10	1
4901784	141	C	05/15/2019	10:43	-132.732	42.830	0	320.20	0	6.6840	0	35.5490	8	27.900	0	317.418	0	121.5	4	41.3	4	-1E+10	1	-1E+10	1	-1E+10	1	-1E+10	1	-1E+10	1	-1E+10	1
4901784	141	C	05/15/2019	10:43	-132.732	42.830	0	322.10	0	6.6720	0	35.5490	8	27.901	0	319.300	0	120.9	4	41.1	4	-1E+10	1	-1E+10	1	-1E+10	1	-1E+10	1	-1E+10	1	-1E+10	1
4901784	141	C	05/15/2019	10:43	-132.732	42.830	0	324.70	0	6.6420	0	35.5500	8	27.906	0	321.876	0	120.0	4	40.7	4	-1E+10	1	-1E+10	1	-1E+10	1	-1E+10	1	-1E+10	1	-1E+10	1
4901784	141	C	05/15/2019	10:43	-132.732	42.830	0	327.40	0	6.5990	0	35.5500	8	27.912	0	324.550	0	118.7	4	40.2	4	-1E+10	1	-1E+10	1	-1E+10	1	-1E+10	1	-1E+10	1	-1E+10	1
4901784	141	C	05/15/2019	10:43	-132.732	42.830	0	329.80	0	6.5670	0	35.5490	8	27.916	0	326.927	0	117.5	4	39.8	4	-1E+10	1	-1E+10	1	-1E+10	1	-1E+10	1	-1E+10	1	-1E+10	1
4901784	141	C	05/15/2019	10:43	-132.732	42.830	0	332.10	0	6.5320	0	35.5480	8	27.920	0	329.206	0	116.2	4	39.3	4	-1E+10	1	-1E+10	1	-1E+10	1	-1E+10	1	-1E+10	1	-1E+10	1
4901784	141	C	05/15/2019	10:43	-132.732	42.830	0	335.40	0	6.4430	0	35.5510	8	27.934	0	332.474	0	114.9	4	38.8	4	-1E+10	1	-1E+10	1	-1E+10	1	-1E+10	1	-1E+10	1	-1E+10	1
4901784	141	C	05/15/2019	10:43	-132.732	42.830	0	337.80	0	6.4180	0	35.5530	8	27.939	0	334.851	0	113.9	4	38.4	4	-1E+10	1	-1E+10	1	-1E+10	1	-1E+10	1	-1E+10	1	-1E+10	1
4901784	141	C	05/15/2019	10:43	-132.732	42.830	0	340.20	0	6.3960	0	35.5510	8	27.940	0	337.228	0	112.4	4	37.9	4	-1E+10	1	-1E+10	1	-1E+10	1	-1E+10	1	-1E+10	1	-1E+10	1
4901784	141	C	05/15/2019	10:43	-132.732	42.830	0	342.80	0	6.3460	0	35.5490	8	27.946	0	339.804	0	110.8	4	37.3	4	-1E+10	1	-1E+10	1	-1E+10	1	-1E+10	1	-1E+10	1	-1E+10	1
4901784	141	C	05/15/2019	10:43	-132.732	42.830	0	345.30	0	6.2440	0	35.5520	8	27.961	0	342.280	0	109.2	4	36.7	4	-1E+10	1	-1E+10	1	-1E+10	1	-1E+10	1	-1E+10	1	-1E+10	1
4901784	141	C	05/15/2019	10:43	-132.732	42.830	0	347.80	0	6.1900	0	35.5540	8	27.970	0	344.756	0	108.3	4	36.4	4	-1E+10	1	-1E+10	1	-1E+10	1	-1E+10	1	-1E+10	1	-1E+10	1
4901784	141	C	05/15/2019	10:43	-132.732	42.830	0	350.30	0	6.1590	0	35.5550	8	27.975	0	347.232	0	107.3	4	36.0	4	-1E+10	1	-1E+10	1	-1E+10	1	-1E+10	1	-1E+10	1	-1E+10	1
4901784	141	C	05/15/2019	10:43	-132.732	42.830	0	352.70	0	6.1460	0	35.5530	8	27.975	0	349.609	0	106.3	4	35.7	4	-1E+10	1	-1E+10	1	-1E+10	1	-1E+10	1	-1E+10	1	-1E+10	1
4901784	141	C	05/15/2019	10:43	-132.732	42.830	0	355.20	0	6.1190	0	35.5520	8	27.978	0	352.085	0	105.0	4	35.2	4	-1E+10	1	-1E+10	1	-1E+10	1	-1E+10	1	-1E+10	1	-1E+10	1
4901784	141	C	05/15/2019	10:43	-132.732	42.830	0	357.70	0	6.0410	0	35.5550	8	27.990	0	354.561	0	104.0	4	34.8	4	-1E+10	1	-1E+10	1	-1E+10	1	-1E+10	1	-1E+10	1	-1E+10	1
4901784	141	C	05/15/2019	10:43	-132.732	42.830	0	360.30	0	6.0230	0	35.5540	8	27.992	0	357.136	0	103.2	4	34.5	4	-1E+10	1	-1E+10	1	-1E+10	1	-1E+10	1	-1E+10	1	-1E+10	1
4901784	141	C	05/15/2019	10:43	-132.732	42.830	0	362.80	0	5.9870	0	35.5560	8	27.998	0	359.611	0	102.6	4	34.3	4	-1E+10	1	-1E+10	1	-1E+10	1	-1E+10	1	-1E+10	1	-1E+10	1
4901784	141	C	05/15/2019	10:43	-132.732	42.830	0	365.30	0	5.9770	0	35.5560	8	28.000	0	362.087	0	101.9	4	34.0	4	-1E+10	1	-1E+10	1	-1E+10	1	-1E+10	1	-1E+10	1	-1E+10	1
4901784	141	C	05/15/2019	10:43	-132.732	42.830	0	367.80	0	5.9500	0	35.5560	8	28.003	0	364.563	0	101.1	4	33.8	4	-1E+10	1	-1E+10	1	-1E+10	1	-1E+10	1	-1E+10	1	-1E+10	1
4901784	141	C	05/15/2019	10:43	-132.732	42.830	0	370.30	0	5.9280	0	35.5570	8	28.007	0	367.039	0	100.3	4	33.5	4	-1E+10	1	-1E+10	1	-1E+10	1	-1E+10	1	-1E+10	1	-1E+10	1
4901784	141	C	05/15/2019	10:43	-132.732	42.830	0	372.80	0	5.9110	0	35.5590	8	28.011	0	369.515	0	99.3	4	33.1	4	-1E+10	1	-1E+10	1	-1E+10	1	-1E+10	1	-1E+10	1	-1E+10	1
4901784	141	C	05/15/2019	10:43	-132.732	42.830	0	375.30	0	5.8750	0	35.5600	8	28.016	0	371.990	0	98.0	4	32.7	4	-1E+10	1	-1E+10	1	-1E+10	1	-1E+10	1	-1E+10	1	-1E+10	1
4901784	141	C	05/15/2019	10:43	-132.732	42.830	0	377.80	0	5.8200	0	35.5610	8	28.024	0	374.466	0	96.8	4	32.2	4	-1E+10	1	-1E+10	1	-1E+10	1	-1E+10	1	-1E+10	1	-1E+10	1
4901784	141	C	05/15/2019	10:43	-132.732	42.830	0	379.60	0	5.8030	0	35.5610	8	28.026	0	376.249	0	96.2	4	32.0	4	-1E+10	1	-1E+10	1	-1E+10	1	-1E+10	1	-1E+10	1	-1E+10	1
4901784	141	C	05/15/2019	10:43	-132.732	42.830	0	382.20	0	5.7820	0	35.5620	8	28.029	0	378.823	0	95.0	4	31.6	4	-1E+10	1	-1E+10	1	-1E+10	1	-1E+10	1	-1E+10	1	-1E+10	1
4901784	141	C	05/15/2019	10:43	-132.732	42.830	0	384.80	0	5.7290	0	35.5650	8	28.039	0	381.398	0	93.6	4	31.1	4	-1E+10	1	-1E+10	1	-1E+10	1	-1E+10	1	-1E+10	1	-1E+10	1
4901784	141	C	05/15/2019	10:43	-132.732	42.830	0	387.30	0	5.7100	0	35.5640	8	28.040	0	383.873	0	92.4	4	30.7	4	-1E+10	1	-1E+10	1	-1E+10	1	-1E+10	1	-1E+10	1	-1E+10	1
4901784	141	C	05/15/2019	10:43	-132.732	42.830	0	389.90	0	5.6700	0	35.5650	8	28.046	0	386.448	0	91.1	4	30.2	4	-1E+10	1	-1E+10	1	-1E+10	1	-1E+10	1	-1E+10	1	-1E+10	1
4901784	141	C	05/15/2019	10:43	-132.732	42.830	0	392.50	0	5.6450	0	35.5660	8	28.050	0	389.023	0	89.7	4	29.7	4	-1E+10	1	-1E+10	1	-1E+10	1	-1E+10	1	-1E+10	1	-1E+10	1
4901784	141	C	05/15/2019	10:43	-132.732	42.830	0	395.00	0	5.6070	0	35.5690	8	28.057	0	391.498	0	88.2	4	29.2	4	-1E+10	1	-1E+10	1	-1E+10	1	-1E+10	1	-1E+10	1	-1E+10	1
4901784	141	C	05/15/2019	10:43	-132.732	42.830	0	397.60	0	5.5780	0	35.5740	8	28.065	0	394.072	0	86.7	4	28.7	4	-1E+10	1	-1E+10	1	-1E+10	1	-1E+10	1	-1E+10	1	-1E+10	1
4901784	141	C	05/15/2019	10:43	-132.732	42.830	0	400.20	0	5.5630	0	35.5750	8	28.067	0	396.647	0	85.2	4	28.2	4	-1E+10	1	-1E+10	1	-1E+10	1	-1E+10	1	-1E+10	1	-1E+10	1
4901784	141	C	05/15/2019	10:43	-132.732	42.830	0	402.70	0	5.5590	0	35.5760	8	28.069	0	399.122	0	83.8	4	27.7	4	-1E+10	1	-1E+10	1	-1E+10	1	-1E+10	1	-1E+10	1	-1E+10	1
4901784	141	C	05/15/2019	10:43	-132.732	42.830	0	405.30	0	5.5120	0	35.5810	8	28.078	0	401.697	0	82.5	4	27.3	4	-1E+10	1	-1E+10	1	-1E+10	1	-1E+10	1	-1E+10	1	-1E+10	1
4901784	141	C	05/15/2019	10:43	-132.732	42.830	0	407.80	0	5.4600	0	35.5810	8	28.085	0	404.172	0	81.6	4	26.9	4	-1E+10	1	-1E+10	1	-1E+10	1	-1E+10	1	-1E+10	1	-1E+10	1
4901784	141	C	05/15/2019	10:43	-132.732	42.830	0	410.40	0	5.4480	0	35.5800	8	28.086	0	406.746	0	80.1	4	26.5	4	-1E+10	1	-1E+10	1	-1E+10	1	-1E+10	1	-1E+10	1	-1E+10	1
4901784	141	C	05/15/2019	10:43	-132.732	42.830	0	412.10	0	5.4160	0	35.5820	8	28.091	0	408.430	0	78.8	4	26.0	4	-1E+10	1	-1E+10	1	-1E+10	1	-1E+10	1	-1E+10	1	-1E+10	1
4901784	141	C	05/15/2019	10:43	-132.732	42.830	0	414.70	0	5.3820	0	35.5880	8	28.100	0	411.004	0	76.4	4	25.2	4	-1E+10	1	-1E+10	1	-1E+10	1	-1E+10	1	-1E+10	1	-1E+10	1
4901784	141	C	05/15/2019	10:43	-132.732	42.830	0	417.20	0	5.3620	0	35.5910	8	28.105	0	413.479	0	74.2	4	24.4	4	-1E+10	1	-1E+10	1	-1E+10	1	-1E+10	1	-1E+10	1	-1E+10	1
4901784	141	C	05/15/2019	10:43	-132.732	42.830	0	419.80	0	5.3140	0	35.5940	8	28.113	0	416.053	0	71.8	4	23.6	4	-1E+10	1	-1E+10	1	-1E+10	1	-1E+10	1	-1E+10	1	-1E+10	1
4901784	141	C	05/15/2019	10:43	-132.732	42.830	0	422.30	0	5.2870	0	35.6040	8	28.124	0	418.528	0	69.2	4	22.8	4	-1E+10	1	-1E+10	1	-1E+10	1	-1E+10	1	-1E+10	1	-1E+10	1
4901784	141	C	05/15/2019	10:43	-132.732	42.830	0	424.90	0	5.2830	0	35.6100	8	28.130	0	421.103	0	67.5	4	22.2	4	-1E+10	1	-1E+10	1	-1E+10	1	-1E+10	1	-1E+10	1	-1E+10	1
4901784	141	C	05/15/2019	10:43	-132.732	42.830	0	427.40	0	5.2750	0	35.6150	8	28.135	0	423.578	0	66.6	4	21.9	4	-1E+10	1	-1E+10	1	-1E+10	1	-1E+10	1	-1E+10	1	-1E+10	1
4901784	141	C	05/15/2019	10:43	-132.732	42.830	0	429.90	0	5.2750	0	35.6160	8	28.135	0	426.053	0	65.9	4	21.7	4	-1E+10	1	-1E+10	1	-1E+10	1	-1E+10	1	-1E+10	1	-1E+10	1
4901784	141	C	05/15/2019	10:43	-132.732	42.830	0	432.40	0	5.2740	0	35.6160	8	28.136	0	428.528	0	65.0	4	21.4	4	-1E+10	1	-1E+10	1	-1E+10	1	-1E+10	1	-1E+10	1	-1E+10	1
4901784	141	C	05/15/2019	10:43	-132.732	42.830	0	435.00	0	5.2670	0	35.6190	8	28.139	0	431.102	0	63.6	4	20.9	4	-1E+10	1	-1E+10	1	-1E+10	1	-1E+10	1	-1E+10	1	-1E+10	1
4901784	141	C	05/15/2019	10:43	-132.732	42.830	0	437.50	0	5.2670	0	35.6210	8	28.140	0	433.577	0	62.4	4	20.5	4	-1E+10	1	-1E+10	1	-1E+10	1	-1E+10	1	-1E+10	1	-1E+10	1
4901784	141	C	05/15/2019	10:43	-132.732	42.830	0	440.00	0	5.2170	0	35.6260	8	28.150	0	436.052	0	61.1	4	20.1	4	-1E+10	1	-1E+10	1	-1E+10	1	-1E+10	1	-1E+10	1	-1E+10	1
4901784	141	C	05/15/2019	10:43	-132.732	42.830	0	442.60	0	5.2070	0	35.6300	8	28.155	0	438.626	0	59.5	4	19.6	4	-1E+10	1	-1E+10	1	-1E+10	1	-1E+10	1	-1E+10	1	-1E+10	1
4901784	141	C	05/15/2019	10:43	-132.732	42.830	0	445.20	0	5.1970	0	35.6360	8	28.161	0	441.200	0	58.4	4	19.2	4	-1E+10	1	-1E+10	1	-1E+10	1	-1E+10	1	-1E+10	1	-1E+10	1
4901784	141	C	05/15/2019	10:43	-132.732	42.830	0	447.80	0	5.1900	0	35.6380	8	28.163	0	443.773	0	57.7	4	19.0	4	-1E+10	1	-1E+10	1	-1E+10	1	-1E+10	1	-1E+10	1	-1E+10	1
4901784	141	C	05/15/2019	10:43	-132.732	42.830	0	450.30	0	5.1750	0	35.6400	8	28.167	0	446.248	0	56.9	4	18.7	4	-1E+10	1	-1E+10	1	-1E+10	1	-1E+10	1	-1E+10	1	-1E+10	1
4901784	141	C	05/15/2019	10:43	-132.732	42.830	0	452.80	0	5.1580	0	35.6410	8	28.169	0	448.723	0	56.1	4	18.4	4	-1E+10	1	-1E+10	1	-1E+10	1	-1E+10	1	-1E+10	1	-1E+10	1
4901784	141	C	05/15/2019	10:43	-132.732	42.830	0	455.20	0	5.1320	0	35.6460	8	28.177	0	451.099	0	55.0	4	18.0	4	-1E+10	1	-1E+10	1	-1E+10	1	-1E+10	1	-1E+10	1	-1E+10	1
4901784	141	C	05/15/2019	10:43	-132.732	42.830	0	457.70	0	5.1070	0	35.6520	8	28.184	0	453.574	0	53.9	4	17.7	4	-1E+10	1	-1E+10	1	-1E+10	1	-1E+10	1	-1E+10	1	-1E+10	1
4901784	141	C	05/15/2019	10:43	-132.732	42.830	0	460.30	0	5.0940	0	35.6540	8	28.187	0	456.147	0	53.2	4	17.4	4	-1E+10	1	-1E+10	1	-1E+10	1	-1E+10	1	-1E+10	1	-1E+10	1
4901784	141	C	05/15/2019	10:43	-132.732	42.830	0	462.80	0	5.0860	0	35.6560	8	28.190	0	458.622	0	52.5	4	17.2	4	-1E+10	1	-1E+10	1	-1E+10	1	-1E+10	1	-1E+10	1	-1E+10	1
4901784	141	C	05/15/2019	10:43	-132.732	42.830	0	465.40	0	5.0770	0	35.6570	8	28.192	0	461.196	0	51.4	4	16.8	4	-1E+10	1	-1E+10	1	-1E+10	1	-1E+10	1	-1E+10	1	-1E+10	1
4901784	141	C	05/15/2019	10:43	-132.732	42.830	0	467.90	0	5.0450	0	35.6650	8	28.202	0	463.670	0	50.3	4	16.4	4	-1E+10	1	-1E+10	1	-1E+10	1	-1E+10	1	-1E+10	1	-1E+10	1
4901784	141	C	05/15/2019	10:43	-132.732	42.830	0	469.50	0	5.0390	0	35.6660	8	28.204	0	465.254	0	49.9	4	16.3	4	-1E+10	1	-1E+10	1	-1E+10	1	-1E+10	1	-1E+10	1	-1E+10	1
4901784	141	C	05/15/2019	10:43	-132.732	42.830	0	472.10	0	5.0270	0	35.6690	8	28.207	0	467.828	0	49.2	4	16.1	4	-1E+10	1	-1E+10	1	-1E+10	1	-1E+10	1	-1E+10	1	-1E+10	1
4901784	141	C	05/15/2019	10:43	-132.732	42.830	0	474.60	0	5.0120	0	35.6720	8	28.212	0	470.302	0	48.5	4	15.9	4	-1E+10	1	-1E+10	1	-1E+10	1	-1E+10	1	-1E+10	1	-1E+10	1
4901784	141	C	05/15/2019	10:43	-132.732	42.830	0	477.20	0	5.0060	0	35.6730	8	28.213	0	472.876	0	47.8	4	15.6	4	-1E+10	1	-1E+10	1	-1E+10	1	-1E+10	1	-1E+10	1	-1E+10	1
4901784	141	C	05/15/2019	10:43	-132.732	42.830	0	479.70	0	4.9840	0	35.6750	8	28.217	0	475.350	0	46.9	4	15.3	4	-1E+10	1	-1E+10	1	-1E+10	1	-1E+10	1	-1E+10	1	-1E+10	1
4901784	141	C	05/15/2019	10:43	-132.732	42.830	0	482.30	0	4.9650	0	35.6790	8	28.223	0	477.924	0	45.8	4	15.0	4	-1E+10	1	-1E+10	1	-1E+10	1	-1E+10	1	-1E+10	1	-1E+10	1
4901784	141	C	05/15/2019	10:43	-132.732	42.830	0	484.90	0	4.9510	0	35.6810	8	28.226	0	480.497	0	44.7	4	14.6	4	-1E+10	1	-1E+10	1	-1E+10	1	-1E+10	1	-1E+10	1	-1E+10	1
4901784	141	C	05/15/2019	10:43	-132.732	42.830	0	487.40	0	4.9270	0	35.6870	8	28.234	0	482.971	0	43.4	4	14.2	4	-1E+10	1	-1E+10	1	-1E+10	1	-1E+10	1	-1E+10	1	-1E+10	1
4901784	141	C	05/15/2019	10:43	-132.732	42.830	0	490.00	0	4.9150	0	35.6910	8	28.238	0	485.545	0	41.9	4	13.7	4	-1E+10	1	-1E+10	1	-1E+10	1	-1E+10	1	-1E+10	1	-1E+10	1
4901784	141	C	05/15/2019	10:43	-132.732	42.830	0	492.60	0	4.8930	0	35.7000	8	28.248	0	488.118	0	40.9	4	13.4	4	-1E+10	1	-1E+10	1	-1E+10	1	-1E+10	1	-1E+10	1	-1E+10	1
4901784	141	C	05/15/2019	10:43	-132.732	42.830	0	495.20	0	4.8880	0	35.7020	8	28.250	0	490.691	0	39.9	4	13.0	4	-1E+10	1	-1E+10	1	-1E+10	1	-1E+10	1	-1E+10	1	-1E+10	1
4901784	141	C	05/15/2019	10:43	-132.732	42.830	0	497.70	0	4.8780	0	35.7080	8	28.256	0	493.166	0	38.7	4	12.6	4	-1E+10	1	-1E+10	1	-1E+10	1	-1E+10	1	-1E+10	1	-1E+10	1
4901784	141	C	05/15/2019	10:43	-132.732	42.830	0	500.20	0	4.8650	0	35.7150	8	28.263	0	495.640	0	37.5	4	12.2	4	-1E+10	1	-1E+10	1	-1E+10	1	-1E+10	1	-1E+10	1	-1E+10	1
4901784	141	C	05/15/2019	10:43	-132.732	42.830	0	505.30	0	4.8460	0	35.7220	8	28.271	0	500.687	0	36.3	4	11.8	4	-1E+10	1	-1E+10	1	-1E+10	1	-1E+10	1	-1E+10	1	-1E+10	1
4901784	141	C	05/15/2019	10:43	-132.732	42.830	0	510.50	0	4.8310	0	35.7270	8	28.277	0	505.833	0	35.3	4	11.5	4	-1E+10	1	-1E+10	1	-1E+10	1	-1E+10	1	-1E+10	1	-1E+10	1
4901784	141	C	05/15/2019	10:43	-132.732	42.830	0	515.60	0	4.8040	0	35.7320	8	28.284	0	510.880	0	34.7	4	11.3	4	-1E+10	1	-1E+10	1	-1E+10	1	-1E+10	1	-1E+10	1	-1E+10	1
4901784	141	C	05/15/2019	10:43	-132.732	42.830	0	520.00	0	4.7750	0	35.7360	8	28.290	0	515.235	0	34.5	4	11.2	4	-1E+10	1	-1E+10	1	-1E+10	1	-1E+10	1	-1E+10	1	-1E+10	1
4901784	141	C	05/15/2019	10:43	-132.732	42.830	0	524.30	0	4.7460	0	35.7380	8	28.295	0	519.490	0	34.0	4	11.1	4	-1E+10	1	-1E+10	1	-1E+10	1	-1E+10	1	-1E+10	1	-1E+10	1
4901784	141	C	05/15/2019	10:43	-132.732	42.830	0	529.60	0	4.7120	0	35.7430	8	28.303	0	524.735	0	33.2	4	10.8	4	-1E+10	1	-1E+10	1	-1E+10	1	-1E+10	1	-1E+10	1	-1E+10	1
4901784	141	C	05/15/2019	10:43	-132.732	42.830	0	534.90	0	4.6710	0	35.7470	8	28.311	0	529.979	0	32.2	4	10.5	4	-1E+10	1	-1E+10	1	-1E+10	1	-1E+10	1	-1E+10	1	-1E+10	1
4901784	141	C	05/15/2019	10:43	-132.732	42.830	0	540.20	0	4.6690	0	35.7540	8	28.317	0	535.224	0	30.6	4	9.9	4	-1E+10	1	-1E+10	1	-1E+10	1	-1E+10	1	-1E+10	1	-1E+10	1
4901784	141	C	05/15/2019	10:43	-132.732	42.830	0	545.50	0	4.6450	0	35.7630	8	28.327	0	540.468	0	29.1	4	9.4	4	-1E+10	1	-1E+10	1	-1E+10	1	-1E+10	1	-1E+10	1	-1E+10	1
4901784	141	C	05/15/2019	10:43	-132.732	42.830	0	550.10	0	4.6650	0	35.7700	8	28.330	0	545.019	0	27.9	4	9.1	4	-1E+10	1	-1E+10	1	-1E+10	1	-1E+10	1	-1E+10	1	-1E+10	1
4901784	141	C	05/15/2019	10:43	-132.732	42.830	0	554.50	0	4.6370	0	35.7760	8	28.338	0	549.373	0	27.1	4	8.8	4	-1E+10	1	-1E+10	1	-1E+10	1	-1E+10	1	-1E+10	1	-1E+10	1
4901784	141	C	05/15/2019	10:43	-132.732	42.830	0	559.90	0	4.6120	0	35.7820	8	28.346	0	554.716	0	26.5	4	8.6	4	-1E+10	1	-1E+10	1	-1E+10	1	-1E+10	1	-1E+10	1	-1E+10	1
4901784	141	C	05/15/2019	10:43	-132.732	42.830	0	565.30	0	4.5600	0	35.7840	8	28.354	0	560.059	0	26.6	4	8.6	4	-1E+10	1	-1E+10	1	-1E+10	1	-1E+10	1	-1E+10	1	-1E+10	1
4901784	141	C	05/15/2019	10:43	-132.732	42.830	0	570.10	0	4.4990	0	35.7880	8	28.364	0	564.808	0	26.6	4	8.6	4	-1E+10	1	-1E+10	1	-1E+10	1	-1E+10	1	-1E+10	1	-1E+10	1
4901784	141	C	05/15/2019	10:43	-132.732	42.830	0	575.00	0	4.4770	0	35.7890	8	28.367	0	569.655	0	26.5	4	8.6	4	-1E+10	1	-1E+10	1	-1E+10	1	-1E+10	1	-1E+10	1	-1E+10	1
4901784	141	C	05/15/2019	10:43	-132.732	42.830	0	579.90	0	4.4380	0	35.7910	8	28.373	0	574.503	0	26.6	4	8.6	4	-1E+10	1	-1E+10	1	-1E+10	1	-1E+10	1	-1E+10	1	-1E+10	1
4901784	141	C	05/15/2019	10:43	-132.732	42.830	0	584.80	0	4.3900	0	35.7910	8	28.378	0	579.351	0	26.4	4	8.5	4	-1E+10	1	-1E+10	1	-1E+10	1	-1E+10	1	-1E+10	1	-1E+10	1
4901784	141	C	05/15/2019	10:43	-132.732	42.830	0	589.80	0	4.3450	0	35.7960	8	28.387	0	584.297	0	25.8	4	8.3	4	-1E+10	1	-1E+10	1	-1E+10	1	-1E+10	1	-1E+10	1	-1E+10	1
4901784	141	C	05/15/2019	10:43	-132.732	42.830	0	594.80	0	4.3250	0	35.8020	8	28.394	0	589.243	0	25.0	4	8.1	4	-1E+10	1	-1E+10	1	-1E+10	1	-1E+10	1	-1E+10	1	-1E+10	1
4901784	141	C	05/15/2019	10:43	-132.732	42.830	0	599.80	0	4.3020	0	35.8090	8	28.402	0	594.190	0	24.5	4	7.9	4	-1E+10	1	-1E+10	1	-1E+10	1	-1E+10	1	-1E+10	1	-1E+10	1
4901784	141	C	05/15/2019	10:43	-132.732	42.830	0	604.90	0	4.2920	0	35.8120	8	28.406	0	599.235	0	24.0	4	7.7	4	-1E+10	1	-1E+10	1	-1E+10	1	-1E+10	1	-1E+10	1	-1E+10	1
4901784	141	C	05/15/2019	10:43	-132.732	42.830	0	610.20	0	4.2850	0	35.8150	8	28.409	0	604.477	0	23.6	4	7.6	4	-1E+10	1	-1E+10	1	-1E+10	1	-1E+10	1	-1E+10	1	-1E+10	1
4901784	141	C	05/15/2019	10:43	-132.732	42.830	0	615.50	0	4.2690	0	35.8200	8	28.415	0	609.720	0	23.2	4	7.5	4	-1E+10	1	-1E+10	1	-1E+10	1	-1E+10	1	-1E+10	1	-1E+10	1
4901784	141	C	05/15/2019	10:43	-132.732	42.830	0	619.90	0	4.2590	0	35.8230	8	28.418	0	614.072	0	22.8	4	7.3	4	-1E+10	1	-1E+10	1	-1E+10	1	-1E+10	1	-1E+10	1	-1E+10	1
4901784	141	C	05/15/2019	10:43	-132.732	42.830	0	624.40	0	4.2510	0	35.8260	8	28.422	0	618.523	0	22.4	4	7.2	4	-1E+10	1	-1E+10	1	-1E+10	1	-1E+10	1	-1E+10	1	-1E+10	1
4901784	141	C	05/15/2019	10:43	-132.732	42.830	0	629.70	0	4.2410	0	35.8290	8	28.425	0	623.765	0	21.9	4	7.1	4	-1E+10	1	-1E+10	1	-1E+10	1	-1E+10	1	-1E+10	1	-1E+10	1
4901784	141	C	05/15/2019	10:43	-132.732	42.830	0	635.10	0	4.2250	0	35.8350	8	28.432	0	629.106	0	21.5	4	6.9	4	-1E+10	1	-1E+10	1	-1E+10	1	-1E+10	1	-1E+10	1	-1E+10	1
4901784	141	C	05/15/2019	10:43	-132.732	42.830	0	640.50	0	4.2190	0	35.8380	8	28.435	0	634.447	0	21.2	4	6.8	4	-1E+10	1	-1E+10	1	-1E+10	1	-1E+10	1	-1E+10	1	-1E+10	1
4901784	141	C	05/15/2019	10:43	-132.732	42.830	0	645.10	0	4.2140	0	35.8400	8	28.437	0	638.996	0	20.8	4	6.7	4	-1E+10	1	-1E+10	1	-1E+10	1	-1E+10	1	-1E+10	1	-1E+10	1
4901784	141	C	05/15/2019	10:43	-132.732	42.830	0	649.70	0	4.2100	0	35.8430	8	28.440	0	643.546	0	20.4	4	6.6	4	-1E+10	1	-1E+10	1	-1E+10	1	-1E+10	1	-1E+10	1	-1E+10	1
4901784	141	C	05/15/2019	10:43	-132.732	42.830	0	655.10	0	4.1950	0	35.8490	8	28.446	0	648.886	0	19.7	4	6.3	4	-1E+10	1	-1E+10	1	-1E+10	1	-1E+10	1	-1E+10	1	-1E+10	1
4901784	141	C	05/15/2019	10:43	-132.732	42.830	0	659.70	0	4.1780	0	35.8560	8	28.454	0	653.435	0	19.2	4	6.2	4	-1E+10	1	-1E+10	1	-1E+10	1	-1E+10	1	-1E+10	1	-1E+10	1
4901784	141	C	05/15/2019	10:43	-132.732	42.830	0	664.30	0	4.1780	0	35.8580	8	28.455	0	657.984	0	18.7	4	6.0	4	-1E+10	1	-1E+10	1	-1E+10	1	-1E+10	1	-1E+10	1	-1E+10	1
4901784	141	C	05/15/2019	10:43	-132.732	42.830	0	669.90	0	4.1720	0	35.8650	8	28.462	0	663.522	0	18.2	4	5.8	4	-1E+10	1	-1E+10	1	-1E+10	1	-1E+10	1	-1E+10	1	-1E+10	1
4901784	141	C	05/15/2019	10:43	-132.732	42.830	0	675.60	0	4.1560	0	35.8680	8	28.466	0	669.159	0	17.8	4	5.7	4	-1E+10	1	-1E+10	1	-1E+10	1	-1E+10	1	-1E+10	1	-1E+10	1
4901784	141	C	05/15/2019	10:43	-132.732	42.830	0	680.30	0	4.1460	0	35.8730	8	28.471	0	673.806	0	17.4	4	5.6	4	-1E+10	1	-1E+10	1	-1E+10	1	-1E+10	1	-1E+10	1	-1E+10	1
4901784	141	C	05/15/2019	10:43	-132.732	42.830	0	684.90	0	4.1280	0	35.8780	8	28.477	0	678.355	0	17.0	4	5.5	4	-1E+10	1	-1E+10	1	-1E+10	1	-1E+10	1	-1E+10	1	-1E+10	1
4901784	141	C	05/15/2019	10:43	-132.732	42.830	0	690.10	0	4.1290	0	35.8830	8	28.481	0	683.497	0	16.5	4	5.3	4	-1E+10	1	-1E+10	1	-1E+10	1	-1E+10	1	-1E+10	1	-1E+10	1
4901784	141	C	05/15/2019	10:43	-132.732	42.830	0	695.80	0	4.1110	0	35.8920	8	28.490	0	689.133	0	15.9	4	5.1	4	-1E+10	1	-1E+10	1	-1E+10	1	-1E+10	1	-1E+10	1	-1E+10	1
4901784	141	C	05/15/2019	10:43	-132.732	42.830	0	700.70	0	4.1080	0	35.8960	8	28.494	0	693.978	0	15.7	4	5.0	4	-1E+10	1	-1E+10	1	-1E+10	1	-1E+10	1	-1E+10	1	-1E+10	1
4901784	141	C	05/15/2019	10:43	-132.732	42.830	0	705.60	0	4.1070	0	35.8980	8	28.495	0	698.822	0	15.4	4	4.9	4	-1E+10	1	-1E+10	1	-1E+10	1	-1E+10	1	-1E+10	1	-1E+10	1
4901784	141	C	05/15/2019	10:43	-132.732	42.830	0	710.60	0	4.0900	0	35.9030	8	28.501	0	703.766	0	15.3	4	4.9	4	-1E+10	1	-1E+10	1	-1E+10	1	-1E+10	1	-1E+10	1	-1E+10	1
4901784	141	C	05/15/2019	10:43	-132.732	42.830	0	715.70	0	4.0650	0	35.9050	8	28.505	0	708.808	0	15.2	4	4.9	4	-1E+10	1	-1E+10	1	-1E+10	1	-1E+10	1	-1E+10	1	-1E+10	1
4901784	141	C	05/15/2019	10:43	-132.732	42.830	0	720.80	0	4.0460	0	35.9090	8	28.511	0	713.850	0	15.0	4	4.8	4	-1E+10	1	-1E+10	1	-1E+10	1	-1E+10	1	-1E+10	1	-1E+10	1
4901784	141	C	05/15/2019	10:43	-132.732	42.830	0	725.00	0	4.0350	0	35.9130	8	28.515	0	718.003	0	14.8	4	4.7	4	-1E+10	1	-1E+10	1	-1E+10	1	-1E+10	1	-1E+10	1	-1E+10	1
4901784	141	C	05/15/2019	10:43	-132.732	42.830	0	729.30	0	4.0290	0	35.9140	8	28.517	0	722.254	0	14.6	4	4.7	4	-1E+10	1	-1E+10	1	-1E+10	1	-1E+10	1	-1E+10	1	-1E+10	1
4901784	141	C	05/15/2019	10:43	-132.732	42.830	0	734.40	0	4.0090	0	35.9210	8	28.524	0	727.296	0	14.4	4	4.6	4	-1E+10	1	-1E+10	1	-1E+10	1	-1E+10	1	-1E+10	1	-1E+10	1
4901784	141	C	05/15/2019	10:43	-132.732	42.830	0	739.70	0	4.0120	0	35.9240	8	28.526	0	732.535	0	14.1	4	4.5	4	-1E+10	1	-1E+10	1	-1E+10	1	-1E+10	1	-1E+10	1	-1E+10	1
4901784	141	C	05/15/2019	10:43	-132.732	42.830	0	744.90	0	4.0000	0	35.9280	8	28.531	0	737.676	0	14.0	4	4.5	4	-1E+10	1	-1E+10	1	-1E+10	1	-1E+10	1	-1E+10	1	-1E+10	1
4901784	141	C	05/15/2019	10:43	-132.732	42.830	0	750.20	0	3.9910	0	35.9300	8	28.534	0	742.915	0	13.8	4	4.4	4	-1E+10	1	-1E+10	1	-1E+10	1	-1E+10	1	-1E+10	1	-1E+10	1
4901784	141	C	05/15/2019	10:43	-132.732	42.830	0	755.50	0	3.9710	0	35.9350	8	28.540	0	748.154	0	13.5	4	4.3	4	-1E+10	1	-1E+10	1	-1E+10	1	-1E+10	1	-1E+10	1	-1E+10	1
4901784	141	C	05/15/2019	10:43	-132.732	42.830	0	759.90	0	3.9620	0	35.9400	8	28.545	0	752.503	0	13.3	4	4.2	4	-1E+10	1	-1E+10	1	-1E+10	1	-1E+10	1	-1E+10	1	-1E+10	1
4901784	141	C	05/15/2019	10:43	-132.732	42.830	0	764.40	0	3.9490	0	35.9450	8	28.550	0	756.951	0	12.9	4	4.1	4	-1E+10	1	-1E+10	1	-1E+10	1	-1E+10	1	-1E+10	1	-1E+10	1
4901784	141	C	05/15/2019	10:43	-132.732	42.830	0	769.60	0	3.9740	0	35.9530	8	28.554	0	762.091	0	12.5	4	4.0	4	-1E+10	1	-1E+10	1	-1E+10	1	-1E+10	1	-1E+10	1	-1E+10	1
4901784	141	C	05/15/2019	10:43	-132.732	42.830	0	775.00	0	3.9610	0	35.9580	8	28.559	0	767.428	0	12.3	4	3.9	4	-1E+10	1	-1E+10	1	-1E+10	1	-1E+10	1	-1E+10	1	-1E+10	1
4901784	141	C	05/15/2019	10:43	-132.732	42.830	0	780.40	0	3.9720	0	35.9670	8	28.565	0	772.766	0	11.9	4	3.8	4	-1E+10	1	-1E+10	1	-1E+10	1	-1E+10	1	-1E+10	1	-1E+10	1
4901784	141	C	05/15/2019	10:43	-132.732	42.830	0	784.90	0	3.9870	0	35.9720	8	28.568	0	777.213	0	11.9	4	3.8	4	-1E+10	1	-1E+10	1	-1E+10	1	-1E+10	1	-1E+10	1	-1E+10	1
4901784	141	C	05/15/2019	10:43	-132.732	42.830	0	789.40	0	3.9440	0	35.9700	8	28.571	0	781.661	0	12.1	4	3.9	4	-1E+10	1	-1E+10	1	-1E+10	1	-1E+10	1	-1E+10	1	-1E+10	1
4901784	141	C	05/15/2019	10:43	-132.732	42.830	0	794.70	0	3.8920	0	35.9700	8	28.576	0	786.899	0	12.1	4	3.9	4	-1E+10	1	-1E+10	1	-1E+10	1	-1E+10	1	-1E+10	1	-1E+10	1
4901784	141	C	05/15/2019	10:43	-132.732	42.830	0	800.00	0	3.8800	0	35.9740	8	28.581	0	792.137	0	12.0	4	3.8	4	-1E+10	1	-1E+10	1	-1E+10	1	-1E+10	1	-1E+10	1	-1E+10	1
4901784	141	C	05/15/2019	10:43	-132.732	42.830	0	805.30	0	3.8450	0	35.9760	8	28.586	0	797.374	0	12.0	4	3.8	4	-1E+10	1	-1E+10	1	-1E+10	1	-1E+10	1	-1E+10	1	-1E+10	1
4901784	141	C	05/15/2019	10:43	-132.732	42.830	0	810.70	0	3.8250	0	35.9810	8	28.592	0	802.711	0	11.8	4	3.8	4	-1E+10	1	-1E+10	1	-1E+10	1	-1E+10	1	-1E+10	1	-1E+10	1
4901784	141	C	05/15/2019	10:43	-132.732	42.830	0	815.10	0	3.8120	0	35.9850	8	28.597	0	807.059	0	11.7	4	3.7	4	-1E+10	1	-1E+10	1	-1E+10	1	-1E+10	1	-1E+10	1	-1E+10	1
4901784	141	C	05/15/2019	10:43	-132.732	42.830	0	819.60	0	3.8050	0	35.9880	8	28.600	0	811.506	0	11.6	4	3.7	4	-1E+10	1	-1E+10	1	-1E+10	1	-1E+10	1	-1E+10	1	-1E+10	1
4901784	141	C	05/15/2019	10:43	-132.732	42.830	0	825.10	0	3.7880	0	35.9930	8	28.606	0	816.941	0	11.5	4	3.6	4	-1E+10	1	-1E+10	1	-1E+10	1	-1E+10	1	-1E+10	1	-1E+10	1
4901784	141	C	05/15/2019	10:43	-132.732	42.830	0	830.40	0	3.7780	0	35.9970	8	28.610	0	822.178	0	11.4	4	3.6	4	-1E+10	1	-1E+10	1	-1E+10	1	-1E+10	1	-1E+10	1	-1E+10	1
4901784	141	C	05/15/2019	10:43	-132.732	42.830	0	835.00	0	3.7680	0	35.9990	8	28.613	0	826.723	0	11.3	4	3.6	4	-1E+10	1	-1E+10	1	-1E+10	1	-1E+10	1	-1E+10	1	-1E+10	1
4901784	141	C	05/15/2019	10:43	-132.732	42.830	0	839.50	0	3.7620	0	36.0030	8	28.616	0	831.170	0	11.1	4	3.5	4	-1E+10	1	-1E+10	1	-1E+10	1	-1E+10	1	-1E+10	1	-1E+10	1
4901784	141	C	05/15/2019	10:43	-132.732	42.830	0	845.00	0	3.7670	0	36.0080	8	28.620	0	836.604	0	11.0	4	3.5	4	-1E+10	1	-1E+10	1	-1E+10	1	-1E+10	1	-1E+10	1	-1E+10	1
4901784	141	C	05/15/2019	10:43	-132.732	42.830	0	850.50	0	3.7880	0	36.0140	8	28.623	0	842.039	0	10.8	4	3.4	4	-1E+10	1	-1E+10	1	-1E+10	1	-1E+10	1	-1E+10	1	-1E+10	1
4901784	141	C	05/15/2019	10:43	-132.732	42.830	0	855.10	0	3.7860	0	36.0170	8	28.625	0	846.583	0	10.8	4	3.4	4	-1E+10	1	-1E+10	1	-1E+10	1	-1E+10	1	-1E+10	1	-1E+10	1
4901784	141	C	05/15/2019	10:43	-132.732	42.830	0	859.80	0	3.7360	0	36.0200	8	28.633	0	851.227	0	10.8	4	3.4	4	-1E+10	1	-1E+10	1	-1E+10	1	-1E+10	1	-1E+10	1	-1E+10	1
4901784	141	C	05/15/2019	10:43	-132.732	42.830	0	865.20	0	3.7200	0	36.0240	8	28.638	0	856.562	0	10.7	4	3.4	4	-1E+10	1	-1E+10	1	-1E+10	1	-1E+10	1	-1E+10	1	-1E+10	1
4901784	141	C	05/15/2019	10:43	-132.732	42.830	0	869.90	0	3.7180	0	36.0270	8	28.640	0	861.206	0	10.6	4	3.4	4	-1E+10	1	-1E+10	1	-1E+10	1	-1E+10	1	-1E+10	1	-1E+10	1
4901784	141	C	05/15/2019	10:43	-132.732	42.830	0	874.50	0	3.7080	0	36.0320	8	28.645	0	865.750	0	10.6	4	3.4	4	-1E+10	1	-1E+10	1	-1E+10	1	-1E+10	1	-1E+10	1	-1E+10	1
4901784	141	C	05/15/2019	10:43	-132.732	42.830	0	880.10	0	3.7020	0	36.0360	8	28.649	0	871.282	0	10.5	4	3.3	4	-1E+10	1	-1E+10	1	-1E+10	1	-1E+10	1	-1E+10	1	-1E+10	1
4901784	141	C	05/15/2019	10:43	-132.732	42.830	0	884.80	0	3.6950	0	36.0380	8	28.652	0	875.925	0	10.5	4	3.3	4	-1E+10	1	-1E+10	1	-1E+10	1	-1E+10	1	-1E+10	1	-1E+10	1
4901784	141	C	05/15/2019	10:43	-132.732	42.830	0	889.40	0	3.6860	0	36.0390	8	28.653	0	880.470	0	10.5	4	3.3	4	-1E+10	1	-1E+10	1	-1E+10	1	-1E+10	1	-1E+10	1	-1E+10	1
4901784	141	C	05/15/2019	10:43	-132.732	42.830	0	894.70	0	3.6770	0	36.0410	8	28.656	0	885.705	0	10.4	4	3.3	4	-1E+10	1	-1E+10	1	-1E+10	1	-1E+10	1	-1E+10	1	-1E+10	1
4901784	141	C	05/15/2019	10:43	-132.732	42.830	0	899.50	0	3.6650	0	36.0440	8	28.660	0	890.447	0	10.4	4	3.3	4	-1E+10	1	-1E+10	1	-1E+10	1	-1E+10	1	-1E+10	1	-1E+10	1
4901784	141	C	05/15/2019	10:43	-132.732	42.830	0	904.30	0	3.6550	0	36.0490	8	28.665	0	895.188	0	10.3	4	3.3	4	-1E+10	1	-1E+10	1	-1E+10	1	-1E+10	1	-1E+10	1	-1E+10	1
4901784	141	C	05/15/2019	10:43	-132.732	42.830	0	910.00	0	3.6440	0	36.0530	8	28.669	0	900.819	0	10.3	4	3.3	4	-1E+10	1	-1E+10	1	-1E+10	1	-1E+10	1	-1E+10	1	-1E+10	1
4901784	141	C	05/15/2019	10:43	-132.732	42.830	0	915.60	0	3.6350	0	36.0570	8	28.673	0	906.350	0	10.2	4	3.2	4	-1E+10	1	-1E+10	1	-1E+10	1	-1E+10	1	-1E+10	1	-1E+10	1
4901784	141	C	05/15/2019	10:43	-132.732	42.830	0	920.50	0	3.6140	0	36.0620	8	28.679	0	911.190	0	10.2	4	3.2	4	-1E+10	1	-1E+10	1	-1E+10	1	-1E+10	1	-1E+10	1	-1E+10	1
4901784	141	C	05/15/2019	10:43	-132.732	42.830	0	925.40	0	3.6030	0	36.0650	8	28.683	0	916.029	0	10.2	4	3.2	4	-1E+10	1	-1E+10	1	-1E+10	1	-1E+10	1	-1E+10	1	-1E+10	1
4901784	141	C	05/15/2019	10:43	-132.732	42.830	0	930.40	0	3.5980	0	36.0670	8	28.685	0	920.968	0	10.2	4	3.2	4	-1E+10	1	-1E+10	1	-1E+10	1	-1E+10	1	-1E+10	1	-1E+10	1
4901784	141	C	05/15/2019	10:43	-132.732	42.830	0	935.40	0	3.5890	0	36.0680	8	28.687	0	925.906	0	10.2	4	3.2	4	-1E+10	1	-1E+10	1	-1E+10	1	-1E+10	1	-1E+10	1	-1E+10	1
4901784	141	C	05/15/2019	10:43	-132.732	42.830	0	940.40	0	3.5830	0	36.0710	8	28.690	0	930.844	0	10.2	4	3.2	4	-1E+10	1	-1E+10	1	-1E+10	1	-1E+10	1	-1E+10	1	-1E+10	1
4901784	141	C	05/15/2019	10:43	-132.732	42.830	0	945.40	0	3.5800	0	36.0730	8	28.692	0	935.782	0	10.2	4	3.2	4	-1E+10	1	-1E+10	1	-1E+10	1	-1E+10	1	-1E+10	1	-1E+10	1
4901784	141	C	05/15/2019	10:43	-132.732	42.830	0	950.40	0	3.5740	0	36.0750	8	28.694	0	940.720	0	10.2	4	3.2	4	-1E+10	1	-1E+10	1	-1E+10	1	-1E+10	1	-1E+10	1	-1E+10	1
4901784	141	C	05/15/2019	10:43	-132.732	42.830	0	955.30	0	3.5600	0	36.0790	8	28.699	0	945.559	0	10.2	4	3.2	4	-1E+10	1	-1E+10	1	-1E+10	1	-1E+10	1	-1E+10	1	-1E+10	1
4901784	141	C	05/15/2019	10:43	-132.732	42.830	0	960.40	0	3.5470	0	36.0830	8	28.703	0	950.596	0	10.2	4	3.2	4	-1E+10	1	-1E+10	1	-1E+10	1	-1E+10	1	-1E+10	1	-1E+10	1
4901784	141	C	05/15/2019	10:43	-132.732	42.830	0	965.40	0	3.5350	0	36.0880	8	28.708	0	955.533	0	10.2	4	3.2	4	-1E+10	1	-1E+10	1	-1E+10	1	-1E+10	1	-1E+10	1	-1E+10	1
4901784	141	C	05/15/2019	10:43	-132.732	42.830	0	970.50	0	3.5270	0	36.0910	8	28.712	0	960.569	0	10.3	4	3.2	4	-1E+10	1	-1E+10	1	-1E+10	1	-1E+10	1	-1E+10	1	-1E+10	1
4901784	141	C	05/15/2019	10:43	-132.732	42.830	0	975.60	0	3.5160	0	36.0950	8	28.716	0	965.605	0	10.3	4	3.3	4	-1E+10	1	-1E+10	1	-1E+10	1	-1E+10	1	-1E+10	1	-1E+10	1
4901784	141	C	05/15/2019	10:43	-132.732	42.830	0	980.60	0	3.5070	0	36.0990	8	28.720	0	970.543	0	10.3	4	3.3	4	-1E+10	1	-1E+10	1	-1E+10	1	-1E+10	1	-1E+10	1	-1E+10	1
4901784	141	C	05/15/2019	10:43	-132.732	42.830	0	985.70	0	3.4950	0	36.1030	8	28.725	0	975.578	0	10.4	4	3.3	4	-1E+10	1	-1E+10	1	-1E+10	1	-1E+10	1	-1E+10	1	-1E+10	1
4901784	141	C	05/15/2019	10:43	-132.732	42.830	0	990.60	0	3.4840	0	36.1060	8	28.728	0	980.417	0	10.4	4	3.3	4	-1E+10	1	-1E+10	1	-1E+10	1	-1E+10	1	-1E+10	1	-1E+10	1
4901784	141	C	05/15/2019	10:43	-132.732	42.830	0	995.60	0	3.4740	0	36.1080	8	28.731	0	985.353	0	10.5	4	3.3	4	-1E+10	1	-1E+10	1	-1E+10	1	-1E+10	1	-1E+10	1	-1E+10	1
4901784	141	C	05/15/2019	10:43	-132.732	42.830	0	1000.50	0	3.4640	0	36.1120	8	28.735	0	990.192	0	10.6	4	3.3	4	-1E+10	1	-1E+10	1	-1E+10	1	-1E+10	1	-1E+10	1	-1E+10	1
4901784	141	C	05/15/2019	10:43	-132.732	42.830	0	1005.70	0	3.4500	0	36.1140	8	28.738	0	995.326	0	10.6	4	3.4	4	-1E+10	1	-1E+10	1	-1E+10	1	-1E+10	1	-1E+10	1	-1E+10	1
4901784	141	C	05/15/2019	10:43	-132.732	42.830	0	1010.20	0	3.4430	0	36.1180	8	28.742	0	999.768	0	10.7	4	3.4	4	-1E+10	1	-1E+10	1	-1E+10	1	-1E+10	1	-1E+10	1	-1E+10	1
4901784	141	C	05/15/2019	10:43	-132.732	42.830	0	1015.30	0	3.4300	0	36.1220	8	28.747	0	1004.804	0	10.8	4	3.4	4	-1E+10	1	-1E+10	1	-1E+10	1	-1E+10	1	-1E+10	1	-1E+10	1
4901784	141	C	05/15/2019	10:43	-132.732	42.830	0	1020.60	0	3.4120	0	36.1260	8	28.752	0	1010.036	0	10.9	4	3.4	4	-1E+10	1	-1E+10	1	-1E+10	1	-1E+10	1	-1E+10	1	-1E+10	1
4901784	141	C	05/15/2019	10:43	-132.732	42.830	0	1024.80	0	3.4020	0	36.1290	8	28.755	0	1014.182	0	11.0	4	3.5	4	-1E+10	1	-1E+10	1	-1E+10	1	-1E+10	1	-1E+10	1	-1E+10	1
4901784	141	C	05/15/2019	10:43	-132.732	42.830	0	1030.20	0	3.3930	0	36.1320	8	28.758	0	1019.513	0	11.0	4	3.5	4	-1E+10	1	-1E+10	1	-1E+10	1	-1E+10	1	-1E+10	1	-1E+10	1
4901784	141	C	05/15/2019	10:43	-132.732	42.830	0	1035.40	0	3.3900	0	36.1340	8	28.760	0	1024.647	0	11.1	4	3.5	4	-1E+10	1	-1E+10	1	-1E+10	1	-1E+10	1	-1E+10	1	-1E+10	1
4901784	141	C	05/15/2019	10:43	-132.732	42.830	0	1039.70	0	3.3840	0	36.1360	8	28.762	0	1028.891	0	11.1	4	3.5	4	-1E+10	1	-1E+10	1	-1E+10	1	-1E+10	1	-1E+10	1	-1E+10	1
4901784	141	C	05/15/2019	10:43	-132.732	42.830	0	1044.80	0	3.3760	0	36.1370	8	28.764	0	1033.926	0	11.2	4	3.5	4	-1E+10	1	-1E+10	1	-1E+10	1	-1E+10	1	-1E+10	1	-1E+10	1
4901784	141	C	05/15/2019	10:43	-132.732	42.830	0	1050.00	0	3.3690	0	36.1390	8	28.766	0	1039.059	0	11.2	4	3.5	4	-1E+10	1	-1E+10	1	-1E+10	1	-1E+10	1	-1E+10	1	-1E+10	1
4901784	141	C	05/15/2019	10:43	-132.732	42.830	0	1054.30	0	3.3670	0	36.1390	8	28.767	0	1043.303	0	11.1	4	3.5	4	-1E+10	1	-1E+10	1	-1E+10	1	-1E+10	1	-1E+10	1	-1E+10	1
4901784	141	C	05/15/2019	10:43	-132.732	42.830	0	1059.70	0	3.3410	0	36.1400	8	28.770	0	1048.634	0	11.1	4	3.5	4	-1E+10	1	-1E+10	1	-1E+10	1	-1E+10	1	-1E+10	1	-1E+10	1
4901784	141	C	05/15/2019	10:43	-132.732	42.830	0	1064.80	0	3.3240	0	36.1410	8	28.773	0	1053.668	0	11.1	4	3.5	4	-1E+10	1	-1E+10	1	-1E+10	1	-1E+10	1	-1E+10	1	-1E+10	1
4901784	141	C	05/15/2019	10:43	-132.732	42.830	0	1069.80	0	3.3100	0	36.1440	8	28.776	0	1058.603	0	11.2	4	3.5	4	-1E+10	1	-1E+10	1	-1E+10	1	-1E+10	1	-1E+10	1	-1E+10	1
4901784	141	C	05/15/2019	10:43	-132.732	42.830	0	1074.90	0	3.2910	0	36.1480	8	28.781	0	1063.636	0	11.3	4	3.6	4	-1E+10	1	-1E+10	1	-1E+10	1	-1E+10	1	-1E+10	1	-1E+10	1
4901784	141	C	05/15/2019	10:43	-132.732	42.830	0	1080.00	0	3.2770	0	36.1520	8	28.786	0	1068.670	0	11.6	4	3.6	4	-1E+10	1	-1E+10	1	-1E+10	1	-1E+10	1	-1E+10	1	-1E+10	1
4901784	141	C	05/15/2019	10:43	-132.732	42.830	0	1085.10	0	3.2690	0	36.1570	8	28.791	0	1073.703	0	11.7	4	3.7	4	-1E+10	1	-1E+10	1	-1E+10	1	-1E+10	1	-1E+10	1	-1E+10	1
4901784	141	C	05/15/2019	10:43	-132.732	42.830	0	1089.50	0	3.2600	0	36.1590	8	28.793	0	1078.046	0	11.8	4	3.7	4	-1E+10	1	-1E+10	1	-1E+10	1	-1E+10	1	-1E+10	1	-1E+10	1
4901784	141	C	05/15/2019	10:43	-132.732	42.830	0	1094.40	0	3.2480	0	36.1620	8	28.797	0	1082.882	0	12.0	4	3.8	4	-1E+10	1	-1E+10	1	-1E+10	1	-1E+10	1	-1E+10	1	-1E+10	1
4901784	141	C	05/15/2019	10:43	-132.732	42.830	0	1099.90	0	3.2410	0	36.1640	8	28.799	0	1088.310	0	12.0	4	3.8	4	-1E+10	1	-1E+10	1	-1E+10	1	-1E+10	1	-1E+10	1	-1E+10	1
4901784	141	C	05/15/2019	10:43	-132.732	42.830	0	1104.70	0	3.2350	0	36.1660	8	28.802	0	1093.046	0	12.1	4	3.8	4	-1E+10	1	-1E+10	1	-1E+10	1	-1E+10	1	-1E+10	1	-1E+10	1
4901784	141	C	05/15/2019	10:43	-132.732	42.830	0	1109.60	0	3.2260	0	36.1670	8	28.803	0	1097.882	0	12.1	4	3.8	4	-1E+10	1	-1E+10	1	-1E+10	1	-1E+10	1	-1E+10	1	-1E+10	1
4901784	141	C	05/15/2019	10:43	-132.732	42.830	0	1114.80	0	3.2150	0	36.1700	8	28.807	0	1103.013	0	12.3	4	3.9	4	-1E+10	1	-1E+10	1	-1E+10	1	-1E+10	1	-1E+10	1	-1E+10	1
4901784	141	C	05/15/2019	10:43	-132.732	42.830	0	1119.70	0	3.2030	0	36.1730	8	28.810	0	1107.849	0	12.4	4	3.9	4	-1E+10	1	-1E+10	1	-1E+10	1	-1E+10	1	-1E+10	1	-1E+10	1
4901784	141	C	05/15/2019	10:43	-132.732	42.830	0	1125.00	0	3.1810	0	36.1760	8	28.815	0	1113.079	0	12.4	4	3.9	4	-1E+10	1	-1E+10	1	-1E+10	1	-1E+10	1	-1E+10	1	-1E+10	1
4901784	141	C	05/15/2019	10:43	-132.732	42.830	0	1130.60	0	3.1740	0	36.1770	8	28.816	0	1118.604	0	12.5	4	3.9	4	-1E+10	1	-1E+10	1	-1E+10	1	-1E+10	1	-1E+10	1	-1E+10	1
4901784	141	C	05/15/2019	10:43	-132.732	42.830	0	1135.60	0	3.1640	0	36.1790	8	28.819	0	1123.538	0	12.6	4	4.0	4	-1E+10	1	-1E+10	1	-1E+10	1	-1E+10	1	-1E+10	1	-1E+10	1
4901784	141	C	05/15/2019	10:43	-132.732	42.830	0	1140.60	0	3.1570	0	36.1810	8	28.821	0	1128.471	0	12.7	4	4.0	4	-1E+10	1	-1E+10	1	-1E+10	1	-1E+10	1	-1E+10	1	-1E+10	1
4901784	141	C	05/15/2019	10:43	-132.732	42.830	0	1145.70	0	3.1480	0	36.1830	8	28.824	0	1133.503	0	12.8	4	4.0	4	-1E+10	1	-1E+10	1	-1E+10	1	-1E+10	1	-1E+10	1	-1E+10	1
4901784	141	C	05/15/2019	10:43	-132.732	42.830	0	1150.60	0	3.1440	0	36.1830	8	28.824	0	1138.338	0	12.8	4	4.0	4	-1E+10	1	-1E+10	1	-1E+10	1	-1E+10	1	-1E+10	1	-1E+10	1
4901784	141	C	05/15/2019	10:43	-132.732	42.830	0	1155.70	0	3.1300	0	36.1860	8	28.828	0	1143.370	0	13.0	4	4.1	4	-1E+10	1	-1E+10	1	-1E+10	1	-1E+10	1	-1E+10	1	-1E+10	1
4901784	141	C	05/15/2019	10:43	-132.732	42.830	0	1160.00	0	3.1210	0	36.1890	8	28.831	0	1147.612	0	13.1	4	4.1	4	-1E+10	1	-1E+10	1	-1E+10	1	-1E+10	1	-1E+10	1	-1E+10	1
4901784	141	C	05/15/2019	10:43	-132.732	42.830	0	1164.30	0	3.1100	0	36.1900	8	28.833	0	1151.854	0	13.2	4	4.2	4	-1E+10	1	-1E+10	1	-1E+10	1	-1E+10	1	-1E+10	1	-1E+10	1
4901784	141	C	05/15/2019	10:43	-132.732	42.830	0	1169.50	0	3.0960	0	36.1930	8	28.837	0	1156.985	0	13.4	4	4.2	4	-1E+10	1	-1E+10	1	-1E+10	1	-1E+10	1	-1E+10	1	-1E+10	1
4901784	141	C	05/15/2019	10:43	-132.732	42.830	0	1175.10	0	3.0820	0	36.1970	8	28.842	0	1162.509	0	13.6	4	4.3	4	-1E+10	1	-1E+10	1	-1E+10	1	-1E+10	1	-1E+10	1	-1E+10	1
4901784	141	C	05/15/2019	10:43	-132.732	42.830	0	1180.40	0	3.0720	0	36.1990	8	28.844	0	1167.738	0	13.8	4	4.3	4	-1E+10	1	-1E+10	1	-1E+10	1	-1E+10	1	-1E+10	1	-1E+10	1
4901784	141	C	05/15/2019	10:43	-132.732	42.830	0	1185.60	0	3.0600	0	36.2010	8	28.847	0	1172.867	0	13.9	4	4.4	4	-1E+10	1	-1E+10	1	-1E+10	1	-1E+10	1	-1E+10	1	-1E+10	1
4901784	141	C	05/15/2019	10:43	-132.732	42.830	0	1189.90	0	3.0520	0	36.2030	8	28.849	0	1177.109	0	14.1	4	4.4	4	-1E+10	1	-1E+10	1	-1E+10	1	-1E+10	1	-1E+10	1	-1E+10	1
4901784	141	C	05/15/2019	10:43	-132.732	42.830	0	1194.30	0	3.0430	0	36.2040	8	28.851	0	1181.450	0	14.2	4	4.5	4	-1E+10	1	-1E+10	1	-1E+10	1	-1E+10	1	-1E+10	1	-1E+10	1
4901784	141	C	05/15/2019	10:43	-132.732	42.830	0	1199.80	0	3.0250	0	36.2080	8	28.856	0	1186.875	0	14.5	4	4.5	4	-1E+10	1	-1E+10	1	-1E+10	1	-1E+10	1	-1E+10	1	-1E+10	1
4901784	141	C	05/15/2019	10:43	-132.732	42.830	0	1204.60	0	3.0170	0	36.2100	8	28.858	0	1191.609	0	14.6	4	4.6	4	-1E+10	1	-1E+10	1	-1E+10	1	-1E+10	1	-1E+10	1	-1E+10	1
4901784	141	C	05/15/2019	10:43	-132.732	42.830	0	1209.50	0	3.0070	0	36.2130	8	28.862	0	1196.443	0	14.8	4	4.6	4	-1E+10	1	-1E+10	1	-1E+10	1	-1E+10	1	-1E+10	1	-1E+10	1
4901784	141	C	05/15/2019	10:43	-132.732	42.830	0	1215.20	0	2.9990	0	36.2150	8	28.864	0	1202.065	0	15.0	4	4.7	4	-1E+10	1	-1E+10	1	-1E+10	1	-1E+10	1	-1E+10	1	-1E+10	1
4901784	141	C	05/15/2019	10:43	-132.732	42.830	0	1220.10	0	2.9960	0	36.2160	8	28.865	0	1206.898	0	15.1	4	4.7	4	-1E+10	1	-1E+10	1	-1E+10	1	-1E+10	1	-1E+10	1	-1E+10	1
4901784	141	C	05/15/2019	10:43	-132.732	42.830	0	1224.90	0	2.9920	0	36.2170	8	28.866	0	1211.632	0	15.3	4	4.8	4	-1E+10	1	-1E+10	1	-1E+10	1	-1E+10	1	-1E+10	1	-1E+10	1
4901784	141	C	05/15/2019	10:43	-132.732	42.830	0	1229.90	0	2.9840	0	36.2190	8	28.869	0	1216.564	0	15.4	4	4.8	4	-1E+10	1	-1E+10	1	-1E+10	1	-1E+10	1	-1E+10	1	-1E+10	1
4901784	141	C	05/15/2019	10:43	-132.732	42.830	0	1234.80	0	2.9800	0	36.2200	8	28.870	0	1221.396	0	15.6	4	4.9	4	-1E+10	1	-1E+10	1	-1E+10	1	-1E+10	1	-1E+10	1	-1E+10	1
4901784	141	C	05/15/2019	10:43	-132.732	42.830	0	1239.90	0	2.9760	0	36.2220	8	28.872	0	1226.426	0	15.8	4	4.9	4	-1E+10	1	-1E+10	1	-1E+10	1	-1E+10	1	-1E+10	1	-1E+10	1
4901784	141	C	05/15/2019	10:43	-132.732	42.830	0	1244.80	0	2.9660	0	36.2240	8	28.875	0	1231.258	0	15.9	4	5.0	4	-1E+10	1	-1E+10	1	-1E+10	1	-1E+10	1	-1E+10	1	-1E+10	1
4901784	141	C	05/15/2019	10:43	-132.732	42.830	0	1250.30	0	2.9570	0	36.2260	8	28.877	0	1236.682	0	16.2	4	5.1	4	-1E+10	1	-1E+10	1	-1E+10	1	-1E+10	1	-1E+10	1	-1E+10	1
4901784	141	C	05/15/2019	10:43	-132.732	42.830	0	1254.90	0	2.9470	0	36.2280	8	28.880	0	1241.219	0	16.3	4	5.1	4	-1E+10	1	-1E+10	1	-1E+10	1	-1E+10	1	-1E+10	1	-1E+10	1
4901784	141	C	05/15/2019	10:43	-132.732	42.830	0	1259.50	0	2.9370	0	36.2290	8	28.881	0	1245.755	0	16.4	4	5.1	4	-1E+10	1	-1E+10	1	-1E+10	1	-1E+10	1	-1E+10	1	-1E+10	1
4901784	141	C	05/15/2019	10:43	-132.732	42.830	0	1265.00	0	2.9250	0	36.2320	8	28.885	0	1251.179	0	16.6	4	5.2	4	-1E+10	1	-1E+10	1	-1E+10	1	-1E+10	1	-1E+10	1	-1E+10	1
4901784	141	C	05/15/2019	10:43	-132.732	42.830	0	1269.70	0	2.9220	0	36.2330	8	28.886	0	1255.813	0	16.6	4	5.2	4	-1E+10	1	-1E+10	1	-1E+10	1	-1E+10	1	-1E+10	1	-1E+10	1
4901784	141	C	05/15/2019	10:43	-132.732	42.830	0	1274.70	0	2.9190	0	36.2330	8	28.886	0	1260.744	0	16.7	4	5.2	4	-1E+10	1	-1E+10	1	-1E+10	1	-1E+10	1	-1E+10	1	-1E+10	1
4901784	141	C	05/15/2019	10:43	-132.732	42.830	0	1280.00	0	2.9120	0	36.2350	8	28.889	0	1265.970	0	16.9	4	5.3	4	-1E+10	1	-1E+10	1	-1E+10	1	-1E+10	1	-1E+10	1	-1E+10	1
4901784	141	C	05/15/2019	10:43	-132.732	42.830	0	1284.90	0	2.9080	0	36.2360	8	28.890	0	1270.801	0	17.0	4	5.3	4	-1E+10	1	-1E+10	1	-1E+10	1	-1E+10	1	-1E+10	1	-1E+10	1
4901784	141	C	05/15/2019	10:43	-132.732	42.830	0	1289.80	0	2.8990	0	36.2380	8	28.892	0	1275.633	0	17.3	4	5.4	4	-1E+10	1	-1E+10	1	-1E+10	1	-1E+10	1	-1E+10	1	-1E+10	1
4901784	141	C	05/15/2019	10:43	-132.732	42.830	0	1294.70	0	2.8860	0	36.2400	8	28.895	0	1280.464	0	17.5	4	5.5	4	-1E+10	1	-1E+10	1	-1E+10	1	-1E+10	1	-1E+10	1	-1E+10	1
4901784	141	C	05/15/2019	10:43	-132.732	42.830	0	1299.60	0	2.8790	0	36.2420	8	28.898	0	1285.295	0	17.7	4	5.5	4	-1E+10	1	-1E+10	1	-1E+10	1	-1E+10	1	-1E+10	1	-1E+10	1
4901784	141	C	05/15/2019	10:43	-132.732	42.830	0	1304.60	0	2.8680	0	36.2440	8	28.900	0	1290.225	0	17.9	4	5.6	4	-1E+10	1	-1E+10	1	-1E+10	1	-1E+10	1	-1E+10	1	-1E+10	1
4901784	141	C	05/15/2019	10:43	-132.732	42.830	0	1309.60	0	2.8630	0	36.2450	8	28.902	0	1295.154	0	18.1	4	5.6	4	-1E+10	1	-1E+10	1	-1E+10	1	-1E+10	1	-1E+10	1	-1E+10	1
4901784	141	C	05/15/2019	10:43	-132.732	42.830	0	1314.50	0	2.8510	0	36.2470	8	28.904	0	1299.985	0	18.4	4	5.7	4	-1E+10	1	-1E+10	1	-1E+10	1	-1E+10	1	-1E+10	1	-1E+10	1
4901784	141	C	05/15/2019	10:43	-132.732	42.830	0	1320.00	0	2.8410	0	36.2490	8	28.907	0	1305.407	0	18.6	4	5.8	4	-1E+10	1	-1E+10	1	-1E+10	1	-1E+10	1	-1E+10	1	-1E+10	1
4901784	141	C	05/15/2019	10:43	-132.732	42.830	0	1325.10	0	2.8280	0	36.2520	8	28.910	0	1310.435	0	18.9	4	5.9	4	-1E+10	1	-1E+10	1	-1E+10	1	-1E+10	1	-1E+10	1	-1E+10	1
4901784	141	C	05/15/2019	10:43	-132.732	42.830	0	1330.00	0	2.8220	0	36.2530	8	28.912	0	1315.266	0	19.1	4	6.0	4	-1E+10	1	-1E+10	1	-1E+10	1	-1E+10	1	-1E+10	1	-1E+10	1
4901784	141	C	05/15/2019	10:43	-132.732	42.830	0	1335.00	0	2.8060	0	36.2560	8	28.916	0	1320.195	0	19.4	4	6.0	4	-1E+10	1	-1E+10	1	-1E+10	1	-1E+10	1	-1E+10	1	-1E+10	1
4901784	141	C	05/15/2019	10:43	-132.732	42.830	0	1339.30	0	2.8010	0	36.2570	8	28.917	0	1324.433	0	19.5	4	6.1	4	-1E+10	1	-1E+10	1	-1E+10	1	-1E+10	1	-1E+10	1	-1E+10	1
4901784	141	C	05/15/2019	10:43	-132.732	42.830	0	1344.50	0	2.7940	0	36.2580	8	28.919	0	1329.559	0	19.7	4	6.1	4	-1E+10	1	-1E+10	1	-1E+10	1	-1E+10	1	-1E+10	1	-1E+10	1
4901784	141	C	05/15/2019	10:43	-132.732	42.830	0	1349.80	0	2.7840	0	36.2600	8	28.921	0	1334.784	0	20.1	4	6.2	4	-1E+10	1	-1E+10	1	-1E+10	1	-1E+10	1	-1E+10	1	-1E+10	1
4901784	141	C	05/15/2019	10:43	-132.732	42.830	0	1355.10	0	2.7650	0	36.2630	8	28.925	0	1340.008	0	20.4	4	6.4	4	-1E+10	1	-1E+10	1	-1E+10	1	-1E+10	1	-1E+10	1	-1E+10	1
4901784	141	C	05/15/2019	10:43	-132.732	42.830	0	1360.50	0	2.7550	0	36.2650	8	28.928	0	1345.330	0	20.7	4	6.4	4	-1E+10	1	-1E+10	1	-1E+10	1	-1E+10	1	-1E+10	1	-1E+10	1
4901784	141	C	05/15/2019	10:43	-132.732	42.830	0	1365.00	0	2.7490	0	36.2670	8	28.930	0	1349.766	0	20.9	4	6.5	4	-1E+10	1	-1E+10	1	-1E+10	1	-1E+10	1	-1E+10	1	-1E+10	1
4901784	141	C	05/15/2019	10:43	-132.732	42.830	0	1369.40	0	2.7380	0	36.2690	8	28.933	0	1354.103	0	21.1	4	6.6	4	-1E+10	1	-1E+10	1	-1E+10	1	-1E+10	1	-1E+10	1	-1E+10	1
4901784	141	C	05/15/2019	10:43	-132.732	42.830	0	1374.70	0	2.7280	0	36.2700	8	28.934	0	1359.326	0	21.3	4	6.6	4	-1E+10	1	-1E+10	1	-1E+10	1	-1E+10	1	-1E+10	1	-1E+10	1
4901784	141	C	05/15/2019	10:43	-132.732	42.830	0	1380.10	0	2.7180	0	36.2730	8	28.938	0	1364.648	0	21.6	4	6.7	4	-1E+10	1	-1E+10	1	-1E+10	1	-1E+10	1	-1E+10	1	-1E+10	1
4901784	141	C	05/15/2019	10:43	-132.732	42.830	0	1385.50	0	2.7120	0	36.2730	8	28.938	0	1369.970	0	21.8	4	6.8	4	-1E+10	1	-1E+10	1	-1E+10	1	-1E+10	1	-1E+10	1	-1E+10	1
4901784	141	C	05/15/2019	10:43	-132.732	42.830	0	1390.00	0	2.7030	0	36.2750	8	28.941	0	1374.405	0	22.1	4	6.9	4	-1E+10	1	-1E+10	1	-1E+10	1	-1E+10	1	-1E+10	1	-1E+10	1
4901784	141	C	05/15/2019	10:43	-132.732	42.830	0	1394.60	0	2.6930	0	36.2770	8	28.943	0	1378.939	0	22.4	4	7.0	4	-1E+10	1	-1E+10	1	-1E+10	1	-1E+10	1	-1E+10	1	-1E+10	1
4901784	141	C	05/15/2019	10:43	-132.732	42.830	0	1400.10	0	2.6780	0	36.2790	8	28.946	0	1384.359	0	22.8	4	7.1	4	-1E+10	1	-1E+10	1	-1E+10	1	-1E+10	1	-1E+10	1	-1E+10	1
4901784	141	C	05/15/2019	10:43	-132.732	42.830	0	1405.60	0	2.6700	0	36.2810	8	28.949	0	1389.779	0	23.1	4	7.2	4	-1E+10	1	-1E+10	1	-1E+10	1	-1E+10	1	-1E+10	1	-1E+10	1
4901784	141	C	05/15/2019	10:43	-132.732	42.830	0	1410.20	0	2.6550	0	36.2840	8	28.952	0	1394.312	0	23.5	4	7.3	4	-1E+10	1	-1E+10	1	-1E+10	1	-1E+10	1	-1E+10	1	-1E+10	1
4901784	141	C	05/15/2019	10:43	-132.732	42.830	0	1414.90	0	2.6490	0	36.2850	8	28.954	0	1398.944	0	23.7	4	7.3	4	-1E+10	1	-1E+10	1	-1E+10	1	-1E+10	1	-1E+10	1	-1E+10	1
4901784	141	C	05/15/2019	10:43	-132.732	42.830	0	1420.10	0	2.6360	0	36.2870	8	28.957	0	1404.068	0	23.9	4	7.4	4	-1E+10	1	-1E+10	1	-1E+10	1	-1E+10	1	-1E+10	1	-1E+10	1
4901784	141	C	05/15/2019	10:43	-132.732	42.830	0	1424.40	0	2.6310	0	36.2880	8	28.958	0	1408.305	0	24.2	4	7.5	4	-1E+10	1	-1E+10	1	-1E+10	1	-1E+10	1	-1E+10	1	-1E+10	1
4901784	141	C	05/15/2019	10:43	-132.732	42.830	0	1430.10	0	2.6160	0	36.2910	8	28.962	0	1413.921	0	24.7	4	7.7	4	-1E+10	1	-1E+10	1	-1E+10	1	-1E+10	1	-1E+10	1	-1E+10	1
4901784	141	C	05/15/2019	10:43	-132.732	42.830	0	1435.80	0	2.6040	0	36.2930	8	28.964	0	1419.538	0	25.0	4	7.8	4	-1E+10	1	-1E+10	1	-1E+10	1	-1E+10	1	-1E+10	1	-1E+10	1
4901784	141	C	05/15/2019	10:43	-132.732	42.830	0	1440.70	0	2.5980	0	36.2940	8	28.966	0	1424.366	0	25.2	4	7.8	4	-1E+10	1	-1E+10	1	-1E+10	1	-1E+10	1	-1E+10	1	-1E+10	1
4901784	141	C	05/15/2019	10:43	-132.732	42.830	0	1445.70	0	2.5930	0	36.2960	8	28.968	0	1429.292	0	25.4	4	7.9	4	-1E+10	1	-1E+10	1	-1E+10	1	-1E+10	1	-1E+10	1	-1E+10	1
4901784	141	C	05/15/2019	10:43	-132.732	42.830	0	1450.70	0	2.5880	0	36.2970	8	28.969	0	1434.218	0	25.5	4	7.9	4	-1E+10	1	-1E+10	1	-1E+10	1	-1E+10	1	-1E+10	1	-1E+10	1
4901784	141	C	05/15/2019	10:43	-132.732	42.830	0	1454.90	0	2.5840	0	36.2970	8	28.970	0	1438.356	0	25.7	4	8.0	4	-1E+10	1	-1E+10	1	-1E+10	1	-1E+10	1	-1E+10	1	-1E+10	1
4901784	141	C	05/15/2019	10:43	-132.732	42.830	0	1459.20	0	2.5740	0	36.2990	8	28.972	0	1442.593	0	26.1	4	8.1	4	-1E+10	1	-1E+10	1	-1E+10	1	-1E+10	1	-1E+10	1	-1E+10	1
4901784	141	C	05/15/2019	10:43	-132.732	42.830	0	1464.20	0	2.5620	0	36.3010	8	28.975	0	1447.519	0	26.5	4	8.2	4	-1E+10	1	-1E+10	1	-1E+10	1	-1E+10	1	-1E+10	1	-1E+10	1
4901784	141	C	05/15/2019	10:43	-132.732	42.830	0	1469.40	0	2.5520	0	36.3030	8	28.977	0	1452.642	0	26.8	4	8.3	4	-1E+10	1	-1E+10	1	-1E+10	1	-1E+10	1	-1E+10	1	-1E+10	1
4901784	141	C	05/15/2019	10:43	-132.732	42.830	0	1474.50	0	2.5410	0	36.3050	8	28.980	0	1457.666	0	27.0	4	8.4	4	-1E+10	1	-1E+10	1	-1E+10	1	-1E+10	1	-1E+10	1	-1E+10	1
4901784	141	C	05/15/2019	10:43	-132.732	42.830	0	1479.60	0	2.5380	0	36.3060	8	28.981	0	1462.690	0	27.2	4	8.4	4	-1E+10	1	-1E+10	1	-1E+10	1	-1E+10	1	-1E+10	1	-1E+10	1
4901784	141	C	05/15/2019	10:43	-132.732	42.830	0	1484.70	0	2.5320	0	36.3070	8	28.982	0	1467.714	0	27.5	4	8.5	4	-1E+10	1	-1E+10	1	-1E+10	1	-1E+10	1	-1E+10	1	-1E+10	1
4901784	141	C	05/15/2019	10:43	-132.732	42.830	0	1489.80	0	2.5190	0	36.3090	8	28.985	0	1472.738	0	28.0	4	8.7	4	-1E+10	1	-1E+10	1	-1E+10	1	-1E+10	1	-1E+10	1	-1E+10	1
4901784	141	C	05/15/2019	10:43	-132.732	42.830	0	1495.00	0	2.5110	0	36.3110	8	28.988	0	1477.860	0	28.3	4	8.7	4	-1E+10	1	-1E+10	1	-1E+10	1	-1E+10	1	-1E+10	1	-1E+10	1
4901784	141	C	05/15/2019	10:43	-132.732	42.830	0	1500.30	0	2.5010	0	36.3120	8	28.989	0	1483.081	0	28.5	4	8.8	4	-1E+10	1	-1E+10	1	-1E+10	1	-1E+10	1	-1E+10	1	-1E+10	1
4901784	141	C	05/15/2019	10:43	-132.732	42.830	0	1505.60	0	2.4920	0	36.3140	8	28.992	0	1488.301	0	28.9	4	9.0	4	-1E+10	1	-1E+10	1	-1E+10	1	-1E+10	1	-1E+10	1	-1E+10	1
4901784	141	C	05/15/2019	10:43	-132.732	42.830	0	1510.10	0	2.4820	0	36.3160	8	28.994	0	1492.734	0	29.2	4	9.0	4	-1E+10	1	-1E+10	1	-1E+10	1	-1E+10	1	-1E+10	1	-1E+10	1
4901784	141	C	05/15/2019	10:43	-132.732	42.830	0	1514.50	0	2.4740	0	36.3170	8	28.996	0	1497.067	0	29.4	4	9.1	4	-1E+10	1	-1E+10	1	-1E+10	1	-1E+10	1	-1E+10	1	-1E+10	1
4901784	141	C	05/15/2019	10:43	-132.732	42.830	0	1519.90	0	2.4690	0	36.3170	8	28.996	0	1502.386	0	29.6	4	9.2	4	-1E+10	1	-1E+10	1	-1E+10	1	-1E+10	1	-1E+10	1	-1E+10	1
4901784	141	C	05/15/2019	10:43	-132.732	42.830	0	1525.10	0	2.4630	0	36.3180	8	28.998	0	1507.508	0	29.9	4	9.3	4	-1E+10	1	-1E+10	1	-1E+10	1	-1E+10	1	-1E+10	1	-1E+10	1
4901784	141	C	05/15/2019	10:43	-132.732	42.830	0	1530.50	0	2.4540	0	36.3200	8	29.000	0	1512.826	0	30.3	4	9.3	4	-1E+10	1	-1E+10	1	-1E+10	1	-1E+10	1	-1E+10	1	-1E+10	1
4901784	141	C	05/15/2019	10:43	-132.732	42.830	0	1535.10	0	2.4460	0	36.3210	8	29.002	0	1517.356	0	30.4	4	9.4	4	-1E+10	1	-1E+10	1	-1E+10	1	-1E+10	1	-1E+10	1	-1E+10	1
4901784	141	C	05/15/2019	10:43	-132.732	42.830	0	1539.70	0	2.4430	0	36.3220	8	29.003	0	1521.887	0	30.6	4	9.5	4	-1E+10	1	-1E+10	1	-1E+10	1	-1E+10	1	-1E+10	1	-1E+10	1
4901784	141	C	05/15/2019	10:43	-132.732	42.830	0	1545.30	0	2.4310	0	36.3230	8	29.005	0	1527.402	0	31.0	4	9.6	4	-1E+10	1	-1E+10	1	-1E+10	1	-1E+10	1	-1E+10	1	-1E+10	1
4901784	141	C	05/15/2019	10:43	-132.732	42.830	0	1549.90	0	2.4220	0	36.3250	8	29.007	0	1531.932	0	31.3	4	9.7	4	-1E+10	1	-1E+10	1	-1E+10	1	-1E+10	1	-1E+10	1	-1E+10	1
4901784	141	C	05/15/2019	10:43	-132.732	42.830	0	1555.20	0	2.4110	0	36.3270	8	29.010	0	1537.151	0	31.7	4	9.8	4	-1E+10	1	-1E+10	1	-1E+10	1	-1E+10	1	-1E+10	1	-1E+10	1
4901784	141	C	05/15/2019	10:43	-132.732	42.830	0	1560.40	0	2.4030	0	36.3280	8	29.011	0	1542.272	0	31.9	4	9.9	4	-1E+10	1	-1E+10	1	-1E+10	1	-1E+10	1	-1E+10	1	-1E+10	1
4901784	141	C	05/15/2019	10:43	-132.732	42.830	0	1565.20	0	2.3960	0	36.3290	8	29.013	0	1546.999	0	32.2	4	9.9	4	-1E+10	1	-1E+10	1	-1E+10	1	-1E+10	1	-1E+10	1	-1E+10	1
4901784	141	C	05/15/2019	10:43	-132.732	42.830	0	1570.10	0	2.3860	0	36.3310	8	29.015	0	1551.824	0	32.4	4	10.0	4	-1E+10	1	-1E+10	1	-1E+10	1	-1E+10	1	-1E+10	1	-1E+10	1
4901784	141	C	05/15/2019	10:43	-132.732	42.830	0	1574.90	0	2.3820	0	36.3320	8	29.016	0	1556.550	0	32.7	4	10.1	4	-1E+10	1	-1E+10	1	-1E+10	1	-1E+10	1	-1E+10	1	-1E+10	1
4901784	141	C	05/15/2019	10:43	-132.732	42.830	0	1579.80	0	2.3750	0	36.3340	8	29.018	0	1561.375	0	33.0	4	10.2	4	-1E+10	1	-1E+10	1	-1E+10	1	-1E+10	1	-1E+10	1	-1E+10	1
4901784	141	C	05/15/2019	10:43	-132.732	42.830	0	1584.70	0	2.3710	0	36.3340	8	29.019	0	1566.200	0	33.2	4	10.2	4	-1E+10	1	-1E+10	1	-1E+10	1	-1E+10	1	-1E+10	1	-1E+10	1
4901784	141	C	05/15/2019	10:43	-132.732	42.830	0	1589.60	0	2.3610	0	36.3360	8	29.021	0	1571.024	0	33.4	4	10.3	4	-1E+10	1	-1E+10	1	-1E+10	1	-1E+10	1	-1E+10	1	-1E+10	1
4901784	141	C	05/15/2019	10:43	-132.732	42.830	0	1594.60	0	2.3530	0	36.3380	8	29.024	0	1575.947	0	33.6	4	10.3	4	-1E+10	1	-1E+10	1	-1E+10	1	-1E+10	1	-1E+10	1	-1E+10	1
4901784	141	C	05/15/2019	10:43	-132.732	42.830	0	1599.50	0	2.3490	0	36.3390	8	29.025	0	1580.772	0	33.8	4	10.4	4	-1E+10	1	-1E+10	1	-1E+10	1	-1E+10	1	-1E+10	1	-1E+10	1
4901784	141	C	05/15/2019	10:43	-132.732	42.830	0	1604.50	0	2.3440	0	36.3400	8	29.026	0	1585.694	0	34.0	4	10.5	4	-1E+10	1	-1E+10	1	-1E+10	1	-1E+10	1	-1E+10	1	-1E+10	1
4901784	141	C	05/15/2019	10:43	-132.732	42.830	0	1609.50	0	2.3370	0	36.3410	8	29.028	0	1590.617	0	34.3	4	10.6	4	-1E+10	1	-1E+10	1	-1E+10	1	-1E+10	1	-1E+10	1	-1E+10	1
4901784	141	C	05/15/2019	10:43	-132.732	42.830	0	1614.60	0	2.3330	0	36.3420	8	29.029	0	1595.638	0	34.5	4	10.6	4	-1E+10	1	-1E+10	1	-1E+10	1	-1E+10	1	-1E+10	1	-1E+10	1
4901784	141	C	05/15/2019	10:43	-132.732	42.830	0	1619.60	0	2.3290	0	36.3430	8	29.030	0	1600.560	0	34.6	4	10.7	4	-1E+10	1	-1E+10	1	-1E+10	1	-1E+10	1	-1E+10	1	-1E+10	1
4901784	141	C	05/15/2019	10:43	-132.732	42.830	0	1624.70	0	2.3240	0	36.3440	8	29.031	0	1605.581	0	35.0	4	10.8	4	-1E+10	1	-1E+10	1	-1E+10	1	-1E+10	1	-1E+10	1	-1E+10	1
4901784	141	C	05/15/2019	10:43	-132.732	42.830	0	1629.80	0	2.3190	0	36.3450	8	29.032	0	1610.602	0	35.3	4	10.9	4	-1E+10	1	-1E+10	1	-1E+10	1	-1E+10	1	-1E+10	1	-1E+10	1
4901784	141	C	05/15/2019	10:43	-132.732	42.830	0	1634.90	0	2.3070	0	36.3470	8	29.035	0	1615.622	0	35.7	4	11.0	4	-1E+10	1	-1E+10	1	-1E+10	1	-1E+10	1	-1E+10	1	-1E+10	1
4901784	141	C	05/15/2019	10:43	-132.732	42.830	0	1640.00	0	2.3010	0	36.3480	8	29.036	0	1620.643	0	36.2	4	11.1	4	-1E+10	1	-1E+10	1	-1E+10	1	-1E+10	1	-1E+10	1	-1E+10	1
4901784	141	C	05/15/2019	10:43	-132.732	42.830	0	1645.20	0	2.2880	0	36.3500	8	29.039	0	1625.761	0	36.5	4	11.2	4	-1E+10	1	-1E+10	1	-1E+10	1	-1E+10	1	-1E+10	1	-1E+10	1
4901784	141	C	05/15/2019	10:43	-132.732	42.830	0	1650.30	0	2.2820	0	36.3520	8	29.041	0	1630.781	0	36.8	4	11.3	4	-1E+10	1	-1E+10	1	-1E+10	1	-1E+10	1	-1E+10	1	-1E+10	1
4901784	141	C	05/15/2019	10:43	-132.732	42.830	0	1655.50	0	2.2750	0	36.3530	8	29.043	0	1635.900	0	37.2	4	11.4	4	-1E+10	1	-1E+10	1	-1E+10	1	-1E+10	1	-1E+10	1	-1E+10	1
4901784	141	C	05/15/2019	10:43	-132.732	42.830	0	1660.70	0	2.2650	0	36.3550	8	29.045	0	1641.018	0	37.5	4	11.5	4	-1E+10	1	-1E+10	1	-1E+10	1	-1E+10	1	-1E+10	1	-1E+10	1
4901784	141	C	05/15/2019	10:43	-132.732	42.830	0	1665.00	0	2.2620	0	36.3560	8	29.046	0	1645.250	0	37.7	4	11.6	4	-1E+10	1	-1E+10	1	-1E+10	1	-1E+10	1	-1E+10	1	-1E+10	1
4901784	141	C	05/15/2019	10:43	-132.732	42.830	0	1669.50	0	2.2560	0	36.3570	8	29.048	0	1649.680	0	37.9	4	11.6	4	-1E+10	1	-1E+10	1	-1E+10	1	-1E+10	1	-1E+10	1	-1E+10	1
4901784	141	C	05/15/2019	10:43	-132.732	42.830	0	1674.80	0	2.2540	0	36.3580	8	29.049	0	1654.896	0	38.0	4	11.7	4	-1E+10	1	-1E+10	1	-1E+10	1	-1E+10	1	-1E+10	1	-1E+10	1
4901784	141	C	05/15/2019	10:43	-132.732	42.830	0	1680.10	0	2.2520	0	36.3580	8	29.049	0	1660.112	0	38.3	4	11.8	4	-1E+10	1	-1E+10	1	-1E+10	1	-1E+10	1	-1E+10	1	-1E+10	1
4901784	141	C	05/15/2019	10:43	-132.732	42.830	0	1685.50	0	2.2450	0	36.3600	8	29.051	0	1665.427	0	38.6	4	11.9	4	-1E+10	1	-1E+10	1	-1E+10	1	-1E+10	1	-1E+10	1	-1E+10	1
4901784	141	C	05/15/2019	10:43	-132.732	42.830	0	1690.00	0	2.2380	0	36.3610	8	29.053	0	1669.856	0	38.8	4	11.9	4	-1E+10	1	-1E+10	1	-1E+10	1	-1E+10	1	-1E+10	1	-1E+10	1
4901784	141	C	05/15/2019	10:43	-132.732	42.830	0	1694.40	0	2.2360	0	36.3620	8	29.054	0	1674.186	0	39.1	4	12.0	4	-1E+10	1	-1E+10	1	-1E+10	1	-1E+10	1	-1E+10	1	-1E+10	1
4901784	141	C	05/15/2019	10:43	-132.732	42.830	0	1699.80	0	2.2310	0	36.3630	8	29.055	0	1679.500	0	39.5	4	12.1	4	-1E+10	1	-1E+10	1	-1E+10	1	-1E+10	1	-1E+10	1	-1E+10	1
4901784	141	C	05/15/2019	10:43	-132.732	42.830	0	1705.10	0	2.2170	0	36.3650	8	29.058	0	1684.716	0	40.0	4	12.3	4	-1E+10	1	-1E+10	1	-1E+10	1	-1E+10	1	-1E+10	1	-1E+10	1
4901784	141	C	05/15/2019	10:43	-132.732	42.830	0	1710.50	0	2.2080	0	36.3670	8	29.060	0	1690.030	0	40.4	4	12.4	4	-1E+10	1	-1E+10	1	-1E+10	1	-1E+10	1	-1E+10	1	-1E+10	1
4901784	141	C	05/15/2019	10:43	-132.732	42.830	0	1715.00	0	2.2030	0	36.3690	8	29.062	0	1694.458	0	40.5	4	12.5	4	-1E+10	1	-1E+10	1	-1E+10	1	-1E+10	1	-1E+10	1	-1E+10	1
4901784	141	C	05/15/2019	10:43	-132.732	42.830	0	1719.50	0	2.2000	0	36.3690	8	29.062	0	1698.886	0	40.7	4	12.5	4	-1E+10	1	-1E+10	1	-1E+10	1	-1E+10	1	-1E+10	1	-1E+10	1
4901784	141	C	05/15/2019	10:43	-132.732	42.830	0	1725.00	0	2.1960	0	36.3710	8	29.064	0	1704.298	0	40.9	4	12.6	4	-1E+10	1	-1E+10	1	-1E+10	1	-1E+10	1	-1E+10	1	-1E+10	1
4901784	141	C	05/15/2019	10:43	-132.732	42.830	0	1730.50	0	2.1930	0	36.3710	8	29.065	0	1709.710	0	41.2	4	12.6	4	-1E+10	1	-1E+10	1	-1E+10	1	-1E+10	1	-1E+10	1	-1E+10	1
4901784	141	C	05/15/2019	10:43	-132.732	42.830	0	1735.20	0	2.1900	0	36.3720	8	29.066	0	1714.334	0	41.5	4	12.7	4	-1E+10	1	-1E+10	1	-1E+10	1	-1E+10	1	-1E+10	1	-1E+10	1
4901784	141	C	05/15/2019	10:43	-132.732	42.830	0	1739.70	0	2.1840	0	36.3730	8	29.067	0	1718.762	0	41.7	4	12.8	4	-1E+10	1	-1E+10	1	-1E+10	1	-1E+10	1	-1E+10	1	-1E+10	1
4901784	141	C	05/15/2019	10:43	-132.732	42.830	0	1745.10	0	2.1800	0	36.3740	8	29.068	0	1724.075	0	42.2	4	12.9	4	-1E+10	1	-1E+10	1	-1E+10	1	-1E+10	1	-1E+10	1	-1E+10	1
4901784	141	C	05/15/2019	10:43	-132.732	42.830	0	1750.40	0	2.1760	0	36.3750	8	29.070	0	1729.290	0	42.6	4	13.1	4	-1E+10	1	-1E+10	1	-1E+10	1	-1E+10	1	-1E+10	1	-1E+10	1
4901784	141	C	05/15/2019	10:43	-132.732	42.830	0	1755.30	0	2.1710	0	36.3760	8	29.071	0	1734.110	0	42.8	4	13.1	4	-1E+10	1	-1E+10	1	-1E+10	1	-1E+10	1	-1E+10	1	-1E+10	1
4901784	141	C	05/15/2019	10:43	-132.732	42.830	0	1760.10	0	2.1650	0	36.3780	8	29.073	0	1738.833	0	42.9	4	13.2	4	-1E+10	1	-1E+10	1	-1E+10	1	-1E+10	1	-1E+10	1	-1E+10	1
4901784	141	C	05/15/2019	10:43	-132.732	42.830	0	1765.00	0	2.1590	0	36.3790	8	29.074	0	1743.653	0	43.4	4	13.3	4	-1E+10	1	-1E+10	1	-1E+10	1	-1E+10	1	-1E+10	1	-1E+10	1
4901784	141	C	05/15/2019	10:43	-132.732	42.830	0	1770.00	0	2.1510	0	36.3810	8	29.077	0	1748.572	0	43.8	4	13.4	4	-1E+10	1	-1E+10	1	-1E+10	1	-1E+10	1	-1E+10	1	-1E+10	1
4901784	141	C	05/15/2019	10:43	-132.732	42.830	0	1775.00	0	2.1440	0	36.3820	8	29.078	0	1753.491	0	44.2	4	13.6	4	-1E+10	1	-1E+10	1	-1E+10	1	-1E+10	1	-1E+10	1	-1E+10	1
4901784	141	C	05/15/2019	10:43	-132.732	42.830	0	1780.00	0	2.1400	0	36.3840	8	29.080	0	1758.410	0	44.6	4	13.7	4	-1E+10	1	-1E+10	1	-1E+10	1	-1E+10	1	-1E+10	1	-1E+10	1
4901784	141	C	05/15/2019	10:43	-132.732	42.830	0	1785.00	0	2.1330	0	36.3850	8	29.081	0	1763.329	0	45.1	4	13.8	4	-1E+10	1	-1E+10	1	-1E+10	1	-1E+10	1	-1E+10	1	-1E+10	1
4901784	141	C	05/15/2019	10:43	-132.732	42.830	0	1790.10	0	2.1290	0	36.3850	8	29.082	0	1768.345	0	45.7	4	14.0	4	-1E+10	1	-1E+10	1	-1E+10	1	-1E+10	1	-1E+10	1	-1E+10	1
4901784	141	C	05/15/2019	10:43	-132.732	42.830	0	1795.20	0	2.1220	0	36.3860	8	29.083	0	1773.362	0	46.1	4	14.1	4	-1E+10	1	-1E+10	1	-1E+10	1	-1E+10	1	-1E+10	1	-1E+10	1
4901784	141	C	05/15/2019	10:43	-132.732	42.830	0	1800.30	0	2.1170	0	36.3880	8	29.085	0	1778.379	0	46.3	4	14.2	4	-1E+10	1	-1E+10	1	-1E+10	1	-1E+10	1	-1E+10	1	-1E+10	1
4901784	141	C	05/15/2019	10:43	-132.732	42.830	0	1805.30	0	2.1130	0	36.3880	8	29.086	0	1783.297	0	46.6	4	14.3	4	-1E+10	1	-1E+10	1	-1E+10	1	-1E+10	1	-1E+10	1	-1E+10	1
4901784	141	C	05/15/2019	10:43	-132.732	42.830	0	1810.40	0	2.1060	0	36.3890	8	29.087	0	1788.313	0	47.0	4	14.4	4	-1E+10	1	-1E+10	1	-1E+10	1	-1E+10	1	-1E+10	1	-1E+10	1
4901784	141	C	05/15/2019	10:43	-132.732	42.830	0	1815.50	0	2.1020	0	36.3900	8	29.088	0	1793.330	0	47.2	4	14.5	4	-1E+10	1	-1E+10	1	-1E+10	1	-1E+10	1	-1E+10	1	-1E+10	1
4901784	141	C	05/15/2019	10:43	-132.732	42.830	0	1819.90	0	2.0990	0	36.3910	8	29.089	0	1797.657	0	47.5	4	14.6	4	-1E+10	1	-1E+10	1	-1E+10	1	-1E+10	1	-1E+10	1	-1E+10	1
4901784	141	C	05/15/2019	10:43	-132.732	42.830	0	1824.30	0	2.0940	0	36.3920	8	29.090	0	1801.985	0	47.8	4	14.6	4	-1E+10	1	-1E+10	1	-1E+10	1	-1E+10	1	-1E+10	1	-1E+10	1
4901784	141	C	05/15/2019	10:43	-132.732	42.830	0	1829.50	0	2.0880	0	36.3940	8	29.093	0	1807.099	0	48.1	4	14.7	4	-1E+10	1	-1E+10	1	-1E+10	1	-1E+10	1	-1E+10	1	-1E+10	1
4901784	141	C	05/15/2019	10:43	-132.732	42.830	0	1834.80	0	2.0840	0	36.3950	8	29.094	0	1812.312	0	48.4	4	14.8	4	-1E+10	1	-1E+10	1	-1E+10	1	-1E+10	1	-1E+10	1	-1E+10	1
4901784	141	C	05/15/2019	10:43	-132.732	42.830	0	1840.10	0	2.0770	0	36.3960	8	29.095	0	1817.524	0	48.8	4	14.9	4	-1E+10	1	-1E+10	1	-1E+10	1	-1E+10	1	-1E+10	1	-1E+10	1
4901784	141	C	05/15/2019	10:43	-132.732	42.830	0	1845.40	0	2.0710	0	36.3970	8	29.097	0	1822.736	0	49.1	4	15.0	4	-1E+10	1	-1E+10	1	-1E+10	1	-1E+10	1	-1E+10	1	-1E+10	1
4901784	141	C	05/15/2019	10:43	-132.732	42.830	0	1849.90	0	2.0660	0	36.3980	8	29.098	0	1827.162	0	49.4	4	15.1	4	-1E+10	1	-1E+10	1	-1E+10	1	-1E+10	1	-1E+10	1	-1E+10	1
4901784	141	C	05/15/2019	10:43	-132.732	42.830	0	1854.50	0	2.0640	0	36.3990	8	29.099	0	1831.685	0	49.6	4	15.2	4	-1E+10	1	-1E+10	1	-1E+10	1	-1E+10	1	-1E+10	1	-1E+10	1
4901784	141	C	05/15/2019	10:43	-132.732	42.830	0	1859.90	0	2.0610	0	36.4000	8	29.100	0	1836.996	0	49.9	4	15.3	4	-1E+10	1	-1E+10	1	-1E+10	1	-1E+10	1	-1E+10	1	-1E+10	1
4901784	141	C	05/15/2019	10:43	-132.732	42.830	0	1865.40	0	2.0510	0	36.4020	8	29.102	0	1842.404	0	50.4	4	15.4	4	-1E+10	1	-1E+10	1	-1E+10	1	-1E+10	1	-1E+10	1	-1E+10	1
4901784	141	C	05/15/2019	10:43	-132.732	42.830	0	1870.00	0	2.0480	0	36.4030	8	29.103	0	1846.927	0	50.6	4	15.5	4	-1E+10	1	-1E+10	1	-1E+10	1	-1E+10	1	-1E+10	1	-1E+10	1
4901784	141	C	05/15/2019	10:43	-132.732	42.830	0	1874.70	0	2.0460	0	36.4030	8	29.104	0	1851.549	0	50.7	4	15.5	4	-1E+10	1	-1E+10	1	-1E+10	1	-1E+10	1	-1E+10	1	-1E+10	1
4901784	141	C	05/15/2019	10:43	-132.732	42.830	0	1880.20	0	2.0420	0	36.4040	8	29.105	0	1856.957	0	51.1	4	15.6	4	-1E+10	1	-1E+10	1	-1E+10	1	-1E+10	1	-1E+10	1	-1E+10	1
4901784	141	C	05/15/2019	10:43	-132.732	42.830	0	1884.80	0	2.0370	0	36.4060	8	29.107	0	1861.480	0	51.4	4	15.7	4	-1E+10	1	-1E+10	1	-1E+10	1	-1E+10	1	-1E+10	1	-1E+10	1
4901784	141	C	05/15/2019	10:43	-132.732	42.830	0	1889.70	0	2.0320	0	36.4070	8	29.108	0	1866.298	0	51.7	4	15.8	4	-1E+10	1	-1E+10	1	-1E+10	1	-1E+10	1	-1E+10	1	-1E+10	1
4901784	141	C	05/15/2019	10:43	-132.732	42.830	0	1895.00	0	2.0280	0	36.4080	8	29.109	0	1871.509	0	52.1	4	15.9	4	-1E+10	1	-1E+10	1	-1E+10	1	-1E+10	1	-1E+10	1	-1E+10	1
4901784	141	C	05/15/2019	10:43	-132.732	42.830	0	1899.90	0	2.0230	0	36.4090	8	29.111	0	1876.327	0	52.4	4	16.0	4	-1E+10	1	-1E+10	1	-1E+10	1	-1E+10	1	-1E+10	1	-1E+10	1
4901784	141	C	05/15/2019	10:43	-132.732	42.830	0	1904.80	0	2.0180	0	36.4110	8	29.113	0	1881.144	0	52.6	4	16.1	4	-1E+10	1	-1E+10	1	-1E+10	1	-1E+10	1	-1E+10	1	-1E+10	1
4901784	141	C	05/15/2019	10:43	-132.732	42.830	0	1909.70	0	2.0170	0	36.4110	8	29.113	0	1885.962	0	52.7	4	16.1	4	-1E+10	1	-1E+10	1	-1E+10	1	-1E+10	1	-1E+10	1	-1E+10	1
4901784	141	C	05/15/2019	10:43	-132.732	42.830	0	1914.70	0	2.0160	0	36.4120	8	29.114	0	1890.877	0	52.8	4	16.2	4	-1E+10	1	-1E+10	1	-1E+10	1	-1E+10	1	-1E+10	1	-1E+10	1
4901784	141	C	05/15/2019	10:43	-132.732	42.830	0	1919.70	0	2.0150	0	36.4120	8	29.114	0	1895.793	0	52.9	4	16.2	4	-1E+10	1	-1E+10	1	-1E+10	1	-1E+10	1	-1E+10	1	-1E+10	1
4901784	141	C	05/15/2019	10:43	-132.732	42.830	0	1924.70	0	2.0140	0	36.4120	8	29.114	0	1900.708	0	53.2	4	16.3	4	-1E+10	1	-1E+10	1	-1E+10	1	-1E+10	1	-1E+10	1	-1E+10	1
4901784	141	C	05/15/2019	10:43	-132.732	42.830	0	1929.70	0	2.0080	0	36.4140	8	29.116	0	1905.624	0	53.7	4	16.4	4	-1E+10	1	-1E+10	1	-1E+10	1	-1E+10	1	-1E+10	1	-1E+10	1
4901784	141	C	05/15/2019	10:43	-132.732	42.830	0	1934.90	0	2.0010	0	36.4150	8	29.117	0	1910.735	0	54.2	4	16.6	4	-1E+10	1	-1E+10	1	-1E+10	1	-1E+10	1	-1E+10	1	-1E+10	1
4901784	141	C	05/15/2019	10:43	-132.732	42.830	0	1940.10	0	1.9930	0	36.4170	8	29.120	0	1915.847	0	54.6	4	16.7	4	-1E+10	1	-1E+10	1	-1E+10	1	-1E+10	1	-1E+10	1	-1E+10	1
4901784	141	C	05/15/2019	10:43	-132.732	42.830	0	1945.30	0	1.9880	0	36.4180	8	29.121	0	1920.959	0	54.8	4	16.8	4	-1E+10	1	-1E+10	1	-1E+10	1	-1E+10	1	-1E+10	1	-1E+10	1
4901784	141	C	05/15/2019	10:43	-132.732	42.830	0	1950.50	0	1.9850	0	36.4190	8	29.122	0	1926.070	0	55.0	4	16.8	4	-1E+10	1	-1E+10	1	-1E+10	1	-1E+10	1	-1E+10	1	-1E+10	1
4901784	141	C	05/15/2019	10:43	-132.732	42.830	0	1955.80	0	1.9840	0	36.4200	8	29.123	0	1931.280	0	55.3	4	16.9	4	-1E+10	1	-1E+10	1	-1E+10	1	-1E+10	1	-1E+10	1	-1E+10	1
4901784	141	C	05/15/2019	10:43	-132.732	42.830	0	1960.10	0	1.9820	0	36.4210	8	29.124	0	1935.506	0	55.5	4	17.0	4	-1E+10	1	-1E+10	1	-1E+10	1	-1E+10	1	-1E+10	1	-1E+10	1
4901784	141	C	05/15/2019	10:43	-132.732	42.830	0	1964.50	0	1.9790	0	36.4210	8	29.124	0	1939.831	0	55.8	4	17.1	4	-1E+10	1	-1E+10	1	-1E+10	1	-1E+10	1	-1E+10	1	-1E+10	1
4901784	141	C	05/15/2019	10:43	-132.732	42.830	0	1969.80	0	1.9750	0	36.4230	8	29.126	0	1945.040	0	56.2	4	17.2	4	-1E+10	1	-1E+10	1	-1E+10	1	-1E+10	1	-1E+10	1	-1E+10	1
4901784	141	C	05/15/2019	10:43	-132.732	42.830	0	1975.00	0	1.9720	0	36.4250	8	29.128	0	1950.151	0	56.8	4	17.3	4	-1E+10	1	-1E+10	1	-1E+10	1	-1E+10	1	-1E+10	1	-1E+10	1
4901784	141	C	05/15/2019	10:43	-132.732	42.830	0	1980.30	0	1.9670	0	36.4270	8	29.130	0	1955.360	0	57.3	4	17.5	4	-1E+10	1	-1E+10	1	-1E+10	1	-1E+10	1	-1E+10	1	-1E+10	1
4901784	141	C	05/15/2019	10:43	-132.732	42.830	0	1985.60	0	1.9610	0	36.4280	8	29.131	0	1960.569	0	57.6	4	17.6	4	-1E+10	1	-1E+10	1	-1E+10	1	-1E+10	1	-1E+10	1	-1E+10	1
4901784	141	C	05/15/2019	10:43	-132.732	42.830	0	1990.00	0	1.9580	0	36.4290	8	29.132	0	1964.893	0	57.8	4	17.7	4	-1E+10	1	-1E+10	1	-1E+10	1	-1E+10	1	-1E+10	1	-1E+10	1
4901784	141	C	05/15/2019	10:43	-132.732	42.830	0	1994.40	0	1.9570	0	36.4300	8	29.133	0	1969.218	0	57.9	4	17.7	4	-1E+10	1	-1E+10	1	-1E+10	1	-1E+10	1	-1E+10	1	-1E+10	1
4901784	141	C	05/15/2019	10:43	-132.732	42.830	0	1999.60	0	1.9550	0	36.4300	8	29.134	0	1974.328	0	58.1	4	17.8	4	-1E+10	1	-1E+10	1	-1E+10	1	-1E+10	1	-1E+10	1	-1E+10	1
4901784	141	C	05/15/2019	10:43	-132.732	42.830	0	2005.00	0	1.9520	0	36.4310	8	29.135	0	1979.634	0	58.4	4	17.8	4	-1E+10	1	-1E+10	1	-1E+10	1	-1E+10	1	-1E+10	1	-1E+10	1
4901784	141	C	05/15/2019	10:43	-132.732	42.830	0	2010.60	0	1.9490	0	36.4320	8	29.136	0	1985.138	0	58.7	4	17.9	4	-1E+10	1	-1E+10	1	-1E+10	1	-1E+10	1	-1E+10	1	-1E+10	1
4901784	141	C	05/15/2019	10:43	-132.732	42.830	0	2014.60	0	1.9460	0	36.4330	8	29.137	0	1989.068	0	59.0	4	18.0	4	-1E+10	1	-1E+10	1	-1E+10	1	-1E+10	1	-1E+10	1	-1E+10	1
4901784	141	C	05/15/2019	10:43	-132.732	42.830	0	2019.90	0	1.9410	0	36.4340	8	29.138	0	1994.276	0	59.2	4	18.1	4	-1E+10	1	-1E+10	1	-1E+10	1	-1E+10	1	-1E+10	1	-1E+10	1
4901784	141	C	05/15/2019	10:43	-132.732	42.830	0																										
4901784	142	C	05/25/2019	10:45	-132.602	42.833	0	2.60	0	11.4840	0	33.9170	8	25.845	0	2.579	0	265.5	4	99.0	4	-1E+10	1	-1E+10	1	-1E+10	1	-1E+10	1	-1E+10	1	-1E+10	1
4901784	142	C	05/25/2019	10:45	-132.602	42.833	0	3.70	0	11.4820	0	33.9170	8	25.845	0	3.671	0	265.5	4	99.0	4	-1E+10	1	-1E+10	1	-1E+10	1	-1E+10	1	-1E+10	1	-1E+10	1
4901784	142	C	05/25/2019	10:45	-132.602	42.833	0	4.90	0	11.4810	0	33.9180	8	25.846	0	4.861	0	265.5	4	99.0	4	-1E+10	1	-1E+10	1	-1E+10	1	-1E+10	1	-1E+10	1	-1E+10	1
4901784	142	C	05/25/2019	10:45	-132.602	42.833	0	6.30	0	11.4820	0	33.9190	8	25.847	0	6.250	0	265.6	4	99.0	4	-1E+10	1	-1E+10	1	-1E+10	1	-1E+10	1	-1E+10	1	-1E+10	1
4901784	142	C	05/25/2019	10:45	-132.602	42.833	0	7.60	0	11.4820	0	33.9180	8	25.846	0	7.540	0	265.5	4	99.0	4	-1E+10	1	-1E+10	1	-1E+10	1	-1E+10	1	-1E+10	1	-1E+10	1
4901784	142	C	05/25/2019	10:45	-132.602	42.833	0	9.10	0	11.4860	0	33.9190	8	25.846	0	9.028	0	265.4	4	99.0	4	-1E+10	1	-1E+10	1	-1E+10	1	-1E+10	1	-1E+10	1	-1E+10	1
4901784	142	C	05/25/2019	10:45	-132.602	42.833	0	10.70	0	11.4850	0	33.9200	8	25.847	0	10.615	0	265.4	4	99.0	4	-1E+10	1	-1E+10	1	-1E+10	1	-1E+10	1	-1E+10	1	-1E+10	1
4901784	142	C	05/25/2019	10:45	-132.602	42.833	0	12.20	0	11.4850	0	33.9210	8	25.848	0	12.103	0	265.3	4	98.9	4	-1E+10	1	-1E+10	1	-1E+10	1	-1E+10	1	-1E+10	1	-1E+10	1
4901784	142	C	05/25/2019	10:45	-132.602	42.833	0	13.80	0	11.4860	0	33.9200	8	25.847	0	13.690	0	265.3	4	98.9	4	-1E+10	1	-1E+10	1	-1E+10	1	-1E+10	1	-1E+10	1	-1E+10	1
4901784	142	C	05/25/2019	10:45	-132.602	42.833	0	15.30	0	11.4850	0	33.9220	8	25.849	0	15.178	0	265.3	4	98.9	4	-1E+10	1	-1E+10	1	-1E+10	1	-1E+10	1	-1E+10	1	-1E+10	1
4901784	142	C	05/25/2019	10:45	-132.602	42.833	0	16.90	0	11.4840	0	33.9220	8	25.849	0	16.765	0	265.5	4	99.0	4	-1E+10	1	-1E+10	1	-1E+10	1	-1E+10	1	-1E+10	1	-1E+10	1
4901784	142	C	05/25/2019	10:45	-132.602	42.833	0	18.70	0	11.4850	0	33.9230	8	25.850	0	18.551	0	265.3	4	98.9	4	-1E+10	1	-1E+10	1	-1E+10	1	-1E+10	1	-1E+10	1	-1E+10	1
4901784	142	C	05/25/2019	10:45	-132.602	42.833	0	20.60	0	11.4910	0	33.9220	8	25.848	0	20.436	0	265.2	4	98.9	4	-1E+10	1	-1E+10	1	-1E+10	1	-1E+10	1	-1E+10	1	-1E+10	1
4901784	142	C	05/25/2019	10:45	-132.602	42.833	0	22.50	0	11.4900	0	33.9240	8	25.850	0	22.321	0	265.3	4	99.0	4	-1E+10	1	-1E+10	1	-1E+10	1	-1E+10	1	-1E+10	1	-1E+10	1
4901784	142	C	05/25/2019	10:45	-132.602	42.833	0	24.50	0	11.4910	0	33.9240	8	25.849	0	24.305	0	265.3	4	98.9	4	-1E+10	1	-1E+10	1	-1E+10	1	-1E+10	1	-1E+10	1	-1E+10	1
4901784	142	C	05/25/2019	10:45	-132.602	42.833	0	26.40	0	11.4910	0	33.9250	8	25.850	0	26.189	0	265.1	4	98.9	4	-1E+10	1	-1E+10	1	-1E+10	1	-1E+10	1	-1E+10	1	-1E+10	1
4901784	142	C	05/25/2019	10:45	-132.602	42.833	0	28.30	0	11.4910	0	33.9260	8	25.851	0	28.074	0	265.0	4	98.8	4	-1E+10	1	-1E+10	1	-1E+10	1	-1E+10	1	-1E+10	1	-1E+10	1
4901784	142	C	05/25/2019	10:45	-132.602	42.833	0	30.40	0	11.4900	0	33.9270	8	25.852	0	30.157	0	264.9	4	98.8	4	-1E+10	1	-1E+10	1	-1E+10	1	-1E+10	1	-1E+10	1	-1E+10	1
4901784	142	C	05/25/2019	10:45	-132.602	42.833	0	32.40	0	11.4910	0	33.9270	8	25.852	0	32.141	0	264.7	4	98.7	4	-1E+10	1	-1E+10	1	-1E+10	1	-1E+10	1	-1E+10	1	-1E+10	1
4901784	142	C	05/25/2019	10:45	-132.602	42.833	0	34.50	0	11.4900	0	33.9270	8	25.852	0	34.224	0	264.7	4	98.7	4	-1E+10	1	-1E+10	1	-1E+10	1	-1E+10	1	-1E+10	1	-1E+10	1
4901784	142	C	05/25/2019	10:45	-132.602	42.833	0	36.50	0	11.4870	0	33.9290	8	25.854	0	36.208	0	264.5	4	98.7	4	-1E+10	1	-1E+10	1	-1E+10	1	-1E+10	1	-1E+10	1	-1E+10	1
4901784	142	C	05/25/2019	10:45	-132.602	42.833	0	38.40	0	11.4850	0	33.9300	8	25.856	0	38.092	0	264.4	4	98.6	4	-1E+10	1	-1E+10	1	-1E+10	1	-1E+10	1	-1E+10	1	-1E+10	1
4901784	142	C	05/25/2019	10:45	-132.602	42.833	0	41.00	0	11.4860	0	33.9310	8	25.856	0	40.671	0	264.2	4	98.5	4	-1E+10	1	-1E+10	1	-1E+10	1	-1E+10	1	-1E+10	1	-1E+10	1
4901784	142	C	05/25/2019	10:45	-132.602	42.833	0	42.90	0	11.4810	0	33.9320	8	25.858	0	42.556	0	263.9	4	98.4	4	-1E+10	1	-1E+10	1	-1E+10	1	-1E+10	1	-1E+10	1	-1E+10	1
4901784	142	C	05/25/2019	10:45	-132.602	42.833	0	44.60	0	11.4780	0	33.9330	8	25.859	0	44.242	0	263.7	4	98.3	4	-1E+10	1	-1E+10	1	-1E+10	1	-1E+10	1	-1E+10	1	-1E+10	1
4901784	142	C	05/25/2019	10:45	-132.602	42.833	0	46.10	0	11.4740	0	33.9350	8	25.862	0	45.730	0	263.6	4	98.3	4	-1E+10	1	-1E+10	1	-1E+10	1	-1E+10	1	-1E+10	1	-1E+10	1
4901784	142	C	05/25/2019	10:45	-132.602	42.833	0	47.70	0	11.4710	0	33.9350	8	25.862	0	47.317	0	263.3	4	98.2	4	-1E+10	1	-1E+10	1	-1E+10	1	-1E+10	1	-1E+10	1	-1E+10	1
4901784	142	C	05/25/2019	10:45	-132.602	42.833	0	49.30	0	11.4580	0	33.9380	8	25.867	0	48.904	0	262.7	4	97.9	4	-1E+10	1	-1E+10	1	-1E+10	1	-1E+10	1	-1E+10	1	-1E+10	1
4901784	142	C	05/25/2019	10:45	-132.602	42.833	0	50.90	0	11.4520	0	33.9390	8	25.869	0	50.491	0	262.7	4	97.9	4	-1E+10	1	-1E+10	1	-1E+10	1	-1E+10	1	-1E+10	1	-1E+10	1
4901784	142	C	05/25/2019	10:45	-132.602	42.833	0	52.50	0	11.4480	0	33.9390	8	25.870	0	52.078	0	262.5	4	97.8	4	-1E+10	1	-1E+10	1	-1E+10	1	-1E+10	1	-1E+10	1	-1E+10	1
4901784	142	C	05/25/2019	10:45	-132.602	42.833	0	54.20	0	11.4460	0	33.9390	8	25.870	0	53.764	0	261.9	4	97.6	4	-1E+10	1	-1E+10	1	-1E+10	1	-1E+10	1	-1E+10	1	-1E+10	1
4901784	142	C	05/25/2019	10:45	-132.602	42.833	0	55.80	0	11.4430	0	33.9380	8	25.870	0	55.351	0	261.5	4	97.4	4	-1E+10	1	-1E+10	1	-1E+10	1	-1E+10	1	-1E+10	1	-1E+10	1
4901784	142	C	05/25/2019	10:45	-132.602	42.833	0	57.30	0	11.4380	0	33.9360	8	25.869	0	56.838	0	261.0	4	97.3	4	-1E+10	1	-1E+10	1	-1E+10	1	-1E+10	1	-1E+10	1	-1E+10	1
4901784	142	C	05/25/2019	10:45	-132.602	42.833	0	58.90	0	11.4230	0	33.9340	8	25.871	0	58.425	0	260.3	4	97.0	4	-1E+10	1	-1E+10	1	-1E+10	1	-1E+10	1	-1E+10	1	-1E+10	1
4901784	142	C	05/25/2019	10:45	-132.602	42.833	0	60.50	0	11.3820	0	33.9290	8	25.874	0	60.012	0	259.7	4	96.7	4	-1E+10	1	-1E+10	1	-1E+10	1	-1E+10	1	-1E+10	1	-1E+10	1
4901784	142	C	05/25/2019	10:45	-132.602	42.833	0	62.10	0	11.2270	0	33.9360	8	25.908	0	61.599	0	259.9	4	96.4	4	-1E+10	1	-1E+10	1	-1E+10	1	-1E+10	1	-1E+10	1	-1E+10	1
4901784	142	C	05/25/2019	10:45	-132.602	42.833	0	63.60	0	11.1050	0	33.9370	8	25.931	0	63.087	0	259.9	4	96.2	4	-1E+10	1	-1E+10	1	-1E+10	1	-1E+10	1	-1E+10	1	-1E+10	1
4901784	142	C	05/25/2019	10:45	-132.602	42.833	0	65.20	0	10.8240	0	33.9520	8	25.993	0	64.673	0	260.8	4	95.9	4	-1E+10	1	-1E+10	1	-1E+10	1	-1E+10	1	-1E+10	1	-1E+10	1
4901784	142	C	05/25/2019	10:45	-132.602	42.833	0	67.00	0	10.7050	0	33.9500	8	26.012	0	66.459	0	261.3	4	95.9	4	-1E+10	1	-1E+10	1	-1E+10	1	-1E+10	1	-1E+10	1	-1E+10	1
4901784	142	C	05/25/2019	10:45	-132.602	42.833	0	68.70	0	10.5440	0	33.9540	8	26.044	0	68.145	0	261.8	4	95.7	4	-1E+10	1	-1E+10	1	-1E+10	1	-1E+10	1	-1E+10	1	-1E+10	1
4901784	142	C	05/25/2019	10:45	-132.602	42.833	0	70.30	0	10.4120	0	33.9520	8	26.065	0	69.731	0	262.1	4	95.6	4	-1E+10	1	-1E+10	1	-1E+10	1	-1E+10	1	-1E+10	1	-1E+10	1
4901784	142	C	05/25/2019	10:45	-132.602	42.833	0	72.00	0	10.3490	0	33.9510	8	26.075	0	71.417	0	262.1	4	95.4	4	-1E+10	1	-1E+10	1	-1E+10	1	-1E+10	1	-1E+10	1	-1E+10	1
4901784	142	C	05/25/2019	10:45	-132.602	42.833	0	73.60	0	10.2920	0	33.9570	8	26.090	0	73.004	0	261.7	4	95.2	4	-1E+10	1	-1E+10	1	-1E+10	1	-1E+10	1	-1E+10	1	-1E+10	1
4901784	142	C	05/25/2019	10:45	-132.602	42.833	0	75.30	0	10.2650	0	33.9550	8	26.093	0	74.690	0	261.4	4	95.0	4	-1E+10	1	-1E+10	1	-1E+10	1	-1E+10	1	-1E+10	1	-1E+10	1
4901784	142	C	05/25/2019	10:45	-132.602	42.833	0	76.90	0	10.2500	0	33.9530	8	26.094	0	76.277	0	261.1	4	94.9	4	-1E+10	1	-1E+10	1	-1E+10	1	-1E+10	1	-1E+10	1	-1E+10	1
4901784	142	C	05/25/2019	10:45	-132.602	42.833	0	78.60	0	10.2370	0	33.9530	8	26.096	0	77.963	0	260.6	4	94.7	4	-1E+10	1	-1E+10	1	-1E+10	1	-1E+10	1	-1E+10	1	-1E+10	1
4901784	142	C	05/25/2019	10:45	-132.602	42.833	0	80.30	0	10.2080	0	33.9530	8	26.101	0	79.649	0	259.7	4	94.3	4	-1E+10	1	-1E+10	1	-1E+10	1	-1E+10	1	-1E+10	1	-1E+10	1
4901784	142	C	05/25/2019	10:45	-132.602	42.833	0	82.00	0	10.1620	0	33.9560	8	26.111	0	81.334	0	259.3	4	94.1	4	-1E+10	1	-1E+10	1	-1E+10	1	-1E+10	1	-1E+10	1	-1E+10	1
4901784	142	C	05/25/2019	10:45	-132.602	42.833	0	83.70	0	10.1510	0	33.9580	8	26.115	0	83.020	0	258.5	4	93.7	4	-1E+10	1	-1E+10	1	-1E+10	1	-1E+10	1	-1E+10	1	-1E+10	1
4901784	142	C	05/25/2019	10:45	-132.602	42.833	0	85.30	0	10.1440	0	33.9600	8	26.117	0	84.607	0	258.0	4	93.5	4	-1E+10	1	-1E+10	1	-1E+10	1	-1E+10	1	-1E+10	1	-1E+10	1
4901784	142	C	05/25/2019	10:45	-132.602	42.833	0	87.00	0	10.1210	0	33.9600	8	26.121	0	86.293	0	257.3	4	93.2	4	-1E+10	1	-1E+10	1	-1E+10	1	-1E+10	1	-1E+10	1	-1E+10	1
4901784	142	C	05/25/2019	10:45	-132.602	42.833	0	88.70	0	10.0940	0	33.9630	8	26.128	0	87.979	0	256.4	4	92.8	4	-1E+10	1	-1E+10	1	-1E+10	1	-1E+10	1	-1E+10	1	-1E+10	1
4901784	142	C	05/25/2019	10:45	-132.602	42.833	0	90.40	0	10.0860	0	33.9650	8	26.131	0	89.664	0	255.7	4	92.6	4	-1E+10	1	-1E+10	1	-1E+10	1	-1E+10	1	-1E+10	1	-1E+10	1
4901784	142	C	05/25/2019	10:45	-132.602	42.833	0	92.10	0	10.0430	0	33.9650	8	26.139	0	91.350	0	255.0	4	92.3	4	-1E+10	1	-1E+10	1	-1E+10	1	-1E+10	1	-1E+10	1	-1E+10	1
4901784	142	C	05/25/2019	10:45	-132.602	42.833	0	93.80	0	9.9990	0	33.9750	8	26.154	0	93.036	0	254.6	4	92.0	4	-1E+10	1	-1E+10	1	-1E+10	1	-1E+10	1	-1E+10	1	-1E+10	1
4901784	142	C	05/25/2019	10:45	-132.602	42.833	0	95.40	0	9.9980	0	33.9760	8	26.155	0	94.623	0	253.7	4	91.7	4	-1E+10	1	-1E+10	1	-1E+10	1	-1E+10	1	-1E+10	1	-1E+10	1
4901784	142	C	05/25/2019	10:45	-132.602	42.833	0	97.10	0	9.9780	0	33.9740	8	26.157	0	96.308	0	252.6	4	91.3	4	-1E+10	1	-1E+10	1	-1E+10	1	-1E+10	1	-1E+10	1	-1E+10	1
4901784	142	C	05/25/2019	10:45	-132.602	42.833	0	98.70	0	9.9030	0	33.9780	8	26.173	0	97.895	0	251.9	4	90.9	4	-1E+10	1	-1E+10	1	-1E+10	1	-1E+10	1	-1E+10	1	-1E+10	1
4901784	142	C	05/25/2019	10:45	-132.602	42.833	0	100.40	0	9.8750	0	33.9800	8	26.179	0	99.581	0	250.6	4	90.3	4	-1E+10	1	-1E+10	1	-1E+10	1	-1E+10	1	-1E+10	1	-1E+10	1
4901784	142	C	05/25/2019	10:45	-132.602	42.833	0	102.90	0	9.7330	0	33.9980	8	26.217	0	102.060	0	249.1	4	89.6	4	-1E+10	1	-1E+10	1	-1E+10	1	-1E+10	1	-1E+10	1	-1E+10	1
4901784	142	C	05/25/2019	10:45	-132.602	42.833	0	105.30	0	9.5640	0	34.0100	8	26.254	0	104.439	0	248.1	4	88.9	4	-1E+10	1	-1E+10	1	-1E+10	1	-1E+10	1	-1E+10	1	-1E+10	1
4901784	142	C	05/25/2019	10:45	-132.602	42.833	0	107.90	0	9.4100	0	34.0280	8	26.293	0	107.018	0	247.0	4	88.2	4	-1E+10	1	-1E+10	1	-1E+10	1	-1E+10	1	-1E+10	1	-1E+10	1
4901784	142	C	05/25/2019	10:45	-132.602	42.833	0	110.40	0	9.2820	0	34.0440	8	26.327	0	109.496	0	245.6	4	87.5	4	-1E+10	1	-1E+10	1	-1E+10	1	-1E+10	1	-1E+10	1	-1E+10	1
4901784	142	C	05/25/2019	10:45	-132.602	42.833	0	112.20	0	9.1700	0	34.0670	8	26.363	0	111.281	0	244.9	4	87.0	4	-1E+10	1	-1E+10	1	-1E+10	1	-1E+10	1	-1E+10	1	-1E+10	1
4901784	142	C	05/25/2019	10:45	-132.602	42.833	0	114.70	0	9.0400	0	34.0880	8	26.400	0	113.760	0	244.1	4	86.5	4	-1E+10	1	-1E+10	1	-1E+10	1	-1E+10	1	-1E+10	1	-1E+10	1
4901784	142	C	05/25/2019	10:45	-132.602	42.833	0	117.10	0	8.9830	0	34.0930	8	26.413	0	116.140	0	242.6	4	85.9	4	-1E+10	1	-1E+10	1	-1E+10	1	-1E+10	1	-1E+10	1	-1E+10	1
4901784	142	C	05/25/2019	10:45	-132.602	42.833	0	119.90	0	8.7740	0	34.1270	8	26.472	0	118.916	0	241.1	4	85.0	4	-1E+10	1	-1E+10	1	-1E+10	1	-1E+10	1	-1E+10	1	-1E+10	1
4901784	142	C	05/25/2019	10:45	-132.602	42.833	0	122.20	0	8.6070	0	34.1730	8	26.535	0	121.196	0	240.1	4	84.3	4	-1E+10	1	-1E+10	1	-1E+10	1	-1E+10	1	-1E+10	1	-1E+10	1
4901784	142	C	05/25/2019	10:45	-132.602	42.833	0	125.20	0	8.4940	0	34.2000	8	26.573	0	124.171	0	238.7	4	83.6	4	-1E+10	1	-1E+10	1	-1E+10	1	-1E+10	1	-1E+10	1	-1E+10	1
4901784	142	C	05/25/2019	10:45	-132.602	42.833	0	127.50	0	8.4440	0	34.2100	8	26.589	0	126.451	0	237.1	4	83.0	4	-1E+10	1	-1E+10	1	-1E+10	1	-1E+10	1	-1E+10	1	-1E+10	1
4901784	142	C	05/25/2019	10:45	-132.602	42.833	0	129.80	0	8.2890	0	34.2750	8	26.663	0	128.732	0	235.7	4	82.2	4	-1E+10	1	-1E+10	1	-1E+10	1	-1E+10	1	-1E+10	1	-1E+10	1
4901784	142	C	05/25/2019	10:45	-132.602	42.833	0	132.90	0	8.1820	0	34.3280	8	26.721	0	131.805	0	234.4	4	81.6	4	-1E+10	1	-1E+10	1	-1E+10	1	-1E+10	1	-1E+10	1	-1E+10	1
4901784	142	C	05/25/2019	10:45	-132.602	42.833	0	135.30	0	8.1680	0	34.3300	8	26.725	0	134.185	0	233.0	4	81.1	4	-1E+10	1	-1E+10	1	-1E+10	1	-1E+10	1	-1E+10	1	-1E+10	1
4901784	142	C	05/25/2019	10:45	-132.602	42.833	0	137.70	0	8.0600	0	34.3960	8	26.793	0	136.564	0	231.3	4	80.4	4	-1E+10	1	-1E+10	1	-1E+10	1	-1E+10	1	-1E+10	1	-1E+10	1
4901784	142	C	05/25/2019	10:45	-132.602	42.833	0	140.60	0	7.9490	0	34.4650	8	26.864	0	139.439	0	230.1	4	79.8	4	-1E+10	1	-1E+10	1	-1E+10	1	-1E+10	1	-1E+10	1	-1E+10	1
4901784	142	C	05/25/2019	10:45	-132.602	42.833	0	142.90	0	7.8870	0	34.4990	8	26.900	0	141.719	0	228.8	4	79.3	4	-1E+10	1	-1E+10	1	-1E+10	1	-1E+10	1	-1E+10	1	-1E+10	1
4901784	142	C	05/25/2019	10:45	-132.602	42.833	0	145.00	0	7.8600	0	34.5240	8	26.923	0	143.801	0	227.3	4	78.7	4	-1E+10	1	-1E+10	1	-1E+10	1	-1E+10	1	-1E+10	1	-1E+10	1
4901784	142	C	05/25/2019	10:45	-132.602	42.833	0	147.10	0	7.8180	0	34.5820	8	26.975	0	145.883	0	225.5	4	78.0	4	-1E+10	1	-1E+10	1	-1E+10	1	-1E+10	1	-1E+10	1	-1E+10	1
4901784	142	C	05/25/2019	10:45	-132.602	42.833	0	149.90	0	7.8230	0	34.6280	8	27.010	0	148.659	0	222.6	4	77.1	4	-1E+10	1	-1E+10	1	-1E+10	1	-1E+10	1	-1E+10	1	-1E+10	1
4901784	142	C	05/25/2019	10:45	-132.602	42.833	0	152.80	0	7.8380	0	34.7070	8	27.070	0	151.534	0	218.5	4	75.7	4	-1E+10	1	-1E+10	1	-1E+10	1	-1E+10	1	-1E+10	1	-1E+10	1
4901784	142	C	05/25/2019	10:45	-132.602	42.833	0	155.10	0	7.8530	0	34.7680	8	27.116	0	153.814	0	214.8	4	74.5	4	-1E+10	1	-1E+10	1	-1E+10	1	-1E+10	1	-1E+10	1	-1E+10	1
4901784	142	C	05/25/2019	10:45	-132.602	42.833	0	157.40	0	7.7850	0	34.8890	8	27.221	0	156.094	0	211.3	4	73.2	4	-1E+10	1	-1E+10	1	-1E+10	1	-1E+10	1	-1E+10	1	-1E+10	1
4901784	142	C	05/25/2019	10:45	-132.602	42.833	0	159.70	0	7.7740	0	34.9390	8	27.262	0	158.374	0	208.4	4	72.2	4	-1E+10	1	-1E+10	1	-1E+10	1	-1E+10	1	-1E+10	1	-1E+10	1
4901784	142	C	05/25/2019	10:45	-132.602	42.833	0	162.10	0	7.8070	0	35.0000	8	27.305	0	160.753	0	204.3	4	70.9	4	-1E+10	1	-1E+10	1	-1E+10	1	-1E+10	1	-1E+10	1	-1E+10	1
4901784	142	C	05/25/2019	10:45	-132.602	42.833	0	164.80	0	7.9060	0	35.1110	8	27.378	0	163.430	0	200.3	4	69.7	4	-1E+10	1	-1E+10	1	-1E+10	1	-1E+10	1	-1E+10	1	-1E+10	1
4901784	142	C	05/25/2019	10:45	-132.602	42.833	0	167.50	0	7.9340	0	35.1530	8	27.407	0	166.106	0	197.3	4	68.7	4	-1E+10	1	-1E+10	1	-1E+10	1	-1E+10	1	-1E+10	1	-1E+10	1
4901784	142	C	05/25/2019	10:45	-132.602	42.833	0	170.20	0	8.0150	0	35.2200	8	27.447	0	168.783	0	194.3	4	67.9	4	-1E+10	1	-1E+10	1	-1E+10	1	-1E+10	1	-1E+10	1	-1E+10	1
4901784	142	C	05/25/2019	10:45	-132.602	42.833	0	171.90	0	8.0270	0	35.2450	8	27.465	0	170.468	0	192.9	4	67.4	4	-1E+10	1	-1E+10	1	-1E+10	1	-1E+10	1	-1E+10	1	-1E+10	1
4901784	142	C	05/25/2019	10:45	-132.602	42.833	0	174.70	0	8.0350	0	35.2840	8	27.495	0	173.243	0	190.9	4	66.7	4	-1E+10	1	-1E+10	1	-1E+10	1	-1E+10	1	-1E+10	1	-1E+10	1
4901784	142	C	05/25/2019	10:45	-132.602	42.833	0	177.50	0	8.0830	0	35.3340	8	27.527	0	176.019	0	188.4	4	65.9	4	-1E+10	1	-1E+10	1	-1E+10	1	-1E+10	1	-1E+10	1	-1E+10	1
4901784	142	C	05/25/2019	10:45	-132.602	42.833	0	179.90	0	8.1260	0	35.3720	8	27.550	0	178.398	0	187.4	4	65.7	4	-1E+10	1	-1E+10	1	-1E+10	1	-1E+10	1	-1E+10	1	-1E+10	1
4901784	142	C	05/25/2019	10:45	-132.602	42.833	0	182.40	0	8.1280	0	35.3800	8	27.556	0	180.876	0	187.1	4	65.6	4	-1E+10	1	-1E+10	1	-1E+10	1	-1E+10	1	-1E+10	1	-1E+10	1
4901784	142	C	05/25/2019	10:45	-132.602	42.833	0	185.50	0	8.1270	0	35.3850	8	27.560	0	183.948	0	186.5	4	65.4	4	-1E+10	1	-1E+10	1	-1E+10	1	-1E+10	1	-1E+10	1	-1E+10	1
4901784	142	C	05/25/2019	10:45	-132.602	42.833	0	187.90	0	8.1330	0	35.3920	8	27.565	0	186.327	0	185.9	4	65.2	4	-1E+10	1	-1E+10	1	-1E+10	1	-1E+10	1	-1E+10	1	-1E+10	1
4901784	142	C	05/25/2019	10:45	-132.602	42.833	0	190.40	0	8.1340	0	35.3970	8	27.569	0	188.805	0	185.0	4	64.9	4	-1E+10	1	-1E+10	1	-1E+10	1	-1E+10	1	-1E+10	1	-1E+10	1
4901784	142	C	05/25/2019	10:45	-132.602	42.833	0	192.90	0	8.1360	0	35.4050	8	27.575	0	191.283	0	183.9	4	64.5	4	-1E+10	1	-1E+10	1	-1E+10	1	-1E+10	1	-1E+10	1	-1E+10	1
4901784	142	C	05/25/2019	10:45	-132.602	42.833	0	195.40	0	8.1420	0	35.4150	8	27.582	0	193.761	0	182.2	4	63.9	4	-1E+10	1	-1E+10	1	-1E+10	1	-1E+10	1	-1E+10	1	-1E+10	1
4901784	142	C	05/25/2019	10:45	-132.602	42.833	0	197.80	0	8.1620	0	35.4580	8	27.612	0	196.140	0	180.3	4	63.3	4	-1E+10	1	-1E+10	1	-1E+10	1	-1E+10	1	-1E+10	1	-1E+10	1
4901784	142	C	05/25/2019	10:45	-132.602	42.833	0	200.10	0	8.1610	0	35.4730	8	27.624	0	198.419	0	178.7	4	62.7	4	-1E+10	1	-1E+10	1	-1E+10	1	-1E+10	1	-1E+10	1	-1E+10	1
4901784	142	C	05/25/2019	10:45	-132.602	42.833	0	202.50	0	8.1570	0	35.4880	8	27.637	0	200.798	0	177.5	4	62.3	4	-1E+10	1	-1E+10	1	-1E+10	1	-1E+10	1	-1E+10	1	-1E+10	1
4901784	142	C	05/25/2019	10:45	-132.602	42.833	0	204.90	0	8.1490	0	35.4970	8	27.645	0	203.177	0	176.4	4	61.9	4	-1E+10	1	-1E+10	1	-1E+10	1	-1E+10	1	-1E+10	1	-1E+10	1
4901784	142	C	05/25/2019	10:45	-132.602	42.833	0	207.30	0	8.1430	0	35.5020	8	27.650	0	205.555	0	175.5	4	61.6	4	-1E+10	1	-1E+10	1	-1E+10	1	-1E+10	1	-1E+10	1	-1E+10	1
4901784	142	C	05/25/2019	10:45	-132.602	42.833	0	209.80	0	8.1340	0	35.5100	8	27.658	0	208.033	0	174.4	4	61.2	4	-1E+10	1	-1E+10	1	-1E+10	1	-1E+10	1	-1E+10	1	-1E+10	1
4901784	142	C	05/25/2019	10:45	-132.602	42.833	0	212.20	0	8.1220	0	35.5170	8	27.665	0	210.411	0	173.5	4	60.9	4	-1E+10	1	-1E+10	1	-1E+10	1	-1E+10	1	-1E+10	1	-1E+10	1
4901784	142	C	05/25/2019	10:45	-132.602	42.833	0	214.80	0	8.1100	0	35.5210	8	27.670	0	212.988	0	172.3	4	60.4	4	-1E+10	1	-1E+10	1	-1E+10	1	-1E+10	1	-1E+10	1	-1E+10	1
4901784	142	C	05/25/2019	10:45	-132.602	42.833	0	217.30	0	8.0810	0	35.5290	8	27.681	0	215.466	0	171.3	4	60.0	4	-1E+10	1	-1E+10	1	-1E+10	1	-1E+10	1	-1E+10	1	-1E+10	1
4901784	142	C	05/25/2019	10:45	-132.602	42.833	0	219.80	0	8.0680	0	35.5290	8	27.683	0	217.943	0	170.1	4	59.6	4	-1E+10	1	-1E+10	1	-1E+10	1	-1E+10	1	-1E+10	1	-1E+10	1
4901784	142	C	05/25/2019	10:45	-132.602	42.833	0	222.30	0	8.0170	0	35.5360	8	27.696	0	220.421	0	168.9	4	59.1	4	-1E+10	1	-1E+10	1	-1E+10	1	-1E+10	1	-1E+10	1	-1E+10	1
4901784	142	C	05/25/2019	10:45	-132.602	42.833	0	224.80	0	7.9750	0	35.5390	8	27.705	0	222.898	0	168.3	4	58.9	4	-1E+10	1	-1E+10	1	-1E+10	1	-1E+10	1	-1E+10	1	-1E+10	1
4901784	142	C	05/25/2019	10:45	-132.602	42.833	0	227.30	0	7.9500	0	35.5400	8	27.710	0	225.376	0	167.3	4	58.5	4	-1E+10	1	-1E+10	1	-1E+10	1	-1E+10	1	-1E+10	1	-1E+10	1
4901784	142	C	05/25/2019	10:45	-132.602	42.833	0	229.80	0	7.9240	0	35.5400	8	27.713	0	227.853	0	166.4	4	58.1	4	-1E+10	1	-1E+10	1	-1E+10	1	-1E+10	1	-1E+10	1	-1E+10	1
4901784	142	C	05/25/2019	10:45	-132.602	42.833	0	232.40	0	7.8650	0	35.5430	8	27.725	0	230.430	0	165.3	4	57.7	4	-1E+10	1	-1E+10	1	-1E+10	1	-1E+10	1	-1E+10	1	-1E+10	1
4901784	142	C	05/25/2019	10:45	-132.602	42.833	0	234.80	0	7.8180	0	35.5420	8	27.731	0	232.808	0	164.7	4	57.4	4	-1E+10	1	-1E+10	1	-1E+10	1	-1E+10	1	-1E+10	1	-1E+10	1
4901784	142	C	05/25/2019	10:45	-132.602	42.833	0	237.30	0	7.7740	0	35.5430	8	27.738	0	235.286	0	163.9	4	57.1	4	-1E+10	1	-1E+10	1	-1E+10	1	-1E+10	1	-1E+10	1	-1E+10	1
4901784	142	C	05/25/2019	10:45	-132.602	42.833	0	239.80	0	7.7450	0	35.5440	8	27.743	0	237.763	0	163.0	4	56.7	4	-1E+10	1	-1E+10	1	-1E+10	1	-1E+10	1	-1E+10	1	-1E+10	1
4901784	142	C	05/25/2019	10:45	-132.602	42.833	0	242.30	0	7.7080	0	35.5430	8	27.748	0	240.240	0	162.0	4	56.3	4	-1E+10	1	-1E+10	1	-1E+10	1	-1E+10	1	-1E+10	1	-1E+10	1
4901784	142	C	05/25/2019	10:45	-132.602	42.833	0	244.90	0	7.6810	0	35.5410	8	27.751	0	242.817	0	160.8	4	55.9	4	-1E+10	1	-1E+10	1	-1E+10	1	-1E+10	1	-1E+10	1	-1E+10	1
4901784	142	C	05/25/2019	10:45	-132.602	42.833	0	247.40	0	7.6160	0	35.5410	8	27.760	0	245.294	0	159.6	4	55.4	4	-1E+10	1	-1E+10	1	-1E+10	1	-1E+10	1	-1E+10	1	-1E+10	1
4901784	142	C	05/25/2019	10:45	-132.602	42.833	0	249.90	0	7.5580	0	35.5430	8	27.770	0	247.771	0	158.4	4	54.9	4	-1E+10	1	-1E+10	1	-1E+10	1	-1E+10	1	-1E+10	1	-1E+10	1
4901784	142	C	05/25/2019	10:45	-132.602	42.833	0	252.50	0	7.5070	0	35.5430	8	27.778	0	250.347	0	157.1	4	54.4	4	-1E+10	1	-1E+10	1	-1E+10	1	-1E+10	1	-1E+10	1	-1E+10	1
4901784	142	C	05/25/2019	10:45	-132.602	42.833	0	254.90	0	7.4500	0	35.5410	8	27.785	0	252.725	0	155.7	4	53.8	4	-1E+10	1	-1E+10	1	-1E+10	1	-1E+10	1	-1E+10	1	-1E+10	1
4901784	142	C	05/25/2019	10:45	-132.602	42.833	0	257.40	0	7.4140	0	35.5390	8	27.788	0	255.203	0	154.2	4	53.3	4	-1E+10	1	-1E+10	1	-1E+10	1	-1E+10	1	-1E+10	1	-1E+10	1
4901784	142	C	05/25/2019	10:45	-132.602	42.833	0	259.90	0	7.3490	0	35.5410	8	27.799	0	257.680	0	152.6	4	52.6	4	-1E+10	1	-1E+10	1	-1E+10	1	-1E+10	1	-1E+10	1	-1E+10	1
4901784	142	C	05/25/2019	10:45	-132.602	42.833	0	262.40	0	7.2900	0	35.5400	8	27.807	0	260.157	0	151.3	4	52.1	4	-1E+10	1	-1E+10	1	-1E+10	1	-1E+10	1	-1E+10	1	-1E+10	1
4901784	142	C	05/25/2019	10:45	-132.602	42.833	0	265.00	0	7.2710	0	35.5390	8	27.809	0	262.733	0	149.3	4	51.4	4	-1E+10	1	-1E+10	1	-1E+10	1	-1E+10	1	-1E+10	1	-1E+10	1
4901784	142	C	05/25/2019	10:45	-132.602	42.833	0	267.50	0	7.2380	0	35.5370	8	27.812	0	265.210	0	146.3	4	50.3	4	-1E+10	1	-1E+10	1	-1E+10	1	-1E+10	1	-1E+10	1	-1E+10	1
4901784	142	C	05/25/2019	10:45	-132.602	42.833	0	270.10	0	7.1280	0	35.5390	8	27.829	0	267.786	0	143.4	4	49.2	4	-1E+10	1	-1E+10	1	-1E+10	1	-1E+10	1	-1E+10	1	-1E+10	1
4901784	142	C	05/25/2019	10:45	-132.602	42.833	0	272.70	0	7.0750	0	35.5400	8	27.838	0	270.362	0	140.9	4	48.3	4	-1E+10	1	-1E+10	1	-1E+10	1	-1E+10	1	-1E+10	1	-1E+10	1
4901784	142	C	05/25/2019	10:45	-132.602	42.833	0	275.30	0	7.0300	0	35.5400	8	27.844	0	272.938	0	137.9	4	47.2	4	-1E+10	1	-1E+10	1	-1E+10	1	-1E+10	1	-1E+10	1	-1E+10	1
4901784	142	C	05/25/2019	10:45	-132.602	42.833	0	277.90	0	6.9660	0	35.5420	8	27.855	0	275.514	0	135.2	4	46.2	4	-1E+10	1	-1E+10	1	-1E+10	1	-1E+10	1	-1E+10	1	-1E+10	1
4901784	142	C	05/25/2019	10:45	-132.602	42.833	0	279.60	0	6.9370	0	35.5420	8	27.859	0	277.198	0	134.2	4	45.8	4	-1E+10	1	-1E+10	1	-1E+10	1	-1E+10	1	-1E+10	1	-1E+10	1
4901784	142	C	05/25/2019	10:45	-132.602	42.833	0	282.20	0	6.9020	0	35.5430	8	27.864	0	279.774	0	131.7	4	45.0	4	-1E+10	1	-1E+10	1	-1E+10	1	-1E+10	1	-1E+10	1	-1E+10	1
4901784	142	C	05/25/2019	10:45	-132.602	42.833	0	284.90	0	6.8620	0	35.5440	8	27.871	0	282.449	0	130.3	4	44.5	4	-1E+10	1	-1E+10	1	-1E+10	1	-1E+10	1	-1E+10	1	-1E+10	1
4901784	142	C	05/25/2019	10:45	-132.602	42.833	0	287.50	0	6.8200	0	35.5450	8	27.877	0	285.025	0	128.1	4	43.7	4	-1E+10	1	-1E+10	1	-1E+10	1	-1E+10	1	-1E+10	1	-1E+10	1
4901784	142	C	05/25/2019	10:45	-132.602	42.833	0	290.20	0	6.7920	0	35.5460	8	27.882	0	287.700	0	126.1	4	43.0	4	-1E+10	1	-1E+10	1	-1E+10	1	-1E+10	1	-1E+10	1	-1E+10	1
4901784	142	C	05/25/2019	10:45	-132.602	42.833	0	292.80	0	6.7440	0	35.5460	8	27.889	0	290.276	0	125.0	4	42.5	4	-1E+10	1	-1E+10	1	-1E+10	1	-1E+10	1	-1E+10	1	-1E+10	1
4901784	142	C	05/25/2019	10:45	-132.602	42.833	0	295.60	0	6.7060	0	35.5460	8	27.894	0	293.049	0	123.2	4	41.9	4	-1E+10	1	-1E+10	1	-1E+10	1	-1E+10	1	-1E+10	1	-1E+10	1
4901784	142	C	05/25/2019	10:45	-132.602	42.833	0	297.50	0	6.6890	0	35.5460	8	27.896	0	294.932	0	122.0	4	41.4	4	-1E+10	1	-1E+10	1	-1E+10	1	-1E+10	1	-1E+10	1	-1E+10	1
4901784	142	C	05/25/2019	10:45	-132.602	42.833	0	300.20	0	6.6360	0	35.5470	8	27.904	0	297.606	0	119.8	4	40.7	4	-1E+10	1	-1E+10	1	-1E+10	1	-1E+10	1	-1E+10	1	-1E+10	1
4901784	142	C	05/25/2019	10:45	-132.602	42.833	0	302.90	0	6.5780	0	35.5480	8	27.913	0	300.281	0	117.9	4	40.0	4	-1E+10	1	-1E+10	1	-1E+10	1	-1E+10	1	-1E+10	1	-1E+10	1
4901784	142	C	05/25/2019	10:45	-132.602	42.833	0	304.80	0	6.5440	0	35.5490	8	27.919	0	302.163	0	116.7	4	39.5	4	-1E+10	1	-1E+10	1	-1E+10	1	-1E+10	1	-1E+10	1	-1E+10	1
4901784	142	C	05/25/2019	10:45	-132.602	42.833	0	307.60	0	6.5060	0	35.5500	8	27.925	0	304.937	0	115.5	4	39.1	4	-1E+10	1	-1E+10	1	-1E+10	1	-1E+10	1	-1E+10	1	-1E+10	1
4901784	142	C	05/25/2019	10:45	-132.602	42.833	0	310.30	0	6.4820	0	35.5500	8	27.928	0	307.612	0	114.1	4	38.6	4	-1E+10	1	-1E+10	1	-1E+10	1	-1E+10	1	-1E+10	1	-1E+10	1
4901784	142	C	05/25/2019	10:45	-132.602	42.833	0	312.20	0	6.4650	0	35.5500	8	27.930	0	309.494	0	112.9	4	38.2	4	-1E+10	1	-1E+10	1	-1E+10	1	-1E+10	1	-1E+10	1	-1E+10	1
4901784	142	C	05/25/2019	10:45	-132.602	42.833	0	314.90	0	6.3930	0	35.5520	8	27.941	0	312.168	0	111.5	4	37.6	4	-1E+10	1	-1E+10	1	-1E+10	1	-1E+10	1	-1E+10	1	-1E+10	1
4901784	142	C	05/25/2019	10:45	-132.602	42.833	0	317.60	0	6.3860	0	35.5490	8	27.940	0	314.843	0	110.1	4	37.1	4	-1E+10	1	-1E+10	1	-1E+10	1	-1E+10	1	-1E+10	1	-1E+10	1
4901784	142	C	05/25/2019	10:45	-132.602	42.833	0	319.50	0	6.3390	0	35.5510	8	27.948	0	316.725	0	108.9	4	36.7	4	-1E+10	1	-1E+10	1	-1E+10	1	-1E+10	1	-1E+10	1	-1E+10	1
4901784	142	C	05/25/2019	10:45	-132.602	42.833	0	322.50	0	6.2630	0	35.5520	8	27.959	0	319.697	0	107.6	4	36.2	4	-1E+10	1	-1E+10	1	-1E+10	1	-1E+10	1	-1E+10	1	-1E+10	1
4901784	142	C	05/25/2019	10:45	-132.602	42.833	0	325.00	0	6.2170	0	35.5530	8	27.966	0	322.173	0	106.8	4	35.9	4	-1E+10	1	-1E+10	1	-1E+10	1	-1E+10	1	-1E+10	1	-1E+10	1
4901784	142	C	05/25/2019	10:45	-132.602	42.833	0	327.40	0	6.1700	0	35.5540	8	27.973	0	324.550	0	106.0	4	35.6	4	-1E+10	1	-1E+10	1	-1E+10	1	-1E+10	1	-1E+10	1	-1E+10	1
4901784	142	C	05/25/2019	10:45	-132.602	42.833	0	329.80	0	6.1520	0	35.5530	8	27.974	0	326.927	0	105.2	4	35.3	4	-1E+10	1	-1E+10	1	-1E+10	1	-1E+10	1	-1E+10	1	-1E+10	1
4901784	142	C	05/25/2019	10:45	-132.602	42.833	0	332.20	0	6.1030	0	35.5540	8	27.981	0	329.305	0	104.4	4	35.0	4	-1E+10	1	-1E+10	1	-1E+10	1	-1E+10	1	-1E+10	1	-1E+10	1
4901784	142	C	05/25/2019	10:45	-132.602	42.833	0	334.70	0	6.0830	0	35.5540	8	27.984	0	331.781	0	103.5	4	34.7	4	-1E+10	1	-1E+10	1	-1E+10	1	-1E+10	1	-1E+10	1	-1E+10	1
4901784	142	C	05/25/2019	10:45	-132.602	42.833	0	337.90	0	6.0320	0	35.5550	8	27.991	0	334.950	0	102.2	4	34.2	4	-1E+10	1	-1E+10	1	-1E+10	1	-1E+10	1	-1E+10	1	-1E+10	1
4901784	142	C	05/25/2019	10:45	-132.602	42.833	0	340.30	0	5.9900	0	35.5560	8	27.998	0	337.327	0	101.4	4	33.9	4	-1E+10	1	-1E+10	1	-1E+10	1	-1E+10	1	-1E+10	1	-1E+10	1
4901784	142	C	05/25/2019	10:45	-132.602	42.833	0	342.70	0	5.9640	0	35.5570	8	28.002	0	339.704	0	100.6	4	33.6	4	-1E+10	1	-1E+10	1	-1E+10	1	-1E+10	1	-1E+10	1	-1E+10	1
4901784	142	C	05/25/2019	10:45	-132.602	42.833	0	345.10	0	5.9300	0	35.5580	8	28.007	0	342.081	0	99.9	4	33.4	4	-1E+10	1	-1E+10	1	-1E+10	1	-1E+10	1	-1E+10	1	-1E+10	1
4901784	142	C	05/25/2019	10:45	-132.602	42.833	0	347.70	0	5.9060	0	35.5590	8	28.011	0	344.657	0	99.2	4	33.1	4	-1E+10	1	-1E+10	1	-1E+10	1	-1E+10	1	-1E+10	1	-1E+10	1
4901784	142	C	05/25/2019	10:45	-132.602	42.833	0	350.20	0	5.8750	0	35.5610	8	28.016	0	347.133	0	98.6	4	32.9	4	-1E+10	1	-1E+10	1	-1E+10	1	-1E+10	1	-1E+10	1	-1E+10	1
4901784	142	C	05/25/2019	10:45	-132.602	42.833	0	352.70	0	5.8630	0	35.5600	8	28.017	0	349.609	0	98.1	4	32.7	4	-1E+10	1	-1E+10	1	-1E+10	1	-1E+10	1	-1E+10	1	-1E+10	1
4901784	142	C	05/25/2019	10:45	-132.602	42.833	0	355.20	0	5.8380	0	35.5630	8	28.023	0	352.085	0	97.5	4	32.5	4	-1E+10	1	-1E+10	1	-1E+10	1	-1E+10	1	-1E+10	1	-1E+10	1
4901784	142	C	05/25/2019	10:45	-132.602	42.833	0	357.60	0	5.8320	0	35.5620	8	28.023	0	354.461	0	97.0	4	32.3	4	-1E+10	1	-1E+10	1	-1E+10	1	-1E+10	1	-1E+10	1	-1E+10	1
4901784	142	C	05/25/2019	10:45	-132.602	42.833	0	360.00	0	5.8120	0	35.5620	8	28.025	0	356.838	0	96.3	4	32.1	4	-1E+10	1	-1E+10	1	-1E+10	1	-1E+10	1	-1E+10	1	-1E+10	1
4901784	142	C	05/25/2019	10:45	-132.602	42.833	0	362.50	0	5.7880	0	35.5620	8	28.028	0	359.314	0	95.5	4	31.8	4	-1E+10	1	-1E+10	1	-1E+10	1	-1E+10	1	-1E+10	1	-1E+10	1
4901784	142	C	05/25/2019	10:45	-132.602	42.833	0	365.00	0	5.7510	0	35.5640	8	28.035	0	361.790	0	94.8	4	31.5	4	-1E+10	1	-1E+10	1	-1E+10	1	-1E+10	1	-1E+10	1	-1E+10	1
4901784	142	C	05/25/2019	10:45	-132.602	42.833	0	367.50	0	5.7390	0	35.5640	8	28.036	0	364.266	0	94.0	4	31.3	4	-1E+10	1	-1E+10	1	-1E+10	1	-1E+10	1	-1E+10	1	-1E+10	1
4901784	142	C	05/25/2019	10:45	-132.602	42.833	0	370.10	0	5.7140	0	35.5650	8	28.040	0	366.841	0	93.2	4	31.0	4	-1E+10	1	-1E+10	1	-1E+10	1	-1E+10	1	-1E+10	1	-1E+10	1
4901784	142	C	05/25/2019	10:45	-132.602	42.833	0	372.70	0	5.6920	0	35.5650	8	28.043	0	369.415	0	92.2	4	30.6	4	-1E+10	1	-1E+10	1	-1E+10	1	-1E+10	1	-1E+10	1	-1E+10	1
4901784	142	C	05/25/2019	10:45	-132.602	42.833	0	375.40	0	5.6520	0	35.5670	8	28.050	0	372.089	0	91.0	4	30.2	4	-1E+10	1	-1E+10	1	-1E+10	1	-1E+10	1	-1E+10	1	-1E+10	1
4901784	142	C	05/25/2019	10:45	-132.602	42.833	0	377.10	0	5.6410	0	35.5670	8	28.051	0	373.773	0	90.2	4	29.9	4	-1E+10	1	-1E+10	1	-1E+10	1	-1E+10	1	-1E+10	1	-1E+10	1
4901784	142	C	05/25/2019	10:45	-132.602	42.833	0	379.80	0	5.6070	0	35.5670	8	28.055	0	376.446	0	88.7	4	29.4	4	-1E+10	1	-1E+10	1	-1E+10	1	-1E+10	1	-1E+10	1	-1E+10	1
4901784	142	C	05/25/2019	10:45	-132.602	42.833	0	382.50	0	5.5380	0	35.5710	8	28.067	0	379.120	0	87.3	4	28.9	4	-1E+10	1	-1E+10	1	-1E+10	1	-1E+10	1	-1E+10	1	-1E+10	1
4901784	142	C	05/25/2019	10:45	-132.602	42.833	0	385.20	0	5.5020	0	35.5730	8	28.073	0	381.794	0	86.2	4	28.5	4	-1E+10	1	-1E+10	1	-1E+10	1	-1E+10	1	-1E+10	1	-1E+10	1
4901784	142	C	05/25/2019	10:45	-132.602	42.833	0	387.80	0	5.4640	0	35.5760	8	28.080	0	384.368	0	85.4	4	28.2	4	-1E+10	1	-1E+10	1	-1E+10	1	-1E+10	1	-1E+10	1	-1E+10	1
4901784	142	C	05/25/2019	10:45	-132.602	42.833	0	390.40	0	5.4400	0	35.5770	8	28.084	0	386.943	0	84.5	4	27.9	4	-1E+10	1	-1E+10	1	-1E+10	1	-1E+10	1	-1E+10	1	-1E+10	1
4901784	142	C	05/25/2019	10:45	-132.602	42.833	0	393.00	0	5.4030	0	35.5830	8	28.093	0	389.518	0	83.7	4	27.6	4	-1E+10	1	-1E+10	1	-1E+10	1	-1E+10	1	-1E+10	1	-1E+10	1
4901784	142	C	05/25/2019	10:45	-132.602	42.833	0	394.70	0	5.3960	0	35.5790	8	28.091	0	391.201	0	83.3	4	27.5	4	-1E+10	1	-1E+10	1	-1E+10	1	-1E+10	1	-1E+10	1	-1E+10	1
4901784	142	C	05/25/2019	10:45	-132.602	42.833	0	397.30	0	5.3720	0	35.5820	8	28.096	0	393.775	0	82.6	4	27.2	4	-1E+10	1	-1E+10	1	-1E+10	1	-1E+10	1	-1E+10	1	-1E+10	1
4901784	142	C	05/25/2019	10:45	-132.602	42.833	0	399.90	0	5.3500	0	35.5840	8	28.101	0	396.350	0	82.0	4	27.0	4	-1E+10	1	-1E+10	1	-1E+10	1	-1E+10	1	-1E+10	1	-1E+10	1
4901784	142	C	05/25/2019	10:45	-132.602	42.833	0	402.50	0	5.3410	0	35.5840	8	28.102	0	398.924	0	81.4	4	26.8	4	-1E+10	1	-1E+10	1	-1E+10	1	-1E+10	1	-1E+10	1	-1E+10	1
4901784	142	C	05/25/2019	10:45	-132.602	42.833	0	405.00	0	5.3250	0	35.5850	8	28.105	0	401.400	0	80.6	4	26.5	4	-1E+10	1	-1E+10	1	-1E+10	1	-1E+10	1	-1E+10	1	-1E+10	1
4901784	142	C	05/25/2019	10:45	-132.602	42.833	0	407.60	0	5.3050	0	35.5870	8	28.109	0	403.974	0	79.6	4	26.2	4	-1E+10	1	-1E+10	1	-1E+10	1	-1E+10	1	-1E+10	1	-1E+10	1
4901784	142	C	05/25/2019	10:45	-132.602	42.833	0	410.30	0	5.2790	0	35.5890	8	28.113	0	406.647	0	78.6	4	25.9	4	-1E+10	1	-1E+10	1	-1E+10	1	-1E+10	1	-1E+10	1	-1E+10	1
4901784	142	C	05/25/2019	10:45	-132.602	42.833	0	412.10	0	5.2620	0	35.5910	8	28.117	0	408.429	0	78.0	4	25.6	4	-1E+10	1	-1E+10	1	-1E+10	1	-1E+10	1	-1E+10	1	-1E+10	1
4901784	142	C	05/25/2019	10:45	-132.602	42.833	0	414.70	0	5.2440	0	35.5920	8	28.120	0	411.004	0	77.2	4	25.4	4	-1E+10	1	-1E+10	1	-1E+10	1	-1E+10	1	-1E+10	1	-1E+10	1
4901784	142	C	05/25/2019	10:45	-132.602	42.833	0	417.30	0	5.2120	0	35.5970	8	28.128	0	413.578	0	76.6	4	25.1	4	-1E+10	1	-1E+10	1	-1E+10	1	-1E+10	1	-1E+10	1	-1E+10	1
4901784	142	C	05/25/2019	10:45	-132.602	42.833	0	420.00	0	5.2060	0	35.5970	8	28.129	0	416.251	0	76.3	4	25.0	4	-1E+10	1	-1E+10	1	-1E+10	1	-1E+10	1	-1E+10	1	-1E+10	1
4901784	142	C	05/25/2019	10:45	-132.602	42.833	0	422.70	0	5.1770	0	35.5990	8	28.134	0	418.924	0	76.0	4	24.9	4	-1E+10	1	-1E+10	1	-1E+10	1	-1E+10	1	-1E+10	1	-1E+10	1
4901784	142	C	05/25/2019	10:45	-132.602	42.833	0	425.30	0	5.1690	0	35.5990	8	28.135	0	421.498	0	75.5	4	24.8	4	-1E+10	1	-1E+10	1	-1E+10	1	-1E+10	1	-1E+10	1	-1E+10	1
4901784	142	C	05/25/2019	10:45	-132.602	42.833	0	428.00	0	5.1640	0	35.6000	8	28.136	0	424.172	0	74.9	4	24.6	4	-1E+10	1	-1E+10	1	-1E+10	1	-1E+10	1	-1E+10	1	-1E+10	1
4901784	142	C	05/25/2019	10:45	-132.602	42.833	0	429.80	0	5.1570	0	35.6010	8	28.138	0	425.954	0	74.4	4	24.4	4	-1E+10	1	-1E+10	1	-1E+10	1	-1E+10	1	-1E+10	1	-1E+10	1
4901784	142	C	05/25/2019	10:45	-132.602	42.833	0	432.50	0	5.1460	0	35.6020	8	28.140	0	428.627	0	73.4	4	24.1	4	-1E+10	1	-1E+10	1	-1E+10	1	-1E+10	1	-1E+10	1	-1E+10	1
4901784	142	C	05/25/2019	10:45	-132.602	42.833	0	435.20	0	5.1380	0	35.6020	8	28.141	0	431.300	0	72.0	4	23.6	4	-1E+10	1	-1E+10	1	-1E+10	1	-1E+10	1	-1E+10	1	-1E+10	1
4901784	142	C	05/25/2019	10:45	-132.602	42.833	0	437.00	0	5.1090	0	35.6090	8	28.150	0	433.082	0	71.0	4	23.3	4	-1E+10	1	-1E+10	1	-1E+10	1	-1E+10	1	-1E+10	1	-1E+10	1
4901784	142	C	05/25/2019	10:45	-132.602	42.833	0	439.70	0	5.0990	0	35.6110	8	28.153	0	435.755	0	69.7	4	22.8	4	-1E+10	1	-1E+10	1	-1E+10	1	-1E+10	1	-1E+10	1	-1E+10	1
4901784	142	C	05/25/2019	10:45	-132.602	42.833	0	442.40	0	5.0890	0	35.6160	8	28.158	0	438.428	0	68.5	4	22.4	4	-1E+10	1	-1E+10	1	-1E+10	1	-1E+10	1	-1E+10	1	-1E+10	1
4901784	142	C	05/25/2019	10:45	-132.602	42.833	0	445.00	0	5.0630	0	35.6180	8	28.162	0	441.001	0	67.9	4	22.2	4	-1E+10	1	-1E+10	1	-1E+10	1	-1E+10	1	-1E+10	1	-1E+10	1
4901784	142	C	05/25/2019	10:45	-132.602	42.833	0	447.70	0	5.0550	0	35.6200	8	28.165	0	443.674	0	67.0	4	21.9	4	-1E+10	1	-1E+10	1	-1E+10	1	-1E+10	1	-1E+10	1	-1E+10	1
4901784	142	C	05/25/2019	10:45	-132.602	42.833	0	449.60	0	5.0470	0	35.6210	8	28.167	0	445.555	0	66.4	4	21.7	4	-1E+10	1	-1E+10	1	-1E+10	1	-1E+10	1	-1E+10	1	-1E+10	1
4901784	142	C	05/25/2019	10:45	-132.602	42.833	0	452.30	0	5.0360	0	35.6250	8	28.171	0	448.228	0	65.4	4	21.4	4	-1E+10	1	-1E+10	1	-1E+10	1	-1E+10	1	-1E+10	1	-1E+10	1
4901784	142	C	05/25/2019	10:45	-132.602	42.833	0	455.10	0	5.0250	0	35.6280	8	28.175	0	451.000	0	64.9	4	21.2	4	-1E+10	1	-1E+10	1	-1E+10	1	-1E+10	1	-1E+10	1	-1E+10	1
4901784	142	C	05/25/2019	10:45	-132.602	42.833	0	457.80	0	5.0210	0	35.6280	8	28.175	0	453.672	0	64.1	4	21.0	4	-1E+10	1	-1E+10	1	-1E+10	1	-1E+10	1	-1E+10	1	-1E+10	1
4901784	142	C	05/25/2019	10:45	-132.602	42.833	0	460.50	0	5.0060	0	35.6300	8	28.179	0	456.345	0	63.0	4	20.6	4	-1E+10	1	-1E+10	1	-1E+10	1	-1E+10	1	-1E+10	1	-1E+10	1
4901784	142	C	05/25/2019	10:45	-132.602	42.833	0	462.30	0	4.9990	0	35.6310	8	28.180	0	458.127	0	62.1	4	20.3	4	-1E+10	1	-1E+10	1	-1E+10	1	-1E+10	1	-1E+10	1	-1E+10	1
4901784	142	C	05/25/2019	10:45	-132.602	42.833	0	464.90	0	4.9850	0	35.6350	8	28.185	0	460.701	0	60.5	4	19.8	4	-1E+10	1	-1E+10	1	-1E+10	1	-1E+10	1	-1E+10	1	-1E+10	1
4901784	142	C	05/25/2019	10:45	-132.602	42.833	0	467.50	0	4.9830	0	35.6390	8	28.189	0	463.274	0	58.7	4	19.2	4	-1E+10	1	-1E+10	1	-1E+10	1	-1E+10	1	-1E+10	1	-1E+10	1
4901784	142	C	05/25/2019	10:45	-132.602	42.833	0	470.30	0	4.9690	0	35.6470	8	28.197	0	466.046	0	56.8	4	18.5	4	-1E+10	1	-1E+10	1	-1E+10	1	-1E+10	1	-1E+10	1	-1E+10	1
4901784	142	C	05/25/2019	10:45	-132.602	42.833	0	473.10	0	4.9590	0	35.6550	8	28.204	0	468.817	0	55.5	4	18.1	4	-1E+10	1	-1E+10	1	-1E+10	1	-1E+10	1	-1E+10	1	-1E+10	1
4901784	142	C	05/25/2019	10:45	-132.602	42.833	0	474.90	0	4.9590	0	35.6550	8	28.204	0	470.599	0	55.1	4	18.0	4	-1E+10	1	-1E+10	1	-1E+10	1	-1E+10	1	-1E+10	1	-1E+10	1
4901784	142	C	05/25/2019	10:45	-132.602	42.833	0	477.60	0	4.9480	0	35.6600	8	28.210	0	473.271	0	54.3	4	17.7	4	-1E+10	1	-1E+10	1	-1E+10	1	-1E+10	1	-1E+10	1	-1E+10	1
4901784	142	C	05/25/2019	10:45	-132.602	42.833	0	480.40	0	4.9340	0	35.6630	8	28.214	0	476.043	0	53.9	4	17.6	4	-1E+10	1	-1E+10	1	-1E+10	1	-1E+10	1	-1E+10	1	-1E+10	1
4901784	142	C	05/25/2019	10:45	-132.602	42.833	0	482.20	0	4.9270	0	35.6640	8	28.215	0	477.824	0	53.8	4	17.6	4	-1E+10	1	-1E+10	1	-1E+10	1	-1E+10	1	-1E+10	1	-1E+10	1
4901784	142	C	05/25/2019	10:45	-132.602	42.833	0	485.00	0	4.9210	0	35.6650	8	28.217	0	480.596	0	53.5	4	17.5	4	-1E+10	1	-1E+10	1	-1E+10	1	-1E+10	1	-1E+10	1	-1E+10	1
4901784	142	C	05/25/2019	10:45	-132.602	42.833	0	487.80	0	4.9140	0	35.6660	8	28.218	0	483.367	0	53.1	4	17.3	4	-1E+10	1	-1E+10	1	-1E+10	1	-1E+10	1	-1E+10	1	-1E+10	1
4901784	142	C	05/25/2019	10:45	-132.602	42.833	0	489.60	0	4.9130	0	35.6660	8	28.219	0	485.149	0	52.7	4	17.2	4	-1E+10	1	-1E+10	1	-1E+10	1	-1E+10	1	-1E+10	1	-1E+10	1
4901784	142	C	05/25/2019	10:45	-132.602	42.833	0	492.30	0	4.9070	0	35.6670	8	28.220	0	487.821	0	51.8	4	16.9	4	-1E+10	1	-1E+10	1	-1E+10	1	-1E+10	1	-1E+10	1	-1E+10	1
4901784	142	C	05/25/2019	10:45	-132.602	42.833	0	494.90	0	4.9070	0	35.6710	8	28.223	0	490.394	0	50.8	4	16.6	4	-1E+10	1	-1E+10	1	-1E+10	1	-1E+10	1	-1E+10	1	-1E+10	1
4901784	142	C	05/25/2019	10:45	-132.602	42.833	0	497.60	0	4.8930	0	35.6730	8	28.227	0	493.066	0	49.9	4	16.3	4	-1E+10	1	-1E+10	1	-1E+10	1	-1E+10	1	-1E+10	1	-1E+10	1
4901784	142	C	05/25/2019	10:45	-132.602	42.833	0	500.20	0	4.8780	0	35.6800	8	28.234	0	495.640	0	48.7	4	15.9	4	-1E+10	1	-1E+10	1	-1E+10	1	-1E+10	1	-1E+10	1	-1E+10	1
4901784	142	C	05/25/2019	10:45	-132.602	42.833	0	505.60	0	4.8720	0	35.6840	8	28.238	0	500.984	0	46.8	4	15.2	4	-1E+10	1	-1E+10	1	-1E+10	1	-1E+10	1	-1E+10	1	-1E+10	1
4901784	142	C	05/25/2019	10:45	-132.602	42.833	0	510.10	0	4.8630	0	35.6950	8	28.248	0	505.437	0	45.2	4	14.7	4	-1E+10	1	-1E+10	1	-1E+10	1	-1E+10	1	-1E+10	1	-1E+10	1
4901784	142	C	05/25/2019	10:45	-132.602	42.833	0	514.60	0	4.8610	0	35.6960	8	28.249	0	509.891	0	44.1	4	14.4	4	-1E+10	1	-1E+10	1	-1E+10	1	-1E+10	1	-1E+10	1	-1E+10	1
4901784	142	C	05/25/2019	10:45	-132.602	42.833	0	520.00	0	4.8480	0	35.7030	8	28.256	0	515.235	0	42.4	4	13.8	4	-1E+10	1	-1E+10	1	-1E+10	1	-1E+10	1	-1E+10	1	-1E+10	1
4901784	142	C	05/25/2019	10:45	-132.602	42.833	0	525.30	0	4.8300	0	35.7090	8	28.263	0	520.479	0	40.5	4	13.2	4	-1E+10	1	-1E+10	1	-1E+10	1	-1E+10	1	-1E+10	1	-1E+10	1
4901784	142	C	05/25/2019	10:45	-132.602	42.833	0	529.80	0	4.8120	0	35.7170	8	28.271	0	524.932	0	38.9	4	12.7	4	-1E+10	1	-1E+10	1	-1E+10	1	-1E+10	1	-1E+10	1	-1E+10	1
4901784	142	C	05/25/2019	10:45	-132.602	42.833	0	534.50	0	4.7980	0	35.7220	8	28.277	0	529.583	0	37.5	4	12.2	4	-1E+10	1	-1E+10	1	-1E+10	1	-1E+10	1	-1E+10	1	-1E+10	1
4901784	142	C	05/25/2019	10:45	-132.602	42.833	0	539.90	0	4.7730	0	35.7320	8	28.288	0	534.927	0	35.7	4	11.6	4	-1E+10	1	-1E+10	1	-1E+10	1	-1E+10	1	-1E+10	1	-1E+10	1
4901784	142	C	05/25/2019	10:45	-132.602	42.833	0	545.40	0	4.7520	0	35.7400	8	28.297	0	540.369	0	34.0	4	11.1	4	-1E+10	1	-1E+10	1	-1E+10	1	-1E+10	1	-1E+10	1	-1E+10	1
4901784	142	C	05/25/2019	10:45	-132.602	42.833	0	550.10	0	4.7420	0	35.7470	8	28.303	0	545.019	0	33.0	4	10.7	4	-1E+10	1	-1E+10	1	-1E+10	1	-1E+10	1	-1E+10	1	-1E+10	1
4901784	142	C	05/25/2019	10:45	-132.602	42.833	0	554.80	0	4.7400	0	35.7510	8	28.307	0	549.670	0	32.1	4	10.4	4	-1E+10	1	-1E+10	1	-1E+10	1	-1E+10	1	-1E+10	1	-1E+10	1
4901784	142	C	05/25/2019	10:45	-132.602	42.833	0	560.40	0	4.7110	0	35.7560	8	28.314	0	555.210	0	30.9	4	10.0	4	-1E+10	1	-1E+10	1	-1E+10	1	-1E+10	1	-1E+10	1	-1E+10	1
4901784	142	C	05/25/2019	10:45	-132.602	42.833	0	565.10	0	4.6920	0	35.7650	8	28.323	0	559.861	0	29.5	4	9.6	4	-1E+10	1	-1E+10	1	-1E+10	1	-1E+10	1	-1E+10	1	-1E+10	1
4901784	142	C	05/25/2019	10:45	-132.602	42.833	0	569.80	0	4.6670	0	35.7700	8	28.330	0	564.511	0	28.6	4	9.3	4	-1E+10	1	-1E+10	1	-1E+10	1	-1E+10	1	-1E+10	1	-1E+10	1
4901784	142	C	05/25/2019	10:45	-132.602	42.833	0	575.40	0	4.6570	0	35.7770	8	28.337	0	570.051	0	27.5	4	8.9	4	-1E+10	1	-1E+10	1	-1E+10	1	-1E+10	1	-1E+10	1	-1E+10	1
4901784	142	C	05/25/2019	10:45	-132.602	42.833	0	580.50	0	4.6180	0	35.7830	8	28.346	0	575.097	0	27.3	4	8.8	4	-1E+10	1	-1E+10	1	-1E+10	1	-1E+10	1	-1E+10	1	-1E+10	1
4901784	142	C	05/25/2019	10:45	-132.602	42.833	0	585.00	0	4.5990	0	35.7840	8	28.349	0	579.548	0	26.7	4	8.7	4	-1E+10	1	-1E+10	1	-1E+10	1	-1E+10	1	-1E+10	1	-1E+10	1
4901784	142	C	05/25/2019	10:45	-132.602	42.833	0	589.90	0	4.5820	0	35.7910	8	28.357	0	584.396	0	25.8	4	8.3	4	-1E+10	1	-1E+10	1	-1E+10	1	-1E+10	1	-1E+10	1	-1E+10	1
4901784	142	C	05/25/2019	10:45	-132.602	42.833	0	594.80	0	4.5610	0	35.7980	8	28.365	0	589.243	0	25.3	4	8.2	4	-1E+10	1	-1E+10	1	-1E+10	1	-1E+10	1	-1E+10	1	-1E+10	1
4901784	142	C	05/25/2019	10:45	-132.602	42.833	0	599.70	0	4.5370	0	35.7980	8	28.368	0	594.090	0	25.2	4	8.2	4	-1E+10	1	-1E+10	1	-1E+10	1	-1E+10	1	-1E+10	1	-1E+10	1
4901784	142	C	05/25/2019	10:45	-132.602	42.833	0	604.70	0	4.5180	0	35.8020	8	28.373	0	599.036	0	24.4	4	7.9	4	-1E+10	1	-1E+10	1	-1E+10	1	-1E+10	1	-1E+10	1	-1E+10	1
4901784	142	C	05/25/2019	10:45	-132.602	42.833	0	609.60	0	4.5110	0	35.8080	8	28.379	0	603.883	0	24.0	4	7.8	4	-1E+10	1	-1E+10	1	-1E+10	1	-1E+10	1	-1E+10	1	-1E+10	1
4901784	142	C	05/25/2019	10:45	-132.602	42.833	0	614.70	0	4.4230	0	35.8070	8	28.388	0	608.928	0	23.8	4	7.7	4	-1E+10	1	-1E+10	1	-1E+10	1	-1E+10	1	-1E+10	1	-1E+10	1
4901784	142	C	05/25/2019	10:45	-132.602	42.833	0	619.60	0	4.4220	0	35.8180	8	28.396	0	613.775	0	22.5	4	7.3	4	-1E+10	1	-1E+10	1	-1E+10	1	-1E+10	1	-1E+10	1	-1E+10	1
4901784	142	C	05/25/2019	10:45	-132.602	42.833	0	624.80	0	4.4030	0	35.8240	8	28.403	0	618.918	0	21.6	4	7.0	4	-1E+10	1	-1E+10	1	-1E+10	1	-1E+10	1	-1E+10	1	-1E+10	1
4901784	142	C	05/25/2019	10:45	-132.602	42.833	0	629.90	0	4.4040	0	35.8330	8	28.411	0	623.963	0	20.6	4	6.7	4	-1E+10	1	-1E+10	1	-1E+10	1	-1E+10	1	-1E+10	1	-1E+10	1
4901784	142	C	05/25/2019	10:45	-132.602	42.833	0	635.10	0	4.3680	0	35.8380	8	28.419	0	629.106	0	20.2	4	6.5	4	-1E+10	1	-1E+10	1	-1E+10	1	-1E+10	1	-1E+10	1	-1E+10	1
4901784	142	C	05/25/2019	10:45	-132.602	42.833	0	640.30	0	4.3380	0	35.8430	8	28.426	0	634.249	0	19.9	4	6.4	4	-1E+10	1	-1E+10	1	-1E+10	1	-1E+10	1	-1E+10	1	-1E+10	1
4901784	142	C	05/25/2019	10:45	-132.602	42.833	0	645.60	0	4.3270	0	35.8470	8	28.430	0	639.491	0	19.3	4	6.2	4	-1E+10	1	-1E+10	1	-1E+10	1	-1E+10	1	-1E+10	1	-1E+10	1
4901784	142	C	05/25/2019	10:45	-132.602	42.833	0	650.00	0	4.3280	0	35.8530	8	28.435	0	643.842	0	18.4	4	5.9	4	-1E+10	1	-1E+10	1	-1E+10	1	-1E+10	1	-1E+10	1	-1E+10	1
4901784	142	C	05/25/2019	10:45	-132.602	42.833	0	654.30	0	4.3340	0	35.8610	8	28.441	0	648.095	0	17.7	4	5.7	4	-1E+10	1	-1E+10	1	-1E+10	1	-1E+10	1	-1E+10	1	-1E+10	1
4901784	142	C	05/25/2019	10:45	-132.602	42.833	0	659.70	0	4.3440	0	35.8690	8	28.446	0	653.435	0	17.1	4	5.5	4	-1E+10	1	-1E+10	1	-1E+10	1	-1E+10	1	-1E+10	1	-1E+10	1
4901784	142	C	05/25/2019	10:45	-132.602	42.833	0	665.10	0	4.3140	0	35.8690	8	28.449	0	658.775	0	17.0	4	5.5	4	-1E+10	1	-1E+10	1	-1E+10	1	-1E+10	1	-1E+10	1	-1E+10	1
4901784	142	C	05/25/2019	10:45	-132.602	42.833	0	670.50	0	4.3030	0	35.8780	8	28.458	0	664.115	0	15.9	4	5.1	4	-1E+10	1	-1E+10	1	-1E+10	1	-1E+10	1	-1E+10	1	-1E+10	1
4901784	142	C	05/25/2019	10:45	-132.602	42.833	0	675.10	0	4.3110	0	35.8850	8	28.463	0	668.664	0	15.5	4	5.0	4	-1E+10	1	-1E+10	1	-1E+10	1	-1E+10	1	-1E+10	1	-1E+10	1
4901784	142	C	05/25/2019	10:45	-132.602	42.833	0	679.80	0	4.3000	0	35.8900	8	28.468	0	673.312	0	15.2	4	4.9	4	-1E+10	1	-1E+10	1	-1E+10	1	-1E+10	1	-1E+10	1	-1E+10	1
4901784	142	C	05/25/2019	10:45	-132.602	42.833	0	685.30	0	4.2760	0	35.8970	8	28.476	0	678.750	0	14.9	4	4.8	4	-1E+10	1	-1E+10	1	-1E+10	1	-1E+10	1	-1E+10	1	-1E+10	1
4901784	142	C	05/25/2019	10:45	-132.602	42.833	0	689.90	0	4.2680	0	35.9020	8	28.481	0	683.299	0	14.8	4	4.8	4	-1E+10	1	-1E+10	1	-1E+10	1	-1E+10	1	-1E+10	1	-1E+10	1
4901784	142	C	05/25/2019	10:45	-132.602	42.833	0	694.60	0	4.2220	0	35.9040	8	28.488	0	687.946	0	14.9	4	4.8	4	-1E+10	1	-1E+10	1	-1E+10	1	-1E+10	1	-1E+10	1	-1E+10	1
4901784	142	C	05/25/2019	10:45	-132.602	42.833	0	700.00	0	4.2040	0	35.9030	8	28.489	0	693.285	0	14.9	4	4.8	4	-1E+10	1	-1E+10	1	-1E+10	1	-1E+10	1	-1E+10	1	-1E+10	1
4901784	142	C	05/25/2019	10:45	-132.602	42.833	0	705.60	0	4.1870	0	35.9060	8	28.493	0	698.822	0	14.6	4	4.7	4	-1E+10	1	-1E+10	1	-1E+10	1	-1E+10	1	-1E+10	1	-1E+10	1
4901784	142	C	05/25/2019	10:45	-132.602	42.833	0	710.30	0	4.1830	0	35.9100	8	28.497	0	703.469	0	14.3	4	4.6	4	-1E+10	1	-1E+10	1	-1E+10	1	-1E+10	1	-1E+10	1	-1E+10	1
4901784	142	C	05/25/2019	10:45	-132.602	42.833	0	715.10	0	4.1520	0	35.9170	8	28.506	0	708.215	0	14.3	4	4.6	4	-1E+10	1	-1E+10	1	-1E+10	1	-1E+10	1	-1E+10	1	-1E+10	1
4901784	142	C	05/25/2019	10:45	-132.602	42.833	0	719.80	0	4.0950	0	35.9160	8	28.511	0	712.862	0	14.0	4	4.5	4	-1E+10	1	-1E+10	1	-1E+10	1	-1E+10	1	-1E+10	1	-1E+10	1
4901784	142	C	05/25/2019	10:45	-132.602	42.833	0	724.60	0	4.1330	0	35.9270	8	28.516	0	717.607	0	13.3	4	4.3	4	-1E+10	1	-1E+10	1	-1E+10	1	-1E+10	1	-1E+10	1	-1E+10	1
4901784	142	C	05/25/2019	10:45	-132.602	42.833	0	730.20	0	4.1270	0	35.9360	8	28.524	0	723.143	0	13.1	4	4.2	4	-1E+10	1	-1E+10	1	-1E+10	1	-1E+10	1	-1E+10	1	-1E+10	1
4901784	142	C	05/25/2019	10:45	-132.602	42.833	0	735.60	0	4.0850	0	35.9370	8	28.529	0	728.482	0	13.0	4	4.2	4	-1E+10	1	-1E+10	1	-1E+10	1	-1E+10	1	-1E+10	1	-1E+10	1
4901784	142	C	05/25/2019	10:45	-132.602	42.833	0	740.50	0	4.0790	0	35.9450	8	28.536	0	733.326	0	12.8	4	4.1	4	-1E+10	1	-1E+10	1	-1E+10	1	-1E+10	1	-1E+10	1	-1E+10	1
4901784	142	C	05/25/2019	10:45	-132.602	42.833	0	745.40	0	4.0670	0	35.9470	8	28.539	0	738.170	0	12.6	4	4.0	4	-1E+10	1	-1E+10	1	-1E+10	1	-1E+10	1	-1E+10	1	-1E+10	1
4901784	142	C	05/25/2019	10:45	-132.602	42.833	0	750.30	0	4.0650	0	35.9540	8	28.545	0	743.013	0	12.3	4	3.9	4	-1E+10	1	-1E+10	1	-1E+10	1	-1E+10	1	-1E+10	1	-1E+10	1
4901784	142	C	05/25/2019	10:45	-132.602	42.833	0	755.10	0	4.0520	0	35.9590	8	28.550	0	747.758	0	12.2	4	3.9	4	-1E+10	1	-1E+10	1	-1E+10	1	-1E+10	1	-1E+10	1	-1E+10	1
4901784	142	C	05/25/2019	10:45	-132.602	42.833	0	760.10	0	4.0280	0	35.9600	8	28.554	0	752.701	0	12.3	4	3.9	4	-1E+10	1	-1E+10	1	-1E+10	1	-1E+10	1	-1E+10	1	-1E+10	1
4901784	142	C	05/25/2019	10:45	-132.602	42.833	0	765.00	0	3.9900	0	35.9610	8	28.558	0	757.544	0	12.4	4	4.0	4	-1E+10	1	-1E+10	1	-1E+10	1	-1E+10	1	-1E+10	1	-1E+10	1
4901784	142	C	05/25/2019	10:45	-132.602	42.833	0	769.90	0	3.9620	0	35.9630	8	28.563	0	762.387	0	12.4	4	4.0	4	-1E+10	1	-1E+10	1	-1E+10	1	-1E+10	1	-1E+10	1	-1E+10	1
4901784	142	C	05/25/2019	10:45	-132.602	42.833	0	774.90	0	3.9390	0	35.9640	8	28.566	0	767.329	0	12.3	4	3.9	4	-1E+10	1	-1E+10	1	-1E+10	1	-1E+10	1	-1E+10	1	-1E+10	1
4901784	142	C	05/25/2019	10:45	-132.602	42.833	0	779.90	0	3.9200	0	35.9680	8	28.572	0	772.271	0	12.2	4	3.9	4	-1E+10	1	-1E+10	1	-1E+10	1	-1E+10	1	-1E+10	1	-1E+10	1
4901784	142	C	05/25/2019	10:45	-132.602	42.833	0	784.90	0	3.9020	0	35.9720	8	28.577	0	777.213	0	12.1	4	3.9	4	-1E+10	1	-1E+10	1	-1E+10	1	-1E+10	1	-1E+10	1	-1E+10	1
4901784	142	C	05/25/2019	10:45	-132.602	42.833	0	789.90	0	3.8960	0	35.9760	8	28.581	0	782.155	0	12.0	4	3.8	4	-1E+10	1	-1E+10	1	-1E+10	1	-1E+10	1	-1E+10	1	-1E+10	1
4901784	142	C	05/25/2019	10:45	-132.602	42.833	0	794.90	0	3.8770	0	35.9780	8	28.584	0	787.096	0	11.9	4	3.8	4	-1E+10	1	-1E+10	1	-1E+10	1	-1E+10	1	-1E+10	1	-1E+10	1
4901784	142	C	05/25/2019	10:45	-132.602	42.833	0	800.00	0	3.8610	0	35.9810	8	28.588	0	792.136	0	11.8	4	3.8	4	-1E+10	1	-1E+10	1	-1E+10	1	-1E+10	1	-1E+10	1	-1E+10	1
4901784	142	C	05/25/2019	10:45	-132.602	42.833	0	805.10	0	3.8230	0	35.9850	8	28.596	0	797.177	0	11.8	4	3.7	4	-1E+10	1	-1E+10	1	-1E+10	1	-1E+10	1	-1E+10	1	-1E+10	1
4901784	142	C	05/25/2019	10:45	-132.602	42.833	0	810.30	0	3.8090	0	35.9900	8	28.601	0	802.315	0	11.6	4	3.7	4	-1E+10	1	-1E+10	1	-1E+10	1	-1E+10	1	-1E+10	1	-1E+10	1
4901784	142	C	05/25/2019	10:45	-132.602	42.833	0	815.50	0	3.7940	0	35.9940	8	28.606	0	807.454	0	11.5	4	3.7	4	-1E+10	1	-1E+10	1	-1E+10	1	-1E+10	1	-1E+10	1	-1E+10	1
4901784	142	C	05/25/2019	10:45	-132.602	42.833	0	820.70	0	3.7780	0	35.9990	8	28.611	0	812.593	0	11.3	4	3.6	4	-1E+10	1	-1E+10	1	-1E+10	1	-1E+10	1	-1E+10	1	-1E+10	1
4901784	142	C	05/25/2019	10:45	-132.602	42.833	0	825.10	0	3.7590	0	36.0040	8	28.617	0	816.941	0	11.2	4	3.6	4	-1E+10	1	-1E+10	1	-1E+10	1	-1E+10	1	-1E+10	1	-1E+10	1
4901784	142	C	05/25/2019	10:45	-132.602	42.833	0	829.50	0	3.7440	0	36.0090	8	28.623	0	821.289	0	11.2	4	3.6	4	-1E+10	1	-1E+10	1	-1E+10	1	-1E+10	1	-1E+10	1	-1E+10	1
4901784	142	C	05/25/2019	10:45	-132.602	42.833	0	834.70	0	3.7350	0	36.0110	8	28.626	0	826.427	0	11.1	4	3.5	4	-1E+10	1	-1E+10	1	-1E+10	1	-1E+10	1	-1E+10	1	-1E+10	1
4901784	142	C	05/25/2019	10:45	-132.602	42.833	0	840.00	0	3.7240	0	36.0150	8	28.630	0	831.664	0	11.0	4	3.5	4	-1E+10	1	-1E+10	1	-1E+10	1	-1E+10	1	-1E+10	1	-1E+10	1
4901784	142	C	05/25/2019	10:45	-132.602	42.833	0	845.40	0	3.7190	0	36.0190	8	28.634	0	836.999	0	10.9	4	3.5	4	-1E+10	1	-1E+10	1	-1E+10	1	-1E+10	1	-1E+10	1	-1E+10	1
4901784	142	C	05/25/2019	10:45	-132.602	42.833	0	849.90	0	3.7160	0	36.0210	8	28.636	0	841.446	0	10.8	4	3.4	4	-1E+10	1	-1E+10	1	-1E+10	1	-1E+10	1	-1E+10	1	-1E+10	1
4901784	142	C	05/25/2019	10:45	-132.602	42.833	0	854.50	0	3.7160	0	36.0240	8	28.638	0	845.990	0	10.8	4	3.4	4	-1E+10	1	-1E+10	1	-1E+10	1	-1E+10	1	-1E+10	1	-1E+10	1
4901784	142	C	05/25/2019	10:45	-132.602	42.833	0	860.00	0	3.7110	0	36.0260	8	28.640	0	851.424	0	10.7	4	3.4	4	-1E+10	1	-1E+10	1	-1E+10	1	-1E+10	1	-1E+10	1	-1E+10	1
4901784	142	C	05/25/2019	10:45	-132.602	42.833	0	865.60	0	3.6980	0	36.0300	8	28.645	0	856.957	0	10.6	4	3.4	4	-1E+10	1	-1E+10	1	-1E+10	1	-1E+10	1	-1E+10	1	-1E+10	1
4901784	142	C	05/25/2019	10:45	-132.602	42.833	0	870.30	0	3.6910	0	36.0340	8	28.649	0	861.601	0	10.6	4	3.4	4	-1E+10	1	-1E+10	1	-1E+10	1	-1E+10	1	-1E+10	1	-1E+10	1
4901784	142	C	05/25/2019	10:45	-132.602	42.833	0	874.90	0	3.6830	0	36.0380	8	28.653	0	866.145	0	10.5	4	3.3	4	-1E+10	1	-1E+10	1	-1E+10	1	-1E+10	1	-1E+10	1	-1E+10	1
4901784	142	C	05/25/2019	10:45	-132.602	42.833	0	879.70	0	3.6740	0	36.0420	8	28.657	0	870.887	0	10.4	4	3.3	4	-1E+10	1	-1E+10	1	-1E+10	1	-1E+10	1	-1E+10	1	-1E+10	1
4901784	142	C	05/25/2019	10:45	-132.602	42.833	0	884.50	0	3.6650	0	36.0460	8	28.661	0	875.629	0	10.4	4	3.3	4	-1E+10	1	-1E+10	1	-1E+10	1	-1E+10	1	-1E+10	1	-1E+10	1
4901784	142	C	05/25/2019	10:45	-132.602	42.833	0	890.30	0	3.6530	0	36.0490	8	28.665	0	881.359	0	10.4	4	3.3	4	-1E+10	1	-1E+10	1	-1E+10	1	-1E+10	1	-1E+10	1	-1E+10	1
4901784	142	C	05/25/2019	10:45	-132.602	42.833	0	895.00	0	3.6410	0	36.0510	8	28.668	0	886.001	0	10.3	4	3.3	4	-1E+10	1	-1E+10	1	-1E+10	1	-1E+10	1	-1E+10	1	-1E+10	1
4901784	142	C	05/25/2019	10:45	-132.602	42.833	0	899.70	0	3.6170	0	36.0570	8	28.675	0	890.644	0	10.3	4	3.3	4	-1E+10	1	-1E+10	1	-1E+10	1	-1E+10	1	-1E+10	1	-1E+10	1
4901784	142	C	05/25/2019	10:45	-132.602	42.833	0	904.50	0	3.6130	0	36.0590	8	28.677	0	895.386	0	10.3	4	3.3	4	-1E+10	1	-1E+10	1	-1E+10	1	-1E+10	1	-1E+10	1	-1E+10	1
4901784	142	C	05/25/2019	10:45	-132.602	42.833	0	909.10	0	3.6010	0	36.0620	8	28.681	0	899.929	0	10.2	4	3.2	4	-1E+10	1	-1E+10	1	-1E+10	1	-1E+10	1	-1E+10	1	-1E+10	1
4901784	142	C	05/25/2019	10:45	-132.602	42.833	0	914.50	0	3.5900	0	36.0650	8	28.684	0	905.263	0	10.2	4	3.2	4	-1E+10	1	-1E+10	1	-1E+10	1	-1E+10	1	-1E+10	1	-1E+10	1
4901784	142	C	05/25/2019	10:45	-132.602	42.833	0	919.50	0	3.5870	0	36.0680	8	28.687	0	910.202	0	10.2	4	3.2	4	-1E+10	1	-1E+10	1	-1E+10	1	-1E+10	1	-1E+10	1	-1E+10	1
4901784	142	C	05/25/2019	10:45	-132.602	42.833	0	924.40	0	3.5830	0	36.0710	8	28.690	0	915.042	0	10.2	4	3.2	4	-1E+10	1	-1E+10	1	-1E+10	1	-1E+10	1	-1E+10	1	-1E+10	1
4901784	142	C	05/25/2019	10:45	-132.602	42.833	0	929.40	0	3.5760	0	36.0740	8	28.693	0	919.980	0	10.2	4	3.2	4	-1E+10	1	-1E+10	1	-1E+10	1	-1E+10	1	-1E+10	1	-1E+10	1
4901784	142	C	05/25/2019	10:45	-132.602	42.833	0	934.30	0	3.5690	0	36.0780	8	28.697	0	924.819	0	10.2	4	3.2	4	-1E+10	1	-1E+10	1	-1E+10	1	-1E+10	1	-1E+10	1	-1E+10	1
4901784	142	C	05/25/2019	10:45	-132.602	42.833	0	939.40	0	3.5590	0	36.0820	8	28.701	0	929.856	0	10.2	4	3.2	4	-1E+10	1	-1E+10	1	-1E+10	1	-1E+10	1	-1E+10	1	-1E+10	1
4901784	142	C	05/25/2019	10:45	-132.602	42.833	0	944.50	0	3.5540	0	36.0850	8	28.704	0	934.893	0	10.2	4	3.2	4	-1E+10	1	-1E+10	1	-1E+10	1	-1E+10	1	-1E+10	1	-1E+10	1
4901784	142	C	05/25/2019	10:45	-132.602	42.833	0	949.50	0	3.5470	0	36.0870	8	28.706	0	939.831	0	10.2	4	3.2	4	-1E+10	1	-1E+10	1	-1E+10	1	-1E+10	1	-1E+10	1	-1E+10	1
4901784	142	C	05/25/2019	10:45	-132.602	42.833	0	954.60	0	3.5370	0	36.0900	8	28.710	0	944.868	0	10.2	4	3.2	4	-1E+10	1	-1E+10	1	-1E+10	1	-1E+10	1	-1E+10	1	-1E+10	1
4901784	142	C	05/25/2019	10:45	-132.602	42.833	0	959.70	0	3.5300	0	36.0950	8	28.715	0	949.904	0	10.3	4	3.3	4	-1E+10	1	-1E+10	1	-1E+10	1	-1E+10	1	-1E+10	1	-1E+10	1
4901784	142	C	05/25/2019	10:45	-132.602	42.833	0	964.80	0	3.5230	0	36.0980	8	28.718	0	954.940	0	10.3	4	3.3	4	-1E+10	1	-1E+10	1	-1E+10	1	-1E+10	1	-1E+10	1	-1E+10	1
4901784	142	C	05/25/2019	10:45	-132.602	42.833	0	970.00	0	3.5160	0	36.1010	8	28.721	0	960.075	0	10.4	4	3.3	4	-1E+10	1	-1E+10	1	-1E+10	1	-1E+10	1	-1E+10	1	-1E+10	1
4901784	142	C	05/25/2019	10:45	-132.602	42.833	0	975.00	0	3.5080	0	36.1040	8	28.724	0	965.013	0	10.4	4	3.3	4	-1E+10	1	-1E+10	1	-1E+10	1	-1E+10	1	-1E+10	1	-1E+10	1
4901784	142	C	05/25/2019	10:45	-132.602	42.833	0	980.10	0	3.4850	0	36.1100	8	28.731	0	970.049	0	10.5	4	3.3	4	-1E+10	1	-1E+10	1	-1E+10	1	-1E+10	1	-1E+10	1	-1E+10	1
4901784	142	C	05/25/2019	10:45	-132.602	42.833	0	985.30	0	3.4710	0	36.1120	8	28.734	0	975.183	0	10.5	4	3.3	4	-1E+10	1	-1E+10	1	-1E+10	1	-1E+10	1	-1E+10	1	-1E+10	1
4901784	142	C	05/25/2019	10:45	-132.602	42.833	0	990.50	0	3.4550	0	36.1170	8	28.740	0	980.318	0	10.6	4	3.3	4	-1E+10	1	-1E+10	1	-1E+10	1	-1E+10	1	-1E+10	1	-1E+10	1
4901784	142	C	05/25/2019	10:45	-132.602	42.833	0	995.70	0	3.4530	0	36.1180	8	28.741	0	985.452	0	10.6	4	3.4	4	-1E+10	1	-1E+10	1	-1E+10	1	-1E+10	1	-1E+10	1	-1E+10	1
4901784	142	C	05/25/2019	10:45	-132.602	42.833	0	1000.10	0	3.4490	0	36.1200	8	28.743	0	989.796	0	10.7	4	3.4	4	-1E+10	1	-1E+10	1	-1E+10	1	-1E+10	1	-1E+10	1	-1E+10	1
4901784	142	C	05/25/2019	10:45	-132.602	42.833	0	1004.50	0	3.4410	0	36.1220	8	28.745	0	994.141	0	10.7	4	3.4	4	-1E+10	1	-1E+10	1	-1E+10	1	-1E+10	1	-1E+10	1	-1E+10	1
4901784	142	C	05/25/2019	10:45	-132.602	42.833	0	1009.80	0	3.4280	0	36.1270	8	28.751	0	999.373	0	10.8	4	3.4	4	-1E+10	1	-1E+10	1	-1E+10	1	-1E+10	1	-1E+10	1	-1E+10	1
4901784	142	C	05/25/2019	10:45	-132.602	42.833	0	1015.10	0	3.4220	0	36.1280	8	28.752	0	1004.606	0	10.9	4	3.4	4	-1E+10	1	-1E+10	1	-1E+10	1	-1E+10	1	-1E+10	1	-1E+10	1
4901784	142	C	05/25/2019	10:45	-132.602	42.833	0	1020.30	0	3.4110	0	36.1310	8	28.756	0	1009.740	0	10.9	4	3.5	4	-1E+10	1	-1E+10	1	-1E+10	1	-1E+10	1	-1E+10	1	-1E+10	1
4901784	142	C	05/25/2019	10:45	-132.602	42.833	0	1025.60	0	3.3990	0	36.1340	8	28.759	0	1014.972	0	11.0	4	3.5	4	-1E+10	1	-1E+10	1	-1E+10	1	-1E+10	1	-1E+10	1	-1E+10	1
4901784	142	C	05/25/2019	10:45	-132.602	42.833	0	1030.00	0	3.3890	0	36.1360	8	28.762	0	1019.316	0	11.1	4	3.5	4	-1E+10	1	-1E+10	1	-1E+10	1	-1E+10	1	-1E+10	1	-1E+10	1
4901784	142	C	05/25/2019	10:45	-132.602	42.833	0	1034.40	0	3.3740	0	36.1390	8	28.766	0	1023.659	0	11.2	4	3.5	4	-1E+10	1	-1E+10	1	-1E+10	1	-1E+10	1	-1E+10	1	-1E+10	1
4901784	142	C	05/25/2019	10:45	-132.602	42.833	0	1039.70	0	3.3600	0	36.1420	8	28.770	0	1028.891	0	11.3	4	3.6	4	-1E+10	1	-1E+10	1	-1E+10	1	-1E+10	1	-1E+10	1	-1E+10	1
4901784	142	C	05/25/2019	10:45	-132.602	42.833	0	1045.10	0	3.3400	0	36.1460	8	28.775	0	1034.222	0	11.4	4	3.6	4	-1E+10	1	-1E+10	1	-1E+10	1	-1E+10	1	-1E+10	1	-1E+10	1
4901784	142	C	05/25/2019	10:45	-132.602	42.833	0	1050.50	0	3.3290	0	36.1490	8	28.778	0	1039.552	0	11.5	4	3.6	4	-1E+10	1	-1E+10	1	-1E+10	1	-1E+10	1	-1E+10	1	-1E+10	1
4901784	142	C	05/25/2019	10:45	-132.602	42.833	0	1055.00	0	3.3180	0	36.1510	8	28.781	0	1043.994	0	11.5	4	3.6	4	-1E+10	1	-1E+10	1	-1E+10	1	-1E+10	1	-1E+10	1	-1E+10	1
4901784	142	C	05/25/2019	10:45	-132.602	42.833	0	1059.70	0	3.3080	0	36.1530	8	28.784	0	1048.633	0	11.6	4	3.7	4	-1E+10	1	-1E+10	1	-1E+10	1	-1E+10	1	-1E+10	1	-1E+10	1
4901784	142	C	05/25/2019	10:45	-132.602	42.833	0	1065.20	0	3.2980	0	36.1560	8	28.787	0	1054.062	0	11.7	4	3.7	4	-1E+10	1	-1E+10	1	-1E+10	1	-1E+10	1	-1E+10	1	-1E+10	1
4901784	142	C	05/25/2019	10:45	-132.602	42.833	0	1070.60	0	3.2860	0	36.1590	8	28.791	0	1059.392	0	11.8	4	3.7	4	-1E+10	1	-1E+10	1	-1E+10	1	-1E+10	1	-1E+10	1	-1E+10	1
4901784	142	C	05/25/2019	10:45	-132.602	42.833	0	1075.40	0	3.2740	0	36.1610	8	28.794	0	1064.130	0	11.9	4	3.7	4	-1E+10	1	-1E+10	1	-1E+10	1	-1E+10	1	-1E+10	1	-1E+10	1
4901784	142	C	05/25/2019	10:45	-132.602	42.833	0	1080.40	0	3.2640	0	36.1640	8	28.797	0	1069.064	0	12.0	4	3.8	4	-1E+10	1	-1E+10	1	-1E+10	1	-1E+10	1	-1E+10	1	-1E+10	1
4901784	142	C	05/25/2019	10:45	-132.602	42.833	0	1085.50	0	3.2590	0	36.1650	8	28.798	0	1074.098	0	12.0	4	3.8	4	-1E+10	1	-1E+10	1	-1E+10	1	-1E+10	1	-1E+10	1	-1E+10	1
4901784	142	C	05/25/2019	10:45	-132.602	42.833	0	1090.50	0	3.2490	0	36.1670	8	28.801	0	1079.033	0	12.1	4	3.8	4	-1E+10	1	-1E+10	1	-1E+10	1	-1E+10	1	-1E+10	1	-1E+10	1
4901784	142	C	05/25/2019	10:45	-132.602	42.833	0	1095.70	0	3.2400	0	36.1690	8	28.803	0	1084.164	0	12.2	4	3.8	4	-1E+10	1	-1E+10	1	-1E+10	1	-1E+10	1	-1E+10	1	-1E+10	1
4901784	142	C	05/25/2019	10:45	-132.602	42.833	0	1099.90	0	3.2370	0	36.1710	8	28.805	0	1088.309	0	12.3	4	3.9	4	-1E+10	1	-1E+10	1	-1E+10	1	-1E+10	1	-1E+10	1	-1E+10	1
4901784	142	C	05/25/2019	10:45	-132.602	42.833	0	1104.20	0	3.2280	0	36.1730	8	28.808	0	1092.553	0	12.4	4	3.9	4	-1E+10	1	-1E+10	1	-1E+10	1	-1E+10	1	-1E+10	1	-1E+10	1
4901784	142	C	05/25/2019	10:45	-132.602	42.833	0	1109.30	0	3.2190	0	36.1740	8	28.810	0	1097.586	0	12.4	4	3.9	4	-1E+10	1	-1E+10	1	-1E+10	1	-1E+10	1	-1E+10	1	-1E+10	1
4901784	142	C	05/25/2019	10:45	-132.602	42.833	0	1114.30	0	3.2050	0	36.1760	8	28.813	0	1102.520	0	12.5	4	3.9	4	-1E+10	1	-1E+10	1	-1E+10	1	-1E+10	1	-1E+10	1	-1E+10	1
4901784	142	C	05/25/2019	10:45	-132.602	42.833	0	1119.30	0	3.1950	0	36.1790	8	28.816	0	1107.454	0	12.5	4	3.9	4	-1E+10	1	-1E+10	1	-1E+10	1	-1E+10	1	-1E+10	1	-1E+10	1
4901784	142	C	05/25/2019	10:45	-132.602	42.833	0	1124.60	0	3.1900	0	36.1800	8	28.817	0	1112.684	0	12.6	4	3.9	4	-1E+10	1	-1E+10	1	-1E+10	1	-1E+10	1	-1E+10	1	-1E+10	1
4901784	142	C	05/25/2019	10:45	-132.602	42.833	0	1130.00	0	3.1850	0	36.1810	8	28.819	0	1118.012	0	12.6	4	4.0	4	-1E+10	1	-1E+10	1	-1E+10	1	-1E+10	1	-1E+10	1	-1E+10	1
4901784	142	C	05/25/2019	10:45	-132.602	42.833	0	1135.50	0	3.1840	0	36.1810	8	28.819	0	1123.439	0	12.6	4	4.0	4	-1E+10	1	-1E+10	1	-1E+10	1	-1E+10	1	-1E+10	1	-1E+10	1
4901784	142	C	05/25/2019	10:45	-132.602	42.833	0	1140.20	0	3.1760	0	36.1830	8	28.821	0	1128.076	0	12.7	4	4.0	4	-1E+10	1	-1E+10	1	-1E+10	1	-1E+10	1	-1E+10	1	-1E+10	1
4901784	142	C	05/25/2019	10:45	-132.602	42.833	0	1145.00	0	3.1580	0	36.1860	8	28.825	0	1132.812	0	12.9	4	4.0	4	-1E+10	1	-1E+10	1	-1E+10	1	-1E+10	1	-1E+10	1	-1E+10	1
4901784	142	C	05/25/2019	10:45	-132.602	42.833	0	1149.80	0	3.1550	0	36.1880	8	28.827	0	1137.548	0	13.1	4	4.1	4	-1E+10	1	-1E+10	1	-1E+10	1	-1E+10	1	-1E+10	1	-1E+10	1
4901784	142	C	05/25/2019	10:45	-132.602	42.833	0	1154.70	0	3.1400	0	36.1900	8	28.830	0	1142.383	0	13.1	4	4.1	4	-1E+10	1	-1E+10	1	-1E+10	1	-1E+10	1	-1E+10	1	-1E+10	1
4901784	142	C	05/25/2019	10:45	-132.602	42.833	0	1159.60	0	3.1230	0	36.1930	8	28.834	0	1147.217	0	13.1	4	4.1	4	-1E+10	1	-1E+10	1	-1E+10	1	-1E+10	1	-1E+10	1	-1E+10	1
4901784	142	C	05/25/2019	10:45	-132.602	42.833	0	1164.60	0	3.1130	0	36.1940	8	28.836	0	1152.150	0	13.1	4	4.1	4	-1E+10	1	-1E+10	1	-1E+10	1	-1E+10	1	-1E+10	1	-1E+10	1
4901784	142	C	05/25/2019	10:45	-132.602	42.833	0	1169.60	0	3.1070	0	36.1950	8	28.838	0	1157.083	0	13.2	4	4.1	4	-1E+10	1	-1E+10	1	-1E+10	1	-1E+10	1	-1E+10	1	-1E+10	1
4901784	142	C	05/25/2019	10:45	-132.602	42.833	0	1174.60	0	3.0980	0	36.1970	8	28.840	0	1162.016	0	13.3	4	4.2	4	-1E+10	1	-1E+10	1	-1E+10	1	-1E+10	1	-1E+10	1	-1E+10	1
4901784	142	C	05/25/2019	10:45	-132.602	42.833	0	1179.70	0	3.0930	0	36.1990	8	28.842	0	1167.047	0	13.4	4	4.2	4	-1E+10	1	-1E+10	1	-1E+10	1	-1E+10	1	-1E+10	1	-1E+10	1
4901784	142	C	05/25/2019	10:45	-132.602	42.833	0	1184.70	0	3.0820	0	36.2010	8	28.845	0	1171.979	0	13.6	4	4.3	4	-1E+10	1	-1E+10	1	-1E+10	1	-1E+10	1	-1E+10	1	-1E+10	1
4901784	142	C	05/25/2019	10:45	-132.602	42.833	0	1189.70	0	3.0750	0	36.2030	8	28.847	0	1176.912	0	13.7	4	4.3	4	-1E+10	1	-1E+10	1	-1E+10	1	-1E+10	1	-1E+10	1	-1E+10	1
4901784	142	C	05/25/2019	10:45	-132.602	42.833	0	1194.80	0	3.0650	0	36.2050	8	28.850	0	1181.942	0	13.9	4	4.4	4	-1E+10	1	-1E+10	1	-1E+10	1	-1E+10	1	-1E+10	1	-1E+10	1
4901784	142	C	05/25/2019	10:45	-132.602	42.833	0	1200.10	0	3.0560	0	36.2070	8	28.852	0	1187.170	0	14.2	4	4.4	4	-1E+10	1	-1E+10	1	-1E+10	1	-1E+10	1	-1E+10	1	-1E+10	1
4901784	142	C	05/25/2019	10:45	-132.602	42.833	0	1205.40	0	3.0490	0	36.2100	8	28.855	0	1192.398	0	14.4	4	4.5	4	-1E+10	1	-1E+10	1	-1E+10	1	-1E+10	1	-1E+10	1	-1E+10	1
4901784	142	C	05/25/2019	10:45	-132.602	42.833	0	1210.70	0	3.0390	0	36.2120	8	28.858	0	1197.626	0	14.6	4	4.6	4	-1E+10	1	-1E+10	1	-1E+10	1	-1E+10	1	-1E+10	1	-1E+10	1
4901784	142	C	05/25/2019	10:45	-132.602	42.833	0	1215.10	0	3.0250	0	36.2150	8	28.862	0	1201.966	0	14.7	4	4.6	4	-1E+10	1	-1E+10	1	-1E+10	1	-1E+10	1	-1E+10	1	-1E+10	1
4901784	142	C	05/25/2019	10:45	-132.602	42.833	0	1219.50	0	3.0230	0	36.2160	8	28.863	0	1206.306	0	14.7	4	4.6	4	-1E+10	1	-1E+10	1	-1E+10	1	-1E+10	1	-1E+10	1	-1E+10	1
4901784	142	C	05/25/2019	10:45	-132.602	42.833	0	1224.90	0	3.0220	0	36.2170	8	28.864	0	1211.632	0	14.8	4	4.6	4	-1E+10	1	-1E+10	1	-1E+10	1	-1E+10	1	-1E+10	1	-1E+10	1
4901784	142	C	05/25/2019	10:45	-132.602	42.833	0	1230.30	0	3.0120	0	36.2180	8	28.865	0	1216.958	0	15.0	4	4.7	4	-1E+10	1	-1E+10	1	-1E+10	1	-1E+10	1	-1E+10	1	-1E+10	1
4901784	142	C	05/25/2019	10:45	-132.602	42.833	0	1234.80	0	2.9990	0	36.2210	8	28.869	0	1221.396	0	15.1	4	4.7	4	-1E+10	1	-1E+10	1	-1E+10	1	-1E+10	1	-1E+10	1	-1E+10	1
4901784	142	C	05/25/2019	10:45	-132.602	42.833	0	1239.40	0	2.9900	0	36.2220	8	28.871	0	1225.933	0	15.3	4	4.8	4	-1E+10	1	-1E+10	1	-1E+10	1	-1E+10	1	-1E+10	1	-1E+10	1
4901784	142	C	05/25/2019	10:45	-132.602	42.833	0	1244.80	0	2.9800	0	36.2240	8	28.873	0	1231.258	0	15.5	4	4.9	4	-1E+10	1	-1E+10	1	-1E+10	1	-1E+10	1	-1E+10	1	-1E+10	1
4901784	142	C	05/25/2019	10:45	-132.602	42.833	0	1250.00	0	2.9680	0	36.2270	8	28.877	0	1236.386	0	15.7	4	4.9	4	-1E+10	1	-1E+10	1	-1E+10	1	-1E+10	1	-1E+10	1	-1E+10	1
4901784	142	C	05/25/2019	10:45	-132.602	42.833	0	1255.10	0	2.9620	0	36.2290	8	28.879	0	1241.416	0	15.7	4	4.9	4	-1E+10	1	-1E+10	1	-1E+10	1	-1E+10	1	-1E+10	1	-1E+10	1
4901784	142	C	05/25/2019	10:45	-132.602	42.833	0	1260.10	0	2.9600	0	36.2290	8	28.879	0	1246.346	0	15.9	4	5.0	4	-1E+10	1	-1E+10	1	-1E+10	1	-1E+10	1	-1E+10	1	-1E+10	1
4901784	142	C	05/25/2019	10:45	-132.602	42.833	0	1265.20	0	2.9500	0	36.2310	8	28.882	0	1251.375	0	16.1	4	5.0	4	-1E+10	1	-1E+10	1	-1E+10	1	-1E+10	1	-1E+10	1	-1E+10	1
4901784	142	C	05/25/2019	10:45	-132.602	42.833	0	1270.30	0	2.9390	0	36.2340	8	28.885	0	1256.405	0	16.3	4	5.1	4	-1E+10	1	-1E+10	1	-1E+10	1	-1E+10	1	-1E+10	1	-1E+10	1
4901784	142	C	05/25/2019	10:45	-132.602	42.833	0	1275.50	0	2.9300	0	36.2350	8	28.887	0	1261.532	0	16.5	4	5.2	4	-1E+10	1	-1E+10	1	-1E+10	1	-1E+10	1	-1E+10	1	-1E+10	1
4901784	142	C	05/25/2019	10:45	-132.602	42.833	0	1280.70	0	2.9150	0	36.2380	8	28.891	0	1266.660	0	16.7	4	5.2	4	-1E+10	1	-1E+10	1	-1E+10	1	-1E+10	1	-1E+10	1	-1E+10	1
4901784	142	C	05/25/2019	10:45	-132.602	42.833	0	1285.10	0	2.9040	0	36.2400	8	28.894	0	1270.998	0	16.8	4	5.2	4	-1E+10	1	-1E+10	1	-1E+10	1	-1E+10	1	-1E+10	1	-1E+10	1
4901784	142	C	05/25/2019	10:45	-132.602	42.833	0	1289.50	0	2.8980	0	36.2400	8	28.894	0	1275.336	0	17.1	4	5.3	4	-1E+10	1	-1E+10	1	-1E+10	1	-1E+10	1	-1E+10	1	-1E+10	1
4901784	142	C	05/25/2019	10:45	-132.602	42.833	0	1294.80	0	2.8800	0	36.2440	8	28.899	0	1280.562	0	17.5	4	5.5	4	-1E+10	1	-1E+10	1	-1E+10	1	-1E+10	1	-1E+10	1	-1E+10	1
4901784	142	C	05/25/2019	10:45	-132.602	42.833	0	1300.10	0	2.8680	0	36.2460	8	28.902	0	1285.788	0	17.8	4	5.6	4	-1E+10	1	-1E+10	1	-1E+10	1	-1E+10	1	-1E+10	1	-1E+10	1
4901784	142	C	05/25/2019	10:45	-132.602	42.833	0	1305.40	0	2.8440	0	36.2500	8	28.907	0	1291.013	0	18.1	4	5.7	4	-1E+10	1	-1E+10	1	-1E+10	1	-1E+10	1	-1E+10	1	-1E+10	1
4901784	142	C	05/25/2019	10:45	-132.602	42.833	0	1309.90	0	2.8350	0	36.2520	8	28.910	0	1295.450	0	18.4	4	5.7	4	-1E+10	1	-1E+10	1	-1E+10	1	-1E+10	1	-1E+10	1	-1E+10	1
4901784	142	C	05/25/2019	10:45	-132.602	42.833	0	1314.40	0	2.8240	0	36.2540	8	28.912	0	1299.886	0	18.5	4	5.8	4	-1E+10	1	-1E+10	1	-1E+10	1	-1E+10	1	-1E+10	1	-1E+10	1
4901784	142	C	05/25/2019	10:45	-132.602	42.833	0	1319.80	0	2.8150	0	36.2550	8	28.914	0	1305.210	0	18.7	4	5.8	4	-1E+10	1	-1E+10	1	-1E+10	1	-1E+10	1	-1E+10	1	-1E+10	1
4901784	142	C	05/25/2019	10:45	-132.602	42.833	0	1325.30	0	2.8090	0	36.2570	8	28.916	0	1310.632	0	19.1	4	5.9	4	-1E+10	1	-1E+10	1	-1E+10	1	-1E+10	1	-1E+10	1	-1E+10	1
4901784	142	C	05/25/2019	10:45	-132.602	42.833	0	1330.70	0	2.8030	0	36.2590	8	28.918	0	1315.955	0	19.6	4	6.1	4	-1E+10	1	-1E+10	1	-1E+10	1	-1E+10	1	-1E+10	1	-1E+10	1
4901784	142	C	05/25/2019	10:45	-132.602	42.833	0	1335.20	0	2.7930	0	36.2620	8	28.922	0	1320.391	0	19.8	4	6.2	4	-1E+10	1	-1E+10	1	-1E+10	1	-1E+10	1	-1E+10	1	-1E+10	1
4901784	142	C	05/25/2019	10:45	-132.602	42.833	0	1339.80	0	2.7840	0	36.2630	8	28.923	0	1324.926	0	20.0	4	6.2	4	-1E+10	1	-1E+10	1	-1E+10	1	-1E+10	1	-1E+10	1	-1E+10	1
4901784	142	C	05/25/2019	10:45	-132.602	42.833	0	1345.30	0	2.7740	0	36.2650	8	28.926	0	1330.348	0	20.3	4	6.3	4	-1E+10	1	-1E+10	1	-1E+10	1	-1E+10	1	-1E+10	1	-1E+10	1
4901784	142	C	05/25/2019	10:45	-132.602	42.833	0	1349.90	0	2.7640	0	36.2670	8	28.929	0	1334.882	0	20.5	4	6.4	4	-1E+10	1	-1E+10	1	-1E+10	1	-1E+10	1	-1E+10	1	-1E+10	1
4901784	142	C	05/25/2019	10:45	-132.602	42.833	0	1354.60	0	2.7560	0	36.2680	8	28.930	0	1339.515	0	20.6	4	6.4	4	-1E+10	1	-1E+10	1	-1E+10	1	-1E+10	1	-1E+10	1	-1E+10	1
4901784	142	C	05/25/2019	10:45	-132.602	42.833	0	1360.10	0	2.7490	0	36.2700	8	28.932	0	1344.936	0	20.9	4	6.5	4	-1E+10	1	-1E+10	1	-1E+10	1	-1E+10	1	-1E+10	1	-1E+10	1
4901784	142	C	05/25/2019	10:45	-132.602	42.833	0	1365.70	0	2.7400	0	36.2710	8	28.934	0	1350.455	0	21.2	4	6.6	4	-1E+10	1	-1E+10	1	-1E+10	1	-1E+10	1	-1E+10	1	-1E+10	1
4901784	142	C	05/25/2019	10:45	-132.602	42.833	0	1370.20	0	2.7290	0	36.2740	8	28.937	0	1354.891	0	21.4	4	6.6	4	-1E+10	1	-1E+10	1	-1E+10	1	-1E+10	1	-1E+10	1	-1E+10	1
4901784	142	C	05/25/2019	10:45	-132.602	42.833	0	1374.80	0	2.7240	0	36.2750	8	28.939	0	1359.425	0	21.6	4	6.7	4	-1E+10	1	-1E+10	1	-1E+10	1	-1E+10	1	-1E+10	1	-1E+10	1
4901784	142	C	05/25/2019	10:45	-132.602	42.833	0	1380.30	0	2.7160	0	36.2760	8	28.940	0	1364.845	0	21.8	4	6.8	4	-1E+10	1	-1E+10	1	-1E+10	1	-1E+10	1	-1E+10	1	-1E+10	1
4901784	142	C	05/25/2019	10:45	-132.602	42.833	0	1385.00	0	2.7090	0	36.2780	8	28.943	0	1369.477	0	22.0	4	6.8	4	-1E+10	1	-1E+10	1	-1E+10	1	-1E+10	1	-1E+10	1	-1E+10	1
4901784	142	C	05/25/2019	10:45	-132.602	42.833	0	1389.70	0	2.7040	0	36.2790	8	28.944	0	1374.109	0	22.2	4	6.9	4	-1E+10	1	-1E+10	1	-1E+10	1	-1E+10	1	-1E+10	1	-1E+10	1
4901784	142	C	05/25/2019	10:45	-132.602	42.833	0	1395.40	0	2.6960	0	36.2800	8	28.945	0	1379.727	0	22.5	4	7.0	4	-1E+10	1	-1E+10	1	-1E+10	1	-1E+10	1	-1E+10	1	-1E+10	1
4901784	142	C	05/25/2019	10:45	-132.602	42.833	0	1399.60	0	2.6830	0	36.2820	8	28.948	0	1383.866	0	22.7	4	7.1	4	-1E+10	1	-1E+10	1	-1E+10	1	-1E+10	1	-1E+10	1	-1E+10	1
4901784	142	C	05/25/2019	10:45	-132.602	42.833	0	1404.50	0	2.6750	0	36.2850	8	28.951	0	1388.695	0	23.0	4	7.1	4	-1E+10	1	-1E+10	1	-1E+10	1	-1E+10	1	-1E+10	1	-1E+10	1
4901784	142	C	05/25/2019	10:45	-132.602	42.833	0	1409.40	0	2.6690	0	36.2850	8	28.952	0	1393.523	0	23.3	4	7.2	4	-1E+10	1	-1E+10	1	-1E+10	1	-1E+10	1	-1E+10	1	-1E+10	1
4901784	142	C	05/25/2019	10:45	-132.602	42.833	0	1415.00	0	2.6510	0	36.2880	8	28.956	0	1399.042	0	23.9	4	7.4	4	-1E+10	1	-1E+10	1	-1E+10	1	-1E+10	1	-1E+10	1	-1E+10	1
4901784	142	C	05/25/2019	10:45	-132.602	42.833	0	1420.80	0	2.6300	0	36.2920	8	28.961	0	1404.757	0	24.3	4	7.5	4	-1E+10	1	-1E+10	1	-1E+10	1	-1E+10	1	-1E+10	1	-1E+10	1
4901784	142	C	05/25/2019	10:45	-132.602	42.833	0	1425.70	0	2.6190	0	36.2940	8	28.964	0	1409.585	0	24.7	4	7.7	4	-1E+10	1	-1E+10	1	-1E+10	1	-1E+10	1	-1E+10	1	-1E+10	1
4901784	142	C	05/25/2019	10:45	-132.602	42.833	0	1430.70	0	2.6080	0	36.2950	8	28.966	0	1414.512	0	25.0	4	7.8	4	-1E+10	1	-1E+10	1	-1E+10	1	-1E+10	1	-1E+10	1	-1E+10	1
4901784	142	C	05/25/2019	10:45	-132.602	42.833	0	1435.60	0	2.5980	0	36.2970	8	28.968	0	1419.340	0	25.3	4	7.9	4	-1E+10	1	-1E+10	1	-1E+10	1	-1E+10	1	-1E+10	1	-1E+10	1
4901784	142	C	05/25/2019	10:45	-132.602	42.833	0	1440.60	0	2.5870	0	36.2990	8	28.971	0	1424.267	0	25.7	4	8.0	4	-1E+10	1	-1E+10	1	-1E+10	1	-1E+10	1	-1E+10	1	-1E+10	1
4901784	142	C	05/25/2019	10:45	-132.602	42.833	0	1445.50	0	2.5750	0	36.3010	8	28.974	0	1429.095	0	26.1	4	8.1	4	-1E+10	1	-1E+10	1	-1E+10	1	-1E+10	1	-1E+10	1	-1E+10	1
4901784	142	C	05/25/2019	10:45	-132.602	42.833	0	1450.50	0	2.5610	0	36.3040	8	28.977	0	1434.021	0	26.4	4	8.2	4	-1E+10	1	-1E+10	1	-1E+10	1	-1E+10	1	-1E+10	1	-1E+10	1
4901784	142	C	05/25/2019	10:45	-132.602	42.833	0	1455.50	0	2.5560	0	36.3040	8	28.978	0	1438.947	0	26.7	4	8.3	4	-1E+10	1	-1E+10	1	-1E+10	1	-1E+10	1	-1E+10	1	-1E+10	1
4901784	142	C	05/25/2019	10:45	-132.602	42.833	0	1460.50	0	2.5420	0	36.3070	8	28.981	0	1443.873	0	27.1	4	8.4	4	-1E+10	1	-1E+10	1	-1E+10	1	-1E+10	1	-1E+10	1	-1E+10	1
4901784	142	C	05/25/2019	10:45	-132.602	42.833	0	1465.60	0	2.5330	0	36.3080	8	28.983	0	1448.897	0	27.5	4	8.5	4	-1E+10	1	-1E+10	1	-1E+10	1	-1E+10	1	-1E+10	1	-1E+10	1
4901784	142	C	05/25/2019	10:45	-132.602	42.833	0	1470.70	0	2.5200	0	36.3110	8	28.987	0	1453.922	0	27.9	4	8.6	4	-1E+10	1	-1E+10	1	-1E+10	1	-1E+10	1	-1E+10	1	-1E+10	1
4901784	142	C	05/25/2019	10:45	-132.602	42.833	0	1475.80	0	2.5130	0	36.3120	8	28.988	0	1458.946	0	28.2	4	8.7	4	-1E+10	1	-1E+10	1	-1E+10	1	-1E+10	1	-1E+10	1	-1E+10	1
4901784	142	C	05/25/2019	10:45	-132.602	42.833	0	1480.10	0	2.5080	0	36.3130	8	28.989	0	1463.182	0	28.4	4	8.8	4	-1E+10	1	-1E+10	1	-1E+10	1	-1E+10	1	-1E+10	1	-1E+10	1
4901784	142	C	05/25/2019	10:45	-132.602	42.833	0	1484.40	0	2.5010	0	36.3140	8	28.991	0	1467.418	0	28.8	4	8.9	4	-1E+10	1	-1E+10	1	-1E+10	1	-1E+10	1	-1E+10	1	-1E+10	1
4901784	142	C	05/25/2019	10:45	-132.602	42.833	0	1489.60	0	2.4920	0	36.3160	8	28.993	0	1472.540	0	29.1	4	9.0	4	-1E+10	1	-1E+10	1	-1E+10	1	-1E+10	1	-1E+10	1	-1E+10	1
4901784	142	C	05/25/2019	10:45	-132.602	42.833	0	1494.80	0	2.4820	0	36.3180	8	28.996	0	1477.663	0	29.5	4	9.1	4	-1E+10	1	-1E+10	1	-1E+10	1	-1E+10	1	-1E+10	1	-1E+10	1
4901784	142	C	05/25/2019	10:45	-132.602	42.833	0	1500.00	0	2.4700	0	36.3200	8	28.998	0	1482.785	0	29.9	4	9.2	4	-1E+10	1	-1E+10	1	-1E+10	1	-1E+10	1	-1E+10	1	-1E+10	1
4901784	142	C	05/25/2019	10:45	-132.602	42.833	0	1505.20	0	2.4600	0	36.3220	8	29.001	0	1487.907	0	30.2	4	9.3	4	-1E+10	1	-1E+10	1	-1E+10	1	-1E+10	1	-1E+10	1	-1E+10	1
4901784	142	C	05/25/2019	10:45	-132.602	42.833	0	1510.60	0	2.4520	0	36.3230	8	29.002	0	1493.226	0	30.4	4	9.4	4	-1E+10	1	-1E+10	1	-1E+10	1	-1E+10	1	-1E+10	1	-1E+10	1
4901784	142	C	05/25/2019	10:45	-132.602	42.833	0	1515.00	0	2.4460	0	36.3240	8	29.004	0	1497.560	0	30.6	4	9.5	4	-1E+10	1	-1E+10	1	-1E+10	1	-1E+10	1	-1E+10	1	-1E+10	1
4901784	142	C	05/25/2019	10:45	-132.602	42.833	0	1519.40	0	2.4420	0	36.3250	8	29.005	0	1501.893	0	30.9	4	9.5	4	-1E+10	1	-1E+10	1	-1E+10	1	-1E+10	1	-1E+10	1	-1E+10	1
4901784	142	C	05/25/2019	10:45	-132.602	42.833	0	1524.70	0	2.4300	0	36.3270	8	29.008	0	1507.113	0	31.3	4	9.7	4	-1E+10	1	-1E+10	1	-1E+10	1	-1E+10	1	-1E+10	1	-1E+10	1
4901784	142	C	05/25/2019	10:45	-132.602	42.833	0	1530.00	0	2.4230	0	36.3290	8	29.010	0	1512.333	0	31.5	4	9.7	4	-1E+10	1	-1E+10	1	-1E+10	1	-1E+10	1	-1E+10	1	-1E+10	1
4901784	142	C	05/25/2019	10:45	-132.602	42.833	0	1535.40	0	2.4200	0	36.3290	8	29.010	0	1517.652	0	31.7	4	9.8	4	-1E+10	1	-1E+10	1	-1E+10	1	-1E+10	1	-1E+10	1	-1E+10	1
4901784	142	C	05/25/2019	10:45	-132.602	42.833	0	1539.80	0	2.4160	0	36.3300	8	29.011	0	1521.985	0	31.8	4	9.8	4	-1E+10	1	-1E+10	1	-1E+10	1	-1E+10	1	-1E+10	1	-1E+10	1
4901784	142	C	05/25/2019	10:45	-132.602	42.833	0	1544.30	0	2.4150	0	36.3310	8	29.012	0	1526.417	0	31.9	4	9.9	4	-1E+10	1	-1E+10	1	-1E+10	1	-1E+10	1	-1E+10	1	-1E+10	1
4901784	142	C	05/25/2019	10:45	-132.602	42.833	0	1549.70	0	2.4120	0	36.3310	8	29.013	0	1531.734	0	32.1	4	9.9	4	-1E+10	1	-1E+10	1	-1E+10	1	-1E+10	1	-1E+10	1	-1E+10	1
4901784	142	C	05/25/2019	10:45	-132.602	42.833	0	1555.10	0	2.4050	0	36.3320	8	29.014	0	1537.052	0	32.6	4	10.1	4	-1E+10	1	-1E+10	1	-1E+10	1	-1E+10	1	-1E+10	1	-1E+10	1
4901784	142	C	05/25/2019	10:45	-132.602	42.833	0	1560.60	0	2.3850	0	36.3360	8	29.019	0	1542.468	0	33.1	4	10.2	4	-1E+10	1	-1E+10	1	-1E+10	1	-1E+10	1	-1E+10	1	-1E+10	1
4901784	142	C	05/25/2019	10:45	-132.602	42.833	0	1565.20	0	2.3790	0	36.3370	8	29.020	0	1546.998	0	33.3	4	10.3	4	-1E+10	1	-1E+10	1	-1E+10	1	-1E+10	1	-1E+10	1	-1E+10	1
4901784	142	C	05/25/2019	10:45	-132.602	42.833	0	1569.80	0	2.3750	0	36.3380	8	29.022	0	1551.528	0	33.5	4	10.3	4	-1E+10	1	-1E+10	1	-1E+10	1	-1E+10	1	-1E+10	1	-1E+10	1
4901784	142	C	05/25/2019	10:45	-132.602	42.833	0	1575.30	0	2.3700	0	36.3390	8	29.023	0	1556.944	0	33.8	4	10.4	4	-1E+10	1	-1E+10	1	-1E+10	1	-1E+10	1	-1E+10	1	-1E+10	1
4901784	142	C	05/25/2019	10:45	-132.602	42.833	0	1579.90	0	2.3620	0	36.3400	8	29.024	0	1561.473	0	34.0	4	10.5	4	-1E+10	1	-1E+10	1	-1E+10	1	-1E+10	1	-1E+10	1	-1E+10	1
4901784	142	C	05/25/2019	10:45	-132.602	42.833	0	1584.50	0	2.3570	0	36.3410	8	29.026	0	1566.002	0	34.3	4	10.6	4	-1E+10	1	-1E+10	1	-1E+10	1	-1E+10	1	-1E+10	1	-1E+10	1
4901784	142	C	05/25/2019	10:45	-132.602	42.833	0	1590.00	0	2.3470	0	36.3430	8	29.028	0	1571.418	0	34.6	4	10.7	4	-1E+10	1	-1E+10	1	-1E+10	1	-1E+10	1	-1E+10	1	-1E+10	1
4901784	142	C	05/25/2019	10:45	-132.602	42.833	0	1595.10	0	2.3380	0	36.3440	8	29.030	0	1576.439	0	34.9	4	10.7	4	-1E+10	1	-1E+10	1	-1E+10	1	-1E+10	1	-1E+10	1	-1E+10	1
4901784	142	C	05/25/2019	10:45	-132.602	42.833	0	1599.40	0	2.3300	0	36.3460	8	29.032	0	1580.673	0	35.1	4	10.8	4	-1E+10	1	-1E+10	1	-1E+10	1	-1E+10	1	-1E+10	1	-1E+10	1
4901784	142	C	05/25/2019	10:45	-132.602	42.833	0	1605.00	0	2.3210	0	36.3480	8	29.035	0	1586.186	0	35.4	4	10.9	4	-1E+10	1	-1E+10	1	-1E+10	1	-1E+10	1	-1E+10	1	-1E+10	1
4901784	142	C	05/25/2019	10:45	-132.602	42.833	0	1610.70	0	2.3130	0	36.3490	8	29.036	0	1591.798	0	35.7	4	11.0	4	-1E+10	1	-1E+10	1	-1E+10	1	-1E+10	1	-1E+10	1	-1E+10	1
4901784	142	C	05/25/2019	10:45	-132.602	42.833	0	1615.60	0	2.3100	0	36.3500	8	29.037	0	1596.622	0	35.9	4	11.1	4	-1E+10	1	-1E+10	1	-1E+10	1	-1E+10	1	-1E+10	1	-1E+10	1
4901784	142	C	05/25/2019	10:45	-132.602	42.833	0	1620.60	0	2.3020	0	36.3510	8	29.039	0	1601.544	0	36.3	4	11.2	4	-1E+10	1	-1E+10	1	-1E+10	1	-1E+10	1	-1E+10	1	-1E+10	1
4901784	142	C	05/25/2019	10:45	-132.602	42.833	0	1625.60	0	2.2950	0	36.3530	8	29.041	0	1606.467	0	36.4	4	11.2	4	-1E+10	1	-1E+10	1	-1E+10	1	-1E+10	1	-1E+10	1	-1E+10	1
4901784	142	C	05/25/2019	10:45	-132.602	42.833	0	1630.60	0	2.2910	0	36.3540	8	29.042	0	1611.389	0	36.5	4	11.2	4	-1E+10	1	-1E+10	1	-1E+10	1	-1E+10	1	-1E+10	1	-1E+10	1
4901784	142	C	05/25/2019	10:45	-132.602	42.833	0	1635.50	0	2.2850	0	36.3550	8	29.043	0	1616.212	0	36.6	4	11.3	4	-1E+10	1	-1E+10	1	-1E+10	1	-1E+10	1	-1E+10	1	-1E+10	1
4901784	142	C	05/25/2019	10:45	-132.602	42.833	0	1640.50	0	2.2770	0	36.3560	8	29.045	0	1621.134	0	37.1	4	11.4	4	-1E+10	1	-1E+10	1	-1E+10	1	-1E+10	1	-1E+10	1	-1E+10	1
4901784	142	C	05/25/2019	10:45	-132.602	42.833	0	1645.40	0	2.2700	0	36.3580	8	29.047	0	1625.958	0	37.4	4	11.5	4	-1E+10	1	-1E+10	1	-1E+10	1	-1E+10	1	-1E+10	1	-1E+10	1
4901784	142	C	05/25/2019	10:45	-132.602	42.833	0	1650.40	0	2.2640	0	36.3590	8	29.049	0	1630.879	0	37.5	4	11.5	4	-1E+10	1	-1E+10	1	-1E+10	1	-1E+10	1	-1E+10	1	-1E+10	1
4901784	142	C	05/25/2019	10:45	-132.602	42.833	0	1655.40	0	2.2580	0	36.3600	8	29.050	0	1635.801	0	37.8	4	11.6	4	-1E+10	1	-1E+10	1	-1E+10	1	-1E+10	1	-1E+10	1	-1E+10	1
4901784	142	C	05/25/2019	10:45	-132.602	42.833	0	1660.50	0	2.2490	0	36.3620	8	29.052	0	1640.821	0	38.0	4	11.7	4	-1E+10	1	-1E+10	1	-1E+10	1	-1E+10	1	-1E+10	1	-1E+10	1
4901784	142	C	05/25/2019	10:45	-132.602	42.833	0	1665.60	0	2.2460	0	36.3630	8	29.053	0	1645.841	0	38.2	4	11.7	4	-1E+10	1	-1E+10	1	-1E+10	1	-1E+10	1	-1E+10	1	-1E+10	1
4901784	142	C	05/25/2019	10:45	-132.602	42.833	0	1670.70	0	2.2430	0	36.3640	8	29.054	0	1650.860	0	38.3	4	11.8	4	-1E+10	1	-1E+10	1	-1E+10	1	-1E+10	1	-1E+10	1	-1E+10	1
4901784	142	C	05/25/2019	10:45	-132.602	42.833	0	1675.80	0	2.2400	0	36.3640	8	29.055	0	1655.880	0	38.6	4	11.9	4	-1E+10	1	-1E+10	1	-1E+10	1	-1E+10	1	-1E+10	1	-1E+10	1
4901784	142	C	05/25/2019	10:45	-132.602	42.833	0	1680.10	0	2.2320	0	36.3660	8	29.057	0	1660.112	0	39.0	4	12.0	4	-1E+10	1	-1E+10	1	-1E+10	1	-1E+10	1	-1E+10	1	-1E+10	1
4901784	142	C	05/25/2019	10:45	-132.602	42.833	0	1684.40	0	2.2260	0	36.3670	8	29.058	0	1664.344	0	39.3	4	12.1	4	-1E+10	1	-1E+10	1	-1E+10	1	-1E+10	1	-1E+10	1	-1E+10	1
4901784	142	C	05/25/2019	10:45	-132.602	42.833	0	1689.50	0	2.2190	0	36.3680	8	29.060	0	1669.363	0	39.8	4	12.2	4	-1E+10	1	-1E+10	1	-1E+10	1	-1E+10	1	-1E+10	1	-1E+10	1
4901784	142	C	05/25/2019	10:45	-132.602	42.833	0	1694.80	0	2.2040	0	36.3710	8	29.064	0	1674.579	0	40.4	4	12.4	4	-1E+10	1	-1E+10	1	-1E+10	1	-1E+10	1	-1E+10	1	-1E+10	1
4901784	142	C	05/25/2019	10:45	-132.602	42.833	0	1700.10	0	2.2000	0	36.3720	8	29.065	0	1679.795	0	40.8	4	12.5	4	-1E+10	1	-1E+10	1	-1E+10	1	-1E+10	1	-1E+10	1	-1E+10	1
4901784	142	C	05/25/2019	10:45	-132.602	42.833	0	1705.40	0	2.1940	0	36.3730	8	29.066	0	1685.010	0	41.2	4	12.7	4	-1E+10	1	-1E+10	1	-1E+10	1	-1E+10	1	-1E+10	1	-1E+10	1
4901784	142	C	05/25/2019	10:45	-132.602	42.833	0	1709.80	0	2.1860	0	36.3750	8	29.068	0	1689.340	0	41.7	4	12.8	4	-1E+10	1	-1E+10	1	-1E+10	1	-1E+10	1	-1E+10	1	-1E+10	1
4901784	142	C	05/25/2019	10:45	-132.602	42.833	0	1714.30	0	2.1800	0	36.3770	8	29.071	0	1693.768	0	41.8	4	12.8	4	-1E+10	1	-1E+10	1	-1E+10	1	-1E+10	1	-1E+10	1	-1E+10	1
4901784	142	C	05/25/2019	10:45	-132.602	42.833	0	1719.60	0	2.1760	0	36.3770	8	29.071	0	1698.984	0	42.1	4	12.9	4	-1E+10	1	-1E+10	1	-1E+10	1	-1E+10	1	-1E+10	1	-1E+10	1
4901784	142	C	05/25/2019	10:45	-132.602	42.833	0	1725.00	0	2.1720	0	36.3780	8	29.072	0	1704.297	0	42.4	4	13.0	4	-1E+10	1	-1E+10	1	-1E+10	1	-1E+10	1	-1E+10	1	-1E+10	1
4901784	142	C	05/25/2019	10:45	-132.602	42.833	0	1730.40	0	2.1670	0	36.3800	8	29.074	0	1709.611	0	42.8	4	13.1	4	-1E+10	1	-1E+10	1	-1E+10	1	-1E+10	1	-1E+10	1	-1E+10	1
4901784	142	C	05/25/2019	10:45	-132.602	42.833	0	1734.90	0	2.1590	0	36.3810	8	29.076	0	1714.039	0	43.2	4	13.2	4	-1E+10	1	-1E+10	1	-1E+10	1	-1E+10	1	-1E+10	1	-1E+10	1
4901784	142	C	05/25/2019	10:45	-132.602	42.833	0	1739.80	0	2.1530	0	36.3830	8	29.078	0	1718.860	0	43.6	4	13.4	4	-1E+10	1	-1E+10	1	-1E+10	1	-1E+10	1	-1E+10	1	-1E+10	1
4901784	142	C	05/25/2019	10:45	-132.602	42.833	0	1744.90	0	2.1460	0	36.3840	8	29.079	0	1723.878	0	43.9	4	13.5	4	-1E+10	1	-1E+10	1	-1E+10	1	-1E+10	1	-1E+10	1	-1E+10	1
4901784	142	C	05/25/2019	10:45	-132.602	42.833	0	1749.60	0	2.1400	0	36.3860	8	29.081	0	1728.502	0	44.3	4	13.6	4	-1E+10	1	-1E+10	1	-1E+10	1	-1E+10	1	-1E+10	1	-1E+10	1
4901784	142	C	05/25/2019	10:45	-132.602	42.833	0	1754.40	0	2.1350	0	36.3870	8	29.083	0	1733.225	0	44.6	4	13.7	4	-1E+10	1	-1E+10	1	-1E+10	1	-1E+10	1	-1E+10	1	-1E+10	1
4901784	142	C	05/25/2019	10:45	-132.602	42.833	0	1760.00	0	2.1290	0	36.3880	8	29.084	0	1738.734	0	45.1	4	13.8	4	-1E+10	1	-1E+10	1	-1E+10	1	-1E+10	1	-1E+10	1	-1E+10	1
4901784	142	C	05/25/2019	10:45	-132.602	42.833	0	1765.70	0	2.1200	0	36.3900	8	29.086	0	1744.342	0	45.6	4	14.0	4	-1E+10	1	-1E+10	1	-1E+10	1	-1E+10	1	-1E+10	1	-1E+10	1
4901784	142	C	05/25/2019	10:45	-132.602	42.833	0	1770.70	0	2.1140	0	36.3910	8	29.088	0	1749.261	0	46.0	4	14.1	4	-1E+10	1	-1E+10	1	-1E+10	1	-1E+10	1	-1E+10	1	-1E+10	1
4901784	142	C	05/25/2019	10:45	-132.602	42.833	0	1775.60	0	2.1100	0	36.3920	8	29.089	0	1754.081	0	46.3	4	14.2	4	-1E+10	1	-1E+10	1	-1E+10	1	-1E+10	1	-1E+10	1	-1E+10	1
4901784	142	C	05/25/2019	10:45	-132.602	42.833	0	1780.60	0	2.1060	0	36.3930	8	29.090	0	1759.000	0	46.6	4	14.3	4	-1E+10	1	-1E+10	1	-1E+10	1	-1E+10	1	-1E+10	1	-1E+10	1
4901784	142	C	05/25/2019	10:45	-132.602	42.833	0	1785.70	0	2.1000	0	36.3940	8	29.091	0	1764.017	0	47.0	4	14.4	4	-1E+10	1	-1E+10	1	-1E+10	1	-1E+10	1	-1E+10	1	-1E+10	1
4901784	142	C	05/25/2019	10:45	-132.602	42.833	0	1790.80	0	2.0940	0	36.3960	8	29.093	0	1769.034	0	47.4	4	14.5	4	-1E+10	1	-1E+10	1	-1E+10	1	-1E+10	1	-1E+10	1	-1E+10	1
4901784	142	C	05/25/2019	10:45	-132.602	42.833	0	1795.00	0	2.0880	0	36.3970	8	29.095	0	1773.165	0	47.7	4	14.6	4	-1E+10	1	-1E+10	1	-1E+10	1	-1E+10	1	-1E+10	1	-1E+10	1
4901784	142	C	05/25/2019	10:45	-132.602	42.833	0	1799.30	0	2.0850	0	36.3980	8	29.096	0	1777.395	0	48.0	4	14.7	4	-1E+10	1	-1E+10	1	-1E+10	1	-1E+10	1	-1E+10	1	-1E+10	1
4901784	142	C	05/25/2019	10:45	-132.602	42.833	0	1804.50	0	2.0780	0	36.3990	8	29.097	0	1782.510	0	48.4	4	14.8	4	-1E+10	1	-1E+10	1	-1E+10	1	-1E+10	1	-1E+10	1	-1E+10	1
4901784	142	C	05/25/2019	10:45	-132.602	42.833	0	1809.70	0	2.0740	0	36.4000	8	29.098	0	1787.624	0	48.7	4	14.9	4	-1E+10	1	-1E+10	1	-1E+10	1	-1E+10	1	-1E+10	1	-1E+10	1
4901784	142	C	05/25/2019	10:45	-132.602	42.833	0	1814.90	0	2.0690	0	36.4020	8	29.101	0	1792.739	0	49.2	4	15.1	4	-1E+10	1	-1E+10	1	-1E+10	1	-1E+10	1	-1E+10	1	-1E+10	1
4901784	142	C	05/25/2019	10:45	-132.602	42.833	0	1820.20	0	2.0630	0	36.4020	8	29.101	0	1797.952	0	49.8	4	15.2	4	-1E+10	1	-1E+10	1	-1E+10	1	-1E+10	1	-1E+10	1	-1E+10	1
4901784	142	C	05/25/2019	10:45	-132.602	42.833	0	1825.40	0	2.0490	0	36.4040	8	29.104	0	1803.066	0	50.3	4	15.4	4	-1E+10	1	-1E+10	1	-1E+10	1	-1E+10	1	-1E+10	1	-1E+10	1
4901784	142	C	05/25/2019	10:45	-132.602	42.833	0	1829.90	0	2.0450	0	36.4050	8	29.105	0	1807.492	0	50.6	4	15.5	4	-1E+10	1	-1E+10	1	-1E+10	1	-1E+10	1	-1E+10	1	-1E+10	1
4901784	142	C	05/25/2019	10:45	-132.602	42.833	0	1834.30	0	2.0410	0	36.4070	8	29.107	0	1811.820	0	50.8	4	15.6	4	-1E+10	1	-1E+10	1	-1E+10	1	-1E+10	1	-1E+10	1	-1E+10	1
4901784	142	C	05/25/2019	10:45	-132.602	42.833	0	1839.70	0	2.0390	0	36.4070	8	29.107	0	1817.130	0	51.1	4	15.6	4	-1E+10	1	-1E+10	1	-1E+10	1	-1E+10	1	-1E+10	1	-1E+10	1
4901784	142	C	05/25/2019	10:45	-132.602	42.833	0	1845.20	0	2.0350	0	36.4080	8	29.108	0	1822.539	0	51.5	4	15.8	4	-1E+10	1	-1E+10	1	-1E+10	1	-1E+10	1	-1E+10	1	-1E+10	1
4901784	142	C	05/25/2019	10:45	-132.602	42.833	0	1849.80	0	2.0280	0	36.4090	8	29.110	0	1827.063	0	51.8	4	15.9	4	-1E+10	1	-1E+10	1	-1E+10	1	-1E+10	1	-1E+10	1	-1E+10	1
4901784	142	C	05/25/2019	10:45	-132.602	42.833	0	1854.40	0	2.0240	0	36.4100	8	29.111	0	1831.587	0	52.0	4	15.9	4	-1E+10	1	-1E+10	1	-1E+10	1	-1E+10	1	-1E+10	1	-1E+10	1
4901784	142	C	05/25/2019	10:45	-132.602	42.833	0	1860.00	0	2.0220	0	36.4110	8	29.112	0	1837.094	0	52.1	4	15.9	4	-1E+10	1	-1E+10	1	-1E+10	1	-1E+10	1	-1E+10	1	-1E+10	1
4901784	142	C	05/25/2019	10:45	-132.602	42.833	0	1864.70	0	2.0220	0	36.4110	8	29.112	0	1841.715	0	52.2	4	16.0	4	-1E+10	1	-1E+10	1	-1E+10	1	-1E+10	1	-1E+10	1	-1E+10	1
4901784	142	C	05/25/2019	10:45	-132.602	42.833	0	1869.40	0	2.0190	0	36.4120	8	29.113	0	1846.337	0	52.3	4	16.0	4	-1E+10	1	-1E+10	1	-1E+10	1	-1E+10	1	-1E+10	1	-1E+10	1
4901784	142	C	05/25/2019	10:45	-132.602	42.833	0	1875.00	0	2.0190	0	36.4120	8	29.113	0	1851.844	0	52.5	4	16.0	4	-1E+10	1	-1E+10	1	-1E+10	1	-1E+10	1	-1E+10	1	-1E+10	1
4901784	142	C	05/25/2019	10:45	-132.602	42.833	0	1880.60	0	2.0170	0	36.4130	8	29.114	0	1857.350	0	52.6	4	16.1	4	-1E+10	1	-1E+10	1	-1E+10	1	-1E+10	1	-1E+10	1	-1E+10	1
4901784	142	C	05/25/2019	10:45	-132.602	42.833	0	1885.90	0	2.0160	0	36.4130	8	29.114	0	1862.561	0	52.8	4	16.2	4	-1E+10	1	-1E+10	1	-1E+10	1	-1E+10	1	-1E+10	1	-1E+10	1
4901784	142	C	05/25/2019	10:45	-132.602	42.833	0	1890.20	0	2.0110	0	36.4140	8	29.115	0	1866.789	0	53.1	4	16.2	4	-1E+10	1	-1E+10	1	-1E+10	1	-1E+10	1	-1E+10	1	-1E+10	1
4901784	142	C	05/25/2019	10:45	-132.602	42.833	0	1895.20	0	2.0080	0	36.4150	8	29.117	0	1871.705	0	53.3	4	16.3	4	-1E+10	1	-1E+10	1	-1E+10	1	-1E+10	1	-1E+10	1	-1E+10	1
4901784	142	C	05/25/2019	10:45	-132.602	42.833	0	1900.10	0	2.0070	0	36.4160	8	29.117	0	1876.523	0	53.4	4	16.3	4	-1E+10	1	-1E+10	1	-1E+10	1	-1E+10	1	-1E+10	1	-1E+10	1
4901784	142	C	05/25/2019	10:45	-132.602	42.833	0	1905.20	0	2.0060	0	36.4170	8	29.118	0	1881.537	0	53.6	4	16.4	4	-1E+10	1	-1E+10	1	-1E+10	1	-1E+10	1	-1E+10	1	-1E+10	1
4901784	142	C	05/25/2019	10:45	-132.602	42.833	0	1910.20	0	2.0030	0	36.4180	8	29.119	0	1886.453	0	53.8	4	16.4	4	-1E+10	1	-1E+10	1	-1E+10	1	-1E+10	1	-1E+10	1	-1E+10	1
4901784	142	C	05/25/2019	10:45	-132.602	42.833	0	1915.20	0	2.0010	0	36.4190	8	29.120	0	1891.368	0	54.0	4	16.5	4	-1E+10	1	-1E+10	1	-1E+10	1	-1E+10	1	-1E+10	1	-1E+10	1
4901784	142	C	05/25/2019	10:45	-132.602	42.833	0	1920.20	0	1.9970	0	36.4200	8	29.122	0	1896.284	0	54.3	4	16.6	4	-1E+10	1	-1E+10	1	-1E+10	1	-1E+10	1	-1E+10	1	-1E+10	1
4901784	142	C	05/25/2019	10:45	-132.602	42.833	0	1925.30	0	1.9960	0	36.4210	8	29.123	0	1901.298	0	54.5	4	16.7	4	-1E+10	1	-1E+10	1	-1E+10	1	-1E+10	1	-1E+10	1	-1E+10	1
4901784	142	C	05/25/2019	10:45	-132.602	42.833	0	1930.40	0	1.9930	0	36.4210	8	29.123	0	1906.311	0	54.8	4	16.8	4	-1E+10	1	-1E+10	1	-1E+10	1	-1E+10	1	-1E+10	1	-1E+10	1
4901784	142	C	05/25/2019	10:45	-132.602	42.833	0	1935.60	0	1.9860	0	36.4230	8	29.125	0	1911.423	0	55.4	4	16.9	4	-1E+10	1	-1E+10	1	-1E+10	1	-1E+10	1	-1E+10	1	-1E+10	1
4901784	142	C	05/25/2019	10:45	-132.602	42.833	0	1940.80	0	1.9800	0	36.4240	8	29.126	0	1916.535	0	55.8	4	17.0	4	-1E+10	1	-1E+10	1	-1E+10	1	-1E+10	1	-1E+10	1	-1E+10	1
4901784	142	C	05/25/2019	10:45	-132.602	42.833	0	1945.00	0	1.9720	0	36.4260	8	29.129	0	1920.663	0	56.1	4	17.1	4	-1E+10	1	-1E+10	1	-1E+10	1	-1E+10	1	-1E+10	1	-1E+10	1
4901784	142	C	05/25/2019	10:45	-132.602	42.833	0	1949.30	0	1.9720	0	36.4260	8	29.129	0	1924.890	0	56.2	4	17.2	4	-1E+10	1	-1E+10	1	-1E+10	1	-1E+10	1	-1E+10	1	-1E+10	1
4901784	142	C	05/25/2019	10:45	-132.602	42.833	0	1954.50	0	1.9690	0	36.4270	8	29.130	0	1930.001	0	56.4	4	17.2	4	-1E+10	1	-1E+10	1	-1E+10	1	-1E+10	1	-1E+10	1	-1E+10	1
4901784	142	C	05/25/2019	10:45	-132.602	42.833	0	1959.60	0	1.9670	0	36.4280	8	29.131	0	1935.014	0	56.6	4	17.3	4	-1E+10	1	-1E+10	1	-1E+10	1	-1E+10	1	-1E+10	1	-1E+10	1
4901784	142	C	05/25/2019	10:45	-132.602	42.833	0	1964.90	0	1.9640	0	36.4290	8	29.132	0	1940.224	0	56.9	4	17.4	4	-1E+10	1	-1E+10	1	-1E+10	1	-1E+10	1	-1E+10	1	-1E+10	1
4901784	142	C	05/25/2019	10:45	-132.602	42.833	0	1970.10	0	1.9610	0	36.4300	8	29.133	0	1945.335	0	57.2	4	17.5	4	-1E+10	1	-1E+10	1	-1E+10	1	-1E+10	1	-1E+10	1	-1E+10	1
4901784	142	C	05/25/2019	10:45	-132.602	42.833	0	1975.40	0	1.9570	0	36.4300	8	29.133	0	1950.544	0	57.6	4	17.6	4	-1E+10	1	-1E+10	1	-1E+10	1	-1E+10	1	-1E+10	1	-1E+10	1
4901784	142	C	05/25/2019	10:45	-132.602	42.833	0	1979.80	0	1.9520	0	36.4320	8	29.135	0	1954.868	0	58.0	4	17.7	4	-1E+10	1	-1E+10	1	-1E+10	1	-1E+10	1	-1E+10	1	-1E+10	1
4901784	142	C	05/25/2019	10:45	-132.602	42.833	0	1984.20	0	1.9480	0	36.4330	8	29.136	0	1959.193	0	58.3	4	17.8	4	-1E+10	1	-1E+10	1	-1E+10	1	-1E+10	1	-1E+10	1	-1E+10	1
4901784	142	C	05/25/2019	10:45	-132.602	42.833	0	1989.50	0	1.9440	0	36.4340	8	29.138	0	1964.401	0	58.7	4	17.9	4	-1E+10	1	-1E+10	1	-1E+10	1	-1E+10	1	-1E+10	1	-1E+10	1
4901784	142	C	05/25/2019	10:45	-132.602	42.833	0	1994.80	0	1.9390	0	36.4350	8	29.139	0	1969.610	0	59.1	4	18.1	4	-1E+10	1	-1E+10	1	-1E+10	1	-1E+10	1	-1E+10	1	-1E+10	1
4901784	142	C	05/25/2019	10:45	-132.602	42.833	0	2000.20	0	1.9370	0	36.4370	8	29.141	0	1974.917	0	59.5	4	18.2	4	-1E+10	1	-1E+10	1	-1E+10	1	-1E+10	1	-1E+10	1	-1E+10	1
4901784	142	C	05/25/2019	10:45	-132.602	42.833	0	2005.60	0	1.9350	0	36.4380	8	29.142	0	1980.224	0	59.8	4	18.3	4	-1E+10	1	-1E+10	1	-1E+10	1	-1E+10	1	-1E+10	1	-1E+10	1
4901784	142	C	05/25/2019	10:45	-132.602	42.833	0	2010.50	0	1.9300	0	36.4390	8	29.143	0	1985.039	0	60.2	4	18.4	4	-1E+10	1	-1E+10	1	-1E+10	1	-1E+10	1	-1E+10	1	-1E+10	1
4901784	142	C	05/25/2019	10:45	-132.602	42.833	0	2014.70	0	1.9260	0	36.4400	8	29.144	0	1989.166	0	60.5	4	18.5	4	-1E+10	1	-1E+10	1	-1E+10	1	-1E+10	1	-1E+10	1	-1E+10	1
4901784	142	C	05/25/2019	10:45	-132.602	42.833	0	2019.80	0	1.9230	0	36.4410	8	29.145	0	1994.178	0	60.7	4	18.5	4	-1E+10	1	-1E+10	1	-1E+10	1	-1E+10	1	-1E+10	1	-1E+10	1
4901784	142	C	05/25/2019	10:45	-132.602	42.833	0																										
4901784	143	C	06/04/2019	10:43	-132.502	42.826	0	2.60	0	13.3620	0	33.9330	8	25.494	0	2.579	0	259.3	4	100.5	4	-1E+10	1	-1E+10	1	-1E+10	1	-1E+10	1	-1E+10	1	-1E+10	1
4901784	143	C	06/04/2019	10:43	-132.502	42.826	0	4.20	0	13.3650	0	33.9360	8	25.496	0	4.167	0	259.5	4	100.6	4	-1E+10	1	-1E+10	1	-1E+10	1	-1E+10	1	-1E+10	1	-1E+10	1
4901784	143	C	06/04/2019	10:43	-132.502	42.826	0	5.90	0	13.3500	0	33.9300	8	25.495	0	5.853	0	259.6	4	100.6	4	-1E+10	1	-1E+10	1	-1E+10	1	-1E+10	1	-1E+10	1	-1E+10	1
4901784	143	C	06/04/2019	10:43	-132.502	42.826	0	7.70	0	13.3430	0	33.9310	8	25.497	0	7.639	0	259.7	4	100.6	4	-1E+10	1	-1E+10	1	-1E+10	1	-1E+10	1	-1E+10	1	-1E+10	1
4901784	143	C	06/04/2019	10:43	-132.502	42.826	0	9.50	0	13.3420	0	33.9290	8	25.496	0	9.425	0	259.9	4	100.7	4	-1E+10	1	-1E+10	1	-1E+10	1	-1E+10	1	-1E+10	1	-1E+10	1
4901784	143	C	06/04/2019	10:43	-132.502	42.826	0	11.20	0	13.3450	0	33.9240	8	25.491	0	11.111	0	260.4	4	100.9	4	-1E+10	1	-1E+10	1	-1E+10	1	-1E+10	1	-1E+10	1	-1E+10	1
4901784	143	C	06/04/2019	10:43	-132.502	42.826	0	12.80	0	13.3250	0	33.9160	8	25.489	0	12.698	0	261.0	4	101.1	4	-1E+10	1	-1E+10	1	-1E+10	1	-1E+10	1	-1E+10	1	-1E+10	1
4901784	143	C	06/04/2019	10:43	-132.502	42.826	0	14.40	0	13.2230	0	33.9050	8	25.501	0	14.285	0	261.8	4	101.2	4	-1E+10	1	-1E+10	1	-1E+10	1	-1E+10	1	-1E+10	1	-1E+10	1
4901784	143	C	06/04/2019	10:43	-132.502	42.826	0	16.10	0	12.9370	0	33.9050	8	25.558	0	15.972	0	264.0	4	101.4	4	-1E+10	1	-1E+10	1	-1E+10	1	-1E+10	1	-1E+10	1	-1E+10	1
4901784	143	C	06/04/2019	10:43	-132.502	42.826	0	17.80	0	12.6940	0	33.9020	8	25.604	0	17.658	0	265.9	4	101.7	4	-1E+10	1	-1E+10	1	-1E+10	1	-1E+10	1	-1E+10	1	-1E+10	1
4901784	143	C	06/04/2019	10:43	-132.502	42.826	0	19.60	0	12.1540	0	33.9210	8	25.723	0	19.444	0	268.4	4	101.5	4	-1E+10	1	-1E+10	1	-1E+10	1	-1E+10	1	-1E+10	1	-1E+10	1
4901784	143	C	06/04/2019	10:43	-132.502	42.826	0	21.60	0	11.8400	0	33.9370	8	25.795	0	21.428	0	269.7	4	101.3	4	-1E+10	1	-1E+10	1	-1E+10	1	-1E+10	1	-1E+10	1	-1E+10	1
4901784	143	C	06/04/2019	10:43	-132.502	42.826	0	23.50	0	11.7750	0	33.9330	8	25.804	0	23.313	0	270.7	4	101.6	4	-1E+10	1	-1E+10	1	-1E+10	1	-1E+10	1	-1E+10	1	-1E+10	1
4901784	143	C	06/04/2019	10:43	-132.502	42.826	0	25.50	0	11.7040	0	33.9370	8	25.820	0	25.297	0	270.3	4	101.3	4	-1E+10	1	-1E+10	1	-1E+10	1	-1E+10	1	-1E+10	1	-1E+10	1
4901784	143	C	06/04/2019	10:43	-132.502	42.826	0	27.40	0	11.6580	0	33.9370	8	25.829	0	27.181	0	269.8	4	101.0	4	-1E+10	1	-1E+10	1	-1E+10	1	-1E+10	1	-1E+10	1	-1E+10	1
4901784	143	C	06/04/2019	10:43	-132.502	42.826	0	29.30	0	11.6030	0	33.9410	8	25.842	0	29.066	0	269.2	4	100.7	4	-1E+10	1	-1E+10	1	-1E+10	1	-1E+10	1	-1E+10	1	-1E+10	1
4901784	143	C	06/04/2019	10:43	-132.502	42.826	0	31.30	0	11.5710	0	33.9390	8	25.847	0	31.050	0	268.7	4	100.4	4	-1E+10	1	-1E+10	1	-1E+10	1	-1E+10	1	-1E+10	1	-1E+10	1
4901784	143	C	06/04/2019	10:43	-132.502	42.826	0	33.20	0	11.5500	0	33.9390	8	25.850	0	32.934	0	268.0	4	100.1	4	-1E+10	1	-1E+10	1	-1E+10	1	-1E+10	1	-1E+10	1	-1E+10	1
4901784	143	C	06/04/2019	10:43	-132.502	42.826	0	35.20	0	11.5250	0	33.9400	8	25.856	0	34.918	0	267.5	4	99.9	4	-1E+10	1	-1E+10	1	-1E+10	1	-1E+10	1	-1E+10	1	-1E+10	1
4901784	143	C	06/04/2019	10:43	-132.502	42.826	0	37.20	0	11.4920	0	33.9400	8	25.862	0	36.902	0	267.3	4	99.7	4	-1E+10	1	-1E+10	1	-1E+10	1	-1E+10	1	-1E+10	1	-1E+10	1
4901784	143	C	06/04/2019	10:43	-132.502	42.826	0	39.20	0	11.4690	0	33.9390	8	25.866	0	38.886	0	266.9	4	99.5	4	-1E+10	1	-1E+10	1	-1E+10	1	-1E+10	1	-1E+10	1	-1E+10	1
4901784	143	C	06/04/2019	10:43	-132.502	42.826	0	41.20	0	11.4470	0	33.9390	8	25.870	0	40.870	0	266.7	4	99.4	4	-1E+10	1	-1E+10	1	-1E+10	1	-1E+10	1	-1E+10	1	-1E+10	1
4901784	143	C	06/04/2019	10:43	-132.502	42.826	0	43.10	0	11.4100	0	33.9430	8	25.880	0	42.754	0	266.2	4	99.2	4	-1E+10	1	-1E+10	1	-1E+10	1	-1E+10	1	-1E+10	1	-1E+10	1
4901784	143	C	06/04/2019	10:43	-132.502	42.826	0	45.20	0	11.3930	0	33.9470	8	25.886	0	44.837	0	266.0	4	99.0	4	-1E+10	1	-1E+10	1	-1E+10	1	-1E+10	1	-1E+10	1	-1E+10	1
4901784	143	C	06/04/2019	10:43	-132.502	42.826	0	47.00	0	11.3890	0	33.9490	8	25.888	0	46.623	0	265.3	4	98.7	4	-1E+10	1	-1E+10	1	-1E+10	1	-1E+10	1	-1E+10	1	-1E+10	1
4901784	143	C	06/04/2019	10:43	-132.502	42.826	0	49.10	0	11.3820	0	33.9510	8	25.891	0	48.705	0	264.6	4	98.5	4	-1E+10	1	-1E+10	1	-1E+10	1	-1E+10	1	-1E+10	1	-1E+10	1
4901784	143	C	06/04/2019	10:43	-132.502	42.826	0	51.00	0	11.3560	0	33.9550	8	25.899	0	50.590	0	264.0	4	98.2	4	-1E+10	1	-1E+10	1	-1E+10	1	-1E+10	1	-1E+10	1	-1E+10	1
4901784	143	C	06/04/2019	10:43	-132.502	42.826	0	53.00	0	11.3590	0	33.9600	8	25.902	0	52.574	0	263.6	4	98.1	4	-1E+10	1	-1E+10	1	-1E+10	1	-1E+10	1	-1E+10	1	-1E+10	1
4901784	143	C	06/04/2019	10:43	-132.502	42.826	0	55.30	0	11.3920	0	33.9690	8	25.903	0	54.855	0	262.6	4	97.8	4	-1E+10	1	-1E+10	1	-1E+10	1	-1E+10	1	-1E+10	1	-1E+10	1
4901784	143	C	06/04/2019	10:43	-132.502	42.826	0	55.80	0	11.3900	0	33.9700	8	25.905	0	55.351	0	262.1	4	97.6	4	-1E+10	1	-1E+10	1	-1E+10	1	-1E+10	1	-1E+10	1	-1E+10	1
4901784	143	C	06/04/2019	10:43	-132.502	42.826	0	57.50	0	11.3610	0	33.9690	8	25.909	0	57.037	0	261.8	4	97.4	4	-1E+10	1	-1E+10	1	-1E+10	1	-1E+10	1	-1E+10	1	-1E+10	1
4901784	143	C	06/04/2019	10:43	-132.502	42.826	0	59.20	0	11.2650	0	33.9590	8	25.919	0	58.723	0	261.9	4	97.3	4	-1E+10	1	-1E+10	1	-1E+10	1	-1E+10	1	-1E+10	1	-1E+10	1
4901784	143	C	06/04/2019	10:43	-132.502	42.826	0	60.80	0	11.2440	0	33.9590	8	25.923	0	60.310	0	261.6	4	97.1	4	-1E+10	1	-1E+10	1	-1E+10	1	-1E+10	1	-1E+10	1	-1E+10	1
4901784	143	C	06/04/2019	10:43	-132.502	42.826	0	62.40	0	11.2290	0	33.9590	8	25.925	0	61.897	0	261.1	4	96.9	4	-1E+10	1	-1E+10	1	-1E+10	1	-1E+10	1	-1E+10	1	-1E+10	1
4901784	143	C	06/04/2019	10:43	-132.502	42.826	0	63.90	0	11.1950	0	33.9550	8	25.929	0	63.384	0	261.0	4	96.8	4	-1E+10	1	-1E+10	1	-1E+10	1	-1E+10	1	-1E+10	1	-1E+10	1
4901784	143	C	06/04/2019	10:43	-132.502	42.826	0	65.50	0	11.1580	0	33.9500	8	25.931	0	64.971	0	260.6	4	96.5	4	-1E+10	1	-1E+10	1	-1E+10	1	-1E+10	1	-1E+10	1	-1E+10	1
4901784	143	C	06/04/2019	10:43	-132.502	42.826	0	67.00	0	11.1040	0	33.9470	8	25.939	0	66.459	0	260.3	4	96.3	4	-1E+10	1	-1E+10	1	-1E+10	1	-1E+10	1	-1E+10	1	-1E+10	1
4901784	143	C	06/04/2019	10:43	-132.502	42.826	0	68.50	0	10.9890	0	33.9480	8	25.960	0	67.946	0	260.5	4	96.2	4	-1E+10	1	-1E+10	1	-1E+10	1	-1E+10	1	-1E+10	1	-1E+10	1
4901784	143	C	06/04/2019	10:43	-132.502	42.826	0	70.10	0	10.8920	0	33.9520	8	25.981	0	69.533	0	260.4	4	95.9	4	-1E+10	1	-1E+10	1	-1E+10	1	-1E+10	1	-1E+10	1	-1E+10	1
4901784	143	C	06/04/2019	10:43	-132.502	42.826	0	71.70	0	10.7320	0	33.9470	8	26.005	0	71.120	0	260.7	4	95.7	4	-1E+10	1	-1E+10	1	-1E+10	1	-1E+10	1	-1E+10	1	-1E+10	1
4901784	143	C	06/04/2019	10:43	-132.502	42.826	0	73.30	0	10.5140	0	33.9610	8	26.054	0	72.707	0	261.2	4	95.5	4	-1E+10	1	-1E+10	1	-1E+10	1	-1E+10	1	-1E+10	1	-1E+10	1
4901784	143	C	06/04/2019	10:43	-132.502	42.826	0	75.00	0	10.2620	0	33.9740	8	26.108	0	74.393	0	262.1	4	95.3	4	-1E+10	1	-1E+10	1	-1E+10	1	-1E+10	1	-1E+10	1	-1E+10	1
4901784	143	C	06/04/2019	10:43	-132.502	42.826	0	76.70	0	10.1890	0	33.9680	8	26.116	0	76.079	0	262.2	4	95.2	4	-1E+10	1	-1E+10	1	-1E+10	1	-1E+10	1	-1E+10	1	-1E+10	1
4901784	143	C	06/04/2019	10:43	-132.502	42.826	0	78.40	0	10.0950	0	33.9700	8	26.133	0	77.764	0	261.9	4	94.9	4	-1E+10	1	-1E+10	1	-1E+10	1	-1E+10	1	-1E+10	1	-1E+10	1
4901784	143	C	06/04/2019	10:43	-132.502	42.826	0	80.10	0	10.0910	0	33.9700	8	26.134	0	79.450	0	261.3	4	94.7	4	-1E+10	1	-1E+10	1	-1E+10	1	-1E+10	1	-1E+10	1	-1E+10	1
4901784	143	C	06/04/2019	10:43	-132.502	42.826	0	81.80	0	10.0970	0	33.9740	8	26.136	0	81.136	0	260.7	4	94.4	4	-1E+10	1	-1E+10	1	-1E+10	1	-1E+10	1	-1E+10	1	-1E+10	1
4901784	143	C	06/04/2019	10:43	-132.502	42.826	0	83.50	0	10.0370	0	33.9780	8	26.150	0	82.822	0	260.3	4	94.2	4	-1E+10	1	-1E+10	1	-1E+10	1	-1E+10	1	-1E+10	1	-1E+10	1
4901784	143	C	06/04/2019	10:43	-132.502	42.826	0	85.20	0	10.0030	0	33.9750	8	26.153	0	84.508	0	259.6	4	93.9	4	-1E+10	1	-1E+10	1	-1E+10	1	-1E+10	1	-1E+10	1	-1E+10	1
4901784	143	C	06/04/2019	10:43	-132.502	42.826	0	86.80	0	9.9820	0	33.9740	8	26.156	0	86.095	0	258.9	4	93.5	4	-1E+10	1	-1E+10	1	-1E+10	1	-1E+10	1	-1E+10	1	-1E+10	1
4901784	143	C	06/04/2019	10:43	-132.502	42.826	0	88.50	0	9.9780	0	33.9780	8	26.160	0	87.780	0	257.8	4	93.1	4	-1E+10	1	-1E+10	1	-1E+10	1	-1E+10	1	-1E+10	1	-1E+10	1
4901784	143	C	06/04/2019	10:43	-132.502	42.826	0	90.20	0	9.9630	0	33.9820	8	26.165	0	89.466	0	256.9	4	92.8	4	-1E+10	1	-1E+10	1	-1E+10	1	-1E+10	1	-1E+10	1	-1E+10	1
4901784	143	C	06/04/2019	10:43	-132.502	42.826	0	91.90	0	9.9170	0	33.9840	8	26.175	0	91.152	0	256.2	4	92.4	4	-1E+10	1	-1E+10	1	-1E+10	1	-1E+10	1	-1E+10	1	-1E+10	1
4901784	143	C	06/04/2019	10:43	-132.502	42.826	0	93.60	0	9.8860	0	33.9860	8	26.182	0	92.838	0	255.5	4	92.1	4	-1E+10	1	-1E+10	1	-1E+10	1	-1E+10	1	-1E+10	1	-1E+10	1
4901784	143	C	06/04/2019	10:43	-132.502	42.826	0	95.20	0	9.8740	0	33.9870	8	26.184	0	94.424	0	254.6	4	91.8	4	-1E+10	1	-1E+10	1	-1E+10	1	-1E+10	1	-1E+10	1	-1E+10	1
4901784	143	C	06/04/2019	10:43	-132.502	42.826	0	96.90	0	9.8680	0	33.9880	8	26.186	0	96.110	0	253.5	4	91.4	4	-1E+10	1	-1E+10	1	-1E+10	1	-1E+10	1	-1E+10	1	-1E+10	1
4901784	143	C	06/04/2019	10:43	-132.502	42.826	0	98.50	0	9.8020	0	34.0040	8	26.210	0	97.697	0	253.0	4	91.1	4	-1E+10	1	-1E+10	1	-1E+10	1	-1E+10	1	-1E+10	1	-1E+10	1
4901784	143	C	06/04/2019	10:43	-132.502	42.826	0	100.10	0	9.7040	0	34.0090	8	26.230	0	99.283	0	253.4	4	91.0	4	-1E+10	1	-1E+10	1	-1E+10	1	-1E+10	1	-1E+10	1	-1E+10	1
4901784	143	C	06/04/2019	10:43	-132.502	42.826	0	102.60	0	9.5220	0	34.0030	8	26.255	0	101.762	0	253.3	4	90.6	4	-1E+10	1	-1E+10	1	-1E+10	1	-1E+10	1	-1E+10	1	-1E+10	1
4901784	143	C	06/04/2019	10:43	-132.502	42.826	0	105.10	0	9.4260	0	34.0080	8	26.275	0	104.241	0	252.6	4	90.2	4	-1E+10	1	-1E+10	1	-1E+10	1	-1E+10	1	-1E+10	1	-1E+10	1
4901784	143	C	06/04/2019	10:43	-132.502	42.826	0	107.50	0	9.3990	0	34.0110	8	26.282	0	106.621	0	250.8	4	89.5	4	-1E+10	1	-1E+10	1	-1E+10	1	-1E+10	1	-1E+10	1	-1E+10	1
4901784	143	C	06/04/2019	10:43	-132.502	42.826	0	109.90	0	9.3420	0	34.0140	8	26.293	0	109.001	0	248.6	4	88.6	4	-1E+10	1	-1E+10	1	-1E+10	1	-1E+10	1	-1E+10	1	-1E+10	1
4901784	143	C	06/04/2019	10:43	-132.502	42.826	0	112.30	0	9.2010	0	34.0460	8	26.341	0	111.380	0	246.1	4	87.5	4	-1E+10	1	-1E+10	1	-1E+10	1	-1E+10	1	-1E+10	1	-1E+10	1
4901784	143	C	06/04/2019	10:43	-132.502	42.826	0	115.50	0	9.1770	0	34.0900	8	26.380	0	114.553	0	242.2	4	86.1	4	-1E+10	1	-1E+10	1	-1E+10	1	-1E+10	1	-1E+10	1	-1E+10	1
4901784	143	C	06/04/2019	10:43	-132.502	42.826	0	117.30	0	8.8630	0	34.1360	8	26.466	0	116.338	0	241.8	4	85.4	4	-1E+10	1	-1E+10	1	-1E+10	1	-1E+10	1	-1E+10	1	-1E+10	1
4901784	143	C	06/04/2019	10:43	-132.502	42.826	0	119.70	0	8.5790	0	34.1760	8	26.541	0	118.718	0	241.6	4	84.8	4	-1E+10	1	-1E+10	1	-1E+10	1	-1E+10	1	-1E+10	1	-1E+10	1
4901784	143	C	06/04/2019	10:43	-132.502	42.826	0	122.80	0	8.4750	0	34.2110	8	26.585	0	121.791	0	240.1	4	84.1	4	-1E+10	1	-1E+10	1	-1E+10	1	-1E+10	1	-1E+10	1	-1E+10	1
4901784	143	C	06/04/2019	10:43	-132.502	42.826	0	125.40	0	8.4220	0	34.2340	8	26.611	0	124.369	0	238.5	4	83.5	4	-1E+10	1	-1E+10	1	-1E+10	1	-1E+10	1	-1E+10	1	-1E+10	1
4901784	143	C	06/04/2019	10:43	-132.502	42.826	0	127.40	0	8.3970	0	34.2520	8	26.629	0	126.352	0	236.2	4	82.6	4	-1E+10	1	-1E+10	1	-1E+10	1	-1E+10	1	-1E+10	1	-1E+10	1
4901784	143	C	06/04/2019	10:43	-132.502	42.826	0	129.90	0	8.3110	0	34.3060	8	26.684	0	128.831	0	233.1	4	81.4	4	-1E+10	1	-1E+10	1	-1E+10	1	-1E+10	1	-1E+10	1	-1E+10	1
4901784	143	C	06/04/2019	10:43	-132.502	42.826	0	132.50	0	8.1390	0	34.3960	8	26.781	0	131.409	0	230.8	4	80.4	4	-1E+10	1	-1E+10	1	-1E+10	1	-1E+10	1	-1E+10	1	-1E+10	1
4901784	143	C	06/04/2019	10:43	-132.502	42.826	0	135.40	0	7.9970	0	34.4860	8	26.873	0	134.284	0	228.7	4	79.4	4	-1E+10	1	-1E+10	1	-1E+10	1	-1E+10	1	-1E+10	1	-1E+10	1
4901784	143	C	06/04/2019	10:43	-132.502	42.826	0	137.60	0	7.8900	0	34.5900	8	26.971	0	136.465	0	227.5	4	78.9	4	-1E+10	1	-1E+10	1	-1E+10	1	-1E+10	1	-1E+10	1	-1E+10	1
4901784	143	C	06/04/2019	10:43	-132.502	42.826	0	139.90	0	7.8850	0	34.6080	8	26.985	0	138.745	0	226.7	4	78.6	4	-1E+10	1	-1E+10	1	-1E+10	1	-1E+10	1	-1E+10	1	-1E+10	1
4901784	143	C	06/04/2019	10:43	-132.502	42.826	0	142.80	0	7.8880	0	34.6160	8	26.991	0	141.620	0	225.0	4	78.0	4	-1E+10	1	-1E+10	1	-1E+10	1	-1E+10	1	-1E+10	1	-1E+10	1
4901784	143	C	06/04/2019	10:43	-132.502	42.826	0	145.10	0	7.8650	0	34.6550	8	27.025	0	143.900	0	223.3	4	77.4	4	-1E+10	1	-1E+10	1	-1E+10	1	-1E+10	1	-1E+10	1	-1E+10	1
4901784	143	C	06/04/2019	10:43	-132.502	42.826	0	147.70	0	7.8240	0	34.7380	8	27.097	0	146.478	0	221.7	4	76.8	4	-1E+10	1	-1E+10	1	-1E+10	1	-1E+10	1	-1E+10	1	-1E+10	1
4901784	143	C	06/04/2019	10:43	-132.502	42.826	0	150.20	0	7.8280	0	34.7870	8	27.135	0	148.956	0	220.3	4	76.4	4	-1E+10	1	-1E+10	1	-1E+10	1	-1E+10	1	-1E+10	1	-1E+10	1
4901784	143	C	06/04/2019	10:43	-132.502	42.826	0	152.80	0	7.8260	0	34.7970	8	27.143	0	151.534	0	219.2	4	76.0	4	-1E+10	1	-1E+10	1	-1E+10	1	-1E+10	1	-1E+10	1	-1E+10	1
4901784	143	C	06/04/2019	10:43	-132.502	42.826	0	155.40	0	7.8240	0	34.8380	8	27.175	0	154.111	0	217.8	4	75.5	4	-1E+10	1	-1E+10	1	-1E+10	1	-1E+10	1	-1E+10	1	-1E+10	1
4901784	143	C	06/04/2019	10:43	-132.502	42.826	0	157.00	0	7.8240	0	34.8420	8	27.179	0	155.698	0	216.9	4	75.2	4	-1E+10	1	-1E+10	1	-1E+10	1	-1E+10	1	-1E+10	1	-1E+10	1
4901784	143	C	06/04/2019	10:43	-132.502	42.826	0	159.70	0	7.8300	0	34.8980	8	27.222	0	158.374	0	215.0	4	74.6	4	-1E+10	1	-1E+10	1	-1E+10	1	-1E+10	1	-1E+10	1	-1E+10	1
4901784	143	C	06/04/2019	10:43	-132.502	42.826	0	162.80	0	7.8860	0	34.9500	8	27.254	0	161.447	0	213.2	4	74.1	4	-1E+10	1	-1E+10	1	-1E+10	1	-1E+10	1	-1E+10	1	-1E+10	1
4901784	143	C	06/04/2019	10:43	-132.502	42.826	0	165.30	0	7.8810	0	34.9590	8	27.262	0	163.925	0	211.8	4	73.6	4	-1E+10	1	-1E+10	1	-1E+10	1	-1E+10	1	-1E+10	1	-1E+10	1
4901784	143	C	06/04/2019	10:43	-132.502	42.826	0	167.40	0	7.8750	0	34.9820	8	27.281	0	166.007	0	210.3	4	73.1	4	-1E+10	1	-1E+10	1	-1E+10	1	-1E+10	1	-1E+10	1	-1E+10	1
4901784	143	C	06/04/2019	10:43	-132.502	42.826	0	169.60	0	7.8470	0	35.0140	8	27.311	0	168.188	0	208.3	4	72.4	4	-1E+10	1	-1E+10	1	-1E+10	1	-1E+10	1	-1E+10	1	-1E+10	1
4901784	143	C	06/04/2019	10:43	-132.502	42.826	0	172.70	0	7.8630	0	35.0830	8	27.362	0	171.261	0	205.4	4	71.4	4	-1E+10	1	-1E+10	1	-1E+10	1	-1E+10	1	-1E+10	1	-1E+10	1
4901784	143	C	06/04/2019	10:43	-132.502	42.826	0	175.00	0	7.8820	0	35.1140	8	27.384	0	173.541	0	203.1	4	70.7	4	-1E+10	1	-1E+10	1	-1E+10	1	-1E+10	1	-1E+10	1	-1E+10	1
4901784	143	C	06/04/2019	10:43	-132.502	42.826	0	177.30	0	7.9570	0	35.1530	8	27.404	0	175.821	0	200.3	4	69.8	4	-1E+10	1	-1E+10	1	-1E+10	1	-1E+10	1	-1E+10	1	-1E+10	1
4901784	143	C	06/04/2019	10:43	-132.502	42.826	0	180.50	0	8.0280	0	35.2190	8	27.445	0	178.992	0	197.6	4	69.0	4	-1E+10	1	-1E+10	1	-1E+10	1	-1E+10	1	-1E+10	1	-1E+10	1
4901784	143	C	06/04/2019	10:43	-132.502	42.826	0	182.80	0	8.0440	0	35.2400	8	27.459	0	181.272	0	196.6	4	68.7	4	-1E+10	1	-1E+10	1	-1E+10	1	-1E+10	1	-1E+10	1	-1E+10	1
4901784	143	C	06/04/2019	10:43	-132.502	42.826	0	185.20	0	8.0120	0	35.2550	8	27.476	0	183.651	0	195.5	4	68.3	4	-1E+10	1	-1E+10	1	-1E+10	1	-1E+10	1	-1E+10	1	-1E+10	1
4901784	143	C	06/04/2019	10:43	-132.502	42.826	0	187.70	0	8.0510	0	35.2920	8	27.499	0	186.129	0	193.4	4	67.6	4	-1E+10	1	-1E+10	1	-1E+10	1	-1E+10	1	-1E+10	1	-1E+10	1
4901784	143	C	06/04/2019	10:43	-132.502	42.826	0	190.20	0	8.0600	0	35.3060	8	27.508	0	188.607	0	191.3	4	66.9	4	-1E+10	1	-1E+10	1	-1E+10	1	-1E+10	1	-1E+10	1	-1E+10	1
4901784	143	C	06/04/2019	10:43	-132.502	42.826	0	192.60	0	8.1330	0	35.3520	8	27.534	0	190.986	0	188.8	4	66.2	4	-1E+10	1	-1E+10	1	-1E+10	1	-1E+10	1	-1E+10	1	-1E+10	1
4901784	143	C	06/04/2019	10:43	-132.502	42.826	0	195.00	0	8.0900	0	35.3610	8	27.547	0	193.365	0	187.8	4	65.7	4	-1E+10	1	-1E+10	1	-1E+10	1	-1E+10	1	-1E+10	1	-1E+10	1
4901784	143	C	06/04/2019	10:43	-132.502	42.826	0	197.60	0	8.0880	0	35.3730	8	27.557	0	195.942	0	185.4	4	64.9	4	-1E+10	1	-1E+10	1	-1E+10	1	-1E+10	1	-1E+10	1	-1E+10	1
4901784	143	C	06/04/2019	10:43	-132.502	42.826	0	200.20	0	8.1300	0	35.4340	8	27.599	0	198.518	0	182.5	4	64.0	4	-1E+10	1	-1E+10	1	-1E+10	1	-1E+10	1	-1E+10	1	-1E+10	1
4901784	143	C	06/04/2019	10:43	-132.502	42.826	0	202.80	0	8.1540	0	35.4610	8	27.616	0	201.095	0	180.4	4	63.3	4	-1E+10	1	-1E+10	1	-1E+10	1	-1E+10	1	-1E+10	1	-1E+10	1
4901784	143	C	06/04/2019	10:43	-132.502	42.826	0	205.30	0	8.1810	0	35.4770	8	27.625	0	203.573	0	178.9	4	62.8	4	-1E+10	1	-1E+10	1	-1E+10	1	-1E+10	1	-1E+10	1	-1E+10	1
4901784	143	C	06/04/2019	10:43	-132.502	42.826	0	207.90	0	8.1900	0	35.4940	8	27.637	0	206.150	0	177.9	4	62.5	4	-1E+10	1	-1E+10	1	-1E+10	1	-1E+10	1	-1E+10	1	-1E+10	1
4901784	143	C	06/04/2019	10:43	-132.502	42.826	0	209.60	0	8.1910	0	35.4990	8	27.640	0	207.835	0	177.6	4	62.4	4	-1E+10	1	-1E+10	1	-1E+10	1	-1E+10	1	-1E+10	1	-1E+10	1
4901784	143	C	06/04/2019	10:43	-132.502	42.826	0	212.20	0	8.1910	0	35.5000	8	27.641	0	210.412	0	177.0	4	62.2	4	-1E+10	1	-1E+10	1	-1E+10	1	-1E+10	1	-1E+10	1	-1E+10	1
4901784	143	C	06/04/2019	10:43	-132.502	42.826	0	214.70	0	8.1790	0	35.5060	8	27.648	0	212.889	0	176.1	4	61.9	4	-1E+10	1	-1E+10	1	-1E+10	1	-1E+10	1	-1E+10	1	-1E+10	1
4901784	143	C	06/04/2019	10:43	-132.502	42.826	0	217.20	0	8.1800	0	35.5110	8	27.652	0	215.367	0	174.5	4	61.3	4	-1E+10	1	-1E+10	1	-1E+10	1	-1E+10	1	-1E+10	1	-1E+10	1
4901784	143	C	06/04/2019	10:43	-132.502	42.826	0	219.70	0	8.1890	0	35.5200	8	27.657	0	217.844	0	172.5	4	60.6	4	-1E+10	1	-1E+10	1	-1E+10	1	-1E+10	1	-1E+10	1	-1E+10	1
4901784	143	C	06/04/2019	10:43	-132.502	42.826	0	222.40	0	8.1630	0	35.5400	8	27.677	0	220.520	0	170.9	4	60.0	4	-1E+10	1	-1E+10	1	-1E+10	1	-1E+10	1	-1E+10	1	-1E+10	1
4901784	143	C	06/04/2019	10:43	-132.502	42.826	0	225.10	0	8.1280	0	35.5520	8	27.692	0	223.196	0	169.8	4	59.6	4	-1E+10	1	-1E+10	1	-1E+10	1	-1E+10	1	-1E+10	1	-1E+10	1
4901784	143	C	06/04/2019	10:43	-132.502	42.826	0	227.70	0	8.1000	0	35.5580	8	27.701	0	225.772	0	168.9	4	59.3	4	-1E+10	1	-1E+10	1	-1E+10	1	-1E+10	1	-1E+10	1	-1E+10	1
4901784	143	C	06/04/2019	10:43	-132.502	42.826	0	230.30	0	8.0730	0	35.5620	8	27.708	0	228.349	0	167.9	4	58.9	4	-1E+10	1	-1E+10	1	-1E+10	1	-1E+10	1	-1E+10	1	-1E+10	1
4901784	143	C	06/04/2019	10:43	-132.502	42.826	0	232.90	0	8.0530	0	35.5650	8	27.714	0	230.926	0	167.2	4	58.6	4	-1E+10	1	-1E+10	1	-1E+10	1	-1E+10	1	-1E+10	1	-1E+10	1
4901784	143	C	06/04/2019	10:43	-132.502	42.826	0	235.50	0	8.0280	0	35.5690	8	27.721	0	233.502	0	166.8	4	58.4	4	-1E+10	1	-1E+10	1	-1E+10	1	-1E+10	1	-1E+10	1	-1E+10	1
4901784	143	C	06/04/2019	10:43	-132.502	42.826	0	237.20	0	8.0100	0	35.5700	8	27.724	0	235.187	0	166.4	4	58.2	4	-1E+10	1	-1E+10	1	-1E+10	1	-1E+10	1	-1E+10	1	-1E+10	1
4901784	143	C	06/04/2019	10:43	-132.502	42.826	0	239.70	0	7.9970	0	35.5700	8	27.726	0	237.664	0	165.7	4	58.0	4	-1E+10	1	-1E+10	1	-1E+10	1	-1E+10	1	-1E+10	1	-1E+10	1
4901784	143	C	06/04/2019	10:43	-132.502	42.826	0	242.20	0	7.9700	0	35.5710	8	27.731	0	240.141	0	164.5	4	57.5	4	-1E+10	1	-1E+10	1	-1E+10	1	-1E+10	1	-1E+10	1	-1E+10	1
4901784	143	C	06/04/2019	10:43	-132.502	42.826	0	244.80	0	7.9110	0	35.5750	8	27.743	0	242.718	0	162.9	4	56.9	4	-1E+10	1	-1E+10	1	-1E+10	1	-1E+10	1	-1E+10	1	-1E+10	1
4901784	143	C	06/04/2019	10:43	-132.502	42.826	0	247.40	0	7.8650	0	35.5750	8	27.750	0	245.294	0	161.9	4	56.5	4	-1E+10	1	-1E+10	1	-1E+10	1	-1E+10	1	-1E+10	1	-1E+10	1
4901784	143	C	06/04/2019	10:43	-132.502	42.826	0	249.90	0	7.8110	0	35.5760	8	27.759	0	247.771	0	161.2	4	56.2	4	-1E+10	1	-1E+10	1	-1E+10	1	-1E+10	1	-1E+10	1	-1E+10	1
4901784	143	C	06/04/2019	10:43	-132.502	42.826	0	252.50	0	7.7760	0	35.5750	8	27.763	0	250.348	0	160.5	4	55.9	4	-1E+10	1	-1E+10	1	-1E+10	1	-1E+10	1	-1E+10	1	-1E+10	1
4901784	143	C	06/04/2019	10:43	-132.502	42.826	0	254.90	0	7.7090	0	35.5770	8	27.775	0	252.726	0	159.8	4	55.6	4	-1E+10	1	-1E+10	1	-1E+10	1	-1E+10	1	-1E+10	1	-1E+10	1
4901784	143	C	06/04/2019	10:43	-132.502	42.826	0	257.40	0	7.6380	0	35.5770	8	27.786	0	255.203	0	159.3	4	55.3	4	-1E+10	1	-1E+10	1	-1E+10	1	-1E+10	1	-1E+10	1	-1E+10	1
4901784	143	C	06/04/2019	10:43	-132.502	42.826	0	260.00	0	7.5920	0	35.5760	8	27.792	0	257.779	0	158.3	4	54.9	4	-1E+10	1	-1E+10	1	-1E+10	1	-1E+10	1	-1E+10	1	-1E+10	1
4901784	143	C	06/04/2019	10:43	-132.502	42.826	0	262.50	0	7.5230	0	35.5760	8	27.802	0	260.256	0	157.3	4	54.5	4	-1E+10	1	-1E+10	1	-1E+10	1	-1E+10	1	-1E+10	1	-1E+10	1
4901784	143	C	06/04/2019	10:43	-132.502	42.826	0	265.10	0	7.4670	0	35.5780	8	27.811	0	262.832	0	156.1	4	54.0	4	-1E+10	1	-1E+10	1	-1E+10	1	-1E+10	1	-1E+10	1	-1E+10	1
4901784	143	C	06/04/2019	10:43	-132.502	42.826	0	267.60	0	7.4320	0	35.5740	8	27.813	0	265.309	0	154.2	4	53.3	4	-1E+10	1	-1E+10	1	-1E+10	1	-1E+10	1	-1E+10	1	-1E+10	1
4901784	143	C	06/04/2019	10:43	-132.502	42.826	0	270.30	0	7.3360	0	35.5760	8	27.829	0	267.984	0	152.3	4	52.5	4	-1E+10	1	-1E+10	1	-1E+10	1	-1E+10	1	-1E+10	1	-1E+10	1
4901784	143	C	06/04/2019	10:43	-132.502	42.826	0	272.90	0	7.3110	0	35.5740	8	27.831	0	270.560	0	149.8	4	51.6	4	-1E+10	1	-1E+10	1	-1E+10	1	-1E+10	1	-1E+10	1	-1E+10	1
4901784	143	C	06/04/2019	10:43	-132.502	42.826	0	274.60	0	7.2670	0	35.5720	8	27.836	0	272.245	0	147.8	4	50.9	4	-1E+10	1	-1E+10	1	-1E+10	1	-1E+10	1	-1E+10	1	-1E+10	1
4901784	143	C	06/04/2019	10:43	-132.502	42.826	0	277.20	0	7.1660	0	35.5730	8	27.851	0	274.821	0	145.9	4	50.1	4	-1E+10	1	-1E+10	1	-1E+10	1	-1E+10	1	-1E+10	1	-1E+10	1
4901784	143	C	06/04/2019	10:43	-132.502	42.826	0	279.90	0	7.1170	0	35.5730	8	27.858	0	277.496	0	143.6	4	49.3	4	-1E+10	1	-1E+10	1	-1E+10	1	-1E+10	1	-1E+10	1	-1E+10	1
4901784	143	C	06/04/2019	10:43	-132.502	42.826	0	282.50	0	7.0730	0	35.5720	8	27.863	0	280.072	0	141.6	4	48.5	4	-1E+10	1	-1E+10	1	-1E+10	1	-1E+10	1	-1E+10	1	-1E+10	1
4901784	143	C	06/04/2019	10:43	-132.502	42.826	0	285.00	0	7.0350	0	35.5720	8	27.869	0	282.548	0	139.7	4	47.8	4	-1E+10	1	-1E+10	1	-1E+10	1	-1E+10	1	-1E+10	1	-1E+10	1
4901784	143	C	06/04/2019	10:43	-132.502	42.826	0	287.70	0	6.9690	0	35.5720	8	27.878	0	285.223	0	137.8	4	47.1	4	-1E+10	1	-1E+10	1	-1E+10	1	-1E+10	1	-1E+10	1	-1E+10	1
4901784	143	C	06/04/2019	10:43	-132.502	42.826	0	290.50	0	6.8830	0	35.5750	8	27.892	0	287.997	0	136.0	4	46.4	4	-1E+10	1	-1E+10	1	-1E+10	1	-1E+10	1	-1E+10	1	-1E+10	1
4901784	143	C	06/04/2019	10:43	-132.502	42.826	0	292.30	0	6.8520	0	35.5750	8	27.897	0	289.780	0	134.9	4	46.0	4	-1E+10	1	-1E+10	1	-1E+10	1	-1E+10	1	-1E+10	1	-1E+10	1
4901784	143	C	06/04/2019	10:43	-132.502	42.826	0	294.90	0	6.8110	0	35.5760	8	27.903	0	292.356	0	133.0	4	45.3	4	-1E+10	1	-1E+10	1	-1E+10	1	-1E+10	1	-1E+10	1	-1E+10	1
4901784	143	C	06/04/2019	10:43	-132.502	42.826	0	297.50	0	6.7780	0	35.5770	8	27.909	0	294.932	0	130.7	4	44.5	4	-1E+10	1	-1E+10	1	-1E+10	1	-1E+10	1	-1E+10	1	-1E+10	1
4901784	143	C	06/04/2019	10:43	-132.502	42.826	0	300.10	0	6.7300	0	35.5770	8	27.915	0	297.508	0	128.4	4	43.7	4	-1E+10	1	-1E+10	1	-1E+10	1	-1E+10	1	-1E+10	1	-1E+10	1
4901784	143	C	06/04/2019	10:43	-132.502	42.826	0	302.90	0	6.6870	0	35.5770	8	27.921	0	300.281	0	125.6	4	42.7	4	-1E+10	1	-1E+10	1	-1E+10	1	-1E+10	1	-1E+10	1	-1E+10	1
4901784	143	C	06/04/2019	10:43	-132.502	42.826	0	304.70	0	6.6450	0	35.5790	8	27.929	0	302.064	0	123.8	4	42.0	4	-1E+10	1	-1E+10	1	-1E+10	1	-1E+10	1	-1E+10	1	-1E+10	1
4901784	143	C	06/04/2019	10:43	-132.502	42.826	0	307.40	0	6.5900	0	35.5800	8	27.937	0	304.739	0	121.7	4	41.3	4	-1E+10	1	-1E+10	1	-1E+10	1	-1E+10	1	-1E+10	1	-1E+10	1
4901784	143	C	06/04/2019	10:43	-132.502	42.826	0	310.10	0	6.5600	0	35.5810	8	27.942	0	307.414	0	120.0	4	40.7	4	-1E+10	1	-1E+10	1	-1E+10	1	-1E+10	1	-1E+10	1	-1E+10	1
4901784	143	C	06/04/2019	10:43	-132.502	42.826	0	312.80	0	6.5090	0	35.5810	8	27.949	0	310.088	0	118.4	4	40.1	4	-1E+10	1	-1E+10	1	-1E+10	1	-1E+10	1	-1E+10	1	-1E+10	1
4901784	143	C	06/04/2019	10:43	-132.502	42.826	0	315.50	0	6.4730	0	35.5820	8	27.954	0	312.763	0	116.7	4	39.5	4	-1E+10	1	-1E+10	1	-1E+10	1	-1E+10	1	-1E+10	1	-1E+10	1
4901784	143	C	06/04/2019	10:43	-132.502	42.826	0	317.40	0	6.4490	0	35.5820	8	27.958	0	314.645	0	115.6	4	39.1	4	-1E+10	1	-1E+10	1	-1E+10	1	-1E+10	1	-1E+10	1	-1E+10	1
4901784	143	C	06/04/2019	10:43	-132.502	42.826	0	320.20	0	6.4110	0	35.5810	8	27.962	0	317.419	0	113.7	4	38.4	4	-1E+10	1	-1E+10	1	-1E+10	1	-1E+10	1	-1E+10	1	-1E+10	1
4901784	143	C	06/04/2019	10:43	-132.502	42.826	0	323.00	0	6.3470	0	35.5820	8	27.971	0	320.192	0	111.8	4	37.7	4	-1E+10	1	-1E+10	1	-1E+10	1	-1E+10	1	-1E+10	1	-1E+10	1
4901784	143	C	06/04/2019	10:43	-132.502	42.826	0	324.90	0	6.3100	0	35.5860	8	27.979	0	322.074	0	110.7	4	37.3	4	-1E+10	1	-1E+10	1	-1E+10	1	-1E+10	1	-1E+10	1	-1E+10	1
4901784	143	C	06/04/2019	10:43	-132.502	42.826	0	326.80	0	6.2730	0	35.5850	8	27.983	0	323.956	0	109.9	4	37.0	4	-1E+10	1	-1E+10	1	-1E+10	1	-1E+10	1	-1E+10	1	-1E+10	1
4901784	143	C	06/04/2019	10:43	-132.502	42.826	0	329.70	0	6.2390	0	35.5850	8	27.988	0	326.829	0	108.9	4	36.6	4	-1E+10	1	-1E+10	1	-1E+10	1	-1E+10	1	-1E+10	1	-1E+10	1
4901784	143	C	06/04/2019	10:43	-132.502	42.826	0	332.50	0	6.2230	0	35.5850	8	27.990	0	329.602	0	108.0	4	36.3	4	-1E+10	1	-1E+10	1	-1E+10	1	-1E+10	1	-1E+10	1	-1E+10	1
4901784	143	C	06/04/2019	10:43	-132.502	42.826	0	335.30	0	6.1890	0	35.5850	8	27.995	0	332.375	0	106.9	4	35.9	4	-1E+10	1	-1E+10	1	-1E+10	1	-1E+10	1	-1E+10	1	-1E+10	1
4901784	143	C	06/04/2019	10:43	-132.502	42.826	0	338.40	0	6.1450	0	35.5870	8	28.002	0	335.446	0	105.8	4	35.5	4	-1E+10	1	-1E+10	1	-1E+10	1	-1E+10	1	-1E+10	1	-1E+10	1
4901784	143	C	06/04/2019	10:43	-132.502	42.826	0	339.80	0	6.1250	0	35.5870	8	28.005	0	336.832	0	105.3	4	35.3	4	-1E+10	1	-1E+10	1	-1E+10	1	-1E+10	1	-1E+10	1	-1E+10	1
4901784	143	C	06/04/2019	10:43	-132.502	42.826	0	342.20	0	6.0930	0	35.5880	8	28.010	0	339.209	0	104.6	4	35.1	4	-1E+10	1	-1E+10	1	-1E+10	1	-1E+10	1	-1E+10	1	-1E+10	1
4901784	143	C	06/04/2019	10:43	-132.502	42.826	0	344.70	0	6.0740	0	35.5890	8	28.013	0	341.686	0	104.0	4	34.8	4	-1E+10	1	-1E+10	1	-1E+10	1	-1E+10	1	-1E+10	1	-1E+10	1
4901784	143	C	06/04/2019	10:43	-132.502	42.826	0	347.20	0	6.0740	0	35.5880	8	28.012	0	344.162	0	103.2	4	34.6	4	-1E+10	1	-1E+10	1	-1E+10	1	-1E+10	1	-1E+10	1	-1E+10	1
4901784	143	C	06/04/2019	10:43	-132.502	42.826	0	349.60	0	6.0390	0	35.5880	8	28.017	0	346.539	0	102.1	4	34.2	4	-1E+10	1	-1E+10	1	-1E+10	1	-1E+10	1	-1E+10	1	-1E+10	1
4901784	143	C	06/04/2019	10:43	-132.502	42.826	0	352.10	0	5.9820	0	35.5910	8	28.027	0	349.015	0	101.5	4	33.9	4	-1E+10	1	-1E+10	1	-1E+10	1	-1E+10	1	-1E+10	1	-1E+10	1
4901784	143	C	06/04/2019	10:43	-132.502	42.826	0	354.60	0	5.9680	0	35.5920	8	28.029	0	351.491	0	101.1	4	33.8	4	-1E+10	1	-1E+10	1	-1E+10	1	-1E+10	1	-1E+10	1	-1E+10	1
4901784	143	C	06/04/2019	10:43	-132.502	42.826	0	357.90	0	5.9570	0	35.5930	8	28.031	0	354.759	0	100.6	4	33.6	4	-1E+10	1	-1E+10	1	-1E+10	1	-1E+10	1	-1E+10	1	-1E+10	1
4901784	143	C	06/04/2019	10:43	-132.502	42.826	0	360.40	0	5.9540	0	35.5920	8	28.031	0	357.235	0	100.0	4	33.4	4	-1E+10	1	-1E+10	1	-1E+10	1	-1E+10	1	-1E+10	1	-1E+10	1
4901784	143	C	06/04/2019	10:43	-132.502	42.826	0	362.90	0	5.9370	0	35.5930	8	28.034	0	359.711	0	99.1	4	33.1	4	-1E+10	1	-1E+10	1	-1E+10	1	-1E+10	1	-1E+10	1	-1E+10	1
4901784	143	C	06/04/2019	10:43	-132.502	42.826	0	365.40	0	5.9100	0	35.5940	8	28.038	0	362.186	0	98.3	4	32.8	4	-1E+10	1	-1E+10	1	-1E+10	1	-1E+10	1	-1E+10	1	-1E+10	1
4901784	143	C	06/04/2019	10:43	-132.502	42.826	0	367.80	0	5.9030	0	35.5930	8	28.038	0	364.563	0	97.2	4	32.5	4	-1E+10	1	-1E+10	1	-1E+10	1	-1E+10	1	-1E+10	1	-1E+10	1
4901784	143	C	06/04/2019	10:43	-132.502	42.826	0	370.30	0	5.8710	0	35.5920	8	28.042	0	367.039	0	95.7	4	31.9	4	-1E+10	1	-1E+10	1	-1E+10	1	-1E+10	1	-1E+10	1	-1E+10	1
4901784	143	C	06/04/2019	10:43	-132.502	42.826	0	372.80	0	5.8050	0	35.5960	8	28.053	0	369.515	0	94.4	4	31.4	4	-1E+10	1	-1E+10	1	-1E+10	1	-1E+10	1	-1E+10	1	-1E+10	1
4901784	143	C	06/04/2019	10:43	-132.502	42.826	0	375.30	0	5.7730	0	35.5950	8	28.057	0	371.990	0	93.4	4	31.1	4	-1E+10	1	-1E+10	1	-1E+10	1	-1E+10	1	-1E+10	1	-1E+10	1
4901784	143	C	06/04/2019	10:43	-132.502	42.826	0	377.90	0	5.7130	0	35.5980	8	28.067	0	374.565	0	92.2	4	30.6	4	-1E+10	1	-1E+10	1	-1E+10	1	-1E+10	1	-1E+10	1	-1E+10	1
4901784	143	C	06/04/2019	10:43	-132.502	42.826	0	380.40	0	5.6760	0	35.6000	8	28.073	0	377.041	0	91.4	4	30.3	4	-1E+10	1	-1E+10	1	-1E+10	1	-1E+10	1	-1E+10	1	-1E+10	1
4901784	143	C	06/04/2019	10:43	-132.502	42.826	0	382.10	0	5.6640	0	35.6000	8	28.074	0	378.724	0	90.9	4	30.2	4	-1E+10	1	-1E+10	1	-1E+10	1	-1E+10	1	-1E+10	1	-1E+10	1
4901784	143	C	06/04/2019	10:43	-132.502	42.826	0	384.70	0	5.6290	0	35.6030	8	28.081	0	381.299	0	90.0	4	29.9	4	-1E+10	1	-1E+10	1	-1E+10	1	-1E+10	1	-1E+10	1	-1E+10	1
4901784	143	C	06/04/2019	10:43	-132.502	42.826	0	387.20	0	5.6040	0	35.6040	8	28.085	0	383.775	0	89.3	4	29.6	4	-1E+10	1	-1E+10	1	-1E+10	1	-1E+10	1	-1E+10	1	-1E+10	1
4901784	143	C	06/04/2019	10:43	-132.502	42.826	0	389.70	0	5.5920	0	35.6040	8	28.087	0	386.250	0	88.4	4	29.3	4	-1E+10	1	-1E+10	1	-1E+10	1	-1E+10	1	-1E+10	1	-1E+10	1
4901784	143	C	06/04/2019	10:43	-132.502	42.826	0	392.30	0	5.5690	0	35.6060	8	28.091	0	388.825	0	87.5	4	29.0	4	-1E+10	1	-1E+10	1	-1E+10	1	-1E+10	1	-1E+10	1	-1E+10	1
4901784	143	C	06/04/2019	10:43	-132.502	42.826	0	394.80	0	5.5350	0	35.6070	8	28.096	0	391.300	0	86.4	4	28.6	4	-1E+10	1	-1E+10	1	-1E+10	1	-1E+10	1	-1E+10	1	-1E+10	1
4901784	143	C	06/04/2019	10:43	-132.502	42.826	0	397.40	0	5.5110	0	35.6090	8	28.101	0	393.875	0	85.6	4	28.3	4	-1E+10	1	-1E+10	1	-1E+10	1	-1E+10	1	-1E+10	1	-1E+10	1
4901784	143	C	06/04/2019	10:43	-132.502	42.826	0	400.00	0	5.4880	0	35.6090	8	28.104	0	396.449	0	84.7	4	28.0	4	-1E+10	1	-1E+10	1	-1E+10	1	-1E+10	1	-1E+10	1	-1E+10	1
4901784	143	C	06/04/2019	10:43	-132.502	42.826	0	402.50	0	5.4560	0	35.6120	8	28.110	0	398.924	0	83.7	4	27.7	4	-1E+10	1	-1E+10	1	-1E+10	1	-1E+10	1	-1E+10	1	-1E+10	1
4901784	143	C	06/04/2019	10:43	-132.502	42.826	0	405.10	0	5.4390	0	35.6110	8	28.111	0	401.499	0	82.7	4	27.3	4	-1E+10	1	-1E+10	1	-1E+10	1	-1E+10	1	-1E+10	1	-1E+10	1
4901784	143	C	06/04/2019	10:43	-132.502	42.826	0	407.70	0	5.4130	0	35.6130	8	28.116	0	404.073	0	81.2	4	26.8	4	-1E+10	1	-1E+10	1	-1E+10	1	-1E+10	1	-1E+10	1	-1E+10	1
4901784	143	C	06/04/2019	10:43	-132.502	42.826	0	410.40	0	5.3580	0	35.6160	8	28.125	0	406.747	0	79.6	4	26.2	4	-1E+10	1	-1E+10	1	-1E+10	1	-1E+10	1	-1E+10	1	-1E+10	1
4901784	143	C	06/04/2019	10:43	-132.502	42.826	0	413.00	0	5.3060	0	35.6220	8	28.136	0	409.321	0	78.3	4	25.8	4	-1E+10	1	-1E+10	1	-1E+10	1	-1E+10	1	-1E+10	1	-1E+10	1
4901784	143	C	06/04/2019	10:43	-132.502	42.826	0	414.80	0	5.2820	0	35.6230	8	28.140	0	411.103	0	77.6	4	25.5	4	-1E+10	1	-1E+10	1	-1E+10	1	-1E+10	1	-1E+10	1	-1E+10	1
4901784	143	C	06/04/2019	10:43	-132.502	42.826	0	417.50	0	5.2630	0	35.6240	8	28.143	0	413.776	0	76.5	4	25.1	4	-1E+10	1	-1E+10	1	-1E+10	1	-1E+10	1	-1E+10	1	-1E+10	1
4901784	143	C	06/04/2019	10:43	-132.502	42.826	0	420.10	0	5.2260	0	35.6280	8	28.151	0	416.350	0	75.3	4	24.7	4	-1E+10	1	-1E+10	1	-1E+10	1	-1E+10	1	-1E+10	1	-1E+10	1
4901784	143	C	06/04/2019	10:43	-132.502	42.826	0	422.80	0	5.2020	0	35.6310	8	28.156	0	419.024	0	74.2	4	24.4	4	-1E+10	1	-1E+10	1	-1E+10	1	-1E+10	1	-1E+10	1	-1E+10	1
4901784	143	C	06/04/2019	10:43	-132.502	42.826	0	425.40	0	5.1810	0	35.6320	8	28.159	0	421.598	0	73.0	4	24.0	4	-1E+10	1	-1E+10	1	-1E+10	1	-1E+10	1	-1E+10	1	-1E+10	1
4901784	143	C	06/04/2019	10:43	-132.502	42.826	0	427.20	0	5.1470	0	35.6370	8	28.167	0	423.380	0	72.3	4	23.7	4	-1E+10	1	-1E+10	1	-1E+10	1	-1E+10	1	-1E+10	1	-1E+10	1
4901784	143	C	06/04/2019	10:43	-132.502	42.826	0	429.80	0	5.1280	0	35.6400	8	28.172	0	425.954	0	71.5	4	23.4	4	-1E+10	1	-1E+10	1	-1E+10	1	-1E+10	1	-1E+10	1	-1E+10	1
4901784	143	C	06/04/2019	10:43	-132.502	42.826	0	432.50	0	5.1190	0	35.6410	8	28.174	0	428.627	0	70.7	4	23.2	4	-1E+10	1	-1E+10	1	-1E+10	1	-1E+10	1	-1E+10	1	-1E+10	1
4901784	143	C	06/04/2019	10:43	-132.502	42.826	0	435.20	0	5.1050	0	35.6430	8	28.177	0	431.300	0	69.7	4	22.8	4	-1E+10	1	-1E+10	1	-1E+10	1	-1E+10	1	-1E+10	1	-1E+10	1
4901784	143	C	06/04/2019	10:43	-132.502	42.826	0	437.80	0	5.0930	0	35.6450	8	28.180	0	433.874	0	68.4	4	22.4	4	-1E+10	1	-1E+10	1	-1E+10	1	-1E+10	1	-1E+10	1	-1E+10	1
4901784	143	C	06/04/2019	10:43	-132.502	42.826	0	439.70	0	5.0870	0	35.6470	8	28.183	0	435.755	0	67.4	4	22.1	4	-1E+10	1	-1E+10	1	-1E+10	1	-1E+10	1	-1E+10	1	-1E+10	1
4901784	143	C	06/04/2019	10:43	-132.502	42.826	0	442.40	0	5.0520	0	35.6540	8	28.192	0	438.428	0	66.2	4	21.7	4	-1E+10	1	-1E+10	1	-1E+10	1	-1E+10	1	-1E+10	1	-1E+10	1
4901784	143	C	06/04/2019	10:43	-132.502	42.826	0	445.10	0	5.0470	0	35.6550	8	28.194	0	441.101	0	65.1	4	21.3	4	-1E+10	1	-1E+10	1	-1E+10	1	-1E+10	1	-1E+10	1	-1E+10	1
4901784	143	C	06/04/2019	10:43	-132.502	42.826	0	447.80	0	5.0340	0	35.6610	8	28.200	0	443.774	0	64.1	4	21.0	4	-1E+10	1	-1E+10	1	-1E+10	1	-1E+10	1	-1E+10	1	-1E+10	1
4901784	143	C	06/04/2019	10:43	-132.502	42.826	0	450.50	0	5.0270	0	35.6620	8	28.202	0	446.446	0	63.3	4	20.7	4	-1E+10	1	-1E+10	1	-1E+10	1	-1E+10	1	-1E+10	1	-1E+10	1
4901784	143	C	06/04/2019	10:43	-132.502	42.826	0	452.30	0	5.0200	0	35.6640	8	28.204	0	448.228	0	62.7	4	20.5	4	-1E+10	1	-1E+10	1	-1E+10	1	-1E+10	1	-1E+10	1	-1E+10	1
4901784	143	C	06/04/2019	10:43	-132.502	42.826	0	454.90	0	5.0130	0	35.6670	8	28.207	0	450.802	0	61.8	4	20.2	4	-1E+10	1	-1E+10	1	-1E+10	1	-1E+10	1	-1E+10	1	-1E+10	1
4901784	143	C	06/04/2019	10:43	-132.502	42.826	0	457.60	0	5.0020	0	35.6690	8	28.210	0	453.475	0	60.8	4	19.9	4	-1E+10	1	-1E+10	1	-1E+10	1	-1E+10	1	-1E+10	1	-1E+10	1
4901784	143	C	06/04/2019	10:43	-132.502	42.826	0	460.30	0	4.9910	0	35.6720	8	28.214	0	456.148	0	59.7	4	19.5	4	-1E+10	1	-1E+10	1	-1E+10	1	-1E+10	1	-1E+10	1	-1E+10	1
4901784	143	C	06/04/2019	10:43	-132.502	42.826	0	462.90	0	4.9800	0	35.6750	8	28.218	0	458.721	0	58.5	4	19.1	4	-1E+10	1	-1E+10	1	-1E+10	1	-1E+10	1	-1E+10	1	-1E+10	1
4901784	143	C	06/04/2019	10:43	-132.502	42.826	0	464.70	0	4.9560	0	35.6820	8	28.226	0	460.503	0	57.7	4	18.9	4	-1E+10	1	-1E+10	1	-1E+10	1	-1E+10	1	-1E+10	1	-1E+10	1
4901784	143	C	06/04/2019	10:43	-132.502	42.826	0	467.50	0	4.9520	0	35.6820	8	28.227	0	463.275	0	57.0	4	18.6	4	-1E+10	1	-1E+10	1	-1E+10	1	-1E+10	1	-1E+10	1	-1E+10	1
4901784	143	C	06/04/2019	10:43	-132.502	42.826	0	470.30	0	4.9450	0	35.6830	8	28.228	0	466.046	0	56.1	4	18.3	4	-1E+10	1	-1E+10	1	-1E+10	1	-1E+10	1	-1E+10	1	-1E+10	1
4901784	143	C	06/04/2019	10:43	-132.502	42.826	0	472.10	0	4.9340	0	35.6860	8	28.232	0	467.828	0	55.4	4	18.1	4	-1E+10	1	-1E+10	1	-1E+10	1	-1E+10	1	-1E+10	1	-1E+10	1
4901784	143	C	06/04/2019	10:43	-132.502	42.826	0	474.90	0	4.9230	0	35.6890	8	28.236	0	470.599	0	54.1	4	17.7	4	-1E+10	1	-1E+10	1	-1E+10	1	-1E+10	1	-1E+10	1	-1E+10	1
4901784	143	C	06/04/2019	10:43	-132.502	42.826	0	477.60	0	4.9120	0	35.6920	8	28.239	0	473.272	0	52.8	4	17.2	4	-1E+10	1	-1E+10	1	-1E+10	1	-1E+10	1	-1E+10	1	-1E+10	1
4901784	143	C	06/04/2019	10:43	-132.502	42.826	0	479.40	0	4.9010	0	35.7000	8	28.247	0	475.053	0	51.8	4	16.9	4	-1E+10	1	-1E+10	1	-1E+10	1	-1E+10	1	-1E+10	1	-1E+10	1
4901784	143	C	06/04/2019	10:43	-132.502	42.826	0	482.20	0	4.8970	0	35.7020	8	28.249	0	477.825	0	51.0	4	16.6	4	-1E+10	1	-1E+10	1	-1E+10	1	-1E+10	1	-1E+10	1	-1E+10	1
4901784	143	C	06/04/2019	10:43	-132.502	42.826	0	485.00	0	4.8950	0	35.7030	8	28.250	0	480.596	0	50.3	4	16.4	4	-1E+10	1	-1E+10	1	-1E+10	1	-1E+10	1	-1E+10	1	-1E+10	1
4901784	143	C	06/04/2019	10:43	-132.502	42.826	0	486.90	0	4.8860	0	35.7050	8	28.253	0	482.477	0	49.7	4	16.2	4	-1E+10	1	-1E+10	1	-1E+10	1	-1E+10	1	-1E+10	1	-1E+10	1
4901784	143	C	06/04/2019	10:43	-132.502	42.826	0	489.80	0	4.8610	0	35.7080	8	28.258	0	485.347	0	48.9	4	15.9	4	-1E+10	1	-1E+10	1	-1E+10	1	-1E+10	1	-1E+10	1	-1E+10	1
4901784	143	C	06/04/2019	10:43	-132.502	42.826	0	492.60	0	4.8330	0	35.7110	8	28.264	0	488.118	0	47.9	4	15.6	4	-1E+10	1	-1E+10	1	-1E+10	1	-1E+10	1	-1E+10	1	-1E+10	1
4901784	143	C	06/04/2019	10:43	-132.502	42.826	0	494.50	0	4.8100	0	35.7160	8	28.270	0	489.999	0	47.2	4	15.4	4	-1E+10	1	-1E+10	1	-1E+10	1	-1E+10	1	-1E+10	1	-1E+10	1
4901784	143	C	06/04/2019	10:43	-132.502	42.826	0	496.90	0	4.8030	0	35.7190	8	28.274	0	492.374	0	46.1	4	15.0	4	-1E+10	1	-1E+10	1	-1E+10	1	-1E+10	1	-1E+10	1	-1E+10	1
4901784	143	C	06/04/2019	10:43	-132.502	42.826	0	499.50	0	4.7960	0	35.7250	8	28.279	0	494.947	0	44.5	4	14.5	4	-1E+10	1	-1E+10	1	-1E+10	1	-1E+10	1	-1E+10	1	-1E+10	1
4901784	143	C	06/04/2019	10:43	-132.502	42.826	0	505.00	0	4.7910	0	35.7360	8	28.288	0	500.390	0	41.5	4	13.5	4	-1E+10	1	-1E+10	1	-1E+10	1	-1E+10	1	-1E+10	1	-1E+10	1
4901784	143	C	06/04/2019	10:43	-132.502	42.826	0	509.80	0	4.8020	0	35.7490	8	28.298	0	505.141	0	39.6	4	12.9	4	-1E+10	1	-1E+10	1	-1E+10	1	-1E+10	1	-1E+10	1	-1E+10	1
4901784	143	C	06/04/2019	10:43	-132.502	42.826	0	514.70	0	4.8030	0	35.7510	8	28.299	0	509.990	0	38.4	4	12.5	4	-1E+10	1	-1E+10	1	-1E+10	1	-1E+10	1	-1E+10	1	-1E+10	1
4901784	143	C	06/04/2019	10:43	-132.502	42.826	0	519.50	0	4.7950	0	35.7580	8	28.306	0	514.740	0	36.9	4	12.0	4	-1E+10	1	-1E+10	1	-1E+10	1	-1E+10	1	-1E+10	1	-1E+10	1
4901784	143	C	06/04/2019	10:43	-132.502	42.826	0	524.40	0	4.7790	0	35.7650	8	28.313	0	519.589	0	35.9	4	11.7	4	-1E+10	1	-1E+10	1	-1E+10	1	-1E+10	1	-1E+10	1	-1E+10	1
4901784	143	C	06/04/2019	10:43	-132.502	42.826	0	529.30	0	4.7670	0	35.7690	8	28.318	0	524.438	0	35.2	4	11.4	4	-1E+10	1	-1E+10	1	-1E+10	1	-1E+10	1	-1E+10	1	-1E+10	1
4901784	143	C	06/04/2019	10:43	-132.502	42.826	0	535.00	0	4.7520	0	35.7710	8	28.321	0	530.078	0	33.8	4	11.0	4	-1E+10	1	-1E+10	1	-1E+10	1	-1E+10	1	-1E+10	1	-1E+10	1
4901784	143	C	06/04/2019	10:43	-132.502	42.826	0	540.00	0	4.7300	0	35.7830	8	28.333	0	535.026	0	32.0	4	10.4	4	-1E+10	1	-1E+10	1	-1E+10	1	-1E+10	1	-1E+10	1	-1E+10	1
4901784	143	C	06/04/2019	10:43	-132.502	42.826	0	544.30	0	4.7210	0	35.7880	8	28.338	0	539.281	0	31.4	4	10.2	4	-1E+10	1	-1E+10	1	-1E+10	1	-1E+10	1	-1E+10	1	-1E+10	1
4901784	143	C	06/04/2019	10:43	-132.502	42.826	0	549.40	0	4.7080	0	35.7920	8	28.343	0	544.327	0	30.7	4	10.0	4	-1E+10	1	-1E+10	1	-1E+10	1	-1E+10	1	-1E+10	1	-1E+10	1
4901784	143	C	06/04/2019	10:43	-132.502	42.826	0	554.60	0	4.7000	0	35.7950	8	28.346	0	549.472	0	29.9	4	9.7	4	-1E+10	1	-1E+10	1	-1E+10	1	-1E+10	1	-1E+10	1	-1E+10	1
4901784	143	C	06/04/2019	10:43	-132.502	42.826	0	559.70	0	4.6850	0	35.7990	8	28.351	0	554.518	0	29.0	4	9.4	4	-1E+10	1	-1E+10	1	-1E+10	1	-1E+10	1	-1E+10	1	-1E+10	1
4901784	143	C	06/04/2019	10:43	-132.502	42.826	0	564.90	0	4.6490	0	35.8060	8	28.361	0	559.663	0	28.3	4	9.2	4	-1E+10	1	-1E+10	1	-1E+10	1	-1E+10	1	-1E+10	1	-1E+10	1
4901784	143	C	06/04/2019	10:43	-132.502	42.826	0	570.20	0	4.5860	0	35.8090	8	28.370	0	564.907	0	28.3	4	9.2	4	-1E+10	1	-1E+10	1	-1E+10	1	-1E+10	1	-1E+10	1	-1E+10	1
4901784	143	C	06/04/2019	10:43	-132.502	42.826	0	575.40	0	4.5280	0	35.8140	8	28.381	0	570.051	0	27.4	4	8.9	4	-1E+10	1	-1E+10	1	-1E+10	1	-1E+10	1	-1E+10	1	-1E+10	1
4901784	143	C	06/04/2019	10:43	-132.502	42.826	0	579.80	0	4.5340	0	35.8210	8	28.386	0	574.404	0	26.5	4	8.6	4	-1E+10	1	-1E+10	1	-1E+10	1	-1E+10	1	-1E+10	1	-1E+10	1
4901784	143	C	06/04/2019	10:43	-132.502	42.826	0	584.30	0	4.4760	0	35.8250	8	28.396	0	578.856	0	26.2	4	8.5	4	-1E+10	1	-1E+10	1	-1E+10	1	-1E+10	1	-1E+10	1	-1E+10	1
4901784	143	C	06/04/2019	10:43	-132.502	42.826	0	589.80	0	4.4370	0	35.8290	8	28.403	0	584.297	0	25.5	4	8.2	4	-1E+10	1	-1E+10	1	-1E+10	1	-1E+10	1	-1E+10	1	-1E+10	1
4901784	143	C	06/04/2019	10:43	-132.502	42.826	0	595.30	0	4.4080	0	35.8380	8	28.414	0	589.738	0	24.2	4	7.8	4	-1E+10	1	-1E+10	1	-1E+10	1	-1E+10	1	-1E+10	1	-1E+10	1
4901784	143	C	06/04/2019	10:43	-132.502	42.826	0	599.90	0	4.4420	0	35.8470	8	28.417	0	594.289	0	23.6	4	7.6	4	-1E+10	1	-1E+10	1	-1E+10	1	-1E+10	1	-1E+10	1	-1E+10	1
4901784	143	C	06/04/2019	10:43	-132.502	42.826	0	604.50	0	4.4110	0	35.8450	8	28.419	0	598.839	0	23.9	4	7.7	4	-1E+10	1	-1E+10	1	-1E+10	1	-1E+10	1	-1E+10	1	-1E+10	1
4901784	143	C	06/04/2019	10:43	-132.502	42.826	0	610.00	0	4.3650	0	35.8470	8	28.426	0	604.280	0	24.0	4	7.7	4	-1E+10	1	-1E+10	1	-1E+10	1	-1E+10	1	-1E+10	1	-1E+10	1
4901784	143	C	06/04/2019	10:43	-132.502	42.826	0	615.60	0	4.3180	0	35.8480	8	28.432	0	609.819	0	23.7	4	7.6	4	-1E+10	1	-1E+10	1	-1E+10	1	-1E+10	1	-1E+10	1	-1E+10	1
4901784	143	C	06/04/2019	10:43	-132.502	42.826	0	620.30	0	4.3130	0	35.8510	8	28.435	0	614.468	0	22.9	4	7.4	4	-1E+10	1	-1E+10	1	-1E+10	1	-1E+10	1	-1E+10	1	-1E+10	1
4901784	143	C	06/04/2019	10:43	-132.502	42.826	0	625.00	0	4.3000	0	35.8610	8	28.444	0	619.117	0	22.2	4	7.1	4	-1E+10	1	-1E+10	1	-1E+10	1	-1E+10	1	-1E+10	1	-1E+10	1
4901784	143	C	06/04/2019	10:43	-132.502	42.826	0	629.80	0	4.2930	0	35.8650	8	28.448	0	623.864	0	21.6	4	7.0	4	-1E+10	1	-1E+10	1	-1E+10	1	-1E+10	1	-1E+10	1	-1E+10	1
4901784	143	C	06/04/2019	10:43	-132.502	42.826	0	634.70	0	4.2940	0	35.8700	8	28.452	0	628.711	0	21.0	4	6.8	4	-1E+10	1	-1E+10	1	-1E+10	1	-1E+10	1	-1E+10	1	-1E+10	1
4901784	143	C	06/04/2019	10:43	-132.502	42.826	0	640.40	0	4.3010	0	35.8740	8	28.455	0	634.348	0	20.6	4	6.6	4	-1E+10	1	-1E+10	1	-1E+10	1	-1E+10	1	-1E+10	1	-1E+10	1
4901784	143	C	06/04/2019	10:43	-132.502	42.826	0	645.40	0	4.2880	0	35.8790	8	28.460	0	639.293	0	20.4	4	6.6	4	-1E+10	1	-1E+10	1	-1E+10	1	-1E+10	1	-1E+10	1	-1E+10	1
4901784	143	C	06/04/2019	10:43	-132.502	42.826	0	649.90	0	4.2600	0	35.8820	8	28.466	0	643.744	0	20.2	4	6.5	4	-1E+10	1	-1E+10	1	-1E+10	1	-1E+10	1	-1E+10	1	-1E+10	1
4901784	143	C	06/04/2019	10:43	-132.502	42.826	0	654.70	0	4.2480	0	35.8830	8	28.468	0	648.491	0	20.0	4	6.4	4	-1E+10	1	-1E+10	1	-1E+10	1	-1E+10	1	-1E+10	1	-1E+10	1
4901784	143	C	06/04/2019	10:43	-132.502	42.826	0	659.60	0	4.2350	0	35.8870	8	28.472	0	653.337	0	19.7	4	6.3	4	-1E+10	1	-1E+10	1	-1E+10	1	-1E+10	1	-1E+10	1	-1E+10	1
4901784	143	C	06/04/2019	10:43	-132.502	42.826	0	664.50	0	4.2170	0	35.8900	8	28.477	0	658.182	0	19.3	4	6.2	4	-1E+10	1	-1E+10	1	-1E+10	1	-1E+10	1	-1E+10	1	-1E+10	1
4901784	143	C	06/04/2019	10:43	-132.502	42.826	0	669.50	0	4.1950	0	35.8960	8	28.484	0	663.127	0	18.3	4	5.9	4	-1E+10	1	-1E+10	1	-1E+10	1	-1E+10	1	-1E+10	1	-1E+10	1
4901784	143	C	06/04/2019	10:43	-132.502	42.826	0	674.40	0	4.2230	0	35.9070	8	28.490	0	667.972	0	16.8	4	5.4	4	-1E+10	1	-1E+10	1	-1E+10	1	-1E+10	1	-1E+10	1	-1E+10	1
4901784	143	C	06/04/2019	10:43	-132.502	42.826	0	679.40	0	4.2620	0	35.9190	8	28.495	0	672.917	0	15.9	4	5.1	4	-1E+10	1	-1E+10	1	-1E+10	1	-1E+10	1	-1E+10	1	-1E+10	1
4901784	143	C	06/04/2019	10:43	-132.502	42.826	0	684.40	0	4.2320	0	35.9240	8	28.502	0	677.861	0	15.4	4	5.0	4	-1E+10	1	-1E+10	1	-1E+10	1	-1E+10	1	-1E+10	1	-1E+10	1
4901784	143	C	06/04/2019	10:43	-132.502	42.826	0	689.50	0	4.2520	0	35.9320	8	28.507	0	682.904	0	14.7	4	4.7	4	-1E+10	1	-1E+10	1	-1E+10	1	-1E+10	1	-1E+10	1	-1E+10	1
4901784	143	C	06/04/2019	10:43	-132.502	42.826	0	694.60	0	4.2440	0	35.9390	8	28.513	0	687.947	0	14.6	4	4.7	4	-1E+10	1	-1E+10	1	-1E+10	1	-1E+10	1	-1E+10	1	-1E+10	1
4901784	143	C	06/04/2019	10:43	-132.502	42.826	0	699.80	0	4.2020	0	35.9400	8	28.518	0	693.088	0	14.6	4	4.7	4	-1E+10	1	-1E+10	1	-1E+10	1	-1E+10	1	-1E+10	1	-1E+10	1
4901784	143	C	06/04/2019	10:43	-132.502	42.826	0	705.00	0	4.1680	0	35.9430	8	28.525	0	698.230	0	14.6	4	4.7	4	-1E+10	1	-1E+10	1	-1E+10	1	-1E+10	1	-1E+10	1	-1E+10	1
4901784	143	C	06/04/2019	10:43	-132.502	42.826	0	710.20	0	4.1400	0	35.9460	8	28.530	0	703.371	0	14.5	4	4.7	4	-1E+10	1	-1E+10	1	-1E+10	1	-1E+10	1	-1E+10	1	-1E+10	1
4901784	143	C	06/04/2019	10:43	-132.502	42.826	0	715.40	0	4.1210	0	35.9490	8	28.534	0	708.512	0	14.4	4	4.6	4	-1E+10	1	-1E+10	1	-1E+10	1	-1E+10	1	-1E+10	1	-1E+10	1
4901784	143	C	06/04/2019	10:43	-132.502	42.826	0	720.60	0	4.0950	0	35.9510	8	28.539	0	713.653	0	14.4	4	4.6	4	-1E+10	1	-1E+10	1	-1E+10	1	-1E+10	1	-1E+10	1	-1E+10	1
4901784	143	C	06/04/2019	10:43	-132.502	42.826	0	725.70	0	4.0740	0	35.9540	8	28.544	0	718.695	0	14.2	4	4.5	4	-1E+10	1	-1E+10	1	-1E+10	1	-1E+10	1	-1E+10	1	-1E+10	1
4901784	143	C	06/04/2019	10:43	-132.502	42.826	0	730.10	0	4.0670	0	35.9570	8	28.547	0	723.045	0	13.9	4	4.4	4	-1E+10	1	-1E+10	1	-1E+10	1	-1E+10	1	-1E+10	1	-1E+10	1
4901784	143	C	06/04/2019	10:43	-132.502	42.826	0	734.50	0	4.0740	0	35.9660	8	28.553	0	727.395	0	13.5	4	4.3	4	-1E+10	1	-1E+10	1	-1E+10	1	-1E+10	1	-1E+10	1	-1E+10	1
4901784	143	C	06/04/2019	10:43	-132.502	42.826	0	739.70	0	4.0690	0	35.9710	8	28.558	0	732.535	0	13.3	4	4.3	4	-1E+10	1	-1E+10	1	-1E+10	1	-1E+10	1	-1E+10	1	-1E+10	1
4901784	143	C	06/04/2019	10:43	-132.502	42.826	0	745.00	0	4.0680	0	35.9740	8	28.560	0	737.775	0	13.1	4	4.2	4	-1E+10	1	-1E+10	1	-1E+10	1	-1E+10	1	-1E+10	1	-1E+10	1
4901784	143	C	06/04/2019	10:43	-132.502	42.826	0	750.30	0	4.0710	0	35.9780	8	28.563	0	743.014	0	12.9	4	4.1	4	-1E+10	1	-1E+10	1	-1E+10	1	-1E+10	1	-1E+10	1	-1E+10	1
4901784	143	C	06/04/2019	10:43	-132.502	42.826	0	755.60	0	4.0510	0	35.9820	8	28.569	0	748.253	0	12.8	4	4.1	4	-1E+10	1	-1E+10	1	-1E+10	1	-1E+10	1	-1E+10	1	-1E+10	1
4901784	143	C	06/04/2019	10:43	-132.502	42.826	0	760.10	0	4.0370	0	35.9830	8	28.571	0	752.701	0	12.8	4	4.1	4	-1E+10	1	-1E+10	1	-1E+10	1	-1E+10	1	-1E+10	1	-1E+10	1
4901784	143	C	06/04/2019	10:43	-132.502	42.826	0	764.60	0	4.0220	0	35.9850	8	28.574	0	757.149	0	12.8	4	4.1	4	-1E+10	1	-1E+10	1	-1E+10	1	-1E+10	1	-1E+10	1	-1E+10	1
4901784	143	C	06/04/2019	10:43	-132.502	42.826	0	770.00	0	4.0020	0	35.9860	8	28.577	0	762.487	0	12.9	4	4.1	4	-1E+10	1	-1E+10	1	-1E+10	1	-1E+10	1	-1E+10	1	-1E+10	1
4901784	143	C	06/04/2019	10:43	-132.502	42.826	0	775.50	0	3.9630	0	35.9880	8	28.583	0	767.923	0	12.9	4	4.1	4	-1E+10	1	-1E+10	1	-1E+10	1	-1E+10	1	-1E+10	1	-1E+10	1
4901784	143	C	06/04/2019	10:43	-132.502	42.826	0	780.10	0	3.9690	0	35.9900	8	28.584	0	772.469	0	12.6	4	4.0	4	-1E+10	1	-1E+10	1	-1E+10	1	-1E+10	1	-1E+10	1	-1E+10	1
4901784	143	C	06/04/2019	10:43	-132.502	42.826	0	784.70	0	3.9680	0	35.9940	8	28.587	0	777.016	0	12.5	4	4.0	4	-1E+10	1	-1E+10	1	-1E+10	1	-1E+10	1	-1E+10	1	-1E+10	1
4901784	143	C	06/04/2019	10:43	-132.502	42.826	0	790.20	0	3.9470	0	35.9970	8	28.592	0	782.452	0	12.6	4	4.0	4	-1E+10	1	-1E+10	1	-1E+10	1	-1E+10	1	-1E+10	1	-1E+10	1
4901784	143	C	06/04/2019	10:43	-132.502	42.826	0	794.80	0	3.9240	0	35.9990	8	28.596	0	786.998	0	12.6	4	4.0	4	-1E+10	1	-1E+10	1	-1E+10	1	-1E+10	1	-1E+10	1	-1E+10	1
4901784	143	C	06/04/2019	10:43	-132.502	42.826	0	800.20	0	3.9100	0	35.9990	8	28.598	0	792.335	0	12.8	4	4.1	4	-1E+10	1	-1E+10	1	-1E+10	1	-1E+10	1	-1E+10	1	-1E+10	1
4901784	143	C	06/04/2019	10:43	-132.502	42.826	0	805.20	0	3.8620	0	35.9990	8	28.603	0	797.276	0	13.1	4	4.2	4	-1E+10	1	-1E+10	1	-1E+10	1	-1E+10	1	-1E+10	1	-1E+10	1
4901784	143	C	06/04/2019	10:43	-132.502	42.826	0	810.00	0	3.8220	0	35.9980	8	28.606	0	802.019	0	13.2	4	4.2	4	-1E+10	1	-1E+10	1	-1E+10	1	-1E+10	1	-1E+10	1	-1E+10	1
4901784	143	C	06/04/2019	10:43	-132.502	42.826	0	814.90	0	3.8050	0	36.0030	8	28.612	0	806.862	0	13.0	4	4.2	4	-1E+10	1	-1E+10	1	-1E+10	1	-1E+10	1	-1E+10	1	-1E+10	1
4901784	143	C	06/04/2019	10:43	-132.502	42.826	0	819.70	0	3.8030	0	36.0060	8	28.614	0	811.605	0	12.9	4	4.1	4	-1E+10	1	-1E+10	1	-1E+10	1	-1E+10	1	-1E+10	1	-1E+10	1
4901784	143	C	06/04/2019	10:43	-132.502	42.826	0	824.60	0	3.7920	0	36.0080	8	28.617	0	816.447	0	12.8	4	4.1	4	-1E+10	1	-1E+10	1	-1E+10	1	-1E+10	1	-1E+10	1	-1E+10	1
4901784	143	C	06/04/2019	10:43	-132.502	42.826	0	829.50	0	3.7860	0	36.0110	8	28.620	0	821.289	0	12.6	4	4.0	4	-1E+10	1	-1E+10	1	-1E+10	1	-1E+10	1	-1E+10	1	-1E+10	1
4901784	143	C	06/04/2019	10:43	-132.502	42.826	0	834.50	0	3.7670	0	36.0160	8	28.626	0	826.230	0	12.5	4	4.0	4	-1E+10	1	-1E+10	1	-1E+10	1	-1E+10	1	-1E+10	1	-1E+10	1
4901784	143	C	06/04/2019	10:43	-132.502	42.826	0	839.40	0	3.7510	0	36.0200	8	28.631	0	831.071	0	12.3	4	3.9	4	-1E+10	1	-1E+10	1	-1E+10	1	-1E+10	1	-1E+10	1	-1E+10	1
4901784	143	C	06/04/2019	10:43	-132.502	42.826	0	844.40	0	3.7440	0	36.0240	8	28.635	0	836.012	0	12.1	4	3.9	4	-1E+10	1	-1E+10	1	-1E+10	1	-1E+10	1	-1E+10	1	-1E+10	1
4901784	143	C	06/04/2019	10:43	-132.502	42.826	0	849.30	0	3.7330	0	36.0290	8	28.640	0	840.853	0	12.0	4	3.8	4	-1E+10	1	-1E+10	1	-1E+10	1	-1E+10	1	-1E+10	1	-1E+10	1
4901784	143	C	06/04/2019	10:43	-132.502	42.826	0	854.40	0	3.7240	0	36.0320	8	28.644	0	845.892	0	11.9	4	3.8	4	-1E+10	1	-1E+10	1	-1E+10	1	-1E+10	1	-1E+10	1	-1E+10	1
4901784	143	C	06/04/2019	10:43	-132.502	42.826	0	859.50	0	3.7190	0	36.0350	8	28.647	0	850.931	0	11.8	4	3.7	4	-1E+10	1	-1E+10	1	-1E+10	1	-1E+10	1	-1E+10	1	-1E+10	1
4901784	143	C	06/04/2019	10:43	-132.502	42.826	0	864.50	0	3.7210	0	36.0370	8	28.648	0	855.871	0	11.7	4	3.7	4	-1E+10	1	-1E+10	1	-1E+10	1	-1E+10	1	-1E+10	1	-1E+10	1
4901784	143	C	06/04/2019	10:43	-132.502	42.826	0	869.70	0	3.7120	0	36.0400	8	28.651	0	861.008	0	11.5	4	3.7	4	-1E+10	1	-1E+10	1	-1E+10	1	-1E+10	1	-1E+10	1	-1E+10	1
4901784	143	C	06/04/2019	10:43	-132.502	42.826	0	874.90	0	3.7100	0	36.0460	8	28.656	0	866.146	0	11.3	4	3.6	4	-1E+10	1	-1E+10	1	-1E+10	1	-1E+10	1	-1E+10	1	-1E+10	1
4901784	143	C	06/04/2019	10:43	-132.502	42.826	0	880.20	0	3.7060	0	36.0500	8	28.660	0	871.382	0	11.2	4	3.6	4	-1E+10	1	-1E+10	1	-1E+10	1	-1E+10	1	-1E+10	1	-1E+10	1
4901784	143	C	06/04/2019	10:43	-132.502	42.826	0	885.40	0	3.6840	0	36.0540	8	28.666	0	876.519	0	11.1	4	3.5	4	-1E+10	1	-1E+10	1	-1E+10	1	-1E+10	1	-1E+10	1	-1E+10	1
4901784	143	C	06/04/2019	10:43	-132.502	42.826	0	890.70	0	3.6880	0	36.0590	8	28.669	0	881.754	0	10.9	4	3.5	4	-1E+10	1	-1E+10	1	-1E+10	1	-1E+10	1	-1E+10	1	-1E+10	1
4901784	143	C	06/04/2019	10:43	-132.502	42.826	0	895.10	0	3.6950	0	36.0660	8	28.674	0	886.101	0	10.7	4	3.4	4	-1E+10	1	-1E+10	1	-1E+10	1	-1E+10	1	-1E+10	1	-1E+10	1
4901784	143	C	06/04/2019	10:43	-132.502	42.826	0	899.50	0	3.6930	0	36.0710	8	28.678	0	890.447	0	10.6	4	3.4	4	-1E+10	1	-1E+10	1	-1E+10	1	-1E+10	1	-1E+10	1	-1E+10	1
4901784	143	C	06/04/2019	10:43	-132.502	42.826	0	904.80	0	3.6870	0	36.0720	8	28.680	0	895.682	0	10.6	4	3.4	4	-1E+10	1	-1E+10	1	-1E+10	1	-1E+10	1	-1E+10	1	-1E+10	1
4901784	143	C	06/04/2019	10:43	-132.502	42.826	0	910.20	0	3.6820	0	36.0750	8	28.683	0	901.016	0	10.5	4	3.3	4	-1E+10	1	-1E+10	1	-1E+10	1	-1E+10	1	-1E+10	1	-1E+10	1
4901784	143	C	06/04/2019	10:43	-132.502	42.826	0	915.60	0	3.6760	0	36.0790	8	28.687	0	906.350	0	10.5	4	3.3	4	-1E+10	1	-1E+10	1	-1E+10	1	-1E+10	1	-1E+10	1	-1E+10	1
4901784	143	C	06/04/2019	10:43	-132.502	42.826	0	920.10	0	3.6660	0	36.0810	8	28.689	0	910.795	0	10.5	4	3.3	4	-1E+10	1	-1E+10	1	-1E+10	1	-1E+10	1	-1E+10	1	-1E+10	1
4901784	143	C	06/04/2019	10:43	-132.502	42.826	0	924.70	0	3.6480	0	36.0830	8	28.693	0	915.338	0	10.5	4	3.3	4	-1E+10	1	-1E+10	1	-1E+10	1	-1E+10	1	-1E+10	1	-1E+10	1
4901784	143	C	06/04/2019	10:43	-132.502	42.826	0	930.20	0	3.6180	0	36.0850	8	28.697	0	920.771	0	10.5	4	3.3	4	-1E+10	1	-1E+10	1	-1E+10	1	-1E+10	1	-1E+10	1	-1E+10	1
4901784	143	C	06/04/2019	10:43	-132.502	42.826	0	934.70	0	3.6120	0	36.0880	8	28.700	0	925.215	0	10.4	4	3.3	4	-1E+10	1	-1E+10	1	-1E+10	1	-1E+10	1	-1E+10	1	-1E+10	1
4901784	143	C	06/04/2019	10:43	-132.502	42.826	0	939.40	0	3.6100	0	36.0910	8	28.703	0	929.857	0	10.4	4	3.3	4	-1E+10	1	-1E+10	1	-1E+10	1	-1E+10	1	-1E+10	1	-1E+10	1
4901784	143	C	06/04/2019	10:43	-132.502	42.826	0	944.90	0	3.6100	0	36.0950	8	28.706	0	935.289	0	10.3	4	3.3	4	-1E+10	1	-1E+10	1	-1E+10	1	-1E+10	1	-1E+10	1	-1E+10	1
4901784	143	C	06/04/2019	10:43	-132.502	42.826	0	950.50	0	3.6080	0	36.0990	8	28.710	0	940.819	0	10.3	4	3.3	4	-1E+10	1	-1E+10	1	-1E+10	1	-1E+10	1	-1E+10	1	-1E+10	1
4901784	143	C	06/04/2019	10:43	-132.502	42.826	0	955.20	0	3.5970	0	36.1040	8	28.715	0	945.461	0	10.3	4	3.3	4	-1E+10	1	-1E+10	1	-1E+10	1	-1E+10	1	-1E+10	1	-1E+10	1
4901784	143	C	06/04/2019	10:43	-132.502	42.826	0	959.80	0	3.5940	0	36.1060	8	28.717	0	950.003	0	10.3	4	3.3	4	-1E+10	1	-1E+10	1	-1E+10	1	-1E+10	1	-1E+10	1	-1E+10	1
4901784	143	C	06/04/2019	10:43	-132.502	42.826	0	965.40	0	3.5730	0	36.1070	8	28.720	0	955.534	0	10.3	4	3.3	4	-1E+10	1	-1E+10	1	-1E+10	1	-1E+10	1	-1E+10	1	-1E+10	1
4901784	143	C	06/04/2019	10:43	-132.502	42.826	0	970.10	0	3.5600	0	36.1090	8	28.723	0	960.175	0	10.3	4	3.3	4	-1E+10	1	-1E+10	1	-1E+10	1	-1E+10	1	-1E+10	1	-1E+10	1
4901784	143	C	06/04/2019	10:43	-132.502	42.826	0	974.80	0	3.5500	0	36.1150	8	28.729	0	964.816	0	10.2	4	3.2	4	-1E+10	1	-1E+10	1	-1E+10	1	-1E+10	1	-1E+10	1	-1E+10	1
4901784	143	C	06/04/2019	10:43	-132.502	42.826	0	980.40	0	3.5400	0	36.1190	8	28.733	0	970.346	0	10.2	4	3.2	4	-1E+10	1	-1E+10	1	-1E+10	1	-1E+10	1	-1E+10	1	-1E+10	1
4901784	143	C	06/04/2019	10:43	-132.502	42.826	0	985.20	0	3.5410	0	36.1250	8	28.738	0	975.085	0	10.2	4	3.2	4	-1E+10	1	-1E+10	1	-1E+10	1	-1E+10	1	-1E+10	1	-1E+10	1
4901784	143	C	06/04/2019	10:43	-132.502	42.826	0	989.90	0	3.5380	0	36.1280	8	28.740	0	979.726	0	10.2	4	3.2	4	-1E+10	1	-1E+10	1	-1E+10	1	-1E+10	1	-1E+10	1	-1E+10	1
4901784	143	C	06/04/2019	10:43	-132.502	42.826	0	994.70	0	3.5230	0	36.1310	8	28.744	0	984.465	0	10.3	4	3.3	4	-1E+10	1	-1E+10	1	-1E+10	1	-1E+10	1	-1E+10	1	-1E+10	1
4901784	143	C	06/04/2019	10:43	-132.502	42.826	0	999.40	0	3.5150	0	36.1350	8	28.748	0	989.106	0	10.3	4	3.3	4	-1E+10	1	-1E+10	1	-1E+10	1	-1E+10	1	-1E+10	1	-1E+10	1
4901784	143	C	06/04/2019	10:43	-132.502	42.826	0	1005.00	0	3.5020	0	36.1390	8	28.753	0	994.635	0	10.3	4	3.3	4	-1E+10	1	-1E+10	1	-1E+10	1	-1E+10	1	-1E+10	1	-1E+10	1
4901784	143	C	06/04/2019	10:43	-132.502	42.826	0	1010.60	0	3.4930	0	36.1410	8	28.755	0	1000.164	0	10.4	4	3.3	4	-1E+10	1	-1E+10	1	-1E+10	1	-1E+10	1	-1E+10	1	-1E+10	1
4901784	143	C	06/04/2019	10:43	-132.502	42.826	0	1015.30	0	3.4830	0	36.1440	8	28.759	0	1004.804	0	10.4	4	3.3	4	-1E+10	1	-1E+10	1	-1E+10	1	-1E+10	1	-1E+10	1	-1E+10	1
4901784	143	C	06/04/2019	10:43	-132.502	42.826	0	1020.00	0	3.4760	0	36.1460	8	28.761	0	1009.444	0	10.4	4	3.3	4	-1E+10	1	-1E+10	1	-1E+10	1	-1E+10	1	-1E+10	1	-1E+10	1
4901784	143	C	06/04/2019	10:43	-132.502	42.826	0	1025.50	0	3.4680	0	36.1480	8	28.764	0	1014.874	0	10.5	4	3.3	4	-1E+10	1	-1E+10	1	-1E+10	1	-1E+10	1	-1E+10	1	-1E+10	1
4901784	143	C	06/04/2019	10:43	-132.502	42.826	0	1030.30	0	3.4570	0	36.1520	8	28.768	0	1019.612	0	10.6	4	3.4	4	-1E+10	1	-1E+10	1	-1E+10	1	-1E+10	1	-1E+10	1	-1E+10	1
4901784	143	C	06/04/2019	10:43	-132.502	42.826	0	1035.00	0	3.4460	0	36.1560	8	28.772	0	1024.252	0	10.6	4	3.4	4	-1E+10	1	-1E+10	1	-1E+10	1	-1E+10	1	-1E+10	1	-1E+10	1
4901784	143	C	06/04/2019	10:43	-132.502	42.826	0	1040.60	0	3.4380	0	36.1580	8	28.775	0	1029.780	0	10.7	4	3.4	4	-1E+10	1	-1E+10	1	-1E+10	1	-1E+10	1	-1E+10	1	-1E+10	1
4901784	143	C	06/04/2019	10:43	-132.502	42.826	0	1045.30	0	3.4270	0	36.1600	8	28.777	0	1034.420	0	10.7	4	3.4	4	-1E+10	1	-1E+10	1	-1E+10	1	-1E+10	1	-1E+10	1	-1E+10	1
4901784	143	C	06/04/2019	10:43	-132.502	42.826	0	1050.00	0	3.4190	0	36.1630	8	28.781	0	1039.059	0	10.8	4	3.4	4	-1E+10	1	-1E+10	1	-1E+10	1	-1E+10	1	-1E+10	1	-1E+10	1
4901784	143	C	06/04/2019	10:43	-132.502	42.826	0	1054.70	0	3.4040	0	36.1670	8	28.785	0	1043.699	0	10.9	4	3.5	4	-1E+10	1	-1E+10	1	-1E+10	1	-1E+10	1	-1E+10	1	-1E+10	1
4901784	143	C	06/04/2019	10:43	-132.502	42.826	0	1059.40	0	3.3870	0	36.1690	8	28.789	0	1048.338	0	11.0	4	3.5	4	-1E+10	1	-1E+10	1	-1E+10	1	-1E+10	1	-1E+10	1	-1E+10	1
4901784	143	C	06/04/2019	10:43	-132.502	42.826	0	1064.90	0	3.3700	0	36.1710	8	28.792	0	1053.767	0	11.0	4	3.5	4	-1E+10	1	-1E+10	1	-1E+10	1	-1E+10	1	-1E+10	1	-1E+10	1
4901784	143	C	06/04/2019	10:43	-132.502	42.826	0	1070.20	0	3.3600	0	36.1730	8	28.795	0	1058.998	0	11.1	4	3.5	4	-1E+10	1	-1E+10	1	-1E+10	1	-1E+10	1	-1E+10	1	-1E+10	1
4901784	143	C	06/04/2019	10:43	-132.502	42.826	0	1074.50	0	3.3650	0	36.1770	8	28.797	0	1063.242	0	11.2	4	3.5	4	-1E+10	1	-1E+10	1	-1E+10	1	-1E+10	1	-1E+10	1	-1E+10	1
4901784	143	C	06/04/2019	10:43	-132.502	42.826	0	1079.40	0	3.3530	0	36.1790	8	28.800	0	1068.078	0	11.3	4	3.6	4	-1E+10	1	-1E+10	1	-1E+10	1	-1E+10	1	-1E+10	1	-1E+10	1
4901784	143	C	06/04/2019	10:43	-132.502	42.826	0	1084.90	0	3.3300	0	36.1840	8	28.806	0	1073.506	0	11.4	4	3.6	4	-1E+10	1	-1E+10	1	-1E+10	1	-1E+10	1	-1E+10	1	-1E+10	1
4901784	143	C	06/04/2019	10:43	-132.502	42.826	0	1090.60	0	3.3210	0	36.1870	8	28.810	0	1079.132	0	11.5	4	3.6	4	-1E+10	1	-1E+10	1	-1E+10	1	-1E+10	1	-1E+10	1	-1E+10	1
4901784	143	C	06/04/2019	10:43	-132.502	42.826	0	1095.60	0	3.3150	0	36.1890	8	28.812	0	1084.066	0	11.6	4	3.6	4	-1E+10	1	-1E+10	1	-1E+10	1	-1E+10	1	-1E+10	1	-1E+10	1
4901784	143	C	06/04/2019	10:43	-132.502	42.826	0	1100.60	0	3.2980	0	36.1920	8	28.816	0	1089.001	0	11.7	4	3.7	4	-1E+10	1	-1E+10	1	-1E+10	1	-1E+10	1	-1E+10	1	-1E+10	1
4901784	143	C	06/04/2019	10:43	-132.502	42.826	0	1104.80	0	3.2740	0	36.1950	8	28.821	0	1093.146	0	11.8	4	3.7	4	-1E+10	1	-1E+10	1	-1E+10	1	-1E+10	1	-1E+10	1	-1E+10	1
4901784	143	C	06/04/2019	10:43	-132.502	42.826	0	1109.40	0	3.2610	0	36.1980	8	28.825	0	1097.685	0	11.8	4	3.7	4	-1E+10	1	-1E+10	1	-1E+10	1	-1E+10	1	-1E+10	1	-1E+10	1
4901784	143	C	06/04/2019	10:43	-132.502	42.826	0	1114.90	0	3.2460	0	36.2010	8	28.828	0	1103.113	0	12.0	4	3.8	4	-1E+10	1	-1E+10	1	-1E+10	1	-1E+10	1	-1E+10	1	-1E+10	1
4901784	143	C	06/04/2019	10:43	-132.502	42.826	0	1120.50	0	3.2350	0	36.2050	8	28.833	0	1108.639	0	12.1	4	3.8	4	-1E+10	1	-1E+10	1	-1E+10	1	-1E+10	1	-1E+10	1	-1E+10	1
4901784	143	C	06/04/2019	10:43	-132.502	42.826	0	1125.20	0	3.2290	0	36.2070	8	28.835	0	1113.276	0	12.2	4	3.8	4	-1E+10	1	-1E+10	1	-1E+10	1	-1E+10	1	-1E+10	1	-1E+10	1
4901784	143	C	06/04/2019	10:43	-132.502	42.826	0	1130.00	0	3.2140	0	36.2100	8	28.839	0	1118.013	0	12.3	4	3.9	4	-1E+10	1	-1E+10	1	-1E+10	1	-1E+10	1	-1E+10	1	-1E+10	1
4901784	143	C	06/04/2019	10:43	-132.502	42.826	0	1135.60	0	3.2050	0	36.2120	8	28.841	0	1123.538	0	12.4	4	3.9	4	-1E+10	1	-1E+10	1	-1E+10	1	-1E+10	1	-1E+10	1	-1E+10	1
4901784	143	C	06/04/2019	10:43	-132.502	42.826	0	1140.30	0	3.1950	0	36.2150	8	28.845	0	1128.176	0	12.5	4	3.9	4	-1E+10	1	-1E+10	1	-1E+10	1	-1E+10	1	-1E+10	1	-1E+10	1
4901784	143	C	06/04/2019	10:43	-132.502	42.826	0	1145.00	0	3.1900	0	36.2150	8	28.845	0	1132.813	0	12.6	4	3.9	4	-1E+10	1	-1E+10	1	-1E+10	1	-1E+10	1	-1E+10	1	-1E+10	1
4901784	143	C	06/04/2019	10:43	-132.502	42.826	0	1149.70	0	3.1840	0	36.2170	8	28.848	0	1137.450	0	12.7	4	4.0	4	-1E+10	1	-1E+10	1	-1E+10	1	-1E+10	1	-1E+10	1	-1E+10	1
4901784	143	C	06/04/2019	10:43	-132.502	42.826	0	1154.50	0	3.1650	0	36.2200	8	28.852	0	1142.186	0	12.8	4	4.0	4	-1E+10	1	-1E+10	1	-1E+10	1	-1E+10	1	-1E+10	1	-1E+10	1
4901784	143	C	06/04/2019	10:43	-132.502	42.826	0	1160.20	0	3.1520	0	36.2220	8	28.855	0	1147.810	0	12.9	4	4.1	4	-1E+10	1	-1E+10	1	-1E+10	1	-1E+10	1	-1E+10	1	-1E+10	1
4901784	143	C	06/04/2019	10:43	-132.502	42.826	0	1165.00	0	3.1400	0	36.2250	8	28.858	0	1152.545	0	13.0	4	4.1	4	-1E+10	1	-1E+10	1	-1E+10	1	-1E+10	1	-1E+10	1	-1E+10	1
4901784	143	C	06/04/2019	10:43	-132.502	42.826	0	1169.30	0	3.1310	0	36.2260	8	28.860	0	1156.788	0	13.1	4	4.1	4	-1E+10	1	-1E+10	1	-1E+10	1	-1E+10	1	-1E+10	1	-1E+10	1
4901784	143	C	06/04/2019	10:43	-132.502	42.826	0	1174.50	0	3.1160	0	36.2290	8	28.864	0	1161.918	0	13.2	4	4.2	4	-1E+10	1	-1E+10	1	-1E+10	1	-1E+10	1	-1E+10	1	-1E+10	1
4901784	143	C	06/04/2019	10:43	-132.502	42.826	0	1179.40	0	3.0980	0	36.2320	8	28.868	0	1166.752	0	13.4	4	4.2	4	-1E+10	1	-1E+10	1	-1E+10	1	-1E+10	1	-1E+10	1	-1E+10	1
4901784	143	C	06/04/2019	10:43	-132.502	42.826	0	1184.30	0	3.0920	0	36.2340	8	28.870	0	1171.585	0	13.5	4	4.2	4	-1E+10	1	-1E+10	1	-1E+10	1	-1E+10	1	-1E+10	1	-1E+10	1
4901784	143	C	06/04/2019	10:43	-132.502	42.826	0	1189.30	0	3.0840	0	36.2360	8	28.873	0	1176.518	0	13.6	4	4.3	4	-1E+10	1	-1E+10	1	-1E+10	1	-1E+10	1	-1E+10	1	-1E+10	1
4901784	143	C	06/04/2019	10:43	-132.502	42.826	0	1194.50	0	3.0760	0	36.2370	8	28.874	0	1181.647	0	13.8	4	4.3	4	-1E+10	1	-1E+10	1	-1E+10	1	-1E+10	1	-1E+10	1	-1E+10	1
4901784	143	C	06/04/2019	10:43	-132.502	42.826	0	1199.60	0	3.0600	0	36.2410	8	28.879	0	1186.678	0	14.1	4	4.4	4	-1E+10	1	-1E+10	1	-1E+10	1	-1E+10	1	-1E+10	1	-1E+10	1
4901784	143	C	06/04/2019	10:43	-132.502	42.826	0	1204.70	0	3.0470	0	36.2440	8	28.883	0	1191.709	0	14.3	4	4.5	4	-1E+10	1	-1E+10	1	-1E+10	1	-1E+10	1	-1E+10	1	-1E+10	1
4901784	143	C	06/04/2019	10:43	-132.502	42.826	0	1209.90	0	3.0370	0	36.2460	8	28.885	0	1196.838	0	14.4	4	4.5	4	-1E+10	1	-1E+10	1	-1E+10	1	-1E+10	1	-1E+10	1	-1E+10	1
4901784	143	C	06/04/2019	10:43	-132.502	42.826	0	1215.00	0	3.0260	0	36.2480	8	28.888	0	1201.868	0	14.6	4	4.6	4	-1E+10	1	-1E+10	1	-1E+10	1	-1E+10	1	-1E+10	1	-1E+10	1
4901784	143	C	06/04/2019	10:43	-132.502	42.826	0	1220.20	0	3.0180	0	36.2500	8	28.890	0	1206.997	0	14.7	4	4.6	4	-1E+10	1	-1E+10	1	-1E+10	1	-1E+10	1	-1E+10	1	-1E+10	1
4901784	143	C	06/04/2019	10:43	-132.502	42.826	0	1225.40	0	3.0090	0	36.2520	8	28.893	0	1212.126	0	14.9	4	4.7	4	-1E+10	1	-1E+10	1	-1E+10	1	-1E+10	1	-1E+10	1	-1E+10	1
4901784	143	C	06/04/2019	10:43	-132.502	42.826	0	1230.40	0	3.0020	0	36.2540	8	28.895	0	1217.057	0	15.1	4	4.7	4	-1E+10	1	-1E+10	1	-1E+10	1	-1E+10	1	-1E+10	1	-1E+10	1
4901784	143	C	06/04/2019	10:43	-132.502	42.826	0	1235.30	0	2.9960	0	36.2550	8	28.897	0	1221.890	0	15.3	4	4.8	4	-1E+10	1	-1E+10	1	-1E+10	1	-1E+10	1	-1E+10	1	-1E+10	1
4901784	143	C	06/04/2019	10:43	-132.502	42.826	0	1240.10	0	2.9810	0	36.2580	8	28.900	0	1226.624	0	15.5	4	4.9	4	-1E+10	1	-1E+10	1	-1E+10	1	-1E+10	1	-1E+10	1	-1E+10	1
4901784	143	C	06/04/2019	10:43	-132.502	42.826	0	1244.90	0	2.9700	0	36.2610	8	28.904	0	1231.358	0	15.7	4	4.9	4	-1E+10	1	-1E+10	1	-1E+10	1	-1E+10	1	-1E+10	1	-1E+10	1
4901784	143	C	06/04/2019	10:43	-132.502	42.826	0	1249.80	0	2.9580	0	36.2630	8	28.907	0	1236.190	0	15.9	4	5.0	4	-1E+10	1	-1E+10	1	-1E+10	1	-1E+10	1	-1E+10	1	-1E+10	1
4901784	143	C	06/04/2019	10:43	-132.502	42.826	0	1254.80	0	2.9530	0	36.2650	8	28.909	0	1241.121	0	16.1	4	5.0	4	-1E+10	1	-1E+10	1	-1E+10	1	-1E+10	1	-1E+10	1	-1E+10	1
4901784	143	C	06/04/2019	10:43	-132.502	42.826	0	1259.80	0	2.9480	0	36.2660	8	28.910	0	1246.051	0	16.2	4	5.1	4	-1E+10	1	-1E+10	1	-1E+10	1	-1E+10	1	-1E+10	1	-1E+10	1
4901784	143	C	06/04/2019	10:43	-132.502	42.826	0	1264.80	0	2.9390	0	36.2680	8	28.913	0	1250.982	0	16.4	4	5.1	4	-1E+10	1	-1E+10	1	-1E+10	1	-1E+10	1	-1E+10	1	-1E+10	1
4901784	143	C	06/04/2019	10:43	-132.502	42.826	0	1269.80	0	2.9290	0	36.2690	8	28.914	0	1255.912	0	16.6	4	5.2	4	-1E+10	1	-1E+10	1	-1E+10	1	-1E+10	1	-1E+10	1	-1E+10	1
4901784	143	C	06/04/2019	10:43	-132.502	42.826	0	1274.80	0	2.9170	0	36.2720	8	28.918	0	1260.843	0	16.8	4	5.3	4	-1E+10	1	-1E+10	1	-1E+10	1	-1E+10	1	-1E+10	1	-1E+10	1
4901784	143	C	06/04/2019	10:43	-132.502	42.826	0	1279.90	0	2.9060	0	36.2740	8	28.921	0	1265.872	0	17.0	4	5.3	4	-1E+10	1	-1E+10	1	-1E+10	1	-1E+10	1	-1E+10	1	-1E+10	1
4901784	143	C	06/04/2019	10:43	-132.502	42.826	0	1285.00	0	2.8990	0	36.2750	8	28.922	0	1270.900	0	17.2	4	5.4	4	-1E+10	1	-1E+10	1	-1E+10	1	-1E+10	1	-1E+10	1	-1E+10	1
4901784	143	C	06/04/2019	10:43	-132.502	42.826	0	1290.10	0	2.8800	0	36.2780	8	28.926	0	1275.929	0	17.5	4	5.5	4	-1E+10	1	-1E+10	1	-1E+10	1	-1E+10	1	-1E+10	1	-1E+10	1
4901784	143	C	06/04/2019	10:43	-132.502	42.826	0	1295.40	0	2.8630	0	36.2810	8	28.930	0	1281.155	0	17.6	4	5.5	4	-1E+10	1	-1E+10	1	-1E+10	1	-1E+10	1	-1E+10	1	-1E+10	1
4901784	143	C	06/04/2019	10:43	-132.502	42.826	0	1300.60	0	2.8590	0	36.2820	8	28.931	0	1286.281	0	17.7	4	5.5	4	-1E+10	1	-1E+10	1	-1E+10	1	-1E+10	1	-1E+10	1	-1E+10	1
4901784	143	C	06/04/2019	10:43	-132.502	42.826	0	1304.90	0	2.8530	0	36.2830	8	28.933	0	1290.521	0	17.9	4	5.6	4	-1E+10	1	-1E+10	1	-1E+10	1	-1E+10	1	-1E+10	1	-1E+10	1
4901784	143	C	06/04/2019	10:43	-132.502	42.826	0	1309.30	0	2.8450	0	36.2840	8	28.934	0	1294.859	0	18.2	4	5.7	4	-1E+10	1	-1E+10	1	-1E+10	1	-1E+10	1	-1E+10	1	-1E+10	1
4901784	143	C	06/04/2019	10:43	-132.502	42.826	0	1314.60	0	2.8340	0	36.2880	8	28.939	0	1300.084	0	18.6	4	5.8	4	-1E+10	1	-1E+10	1	-1E+10	1	-1E+10	1	-1E+10	1	-1E+10	1
4901784	143	C	06/04/2019	10:43	-132.502	42.826	0	1319.80	0	2.8260	0	36.2890	8	28.940	0	1305.211	0	18.9	4	5.9	4	-1E+10	1	-1E+10	1	-1E+10	1	-1E+10	1	-1E+10	1	-1E+10	1
4901784	143	C	06/04/2019	10:43	-132.502	42.826	0	1325.10	0	2.8180	0	36.2910	8	28.943	0	1310.436	0	19.2	4	6.0	4	-1E+10	1	-1E+10	1	-1E+10	1	-1E+10	1	-1E+10	1	-1E+10	1
4901784	143	C	06/04/2019	10:43	-132.502	42.826	0	1330.50	0	2.8040	0	36.2940	8	28.946	0	1315.759	0	19.5	4	6.1	4	-1E+10	1	-1E+10	1	-1E+10	1	-1E+10	1	-1E+10	1	-1E+10	1
4901784	143	C	06/04/2019	10:43	-132.502	42.826	0	1335.00	0	2.7920	0	36.2960	8	28.949	0	1320.195	0	19.8	4	6.2	4	-1E+10	1	-1E+10	1	-1E+10	1	-1E+10	1	-1E+10	1	-1E+10	1
4901784	143	C	06/04/2019	10:43	-132.502	42.826	0	1339.50	0	2.7800	0	36.2980	8	28.952	0	1324.631	0	20.0	4	6.2	4	-1E+10	1	-1E+10	1	-1E+10	1	-1E+10	1	-1E+10	1	-1E+10	1
4901784	143	C	06/04/2019	10:43	-132.502	42.826	0	1344.90	0	2.7750	0	36.2990	8	28.953	0	1329.954	0	20.2	4	6.3	4	-1E+10	1	-1E+10	1	-1E+10	1	-1E+10	1	-1E+10	1	-1E+10	1
4901784	143	C	06/04/2019	10:43	-132.502	42.826	0	1350.40	0	2.7630	0	36.3010	8	28.956	0	1335.376	0	20.5	4	6.4	4	-1E+10	1	-1E+10	1	-1E+10	1	-1E+10	1	-1E+10	1	-1E+10	1
4901784	143	C	06/04/2019	10:43	-132.502	42.826	0	1355.00	0	2.7510	0	36.3040	8	28.959	0	1339.910	0	20.8	4	6.5	4	-1E+10	1	-1E+10	1	-1E+10	1	-1E+10	1	-1E+10	1	-1E+10	1
4901784	143	C	06/04/2019	10:43	-132.502	42.826	0	1359.50	0	2.7420	0	36.3050	8	28.961	0	1344.345	0	21.0	4	6.5	4	-1E+10	1	-1E+10	1	-1E+10	1	-1E+10	1	-1E+10	1	-1E+10	1
4901784	143	C	06/04/2019	10:43	-132.502	42.826	0	1365.10	0	2.7340	0	36.3070	8	28.963	0	1349.865	0	21.3	4	6.6	4	-1E+10	1	-1E+10	1	-1E+10	1	-1E+10	1	-1E+10	1	-1E+10	1
4901784	143	C	06/04/2019	10:43	-132.502	42.826	0	1370.60	0	2.7250	0	36.3080	8	28.965	0	1355.286	0	21.5	4	6.7	4	-1E+10	1	-1E+10	1	-1E+10	1	-1E+10	1	-1E+10	1	-1E+10	1
4901784	143	C	06/04/2019	10:43	-132.502	42.826	0	1375.10	0	2.7180	0	36.3100	8	28.967	0	1359.721	0	21.7	4	6.7	4	-1E+10	1	-1E+10	1	-1E+10	1	-1E+10	1	-1E+10	1	-1E+10	1
4901784	143	C	06/04/2019	10:43	-132.502	42.826	0	1379.80	0	2.7090	0	36.3120	8	28.970	0	1364.353	0	21.8	4	6.8	4	-1E+10	1	-1E+10	1	-1E+10	1	-1E+10	1	-1E+10	1	-1E+10	1
4901784	143	C	06/04/2019	10:43	-132.502	42.826	0	1385.30	0	2.7040	0	36.3130	8	28.971	0	1369.774	0	22.0	4	6.8	4	-1E+10	1	-1E+10	1	-1E+10	1	-1E+10	1	-1E+10	1	-1E+10	1
4901784	143	C	06/04/2019	10:43	-132.502	42.826	0	1389.80	0	2.6970	0	36.3140	8	28.973	0	1374.209	0	22.2	4	6.9	4	-1E+10	1	-1E+10	1	-1E+10	1	-1E+10	1	-1E+10	1	-1E+10	1
4901784	143	C	06/04/2019	10:43	-132.502	42.826	0	1395.10	0	2.6870	0	36.3160	8	28.975	0	1379.432	0	22.4	4	7.0	4	-1E+10	1	-1E+10	1	-1E+10	1	-1E+10	1	-1E+10	1	-1E+10	1
4901784	143	C	06/04/2019	10:43	-132.502	42.826	0	1400.20	0	2.6810	0	36.3170	8	28.976	0	1384.458	0	22.7	4	7.0	4	-1E+10	1	-1E+10	1	-1E+10	1	-1E+10	1	-1E+10	1	-1E+10	1
4901784	143	C	06/04/2019	10:43	-132.502	42.826	0	1405.00	0	2.6740	0	36.3180	8	28.978	0	1389.188	0	22.9	4	7.1	4	-1E+10	1	-1E+10	1	-1E+10	1	-1E+10	1	-1E+10	1	-1E+10	1
4901784	143	C	06/04/2019	10:43	-132.502	42.826	0	1409.90	0	2.6600	0	36.3210	8	28.982	0	1394.017	0	23.1	4	7.2	4	-1E+10	1	-1E+10	1	-1E+10	1	-1E+10	1	-1E+10	1	-1E+10	1
4901784	143	C	06/04/2019	10:43	-132.502	42.826	0	1414.80	0	2.6560	0	36.3220	8	28.983	0	1398.846	0	23.3	4	7.2	4	-1E+10	1	-1E+10	1	-1E+10	1	-1E+10	1	-1E+10	1	-1E+10	1
4901784	143	C	06/04/2019	10:43	-132.502	42.826	0	1419.60	0	2.6500	0	36.3230	8	28.984	0	1403.575	0	23.5	4	7.3	4	-1E+10	1	-1E+10	1	-1E+10	1	-1E+10	1	-1E+10	1	-1E+10	1
4901784	143	C	06/04/2019	10:43	-132.502	42.826	0	1424.50	0	2.6410	0	36.3240	8	28.986	0	1408.404	0	23.8	4	7.4	4	-1E+10	1	-1E+10	1	-1E+10	1	-1E+10	1	-1E+10	1	-1E+10	1
4901784	143	C	06/04/2019	10:43	-132.502	42.826	0	1429.40	0	2.6280	0	36.3270	8	28.989	0	1413.232	0	24.2	4	7.5	4	-1E+10	1	-1E+10	1	-1E+10	1	-1E+10	1	-1E+10	1	-1E+10	1
4901784	143	C	06/04/2019	10:43	-132.502	42.826	0	1434.30	0	2.6220	0	36.3280	8	28.991	0	1418.060	0	24.5	4	7.6	4	-1E+10	1	-1E+10	1	-1E+10	1	-1E+10	1	-1E+10	1	-1E+10	1
4901784	143	C	06/04/2019	10:43	-132.502	42.826	0	1439.40	0	2.6120	0	36.3300	8	28.993	0	1423.085	0	25.0	4	7.7	4	-1E+10	1	-1E+10	1	-1E+10	1	-1E+10	1	-1E+10	1	-1E+10	1
4901784	143	C	06/04/2019	10:43	-132.502	42.826	0	1444.50	0	2.5910	0	36.3330	8	28.998	0	1428.110	0	25.4	4	7.9	4	-1E+10	1	-1E+10	1	-1E+10	1	-1E+10	1	-1E+10	1	-1E+10	1
4901784	143	C	06/04/2019	10:43	-132.502	42.826	0	1449.60	0	2.5820	0	36.3350	8	29.000	0	1433.135	0	25.6	4	7.9	4	-1E+10	1	-1E+10	1	-1E+10	1	-1E+10	1	-1E+10	1	-1E+10	1
4901784	143	C	06/04/2019	10:43	-132.502	42.826	0	1454.70	0	2.5780	0	36.3360	8	29.001	0	1438.160	0	25.8	4	8.0	4	-1E+10	1	-1E+10	1	-1E+10	1	-1E+10	1	-1E+10	1	-1E+10	1
4901784	143	C	06/04/2019	10:43	-132.502	42.826	0	1459.70	0	2.5740	0	36.3370	8	29.003	0	1443.086	0	26.0	4	8.1	4	-1E+10	1	-1E+10	1	-1E+10	1	-1E+10	1	-1E+10	1	-1E+10	1
4901784	143	C	06/04/2019	10:43	-132.502	42.826	0	1464.80	0	2.5690	0	36.3380	8	29.004	0	1448.110	0	26.2	4	8.1	4	-1E+10	1	-1E+10	1	-1E+10	1	-1E+10	1	-1E+10	1	-1E+10	1
4901784	143	C	06/04/2019	10:43	-132.502	42.826	0	1470.00	0	2.5570	0	36.3400	8	29.007	0	1453.233	0	26.6	4	8.2	4	-1E+10	1	-1E+10	1	-1E+10	1	-1E+10	1	-1E+10	1	-1E+10	1
4901784	143	C	06/04/2019	10:43	-132.502	42.826	0	1475.10	0	2.5470	0	36.3410	8	29.008	0	1458.257	0	27.0	4	8.3	4	-1E+10	1	-1E+10	1	-1E+10	1	-1E+10	1	-1E+10	1	-1E+10	1
4901784	143	C	06/04/2019	10:43	-132.502	42.826	0	1480.40	0	2.5350	0	36.3440	8	29.012	0	1463.479	0	27.3	4	8.4	4	-1E+10	1	-1E+10	1	-1E+10	1	-1E+10	1	-1E+10	1	-1E+10	1
4901784	143	C	06/04/2019	10:43	-132.502	42.826	0	1485.60	0	2.5290	0	36.3450	8	29.013	0	1468.601	0	27.5	4	8.5	4	-1E+10	1	-1E+10	1	-1E+10	1	-1E+10	1	-1E+10	1	-1E+10	1
4901784	143	C	06/04/2019	10:43	-132.502	42.826	0	1489.90	0	2.5230	0	36.3460	8	29.014	0	1472.837	0	27.7	4	8.6	4	-1E+10	1	-1E+10	1	-1E+10	1	-1E+10	1	-1E+10	1	-1E+10	1
4901784	143	C	06/04/2019	10:43	-132.502	42.826	0	1494.20	0	2.5180	0	36.3470	8	29.016	0	1477.073	0	27.8	4	8.6	4	-1E+10	1	-1E+10	1	-1E+10	1	-1E+10	1	-1E+10	1	-1E+10	1
4901784	143	C	06/04/2019	10:43	-132.502	42.826	0	1499.40	0	2.5120	0	36.3480	8	29.017	0	1482.195	0	28.0	4	8.7	4	-1E+10	1	-1E+10	1	-1E+10	1	-1E+10	1	-1E+10	1	-1E+10	1
4901784	143	C	06/04/2019	10:43	-132.502	42.826	0	1504.70	0	2.5030	0	36.3490	8	29.019	0	1487.415	0	28.2	4	8.7	4	-1E+10	1	-1E+10	1	-1E+10	1	-1E+10	1	-1E+10	1	-1E+10	1
4901784	143	C	06/04/2019	10:43	-132.502	42.826	0	1510.00	0	2.4960	0	36.3500	8	29.020	0	1492.636	0	28.4	4	8.8	4	-1E+10	1	-1E+10	1	-1E+10	1	-1E+10	1	-1E+10	1	-1E+10	1
4901784	143	C	06/04/2019	10:43	-132.502	42.826	0	1515.30	0	2.4860	0	36.3520	8	29.023	0	1497.856	0	28.9	4	8.9	4	-1E+10	1	-1E+10	1	-1E+10	1	-1E+10	1	-1E+10	1	-1E+10	1
4901784	143	C	06/04/2019	10:43	-132.502	42.826	0	1520.60	0	2.4700	0	36.3550	8	29.027	0	1503.076	0	29.4	4	9.1	4	-1E+10	1	-1E+10	1	-1E+10	1	-1E+10	1	-1E+10	1	-1E+10	1
4901784	143	C	06/04/2019	10:43	-132.502	42.826	0	1525.10	0	2.4670	0	36.3560	8	29.028	0	1507.508	0	29.7	4	9.2	4	-1E+10	1	-1E+10	1	-1E+10	1	-1E+10	1	-1E+10	1	-1E+10	1
4901784	143	C	06/04/2019	10:43	-132.502	42.826	0	1530.00	0	2.4560	0	36.3580	8	29.030	0	1512.334	0	30.0	4	9.3	4	-1E+10	1	-1E+10	1	-1E+10	1	-1E+10	1	-1E+10	1	-1E+10	1
4901784	143	C	06/04/2019	10:43	-132.502	42.826	0	1535.00	0	2.4430	0	36.3600	8	29.033	0	1517.259	0	30.4	4	9.4	4	-1E+10	1	-1E+10	1	-1E+10	1	-1E+10	1	-1E+10	1	-1E+10	1
4901784	143	C	06/04/2019	10:43	-132.502	42.826	0	1539.80	0	2.4370	0	36.3610	8	29.034	0	1521.986	0	30.6	4	9.4	4	-1E+10	1	-1E+10	1	-1E+10	1	-1E+10	1	-1E+10	1	-1E+10	1
4901784	143	C	06/04/2019	10:43	-132.502	42.826	0	1544.60	0	2.4270	0	36.3630	8	29.037	0	1526.713	0	30.7	4	9.5	4	-1E+10	1	-1E+10	1	-1E+10	1	-1E+10	1	-1E+10	1	-1E+10	1
4901784	143	C	06/04/2019	10:43	-132.502	42.826	0	1549.40	0	2.4220	0	36.3630	8	29.037	0	1531.440	0	30.9	4	9.5	4	-1E+10	1	-1E+10	1	-1E+10	1	-1E+10	1	-1E+10	1	-1E+10	1
4901784	143	C	06/04/2019	10:43	-132.502	42.826	0	1555.00	0	2.4150	0	36.3650	8	29.040	0	1536.955	0	31.1	4	9.6	4	-1E+10	1	-1E+10	1	-1E+10	1	-1E+10	1	-1E+10	1	-1E+10	1
4901784	143	C	06/04/2019	10:43	-132.502	42.826	0	1560.70	0	2.4030	0	36.3670	8	29.042	0	1542.568	0	31.5	4	9.7	4	-1E+10	1	-1E+10	1	-1E+10	1	-1E+10	1	-1E+10	1	-1E+10	1
4901784	143	C	06/04/2019	10:43	-132.502	42.826	0	1565.60	0	2.3950	0	36.3680	8	29.044	0	1547.393	0	31.7	4	9.8	4	-1E+10	1	-1E+10	1	-1E+10	1	-1E+10	1	-1E+10	1	-1E+10	1
4901784	143	C	06/04/2019	10:43	-132.502	42.826	0	1570.50	0	2.3900	0	36.3700	8	29.046	0	1552.218	0	32.0	4	9.9	4	-1E+10	1	-1E+10	1	-1E+10	1	-1E+10	1	-1E+10	1	-1E+10	1
4901784	143	C	06/04/2019	10:43	-132.502	42.826	0	1575.50	0	2.3840	0	36.3700	8	29.047	0	1557.142	0	32.4	4	10.0	4	-1E+10	1	-1E+10	1	-1E+10	1	-1E+10	1	-1E+10	1	-1E+10	1
4901784	143	C	06/04/2019	10:43	-132.502	42.826	0	1580.50	0	2.3730	0	36.3720	8	29.049	0	1562.065	0	32.7	4	10.1	4	-1E+10	1	-1E+10	1	-1E+10	1	-1E+10	1	-1E+10	1	-1E+10	1
4901784	143	C	06/04/2019	10:43	-132.502	42.826	0	1585.60	0	2.3660	0	36.3740	8	29.051	0	1567.086	0	33.0	4	10.2	4	-1E+10	1	-1E+10	1	-1E+10	1	-1E+10	1	-1E+10	1	-1E+10	1
4901784	143	C	06/04/2019	10:43	-132.502	42.826	0	1590.80	0	2.3570	0	36.3750	8	29.053	0	1572.206	0	33.3	4	10.3	4	-1E+10	1	-1E+10	1	-1E+10	1	-1E+10	1	-1E+10	1	-1E+10	1
4901784	143	C	06/04/2019	10:43	-132.502	42.826	0	1595.10	0	2.3530	0	36.3760	8	29.054	0	1576.440	0	33.5	4	10.3	4	-1E+10	1	-1E+10	1	-1E+10	1	-1E+10	1	-1E+10	1	-1E+10	1
4901784	143	C	06/04/2019	10:43	-132.502	42.826	0	1599.30	0	2.3480	0	36.3770	8	29.055	0	1580.575	0	33.8	4	10.4	4	-1E+10	1	-1E+10	1	-1E+10	1	-1E+10	1	-1E+10	1	-1E+10	1
4901784	143	C	06/04/2019	10:43	-132.502	42.826	0	1604.40	0	2.3370	0	36.3790	8	29.058	0	1585.597	0	34.2	4	10.5	4	-1E+10	1	-1E+10	1	-1E+10	1	-1E+10	1	-1E+10	1	-1E+10	1
4901784	143	C	06/04/2019	10:43	-132.502	42.826	0	1609.60	0	2.3280	0	36.3810	8	29.060	0	1590.716	0	34.4	4	10.6	4	-1E+10	1	-1E+10	1	-1E+10	1	-1E+10	1	-1E+10	1	-1E+10	1
4901784	143	C	06/04/2019	10:43	-132.502	42.826	0	1614.80	0	2.3240	0	36.3820	8	29.062	0	1595.836	0	34.6	4	10.7	4	-1E+10	1	-1E+10	1	-1E+10	1	-1E+10	1	-1E+10	1	-1E+10	1
4901784	143	C	06/04/2019	10:43	-132.502	42.826	0	1620.00	0	2.3230	0	36.3830	8	29.063	0	1600.955	0	34.9	4	10.7	4	-1E+10	1	-1E+10	1	-1E+10	1	-1E+10	1	-1E+10	1	-1E+10	1
4901784	143	C	06/04/2019	10:43	-132.502	42.826	0	1625.20	0	2.3170	0	36.3840	8	29.064	0	1606.074	0	35.3	4	10.9	4	-1E+10	1	-1E+10	1	-1E+10	1	-1E+10	1	-1E+10	1	-1E+10	1
4901784	143	C	06/04/2019	10:43	-132.502	42.826	0	1630.40	0	2.3050	0	36.3860	8	29.067	0	1611.193	0	35.7	4	11.0	4	-1E+10	1	-1E+10	1	-1E+10	1	-1E+10	1	-1E+10	1	-1E+10	1
4901784	143	C	06/04/2019	10:43	-132.502	42.826	0	1635.70	0	2.3000	0	36.3870	8	29.068	0	1616.410	0	36.0	4	11.1	4	-1E+10	1	-1E+10	1	-1E+10	1	-1E+10	1	-1E+10	1	-1E+10	1
4901784	143	C	06/04/2019	10:43	-132.502	42.826	0	1640.10	0	2.2940	0	36.3880	8	29.069	0	1620.742	0	36.1	4	11.1	4	-1E+10	1	-1E+10	1	-1E+10	1	-1E+10	1	-1E+10	1	-1E+10	1
4901784	143	C	06/04/2019	10:43	-132.502	42.826	0	1644.60	0	2.2910	0	36.3890	8	29.070	0	1625.171	0	36.3	4	11.2	4	-1E+10	1	-1E+10	1	-1E+10	1	-1E+10	1	-1E+10	1	-1E+10	1
4901784	143	C	06/04/2019	10:43	-132.502	42.826	0	1649.90	0	2.2830	0	36.3900	8	29.072	0	1630.388	0	36.6	4	11.3	4	-1E+10	1	-1E+10	1	-1E+10	1	-1E+10	1	-1E+10	1	-1E+10	1
4901784	143	C	06/04/2019	10:43	-132.502	42.826	0	1655.30	0	2.2770	0	36.3920	8	29.074	0	1635.704	0	36.9	4	11.4	4	-1E+10	1	-1E+10	1	-1E+10	1	-1E+10	1	-1E+10	1	-1E+10	1
4901784	143	C	06/04/2019	10:43	-132.502	42.826	0	1660.70	0	2.2710	0	36.3930	8	29.075	0	1641.019	0	37.3	4	11.5	4	-1E+10	1	-1E+10	1	-1E+10	1	-1E+10	1	-1E+10	1	-1E+10	1
4901784	143	C	06/04/2019	10:43	-132.502	42.826	0	1665.20	0	2.2650	0	36.3950	8	29.077	0	1645.448	0	37.5	4	11.5	4	-1E+10	1	-1E+10	1	-1E+10	1	-1E+10	1	-1E+10	1	-1E+10	1
4901784	143	C	06/04/2019	10:43	-132.502	42.826	0	1669.70	0	2.2620	0	36.3950	8	29.078	0	1649.877	0	37.7	4	11.6	4	-1E+10	1	-1E+10	1	-1E+10	1	-1E+10	1	-1E+10	1	-1E+10	1
4901784	143	C	06/04/2019	10:43	-132.502	42.826	0	1675.10	0	2.2570	0	36.3960	8	29.079	0	1655.192	0	38.0	4	11.7	4	-1E+10	1	-1E+10	1	-1E+10	1	-1E+10	1	-1E+10	1	-1E+10	1
4901784	143	C	06/04/2019	10:43	-132.502	42.826	0	1680.50	0	2.2540	0	36.3970	8	29.080	0	1660.507	0	38.3	4	11.8	4	-1E+10	1	-1E+10	1	-1E+10	1	-1E+10	1	-1E+10	1	-1E+10	1
4901784	143	C	06/04/2019	10:43	-132.502	42.826	0	1685.00	0	2.2490	0	36.3980	8	29.081	0	1664.935	0	38.7	4	11.9	4	-1E+10	1	-1E+10	1	-1E+10	1	-1E+10	1	-1E+10	1	-1E+10	1
4901784	143	C	06/04/2019	10:43	-132.502	42.826	0	1689.60	0	2.2400	0	36.4000	8	29.084	0	1669.462	0	39.0	4	12.0	4	-1E+10	1	-1E+10	1	-1E+10	1	-1E+10	1	-1E+10	1	-1E+10	1
4901784	143	C	06/04/2019	10:43	-132.502	42.826	0	1695.00	0	2.2320	0	36.4020	8	29.086	0	1674.777	0	39.5	4	12.1	4	-1E+10	1	-1E+10	1	-1E+10	1	-1E+10	1	-1E+10	1	-1E+10	1
4901784	143	C	06/04/2019	10:43	-132.502	42.826	0	1700.40	0	2.2240	0	36.4030	8	29.088	0	1680.091	0	39.8	4	12.3	4	-1E+10	1	-1E+10	1	-1E+10	1	-1E+10	1	-1E+10	1	-1E+10	1
4901784	143	C	06/04/2019	10:43	-132.502	42.826	0	1704.90	0	2.2190	0	36.4050	8	29.090	0	1684.519	0	40.1	4	12.3	4	-1E+10	1	-1E+10	1	-1E+10	1	-1E+10	1	-1E+10	1	-1E+10	1
4901784	143	C	06/04/2019	10:43	-132.502	42.826	0	1709.40	0	2.2140	0	36.4060	8	29.091	0	1688.948	0	40.3	4	12.4	4	-1E+10	1	-1E+10	1	-1E+10	1	-1E+10	1	-1E+10	1	-1E+10	1
4901784	143	C	06/04/2019	10:43	-132.502	42.826	0	1714.90	0	2.2090	0	36.4070	8	29.092	0	1694.360	0	40.7	4	12.5	4	-1E+10	1	-1E+10	1	-1E+10	1	-1E+10	1	-1E+10	1	-1E+10	1
4901784	143	C	06/04/2019	10:43	-132.502	42.826	0	1720.30	0	2.2020	0	36.4080	8	29.094	0	1699.674	0	41.0	4	12.6	4	-1E+10	1	-1E+10	1	-1E+10	1	-1E+10	1	-1E+10	1	-1E+10	1
4901784	143	C	06/04/2019	10:43	-132.502	42.826	0	1724.90	0	2.1970	0	36.4090	8	29.095	0	1704.200	0	41.2	4	12.6	4	-1E+10	1	-1E+10	1	-1E+10	1	-1E+10	1	-1E+10	1	-1E+10	1
4901784	143	C	06/04/2019	10:43	-132.502	42.826	0	1729.30	0	2.1950	0	36.4100	8	29.096	0	1708.530	0	41.4	4	12.7	4	-1E+10	1	-1E+10	1	-1E+10	1	-1E+10	1	-1E+10	1	-1E+10	1
4901784	143	C	06/04/2019	10:43	-132.502	42.826	0	1734.70	0	2.1890	0	36.4110	8	29.097	0	1713.843	0	41.7	4	12.8	4	-1E+10	1	-1E+10	1	-1E+10	1	-1E+10	1	-1E+10	1	-1E+10	1
4901784	143	C	06/04/2019	10:43	-132.502	42.826	0	1739.50	0	2.1850	0	36.4120	8	29.098	0	1718.566	0	42.0	4	12.9	4	-1E+10	1	-1E+10	1	-1E+10	1	-1E+10	1	-1E+10	1	-1E+10	1
4901784	143	C	06/04/2019	10:43	-132.502	42.826	0	1744.40	0	2.1800	0	36.4130	8	29.100	0	1723.387	0	42.3	4	13.0	4	-1E+10	1	-1E+10	1	-1E+10	1	-1E+10	1	-1E+10	1	-1E+10	1
4901784	143	C	06/04/2019	10:43	-132.502	42.826	0	1750.10	0	2.1740	0	36.4150	8	29.102	0	1728.995	0	42.7	4	13.1	4	-1E+10	1	-1E+10	1	-1E+10	1	-1E+10	1	-1E+10	1	-1E+10	1
4901784	143	C	06/04/2019	10:43	-132.502	42.826	0	1755.70	0	2.1630	0	36.4170	8	29.104	0	1734.505	0	43.2	4	13.3	4	-1E+10	1	-1E+10	1	-1E+10	1	-1E+10	1	-1E+10	1	-1E+10	1
4901784	143	C	06/04/2019	10:43	-132.502	42.826	0	1760.60	0	2.1580	0	36.4180	8	29.106	0	1739.325	0	43.5	4	13.4	4	-1E+10	1	-1E+10	1	-1E+10	1	-1E+10	1	-1E+10	1	-1E+10	1
4901784	143	C	06/04/2019	10:43	-132.502	42.826	0	1765.60	0	2.1530	0	36.4190	8	29.107	0	1744.244	0	43.7	4	13.4	4	-1E+10	1	-1E+10	1	-1E+10	1	-1E+10	1	-1E+10	1	-1E+10	1
4901784	143	C	06/04/2019	10:43	-132.502	42.826	0	1770.50	0	2.1500	0	36.4200	8	29.108	0	1749.065	0	43.9	4	13.5	4	-1E+10	1	-1E+10	1	-1E+10	1	-1E+10	1	-1E+10	1	-1E+10	1
4901784	143	C	06/04/2019	10:43	-132.502	42.826	0	1775.50	0	2.1490	0	36.4200	8	29.108	0	1753.984	0	44.0	4	13.5	4	-1E+10	1	-1E+10	1	-1E+10	1	-1E+10	1	-1E+10	1	-1E+10	1
4901784	143	C	06/04/2019	10:43	-132.502	42.826	0	1780.50	0	2.1460	0	36.4210	8	29.109	0	1758.903	0	44.4	4	13.6	4	-1E+10	1	-1E+10	1	-1E+10	1	-1E+10	1	-1E+10	1	-1E+10	1
4901784	143	C	06/04/2019	10:43	-132.502	42.826	0	1785.50	0	2.1400	0	36.4220	8	29.110	0	1763.821	0	44.8	4	13.7	4	-1E+10	1	-1E+10	1	-1E+10	1	-1E+10	1	-1E+10	1	-1E+10	1
4901784	143	C	06/04/2019	10:43	-132.502	42.826	0	1790.50	0	2.1330	0	36.4240	8	29.113	0	1768.740	0	45.2	4	13.9	4	-1E+10	1	-1E+10	1	-1E+10	1	-1E+10	1	-1E+10	1	-1E+10	1
4901784	143	C	06/04/2019	10:43	-132.502	42.826	0	1795.50	0	2.1280	0	36.4250	8	29.114	0	1773.658	0	45.6	4	14.0	4	-1E+10	1	-1E+10	1	-1E+10	1	-1E+10	1	-1E+10	1	-1E+10	1
4901784	143	C	06/04/2019	10:43	-132.502	42.826	0	1800.60	0	2.1210	0	36.4260	8	29.115	0	1778.675	0	46.2	4	14.2	4	-1E+10	1	-1E+10	1	-1E+10	1	-1E+10	1	-1E+10	1	-1E+10	1
4901784	143	C	06/04/2019	10:43	-132.502	42.826	0	1805.80	0	2.1130	0	36.4270	8	29.117	0	1783.790	0	46.6	4	14.3	4	-1E+10	1	-1E+10	1	-1E+10	1	-1E+10	1	-1E+10	1	-1E+10	1
4901784	143	C	06/04/2019	10:43	-132.502	42.826	0	1810.00	0	2.1090	0	36.4280	8	29.118	0	1787.921	0	46.9	4	14.4	4	-1E+10	1	-1E+10	1	-1E+10	1	-1E+10	1	-1E+10	1	-1E+10	1
4901784	143	C	06/04/2019	10:43	-132.502	42.826	0	1814.30	0	2.1040	0	36.4290	8	29.119	0	1792.150	0	47.2	4	14.5	4	-1E+10	1	-1E+10	1	-1E+10	1	-1E+10	1	-1E+10	1	-1E+10	1
4901784	143	C	06/04/2019	10:43	-132.502	42.826	0	1819.50	0	2.0980	0	36.4300	8	29.121	0	1797.265	0	47.6	4	14.6	4	-1E+10	1	-1E+10	1	-1E+10	1	-1E+10	1	-1E+10	1	-1E+10	1
4901784	143	C	06/04/2019	10:43	-132.502	42.826	0	1824.80	0	2.0910	0	36.4320	8	29.123	0	1802.477	0	48.0	4	14.7	4	-1E+10	1	-1E+10	1	-1E+10	1	-1E+10	1	-1E+10	1	-1E+10	1
4901784	143	C	06/04/2019	10:43	-132.502	42.826	0	1830.00	0	2.0850	0	36.4340	8	29.125	0	1807.592	0	48.2	4	14.8	4	-1E+10	1	-1E+10	1	-1E+10	1	-1E+10	1	-1E+10	1	-1E+10	1
4901784	143	C	06/04/2019	10:43	-132.502	42.826	0	1835.40	0	2.0810	0	36.4350	8	29.126	0	1812.902	0	48.5	4	14.9	4	-1E+10	1	-1E+10	1	-1E+10	1	-1E+10	1	-1E+10	1	-1E+10	1
4901784	143	C	06/04/2019	10:43	-132.502	42.826	0	1840.70	0	2.0770	0	36.4360	8	29.127	0	1818.115	0	48.8	4	15.0	4	-1E+10	1	-1E+10	1	-1E+10	1	-1E+10	1	-1E+10	1	-1E+10	1
4901784	143	C	06/04/2019	10:43	-132.502	42.826	0	1845.20	0	2.0740	0	36.4370	8	29.128	0	1822.540	0	49.1	4	15.0	4	-1E+10	1	-1E+10	1	-1E+10	1	-1E+10	1	-1E+10	1	-1E+10	1
4901784	143	C	06/04/2019	10:43	-132.502	42.826	0	1849.70	0	2.0700	0	36.4380	8	29.130	0	1826.966	0	49.4	4	15.1	4	-1E+10	1	-1E+10	1	-1E+10	1	-1E+10	1	-1E+10	1	-1E+10	1
4901784	143	C	06/04/2019	10:43	-132.502	42.826	0	1855.10	0	2.0660	0	36.4400	8	29.132	0	1832.276	0	49.8	4	15.2	4	-1E+10	1	-1E+10	1	-1E+10	1	-1E+10	1	-1E+10	1	-1E+10	1
4901784	143	C	06/04/2019	10:43	-132.502	42.826	0	1860.20	0	2.0580	0	36.4400	8	29.132	0	1837.291	0	50.1	4	15.3	4	-1E+10	1	-1E+10	1	-1E+10	1	-1E+10	1	-1E+10	1	-1E+10	1
4901784	143	C	06/04/2019	10:43	-132.502	42.826	0	1864.40	0	2.0530	0	36.4410	8	29.133	0	1841.422	0	50.4	4	15.4	4	-1E+10	1	-1E+10	1	-1E+10	1	-1E+10	1	-1E+10	1	-1E+10	1
4901784	143	C	06/04/2019	10:43	-132.502	42.826	0	1869.30	0	2.0490	0	36.4430	8	29.135	0	1846.240	0	50.7	4	15.5	4	-1E+10	1	-1E+10	1	-1E+10	1	-1E+10	1	-1E+10	1	-1E+10	1
4901784	143	C	06/04/2019	10:43	-132.502	42.826	0	1874.90	0	2.0440	0	36.4440	8	29.137	0	1851.746	0	51.0	4	15.6	4	-1E+10	1	-1E+10	1	-1E+10	1	-1E+10	1	-1E+10	1	-1E+10	1
4901784	143	C	06/04/2019	10:43	-132.502	42.826	0	1880.60	0	2.0400	0	36.4450	8	29.138	0	1857.351	0	51.3	4	15.7	4	-1E+10	1	-1E+10	1	-1E+10	1	-1E+10	1	-1E+10	1	-1E+10	1
4901784	143	C	06/04/2019	10:43	-132.502	42.826	0	1885.50	0	2.0360	0	36.4470	8	29.140	0	1862.169	0	51.5	4	15.8	4	-1E+10	1	-1E+10	1	-1E+10	1	-1E+10	1	-1E+10	1	-1E+10	1
4901784	143	C	06/04/2019	10:43	-132.502	42.826	0	1890.50	0	2.0340	0	36.4470	8	29.140	0	1867.085	0	51.6	4	15.8	4	-1E+10	1	-1E+10	1	-1E+10	1	-1E+10	1	-1E+10	1	-1E+10	1
4901784	143	C	06/04/2019	10:43	-132.502	42.826	0	1895.50	0	2.0330	0	36.4480	8	29.141	0	1872.001	0	51.8	4	15.9	4	-1E+10	1	-1E+10	1	-1E+10	1	-1E+10	1	-1E+10	1	-1E+10	1
4901784	143	C	06/04/2019	10:43	-132.502	42.826	0	1900.50	0	2.0300	0	36.4490	8	29.142	0	1876.917	0	52.1	4	15.9	4	-1E+10	1	-1E+10	1	-1E+10	1	-1E+10	1	-1E+10	1	-1E+10	1
4901784	143	C	06/04/2019	10:43	-132.502	42.826	0	1905.50	0	2.0250	0	36.4500	8	29.143	0	1881.833	0	52.5	4	16.1	4	-1E+10	1	-1E+10	1	-1E+10	1	-1E+10	1	-1E+10	1	-1E+10	1
4901784	143	C	06/04/2019	10:43	-132.502	42.826	0	1910.50	0	2.0210	0	36.4510	8	29.144	0	1886.749	0	52.7	4	16.1	4	-1E+10	1	-1E+10	1	-1E+10	1	-1E+10	1	-1E+10	1	-1E+10	1
4901784	143	C	06/04/2019	10:43	-132.502	42.826	0	1915.50	0	2.0180	0	36.4520	8	29.146	0	1891.665	0	52.9	4	16.2	4	-1E+10	1	-1E+10	1	-1E+10	1	-1E+10	1	-1E+10	1	-1E+10	1
4901784	143	C	06/04/2019	10:43	-132.502	42.826	0	1920.70	0	2.0160	0	36.4530	8	29.147	0	1896.777	0	53.1	4	16.3	4	-1E+10	1	-1E+10	1	-1E+10	1	-1E+10	1	-1E+10	1	-1E+10	1
4901784	143	C	06/04/2019	10:43	-132.502	42.826	0	1925.80	0	2.0130	0	36.4530	8	29.147	0	1901.791	0	53.4	4	16.3	4	-1E+10	1	-1E+10	1	-1E+10	1	-1E+10	1	-1E+10	1	-1E+10	1
4901784	143	C	06/04/2019	10:43	-132.502	42.826	0	1930.00	0	2.0100	0	36.4540	8	29.148	0	1905.919	0	53.7	4	16.4	4	-1E+10	1	-1E+10	1	-1E+10	1	-1E+10	1	-1E+10	1	-1E+10	1
4901784	143	C	06/04/2019	10:43	-132.502	42.826	0	1934.30	0	2.0060	0	36.4550	8	29.149	0	1910.146	0	53.9	4	16.5	4	-1E+10	1	-1E+10	1	-1E+10	1	-1E+10	1	-1E+10	1	-1E+10	1
4901784	143	C	06/04/2019	10:43	-132.502	42.826	0	1939.60	0	2.0050	0	36.4560	8	29.150	0	1915.356	0	54.1	4	16.6	4	-1E+10	1	-1E+10	1	-1E+10	1	-1E+10	1	-1E+10	1	-1E+10	1
4901784	143	C	06/04/2019	10:43	-132.502	42.826	0	1944.80	0	1.9990	0	36.4570	8	29.151	0	1920.468	0	54.5	4	16.7	4	-1E+10	1	-1E+10	1	-1E+10	1	-1E+10	1	-1E+10	1	-1E+10	1
4901784	143	C	06/04/2019	10:43	-132.502	42.826	0	1950.00	0	1.9940	0	36.4580	8	29.153	0	1925.579	0	54.9	4	16.8	4	-1E+10	1	-1E+10	1	-1E+10	1	-1E+10	1	-1E+10	1	-1E+10	1
4901784	143	C	06/04/2019	10:43	-132.502	42.826	0	1955.20	0	1.9890	0	36.4590	8	29.154	0	1930.691	0	55.2	4	16.9	4	-1E+10	1	-1E+10	1	-1E+10	1	-1E+10	1	-1E+10	1	-1E+10	1
4901784	143	C	06/04/2019	10:43	-132.502	42.826	0	1960.50	0	1.9850	0	36.4600	8	29.155	0	1935.900	0	55.4	4	17.0	4	-1E+10	1	-1E+10	1	-1E+10	1	-1E+10	1	-1E+10	1	-1E+10	1
4901784	143	C	06/04/2019	10:43	-132.502	42.826	0	1964.90	0	1.9840	0	36.4610	8	29.156	0	1940.225	0	55.7	4	17.0	4	-1E+10	1	-1E+10	1	-1E+10	1	-1E+10	1	-1E+10	1	-1E+10	1
4901784	143	C	06/04/2019	10:43	-132.502	42.826	0	1969.30	0	1.9800	0	36.4620	8	29.157	0	1944.550	0	56.0	4	17.1	4	-1E+10	1	-1E+10	1	-1E+10	1	-1E+10	1	-1E+10	1	-1E+10	1
4901784	143	C	06/04/2019	10:43	-132.502	42.826	0	1974.60	0	1.9750	0	36.4630	8	29.158	0	1949.759	0	56.3	4	17.2	4	-1E+10	1	-1E+10	1	-1E+10	1	-1E+10	1	-1E+10	1	-1E+10	1
4901784	143	C	06/04/2019	10:43	-132.502	42.826	0	1979.90	0	1.9730	0	36.4640	8	29.159	0	1954.968	0	56.6	4	17.3	4	-1E+10	1	-1E+10	1	-1E+10	1	-1E+10	1	-1E+10	1	-1E+10	1
4901784	143	C	06/04/2019	10:43	-132.502	42.826	0	1985.10	0	1.9700	0	36.4650	8	29.160	0	1960.078	0	57.1	4	17.4	4	-1E+10	1	-1E+10	1	-1E+10	1	-1E+10	1	-1E+10	1	-1E+10	1
4901784	143	C	06/04/2019	10:43	-132.502	42.826	0	1990.30	0	1.9610	0	36.4660	8	29.162	0	1965.189	0	57.5	4	17.6	4	-1E+10	1	-1E+10	1	-1E+10	1	-1E+10	1	-1E+10	1	-1E+10	1
4901784	143	C	06/04/2019	10:43	-132.502	42.826	0	1994.70	0	1.9570	0	36.4670	8	29.163	0	1969.513	0	57.8	4	17.6	4	-1E+10	1	-1E+10	1	-1E+10	1	-1E+10	1	-1E+10	1	-1E+10	1
4901784	143	C	06/04/2019	10:43	-132.502	42.826	0	2000.00	0	1.9530	0	36.4680	8	29.164	0	1974.722	0	58.0	4	17.7	4	-1E+10	1	-1E+10	1	-1E+10	1	-1E+10	1	-1E+10	1	-1E+10	1
4901784	143	C	06/04/2019	10:43	-132.502	42.826	0	2005.40	0	1.9490	0	36.4690	8	29.165	0	1980.028	0	57.1	4	17.4	4	-1E+10	1	-1E+10	1	-1E+10	1	-1E+10	1	-1E+10	1	-1E+10	1
4901784	143	C	06/04/2019	10:43	-132.502	42.826	0																										
4901784	144	C	06/14/2019	10:46	-132.398	42.830	0	1.90	0	14.9760	0	33.9620	8	25.178	0	1.885	0	249.0	4	99.7	4	-1E+10	1	-1E+10	1	-1E+10	1	-1E+10	1	-1E+10	1	-1E+10	1
4901784	144	C	06/14/2019	10:46	-132.398	42.830	0	3.40	0	14.9690	0	33.9520	8	25.172	0	3.373	0	248.8	4	99.6	4	-1E+10	1	-1E+10	1	-1E+10	1	-1E+10	1	-1E+10	1	-1E+10	1
4901784	144	C	06/14/2019	10:46	-132.398	42.830	0	4.90	0	14.6200	0	33.9710	8	25.262	0	4.861	0	249.6	4	99.3	4	-1E+10	1	-1E+10	1	-1E+10	1	-1E+10	1	-1E+10	1	-1E+10	1
4901784	144	C	06/14/2019	10:46	-132.398	42.830	0	6.50	0	14.5670	0	33.9660	8	25.269	0	6.448	0	250.6	4	99.5	4	-1E+10	1	-1E+10	1	-1E+10	1	-1E+10	1	-1E+10	1	-1E+10	1
4901784	144	C	06/14/2019	10:46	-132.398	42.830	0	8.10	0	14.5550	0	33.9630	8	25.270	0	8.036	0	250.6	4	99.5	4	-1E+10	1	-1E+10	1	-1E+10	1	-1E+10	1	-1E+10	1	-1E+10	1
4901784	144	C	06/14/2019	10:46	-132.398	42.830	0	9.60	0	14.5470	0	33.9550	8	25.265	0	9.524	0	251.2	4	99.8	4	-1E+10	1	-1E+10	1	-1E+10	1	-1E+10	1	-1E+10	1	-1E+10	1
4901784	144	C	06/14/2019	10:46	-132.398	42.830	0	11.20	0	14.5290	0	33.9420	8	25.259	0	11.111	0	251.7	4	99.9	4	-1E+10	1	-1E+10	1	-1E+10	1	-1E+10	1	-1E+10	1	-1E+10	1
4901784	144	C	06/14/2019	10:46	-132.398	42.830	0	12.70	0	14.2660	0	33.9440	8	25.316	0	12.599	0	253.6	4	100.1	4	-1E+10	1	-1E+10	1	-1E+10	1	-1E+10	1	-1E+10	1	-1E+10	1
4901784	144	C	06/14/2019	10:46	-132.398	42.830	0	14.30	0	13.9560	0	33.9540	8	25.389	0	14.186	0	255.6	4	100.3	4	-1E+10	1	-1E+10	1	-1E+10	1	-1E+10	1	-1E+10	1	-1E+10	1
4901784	144	C	06/14/2019	10:46	-132.398	42.830	0	16.00	0	13.4560	0	33.9560	8	25.493	0	15.873	0	259.1	4	100.7	4	-1E+10	1	-1E+10	1	-1E+10	1	-1E+10	1	-1E+10	1	-1E+10	1
4901784	144	C	06/14/2019	10:46	-132.398	42.830	0	17.80	0	12.7830	0	33.9970	8	25.660	0	17.658	0	261.7	4	100.3	4	-1E+10	1	-1E+10	1	-1E+10	1	-1E+10	1	-1E+10	1	-1E+10	1
4901784	144	C	06/14/2019	10:46	-132.398	42.830	0	19.70	0	12.2360	0	34.0040	8	25.772	0	19.543	0	266.1	4	100.9	4	-1E+10	1	-1E+10	1	-1E+10	1	-1E+10	1	-1E+10	1	-1E+10	1
4901784	144	C	06/14/2019	10:46	-132.398	42.830	0	21.50	0	12.0850	0	34.0050	8	25.801	0	21.329	0	266.4	4	100.7	4	-1E+10	1	-1E+10	1	-1E+10	1	-1E+10	1	-1E+10	1	-1E+10	1
4901784	144	C	06/14/2019	10:46	-132.398	42.830	0	23.40	0	11.9680	0	34.0100	8	25.827	0	23.213	0	265.4	4	100.0	4	-1E+10	1	-1E+10	1	-1E+10	1	-1E+10	1	-1E+10	1	-1E+10	1
4901784	144	C	06/14/2019	10:46	-132.398	42.830	0	25.30	0	11.8340	0	34.0150	8	25.856	0	25.098	0	265.4	4	99.8	4	-1E+10	1	-1E+10	1	-1E+10	1	-1E+10	1	-1E+10	1	-1E+10	1
4901784	144	C	06/14/2019	10:46	-132.398	42.830	0	27.20	0	11.7890	0	34.0110	8	25.862	0	26.983	0	264.8	4	99.4	4	-1E+10	1	-1E+10	1	-1E+10	1	-1E+10	1	-1E+10	1	-1E+10	1
4901784	144	C	06/14/2019	10:46	-132.398	42.830	0	29.20	0	11.7010	0	34.0160	8	25.882	0	28.967	0	263.9	4	98.9	4	-1E+10	1	-1E+10	1	-1E+10	1	-1E+10	1	-1E+10	1	-1E+10	1
4901784	144	C	06/14/2019	10:46	-132.398	42.830	0	31.10	0	11.6790	0	34.0170	8	25.887	0	30.851	0	262.8	4	98.5	4	-1E+10	1	-1E+10	1	-1E+10	1	-1E+10	1	-1E+10	1	-1E+10	1
4901784	144	C	06/14/2019	10:46	-132.398	42.830	0	33.10	0	11.6610	0	34.0160	8	25.890	0	32.835	0	262.0	4	98.1	4	-1E+10	1	-1E+10	1	-1E+10	1	-1E+10	1	-1E+10	1	-1E+10	1
4901784	144	C	06/14/2019	10:46	-132.398	42.830	0	35.40	0	11.6220	0	34.0160	8	25.897	0	35.117	0	261.1	4	97.7	4	-1E+10	1	-1E+10	1	-1E+10	1	-1E+10	1	-1E+10	1	-1E+10	1
4901784	144	C	06/14/2019	10:46	-132.398	42.830	0	35.90	0	11.6170	0	34.0160	8	25.898	0	35.613	0	260.5	4	97.5	4	-1E+10	1	-1E+10	1	-1E+10	1	-1E+10	1	-1E+10	1	-1E+10	1
4901784	144	C	06/14/2019	10:46	-132.398	42.830	0	37.50	0	11.5600	0	34.0160	8	25.909	0	37.200	0	260.0	4	97.2	4	-1E+10	1	-1E+10	1	-1E+10	1	-1E+10	1	-1E+10	1	-1E+10	1
4901784	144	C	06/14/2019	10:46	-132.398	42.830	0	39.20	0	11.5370	0	34.0160	8	25.913	0	38.886	0	259.4	4	96.9	4	-1E+10	1	-1E+10	1	-1E+10	1	-1E+10	1	-1E+10	1	-1E+10	1
4901784	144	C	06/14/2019	10:46	-132.398	42.830	0	40.80	0	11.5160	0	34.0180	8	25.918	0	40.473	0	259.3	4	96.8	4	-1E+10	1	-1E+10	1	-1E+10	1	-1E+10	1	-1E+10	1	-1E+10	1
4901784	144	C	06/14/2019	10:46	-132.398	42.830	0	42.50	0	11.5070	0	34.0180	8	25.920	0	42.159	0	258.9	4	96.7	4	-1E+10	1	-1E+10	1	-1E+10	1	-1E+10	1	-1E+10	1	-1E+10	1
4901784	144	C	06/14/2019	10:46	-132.398	42.830	0	44.10	0	11.4960	0	34.0140	8	25.919	0	43.746	0	258.6	4	96.5	4	-1E+10	1	-1E+10	1	-1E+10	1	-1E+10	1	-1E+10	1	-1E+10	1
4901784	144	C	06/14/2019	10:46	-132.398	42.830	0	45.70	0	11.4820	0	34.0080	8	25.917	0	45.333	0	257.9	4	96.2	4	-1E+10	1	-1E+10	1	-1E+10	1	-1E+10	1	-1E+10	1	-1E+10	1
4901784	144	C	06/14/2019	10:46	-132.398	42.830	0	47.30	0	11.3270	0	34.0140	8	25.950	0	46.920	0	257.4	4	95.7	4	-1E+10	1	-1E+10	1	-1E+10	1	-1E+10	1	-1E+10	1	-1E+10	1
4901784	144	C	06/14/2019	10:46	-132.398	42.830	0	49.00	0	11.1070	0	34.0090	8	25.986	0	48.606	0	257.9	4	95.5	4	-1E+10	1	-1E+10	1	-1E+10	1	-1E+10	1	-1E+10	1	-1E+10	1
4901784	144	C	06/14/2019	10:46	-132.398	42.830	0	50.80	0	11.0040	0	34.0010	8	25.998	0	50.392	0	258.0	4	95.3	4	-1E+10	1	-1E+10	1	-1E+10	1	-1E+10	1	-1E+10	1	-1E+10	1
4901784	144	C	06/14/2019	10:46	-132.398	42.830	0	52.50	0	10.7570	0	34.0050	8	26.046	0	52.078	0	257.8	4	94.7	4	-1E+10	1	-1E+10	1	-1E+10	1	-1E+10	1	-1E+10	1	-1E+10	1
4901784	144	C	06/14/2019	10:46	-132.398	42.830	0	54.30	0	10.6260	0	34.0120	8	26.074	0	53.863	0	258.2	4	94.6	4	-1E+10	1	-1E+10	1	-1E+10	1	-1E+10	1	-1E+10	1	-1E+10	1
4901784	144	C	06/14/2019	10:46	-132.398	42.830	0	56.00	0	10.5910	0	34.0120	8	26.080	0	55.549	0	258.0	4	94.5	4	-1E+10	1	-1E+10	1	-1E+10	1	-1E+10	1	-1E+10	1	-1E+10	1
4901784	144	C	06/14/2019	10:46	-132.398	42.830	0	57.70	0	10.5660	0	34.0130	8	26.085	0	57.235	0	257.6	4	94.3	4	-1E+10	1	-1E+10	1	-1E+10	1	-1E+10	1	-1E+10	1	-1E+10	1
4901784	144	C	06/14/2019	10:46	-132.398	42.830	0	59.60	0	10.5060	0	34.0150	8	26.098	0	59.119	0	257.5	4	94.1	4	-1E+10	1	-1E+10	1	-1E+10	1	-1E+10	1	-1E+10	1	-1E+10	1
4901784	144	C	06/14/2019	10:46	-132.398	42.830	0	61.30	0	10.4620	0	34.0220	8	26.111	0	60.806	0	257.0	4	93.9	4	-1E+10	1	-1E+10	1	-1E+10	1	-1E+10	1	-1E+10	1	-1E+10	1
4901784	144	C	06/14/2019	10:46	-132.398	42.830	0	63.00	0	10.4160	0	34.0190	8	26.116	0	62.492	0	257.1	4	93.8	4	-1E+10	1	-1E+10	1	-1E+10	1	-1E+10	1	-1E+10	1	-1E+10	1
4901784	144	C	06/14/2019	10:46	-132.398	42.830	0	64.80	0	10.4060	0	34.0180	8	26.117	0	64.277	0	257.0	4	93.8	4	-1E+10	1	-1E+10	1	-1E+10	1	-1E+10	1	-1E+10	1	-1E+10	1
4901784	144	C	06/14/2019	10:46	-132.398	42.830	0	66.50	0	10.4020	0	34.0180	8	26.118	0	65.963	0	256.7	4	93.6	4	-1E+10	1	-1E+10	1	-1E+10	1	-1E+10	1	-1E+10	1	-1E+10	1
4901784	144	C	06/14/2019	10:46	-132.398	42.830	0	68.40	0	10.3930	0	34.0170	8	26.119	0	67.847	0	256.0	4	93.4	4	-1E+10	1	-1E+10	1	-1E+10	1	-1E+10	1	-1E+10	1	-1E+10	1
4901784	144	C	06/14/2019	10:46	-132.398	42.830	0	70.20	0	10.3730	0	34.0160	8	26.122	0	69.632	0	255.5	4	93.1	4	-1E+10	1	-1E+10	1	-1E+10	1	-1E+10	1	-1E+10	1	-1E+10	1
4901784	144	C	06/14/2019	10:46	-132.398	42.830	0	72.00	0	10.3210	0	34.0160	8	26.131	0	71.417	0	254.9	4	92.8	4	-1E+10	1	-1E+10	1	-1E+10	1	-1E+10	1	-1E+10	1	-1E+10	1
4901784	144	C	06/14/2019	10:46	-132.398	42.830	0	73.90	0	10.3060	0	34.0120	8	26.130	0	73.302	0	254.2	4	92.5	4	-1E+10	1	-1E+10	1	-1E+10	1	-1E+10	1	-1E+10	1	-1E+10	1
4901784	144	C	06/14/2019	10:46	-132.398	42.830	0	75.70	0	10.2280	0	34.0170	8	26.147	0	75.087	0	253.4	4	92.1	4	-1E+10	1	-1E+10	1	-1E+10	1	-1E+10	1	-1E+10	1	-1E+10	1
4901784	144	C	06/14/2019	10:46	-132.398	42.830	0	77.50	0	10.2030	0	34.0170	8	26.152	0	76.872	0	252.8	4	91.8	4	-1E+10	1	-1E+10	1	-1E+10	1	-1E+10	1	-1E+10	1	-1E+10	1
4901784	144	C	06/14/2019	10:46	-132.398	42.830	0	79.30	0	10.1560	0	34.0270	8	26.168	0	78.657	0	251.7	4	91.3	4	-1E+10	1	-1E+10	1	-1E+10	1	-1E+10	1	-1E+10	1	-1E+10	1
4901784	144	C	06/14/2019	10:46	-132.398	42.830	0	81.10	0	10.1110	0	34.0290	8	26.177	0	80.442	0	251.2	4	91.1	4	-1E+10	1	-1E+10	1	-1E+10	1	-1E+10	1	-1E+10	1	-1E+10	1
4901784	144	C	06/14/2019	10:46	-132.398	42.830	0	83.00	0	10.0650	0	34.0330	8	26.188	0	82.326	0	250.5	4	90.7	4	-1E+10	1	-1E+10	1	-1E+10	1	-1E+10	1	-1E+10	1	-1E+10	1
4901784	144	C	06/14/2019	10:46	-132.398	42.830	0	84.80	0	10.0070	0	34.0370	8	26.201	0	84.111	0	250.0	4	90.4	4	-1E+10	1	-1E+10	1	-1E+10	1	-1E+10	1	-1E+10	1	-1E+10	1
4901784	144	C	06/14/2019	10:46	-132.398	42.830	0	86.60	0	9.9620	0	34.0380	8	26.209	0	85.896	0	249.1	4	90.0	4	-1E+10	1	-1E+10	1	-1E+10	1	-1E+10	1	-1E+10	1	-1E+10	1
4901784	144	C	06/14/2019	10:46	-132.398	42.830	0	88.40	0	9.8910	0	34.0440	8	26.226	0	87.681	0	248.4	4	89.6	4	-1E+10	1	-1E+10	1	-1E+10	1	-1E+10	1	-1E+10	1	-1E+10	1
4901784	144	C	06/14/2019	10:46	-132.398	42.830	0	90.30	0	9.7840	0	34.0580	8	26.255	0	89.565	0	248.1	4	89.3	4	-1E+10	1	-1E+10	1	-1E+10	1	-1E+10	1	-1E+10	1	-1E+10	1
4901784	144	C	06/14/2019	10:46	-132.398	42.830	0	92.20	0	9.7550	0	34.0610	8	26.262	0	91.449	0	247.7	4	89.1	4	-1E+10	1	-1E+10	1	-1E+10	1	-1E+10	1	-1E+10	1	-1E+10	1
4901784	144	C	06/14/2019	10:46	-132.398	42.830	0	94.20	0	9.7350	0	34.0620	8	26.266	0	93.433	0	246.4	4	88.6	4	-1E+10	1	-1E+10	1	-1E+10	1	-1E+10	1	-1E+10	1	-1E+10	1
4901784	144	C	06/14/2019	10:46	-132.398	42.830	0	96.10	0	9.6420	0	34.0790	8	26.295	0	95.317	0	245.7	4	88.2	4	-1E+10	1	-1E+10	1	-1E+10	1	-1E+10	1	-1E+10	1	-1E+10	1
4901784	144	C	06/14/2019	10:46	-132.398	42.830	0	98.00	0	9.5520	0	34.0960	8	26.323	0	97.201	0	245.5	4	88.0	4	-1E+10	1	-1E+10	1	-1E+10	1	-1E+10	1	-1E+10	1	-1E+10	1
4901784	144	C	06/14/2019	10:46	-132.398	42.830	0	100.30	0	9.5190	0	34.1010	8	26.332	0	99.482	0	245.0	4	87.7	4	-1E+10	1	-1E+10	1	-1E+10	1	-1E+10	1	-1E+10	1	-1E+10	1
4901784	144	C	06/14/2019	10:46	-132.398	42.830	0	102.40	0	9.4660	0	34.1120	8	26.350	0	101.564	0	244.0	4	87.3	4	-1E+10	1	-1E+10	1	-1E+10	1	-1E+10	1	-1E+10	1	-1E+10	1
4901784	144	C	06/14/2019	10:46	-132.398	42.830	0	104.80	0	9.3580	0	34.1330	8	26.384	0	103.944	0	243.2	4	86.8	4	-1E+10	1	-1E+10	1	-1E+10	1	-1E+10	1	-1E+10	1	-1E+10	1
4901784	144	C	06/14/2019	10:46	-132.398	42.830	0	107.80	0	9.3120	0	34.1370	8	26.394	0	106.918	0	241.9	4	86.3	4	-1E+10	1	-1E+10	1	-1E+10	1	-1E+10	1	-1E+10	1	-1E+10	1
4901784	144	C	06/14/2019	10:46	-132.398	42.830	0	110.00	0	9.2690	0	34.1430	8	26.406	0	109.100	0	240.3	4	85.6	4	-1E+10	1	-1E+10	1	-1E+10	1	-1E+10	1	-1E+10	1	-1E+10	1
4901784	144	C	06/14/2019	10:46	-132.398	42.830	0	112.30	0	9.0840	0	34.1860	8	26.470	0	111.380	0	239.3	4	84.9	4	-1E+10	1	-1E+10	1	-1E+10	1	-1E+10	1	-1E+10	1	-1E+10	1
4901784	144	C	06/14/2019	10:46	-132.398	42.830	0	115.30	0	8.9870	0	34.2050	8	26.500	0	114.355	0	238.0	4	84.3	4	-1E+10	1	-1E+10	1	-1E+10	1	-1E+10	1	-1E+10	1	-1E+10	1
4901784	144	C	06/14/2019	10:46	-132.398	42.830	0	117.60	0	8.8920	0	34.2250	8	26.531	0	116.636	0	236.6	4	83.6	4	-1E+10	1	-1E+10	1	-1E+10	1	-1E+10	1	-1E+10	1	-1E+10	1
4901784	144	C	06/14/2019	10:46	-132.398	42.830	0	119.90	0	8.7280	0	34.2710	8	26.593	0	118.916	0	235.2	4	82.9	4	-1E+10	1	-1E+10	1	-1E+10	1	-1E+10	1	-1E+10	1	-1E+10	1
4901784	144	C	06/14/2019	10:46	-132.398	42.830	0	122.20	0	8.6330	0	34.2930	8	26.625	0	121.196	0	234.1	4	82.3	4	-1E+10	1	-1E+10	1	-1E+10	1	-1E+10	1	-1E+10	1	-1E+10	1
4901784	144	C	06/14/2019	10:46	-132.398	42.830	0	124.70	0	8.4940	0	34.3420	8	26.685	0	123.675	0	232.6	4	81.6	4	-1E+10	1	-1E+10	1	-1E+10	1	-1E+10	1	-1E+10	1	-1E+10	1
4901784	144	C	06/14/2019	10:46	-132.398	42.830	0	127.20	0	8.3950	0	34.3810	8	26.730	0	126.154	0	231.7	4	81.1	4	-1E+10	1	-1E+10	1	-1E+10	1	-1E+10	1	-1E+10	1	-1E+10	1
4901784	144	C	06/14/2019	10:46	-132.398	42.830	0	129.80	0	8.2730	0	34.4430	8	26.798	0	128.732	0	231.0	4	80.7	4	-1E+10	1	-1E+10	1	-1E+10	1	-1E+10	1	-1E+10	1	-1E+10	1
4901784	144	C	06/14/2019	10:46	-132.398	42.830	0	132.90	0	8.2050	0	34.4820	8	26.839	0	131.805	0	229.8	4	80.1	4	-1E+10	1	-1E+10	1	-1E+10	1	-1E+10	1	-1E+10	1	-1E+10	1
4901784	144	C	06/14/2019	10:46	-132.398	42.830	0	135.00	0	8.1840	0	34.4930	8	26.850	0	133.887	0	228.9	4	79.8	4	-1E+10	1	-1E+10	1	-1E+10	1	-1E+10	1	-1E+10	1	-1E+10	1
4901784	144	C	06/14/2019	10:46	-132.398	42.830	0	137.20	0	8.1460	0	34.5150	8	26.873	0	136.068	0	227.5	4	79.3	4	-1E+10	1	-1E+10	1	-1E+10	1	-1E+10	1	-1E+10	1	-1E+10	1
4901784	144	C	06/14/2019	10:46	-132.398	42.830	0	140.10	0	8.0100	0	34.6200	8	26.976	0	138.943	0	225.9	4	78.5	4	-1E+10	1	-1E+10	1	-1E+10	1	-1E+10	1	-1E+10	1	-1E+10	1
4901784	144	C	06/14/2019	10:46	-132.398	42.830	0	142.40	0	7.9690	0	34.6490	8	27.005	0	141.224	0	224.9	4	78.1	4	-1E+10	1	-1E+10	1	-1E+10	1	-1E+10	1	-1E+10	1	-1E+10	1
4901784	144	C	06/14/2019	10:46	-132.398	42.830	0	144.80	0	7.9050	0	34.7090	8	27.062	0	143.603	0	224.1	4	77.8	4	-1E+10	1	-1E+10	1	-1E+10	1	-1E+10	1	-1E+10	1	-1E+10	1
4901784	144	C	06/14/2019	10:46	-132.398	42.830	0	147.20	0	7.8850	0	34.7240	8	27.077	0	145.982	0	223.5	4	77.5	4	-1E+10	1	-1E+10	1	-1E+10	1	-1E+10	1	-1E+10	1	-1E+10	1
4901784	144	C	06/14/2019	10:46	-132.398	42.830	0	149.60	0	7.8760	0	34.7330	8	27.085	0	148.362	0	222.7	4	77.2	4	-1E+10	1	-1E+10	1	-1E+10	1	-1E+10	1	-1E+10	1	-1E+10	1
4901784	144	C	06/14/2019	10:46	-132.398	42.830	0	152.90	0	7.8680	0	34.7440	8	27.095	0	151.633	0	220.8	4	76.6	4	-1E+10	1	-1E+10	1	-1E+10	1	-1E+10	1	-1E+10	1	-1E+10	1
4901784	144	C	06/14/2019	10:46	-132.398	42.830	0	155.50	0	7.8450	0	34.7620	8	27.113	0	154.211	0	218.8	4	75.9	4	-1E+10	1	-1E+10	1	-1E+10	1	-1E+10	1	-1E+10	1	-1E+10	1
4901784	144	C	06/14/2019	10:46	-132.398	42.830	0	157.30	0	7.8430	0	34.8360	8	27.171	0	155.995	0	217.1	4	75.3	4	-1E+10	1	-1E+10	1	-1E+10	1	-1E+10	1	-1E+10	1	-1E+10	1
4901784	144	C	06/14/2019	10:46	-132.398	42.830	0	159.90	0	7.8330	0	34.8780	8	27.206	0	158.572	0	215.4	4	74.7	4	-1E+10	1	-1E+10	1	-1E+10	1	-1E+10	1	-1E+10	1	-1E+10	1
4901784	144	C	06/14/2019	10:46	-132.398	42.830	0	162.50	0	7.8130	0	34.9170	8	27.239	0	161.150	0	213.8	4	74.2	4	-1E+10	1	-1E+10	1	-1E+10	1	-1E+10	1	-1E+10	1	-1E+10	1
4901784	144	C	06/14/2019	10:46	-132.398	42.830	0	165.20	0	7.8060	0	34.9430	8	27.261	0	163.826	0	211.6	4	73.4	4	-1E+10	1	-1E+10	1	-1E+10	1	-1E+10	1	-1E+10	1	-1E+10	1
4901784	144	C	06/14/2019	10:46	-132.398	42.830	0	167.80	0	7.7960	0	34.9730	8	27.286	0	166.404	0	209.4	4	72.6	4	-1E+10	1	-1E+10	1	-1E+10	1	-1E+10	1	-1E+10	1	-1E+10	1
4901784	144	C	06/14/2019	10:46	-132.398	42.830	0	169.70	0	7.8420	0	35.0170	8	27.314	0	168.287	0	207.1	4	71.9	4	-1E+10	1	-1E+10	1	-1E+10	1	-1E+10	1	-1E+10	1	-1E+10	1
4901784	144	C	06/14/2019	10:46	-132.398	42.830	0	172.60	0	7.8780	0	35.0680	8	27.348	0	171.162	0	204.1	4	71.0	4	-1E+10	1	-1E+10	1	-1E+10	1	-1E+10	1	-1E+10	1	-1E+10	1
4901784	144	C	06/14/2019	10:46	-132.398	42.830	0	175.60	0	7.9480	0	35.1270	8	27.384	0	174.135	0	201.1	4	70.1	4	-1E+10	1	-1E+10	1	-1E+10	1	-1E+10	1	-1E+10	1	-1E+10	1
4901784	144	C	06/14/2019	10:46	-132.398	42.830	0	177.50	0	7.9880	0	35.1680	8	27.411	0	176.019	0	199.5	4	69.6	4	-1E+10	1	-1E+10	1	-1E+10	1	-1E+10	1	-1E+10	1	-1E+10	1
4901784	144	C	06/14/2019	10:46	-132.398	42.830	0	179.50	0	7.9930	0	35.1740	8	27.415	0	178.001	0	198.0	4	69.1	4	-1E+10	1	-1E+10	1	-1E+10	1	-1E+10	1	-1E+10	1	-1E+10	1
4901784	144	C	06/14/2019	10:46	-132.398	42.830	0	182.30	0	8.0260	0	35.2100	8	27.438	0	180.777	0	195.2	4	68.2	4	-1E+10	1	-1E+10	1	-1E+10	1	-1E+10	1	-1E+10	1	-1E+10	1
4901784	144	C	06/14/2019	10:46	-132.398	42.830	0	185.30	0	8.0650	0	35.2680	8	27.478	0	183.750	0	192.6	4	67.3	4	-1E+10	1	-1E+10	1	-1E+10	1	-1E+10	1	-1E+10	1	-1E+10	1
4901784	144	C	06/14/2019	10:46	-132.398	42.830	0	187.20	0	8.0720	0	35.2850	8	27.490	0	185.633	0	191.0	4	66.8	4	-1E+10	1	-1E+10	1	-1E+10	1	-1E+10	1	-1E+10	1	-1E+10	1
4901784	144	C	06/14/2019	10:46	-132.398	42.830	0	189.30	0	8.0780	0	35.2960	8	27.498	0	187.715	0	189.3	4	66.2	4	-1E+10	1	-1E+10	1	-1E+10	1	-1E+10	1	-1E+10	1	-1E+10	1
4901784	144	C	06/14/2019	10:46	-132.398	42.830	0	191.80	0	8.1360	0	35.3460	8	27.528	0	190.193	0	186.7	4	65.4	4	-1E+10	1	-1E+10	1	-1E+10	1	-1E+10	1	-1E+10	1	-1E+10	1
4901784	144	C	06/14/2019	10:46	-132.398	42.830	0	194.60	0	8.1640	0	35.3810	8	27.552	0	192.968	0	184.2	4	64.6	4	-1E+10	1	-1E+10	1	-1E+10	1	-1E+10	1	-1E+10	1	-1E+10	1
4901784	144	C	06/14/2019	10:46	-132.398	42.830	0	197.90	0	8.1920	0	35.4170	8	27.576	0	196.239	0	181.6	4	63.8	4	-1E+10	1	-1E+10	1	-1E+10	1	-1E+10	1	-1E+10	1	-1E+10	1
4901784	144	C	06/14/2019	10:46	-132.398	42.830	0	200.40	0	8.2120	0	35.4380	8	27.589	0	198.717	0	179.4	4	63.0	4	-1E+10	1	-1E+10	1	-1E+10	1	-1E+10	1	-1E+10	1	-1E+10	1
4901784	144	C	06/14/2019	10:46	-132.398	42.830	0	202.80	0	8.2280	0	35.4680	8	27.610	0	201.095	0	177.2	4	62.3	4	-1E+10	1	-1E+10	1	-1E+10	1	-1E+10	1	-1E+10	1	-1E+10	1
4901784	144	C	06/14/2019	10:46	-132.398	42.830	0	205.10	0	8.2510	0	35.5020	8	27.634	0	203.375	0	175.2	4	61.6	4	-1E+10	1	-1E+10	1	-1E+10	1	-1E+10	1	-1E+10	1	-1E+10	1
4901784	144	C	06/14/2019	10:46	-132.398	42.830	0	207.50	0	8.2550	0	35.5140	8	27.642	0	205.753	0	174.2	4	61.3	4	-1E+10	1	-1E+10	1	-1E+10	1	-1E+10	1	-1E+10	1	-1E+10	1
4901784	144	C	06/14/2019	10:46	-132.398	42.830	0	210.10	0	8.2460	0	35.5230	8	27.651	0	208.330	0	173.4	4	61.0	4	-1E+10	1	-1E+10	1	-1E+10	1	-1E+10	1	-1E+10	1	-1E+10	1
4901784	144	C	06/14/2019	10:46	-132.398	42.830	0	212.70	0	8.2170	0	35.5340	8	27.664	0	210.907	0	171.9	4	60.4	4	-1E+10	1	-1E+10	1	-1E+10	1	-1E+10	1	-1E+10	1	-1E+10	1
4901784	144	C	06/14/2019	10:46	-132.398	42.830	0	215.40	0	8.1920	0	35.5480	8	27.679	0	213.583	0	170.3	4	59.8	4	-1E+10	1	-1E+10	1	-1E+10	1	-1E+10	1	-1E+10	1	-1E+10	1
4901784	144	C	06/14/2019	10:46	-132.398	42.830	0	217.20	0	8.1870	0	35.5570	8	27.687	0	215.367	0	169.1	4	59.4	4	-1E+10	1	-1E+10	1	-1E+10	1	-1E+10	1	-1E+10	1	-1E+10	1
4901784	144	C	06/14/2019	10:46	-132.398	42.830	0	219.90	0	8.1630	0	35.5650	8	27.697	0	218.043	0	168.0	4	59.0	4	-1E+10	1	-1E+10	1	-1E+10	1	-1E+10	1	-1E+10	1	-1E+10	1
4901784	144	C	06/14/2019	10:46	-132.398	42.830	0	222.60	0	8.1480	0	35.5670	8	27.701	0	220.718	0	167.2	4	58.7	4	-1E+10	1	-1E+10	1	-1E+10	1	-1E+10	1	-1E+10	1	-1E+10	1
4901784	144	C	06/14/2019	10:46	-132.398	42.830	0	225.30	0	8.1270	0	35.5700	8	27.706	0	223.394	0	166.1	4	58.3	4	-1E+10	1	-1E+10	1	-1E+10	1	-1E+10	1	-1E+10	1	-1E+10	1
4901784	144	C	06/14/2019	10:46	-132.398	42.830	0	228.10	0	8.0740	0	35.5730	8	27.717	0	226.169	0	165.1	4	57.9	4	-1E+10	1	-1E+10	1	-1E+10	1	-1E+10	1	-1E+10	1	-1E+10	1
4901784	144	C	06/14/2019	10:46	-132.398	42.830	0	229.90	0	8.0290	0	35.5780	8	27.728	0	227.953	0	164.5	4	57.6	4	-1E+10	1	-1E+10	1	-1E+10	1	-1E+10	1	-1E+10	1	-1E+10	1
4901784	144	C	06/14/2019	10:46	-132.398	42.830	0	231.80	0	8.0030	0	35.5800	8	27.733	0	229.835	0	163.9	4	57.4	4	-1E+10	1	-1E+10	1	-1E+10	1	-1E+10	1	-1E+10	1	-1E+10	1
4901784	144	C	06/14/2019	10:46	-132.398	42.830	0	234.80	0	7.9720	0	35.5800	8	27.738	0	232.808	0	163.0	4	57.0	4	-1E+10	1	-1E+10	1	-1E+10	1	-1E+10	1	-1E+10	1	-1E+10	1
4901784	144	C	06/14/2019	10:46	-132.398	42.830	0	237.60	0	7.9270	0	35.5820	8	27.746	0	235.583	0	161.9	4	56.6	4	-1E+10	1	-1E+10	1	-1E+10	1	-1E+10	1	-1E+10	1	-1E+10	1
4901784	144	C	06/14/2019	10:46	-132.398	42.830	0	240.00	0	7.8590	0	35.5830	8	27.757	0	237.961	0	161.2	4	56.3	4	-1E+10	1	-1E+10	1	-1E+10	1	-1E+10	1	-1E+10	1	-1E+10	1
4901784	144	C	06/14/2019	10:46	-132.398	42.830	0	242.30	0	7.8500	0	35.5820	8	27.758	0	240.240	0	160.0	4	55.8	4	-1E+10	1	-1E+10	1	-1E+10	1	-1E+10	1	-1E+10	1	-1E+10	1
4901784	144	C	06/14/2019	10:46	-132.398	42.830	0	244.70	0	7.7850	0	35.5840	8	27.769	0	242.619	0	159.1	4	55.4	4	-1E+10	1	-1E+10	1	-1E+10	1	-1E+10	1	-1E+10	1	-1E+10	1
4901784	144	C	06/14/2019	10:46	-132.398	42.830	0	247.20	0	7.7500	0	35.5850	8	27.775	0	245.096	0	158.7	4	55.2	4	-1E+10	1	-1E+10	1	-1E+10	1	-1E+10	1	-1E+10	1	-1E+10	1
4901784	144	C	06/14/2019	10:46	-132.398	42.830	0	249.60	0	7.7250	0	35.5860	8	27.780	0	247.474	0	158.8	4	55.2	4	-1E+10	1	-1E+10	1	-1E+10	1	-1E+10	1	-1E+10	1	-1E+10	1
4901784	144	C	06/14/2019	10:46	-132.398	42.830	0	252.80	0	7.6990	0	35.5860	8	27.784	0	250.645	0	158.4	4	55.1	4	-1E+10	1	-1E+10	1	-1E+10	1	-1E+10	1	-1E+10	1	-1E+10	1
4901784	144	C	06/14/2019	10:46	-132.398	42.830	0	255.40	0	7.6840	0	35.5850	8	27.785	0	253.221	0	157.4	4	54.7	4	-1E+10	1	-1E+10	1	-1E+10	1	-1E+10	1	-1E+10	1	-1E+10	1
4901784	144	C	06/14/2019	10:46	-132.398	42.830	0	257.90	0	7.6430	0	35.5850	8	27.791	0	255.698	0	156.2	4	54.3	4	-1E+10	1	-1E+10	1	-1E+10	1	-1E+10	1	-1E+10	1	-1E+10	1
4901784	144	C	06/14/2019	10:46	-132.398	42.830	0	260.30	0	7.6090	0	35.5850	8	27.796	0	258.076	0	155.0	4	53.8	4	-1E+10	1	-1E+10	1	-1E+10	1	-1E+10	1	-1E+10	1	-1E+10	1
4901784	144	C	06/14/2019	10:46	-132.398	42.830	0	262.80	0	7.5610	0	35.5840	8	27.802	0	260.553	0	153.4	4	53.2	4	-1E+10	1	-1E+10	1	-1E+10	1	-1E+10	1	-1E+10	1	-1E+10	1
4901784	144	C	06/14/2019	10:46	-132.398	42.830	0	265.20	0	7.5110	0	35.5830	8	27.809	0	262.931	0	151.9	4	52.6	4	-1E+10	1	-1E+10	1	-1E+10	1	-1E+10	1	-1E+10	1	-1E+10	1
4901784	144	C	06/14/2019	10:46	-132.398	42.830	0	267.60	0	7.4450	0	35.5840	8	27.819	0	265.309	0	150.4	4	52.0	4	-1E+10	1	-1E+10	1	-1E+10	1	-1E+10	1	-1E+10	1	-1E+10	1
4901784	144	C	06/14/2019	10:46	-132.398	42.830	0	270.00	0	7.4110	0	35.5820	8	27.823	0	267.687	0	149.1	4	51.5	4	-1E+10	1	-1E+10	1	-1E+10	1	-1E+10	1	-1E+10	1	-1E+10	1
4901784	144	C	06/14/2019	10:46	-132.398	42.830	0	272.50	0	7.3360	0	35.5840	8	27.835	0	270.164	0	147.6	4	50.9	4	-1E+10	1	-1E+10	1	-1E+10	1	-1E+10	1	-1E+10	1	-1E+10	1
4901784	144	C	06/14/2019	10:46	-132.398	42.830	0	274.90	0	7.2990	0	35.5830	8	27.840	0	272.542	0	146.5	4	50.5	4	-1E+10	1	-1E+10	1	-1E+10	1	-1E+10	1	-1E+10	1	-1E+10	1
4901784	144	C	06/14/2019	10:46	-132.398	42.830	0	277.30	0	7.2560	0	35.5830	8	27.846	0	274.920	0	145.5	4	50.1	4	-1E+10	1	-1E+10	1	-1E+10	1	-1E+10	1	-1E+10	1	-1E+10	1
4901784	144	C	06/14/2019	10:46	-132.398	42.830	0	279.70	0	7.2080	0	35.5810	8	27.851	0	277.297	0	144.4	4	49.7	4	-1E+10	1	-1E+10	1	-1E+10	1	-1E+10	1	-1E+10	1	-1E+10	1
4901784	144	C	06/14/2019	10:46	-132.398	42.830	0	282.30	0	7.1520	0	35.5830	8	27.861	0	279.873	0	143.2	4	49.2	4	-1E+10	1	-1E+10	1	-1E+10	1	-1E+10	1	-1E+10	1	-1E+10	1
4901784	144	C	06/14/2019	10:46	-132.398	42.830	0	284.80	0	7.1110	0	35.5820	8	27.866	0	282.350	0	142.3	4	48.8	4	-1E+10	1	-1E+10	1	-1E+10	1	-1E+10	1	-1E+10	1	-1E+10	1
4901784	144	C	06/14/2019	10:46	-132.398	42.830	0	287.30	0	7.0600	0	35.5800	8	27.872	0	284.827	0	140.8	4	48.3	4	-1E+10	1	-1E+10	1	-1E+10	1	-1E+10	1	-1E+10	1	-1E+10	1
4901784	144	C	06/14/2019	10:46	-132.398	42.830	0	289.70	0	7.0050	0	35.5800	8	27.879	0	287.205	0	139.1	4	47.6	4	-1E+10	1	-1E+10	1	-1E+10	1	-1E+10	1	-1E+10	1	-1E+10	1
4901784	144	C	06/14/2019	10:46	-132.398	42.830	0	292.20	0	6.9420	0	35.5820	8	27.890	0	289.681	0	137.4	4	47.0	4	-1E+10	1	-1E+10	1	-1E+10	1	-1E+10	1	-1E+10	1	-1E+10	1
4901784	144	C	06/14/2019	10:46	-132.398	42.830	0	294.70	0	6.8810	0	35.5850	8	27.901	0	292.158	0	135.8	4	46.4	4	-1E+10	1	-1E+10	1	-1E+10	1	-1E+10	1	-1E+10	1	-1E+10	1
4901784	144	C	06/14/2019	10:46	-132.398	42.830	0	297.20	0	6.8590	0	35.5850	8	27.904	0	294.635	0	134.6	4	45.9	4	-1E+10	1	-1E+10	1	-1E+10	1	-1E+10	1	-1E+10	1	-1E+10	1
4901784	144	C	06/14/2019	10:46	-132.398	42.830	0	299.70	0	6.8470	0	35.5850	8	27.905	0	297.111	0	133.4	4	45.5	4	-1E+10	1	-1E+10	1	-1E+10	1	-1E+10	1	-1E+10	1	-1E+10	1
4901784	144	C	06/14/2019	10:46	-132.398	42.830	0	302.30	0	6.8080	0	35.5870	8	27.912	0	299.687	0	131.8	4	44.9	4	-1E+10	1	-1E+10	1	-1E+10	1	-1E+10	1	-1E+10	1	-1E+10	1
4901784	144	C	06/14/2019	10:46	-132.398	42.830	0	304.70	0	6.7910	0	35.5880	8	27.916	0	302.064	0	130.6	4	44.5	4	-1E+10	1	-1E+10	1	-1E+10	1	-1E+10	1	-1E+10	1	-1E+10	1
4901784	144	C	06/14/2019	10:46	-132.398	42.830	0	307.20	0	6.7740	0	35.5880	8	27.918	0	304.541	0	129.7	4	44.1	4	-1E+10	1	-1E+10	1	-1E+10	1	-1E+10	1	-1E+10	1	-1E+10	1
4901784	144	C	06/14/2019	10:46	-132.398	42.830	0	309.80	0	6.7480	0	35.5890	8	27.922	0	307.116	0	128.6	4	43.8	4	-1E+10	1	-1E+10	1	-1E+10	1	-1E+10	1	-1E+10	1	-1E+10	1
4901784	144	C	06/14/2019	10:46	-132.398	42.830	0	312.30	0	6.7120	0	35.5900	8	27.928	0	309.593	0	127.5	4	43.4	4	-1E+10	1	-1E+10	1	-1E+10	1	-1E+10	1	-1E+10	1	-1E+10	1
4901784	144	C	06/14/2019	10:46	-132.398	42.830	0	314.80	0	6.6980	0	35.5890	8	27.929	0	312.069	0	126.5	4	43.0	4	-1E+10	1	-1E+10	1	-1E+10	1	-1E+10	1	-1E+10	1	-1E+10	1
4901784	144	C	06/14/2019	10:46	-132.398	42.830	0	317.30	0	6.6720	0	35.5900	8	27.934	0	314.546	0	124.9	4	42.4	4	-1E+10	1	-1E+10	1	-1E+10	1	-1E+10	1	-1E+10	1	-1E+10	1
4901784	144	C	06/14/2019	10:46	-132.398	42.830	0	319.80	0	6.6380	0	35.5880	8	27.937	0	317.022	0	123.1	4	41.8	4	-1E+10	1	-1E+10	1	-1E+10	1	-1E+10	1	-1E+10	1	-1E+10	1
4901784	144	C	06/14/2019	10:46	-132.398	42.830	0	322.30	0	6.5810	0	35.5920	8	27.948	0	319.499	0	120.7	4	40.9	4	-1E+10	1	-1E+10	1	-1E+10	1	-1E+10	1	-1E+10	1	-1E+10	1
4901784	144	C	06/14/2019	10:46	-132.398	42.830	0	324.90	0	6.5340	0	35.5910	8	27.953	0	322.074	0	118.8	4	40.2	4	-1E+10	1	-1E+10	1	-1E+10	1	-1E+10	1	-1E+10	1	-1E+10	1
4901784	144	C	06/14/2019	10:46	-132.398	42.830	0	327.40	0	6.4920	0	35.5900	8	27.958	0	324.550	0	117.2	4	39.6	4	-1E+10	1	-1E+10	1	-1E+10	1	-1E+10	1	-1E+10	1	-1E+10	1
4901784	144	C	06/14/2019	10:46	-132.398	42.830	0	329.90	0	6.4350	0	35.5920	8	27.968	0	327.027	0	115.5	4	39.0	4	-1E+10	1	-1E+10	1	-1E+10	1	-1E+10	1	-1E+10	1	-1E+10	1
4901784	144	C	06/14/2019	10:46	-132.398	42.830	0	332.40	0	6.3860	0	35.5910	8	27.973	0	329.503	0	114.1	4	38.5	4	-1E+10	1	-1E+10	1	-1E+10	1	-1E+10	1	-1E+10	1	-1E+10	1
4901784	144	C	06/14/2019	10:46	-132.398	42.830	0	335.00	0	6.3020	0	35.5940	8	27.987	0	332.078	0	113.0	4	38.1	4	-1E+10	1	-1E+10	1	-1E+10	1	-1E+10	1	-1E+10	1	-1E+10	1
4901784	144	C	06/14/2019	10:46	-132.398	42.830	0	337.60	0	6.2660	0	35.5940	8	27.992	0	334.653	0	111.5	4	37.5	4	-1E+10	1	-1E+10	1	-1E+10	1	-1E+10	1	-1E+10	1	-1E+10	1
4901784	144	C	06/14/2019	10:46	-132.398	42.830	0	340.20	0	6.2230	0	35.5940	8	27.997	0	337.228	0	109.9	4	37.0	4	-1E+10	1	-1E+10	1	-1E+10	1	-1E+10	1	-1E+10	1	-1E+10	1
4901784	144	C	06/14/2019	10:46	-132.398	42.830	0	342.90	0	6.1500	0	35.5960	8	28.009	0	339.903	0	108.2	4	36.3	4	-1E+10	1	-1E+10	1	-1E+10	1	-1E+10	1	-1E+10	1	-1E+10	1
4901784	144	C	06/14/2019	10:46	-132.398	42.830	0	345.50	0	6.0950	0	35.5990	8	28.018	0	342.478	0	106.1	4	35.6	4	-1E+10	1	-1E+10	1	-1E+10	1	-1E+10	1	-1E+10	1	-1E+10	1
4901784	144	C	06/14/2019	10:46	-132.398	42.830	0	347.20	0	6.0760	0	35.5980	8	28.020	0	344.161	0	105.3	4	35.3	4	-1E+10	1	-1E+10	1	-1E+10	1	-1E+10	1	-1E+10	1	-1E+10	1
4901784	144	C	06/14/2019	10:46	-132.398	42.830	0	349.90	0	6.0470	0	35.5980	8	28.024	0	346.836	0	103.7	4	34.7	4	-1E+10	1	-1E+10	1	-1E+10	1	-1E+10	1	-1E+10	1	-1E+10	1
4901784	144	C	06/14/2019	10:46	-132.398	42.830	0	352.60	0	6.0010	0	35.6000	8	28.031	0	349.510	0	102.6	4	34.3	4	-1E+10	1	-1E+10	1	-1E+10	1	-1E+10	1	-1E+10	1	-1E+10	1
4901784	144	C	06/14/2019	10:46	-132.398	42.830	0	355.30	0	5.9800	0	35.6000	8	28.034	0	352.184	0	101.2	4	33.8	4	-1E+10	1	-1E+10	1	-1E+10	1	-1E+10	1	-1E+10	1	-1E+10	1
4901784	144	C	06/14/2019	10:46	-132.398	42.830	0	358.00	0	5.9630	0	35.5980	8	28.035	0	354.858	0	100.0	4	33.4	4	-1E+10	1	-1E+10	1	-1E+10	1	-1E+10	1	-1E+10	1	-1E+10	1
4901784	144	C	06/14/2019	10:46	-132.398	42.830	0	359.90	0	5.9150	0	35.6010	8	28.043	0	356.739	0	99.4	4	33.2	4	-1E+10	1	-1E+10	1	-1E+10	1	-1E+10	1	-1E+10	1	-1E+10	1
4901784	144	C	06/14/2019	10:46	-132.398	42.830	0	362.60	0	5.8680	0	35.6020	8	28.050	0	359.413	0	98.3	4	32.8	4	-1E+10	1	-1E+10	1	-1E+10	1	-1E+10	1	-1E+10	1	-1E+10	1
4901784	144	C	06/14/2019	10:46	-132.398	42.830	0	365.30	0	5.8300	0	35.6020	8	28.055	0	362.087	0	96.7	4	32.2	4	-1E+10	1	-1E+10	1	-1E+10	1	-1E+10	1	-1E+10	1	-1E+10	1
4901784	144	C	06/14/2019	10:46	-132.398	42.830	0	367.10	0	5.8050	0	35.6040	8	28.060	0	363.870	0	95.6	4	31.9	4	-1E+10	1	-1E+10	1	-1E+10	1	-1E+10	1	-1E+10	1	-1E+10	1
4901784	144	C	06/14/2019	10:46	-132.398	42.830	0	369.80	0	5.7710	0	35.6050	8	28.065	0	366.544	0	94.1	4	31.3	4	-1E+10	1	-1E+10	1	-1E+10	1	-1E+10	1	-1E+10	1	-1E+10	1
4901784	144	C	06/14/2019	10:46	-132.398	42.830	0	372.50	0	5.7270	0	35.6070	8	28.072	0	369.218	0	92.4	4	30.7	4	-1E+10	1	-1E+10	1	-1E+10	1	-1E+10	1	-1E+10	1	-1E+10	1
4901784	144	C	06/14/2019	10:46	-132.398	42.830	0	375.20	0	5.7030	0	35.6070	8	28.075	0	371.891	0	90.7	4	30.1	4	-1E+10	1	-1E+10	1	-1E+10	1	-1E+10	1	-1E+10	1	-1E+10	1
4901784	144	C	06/14/2019	10:46	-132.398	42.830	0	377.90	0	5.6530	0	35.6100	8	28.084	0	374.565	0	88.8	4	29.5	4	-1E+10	1	-1E+10	1	-1E+10	1	-1E+10	1	-1E+10	1	-1E+10	1
4901784	144	C	06/14/2019	10:46	-132.398	42.830	0	379.60	0	5.6350	0	35.6100	8	28.086	0	376.249	0	87.8	4	29.1	4	-1E+10	1	-1E+10	1	-1E+10	1	-1E+10	1	-1E+10	1	-1E+10	1
4901784	144	C	06/14/2019	10:46	-132.398	42.830	0	382.30	0	5.5770	0	35.6150	8	28.097	0	378.922	0	86.2	4	28.5	4	-1E+10	1	-1E+10	1	-1E+10	1	-1E+10	1	-1E+10	1	-1E+10	1
4901784	144	C	06/14/2019	10:46	-132.398	42.830	0	384.90	0	5.5380	0	35.6170	8	28.104	0	381.497	0	85.1	4	28.2	4	-1E+10	1	-1E+10	1	-1E+10	1	-1E+10	1	-1E+10	1	-1E+10	1
4901784	144	C	06/14/2019	10:46	-132.398	42.830	0	387.60	0	5.5180	0	35.6180	8	28.107	0	384.170	0	84.2	4	27.8	4	-1E+10	1	-1E+10	1	-1E+10	1	-1E+10	1	-1E+10	1	-1E+10	1
4901784	144	C	06/14/2019	10:46	-132.398	42.830	0	390.30	0	5.4890	0	35.6190	8	28.111	0	386.844	0	83.0	4	27.4	4	-1E+10	1	-1E+10	1	-1E+10	1	-1E+10	1	-1E+10	1	-1E+10	1
4901784	144	C	06/14/2019	10:46	-132.398	42.830	0	392.10	0	5.4540	0	35.6220	8	28.118	0	388.626	0	82.4	4	27.2	4	-1E+10	1	-1E+10	1	-1E+10	1	-1E+10	1	-1E+10	1	-1E+10	1
4901784	144	C	06/14/2019	10:46	-132.398	42.830	0	394.70	0	5.4430	0	35.6230	8	28.120	0	391.201	0	81.5	4	26.9	4	-1E+10	1	-1E+10	1	-1E+10	1	-1E+10	1	-1E+10	1	-1E+10	1
4901784	144	C	06/14/2019	10:46	-132.398	42.830	0	397.40	0	5.4040	0	35.6240	8	28.126	0	393.874	0	80.4	4	26.5	4	-1E+10	1	-1E+10	1	-1E+10	1	-1E+10	1	-1E+10	1	-1E+10	1
4901784	144	C	06/14/2019	10:46	-132.398	42.830	0	400.10	0	5.3770	0	35.6240	8	28.129	0	396.548	0	79.3	4	26.1	4	-1E+10	1	-1E+10	1	-1E+10	1	-1E+10	1	-1E+10	1	-1E+10	1
4901784	144	C	06/14/2019	10:46	-132.398	42.830	0	402.80	0	5.3400	0	35.6250	8	28.134	0	399.221	0	77.8	4	25.6	4	-1E+10	1	-1E+10	1	-1E+10	1	-1E+10	1	-1E+10	1	-1E+10	1
4901784	144	C	06/14/2019	10:46	-132.398	42.830	0	404.60	0	5.3000	0	35.6290	8	28.142	0	401.004	0	77.0	4	25.3	4	-1E+10	1	-1E+10	1	-1E+10	1	-1E+10	1	-1E+10	1	-1E+10	1
4901784	144	C	06/14/2019	10:46	-132.398	42.830	0	407.30	0	5.2660	0	35.6330	8	28.150	0	403.677	0	76.1	4	25.0	4	-1E+10	1	-1E+10	1	-1E+10	1	-1E+10	1	-1E+10	1	-1E+10	1
4901784	144	C	06/14/2019	10:46	-132.398	42.830	0	409.90	0	5.2490	0	35.6350	8	28.153	0	406.251	0	75.0	4	24.7	4	-1E+10	1	-1E+10	1	-1E+10	1	-1E+10	1	-1E+10	1	-1E+10	1
4901784	144	C	06/14/2019	10:46	-132.398	42.830	0	412.70	0	5.2120	0	35.6370	8	28.159	0	409.024	0	74.0	4	24.3	4	-1E+10	1	-1E+10	1	-1E+10	1	-1E+10	1	-1E+10	1	-1E+10	1
4901784	144	C	06/14/2019	10:46	-132.398	42.830	0	415.40	0	5.1790	0	35.6410	8	28.167	0	411.697	0	73.1	4	24.0	4	-1E+10	1	-1E+10	1	-1E+10	1	-1E+10	1	-1E+10	1	-1E+10	1
4901784	144	C	06/14/2019	10:46	-132.398	42.830	0	417.10	0	5.1730	0	35.6420	8	28.168	0	413.380	0	72.5	4	23.8	4	-1E+10	1	-1E+10	1	-1E+10	1	-1E+10	1	-1E+10	1	-1E+10	1
4901784	144	C	06/14/2019	10:46	-132.398	42.830	0	419.80	0	5.1510	0	35.6430	8	28.172	0	416.053	0	71.4	4	23.4	4	-1E+10	1	-1E+10	1	-1E+10	1	-1E+10	1	-1E+10	1	-1E+10	1
4901784	144	C	06/14/2019	10:46	-132.398	42.830	0	422.50	0	5.1210	0	35.6460	8	28.178	0	418.726	0	70.1	4	23.0	4	-1E+10	1	-1E+10	1	-1E+10	1	-1E+10	1	-1E+10	1	-1E+10	1
4901784	144	C	06/14/2019	10:46	-132.398	42.830	0	425.10	0	5.0890	0	35.6500	8	28.185	0	421.301	0	68.9	4	22.6	4	-1E+10	1	-1E+10	1	-1E+10	1	-1E+10	1	-1E+10	1	-1E+10	1
4901784	144	C	06/14/2019	10:46	-132.398	42.830	0	427.80	0	5.0440	0	35.6580	8	28.196	0	423.974	0	67.9	4	22.2	4	-1E+10	1	-1E+10	1	-1E+10	1	-1E+10	1	-1E+10	1	-1E+10	1
4901784	144	C	06/14/2019	10:46	-132.398	42.830	0	429.60	0	5.0380	0	35.6590	8	28.198	0	425.756	0	67.4	4	22.1	4	-1E+10	1	-1E+10	1	-1E+10	1	-1E+10	1	-1E+10	1	-1E+10	1
4901784	144	C	06/14/2019	10:46	-132.398	42.830	0	432.30	0	5.0230	0	35.6610	8	28.201	0	428.429	0	66.8	4	21.8	4	-1E+10	1	-1E+10	1	-1E+10	1	-1E+10	1	-1E+10	1	-1E+10	1
4901784	144	C	06/14/2019	10:46	-132.398	42.830	0	435.00	0	5.0100	0	35.6640	8	28.205	0	431.102	0	66.3	4	21.7	4	-1E+10	1	-1E+10	1	-1E+10	1	-1E+10	1	-1E+10	1	-1E+10	1
4901784	144	C	06/14/2019	10:46	-132.398	42.830	0	437.70	0	5.0030	0	35.6650	8	28.207	0	433.775	0	65.8	4	21.5	4	-1E+10	1	-1E+10	1	-1E+10	1	-1E+10	1	-1E+10	1	-1E+10	1
4901784	144	C	06/14/2019	10:46	-132.398	42.830	0	440.40	0	4.9970	0	35.6660	8	28.208	0	436.448	0	65.2	4	21.3	4	-1E+10	1	-1E+10	1	-1E+10	1	-1E+10	1	-1E+10	1	-1E+10	1
4901784	144	C	06/14/2019	10:46	-132.398	42.830	0	442.30	0	4.9910	0	35.6670	8	28.210	0	438.329	0	64.8	4	21.2	4	-1E+10	1	-1E+10	1	-1E+10	1	-1E+10	1	-1E+10	1	-1E+10	1
4901784	144	C	06/14/2019	10:46	-132.398	42.830	0	445.00	0	4.9840	0	35.6680	8	28.211	0	441.002	0	63.9	4	20.9	4	-1E+10	1	-1E+10	1	-1E+10	1	-1E+10	1	-1E+10	1	-1E+10	1
4901784	144	C	06/14/2019	10:46	-132.398	42.830	0	447.80	0	4.9710	0	35.6690	8	28.214	0	443.773	0	62.8	4	20.5	4	-1E+10	1	-1E+10	1	-1E+10	1	-1E+10	1	-1E+10	1	-1E+10	1
4901784	144	C	06/14/2019	10:46	-132.398	42.830	0	449.60	0	4.9440	0	35.6740	8	28.221	0	445.555	0	61.9	4	20.2	4	-1E+10	1	-1E+10	1	-1E+10	1	-1E+10	1	-1E+10	1	-1E+10	1
4901784	144	C	06/14/2019	10:46	-132.398	42.830	0	452.40	0	4.9320	0	35.6770	8	28.225	0	448.327	0	61.0	4	19.9	4	-1E+10	1	-1E+10	1	-1E+10	1	-1E+10	1	-1E+10	1	-1E+10	1
4901784	144	C	06/14/2019	10:46	-132.398	42.830	0	455.00	0	4.9280	0	35.6800	8	28.228	0	450.901	0	59.9	4	19.5	4	-1E+10	1	-1E+10	1	-1E+10	1	-1E+10	1	-1E+10	1	-1E+10	1
4901784	144	C	06/14/2019	10:46	-132.398	42.830	0	457.70	0	4.9220	0	35.6820	8	28.230	0	453.574	0	58.7	4	19.2	4	-1E+10	1	-1E+10	1	-1E+10	1	-1E+10	1	-1E+10	1	-1E+10	1
4901784	144	C	06/14/2019	10:46	-132.398	42.830	0	460.40	0	4.8900	0	35.6880	8	28.238	0	456.246	0	57.5	4	18.7	4	-1E+10	1	-1E+10	1	-1E+10	1	-1E+10	1	-1E+10	1	-1E+10	1
4901784	144	C	06/14/2019	10:46	-132.398	42.830	0	462.20	0	4.8750	0	35.6890	8	28.241	0	458.028	0	56.7	4	18.5	4	-1E+10	1	-1E+10	1	-1E+10	1	-1E+10	1	-1E+10	1	-1E+10	1
4901784	144	C	06/14/2019	10:46	-132.398	42.830	0	465.00	0	4.8730	0	35.6950	8	28.246	0	460.800	0	55.2	4	18.0	4	-1E+10	1	-1E+10	1	-1E+10	1	-1E+10	1	-1E+10	1	-1E+10	1
4901784	144	C	06/14/2019	10:46	-132.398	42.830	0	467.70	0	4.8660	0	35.7010	8	28.252	0	463.472	0	54.0	4	17.6	4	-1E+10	1	-1E+10	1	-1E+10	1	-1E+10	1	-1E+10	1	-1E+10	1
4901784	144	C	06/14/2019	10:46	-132.398	42.830	0	469.60	0	4.8650	0	35.7030	8	28.253	0	465.353	0	53.5	4	17.4	4	-1E+10	1	-1E+10	1	-1E+10	1	-1E+10	1	-1E+10	1	-1E+10	1
4901784	144	C	06/14/2019	10:46	-132.398	42.830	0	472.40	0	4.8620	0	35.7050	8	28.255	0	468.125	0	52.4	4	17.1	4	-1E+10	1	-1E+10	1	-1E+10	1	-1E+10	1	-1E+10	1	-1E+10	1
4901784	144	C	06/14/2019	10:46	-132.398	42.830	0	475.20	0	4.8620	0	35.7100	8	28.259	0	470.896	0	51.1	4	16.7	4	-1E+10	1	-1E+10	1	-1E+10	1	-1E+10	1	-1E+10	1	-1E+10	1
4901784	144	C	06/14/2019	10:46	-132.398	42.830	0	477.10	0	4.8590	0	35.7120	8	28.261	0	472.777	0	50.5	4	16.5	4	-1E+10	1	-1E+10	1	-1E+10	1	-1E+10	1	-1E+10	1	-1E+10	1
4901784	144	C	06/14/2019	10:46	-132.398	42.830	0	479.90	0	4.8520	0	35.7150	8	28.265	0	475.548	0	49.7	4	16.2	4	-1E+10	1	-1E+10	1	-1E+10	1	-1E+10	1	-1E+10	1	-1E+10	1
4901784	144	C	06/14/2019	10:46	-132.398	42.830	0	482.70	0	4.8390	0	35.7200	8	28.270	0	478.319	0	48.8	4	15.9	4	-1E+10	1	-1E+10	1	-1E+10	1	-1E+10	1	-1E+10	1	-1E+10	1
4901784	144	C	06/14/2019	10:46	-132.398	42.830	0	485.20	0	4.8230	0	35.7230	8	28.274	0	480.794	0	48.3	4	15.7	4	-1E+10	1	-1E+10	1	-1E+10	1	-1E+10	1	-1E+10	1	-1E+10	1
4901784	144	C	06/14/2019	10:46	-132.398	42.830	0	487.90	0	4.8150	0	35.7250	8	28.277	0	483.466	0	47.8	4	15.6	4	-1E+10	1	-1E+10	1	-1E+10	1	-1E+10	1	-1E+10	1	-1E+10	1
4901784	144	C	06/14/2019	10:46	-132.398	42.830	0	490.30	0	4.8100	0	35.7250	8	28.277	0	485.842	0	47.3	4	15.4	4	-1E+10	1	-1E+10	1	-1E+10	1	-1E+10	1	-1E+10	1	-1E+10	1
4901784	144	C	06/14/2019	10:46	-132.398	42.830	0	492.70	0	4.7990	0	35.7280	8	28.281	0	488.217	0	46.4	4	15.1	4	-1E+10	1	-1E+10	1	-1E+10	1	-1E+10	1	-1E+10	1	-1E+10	1
4901784	144	C	06/14/2019	10:46	-132.398	42.830	0	495.00	0	4.7880	0	35.7320	8	28.286	0	490.493	0	45.6	4	14.9	4	-1E+10	1	-1E+10	1	-1E+10	1	-1E+10	1	-1E+10	1	-1E+10	1
4901784	144	C	06/14/2019	10:46	-132.398	42.830	0	497.40	0	4.7740	0	35.7360	8	28.290	0	492.869	0	45.0	4	14.6	4	-1E+10	1	-1E+10	1	-1E+10	1	-1E+10	1	-1E+10	1	-1E+10	1
4901784	144	C	06/14/2019	10:46	-132.398	42.830	0	499.80	0	4.7680	0	35.7380	8	28.293	0	495.244	0	44.5	4	14.5	4	-1E+10	1	-1E+10	1	-1E+10	1	-1E+10	1	-1E+10	1	-1E+10	1
4901784	144	C	06/14/2019	10:46	-132.398	42.830	0	504.60	0	4.7560	0	35.7420	8	28.297	0	499.994	0	42.7	4	13.9	4	-1E+10	1	-1E+10	1	-1E+10	1	-1E+10	1	-1E+10	1	-1E+10	1
4901784	144	C	06/14/2019	10:46	-132.398	42.830	0	509.50	0	4.7420	0	35.7510	8	28.306	0	504.844	0	40.9	4	13.3	4	-1E+10	1	-1E+10	1	-1E+10	1	-1E+10	1	-1E+10	1	-1E+10	1
4901784	144	C	06/14/2019	10:46	-132.398	42.830	0	514.40	0	4.7300	0	35.7580	8	28.313	0	509.693	0	39.1	4	12.7	4	-1E+10	1	-1E+10	1	-1E+10	1	-1E+10	1	-1E+10	1	-1E+10	1
4901784	144	C	06/14/2019	10:46	-132.398	42.830	0	519.40	0	4.7290	0	35.7650	8	28.319	0	514.641	0	37.2	4	12.1	4	-1E+10	1	-1E+10	1	-1E+10	1	-1E+10	1	-1E+10	1	-1E+10	1
4901784	144	C	06/14/2019	10:46	-132.398	42.830	0	524.40	0	4.7260	0	35.7740	8	28.326	0	519.589	0	35.5	4	11.6	4	-1E+10	1	-1E+10	1	-1E+10	1	-1E+10	1	-1E+10	1	-1E+10	1
4901784	144	C	06/14/2019	10:46	-132.398	42.830	0	529.50	0	4.7280	0	35.7790	8	28.330	0	524.636	0	33.9	4	11.0	4	-1E+10	1	-1E+10	1	-1E+10	1	-1E+10	1	-1E+10	1	-1E+10	1
4901784	144	C	06/14/2019	10:46	-132.398	42.830	0	534.60	0	4.7120	0	35.7880	8	28.339	0	529.682	0	32.2	4	10.5	4	-1E+10	1	-1E+10	1	-1E+10	1	-1E+10	1	-1E+10	1	-1E+10	1
4901784	144	C	06/14/2019	10:46	-132.398	42.830	0	539.80	0	4.6950	0	35.7970	8	28.348	0	534.828	0	31.0	4	10.1	4	-1E+10	1	-1E+10	1	-1E+10	1	-1E+10	1	-1E+10	1	-1E+10	1
4901784	144	C	06/14/2019	10:46	-132.398	42.830	0	544.90	0	4.6860	0	35.8020	8	28.353	0	539.874	0	30.1	4	9.8	4	-1E+10	1	-1E+10	1	-1E+10	1	-1E+10	1	-1E+10	1	-1E+10	1
4901784	144	C	06/14/2019	10:46	-132.398	42.830	0	550.00	0	4.6740	0	35.8060	8	28.358	0	544.921	0	29.0	4	9.4	4	-1E+10	1	-1E+10	1	-1E+10	1	-1E+10	1	-1E+10	1	-1E+10	1
4901784	144	C	06/14/2019	10:46	-132.398	42.830	0	555.10	0	4.6490	0	35.8150	8	28.368	0	549.967	0	27.7	4	9.0	4	-1E+10	1	-1E+10	1	-1E+10	1	-1E+10	1	-1E+10	1	-1E+10	1
4901784	144	C	06/14/2019	10:46	-132.398	42.830	0	560.20	0	4.6280	0	35.8210	8	28.375	0	555.013	0	27.0	4	8.8	4	-1E+10	1	-1E+10	1	-1E+10	1	-1E+10	1	-1E+10	1	-1E+10	1
4901784	144	C	06/14/2019	10:46	-132.398	42.830	0	565.30	0	4.6180	0	35.8250	8	28.380	0	560.059	0	26.1	4	8.5	4	-1E+10	1	-1E+10	1	-1E+10	1	-1E+10	1	-1E+10	1	-1E+10	1
4901784	144	C	06/14/2019	10:46	-132.398	42.830	0	570.50	0	4.6050	0	35.8310	8	28.386	0	565.203	0	25.2	4	8.2	4	-1E+10	1	-1E+10	1	-1E+10	1	-1E+10	1	-1E+10	1	-1E+10	1
4901784	144	C	06/14/2019	10:46	-132.398	42.830	0	574.80	0	4.5890	0	35.8380	8	28.393	0	569.458	0	24.3	4	7.9	4	-1E+10	1	-1E+10	1	-1E+10	1	-1E+10	1	-1E+10	1	-1E+10	1
4901784	144	C	06/14/2019	10:46	-132.398	42.830	0	579.30	0	4.5700	0	35.8430	8	28.399	0	573.910	0	24.2	4	7.8	4	-1E+10	1	-1E+10	1	-1E+10	1	-1E+10	1	-1E+10	1	-1E+10	1
4901784	144	C	06/14/2019	10:46	-132.398	42.830	0	584.60	0	4.5160	0	35.8440	8	28.406	0	579.153	0	24.2	4	7.8	4	-1E+10	1	-1E+10	1	-1E+10	1	-1E+10	1	-1E+10	1	-1E+10	1
4901784	144	C	06/14/2019	10:46	-132.398	42.830	0	590.00	0	4.4890	0	35.8490	8	28.413	0	584.495	0	24.1	4	7.8	4	-1E+10	1	-1E+10	1	-1E+10	1	-1E+10	1	-1E+10	1	-1E+10	1
4901784	144	C	06/14/2019	10:46	-132.398	42.830	0	595.40	0	4.4190	0	35.8480	8	28.420	0	589.837	0	24.6	4	8.0	4	-1E+10	1	-1E+10	1	-1E+10	1	-1E+10	1	-1E+10	1	-1E+10	1
4901784	144	C	06/14/2019	10:46	-132.398	42.830	0	599.90	0	4.3690	0	35.8520	8	28.429	0	594.288	0	24.4	4	7.9	4	-1E+10	1	-1E+10	1	-1E+10	1	-1E+10	1	-1E+10	1	-1E+10	1
4901784	144	C	06/14/2019	10:46	-132.398	42.830	0	604.50	0	4.3570	0	35.8520	8	28.431	0	598.839	0	24.1	4	7.8	4	-1E+10	1	-1E+10	1	-1E+10	1	-1E+10	1	-1E+10	1	-1E+10	1
4901784	144	C	06/14/2019	10:46	-132.398	42.830	0	610.00	0	4.3360	0	35.8560	8	28.436	0	604.279	0	23.6	4	7.6	4	-1E+10	1	-1E+10	1	-1E+10	1	-1E+10	1	-1E+10	1	-1E+10	1
4901784	144	C	06/14/2019	10:46	-132.398	42.830	0	615.50	0	4.3170	0	35.8610	8	28.442	0	609.720	0	22.9	4	7.4	4	-1E+10	1	-1E+10	1	-1E+10	1	-1E+10	1	-1E+10	1	-1E+10	1
4901784	144	C	06/14/2019	10:46	-132.398	42.830	0	620.20	0	4.3050	0	35.8660	8	28.448	0	614.369	0	22.2	4	7.1	4	-1E+10	1	-1E+10	1	-1E+10	1	-1E+10	1	-1E+10	1	-1E+10	1
4901784	144	C	06/14/2019	10:46	-132.398	42.830	0	624.90	0	4.2980	0	35.8720	8	28.453	0	619.017	0	21.2	4	6.8	4	-1E+10	1	-1E+10	1	-1E+10	1	-1E+10	1	-1E+10	1	-1E+10	1
4901784	144	C	06/14/2019	10:46	-132.398	42.830	0	630.40	0	4.3070	0	35.8810	8	28.459	0	624.457	0	19.8	4	6.4	4	-1E+10	1	-1E+10	1	-1E+10	1	-1E+10	1	-1E+10	1	-1E+10	1
4901784	144	C	06/14/2019	10:46	-132.398	42.830	0	635.10	0	4.3010	0	35.8910	8	28.468	0	629.106	0	18.6	4	6.0	4	-1E+10	1	-1E+10	1	-1E+10	1	-1E+10	1	-1E+10	1	-1E+10	1
4901784	144	C	06/14/2019	10:46	-132.398	42.830	0	639.90	0	4.3160	0	35.9000	8	28.474	0	633.853	0	17.8	4	5.7	4	-1E+10	1	-1E+10	1	-1E+10	1	-1E+10	1	-1E+10	1	-1E+10	1
4901784	144	C	06/14/2019	10:46	-132.398	42.830	0	644.60	0	4.3180	0	35.9060	8	28.478	0	638.502	0	17.3	4	5.6	4	-1E+10	1	-1E+10	1	-1E+10	1	-1E+10	1	-1E+10	1	-1E+10	1
4901784	144	C	06/14/2019	10:46	-132.398	42.830	0	649.40	0	4.3100	0	35.9130	8	28.485	0	643.249	0	16.6	4	5.4	4	-1E+10	1	-1E+10	1	-1E+10	1	-1E+10	1	-1E+10	1	-1E+10	1
4901784	144	C	06/14/2019	10:46	-132.398	42.830	0	655.10	0	4.3300	0	35.9200	8	28.488	0	648.886	0	16.4	4	5.3	4	-1E+10	1	-1E+10	1	-1E+10	1	-1E+10	1	-1E+10	1	-1E+10	1
4901784	144	C	06/14/2019	10:46	-132.398	42.830	0	660.60	0	4.2790	0	35.9160	8	28.491	0	654.325	0	17.0	4	5.5	4	-1E+10	1	-1E+10	1	-1E+10	1	-1E+10	1	-1E+10	1	-1E+10	1
4901784	144	C	06/14/2019	10:46	-132.398	42.830	0	665.50	0	4.2330	0	35.9170	8	28.496	0	659.171	0	16.5	4	5.3	4	-1E+10	1	-1E+10	1	-1E+10	1	-1E+10	1	-1E+10	1	-1E+10	1
4901784	144	C	06/14/2019	10:46	-132.398	42.830	0	670.30	0	4.2850	0	35.9310	8	28.502	0	663.918	0	15.4	4	5.0	4	-1E+10	1	-1E+10	1	-1E+10	1	-1E+10	1	-1E+10	1	-1E+10	1
4901784	144	C	06/14/2019	10:46	-132.398	42.830	0	675.20	0	4.2790	0	35.9330	8	28.504	0	668.763	0	15.5	4	5.0	4	-1E+10	1	-1E+10	1	-1E+10	1	-1E+10	1	-1E+10	1	-1E+10	1
4901784	144	C	06/14/2019	10:46	-132.398	42.830	0	680.00	0	4.2530	0	35.9320	8	28.506	0	673.510	0	15.6	4	5.0	4	-1E+10	1	-1E+10	1	-1E+10	1	-1E+10	1	-1E+10	1	-1E+10	1
4901784	144	C	06/14/2019	10:46	-132.398	42.830	0	685.00	0	4.2050	0	35.9350	8	28.514	0	678.454	0	15.5	4	5.0	4	-1E+10	1	-1E+10	1	-1E+10	1	-1E+10	1	-1E+10	1	-1E+10	1
4901784	144	C	06/14/2019	10:46	-132.398	42.830	0	690.00	0	4.2070	0	35.9410	8	28.519	0	683.398	0	15.0	4	4.8	4	-1E+10	1	-1E+10	1	-1E+10	1	-1E+10	1	-1E+10	1	-1E+10	1
4901784	144	C	06/14/2019	10:46	-132.398	42.830	0	695.10	0	4.1980	0	35.9430	8	28.521	0	688.441	0	14.8	4	4.7	4	-1E+10	1	-1E+10	1	-1E+10	1	-1E+10	1	-1E+10	1	-1E+10	1
4901784	144	C	06/14/2019	10:46	-132.398	42.830	0	700.20	0	4.1960	0	35.9530	8	28.529	0	693.483	0	14.1	4	4.5	4	-1E+10	1	-1E+10	1	-1E+10	1	-1E+10	1	-1E+10	1	-1E+10	1
4901784	144	C	06/14/2019	10:46	-132.398	42.830	0	705.30	0	4.1840	0	35.9600	8	28.536	0	698.526	0	14.1	4	4.5	4	-1E+10	1	-1E+10	1	-1E+10	1	-1E+10	1	-1E+10	1	-1E+10	1
4901784	144	C	06/14/2019	10:46	-132.398	42.830	0	710.50	0	4.1510	0	35.9590	8	28.539	0	703.667	0	14.2	4	4.6	4	-1E+10	1	-1E+10	1	-1E+10	1	-1E+10	1	-1E+10	1	-1E+10	1
4901784	144	C	06/14/2019	10:46	-132.398	42.830	0	715.70	0	4.1110	0	35.9610	8	28.545	0	708.808	0	14.4	4	4.6	4	-1E+10	1	-1E+10	1	-1E+10	1	-1E+10	1	-1E+10	1	-1E+10	1
4901784	144	C	06/14/2019	10:46	-132.398	42.830	0	720.80	0	4.0640	0	35.9620	8	28.551	0	713.850	0	14.5	4	4.6	4	-1E+10	1	-1E+10	1	-1E+10	1	-1E+10	1	-1E+10	1	-1E+10	1
4901784	144	C	06/14/2019	10:46	-132.398	42.830	0	725.00	0	4.0540	0	35.9650	8	28.554	0	718.003	0	14.3	4	4.6	4	-1E+10	1	-1E+10	1	-1E+10	1	-1E+10	1	-1E+10	1	-1E+10	1
4901784	144	C	06/14/2019	10:46	-132.398	42.830	0	729.20	0	4.0520	0	35.9660	8	28.556	0	722.155	0	14.3	4	4.6	4	-1E+10	1	-1E+10	1	-1E+10	1	-1E+10	1	-1E+10	1	-1E+10	1
4901784	144	C	06/14/2019	10:46	-132.398	42.830	0	734.40	0	4.0500	0	35.9670	8	28.557	0	727.296	0	14.1	4	4.5	4	-1E+10	1	-1E+10	1	-1E+10	1	-1E+10	1	-1E+10	1	-1E+10	1
4901784	144	C	06/14/2019	10:46	-132.398	42.830	0	739.40	0	4.0120	0	35.9720	8	28.565	0	732.239	0	13.9	4	4.5	4	-1E+10	1	-1E+10	1	-1E+10	1	-1E+10	1	-1E+10	1	-1E+10	1
4901784	144	C	06/14/2019	10:46	-132.398	42.830	0	744.50	0	4.0150	0	35.9780	8	28.569	0	737.280	0	13.5	4	4.3	4	-1E+10	1	-1E+10	1	-1E+10	1	-1E+10	1	-1E+10	1	-1E+10	1
4901784	144	C	06/14/2019	10:46	-132.398	42.830	0	749.60	0	4.0220	0	35.9860	8	28.575	0	742.322	0	13.1	4	4.2	4	-1E+10	1	-1E+10	1	-1E+10	1	-1E+10	1	-1E+10	1	-1E+10	1
4901784	144	C	06/14/2019	10:46	-132.398	42.830	0	754.70	0	4.0220	0	35.9890	8	28.577	0	747.363	0	13.1	4	4.2	4	-1E+10	1	-1E+10	1	-1E+10	1	-1E+10	1	-1E+10	1	-1E+10	1
4901784	144	C	06/14/2019	10:46	-132.398	42.830	0	759.80	0	3.9790	0	35.9910	8	28.583	0	752.404	0	13.3	4	4.3	4	-1E+10	1	-1E+10	1	-1E+10	1	-1E+10	1	-1E+10	1	-1E+10	1
4901784	144	C	06/14/2019	10:46	-132.398	42.830	0	765.00	0	3.9040	0	35.9920	8	28.592	0	757.544	0	13.7	4	4.4	4	-1E+10	1	-1E+10	1	-1E+10	1	-1E+10	1	-1E+10	1	-1E+10	1
4901784	144	C	06/14/2019	10:46	-132.398	42.830	0	770.20	0	3.8630	0	35.9930	8	28.597	0	762.684	0	13.9	4	4.4	4	-1E+10	1	-1E+10	1	-1E+10	1	-1E+10	1	-1E+10	1	-1E+10	1
4901784	144	C	06/14/2019	10:46	-132.398	42.830	0	775.40	0	3.8410	0	35.9940	8	28.601	0	767.824	0	13.9	4	4.4	4	-1E+10	1	-1E+10	1	-1E+10	1	-1E+10	1	-1E+10	1	-1E+10	1
4901784	144	C	06/14/2019	10:46	-132.398	42.830	0	780.60	0	3.8350	0	35.9960	8	28.603	0	772.963	0	13.7	4	4.4	4	-1E+10	1	-1E+10	1	-1E+10	1	-1E+10	1	-1E+10	1	-1E+10	1
4901784	144	C	06/14/2019	10:46	-132.398	42.830	0	784.90	0	3.8270	0	35.9990	8	28.606	0	777.213	0	13.5	4	4.3	4	-1E+10	1	-1E+10	1	-1E+10	1	-1E+10	1	-1E+10	1	-1E+10	1
4901784	144	C	06/14/2019	10:46	-132.398	42.830	0	789.30	0	3.8120	0	36.0030	8	28.611	0	781.562	0	13.2	4	4.2	4	-1E+10	1	-1E+10	1	-1E+10	1	-1E+10	1	-1E+10	1	-1E+10	1
4901784	144	C	06/14/2019	10:46	-132.398	42.830	0	794.40	0	3.7940	0	36.0110	8	28.619	0	786.602	0	12.9	4	4.1	4	-1E+10	1	-1E+10	1	-1E+10	1	-1E+10	1	-1E+10	1	-1E+10	1
4901784	144	C	06/14/2019	10:46	-132.398	42.830	0	799.60	0	3.7810	0	36.0160	8	28.625	0	791.741	0	12.7	4	4.0	4	-1E+10	1	-1E+10	1	-1E+10	1	-1E+10	1	-1E+10	1	-1E+10	1
4901784	144	C	06/14/2019	10:46	-132.398	42.830	0	804.80	0	3.7610	0	36.0210	8	28.631	0	796.880	0	12.5	4	4.0	4	-1E+10	1	-1E+10	1	-1E+10	1	-1E+10	1	-1E+10	1	-1E+10	1
4901784	144	C	06/14/2019	10:46	-132.398	42.830	0	810.10	0	3.7510	0	36.0250	8	28.635	0	802.118	0	12.4	4	3.9	4	-1E+10	1	-1E+10	1	-1E+10	1	-1E+10	1	-1E+10	1	-1E+10	1
4901784	144	C	06/14/2019	10:46	-132.398	42.830	0	815.40	0	3.7440	0	36.0270	8	28.637	0	807.356	0	12.2	4	3.9	4	-1E+10	1	-1E+10	1	-1E+10	1	-1E+10	1	-1E+10	1	-1E+10	1
4901784	144	C	06/14/2019	10:46	-132.398	42.830	0	820.70	0	3.7300	0	36.0310	8	28.642	0	812.593	0	12.0	4	3.8	4	-1E+10	1	-1E+10	1	-1E+10	1	-1E+10	1	-1E+10	1	-1E+10	1
4901784	144	C	06/14/2019	10:46	-132.398	42.830	0	825.20	0	3.7190	0	36.0360	8	28.647	0	817.040	0	11.9	4	3.8	4	-1E+10	1	-1E+10	1	-1E+10	1	-1E+10	1	-1E+10	1	-1E+10	1
4901784	144	C	06/14/2019	10:46	-132.398	42.830	0	829.60	0	3.7120	0	36.0390	8	28.650	0	821.388	0	11.7	4	3.7	4	-1E+10	1	-1E+10	1	-1E+10	1	-1E+10	1	-1E+10	1	-1E+10	1
4901784	144	C	06/14/2019	10:46	-132.398	42.830	0	835.00	0	3.7000	0	36.0460	8	28.657	0	826.723	0	11.4	4	3.6	4	-1E+10	1	-1E+10	1	-1E+10	1	-1E+10	1	-1E+10	1	-1E+10	1
4901784	144	C	06/14/2019	10:46	-132.398	42.830	0	840.50	0	3.7110	0	36.0550	8	28.663	0	832.158	0	11.0	4	3.5	4	-1E+10	1	-1E+10	1	-1E+10	1	-1E+10	1	-1E+10	1	-1E+10	1
4901784	144	C	06/14/2019	10:46	-132.398	42.830	0	845.00	0	3.7230	0	36.0620	8	28.668	0	836.604	0	10.9	4	3.5	4	-1E+10	1	-1E+10	1	-1E+10	1	-1E+10	1	-1E+10	1	-1E+10	1
4901784	144	C	06/14/2019	10:46	-132.398	42.830	0	849.60	0	3.7270	0	36.0660	8	28.670	0	841.149	0	10.7	4	3.4	4	-1E+10	1	-1E+10	1	-1E+10	1	-1E+10	1	-1E+10	1	-1E+10	1
4901784	144	C	06/14/2019	10:46	-132.398	42.830	0	855.00	0	3.7460	0	36.0730	8	28.674	0	846.485	0	10.5	4	3.4	4	-1E+10	1	-1E+10	1	-1E+10	1	-1E+10	1	-1E+10	1	-1E+10	1
4901784	144	C	06/14/2019	10:46	-132.398	42.830	0	860.50	0	3.7240	0	36.0780	8	28.680	0	851.919	0	10.5	4	3.3	4	-1E+10	1	-1E+10	1	-1E+10	1	-1E+10	1	-1E+10	1	-1E+10	1
4901784	144	C	06/14/2019	10:46	-132.398	42.830	0	865.20	0	3.7270	0	36.0840	8	28.685	0	856.562	0	10.5	4	3.3	4	-1E+10	1	-1E+10	1	-1E+10	1	-1E+10	1	-1E+10	1	-1E+10	1
4901784	144	C	06/14/2019	10:46	-132.398	42.830	0	869.90	0	3.7130	0	36.0850	8	28.687	0	861.206	0	10.4	4	3.3	4	-1E+10	1	-1E+10	1	-1E+10	1	-1E+10	1	-1E+10	1	-1E+10	1
4901784	144	C	06/14/2019	10:46	-132.398	42.830	0	875.60	0	3.6620	0	36.0860	8	28.693	0	866.837	0	10.5	4	3.3	4	-1E+10	1	-1E+10	1	-1E+10	1	-1E+10	1	-1E+10	1	-1E+10	1
4901784	144	C	06/14/2019	10:46	-132.398	42.830	0	880.30	0	3.6500	0	36.0870	8	28.695	0	871.480	0	10.5	4	3.3	4	-1E+10	1	-1E+10	1	-1E+10	1	-1E+10	1	-1E+10	1	-1E+10	1
4901784	144	C	06/14/2019	10:46	-132.398	42.830	0	885.00	0	3.6410	0	36.0890	8	28.698	0	876.123	0	10.4	4	3.3	4	-1E+10	1	-1E+10	1	-1E+10	1	-1E+10	1	-1E+10	1	-1E+10	1
4901784	144	C	06/14/2019	10:46	-132.398	42.830	0	890.40	0	3.6290	0	36.0960	8	28.705	0	881.458	0	10.3	4	3.3	4	-1E+10	1	-1E+10	1	-1E+10	1	-1E+10	1	-1E+10	1	-1E+10	1
4901784	144	C	06/14/2019	10:46	-132.398	42.830	0	895.30	0	3.6250	0	36.1000	8	28.708	0	886.298	0	10.3	4	3.3	4	-1E+10	1	-1E+10	1	-1E+10	1	-1E+10	1	-1E+10	1	-1E+10	1
4901784	144	C	06/14/2019	10:46	-132.398	42.830	0	900.30	0	3.6150	0	36.1040	8	28.713	0	891.237	0	10.3	4	3.3	4	-1E+10	1	-1E+10	1	-1E+10	1	-1E+10	1	-1E+10	1	-1E+10	1
4901784	144	C	06/14/2019	10:46	-132.398	42.830	0	905.40	0	3.6020	0	36.1070	8	28.716	0	896.275	0	10.2	4	3.3	4	-1E+10	1	-1E+10	1	-1E+10	1	-1E+10	1	-1E+10	1	-1E+10	1
4901784	144	C	06/14/2019	10:46	-132.398	42.830	0	910.50	0	3.5940	0	36.1100	8	28.720	0	901.312	0	10.2	4	3.2	4	-1E+10	1	-1E+10	1	-1E+10	1	-1E+10	1	-1E+10	1	-1E+10	1
4901784	144	C	06/14/2019	10:46	-132.398	42.830	0	915.70	0	3.5820	0	36.1130	8	28.723	0	906.449	0	10.2	4	3.2	4	-1E+10	1	-1E+10	1	-1E+10	1	-1E+10	1	-1E+10	1	-1E+10	1
4901784	144	C	06/14/2019	10:46	-132.398	42.830	0	920.00	0	3.5750	0	36.1150	8	28.726	0	910.696	0	10.2	4	3.2	4	-1E+10	1	-1E+10	1	-1E+10	1	-1E+10	1	-1E+10	1	-1E+10	1
4901784	144	C	06/14/2019	10:46	-132.398	42.830	0	924.40	0	3.5670	0	36.1180	8	28.729	0	915.042	0	10.2	4	3.2	4	-1E+10	1	-1E+10	1	-1E+10	1	-1E+10	1	-1E+10	1	-1E+10	1
4901784	144	C	06/14/2019	10:46	-132.398	42.830	0	929.70	0	3.5470	0	36.1230	8	28.735	0	920.276	0	10.2	4	3.2	4	-1E+10	1	-1E+10	1	-1E+10	1	-1E+10	1	-1E+10	1	-1E+10	1
4901784	144	C	06/14/2019	10:46	-132.398	42.830	0	935.00	0	3.5270	0	36.1300	8	28.743	0	925.511	0	10.3	4	3.3	4	-1E+10	1	-1E+10	1	-1E+10	1	-1E+10	1	-1E+10	1	-1E+10	1
4901784	144	C	06/14/2019	10:46	-132.398	42.830	0	940.40	0	3.5260	0	36.1340	8	28.746	0	930.844	0	10.3	4	3.3	4	-1E+10	1	-1E+10	1	-1E+10	1	-1E+10	1	-1E+10	1	-1E+10	1
4901784	144	C	06/14/2019	10:46	-132.398	42.830	0	944.90	0	3.5250	0	36.1370	8	28.748	0	935.288	0	10.3	4	3.3	4	-1E+10	1	-1E+10	1	-1E+10	1	-1E+10	1	-1E+10	1	-1E+10	1
4901784	144	C	06/14/2019	10:46	-132.398	42.830	0	949.40	0	3.5170	0	36.1390	8	28.751	0	939.733	0	10.3	4	3.3	4	-1E+10	1	-1E+10	1	-1E+10	1	-1E+10	1	-1E+10	1	-1E+10	1
4901784	144	C	06/14/2019	10:46	-132.398	42.830	0	955.00	0	3.5070	0	36.1420	8	28.754	0	945.263	0	10.3	4	3.3	4	-1E+10	1	-1E+10	1	-1E+10	1	-1E+10	1	-1E+10	1	-1E+10	1
4901784	144	C	06/14/2019	10:46	-132.398	42.830	0	960.50	0	3.4930	0	36.1460	8	28.759	0	950.694	0	10.4	4	3.3	4	-1E+10	1	-1E+10	1	-1E+10	1	-1E+10	1	-1E+10	1	-1E+10	1
4901784	144	C	06/14/2019	10:46	-132.398	42.830	0	965.20	0	3.4860	0	36.1490	8	28.762	0	955.336	0	10.4	4	3.3	4	-1E+10	1	-1E+10	1	-1E+10	1	-1E+10	1	-1E+10	1	-1E+10	1
4901784	144	C	06/14/2019	10:46	-132.398	42.830	0	969.80	0	3.4790	0	36.1500	8	28.764	0	959.878	0	10.5	4	3.3	4	-1E+10	1	-1E+10	1	-1E+10	1	-1E+10	1	-1E+10	1	-1E+10	1
4901784	144	C	06/14/2019	10:46	-132.398	42.830	0	975.50	0	3.4630	0	36.1530	8	28.768	0	965.507	0	10.5	4	3.3	4	-1E+10	1	-1E+10	1	-1E+10	1	-1E+10	1	-1E+10	1	-1E+10	1
4901784	144	C	06/14/2019	10:46	-132.398	42.830	0	980.40	0	3.4490	0	36.1580	8	28.773	0	970.345	0	10.6	4	3.3	4	-1E+10	1	-1E+10	1	-1E+10	1	-1E+10	1	-1E+10	1	-1E+10	1
4901784	144	C	06/14/2019	10:46	-132.398	42.830	0	985.00	0	3.4430	0	36.1600	8	28.775	0	974.887	0	10.6	4	3.4	4	-1E+10	1	-1E+10	1	-1E+10	1	-1E+10	1	-1E+10	1	-1E+10	1
4901784	144	C	06/14/2019	10:46	-132.398	42.830	0	989.80	0	3.4390	0	36.1610	8	28.777	0	979.627	0	10.6	4	3.4	4	-1E+10	1	-1E+10	1	-1E+10	1	-1E+10	1	-1E+10	1	-1E+10	1
4901784	144	C	06/14/2019	10:46	-132.398	42.830	0	994.70	0	3.4300	0	36.1640	8	28.780	0	984.465	0	10.7	4	3.4	4	-1E+10	1	-1E+10	1	-1E+10	1	-1E+10	1	-1E+10	1	-1E+10	1
4901784	144	C	06/14/2019	10:46	-132.398	42.830	0	999.70	0	3.4160	0	36.1680	8	28.784	0	989.402	0	10.8	4	3.4	4	-1E+10	1	-1E+10	1	-1E+10	1	-1E+10	1	-1E+10	1	-1E+10	1
4901784	144	C	06/14/2019	10:46	-132.398	42.830	0	1004.60	0	3.4060	0	36.1710	8	28.788	0	994.240	0	10.8	4	3.4	4	-1E+10	1	-1E+10	1	-1E+10	1	-1E+10	1	-1E+10	1	-1E+10	1
4901784	144	C	06/14/2019	10:46	-132.398	42.830	0	1009.60	0	3.3970	0	36.1730	8	28.790	0	999.176	0	10.9	4	3.4	4	-1E+10	1	-1E+10	1	-1E+10	1	-1E+10	1	-1E+10	1	-1E+10	1
4901784	144	C	06/14/2019	10:46	-132.398	42.830	0	1014.60	0	3.3920	0	36.1750	8	28.793	0	1004.112	0	10.9	4	3.5	4	-1E+10	1	-1E+10	1	-1E+10	1	-1E+10	1	-1E+10	1	-1E+10	1
4901784	144	C	06/14/2019	10:46	-132.398	42.830	0	1019.70	0	3.3890	0	36.1760	8	28.794	0	1009.148	0	11.0	4	3.5	4	-1E+10	1	-1E+10	1	-1E+10	1	-1E+10	1	-1E+10	1	-1E+10	1
4901784	144	C	06/14/2019	10:46	-132.398	42.830	0	1024.80	0	3.3760	0	36.1780	8	28.797	0	1014.182	0	11.1	4	3.5	4	-1E+10	1	-1E+10	1	-1E+10	1	-1E+10	1	-1E+10	1	-1E+10	1
4901784	144	C	06/14/2019	10:46	-132.398	42.830	0	1030.00	0	3.3570	0	36.1820	8	28.802	0	1019.316	0	11.1	4	3.5	4	-1E+10	1	-1E+10	1	-1E+10	1	-1E+10	1	-1E+10	1	-1E+10	1
4901784	144	C	06/14/2019	10:46	-132.398	42.830	0	1035.10	0	3.3400	0	36.1850	8	28.806	0	1024.351	0	11.2	4	3.5	4	-1E+10	1	-1E+10	1	-1E+10	1	-1E+10	1	-1E+10	1	-1E+10	1
4901784	144	C	06/14/2019	10:46	-132.398	42.830	0	1040.40	0	3.3300	0	36.1870	8	28.808	0	1029.583	0	11.3	4	3.6	4	-1E+10	1	-1E+10	1	-1E+10	1	-1E+10	1	-1E+10	1	-1E+10	1
4901784	144	C	06/14/2019	10:46	-132.398	42.830	0	1045.70	0	3.3230	0	36.1890	8	28.811	0	1034.814	0	11.4	4	3.6	4	-1E+10	1	-1E+10	1	-1E+10	1	-1E+10	1	-1E+10	1	-1E+10	1
4901784	144	C	06/14/2019	10:46	-132.398	42.830	0	1050.10	0	3.3100	0	36.1930	8	28.815	0	1039.158	0	11.5	4	3.6	4	-1E+10	1	-1E+10	1	-1E+10	1	-1E+10	1	-1E+10	1	-1E+10	1
4901784	144	C	06/14/2019	10:46	-132.398	42.830	0	1054.50	0	3.3020	0	36.1960	8	28.819	0	1043.501	0	11.6	4	3.7	4	-1E+10	1	-1E+10	1	-1E+10	1	-1E+10	1	-1E+10	1	-1E+10	1
4901784	144	C	06/14/2019	10:46	-132.398	42.830	0	1059.70	0	3.2870	0	36.1990	8	28.822	0	1048.634	0	11.7	4	3.7	4	-1E+10	1	-1E+10	1	-1E+10	1	-1E+10	1	-1E+10	1	-1E+10	1
4901784	144	C	06/14/2019	10:46	-132.398	42.830	0	1065.10	0	3.2740	0	36.2030	8	28.827	0	1053.964	0	11.8	4	3.7	4	-1E+10	1	-1E+10	1	-1E+10	1	-1E+10	1	-1E+10	1	-1E+10	1
4901784	144	C	06/14/2019	10:46	-132.398	42.830	0	1070.40	0	3.2720	0	36.2030	8	28.827	0	1059.195	0	11.9	4	3.7	4	-1E+10	1	-1E+10	1	-1E+10	1	-1E+10	1	-1E+10	1	-1E+10	1
4901784	144	C	06/14/2019	10:46	-132.398	42.830	0	1075.70	0	3.2560	0	36.2050	8	28.830	0	1064.426	0	12.0	4	3.8	4	-1E+10	1	-1E+10	1	-1E+10	1	-1E+10	1	-1E+10	1	-1E+10	1
4901784	144	C	06/14/2019	10:46	-132.398	42.830	0	1080.20	0	3.2420	0	36.2090	8	28.835	0	1068.867	0	12.1	4	3.8	4	-1E+10	1	-1E+10	1	-1E+10	1	-1E+10	1	-1E+10	1	-1E+10	1
4901784	144	C	06/14/2019	10:46	-132.398	42.830	0	1084.70	0	3.2310	0	36.2110	8	28.838	0	1073.309	0	12.2	4	3.8	4	-1E+10	1	-1E+10	1	-1E+10	1	-1E+10	1	-1E+10	1	-1E+10	1
4901784	144	C	06/14/2019	10:46	-132.398	42.830	0	1090.10	0	3.2190	0	36.2130	8	28.841	0	1078.638	0	12.2	4	3.8	4	-1E+10	1	-1E+10	1	-1E+10	1	-1E+10	1	-1E+10	1	-1E+10	1
4901784	144	C	06/14/2019	10:46	-132.398	42.830	0	1095.40	0	3.2120	0	36.2150	8	28.843	0	1083.869	0	12.3	4	3.9	4	-1E+10	1	-1E+10	1	-1E+10	1	-1E+10	1	-1E+10	1	-1E+10	1
4901784	144	C	06/14/2019	10:46	-132.398	42.830	0	1100.70	0	3.2010	0	36.2180	8	28.846	0	1089.099	0	12.4	4	3.9	4	-1E+10	1	-1E+10	1	-1E+10	1	-1E+10	1	-1E+10	1	-1E+10	1
4901784	144	C	06/14/2019	10:46	-132.398	42.830	0	1105.10	0	3.1930	0	36.2200	8	28.849	0	1093.441	0	12.5	4	3.9	4	-1E+10	1	-1E+10	1	-1E+10	1	-1E+10	1	-1E+10	1	-1E+10	1
4901784	144	C	06/14/2019	10:46	-132.398	42.830	0	1109.60	0	3.1870	0	36.2210	8	28.850	0	1097.882	0	12.6	4	4.0	4	-1E+10	1	-1E+10	1	-1E+10	1	-1E+10	1	-1E+10	1	-1E+10	1
4901784	144	C	06/14/2019	10:46	-132.398	42.830	0	1115.00	0	3.1830	0	36.2220	8	28.851	0	1103.211	0	12.7	4	4.0	4	-1E+10	1	-1E+10	1	-1E+10	1	-1E+10	1	-1E+10	1	-1E+10	1
4901784	144	C	06/14/2019	10:46	-132.398	42.830	0	1120.40	0	3.1710	0	36.2240	8	28.854	0	1108.540	0	12.8	4	4.0	4	-1E+10	1	-1E+10	1	-1E+10	1	-1E+10	1	-1E+10	1	-1E+10	1
4901784	144	C	06/14/2019	10:46	-132.398	42.830	0	1124.90	0	3.1590	0	36.2270	8	28.858	0	1112.980	0	13.0	4	4.1	4	-1E+10	1	-1E+10	1	-1E+10	1	-1E+10	1	-1E+10	1	-1E+10	1
4901784	144	C	06/14/2019	10:46	-132.398	42.830	0	1129.40	0	3.1530	0	36.2290	8	28.860	0	1117.420	0	13.1	4	4.1	4	-1E+10	1	-1E+10	1	-1E+10	1	-1E+10	1	-1E+10	1	-1E+10	1
4901784	144	C	06/14/2019	10:46	-132.398	42.830	0	1134.80	0	3.1420	0	36.2310	8	28.863	0	1122.749	0	13.3	4	4.2	4	-1E+10	1	-1E+10	1	-1E+10	1	-1E+10	1	-1E+10	1	-1E+10	1
4901784	144	C	06/14/2019	10:46	-132.398	42.830	0	1140.10	0	3.1270	0	36.2350	8	28.867	0	1127.978	0	13.4	4	4.2	4	-1E+10	1	-1E+10	1	-1E+10	1	-1E+10	1	-1E+10	1	-1E+10	1
4901784	144	C	06/14/2019	10:46	-132.398	42.830	0	1145.50	0	3.1180	0	36.2360	8	28.869	0	1133.306	0	13.5	4	4.2	4	-1E+10	1	-1E+10	1	-1E+10	1	-1E+10	1	-1E+10	1	-1E+10	1
4901784	144	C	06/14/2019	10:46	-132.398	42.830	0	1149.90	0	3.1080	0	36.2380	8	28.872	0	1137.647	0	13.6	4	4.3	4	-1E+10	1	-1E+10	1	-1E+10	1	-1E+10	1	-1E+10	1	-1E+10	1
4901784	144	C	06/14/2019	10:46	-132.398	42.830	0	1154.40	0	3.0990	0	36.2400	8	28.874	0	1142.087	0	13.7	4	4.3	4	-1E+10	1	-1E+10	1	-1E+10	1	-1E+10	1	-1E+10	1	-1E+10	1
4901784	144	C	06/14/2019	10:46	-132.398	42.830	0	1159.70	0	3.0890	0	36.2420	8	28.877	0	1147.316	0	13.8	4	4.3	4	-1E+10	1	-1E+10	1	-1E+10	1	-1E+10	1	-1E+10	1	-1E+10	1
4901784	144	C	06/14/2019	10:46	-132.398	42.830	0	1165.00	0	3.0790	0	36.2440	8	28.879	0	1152.545	0	13.9	4	4.4	4	-1E+10	1	-1E+10	1	-1E+10	1	-1E+10	1	-1E+10	1	-1E+10	1
4901784	144	C	06/14/2019	10:46	-132.398	42.830	0	1170.30	0	3.0690	0	36.2460	8	28.882	0	1157.774	0	14.1	4	4.4	4	-1E+10	1	-1E+10	1	-1E+10	1	-1E+10	1	-1E+10	1	-1E+10	1
4901784	144	C	06/14/2019	10:46	-132.398	42.830	0	1175.70	0	3.0530	0	36.2480	8	28.885	0	1163.101	0	14.3	4	4.5	4	-1E+10	1	-1E+10	1	-1E+10	1	-1E+10	1	-1E+10	1	-1E+10	1
4901784	144	C	06/14/2019	10:46	-132.398	42.830	0	1180.20	0	3.0370	0	36.2520	8	28.890	0	1167.540	0	14.5	4	4.5	4	-1E+10	1	-1E+10	1	-1E+10	1	-1E+10	1	-1E+10	1	-1E+10	1
4901784	144	C	06/14/2019	10:46	-132.398	42.830	0	1184.60	0	3.0320	0	36.2530	8	28.891	0	1171.881	0	14.5	4	4.6	4	-1E+10	1	-1E+10	1	-1E+10	1	-1E+10	1	-1E+10	1	-1E+10	1
4901784	144	C	06/14/2019	10:46	-132.398	42.830	0	1190.00	0	3.0280	0	36.2540	8	28.892	0	1177.208	0	14.6	4	4.6	4	-1E+10	1	-1E+10	1	-1E+10	1	-1E+10	1	-1E+10	1	-1E+10	1
4901784	144	C	06/14/2019	10:46	-132.398	42.830	0	1195.30	0	3.0180	0	36.2560	8	28.895	0	1182.436	0	14.8	4	4.6	4	-1E+10	1	-1E+10	1	-1E+10	1	-1E+10	1	-1E+10	1	-1E+10	1
4901784	144	C	06/14/2019	10:46	-132.398	42.830	0	1200.60	0	3.0080	0	36.2580	8	28.898	0	1187.664	0	15.0	4	4.7	4	-1E+10	1	-1E+10	1	-1E+10	1	-1E+10	1	-1E+10	1	-1E+10	1
4901784	144	C	06/14/2019	10:46	-132.398	42.830	0	1205.10	0	2.9980	0	36.2610	8	28.901	0	1192.103	0	15.1	4	4.7	4	-1E+10	1	-1E+10	1	-1E+10	1	-1E+10	1	-1E+10	1	-1E+10	1
4901784	144	C	06/14/2019	10:46	-132.398	42.830	0	1209.60	0	2.9910	0	36.2610	8	28.902	0	1196.541	0	15.3	4	4.8	4	-1E+10	1	-1E+10	1	-1E+10	1	-1E+10	1	-1E+10	1	-1E+10	1
4901784	144	C	06/14/2019	10:46	-132.398	42.830	0	1215.10	0	2.9790	0	36.2640	8	28.905	0	1201.966	0	15.6	4	4.9	4	-1E+10	1	-1E+10	1	-1E+10	1	-1E+10	1	-1E+10	1	-1E+10	1
4901784	144	C	06/14/2019	10:46	-132.398	42.830	0	1220.50	0	2.9670	0	36.2670	8	28.909	0	1207.292	0	15.7	4	4.9	4	-1E+10	1	-1E+10	1	-1E+10	1	-1E+10	1	-1E+10	1	-1E+10	1
4901784	144	C	06/14/2019	10:46	-132.398	42.830	0	1225.10	0	2.9630	0	36.2680	8	28.910	0	1211.829	0	15.9	4	5.0	4	-1E+10	1	-1E+10	1	-1E+10	1	-1E+10	1	-1E+10	1	-1E+10	1
4901784	144	C	06/14/2019	10:46	-132.398	42.830	0	1229.70	0	2.9470	0	36.2700	8	28.913	0	1216.366	0	16.0	4	5.0	4	-1E+10	1	-1E+10	1	-1E+10	1	-1E+10	1	-1E+10	1	-1E+10	1
4901784	144	C	06/14/2019	10:46	-132.398	42.830	0	1235.20	0	2.9380	0	36.2720	8	28.916	0	1221.791	0	16.2	4	5.1	4	-1E+10	1	-1E+10	1	-1E+10	1	-1E+10	1	-1E+10	1	-1E+10	1
4901784	144	C	06/14/2019	10:46	-132.398	42.830	0	1240.60	0	2.9280	0	36.2750	8	28.919	0	1227.116	0	16.3	4	5.1	4	-1E+10	1	-1E+10	1	-1E+10	1	-1E+10	1	-1E+10	1	-1E+10	1
4901784	144	C	06/14/2019	10:46	-132.398	42.830	0	1245.50	0	2.9230	0	36.2750	8	28.919	0	1231.949	0	16.5	4	5.2	4	-1E+10	1	-1E+10	1	-1E+10	1	-1E+10	1	-1E+10	1	-1E+10	1
4901784	144	C	06/14/2019	10:46	-132.398	42.830	0	1250.40	0	2.9130	0	36.2780	8	28.923	0	1236.781	0	16.7	4	5.2	4	-1E+10	1	-1E+10	1	-1E+10	1	-1E+10	1	-1E+10	1	-1E+10	1
4901784	144	C	06/14/2019	10:46	-132.398	42.830	0	1255.30	0	2.9050	0	36.2790	8	28.924	0	1241.613	0	16.9	4	5.3	4	-1E+10	1	-1E+10	1	-1E+10	1	-1E+10	1	-1E+10	1	-1E+10	1
4901784	144	C	06/14/2019	10:46	-132.398	42.830	0	1260.20	0	2.8930	0	36.2810	8	28.927	0	1246.445	0	17.2	4	5.4	4	-1E+10	1	-1E+10	1	-1E+10	1	-1E+10	1	-1E+10	1	-1E+10	1
4901784	144	C	06/14/2019	10:46	-132.398	42.830	0	1265.00	0	2.8810	0	36.2840	8	28.931	0	1251.179	0	17.5	4	5.5	4	-1E+10	1	-1E+10	1	-1E+10	1	-1E+10	1	-1E+10	1	-1E+10	1
4901784	144	C	06/14/2019	10:46	-132.398	42.830	0	1270.00	0	2.8650	0	36.2870	8	28.935	0	1256.109	0	17.8	4	5.5	4	-1E+10	1	-1E+10	1	-1E+10	1	-1E+10	1	-1E+10	1	-1E+10	1
4901784	144	C	06/14/2019	10:46	-132.398	42.830	0	1274.90	0	2.8550	0	36.2880	8	28.936	0	1260.941	0	18.0	4	5.6	4	-1E+10	1	-1E+10	1	-1E+10	1	-1E+10	1	-1E+10	1	-1E+10	1
4901784	144	C	06/14/2019	10:46	-132.398	42.830	0	1279.90	0	2.8410	0	36.2910	8	28.940	0	1265.871	0	18.3	4	5.7	4	-1E+10	1	-1E+10	1	-1E+10	1	-1E+10	1	-1E+10	1	-1E+10	1
4901784	144	C	06/14/2019	10:46	-132.398	42.830	0	1285.00	0	2.8310	0	36.2930	8	28.943	0	1270.900	0	18.5	4	5.8	4	-1E+10	1	-1E+10	1	-1E+10	1	-1E+10	1	-1E+10	1	-1E+10	1
4901784	144	C	06/14/2019	10:46	-132.398	42.830	0	1290.10	0	2.8220	0	36.2940	8	28.944	0	1275.928	0	18.7	4	5.8	4	-1E+10	1	-1E+10	1	-1E+10	1	-1E+10	1	-1E+10	1	-1E+10	1
4901784	144	C	06/14/2019	10:46	-132.398	42.830	0	1295.20	0	2.8130	0	36.2960	8	28.947	0	1280.957	0	18.9	4	5.9	4	-1E+10	1	-1E+10	1	-1E+10	1	-1E+10	1	-1E+10	1	-1E+10	1
4901784	144	C	06/14/2019	10:46	-132.398	42.830	0	1300.40	0	2.8020	0	36.2990	8	28.950	0	1286.084	0	19.1	4	6.0	4	-1E+10	1	-1E+10	1	-1E+10	1	-1E+10	1	-1E+10	1	-1E+10	1
4901784	144	C	06/14/2019	10:46	-132.398	42.830	0	1305.50	0	2.7960	0	36.3000	8	28.952	0	1291.112	0	19.4	4	6.0	4	-1E+10	1	-1E+10	1	-1E+10	1	-1E+10	1	-1E+10	1	-1E+10	1
4901784	144	C	06/14/2019	10:46	-132.398	42.830	0	1310.70	0	2.7880	0	36.3020	8	28.954	0	1296.239	0	19.5	4	6.1	4	-1E+10	1	-1E+10	1	-1E+10	1	-1E+10	1	-1E+10	1	-1E+10	1
4901784	144	C	06/14/2019	10:46	-132.398	42.830	0	1315.00	0	2.7840	0	36.3020	8	28.954	0	1300.478	0	19.7	4	6.1	4	-1E+10	1	-1E+10	1	-1E+10	1	-1E+10	1	-1E+10	1	-1E+10	1
4901784	144	C	06/14/2019	10:46	-132.398	42.830	0	1319.40	0	2.7740	0	36.3040	8	28.957	0	1304.816	0	19.9	4	6.2	4	-1E+10	1	-1E+10	1	-1E+10	1	-1E+10	1	-1E+10	1	-1E+10	1
4901784	144	C	06/14/2019	10:46	-132.398	42.830	0	1324.90	0	2.7650	0	36.3060	8	28.959	0	1310.238	0	20.1	4	6.3	4	-1E+10	1	-1E+10	1	-1E+10	1	-1E+10	1	-1E+10	1	-1E+10	1
4901784	144	C	06/14/2019	10:46	-132.398	42.830	0	1329.80	0	2.7580	0	36.3080	8	28.962	0	1315.068	0	20.2	4	6.3	4	-1E+10	1	-1E+10	1	-1E+10	1	-1E+10	1	-1E+10	1	-1E+10	1
4901784	144	C	06/14/2019	10:46	-132.398	42.830	0	1335.10	0	2.7550	0	36.3090	8	28.963	0	1320.293	0	20.4	4	6.3	4	-1E+10	1	-1E+10	1	-1E+10	1	-1E+10	1	-1E+10	1	-1E+10	1
4901784	144	C	06/14/2019	10:46	-132.398	42.830	0	1340.60	0	2.7530	0	36.3090	8	28.963	0	1325.715	0	20.5	4	6.4	4	-1E+10	1	-1E+10	1	-1E+10	1	-1E+10	1	-1E+10	1	-1E+10	1
4901784	144	C	06/14/2019	10:46	-132.398	42.830	0	1345.70	0	2.7420	0	36.3110	8	28.966	0	1330.742	0	20.7	4	6.4	4	-1E+10	1	-1E+10	1	-1E+10	1	-1E+10	1	-1E+10	1	-1E+10	1
4901784	144	C	06/14/2019	10:46	-132.398	42.830	0	1350.80	0	2.7340	0	36.3130	8	28.968	0	1335.769	0	21.0	4	6.5	4	-1E+10	1	-1E+10	1	-1E+10	1	-1E+10	1	-1E+10	1	-1E+10	1
4901784	144	C	06/14/2019	10:46	-132.398	42.830	0	1355.00	0	2.7270	0	36.3140	8	28.970	0	1339.909	0	21.2	4	6.6	4	-1E+10	1	-1E+10	1	-1E+10	1	-1E+10	1	-1E+10	1	-1E+10	1
4901784	144	C	06/14/2019	10:46	-132.398	42.830	0	1359.30	0	2.7190	0	36.3160	8	28.972	0	1344.148	0	21.4	4	6.7	4	-1E+10	1	-1E+10	1	-1E+10	1	-1E+10	1	-1E+10	1	-1E+10	1
4901784	144	C	06/14/2019	10:46	-132.398	42.830	0	1364.40	0	2.7080	0	36.3180	8	28.975	0	1349.175	0	21.7	4	6.7	4	-1E+10	1	-1E+10	1	-1E+10	1	-1E+10	1	-1E+10	1	-1E+10	1
4901784	144	C	06/14/2019	10:46	-132.398	42.830	0	1369.50	0	2.7010	0	36.3190	8	28.976	0	1354.201	0	22.0	4	6.8	4	-1E+10	1	-1E+10	1	-1E+10	1	-1E+10	1	-1E+10	1	-1E+10	1
4901784	144	C	06/14/2019	10:46	-132.398	42.830	0	1374.80	0	2.6870	0	36.3220	8	28.980	0	1359.425	0	22.4	4	7.0	4	-1E+10	1	-1E+10	1	-1E+10	1	-1E+10	1	-1E+10	1	-1E+10	1
4901784	144	C	06/14/2019	10:46	-132.398	42.830	0	1380.10	0	2.6780	0	36.3230	8	28.981	0	1364.648	0	22.7	4	7.0	4	-1E+10	1	-1E+10	1	-1E+10	1	-1E+10	1	-1E+10	1	-1E+10	1
4901784	144	C	06/14/2019	10:46	-132.398	42.830	0	1385.50	0	2.6670	0	36.3250	8	28.984	0	1369.971	0	23.0	4	7.2	4	-1E+10	1	-1E+10	1	-1E+10	1	-1E+10	1	-1E+10	1	-1E+10	1
4901784	144	C	06/14/2019	10:46	-132.398	42.830	0	1389.90	0	2.6530	0	36.3280	8	28.988	0	1374.307	0	23.3	4	7.2	4	-1E+10	1	-1E+10	1	-1E+10	1	-1E+10	1	-1E+10	1	-1E+10	1
4901784	144	C	06/14/2019	10:46	-132.398	42.830	0	1394.50	0	2.6490	0	36.3290	8	28.989	0	1378.840	0	23.5	4	7.3	4	-1E+10	1	-1E+10	1	-1E+10	1	-1E+10	1	-1E+10	1	-1E+10	1
4901784	144	C	06/14/2019	10:46	-132.398	42.830	0	1399.90	0	2.6440	0	36.3300	8	28.990	0	1384.162	0	23.7	4	7.4	4	-1E+10	1	-1E+10	1	-1E+10	1	-1E+10	1	-1E+10	1	-1E+10	1
4901784	144	C	06/14/2019	10:46	-132.398	42.830	0	1405.40	0	2.6360	0	36.3310	8	28.992	0	1389.582	0	24.0	4	7.5	4	-1E+10	1	-1E+10	1	-1E+10	1	-1E+10	1	-1E+10	1	-1E+10	1
4901784	144	C	06/14/2019	10:46	-132.398	42.830	0	1409.90	0	2.6240	0	36.3340	8	28.995	0	1394.016	0	24.4	4	7.6	4	-1E+10	1	-1E+10	1	-1E+10	1	-1E+10	1	-1E+10	1	-1E+10	1
4901784	144	C	06/14/2019	10:46	-132.398	42.830	0	1414.60	0	2.6140	0	36.3350	8	28.997	0	1398.648	0	24.6	4	7.6	4	-1E+10	1	-1E+10	1	-1E+10	1	-1E+10	1	-1E+10	1	-1E+10	1
4901784	144	C	06/14/2019	10:46	-132.398	42.830	0	1420.20	0	2.6060	0	36.3370	8	28.999	0	1404.166	0	24.8	4	7.7	4	-1E+10	1	-1E+10	1	-1E+10	1	-1E+10	1	-1E+10	1	-1E+10	1
4901784	144	C	06/14/2019	10:46	-132.398	42.830	0	1425.00	0	2.6000	0	36.3380	8	29.001	0	1408.896	0	25.0	4	7.7	4	-1E+10	1	-1E+10	1	-1E+10	1	-1E+10	1	-1E+10	1	-1E+10	1
4901784	144	C	06/14/2019	10:46	-132.398	42.830	0	1429.70	0	2.5970	0	36.3390	8	29.002	0	1413.527	0	25.1	4	7.8	4	-1E+10	1	-1E+10	1	-1E+10	1	-1E+10	1	-1E+10	1	-1E+10	1
4901784	144	C	06/14/2019	10:46	-132.398	42.830	0	1435.40	0	2.5910	0	36.3400	8	29.003	0	1419.144	0	25.3	4	7.9	4	-1E+10	1	-1E+10	1	-1E+10	1	-1E+10	1	-1E+10	1	-1E+10	1
4901784	144	C	06/14/2019	10:46	-132.398	42.830	0	1440.20	0	2.5810	0	36.3420	8	29.006	0	1423.873	0	25.6	4	7.9	4	-1E+10	1	-1E+10	1	-1E+10	1	-1E+10	1	-1E+10	1	-1E+10	1
4901784	144	C	06/14/2019	10:46	-132.398	42.830	0	1445.10	0	2.5750	0	36.3430	8	29.007	0	1428.701	0	25.8	4	8.0	4	-1E+10	1	-1E+10	1	-1E+10	1	-1E+10	1	-1E+10	1	-1E+10	1
4901784	144	C	06/14/2019	10:46	-132.398	42.830	0	1449.90	0	2.5650	0	36.3450	8	29.010	0	1433.430	0	26.1	4	8.1	4	-1E+10	1	-1E+10	1	-1E+10	1	-1E+10	1	-1E+10	1	-1E+10	1
4901784	144	C	06/14/2019	10:46	-132.398	42.830	0	1454.90	0	2.5560	0	36.3460	8	29.011	0	1438.356	0	26.3	4	8.2	4	-1E+10	1	-1E+10	1	-1E+10	1	-1E+10	1	-1E+10	1	-1E+10	1
4901784	144	C	06/14/2019	10:46	-132.398	42.830	0	1459.80	0	2.5510	0	36.3470	8	29.013	0	1443.184	0	26.5	4	8.2	4	-1E+10	1	-1E+10	1	-1E+10	1	-1E+10	1	-1E+10	1	-1E+10	1
4901784	144	C	06/14/2019	10:46	-132.398	42.830	0	1464.80	0	2.5420	0	36.3490	8	29.015	0	1448.110	0	26.8	4	8.3	4	-1E+10	1	-1E+10	1	-1E+10	1	-1E+10	1	-1E+10	1	-1E+10	1
4901784	144	C	06/14/2019	10:46	-132.398	42.830	0	1470.40	0	2.5330	0	36.3510	8	29.017	0	1453.627	0	27.0	4	8.4	4	-1E+10	1	-1E+10	1	-1E+10	1	-1E+10	1	-1E+10	1	-1E+10	1
4901784	144	C	06/14/2019	10:46	-132.398	42.830	0	1474.90	0	2.5290	0	36.3520	8	29.019	0	1458.060	0	27.2	4	8.4	4	-1E+10	1	-1E+10	1	-1E+10	1	-1E+10	1	-1E+10	1	-1E+10	1
4901784	144	C	06/14/2019	10:46	-132.398	42.830	0	1479.40	0	2.5220	0	36.3520	8	29.019	0	1462.493	0	27.5	4	8.5	4	-1E+10	1	-1E+10	1	-1E+10	1	-1E+10	1	-1E+10	1	-1E+10	1
4901784	144	C	06/14/2019	10:46	-132.398	42.830	0	1484.80	0	2.5110	0	36.3550	8	29.023	0	1467.813	0	27.7	4	8.6	4	-1E+10	1	-1E+10	1	-1E+10	1	-1E+10	1	-1E+10	1	-1E+10	1
4901784	144	C	06/14/2019	10:46	-132.398	42.830	0	1490.30	0	2.5070	0	36.3550	8	29.023	0	1473.230	0	27.9	4	8.6	4	-1E+10	1	-1E+10	1	-1E+10	1	-1E+10	1	-1E+10	1	-1E+10	1
4901784	144	C	06/14/2019	10:46	-132.398	42.830	0	1494.90	0	2.5030	0	36.3570	8	29.025	0	1477.762	0	28.1	4	8.7	4	-1E+10	1	-1E+10	1	-1E+10	1	-1E+10	1	-1E+10	1	-1E+10	1
4901784	144	C	06/14/2019	10:46	-132.398	42.830	0	1499.50	0	2.5000	0	36.3570	8	29.025	0	1482.293	0	28.2	4	8.7	4	-1E+10	1	-1E+10	1	-1E+10	1	-1E+10	1	-1E+10	1	-1E+10	1
4901784	144	C	06/14/2019	10:46	-132.398	42.830	0	1505.00	0	2.4930	0	36.3580	8	29.027	0	1487.710	0	28.4	4	8.8	4	-1E+10	1	-1E+10	1	-1E+10	1	-1E+10	1	-1E+10	1	-1E+10	1
4901784	144	C	06/14/2019	10:46	-132.398	42.830	0	1510.60	0	2.4890	0	36.3590	8	29.028	0	1493.226	0	28.7	4	8.9	4	-1E+10	1	-1E+10	1	-1E+10	1	-1E+10	1	-1E+10	1	-1E+10	1
4901784	144	C	06/14/2019	10:46	-132.398	42.830	0	1515.30	0	2.4840	0	36.3600	8	29.029	0	1497.856	0	28.9	4	9.0	4	-1E+10	1	-1E+10	1	-1E+10	1	-1E+10	1	-1E+10	1	-1E+10	1
4901784	144	C	06/14/2019	10:46	-132.398	42.830	0	1520.00	0	2.4720	0	36.3620	8	29.032	0	1502.485	0	29.2	4	9.0	4	-1E+10	1	-1E+10	1	-1E+10	1	-1E+10	1	-1E+10	1	-1E+10	1
4901784	144	C	06/14/2019	10:46	-132.398	42.830	0	1525.60	0	2.4660	0	36.3630	8	29.033	0	1508.000	0	29.5	4	9.1	4	-1E+10	1	-1E+10	1	-1E+10	1	-1E+10	1	-1E+10	1	-1E+10	1
4901784	144	C	06/14/2019	10:46	-132.398	42.830	0	1530.90	0	2.4590	0	36.3650	8	29.036	0	1513.220	0	29.7	4	9.2	4	-1E+10	1	-1E+10	1	-1E+10	1	-1E+10	1	-1E+10	1	-1E+10	1
4901784	144	C	06/14/2019	10:46	-132.398	42.830	0	1535.30	0	2.4540	0	36.3660	8	29.037	0	1517.554	0	29.9	4	9.2	4	-1E+10	1	-1E+10	1	-1E+10	1	-1E+10	1	-1E+10	1	-1E+10	1
4901784	144	C	06/14/2019	10:46	-132.398	42.830	0	1540.20	0	2.4490	0	36.3670	8	29.038	0	1522.379	0	30.0	4	9.3	4	-1E+10	1	-1E+10	1	-1E+10	1	-1E+10	1	-1E+10	1	-1E+10	1
4901784	144	C	06/14/2019	10:46	-132.398	42.830	0	1545.20	0	2.4490	0	36.3670	8	29.038	0	1527.303	0	30.1	4	9.3	4	-1E+10	1	-1E+10	1	-1E+10	1	-1E+10	1	-1E+10	1	-1E+10	1
4901784	144	C	06/14/2019	10:46	-132.398	42.830	0	1550.20	0	2.4420	0	36.3690	8	29.040	0	1532.227	0	30.4	4	9.4	4	-1E+10	1	-1E+10	1	-1E+10	1	-1E+10	1	-1E+10	1	-1E+10	1
4901784	144	C	06/14/2019	10:46	-132.398	42.830	0	1555.20	0	2.4360	0	36.3700	8	29.042	0	1537.151	0	30.6	4	9.4	4	-1E+10	1	-1E+10	1	-1E+10	1	-1E+10	1	-1E+10	1	-1E+10	1
4901784	144	C	06/14/2019	10:46	-132.398	42.830	0	1560.20	0	2.4310	0	36.3710	8	29.043	0	1542.075	0	30.8	4	9.5	4	-1E+10	1	-1E+10	1	-1E+10	1	-1E+10	1	-1E+10	1	-1E+10	1
4901784	144	C	06/14/2019	10:46	-132.398	42.830	0	1565.20	0	2.4260	0	36.3720	8	29.044	0	1546.999	0	31.1	4	9.6	4	-1E+10	1	-1E+10	1	-1E+10	1	-1E+10	1	-1E+10	1	-1E+10	1
4901784	144	C	06/14/2019	10:46	-132.398	42.830	0	1570.40	0	2.4180	0	36.3740	8	29.047	0	1552.119	0	31.4	4	9.7	4	-1E+10	1	-1E+10	1	-1E+10	1	-1E+10	1	-1E+10	1	-1E+10	1
4901784	144	C	06/14/2019	10:46	-132.398	42.830	0	1575.50	0	2.4100	0	36.3750	8	29.048	0	1557.141	0	31.7	4	9.8	4	-1E+10	1	-1E+10	1	-1E+10	1	-1E+10	1	-1E+10	1	-1E+10	1
4901784	144	C	06/14/2019	10:46	-132.398	42.830	0	1580.60	0	2.4030	0	36.3760	8	29.050	0	1562.163	0	32.0	4	9.9	4	-1E+10	1	-1E+10	1	-1E+10	1	-1E+10	1	-1E+10	1	-1E+10	1
4901784	144	C	06/14/2019	10:46	-132.398	42.830	0	1585.80	0	2.3930	0	36.3780	8	29.052	0	1567.283	0	32.4	4	10.0	4	-1E+10	1	-1E+10	1	-1E+10	1	-1E+10	1	-1E+10	1	-1E+10	1
4901784	144	C	06/14/2019	10:46	-132.398	42.830	0	1590.10	0	2.3890	0	36.3790	8	29.053	0	1571.517	0	32.6	4	10.1	4	-1E+10	1	-1E+10	1	-1E+10	1	-1E+10	1	-1E+10	1	-1E+10	1
4901784	144	C	06/14/2019	10:46	-132.398	42.830	0	1594.40	0	2.3820	0	36.3800	8	29.055	0	1575.750	0	32.8	4	10.1	4	-1E+10	1	-1E+10	1	-1E+10	1	-1E+10	1	-1E+10	1	-1E+10	1
4901784	144	C	06/14/2019	10:46	-132.398	42.830	0	1599.60	0	2.3760	0	36.3810	8	29.056	0	1580.870	0	33.0	4	10.2	4	-1E+10	1	-1E+10	1	-1E+10	1	-1E+10	1	-1E+10	1	-1E+10	1
4901784	144	C	06/14/2019	10:46	-132.398	42.830	0	1604.90	0	2.3730	0	36.3820	8	29.057	0	1586.088	0	33.2	4	10.2	4	-1E+10	1	-1E+10	1	-1E+10	1	-1E+10	1	-1E+10	1	-1E+10	1
4901784	144	C	06/14/2019	10:46	-132.398	42.830	0	1610.20	0	2.3690	0	36.3830	8	29.058	0	1591.306	0	33.3	4	10.3	4	-1E+10	1	-1E+10	1	-1E+10	1	-1E+10	1	-1E+10	1	-1E+10	1
4901784	144	C	06/14/2019	10:46	-132.398	42.830	0	1615.50	0	2.3650	0	36.3840	8	29.060	0	1596.524	0	33.5	4	10.3	4	-1E+10	1	-1E+10	1	-1E+10	1	-1E+10	1	-1E+10	1	-1E+10	1
4901784	144	C	06/14/2019	10:46	-132.398	42.830	0	1619.90	0	2.3630	0	36.3850	8	29.061	0	1600.856	0	33.6	4	10.4	4	-1E+10	1	-1E+10	1	-1E+10	1	-1E+10	1	-1E+10	1	-1E+10	1
4901784	144	C	06/14/2019	10:46	-132.398	42.830	0	1624.40	0	2.3610	0	36.3860	8	29.062	0	1605.286	0	33.8	4	10.4	4	-1E+10	1	-1E+10	1	-1E+10	1	-1E+10	1	-1E+10	1	-1E+10	1
4901784	144	C	06/14/2019	10:46	-132.398	42.830	0	1629.70	0	2.3560	0	36.3860	8	29.062	0	1610.503	0	34.3	4	10.6	4	-1E+10	1	-1E+10	1	-1E+10	1	-1E+10	1	-1E+10	1	-1E+10	1
4901784	144	C	06/14/2019	10:46	-132.398	42.830	0	1635.00	0	2.3440	0	36.3880	8	29.065	0	1615.721	0	34.8	4	10.7	4	-1E+10	1	-1E+10	1	-1E+10	1	-1E+10	1	-1E+10	1	-1E+10	1
4901784	144	C	06/14/2019	10:46	-132.398	42.830	0	1640.40	0	2.3290	0	36.3910	8	29.069	0	1621.036	0	35.3	4	10.9	4	-1E+10	1	-1E+10	1	-1E+10	1	-1E+10	1	-1E+10	1	-1E+10	1
4901784	144	C	06/14/2019	10:46	-132.398	42.830	0	1645.00	0	2.3250	0	36.3920	8	29.070	0	1625.564	0	35.5	4	10.9	4	-1E+10	1	-1E+10	1	-1E+10	1	-1E+10	1	-1E+10	1	-1E+10	1
4901784	144	C	06/14/2019	10:46	-132.398	42.830	0	1649.60	0	2.3200	0	36.3930	8	29.071	0	1630.092	0	35.8	4	11.0	4	-1E+10	1	-1E+10	1	-1E+10	1	-1E+10	1	-1E+10	1	-1E+10	1
4901784	144	C	06/14/2019	10:46	-132.398	42.830	0	1655.10	0	2.3090	0	36.3950	8	29.074	0	1635.506	0	36.2	4	11.1	4	-1E+10	1	-1E+10	1	-1E+10	1	-1E+10	1	-1E+10	1	-1E+10	1
4901784	144	C	06/14/2019	10:46	-132.398	42.830	0	1660.60	0	2.3020	0	36.3960	8	29.075	0	1640.920	0	36.5	4	11.3	4	-1E+10	1	-1E+10	1	-1E+10	1	-1E+10	1	-1E+10	1	-1E+10	1
4901784	144	C	06/14/2019	10:46	-132.398	42.830	0	1665.30	0	2.2940	0	36.3980	8	29.077	0	1645.546	0	36.9	4	11.4	4	-1E+10	1	-1E+10	1	-1E+10	1	-1E+10	1	-1E+10	1	-1E+10	1
4901784	144	C	06/14/2019	10:46	-132.398	42.830	0	1669.90	0	2.2890	0	36.3990	8	29.079	0	1650.073	0	37.3	4	11.5	4	-1E+10	1	-1E+10	1	-1E+10	1	-1E+10	1	-1E+10	1	-1E+10	1
4901784	144	C	06/14/2019	10:46	-132.398	42.830	0	1675.40	0	2.2790	0	36.4000	8	29.080	0	1655.487	0	37.7	4	11.6	4	-1E+10	1	-1E+10	1	-1E+10	1	-1E+10	1	-1E+10	1	-1E+10	1
4901784	144	C	06/14/2019	10:46	-132.398	42.830	0	1680.00	0	2.2740	0	36.4010	8	29.082	0	1660.014	0	38.0	4	11.7	4	-1E+10	1	-1E+10	1	-1E+10	1	-1E+10	1	-1E+10	1	-1E+10	1
4901784	144	C	06/14/2019	10:46	-132.398	42.830	0	1684.60	0	2.2650	0	36.4030	8	29.084	0	1664.541	0	38.2	4	11.8	4	-1E+10	1	-1E+10	1	-1E+10	1	-1E+10	1	-1E+10	1	-1E+10	1
4901784	144	C	06/14/2019	10:46	-132.398	42.830	0	1690.20	0	2.2610	0	36.4040	8	29.085	0	1670.052	0	38.4	4	11.8	4	-1E+10	1	-1E+10	1	-1E+10	1	-1E+10	1	-1E+10	1	-1E+10	1
4901784	144	C	06/14/2019	10:46	-132.398	42.830	0	1694.80	0	2.2560	0	36.4060	8	29.087	0	1674.579	0	38.6	4	11.9	4	-1E+10	1	-1E+10	1	-1E+10	1	-1E+10	1	-1E+10	1	-1E+10	1
4901784	144	C	06/14/2019	10:46	-132.398	42.830	0	1699.40	0	2.2510	0	36.4070	8	29.088	0	1679.106	0	38.9	4	12.0	4	-1E+10	1	-1E+10	1	-1E+10	1	-1E+10	1	-1E+10	1	-1E+10	1
4901784	144	C	06/14/2019	10:46	-132.398	42.830	0	1705.00	0	2.2450	0	36.4080	8	29.090	0	1684.617	0	39.3	4	12.1	4	-1E+10	1	-1E+10	1	-1E+10	1	-1E+10	1	-1E+10	1	-1E+10	1
4901784	144	C	06/14/2019	10:46	-132.398	42.830	0	1709.60	0	2.2390	0	36.4090	8	29.091	0	1689.144	0	39.6	4	12.2	4	-1E+10	1	-1E+10	1	-1E+10	1	-1E+10	1	-1E+10	1	-1E+10	1
4901784	144	C	06/14/2019	10:46	-132.398	42.830	0	1714.10	0	2.2320	0	36.4100	8	29.093	0	1693.572	0	40.0	4	12.3	4	-1E+10	1	-1E+10	1	-1E+10	1	-1E+10	1	-1E+10	1	-1E+10	1
4901784	144	C	06/14/2019	10:46	-132.398	42.830	0	1719.50	0	2.2210	0	36.4110	8	29.094	0	1698.886	0	40.4	4	12.4	4	-1E+10	1	-1E+10	1	-1E+10	1	-1E+10	1	-1E+10	1	-1E+10	1
4901784	144	C	06/14/2019	10:46	-132.398	42.830	0	1724.40	0	2.2120	0	36.4130	8	29.097	0	1703.707	0	40.8	4	12.5	4	-1E+10	1	-1E+10	1	-1E+10	1	-1E+10	1	-1E+10	1	-1E+10	1
4901784	144	C	06/14/2019	10:46	-132.398	42.830	0	1730.00	0	2.2060	0	36.4140	8	29.098	0	1709.218	0	41.1	4	12.6	4	-1E+10	1	-1E+10	1	-1E+10	1	-1E+10	1	-1E+10	1	-1E+10	1
4901784	144	C	06/14/2019	10:46	-132.398	42.830	0	1735.70	0	2.1980	0	36.4150	8	29.100	0	1714.826	0	41.5	4	12.7	4	-1E+10	1	-1E+10	1	-1E+10	1	-1E+10	1	-1E+10	1	-1E+10	1
4901784	144	C	06/14/2019	10:46	-132.398	42.830	0	1740.70	0	2.1930	0	36.4160	8	29.101	0	1719.746	0	41.8	4	12.8	4	-1E+10	1	-1E+10	1	-1E+10	1	-1E+10	1	-1E+10	1	-1E+10	1
4901784	144	C	06/14/2019	10:46	-132.398	42.830	0	1745.70	0	2.1870	0	36.4180	8	29.103	0	1724.665	0	42.0	4	12.9	4	-1E+10	1	-1E+10	1	-1E+10	1	-1E+10	1	-1E+10	1	-1E+10	1
4901784	144	C	06/14/2019	10:46	-132.398	42.830	0	1750.60	0	2.1820	0	36.4180	8	29.103	0	1729.486	0	42.2	4	13.0	4	-1E+10	1	-1E+10	1	-1E+10	1	-1E+10	1	-1E+10	1	-1E+10	1
4901784	144	C	06/14/2019	10:46	-132.398	42.830	0	1755.60	0	2.1800	0	36.4190	8	29.104	0	1734.406	0	42.3	4	13.0	4	-1E+10	1	-1E+10	1	-1E+10	1	-1E+10	1	-1E+10	1	-1E+10	1
4901784	144	C	06/14/2019	10:46	-132.398	42.830	0	1760.50	0	2.1780	0	36.4200	8	29.105	0	1739.226	0	42.7	4	13.1	4	-1E+10	1	-1E+10	1	-1E+10	1	-1E+10	1	-1E+10	1	-1E+10	1
4901784	144	C	06/14/2019	10:46	-132.398	42.830	0	1765.50	0	2.1720	0	36.4230	8	29.108	0	1744.145	0	43.0	4	13.2	4	-1E+10	1	-1E+10	1	-1E+10	1	-1E+10	1	-1E+10	1	-1E+10	1
4901784	144	C	06/14/2019	10:46	-132.398	42.830	0	1770.50	0	2.1650	0	36.4240	8	29.110	0	1749.064	0	43.4	4	13.3	4	-1E+10	1	-1E+10	1	-1E+10	1	-1E+10	1	-1E+10	1	-1E+10	1
4901784	144	C	06/14/2019	10:46	-132.398	42.830	0	1775.60	0	2.1590	0	36.4260	8	29.112	0	1754.082	0	43.7	4	13.4	4	-1E+10	1	-1E+10	1	-1E+10	1	-1E+10	1	-1E+10	1	-1E+10	1
4901784	144	C	06/14/2019	10:46	-132.398	42.830	0	1780.60	0	2.1540	0	36.4260	8	29.112	0	1759.000	0	44.2	4	13.6	4	-1E+10	1	-1E+10	1	-1E+10	1	-1E+10	1	-1E+10	1	-1E+10	1
4901784	144	C	06/14/2019	10:46	-132.398	42.830	0	1785.70	0	2.1430	0	36.4280	8	29.115	0	1764.017	0	44.7	4	13.7	4	-1E+10	1	-1E+10	1	-1E+10	1	-1E+10	1	-1E+10	1	-1E+10	1
4901784	144	C	06/14/2019	10:46	-132.398	42.830	0	1790.80	0	2.1300	0	36.4290	8	29.117	0	1769.034	0	45.2	4	13.9	4	-1E+10	1	-1E+10	1	-1E+10	1	-1E+10	1	-1E+10	1	-1E+10	1
4901784	144	C	06/14/2019	10:46	-132.398	42.830	0	1795.00	0	2.1250	0	36.4300	8	29.118	0	1773.166	0	45.6	4	14.0	4	-1E+10	1	-1E+10	1	-1E+10	1	-1E+10	1	-1E+10	1	-1E+10	1
4901784	144	C	06/14/2019	10:46	-132.398	42.830	0	1799.20	0	2.1190	0	36.4310	8	29.120	0	1777.297	0	46.0	4	14.1	4	-1E+10	1	-1E+10	1	-1E+10	1	-1E+10	1	-1E+10	1	-1E+10	1
4901784	144	C	06/14/2019	10:46	-132.398	42.830	0	1804.30	0	2.1110	0	36.4320	8	29.121	0	1782.313	0	46.5	4	14.3	4	-1E+10	1	-1E+10	1	-1E+10	1	-1E+10	1	-1E+10	1	-1E+10	1
4901784	144	C	06/14/2019	10:46	-132.398	42.830	0	1809.40	0	2.1030	0	36.4340	8	29.123	0	1787.330	0	47.0	4	14.4	4	-1E+10	1	-1E+10	1	-1E+10	1	-1E+10	1	-1E+10	1	-1E+10	1
4901784	144	C	06/14/2019	10:46	-132.398	42.830	0	1814.60	0	2.0940	0	36.4360	8	29.126	0	1792.444	0	47.7	4	14.6	4	-1E+10	1	-1E+10	1	-1E+10	1	-1E+10	1	-1E+10	1	-1E+10	1
4901784	144	C	06/14/2019	10:46	-132.398	42.830	0	1819.70	0	2.0830	0	36.4380	8	29.128	0	1797.461	0	48.3	4	14.8	4	-1E+10	1	-1E+10	1	-1E+10	1	-1E+10	1	-1E+10	1	-1E+10	1
4901784	144	C	06/14/2019	10:46	-132.398	42.830	0	1825.00	0	2.0750	0	36.4400	8	29.131	0	1802.673	0	48.8	4	14.9	4	-1E+10	1	-1E+10	1	-1E+10	1	-1E+10	1	-1E+10	1	-1E+10	1
4901784	144	C	06/14/2019	10:46	-132.398	42.830	0	1830.20	0	2.0670	0	36.4410	8	29.132	0	1807.788	0	49.1	4	15.1	4	-1E+10	1	-1E+10	1	-1E+10	1	-1E+10	1	-1E+10	1	-1E+10	1
4901784	144	C	06/14/2019	10:46	-132.398	42.830	0	1835.50	0	2.0610	0	36.4430	8	29.134	0	1813.000	0	49.5	4	15.2	4	-1E+10	1	-1E+10	1	-1E+10	1	-1E+10	1	-1E+10	1	-1E+10	1
4901784	144	C	06/14/2019	10:46	-132.398	42.830	0	1840.00	0	2.0580	0	36.4440	8	29.135	0	1817.426	0	49.8	4	15.3	4	-1E+10	1	-1E+10	1	-1E+10	1	-1E+10	1	-1E+10	1	-1E+10	1
4901784	144	C	06/14/2019	10:46	-132.398	42.830	0	1844.40	0	2.0520	0	36.4450	8	29.137	0	1821.753	0	50.2	4	15.4	4	-1E+10	1	-1E+10	1	-1E+10	1	-1E+10	1	-1E+10	1	-1E+10	1
4901784	144	C	06/14/2019	10:46	-132.398	42.830	0	1849.70	0	2.0450	0	36.4470	8	29.139	0	1826.965	0	50.7	4	15.5	4	-1E+10	1	-1E+10	1	-1E+10	1	-1E+10	1	-1E+10	1	-1E+10	1
4901784	144	C	06/14/2019	10:46	-132.398	42.830	0	1855.10	0	2.0390	0	36.4480	8	29.140	0	1832.275	0	51.0	4	15.6	4	-1E+10	1	-1E+10	1	-1E+10	1	-1E+10	1	-1E+10	1	-1E+10	1
4901784	144	C	06/14/2019	10:46	-132.398	42.830	0	1860.40	0	2.0350	0	36.4500	8	29.142	0	1837.487	0	51.3	4	15.7	4	-1E+10	1	-1E+10	1	-1E+10	1	-1E+10	1	-1E+10	1	-1E+10	1
4901784	144	C	06/14/2019	10:46	-132.398	42.830	0	1864.90	0	2.0350	0	36.4500	8	29.142	0	1841.913	0	51.4	4	15.7	4	-1E+10	1	-1E+10	1	-1E+10	1	-1E+10	1	-1E+10	1	-1E+10	1
4901784	144	C	06/14/2019	10:46	-132.398	42.830	0	1869.30	0	2.0350	0	36.4510	8	29.143	0	1846.239	0	51.6	4	15.8	4	-1E+10	1	-1E+10	1	-1E+10	1	-1E+10	1	-1E+10	1	-1E+10	1
4901784	144	C	06/14/2019	10:46	-132.398	42.830	0	1874.70	0	2.0320	0	36.4520	8	29.144	0	1851.549	0	51.9	4	15.9	4	-1E+10	1	-1E+10	1	-1E+10	1	-1E+10	1	-1E+10	1	-1E+10	1
4901784	144	C	06/14/2019	10:46	-132.398	42.830	0	1880.00	0	2.0270	0	36.4530	8	29.145	0	1856.760	0	52.3	4	16.0	4	-1E+10	1	-1E+10	1	-1E+10	1	-1E+10	1	-1E+10	1	-1E+10	1
4901784	144	C	06/14/2019	10:46	-132.398	42.830	0	1885.50	0	2.0210	0	36.4540	8	29.147	0	1862.168	0	52.7	4	16.1	4	-1E+10	1	-1E+10	1	-1E+10	1	-1E+10	1	-1E+10	1	-1E+10	1
4901784	144	C	06/14/2019	10:46	-132.398	42.830	0	1890.00	0	2.0140	0	36.4560	8	29.149	0	1866.593	0	53.1	4	16.2	4	-1E+10	1	-1E+10	1	-1E+10	1	-1E+10	1	-1E+10	1	-1E+10	1
4901784	144	C	06/14/2019	10:46	-132.398	42.830	0	1894.50	0	2.0110	0	36.4570	8	29.150	0	1871.018	0	53.4	4	16.3	4	-1E+10	1	-1E+10	1	-1E+10	1	-1E+10	1	-1E+10	1	-1E+10	1
4901784	144	C	06/14/2019	10:46	-132.398	42.830	0	1900.00	0	2.0050	0	36.4580	8	29.151	0	1876.425	0	53.8	4	16.5	4	-1E+10	1	-1E+10	1	-1E+10	1	-1E+10	1	-1E+10	1	-1E+10	1
4901784	144	C	06/14/2019	10:46	-132.398	42.830	0	1905.40	0	2.0020	0	36.4590	8	29.152	0	1881.734	0	54.1	4	16.5	4	-1E+10	1	-1E+10	1	-1E+10	1	-1E+10	1	-1E+10	1	-1E+10	1
4901784	144	C	06/14/2019	10:46	-132.398	42.830	0	1910.00	0	1.9990	0	36.4600	8	29.153	0	1886.257	0	54.3	4	16.6	4	-1E+10	1	-1E+10	1	-1E+10	1	-1E+10	1	-1E+10	1	-1E+10	1
4901784	144	C	06/14/2019	10:46	-132.398	42.830	0	1914.60	0	1.9950	0	36.4610	8	29.155	0	1890.779	0	54.6	4	16.7	4	-1E+10	1	-1E+10	1	-1E+10	1	-1E+10	1	-1E+10	1	-1E+10	1
4901784	144	C	06/14/2019	10:46	-132.398	42.830	0	1920.10	0	1.9910	0	36.4620	8	29.156	0	1896.186	0	54.8	4	16.8	4	-1E+10	1	-1E+10	1	-1E+10	1	-1E+10	1	-1E+10	1	-1E+10	1
4901784	144	C	06/14/2019	10:46	-132.398	42.830	0	1925.60	0	1.9840	0	36.4630	8	29.157	0	1901.593	0	55.1	4	16.9	4	-1E+10	1	-1E+10	1	-1E+10	1	-1E+10	1	-1E+10	1	-1E+10	1
4901784	144	C	06/14/2019	10:46	-132.398	42.830	0	1930.20	0	1.9820	0	36.4640	8	29.158	0	1906.115	0	55.3	4	16.9	4	-1E+10	1	-1E+10	1	-1E+10	1	-1E+10	1	-1E+10	1	-1E+10	1
4901784	144	C	06/14/2019	10:46	-132.398	42.830	0	1934.80	0	1.9790	0	36.4640	8	29.158	0	1910.637	0	55.6	4	17.0	4	-1E+10	1	-1E+10	1	-1E+10	1	-1E+10	1	-1E+10	1	-1E+10	1
4901784	144	C	06/14/2019	10:46	-132.398	42.830	0	1940.30	0	1.9740	0	36.4650	8	29.160	0	1916.044	0	55.9	4	17.1	4	-1E+10	1	-1E+10	1	-1E+10	1	-1E+10	1	-1E+10	1	-1E+10	1
4901784	144	C	06/14/2019	10:46	-132.398	42.830	0	1945.00	0	1.9690	0	36.4660	8	29.161	0	1920.664	0	56.2	4	17.2	4	-1E+10	1	-1E+10	1	-1E+10	1	-1E+10	1	-1E+10	1	-1E+10	1
4901784	144	C	06/14/2019	10:46	-132.398	42.830	0	1949.60	0	1.9660	0	36.4670	8	29.162	0	1925.185	0	56.5	4	17.3	4	-1E+10	1	-1E+10	1	-1E+10	1	-1E+10	1	-1E+10	1	-1E+10	1
4901784	144	C	06/14/2019	10:46	-132.398	42.830	0	1955.10	0	1.9600	0	36.4680	8	29.163	0	1930.592	0	56.9	4	17.4	4	-1E+10	1	-1E+10	1	-1E+10	1	-1E+10	1	-1E+10	1	-1E+10	1
4901784	144	C	06/14/2019	10:46	-132.398	42.830	0	1960.50	0	1.9550	0	36.4690	8	29.165	0	1935.899	0	57.2	4	17.5	4	-1E+10	1	-1E+10	1	-1E+10	1	-1E+10	1	-1E+10	1	-1E+10	1
4901784	144	C	06/14/2019	10:46	-132.398	42.830	0	1965.40	0	1.9520	0	36.4700	8	29.166	0	1940.716	0	57.4	4	17.5	4	-1E+10	1	-1E+10	1	-1E+10	1	-1E+10	1	-1E+10	1	-1E+10	1
4901784	144	C	06/14/2019	10:46	-132.398	42.830	0	1970.40	0	1.9500	0	36.4710	8	29.167	0	1945.630	0	57.6	4	17.6	4	-1E+10	1	-1E+10	1	-1E+10	1	-1E+10	1	-1E+10	1	-1E+10	1
4901784	144	C	06/14/2019	10:46	-132.398	42.830	0	1975.40	0	1.9500	0	36.4720	8	29.168	0	1950.544	0	57.7	4	17.6	4	-1E+10	1	-1E+10	1	-1E+10	1	-1E+10	1	-1E+10	1	-1E+10	1
4901784	144	C	06/14/2019	10:46	-132.398	42.830	0	1980.40	0	1.9480	0	36.4720	8	29.168	0	1955.459	0	57.9	4	17.7	4	-1E+10	1	-1E+10	1	-1E+10	1	-1E+10	1	-1E+10	1	-1E+10	1
4901784	144	C	06/14/2019	10:46	-132.398	42.830	0	1985.30	0	1.9450	0	36.4730	8	29.169	0	1960.274	0	58.1	4	17.8	4	-1E+10	1	-1E+10	1	-1E+10	1	-1E+10	1	-1E+10	1	-1E+10	1
4901784	144	C	06/14/2019	10:46	-132.398	42.830	0	1990.10	0	1.9430	0	36.4740	8	29.170	0	1964.992	0	58.4	4	17.8	4	-1E+10	1	-1E+10	1	-1E+10	1	-1E+10	1	-1E+10	1	-1E+10	1
4901784	144	C	06/14/2019	10:46	-132.398	42.830	0	1994.80	0	1.9380	0	36.4750	8	29.171	0	1969.611	0	58.7	4	17.9	4	-1E+10	1	-1E+10	1	-1E+10	1	-1E+10	1	-1E+10	1	-1E+10	1
4901784	144	C	06/14/2019	10:46	-132.398	42.830	0	2000.10	0	1.9350	0	36.4760	8	29.172	0	1974.819	0	58.8	4	18.0	4	-1E+10	1	-1E+10	1	-1E+10	1	-1E+10	1	-1E+10	1	-1E+10	1
4901784	144	C	06/14/2019	10:46	-132.398	42.830	0	2004.50	0	1.9340	0	36.4760	8	29.172	0	1979.143	0	57.1	4	17.4	4	-1E+10	1	-1E+10	1	-1E+10	1	-1E+10	1	-1E+10	1	-1E+10	1
4901784	144	C	06/14/2019	10:46	-132.398	42.830	0																										
4901784	145	C	06/24/2019	10:43	-132.321	42.844	0	2.40	0	16.4840	0	34.0170	8	24.882	0	2.381	0	240.1	4	99.0	4	-1E+10	1	-1E+10	1	-1E+10	1	-1E+10	1	-1E+10	1	-1E+10	1
4901784	145	C	06/24/2019	10:43	-132.321	42.844	0	3.80	0	16.4780	0	34.0180	8	24.884	0	3.770	0	240.1	4	99.1	4	-1E+10	1	-1E+10	1	-1E+10	1	-1E+10	1	-1E+10	1	-1E+10	1
4901784	145	C	06/24/2019	10:43	-132.321	42.844	0	5.20	0	16.4410	0	34.0130	8	24.888	0	5.159	0	240.5	4	99.1	4	-1E+10	1	-1E+10	1	-1E+10	1	-1E+10	1	-1E+10	1	-1E+10	1
4901784	145	C	06/24/2019	10:43	-132.321	42.844	0	6.60	0	16.4570	0	34.0080	8	24.881	0	6.548	0	241.1	4	99.4	4	-1E+10	1	-1E+10	1	-1E+10	1	-1E+10	1	-1E+10	1	-1E+10	1
4901784	145	C	06/24/2019	10:43	-132.321	42.844	0	8.10	0	16.3790	0	34.0000	8	24.893	0	8.036	0	241.8	4	99.6	4	-1E+10	1	-1E+10	1	-1E+10	1	-1E+10	1	-1E+10	1	-1E+10	1
4901784	145	C	06/24/2019	10:43	-132.321	42.844	0	9.60	0	16.3080	0	33.9960	8	24.906	0	9.524	0	243.0	4	99.9	4	-1E+10	1	-1E+10	1	-1E+10	1	-1E+10	1	-1E+10	1	-1E+10	1
4901784	145	C	06/24/2019	10:43	-132.321	42.844	0	11.00	0	16.2180	0	33.9890	8	24.922	0	10.913	0	244.4	4	100.3	4	-1E+10	1	-1E+10	1	-1E+10	1	-1E+10	1	-1E+10	1	-1E+10	1
4901784	145	C	06/24/2019	10:43	-132.321	42.844	0	12.40	0	15.9680	0	33.9740	8	24.967	0	12.301	0	247.2	4	101.0	4	-1E+10	1	-1E+10	1	-1E+10	1	-1E+10	1	-1E+10	1	-1E+10	1
4901784	145	C	06/24/2019	10:43	-132.321	42.844	0	13.90	0	15.8140	0	33.9570	8	24.989	0	13.789	0	249.7	4	101.6	4	-1E+10	1	-1E+10	1	-1E+10	1	-1E+10	1	-1E+10	1	-1E+10	1
4901784	145	C	06/24/2019	10:43	-132.321	42.844	0	15.50	0	15.4640	0	33.9320	8	25.048	0	15.377	0	253.1	4	102.3	4	-1E+10	1	-1E+10	1	-1E+10	1	-1E+10	1	-1E+10	1	-1E+10	1
4901784	145	C	06/24/2019	10:43	-132.321	42.844	0	17.10	0	14.4720	0	33.9770	8	25.298	0	16.964	0	260.0	4	103.1	4	-1E+10	1	-1E+10	1	-1E+10	1	-1E+10	1	-1E+10	1	-1E+10	1
4901784	145	C	06/24/2019	10:43	-132.321	42.844	0	18.60	0	14.1440	0	33.9840	8	25.373	0	18.452	0	262.8	4	103.5	4	-1E+10	1	-1E+10	1	-1E+10	1	-1E+10	1	-1E+10	1	-1E+10	1
4901784	145	C	06/24/2019	10:43	-132.321	42.844	0	20.30	0	13.5000	0	34.0050	8	25.523	0	20.138	0	266.2	4	103.5	4	-1E+10	1	-1E+10	1	-1E+10	1	-1E+10	1	-1E+10	1	-1E+10	1
4901784	145	C	06/24/2019	10:43	-132.321	42.844	0	22.00	0	13.2320	0	34.0160	8	25.585	0	21.825	0	267.4	4	103.4	4	-1E+10	1	-1E+10	1	-1E+10	1	-1E+10	1	-1E+10	1	-1E+10	1
4901784	145	C	06/24/2019	10:43	-132.321	42.844	0	23.70	0	12.9030	0	34.0300	8	25.662	0	23.511	0	268.3	4	103.1	4	-1E+10	1	-1E+10	1	-1E+10	1	-1E+10	1	-1E+10	1	-1E+10	1
4901784	145	C	06/24/2019	10:43	-132.321	42.844	0	25.50	0	12.6240	0	34.0230	8	25.711	0	25.296	0	268.7	4	102.7	4	-1E+10	1	-1E+10	1	-1E+10	1	-1E+10	1	-1E+10	1	-1E+10	1
4901784	145	C	06/24/2019	10:43	-132.321	42.844	0	27.50	0	12.2920	0	34.0430	8	25.791	0	27.280	0	268.3	4	101.8	4	-1E+10	1	-1E+10	1	-1E+10	1	-1E+10	1	-1E+10	1	-1E+10	1
4901784	145	C	06/24/2019	10:43	-132.321	42.844	0	29.40	0	12.3390	0	34.0820	8	25.813	0	29.165	0	267.4	4	101.6	4	-1E+10	1	-1E+10	1	-1E+10	1	-1E+10	1	-1E+10	1	-1E+10	1
4901784	145	C	06/24/2019	10:43	-132.321	42.844	0	31.30	0	12.3590	0	34.0970	8	25.820	0	31.050	0	267.1	4	101.6	4	-1E+10	1	-1E+10	1	-1E+10	1	-1E+10	1	-1E+10	1	-1E+10	1
4901784	145	C	06/24/2019	10:43	-132.321	42.844	0	33.20	0	12.2860	0	34.0890	8	25.828	0	32.934	0	268.1	4	101.8	4	-1E+10	1	-1E+10	1	-1E+10	1	-1E+10	1	-1E+10	1	-1E+10	1
4901784	145	C	06/24/2019	10:43	-132.321	42.844	0	35.10	0	12.0260	0	34.0600	8	25.855	0	34.819	0	270.2	4	102.0	4	-1E+10	1	-1E+10	1	-1E+10	1	-1E+10	1	-1E+10	1	-1E+10	1
4901784	145	C	06/24/2019	10:43	-132.321	42.844	0	37.10	0	11.8830	0	34.0370	8	25.865	0	36.803	0	270.6	4	101.8	4	-1E+10	1	-1E+10	1	-1E+10	1	-1E+10	1	-1E+10	1	-1E+10	1
4901784	145	C	06/24/2019	10:43	-132.321	42.844	0	39.30	0	11.8530	0	34.0410	8	25.873	0	38.985	0	269.8	4	101.5	4	-1E+10	1	-1E+10	1	-1E+10	1	-1E+10	1	-1E+10	1	-1E+10	1
4901784	145	C	06/24/2019	10:43	-132.321	42.844	0	39.90	0	11.8220	0	34.0400	8	25.879	0	39.580	0	269.5	4	101.3	4	-1E+10	1	-1E+10	1	-1E+10	1	-1E+10	1	-1E+10	1	-1E+10	1
4901784	145	C	06/24/2019	10:43	-132.321	42.844	0	41.60	0	11.8150	0	34.0480	8	25.886	0	41.266	0	268.5	4	100.9	4	-1E+10	1	-1E+10	1	-1E+10	1	-1E+10	1	-1E+10	1	-1E+10	1
4901784	145	C	06/24/2019	10:43	-132.321	42.844	0	43.30	0	11.8040	0	34.0510	8	25.891	0	42.953	0	267.5	4	100.5	4	-1E+10	1	-1E+10	1	-1E+10	1	-1E+10	1	-1E+10	1	-1E+10	1
4901784	145	C	06/24/2019	10:43	-132.321	42.844	0	44.90	0	11.7570	0	34.0520	8	25.900	0	44.540	0	267.0	4	100.2	4	-1E+10	1	-1E+10	1	-1E+10	1	-1E+10	1	-1E+10	1	-1E+10	1
4901784	145	C	06/24/2019	10:43	-132.321	42.844	0	46.60	0	11.7440	0	34.0520	8	25.903	0	46.226	0	266.3	4	100.0	4	-1E+10	1	-1E+10	1	-1E+10	1	-1E+10	1	-1E+10	1	-1E+10	1
4901784	145	C	06/24/2019	10:43	-132.321	42.844	0	48.20	0	11.7090	0	34.0540	8	25.911	0	47.813	0	265.6	4	99.6	4	-1E+10	1	-1E+10	1	-1E+10	1	-1E+10	1	-1E+10	1	-1E+10	1
4901784	145	C	06/24/2019	10:43	-132.321	42.844	0	49.80	0	11.6700	0	34.0550	8	25.919	0	49.400	0	264.8	4	99.2	4	-1E+10	1	-1E+10	1	-1E+10	1	-1E+10	1	-1E+10	1	-1E+10	1
4901784	145	C	06/24/2019	10:43	-132.321	42.844	0	51.40	0	11.6530	0	34.0550	8	25.922	0	50.987	0	264.3	4	99.0	4	-1E+10	1	-1E+10	1	-1E+10	1	-1E+10	1	-1E+10	1	-1E+10	1
4901784	145	C	06/24/2019	10:43	-132.321	42.844	0	53.00	0	11.6270	0	34.0550	8	25.927	0	52.573	0	263.3	4	98.6	4	-1E+10	1	-1E+10	1	-1E+10	1	-1E+10	1	-1E+10	1	-1E+10	1
4901784	145	C	06/24/2019	10:43	-132.321	42.844	0	54.60	0	11.6110	0	34.0560	8	25.931	0	54.160	0	262.9	4	98.4	4	-1E+10	1	-1E+10	1	-1E+10	1	-1E+10	1	-1E+10	1	-1E+10	1
4901784	145	C	06/24/2019	10:43	-132.321	42.844	0	56.20	0	11.6000	0	34.0560	8	25.933	0	55.747	0	262.4	4	98.2	4	-1E+10	1	-1E+10	1	-1E+10	1	-1E+10	1	-1E+10	1	-1E+10	1
4901784	145	C	06/24/2019	10:43	-132.321	42.844	0	57.90	0	11.5960	0	34.0560	8	25.933	0	57.433	0	261.6	4	97.9	4	-1E+10	1	-1E+10	1	-1E+10	1	-1E+10	1	-1E+10	1	-1E+10	1
4901784	145	C	06/24/2019	10:43	-132.321	42.844	0	59.60	0	11.5980	0	34.0560	8	25.933	0	59.119	0	260.8	4	97.6	4	-1E+10	1	-1E+10	1	-1E+10	1	-1E+10	1	-1E+10	1	-1E+10	1
4901784	145	C	06/24/2019	10:43	-132.321	42.844	0	61.20	0	11.5670	0	34.0570	8	25.940	0	60.706	0	259.7	4	97.1	4	-1E+10	1	-1E+10	1	-1E+10	1	-1E+10	1	-1E+10	1	-1E+10	1
4901784	145	C	06/24/2019	10:43	-132.321	42.844	0	62.90	0	11.5330	0	34.0560	8	25.945	0	62.392	0	258.5	4	96.6	4	-1E+10	1	-1E+10	1	-1E+10	1	-1E+10	1	-1E+10	1	-1E+10	1
4901784	145	C	06/24/2019	10:43	-132.321	42.844	0	64.50	0	11.4570	0	34.0470	8	25.952	0	63.979	0	257.6	4	96.1	4	-1E+10	1	-1E+10	1	-1E+10	1	-1E+10	1	-1E+10	1	-1E+10	1
4901784	145	C	06/24/2019	10:43	-132.321	42.844	0	66.20	0	11.4030	0	34.0410	8	25.958	0	65.665	0	256.8	4	95.7	4	-1E+10	1	-1E+10	1	-1E+10	1	-1E+10	1	-1E+10	1	-1E+10	1
4901784	145	C	06/24/2019	10:43	-132.321	42.844	0	67.90	0	11.2980	0	34.0410	8	25.977	0	67.351	0	256.4	4	95.3	4	-1E+10	1	-1E+10	1	-1E+10	1	-1E+10	1	-1E+10	1	-1E+10	1
4901784	145	C	06/24/2019	10:43	-132.321	42.844	0	69.50	0	11.1420	0	34.0290	8	25.996	0	68.938	0	256.7	4	95.1	4	-1E+10	1	-1E+10	1	-1E+10	1	-1E+10	1	-1E+10	1	-1E+10	1
4901784	145	C	06/24/2019	10:43	-132.321	42.844	0	71.10	0	11.0500	0	34.0220	8	26.007	0	70.525	0	256.3	4	94.8	4	-1E+10	1	-1E+10	1	-1E+10	1	-1E+10	1	-1E+10	1	-1E+10	1
4901784	145	C	06/24/2019	10:43	-132.321	42.844	0	72.60	0	10.9050	0	34.0240	8	26.035	0	72.012	0	256.4	4	94.5	4	-1E+10	1	-1E+10	1	-1E+10	1	-1E+10	1	-1E+10	1	-1E+10	1
4901784	145	C	06/24/2019	10:43	-132.321	42.844	0	74.10	0	10.7420	0	34.0330	8	26.070	0	73.500	0	256.2	4	94.1	4	-1E+10	1	-1E+10	1	-1E+10	1	-1E+10	1	-1E+10	1	-1E+10	1
4901784	145	C	06/24/2019	10:43	-132.321	42.844	0	75.70	0	10.6410	0	34.0360	8	26.091	0	75.087	0	256.4	4	94.0	4	-1E+10	1	-1E+10	1	-1E+10	1	-1E+10	1	-1E+10	1	-1E+10	1
4901784	145	C	06/24/2019	10:43	-132.321	42.844	0	77.40	0	10.5570	0	34.0480	8	26.115	0	76.773	0	255.8	4	93.6	4	-1E+10	1	-1E+10	1	-1E+10	1	-1E+10	1	-1E+10	1	-1E+10	1
4901784	145	C	06/24/2019	10:43	-132.321	42.844	0	79.10	0	10.4720	0	34.0530	8	26.133	0	78.458	0	256.1	4	93.6	4	-1E+10	1	-1E+10	1	-1E+10	1	-1E+10	1	-1E+10	1	-1E+10	1
4901784	145	C	06/24/2019	10:43	-132.321	42.844	0	80.80	0	10.5350	0	34.0800	8	26.144	0	80.144	0	254.9	4	93.3	4	-1E+10	1	-1E+10	1	-1E+10	1	-1E+10	1	-1E+10	1	-1E+10	1
4901784	145	C	06/24/2019	10:43	-132.321	42.844	0	82.40	0	10.5150	0	34.0790	8	26.146	0	81.731	0	254.4	4	93.1	4	-1E+10	1	-1E+10	1	-1E+10	1	-1E+10	1	-1E+10	1	-1E+10	1
4901784	145	C	06/24/2019	10:43	-132.321	42.844	0	84.20	0	10.5030	0	34.0660	8	26.138	0	83.516	0	254.4	4	93.0	4	-1E+10	1	-1E+10	1	-1E+10	1	-1E+10	1	-1E+10	1	-1E+10	1
4901784	145	C	06/24/2019	10:43	-132.321	42.844	0	85.90	0	10.4510	0	34.0920	8	26.168	0	85.202	0	254.2	4	92.9	4	-1E+10	1	-1E+10	1	-1E+10	1	-1E+10	1	-1E+10	1	-1E+10	1
4901784	145	C	06/24/2019	10:43	-132.321	42.844	0	87.60	0	10.3630	0	34.0810	8	26.174	0	86.888	0	254.2	4	92.7	4	-1E+10	1	-1E+10	1	-1E+10	1	-1E+10	1	-1E+10	1	-1E+10	1
4901784	145	C	06/24/2019	10:43	-132.321	42.844	0	89.30	0	10.3710	0	34.0810	8	26.173	0	88.574	0	253.8	4	92.6	4	-1E+10	1	-1E+10	1	-1E+10	1	-1E+10	1	-1E+10	1	-1E+10	1
4901784	145	C	06/24/2019	10:43	-132.321	42.844	0	91.00	0	10.3430	0	34.0840	8	26.180	0	90.259	0	253.3	4	92.3	4	-1E+10	1	-1E+10	1	-1E+10	1	-1E+10	1	-1E+10	1	-1E+10	1
4901784	145	C	06/24/2019	10:43	-132.321	42.844	0	92.80	0	10.2660	0	34.0750	8	26.187	0	92.044	0	253.5	4	92.2	4	-1E+10	1	-1E+10	1	-1E+10	1	-1E+10	1	-1E+10	1	-1E+10	1
4901784	145	C	06/24/2019	10:43	-132.321	42.844	0	94.50	0	10.2540	0	34.0750	8	26.189	0	93.730	0	252.8	4	91.9	4	-1E+10	1	-1E+10	1	-1E+10	1	-1E+10	1	-1E+10	1	-1E+10	1
4901784	145	C	06/24/2019	10:43	-132.321	42.844	0	96.20	0	10.3150	0	34.0860	8	26.187	0	95.416	0	251.8	4	91.7	4	-1E+10	1	-1E+10	1	-1E+10	1	-1E+10	1	-1E+10	1	-1E+10	1
4901784	145	C	06/24/2019	10:43	-132.321	42.844	0	98.00	0	10.2240	0	34.0880	8	26.204	0	97.201	0	250.9	4	91.2	4	-1E+10	1	-1E+10	1	-1E+10	1	-1E+10	1	-1E+10	1	-1E+10	1
4901784	145	C	06/24/2019	10:43	-132.321	42.844	0	99.70	0	10.0820	0	34.0880	8	26.228	0	98.886	0	250.8	4	90.9	4	-1E+10	1	-1E+10	1	-1E+10	1	-1E+10	1	-1E+10	1	-1E+10	1
4901784	145	C	06/24/2019	10:43	-132.321	42.844	0	102.40	0	10.0930	0	34.0930	8	26.230	0	101.564	0	249.9	4	90.6	4	-1E+10	1	-1E+10	1	-1E+10	1	-1E+10	1	-1E+10	1	-1E+10	1
4901784	145	C	06/24/2019	10:43	-132.321	42.844	0	105.10	0	10.0790	0	34.1120	8	26.248	0	104.241	0	248.1	4	89.9	4	-1E+10	1	-1E+10	1	-1E+10	1	-1E+10	1	-1E+10	1	-1E+10	1
4901784	145	C	06/24/2019	10:43	-132.321	42.844	0	107.80	0	10.2600	0	34.1740	8	26.265	0	106.918	0	245.4	4	89.3	4	-1E+10	1	-1E+10	1	-1E+10	1	-1E+10	1	-1E+10	1	-1E+10	1
4901784	145	C	06/24/2019	10:43	-132.321	42.844	0	110.90	0	10.4860	0	34.2240	8	26.265	0	109.992	0	242.4	4	88.7	4	-1E+10	1	-1E+10	1	-1E+10	1	-1E+10	1	-1E+10	1	-1E+10	1
4901784	145	C	06/24/2019	10:43	-132.321	42.844	0	112.20	0	10.4270	0	34.2340	8	26.283	0	111.281	0	240.7	4	88.0	4	-1E+10	1	-1E+10	1	-1E+10	1	-1E+10	1	-1E+10	1	-1E+10	1
4901784	145	C	06/24/2019	10:43	-132.321	42.844	0	115.30	0	10.1390	0	34.2550	8	26.349	0	114.355	0	238.7	4	86.7	4	-1E+10	1	-1E+10	1	-1E+10	1	-1E+10	1	-1E+10	1	-1E+10	1
4901784	145	C	06/24/2019	10:43	-132.321	42.844	0	117.50	0	9.9950	0	34.2680	8	26.384	0	116.536	0	237.0	4	85.8	4	-1E+10	1	-1E+10	1	-1E+10	1	-1E+10	1	-1E+10	1	-1E+10	1
4901784	145	C	06/24/2019	10:43	-132.321	42.844	0	119.90	0	9.7910	0	34.2850	8	26.432	0	118.916	0	235.4	4	84.9	4	-1E+10	1	-1E+10	1	-1E+10	1	-1E+10	1	-1E+10	1	-1E+10	1
4901784	145	C	06/24/2019	10:43	-132.321	42.844	0	122.30	0	9.5500	0	34.2980	8	26.482	0	121.295	0	233.6	4	83.8	4	-1E+10	1	-1E+10	1	-1E+10	1	-1E+10	1	-1E+10	1	-1E+10	1
4901784	145	C	06/24/2019	10:43	-132.321	42.844	0	124.70	0	9.4840	0	34.3530	8	26.536	0	123.675	0	231.2	4	82.9	4	-1E+10	1	-1E+10	1	-1E+10	1	-1E+10	1	-1E+10	1	-1E+10	1
4901784	145	C	06/24/2019	10:43	-132.321	42.844	0	127.30	0	9.5130	0	34.4030	8	26.570	0	126.253	0	228.5	4	82.0	4	-1E+10	1	-1E+10	1	-1E+10	1	-1E+10	1	-1E+10	1	-1E+10	1
4901784	145	C	06/24/2019	10:43	-132.321	42.844	0	129.90	0	9.4700	0	34.4470	8	26.612	0	128.831	0	225.7	4	80.9	4	-1E+10	1	-1E+10	1	-1E+10	1	-1E+10	1	-1E+10	1	-1E+10	1
4901784	145	C	06/24/2019	10:43	-132.321	42.844	0	132.00	0	9.3650	0	34.5010	8	26.671	0	130.913	0	223.9	4	80.1	4	-1E+10	1	-1E+10	1	-1E+10	1	-1E+10	1	-1E+10	1	-1E+10	1
4901784	145	C	06/24/2019	10:43	-132.321	42.844	0	134.80	0	9.3160	0	34.5180	8	26.692	0	133.689	0	222.6	4	79.6	4	-1E+10	1	-1E+10	1	-1E+10	1	-1E+10	1	-1E+10	1	-1E+10	1
4901784	145	C	06/24/2019	10:43	-132.321	42.844	0	137.60	0	9.2710	0	34.5260	8	26.706	0	136.465	0	220.2	4	78.7	4	-1E+10	1	-1E+10	1	-1E+10	1	-1E+10	1	-1E+10	1	-1E+10	1
4901784	145	C	06/24/2019	10:43	-132.321	42.844	0	139.80	0	9.0540	0	34.5320	8	26.746	0	138.646	0	218.7	4	77.8	4	-1E+10	1	-1E+10	1	-1E+10	1	-1E+10	1	-1E+10	1	-1E+10	1
4901784	145	C	06/24/2019	10:43	-132.321	42.844	0	142.10	0	8.6100	0	34.5510	8	26.831	0	140.926	0	216.4	4	76.2	4	-1E+10	1	-1E+10	1	-1E+10	1	-1E+10	1	-1E+10	1	-1E+10	1
4901784	145	C	06/24/2019	10:43	-132.321	42.844	0	145.30	0	8.8020	0	34.6790	8	26.901	0	144.098	0	207.4	4	73.4	4	-1E+10	1	-1E+10	1	-1E+10	1	-1E+10	1	-1E+10	1	-1E+10	1
4901784	145	C	06/24/2019	10:43	-132.321	42.844	0	147.70	0	9.0040	0	34.7810	8	26.949	0	146.478	0	202.4	4	72.0	4	-1E+10	1	-1E+10	1	-1E+10	1	-1E+10	1	-1E+10	1	-1E+10	1
4901784	145	C	06/24/2019	10:43	-132.321	42.844	0	150.00	0	8.9620	0	34.8260	8	26.991	0	148.758	0	200.0	4	71.1	4	-1E+10	1	-1E+10	1	-1E+10	1	-1E+10	1	-1E+10	1	-1E+10	1
4901784	145	C	06/24/2019	10:43	-132.321	42.844	0	152.50	0	8.9220	0	34.8660	8	27.029	0	151.236	0	198.0	4	70.4	4	-1E+10	1	-1E+10	1	-1E+10	1	-1E+10	1	-1E+10	1	-1E+10	1
4901784	145	C	06/24/2019	10:43	-132.321	42.844	0	155.10	0	8.8720	0	34.9060	8	27.068	0	153.814	0	196.4	4	69.8	4	-1E+10	1	-1E+10	1	-1E+10	1	-1E+10	1	-1E+10	1	-1E+10	1
4901784	145	C	06/24/2019	10:43	-132.321	42.844	0	157.70	0	8.8310	0	34.9280	8	27.092	0	156.391	0	195.2	4	69.3	4	-1E+10	1	-1E+10	1	-1E+10	1	-1E+10	1	-1E+10	1	-1E+10	1
4901784	145	C	06/24/2019	10:43	-132.321	42.844	0	160.20	0	8.8070	0	34.9730	8	27.131	0	158.870	0	194.7	4	69.1	4	-1E+10	1	-1E+10	1	-1E+10	1	-1E+10	1	-1E+10	1	-1E+10	1
4901784	145	C	06/24/2019	10:43	-132.321	42.844	0	162.60	0	8.6290	0	34.9920	8	27.174	0	161.249	0	196.0	4	69.3	4	-1E+10	1	-1E+10	1	-1E+10	1	-1E+10	1	-1E+10	1	-1E+10	1
4901784	145	C	06/24/2019	10:43	-132.321	42.844	0	165.10	0	8.6550	0	35.0140	8	27.187	0	163.727	0	197.0	4	69.7	4	-1E+10	1	-1E+10	1	-1E+10	1	-1E+10	1	-1E+10	1	-1E+10	1
4901784	145	C	06/24/2019	10:43	-132.321	42.844	0	167.60	0	8.5170	0	35.0240	8	27.217	0	166.205	0	199.5	4	70.3	4	-1E+10	1	-1E+10	1	-1E+10	1	-1E+10	1	-1E+10	1	-1E+10	1
4901784	145	C	06/24/2019	10:43	-132.321	42.844	0	170.10	0	8.3000	0	35.0390	8	27.262	0	168.683	0	201.9	4	70.9	4	-1E+10	1	-1E+10	1	-1E+10	1	-1E+10	1	-1E+10	1	-1E+10	1
4901784	145	C	06/24/2019	10:43	-132.321	42.844	0	172.70	0	8.1770	0	35.0510	8	27.290	0	171.261	0	202.3	4	70.8	4	-1E+10	1	-1E+10	1	-1E+10	1	-1E+10	1	-1E+10	1	-1E+10	1
4901784	145	C	06/24/2019	10:43	-132.321	42.844	0	175.10	0	8.1690	0	35.0650	8	27.302	0	173.640	0	201.1	4	70.4	4	-1E+10	1	-1E+10	1	-1E+10	1	-1E+10	1	-1E+10	1	-1E+10	1
4901784	145	C	06/24/2019	10:43	-132.321	42.844	0	177.70	0	8.0820	0	35.1260	8	27.364	0	176.217	0	200.0	4	69.9	4	-1E+10	1	-1E+10	1	-1E+10	1	-1E+10	1	-1E+10	1	-1E+10	1
4901784	145	C	06/24/2019	10:43	-132.321	42.844	0	179.90	0	7.9980	0	35.1460	8	27.392	0	178.397	0	199.3	4	69.6	4	-1E+10	1	-1E+10	1	-1E+10	1	-1E+10	1	-1E+10	1	-1E+10	1
4901784	145	C	06/24/2019	10:43	-132.321	42.844	0	182.30	0	8.0270	0	35.1950	8	27.426	0	180.776	0	195.6	4	68.3	4	-1E+10	1	-1E+10	1	-1E+10	1	-1E+10	1	-1E+10	1	-1E+10	1
4901784	145	C	06/24/2019	10:43	-132.321	42.844	0	185.30	0	8.0740	0	35.2790	8	27.485	0	183.750	0	190.9	4	66.8	4	-1E+10	1	-1E+10	1	-1E+10	1	-1E+10	1	-1E+10	1	-1E+10	1
4901784	145	C	06/24/2019	10:43	-132.321	42.844	0	187.50	0	8.1330	0	35.3650	8	27.544	0	185.931	0	187.4	4	65.7	4	-1E+10	1	-1E+10	1	-1E+10	1	-1E+10	1	-1E+10	1	-1E+10	1
4901784	145	C	06/24/2019	10:43	-132.321	42.844	0	189.70	0	8.1530	0	35.3930	8	27.563	0	188.111	0	185.1	4	64.9	4	-1E+10	1	-1E+10	1	-1E+10	1	-1E+10	1	-1E+10	1	-1E+10	1
4901784	145	C	06/24/2019	10:43	-132.321	42.844	0	192.90	0	8.1760	0	35.4220	8	27.582	0	191.283	0	181.5	4	63.7	4	-1E+10	1	-1E+10	1	-1E+10	1	-1E+10	1	-1E+10	1	-1E+10	1
4901784	145	C	06/24/2019	10:43	-132.321	42.844	0	195.30	0	8.2110	0	35.4740	8	27.618	0	193.662	0	178.2	4	62.6	4	-1E+10	1	-1E+10	1	-1E+10	1	-1E+10	1	-1E+10	1	-1E+10	1
4901784	145	C	06/24/2019	10:43	-132.321	42.844	0	197.80	0	8.2250	0	35.5040	8	27.639	0	196.139	0	175.9	4	61.8	4	-1E+10	1	-1E+10	1	-1E+10	1	-1E+10	1	-1E+10	1	-1E+10	1
4901784	145	C	06/24/2019	10:43	-132.321	42.844	0	200.20	0	8.2260	0	35.5350	8	27.663	0	198.518	0	173.6	4	61.0	4	-1E+10	1	-1E+10	1	-1E+10	1	-1E+10	1	-1E+10	1	-1E+10	1
4901784	145	C	06/24/2019	10:43	-132.321	42.844	0	202.60	0	8.2210	0	35.5650	8	27.688	0	200.897	0	171.8	4	60.4	4	-1E+10	1	-1E+10	1	-1E+10	1	-1E+10	1	-1E+10	1	-1E+10	1
4901784	145	C	06/24/2019	10:43	-132.321	42.844	0	205.00	0	8.2220	0	35.5770	8	27.697	0	203.275	0	170.4	4	59.9	4	-1E+10	1	-1E+10	1	-1E+10	1	-1E+10	1	-1E+10	1	-1E+10	1
4901784	145	C	06/24/2019	10:43	-132.321	42.844	0	207.50	0	8.2120	0	35.5880	8	27.707	0	205.753	0	169.2	4	59.5	4	-1E+10	1	-1E+10	1	-1E+10	1	-1E+10	1	-1E+10	1	-1E+10	1
4901784	145	C	06/24/2019	10:43	-132.321	42.844	0	209.90	0	8.1920	0	35.6020	8	27.721	0	208.132	0	168.2	4	59.1	4	-1E+10	1	-1E+10	1	-1E+10	1	-1E+10	1	-1E+10	1	-1E+10	1
4901784	145	C	06/24/2019	10:43	-132.321	42.844	0	212.40	0	8.1730	0	35.6050	8	27.727	0	210.609	0	167.0	4	58.7	4	-1E+10	1	-1E+10	1	-1E+10	1	-1E+10	1	-1E+10	1	-1E+10	1
4901784	145	C	06/24/2019	10:43	-132.321	42.844	0	214.90	0	8.1520	0	35.6130	8	27.736	0	213.087	0	165.9	4	58.3	4	-1E+10	1	-1E+10	1	-1E+10	1	-1E+10	1	-1E+10	1	-1E+10	1
4901784	145	C	06/24/2019	10:43	-132.321	42.844	0	217.40	0	8.1020	0	35.6180	8	27.748	0	215.565	0	165.2	4	58.0	4	-1E+10	1	-1E+10	1	-1E+10	1	-1E+10	1	-1E+10	1	-1E+10	1
4901784	145	C	06/24/2019	10:43	-132.321	42.844	0	219.90	0	8.0740	0	35.6150	8	27.750	0	218.042	0	164.3	4	57.6	4	-1E+10	1	-1E+10	1	-1E+10	1	-1E+10	1	-1E+10	1	-1E+10	1
4901784	145	C	06/24/2019	10:43	-132.321	42.844	0	222.40	0	7.9720	0	35.6190	8	27.768	0	220.520	0	163.0	4	57.0	4	-1E+10	1	-1E+10	1	-1E+10	1	-1E+10	1	-1E+10	1	-1E+10	1
4901784	145	C	06/24/2019	10:43	-132.321	42.844	0	224.90	0	7.9120	0	35.6210	8	27.779	0	222.997	0	161.7	4	56.5	4	-1E+10	1	-1E+10	1	-1E+10	1	-1E+10	1	-1E+10	1	-1E+10	1
4901784	145	C	06/24/2019	10:43	-132.321	42.844	0	227.40	0	7.8450	0	35.6240	8	27.791	0	225.475	0	160.2	4	55.9	4	-1E+10	1	-1E+10	1	-1E+10	1	-1E+10	1	-1E+10	1	-1E+10	1
4901784	145	C	06/24/2019	10:43	-132.321	42.844	0	230.00	0	7.7490	0	35.6260	8	27.807	0	228.051	0	158.8	4	55.3	4	-1E+10	1	-1E+10	1	-1E+10	1	-1E+10	1	-1E+10	1	-1E+10	1
4901784	145	C	06/24/2019	10:43	-132.321	42.844	0	232.50	0	7.7220	0	35.6240	8	27.810	0	230.529	0	157.5	4	54.8	4	-1E+10	1	-1E+10	1	-1E+10	1	-1E+10	1	-1E+10	1	-1E+10	1
4901784	145	C	06/24/2019	10:43	-132.321	42.844	0	235.00	0	7.6660	0	35.6240	8	27.818	0	233.006	0	156.0	4	54.2	4	-1E+10	1	-1E+10	1	-1E+10	1	-1E+10	1	-1E+10	1	-1E+10	1
4901784	145	C	06/24/2019	10:43	-132.321	42.844	0	237.50	0	7.6080	0	35.6260	8	27.828	0	235.484	0	154.9	4	53.8	4	-1E+10	1	-1E+10	1	-1E+10	1	-1E+10	1	-1E+10	1	-1E+10	1
4901784	145	C	06/24/2019	10:43	-132.321	42.844	0	240.10	0	7.5370	0	35.6250	8	27.838	0	238.060	0	154.0	4	53.4	4	-1E+10	1	-1E+10	1	-1E+10	1	-1E+10	1	-1E+10	1	-1E+10	1
4901784	145	C	06/24/2019	10:43	-132.321	42.844	0	242.50	0	7.4970	0	35.6250	8	27.844	0	240.438	0	152.9	4	52.9	4	-1E+10	1	-1E+10	1	-1E+10	1	-1E+10	1	-1E+10	1	-1E+10	1
4901784	145	C	06/24/2019	10:43	-132.321	42.844	0	245.10	0	7.4730	0	35.6250	8	27.847	0	243.015	0	151.7	4	52.5	4	-1E+10	1	-1E+10	1	-1E+10	1	-1E+10	1	-1E+10	1	-1E+10	1
4901784	145	C	06/24/2019	10:43	-132.321	42.844	0	247.70	0	7.4340	0	35.6250	8	27.853	0	245.591	0	150.4	4	52.0	4	-1E+10	1	-1E+10	1	-1E+10	1	-1E+10	1	-1E+10	1	-1E+10	1
4901784	145	C	06/24/2019	10:43	-132.321	42.844	0	250.20	0	7.3950	0	35.6230	8	27.857	0	248.068	0	149.4	4	51.6	4	-1E+10	1	-1E+10	1	-1E+10	1	-1E+10	1	-1E+10	1	-1E+10	1
4901784	145	C	06/24/2019	10:43	-132.321	42.844	0	252.80	0	7.3420	0	35.6260	8	27.867	0	250.644	0	148.5	4	51.2	4	-1E+10	1	-1E+10	1	-1E+10	1	-1E+10	1	-1E+10	1	-1E+10	1
4901784	145	C	06/24/2019	10:43	-132.321	42.844	0	255.40	0	7.3170	0	35.6270	8	27.872	0	253.221	0	148.1	4	51.1	4	-1E+10	1	-1E+10	1	-1E+10	1	-1E+10	1	-1E+10	1	-1E+10	1
4901784	145	C	06/24/2019	10:43	-132.321	42.844	0	257.20	0	7.3150	0	35.6270	8	27.872	0	255.004	0	147.6	4	50.9	4	-1E+10	1	-1E+10	1	-1E+10	1	-1E+10	1	-1E+10	1	-1E+10	1
4901784	145	C	06/24/2019	10:43	-132.321	42.844	0	259.70	0	7.3070	0	35.6260	8	27.872	0	257.481	0	146.6	4	50.5	4	-1E+10	1	-1E+10	1	-1E+10	1	-1E+10	1	-1E+10	1	-1E+10	1
4901784	145	C	06/24/2019	10:43	-132.321	42.844	0	262.40	0	7.2900	0	35.6260	8	27.875	0	260.156	0	145.3	4	50.1	4	-1E+10	1	-1E+10	1	-1E+10	1	-1E+10	1	-1E+10	1	-1E+10	1
4901784	145	C	06/24/2019	10:43	-132.321	42.844	0	265.00	0	7.2520	0	35.6250	8	27.879	0	262.733	0	143.4	4	49.4	4	-1E+10	1	-1E+10	1	-1E+10	1	-1E+10	1	-1E+10	1	-1E+10	1
4901784	145	C	06/24/2019	10:43	-132.321	42.844	0	267.60	0	7.2170	0	35.6240	8	27.884	0	265.309	0	140.7	4	48.4	4	-1E+10	1	-1E+10	1	-1E+10	1	-1E+10	1	-1E+10	1	-1E+10	1
4901784	145	C	06/24/2019	10:43	-132.321	42.844	0	270.40	0	7.1570	0	35.6250	8	27.893	0	268.083	0	138.9	4	47.7	4	-1E+10	1	-1E+10	1	-1E+10	1	-1E+10	1	-1E+10	1	-1E+10	1
4901784	145	C	06/24/2019	10:43	-132.321	42.844	0	273.00	0	7.1020	0	35.6240	8	27.900	0	270.659	0	136.9	4	47.0	4	-1E+10	1	-1E+10	1	-1E+10	1	-1E+10	1	-1E+10	1	-1E+10	1
4901784	145	C	06/24/2019	10:43	-132.321	42.844	0	274.70	0	7.0590	0	35.6250	8	27.907	0	272.343	0	135.7	4	46.5	4	-1E+10	1	-1E+10	1	-1E+10	1	-1E+10	1	-1E+10	1	-1E+10	1
4901784	145	C	06/24/2019	10:43	-132.321	42.844	0	277.30	0	7.0140	0	35.6250	8	27.913	0	274.919	0	133.6	4	45.8	4	-1E+10	1	-1E+10	1	-1E+10	1	-1E+10	1	-1E+10	1	-1E+10	1
4901784	145	C	06/24/2019	10:43	-132.321	42.844	0	279.80	0	6.9440	0	35.6280	8	27.926	0	277.396	0	131.5	4	45.0	4	-1E+10	1	-1E+10	1	-1E+10	1	-1E+10	1	-1E+10	1	-1E+10	1
4901784	145	C	06/24/2019	10:43	-132.321	42.844	0	282.50	0	6.8910	0	35.6270	8	27.932	0	280.071	0	129.8	4	44.3	4	-1E+10	1	-1E+10	1	-1E+10	1	-1E+10	1	-1E+10	1	-1E+10	1
4901784	145	C	06/24/2019	10:43	-132.321	42.844	0	285.20	0	6.8430	0	35.6290	8	27.941	0	282.746	0	128.6	4	43.9	4	-1E+10	1	-1E+10	1	-1E+10	1	-1E+10	1	-1E+10	1	-1E+10	1
4901784	145	C	06/24/2019	10:43	-132.321	42.844	0	287.90	0	6.8310	0	35.6290	8	27.942	0	285.421	0	127.3	4	43.4	4	-1E+10	1	-1E+10	1	-1E+10	1	-1E+10	1	-1E+10	1	-1E+10	1
4901784	145	C	06/24/2019	10:43	-132.321	42.844	0	290.50	0	6.7970	0	35.6290	8	27.947	0	287.997	0	125.5	4	42.8	4	-1E+10	1	-1E+10	1	-1E+10	1	-1E+10	1	-1E+10	1	-1E+10	1
4901784	145	C	06/24/2019	10:43	-132.321	42.844	0	292.20	0	6.7640	0	35.6330	8	27.955	0	289.681	0	124.3	4	42.3	4	-1E+10	1	-1E+10	1	-1E+10	1	-1E+10	1	-1E+10	1	-1E+10	1
4901784	145	C	06/24/2019	10:43	-132.321	42.844	0	294.90	0	6.7090	0	35.6320	8	27.961	0	292.356	0	123.0	4	41.8	4	-1E+10	1	-1E+10	1	-1E+10	1	-1E+10	1	-1E+10	1	-1E+10	1
4901784	145	C	06/24/2019	10:43	-132.321	42.844	0	297.50	0	6.7040	0	35.6300	8	27.961	0	294.931	0	121.4	4	41.3	4	-1E+10	1	-1E+10	1	-1E+10	1	-1E+10	1	-1E+10	1	-1E+10	1
4901784	145	C	06/24/2019	10:43	-132.321	42.844	0	300.20	0	6.6650	0	35.6300	8	27.966	0	297.606	0	119.5	4	40.6	4	-1E+10	1	-1E+10	1	-1E+10	1	-1E+10	1	-1E+10	1	-1E+10	1
4901784	145	C	06/24/2019	10:43	-132.321	42.844	0	302.90	0	6.6040	0	35.6320	8	27.976	0	300.281	0	117.7	4	39.9	4	-1E+10	1	-1E+10	1	-1E+10	1	-1E+10	1	-1E+10	1	-1E+10	1
4901784	145	C	06/24/2019	10:43	-132.321	42.844	0	304.60	0	6.5720	0	35.6310	8	27.980	0	301.965	0	116.6	4	39.5	4	-1E+10	1	-1E+10	1	-1E+10	1	-1E+10	1	-1E+10	1	-1E+10	1
4901784	145	C	06/24/2019	10:43	-132.321	42.844	0	307.30	0	6.5130	0	35.6330	8	27.989	0	304.640	0	114.9	4	38.9	4	-1E+10	1	-1E+10	1	-1E+10	1	-1E+10	1	-1E+10	1	-1E+10	1
4901784	145	C	06/24/2019	10:43	-132.321	42.844	0	310.00	0	6.4530	0	35.6350	8	27.999	0	307.314	0	113.8	4	38.5	4	-1E+10	1	-1E+10	1	-1E+10	1	-1E+10	1	-1E+10	1	-1E+10	1
4901784	145	C	06/24/2019	10:43	-132.321	42.844	0	312.70	0	6.4310	0	35.6330	8	28.000	0	309.989	0	112.6	4	38.0	4	-1E+10	1	-1E+10	1	-1E+10	1	-1E+10	1	-1E+10	1	-1E+10	1
4901784	145	C	06/24/2019	10:43	-132.321	42.844	0	315.30	0	6.3540	0	35.6370	8	28.014	0	312.564	0	111.4	4	37.6	4	-1E+10	1	-1E+10	1	-1E+10	1	-1E+10	1	-1E+10	1	-1E+10	1
4901784	145	C	06/24/2019	10:43	-132.321	42.844	0	317.10	0	6.3280	0	35.6370	8	28.017	0	314.347	0	111.0	4	37.4	4	-1E+10	1	-1E+10	1	-1E+10	1	-1E+10	1	-1E+10	1	-1E+10	1
4901784	145	C	06/24/2019	10:43	-132.321	42.844	0	319.90	0	6.3140	0	35.6370	8	28.019	0	317.121	0	110.2	4	37.1	4	-1E+10	1	-1E+10	1	-1E+10	1	-1E+10	1	-1E+10	1	-1E+10	1
4901784	145	C	06/24/2019	10:43	-132.321	42.844	0	322.60	0	6.3030	0	35.6360	8	28.020	0	319.795	0	109.2	4	36.8	4	-1E+10	1	-1E+10	1	-1E+10	1	-1E+10	1	-1E+10	1	-1E+10	1
4901784	145	C	06/24/2019	10:43	-132.321	42.844	0	325.20	0	6.2710	0	35.6360	8	28.024	0	322.371	0	107.8	4	36.3	4	-1E+10	1	-1E+10	1	-1E+10	1	-1E+10	1	-1E+10	1	-1E+10	1
4901784	145	C	06/24/2019	10:43	-132.321	42.844	0	327.80	0	6.2120	0	35.6370	8	28.033	0	324.946	0	106.0	4	35.7	4	-1E+10	1	-1E+10	1	-1E+10	1	-1E+10	1	-1E+10	1	-1E+10	1
4901784	145	C	06/24/2019	10:43	-132.321	42.844	0	330.40	0	6.1560	0	35.6380	8	28.041	0	327.521	0	104.6	4	35.1	4	-1E+10	1	-1E+10	1	-1E+10	1	-1E+10	1	-1E+10	1	-1E+10	1
4901784	145	C	06/24/2019	10:43	-132.321	42.844	0	333.00	0	6.0930	0	35.6410	8	28.051	0	330.097	0	103.2	4	34.6	4	-1E+10	1	-1E+10	1	-1E+10	1	-1E+10	1	-1E+10	1	-1E+10	1
4901784	145	C	06/24/2019	10:43	-132.321	42.844	0	334.90	0	6.0740	0	35.6400	8	28.053	0	331.979	0	102.3	4	34.3	4	-1E+10	1	-1E+10	1	-1E+10	1	-1E+10	1	-1E+10	1	-1E+10	1
4901784	145	C	06/24/2019	10:43	-132.321	42.844	0	337.60	0	6.0230	0	35.6400	8	28.060	0	334.653	0	100.9	4	33.8	4	-1E+10	1	-1E+10	1	-1E+10	1	-1E+10	1	-1E+10	1	-1E+10	1
4901784	145	C	06/24/2019	10:43	-132.321	42.844	0	340.30	0	5.9810	0	35.6410	8	28.066	0	337.327	0	99.7	4	33.4	4	-1E+10	1	-1E+10	1	-1E+10	1	-1E+10	1	-1E+10	1	-1E+10	1
4901784	145	C	06/24/2019	10:43	-132.321	42.844	0	342.10	0	5.9400	0	35.6440	8	28.074	0	339.110	0	99.0	4	33.1	4	-1E+10	1	-1E+10	1	-1E+10	1	-1E+10	1	-1E+10	1	-1E+10	1
4901784	145	C	06/24/2019	10:43	-132.321	42.844	0	345.00	0	5.9150	0	35.6420	8	28.075	0	341.982	0	97.9	4	32.7	4	-1E+10	1	-1E+10	1	-1E+10	1	-1E+10	1	-1E+10	1	-1E+10	1
4901784	145	C	06/24/2019	10:43	-132.321	42.844	0	347.70	0	5.8620	0	35.6430	8	28.083	0	344.656	0	96.4	4	32.2	4	-1E+10	1	-1E+10	1	-1E+10	1	-1E+10	1	-1E+10	1	-1E+10	1
4901784	145	C	06/24/2019	10:43	-132.321	42.844	0	349.90	0	5.8240	0	35.6440	8	28.089	0	346.835	0	95.0	4	31.7	4	-1E+10	1	-1E+10	1	-1E+10	1	-1E+10	1	-1E+10	1	-1E+10	1
4901784	145	C	06/24/2019	10:43	-132.321	42.844	0	352.90	0	5.7510	0	35.6460	8	28.100	0	349.806	0	93.4	4	31.1	4	-1E+10	1	-1E+10	1	-1E+10	1	-1E+10	1	-1E+10	1	-1E+10	1
4901784	145	C	06/24/2019	10:43	-132.321	42.844	0	355.20	0	5.7080	0	35.6490	8	28.107	0	352.084	0	92.6	4	30.8	4	-1E+10	1	-1E+10	1	-1E+10	1	-1E+10	1	-1E+10	1	-1E+10	1
4901784	145	C	06/24/2019	10:43	-132.321	42.844	0	357.60	0	5.6880	0	35.6520	8	28.112	0	354.461	0	92.2	4	30.6	4	-1E+10	1	-1E+10	1	-1E+10	1	-1E+10	1	-1E+10	1	-1E+10	1
4901784	145	C	06/24/2019	10:43	-132.321	42.844	0	359.90	0	5.6860	0	35.6510	8	28.112	0	356.739	0	91.7	4	30.5	4	-1E+10	1	-1E+10	1	-1E+10	1	-1E+10	1	-1E+10	1	-1E+10	1
4901784	145	C	06/24/2019	10:43	-132.321	42.844	0	362.30	0	5.6730	0	35.6530	8	28.115	0	359.116	0	91.0	4	30.2	4	-1E+10	1	-1E+10	1	-1E+10	1	-1E+10	1	-1E+10	1	-1E+10	1
4901784	145	C	06/24/2019	10:43	-132.321	42.844	0	364.70	0	5.6550	0	35.6540	8	28.118	0	361.493	0	90.4	4	30.0	4	-1E+10	1	-1E+10	1	-1E+10	1	-1E+10	1	-1E+10	1	-1E+10	1
4901784	145	C	06/24/2019	10:43	-132.321	42.844	0	367.10	0	5.6500	0	35.6530	8	28.118	0	363.869	0	89.6	4	29.7	4	-1E+10	1	-1E+10	1	-1E+10	1	-1E+10	1	-1E+10	1	-1E+10	1
4901784	145	C	06/24/2019	10:43	-132.321	42.844	0	370.40	0	5.6020	0	35.6570	8	28.127	0	367.137	0	88.2	4	29.3	4	-1E+10	1	-1E+10	1	-1E+10	1	-1E+10	1	-1E+10	1	-1E+10	1
4901784	145	C	06/24/2019	10:43	-132.321	42.844	0	372.90	0	5.5790	0	35.6580	8	28.131	0	369.613	0	87.7	4	29.1	4	-1E+10	1	-1E+10	1	-1E+10	1	-1E+10	1	-1E+10	1	-1E+10	1
4901784	145	C	06/24/2019	10:43	-132.321	42.844	0	375.40	0	5.5670	0	35.6590	8	28.133	0	372.089	0	87.1	4	28.9	4	-1E+10	1	-1E+10	1	-1E+10	1	-1E+10	1	-1E+10	1	-1E+10	1
4901784	145	C	06/24/2019	10:43	-132.321	42.844	0	377.90	0	5.5640	0	35.6590	8	28.134	0	374.565	0	86.4	4	28.6	4	-1E+10	1	-1E+10	1	-1E+10	1	-1E+10	1	-1E+10	1	-1E+10	1
4901784	145	C	06/24/2019	10:43	-132.321	42.844	0	379.60	0	5.5390	0	35.6630	8	28.140	0	376.248	0	85.9	4	28.4	4	-1E+10	1	-1E+10	1	-1E+10	1	-1E+10	1	-1E+10	1	-1E+10	1
4901784	145	C	06/24/2019	10:43	-132.321	42.844	0	382.10	0	5.5160	0	35.6630	8	28.143	0	378.724	0	85.4	4	28.3	4	-1E+10	1	-1E+10	1	-1E+10	1	-1E+10	1	-1E+10	1	-1E+10	1
4901784	145	C	06/24/2019	10:43	-132.321	42.844	0	385.40	0	5.5030	0	35.6630	8	28.144	0	381.991	0	84.6	4	28.0	4	-1E+10	1	-1E+10	1	-1E+10	1	-1E+10	1	-1E+10	1	-1E+10	1
4901784	145	C	06/24/2019	10:43	-132.321	42.844	0	387.90	0	5.4880	0	35.6630	8	28.146	0	384.467	0	83.9	4	27.8	4	-1E+10	1	-1E+10	1	-1E+10	1	-1E+10	1	-1E+10	1	-1E+10	1
4901784	145	C	06/24/2019	10:43	-132.321	42.844	0	390.40	0	5.4520	0	35.6660	8	28.153	0	386.943	0	83.4	4	27.5	4	-1E+10	1	-1E+10	1	-1E+10	1	-1E+10	1	-1E+10	1	-1E+10	1
4901784	145	C	06/24/2019	10:43	-132.321	42.844	0	392.90	0	5.4380	0	35.6670	8	28.156	0	389.418	0	82.9	4	27.4	4	-1E+10	1	-1E+10	1	-1E+10	1	-1E+10	1	-1E+10	1	-1E+10	1
4901784	145	C	06/24/2019	10:43	-132.321	42.844	0	394.60	0	5.4350	0	35.6660	8	28.155	0	391.101	0	82.4	4	27.2	4	-1E+10	1	-1E+10	1	-1E+10	1	-1E+10	1	-1E+10	1	-1E+10	1
4901784	145	C	06/24/2019	10:43	-132.321	42.844	0	397.20	0	5.4020	0	35.6670	8	28.160	0	393.676	0	81.8	4	27.0	4	-1E+10	1	-1E+10	1	-1E+10	1	-1E+10	1	-1E+10	1	-1E+10	1
4901784	145	C	06/24/2019	10:43	-132.321	42.844	0	399.70	0	5.3850	0	35.6670	8	28.162	0	396.151	0	81.0	4	26.7	4	-1E+10	1	-1E+10	1	-1E+10	1	-1E+10	1	-1E+10	1	-1E+10	1
4901784	145	C	06/24/2019	10:43	-132.321	42.844	0	402.30	0	5.3440	0	35.6710	8	28.170	0	398.726	0	80.3	4	26.5	4	-1E+10	1	-1E+10	1	-1E+10	1	-1E+10	1	-1E+10	1	-1E+10	1
4901784	145	C	06/24/2019	10:43	-132.321	42.844	0	404.90	0	5.3250	0	35.6720	8	28.173	0	401.300	0	79.6	4	26.2	4	-1E+10	1	-1E+10	1	-1E+10	1	-1E+10	1	-1E+10	1	-1E+10	1
4901784	145	C	06/24/2019	10:43	-132.321	42.844	0	407.50	0	5.3110	0	35.6730	8	28.176	0	403.875	0	79.0	4	26.0	4	-1E+10	1	-1E+10	1	-1E+10	1	-1E+10	1	-1E+10	1	-1E+10	1
4901784	145	C	06/24/2019	10:43	-132.321	42.844	0	410.10	0	5.2900	0	35.6750	8	28.180	0	406.449	0	78.2	4	25.8	4	-1E+10	1	-1E+10	1	-1E+10	1	-1E+10	1	-1E+10	1	-1E+10	1
4901784	145	C	06/24/2019	10:43	-132.321	42.844	0	412.70	0	5.2800	0	35.6760	8	28.182	0	409.023	0	77.4	4	25.5	4	-1E+10	1	-1E+10	1	-1E+10	1	-1E+10	1	-1E+10	1	-1E+10	1
4901784	145	C	06/24/2019	10:43	-132.321	42.844	0	415.40	0	5.2700	0	35.6750	8	28.183	0	411.696	0	76.4	4	25.1	4	-1E+10	1	-1E+10	1	-1E+10	1	-1E+10	1	-1E+10	1	-1E+10	1
4901784	145	C	06/24/2019	10:43	-132.321	42.844	0	417.10	0	5.2430	0	35.6780	8	28.188	0	413.380	0	75.5	4	24.8	4	-1E+10	1	-1E+10	1	-1E+10	1	-1E+10	1	-1E+10	1	-1E+10	1
4901784	145	C	06/24/2019	10:43	-132.321	42.844	0	419.70	0	5.2180	0	35.6800	8	28.193	0	415.954	0	74.3	4	24.4	4	-1E+10	1	-1E+10	1	-1E+10	1	-1E+10	1	-1E+10	1	-1E+10	1
4901784	145	C	06/24/2019	10:43	-132.321	42.844	0	422.30	0	5.1780	0	35.6860	8	28.202	0	418.528	0	73.1	4	24.0	4	-1E+10	1	-1E+10	1	-1E+10	1	-1E+10	1	-1E+10	1	-1E+10	1
4901784	145	C	06/24/2019	10:43	-132.321	42.844	0	425.00	0	5.1550	0	35.6890	8	28.208	0	421.201	0	72.2	4	23.7	4	-1E+10	1	-1E+10	1	-1E+10	1	-1E+10	1	-1E+10	1	-1E+10	1
4901784	145	C	06/24/2019	10:43	-132.321	42.844	0	427.60	0	5.1510	0	35.6880	8	28.207	0	423.775	0	71.1	4	23.3	4	-1E+10	1	-1E+10	1	-1E+10	1	-1E+10	1	-1E+10	1	-1E+10	1
4901784	145	C	06/24/2019	10:43	-132.321	42.844	0	430.30	0	5.1120	0	35.6950	8	28.218	0	426.448	0	69.9	4	22.9	4	-1E+10	1	-1E+10	1	-1E+10	1	-1E+10	1	-1E+10	1	-1E+10	1
4901784	145	C	06/24/2019	10:43	-132.321	42.844	0	432.90	0	5.0900	0	35.6990	8	28.223	0	429.022	0	69.1	4	22.6	4	-1E+10	1	-1E+10	1	-1E+10	1	-1E+10	1	-1E+10	1	-1E+10	1
4901784	145	C	06/24/2019	10:43	-132.321	42.844	0	434.70	0	5.0830	0	35.6990	8	28.224	0	430.804	0	68.6	4	22.5	4	-1E+10	1	-1E+10	1	-1E+10	1	-1E+10	1	-1E+10	1	-1E+10	1
4901784	145	C	06/24/2019	10:43	-132.321	42.844	0	437.40	0	5.0660	0	35.7030	8	28.229	0	433.477	0	67.9	4	22.2	4	-1E+10	1	-1E+10	1	-1E+10	1	-1E+10	1	-1E+10	1	-1E+10	1
4901784	145	C	06/24/2019	10:43	-132.321	42.844	0	440.10	0	5.0580	0	35.7030	8	28.230	0	436.150	0	67.3	4	22.0	4	-1E+10	1	-1E+10	1	-1E+10	1	-1E+10	1	-1E+10	1	-1E+10	1
4901784	145	C	06/24/2019	10:43	-132.321	42.844	0	442.00	0	5.0530	0	35.7040	8	28.232	0	438.031	0	66.6	4	21.8	4	-1E+10	1	-1E+10	1	-1E+10	1	-1E+10	1	-1E+10	1	-1E+10	1
4901784	145	C	06/24/2019	10:43	-132.321	42.844	0	444.70	0	5.0340	0	35.7080	8	28.237	0	440.704	0	65.7	4	21.5	4	-1E+10	1	-1E+10	1	-1E+10	1	-1E+10	1	-1E+10	1	-1E+10	1
4901784	145	C	06/24/2019	10:43	-132.321	42.844	0	447.50	0	5.0170	0	35.7110	8	28.242	0	443.476	0	64.7	4	21.2	4	-1E+10	1	-1E+10	1	-1E+10	1	-1E+10	1	-1E+10	1	-1E+10	1
4901784	145	C	06/24/2019	10:43	-132.321	42.844	0	450.20	0	5.0040	0	35.7140	8	28.246	0	446.149	0	63.8	4	20.9	4	-1E+10	1	-1E+10	1	-1E+10	1	-1E+10	1	-1E+10	1	-1E+10	1
4901784	145	C	06/24/2019	10:43	-132.321	42.844	0	453.00	0	4.9910	0	35.7170	8	28.250	0	448.921	0	62.9	4	20.6	4	-1E+10	1	-1E+10	1	-1E+10	1	-1E+10	1	-1E+10	1	-1E+10	1
4901784	145	C	06/24/2019	10:43	-132.321	42.844	0	454.80	0	4.9880	0	35.7170	8	28.250	0	450.702	0	62.4	4	20.4	4	-1E+10	1	-1E+10	1	-1E+10	1	-1E+10	1	-1E+10	1	-1E+10	1
4901784	145	C	06/24/2019	10:43	-132.321	42.844	0	457.60	0	4.9780	0	35.7190	8	28.253	0	453.474	0	61.1	4	20.0	4	-1E+10	1	-1E+10	1	-1E+10	1	-1E+10	1	-1E+10	1	-1E+10	1
4901784	145	C	06/24/2019	10:43	-132.321	42.844	0	460.40	0	4.9640	0	35.7220	8	28.257	0	456.246	0	59.8	4	19.5	4	-1E+10	1	-1E+10	1	-1E+10	1	-1E+10	1	-1E+10	1	-1E+10	1
4901784	145	C	06/24/2019	10:43	-132.321	42.844	0	462.30	0	4.9510	0	35.7240	8	28.260	0	458.126	0	58.9	4	19.2	4	-1E+10	1	-1E+10	1	-1E+10	1	-1E+10	1	-1E+10	1	-1E+10	1
4901784	145	C	06/24/2019	10:43	-132.321	42.844	0	465.20	0	4.9180	0	35.7330	8	28.271	0	460.997	0	57.5	4	18.8	4	-1E+10	1	-1E+10	1	-1E+10	1	-1E+10	1	-1E+10	1	-1E+10	1
4901784	145	C	06/24/2019	10:43	-132.321	42.844	0	468.00	0	4.9110	0	35.7370	8	28.275	0	463.769	0	56.6	4	18.5	4	-1E+10	1	-1E+10	1	-1E+10	1	-1E+10	1	-1E+10	1	-1E+10	1
4901784	145	C	06/24/2019	10:43	-132.321	42.844	0	470.00	0	4.8960	0	35.7390	8	28.278	0	465.748	0	56.1	4	18.3	4	-1E+10	1	-1E+10	1	-1E+10	1	-1E+10	1	-1E+10	1	-1E+10	1
4901784	145	C	06/24/2019	10:43	-132.321	42.844	0	471.90	0	4.8920	0	35.7400	8	28.280	0	467.629	0	55.5	4	18.1	4	-1E+10	1	-1E+10	1	-1E+10	1	-1E+10	1	-1E+10	1	-1E+10	1
4901784	145	C	06/24/2019	10:43	-132.321	42.844	0	474.80	0	4.8830	0	35.7440	8	28.284	0	470.499	0	54.6	4	17.8	4	-1E+10	1	-1E+10	1	-1E+10	1	-1E+10	1	-1E+10	1	-1E+10	1
4901784	145	C	06/24/2019	10:43	-132.321	42.844	0	477.60	0	4.8740	0	35.7480	8	28.288	0	473.271	0	53.7	4	17.5	4	-1E+10	1	-1E+10	1	-1E+10	1	-1E+10	1	-1E+10	1	-1E+10	1
4901784	145	C	06/24/2019	10:43	-132.321	42.844	0	479.60	0	4.8680	0	35.7490	8	28.290	0	475.251	0	53.3	4	17.4	4	-1E+10	1	-1E+10	1	-1E+10	1	-1E+10	1	-1E+10	1	-1E+10	1
4901784	145	C	06/24/2019	10:43	-132.321	42.844	0	482.60	0	4.8640	0	35.7500	8	28.291	0	478.220	0	52.4	4	17.1	4	-1E+10	1	-1E+10	1	-1E+10	1	-1E+10	1	-1E+10	1	-1E+10	1
4901784	145	C	06/24/2019	10:43	-132.321	42.844	0	485.50	0	4.8550	0	35.7520	8	28.294	0	481.090	0	51.2	4	16.7	4	-1E+10	1	-1E+10	1	-1E+10	1	-1E+10	1	-1E+10	1	-1E+10	1
4901784	145	C	06/24/2019	10:43	-132.321	42.844	0	487.50	0	4.8490	0	35.7550	8	28.297	0	483.070	0	50.3	4	16.4	4	-1E+10	1	-1E+10	1	-1E+10	1	-1E+10	1	-1E+10	1	-1E+10	1
4901784	145	C	06/24/2019	10:43	-132.321	42.844	0	489.40	0	4.8410	0	35.7590	8	28.301	0	484.950	0	49.3	4	16.1	4	-1E+10	1	-1E+10	1	-1E+10	1	-1E+10	1	-1E+10	1	-1E+10	1
4901784	145	C	06/24/2019	10:43	-132.321	42.844	0	492.30	0	4.8360	0	35.7630	8	28.305	0	487.820	0	47.7	4	15.6	4	-1E+10	1	-1E+10	1	-1E+10	1	-1E+10	1	-1E+10	1	-1E+10	1
4901784	145	C	06/24/2019	10:43	-132.321	42.844	0	495.20	0	4.8300	0	35.7710	8	28.312	0	490.691	0	46.0	4	15.0	4	-1E+10	1	-1E+10	1	-1E+10	1	-1E+10	1	-1E+10	1	-1E+10	1
4901784	145	C	06/24/2019	10:43	-132.321	42.844	0	497.10	0	4.8430	0	35.7760	8	28.314	0	492.571	0	45.1	4	14.7	4	-1E+10	1	-1E+10	1	-1E+10	1	-1E+10	1	-1E+10	1	-1E+10	1
4901784	145	C	06/24/2019	10:43	-132.321	42.844	0	500.00	0	4.8360	0	35.7810	8	28.319	0	495.441	0	44.3	4	14.4	4	-1E+10	1	-1E+10	1	-1E+10	1	-1E+10	1	-1E+10	1	-1E+10	1
4901784	145	C	06/24/2019	10:43	-132.321	42.844	0	504.90	0	4.8270	0	35.7870	8	28.325	0	500.291	0	43.6	4	14.2	4	-1E+10	1	-1E+10	1	-1E+10	1	-1E+10	1	-1E+10	1	-1E+10	1
4901784	145	C	06/24/2019	10:43	-132.321	42.844	0	510.50	0	4.8190	0	35.7890	8	28.327	0	505.833	0	43.1	4	14.1	4	-1E+10	1	-1E+10	1	-1E+10	1	-1E+10	1	-1E+10	1	-1E+10	1
4901784	145	C	06/24/2019	10:43	-132.321	42.844	0	515.40	0	4.8180	0	35.7900	8	28.328	0	510.682	0	42.4	4	13.8	4	-1E+10	1	-1E+10	1	-1E+10	1	-1E+10	1	-1E+10	1	-1E+10	1
4901784	145	C	06/24/2019	10:43	-132.321	42.844	0	520.50	0	4.8150	0	35.7930	8	28.331	0	515.729	0	41.0	4	13.4	4	-1E+10	1	-1E+10	1	-1E+10	1	-1E+10	1	-1E+10	1	-1E+10	1
4901784	145	C	06/24/2019	10:43	-132.321	42.844	0	525.60	0	4.7950	0	35.8020	8	28.341	0	520.776	0	38.7	4	12.6	4	-1E+10	1	-1E+10	1	-1E+10	1	-1E+10	1	-1E+10	1	-1E+10	1
4901784	145	C	06/24/2019	10:43	-132.321	42.844	0	530.60	0	4.7750	0	35.8110	8	28.350	0	525.724	0	37.2	4	12.1	4	-1E+10	1	-1E+10	1	-1E+10	1	-1E+10	1	-1E+10	1	-1E+10	1
4901784	145	C	06/24/2019	10:43	-132.321	42.844	0	535.70	0	4.7620	0	35.8180	8	28.357	0	530.770	0	35.7	4	11.6	4	-1E+10	1	-1E+10	1	-1E+10	1	-1E+10	1	-1E+10	1	-1E+10	1
4901784	145	C	06/24/2019	10:43	-132.321	42.844	0	540.00	0	4.7630	0	35.8240	8	28.362	0	535.025	0	34.6	4	11.2	4	-1E+10	1	-1E+10	1	-1E+10	1	-1E+10	1	-1E+10	1	-1E+10	1
4901784	145	C	06/24/2019	10:43	-132.321	42.844	0	544.40	0	4.7400	0	35.8280	8	28.368	0	539.379	0	33.8	4	11.0	4	-1E+10	1	-1E+10	1	-1E+10	1	-1E+10	1	-1E+10	1	-1E+10	1
4901784	145	C	06/24/2019	10:43	-132.321	42.844	0	549.50	0	4.7170	0	35.8330	8	28.374	0	544.425	0	33.0	4	10.7	4	-1E+10	1	-1E+10	1	-1E+10	1	-1E+10	1	-1E+10	1	-1E+10	1
4901784	145	C	06/24/2019	10:43	-132.321	42.844	0	554.90	0	4.7030	0	35.8370	8	28.379	0	549.768	0	31.8	4	10.3	4	-1E+10	1	-1E+10	1	-1E+10	1	-1E+10	1	-1E+10	1	-1E+10	1
4901784	145	C	06/24/2019	10:43	-132.321	42.844	0	560.30	0	4.6860	0	35.8460	8	28.388	0	555.111	0	30.6	4	9.9	4	-1E+10	1	-1E+10	1	-1E+10	1	-1E+10	1	-1E+10	1	-1E+10	1
4901784	145	C	06/24/2019	10:43	-132.321	42.844	0	565.50	0	4.6800	0	35.8510	8	28.393	0	560.256	0	29.8	4	9.7	4	-1E+10	1	-1E+10	1	-1E+10	1	-1E+10	1	-1E+10	1	-1E+10	1
4901784	145	C	06/24/2019	10:43	-132.321	42.844	0	570.00	0	4.6700	0	35.8540	8	28.397	0	564.708	0	29.2	4	9.5	4	-1E+10	1	-1E+10	1	-1E+10	1	-1E+10	1	-1E+10	1	-1E+10	1
4901784	145	C	06/24/2019	10:43	-132.321	42.844	0	574.70	0	4.6510	0	35.8580	8	28.402	0	569.358	0	28.5	4	9.3	4	-1E+10	1	-1E+10	1	-1E+10	1	-1E+10	1	-1E+10	1	-1E+10	1
4901784	145	C	06/24/2019	10:43	-132.321	42.844	0	580.20	0	4.6340	0	35.8640	8	28.409	0	574.799	0	27.6	4	8.9	4	-1E+10	1	-1E+10	1	-1E+10	1	-1E+10	1	-1E+10	1	-1E+10	1
4901784	145	C	06/24/2019	10:43	-132.321	42.844	0	584.80	0	4.6240	0	35.8690	8	28.414	0	579.350	0	27.1	4	8.8	4	-1E+10	1	-1E+10	1	-1E+10	1	-1E+10	1	-1E+10	1	-1E+10	1
4901784	145	C	06/24/2019	10:43	-132.321	42.844	0	589.50	0	4.6150	0	35.8700	8	28.416	0	584.000	0	26.7	4	8.7	4	-1E+10	1	-1E+10	1	-1E+10	1	-1E+10	1	-1E+10	1	-1E+10	1
4901784	145	C	06/24/2019	10:43	-132.321	42.844	0	595.00	0	4.5840	0	35.8760	8	28.424	0	589.440	0	25.9	4	8.4	4	-1E+10	1	-1E+10	1	-1E+10	1	-1E+10	1	-1E+10	1	-1E+10	1
4901784	145	C	06/24/2019	10:43	-132.321	42.844	0	600.40	0	4.5690	0	35.8820	8	28.431	0	594.782	0	25.2	4	8.2	4	-1E+10	1	-1E+10	1	-1E+10	1	-1E+10	1	-1E+10	1	-1E+10	1
4901784	145	C	06/24/2019	10:43	-132.321	42.844	0	605.00	0	4.5640	0	35.8850	8	28.434	0	599.333	0	24.7	4	8.0	4	-1E+10	1	-1E+10	1	-1E+10	1	-1E+10	1	-1E+10	1	-1E+10	1
4901784	145	C	06/24/2019	10:43	-132.321	42.844	0	609.60	0	4.5610	0	35.8880	8	28.436	0	603.883	0	24.2	4	7.8	4	-1E+10	1	-1E+10	1	-1E+10	1	-1E+10	1	-1E+10	1	-1E+10	1
4901784	145	C	06/24/2019	10:43	-132.321	42.844	0	615.10	0	4.5430	0	35.8930	8	28.443	0	609.323	0	23.7	4	7.7	4	-1E+10	1	-1E+10	1	-1E+10	1	-1E+10	1	-1E+10	1	-1E+10	1
4901784	145	C	06/24/2019	10:43	-132.321	42.844	0	619.80	0	4.4960	0	35.8960	8	28.450	0	613.972	0	23.9	4	7.7	4	-1E+10	1	-1E+10	1	-1E+10	1	-1E+10	1	-1E+10	1	-1E+10	1
4901784	145	C	06/24/2019	10:43	-132.321	42.844	0	624.50	0	4.4380	0	35.8980	8	28.458	0	618.621	0	24.1	4	7.8	4	-1E+10	1	-1E+10	1	-1E+10	1	-1E+10	1	-1E+10	1	-1E+10	1
4901784	145	C	06/24/2019	10:43	-132.321	42.844	0	630.10	0	4.4040	0	35.9000	8	28.464	0	624.160	0	23.7	4	7.7	4	-1E+10	1	-1E+10	1	-1E+10	1	-1E+10	1	-1E+10	1	-1E+10	1
4901784	145	C	06/24/2019	10:43	-132.321	42.844	0	634.90	0	4.3860	0	35.9050	8	28.470	0	628.907	0	23.6	4	7.6	4	-1E+10	1	-1E+10	1	-1E+10	1	-1E+10	1	-1E+10	1	-1E+10	1
4901784	145	C	06/24/2019	10:43	-132.321	42.844	0	639.60	0	4.3560	0	35.9070	8	28.475	0	633.556	0	24.0	4	7.8	4	-1E+10	1	-1E+10	1	-1E+10	1	-1E+10	1	-1E+10	1	-1E+10	1
4901784	145	C	06/24/2019	10:43	-132.321	42.844	0	645.30	0	4.2820	0	35.9090	8	28.485	0	639.193	0	24.2	4	7.8	4	-1E+10	1	-1E+10	1	-1E+10	1	-1E+10	1	-1E+10	1	-1E+10	1
4901784	145	C	06/24/2019	10:43	-132.321	42.844	0	650.10	0	4.2580	0	35.9120	8	28.490	0	643.940	0	23.9	4	7.7	4	-1E+10	1	-1E+10	1	-1E+10	1	-1E+10	1	-1E+10	1	-1E+10	1
4901784	145	C	06/24/2019	10:43	-132.321	42.844	0	654.70	0	4.2420	0	35.9170	8	28.495	0	648.490	0	23.4	4	7.5	4	-1E+10	1	-1E+10	1	-1E+10	1	-1E+10	1	-1E+10	1	-1E+10	1
4901784	145	C	06/24/2019	10:43	-132.321	42.844	0	660.30	0	4.2280	0	35.9210	8	28.500	0	654.028	0	22.9	4	7.4	4	-1E+10	1	-1E+10	1	-1E+10	1	-1E+10	1	-1E+10	1	-1E+10	1
4901784	145	C	06/24/2019	10:43	-132.321	42.844	0	665.00	0	4.2320	0	35.9260	8	28.504	0	658.676	0	22.2	4	7.1	4	-1E+10	1	-1E+10	1	-1E+10	1	-1E+10	1	-1E+10	1	-1E+10	1
4901784	145	C	06/24/2019	10:43	-132.321	42.844	0	669.70	0	4.1890	0	35.9310	8	28.512	0	663.324	0	22.2	4	7.1	4	-1E+10	1	-1E+10	1	-1E+10	1	-1E+10	1	-1E+10	1	-1E+10	1
4901784	145	C	06/24/2019	10:43	-132.321	42.844	0	675.30	0	4.1720	0	35.9350	8	28.517	0	668.861	0	21.7	4	7.0	4	-1E+10	1	-1E+10	1	-1E+10	1	-1E+10	1	-1E+10	1	-1E+10	1
4901784	145	C	06/24/2019	10:43	-132.321	42.844	0	679.90	0	4.1640	0	35.9380	8	28.521	0	673.410	0	21.3	4	6.8	4	-1E+10	1	-1E+10	1	-1E+10	1	-1E+10	1	-1E+10	1	-1E+10	1
4901784	145	C	06/24/2019	10:43	-132.321	42.844	0	684.50	0	4.1440	0	35.9420	8	28.526	0	677.959	0	20.5	4	6.6	4	-1E+10	1	-1E+10	1	-1E+10	1	-1E+10	1	-1E+10	1	-1E+10	1
4901784	145	C	06/24/2019	10:43	-132.321	42.844	0	689.90	0	4.1390	0	35.9510	8	28.534	0	683.298	0	19.5	4	6.3	4	-1E+10	1	-1E+10	1	-1E+10	1	-1E+10	1	-1E+10	1	-1E+10	1
4901784	145	C	06/24/2019	10:43	-132.321	42.844	0	695.40	0	4.1280	0	35.9570	8	28.540	0	688.736	0	18.8	4	6.0	4	-1E+10	1	-1E+10	1	-1E+10	1	-1E+10	1	-1E+10	1	-1E+10	1
4901784	145	C	06/24/2019	10:43	-132.321	42.844	0	699.90	0	4.1210	0	35.9620	8	28.545	0	693.186	0	18.3	4	5.9	4	-1E+10	1	-1E+10	1	-1E+10	1	-1E+10	1	-1E+10	1	-1E+10	1
4901784	145	C	06/24/2019	10:43	-132.321	42.844	0	704.60	0	4.1160	0	35.9660	8	28.548	0	697.833	0	17.9	4	5.7	4	-1E+10	1	-1E+10	1	-1E+10	1	-1E+10	1	-1E+10	1	-1E+10	1
4901784	145	C	06/24/2019	10:43	-132.321	42.844	0	710.10	0	4.1080	0	35.9700	8	28.553	0	703.271	0	17.4	4	5.6	4	-1E+10	1	-1E+10	1	-1E+10	1	-1E+10	1	-1E+10	1	-1E+10	1
4901784	145	C	06/24/2019	10:43	-132.321	42.844	0	714.70	0	4.1110	0	35.9730	8	28.555	0	707.819	0	16.7	4	5.4	4	-1E+10	1	-1E+10	1	-1E+10	1	-1E+10	1	-1E+10	1	-1E+10	1
4901784	145	C	06/24/2019	10:43	-132.321	42.844	0	720.10	0	4.1520	0	35.9840	8	28.559	0	713.158	0	15.3	4	4.9	4	-1E+10	1	-1E+10	1	-1E+10	1	-1E+10	1	-1E+10	1	-1E+10	1
4901784	145	C	06/24/2019	10:43	-132.321	42.844	0	725.40	0	4.1820	0	35.9960	8	28.565	0	718.397	0	14.6	4	4.7	4	-1E+10	1	-1E+10	1	-1E+10	1	-1E+10	1	-1E+10	1	-1E+10	1
4901784	145	C	06/24/2019	10:43	-132.321	42.844	0	730.20	0	4.1620	0	36.0000	8	28.571	0	723.143	0	14.5	4	4.7	4	-1E+10	1	-1E+10	1	-1E+10	1	-1E+10	1	-1E+10	1	-1E+10	1
4901784	145	C	06/24/2019	10:43	-132.321	42.844	0	735.10	0	4.1320	0	36.0020	8	28.576	0	727.987	0	14.5	4	4.6	4	-1E+10	1	-1E+10	1	-1E+10	1	-1E+10	1	-1E+10	1	-1E+10	1
4901784	145	C	06/24/2019	10:43	-132.321	42.844	0	740.00	0	4.1110	0	36.0070	8	28.582	0	732.831	0	14.3	4	4.6	4	-1E+10	1	-1E+10	1	-1E+10	1	-1E+10	1	-1E+10	1	-1E+10	1
4901784	145	C	06/24/2019	10:43	-132.321	42.844	0	744.90	0	4.0640	0	36.0090	8	28.589	0	737.675	0	14.2	4	4.6	4	-1E+10	1	-1E+10	1	-1E+10	1	-1E+10	1	-1E+10	1	-1E+10	1
4901784	145	C	06/24/2019	10:43	-132.321	42.844	0	749.90	0	4.0650	0	36.0160	8	28.594	0	742.617	0	13.7	4	4.4	4	-1E+10	1	-1E+10	1	-1E+10	1	-1E+10	1	-1E+10	1	-1E+10	1
4901784	145	C	06/24/2019	10:43	-132.321	42.844	0	754.90	0	4.0730	0	36.0220	8	28.598	0	747.560	0	13.4	4	4.3	4	-1E+10	1	-1E+10	1	-1E+10	1	-1E+10	1	-1E+10	1	-1E+10	1
4901784	145	C	06/24/2019	10:43	-132.321	42.844	0	759.90	0	4.0470	0	36.0280	8	28.606	0	752.502	0	13.3	4	4.3	4	-1E+10	1	-1E+10	1	-1E+10	1	-1E+10	1	-1E+10	1	-1E+10	1
4901784	145	C	06/24/2019	10:43	-132.321	42.844	0	764.90	0	4.0310	0	36.0290	8	28.608	0	757.444	0	13.3	4	4.3	4	-1E+10	1	-1E+10	1	-1E+10	1	-1E+10	1	-1E+10	1	-1E+10	1
4901784	145	C	06/24/2019	10:43	-132.321	42.844	0	770.00	0	3.9890	0	36.0330	8	28.616	0	762.485	0	13.3	4	4.3	4	-1E+10	1	-1E+10	1	-1E+10	1	-1E+10	1	-1E+10	1	-1E+10	1
4901784	145	C	06/24/2019	10:43	-132.321	42.844	0	775.10	0	3.9420	0	36.0370	8	28.624	0	767.526	0	13.5	4	4.3	4	-1E+10	1	-1E+10	1	-1E+10	1	-1E+10	1	-1E+10	1	-1E+10	1
4901784	145	C	06/24/2019	10:43	-132.321	42.844	0	780.30	0	3.8930	0	36.0360	8	28.629	0	772.666	0	13.6	4	4.4	4	-1E+10	1	-1E+10	1	-1E+10	1	-1E+10	1	-1E+10	1	-1E+10	1
4901784	145	C	06/24/2019	10:43	-132.321	42.844	0	785.40	0	3.8730	0	36.0410	8	28.635	0	777.706	0	13.3	4	4.2	4	-1E+10	1	-1E+10	1	-1E+10	1	-1E+10	1	-1E+10	1	-1E+10	1
4901784	145	C	06/24/2019	10:43	-132.321	42.844	0	790.60	0	3.8540	0	36.0490	8	28.643	0	782.846	0	12.9	4	4.1	4	-1E+10	1	-1E+10	1	-1E+10	1	-1E+10	1	-1E+10	1	-1E+10	1
4901784	145	C	06/24/2019	10:43	-132.321	42.844	0	795.00	0	3.8590	0	36.0540	8	28.647	0	787.194	0	12.6	4	4.0	4	-1E+10	1	-1E+10	1	-1E+10	1	-1E+10	1	-1E+10	1	-1E+10	1
4901784	145	C	06/24/2019	10:43	-132.321	42.844	0	799.30	0	3.8720	0	36.0600	8	28.650	0	791.444	0	12.3	4	3.9	4	-1E+10	1	-1E+10	1	-1E+10	1	-1E+10	1	-1E+10	1	-1E+10	1
4901784	145	C	06/24/2019	10:43	-132.321	42.844	0	804.60	0	3.8510	0	36.0660	8	28.657	0	796.682	0	12.2	4	3.9	4	-1E+10	1	-1E+10	1	-1E+10	1	-1E+10	1	-1E+10	1	-1E+10	1
4901784	145	C	06/24/2019	10:43	-132.321	42.844	0	810.00	0	3.8190	0	36.0670	8	28.661	0	802.018	0	12.1	4	3.9	4	-1E+10	1	-1E+10	1	-1E+10	1	-1E+10	1	-1E+10	1	-1E+10	1
4901784	145	C	06/24/2019	10:43	-132.321	42.844	0	815.30	0	3.8110	0	36.0720	8	28.666	0	807.256	0	12.0	4	3.8	4	-1E+10	1	-1E+10	1	-1E+10	1	-1E+10	1	-1E+10	1	-1E+10	1
4901784	145	C	06/24/2019	10:43	-132.321	42.844	0	820.70	0	3.7950	0	36.0740	8	28.669	0	812.592	0	12.1	4	3.9	4	-1E+10	1	-1E+10	1	-1E+10	1	-1E+10	1	-1E+10	1	-1E+10	1
4901784	145	C	06/24/2019	10:43	-132.321	42.844	0	825.10	0	3.7610	0	36.0720	8	28.671	0	816.940	0	12.2	4	3.9	4	-1E+10	1	-1E+10	1	-1E+10	1	-1E+10	1	-1E+10	1	-1E+10	1
4901784	145	C	06/24/2019	10:43	-132.321	42.844	0	829.60	0	3.7430	0	36.0750	8	28.676	0	821.386	0	12.0	4	3.8	4	-1E+10	1	-1E+10	1	-1E+10	1	-1E+10	1	-1E+10	1	-1E+10	1
4901784	145	C	06/24/2019	10:43	-132.321	42.844	0	835.10	0	3.7250	0	36.0820	8	28.683	0	826.821	0	11.7	4	3.7	4	-1E+10	1	-1E+10	1	-1E+10	1	-1E+10	1	-1E+10	1	-1E+10	1
4901784	145	C	06/24/2019	10:43	-132.321	42.844	0	840.60	0	3.7280	0	36.0900	8	28.689	0	832.256	0	11.4	4	3.6	4	-1E+10	1	-1E+10	1	-1E+10	1	-1E+10	1	-1E+10	1	-1E+10	1
4901784	145	C	06/24/2019	10:43	-132.321	42.844	0	845.20	0	3.7300	0	36.0940	8	28.692	0	836.801	0	11.3	4	3.6	4	-1E+10	1	-1E+10	1	-1E+10	1	-1E+10	1	-1E+10	1	-1E+10	1
4901784	145	C	06/24/2019	10:43	-132.321	42.844	0	850.00	0	3.7310	0	36.0980	8	28.695	0	841.543	0	11.1	4	3.5	4	-1E+10	1	-1E+10	1	-1E+10	1	-1E+10	1	-1E+10	1	-1E+10	1
4901784	145	C	06/24/2019	10:43	-132.321	42.844	0	854.70	0	3.7380	0	36.1040	8	28.700	0	846.187	0	10.9	4	3.5	4	-1E+10	1	-1E+10	1	-1E+10	1	-1E+10	1	-1E+10	1	-1E+10	1
4901784	145	C	06/24/2019	10:43	-132.321	42.844	0	859.40	0	3.7410	0	36.1100	8	28.704	0	850.831	0	10.7	4	3.4	4	-1E+10	1	-1E+10	1	-1E+10	1	-1E+10	1	-1E+10	1	-1E+10	1
4901784	145	C	06/24/2019	10:43	-132.321	42.844	0	864.70	0	3.7310	0	36.1140	8	28.708	0	856.067	0	10.7	4	3.4	4	-1E+10	1	-1E+10	1	-1E+10	1	-1E+10	1	-1E+10	1	-1E+10	1
4901784	145	C	06/24/2019	10:43	-132.321	42.844	0	869.50	0	3.7160	0	36.1190	8	28.714	0	860.809	0	10.6	4	3.4	4	-1E+10	1	-1E+10	1	-1E+10	1	-1E+10	1	-1E+10	1	-1E+10	1
4901784	145	C	06/24/2019	10:43	-132.321	42.844	0	874.40	0	3.6990	0	36.1220	8	28.718	0	865.650	0	10.5	4	3.3	4	-1E+10	1	-1E+10	1	-1E+10	1	-1E+10	1	-1E+10	1	-1E+10	1
4901784	145	C	06/24/2019	10:43	-132.321	42.844	0	880.00	0	3.7080	0	36.1310	8	28.724	0	871.183	0	10.4	4	3.3	4	-1E+10	1	-1E+10	1	-1E+10	1	-1E+10	1	-1E+10	1	-1E+10	1
4901784	145	C	06/24/2019	10:43	-132.321	42.844	0	885.80	0	3.7180	0	36.1370	8	28.728	0	876.912	0	10.3	4	3.3	4	-1E+10	1	-1E+10	1	-1E+10	1	-1E+10	1	-1E+10	1	-1E+10	1
4901784	145	C	06/24/2019	10:43	-132.321	42.844	0	890.80	0	3.7100	0	36.1410	8	28.732	0	881.852	0	10.3	4	3.3	4	-1E+10	1	-1E+10	1	-1E+10	1	-1E+10	1	-1E+10	1	-1E+10	1
4901784	145	C	06/24/2019	10:43	-132.321	42.844	0	895.80	0	3.6930	0	36.1420	8	28.735	0	886.791	0	10.3	4	3.3	4	-1E+10	1	-1E+10	1	-1E+10	1	-1E+10	1	-1E+10	1	-1E+10	1
4901784	145	C	06/24/2019	10:43	-132.321	42.844	0	900.80	0	3.6740	0	36.1430	8	28.738	0	891.730	0	10.3	4	3.3	4	-1E+10	1	-1E+10	1	-1E+10	1	-1E+10	1	-1E+10	1	-1E+10	1
4901784	145	C	06/24/2019	10:43	-132.321	42.844	0	905.00	0	3.6570	0	36.1440	8	28.740	0	895.879	0	10.3	4	3.3	4	-1E+10	1	-1E+10	1	-1E+10	1	-1E+10	1	-1E+10	1	-1E+10	1
4901784	145	C	06/24/2019	10:43	-132.321	42.844	0	909.20	0	3.6290	0	36.1470	8	28.746	0	900.027	0	10.3	4	3.3	4	-1E+10	1	-1E+10	1	-1E+10	1	-1E+10	1	-1E+10	1	-1E+10	1
4901784	145	C	06/24/2019	10:43	-132.321	42.844	0	914.30	0	3.6140	0	36.1500	8	28.749	0	905.065	0	10.3	4	3.3	4	-1E+10	1	-1E+10	1	-1E+10	1	-1E+10	1	-1E+10	1	-1E+10	1
4901784	145	C	06/24/2019	10:43	-132.321	42.844	0	919.40	0	3.5980	0	36.1530	8	28.754	0	910.102	0	10.3	4	3.3	4	-1E+10	1	-1E+10	1	-1E+10	1	-1E+10	1	-1E+10	1	-1E+10	1
4901784	145	C	06/24/2019	10:43	-132.321	42.844	0	924.60	0	3.5810	0	36.1550	8	28.757	0	915.238	0	10.2	4	3.3	4	-1E+10	1	-1E+10	1	-1E+10	1	-1E+10	1	-1E+10	1	-1E+10	1
4901784	145	C	06/24/2019	10:43	-132.321	42.844	0	929.80	0	3.5750	0	36.1590	8	28.761	0	920.374	0	10.3	4	3.3	4	-1E+10	1	-1E+10	1	-1E+10	1	-1E+10	1	-1E+10	1	-1E+10	1
4901784	145	C	06/24/2019	10:43	-132.321	42.844	0	935.00	0	3.5620	0	36.1600	8	28.763	0	925.510	0	10.2	4	3.2	4	-1E+10	1	-1E+10	1	-1E+10	1	-1E+10	1	-1E+10	1	-1E+10	1
4901784	145	C	06/24/2019	10:43	-132.321	42.844	0	940.30	0	3.5640	0	36.1630	8	28.765	0	930.744	0	10.2	4	3.2	4	-1E+10	1	-1E+10	1	-1E+10	1	-1E+10	1	-1E+10	1	-1E+10	1
4901784	145	C	06/24/2019	10:43	-132.321	42.844	0	945.60	0	3.5610	0	36.1660	8	28.768	0	935.979	0	10.2	4	3.2	4	-1E+10	1	-1E+10	1	-1E+10	1	-1E+10	1	-1E+10	1	-1E+10	1
4901784	145	C	06/24/2019	10:43	-132.321	42.844	0	950.10	0	3.5540	0	36.1690	8	28.771	0	940.423	0	10.2	4	3.2	4	-1E+10	1	-1E+10	1	-1E+10	1	-1E+10	1	-1E+10	1	-1E+10	1
4901784	145	C	06/24/2019	10:43	-132.321	42.844	0	954.60	0	3.5470	0	36.1700	8	28.773	0	944.867	0	10.2	4	3.2	4	-1E+10	1	-1E+10	1	-1E+10	1	-1E+10	1	-1E+10	1	-1E+10	1
4901784	145	C	06/24/2019	10:43	-132.321	42.844	0	959.90	0	3.5400	0	36.1740	8	28.777	0	950.101	0	10.2	4	3.2	4	-1E+10	1	-1E+10	1	-1E+10	1	-1E+10	1	-1E+10	1	-1E+10	1
4901784	145	C	06/24/2019	10:43	-132.321	42.844	0	965.30	0	3.5350	0	36.1750	8	28.778	0	955.433	0	10.3	4	3.2	4	-1E+10	1	-1E+10	1	-1E+10	1	-1E+10	1	-1E+10	1	-1E+10	1
4901784	145	C	06/24/2019	10:43	-132.321	42.844	0	970.70	0	3.5240	0	36.1790	8	28.782	0	960.766	0	10.3	4	3.3	4	-1E+10	1	-1E+10	1	-1E+10	1	-1E+10	1	-1E+10	1	-1E+10	1
4901784	145	C	06/24/2019	10:43	-132.321	42.844	0	975.10	0	3.5160	0	36.1830	8	28.786	0	965.110	0	10.3	4	3.3	4	-1E+10	1	-1E+10	1	-1E+10	1	-1E+10	1	-1E+10	1	-1E+10	1
4901784	145	C	06/24/2019	10:43	-132.321	42.844	0	979.60	0	3.5040	0	36.1860	8	28.790	0	969.554	0	10.3	4	3.3	4	-1E+10	1	-1E+10	1	-1E+10	1	-1E+10	1	-1E+10	1	-1E+10	1
4901784	145	C	06/24/2019	10:43	-132.321	42.844	0	985.00	0	3.4920	0	36.1900	8	28.794	0	974.886	0	10.4	4	3.3	4	-1E+10	1	-1E+10	1	-1E+10	1	-1E+10	1	-1E+10	1	-1E+10	1
4901784	145	C	06/24/2019	10:43	-132.321	42.844	0	990.50	0	3.4830	0	36.1930	8	28.798	0	980.317	0	10.4	4	3.3	4	-1E+10	1	-1E+10	1	-1E+10	1	-1E+10	1	-1E+10	1	-1E+10	1
4901784	145	C	06/24/2019	10:43	-132.321	42.844	0	995.00	0	3.4760	0	36.1960	8	28.801	0	984.760	0	10.4	4	3.3	4	-1E+10	1	-1E+10	1	-1E+10	1	-1E+10	1	-1E+10	1	-1E+10	1
4901784	145	C	06/24/2019	10:43	-132.321	42.844	0	999.60	0	3.4650	0	36.2000	8	28.805	0	989.302	0	10.5	4	3.3	4	-1E+10	1	-1E+10	1	-1E+10	1	-1E+10	1	-1E+10	1	-1E+10	1
4901784	145	C	06/24/2019	10:43	-132.321	42.844	0	1005.20	0	3.4510	0	36.2040	8	28.810	0	994.831	0	10.6	4	3.3	4	-1E+10	1	-1E+10	1	-1E+10	1	-1E+10	1	-1E+10	1	-1E+10	1
4901784	145	C	06/24/2019	10:43	-132.321	42.844	0	1009.80	0	3.4360	0	36.2070	8	28.814	0	999.372	0	10.6	4	3.4	4	-1E+10	1	-1E+10	1	-1E+10	1	-1E+10	1	-1E+10	1	-1E+10	1
4901784	145	C	06/24/2019	10:43	-132.321	42.844	0	1014.50	0	3.4240	0	36.2100	8	28.817	0	1004.012	0	10.7	4	3.4	4	-1E+10	1	-1E+10	1	-1E+10	1	-1E+10	1	-1E+10	1	-1E+10	1
4901784	145	C	06/24/2019	10:43	-132.321	42.844	0	1020.20	0	3.4180	0	36.2130	8	28.820	0	1009.640	0	10.8	4	3.4	4	-1E+10	1	-1E+10	1	-1E+10	1	-1E+10	1	-1E+10	1	-1E+10	1
4901784	145	C	06/24/2019	10:43	-132.321	42.844	0	1025.00	0	3.4100	0	36.2160	8	28.824	0	1014.379	0	10.8	4	3.4	4	-1E+10	1	-1E+10	1	-1E+10	1	-1E+10	1	-1E+10	1	-1E+10	1
4901784	145	C	06/24/2019	10:43	-132.321	42.844	0	1029.80	0	3.4000	0	36.2190	8	28.827	0	1019.117	0	10.9	4	3.4	4	-1E+10	1	-1E+10	1	-1E+10	1	-1E+10	1	-1E+10	1	-1E+10	1
4901784	145	C	06/24/2019	10:43	-132.321	42.844	0	1034.50	0	3.3970	0	36.2200	8	28.828	0	1023.757	0	10.9	4	3.5	4	-1E+10	1	-1E+10	1	-1E+10	1	-1E+10	1	-1E+10	1	-1E+10	1
4901784	145	C	06/24/2019	10:43	-132.321	42.844	0	1039.20	0	3.3900	0	36.2210	8	28.830	0	1028.397	0	11.0	4	3.5	4	-1E+10	1	-1E+10	1	-1E+10	1	-1E+10	1	-1E+10	1	-1E+10	1
4901784	145	C	06/24/2019	10:43	-132.321	42.844	0	1044.60	0	3.3770	0	36.2240	8	28.833	0	1033.727	0	11.1	4	3.5	4	-1E+10	1	-1E+10	1	-1E+10	1	-1E+10	1	-1E+10	1	-1E+10	1
4901784	145	C	06/24/2019	10:43	-132.321	42.844	0	1049.40	0	3.3680	0	36.2260	8	28.836	0	1038.465	0	11.1	4	3.5	4	-1E+10	1	-1E+10	1	-1E+10	1	-1E+10	1	-1E+10	1	-1E+10	1
4901784	145	C	06/24/2019	10:43	-132.321	42.844	0	1054.30	0	3.3570	0	36.2290	8	28.839	0	1043.302	0	11.2	4	3.5	4	-1E+10	1	-1E+10	1	-1E+10	1	-1E+10	1	-1E+10	1	-1E+10	1
4901784	145	C	06/24/2019	10:43	-132.321	42.844	0	1059.30	0	3.3460	0	36.2310	8	28.842	0	1048.237	0	11.3	4	3.6	4	-1E+10	1	-1E+10	1	-1E+10	1	-1E+10	1	-1E+10	1	-1E+10	1
4901784	145	C	06/24/2019	10:43	-132.321	42.844	0	1064.30	0	3.3290	0	36.2340	8	28.846	0	1053.173	0	11.4	4	3.6	4	-1E+10	1	-1E+10	1	-1E+10	1	-1E+10	1	-1E+10	1	-1E+10	1
4901784	145	C	06/24/2019	10:43	-132.321	42.844	0	1069.40	0	3.3150	0	36.2380	8	28.851	0	1058.207	0	11.5	4	3.6	4	-1E+10	1	-1E+10	1	-1E+10	1	-1E+10	1	-1E+10	1	-1E+10	1
4901784	145	C	06/24/2019	10:43	-132.321	42.844	0	1074.40	0	3.3040	0	36.2410	8	28.854	0	1063.142	0	11.5	4	3.6	4	-1E+10	1	-1E+10	1	-1E+10	1	-1E+10	1	-1E+10	1	-1E+10	1
4901784	145	C	06/24/2019	10:43	-132.321	42.844	0	1079.50	0	3.3010	0	36.2420	8	28.856	0	1068.175	0	11.6	4	3.6	4	-1E+10	1	-1E+10	1	-1E+10	1	-1E+10	1	-1E+10	1	-1E+10	1
4901784	145	C	06/24/2019	10:43	-132.321	42.844	0	1084.50	0	3.2990	0	36.2430	8	28.857	0	1073.110	0	11.6	4	3.7	4	-1E+10	1	-1E+10	1	-1E+10	1	-1E+10	1	-1E+10	1	-1E+10	1
4901784	145	C	06/24/2019	10:43	-132.321	42.844	0	1089.60	0	3.2830	0	36.2460	8	28.861	0	1078.143	0	11.7	4	3.7	4	-1E+10	1	-1E+10	1	-1E+10	1	-1E+10	1	-1E+10	1	-1E+10	1
4901784	145	C	06/24/2019	10:43	-132.321	42.844	0	1094.80	0	3.2700	0	36.2490	8	28.864	0	1083.275	0	11.8	4	3.7	4	-1E+10	1	-1E+10	1	-1E+10	1	-1E+10	1	-1E+10	1	-1E+10	1
4901784	145	C	06/24/2019	10:43	-132.321	42.844	0	1099.90	0	3.2620	0	36.2510	8	28.867	0	1088.308	0	11.8	4	3.7	4	-1E+10	1	-1E+10	1	-1E+10	1	-1E+10	1	-1E+10	1	-1E+10	1
4901784	145	C	06/24/2019	10:43	-132.321	42.844	0	1105.10	0	3.2590	0	36.2520	8	28.868	0	1093.440	0	11.9	4	3.8	4	-1E+10	1	-1E+10	1	-1E+10	1	-1E+10	1	-1E+10	1	-1E+10	1
4901784	145	C	06/24/2019	10:43	-132.321	42.844	0	1110.30	0	3.2560	0	36.2540	8	28.870	0	1098.571	0	12.1	4	3.8	4	-1E+10	1	-1E+10	1	-1E+10	1	-1E+10	1	-1E+10	1	-1E+10	1
4901784	145	C	06/24/2019	10:43	-132.321	42.844	0	1115.50	0	3.2520	0	36.2570	8	28.873	0	1103.703	0	12.3	4	3.9	4	-1E+10	1	-1E+10	1	-1E+10	1	-1E+10	1	-1E+10	1	-1E+10	1
4901784	145	C	06/24/2019	10:43	-132.321	42.844	0	1120.70	0	3.2330	0	36.2610	8	28.878	0	1108.834	0	12.3	4	3.9	4	-1E+10	1	-1E+10	1	-1E+10	1	-1E+10	1	-1E+10	1	-1E+10	1
4901784	145	C	06/24/2019	10:43	-132.321	42.844	0	1125.10	0	3.2250	0	36.2620	8	28.879	0	1113.176	0	12.4	4	3.9	4	-1E+10	1	-1E+10	1	-1E+10	1	-1E+10	1	-1E+10	1	-1E+10	1
4901784	145	C	06/24/2019	10:43	-132.321	42.844	0	1129.40	0	3.2140	0	36.2640	8	28.882	0	1117.419	0	12.5	4	3.9	4	-1E+10	1	-1E+10	1	-1E+10	1	-1E+10	1	-1E+10	1	-1E+10	1
4901784	145	C	06/24/2019	10:43	-132.321	42.844	0	1134.70	0	3.2050	0	36.2670	8	28.885	0	1122.648	0	12.7	4	4.0	4	-1E+10	1	-1E+10	1	-1E+10	1	-1E+10	1	-1E+10	1	-1E+10	1
4901784	145	C	06/24/2019	10:43	-132.321	42.844	0	1140.00	0	3.2020	0	36.2700	8	28.888	0	1127.878	0	12.9	4	4.1	4	-1E+10	1	-1E+10	1	-1E+10	1	-1E+10	1	-1E+10	1	-1E+10	1
4901784	145	C	06/24/2019	10:43	-132.321	42.844	0	1145.30	0	3.1990	0	36.2710	8	28.889	0	1133.107	0	12.9	4	4.1	4	-1E+10	1	-1E+10	1	-1E+10	1	-1E+10	1	-1E+10	1	-1E+10	1
4901784	145	C	06/24/2019	10:43	-132.321	42.844	0	1150.60	0	3.1880	0	36.2720	8	28.891	0	1138.337	0	13.0	4	4.1	4	-1E+10	1	-1E+10	1	-1E+10	1	-1E+10	1	-1E+10	1	-1E+10	1
4901784	145	C	06/24/2019	10:43	-132.321	42.844	0	1155.00	0	3.1790	0	36.2740	8	28.894	0	1142.678	0	13.2	4	4.2	4	-1E+10	1	-1E+10	1	-1E+10	1	-1E+10	1	-1E+10	1	-1E+10	1
4901784	145	C	06/24/2019	10:43	-132.321	42.844	0	1159.50	0	3.1590	0	36.2780	8	28.899	0	1147.117	0	13.4	4	4.2	4	-1E+10	1	-1E+10	1	-1E+10	1	-1E+10	1	-1E+10	1	-1E+10	1
4901784	145	C	06/24/2019	10:43	-132.321	42.844	0	1164.80	0	3.1440	0	36.2810	8	28.903	0	1152.346	0	13.5	4	4.3	4	-1E+10	1	-1E+10	1	-1E+10	1	-1E+10	1	-1E+10	1	-1E+10	1
4901784	145	C	06/24/2019	10:43	-132.321	42.844	0	1170.20	0	3.1180	0	36.2850	8	28.908	0	1157.674	0	13.6	4	4.3	4	-1E+10	1	-1E+10	1	-1E+10	1	-1E+10	1	-1E+10	1	-1E+10	1
4901784	145	C	06/24/2019	10:43	-132.321	42.844	0	1175.60	0	3.1120	0	36.2860	8	28.910	0	1163.001	0	13.7	4	4.3	4	-1E+10	1	-1E+10	1	-1E+10	1	-1E+10	1	-1E+10	1	-1E+10	1
4901784	145	C	06/24/2019	10:43	-132.321	42.844	0	1180.10	0	3.1050	0	36.2870	8	28.911	0	1167.440	0	13.9	4	4.4	4	-1E+10	1	-1E+10	1	-1E+10	1	-1E+10	1	-1E+10	1	-1E+10	1
4901784	145	C	06/24/2019	10:43	-132.321	42.844	0	1184.60	0	3.0970	0	36.2900	8	28.915	0	1171.879	0	14.1	4	4.4	4	-1E+10	1	-1E+10	1	-1E+10	1	-1E+10	1	-1E+10	1	-1E+10	1
4901784	145	C	06/24/2019	10:43	-132.321	42.844	0	1190.10	0	3.0830	0	36.2930	8	28.918	0	1177.305	0	14.3	4	4.5	4	-1E+10	1	-1E+10	1	-1E+10	1	-1E+10	1	-1E+10	1	-1E+10	1
4901784	145	C	06/24/2019	10:43	-132.321	42.844	0	1195.50	0	3.0750	0	36.2950	8	28.921	0	1182.632	0	14.4	4	4.5	4	-1E+10	1	-1E+10	1	-1E+10	1	-1E+10	1	-1E+10	1	-1E+10	1
4901784	145	C	06/24/2019	10:43	-132.321	42.844	0	1200.10	0	3.0650	0	36.2960	8	28.922	0	1187.169	0	14.5	4	4.5	4	-1E+10	1	-1E+10	1	-1E+10	1	-1E+10	1	-1E+10	1	-1E+10	1
4901784	145	C	06/24/2019	10:43	-132.321	42.844	0	1204.70	0	3.0540	0	36.2980	8	28.925	0	1191.707	0	14.6	4	4.6	4	-1E+10	1	-1E+10	1	-1E+10	1	-1E+10	1	-1E+10	1	-1E+10	1
4901784	145	C	06/24/2019	10:43	-132.321	42.844	0	1210.20	0	3.0360	0	36.3010	8	28.929	0	1197.132	0	14.7	4	4.6	4	-1E+10	1	-1E+10	1	-1E+10	1	-1E+10	1	-1E+10	1	-1E+10	1
4901784	145	C	06/24/2019	10:43	-132.321	42.844	0	1214.70	0	3.0270	0	36.3030	8	28.932	0	1201.570	0	14.8	4	4.6	4	-1E+10	1	-1E+10	1	-1E+10	1	-1E+10	1	-1E+10	1	-1E+10	1
4901784	145	C	06/24/2019	10:43	-132.321	42.844	0	1219.40	0	3.0210	0	36.3040	8	28.933	0	1206.206	0	14.9	4	4.7	4	-1E+10	1	-1E+10	1	-1E+10	1	-1E+10	1	-1E+10	1	-1E+10	1
4901784	145	C	06/24/2019	10:43	-132.321	42.844	0	1224.90	0	3.0100	0	36.3060	8	28.936	0	1211.631	0	15.1	4	4.7	4	-1E+10	1	-1E+10	1	-1E+10	1	-1E+10	1	-1E+10	1	-1E+10	1
4901784	145	C	06/24/2019	10:43	-132.321	42.844	0	1230.50	0	2.9990	0	36.3080	8	28.939	0	1217.154	0	15.2	4	4.8	4	-1E+10	1	-1E+10	1	-1E+10	1	-1E+10	1	-1E+10	1	-1E+10	1
4901784	145	C	06/24/2019	10:43	-132.321	42.844	0	1235.20	0	2.9920	0	36.3100	8	28.941	0	1221.789	0	15.4	4	4.8	4	-1E+10	1	-1E+10	1	-1E+10	1	-1E+10	1	-1E+10	1	-1E+10	1
4901784	145	C	06/24/2019	10:43	-132.321	42.844	0	1239.90	0	2.9910	0	36.3100	8	28.941	0	1226.424	0	15.4	4	4.8	4	-1E+10	1	-1E+10	1	-1E+10	1	-1E+10	1	-1E+10	1	-1E+10	1
4901784	145	C	06/24/2019	10:43	-132.321	42.844	0	1245.50	0	2.9800	0	36.3130	8	28.944	0	1231.947	0	15.6	4	4.9	4	-1E+10	1	-1E+10	1	-1E+10	1	-1E+10	1	-1E+10	1	-1E+10	1
4901784	145	C	06/24/2019	10:43	-132.321	42.844	0	1250.30	0	2.9710	0	36.3140	8	28.946	0	1236.681	0	15.8	4	4.9	4	-1E+10	1	-1E+10	1	-1E+10	1	-1E+10	1	-1E+10	1	-1E+10	1
4901784	145	C	06/24/2019	10:43	-132.321	42.844	0	1254.80	0	2.9560	0	36.3170	8	28.950	0	1241.119	0	16.0	4	5.0	4	-1E+10	1	-1E+10	1	-1E+10	1	-1E+10	1	-1E+10	1	-1E+10	1
4901784	145	C	06/24/2019	10:43	-132.321	42.844	0	1259.60	0	2.9430	0	36.3190	8	28.953	0	1245.852	0	16.2	4	5.1	4	-1E+10	1	-1E+10	1	-1E+10	1	-1E+10	1	-1E+10	1	-1E+10	1
4901784	145	C	06/24/2019	10:43	-132.321	42.844	0	1264.60	0	2.9270	0	36.3220	8	28.957	0	1250.783	0	16.4	4	5.1	4	-1E+10	1	-1E+10	1	-1E+10	1	-1E+10	1	-1E+10	1	-1E+10	1
4901784	145	C	06/24/2019	10:43	-132.321	42.844	0	1269.50	0	2.9230	0	36.3230	8	28.958	0	1255.614	0	16.6	4	5.2	4	-1E+10	1	-1E+10	1	-1E+10	1	-1E+10	1	-1E+10	1	-1E+10	1
4901784	145	C	06/24/2019	10:43	-132.321	42.844	0	1274.50	0	2.9090	0	36.3260	8	28.962	0	1260.545	0	16.8	4	5.2	4	-1E+10	1	-1E+10	1	-1E+10	1	-1E+10	1	-1E+10	1	-1E+10	1
4901784	145	C	06/24/2019	10:43	-132.321	42.844	0	1279.50	0	2.8990	0	36.3270	8	28.964	0	1265.475	0	16.9	4	5.3	4	-1E+10	1	-1E+10	1	-1E+10	1	-1E+10	1	-1E+10	1	-1E+10	1
4901784	145	C	06/24/2019	10:43	-132.321	42.844	0	1284.60	0	2.8920	0	36.3290	8	28.966	0	1270.504	0	17.0	4	5.3	4	-1E+10	1	-1E+10	1	-1E+10	1	-1E+10	1	-1E+10	1	-1E+10	1
4901784	145	C	06/24/2019	10:43	-132.321	42.844	0	1289.70	0	2.8850	0	36.3310	8	28.968	0	1275.532	0	17.1	4	5.4	4	-1E+10	1	-1E+10	1	-1E+10	1	-1E+10	1	-1E+10	1	-1E+10	1
4901784	145	C	06/24/2019	10:43	-132.321	42.844	0	1294.70	0	2.8820	0	36.3310	8	28.968	0	1280.462	0	17.3	4	5.4	4	-1E+10	1	-1E+10	1	-1E+10	1	-1E+10	1	-1E+10	1	-1E+10	1
4901784	145	C	06/24/2019	10:43	-132.321	42.844	0	1299.70	0	2.8730	0	36.3330	8	28.971	0	1285.392	0	17.4	4	5.4	4	-1E+10	1	-1E+10	1	-1E+10	1	-1E+10	1	-1E+10	1	-1E+10	1
4901784	145	C	06/24/2019	10:43	-132.321	42.844	0	1304.70	0	2.8630	0	36.3350	8	28.973	0	1290.322	0	17.6	4	5.5	4	-1E+10	1	-1E+10	1	-1E+10	1	-1E+10	1	-1E+10	1	-1E+10	1
4901784	145	C	06/24/2019	10:43	-132.321	42.844	0	1309.80	0	2.8590	0	36.3360	8	28.975	0	1295.350	0	17.7	4	5.5	4	-1E+10	1	-1E+10	1	-1E+10	1	-1E+10	1	-1E+10	1	-1E+10	1
4901784	145	C	06/24/2019	10:43	-132.321	42.844	0	1315.00	0	2.8540	0	36.3370	8	28.976	0	1300.476	0	18.0	4	5.6	4	-1E+10	1	-1E+10	1	-1E+10	1	-1E+10	1	-1E+10	1	-1E+10	1
4901784	145	C	06/24/2019	10:43	-132.321	42.844	0	1320.10	0	2.8410	0	36.3390	8	28.979	0	1305.504	0	18.3	4	5.7	4	-1E+10	1	-1E+10	1	-1E+10	1	-1E+10	1	-1E+10	1	-1E+10	1
4901784	145	C	06/24/2019	10:43	-132.321	42.844	0	1325.40	0	2.8280	0	36.3420	8	28.982	0	1310.729	0	18.6	4	5.8	4	-1E+10	1	-1E+10	1	-1E+10	1	-1E+10	1	-1E+10	1	-1E+10	1
4901784	145	C	06/24/2019	10:43	-132.321	42.844	0	1330.70	0	2.8130	0	36.3450	8	28.986	0	1315.954	0	18.9	4	5.9	4	-1E+10	1	-1E+10	1	-1E+10	1	-1E+10	1	-1E+10	1	-1E+10	1
4901784	145	C	06/24/2019	10:43	-132.321	42.844	0	1335.10	0	2.8020	0	36.3470	8	28.989	0	1320.291	0	19.2	4	6.0	4	-1E+10	1	-1E+10	1	-1E+10	1	-1E+10	1	-1E+10	1	-1E+10	1
4901784	145	C	06/24/2019	10:43	-132.321	42.844	0	1340.10	0	2.7930	0	36.3480	8	28.991	0	1325.220	0	19.4	4	6.1	4	-1E+10	1	-1E+10	1	-1E+10	1	-1E+10	1	-1E+10	1	-1E+10	1
4901784	145	C	06/24/2019	10:43	-132.321	42.844	0	1344.90	0	2.7810	0	36.3510	8	28.994	0	1329.952	0	19.7	4	6.1	4	-1E+10	1	-1E+10	1	-1E+10	1	-1E+10	1	-1E+10	1	-1E+10	1
4901784	145	C	06/24/2019	10:43	-132.321	42.844	0	1349.50	0	2.7750	0	36.3520	8	28.996	0	1334.486	0	19.9	4	6.2	4	-1E+10	1	-1E+10	1	-1E+10	1	-1E+10	1	-1E+10	1	-1E+10	1
4901784	145	C	06/24/2019	10:43	-132.321	42.844	0	1354.90	0	2.7620	0	36.3550	8	28.999	0	1339.809	0	20.2	4	6.3	4	-1E+10	1	-1E+10	1	-1E+10	1	-1E+10	1	-1E+10	1	-1E+10	1
4901784	145	C	06/24/2019	10:43	-132.321	42.844	0	1360.40	0	2.7540	0	36.3560	8	29.001	0	1345.230	0	20.4	4	6.3	4	-1E+10	1	-1E+10	1	-1E+10	1	-1E+10	1	-1E+10	1	-1E+10	1
4901784	145	C	06/24/2019	10:43	-132.321	42.844	0	1365.20	0	2.7520	0	36.3570	8	29.002	0	1349.961	0	20.5	4	6.4	4	-1E+10	1	-1E+10	1	-1E+10	1	-1E+10	1	-1E+10	1	-1E+10	1
4901784	145	C	06/24/2019	10:43	-132.321	42.844	0	1370.40	0	2.7440	0	36.3590	8	29.004	0	1355.087	0	20.7	4	6.4	4	-1E+10	1	-1E+10	1	-1E+10	1	-1E+10	1	-1E+10	1	-1E+10	1
4901784	145	C	06/24/2019	10:43	-132.321	42.844	0	1375.70	0	2.7370	0	36.3600	8	29.006	0	1360.310	0	20.9	4	6.5	4	-1E+10	1	-1E+10	1	-1E+10	1	-1E+10	1	-1E+10	1	-1E+10	1
4901784	145	C	06/24/2019	10:43	-132.321	42.844	0	1380.10	0	2.7300	0	36.3620	8	29.008	0	1364.647	0	21.0	4	6.5	4	-1E+10	1	-1E+10	1	-1E+10	1	-1E+10	1	-1E+10	1	-1E+10	1
4901784	145	C	06/24/2019	10:43	-132.321	42.844	0	1384.40	0	2.7230	0	36.3630	8	29.009	0	1368.885	0	21.1	4	6.6	4	-1E+10	1	-1E+10	1	-1E+10	1	-1E+10	1	-1E+10	1	-1E+10	1
4901784	145	C	06/24/2019	10:43	-132.321	42.844	0	1389.70	0	2.7160	0	36.3640	8	29.011	0	1374.108	0	21.2	4	6.6	4	-1E+10	1	-1E+10	1	-1E+10	1	-1E+10	1	-1E+10	1	-1E+10	1
4901784	145	C	06/24/2019	10:43	-132.321	42.844	0	1395.00	0	2.7070	0	36.3650	8	29.012	0	1379.331	0	21.4	4	6.7	4	-1E+10	1	-1E+10	1	-1E+10	1	-1E+10	1	-1E+10	1	-1E+10	1
4901784	145	C	06/24/2019	10:43	-132.321	42.844	0	1400.20	0	2.6940	0	36.3670	8	29.015	0	1384.456	0	21.8	4	6.8	4	-1E+10	1	-1E+10	1	-1E+10	1	-1E+10	1	-1E+10	1	-1E+10	1
4901784	145	C	06/24/2019	10:43	-132.321	42.844	0	1405.40	0	2.6800	0	36.3700	8	29.019	0	1389.580	0	22.3	4	6.9	4	-1E+10	1	-1E+10	1	-1E+10	1	-1E+10	1	-1E+10	1	-1E+10	1
4901784	145	C	06/24/2019	10:43	-132.321	42.844	0	1410.60	0	2.6680	0	36.3720	8	29.022	0	1394.704	0	22.6	4	7.0	4	-1E+10	1	-1E+10	1	-1E+10	1	-1E+10	1	-1E+10	1	-1E+10	1
4901784	145	C	06/24/2019	10:43	-132.321	42.844	0	1415.10	0	2.6600	0	36.3740	8	29.024	0	1399.139	0	23.0	4	7.1	4	-1E+10	1	-1E+10	1	-1E+10	1	-1E+10	1	-1E+10	1	-1E+10	1
4901784	145	C	06/24/2019	10:43	-132.321	42.844	0	1419.50	0	2.6490	0	36.3760	8	29.027	0	1403.475	0	23.4	4	7.3	4	-1E+10	1	-1E+10	1	-1E+10	1	-1E+10	1	-1E+10	1	-1E+10	1
4901784	145	C	06/24/2019	10:43	-132.321	42.844	0	1424.80	0	2.6360	0	36.3790	8	29.030	0	1408.697	0	23.7	4	7.4	4	-1E+10	1	-1E+10	1	-1E+10	1	-1E+10	1	-1E+10	1	-1E+10	1
4901784	145	C	06/24/2019	10:43	-132.321	42.844	0	1430.10	0	2.6330	0	36.3790	8	29.031	0	1413.919	0	23.9	4	7.4	4	-1E+10	1	-1E+10	1	-1E+10	1	-1E+10	1	-1E+10	1	-1E+10	1
4901784	145	C	06/24/2019	10:43	-132.321	42.844	0	1435.50	0	2.6230	0	36.3810	8	29.033	0	1419.240	0	24.1	4	7.5	4	-1E+10	1	-1E+10	1	-1E+10	1	-1E+10	1	-1E+10	1	-1E+10	1
4901784	145	C	06/24/2019	10:43	-132.321	42.844	0	1440.00	0	2.6150	0	36.3830	8	29.036	0	1423.674	0	24.3	4	7.5	4	-1E+10	1	-1E+10	1	-1E+10	1	-1E+10	1	-1E+10	1	-1E+10	1
4901784	145	C	06/24/2019	10:43	-132.321	42.844	0	1444.50	0	2.6120	0	36.3830	8	29.036	0	1428.108	0	24.5	4	7.6	4	-1E+10	1	-1E+10	1	-1E+10	1	-1E+10	1	-1E+10	1	-1E+10	1
4901784	145	C	06/24/2019	10:43	-132.321	42.844	0	1450.00	0	2.6020	0	36.3850	8	29.038	0	1433.527	0	24.8	4	7.7	4	-1E+10	1	-1E+10	1	-1E+10	1	-1E+10	1	-1E+10	1	-1E+10	1
4901784	145	C	06/24/2019	10:43	-132.321	42.844	0	1455.40	0	2.5920	0	36.3870	8	29.041	0	1438.847	0	25.1	4	7.8	4	-1E+10	1	-1E+10	1	-1E+10	1	-1E+10	1	-1E+10	1	-1E+10	1
4901784	145	C	06/24/2019	10:43	-132.321	42.844	0	1460.00	0	2.5870	0	36.3880	8	29.042	0	1443.379	0	25.3	4	7.8	4	-1E+10	1	-1E+10	1	-1E+10	1	-1E+10	1	-1E+10	1	-1E+10	1
4901784	145	C	06/24/2019	10:43	-132.321	42.844	0	1464.60	0	2.5780	0	36.3900	8	29.045	0	1447.911	0	25.6	4	7.9	4	-1E+10	1	-1E+10	1	-1E+10	1	-1E+10	1	-1E+10	1	-1E+10	1
4901784	145	C	06/24/2019	10:43	-132.321	42.844	0	1470.10	0	2.5660	0	36.3920	8	29.047	0	1453.329	0	25.9	4	8.0	4	-1E+10	1	-1E+10	1	-1E+10	1	-1E+10	1	-1E+10	1	-1E+10	1
4901784	145	C	06/24/2019	10:43	-132.321	42.844	0	1474.70	0	2.5620	0	36.3930	8	29.049	0	1457.861	0	26.0	4	8.1	4	-1E+10	1	-1E+10	1	-1E+10	1	-1E+10	1	-1E+10	1	-1E+10	1
4901784	145	C	06/24/2019	10:43	-132.321	42.844	0	1479.30	0	2.5540	0	36.3940	8	29.050	0	1462.393	0	26.2	4	8.1	4	-1E+10	1	-1E+10	1	-1E+10	1	-1E+10	1	-1E+10	1	-1E+10	1
4901784	145	C	06/24/2019	10:43	-132.321	42.844	0	1484.50	0	2.5470	0	36.3960	8	29.052	0	1467.515	0	26.4	4	8.2	4	-1E+10	1	-1E+10	1	-1E+10	1	-1E+10	1	-1E+10	1	-1E+10	1
4901784	145	C	06/24/2019	10:43	-132.321	42.844	0	1489.70	0	2.5420	0	36.3970	8	29.054	0	1472.637	0	26.7	4	8.3	4	-1E+10	1	-1E+10	1	-1E+10	1	-1E+10	1	-1E+10	1	-1E+10	1
4901784	145	C	06/24/2019	10:43	-132.321	42.844	0	1494.80	0	2.5330	0	36.3980	8	29.055	0	1477.661	0	27.0	4	8.4	4	-1E+10	1	-1E+10	1	-1E+10	1	-1E+10	1	-1E+10	1	-1E+10	1
4901784	145	C	06/24/2019	10:43	-132.321	42.844	0	1500.10	0	2.5250	0	36.4000	8	29.058	0	1482.882	0	27.4	4	8.5	4	-1E+10	1	-1E+10	1	-1E+10	1	-1E+10	1	-1E+10	1	-1E+10	1
4901784	145	C	06/24/2019	10:43	-132.321	42.844	0	1505.30	0	2.5140	0	36.4010	8	29.059	0	1488.004	0	27.8	4	8.6	4	-1E+10	1	-1E+10	1	-1E+10	1	-1E+10	1	-1E+10	1	-1E+10	1
4901784	145	C	06/24/2019	10:43	-132.321	42.844	0	1510.60	0	2.5000	0	36.4040	8	29.063	0	1493.224	0	28.1	4	8.7	4	-1E+10	1	-1E+10	1	-1E+10	1	-1E+10	1	-1E+10	1	-1E+10	1
4901784	145	C	06/24/2019	10:43	-132.321	42.844	0	1515.00	0	2.4960	0	36.4050	8	29.064	0	1497.558	0	28.3	4	8.8	4	-1E+10	1	-1E+10	1	-1E+10	1	-1E+10	1	-1E+10	1	-1E+10	1
4901784	145	C	06/24/2019	10:43	-132.321	42.844	0	1519.50	0	2.4880	0	36.4060	8	29.066	0	1501.990	0	28.6	4	8.8	4	-1E+10	1	-1E+10	1	-1E+10	1	-1E+10	1	-1E+10	1	-1E+10	1
4901784	145	C	06/24/2019	10:43	-132.321	42.844	0	1524.80	0	2.4800	0	36.4080	8	29.068	0	1507.210	0	28.8	4	8.9	4	-1E+10	1	-1E+10	1	-1E+10	1	-1E+10	1	-1E+10	1	-1E+10	1
4901784	145	C	06/24/2019	10:43	-132.321	42.844	0	1530.20	0	2.4730	0	36.4090	8	29.070	0	1512.529	0	29.2	4	9.0	4	-1E+10	1	-1E+10	1	-1E+10	1	-1E+10	1	-1E+10	1	-1E+10	1
4901784	145	C	06/24/2019	10:43	-132.321	42.844	0	1535.50	0	2.4630	0	36.4110	8	29.072	0	1517.748	0	29.5	4	9.1	4	-1E+10	1	-1E+10	1	-1E+10	1	-1E+10	1	-1E+10	1	-1E+10	1
4901784	145	C	06/24/2019	10:43	-132.321	42.844	0	1540.00	0	2.4590	0	36.4120	8	29.073	0	1522.180	0	29.8	4	9.2	4	-1E+10	1	-1E+10	1	-1E+10	1	-1E+10	1	-1E+10	1	-1E+10	1
4901784	145	C	06/24/2019	10:43	-132.321	42.844	0	1544.60	0	2.4480	0	36.4130	8	29.075	0	1526.710	0	30.2	4	9.3	4	-1E+10	1	-1E+10	1	-1E+10	1	-1E+10	1	-1E+10	1	-1E+10	1
4901784	145	C	06/24/2019	10:43	-132.321	42.844	0	1550.10	0	2.4390	0	36.4150	8	29.078	0	1532.127	0	30.5	4	9.4	4	-1E+10	1	-1E+10	1	-1E+10	1	-1E+10	1	-1E+10	1	-1E+10	1
4901784	145	C	06/24/2019	10:43	-132.321	42.844	0	1555.60	0	2.4300	0	36.4160	8	29.079	0	1537.543	0	30.9	4	9.6	4	-1E+10	1	-1E+10	1	-1E+10	1	-1E+10	1	-1E+10	1	-1E+10	1
4901784	145	C	06/24/2019	10:43	-132.321	42.844	0	1560.10	0	2.4200	0	36.4180	8	29.082	0	1541.974	0	31.2	4	9.6	4	-1E+10	1	-1E+10	1	-1E+10	1	-1E+10	1	-1E+10	1	-1E+10	1
4901784	145	C	06/24/2019	10:43	-132.321	42.844	0	1564.70	0	2.4150	0	36.4190	8	29.083	0	1546.504	0	31.5	4	9.7	4	-1E+10	1	-1E+10	1	-1E+10	1	-1E+10	1	-1E+10	1	-1E+10	1
4901784	145	C	06/24/2019	10:43	-132.321	42.844	0	1570.30	0	2.4070	0	36.4200	8	29.085	0	1552.019	0	32.0	4	9.9	4	-1E+10	1	-1E+10	1	-1E+10	1	-1E+10	1	-1E+10	1	-1E+10	1
4901784	145	C	06/24/2019	10:43	-132.321	42.844	0	1574.90	0	2.3920	0	36.4230	8	29.088	0	1556.548	0	32.3	4	10.0	4	-1E+10	1	-1E+10	1	-1E+10	1	-1E+10	1	-1E+10	1	-1E+10	1
4901784	145	C	06/24/2019	10:43	-132.321	42.844	0	1579.60	0	2.3860	0	36.4250	8	29.090	0	1561.176	0	32.6	4	10.1	4	-1E+10	1	-1E+10	1	-1E+10	1	-1E+10	1	-1E+10	1	-1E+10	1
4901784	145	C	06/24/2019	10:43	-132.321	42.844	0	1584.90	0	2.3790	0	36.4260	8	29.092	0	1566.395	0	33.0	4	10.2	4	-1E+10	1	-1E+10	1	-1E+10	1	-1E+10	1	-1E+10	1	-1E+10	1
4901784	145	C	06/24/2019	10:43	-132.321	42.844	0	1589.20	0	2.3700	0	36.4280	8	29.094	0	1570.628	0	33.3	4	10.3	4	-1E+10	1	-1E+10	1	-1E+10	1	-1E+10	1	-1E+10	1	-1E+10	1
4901784	145	C	06/24/2019	10:43	-132.321	42.844	0	1594.20	0	2.3630	0	36.4300	8	29.097	0	1575.551	0	33.6	4	10.4	4	-1E+10	1	-1E+10	1	-1E+10	1	-1E+10	1	-1E+10	1	-1E+10	1
4901784	145	C	06/24/2019	10:43	-132.321	42.844	0	1600.00	0	2.3550	0	36.4310	8	29.098	0	1581.262	0	34.0	4	10.5	4	-1E+10	1	-1E+10	1	-1E+10	1	-1E+10	1	-1E+10	1	-1E+10	1
4901784	145	C	06/24/2019	10:43	-132.321	42.844	0	1605.00	0	2.3420	0	36.4330	8	29.101	0	1586.185	0	34.5	4	10.6	4	-1E+10	1	-1E+10	1	-1E+10	1	-1E+10	1	-1E+10	1	-1E+10	1
4901784	145	C	06/24/2019	10:43	-132.321	42.844	0	1609.20	0	2.3370	0	36.4340	8	29.102	0	1590.320	0	34.7	4	10.7	4	-1E+10	1	-1E+10	1	-1E+10	1	-1E+10	1	-1E+10	1	-1E+10	1
4901784	145	C	06/24/2019	10:43	-132.321	42.844	0	1614.30	0	2.3320	0	36.4350	8	29.103	0	1595.341	0	35.0	4	10.8	4	-1E+10	1	-1E+10	1	-1E+10	1	-1E+10	1	-1E+10	1	-1E+10	1
4901784	145	C	06/24/2019	10:43	-132.321	42.844	0	1619.30	0	2.3230	0	36.4370	8	29.106	0	1600.263	0	35.3	4	10.9	4	-1E+10	1	-1E+10	1	-1E+10	1	-1E+10	1	-1E+10	1	-1E+10	1
4901784	145	C	06/24/2019	10:43	-132.321	42.844	0	1624.40	0	2.3200	0	36.4380	8	29.107	0	1605.284	0	35.4	4	10.9	4	-1E+10	1	-1E+10	1	-1E+10	1	-1E+10	1	-1E+10	1	-1E+10	1
4901784	145	C	06/24/2019	10:43	-132.321	42.844	0	1629.50	0	2.3190	0	36.4380	8	29.107	0	1610.304	0	35.6	4	11.0	4	-1E+10	1	-1E+10	1	-1E+10	1	-1E+10	1	-1E+10	1	-1E+10	1
4901784	145	C	06/24/2019	10:43	-132.321	42.844	0	1634.60	0	2.3120	0	36.4390	8	29.108	0	1615.325	0	36.0	4	11.1	4	-1E+10	1	-1E+10	1	-1E+10	1	-1E+10	1	-1E+10	1	-1E+10	1
4901784	145	C	06/24/2019	10:43	-132.321	42.844	0	1639.80	0	2.3040	0	36.4410	8	29.111	0	1620.444	0	36.4	4	11.2	4	-1E+10	1	-1E+10	1	-1E+10	1	-1E+10	1	-1E+10	1	-1E+10	1
4901784	145	C	06/24/2019	10:43	-132.321	42.844	0	1645.00	0	2.2930	0	36.4430	8	29.113	0	1625.562	0	36.9	4	11.4	4	-1E+10	1	-1E+10	1	-1E+10	1	-1E+10	1	-1E+10	1	-1E+10	1
4901784	145	C	06/24/2019	10:43	-132.321	42.844	0	1650.20	0	2.2840	0	36.4450	8	29.116	0	1630.681	0	37.4	4	11.5	4	-1E+10	1	-1E+10	1	-1E+10	1	-1E+10	1	-1E+10	1	-1E+10	1
4901784	145	C	06/24/2019	10:43	-132.321	42.844	0	1655.40	0	2.2720	0	36.4460	8	29.118	0	1635.799	0	37.9	4	11.7	4	-1E+10	1	-1E+10	1	-1E+10	1	-1E+10	1	-1E+10	1	-1E+10	1
4901784	145	C	06/24/2019	10:43	-132.321	42.844	0	1660.60	0	2.2640	0	36.4480	8	29.120	0	1640.918	0	38.3	4	11.8	4	-1E+10	1	-1E+10	1	-1E+10	1	-1E+10	1	-1E+10	1	-1E+10	1
4901784	145	C	06/24/2019	10:43	-132.321	42.844	0	1665.00	0	2.2580	0	36.4490	8	29.121	0	1645.248	0	38.6	4	11.9	4	-1E+10	1	-1E+10	1	-1E+10	1	-1E+10	1	-1E+10	1	-1E+10	1
4901784	145	C	06/24/2019	10:43	-132.321	42.844	0	1669.40	0	2.2520	0	36.4500	8	29.123	0	1649.579	0	38.9	4	12.0	4	-1E+10	1	-1E+10	1	-1E+10	1	-1E+10	1	-1E+10	1	-1E+10	1
4901784	145	C	06/24/2019	10:43	-132.321	42.844	0	1674.70	0	2.2420	0	36.4520	8	29.125	0	1654.795	0	39.3	4	12.1	4	-1E+10	1	-1E+10	1	-1E+10	1	-1E+10	1	-1E+10	1	-1E+10	1
4901784	145	C	06/24/2019	10:43	-132.321	42.844	0	1680.00	0	2.2380	0	36.4530	8	29.126	0	1660.012	0	39.5	4	12.2	4	-1E+10	1	-1E+10	1	-1E+10	1	-1E+10	1	-1E+10	1	-1E+10	1
4901784	145	C	06/24/2019	10:43	-132.321	42.844	0	1685.30	0	2.2330	0	36.4540	8	29.128	0	1665.228	0	39.8	4	12.2	4	-1E+10	1	-1E+10	1	-1E+10	1	-1E+10	1	-1E+10	1	-1E+10	1
4901784	145	C	06/24/2019	10:43	-132.321	42.844	0	1690.50	0	2.2270	0	36.4560	8	29.130	0	1670.345	0	40.0	4	12.3	4	-1E+10	1	-1E+10	1	-1E+10	1	-1E+10	1	-1E+10	1	-1E+10	1
4901784	145	C	06/24/2019	10:43	-132.321	42.844	0	1695.70	0	2.2230	0	36.4570	8	29.131	0	1675.463	0	40.3	4	12.4	4	-1E+10	1	-1E+10	1	-1E+10	1	-1E+10	1	-1E+10	1	-1E+10	1
4901784	145	C	06/24/2019	10:43	-132.321	42.844	0	1700.00	0	2.2190	0	36.4580	8	29.132	0	1679.695	0	40.5	4	12.5	4	-1E+10	1	-1E+10	1	-1E+10	1	-1E+10	1	-1E+10	1	-1E+10	1
4901784	145	C	06/24/2019	10:43	-132.321	42.844	0	1704.40	0	2.2150	0	36.4590	8	29.133	0	1684.025	0	40.7	4	12.5	4	-1E+10	1	-1E+10	1	-1E+10	1	-1E+10	1	-1E+10	1	-1E+10	1
4901784	145	C	06/24/2019	10:43	-132.321	42.844	0	1709.60	0	2.2100	0	36.4600	8	29.134	0	1689.142	0	41.1	4	12.6	4	-1E+10	1	-1E+10	1	-1E+10	1	-1E+10	1	-1E+10	1	-1E+10	1
4901784	145	C	06/24/2019	10:43	-132.321	42.844	0	1714.80	0	2.2040	0	36.4610	8	29.136	0	1694.259	0	41.5	4	12.7	4	-1E+10	1	-1E+10	1	-1E+10	1	-1E+10	1	-1E+10	1	-1E+10	1
4901784	145	C	06/24/2019	10:43	-132.321	42.844	0	1720.00	0	2.1960	0	36.4620	8	29.137	0	1699.376	0	41.9	4	12.9	4	-1E+10	1	-1E+10	1	-1E+10	1	-1E+10	1	-1E+10	1	-1E+10	1
4901784	145	C	06/24/2019	10:43	-132.321	42.844	0	1725.20	0	2.1880	0	36.4640	8	29.140	0	1704.492	0	42.3	4	13.0	4	-1E+10	1	-1E+10	1	-1E+10	1	-1E+10	1	-1E+10	1	-1E+10	1
4901784	145	C	06/24/2019	10:43	-132.321	42.844	0	1730.30	0	2.1800	0	36.4660	8	29.142	0	1709.511	0	42.8	4	13.1	4	-1E+10	1	-1E+10	1	-1E+10	1	-1E+10	1	-1E+10	1	-1E+10	1
4901784	145	C	06/24/2019	10:43	-132.321	42.844	0	1735.60	0	2.1740	0	36.4670	8	29.143	0	1714.726	0	43.1	4	13.2	4	-1E+10	1	-1E+10	1	-1E+10	1	-1E+10	1	-1E+10	1	-1E+10	1
4901784	145	C	06/24/2019	10:43	-132.321	42.844	0	1740.00	0	2.1710	0	36.4680	8	29.144	0	1719.055	0	43.4	4	13.3	4	-1E+10	1	-1E+10	1	-1E+10	1	-1E+10	1	-1E+10	1	-1E+10	1
4901784	145	C	06/24/2019	10:43	-132.321	42.844	0	1744.40	0	2.1630	0	36.4700	8	29.147	0	1723.384	0	43.7	4	13.4	4	-1E+10	1	-1E+10	1	-1E+10	1	-1E+10	1	-1E+10	1	-1E+10	1
4901784	145	C	06/24/2019	10:43	-132.321	42.844	0	1749.80	0	2.1580	0	36.4710	8	29.148	0	1728.697	0	44.1	4	13.5	4	-1E+10	1	-1E+10	1	-1E+10	1	-1E+10	1	-1E+10	1	-1E+10	1
4901784	145	C	06/24/2019	10:43	-132.321	42.844	0	1755.00	0	2.1500	0	36.4720	8	29.149	0	1733.813	0	44.4	4	13.6	4	-1E+10	1	-1E+10	1	-1E+10	1	-1E+10	1	-1E+10	1	-1E+10	1
4901784	145	C	06/24/2019	10:43	-132.321	42.844	0	1760.30	0	2.1480	0	36.4730	8	29.151	0	1739.027	0	44.5	4	13.7	4	-1E+10	1	-1E+10	1	-1E+10	1	-1E+10	1	-1E+10	1	-1E+10	1
4901784	145	C	06/24/2019	10:43	-132.321	42.844	0	1765.60	0	2.1450	0	36.4740	8	29.152	0	1744.242	0	44.7	4	13.7	4	-1E+10	1	-1E+10	1	-1E+10	1	-1E+10	1	-1E+10	1	-1E+10	1
4901784	145	C	06/24/2019	10:43	-132.321	42.844	0	1770.00	0	2.1420	0	36.4750	8	29.153	0	1748.570	0	45.0	4	13.8	4	-1E+10	1	-1E+10	1	-1E+10	1	-1E+10	1	-1E+10	1	-1E+10	1
4901784	145	C	06/24/2019	10:43	-132.321	42.844	0	1774.40	0	2.1360	0	36.4760	8	29.154	0	1752.899	0	45.3	4	13.9	4	-1E+10	1	-1E+10	1	-1E+10	1	-1E+10	1	-1E+10	1	-1E+10	1
4901784	145	C	06/24/2019	10:43	-132.321	42.844	0	1779.70	0	2.1300	0	36.4770	8	29.155	0	1758.113	0	45.6	4	14.0	4	-1E+10	1	-1E+10	1	-1E+10	1	-1E+10	1	-1E+10	1	-1E+10	1
4901784	145	C	06/24/2019	10:43	-132.321	42.844	0	1785.10	0	2.1260	0	36.4780	8	29.157	0	1763.425	0	45.9	4	14.1	4	-1E+10	1	-1E+10	1	-1E+10	1	-1E+10	1	-1E+10	1	-1E+10	1
4901784	145	C	06/24/2019	10:43	-132.321	42.844	0	1790.50	0	2.1230	0	36.4790	8	29.158	0	1768.737	0	46.2	4	14.2	4	-1E+10	1	-1E+10	1	-1E+10	1	-1E+10	1	-1E+10	1	-1E+10	1
4901784	145	C	06/24/2019	10:43	-132.321	42.844	0	1795.10	0	2.1180	0	36.4800	8	29.159	0	1773.262	0	46.6	4	14.3	4	-1E+10	1	-1E+10	1	-1E+10	1	-1E+10	1	-1E+10	1	-1E+10	1
4901784	145	C	06/24/2019	10:43	-132.321	42.844	0	1799.70	0	2.1080	0	36.4820	8	29.161	0	1777.786	0	47.0	4	14.4	4	-1E+10	1	-1E+10	1	-1E+10	1	-1E+10	1	-1E+10	1	-1E+10	1
4901784	145	C	06/24/2019	10:43	-132.321	42.844	0	1805.50	0	2.1040	0	36.4830	8	29.163	0	1783.491	0	47.2	4	14.5	4	-1E+10	1	-1E+10	1	-1E+10	1	-1E+10	1	-1E+10	1	-1E+10	1
4901784	145	C	06/24/2019	10:43	-132.321	42.844	0	1810.80	0	2.1000	0	36.4840	8	29.164	0	1788.705	0	47.5	4	14.6	4	-1E+10	1	-1E+10	1	-1E+10	1	-1E+10	1	-1E+10	1	-1E+10	1
4901784	145	C	06/24/2019	10:43	-132.321	42.844	0	1815.70	0	2.0920	0	36.4850	8	29.165	0	1793.524	0	47.8	4	14.7	4	-1E+10	1	-1E+10	1	-1E+10	1	-1E+10	1	-1E+10	1	-1E+10	1
4901784	145	C	06/24/2019	10:43	-132.321	42.844	0	1820.70	0	2.0880	0	36.4860	8	29.166	0	1798.442	0	48.1	4	14.7	4	-1E+10	1	-1E+10	1	-1E+10	1	-1E+10	1	-1E+10	1	-1E+10	1
4901784	145	C	06/24/2019	10:43	-132.321	42.844	0	1825.80	0	2.0840	0	36.4870	8	29.168	0	1803.458	0	48.4	4	14.8	4	-1E+10	1	-1E+10	1	-1E+10	1	-1E+10	1	-1E+10	1	-1E+10	1
4901784	145	C	06/24/2019	10:43	-132.321	42.844	0	1830.80	0	2.0790	0	36.4880	8	29.169	0	1808.375	0	48.8	4	15.0	4	-1E+10	1	-1E+10	1	-1E+10	1	-1E+10	1	-1E+10	1	-1E+10	1
4901784	145	C	06/24/2019	10:43	-132.321	42.844	0	1835.80	0	2.0730	0	36.4890	8	29.170	0	1813.293	0	49.1	4	15.1	4	-1E+10	1	-1E+10	1	-1E+10	1	-1E+10	1	-1E+10	1	-1E+10	1
4901784	145	C	06/24/2019	10:43	-132.321	42.844	0	1840.00	0	2.0700	0	36.4900	8	29.171	0	1817.423	0	49.4	4	15.1	4	-1E+10	1	-1E+10	1	-1E+10	1	-1E+10	1	-1E+10	1	-1E+10	1
4901784	145	C	06/24/2019	10:43	-132.321	42.844	0	1844.20	0	2.0640	0	36.4910	8	29.173	0	1821.554	0	49.6	4	15.2	4	-1E+10	1	-1E+10	1	-1E+10	1	-1E+10	1	-1E+10	1	-1E+10	1
4901784	145	C	06/24/2019	10:43	-132.321	42.844	0	1849.30	0	2.0610	0	36.4920	8	29.174	0	1826.569	0	49.8	4	15.3	4	-1E+10	1	-1E+10	1	-1E+10	1	-1E+10	1	-1E+10	1	-1E+10	1
4901784	145	C	06/24/2019	10:43	-132.321	42.844	0	1854.50	0	2.0580	0	36.4930	8	29.175	0	1831.683	0	50.0	4	15.3	4	-1E+10	1	-1E+10	1	-1E+10	1	-1E+10	1	-1E+10	1	-1E+10	1
4901784	145	C	06/24/2019	10:43	-132.321	42.844	0	1859.70	0	2.0560	0	36.4930	8	29.175	0	1836.797	0	50.2	4	15.4	4	-1E+10	1	-1E+10	1	-1E+10	1	-1E+10	1	-1E+10	1	-1E+10	1
4901784	145	C	06/24/2019	10:43	-132.321	42.844	0	1865.00	0	2.0510	0	36.4940	8	29.176	0	1842.008	0	50.7	4	15.5	4	-1E+10	1	-1E+10	1	-1E+10	1	-1E+10	1	-1E+10	1	-1E+10	1
4901784	145	C	06/24/2019	10:43	-132.321	42.844	0	1870.30	0	2.0420	0	36.4960	8	29.179	0	1847.220	0	51.2	4	15.7	4	-1E+10	1	-1E+10	1	-1E+10	1	-1E+10	1	-1E+10	1	-1E+10	1
4901784	145	C	06/24/2019	10:43	-132.321	42.844	0	1875.60	0	2.0340	0	36.4970	8	29.180	0	1852.432	0	51.6	4	15.8	4	-1E+10	1	-1E+10	1	-1E+10	1	-1E+10	1	-1E+10	1	-1E+10	1
4901784	145	C	06/24/2019	10:43	-132.321	42.844	0	1880.00	0	2.0330	0	36.4990	8	29.182	0	1856.758	0	51.9	4	15.9	4	-1E+10	1	-1E+10	1	-1E+10	1	-1E+10	1	-1E+10	1	-1E+10	1
4901784	145	C	06/24/2019	10:43	-132.321	42.844	0	1884.40	0	2.0300	0	36.5000	8	29.183	0	1861.084	0	52.2	4	16.0	4	-1E+10	1	-1E+10	1	-1E+10	1	-1E+10	1	-1E+10	1	-1E+10	1
4901784	145	C	06/24/2019	10:43	-132.321	42.844	0	1889.60	0	2.0210	0	36.5010	8	29.184	0	1866.197	0	52.9	4	16.2	4	-1E+10	1	-1E+10	1	-1E+10	1	-1E+10	1	-1E+10	1	-1E+10	1
4901784	145	C	06/24/2019	10:43	-132.321	42.844	0	1895.00	0	2.0130	0	36.5030	8	29.187	0	1871.507	0	53.3	4	16.3	4	-1E+10	1	-1E+10	1	-1E+10	1	-1E+10	1	-1E+10	1	-1E+10	1
4901784	145	C	06/24/2019	10:43	-132.321	42.844	0	1900.20	0	2.0070	0	36.5040	8	29.188	0	1876.619	0	53.6	4	16.4	4	-1E+10	1	-1E+10	1	-1E+10	1	-1E+10	1	-1E+10	1	-1E+10	1
4901784	145	C	06/24/2019	10:43	-132.321	42.844	0	1905.40	0	2.0030	0	36.5050	8	29.189	0	1881.732	0	54.0	4	16.5	4	-1E+10	1	-1E+10	1	-1E+10	1	-1E+10	1	-1E+10	1	-1E+10	1
4901784	145	C	06/24/2019	10:43	-132.321	42.844	0	1910.20	0	2.0000	0	36.5060	8	29.190	0	1886.451	0	54.2	4	16.6	4	-1E+10	1	-1E+10	1	-1E+10	1	-1E+10	1	-1E+10	1	-1E+10	1
4901784	145	C	06/24/2019	10:43	-132.321	42.844	0	1915.00	0	1.9960	0	36.5070	8	29.191	0	1891.170	0	54.4	4	16.6	4	-1E+10	1	-1E+10	1	-1E+10	1	-1E+10	1	-1E+10	1	-1E+10	1
4901784	145	C	06/24/2019	10:43	-132.321	42.844	0	1919.90	0	1.9880	0	36.5080	8	29.193	0	1895.987	0	54.6	4	16.7	4	-1E+10	1	-1E+10	1	-1E+10	1	-1E+10	1	-1E+10	1	-1E+10	1
4901784	145	C	06/24/2019	10:43	-132.321	42.844	0	1924.80	0	1.9850	0	36.5080	8	29.193	0	1900.804	0	54.7	4	16.7	4	-1E+10	1	-1E+10	1	-1E+10	1	-1E+10	1	-1E+10	1	-1E+10	1
4901784	145	C	06/24/2019	10:43	-132.321	42.844	0	1929.70	0	1.9840	0	36.5090	8	29.194	0	1905.621	0	55.0	4	16.8	4	-1E+10	1	-1E+10	1	-1E+10	1	-1E+10	1	-1E+10	1	-1E+10	1
4901784	145	C	06/24/2019	10:43	-132.321	42.844	0	1934.70	0	1.9810	0	36.5100	8	29.195	0	1910.536	0	55.2	4	16.9	4	-1E+10	1	-1E+10	1	-1E+10	1	-1E+10	1	-1E+10	1	-1E+10	1
4901784	145	C	06/24/2019	10:43	-132.321	42.844	0	1939.70	0	1.9800	0	36.5110	8	29.196	0	1915.451	0	55.4	4	16.9	4	-1E+10	1	-1E+10	1	-1E+10	1	-1E+10	1	-1E+10	1	-1E+10	1
4901784	145	C	06/24/2019	10:43	-132.321	42.844	0	1944.80	0	1.9780	0	36.5120	8	29.197	0	1920.465	0	55.6	4	17.0	4	-1E+10	1	-1E+10	1	-1E+10	1	-1E+10	1	-1E+10	1	-1E+10	1
4901784	145	C	06/24/2019	10:43	-132.321	42.844	0	1949.80	0	1.9760	0	36.5130	8	29.198	0	1925.380	0	55.9	4	17.1	4	-1E+10	1	-1E+10	1	-1E+10	1	-1E+10	1	-1E+10	1	-1E+10	1
4901784	145	C	06/24/2019	10:43	-132.321	42.844	0	1954.90	0	1.9700	0	36.5130	8	29.199	0	1930.393	0	56.3	4	17.2	4	-1E+10	1	-1E+10	1	-1E+10	1	-1E+10	1	-1E+10	1	-1E+10	1
4901784	145	C	06/24/2019	10:43	-132.321	42.844	0	1960.10	0	1.9640	0	36.5150	8	29.201	0	1935.504	0	56.5	4	17.3	4	-1E+10	1	-1E+10	1	-1E+10	1	-1E+10	1	-1E+10	1	-1E+10	1
4901784	145	C	06/24/2019	10:43	-132.321	42.844	0	1965.40	0	1.9610	0	36.5160	8	29.202	0	1940.713	0	56.8	4	17.4	4	-1E+10	1	-1E+10	1	-1E+10	1	-1E+10	1	-1E+10	1	-1E+10	1
4901784	145	C	06/24/2019	10:43	-132.321	42.844	0	1970.60	0	1.9580	0	36.5160	8	29.202	0	1945.824	0	56.9	4	17.4	4	-1E+10	1	-1E+10	1	-1E+10	1	-1E+10	1	-1E+10	1	-1E+10	1
4901784	145	C	06/24/2019	10:43	-132.321	42.844	0	1975.00	0	1.9570	0	36.5170	8	29.203	0	1950.149	0	57.1	4	17.5	4	-1E+10	1	-1E+10	1	-1E+10	1	-1E+10	1	-1E+10	1	-1E+10	1
4901784	145	C	06/24/2019	10:43	-132.321	42.844	0	1979.50	0	1.9560	0	36.5170	8	29.203	0	1954.571	0	57.3	4	17.5	4	-1E+10	1	-1E+10	1	-1E+10	1	-1E+10	1	-1E+10	1	-1E+10	1
4901784	145	C	06/24/2019	10:43	-132.321	42.844	0	1984.90	0	1.9520	0	36.5180	8	29.204	0	1959.879	0	57.6	4	17.6	4	-1E+10	1	-1E+10	1	-1E+10	1	-1E+10	1	-1E+10	1	-1E+10	1
4901784	145	C	06/24/2019	10:43	-132.321	42.844	0	1990.30	0	1.9490	0	36.5190	8	29.205	0	1965.186	0	58.0	4	17.7	4	-1E+10	1	-1E+10	1	-1E+10	1	-1E+10	1	-1E+10	1	-1E+10	1
4901784	145	C	06/24/2019	10:43	-132.321	42.844	0	1994.90	0	1.9440	0	36.5200	8	29.207	0	1969.706	0	58.4	4	17.8	4	-1E+10	1	-1E+10	1	-1E+10	1	-1E+10	1	-1E+10	1	-1E+10	1
4901784	145	C	06/24/2019	10:43	-132.321	42.844	0	2000.10	0	1.9390	0	36.5220	8	29.209	0	1974.817	0	58.7	4	17.9	4	-1E+10	1	-1E+10	1	-1E+10	1	-1E+10	1	-1E+10	1	-1E+10	1
4901784	145	C	06/24/2019	10:43	-132.321	42.844	0	2005.10	0	1.9350	0	36.5220	8	29.209	0	1979.730	0	58.9	4	18.0	4	-1E+10	1	-1E+10	1	-1E+10	1	-1E+10	1	-1E+10	1	-1E+10	1
4901784	145	C	06/24/2019	10:43	-132.321	42.844	0	2010.40	0	1.9340	0	36.5230	8	29.210	0	1984.939	0	59.1	4	18.0	4	-1E+10	1	-1E+10	1	-1E+10	1	-1E+10	1	-1E+10	1	-1E+10	1
4901784	145	C	06/24/2019	10:43	-132.321	42.844	0	2015.20	0	1.9310	0	36.5240	8	29.211	0	1989.655	0	59.2	4	18.1	4	-1E+10	1	-1E+10	1	-1E+10	1	-1E+10	1	-1E+10	1	-1E+10	1
4901784	145	C	06/24/2019	10:43	-132.321	42.844	0	2020.20	0	1.9310	0	36.5240	8	29.211	0	1994.569	0	59.2	4	18.1	4	-1E+10	1	-1E+10	1	-1E+10	1	-1E+10	1	-1E+10	1	-1E+10	1
4901784	145	C	06/24/2019	10:43	-132.321	42.844	0																										
4901784	146	C	07/04/2019	10:48	-132.253	42.864	0	2.90	0	16.7730	0	34.0810	8	24.863	0	2.877	0	234.3	4	97.2	4	-1E+10	1	-1E+10	1	-1E+10	1	-1E+10	1	-1E+10	1	-1E+10	1
4901784	146	C	07/04/2019	10:48	-132.253	42.864	0	4.70	0	16.7760	0	34.0810	8	24.863	0	4.663	0	234.2	4	97.2	4	-1E+10	1	-1E+10	1	-1E+10	1	-1E+10	1	-1E+10	1	-1E+10	1
4901784	146	C	07/04/2019	10:48	-132.253	42.864	0	6.60	0	16.7770	0	34.0790	8	24.861	0	6.548	0	234.3	4	97.2	4	-1E+10	1	-1E+10	1	-1E+10	1	-1E+10	1	-1E+10	1	-1E+10	1
4901784	146	C	07/04/2019	10:48	-132.253	42.864	0	9.00	0	16.7760	0	34.0740	8	24.858	0	8.929	0	234.5	4	97.3	4	-1E+10	1	-1E+10	1	-1E+10	1	-1E+10	1	-1E+10	1	-1E+10	1
4901784	146	C	07/04/2019	10:48	-132.253	42.864	0	10.80	0	16.7500	0	34.0620	8	24.855	0	10.714	0	234.8	4	97.4	4	-1E+10	1	-1E+10	1	-1E+10	1	-1E+10	1	-1E+10	1	-1E+10	1
4901784	146	C	07/04/2019	10:48	-132.253	42.864	0	12.30	0	16.5080	0	34.0570	8	24.907	0	12.202	0	236.2	4	97.5	4	-1E+10	1	-1E+10	1	-1E+10	1	-1E+10	1	-1E+10	1	-1E+10	1
4901784	146	C	07/04/2019	10:48	-132.253	42.864	0	13.80	0	16.3950	0	34.0380	8	24.919	0	13.690	0	237.8	4	98.0	4	-1E+10	1	-1E+10	1	-1E+10	1	-1E+10	1	-1E+10	1	-1E+10	1
4901784	146	C	07/04/2019	10:48	-132.253	42.864	0	15.40	0	16.3640	0	34.0270	8	24.917	0	15.277	0	239.1	4	98.4	4	-1E+10	1	-1E+10	1	-1E+10	1	-1E+10	1	-1E+10	1	-1E+10	1
4901784	146	C	07/04/2019	10:48	-132.253	42.864	0	16.90	0	16.2640	0	34.0070	8	24.925	0	16.765	0	241.0	4	99.0	4	-1E+10	1	-1E+10	1	-1E+10	1	-1E+10	1	-1E+10	1	-1E+10	1
4901784	146	C	07/04/2019	10:48	-132.253	42.864	0	18.30	0	16.0230	0	33.9830	8	24.962	0	18.154	0	243.8	4	99.7	4	-1E+10	1	-1E+10	1	-1E+10	1	-1E+10	1	-1E+10	1	-1E+10	1
4901784	146	C	07/04/2019	10:48	-132.253	42.864	0	20.00	0	15.2420	0	33.9950	8	25.146	0	19.841	0	247.9	4	99.8	4	-1E+10	1	-1E+10	1	-1E+10	1	-1E+10	1	-1E+10	1	-1E+10	1
4901784	146	C	07/04/2019	10:48	-132.253	42.864	0	21.80	0	14.7670	0	33.9940	8	25.248	0	21.626	0	252.7	4	100.8	4	-1E+10	1	-1E+10	1	-1E+10	1	-1E+10	1	-1E+10	1	-1E+10	1
4901784	146	C	07/04/2019	10:48	-132.253	42.864	0	23.50	0	14.1290	0	33.9770	8	25.371	0	23.313	0	256.8	4	101.1	4	-1E+10	1	-1E+10	1	-1E+10	1	-1E+10	1	-1E+10	1	-1E+10	1
4901784	146	C	07/04/2019	10:48	-132.253	42.864	0	25.30	0	13.7860	0	34.0270	8	25.481	0	25.098	0	259.1	4	101.4	4	-1E+10	1	-1E+10	1	-1E+10	1	-1E+10	1	-1E+10	1	-1E+10	1
4901784	146	C	07/04/2019	10:48	-132.253	42.864	0	27.10	0	13.2560	0	34.0450	8	25.603	0	26.884	0	261.8	4	101.3	4	-1E+10	1	-1E+10	1	-1E+10	1	-1E+10	1	-1E+10	1	-1E+10	1
4901784	146	C	07/04/2019	10:48	-132.253	42.864	0	29.10	0	13.0590	0	34.0460	8	25.643	0	28.867	0	263.1	4	101.5	4	-1E+10	1	-1E+10	1	-1E+10	1	-1E+10	1	-1E+10	1	-1E+10	1
4901784	146	C	07/04/2019	10:48	-132.253	42.864	0	31.00	0	12.6600	0	34.0630	8	25.736	0	30.752	0	264.3	4	101.1	4	-1E+10	1	-1E+10	1	-1E+10	1	-1E+10	1	-1E+10	1	-1E+10	1
4901784	146	C	07/04/2019	10:48	-132.253	42.864	0	32.90	0	12.3660	0	34.0880	8	25.812	0	32.637	0	265.3	4	100.9	4	-1E+10	1	-1E+10	1	-1E+10	1	-1E+10	1	-1E+10	1	-1E+10	1
4901784	146	C	07/04/2019	10:48	-132.253	42.864	0	34.80	0	12.3570	0	34.0910	8	25.816	0	34.521	0	265.2	4	100.8	4	-1E+10	1	-1E+10	1	-1E+10	1	-1E+10	1	-1E+10	1	-1E+10	1
4901784	146	C	07/04/2019	10:48	-132.253	42.864	0	36.70	0	12.3130	0	34.1000	8	25.832	0	36.406	0	264.8	4	100.6	4	-1E+10	1	-1E+10	1	-1E+10	1	-1E+10	1	-1E+10	1	-1E+10	1
4901784	146	C	07/04/2019	10:48	-132.253	42.864	0	38.80	0	12.1890	0	34.0940	8	25.851	0	38.489	0	265.2	4	100.5	4	-1E+10	1	-1E+10	1	-1E+10	1	-1E+10	1	-1E+10	1	-1E+10	1
4901784	146	C	07/04/2019	10:48	-132.253	42.864	0	40.70	0	12.1400	0	34.1030	8	25.867	0	40.374	0	264.7	4	100.2	4	-1E+10	1	-1E+10	1	-1E+10	1	-1E+10	1	-1E+10	1	-1E+10	1
4901784	146	C	07/04/2019	10:48	-132.253	42.864	0	42.60	0	12.1070	0	34.0970	8	25.869	0	42.258	0	264.9	4	100.2	4	-1E+10	1	-1E+10	1	-1E+10	1	-1E+10	1	-1E+10	1	-1E+10	1
4901784	146	C	07/04/2019	10:48	-132.253	42.864	0	44.60	0	12.0880	0	34.0940	8	25.870	0	44.242	0	264.8	4	100.1	4	-1E+10	1	-1E+10	1	-1E+10	1	-1E+10	1	-1E+10	1	-1E+10	1
4901784	146	C	07/04/2019	10:48	-132.253	42.864	0	46.50	0	12.0140	0	34.0920	8	25.883	0	46.126	0	264.6	4	99.9	4	-1E+10	1	-1E+10	1	-1E+10	1	-1E+10	1	-1E+10	1	-1E+10	1
4901784	146	C	07/04/2019	10:48	-132.253	42.864	0	48.40	0	11.9430	0	34.0890	8	25.894	0	48.011	0	264.9	4	99.9	4	-1E+10	1	-1E+10	1	-1E+10	1	-1E+10	1	-1E+10	1	-1E+10	1
4901784	146	C	07/04/2019	10:48	-132.253	42.864	0	50.30	0	11.9080	0	34.0890	8	25.901	0	49.895	0	264.7	4	99.7	4	-1E+10	1	-1E+10	1	-1E+10	1	-1E+10	1	-1E+10	1	-1E+10	1
4901784	146	C	07/04/2019	10:48	-132.253	42.864	0	52.80	0	11.8020	0	34.0880	8	25.920	0	52.375	0	265.0	4	99.6	4	-1E+10	1	-1E+10	1	-1E+10	1	-1E+10	1	-1E+10	1	-1E+10	1
4901784	146	C	07/04/2019	10:48	-132.253	42.864	0	54.70	0	11.7570	0	34.0850	8	25.926	0	54.259	0	264.8	4	99.4	4	-1E+10	1	-1E+10	1	-1E+10	1	-1E+10	1	-1E+10	1	-1E+10	1
4901784	146	C	07/04/2019	10:48	-132.253	42.864	0	56.30	0	11.6030	0	34.0870	8	25.956	0	55.846	0	265.5	4	99.4	4	-1E+10	1	-1E+10	1	-1E+10	1	-1E+10	1	-1E+10	1	-1E+10	1
4901784	146	C	07/04/2019	10:48	-132.253	42.864	0	57.90	0	11.5120	0	34.0830	8	25.970	0	57.433	0	265.4	4	99.1	4	-1E+10	1	-1E+10	1	-1E+10	1	-1E+10	1	-1E+10	1	-1E+10	1
4901784	146	C	07/04/2019	10:48	-132.253	42.864	0	59.60	0	11.3470	0	34.0790	8	25.997	0	59.119	0	265.3	4	98.8	4	-1E+10	1	-1E+10	1	-1E+10	1	-1E+10	1	-1E+10	1	-1E+10	1
4901784	146	C	07/04/2019	10:48	-132.253	42.864	0	61.20	0	11.2770	0	34.0750	8	26.007	0	60.706	0	264.4	4	98.3	4	-1E+10	1	-1E+10	1	-1E+10	1	-1E+10	1	-1E+10	1	-1E+10	1
4901784	146	C	07/04/2019	10:48	-132.253	42.864	0	62.80	0	11.1620	0	34.0860	8	26.036	0	62.293	0	263.0	4	97.5	4	-1E+10	1	-1E+10	1	-1E+10	1	-1E+10	1	-1E+10	1	-1E+10	1
4901784	146	C	07/04/2019	10:48	-132.253	42.864	0	64.50	0	10.9770	0	34.0820	8	26.067	0	63.979	0	262.0	4	96.8	4	-1E+10	1	-1E+10	1	-1E+10	1	-1E+10	1	-1E+10	1	-1E+10	1
4901784	146	C	07/04/2019	10:48	-132.253	42.864	0	66.10	0	10.8970	0	34.0770	8	26.077	0	65.566	0	260.6	4	96.1	4	-1E+10	1	-1E+10	1	-1E+10	1	-1E+10	1	-1E+10	1	-1E+10	1
4901784	146	C	07/04/2019	10:48	-132.253	42.864	0	67.70	0	10.7940	0	34.0750	8	26.094	0	67.153	0	258.8	4	95.2	4	-1E+10	1	-1E+10	1	-1E+10	1	-1E+10	1	-1E+10	1	-1E+10	1
4901784	146	C	07/04/2019	10:48	-132.253	42.864	0	69.40	0	10.6310	0	34.0860	8	26.131	0	68.839	0	257.5	4	94.4	4	-1E+10	1	-1E+10	1	-1E+10	1	-1E+10	1	-1E+10	1	-1E+10	1
4901784	146	C	07/04/2019	10:48	-132.253	42.864	0	71.10	0	10.5540	0	34.0930	8	26.150	0	70.525	0	256.9	4	94.1	4	-1E+10	1	-1E+10	1	-1E+10	1	-1E+10	1	-1E+10	1	-1E+10	1
4901784	146	C	07/04/2019	10:48	-132.253	42.864	0	72.80	0	10.4850	0	34.0960	8	26.165	0	72.211	0	256.4	4	93.7	4	-1E+10	1	-1E+10	1	-1E+10	1	-1E+10	1	-1E+10	1	-1E+10	1
4901784	146	C	07/04/2019	10:48	-132.253	42.864	0	74.40	0	10.4490	0	34.0940	8	26.169	0	73.797	0	255.8	4	93.4	4	-1E+10	1	-1E+10	1	-1E+10	1	-1E+10	1	-1E+10	1	-1E+10	1
4901784	146	C	07/04/2019	10:48	-132.253	42.864	0	76.20	0	10.3770	0	34.0960	8	26.183	0	75.582	0	255.7	4	93.3	4	-1E+10	1	-1E+10	1	-1E+10	1	-1E+10	1	-1E+10	1	-1E+10	1
4901784	146	C	07/04/2019	10:48	-132.253	42.864	0	77.90	0	10.3170	0	34.0950	8	26.193	0	77.268	0	255.6	4	93.1	4	-1E+10	1	-1E+10	1	-1E+10	1	-1E+10	1	-1E+10	1	-1E+10	1
4901784	146	C	07/04/2019	10:48	-132.253	42.864	0	79.80	0	10.2620	0	34.0920	8	26.200	0	79.153	0	255.4	4	92.9	4	-1E+10	1	-1E+10	1	-1E+10	1	-1E+10	1	-1E+10	1	-1E+10	1
4901784	146	C	07/04/2019	10:48	-132.253	42.864	0	81.50	0	10.1930	0	34.0930	8	26.213	0	80.838	0	255.0	4	92.6	4	-1E+10	1	-1E+10	1	-1E+10	1	-1E+10	1	-1E+10	1	-1E+10	1
4901784	146	C	07/04/2019	10:48	-132.253	42.864	0	83.30	0	10.1770	0	34.0910	8	26.214	0	82.623	0	254.9	4	92.6	4	-1E+10	1	-1E+10	1	-1E+10	1	-1E+10	1	-1E+10	1	-1E+10	1
4901784	146	C	07/04/2019	10:48	-132.253	42.864	0	85.00	0	10.1220	0	34.0880	8	26.221	0	84.309	0	254.8	4	92.4	4	-1E+10	1	-1E+10	1	-1E+10	1	-1E+10	1	-1E+10	1	-1E+10	1
4901784	146	C	07/04/2019	10:48	-132.253	42.864	0	86.80	0	10.0560	0	34.0880	8	26.232	0	86.094	0	254.9	4	92.3	4	-1E+10	1	-1E+10	1	-1E+10	1	-1E+10	1	-1E+10	1	-1E+10	1
4901784	146	C	07/04/2019	10:48	-132.253	42.864	0	88.50	0	10.0430	0	34.0850	8	26.232	0	87.780	0	254.7	4	92.2	4	-1E+10	1	-1E+10	1	-1E+10	1	-1E+10	1	-1E+10	1	-1E+10	1
4901784	146	C	07/04/2019	10:48	-132.253	42.864	0	90.40	0	10.0360	0	34.0830	8	26.232	0	89.664	0	254.4	4	92.1	4	-1E+10	1	-1E+10	1	-1E+10	1	-1E+10	1	-1E+10	1	-1E+10	1
4901784	146	C	07/04/2019	10:48	-132.253	42.864	0	92.10	0	9.9890	0	34.0800	8	26.238	0	91.350	0	253.9	4	91.8	4	-1E+10	1	-1E+10	1	-1E+10	1	-1E+10	1	-1E+10	1	-1E+10	1
4901784	146	C	07/04/2019	10:48	-132.253	42.864	0	93.90	0	9.9410	0	34.0780	8	26.244	0	93.135	0	253.7	4	91.7	4	-1E+10	1	-1E+10	1	-1E+10	1	-1E+10	1	-1E+10	1	-1E+10	1
4901784	146	C	07/04/2019	10:48	-132.253	42.864	0	95.70	0	9.9360	0	34.0710	8	26.240	0	94.920	0	252.7	4	91.3	4	-1E+10	1	-1E+10	1	-1E+10	1	-1E+10	1	-1E+10	1	-1E+10	1
4901784	146	C	07/04/2019	10:48	-132.253	42.864	0	97.50	0	9.8400	0	34.0720	8	26.257	0	96.705	0	251.9	4	90.8	4	-1E+10	1	-1E+10	1	-1E+10	1	-1E+10	1	-1E+10	1	-1E+10	1
4901784	146	C	07/04/2019	10:48	-132.253	42.864	0	99.30	0	9.7800	0	34.0700	8	26.265	0	98.490	0	251.1	4	90.4	4	-1E+10	1	-1E+10	1	-1E+10	1	-1E+10	1	-1E+10	1	-1E+10	1
4901784	146	C	07/04/2019	10:48	-132.253	42.864	0	103.00	0	9.6400	0	34.0700	8	26.288	0	102.159	0	248.3	4	89.1	4	-1E+10	1	-1E+10	1	-1E+10	1	-1E+10	1	-1E+10	1	-1E+10	1
4901784	146	C	07/04/2019	10:48	-132.253	42.864	0	105.30	0	9.4570	0	34.1190	8	26.357	0	104.439	0	246.4	4	88.1	4	-1E+10	1	-1E+10	1	-1E+10	1	-1E+10	1	-1E+10	1	-1E+10	1
4901784	146	C	07/04/2019	10:48	-132.253	42.864	0	107.90	0	9.4590	0	34.1410	8	26.374	0	107.017	0	243.3	4	87.0	4	-1E+10	1	-1E+10	1	-1E+10	1	-1E+10	1	-1E+10	1	-1E+10	1
4901784	146	C	07/04/2019	10:48	-132.253	42.864	0	110.10	0	9.2350	0	34.1770	8	26.438	0	109.199	0	241.9	4	86.1	4	-1E+10	1	-1E+10	1	-1E+10	1	-1E+10	1	-1E+10	1	-1E+10	1
4901784	146	C	07/04/2019	10:48	-132.253	42.864	0	112.40	0	9.1670	0	34.1920	8	26.461	0	111.479	0	240.1	4	85.4	4	-1E+10	1	-1E+10	1	-1E+10	1	-1E+10	1	-1E+10	1	-1E+10	1
4901784	146	C	07/04/2019	10:48	-132.253	42.864	0	115.40	0	9.0150	0	34.2490	8	26.530	0	114.454	0	236.9	4	84.0	4	-1E+10	1	-1E+10	1	-1E+10	1	-1E+10	1	-1E+10	1	-1E+10	1
4901784	146	C	07/04/2019	10:48	-132.253	42.864	0	117.70	0	8.9340	0	34.2620	8	26.553	0	116.734	0	234.8	4	83.1	4	-1E+10	1	-1E+10	1	-1E+10	1	-1E+10	1	-1E+10	1	-1E+10	1
4901784	146	C	07/04/2019	10:48	-132.253	42.864	0	120.00	0	8.7220	0	34.3410	8	26.648	0	119.015	0	232.2	4	81.8	4	-1E+10	1	-1E+10	1	-1E+10	1	-1E+10	1	-1E+10	1	-1E+10	1
4901784	146	C	07/04/2019	10:48	-132.253	42.864	0	122.40	0	8.5720	0	34.3940	8	26.713	0	121.394	0	230.6	4	81.0	4	-1E+10	1	-1E+10	1	-1E+10	1	-1E+10	1	-1E+10	1	-1E+10	1
4901784	146	C	07/04/2019	10:48	-132.253	42.864	0	124.60	0	8.3850	0	34.4650	8	26.798	0	123.576	0	229.3	4	80.3	4	-1E+10	1	-1E+10	1	-1E+10	1	-1E+10	1	-1E+10	1	-1E+10	1
4901784	146	C	07/04/2019	10:48	-132.253	42.864	0	127.00	0	8.2500	0	34.5360	8	26.874	0	125.955	0	228.2	4	79.7	4	-1E+10	1	-1E+10	1	-1E+10	1	-1E+10	1	-1E+10	1	-1E+10	1
4901784	146	C	07/04/2019	10:48	-132.253	42.864	0	129.80	0	8.1870	0	34.5660	8	26.907	0	128.731	0	226.7	4	79.1	4	-1E+10	1	-1E+10	1	-1E+10	1	-1E+10	1	-1E+10	1	-1E+10	1
4901784	146	C	07/04/2019	10:48	-132.253	42.864	0	132.60	0	8.0750	0	34.6470	8	26.988	0	131.507	0	224.9	4	78.3	4	-1E+10	1	-1E+10	1	-1E+10	1	-1E+10	1	-1E+10	1	-1E+10	1
4901784	146	C	07/04/2019	10:48	-132.253	42.864	0	135.00	0	8.0000	0	34.7280	8	27.063	0	133.887	0	223.8	4	77.8	4	-1E+10	1	-1E+10	1	-1E+10	1	-1E+10	1	-1E+10	1	-1E+10	1
4901784	146	C	07/04/2019	10:48	-132.253	42.864	0	137.40	0	7.9780	0	34.7590	8	27.090	0	136.266	0	222.9	4	77.5	4	-1E+10	1	-1E+10	1	-1E+10	1	-1E+10	1	-1E+10	1	-1E+10	1
4901784	146	C	07/04/2019	10:48	-132.253	42.864	0	139.80	0	7.9620	0	34.7820	8	27.111	0	138.646	0	221.9	4	77.1	4	-1E+10	1	-1E+10	1	-1E+10	1	-1E+10	1	-1E+10	1	-1E+10	1
4901784	146	C	07/04/2019	10:48	-132.253	42.864	0	142.30	0	7.9440	0	34.8160	8	27.140	0	141.124	0	220.4	4	76.6	4	-1E+10	1	-1E+10	1	-1E+10	1	-1E+10	1	-1E+10	1	-1E+10	1
4901784	146	C	07/04/2019	10:48	-132.253	42.864	0	144.70	0	7.9310	0	34.8590	8	27.176	0	143.503	0	218.9	4	76.1	4	-1E+10	1	-1E+10	1	-1E+10	1	-1E+10	1	-1E+10	1	-1E+10	1
4901784	146	C	07/04/2019	10:48	-132.253	42.864	0	147.30	0	7.9300	0	34.9100	8	27.216	0	146.081	0	216.9	4	75.4	4	-1E+10	1	-1E+10	1	-1E+10	1	-1E+10	1	-1E+10	1	-1E+10	1
4901784	146	C	07/04/2019	10:48	-132.253	42.864	0	149.80	0	7.9290	0	34.9530	8	27.250	0	148.559	0	215.0	4	74.8	4	-1E+10	1	-1E+10	1	-1E+10	1	-1E+10	1	-1E+10	1	-1E+10	1
4901784	146	C	07/04/2019	10:48	-132.253	42.864	0	152.40	0	7.9290	0	34.9710	8	27.264	0	151.137	0	213.2	4	74.2	4	-1E+10	1	-1E+10	1	-1E+10	1	-1E+10	1	-1E+10	1	-1E+10	1
4901784	146	C	07/04/2019	10:48	-132.253	42.864	0	155.00	0	7.9320	0	34.9880	8	27.277	0	153.714	0	211.0	4	73.4	4	-1E+10	1	-1E+10	1	-1E+10	1	-1E+10	1	-1E+10	1	-1E+10	1
4901784	146	C	07/04/2019	10:48	-132.253	42.864	0	157.80	0	7.9480	0	35.0500	8	27.324	0	156.490	0	208.0	4	72.4	4	-1E+10	1	-1E+10	1	-1E+10	1	-1E+10	1	-1E+10	1	-1E+10	1
4901784	146	C	07/04/2019	10:48	-132.253	42.864	0	160.60	0	7.9660	0	35.1040	8	27.363	0	159.266	0	205.1	4	71.5	4	-1E+10	1	-1E+10	1	-1E+10	1	-1E+10	1	-1E+10	1	-1E+10	1
4901784	146	C	07/04/2019	10:48	-132.253	42.864	0	162.50	0	7.9740	0	35.1380	8	27.389	0	161.149	0	203.1	4	70.8	4	-1E+10	1	-1E+10	1	-1E+10	1	-1E+10	1	-1E+10	1	-1E+10	1
4901784	146	C	07/04/2019	10:48	-132.253	42.864	0	165.20	0	7.9750	0	35.1850	8	27.426	0	163.826	0	200.1	4	69.8	4	-1E+10	1	-1E+10	1	-1E+10	1	-1E+10	1	-1E+10	1	-1E+10	1
4901784	146	C	07/04/2019	10:48	-132.253	42.864	0	167.90	0	7.9950	0	35.2440	8	27.469	0	166.502	0	197.3	4	68.9	4	-1E+10	1	-1E+10	1	-1E+10	1	-1E+10	1	-1E+10	1	-1E+10	1
4901784	146	C	07/04/2019	10:48	-132.253	42.864	0	169.70	0	8.0030	0	35.2650	8	27.485	0	168.286	0	195.3	4	68.2	4	-1E+10	1	-1E+10	1	-1E+10	1	-1E+10	1	-1E+10	1	-1E+10	1
4901784	146	C	07/04/2019	10:48	-132.253	42.864	0	172.70	0	8.0520	0	35.3160	8	27.517	0	171.260	0	192.1	4	67.2	4	-1E+10	1	-1E+10	1	-1E+10	1	-1E+10	1	-1E+10	1	-1E+10	1
4901784	146	C	07/04/2019	10:48	-132.253	42.864	0	175.50	0	8.1050	0	35.3800	8	27.560	0	174.036	0	189.8	4	66.5	4	-1E+10	1	-1E+10	1	-1E+10	1	-1E+10	1	-1E+10	1	-1E+10	1
4901784	146	C	07/04/2019	10:48	-132.253	42.864	0	177.50	0	8.1150	0	35.3890	8	27.565	0	176.018	0	188.9	4	66.2	4	-1E+10	1	-1E+10	1	-1E+10	1	-1E+10	1	-1E+10	1	-1E+10	1
4901784	146	C	07/04/2019	10:48	-132.253	42.864	0	179.50	0	8.1200	0	35.3980	8	27.571	0	178.001	0	188.1	4	65.9	4	-1E+10	1	-1E+10	1	-1E+10	1	-1E+10	1	-1E+10	1	-1E+10	1
4901784	146	C	07/04/2019	10:48	-132.253	42.864	0	182.40	0	8.1110	0	35.4120	8	27.584	0	180.875	0	186.6	4	65.4	4	-1E+10	1	-1E+10	1	-1E+10	1	-1E+10	1	-1E+10	1	-1E+10	1
4901784	146	C	07/04/2019	10:48	-132.253	42.864	0	185.20	0	8.1470	0	35.4300	8	27.593	0	183.650	0	184.5	4	64.7	4	-1E+10	1	-1E+10	1	-1E+10	1	-1E+10	1	-1E+10	1	-1E+10	1
4901784	146	C	07/04/2019	10:48	-132.253	42.864	0	187.70	0	8.1640	0	35.4520	8	27.607	0	186.128	0	182.8	4	64.2	4	-1E+10	1	-1E+10	1	-1E+10	1	-1E+10	1	-1E+10	1	-1E+10	1
4901784	146	C	07/04/2019	10:48	-132.253	42.864	0	189.60	0	8.1890	0	35.4730	8	27.620	0	188.012	0	181.3	4	63.7	4	-1E+10	1	-1E+10	1	-1E+10	1	-1E+10	1	-1E+10	1	-1E+10	1
4901784	146	C	07/04/2019	10:48	-132.253	42.864	0	192.10	0	8.1980	0	35.4960	8	27.637	0	190.490	0	179.7	4	63.1	4	-1E+10	1	-1E+10	1	-1E+10	1	-1E+10	1	-1E+10	1	-1E+10	1
4901784	146	C	07/04/2019	10:48	-132.253	42.864	0	194.50	0	8.2150	0	35.5290	8	27.660	0	192.868	0	178.4	4	62.7	4	-1E+10	1	-1E+10	1	-1E+10	1	-1E+10	1	-1E+10	1	-1E+10	1
4901784	146	C	07/04/2019	10:48	-132.253	42.864	0	197.10	0	8.1940	0	35.5430	8	27.674	0	195.445	0	177.8	4	62.5	4	-1E+10	1	-1E+10	1	-1E+10	1	-1E+10	1	-1E+10	1	-1E+10	1
4901784	146	C	07/04/2019	10:48	-132.253	42.864	0	200.30	0	8.1950	0	35.5490	8	27.679	0	198.617	0	177.1	4	62.2	4	-1E+10	1	-1E+10	1	-1E+10	1	-1E+10	1	-1E+10	1	-1E+10	1
4901784	146	C	07/04/2019	10:48	-132.253	42.864	0	202.80	0	8.1900	0	35.5520	8	27.682	0	201.095	0	176.2	4	61.9	4	-1E+10	1	-1E+10	1	-1E+10	1	-1E+10	1	-1E+10	1	-1E+10	1
4901784	146	C	07/04/2019	10:48	-132.253	42.864	0	205.30	0	8.2000	0	35.5620	8	27.688	0	203.572	0	174.7	4	61.4	4	-1E+10	1	-1E+10	1	-1E+10	1	-1E+10	1	-1E+10	1	-1E+10	1
4901784	146	C	07/04/2019	10:48	-132.253	42.864	0	207.80	0	8.2200	0	35.5720	8	27.693	0	206.050	0	173.6	4	61.1	4	-1E+10	1	-1E+10	1	-1E+10	1	-1E+10	1	-1E+10	1	-1E+10	1
4901784	146	C	07/04/2019	10:48	-132.253	42.864	0	210.30	0	8.2180	0	35.5840	8	27.703	0	208.528	0	172.4	4	60.6	4	-1E+10	1	-1E+10	1	-1E+10	1	-1E+10	1	-1E+10	1	-1E+10	1
4901784	146	C	07/04/2019	10:48	-132.253	42.864	0	212.70	0	8.2040	0	35.5950	8	27.714	0	210.906	0	171.8	4	60.4	4	-1E+10	1	-1E+10	1	-1E+10	1	-1E+10	1	-1E+10	1	-1E+10	1
4901784	146	C	07/04/2019	10:48	-132.253	42.864	0	215.20	0	8.1970	0	35.5970	8	27.717	0	213.384	0	170.7	4	60.0	4	-1E+10	1	-1E+10	1	-1E+10	1	-1E+10	1	-1E+10	1	-1E+10	1
4901784	146	C	07/04/2019	10:48	-132.253	42.864	0	217.70	0	8.1910	0	35.6060	8	27.725	0	215.862	0	169.4	4	59.5	4	-1E+10	1	-1E+10	1	-1E+10	1	-1E+10	1	-1E+10	1	-1E+10	1
4901784	146	C	07/04/2019	10:48	-132.253	42.864	0	220.20	0	8.1850	0	35.6130	8	27.731	0	218.339	0	168.2	4	59.1	4	-1E+10	1	-1E+10	1	-1E+10	1	-1E+10	1	-1E+10	1	-1E+10	1
4901784	146	C	07/04/2019	10:48	-132.253	42.864	0	222.70	0	8.1550	0	35.6160	8	27.738	0	220.817	0	167.0	4	58.7	4	-1E+10	1	-1E+10	1	-1E+10	1	-1E+10	1	-1E+10	1	-1E+10	1
4901784	146	C	07/04/2019	10:48	-132.253	42.864	0	225.20	0	8.1300	0	35.6210	8	27.746	0	223.294	0	165.3	4	58.1	4	-1E+10	1	-1E+10	1	-1E+10	1	-1E+10	1	-1E+10	1	-1E+10	1
4901784	146	C	07/04/2019	10:48	-132.253	42.864	0	227.70	0	8.1020	0	35.6300	8	27.757	0	225.772	0	163.2	4	57.3	4	-1E+10	1	-1E+10	1	-1E+10	1	-1E+10	1	-1E+10	1	-1E+10	1
4901784	146	C	07/04/2019	10:48	-132.253	42.864	0	230.30	0	8.0520	0	35.6340	8	27.768	0	228.348	0	161.5	4	56.6	4	-1E+10	1	-1E+10	1	-1E+10	1	-1E+10	1	-1E+10	1	-1E+10	1
4901784	146	C	07/04/2019	10:48	-132.253	42.864	0	233.00	0	8.0180	0	35.6310	8	27.771	0	231.024	0	159.7	4	56.0	4	-1E+10	1	-1E+10	1	-1E+10	1	-1E+10	1	-1E+10	1	-1E+10	1
4901784	146	C	07/04/2019	10:48	-132.253	42.864	0	234.80	0	7.9220	0	35.6390	8	27.792	0	232.808	0	158.8	4	55.5	4	-1E+10	1	-1E+10	1	-1E+10	1	-1E+10	1	-1E+10	1	-1E+10	1
4901784	146	C	07/04/2019	10:48	-132.253	42.864	0	237.40	0	7.8770	0	35.6400	8	27.799	0	235.384	0	157.5	4	55.0	4	-1E+10	1	-1E+10	1	-1E+10	1	-1E+10	1	-1E+10	1	-1E+10	1
4901784	146	C	07/04/2019	10:48	-132.253	42.864	0	240.00	0	7.8240	0	35.6420	8	27.809	0	237.960	0	156.5	4	54.6	4	-1E+10	1	-1E+10	1	-1E+10	1	-1E+10	1	-1E+10	1	-1E+10	1
4901784	146	C	07/04/2019	10:48	-132.253	42.864	0	242.70	0	7.8030	0	35.6400	8	27.810	0	240.636	0	155.3	4	54.2	4	-1E+10	1	-1E+10	1	-1E+10	1	-1E+10	1	-1E+10	1	-1E+10	1
4901784	146	C	07/04/2019	10:48	-132.253	42.864	0	245.40	0	7.7400	0	35.6410	8	27.821	0	243.311	0	154.1	4	53.6	4	-1E+10	1	-1E+10	1	-1E+10	1	-1E+10	1	-1E+10	1	-1E+10	1
4901784	146	C	07/04/2019	10:48	-132.253	42.864	0	247.10	0	7.7010	0	35.6410	8	27.826	0	244.996	0	153.6	4	53.4	4	-1E+10	1	-1E+10	1	-1E+10	1	-1E+10	1	-1E+10	1	-1E+10	1
4901784	146	C	07/04/2019	10:48	-132.253	42.864	0	249.80	0	7.6620	0	35.6410	8	27.832	0	247.671	0	153.0	4	53.2	4	-1E+10	1	-1E+10	1	-1E+10	1	-1E+10	1	-1E+10	1	-1E+10	1
4901784	146	C	07/04/2019	10:48	-132.253	42.864	0	252.50	0	7.6290	0	35.6410	8	27.837	0	250.347	0	152.1	4	52.8	4	-1E+10	1	-1E+10	1	-1E+10	1	-1E+10	1	-1E+10	1	-1E+10	1
4901784	146	C	07/04/2019	10:48	-132.253	42.864	0	255.20	0	7.6010	0	35.6410	8	27.841	0	253.022	0	151.1	4	52.4	4	-1E+10	1	-1E+10	1	-1E+10	1	-1E+10	1	-1E+10	1	-1E+10	1
4901784	146	C	07/04/2019	10:48	-132.253	42.864	0	257.90	0	7.5520	0	35.6410	8	27.849	0	255.697	0	149.8	4	51.9	4	-1E+10	1	-1E+10	1	-1E+10	1	-1E+10	1	-1E+10	1	-1E+10	1
4901784	146	C	07/04/2019	10:48	-132.253	42.864	0	259.70	0	7.5230	0	35.6420	8	27.854	0	257.481	0	149.0	4	51.6	4	-1E+10	1	-1E+10	1	-1E+10	1	-1E+10	1	-1E+10	1	-1E+10	1
4901784	146	C	07/04/2019	10:48	-132.253	42.864	0	262.50	0	7.5030	0	35.6410	8	27.856	0	260.255	0	147.2	4	51.0	4	-1E+10	1	-1E+10	1	-1E+10	1	-1E+10	1	-1E+10	1	-1E+10	1
4901784	146	C	07/04/2019	10:48	-132.253	42.864	0	265.30	0	7.4430	0	35.6420	8	27.865	0	263.029	0	145.5	4	50.3	4	-1E+10	1	-1E+10	1	-1E+10	1	-1E+10	1	-1E+10	1	-1E+10	1
4901784	146	C	07/04/2019	10:48	-132.253	42.864	0	267.00	0	7.4320	0	35.6400	8	27.865	0	264.714	0	144.7	4	50.0	4	-1E+10	1	-1E+10	1	-1E+10	1	-1E+10	1	-1E+10	1	-1E+10	1
4901784	146	C	07/04/2019	10:48	-132.253	42.864	0	270.00	0	7.3750	0	35.6400	8	27.874	0	267.686	0	143.2	4	49.5	4	-1E+10	1	-1E+10	1	-1E+10	1	-1E+10	1	-1E+10	1	-1E+10	1
4901784	146	C	07/04/2019	10:48	-132.253	42.864	0	272.40	0	7.3300	0	35.6390	8	27.879	0	270.064	0	141.6	4	48.8	4	-1E+10	1	-1E+10	1	-1E+10	1	-1E+10	1	-1E+10	1	-1E+10	1
4901784	146	C	07/04/2019	10:48	-132.253	42.864	0	274.70	0	7.2600	0	35.6410	8	27.891	0	272.343	0	140.2	4	48.3	4	-1E+10	1	-1E+10	1	-1E+10	1	-1E+10	1	-1E+10	1	-1E+10	1
4901784	146	C	07/04/2019	10:48	-132.253	42.864	0	277.10	0	7.2130	0	35.6400	8	27.897	0	274.721	0	138.9	4	47.8	4	-1E+10	1	-1E+10	1	-1E+10	1	-1E+10	1	-1E+10	1	-1E+10	1
4901784	146	C	07/04/2019	10:48	-132.253	42.864	0	280.20	0	7.1190	0	35.6390	8	27.910	0	277.792	0	137.1	4	47.1	4	-1E+10	1	-1E+10	1	-1E+10	1	-1E+10	1	-1E+10	1	-1E+10	1
4901784	146	C	07/04/2019	10:48	-132.253	42.864	0	282.50	0	7.0730	0	35.6390	8	27.916	0	280.071	0	135.9	4	46.6	4	-1E+10	1	-1E+10	1	-1E+10	1	-1E+10	1	-1E+10	1	-1E+10	1
4901784	146	C	07/04/2019	10:48	-132.253	42.864	0	284.90	0	7.0410	0	35.6390	8	27.921	0	282.448	0	134.1	4	46.0	4	-1E+10	1	-1E+10	1	-1E+10	1	-1E+10	1	-1E+10	1	-1E+10	1
4901784	146	C	07/04/2019	10:48	-132.253	42.864	0	287.30	0	6.9580	0	35.6420	8	27.935	0	284.826	0	132.4	4	45.3	4	-1E+10	1	-1E+10	1	-1E+10	1	-1E+10	1	-1E+10	1	-1E+10	1
4901784	146	C	07/04/2019	10:48	-132.253	42.864	0	289.60	0	6.9370	0	35.6420	8	27.938	0	287.105	0	131.1	4	44.8	4	-1E+10	1	-1E+10	1	-1E+10	1	-1E+10	1	-1E+10	1	-1E+10	1
4901784	146	C	07/04/2019	10:48	-132.253	42.864	0	292.90	0	6.9220	0	35.6410	8	27.939	0	290.374	0	128.9	4	44.1	4	-1E+10	1	-1E+10	1	-1E+10	1	-1E+10	1	-1E+10	1	-1E+10	1
4901784	146	C	07/04/2019	10:48	-132.253	42.864	0	295.30	0	6.8650	0	35.6420	8	27.948	0	292.751	0	127.2	4	43.4	4	-1E+10	1	-1E+10	1	-1E+10	1	-1E+10	1	-1E+10	1	-1E+10	1
4901784	146	C	07/04/2019	10:48	-132.253	42.864	0	297.80	0	6.8450	0	35.6410	8	27.950	0	295.228	0	125.6	4	42.9	4	-1E+10	1	-1E+10	1	-1E+10	1	-1E+10	1	-1E+10	1	-1E+10	1
4901784	146	C	07/04/2019	10:48	-132.253	42.864	0	300.20	0	6.7920	0	35.6430	8	27.959	0	297.606	0	123.9	4	42.2	4	-1E+10	1	-1E+10	1	-1E+10	1	-1E+10	1	-1E+10	1	-1E+10	1
4901784	146	C	07/04/2019	10:48	-132.253	42.864	0	302.70	0	6.7520	0	35.6430	8	27.964	0	300.082	0	122.2	4	41.6	4	-1E+10	1	-1E+10	1	-1E+10	1	-1E+10	1	-1E+10	1	-1E+10	1
4901784	146	C	07/04/2019	10:48	-132.253	42.864	0	305.10	0	6.7150	0	35.6430	8	27.969	0	302.460	0	120.8	4	41.1	4	-1E+10	1	-1E+10	1	-1E+10	1	-1E+10	1	-1E+10	1	-1E+10	1
4901784	146	C	07/04/2019	10:48	-132.253	42.864	0	307.60	0	6.6620	0	35.6430	8	27.977	0	304.936	0	119.3	4	40.5	4	-1E+10	1	-1E+10	1	-1E+10	1	-1E+10	1	-1E+10	1	-1E+10	1
4901784	146	C	07/04/2019	10:48	-132.253	42.864	0	310.10	0	6.6000	0	35.6450	8	27.987	0	307.413	0	117.8	4	40.0	4	-1E+10	1	-1E+10	1	-1E+10	1	-1E+10	1	-1E+10	1	-1E+10	1
4901784	146	C	07/04/2019	10:48	-132.253	42.864	0	312.60	0	6.5680	0	35.6450	8	27.991	0	309.889	0	116.5	4	39.5	4	-1E+10	1	-1E+10	1	-1E+10	1	-1E+10	1	-1E+10	1	-1E+10	1
4901784	146	C	07/04/2019	10:48	-132.253	42.864	0	315.10	0	6.4950	0	35.6470	8	28.003	0	312.366	0	115.3	4	39.0	4	-1E+10	1	-1E+10	1	-1E+10	1	-1E+10	1	-1E+10	1	-1E+10	1
4901784	146	C	07/04/2019	10:48	-132.253	42.864	0	317.60	0	6.4690	0	35.6470	8	28.006	0	314.842	0	114.4	4	38.7	4	-1E+10	1	-1E+10	1	-1E+10	1	-1E+10	1	-1E+10	1	-1E+10	1
4901784	146	C	07/04/2019	10:48	-132.253	42.864	0	320.20	0	6.4350	0	35.6470	8	28.011	0	317.417	0	113.4	4	38.3	4	-1E+10	1	-1E+10	1	-1E+10	1	-1E+10	1	-1E+10	1	-1E+10	1
4901784	146	C	07/04/2019	10:48	-132.253	42.864	0	322.70	0	6.3930	0	35.6480	8	28.017	0	319.894	0	112.6	4	38.0	4	-1E+10	1	-1E+10	1	-1E+10	1	-1E+10	1	-1E+10	1	-1E+10	1
4901784	146	C	07/04/2019	10:48	-132.253	42.864	0	325.20	0	6.3670	0	35.6490	8	28.022	0	322.370	0	112.0	4	37.8	4	-1E+10	1	-1E+10	1	-1E+10	1	-1E+10	1	-1E+10	1	-1E+10	1
4901784	146	C	07/04/2019	10:48	-132.253	42.864	0	327.70	0	6.3520	0	35.6490	8	28.024	0	324.846	0	111.2	4	37.5	4	-1E+10	1	-1E+10	1	-1E+10	1	-1E+10	1	-1E+10	1	-1E+10	1
4901784	146	C	07/04/2019	10:48	-132.253	42.864	0	330.20	0	6.3410	0	35.6480	8	28.024	0	327.323	0	110.2	4	37.2	4	-1E+10	1	-1E+10	1	-1E+10	1	-1E+10	1	-1E+10	1	-1E+10	1
4901784	146	C	07/04/2019	10:48	-132.253	42.864	0	332.60	0	6.3050	0	35.6490	8	28.030	0	329.700	0	109.0	4	36.7	4	-1E+10	1	-1E+10	1	-1E+10	1	-1E+10	1	-1E+10	1	-1E+10	1
4901784	146	C	07/04/2019	10:48	-132.253	42.864	0	335.10	0	6.2860	0	35.6460	8	28.030	0	332.176	0	107.6	4	36.3	4	-1E+10	1	-1E+10	1	-1E+10	1	-1E+10	1	-1E+10	1	-1E+10	1
4901784	146	C	07/04/2019	10:48	-132.253	42.864	0	337.60	0	6.2200	0	35.6490	8	28.041	0	334.652	0	106.1	4	35.7	4	-1E+10	1	-1E+10	1	-1E+10	1	-1E+10	1	-1E+10	1	-1E+10	1
4901784	146	C	07/04/2019	10:48	-132.253	42.864	0	340.10	0	6.1860	0	35.6470	8	28.044	0	337.128	0	104.4	4	35.1	4	-1E+10	1	-1E+10	1	-1E+10	1	-1E+10	1	-1E+10	1	-1E+10	1
4901784	146	C	07/04/2019	10:48	-132.253	42.864	0	342.60	0	6.1050	0	35.6500	8	28.057	0	339.604	0	102.8	4	34.5	4	-1E+10	1	-1E+10	1	-1E+10	1	-1E+10	1	-1E+10	1	-1E+10	1
4901784	146	C	07/04/2019	10:48	-132.253	42.864	0	345.10	0	6.0370	0	35.6510	8	28.067	0	342.080	0	101.5	4	34.0	4	-1E+10	1	-1E+10	1	-1E+10	1	-1E+10	1	-1E+10	1	-1E+10	1
4901784	146	C	07/04/2019	10:48	-132.253	42.864	0	347.70	0	5.9930	0	35.6530	8	28.074	0	344.656	0	100.4	4	33.6	4	-1E+10	1	-1E+10	1	-1E+10	1	-1E+10	1	-1E+10	1	-1E+10	1
4901784	146	C	07/04/2019	10:48	-132.253	42.864	0	350.10	0	5.9580	0	35.6540	8	28.079	0	347.033	0	99.5	4	33.3	4	-1E+10	1	-1E+10	1	-1E+10	1	-1E+10	1	-1E+10	1	-1E+10	1
4901784	146	C	07/04/2019	10:48	-132.253	42.864	0	352.70	0	5.9180	0	35.6550	8	28.085	0	349.608	0	98.6	4	32.9	4	-1E+10	1	-1E+10	1	-1E+10	1	-1E+10	1	-1E+10	1	-1E+10	1
4901784	146	C	07/04/2019	10:48	-132.253	42.864	0	355.10	0	5.8890	0	35.6560	8	28.090	0	351.985	0	97.9	4	32.7	4	-1E+10	1	-1E+10	1	-1E+10	1	-1E+10	1	-1E+10	1	-1E+10	1
4901784	146	C	07/04/2019	10:48	-132.253	42.864	0	357.70	0	5.8800	0	35.6560	8	28.091	0	354.559	0	97.0	4	32.4	4	-1E+10	1	-1E+10	1	-1E+10	1	-1E+10	1	-1E+10	1	-1E+10	1
4901784	146	C	07/04/2019	10:48	-132.253	42.864	0	360.10	0	5.8380	0	35.6570	8	28.097	0	356.936	0	95.8	4	31.9	4	-1E+10	1	-1E+10	1	-1E+10	1	-1E+10	1	-1E+10	1	-1E+10	1
4901784	146	C	07/04/2019	10:48	-132.253	42.864	0	362.70	0	5.8090	0	35.6580	8	28.102	0	359.511	0	94.8	4	31.6	4	-1E+10	1	-1E+10	1	-1E+10	1	-1E+10	1	-1E+10	1	-1E+10	1
4901784	146	C	07/04/2019	10:48	-132.253	42.864	0	365.10	0	5.7820	0	35.6580	8	28.105	0	361.888	0	93.6	4	31.2	4	-1E+10	1	-1E+10	1	-1E+10	1	-1E+10	1	-1E+10	1	-1E+10	1
4901784	146	C	07/04/2019	10:48	-132.253	42.864	0	367.70	0	5.7390	0	35.6590	8	28.111	0	364.463	0	92.3	4	30.7	4	-1E+10	1	-1E+10	1	-1E+10	1	-1E+10	1	-1E+10	1	-1E+10	1
4901784	146	C	07/04/2019	10:48	-132.253	42.864	0	370.20	0	5.6820	0	35.6620	8	28.121	0	366.939	0	91.1	4	30.3	4	-1E+10	1	-1E+10	1	-1E+10	1	-1E+10	1	-1E+10	1	-1E+10	1
4901784	146	C	07/04/2019	10:48	-132.253	42.864	0	372.70	0	5.6500	0	35.6640	8	28.127	0	369.414	0	90.3	4	30.0	4	-1E+10	1	-1E+10	1	-1E+10	1	-1E+10	1	-1E+10	1	-1E+10	1
4901784	146	C	07/04/2019	10:48	-132.253	42.864	0	375.20	0	5.6320	0	35.6640	8	28.129	0	371.890	0	89.4	4	29.7	4	-1E+10	1	-1E+10	1	-1E+10	1	-1E+10	1	-1E+10	1	-1E+10	1
4901784	146	C	07/04/2019	10:48	-132.253	42.864	0	377.80	0	5.5930	0	35.6660	8	28.135	0	374.465	0	88.5	4	29.3	4	-1E+10	1	-1E+10	1	-1E+10	1	-1E+10	1	-1E+10	1	-1E+10	1
4901784	146	C	07/04/2019	10:48	-132.253	42.864	0	380.30	0	5.5640	0	35.6680	8	28.141	0	376.940	0	87.8	4	29.1	4	-1E+10	1	-1E+10	1	-1E+10	1	-1E+10	1	-1E+10	1	-1E+10	1
4901784	146	C	07/04/2019	10:48	-132.253	42.864	0	382.80	0	5.5550	0	35.6680	8	28.142	0	379.416	0	87.1	4	28.9	4	-1E+10	1	-1E+10	1	-1E+10	1	-1E+10	1	-1E+10	1	-1E+10	1
4901784	146	C	07/04/2019	10:48	-132.253	42.864	0	385.40	0	5.5360	0	35.6690	8	28.145	0	381.991	0	86.4	4	28.6	4	-1E+10	1	-1E+10	1	-1E+10	1	-1E+10	1	-1E+10	1	-1E+10	1
4901784	146	C	07/04/2019	10:48	-132.253	42.864	0	387.90	0	5.5100	0	35.6710	8	28.150	0	384.466	0	85.6	4	28.3	4	-1E+10	1	-1E+10	1	-1E+10	1	-1E+10	1	-1E+10	1	-1E+10	1
4901784	146	C	07/04/2019	10:48	-132.253	42.864	0	390.50	0	5.4990	0	35.6700	8	28.150	0	387.041	0	84.7	4	28.0	4	-1E+10	1	-1E+10	1	-1E+10	1	-1E+10	1	-1E+10	1	-1E+10	1
4901784	146	C	07/04/2019	10:48	-132.253	42.864	0	392.10	0	5.4780	0	35.6720	8	28.155	0	388.625	0	84.0	4	27.8	4	-1E+10	1	-1E+10	1	-1E+10	1	-1E+10	1	-1E+10	1	-1E+10	1
4901784	146	C	07/04/2019	10:48	-132.253	42.864	0	394.70	0	5.4510	0	35.6730	8	28.159	0	391.200	0	82.9	4	27.4	4	-1E+10	1	-1E+10	1	-1E+10	1	-1E+10	1	-1E+10	1	-1E+10	1
4901784	146	C	07/04/2019	10:48	-132.253	42.864	0	397.20	0	5.4050	0	35.6770	8	28.168	0	393.675	0	81.9	4	27.1	4	-1E+10	1	-1E+10	1	-1E+10	1	-1E+10	1	-1E+10	1	-1E+10	1
4901784	146	C	07/04/2019	10:48	-132.253	42.864	0	399.80	0	5.3810	0	35.6790	8	28.172	0	396.250	0	81.2	4	26.8	4	-1E+10	1	-1E+10	1	-1E+10	1	-1E+10	1	-1E+10	1	-1E+10	1
4901784	146	C	07/04/2019	10:48	-132.253	42.864	0	402.40	0	5.3630	0	35.6790	8	28.174	0	398.824	0	80.5	4	26.5	4	-1E+10	1	-1E+10	1	-1E+10	1	-1E+10	1	-1E+10	1	-1E+10	1
4901784	146	C	07/04/2019	10:48	-132.253	42.864	0	405.00	0	5.3490	0	35.6800	8	28.177	0	401.398	0	79.6	4	26.2	4	-1E+10	1	-1E+10	1	-1E+10	1	-1E+10	1	-1E+10	1	-1E+10	1
4901784	146	C	07/04/2019	10:48	-132.253	42.864	0	407.60	0	5.3140	0	35.6830	8	28.184	0	403.973	0	78.7	4	25.9	4	-1E+10	1	-1E+10	1	-1E+10	1	-1E+10	1	-1E+10	1	-1E+10	1
4901784	146	C	07/04/2019	10:48	-132.253	42.864	0	410.20	0	5.2950	0	35.6850	8	28.187	0	406.547	0	77.9	4	25.7	4	-1E+10	1	-1E+10	1	-1E+10	1	-1E+10	1	-1E+10	1	-1E+10	1
4901784	146	C	07/04/2019	10:48	-132.253	42.864	0	412.70	0	5.2710	0	35.6870	8	28.192	0	409.022	0	77.2	4	25.4	4	-1E+10	1	-1E+10	1	-1E+10	1	-1E+10	1	-1E+10	1	-1E+10	1
4901784	146	C	07/04/2019	10:48	-132.253	42.864	0	415.30	0	5.2640	0	35.6870	8	28.193	0	411.597	0	76.6	4	25.2	4	-1E+10	1	-1E+10	1	-1E+10	1	-1E+10	1	-1E+10	1	-1E+10	1
4901784	146	C	07/04/2019	10:48	-132.253	42.864	0	417.90	0	5.2340	0	35.6900	8	28.199	0	414.171	0	75.8	4	24.9	4	-1E+10	1	-1E+10	1	-1E+10	1	-1E+10	1	-1E+10	1	-1E+10	1
4901784	146	C	07/04/2019	10:48	-132.253	42.864	0	419.70	0	5.2200	0	35.6920	8	28.202	0	415.953	0	75.5	4	24.8	4	-1E+10	1	-1E+10	1	-1E+10	1	-1E+10	1	-1E+10	1	-1E+10	1
4901784	146	C	07/04/2019	10:48	-132.253	42.864	0	422.20	0	5.2140	0	35.6930	8	28.204	0	418.428	0	74.9	4	24.6	4	-1E+10	1	-1E+10	1	-1E+10	1	-1E+10	1	-1E+10	1	-1E+10	1
4901784	146	C	07/04/2019	10:48	-132.253	42.864	0	424.80	0	5.1990	0	35.6940	8	28.206	0	421.002	0	74.4	4	24.4	4	-1E+10	1	-1E+10	1	-1E+10	1	-1E+10	1	-1E+10	1	-1E+10	1
4901784	146	C	07/04/2019	10:48	-132.253	42.864	0	427.40	0	5.1750	0	35.6970	8	28.212	0	423.576	0	73.8	4	24.2	4	-1E+10	1	-1E+10	1	-1E+10	1	-1E+10	1	-1E+10	1	-1E+10	1
4901784	146	C	07/04/2019	10:48	-132.253	42.864	0	429.90	0	5.1700	0	35.6970	8	28.212	0	426.051	0	73.3	4	24.1	4	-1E+10	1	-1E+10	1	-1E+10	1	-1E+10	1	-1E+10	1	-1E+10	1
4901784	146	C	07/04/2019	10:48	-132.253	42.864	0	432.60	0	5.1530	0	35.7000	8	28.217	0	428.724	0	72.7	4	23.9	4	-1E+10	1	-1E+10	1	-1E+10	1	-1E+10	1	-1E+10	1	-1E+10	1
4901784	146	C	07/04/2019	10:48	-132.253	42.864	0	435.20	0	5.1420	0	35.7010	8	28.219	0	431.299	0	72.2	4	23.7	4	-1E+10	1	-1E+10	1	-1E+10	1	-1E+10	1	-1E+10	1	-1E+10	1
4901784	146	C	07/04/2019	10:48	-132.253	42.864	0	437.80	0	5.1390	0	35.7010	8	28.219	0	433.872	0	71.3	4	23.4	4	-1E+10	1	-1E+10	1	-1E+10	1	-1E+10	1	-1E+10	1	-1E+10	1
4901784	146	C	07/04/2019	10:48	-132.253	42.864	0	440.50	0	5.1230	0	35.7030	8	28.223	0	436.545	0	70.3	4	23.0	4	-1E+10	1	-1E+10	1	-1E+10	1	-1E+10	1	-1E+10	1	-1E+10	1
4901784	146	C	07/04/2019	10:48	-132.253	42.864	0	442.20	0	5.1100	0	35.7040	8	28.225	0	438.228	0	69.5	4	22.8	4	-1E+10	1	-1E+10	1	-1E+10	1	-1E+10	1	-1E+10	1	-1E+10	1
4901784	146	C	07/04/2019	10:48	-132.253	42.864	0	444.90	0	5.0780	0	35.7090	8	28.233	0	440.901	0	68.3	4	22.4	4	-1E+10	1	-1E+10	1	-1E+10	1	-1E+10	1	-1E+10	1	-1E+10	1
4901784	146	C	07/04/2019	10:48	-132.253	42.864	0	447.60	0	5.0540	0	35.7130	8	28.239	0	443.574	0	67.1	4	22.0	4	-1E+10	1	-1E+10	1	-1E+10	1	-1E+10	1	-1E+10	1	-1E+10	1
4901784	146	C	07/04/2019	10:48	-132.253	42.864	0	450.20	0	5.0380	0	35.7150	8	28.242	0	446.148	0	65.9	4	21.6	4	-1E+10	1	-1E+10	1	-1E+10	1	-1E+10	1	-1E+10	1	-1E+10	1
4901784	146	C	07/04/2019	10:48	-132.253	42.864	0	452.90	0	5.0130	0	35.7190	8	28.249	0	448.821	0	64.4	4	21.1	4	-1E+10	1	-1E+10	1	-1E+10	1	-1E+10	1	-1E+10	1	-1E+10	1
4901784	146	C	07/04/2019	10:48	-132.253	42.864	0	454.70	0	4.9960	0	35.7210	8	28.252	0	450.603	0	63.4	4	20.7	4	-1E+10	1	-1E+10	1	-1E+10	1	-1E+10	1	-1E+10	1	-1E+10	1
4901784	146	C	07/04/2019	10:48	-132.253	42.864	0	457.30	0	4.9660	0	35.7270	8	28.260	0	453.176	0	61.9	4	20.2	4	-1E+10	1	-1E+10	1	-1E+10	1	-1E+10	1	-1E+10	1	-1E+10	1
4901784	146	C	07/04/2019	10:48	-132.253	42.864	0	460.00	0	4.9470	0	35.7310	8	28.266	0	455.849	0	60.5	4	19.8	4	-1E+10	1	-1E+10	1	-1E+10	1	-1E+10	1	-1E+10	1	-1E+10	1
4901784	146	C	07/04/2019	10:48	-132.253	42.864	0	462.70	0	4.9280	0	35.7350	8	28.271	0	458.522	0	59.1	4	19.3	4	-1E+10	1	-1E+10	1	-1E+10	1	-1E+10	1	-1E+10	1	-1E+10	1
4901784	146	C	07/04/2019	10:48	-132.253	42.864	0	465.40	0	4.9070	0	35.7400	8	28.278	0	461.194	0	57.5	4	18.8	4	-1E+10	1	-1E+10	1	-1E+10	1	-1E+10	1	-1E+10	1	-1E+10	1
4901784	146	C	07/04/2019	10:48	-132.253	42.864	0	467.10	0	4.9000	0	35.7410	8	28.279	0	462.877	0	56.4	4	18.4	4	-1E+10	1	-1E+10	1	-1E+10	1	-1E+10	1	-1E+10	1	-1E+10	1
4901784	146	C	07/04/2019	10:48	-132.253	42.864	0	469.90	0	4.8820	0	35.7520	8	28.290	0	465.649	0	55.0	4	17.9	4	-1E+10	1	-1E+10	1	-1E+10	1	-1E+10	1	-1E+10	1	-1E+10	1
4901784	146	C	07/04/2019	10:48	-132.253	42.864	0	472.60	0	4.8720	0	35.7560	8	28.295	0	468.321	0	53.9	4	17.6	4	-1E+10	1	-1E+10	1	-1E+10	1	-1E+10	1	-1E+10	1	-1E+10	1
4901784	146	C	07/04/2019	10:48	-132.253	42.864	0	475.20	0	4.8730	0	35.7590	8	28.297	0	470.895	0	52.8	4	17.2	4	-1E+10	1	-1E+10	1	-1E+10	1	-1E+10	1	-1E+10	1	-1E+10	1
4901784	146	C	07/04/2019	10:48	-132.253	42.864	0	477.90	0	4.8660	0	35.7620	8	28.300	0	473.567	0	51.8	4	16.9	4	-1E+10	1	-1E+10	1	-1E+10	1	-1E+10	1	-1E+10	1	-1E+10	1
4901784	146	C	07/04/2019	10:48	-132.253	42.864	0	479.70	0	4.8630	0	35.7630	8	28.301	0	475.349	0	51.1	4	16.7	4	-1E+10	1	-1E+10	1	-1E+10	1	-1E+10	1	-1E+10	1	-1E+10	1
4901784	146	C	07/04/2019	10:48	-132.253	42.864	0	482.50	0	4.8650	0	35.7650	8	28.303	0	478.120	0	49.6	4	16.2	4	-1E+10	1	-1E+10	1	-1E+10	1	-1E+10	1	-1E+10	1	-1E+10	1
4901784	146	C	07/04/2019	10:48	-132.253	42.864	0	485.20	0	4.8510	0	35.7730	8	28.311	0	480.792	0	48.2	4	15.7	4	-1E+10	1	-1E+10	1	-1E+10	1	-1E+10	1	-1E+10	1	-1E+10	1
4901784	146	C	07/04/2019	10:48	-132.253	42.864	0	487.10	0	4.8190	0	35.7760	8	28.317	0	482.673	0	47.4	4	15.4	4	-1E+10	1	-1E+10	1	-1E+10	1	-1E+10	1	-1E+10	1	-1E+10	1
4901784	146	C	07/04/2019	10:48	-132.253	42.864	0	489.90	0	4.8280	0	35.7820	8	28.321	0	485.444	0	45.7	4	14.9	4	-1E+10	1	-1E+10	1	-1E+10	1	-1E+10	1	-1E+10	1	-1E+10	1
4901784	146	C	07/04/2019	10:48	-132.253	42.864	0	492.80	0	4.8400	0	35.7890	8	28.325	0	488.314	0	44.6	4	14.6	4	-1E+10	1	-1E+10	1	-1E+10	1	-1E+10	1	-1E+10	1	-1E+10	1
4901784	146	C	07/04/2019	10:48	-132.253	42.864	0	494.60	0	4.8300	0	35.7900	8	28.327	0	490.096	0	44.3	4	14.4	4	-1E+10	1	-1E+10	1	-1E+10	1	-1E+10	1	-1E+10	1	-1E+10	1
4901784	146	C	07/04/2019	10:48	-132.253	42.864	0	497.00	0	4.8180	0	35.7920	8	28.330	0	492.471	0	43.7	4	14.2	4	-1E+10	1	-1E+10	1	-1E+10	1	-1E+10	1	-1E+10	1	-1E+10	1
4901784	146	C	07/04/2019	10:48	-132.253	42.864	0	499.60	0	4.8050	0	35.7970	8	28.335	0	495.044	0	42.6	4	13.9	4	-1E+10	1	-1E+10	1	-1E+10	1	-1E+10	1	-1E+10	1	-1E+10	1
4901784	146	C	07/04/2019	10:48	-132.253	42.864	0	505.10	0	4.7730	0	35.8030	8	28.344	0	500.488	0	40.5	4	13.2	4	-1E+10	1	-1E+10	1	-1E+10	1	-1E+10	1	-1E+10	1	-1E+10	1
4901784	146	C	07/04/2019	10:48	-132.253	42.864	0	509.80	0	4.7600	0	35.8140	8	28.354	0	505.139	0	38.0	4	12.4	4	-1E+10	1	-1E+10	1	-1E+10	1	-1E+10	1	-1E+10	1	-1E+10	1
4901784	146	C	07/04/2019	10:48	-132.253	42.864	0	514.60	0	4.7700	0	35.8240	8	28.361	0	509.889	0	36.1	4	11.8	4	-1E+10	1	-1E+10	1	-1E+10	1	-1E+10	1	-1E+10	1	-1E+10	1
4901784	146	C	07/04/2019	10:48	-132.253	42.864	0	519.50	0	4.7650	0	35.8290	8	28.365	0	514.738	0	35.2	4	11.4	4	-1E+10	1	-1E+10	1	-1E+10	1	-1E+10	1	-1E+10	1	-1E+10	1
4901784	146	C	07/04/2019	10:48	-132.253	42.864	0	524.40	0	4.7500	0	35.8350	8	28.372	0	519.587	0	34.1	4	11.1	4	-1E+10	1	-1E+10	1	-1E+10	1	-1E+10	1	-1E+10	1	-1E+10	1
4901784	146	C	07/04/2019	10:48	-132.253	42.864	0	529.40	0	4.7430	0	35.8400	8	28.377	0	524.535	0	33.2	4	10.8	4	-1E+10	1	-1E+10	1	-1E+10	1	-1E+10	1	-1E+10	1	-1E+10	1
4901784	146	C	07/04/2019	10:48	-132.253	42.864	0	534.30	0	4.7270	0	35.8440	8	28.382	0	529.384	0	32.5	4	10.6	4	-1E+10	1	-1E+10	1	-1E+10	1	-1E+10	1	-1E+10	1	-1E+10	1
4901784	146	C	07/04/2019	10:48	-132.253	42.864	0	539.40	0	4.7030	0	35.8490	8	28.389	0	534.430	0	31.8	4	10.3	4	-1E+10	1	-1E+10	1	-1E+10	1	-1E+10	1	-1E+10	1	-1E+10	1
4901784	146	C	07/04/2019	10:48	-132.253	42.864	0	544.50	0	4.6910	0	35.8520	8	28.392	0	539.477	0	31.2	4	10.1	4	-1E+10	1	-1E+10	1	-1E+10	1	-1E+10	1	-1E+10	1	-1E+10	1
4901784	146	C	07/04/2019	10:48	-132.253	42.864	0	549.40	0	4.6680	0	35.8580	8	28.400	0	544.325	0	30.5	4	9.9	4	-1E+10	1	-1E+10	1	-1E+10	1	-1E+10	1	-1E+10	1	-1E+10	1
4901784	146	C	07/04/2019	10:48	-132.253	42.864	0	554.50	0	4.6600	0	35.8610	8	28.403	0	549.371	0	30.0	4	9.7	4	-1E+10	1	-1E+10	1	-1E+10	1	-1E+10	1	-1E+10	1	-1E+10	1
4901784	146	C	07/04/2019	10:48	-132.253	42.864	0	559.60	0	4.6470	0	35.8640	8	28.407	0	554.417	0	29.5	4	9.6	4	-1E+10	1	-1E+10	1	-1E+10	1	-1E+10	1	-1E+10	1	-1E+10	1
4901784	146	C	07/04/2019	10:48	-132.253	42.864	0	564.70	0	4.6330	0	35.8670	8	28.411	0	559.463	0	28.9	4	9.4	4	-1E+10	1	-1E+10	1	-1E+10	1	-1E+10	1	-1E+10	1	-1E+10	1
4901784	146	C	07/04/2019	10:48	-132.253	42.864	0	569.90	0	4.6020	0	35.8720	8	28.419	0	564.608	0	28.8	4	9.3	4	-1E+10	1	-1E+10	1	-1E+10	1	-1E+10	1	-1E+10	1	-1E+10	1
4901784	146	C	07/04/2019	10:48	-132.253	42.864	0	575.10	0	4.5490	0	35.8730	8	28.426	0	569.753	0	28.9	4	9.4	4	-1E+10	1	-1E+10	1	-1E+10	1	-1E+10	1	-1E+10	1	-1E+10	1
4901784	146	C	07/04/2019	10:48	-132.253	42.864	0	580.50	0	4.5100	0	35.8770	8	28.433	0	575.095	0	28.4	4	9.2	4	-1E+10	1	-1E+10	1	-1E+10	1	-1E+10	1	-1E+10	1	-1E+10	1
4901784	146	C	07/04/2019	10:48	-132.253	42.864	0	585.00	0	4.4980	0	35.8830	8	28.439	0	579.547	0	27.9	4	9.0	4	-1E+10	1	-1E+10	1	-1E+10	1	-1E+10	1	-1E+10	1	-1E+10	1
4901784	146	C	07/04/2019	10:48	-132.253	42.864	0	589.50	0	4.4800	0	35.8840	8	28.442	0	583.998	0	27.7	4	8.9	4	-1E+10	1	-1E+10	1	-1E+10	1	-1E+10	1	-1E+10	1	-1E+10	1
4901784	146	C	07/04/2019	10:48	-132.253	42.864	0	594.90	0	4.4600	0	35.8930	8	28.452	0	589.340	0	26.8	4	8.7	4	-1E+10	1	-1E+10	1	-1E+10	1	-1E+10	1	-1E+10	1	-1E+10	1
4901784	146	C	07/04/2019	10:48	-132.253	42.864	0	600.40	0	4.4350	0	35.9020	8	28.462	0	594.781	0	25.4	4	8.2	4	-1E+10	1	-1E+10	1	-1E+10	1	-1E+10	1	-1E+10	1	-1E+10	1
4901784	146	C	07/04/2019	10:48	-132.253	42.864	0	605.00	0	4.4490	0	35.9080	8	28.465	0	599.332	0	24.2	4	7.8	4	-1E+10	1	-1E+10	1	-1E+10	1	-1E+10	1	-1E+10	1	-1E+10	1
4901784	146	C	07/04/2019	10:48	-132.253	42.864	0	609.50	0	4.4750	0	35.9170	8	28.469	0	603.783	0	23.7	4	7.7	4	-1E+10	1	-1E+10	1	-1E+10	1	-1E+10	1	-1E+10	1	-1E+10	1
4901784	146	C	07/04/2019	10:48	-132.253	42.864	0	614.90	0	4.4220	0	35.9150	8	28.474	0	609.124	0	24.4	4	7.9	4	-1E+10	1	-1E+10	1	-1E+10	1	-1E+10	1	-1E+10	1	-1E+10	1
4901784	146	C	07/04/2019	10:48	-132.253	42.864	0	620.40	0	4.3460	0	35.9150	8	28.482	0	614.565	0	24.3	4	7.8	4	-1E+10	1	-1E+10	1	-1E+10	1	-1E+10	1	-1E+10	1	-1E+10	1
4901784	146	C	07/04/2019	10:48	-132.253	42.864	0	625.00	0	4.3340	0	35.9220	8	28.489	0	619.114	0	23.4	4	7.5	4	-1E+10	1	-1E+10	1	-1E+10	1	-1E+10	1	-1E+10	1	-1E+10	1
4901784	146	C	07/04/2019	10:48	-132.253	42.864	0	629.60	0	4.3280	0	35.9270	8	28.494	0	623.664	0	22.9	4	7.4	4	-1E+10	1	-1E+10	1	-1E+10	1	-1E+10	1	-1E+10	1	-1E+10	1
4901784	146	C	07/04/2019	10:48	-132.253	42.864	0	635.10	0	4.2960	0	35.9310	8	28.500	0	629.104	0	22.5	4	7.3	4	-1E+10	1	-1E+10	1	-1E+10	1	-1E+10	1	-1E+10	1	-1E+10	1
4901784	146	C	07/04/2019	10:48	-132.253	42.864	0	639.80	0	4.2870	0	35.9340	8	28.504	0	633.753	0	22.0	4	7.1	4	-1E+10	1	-1E+10	1	-1E+10	1	-1E+10	1	-1E+10	1	-1E+10	1
4901784	146	C	07/04/2019	10:48	-132.253	42.864	0	644.50	0	4.2700	0	35.9410	8	28.511	0	638.401	0	21.5	4	6.9	4	-1E+10	1	-1E+10	1	-1E+10	1	-1E+10	1	-1E+10	1	-1E+10	1
4901784	146	C	07/04/2019	10:48	-132.253	42.864	0	650.20	0	4.2560	0	35.9460	8	28.517	0	644.038	0	21.2	4	6.8	4	-1E+10	1	-1E+10	1	-1E+10	1	-1E+10	1	-1E+10	1	-1E+10	1
4901784	146	C	07/04/2019	10:48	-132.253	42.864	0	654.80	0	4.2200	0	35.9500	8	28.524	0	648.587	0	21.2	4	6.8	4	-1E+10	1	-1E+10	1	-1E+10	1	-1E+10	1	-1E+10	1	-1E+10	1
4901784	146	C	07/04/2019	10:48	-132.253	42.864	0	659.60	0	4.1990	0	35.9550	8	28.530	0	653.334	0	21.1	4	6.8	4	-1E+10	1	-1E+10	1	-1E+10	1	-1E+10	1	-1E+10	1	-1E+10	1
4901784	146	C	07/04/2019	10:48	-132.253	42.864	0	665.30	0	4.1760	0	35.9570	8	28.534	0	658.971	0	20.8	4	6.7	4	-1E+10	1	-1E+10	1	-1E+10	1	-1E+10	1	-1E+10	1	-1E+10	1
4901784	146	C	07/04/2019	10:48	-132.253	42.864	0	670.00	0	4.1530	0	35.9610	8	28.540	0	663.619	0	20.3	4	6.5	4	-1E+10	1	-1E+10	1	-1E+10	1	-1E+10	1	-1E+10	1	-1E+10	1
4901784	146	C	07/04/2019	10:48	-132.253	42.864	0	674.80	0	4.1480	0	35.9660	8	28.545	0	668.366	0	19.6	4	6.3	4	-1E+10	1	-1E+10	1	-1E+10	1	-1E+10	1	-1E+10	1	-1E+10	1
4901784	146	C	07/04/2019	10:48	-132.253	42.864	0	680.40	0	4.1330	0	35.9720	8	28.551	0	673.903	0	18.9	4	6.1	4	-1E+10	1	-1E+10	1	-1E+10	1	-1E+10	1	-1E+10	1	-1E+10	1
4901784	146	C	07/04/2019	10:48	-132.253	42.864	0	685.20	0	4.1130	0	35.9770	8	28.557	0	678.650	0	18.6	4	6.0	4	-1E+10	1	-1E+10	1	-1E+10	1	-1E+10	1	-1E+10	1	-1E+10	1
4901784	146	C	07/04/2019	10:48	-132.253	42.864	0	690.00	0	4.0920	0	35.9820	8	28.564	0	683.396	0	18.1	4	5.8	4	-1E+10	1	-1E+10	1	-1E+10	1	-1E+10	1	-1E+10	1	-1E+10	1
4901784	146	C	07/04/2019	10:48	-132.253	42.864	0	695.50	0	4.0760	0	35.9890	8	28.571	0	688.834	0	17.3	4	5.6	4	-1E+10	1	-1E+10	1	-1E+10	1	-1E+10	1	-1E+10	1	-1E+10	1
4901784	146	C	07/04/2019	10:48	-132.253	42.864	0	700.40	0	4.0670	0	35.9950	8	28.577	0	693.679	0	16.7	4	5.4	4	-1E+10	1	-1E+10	1	-1E+10	1	-1E+10	1	-1E+10	1	-1E+10	1
4901784	146	C	07/04/2019	10:48	-132.253	42.864	0	705.40	0	4.0640	0	36.0010	8	28.582	0	698.623	0	15.8	4	5.1	4	-1E+10	1	-1E+10	1	-1E+10	1	-1E+10	1	-1E+10	1	-1E+10	1
4901784	146	C	07/04/2019	10:48	-132.253	42.864	0	710.30	0	4.0730	0	36.0130	8	28.591	0	703.467	0	15.1	4	4.8	4	-1E+10	1	-1E+10	1	-1E+10	1	-1E+10	1	-1E+10	1	-1E+10	1
4901784	146	C	07/04/2019	10:48	-132.253	42.864	0	715.10	0	4.0540	0	36.0170	8	28.596	0	708.213	0	14.8	4	4.8	4	-1E+10	1	-1E+10	1	-1E+10	1	-1E+10	1	-1E+10	1	-1E+10	1
4901784	146	C	07/04/2019	10:48	-132.253	42.864	0	720.00	0	4.0410	0	36.0230	8	28.602	0	713.057	0	14.6	4	4.7	4	-1E+10	1	-1E+10	1	-1E+10	1	-1E+10	1	-1E+10	1	-1E+10	1
4901784	146	C	07/04/2019	10:48	-132.253	42.864	0	725.00	0	4.0160	0	36.0260	8	28.607	0	718.001	0	14.4	4	4.6	4	-1E+10	1	-1E+10	1	-1E+10	1	-1E+10	1	-1E+10	1	-1E+10	1
4901784	146	C	07/04/2019	10:48	-132.253	42.864	0	730.00	0	4.0340	0	36.0330	8	28.611	0	722.944	0	13.9	4	4.5	4	-1E+10	1	-1E+10	1	-1E+10	1	-1E+10	1	-1E+10	1	-1E+10	1
4901784	146	C	07/04/2019	10:48	-132.253	42.864	0	734.80	0	4.0100	0	36.0370	8	28.617	0	727.689	0	13.8	4	4.4	4	-1E+10	1	-1E+10	1	-1E+10	1	-1E+10	1	-1E+10	1	-1E+10	1
4901784	146	C	07/04/2019	10:48	-132.253	42.864	0	739.80	0	4.0040	0	36.0390	8	28.619	0	732.632	0	13.8	4	4.4	4	-1E+10	1	-1E+10	1	-1E+10	1	-1E+10	1	-1E+10	1	-1E+10	1
4901784	146	C	07/04/2019	10:48	-132.253	42.864	0	744.80	0	3.9600	0	36.0420	8	28.626	0	737.574	0	13.8	4	4.4	4	-1E+10	1	-1E+10	1	-1E+10	1	-1E+10	1	-1E+10	1	-1E+10	1
4901784	146	C	07/04/2019	10:48	-132.253	42.864	0	749.70	0	3.9410	0	36.0460	8	28.631	0	742.418	0	13.5	4	4.3	4	-1E+10	1	-1E+10	1	-1E+10	1	-1E+10	1	-1E+10	1	-1E+10	1
4901784	146	C	07/04/2019	10:48	-132.253	42.864	0	754.70	0	3.9520	0	36.0520	8	28.635	0	747.361	0	13.1	4	4.2	4	-1E+10	1	-1E+10	1	-1E+10	1	-1E+10	1	-1E+10	1	-1E+10	1
4901784	146	C	07/04/2019	10:48	-132.253	42.864	0	759.70	0	3.9440	0	36.0560	8	28.639	0	752.303	0	12.8	4	4.1	4	-1E+10	1	-1E+10	1	-1E+10	1	-1E+10	1	-1E+10	1	-1E+10	1
4901784	146	C	07/04/2019	10:48	-132.253	42.864	0	764.70	0	3.9290	0	36.0630	8	28.646	0	757.245	0	12.5	4	4.0	4	-1E+10	1	-1E+10	1	-1E+10	1	-1E+10	1	-1E+10	1	-1E+10	1
4901784	146	C	07/04/2019	10:48	-132.253	42.864	0	769.70	0	3.9340	0	36.0690	8	28.650	0	762.187	0	12.2	4	3.9	4	-1E+10	1	-1E+10	1	-1E+10	1	-1E+10	1	-1E+10	1	-1E+10	1
4901784	146	C	07/04/2019	10:48	-132.253	42.864	0	774.60	0	3.9240	0	36.0750	8	28.656	0	767.031	0	12.0	4	3.8	4	-1E+10	1	-1E+10	1	-1E+10	1	-1E+10	1	-1E+10	1	-1E+10	1
4901784	146	C	07/04/2019	10:48	-132.253	42.864	0	779.70	0	3.9050	0	36.0820	8	28.664	0	772.071	0	11.8	4	3.8	4	-1E+10	1	-1E+10	1	-1E+10	1	-1E+10	1	-1E+10	1	-1E+10	1
4901784	146	C	07/04/2019	10:48	-132.253	42.864	0	784.90	0	3.8910	0	36.0840	8	28.667	0	777.211	0	11.9	4	3.8	4	-1E+10	1	-1E+10	1	-1E+10	1	-1E+10	1	-1E+10	1	-1E+10	1
4901784	146	C	07/04/2019	10:48	-132.253	42.864	0	790.10	0	3.8760	0	36.0820	8	28.667	0	782.350	0	12.0	4	3.8	4	-1E+10	1	-1E+10	1	-1E+10	1	-1E+10	1	-1E+10	1	-1E+10	1
4901784	146	C	07/04/2019	10:48	-132.253	42.864	0	795.30	0	3.8160	0	36.0850	8	28.676	0	787.489	0	12.0	4	3.8	4	-1E+10	1	-1E+10	1	-1E+10	1	-1E+10	1	-1E+10	1	-1E+10	1
4901784	146	C	07/04/2019	10:48	-132.253	42.864	0	800.40	0	3.7990	0	36.0920	8	28.683	0	792.529	0	11.8	4	3.8	4	-1E+10	1	-1E+10	1	-1E+10	1	-1E+10	1	-1E+10	1	-1E+10	1
4901784	146	C	07/04/2019	10:48	-132.253	42.864	0	805.60	0	3.7840	0	36.0950	8	28.687	0	797.668	0	11.7	4	3.7	4	-1E+10	1	-1E+10	1	-1E+10	1	-1E+10	1	-1E+10	1	-1E+10	1
4901784	146	C	07/04/2019	10:48	-132.253	42.864	0	810.10	0	3.7770	0	36.0960	8	28.689	0	802.115	0	11.7	4	3.7	4	-1E+10	1	-1E+10	1	-1E+10	1	-1E+10	1	-1E+10	1	-1E+10	1
4901784	146	C	07/04/2019	10:48	-132.253	42.864	0	814.50	0	3.7460	0	36.0990	8	28.694	0	806.464	0	11.6	4	3.7	4	-1E+10	1	-1E+10	1	-1E+10	1	-1E+10	1	-1E+10	1	-1E+10	1
4901784	146	C	07/04/2019	10:48	-132.253	42.864	0	819.90	0	3.7340	0	36.1040	8	28.700	0	811.800	0	11.4	4	3.6	4	-1E+10	1	-1E+10	1	-1E+10	1	-1E+10	1	-1E+10	1	-1E+10	1
4901784	146	C	07/04/2019	10:48	-132.253	42.864	0	825.20	0	3.7360	0	36.1100	8	28.704	0	817.037	0	11.3	4	3.6	4	-1E+10	1	-1E+10	1	-1E+10	1	-1E+10	1	-1E+10	1	-1E+10	1
4901784	146	C	07/04/2019	10:48	-132.253	42.864	0	830.60	0	3.7320	0	36.1130	8	28.707	0	822.373	0	11.2	4	3.6	4	-1E+10	1	-1E+10	1	-1E+10	1	-1E+10	1	-1E+10	1	-1E+10	1
4901784	146	C	07/04/2019	10:48	-132.253	42.864	0	835.10	0	3.7240	0	36.1150	8	28.710	0	826.820	0	11.1	4	3.5	4	-1E+10	1	-1E+10	1	-1E+10	1	-1E+10	1	-1E+10	1	-1E+10	1
4901784	146	C	07/04/2019	10:48	-132.253	42.864	0	839.70	0	3.7230	0	36.1190	8	28.713	0	831.365	0	11.0	4	3.5	4	-1E+10	1	-1E+10	1	-1E+10	1	-1E+10	1	-1E+10	1	-1E+10	1
4901784	146	C	07/04/2019	10:48	-132.253	42.864	0	845.20	0	3.7300	0	36.1240	8	28.716	0	836.799	0	10.9	4	3.5	4	-1E+10	1	-1E+10	1	-1E+10	1	-1E+10	1	-1E+10	1	-1E+10	1
4901784	146	C	07/04/2019	10:48	-132.253	42.864	0	849.80	0	3.7160	0	36.1260	8	28.719	0	841.344	0	10.8	4	3.4	4	-1E+10	1	-1E+10	1	-1E+10	1	-1E+10	1	-1E+10	1	-1E+10	1
4901784	146	C	07/04/2019	10:48	-132.253	42.864	0	854.50	0	3.7070	0	36.1310	8	28.724	0	845.988	0	10.7	4	3.4	4	-1E+10	1	-1E+10	1	-1E+10	1	-1E+10	1	-1E+10	1	-1E+10	1
4901784	146	C	07/04/2019	10:48	-132.253	42.864	0	859.80	0	3.7290	0	36.1380	8	28.728	0	851.224	0	10.6	4	3.4	4	-1E+10	1	-1E+10	1	-1E+10	1	-1E+10	1	-1E+10	1	-1E+10	1
4901784	146	C	07/04/2019	10:48	-132.253	42.864	0	864.50	0	3.7040	0	36.1400	8	28.732	0	855.868	0	10.6	4	3.4	4	-1E+10	1	-1E+10	1	-1E+10	1	-1E+10	1	-1E+10	1	-1E+10	1
4901784	146	C	07/04/2019	10:48	-132.253	42.864	0	869.30	0	3.6790	0	36.1430	8	28.737	0	860.610	0	10.5	4	3.3	4	-1E+10	1	-1E+10	1	-1E+10	1	-1E+10	1	-1E+10	1	-1E+10	1
4901784	146	C	07/04/2019	10:48	-132.253	42.864	0	875.00	0	3.6670	0	36.1470	8	28.741	0	866.241	0	10.4	4	3.3	4	-1E+10	1	-1E+10	1	-1E+10	1	-1E+10	1	-1E+10	1	-1E+10	1
4901784	146	C	07/04/2019	10:48	-132.253	42.864	0	880.70	0	3.6730	0	36.1550	8	28.747	0	871.872	0	10.3	4	3.3	4	-1E+10	1	-1E+10	1	-1E+10	1	-1E+10	1	-1E+10	1	-1E+10	1
4901784	146	C	07/04/2019	10:48	-132.253	42.864	0	885.50	0	3.6640	0	36.1580	8	28.751	0	876.614	0	10.3	4	3.3	4	-1E+10	1	-1E+10	1	-1E+10	1	-1E+10	1	-1E+10	1	-1E+10	1
4901784	146	C	07/04/2019	10:48	-132.253	42.864	0	890.40	0	3.6440	0	36.1610	8	28.755	0	881.455	0	10.3	4	3.3	4	-1E+10	1	-1E+10	1	-1E+10	1	-1E+10	1	-1E+10	1	-1E+10	1
4901784	146	C	07/04/2019	10:48	-132.253	42.864	0	895.40	0	3.6260	0	36.1620	8	28.758	0	886.394	0	10.3	4	3.3	4	-1E+10	1	-1E+10	1	-1E+10	1	-1E+10	1	-1E+10	1	-1E+10	1
4901784	146	C	07/04/2019	10:48	-132.253	42.864	0	900.40	0	3.6060	0	36.1650	8	28.762	0	891.333	0	10.3	4	3.3	4	-1E+10	1	-1E+10	1	-1E+10	1	-1E+10	1	-1E+10	1	-1E+10	1
4901784	146	C	07/04/2019	10:48	-132.253	42.864	0	905.50	0	3.5990	0	36.1680	8	28.765	0	896.371	0	10.3	4	3.3	4	-1E+10	1	-1E+10	1	-1E+10	1	-1E+10	1	-1E+10	1	-1E+10	1
4901784	146	C	07/04/2019	10:48	-132.253	42.864	0	910.50	0	3.5920	0	36.1700	8	28.768	0	901.310	0	10.2	4	3.3	4	-1E+10	1	-1E+10	1	-1E+10	1	-1E+10	1	-1E+10	1	-1E+10	1
4901784	146	C	07/04/2019	10:48	-132.253	42.864	0	915.70	0	3.5800	0	36.1740	8	28.772	0	906.446	0	10.2	4	3.2	4	-1E+10	1	-1E+10	1	-1E+10	1	-1E+10	1	-1E+10	1	-1E+10	1
4901784	146	C	07/04/2019	10:48	-132.253	42.864	0	920.10	0	3.5790	0	36.1750	8	28.773	0	910.792	0	10.2	4	3.2	4	-1E+10	1	-1E+10	1	-1E+10	1	-1E+10	1	-1E+10	1	-1E+10	1
4901784	146	C	07/04/2019	10:48	-132.253	42.864	0	924.40	0	3.5670	0	36.1770	8	28.776	0	915.039	0	10.2	4	3.2	4	-1E+10	1	-1E+10	1	-1E+10	1	-1E+10	1	-1E+10	1	-1E+10	1
4901784	146	C	07/04/2019	10:48	-132.253	42.864	0	929.70	0	3.5630	0	36.1810	8	28.780	0	920.274	0	10.2	4	3.2	4	-1E+10	1	-1E+10	1	-1E+10	1	-1E+10	1	-1E+10	1	-1E+10	1
4901784	146	C	07/04/2019	10:48	-132.253	42.864	0	934.90	0	3.5630	0	36.1830	8	28.781	0	925.409	0	10.2	4	3.2	4	-1E+10	1	-1E+10	1	-1E+10	1	-1E+10	1	-1E+10	1	-1E+10	1
4901784	146	C	07/04/2019	10:48	-132.253	42.864	0	940.20	0	3.5510	0	36.1850	8	28.784	0	930.644	0	10.2	4	3.2	4	-1E+10	1	-1E+10	1	-1E+10	1	-1E+10	1	-1E+10	1	-1E+10	1
4901784	146	C	07/04/2019	10:48	-132.253	42.864	0	945.40	0	3.5430	0	36.1870	8	28.786	0	935.779	0	10.2	4	3.2	4	-1E+10	1	-1E+10	1	-1E+10	1	-1E+10	1	-1E+10	1	-1E+10	1
4901784	146	C	07/04/2019	10:48	-132.253	42.864	0	950.60	0	3.5360	0	36.1880	8	28.788	0	940.915	0	10.2	4	3.2	4	-1E+10	1	-1E+10	1	-1E+10	1	-1E+10	1	-1E+10	1	-1E+10	1
4901784	146	C	07/04/2019	10:48	-132.253	42.864	0	955.00	0	3.5310	0	36.1910	8	28.791	0	945.260	0	10.2	4	3.2	4	-1E+10	1	-1E+10	1	-1E+10	1	-1E+10	1	-1E+10	1	-1E+10	1
4901784	146	C	07/04/2019	10:48	-132.253	42.864	0	959.50	0	3.5240	0	36.1940	8	28.794	0	949.704	0	10.2	4	3.2	4	-1E+10	1	-1E+10	1	-1E+10	1	-1E+10	1	-1E+10	1	-1E+10	1
4901784	146	C	07/04/2019	10:48	-132.253	42.864	0	964.70	0	3.5120	0	36.1990	8	28.799	0	954.839	0	10.3	4	3.3	4	-1E+10	1	-1E+10	1	-1E+10	1	-1E+10	1	-1E+10	1	-1E+10	1
4901784	146	C	07/04/2019	10:48	-132.253	42.864	0	970.00	0	3.5070	0	36.2020	8	28.802	0	960.073	0	10.3	4	3.3	4	-1E+10	1	-1E+10	1	-1E+10	1	-1E+10	1	-1E+10	1	-1E+10	1
4901784	146	C	07/04/2019	10:48	-132.253	42.864	0	975.40	0	3.5000	0	36.2040	8	28.805	0	965.405	0	10.3	4	3.3	4	-1E+10	1	-1E+10	1	-1E+10	1	-1E+10	1	-1E+10	1	-1E+10	1
4901784	146	C	07/04/2019	10:48	-132.253	42.864	0	980.70	0	3.4860	0	36.2060	8	28.808	0	970.638	0	10.3	4	3.3	4	-1E+10	1	-1E+10	1	-1E+10	1	-1E+10	1	-1E+10	1	-1E+10	1
4901784	146	C	07/04/2019	10:48	-132.253	42.864	0	985.20	0	3.4790	0	36.2100	8	28.812	0	975.082	0	10.4	4	3.3	4	-1E+10	1	-1E+10	1	-1E+10	1	-1E+10	1	-1E+10	1	-1E+10	1
4901784	146	C	07/04/2019	10:48	-132.253	42.864	0	989.70	0	3.4730	0	36.2120	8	28.814	0	979.525	0	10.4	4	3.3	4	-1E+10	1	-1E+10	1	-1E+10	1	-1E+10	1	-1E+10	1	-1E+10	1
4901784	146	C	07/04/2019	10:48	-132.253	42.864	0	995.10	0	3.4640	0	36.2140	8	28.816	0	984.857	0	10.4	4	3.3	4	-1E+10	1	-1E+10	1	-1E+10	1	-1E+10	1	-1E+10	1	-1E+10	1
4901784	146	C	07/04/2019	10:48	-132.253	42.864	0	1000.60	0	3.4500	0	36.2160	8	28.819	0	990.287	0	10.5	4	3.3	4	-1E+10	1	-1E+10	1	-1E+10	1	-1E+10	1	-1E+10	1	-1E+10	1
4901784	146	C	07/04/2019	10:48	-132.253	42.864	0	1005.10	0	3.4370	0	36.2180	8	28.822	0	994.730	0	10.5	4	3.3	4	-1E+10	1	-1E+10	1	-1E+10	1	-1E+10	1	-1E+10	1	-1E+10	1
4901784	146	C	07/04/2019	10:48	-132.253	42.864	0	1009.60	0	3.4390	0	36.2210	8	28.825	0	999.173	0	10.6	4	3.3	4	-1E+10	1	-1E+10	1	-1E+10	1	-1E+10	1	-1E+10	1	-1E+10	1
4901784	146	C	07/04/2019	10:48	-132.253	42.864	0	1015.10	0	3.4280	0	36.2260	8	28.830	0	1004.603	0	10.6	4	3.4	4	-1E+10	1	-1E+10	1	-1E+10	1	-1E+10	1	-1E+10	1	-1E+10	1
4901784	146	C	07/04/2019	10:48	-132.253	42.864	0	1020.50	0	3.4160	0	36.2290	8	28.833	0	1009.934	0	10.7	4	3.4	4	-1E+10	1	-1E+10	1	-1E+10	1	-1E+10	1	-1E+10	1	-1E+10	1
4901784	146	C	07/04/2019	10:48	-132.253	42.864	0	1025.00	0	3.4090	0	36.2300	8	28.835	0	1014.377	0	10.8	4	3.4	4	-1E+10	1	-1E+10	1	-1E+10	1	-1E+10	1	-1E+10	1	-1E+10	1
4901784	146	C	07/04/2019	10:48	-132.253	42.864	0	1029.60	0	3.3990	0	36.2340	8	28.839	0	1018.918	0	10.8	4	3.4	4	-1E+10	1	-1E+10	1	-1E+10	1	-1E+10	1	-1E+10	1	-1E+10	1
4901784	146	C	07/04/2019	10:48	-132.253	42.864	0	1035.00	0	3.3940	0	36.2350	8	28.840	0	1024.249	0	10.9	4	3.5	4	-1E+10	1	-1E+10	1	-1E+10	1	-1E+10	1	-1E+10	1	-1E+10	1
4901784	146	C	07/04/2019	10:48	-132.253	42.864	0	1040.40	0	3.3740	0	36.2410	8	28.847	0	1029.579	0	11.1	4	3.5	4	-1E+10	1	-1E+10	1	-1E+10	1	-1E+10	1	-1E+10	1	-1E+10	1
4901784	146	C	07/04/2019	10:48	-132.253	42.864	0	1044.90	0	3.3610	0	36.2440	8	28.851	0	1034.021	0	11.1	4	3.5	4	-1E+10	1	-1E+10	1	-1E+10	1	-1E+10	1	-1E+10	1	-1E+10	1
4901784	146	C	07/04/2019	10:48	-132.253	42.864	0	1049.50	0	3.3500	0	36.2460	8	28.854	0	1038.562	0	11.2	4	3.5	4	-1E+10	1	-1E+10	1	-1E+10	1	-1E+10	1	-1E+10	1	-1E+10	1
4901784	146	C	07/04/2019	10:48	-132.253	42.864	0	1055.00	0	3.3330	0	36.2490	8	28.858	0	1043.991	0	11.4	4	3.6	4	-1E+10	1	-1E+10	1	-1E+10	1	-1E+10	1	-1E+10	1	-1E+10	1
4901784	146	C	07/04/2019	10:48	-132.253	42.864	0	1060.50	0	3.3110	0	36.2520	8	28.862	0	1049.420	0	11.5	4	3.6	4	-1E+10	1	-1E+10	1	-1E+10	1	-1E+10	1	-1E+10	1	-1E+10	1
4901784	146	C	07/04/2019	10:48	-132.253	42.864	0	1065.00	0	3.2920	0	36.2560	8	28.868	0	1053.862	0	11.6	4	3.6	4	-1E+10	1	-1E+10	1	-1E+10	1	-1E+10	1	-1E+10	1	-1E+10	1
4901784	146	C	07/04/2019	10:48	-132.253	42.864	0	1069.70	0	3.2840	0	36.2570	8	28.869	0	1058.501	0	11.6	4	3.7	4	-1E+10	1	-1E+10	1	-1E+10	1	-1E+10	1	-1E+10	1	-1E+10	1
4901784	146	C	07/04/2019	10:48	-132.253	42.864	0	1075.10	0	3.2730	0	36.2600	8	28.873	0	1063.830	0	11.8	4	3.7	4	-1E+10	1	-1E+10	1	-1E+10	1	-1E+10	1	-1E+10	1	-1E+10	1
4901784	146	C	07/04/2019	10:48	-132.253	42.864	0	1080.50	0	3.2600	0	36.2640	8	28.877	0	1069.160	0	11.9	4	3.8	4	-1E+10	1	-1E+10	1	-1E+10	1	-1E+10	1	-1E+10	1	-1E+10	1
4901784	146	C	07/04/2019	10:48	-132.253	42.864	0	1085.40	0	3.2530	0	36.2680	8	28.881	0	1073.996	0	12.0	4	3.8	4	-1E+10	1	-1E+10	1	-1E+10	1	-1E+10	1	-1E+10	1	-1E+10	1
4901784	146	C	07/04/2019	10:48	-132.253	42.864	0	1090.20	0	3.2470	0	36.2700	8	28.883	0	1078.733	0	12.1	4	3.8	4	-1E+10	1	-1E+10	1	-1E+10	1	-1E+10	1	-1E+10	1	-1E+10	1
4901784	146	C	07/04/2019	10:48	-132.253	42.864	0	1095.20	0	3.2380	0	36.2720	8	28.886	0	1083.668	0	12.2	4	3.8	4	-1E+10	1	-1E+10	1	-1E+10	1	-1E+10	1	-1E+10	1	-1E+10	1
4901784	146	C	07/04/2019	10:48	-132.253	42.864	0	1100.10	0	3.2250	0	36.2750	8	28.890	0	1088.504	0	12.4	4	3.9	4	-1E+10	1	-1E+10	1	-1E+10	1	-1E+10	1	-1E+10	1	-1E+10	1
4901784	146	C	07/04/2019	10:48	-132.253	42.864	0	1105.10	0	3.2140	0	36.2770	8	28.892	0	1093.438	0	12.5	4	3.9	4	-1E+10	1	-1E+10	1	-1E+10	1	-1E+10	1	-1E+10	1	-1E+10	1
4901784	146	C	07/04/2019	10:48	-132.253	42.864	0	1110.20	0	3.2020	0	36.2810	8	28.897	0	1098.471	0	12.7	4	4.0	4	-1E+10	1	-1E+10	1	-1E+10	1	-1E+10	1	-1E+10	1	-1E+10	1
4901784	146	C	07/04/2019	10:48	-132.253	42.864	0	1115.30	0	3.1870	0	36.2840	8	28.901	0	1103.503	0	12.8	4	4.0	4	-1E+10	1	-1E+10	1	-1E+10	1	-1E+10	1	-1E+10	1	-1E+10	1
4901784	146	C	07/04/2019	10:48	-132.253	42.864	0	1120.40	0	3.1770	0	36.2860	8	28.903	0	1108.536	0	12.9	4	4.1	4	-1E+10	1	-1E+10	1	-1E+10	1	-1E+10	1	-1E+10	1	-1E+10	1
4901784	146	C	07/04/2019	10:48	-132.253	42.864	0	1125.60	0	3.1630	0	36.2890	8	28.907	0	1113.667	0	13.1	4	4.1	4	-1E+10	1	-1E+10	1	-1E+10	1	-1E+10	1	-1E+10	1	-1E+10	1
4901784	146	C	07/04/2019	10:48	-132.253	42.864	0	1130.00	0	3.1510	0	36.2920	8	28.911	0	1118.009	0	13.2	4	4.2	4	-1E+10	1	-1E+10	1	-1E+10	1	-1E+10	1	-1E+10	1	-1E+10	1
4901784	146	C	07/04/2019	10:48	-132.253	42.864	0	1134.30	0	3.1430	0	36.2940	8	28.913	0	1122.252	0	13.3	4	4.2	4	-1E+10	1	-1E+10	1	-1E+10	1	-1E+10	1	-1E+10	1	-1E+10	1
4901784	146	C	07/04/2019	10:48	-132.253	42.864	0	1139.60	0	3.1330	0	36.2960	8	28.916	0	1127.481	0	13.3	4	4.2	4	-1E+10	1	-1E+10	1	-1E+10	1	-1E+10	1	-1E+10	1	-1E+10	1
4901784	146	C	07/04/2019	10:48	-132.253	42.864	0	1144.90	0	3.1280	0	36.2970	8	28.917	0	1132.711	0	13.4	4	4.2	4	-1E+10	1	-1E+10	1	-1E+10	1	-1E+10	1	-1E+10	1	-1E+10	1
4901784	146	C	07/04/2019	10:48	-132.253	42.864	0	1150.20	0	3.1160	0	36.2990	8	28.920	0	1137.940	0	13.5	4	4.2	4	-1E+10	1	-1E+10	1	-1E+10	1	-1E+10	1	-1E+10	1	-1E+10	1
4901784	146	C	07/04/2019	10:48	-132.253	42.864	0	1155.70	0	3.1050	0	36.3000	8	28.922	0	1143.366	0	13.6	4	4.3	4	-1E+10	1	-1E+10	1	-1E+10	1	-1E+10	1	-1E+10	1	-1E+10	1
4901784	146	C	07/04/2019	10:48	-132.253	42.864	0	1160.20	0	3.0900	0	36.3030	8	28.925	0	1147.806	0	13.8	4	4.3	4	-1E+10	1	-1E+10	1	-1E+10	1	-1E+10	1	-1E+10	1	-1E+10	1
4901784	146	C	07/04/2019	10:48	-132.253	42.864	0	1164.70	0	3.0790	0	36.3050	8	28.928	0	1152.245	0	14.0	4	4.4	4	-1E+10	1	-1E+10	1	-1E+10	1	-1E+10	1	-1E+10	1	-1E+10	1
4901784	146	C	07/04/2019	10:48	-132.253	42.864	0	1170.10	0	3.0720	0	36.3080	8	28.931	0	1157.573	0	14.2	4	4.5	4	-1E+10	1	-1E+10	1	-1E+10	1	-1E+10	1	-1E+10	1	-1E+10	1
4901784	146	C	07/04/2019	10:48	-132.253	42.864	0	1174.70	0	3.0660	0	36.3100	8	28.933	0	1162.111	0	14.3	4	4.5	4	-1E+10	1	-1E+10	1	-1E+10	1	-1E+10	1	-1E+10	1	-1E+10	1
4901784	146	C	07/04/2019	10:48	-132.253	42.864	0	1179.20	0	3.0580	0	36.3110	8	28.935	0	1166.550	0	14.4	4	4.5	4	-1E+10	1	-1E+10	1	-1E+10	1	-1E+10	1	-1E+10	1	-1E+10	1
4901784	146	C	07/04/2019	10:48	-132.253	42.864	0	1184.50	0	3.0460	0	36.3130	8	28.938	0	1171.779	0	14.5	4	4.5	4	-1E+10	1	-1E+10	1	-1E+10	1	-1E+10	1	-1E+10	1	-1E+10	1
4901784	146	C	07/04/2019	10:48	-132.253	42.864	0	1189.30	0	3.0370	0	36.3150	8	28.940	0	1176.514	0	14.6	4	4.6	4	-1E+10	1	-1E+10	1	-1E+10	1	-1E+10	1	-1E+10	1	-1E+10	1
4901784	146	C	07/04/2019	10:48	-132.253	42.864	0	1195.00	0	3.0270	0	36.3170	8	28.943	0	1182.136	0	14.7	4	4.6	4	-1E+10	1	-1E+10	1	-1E+10	1	-1E+10	1	-1E+10	1	-1E+10	1
4901784	146	C	07/04/2019	10:48	-132.253	42.864	0	1200.80	0	3.0180	0	36.3190	8	28.945	0	1187.858	0	14.9	4	4.7	4	-1E+10	1	-1E+10	1	-1E+10	1	-1E+10	1	-1E+10	1	-1E+10	1
4901784	146	C	07/04/2019	10:48	-132.253	42.864	0	1205.70	0	3.0120	0	36.3200	8	28.947	0	1192.691	0	15.0	4	4.7	4	-1E+10	1	-1E+10	1	-1E+10	1	-1E+10	1	-1E+10	1	-1E+10	1
4901784	146	C	07/04/2019	10:48	-132.253	42.864	0	1210.70	0	3.0070	0	36.3220	8	28.949	0	1197.623	0	15.1	4	4.7	4	-1E+10	1	-1E+10	1	-1E+10	1	-1E+10	1	-1E+10	1	-1E+10	1
4901784	146	C	07/04/2019	10:48	-132.253	42.864	0	1215.60	0	3.0000	0	36.3240	8	28.951	0	1202.456	0	15.3	4	4.8	4	-1E+10	1	-1E+10	1	-1E+10	1	-1E+10	1	-1E+10	1	-1E+10	1
4901784	146	C	07/04/2019	10:48	-132.253	42.864	0	1220.70	0	2.9930	0	36.3240	8	28.952	0	1207.486	0	15.4	4	4.8	4	-1E+10	1	-1E+10	1	-1E+10	1	-1E+10	1	-1E+10	1	-1E+10	1
4901784	146	C	07/04/2019	10:48	-132.253	42.864	0	1224.90	0	2.9830	0	36.3270	8	28.955	0	1211.628	0	15.5	4	4.9	4	-1E+10	1	-1E+10	1	-1E+10	1	-1E+10	1	-1E+10	1	-1E+10	1
4901784	146	C	07/04/2019	10:48	-132.253	42.864	0	1229.20	0	2.9740	0	36.3280	8	28.957	0	1215.869	0	15.6	4	4.9	4	-1E+10	1	-1E+10	1	-1E+10	1	-1E+10	1	-1E+10	1	-1E+10	1
4901784	146	C	07/04/2019	10:48	-132.253	42.864	0	1234.40	0	2.9690	0	36.3300	8	28.959	0	1220.998	0	15.7	4	4.9	4	-1E+10	1	-1E+10	1	-1E+10	1	-1E+10	1	-1E+10	1	-1E+10	1
4901784	146	C	07/04/2019	10:48	-132.253	42.864	0	1239.50	0	2.9640	0	36.3310	8	28.960	0	1226.028	0	15.8	4	4.9	4	-1E+10	1	-1E+10	1	-1E+10	1	-1E+10	1	-1E+10	1	-1E+10	1
4901784	146	C	07/04/2019	10:48	-132.253	42.864	0	1244.60	0	2.9560	0	36.3320	8	28.962	0	1231.057	0	16.0	4	5.0	4	-1E+10	1	-1E+10	1	-1E+10	1	-1E+10	1	-1E+10	1	-1E+10	1
4901784	146	C	07/04/2019	10:48	-132.253	42.864	0	1249.80	0	2.9470	0	36.3340	8	28.964	0	1236.185	0	16.1	4	5.0	4	-1E+10	1	-1E+10	1	-1E+10	1	-1E+10	1	-1E+10	1	-1E+10	1
4901784	146	C	07/04/2019	10:48	-132.253	42.864	0	1255.00	0	2.9430	0	36.3350	8	28.966	0	1241.313	0	16.3	4	5.1	4	-1E+10	1	-1E+10	1	-1E+10	1	-1E+10	1	-1E+10	1	-1E+10	1
4901784	146	C	07/04/2019	10:48	-132.253	42.864	0	1260.40	0	2.9320	0	36.3380	8	28.969	0	1246.639	0	16.5	4	5.2	4	-1E+10	1	-1E+10	1	-1E+10	1	-1E+10	1	-1E+10	1	-1E+10	1
4901784	146	C	07/04/2019	10:48	-132.253	42.864	0	1265.70	0	2.9230	0	36.3390	8	28.971	0	1251.865	0	16.7	4	5.2	4	-1E+10	1	-1E+10	1	-1E+10	1	-1E+10	1	-1E+10	1	-1E+10	1
4901784	146	C	07/04/2019	10:48	-132.253	42.864	0	1270.10	0	2.9120	0	36.3420	8	28.974	0	1256.204	0	16.9	4	5.3	4	-1E+10	1	-1E+10	1	-1E+10	1	-1E+10	1	-1E+10	1	-1E+10	1
4901784	146	C	07/04/2019	10:48	-132.253	42.864	0	1274.60	0	2.9020	0	36.3440	8	28.977	0	1260.641	0	17.0	4	5.3	4	-1E+10	1	-1E+10	1	-1E+10	1	-1E+10	1	-1E+10	1	-1E+10	1
4901784	146	C	07/04/2019	10:48	-132.253	42.864	0	1280.00	0	2.8950	0	36.3450	8	28.978	0	1265.966	0	17.1	4	5.4	4	-1E+10	1	-1E+10	1	-1E+10	1	-1E+10	1	-1E+10	1	-1E+10	1
4901784	146	C	07/04/2019	10:48	-132.253	42.864	0	1285.30	0	2.8910	0	36.3460	8	28.980	0	1271.192	0	17.3	4	5.4	4	-1E+10	1	-1E+10	1	-1E+10	1	-1E+10	1	-1E+10	1	-1E+10	1
4901784	146	C	07/04/2019	10:48	-132.253	42.864	0	1290.60	0	2.8850	0	36.3480	8	28.982	0	1276.417	0	17.4	4	5.4	4	-1E+10	1	-1E+10	1	-1E+10	1	-1E+10	1	-1E+10	1	-1E+10	1
4901784	146	C	07/04/2019	10:48	-132.253	42.864	0	1295.10	0	2.8830	0	36.3480	8	28.982	0	1280.854	0	17.5	4	5.5	4	-1E+10	1	-1E+10	1	-1E+10	1	-1E+10	1	-1E+10	1	-1E+10	1
4901784	146	C	07/04/2019	10:48	-132.253	42.864	0	1299.60	0	2.8730	0	36.3490	8	28.984	0	1285.291	0	17.8	4	5.6	4	-1E+10	1	-1E+10	1	-1E+10	1	-1E+10	1	-1E+10	1	-1E+10	1
4901784	146	C	07/04/2019	10:48	-132.253	42.864	0	1304.90	0	2.8550	0	36.3520	8	28.988	0	1290.516	0	18.1	4	5.7	4	-1E+10	1	-1E+10	1	-1E+10	1	-1E+10	1	-1E+10	1	-1E+10	1
4901784	146	C	07/04/2019	10:48	-132.253	42.864	0	1310.30	0	2.8340	0	36.3560	8	28.993	0	1295.840	0	18.4	4	5.8	4	-1E+10	1	-1E+10	1	-1E+10	1	-1E+10	1	-1E+10	1	-1E+10	1
4901784	146	C	07/04/2019	10:48	-132.253	42.864	0	1314.80	0	2.8260	0	36.3570	8	28.995	0	1300.277	0	18.7	4	5.8	4	-1E+10	1	-1E+10	1	-1E+10	1	-1E+10	1	-1E+10	1	-1E+10	1
4901784	146	C	07/04/2019	10:48	-132.253	42.864	0	1319.30	0	2.8140	0	36.3600	8	28.998	0	1304.713	0	18.9	4	5.9	4	-1E+10	1	-1E+10	1	-1E+10	1	-1E+10	1	-1E+10	1	-1E+10	1
4901784	146	C	07/04/2019	10:48	-132.253	42.864	0	1324.70	0	2.8050	0	36.3620	8	29.001	0	1310.037	0	19.1	4	6.0	4	-1E+10	1	-1E+10	1	-1E+10	1	-1E+10	1	-1E+10	1	-1E+10	1
4901784	146	C	07/04/2019	10:48	-132.253	42.864	0	1330.10	0	2.7980	0	36.3630	8	29.002	0	1315.360	0	19.4	4	6.0	4	-1E+10	1	-1E+10	1	-1E+10	1	-1E+10	1	-1E+10	1	-1E+10	1
4901784	146	C	07/04/2019	10:48	-132.253	42.864	0	1335.60	0	2.7880	0	36.3650	8	29.005	0	1320.782	0	19.6	4	6.1	4	-1E+10	1	-1E+10	1	-1E+10	1	-1E+10	1	-1E+10	1	-1E+10	1
4901784	146	C	07/04/2019	10:48	-132.253	42.864	0	1340.10	0	2.7770	0	36.3670	8	29.007	0	1325.218	0	19.9	4	6.2	4	-1E+10	1	-1E+10	1	-1E+10	1	-1E+10	1	-1E+10	1	-1E+10	1
4901784	146	C	07/04/2019	10:48	-132.253	42.864	0	1344.90	0	2.7690	0	36.3680	8	29.009	0	1329.949	0	20.0	4	6.2	4	-1E+10	1	-1E+10	1	-1E+10	1	-1E+10	1	-1E+10	1	-1E+10	1
4901784	146	C	07/04/2019	10:48	-132.253	42.864	0	1349.90	0	2.7600	0	36.3710	8	29.012	0	1334.878	0	20.2	4	6.3	4	-1E+10	1	-1E+10	1	-1E+10	1	-1E+10	1	-1E+10	1	-1E+10	1
4901784	146	C	07/04/2019	10:48	-132.253	42.864	0	1354.60	0	2.7560	0	36.3720	8	29.013	0	1339.511	0	20.3	4	6.3	4	-1E+10	1	-1E+10	1	-1E+10	1	-1E+10	1	-1E+10	1	-1E+10	1
4901784	146	C	07/04/2019	10:48	-132.253	42.864	0	1359.50	0	2.7540	0	36.3720	8	29.014	0	1344.341	0	20.4	4	6.4	4	-1E+10	1	-1E+10	1	-1E+10	1	-1E+10	1	-1E+10	1	-1E+10	1
4901784	146	C	07/04/2019	10:48	-132.253	42.864	0	1364.60	0	2.7500	0	36.3730	8	29.015	0	1349.367	0	20.6	4	6.4	4	-1E+10	1	-1E+10	1	-1E+10	1	-1E+10	1	-1E+10	1	-1E+10	1
4901784	146	C	07/04/2019	10:48	-132.253	42.864	0	1369.70	0	2.7420	0	36.3750	8	29.017	0	1354.394	0	20.8	4	6.5	4	-1E+10	1	-1E+10	1	-1E+10	1	-1E+10	1	-1E+10	1	-1E+10	1
4901784	146	C	07/04/2019	10:48	-132.253	42.864	0	1374.80	0	2.7360	0	36.3760	8	29.019	0	1359.421	0	21.0	4	6.5	4	-1E+10	1	-1E+10	1	-1E+10	1	-1E+10	1	-1E+10	1	-1E+10	1
4901784	146	C	07/04/2019	10:48	-132.253	42.864	0	1379.80	0	2.7250	0	36.3780	8	29.021	0	1364.349	0	21.3	4	6.6	4	-1E+10	1	-1E+10	1	-1E+10	1	-1E+10	1	-1E+10	1	-1E+10	1
4901784	146	C	07/04/2019	10:48	-132.253	42.864	0	1384.80	0	2.7100	0	36.3800	8	29.024	0	1369.276	0	21.7	4	6.7	4	-1E+10	1	-1E+10	1	-1E+10	1	-1E+10	1	-1E+10	1	-1E+10	1
4901784	146	C	07/04/2019	10:48	-132.253	42.864	0	1389.80	0	2.6970	0	36.3830	8	29.028	0	1374.204	0	21.9	4	6.8	4	-1E+10	1	-1E+10	1	-1E+10	1	-1E+10	1	-1E+10	1	-1E+10	1
4901784	146	C	07/04/2019	10:48	-132.253	42.864	0	1394.90	0	2.6900	0	36.3840	8	29.029	0	1379.230	0	22.2	4	6.9	4	-1E+10	1	-1E+10	1	-1E+10	1	-1E+10	1	-1E+10	1	-1E+10	1
4901784	146	C	07/04/2019	10:48	-132.253	42.864	0	1400.10	0	2.6770	0	36.3860	8	29.032	0	1384.355	0	22.5	4	7.0	4	-1E+10	1	-1E+10	1	-1E+10	1	-1E+10	1	-1E+10	1	-1E+10	1
4901784	146	C	07/04/2019	10:48	-132.253	42.864	0	1405.10	0	2.6630	0	36.3880	8	29.035	0	1389.282	0	22.8	4	7.1	4	-1E+10	1	-1E+10	1	-1E+10	1	-1E+10	1	-1E+10	1	-1E+10	1
4901784	146	C	07/04/2019	10:48	-132.253	42.864	0	1410.20	0	2.6510	0	36.3910	8	29.038	0	1394.308	0	23.0	4	7.2	4	-1E+10	1	-1E+10	1	-1E+10	1	-1E+10	1	-1E+10	1	-1E+10	1
4901784	146	C	07/04/2019	10:48	-132.253	42.864	0	1415.40	0	2.6430	0	36.3920	8	29.040	0	1399.432	0	23.2	4	7.2	4	-1E+10	1	-1E+10	1	-1E+10	1	-1E+10	1	-1E+10	1	-1E+10	1
4901784	146	C	07/04/2019	10:48	-132.253	42.864	0	1420.50	0	2.6390	0	36.3930	8	29.041	0	1404.457	0	23.5	4	7.3	4	-1E+10	1	-1E+10	1	-1E+10	1	-1E+10	1	-1E+10	1	-1E+10	1
4901784	146	C	07/04/2019	10:48	-132.253	42.864	0	1425.70	0	2.6260	0	36.3950	8	29.044	0	1409.581	0	23.8	4	7.4	4	-1E+10	1	-1E+10	1	-1E+10	1	-1E+10	1	-1E+10	1	-1E+10	1
4901784	146	C	07/04/2019	10:48	-132.253	42.864	0	1429.90	0	2.6170	0	36.3970	8	29.046	0	1413.720	0	24.0	4	7.5	4	-1E+10	1	-1E+10	1	-1E+10	1	-1E+10	1	-1E+10	1	-1E+10	1
4901784	146	C	07/04/2019	10:48	-132.253	42.864	0	1434.20	0	2.6110	0	36.3980	8	29.048	0	1417.957	0	24.2	4	7.5	4	-1E+10	1	-1E+10	1	-1E+10	1	-1E+10	1	-1E+10	1	-1E+10	1
4901784	146	C	07/04/2019	10:48	-132.253	42.864	0	1439.40	0	2.6050	0	36.3990	8	29.049	0	1423.080	0	24.5	4	7.6	4	-1E+10	1	-1E+10	1	-1E+10	1	-1E+10	1	-1E+10	1	-1E+10	1
4901784	146	C	07/04/2019	10:48	-132.253	42.864	0	1444.60	0	2.5980	0	36.4010	8	29.052	0	1428.204	0	24.8	4	7.7	4	-1E+10	1	-1E+10	1	-1E+10	1	-1E+10	1	-1E+10	1	-1E+10	1
4901784	146	C	07/04/2019	10:48	-132.253	42.864	0	1449.90	0	2.5910	0	36.4020	8	29.053	0	1433.426	0	25.1	4	7.8	4	-1E+10	1	-1E+10	1	-1E+10	1	-1E+10	1	-1E+10	1	-1E+10	1
4901784	146	C	07/04/2019	10:48	-132.253	42.864	0	1455.20	0	2.5810	0	36.4040	8	29.056	0	1438.647	0	25.4	4	7.9	4	-1E+10	1	-1E+10	1	-1E+10	1	-1E+10	1	-1E+10	1	-1E+10	1
4901784	146	C	07/04/2019	10:48	-132.253	42.864	0	1460.60	0	2.5740	0	36.4060	8	29.058	0	1443.967	0	25.7	4	8.0	4	-1E+10	1	-1E+10	1	-1E+10	1	-1E+10	1	-1E+10	1	-1E+10	1
4901784	146	C	07/04/2019	10:48	-132.253	42.864	0	1465.10	0	2.5650	0	36.4080	8	29.060	0	1448.401	0	25.9	4	8.0	4	-1E+10	1	-1E+10	1	-1E+10	1	-1E+10	1	-1E+10	1	-1E+10	1
4901784	146	C	07/04/2019	10:48	-132.253	42.864	0	1469.60	0	2.5580	0	36.4090	8	29.062	0	1452.834	0	26.2	4	8.1	4	-1E+10	1	-1E+10	1	-1E+10	1	-1E+10	1	-1E+10	1	-1E+10	1
4901784	146	C	07/04/2019	10:48	-132.253	42.864	0	1475.00	0	2.5480	0	36.4100	8	29.063	0	1458.154	0	26.5	4	8.2	4	-1E+10	1	-1E+10	1	-1E+10	1	-1E+10	1	-1E+10	1	-1E+10	1
4901784	146	C	07/04/2019	10:48	-132.253	42.864	0	1480.20	0	2.5380	0	36.4120	8	29.066	0	1463.276	0	26.9	4	8.3	4	-1E+10	1	-1E+10	1	-1E+10	1	-1E+10	1	-1E+10	1	-1E+10	1
4901784	146	C	07/04/2019	10:48	-132.253	42.864	0	1485.10	0	2.5300	0	36.4140	8	29.068	0	1468.103	0	27.2	4	8.4	4	-1E+10	1	-1E+10	1	-1E+10	1	-1E+10	1	-1E+10	1	-1E+10	1
4901784	146	C	07/04/2019	10:48	-132.253	42.864	0	1490.00	0	2.5220	0	36.4150	8	29.070	0	1472.930	0	27.6	4	8.6	4	-1E+10	1	-1E+10	1	-1E+10	1	-1E+10	1	-1E+10	1	-1E+10	1
4901784	146	C	07/04/2019	10:48	-132.253	42.864	0	1495.00	0	2.5100	0	36.4170	8	29.073	0	1477.855	0	28.0	4	8.7	4	-1E+10	1	-1E+10	1	-1E+10	1	-1E+10	1	-1E+10	1	-1E+10	1
4901784	146	C	07/04/2019	10:48	-132.253	42.864	0	1500.00	0	2.4970	0	36.4190	8	29.075	0	1482.781	0	28.4	4	8.8	4	-1E+10	1	-1E+10	1	-1E+10	1	-1E+10	1	-1E+10	1	-1E+10	1
4901784	146	C	07/04/2019	10:48	-132.253	42.864	0	1505.10	0	2.4860	0	36.4210	8	29.078	0	1487.804	0	28.7	4	8.9	4	-1E+10	1	-1E+10	1	-1E+10	1	-1E+10	1	-1E+10	1	-1E+10	1
4901784	146	C	07/04/2019	10:48	-132.253	42.864	0	1510.20	0	2.4760	0	36.4230	8	29.080	0	1492.827	0	29.1	4	9.0	4	-1E+10	1	-1E+10	1	-1E+10	1	-1E+10	1	-1E+10	1	-1E+10	1
4901784	146	C	07/04/2019	10:48	-132.253	42.864	0	1515.20	0	2.4690	0	36.4240	8	29.082	0	1497.752	0	29.3	4	9.1	4	-1E+10	1	-1E+10	1	-1E+10	1	-1E+10	1	-1E+10	1	-1E+10	1
4901784	146	C	07/04/2019	10:48	-132.253	42.864	0	1520.30	0	2.4630	0	36.4250	8	29.083	0	1502.775	0	29.6	4	9.2	4	-1E+10	1	-1E+10	1	-1E+10	1	-1E+10	1	-1E+10	1	-1E+10	1
4901784	146	C	07/04/2019	10:48	-132.253	42.864	0	1525.50	0	2.4510	0	36.4270	8	29.086	0	1507.897	0	30.0	4	9.3	4	-1E+10	1	-1E+10	1	-1E+10	1	-1E+10	1	-1E+10	1	-1E+10	1
4901784	146	C	07/04/2019	10:48	-132.253	42.864	0	1530.70	0	2.4440	0	36.4290	8	29.088	0	1513.018	0	30.2	4	9.3	4	-1E+10	1	-1E+10	1	-1E+10	1	-1E+10	1	-1E+10	1	-1E+10	1
4901784	146	C	07/04/2019	10:48	-132.253	42.864	0	1535.00	0	2.4400	0	36.4290	8	29.089	0	1517.253	0	30.4	4	9.4	4	-1E+10	1	-1E+10	1	-1E+10	1	-1E+10	1	-1E+10	1	-1E+10	1
4901784	146	C	07/04/2019	10:48	-132.253	42.864	0	1539.30	0	2.4340	0	36.4310	8	29.091	0	1521.488	0	30.7	4	9.5	4	-1E+10	1	-1E+10	1	-1E+10	1	-1E+10	1	-1E+10	1	-1E+10	1
4901784	146	C	07/04/2019	10:48	-132.253	42.864	0	1544.60	0	2.4240	0	36.4320	8	29.092	0	1526.708	0	31.1	4	9.6	4	-1E+10	1	-1E+10	1	-1E+10	1	-1E+10	1	-1E+10	1	-1E+10	1
4901784	146	C	07/04/2019	10:48	-132.253	42.864	0	1549.90	0	2.4130	0	36.4340	8	29.095	0	1531.927	0	31.5	4	9.7	4	-1E+10	1	-1E+10	1	-1E+10	1	-1E+10	1	-1E+10	1	-1E+10	1
4901784	146	C	07/04/2019	10:48	-132.253	42.864	0	1555.20	0	2.4020	0	36.4360	8	29.098	0	1537.146	0	32.0	4	9.9	4	-1E+10	1	-1E+10	1	-1E+10	1	-1E+10	1	-1E+10	1	-1E+10	1
4901784	146	C	07/04/2019	10:48	-132.253	42.864	0	1560.60	0	2.3920	0	36.4380	8	29.100	0	1542.464	0	32.4	4	10.0	4	-1E+10	1	-1E+10	1	-1E+10	1	-1E+10	1	-1E+10	1	-1E+10	1
4901784	146	C	07/04/2019	10:48	-132.253	42.864	0	1565.20	0	2.3860	0	36.4390	8	29.102	0	1546.994	0	32.7	4	10.1	4	-1E+10	1	-1E+10	1	-1E+10	1	-1E+10	1	-1E+10	1	-1E+10	1
4901784	146	C	07/04/2019	10:48	-132.253	42.864	0	1570.40	0	2.3750	0	36.4400	8	29.103	0	1552.114	0	33.1	4	10.2	4	-1E+10	1	-1E+10	1	-1E+10	1	-1E+10	1	-1E+10	1	-1E+10	1
4901784	146	C	07/04/2019	10:48	-132.253	42.864	0	1575.40	0	2.3680	0	36.4420	8	29.106	0	1557.038	0	33.4	4	10.3	4	-1E+10	1	-1E+10	1	-1E+10	1	-1E+10	1	-1E+10	1	-1E+10	1
4901784	146	C	07/04/2019	10:48	-132.253	42.864	0	1580.20	0	2.3570	0	36.4440	8	29.108	0	1561.764	0	33.9	4	10.5	4	-1E+10	1	-1E+10	1	-1E+10	1	-1E+10	1	-1E+10	1	-1E+10	1
4901784	146	C	07/04/2019	10:48	-132.253	42.864	0	1585.10	0	2.3470	0	36.4460	8	29.111	0	1566.589	0	34.2	4	10.6	4	-1E+10	1	-1E+10	1	-1E+10	1	-1E+10	1	-1E+10	1	-1E+10	1
4901784	146	C	07/04/2019	10:48	-132.253	42.864	0	1590.00	0	2.3420	0	36.4470	8	29.112	0	1571.413	0	34.4	4	10.6	4	-1E+10	1	-1E+10	1	-1E+10	1	-1E+10	1	-1E+10	1	-1E+10	1
4901784	146	C	07/04/2019	10:48	-132.253	42.864	0	1594.80	0	2.3390	0	36.4480	8	29.113	0	1576.139	0	34.8	4	10.7	4	-1E+10	1	-1E+10	1	-1E+10	1	-1E+10	1	-1E+10	1	-1E+10	1
4901784	146	C	07/04/2019	10:48	-132.253	42.864	0	1599.80	0	2.3300	0	36.4490	8	29.115	0	1581.062	0	35.2	4	10.8	4	-1E+10	1	-1E+10	1	-1E+10	1	-1E+10	1	-1E+10	1	-1E+10	1
4901784	146	C	07/04/2019	10:48	-132.253	42.864	0	1604.80	0	2.3220	0	36.4510	8	29.117	0	1585.985	0	35.6	4	11.0	4	-1E+10	1	-1E+10	1	-1E+10	1	-1E+10	1	-1E+10	1	-1E+10	1
4901784	146	C	07/04/2019	10:48	-132.253	42.864	0	1609.80	0	2.3120	0	36.4520	8	29.119	0	1590.907	0	36.0	4	11.1	4	-1E+10	1	-1E+10	1	-1E+10	1	-1E+10	1	-1E+10	1	-1E+10	1
4901784	146	C	07/04/2019	10:48	-132.253	42.864	0	1614.90	0	2.3050	0	36.4540	8	29.121	0	1595.928	0	36.4	4	11.2	4	-1E+10	1	-1E+10	1	-1E+10	1	-1E+10	1	-1E+10	1	-1E+10	1
4901784	146	C	07/04/2019	10:48	-132.253	42.864	0	1620.00	0	2.2950	0	36.4550	8	29.123	0	1600.949	0	36.8	4	11.3	4	-1E+10	1	-1E+10	1	-1E+10	1	-1E+10	1	-1E+10	1	-1E+10	1
4901784	146	C	07/04/2019	10:48	-132.253	42.864	0	1625.10	0	2.2860	0	36.4570	8	29.125	0	1605.970	0	37.1	4	11.4	4	-1E+10	1	-1E+10	1	-1E+10	1	-1E+10	1	-1E+10	1	-1E+10	1
4901784	146	C	07/04/2019	10:48	-132.253	42.864	0	1630.20	0	2.2800	0	36.4580	8	29.126	0	1610.990	0	37.4	4	11.5	4	-1E+10	1	-1E+10	1	-1E+10	1	-1E+10	1	-1E+10	1	-1E+10	1
4901784	146	C	07/04/2019	10:48	-132.253	42.864	0	1635.40	0	2.2740	0	36.4590	8	29.128	0	1616.109	0	37.7	4	11.6	4	-1E+10	1	-1E+10	1	-1E+10	1	-1E+10	1	-1E+10	1	-1E+10	1
4901784	146	C	07/04/2019	10:48	-132.253	42.864	0	1640.60	0	2.2690	0	36.4600	8	29.129	0	1621.228	0	38.0	4	11.7	4	-1E+10	1	-1E+10	1	-1E+10	1	-1E+10	1	-1E+10	1	-1E+10	1
4901784	146	C	07/04/2019	10:48	-132.253	42.864	0	1645.00	0	2.2610	0	36.4620	8	29.131	0	1625.559	0	38.5	4	11.8	4	-1E+10	1	-1E+10	1	-1E+10	1	-1E+10	1	-1E+10	1	-1E+10	1
4901784	146	C	07/04/2019	10:48	-132.253	42.864	0	1649.40	0	2.2540	0	36.4630	8	29.133	0	1629.890	0	38.8	4	12.0	4	-1E+10	1	-1E+10	1	-1E+10	1	-1E+10	1	-1E+10	1	-1E+10	1
4901784	146	C	07/04/2019	10:48	-132.253	42.864	0	1654.70	0	2.2440	0	36.4660	8	29.136	0	1635.107	0	39.3	4	12.1	4	-1E+10	1	-1E+10	1	-1E+10	1	-1E+10	1	-1E+10	1	-1E+10	1
4901784	146	C	07/04/2019	10:48	-132.253	42.864	0	1660.00	0	2.2390	0	36.4670	8	29.137	0	1640.324	0	39.5	4	12.2	4	-1E+10	1	-1E+10	1	-1E+10	1	-1E+10	1	-1E+10	1	-1E+10	1
4901784	146	C	07/04/2019	10:48	-132.253	42.864	0	1665.40	0	2.2370	0	36.4680	8	29.138	0	1645.639	0	39.8	4	12.2	4	-1E+10	1	-1E+10	1	-1E+10	1	-1E+10	1	-1E+10	1	-1E+10	1
4901784	146	C	07/04/2019	10:48	-132.253	42.864	0	1669.80	0	2.2340	0	36.4690	8	29.139	0	1649.970	0	40.0	4	12.3	4	-1E+10	1	-1E+10	1	-1E+10	1	-1E+10	1	-1E+10	1	-1E+10	1
4901784	146	C	07/04/2019	10:48	-132.253	42.864	0	1674.40	0	2.2310	0	36.4700	8	29.140	0	1654.497	0	40.2	4	12.4	4	-1E+10	1	-1E+10	1	-1E+10	1	-1E+10	1	-1E+10	1	-1E+10	1
4901784	146	C	07/04/2019	10:48	-132.253	42.864	0	1679.90	0	2.2270	0	36.4710	8	29.142	0	1659.910	0	40.5	4	12.5	4	-1E+10	1	-1E+10	1	-1E+10	1	-1E+10	1	-1E+10	1	-1E+10	1
4901784	146	C	07/04/2019	10:48	-132.253	42.864	0	1685.00	0	2.2230	0	36.4720	8	29.143	0	1664.930	0	40.7	4	12.5	4	-1E+10	1	-1E+10	1	-1E+10	1	-1E+10	1	-1E+10	1	-1E+10	1
4901784	146	C	07/04/2019	10:48	-132.253	42.864	0	1690.00	0	2.2190	0	36.4730	8	29.144	0	1669.850	0	41.2	4	12.7	4	-1E+10	1	-1E+10	1	-1E+10	1	-1E+10	1	-1E+10	1	-1E+10	1
4901784	146	C	07/04/2019	10:48	-132.253	42.864	0	1695.70	0	2.2110	0	36.4750	8	29.146	0	1675.460	0	41.8	4	12.9	4	-1E+10	1	-1E+10	1	-1E+10	1	-1E+10	1	-1E+10	1	-1E+10	1
4901784	146	C	07/04/2019	10:48	-132.253	42.864	0	1700.50	0	2.1970	0	36.4760	8	29.148	0	1680.184	0	42.1	4	13.0	4	-1E+10	1	-1E+10	1	-1E+10	1	-1E+10	1	-1E+10	1	-1E+10	1
4901784	146	C	07/04/2019	10:48	-132.253	42.864	0	1705.40	0	2.1890	0	36.4770	8	29.150	0	1685.006	0	42.6	4	13.1	4	-1E+10	1	-1E+10	1	-1E+10	1	-1E+10	1	-1E+10	1	-1E+10	1
4901784	146	C	07/04/2019	10:48	-132.253	42.864	0	1710.40	0	2.1870	0	36.4800	8	29.152	0	1689.926	0	43.1	4	13.3	4	-1E+10	1	-1E+10	1	-1E+10	1	-1E+10	1	-1E+10	1	-1E+10	1
4901784	146	C	07/04/2019	10:48	-132.253	42.864	0	1715.40	0	2.1800	0	36.4810	8	29.154	0	1694.846	0	43.4	4	13.4	4	-1E+10	1	-1E+10	1	-1E+10	1	-1E+10	1	-1E+10	1	-1E+10	1
4901784	146	C	07/04/2019	10:48	-132.253	42.864	0	1720.40	0	2.1760	0	36.4820	8	29.155	0	1699.766	0	43.5	4	13.4	4	-1E+10	1	-1E+10	1	-1E+10	1	-1E+10	1	-1E+10	1	-1E+10	1
4901784	146	C	07/04/2019	10:48	-132.253	42.864	0	1725.50	0	2.1720	0	36.4830	8	29.156	0	1704.784	0	43.6	4	13.4	4	-1E+10	1	-1E+10	1	-1E+10	1	-1E+10	1	-1E+10	1	-1E+10	1
4901784	146	C	07/04/2019	10:48	-132.253	42.864	0	1730.60	0	2.1680	0	36.4830	8	29.157	0	1709.803	0	43.6	4	13.4	4	-1E+10	1	-1E+10	1	-1E+10	1	-1E+10	1	-1E+10	1	-1E+10	1
4901784	146	C	07/04/2019	10:48	-132.253	42.864	0	1735.70	0	2.1610	0	36.4840	8	29.158	0	1714.821	0	43.9	4	13.5	4	-1E+10	1	-1E+10	1	-1E+10	1	-1E+10	1	-1E+10	1	-1E+10	1
4901784	146	C	07/04/2019	10:48	-132.253	42.864	0	1739.90	0	2.1570	0	36.4850	8	29.159	0	1718.953	0	44.1	4	13.5	4	-1E+10	1	-1E+10	1	-1E+10	1	-1E+10	1	-1E+10	1	-1E+10	1
4901784	146	C	07/04/2019	10:48	-132.253	42.864	0	1744.20	0	2.1520	0	36.4850	8	29.160	0	1723.184	0	44.5	4	13.7	4	-1E+10	1	-1E+10	1	-1E+10	1	-1E+10	1	-1E+10	1	-1E+10	1
4901784	146	C	07/04/2019	10:48	-132.253	42.864	0	1749.40	0	2.1470	0	36.4870	8	29.162	0	1728.300	0	45.0	4	13.8	4	-1E+10	1	-1E+10	1	-1E+10	1	-1E+10	1	-1E+10	1	-1E+10	1
4901784	146	C	07/04/2019	10:48	-132.253	42.864	0	1754.70	0	2.1430	0	36.4880	8	29.163	0	1733.515	0	45.3	4	13.9	4	-1E+10	1	-1E+10	1	-1E+10	1	-1E+10	1	-1E+10	1	-1E+10	1
4901784	146	C	07/04/2019	10:48	-132.253	42.864	0	1760.00	0	2.1330	0	36.4900	8	29.165	0	1738.729	0	45.8	4	14.0	4	-1E+10	1	-1E+10	1	-1E+10	1	-1E+10	1	-1E+10	1	-1E+10	1
4901784	146	C	07/04/2019	10:48	-132.253	42.864	0	1765.30	0	2.1290	0	36.4910	8	29.167	0	1743.943	0	46.2	4	14.2	4	-1E+10	1	-1E+10	1	-1E+10	1	-1E+10	1	-1E+10	1	-1E+10	1
4901784	146	C	07/04/2019	10:48	-132.253	42.864	0	1769.80	0	2.1270	0	36.4920	8	29.168	0	1748.370	0	46.5	4	14.3	4	-1E+10	1	-1E+10	1	-1E+10	1	-1E+10	1	-1E+10	1	-1E+10	1
4901784	146	C	07/04/2019	10:48	-132.253	42.864	0	1774.30	0	2.1230	0	36.4930	8	29.169	0	1752.797	0	46.9	4	14.4	4	-1E+10	1	-1E+10	1	-1E+10	1	-1E+10	1	-1E+10	1	-1E+10	1
4901784	146	C	07/04/2019	10:48	-132.253	42.864	0	1779.80	0	2.1150	0	36.4950	8	29.171	0	1758.208	0	47.2	4	14.5	4	-1E+10	1	-1E+10	1	-1E+10	1	-1E+10	1	-1E+10	1	-1E+10	1
4901784	146	C	07/04/2019	10:48	-132.253	42.864	0	1785.20	0	2.1060	0	36.4960	8	29.173	0	1763.520	0	47.6	4	14.6	4	-1E+10	1	-1E+10	1	-1E+10	1	-1E+10	1	-1E+10	1	-1E+10	1
4901784	146	C	07/04/2019	10:48	-132.253	42.864	0	1790.70	0	2.1030	0	36.4970	8	29.174	0	1768.930	0	47.8	4	14.7	4	-1E+10	1	-1E+10	1	-1E+10	1	-1E+10	1	-1E+10	1	-1E+10	1
4901784	146	C	07/04/2019	10:48	-132.253	42.864	0	1795.30	0	2.0990	0	36.4980	8	29.175	0	1773.455	0	48.0	4	14.7	4	-1E+10	1	-1E+10	1	-1E+10	1	-1E+10	1	-1E+10	1	-1E+10	1
4901784	146	C	07/04/2019	10:48	-132.253	42.864	0	1799.90	0	2.0980	0	36.4980	8	29.175	0	1777.980	0	48.1	4	14.7	4	-1E+10	1	-1E+10	1	-1E+10	1	-1E+10	1	-1E+10	1	-1E+10	1
4901784	146	C	07/04/2019	10:48	-132.253	42.864	0	1805.50	0	2.0880	0	36.5000	8	29.177	0	1783.488	0	48.2	4	14.8	4	-1E+10	1	-1E+10	1	-1E+10	1	-1E+10	1	-1E+10	1	-1E+10	1
4901784	146	C	07/04/2019	10:48	-132.253	42.864	0	1810.10	0	2.0850	0	36.5000	8	29.178	0	1788.013	0	48.3	4	14.8	4	-1E+10	1	-1E+10	1	-1E+10	1	-1E+10	1	-1E+10	1	-1E+10	1
4901784	146	C	07/04/2019	10:48	-132.253	42.864	0	1814.80	0	2.0810	0	36.5000	8	29.178	0	1792.636	0	48.4	4	14.9	4	-1E+10	1	-1E+10	1	-1E+10	1	-1E+10	1	-1E+10	1	-1E+10	1
4901784	146	C	07/04/2019	10:48	-132.253	42.864	0	1820.30	0	2.0780	0	36.5010	8	29.179	0	1798.045	0	48.8	4	15.0	4	-1E+10	1	-1E+10	1	-1E+10	1	-1E+10	1	-1E+10	1	-1E+10	1
4901784	146	C	07/04/2019	10:48	-132.253	42.864	0	1824.90	0	2.0780	0	36.5030	8	29.181	0	1802.569	0	49.2	4	15.1	4	-1E+10	1	-1E+10	1	-1E+10	1	-1E+10	1	-1E+10	1	-1E+10	1
4901784	146	C	07/04/2019	10:48	-132.253	42.864	0	1829.60	0	2.0690	0	36.5040	8	29.182	0	1807.192	0	49.5	4	15.2	4	-1E+10	1	-1E+10	1	-1E+10	1	-1E+10	1	-1E+10	1	-1E+10	1
4901784	146	C	07/04/2019	10:48	-132.253	42.864	0	1835.20	0	2.0650	0	36.5050	8	29.184	0	1812.699	0	49.8	4	15.3	4	-1E+10	1	-1E+10	1	-1E+10	1	-1E+10	1	-1E+10	1	-1E+10	1
4901784	146	C	07/04/2019	10:48	-132.253	42.864	0	1839.90	0	2.0600	0	36.5060	8	29.185	0	1817.322	0	50.1	4	15.3	4	-1E+10	1	-1E+10	1	-1E+10	1	-1E+10	1	-1E+10	1	-1E+10	1
4901784	146	C	07/04/2019	10:48	-132.253	42.864	0	1844.80	0	2.0580	0	36.5070	8	29.186	0	1822.141	0	50.1	4	15.4	4	-1E+10	1	-1E+10	1	-1E+10	1	-1E+10	1	-1E+10	1	-1E+10	1
4901784	146	C	07/04/2019	10:48	-132.253	42.864	0	1850.10	0	2.0560	0	36.5070	8	29.186	0	1827.353	0	50.3	4	15.4	4	-1E+10	1	-1E+10	1	-1E+10	1	-1E+10	1	-1E+10	1	-1E+10	1
4901784	146	C	07/04/2019	10:48	-132.253	42.864	0	1854.90	0	2.0530	0	36.5080	8	29.187	0	1832.073	0	50.7	4	15.5	4	-1E+10	1	-1E+10	1	-1E+10	1	-1E+10	1	-1E+10	1	-1E+10	1
4901784	146	C	07/04/2019	10:48	-132.253	42.864	0	1859.70	0	2.0480	0	36.5100	8	29.189	0	1836.793	0	51.1	4	15.7	4	-1E+10	1	-1E+10	1	-1E+10	1	-1E+10	1	-1E+10	1	-1E+10	1
4901784	146	C	07/04/2019	10:48	-132.253	42.864	0	1864.60	0	2.0370	0	36.5110	8	29.191	0	1841.612	0	51.5	4	15.8	4	-1E+10	1	-1E+10	1	-1E+10	1	-1E+10	1	-1E+10	1	-1E+10	1
4901784	146	C	07/04/2019	10:48	-132.253	42.864	0	1869.50	0	2.0320	0	36.5120	8	29.192	0	1846.430	0	51.8	4	15.9	4	-1E+10	1	-1E+10	1	-1E+10	1	-1E+10	1	-1E+10	1	-1E+10	1
4901784	146	C	07/04/2019	10:48	-132.253	42.864	0	1874.40	0	2.0280	0	36.5130	8	29.193	0	1851.248	0	52.0	4	15.9	4	-1E+10	1	-1E+10	1	-1E+10	1	-1E+10	1	-1E+10	1	-1E+10	1
4901784	146	C	07/04/2019	10:48	-132.253	42.864	0	1879.30	0	2.0230	0	36.5140	8	29.195	0	1856.066	0	52.2	4	16.0	4	-1E+10	1	-1E+10	1	-1E+10	1	-1E+10	1	-1E+10	1	-1E+10	1
4901784	146	C	07/04/2019	10:48	-132.253	42.864	0	1884.30	0	2.0190	0	36.5150	8	29.196	0	1860.983	0	52.4	4	16.0	4	-1E+10	1	-1E+10	1	-1E+10	1	-1E+10	1	-1E+10	1	-1E+10	1
4901784	146	C	07/04/2019	10:48	-132.253	42.864	0	1889.30	0	2.0180	0	36.5150	8	29.196	0	1865.899	0	52.7	4	16.1	4	-1E+10	1	-1E+10	1	-1E+10	1	-1E+10	1	-1E+10	1	-1E+10	1
4901784	146	C	07/04/2019	10:48	-132.253	42.864	0	1894.20	0	2.0140	0	36.5160	8	29.197	0	1870.717	0	53.0	4	16.2	4	-1E+10	1	-1E+10	1	-1E+10	1	-1E+10	1	-1E+10	1	-1E+10	1
4901784	146	C	07/04/2019	10:48	-132.253	42.864	0	1899.30	0	2.0110	0	36.5180	8	29.199	0	1875.731	0	53.3	4	16.3	4	-1E+10	1	-1E+10	1	-1E+10	1	-1E+10	1	-1E+10	1	-1E+10	1
4901784	146	C	07/04/2019	10:48	-132.253	42.864	0	1904.40	0	2.0030	0	36.5190	8	29.200	0	1880.745	0	53.5	4	16.4	4	-1E+10	1	-1E+10	1	-1E+10	1	-1E+10	1	-1E+10	1	-1E+10	1
4901784	146	C	07/04/2019	10:48	-132.253	42.864	0	1909.60	0	2.0010	0	36.5190	8	29.201	0	1885.857	0	53.9	4	16.5	4	-1E+10	1	-1E+10	1	-1E+10	1	-1E+10	1	-1E+10	1	-1E+10	1
4901784	146	C	07/04/2019	10:48	-132.253	42.864	0	1914.70	0	1.9990	0	36.5210	8	29.202	0	1890.871	0	54.3	4	16.6	4	-1E+10	1	-1E+10	1	-1E+10	1	-1E+10	1	-1E+10	1	-1E+10	1
4901784	146	C	07/04/2019	10:48	-132.253	42.864	0	1920.00	0	1.9940	0	36.5230	8	29.204	0	1896.082	0	54.6	4	16.7	4	-1E+10	1	-1E+10	1	-1E+10	1	-1E+10	1	-1E+10	1	-1E+10	1
4901784	146	C	07/04/2019	10:48	-132.253	42.864	0	1925.20	0	1.9910	0	36.5230	8	29.205	0	1901.194	0	54.8	4	16.8	4	-1E+10	1	-1E+10	1	-1E+10	1	-1E+10	1	-1E+10	1	-1E+10	1
4901784	146	C	07/04/2019	10:48	-132.253	42.864	0	1930.50	0	1.9900	0	36.5240	8	29.206	0	1906.404	0	55.1	4	16.9	4	-1E+10	1	-1E+10	1	-1E+10	1	-1E+10	1	-1E+10	1	-1E+10	1
4901784	146	C	07/04/2019	10:48	-132.253	42.864	0	1935.00	0	1.9820	0	36.5250	8	29.207	0	1910.828	0	55.6	4	17.0	4	-1E+10	1	-1E+10	1	-1E+10	1	-1E+10	1	-1E+10	1	-1E+10	1
4901784	146	C	07/04/2019	10:48	-132.253	42.864	0	1939.40	0	1.9760	0	36.5260	8	29.209	0	1915.153	0	55.8	4	17.1	4	-1E+10	1	-1E+10	1	-1E+10	1	-1E+10	1	-1E+10	1	-1E+10	1
4901784	146	C	07/04/2019	10:48	-132.253	42.864	0	1944.60	0	1.9740	0	36.5270	8	29.210	0	1920.265	0	56.0	4	17.1	4	-1E+10	1	-1E+10	1	-1E+10	1	-1E+10	1	-1E+10	1	-1E+10	1
4901784	146	C	07/04/2019	10:48	-132.253	42.864	0	1950.00	0	1.9710	0	36.5280	8	29.211	0	1925.573	0	56.3	4	17.2	4	-1E+10	1	-1E+10	1	-1E+10	1	-1E+10	1	-1E+10	1	-1E+10	1
4901784	146	C	07/04/2019	10:48	-132.253	42.864	0	1955.30	0	1.9650	0	36.5290	8	29.212	0	1930.782	0	56.6	4	17.3	4	-1E+10	1	-1E+10	1	-1E+10	1	-1E+10	1	-1E+10	1	-1E+10	1
4901784	146	C	07/04/2019	10:48	-132.253	42.864	0	1960.60	0	1.9620	0	36.5300	8	29.213	0	1935.992	0	56.8	4	17.4	4	-1E+10	1	-1E+10	1	-1E+10	1	-1E+10	1	-1E+10	1	-1E+10	1
4901784	146	C	07/04/2019	10:48	-132.253	42.864	0	1965.10	0	1.9590	0	36.5310	8	29.214	0	1940.415	0	56.9	4	17.4	4	-1E+10	1	-1E+10	1	-1E+10	1	-1E+10	1	-1E+10	1	-1E+10	1
4901784	146	C	07/04/2019	10:48	-132.253	42.864	0	1969.60	0	1.9570	0	36.5310	8	29.214	0	1944.838	0	57.1	4	17.5	4	-1E+10	1	-1E+10	1	-1E+10	1	-1E+10	1	-1E+10	1	-1E+10	1
4901784	146	C	07/04/2019	10:48	-132.253	42.864	0	1975.10	0	1.9550	0	36.5310	8	29.214	0	1950.243	0	57.4	4	17.5	4	-1E+10	1	-1E+10	1	-1E+10	1	-1E+10	1	-1E+10	1	-1E+10	1
4901784	146	C	07/04/2019	10:48	-132.253	42.864	0	1979.70	0	1.9500	0	36.5320	8	29.216	0	1954.764	0	57.6	4	17.6	4	-1E+10	1	-1E+10	1	-1E+10	1	-1E+10	1	-1E+10	1	-1E+10	1
4901784	146	C	07/04/2019	10:48	-132.253	42.864	0	1985.00	0	1.9470	0	36.5330	8	29.217	0	1959.973	0	57.9	4	17.7	4	-1E+10	1	-1E+10	1	-1E+10	1	-1E+10	1	-1E+10	1	-1E+10	1
4901784	146	C	07/04/2019	10:48	-132.253	42.864	0	1990.50	0	1.9410	0	36.5340	8	29.218	0	1965.379	0	58.3	4	17.8	4	-1E+10	1	-1E+10	1	-1E+10	1	-1E+10	1	-1E+10	1	-1E+10	1
4901784	146	C	07/04/2019	10:48	-132.253	42.864	0	1995.30	0	1.9370	0	36.5360	8	29.220	0	1970.096	0	58.5	4	17.9	4	-1E+10	1	-1E+10	1	-1E+10	1	-1E+10	1	-1E+10	1	-1E+10	1
4901784	146	C	07/04/2019	10:48	-132.253	42.864	0	1999.90	0	1.9360	0	36.5360	8	29.220	0	1974.616	0	58.6	4	17.9	4	-1E+10	1	-1E+10	1	-1E+10	1	-1E+10	1	-1E+10	1	-1E+10	1
4901784	146	C	07/04/2019	10:48	-132.253	42.864	0	2005.30	0	1.9350	0	36.5370	8	29.221	0	1979.923	0	58.9	4	18.0	4	-1E+10	1	-1E+10	1	-1E+10	1	-1E+10	1	-1E+10	1	-1E+10	1
4901784	146	C	07/04/2019	10:48	-132.253	42.864	0	2011.00	0	1.9340	0	36.5380	8	29.222	0	1985.524	0	58.1	4	17.8	4	-1E+10	1	-1E+10	1	-1E+10	1	-1E+10	1	-1E+10	1	-1E+10	1
4901784	146	C	07/04/2019	10:48	-132.253	42.864	0																										
4901784	147	C	07/14/2019	10:41	-132.224	42.882	0	3.00	0	18.3860	0	34.1560	8	24.532	0	2.976	0	228.6	4	97.9	4	-1E+10	1	-1E+10	1	-1E+10	1	-1E+10	1	-1E+10	1	-1E+10	1
4901784	147	C	07/14/2019	10:41	-132.224	42.882	0	4.40	0	18.3840	0	34.1480	8	24.526	0	4.365	0	228.6	4	97.9	4	-1E+10	1	-1E+10	1	-1E+10	1	-1E+10	1	-1E+10	1	-1E+10	1
4901784	147	C	07/14/2019	10:41	-132.224	42.882	0	5.90	0	18.3280	0	34.1460	8	24.539	0	5.853	0	228.9	4	97.9	4	-1E+10	1	-1E+10	1	-1E+10	1	-1E+10	1	-1E+10	1	-1E+10	1
4901784	147	C	07/14/2019	10:41	-132.224	42.882	0	7.40	0	18.2080	0	34.1460	8	24.568	0	7.341	0	229.6	4	98.0	4	-1E+10	1	-1E+10	1	-1E+10	1	-1E+10	1	-1E+10	1	-1E+10	1
4901784	147	C	07/14/2019	10:41	-132.224	42.882	0	8.80	0	18.0560	0	34.1620	8	24.618	0	8.730	0	229.8	4	97.8	4	-1E+10	1	-1E+10	1	-1E+10	1	-1E+10	1	-1E+10	1	-1E+10	1
4901784	147	C	07/14/2019	10:41	-132.224	42.882	0	10.30	0	17.7810	0	34.1530	8	24.678	0	10.218	0	231.3	4	97.9	4	-1E+10	1	-1E+10	1	-1E+10	1	-1E+10	1	-1E+10	1	-1E+10	1
4901784	147	C	07/14/2019	10:41	-132.224	42.882	0	11.90	0	17.4480	0	34.1830	8	24.782	0	11.805	0	232.7	4	97.9	4	-1E+10	1	-1E+10	1	-1E+10	1	-1E+10	1	-1E+10	1	-1E+10	1
4901784	147	C	07/14/2019	10:41	-132.224	42.882	0	13.40	0	17.0760	0	34.2010	8	24.885	0	13.293	0	235.2	4	98.2	4	-1E+10	1	-1E+10	1	-1E+10	1	-1E+10	1	-1E+10	1	-1E+10	1
4901784	147	C	07/14/2019	10:41	-132.224	42.882	0	15.30	0	16.9720	0	34.2010	8	24.909	0	15.178	0	236.2	4	98.5	4	-1E+10	1	-1E+10	1	-1E+10	1	-1E+10	1	-1E+10	1	-1E+10	1
4901784	147	C	07/14/2019	10:41	-132.224	42.882	0	15.70	0	16.9590	0	34.2010	8	24.912	0	15.575	0	236.7	4	98.7	4	-1E+10	1	-1E+10	1	-1E+10	1	-1E+10	1	-1E+10	1	-1E+10	1
4901784	147	C	07/14/2019	10:41	-132.224	42.882	0	17.10	0	16.8520	0	34.1980	8	24.935	0	16.964	0	237.8	4	98.9	4	-1E+10	1	-1E+10	1	-1E+10	1	-1E+10	1	-1E+10	1	-1E+10	1
4901784	147	C	07/14/2019	10:41	-132.224	42.882	0	18.50	0	16.6040	0	34.2080	8	25.001	0	18.353	0	239.5	4	99.1	4	-1E+10	1	-1E+10	1	-1E+10	1	-1E+10	1	-1E+10	1	-1E+10	1
4901784	147	C	07/14/2019	10:41	-132.224	42.882	0	19.80	0	16.4740	0	34.1990	8	25.024	0	19.642	0	241.8	4	99.9	4	-1E+10	1	-1E+10	1	-1E+10	1	-1E+10	1	-1E+10	1	-1E+10	1
4901784	147	C	07/14/2019	10:41	-132.224	42.882	0	21.20	0	16.4050	0	34.1780	8	25.024	0	21.031	0	243.7	4	100.5	4	-1E+10	1	-1E+10	1	-1E+10	1	-1E+10	1	-1E+10	1	-1E+10	1
4901784	147	C	07/14/2019	10:41	-132.224	42.882	0	22.60	0	15.7500	0	34.1880	8	25.181	0	22.420	0	247.4	4	100.8	4	-1E+10	1	-1E+10	1	-1E+10	1	-1E+10	1	-1E+10	1	-1E+10	1
4901784	147	C	07/14/2019	10:41	-132.224	42.882	0	24.40	0	14.9280	0	34.2140	8	25.383	0	24.205	0	252.6	4	101.3	4	-1E+10	1	-1E+10	1	-1E+10	1	-1E+10	1	-1E+10	1	-1E+10	1
4901784	147	C	07/14/2019	10:41	-132.224	42.882	0	24.90	0	14.5380	0	34.2580	8	25.501	0	24.701	0	255.4	4	101.6	4	-1E+10	1	-1E+10	1	-1E+10	1	-1E+10	1	-1E+10	1	-1E+10	1
4901784	147	C	07/14/2019	10:41	-132.224	42.882	0	26.30	0	13.5710	0	34.2920	8	25.730	0	26.090	0	262.0	4	102.3	4	-1E+10	1	-1E+10	1	-1E+10	1	-1E+10	1	-1E+10	1	-1E+10	1
4901784	147	C	07/14/2019	10:41	-132.224	42.882	0	27.80	0	13.1510	0	34.2920	8	25.816	0	27.578	0	264.0	4	102.2	4	-1E+10	1	-1E+10	1	-1E+10	1	-1E+10	1	-1E+10	1	-1E+10	1
4901784	147	C	07/14/2019	10:41	-132.224	42.882	0	29.20	0	13.0210	0	34.2840	8	25.835	0	28.967	0	264.9	4	102.2	4	-1E+10	1	-1E+10	1	-1E+10	1	-1E+10	1	-1E+10	1	-1E+10	1
4901784	147	C	07/14/2019	10:41	-132.224	42.882	0	30.90	0	12.8650	0	34.2850	8	25.867	0	30.653	0	265.2	4	102.0	4	-1E+10	1	-1E+10	1	-1E+10	1	-1E+10	1	-1E+10	1	-1E+10	1
4901784	147	C	07/14/2019	10:41	-132.224	42.882	0	32.40	0	12.7870	0	34.2840	8	25.882	0	32.141	0	265.1	4	101.8	4	-1E+10	1	-1E+10	1	-1E+10	1	-1E+10	1	-1E+10	1	-1E+10	1
4901784	147	C	07/14/2019	10:41	-132.224	42.882	0	33.90	0	12.6100	0	34.2970	8	25.927	0	33.629	0	265.0	4	101.4	4	-1E+10	1	-1E+10	1	-1E+10	1	-1E+10	1	-1E+10	1	-1E+10	1
4901784	147	C	07/14/2019	10:41	-132.224	42.882	0	35.50	0	12.4510	0	34.2960	8	25.957	0	35.216	0	265.1	4	101.1	4	-1E+10	1	-1E+10	1	-1E+10	1	-1E+10	1	-1E+10	1	-1E+10	1
4901784	147	C	07/14/2019	10:41	-132.224	42.882	0	37.10	0	12.3190	0	34.3070	8	25.991	0	36.803	0	265.0	4	100.8	4	-1E+10	1	-1E+10	1	-1E+10	1	-1E+10	1	-1E+10	1	-1E+10	1
4901784	147	C	07/14/2019	10:41	-132.224	42.882	0	38.70	0	12.2690	0	34.3060	8	26.000	0	38.390	0	264.9	4	100.7	4	-1E+10	1	-1E+10	1	-1E+10	1	-1E+10	1	-1E+10	1	-1E+10	1
4901784	147	C	07/14/2019	10:41	-132.224	42.882	0	40.30	0	12.2860	0	34.3400	8	26.023	0	39.977	0	264.5	4	100.6	4	-1E+10	1	-1E+10	1	-1E+10	1	-1E+10	1	-1E+10	1	-1E+10	1
4901784	147	C	07/14/2019	10:41	-132.224	42.882	0	42.00	0	12.1930	0	34.3280	8	26.032	0	41.663	0	265.0	4	100.6	4	-1E+10	1	-1E+10	1	-1E+10	1	-1E+10	1	-1E+10	1	-1E+10	1
4901784	147	C	07/14/2019	10:41	-132.224	42.882	0	43.70	0	12.1020	0	34.3140	8	26.038	0	43.349	0	265.1	4	100.4	4	-1E+10	1	-1E+10	1	-1E+10	1	-1E+10	1	-1E+10	1	-1E+10	1
4901784	147	C	07/14/2019	10:41	-132.224	42.882	0	45.40	0	12.0880	0	34.3080	8	26.037	0	45.035	0	265.3	4	100.5	4	-1E+10	1	-1E+10	1	-1E+10	1	-1E+10	1	-1E+10	1	-1E+10	1
4901784	147	C	07/14/2019	10:41	-132.224	42.882	0	47.10	0	12.0260	0	34.3070	8	26.048	0	46.721	0	265.2	4	100.3	4	-1E+10	1	-1E+10	1	-1E+10	1	-1E+10	1	-1E+10	1	-1E+10	1
4901784	147	C	07/14/2019	10:41	-132.224	42.882	0	48.70	0	11.9440	0	34.2980	8	26.056	0	48.308	0	265.4	4	100.2	4	-1E+10	1	-1E+10	1	-1E+10	1	-1E+10	1	-1E+10	1	-1E+10	1
4901784	147	C	07/14/2019	10:41	-132.224	42.882	0	50.40	0	11.7760	0	34.2920	8	26.083	0	49.995	0	266.1	4	100.1	4	-1E+10	1	-1E+10	1	-1E+10	1	-1E+10	1	-1E+10	1	-1E+10	1
4901784	147	C	07/14/2019	10:41	-132.224	42.882	0	52.10	0	11.6580	0	34.2850	8	26.100	0	51.681	0	266.4	4	100.0	4	-1E+10	1	-1E+10	1	-1E+10	1	-1E+10	1	-1E+10	1	-1E+10	1
4901784	147	C	07/14/2019	10:41	-132.224	42.882	0	53.80	0	11.5540	0	34.2880	8	26.122	0	53.367	0	266.6	4	99.8	4	-1E+10	1	-1E+10	1	-1E+10	1	-1E+10	1	-1E+10	1	-1E+10	1
4901784	147	C	07/14/2019	10:41	-132.224	42.882	0	55.50	0	11.4650	0	34.2870	8	26.137	0	55.053	0	266.7	4	99.7	4	-1E+10	1	-1E+10	1	-1E+10	1	-1E+10	1	-1E+10	1	-1E+10	1
4901784	147	C	07/14/2019	10:41	-132.224	42.882	0	57.10	0	11.4200	0	34.2850	8	26.144	0	56.640	0	266.1	4	99.4	4	-1E+10	1	-1E+10	1	-1E+10	1	-1E+10	1	-1E+10	1	-1E+10	1
4901784	147	C	07/14/2019	10:41	-132.224	42.882	0	58.80	0	11.2970	0	34.2750	8	26.159	0	58.326	0	265.9	4	99.0	4	-1E+10	1	-1E+10	1	-1E+10	1	-1E+10	1	-1E+10	1	-1E+10	1
4901784	147	C	07/14/2019	10:41	-132.224	42.882	0	60.60	0	11.0340	0	34.2850	8	26.214	0	60.111	0	265.0	4	98.2	4	-1E+10	1	-1E+10	1	-1E+10	1	-1E+10	1	-1E+10	1	-1E+10	1
4901784	147	C	07/14/2019	10:41	-132.224	42.882	0	62.30	0	10.8970	0	34.2860	8	26.240	0	61.797	0	265.6	4	98.1	4	-1E+10	1	-1E+10	1	-1E+10	1	-1E+10	1	-1E+10	1	-1E+10	1
4901784	147	C	07/14/2019	10:41	-132.224	42.882	0	64.00	0	10.8890	0	34.2850	8	26.240	0	63.483	0	264.6	4	97.7	4	-1E+10	1	-1E+10	1	-1E+10	1	-1E+10	1	-1E+10	1	-1E+10	1
4901784	147	C	07/14/2019	10:41	-132.224	42.882	0	65.70	0	10.8600	0	34.2820	8	26.243	0	65.169	0	263.3	4	97.2	4	-1E+10	1	-1E+10	1	-1E+10	1	-1E+10	1	-1E+10	1	-1E+10	1
4901784	147	C	07/14/2019	10:41	-132.224	42.882	0	67.40	0	10.7550	0	34.2850	8	26.264	0	66.855	0	262.1	4	96.5	4	-1E+10	1	-1E+10	1	-1E+10	1	-1E+10	1	-1E+10	1	-1E+10	1
4901784	147	C	07/14/2019	10:41	-132.224	42.882	0	69.10	0	10.7260	0	34.2840	8	26.269	0	68.541	0	261.2	4	96.1	4	-1E+10	1	-1E+10	1	-1E+10	1	-1E+10	1	-1E+10	1	-1E+10	1
4901784	147	C	07/14/2019	10:41	-132.224	42.882	0	70.80	0	10.6890	0	34.2840	8	26.275	0	70.227	0	260.4	4	95.7	4	-1E+10	1	-1E+10	1	-1E+10	1	-1E+10	1	-1E+10	1	-1E+10	1
4901784	147	C	07/14/2019	10:41	-132.224	42.882	0	72.50	0	10.6700	0	34.2820	8	26.277	0	71.913	0	259.1	4	95.2	4	-1E+10	1	-1E+10	1	-1E+10	1	-1E+10	1	-1E+10	1	-1E+10	1
4901784	147	C	07/14/2019	10:41	-132.224	42.882	0	74.30	0	10.6250	0	34.2880	8	26.290	0	73.698	0	257.6	4	94.6	4	-1E+10	1	-1E+10	1	-1E+10	1	-1E+10	1	-1E+10	1	-1E+10	1
4901784	147	C	07/14/2019	10:41	-132.224	42.882	0	76.00	0	10.5260	0	34.2890	8	26.308	0	75.384	0	256.8	4	94.1	4	-1E+10	1	-1E+10	1	-1E+10	1	-1E+10	1	-1E+10	1	-1E+10	1
4901784	147	C	07/14/2019	10:41	-132.224	42.882	0	77.80	0	10.5160	0	34.2900	8	26.311	0	77.169	0	256.2	4	93.9	4	-1E+10	1	-1E+10	1	-1E+10	1	-1E+10	1	-1E+10	1	-1E+10	1
4901784	147	C	07/14/2019	10:41	-132.224	42.882	0	79.60	0	10.5000	0	34.2910	8	26.314	0	78.954	0	255.7	4	93.6	4	-1E+10	1	-1E+10	1	-1E+10	1	-1E+10	1	-1E+10	1	-1E+10	1
4901784	147	C	07/14/2019	10:41	-132.224	42.882	0	81.30	0	10.4910	0	34.2910	8	26.316	0	80.640	0	254.9	4	93.3	4	-1E+10	1	-1E+10	1	-1E+10	1	-1E+10	1	-1E+10	1	-1E+10	1
4901784	147	C	07/14/2019	10:41	-132.224	42.882	0	83.10	0	10.4550	0	34.2900	8	26.321	0	82.425	0	254.7	4	93.2	4	-1E+10	1	-1E+10	1	-1E+10	1	-1E+10	1	-1E+10	1	-1E+10	1
4901784	147	C	07/14/2019	10:41	-132.224	42.882	0	84.80	0	10.4110	0	34.2900	8	26.329	0	84.111	0	254.3	4	92.9	4	-1E+10	1	-1E+10	1	-1E+10	1	-1E+10	1	-1E+10	1	-1E+10	1
4901784	147	C	07/14/2019	10:41	-132.224	42.882	0	86.60	0	10.3620	0	34.2890	8	26.337	0	85.896	0	254.2	4	92.8	4	-1E+10	1	-1E+10	1	-1E+10	1	-1E+10	1	-1E+10	1	-1E+10	1
4901784	147	C	07/14/2019	10:41	-132.224	42.882	0	88.30	0	10.3250	0	34.2860	8	26.341	0	87.582	0	253.8	4	92.6	4	-1E+10	1	-1E+10	1	-1E+10	1	-1E+10	1	-1E+10	1	-1E+10	1
4901784	147	C	07/14/2019	10:41	-132.224	42.882	0	90.10	0	10.2790	0	34.2840	8	26.347	0	89.367	0	253.5	4	92.4	4	-1E+10	1	-1E+10	1	-1E+10	1	-1E+10	1	-1E+10	1	-1E+10	1
4901784	147	C	07/14/2019	10:41	-132.224	42.882	0	91.90	0	10.2420	0	34.2790	8	26.350	0	91.152	0	253.3	4	92.2	4	-1E+10	1	-1E+10	1	-1E+10	1	-1E+10	1	-1E+10	1	-1E+10	1
4901784	147	C	07/14/2019	10:41	-132.224	42.882	0	93.80	0	10.1300	0	34.2780	8	26.368	0	93.036	0	253.2	4	92.0	4	-1E+10	1	-1E+10	1	-1E+10	1	-1E+10	1	-1E+10	1	-1E+10	1
4901784	147	C	07/14/2019	10:41	-132.224	42.882	0	95.60	0	10.0420	0	34.2730	8	26.379	0	94.821	0	253.3	4	91.8	4	-1E+10	1	-1E+10	1	-1E+10	1	-1E+10	1	-1E+10	1	-1E+10	1
4901784	147	C	07/14/2019	10:41	-132.224	42.882	0	97.40	0	10.0110	0	34.2680	8	26.381	0	96.605	0	253.1	4	91.7	4	-1E+10	1	-1E+10	1	-1E+10	1	-1E+10	1	-1E+10	1	-1E+10	1
4901784	147	C	07/14/2019	10:41	-132.224	42.882	0	99.20	0	9.9840	0	34.2660	8	26.384	0	98.390	0	252.4	4	91.4	4	-1E+10	1	-1E+10	1	-1E+10	1	-1E+10	1	-1E+10	1	-1E+10	1
4901784	147	C	07/14/2019	10:41	-132.224	42.882	0	102.80	0	9.8730	0	34.2530	8	26.392	0	101.960	0	251.3	4	90.8	4	-1E+10	1	-1E+10	1	-1E+10	1	-1E+10	1	-1E+10	1	-1E+10	1
4901784	147	C	07/14/2019	10:41	-132.224	42.882	0	104.60	0	9.7830	0	34.2530	8	26.408	0	103.745	0	250.3	4	90.2	4	-1E+10	1	-1E+10	1	-1E+10	1	-1E+10	1	-1E+10	1	-1E+10	1
4901784	147	C	07/14/2019	10:41	-132.224	42.882	0	107.00	0	9.7130	0	34.2600	8	26.425	0	106.125	0	248.6	4	89.5	4	-1E+10	1	-1E+10	1	-1E+10	1	-1E+10	1	-1E+10	1	-1E+10	1
4901784	147	C	07/14/2019	10:41	-132.224	42.882	0	109.50	0	9.7560	0	34.2730	8	26.428	0	108.604	0	245.0	4	88.3	4	-1E+10	1	-1E+10	1	-1E+10	1	-1E+10	1	-1E+10	1	-1E+10	1
4901784	147	C	07/14/2019	10:41	-132.224	42.882	0	112.50	0	9.6040	0	34.3070	8	26.480	0	111.578	0	241.2	4	86.6	4	-1E+10	1	-1E+10	1	-1E+10	1	-1E+10	1	-1E+10	1	-1E+10	1
4901784	147	C	07/14/2019	10:41	-132.224	42.882	0	114.80	0	9.4470	0	34.3330	8	26.526	0	113.859	0	238.5	4	85.4	4	-1E+10	1	-1E+10	1	-1E+10	1	-1E+10	1	-1E+10	1	-1E+10	1
4901784	147	C	07/14/2019	10:41	-132.224	42.882	0	117.20	0	9.2560	0	34.3950	8	26.606	0	116.238	0	236.1	4	84.2	4	-1E+10	1	-1E+10	1	-1E+10	1	-1E+10	1	-1E+10	1	-1E+10	1
4901784	147	C	07/14/2019	10:41	-132.224	42.882	0	119.60	0	9.0650	0	34.4430	8	26.674	0	118.618	0	234.7	4	83.4	4	-1E+10	1	-1E+10	1	-1E+10	1	-1E+10	1	-1E+10	1	-1E+10	1
4901784	147	C	07/14/2019	10:41	-132.224	42.882	0	122.10	0	8.9080	0	34.4720	8	26.722	0	121.097	0	233.2	4	82.6	4	-1E+10	1	-1E+10	1	-1E+10	1	-1E+10	1	-1E+10	1	-1E+10	1
4901784	147	C	07/14/2019	10:41	-132.224	42.882	0	124.60	0	8.7550	0	34.5140	8	26.779	0	123.575	0	230.9	4	81.6	4	-1E+10	1	-1E+10	1	-1E+10	1	-1E+10	1	-1E+10	1	-1E+10	1
4901784	147	C	07/14/2019	10:41	-132.224	42.882	0	127.30	0	8.5670	0	34.5760	8	26.857	0	126.252	0	229.5	4	80.8	4	-1E+10	1	-1E+10	1	-1E+10	1	-1E+10	1	-1E+10	1	-1E+10	1
4901784	147	C	07/14/2019	10:41	-132.224	42.882	0	129.90	0	8.3810	0	34.6710	8	26.960	0	128.830	0	228.3	4	80.1	4	-1E+10	1	-1E+10	1	-1E+10	1	-1E+10	1	-1E+10	1	-1E+10	1
4901784	147	C	07/14/2019	10:41	-132.224	42.882	0	132.60	0	8.3360	0	34.6940	8	26.985	0	131.507	0	227.0	4	79.6	4	-1E+10	1	-1E+10	1	-1E+10	1	-1E+10	1	-1E+10	1	-1E+10	1
4901784	147	C	07/14/2019	10:41	-132.224	42.882	0	135.30	0	8.2380	0	34.7480	8	27.042	0	134.184	0	225.7	4	78.9	4	-1E+10	1	-1E+10	1	-1E+10	1	-1E+10	1	-1E+10	1	-1E+10	1
4901784	147	C	07/14/2019	10:41	-132.224	42.882	0	137.10	0	8.1470	0	34.7960	8	27.094	0	135.969	0	225.4	4	78.7	4	-1E+10	1	-1E+10	1	-1E+10	1	-1E+10	1	-1E+10	1	-1E+10	1
4901784	147	C	07/14/2019	10:41	-132.224	42.882	0	139.80	0	8.1180	0	34.8270	8	27.123	0	138.645	0	224.2	4	78.3	4	-1E+10	1	-1E+10	1	-1E+10	1	-1E+10	1	-1E+10	1	-1E+10	1
4901784	147	C	07/14/2019	10:41	-132.224	42.882	0	142.40	0	8.0840	0	34.8610	8	27.155	0	141.223	0	223.0	4	77.8	4	-1E+10	1	-1E+10	1	-1E+10	1	-1E+10	1	-1E+10	1	-1E+10	1
4901784	147	C	07/14/2019	10:41	-132.224	42.882	0	145.00	0	8.0430	0	34.9080	8	27.198	0	143.801	0	221.4	4	77.2	4	-1E+10	1	-1E+10	1	-1E+10	1	-1E+10	1	-1E+10	1	-1E+10	1
4901784	147	C	07/14/2019	10:41	-132.224	42.882	0	148.20	0	7.9970	0	34.9740	8	27.256	0	146.973	0	219.4	4	76.5	4	-1E+10	1	-1E+10	1	-1E+10	1	-1E+10	1	-1E+10	1	-1E+10	1
4901784	147	C	07/14/2019	10:41	-132.224	42.882	0	149.90	0	7.9600	0	35.0420	8	27.315	0	148.658	0	218.0	4	75.9	4	-1E+10	1	-1E+10	1	-1E+10	1	-1E+10	1	-1E+10	1	-1E+10	1
4901784	147	C	07/14/2019	10:41	-132.224	42.882	0	152.20	0	7.9230	0	35.1140	8	27.378	0	150.938	0	215.9	4	75.2	4	-1E+10	1	-1E+10	1	-1E+10	1	-1E+10	1	-1E+10	1	-1E+10	1
4901784	147	C	07/14/2019	10:41	-132.224	42.882	0	155.40	0	7.8990	0	35.1650	8	27.421	0	154.111	0	213.7	4	74.4	4	-1E+10	1	-1E+10	1	-1E+10	1	-1E+10	1	-1E+10	1	-1E+10	1
4901784	147	C	07/14/2019	10:41	-132.224	42.882	0	157.70	0	7.8980	0	35.2140	8	27.460	0	156.391	0	211.6	4	73.7	4	-1E+10	1	-1E+10	1	-1E+10	1	-1E+10	1	-1E+10	1	-1E+10	1
4901784	147	C	07/14/2019	10:41	-132.224	42.882	0	160.20	0	7.8970	0	35.2650	8	27.500	0	158.869	0	209.2	4	72.9	4	-1E+10	1	-1E+10	1	-1E+10	1	-1E+10	1	-1E+10	1	-1E+10	1
4901784	147	C	07/14/2019	10:41	-132.224	42.882	0	162.60	0	7.9030	0	35.3160	8	27.540	0	161.248	0	206.9	4	72.1	4	-1E+10	1	-1E+10	1	-1E+10	1	-1E+10	1	-1E+10	1	-1E+10	1
4901784	147	C	07/14/2019	10:41	-132.224	42.882	0	165.10	0	7.9220	0	35.3570	8	27.569	0	163.726	0	204.3	4	71.3	4	-1E+10	1	-1E+10	1	-1E+10	1	-1E+10	1	-1E+10	1	-1E+10	1
4901784	147	C	07/14/2019	10:41	-132.224	42.882	0	167.50	0	7.9350	0	35.3860	8	27.590	0	166.105	0	201.6	4	70.4	4	-1E+10	1	-1E+10	1	-1E+10	1	-1E+10	1	-1E+10	1	-1E+10	1
4901784	147	C	07/14/2019	10:41	-132.224	42.882	0	170.10	0	7.9500	0	35.4270	8	27.620	0	168.683	0	198.3	4	69.3	4	-1E+10	1	-1E+10	1	-1E+10	1	-1E+10	1	-1E+10	1	-1E+10	1
4901784	147	C	07/14/2019	10:41	-132.224	42.882	0	172.80	0	7.9780	0	35.4920	8	27.667	0	171.359	0	195.0	4	68.2	4	-1E+10	1	-1E+10	1	-1E+10	1	-1E+10	1	-1E+10	1	-1E+10	1
4901784	147	C	07/14/2019	10:41	-132.224	42.882	0	174.50	0	8.0300	0	35.5420	8	27.698	0	173.044	0	192.9	4	67.5	4	-1E+10	1	-1E+10	1	-1E+10	1	-1E+10	1	-1E+10	1	-1E+10	1
4901784	147	C	07/14/2019	10:41	-132.224	42.882	0	177.40	0	8.0510	0	35.5640	8	27.712	0	175.919	0	190.5	4	66.7	4	-1E+10	1	-1E+10	1	-1E+10	1	-1E+10	1	-1E+10	1	-1E+10	1
4901784	147	C	07/14/2019	10:41	-132.224	42.882	0	179.80	0	8.0740	0	35.5770	8	27.719	0	178.298	0	187.9	4	65.9	4	-1E+10	1	-1E+10	1	-1E+10	1	-1E+10	1	-1E+10	1	-1E+10	1
4901784	147	C	07/14/2019	10:41	-132.224	42.882	0	182.20	0	8.1540	0	35.6460	8	27.761	0	180.677	0	185.1	4	65.0	4	-1E+10	1	-1E+10	1	-1E+10	1	-1E+10	1	-1E+10	1	-1E+10	1
4901784	147	C	07/14/2019	10:41	-132.224	42.882	0	184.80	0	8.1550	0	35.6500	8	27.764	0	183.254	0	184.3	4	64.8	4	-1E+10	1	-1E+10	1	-1E+10	1	-1E+10	1	-1E+10	1	-1E+10	1
4901784	147	C	07/14/2019	10:41	-132.224	42.882	0	187.20	0	8.1540	0	35.6500	8	27.764	0	185.633	0	183.5	4	64.5	4	-1E+10	1	-1E+10	1	-1E+10	1	-1E+10	1	-1E+10	1	-1E+10	1
4901784	147	C	07/14/2019	10:41	-132.224	42.882	0	189.70	0	8.1560	0	35.6570	8	27.770	0	188.110	0	182.2	4	64.0	4	-1E+10	1	-1E+10	1	-1E+10	1	-1E+10	1	-1E+10	1	-1E+10	1
4901784	147	C	07/14/2019	10:41	-132.224	42.882	0	192.10	0	8.1730	0	35.6740	8	27.780	0	190.489	0	180.5	4	63.5	4	-1E+10	1	-1E+10	1	-1E+10	1	-1E+10	1	-1E+10	1	-1E+10	1
4901784	147	C	07/14/2019	10:41	-132.224	42.882	0	194.70	0	8.1820	0	35.6830	8	27.786	0	193.066	0	179.0	4	63.0	4	-1E+10	1	-1E+10	1	-1E+10	1	-1E+10	1	-1E+10	1	-1E+10	1
4901784	147	C	07/14/2019	10:41	-132.224	42.882	0	197.20	0	8.1900	0	35.6970	8	27.796	0	195.544	0	177.3	4	62.4	4	-1E+10	1	-1E+10	1	-1E+10	1	-1E+10	1	-1E+10	1	-1E+10	1
4901784	147	C	07/14/2019	10:41	-132.224	42.882	0	199.70	0	8.1980	0	35.7140	8	27.808	0	198.022	0	175.6	4	61.8	4	-1E+10	1	-1E+10	1	-1E+10	1	-1E+10	1	-1E+10	1	-1E+10	1
4901784	147	C	07/14/2019	10:41	-132.224	42.882	0	202.30	0	8.2080	0	35.7270	8	27.817	0	200.599	0	174.1	4	61.3	4	-1E+10	1	-1E+10	1	-1E+10	1	-1E+10	1	-1E+10	1	-1E+10	1
4901784	147	C	07/14/2019	10:41	-132.224	42.882	0	204.90	0	8.1970	0	35.7370	8	27.826	0	203.176	0	172.7	4	60.8	4	-1E+10	1	-1E+10	1	-1E+10	1	-1E+10	1	-1E+10	1	-1E+10	1
4901784	147	C	07/14/2019	10:41	-132.224	42.882	0	207.50	0	8.1940	0	35.7450	8	27.833	0	205.752	0	171.1	4	60.2	4	-1E+10	1	-1E+10	1	-1E+10	1	-1E+10	1	-1E+10	1	-1E+10	1
4901784	147	C	07/14/2019	10:41	-132.224	42.882	0	210.00	0	8.1740	0	35.7580	8	27.847	0	208.230	0	169.6	4	59.7	4	-1E+10	1	-1E+10	1	-1E+10	1	-1E+10	1	-1E+10	1	-1E+10	1
4901784	147	C	07/14/2019	10:41	-132.224	42.882	0	212.70	0	8.1260	0	35.7710	8	27.864	0	210.906	0	168.5	4	59.2	4	-1E+10	1	-1E+10	1	-1E+10	1	-1E+10	1	-1E+10	1	-1E+10	1
4901784	147	C	07/14/2019	10:41	-132.224	42.882	0	214.50	0	8.0910	0	35.7750	8	27.873	0	212.690	0	168.1	4	59.0	4	-1E+10	1	-1E+10	1	-1E+10	1	-1E+10	1	-1E+10	1	-1E+10	1
4901784	147	C	07/14/2019	10:41	-132.224	42.882	0	217.20	0	8.0790	0	35.7750	8	27.875	0	215.366	0	167.2	4	58.7	4	-1E+10	1	-1E+10	1	-1E+10	1	-1E+10	1	-1E+10	1	-1E+10	1
4901784	147	C	07/14/2019	10:41	-132.224	42.882	0	219.80	0	8.0600	0	35.7760	8	27.878	0	217.942	0	166.2	4	58.3	4	-1E+10	1	-1E+10	1	-1E+10	1	-1E+10	1	-1E+10	1	-1E+10	1
4901784	147	C	07/14/2019	10:41	-132.224	42.882	0	222.40	0	8.0030	0	35.7810	8	27.891	0	220.519	0	165.0	4	57.8	4	-1E+10	1	-1E+10	1	-1E+10	1	-1E+10	1	-1E+10	1	-1E+10	1
4901784	147	C	07/14/2019	10:41	-132.224	42.882	0	225.00	0	7.9830	0	35.7830	8	27.896	0	223.096	0	164.2	4	57.5	4	-1E+10	1	-1E+10	1	-1E+10	1	-1E+10	1	-1E+10	1	-1E+10	1
4901784	147	C	07/14/2019	10:41	-132.224	42.882	0	227.70	0	7.9610	0	35.7850	8	27.900	0	225.771	0	163.3	4	57.2	4	-1E+10	1	-1E+10	1	-1E+10	1	-1E+10	1	-1E+10	1	-1E+10	1
4901784	147	C	07/14/2019	10:41	-132.224	42.882	0	230.30	0	7.9370	0	35.7840	8	27.903	0	228.348	0	162.5	4	56.9	4	-1E+10	1	-1E+10	1	-1E+10	1	-1E+10	1	-1E+10	1	-1E+10	1
4901784	147	C	07/14/2019	10:41	-132.224	42.882	0	232.10	0	7.9320	0	35.7810	8	27.902	0	230.132	0	161.8	4	56.6	4	-1E+10	1	-1E+10	1	-1E+10	1	-1E+10	1	-1E+10	1	-1E+10	1
4901784	147	C	07/14/2019	10:41	-132.224	42.882	0	234.80	0	7.8370	0	35.7860	8	27.920	0	232.807	0	160.8	4	56.2	4	-1E+10	1	-1E+10	1	-1E+10	1	-1E+10	1	-1E+10	1	-1E+10	1
4901784	147	C	07/14/2019	10:41	-132.224	42.882	0	237.40	0	7.7750	0	35.7870	8	27.930	0	235.384	0	160.3	4	55.9	4	-1E+10	1	-1E+10	1	-1E+10	1	-1E+10	1	-1E+10	1	-1E+10	1
4901784	147	C	07/14/2019	10:41	-132.224	42.882	0	240.00	0	7.7580	0	35.7870	8	27.933	0	237.960	0	159.8	4	55.7	4	-1E+10	1	-1E+10	1	-1E+10	1	-1E+10	1	-1E+10	1	-1E+10	1
4901784	147	C	07/14/2019	10:41	-132.224	42.882	0	242.70	0	7.7460	0	35.7860	8	27.934	0	240.636	0	159.3	4	55.5	4	-1E+10	1	-1E+10	1	-1E+10	1	-1E+10	1	-1E+10	1	-1E+10	1
4901784	147	C	07/14/2019	10:41	-132.224	42.882	0	244.50	0	7.7410	0	35.7910	8	27.938	0	242.419	0	158.8	4	55.3	4	-1E+10	1	-1E+10	1	-1E+10	1	-1E+10	1	-1E+10	1	-1E+10	1
4901784	147	C	07/14/2019	10:41	-132.224	42.882	0	247.20	0	7.7170	0	35.7920	8	27.943	0	245.095	0	158.3	4	55.1	4	-1E+10	1	-1E+10	1	-1E+10	1	-1E+10	1	-1E+10	1	-1E+10	1
4901784	147	C	07/14/2019	10:41	-132.224	42.882	0	249.90	0	7.6950	0	35.7900	8	27.945	0	247.770	0	157.9	4	55.0	4	-1E+10	1	-1E+10	1	-1E+10	1	-1E+10	1	-1E+10	1	-1E+10	1
4901784	147	C	07/14/2019	10:41	-132.224	42.882	0	252.70	0	7.6530	0	35.7900	8	27.951	0	250.544	0	157.4	4	54.7	4	-1E+10	1	-1E+10	1	-1E+10	1	-1E+10	1	-1E+10	1	-1E+10	1
4901784	147	C	07/14/2019	10:41	-132.224	42.882	0	255.40	0	7.6290	0	35.7850	8	27.950	0	253.220	0	156.5	4	54.4	4	-1E+10	1	-1E+10	1	-1E+10	1	-1E+10	1	-1E+10	1	-1E+10	1
4901784	147	C	07/14/2019	10:41	-132.224	42.882	0	257.30	0	7.5700	0	35.7870	8	27.961	0	255.102	0	155.8	4	54.1	4	-1E+10	1	-1E+10	1	-1E+10	1	-1E+10	1	-1E+10	1	-1E+10	1
4901784	147	C	07/14/2019	10:41	-132.224	42.882	0	260.00	0	7.5020	0	35.7840	8	27.968	0	257.778	0	154.5	4	53.6	4	-1E+10	1	-1E+10	1	-1E+10	1	-1E+10	1	-1E+10	1	-1E+10	1
4901784	147	C	07/14/2019	10:41	-132.224	42.882	0	262.80	0	7.4350	0	35.7820	8	27.977	0	260.552	0	153.2	4	53.0	4	-1E+10	1	-1E+10	1	-1E+10	1	-1E+10	1	-1E+10	1	-1E+10	1
4901784	147	C	07/14/2019	10:41	-132.224	42.882	0	264.70	0	7.3480	0	35.7840	8	27.991	0	262.434	0	152.3	4	52.6	4	-1E+10	1	-1E+10	1	-1E+10	1	-1E+10	1	-1E+10	1	-1E+10	1
4901784	147	C	07/14/2019	10:41	-132.224	42.882	0	267.50	0	7.2970	0	35.7830	8	27.997	0	265.209	0	151.2	4	52.2	4	-1E+10	1	-1E+10	1	-1E+10	1	-1E+10	1	-1E+10	1	-1E+10	1
4901784	147	C	07/14/2019	10:41	-132.224	42.882	0	270.30	0	7.2600	0	35.7830	8	28.003	0	267.983	0	150.0	4	51.7	4	-1E+10	1	-1E+10	1	-1E+10	1	-1E+10	1	-1E+10	1	-1E+10	1
4901784	147	C	07/14/2019	10:41	-132.224	42.882	0	272.20	0	7.2490	0	35.7810	8	28.003	0	269.865	0	149.1	4	51.4	4	-1E+10	1	-1E+10	1	-1E+10	1	-1E+10	1	-1E+10	1	-1E+10	1
4901784	147	C	07/14/2019	10:41	-132.224	42.882	0	275.00	0	7.2150	0	35.7800	8	28.007	0	272.640	0	147.7	4	50.9	4	-1E+10	1	-1E+10	1	-1E+10	1	-1E+10	1	-1E+10	1	-1E+10	1
4901784	147	C	07/14/2019	10:41	-132.224	42.882	0	277.70	0	7.1620	0	35.7800	8	28.015	0	275.315	0	146.5	4	50.4	4	-1E+10	1	-1E+10	1	-1E+10	1	-1E+10	1	-1E+10	1	-1E+10	1
4901784	147	C	07/14/2019	10:41	-132.224	42.882	0	279.60	0	7.1440	0	35.7790	8	28.016	0	277.197	0	145.5	4	50.0	4	-1E+10	1	-1E+10	1	-1E+10	1	-1E+10	1	-1E+10	1	-1E+10	1
4901784	147	C	07/14/2019	10:41	-132.224	42.882	0	282.40	0	7.1010	0	35.7780	8	28.022	0	279.971	0	143.9	4	49.4	4	-1E+10	1	-1E+10	1	-1E+10	1	-1E+10	1	-1E+10	1	-1E+10	1
4901784	147	C	07/14/2019	10:41	-132.224	42.882	0	285.20	0	7.0620	0	35.7770	8	28.027	0	282.745	0	142.4	4	48.9	4	-1E+10	1	-1E+10	1	-1E+10	1	-1E+10	1	-1E+10	1	-1E+10	1
4901784	147	C	07/14/2019	10:41	-132.224	42.882	0	287.10	0	7.0240	0	35.7780	8	28.033	0	284.627	0	141.4	4	48.5	4	-1E+10	1	-1E+10	1	-1E+10	1	-1E+10	1	-1E+10	1	-1E+10	1
4901784	147	C	07/14/2019	10:41	-132.224	42.882	0	289.90	0	6.9820	0	35.7770	8	28.038	0	287.401	0	140.1	4	48.0	4	-1E+10	1	-1E+10	1	-1E+10	1	-1E+10	1	-1E+10	1	-1E+10	1
4901784	147	C	07/14/2019	10:41	-132.224	42.882	0	292.70	0	6.9520	0	35.7760	8	28.041	0	290.175	0	139.1	4	47.6	4	-1E+10	1	-1E+10	1	-1E+10	1	-1E+10	1	-1E+10	1	-1E+10	1
4901784	147	C	07/14/2019	10:41	-132.224	42.882	0	294.60	0	6.9310	0	35.7770	8	28.045	0	292.057	0	138.3	4	47.3	4	-1E+10	1	-1E+10	1	-1E+10	1	-1E+10	1	-1E+10	1	-1E+10	1
4901784	147	C	07/14/2019	10:41	-132.224	42.882	0	297.00	0	6.8910	0	35.7750	8	28.049	0	294.435	0	137.0	4	46.8	4	-1E+10	1	-1E+10	1	-1E+10	1	-1E+10	1	-1E+10	1	-1E+10	1
4901784	147	C	07/14/2019	10:41	-132.224	42.882	0	299.70	0	6.8490	0	35.7720	8	28.053	0	297.110	0	134.9	4	46.1	4	-1E+10	1	-1E+10	1	-1E+10	1	-1E+10	1	-1E+10	1	-1E+10	1
4901784	147	C	07/14/2019	10:41	-132.224	42.882	0	302.20	0	6.7710	0	35.7740	8	28.065	0	299.586	0	133.5	4	45.5	4	-1E+10	1	-1E+10	1	-1E+10	1	-1E+10	1	-1E+10	1	-1E+10	1
4901784	147	C	07/14/2019	10:41	-132.224	42.882	0	304.60	0	6.7400	0	35.7740	8	28.069	0	301.964	0	132.2	4	45.1	4	-1E+10	1	-1E+10	1	-1E+10	1	-1E+10	1	-1E+10	1	-1E+10	1
4901784	147	C	07/14/2019	10:41	-132.224	42.882	0	307.80	0	6.6890	0	35.7730	8	28.076	0	305.134	0	130.1	4	44.3	4	-1E+10	1	-1E+10	1	-1E+10	1	-1E+10	1	-1E+10	1	-1E+10	1
4901784	147	C	07/14/2019	10:41	-132.224	42.882	0	310.10	0	6.6430	0	35.7720	8	28.081	0	307.412	0	128.7	4	43.8	4	-1E+10	1	-1E+10	1	-1E+10	1	-1E+10	1	-1E+10	1	-1E+10	1
4901784	147	C	07/14/2019	10:41	-132.224	42.882	0	312.60	0	6.6040	0	35.7730	8	28.087	0	309.889	0	127.2	4	43.2	4	-1E+10	1	-1E+10	1	-1E+10	1	-1E+10	1	-1E+10	1	-1E+10	1
4901784	147	C	07/14/2019	10:41	-132.224	42.882	0	315.00	0	6.5600	0	35.7730	8	28.093	0	312.266	0	125.9	4	42.7	4	-1E+10	1	-1E+10	1	-1E+10	1	-1E+10	1	-1E+10	1	-1E+10	1
4901784	147	C	07/14/2019	10:41	-132.224	42.882	0	317.40	0	6.5160	0	35.7730	8	28.099	0	314.643	0	124.5	4	42.2	4	-1E+10	1	-1E+10	1	-1E+10	1	-1E+10	1	-1E+10	1	-1E+10	1
4901784	147	C	07/14/2019	10:41	-132.224	42.882	0	319.80	0	6.4940	0	35.7720	8	28.102	0	317.021	0	123.0	4	41.7	4	-1E+10	1	-1E+10	1	-1E+10	1	-1E+10	1	-1E+10	1	-1E+10	1
4901784	147	C	07/14/2019	10:41	-132.224	42.882	0	322.30	0	6.4610	0	35.7700	8	28.104	0	319.497	0	121.1	4	41.0	4	-1E+10	1	-1E+10	1	-1E+10	1	-1E+10	1	-1E+10	1	-1E+10	1
4901784	147	C	07/14/2019	10:41	-132.224	42.882	0	324.80	0	6.4180	0	35.7700	8	28.110	0	321.973	0	118.6	4	40.1	4	-1E+10	1	-1E+10	1	-1E+10	1	-1E+10	1	-1E+10	1	-1E+10	1
4901784	147	C	07/14/2019	10:41	-132.224	42.882	0	327.30	0	6.3260	0	35.7730	8	28.125	0	324.450	0	116.9	4	39.5	4	-1E+10	1	-1E+10	1	-1E+10	1	-1E+10	1	-1E+10	1	-1E+10	1
4901784	147	C	07/14/2019	10:41	-132.224	42.882	0	329.90	0	6.2910	0	35.7740	8	28.130	0	327.025	0	115.9	4	39.1	4	-1E+10	1	-1E+10	1	-1E+10	1	-1E+10	1	-1E+10	1	-1E+10	1
4901784	147	C	07/14/2019	10:41	-132.224	42.882	0	332.40	0	6.2890	0	35.7730	8	28.130	0	329.501	0	115.0	4	38.8	4	-1E+10	1	-1E+10	1	-1E+10	1	-1E+10	1	-1E+10	1	-1E+10	1
4901784	147	C	07/14/2019	10:41	-132.224	42.882	0	335.00	0	6.2810	0	35.7720	8	28.130	0	332.076	0	113.8	4	38.4	4	-1E+10	1	-1E+10	1	-1E+10	1	-1E+10	1	-1E+10	1	-1E+10	1
4901784	147	C	07/14/2019	10:41	-132.224	42.882	0	337.60	0	6.2620	0	35.7700	8	28.131	0	334.652	0	112.2	4	37.8	4	-1E+10	1	-1E+10	1	-1E+10	1	-1E+10	1	-1E+10	1	-1E+10	1
4901784	147	C	07/14/2019	10:41	-132.224	42.882	0	340.20	0	6.2360	0	35.7680	8	28.133	0	337.227	0	110.4	4	37.2	4	-1E+10	1	-1E+10	1	-1E+10	1	-1E+10	1	-1E+10	1	-1E+10	1
4901784	147	C	07/14/2019	10:41	-132.224	42.882	0	342.70	0	6.1560	0	35.7720	8	28.147	0	339.703	0	108.8	4	36.6	4	-1E+10	1	-1E+10	1	-1E+10	1	-1E+10	1	-1E+10	1	-1E+10	1
4901784	147	C	07/14/2019	10:41	-132.224	42.882	0	345.20	0	6.1190	0	35.7720	8	28.152	0	342.179	0	107.7	4	36.2	4	-1E+10	1	-1E+10	1	-1E+10	1	-1E+10	1	-1E+10	1	-1E+10	1
4901784	147	C	07/14/2019	10:41	-132.224	42.882	0	347.80	0	6.1010	0	35.7720	8	28.154	0	344.754	0	106.7	4	35.8	4	-1E+10	1	-1E+10	1	-1E+10	1	-1E+10	1	-1E+10	1	-1E+10	1
4901784	147	C	07/14/2019	10:41	-132.224	42.882	0	350.30	0	6.0700	0	35.7700	8	28.157	0	347.230	0	105.7	4	35.5	4	-1E+10	1	-1E+10	1	-1E+10	1	-1E+10	1	-1E+10	1	-1E+10	1
4901784	147	C	07/14/2019	10:41	-132.224	42.882	0	352.90	0	6.0590	0	35.7690	8	28.157	0	349.805	0	104.3	4	35.0	4	-1E+10	1	-1E+10	1	-1E+10	1	-1E+10	1	-1E+10	1	-1E+10	1
4901784	147	C	07/14/2019	10:41	-132.224	42.882	0	355.40	0	5.9930	0	35.7700	8	28.167	0	352.281	0	102.9	4	34.5	4	-1E+10	1	-1E+10	1	-1E+10	1	-1E+10	1	-1E+10	1	-1E+10	1
4901784	147	C	07/14/2019	10:41	-132.224	42.882	0	357.20	0	5.9520	0	35.7710	8	28.173	0	354.064	0	102.1	4	34.2	4	-1E+10	1	-1E+10	1	-1E+10	1	-1E+10	1	-1E+10	1	-1E+10	1
4901784	147	C	07/14/2019	10:41	-132.224	42.882	0	359.70	0	5.9210	0	35.7720	8	28.178	0	356.540	0	100.9	4	33.7	4	-1E+10	1	-1E+10	1	-1E+10	1	-1E+10	1	-1E+10	1	-1E+10	1
4901784	147	C	07/14/2019	10:41	-132.224	42.882	0	362.30	0	5.9060	0	35.7710	8	28.179	0	359.114	0	100.0	4	33.4	4	-1E+10	1	-1E+10	1	-1E+10	1	-1E+10	1	-1E+10	1	-1E+10	1
4901784	147	C	07/14/2019	10:41	-132.224	42.882	0	364.90	0	5.8720	0	35.7710	8	28.183	0	361.689	0	98.9	4	33.0	4	-1E+10	1	-1E+10	1	-1E+10	1	-1E+10	1	-1E+10	1	-1E+10	1
4901784	147	C	07/14/2019	10:41	-132.224	42.882	0	367.60	0	5.8310	0	35.7720	8	28.189	0	364.363	0	97.3	4	32.5	4	-1E+10	1	-1E+10	1	-1E+10	1	-1E+10	1	-1E+10	1	-1E+10	1
4901784	147	C	07/14/2019	10:41	-132.224	42.882	0	370.30	0	5.8050	0	35.7720	8	28.193	0	367.037	0	96.2	4	32.1	4	-1E+10	1	-1E+10	1	-1E+10	1	-1E+10	1	-1E+10	1	-1E+10	1
4901784	147	C	07/14/2019	10:41	-132.224	42.882	0	373.00	0	5.7880	0	35.7710	8	28.194	0	369.711	0	95.0	4	31.7	4	-1E+10	1	-1E+10	1	-1E+10	1	-1E+10	1	-1E+10	1	-1E+10	1
4901784	147	C	07/14/2019	10:41	-132.224	42.882	0	374.80	0	5.7610	0	35.7730	8	28.199	0	371.493	0	94.1	4	31.3	4	-1E+10	1	-1E+10	1	-1E+10	1	-1E+10	1	-1E+10	1	-1E+10	1
4901784	147	C	07/14/2019	10:41	-132.224	42.882	0	377.40	0	5.7300	0	35.7730	8	28.203	0	374.068	0	92.9	4	30.9	4	-1E+10	1	-1E+10	1	-1E+10	1	-1E+10	1	-1E+10	1	-1E+10	1
4901784	147	C	07/14/2019	10:41	-132.224	42.882	0	380.10	0	5.7060	0	35.7730	8	28.206	0	376.742	0	91.7	4	30.5	4	-1E+10	1	-1E+10	1	-1E+10	1	-1E+10	1	-1E+10	1	-1E+10	1
4901784	147	C	07/14/2019	10:41	-132.224	42.882	0	382.70	0	5.6550	0	35.7750	8	28.214	0	379.317	0	90.5	4	30.1	4	-1E+10	1	-1E+10	1	-1E+10	1	-1E+10	1	-1E+10	1	-1E+10	1
4901784	147	C	07/14/2019	10:41	-132.224	42.882	0	385.30	0	5.6180	0	35.7760	8	28.220	0	381.891	0	89.9	4	29.9	4	-1E+10	1	-1E+10	1	-1E+10	1	-1E+10	1	-1E+10	1	-1E+10	1
4901784	147	C	07/14/2019	10:41	-132.224	42.882	0	387.00	0	5.6140	0	35.7780	8	28.222	0	383.574	0	89.6	4	29.7	4	-1E+10	1	-1E+10	1	-1E+10	1	-1E+10	1	-1E+10	1	-1E+10	1
4901784	147	C	07/14/2019	10:41	-132.224	42.882	0	389.70	0	5.6010	0	35.7770	8	28.222	0	386.248	0	89.0	4	29.5	4	-1E+10	1	-1E+10	1	-1E+10	1	-1E+10	1	-1E+10	1	-1E+10	1
4901784	147	C	07/14/2019	10:41	-132.224	42.882	0	392.30	0	5.5890	0	35.7780	8	28.225	0	388.823	0	88.4	4	29.3	4	-1E+10	1	-1E+10	1	-1E+10	1	-1E+10	1	-1E+10	1	-1E+10	1
4901784	147	C	07/14/2019	10:41	-132.224	42.882	0	394.90	0	5.5710	0	35.7790	8	28.228	0	391.397	0	87.8	4	29.1	4	-1E+10	1	-1E+10	1	-1E+10	1	-1E+10	1	-1E+10	1	-1E+10	1
4901784	147	C	07/14/2019	10:41	-132.224	42.882	0	397.50	0	5.5610	0	35.7780	8	28.228	0	393.972	0	87.1	4	28.9	4	-1E+10	1	-1E+10	1	-1E+10	1	-1E+10	1	-1E+10	1	-1E+10	1
4901784	147	C	07/14/2019	10:41	-132.224	42.882	0	400.10	0	5.5300	0	35.7800	8	28.234	0	396.546	0	86.4	4	28.6	4	-1E+10	1	-1E+10	1	-1E+10	1	-1E+10	1	-1E+10	1	-1E+10	1
4901784	147	C	07/14/2019	10:41	-132.224	42.882	0	402.70	0	5.5130	0	35.7800	8	28.236	0	399.120	0	85.8	4	28.4	4	-1E+10	1	-1E+10	1	-1E+10	1	-1E+10	1	-1E+10	1	-1E+10	1
4901784	147	C	07/14/2019	10:41	-132.224	42.882	0	405.30	0	5.5000	0	35.7800	8	28.238	0	401.695	0	85.0	4	28.1	4	-1E+10	1	-1E+10	1	-1E+10	1	-1E+10	1	-1E+10	1	-1E+10	1
4901784	147	C	07/14/2019	10:41	-132.224	42.882	0	408.00	0	5.4850	0	35.7800	8	28.239	0	404.368	0	84.2	4	27.9	4	-1E+10	1	-1E+10	1	-1E+10	1	-1E+10	1	-1E+10	1	-1E+10	1
4901784	147	C	07/14/2019	10:41	-132.224	42.882	0	409.80	0	5.4730	0	35.7800	8	28.241	0	406.150	0	83.6	4	27.7	4	-1E+10	1	-1E+10	1	-1E+10	1	-1E+10	1	-1E+10	1	-1E+10	1
4901784	147	C	07/14/2019	10:41	-132.224	42.882	0	412.40	0	5.4490	0	35.7810	8	28.245	0	408.725	0	82.4	4	27.3	4	-1E+10	1	-1E+10	1	-1E+10	1	-1E+10	1	-1E+10	1	-1E+10	1
4901784	147	C	07/14/2019	10:41	-132.224	42.882	0	415.00	0	5.4090	0	35.7830	8	28.251	0	411.299	0	81.3	4	26.9	4	-1E+10	1	-1E+10	1	-1E+10	1	-1E+10	1	-1E+10	1	-1E+10	1
4901784	147	C	07/14/2019	10:41	-132.224	42.882	0	417.60	0	5.3860	0	35.7840	8	28.255	0	413.873	0	80.4	4	26.5	4	-1E+10	1	-1E+10	1	-1E+10	1	-1E+10	1	-1E+10	1	-1E+10	1
4901784	147	C	07/14/2019	10:41	-132.224	42.882	0	420.30	0	5.3520	0	35.7870	8	28.261	0	416.546	0	79.6	4	26.3	4	-1E+10	1	-1E+10	1	-1E+10	1	-1E+10	1	-1E+10	1	-1E+10	1
4901784	147	C	07/14/2019	10:41	-132.224	42.882	0	422.00	0	5.3420	0	35.7860	8	28.262	0	418.229	0	79.0	4	26.1	4	-1E+10	1	-1E+10	1	-1E+10	1	-1E+10	1	-1E+10	1	-1E+10	1
4901784	147	C	07/14/2019	10:41	-132.224	42.882	0	424.60	0	5.3190	0	35.7880	8	28.266	0	420.804	0	78.3	4	25.8	4	-1E+10	1	-1E+10	1	-1E+10	1	-1E+10	1	-1E+10	1	-1E+10	1
4901784	147	C	07/14/2019	10:41	-132.224	42.882	0	427.20	0	5.3000	0	35.7900	8	28.270	0	423.378	0	77.5	4	25.6	4	-1E+10	1	-1E+10	1	-1E+10	1	-1E+10	1	-1E+10	1	-1E+10	1
4901784	147	C	07/14/2019	10:41	-132.224	42.882	0	429.70	0	5.2720	0	35.7910	8	28.274	0	425.853	0	76.8	4	25.3	4	-1E+10	1	-1E+10	1	-1E+10	1	-1E+10	1	-1E+10	1	-1E+10	1
4901784	147	C	07/14/2019	10:41	-132.224	42.882	0	432.30	0	5.2590	0	35.7920	8	28.277	0	428.427	0	76.2	4	25.1	4	-1E+10	1	-1E+10	1	-1E+10	1	-1E+10	1	-1E+10	1	-1E+10	1
4901784	147	C	07/14/2019	10:41	-132.224	42.882	0	434.80	0	5.2450	0	35.7930	8	28.279	0	430.902	0	75.3	4	24.8	4	-1E+10	1	-1E+10	1	-1E+10	1	-1E+10	1	-1E+10	1	-1E+10	1
4901784	147	C	07/14/2019	10:41	-132.224	42.882	0	437.30	0	5.2280	0	35.7940	8	28.282	0	433.377	0	74.4	4	24.5	4	-1E+10	1	-1E+10	1	-1E+10	1	-1E+10	1	-1E+10	1	-1E+10	1
4901784	147	C	07/14/2019	10:41	-132.224	42.882	0	439.80	0	5.2130	0	35.7940	8	28.284	0	435.852	0	73.4	4	24.1	4	-1E+10	1	-1E+10	1	-1E+10	1	-1E+10	1	-1E+10	1	-1E+10	1
4901784	147	C	07/14/2019	10:41	-132.224	42.882	0	442.30	0	5.1830	0	35.7960	8	28.289	0	438.327	0	72.3	4	23.8	4	-1E+10	1	-1E+10	1	-1E+10	1	-1E+10	1	-1E+10	1	-1E+10	1
4901784	147	C	07/14/2019	10:41	-132.224	42.882	0	444.80	0	5.1610	0	35.8000	8	28.295	0	440.801	0	71.1	4	23.4	4	-1E+10	1	-1E+10	1	-1E+10	1	-1E+10	1	-1E+10	1	-1E+10	1
4901784	147	C	07/14/2019	10:41	-132.224	42.882	0	447.40	0	5.1160	0	35.8040	8	28.304	0	443.375	0	69.9	4	22.9	4	-1E+10	1	-1E+10	1	-1E+10	1	-1E+10	1	-1E+10	1	-1E+10	1
4901784	147	C	07/14/2019	10:41	-132.224	42.882	0	450.00	0	5.0940	0	35.8040	8	28.306	0	445.949	0	68.9	4	22.6	4	-1E+10	1	-1E+10	1	-1E+10	1	-1E+10	1	-1E+10	1	-1E+10	1
4901784	147	C	07/14/2019	10:41	-132.224	42.882	0	452.60	0	5.0660	0	35.8080	8	28.313	0	448.523	0	68.2	4	22.4	4	-1E+10	1	-1E+10	1	-1E+10	1	-1E+10	1	-1E+10	1	-1E+10	1
4901784	147	C	07/14/2019	10:41	-132.224	42.882	0	455.10	0	5.0480	0	35.8100	8	28.317	0	450.998	0	67.4	4	22.1	4	-1E+10	1	-1E+10	1	-1E+10	1	-1E+10	1	-1E+10	1	-1E+10	1
4901784	147	C	07/14/2019	10:41	-132.224	42.882	0	457.60	0	5.0310	0	35.8110	8	28.319	0	453.472	0	66.5	4	21.8	4	-1E+10	1	-1E+10	1	-1E+10	1	-1E+10	1	-1E+10	1	-1E+10	1
4901784	147	C	07/14/2019	10:41	-132.224	42.882	0	460.20	0	5.0150	0	35.8120	8	28.322	0	456.046	0	65.6	4	21.5	4	-1E+10	1	-1E+10	1	-1E+10	1	-1E+10	1	-1E+10	1	-1E+10	1
4901784	147	C	07/14/2019	10:41	-132.224	42.882	0	462.80	0	4.9840	0	35.8180	8	28.331	0	458.620	0	64.7	4	21.2	4	-1E+10	1	-1E+10	1	-1E+10	1	-1E+10	1	-1E+10	1	-1E+10	1
4901784	147	C	07/14/2019	10:41	-132.224	42.882	0	465.40	0	4.9650	0	35.8190	8	28.334	0	461.193	0	63.9	4	20.9	4	-1E+10	1	-1E+10	1	-1E+10	1	-1E+10	1	-1E+10	1	-1E+10	1
4901784	147	C	07/14/2019	10:41	-132.224	42.882	0	467.90	0	4.9440	0	35.8220	8	28.339	0	463.668	0	63.0	4	20.6	4	-1E+10	1	-1E+10	1	-1E+10	1	-1E+10	1	-1E+10	1	-1E+10	1
4901784	147	C	07/14/2019	10:41	-132.224	42.882	0	469.70	0	4.9310	0	35.8240	8	28.342	0	465.450	0	62.6	4	20.5	4	-1E+10	1	-1E+10	1	-1E+10	1	-1E+10	1	-1E+10	1	-1E+10	1
4901784	147	C	07/14/2019	10:41	-132.224	42.882	0	472.30	0	4.9250	0	35.8240	8	28.342	0	468.023	0	61.8	4	20.2	4	-1E+10	1	-1E+10	1	-1E+10	1	-1E+10	1	-1E+10	1	-1E+10	1
4901784	147	C	07/14/2019	10:41	-132.224	42.882	0	474.90	0	4.9110	0	35.8260	8	28.346	0	470.597	0	60.8	4	19.9	4	-1E+10	1	-1E+10	1	-1E+10	1	-1E+10	1	-1E+10	1	-1E+10	1
4901784	147	C	07/14/2019	10:41	-132.224	42.882	0	477.40	0	4.8980	0	35.8300	8	28.350	0	473.071	0	59.7	4	19.5	4	-1E+10	1	-1E+10	1	-1E+10	1	-1E+10	1	-1E+10	1	-1E+10	1
4901784	147	C	07/14/2019	10:41	-132.224	42.882	0	479.90	0	4.8820	0	35.8330	8	28.355	0	475.546	0	58.6	4	19.1	4	-1E+10	1	-1E+10	1	-1E+10	1	-1E+10	1	-1E+10	1	-1E+10	1
4901784	147	C	07/14/2019	10:41	-132.224	42.882	0	482.40	0	4.8730	0	35.8370	8	28.359	0	478.020	0	57.5	4	18.8	4	-1E+10	1	-1E+10	1	-1E+10	1	-1E+10	1	-1E+10	1	-1E+10	1
4901784	147	C	07/14/2019	10:41	-132.224	42.882	0	485.00	0	4.8700	0	35.8370	8	28.359	0	480.594	0	56.2	4	18.4	4	-1E+10	1	-1E+10	1	-1E+10	1	-1E+10	1	-1E+10	1	-1E+10	1
4901784	147	C	07/14/2019	10:41	-132.224	42.882	0	487.60	0	4.8470	0	35.8440	8	28.368	0	483.167	0	55.0	4	17.9	4	-1E+10	1	-1E+10	1	-1E+10	1	-1E+10	1	-1E+10	1	-1E+10	1
4901784	147	C	07/14/2019	10:41	-132.224	42.882	0	490.20	0	4.8330	0	35.8460	8	28.371	0	485.740	0	53.9	4	17.6	4	-1E+10	1	-1E+10	1	-1E+10	1	-1E+10	1	-1E+10	1	-1E+10	1
4901784	147	C	07/14/2019	10:41	-132.224	42.882	0	492.80	0	4.8140	0	35.8520	8	28.378	0	488.314	0	52.8	4	17.2	4	-1E+10	1	-1E+10	1	-1E+10	1	-1E+10	1	-1E+10	1	-1E+10	1
4901784	147	C	07/14/2019	10:41	-132.224	42.882	0	495.50	0	4.8030	0	35.8540	8	28.381	0	490.986	0	52.0	4	16.9	4	-1E+10	1	-1E+10	1	-1E+10	1	-1E+10	1	-1E+10	1	-1E+10	1
4901784	147	C	07/14/2019	10:41	-132.224	42.882	0	497.30	0	4.7980	0	35.8550	8	28.382	0	492.767	0	51.2	4	16.7	4	-1E+10	1	-1E+10	1	-1E+10	1	-1E+10	1	-1E+10	1	-1E+10	1
4901784	147	C	07/14/2019	10:41	-132.224	42.882	0	500.00	0	4.7870	0	35.8600	8	28.387	0	495.439	0	49.9	4	16.3	4	-1E+10	1	-1E+10	1	-1E+10	1	-1E+10	1	-1E+10	1	-1E+10	1
4901784	147	C	07/14/2019	10:41	-132.224	42.882	0	504.30	0	4.7720	0	35.8670	8	28.395	0	499.695	0	47.6	4	15.5	4	-1E+10	1	-1E+10	1	-1E+10	1	-1E+10	1	-1E+10	1	-1E+10	1
4901784	147	C	07/14/2019	10:41	-132.224	42.882	0	509.70	0	4.7790	0	35.8790	8	28.403	0	505.039	0	44.4	4	14.5	4	-1E+10	1	-1E+10	1	-1E+10	1	-1E+10	1	-1E+10	1	-1E+10	1
4901784	147	C	07/14/2019	10:41	-132.224	42.882	0	515.00	0	4.7970	0	35.8890	8	28.409	0	510.284	0	42.4	4	13.8	4	-1E+10	1	-1E+10	1	-1E+10	1	-1E+10	1	-1E+10	1	-1E+10	1
4901784	147	C	07/14/2019	10:41	-132.224	42.882	0	520.40	0	4.7750	0	35.8910	8	28.414	0	515.628	0	41.9	4	13.7	4	-1E+10	1	-1E+10	1	-1E+10	1	-1E+10	1	-1E+10	1	-1E+10	1
4901784	147	C	07/14/2019	10:41	-132.224	42.882	0	524.90	0	4.7190	0	35.8920	8	28.421	0	520.081	0	41.3	4	13.4	4	-1E+10	1	-1E+10	1	-1E+10	1	-1E+10	1	-1E+10	1	-1E+10	1
4901784	147	C	07/14/2019	10:41	-132.224	42.882	0	529.30	0	4.6890	0	35.8960	8	28.428	0	524.435	0	39.5	4	12.8	4	-1E+10	1	-1E+10	1	-1E+10	1	-1E+10	1	-1E+10	1	-1E+10	1
4901784	147	C	07/14/2019	10:41	-132.224	42.882	0	535.20	0	4.7150	0	35.9090	8	28.435	0	530.274	0	36.0	4	11.7	4	-1E+10	1	-1E+10	1	-1E+10	1	-1E+10	1	-1E+10	1	-1E+10	1
4901784	147	C	07/14/2019	10:41	-132.224	42.882	0	540.30	0	4.7490	0	35.9200	8	28.440	0	535.320	0	33.7	4	11.0	4	-1E+10	1	-1E+10	1	-1E+10	1	-1E+10	1	-1E+10	1	-1E+10	1
4901784	147	C	07/14/2019	10:41	-132.224	42.882	0	545.00	0	4.7220	0	35.9290	8	28.450	0	539.971	0	32.3	4	10.5	4	-1E+10	1	-1E+10	1	-1E+10	1	-1E+10	1	-1E+10	1	-1E+10	1
4901784	147	C	07/14/2019	10:41	-132.224	42.882	0	549.70	0	4.7060	0	35.9340	8	28.456	0	544.621	0	31.7	4	10.3	4	-1E+10	1	-1E+10	1	-1E+10	1	-1E+10	1	-1E+10	1	-1E+10	1
4901784	147	C	07/14/2019	10:41	-132.224	42.882	0	554.60	0	4.6960	0	35.9350	8	28.458	0	549.469	0	31.0	4	10.1	4	-1E+10	1	-1E+10	1	-1E+10	1	-1E+10	1	-1E+10	1	-1E+10	1
4901784	147	C	07/14/2019	10:41	-132.224	42.882	0	559.50	0	4.6680	0	35.9410	8	28.466	0	554.317	0	30.4	4	9.9	4	-1E+10	1	-1E+10	1	-1E+10	1	-1E+10	1	-1E+10	1	-1E+10	1
4901784	147	C	07/14/2019	10:41	-132.224	42.882	0	564.40	0	4.6580	0	35.9420	8	28.468	0	559.166	0	30.0	4	9.8	4	-1E+10	1	-1E+10	1	-1E+10	1	-1E+10	1	-1E+10	1	-1E+10	1
4901784	147	C	07/14/2019	10:41	-132.224	42.882	0	569.30	0	4.6310	0	35.9610	8	28.486	0	564.013	0	29.5	4	9.6	4	-1E+10	1	-1E+10	1	-1E+10	1	-1E+10	1	-1E+10	1	-1E+10	1
4901784	147	C	07/14/2019	10:41	-132.224	42.882	0	574.40	0	4.5890	0	35.9670	8	28.496	0	569.059	0	28.9	4	9.4	4	-1E+10	1	-1E+10	1	-1E+10	1	-1E+10	1	-1E+10	1	-1E+10	1
4901784	147	C	07/14/2019	10:41	-132.224	42.882	0	579.50	0	4.5580	0	35.9690	8	28.501	0	574.105	0	28.7	4	9.3	4	-1E+10	1	-1E+10	1	-1E+10	1	-1E+10	1	-1E+10	1	-1E+10	1
4901784	147	C	07/14/2019	10:41	-132.224	42.882	0	584.70	0	4.5240	0	35.9710	8	28.506	0	579.249	0	28.4	4	9.2	4	-1E+10	1	-1E+10	1	-1E+10	1	-1E+10	1	-1E+10	1	-1E+10	1
4901784	147	C	07/14/2019	10:41	-132.224	42.882	0	589.80	0	4.4950	0	35.9750	8	28.513	0	584.294	0	27.5	4	8.9	4	-1E+10	1	-1E+10	1	-1E+10	1	-1E+10	1	-1E+10	1	-1E+10	1
4901784	147	C	07/14/2019	10:41	-132.224	42.882	0	595.10	0	4.4810	0	35.9800	8	28.518	0	589.537	0	26.9	4	8.7	4	-1E+10	1	-1E+10	1	-1E+10	1	-1E+10	1	-1E+10	1	-1E+10	1
4901784	147	C	07/14/2019	10:41	-132.224	42.882	0	600.40	0	4.4650	0	35.9830	8	28.523	0	594.780	0	26.7	4	8.7	4	-1E+10	1	-1E+10	1	-1E+10	1	-1E+10	1	-1E+10	1	-1E+10	1
4901784	147	C	07/14/2019	10:41	-132.224	42.882	0	604.90	0	4.4470	0	35.9830	8	28.525	0	599.232	0	26.6	4	8.6	4	-1E+10	1	-1E+10	1	-1E+10	1	-1E+10	1	-1E+10	1	-1E+10	1
4901784	147	C	07/14/2019	10:41	-132.224	42.882	0	609.30	0	4.4210	0	35.9860	8	28.530	0	603.584	0	26.4	4	8.5	4	-1E+10	1	-1E+10	1	-1E+10	1	-1E+10	1	-1E+10	1	-1E+10	1
4901784	147	C	07/14/2019	10:41	-132.224	42.882	0	614.70	0	4.3840	0	35.9880	8	28.536	0	608.925	0	26.1	4	8.4	4	-1E+10	1	-1E+10	1	-1E+10	1	-1E+10	1	-1E+10	1	-1E+10	1
4901784	147	C	07/14/2019	10:41	-132.224	42.882	0	620.30	0	4.3600	0	35.9900	8	28.540	0	614.465	0	25.7	4	8.3	4	-1E+10	1	-1E+10	1	-1E+10	1	-1E+10	1	-1E+10	1	-1E+10	1
4901784	147	C	07/14/2019	10:41	-132.224	42.882	0	624.80	0	4.3280	0	35.9940	8	28.547	0	618.916	0	25.1	4	8.1	4	-1E+10	1	-1E+10	1	-1E+10	1	-1E+10	1	-1E+10	1	-1E+10	1
4901784	147	C	07/14/2019	10:41	-132.224	42.882	0	629.40	0	4.3100	0	36.0010	8	28.554	0	623.465	0	24.1	4	7.8	4	-1E+10	1	-1E+10	1	-1E+10	1	-1E+10	1	-1E+10	1	-1E+10	1
4901784	147	C	07/14/2019	10:41	-132.224	42.882	0	634.90	0	4.2910	0	36.0080	8	28.562	0	628.905	0	23.2	4	7.5	4	-1E+10	1	-1E+10	1	-1E+10	1	-1E+10	1	-1E+10	1	-1E+10	1
4901784	147	C	07/14/2019	10:41	-132.224	42.882	0	640.60	0	4.2660	0	36.0150	8	28.571	0	634.543	0	22.5	4	7.3	4	-1E+10	1	-1E+10	1	-1E+10	1	-1E+10	1	-1E+10	1	-1E+10	1
4901784	147	C	07/14/2019	10:41	-132.224	42.882	0	645.30	0	4.2680	0	36.0180	8	28.573	0	639.191	0	21.8	4	7.0	4	-1E+10	1	-1E+10	1	-1E+10	1	-1E+10	1	-1E+10	1	-1E+10	1
4901784	147	C	07/14/2019	10:41	-132.224	42.882	0	649.90	0	4.2720	0	36.0210	8	28.575	0	643.740	0	21.2	4	6.8	4	-1E+10	1	-1E+10	1	-1E+10	1	-1E+10	1	-1E+10	1	-1E+10	1
4901784	147	C	07/14/2019	10:41	-132.224	42.882	0	654.30	0	4.2640	0	36.0260	8	28.580	0	648.092	0	20.8	4	6.7	4	-1E+10	1	-1E+10	1	-1E+10	1	-1E+10	1	-1E+10	1	-1E+10	1
4901784	147	C	07/14/2019	10:41	-132.224	42.882	0	659.20	0	4.2470	0	36.0290	8	28.584	0	652.938	0	20.4	4	6.6	4	-1E+10	1	-1E+10	1	-1E+10	1	-1E+10	1	-1E+10	1	-1E+10	1
4901784	147	C	07/14/2019	10:41	-132.224	42.882	0	665.00	0	4.2330	0	36.0320	8	28.588	0	658.673	0	20.5	4	6.6	4	-1E+10	1	-1E+10	1	-1E+10	1	-1E+10	1	-1E+10	1	-1E+10	1
4901784	147	C	07/14/2019	10:41	-132.224	42.882	0	670.80	0	4.2100	0	36.0320	8	28.590	0	664.409	0	20.8	4	6.7	4	-1E+10	1	-1E+10	1	-1E+10	1	-1E+10	1	-1E+10	1	-1E+10	1
4901784	147	C	07/14/2019	10:41	-132.224	42.882	0	675.80	0	4.1720	0	36.0340	8	28.596	0	669.353	0	20.8	4	6.7	4	-1E+10	1	-1E+10	1	-1E+10	1	-1E+10	1	-1E+10	1	-1E+10	1
4901784	147	C	07/14/2019	10:41	-132.224	42.882	0	680.10	0	4.1560	0	36.0370	8	28.600	0	673.605	0	20.5	4	6.6	4	-1E+10	1	-1E+10	1	-1E+10	1	-1E+10	1	-1E+10	1	-1E+10	1
4901784	147	C	07/14/2019	10:41	-132.224	42.882	0	684.40	0	4.1440	0	36.0390	8	28.603	0	677.857	0	20.2	4	6.5	4	-1E+10	1	-1E+10	1	-1E+10	1	-1E+10	1	-1E+10	1	-1E+10	1
4901784	147	C	07/14/2019	10:41	-132.224	42.882	0	689.60	0	4.1310	0	36.0410	8	28.606	0	682.999	0	19.6	4	6.3	4	-1E+10	1	-1E+10	1	-1E+10	1	-1E+10	1	-1E+10	1	-1E+10	1
4901784	147	C	07/14/2019	10:41	-132.224	42.882	0	694.80	0	4.1140	0	36.0470	8	28.613	0	688.141	0	19.0	4	6.1	4	-1E+10	1	-1E+10	1	-1E+10	1	-1E+10	1	-1E+10	1	-1E+10	1
4901784	147	C	07/14/2019	10:41	-132.224	42.882	0	700.00	0	4.1000	0	36.0530	8	28.619	0	693.282	0	18.3	4	5.9	4	-1E+10	1	-1E+10	1	-1E+10	1	-1E+10	1	-1E+10	1	-1E+10	1
4901784	147	C	07/14/2019	10:41	-132.224	42.882	0	705.20	0	4.0960	0	36.0560	8	28.622	0	698.424	0	17.7	4	5.7	4	-1E+10	1	-1E+10	1	-1E+10	1	-1E+10	1	-1E+10	1	-1E+10	1
4901784	147	C	07/14/2019	10:41	-132.224	42.882	0	710.50	0	4.0800	0	36.0630	8	28.630	0	703.664	0	17.1	4	5.5	4	-1E+10	1	-1E+10	1	-1E+10	1	-1E+10	1	-1E+10	1	-1E+10	1
4901784	147	C	07/14/2019	10:41	-132.224	42.882	0	714.90	0	4.0650	0	36.0670	8	28.634	0	708.014	0	16.8	4	5.4	4	-1E+10	1	-1E+10	1	-1E+10	1	-1E+10	1	-1E+10	1	-1E+10	1
4901784	147	C	07/14/2019	10:41	-132.224	42.882	0	719.30	0	4.0520	0	36.0690	8	28.637	0	712.364	0	16.5	4	5.3	4	-1E+10	1	-1E+10	1	-1E+10	1	-1E+10	1	-1E+10	1	-1E+10	1
4901784	147	C	07/14/2019	10:41	-132.224	42.882	0	724.70	0	4.0370	0	36.0750	8	28.644	0	717.703	0	16.0	4	5.1	4	-1E+10	1	-1E+10	1	-1E+10	1	-1E+10	1	-1E+10	1	-1E+10	1
4901784	147	C	07/14/2019	10:41	-132.224	42.882	0	730.00	0	4.0290	0	36.0810	8	28.650	0	722.942	0	15.2	4	4.9	4	-1E+10	1	-1E+10	1	-1E+10	1	-1E+10	1	-1E+10	1	-1E+10	1
4901784	147	C	07/14/2019	10:41	-132.224	42.882	0	735.20	0	4.0400	0	36.0920	8	28.657	0	728.083	0	14.4	4	4.6	4	-1E+10	1	-1E+10	1	-1E+10	1	-1E+10	1	-1E+10	1	-1E+10	1
4901784	147	C	07/14/2019	10:41	-132.224	42.882	0	740.50	0	4.0390	0	36.0980	8	28.662	0	733.322	0	14.1	4	4.5	4	-1E+10	1	-1E+10	1	-1E+10	1	-1E+10	1	-1E+10	1	-1E+10	1
4901784	147	C	07/14/2019	10:41	-132.224	42.882	0	744.90	0	4.0300	0	36.1010	8	28.666	0	737.672	0	13.9	4	4.4	4	-1E+10	1	-1E+10	1	-1E+10	1	-1E+10	1	-1E+10	1	-1E+10	1
4901784	147	C	07/14/2019	10:41	-132.224	42.882	0	749.30	0	3.9990	0	36.1040	8	28.671	0	742.021	0	13.9	4	4.5	4	-1E+10	1	-1E+10	1	-1E+10	1	-1E+10	1	-1E+10	1	-1E+10	1
4901784	147	C	07/14/2019	10:41	-132.224	42.882	0	754.70	0	3.9720	0	36.1050	8	28.675	0	747.359	0	13.9	4	4.5	4	-1E+10	1	-1E+10	1	-1E+10	1	-1E+10	1	-1E+10	1	-1E+10	1
4901784	147	C	07/14/2019	10:41	-132.224	42.882	0	760.10	0	3.9610	0	36.1070	8	28.678	0	752.697	0	13.7	4	4.4	4	-1E+10	1	-1E+10	1	-1E+10	1	-1E+10	1	-1E+10	1	-1E+10	1
4901784	147	C	07/14/2019	10:41	-132.224	42.882	0	765.50	0	3.9500	0	36.1110	8	28.682	0	758.035	0	13.5	4	4.3	4	-1E+10	1	-1E+10	1	-1E+10	1	-1E+10	1	-1E+10	1	-1E+10	1
4901784	147	C	07/14/2019	10:41	-132.224	42.882	0	770.00	0	3.9440	0	36.1150	8	28.686	0	762.483	0	13.2	4	4.2	4	-1E+10	1	-1E+10	1	-1E+10	1	-1E+10	1	-1E+10	1	-1E+10	1
4901784	147	C	07/14/2019	10:41	-132.224	42.882	0	774.50	0	3.9400	0	36.1190	8	28.690	0	766.930	0	12.9	4	4.1	4	-1E+10	1	-1E+10	1	-1E+10	1	-1E+10	1	-1E+10	1	-1E+10	1
4901784	147	C	07/14/2019	10:41	-132.224	42.882	0	779.90	0	3.9400	0	36.1240	8	28.694	0	772.268	0	12.5	4	4.0	4	-1E+10	1	-1E+10	1	-1E+10	1	-1E+10	1	-1E+10	1	-1E+10	1
4901784	147	C	07/14/2019	10:41	-132.224	42.882	0	785.30	0	3.9370	0	36.1310	8	28.700	0	777.605	0	12.0	4	3.8	4	-1E+10	1	-1E+10	1	-1E+10	1	-1E+10	1	-1E+10	1	-1E+10	1
4901784	147	C	07/14/2019	10:41	-132.224	42.882	0	789.80	0	3.9540	0	36.1400	8	28.705	0	782.052	0	11.7	4	3.7	4	-1E+10	1	-1E+10	1	-1E+10	1	-1E+10	1	-1E+10	1	-1E+10	1
4901784	147	C	07/14/2019	10:41	-132.224	42.882	0	794.40	0	3.9440	0	36.1430	8	28.709	0	786.598	0	11.6	4	3.7	4	-1E+10	1	-1E+10	1	-1E+10	1	-1E+10	1	-1E+10	1	-1E+10	1
4901784	147	C	07/14/2019	10:41	-132.224	42.882	0	799.90	0	3.9290	0	36.1450	8	28.712	0	792.034	0	11.6	4	3.7	4	-1E+10	1	-1E+10	1	-1E+10	1	-1E+10	1	-1E+10	1	-1E+10	1
4901784	147	C	07/14/2019	10:41	-132.224	42.882	0	805.50	0	3.8870	0	36.1460	8	28.717	0	797.568	0	11.6	4	3.7	4	-1E+10	1	-1E+10	1	-1E+10	1	-1E+10	1	-1E+10	1	-1E+10	1
4901784	147	C	07/14/2019	10:41	-132.224	42.882	0	810.00	0	3.8610	0	36.1510	8	28.724	0	802.015	0	11.5	4	3.7	4	-1E+10	1	-1E+10	1	-1E+10	1	-1E+10	1	-1E+10	1	-1E+10	1
4901784	147	C	07/14/2019	10:41	-132.224	42.882	0	814.60	0	3.8630	0	36.1540	8	28.726	0	806.561	0	11.4	4	3.6	4	-1E+10	1	-1E+10	1	-1E+10	1	-1E+10	1	-1E+10	1	-1E+10	1
4901784	147	C	07/14/2019	10:41	-132.224	42.882	0	820.10	0	3.8400	0	36.1550	8	28.729	0	811.996	0	11.5	4	3.7	4	-1E+10	1	-1E+10	1	-1E+10	1	-1E+10	1	-1E+10	1	-1E+10	1
4901784	147	C	07/14/2019	10:41	-132.224	42.882	0	825.60	0	3.7920	0	36.1550	8	28.734	0	817.431	0	11.6	4	3.7	4	-1E+10	1	-1E+10	1	-1E+10	1	-1E+10	1	-1E+10	1	-1E+10	1
4901784	147	C	07/14/2019	10:41	-132.224	42.882	0	830.20	0	3.7710	0	36.1560	8	28.737	0	821.976	0	11.5	4	3.7	4	-1E+10	1	-1E+10	1	-1E+10	1	-1E+10	1	-1E+10	1	-1E+10	1
4901784	147	C	07/14/2019	10:41	-132.224	42.882	0	834.80	0	3.7730	0	36.1590	8	28.740	0	826.522	0	11.4	4	3.6	4	-1E+10	1	-1E+10	1	-1E+10	1	-1E+10	1	-1E+10	1	-1E+10	1
4901784	147	C	07/14/2019	10:41	-132.224	42.882	0	840.40	0	3.7810	0	36.1650	8	28.744	0	832.055	0	11.1	4	3.5	4	-1E+10	1	-1E+10	1	-1E+10	1	-1E+10	1	-1E+10	1	-1E+10	1
4901784	147	C	07/14/2019	10:41	-132.224	42.882	0	845.10	0	3.7860	0	36.1670	8	28.745	0	836.699	0	11.0	4	3.5	4	-1E+10	1	-1E+10	1	-1E+10	1	-1E+10	1	-1E+10	1	-1E+10	1
4901784	147	C	07/14/2019	10:41	-132.224	42.882	0	849.70	0	3.7750	0	36.1710	8	28.749	0	841.244	0	10.9	4	3.5	4	-1E+10	1	-1E+10	1	-1E+10	1	-1E+10	1	-1E+10	1	-1E+10	1
4901784	147	C	07/14/2019	10:41	-132.224	42.882	0	855.20	0	3.7600	0	36.1740	8	28.753	0	846.678	0	10.9	4	3.5	4	-1E+10	1	-1E+10	1	-1E+10	1	-1E+10	1	-1E+10	1	-1E+10	1
4901784	147	C	07/14/2019	10:41	-132.224	42.882	0	860.50	0	3.7480	0	36.1770	8	28.757	0	851.915	0	10.8	4	3.4	4	-1E+10	1	-1E+10	1	-1E+10	1	-1E+10	1	-1E+10	1	-1E+10	1
4901784	147	C	07/14/2019	10:41	-132.224	42.882	0	865.30	0	3.7440	0	36.1790	8	28.759	0	856.657	0	10.7	4	3.4	4	-1E+10	1	-1E+10	1	-1E+10	1	-1E+10	1	-1E+10	1	-1E+10	1
4901784	147	C	07/14/2019	10:41	-132.224	42.882	0	870.20	0	3.7360	0	36.1820	8	28.762	0	861.498	0	10.7	4	3.4	4	-1E+10	1	-1E+10	1	-1E+10	1	-1E+10	1	-1E+10	1	-1E+10	1
4901784	147	C	07/14/2019	10:41	-132.224	42.882	0	875.30	0	3.7230	0	36.1860	8	28.767	0	866.536	0	10.6	4	3.4	4	-1E+10	1	-1E+10	1	-1E+10	1	-1E+10	1	-1E+10	1	-1E+10	1
4901784	147	C	07/14/2019	10:41	-132.224	42.882	0	880.30	0	3.7040	0	36.1890	8	28.771	0	871.476	0	10.6	4	3.4	4	-1E+10	1	-1E+10	1	-1E+10	1	-1E+10	1	-1E+10	1	-1E+10	1
4901784	147	C	07/14/2019	10:41	-132.224	42.882	0	885.20	0	3.6810	0	36.1900	8	28.774	0	876.316	0	10.5	4	3.4	4	-1E+10	1	-1E+10	1	-1E+10	1	-1E+10	1	-1E+10	1	-1E+10	1
4901784	147	C	07/14/2019	10:41	-132.224	42.882	0	890.20	0	3.6680	0	36.1930	8	28.778	0	881.256	0	10.5	4	3.3	4	-1E+10	1	-1E+10	1	-1E+10	1	-1E+10	1	-1E+10	1	-1E+10	1
4901784	147	C	07/14/2019	10:41	-132.224	42.882	0	895.20	0	3.6450	0	36.1960	8	28.783	0	886.195	0	10.4	4	3.3	4	-1E+10	1	-1E+10	1	-1E+10	1	-1E+10	1	-1E+10	1	-1E+10	1
4901784	147	C	07/14/2019	10:41	-132.224	42.882	0	900.30	0	3.6300	0	36.1990	8	28.787	0	891.233	0	10.4	4	3.3	4	-1E+10	1	-1E+10	1	-1E+10	1	-1E+10	1	-1E+10	1	-1E+10	1
4901784	147	C	07/14/2019	10:41	-132.224	42.882	0	905.40	0	3.6170	0	36.2030	8	28.791	0	896.271	0	10.3	4	3.3	4	-1E+10	1	-1E+10	1	-1E+10	1	-1E+10	1	-1E+10	1	-1E+10	1
4901784	147	C	07/14/2019	10:41	-132.224	42.882	0	910.50	0	3.6120	0	36.2070	8	28.795	0	901.308	0	10.3	4	3.3	4	-1E+10	1	-1E+10	1	-1E+10	1	-1E+10	1	-1E+10	1	-1E+10	1
4901784	147	C	07/14/2019	10:41	-132.224	42.882	0	915.50	0	3.6020	0	36.2110	8	28.799	0	906.247	0	10.2	4	3.2	4	-1E+10	1	-1E+10	1	-1E+10	1	-1E+10	1	-1E+10	1	-1E+10	1
4901784	147	C	07/14/2019	10:41	-132.224	42.882	0	920.50	0	3.5950	0	36.2140	8	28.803	0	911.185	0	10.2	4	3.2	4	-1E+10	1	-1E+10	1	-1E+10	1	-1E+10	1	-1E+10	1	-1E+10	1
4901784	147	C	07/14/2019	10:41	-132.224	42.882	0	925.60	0	3.5910	0	36.2160	8	28.805	0	916.223	0	10.2	4	3.2	4	-1E+10	1	-1E+10	1	-1E+10	1	-1E+10	1	-1E+10	1	-1E+10	1
4901784	147	C	07/14/2019	10:41	-132.224	42.882	0	930.70	0	3.5750	0	36.2180	8	28.808	0	921.260	0	10.2	4	3.2	4	-1E+10	1	-1E+10	1	-1E+10	1	-1E+10	1	-1E+10	1	-1E+10	1
4901784	147	C	07/14/2019	10:41	-132.224	42.882	0	934.90	0	3.5590	0	36.2200	8	28.811	0	925.408	0	10.2	4	3.2	4	-1E+10	1	-1E+10	1	-1E+10	1	-1E+10	1	-1E+10	1	-1E+10	1
4901784	147	C	07/14/2019	10:41	-132.224	42.882	0	939.30	0	3.5500	0	36.2200	8	28.812	0	929.753	0	10.2	4	3.2	4	-1E+10	1	-1E+10	1	-1E+10	1	-1E+10	1	-1E+10	1	-1E+10	1
4901784	147	C	07/14/2019	10:41	-132.224	42.882	0	944.40	0	3.5450	0	36.2230	8	28.815	0	934.790	0	10.1	4	3.2	4	-1E+10	1	-1E+10	1	-1E+10	1	-1E+10	1	-1E+10	1	-1E+10	1
4901784	147	C	07/14/2019	10:41	-132.224	42.882	0	949.70	0	3.5290	0	36.2260	8	28.819	0	940.024	0	10.1	4	3.2	4	-1E+10	1	-1E+10	1	-1E+10	1	-1E+10	1	-1E+10	1	-1E+10	1
4901784	147	C	07/14/2019	10:41	-132.224	42.882	0	954.90	0	3.5210	0	36.2280	8	28.821	0	945.160	0	10.2	4	3.2	4	-1E+10	1	-1E+10	1	-1E+10	1	-1E+10	1	-1E+10	1	-1E+10	1
4901784	147	C	07/14/2019	10:41	-132.224	42.882	0	960.20	0	3.5220	0	36.2310	8	28.824	0	950.394	0	10.2	4	3.2	4	-1E+10	1	-1E+10	1	-1E+10	1	-1E+10	1	-1E+10	1	-1E+10	1
4901784	147	C	07/14/2019	10:41	-132.224	42.882	0	965.40	0	3.5090	0	36.2330	8	28.827	0	955.529	0	10.2	4	3.2	4	-1E+10	1	-1E+10	1	-1E+10	1	-1E+10	1	-1E+10	1	-1E+10	1
4901784	147	C	07/14/2019	10:41	-132.224	42.882	0	970.70	0	3.5050	0	36.2360	8	28.830	0	960.762	0	10.2	4	3.2	4	-1E+10	1	-1E+10	1	-1E+10	1	-1E+10	1	-1E+10	1	-1E+10	1
4901784	147	C	07/14/2019	10:41	-132.224	42.882	0	975.10	0	3.4870	0	36.2390	8	28.834	0	965.107	0	10.2	4	3.2	4	-1E+10	1	-1E+10	1	-1E+10	1	-1E+10	1	-1E+10	1	-1E+10	1
4901784	147	C	07/14/2019	10:41	-132.224	42.882	0	979.50	0	3.4710	0	36.2410	8	28.837	0	969.452	0	10.2	4	3.2	4	-1E+10	1	-1E+10	1	-1E+10	1	-1E+10	1	-1E+10	1	-1E+10	1
4901784	147	C	07/14/2019	10:41	-132.224	42.882	0	984.80	0	3.4620	0	36.2450	8	28.841	0	974.685	0	10.3	4	3.3	4	-1E+10	1	-1E+10	1	-1E+10	1	-1E+10	1	-1E+10	1	-1E+10	1
4901784	147	C	07/14/2019	10:41	-132.224	42.882	0	990.10	0	3.4540	0	36.2480	8	28.844	0	979.918	0	10.4	4	3.3	4	-1E+10	1	-1E+10	1	-1E+10	1	-1E+10	1	-1E+10	1	-1E+10	1
4901784	147	C	07/14/2019	10:41	-132.224	42.882	0	995.30	0	3.4470	0	36.2510	8	28.848	0	985.053	0	10.5	4	3.3	4	-1E+10	1	-1E+10	1	-1E+10	1	-1E+10	1	-1E+10	1	-1E+10	1
4901784	147	C	07/14/2019	10:41	-132.224	42.882	0	1000.60	0	3.4390	0	36.2560	8	28.852	0	990.285	0	10.5	4	3.3	4	-1E+10	1	-1E+10	1	-1E+10	1	-1E+10	1	-1E+10	1	-1E+10	1
4901784	147	C	07/14/2019	10:41	-132.224	42.882	0	1005.00	0	3.4310	0	36.2590	8	28.856	0	994.630	0	10.6	4	3.3	4	-1E+10	1	-1E+10	1	-1E+10	1	-1E+10	1	-1E+10	1	-1E+10	1
4901784	147	C	07/14/2019	10:41	-132.224	42.882	0	1009.60	0	3.4260	0	36.2590	8	28.856	0	999.171	0	10.6	4	3.4	4	-1E+10	1	-1E+10	1	-1E+10	1	-1E+10	1	-1E+10	1	-1E+10	1
4901784	147	C	07/14/2019	10:41	-132.224	42.882	0	1015.10	0	3.4130	0	36.2620	8	28.860	0	1004.601	0	10.7	4	3.4	4	-1E+10	1	-1E+10	1	-1E+10	1	-1E+10	1	-1E+10	1	-1E+10	1
4901784	147	C	07/14/2019	10:41	-132.224	42.882	0	1020.60	0	3.3980	0	36.2650	8	28.864	0	1010.031	0	10.8	4	3.4	4	-1E+10	1	-1E+10	1	-1E+10	1	-1E+10	1	-1E+10	1	-1E+10	1
4901784	147	C	07/14/2019	10:41	-132.224	42.882	0	1025.10	0	3.3930	0	36.2670	8	28.866	0	1014.474	0	10.9	4	3.4	4	-1E+10	1	-1E+10	1	-1E+10	1	-1E+10	1	-1E+10	1	-1E+10	1
4901784	147	C	07/14/2019	10:41	-132.224	42.882	0	1029.70	0	3.3860	0	36.2700	8	28.869	0	1019.015	0	10.9	4	3.5	4	-1E+10	1	-1E+10	1	-1E+10	1	-1E+10	1	-1E+10	1	-1E+10	1
4901784	147	C	07/14/2019	10:41	-132.224	42.882	0	1035.20	0	3.3810	0	36.2710	8	28.870	0	1024.444	0	11.0	4	3.5	4	-1E+10	1	-1E+10	1	-1E+10	1	-1E+10	1	-1E+10	1	-1E+10	1
4901784	147	C	07/14/2019	10:41	-132.224	42.882	0	1040.50	0	3.3740	0	36.2720	8	28.872	0	1029.676	0	11.0	4	3.5	4	-1E+10	1	-1E+10	1	-1E+10	1	-1E+10	1	-1E+10	1	-1E+10	1
4901784	147	C	07/14/2019	10:41	-132.224	42.882	0	1044.60	0	3.3630	0	36.2740	8	28.875	0	1033.723	0	11.1	4	3.5	4	-1E+10	1	-1E+10	1	-1E+10	1	-1E+10	1	-1E+10	1	-1E+10	1
4901784	147	C	07/14/2019	10:41	-132.224	42.882	0	1049.30	0	3.3540	0	36.2760	8	28.877	0	1038.363	0	11.2	4	3.5	4	-1E+10	1	-1E+10	1	-1E+10	1	-1E+10	1	-1E+10	1	-1E+10	1
4901784	147	C	07/14/2019	10:41	-132.224	42.882	0	1054.90	0	3.3410	0	36.2780	8	28.880	0	1043.891	0	11.3	4	3.6	4	-1E+10	1	-1E+10	1	-1E+10	1	-1E+10	1	-1E+10	1	-1E+10	1
4901784	147	C	07/14/2019	10:41	-132.224	42.882	0	1060.60	0	3.3280	0	36.2800	8	28.883	0	1049.517	0	11.4	4	3.6	4	-1E+10	1	-1E+10	1	-1E+10	1	-1E+10	1	-1E+10	1	-1E+10	1
4901784	147	C	07/14/2019	10:41	-132.224	42.882	0	1065.40	0	3.3170	0	36.2820	8	28.886	0	1054.255	0	11.4	4	3.6	4	-1E+10	1	-1E+10	1	-1E+10	1	-1E+10	1	-1E+10	1	-1E+10	1
4901784	147	C	07/14/2019	10:41	-132.224	42.882	0	1070.30	0	3.3060	0	36.2840	8	28.889	0	1059.091	0	11.6	4	3.7	4	-1E+10	1	-1E+10	1	-1E+10	1	-1E+10	1	-1E+10	1	-1E+10	1
4901784	147	C	07/14/2019	10:41	-132.224	42.882	0	1075.20	0	3.2880	0	36.2870	8	28.893	0	1063.927	0	11.7	4	3.7	4	-1E+10	1	-1E+10	1	-1E+10	1	-1E+10	1	-1E+10	1	-1E+10	1
4901784	147	C	07/14/2019	10:41	-132.224	42.882	0	1080.10	0	3.2750	0	36.2900	8	28.896	0	1068.763	0	11.8	4	3.7	4	-1E+10	1	-1E+10	1	-1E+10	1	-1E+10	1	-1E+10	1	-1E+10	1
4901784	147	C	07/14/2019	10:41	-132.224	42.882	0	1085.10	0	3.2620	0	36.2920	8	28.899	0	1073.698	0	12.0	4	3.8	4	-1E+10	1	-1E+10	1	-1E+10	1	-1E+10	1	-1E+10	1	-1E+10	1
4901784	147	C	07/14/2019	10:41	-132.224	42.882	0	1090.30	0	3.2500	0	36.2950	8	28.903	0	1078.830	0	12.1	4	3.8	4	-1E+10	1	-1E+10	1	-1E+10	1	-1E+10	1	-1E+10	1	-1E+10	1
4901784	147	C	07/14/2019	10:41	-132.224	42.882	0	1095.50	0	3.2320	0	36.2980	8	28.907	0	1083.962	0	12.3	4	3.9	4	-1E+10	1	-1E+10	1	-1E+10	1	-1E+10	1	-1E+10	1	-1E+10	1
4901784	147	C	07/14/2019	10:41	-132.224	42.882	0	1100.10	0	3.2160	0	36.3020	8	28.912	0	1088.502	0	12.4	4	3.9	4	-1E+10	1	-1E+10	1	-1E+10	1	-1E+10	1	-1E+10	1	-1E+10	1
4901784	147	C	07/14/2019	10:41	-132.224	42.882	0	1104.80	0	3.2090	0	36.3030	8	28.913	0	1093.140	0	12.6	4	4.0	4	-1E+10	1	-1E+10	1	-1E+10	1	-1E+10	1	-1E+10	1	-1E+10	1
4901784	147	C	07/14/2019	10:41	-132.224	42.882	0	1110.50	0	3.1950	0	36.3060	8	28.917	0	1098.765	0	12.8	4	4.0	4	-1E+10	1	-1E+10	1	-1E+10	1	-1E+10	1	-1E+10	1	-1E+10	1
4901784	147	C	07/14/2019	10:41	-132.224	42.882	0	1115.20	0	3.1800	0	36.3090	8	28.921	0	1103.403	0	13.0	4	4.1	4	-1E+10	1	-1E+10	1	-1E+10	1	-1E+10	1	-1E+10	1	-1E+10	1
4901784	147	C	07/14/2019	10:41	-132.224	42.882	0	1119.90	0	3.1670	0	36.3110	8	28.924	0	1108.041	0	13.1	4	4.1	4	-1E+10	1	-1E+10	1	-1E+10	1	-1E+10	1	-1E+10	1	-1E+10	1
4901784	147	C	07/14/2019	10:41	-132.224	42.882	0	1124.70	0	3.1570	0	36.3130	8	28.927	0	1112.777	0	13.2	4	4.2	4	-1E+10	1	-1E+10	1	-1E+10	1	-1E+10	1	-1E+10	1	-1E+10	1
4901784	147	C	07/14/2019	10:41	-132.224	42.882	0	1129.40	0	3.1480	0	36.3150	8	28.929	0	1117.415	0	13.3	4	4.2	4	-1E+10	1	-1E+10	1	-1E+10	1	-1E+10	1	-1E+10	1	-1E+10	1
4901784	147	C	07/14/2019	10:41	-132.224	42.882	0	1135.10	0	3.1430	0	36.3150	8	28.930	0	1123.039	0	13.4	4	4.2	4	-1E+10	1	-1E+10	1	-1E+10	1	-1E+10	1	-1E+10	1	-1E+10	1
4901784	147	C	07/14/2019	10:41	-132.224	42.882	0	1139.80	0	3.1320	0	36.3160	8	28.932	0	1127.677	0	13.5	4	4.2	4	-1E+10	1	-1E+10	1	-1E+10	1	-1E+10	1	-1E+10	1	-1E+10	1
4901784	147	C	07/14/2019	10:41	-132.224	42.882	0	1144.60	0	3.1150	0	36.3180	8	28.935	0	1132.413	0	13.6	4	4.3	4	-1E+10	1	-1E+10	1	-1E+10	1	-1E+10	1	-1E+10	1	-1E+10	1
4901784	147	C	07/14/2019	10:41	-132.224	42.882	0	1149.60	0	3.1050	0	36.3200	8	28.937	0	1137.346	0	13.8	4	4.3	4	-1E+10	1	-1E+10	1	-1E+10	1	-1E+10	1	-1E+10	1	-1E+10	1
4901784	147	C	07/14/2019	10:41	-132.224	42.882	0	1154.50	0	3.0930	0	36.3220	8	28.940	0	1142.180	0	14.0	4	4.4	4	-1E+10	1	-1E+10	1	-1E+10	1	-1E+10	1	-1E+10	1	-1E+10	1
4901784	147	C	07/14/2019	10:41	-132.224	42.882	0	1160.40	0	3.0800	0	36.3250	8	28.944	0	1148.001	0	14.1	4	4.4	4	-1E+10	1	-1E+10	1	-1E+10	1	-1E+10	1	-1E+10	1	-1E+10	1
4901784	147	C	07/14/2019	10:41	-132.224	42.882	0	1165.40	0	3.0720	0	36.3260	8	28.946	0	1152.934	0	14.3	4	4.5	4	-1E+10	1	-1E+10	1	-1E+10	1	-1E+10	1	-1E+10	1	-1E+10	1
4901784	147	C	07/14/2019	10:41	-132.224	42.882	0	1170.40	0	3.0650	0	36.3270	8	28.947	0	1157.867	0	14.4	4	4.5	4	-1E+10	1	-1E+10	1	-1E+10	1	-1E+10	1	-1E+10	1	-1E+10	1
4901784	147	C	07/14/2019	10:41	-132.224	42.882	0	1175.40	0	3.0560	0	36.3290	8	28.950	0	1162.800	0	14.5	4	4.6	4	-1E+10	1	-1E+10	1	-1E+10	1	-1E+10	1	-1E+10	1	-1E+10	1
4901784	147	C	07/14/2019	10:41	-132.224	42.882	0	1180.30	0	3.0480	0	36.3300	8	28.951	0	1167.633	0	14.6	4	4.6	4	-1E+10	1	-1E+10	1	-1E+10	1	-1E+10	1	-1E+10	1	-1E+10	1
4901784	147	C	07/14/2019	10:41	-132.224	42.882	0	1185.30	0	3.0410	0	36.3310	8	28.953	0	1172.566	0	14.7	4	4.6	4	-1E+10	1	-1E+10	1	-1E+10	1	-1E+10	1	-1E+10	1	-1E+10	1
4901784	147	C	07/14/2019	10:41	-132.224	42.882	0	1190.40	0	3.0370	0	36.3320	8	28.954	0	1177.597	0	14.8	4	4.6	4	-1E+10	1	-1E+10	1	-1E+10	1	-1E+10	1	-1E+10	1	-1E+10	1
4901784	147	C	07/14/2019	10:41	-132.224	42.882	0	1195.50	0	3.0320	0	36.3320	8	28.954	0	1182.628	0	14.9	4	4.7	4	-1E+10	1	-1E+10	1	-1E+10	1	-1E+10	1	-1E+10	1	-1E+10	1
4901784	147	C	07/14/2019	10:41	-132.224	42.882	0	1199.60	0	3.0240	0	36.3340	8	28.957	0	1186.672	0	15.0	4	4.7	4	-1E+10	1	-1E+10	1	-1E+10	1	-1E+10	1	-1E+10	1	-1E+10	1
4901784	147	C	07/14/2019	10:41	-132.224	42.882	0	1204.70	0	3.0160	0	36.3350	8	28.958	0	1191.702	0	15.1	4	4.7	4	-1E+10	1	-1E+10	1	-1E+10	1	-1E+10	1	-1E+10	1	-1E+10	1
4901784	147	C	07/14/2019	10:41	-132.224	42.882	0	1209.90	0	3.0100	0	36.3350	8	28.959	0	1196.832	0	15.2	4	4.7	4	-1E+10	1	-1E+10	1	-1E+10	1	-1E+10	1	-1E+10	1	-1E+10	1
4901784	147	C	07/14/2019	10:41	-132.224	42.882	0	1215.00	0	3.0030	0	36.3360	8	28.960	0	1201.862	0	15.2	4	4.8	4	-1E+10	1	-1E+10	1	-1E+10	1	-1E+10	1	-1E+10	1	-1E+10	1
4901784	147	C	07/14/2019	10:41	-132.224	42.882	0	1220.10	0	2.9970	0	36.3370	8	28.962	0	1206.892	0	15.3	4	4.8	4	-1E+10	1	-1E+10	1	-1E+10	1	-1E+10	1	-1E+10	1	-1E+10	1
4901784	147	C	07/14/2019	10:41	-132.224	42.882	0	1225.40	0	2.9910	0	36.3370	8	28.962	0	1212.120	0	15.4	4	4.8	4	-1E+10	1	-1E+10	1	-1E+10	1	-1E+10	1	-1E+10	1	-1E+10	1
4901784	147	C	07/14/2019	10:41	-132.224	42.882	0	1231.00	0	2.9810	0	36.3390	8	28.965	0	1217.643	0	15.5	4	4.9	4	-1E+10	1	-1E+10	1	-1E+10	1	-1E+10	1	-1E+10	1	-1E+10	1
4901784	147	C	07/14/2019	10:41	-132.224	42.882	0	1235.30	0	2.9710	0	36.3410	8	28.968	0	1221.883	0	15.6	4	4.9	4	-1E+10	1	-1E+10	1	-1E+10	1	-1E+10	1	-1E+10	1	-1E+10	1
4901784	147	C	07/14/2019	10:41	-132.224	42.882	0	1240.10	0	2.9670	0	36.3410	8	28.968	0	1226.617	0	15.8	4	4.9	4	-1E+10	1	-1E+10	1	-1E+10	1	-1E+10	1	-1E+10	1	-1E+10	1
4901784	147	C	07/14/2019	10:41	-132.224	42.882	0	1245.00	0	2.9560	0	36.3430	8	28.971	0	1231.450	0	15.9	4	5.0	4	-1E+10	1	-1E+10	1	-1E+10	1	-1E+10	1	-1E+10	1	-1E+10	1
4901784	147	C	07/14/2019	10:41	-132.224	42.882	0	1249.90	0	2.9470	0	36.3440	8	28.972	0	1236.282	0	16.1	4	5.0	4	-1E+10	1	-1E+10	1	-1E+10	1	-1E+10	1	-1E+10	1	-1E+10	1
4901784	147	C	07/14/2019	10:41	-132.224	42.882	0	1254.80	0	2.9400	0	36.3450	8	28.974	0	1241.114	0	16.3	4	5.1	4	-1E+10	1	-1E+10	1	-1E+10	1	-1E+10	1	-1E+10	1	-1E+10	1
4901784	147	C	07/14/2019	10:41	-132.224	42.882	0	1259.80	0	2.9280	0	36.3470	8	28.977	0	1246.045	0	16.5	4	5.2	4	-1E+10	1	-1E+10	1	-1E+10	1	-1E+10	1	-1E+10	1	-1E+10	1
4901784	147	C	07/14/2019	10:41	-132.224	42.882	0	1264.80	0	2.9190	0	36.3490	8	28.979	0	1250.975	0	16.7	4	5.2	4	-1E+10	1	-1E+10	1	-1E+10	1	-1E+10	1	-1E+10	1	-1E+10	1
4901784	147	C	07/14/2019	10:41	-132.224	42.882	0	1269.80	0	2.9090	0	36.3500	8	28.981	0	1255.906	0	16.9	4	5.3	4	-1E+10	1	-1E+10	1	-1E+10	1	-1E+10	1	-1E+10	1	-1E+10	1
4901784	147	C	07/14/2019	10:41	-132.224	42.882	0	1274.80	0	2.8980	0	36.3510	8	28.983	0	1260.836	0	17.1	4	5.3	4	-1E+10	1	-1E+10	1	-1E+10	1	-1E+10	1	-1E+10	1	-1E+10	1
4901784	147	C	07/14/2019	10:41	-132.224	42.882	0	1279.80	0	2.8870	0	36.3530	8	28.985	0	1265.766	0	17.2	4	5.4	4	-1E+10	1	-1E+10	1	-1E+10	1	-1E+10	1	-1E+10	1	-1E+10	1
4901784	147	C	07/14/2019	10:41	-132.224	42.882	0	1284.90	0	2.8750	0	36.3540	8	28.987	0	1270.795	0	17.4	4	5.4	4	-1E+10	1	-1E+10	1	-1E+10	1	-1E+10	1	-1E+10	1	-1E+10	1
4901784	147	C	07/14/2019	10:41	-132.224	42.882	0	1290.00	0	2.8690	0	36.3550	8	28.989	0	1275.824	0	17.5	4	5.4	4	-1E+10	1	-1E+10	1	-1E+10	1	-1E+10	1	-1E+10	1	-1E+10	1
4901784	147	C	07/14/2019	10:41	-132.224	42.882	0	1295.10	0	2.8580	0	36.3560	8	28.991	0	1280.852	0	17.7	4	5.5	4	-1E+10	1	-1E+10	1	-1E+10	1	-1E+10	1	-1E+10	1	-1E+10	1
4901784	147	C	07/14/2019	10:41	-132.224	42.882	0	1300.30	0	2.8460	0	36.3580	8	28.993	0	1285.979	0	18.0	4	5.6	4	-1E+10	1	-1E+10	1	-1E+10	1	-1E+10	1	-1E+10	1	-1E+10	1
4901784	147	C	07/14/2019	10:41	-132.224	42.882	0	1305.50	0	2.8400	0	36.3590	8	28.995	0	1291.106	0	18.2	4	5.7	4	-1E+10	1	-1E+10	1	-1E+10	1	-1E+10	1	-1E+10	1	-1E+10	1
4901784	147	C	07/14/2019	10:41	-132.224	42.882	0	1310.80	0	2.8320	0	36.3610	8	28.997	0	1296.331	0	18.4	4	5.7	4	-1E+10	1	-1E+10	1	-1E+10	1	-1E+10	1	-1E+10	1	-1E+10	1
4901784	147	C	07/14/2019	10:41	-132.224	42.882	0	1315.10	0	2.8250	0	36.3610	8	28.998	0	1300.570	0	18.6	4	5.8	4	-1E+10	1	-1E+10	1	-1E+10	1	-1E+10	1	-1E+10	1	-1E+10	1
4901784	147	C	07/14/2019	10:41	-132.224	42.882	0	1319.50	0	2.8150	0	36.3630	8	29.000	0	1304.908	0	18.7	4	5.8	4	-1E+10	1	-1E+10	1	-1E+10	1	-1E+10	1	-1E+10	1	-1E+10	1
4901784	147	C	07/14/2019	10:41	-132.224	42.882	0	1324.80	0	2.8020	0	36.3640	8	29.002	0	1310.133	0	18.9	4	5.9	4	-1E+10	1	-1E+10	1	-1E+10	1	-1E+10	1	-1E+10	1	-1E+10	1
4901784	147	C	07/14/2019	10:41	-132.224	42.882	0	1330.10	0	2.7910	0	36.3660	8	29.005	0	1315.358	0	19.1	4	5.9	4	-1E+10	1	-1E+10	1	-1E+10	1	-1E+10	1	-1E+10	1	-1E+10	1
4901784	147	C	07/14/2019	10:41	-132.224	42.882	0	1335.60	0	2.7810	0	36.3670	8	29.007	0	1320.780	0	19.3	4	6.0	4	-1E+10	1	-1E+10	1	-1E+10	1	-1E+10	1	-1E+10	1	-1E+10	1
4901784	147	C	07/14/2019	10:41	-132.224	42.882	0	1340.10	0	2.7780	0	36.3680	8	29.008	0	1325.216	0	19.5	4	6.1	4	-1E+10	1	-1E+10	1	-1E+10	1	-1E+10	1	-1E+10	1	-1E+10	1
4901784	147	C	07/14/2019	10:41	-132.224	42.882	0	1344.50	0	2.7680	0	36.3690	8	29.010	0	1329.553	0	19.5	4	6.1	4	-1E+10	1	-1E+10	1	-1E+10	1	-1E+10	1	-1E+10	1	-1E+10	1
4901784	147	C	07/14/2019	10:41	-132.224	42.882	0	1350.00	0	2.7600	0	36.3690	8	29.011	0	1334.974	0	19.7	4	6.1	4	-1E+10	1	-1E+10	1	-1E+10	1	-1E+10	1	-1E+10	1	-1E+10	1
4901784	147	C	07/14/2019	10:41	-132.224	42.882	0	1355.50	0	2.7520	0	36.3710	8	29.013	0	1340.396	0	20.1	4	6.3	4	-1E+10	1	-1E+10	1	-1E+10	1	-1E+10	1	-1E+10	1	-1E+10	1
4901784	147	C	07/14/2019	10:41	-132.224	42.882	0	1360.10	0	2.7420	0	36.3730	8	29.015	0	1344.930	0	20.5	4	6.4	4	-1E+10	1	-1E+10	1	-1E+10	1	-1E+10	1	-1E+10	1	-1E+10	1
4901784	147	C	07/14/2019	10:41	-132.224	42.882	0	1365.30	0	2.7340	0	36.3740	8	29.017	0	1350.055	0	20.9	4	6.5	4	-1E+10	1	-1E+10	1	-1E+10	1	-1E+10	1	-1E+10	1	-1E+10	1
4901784	147	C	07/14/2019	10:41	-132.224	42.882	0	1370.40	0	2.7150	0	36.3770	8	29.021	0	1355.082	0	21.2	4	6.6	4	-1E+10	1	-1E+10	1	-1E+10	1	-1E+10	1	-1E+10	1	-1E+10	1
4901784	147	C	07/14/2019	10:41	-132.224	42.882	0	1375.20	0	2.7080	0	36.3780	8	29.023	0	1359.813	0	21.4	4	6.6	4	-1E+10	1	-1E+10	1	-1E+10	1	-1E+10	1	-1E+10	1	-1E+10	1
4901784	147	C	07/14/2019	10:41	-132.224	42.882	0	1380.10	0	2.7030	0	36.3780	8	29.023	0	1364.642	0	21.6	4	6.7	4	-1E+10	1	-1E+10	1	-1E+10	1	-1E+10	1	-1E+10	1	-1E+10	1
4901784	147	C	07/14/2019	10:41	-132.224	42.882	0	1384.90	0	2.6940	0	36.3800	8	29.026	0	1369.373	0	21.8	4	6.8	4	-1E+10	1	-1E+10	1	-1E+10	1	-1E+10	1	-1E+10	1	-1E+10	1
4901784	147	C	07/14/2019	10:41	-132.224	42.882	0	1389.80	0	2.6850	0	36.3810	8	29.027	0	1374.202	0	22.1	4	6.9	4	-1E+10	1	-1E+10	1	-1E+10	1	-1E+10	1	-1E+10	1	-1E+10	1
4901784	147	C	07/14/2019	10:41	-132.224	42.882	0	1394.60	0	2.6750	0	36.3820	8	29.029	0	1378.932	0	22.3	4	6.9	4	-1E+10	1	-1E+10	1	-1E+10	1	-1E+10	1	-1E+10	1	-1E+10	1
4901784	147	C	07/14/2019	10:41	-132.224	42.882	0	1399.60	0	2.6710	0	36.3830	8	29.030	0	1383.860	0	22.5	4	7.0	4	-1E+10	1	-1E+10	1	-1E+10	1	-1E+10	1	-1E+10	1	-1E+10	1
4901784	147	C	07/14/2019	10:41	-132.224	42.882	0	1404.50	0	2.6610	0	36.3840	8	29.032	0	1388.688	0	22.9	4	7.1	4	-1E+10	1	-1E+10	1	-1E+10	1	-1E+10	1	-1E+10	1	-1E+10	1
4901784	147	C	07/14/2019	10:41	-132.224	42.882	0	1409.60	0	2.6580	0	36.3860	8	29.034	0	1393.714	0	23.4	4	7.3	4	-1E+10	1	-1E+10	1	-1E+10	1	-1E+10	1	-1E+10	1	-1E+10	1
4901784	147	C	07/14/2019	10:41	-132.224	42.882	0	1414.60	0	2.6490	0	36.3880	8	29.036	0	1398.641	0	23.7	4	7.4	4	-1E+10	1	-1E+10	1	-1E+10	1	-1E+10	1	-1E+10	1	-1E+10	1
4901784	147	C	07/14/2019	10:41	-132.224	42.882	0	1419.60	0	2.6370	0	36.3880	8	29.037	0	1403.568	0	24.1	4	7.5	4	-1E+10	1	-1E+10	1	-1E+10	1	-1E+10	1	-1E+10	1	-1E+10	1
4901784	147	C	07/14/2019	10:41	-132.224	42.882	0	1424.60	0	2.6340	0	36.3910	8	29.040	0	1408.495	0	24.8	4	7.7	4	-1E+10	1	-1E+10	1	-1E+10	1	-1E+10	1	-1E+10	1	-1E+10	1
4901784	147	C	07/14/2019	10:41	-132.224	42.882	0	1429.60	0	2.6220	0	36.3920	8	29.042	0	1413.422	0	24.8	4	7.7	4	-1E+10	1	-1E+10	1	-1E+10	1	-1E+10	1	-1E+10	1	-1E+10	1
4901784	147	C	07/14/2019	10:41	-132.224	42.882	0	1434.70	0	2.6050	0	36.3930	8	29.044	0	1418.447	0	24.9	4	7.7	4	-1E+10	1	-1E+10	1	-1E+10	1	-1E+10	1	-1E+10	1	-1E+10	1
4901784	147	C	07/14/2019	10:41	-132.224	42.882	0	1439.80	0	2.6000	0	36.3940	8	29.046	0	1423.472	0	25.2	4	7.8	4	-1E+10	1	-1E+10	1	-1E+10	1	-1E+10	1	-1E+10	1	-1E+10	1
4901784	147	C	07/14/2019	10:41	-132.224	42.882	0	1444.90	0	2.5900	0	36.3950	8	29.047	0	1428.497	0	25.6	4	7.9	4	-1E+10	1	-1E+10	1	-1E+10	1	-1E+10	1	-1E+10	1	-1E+10	1
4901784	147	C	07/14/2019	10:41	-132.224	42.882	0	1450.10	0	2.5860	0	36.3960	8	29.049	0	1433.620	0	25.9	4	8.0	4	-1E+10	1	-1E+10	1	-1E+10	1	-1E+10	1	-1E+10	1	-1E+10	1
4901784	147	C	07/14/2019	10:41	-132.224	42.882	0	1455.20	0	2.5770	0	36.3970	8	29.050	0	1438.645	0	26.2	4	8.1	4	-1E+10	1	-1E+10	1	-1E+10	1	-1E+10	1	-1E+10	1	-1E+10	1
4901784	147	C	07/14/2019	10:41	-132.224	42.882	0	1460.20	0	2.5680	0	36.3980	8	29.052	0	1443.571	0	26.4	4	8.2	4	-1E+10	1	-1E+10	1	-1E+10	1	-1E+10	1	-1E+10	1	-1E+10	1
4901784	147	C	07/14/2019	10:41	-132.224	42.882	0	1465.40	0	2.5560	0	36.3990	8	29.054	0	1448.694	0	26.5	4	8.2	4	-1E+10	1	-1E+10	1	-1E+10	1	-1E+10	1	-1E+10	1	-1E+10	1
4901784	147	C	07/14/2019	10:41	-132.224	42.882	0	1470.60	0	2.5420	0	36.4010	8	29.057	0	1453.817	0	27.0	4	8.4	4	-1E+10	1	-1E+10	1	-1E+10	1	-1E+10	1	-1E+10	1	-1E+10	1
4901784	147	C	07/14/2019	10:41	-132.224	42.882	0	1475.00	0	2.5350	0	36.4020	8	29.058	0	1458.151	0	27.2	4	8.4	4	-1E+10	1	-1E+10	1	-1E+10	1	-1E+10	1	-1E+10	1	-1E+10	1
4901784	147	C	07/14/2019	10:41	-132.224	42.882	0	1479.40	0	2.5210	0	36.4030	8	29.060	0	1462.486	0	27.4	4	8.5	4	-1E+10	1	-1E+10	1	-1E+10	1	-1E+10	1	-1E+10	1	-1E+10	1
4901784	147	C	07/14/2019	10:41	-132.224	42.882	0	1484.70	0	2.5140	0	36.4040	8	29.062	0	1467.707	0	27.7	4	8.6	4	-1E+10	1	-1E+10	1	-1E+10	1	-1E+10	1	-1E+10	1	-1E+10	1
4901784	147	C	07/14/2019	10:41	-132.224	42.882	0	1490.00	0	2.5030	0	36.4050	8	29.064	0	1472.928	0	28.0	4	8.7	4	-1E+10	1	-1E+10	1	-1E+10	1	-1E+10	1	-1E+10	1	-1E+10	1
4901784	147	C	07/14/2019	10:41	-132.224	42.882	0	1495.20	0	2.4930	0	36.4070	8	29.066	0	1478.050	0	28.3	4	8.8	4	-1E+10	1	-1E+10	1	-1E+10	1	-1E+10	1	-1E+10	1	-1E+10	1
4901784	147	C	07/14/2019	10:41	-132.224	42.882	0	1500.40	0	2.4880	0	36.4070	8	29.067	0	1483.172	0	28.6	4	8.9	4	-1E+10	1	-1E+10	1	-1E+10	1	-1E+10	1	-1E+10	1	-1E+10	1
4901784	147	C	07/14/2019	10:41	-132.224	42.882	0	1505.70	0	2.4780	0	36.4080	8	29.068	0	1488.393	0	29.0	4	9.0	4	-1E+10	1	-1E+10	1	-1E+10	1	-1E+10	1	-1E+10	1	-1E+10	1
4901784	147	C	07/14/2019	10:41	-132.224	42.882	0	1510.10	0	2.4710	0	36.4090	8	29.070	0	1492.726	0	29.1	4	9.0	4	-1E+10	1	-1E+10	1	-1E+10	1	-1E+10	1	-1E+10	1	-1E+10	1
4901784	147	C	07/14/2019	10:41	-132.224	42.882	0	1514.60	0	2.4670	0	36.4100	8	29.071	0	1497.159	0	29.3	4	9.1	4	-1E+10	1	-1E+10	1	-1E+10	1	-1E+10	1	-1E+10	1	-1E+10	1
4901784	147	C	07/14/2019	10:41	-132.224	42.882	0	1520.00	0	2.4590	0	36.4110	8	29.072	0	1502.477	0	29.7	4	9.2	4	-1E+10	1	-1E+10	1	-1E+10	1	-1E+10	1	-1E+10	1	-1E+10	1
4901784	147	C	07/14/2019	10:41	-132.224	42.882	0	1525.40	0	2.4540	0	36.4120	8	29.074	0	1507.796	0	30.3	4	9.4	4	-1E+10	1	-1E+10	1	-1E+10	1	-1E+10	1	-1E+10	1	-1E+10	1
4901784	147	C	07/14/2019	10:41	-132.224	42.882	0	1530.00	0	2.4510	0	36.4130	8	29.075	0	1512.326	0	31.0	4	9.6	4	-1E+10	1	-1E+10	1	-1E+10	1	-1E+10	1	-1E+10	1	-1E+10	1
4901784	147	C	07/14/2019	10:41	-132.224	42.882	0	1534.60	0	2.4420	0	36.4150	8	29.077	0	1516.857	0	31.2	4	9.7	4	-1E+10	1	-1E+10	1	-1E+10	1	-1E+10	1	-1E+10	1	-1E+10	1
4901784	147	C	07/14/2019	10:41	-132.224	42.882	0	1540.10	0	2.4310	0	36.4160	8	29.079	0	1522.273	0	31.4	4	9.7	4	-1E+10	1	-1E+10	1	-1E+10	1	-1E+10	1	-1E+10	1	-1E+10	1
4901784	147	C	07/14/2019	10:41	-132.224	42.882	0	1545.60	0	2.4210	0	36.4170	8	29.081	0	1527.690	0	31.8	4	9.8	4	-1E+10	1	-1E+10	1	-1E+10	1	-1E+10	1	-1E+10	1	-1E+10	1
4901784	147	C	07/14/2019	10:41	-132.224	42.882	0	1550.30	0	2.4170	0	36.4170	8	29.081	0	1532.318	0	32.1	4	9.9	4	-1E+10	1	-1E+10	1	-1E+10	1	-1E+10	1	-1E+10	1	-1E+10	1
4901784	147	C	07/14/2019	10:41	-132.224	42.882	0	1554.90	0	2.4080	0	36.4190	8	29.084	0	1536.848	0	32.4	4	10.0	4	-1E+10	1	-1E+10	1	-1E+10	1	-1E+10	1	-1E+10	1	-1E+10	1
4901784	147	C	07/14/2019	10:41	-132.224	42.882	0	1560.50	0	2.3960	0	36.4190	8	29.085	0	1542.363	0	32.6	4	10.1	4	-1E+10	1	-1E+10	1	-1E+10	1	-1E+10	1	-1E+10	1	-1E+10	1
4901784	147	C	07/14/2019	10:41	-132.224	42.882	0	1565.30	0	2.3800	0	36.4210	8	29.088	0	1547.090	0	32.8	4	10.1	4	-1E+10	1	-1E+10	1	-1E+10	1	-1E+10	1	-1E+10	1	-1E+10	1
4901784	147	C	07/14/2019	10:41	-132.224	42.882	0	1569.80	0	2.3740	0	36.4220	8	29.089	0	1551.521	0	33.0	4	10.2	4	-1E+10	1	-1E+10	1	-1E+10	1	-1E+10	1	-1E+10	1	-1E+10	1
4901784	147	C	07/14/2019	10:41	-132.224	42.882	0	1574.80	0	2.3680	0	36.4220	8	29.090	0	1556.444	0	33.5	4	10.3	4	-1E+10	1	-1E+10	1	-1E+10	1	-1E+10	1	-1E+10	1	-1E+10	1
4901784	147	C	07/14/2019	10:41	-132.224	42.882	0	1579.80	0	2.3570	0	36.4240	8	29.092	0	1561.368	0	34.1	4	10.5	4	-1E+10	1	-1E+10	1	-1E+10	1	-1E+10	1	-1E+10	1	-1E+10	1
4901784	147	C	07/14/2019	10:41	-132.224	42.882	0	1584.90	0	2.3520	0	36.4250	8	29.093	0	1566.389	0	34.5	4	10.6	4	-1E+10	1	-1E+10	1	-1E+10	1	-1E+10	1	-1E+10	1	-1E+10	1
4901784	147	C	07/14/2019	10:41	-132.224	42.882	0	1590.10	0	2.3470	0	36.4260	8	29.095	0	1571.509	0	35.2	4	10.9	4	-1E+10	1	-1E+10	1	-1E+10	1	-1E+10	1	-1E+10	1	-1E+10	1
4901784	147	C	07/14/2019	10:41	-132.224	42.882	0	1595.10	0	2.3350	0	36.4280	8	29.097	0	1576.432	0	36.1	4	11.1	4	-1E+10	1	-1E+10	1	-1E+10	1	-1E+10	1	-1E+10	1	-1E+10	1
4901784	147	C	07/14/2019	10:41	-132.224	42.882	0	1600.20	0	2.3300	0	36.4300	8	29.099	0	1581.453	0	36.4	4	11.2	4	-1E+10	1	-1E+10	1	-1E+10	1	-1E+10	1	-1E+10	1	-1E+10	1
4901784	147	C	07/14/2019	10:41	-132.224	42.882	0	1605.30	0	2.3260	0	36.4300	8	29.100	0	1586.474	0	36.6	4	11.3	4	-1E+10	1	-1E+10	1	-1E+10	1	-1E+10	1	-1E+10	1	-1E+10	1
4901784	147	C	07/14/2019	10:41	-132.224	42.882	0	1610.50	0	2.3210	0	36.4310	8	29.101	0	1591.594	0	36.9	4	11.4	4	-1E+10	1	-1E+10	1	-1E+10	1	-1E+10	1	-1E+10	1	-1E+10	1
4901784	147	C	07/14/2019	10:41	-132.224	42.882	0	1615.70	0	2.3130	0	36.4320	8	29.103	0	1596.713	0	37.1	4	11.4	4	-1E+10	1	-1E+10	1	-1E+10	1	-1E+10	1	-1E+10	1	-1E+10	1
4901784	147	C	07/14/2019	10:41	-132.224	42.882	0	1620.00	0	2.3040	0	36.4320	8	29.103	0	1600.947	0	37.2	4	11.5	4	-1E+10	1	-1E+10	1	-1E+10	1	-1E+10	1	-1E+10	1	-1E+10	1
4901784	147	C	07/14/2019	10:41	-132.224	42.882	0	1624.40	0	2.2940	0	36.4330	8	29.105	0	1605.278	0	37.3	4	11.5	4	-1E+10	1	-1E+10	1	-1E+10	1	-1E+10	1	-1E+10	1	-1E+10	1
4901784	147	C	07/14/2019	10:41	-132.224	42.882	0	1629.60	0	2.2880	0	36.4330	8	29.106	0	1610.397	0	37.6	4	11.6	4	-1E+10	1	-1E+10	1	-1E+10	1	-1E+10	1	-1E+10	1	-1E+10	1
4901784	147	C	07/14/2019	10:41	-132.224	42.882	0	1634.90	0	2.2860	0	36.4350	8	29.107	0	1615.614	0	38.0	4	11.7	4	-1E+10	1	-1E+10	1	-1E+10	1	-1E+10	1	-1E+10	1	-1E+10	1
4901784	147	C	07/14/2019	10:41	-132.224	42.882	0	1640.20	0	2.2790	0	36.4350	8	29.108	0	1620.832	0	38.2	4	11.8	4	-1E+10	1	-1E+10	1	-1E+10	1	-1E+10	1	-1E+10	1	-1E+10	1
4901784	147	C	07/14/2019	10:41	-132.224	42.882	0	1645.60	0	2.2690	0	36.4360	8	29.110	0	1626.147	0	38.3	4	11.8	4	-1E+10	1	-1E+10	1	-1E+10	1	-1E+10	1	-1E+10	1	-1E+10	1
4901784	147	C	07/14/2019	10:41	-132.224	42.882	0	1650.10	0	2.2660	0	36.4370	8	29.111	0	1630.577	0	38.5	4	11.9	4	-1E+10	1	-1E+10	1	-1E+10	1	-1E+10	1	-1E+10	1	-1E+10	1
4901784	147	C	07/14/2019	10:41	-132.224	42.882	0	1654.70	0	2.2570	0	36.4370	8	29.112	0	1635.104	0	38.6	4	11.9	4	-1E+10	1	-1E+10	1	-1E+10	1	-1E+10	1	-1E+10	1	-1E+10	1
4901784	147	C	07/14/2019	10:41	-132.224	42.882	0	1660.10	0	2.2530	0	36.4380	8	29.113	0	1640.420	0	39.0	4	12.0	4	-1E+10	1	-1E+10	1	-1E+10	1	-1E+10	1	-1E+10	1	-1E+10	1
4901784	147	C	07/14/2019	10:41	-132.224	42.882	0	1664.70	0	2.2540	0	36.4390	8	29.114	0	1644.947	0	39.3	4	12.1	4	-1E+10	1	-1E+10	1	-1E+10	1	-1E+10	1	-1E+10	1	-1E+10	1
4901784	147	C	07/14/2019	10:41	-132.224	42.882	0	1669.40	0	2.2540	0	36.4390	8	29.114	0	1649.573	0	39.5	4	12.2	4	-1E+10	1	-1E+10	1	-1E+10	1	-1E+10	1	-1E+10	1	-1E+10	1
4901784	147	C	07/14/2019	10:41	-132.224	42.882	0	1675.00	0	2.2490	0	36.4400	8	29.115	0	1655.085	0	39.7	4	12.2	4	-1E+10	1	-1E+10	1	-1E+10	1	-1E+10	1	-1E+10	1	-1E+10	1
4901784	147	C	07/14/2019	10:41	-132.224	42.882	0	1680.10	0	2.2440	0	36.4410	8	29.116	0	1660.104	0	40.0	4	12.3	4	-1E+10	1	-1E+10	1	-1E+10	1	-1E+10	1	-1E+10	1	-1E+10	1
4901784	147	C	07/14/2019	10:41	-132.224	42.882	0	1684.30	0	2.2420	0	36.4410	8	29.116	0	1664.238	0	40.2	4	12.4	4	-1E+10	1	-1E+10	1	-1E+10	1	-1E+10	1	-1E+10	1	-1E+10	1
4901784	147	C	07/14/2019	10:41	-132.224	42.882	0	1690.00	0	2.2360	0	36.4420	8	29.118	0	1669.848	0	40.6	4	12.5	4	-1E+10	1	-1E+10	1	-1E+10	1	-1E+10	1	-1E+10	1	-1E+10	1
4901784	147	C	07/14/2019	10:41	-132.224	42.882	0	1695.60	0	2.2280	0	36.4430	8	29.119	0	1675.359	0	40.9	4	12.6	4	-1E+10	1	-1E+10	1	-1E+10	1	-1E+10	1	-1E+10	1	-1E+10	1
4901784	147	C	07/14/2019	10:41	-132.224	42.882	0	1700.50	0	2.2200	0	36.4430	8	29.120	0	1680.181	0	41.2	4	12.7	4	-1E+10	1	-1E+10	1	-1E+10	1	-1E+10	1	-1E+10	1	-1E+10	1
4901784	147	C	07/14/2019	10:41	-132.224	42.882	0	1705.40	0	2.2090	0	36.4440	8	29.122	0	1685.003	0	41.5	4	12.7	4	-1E+10	1	-1E+10	1	-1E+10	1	-1E+10	1	-1E+10	1	-1E+10	1
4901784	147	C	07/14/2019	10:41	-132.224	42.882	0	1710.30	0	2.2040	0	36.4450	8	29.123	0	1689.825	0	41.7	4	12.8	4	-1E+10	1	-1E+10	1	-1E+10	1	-1E+10	1	-1E+10	1	-1E+10	1
4901784	147	C	07/14/2019	10:41	-132.224	42.882	0	1715.20	0	2.1980	0	36.4460	8	29.124	0	1694.646	0	42.0	4	12.9	4	-1E+10	1	-1E+10	1	-1E+10	1	-1E+10	1	-1E+10	1	-1E+10	1
4901784	147	C	07/14/2019	10:41	-132.224	42.882	0	1720.20	0	2.1940	0	36.4460	8	29.125	0	1699.566	0	42.1	4	12.9	4	-1E+10	1	-1E+10	1	-1E+10	1	-1E+10	1	-1E+10	1	-1E+10	1
4901784	147	C	07/14/2019	10:41	-132.224	42.882	0	1725.20	0	2.1890	0	36.4470	8	29.126	0	1704.486	0	42.4	4	13.0	4	-1E+10	1	-1E+10	1	-1E+10	1	-1E+10	1	-1E+10	1	-1E+10	1
4901784	147	C	07/14/2019	10:41	-132.224	42.882	0	1730.20	0	2.1840	0	36.4480	8	29.127	0	1709.406	0	42.7	4	13.1	4	-1E+10	1	-1E+10	1	-1E+10	1	-1E+10	1	-1E+10	1	-1E+10	1
4901784	147	C	07/14/2019	10:41	-132.224	42.882	0	1735.20	0	2.1770	0	36.4490	8	29.129	0	1714.326	0	43.1	4	13.2	4	-1E+10	1	-1E+10	1	-1E+10	1	-1E+10	1	-1E+10	1	-1E+10	1
4901784	147	C	07/14/2019	10:41	-132.224	42.882	0	1740.30	0	2.1720	0	36.4500	8	29.130	0	1719.344	0	43.4	4	13.3	4	-1E+10	1	-1E+10	1	-1E+10	1	-1E+10	1	-1E+10	1	-1E+10	1
4901784	147	C	07/14/2019	10:41	-132.224	42.882	0	1745.50	0	2.1670	0	36.4500	8	29.130	0	1724.460	0	43.7	4	13.4	4	-1E+10	1	-1E+10	1	-1E+10	1	-1E+10	1	-1E+10	1	-1E+10	1
4901784	147	C	07/14/2019	10:41	-132.224	42.882	0	1750.60	0	2.1600	0	36.4510	8	29.132	0	1729.478	0	44.0	4	13.5	4	-1E+10	1	-1E+10	1	-1E+10	1	-1E+10	1	-1E+10	1	-1E+10	1
4901784	147	C	07/14/2019	10:41	-132.224	42.882	0	1754.90	0	2.1580	0	36.4520	8	29.133	0	1733.709	0	44.2	4	13.6	4	-1E+10	1	-1E+10	1	-1E+10	1	-1E+10	1	-1E+10	1	-1E+10	1
4901784	147	C	07/14/2019	10:41	-132.224	42.882	0	1759.30	0	2.1510	0	36.4530	8	29.134	0	1738.037	0	44.4	4	13.6	4	-1E+10	1	-1E+10	1	-1E+10	1	-1E+10	1	-1E+10	1	-1E+10	1
4901784	147	C	07/14/2019	10:41	-132.224	42.882	0	1764.60	0	2.1480	0	36.4530	8	29.134	0	1743.252	0	44.7	4	13.7	4	-1E+10	1	-1E+10	1	-1E+10	1	-1E+10	1	-1E+10	1	-1E+10	1
4901784	147	C	07/14/2019	10:41	-132.224	42.882	0	1769.90	0	2.1430	0	36.4540	8	29.136	0	1748.466	0	45.0	4	13.8	4	-1E+10	1	-1E+10	1	-1E+10	1	-1E+10	1	-1E+10	1	-1E+10	1
4901784	147	C	07/14/2019	10:41	-132.224	42.882	0	1775.20	0	2.1370	0	36.4540	8	29.136	0	1753.680	0	45.4	4	13.9	4	-1E+10	1	-1E+10	1	-1E+10	1	-1E+10	1	-1E+10	1	-1E+10	1
4901784	147	C	07/14/2019	10:41	-132.224	42.882	0	1780.60	0	2.1300	0	36.4550	8	29.138	0	1758.992	0	45.7	4	14.0	4	-1E+10	1	-1E+10	1	-1E+10	1	-1E+10	1	-1E+10	1	-1E+10	1
4901784	147	C	07/14/2019	10:41	-132.224	42.882	0	1785.10	0	2.1240	0	36.4560	8	29.139	0	1763.418	0	46.0	4	14.1	4	-1E+10	1	-1E+10	1	-1E+10	1	-1E+10	1	-1E+10	1	-1E+10	1
4901784	147	C	07/14/2019	10:41	-132.224	42.882	0	1789.60	0	2.1190	0	36.4570	8	29.140	0	1767.845	0	46.3	4	14.2	4	-1E+10	1	-1E+10	1	-1E+10	1	-1E+10	1	-1E+10	1	-1E+10	1
4901784	147	C	07/14/2019	10:41	-132.224	42.882	0	1795.10	0	2.1140	0	36.4580	8	29.142	0	1773.255	0	46.6	4	14.3	4	-1E+10	1	-1E+10	1	-1E+10	1	-1E+10	1	-1E+10	1	-1E+10	1
4901784	147	C	07/14/2019	10:41	-132.224	42.882	0	1800.60	0	2.1080	0	36.4580	8	29.142	0	1778.665	0	47.1	4	14.4	4	-1E+10	1	-1E+10	1	-1E+10	1	-1E+10	1	-1E+10	1	-1E+10	1
4901784	147	C	07/14/2019	10:41	-132.224	42.882	0	1805.20	0	2.1020	0	36.4600	8	29.144	0	1783.190	0	47.4	4	14.5	4	-1E+10	1	-1E+10	1	-1E+10	1	-1E+10	1	-1E+10	1	-1E+10	1
4901784	147	C	07/14/2019	10:41	-132.224	42.882	0	1809.80	0	2.0970	0	36.4600	8	29.145	0	1787.715	0	47.7	4	14.6	4	-1E+10	1	-1E+10	1	-1E+10	1	-1E+10	1	-1E+10	1	-1E+10	1
4901784	147	C	07/14/2019	10:41	-132.224	42.882	0	1815.40	0	2.0910	0	36.4610	8	29.146	0	1793.223	0	48.0	4	14.7	4	-1E+10	1	-1E+10	1	-1E+10	1	-1E+10	1	-1E+10	1	-1E+10	1
4901784	147	C	07/14/2019	10:41	-132.224	42.882	0	1820.00	0	2.0850	0	36.4620	8	29.147	0	1797.747	0	48.4	4	14.8	4	-1E+10	1	-1E+10	1	-1E+10	1	-1E+10	1	-1E+10	1	-1E+10	1
4901784	147	C	07/14/2019	10:41	-132.224	42.882	0	1825.20	0	2.0800	0	36.4620	8	29.148	0	1802.861	0	48.6	4	14.9	4	-1E+10	1	-1E+10	1	-1E+10	1	-1E+10	1	-1E+10	1	-1E+10	1
4901784	147	C	07/14/2019	10:41	-132.224	42.882	0	1830.30	0	2.0760	0	36.4630	8	29.149	0	1807.877	0	48.9	4	15.0	4	-1E+10	1	-1E+10	1	-1E+10	1	-1E+10	1	-1E+10	1	-1E+10	1
4901784	147	C	07/14/2019	10:41	-132.224	42.882	0	1835.20	0	2.0730	0	36.4630	8	29.149	0	1812.696	0	49.2	4	15.1	4	-1E+10	1	-1E+10	1	-1E+10	1	-1E+10	1	-1E+10	1	-1E+10	1
4901784	147	C	07/14/2019	10:41	-132.224	42.882	0	1840.00	0	2.0670	0	36.4640	8	29.151	0	1817.417	0	49.5	4	15.2	4	-1E+10	1	-1E+10	1	-1E+10	1	-1E+10	1	-1E+10	1	-1E+10	1
4901784	147	C	07/14/2019	10:41	-132.224	42.882	0	1844.90	0	2.0620	0	36.4650	8	29.152	0	1822.236	0	49.9	4	15.3	4	-1E+10	1	-1E+10	1	-1E+10	1	-1E+10	1	-1E+10	1	-1E+10	1
4901784	147	C	07/14/2019	10:41	-132.224	42.882	0	1849.90	0	2.0550	0	36.4660	8	29.153	0	1827.153	0	50.2	4	15.4	4	-1E+10	1	-1E+10	1	-1E+10	1	-1E+10	1	-1E+10	1	-1E+10	1
4901784	147	C	07/14/2019	10:41	-132.224	42.882	0	1854.80	0	2.0470	0	36.4670	8	29.155	0	1831.972	0	50.6	4	15.5	4	-1E+10	1	-1E+10	1	-1E+10	1	-1E+10	1	-1E+10	1	-1E+10	1
4901784	147	C	07/14/2019	10:41	-132.224	42.882	0	1859.70	0	2.0440	0	36.4670	8	29.155	0	1836.790	0	50.8	4	15.6	4	-1E+10	1	-1E+10	1	-1E+10	1	-1E+10	1	-1E+10	1	-1E+10	1
4901784	147	C	07/14/2019	10:41	-132.224	42.882	0	1864.60	0	2.0400	0	36.4680	8	29.156	0	1841.609	0	51.1	4	15.6	4	-1E+10	1	-1E+10	1	-1E+10	1	-1E+10	1	-1E+10	1	-1E+10	1
4901784	147	C	07/14/2019	10:41	-132.224	42.882	0	1869.60	0	2.0350	0	36.4690	8	29.157	0	1846.525	0	51.3	4	15.7	4	-1E+10	1	-1E+10	1	-1E+10	1	-1E+10	1	-1E+10	1	-1E+10	1
4901784	147	C	07/14/2019	10:41	-132.224	42.882	0	1874.60	0	2.0340	0	36.4690	8	29.158	0	1851.442	0	51.5	4	15.8	4	-1E+10	1	-1E+10	1	-1E+10	1	-1E+10	1	-1E+10	1	-1E+10	1
4901784	147	C	07/14/2019	10:41	-132.224	42.882	0	1879.50	0	2.0310	0	36.4690	8	29.158	0	1856.260	0	51.8	4	15.9	4	-1E+10	1	-1E+10	1	-1E+10	1	-1E+10	1	-1E+10	1	-1E+10	1
4901784	147	C	07/14/2019	10:41	-132.224	42.882	0	1884.50	0	2.0250	0	36.4700	8	29.159	0	1861.176	0	52.2	4	16.0	4	-1E+10	1	-1E+10	1	-1E+10	1	-1E+10	1	-1E+10	1	-1E+10	1
4901784	147	C	07/14/2019	10:41	-132.224	42.882	0	1889.60	0	2.0190	0	36.4710	8	29.161	0	1866.191	0	52.4	4	16.0	4	-1E+10	1	-1E+10	1	-1E+10	1	-1E+10	1	-1E+10	1	-1E+10	1
4901784	147	C	07/14/2019	10:41	-132.224	42.882	0	1894.60	0	2.0170	0	36.4710	8	29.161	0	1871.107	0	52.7	4	16.1	4	-1E+10	1	-1E+10	1	-1E+10	1	-1E+10	1	-1E+10	1	-1E+10	1
4901784	147	C	07/14/2019	10:41	-132.224	42.882	0	1899.70	0	2.0110	0	36.4720	8	29.162	0	1876.121	0	53.0	4	16.2	4	-1E+10	1	-1E+10	1	-1E+10	1	-1E+10	1	-1E+10	1	-1E+10	1
4901784	147	C	07/14/2019	10:41	-132.224	42.882	0	1904.80	0	2.0070	0	36.4730	8	29.163	0	1881.135	0	53.2	4	16.3	4	-1E+10	1	-1E+10	1	-1E+10	1	-1E+10	1	-1E+10	1	-1E+10	1
4901784	147	C	07/14/2019	10:41	-132.224	42.882	0	1910.00	0	2.0040	0	36.4730	8	29.163	0	1886.248	0	53.5	4	16.4	4	-1E+10	1	-1E+10	1	-1E+10	1	-1E+10	1	-1E+10	1	-1E+10	1
4901784	147	C	07/14/2019	10:41	-132.224	42.882	0	1915.10	0	1.9990	0	36.4740	8	29.165	0	1891.262	0	53.7	4	16.4	4	-1E+10	1	-1E+10	1	-1E+10	1	-1E+10	1	-1E+10	1	-1E+10	1
4901784	147	C	07/14/2019	10:41	-132.224	42.882	0	1920.20	0	1.9970	0	36.4740	8	29.165	0	1896.275	0	53.9	4	16.5	4	-1E+10	1	-1E+10	1	-1E+10	1	-1E+10	1	-1E+10	1	-1E+10	1
4901784	147	C	07/14/2019	10:41	-132.224	42.882	0	1925.40	0	1.9950	0	36.4740	8	29.165	0	1901.387	0	54.1	4	16.5	4	-1E+10	1	-1E+10	1	-1E+10	1	-1E+10	1	-1E+10	1	-1E+10	1
4901784	147	C	07/14/2019	10:41	-132.224	42.882	0	1930.50	0	1.9930	0	36.4750	8	29.166	0	1906.401	0	54.4	4	16.6	4	-1E+10	1	-1E+10	1	-1E+10	1	-1E+10	1	-1E+10	1	-1E+10	1
4901784	147	C	07/14/2019	10:41	-132.224	42.882	0	1935.70	0	1.9900	0	36.4760	8	29.167	0	1911.513	0	54.7	4	16.7	4	-1E+10	1	-1E+10	1	-1E+10	1	-1E+10	1	-1E+10	1	-1E+10	1
4901784	147	C	07/14/2019	10:41	-132.224	42.882	0	1940.80	0	1.9860	0	36.4770	8	29.168	0	1916.526	0	55.1	4	16.9	4	-1E+10	1	-1E+10	1	-1E+10	1	-1E+10	1	-1E+10	1	-1E+10	1
4901784	147	C	07/14/2019	10:41	-132.224	42.882	0	1945.10	0	1.9820	0	36.4780	8	29.170	0	1920.753	0	55.4	4	16.9	4	-1E+10	1	-1E+10	1	-1E+10	1	-1E+10	1	-1E+10	1	-1E+10	1
4901784	147	C	07/14/2019	10:41	-132.224	42.882	0	1949.40	0	1.9790	0	36.4780	8	29.170	0	1924.980	0	55.6	4	17.0	4	-1E+10	1	-1E+10	1	-1E+10	1	-1E+10	1	-1E+10	1	-1E+10	1
4901784	147	C	07/14/2019	10:41	-132.224	42.882	0	1954.60	0	1.9750	0	36.4790	8	29.171	0	1930.091	0	55.9	4	17.1	4	-1E+10	1	-1E+10	1	-1E+10	1	-1E+10	1	-1E+10	1	-1E+10	1
4901784	147	C	07/14/2019	10:41	-132.224	42.882	0	1959.80	0	1.9710	0	36.4800	8	29.172	0	1935.202	0	56.3	4	17.2	4	-1E+10	1	-1E+10	1	-1E+10	1	-1E+10	1	-1E+10	1	-1E+10	1
4901784	147	C	07/14/2019	10:41	-132.224	42.882	0	1965.10	0	1.9660	0	36.4800	8	29.173	0	1940.411	0	56.6	4	17.3	4	-1E+10	1	-1E+10	1	-1E+10	1	-1E+10	1	-1E+10	1	-1E+10	1
4901784	147	C	07/14/2019	10:41	-132.224	42.882	0	1970.30	0	1.9620	0	36.4810	8	29.174	0	1945.522	0	56.8	4	17.4	4	-1E+10	1	-1E+10	1	-1E+10	1	-1E+10	1	-1E+10	1	-1E+10	1
4901784	147	C	07/14/2019	10:41	-132.224	42.882	0	1975.60	0	1.9590	0	36.4810	8	29.174	0	1950.732	0	57.0	4	17.4	4	-1E+10	1	-1E+10	1	-1E+10	1	-1E+10	1	-1E+10	1	-1E+10	1
4901784	147	C	07/14/2019	10:41	-132.224	42.882	0	1980.10	0	1.9570	0	36.4820	8	29.175	0	1955.154	0	57.2	4	17.5	4	-1E+10	1	-1E+10	1	-1E+10	1	-1E+10	1	-1E+10	1	-1E+10	1
4901784	147	C	07/14/2019	10:41	-132.224	42.882	0	1984.40	0	1.9540	0	36.4820	8	29.175	0	1959.380	0	57.4	4	17.5	4	-1E+10	1	-1E+10	1	-1E+10	1	-1E+10	1	-1E+10	1	-1E+10	1
4901784	147	C	07/14/2019	10:41	-132.224	42.882	0	1989.80	0	1.9510	0	36.4830	8	29.176	0	1964.687	0	57.7	4	17.6	4	-1E+10	1	-1E+10	1	-1E+10	1	-1E+10	1	-1E+10	1	-1E+10	1
4901784	147	C	07/14/2019	10:41	-132.224	42.882	0	1995.20	0	1.9480	0	36.4840	8	29.177	0	1969.994	0	57.9	4	17.7	4	-1E+10	1	-1E+10	1	-1E+10	1	-1E+10	1	-1E+10	1	-1E+10	1
4901784	147	C	07/14/2019	10:41	-132.224	42.882	0	1999.60	0	1.9450	0	36.4840	8	29.178	0	1974.318	0	58.1	4	17.7	4	-1E+10	1	-1E+10	1	-1E+10	1	-1E+10	1	-1E+10	1	-1E+10	1
4901784	147	C	07/14/2019	10:41	-132.224	42.882	0	2005.20	0	1.9420	0	36.4840	8	29.178	0	1979.821	0	58.2	4	17.8	4	-1E+10	1	-1E+10	1	-1E+10	1	-1E+10	1	-1E+10	1	-1E+10	1
4901784	147	C	07/14/2019	10:41	-132.224	42.882	0	2010.50	0	1.9380	0	36.4850	8	29.179	0	1985.030	0	57.3	4	17.5	4	-1E+10	1	-1E+10	1	-1E+10	1	-1E+10	1	-1E+10	1	-1E+10	1
4901784	147	C	07/14/2019	10:41	-132.224	42.882	0																										
4901784	148	C	07/24/2019	10:46	-132.239	42.953	0	2.60	0	19.1940	0	34.2580	8	24.406	0	2.579	0	223.7	4	97.3	4	-1E+10	1	-1E+10	1	-1E+10	1	-1E+10	1	-1E+10	1	-1E+10	1
4901784	148	C	07/24/2019	10:46	-132.239	42.953	0	4.00	0	19.1940	0	34.2550	8	24.404	0	3.968	0	223.5	4	97.2	4	-1E+10	1	-1E+10	1	-1E+10	1	-1E+10	1	-1E+10	1	-1E+10	1
4901784	148	C	07/24/2019	10:46	-132.239	42.953	0	5.40	0	19.1920	0	34.2510	8	24.401	0	5.357	0	223.7	4	97.2	4	-1E+10	1	-1E+10	1	-1E+10	1	-1E+10	1	-1E+10	1	-1E+10	1
4901784	148	C	07/24/2019	10:46	-132.239	42.953	0	6.80	0	19.1890	0	34.2460	8	24.398	0	6.746	0	223.6	4	97.2	4	-1E+10	1	-1E+10	1	-1E+10	1	-1E+10	1	-1E+10	1	-1E+10	1
4901784	148	C	07/24/2019	10:46	-132.239	42.953	0	8.30	0	19.1900	0	34.2340	8	24.389	0	8.234	0	224.3	4	97.5	4	-1E+10	1	-1E+10	1	-1E+10	1	-1E+10	1	-1E+10	1	-1E+10	1
4901784	148	C	07/24/2019	10:46	-132.239	42.953	0	9.70	0	18.9680	0	34.2470	8	24.455	0	9.623	0	225.4	4	97.6	4	-1E+10	1	-1E+10	1	-1E+10	1	-1E+10	1	-1E+10	1	-1E+10	1
4901784	148	C	07/24/2019	10:46	-132.239	42.953	0	11.30	0	18.7720	0	34.2120	8	24.478	0	11.210	0	227.3	4	98.0	4	-1E+10	1	-1E+10	1	-1E+10	1	-1E+10	1	-1E+10	1	-1E+10	1
4901784	148	C	07/24/2019	10:46	-132.239	42.953	0	11.60	0	18.7130	0	34.2140	8	24.495	0	11.508	0	227.8	4	98.1	4	-1E+10	1	-1E+10	1	-1E+10	1	-1E+10	1	-1E+10	1	-1E+10	1
4901784	148	C	07/24/2019	10:46	-132.239	42.953	0	12.80	0	18.4980	0	34.1910	8	24.531	0	12.698	0	230.0	4	98.7	4	-1E+10	1	-1E+10	1	-1E+10	1	-1E+10	1	-1E+10	1	-1E+10	1
4901784	148	C	07/24/2019	10:46	-132.239	42.953	0	13.90	0	18.1270	0	34.2040	8	24.633	0	13.789	0	233.2	4	99.4	4	-1E+10	1	-1E+10	1	-1E+10	1	-1E+10	1	-1E+10	1	-1E+10	1
4901784	148	C	07/24/2019	10:46	-132.239	42.953	0	15.00	0	18.0360	0	34.1760	8	24.634	0	14.881	0	235.8	4	100.3	4	-1E+10	1	-1E+10	1	-1E+10	1	-1E+10	1	-1E+10	1	-1E+10	1
4901784	148	C	07/24/2019	10:46	-132.239	42.953	0	16.20	0	17.4380	0	34.1920	8	24.791	0	16.071	0	240.4	4	101.1	4	-1E+10	1	-1E+10	1	-1E+10	1	-1E+10	1	-1E+10	1	-1E+10	1
4901784	148	C	07/24/2019	10:46	-132.239	42.953	0	17.40	0	16.8800	0	34.1930	8	24.925	0	17.261	0	245.8	4	102.3	4	-1E+10	1	-1E+10	1	-1E+10	1	-1E+10	1	-1E+10	1	-1E+10	1
4901784	148	C	07/24/2019	10:46	-132.239	42.953	0	18.70	0	16.4230	0	34.1680	8	25.012	0	18.551	0	250.9	4	103.5	4	-1E+10	1	-1E+10	1	-1E+10	1	-1E+10	1	-1E+10	1	-1E+10	1
4901784	148	C	07/24/2019	10:46	-132.239	42.953	0	20.30	0	14.9960	0	34.2100	8	25.365	0	20.138	0	260.7	4	104.6	4	-1E+10	1	-1E+10	1	-1E+10	1	-1E+10	1	-1E+10	1	-1E+10	1
4901784	148	C	07/24/2019	10:46	-132.239	42.953	0	21.90	0	14.3220	0	34.2430	8	25.536	0	21.725	0	264.6	4	104.8	4	-1E+10	1	-1E+10	1	-1E+10	1	-1E+10	1	-1E+10	1	-1E+10	1
4901784	148	C	07/24/2019	10:46	-132.239	42.953	0	23.40	0	13.3620	0	34.2380	8	25.731	0	23.213	0	270.3	4	105.0	4	-1E+10	1	-1E+10	1	-1E+10	1	-1E+10	1	-1E+10	1	-1E+10	1
4901784	148	C	07/24/2019	10:46	-132.239	42.953	0	25.00	0	13.2210	0	34.2340	8	25.756	0	24.800	0	270.7	4	104.9	4	-1E+10	1	-1E+10	1	-1E+10	1	-1E+10	1	-1E+10	1	-1E+10	1
4901784	148	C	07/24/2019	10:46	-132.239	42.953	0	26.60	0	12.8520	0	34.2770	8	25.864	0	26.387	0	271.1	4	104.3	4	-1E+10	1	-1E+10	1	-1E+10	1	-1E+10	1	-1E+10	1	-1E+10	1
4901784	148	C	07/24/2019	10:46	-132.239	42.953	0	28.80	0	12.5190	0	34.2900	8	25.939	0	28.570	0	271.6	4	103.8	4	-1E+10	1	-1E+10	1	-1E+10	1	-1E+10	1	-1E+10	1	-1E+10	1
4901784	148	C	07/24/2019	10:46	-132.239	42.953	0	30.50	0	12.3560	0	34.2890	8	25.970	0	30.256	0	271.5	4	103.4	4	-1E+10	1	-1E+10	1	-1E+10	1	-1E+10	1	-1E+10	1	-1E+10	1
4901784	148	C	07/24/2019	10:46	-132.239	42.953	0	32.00	0	12.1690	0	34.3120	8	26.024	0	31.744	0	271.5	4	103.0	4	-1E+10	1	-1E+10	1	-1E+10	1	-1E+10	1	-1E+10	1	-1E+10	1
4901784	148	C	07/24/2019	10:46	-132.239	42.953	0	33.40	0	12.1070	0	34.3210	8	26.043	0	33.132	0	271.3	4	102.8	4	-1E+10	1	-1E+10	1	-1E+10	1	-1E+10	1	-1E+10	1	-1E+10	1
4901784	148	C	07/24/2019	10:46	-132.239	42.953	0	34.90	0	12.0740	0	34.3140	8	26.044	0	34.620	0	271.7	4	102.9	4	-1E+10	1	-1E+10	1	-1E+10	1	-1E+10	1	-1E+10	1	-1E+10	1
4901784	148	C	07/24/2019	10:46	-132.239	42.953	0	36.30	0	12.0800	0	34.3150	8	26.043	0	36.009	0	271.5	4	102.8	4	-1E+10	1	-1E+10	1	-1E+10	1	-1E+10	1	-1E+10	1	-1E+10	1
4901784	148	C	07/24/2019	10:46	-132.239	42.953	0	37.90	0	11.9820	0	34.3230	8	26.068	0	37.596	0	271.5	4	102.6	4	-1E+10	1	-1E+10	1	-1E+10	1	-1E+10	1	-1E+10	1	-1E+10	1
4901784	148	C	07/24/2019	10:46	-132.239	42.953	0	39.40	0	11.8830	0	34.3100	8	26.077	0	39.084	0	272.0	4	102.6	4	-1E+10	1	-1E+10	1	-1E+10	1	-1E+10	1	-1E+10	1	-1E+10	1
4901784	148	C	07/24/2019	10:46	-132.239	42.953	0	41.00	0	11.8470	0	34.3080	8	26.082	0	40.671	0	271.8	4	102.4	4	-1E+10	1	-1E+10	1	-1E+10	1	-1E+10	1	-1E+10	1	-1E+10	1
4901784	148	C	07/24/2019	10:46	-132.239	42.953	0	42.50	0	11.7850	0	34.3060	8	26.092	0	42.159	0	271.5	4	102.2	4	-1E+10	1	-1E+10	1	-1E+10	1	-1E+10	1	-1E+10	1	-1E+10	1
4901784	148	C	07/24/2019	10:46	-132.239	42.953	0	44.10	0	11.7450	0	34.3070	8	26.101	0	43.746	0	271.5	4	102.1	4	-1E+10	1	-1E+10	1	-1E+10	1	-1E+10	1	-1E+10	1	-1E+10	1
4901784	148	C	07/24/2019	10:46	-132.239	42.953	0	45.70	0	11.6720	0	34.2990	8	26.108	0	45.333	0	271.0	4	101.7	4	-1E+10	1	-1E+10	1	-1E+10	1	-1E+10	1	-1E+10	1	-1E+10	1
4901784	148	C	07/24/2019	10:46	-132.239	42.953	0	47.30	0	11.6500	0	34.3070	8	26.118	0	46.920	0	270.2	4	101.4	4	-1E+10	1	-1E+10	1	-1E+10	1	-1E+10	1	-1E+10	1	-1E+10	1
4901784	148	C	07/24/2019	10:46	-132.239	42.953	0	48.90	0	11.4340	0	34.3030	8	26.155	0	48.506	0	270.1	4	100.9	4	-1E+10	1	-1E+10	1	-1E+10	1	-1E+10	1	-1E+10	1	-1E+10	1
4901784	148	C	07/24/2019	10:46	-132.239	42.953	0	50.60	0	11.3730	0	34.3040	8	26.167	0	50.193	0	269.4	4	100.5	4	-1E+10	1	-1E+10	1	-1E+10	1	-1E+10	1	-1E+10	1	-1E+10	1
4901784	148	C	07/24/2019	10:46	-132.239	42.953	0	52.30	0	11.3140	0	34.3010	8	26.176	0	51.879	0	267.9	4	99.8	4	-1E+10	1	-1E+10	1	-1E+10	1	-1E+10	1	-1E+10	1	-1E+10	1
4901784	148	C	07/24/2019	10:46	-132.239	42.953	0	54.00	0	11.2460	0	34.3150	8	26.199	0	53.565	0	266.2	4	99.1	4	-1E+10	1	-1E+10	1	-1E+10	1	-1E+10	1	-1E+10	1	-1E+10	1
4901784	148	C	07/24/2019	10:46	-132.239	42.953	0	55.70	0	11.1820	0	34.3280	8	26.221	0	55.251	0	263.8	4	98.0	4	-1E+10	1	-1E+10	1	-1E+10	1	-1E+10	1	-1E+10	1	-1E+10	1
4901784	148	C	07/24/2019	10:46	-132.239	42.953	0	57.40	0	11.1830	0	34.3670	8	26.251	0	56.937	0	261.6	4	97.3	4	-1E+10	1	-1E+10	1	-1E+10	1	-1E+10	1	-1E+10	1	-1E+10	1
4901784	148	C	07/24/2019	10:46	-132.239	42.953	0	59.10	0	11.1410	0	34.3640	8	26.257	0	58.623	0	259.9	4	96.5	4	-1E+10	1	-1E+10	1	-1E+10	1	-1E+10	1	-1E+10	1	-1E+10	1
4901784	148	C	07/24/2019	10:46	-132.239	42.953	0	61.00	0	10.9740	0	34.3520	8	26.277	0	60.507	0	258.4	4	95.6	4	-1E+10	1	-1E+10	1	-1E+10	1	-1E+10	1	-1E+10	1	-1E+10	1
4901784	148	C	07/24/2019	10:46	-132.239	42.953	0	62.80	0	10.7580	0	34.3440	8	26.310	0	62.293	0	256.6	4	94.5	4	-1E+10	1	-1E+10	1	-1E+10	1	-1E+10	1	-1E+10	1	-1E+10	1
4901784	148	C	07/24/2019	10:46	-132.239	42.953	0	64.60	0	10.6390	0	34.3390	8	26.327	0	64.078	0	255.5	4	93.9	4	-1E+10	1	-1E+10	1	-1E+10	1	-1E+10	1	-1E+10	1	-1E+10	1
4901784	148	C	07/24/2019	10:46	-132.239	42.953	0	66.50	0	10.5750	0	34.3500	8	26.347	0	65.962	0	254.4	4	93.4	4	-1E+10	1	-1E+10	1	-1E+10	1	-1E+10	1	-1E+10	1	-1E+10	1
4901784	148	C	07/24/2019	10:46	-132.239	42.953	0	68.30	0	10.5000	0	34.3440	8	26.355	0	67.747	0	253.7	4	92.9	4	-1E+10	1	-1E+10	1	-1E+10	1	-1E+10	1	-1E+10	1	-1E+10	1
4901784	148	C	07/24/2019	10:46	-132.239	42.953	0	70.20	0	10.4510	0	34.3450	8	26.365	0	69.631	0	253.0	4	92.6	4	-1E+10	1	-1E+10	1	-1E+10	1	-1E+10	1	-1E+10	1	-1E+10	1
4901784	148	C	07/24/2019	10:46	-132.239	42.953	0	72.10	0	10.4160	0	34.3460	8	26.372	0	71.516	0	252.6	4	92.4	4	-1E+10	1	-1E+10	1	-1E+10	1	-1E+10	1	-1E+10	1	-1E+10	1
4901784	148	C	07/24/2019	10:46	-132.239	42.953	0	73.90	0	10.4100	0	34.3430	8	26.370	0	73.301	0	252.0	4	92.1	4	-1E+10	1	-1E+10	1	-1E+10	1	-1E+10	1	-1E+10	1	-1E+10	1
4901784	148	C	07/24/2019	10:46	-132.239	42.953	0	75.80	0	10.3670	0	34.3410	8	26.376	0	75.185	0	251.7	4	91.9	4	-1E+10	1	-1E+10	1	-1E+10	1	-1E+10	1	-1E+10	1	-1E+10	1
4901784	148	C	07/24/2019	10:46	-132.239	42.953	0	77.70	0	10.3050	0	34.3400	8	26.386	0	77.069	0	251.6	4	91.8	4	-1E+10	1	-1E+10	1	-1E+10	1	-1E+10	1	-1E+10	1	-1E+10	1
4901784	148	C	07/24/2019	10:46	-132.239	42.953	0	79.60	0	10.2840	0	34.3400	8	26.390	0	78.954	0	251.2	4	91.6	4	-1E+10	1	-1E+10	1	-1E+10	1	-1E+10	1	-1E+10	1	-1E+10	1
4901784	148	C	07/24/2019	10:46	-132.239	42.953	0	81.40	0	10.2460	0	34.3410	8	26.397	0	80.739	0	250.8	4	91.4	4	-1E+10	1	-1E+10	1	-1E+10	1	-1E+10	1	-1E+10	1	-1E+10	1
4901784	148	C	07/24/2019	10:46	-132.239	42.953	0	83.30	0	10.1980	0	34.3410	8	26.406	0	82.623	0	250.3	4	91.1	4	-1E+10	1	-1E+10	1	-1E+10	1	-1E+10	1	-1E+10	1	-1E+10	1
4901784	148	C	07/24/2019	10:46	-132.239	42.953	0	85.10	0	10.2090	0	34.3420	8	26.404	0	84.408	0	249.9	4	91.0	4	-1E+10	1	-1E+10	1	-1E+10	1	-1E+10	1	-1E+10	1	-1E+10	1
4901784	148	C	07/24/2019	10:46	-132.239	42.953	0	87.00	0	10.1930	0	34.3480	8	26.412	0	86.292	0	249.4	4	90.8	4	-1E+10	1	-1E+10	1	-1E+10	1	-1E+10	1	-1E+10	1	-1E+10	1
4901784	148	C	07/24/2019	10:46	-132.239	42.953	0	88.90	0	10.1380	0	34.3460	8	26.420	0	88.176	0	249.3	4	90.6	4	-1E+10	1	-1E+10	1	-1E+10	1	-1E+10	1	-1E+10	1	-1E+10	1
4901784	148	C	07/24/2019	10:46	-132.239	42.953	0	90.80	0	10.0760	0	34.3390	8	26.425	0	90.060	0	249.2	4	90.5	4	-1E+10	1	-1E+10	1	-1E+10	1	-1E+10	1	-1E+10	1	-1E+10	1
4901784	148	C	07/24/2019	10:46	-132.239	42.953	0	92.60	0	10.0210	0	34.3310	8	26.428	0	91.845	0	248.8	4	90.2	4	-1E+10	1	-1E+10	1	-1E+10	1	-1E+10	1	-1E+10	1	-1E+10	1
4901784	148	C	07/24/2019	10:46	-132.239	42.953	0	94.50	0	9.9310	0	34.3250	8	26.439	0	93.729	0	248.2	4	89.8	4	-1E+10	1	-1E+10	1	-1E+10	1	-1E+10	1	-1E+10	1	-1E+10	1
4901784	148	C	07/24/2019	10:46	-132.239	42.953	0	96.30	0	9.9420	0	34.3310	8	26.442	0	95.514	0	246.9	4	89.4	4	-1E+10	1	-1E+10	1	-1E+10	1	-1E+10	1	-1E+10	1	-1E+10	1
4901784	148	C	07/24/2019	10:46	-132.239	42.953	0	98.30	0	9.8640	0	34.3340	8	26.457	0	97.497	0	245.8	4	88.8	4	-1E+10	1	-1E+10	1	-1E+10	1	-1E+10	1	-1E+10	1	-1E+10	1
4901784	148	C	07/24/2019	10:46	-132.239	42.953	0	100.00	0	9.8370	0	34.3620	8	26.484	0	99.183	0	244.2	4	88.2	4	-1E+10	1	-1E+10	1	-1E+10	1	-1E+10	1	-1E+10	1	-1E+10	1
4901784	148	C	07/24/2019	10:46	-132.239	42.953	0	102.80	0	9.8370	0	34.3630	8	26.484	0	101.959	0	242.5	4	87.6	4	-1E+10	1	-1E+10	1	-1E+10	1	-1E+10	1	-1E+10	1	-1E+10	1
4901784	148	C	07/24/2019	10:46	-132.239	42.953	0	105.40	0	9.7470	0	34.3810	8	26.514	0	104.537	0	240.2	4	86.6	4	-1E+10	1	-1E+10	1	-1E+10	1	-1E+10	1	-1E+10	1	-1E+10	1
4901784	148	C	07/24/2019	10:46	-132.239	42.953	0	107.00	0	9.6860	0	34.3820	8	26.525	0	106.124	0	239.2	4	86.1	4	-1E+10	1	-1E+10	1	-1E+10	1	-1E+10	1	-1E+10	1	-1E+10	1
4901784	148	C	07/24/2019	10:46	-132.239	42.953	0	109.70	0	9.4810	0	34.4150	8	26.584	0	108.801	0	237.8	4	85.3	4	-1E+10	1	-1E+10	1	-1E+10	1	-1E+10	1	-1E+10	1	-1E+10	1
4901784	148	C	07/24/2019	10:46	-132.239	42.953	0	112.40	0	9.3060	0	34.4480	8	26.639	0	111.478	0	236.6	4	84.5	4	-1E+10	1	-1E+10	1	-1E+10	1	-1E+10	1	-1E+10	1	-1E+10	1
4901784	148	C	07/24/2019	10:46	-132.239	42.953	0	115.10	0	9.0330	0	34.4590	8	26.692	0	114.155	0	236.4	4	84.0	4	-1E+10	1	-1E+10	1	-1E+10	1	-1E+10	1	-1E+10	1	-1E+10	1
4901784	148	C	07/24/2019	10:46	-132.239	42.953	0	117.70	0	8.5550	0	34.4660	8	26.772	0	116.733	0	236.9	4	83.3	4	-1E+10	1	-1E+10	1	-1E+10	1	-1E+10	1	-1E+10	1	-1E+10	1
4901784	148	C	07/24/2019	10:46	-132.239	42.953	0	120.30	0	8.3020	0	34.5050	8	26.842	0	119.311	0	235.4	4	82.3	4	-1E+10	1	-1E+10	1	-1E+10	1	-1E+10	1	-1E+10	1	-1E+10	1
4901784	148	C	07/24/2019	10:46	-132.239	42.953	0	123.40	0	8.1010	0	34.5620	8	26.917	0	122.385	0	233.3	4	81.2	4	-1E+10	1	-1E+10	1	-1E+10	1	-1E+10	1	-1E+10	1	-1E+10	1
4901784	148	C	07/24/2019	10:46	-132.239	42.953	0	124.70	0	8.0460	0	34.5980	8	26.953	0	123.674	0	231.8	4	80.6	4	-1E+10	1	-1E+10	1	-1E+10	1	-1E+10	1	-1E+10	1	-1E+10	1
4901784	148	C	07/24/2019	10:46	-132.239	42.953	0	127.20	0	7.8940	0	34.6640	8	27.028	0	126.152	0	230.2	4	79.8	4	-1E+10	1	-1E+10	1	-1E+10	1	-1E+10	1	-1E+10	1	-1E+10	1
4901784	148	C	07/24/2019	10:46	-132.239	42.953	0	129.70	0	7.9470	0	34.7440	8	27.083	0	128.631	0	228.5	4	79.4	4	-1E+10	1	-1E+10	1	-1E+10	1	-1E+10	1	-1E+10	1	-1E+10	1
4901784	148	C	07/24/2019	10:46	-132.239	42.953	0	132.20	0	7.9870	0	34.7740	8	27.101	0	131.110	0	226.9	4	78.9	4	-1E+10	1	-1E+10	1	-1E+10	1	-1E+10	1	-1E+10	1	-1E+10	1
4901784	148	C	07/24/2019	10:46	-132.239	42.953	0	134.80	0	7.9920	0	34.8460	8	27.156	0	133.687	0	225.4	4	78.5	4	-1E+10	1	-1E+10	1	-1E+10	1	-1E+10	1	-1E+10	1	-1E+10	1
4901784	148	C	07/24/2019	10:46	-132.239	42.953	0	137.80	0	8.0150	0	34.9060	8	27.200	0	136.662	0	223.7	4	77.9	4	-1E+10	1	-1E+10	1	-1E+10	1	-1E+10	1	-1E+10	1	-1E+10	1
4901784	148	C	07/24/2019	10:46	-132.239	42.953	0	139.80	0	7.9830	0	34.9590	8	27.247	0	138.644	0	222.6	4	77.5	4	-1E+10	1	-1E+10	1	-1E+10	1	-1E+10	1	-1E+10	1	-1E+10	1
4901784	148	C	07/24/2019	10:46	-132.239	42.953	0	142.00	0	7.9780	0	34.9690	8	27.255	0	140.825	0	221.7	4	77.2	4	-1E+10	1	-1E+10	1	-1E+10	1	-1E+10	1	-1E+10	1	-1E+10	1
4901784	148	C	07/24/2019	10:46	-132.239	42.953	0	145.10	0	7.9680	0	35.0250	8	27.301	0	143.899	0	219.7	4	76.5	4	-1E+10	1	-1E+10	1	-1E+10	1	-1E+10	1	-1E+10	1	-1E+10	1
4901784	148	C	07/24/2019	10:46	-132.239	42.953	0	147.50	0	7.9360	0	35.1070	8	27.370	0	146.278	0	218.1	4	76.0	4	-1E+10	1	-1E+10	1	-1E+10	1	-1E+10	1	-1E+10	1	-1E+10	1
4901784	148	C	07/24/2019	10:46	-132.239	42.953	0	150.00	0	7.9160	0	35.1590	8	27.414	0	148.756	0	216.7	4	75.5	4	-1E+10	1	-1E+10	1	-1E+10	1	-1E+10	1	-1E+10	1	-1E+10	1
4901784	148	C	07/24/2019	10:46	-132.239	42.953	0	152.60	0	7.8900	0	35.2140	8	27.461	0	151.334	0	215.4	4	75.0	4	-1E+10	1	-1E+10	1	-1E+10	1	-1E+10	1	-1E+10	1	-1E+10	1
4901784	148	C	07/24/2019	10:46	-132.239	42.953	0	155.10	0	7.8790	0	35.2480	8	27.490	0	153.812	0	214.1	4	74.6	4	-1E+10	1	-1E+10	1	-1E+10	1	-1E+10	1	-1E+10	1	-1E+10	1
4901784	148	C	07/24/2019	10:46	-132.239	42.953	0	157.70	0	7.8790	0	35.2940	8	27.526	0	156.390	0	212.6	4	74.0	4	-1E+10	1	-1E+10	1	-1E+10	1	-1E+10	1	-1E+10	1	-1E+10	1
4901784	148	C	07/24/2019	10:46	-132.239	42.953	0	160.30	0	7.8750	0	35.3090	8	27.538	0	158.967	0	210.8	4	73.4	4	-1E+10	1	-1E+10	1	-1E+10	1	-1E+10	1	-1E+10	1	-1E+10	1
4901784	148	C	07/24/2019	10:46	-132.239	42.953	0	162.90	0	7.8490	0	35.3650	8	27.586	0	161.544	0	208.3	4	72.5	4	-1E+10	1	-1E+10	1	-1E+10	1	-1E+10	1	-1E+10	1	-1E+10	1
4901784	148	C	07/24/2019	10:46	-132.239	42.953	0	164.70	0	7.8730	0	35.3950	8	27.606	0	163.329	0	207.3	4	72.3	4	-1E+10	1	-1E+10	1	-1E+10	1	-1E+10	1	-1E+10	1	-1E+10	1
4901784	148	C	07/24/2019	10:46	-132.239	42.953	0	167.40	0	7.8910	0	35.4470	8	27.644	0	166.005	0	204.8	4	71.4	4	-1E+10	1	-1E+10	1	-1E+10	1	-1E+10	1	-1E+10	1	-1E+10	1
4901784	148	C	07/24/2019	10:46	-132.239	42.953	0	170.20	0	7.9060	0	35.4860	8	27.673	0	168.781	0	202.3	4	70.6	4	-1E+10	1	-1E+10	1	-1E+10	1	-1E+10	1	-1E+10	1	-1E+10	1
4901784	148	C	07/24/2019	10:46	-132.239	42.953	0	172.00	0	7.9220	0	35.5100	8	27.689	0	170.565	0	200.7	4	70.1	4	-1E+10	1	-1E+10	1	-1E+10	1	-1E+10	1	-1E+10	1	-1E+10	1
4901784	148	C	07/24/2019	10:46	-132.239	42.953	0	174.70	0	7.9470	0	35.5380	8	27.708	0	173.241	0	198.1	4	69.2	4	-1E+10	1	-1E+10	1	-1E+10	1	-1E+10	1	-1E+10	1	-1E+10	1
4901784	148	C	07/24/2019	10:46	-132.239	42.953	0	177.50	0	7.9760	0	35.5730	8	27.731	0	176.017	0	195.2	4	68.3	4	-1E+10	1	-1E+10	1	-1E+10	1	-1E+10	1	-1E+10	1	-1E+10	1
4901784	148	C	07/24/2019	10:46	-132.239	42.953	0	180.20	0	8.0050	0	35.6090	8	27.755	0	178.693	0	192.6	4	67.4	4	-1E+10	1	-1E+10	1	-1E+10	1	-1E+10	1	-1E+10	1	-1E+10	1
4901784	148	C	07/24/2019	10:46	-132.239	42.953	0	183.00	0	8.0350	0	35.6370	8	27.772	0	181.468	0	190.1	4	66.6	4	-1E+10	1	-1E+10	1	-1E+10	1	-1E+10	1	-1E+10	1	-1E+10	1
4901784	148	C	07/24/2019	10:46	-132.239	42.953	0	184.90	0	8.0610	0	35.6610	8	27.787	0	183.352	0	188.4	4	66.1	4	-1E+10	1	-1E+10	1	-1E+10	1	-1E+10	1	-1E+10	1	-1E+10	1
4901784	148	C	07/24/2019	10:46	-132.239	42.953	0	187.80	0	8.0860	0	35.6840	8	27.801	0	186.226	0	186.4	4	65.4	4	-1E+10	1	-1E+10	1	-1E+10	1	-1E+10	1	-1E+10	1	-1E+10	1
4901784	148	C	07/24/2019	10:46	-132.239	42.953	0	190.60	0	8.0630	0	35.7040	8	27.821	0	189.001	0	184.4	4	64.7	4	-1E+10	1	-1E+10	1	-1E+10	1	-1E+10	1	-1E+10	1	-1E+10	1
4901784	148	C	07/24/2019	10:46	-132.239	42.953	0	192.50	0	8.0910	0	35.7340	8	27.840	0	190.884	0	182.6	4	64.1	4	-1E+10	1	-1E+10	1	-1E+10	1	-1E+10	1	-1E+10	1	-1E+10	1
4901784	148	C	07/24/2019	10:46	-132.239	42.953	0	194.40	0	8.0900	0	35.7550	8	27.857	0	192.768	0	181.2	4	63.6	4	-1E+10	1	-1E+10	1	-1E+10	1	-1E+10	1	-1E+10	1	-1E+10	1
4901784	148	C	07/24/2019	10:46	-132.239	42.953	0	197.00	0	8.0940	0	35.7640	8	27.863	0	195.345	0	179.5	4	63.0	4	-1E+10	1	-1E+10	1	-1E+10	1	-1E+10	1	-1E+10	1	-1E+10	1
4901784	148	C	07/24/2019	10:46	-132.239	42.953	0	199.70	0	8.1040	0	35.7820	8	27.876	0	198.021	0	177.0	4	62.2	4	-1E+10	1	-1E+10	1	-1E+10	1	-1E+10	1	-1E+10	1	-1E+10	1
4901784	148	C	07/24/2019	10:46	-132.239	42.953	0	202.10	0	8.1190	0	35.7960	8	27.885	0	200.399	0	174.7	4	61.4	4	-1E+10	1	-1E+10	1	-1E+10	1	-1E+10	1	-1E+10	1	-1E+10	1
4901784	148	C	07/24/2019	10:46	-132.239	42.953	0	204.60	0	8.1170	0	35.8080	8	27.894	0	202.877	0	173.4	4	61.0	4	-1E+10	1	-1E+10	1	-1E+10	1	-1E+10	1	-1E+10	1	-1E+10	1
4901784	148	C	07/24/2019	10:46	-132.239	42.953	0	207.80	0	8.1230	0	35.8090	8	27.894	0	206.048	0	171.3	4	60.2	4	-1E+10	1	-1E+10	1	-1E+10	1	-1E+10	1	-1E+10	1	-1E+10	1
4901784	148	C	07/24/2019	10:46	-132.239	42.953	0	210.20	0	8.1270	0	35.8200	8	27.902	0	208.427	0	169.2	4	59.5	4	-1E+10	1	-1E+10	1	-1E+10	1	-1E+10	1	-1E+10	1	-1E+10	1
4901784	148	C	07/24/2019	10:46	-132.239	42.953	0	212.60	0	8.0950	0	35.8300	8	27.915	0	210.806	0	167.9	4	59.0	4	-1E+10	1	-1E+10	1	-1E+10	1	-1E+10	1	-1E+10	1	-1E+10	1
4901784	148	C	07/24/2019	10:46	-132.239	42.953	0	215.10	0	8.0710	0	35.8370	8	27.924	0	213.283	0	166.2	4	58.4	4	-1E+10	1	-1E+10	1	-1E+10	1	-1E+10	1	-1E+10	1	-1E+10	1
4901784	148	C	07/24/2019	10:46	-132.239	42.953	0	217.60	0	8.0530	0	35.8400	8	27.930	0	215.761	0	164.6	4	57.8	4	-1E+10	1	-1E+10	1	-1E+10	1	-1E+10	1	-1E+10	1	-1E+10	1
4901784	148	C	07/24/2019	10:46	-132.239	42.953	0	220.10	0	8.0160	0	35.8430	8	27.938	0	218.238	0	163.1	4	57.2	4	-1E+10	1	-1E+10	1	-1E+10	1	-1E+10	1	-1E+10	1	-1E+10	1
4901784	148	C	07/24/2019	10:46	-132.239	42.953	0	222.70	0	7.9770	0	35.8450	8	27.945	0	220.815	0	162.2	4	56.8	4	-1E+10	1	-1E+10	1	-1E+10	1	-1E+10	1	-1E+10	1	-1E+10	1
4901784	148	C	07/24/2019	10:46	-132.239	42.953	0	225.20	0	7.9520	0	35.8440	8	27.948	0	223.292	0	161.3	4	56.5	4	-1E+10	1	-1E+10	1	-1E+10	1	-1E+10	1	-1E+10	1	-1E+10	1
4901784	148	C	07/24/2019	10:46	-132.239	42.953	0	227.80	0	7.9020	0	35.8440	8	27.956	0	225.869	0	160.3	4	56.1	4	-1E+10	1	-1E+10	1	-1E+10	1	-1E+10	1	-1E+10	1	-1E+10	1
4901784	148	C	07/24/2019	10:46	-132.239	42.953	0	230.40	0	7.8290	0	35.8430	8	27.966	0	228.445	0	159.3	4	55.7	4	-1E+10	1	-1E+10	1	-1E+10	1	-1E+10	1	-1E+10	1	-1E+10	1
4901784	148	C	07/24/2019	10:46	-132.239	42.953	0	232.20	0	7.8050	0	35.8440	8	27.970	0	230.229	0	158.5	4	55.3	4	-1E+10	1	-1E+10	1	-1E+10	1	-1E+10	1	-1E+10	1	-1E+10	1
4901784	148	C	07/24/2019	10:46	-132.239	42.953	0	234.80	0	7.7710	0	35.8420	8	27.974	0	232.806	0	157.2	4	54.8	4	-1E+10	1	-1E+10	1	-1E+10	1	-1E+10	1	-1E+10	1	-1E+10	1
4901784	148	C	07/24/2019	10:46	-132.239	42.953	0	237.40	0	7.7380	0	35.8420	8	27.979	0	235.382	0	155.8	4	54.3	4	-1E+10	1	-1E+10	1	-1E+10	1	-1E+10	1	-1E+10	1	-1E+10	1
4901784	148	C	07/24/2019	10:46	-132.239	42.953	0	240.10	0	7.6920	0	35.8380	8	27.983	0	238.058	0	154.0	4	53.6	4	-1E+10	1	-1E+10	1	-1E+10	1	-1E+10	1	-1E+10	1	-1E+10	1
4901784	148	C	07/24/2019	10:46	-132.239	42.953	0	242.90	0	7.6270	0	35.8360	8	27.991	0	240.832	0	151.9	4	52.8	4	-1E+10	1	-1E+10	1	-1E+10	1	-1E+10	1	-1E+10	1	-1E+10	1
4901784	148	C	07/24/2019	10:46	-132.239	42.953	0	244.70	0	7.5610	0	35.8390	8	28.003	0	242.616	0	150.7	4	52.3	4	-1E+10	1	-1E+10	1	-1E+10	1	-1E+10	1	-1E+10	1	-1E+10	1
4901784	148	C	07/24/2019	10:46	-132.239	42.953	0	247.50	0	7.5090	0	35.8390	8	28.011	0	245.390	0	149.5	4	51.8	4	-1E+10	1	-1E+10	1	-1E+10	1	-1E+10	1	-1E+10	1	-1E+10	1
4901784	148	C	07/24/2019	10:46	-132.239	42.953	0	250.20	0	7.4580	0	35.8390	8	28.018	0	248.066	0	148.5	4	51.5	4	-1E+10	1	-1E+10	1	-1E+10	1	-1E+10	1	-1E+10	1	-1E+10	1
4901784	148	C	07/24/2019	10:46	-132.239	42.953	0	252.00	0	7.4450	0	35.8370	8	28.018	0	249.849	0	148.2	4	51.3	4	-1E+10	1	-1E+10	1	-1E+10	1	-1E+10	1	-1E+10	1	-1E+10	1
4901784	148	C	07/24/2019	10:46	-132.239	42.953	0	254.70	0	7.3810	0	35.8370	8	28.028	0	252.524	0	147.5	4	51.0	4	-1E+10	1	-1E+10	1	-1E+10	1	-1E+10	1	-1E+10	1	-1E+10	1
4901784	148	C	07/24/2019	10:46	-132.239	42.953	0	257.30	0	7.3410	0	35.8370	8	28.034	0	255.101	0	146.7	4	50.7	4	-1E+10	1	-1E+10	1	-1E+10	1	-1E+10	1	-1E+10	1	-1E+10	1
4901784	148	C	07/24/2019	10:46	-132.239	42.953	0	260.00	0	7.2940	0	35.8340	8	28.038	0	257.776	0	146.3	4	50.5	4	-1E+10	1	-1E+10	1	-1E+10	1	-1E+10	1	-1E+10	1	-1E+10	1
4901784	148	C	07/24/2019	10:46	-132.239	42.953	0	262.60	0	7.2580	0	35.8330	8	28.042	0	260.352	0	146.3	4	50.5	4	-1E+10	1	-1E+10	1	-1E+10	1	-1E+10	1	-1E+10	1	-1E+10	1
4901784	148	C	07/24/2019	10:46	-132.239	42.953	0	265.30	0	7.2010	0	35.8310	8	28.049	0	263.027	0	146.7	4	50.5	4	-1E+10	1	-1E+10	1	-1E+10	1	-1E+10	1	-1E+10	1	-1E+10	1
4901784	148	C	07/24/2019	10:46	-132.239	42.953	0	267.90	0	7.1580	0	35.8280	8	28.053	0	265.603	0	146.6	4	50.5	4	-1E+10	1	-1E+10	1	-1E+10	1	-1E+10	1	-1E+10	1	-1E+10	1
4901784	148	C	07/24/2019	10:46	-132.239	42.953	0	269.80	0	7.1380	0	35.8270	8	28.055	0	267.486	0	146.2	4	50.3	4	-1E+10	1	-1E+10	1	-1E+10	1	-1E+10	1	-1E+10	1	-1E+10	1
4901784	148	C	07/24/2019	10:46	-132.239	42.953	0	272.50	0	7.0870	0	35.8240	8	28.060	0	270.161	0	144.6	4	49.7	4	-1E+10	1	-1E+10	1	-1E+10	1	-1E+10	1	-1E+10	1	-1E+10	1
4901784	148	C	07/24/2019	10:46	-132.239	42.953	0	275.20	0	7.0460	0	35.8240	8	28.066	0	272.836	0	142.6	4	48.9	4	-1E+10	1	-1E+10	1	-1E+10	1	-1E+10	1	-1E+10	1	-1E+10	1
4901784	148	C	07/24/2019	10:46	-132.239	42.953	0	277.00	0	7.0070	0	35.8260	8	28.073	0	274.619	0	141.4	4	48.5	4	-1E+10	1	-1E+10	1	-1E+10	1	-1E+10	1	-1E+10	1	-1E+10	1
4901784	148	C	07/24/2019	10:46	-132.239	42.953	0	279.80	0	6.9730	0	35.8240	8	28.076	0	277.393	0	139.9	4	47.9	4	-1E+10	1	-1E+10	1	-1E+10	1	-1E+10	1	-1E+10	1	-1E+10	1
4901784	148	C	07/24/2019	10:46	-132.239	42.953	0	282.50	0	6.9280	0	35.8230	8	28.082	0	280.068	0	137.8	4	47.2	4	-1E+10	1	-1E+10	1	-1E+10	1	-1E+10	1	-1E+10	1	-1E+10	1
4901784	148	C	07/24/2019	10:46	-132.239	42.953	0	285.30	0	6.8770	0	35.8260	8	28.091	0	282.842	0	135.3	4	46.3	4	-1E+10	1	-1E+10	1	-1E+10	1	-1E+10	1	-1E+10	1	-1E+10	1
4901784	148	C	07/24/2019	10:46	-132.239	42.953	0	288.00	0	6.8270	0	35.8280	8	28.100	0	285.517	0	133.1	4	45.5	4	-1E+10	1	-1E+10	1	-1E+10	1	-1E+10	1	-1E+10	1	-1E+10	1
4901784	148	C	07/24/2019	10:46	-132.239	42.953	0	289.80	0	6.8160	0	35.8270	8	28.101	0	287.300	0	132.1	4	45.1	4	-1E+10	1	-1E+10	1	-1E+10	1	-1E+10	1	-1E+10	1	-1E+10	1
4901784	148	C	07/24/2019	10:46	-132.239	42.953	0	292.60	0	6.7840	0	35.8270	8	28.105	0	290.074	0	130.2	4	44.4	4	-1E+10	1	-1E+10	1	-1E+10	1	-1E+10	1	-1E+10	1	-1E+10	1
4901784	148	C	07/24/2019	10:46	-132.239	42.953	0	295.40	0	6.7190	0	35.8280	8	28.115	0	292.848	0	128.5	4	43.8	4	-1E+10	1	-1E+10	1	-1E+10	1	-1E+10	1	-1E+10	1	-1E+10	1
4901784	148	C	07/24/2019	10:46	-132.239	42.953	0	297.30	0	6.7040	0	35.8280	8	28.117	0	294.730	0	128.0	4	43.6	4	-1E+10	1	-1E+10	1	-1E+10	1	-1E+10	1	-1E+10	1	-1E+10	1
4901784	148	C	07/24/2019	10:46	-132.239	42.953	0	300.10	0	6.6570	0	35.8290	8	28.124	0	297.504	0	127.8	4	43.5	4	-1E+10	1	-1E+10	1	-1E+10	1	-1E+10	1	-1E+10	1	-1E+10	1
4901784	148	C	07/24/2019	10:46	-132.239	42.953	0	302.80	0	6.6440	0	35.8270	8	28.124	0	300.179	0	127.0	4	43.2	4	-1E+10	1	-1E+10	1	-1E+10	1	-1E+10	1	-1E+10	1	-1E+10	1
4901784	148	C	07/24/2019	10:46	-132.239	42.953	0	304.70	0	6.6340	0	35.8270	8	28.126	0	302.061	0	126.2	4	42.9	4	-1E+10	1	-1E+10	1	-1E+10	1	-1E+10	1	-1E+10	1	-1E+10	1
4901784	148	C	07/24/2019	10:46	-132.239	42.953	0	307.50	0	6.5950	0	35.8270	8	28.131	0	304.835	0	124.4	4	42.3	4	-1E+10	1	-1E+10	1	-1E+10	1	-1E+10	1	-1E+10	1	-1E+10	1
4901784	148	C	07/24/2019	10:46	-132.239	42.953	0	310.30	0	6.5410	0	35.8270	8	28.139	0	307.608	0	122.8	4	41.7	4	-1E+10	1	-1E+10	1	-1E+10	1	-1E+10	1	-1E+10	1	-1E+10	1
4901784	148	C	07/24/2019	10:46	-132.239	42.953	0	312.20	0	6.5250	0	35.8270	8	28.141	0	309.490	0	121.7	4	41.3	4	-1E+10	1	-1E+10	1	-1E+10	1	-1E+10	1	-1E+10	1	-1E+10	1
4901784	148	C	07/24/2019	10:46	-132.239	42.953	0	314.90	0	6.5100	0	35.8260	8	28.142	0	312.165	0	119.9	4	40.7	4	-1E+10	1	-1E+10	1	-1E+10	1	-1E+10	1	-1E+10	1	-1E+10	1
4901784	148	C	07/24/2019	10:46	-132.239	42.953	0	317.80	0	6.4800	0	35.8240	8	28.145	0	315.037	0	117.8	4	39.9	4	-1E+10	1	-1E+10	1	-1E+10	1	-1E+10	1	-1E+10	1	-1E+10	1
4901784	148	C	07/24/2019	10:46	-132.239	42.953	0	319.60	0	6.4500	0	35.8240	8	28.149	0	316.820	0	116.1	4	39.3	4	-1E+10	1	-1E+10	1	-1E+10	1	-1E+10	1	-1E+10	1	-1E+10	1
4901784	148	C	07/24/2019	10:46	-132.239	42.953	0	322.40	0	6.3870	0	35.8330	8	28.164	0	319.594	0	114.0	4	38.6	4	-1E+10	1	-1E+10	1	-1E+10	1	-1E+10	1	-1E+10	1	-1E+10	1
4901784	148	C	07/24/2019	10:46	-132.239	42.953	0	325.30	0	6.3040	0	35.8430	8	28.183	0	322.466	0	112.4	4	37.9	4	-1E+10	1	-1E+10	1	-1E+10	1	-1E+10	1	-1E+10	1	-1E+10	1
4901784	148	C	07/24/2019	10:46	-132.239	42.953	0	327.10	0	6.2790	0	35.8410	8	28.185	0	324.249	0	111.5	4	37.6	4	-1E+10	1	-1E+10	1	-1E+10	1	-1E+10	1	-1E+10	1	-1E+10	1
4901784	148	C	07/24/2019	10:46	-132.239	42.953	0	329.90	0	6.2290	0	35.8420	8	28.192	0	327.023	0	109.7	4	37.0	4	-1E+10	1	-1E+10	1	-1E+10	1	-1E+10	1	-1E+10	1	-1E+10	1
4901784	148	C	07/24/2019	10:46	-132.239	42.953	0	332.80	0	6.1690	0	35.8430	8	28.201	0	329.895	0	108.3	4	36.4	4	-1E+10	1	-1E+10	1	-1E+10	1	-1E+10	1	-1E+10	1	-1E+10	1
4901784	148	C	07/24/2019	10:46	-132.239	42.953	0	334.60	0	6.1510	0	35.8420	8	28.203	0	331.678	0	107.6	4	36.2	4	-1E+10	1	-1E+10	1	-1E+10	1	-1E+10	1	-1E+10	1	-1E+10	1
4901784	148	C	07/24/2019	10:46	-132.239	42.953	0	337.50	0	6.1030	0	35.8420	8	28.209	0	334.550	0	106.4	4	35.8	4	-1E+10	1	-1E+10	1	-1E+10	1	-1E+10	1	-1E+10	1	-1E+10	1
4901784	148	C	07/24/2019	10:46	-132.239	42.953	0	340.30	0	6.0590	0	35.8430	8	28.216	0	337.324	0	105.5	4	35.4	4	-1E+10	1	-1E+10	1	-1E+10	1	-1E+10	1	-1E+10	1	-1E+10	1
4901784	148	C	07/24/2019	10:46	-132.239	42.953	0	342.20	0	6.0470	0	35.8420	8	28.216	0	339.205	0	104.7	4	35.1	4	-1E+10	1	-1E+10	1	-1E+10	1	-1E+10	1	-1E+10	1	-1E+10	1
4901784	148	C	07/24/2019	10:46	-132.239	42.953	0	345.00	0	6.0210	0	35.8410	8	28.219	0	341.979	0	103.2	4	34.6	4	-1E+10	1	-1E+10	1	-1E+10	1	-1E+10	1	-1E+10	1	-1E+10	1
4901784	148	C	07/24/2019	10:46	-132.239	42.953	0	347.70	0	5.9680	0	35.8420	8	28.227	0	344.653	0	102.0	4	34.2	4	-1E+10	1	-1E+10	1	-1E+10	1	-1E+10	1	-1E+10	1	-1E+10	1
4901784	148	C	07/24/2019	10:46	-132.239	42.953	0	349.60	0	5.9560	0	35.8410	8	28.228	0	346.535	0	101.3	4	33.9	4	-1E+10	1	-1E+10	1	-1E+10	1	-1E+10	1	-1E+10	1	-1E+10	1
4901784	148	C	07/24/2019	10:46	-132.239	42.953	0	352.40	0	5.9090	0	35.8420	8	28.234	0	349.308	0	100.2	4	33.5	4	-1E+10	1	-1E+10	1	-1E+10	1	-1E+10	1	-1E+10	1	-1E+10	1
4901784	148	C	07/24/2019	10:46	-132.239	42.953	0	355.20	0	5.8650	0	35.8420	8	28.240	0	352.081	0	99.5	4	33.2	4	-1E+10	1	-1E+10	1	-1E+10	1	-1E+10	1	-1E+10	1	-1E+10	1
4901784	148	C	07/24/2019	10:46	-132.239	42.953	0	357.10	0	5.8460	0	35.8430	8	28.243	0	353.962	0	98.8	4	33.0	4	-1E+10	1	-1E+10	1	-1E+10	1	-1E+10	1	-1E+10	1	-1E+10	1
4901784	148	C	07/24/2019	10:46	-132.239	42.953	0	359.90	0	5.8290	0	35.8410	8	28.244	0	356.735	0	97.8	4	32.6	4	-1E+10	1	-1E+10	1	-1E+10	1	-1E+10	1	-1E+10	1	-1E+10	1
4901784	148	C	07/24/2019	10:46	-132.239	42.953	0	362.60	0	5.7920	0	35.8430	8	28.250	0	359.409	0	96.6	4	32.2	4	-1E+10	1	-1E+10	1	-1E+10	1	-1E+10	1	-1E+10	1	-1E+10	1
4901784	148	C	07/24/2019	10:46	-132.239	42.953	0	364.50	0	5.7750	0	35.8420	8	28.252	0	361.291	0	95.7	4	31.9	4	-1E+10	1	-1E+10	1	-1E+10	1	-1E+10	1	-1E+10	1	-1E+10	1
4901784	148	C	07/24/2019	10:46	-132.239	42.953	0	367.30	0	5.7470	0	35.8420	8	28.255	0	364.064	0	94.2	4	31.4	4	-1E+10	1	-1E+10	1	-1E+10	1	-1E+10	1	-1E+10	1	-1E+10	1
4901784	148	C	07/24/2019	10:46	-132.239	42.953	0	370.00	0	5.7010	0	35.8430	8	28.262	0	366.738	0	92.6	4	30.8	4	-1E+10	1	-1E+10	1	-1E+10	1	-1E+10	1	-1E+10	1	-1E+10	1
4901784	148	C	07/24/2019	10:46	-132.239	42.953	0	372.00	0	5.6770	0	35.8430	8	28.265	0	368.718	0	91.4	4	30.4	4	-1E+10	1	-1E+10	1	-1E+10	1	-1E+10	1	-1E+10	1	-1E+10	1
4901784	148	C	07/24/2019	10:46	-132.239	42.953	0	374.70	0	5.6430	0	35.8420	8	28.269	0	371.392	0	89.4	4	29.7	4	-1E+10	1	-1E+10	1	-1E+10	1	-1E+10	1	-1E+10	1	-1E+10	1
4901784	148	C	07/24/2019	10:46	-132.239	42.953	0	377.50	0	5.5900	0	35.8470	8	28.279	0	374.165	0	87.6	4	29.1	4	-1E+10	1	-1E+10	1	-1E+10	1	-1E+10	1	-1E+10	1	-1E+10	1
4901784	148	C	07/24/2019	10:46	-132.239	42.953	0	379.40	0	5.5470	0	35.8460	8	28.284	0	376.046	0	86.5	4	28.7	4	-1E+10	1	-1E+10	1	-1E+10	1	-1E+10	1	-1E+10	1	-1E+10	1
4901784	148	C	07/24/2019	10:46	-132.239	42.953	0	382.40	0	5.4960	0	35.8480	8	28.292	0	379.017	0	85.2	4	28.2	4	-1E+10	1	-1E+10	1	-1E+10	1	-1E+10	1	-1E+10	1	-1E+10	1
4901784	148	C	07/24/2019	10:46	-132.239	42.953	0	385.30	0	5.4380	0	35.8520	8	28.302	0	381.889	0	83.4	4	27.6	4	-1E+10	1	-1E+10	1	-1E+10	1	-1E+10	1	-1E+10	1	-1E+10	1
4901784	148	C	07/24/2019	10:46	-132.239	42.953	0	387.60	0	5.4280	0	35.8510	8	28.303	0	384.166	0	82.1	4	27.1	4	-1E+10	1	-1E+10	1	-1E+10	1	-1E+10	1	-1E+10	1	-1E+10	1
4901784	148	C	07/24/2019	10:46	-132.239	42.953	0	390.00	0	5.3810	0	35.8530	8	28.310	0	386.543	0	80.6	4	26.6	4	-1E+10	1	-1E+10	1	-1E+10	1	-1E+10	1	-1E+10	1	-1E+10	1
4901784	148	C	07/24/2019	10:46	-132.239	42.953	0	392.40	0	5.3500	0	35.8560	8	28.316	0	388.919	0	79.1	4	26.1	4	-1E+10	1	-1E+10	1	-1E+10	1	-1E+10	1	-1E+10	1	-1E+10	1
4901784	148	C	07/24/2019	10:46	-132.239	42.953	0	394.90	0	5.3060	0	35.8590	8	28.324	0	391.395	0	77.6	4	25.6	4	-1E+10	1	-1E+10	1	-1E+10	1	-1E+10	1	-1E+10	1	-1E+10	1
4901784	148	C	07/24/2019	10:46	-132.239	42.953	0	397.30	0	5.2780	0	35.8610	8	28.329	0	393.771	0	76.6	4	25.2	4	-1E+10	1	-1E+10	1	-1E+10	1	-1E+10	1	-1E+10	1	-1E+10	1
4901784	148	C	07/24/2019	10:46	-132.239	42.953	0	399.70	0	5.2470	0	35.8640	8	28.335	0	396.147	0	75.4	4	24.8	4	-1E+10	1	-1E+10	1	-1E+10	1	-1E+10	1	-1E+10	1	-1E+10	1
4901784	148	C	07/24/2019	10:46	-132.239	42.953	0	402.10	0	5.2260	0	35.8650	8	28.338	0	398.524	0	74.4	4	24.5	4	-1E+10	1	-1E+10	1	-1E+10	1	-1E+10	1	-1E+10	1	-1E+10	1
4901784	148	C	07/24/2019	10:46	-132.239	42.953	0	405.30	0	5.1870	0	35.8680	8	28.346	0	401.692	0	72.9	4	24.0	4	-1E+10	1	-1E+10	1	-1E+10	1	-1E+10	1	-1E+10	1	-1E+10	1
4901784	148	C	07/24/2019	10:46	-132.239	42.953	0	407.70	0	5.1600	0	35.8700	8	28.350	0	404.068	0	71.9	4	23.7	4	-1E+10	1	-1E+10	1	-1E+10	1	-1E+10	1	-1E+10	1	-1E+10	1
4901784	148	C	07/24/2019	10:46	-132.239	42.953	0	410.20	0	5.1390	0	35.8720	8	28.355	0	406.544	0	71.0	4	23.3	4	-1E+10	1	-1E+10	1	-1E+10	1	-1E+10	1	-1E+10	1	-1E+10	1
4901784	148	C	07/24/2019	10:46	-132.239	42.953	0	412.70	0	5.1130	0	35.8740	8	28.359	0	409.019	0	70.0	4	23.0	4	-1E+10	1	-1E+10	1	-1E+10	1	-1E+10	1	-1E+10	1	-1E+10	1
4901784	148	C	07/24/2019	10:46	-132.239	42.953	0	415.20	0	5.0930	0	35.8760	8	28.363	0	411.494	0	69.1	4	22.7	4	-1E+10	1	-1E+10	1	-1E+10	1	-1E+10	1	-1E+10	1	-1E+10	1
4901784	148	C	07/24/2019	10:46	-132.239	42.953	0	417.80	0	5.0720	0	35.8790	8	28.368	0	414.068	0	68.1	4	22.3	4	-1E+10	1	-1E+10	1	-1E+10	1	-1E+10	1	-1E+10	1	-1E+10	1
4901784	148	C	07/24/2019	10:46	-132.239	42.953	0	419.50	0	5.0530	0	35.8800	8	28.371	0	415.752	0	67.4	4	22.1	4	-1E+10	1	-1E+10	1	-1E+10	1	-1E+10	1	-1E+10	1	-1E+10	1
4901784	148	C	07/24/2019	10:46	-132.239	42.953	0	422.20	0	5.0170	0	35.8860	8	28.380	0	418.425	0	66.5	4	21.8	4	-1E+10	1	-1E+10	1	-1E+10	1	-1E+10	1	-1E+10	1	-1E+10	1
4901784	148	C	07/24/2019	10:46	-132.239	42.953	0	424.80	0	5.0040	0	35.8880	8	28.383	0	420.999	0	66.0	4	21.6	4	-1E+10	1	-1E+10	1	-1E+10	1	-1E+10	1	-1E+10	1	-1E+10	1
4901784	148	C	07/24/2019	10:46	-132.239	42.953	0	427.50	0	5.0000	0	35.8880	8	28.384	0	423.672	0	65.3	4	21.4	4	-1E+10	1	-1E+10	1	-1E+10	1	-1E+10	1	-1E+10	1	-1E+10	1
4901784	148	C	07/24/2019	10:46	-132.239	42.953	0	430.30	0	4.9860	0	35.8890	8	28.386	0	426.444	0	64.5	4	21.1	4	-1E+10	1	-1E+10	1	-1E+10	1	-1E+10	1	-1E+10	1	-1E+10	1
4901784	148	C	07/24/2019	10:46	-132.239	42.953	0	432.00	0	4.9730	0	35.8910	8	28.390	0	428.127	0	63.8	4	20.9	4	-1E+10	1	-1E+10	1	-1E+10	1	-1E+10	1	-1E+10	1	-1E+10	1
4901784	148	C	07/24/2019	10:46	-132.239	42.953	0	434.70	0	4.9510	0	35.8950	8	28.395	0	430.800	0	63.1	4	20.6	4	-1E+10	1	-1E+10	1	-1E+10	1	-1E+10	1	-1E+10	1	-1E+10	1
4901784	148	C	07/24/2019	10:46	-132.239	42.953	0	437.40	0	4.9330	0	35.8980	8	28.400	0	433.473	0	62.5	4	20.4	4	-1E+10	1	-1E+10	1	-1E+10	1	-1E+10	1	-1E+10	1	-1E+10	1
4901784	148	C	07/24/2019	10:46	-132.239	42.953	0	440.20	0	4.9250	0	35.8990	8	28.402	0	436.245	0	62.0	4	20.3	4	-1E+10	1	-1E+10	1	-1E+10	1	-1E+10	1	-1E+10	1	-1E+10	1
4901784	148	C	07/24/2019	10:46	-132.239	42.953	0	442.80	0	4.9180	0	35.8990	8	28.402	0	438.819	0	61.5	4	20.1	4	-1E+10	1	-1E+10	1	-1E+10	1	-1E+10	1	-1E+10	1	-1E+10	1
4901784	148	C	07/24/2019	10:46	-132.239	42.953	0	444.70	0	4.9160	0	35.8990	8	28.403	0	440.700	0	61.0	4	19.9	4	-1E+10	1	-1E+10	1	-1E+10	1	-1E+10	1	-1E+10	1	-1E+10	1
4901784	148	C	07/24/2019	10:46	-132.239	42.953	0	447.30	0	4.9030	0	35.9020	8	28.407	0	443.273	0	60.2	4	19.7	4	-1E+10	1	-1E+10	1	-1E+10	1	-1E+10	1	-1E+10	1	-1E+10	1
4901784	148	C	07/24/2019	10:46	-132.239	42.953	0	450.00	0	4.8900	0	35.9040	8	28.410	0	445.946	0	59.5	4	19.4	4	-1E+10	1	-1E+10	1	-1E+10	1	-1E+10	1	-1E+10	1	-1E+10	1
4901784	148	C	07/24/2019	10:46	-132.239	42.953	0	452.60	0	4.8790	0	35.9060	8	28.413	0	448.520	0	58.6	4	19.1	4	-1E+10	1	-1E+10	1	-1E+10	1	-1E+10	1	-1E+10	1	-1E+10	1
4901784	148	C	07/24/2019	10:46	-132.239	42.953	0	455.30	0	4.8700	0	35.9070	8	28.415	0	451.193	0	57.7	4	18.8	4	-1E+10	1	-1E+10	1	-1E+10	1	-1E+10	1	-1E+10	1	-1E+10	1
4901784	148	C	07/24/2019	10:46	-132.239	42.953	0	457.10	0	4.8630	0	35.9080	8	28.416	0	452.975	0	57.0	4	18.6	4	-1E+10	1	-1E+10	1	-1E+10	1	-1E+10	1	-1E+10	1	-1E+10	1
4901784	148	C	07/24/2019	10:46	-132.239	42.953	0	459.80	0	4.8340	0	35.9160	8	28.426	0	455.647	0	56.1	4	18.3	4	-1E+10	1	-1E+10	1	-1E+10	1	-1E+10	1	-1E+10	1	-1E+10	1
4901784	148	C	07/24/2019	10:46	-132.239	42.953	0	462.60	0	4.8230	0	35.9190	8	28.430	0	458.419	0	55.5	4	18.1	4	-1E+10	1	-1E+10	1	-1E+10	1	-1E+10	1	-1E+10	1	-1E+10	1
4901784	148	C	07/24/2019	10:46	-132.239	42.953	0	464.90	0	4.8160	0	35.9200	8	28.431	0	460.696	0	55.0	4	17.9	4	-1E+10	1	-1E+10	1	-1E+10	1	-1E+10	1	-1E+10	1	-1E+10	1
4901784	148	C	07/24/2019	10:46	-132.239	42.953	0	467.60	0	4.8100	0	35.9210	8	28.433	0	463.368	0	54.3	4	17.7	4	-1E+10	1	-1E+10	1	-1E+10	1	-1E+10	1	-1E+10	1	-1E+10	1
4901784	148	C	07/24/2019	10:46	-132.239	42.953	0	469.90	0	4.8030	0	35.9220	8	28.434	0	465.645	0	53.5	4	17.4	4	-1E+10	1	-1E+10	1	-1E+10	1	-1E+10	1	-1E+10	1	-1E+10	1
4901784	148	C	07/24/2019	10:46	-132.239	42.953	0	472.30	0	4.7800	0	35.9280	8	28.442	0	468.020	0	52.8	4	17.2	4	-1E+10	1	-1E+10	1	-1E+10	1	-1E+10	1	-1E+10	1	-1E+10	1
4901784	148	C	07/24/2019	10:46	-132.239	42.953	0	475.40	0	4.7720	0	35.9310	8	28.445	0	471.089	0	52.4	4	17.1	4	-1E+10	1	-1E+10	1	-1E+10	1	-1E+10	1	-1E+10	1	-1E+10	1
4901784	148	C	07/24/2019	10:46	-132.239	42.953	0	477.70	0	4.7720	0	35.9310	8	28.445	0	473.365	0	52.2	4	17.0	4	-1E+10	1	-1E+10	1	-1E+10	1	-1E+10	1	-1E+10	1	-1E+10	1
4901784	148	C	07/24/2019	10:46	-132.239	42.953	0	480.20	0	4.7720	0	35.9310	8	28.445	0	475.840	0	51.8	4	16.9	4	-1E+10	1	-1E+10	1	-1E+10	1	-1E+10	1	-1E+10	1	-1E+10	1
4901784	148	C	07/24/2019	10:46	-132.239	42.953	0	482.50	0	4.7700	0	35.9310	8	28.446	0	478.116	0	51.3	4	16.7	4	-1E+10	1	-1E+10	1	-1E+10	1	-1E+10	1	-1E+10	1	-1E+10	1
4901784	148	C	07/24/2019	10:46	-132.239	42.953	0	485.00	0	4.7620	0	35.9330	8	28.448	0	480.590	0	50.6	4	16.5	4	-1E+10	1	-1E+10	1	-1E+10	1	-1E+10	1	-1E+10	1	-1E+10	1
4901784	148	C	07/24/2019	10:46	-132.239	42.953	0	487.40	0	4.7530	0	35.9340	8	28.450	0	482.966	0	49.8	4	16.2	4	-1E+10	1	-1E+10	1	-1E+10	1	-1E+10	1	-1E+10	1	-1E+10	1
4901784	148	C	07/24/2019	10:46	-132.239	42.953	0	489.80	0	4.7400	0	35.9380	8	28.455	0	485.341	0	49.0	4	15.9	4	-1E+10	1	-1E+10	1	-1E+10	1	-1E+10	1	-1E+10	1	-1E+10	1
4901784	148	C	07/24/2019	10:46	-132.239	42.953	0	492.30	0	4.7290	0	35.9420	8	28.459	0	487.816	0	48.1	4	15.7	4	-1E+10	1	-1E+10	1	-1E+10	1	-1E+10	1	-1E+10	1	-1E+10	1
4901784	148	C	07/24/2019	10:46	-132.239	42.953	0	494.70	0	4.7280	0	35.9430	8	28.460	0	490.191	0	47.3	4	15.4	4	-1E+10	1	-1E+10	1	-1E+10	1	-1E+10	1	-1E+10	1	-1E+10	1
4901784	148	C	07/24/2019	10:46	-132.239	42.953	0	497.20	0	4.7270	0	35.9440	8	28.461	0	492.665	0	46.2	4	15.0	4	-1E+10	1	-1E+10	1	-1E+10	1	-1E+10	1	-1E+10	1	-1E+10	1
4901784	148	C	07/24/2019	10:46	-132.239	42.953	0	499.80	0	4.7220	0	35.9490	8	28.466	0	495.238	0	44.6	4	14.5	4	-1E+10	1	-1E+10	1	-1E+10	1	-1E+10	1	-1E+10	1	-1E+10	1
4901784	148	C	07/24/2019	10:46	-132.239	42.953	0	505.60	0	4.7490	0	35.9640	8	28.474	0	500.978	0	41.7	4	13.6	4	-1E+10	1	-1E+10	1	-1E+10	1	-1E+10	1	-1E+10	1	-1E+10	1
4901784	148	C	07/24/2019	10:46	-132.239	42.953	0	510.60	0	4.7240	0	35.9670	8	28.480	0	505.927	0	41.3	4	13.4	4	-1E+10	1	-1E+10	1	-1E+10	1	-1E+10	1	-1E+10	1	-1E+10	1
4901784	148	C	07/24/2019	10:46	-132.239	42.953	0	515.70	0	4.6930	0	35.9690	8	28.485	0	510.974	0	40.5	4	13.2	4	-1E+10	1	-1E+10	1	-1E+10	1	-1E+10	1	-1E+10	1	-1E+10	1
4901784	148	C	07/24/2019	10:46	-132.239	42.953	0	520.00	0	4.6710	0	35.9740	8	28.491	0	515.229	0	39.5	4	12.8	4	-1E+10	1	-1E+10	1	-1E+10	1	-1E+10	1	-1E+10	1	-1E+10	1
4901784	148	C	07/24/2019	10:46	-132.239	42.953	0	524.40	0	4.6740	0	35.9770	8	28.494	0	519.583	0	38.6	4	12.6	4	-1E+10	1	-1E+10	1	-1E+10	1	-1E+10	1	-1E+10	1	-1E+10	1
4901784	148	C	07/24/2019	10:46	-132.239	42.953	0	529.60	0	4.6770	0	35.9810	8	28.496	0	524.729	0	36.9	4	12.0	4	-1E+10	1	-1E+10	1	-1E+10	1	-1E+10	1	-1E+10	1	-1E+10	1
4901784	148	C	07/24/2019	10:46	-132.239	42.953	0	535.00	0	4.6880	0	35.9890	8	28.502	0	530.072	0	35.2	4	11.4	4	-1E+10	1	-1E+10	1	-1E+10	1	-1E+10	1	-1E+10	1	-1E+10	1
4901784	148	C	07/24/2019	10:46	-132.239	42.953	0	540.30	0	4.6850	0	35.9940	8	28.506	0	535.317	0	34.3	4	11.2	4	-1E+10	1	-1E+10	1	-1E+10	1	-1E+10	1	-1E+10	1	-1E+10	1
4901784	148	C	07/24/2019	10:46	-132.239	42.953	0	545.60	0	4.6530	0	35.9950	8	28.510	0	540.561	0	33.9	4	11.0	4	-1E+10	1	-1E+10	1	-1E+10	1	-1E+10	1	-1E+10	1	-1E+10	1
4901784	148	C	07/24/2019	10:46	-132.239	42.953	0	550.10	0	4.6100	0	35.9980	8	28.518	0	545.013	0	32.9	4	10.7	4	-1E+10	1	-1E+10	1	-1E+10	1	-1E+10	1	-1E+10	1	-1E+10	1
4901784	148	C	07/24/2019	10:46	-132.239	42.953	0	554.70	0	4.6110	0	36.0050	8	28.523	0	549.565	0	31.1	4	10.1	4	-1E+10	1	-1E+10	1	-1E+10	1	-1E+10	1	-1E+10	1	-1E+10	1
4901784	148	C	07/24/2019	10:46	-132.239	42.953	0	560.20	0	4.6190	0	36.0160	8	28.531	0	555.006	0	29.5	4	9.6	4	-1E+10	1	-1E+10	1	-1E+10	1	-1E+10	1	-1E+10	1	-1E+10	1
4901784	148	C	07/24/2019	10:46	-132.239	42.953	0	564.80	0	4.6200	0	36.0210	8	28.535	0	559.558	0	28.8	4	9.4	4	-1E+10	1	-1E+10	1	-1E+10	1	-1E+10	1	-1E+10	1	-1E+10	1
4901784	148	C	07/24/2019	10:46	-132.239	42.953	0	569.50	0	4.6090	0	36.0220	8	28.537	0	564.208	0	28.6	4	9.3	4	-1E+10	1	-1E+10	1	-1E+10	1	-1E+10	1	-1E+10	1	-1E+10	1
4901784	148	C	07/24/2019	10:46	-132.239	42.953	0	575.10	0	4.5760	0	36.0230	8	28.542	0	569.748	0	28.3	4	9.2	4	-1E+10	1	-1E+10	1	-1E+10	1	-1E+10	1	-1E+10	1	-1E+10	1
4901784	148	C	07/24/2019	10:46	-132.239	42.953	0	579.80	0	4.5350	0	36.0280	8	28.550	0	574.398	0	27.9	4	9.0	4	-1E+10	1	-1E+10	1	-1E+10	1	-1E+10	1	-1E+10	1	-1E+10	1
4901784	148	C	07/24/2019	10:46	-132.239	42.953	0	584.50	0	4.5160	0	36.0310	8	28.555	0	579.047	0	27.5	4	8.9	4	-1E+10	1	-1E+10	1	-1E+10	1	-1E+10	1	-1E+10	1	-1E+10	1
4901784	148	C	07/24/2019	10:46	-132.239	42.953	0	590.20	0	4.4880	0	36.0340	8	28.561	0	584.686	0	27.4	4	8.9	4	-1E+10	1	-1E+10	1	-1E+10	1	-1E+10	1	-1E+10	1	-1E+10	1
4901784	148	C	07/24/2019	10:46	-132.239	42.953	0	595.00	0	4.4560	0	36.0330	8	28.563	0	589.435	0	27.3	4	8.8	4	-1E+10	1	-1E+10	1	-1E+10	1	-1E+10	1	-1E+10	1	-1E+10	1
4901784	148	C	07/24/2019	10:46	-132.239	42.953	0	599.70	0	4.4340	0	36.0370	8	28.569	0	594.084	0	26.8	4	8.7	4	-1E+10	1	-1E+10	1	-1E+10	1	-1E+10	1	-1E+10	1	-1E+10	1
4901784	148	C	07/24/2019	10:46	-132.239	42.953	0	605.40	0	4.4020	0	36.0400	8	28.575	0	599.722	0	26.6	4	8.6	4	-1E+10	1	-1E+10	1	-1E+10	1	-1E+10	1	-1E+10	1	-1E+10	1
4901784	148	C	07/24/2019	10:46	-132.239	42.953	0	610.20	0	4.3850	0	36.0420	8	28.579	0	604.470	0	26.3	4	8.5	4	-1E+10	1	-1E+10	1	-1E+10	1	-1E+10	1	-1E+10	1	-1E+10	1
4901784	148	C	07/24/2019	10:46	-132.239	42.953	0	615.10	0	4.3560	0	36.0460	8	28.585	0	609.317	0	25.9	4	8.4	4	-1E+10	1	-1E+10	1	-1E+10	1	-1E+10	1	-1E+10	1	-1E+10	1
4901784	148	C	07/24/2019	10:46	-132.239	42.953	0	619.90	0	4.3430	0	36.0490	8	28.589	0	614.065	0	25.5	4	8.2	4	-1E+10	1	-1E+10	1	-1E+10	1	-1E+10	1	-1E+10	1	-1E+10	1
4901784	148	C	07/24/2019	10:46	-132.239	42.953	0	624.70	0	4.3210	0	36.0520	8	28.594	0	618.813	0	24.9	4	8.0	4	-1E+10	1	-1E+10	1	-1E+10	1	-1E+10	1	-1E+10	1	-1E+10	1
4901784	148	C	07/24/2019	10:46	-132.239	42.953	0	630.40	0	4.3010	0	36.0570	8	28.600	0	624.450	0	24.0	4	7.8	4	-1E+10	1	-1E+10	1	-1E+10	1	-1E+10	1	-1E+10	1	-1E+10	1
4901784	148	C	07/24/2019	10:46	-132.239	42.953	0	635.10	0	4.2930	0	36.0610	8	28.604	0	629.099	0	23.1	4	7.5	4	-1E+10	1	-1E+10	1	-1E+10	1	-1E+10	1	-1E+10	1	-1E+10	1
4901784	148	C	07/24/2019	10:46	-132.239	42.953	0	639.90	0	4.2750	0	36.0680	8	28.612	0	633.846	0	22.4	4	7.2	4	-1E+10	1	-1E+10	1	-1E+10	1	-1E+10	1	-1E+10	1	-1E+10	1
4901784	148	C	07/24/2019	10:46	-132.239	42.953	0	645.50	0	4.2660	0	36.0730	8	28.617	0	639.385	0	21.6	4	7.0	4	-1E+10	1	-1E+10	1	-1E+10	1	-1E+10	1	-1E+10	1	-1E+10	1
4901784	148	C	07/24/2019	10:46	-132.239	42.953	0	650.30	0	4.2580	0	36.0770	8	28.621	0	644.132	0	21.1	4	6.8	4	-1E+10	1	-1E+10	1	-1E+10	1	-1E+10	1	-1E+10	1	-1E+10	1
4901784	148	C	07/24/2019	10:46	-132.239	42.953	0	654.90	0	4.2470	0	36.0810	8	28.625	0	648.681	0	20.5	4	6.6	4	-1E+10	1	-1E+10	1	-1E+10	1	-1E+10	1	-1E+10	1	-1E+10	1
4901784	148	C	07/24/2019	10:46	-132.239	42.953	0	659.60	0	4.2310	0	36.0860	8	28.631	0	653.329	0	20.2	4	6.5	4	-1E+10	1	-1E+10	1	-1E+10	1	-1E+10	1	-1E+10	1	-1E+10	1
4901784	148	C	07/24/2019	10:46	-132.239	42.953	0	664.40	0	4.1910	0	36.0910	8	28.639	0	658.076	0	20.3	4	6.5	4	-1E+10	1	-1E+10	1	-1E+10	1	-1E+10	1	-1E+10	1	-1E+10	1
4901784	148	C	07/24/2019	10:46	-132.239	42.953	0	670.10	0	4.1770	0	36.0920	8	28.642	0	663.712	0	20.3	4	6.5	4	-1E+10	1	-1E+10	1	-1E+10	1	-1E+10	1	-1E+10	1	-1E+10	1
4901784	148	C	07/24/2019	10:46	-132.239	42.953	0	674.90	0	4.1620	0	36.0930	8	28.644	0	668.459	0	20.1	4	6.5	4	-1E+10	1	-1E+10	1	-1E+10	1	-1E+10	1	-1E+10	1	-1E+10	1
4901784	148	C	07/24/2019	10:46	-132.239	42.953	0	679.70	0	4.1440	0	36.0950	8	28.648	0	673.205	0	19.7	4	6.3	4	-1E+10	1	-1E+10	1	-1E+10	1	-1E+10	1	-1E+10	1	-1E+10	1
4901784	148	C	07/24/2019	10:46	-132.239	42.953	0	685.60	0	4.1270	0	36.1010	8	28.655	0	679.039	0	19.1	4	6.1	4	-1E+10	1	-1E+10	1	-1E+10	1	-1E+10	1	-1E+10	1	-1E+10	1
4901784	148	C	07/24/2019	10:46	-132.239	42.953	0	690.40	0	4.1170	0	36.1060	8	28.660	0	683.786	0	18.6	4	6.0	4	-1E+10	1	-1E+10	1	-1E+10	1	-1E+10	1	-1E+10	1	-1E+10	1
4901784	148	C	07/24/2019	10:46	-132.239	42.953	0	695.10	0	4.1130	0	36.1090	8	28.663	0	688.433	0	18.2	4	5.8	4	-1E+10	1	-1E+10	1	-1E+10	1	-1E+10	1	-1E+10	1	-1E+10	1
4901784	148	C	07/24/2019	10:46	-132.239	42.953	0	700.60	0	4.0970	0	36.1120	8	28.667	0	693.871	0	17.7	4	5.7	4	-1E+10	1	-1E+10	1	-1E+10	1	-1E+10	1	-1E+10	1	-1E+10	1
4901784	148	C	07/24/2019	10:46	-132.239	42.953	0	705.50	0	4.0820	0	36.1170	8	28.672	0	698.716	0	17.3	4	5.5	4	-1E+10	1	-1E+10	1	-1E+10	1	-1E+10	1	-1E+10	1	-1E+10	1
4901784	148	C	07/24/2019	10:46	-132.239	42.953	0	710.40	0	4.0680	0	36.1210	8	28.677	0	703.560	0	17.0	4	5.5	4	-1E+10	1	-1E+10	1	-1E+10	1	-1E+10	1	-1E+10	1	-1E+10	1
4901784	148	C	07/24/2019	10:46	-132.239	42.953	0	715.30	0	4.0610	0	36.1240	8	28.680	0	708.405	0	16.8	4	5.4	4	-1E+10	1	-1E+10	1	-1E+10	1	-1E+10	1	-1E+10	1	-1E+10	1
4901784	148	C	07/24/2019	10:46	-132.239	42.953	0	720.30	0	4.0550	0	36.1250	8	28.682	0	713.348	0	16.6	4	5.3	4	-1E+10	1	-1E+10	1	-1E+10	1	-1E+10	1	-1E+10	1	-1E+10	1
4901784	148	C	07/24/2019	10:46	-132.239	42.953	0	725.20	0	4.0520	0	36.1280	8	28.684	0	718.192	0	16.3	4	5.2	4	-1E+10	1	-1E+10	1	-1E+10	1	-1E+10	1	-1E+10	1	-1E+10	1
4901784	148	C	07/24/2019	10:46	-132.239	42.953	0	730.00	0	4.0430	0	36.1300	8	28.687	0	722.938	0	16.0	4	5.1	4	-1E+10	1	-1E+10	1	-1E+10	1	-1E+10	1	-1E+10	1	-1E+10	1
4901784	148	C	07/24/2019	10:46	-132.239	42.953	0	734.80	0	4.0220	0	36.1350	8	28.693	0	727.683	0	15.6	4	5.0	4	-1E+10	1	-1E+10	1	-1E+10	1	-1E+10	1	-1E+10	1	-1E+10	1
4901784	148	C	07/24/2019	10:46	-132.239	42.953	0	739.80	0	4.0030	0	36.1390	8	28.699	0	732.626	0	15.3	4	4.9	4	-1E+10	1	-1E+10	1	-1E+10	1	-1E+10	1	-1E+10	1	-1E+10	1
4901784	148	C	07/24/2019	10:46	-132.239	42.953	0	744.70	0	3.9770	0	36.1470	8	28.708	0	737.469	0	15.0	4	4.8	4	-1E+10	1	-1E+10	1	-1E+10	1	-1E+10	1	-1E+10	1	-1E+10	1
4901784	148	C	07/24/2019	10:46	-132.239	42.953	0	749.70	0	3.9700	0	36.1500	8	28.711	0	742.412	0	14.7	4	4.7	4	-1E+10	1	-1E+10	1	-1E+10	1	-1E+10	1	-1E+10	1	-1E+10	1
4901784	148	C	07/24/2019	10:46	-132.239	42.953	0	754.70	0	3.9580	0	36.1530	8	28.715	0	747.354	0	14.4	4	4.6	4	-1E+10	1	-1E+10	1	-1E+10	1	-1E+10	1	-1E+10	1	-1E+10	1
4901784	148	C	07/24/2019	10:46	-132.239	42.953	0	759.70	0	3.9380	0	36.1580	8	28.721	0	752.297	0	14.0	4	4.5	4	-1E+10	1	-1E+10	1	-1E+10	1	-1E+10	1	-1E+10	1	-1E+10	1
4901784	148	C	07/24/2019	10:46	-132.239	42.953	0	764.80	0	3.9290	0	36.1650	8	28.727	0	757.338	0	13.6	4	4.4	4	-1E+10	1	-1E+10	1	-1E+10	1	-1E+10	1	-1E+10	1	-1E+10	1
4901784	148	C	07/24/2019	10:46	-132.239	42.953	0	769.90	0	3.9140	0	36.1700	8	28.733	0	762.379	0	13.1	4	4.2	4	-1E+10	1	-1E+10	1	-1E+10	1	-1E+10	1	-1E+10	1	-1E+10	1
4901784	148	C	07/24/2019	10:46	-132.239	42.953	0	775.00	0	3.9330	0	36.1790	8	28.738	0	767.420	0	12.6	4	4.0	4	-1E+10	1	-1E+10	1	-1E+10	1	-1E+10	1	-1E+10	1	-1E+10	1
4901784	148	C	07/24/2019	10:46	-132.239	42.953	0	780.10	0	3.9400	0	36.1850	8	28.742	0	772.460	0	12.2	4	3.9	4	-1E+10	1	-1E+10	1	-1E+10	1	-1E+10	1	-1E+10	1	-1E+10	1
4901784	148	C	07/24/2019	10:46	-132.239	42.953	0	785.20	0	3.9370	0	36.1900	8	28.747	0	777.501	0	11.8	4	3.8	4	-1E+10	1	-1E+10	1	-1E+10	1	-1E+10	1	-1E+10	1	-1E+10	1
4901784	148	C	07/24/2019	10:46	-132.239	42.953	0	790.30	0	3.9390	0	36.1960	8	28.751	0	782.541	0	11.6	4	3.7	4	-1E+10	1	-1E+10	1	-1E+10	1	-1E+10	1	-1E+10	1	-1E+10	1
4901784	148	C	07/24/2019	10:46	-132.239	42.953	0	795.40	0	3.9230	0	36.2000	8	28.756	0	787.582	0	11.5	4	3.7	4	-1E+10	1	-1E+10	1	-1E+10	1	-1E+10	1	-1E+10	1	-1E+10	1
4901784	148	C	07/24/2019	10:46	-132.239	42.953	0	800.50	0	3.8960	0	36.2040	8	28.762	0	792.622	0	11.4	4	3.7	4	-1E+10	1	-1E+10	1	-1E+10	1	-1E+10	1	-1E+10	1	-1E+10	1
4901784	148	C	07/24/2019	10:46	-132.239	42.953	0	805.70	0	3.8720	0	36.2070	8	28.767	0	797.761	0	11.4	4	3.6	4	-1E+10	1	-1E+10	1	-1E+10	1	-1E+10	1	-1E+10	1	-1E+10	1
4901784	148	C	07/24/2019	10:46	-132.239	42.953	0	809.90	0	3.8610	0	36.2090	8	28.770	0	801.911	0	11.4	4	3.6	4	-1E+10	1	-1E+10	1	-1E+10	1	-1E+10	1	-1E+10	1	-1E+10	1
4901784	148	C	07/24/2019	10:46	-132.239	42.953	0	814.30	0	3.8530	0	36.2110	8	28.773	0	806.259	0	11.3	4	3.6	4	-1E+10	1	-1E+10	1	-1E+10	1	-1E+10	1	-1E+10	1	-1E+10	1
4901784	148	C	07/24/2019	10:46	-132.239	42.953	0	819.40	0	3.8390	0	36.2120	8	28.775	0	811.299	0	11.3	4	3.6	4	-1E+10	1	-1E+10	1	-1E+10	1	-1E+10	1	-1E+10	1	-1E+10	1
4901784	148	C	07/24/2019	10:46	-132.239	42.953	0	824.70	0	3.8050	0	36.2140	8	28.780	0	816.536	0	11.3	4	3.6	4	-1E+10	1	-1E+10	1	-1E+10	1	-1E+10	1	-1E+10	1	-1E+10	1
4901784	148	C	07/24/2019	10:46	-132.239	42.953	0	829.90	0	3.7780	0	36.2190	8	28.787	0	821.675	0	11.2	4	3.6	4	-1E+10	1	-1E+10	1	-1E+10	1	-1E+10	1	-1E+10	1	-1E+10	1
4901784	148	C	07/24/2019	10:46	-132.239	42.953	0	835.20	0	3.7670	0	36.2190	8	28.788	0	826.912	0	11.2	4	3.6	4	-1E+10	1	-1E+10	1	-1E+10	1	-1E+10	1	-1E+10	1	-1E+10	1
4901784	148	C	07/24/2019	10:46	-132.239	42.953	0	840.50	0	3.7480	0	36.2200	8	28.791	0	832.148	0	11.2	4	3.6	4	-1E+10	1	-1E+10	1	-1E+10	1	-1E+10	1	-1E+10	1	-1E+10	1
4901784	148	C	07/24/2019	10:46	-132.239	42.953	0	845.00	0	3.7360	0	36.2230	8	28.795	0	836.595	0	11.1	4	3.5	4	-1E+10	1	-1E+10	1	-1E+10	1	-1E+10	1	-1E+10	1	-1E+10	1
4901784	148	C	07/24/2019	10:46	-132.239	42.953	0	849.70	0	3.7260	0	36.2260	8	28.798	0	841.239	0	11.0	4	3.5	4	-1E+10	1	-1E+10	1	-1E+10	1	-1E+10	1	-1E+10	1	-1E+10	1
4901784	148	C	07/24/2019	10:46	-132.239	42.953	0	855.20	0	3.7400	0	36.2320	8	28.801	0	846.673	0	10.8	4	3.4	4	-1E+10	1	-1E+10	1	-1E+10	1	-1E+10	1	-1E+10	1	-1E+10	1
4901784	148	C	07/24/2019	10:46	-132.239	42.953	0	859.80	0	3.7350	0	36.2340	8	28.804	0	851.217	0	10.8	4	3.4	4	-1E+10	1	-1E+10	1	-1E+10	1	-1E+10	1	-1E+10	1	-1E+10	1
4901784	148	C	07/24/2019	10:46	-132.239	42.953	0	864.40	0	3.7190	0	36.2360	8	28.807	0	855.762	0	10.7	4	3.4	4	-1E+10	1	-1E+10	1	-1E+10	1	-1E+10	1	-1E+10	1	-1E+10	1
4901784	148	C	07/24/2019	10:46	-132.239	42.953	0	869.90	0	3.7060	0	36.2390	8	28.811	0	861.196	0	10.7	4	3.4	4	-1E+10	1	-1E+10	1	-1E+10	1	-1E+10	1	-1E+10	1	-1E+10	1
4901784	148	C	07/24/2019	10:46	-132.239	42.953	0	875.50	0	3.6980	0	36.2410	8	28.813	0	866.728	0	10.6	4	3.4	4	-1E+10	1	-1E+10	1	-1E+10	1	-1E+10	1	-1E+10	1	-1E+10	1
4901784	148	C	07/24/2019	10:46	-132.239	42.953	0	880.40	0	3.6920	0	36.2440	8	28.816	0	871.569	0	10.6	4	3.4	4	-1E+10	1	-1E+10	1	-1E+10	1	-1E+10	1	-1E+10	1	-1E+10	1
4901784	148	C	07/24/2019	10:46	-132.239	42.953	0	884.90	0	3.6870	0	36.2470	8	28.819	0	876.014	0	10.5	4	3.4	4	-1E+10	1	-1E+10	1	-1E+10	1	-1E+10	1	-1E+10	1	-1E+10	1
4901784	148	C	07/24/2019	10:46	-132.239	42.953	0	889.70	0	3.6820	0	36.2500	8	28.822	0	880.756	0	10.5	4	3.3	4	-1E+10	1	-1E+10	1	-1E+10	1	-1E+10	1	-1E+10	1	-1E+10	1
4901784	148	C	07/24/2019	10:46	-132.239	42.953	0	894.70	0	3.6780	0	36.2520	8	28.824	0	885.695	0	10.4	4	3.3	4	-1E+10	1	-1E+10	1	-1E+10	1	-1E+10	1	-1E+10	1	-1E+10	1
4901784	148	C	07/24/2019	10:46	-132.239	42.953	0	899.60	0	3.6740	0	36.2570	8	28.829	0	890.535	0	10.4	4	3.3	4	-1E+10	1	-1E+10	1	-1E+10	1	-1E+10	1	-1E+10	1	-1E+10	1
4901784	148	C	07/24/2019	10:46	-132.239	42.953	0	904.50	0	3.6670	0	36.2570	8	28.829	0	895.376	0	10.3	4	3.3	4	-1E+10	1	-1E+10	1	-1E+10	1	-1E+10	1	-1E+10	1	-1E+10	1
4901784	148	C	07/24/2019	10:46	-132.239	42.953	0	909.60	0	3.6210	0	36.2600	8	28.836	0	900.413	0	10.3	4	3.3	4	-1E+10	1	-1E+10	1	-1E+10	1	-1E+10	1	-1E+10	1	-1E+10	1
4901784	148	C	07/24/2019	10:46	-132.239	42.953	0	914.60	0	3.6300	0	36.2630	8	28.838	0	905.352	0	10.3	4	3.3	4	-1E+10	1	-1E+10	1	-1E+10	1	-1E+10	1	-1E+10	1	-1E+10	1
4901784	148	C	07/24/2019	10:46	-132.239	42.953	0	919.60	0	3.6090	0	36.2670	8	28.843	0	910.290	0	10.2	4	3.2	4	-1E+10	1	-1E+10	1	-1E+10	1	-1E+10	1	-1E+10	1	-1E+10	1
4901784	148	C	07/24/2019	10:46	-132.239	42.953	0	924.50	0	3.5970	0	36.2700	8	28.847	0	915.130	0	10.2	4	3.2	4	-1E+10	1	-1E+10	1	-1E+10	1	-1E+10	1	-1E+10	1	-1E+10	1
4901784	148	C	07/24/2019	10:46	-132.239	42.953	0	929.50	0	3.5870	0	36.2730	8	28.850	0	920.068	0	10.2	4	3.2	4	-1E+10	1	-1E+10	1	-1E+10	1	-1E+10	1	-1E+10	1	-1E+10	1
4901784	148	C	07/24/2019	10:46	-132.239	42.953	0	934.50	0	3.5730	0	36.2770	8	28.855	0	925.007	0	10.2	4	3.2	4	-1E+10	1	-1E+10	1	-1E+10	1	-1E+10	1	-1E+10	1	-1E+10	1
4901784	148	C	07/24/2019	10:46	-132.239	42.953	0	939.40	0	3.5580	0	36.2820	8	28.861	0	929.846	0	10.2	4	3.2	4	-1E+10	1	-1E+10	1	-1E+10	1	-1E+10	1	-1E+10	1	-1E+10	1
4901784	148	C	07/24/2019	10:46	-132.239	42.953	0	944.50	0	3.5520	0	36.2840	8	28.863	0	934.883	0	10.2	4	3.2	4	-1E+10	1	-1E+10	1	-1E+10	1	-1E+10	1	-1E+10	1	-1E+10	1
4901784	148	C	07/24/2019	10:46	-132.239	42.953	0	949.50	0	3.5400	0	36.2860	8	28.866	0	939.821	0	10.2	4	3.2	4	-1E+10	1	-1E+10	1	-1E+10	1	-1E+10	1	-1E+10	1	-1E+10	1
4901784	148	C	07/24/2019	10:46	-132.239	42.953	0	954.60	0	3.5250	0	36.2880	8	28.869	0	944.857	0	10.2	4	3.2	4	-1E+10	1	-1E+10	1	-1E+10	1	-1E+10	1	-1E+10	1	-1E+10	1
4901784	148	C	07/24/2019	10:46	-132.239	42.953	0	959.80	0	3.5130	0	36.2910	8	28.873	0	949.992	0	10.2	4	3.2	4	-1E+10	1	-1E+10	1	-1E+10	1	-1E+10	1	-1E+10	1	-1E+10	1
4901784	148	C	07/24/2019	10:46	-132.239	42.953	0	964.90	0	3.4980	0	36.2940	8	28.877	0	955.029	0	10.2	4	3.2	4	-1E+10	1	-1E+10	1	-1E+10	1	-1E+10	1	-1E+10	1	-1E+10	1
4901784	148	C	07/24/2019	10:46	-132.239	42.953	0	969.90	0	3.4800	0	36.2940	8	28.878	0	959.966	0	10.2	4	3.2	4	-1E+10	1	-1E+10	1	-1E+10	1	-1E+10	1	-1E+10	1	-1E+10	1
4901784	148	C	07/24/2019	10:46	-132.239	42.953	0	975.10	0	3.4720	0	36.2980	8	28.882	0	965.101	0	10.2	4	3.2	4	-1E+10	1	-1E+10	1	-1E+10	1	-1E+10	1	-1E+10	1	-1E+10	1
4901784	148	C	07/24/2019	10:46	-132.239	42.953	0	980.30	0	3.4680	0	36.3010	8	28.885	0	970.235	0	10.3	4	3.3	4	-1E+10	1	-1E+10	1	-1E+10	1	-1E+10	1	-1E+10	1	-1E+10	1
4901784	148	C	07/24/2019	10:46	-132.239	42.953	0	985.40	0	3.4500	0	36.3030	8	28.889	0	975.271	0	10.3	4	3.3	4	-1E+10	1	-1E+10	1	-1E+10	1	-1E+10	1	-1E+10	1	-1E+10	1
4901784	148	C	07/24/2019	10:46	-132.239	42.953	0	990.60	0	3.4380	0	36.3050	8	28.892	0	980.406	0	10.3	4	3.3	4	-1E+10	1	-1E+10	1	-1E+10	1	-1E+10	1	-1E+10	1	-1E+10	1
4901784	148	C	07/24/2019	10:46	-132.239	42.953	0	995.00	0	3.4280	0	36.3070	8	28.894	0	984.750	0	10.4	4	3.3	4	-1E+10	1	-1E+10	1	-1E+10	1	-1E+10	1	-1E+10	1	-1E+10	1
4901784	148	C	07/24/2019	10:46	-132.239	42.953	0	999.40	0	3.4230	0	36.3090	8	28.896	0	989.094	0	10.4	4	3.3	4	-1E+10	1	-1E+10	1	-1E+10	1	-1E+10	1	-1E+10	1	-1E+10	1
4901784	148	C	07/24/2019	10:46	-132.239	42.953	0	1004.70	0	3.4070	0	36.3120	8	28.900	0	994.327	0	10.6	4	3.3	4	-1E+10	1	-1E+10	1	-1E+10	1	-1E+10	1	-1E+10	1	-1E+10	1
4901784	148	C	07/24/2019	10:46	-132.239	42.953	0	1010.00	0	3.4080	0	36.3170	8	28.904	0	999.560	0	10.8	4	3.4	4	-1E+10	1	-1E+10	1	-1E+10	1	-1E+10	1	-1E+10	1	-1E+10	1
4901784	148	C	07/24/2019	10:46	-132.239	42.953	0	1015.40	0	3.4110	0	36.3200	8	28.906	0	1004.891	0	10.8	4	3.4	4	-1E+10	1	-1E+10	1	-1E+10	1	-1E+10	1	-1E+10	1	-1E+10	1
4901784	148	C	07/24/2019	10:46	-132.239	42.953	0	1019.80	0	3.4040	0	36.3210	8	28.908	0	1009.235	0	10.9	4	3.4	4	-1E+10	1	-1E+10	1	-1E+10	1	-1E+10	1	-1E+10	1	-1E+10	1
4901784	148	C	07/24/2019	10:46	-132.239	42.953	0	1024.40	0	3.3910	0	36.3250	8	28.912	0	1013.776	0	11.0	4	3.5	4	-1E+10	1	-1E+10	1	-1E+10	1	-1E+10	1	-1E+10	1	-1E+10	1
4901784	148	C	07/24/2019	10:46	-132.239	42.953	0	1029.80	0	3.3770	0	36.3270	8	28.916	0	1019.107	0	11.1	4	3.5	4	-1E+10	1	-1E+10	1	-1E+10	1	-1E+10	1	-1E+10	1	-1E+10	1
4901784	148	C	07/24/2019	10:46	-132.239	42.953	0	1035.30	0	3.3650	0	36.3290	8	28.918	0	1024.536	0	11.2	4	3.5	4	-1E+10	1	-1E+10	1	-1E+10	1	-1E+10	1	-1E+10	1	-1E+10	1
4901784	148	C	07/24/2019	10:46	-132.239	42.953	0	1039.90	0	3.3490	0	36.3320	8	28.922	0	1029.077	0	11.3	4	3.6	4	-1E+10	1	-1E+10	1	-1E+10	1	-1E+10	1	-1E+10	1	-1E+10	1
4901784	148	C	07/24/2019	10:46	-132.239	42.953	0	1044.50	0	3.3370	0	36.3340	8	28.925	0	1033.618	0	11.3	4	3.6	4	-1E+10	1	-1E+10	1	-1E+10	1	-1E+10	1	-1E+10	1	-1E+10	1
4901784	148	C	07/24/2019	10:46	-132.239	42.953	0	1050.00	0	3.3290	0	36.3360	8	28.928	0	1039.047	0	11.4	4	3.6	4	-1E+10	1	-1E+10	1	-1E+10	1	-1E+10	1	-1E+10	1	-1E+10	1
4901784	148	C	07/24/2019	10:46	-132.239	42.953	0	1055.20	0	3.3200	0	36.3380	8	28.930	0	1044.180	0	11.4	4	3.6	4	-1E+10	1	-1E+10	1	-1E+10	1	-1E+10	1	-1E+10	1	-1E+10	1
4901784	148	C	07/24/2019	10:46	-132.239	42.953	0	1059.40	0	3.3110	0	36.3390	8	28.932	0	1048.326	0	11.5	4	3.6	4	-1E+10	1	-1E+10	1	-1E+10	1	-1E+10	1	-1E+10	1	-1E+10	1
4901784	148	C	07/24/2019	10:46	-132.239	42.953	0	1065.10	0	3.3000	0	36.3410	8	28.935	0	1053.952	0	11.6	4	3.7	4	-1E+10	1	-1E+10	1	-1E+10	1	-1E+10	1	-1E+10	1	-1E+10	1
4901784	148	C	07/24/2019	10:46	-132.239	42.953	0	1070.70	0	3.2870	0	36.3420	8	28.937	0	1059.479	0	11.6	4	3.7	4	-1E+10	1	-1E+10	1	-1E+10	1	-1E+10	1	-1E+10	1	-1E+10	1
4901784	148	C	07/24/2019	10:46	-132.239	42.953	0	1075.60	0	3.2860	0	36.3440	8	28.938	0	1064.315	0	11.7	4	3.7	4	-1E+10	1	-1E+10	1	-1E+10	1	-1E+10	1	-1E+10	1	-1E+10	1
4901784	148	C	07/24/2019	10:46	-132.239	42.953	0	1080.60	0	3.2770	0	36.3460	8	28.941	0	1069.250	0	11.8	4	3.7	4	-1E+10	1	-1E+10	1	-1E+10	1	-1E+10	1	-1E+10	1	-1E+10	1
4901784	148	C	07/24/2019	10:46	-132.239	42.953	0	1085.60	0	3.2630	0	36.3490	8	28.945	0	1074.185	0	11.9	4	3.8	4	-1E+10	1	-1E+10	1	-1E+10	1	-1E+10	1	-1E+10	1	-1E+10	1
4901784	148	C	07/24/2019	10:46	-132.239	42.953	0	1090.60	0	3.2540	0	36.3490	8	28.946	0	1079.119	0	12.0	4	3.8	4	-1E+10	1	-1E+10	1	-1E+10	1	-1E+10	1	-1E+10	1	-1E+10	1
4901784	148	C	07/24/2019	10:46	-132.239	42.953	0	1095.60	0	3.2420	0	36.3520	8	28.949	0	1084.054	0	12.1	4	3.8	4	-1E+10	1	-1E+10	1	-1E+10	1	-1E+10	1	-1E+10	1	-1E+10	1
4901784	148	C	07/24/2019	10:46	-132.239	42.953	0	1100.70	0	3.2310	0	36.3540	8	28.952	0	1089.087	0	12.2	4	3.9	4	-1E+10	1	-1E+10	1	-1E+10	1	-1E+10	1	-1E+10	1	-1E+10	1
4901784	148	C	07/24/2019	10:46	-132.239	42.953	0	1105.00	0	3.2220	0	36.3570	8	28.955	0	1093.330	0	12.3	4	3.9	4	-1E+10	1	-1E+10	1	-1E+10	1	-1E+10	1	-1E+10	1	-1E+10	1
4901784	148	C	07/24/2019	10:46	-132.239	42.953	0	1109.30	0	3.2170	0	36.3570	8	28.956	0	1097.574	0	12.4	4	3.9	4	-1E+10	1	-1E+10	1	-1E+10	1	-1E+10	1	-1E+10	1	-1E+10	1
4901784	148	C	07/24/2019	10:46	-132.239	42.953	0	1114.40	0	3.2060	0	36.3590	8	28.959	0	1102.606	0	12.5	4	3.9	4	-1E+10	1	-1E+10	1	-1E+10	1	-1E+10	1	-1E+10	1	-1E+10	1
4901784	148	C	07/24/2019	10:46	-132.239	42.953	0	1119.60	0	3.1940	0	36.3610	8	28.961	0	1107.737	0	12.6	4	4.0	4	-1E+10	1	-1E+10	1	-1E+10	1	-1E+10	1	-1E+10	1	-1E+10	1
4901784	148	C	07/24/2019	10:46	-132.239	42.953	0	1124.80	0	3.1830	0	36.3630	8	28.964	0	1112.869	0	12.8	4	4.0	4	-1E+10	1	-1E+10	1	-1E+10	1	-1E+10	1	-1E+10	1	-1E+10	1
4901784	148	C	07/24/2019	10:46	-132.239	42.953	0	1130.00	0	3.1710	0	36.3650	8	28.967	0	1118.000	0	12.9	4	4.1	4	-1E+10	1	-1E+10	1	-1E+10	1	-1E+10	1	-1E+10	1	-1E+10	1
4901784	148	C	07/24/2019	10:46	-132.239	42.953	0	1135.30	0	3.1560	0	36.3670	8	28.970	0	1123.229	0	13.1	4	4.1	4	-1E+10	1	-1E+10	1	-1E+10	1	-1E+10	1	-1E+10	1	-1E+10	1
4901784	148	C	07/24/2019	10:46	-132.239	42.953	0	1140.60	0	3.1440	0	36.3690	8	28.973	0	1128.459	0	13.3	4	4.2	4	-1E+10	1	-1E+10	1	-1E+10	1	-1E+10	1	-1E+10	1	-1E+10	1
4901784	148	C	07/24/2019	10:46	-132.239	42.953	0	1145.10	0	3.1370	0	36.3710	8	28.975	0	1132.899	0	13.5	4	4.2	4	-1E+10	1	-1E+10	1	-1E+10	1	-1E+10	1	-1E+10	1	-1E+10	1
4901784	148	C	07/24/2019	10:46	-132.239	42.953	0	1149.60	0	3.1230	0	36.3730	8	28.978	0	1137.338	0	13.6	4	4.3	4	-1E+10	1	-1E+10	1	-1E+10	1	-1E+10	1	-1E+10	1	-1E+10	1
4901784	148	C	07/24/2019	10:46	-132.239	42.953	0	1155.10	0	3.1120	0	36.3760	8	28.982	0	1142.765	0	13.7	4	4.3	4	-1E+10	1	-1E+10	1	-1E+10	1	-1E+10	1	-1E+10	1	-1E+10	1
4901784	148	C	07/24/2019	10:46	-132.239	42.953	0	1159.80	0	3.1060	0	36.3770	8	28.983	0	1147.402	0	13.8	4	4.3	4	-1E+10	1	-1E+10	1	-1E+10	1	-1E+10	1	-1E+10	1	-1E+10	1
4901784	148	C	07/24/2019	10:46	-132.239	42.953	0	1164.90	0	3.1020	0	36.3770	8	28.983	0	1152.433	0	13.9	4	4.4	4	-1E+10	1	-1E+10	1	-1E+10	1	-1E+10	1	-1E+10	1	-1E+10	1
4901784	148	C	07/24/2019	10:46	-132.239	42.953	0	1170.40	0	3.0850	0	36.3780	8	28.986	0	1157.859	0	14.0	4	4.4	4	-1E+10	1	-1E+10	1	-1E+10	1	-1E+10	1	-1E+10	1	-1E+10	1
4901784	148	C	07/24/2019	10:46	-132.239	42.953	0	1175.20	0	3.0680	0	36.3810	8	28.990	0	1162.595	0	14.2	4	4.5	4	-1E+10	1	-1E+10	1	-1E+10	1	-1E+10	1	-1E+10	1	-1E+10	1
4901784	148	C	07/24/2019	10:46	-132.239	42.953	0	1180.00	0	3.0600	0	36.3820	8	28.992	0	1167.330	0	14.4	4	4.5	4	-1E+10	1	-1E+10	1	-1E+10	1	-1E+10	1	-1E+10	1	-1E+10	1
4901784	148	C	07/24/2019	10:46	-132.239	42.953	0	1184.90	0	3.0410	0	36.3850	8	28.996	0	1172.164	0	14.6	4	4.6	4	-1E+10	1	-1E+10	1	-1E+10	1	-1E+10	1	-1E+10	1	-1E+10	1
4901784	148	C	07/24/2019	10:46	-132.239	42.953	0	1189.80	0	3.0240	0	36.3870	8	28.999	0	1176.997	0	14.7	4	4.6	4	-1E+10	1	-1E+10	1	-1E+10	1	-1E+10	1	-1E+10	1	-1E+10	1
4901784	148	C	07/24/2019	10:46	-132.239	42.953	0	1194.70	0	3.0120	0	36.3890	8	29.002	0	1181.831	0	14.9	4	4.7	4	-1E+10	1	-1E+10	1	-1E+10	1	-1E+10	1	-1E+10	1	-1E+10	1
4901784	148	C	07/24/2019	10:46	-132.239	42.953	0	1199.70	0	3.0000	0	36.3910	8	29.005	0	1186.763	0	15.1	4	4.7	4	-1E+10	1	-1E+10	1	-1E+10	1	-1E+10	1	-1E+10	1	-1E+10	1
4901784	148	C	07/24/2019	10:46	-132.239	42.953	0	1204.80	0	2.9880	0	36.3930	8	29.007	0	1191.793	0	15.3	4	4.8	4	-1E+10	1	-1E+10	1	-1E+10	1	-1E+10	1	-1E+10	1	-1E+10	1
4901784	148	C	07/24/2019	10:46	-132.239	42.953	0	1209.90	0	2.9750	0	36.3950	8	29.010	0	1196.824	0	15.5	4	4.9	4	-1E+10	1	-1E+10	1	-1E+10	1	-1E+10	1	-1E+10	1	-1E+10	1
4901784	148	C	07/24/2019	10:46	-132.239	42.953	0	1215.10	0	2.9660	0	36.3960	8	29.012	0	1201.953	0	15.7	4	4.9	4	-1E+10	1	-1E+10	1	-1E+10	1	-1E+10	1	-1E+10	1	-1E+10	1
4901784	148	C	07/24/2019	10:46	-132.239	42.953	0	1220.30	0	2.9550	0	36.3980	8	29.015	0	1207.082	0	15.9	4	5.0	4	-1E+10	1	-1E+10	1	-1E+10	1	-1E+10	1	-1E+10	1	-1E+10	1
4901784	148	C	07/24/2019	10:46	-132.239	42.953	0	1225.60	0	2.9460	0	36.3990	8	29.016	0	1212.309	0	16.0	4	5.0	4	-1E+10	1	-1E+10	1	-1E+10	1	-1E+10	1	-1E+10	1	-1E+10	1
4901784	148	C	07/24/2019	10:46	-132.239	42.953	0	1229.90	0	2.9400	0	36.4000	8	29.018	0	1216.550	0	16.2	4	5.1	4	-1E+10	1	-1E+10	1	-1E+10	1	-1E+10	1	-1E+10	1	-1E+10	1
4901784	148	C	07/24/2019	10:46	-132.239	42.953	0	1234.30	0	2.9310	0	36.4020	8	29.020	0	1220.889	0	16.4	4	5.1	4	-1E+10	1	-1E+10	1	-1E+10	1	-1E+10	1	-1E+10	1	-1E+10	1
4901784	148	C	07/24/2019	10:46	-132.239	42.953	0	1239.60	0	2.9220	0	36.4030	8	29.022	0	1226.116	0	16.6	4	5.2	4	-1E+10	1	-1E+10	1	-1E+10	1	-1E+10	1	-1E+10	1	-1E+10	1
4901784	148	C	07/24/2019	10:46	-132.239	42.953	0	1245.00	0	2.9120	0	36.4040	8	29.024	0	1231.442	0	16.7	4	5.2	4	-1E+10	1	-1E+10	1	-1E+10	1	-1E+10	1	-1E+10	1	-1E+10	1
4901784	148	C	07/24/2019	10:46	-132.239	42.953	0	1250.30	0	2.9030	0	36.4050	8	29.025	0	1236.668	0	16.9	4	5.3	4	-1E+10	1	-1E+10	1	-1E+10	1	-1E+10	1	-1E+10	1	-1E+10	1
4901784	148	C	07/24/2019	10:46	-132.239	42.953	0	1254.80	0	2.8930	0	36.4070	8	29.028	0	1241.106	0	17.0	4	5.3	4	-1E+10	1	-1E+10	1	-1E+10	1	-1E+10	1	-1E+10	1	-1E+10	1
4901784	148	C	07/24/2019	10:46	-132.239	42.953	0	1259.40	0	2.8830	0	36.4080	8	29.030	0	1245.642	0	17.1	4	5.4	4	-1E+10	1	-1E+10	1	-1E+10	1	-1E+10	1	-1E+10	1	-1E+10	1
4901784	148	C	07/24/2019	10:46	-132.239	42.953	0	1264.90	0	2.8750	0	36.4090	8	29.031	0	1251.066	0	17.3	4	5.4	4	-1E+10	1	-1E+10	1	-1E+10	1	-1E+10	1	-1E+10	1	-1E+10	1
4901784	148	C	07/24/2019	10:46	-132.239	42.953	0	1270.50	0	2.8640	0	36.4110	8	29.034	0	1256.588	0	17.5	4	5.5	4	-1E+10	1	-1E+10	1	-1E+10	1	-1E+10	1	-1E+10	1	-1E+10	1
4901784	148	C	07/24/2019	10:46	-132.239	42.953	0	1275.10	0	2.8580	0	36.4110	8	29.035	0	1261.124	0	17.7	4	5.5	4	-1E+10	1	-1E+10	1	-1E+10	1	-1E+10	1	-1E+10	1	-1E+10	1
4901784	148	C	07/24/2019	10:46	-132.239	42.953	0	1279.90	0	2.8480	0	36.4130	8	29.037	0	1265.857	0	18.0	4	5.6	4	-1E+10	1	-1E+10	1	-1E+10	1	-1E+10	1	-1E+10	1	-1E+10	1
4901784	148	C	07/24/2019	10:46	-132.239	42.953	0	1285.50	0	2.8350	0	36.4150	8	29.040	0	1271.378	0	18.2	4	5.7	4	-1E+10	1	-1E+10	1	-1E+10	1	-1E+10	1	-1E+10	1	-1E+10	1
4901784	148	C	07/24/2019	10:46	-132.239	42.953	0	1290.20	0	2.8270	0	36.4160	8	29.041	0	1276.012	0	18.4	4	5.8	4	-1E+10	1	-1E+10	1	-1E+10	1	-1E+10	1	-1E+10	1	-1E+10	1
4901784	148	C	07/24/2019	10:46	-132.239	42.953	0	1294.80	0	2.8170	0	36.4180	8	29.044	0	1280.548	0	18.6	4	5.8	4	-1E+10	1	-1E+10	1	-1E+10	1	-1E+10	1	-1E+10	1	-1E+10	1
4901784	148	C	07/24/2019	10:46	-132.239	42.953	0	1300.40	0	2.8120	0	36.4180	8	29.045	0	1286.069	0	18.8	4	5.9	4	-1E+10	1	-1E+10	1	-1E+10	1	-1E+10	1	-1E+10	1	-1E+10	1
4901784	148	C	07/24/2019	10:46	-132.239	42.953	0	1305.20	0	2.8050	0	36.4200	8	29.047	0	1290.802	0	19.0	4	5.9	4	-1E+10	1	-1E+10	1	-1E+10	1	-1E+10	1	-1E+10	1	-1E+10	1
4901784	148	C	07/24/2019	10:46	-132.239	42.953	0	1309.90	0	2.7980	0	36.4210	8	29.048	0	1295.435	0	19.1	4	6.0	4	-1E+10	1	-1E+10	1	-1E+10	1	-1E+10	1	-1E+10	1	-1E+10	1
4901784	148	C	07/24/2019	10:46	-132.239	42.953	0	1314.60	0	2.7950	0	36.4210	8	29.049	0	1300.069	0	19.3	4	6.0	4	-1E+10	1	-1E+10	1	-1E+10	1	-1E+10	1	-1E+10	1	-1E+10	1
4901784	148	C	07/24/2019	10:46	-132.239	42.953	0	1319.20	0	2.7860	0	36.4230	8	29.051	0	1304.604	0	19.4	4	6.1	4	-1E+10	1	-1E+10	1	-1E+10	1	-1E+10	1	-1E+10	1	-1E+10	1
4901784	148	C	07/24/2019	10:46	-132.239	42.953	0	1324.50	0	2.7810	0	36.4230	8	29.052	0	1309.829	0	19.6	4	6.1	4	-1E+10	1	-1E+10	1	-1E+10	1	-1E+10	1	-1E+10	1	-1E+10	1
4901784	148	C	07/24/2019	10:46	-132.239	42.953	0	1329.40	0	2.7760	0	36.4240	8	29.053	0	1314.659	0	19.7	4	6.1	4	-1E+10	1	-1E+10	1	-1E+10	1	-1E+10	1	-1E+10	1	-1E+10	1
4901784	148	C	07/24/2019	10:46	-132.239	42.953	0	1334.40	0	2.7700	0	36.4250	8	29.054	0	1319.588	0	19.9	4	6.2	4	-1E+10	1	-1E+10	1	-1E+10	1	-1E+10	1	-1E+10	1	-1E+10	1
4901784	148	C	07/24/2019	10:46	-132.239	42.953	0	1339.30	0	2.7660	0	36.4250	8	29.055	0	1324.418	0	20.0	4	6.2	4	-1E+10	1	-1E+10	1	-1E+10	1	-1E+10	1	-1E+10	1	-1E+10	1
4901784	148	C	07/24/2019	10:46	-132.239	42.953	0	1345.00	0	2.7570	0	36.4270	8	29.057	0	1330.037	0	20.2	4	6.3	4	-1E+10	1	-1E+10	1	-1E+10	1	-1E+10	1	-1E+10	1	-1E+10	1
4901784	148	C	07/24/2019	10:46	-132.239	42.953	0	1350.60	0	2.7520	0	36.4280	8	29.058	0	1335.557	0	20.3	4	6.3	4	-1E+10	1	-1E+10	1	-1E+10	1	-1E+10	1	-1E+10	1	-1E+10	1
4901784	148	C	07/24/2019	10:46	-132.239	42.953	0	1355.00	0	2.7470	0	36.4280	8	29.059	0	1339.894	0	20.5	4	6.4	4	-1E+10	1	-1E+10	1	-1E+10	1	-1E+10	1	-1E+10	1	-1E+10	1
4901784	148	C	07/24/2019	10:46	-132.239	42.953	0	1359.50	0	2.7420	0	36.4290	8	29.060	0	1344.329	0	20.7	4	6.4	4	-1E+10	1	-1E+10	1	-1E+10	1	-1E+10	1	-1E+10	1	-1E+10	1
4901784	148	C	07/24/2019	10:46	-132.239	42.953	0	1365.00	0	2.7340	0	36.4300	8	29.062	0	1349.751	0	21.0	4	6.5	4	-1E+10	1	-1E+10	1	-1E+10	1	-1E+10	1	-1E+10	1	-1E+10	1
4901784	148	C	07/24/2019	10:46	-132.239	42.953	0	1370.40	0	2.7230	0	36.4310	8	29.064	0	1355.073	0	21.2	4	6.6	4	-1E+10	1	-1E+10	1	-1E+10	1	-1E+10	1	-1E+10	1	-1E+10	1
4901784	148	C	07/24/2019	10:46	-132.239	42.953	0	1375.00	0	2.7170	0	36.4320	8	29.065	0	1359.607	0	21.5	4	6.7	4	-1E+10	1	-1E+10	1	-1E+10	1	-1E+10	1	-1E+10	1	-1E+10	1
4901784	148	C	07/24/2019	10:46	-132.239	42.953	0	1379.50	0	2.7050	0	36.4340	8	29.068	0	1364.042	0	21.8	4	6.8	4	-1E+10	1	-1E+10	1	-1E+10	1	-1E+10	1	-1E+10	1	-1E+10	1
4901784	148	C	07/24/2019	10:46	-132.239	42.953	0	1385.10	0	2.6940	0	36.4360	8	29.070	0	1369.561	0	22.0	4	6.9	4	-1E+10	1	-1E+10	1	-1E+10	1	-1E+10	1	-1E+10	1	-1E+10	1
4901784	148	C	07/24/2019	10:46	-132.239	42.953	0	1390.60	0	2.6900	0	36.4360	8	29.071	0	1374.981	0	22.2	4	6.9	4	-1E+10	1	-1E+10	1	-1E+10	1	-1E+10	1	-1E+10	1	-1E+10	1
4901784	148	C	07/24/2019	10:46	-132.239	42.953	0	1395.20	0	2.6860	0	36.4370	8	29.072	0	1379.514	0	22.4	4	7.0	4	-1E+10	1	-1E+10	1	-1E+10	1	-1E+10	1	-1E+10	1	-1E+10	1
4901784	148	C	07/24/2019	10:46	-132.239	42.953	0	1399.70	0	2.6780	0	36.4380	8	29.074	0	1383.949	0	22.7	4	7.1	4	-1E+10	1	-1E+10	1	-1E+10	1	-1E+10	1	-1E+10	1	-1E+10	1
4901784	148	C	07/24/2019	10:46	-132.239	42.953	0	1405.30	0	2.6660	0	36.4390	8	29.076	0	1389.468	0	23.0	4	7.1	4	-1E+10	1	-1E+10	1	-1E+10	1	-1E+10	1	-1E+10	1	-1E+10	1
4901784	148	C	07/24/2019	10:46	-132.239	42.953	0	1409.90	0	2.6590	0	36.4400	8	29.077	0	1394.001	0	23.2	4	7.2	4	-1E+10	1	-1E+10	1	-1E+10	1	-1E+10	1	-1E+10	1	-1E+10	1
4901784	148	C	07/24/2019	10:46	-132.239	42.953	0	1414.50	0	2.6500	0	36.4420	8	29.079	0	1398.533	0	23.6	4	7.3	4	-1E+10	1	-1E+10	1	-1E+10	1	-1E+10	1	-1E+10	1	-1E+10	1
4901784	148	C	07/24/2019	10:46	-132.239	42.953	0	1419.90	0	2.6340	0	36.4440	8	29.083	0	1403.855	0	24.0	4	7.5	4	-1E+10	1	-1E+10	1	-1E+10	1	-1E+10	1	-1E+10	1	-1E+10	1
4901784	148	C	07/24/2019	10:46	-132.239	42.953	0	1425.40	0	2.6230	0	36.4450	8	29.084	0	1409.274	0	24.3	4	7.5	4	-1E+10	1	-1E+10	1	-1E+10	1	-1E+10	1	-1E+10	1	-1E+10	1
4901784	148	C	07/24/2019	10:46	-132.239	42.953	0	1430.00	0	2.6150	0	36.4460	8	29.086	0	1413.807	0	24.7	4	7.7	4	-1E+10	1	-1E+10	1	-1E+10	1	-1E+10	1	-1E+10	1	-1E+10	1
4901784	148	C	07/24/2019	10:46	-132.239	42.953	0	1434.60	0	2.6040	0	36.4480	8	29.089	0	1418.339	0	24.9	4	7.7	4	-1E+10	1	-1E+10	1	-1E+10	1	-1E+10	1	-1E+10	1	-1E+10	1
4901784	148	C	07/24/2019	10:46	-132.239	42.953	0	1440.10	0	2.5920	0	36.4490	8	29.090	0	1423.758	0	25.2	4	7.8	4	-1E+10	1	-1E+10	1	-1E+10	1	-1E+10	1	-1E+10	1	-1E+10	1
4901784	148	C	07/24/2019	10:46	-132.239	42.953	0	1444.70	0	2.5840	0	36.4510	8	29.093	0	1428.290	0	25.4	4	7.9	4	-1E+10	1	-1E+10	1	-1E+10	1	-1E+10	1	-1E+10	1	-1E+10	1
4901784	148	C	07/24/2019	10:46	-132.239	42.953	0	1449.40	0	2.5780	0	36.4510	8	29.093	0	1432.921	0	25.6	4	7.9	4	-1E+10	1	-1E+10	1	-1E+10	1	-1E+10	1	-1E+10	1	-1E+10	1
4901784	148	C	07/24/2019	10:46	-132.239	42.953	0	1454.90	0	2.5680	0	36.4520	8	29.095	0	1438.340	0	26.0	4	8.1	4	-1E+10	1	-1E+10	1	-1E+10	1	-1E+10	1	-1E+10	1	-1E+10	1
4901784	148	C	07/24/2019	10:46	-132.239	42.953	0	1460.60	0	2.5560	0	36.4530	8	29.097	0	1443.956	0	26.4	4	8.2	4	-1E+10	1	-1E+10	1	-1E+10	1	-1E+10	1	-1E+10	1	-1E+10	1
4901784	148	C	07/24/2019	10:46	-132.239	42.953	0	1465.20	0	2.5470	0	36.4550	8	29.099	0	1448.487	0	26.7	4	8.3	4	-1E+10	1	-1E+10	1	-1E+10	1	-1E+10	1	-1E+10	1	-1E+10	1
4901784	148	C	07/24/2019	10:46	-132.239	42.953	0	1469.90	0	2.5370	0	36.4560	8	29.101	0	1453.118	0	27.0	4	8.4	4	-1E+10	1	-1E+10	1	-1E+10	1	-1E+10	1	-1E+10	1	-1E+10	1
4901784	148	C	07/24/2019	10:46	-132.239	42.953	0	1475.50	0	2.5270	0	36.4570	8	29.103	0	1458.634	0	27.3	4	8.5	4	-1E+10	1	-1E+10	1	-1E+10	1	-1E+10	1	-1E+10	1	-1E+10	1
4901784	148	C	07/24/2019	10:46	-132.239	42.953	0	1480.20	0	2.5180	0	36.4590	8	29.105	0	1463.264	0	27.6	4	8.6	4	-1E+10	1	-1E+10	1	-1E+10	1	-1E+10	1	-1E+10	1	-1E+10	1
4901784	148	C	07/24/2019	10:46	-132.239	42.953	0	1484.60	0	2.5080	0	36.4600	8	29.107	0	1467.599	0	27.9	4	8.6	4	-1E+10	1	-1E+10	1	-1E+10	1	-1E+10	1	-1E+10	1	-1E+10	1
4901784	148	C	07/24/2019	10:46	-132.239	42.953	0	1489.90	0	2.4970	0	36.4610	8	29.109	0	1472.820	0	28.1	4	8.7	4	-1E+10	1	-1E+10	1	-1E+10	1	-1E+10	1	-1E+10	1	-1E+10	1
4901784	148	C	07/24/2019	10:46	-132.239	42.953	0	1495.10	0	2.4880	0	36.4620	8	29.111	0	1477.942	0	28.4	4	8.8	4	-1E+10	1	-1E+10	1	-1E+10	1	-1E+10	1	-1E+10	1	-1E+10	1
4901784	148	C	07/24/2019	10:46	-132.239	42.953	0	1500.40	0	2.4790	0	36.4630	8	29.112	0	1483.162	0	28.9	4	8.9	4	-1E+10	1	-1E+10	1	-1E+10	1	-1E+10	1	-1E+10	1	-1E+10	1
4901784	148	C	07/24/2019	10:46	-132.239	42.953	0	1505.70	0	2.4650	0	36.4650	8	29.115	0	1488.383	0	29.3	4	9.1	4	-1E+10	1	-1E+10	1	-1E+10	1	-1E+10	1	-1E+10	1	-1E+10	1
4901784	148	C	07/24/2019	10:46	-132.239	42.953	0	1510.10	0	2.4580	0	36.4660	8	29.116	0	1492.717	0	29.6	4	9.2	4	-1E+10	1	-1E+10	1	-1E+10	1	-1E+10	1	-1E+10	1	-1E+10	1
4901784	148	C	07/24/2019	10:46	-132.239	42.953	0	1514.50	0	2.4480	0	36.4670	8	29.118	0	1497.050	0	29.8	4	9.2	4	-1E+10	1	-1E+10	1	-1E+10	1	-1E+10	1	-1E+10	1	-1E+10	1
4901784	148	C	07/24/2019	10:46	-132.239	42.953	0	1519.90	0	2.4440	0	36.4680	8	29.119	0	1502.369	0	30.1	4	9.3	4	-1E+10	1	-1E+10	1	-1E+10	1	-1E+10	1	-1E+10	1	-1E+10	1
4901784	148	C	07/24/2019	10:46	-132.239	42.953	0	1525.10	0	2.4380	0	36.4690	8	29.121	0	1507.491	0	30.4	4	9.4	4	-1E+10	1	-1E+10	1	-1E+10	1	-1E+10	1	-1E+10	1	-1E+10	1
4901784	148	C	07/24/2019	10:46	-132.239	42.953	0	1530.40	0	2.4320	0	36.4690	8	29.121	0	1512.710	0	30.7	4	9.5	4	-1E+10	1	-1E+10	1	-1E+10	1	-1E+10	1	-1E+10	1	-1E+10	1
4901784	148	C	07/24/2019	10:46	-132.239	42.953	0	1534.90	0	2.4230	0	36.4700	8	29.123	0	1517.142	0	31.1	4	9.6	4	-1E+10	1	-1E+10	1	-1E+10	1	-1E+10	1	-1E+10	1	-1E+10	1
4901784	148	C	07/24/2019	10:46	-132.239	42.953	0	1539.40	0	2.4150	0	36.4710	8	29.124	0	1521.574	0	31.4	4	9.7	4	-1E+10	1	-1E+10	1	-1E+10	1	-1E+10	1	-1E+10	1	-1E+10	1
4901784	148	C	07/24/2019	10:46	-132.239	42.953	0	1544.90	0	2.4040	0	36.4730	8	29.127	0	1526.991	0	31.7	4	9.8	4	-1E+10	1	-1E+10	1	-1E+10	1	-1E+10	1	-1E+10	1	-1E+10	1
4901784	148	C	07/24/2019	10:46	-132.239	42.953	0	1550.40	0	2.3980	0	36.4740	8	29.128	0	1532.407	0	31.8	4	9.8	4	-1E+10	1	-1E+10	1	-1E+10	1	-1E+10	1	-1E+10	1	-1E+10	1
4901784	148	C	07/24/2019	10:46	-132.239	42.953	0	1555.00	0	2.3950	0	36.4740	8	29.129	0	1536.937	0	32.0	4	9.9	4	-1E+10	1	-1E+10	1	-1E+10	1	-1E+10	1	-1E+10	1	-1E+10	1
4901784	148	C	07/24/2019	10:46	-132.239	42.953	0	1559.60	0	2.3890	0	36.4750	8	29.130	0	1541.467	0	32.2	4	9.9	4	-1E+10	1	-1E+10	1	-1E+10	1	-1E+10	1	-1E+10	1	-1E+10	1
4901784	148	C	07/24/2019	10:46	-132.239	42.953	0	1564.80	0	2.3790	0	36.4760	8	29.132	0	1546.587	0	32.5	4	10.0	4	-1E+10	1	-1E+10	1	-1E+10	1	-1E+10	1	-1E+10	1	-1E+10	1
4901784	148	C	07/24/2019	10:46	-132.239	42.953	0	1570.00	0	2.3760	0	36.4770	8	29.133	0	1551.708	0	32.7	4	10.1	4	-1E+10	1	-1E+10	1	-1E+10	1	-1E+10	1	-1E+10	1	-1E+10	1
4901784	148	C	07/24/2019	10:46	-132.239	42.953	0	1575.70	0	2.3730	0	36.4770	8	29.133	0	1557.320	0	33.1	4	10.2	4	-1E+10	1	-1E+10	1	-1E+10	1	-1E+10	1	-1E+10	1	-1E+10	1
4901784	148	C	07/24/2019	10:46	-132.239	42.953	0	1580.50	0	2.3640	0	36.4780	8	29.135	0	1562.046	0	33.5	4	10.3	4	-1E+10	1	-1E+10	1	-1E+10	1	-1E+10	1	-1E+10	1	-1E+10	1
4901784	148	C	07/24/2019	10:46	-132.239	42.953	0	1585.50	0	2.3540	0	36.4800	8	29.137	0	1566.970	0	33.8	4	10.4	4	-1E+10	1	-1E+10	1	-1E+10	1	-1E+10	1	-1E+10	1	-1E+10	1
4901784	148	C	07/24/2019	10:46	-132.239	42.953	0	1590.50	0	2.3470	0	36.4800	8	29.138	0	1571.893	0	34.0	4	10.5	4	-1E+10	1	-1E+10	1	-1E+10	1	-1E+10	1	-1E+10	1	-1E+10	1
4901784	148	C	07/24/2019	10:46	-132.239	42.953	0	1595.40	0	2.3380	0	36.4820	8	29.140	0	1576.717	0	34.3	4	10.6	4	-1E+10	1	-1E+10	1	-1E+10	1	-1E+10	1	-1E+10	1	-1E+10	1
4901784	148	C	07/24/2019	10:46	-132.239	42.953	0	1600.40	0	2.3310	0	36.4830	8	29.142	0	1581.640	0	34.6	4	10.7	4	-1E+10	1	-1E+10	1	-1E+10	1	-1E+10	1	-1E+10	1	-1E+10	1
4901784	148	C	07/24/2019	10:46	-132.239	42.953	0	1605.50	0	2.3260	0	36.4830	8	29.142	0	1586.661	0	34.9	4	10.8	4	-1E+10	1	-1E+10	1	-1E+10	1	-1E+10	1	-1E+10	1	-1E+10	1
4901784	148	C	07/24/2019	10:46	-132.239	42.953	0	1610.50	0	2.3210	0	36.4840	8	29.144	0	1591.583	0	35.4	4	10.9	4	-1E+10	1	-1E+10	1	-1E+10	1	-1E+10	1	-1E+10	1	-1E+10	1
4901784	148	C	07/24/2019	10:46	-132.239	42.953	0	1615.60	0	2.3130	0	36.4850	8	29.145	0	1596.604	0	35.7	4	11.0	4	-1E+10	1	-1E+10	1	-1E+10	1	-1E+10	1	-1E+10	1	-1E+10	1
4901784	148	C	07/24/2019	10:46	-132.239	42.953	0	1619.90	0	2.3110	0	36.4850	8	29.145	0	1600.838	0	35.9	4	11.1	4	-1E+10	1	-1E+10	1	-1E+10	1	-1E+10	1	-1E+10	1	-1E+10	1
4901784	148	C	07/24/2019	10:46	-132.239	42.953	0	1624.30	0	2.3070	0	36.4860	8	29.146	0	1605.169	0	36.1	4	11.1	4	-1E+10	1	-1E+10	1	-1E+10	1	-1E+10	1	-1E+10	1	-1E+10	1
4901784	148	C	07/24/2019	10:46	-132.239	42.953	0	1629.40	0	2.3000	0	36.4870	8	29.148	0	1610.190	0	36.5	4	11.2	4	-1E+10	1	-1E+10	1	-1E+10	1	-1E+10	1	-1E+10	1	-1E+10	1
4901784	148	C	07/24/2019	10:46	-132.239	42.953	0	1634.60	0	2.2930	0	36.4870	8	29.149	0	1615.309	0	36.7	4	11.3	4	-1E+10	1	-1E+10	1	-1E+10	1	-1E+10	1	-1E+10	1	-1E+10	1
4901784	148	C	07/24/2019	10:46	-132.239	42.953	0	1639.90	0	2.2870	0	36.4880	8	29.150	0	1620.526	0	36.9	4	11.4	4	-1E+10	1	-1E+10	1	-1E+10	1	-1E+10	1	-1E+10	1	-1E+10	1
4901784	148	C	07/24/2019	10:46	-132.239	42.953	0	1645.20	0	2.2830	0	36.4890	8	29.151	0	1625.743	0	37.2	4	11.5	4	-1E+10	1	-1E+10	1	-1E+10	1	-1E+10	1	-1E+10	1	-1E+10	1
4901784	148	C	07/24/2019	10:46	-132.239	42.953	0	1650.50	0	2.2760	0	36.4900	8	29.153	0	1630.960	0	37.4	4	11.5	4	-1E+10	1	-1E+10	1	-1E+10	1	-1E+10	1	-1E+10	1	-1E+10	1
4901784	148	C	07/24/2019	10:46	-132.239	42.953	0	1654.90	0	2.2700	0	36.4910	8	29.154	0	1635.291	0	37.7	4	11.6	4	-1E+10	1	-1E+10	1	-1E+10	1	-1E+10	1	-1E+10	1	-1E+10	1
4901784	148	C	07/24/2019	10:46	-132.239	42.953	0	1659.30	0	2.2630	0	36.4920	8	29.155	0	1639.622	0	37.9	4	11.7	4	-1E+10	1	-1E+10	1	-1E+10	1	-1E+10	1	-1E+10	1	-1E+10	1
4901784	148	C	07/24/2019	10:46	-132.239	42.953	0	1664.60	0	2.2580	0	36.4930	8	29.157	0	1644.838	0	38.2	4	11.8	4	-1E+10	1	-1E+10	1	-1E+10	1	-1E+10	1	-1E+10	1	-1E+10	1
4901784	148	C	07/24/2019	10:46	-132.239	42.953	0	1670.00	0	2.2510	0	36.4930	8	29.157	0	1650.153	0	38.6	4	11.9	4	-1E+10	1	-1E+10	1	-1E+10	1	-1E+10	1	-1E+10	1	-1E+10	1
4901784	148	C	07/24/2019	10:46	-132.239	42.953	0	1675.30	0	2.2470	0	36.4940	8	29.158	0	1655.369	0	38.9	4	12.0	4	-1E+10	1	-1E+10	1	-1E+10	1	-1E+10	1	-1E+10	1	-1E+10	1
4901784	148	C	07/24/2019	10:46	-132.239	42.953	0	1680.60	0	2.2400	0	36.4950	8	29.160	0	1660.585	0	39.2	4	12.1	4	-1E+10	1	-1E+10	1	-1E+10	1	-1E+10	1	-1E+10	1	-1E+10	1
4901784	148	C	07/24/2019	10:46	-132.239	42.953	0	1685.10	0	2.2370	0	36.4950	8	29.160	0	1665.014	0	39.4	4	12.1	4	-1E+10	1	-1E+10	1	-1E+10	1	-1E+10	1	-1E+10	1	-1E+10	1
4901784	148	C	07/24/2019	10:46	-132.239	42.953	0	1689.50	0	2.2310	0	36.4960	8	29.161	0	1669.344	0	39.7	4	12.2	4	-1E+10	1	-1E+10	1	-1E+10	1	-1E+10	1	-1E+10	1	-1E+10	1
4901784	148	C	07/24/2019	10:46	-132.239	42.953	0	1694.80	0	2.2240	0	36.4970	8	29.163	0	1674.560	0	40.1	4	12.3	4	-1E+10	1	-1E+10	1	-1E+10	1	-1E+10	1	-1E+10	1	-1E+10	1
4901784	148	C	07/24/2019	10:46	-132.239	42.953	0	1700.20	0	2.2160	0	36.4980	8	29.164	0	1679.874	0	40.5	4	12.5	4	-1E+10	1	-1E+10	1	-1E+10	1	-1E+10	1	-1E+10	1	-1E+10	1
4901784	148	C	07/24/2019	10:46	-132.239	42.953	0	1705.60	0	2.2110	0	36.4980	8	29.165	0	1685.188	0	40.9	4	12.6	4	-1E+10	1	-1E+10	1	-1E+10	1	-1E+10	1	-1E+10	1	-1E+10	1
4901784	148	C	07/24/2019	10:46	-132.239	42.953	0	1710.00	0	2.2040	0	36.4990	8	29.166	0	1689.518	0	41.2	4	12.7	4	-1E+10	1	-1E+10	1	-1E+10	1	-1E+10	1	-1E+10	1	-1E+10	1
4901784	148	C	07/24/2019	10:46	-132.239	42.953	0	1714.50	0	2.1960	0	36.5010	8	29.169	0	1693.946	0	41.5	4	12.8	4	-1E+10	1	-1E+10	1	-1E+10	1	-1E+10	1	-1E+10	1	-1E+10	1
4901784	148	C	07/24/2019	10:46	-132.239	42.953	0	1719.90	0	2.1940	0	36.5010	8	29.169	0	1699.260	0	41.8	4	12.9	4	-1E+10	1	-1E+10	1	-1E+10	1	-1E+10	1	-1E+10	1	-1E+10	1
4901784	148	C	07/24/2019	10:46	-132.239	42.953	0	1725.30	0	2.1870	0	36.5020	8	29.170	0	1704.574	0	42.2	4	13.0	4	-1E+10	1	-1E+10	1	-1E+10	1	-1E+10	1	-1E+10	1	-1E+10	1
4901784	148	C	07/24/2019	10:46	-132.239	42.953	0	1729.80	0	2.1800	0	36.5030	8	29.172	0	1709.001	0	42.5	4	13.1	4	-1E+10	1	-1E+10	1	-1E+10	1	-1E+10	1	-1E+10	1	-1E+10	1
4901784	148	C	07/24/2019	10:46	-132.239	42.953	0	1734.30	0	2.1750	0	36.5040	8	29.173	0	1713.429	0	42.8	4	13.1	4	-1E+10	1	-1E+10	1	-1E+10	1	-1E+10	1	-1E+10	1	-1E+10	1
4901784	148	C	07/24/2019	10:46	-132.239	42.953	0	1739.70	0	2.1700	0	36.5040	8	29.173	0	1718.742	0	43.2	4	13.3	4	-1E+10	1	-1E+10	1	-1E+10	1	-1E+10	1	-1E+10	1	-1E+10	1
4901784	148	C	07/24/2019	10:46	-132.239	42.953	0	1745.10	0	2.1620	0	36.5060	8	29.176	0	1724.055	0	43.7	4	13.4	4	-1E+10	1	-1E+10	1	-1E+10	1	-1E+10	1	-1E+10	1	-1E+10	1
4901784	148	C	07/24/2019	10:46	-132.239	42.953	0	1750.40	0	2.1520	0	36.5070	8	29.177	0	1729.270	0	44.2	4	13.6	4	-1E+10	1	-1E+10	1	-1E+10	1	-1E+10	1	-1E+10	1	-1E+10	1
4901784	148	C	07/24/2019	10:46	-132.239	42.953	0	1755.20	0	2.1460	0	36.5080	8	29.179	0	1733.992	0	44.6	4	13.7	4	-1E+10	1	-1E+10	1	-1E+10	1	-1E+10	1	-1E+10	1	-1E+10	1
4901784	148	C	07/24/2019	10:46	-132.239	42.953	0	1760.00	0	2.1390	0	36.5090	8	29.180	0	1738.715	0	45.0	4	13.8	4	-1E+10	1	-1E+10	1	-1E+10	1	-1E+10	1	-1E+10	1	-1E+10	1
4901784	148	C	07/24/2019	10:46	-132.239	42.953	0	1764.90	0	2.1340	0	36.5100	8	29.181	0	1743.535	0	45.3	4	13.9	4	-1E+10	1	-1E+10	1	-1E+10	1	-1E+10	1	-1E+10	1	-1E+10	1
4901784	148	C	07/24/2019	10:46	-132.239	42.953	0	1769.70	0	2.1300	0	36.5110	8	29.183	0	1748.257	0	45.7	4	14.0	4	-1E+10	1	-1E+10	1	-1E+10	1	-1E+10	1	-1E+10	1	-1E+10	1
4901784	148	C	07/24/2019	10:46	-132.239	42.953	0	1774.60	0	2.1240	0	36.5120	8	29.184	0	1753.078	0	46.0	4	14.1	4	-1E+10	1	-1E+10	1	-1E+10	1	-1E+10	1	-1E+10	1	-1E+10	1
4901784	148	C	07/24/2019	10:46	-132.239	42.953	0	1779.60	0	2.1180	0	36.5130	8	29.185	0	1757.997	0	46.3	4	14.2	4	-1E+10	1	-1E+10	1	-1E+10	1	-1E+10	1	-1E+10	1	-1E+10	1
4901784	148	C	07/24/2019	10:46	-132.239	42.953	0	1784.60	0	2.1150	0	36.5130	8	29.186	0	1762.915	0	46.5	4	14.3	4	-1E+10	1	-1E+10	1	-1E+10	1	-1E+10	1	-1E+10	1	-1E+10	1
4901784	148	C	07/24/2019	10:46	-132.239	42.953	0	1789.60	0	2.1080	0	36.5140	8	29.187	0	1767.834	0	46.8	4	14.4	4	-1E+10	1	-1E+10	1	-1E+10	1	-1E+10	1	-1E+10	1	-1E+10	1
4901784	148	C	07/24/2019	10:46	-132.239	42.953	0	1794.60	0	2.1040	0	36.5150	8	29.188	0	1772.752	0	47.1	4	14.4	4	-1E+10	1	-1E+10	1	-1E+10	1	-1E+10	1	-1E+10	1	-1E+10	1
4901784	148	C	07/24/2019	10:46	-132.239	42.953	0	1799.70	0	2.1030	0	36.5150	8	29.188	0	1777.768	0	47.4	4	14.5	4	-1E+10	1	-1E+10	1	-1E+10	1	-1E+10	1	-1E+10	1	-1E+10	1
4901784	148	C	07/24/2019	10:46	-132.239	42.953	0	1804.90	0	2.0970	0	36.5160	8	29.190	0	1782.883	0	47.8	4	14.7	4	-1E+10	1	-1E+10	1	-1E+10	1	-1E+10	1	-1E+10	1	-1E+10	1
4901784	148	C	07/24/2019	10:46	-132.239	42.953	0	1810.00	0	2.0890	0	36.5170	8	29.191	0	1787.900	0	48.2	4	14.8	4	-1E+10	1	-1E+10	1	-1E+10	1	-1E+10	1	-1E+10	1	-1E+10	1
4901784	148	C	07/24/2019	10:46	-132.239	42.953	0	1815.20	0	2.0820	0	36.5180	8	29.192	0	1793.014	0	48.5	4	14.9	4	-1E+10	1	-1E+10	1	-1E+10	1	-1E+10	1	-1E+10	1	-1E+10	1
4901784	148	C	07/24/2019	10:46	-132.239	42.953	0	1820.40	0	2.0790	0	36.5190	8	29.194	0	1798.129	0	48.8	4	14.9	4	-1E+10	1	-1E+10	1	-1E+10	1	-1E+10	1	-1E+10	1	-1E+10	1
4901784	148	C	07/24/2019	10:46	-132.239	42.953	0	1825.60	0	2.0770	0	36.5190	8	29.194	0	1803.243	0	49.0	4	15.0	4	-1E+10	1	-1E+10	1	-1E+10	1	-1E+10	1	-1E+10	1	-1E+10	1
4901784	148	C	07/24/2019	10:46	-132.239	42.953	0	1830.00	0	2.0710	0	36.5200	8	29.195	0	1807.570	0	49.4	4	15.2	4	-1E+10	1	-1E+10	1	-1E+10	1	-1E+10	1	-1E+10	1	-1E+10	1
4901784	148	C	07/24/2019	10:46	-132.239	42.953	0	1834.40	0	2.0670	0	36.5210	8	29.196	0	1811.898	0	49.8	4	15.3	4	-1E+10	1	-1E+10	1	-1E+10	1	-1E+10	1	-1E+10	1	-1E+10	1
4901784	148	C	07/24/2019	10:46	-132.239	42.953	0	1839.60	0	2.0590	0	36.5220	8	29.198	0	1817.012	0	50.2	4	15.4	4	-1E+10	1	-1E+10	1	-1E+10	1	-1E+10	1	-1E+10	1	-1E+10	1
4901784	148	C	07/24/2019	10:46	-132.239	42.953	0	1844.80	0	2.0530	0	36.5230	8	29.199	0	1822.126	0	50.5	4	15.5	4	-1E+10	1	-1E+10	1	-1E+10	1	-1E+10	1	-1E+10	1	-1E+10	1
4901784	148	C	07/24/2019	10:46	-132.239	42.953	0	1850.10	0	2.0470	0	36.5240	8	29.200	0	1827.338	0	50.8	4	15.6	4	-1E+10	1	-1E+10	1	-1E+10	1	-1E+10	1	-1E+10	1	-1E+10	1
4901784	148	C	07/24/2019	10:46	-132.239	42.953	0	1855.50	0	2.0440	0	36.5240	8	29.201	0	1832.648	0	51.0	4	15.6	4	-1E+10	1	-1E+10	1	-1E+10	1	-1E+10	1	-1E+10	1	-1E+10	1
4901784	148	C	07/24/2019	10:46	-132.239	42.953	0	1859.90	0	2.0410	0	36.5240	8	29.201	0	1836.975	0	51.2	4	15.7	4	-1E+10	1	-1E+10	1	-1E+10	1	-1E+10	1	-1E+10	1	-1E+10	1
4901784	148	C	07/24/2019	10:46	-132.239	42.953	0	1864.40	0	2.0380	0	36.5250	8	29.202	0	1841.400	0	51.4	4	15.8	4	-1E+10	1	-1E+10	1	-1E+10	1	-1E+10	1	-1E+10	1	-1E+10	1
4901784	148	C	07/24/2019	10:46	-132.239	42.953	0	1869.80	0	2.0330	0	36.5250	8	29.203	0	1846.710	0	51.7	4	15.8	4	-1E+10	1	-1E+10	1	-1E+10	1	-1E+10	1	-1E+10	1	-1E+10	1
4901784	148	C	07/24/2019	10:46	-132.239	42.953	0	1875.10	0	2.0300	0	36.5270	8	29.204	0	1851.921	0	52.0	4	15.9	4	-1E+10	1	-1E+10	1	-1E+10	1	-1E+10	1	-1E+10	1	-1E+10	1
4901784	148	C	07/24/2019	10:46	-132.239	42.953	0	1880.50	0	2.0280	0	36.5270	8	29.205	0	1857.231	0	52.2	4	16.0	4	-1E+10	1	-1E+10	1	-1E+10	1	-1E+10	1	-1E+10	1	-1E+10	1
4901784	148	C	07/24/2019	10:46	-132.239	42.953	0	1885.00	0	2.0270	0	36.5270	8	29.205	0	1861.656	0	52.4	4	16.1	4	-1E+10	1	-1E+10	1	-1E+10	1	-1E+10	1	-1E+10	1	-1E+10	1
4901784	148	C	07/24/2019	10:46	-132.239	42.953	0	1889.60	0	2.0240	0	36.5280	8	29.206	0	1866.178	0	52.7	4	16.1	4	-1E+10	1	-1E+10	1	-1E+10	1	-1E+10	1	-1E+10	1	-1E+10	1
4901784	148	C	07/24/2019	10:46	-132.239	42.953	0	1895.00	0	2.0190	0	36.5280	8	29.206	0	1871.488	0	53.0	4	16.2	4	-1E+10	1	-1E+10	1	-1E+10	1	-1E+10	1	-1E+10	1	-1E+10	1
4901784	148	C	07/24/2019	10:46	-132.239	42.953	0	1899.70	0	2.0160	0	36.5290	8	29.207	0	1876.109	0	53.2	4	16.3	4	-1E+10	1	-1E+10	1	-1E+10	1	-1E+10	1	-1E+10	1	-1E+10	1
4901784	148	C	07/24/2019	10:46	-132.239	42.953	0	1904.90	0	2.0100	0	36.5300	8	29.209	0	1881.221	0	53.6	4	16.4	4	-1E+10	1	-1E+10	1	-1E+10	1	-1E+10	1	-1E+10	1	-1E+10	1
4901784	148	C	07/24/2019	10:46	-132.239	42.953	0	1910.50	0	2.0050	0	36.5300	8	29.209	0	1886.727	0	54.0	4	16.5	4	-1E+10	1	-1E+10	1	-1E+10	1	-1E+10	1	-1E+10	1	-1E+10	1
4901784	148	C	07/24/2019	10:46	-132.239	42.953	0	1915.40	0	1.9970	0	36.5310	8	29.211	0	1891.544	0	54.4	4	16.6	4	-1E+10	1	-1E+10	1	-1E+10	1	-1E+10	1	-1E+10	1	-1E+10	1
4901784	148	C	07/24/2019	10:46	-132.239	42.953	0	1920.20	0	1.9960	0	36.5310	8	29.211	0	1896.263	0	54.6	4	16.7	4	-1E+10	1	-1E+10	1	-1E+10	1	-1E+10	1	-1E+10	1	-1E+10	1
4901784	148	C	07/24/2019	10:46	-132.239	42.953	0	1925.10	0	1.9910	0	36.5320	8	29.212	0	1901.080	0	54.9	4	16.8	4	-1E+10	1	-1E+10	1	-1E+10	1	-1E+10	1	-1E+10	1	-1E+10	1
4901784	148	C	07/24/2019	10:46	-132.239	42.953	0	1930.00	0	1.9860	0	36.5320	8	29.212	0	1905.897	0	55.3	4	16.9	4	-1E+10	1	-1E+10	1	-1E+10	1	-1E+10	1	-1E+10	1	-1E+10	1
4901784	148	C	07/24/2019	10:46	-132.239	42.953	0	1934.90	0	1.9760	0	36.5330	8	29.214	0	1910.714	0	55.5	4	17.0	4	-1E+10	1	-1E+10	1	-1E+10	1	-1E+10	1	-1E+10	1	-1E+10	1
4901784	148	C	07/24/2019	10:46	-132.239	42.953	0	1939.80	0	1.9700	0	36.5340	8	29.215	0	1915.531	0	55.9	4	17.1	4	-1E+10	1	-1E+10	1	-1E+10	1	-1E+10	1	-1E+10	1	-1E+10	1
4901784	148	C	07/24/2019	10:46	-132.239	42.953	0	1944.80	0	1.9640	0	36.5350	8	29.217	0	1920.445	0	56.3	4	17.2	4	-1E+10	1	-1E+10	1	-1E+10	1	-1E+10	1	-1E+10	1	-1E+10	1
4901784	148	C	07/24/2019	10:46	-132.239	42.953	0	1949.70	0	1.9590	0	36.5360	8	29.218	0	1925.262	0	56.6	4	17.3	4	-1E+10	1	-1E+10	1	-1E+10	1	-1E+10	1	-1E+10	1	-1E+10	1
4901784	148	C	07/24/2019	10:46	-132.239	42.953	0	1954.70	0	1.9540	0	36.5370	8	29.219	0	1930.177	0	56.9	4	17.4	4	-1E+10	1	-1E+10	1	-1E+10	1	-1E+10	1	-1E+10	1	-1E+10	1
4901784	148	C	07/24/2019	10:46	-132.239	42.953	0	1959.70	0	1.9500	0	36.5370	8	29.220	0	1935.091	0	57.2	4	17.5	4	-1E+10	1	-1E+10	1	-1E+10	1	-1E+10	1	-1E+10	1	-1E+10	1
4901784	148	C	07/24/2019	10:46	-132.239	42.953	0	1964.70	0	1.9460	0	36.5380	8	29.221	0	1940.006	0	57.4	4	17.6	4	-1E+10	1	-1E+10	1	-1E+10	1	-1E+10	1	-1E+10	1	-1E+10	1
4901784	148	C	07/24/2019	10:46	-132.239	42.953	0	1969.80	0	1.9440	0	36.5380	8	29.221	0	1945.018	0	57.6	4	17.6	4	-1E+10	1	-1E+10	1	-1E+10	1	-1E+10	1	-1E+10	1	-1E+10	1
4901784	148	C	07/24/2019	10:46	-132.239	42.953	0	1974.90	0	1.9410	0	36.5390	8	29.222	0	1950.031	0	57.9	4	17.7	4	-1E+10	1	-1E+10	1	-1E+10	1	-1E+10	1	-1E+10	1	-1E+10	1
4901784	148	C	07/24/2019	10:46	-132.239	42.953	0	1980.00	0	1.9390	0	36.5400	8	29.223	0	1955.043	0	58.2	4	17.8	4	-1E+10	1	-1E+10	1	-1E+10	1	-1E+10	1	-1E+10	1	-1E+10	1
4901784	148	C	07/24/2019	10:46	-132.239	42.953	0	1985.10	0	1.9370	0	36.5400	8	29.223	0	1960.055	0	58.4	4	17.8	4	-1E+10	1	-1E+10	1	-1E+10	1	-1E+10	1	-1E+10	1	-1E+10	1
4901784	148	C	07/24/2019	10:46	-132.239	42.953	0	1990.10	0	1.9330	0	36.5400	8	29.224	0	1964.969	0	58.7	4	17.9	4	-1E+10	1	-1E+10	1	-1E+10	1	-1E+10	1	-1E+10	1	-1E+10	1
4901784	148	C	07/24/2019	10:46	-132.239	42.953	0	1995.10	0	1.9270	0	36.5410	8	29.225	0	1969.883	0	59.0	4	18.0	4	-1E+10	1	-1E+10	1	-1E+10	1	-1E+10	1	-1E+10	1	-1E+10	1
4901784	148	C	07/24/2019	10:46	-132.239	42.953	0	1999.90	0	1.9250	0	36.5420	8	29.226	0	1974.600	0	59.2	4	18.1	4	-1E+10	1	-1E+10	1	-1E+10	1	-1E+10	1	-1E+10	1	-1E+10	1
4901784	148	C	07/24/2019	10:46	-132.239	42.953	0	2005.30	0	1.9210	0	36.5430	8	29.227	0	1979.907	0	59.3	4	18.1	4	-1E+10	1	-1E+10	1	-1E+10	1	-1E+10	1	-1E+10	1	-1E+10	1
4901784	148	C	07/24/2019	10:46	-132.239	42.953	0	2009.60	0	1.9200	0	36.5430	8	29.227	0	1984.132	0	57.6	4	17.6	4	-1E+10	1	-1E+10	1	-1E+10	1	-1E+10	1	-1E+10	1	-1E+10	1
4901784	148	C	07/24/2019	10:46	-132.239	42.953	0																										
4901784	149	C	08/03/2019	10:40	-132.304	43.047	0	2.50	0	19.9140	0	34.2450	8	24.210	0	2.480	0	219.7	4	96.8	4	-1E+10	1	-1E+10	1	-1E+10	1	-1E+10	1	-1E+10	1	-1E+10	1
4901784	149	C	08/03/2019	10:40	-132.304	43.047	0	4.00	0	19.9130	0	34.2440	8	24.209	0	3.968	0	219.4	4	96.6	4	-1E+10	1	-1E+10	1	-1E+10	1	-1E+10	1	-1E+10	1	-1E+10	1
4901784	149	C	08/03/2019	10:40	-132.304	43.047	0	5.70	0	19.9150	0	34.2430	8	24.208	0	5.655	0	219.4	4	96.6	4	-1E+10	1	-1E+10	1	-1E+10	1	-1E+10	1	-1E+10	1	-1E+10	1
4901784	149	C	08/03/2019	10:40	-132.304	43.047	0	7.90	0	19.9140	0	34.2410	8	24.207	0	7.837	0	219.3	4	96.6	4	-1E+10	1	-1E+10	1	-1E+10	1	-1E+10	1	-1E+10	1	-1E+10	1
4901784	149	C	08/03/2019	10:40	-132.304	43.047	0	9.70	0	19.9100	0	34.2380	8	24.206	0	9.623	0	219.3	4	96.6	4	-1E+10	1	-1E+10	1	-1E+10	1	-1E+10	1	-1E+10	1	-1E+10	1
4901784	149	C	08/03/2019	10:40	-132.304	43.047	0	11.20	0	19.9100	0	34.2350	8	24.204	0	11.111	0	219.2	4	96.5	4	-1E+10	1	-1E+10	1	-1E+10	1	-1E+10	1	-1E+10	1	-1E+10	1
4901784	149	C	08/03/2019	10:40	-132.304	43.047	0	12.70	0	19.9130	0	34.2300	8	24.199	0	12.599	0	219.4	4	96.6	4	-1E+10	1	-1E+10	1	-1E+10	1	-1E+10	1	-1E+10	1	-1E+10	1
4901784	149	C	08/03/2019	10:40	-132.304	43.047	0	14.10	0	19.9140	0	34.2230	8	24.194	0	13.988	0	220.1	4	96.9	4	-1E+10	1	-1E+10	1	-1E+10	1	-1E+10	1	-1E+10	1	-1E+10	1
4901784	149	C	08/03/2019	10:40	-132.304	43.047	0	15.40	0	19.9130	0	34.2140	8	24.187	0	15.277	0	221.1	4	97.4	4	-1E+10	1	-1E+10	1	-1E+10	1	-1E+10	1	-1E+10	1	-1E+10	1
4901784	149	C	08/03/2019	10:40	-132.304	43.047	0	17.00	0	19.9130	0	34.1890	8	24.168	0	16.864	0	222.9	4	98.2	4	-1E+10	1	-1E+10	1	-1E+10	1	-1E+10	1	-1E+10	1	-1E+10	1
4901784	149	C	08/03/2019	10:40	-132.304	43.047	0	18.30	0	19.6010	0	34.1900	8	24.250	0	18.154	0	225.8	4	98.9	4	-1E+10	1	-1E+10	1	-1E+10	1	-1E+10	1	-1E+10	1	-1E+10	1
4901784	149	C	08/03/2019	10:40	-132.304	43.047	0	19.50	0	18.4140	0	34.2080	8	24.565	0	19.344	0	233.4	4	100.0	4	-1E+10	1	-1E+10	1	-1E+10	1	-1E+10	1	-1E+10	1	-1E+10	1
4901784	149	C	08/03/2019	10:40	-132.304	43.047	0	20.80	0	17.7830	0	34.2360	8	24.742	0	20.634	0	237.6	4	100.6	4	-1E+10	1	-1E+10	1	-1E+10	1	-1E+10	1	-1E+10	1	-1E+10	1
4901784	149	C	08/03/2019	10:40	-132.304	43.047	0	22.00	0	17.6390	0	34.2320	8	24.774	0	21.824	0	238.9	4	100.9	4	-1E+10	1	-1E+10	1	-1E+10	1	-1E+10	1	-1E+10	1	-1E+10	1
4901784	149	C	08/03/2019	10:40	-132.304	43.047	0	23.20	0	17.5530	0	34.2260	8	24.790	0	23.015	0	240.0	4	101.2	4	-1E+10	1	-1E+10	1	-1E+10	1	-1E+10	1	-1E+10	1	-1E+10	1
4901784	149	C	08/03/2019	10:40	-132.304	43.047	0	24.40	0	17.5010	0	34.2110	8	24.791	0	24.205	0	241.0	4	101.5	4	-1E+10	1	-1E+10	1	-1E+10	1	-1E+10	1	-1E+10	1	-1E+10	1
4901784	149	C	08/03/2019	10:40	-132.304	43.047	0	25.60	0	17.3230	0	34.1900	8	24.818	0	25.395	0	243.3	4	102.1	4	-1E+10	1	-1E+10	1	-1E+10	1	-1E+10	1	-1E+10	1	-1E+10	1
4901784	149	C	08/03/2019	10:40	-132.304	43.047	0	26.90	0	16.8080	0	34.1910	8	24.941	0	26.685	0	246.7	4	102.5	4	-1E+10	1	-1E+10	1	-1E+10	1	-1E+10	1	-1E+10	1	-1E+10	1
4901784	149	C	08/03/2019	10:40	-132.304	43.047	0	28.40	0	15.8750	0	34.2230	8	25.180	0	28.173	0	252.3	4	103.0	4	-1E+10	1	-1E+10	1	-1E+10	1	-1E+10	1	-1E+10	1	-1E+10	1
4901784	149	C	08/03/2019	10:40	-132.304	43.047	0	30.10	0	14.8990	0	34.2560	8	25.422	0	29.859	0	259.4	4	103.9	4	-1E+10	1	-1E+10	1	-1E+10	1	-1E+10	1	-1E+10	1	-1E+10	1
4901784	149	C	08/03/2019	10:40	-132.304	43.047	0	31.70	0	14.3810	0	34.2500	8	25.529	0	31.446	0	262.1	4	104.0	4	-1E+10	1	-1E+10	1	-1E+10	1	-1E+10	1	-1E+10	1	-1E+10	1
4901784	149	C	08/03/2019	10:40	-132.304	43.047	0	34.10	0	13.5430	0	34.2910	8	25.735	0	33.826	0	267.0	4	104.2	4	-1E+10	1	-1E+10	1	-1E+10	1	-1E+10	1	-1E+10	1	-1E+10	1
4901784	149	C	08/03/2019	10:40	-132.304	43.047	0	35.80	0	13.2600	0	34.2820	8	25.786	0	35.513	0	268.1	4	104.0	4	-1E+10	1	-1E+10	1	-1E+10	1	-1E+10	1	-1E+10	1	-1E+10	1
4901784	149	C	08/03/2019	10:40	-132.304	43.047	0	37.30	0	12.9720	0	34.2850	8	25.846	0	37.001	0	268.8	4	103.6	4	-1E+10	1	-1E+10	1	-1E+10	1	-1E+10	1	-1E+10	1	-1E+10	1
4901784	149	C	08/03/2019	10:40	-132.304	43.047	0	38.90	0	12.8130	0	34.2980	8	25.888	0	38.588	0	268.1	4	103.0	4	-1E+10	1	-1E+10	1	-1E+10	1	-1E+10	1	-1E+10	1	-1E+10	1
4901784	149	C	08/03/2019	10:40	-132.304	43.047	0	40.40	0	12.6550	0	34.3140	8	25.931	0	40.075	0	268.3	4	102.8	4	-1E+10	1	-1E+10	1	-1E+10	1	-1E+10	1	-1E+10	1	-1E+10	1
4901784	149	C	08/03/2019	10:40	-132.304	43.047	0	42.10	0	12.5100	0	34.3050	8	25.953	0	41.762	0	268.5	4	102.6	4	-1E+10	1	-1E+10	1	-1E+10	1	-1E+10	1	-1E+10	1	-1E+10	1
4901784	149	C	08/03/2019	10:40	-132.304	43.047	0	43.60	0	12.3640	0	34.3120	8	25.987	0	43.249	0	268.9	4	102.4	4	-1E+10	1	-1E+10	1	-1E+10	1	-1E+10	1	-1E+10	1	-1E+10	1
4901784	149	C	08/03/2019	10:40	-132.304	43.047	0	45.30	0	12.1760	0	34.3130	8	26.024	0	44.935	0	269.3	4	102.2	4	-1E+10	1	-1E+10	1	-1E+10	1	-1E+10	1	-1E+10	1	-1E+10	1
4901784	149	C	08/03/2019	10:40	-132.304	43.047	0	47.00	0	11.8310	0	34.3030	8	26.081	0	46.622	0	270.3	4	101.8	4	-1E+10	1	-1E+10	1	-1E+10	1	-1E+10	1	-1E+10	1	-1E+10	1
4901784	149	C	08/03/2019	10:40	-132.304	43.047	0	48.70	0	11.7870	0	34.3060	8	26.092	0	48.308	0	270.2	4	101.7	4	-1E+10	1	-1E+10	1	-1E+10	1	-1E+10	1	-1E+10	1	-1E+10	1
4901784	149	C	08/03/2019	10:40	-132.304	43.047	0	50.40	0	11.7030	0	34.3040	8	26.106	0	49.994	0	270.0	4	101.4	4	-1E+10	1	-1E+10	1	-1E+10	1	-1E+10	1	-1E+10	1	-1E+10	1
4901784	149	C	08/03/2019	10:40	-132.304	43.047	0	52.10	0	11.5750	0	34.2910	8	26.120	0	51.680	0	269.3	4	100.9	4	-1E+10	1	-1E+10	1	-1E+10	1	-1E+10	1	-1E+10	1	-1E+10	1
4901784	149	C	08/03/2019	10:40	-132.304	43.047	0	53.70	0	11.3940	0	34.2810	8	26.146	0	53.267	0	268.0	4	100.0	4	-1E+10	1	-1E+10	1	-1E+10	1	-1E+10	1	-1E+10	1	-1E+10	1
4901784	149	C	08/03/2019	10:40	-132.304	43.047	0	55.40	0	11.4090	0	34.2920	8	26.151	0	54.953	0	265.6	4	99.1	4	-1E+10	1	-1E+10	1	-1E+10	1	-1E+10	1	-1E+10	1	-1E+10	1
4901784	149	C	08/03/2019	10:40	-132.304	43.047	0	57.10	0	11.1940	0	34.2970	8	26.195	0	56.639	0	263.8	4	98.0	4	-1E+10	1	-1E+10	1	-1E+10	1	-1E+10	1	-1E+10	1	-1E+10	1
4901784	149	C	08/03/2019	10:40	-132.304	43.047	0	58.80	0	10.8000	0	34.2970	8	26.266	0	58.325	0	262.6	4	96.8	4	-1E+10	1	-1E+10	1	-1E+10	1	-1E+10	1	-1E+10	1	-1E+10	1
4901784	149	C	08/03/2019	10:40	-132.304	43.047	0	60.40	0	10.8210	0	34.3120	8	26.274	0	59.912	0	260.0	4	95.9	4	-1E+10	1	-1E+10	1	-1E+10	1	-1E+10	1	-1E+10	1	-1E+10	1
4901784	149	C	08/03/2019	10:40	-132.304	43.047	0	62.20	0	10.7460	0	34.3250	8	26.297	0	61.697	0	256.6	4	94.5	4	-1E+10	1	-1E+10	1	-1E+10	1	-1E+10	1	-1E+10	1	-1E+10	1
4901784	149	C	08/03/2019	10:40	-132.304	43.047	0	63.90	0	10.6050	0	34.3410	8	26.334	0	63.383	0	254.5	4	93.4	4	-1E+10	1	-1E+10	1	-1E+10	1	-1E+10	1	-1E+10	1	-1E+10	1
4901784	149	C	08/03/2019	10:40	-132.304	43.047	0	65.70	0	10.5250	0	34.3410	8	26.349	0	65.168	0	253.5	4	92.9	4	-1E+10	1	-1E+10	1	-1E+10	1	-1E+10	1	-1E+10	1	-1E+10	1
4901784	149	C	08/03/2019	10:40	-132.304	43.047	0	67.50	0	10.4510	0	34.3460	8	26.365	0	66.953	0	252.8	4	92.5	4	-1E+10	1	-1E+10	1	-1E+10	1	-1E+10	1	-1E+10	1	-1E+10	1
4901784	149	C	08/03/2019	10:40	-132.304	43.047	0	69.20	0	10.4340	0	34.3450	8	26.368	0	68.639	0	251.7	4	92.1	4	-1E+10	1	-1E+10	1	-1E+10	1	-1E+10	1	-1E+10	1	-1E+10	1
4901784	149	C	08/03/2019	10:40	-132.304	43.047	0	71.00	0	10.3670	0	34.3440	8	26.379	0	70.424	0	251.3	4	91.8	4	-1E+10	1	-1E+10	1	-1E+10	1	-1E+10	1	-1E+10	1	-1E+10	1
4901784	149	C	08/03/2019	10:40	-132.304	43.047	0	72.80	0	10.2940	0	34.3410	8	26.389	0	72.209	0	251.0	4	91.6	4	-1E+10	1	-1E+10	1	-1E+10	1	-1E+10	1	-1E+10	1	-1E+10	1
4901784	149	C	08/03/2019	10:40	-132.304	43.047	0	74.50	0	10.1850	0	34.3360	8	26.404	0	73.895	0	251.1	4	91.4	4	-1E+10	1	-1E+10	1	-1E+10	1	-1E+10	1	-1E+10	1	-1E+10	1
4901784	149	C	08/03/2019	10:40	-132.304	43.047	0	76.40	0	10.1140	0	34.3310	8	26.412	0	75.779	0	251.4	4	91.3	4	-1E+10	1	-1E+10	1	-1E+10	1	-1E+10	1	-1E+10	1	-1E+10	1
4901784	149	C	08/03/2019	10:40	-132.304	43.047	0	78.10	0	10.0250	0	34.3280	8	26.425	0	77.465	0	251.8	4	91.3	4	-1E+10	1	-1E+10	1	-1E+10	1	-1E+10	1	-1E+10	1	-1E+10	1
4901784	149	C	08/03/2019	10:40	-132.304	43.047	0	80.00	0	9.9830	0	34.3240	8	26.429	0	79.350	0	251.9	4	91.3	4	-1E+10	1	-1E+10	1	-1E+10	1	-1E+10	1	-1E+10	1	-1E+10	1
4901784	149	C	08/03/2019	10:40	-132.304	43.047	0	81.90	0	9.9330	0	34.3200	8	26.434	0	81.234	0	252.1	4	91.2	4	-1E+10	1	-1E+10	1	-1E+10	1	-1E+10	1	-1E+10	1	-1E+10	1
4901784	149	C	08/03/2019	10:40	-132.304	43.047	0	83.70	0	9.8590	0	34.3140	8	26.442	0	83.019	0	252.7	4	91.3	4	-1E+10	1	-1E+10	1	-1E+10	1	-1E+10	1	-1E+10	1	-1E+10	1
4901784	149	C	08/03/2019	10:40	-132.304	43.047	0	85.50	0	9.7920	0	34.3100	8	26.450	0	84.804	0	253.1	4	91.3	4	-1E+10	1	-1E+10	1	-1E+10	1	-1E+10	1	-1E+10	1	-1E+10	1
4901784	149	C	08/03/2019	10:40	-132.304	43.047	0	87.40	0	9.7430	0	34.3030	8	26.453	0	86.688	0	253.5	4	91.4	4	-1E+10	1	-1E+10	1	-1E+10	1	-1E+10	1	-1E+10	1	-1E+10	1
4901784	149	C	08/03/2019	10:40	-132.304	43.047	0	89.10	0	9.7060	0	34.2990	8	26.456	0	88.374	0	253.4	4	91.2	4	-1E+10	1	-1E+10	1	-1E+10	1	-1E+10	1	-1E+10	1	-1E+10	1
4901784	149	C	08/03/2019	10:40	-132.304	43.047	0	91.00	0	9.6750	0	34.2930	8	26.457	0	90.258	0	253.5	4	91.2	4	-1E+10	1	-1E+10	1	-1E+10	1	-1E+10	1	-1E+10	1	-1E+10	1
4901784	149	C	08/03/2019	10:40	-132.304	43.047	0	92.80	0	9.5860	0	34.2910	8	26.470	0	92.043	0	253.9	4	91.2	4	-1E+10	1	-1E+10	1	-1E+10	1	-1E+10	1	-1E+10	1	-1E+10	1
4901784	149	C	08/03/2019	10:40	-132.304	43.047	0	94.60	0	9.5000	0	34.2850	8	26.479	0	93.827	0	254.2	4	91.1	4	-1E+10	1	-1E+10	1	-1E+10	1	-1E+10	1	-1E+10	1	-1E+10	1
4901784	149	C	08/03/2019	10:40	-132.304	43.047	0	96.50	0	9.3570	0	34.2780	8	26.497	0	95.712	0	254.5	4	90.9	4	-1E+10	1	-1E+10	1	-1E+10	1	-1E+10	1	-1E+10	1	-1E+10	1
4901784	149	C	08/03/2019	10:40	-132.304	43.047	0	98.30	0	9.3130	0	34.2760	8	26.503	0	97.496	0	254.1	4	90.7	4	-1E+10	1	-1E+10	1	-1E+10	1	-1E+10	1	-1E+10	1	-1E+10	1
4901784	149	C	08/03/2019	10:40	-132.304	43.047	0	100.00	0	9.2440	0	34.2810	8	26.518	0	99.182	0	253.5	4	90.4	4	-1E+10	1	-1E+10	1	-1E+10	1	-1E+10	1	-1E+10	1	-1E+10	1
4901784	149	C	08/03/2019	10:40	-132.304	43.047	0	102.70	0	9.2210	0	34.2920	8	26.530	0	101.859	0	252.2	4	89.8	4	-1E+10	1	-1E+10	1	-1E+10	1	-1E+10	1	-1E+10	1	-1E+10	1
4901784	149	C	08/03/2019	10:40	-132.304	43.047	0	105.50	0	9.2220	0	34.3110	8	26.545	0	104.636	0	250.6	4	89.3	4	-1E+10	1	-1E+10	1	-1E+10	1	-1E+10	1	-1E+10	1	-1E+10	1
4901784	149	C	08/03/2019	10:40	-132.304	43.047	0	107.80	0	9.1260	0	34.2970	8	26.550	0	106.916	0	249.9	4	88.8	4	-1E+10	1	-1E+10	1	-1E+10	1	-1E+10	1	-1E+10	1	-1E+10	1
4901784	149	C	08/03/2019	10:40	-132.304	43.047	0	110.50	0	8.9120	0	34.3100	8	26.594	0	109.593	0	247.8	4	87.7	4	-1E+10	1	-1E+10	1	-1E+10	1	-1E+10	1	-1E+10	1	-1E+10	1
4901784	149	C	08/03/2019	10:40	-132.304	43.047	0	112.80	0	8.8020	0	34.3440	8	26.638	0	111.874	0	245.1	4	86.6	4	-1E+10	1	-1E+10	1	-1E+10	1	-1E+10	1	-1E+10	1	-1E+10	1
4901784	149	C	08/03/2019	10:40	-132.304	43.047	0	115.20	0	8.7350	0	34.3680	8	26.667	0	114.254	0	241.5	4	85.2	4	-1E+10	1	-1E+10	1	-1E+10	1	-1E+10	1	-1E+10	1	-1E+10	1
4901784	149	C	08/03/2019	10:40	-132.304	43.047	0	117.60	0	8.6520	0	34.4280	8	26.727	0	116.633	0	237.2	4	83.5	4	-1E+10	1	-1E+10	1	-1E+10	1	-1E+10	1	-1E+10	1	-1E+10	1
4901784	149	C	08/03/2019	10:40	-132.304	43.047	0	120.00	0	8.9600	0	34.5690	8	26.789	0	119.013	0	232.2	4	82.4	4	-1E+10	1	-1E+10	1	-1E+10	1	-1E+10	1	-1E+10	1	-1E+10	1
4901784	149	C	08/03/2019	10:40	-132.304	43.047	0	122.30	0	9.0260	0	34.5960	8	26.800	0	121.293	0	230.5	4	82.0	4	-1E+10	1	-1E+10	1	-1E+10	1	-1E+10	1	-1E+10	1	-1E+10	1
4901784	149	C	08/03/2019	10:40	-132.304	43.047	0	124.70	0	8.7740	0	34.5960	8	26.840	0	123.673	0	230.2	4	81.4	4	-1E+10	1	-1E+10	1	-1E+10	1	-1E+10	1	-1E+10	1	-1E+10	1
4901784	149	C	08/03/2019	10:40	-132.304	43.047	0	128.00	0	8.4840	0	34.6360	8	26.917	0	126.944	0	229.9	4	80.8	4	-1E+10	1	-1E+10	1	-1E+10	1	-1E+10	1	-1E+10	1	-1E+10	1
4901784	149	C	08/03/2019	10:40	-132.304	43.047	0	130.40	0	8.3290	0	34.6750	8	26.971	0	129.324	0	229.1	4	80.2	4	-1E+10	1	-1E+10	1	-1E+10	1	-1E+10	1	-1E+10	1	-1E+10	1
4901784	149	C	08/03/2019	10:40	-132.304	43.047	0	132.10	0	8.3590	0	34.6960	8	26.983	0	131.009	0	228.3	4	80.0	4	-1E+10	1	-1E+10	1	-1E+10	1	-1E+10	1	-1E+10	1	-1E+10	1
4901784	149	C	08/03/2019	10:40	-132.304	43.047	0	134.60	0	8.2270	0	34.7190	8	27.021	0	133.488	0	227.4	4	79.5	4	-1E+10	1	-1E+10	1	-1E+10	1	-1E+10	1	-1E+10	1	-1E+10	1
4901784	149	C	08/03/2019	10:40	-132.304	43.047	0	137.70	0	8.1870	0	34.7950	8	27.087	0	136.561	0	226.0	4	79.0	4	-1E+10	1	-1E+10	1	-1E+10	1	-1E+10	1	-1E+10	1	-1E+10	1
4901784	149	C	08/03/2019	10:40	-132.304	43.047	0	140.20	0	8.1260	0	34.8230	8	27.118	0	139.040	0	225.1	4	78.6	4	-1E+10	1	-1E+10	1	-1E+10	1	-1E+10	1	-1E+10	1	-1E+10	1
4901784	149	C	08/03/2019	10:40	-132.304	43.047	0	142.30	0	8.1110	0	34.8660	8	27.154	0	141.122	0	224.1	4	78.2	4	-1E+10	1	-1E+10	1	-1E+10	1	-1E+10	1	-1E+10	1	-1E+10	1
4901784	149	C	08/03/2019	10:40	-132.304	43.047	0	144.60	0	8.0780	0	34.9000	8	27.186	0	143.402	0	223.1	4	77.8	4	-1E+10	1	-1E+10	1	-1E+10	1	-1E+10	1	-1E+10	1	-1E+10	1
4901784	149	C	08/03/2019	10:40	-132.304	43.047	0	147.60	0	8.0330	0	34.9490	8	27.231	0	146.376	0	221.7	4	77.3	4	-1E+10	1	-1E+10	1	-1E+10	1	-1E+10	1	-1E+10	1	-1E+10	1
4901784	149	C	08/03/2019	10:40	-132.304	43.047	0	150.00	0	8.0130	0	34.9810	8	27.260	0	148.755	0	220.3	4	76.8	4	-1E+10	1	-1E+10	1	-1E+10	1	-1E+10	1	-1E+10	1	-1E+10	1
4901784	149	C	08/03/2019	10:40	-132.304	43.047	0	152.60	0	7.9800	0	35.0550	8	27.323	0	151.333	0	218.8	4	76.3	4	-1E+10	1	-1E+10	1	-1E+10	1	-1E+10	1	-1E+10	1	-1E+10	1
4901784	149	C	08/03/2019	10:40	-132.304	43.047	0	155.20	0	7.9520	0	35.1130	8	27.373	0	153.910	0	217.4	4	75.8	4	-1E+10	1	-1E+10	1	-1E+10	1	-1E+10	1	-1E+10	1	-1E+10	1
4901784	149	C	08/03/2019	10:40	-132.304	43.047	0	157.80	0	7.9470	0	35.1250	8	27.383	0	156.487	0	215.7	4	75.2	4	-1E+10	1	-1E+10	1	-1E+10	1	-1E+10	1	-1E+10	1	-1E+10	1
4901784	149	C	08/03/2019	10:40	-132.304	43.047	0	160.30	0	7.9250	0	35.1860	8	27.434	0	158.966	0	213.4	4	74.4	4	-1E+10	1	-1E+10	1	-1E+10	1	-1E+10	1	-1E+10	1	-1E+10	1
4901784	149	C	08/03/2019	10:40	-132.304	43.047	0	162.00	0	7.9110	0	35.2340	8	27.474	0	160.651	0	211.8	4	73.8	4	-1E+10	1	-1E+10	1	-1E+10	1	-1E+10	1	-1E+10	1	-1E+10	1
4901784	149	C	08/03/2019	10:40	-132.304	43.047	0	164.70	0	7.8900	0	35.2930	8	27.523	0	163.327	0	209.6	4	73.0	4	-1E+10	1	-1E+10	1	-1E+10	1	-1E+10	1	-1E+10	1	-1E+10	1
4901784	149	C	08/03/2019	10:40	-132.304	43.047	0	167.90	0	7.8550	0	35.3570	8	27.579	0	166.499	0	206.7	4	72.0	4	-1E+10	1	-1E+10	1	-1E+10	1	-1E+10	1	-1E+10	1	-1E+10	1
4901784	149	C	08/03/2019	10:40	-132.304	43.047	0	170.30	0	7.8620	0	35.4390	8	27.642	0	168.878	0	203.1	4	70.8	4	-1E+10	1	-1E+10	1	-1E+10	1	-1E+10	1	-1E+10	1	-1E+10	1
4901784	149	C	08/03/2019	10:40	-132.304	43.047	0	172.50	0	7.8860	0	35.5020	8	27.688	0	171.059	0	200.6	4	70.0	4	-1E+10	1	-1E+10	1	-1E+10	1	-1E+10	1	-1E+10	1	-1E+10	1
4901784	149	C	08/03/2019	10:40	-132.304	43.047	0	174.70	0	7.8990	0	35.5170	8	27.698	0	173.240	0	198.2	4	69.2	4	-1E+10	1	-1E+10	1	-1E+10	1	-1E+10	1	-1E+10	1	-1E+10	1
4901784	149	C	08/03/2019	10:40	-132.304	43.047	0	177.80	0	7.9430	0	35.5630	8	27.728	0	176.313	0	193.7	4	67.7	4	-1E+10	1	-1E+10	1	-1E+10	1	-1E+10	1	-1E+10	1	-1E+10	1
4901784	149	C	08/03/2019	10:40	-132.304	43.047	0	180.20	0	7.9810	0	35.6100	8	27.759	0	178.691	0	190.0	4	66.5	4	-1E+10	1	-1E+10	1	-1E+10	1	-1E+10	1	-1E+10	1	-1E+10	1
4901784	149	C	08/03/2019	10:40	-132.304	43.047	0	182.60	0	8.0260	0	35.6680	8	27.798	0	181.070	0	187.0	4	65.5	4	-1E+10	1	-1E+10	1	-1E+10	1	-1E+10	1	-1E+10	1	-1E+10	1
4901784	149	C	08/03/2019	10:40	-132.304	43.047	0	185.00	0	8.0490	0	35.6970	8	27.817	0	183.449	0	184.8	4	64.8	4	-1E+10	1	-1E+10	1	-1E+10	1	-1E+10	1	-1E+10	1	-1E+10	1
4901784	149	C	08/03/2019	10:40	-132.304	43.047	0	187.40	0	8.0620	0	35.7150	8	27.829	0	185.828	0	183.1	4	64.2	4	-1E+10	1	-1E+10	1	-1E+10	1	-1E+10	1	-1E+10	1	-1E+10	1
4901784	149	C	08/03/2019	10:40	-132.304	43.047	0	189.80	0	8.0720	0	35.7320	8	27.841	0	188.207	0	181.5	4	63.7	4	-1E+10	1	-1E+10	1	-1E+10	1	-1E+10	1	-1E+10	1	-1E+10	1
4901784	149	C	08/03/2019	10:40	-132.304	43.047	0	192.30	0	8.0740	0	35.7380	8	27.846	0	190.685	0	180.1	4	63.2	4	-1E+10	1	-1E+10	1	-1E+10	1	-1E+10	1	-1E+10	1	-1E+10	1
4901784	149	C	08/03/2019	10:40	-132.304	43.047	0	194.70	0	8.0810	0	35.7490	8	27.853	0	193.063	0	178.2	4	62.6	4	-1E+10	1	-1E+10	1	-1E+10	1	-1E+10	1	-1E+10	1	-1E+10	1
4901784	149	C	08/03/2019	10:40	-132.304	43.047	0	197.30	0	8.0880	0	35.7640	8	27.864	0	195.640	0	176.0	4	61.8	4	-1E+10	1	-1E+10	1	-1E+10	1	-1E+10	1	-1E+10	1	-1E+10	1
4901784	149	C	08/03/2019	10:40	-132.304	43.047	0	199.80	0	8.0940	0	35.7830	8	27.878	0	198.118	0	174.0	4	61.1	4	-1E+10	1	-1E+10	1	-1E+10	1	-1E+10	1	-1E+10	1	-1E+10	1
4901784	149	C	08/03/2019	10:40	-132.304	43.047	0	202.40	0	8.0830	0	35.7970	8	27.891	0	200.695	0	171.7	4	60.3	4	-1E+10	1	-1E+10	1	-1E+10	1	-1E+10	1	-1E+10	1	-1E+10	1
4901784	149	C	08/03/2019	10:40	-132.304	43.047	0	204.90	0	8.0600	0	35.8080	8	27.903	0	203.173	0	170.1	4	59.7	4	-1E+10	1	-1E+10	1	-1E+10	1	-1E+10	1	-1E+10	1	-1E+10	1
4901784	149	C	08/03/2019	10:40	-132.304	43.047	0	207.50	0	8.0430	0	35.8170	8	27.913	0	205.749	0	168.8	4	59.2	4	-1E+10	1	-1E+10	1	-1E+10	1	-1E+10	1	-1E+10	1	-1E+10	1
4901784	149	C	08/03/2019	10:40	-132.304	43.047	0	210.10	0	8.0110	0	35.8220	8	27.922	0	208.326	0	167.1	4	58.6	4	-1E+10	1	-1E+10	1	-1E+10	1	-1E+10	1	-1E+10	1	-1E+10	1
4901784	149	C	08/03/2019	10:40	-132.304	43.047	0	212.70	0	7.9490	0	35.8280	8	27.936	0	210.903	0	165.7	4	58.0	4	-1E+10	1	-1E+10	1	-1E+10	1	-1E+10	1	-1E+10	1	-1E+10	1
4901784	149	C	08/03/2019	10:40	-132.304	43.047	0	215.30	0	7.8880	0	35.8320	8	27.948	0	213.479	0	164.5	4	57.6	4	-1E+10	1	-1E+10	1	-1E+10	1	-1E+10	1	-1E+10	1	-1E+10	1
4901784	149	C	08/03/2019	10:40	-132.304	43.047	0	217.10	0	7.8570	0	35.8320	8	27.953	0	215.263	0	163.7	4	57.2	4	-1E+10	1	-1E+10	1	-1E+10	1	-1E+10	1	-1E+10	1	-1E+10	1
4901784	149	C	08/03/2019	10:40	-132.304	43.047	0	219.80	0	7.8160	0	35.8300	8	27.958	0	217.939	0	162.4	4	56.7	4	-1E+10	1	-1E+10	1	-1E+10	1	-1E+10	1	-1E+10	1	-1E+10	1
4901784	149	C	08/03/2019	10:40	-132.304	43.047	0	222.50	0	7.7550	0	35.8300	8	27.967	0	220.615	0	161.1	4	56.2	4	-1E+10	1	-1E+10	1	-1E+10	1	-1E+10	1	-1E+10	1	-1E+10	1
4901784	149	C	08/03/2019	10:40	-132.304	43.047	0	225.30	0	7.6990	0	35.8300	8	27.975	0	223.390	0	159.7	4	55.6	4	-1E+10	1	-1E+10	1	-1E+10	1	-1E+10	1	-1E+10	1	-1E+10	1
4901784	149	C	08/03/2019	10:40	-132.304	43.047	0	228.00	0	7.6370	0	35.8290	8	27.984	0	226.065	0	158.6	4	55.2	4	-1E+10	1	-1E+10	1	-1E+10	1	-1E+10	1	-1E+10	1	-1E+10	1
4901784	149	C	08/03/2019	10:40	-132.304	43.047	0	229.70	0	7.5990	0	35.8440	8	28.001	0	227.750	0	158.0	4	54.9	4	-1E+10	1	-1E+10	1	-1E+10	1	-1E+10	1	-1E+10	1	-1E+10	1
4901784	149	C	08/03/2019	10:40	-132.304	43.047	0	232.50	0	7.5540	0	35.8430	8	28.007	0	230.524	0	157.0	4	54.5	4	-1E+10	1	-1E+10	1	-1E+10	1	-1E+10	1	-1E+10	1	-1E+10	1
4901784	149	C	08/03/2019	10:40	-132.304	43.047	0	235.30	0	7.5140	0	35.8430	8	28.013	0	233.299	0	156.2	4	54.2	4	-1E+10	1	-1E+10	1	-1E+10	1	-1E+10	1	-1E+10	1	-1E+10	1
4901784	149	C	08/03/2019	10:40	-132.304	43.047	0	237.10	0	7.4930	0	35.8420	8	28.015	0	235.083	0	155.7	4	54.0	4	-1E+10	1	-1E+10	1	-1E+10	1	-1E+10	1	-1E+10	1	-1E+10	1
4901784	149	C	08/03/2019	10:40	-132.304	43.047	0	239.90	0	7.4520	0	35.8390	8	28.019	0	237.857	0	154.7	4	53.6	4	-1E+10	1	-1E+10	1	-1E+10	1	-1E+10	1	-1E+10	1	-1E+10	1
4901784	149	C	08/03/2019	10:40	-132.304	43.047	0	242.70	0	7.4020	0	35.8370	8	28.024	0	240.632	0	153.8	4	53.2	4	-1E+10	1	-1E+10	1	-1E+10	1	-1E+10	1	-1E+10	1	-1E+10	1
4901784	149	C	08/03/2019	10:40	-132.304	43.047	0	244.50	0	7.3610	0	35.8370	8	28.030	0	242.415	0	153.4	4	53.0	4	-1E+10	1	-1E+10	1	-1E+10	1	-1E+10	1	-1E+10	1	-1E+10	1
4901784	149	C	08/03/2019	10:40	-132.304	43.047	0	247.30	0	7.3180	0	35.8370	8	28.037	0	245.190	0	152.9	4	52.8	4	-1E+10	1	-1E+10	1	-1E+10	1	-1E+10	1	-1E+10	1	-1E+10	1
4901784	149	C	08/03/2019	10:40	-132.304	43.047	0	250.10	0	7.2980	0	35.8340	8	28.037	0	247.964	0	152.3	4	52.6	4	-1E+10	1	-1E+10	1	-1E+10	1	-1E+10	1	-1E+10	1	-1E+10	1
4901784	149	C	08/03/2019	10:40	-132.304	43.047	0	252.00	0	7.2920	0	35.8330	8	28.037	0	249.847	0	151.7	4	52.3	4	-1E+10	1	-1E+10	1	-1E+10	1	-1E+10	1	-1E+10	1	-1E+10	1
4901784	149	C	08/03/2019	10:40	-132.304	43.047	0	254.70	0	7.2460	0	35.8290	8	28.041	0	252.522	0	150.9	4	52.0	4	-1E+10	1	-1E+10	1	-1E+10	1	-1E+10	1	-1E+10	1	-1E+10	1
4901784	149	C	08/03/2019	10:40	-132.304	43.047	0	257.40	0	7.1570	0	35.8300	8	28.054	0	255.198	0	149.9	4	51.6	4	-1E+10	1	-1E+10	1	-1E+10	1	-1E+10	1	-1E+10	1	-1E+10	1
4901784	149	C	08/03/2019	10:40	-132.304	43.047	0	260.20	0	7.1390	0	35.8280	8	28.055	0	257.972	0	148.2	4	51.0	4	-1E+10	1	-1E+10	1	-1E+10	1	-1E+10	1	-1E+10	1	-1E+10	1
4901784	149	C	08/03/2019	10:40	-132.304	43.047	0	263.00	0	7.1220	0	35.8280	8	28.058	0	260.746	0	146.7	4	50.4	4	-1E+10	1	-1E+10	1	-1E+10	1	-1E+10	1	-1E+10	1	-1E+10	1
4901784	149	C	08/03/2019	10:40	-132.304	43.047	0	264.90	0	7.1060	0	35.8300	8	28.062	0	262.629	0	145.7	4	50.1	4	-1E+10	1	-1E+10	1	-1E+10	1	-1E+10	1	-1E+10	1	-1E+10	1
4901784	149	C	08/03/2019	10:40	-132.304	43.047	0	267.70	0	7.0300	0	35.8290	8	28.072	0	265.403	0	144.8	4	49.7	4	-1E+10	1	-1E+10	1	-1E+10	1	-1E+10	1	-1E+10	1	-1E+10	1
4901784	149	C	08/03/2019	10:40	-132.304	43.047	0	270.40	0	7.0080	0	35.8290	8	28.075	0	268.078	0	143.6	4	49.3	4	-1E+10	1	-1E+10	1	-1E+10	1	-1E+10	1	-1E+10	1	-1E+10	1
4901784	149	C	08/03/2019	10:40	-132.304	43.047	0	272.30	0	7.0020	0	35.8260	8	28.073	0	269.960	0	142.6	4	48.9	4	-1E+10	1	-1E+10	1	-1E+10	1	-1E+10	1	-1E+10	1	-1E+10	1
4901784	149	C	08/03/2019	10:40	-132.304	43.047	0	275.20	0	6.9360	0	35.8270	8	28.084	0	272.834	0	140.6	4	48.1	4	-1E+10	1	-1E+10	1	-1E+10	1	-1E+10	1	-1E+10	1	-1E+10	1
4901784	149	C	08/03/2019	10:40	-132.304	43.047	0	278.10	0	6.9130	0	35.8290	8	28.088	0	275.707	0	138.3	4	47.3	4	-1E+10	1	-1E+10	1	-1E+10	1	-1E+10	1	-1E+10	1	-1E+10	1
4901784	149	C	08/03/2019	10:40	-132.304	43.047	0	279.90	0	6.8900	0	35.8300	8	28.092	0	277.490	0	137.5	4	47.0	4	-1E+10	1	-1E+10	1	-1E+10	1	-1E+10	1	-1E+10	1	-1E+10	1
4901784	149	C	08/03/2019	10:40	-132.304	43.047	0	282.80	0	6.8470	0	35.8290	8	28.098	0	280.363	0	136.8	4	46.7	4	-1E+10	1	-1E+10	1	-1E+10	1	-1E+10	1	-1E+10	1	-1E+10	1
4901784	149	C	08/03/2019	10:40	-132.304	43.047	0	285.60	0	6.8070	0	35.8280	8	28.102	0	283.137	0	136.0	4	46.4	4	-1E+10	1	-1E+10	1	-1E+10	1	-1E+10	1	-1E+10	1	-1E+10	1
4901784	149	C	08/03/2019	10:40	-132.304	43.047	0	287.50	0	6.7880	0	35.8260	8	28.104	0	285.019	0	135.8	4	46.3	4	-1E+10	1	-1E+10	1	-1E+10	1	-1E+10	1	-1E+10	1	-1E+10	1
4901784	149	C	08/03/2019	10:40	-132.304	43.047	0	289.40	0	6.7070	0	35.8260	8	28.115	0	286.902	0	135.3	4	46.1	4	-1E+10	1	-1E+10	1	-1E+10	1	-1E+10	1	-1E+10	1	-1E+10	1
4901784	149	C	08/03/2019	10:40	-132.304	43.047	0	292.30	0	6.7010	0	35.8260	8	28.116	0	289.774	0	133.7	4	45.5	4	-1E+10	1	-1E+10	1	-1E+10	1	-1E+10	1	-1E+10	1	-1E+10	1
4901784	149	C	08/03/2019	10:40	-132.304	43.047	0	295.10	0	6.6680	0	35.8240	8	28.119	0	292.548	0	132.6	4	45.1	4	-1E+10	1	-1E+10	1	-1E+10	1	-1E+10	1	-1E+10	1	-1E+10	1
4901784	149	C	08/03/2019	10:40	-132.304	43.047	0	297.00	0	6.6010	0	35.8250	8	28.129	0	294.431	0	131.5	4	44.7	4	-1E+10	1	-1E+10	1	-1E+10	1	-1E+10	1	-1E+10	1	-1E+10	1
4901784	149	C	08/03/2019	10:40	-132.304	43.047	0	299.80	0	6.5640	0	35.8270	8	28.135	0	297.204	0	130.1	4	44.2	4	-1E+10	1	-1E+10	1	-1E+10	1	-1E+10	1	-1E+10	1	-1E+10	1
4901784	149	C	08/03/2019	10:40	-132.304	43.047	0	302.60	0	6.5480	0	35.8250	8	28.136	0	299.978	0	128.2	4	43.5	4	-1E+10	1	-1E+10	1	-1E+10	1	-1E+10	1	-1E+10	1	-1E+10	1
4901784	149	C	08/03/2019	10:40	-132.304	43.047	0	304.40	0	6.5290	0	35.8250	8	28.138	0	301.761	0	126.7	4	43.0	4	-1E+10	1	-1E+10	1	-1E+10	1	-1E+10	1	-1E+10	1	-1E+10	1
4901784	149	C	08/03/2019	10:40	-132.304	43.047	0	307.30	0	6.4750	0	35.8280	8	28.148	0	304.634	0	124.6	4	42.2	4	-1E+10	1	-1E+10	1	-1E+10	1	-1E+10	1	-1E+10	1	-1E+10	1
4901784	149	C	08/03/2019	10:40	-132.304	43.047	0	310.00	0	6.4170	0	35.8280	8	28.156	0	307.308	0	123.0	4	41.6	4	-1E+10	1	-1E+10	1	-1E+10	1	-1E+10	1	-1E+10	1	-1E+10	1
4901784	149	C	08/03/2019	10:40	-132.304	43.047	0	311.90	0	6.3870	0	35.8290	8	28.161	0	309.191	0	122.0	4	41.3	4	-1E+10	1	-1E+10	1	-1E+10	1	-1E+10	1	-1E+10	1	-1E+10	1
4901784	149	C	08/03/2019	10:40	-132.304	43.047	0	314.80	0	6.3530	0	35.8290	8	28.165	0	312.063	0	120.5	4	40.7	4	-1E+10	1	-1E+10	1	-1E+10	1	-1E+10	1	-1E+10	1	-1E+10	1
4901784	149	C	08/03/2019	10:40	-132.304	43.047	0	317.50	0	6.3260	0	35.8280	8	28.168	0	314.738	0	118.8	4	40.1	4	-1E+10	1	-1E+10	1	-1E+10	1	-1E+10	1	-1E+10	1	-1E+10	1
4901784	149	C	08/03/2019	10:40	-132.304	43.047	0	320.30	0	6.2850	0	35.8290	8	28.175	0	317.511	0	116.8	4	39.4	4	-1E+10	1	-1E+10	1	-1E+10	1	-1E+10	1	-1E+10	1	-1E+10	1
4901784	149	C	08/03/2019	10:40	-132.304	43.047	0	323.10	0	6.2440	0	35.8290	8	28.180	0	320.285	0	114.5	4	38.6	4	-1E+10	1	-1E+10	1	-1E+10	1	-1E+10	1	-1E+10	1	-1E+10	1
4901784	149	C	08/03/2019	10:40	-132.304	43.047	0	324.90	0	6.2260	0	35.8270	8	28.181	0	322.067	0	112.7	4	38.0	4	-1E+10	1	-1E+10	1	-1E+10	1	-1E+10	1	-1E+10	1	-1E+10	1
4901784	149	C	08/03/2019	10:40	-132.304	43.047	0	327.80	0	6.1490	0	35.8260	8	28.190	0	324.940	0	109.9	4	36.9	4	-1E+10	1	-1E+10	1	-1E+10	1	-1E+10	1	-1E+10	1	-1E+10	1
4901784	149	C	08/03/2019	10:40	-132.304	43.047	0	330.60	0	6.0780	0	35.8290	8	28.202	0	327.713	0	107.8	4	36.2	4	-1E+10	1	-1E+10	1	-1E+10	1	-1E+10	1	-1E+10	1	-1E+10	1
4901784	149	C	08/03/2019	10:40	-132.304	43.047	0	332.50	0	6.0450	0	35.8290	8	28.206	0	329.595	0	107.3	4	36.0	4	-1E+10	1	-1E+10	1	-1E+10	1	-1E+10	1	-1E+10	1	-1E+10	1
4901784	149	C	08/03/2019	10:40	-132.304	43.047	0	335.30	0	6.0070	0	35.8290	8	28.211	0	332.368	0	106.2	4	35.6	4	-1E+10	1	-1E+10	1	-1E+10	1	-1E+10	1	-1E+10	1	-1E+10	1
4901784	149	C	08/03/2019	10:40	-132.304	43.047	0	338.10	0	5.9650	0	35.8290	8	28.217	0	335.142	0	104.6	4	35.0	4	-1E+10	1	-1E+10	1	-1E+10	1	-1E+10	1	-1E+10	1	-1E+10	1
4901784	149	C	08/03/2019	10:40	-132.304	43.047	0	340.70	0	5.9510	0	35.8280	8	28.218	0	337.717	0	103.9	4	34.8	4	-1E+10	1	-1E+10	1	-1E+10	1	-1E+10	1	-1E+10	1	-1E+10	1
4901784	149	C	08/03/2019	10:40	-132.304	43.047	0	342.70	0	5.9150	0	35.8290	8	28.223	0	339.698	0	103.1	4	34.5	4	-1E+10	1	-1E+10	1	-1E+10	1	-1E+10	1	-1E+10	1	-1E+10	1
4901784	149	C	08/03/2019	10:40	-132.304	43.047	0	345.10	0	5.8740	0	35.8300	8	28.229	0	342.075	0	102.8	4	34.4	4	-1E+10	1	-1E+10	1	-1E+10	1	-1E+10	1	-1E+10	1	-1E+10	1
4901784	149	C	08/03/2019	10:40	-132.304	43.047	0	347.60	0	5.8520	0	35.8290	8	28.231	0	344.551	0	102.3	4	34.2	4	-1E+10	1	-1E+10	1	-1E+10	1	-1E+10	1	-1E+10	1	-1E+10	1
4901784	149	C	08/03/2019	10:40	-132.304	43.047	0	350.00	0	5.8260	0	35.8280	8	28.234	0	346.928	0	101.5	4	33.9	4	-1E+10	1	-1E+10	1	-1E+10	1	-1E+10	1	-1E+10	1	-1E+10	1
4901784	149	C	08/03/2019	10:40	-132.304	43.047	0	352.40	0	5.7730	0	35.8290	8	28.242	0	349.305	0	100.4	4	33.5	4	-1E+10	1	-1E+10	1	-1E+10	1	-1E+10	1	-1E+10	1	-1E+10	1
4901784	149	C	08/03/2019	10:40	-132.304	43.047	0	354.80	0	5.7320	0	35.8290	8	28.247	0	351.681	0	99.1	4	33.0	4	-1E+10	1	-1E+10	1	-1E+10	1	-1E+10	1	-1E+10	1	-1E+10	1
4901784	149	C	08/03/2019	10:40	-132.304	43.047	0	357.90	0	5.6920	0	35.8290	8	28.252	0	354.752	0	97.5	4	32.4	4	-1E+10	1	-1E+10	1	-1E+10	1	-1E+10	1	-1E+10	1	-1E+10	1
4901784	149	C	08/03/2019	10:40	-132.304	43.047	0	360.40	0	5.6590	0	35.8290	8	28.256	0	357.227	0	96.4	4	32.1	4	-1E+10	1	-1E+10	1	-1E+10	1	-1E+10	1	-1E+10	1	-1E+10	1
4901784	149	C	08/03/2019	10:40	-132.304	43.047	0	362.70	0	5.6400	0	35.8280	8	28.258	0	359.505	0	95.6	4	31.8	4	-1E+10	1	-1E+10	1	-1E+10	1	-1E+10	1	-1E+10	1	-1E+10	1
4901784	149	C	08/03/2019	10:40	-132.304	43.047	0	365.20	0	5.6000	0	35.8280	8	28.263	0	361.981	0	94.6	4	31.4	4	-1E+10	1	-1E+10	1	-1E+10	1	-1E+10	1	-1E+10	1	-1E+10	1
4901784	149	C	08/03/2019	10:40	-132.304	43.047	0	367.70	0	5.5560	0	35.8300	8	28.270	0	364.457	0	94.0	4	31.2	4	-1E+10	1	-1E+10	1	-1E+10	1	-1E+10	1	-1E+10	1	-1E+10	1
4901784	149	C	08/03/2019	10:40	-132.304	43.047	0	370.10	0	5.5410	0	35.8290	8	28.271	0	366.833	0	93.1	4	30.9	4	-1E+10	1	-1E+10	1	-1E+10	1	-1E+10	1	-1E+10	1	-1E+10	1
4901784	149	C	08/03/2019	10:40	-132.304	43.047	0	372.60	0	5.5060	0	35.8300	8	28.276	0	369.309	0	91.9	4	30.5	4	-1E+10	1	-1E+10	1	-1E+10	1	-1E+10	1	-1E+10	1	-1E+10	1
4901784	149	C	08/03/2019	10:40	-132.304	43.047	0	375.10	0	5.4790	0	35.8310	8	28.280	0	371.785	0	90.9	4	30.1	4	-1E+10	1	-1E+10	1	-1E+10	1	-1E+10	1	-1E+10	1	-1E+10	1
4901784	149	C	08/03/2019	10:40	-132.304	43.047	0	377.70	0	5.4570	0	35.8310	8	28.283	0	374.360	0	90.1	4	29.8	4	-1E+10	1	-1E+10	1	-1E+10	1	-1E+10	1	-1E+10	1	-1E+10	1
4901784	149	C	08/03/2019	10:40	-132.304	43.047	0	380.10	0	5.4220	0	35.8310	8	28.287	0	376.736	0	89.6	4	29.6	4	-1E+10	1	-1E+10	1	-1E+10	1	-1E+10	1	-1E+10	1	-1E+10	1
4901784	149	C	08/03/2019	10:40	-132.304	43.047	0	382.70	0	5.3890	0	35.8320	8	28.292	0	379.311	0	89.2	4	29.5	4	-1E+10	1	-1E+10	1	-1E+10	1	-1E+10	1	-1E+10	1	-1E+10	1
4901784	149	C	08/03/2019	10:40	-132.304	43.047	0	385.20	0	5.3680	0	35.8310	8	28.294	0	381.786	0	88.5	4	29.2	4	-1E+10	1	-1E+10	1	-1E+10	1	-1E+10	1	-1E+10	1	-1E+10	1
4901784	149	C	08/03/2019	10:40	-132.304	43.047	0	387.70	0	5.3460	0	35.8330	8	28.298	0	384.262	0	87.5	4	28.9	4	-1E+10	1	-1E+10	1	-1E+10	1	-1E+10	1	-1E+10	1	-1E+10	1
4901784	149	C	08/03/2019	10:40	-132.304	43.047	0	390.30	0	5.3390	0	35.8320	8	28.298	0	386.836	0	86.6	4	28.6	4	-1E+10	1	-1E+10	1	-1E+10	1	-1E+10	1	-1E+10	1	-1E+10	1
4901784	149	C	08/03/2019	10:40	-132.304	43.047	0	392.90	0	5.3050	0	35.8340	8	28.304	0	389.411	0	85.7	4	28.3	4	-1E+10	1	-1E+10	1	-1E+10	1	-1E+10	1	-1E+10	1	-1E+10	1
4901784	149	C	08/03/2019	10:40	-132.304	43.047	0	395.40	0	5.2830	0	35.8360	8	28.308	0	391.886	0	84.5	4	27.9	4	-1E+10	1	-1E+10	1	-1E+10	1	-1E+10	1	-1E+10	1	-1E+10	1
4901784	149	C	08/03/2019	10:40	-132.304	43.047	0	397.10	0	5.2570	0	35.8360	8	28.312	0	393.570	0	83.9	4	27.6	4	-1E+10	1	-1E+10	1	-1E+10	1	-1E+10	1	-1E+10	1	-1E+10	1
4901784	149	C	08/03/2019	10:40	-132.304	43.047	0	399.80	0	5.2420	0	35.8360	8	28.313	0	396.243	0	82.2	4	27.1	4	-1E+10	1	-1E+10	1	-1E+10	1	-1E+10	1	-1E+10	1	-1E+10	1
4901784	149	C	08/03/2019	10:40	-132.304	43.047	0	402.40	0	5.2230	0	35.8380	8	28.317	0	398.817	0	79.8	4	26.2	4	-1E+10	1	-1E+10	1	-1E+10	1	-1E+10	1	-1E+10	1	-1E+10	1
4901784	149	C	08/03/2019	10:40	-132.304	43.047	0	405.00	0	5.2020	0	35.8430	8	28.324	0	401.392	0	77.4	4	25.5	4	-1E+10	1	-1E+10	1	-1E+10	1	-1E+10	1	-1E+10	1	-1E+10	1
4901784	149	C	08/03/2019	10:40	-132.304	43.047	0	407.60	0	5.1730	0	35.8480	8	28.331	0	403.966	0	75.1	4	24.7	4	-1E+10	1	-1E+10	1	-1E+10	1	-1E+10	1	-1E+10	1	-1E+10	1
4901784	149	C	08/03/2019	10:40	-132.304	43.047	0	410.30	0	5.1910	0	35.8540	8	28.334	0	406.639	0	73.2	4	24.1	4	-1E+10	1	-1E+10	1	-1E+10	1	-1E+10	1	-1E+10	1	-1E+10	1
4901784	149	C	08/03/2019	10:40	-132.304	43.047	0	412.90	0	5.1750	0	35.8560	8	28.338	0	409.213	0	72.4	4	23.8	4	-1E+10	1	-1E+10	1	-1E+10	1	-1E+10	1	-1E+10	1	-1E+10	1
4901784	149	C	08/03/2019	10:40	-132.304	43.047	0	414.70	0	5.1610	0	35.8570	8	28.340	0	410.996	0	71.9	4	23.6	4	-1E+10	1	-1E+10	1	-1E+10	1	-1E+10	1	-1E+10	1	-1E+10	1
4901784	149	C	08/03/2019	10:40	-132.304	43.047	0	417.40	0	5.1450	0	35.8590	8	28.344	0	413.669	0	71.0	4	23.3	4	-1E+10	1	-1E+10	1	-1E+10	1	-1E+10	1	-1E+10	1	-1E+10	1
4901784	149	C	08/03/2019	10:40	-132.304	43.047	0	420.10	0	5.1200	0	35.8600	8	28.347	0	416.342	0	70.0	4	23.0	4	-1E+10	1	-1E+10	1	-1E+10	1	-1E+10	1	-1E+10	1	-1E+10	1
4901784	149	C	08/03/2019	10:40	-132.304	43.047	0	422.80	0	5.0980	0	35.8630	8	28.352	0	419.015	0	69.1	4	22.7	4	-1E+10	1	-1E+10	1	-1E+10	1	-1E+10	1	-1E+10	1	-1E+10	1
4901784	149	C	08/03/2019	10:40	-132.304	43.047	0	425.40	0	5.0770	0	35.8640	8	28.356	0	421.589	0	68.2	4	22.4	4	-1E+10	1	-1E+10	1	-1E+10	1	-1E+10	1	-1E+10	1	-1E+10	1
4901784	149	C	08/03/2019	10:40	-132.304	43.047	0	427.30	0	5.0660	0	35.8640	8	28.357	0	423.470	0	67.5	4	22.2	4	-1E+10	1	-1E+10	1	-1E+10	1	-1E+10	1	-1E+10	1	-1E+10	1
4901784	149	C	08/03/2019	10:40	-132.304	43.047	0	429.90	0	5.0330	0	35.8690	8	28.365	0	426.044	0	66.7	4	21.8	4	-1E+10	1	-1E+10	1	-1E+10	1	-1E+10	1	-1E+10	1	-1E+10	1
4901784	149	C	08/03/2019	10:40	-132.304	43.047	0	432.60	0	5.0150	0	35.8710	8	28.369	0	428.717	0	65.8	4	21.6	4	-1E+10	1	-1E+10	1	-1E+10	1	-1E+10	1	-1E+10	1	-1E+10	1
4901784	149	C	08/03/2019	10:40	-132.304	43.047	0	435.30	0	4.9950	0	35.8730	8	28.373	0	431.390	0	64.9	4	21.3	4	-1E+10	1	-1E+10	1	-1E+10	1	-1E+10	1	-1E+10	1	-1E+10	1
4901784	149	C	08/03/2019	10:40	-132.304	43.047	0	438.00	0	4.9780	0	35.8750	8	28.376	0	434.063	0	64.0	4	20.9	4	-1E+10	1	-1E+10	1	-1E+10	1	-1E+10	1	-1E+10	1	-1E+10	1
4901784	149	C	08/03/2019	10:40	-132.304	43.047	0	439.80	0	4.9590	0	35.8780	8	28.381	0	435.845	0	63.4	4	20.7	4	-1E+10	1	-1E+10	1	-1E+10	1	-1E+10	1	-1E+10	1	-1E+10	1
4901784	149	C	08/03/2019	10:40	-132.304	43.047	0	442.50	0	4.9450	0	35.8800	8	28.384	0	438.518	0	62.5	4	20.4	4	-1E+10	1	-1E+10	1	-1E+10	1	-1E+10	1	-1E+10	1	-1E+10	1
4901784	149	C	08/03/2019	10:40	-132.304	43.047	0	445.20	0	4.9260	0	35.8830	8	28.389	0	441.191	0	61.6	4	20.1	4	-1E+10	1	-1E+10	1	-1E+10	1	-1E+10	1	-1E+10	1	-1E+10	1
4901784	149	C	08/03/2019	10:40	-132.304	43.047	0	447.00	0	4.9140	0	35.8860	8	28.393	0	442.973	0	61.0	4	19.9	4	-1E+10	1	-1E+10	1	-1E+10	1	-1E+10	1	-1E+10	1	-1E+10	1
4901784	149	C	08/03/2019	10:40	-132.304	43.047	0	449.80	0	4.9020	0	35.8870	8	28.395	0	445.744	0	60.3	4	19.7	4	-1E+10	1	-1E+10	1	-1E+10	1	-1E+10	1	-1E+10	1	-1E+10	1
4901784	149	C	08/03/2019	10:40	-132.304	43.047	0	452.50	0	4.8880	0	35.8890	8	28.398	0	448.417	0	59.6	4	19.5	4	-1E+10	1	-1E+10	1	-1E+10	1	-1E+10	1	-1E+10	1	-1E+10	1
4901784	149	C	08/03/2019	10:40	-132.304	43.047	0	455.20	0	4.8690	0	35.8930	8	28.404	0	451.090	0	58.8	4	19.2	4	-1E+10	1	-1E+10	1	-1E+10	1	-1E+10	1	-1E+10	1	-1E+10	1
4901784	149	C	08/03/2019	10:40	-132.304	43.047	0	457.80	0	4.8580	0	35.8950	8	28.406	0	453.664	0	58.1	4	19.0	4	-1E+10	1	-1E+10	1	-1E+10	1	-1E+10	1	-1E+10	1	-1E+10	1
4901784	149	C	08/03/2019	10:40	-132.304	43.047	0	459.70	0	4.8530	0	35.8960	8	28.408	0	455.544	0	57.7	4	18.8	4	-1E+10	1	-1E+10	1	-1E+10	1	-1E+10	1	-1E+10	1	-1E+10	1
4901784	149	C	08/03/2019	10:40	-132.304	43.047	0	462.40	0	4.8490	0	35.8970	8	28.409	0	458.217	0	56.9	4	18.6	4	-1E+10	1	-1E+10	1	-1E+10	1	-1E+10	1	-1E+10	1	-1E+10	1
4901784	149	C	08/03/2019	10:40	-132.304	43.047	0	465.10	0	4.8350	0	35.8990	8	28.412	0	460.889	0	55.9	4	18.2	4	-1E+10	1	-1E+10	1	-1E+10	1	-1E+10	1	-1E+10	1	-1E+10	1
4901784	149	C	08/03/2019	10:40	-132.304	43.047	0	466.90	0	4.8240	0	35.9010	8	28.415	0	462.671	0	55.2	4	18.0	4	-1E+10	1	-1E+10	1	-1E+10	1	-1E+10	1	-1E+10	1	-1E+10	1
4901784	149	C	08/03/2019	10:40	-132.304	43.047	0	469.70	0	4.8070	0	35.9050	8	28.420	0	465.443	0	54.0	4	17.6	4	-1E+10	1	-1E+10	1	-1E+10	1	-1E+10	1	-1E+10	1	-1E+10	1
4901784	149	C	08/03/2019	10:40	-132.304	43.047	0	472.40	0	4.7950	0	35.9090	8	28.425	0	468.115	0	53.0	4	17.3	4	-1E+10	1	-1E+10	1	-1E+10	1	-1E+10	1	-1E+10	1	-1E+10	1
4901784	149	C	08/03/2019	10:40	-132.304	43.047	0	475.20	0	4.7840	0	35.9130	8	28.430	0	470.887	0	51.9	4	16.9	4	-1E+10	1	-1E+10	1	-1E+10	1	-1E+10	1	-1E+10	1	-1E+10	1
4901784	149	C	08/03/2019	10:40	-132.304	43.047	0	477.90	0	4.7770	0	35.9150	8	28.432	0	473.559	0	51.1	4	16.6	4	-1E+10	1	-1E+10	1	-1E+10	1	-1E+10	1	-1E+10	1	-1E+10	1
4901784	149	C	08/03/2019	10:40	-132.304	43.047	0	479.70	0	4.7720	0	35.9170	8	28.434	0	475.341	0	50.4	4	16.4	4	-1E+10	1	-1E+10	1	-1E+10	1	-1E+10	1	-1E+10	1	-1E+10	1
4901784	149	C	08/03/2019	10:40	-132.304	43.047	0	482.50	0	4.7600	0	35.9210	8	28.439	0	478.112	0	49.6	4	16.1	4	-1E+10	1	-1E+10	1	-1E+10	1	-1E+10	1	-1E+10	1	-1E+10	1
4901784	149	C	08/03/2019	10:40	-132.304	43.047	0	485.30	0	4.7500	0	35.9240	8	28.442	0	480.883	0	48.7	4	15.9	4	-1E+10	1	-1E+10	1	-1E+10	1	-1E+10	1	-1E+10	1	-1E+10	1
4901784	149	C	08/03/2019	10:40	-132.304	43.047	0	487.10	0	4.7410	0	35.9270	8	28.446	0	482.665	0	48.1	4	15.7	4	-1E+10	1	-1E+10	1	-1E+10	1	-1E+10	1	-1E+10	1	-1E+10	1
4901784	149	C	08/03/2019	10:40	-132.304	43.047	0	490.00	0	4.7400	0	35.9300	8	28.448	0	485.535	0	47.1	4	15.3	4	-1E+10	1	-1E+10	1	-1E+10	1	-1E+10	1	-1E+10	1	-1E+10	1
4901784	149	C	08/03/2019	10:40	-132.304	43.047	0	492.70	0	4.7380	0	35.9320	8	28.450	0	488.207	0	46.2	4	15.0	4	-1E+10	1	-1E+10	1	-1E+10	1	-1E+10	1	-1E+10	1	-1E+10	1
4901784	149	C	08/03/2019	10:40	-132.304	43.047	0	494.60	0	4.7360	0	35.9340	8	28.452	0	490.088	0	45.5	4	14.8	4	-1E+10	1	-1E+10	1	-1E+10	1	-1E+10	1	-1E+10	1	-1E+10	1
4901784	149	C	08/03/2019	10:40	-132.304	43.047	0	497.50	0	4.7290	0	35.9390	8	28.457	0	492.958	0	44.5	4	14.5	4	-1E+10	1	-1E+10	1	-1E+10	1	-1E+10	1	-1E+10	1	-1E+10	1
4901784	149	C	08/03/2019	10:40	-132.304	43.047	0	500.30	0	4.7330	0	35.9420	8	28.459	0	495.729	0	43.7	4	14.2	4	-1E+10	1	-1E+10	1	-1E+10	1	-1E+10	1	-1E+10	1	-1E+10	1
4901784	149	C	08/03/2019	10:40	-132.304	43.047	0	505.00	0	4.7370	0	35.9480	8	28.463	0	500.380	0	42.0	4	13.7	4	-1E+10	1	-1E+10	1	-1E+10	1	-1E+10	1	-1E+10	1	-1E+10	1
4901784	149	C	08/03/2019	10:40	-132.304	43.047	0	509.60	0	4.7350	0	35.9520	8	28.467	0	504.933	0	40.8	4	13.3	4	-1E+10	1	-1E+10	1	-1E+10	1	-1E+10	1	-1E+10	1	-1E+10	1
4901784	149	C	08/03/2019	10:40	-132.304	43.047	0	515.30	0	4.7240	0	35.9580	8	28.473	0	510.573	0	39.9	4	13.0	4	-1E+10	1	-1E+10	1	-1E+10	1	-1E+10	1	-1E+10	1	-1E+10	1
4901784	149	C	08/03/2019	10:40	-132.304	43.047	0	520.10	0	4.6990	0	35.9570	8	28.475	0	515.323	0	39.6	4	12.9	4	-1E+10	1	-1E+10	1	-1E+10	1	-1E+10	1	-1E+10	1	-1E+10	1
4901784	149	C	08/03/2019	10:40	-132.304	43.047	0	524.70	0	4.6570	0	35.9620	8	28.484	0	519.875	0	38.8	4	12.6	4	-1E+10	1	-1E+10	1	-1E+10	1	-1E+10	1	-1E+10	1	-1E+10	1
4901784	149	C	08/03/2019	10:40	-132.304	43.047	0	529.40	0	4.6320	0	35.9660	8	28.490	0	524.526	0	37.7	4	12.3	4	-1E+10	1	-1E+10	1	-1E+10	1	-1E+10	1	-1E+10	1	-1E+10	1
4901784	149	C	08/03/2019	10:40	-132.304	43.047	0	534.20	0	4.6280	0	35.9700	8	28.493	0	529.276	0	36.6	4	11.9	4	-1E+10	1	-1E+10	1	-1E+10	1	-1E+10	1	-1E+10	1	-1E+10	1
4901784	149	C	08/03/2019	10:40	-132.304	43.047	0	539.60	0	4.6190	0	35.9770	8	28.500	0	534.619	0	34.4	4	11.2	4	-1E+10	1	-1E+10	1	-1E+10	1	-1E+10	1	-1E+10	1	-1E+10	1
4901784	149	C	08/03/2019	10:40	-132.304	43.047	0	544.30	0	4.6440	0	35.9890	8	28.507	0	539.270	0	32.0	4	10.4	4	-1E+10	1	-1E+10	1	-1E+10	1	-1E+10	1	-1E+10	1	-1E+10	1
4901784	149	C	08/03/2019	10:40	-132.304	43.047	0	549.90	0	4.6480	0	35.9960	8	28.512	0	544.811	0	30.7	4	10.0	4	-1E+10	1	-1E+10	1	-1E+10	1	-1E+10	1	-1E+10	1	-1E+10	1
4901784	149	C	08/03/2019	10:40	-132.304	43.047	0	555.70	0	4.6350	0	36.0010	8	28.517	0	550.549	0	29.6	4	9.6	4	-1E+10	1	-1E+10	1	-1E+10	1	-1E+10	1	-1E+10	1	-1E+10	1
4901784	149	C	08/03/2019	10:40	-132.304	43.047	0	560.60	0	4.6090	0	36.0060	8	28.524	0	555.397	0	29.1	4	9.4	4	-1E+10	1	-1E+10	1	-1E+10	1	-1E+10	1	-1E+10	1	-1E+10	1
4901784	149	C	08/03/2019	10:40	-132.304	43.047	0	565.70	0	4.5840	0	36.0080	8	28.529	0	560.443	0	28.6	4	9.3	4	-1E+10	1	-1E+10	1	-1E+10	1	-1E+10	1	-1E+10	1	-1E+10	1
4901784	149	C	08/03/2019	10:40	-132.304	43.047	0	570.80	0	4.5530	0	36.0120	8	28.536	0	565.489	0	27.9	4	9.1	4	-1E+10	1	-1E+10	1	-1E+10	1	-1E+10	1	-1E+10	1	-1E+10	1
4901784	149	C	08/03/2019	10:40	-132.304	43.047	0	575.00	0	4.5320	0	36.0160	8	28.541	0	569.644	0	27.4	4	8.9	4	-1E+10	1	-1E+10	1	-1E+10	1	-1E+10	1	-1E+10	1	-1E+10	1
4901784	149	C	08/03/2019	10:40	-132.304	43.047	0	579.30	0	4.5130	0	36.0250	8	28.550	0	573.898	0	26.8	4	8.7	4	-1E+10	1	-1E+10	1	-1E+10	1	-1E+10	1	-1E+10	1	-1E+10	1
4901784	149	C	08/03/2019	10:40	-132.304	43.047	0	584.50	0	4.4940	0	36.0390	8	28.564	0	579.042	0	26.4	4	8.6	4	-1E+10	1	-1E+10	1	-1E+10	1	-1E+10	1	-1E+10	1	-1E+10	1
4901784	149	C	08/03/2019	10:40	-132.304	43.047	0	589.70	0	4.4700	0	36.0410	8	28.568	0	584.186	0	26.1	4	8.5	4	-1E+10	1	-1E+10	1	-1E+10	1	-1E+10	1	-1E+10	1	-1E+10	1
4901784	149	C	08/03/2019	10:40	-132.304	43.047	0	595.00	0	4.4570	0	36.0440	8	28.572	0	589.429	0	25.7	4	8.3	4	-1E+10	1	-1E+10	1	-1E+10	1	-1E+10	1	-1E+10	1	-1E+10	1
4901784	149	C	08/03/2019	10:40	-132.304	43.047	0	600.20	0	4.4200	0	36.0460	8	28.578	0	594.573	0	25.9	4	8.4	4	-1E+10	1	-1E+10	1	-1E+10	1	-1E+10	1	-1E+10	1	-1E+10	1
4901784	149	C	08/03/2019	10:40	-132.304	43.047	0	605.50	0	4.3940	0	36.0470	8	28.582	0	599.816	0	25.8	4	8.3	4	-1E+10	1	-1E+10	1	-1E+10	1	-1E+10	1	-1E+10	1	-1E+10	1
4901784	149	C	08/03/2019	10:40	-132.304	43.047	0	610.00	0	4.3750	0	36.0500	8	28.586	0	604.267	0	25.3	4	8.2	4	-1E+10	1	-1E+10	1	-1E+10	1	-1E+10	1	-1E+10	1	-1E+10	1
4901784	149	C	08/03/2019	10:40	-132.304	43.047	0	614.50	0	4.3600	0	36.0530	8	28.590	0	608.718	0	24.9	4	8.1	4	-1E+10	1	-1E+10	1	-1E+10	1	-1E+10	1	-1E+10	1	-1E+10	1
4901784	149	C	08/03/2019	10:40	-132.304	43.047	0	619.90	0	4.3360	0	36.0560	8	28.595	0	614.060	0	24.4	4	7.9	4	-1E+10	1	-1E+10	1	-1E+10	1	-1E+10	1	-1E+10	1	-1E+10	1
4901784	149	C	08/03/2019	10:40	-132.304	43.047	0	625.30	0	4.3130	0	36.0600	8	28.601	0	619.401	0	23.9	4	7.7	4	-1E+10	1	-1E+10	1	-1E+10	1	-1E+10	1	-1E+10	1	-1E+10	1
4901784	149	C	08/03/2019	10:40	-132.304	43.047	0	629.90	0	4.3020	0	36.0640	8	28.605	0	623.950	0	23.3	4	7.5	4	-1E+10	1	-1E+10	1	-1E+10	1	-1E+10	1	-1E+10	1	-1E+10	1
4901784	149	C	08/03/2019	10:40	-132.304	43.047	0	634.40	0	4.2970	0	36.0670	8	28.608	0	628.401	0	22.3	4	7.2	4	-1E+10	1	-1E+10	1	-1E+10	1	-1E+10	1	-1E+10	1	-1E+10	1
4901784	149	C	08/03/2019	10:40	-132.304	43.047	0	639.90	0	4.2970	0	36.0760	8	28.616	0	633.841	0	20.8	4	6.7	4	-1E+10	1	-1E+10	1	-1E+10	1	-1E+10	1	-1E+10	1	-1E+10	1
4901784	149	C	08/03/2019	10:40	-132.304	43.047	0	644.50	0	4.3190	0	36.0850	8	28.620	0	638.390	0	19.9	4	6.4	4	-1E+10	1	-1E+10	1	-1E+10	1	-1E+10	1	-1E+10	1	-1E+10	1
4901784	149	C	08/03/2019	10:40	-132.304	43.047	0	649.20	0	4.2890	0	36.0880	8	28.626	0	643.038	0	19.5	4	6.3	4	-1E+10	1	-1E+10	1	-1E+10	1	-1E+10	1	-1E+10	1	-1E+10	1
4901784	149	C	08/03/2019	10:40	-132.304	43.047	0	654.60	0	4.2880	0	36.0930	8	28.630	0	648.379	0	18.7	4	6.0	4	-1E+10	1	-1E+10	1	-1E+10	1	-1E+10	1	-1E+10	1	-1E+10	1
4901784	149	C	08/03/2019	10:40	-132.304	43.047	0	659.40	0	4.2720	0	36.0990	8	28.637	0	653.126	0	18.6	4	6.0	4	-1E+10	1	-1E+10	1	-1E+10	1	-1E+10	1	-1E+10	1	-1E+10	1
4901784	149	C	08/03/2019	10:40	-132.304	43.047	0	664.30	0	4.2480	0	36.1000	8	28.640	0	657.971	0	18.5	4	6.0	4	-1E+10	1	-1E+10	1	-1E+10	1	-1E+10	1	-1E+10	1	-1E+10	1
4901784	149	C	08/03/2019	10:40	-132.304	43.047	0	669.30	0	4.2190	0	36.1020	8	28.645	0	662.916	0	18.4	4	5.9	4	-1E+10	1	-1E+10	1	-1E+10	1	-1E+10	1	-1E+10	1	-1E+10	1
4901784	149	C	08/03/2019	10:40	-132.304	43.047	0	674.20	0	4.2110	0	36.1070	8	28.650	0	667.761	0	18.2	4	5.9	4	-1E+10	1	-1E+10	1	-1E+10	1	-1E+10	1	-1E+10	1	-1E+10	1
4901784	149	C	08/03/2019	10:40	-132.304	43.047	0	679.30	0	4.1800	0	36.1060	8	28.653	0	672.804	0	18.4	4	5.9	4	-1E+10	1	-1E+10	1	-1E+10	1	-1E+10	1	-1E+10	1	-1E+10	1
4901784	149	C	08/03/2019	10:40	-132.304	43.047	0	684.40	0	4.1370	0	36.1110	8	28.661	0	677.847	0	18.1	4	5.8	4	-1E+10	1	-1E+10	1	-1E+10	1	-1E+10	1	-1E+10	1	-1E+10	1
4901784	149	C	08/03/2019	10:40	-132.304	43.047	0	689.50	0	4.1390	0	36.1150	8	28.664	0	682.890	0	17.4	4	5.6	4	-1E+10	1	-1E+10	1	-1E+10	1	-1E+10	1	-1E+10	1	-1E+10	1
4901784	149	C	08/03/2019	10:40	-132.304	43.047	0	694.70	0	4.1270	0	36.1200	8	28.670	0	688.031	0	17.2	4	5.5	4	-1E+10	1	-1E+10	1	-1E+10	1	-1E+10	1	-1E+10	1	-1E+10	1
4901784	149	C	08/03/2019	10:40	-132.304	43.047	0	699.90	0	4.1080	0	36.1190	8	28.671	0	693.173	0	16.9	4	5.4	4	-1E+10	1	-1E+10	1	-1E+10	1	-1E+10	1	-1E+10	1	-1E+10	1
4901784	149	C	08/03/2019	10:40	-132.304	43.047	0	705.20	0	4.0830	0	36.1270	8	28.680	0	698.413	0	16.3	4	5.2	4	-1E+10	1	-1E+10	1	-1E+10	1	-1E+10	1	-1E+10	1	-1E+10	1
4901784	149	C	08/03/2019	10:40	-132.304	43.047	0	710.50	0	4.0820	0	36.1320	8	28.684	0	703.653	0	15.7	4	5.0	4	-1E+10	1	-1E+10	1	-1E+10	1	-1E+10	1	-1E+10	1	-1E+10	1
4901784	149	C	08/03/2019	10:40	-132.304	43.047	0	714.90	0	4.0970	0	36.1380	8	28.688	0	708.003	0	15.5	4	5.0	4	-1E+10	1	-1E+10	1	-1E+10	1	-1E+10	1	-1E+10	1	-1E+10	1
4901784	149	C	08/03/2019	10:40	-132.304	43.047	0	719.30	0	4.0480	0	36.1370	8	28.692	0	712.353	0	15.6	4	5.0	4	-1E+10	1	-1E+10	1	-1E+10	1	-1E+10	1	-1E+10	1	-1E+10	1
4901784	149	C	08/03/2019	10:40	-132.304	43.047	0	724.70	0	4.0250	0	36.1410	8	28.698	0	717.692	0	15.4	4	4.9	4	-1E+10	1	-1E+10	1	-1E+10	1	-1E+10	1	-1E+10	1	-1E+10	1
4901784	149	C	08/03/2019	10:40	-132.304	43.047	0	730.10	0	4.0110	0	36.1430	8	28.701	0	723.030	0	15.1	4	4.8	4	-1E+10	1	-1E+10	1	-1E+10	1	-1E+10	1	-1E+10	1	-1E+10	1
4901784	149	C	08/03/2019	10:40	-132.304	43.047	0	735.60	0	3.9890	0	36.1490	8	28.708	0	728.467	0	14.7	4	4.7	4	-1E+10	1	-1E+10	1	-1E+10	1	-1E+10	1	-1E+10	1	-1E+10	1
4901784	149	C	08/03/2019	10:40	-132.304	43.047	0	740.20	0	3.9830	0	36.1550	8	28.714	0	733.015	0	14.2	4	4.6	4	-1E+10	1	-1E+10	1	-1E+10	1	-1E+10	1	-1E+10	1	-1E+10	1
4901784	149	C	08/03/2019	10:40	-132.304	43.047	0	744.70	0	3.9950	0	36.1600	8	28.716	0	737.463	0	13.9	4	4.4	4	-1E+10	1	-1E+10	1	-1E+10	1	-1E+10	1	-1E+10	1	-1E+10	1
4901784	149	C	08/03/2019	10:40	-132.304	43.047	0	750.30	0	3.9820	0	36.1640	8	28.721	0	742.999	0	13.5	4	4.3	4	-1E+10	1	-1E+10	1	-1E+10	1	-1E+10	1	-1E+10	1	-1E+10	1
4901784	149	C	08/03/2019	10:40	-132.304	43.047	0	754.90	0	3.9810	0	36.1700	8	28.726	0	747.546	0	13.1	4	4.2	4	-1E+10	1	-1E+10	1	-1E+10	1	-1E+10	1	-1E+10	1	-1E+10	1
4901784	149	C	08/03/2019	10:40	-132.304	43.047	0	759.50	0	3.9880	0	36.1740	8	28.728	0	752.093	0	12.9	4	4.1	4	-1E+10	1	-1E+10	1	-1E+10	1	-1E+10	1	-1E+10	1	-1E+10	1
4901784	149	C	08/03/2019	10:40	-132.304	43.047	0	765.20	0	3.9550	0	36.1780	8	28.735	0	757.727	0	12.7	4	4.1	4	-1E+10	1	-1E+10	1	-1E+10	1	-1E+10	1	-1E+10	1	-1E+10	1
4901784	149	C	08/03/2019	10:40	-132.304	43.047	0	769.90	0	3.9310	0	36.1830	8	28.742	0	762.372	0	12.5	4	4.0	4	-1E+10	1	-1E+10	1	-1E+10	1	-1E+10	1	-1E+10	1	-1E+10	1
4901784	149	C	08/03/2019	10:40	-132.304	43.047	0	774.60	0	3.9330	0	36.1880	8	28.745	0	767.018	0	12.1	4	3.9	4	-1E+10	1	-1E+10	1	-1E+10	1	-1E+10	1	-1E+10	1	-1E+10	1
4901784	149	C	08/03/2019	10:40	-132.304	43.047	0	780.40	0	3.9200	0	36.1920	8	28.750	0	772.750	0	12.0	4	3.8	4	-1E+10	1	-1E+10	1	-1E+10	1	-1E+10	1	-1E+10	1	-1E+10	1
4901784	149	C	08/03/2019	10:40	-132.304	43.047	0	785.10	0	3.9060	0	36.1960	8	28.755	0	777.395	0	11.9	4	3.8	4	-1E+10	1	-1E+10	1	-1E+10	1	-1E+10	1	-1E+10	1	-1E+10	1
4901784	149	C	08/03/2019	10:40	-132.304	43.047	0	789.80	0	3.9040	0	36.1990	8	28.757	0	782.040	0	11.8	4	3.8	4	-1E+10	1	-1E+10	1	-1E+10	1	-1E+10	1	-1E+10	1	-1E+10	1
4901784	149	C	08/03/2019	10:40	-132.304	43.047	0	794.60	0	3.8950	0	36.2010	8	28.760	0	786.784	0	11.7	4	3.7	4	-1E+10	1	-1E+10	1	-1E+10	1	-1E+10	1	-1E+10	1	-1E+10	1
4901784	149	C	08/03/2019	10:40	-132.304	43.047	0	799.30	0	3.8690	0	36.2030	8	28.764	0	791.429	0	11.6	4	3.7	4	-1E+10	1	-1E+10	1	-1E+10	1	-1E+10	1	-1E+10	1	-1E+10	1
4901784	149	C	08/03/2019	10:40	-132.304	43.047	0	804.60	0	3.8420	0	36.2070	8	28.770	0	796.667	0	11.6	4	3.7	4	-1E+10	1	-1E+10	1	-1E+10	1	-1E+10	1	-1E+10	1	-1E+10	1
4901784	149	C	08/03/2019	10:40	-132.304	43.047	0	809.50	0	3.8380	0	36.2090	8	28.772	0	801.509	0	11.4	4	3.6	4	-1E+10	1	-1E+10	1	-1E+10	1	-1E+10	1	-1E+10	1	-1E+10	1
4901784	149	C	08/03/2019	10:40	-132.304	43.047	0	814.40	0	3.8290	0	36.2140	8	28.777	0	806.351	0	11.3	4	3.6	4	-1E+10	1	-1E+10	1	-1E+10	1	-1E+10	1	-1E+10	1	-1E+10	1
4901784	149	C	08/03/2019	10:40	-132.304	43.047	0	819.20	0	3.8200	0	36.2170	8	28.781	0	811.094	0	11.2	4	3.6	4	-1E+10	1	-1E+10	1	-1E+10	1	-1E+10	1	-1E+10	1	-1E+10	1
4901784	149	C	08/03/2019	10:40	-132.304	43.047	0	824.90	0	3.8120	0	36.2220	8	28.786	0	816.727	0	11.0	4	3.5	4	-1E+10	1	-1E+10	1	-1E+10	1	-1E+10	1	-1E+10	1	-1E+10	1
4901784	149	C	08/03/2019	10:40	-132.304	43.047	0	830.50	0	3.8010	0	36.2260	8	28.790	0	822.260	0	10.9	4	3.5	4	-1E+10	1	-1E+10	1	-1E+10	1	-1E+10	1	-1E+10	1	-1E+10	1
4901784	149	C	08/03/2019	10:40	-132.304	43.047	0	835.40	0	3.7770	0	36.2290	8	28.795	0	827.102	0	10.9	4	3.5	4	-1E+10	1	-1E+10	1	-1E+10	1	-1E+10	1	-1E+10	1	-1E+10	1
4901784	149	C	08/03/2019	10:40	-132.304	43.047	0	840.30	0	3.7630	0	36.2320	8	28.799	0	831.944	0	10.8	4	3.5	4	-1E+10	1	-1E+10	1	-1E+10	1	-1E+10	1	-1E+10	1	-1E+10	1
4901784	149	C	08/03/2019	10:40	-132.304	43.047	0	845.30	0	3.7540	0	36.2340	8	28.801	0	836.884	0	10.8	4	3.4	4	-1E+10	1	-1E+10	1	-1E+10	1	-1E+10	1	-1E+10	1	-1E+10	1
4901784	149	C	08/03/2019	10:40	-132.304	43.047	0	850.20	0	3.7430	0	36.2350	8	28.803	0	841.725	0	10.7	4	3.4	4	-1E+10	1	-1E+10	1	-1E+10	1	-1E+10	1	-1E+10	1	-1E+10	1
4901784	149	C	08/03/2019	10:40	-132.304	43.047	0	855.30	0	3.7270	0	36.2390	8	28.808	0	846.764	0	10.6	4	3.4	4	-1E+10	1	-1E+10	1	-1E+10	1	-1E+10	1	-1E+10	1	-1E+10	1
4901784	149	C	08/03/2019	10:40	-132.304	43.047	0	860.30	0	3.7340	0	36.2460	8	28.813	0	851.704	0	10.5	4	3.3	4	-1E+10	1	-1E+10	1	-1E+10	1	-1E+10	1	-1E+10	1	-1E+10	1
4901784	149	C	08/03/2019	10:40	-132.304	43.047	0	865.20	0	3.7330	0	36.2500	8	28.817	0	856.545	0	10.4	4	3.3	4	-1E+10	1	-1E+10	1	-1E+10	1	-1E+10	1	-1E+10	1	-1E+10	1
4901784	149	C	08/03/2019	10:40	-132.304	43.047	0	870.20	0	3.7360	0	36.2530	8	28.819	0	861.485	0	10.4	4	3.3	4	-1E+10	1	-1E+10	1	-1E+10	1	-1E+10	1	-1E+10	1	-1E+10	1
4901784	149	C	08/03/2019	10:40	-132.304	43.047	0	875.30	0	3.6970	0	36.2540	8	28.824	0	866.523	0	10.4	4	3.3	4	-1E+10	1	-1E+10	1	-1E+10	1	-1E+10	1	-1E+10	1	-1E+10	1
4901784	149	C	08/03/2019	10:40	-132.304	43.047	0	880.30	0	3.7120	0	36.2590	8	28.826	0	871.463	0	10.3	4	3.3	4	-1E+10	1	-1E+10	1	-1E+10	1	-1E+10	1	-1E+10	1	-1E+10	1
4901784	149	C	08/03/2019	10:40	-132.304	43.047	0	885.40	0	3.7100	0	36.2630	8	28.829	0	876.501	0	10.3	4	3.3	4	-1E+10	1	-1E+10	1	-1E+10	1	-1E+10	1	-1E+10	1	-1E+10	1
4901784	149	C	08/03/2019	10:40	-132.304	43.047	0	890.50	0	3.6920	0	36.2620	8	28.831	0	881.539	0	10.3	4	3.3	4	-1E+10	1	-1E+10	1	-1E+10	1	-1E+10	1	-1E+10	1	-1E+10	1
4901784	149	C	08/03/2019	10:40	-132.304	43.047	0	895.60	0	3.6760	0	36.2620	8	28.832	0	886.577	0	10.3	4	3.3	4	-1E+10	1	-1E+10	1	-1E+10	1	-1E+10	1	-1E+10	1	-1E+10	1
4901784	149	C	08/03/2019	10:40	-132.304	43.047	0	900.70	0	3.6480	0	36.2640	8	28.837	0	891.614	0	10.3	4	3.3	4	-1E+10	1	-1E+10	1	-1E+10	1	-1E+10	1	-1E+10	1	-1E+10	1
4901784	149	C	08/03/2019	10:40	-132.304	43.047	0	905.00	0	3.6350	0	36.2670	8	28.841	0	895.862	0	10.3	4	3.3	4	-1E+10	1	-1E+10	1	-1E+10	1	-1E+10	1	-1E+10	1	-1E+10	1
4901784	149	C	08/03/2019	10:40	-132.304	43.047	0	909.30	0	3.6410	0	36.2700	8	28.842	0	900.109	0	10.3	4	3.3	4	-1E+10	1	-1E+10	1	-1E+10	1	-1E+10	1	-1E+10	1	-1E+10	1
4901784	149	C	08/03/2019	10:40	-132.304	43.047	0	914.40	0	3.6320	0	36.2720	8	28.845	0	905.147	0	10.3	4	3.3	4	-1E+10	1	-1E+10	1	-1E+10	1	-1E+10	1	-1E+10	1	-1E+10	1
4901784	149	C	08/03/2019	10:40	-132.304	43.047	0	919.50	0	3.6270	0	36.2780	8	28.850	0	910.184	0	10.2	4	3.3	4	-1E+10	1	-1E+10	1	-1E+10	1	-1E+10	1	-1E+10	1	-1E+10	1
4901784	149	C	08/03/2019	10:40	-132.304	43.047	0	924.60	0	3.6280	0	36.2820	8	28.853	0	915.221	0	10.2	4	3.3	4	-1E+10	1	-1E+10	1	-1E+10	1	-1E+10	1	-1E+10	1	-1E+10	1
4901784	149	C	08/03/2019	10:40	-132.304	43.047	0	929.70	0	3.6170	0	36.2840	8	28.856	0	920.258	0	10.2	4	3.3	4	-1E+10	1	-1E+10	1	-1E+10	1	-1E+10	1	-1E+10	1	-1E+10	1
4901784	149	C	08/03/2019	10:40	-132.304	43.047	0	934.80	0	3.5820	0	36.2880	8	28.863	0	925.295	0	10.2	4	3.3	4	-1E+10	1	-1E+10	1	-1E+10	1	-1E+10	1	-1E+10	1	-1E+10	1
4901784	149	C	08/03/2019	10:40	-132.304	43.047	0	940.00	0	3.5710	0	36.2900	8	28.866	0	930.431	0	10.2	4	3.3	4	-1E+10	1	-1E+10	1	-1E+10	1	-1E+10	1	-1E+10	1	-1E+10	1
4901784	149	C	08/03/2019	10:40	-132.304	43.047	0	945.20	0	3.5570	0	36.2910	8	28.868	0	935.566	0	10.3	4	3.3	4	-1E+10	1	-1E+10	1	-1E+10	1	-1E+10	1	-1E+10	1	-1E+10	1
4901784	149	C	08/03/2019	10:40	-132.304	43.047	0	950.50	0	3.5410	0	36.2960	8	28.874	0	940.800	0	10.3	4	3.3	4	-1E+10	1	-1E+10	1	-1E+10	1	-1E+10	1	-1E+10	1	-1E+10	1
4901784	149	C	08/03/2019	10:40	-132.304	43.047	0	955.70	0	3.5200	0	36.2960	8	28.876	0	945.935	0	10.2	4	3.2	4	-1E+10	1	-1E+10	1	-1E+10	1	-1E+10	1	-1E+10	1	-1E+10	1
4901784	149	C	08/03/2019	10:40	-132.304	43.047	0	960.10	0	3.4880	0	36.2970	8	28.880	0	950.280	0	10.2	4	3.2	4	-1E+10	1	-1E+10	1	-1E+10	1	-1E+10	1	-1E+10	1	-1E+10	1
4901784	149	C	08/03/2019	10:40	-132.304	43.047	0	964.60	0	3.4770	0	36.2980	8	28.882	0	954.724	0	10.2	4	3.2	4	-1E+10	1	-1E+10	1	-1E+10	1	-1E+10	1	-1E+10	1	-1E+10	1
4901784	149	C	08/03/2019	10:40	-132.304	43.047	0	969.90	0	3.4720	0	36.3000	8	28.884	0	959.958	0	10.3	4	3.3	4	-1E+10	1	-1E+10	1	-1E+10	1	-1E+10	1	-1E+10	1	-1E+10	1
4901784	149	C	08/03/2019	10:40	-132.304	43.047	0	975.30	0	3.4680	0	36.3030	8	28.887	0	965.290	0	10.4	4	3.3	4	-1E+10	1	-1E+10	1	-1E+10	1	-1E+10	1	-1E+10	1	-1E+10	1
4901784	149	C	08/03/2019	10:40	-132.304	43.047	0	979.80	0	3.4630	0	36.3060	8	28.890	0	969.733	0	10.5	4	3.3	4	-1E+10	1	-1E+10	1	-1E+10	1	-1E+10	1	-1E+10	1	-1E+10	1
4901784	149	C	08/03/2019	10:40	-132.304	43.047	0	984.30	0	3.4540	0	36.3090	8	28.893	0	974.177	0	10.5	4	3.3	4	-1E+10	1	-1E+10	1	-1E+10	1	-1E+10	1	-1E+10	1	-1E+10	1
4901784	149	C	08/03/2019	10:40	-132.304	43.047	0	989.80	0	3.4440	0	36.3120	8	28.897	0	979.607	0	10.6	4	3.4	4	-1E+10	1	-1E+10	1	-1E+10	1	-1E+10	1	-1E+10	1	-1E+10	1
4901784	149	C	08/03/2019	10:40	-132.304	43.047	0	995.40	0	3.4320	0	36.3160	8	28.901	0	985.136	0	10.7	4	3.4	4	-1E+10	1	-1E+10	1	-1E+10	1	-1E+10	1	-1E+10	1	-1E+10	1
4901784	149	C	08/03/2019	10:40	-132.304	43.047	0	1000.00	0	3.4280	0	36.3180	8	28.903	0	989.678	0	10.7	4	3.4	4	-1E+10	1	-1E+10	1	-1E+10	1	-1E+10	1	-1E+10	1	-1E+10	1
4901784	149	C	08/03/2019	10:40	-132.304	43.047	0	1004.50	0	3.4200	0	36.3190	8	28.905	0	994.121	0	10.7	4	3.4	4	-1E+10	1	-1E+10	1	-1E+10	1	-1E+10	1	-1E+10	1	-1E+10	1
4901784	149	C	08/03/2019	10:40	-132.304	43.047	0	1009.70	0	3.4090	0	36.3200	8	28.907	0	999.255	0	10.8	4	3.4	4	-1E+10	1	-1E+10	1	-1E+10	1	-1E+10	1	-1E+10	1	-1E+10	1
4901784	149	C	08/03/2019	10:40	-132.304	43.047	0	1014.50	0	3.4000	0	36.3220	8	28.909	0	1003.994	0	10.8	4	3.4	4	-1E+10	1	-1E+10	1	-1E+10	1	-1E+10	1	-1E+10	1	-1E+10	1
4901784	149	C	08/03/2019	10:40	-132.304	43.047	0	1019.30	0	3.3990	0	36.3230	8	28.910	0	1008.732	0	10.9	4	3.4	4	-1E+10	1	-1E+10	1	-1E+10	1	-1E+10	1	-1E+10	1	-1E+10	1
4901784	149	C	08/03/2019	10:40	-132.304	43.047	0	1024.30	0	3.3900	0	36.3250	8	28.913	0	1013.669	0	11.0	4	3.5	4	-1E+10	1	-1E+10	1	-1E+10	1	-1E+10	1	-1E+10	1	-1E+10	1
4901784	149	C	08/03/2019	10:40	-132.304	43.047	0	1029.30	0	3.3740	0	36.3270	8	28.916	0	1018.605	0	11.0	4	3.5	4	-1E+10	1	-1E+10	1	-1E+10	1	-1E+10	1	-1E+10	1	-1E+10	1
4901784	149	C	08/03/2019	10:40	-132.304	43.047	0	1034.20	0	3.3660	0	36.3290	8	28.918	0	1023.442	0	11.1	4	3.5	4	-1E+10	1	-1E+10	1	-1E+10	1	-1E+10	1	-1E+10	1	-1E+10	1
4901784	149	C	08/03/2019	10:40	-132.304	43.047	0	1039.20	0	3.3540	0	36.3320	8	28.922	0	1028.377	0	11.2	4	3.5	4	-1E+10	1	-1E+10	1	-1E+10	1	-1E+10	1	-1E+10	1	-1E+10	1
4901784	149	C	08/03/2019	10:40	-132.304	43.047	0	1044.30	0	3.3420	0	36.3340	8	28.925	0	1033.412	0	11.3	4	3.6	4	-1E+10	1	-1E+10	1	-1E+10	1	-1E+10	1	-1E+10	1	-1E+10	1
4901784	149	C	08/03/2019	10:40	-132.304	43.047	0	1049.40	0	3.3350	0	36.3350	8	28.926	0	1038.446	0	11.3	4	3.6	4	-1E+10	1	-1E+10	1	-1E+10	1	-1E+10	1	-1E+10	1	-1E+10	1
4901784	149	C	08/03/2019	10:40	-132.304	43.047	0	1054.60	0	3.3200	0	36.3370	8	28.929	0	1043.579	0	11.4	4	3.6	4	-1E+10	1	-1E+10	1	-1E+10	1	-1E+10	1	-1E+10	1	-1E+10	1
4901784	149	C	08/03/2019	10:40	-132.304	43.047	0	1059.70	0	3.3060	0	36.3410	8	28.934	0	1048.613	0	11.5	4	3.6	4	-1E+10	1	-1E+10	1	-1E+10	1	-1E+10	1	-1E+10	1	-1E+10	1
4901784	149	C	08/03/2019	10:40	-132.304	43.047	0	1065.00	0	3.2960	0	36.3430	8	28.937	0	1053.844	0	11.6	4	3.7	4	-1E+10	1	-1E+10	1	-1E+10	1	-1E+10	1	-1E+10	1	-1E+10	1
4901784	149	C	08/03/2019	10:40	-132.304	43.047	0	1070.30	0	3.2900	0	36.3440	8	28.938	0	1059.075	0	11.7	4	3.7	4	-1E+10	1	-1E+10	1	-1E+10	1	-1E+10	1	-1E+10	1	-1E+10	1
4901784	149	C	08/03/2019	10:40	-132.304	43.047	0	1075.50	0	3.2830	0	36.3450	8	28.940	0	1064.207	0	11.8	4	3.7	4	-1E+10	1	-1E+10	1	-1E+10	1	-1E+10	1	-1E+10	1	-1E+10	1
4901784	149	C	08/03/2019	10:40	-132.304	43.047	0	1079.90	0	3.2730	0	36.3480	8	28.943	0	1068.550	0	11.8	4	3.7	4	-1E+10	1	-1E+10	1	-1E+10	1	-1E+10	1	-1E+10	1	-1E+10	1
4901784	149	C	08/03/2019	10:40	-132.304	43.047	0	1084.60	0	3.2660	0	36.3500	8	28.945	0	1073.188	0	11.9	4	3.7	4	-1E+10	1	-1E+10	1	-1E+10	1	-1E+10	1	-1E+10	1	-1E+10	1
4901784	149	C	08/03/2019	10:40	-132.304	43.047	0	1090.10	0	3.2570	0	36.3510	8	28.947	0	1078.616	0	12.0	4	3.8	4	-1E+10	1	-1E+10	1	-1E+10	1	-1E+10	1	-1E+10	1	-1E+10	1
4901784	149	C	08/03/2019	10:40	-132.304	43.047	0	1095.40	0	3.2520	0	36.3510	8	28.948	0	1083.847	0	12.0	4	3.8	4	-1E+10	1	-1E+10	1	-1E+10	1	-1E+10	1	-1E+10	1	-1E+10	1
4901784	149	C	08/03/2019	10:40	-132.304	43.047	0	1100.20	0	3.2410	0	36.3530	8	28.950	0	1088.584	0	12.2	4	3.8	4	-1E+10	1	-1E+10	1	-1E+10	1	-1E+10	1	-1E+10	1	-1E+10	1
4901784	149	C	08/03/2019	10:40	-132.304	43.047	0	1105.30	0	3.2280	0	36.3550	8	28.953	0	1093.617	0	12.3	4	3.9	4	-1E+10	1	-1E+10	1	-1E+10	1	-1E+10	1	-1E+10	1	-1E+10	1
4901784	149	C	08/03/2019	10:40	-132.304	43.047	0	1110.40	0	3.2110	0	36.3590	8	28.958	0	1098.650	0	12.4	4	3.9	4	-1E+10	1	-1E+10	1	-1E+10	1	-1E+10	1	-1E+10	1	-1E+10	1
4901784	149	C	08/03/2019	10:40	-132.304	43.047	0	1115.50	0	3.2050	0	36.3600	8	28.959	0	1103.682	0	12.5	4	3.9	4	-1E+10	1	-1E+10	1	-1E+10	1	-1E+10	1	-1E+10	1	-1E+10	1
4901784	149	C	08/03/2019	10:40	-132.304	43.047	0	1120.60	0	3.1990	0	36.3610	8	28.961	0	1108.715	0	12.6	4	4.0	4	-1E+10	1	-1E+10	1	-1E+10	1	-1E+10	1	-1E+10	1	-1E+10	1
4901784	149	C	08/03/2019	10:40	-132.304	43.047	0	1124.90	0	3.1890	0	36.3620	8	28.963	0	1112.958	0	12.7	4	4.0	4	-1E+10	1	-1E+10	1	-1E+10	1	-1E+10	1	-1E+10	1	-1E+10	1
4901784	149	C	08/03/2019	10:40	-132.304	43.047	0	1129.20	0	3.1770	0	36.3630	8	28.965	0	1117.201	0	12.8	4	4.0	4	-1E+10	1	-1E+10	1	-1E+10	1	-1E+10	1	-1E+10	1	-1E+10	1
4901784	149	C	08/03/2019	10:40	-132.304	43.047	0	1134.50	0	3.1620	0	36.3390	8	28.947	0	1122.430	0	13.0	4	4.1	4	-1E+10	1	-1E+10	1	-1E+10	1	-1E+10	1	-1E+10	1	-1E+10	1
4901784	149	C	08/03/2019	10:40	-132.304	43.047	0	1139.70	0	3.1500	0	36.3400	8	28.949	0	1127.561	0	13.1	4	4.1	4	-1E+10	1	-1E+10	1	-1E+10	1	-1E+10	1	-1E+10	1	-1E+10	1
4901784	149	C	08/03/2019	10:40	-132.304	43.047	0	1144.90	0	3.1440	0	36.3420	8	28.951	0	1132.691	0	13.2	4	4.1	4	-1E+10	1	-1E+10	1	-1E+10	1	-1E+10	1	-1E+10	1	-1E+10	1
4901784	149	C	08/03/2019	10:40	-132.304	43.047	0	1150.20	0	3.1310	0	36.3430	8	28.953	0	1137.920	0	13.3	4	4.2	4	-1E+10	1	-1E+10	1	-1E+10	1	-1E+10	1	-1E+10	1	-1E+10	1
4901784	149	C	08/03/2019	10:40	-132.304	43.047	0	1155.40	0	3.1210	0	36.3450	8	28.956	0	1143.051	0	13.4	4	4.2	4	-1E+10	1	-1E+10	1	-1E+10	1	-1E+10	1	-1E+10	1	-1E+10	1
4901784	149	C	08/03/2019	10:40	-132.304	43.047	0	1159.80	0	3.1140	0	36.3460	8	28.957	0	1147.392	0	13.5	4	4.2	4	-1E+10	1	-1E+10	1	-1E+10	1	-1E+10	1	-1E+10	1	-1E+10	1
4901784	149	C	08/03/2019	10:40	-132.304	43.047	0	1164.30	0	3.1010	0	36.3470	8	28.960	0	1151.831	0	13.6	4	4.3	4	-1E+10	1	-1E+10	1	-1E+10	1	-1E+10	1	-1E+10	1	-1E+10	1
4901784	149	C	08/03/2019	10:40	-132.304	43.047	0	1169.60	0	3.0890	0	36.3500	8	28.963	0	1157.060	0	13.7	4	4.3	4	-1E+10	1	-1E+10	1	-1E+10	1	-1E+10	1	-1E+10	1	-1E+10	1
4901784	149	C	08/03/2019	10:40	-132.304	43.047	0	1175.00	0	3.0840	0	36.3500	8	28.964	0	1162.387	0	13.8	4	4.3	4	-1E+10	1	-1E+10	1	-1E+10	1	-1E+10	1	-1E+10	1	-1E+10	1
4901784	149	C	08/03/2019	10:40	-132.304	43.047	0	1180.40	0	3.0780	0	36.3510	8	28.965	0	1167.714	0	14.0	4	4.4	4	-1E+10	1	-1E+10	1	-1E+10	1	-1E+10	1	-1E+10	1	-1E+10	1
4901784	149	C	08/03/2019	10:40	-132.304	43.047	0	1184.90	0	3.0700	0	36.3530	8	28.967	0	1172.153	0	14.1	4	4.4	4	-1E+10	1	-1E+10	1	-1E+10	1	-1E+10	1	-1E+10	1	-1E+10	1
4901784	149	C	08/03/2019	10:40	-132.304	43.047	0	1189.40	0	3.0630	0	36.3540	8	28.969	0	1176.592	0	14.2	4	4.5	4	-1E+10	1	-1E+10	1	-1E+10	1	-1E+10	1	-1E+10	1	-1E+10	1
4901784	149	C	08/03/2019	10:40	-132.304	43.047	0	1194.70	0	3.0540	0	36.3550	8	28.971	0	1181.820	0	14.3	4	4.5	4	-1E+10	1	-1E+10	1	-1E+10	1	-1E+10	1	-1E+10	1	-1E+10	1
4901784	149	C	08/03/2019	10:40	-132.304	43.047	0	1200.10	0	3.0440	0	36.3660	8	28.980	0	1187.147	0	14.4	4	4.5	4	-1E+10	1	-1E+10	1	-1E+10	1	-1E+10	1	-1E+10	1	-1E+10	1
4901784	149	C	08/03/2019	10:40	-132.304	43.047	0	1205.50	0	3.0320	0	36.3870	8	28.998	0	1192.473	0	14.6	4	4.6	4	-1E+10	1	-1E+10	1	-1E+10	1	-1E+10	1	-1E+10	1	-1E+10	1
4901784	149	C	08/03/2019	10:40	-132.304	43.047	0	1210.10	0	3.0260	0	36.3870	8	28.999	0	1197.011	0	14.7	4	4.6	4	-1E+10	1	-1E+10	1	-1E+10	1	-1E+10	1	-1E+10	1	-1E+10	1
4901784	149	C	08/03/2019	10:40	-132.304	43.047	0	1214.60	0	3.0120	0	36.3900	8	29.003	0	1201.449	0	14.9	4	4.7	4	-1E+10	1	-1E+10	1	-1E+10	1	-1E+10	1	-1E+10	1	-1E+10	1
4901784	149	C	08/03/2019	10:40	-132.304	43.047	0	1220.00	0	3.0000	0	36.3920	8	29.006	0	1206.775	0	15.1	4	4.7	4	-1E+10	1	-1E+10	1	-1E+10	1	-1E+10	1	-1E+10	1	-1E+10	1
4901784	149	C	08/03/2019	10:40	-132.304	43.047	0	1225.00	0	2.9920	0	36.3930	8	29.007	0	1211.707	0	15.3	4	4.8	4	-1E+10	1	-1E+10	1	-1E+10	1	-1E+10	1	-1E+10	1	-1E+10	1
4901784	149	C	08/03/2019	10:40	-132.304	43.047	0	1230.00	0	2.9830	0	36.3940	8	29.009	0	1216.638	0	15.4	4	4.8	4	-1E+10	1	-1E+10	1	-1E+10	1	-1E+10	1	-1E+10	1	-1E+10	1
4901784	149	C	08/03/2019	10:40	-132.304	43.047	0	1235.10	0	2.9740	0	36.3950	8	29.011	0	1221.668	0	15.6	4	4.9	4	-1E+10	1	-1E+10	1	-1E+10	1	-1E+10	1	-1E+10	1	-1E+10	1
4901784	149	C	08/03/2019	10:40	-132.304	43.047	0	1240.00	0	2.9610	0	36.3980	8	29.014	0	1226.500	0	15.7	4	4.9	4	-1E+10	1	-1E+10	1	-1E+10	1	-1E+10	1	-1E+10	1	-1E+10	1
4901784	149	C	08/03/2019	10:40	-132.304	43.047	0	1245.10	0	2.9520	0	36.3980	8	29.015	0	1231.530	0	15.9	4	5.0	4	-1E+10	1	-1E+10	1	-1E+10	1	-1E+10	1	-1E+10	1	-1E+10	1
4901784	149	C	08/03/2019	10:40	-132.304	43.047	0	1250.20	0	2.9430	0	36.4000	8	29.018	0	1236.559	0	16.1	4	5.0	4	-1E+10	1	-1E+10	1	-1E+10	1	-1E+10	1	-1E+10	1	-1E+10	1
4901784	149	C	08/03/2019	10:40	-132.304	43.047	0	1255.30	0	2.9330	0	36.4010	8	29.019	0	1241.588	0	16.2	4	5.1	4	-1E+10	1	-1E+10	1	-1E+10	1	-1E+10	1	-1E+10	1	-1E+10	1
4901784	149	C	08/03/2019	10:40	-132.304	43.047	0	1260.40	0	2.9230	0	36.4030	8	29.022	0	1246.618	0	16.4	4	5.1	4	-1E+10	1	-1E+10	1	-1E+10	1	-1E+10	1	-1E+10	1	-1E+10	1
4901784	149	C	08/03/2019	10:40	-132.304	43.047	0	1265.60	0	2.9170	0	36.4040	8	29.023	0	1251.745	0	16.5	4	5.2	4	-1E+10	1	-1E+10	1	-1E+10	1	-1E+10	1	-1E+10	1	-1E+10	1
4901784	149	C	08/03/2019	10:40	-132.304	43.047	0	1269.90	0	2.9060	0	36.4050	8	29.025	0	1255.985	0	16.7	4	5.2	4	-1E+10	1	-1E+10	1	-1E+10	1	-1E+10	1	-1E+10	1	-1E+10	1
4901784	149	C	08/03/2019	10:40	-132.304	43.047	0	1274.30	0	2.8970	0	36.4070	8	29.028	0	1260.324	0	16.8	4	5.3	4	-1E+10	1	-1E+10	1	-1E+10	1	-1E+10	1	-1E+10	1	-1E+10	1
4901784	149	C	08/03/2019	10:40	-132.304	43.047	0	1279.50	0	2.8910	0	36.4080	8	29.029	0	1265.451	0	16.9	4	5.3	4	-1E+10	1	-1E+10	1	-1E+10	1	-1E+10	1	-1E+10	1	-1E+10	1
4901784	149	C	08/03/2019	10:40	-132.304	43.047	0	1284.70	0	2.8850	0	36.4080	8	29.030	0	1270.578	0	17.1	4	5.3	4	-1E+10	1	-1E+10	1	-1E+10	1	-1E+10	1	-1E+10	1	-1E+10	1
4901784	149	C	08/03/2019	10:40	-132.304	43.047	0	1289.90	0	2.8780	0	36.4090	8	29.031	0	1275.706	0	17.2	4	5.4	4	-1E+10	1	-1E+10	1	-1E+10	1	-1E+10	1	-1E+10	1	-1E+10	1
4901784	149	C	08/03/2019	10:40	-132.304	43.047	0	1295.20	0	2.8660	0	36.4100	8	29.033	0	1280.931	0	17.3	4	5.4	4	-1E+10	1	-1E+10	1	-1E+10	1	-1E+10	1	-1E+10	1	-1E+10	1
4901784	149	C	08/03/2019	10:40	-132.304	43.047	0	1300.50	0	2.8570	0	36.4120	8	29.036	0	1286.157	0	17.6	4	5.5	4	-1E+10	1	-1E+10	1	-1E+10	1	-1E+10	1	-1E+10	1	-1E+10	1
4901784	149	C	08/03/2019	10:40	-132.304	43.047	0	1305.00	0	2.8500	0	36.4130	8	29.037	0	1290.593	0	17.7	4	5.5	4	-1E+10	1	-1E+10	1	-1E+10	1	-1E+10	1	-1E+10	1	-1E+10	1
4901784	149	C	08/03/2019	10:40	-132.304	43.047	0	1309.50	0	2.8430	0	36.4140	8	29.039	0	1295.030	0	17.9	4	5.6	4	-1E+10	1	-1E+10	1	-1E+10	1	-1E+10	1	-1E+10	1	-1E+10	1
4901784	149	C	08/03/2019	10:40	-132.304	43.047	0	1314.90	0	2.8330	0	36.4150	8	29.040	0	1300.353	0	18.1	4	5.7	4	-1E+10	1	-1E+10	1	-1E+10	1	-1E+10	1	-1E+10	1	-1E+10	1
4901784	149	C	08/03/2019	10:40	-132.304	43.047	0	1320.20	0	2.8160	0	36.4180	8	29.044	0	1305.578	0	18.4	4	5.7	4	-1E+10	1	-1E+10	1	-1E+10	1	-1E+10	1	-1E+10	1	-1E+10	1
4901784	149	C	08/03/2019	10:40	-132.304	43.047	0	1325.60	0	2.8080	0	36.4190	8	29.046	0	1310.902	0	18.6	4	5.8	4	-1E+10	1	-1E+10	1	-1E+10	1	-1E+10	1	-1E+10	1	-1E+10	1
4901784	149	C	08/03/2019	10:40	-132.304	43.047	0	1330.00	0	2.8040	0	36.4200	8	29.047	0	1315.239	0	18.7	4	5.8	4	-1E+10	1	-1E+10	1	-1E+10	1	-1E+10	1	-1E+10	1	-1E+10	1
4901784	149	C	08/03/2019	10:40	-132.304	43.047	0	1334.50	0	2.8010	0	36.4200	8	29.047	0	1319.675	0	18.9	4	5.9	4	-1E+10	1	-1E+10	1	-1E+10	1	-1E+10	1	-1E+10	1	-1E+10	1
4901784	149	C	08/03/2019	10:40	-132.304	43.047	0	1339.80	0	2.7890	0	36.4220	8	29.050	0	1324.900	0	19.1	4	6.0	4	-1E+10	1	-1E+10	1	-1E+10	1	-1E+10	1	-1E+10	1	-1E+10	1
4901784	149	C	08/03/2019	10:40	-132.304	43.047	0	1345.10	0	2.7790	0	36.4240	8	29.053	0	1330.124	0	19.4	4	6.0	4	-1E+10	1	-1E+10	1	-1E+10	1	-1E+10	1	-1E+10	1	-1E+10	1
4901784	149	C	08/03/2019	10:40	-132.304	43.047	0	1350.50	0	2.7710	0	36.4240	8	29.054	0	1335.447	0	19.6	4	6.1	4	-1E+10	1	-1E+10	1	-1E+10	1	-1E+10	1	-1E+10	1	-1E+10	1
4901784	149	C	08/03/2019	10:40	-132.304	43.047	0	1355.00	0	2.7610	0	36.4260	8	29.056	0	1339.882	0	19.8	4	6.2	4	-1E+10	1	-1E+10	1	-1E+10	1	-1E+10	1	-1E+10	1	-1E+10	1
4901784	149	C	08/03/2019	10:40	-132.304	43.047	0	1359.50	0	2.7540	0	36.4270	8	29.058	0	1344.318	0	20.0	4	6.2	4	-1E+10	1	-1E+10	1	-1E+10	1	-1E+10	1	-1E+10	1	-1E+10	1
4901784	149	C	08/03/2019	10:40	-132.304	43.047	0	1364.80	0	2.7420	0	36.4290	8	29.060	0	1349.542	0	20.3	4	6.3	4	-1E+10	1	-1E+10	1	-1E+10	1	-1E+10	1	-1E+10	1	-1E+10	1
4901784	149	C	08/03/2019	10:40	-132.304	43.047	0	1370.20	0	2.7340	0	36.4300	8	29.062	0	1354.864	0	20.5	4	6.4	4	-1E+10	1	-1E+10	1	-1E+10	1	-1E+10	1	-1E+10	1	-1E+10	1
4901784	149	C	08/03/2019	10:40	-132.304	43.047	0	1374.80	0	2.7310	0	36.4310	8	29.063	0	1359.398	0	20.6	4	6.4	4	-1E+10	1	-1E+10	1	-1E+10	1	-1E+10	1	-1E+10	1	-1E+10	1
4901784	149	C	08/03/2019	10:40	-132.304	43.047	0	1379.40	0	2.7250	0	36.4310	8	29.064	0	1363.931	0	20.9	4	6.5	4	-1E+10	1	-1E+10	1	-1E+10	1	-1E+10	1	-1E+10	1	-1E+10	1
4901784	149	C	08/03/2019	10:40	-132.304	43.047	0	1384.90	0	2.7130	0	36.4330	8	29.066	0	1369.352	0	21.3	4	6.6	4	-1E+10	1	-1E+10	1	-1E+10	1	-1E+10	1	-1E+10	1	-1E+10	1
4901784	149	C	08/03/2019	10:40	-132.304	43.047	0	1390.30	0	2.7000	0	36.4360	8	29.070	0	1374.674	0	21.7	4	6.7	4	-1E+10	1	-1E+10	1	-1E+10	1	-1E+10	1	-1E+10	1	-1E+10	1
4901784	149	C	08/03/2019	10:40	-132.304	43.047	0	1395.70	0	2.6910	0	36.4370	8	29.072	0	1379.995	0	21.9	4	6.8	4	-1E+10	1	-1E+10	1	-1E+10	1	-1E+10	1	-1E+10	1	-1E+10	1
4901784	149	C	08/03/2019	10:40	-132.304	43.047	0	1400.40	0	2.6840	0	36.4380	8	29.073	0	1384.627	0	22.2	4	6.9	4	-1E+10	1	-1E+10	1	-1E+10	1	-1E+10	1	-1E+10	1	-1E+10	1
4901784	149	C	08/03/2019	10:40	-132.304	43.047	0	1405.30	0	2.6690	0	36.4400	8	29.076	0	1389.456	0	22.4	4	7.0	4	-1E+10	1	-1E+10	1	-1E+10	1	-1E+10	1	-1E+10	1	-1E+10	1
4901784	149	C	08/03/2019	10:40	-132.304	43.047	0	1410.20	0	2.6630	0	36.4410	8	29.077	0	1394.284	0	22.7	4	7.0	4	-1E+10	1	-1E+10	1	-1E+10	1	-1E+10	1	-1E+10	1	-1E+10	1
4901784	149	C	08/03/2019	10:40	-132.304	43.047	0	1415.10	0	2.6600	0	36.4420	8	29.079	0	1399.113	0	22.8	4	7.1	4	-1E+10	1	-1E+10	1	-1E+10	1	-1E+10	1	-1E+10	1	-1E+10	1
4901784	149	C	08/03/2019	10:40	-132.304	43.047	0	1420.00	0	2.6550	0	36.4420	8	29.079	0	1403.941	0	23.1	4	7.2	4	-1E+10	1	-1E+10	1	-1E+10	1	-1E+10	1	-1E+10	1	-1E+10	1
4901784	149	C	08/03/2019	10:40	-132.304	43.047	0	1425.00	0	2.6490	0	36.4430	8	29.080	0	1408.868	0	23.3	4	7.3	4	-1E+10	1	-1E+10	1	-1E+10	1	-1E+10	1	-1E+10	1	-1E+10	1
4901784	149	C	08/03/2019	10:40	-132.304	43.047	0	1430.00	0	2.6400	0	36.4440	8	29.082	0	1413.794	0	23.5	4	7.3	4	-1E+10	1	-1E+10	1	-1E+10	1	-1E+10	1	-1E+10	1	-1E+10	1
4901784	149	C	08/03/2019	10:40	-132.304	43.047	0	1435.00	0	2.6330	0	36.4450	8	29.084	0	1418.721	0	23.8	4	7.4	4	-1E+10	1	-1E+10	1	-1E+10	1	-1E+10	1	-1E+10	1	-1E+10	1
4901784	149	C	08/03/2019	10:40	-132.304	43.047	0	1440.00	0	2.6190	0	36.4470	8	29.086	0	1423.647	0	24.2	4	7.5	4	-1E+10	1	-1E+10	1	-1E+10	1	-1E+10	1	-1E+10	1	-1E+10	1
4901784	149	C	08/03/2019	10:40	-132.304	43.047	0	1445.10	0	2.6140	0	36.4470	8	29.087	0	1428.672	0	24.5	4	7.6	4	-1E+10	1	-1E+10	1	-1E+10	1	-1E+10	1	-1E+10	1	-1E+10	1
4901784	149	C	08/03/2019	10:40	-132.304	43.047	0	1450.20	0	2.6000	0	36.4490	8	29.090	0	1433.697	0	24.8	4	7.7	4	-1E+10	1	-1E+10	1	-1E+10	1	-1E+10	1	-1E+10	1	-1E+10	1
4901784	149	C	08/03/2019	10:40	-132.304	43.047	0	1455.30	0	2.5920	0	36.4510	8	29.092	0	1438.722	0	25.1	4	7.8	4	-1E+10	1	-1E+10	1	-1E+10	1	-1E+10	1	-1E+10	1	-1E+10	1
4901784	149	C	08/03/2019	10:40	-132.304	43.047	0	1460.50	0	2.5870	0	36.4510	8	29.093	0	1443.845	0	25.3	4	7.8	4	-1E+10	1	-1E+10	1	-1E+10	1	-1E+10	1	-1E+10	1	-1E+10	1
4901784	149	C	08/03/2019	10:40	-132.304	43.047	0	1465.70	0	2.5810	0	36.4520	8	29.094	0	1448.967	0	25.6	4	7.9	4	-1E+10	1	-1E+10	1	-1E+10	1	-1E+10	1	-1E+10	1	-1E+10	1
4901784	149	C	08/03/2019	10:40	-132.304	43.047	0	1470.10	0	2.5720	0	36.4540	8	29.096	0	1453.302	0	25.8	4	8.0	4	-1E+10	1	-1E+10	1	-1E+10	1	-1E+10	1	-1E+10	1	-1E+10	1
4901784	149	C	08/03/2019	10:40	-132.304	43.047	0	1474.50	0	2.5680	0	36.4540	8	29.097	0	1457.637	0	26.0	4	8.1	4	-1E+10	1	-1E+10	1	-1E+10	1	-1E+10	1	-1E+10	1	-1E+10	1
4901784	149	C	08/03/2019	10:40	-132.304	43.047	0	1479.80	0	2.5640	0	36.4550	8	29.098	0	1462.858	0	26.2	4	8.1	4	-1E+10	1	-1E+10	1	-1E+10	1	-1E+10	1	-1E+10	1	-1E+10	1
4901784	149	C	08/03/2019	10:40	-132.304	43.047	0	1485.10	0	2.5600	0	36.4560	8	29.099	0	1468.079	0	26.4	4	8.2	4	-1E+10	1	-1E+10	1	-1E+10	1	-1E+10	1	-1E+10	1	-1E+10	1
4901784	149	C	08/03/2019	10:40	-132.304	43.047	0	1490.50	0	2.5500	0	36.4560	8	29.100	0	1473.398	0	26.5	4	8.2	4	-1E+10	1	-1E+10	1	-1E+10	1	-1E+10	1	-1E+10	1	-1E+10	1
4901784	149	C	08/03/2019	10:40	-132.304	43.047	0	1494.90	0	2.5450	0	36.4570	8	29.101	0	1477.732	0	26.7	4	8.3	4	-1E+10	1	-1E+10	1	-1E+10	1	-1E+10	1	-1E+10	1	-1E+10	1
4901784	149	C	08/03/2019	10:40	-132.304	43.047	0	1499.50	0	2.5400	0	36.4570	8	29.102	0	1482.263	0	26.9	4	8.3	4	-1E+10	1	-1E+10	1	-1E+10	1	-1E+10	1	-1E+10	1	-1E+10	1
4901784	149	C	08/03/2019	10:40	-132.304	43.047	0	1504.90	0	2.5380	0	36.4580	8	29.103	0	1487.582	0	27.2	4	8.4	4	-1E+10	1	-1E+10	1	-1E+10	1	-1E+10	1	-1E+10	1	-1E+10	1
4901784	149	C	08/03/2019	10:40	-132.304	43.047	0	1510.30	0	2.5300	0	36.4600	8	29.105	0	1492.901	0	27.6	4	8.6	4	-1E+10	1	-1E+10	1	-1E+10	1	-1E+10	1	-1E+10	1	-1E+10	1
4901784	149	C	08/03/2019	10:40	-132.304	43.047	0	1514.90	0	2.5200	0	36.4610	8	29.107	0	1497.432	0	28.0	4	8.7	4	-1E+10	1	-1E+10	1	-1E+10	1	-1E+10	1	-1E+10	1	-1E+10	1
4901784	149	C	08/03/2019	10:40	-132.304	43.047	0	1519.40	0	2.5140	0	36.4620	8	29.108	0	1501.864	0	28.4	4	8.8	4	-1E+10	1	-1E+10	1	-1E+10	1	-1E+10	1	-1E+10	1	-1E+10	1
4901784	149	C	08/03/2019	10:40	-132.304	43.047	0	1524.80	0	2.5080	0	36.4630	8	29.110	0	1507.182	0	28.7	4	8.9	4	-1E+10	1	-1E+10	1	-1E+10	1	-1E+10	1	-1E+10	1	-1E+10	1
4901784	149	C	08/03/2019	10:40	-132.304	43.047	0	1530.30	0	2.4960	0	36.4650	8	29.112	0	1512.599	0	28.8	4	8.9	4	-1E+10	1	-1E+10	1	-1E+10	1	-1E+10	1	-1E+10	1	-1E+10	1
4901784	149	C	08/03/2019	10:40	-132.304	43.047	0	1534.90	0	2.4920	0	36.4650	8	29.113	0	1517.129	0	28.9	4	8.9	4	-1E+10	1	-1E+10	1	-1E+10	1	-1E+10	1	-1E+10	1	-1E+10	1
4901784	149	C	08/03/2019	10:40	-132.304	43.047	0	1539.50	0	2.4850	0	36.4650	8	29.114	0	1521.659	0	29.0	4	9.0	4	-1E+10	1	-1E+10	1	-1E+10	1	-1E+10	1	-1E+10	1	-1E+10	1
4901784	149	C	08/03/2019	10:40	-132.304	43.047	0	1545.10	0	2.4750	0	36.4660	8	29.115	0	1527.174	0	29.2	4	9.0	4	-1E+10	1	-1E+10	1	-1E+10	1	-1E+10	1	-1E+10	1	-1E+10	1
4901784	149	C	08/03/2019	10:40	-132.304	43.047	0	1549.70	0	2.4710	0	36.4670	8	29.116	0	1531.704	0	29.3	4	9.1	4	-1E+10	1	-1E+10	1	-1E+10	1	-1E+10	1	-1E+10	1	-1E+10	1
4901784	149	C	08/03/2019	10:40	-132.304	43.047	0	1555.10	0	2.4610	0	36.4680	8	29.118	0	1537.022	0	29.6	4	9.2	4	-1E+10	1	-1E+10	1	-1E+10	1	-1E+10	1	-1E+10	1	-1E+10	1
4901784	149	C	08/03/2019	10:40	-132.304	43.047	0	1560.20	0	2.4540	0	36.4690	8	29.120	0	1542.044	0	29.9	4	9.2	4	-1E+10	1	-1E+10	1	-1E+10	1	-1E+10	1	-1E+10	1	-1E+10	1
4901784	149	C	08/03/2019	10:40	-132.304	43.047	0	1565.10	0	2.4460	0	36.4700	8	29.121	0	1546.869	0	30.2	4	9.3	4	-1E+10	1	-1E+10	1	-1E+10	1	-1E+10	1	-1E+10	1	-1E+10	1
4901784	149	C	08/03/2019	10:40	-132.304	43.047	0	1570.10	0	2.4370	0	36.4710	8	29.123	0	1551.793	0	30.4	4	9.4	4	-1E+10	1	-1E+10	1	-1E+10	1	-1E+10	1	-1E+10	1	-1E+10	1
4901784	149	C	08/03/2019	10:40	-132.304	43.047	0	1575.10	0	2.4320	0	36.4720	8	29.124	0	1556.716	0	30.7	4	9.5	4	-1E+10	1	-1E+10	1	-1E+10	1	-1E+10	1	-1E+10	1	-1E+10	1
4901784	149	C	08/03/2019	10:40	-132.304	43.047	0	1580.10	0	2.4230	0	36.4730	8	29.126	0	1561.639	0	31.0	4	9.6	4	-1E+10	1	-1E+10	1	-1E+10	1	-1E+10	1	-1E+10	1	-1E+10	1
4901784	149	C	08/03/2019	10:40	-132.304	43.047	0	1585.20	0	2.4150	0	36.4740	8	29.127	0	1566.661	0	31.4	4	9.7	4	-1E+10	1	-1E+10	1	-1E+10	1	-1E+10	1	-1E+10	1	-1E+10	1
4901784	149	C	08/03/2019	10:40	-132.304	43.047	0	1590.30	0	2.4100	0	36.4740	8	29.128	0	1571.682	0	31.8	4	9.8	4	-1E+10	1	-1E+10	1	-1E+10	1	-1E+10	1	-1E+10	1	-1E+10	1
4901784	149	C	08/03/2019	10:40	-132.304	43.047	0	1595.40	0	2.3920	0	36.4770	8	29.132	0	1576.703	0	32.4	4	10.0	4	-1E+10	1	-1E+10	1	-1E+10	1	-1E+10	1	-1E+10	1	-1E+10	1
4901784	149	C	08/03/2019	10:40	-132.304	43.047	0	1600.50	0	2.3820	0	36.4780	8	29.133	0	1581.725	0	32.6	4	10.1	4	-1E+10	1	-1E+10	1	-1E+10	1	-1E+10	1	-1E+10	1	-1E+10	1
4901784	149	C	08/03/2019	10:40	-132.304	43.047	0	1605.60	0	2.3790	0	36.4790	8	29.134	0	1586.746	0	32.8	4	10.1	4	-1E+10	1	-1E+10	1	-1E+10	1	-1E+10	1	-1E+10	1	-1E+10	1
4901784	149	C	08/03/2019	10:40	-132.304	43.047	0	1609.90	0	2.3770	0	36.4790	8	29.135	0	1590.979	0	33.0	4	10.2	4	-1E+10	1	-1E+10	1	-1E+10	1	-1E+10	1	-1E+10	1	-1E+10	1
4901784	149	C	08/03/2019	10:40	-132.304	43.047	0	1614.20	0	2.3740	0	36.4790	8	29.135	0	1595.212	0	33.2	4	10.3	4	-1E+10	1	-1E+10	1	-1E+10	1	-1E+10	1	-1E+10	1	-1E+10	1
4901784	149	C	08/03/2019	10:40	-132.304	43.047	0	1619.50	0	2.3630	0	36.4810	8	29.138	0	1600.430	0	33.7	4	10.4	4	-1E+10	1	-1E+10	1	-1E+10	1	-1E+10	1	-1E+10	1	-1E+10	1
4901784	149	C	08/03/2019	10:40	-132.304	43.047	0	1624.70	0	2.3560	0	36.4810	8	29.138	0	1605.549	0	34.0	4	10.5	4	-1E+10	1	-1E+10	1	-1E+10	1	-1E+10	1	-1E+10	1	-1E+10	1
4901784	149	C	08/03/2019	10:40	-132.304	43.047	0	1630.00	0	2.3450	0	36.4830	8	29.141	0	1610.766	0	34.5	4	10.6	4	-1E+10	1	-1E+10	1	-1E+10	1	-1E+10	1	-1E+10	1	-1E+10	1
4901784	149	C	08/03/2019	10:40	-132.304	43.047	0	1635.30	0	2.3350	0	36.4850	8	29.143	0	1615.984	0	34.8	4	10.7	4	-1E+10	1	-1E+10	1	-1E+10	1	-1E+10	1	-1E+10	1	-1E+10	1
4901784	149	C	08/03/2019	10:40	-132.304	43.047	0	1640.60	0	2.3280	0	36.4860	8	29.145	0	1621.201	0	35.1	4	10.8	4	-1E+10	1	-1E+10	1	-1E+10	1	-1E+10	1	-1E+10	1	-1E+10	1
4901784	149	C	08/03/2019	10:40	-132.304	43.047	0	1645.10	0	2.3250	0	36.4860	8	29.145	0	1625.630	0	35.3	4	10.9	4	-1E+10	1	-1E+10	1	-1E+10	1	-1E+10	1	-1E+10	1	-1E+10	1
4901784	149	C	08/03/2019	10:40	-132.304	43.047	0	1649.60	0	2.3180	0	36.4870	8	29.146	0	1630.060	0	35.6	4	11.0	4	-1E+10	1	-1E+10	1	-1E+10	1	-1E+10	1	-1E+10	1	-1E+10	1
4901784	149	C	08/03/2019	10:40	-132.304	43.047	0	1655.00	0	2.3100	0	36.4880	8	29.148	0	1635.375	0	35.9	4	11.1	4	-1E+10	1	-1E+10	1	-1E+10	1	-1E+10	1	-1E+10	1	-1E+10	1
4901784	149	C	08/03/2019	10:40	-132.304	43.047	0	1660.40	0	2.3070	0	36.4880	8	29.148	0	1640.690	0	36.1	4	11.1	4	-1E+10	1	-1E+10	1	-1E+10	1	-1E+10	1	-1E+10	1	-1E+10	1
4901784	149	C	08/03/2019	10:40	-132.304	43.047	0	1664.90	0	2.3000	0	36.4890	8	29.150	0	1645.119	0	36.3	4	11.2	4	-1E+10	1	-1E+10	1	-1E+10	1	-1E+10	1	-1E+10	1	-1E+10	1
4901784	149	C	08/03/2019	10:40	-132.304	43.047	0	1669.40	0	2.2940	0	36.4900	8	29.151	0	1649.548	0	36.6	4	11.3	4	-1E+10	1	-1E+10	1	-1E+10	1	-1E+10	1	-1E+10	1	-1E+10	1
4901784	149	C	08/03/2019	10:40	-132.304	43.047	0	1674.90	0	2.2840	0	36.4920	8	29.154	0	1654.961	0	36.8	4	11.3	4	-1E+10	1	-1E+10	1	-1E+10	1	-1E+10	1	-1E+10	1	-1E+10	1
4901784	149	C	08/03/2019	10:40	-132.304	43.047	0	1680.40	0	2.2780	0	36.4930	8	29.155	0	1660.374	0	37.1	4	11.4	4	-1E+10	1	-1E+10	1	-1E+10	1	-1E+10	1	-1E+10	1	-1E+10	1
4901784	149	C	08/03/2019	10:40	-132.304	43.047	0	1685.00	0	2.2730	0	36.4940	8	29.156	0	1664.901	0	37.2	4	11.5	4	-1E+10	1	-1E+10	1	-1E+10	1	-1E+10	1	-1E+10	1	-1E+10	1
4901784	149	C	08/03/2019	10:40	-132.304	43.047	0	1689.60	0	2.2700	0	36.4940	8	29.157	0	1669.428	0	37.5	4	11.5	4	-1E+10	1	-1E+10	1	-1E+10	1	-1E+10	1	-1E+10	1	-1E+10	1
4901784	149	C	08/03/2019	10:40	-132.304	43.047	0	1695.20	0	2.2620	0	36.4950	8	29.158	0	1674.939	0	37.9	4	11.7	4	-1E+10	1	-1E+10	1	-1E+10	1	-1E+10	1	-1E+10	1	-1E+10	1
4901784	149	C	08/03/2019	10:40	-132.304	43.047	0	1699.80	0	2.2560	0	36.4960	8	29.159	0	1679.466	0	38.1	4	11.7	4	-1E+10	1	-1E+10	1	-1E+10	1	-1E+10	1	-1E+10	1	-1E+10	1
4901784	149	C	08/03/2019	10:40	-132.304	43.047	0	1704.70	0	2.2490	0	36.4970	8	29.161	0	1684.288	0	38.5	4	11.8	4	-1E+10	1	-1E+10	1	-1E+10	1	-1E+10	1	-1E+10	1	-1E+10	1
4901784	149	C	08/03/2019	10:40	-132.304	43.047	0	1709.90	0	2.2400	0	36.4980	8	29.162	0	1689.405	0	38.9	4	12.0	4	-1E+10	1	-1E+10	1	-1E+10	1	-1E+10	1	-1E+10	1	-1E+10	1
4901784	149	C	08/03/2019	10:40	-132.304	43.047	0	1714.80	0	2.2380	0	36.4990	8	29.163	0	1694.227	0	39.1	4	12.0	4	-1E+10	1	-1E+10	1	-1E+10	1	-1E+10	1	-1E+10	1	-1E+10	1
4901784	149	C	08/03/2019	10:40	-132.304	43.047	0	1719.80	0	2.2340	0	36.4990	8	29.164	0	1699.147	0	39.5	4	12.1	4	-1E+10	1	-1E+10	1	-1E+10	1	-1E+10	1	-1E+10	1	-1E+10	1
4901784	149	C	08/03/2019	10:40	-132.304	43.047	0	1724.80	0	2.2270	0	36.5000	8	29.165	0	1704.067	0	39.9	4	12.3	4	-1E+10	1	-1E+10	1	-1E+10	1	-1E+10	1	-1E+10	1	-1E+10	1
4901784	149	C	08/03/2019	10:40	-132.304	43.047	0	1729.70	0	2.2190	0	36.5010	8	29.167	0	1708.888	0	40.3	4	12.4	4	-1E+10	1	-1E+10	1	-1E+10	1	-1E+10	1	-1E+10	1	-1E+10	1
4901784	149	C	08/03/2019	10:40	-132.304	43.047	0	1734.80	0	2.2140	0	36.5020	8	29.168	0	1713.906	0	40.6	4	12.5	4	-1E+10	1	-1E+10	1	-1E+10	1	-1E+10	1	-1E+10	1	-1E+10	1
4901784	149	C	08/03/2019	10:40	-132.304	43.047	0	1739.80	0	2.2080	0	36.5030	8	29.169	0	1718.826	0	40.9	4	12.6	4	-1E+10	1	-1E+10	1	-1E+10	1	-1E+10	1	-1E+10	1	-1E+10	1
4901784	149	C	08/03/2019	10:40	-132.304	43.047	0	1744.80	0	2.2020	0	36.5040	8	29.171	0	1723.745	0	41.2	4	12.7	4	-1E+10	1	-1E+10	1	-1E+10	1	-1E+10	1	-1E+10	1	-1E+10	1
4901784	149	C	08/03/2019	10:40	-132.304	43.047	0	1749.80	0	2.1990	0	36.5040	8	29.171	0	1728.665	0	41.4	4	12.7	4	-1E+10	1	-1E+10	1	-1E+10	1	-1E+10	1	-1E+10	1	-1E+10	1
4901784	149	C	08/03/2019	10:40	-132.304	43.047	0	1754.80	0	2.1930	0	36.5060	8	29.173	0	1733.584	0	41.7	4	12.8	4	-1E+10	1	-1E+10	1	-1E+10	1	-1E+10	1	-1E+10	1	-1E+10	1
4901784	149	C	08/03/2019	10:40	-132.304	43.047	0	1759.90	0	2.1870	0	36.5060	8	29.174	0	1738.601	0	42.1	4	12.9	4	-1E+10	1	-1E+10	1	-1E+10	1	-1E+10	1	-1E+10	1	-1E+10	1
4901784	149	C	08/03/2019	10:40	-132.304	43.047	0	1765.00	0	2.1810	0	36.5070	8	29.175	0	1743.619	0	42.4	4	13.0	4	-1E+10	1	-1E+10	1	-1E+10	1	-1E+10	1	-1E+10	1	-1E+10	1
4901784	149	C	08/03/2019	10:40	-132.304	43.047	0	1770.10	0	2.1750	0	36.5080	8	29.176	0	1748.636	0	42.7	4	13.1	4	-1E+10	1	-1E+10	1	-1E+10	1	-1E+10	1	-1E+10	1	-1E+10	1
4901784	149	C	08/03/2019	10:40	-132.304	43.047	0	1775.20	0	2.1710	0	36.5090	8	29.178	0	1753.653	0	42.9	4	13.2	4	-1E+10	1	-1E+10	1	-1E+10	1	-1E+10	1	-1E+10	1	-1E+10	1
4901784	149	C	08/03/2019	10:40	-132.304	43.047	0	1780.30	0	2.1660	0	36.5100	8	29.179	0	1758.670	0	43.2	4	13.3	4	-1E+10	1	-1E+10	1	-1E+10	1	-1E+10	1	-1E+10	1	-1E+10	1
4901784	149	C	08/03/2019	10:40	-132.304	43.047	0	1785.50	0	2.1630	0	36.5100	8	29.179	0	1763.785	0	43.4	4	13.3	4	-1E+10	1	-1E+10	1	-1E+10	1	-1E+10	1	-1E+10	1	-1E+10	1
4901784	149	C	08/03/2019	10:40	-132.304	43.047	0	1790.70	0	2.1580	0	36.5110	8	29.180	0	1768.900	0	43.6	4	13.4	4	-1E+10	1	-1E+10	1	-1E+10	1	-1E+10	1	-1E+10	1	-1E+10	1
4901784	149	C	08/03/2019	10:40	-132.304	43.047	0	1795.10	0	2.1570	0	36.5110	8	29.180	0	1773.228	0	43.8	4	13.5	4	-1E+10	1	-1E+10	1	-1E+10	1	-1E+10	1	-1E+10	1	-1E+10	1
4901784	149	C	08/03/2019	10:40	-132.304	43.047	0	1799.50	0	2.1530	0	36.5120	8	29.182	0	1777.556	0	44.0	4	13.5	4	-1E+10	1	-1E+10	1	-1E+10	1	-1E+10	1	-1E+10	1	-1E+10	1
4901784	149	C	08/03/2019	10:40	-132.304	43.047	0	1804.90	0	2.1470	0	36.5130	8	29.183	0	1782.868	0	44.5	4	13.7	4	-1E+10	1	-1E+10	1	-1E+10	1	-1E+10	1	-1E+10	1	-1E+10	1
4901784	149	C	08/03/2019	10:40	-132.304	43.047	0	1810.30	0	2.1380	0	36.5140	8	29.185	0	1788.179	0	45.0	4	13.8	4	-1E+10	1	-1E+10	1	-1E+10	1	-1E+10	1	-1E+10	1	-1E+10	1
4901784	149	C	08/03/2019	10:40	-132.304	43.047	0	1814.80	0	2.1320	0	36.5150	8	29.186	0	1792.605	0	45.3	4	13.9	4	-1E+10	1	-1E+10	1	-1E+10	1	-1E+10	1	-1E+10	1	-1E+10	1
4901784	149	C	08/03/2019	10:40	-132.304	43.047	0	1819.30	0	2.1280	0	36.5160	8	29.187	0	1797.031	0	45.6	4	14.0	4	-1E+10	1	-1E+10	1	-1E+10	1	-1E+10	1	-1E+10	1	-1E+10	1
4901784	149	C	08/03/2019	10:40	-132.304	43.047	0	1824.80	0	2.1230	0	36.5160	8	29.188	0	1802.441	0	45.9	4	14.1	4	-1E+10	1	-1E+10	1	-1E+10	1	-1E+10	1	-1E+10	1	-1E+10	1
4901784	149	C	08/03/2019	10:40	-132.304	43.047	0	1830.30	0	2.1190	0	36.5170	8	29.189	0	1807.850	0	46.2	4	14.2	4	-1E+10	1	-1E+10	1	-1E+10	1	-1E+10	1	-1E+10	1	-1E+10	1
4901784	149	C	08/03/2019	10:40	-132.304	43.047	0	1834.80	0	2.1160	0	36.5170	8	29.189	0	1812.275	0	46.6	4	14.3	4	-1E+10	1	-1E+10	1	-1E+10	1	-1E+10	1	-1E+10	1	-1E+10	1
4901784	149	C	08/03/2019	10:40	-132.304	43.047	0	1839.80	0	2.1090	0	36.5190	8	29.191	0	1817.193	0	47.0	4	14.4	4	-1E+10	1	-1E+10	1	-1E+10	1	-1E+10	1	-1E+10	1	-1E+10	1
4901784	149	C	08/03/2019	10:40	-132.304	43.047	0	1845.00	0	2.1030	0	36.5200	8	29.193	0	1822.306	0	47.4	4	14.5	4	-1E+10	1	-1E+10	1	-1E+10	1	-1E+10	1	-1E+10	1	-1E+10	1
4901784	149	C	08/03/2019	10:40	-132.304	43.047	0	1849.80	0	2.0980	0	36.5200	8	29.193	0	1827.027	0	47.9	4	14.7	4	-1E+10	1	-1E+10	1	-1E+10	1	-1E+10	1	-1E+10	1	-1E+10	1
4901784	149	C	08/03/2019	10:40	-132.304	43.047	0	1854.70	0	2.0870	0	36.5220	8	29.196	0	1831.845	0	48.4	4	14.8	4	-1E+10	1	-1E+10	1	-1E+10	1	-1E+10	1	-1E+10	1	-1E+10	1
4901784	149	C	08/03/2019	10:40	-132.304	43.047	0	1859.50	0	2.0840	0	36.5220	8	29.196	0	1836.566	0	48.6	4	14.9	4	-1E+10	1	-1E+10	1	-1E+10	1	-1E+10	1	-1E+10	1	-1E+10	1
4901784	149	C	08/03/2019	10:40	-132.304	43.047	0	1864.40	0	2.0780	0	36.5220	8	29.196	0	1841.384	0	49.0	4	15.0	4	-1E+10	1	-1E+10	1	-1E+10	1	-1E+10	1	-1E+10	1	-1E+10	1
4901784	149	C	08/03/2019	10:40	-132.304	43.047	0	1869.30	0	2.0730	0	36.5240	8	29.198	0	1846.202	0	49.3	4	15.1	4	-1E+10	1	-1E+10	1	-1E+10	1	-1E+10	1	-1E+10	1	-1E+10	1
4901784	149	C	08/03/2019	10:40	-132.304	43.047	0	1874.20	0	2.0700	0	36.5240	8	29.199	0	1851.020	0	49.5	4	15.2	4	-1E+10	1	-1E+10	1	-1E+10	1	-1E+10	1	-1E+10	1	-1E+10	1
4901784	149	C	08/03/2019	10:40	-132.304	43.047	0	1879.20	0	2.0670	0	36.5240	8	29.199	0	1855.937	0	49.7	4	15.2	4	-1E+10	1	-1E+10	1	-1E+10	1	-1E+10	1	-1E+10	1	-1E+10	1
4901784	149	C	08/03/2019	10:40	-132.304	43.047	0	1884.20	0	2.0630	0	36.5250	8	29.200	0	1860.853	0	50.0	4	15.3	4	-1E+10	1	-1E+10	1	-1E+10	1	-1E+10	1	-1E+10	1	-1E+10	1
4901784	149	C	08/03/2019	10:40	-132.304	43.047	0	1889.20	0	2.0590	0	36.5260	8	29.201	0	1865.769	0	50.3	4	15.4	4	-1E+10	1	-1E+10	1	-1E+10	1	-1E+10	1	-1E+10	1	-1E+10	1
4901784	149	C	08/03/2019	10:40	-132.304	43.047	0	1894.20	0	2.0550	0	36.5260	8	29.202	0	1870.685	0	50.6	4	15.5	4	-1E+10	1	-1E+10	1	-1E+10	1	-1E+10	1	-1E+10	1	-1E+10	1
4901784	149	C	08/03/2019	10:40	-132.304	43.047	0	1899.20	0	2.0510	0	36.5270	8	29.203	0	1875.601	0	50.9	4	15.6	4	-1E+10	1	-1E+10	1	-1E+10	1	-1E+10	1	-1E+10	1	-1E+10	1
4901784	149	C	08/03/2019	10:40	-132.304	43.047	0	1904.20	0	2.0470	0	36.5280	8	29.204	0	1880.517	0	51.1	4	15.7	4	-1E+10	1	-1E+10	1	-1E+10	1	-1E+10	1	-1E+10	1	-1E+10	1
4901784	149	C	08/03/2019	10:40	-132.304	43.047	0	1909.20	0	2.0440	0	36.5280	8	29.204	0	1885.432	0	51.4	4	15.7	4	-1E+10	1	-1E+10	1	-1E+10	1	-1E+10	1	-1E+10	1	-1E+10	1
4901784	149	C	08/03/2019	10:40	-132.304	43.047	0	1914.30	0	2.0370	0	36.5290	8	29.206	0	1890.446	0	51.7	4	15.8	4	-1E+10	1	-1E+10	1	-1E+10	1	-1E+10	1	-1E+10	1	-1E+10	1
4901784	149	C	08/03/2019	10:40	-132.304	43.047	0	1919.40	0	2.0330	0	36.5300	8	29.207	0	1895.460	0	52.0	4	15.9	4	-1E+10	1	-1E+10	1	-1E+10	1	-1E+10	1	-1E+10	1	-1E+10	1
4901784	149	C	08/03/2019	10:40	-132.304	43.047	0	1924.60	0	2.0290	0	36.5310	8	29.208	0	1900.572	0	52.3	4	16.0	4	-1E+10	1	-1E+10	1	-1E+10	1	-1E+10	1	-1E+10	1	-1E+10	1
4901784	149	C	08/03/2019	10:40	-132.304	43.047	0	1929.80	0	2.0250	0	36.5320	8	29.209	0	1905.684	0	52.6	4	16.1	4	-1E+10	1	-1E+10	1	-1E+10	1	-1E+10	1	-1E+10	1	-1E+10	1
4901784	149	C	08/03/2019	10:40	-132.304	43.047	0	1935.00	0	2.0200	0	36.5320	8	29.210	0	1910.796	0	52.9	4	16.2	4	-1E+10	1	-1E+10	1	-1E+10	1	-1E+10	1	-1E+10	1	-1E+10	1
4901784	149	C	08/03/2019	10:40	-132.304	43.047	0	1940.20	0	2.0150	0	36.5320	8	29.210	0	1915.907	0	53.2	4	16.3	4	-1E+10	1	-1E+10	1	-1E+10	1	-1E+10	1	-1E+10	1	-1E+10	1
4901784	149	C	08/03/2019	10:40	-132.304	43.047	0	1945.40	0	2.0090	0	36.5330	8	29.211	0	1921.019	0	53.5	4	16.4	4	-1E+10	1	-1E+10	1	-1E+10	1	-1E+10	1	-1E+10	1	-1E+10	1
4901784	149	C	08/03/2019	10:40	-132.304	43.047	0	1950.60	0	2.0070	0	36.5340	8	29.212	0	1926.130	0	53.8	4	16.5	4	-1E+10	1	-1E+10	1	-1E+10	1	-1E+10	1	-1E+10	1	-1E+10	1
4901784	149	C	08/03/2019	10:40	-132.304	43.047	0	1955.00	0	2.0040	0	36.5350	8	29.214	0	1930.455	0	54.1	4	16.5	4	-1E+10	1	-1E+10	1	-1E+10	1	-1E+10	1	-1E+10	1	-1E+10	1
4901784	149	C	08/03/2019	10:40	-132.304	43.047	0	1959.30	0	2.0010	0	36.5360	8	29.215	0	1934.681	0	54.2	4	16.6	4	-1E+10	1	-1E+10	1	-1E+10	1	-1E+10	1	-1E+10	1	-1E+10	1
4901784	149	C	08/03/2019	10:40	-132.304	43.047	0	1964.60	0	2.0000	0	36.5360	8	29.215	0	1939.890	0	54.5	4	16.7	4	-1E+10	1	-1E+10	1	-1E+10	1	-1E+10	1	-1E+10	1	-1E+10	1
4901784	149	C	08/03/2019	10:40	-132.304	43.047	0	1969.90	0	1.9960	0	36.5370	8	29.216	0	1945.100	0	54.8	4	16.8	4	-1E+10	1	-1E+10	1	-1E+10	1	-1E+10	1	-1E+10	1	-1E+10	1
4901784	149	C	08/03/2019	10:40	-132.304	43.047	0	1975.30	0	1.9920	0	36.5380	8	29.217	0	1950.407	0	55.1	4	16.9	4	-1E+10	1	-1E+10	1	-1E+10	1	-1E+10	1	-1E+10	1	-1E+10	1
4901784	149	C	08/03/2019	10:40	-132.304	43.047	0	1979.80	0	1.9890	0	36.5390	8	29.218	0	1954.830	0	55.4	4	16.9	4	-1E+10	1	-1E+10	1	-1E+10	1	-1E+10	1	-1E+10	1	-1E+10	1
4901784	149	C	08/03/2019	10:40	-132.304	43.047	0	1984.10	0	1.9860	0	36.5400	8	29.219	0	1959.056	0	55.6	4	17.0	4	-1E+10	1	-1E+10	1	-1E+10	1	-1E+10	1	-1E+10	1	-1E+10	1
4901784	149	C	08/03/2019	10:40	-132.304	43.047	0	1989.40	0	1.9800	0	36.5400	8	29.220	0	1964.264	0	55.9	4	17.1	4	-1E+10	1	-1E+10	1	-1E+10	1	-1E+10	1	-1E+10	1	-1E+10	1
4901784	149	C	08/03/2019	10:40	-132.304	43.047	0	1994.40	0	1.9710	0	36.5400	8	29.221	0	1969.178	0	56.2	4	17.2	4	-1E+10	1	-1E+10	1	-1E+10	1	-1E+10	1	-1E+10	1	-1E+10	1
4901784	149	C	08/03/2019	10:40	-132.304	43.047	0	2000.10	0	1.9610	0	36.5410	8	29.222	0	1974.780	0	56.7	4	17.3	4	-1E+10	1	-1E+10	1	-1E+10	1	-1E+10	1	-1E+10	1	-1E+10	1
4901784	149	C	08/03/2019	10:40	-132.304	43.047	0	2004.80	0	1.9600	0	36.5430	8	29.224	0	1979.398	0	55.7	4	17.0	4	-1E+10	1	-1E+10	1	-1E+10	1	-1E+10	1	-1E+10	1	-1E+10	1
4901784	149	C	08/03/2019	10:40	-132.304	43.047	0																										
4901784	150	C	08/13/2019	10:44	-132.397	43.104	0	1.90	0	20.3410	0	34.3280	8	24.161	0	1.885	0	217.5	4	96.6	4	-1E+10	1	-1E+10	1	-1E+10	1	-1E+10	1	-1E+10	1	-1E+10	1
4901784	150	C	08/13/2019	10:44	-132.397	43.104	0	3.50	0	20.3400	0	34.3260	8	24.159	0	3.472	0	217.5	4	96.6	4	-1E+10	1	-1E+10	1	-1E+10	1	-1E+10	1	-1E+10	1	-1E+10	1
4901784	150	C	08/13/2019	10:44	-132.397	43.104	0	4.90	0	20.3380	0	34.3250	8	24.159	0	4.861	0	217.3	4	96.5	4	-1E+10	1	-1E+10	1	-1E+10	1	-1E+10	1	-1E+10	1	-1E+10	1
4901784	150	C	08/13/2019	10:44	-132.397	43.104	0	7.00	0	20.3390	0	34.3210	8	24.156	0	6.944	0	217.2	4	96.4	4	-1E+10	1	-1E+10	1	-1E+10	1	-1E+10	1	-1E+10	1	-1E+10	1
4901784	150	C	08/13/2019	10:44	-132.397	43.104	0	8.60	0	20.3300	0	34.3180	8	24.156	0	8.532	0	217.1	4	96.4	4	-1E+10	1	-1E+10	1	-1E+10	1	-1E+10	1	-1E+10	1	-1E+10	1
4901784	150	C	08/13/2019	10:44	-132.397	43.104	0	9.90	0	20.3190	0	34.3120	8	24.155	0	9.821	0	217.4	4	96.5	4	-1E+10	1	-1E+10	1	-1E+10	1	-1E+10	1	-1E+10	1	-1E+10	1
4901784	150	C	08/13/2019	10:44	-132.397	43.104	0	11.20	0	20.2980	0	34.3050	8	24.155	0	11.111	0	217.7	4	96.6	4	-1E+10	1	-1E+10	1	-1E+10	1	-1E+10	1	-1E+10	1	-1E+10	1
4901784	150	C	08/13/2019	10:44	-132.397	43.104	0	12.50	0	20.2650	0	34.2990	8	24.159	0	12.400	0	218.4	4	96.9	4	-1E+10	1	-1E+10	1	-1E+10	1	-1E+10	1	-1E+10	1	-1E+10	1
4901784	150	C	08/13/2019	10:44	-132.397	43.104	0	13.80	0	20.1710	0	34.2850	8	24.173	0	13.690	0	219.6	4	97.2	4	-1E+10	1	-1E+10	1	-1E+10	1	-1E+10	1	-1E+10	1	-1E+10	1
4901784	150	C	08/13/2019	10:44	-132.397	43.104	0	15.30	0	19.8850	0	34.2870	8	24.250	0	15.178	0	221.7	4	97.6	4	-1E+10	1	-1E+10	1	-1E+10	1	-1E+10	1	-1E+10	1	-1E+10	1
4901784	150	C	08/13/2019	10:44	-132.397	43.104	0	15.60	0	19.8660	0	34.2830	8	24.252	0	15.475	0	222.8	4	98.1	4	-1E+10	1	-1E+10	1	-1E+10	1	-1E+10	1	-1E+10	1	-1E+10	1
4901784	150	C	08/13/2019	10:44	-132.397	43.104	0	16.70	0	19.8370	0	34.2620	8	24.244	0	16.567	0	225.1	4	99.0	4	-1E+10	1	-1E+10	1	-1E+10	1	-1E+10	1	-1E+10	1	-1E+10	1
4901784	150	C	08/13/2019	10:44	-132.397	43.104	0	17.80	0	19.7670	0	34.2070	8	24.220	0	17.658	0	228.2	4	100.2	4	-1E+10	1	-1E+10	1	-1E+10	1	-1E+10	1	-1E+10	1	-1E+10	1
4901784	150	C	08/13/2019	10:44	-132.397	43.104	0	19.10	0	18.1470	0	34.2570	8	24.669	0	18.947	0	237.1	4	101.1	4	-1E+10	1	-1E+10	1	-1E+10	1	-1E+10	1	-1E+10	1	-1E+10	1
4901784	150	C	08/13/2019	10:44	-132.397	43.104	0	20.50	0	17.0550	0	34.2910	8	24.959	0	20.336	0	243.6	4	101.8	4	-1E+10	1	-1E+10	1	-1E+10	1	-1E+10	1	-1E+10	1	-1E+10	1
4901784	150	C	08/13/2019	10:44	-132.397	43.104	0	21.90	0	16.2090	0	34.3520	8	25.203	0	21.725	0	248.2	4	102.1	4	-1E+10	1	-1E+10	1	-1E+10	1	-1E+10	1	-1E+10	1	-1E+10	1
4901784	150	C	08/13/2019	10:44	-132.397	43.104	0	23.40	0	16.0750	0	34.3160	8	25.206	0	23.213	0	252.3	4	103.5	4	-1E+10	1	-1E+10	1	-1E+10	1	-1E+10	1	-1E+10	1	-1E+10	1
4901784	150	C	08/13/2019	10:44	-132.397	43.104	0	24.90	0	16.0450	0	34.2950	8	25.197	0	24.701	0	253.6	4	103.9	4	-1E+10	1	-1E+10	1	-1E+10	1	-1E+10	1	-1E+10	1	-1E+10	1
4901784	150	C	08/13/2019	10:44	-132.397	43.104	0	26.40	0	15.8440	0	34.2990	8	25.246	0	26.189	0	255.0	4	104.1	4	-1E+10	1	-1E+10	1	-1E+10	1	-1E+10	1	-1E+10	1	-1E+10	1
4901784	150	C	08/13/2019	10:44	-132.397	43.104	0	27.90	0	15.0590	0	34.3030	8	25.423	0	27.676	0	260.1	4	104.6	4	-1E+10	1	-1E+10	1	-1E+10	1	-1E+10	1	-1E+10	1	-1E+10	1
4901784	150	C	08/13/2019	10:44	-132.397	43.104	0	29.50	0	14.2390	0	34.3320	8	25.622	0	29.264	0	265.5	4	105.1	4	-1E+10	1	-1E+10	1	-1E+10	1	-1E+10	1	-1E+10	1	-1E+10	1
4901784	150	C	08/13/2019	10:44	-132.397	43.104	0	31.20	0	14.1140	0	34.3230	8	25.642	0	30.950	0	266.3	4	105.1	4	-1E+10	1	-1E+10	1	-1E+10	1	-1E+10	1	-1E+10	1	-1E+10	1
4901784	150	C	08/13/2019	10:44	-132.397	43.104	0	32.80	0	13.7450	0	34.3240	8	25.719	0	32.537	0	268.4	4	105.2	4	-1E+10	1	-1E+10	1	-1E+10	1	-1E+10	1	-1E+10	1	-1E+10	1
4901784	150	C	08/13/2019	10:44	-132.397	43.104	0	34.50	0	13.3960	0	34.3260	8	25.792	0	34.223	0	270.1	4	105.1	4	-1E+10	1	-1E+10	1	-1E+10	1	-1E+10	1	-1E+10	1	-1E+10	1
4901784	150	C	08/13/2019	10:44	-132.397	43.104	0	36.20	0	13.3090	0	34.3140	8	25.801	0	35.909	0	270.3	4	105.0	4	-1E+10	1	-1E+10	1	-1E+10	1	-1E+10	1	-1E+10	1	-1E+10	1
4901784	150	C	08/13/2019	10:44	-132.397	43.104	0	37.90	0	13.0500	0	34.3310	8	25.866	0	37.595	0	270.0	4	104.3	4	-1E+10	1	-1E+10	1	-1E+10	1	-1E+10	1	-1E+10	1	-1E+10	1
4901784	150	C	08/13/2019	10:44	-132.397	43.104	0	39.70	0	12.8450	0	34.3310	8	25.907	0	39.381	0	270.5	4	104.1	4	-1E+10	1	-1E+10	1	-1E+10	1	-1E+10	1	-1E+10	1	-1E+10	1
4901784	150	C	08/13/2019	10:44	-132.397	43.104	0	41.50	0	12.6910	0	34.3290	8	25.936	0	41.166	0	269.9	4	103.5	4	-1E+10	1	-1E+10	1	-1E+10	1	-1E+10	1	-1E+10	1	-1E+10	1
4901784	150	C	08/13/2019	10:44	-132.397	43.104	0	43.30	0	12.4520	0	34.3490	8	25.998	0	42.952	0	270.2	4	103.1	4	-1E+10	1	-1E+10	1	-1E+10	1	-1E+10	1	-1E+10	1	-1E+10	1
4901784	150	C	08/13/2019	10:44	-132.397	43.104	0	45.10	0	12.3310	0	34.3440	8	26.018	0	44.737	0	270.1	4	102.8	4	-1E+10	1	-1E+10	1	-1E+10	1	-1E+10	1	-1E+10	1	-1E+10	1
4901784	150	C	08/13/2019	10:44	-132.397	43.104	0	46.80	0	12.1420	0	34.3550	8	26.063	0	46.423	0	270.9	4	102.7	4	-1E+10	1	-1E+10	1	-1E+10	1	-1E+10	1	-1E+10	1	-1E+10	1
4901784	150	C	08/13/2019	10:44	-132.397	43.104	0	48.60	0	12.1060	0	34.3480	8	26.064	0	48.208	0	270.8	4	102.6	4	-1E+10	1	-1E+10	1	-1E+10	1	-1E+10	1	-1E+10	1	-1E+10	1
4901784	150	C	08/13/2019	10:44	-132.397	43.104	0	50.40	0	11.9390	0	34.3540	8	26.101	0	49.994	0	271.5	4	102.5	4	-1E+10	1	-1E+10	1	-1E+10	1	-1E+10	1	-1E+10	1	-1E+10	1
4901784	150	C	08/13/2019	10:44	-132.397	43.104	0	52.20	0	11.8490	0	34.3510	8	26.115	0	51.779	0	271.5	4	102.3	4	-1E+10	1	-1E+10	1	-1E+10	1	-1E+10	1	-1E+10	1	-1E+10	1
4901784	150	C	08/13/2019	10:44	-132.397	43.104	0	54.20	0	11.7470	0	34.3490	8	26.133	0	53.762	0	271.6	4	102.2	4	-1E+10	1	-1E+10	1	-1E+10	1	-1E+10	1	-1E+10	1	-1E+10	1
4901784	150	C	08/13/2019	10:44	-132.397	43.104	0	54.70	0	11.7230	0	34.3490	8	26.138	0	54.258	0	271.7	4	102.1	4	-1E+10	1	-1E+10	1	-1E+10	1	-1E+10	1	-1E+10	1	-1E+10	1
4901784	150	C	08/13/2019	10:44	-132.397	43.104	0	56.30	0	11.6720	0	34.3450	8	26.144	0	55.845	0	271.6	4	102.0	4	-1E+10	1	-1E+10	1	-1E+10	1	-1E+10	1	-1E+10	1	-1E+10	1
4901784	150	C	08/13/2019	10:44	-132.397	43.104	0	57.80	0	11.6000	0	34.3470	8	26.159	0	57.333	0	271.5	4	101.8	4	-1E+10	1	-1E+10	1	-1E+10	1	-1E+10	1	-1E+10	1	-1E+10	1
4901784	150	C	08/13/2019	10:44	-132.397	43.104	0	59.30	0	11.5210	0	34.3490	8	26.175	0	58.820	0	271.5	4	101.6	4	-1E+10	1	-1E+10	1	-1E+10	1	-1E+10	1	-1E+10	1	-1E+10	1
4901784	150	C	08/13/2019	10:44	-132.397	43.104	0	60.90	0	11.4290	0	34.3500	8	26.193	0	60.407	0	271.1	4	101.3	4	-1E+10	1	-1E+10	1	-1E+10	1	-1E+10	1	-1E+10	1	-1E+10	1
4901784	150	C	08/13/2019	10:44	-132.397	43.104	0	62.50	0	11.3290	0	34.3510	8	26.212	0	61.994	0	270.9	4	101.0	4	-1E+10	1	-1E+10	1	-1E+10	1	-1E+10	1	-1E+10	1	-1E+10	1
4901784	150	C	08/13/2019	10:44	-132.397	43.104	0	64.00	0	11.2440	0	34.3560	8	26.232	0	63.482	0	270.1	4	100.6	4	-1E+10	1	-1E+10	1	-1E+10	1	-1E+10	1	-1E+10	1	-1E+10	1
4901784	150	C	08/13/2019	10:44	-132.397	43.104	0	65.50	0	11.1280	0	34.3570	8	26.254	0	64.969	0	270.2	4	100.3	4	-1E+10	1	-1E+10	1	-1E+10	1	-1E+10	1	-1E+10	1	-1E+10	1
4901784	150	C	08/13/2019	10:44	-132.397	43.104	0	67.00	0	11.0910	0	34.3560	8	26.260	0	66.457	0	268.8	4	99.7	4	-1E+10	1	-1E+10	1	-1E+10	1	-1E+10	1	-1E+10	1	-1E+10	1
4901784	150	C	08/13/2019	10:44	-132.397	43.104	0	68.60	0	11.0280	0	34.3570	8	26.272	0	68.044	0	267.2	4	99.0	4	-1E+10	1	-1E+10	1	-1E+10	1	-1E+10	1	-1E+10	1	-1E+10	1
4901784	150	C	08/13/2019	10:44	-132.397	43.104	0	70.10	0	10.9650	0	34.3550	8	26.282	0	69.531	0	266.1	4	98.5	4	-1E+10	1	-1E+10	1	-1E+10	1	-1E+10	1	-1E+10	1	-1E+10	1
4901784	150	C	08/13/2019	10:44	-132.397	43.104	0	71.70	0	10.8210	0	34.3580	8	26.310	0	71.118	0	264.5	4	97.6	4	-1E+10	1	-1E+10	1	-1E+10	1	-1E+10	1	-1E+10	1	-1E+10	1
4901784	150	C	08/13/2019	10:44	-132.397	43.104	0	73.20	0	10.7630	0	34.3530	8	26.316	0	72.606	0	263.4	4	97.0	4	-1E+10	1	-1E+10	1	-1E+10	1	-1E+10	1	-1E+10	1	-1E+10	1
4901784	150	C	08/13/2019	10:44	-132.397	43.104	0	74.80	0	10.7130	0	34.3520	8	26.324	0	74.192	0	261.8	4	96.3	4	-1E+10	1	-1E+10	1	-1E+10	1	-1E+10	1	-1E+10	1	-1E+10	1
4901784	150	C	08/13/2019	10:44	-132.397	43.104	0	76.50	0	10.6250	0	34.3520	8	26.340	0	75.878	0	260.4	4	95.6	4	-1E+10	1	-1E+10	1	-1E+10	1	-1E+10	1	-1E+10	1	-1E+10	1
4901784	150	C	08/13/2019	10:44	-132.397	43.104	0	78.00	0	10.5880	0	34.3490	8	26.344	0	77.366	0	259.1	4	95.1	4	-1E+10	1	-1E+10	1	-1E+10	1	-1E+10	1	-1E+10	1	-1E+10	1
4901784	150	C	08/13/2019	10:44	-132.397	43.104	0	79.70	0	10.5620	0	34.3650	8	26.361	0	79.052	0	257.3	4	94.4	4	-1E+10	1	-1E+10	1	-1E+10	1	-1E+10	1	-1E+10	1	-1E+10	1
4901784	150	C	08/13/2019	10:44	-132.397	43.104	0	81.30	0	10.4950	0	34.3730	8	26.379	0	80.638	0	255.5	4	93.6	4	-1E+10	1	-1E+10	1	-1E+10	1	-1E+10	1	-1E+10	1	-1E+10	1
4901784	150	C	08/13/2019	10:44	-132.397	43.104	0	82.90	0	10.4700	0	34.3780	8	26.387	0	82.225	0	254.1	4	93.0	4	-1E+10	1	-1E+10	1	-1E+10	1	-1E+10	1	-1E+10	1	-1E+10	1
4901784	150	C	08/13/2019	10:44	-132.397	43.104	0	84.50	0	10.3820	0	34.3750	8	26.400	0	83.812	0	253.0	4	92.5	4	-1E+10	1	-1E+10	1	-1E+10	1	-1E+10	1	-1E+10	1	-1E+10	1
4901784	150	C	08/13/2019	10:44	-132.397	43.104	0	86.20	0	10.3480	0	34.3800	8	26.410	0	85.497	0	252.3	4	92.2	4	-1E+10	1	-1E+10	1	-1E+10	1	-1E+10	1	-1E+10	1	-1E+10	1
4901784	150	C	08/13/2019	10:44	-132.397	43.104	0	87.80	0	10.3280	0	34.3820	8	26.415	0	87.084	0	251.5	4	91.8	4	-1E+10	1	-1E+10	1	-1E+10	1	-1E+10	1	-1E+10	1	-1E+10	1
4901784	150	C	08/13/2019	10:44	-132.397	43.104	0	89.40	0	10.2430	0	34.3770	8	26.426	0	88.671	0	251.1	4	91.5	4	-1E+10	1	-1E+10	1	-1E+10	1	-1E+10	1	-1E+10	1	-1E+10	1
4901784	150	C	08/13/2019	10:44	-132.397	43.104	0	91.10	0	10.1930	0	34.3720	8	26.431	0	90.356	0	250.8	4	91.3	4	-1E+10	1	-1E+10	1	-1E+10	1	-1E+10	1	-1E+10	1	-1E+10	1
4901784	150	C	08/13/2019	10:44	-132.397	43.104	0	92.80	0	10.1700	0	34.3700	8	26.433	0	92.042	0	250.2	4	91.0	4	-1E+10	1	-1E+10	1	-1E+10	1	-1E+10	1	-1E+10	1	-1E+10	1
4901784	150	C	08/13/2019	10:44	-132.397	43.104	0	94.50	0	10.1220	0	34.3660	8	26.438	0	93.728	0	249.6	4	90.7	4	-1E+10	1	-1E+10	1	-1E+10	1	-1E+10	1	-1E+10	1	-1E+10	1
4901784	150	C	08/13/2019	10:44	-132.397	43.104	0	96.20	0	10.0600	0	34.3630	8	26.447	0	95.414	0	249.1	4	90.4	4	-1E+10	1	-1E+10	1	-1E+10	1	-1E+10	1	-1E+10	1	-1E+10	1
4901784	150	C	08/13/2019	10:44	-132.397	43.104	0	98.00	0	10.0180	0	34.3570	8	26.449	0	97.198	0	248.3	4	90.0	4	-1E+10	1	-1E+10	1	-1E+10	1	-1E+10	1	-1E+10	1	-1E+10	1
4901784	150	C	08/13/2019	10:44	-132.397	43.104	0	99.70	0	9.9140	0	34.3540	8	26.464	0	98.884	0	247.9	4	89.7	4	-1E+10	1	-1E+10	1	-1E+10	1	-1E+10	1	-1E+10	1	-1E+10	1
4901784	150	C	08/13/2019	10:44	-132.397	43.104	0	102.30	0	9.7540	0	34.3530	8	26.491	0	101.462	0	247.2	4	89.1	4	-1E+10	1	-1E+10	1	-1E+10	1	-1E+10	1	-1E+10	1	-1E+10	1
4901784	150	C	08/13/2019	10:44	-132.397	43.104	0	105.00	0	9.5730	0	34.3630	8	26.528	0	104.139	0	246.2	4	88.4	4	-1E+10	1	-1E+10	1	-1E+10	1	-1E+10	1	-1E+10	1	-1E+10	1
4901784	150	C	08/13/2019	10:44	-132.397	43.104	0	107.70	0	9.5300	0	34.3700	8	26.541	0	106.817	0	244.6	4	87.8	4	-1E+10	1	-1E+10	1	-1E+10	1	-1E+10	1	-1E+10	1	-1E+10	1
4901784	150	C	08/13/2019	10:44	-132.397	43.104	0	110.40	0	9.2670	0	34.4030	8	26.610	0	109.494	0	243.6	4	86.9	4	-1E+10	1	-1E+10	1	-1E+10	1	-1E+10	1	-1E+10	1	-1E+10	1
4901784	150	C	08/13/2019	10:44	-132.397	43.104	0	112.20	0	9.2250	0	34.4200	8	26.630	0	111.278	0	242.5	4	86.5	4	-1E+10	1	-1E+10	1	-1E+10	1	-1E+10	1	-1E+10	1	-1E+10	1
4901784	150	C	08/13/2019	10:44	-132.397	43.104	0	114.80	0	9.2020	0	34.4350	8	26.646	0	113.856	0	241.2	4	86.0	4	-1E+10	1	-1E+10	1	-1E+10	1	-1E+10	1	-1E+10	1	-1E+10	1
4901784	150	C	08/13/2019	10:44	-132.397	43.104	0	117.50	0	9.0980	0	34.4630	8	26.684	0	116.533	0	239.7	4	85.3	4	-1E+10	1	-1E+10	1	-1E+10	1	-1E+10	1	-1E+10	1	-1E+10	1
4901784	150	C	08/13/2019	10:44	-132.397	43.104	0	119.90	0	9.0440	0	34.4740	8	26.702	0	118.913	0	238.2	4	84.6	4	-1E+10	1	-1E+10	1	-1E+10	1	-1E+10	1	-1E+10	1	-1E+10	1
4901784	150	C	08/13/2019	10:44	-132.397	43.104	0	122.30	0	8.9750	0	34.4920	8	26.727	0	121.293	0	236.3	4	83.8	4	-1E+10	1	-1E+10	1	-1E+10	1	-1E+10	1	-1E+10	1	-1E+10	1
4901784	150	C	08/13/2019	10:44	-132.397	43.104	0	124.60	0	8.8850	0	34.5250	8	26.767	0	123.573	0	234.1	4	82.9	4	-1E+10	1	-1E+10	1	-1E+10	1	-1E+10	1	-1E+10	1	-1E+10	1
4901784	150	C	08/13/2019	10:44	-132.397	43.104	0	127.10	0	8.7930	0	34.5740	8	26.820	0	126.052	0	231.9	4	82.0	4	-1E+10	1	-1E+10	1	-1E+10	1	-1E+10	1	-1E+10	1	-1E+10	1
4901784	150	C	08/13/2019	10:44	-132.397	43.104	0	130.30	0	8.6610	0	34.6320	8	26.886	0	129.224	0	229.2	4	80.8	4	-1E+10	1	-1E+10	1	-1E+10	1	-1E+10	1	-1E+10	1	-1E+10	1
4901784	150	C	08/13/2019	10:44	-132.397	43.104	0	132.80	0	8.4750	0	34.7220	8	26.986	0	131.703	0	227.8	4	80.1	4	-1E+10	1	-1E+10	1	-1E+10	1	-1E+10	1	-1E+10	1	-1E+10	1
4901784	150	C	08/13/2019	10:44	-132.397	43.104	0	135.00	0	8.4120	0	34.7440	8	27.013	0	133.884	0	227.0	4	79.7	4	-1E+10	1	-1E+10	1	-1E+10	1	-1E+10	1	-1E+10	1	-1E+10	1
4901784	150	C	08/13/2019	10:44	-132.397	43.104	0	137.40	0	8.3370	0	34.7870	8	27.058	0	136.263	0	225.4	4	79.0	4	-1E+10	1	-1E+10	1	-1E+10	1	-1E+10	1	-1E+10	1	-1E+10	1
4901784	150	C	08/13/2019	10:44	-132.397	43.104	0	140.30	0	8.2280	0	34.8660	8	27.137	0	139.138	0	223.6	4	78.3	4	-1E+10	1	-1E+10	1	-1E+10	1	-1E+10	1	-1E+10	1	-1E+10	1
4901784	150	C	08/13/2019	10:44	-132.397	43.104	0	142.50	0	8.1620	0	34.9160	8	27.186	0	141.319	0	222.5	4	77.8	4	-1E+10	1	-1E+10	1	-1E+10	1	-1E+10	1	-1E+10	1	-1E+10	1
4901784	150	C	08/13/2019	10:44	-132.397	43.104	0	144.60	0	8.1200	0	34.9580	8	27.225	0	143.401	0	221.2	4	77.3	4	-1E+10	1	-1E+10	1	-1E+10	1	-1E+10	1	-1E+10	1	-1E+10	1
4901784	150	C	08/13/2019	10:44	-132.397	43.104	0	147.50	0	8.0580	0	35.0080	8	27.274	0	146.276	0	218.7	4	76.3	4	-1E+10	1	-1E+10	1	-1E+10	1	-1E+10	1	-1E+10	1	-1E+10	1
4901784	150	C	08/13/2019	10:44	-132.397	43.104	0	149.80	0	7.9690	0	35.1070	8	27.365	0	148.556	0	216.7	4	75.5	4	-1E+10	1	-1E+10	1	-1E+10	1	-1E+10	1	-1E+10	1	-1E+10	1
4901784	150	C	08/13/2019	10:44	-132.397	43.104	0	152.20	0	7.9550	0	35.1210	8	27.378	0	150.935	0	214.8	4	74.9	4	-1E+10	1	-1E+10	1	-1E+10	1	-1E+10	1	-1E+10	1	-1E+10	1
4901784	150	C	08/13/2019	10:44	-132.397	43.104	0	155.40	0	7.8790	0	35.1970	8	27.449	0	154.107	0	211.3	4	73.6	4	-1E+10	1	-1E+10	1	-1E+10	1	-1E+10	1	-1E+10	1	-1E+10	1
4901784	150	C	08/13/2019	10:44	-132.397	43.104	0	157.80	0	7.8310	0	35.2590	8	27.505	0	156.487	0	210.1	4	73.1	4	-1E+10	1	-1E+10	1	-1E+10	1	-1E+10	1	-1E+10	1	-1E+10	1
4901784	150	C	08/13/2019	10:44	-132.397	43.104	0	159.50	0	7.8290	0	35.2650	8	27.510	0	158.172	0	209.5	4	72.9	4	-1E+10	1	-1E+10	1	-1E+10	1	-1E+10	1	-1E+10	1	-1E+10	1
4901784	150	C	08/13/2019	10:44	-132.397	43.104	0	162.10	0	7.8320	0	35.2870	8	27.527	0	160.749	0	208.7	4	72.6	4	-1E+10	1	-1E+10	1	-1E+10	1	-1E+10	1	-1E+10	1	-1E+10	1
4901784	150	C	08/13/2019	10:44	-132.397	43.104	0	165.40	0	7.8450	0	35.3310	8	27.560	0	164.020	0	206.9	4	72.0	4	-1E+10	1	-1E+10	1	-1E+10	1	-1E+10	1	-1E+10	1	-1E+10	1
4901784	150	C	08/13/2019	10:44	-132.397	43.104	0	168.00	0	7.8650	0	35.4480	8	27.649	0	166.598	0	203.9	4	71.1	4	-1E+10	1	-1E+10	1	-1E+10	1	-1E+10	1	-1E+10	1	-1E+10	1
4901784	150	C	08/13/2019	10:44	-132.397	43.104	0	169.70	0	7.8750	0	35.4760	8	27.670	0	168.283	0	202.0	4	70.5	4	-1E+10	1	-1E+10	1	-1E+10	1	-1E+10	1	-1E+10	1	-1E+10	1
4901784	150	C	08/13/2019	10:44	-132.397	43.104	0	172.50	0	7.8940	0	35.5270	8	27.707	0	171.058	0	198.5	4	69.3	4	-1E+10	1	-1E+10	1	-1E+10	1	-1E+10	1	-1E+10	1	-1E+10	1
4901784	150	C	08/13/2019	10:44	-132.397	43.104	0	174.90	0	7.9410	0	35.5910	8	27.750	0	173.437	0	195.0	4	68.2	4	-1E+10	1	-1E+10	1	-1E+10	1	-1E+10	1	-1E+10	1	-1E+10	1
4901784	150	C	08/13/2019	10:44	-132.397	43.104	0	177.30	0	8.0180	0	35.6710	8	27.801	0	175.816	0	192.0	4	67.3	4	-1E+10	1	-1E+10	1	-1E+10	1	-1E+10	1	-1E+10	1	-1E+10	1
4901784	150	C	08/13/2019	10:44	-132.397	43.104	0	179.50	0	8.0320	0	35.6830	8	27.809	0	177.997	0	190.4	4	66.7	4	-1E+10	1	-1E+10	1	-1E+10	1	-1E+10	1	-1E+10	1	-1E+10	1
4901784	150	C	08/13/2019	10:44	-132.397	43.104	0	182.70	0	8.0650	0	35.7110	8	27.826	0	181.168	0	187.4	4	65.7	4	-1E+10	1	-1E+10	1	-1E+10	1	-1E+10	1	-1E+10	1	-1E+10	1
4901784	150	C	08/13/2019	10:44	-132.397	43.104	0	185.10	0	8.0970	0	35.7340	8	27.839	0	183.547	0	185.2	4	65.1	4	-1E+10	1	-1E+10	1	-1E+10	1	-1E+10	1	-1E+10	1	-1E+10	1
4901784	150	C	08/13/2019	10:44	-132.397	43.104	0	187.50	0	8.0990	0	35.7440	8	27.847	0	185.926	0	183.6	4	64.5	4	-1E+10	1	-1E+10	1	-1E+10	1	-1E+10	1	-1E+10	1	-1E+10	1
4901784	150	C	08/13/2019	10:44	-132.397	43.104	0	190.00	0	8.1180	0	35.7640	8	27.859	0	188.404	0	181.6	4	63.8	4	-1E+10	1	-1E+10	1	-1E+10	1	-1E+10	1	-1E+10	1	-1E+10	1
4901784	150	C	08/13/2019	10:44	-132.397	43.104	0	192.50	0	8.1330	0	35.7830	8	27.872	0	190.882	0	179.6	4	63.1	4	-1E+10	1	-1E+10	1	-1E+10	1	-1E+10	1	-1E+10	1	-1E+10	1
4901784	150	C	08/13/2019	10:44	-132.397	43.104	0	195.00	0	8.1480	0	35.7980	8	27.882	0	193.360	0	178.2	4	62.7	4	-1E+10	1	-1E+10	1	-1E+10	1	-1E+10	1	-1E+10	1	-1E+10	1
4901784	150	C	08/13/2019	10:44	-132.397	43.104	0	197.60	0	8.1360	0	35.8020	8	27.887	0	195.937	0	176.9	4	62.2	4	-1E+10	1	-1E+10	1	-1E+10	1	-1E+10	1	-1E+10	1	-1E+10	1
4901784	150	C	08/13/2019	10:44	-132.397	43.104	0	200.20	0	8.1330	0	35.8130	8	27.896	0	198.513	0	174.8	4	61.5	4	-1E+10	1	-1E+10	1	-1E+10	1	-1E+10	1	-1E+10	1	-1E+10	1
4901784	150	C	08/13/2019	10:44	-132.397	43.104	0	202.80	0	8.1300	0	35.8230	8	27.904	0	201.090	0	172.6	4	60.7	4	-1E+10	1	-1E+10	1	-1E+10	1	-1E+10	1	-1E+10	1	-1E+10	1
4901784	150	C	08/13/2019	10:44	-132.397	43.104	0	205.40	0	8.1260	0	35.8370	8	27.916	0	203.667	0	170.1	4	59.8	4	-1E+10	1	-1E+10	1	-1E+10	1	-1E+10	1	-1E+10	1	-1E+10	1
4901784	150	C	08/13/2019	10:44	-132.397	43.104	0	207.20	0	8.1250	0	35.8400	8	27.918	0	205.451	0	168.4	4	59.2	4	-1E+10	1	-1E+10	1	-1E+10	1	-1E+10	1	-1E+10	1	-1E+10	1
4901784	150	C	08/13/2019	10:44	-132.397	43.104	0	209.80	0	8.1000	0	35.8570	8	27.936	0	208.028	0	165.7	4	58.2	4	-1E+10	1	-1E+10	1	-1E+10	1	-1E+10	1	-1E+10	1	-1E+10	1
4901784	150	C	08/13/2019	10:44	-132.397	43.104	0	212.40	0	8.0610	0	35.8640	8	27.947	0	210.604	0	163.9	4	57.6	4	-1E+10	1	-1E+10	1	-1E+10	1	-1E+10	1	-1E+10	1	-1E+10	1
4901784	150	C	08/13/2019	10:44	-132.397	43.104	0	215.00	0	8.0020	0	35.8690	8	27.960	0	213.181	0	162.7	4	57.1	4	-1E+10	1	-1E+10	1	-1E+10	1	-1E+10	1	-1E+10	1	-1E+10	1
4901784	150	C	08/13/2019	10:44	-132.397	43.104	0	217.70	0	7.9750	0	35.8660	8	27.962	0	215.857	0	161.3	4	56.6	4	-1E+10	1	-1E+10	1	-1E+10	1	-1E+10	1	-1E+10	1	-1E+10	1
4901784	150	C	08/13/2019	10:44	-132.397	43.104	0	220.30	0	7.9070	0	35.8700	8	27.975	0	218.433	0	160.2	4	56.1	4	-1E+10	1	-1E+10	1	-1E+10	1	-1E+10	1	-1E+10	1	-1E+10	1
4901784	150	C	08/13/2019	10:44	-132.397	43.104	0	222.90	0	7.8540	0	35.8710	8	27.984	0	221.010	0	159.4	4	55.7	4	-1E+10	1	-1E+10	1	-1E+10	1	-1E+10	1	-1E+10	1	-1E+10	1
4901784	150	C	08/13/2019	10:44	-132.397	43.104	0	224.70	0	7.8290	0	35.8710	8	27.988	0	222.794	0	158.6	4	55.4	4	-1E+10	1	-1E+10	1	-1E+10	1	-1E+10	1	-1E+10	1	-1E+10	1
4901784	150	C	08/13/2019	10:44	-132.397	43.104	0	227.30	0	7.8030	0	35.8700	8	27.991	0	225.370	0	157.7	4	55.1	4	-1E+10	1	-1E+10	1	-1E+10	1	-1E+10	1	-1E+10	1	-1E+10	1
4901784	150	C	08/13/2019	10:44	-132.397	43.104	0	230.00	0	7.7410	0	35.8710	8	28.001	0	228.046	0	157.3	4	54.9	4	-1E+10	1	-1E+10	1	-1E+10	1	-1E+10	1	-1E+10	1	-1E+10	1
4901784	150	C	08/13/2019	10:44	-132.397	43.104	0	232.60	0	7.7150	0	35.8700	8	28.004	0	230.622	0	157.2	4	54.8	4	-1E+10	1	-1E+10	1	-1E+10	1	-1E+10	1	-1E+10	1	-1E+10	1
4901784	150	C	08/13/2019	10:44	-132.397	43.104	0	235.30	0	7.6940	0	35.8680	8	28.006	0	233.298	0	157.0	4	54.7	4	-1E+10	1	-1E+10	1	-1E+10	1	-1E+10	1	-1E+10	1	-1E+10	1
4901784	150	C	08/13/2019	10:44	-132.397	43.104	0	237.90	0	7.6360	0	35.8680	8	28.014	0	235.874	0	156.6	4	54.5	4	-1E+10	1	-1E+10	1	-1E+10	1	-1E+10	1	-1E+10	1	-1E+10	1
4901784	150	C	08/13/2019	10:44	-132.397	43.104	0	240.50	0	7.6150	0	35.8650	8	28.015	0	238.451	0	155.6	4	54.1	4	-1E+10	1	-1E+10	1	-1E+10	1	-1E+10	1	-1E+10	1	-1E+10	1
4901784	150	C	08/13/2019	10:44	-132.397	43.104	0	242.20	0	7.5920	0	35.8640	8	28.018	0	240.135	0	154.6	4	53.7	4	-1E+10	1	-1E+10	1	-1E+10	1	-1E+10	1	-1E+10	1	-1E+10	1
4901784	150	C	08/13/2019	10:44	-132.397	43.104	0	244.90	0	7.5150	0	35.8650	8	28.030	0	242.811	0	152.9	4	53.0	4	-1E+10	1	-1E+10	1	-1E+10	1	-1E+10	1	-1E+10	1	-1E+10	1
4901784	150	C	08/13/2019	10:44	-132.397	43.104	0	247.40	0	7.4750	0	35.8640	8	28.035	0	245.288	0	151.7	4	52.6	4	-1E+10	1	-1E+10	1	-1E+10	1	-1E+10	1	-1E+10	1	-1E+10	1
4901784	150	C	08/13/2019	10:44	-132.397	43.104	0	250.00	0	7.4410	0	35.8630	8	28.039	0	247.864	0	150.6	4	52.2	4	-1E+10	1	-1E+10	1	-1E+10	1	-1E+10	1	-1E+10	1	-1E+10	1
4901784	150	C	08/13/2019	10:44	-132.397	43.104	0	252.60	0	7.4100	0	35.8600	8	28.042	0	250.440	0	149.6	4	51.8	4	-1E+10	1	-1E+10	1	-1E+10	1	-1E+10	1	-1E+10	1	-1E+10	1
4901784	150	C	08/13/2019	10:44	-132.397	43.104	0	255.10	0	7.3510	0	35.8660	8	28.055	0	252.917	0	148.5	4	51.3	4	-1E+10	1	-1E+10	1	-1E+10	1	-1E+10	1	-1E+10	1	-1E+10	1
4901784	150	C	08/13/2019	10:44	-132.397	43.104	0	257.70	0	7.2620	0	35.8750	8	28.075	0	255.493	0	147.6	4	50.9	4	-1E+10	1	-1E+10	1	-1E+10	1	-1E+10	1	-1E+10	1	-1E+10	1
4901784	150	C	08/13/2019	10:44	-132.397	43.104	0	259.50	0	7.2450	0	35.8740	8	28.077	0	257.277	0	147.1	4	50.7	4	-1E+10	1	-1E+10	1	-1E+10	1	-1E+10	1	-1E+10	1	-1E+10	1
4901784	150	C	08/13/2019	10:44	-132.397	43.104	0	262.20	0	7.2240	0	35.8730	8	28.079	0	259.952	0	146.3	4	50.4	4	-1E+10	1	-1E+10	1	-1E+10	1	-1E+10	1	-1E+10	1	-1E+10	1
4901784	150	C	08/13/2019	10:44	-132.397	43.104	0	264.80	0	7.1930	0	35.8710	8	28.082	0	262.528	0	145.3	4	50.0	4	-1E+10	1	-1E+10	1	-1E+10	1	-1E+10	1	-1E+10	1	-1E+10	1
4901784	150	C	08/13/2019	10:44	-132.397	43.104	0	267.40	0	7.1380	0	35.8720	8	28.090	0	265.104	0	144.4	4	49.7	4	-1E+10	1	-1E+10	1	-1E+10	1	-1E+10	1	-1E+10	1	-1E+10	1
4901784	150	C	08/13/2019	10:44	-132.397	43.104	0	270.00	0	7.1240	0	35.8700	8	28.091	0	267.680	0	143.3	4	49.3	4	-1E+10	1	-1E+10	1	-1E+10	1	-1E+10	1	-1E+10	1	-1E+10	1
4901784	150	C	08/13/2019	10:44	-132.397	43.104	0	272.60	0	7.0940	0	35.8680	8	28.094	0	270.256	0	141.7	4	48.7	4	-1E+10	1	-1E+10	1	-1E+10	1	-1E+10	1	-1E+10	1	-1E+10	1
4901784	150	C	08/13/2019	10:44	-132.397	43.104	0	275.20	0	7.0580	0	35.8650	8	28.096	0	272.832	0	139.9	4	48.0	4	-1E+10	1	-1E+10	1	-1E+10	1	-1E+10	1	-1E+10	1	-1E+10	1
4901784	150	C	08/13/2019	10:44	-132.397	43.104	0	277.70	0	6.9690	0	35.8680	8	28.111	0	275.309	0	137.6	4	47.2	4	-1E+10	1	-1E+10	1	-1E+10	1	-1E+10	1	-1E+10	1	-1E+10	1
4901784	150	C	08/13/2019	10:44	-132.397	43.104	0	280.30	0	6.8830	0	35.8670	8	28.123	0	277.885	0	136.1	4	46.5	4	-1E+10	1	-1E+10	1	-1E+10	1	-1E+10	1	-1E+10	1	-1E+10	1
4901784	150	C	08/13/2019	10:44	-132.397	43.104	0	282.90	0	6.8680	0	35.8640	8	28.122	0	280.461	0	134.3	4	45.9	4	-1E+10	1	-1E+10	1	-1E+10	1	-1E+10	1	-1E+10	1	-1E+10	1
4901784	150	C	08/13/2019	10:44	-132.397	43.104	0	285.40	0	6.8070	0	35.8660	8	28.132	0	282.937	0	132.2	4	45.1	4	-1E+10	1	-1E+10	1	-1E+10	1	-1E+10	1	-1E+10	1	-1E+10	1
4901784	150	C	08/13/2019	10:44	-132.397	43.104	0	287.10	0	6.7590	0	35.8660	8	28.139	0	284.622	0	131.0	4	44.7	4	-1E+10	1	-1E+10	1	-1E+10	1	-1E+10	1	-1E+10	1	-1E+10	1
4901784	150	C	08/13/2019	10:44	-132.397	43.104	0	289.70	0	6.7150	0	35.8680	8	28.147	0	287.197	0	129.4	4	44.1	4	-1E+10	1	-1E+10	1	-1E+10	1	-1E+10	1	-1E+10	1	-1E+10	1
4901784	150	C	08/13/2019	10:44	-132.397	43.104	0	292.30	0	6.6770	0	35.8670	8	28.151	0	289.773	0	128.0	4	43.6	4	-1E+10	1	-1E+10	1	-1E+10	1	-1E+10	1	-1E+10	1	-1E+10	1
4901784	150	C	08/13/2019	10:44	-132.397	43.104	0	294.90	0	6.6560	0	35.8670	8	28.154	0	292.349	0	127.2	4	43.3	4	-1E+10	1	-1E+10	1	-1E+10	1	-1E+10	1	-1E+10	1	-1E+10	1
4901784	150	C	08/13/2019	10:44	-132.397	43.104	0	297.50	0	6.6410	0	35.8650	8	28.155	0	294.924	0	125.7	4	42.8	4	-1E+10	1	-1E+10	1	-1E+10	1	-1E+10	1	-1E+10	1	-1E+10	1
4901784	150	C	08/13/2019	10:44	-132.397	43.104	0	300.10	0	6.5710	0	35.8670	8	28.166	0	297.500	0	124.1	4	42.2	4	-1E+10	1	-1E+10	1	-1E+10	1	-1E+10	1	-1E+10	1	-1E+10	1
4901784	150	C	08/13/2019	10:44	-132.397	43.104	0	302.70	0	6.5470	0	35.8670	8	28.169	0	300.076	0	123.5	4	41.9	4	-1E+10	1	-1E+10	1	-1E+10	1	-1E+10	1	-1E+10	1	-1E+10	1
4901784	150	C	08/13/2019	10:44	-132.397	43.104	0	305.30	0	6.5340	0	35.8660	8	28.170	0	302.651	0	122.4	4	41.5	4	-1E+10	1	-1E+10	1	-1E+10	1	-1E+10	1	-1E+10	1	-1E+10	1
4901784	150	C	08/13/2019	10:44	-132.397	43.104	0	308.00	0	6.4960	0	35.8650	8	28.175	0	305.326	0	121.4	4	41.2	4	-1E+10	1	-1E+10	1	-1E+10	1	-1E+10	1	-1E+10	1	-1E+10	1
4901784	150	C	08/13/2019	10:44	-132.397	43.104	0	309.70	0	6.4590	0	35.8650	8	28.180	0	307.010	0	120.8	4	40.9	4	-1E+10	1	-1E+10	1	-1E+10	1	-1E+10	1	-1E+10	1	-1E+10	1
4901784	150	C	08/13/2019	10:44	-132.397	43.104	0	312.30	0	6.4350	0	35.8650	8	28.183	0	309.585	0	119.8	4	40.6	4	-1E+10	1	-1E+10	1	-1E+10	1	-1E+10	1	-1E+10	1	-1E+10	1
4901784	150	C	08/13/2019	10:44	-132.397	43.104	0	315.00	0	6.4190	0	35.8640	8	28.184	0	312.260	0	118.5	4	40.1	4	-1E+10	1	-1E+10	1	-1E+10	1	-1E+10	1	-1E+10	1	-1E+10	1
4901784	150	C	08/13/2019	10:44	-132.397	43.104	0	317.70	0	6.3890	0	35.8630	8	28.188	0	314.934	0	116.9	4	39.5	4	-1E+10	1	-1E+10	1	-1E+10	1	-1E+10	1	-1E+10	1	-1E+10	1
4901784	150	C	08/13/2019	10:44	-132.397	43.104	0	320.40	0	6.3600	0	35.8600	8	28.189	0	317.609	0	115.2	4	38.9	4	-1E+10	1	-1E+10	1	-1E+10	1	-1E+10	1	-1E+10	1	-1E+10	1
4901784	150	C	08/13/2019	10:44	-132.397	43.104	0	322.10	0	6.3090	0	35.8620	8	28.198	0	319.292	0	113.9	4	38.4	4	-1E+10	1	-1E+10	1	-1E+10	1	-1E+10	1	-1E+10	1	-1E+10	1
4901784	150	C	08/13/2019	10:44	-132.397	43.104	0	324.80	0	6.2600	0	35.8600	8	28.202	0	321.967	0	111.4	4	37.6	4	-1E+10	1	-1E+10	1	-1E+10	1	-1E+10	1	-1E+10	1	-1E+10	1
4901784	150	C	08/13/2019	10:44	-132.397	43.104	0	327.50	0	6.1710	0	35.8630	8	28.217	0	324.641	0	109.3	4	36.8	4	-1E+10	1	-1E+10	1	-1E+10	1	-1E+10	1	-1E+10	1	-1E+10	1
4901784	150	C	08/13/2019	10:44	-132.397	43.104	0	330.20	0	6.1150	0	35.8610	8	28.222	0	327.315	0	107.9	4	36.3	4	-1E+10	1	-1E+10	1	-1E+10	1	-1E+10	1	-1E+10	1	-1E+10	1
4901784	150	C	08/13/2019	10:44	-132.397	43.104	0	333.00	0	6.0410	0	35.8650	8	28.235	0	330.089	0	107.2	4	36.0	4	-1E+10	1	-1E+10	1	-1E+10	1	-1E+10	1	-1E+10	1	-1E+10	1
4901784	150	C	08/13/2019	10:44	-132.397	43.104	0	334.80	0	6.0300	0	35.8640	8	28.236	0	331.872	0	106.7	4	35.8	4	-1E+10	1	-1E+10	1	-1E+10	1	-1E+10	1	-1E+10	1	-1E+10	1
4901784	150	C	08/13/2019	10:44	-132.397	43.104	0	337.50	0	6.0120	0	35.8640	8	28.238	0	334.546	0	106.0	4	35.5	4	-1E+10	1	-1E+10	1	-1E+10	1	-1E+10	1	-1E+10	1	-1E+10	1
4901784	150	C	08/13/2019	10:44	-132.397	43.104	0	340.80	0	5.9810	0	35.8640	8	28.242	0	337.814	0	105.3	4	35.3	4	-1E+10	1	-1E+10	1	-1E+10	1	-1E+10	1	-1E+10	1	-1E+10	1
4901784	150	C	08/13/2019	10:44	-132.397	43.104	0	342.80	0	5.9730	0	35.8640	8	28.243	0	339.795	0	104.9	4	35.1	4	-1E+10	1	-1E+10	1	-1E+10	1	-1E+10	1	-1E+10	1	-1E+10	1
4901784	150	C	08/13/2019	10:44	-132.397	43.104	0	345.10	0	5.9530	0	35.8640	8	28.246	0	342.073	0	104.1	4	34.9	4	-1E+10	1	-1E+10	1	-1E+10	1	-1E+10	1	-1E+10	1	-1E+10	1
4901784	150	C	08/13/2019	10:44	-132.397	43.104	0	347.40	0	5.9230	0	35.8640	8	28.250	0	344.351	0	103.5	4	34.6	4	-1E+10	1	-1E+10	1	-1E+10	1	-1E+10	1	-1E+10	1	-1E+10	1
4901784	150	C	08/13/2019	10:44	-132.397	43.104	0	349.70	0	5.8980	0	35.8640	8	28.253	0	346.629	0	102.8	4	34.4	4	-1E+10	1	-1E+10	1	-1E+10	1	-1E+10	1	-1E+10	1	-1E+10	1
4901784	150	C	08/13/2019	10:44	-132.397	43.104	0	352.10	0	5.8740	0	35.8640	8	28.256	0	349.006	0	102.2	4	34.1	4	-1E+10	1	-1E+10	1	-1E+10	1	-1E+10	1	-1E+10	1	-1E+10	1
4901784	150	C	08/13/2019	10:44	-132.397	43.104	0	354.60	0	5.8470	0	35.8640	8	28.260	0	351.482	0	101.7	4	34.0	4	-1E+10	1	-1E+10	1	-1E+10	1	-1E+10	1	-1E+10	1	-1E+10	1
4901784	150	C	08/13/2019	10:44	-132.397	43.104	0	357.90	0	5.8320	0	35.8630	8	28.261	0	354.750	0	100.7	4	33.6	4	-1E+10	1	-1E+10	1	-1E+10	1	-1E+10	1	-1E+10	1	-1E+10	1
4901784	150	C	08/13/2019	10:44	-132.397	43.104	0	360.40	0	5.8100	0	35.8610	8	28.262	0	357.226	0	99.9	4	33.3	4	-1E+10	1	-1E+10	1	-1E+10	1	-1E+10	1	-1E+10	1	-1E+10	1
4901784	150	C	08/13/2019	10:44	-132.397	43.104	0	362.10	0	5.7880	0	35.8620	8	28.266	0	358.909	0	99.2	4	33.1	4	-1E+10	1	-1E+10	1	-1E+10	1	-1E+10	1	-1E+10	1	-1E+10	1
4901784	150	C	08/13/2019	10:44	-132.397	43.104	0	364.60	0	5.7390	0	35.8620	8	28.272	0	361.385	0	98.3	4	32.8	4	-1E+10	1	-1E+10	1	-1E+10	1	-1E+10	1	-1E+10	1	-1E+10	1
4901784	150	C	08/13/2019	10:44	-132.397	43.104	0	367.20	0	5.7040	0	35.8620	8	28.277	0	363.960	0	97.1	4	32.3	4	-1E+10	1	-1E+10	1	-1E+10	1	-1E+10	1	-1E+10	1	-1E+10	1
4901784	150	C	08/13/2019	10:44	-132.397	43.104	0	369.80	0	5.6440	0	35.8640	8	28.286	0	366.534	0	96.2	4	32.0	4	-1E+10	1	-1E+10	1	-1E+10	1	-1E+10	1	-1E+10	1	-1E+10	1
4901784	150	C	08/13/2019	10:44	-132.397	43.104	0	372.40	0	5.6230	0	35.8640	8	28.288	0	369.109	0	95.6	4	31.8	4	-1E+10	1	-1E+10	1	-1E+10	1	-1E+10	1	-1E+10	1	-1E+10	1
4901784	150	C	08/13/2019	10:44	-132.397	43.104	0	374.90	0	5.6130	0	35.8620	8	28.288	0	371.585	0	94.9	4	31.5	4	-1E+10	1	-1E+10	1	-1E+10	1	-1E+10	1	-1E+10	1	-1E+10	1
4901784	150	C	08/13/2019	10:44	-132.397	43.104	0	377.50	0	5.5910	0	35.8610	8	28.290	0	374.160	0	93.8	4	31.1	4	-1E+10	1	-1E+10	1	-1E+10	1	-1E+10	1	-1E+10	1	-1E+10	1
4901784	150	C	08/13/2019	10:44	-132.397	43.104	0	380.20	0	5.5440	0	35.8600	8	28.295	0	376.833	0	92.6	4	30.7	4	-1E+10	1	-1E+10	1	-1E+10	1	-1E+10	1	-1E+10	1	-1E+10	1
4901784	150	C	08/13/2019	10:44	-132.397	43.104	0	382.90	0	5.4930	0	35.8600	8	28.302	0	379.507	0	91.1	4	30.2	4	-1E+10	1	-1E+10	1	-1E+10	1	-1E+10	1	-1E+10	1	-1E+10	1
4901784	150	C	08/13/2019	10:44	-132.397	43.104	0	384.60	0	5.4440	0	35.8640	8	28.311	0	381.190	0	89.8	4	29.7	4	-1E+10	1	-1E+10	1	-1E+10	1	-1E+10	1	-1E+10	1	-1E+10	1
4901784	150	C	08/13/2019	10:44	-132.397	43.104	0	387.30	0	5.4190	0	35.8640	8	28.314	0	383.864	0	88.4	4	29.2	4	-1E+10	1	-1E+10	1	-1E+10	1	-1E+10	1	-1E+10	1	-1E+10	1
4901784	150	C	08/13/2019	10:44	-132.397	43.104	0	390.00	0	5.3570	0	35.8680	8	28.325	0	386.537	0	87.2	4	28.8	4	-1E+10	1	-1E+10	1	-1E+10	1	-1E+10	1	-1E+10	1	-1E+10	1
4901784	150	C	08/13/2019	10:44	-132.397	43.104	0	392.60	0	5.3550	0	35.8680	8	28.325	0	389.112	0	86.2	4	28.5	4	-1E+10	1	-1E+10	1	-1E+10	1	-1E+10	1	-1E+10	1	-1E+10	1
4901784	150	C	08/13/2019	10:44	-132.397	43.104	0	395.30	0	5.3440	0	35.8690	8	28.327	0	391.785	0	85.3	4	28.2	4	-1E+10	1	-1E+10	1	-1E+10	1	-1E+10	1	-1E+10	1	-1E+10	1
4901784	150	C	08/13/2019	10:44	-132.397	43.104	0	397.10	0	5.3080	0	35.8700	8	28.332	0	393.567	0	85.0	4	28.0	4	-1E+10	1	-1E+10	1	-1E+10	1	-1E+10	1	-1E+10	1	-1E+10	1
4901784	150	C	08/13/2019	10:44	-132.397	43.104	0	399.90	0	5.2940	0	35.8710	8	28.335	0	396.340	0	83.4	4	27.5	4	-1E+10	1	-1E+10	1	-1E+10	1	-1E+10	1	-1E+10	1	-1E+10	1
4901784	150	C	08/13/2019	10:44	-132.397	43.104	0	402.60	0	5.2900	0	35.8730	8	28.337	0	399.013	0	82.4	4	27.2	4	-1E+10	1	-1E+10	1	-1E+10	1	-1E+10	1	-1E+10	1	-1E+10	1
4901784	150	C	08/13/2019	10:44	-132.397	43.104	0	404.50	0	5.2720	0	35.8750	8	28.341	0	400.895	0	81.9	4	27.0	4	-1E+10	1	-1E+10	1	-1E+10	1	-1E+10	1	-1E+10	1	-1E+10	1
4901784	150	C	08/13/2019	10:44	-132.397	43.104	0	407.20	0	5.2590	0	35.8750	8	28.342	0	403.568	0	81.3	4	26.8	4	-1E+10	1	-1E+10	1	-1E+10	1	-1E+10	1	-1E+10	1	-1E+10	1
4901784	150	C	08/13/2019	10:44	-132.397	43.104	0	410.10	0	5.2440	0	35.8760	8	28.345	0	406.439	0	80.5	4	26.5	4	-1E+10	1	-1E+10	1	-1E+10	1	-1E+10	1	-1E+10	1	-1E+10	1
4901784	150	C	08/13/2019	10:44	-132.397	43.104	0	412.00	0	5.2360	0	35.8750	8	28.345	0	408.320	0	79.9	4	26.3	4	-1E+10	1	-1E+10	1	-1E+10	1	-1E+10	1	-1E+10	1	-1E+10	1
4901784	150	C	08/13/2019	10:44	-132.397	43.104	0	414.80	0	5.2140	0	35.8770	8	28.350	0	411.092	0	78.7	4	25.9	4	-1E+10	1	-1E+10	1	-1E+10	1	-1E+10	1	-1E+10	1	-1E+10	1
4901784	150	C	08/13/2019	10:44	-132.397	43.104	0	417.50	0	5.2000	0	35.8790	8	28.353	0	413.766	0	77.3	4	25.4	4	-1E+10	1	-1E+10	1	-1E+10	1	-1E+10	1	-1E+10	1	-1E+10	1
4901784	150	C	08/13/2019	10:44	-132.397	43.104	0	419.40	0	5.2010	0	35.8780	8	28.352	0	415.647	0	76.3	4	25.1	4	-1E+10	1	-1E+10	1	-1E+10	1	-1E+10	1	-1E+10	1	-1E+10	1
4901784	150	C	08/13/2019	10:44	-132.397	43.104	0	422.30	0	5.1510	0	35.8830	8	28.362	0	418.518	0	75.0	4	24.6	4	-1E+10	1	-1E+10	1	-1E+10	1	-1E+10	1	-1E+10	1	-1E+10	1
4901784	150	C	08/13/2019	10:44	-132.397	43.104	0	425.00	0	5.1340	0	35.8830	8	28.364	0	421.191	0	73.7	4	24.2	4	-1E+10	1	-1E+10	1	-1E+10	1	-1E+10	1	-1E+10	1	-1E+10	1
4901784	150	C	08/13/2019	10:44	-132.397	43.104	0	426.90	0	5.1100	0	35.8860	8	28.369	0	423.072	0	72.6	4	23.9	4	-1E+10	1	-1E+10	1	-1E+10	1	-1E+10	1	-1E+10	1	-1E+10	1
4901784	150	C	08/13/2019	10:44	-132.397	43.104	0	429.70	0	5.0720	0	35.8920	8	28.379	0	425.844	0	71.3	4	23.4	4	-1E+10	1	-1E+10	1	-1E+10	1	-1E+10	1	-1E+10	1	-1E+10	1
4901784	150	C	08/13/2019	10:44	-132.397	43.104	0	432.50	0	5.0600	0	35.8950	8	28.382	0	428.616	0	70.3	4	23.1	4	-1E+10	1	-1E+10	1	-1E+10	1	-1E+10	1	-1E+10	1	-1E+10	1
4901784	150	C	08/13/2019	10:44	-132.397	43.104	0	434.40	0	5.0530	0	35.8960	8	28.384	0	430.497	0	69.7	4	22.9	4	-1E+10	1	-1E+10	1	-1E+10	1	-1E+10	1	-1E+10	1	-1E+10	1
4901784	150	C	08/13/2019	10:44	-132.397	43.104	0	437.30	0	5.0330	0	35.8990	8	28.389	0	433.368	0	68.7	4	22.5	4	-1E+10	1	-1E+10	1	-1E+10	1	-1E+10	1	-1E+10	1	-1E+10	1
4901784	150	C	08/13/2019	10:44	-132.397	43.104	0	440.20	0	5.0200	0	35.9010	8	28.392	0	436.239	0	67.8	4	22.2	4	-1E+10	1	-1E+10	1	-1E+10	1	-1E+10	1	-1E+10	1	-1E+10	1
4901784	150	C	08/13/2019	10:44	-132.397	43.104	0	442.10	0	5.0150	0	35.9010	8	28.393	0	438.120	0	67.2	4	22.0	4	-1E+10	1	-1E+10	1	-1E+10	1	-1E+10	1	-1E+10	1	-1E+10	1
4901784	150	C	08/13/2019	10:44	-132.397	43.104	0	445.00	0	5.0020	0	35.9030	8	28.396	0	440.990	0	65.8	4	21.6	4	-1E+10	1	-1E+10	1	-1E+10	1	-1E+10	1	-1E+10	1	-1E+10	1
4901784	150	C	08/13/2019	10:44	-132.397	43.104	0	447.90	0	4.9720	0	35.9060	8	28.402	0	443.861	0	64.5	4	21.1	4	-1E+10	1	-1E+10	1	-1E+10	1	-1E+10	1	-1E+10	1	-1E+10	1
4901784	150	C	08/13/2019	10:44	-132.397	43.104	0	449.80	0	4.9460	0	35.9130	8	28.410	0	445.742	0	63.7	4	20.9	4	-1E+10	1	-1E+10	1	-1E+10	1	-1E+10	1	-1E+10	1	-1E+10	1
4901784	150	C	08/13/2019	10:44	-132.397	43.104	0	452.70	0	4.9380	0	35.9140	8	28.412	0	448.613	0	63.1	4	20.6	4	-1E+10	1	-1E+10	1	-1E+10	1	-1E+10	1	-1E+10	1	-1E+10	1
4901784	150	C	08/13/2019	10:44	-132.397	43.104	0	455.60	0	4.9290	0	35.9140	8	28.413	0	451.483	0	62.3	4	20.4	4	-1E+10	1	-1E+10	1	-1E+10	1	-1E+10	1	-1E+10	1	-1E+10	1
4901784	150	C	08/13/2019	10:44	-132.397	43.104	0	457.50	0	4.9200	0	35.9160	8	28.416	0	453.364	0	61.7	4	20.2	4	-1E+10	1	-1E+10	1	-1E+10	1	-1E+10	1	-1E+10	1	-1E+10	1
4901784	150	C	08/13/2019	10:44	-132.397	43.104	0	459.40	0	4.9070	0	35.9180	8	28.419	0	455.245	0	61.0	4	20.0	4	-1E+10	1	-1E+10	1	-1E+10	1	-1E+10	1	-1E+10	1	-1E+10	1
4901784	150	C	08/13/2019	10:44	-132.397	43.104	0	462.30	0	4.8890	0	35.9210	8	28.424	0	458.116	0	60.2	4	19.7	4	-1E+10	1	-1E+10	1	-1E+10	1	-1E+10	1	-1E+10	1	-1E+10	1
4901784	150	C	08/13/2019	10:44	-132.397	43.104	0	465.20	0	4.8760	0	35.9230	8	28.427	0	460.986	0	59.5	4	19.4	4	-1E+10	1	-1E+10	1	-1E+10	1	-1E+10	1	-1E+10	1	-1E+10	1
4901784	150	C	08/13/2019	10:44	-132.397	43.104	0	467.10	0	4.8700	0	35.9240	8	28.428	0	462.867	0	59.0	4	19.3	4	-1E+10	1	-1E+10	1	-1E+10	1	-1E+10	1	-1E+10	1	-1E+10	1
4901784	150	C	08/13/2019	10:44	-132.397	43.104	0	470.00	0	4.8610	0	35.9250	8	28.430	0	465.737	0	58.1	4	19.0	4	-1E+10	1	-1E+10	1	-1E+10	1	-1E+10	1	-1E+10	1	-1E+10	1
4901784	150	C	08/13/2019	10:44	-132.397	43.104	0	473.00	0	4.8400	0	35.9300	8	28.437	0	468.707	0	57.1	4	18.6	4	-1E+10	1	-1E+10	1	-1E+10	1	-1E+10	1	-1E+10	1	-1E+10	1
4901784	150	C	08/13/2019	10:44	-132.397	43.104	0	475.00	0	4.8350	0	35.9310	8	28.438	0	470.686	0	56.5	4	18.5	4	-1E+10	1	-1E+10	1	-1E+10	1	-1E+10	1	-1E+10	1	-1E+10	1
4901784	150	C	08/13/2019	10:44	-132.397	43.104	0	476.90	0	4.8220	0	35.9330	8	28.441	0	472.567	0	55.9	4	18.2	4	-1E+10	1	-1E+10	1	-1E+10	1	-1E+10	1	-1E+10	1	-1E+10	1
4901784	150	C	08/13/2019	10:44	-132.397	43.104	0	479.80	0	4.8080	0	35.9370	8	28.446	0	475.437	0	55.2	4	18.0	4	-1E+10	1	-1E+10	1	-1E+10	1	-1E+10	1	-1E+10	1	-1E+10	1
4901784	150	C	08/13/2019	10:44	-132.397	43.104	0	482.70	0	4.7970	0	35.9390	8	28.449	0	478.307	0	54.5	4	17.8	4	-1E+10	1	-1E+10	1	-1E+10	1	-1E+10	1	-1E+10	1	-1E+10	1
4901784	150	C	08/13/2019	10:44	-132.397	43.104	0	484.70	0	4.7920	0	35.9400	8	28.450	0	480.287	0	54.1	4	17.6	4	-1E+10	1	-1E+10	1	-1E+10	1	-1E+10	1	-1E+10	1	-1E+10	1
4901784	150	C	08/13/2019	10:44	-132.397	43.104	0	487.60	0	4.7830	0	35.9420	8	28.453	0	483.157	0	53.3	4	17.4	4	-1E+10	1	-1E+10	1	-1E+10	1	-1E+10	1	-1E+10	1	-1E+10	1
4901784	150	C	08/13/2019	10:44	-132.397	43.104	0	490.60	0	4.7740	0	35.9430	8	28.455	0	486.126	0	52.5	4	17.1	4	-1E+10	1	-1E+10	1	-1E+10	1	-1E+10	1	-1E+10	1	-1E+10	1
4901784	150	C	08/13/2019	10:44	-132.397	43.104	0	492.50	0	4.7630	0	35.9460	8	28.458	0	488.007	0	51.8	4	16.9	4	-1E+10	1	-1E+10	1	-1E+10	1	-1E+10	1	-1E+10	1	-1E+10	1
4901784	150	C	08/13/2019	10:44	-132.397	43.104	0	494.50	0	4.7590	0	35.9470	8	28.460	0	489.986	0	51.2	4	16.7	4	-1E+10	1	-1E+10	1	-1E+10	1	-1E+10	1	-1E+10	1	-1E+10	1
4901784	150	C	08/13/2019	10:44	-132.397	43.104	0	497.40	0	4.7440	0	35.9510	8	28.465	0	492.856	0	50.2	4	16.3	4	-1E+10	1	-1E+10	1	-1E+10	1	-1E+10	1	-1E+10	1	-1E+10	1
4901784	150	C	08/13/2019	10:44	-132.397	43.104	0	500.30	0	4.7320	0	35.9530	8	28.468	0	495.726	0	49.2	4	16.0	4	-1E+10	1	-1E+10	1	-1E+10	1	-1E+10	1	-1E+10	1	-1E+10	1
4901784	150	C	08/13/2019	10:44	-132.397	43.104	0	505.10	0	4.7090	0	35.9600	8	28.476	0	500.477	0	47.4	4	15.4	4	-1E+10	1	-1E+10	1	-1E+10	1	-1E+10	1	-1E+10	1	-1E+10	1
4901784	150	C	08/13/2019	10:44	-132.397	43.104	0	509.90	0	4.7020	0	35.9670	8	28.482	0	505.227	0	45.7	4	14.9	4	-1E+10	1	-1E+10	1	-1E+10	1	-1E+10	1	-1E+10	1	-1E+10	1
4901784	150	C	08/13/2019	10:44	-132.397	43.104	0	514.80	0	4.6890	0	35.9730	8	28.489	0	510.076	0	44.7	4	14.6	4	-1E+10	1	-1E+10	1	-1E+10	1	-1E+10	1	-1E+10	1	-1E+10	1
4901784	150	C	08/13/2019	10:44	-132.397	43.104	0	519.70	0	4.6620	0	35.9740	8	28.492	0	514.925	0	43.7	4	14.2	4	-1E+10	1	-1E+10	1	-1E+10	1	-1E+10	1	-1E+10	1	-1E+10	1
4901784	150	C	08/13/2019	10:44	-132.397	43.104	0	525.50	0	4.6410	0	35.9810	8	28.500	0	520.664	0	41.8	4	13.6	4	-1E+10	1	-1E+10	1	-1E+10	1	-1E+10	1	-1E+10	1	-1E+10	1
4901784	150	C	08/13/2019	10:44	-132.397	43.104	0	530.30	0	4.6250	0	35.9860	8	28.506	0	525.414	0	40.2	4	13.1	4	-1E+10	1	-1E+10	1	-1E+10	1	-1E+10	1	-1E+10	1	-1E+10	1
4901784	150	C	08/13/2019	10:44	-132.397	43.104	0	535.00	0	4.6040	0	35.9930	8	28.514	0	530.065	0	38.7	4	12.6	4	-1E+10	1	-1E+10	1	-1E+10	1	-1E+10	1	-1E+10	1	-1E+10	1
4901784	150	C	08/13/2019	10:44	-132.397	43.104	0	539.70	0	4.5910	0	35.9980	8	28.520	0	534.715	0	37.3	4	12.1	4	-1E+10	1	-1E+10	1	-1E+10	1	-1E+10	1	-1E+10	1	-1E+10	1
4901784	150	C	08/13/2019	10:44	-132.397	43.104	0	544.50	0	4.5710	0	36.0060	8	28.528	0	539.465	0	36.0	4	11.7	4	-1E+10	1	-1E+10	1	-1E+10	1	-1E+10	1	-1E+10	1	-1E+10	1
4901784	150	C	08/13/2019	10:44	-132.397	43.104	0	550.40	0	4.5540	0	36.0120	8	28.535	0	545.303	0	34.3	4	11.1	4	-1E+10	1	-1E+10	1	-1E+10	1	-1E+10	1	-1E+10	1	-1E+10	1
4901784	150	C	08/13/2019	10:44	-132.397	43.104	0	555.40	0	4.5370	0	36.0180	8	28.542	0	550.250	0	33.2	4	10.8	4	-1E+10	1	-1E+10	1	-1E+10	1	-1E+10	1	-1E+10	1	-1E+10	1
4901784	150	C	08/13/2019	10:44	-132.397	43.104	0	560.20	0	4.5350	0	36.0250	8	28.548	0	554.999	0	31.9	4	10.3	4	-1E+10	1	-1E+10	1	-1E+10	1	-1E+10	1	-1E+10	1	-1E+10	1
4901784	150	C	08/13/2019	10:44	-132.397	43.104	0	565.40	0	4.5290	0	36.0300	8	28.553	0	560.143	0	31.0	4	10.0	4	-1E+10	1	-1E+10	1	-1E+10	1	-1E+10	1	-1E+10	1	-1E+10	1
4901784	150	C	08/13/2019	10:44	-132.397	43.104	0	570.00	0	4.5210	0	36.0330	8	28.556	0	564.694	0	29.8	4	9.7	4	-1E+10	1	-1E+10	1	-1E+10	1	-1E+10	1	-1E+10	1	-1E+10	1
4901784	150	C	08/13/2019	10:44	-132.397	43.104	0	574.90	0	4.5110	0	36.0410	8	28.563	0	569.542	0	28.2	4	9.1	4	-1E+10	1	-1E+10	1	-1E+10	1	-1E+10	1	-1E+10	1	-1E+10	1
4901784	150	C	08/13/2019	10:44	-132.397	43.104	0	579.90	0	4.5030	0	36.0490	8	28.571	0	574.489	0	26.7	4	8.6	4	-1E+10	1	-1E+10	1	-1E+10	1	-1E+10	1	-1E+10	1	-1E+10	1
4901784	150	C	08/13/2019	10:44	-132.397	43.104	0	584.80	0	4.4780	0	36.0570	8	28.580	0	579.336	0	25.5	4	8.3	4	-1E+10	1	-1E+10	1	-1E+10	1	-1E+10	1	-1E+10	1	-1E+10	1
4901784	150	C	08/13/2019	10:44	-132.397	43.104	0	589.70	0	4.4570	0	36.0620	8	28.586	0	584.183	0	24.5	4	7.9	4	-1E+10	1	-1E+10	1	-1E+10	1	-1E+10	1	-1E+10	1	-1E+10	1
4901784	150	C	08/13/2019	10:44	-132.397	43.104	0	594.70	0	4.4330	0	36.0710	8	28.596	0	589.130	0	23.3	4	7.5	4	-1E+10	1	-1E+10	1	-1E+10	1	-1E+10	1	-1E+10	1	-1E+10	1
4901784	150	C	08/13/2019	10:44	-132.397	43.104	0	599.70	0	4.4320	0	36.0780	8	28.602	0	594.076	0	22.1	4	7.1	4	-1E+10	1	-1E+10	1	-1E+10	1	-1E+10	1	-1E+10	1	-1E+10	1
4901784	150	C	08/13/2019	10:44	-132.397	43.104	0	604.60	0	4.4280	0	36.0850	8	28.608	0	598.923	0	21.3	4	6.9	4	-1E+10	1	-1E+10	1	-1E+10	1	-1E+10	1	-1E+10	1	-1E+10	1
4901784	150	C	08/13/2019	10:44	-132.397	43.104	0	609.70	0	4.4110	0	36.0880	8	28.612	0	603.967	0	20.8	4	6.7	4	-1E+10	1	-1E+10	1	-1E+10	1	-1E+10	1	-1E+10	1	-1E+10	1
4901784	150	C	08/13/2019	10:44	-132.397	43.104	0	614.80	0	4.3980	0	36.0940	8	28.619	0	609.012	0	20.0	4	6.5	4	-1E+10	1	-1E+10	1	-1E+10	1	-1E+10	1	-1E+10	1	-1E+10	1
4901784	150	C	08/13/2019	10:44	-132.397	43.104	0	619.80	0	4.3930	0	36.1010	8	28.625	0	613.957	0	19.4	4	6.3	4	-1E+10	1	-1E+10	1	-1E+10	1	-1E+10	1	-1E+10	1	-1E+10	1
4901784	150	C	08/13/2019	10:44	-132.397	43.104	0	624.90	0	4.3730	0	36.1030	8	28.629	0	619.002	0	19.3	4	6.2	4	-1E+10	1	-1E+10	1	-1E+10	1	-1E+10	1	-1E+10	1	-1E+10	1
4901784	150	C	08/13/2019	10:44	-132.397	43.104	0	629.90	0	4.3400	0	36.1050	8	28.634	0	623.947	0	19.3	4	6.2	4	-1E+10	1	-1E+10	1	-1E+10	1	-1E+10	1	-1E+10	1	-1E+10	1
4901784	150	C	08/13/2019	10:44	-132.397	43.104	0	634.90	0	4.3100	0	36.1080	8	28.640	0	628.892	0	19.1	4	6.2	4	-1E+10	1	-1E+10	1	-1E+10	1	-1E+10	1	-1E+10	1	-1E+10	1
4901784	150	C	08/13/2019	10:44	-132.397	43.104	0	640.00	0	4.2930	0	36.1130	8	28.646	0	633.936	0	18.6	4	6.0	4	-1E+10	1	-1E+10	1	-1E+10	1	-1E+10	1	-1E+10	1	-1E+10	1
4901784	150	C	08/13/2019	10:44	-132.397	43.104	0	645.10	0	4.2680	0	36.1160	8	28.651	0	638.980	0	18.6	4	6.0	4	-1E+10	1	-1E+10	1	-1E+10	1	-1E+10	1	-1E+10	1	-1E+10	1
4901784	150	C	08/13/2019	10:44	-132.397	43.104	0	650.20	0	4.2560	0	36.1170	8	28.653	0	644.024	0	18.6	4	6.0	4	-1E+10	1	-1E+10	1	-1E+10	1	-1E+10	1	-1E+10	1	-1E+10	1
4901784	150	C	08/13/2019	10:44	-132.397	43.104	0	655.20	0	4.2340	0	36.1180	8	28.656	0	648.969	0	18.5	4	6.0	4	-1E+10	1	-1E+10	1	-1E+10	1	-1E+10	1	-1E+10	1	-1E+10	1
4901784	150	C	08/13/2019	10:44	-132.397	43.104	0	660.30	0	4.2230	0	36.1200	8	28.659	0	654.012	0	18.1	4	5.8	4	-1E+10	1	-1E+10	1	-1E+10	1	-1E+10	1	-1E+10	1	-1E+10	1
4901784	150	C	08/13/2019	10:44	-132.397	43.104	0	665.30	0	4.2310	0	36.1270	8	28.664	0	658.957	0	17.7	4	5.7	4	-1E+10	1	-1E+10	1	-1E+10	1	-1E+10	1	-1E+10	1	-1E+10	1
4901784	150	C	08/13/2019	10:44	-132.397	43.104	0	670.50	0	4.2000	0	36.1260	8	28.666	0	664.099	0	17.8	4	5.7	4	-1E+10	1	-1E+10	1	-1E+10	1	-1E+10	1	-1E+10	1	-1E+10	1
4901784	150	C	08/13/2019	10:44	-132.397	43.104	0	674.90	0	4.1630	0	36.1280	8	28.672	0	668.450	0	17.6	4	5.7	4	-1E+10	1	-1E+10	1	-1E+10	1	-1E+10	1	-1E+10	1	-1E+10	1
4901784	150	C	08/13/2019	10:44	-132.397	43.104	0	679.30	0	4.1630	0	36.1330	8	28.676	0	672.801	0	17.0	4	5.5	4	-1E+10	1	-1E+10	1	-1E+10	1	-1E+10	1	-1E+10	1	-1E+10	1
4901784	150	C	08/13/2019	10:44	-132.397	43.104	0	684.50	0	4.1530	0	36.1380	8	28.681	0	677.942	0	16.8	4	5.4	4	-1E+10	1	-1E+10	1	-1E+10	1	-1E+10	1	-1E+10	1	-1E+10	1
4901784	150	C	08/13/2019	10:44	-132.397	43.104	0	689.80	0	4.1170	0	36.1390	8	28.686	0	683.183	0	16.8	4	5.4	4	-1E+10	1	-1E+10	1	-1E+10	1	-1E+10	1	-1E+10	1	-1E+10	1
4901784	150	C	08/13/2019	10:44	-132.397	43.104	0	695.20	0	4.0820	0	36.1420	8	28.692	0	688.522	0	16.5	4	5.3	4	-1E+10	1	-1E+10	1	-1E+10	1	-1E+10	1	-1E+10	1	-1E+10	1
4901784	150	C	08/13/2019	10:44	-132.397	43.104	0	700.60	0	4.0630	0	36.1470	8	28.698	0	693.861	0	16.1	4	5.2	4	-1E+10	1	-1E+10	1	-1E+10	1	-1E+10	1	-1E+10	1	-1E+10	1
4901784	150	C	08/13/2019	10:44	-132.397	43.104	0	705.00	0	4.0470	0	36.1500	8	28.702	0	698.212	0	15.7	4	5.0	4	-1E+10	1	-1E+10	1	-1E+10	1	-1E+10	1	-1E+10	1	-1E+10	1
4901784	150	C	08/13/2019	10:44	-132.397	43.104	0	709.60	0	4.0370	0	36.1580	8	28.710	0	702.760	0	15.2	4	4.9	4	-1E+10	1	-1E+10	1	-1E+10	1	-1E+10	1	-1E+10	1	-1E+10	1
4901784	150	C	08/13/2019	10:44	-132.397	43.104	0	715.00	0	4.0400	0	36.1630	8	28.714	0	708.098	0	14.9	4	4.8	4	-1E+10	1	-1E+10	1	-1E+10	1	-1E+10	1	-1E+10	1	-1E+10	1
4901784	150	C	08/13/2019	10:44	-132.397	43.104	0	719.80	0	4.0130	0	36.1640	8	28.717	0	712.844	0	14.8	4	4.8	4	-1E+10	1	-1E+10	1	-1E+10	1	-1E+10	1	-1E+10	1	-1E+10	1
4901784	150	C	08/13/2019	10:44	-132.397	43.104	0	724.90	0	3.9990	0	36.1700	8	28.724	0	717.886	0	14.4	4	4.6	4	-1E+10	1	-1E+10	1	-1E+10	1	-1E+10	1	-1E+10	1	-1E+10	1
4901784	150	C	08/13/2019	10:44	-132.397	43.104	0	730.50	0	4.0220	0	36.1750	8	28.725	0	723.422	0	14.0	4	4.5	4	-1E+10	1	-1E+10	1	-1E+10	1	-1E+10	1	-1E+10	1	-1E+10	1
4901784	150	C	08/13/2019	10:44	-132.397	43.104	0	735.20	0	4.0040	0	36.1790	8	28.730	0	728.068	0	13.9	4	4.4	4	-1E+10	1	-1E+10	1	-1E+10	1	-1E+10	1	-1E+10	1	-1E+10	1
4901784	150	C	08/13/2019	10:44	-132.397	43.104	0	740.00	0	3.9780	0	36.1800	8	28.734	0	732.813	0	13.8	4	4.4	4	-1E+10	1	-1E+10	1	-1E+10	1	-1E+10	1	-1E+10	1	-1E+10	1
4901784	150	C	08/13/2019	10:44	-132.397	43.104	0	744.80	0	3.9560	0	36.1830	8	28.739	0	737.558	0	13.6	4	4.4	4	-1E+10	1	-1E+10	1	-1E+10	1	-1E+10	1	-1E+10	1	-1E+10	1
4901784	150	C	08/13/2019	10:44	-132.397	43.104	0	749.70	0	3.9520	0	36.1870	8	28.742	0	742.402	0	13.3	4	4.3	4	-1E+10	1	-1E+10	1	-1E+10	1	-1E+10	1	-1E+10	1	-1E+10	1
4901784	150	C	08/13/2019	10:44	-132.397	43.104	0	754.70	0	3.9430	0	36.1910	8	28.747	0	747.344	0	13.1	4	4.2	4	-1E+10	1	-1E+10	1	-1E+10	1	-1E+10	1	-1E+10	1	-1E+10	1
4901784	150	C	08/13/2019	10:44	-132.397	43.104	0	759.60	0	3.9350	0	36.1930	8	28.749	0	752.188	0	13.0	4	4.2	4	-1E+10	1	-1E+10	1	-1E+10	1	-1E+10	1	-1E+10	1	-1E+10	1
4901784	150	C	08/13/2019	10:44	-132.397	43.104	0	764.50	0	3.9280	0	36.1970	8	28.753	0	757.031	0	12.8	4	4.1	4	-1E+10	1	-1E+10	1	-1E+10	1	-1E+10	1	-1E+10	1	-1E+10	1
4901784	150	C	08/13/2019	10:44	-132.397	43.104	0	769.60	0	3.9250	0	36.2010	8	28.757	0	762.072	0	12.5	4	4.0	4	-1E+10	1	-1E+10	1	-1E+10	1	-1E+10	1	-1E+10	1	-1E+10	1
4901784	150	C	08/13/2019	10:44	-132.397	43.104	0	774.70	0	3.9300	0	36.2050	8	28.759	0	767.112	0	12.2	4	3.9	4	-1E+10	1	-1E+10	1	-1E+10	1	-1E+10	1	-1E+10	1	-1E+10	1
4901784	150	C	08/13/2019	10:44	-132.397	43.104	0	779.80	0	3.9180	0	36.2100	8	28.765	0	772.153	0	12.0	4	3.9	4	-1E+10	1	-1E+10	1	-1E+10	1	-1E+10	1	-1E+10	1	-1E+10	1
4901784	150	C	08/13/2019	10:44	-132.397	43.104	0	785.00	0	3.9000	0	36.2120	8	28.768	0	777.292	0	12.0	4	3.8	4	-1E+10	1	-1E+10	1	-1E+10	1	-1E+10	1	-1E+10	1	-1E+10	1
4901784	150	C	08/13/2019	10:44	-132.397	43.104	0	790.30	0	3.8870	0	36.2150	8	28.772	0	782.530	0	11.8	4	3.8	4	-1E+10	1	-1E+10	1	-1E+10	1	-1E+10	1	-1E+10	1	-1E+10	1
4901784	150	C	08/13/2019	10:44	-132.397	43.104	0	795.60	0	3.8670	0	36.2190	8	28.777	0	787.768	0	11.7	4	3.7	4	-1E+10	1	-1E+10	1	-1E+10	1	-1E+10	1	-1E+10	1	-1E+10	1
4901784	150	C	08/13/2019	10:44	-132.397	43.104	0	800.20	0	3.8530	0	36.2230	8	28.782	0	792.314	0	11.5	4	3.7	4	-1E+10	1	-1E+10	1	-1E+10	1	-1E+10	1	-1E+10	1	-1E+10	1
4901784	150	C	08/13/2019	10:44	-132.397	43.104	0	804.70	0	3.8570	0	36.2260	8	28.784	0	796.761	0	11.4	4	3.6	4	-1E+10	1	-1E+10	1	-1E+10	1	-1E+10	1	-1E+10	1	-1E+10	1
4901784	150	C	08/13/2019	10:44	-132.397	43.104	0	810.10	0	3.8420	0	36.2310	8	28.790	0	802.098	0	11.3	4	3.6	4	-1E+10	1	-1E+10	1	-1E+10	1	-1E+10	1	-1E+10	1	-1E+10	1
4901784	150	C	08/13/2019	10:44	-132.397	43.104	0	815.60	0	3.8290	0	36.2330	8	28.793	0	807.533	0	11.2	4	3.6	4	-1E+10	1	-1E+10	1	-1E+10	1	-1E+10	1	-1E+10	1	-1E+10	1
4901784	150	C	08/13/2019	10:44	-132.397	43.104	0	820.10	0	3.8110	0	36.2380	8	28.798	0	811.980	0	11.0	4	3.5	4	-1E+10	1	-1E+10	1	-1E+10	1	-1E+10	1	-1E+10	1	-1E+10	1
4901784	150	C	08/13/2019	10:44	-132.397	43.104	0	824.70	0	3.8200	0	36.2420	8	28.801	0	816.525	0	10.9	4	3.5	4	-1E+10	1	-1E+10	1	-1E+10	1	-1E+10	1	-1E+10	1	-1E+10	1
4901784	150	C	08/13/2019	10:44	-132.397	43.104	0	830.20	0	3.8150	0	36.2460	8	28.805	0	821.960	0	10.8	4	3.5	4	-1E+10	1	-1E+10	1	-1E+10	1	-1E+10	1	-1E+10	1	-1E+10	1
4901784	150	C	08/13/2019	10:44	-132.397	43.104	0	835.00	0	3.7860	0	36.2460	8	28.808	0	826.703	0	10.9	4	3.5	4	-1E+10	1	-1E+10	1	-1E+10	1	-1E+10	1	-1E+10	1	-1E+10	1
4901784	150	C	08/13/2019	10:44	-132.397	43.104	0	840.40	0	3.7600	0	36.2480	8	28.812	0	832.038	0	10.8	4	3.4	4	-1E+10	1	-1E+10	1	-1E+10	1	-1E+10	1	-1E+10	1	-1E+10	1
4901784	150	C	08/13/2019	10:44	-132.397	43.104	0	845.10	0	3.7420	0	36.2520	8	28.817	0	836.682	0	10.7	4	3.4	4	-1E+10	1	-1E+10	1	-1E+10	1	-1E+10	1	-1E+10	1	-1E+10	1
4901784	150	C	08/13/2019	10:44	-132.397	43.104	0	849.90	0	3.7310	0	36.2550	8	28.821	0	841.425	0	10.7	4	3.4	4	-1E+10	1	-1E+10	1	-1E+10	1	-1E+10	1	-1E+10	1	-1E+10	1
4901784	150	C	08/13/2019	10:44	-132.397	43.104	0	854.80	0	3.7190	0	36.2580	8	28.824	0	846.266	0	10.6	4	3.4	4	-1E+10	1	-1E+10	1	-1E+10	1	-1E+10	1	-1E+10	1	-1E+10	1
4901784	150	C	08/13/2019	10:44	-132.397	43.104	0	859.60	0	3.7080	0	36.2610	8	28.828	0	851.008	0	10.6	4	3.4	4	-1E+10	1	-1E+10	1	-1E+10	1	-1E+10	1	-1E+10	1	-1E+10	1
4901784	150	C	08/13/2019	10:44	-132.397	43.104	0	864.50	0	3.6980	0	36.2630	8	28.831	0	855.849	0	10.6	4	3.4	4	-1E+10	1	-1E+10	1	-1E+10	1	-1E+10	1	-1E+10	1	-1E+10	1
4901784	150	C	08/13/2019	10:44	-132.397	43.104	0	869.40	0	3.6830	0	36.2660	8	28.835	0	860.690	0	10.5	4	3.3	4	-1E+10	1	-1E+10	1	-1E+10	1	-1E+10	1	-1E+10	1	-1E+10	1
4901784	150	C	08/13/2019	10:44	-132.397	43.104	0	874.40	0	3.6740	0	36.2690	8	28.838	0	865.630	0	10.4	4	3.3	4	-1E+10	1	-1E+10	1	-1E+10	1	-1E+10	1	-1E+10	1	-1E+10	1
4901784	150	C	08/13/2019	10:44	-132.397	43.104	0	879.40	0	3.6570	0	36.2730	8	28.843	0	870.569	0	10.4	4	3.3	4	-1E+10	1	-1E+10	1	-1E+10	1	-1E+10	1	-1E+10	1	-1E+10	1
4901784	150	C	08/13/2019	10:44	-132.397	43.104	0	884.50	0	3.6370	0	36.2770	8	28.848	0	875.607	0	10.3	4	3.3	4	-1E+10	1	-1E+10	1	-1E+10	1	-1E+10	1	-1E+10	1	-1E+10	1
4901784	150	C	08/13/2019	10:44	-132.397	43.104	0	889.50	0	3.6420	0	36.2820	8	28.852	0	880.546	0	10.3	4	3.3	4	-1E+10	1	-1E+10	1	-1E+10	1	-1E+10	1	-1E+10	1	-1E+10	1
4901784	150	C	08/13/2019	10:44	-132.397	43.104	0	894.70	0	3.6350	0	36.2850	8	28.855	0	885.683	0	10.3	4	3.3	4	-1E+10	1	-1E+10	1	-1E+10	1	-1E+10	1	-1E+10	1	-1E+10	1
4901784	150	C	08/13/2019	10:44	-132.397	43.104	0	900.00	0	3.6460	0	36.2890	8	28.857	0	890.918	0	10.2	4	3.3	4	-1E+10	1	-1E+10	1	-1E+10	1	-1E+10	1	-1E+10	1	-1E+10	1
4901784	150	C	08/13/2019	10:44	-132.397	43.104	0	905.30	0	3.6450	0	36.2910	8	28.859	0	896.153	0	10.2	4	3.3	4	-1E+10	1	-1E+10	1	-1E+10	1	-1E+10	1	-1E+10	1	-1E+10	1
4901784	150	C	08/13/2019	10:44	-132.397	43.104	0	910.60	0	3.6240	0	36.2930	8	28.862	0	901.388	0	10.2	4	3.3	4	-1E+10	1	-1E+10	1	-1E+10	1	-1E+10	1	-1E+10	1	-1E+10	1
4901784	150	C	08/13/2019	10:44	-132.397	43.104	0	915.10	0	3.6280	0	36.2970	8	28.865	0	905.833	0	10.2	4	3.3	4	-1E+10	1	-1E+10	1	-1E+10	1	-1E+10	1	-1E+10	1	-1E+10	1
4901784	150	C	08/13/2019	10:44	-132.397	43.104	0	919.70	0	3.6170	0	36.2980	8	28.867	0	910.377	0	10.2	4	3.3	4	-1E+10	1	-1E+10	1	-1E+10	1	-1E+10	1	-1E+10	1	-1E+10	1
4901784	150	C	08/13/2019	10:44	-132.397	43.104	0	925.10	0	3.5920	0	36.3000	8	28.871	0	915.710	0	10.2	4	3.3	4	-1E+10	1	-1E+10	1	-1E+10	1	-1E+10	1	-1E+10	1	-1E+10	1
4901784	150	C	08/13/2019	10:44	-132.397	43.104	0	930.60	0	3.5720	0	36.3010	8	28.874	0	921.142	0	10.2	4	3.3	4	-1E+10	1	-1E+10	1	-1E+10	1	-1E+10	1	-1E+10	1	-1E+10	1
4901784	150	C	08/13/2019	10:44	-132.397	43.104	0	935.10	0	3.5680	0	36.3040	8	28.877	0	925.586	0	10.3	4	3.3	4	-1E+10	1	-1E+10	1	-1E+10	1	-1E+10	1	-1E+10	1	-1E+10	1
4901784	150	C	08/13/2019	10:44	-132.397	43.104	0	939.80	0	3.5610	0	36.3060	8	28.880	0	930.228	0	10.3	4	3.3	4	-1E+10	1	-1E+10	1	-1E+10	1	-1E+10	1	-1E+10	1	-1E+10	1
4901784	150	C	08/13/2019	10:44	-132.397	43.104	0	945.30	0	3.5570	0	36.3090	8	28.882	0	935.660	0	10.3	4	3.3	4	-1E+10	1	-1E+10	1	-1E+10	1	-1E+10	1	-1E+10	1	-1E+10	1
4901784	150	C	08/13/2019	10:44	-132.397	43.104	0	949.90	0	3.5520	0	36.3120	8	28.885	0	940.203	0	10.3	4	3.3	4	-1E+10	1	-1E+10	1	-1E+10	1	-1E+10	1	-1E+10	1	-1E+10	1
4901784	150	C	08/13/2019	10:44	-132.397	43.104	0	954.50	0	3.5340	0	36.3140	8	28.889	0	944.745	0	10.3	4	3.3	4	-1E+10	1	-1E+10	1	-1E+10	1	-1E+10	1	-1E+10	1	-1E+10	1
4901784	150	C	08/13/2019	10:44	-132.397	43.104	0	960.10	0	3.5190	0	36.3160	8	28.892	0	950.275	0	10.3	4	3.3	4	-1E+10	1	-1E+10	1	-1E+10	1	-1E+10	1	-1E+10	1	-1E+10	1
4901784	150	C	08/13/2019	10:44	-132.397	43.104	0	965.70	0	3.5040	0	36.3190	8	28.896	0	955.805	0	10.3	4	3.3	4	-1E+10	1	-1E+10	1	-1E+10	1	-1E+10	1	-1E+10	1	-1E+10	1
4901784	150	C	08/13/2019	10:44	-132.397	43.104	0	970.30	0	3.4900	0	36.3210	8	28.899	0	960.348	0	10.3	4	3.3	4	-1E+10	1	-1E+10	1	-1E+10	1	-1E+10	1	-1E+10	1	-1E+10	1
4901784	150	C	08/13/2019	10:44	-132.397	43.104	0	974.90	0	3.4810	0	36.3210	8	28.900	0	964.890	0	10.3	4	3.3	4	-1E+10	1	-1E+10	1	-1E+10	1	-1E+10	1	-1E+10	1	-1E+10	1
4901784	150	C	08/13/2019	10:44	-132.397	43.104	0	980.40	0	3.4690	0	36.3240	8	28.904	0	970.321	0	10.4	4	3.3	4	-1E+10	1	-1E+10	1	-1E+10	1	-1E+10	1	-1E+10	1	-1E+10	1
4901784	150	C	08/13/2019	10:44	-132.397	43.104	0	985.00	0	3.4620	0	36.3260	8	28.906	0	974.863	0	10.4	4	3.3	4	-1E+10	1	-1E+10	1	-1E+10	1	-1E+10	1	-1E+10	1	-1E+10	1
4901784	150	C	08/13/2019	10:44	-132.397	43.104	0	989.70	0	3.4530	0	36.3270	8	28.908	0	979.503	0	10.5	4	3.3	4	-1E+10	1	-1E+10	1	-1E+10	1	-1E+10	1	-1E+10	1	-1E+10	1
4901784	150	C	08/13/2019	10:44	-132.397	43.104	0	995.20	0	3.4460	0	36.3300	8	28.911	0	984.934	0	10.5	4	3.3	4	-1E+10	1	-1E+10	1	-1E+10	1	-1E+10	1	-1E+10	1	-1E+10	1
4901784	150	C	08/13/2019	10:44	-132.397	43.104	0	999.90	0	3.4350	0	36.3330	8	28.914	0	989.574	0	10.6	4	3.4	4	-1E+10	1	-1E+10	1	-1E+10	1	-1E+10	1	-1E+10	1	-1E+10	1
4901784	150	C	08/13/2019	10:44	-132.397	43.104	0	1004.50	0	3.4230	0	36.3350	8	28.917	0	994.116	0	10.6	4	3.4	4	-1E+10	1	-1E+10	1	-1E+10	1	-1E+10	1	-1E+10	1	-1E+10	1
4901784	150	C	08/13/2019	10:44	-132.397	43.104	0	1010.10	0	3.4130	0	36.3370	8	28.920	0	999.645	0	10.7	4	3.4	4	-1E+10	1	-1E+10	1	-1E+10	1	-1E+10	1	-1E+10	1	-1E+10	1
4901784	150	C	08/13/2019	10:44	-132.397	43.104	0	1014.80	0	3.4200	0	36.3400	8	28.921	0	1004.285	0	10.8	4	3.4	4	-1E+10	1	-1E+10	1	-1E+10	1	-1E+10	1	-1E+10	1	-1E+10	1
4901784	150	C	08/13/2019	10:44	-132.397	43.104	0	1019.50	0	3.4070	0	36.3420	8	28.924	0	1008.925	0	10.9	4	3.4	4	-1E+10	1	-1E+10	1	-1E+10	1	-1E+10	1	-1E+10	1	-1E+10	1
4901784	150	C	08/13/2019	10:44	-132.397	43.104	0	1025.10	0	3.3930	0	36.3450	8	28.928	0	1014.453	0	11.0	4	3.5	4	-1E+10	1	-1E+10	1	-1E+10	1	-1E+10	1	-1E+10	1	-1E+10	1
4901784	150	C	08/13/2019	10:44	-132.397	43.104	0	1029.80	0	3.3880	0	36.3460	8	28.930	0	1019.093	0	11.0	4	3.5	4	-1E+10	1	-1E+10	1	-1E+10	1	-1E+10	1	-1E+10	1	-1E+10	1
4901784	150	C	08/13/2019	10:44	-132.397	43.104	0	1034.50	0	3.3820	0	36.3470	8	28.931	0	1023.732	0	11.0	4	3.5	4	-1E+10	1	-1E+10	1	-1E+10	1	-1E+10	1	-1E+10	1	-1E+10	1
4901784	150	C	08/13/2019	10:44	-132.397	43.104	0	1040.10	0	3.3700	0	36.3490	8	28.934	0	1029.260	0	11.1	4	3.5	4	-1E+10	1	-1E+10	1	-1E+10	1	-1E+10	1	-1E+10	1	-1E+10	1
4901784	150	C	08/13/2019	10:44	-132.397	43.104	0	1044.70	0	3.3630	0	36.3500	8	28.935	0	1033.801	0	11.1	4	3.5	4	-1E+10	1	-1E+10	1	-1E+10	1	-1E+10	1	-1E+10	1	-1E+10	1
4901784	150	C	08/13/2019	10:44	-132.397	43.104	0	1049.40	0	3.3590	0	36.3510	8	28.937	0	1038.440	0	11.2	4	3.5	4	-1E+10	1	-1E+10	1	-1E+10	1	-1E+10	1	-1E+10	1	-1E+10	1
4901784	150	C	08/13/2019	10:44	-132.397	43.104	0	1055.00	0	3.3500	0	36.3520	8	28.938	0	1043.968	0	11.3	4	3.6	4	-1E+10	1	-1E+10	1	-1E+10	1	-1E+10	1	-1E+10	1	-1E+10	1
4901784	150	C	08/13/2019	10:44	-132.397	43.104	0	1060.60	0	3.3370	0	36.3550	8	28.942	0	1049.495	0	11.4	4	3.6	4	-1E+10	1	-1E+10	1	-1E+10	1	-1E+10	1	-1E+10	1	-1E+10	1
4901784	150	C	08/13/2019	10:44	-132.397	43.104	0	1065.30	0	3.3260	0	36.3570	8	28.945	0	1054.135	0	11.4	4	3.6	4	-1E+10	1	-1E+10	1	-1E+10	1	-1E+10	1	-1E+10	1	-1E+10	1
4901784	150	C	08/13/2019	10:44	-132.397	43.104	0	1070.00	0	3.3170	0	36.3580	8	28.947	0	1058.773	0	11.5	4	3.6	4	-1E+10	1	-1E+10	1	-1E+10	1	-1E+10	1	-1E+10	1	-1E+10	1
4901784	150	C	08/13/2019	10:44	-132.397	43.104	0	1075.60	0	3.3030	0	36.3610	8	28.950	0	1064.300	0	11.6	4	3.7	4	-1E+10	1	-1E+10	1	-1E+10	1	-1E+10	1	-1E+10	1	-1E+10	1
4901784	150	C	08/13/2019	10:44	-132.397	43.104	0	1080.20	0	3.2880	0	36.3630	8	28.953	0	1068.840	0	11.7	4	3.7	4	-1E+10	1	-1E+10	1	-1E+10	1	-1E+10	1	-1E+10	1	-1E+10	1
4901784	150	C	08/13/2019	10:44	-132.397	43.104	0	1084.90	0	3.2740	0	36.3660	8	28.957	0	1073.479	0	11.9	4	3.7	4	-1E+10	1	-1E+10	1	-1E+10	1	-1E+10	1	-1E+10	1	-1E+10	1
4901784	150	C	08/13/2019	10:44	-132.397	43.104	0	1090.10	0	3.2580	0	36.3690	8	28.961	0	1078.611	0	12.0	4	3.8	4	-1E+10	1	-1E+10	1	-1E+10	1	-1E+10	1	-1E+10	1	-1E+10	1
4901784	150	C	08/13/2019	10:44	-132.397	43.104	0	1094.40	0	3.2500	0	36.3710	8	28.964	0	1082.854	0	12.0	4	3.8	4	-1E+10	1	-1E+10	1	-1E+10	1	-1E+10	1	-1E+10	1	-1E+10	1
4901784	150	C	08/13/2019	10:44	-132.397	43.104	0	1100.00	0	3.2400	0	36.3730	8	28.966	0	1088.381	0	12.2	4	3.8	4	-1E+10	1	-1E+10	1	-1E+10	1	-1E+10	1	-1E+10	1	-1E+10	1
4901784	150	C	08/13/2019	10:44	-132.397	43.104	0	1105.80	0	3.2310	0	36.3740	8	28.968	0	1094.105	0	12.3	4	3.9	4	-1E+10	1	-1E+10	1	-1E+10	1	-1E+10	1	-1E+10	1	-1E+10	1
4901784	150	C	08/13/2019	10:44	-132.397	43.104	0	1110.60	0	3.2180	0	36.3770	8	28.972	0	1098.841	0	12.4	4	3.9	4	-1E+10	1	-1E+10	1	-1E+10	1	-1E+10	1	-1E+10	1	-1E+10	1
4901784	150	C	08/13/2019	10:44	-132.397	43.104	0	1115.50	0	3.2020	0	36.3800	8	28.976	0	1103.676	0	12.6	4	4.0	4	-1E+10	1	-1E+10	1	-1E+10	1	-1E+10	1	-1E+10	1	-1E+10	1
4901784	150	C	08/13/2019	10:44	-132.397	43.104	0	1120.40	0	3.1940	0	36.3810	8	28.977	0	1108.512	0	12.7	4	4.0	4	-1E+10	1	-1E+10	1	-1E+10	1	-1E+10	1	-1E+10	1	-1E+10	1
4901784	150	C	08/13/2019	10:44	-132.397	43.104	0	1125.30	0	3.1790	0	36.3840	8	28.981	0	1113.347	0	12.8	4	4.0	4	-1E+10	1	-1E+10	1	-1E+10	1	-1E+10	1	-1E+10	1	-1E+10	1
4901784	150	C	08/13/2019	10:44	-132.397	43.104	0	1130.40	0	3.1680	0	36.3850	8	28.983	0	1118.379	0	13.0	4	4.1	4	-1E+10	1	-1E+10	1	-1E+10	1	-1E+10	1	-1E+10	1	-1E+10	1
4901784	150	C	08/13/2019	10:44	-132.397	43.104	0	1135.40	0	3.1540	0	36.3880	8	28.987	0	1123.312	0	13.1	4	4.1	4	-1E+10	1	-1E+10	1	-1E+10	1	-1E+10	1	-1E+10	1	-1E+10	1
4901784	150	C	08/13/2019	10:44	-132.397	43.104	0	1139.90	0	3.1440	0	36.3890	8	28.989	0	1127.752	0	13.2	4	4.2	4	-1E+10	1	-1E+10	1	-1E+10	1	-1E+10	1	-1E+10	1	-1E+10	1
4901784	150	C	08/13/2019	10:44	-132.397	43.104	0	1144.60	0	3.1300	0	36.3910	8	28.992	0	1132.390	0	13.4	4	4.2	4	-1E+10	1	-1E+10	1	-1E+10	1	-1E+10	1	-1E+10	1	-1E+10	1
4901784	150	C	08/13/2019	10:44	-132.397	43.104	0	1150.10	0	3.1200	0	36.3930	8	28.994	0	1137.816	0	13.5	4	4.2	4	-1E+10	1	-1E+10	1	-1E+10	1	-1E+10	1	-1E+10	1	-1E+10	1
4901784	150	C	08/13/2019	10:44	-132.397	43.104	0	1155.60	0	3.1050	0	36.3950	8	28.997	0	1143.242	0	13.7	4	4.3	4	-1E+10	1	-1E+10	1	-1E+10	1	-1E+10	1	-1E+10	1	-1E+10	1
4901784	150	C	08/13/2019	10:44	-132.397	43.104	0	1160.20	0	3.0910	0	36.3910	8	28.996	0	1147.780	0	13.9	4	4.4	4	-1E+10	1	-1E+10	1	-1E+10	1	-1E+10	1	-1E+10	1	-1E+10	1
4901784	150	C	08/13/2019	10:44	-132.397	43.104	0	1164.90	0	3.0810	0	36.3860	8	28.993	0	1152.417	0	14.0	4	4.4	4	-1E+10	1	-1E+10	1	-1E+10	1	-1E+10	1	-1E+10	1	-1E+10	1
4901784	150	C	08/13/2019	10:44	-132.397	43.104	0	1170.60	0	3.0660	0	36.3870	8	28.995	0	1158.041	0	14.2	4	4.5	4	-1E+10	1	-1E+10	1	-1E+10	1	-1E+10	1	-1E+10	1	-1E+10	1
4901784	150	C	08/13/2019	10:44	-132.397	43.104	0	1175.00	0	3.0460	0	36.3910	8	29.000	0	1162.381	0	14.4	4	4.5	4	-1E+10	1	-1E+10	1	-1E+10	1	-1E+10	1	-1E+10	1	-1E+10	1
4901784	150	C	08/13/2019	10:44	-132.397	43.104	0	1180.00	0	3.0330	0	36.3930	8	29.003	0	1167.314	0	14.6	4	4.6	4	-1E+10	1	-1E+10	1	-1E+10	1	-1E+10	1	-1E+10	1	-1E+10	1
4901784	150	C	08/13/2019	10:44	-132.397	43.104	0	1185.50	0	3.0200	0	36.3940	8	29.005	0	1172.739	0	14.7	4	4.6	4	-1E+10	1	-1E+10	1	-1E+10	1	-1E+10	1	-1E+10	1	-1E+10	1
4901784	150	C	08/13/2019	10:44	-132.397	43.104	0	1190.40	0	3.0100	0	36.3960	8	29.008	0	1177.573	0	14.8	4	4.7	4	-1E+10	1	-1E+10	1	-1E+10	1	-1E+10	1	-1E+10	1	-1E+10	1
4901784	150	C	08/13/2019	10:44	-132.397	43.104	0	1195.20	0	2.9970	0	36.3980	8	29.010	0	1182.307	0	15.0	4	4.7	4	-1E+10	1	-1E+10	1	-1E+10	1	-1E+10	1	-1E+10	1	-1E+10	1
4901784	150	C	08/13/2019	10:44	-132.397	43.104	0	1200.20	0	2.9910	0	36.3990	8	29.012	0	1187.239	0	15.1	4	4.7	4	-1E+10	1	-1E+10	1	-1E+10	1	-1E+10	1	-1E+10	1	-1E+10	1
4901784	150	C	08/13/2019	10:44	-132.397	43.104	0	1205.10	0	2.9840	0	36.4000	8	29.013	0	1192.073	0	15.3	4	4.8	4	-1E+10	1	-1E+10	1	-1E+10	1	-1E+10	1	-1E+10	1	-1E+10	1
4901784	150	C	08/13/2019	10:44	-132.397	43.104	0	1210.20	0	2.9760	0	36.4010	8	29.015	0	1197.103	0	15.5	4	4.8	4	-1E+10	1	-1E+10	1	-1E+10	1	-1E+10	1	-1E+10	1	-1E+10	1
4901784	150	C	08/13/2019	10:44	-132.397	43.104	0	1215.30	0	2.9610	0	36.4030	8	29.018	0	1202.133	0	15.5	4	4.8	4	-1E+10	1	-1E+10	1	-1E+10	1	-1E+10	1	-1E+10	1	-1E+10	1
4901784	150	C	08/13/2019	10:44	-132.397	43.104	0	1220.30	0	2.9520	0	36.4030	8	29.019	0	1207.065	0	15.6	4	4.9	4	-1E+10	1	-1E+10	1	-1E+10	1	-1E+10	1	-1E+10	1	-1E+10	1
4901784	150	C	08/13/2019	10:44	-132.397	43.104	0	1225.50	0	2.9430	0	36.4050	8	29.021	0	1212.193	0	15.9	4	5.0	4	-1E+10	1	-1E+10	1	-1E+10	1	-1E+10	1	-1E+10	1	-1E+10	1
4901784	150	C	08/13/2019	10:44	-132.397	43.104	0	1230.60	0	2.9320	0	36.4080	8	29.025	0	1217.223	0	16.1	4	5.0	4	-1E+10	1	-1E+10	1	-1E+10	1	-1E+10	1	-1E+10	1	-1E+10	1
4901784	150	C	08/13/2019	10:44	-132.397	43.104	0	1235.00	0	2.9280	0	36.4080	8	29.025	0	1221.563	0	16.2	4	5.1	4	-1E+10	1	-1E+10	1	-1E+10	1	-1E+10	1	-1E+10	1	-1E+10	1
4901784	150	C	08/13/2019	10:44	-132.397	43.104	0	1239.40	0	2.9190	0	36.4100	8	29.028	0	1225.902	0	16.3	4	5.1	4	-1E+10	1	-1E+10	1	-1E+10	1	-1E+10	1	-1E+10	1	-1E+10	1
4901784	150	C	08/13/2019	10:44	-132.397	43.104	0	1244.70	0	2.9130	0	36.4100	8	29.028	0	1231.129	0	16.4	4	5.1	4	-1E+10	1	-1E+10	1	-1E+10	1	-1E+10	1	-1E+10	1	-1E+10	1
4901784	150	C	08/13/2019	10:44	-132.397	43.104	0	1250.10	0	2.9030	0	36.4120	8	29.031	0	1236.454	0	16.6	4	5.2	4	-1E+10	1	-1E+10	1	-1E+10	1	-1E+10	1	-1E+10	1	-1E+10	1
4901784	150	C	08/13/2019	10:44	-132.397	43.104	0	1255.60	0	2.8960	0	36.4120	8	29.032	0	1241.878	0	16.7	4	5.2	4	-1E+10	1	-1E+10	1	-1E+10	1	-1E+10	1	-1E+10	1	-1E+10	1
4901784	150	C	08/13/2019	10:44	-132.397	43.104	0	1260.70	0	2.8860	0	36.4140	8	29.034	0	1246.907	0	16.9	4	5.3	4	-1E+10	1	-1E+10	1	-1E+10	1	-1E+10	1	-1E+10	1	-1E+10	1
4901784	150	C	08/13/2019	10:44	-132.397	43.104	0	1265.60	0	2.8750	0	36.4150	8	29.036	0	1251.739	0	17.1	4	5.3	4	-1E+10	1	-1E+10	1	-1E+10	1	-1E+10	1	-1E+10	1	-1E+10	1
4901784	150	C	08/13/2019	10:44	-132.397	43.104	0	1270.60	0	2.8660	0	36.4170	8	29.039	0	1256.669	0	17.2	4	5.4	4	-1E+10	1	-1E+10	1	-1E+10	1	-1E+10	1	-1E+10	1	-1E+10	1
4901784	150	C	08/13/2019	10:44	-132.397	43.104	0	1275.60	0	2.8610	0	36.4170	8	29.039	0	1261.599	0	17.4	4	5.4	4	-1E+10	1	-1E+10	1	-1E+10	1	-1E+10	1	-1E+10	1	-1E+10	1
4901784	150	C	08/13/2019	10:44	-132.397	43.104	0	1280.70	0	2.8470	0	36.4200	8	29.043	0	1266.628	0	17.6	4	5.5	4	-1E+10	1	-1E+10	1	-1E+10	1	-1E+10	1	-1E+10	1	-1E+10	1
4901784	150	C	08/13/2019	10:44	-132.397	43.104	0	1285.80	0	2.8380	0	36.4200	8	29.044	0	1271.657	0	17.8	4	5.6	4	-1E+10	1	-1E+10	1	-1E+10	1	-1E+10	1	-1E+10	1	-1E+10	1
4901784	150	C	08/13/2019	10:44	-132.397	43.104	0	1290.00	0	2.8310	0	36.4220	8	29.046	0	1275.798	0	18.0	4	5.6	4	-1E+10	1	-1E+10	1	-1E+10	1	-1E+10	1	-1E+10	1	-1E+10	1
4901784	150	C	08/13/2019	10:44	-132.397	43.104	0	1294.30	0	2.8280	0	36.4230	8	29.047	0	1280.037	0	18.2	4	5.7	4	-1E+10	1	-1E+10	1	-1E+10	1	-1E+10	1	-1E+10	1	-1E+10	1
4901784	150	C	08/13/2019	10:44	-132.397	43.104	0	1299.50	0	2.8170	0	36.4240	8	29.049	0	1285.164	0	18.4	4	5.7	4	-1E+10	1	-1E+10	1	-1E+10	1	-1E+10	1	-1E+10	1	-1E+10	1
4901784	150	C	08/13/2019	10:44	-132.397	43.104	0	1304.70	0	2.8100	0	36.4250	8	29.050	0	1290.291	0	18.6	4	5.8	4	-1E+10	1	-1E+10	1	-1E+10	1	-1E+10	1	-1E+10	1	-1E+10	1
4901784	150	C	08/13/2019	10:44	-132.397	43.104	0	1309.90	0	2.8000	0	36.4270	8	29.053	0	1295.417	0	18.8	4	5.9	4	-1E+10	1	-1E+10	1	-1E+10	1	-1E+10	1	-1E+10	1	-1E+10	1
4901784	150	C	08/13/2019	10:44	-132.397	43.104	0	1315.10	0	2.7890	0	36.4280	8	29.055	0	1300.544	0	19.0	4	5.9	4	-1E+10	1	-1E+10	1	-1E+10	1	-1E+10	1	-1E+10	1	-1E+10	1
4901784	150	C	08/13/2019	10:44	-132.397	43.104	0	1320.30	0	2.7800	0	36.4300	8	29.057	0	1305.670	0	19.2	4	6.0	4	-1E+10	1	-1E+10	1	-1E+10	1	-1E+10	1	-1E+10	1	-1E+10	1
4901784	150	C	08/13/2019	10:44	-132.397	43.104	0	1325.60	0	2.7740	0	36.4310	8	29.059	0	1310.895	0	19.4	4	6.0	4	-1E+10	1	-1E+10	1	-1E+10	1	-1E+10	1	-1E+10	1	-1E+10	1
4901784	150	C	08/13/2019	10:44	-132.397	43.104	0	1330.00	0	2.7700	0	36.4310	8	29.059	0	1315.232	0	19.5	4	6.1	4	-1E+10	1	-1E+10	1	-1E+10	1	-1E+10	1	-1E+10	1	-1E+10	1
4901784	150	C	08/13/2019	10:44	-132.397	43.104	0	1334.40	0	2.7630	0	36.4320	8	29.061	0	1319.570	0	19.7	4	6.1	4	-1E+10	1	-1E+10	1	-1E+10	1	-1E+10	1	-1E+10	1	-1E+10	1
4901784	150	C	08/13/2019	10:44	-132.397	43.104	0	1339.80	0	2.7550	0	36.4340	8	29.063	0	1324.893	0	19.9	4	6.2	4	-1E+10	1	-1E+10	1	-1E+10	1	-1E+10	1	-1E+10	1	-1E+10	1
4901784	150	C	08/13/2019	10:44	-132.397	43.104	0	1345.10	0	2.7510	0	36.4340	8	29.063	0	1330.117	0	20.1	4	6.3	4	-1E+10	1	-1E+10	1	-1E+10	1	-1E+10	1	-1E+10	1	-1E+10	1
4901784	150	C	08/13/2019	10:44	-132.397	43.104	0	1350.50	0	2.7450	0	36.4350	8	29.065	0	1335.440	0	20.3	4	6.3	4	-1E+10	1	-1E+10	1	-1E+10	1	-1E+10	1	-1E+10	1	-1E+10	1
4901784	150	C	08/13/2019	10:44	-132.397	43.104	0	1355.00	0	2.7370	0	36.4360	8	29.066	0	1339.875	0	20.5	4	6.4	4	-1E+10	1	-1E+10	1	-1E+10	1	-1E+10	1	-1E+10	1	-1E+10	1
4901784	150	C	08/13/2019	10:44	-132.397	43.104	0	1359.50	0	2.7310	0	36.4370	8	29.068	0	1344.311	0	20.7	4	6.5	4	-1E+10	1	-1E+10	1	-1E+10	1	-1E+10	1	-1E+10	1	-1E+10	1
4901784	150	C	08/13/2019	10:44	-132.397	43.104	0	1365.00	0	2.7220	0	36.4380	8	29.069	0	1349.732	0	20.9	4	6.5	4	-1E+10	1	-1E+10	1	-1E+10	1	-1E+10	1	-1E+10	1	-1E+10	1
4901784	150	C	08/13/2019	10:44	-132.397	43.104	0	1370.40	0	2.7160	0	36.4390	8	29.071	0	1355.054	0	21.1	4	6.6	4	-1E+10	1	-1E+10	1	-1E+10	1	-1E+10	1	-1E+10	1	-1E+10	1
4901784	150	C	08/13/2019	10:44	-132.397	43.104	0	1375.00	0	2.7110	0	36.4400	8	29.072	0	1359.588	0	21.3	4	6.6	4	-1E+10	1	-1E+10	1	-1E+10	1	-1E+10	1	-1E+10	1	-1E+10	1
4901784	150	C	08/13/2019	10:44	-132.397	43.104	0	1379.60	0	2.7020	0	36.4410	8	29.074	0	1364.121	0	21.6	4	6.7	4	-1E+10	1	-1E+10	1	-1E+10	1	-1E+10	1	-1E+10	1	-1E+10	1
4901784	150	C	08/13/2019	10:44	-132.397	43.104	0	1385.10	0	2.6930	0	36.4420	8	29.075	0	1369.542	0	21.9	4	6.8	4	-1E+10	1	-1E+10	1	-1E+10	1	-1E+10	1	-1E+10	1	-1E+10	1
4901784	150	C	08/13/2019	10:44	-132.397	43.104	0	1389.80	0	2.6830	0	36.4440	8	29.078	0	1374.174	0	22.2	4	6.9	4	-1E+10	1	-1E+10	1	-1E+10	1	-1E+10	1	-1E+10	1	-1E+10	1
4901784	150	C	08/13/2019	10:44	-132.397	43.104	0	1394.40	0	2.6770	0	36.4450	8	29.079	0	1378.707	0	22.4	4	7.0	4	-1E+10	1	-1E+10	1	-1E+10	1	-1E+10	1	-1E+10	1	-1E+10	1
4901784	150	C	08/13/2019	10:44	-132.397	43.104	0	1400.00	0	2.6660	0	36.4460	8	29.081	0	1384.226	0	22.7	4	7.0	4	-1E+10	1	-1E+10	1	-1E+10	1	-1E+10	1	-1E+10	1	-1E+10	1
4901784	150	C	08/13/2019	10:44	-132.397	43.104	0	1405.50	0	2.6530	0	36.4480	8	29.084	0	1389.645	0	23.0	4	7.1	4	-1E+10	1	-1E+10	1	-1E+10	1	-1E+10	1	-1E+10	1	-1E+10	1
4901784	150	C	08/13/2019	10:44	-132.397	43.104	0	1410.20	0	2.6480	0	36.4490	8	29.085	0	1394.277	0	23.2	4	7.2	4	-1E+10	1	-1E+10	1	-1E+10	1	-1E+10	1	-1E+10	1	-1E+10	1
4901784	150	C	08/13/2019	10:44	-132.397	43.104	0	1415.00	0	2.6400	0	36.4500	8	29.087	0	1399.007	0	23.4	4	7.3	4	-1E+10	1	-1E+10	1	-1E+10	1	-1E+10	1	-1E+10	1	-1E+10	1
4901784	150	C	08/13/2019	10:44	-132.397	43.104	0	1419.70	0	2.6340	0	36.4510	8	29.088	0	1403.638	0	23.6	4	7.3	4	-1E+10	1	-1E+10	1	-1E+10	1	-1E+10	1	-1E+10	1	-1E+10	1
4901784	150	C	08/13/2019	10:44	-132.397	43.104	0	1425.10	0	2.6250	0	36.4520	8	29.090	0	1408.959	0	23.9	4	7.4	4	-1E+10	1	-1E+10	1	-1E+10	1	-1E+10	1	-1E+10	1	-1E+10	1
4901784	150	C	08/13/2019	10:44	-132.397	43.104	0	1430.20	0	2.6170	0	36.4530	8	29.091	0	1413.984	0	24.2	4	7.5	4	-1E+10	1	-1E+10	1	-1E+10	1	-1E+10	1	-1E+10	1	-1E+10	1
4901784	150	C	08/13/2019	10:44	-132.397	43.104	0	1435.20	0	2.6060	0	36.4550	8	29.094	0	1418.911	0	24.6	4	7.6	4	-1E+10	1	-1E+10	1	-1E+10	1	-1E+10	1	-1E+10	1	-1E+10	1
4901784	150	C	08/13/2019	10:44	-132.397	43.104	0	1440.10	0	2.5960	0	36.4560	8	29.096	0	1423.738	0	24.8	4	7.7	4	-1E+10	1	-1E+10	1	-1E+10	1	-1E+10	1	-1E+10	1	-1E+10	1
4901784	150	C	08/13/2019	10:44	-132.397	43.104	0	1445.00	0	2.5910	0	36.4570	8	29.097	0	1428.566	0	25.0	4	7.8	4	-1E+10	1	-1E+10	1	-1E+10	1	-1E+10	1	-1E+10	1	-1E+10	1
4901784	150	C	08/13/2019	10:44	-132.397	43.104	0	1450.00	0	2.5870	0	36.4570	8	29.097	0	1433.492	0	25.2	4	7.8	4	-1E+10	1	-1E+10	1	-1E+10	1	-1E+10	1	-1E+10	1	-1E+10	1
4901784	150	C	08/13/2019	10:44	-132.397	43.104	0	1455.00	0	2.5790	0	36.4580	8	29.099	0	1438.419	0	25.6	4	7.9	4	-1E+10	1	-1E+10	1	-1E+10	1	-1E+10	1	-1E+10	1	-1E+10	1
4901784	150	C	08/13/2019	10:44	-132.397	43.104	0	1460.00	0	2.5690	0	36.4600	8	29.101	0	1443.344	0	25.9	4	8.0	4	-1E+10	1	-1E+10	1	-1E+10	1	-1E+10	1	-1E+10	1	-1E+10	1
4901784	150	C	08/13/2019	10:44	-132.397	43.104	0	1465.10	0	2.5610	0	36.4610	8	29.103	0	1448.369	0	26.2	4	8.1	4	-1E+10	1	-1E+10	1	-1E+10	1	-1E+10	1	-1E+10	1	-1E+10	1
4901784	150	C	08/13/2019	10:44	-132.397	43.104	0	1470.10	0	2.5550	0	36.4620	8	29.104	0	1453.294	0	26.5	4	8.2	4	-1E+10	1	-1E+10	1	-1E+10	1	-1E+10	1	-1E+10	1	-1E+10	1
4901784	150	C	08/13/2019	10:44	-132.397	43.104	0	1475.10	0	2.5420	0	36.4630	8	29.106	0	1458.220	0	27.0	4	8.4	4	-1E+10	1	-1E+10	1	-1E+10	1	-1E+10	1	-1E+10	1	-1E+10	1
4901784	150	C	08/13/2019	10:44	-132.397	43.104	0	1480.10	0	2.5280	0	36.4650	8	29.109	0	1463.146	0	27.3	4	8.5	4	-1E+10	1	-1E+10	1	-1E+10	1	-1E+10	1	-1E+10	1	-1E+10	1
4901784	150	C	08/13/2019	10:44	-132.397	43.104	0	1485.10	0	2.5210	0	36.4660	8	29.111	0	1468.071	0	27.6	4	8.5	4	-1E+10	1	-1E+10	1	-1E+10	1	-1E+10	1	-1E+10	1	-1E+10	1
4901784	150	C	08/13/2019	10:44	-132.397	43.104	0	1490.20	0	2.5160	0	36.4710	8	29.115	0	1473.095	0	27.8	4	8.6	4	-1E+10	1	-1E+10	1	-1E+10	1	-1E+10	1	-1E+10	1	-1E+10	1
4901784	150	C	08/13/2019	10:44	-132.397	43.104	0	1495.30	0	2.5120	0	36.4810	8	29.124	0	1478.118	0	28.0	4	8.7	4	-1E+10	1	-1E+10	1	-1E+10	1	-1E+10	1	-1E+10	1	-1E+10	1
4901784	150	C	08/13/2019	10:44	-132.397	43.104	0	1500.40	0	2.5040	0	36.4820	8	29.125	0	1483.142	0	28.4	4	8.8	4	-1E+10	1	-1E+10	1	-1E+10	1	-1E+10	1	-1E+10	1	-1E+10	1
4901784	150	C	08/13/2019	10:44	-132.397	43.104	0	1505.50	0	2.4970	0	36.4830	8	29.127	0	1488.165	0	28.8	4	8.9	4	-1E+10	1	-1E+10	1	-1E+10	1	-1E+10	1	-1E+10	1	-1E+10	1
4901784	150	C	08/13/2019	10:44	-132.397	43.104	0	1510.60	0	2.4840	0	36.4850	8	29.129	0	1493.188	0	29.3	4	9.1	4	-1E+10	1	-1E+10	1	-1E+10	1	-1E+10	1	-1E+10	1	-1E+10	1
4901784	150	C	08/13/2019	10:44	-132.397	43.104	0	1514.90	0	2.4740	0	36.4860	8	29.131	0	1497.424	0	29.6	4	9.2	4	-1E+10	1	-1E+10	1	-1E+10	1	-1E+10	1	-1E+10	1	-1E+10	1
4901784	150	C	08/13/2019	10:44	-132.397	43.104	0	1519.20	0	2.4670	0	36.4870	8	29.133	0	1501.659	0	29.8	4	9.2	4	-1E+10	1	-1E+10	1	-1E+10	1	-1E+10	1	-1E+10	1	-1E+10	1
4901784	150	C	08/13/2019	10:44	-132.397	43.104	0	1524.40	0	2.4610	0	36.4870	8	29.133	0	1506.780	0	30.1	4	9.3	4	-1E+10	1	-1E+10	1	-1E+10	1	-1E+10	1	-1E+10	1	-1E+10	1
4901784	150	C	08/13/2019	10:44	-132.397	43.104	0	1529.60	0	2.4390	0	36.4890	8	29.137	0	1511.902	0	30.6	4	9.5	4	-1E+10	1	-1E+10	1	-1E+10	1	-1E+10	1	-1E+10	1	-1E+10	1
4901784	150	C	08/13/2019	10:44	-132.397	43.104	0	1534.80	0	2.4250	0	36.4910	8	29.140	0	1517.023	0	31.0	4	9.6	4	-1E+10	1	-1E+10	1	-1E+10	1	-1E+10	1	-1E+10	1	-1E+10	1
4901784	150	C	08/13/2019	10:44	-132.397	43.104	0	1540.10	0	2.4170	0	36.4910	8	29.140	0	1522.242	0	31.4	4	9.7	4	-1E+10	1	-1E+10	1	-1E+10	1	-1E+10	1	-1E+10	1	-1E+10	1
4901784	150	C	08/13/2019	10:44	-132.397	43.104	0	1545.30	0	2.4090	0	36.4920	8	29.142	0	1527.363	0	31.7	4	9.8	4	-1E+10	1	-1E+10	1	-1E+10	1	-1E+10	1	-1E+10	1	-1E+10	1
4901784	150	C	08/13/2019	10:44	-132.397	43.104	0	1550.70	0	2.3970	0	36.4940	8	29.145	0	1532.681	0	32.2	4	9.9	4	-1E+10	1	-1E+10	1	-1E+10	1	-1E+10	1	-1E+10	1	-1E+10	1
4901784	150	C	08/13/2019	10:44	-132.397	43.104	0	1555.10	0	2.3900	0	36.4950	8	29.146	0	1537.014	0	32.5	4	10.0	4	-1E+10	1	-1E+10	1	-1E+10	1	-1E+10	1	-1E+10	1	-1E+10	1
4901784	150	C	08/13/2019	10:44	-132.397	43.104	0	1559.60	0	2.3830	0	36.4960	8	29.147	0	1541.445	0	32.7	4	10.1	4	-1E+10	1	-1E+10	1	-1E+10	1	-1E+10	1	-1E+10	1	-1E+10	1
4901784	150	C	08/13/2019	10:44	-132.397	43.104	0	1564.90	0	2.3760	0	36.4970	8	29.149	0	1546.664	0	33.0	4	10.2	4	-1E+10	1	-1E+10	1	-1E+10	1	-1E+10	1	-1E+10	1	-1E+10	1
4901784	150	C	08/13/2019	10:44	-132.397	43.104	0	1570.30	0	2.3680	0	36.4980	8	29.150	0	1551.981	0	33.4	4	10.3	4	-1E+10	1	-1E+10	1	-1E+10	1	-1E+10	1	-1E+10	1	-1E+10	1
4901784	150	C	08/13/2019	10:44	-132.397	43.104	0	1574.90	0	2.3590	0	36.4990	8	29.152	0	1556.511	0	33.8	4	10.4	4	-1E+10	1	-1E+10	1	-1E+10	1	-1E+10	1	-1E+10	1	-1E+10	1
4901784	150	C	08/13/2019	10:44	-132.397	43.104	0	1579.40	0	2.3500	0	36.5000	8	29.154	0	1560.942	0	34.1	4	10.5	4	-1E+10	1	-1E+10	1	-1E+10	1	-1E+10	1	-1E+10	1	-1E+10	1
4901784	150	C	08/13/2019	10:44	-132.397	43.104	0	1584.80	0	2.3440	0	36.5010	8	29.155	0	1566.259	0	34.4	4	10.6	4	-1E+10	1	-1E+10	1	-1E+10	1	-1E+10	1	-1E+10	1	-1E+10	1
4901784	150	C	08/13/2019	10:44	-132.397	43.104	0	1590.30	0	2.3360	0	36.5020	8	29.157	0	1571.674	0	34.7	4	10.7	4	-1E+10	1	-1E+10	1	-1E+10	1	-1E+10	1	-1E+10	1	-1E+10	1
4901784	150	C	08/13/2019	10:44	-132.397	43.104	0	1595.00	0	2.3310	0	36.5030	8	29.158	0	1576.301	0	35.0	4	10.8	4	-1E+10	1	-1E+10	1	-1E+10	1	-1E+10	1	-1E+10	1	-1E+10	1
4901784	150	C	08/13/2019	10:44	-132.397	43.104	0	1599.60	0	2.3220	0	36.5030	8	29.159	0	1580.830	0	35.3	4	10.9	4	-1E+10	1	-1E+10	1	-1E+10	1	-1E+10	1	-1E+10	1	-1E+10	1
4901784	150	C	08/13/2019	10:44	-132.397	43.104	0	1605.10	0	2.3130	0	36.5040	8	29.160	0	1586.245	0	35.6	4	11.0	4	-1E+10	1	-1E+10	1	-1E+10	1	-1E+10	1	-1E+10	1	-1E+10	1
4901784	150	C	08/13/2019	10:44	-132.397	43.104	0	1610.60	0	2.3060	0	36.5060	8	29.162	0	1591.660	0	36.0	4	11.1	4	-1E+10	1	-1E+10	1	-1E+10	1	-1E+10	1	-1E+10	1	-1E+10	1
4901784	150	C	08/13/2019	10:44	-132.397	43.104	0	1615.40	0	2.3010	0	36.5070	8	29.164	0	1596.385	0	36.3	4	11.2	4	-1E+10	1	-1E+10	1	-1E+10	1	-1E+10	1	-1E+10	1	-1E+10	1
4901784	150	C	08/13/2019	10:44	-132.397	43.104	0	1619.90	0	2.2940	0	36.5080	8	29.165	0	1600.815	0	36.6	4	11.3	4	-1E+10	1	-1E+10	1	-1E+10	1	-1E+10	1	-1E+10	1	-1E+10	1
4901784	150	C	08/13/2019	10:44	-132.397	43.104	0	1624.70	0	2.2860	0	36.5090	8	29.167	0	1605.541	0	36.8	4	11.4	4	-1E+10	1	-1E+10	1	-1E+10	1	-1E+10	1	-1E+10	1	-1E+10	1
4901784	150	C	08/13/2019	10:44	-132.397	43.104	0	1629.50	0	2.2840	0	36.5090	8	29.167	0	1610.266	0	37.1	4	11.4	4	-1E+10	1	-1E+10	1	-1E+10	1	-1E+10	1	-1E+10	1	-1E+10	1
4901784	150	C	08/13/2019	10:44	-132.397	43.104	0	1634.50	0	2.2770	0	36.5100	8	29.168	0	1615.188	0	37.4	4	11.5	4	-1E+10	1	-1E+10	1	-1E+10	1	-1E+10	1	-1E+10	1	-1E+10	1
4901784	150	C	08/13/2019	10:44	-132.397	43.104	0	1639.40	0	2.2710	0	36.5110	8	29.170	0	1620.011	0	37.7	4	11.6	4	-1E+10	1	-1E+10	1	-1E+10	1	-1E+10	1	-1E+10	1	-1E+10	1
4901784	150	C	08/13/2019	10:44	-132.397	43.104	0	1644.40	0	2.2640	0	36.5110	8	29.170	0	1624.933	0	38.2	4	11.8	4	-1E+10	1	-1E+10	1	-1E+10	1	-1E+10	1	-1E+10	1	-1E+10	1
4901784	150	C	08/13/2019	10:44	-132.397	43.104	0	1649.40	0	2.2480	0	36.5130	8	29.173	0	1629.854	0	38.8	4	11.9	4	-1E+10	1	-1E+10	1	-1E+10	1	-1E+10	1	-1E+10	1	-1E+10	1
4901784	150	C	08/13/2019	10:44	-132.397	43.104	0	1654.40	0	2.2360	0	36.5140	8	29.175	0	1634.776	0	39.2	4	12.1	4	-1E+10	1	-1E+10	1	-1E+10	1	-1E+10	1	-1E+10	1	-1E+10	1
4901784	150	C	08/13/2019	10:44	-132.397	43.104	0	1659.40	0	2.2330	0	36.5150	8	29.176	0	1639.697	0	39.4	4	12.1	4	-1E+10	1	-1E+10	1	-1E+10	1	-1E+10	1	-1E+10	1	-1E+10	1
4901784	150	C	08/13/2019	10:44	-132.397	43.104	0	1664.40	0	2.2270	0	36.5160	8	29.178	0	1644.618	0	39.8	4	12.2	4	-1E+10	1	-1E+10	1	-1E+10	1	-1E+10	1	-1E+10	1	-1E+10	1
4901784	150	C	08/13/2019	10:44	-132.397	43.104	0	1669.40	0	2.2210	0	36.5170	8	29.179	0	1649.540	0	40.2	4	12.4	4	-1E+10	1	-1E+10	1	-1E+10	1	-1E+10	1	-1E+10	1	-1E+10	1
4901784	150	C	08/13/2019	10:44	-132.397	43.104	0	1674.50	0	2.2120	0	36.5180	8	29.181	0	1654.559	0	40.7	4	12.5	4	-1E+10	1	-1E+10	1	-1E+10	1	-1E+10	1	-1E+10	1	-1E+10	1
4901784	150	C	08/13/2019	10:44	-132.397	43.104	0	1679.60	0	2.2030	0	36.5200	8	29.183	0	1659.578	0	41.0	4	12.6	4	-1E+10	1	-1E+10	1	-1E+10	1	-1E+10	1	-1E+10	1	-1E+10	1
4901784	150	C	08/13/2019	10:44	-132.397	43.104	0	1684.80	0	2.1990	0	36.5210	8	29.184	0	1664.696	0	41.2	4	12.7	4	-1E+10	1	-1E+10	1	-1E+10	1	-1E+10	1	-1E+10	1	-1E+10	1
4901784	150	C	08/13/2019	10:44	-132.397	43.104	0	1690.00	0	2.1960	0	36.5210	8	29.184	0	1669.813	0	41.5	4	12.8	4	-1E+10	1	-1E+10	1	-1E+10	1	-1E+10	1	-1E+10	1	-1E+10	1
4901784	150	C	08/13/2019	10:44	-132.397	43.104	0	1695.10	0	2.1880	0	36.5220	8	29.186	0	1674.832	0	41.9	4	12.9	4	-1E+10	1	-1E+10	1	-1E+10	1	-1E+10	1	-1E+10	1	-1E+10	1
4901784	150	C	08/13/2019	10:44	-132.397	43.104	0	1700.30	0	2.1810	0	36.5240	8	29.188	0	1679.950	0	42.2	4	13.0	4	-1E+10	1	-1E+10	1	-1E+10	1	-1E+10	1	-1E+10	1	-1E+10	1
4901784	150	C	08/13/2019	10:44	-132.397	43.104	0	1705.50	0	2.1780	0	36.5240	8	29.188	0	1685.067	0	42.4	4	13.0	4	-1E+10	1	-1E+10	1	-1E+10	1	-1E+10	1	-1E+10	1	-1E+10	1
4901784	150	C	08/13/2019	10:44	-132.397	43.104	0	1709.90	0	2.1760	0	36.5240	8	29.189	0	1689.397	0	42.6	4	13.1	4	-1E+10	1	-1E+10	1	-1E+10	1	-1E+10	1	-1E+10	1	-1E+10	1
4901784	150	C	08/13/2019	10:44	-132.397	43.104	0	1714.30	0	2.1700	0	36.5250	8	29.190	0	1693.726	0	42.9	4	13.2	4	-1E+10	1	-1E+10	1	-1E+10	1	-1E+10	1	-1E+10	1	-1E+10	1
4901784	150	C	08/13/2019	10:44	-132.397	43.104	0	1719.60	0	2.1630	0	36.5260	8	29.191	0	1698.941	0	43.4	4	13.3	4	-1E+10	1	-1E+10	1	-1E+10	1	-1E+10	1	-1E+10	1	-1E+10	1
4901784	150	C	08/13/2019	10:44	-132.397	43.104	0	1725.00	0	2.1540	0	36.5270	8	29.193	0	1704.255	0	43.8	4	13.5	4	-1E+10	1	-1E+10	1	-1E+10	1	-1E+10	1	-1E+10	1	-1E+10	1
4901784	150	C	08/13/2019	10:44	-132.397	43.104	0	1730.40	0	2.1470	0	36.5280	8	29.194	0	1709.568	0	44.3	4	13.6	4	-1E+10	1	-1E+10	1	-1E+10	1	-1E+10	1	-1E+10	1	-1E+10	1
4901784	150	C	08/13/2019	10:44	-132.397	43.104	0	1734.90	0	2.1400	0	36.5300	8	29.197	0	1713.996	0	44.6	4	13.7	4	-1E+10	1	-1E+10	1	-1E+10	1	-1E+10	1	-1E+10	1	-1E+10	1
4901784	150	C	08/13/2019	10:44	-132.397	43.104	0	1739.30	0	2.1360	0	36.5300	8	29.197	0	1718.325	0	44.8	4	13.8	4	-1E+10	1	-1E+10	1	-1E+10	1	-1E+10	1	-1E+10	1	-1E+10	1
4901784	150	C	08/13/2019	10:44	-132.397	43.104	0	1744.60	0	2.1300	0	36.5310	8	29.198	0	1723.540	0	45.2	4	13.9	4	-1E+10	1	-1E+10	1	-1E+10	1	-1E+10	1	-1E+10	1	-1E+10	1
4901784	150	C	08/13/2019	10:44	-132.397	43.104	0	1749.30	0	2.1230	0	36.5320	8	29.200	0	1728.164	0	45.7	4	14.0	4	-1E+10	1	-1E+10	1	-1E+10	1	-1E+10	1	-1E+10	1	-1E+10	1
4901784	150	C	08/13/2019	10:44	-132.397	43.104	0	1755.00	0	2.1160	0	36.5340	8	29.202	0	1733.772	0	46.1	4	14.1	4	-1E+10	1	-1E+10	1	-1E+10	1	-1E+10	1	-1E+10	1	-1E+10	1
4901784	150	C	08/13/2019	10:44	-132.397	43.104	0	1760.60	0	2.1110	0	36.5350	8	29.203	0	1739.281	0	46.4	4	14.3	4	-1E+10	1	-1E+10	1	-1E+10	1	-1E+10	1	-1E+10	1	-1E+10	1
4901784	150	C	08/13/2019	10:44	-132.397	43.104	0	1765.50	0	2.1060	0	36.5350	8	29.204	0	1744.101	0	46.7	4	14.3	4	-1E+10	1	-1E+10	1	-1E+10	1	-1E+10	1	-1E+10	1	-1E+10	1
4901784	150	C	08/13/2019	10:44	-132.397	43.104	0	1770.40	0	2.1020	0	36.5360	8	29.205	0	1748.922	0	47.0	4	14.4	4	-1E+10	1	-1E+10	1	-1E+10	1	-1E+10	1	-1E+10	1	-1E+10	1
4901784	150	C	08/13/2019	10:44	-132.397	43.104	0	1775.30	0	2.0990	0	36.5370	8	29.206	0	1753.742	0	47.2	4	14.5	4	-1E+10	1	-1E+10	1	-1E+10	1	-1E+10	1	-1E+10	1	-1E+10	1
4901784	150	C	08/13/2019	10:44	-132.397	43.104	0	1780.30	0	2.0940	0	36.5380	8	29.207	0	1758.661	0	47.5	4	14.6	4	-1E+10	1	-1E+10	1	-1E+10	1	-1E+10	1	-1E+10	1	-1E+10	1
4901784	150	C	08/13/2019	10:44	-132.397	43.104	0	1785.30	0	2.0900	0	36.5380	8	29.208	0	1763.579	0	47.8	4	14.6	4	-1E+10	1	-1E+10	1	-1E+10	1	-1E+10	1	-1E+10	1	-1E+10	1
4901784	150	C	08/13/2019	10:44	-132.397	43.104	0	1790.30	0	2.0860	0	36.5390	8	29.209	0	1768.498	0	48.1	4	14.7	4	-1E+10	1	-1E+10	1	-1E+10	1	-1E+10	1	-1E+10	1	-1E+10	1
4901784	150	C	08/13/2019	10:44	-132.397	43.104	0	1795.40	0	2.0820	0	36.5400	8	29.210	0	1773.514	0	48.4	4	14.8	4	-1E+10	1	-1E+10	1	-1E+10	1	-1E+10	1	-1E+10	1	-1E+10	1
4901784	150	C	08/13/2019	10:44	-132.397	43.104	0	1800.50	0	2.0770	0	36.5410	8	29.211	0	1778.531	0	48.7	4	14.9	4	-1E+10	1	-1E+10	1	-1E+10	1	-1E+10	1	-1E+10	1	-1E+10	1
4901784	150	C	08/13/2019	10:44	-132.397	43.104	0	1805.70	0	2.0730	0	36.5420	8	29.212	0	1783.645	0	48.9	4	15.0	4	-1E+10	1	-1E+10	1	-1E+10	1	-1E+10	1	-1E+10	1	-1E+10	1
4901784	150	C	08/13/2019	10:44	-132.397	43.104	0	1810.00	0	2.0720	0	36.5420	8	29.213	0	1787.875	0	49.0	4	15.0	4	-1E+10	1	-1E+10	1	-1E+10	1	-1E+10	1	-1E+10	1	-1E+10	1
4901784	150	C	08/13/2019	10:44	-132.397	43.104	0	1814.30	0	2.0690	0	36.5420	8	29.213	0	1792.104	0	49.2	4	15.1	4	-1E+10	1	-1E+10	1	-1E+10	1	-1E+10	1	-1E+10	1	-1E+10	1
4901784	150	C	08/13/2019	10:44	-132.397	43.104	0	1819.70	0	2.0660	0	36.5420	8	29.213	0	1797.415	0	49.5	4	15.2	4	-1E+10	1	-1E+10	1	-1E+10	1	-1E+10	1	-1E+10	1	-1E+10	1
4901784	150	C	08/13/2019	10:44	-132.397	43.104	0	1825.00	0	2.0610	0	36.5430	8	29.214	0	1802.628	0	49.8	4	15.3	4	-1E+10	1	-1E+10	1	-1E+10	1	-1E+10	1	-1E+10	1	-1E+10	1
4901784	150	C	08/13/2019	10:44	-132.397	43.104	0	1830.30	0	2.0550	0	36.5440	8	29.216	0	1807.840	0	50.0	4	15.3	4	-1E+10	1	-1E+10	1	-1E+10	1	-1E+10	1	-1E+10	1	-1E+10	1
4901784	150	C	08/13/2019	10:44	-132.397	43.104	0	1834.90	0	2.0530	0	36.5450	8	29.217	0	1812.364	0	50.2	4	15.4	4	-1E+10	1	-1E+10	1	-1E+10	1	-1E+10	1	-1E+10	1	-1E+10	1
4901784	150	C	08/13/2019	10:44	-132.397	43.104	0	1839.30	0	2.0520	0	36.5450	8	29.217	0	1816.692	0	50.4	4	15.4	4	-1E+10	1	-1E+10	1	-1E+10	1	-1E+10	1	-1E+10	1	-1E+10	1
4901784	150	C	08/13/2019	10:44	-132.397	43.104	0	1844.80	0	2.0480	0	36.5460	8	29.218	0	1822.100	0	50.6	4	15.5	4	-1E+10	1	-1E+10	1	-1E+10	1	-1E+10	1	-1E+10	1	-1E+10	1
4901784	150	C	08/13/2019	10:44	-132.397	43.104	0	1850.30	0	2.0440	0	36.5460	8	29.218	0	1827.509	0	50.9	4	15.6	4	-1E+10	1	-1E+10	1	-1E+10	1	-1E+10	1	-1E+10	1	-1E+10	1
4901784	150	C	08/13/2019	10:44	-132.397	43.104	0	1854.80	0	2.0410	0	36.5470	8	29.219	0	1831.934	0	51.1	4	15.7	4	-1E+10	1	-1E+10	1	-1E+10	1	-1E+10	1	-1E+10	1	-1E+10	1
4901784	150	C	08/13/2019	10:44	-132.397	43.104	0	1859.50	0	2.0380	0	36.5470	8	29.220	0	1836.556	0	51.4	4	15.7	4	-1E+10	1	-1E+10	1	-1E+10	1	-1E+10	1	-1E+10	1	-1E+10	1
4901784	150	C	08/13/2019	10:44	-132.397	43.104	0	1865.00	0	2.0330	0	36.5480	8	29.221	0	1841.964	0	51.7	4	15.9	4	-1E+10	1	-1E+10	1	-1E+10	1	-1E+10	1	-1E+10	1	-1E+10	1
4901784	150	C	08/13/2019	10:44	-132.397	43.104	0	1869.60	0	2.0290	0	36.5490	8	29.222	0	1846.488	0	52.0	4	15.9	4	-1E+10	1	-1E+10	1	-1E+10	1	-1E+10	1	-1E+10	1	-1E+10	1
4901784	150	C	08/13/2019	10:44	-132.397	43.104	0	1874.20	0	2.0260	0	36.5500	8	29.223	0	1851.011	0	52.3	4	16.0	4	-1E+10	1	-1E+10	1	-1E+10	1	-1E+10	1	-1E+10	1	-1E+10	1
4901784	150	C	08/13/2019	10:44	-132.397	43.104	0	1879.60	0	2.0220	0	36.5500	8	29.224	0	1856.320	0	52.6	4	16.1	4	-1E+10	1	-1E+10	1	-1E+10	1	-1E+10	1	-1E+10	1	-1E+10	1
4901784	150	C	08/13/2019	10:44	-132.397	43.104	0	1884.50	0	2.0160	0	36.5510	8	29.225	0	1861.138	0	53.0	4	16.2	4	-1E+10	1	-1E+10	1	-1E+10	1	-1E+10	1	-1E+10	1	-1E+10	1
4901784	150	C	08/13/2019	10:44	-132.397	43.104	0	1889.50	0	2.0100	0	36.5520	8	29.226	0	1866.054	0	53.4	4	16.3	4	-1E+10	1	-1E+10	1	-1E+10	1	-1E+10	1	-1E+10	1	-1E+10	1
4901784	150	C	08/13/2019	10:44	-132.397	43.104	0	1894.40	0	2.0040	0	36.5530	8	29.228	0	1870.872	0	53.6	4	16.4	4	-1E+10	1	-1E+10	1	-1E+10	1	-1E+10	1	-1E+10	1	-1E+10	1
4901784	150	C	08/13/2019	10:44	-132.397	43.104	0	1899.50	0	2.0030	0	36.5540	8	29.228	0	1875.886	0	53.8	4	16.5	4	-1E+10	1	-1E+10	1	-1E+10	1	-1E+10	1	-1E+10	1	-1E+10	1
4901784	150	C	08/13/2019	10:44	-132.397	43.104	0	1904.50	0	2.0030	0	36.5540	8	29.229	0	1880.802	0	54.1	4	16.6	4	-1E+10	1	-1E+10	1	-1E+10	1	-1E+10	1	-1E+10	1	-1E+10	1
4901784	150	C	08/13/2019	10:44	-132.397	43.104	0	1909.60	0	2.0000	0	36.5550	8	29.230	0	1885.816	0	54.4	4	16.6	4	-1E+10	1	-1E+10	1	-1E+10	1	-1E+10	1	-1E+10	1	-1E+10	1
4901784	150	C	08/13/2019	10:44	-132.397	43.104	0	1914.70	0	1.9960	0	36.5560	8	29.231	0	1890.830	0	54.6	4	16.7	4	-1E+10	1	-1E+10	1	-1E+10	1	-1E+10	1	-1E+10	1	-1E+10	1
4901784	150	C	08/13/2019	10:44	-132.397	43.104	0	1919.80	0	1.9950	0	36.5560	8	29.231	0	1895.844	0	54.7	4	16.7	4	-1E+10	1	-1E+10	1	-1E+10	1	-1E+10	1	-1E+10	1	-1E+10	1
4901784	150	C	08/13/2019	10:44	-132.397	43.104	0	1925.00	0	1.9930	0	36.5570	8	29.232	0	1900.955	0	55.0	4	16.8	4	-1E+10	1	-1E+10	1	-1E+10	1	-1E+10	1	-1E+10	1	-1E+10	1
4901784	150	C	08/13/2019	10:44	-132.397	43.104	0	1930.10	0	1.9880	0	36.5570	8	29.232	0	1905.969	0	55.3	4	16.9	4	-1E+10	1	-1E+10	1	-1E+10	1	-1E+10	1	-1E+10	1	-1E+10	1
4901784	150	C	08/13/2019	10:44	-132.397	43.104	0	1935.30	0	1.9830	0	36.5580	8	29.234	0	1911.081	0	55.6	4	17.0	4	-1E+10	1	-1E+10	1	-1E+10	1	-1E+10	1	-1E+10	1	-1E+10	1
4901784	150	C	08/13/2019	10:44	-132.397	43.104	0	1940.50	0	1.9800	0	36.5590	8	29.235	0	1916.192	0	55.9	4	17.1	4	-1E+10	1	-1E+10	1	-1E+10	1	-1E+10	1	-1E+10	1	-1E+10	1
4901784	150	C	08/13/2019	10:44	-132.397	43.104	0	1945.60	0	1.9770	0	36.5590	8	29.235	0	1921.205	0	56.1	4	17.2	4	-1E+10	1	-1E+10	1	-1E+10	1	-1E+10	1	-1E+10	1	-1E+10	1
4901784	150	C	08/13/2019	10:44	-132.397	43.104	0	1949.90	0	1.9750	0	36.5600	8	29.236	0	1925.432	0	56.3	4	17.2	4	-1E+10	1	-1E+10	1	-1E+10	1	-1E+10	1	-1E+10	1	-1E+10	1
4901784	150	C	08/13/2019	10:44	-132.397	43.104	0	1954.30	0	1.9740	0	36.5600	8	29.236	0	1929.757	0	56.4	4	17.3	4	-1E+10	1	-1E+10	1	-1E+10	1	-1E+10	1	-1E+10	1	-1E+10	1
4901784	150	C	08/13/2019	10:44	-132.397	43.104	0	1959.50	0	1.9710	0	36.5610	8	29.237	0	1934.868	0	56.7	4	17.3	4	-1E+10	1	-1E+10	1	-1E+10	1	-1E+10	1	-1E+10	1	-1E+10	1
4901784	150	C	08/13/2019	10:44	-132.397	43.104	0	1964.70	0	1.9660	0	36.5610	8	29.238	0	1939.979	0	56.9	4	17.4	4	-1E+10	1	-1E+10	1	-1E+10	1	-1E+10	1	-1E+10	1	-1E+10	1
4901784	150	C	08/13/2019	10:44	-132.397	43.104	0	1969.90	0	1.9640	0	36.5620	8	29.239	0	1945.090	0	57.1	4	17.5	4	-1E+10	1	-1E+10	1	-1E+10	1	-1E+10	1	-1E+10	1	-1E+10	1
4901784	150	C	08/13/2019	10:44	-132.397	43.104	0	1975.10	0	1.9610	0	36.5620	8	29.239	0	1950.200	0	57.3	4	17.5	4	-1E+10	1	-1E+10	1	-1E+10	1	-1E+10	1	-1E+10	1	-1E+10	1
4901784	150	C	08/13/2019	10:44	-132.397	43.104	0	1980.30	0	1.9590	0	36.5620	8	29.239	0	1955.311	0	57.5	4	17.6	4	-1E+10	1	-1E+10	1	-1E+10	1	-1E+10	1	-1E+10	1	-1E+10	1
4901784	150	C	08/13/2019	10:44	-132.397	43.104	0	1985.60	0	1.9530	0	36.5630	8	29.240	0	1960.520	0	57.9	4	17.7	4	-1E+10	1	-1E+10	1	-1E+10	1	-1E+10	1	-1E+10	1	-1E+10	1
4901784	150	C	08/13/2019	10:44	-132.397	43.104	0	1990.00	0	1.9470	0	36.5640	8	29.242	0	1964.844	0	58.2	4	17.8	4	-1E+10	1	-1E+10	1	-1E+10	1	-1E+10	1	-1E+10	1	-1E+10	1
4901784	150	C	08/13/2019	10:44	-132.397	43.104	0	1994.40	0	1.9440	0	36.5640	8	29.242	0	1969.168	0	58.4	4	17.8	4	-1E+10	1	-1E+10	1	-1E+10	1	-1E+10	1	-1E+10	1	-1E+10	1
4901784	150	C	08/13/2019	10:44	-132.397	43.104	0	1999.60	0	1.9430	0	36.5650	8	29.243	0	1974.278	0	58.6	4	17.9	4	-1E+10	1	-1E+10	1	-1E+10	1	-1E+10	1	-1E+10	1	-1E+10	1
4901784	150	C	08/13/2019	10:44	-132.397	43.104	0	2004.90	0	1.9430	0	36.5660	8	29.244	0	1979.486	0	58.9	4	18.0	4	-1E+10	1	-1E+10	1	-1E+10	1	-1E+10	1	-1E+10	1	-1E+10	1
4901784	150	C	08/13/2019	10:44	-132.397	43.104	0	2010.30	0	1.9390	0	36.5670	8	29.245	0	1984.793	0	59.2	4	18.1	4	-1E+10	1	-1E+10	1	-1E+10	1	-1E+10	1	-1E+10	1	-1E+10	1
4901784	150	C	08/13/2019	10:44	-132.397	43.104	0	2015.60	0	1.9350	0	36.5670	8	29.245	0	1990.001	0	59.5	4	18.2	4	-1E+10	1	-1E+10	1	-1E+10	1	-1E+10	1	-1E+10	1	-1E+10	1
4901784	150	C	08/13/2019	10:44	-132.397	43.104	0	2019.50	0	1.9310	0	36.5680	8	29.246	0	1993.833	0	59.7	4	18.3	4	-1E+10	1	-1E+10	1	-1E+10	1	-1E+10	1	-1E+10	1	-1E+10	1
4901784	150	C	08/13/2019	10:44	-132.397	43.104	0																										
4901784	151	C	08/23/2019	10:49	-132.520	43.153	0	3.30	0	20.1920	0	34.4070	8	24.260	0	3.274	0	217.8	4	96.5	4	-1E+10	1	-1E+10	1	-1E+10	1	-1E+10	1	-1E+10	1	-1E+10	1
4901784	151	C	08/23/2019	10:49	-132.520	43.153	0	5.00	0	20.1710	0	34.4040	8	24.264	0	4.960	0	217.3	4	96.3	4	-1E+10	1	-1E+10	1	-1E+10	1	-1E+10	1	-1E+10	1	-1E+10	1
4901784	151	C	08/23/2019	10:49	-132.520	43.153	0	6.60	0	20.1770	0	34.4010	8	24.260	0	6.547	0	217.4	4	96.3	4	-1E+10	1	-1E+10	1	-1E+10	1	-1E+10	1	-1E+10	1	-1E+10	1
4901784	151	C	08/23/2019	10:49	-132.520	43.153	0	8.50	0	20.1750	0	34.3980	8	24.258	0	8.432	0	217.4	4	96.3	4	-1E+10	1	-1E+10	1	-1E+10	1	-1E+10	1	-1E+10	1	-1E+10	1
4901784	151	C	08/23/2019	10:49	-132.520	43.153	0	8.90	0	20.1860	0	34.3990	8	24.256	0	8.829	0	217.2	4	96.3	4	-1E+10	1	-1E+10	1	-1E+10	1	-1E+10	1	-1E+10	1	-1E+10	1
4901784	151	C	08/23/2019	10:49	-132.520	43.153	0	10.30	0	20.1790	0	34.3950	8	24.255	0	10.218	0	217.1	4	96.2	4	-1E+10	1	-1E+10	1	-1E+10	1	-1E+10	1	-1E+10	1	-1E+10	1
4901784	151	C	08/23/2019	10:49	-132.520	43.153	0	11.60	0	20.1090	0	34.3860	8	24.267	0	11.507	0	217.4	4	96.2	4	-1E+10	1	-1E+10	1	-1E+10	1	-1E+10	1	-1E+10	1	-1E+10	1
4901784	151	C	08/23/2019	10:49	-132.520	43.153	0	12.90	0	20.1010	0	34.3810	8	24.265	0	12.797	0	217.9	4	96.4	4	-1E+10	1	-1E+10	1	-1E+10	1	-1E+10	1	-1E+10	1	-1E+10	1
4901784	151	C	08/23/2019	10:49	-132.520	43.153	0	14.20	0	20.0960	0	34.3740	8	24.261	0	14.087	0	218.3	4	96.6	4	-1E+10	1	-1E+10	1	-1E+10	1	-1E+10	1	-1E+10	1	-1E+10	1
4901784	151	C	08/23/2019	10:49	-132.520	43.153	0	15.40	0	20.0940	0	34.3650	8	24.255	0	15.277	0	218.9	4	96.8	4	-1E+10	1	-1E+10	1	-1E+10	1	-1E+10	1	-1E+10	1	-1E+10	1
4901784	151	C	08/23/2019	10:49	-132.520	43.153	0	16.70	0	20.0910	0	34.3440	8	24.240	0	16.567	0	220.9	4	97.7	4	-1E+10	1	-1E+10	1	-1E+10	1	-1E+10	1	-1E+10	1	-1E+10	1
4901784	151	C	08/23/2019	10:49	-132.520	43.153	0	18.00	0	20.0330	0	34.2890	8	24.213	0	17.856	0	225.5	4	99.6	4	-1E+10	1	-1E+10	1	-1E+10	1	-1E+10	1	-1E+10	1	-1E+10	1
4901784	151	C	08/23/2019	10:49	-132.520	43.153	0	19.40	0	18.8250	0	34.2690	8	24.509	0	19.245	0	234.9	4	101.4	4	-1E+10	1	-1E+10	1	-1E+10	1	-1E+10	1	-1E+10	1	-1E+10	1
4901784	151	C	08/23/2019	10:49	-132.520	43.153	0	20.70	0	17.2540	0	34.2680	8	24.894	0	20.534	0	245.0	4	102.8	4	-1E+10	1	-1E+10	1	-1E+10	1	-1E+10	1	-1E+10	1	-1E+10	1
4901784	151	C	08/23/2019	10:49	-132.520	43.153	0	22.10	0	15.9520	0	34.3050	8	25.226	0	21.923	0	252.5	4	103.3	4	-1E+10	1	-1E+10	1	-1E+10	1	-1E+10	1	-1E+10	1	-1E+10	1
4901784	151	C	08/23/2019	10:49	-132.520	43.153	0	23.60	0	15.3920	0	34.2960	8	25.344	0	23.411	0	257.5	4	104.2	4	-1E+10	1	-1E+10	1	-1E+10	1	-1E+10	1	-1E+10	1	-1E+10	1
4901784	151	C	08/23/2019	10:49	-132.520	43.153	0	25.30	0	14.1150	0	34.3550	8	25.666	0	25.097	0	261.2	4	103.1	4	-1E+10	1	-1E+10	1	-1E+10	1	-1E+10	1	-1E+10	1	-1E+10	1
4901784	151	C	08/23/2019	10:49	-132.520	43.153	0	27.00	0	13.5920	0	34.3430	8	25.765	0	26.784	0	266.6	4	104.1	4	-1E+10	1	-1E+10	1	-1E+10	1	-1E+10	1	-1E+10	1	-1E+10	1
4901784	151	C	08/23/2019	10:49	-132.520	43.153	0	28.80	0	13.1200	0	34.3650	8	25.878	0	28.569	0	267.4	4	103.5	4	-1E+10	1	-1E+10	1	-1E+10	1	-1E+10	1	-1E+10	1	-1E+10	1
4901784	151	C	08/23/2019	10:49	-132.520	43.153	0	30.70	0	12.9540	0	34.3780	8	25.922	0	30.454	0	268.2	4	103.4	4	-1E+10	1	-1E+10	1	-1E+10	1	-1E+10	1	-1E+10	1	-1E+10	1
4901784	151	C	08/23/2019	10:49	-132.520	43.153	0	32.50	0	12.8550	0	34.3810	8	25.944	0	32.239	0	268.2	4	103.2	4	-1E+10	1	-1E+10	1	-1E+10	1	-1E+10	1	-1E+10	1	-1E+10	1
4901784	151	C	08/23/2019	10:49	-132.520	43.153	0	34.90	0	12.6260	0	34.3780	8	25.987	0	34.620	0	268.1	4	102.7	4	-1E+10	1	-1E+10	1	-1E+10	1	-1E+10	1	-1E+10	1	-1E+10	1
4901784	151	C	08/23/2019	10:49	-132.520	43.153	0	36.70	0	12.5170	0	34.3730	8	26.004	0	36.405	0	268.0	4	102.5	4	-1E+10	1	-1E+10	1	-1E+10	1	-1E+10	1	-1E+10	1	-1E+10	1
4901784	151	C	08/23/2019	10:49	-132.520	43.153	0	38.30	0	12.3430	0	34.3820	8	26.045	0	37.992	0	267.7	4	102.0	4	-1E+10	1	-1E+10	1	-1E+10	1	-1E+10	1	-1E+10	1	-1E+10	1
4901784	151	C	08/23/2019	10:49	-132.520	43.153	0	39.80	0	12.2260	0	34.3750	8	26.062	0	39.480	0	267.7	4	101.7	4	-1E+10	1	-1E+10	1	-1E+10	1	-1E+10	1	-1E+10	1	-1E+10	1
4901784	151	C	08/23/2019	10:49	-132.520	43.153	0	41.40	0	12.1570	0	34.3790	8	26.078	0	41.067	0	266.7	4	101.2	4	-1E+10	1	-1E+10	1	-1E+10	1	-1E+10	1	-1E+10	1	-1E+10	1
4901784	151	C	08/23/2019	10:49	-132.520	43.153	0	43.00	0	12.0260	0	34.3690	8	26.096	0	42.654	0	265.5	4	100.4	4	-1E+10	1	-1E+10	1	-1E+10	1	-1E+10	1	-1E+10	1	-1E+10	1
4901784	151	C	08/23/2019	10:49	-132.520	43.153	0	44.70	0	11.7570	0	34.3940	8	26.166	0	44.340	0	264.7	4	99.6	4	-1E+10	1	-1E+10	1	-1E+10	1	-1E+10	1	-1E+10	1	-1E+10	1
4901784	151	C	08/23/2019	10:49	-132.520	43.153	0	46.20	0	11.4880	0	34.4010	8	26.221	0	45.828	0	264.1	4	98.8	4	-1E+10	1	-1E+10	1	-1E+10	1	-1E+10	1	-1E+10	1	-1E+10	1
4901784	151	C	08/23/2019	10:49	-132.520	43.153	0	47.90	0	11.4460	0	34.4040	8	26.232	0	47.514	0	262.9	4	98.3	4	-1E+10	1	-1E+10	1	-1E+10	1	-1E+10	1	-1E+10	1	-1E+10	1
4901784	151	C	08/23/2019	10:49	-132.520	43.153	0	49.50	0	11.3520	0	34.4080	8	26.252	0	49.101	0	261.4	4	97.6	4	-1E+10	1	-1E+10	1	-1E+10	1	-1E+10	1	-1E+10	1	-1E+10	1
4901784	151	C	08/23/2019	10:49	-132.520	43.153	0	51.10	0	11.2470	0	34.4080	8	26.271	0	50.688	0	260.1	4	96.9	4	-1E+10	1	-1E+10	1	-1E+10	1	-1E+10	1	-1E+10	1	-1E+10	1
4901784	151	C	08/23/2019	10:49	-132.520	43.153	0	52.60	0	11.1490	0	34.4140	8	26.294	0	52.175	0	258.2	4	96.0	4	-1E+10	1	-1E+10	1	-1E+10	1	-1E+10	1	-1E+10	1	-1E+10	1
4901784	151	C	08/23/2019	10:49	-132.520	43.153	0	54.20	0	11.0900	0	34.4120	8	26.303	0	53.762	0	256.3	4	95.1	4	-1E+10	1	-1E+10	1	-1E+10	1	-1E+10	1	-1E+10	1	-1E+10	1
4901784	151	C	08/23/2019	10:49	-132.520	43.153	0	55.80	0	11.0010	0	34.4100	8	26.318	0	55.349	0	254.4	4	94.2	4	-1E+10	1	-1E+10	1	-1E+10	1	-1E+10	1	-1E+10	1	-1E+10	1
4901784	151	C	08/23/2019	10:49	-132.520	43.153	0	57.40	0	10.8730	0	34.4210	8	26.349	0	56.936	0	252.7	4	93.4	4	-1E+10	1	-1E+10	1	-1E+10	1	-1E+10	1	-1E+10	1	-1E+10	1
4901784	151	C	08/23/2019	10:49	-132.520	43.153	0	59.10	0	10.8030	0	34.4380	8	26.375	0	58.622	0	251.7	4	92.9	4	-1E+10	1	-1E+10	1	-1E+10	1	-1E+10	1	-1E+10	1	-1E+10	1
4901784	151	C	08/23/2019	10:49	-132.520	43.153	0	60.80	0	10.7770	0	34.4440	8	26.384	0	60.308	0	250.7	4	92.4	4	-1E+10	1	-1E+10	1	-1E+10	1	-1E+10	1	-1E+10	1	-1E+10	1
4901784	151	C	08/23/2019	10:49	-132.520	43.153	0	62.40	0	10.7380	0	34.4510	8	26.397	0	61.895	0	249.8	4	92.0	4	-1E+10	1	-1E+10	1	-1E+10	1	-1E+10	1	-1E+10	1	-1E+10	1
4901784	151	C	08/23/2019	10:49	-132.520	43.153	0	64.10	0	10.7300	0	34.4520	8	26.399	0	63.581	0	249.3	4	91.8	4	-1E+10	1	-1E+10	1	-1E+10	1	-1E+10	1	-1E+10	1	-1E+10	1
4901784	151	C	08/23/2019	10:49	-132.520	43.153	0	65.80	0	10.6960	0	34.4510	8	26.404	0	65.267	0	249.0	4	91.7	4	-1E+10	1	-1E+10	1	-1E+10	1	-1E+10	1	-1E+10	1	-1E+10	1
4901784	151	C	08/23/2019	10:49	-132.520	43.153	0	67.40	0	10.6660	0	34.4470	8	26.406	0	66.853	0	248.8	4	91.5	4	-1E+10	1	-1E+10	1	-1E+10	1	-1E+10	1	-1E+10	1	-1E+10	1
4901784	151	C	08/23/2019	10:49	-132.520	43.153	0	69.00	0	10.6110	0	34.4460	8	26.415	0	68.440	0	248.6	4	91.4	4	-1E+10	1	-1E+10	1	-1E+10	1	-1E+10	1	-1E+10	1	-1E+10	1
4901784	151	C	08/23/2019	10:49	-132.520	43.153	0	70.70	0	10.5810	0	34.4440	8	26.419	0	70.126	0	248.4	4	91.2	4	-1E+10	1	-1E+10	1	-1E+10	1	-1E+10	1	-1E+10	1	-1E+10	1
4901784	151	C	08/23/2019	10:49	-132.520	43.153	0	72.40	0	10.5450	0	34.4400	8	26.422	0	71.812	0	248.3	4	91.1	4	-1E+10	1	-1E+10	1	-1E+10	1	-1E+10	1	-1E+10	1	-1E+10	1
4901784	151	C	08/23/2019	10:49	-132.520	43.153	0	74.00	0	10.5000	0	34.4340	8	26.426	0	73.399	0	248.3	4	91.0	4	-1E+10	1	-1E+10	1	-1E+10	1	-1E+10	1	-1E+10	1	-1E+10	1
4901784	151	C	08/23/2019	10:49	-132.520	43.153	0	75.80	0	10.4510	0	34.4300	8	26.431	0	75.184	0	248.3	4	90.9	4	-1E+10	1	-1E+10	1	-1E+10	1	-1E+10	1	-1E+10	1	-1E+10	1
4901784	151	C	08/23/2019	10:49	-132.520	43.153	0	77.50	0	10.4180	0	34.4210	8	26.430	0	76.870	0	248.2	4	90.8	4	-1E+10	1	-1E+10	1	-1E+10	1	-1E+10	1	-1E+10	1	-1E+10	1
4901784	151	C	08/23/2019	10:49	-132.520	43.153	0	79.20	0	10.2740	0	34.4190	8	26.453	0	78.555	0	248.6	4	90.7	4	-1E+10	1	-1E+10	1	-1E+10	1	-1E+10	1	-1E+10	1	-1E+10	1
4901784	151	C	08/23/2019	10:49	-132.520	43.153	0	80.90	0	10.2380	0	34.4120	8	26.454	0	80.241	0	248.8	4	90.7	4	-1E+10	1	-1E+10	1	-1E+10	1	-1E+10	1	-1E+10	1	-1E+10	1
4901784	151	C	08/23/2019	10:49	-132.520	43.153	0	82.60	0	10.1780	0	34.4080	8	26.461	0	81.927	0	248.6	4	90.5	4	-1E+10	1	-1E+10	1	-1E+10	1	-1E+10	1	-1E+10	1	-1E+10	1
4901784	151	C	08/23/2019	10:49	-132.520	43.153	0	84.30	0	10.1380	0	34.4040	8	26.465	0	83.613	0	248.6	4	90.4	4	-1E+10	1	-1E+10	1	-1E+10	1	-1E+10	1	-1E+10	1	-1E+10	1
4901784	151	C	08/23/2019	10:49	-132.520	43.153	0	85.90	0	10.1280	0	34.4010	8	26.464	0	85.199	0	248.4	4	90.3	4	-1E+10	1	-1E+10	1	-1E+10	1	-1E+10	1	-1E+10	1	-1E+10	1
4901784	151	C	08/23/2019	10:49	-132.520	43.153	0	87.70	0	10.1160	0	34.3960	8	26.463	0	86.984	0	247.9	4	90.1	4	-1E+10	1	-1E+10	1	-1E+10	1	-1E+10	1	-1E+10	1	-1E+10	1
4901784	151	C	08/23/2019	10:49	-132.520	43.153	0	89.40	0	10.0390	0	34.3920	8	26.473	0	88.670	0	247.5	4	89.8	4	-1E+10	1	-1E+10	1	-1E+10	1	-1E+10	1	-1E+10	1	-1E+10	1
4901784	151	C	08/23/2019	10:49	-132.520	43.153	0	91.10	0	9.9960	0	34.3870	8	26.476	0	90.356	0	247.0	4	89.6	4	-1E+10	1	-1E+10	1	-1E+10	1	-1E+10	1	-1E+10	1	-1E+10	1
4901784	151	C	08/23/2019	10:49	-132.520	43.153	0	92.90	0	9.9190	0	34.3840	8	26.487	0	92.141	0	246.3	4	89.2	4	-1E+10	1	-1E+10	1	-1E+10	1	-1E+10	1	-1E+10	1	-1E+10	1
4901784	151	C	08/23/2019	10:49	-132.520	43.153	0	94.70	0	9.8200	0	34.3910	8	26.509	0	93.926	0	245.8	4	88.8	4	-1E+10	1	-1E+10	1	-1E+10	1	-1E+10	1	-1E+10	1	-1E+10	1
4901784	151	C	08/23/2019	10:49	-132.520	43.153	0	96.40	0	9.8210	0	34.4030	8	26.518	0	95.611	0	244.7	4	88.4	4	-1E+10	1	-1E+10	1	-1E+10	1	-1E+10	1	-1E+10	1	-1E+10	1
4901784	151	C	08/23/2019	10:49	-132.520	43.153	0	98.20	0	9.7780	0	34.4020	8	26.525	0	97.396	0	244.0	4	88.0	4	-1E+10	1	-1E+10	1	-1E+10	1	-1E+10	1	-1E+10	1	-1E+10	1
4901784	151	C	08/23/2019	10:49	-132.520	43.153	0	100.00	0	9.7620	0	34.4130	8	26.536	0	99.181	0	242.5	4	87.5	4	-1E+10	1	-1E+10	1	-1E+10	1	-1E+10	1	-1E+10	1	-1E+10	1
4901784	151	C	08/23/2019	10:49	-132.520	43.153	0	102.70	0	9.6310	0	34.4380	8	26.577	0	101.858	0	241.4	4	86.9	4	-1E+10	1	-1E+10	1	-1E+10	1	-1E+10	1	-1E+10	1	-1E+10	1
4901784	151	C	08/23/2019	10:49	-132.520	43.153	0	105.80	0	9.3810	0	34.4460	8	26.625	0	104.932	0	241.1	4	86.3	4	-1E+10	1	-1E+10	1	-1E+10	1	-1E+10	1	-1E+10	1	-1E+10	1
4901784	151	C	08/23/2019	10:49	-132.520	43.153	0	107.50	0	9.2900	0	34.4380	8	26.634	0	106.618	0	240.1	4	85.8	4	-1E+10	1	-1E+10	1	-1E+10	1	-1E+10	1	-1E+10	1	-1E+10	1
4901784	151	C	08/23/2019	10:49	-132.520	43.153	0	109.70	0	9.2470	0	34.4670	8	26.663	0	108.799	0	237.8	4	84.9	4	-1E+10	1	-1E+10	1	-1E+10	1	-1E+10	1	-1E+10	1	-1E+10	1
4901784	151	C	08/23/2019	10:49	-132.520	43.153	0	112.60	0	9.0060	0	34.4890	8	26.719	0	111.675	0	235.3	4	83.5	4	-1E+10	1	-1E+10	1	-1E+10	1	-1E+10	1	-1E+10	1	-1E+10	1
4901784	151	C	08/23/2019	10:49	-132.520	43.153	0	114.90	0	8.6050	0	34.5870	8	26.859	0	113.955	0	234.2	4	82.5	4	-1E+10	1	-1E+10	1	-1E+10	1	-1E+10	1	-1E+10	1	-1E+10	1
4901784	151	C	08/23/2019	10:49	-132.520	43.153	0	117.30	0	8.5960	0	34.6250	8	26.891	0	116.335	0	233.3	4	82.2	4	-1E+10	1	-1E+10	1	-1E+10	1	-1E+10	1	-1E+10	1	-1E+10	1
4901784	151	C	08/23/2019	10:49	-132.520	43.153	0	119.70	0	8.5800	0	34.6370	8	26.902	0	118.714	0	232.2	4	81.8	4	-1E+10	1	-1E+10	1	-1E+10	1	-1E+10	1	-1E+10	1	-1E+10	1
4901784	151	C	08/23/2019	10:49	-132.520	43.153	0	122.10	0	8.5310	0	34.6550	8	26.924	0	121.094	0	230.9	4	81.2	4	-1E+10	1	-1E+10	1	-1E+10	1	-1E+10	1	-1E+10	1	-1E+10	1
4901784	151	C	08/23/2019	10:49	-132.520	43.153	0	124.70	0	8.4580	0	34.6710	8	26.948	0	123.671	0	229.5	4	80.6	4	-1E+10	1	-1E+10	1	-1E+10	1	-1E+10	1	-1E+10	1	-1E+10	1
4901784	151	C	08/23/2019	10:49	-132.520	43.153	0	127.30	0	8.3750	0	34.7150	8	26.995	0	126.249	0	227.7	4	79.9	4	-1E+10	1	-1E+10	1	-1E+10	1	-1E+10	1	-1E+10	1	-1E+10	1
4901784	151	C	08/23/2019	10:49	-132.520	43.153	0	130.00	0	8.2520	0	34.7930	8	27.076	0	128.926	0	226.3	4	79.2	4	-1E+10	1	-1E+10	1	-1E+10	1	-1E+10	1	-1E+10	1	-1E+10	1
4901784	151	C	08/23/2019	10:49	-132.520	43.153	0	132.40	0	8.2060	0	34.8280	8	27.110	0	131.306	0	224.9	4	78.6	4	-1E+10	1	-1E+10	1	-1E+10	1	-1E+10	1	-1E+10	1	-1E+10	1
4901784	151	C	08/23/2019	10:49	-132.520	43.153	0	135.60	0	8.1390	0	34.8970	8	27.174	0	134.478	0	223.3	4	78.0	4	-1E+10	1	-1E+10	1	-1E+10	1	-1E+10	1	-1E+10	1	-1E+10	1
4901784	151	C	08/23/2019	10:49	-132.520	43.153	0	137.30	0	8.1120	0	34.9290	8	27.204	0	136.163	0	222.2	4	77.6	4	-1E+10	1	-1E+10	1	-1E+10	1	-1E+10	1	-1E+10	1	-1E+10	1
4901784	151	C	08/23/2019	10:49	-132.520	43.153	0	139.50	0	8.0660	0	34.9890	8	27.258	0	138.344	0	220.8	4	77.1	4	-1E+10	1	-1E+10	1	-1E+10	1	-1E+10	1	-1E+10	1	-1E+10	1
4901784	151	C	08/23/2019	10:49	-132.520	43.153	0	142.40	0	8.0020	0	35.0830	8	27.341	0	141.219	0	219.3	4	76.5	4	-1E+10	1	-1E+10	1	-1E+10	1	-1E+10	1	-1E+10	1	-1E+10	1
4901784	151	C	08/23/2019	10:49	-132.520	43.153	0	145.40	0	7.9730	0	35.1320	8	27.384	0	144.194	0	218.0	4	76.0	4	-1E+10	1	-1E+10	1	-1E+10	1	-1E+10	1	-1E+10	1	-1E+10	1
4901784	151	C	08/23/2019	10:49	-132.520	43.153	0	147.80	0	7.9570	0	35.1670	8	27.414	0	146.573	0	216.9	4	75.6	4	-1E+10	1	-1E+10	1	-1E+10	1	-1E+10	1	-1E+10	1	-1E+10	1
4901784	151	C	08/23/2019	10:49	-132.520	43.153	0	150.30	0	7.9400	0	35.1990	8	27.442	0	149.051	0	215.9	4	75.3	4	-1E+10	1	-1E+10	1	-1E+10	1	-1E+10	1	-1E+10	1	-1E+10	1
4901784	151	C	08/23/2019	10:49	-132.520	43.153	0	152.70	0	7.9210	0	35.2090	8	27.453	0	151.430	0	214.9	4	74.9	4	-1E+10	1	-1E+10	1	-1E+10	1	-1E+10	1	-1E+10	1	-1E+10	1
4901784	151	C	08/23/2019	10:49	-132.520	43.153	0	155.20	0	7.9240	0	35.2470	8	27.482	0	153.909	0	214.2	4	74.7	4	-1E+10	1	-1E+10	1	-1E+10	1	-1E+10	1	-1E+10	1	-1E+10	1
4901784	151	C	08/23/2019	10:49	-132.520	43.153	0	157.60	0	7.9430	0	35.2690	8	27.497	0	156.288	0	212.6	4	74.1	4	-1E+10	1	-1E+10	1	-1E+10	1	-1E+10	1	-1E+10	1	-1E+10	1
4901784	151	C	08/23/2019	10:49	-132.520	43.153	0	160.20	0	7.9360	0	35.2840	8	27.509	0	158.865	0	210.0	4	73.2	4	-1E+10	1	-1E+10	1	-1E+10	1	-1E+10	1	-1E+10	1	-1E+10	1
4901784	151	C	08/23/2019	10:49	-132.520	43.153	0	162.80	0	7.9280	0	35.3450	8	27.559	0	161.442	0	206.8	4	72.2	4	-1E+10	1	-1E+10	1	-1E+10	1	-1E+10	1	-1E+10	1	-1E+10	1
4901784	151	C	08/23/2019	10:49	-132.520	43.153	0	164.50	0	7.9170	0	35.3740	8	27.583	0	163.127	0	204.4	4	71.3	4	-1E+10	1	-1E+10	1	-1E+10	1	-1E+10	1	-1E+10	1	-1E+10	1
4901784	151	C	08/23/2019	10:49	-132.520	43.153	0	167.20	0	7.9140	0	35.3960	8	27.601	0	165.804	0	200.7	4	70.0	4	-1E+10	1	-1E+10	1	-1E+10	1	-1E+10	1	-1E+10	1	-1E+10	1
4901784	151	C	08/23/2019	10:49	-132.520	43.153	0	169.90	0	7.9120	0	35.4310	8	27.629	0	168.480	0	195.9	4	68.4	4	-1E+10	1	-1E+10	1	-1E+10	1	-1E+10	1	-1E+10	1	-1E+10	1
4901784	151	C	08/23/2019	10:49	-132.520	43.153	0	172.70	0	7.9210	0	35.4910	8	27.675	0	171.256	0	192.4	4	67.2	4	-1E+10	1	-1E+10	1	-1E+10	1	-1E+10	1	-1E+10	1	-1E+10	1
4901784	151	C	08/23/2019	10:49	-132.520	43.153	0	175.90	0	7.9330	0	35.5230	8	27.698	0	174.428	0	190.4	4	66.5	4	-1E+10	1	-1E+10	1	-1E+10	1	-1E+10	1	-1E+10	1	-1E+10	1
4901784	151	C	08/23/2019	10:49	-132.520	43.153	0	177.80	0	7.9440	0	35.5380	8	27.708	0	176.311	0	189.2	4	66.1	4	-1E+10	1	-1E+10	1	-1E+10	1	-1E+10	1	-1E+10	1	-1E+10	1
4901784	151	C	08/23/2019	10:49	-132.520	43.153	0	180.10	0	7.9430	0	35.5570	8	27.723	0	178.591	0	188.8	4	66.0	4	-1E+10	1	-1E+10	1	-1E+10	1	-1E+10	1	-1E+10	1	-1E+10	1
4901784	151	C	08/23/2019	10:49	-132.520	43.153	0	182.50	0	7.9490	0	35.5730	8	27.735	0	180.969	0	187.3	4	65.5	4	-1E+10	1	-1E+10	1	-1E+10	1	-1E+10	1	-1E+10	1	-1E+10	1
4901784	151	C	08/23/2019	10:49	-132.520	43.153	0	184.80	0	7.9560	0	35.5840	8	27.743	0	183.249	0	185.7	4	64.9	4	-1E+10	1	-1E+10	1	-1E+10	1	-1E+10	1	-1E+10	1	-1E+10	1
4901784	151	C	08/23/2019	10:49	-132.520	43.153	0	187.30	0	7.9620	0	35.6120	8	27.764	0	185.727	0	183.9	4	64.3	4	-1E+10	1	-1E+10	1	-1E+10	1	-1E+10	1	-1E+10	1	-1E+10	1
4901784	151	C	08/23/2019	10:49	-132.520	43.153	0	189.60	0	7.9670	0	35.6450	8	27.789	0	188.007	0	181.8	4	63.6	4	-1E+10	1	-1E+10	1	-1E+10	1	-1E+10	1	-1E+10	1	-1E+10	1
4901784	151	C	08/23/2019	10:49	-132.520	43.153	0	192.80	0	8.0030	0	35.7040	8	27.830	0	191.178	0	177.6	4	62.2	4	-1E+10	1	-1E+10	1	-1E+10	1	-1E+10	1	-1E+10	1	-1E+10	1
4901784	151	C	08/23/2019	10:49	-132.520	43.153	0	195.20	0	8.0180	0	35.7320	8	27.850	0	193.557	0	176.1	4	61.7	4	-1E+10	1	-1E+10	1	-1E+10	1	-1E+10	1	-1E+10	1	-1E+10	1
4901784	151	C	08/23/2019	10:49	-132.520	43.153	0	197.70	0	8.0280	0	35.7510	8	27.863	0	196.035	0	175.1	4	61.4	4	-1E+10	1	-1E+10	1	-1E+10	1	-1E+10	1	-1E+10	1	-1E+10	1
4901784	151	C	08/23/2019	10:49	-132.520	43.153	0	200.10	0	8.0310	0	35.7550	8	27.866	0	198.413	0	174.5	4	61.2	4	-1E+10	1	-1E+10	1	-1E+10	1	-1E+10	1	-1E+10	1	-1E+10	1
4901784	151	C	08/23/2019	10:49	-132.520	43.153	0	202.50	0	8.0350	0	35.7630	8	27.872	0	200.792	0	173.6	4	60.9	4	-1E+10	1	-1E+10	1	-1E+10	1	-1E+10	1	-1E+10	1	-1E+10	1
4901784	151	C	08/23/2019	10:49	-132.520	43.153	0	204.90	0	8.0400	0	35.7760	8	27.881	0	203.171	0	173.1	4	60.7	4	-1E+10	1	-1E+10	1	-1E+10	1	-1E+10	1	-1E+10	1	-1E+10	1
4901784	151	C	08/23/2019	10:49	-132.520	43.153	0	207.50	0	8.0420	0	35.7900	8	27.892	0	205.747	0	171.9	4	60.3	4	-1E+10	1	-1E+10	1	-1E+10	1	-1E+10	1	-1E+10	1	-1E+10	1
4901784	151	C	08/23/2019	10:49	-132.520	43.153	0	210.00	0	8.0420	0	35.8150	8	27.911	0	208.225	0	170.2	4	59.7	4	-1E+10	1	-1E+10	1	-1E+10	1	-1E+10	1	-1E+10	1	-1E+10	1
4901784	151	C	08/23/2019	10:49	-132.520	43.153	0	212.50	0	8.0400	0	35.8250	8	27.920	0	210.703	0	168.9	4	59.3	4	-1E+10	1	-1E+10	1	-1E+10	1	-1E+10	1	-1E+10	1	-1E+10	1
4901784	151	C	08/23/2019	10:49	-132.520	43.153	0	215.00	0	8.0450	0	35.8370	8	27.928	0	213.180	0	166.9	4	58.6	4	-1E+10	1	-1E+10	1	-1E+10	1	-1E+10	1	-1E+10	1	-1E+10	1
4901784	151	C	08/23/2019	10:49	-132.520	43.153	0	217.50	0	8.0230	0	35.8410	8	27.935	0	215.658	0	163.5	4	57.4	4	-1E+10	1	-1E+10	1	-1E+10	1	-1E+10	1	-1E+10	1	-1E+10	1
4901784	151	C	08/23/2019	10:49	-132.520	43.153	0	220.20	0	7.9740	0	35.8500	8	27.949	0	218.333	0	160.9	4	56.4	4	-1E+10	1	-1E+10	1	-1E+10	1	-1E+10	1	-1E+10	1	-1E+10	1
4901784	151	C	08/23/2019	10:49	-132.520	43.153	0	222.80	0	7.9410	0	35.8570	8	27.960	0	220.910	0	160.3	4	56.2	4	-1E+10	1	-1E+10	1	-1E+10	1	-1E+10	1	-1E+10	1	-1E+10	1
4901784	151	C	08/23/2019	10:49	-132.520	43.153	0	225.40	0	7.9120	0	35.8630	8	27.969	0	223.486	0	160.3	4	56.1	4	-1E+10	1	-1E+10	1	-1E+10	1	-1E+10	1	-1E+10	1	-1E+10	1
4901784	151	C	08/23/2019	10:49	-132.520	43.153	0	227.20	0	7.8970	0	35.8660	8	27.974	0	225.270	0	160.5	4	56.2	4	-1E+10	1	-1E+10	1	-1E+10	1	-1E+10	1	-1E+10	1	-1E+10	1
4901784	151	C	08/23/2019	10:49	-132.520	43.153	0	229.80	0	7.8740	0	35.8700	8	27.980	0	227.847	0	160.9	4	56.3	4	-1E+10	1	-1E+10	1	-1E+10	1	-1E+10	1	-1E+10	1	-1E+10	1
4901784	151	C	08/23/2019	10:49	-132.520	43.153	0	232.30	0	7.8620	0	35.8720	8	27.984	0	230.324	0	161.5	4	56.5	4	-1E+10	1	-1E+10	1	-1E+10	1	-1E+10	1	-1E+10	1	-1E+10	1
4901784	151	C	08/23/2019	10:49	-132.520	43.153	0	234.90	0	7.8260	0	35.8780	8	27.994	0	232.900	0	161.5	4	56.4	4	-1E+10	1	-1E+10	1	-1E+10	1	-1E+10	1	-1E+10	1	-1E+10	1
4901784	151	C	08/23/2019	10:49	-132.520	43.153	0	237.40	0	7.7850	0	35.8820	8	28.003	0	235.378	0	161.1	4	56.3	4	-1E+10	1	-1E+10	1	-1E+10	1	-1E+10	1	-1E+10	1	-1E+10	1
4901784	151	C	08/23/2019	10:49	-132.520	43.153	0	240.00	0	7.7480	0	35.8830	8	28.010	0	237.954	0	160.3	4	55.9	4	-1E+10	1	-1E+10	1	-1E+10	1	-1E+10	1	-1E+10	1	-1E+10	1
4901784	151	C	08/23/2019	10:49	-132.520	43.153	0	242.50	0	7.6960	0	35.8830	8	28.017	0	240.431	0	159.7	4	55.7	4	-1E+10	1	-1E+10	1	-1E+10	1	-1E+10	1	-1E+10	1	-1E+10	1
4901784	151	C	08/23/2019	10:49	-132.520	43.153	0	245.20	0	7.6480	0	35.8820	8	28.024	0	243.107	0	159.9	4	55.6	4	-1E+10	1	-1E+10	1	-1E+10	1	-1E+10	1	-1E+10	1	-1E+10	1
4901784	151	C	08/23/2019	10:49	-132.520	43.153	0	247.80	0	7.6030	0	35.8830	8	28.031	0	245.683	0	159.4	4	55.4	4	-1E+10	1	-1E+10	1	-1E+10	1	-1E+10	1	-1E+10	1	-1E+10	1
4901784	151	C	08/23/2019	10:49	-132.520	43.153	0	249.50	0	7.5720	0	35.8830	8	28.036	0	247.367	0	158.8	4	55.2	4	-1E+10	1	-1E+10	1	-1E+10	1	-1E+10	1	-1E+10	1	-1E+10	1
4901784	151	C	08/23/2019	10:49	-132.520	43.153	0	252.20	0	7.5350	0	35.8840	8	28.042	0	250.043	0	158.3	4	54.9	4	-1E+10	1	-1E+10	1	-1E+10	1	-1E+10	1	-1E+10	1	-1E+10	1
4901784	151	C	08/23/2019	10:49	-132.520	43.153	0	254.80	0	7.5160	0	35.8820	8	28.043	0	252.619	0	157.6	4	54.7	4	-1E+10	1	-1E+10	1	-1E+10	1	-1E+10	1	-1E+10	1	-1E+10	1
4901784	151	C	08/23/2019	10:49	-132.520	43.153	0	257.40	0	7.4900	0	35.8820	8	28.047	0	255.195	0	156.7	4	54.3	4	-1E+10	1	-1E+10	1	-1E+10	1	-1E+10	1	-1E+10	1	-1E+10	1
4901784	151	C	08/23/2019	10:49	-132.520	43.153	0	260.00	0	7.4650	0	35.8800	8	28.049	0	257.771	0	155.5	4	53.9	4	-1E+10	1	-1E+10	1	-1E+10	1	-1E+10	1	-1E+10	1	-1E+10	1
4901784	151	C	08/23/2019	10:49	-132.520	43.153	0	262.60	0	7.4320	0	35.8780	8	28.053	0	260.347	0	153.9	4	53.3	4	-1E+10	1	-1E+10	1	-1E+10	1	-1E+10	1	-1E+10	1	-1E+10	1
4901784	151	C	08/23/2019	10:49	-132.520	43.153	0	265.20	0	7.3650	0	35.8770	8	28.062	0	262.923	0	152.1	4	52.6	4	-1E+10	1	-1E+10	1	-1E+10	1	-1E+10	1	-1E+10	1	-1E+10	1
4901784	151	C	08/23/2019	10:49	-132.520	43.153	0	267.80	0	7.2930	0	35.8760	8	28.071	0	265.499	0	151.3	4	52.2	4	-1E+10	1	-1E+10	1	-1E+10	1	-1E+10	1	-1E+10	1	-1E+10	1
4901784	151	C	08/23/2019	10:49	-132.520	43.153	0	270.40	0	7.2730	0	35.8730	8	28.072	0	268.075	0	150.1	4	51.8	4	-1E+10	1	-1E+10	1	-1E+10	1	-1E+10	1	-1E+10	1	-1E+10	1
4901784	151	C	08/23/2019	10:49	-132.520	43.153	0	272.20	0	7.2350	0	35.8720	8	28.077	0	269.859	0	148.9	4	51.3	4	-1E+10	1	-1E+10	1	-1E+10	1	-1E+10	1	-1E+10	1	-1E+10	1
4901784	151	C	08/23/2019	10:49	-132.520	43.153	0	274.80	0	7.1760	0	35.8710	8	28.084	0	272.435	0	147.3	4	50.7	4	-1E+10	1	-1E+10	1	-1E+10	1	-1E+10	1	-1E+10	1	-1E+10	1
4901784	151	C	08/23/2019	10:49	-132.520	43.153	0	277.40	0	7.1090	0	35.8700	8	28.093	0	275.010	0	146.0	4	50.2	4	-1E+10	1	-1E+10	1	-1E+10	1	-1E+10	1	-1E+10	1	-1E+10	1
4901784	151	C	08/23/2019	10:49	-132.520	43.153	0	280.10	0	7.0370	0	35.8700	8	28.103	0	277.685	0	144.4	4	49.6	4	-1E+10	1	-1E+10	1	-1E+10	1	-1E+10	1	-1E+10	1	-1E+10	1
4901784	151	C	08/23/2019	10:49	-132.520	43.153	0	282.70	0	6.9960	0	35.8690	8	28.108	0	280.261	0	143.0	4	49.0	4	-1E+10	1	-1E+10	1	-1E+10	1	-1E+10	1	-1E+10	1	-1E+10	1
4901784	151	C	08/23/2019	10:49	-132.520	43.153	0	285.40	0	6.9410	0	35.8780	8	28.123	0	282.936	0	140.9	4	48.3	4	-1E+10	1	-1E+10	1	-1E+10	1	-1E+10	1	-1E+10	1	-1E+10	1
4901784	151	C	08/23/2019	10:49	-132.520	43.153	0	288.00	0	6.9000	0	35.8880	8	28.137	0	285.512	0	139.8	4	47.9	4	-1E+10	1	-1E+10	1	-1E+10	1	-1E+10	1	-1E+10	1	-1E+10	1
4901784	151	C	08/23/2019	10:49	-132.520	43.153	0	289.80	0	6.8820	0	35.8870	8	28.139	0	287.295	0	139.0	4	47.5	4	-1E+10	1	-1E+10	1	-1E+10	1	-1E+10	1	-1E+10	1	-1E+10	1
4901784	151	C	08/23/2019	10:49	-132.520	43.153	0	292.40	0	6.8300	0	35.8860	8	28.145	0	289.871	0	137.0	4	46.8	4	-1E+10	1	-1E+10	1	-1E+10	1	-1E+10	1	-1E+10	1	-1E+10	1
4901784	151	C	08/23/2019	10:49	-132.520	43.153	0	295.10	0	6.7310	0	35.8880	8	28.160	0	292.545	0	135.3	4	46.1	4	-1E+10	1	-1E+10	1	-1E+10	1	-1E+10	1	-1E+10	1	-1E+10	1
4901784	151	C	08/23/2019	10:49	-132.520	43.153	0	297.70	0	6.7080	0	35.8880	8	28.164	0	295.121	0	133.9	4	45.6	4	-1E+10	1	-1E+10	1	-1E+10	1	-1E+10	1	-1E+10	1	-1E+10	1
4901784	151	C	08/23/2019	10:49	-132.520	43.153	0	300.50	0	6.6970	0	35.8870	8	28.164	0	297.895	0	132.3	4	45.1	4	-1E+10	1	-1E+10	1	-1E+10	1	-1E+10	1	-1E+10	1	-1E+10	1
4901784	151	C	08/23/2019	10:49	-132.520	43.153	0	302.20	0	6.6700	0	35.8870	8	28.168	0	299.579	0	130.9	4	44.6	4	-1E+10	1	-1E+10	1	-1E+10	1	-1E+10	1	-1E+10	1	-1E+10	1
4901784	151	C	08/23/2019	10:49	-132.520	43.153	0	304.80	0	6.6290	0	35.8880	8	28.175	0	302.154	0	129.8	4	44.1	4	-1E+10	1	-1E+10	1	-1E+10	1	-1E+10	1	-1E+10	1	-1E+10	1
4901784	151	C	08/23/2019	10:49	-132.520	43.153	0	307.40	0	6.6060	0	35.8880	8	28.178	0	304.730	0	128.8	4	43.8	4	-1E+10	1	-1E+10	1	-1E+10	1	-1E+10	1	-1E+10	1	-1E+10	1
4901784	151	C	08/23/2019	10:49	-132.520	43.153	0	310.20	0	6.5770	0	35.8880	8	28.182	0	307.504	0	127.8	4	43.4	4	-1E+10	1	-1E+10	1	-1E+10	1	-1E+10	1	-1E+10	1	-1E+10	1
4901784	151	C	08/23/2019	10:49	-132.520	43.153	0	312.80	0	6.5700	0	35.8860	8	28.181	0	310.079	0	126.4	4	42.9	4	-1E+10	1	-1E+10	1	-1E+10	1	-1E+10	1	-1E+10	1	-1E+10	1
4901784	151	C	08/23/2019	10:49	-132.520	43.153	0	314.70	0	6.5520	0	35.8870	8	28.184	0	311.961	0	125.1	4	42.5	4	-1E+10	1	-1E+10	1	-1E+10	1	-1E+10	1	-1E+10	1	-1E+10	1
4901784	151	C	08/23/2019	10:49	-132.520	43.153	0	317.40	0	6.4960	0	35.8870	8	28.192	0	314.636	0	122.9	4	41.7	4	-1E+10	1	-1E+10	1	-1E+10	1	-1E+10	1	-1E+10	1	-1E+10	1
4901784	151	C	08/23/2019	10:49	-132.520	43.153	0	320.10	0	6.4470	0	35.8870	8	28.199	0	317.310	0	120.2	4	40.7	4	-1E+10	1	-1E+10	1	-1E+10	1	-1E+10	1	-1E+10	1	-1E+10	1
4901784	151	C	08/23/2019	10:49	-132.520	43.153	0	321.90	0	6.4410	0	35.8860	8	28.199	0	319.093	0	118.2	4	40.0	4	-1E+10	1	-1E+10	1	-1E+10	1	-1E+10	1	-1E+10	1	-1E+10	1
4901784	151	C	08/23/2019	10:49	-132.520	43.153	0	324.70	0	6.3730	0	35.8890	8	28.210	0	321.866	0	116.3	4	39.3	4	-1E+10	1	-1E+10	1	-1E+10	1	-1E+10	1	-1E+10	1	-1E+10	1
4901784	151	C	08/23/2019	10:49	-132.520	43.153	0	327.50	0	6.3380	0	35.8880	8	28.214	0	324.640	0	115.2	4	38.9	4	-1E+10	1	-1E+10	1	-1E+10	1	-1E+10	1	-1E+10	1	-1E+10	1
4901784	151	C	08/23/2019	10:49	-132.520	43.153	0	330.20	0	6.3030	0	35.8870	8	28.218	0	327.314	0	114.1	4	38.5	4	-1E+10	1	-1E+10	1	-1E+10	1	-1E+10	1	-1E+10	1	-1E+10	1
4901784	151	C	08/23/2019	10:49	-132.520	43.153	0	332.90	0	6.2660	0	35.8860	8	28.222	0	329.988	0	113.0	4	38.1	4	-1E+10	1	-1E+10	1	-1E+10	1	-1E+10	1	-1E+10	1	-1E+10	1
4901784	151	C	08/23/2019	10:49	-132.520	43.153	0	334.80	0	6.2300	0	35.8870	8	28.228	0	331.870	0	111.9	4	37.7	4	-1E+10	1	-1E+10	1	-1E+10	1	-1E+10	1	-1E+10	1	-1E+10	1
4901784	151	C	08/23/2019	10:49	-132.520	43.153	0	337.50	0	6.1840	0	35.8860	8	28.233	0	334.544	0	110.0	4	37.0	4	-1E+10	1	-1E+10	1	-1E+10	1	-1E+10	1	-1E+10	1	-1E+10	1
4901784	151	C	08/23/2019	10:49	-132.520	43.153	0	340.30	0	6.1300	0	35.8880	8	28.242	0	337.317	0	107.8	4	36.2	4	-1E+10	1	-1E+10	1	-1E+10	1	-1E+10	1	-1E+10	1	-1E+10	1
4901784	151	C	08/23/2019	10:49	-132.520	43.153	0	342.10	0	6.1070	0	35.8870	8	28.244	0	339.100	0	106.8	4	35.9	4	-1E+10	1	-1E+10	1	-1E+10	1	-1E+10	1	-1E+10	1	-1E+10	1
4901784	151	C	08/23/2019	10:49	-132.520	43.153	0	344.90	0	6.0740	0	35.8860	8	28.248	0	341.873	0	104.7	4	35.2	4	-1E+10	1	-1E+10	1	-1E+10	1	-1E+10	1	-1E+10	1	-1E+10	1
4901784	151	C	08/23/2019	10:49	-132.520	43.153	0	347.60	0	6.0240	0	35.8850	8	28.254	0	344.547	0	103.2	4	34.6	4	-1E+10	1	-1E+10	1	-1E+10	1	-1E+10	1	-1E+10	1	-1E+10	1
4901784	151	C	08/23/2019	10:49	-132.520	43.153	0	349.40	0	5.9850	0	35.8850	8	28.259	0	346.330	0	102.2	4	34.3	4	-1E+10	1	-1E+10	1	-1E+10	1	-1E+10	1	-1E+10	1	-1E+10	1
4901784	151	C	08/23/2019	10:49	-132.520	43.153	0	352.40	0	5.9130	0	35.8870	8	28.270	0	349.301	0	100.6	4	33.7	4	-1E+10	1	-1E+10	1	-1E+10	1	-1E+10	1	-1E+10	1	-1E+10	1
4901784	151	C	08/23/2019	10:49	-132.520	43.153	0	354.90	0	5.8720	0	35.8870	8	28.275	0	351.777	0	99.6	4	33.3	4	-1E+10	1	-1E+10	1	-1E+10	1	-1E+10	1	-1E+10	1	-1E+10	1
4901784	151	C	08/23/2019	10:49	-132.520	43.153	0	357.30	0	5.8480	0	35.8850	8	28.276	0	354.154	0	98.3	4	32.8	4	-1E+10	1	-1E+10	1	-1E+10	1	-1E+10	1	-1E+10	1	-1E+10	1
4901784	151	C	08/23/2019	10:49	-132.520	43.153	0	359.70	0	5.8020	0	35.8850	8	28.282	0	356.531	0	96.6	4	32.2	4	-1E+10	1	-1E+10	1	-1E+10	1	-1E+10	1	-1E+10	1	-1E+10	1
4901784	151	C	08/23/2019	10:49	-132.520	43.153	0	362.20	0	5.7290	0	35.8880	8	28.294	0	359.007	0	95.0	4	31.7	4	-1E+10	1	-1E+10	1	-1E+10	1	-1E+10	1	-1E+10	1	-1E+10	1
4901784	151	C	08/23/2019	10:49	-132.520	43.153	0	364.60	0	5.6900	0	35.8870	8	28.298	0	361.383	0	93.9	4	31.2	4	-1E+10	1	-1E+10	1	-1E+10	1	-1E+10	1	-1E+10	1	-1E+10	1
4901784	151	C	08/23/2019	10:49	-132.520	43.153	0	367.10	0	5.6490	0	35.8890	8	28.305	0	363.859	0	93.3	4	31.0	4	-1E+10	1	-1E+10	1	-1E+10	1	-1E+10	1	-1E+10	1	-1E+10	1
4901784	151	C	08/23/2019	10:49	-132.520	43.153	0	369.60	0	5.6160	0	35.8900	8	28.310	0	366.335	0	92.9	4	30.9	4	-1E+10	1	-1E+10	1	-1E+10	1	-1E+10	1	-1E+10	1	-1E+10	1
4901784	151	C	08/23/2019	10:49	-132.520	43.153	0	372.10	0	5.5890	0	35.8880	8	28.312	0	368.810	0	92.8	4	30.8	4	-1E+10	1	-1E+10	1	-1E+10	1	-1E+10	1	-1E+10	1	-1E+10	1
4901784	151	C	08/23/2019	10:49	-132.520	43.153	0	374.60	0	5.5510	0	35.8890	8	28.317	0	371.286	0	92.3	4	30.6	4	-1E+10	1	-1E+10	1	-1E+10	1	-1E+10	1	-1E+10	1	-1E+10	1
4901784	151	C	08/23/2019	10:49	-132.520	43.153	0	377.10	0	5.5440	0	35.8880	8	28.317	0	373.762	0	91.3	4	30.3	4	-1E+10	1	-1E+10	1	-1E+10	1	-1E+10	1	-1E+10	1	-1E+10	1
4901784	151	C	08/23/2019	10:49	-132.520	43.153	0	379.60	0	5.5290	0	35.8870	8	28.318	0	376.237	0	89.9	4	29.8	4	-1E+10	1	-1E+10	1	-1E+10	1	-1E+10	1	-1E+10	1	-1E+10	1
4901784	151	C	08/23/2019	10:49	-132.520	43.153	0	382.20	0	5.4800	0	35.8910	8	28.328	0	378.812	0	88.6	4	29.4	4	-1E+10	1	-1E+10	1	-1E+10	1	-1E+10	1	-1E+10	1	-1E+10	1
4901784	151	C	08/23/2019	10:49	-132.520	43.153	0	384.80	0	5.4310	0	35.8910	8	28.334	0	381.386	0	88.2	4	29.2	4	-1E+10	1	-1E+10	1	-1E+10	1	-1E+10	1	-1E+10	1	-1E+10	1
4901784	151	C	08/23/2019	10:49	-132.520	43.153	0	387.40	0	5.3970	0	35.8920	8	28.339	0	383.961	0	87.5	4	28.9	4	-1E+10	1	-1E+10	1	-1E+10	1	-1E+10	1	-1E+10	1	-1E+10	1
4901784	151	C	08/23/2019	10:49	-132.520	43.153	0	390.00	0	5.3880	0	35.8920	8	28.340	0	386.536	0	86.7	4	28.7	4	-1E+10	1	-1E+10	1	-1E+10	1	-1E+10	1	-1E+10	1	-1E+10	1
4901784	151	C	08/23/2019	10:49	-132.520	43.153	0	392.60	0	5.3730	0	35.8920	8	28.342	0	389.110	0	85.5	4	28.3	4	-1E+10	1	-1E+10	1	-1E+10	1	-1E+10	1	-1E+10	1	-1E+10	1
4901784	151	C	08/23/2019	10:49	-132.520	43.153	0	395.20	0	5.3640	0	35.8940	8	28.345	0	391.684	0	83.8	4	27.7	4	-1E+10	1	-1E+10	1	-1E+10	1	-1E+10	1	-1E+10	1	-1E+10	1
4901784	151	C	08/23/2019	10:49	-132.520	43.153	0	397.80	0	5.3510	0	35.8970	8	28.349	0	394.259	0	82.4	4	27.2	4	-1E+10	1	-1E+10	1	-1E+10	1	-1E+10	1	-1E+10	1	-1E+10	1
4901784	151	C	08/23/2019	10:49	-132.520	43.153	0	399.60	0	5.3430	0	35.8970	8	28.350	0	396.041	0	81.5	4	26.9	4	-1E+10	1	-1E+10	1	-1E+10	1	-1E+10	1	-1E+10	1	-1E+10	1
4901784	151	C	08/23/2019	10:49	-132.520	43.153	0	402.20	0	5.3330	0	35.8960	8	28.350	0	398.615	0	79.9	4	26.4	4	-1E+10	1	-1E+10	1	-1E+10	1	-1E+10	1	-1E+10	1	-1E+10	1
4901784	151	C	08/23/2019	10:49	-132.520	43.153	0	404.90	0	5.2830	0	35.9010	8	28.360	0	401.289	0	78.1	4	25.8	4	-1E+10	1	-1E+10	1	-1E+10	1	-1E+10	1	-1E+10	1	-1E+10	1
4901784	151	C	08/23/2019	10:49	-132.520	43.153	0	407.60	0	5.2580	0	35.9040	8	28.366	0	403.962	0	76.8	4	25.3	4	-1E+10	1	-1E+10	1	-1E+10	1	-1E+10	1	-1E+10	1	-1E+10	1
4901784	151	C	08/23/2019	10:49	-132.520	43.153	0	410.20	0	5.2350	0	35.9070	8	28.371	0	406.536	0	75.7	4	24.9	4	-1E+10	1	-1E+10	1	-1E+10	1	-1E+10	1	-1E+10	1	-1E+10	1
4901784	151	C	08/23/2019	10:49	-132.520	43.153	0	412.10	0	5.2100	0	35.9100	8	28.376	0	408.417	0	75.1	4	24.7	4	-1E+10	1	-1E+10	1	-1E+10	1	-1E+10	1	-1E+10	1	-1E+10	1
4901784	151	C	08/23/2019	10:49	-132.520	43.153	0	414.80	0	5.1890	0	35.9110	8	28.379	0	411.091	0	74.3	4	24.4	4	-1E+10	1	-1E+10	1	-1E+10	1	-1E+10	1	-1E+10	1	-1E+10	1
4901784	151	C	08/23/2019	10:49	-132.520	43.153	0	417.60	0	5.1730	0	35.9110	8	28.381	0	413.863	0	73.3	4	24.1	4	-1E+10	1	-1E+10	1	-1E+10	1	-1E+10	1	-1E+10	1	-1E+10	1
4901784	151	C	08/23/2019	10:49	-132.520	43.153	0	419.40	0	5.1540	0	35.9130	8	28.385	0	415.645	0	72.6	4	23.9	4	-1E+10	1	-1E+10	1	-1E+10	1	-1E+10	1	-1E+10	1	-1E+10	1
4901784	151	C	08/23/2019	10:49	-132.520	43.153	0	422.20	0	5.1310	0	35.9170	8	28.391	0	418.417	0	71.8	4	23.6	4	-1E+10	1	-1E+10	1	-1E+10	1	-1E+10	1	-1E+10	1	-1E+10	1
4901784	151	C	08/23/2019	10:49	-132.520	43.153	0	425.00	0	5.1170	0	35.9180	8	28.394	0	421.189	0	71.1	4	23.4	4	-1E+10	1	-1E+10	1	-1E+10	1	-1E+10	1	-1E+10	1	-1E+10	1
4901784	151	C	08/23/2019	10:49	-132.520	43.153	0	427.80	0	5.1070	0	35.9190	8	28.396	0	423.961	0	70.4	4	23.1	4	-1E+10	1	-1E+10	1	-1E+10	1	-1E+10	1	-1E+10	1	-1E+10	1
4901784	151	C	08/23/2019	10:49	-132.520	43.153	0	430.50	0	5.0970	0	35.9190	8	28.397	0	426.634	0	69.5	4	22.8	4	-1E+10	1	-1E+10	1	-1E+10	1	-1E+10	1	-1E+10	1	-1E+10	1
4901784	151	C	08/23/2019	10:49	-132.520	43.153	0	432.40	0	5.0820	0	35.9200	8	28.400	0	428.515	0	68.8	4	22.6	4	-1E+10	1	-1E+10	1	-1E+10	1	-1E+10	1	-1E+10	1	-1E+10	1
4901784	151	C	08/23/2019	10:49	-132.520	43.153	0	435.20	0	5.0580	0	35.9240	8	28.406	0	431.287	0	67.9	4	22.3	4	-1E+10	1	-1E+10	1	-1E+10	1	-1E+10	1	-1E+10	1	-1E+10	1
4901784	151	C	08/23/2019	10:49	-132.520	43.153	0	438.10	0	5.0420	0	35.9250	8	28.408	0	434.158	0	67.1	4	22.0	4	-1E+10	1	-1E+10	1	-1E+10	1	-1E+10	1	-1E+10	1	-1E+10	1
4901784	151	C	08/23/2019	10:49	-132.520	43.153	0	439.90	0	5.0280	0	35.9270	8	28.412	0	435.940	0	66.5	4	21.8	4	-1E+10	1	-1E+10	1	-1E+10	1	-1E+10	1	-1E+10	1	-1E+10	1
4901784	151	C	08/23/2019	10:49	-132.520	43.153	0	441.80	0	5.0130	0	35.9300	8	28.416	0	437.821	0	65.9	4	21.6	4	-1E+10	1	-1E+10	1	-1E+10	1	-1E+10	1	-1E+10	1	-1E+10	1
4901784	151	C	08/23/2019	10:49	-132.520	43.153	0	444.70	0	4.9990	0	35.9320	8	28.419	0	440.692	0	65.1	4	21.3	4	-1E+10	1	-1E+10	1	-1E+10	1	-1E+10	1	-1E+10	1	-1E+10	1
4901784	151	C	08/23/2019	10:49	-132.520	43.153	0	447.60	0	4.9860	0	35.9320	8	28.421	0	443.562	0	64.2	4	21.0	4	-1E+10	1	-1E+10	1	-1E+10	1	-1E+10	1	-1E+10	1	-1E+10	1
4901784	151	C	08/23/2019	10:49	-132.520	43.153	0	449.60	0	4.9740	0	35.9340	8	28.424	0	445.542	0	63.6	4	20.8	4	-1E+10	1	-1E+10	1	-1E+10	1	-1E+10	1	-1E+10	1	-1E+10	1
4901784	151	C	08/23/2019	10:49	-132.520	43.153	0	452.40	0	4.9530	0	35.9370	8	28.429	0	448.314	0	62.7	4	20.5	4	-1E+10	1	-1E+10	1	-1E+10	1	-1E+10	1	-1E+10	1	-1E+10	1
4901784	151	C	08/23/2019	10:49	-132.520	43.153	0	455.20	0	4.9260	0	35.9410	8	28.435	0	451.085	0	62.0	4	20.3	4	-1E+10	1	-1E+10	1	-1E+10	1	-1E+10	1	-1E+10	1	-1E+10	1
4901784	151	C	08/23/2019	10:49	-132.520	43.153	0	457.20	0	4.9240	0	35.9410	8	28.435	0	453.065	0	61.6	4	20.1	4	-1E+10	1	-1E+10	1	-1E+10	1	-1E+10	1	-1E+10	1	-1E+10	1
4901784	151	C	08/23/2019	10:49	-132.520	43.153	0	460.00	0	4.9130	0	35.9430	8	28.438	0	455.837	0	60.9	4	19.9	4	-1E+10	1	-1E+10	1	-1E+10	1	-1E+10	1	-1E+10	1	-1E+10	1
4901784	151	C	08/23/2019	10:49	-132.520	43.153	0	462.90	0	4.8950	0	35.9450	8	28.442	0	458.707	0	60.3	4	19.7	4	-1E+10	1	-1E+10	1	-1E+10	1	-1E+10	1	-1E+10	1	-1E+10	1
4901784	151	C	08/23/2019	10:49	-132.520	43.153	0	464.80	0	4.8760	0	35.9460	8	28.445	0	460.588	0	60.0	4	19.6	4	-1E+10	1	-1E+10	1	-1E+10	1	-1E+10	1	-1E+10	1	-1E+10	1
4901784	151	C	08/23/2019	10:49	-132.520	43.153	0	467.60	0	4.8530	0	35.9480	8	28.449	0	463.360	0	59.2	4	19.3	4	-1E+10	1	-1E+10	1	-1E+10	1	-1E+10	1	-1E+10	1	-1E+10	1
4901784	151	C	08/23/2019	10:49	-132.520	43.153	0	470.50	0	4.8330	0	35.9500	8	28.453	0	466.230	0	58.0	4	18.9	4	-1E+10	1	-1E+10	1	-1E+10	1	-1E+10	1	-1E+10	1	-1E+10	1
4901784	151	C	08/23/2019	10:49	-132.520	43.153	0	472.40	0	4.8270	0	35.9530	8	28.456	0	468.111	0	57.2	4	18.7	4	-1E+10	1	-1E+10	1	-1E+10	1	-1E+10	1	-1E+10	1	-1E+10	1
4901784	151	C	08/23/2019	10:49	-132.520	43.153	0	474.30	0	4.8180	0	35.9580	8	28.461	0	469.991	0	56.4	4	18.4	4	-1E+10	1	-1E+10	1	-1E+10	1	-1E+10	1	-1E+10	1	-1E+10	1
4901784	151	C	08/23/2019	10:49	-132.520	43.153	0	477.20	0	4.8120	0	35.9570	8	28.461	0	472.862	0	55.4	4	18.1	4	-1E+10	1	-1E+10	1	-1E+10	1	-1E+10	1	-1E+10	1	-1E+10	1
4901784	151	C	08/23/2019	10:49	-132.520	43.153	0	480.10	0	4.7830	0	35.9640	8	28.470	0	475.732	0	54.4	4	17.7	4	-1E+10	1	-1E+10	1	-1E+10	1	-1E+10	1	-1E+10	1	-1E+10	1
4901784	151	C	08/23/2019	10:49	-132.520	43.153	0	482.10	0	4.7810	0	35.9650	8	28.471	0	477.711	0	53.7	4	17.5	4	-1E+10	1	-1E+10	1	-1E+10	1	-1E+10	1	-1E+10	1	-1E+10	1
4901784	151	C	08/23/2019	10:49	-132.520	43.153	0	485.00	0	4.7730	0	35.9670	8	28.474	0	480.582	0	52.8	4	17.2	4	-1E+10	1	-1E+10	1	-1E+10	1	-1E+10	1	-1E+10	1	-1E+10	1
4901784	151	C	08/23/2019	10:49	-132.520	43.153	0	487.90	0	4.7650	0	35.9690	8	28.476	0	483.452	0	51.6	4	16.8	4	-1E+10	1	-1E+10	1	-1E+10	1	-1E+10	1	-1E+10	1	-1E+10	1
4901784	151	C	08/23/2019	10:49	-132.520	43.153	0	489.90	0	4.7570	0	35.9720	8	28.480	0	485.431	0	50.7	4	16.5	4	-1E+10	1	-1E+10	1	-1E+10	1	-1E+10	1	-1E+10	1	-1E+10	1
4901784	151	C	08/23/2019	10:49	-132.520	43.153	0	492.70	0	4.7420	0	35.9770	8	28.485	0	488.202	0	49.7	4	16.2	4	-1E+10	1	-1E+10	1	-1E+10	1	-1E+10	1	-1E+10	1	-1E+10	1
4901784	151	C	08/23/2019	10:49	-132.520	43.153	0	495.60	0	4.7320	0	35.9790	8	28.488	0	491.073	0	48.6	4	15.8	4	-1E+10	1	-1E+10	1	-1E+10	1	-1E+10	1	-1E+10	1	-1E+10	1
4901784	151	C	08/23/2019	10:49	-132.520	43.153	0	497.50	0	4.7240	0	35.9820	8	28.491	0	492.953	0	47.9	4	15.6	4	-1E+10	1	-1E+10	1	-1E+10	1	-1E+10	1	-1E+10	1	-1E+10	1
4901784	151	C	08/23/2019	10:49	-132.520	43.153	0	499.50	0	4.7110	0	35.9860	8	28.496	0	494.932	0	47.1	4	15.3	4	-1E+10	1	-1E+10	1	-1E+10	1	-1E+10	1	-1E+10	1	-1E+10	1
4901784	151	C	08/23/2019	10:49	-132.520	43.153	0	505.30	0	4.6790	0	35.9940	8	28.506	0	500.672	0	45.3	4	14.7	4	-1E+10	1	-1E+10	1	-1E+10	1	-1E+10	1	-1E+10	1	-1E+10	1
4901784	151	C	08/23/2019	10:49	-132.520	43.153	0	509.60	0	4.6640	0	35.9980	8	28.511	0	504.928	0	44.3	4	14.4	4	-1E+10	1	-1E+10	1	-1E+10	1	-1E+10	1	-1E+10	1	-1E+10	1
4901784	151	C	08/23/2019	10:49	-132.520	43.153	0	514.50	0	4.6490	0	36.0030	8	28.517	0	509.777	0	42.8	4	13.9	4	-1E+10	1	-1E+10	1	-1E+10	1	-1E+10	1	-1E+10	1	-1E+10	1
4901784	151	C	08/23/2019	10:49	-132.520	43.153	0	519.50	0	4.6250	0	36.0090	8	28.524	0	514.725	0	41.4	4	13.4	4	-1E+10	1	-1E+10	1	-1E+10	1	-1E+10	1	-1E+10	1	-1E+10	1
4901784	151	C	08/23/2019	10:49	-132.520	43.153	0	524.40	0	4.6070	0	36.0150	8	28.531	0	519.574	0	39.9	4	13.0	4	-1E+10	1	-1E+10	1	-1E+10	1	-1E+10	1	-1E+10	1	-1E+10	1
4901784	151	C	08/23/2019	10:49	-132.520	43.153	0	529.40	0	4.5870	0	36.0210	8	28.538	0	524.521	0	38.8	4	12.6	4	-1E+10	1	-1E+10	1	-1E+10	1	-1E+10	1	-1E+10	1	-1E+10	1
4901784	151	C	08/23/2019	10:49	-132.520	43.153	0	534.40	0	4.5790	0	36.0250	8	28.543	0	529.469	0	37.8	4	12.3	4	-1E+10	1	-1E+10	1	-1E+10	1	-1E+10	1	-1E+10	1	-1E+10	1
4901784	151	C	08/23/2019	10:49	-132.520	43.153	0	539.40	0	4.5760	0	36.0390	8	28.554	0	534.416	0	36.7	4	11.9	4	-1E+10	1	-1E+10	1	-1E+10	1	-1E+10	1	-1E+10	1	-1E+10	1
4901784	151	C	08/23/2019	10:49	-132.520	43.153	0	544.40	0	4.5670	0	36.0430	8	28.558	0	539.363	0	35.4	4	11.5	4	-1E+10	1	-1E+10	1	-1E+10	1	-1E+10	1	-1E+10	1	-1E+10	1
4901784	151	C	08/23/2019	10:49	-132.520	43.153	0	549.40	0	4.5540	0	36.0500	8	28.565	0	544.311	0	33.9	4	11.0	4	-1E+10	1	-1E+10	1	-1E+10	1	-1E+10	1	-1E+10	1	-1E+10	1
4901784	151	C	08/23/2019	10:49	-132.520	43.153	0	554.40	0	4.5440	0	36.0560	8	28.571	0	549.258	0	32.5	4	10.5	4	-1E+10	1	-1E+10	1	-1E+10	1	-1E+10	1	-1E+10	1	-1E+10	1
4901784	151	C	08/23/2019	10:49	-132.520	43.153	0	559.40	0	4.5410	0	36.0640	8	28.578	0	554.205	0	31.4	4	10.2	4	-1E+10	1	-1E+10	1	-1E+10	1	-1E+10	1	-1E+10	1	-1E+10	1
4901784	151	C	08/23/2019	10:49	-132.520	43.153	0	564.40	0	4.5410	0	36.0680	8	28.581	0	559.152	0	30.4	4	9.9	4	-1E+10	1	-1E+10	1	-1E+10	1	-1E+10	1	-1E+10	1	-1E+10	1
4901784	151	C	08/23/2019	10:49	-132.520	43.153	0	569.30	0	4.5230	0	36.0710	8	28.586	0	563.999	0	29.5	4	9.6	4	-1E+10	1	-1E+10	1	-1E+10	1	-1E+10	1	-1E+10	1	-1E+10	1
4901784	151	C	08/23/2019	10:49	-132.520	43.153	0	574.30	0	4.5030	0	36.0770	8	28.593	0	568.946	0	28.6	4	9.3	4	-1E+10	1	-1E+10	1	-1E+10	1	-1E+10	1	-1E+10	1	-1E+10	1
4901784	151	C	08/23/2019	10:49	-132.520	43.153	0	579.40	0	4.4930	0	36.0810	8	28.597	0	573.991	0	27.5	4	8.9	4	-1E+10	1	-1E+10	1	-1E+10	1	-1E+10	1	-1E+10	1	-1E+10	1
4901784	151	C	08/23/2019	10:49	-132.520	43.153	0	584.40	0	4.4940	0	36.0890	8	28.604	0	578.938	0	26.5	4	8.6	4	-1E+10	1	-1E+10	1	-1E+10	1	-1E+10	1	-1E+10	1	-1E+10	1
4901784	151	C	08/23/2019	10:49	-132.520	43.153	0	589.40	0	4.4850	0	36.0900	8	28.605	0	583.884	0	25.9	4	8.4	4	-1E+10	1	-1E+10	1	-1E+10	1	-1E+10	1	-1E+10	1	-1E+10	1
4901784	151	C	08/23/2019	10:49	-132.520	43.153	0	594.50	0	4.4720	0	36.0970	8	28.612	0	588.929	0	24.9	4	8.1	4	-1E+10	1	-1E+10	1	-1E+10	1	-1E+10	1	-1E+10	1	-1E+10	1
4901784	151	C	08/23/2019	10:49	-132.520	43.153	0	599.60	0	4.4630	0	36.1020	8	28.618	0	593.974	0	24.2	4	7.8	4	-1E+10	1	-1E+10	1	-1E+10	1	-1E+10	1	-1E+10	1	-1E+10	1
4901784	151	C	08/23/2019	10:49	-132.520	43.153	0	604.70	0	4.4500	0	36.1070	8	28.623	0	599.019	0	23.6	4	7.6	4	-1E+10	1	-1E+10	1	-1E+10	1	-1E+10	1	-1E+10	1	-1E+10	1
4901784	151	C	08/23/2019	10:49	-132.520	43.153	0	609.80	0	4.4370	0	36.1110	8	28.628	0	604.064	0	23.2	4	7.5	4	-1E+10	1	-1E+10	1	-1E+10	1	-1E+10	1	-1E+10	1	-1E+10	1
4901784	151	C	08/23/2019	10:49	-132.520	43.153	0	615.00	0	4.4310	0	36.1130	8	28.630	0	609.207	0	22.7	4	7.3	4	-1E+10	1	-1E+10	1	-1E+10	1	-1E+10	1	-1E+10	1	-1E+10	1
4901784	151	C	08/23/2019	10:49	-132.520	43.153	0	620.20	0	4.4130	0	36.1180	8	28.636	0	614.350	0	22.0	4	7.1	4	-1E+10	1	-1E+10	1	-1E+10	1	-1E+10	1	-1E+10	1	-1E+10	1
4901784	151	C	08/23/2019	10:49	-132.520	43.153	0	625.40	0	4.4080	0	36.1210	8	28.639	0	619.494	0	21.5	4	7.0	4	-1E+10	1	-1E+10	1	-1E+10	1	-1E+10	1	-1E+10	1	-1E+10	1
4901784	151	C	08/23/2019	10:49	-132.520	43.153	0	630.70	0	4.4000	0	36.1250	8	28.643	0	624.736	0	21.0	4	6.8	4	-1E+10	1	-1E+10	1	-1E+10	1	-1E+10	1	-1E+10	1	-1E+10	1
4901784	151	C	08/23/2019	10:49	-132.520	43.153	0	635.20	0	4.3950	0	36.1260	8	28.645	0	629.186	0	20.6	4	6.7	4	-1E+10	1	-1E+10	1	-1E+10	1	-1E+10	1	-1E+10	1	-1E+10	1
4901784	151	C	08/23/2019	10:49	-132.520	43.153	0	639.70	0	4.3910	0	36.1300	8	28.648	0	633.637	0	20.2	4	6.5	4	-1E+10	1	-1E+10	1	-1E+10	1	-1E+10	1	-1E+10	1	-1E+10	1
4901784	151	C	08/23/2019	10:49	-132.520	43.153	0	645.10	0	4.3850	0	36.1330	8	28.651	0	638.977	0	19.8	4	6.4	4	-1E+10	1	-1E+10	1	-1E+10	1	-1E+10	1	-1E+10	1	-1E+10	1
4901784	151	C	08/23/2019	10:49	-132.520	43.153	0	650.60	0	4.3670	0	36.1360	8	28.656	0	644.417	0	19.4	4	6.3	4	-1E+10	1	-1E+10	1	-1E+10	1	-1E+10	1	-1E+10	1	-1E+10	1
4901784	151	C	08/23/2019	10:49	-132.520	43.153	0	655.20	0	4.3710	0	36.1400	8	28.659	0	648.966	0	19.0	4	6.2	4	-1E+10	1	-1E+10	1	-1E+10	1	-1E+10	1	-1E+10	1	-1E+10	1
4901784	151	C	08/23/2019	10:49	-132.520	43.153	0	659.70	0	4.3650	0	36.1420	8	28.661	0	653.416	0	18.9	4	6.1	4	-1E+10	1	-1E+10	1	-1E+10	1	-1E+10	1	-1E+10	1	-1E+10	1
4901784	151	C	08/23/2019	10:49	-132.520	43.153	0	665.30	0	4.3120	0	36.1430	8	28.668	0	658.954	0	18.7	4	6.1	4	-1E+10	1	-1E+10	1	-1E+10	1	-1E+10	1	-1E+10	1	-1E+10	1
4901784	151	C	08/23/2019	10:49	-132.520	43.153	0	669.80	0	4.3420	0	36.1510	8	28.671	0	663.404	0	17.8	4	5.8	4	-1E+10	1	-1E+10	1	-1E+10	1	-1E+10	1	-1E+10	1	-1E+10	1
4901784	151	C	08/23/2019	10:49	-132.520	43.153	0	674.50	0	4.3040	0	36.1530	8	28.676	0	668.051	0	17.9	4	5.8	4	-1E+10	1	-1E+10	1	-1E+10	1	-1E+10	1	-1E+10	1	-1E+10	1
4901784	151	C	08/23/2019	10:49	-132.520	43.153	0	680.00	0	4.2550	0	36.1570	8	28.685	0	673.490	0	17.4	4	5.6	4	-1E+10	1	-1E+10	1	-1E+10	1	-1E+10	1	-1E+10	1	-1E+10	1
4901784	151	C	08/23/2019	10:49	-132.520	43.153	0	684.70	0	4.2640	0	36.1620	8	28.688	0	678.137	0	16.6	4	5.4	4	-1E+10	1	-1E+10	1	-1E+10	1	-1E+10	1	-1E+10	1	-1E+10	1
4901784	151	C	08/23/2019	10:49	-132.520	43.153	0	689.40	0	4.2720	0	36.1700	8	28.694	0	682.784	0	16.1	4	5.2	4	-1E+10	1	-1E+10	1	-1E+10	1	-1E+10	1	-1E+10	1	-1E+10	1
4901784	151	C	08/23/2019	10:49	-132.520	43.153	0	695.00	0	4.2590	0	36.1730	8	28.698	0	688.321	0	15.9	4	5.1	4	-1E+10	1	-1E+10	1	-1E+10	1	-1E+10	1	-1E+10	1	-1E+10	1
4901784	151	C	08/23/2019	10:49	-132.520	43.153	0	700.50	0	4.2590	0	36.1750	8	28.699	0	693.759	0	15.6	4	5.0	4	-1E+10	1	-1E+10	1	-1E+10	1	-1E+10	1	-1E+10	1	-1E+10	1
4901784	151	C	08/23/2019	10:49	-132.520	43.153	0	705.20	0	4.2310	0	36.1780	8	28.705	0	698.406	0	15.4	4	5.0	4	-1E+10	1	-1E+10	1	-1E+10	1	-1E+10	1	-1E+10	1	-1E+10	1
4901784	151	C	08/23/2019	10:49	-132.520	43.153	0	709.80	0	4.2170	0	36.1810	8	28.709	0	702.954	0	15.2	4	4.9	4	-1E+10	1	-1E+10	1	-1E+10	1	-1E+10	1	-1E+10	1	-1E+10	1
4901784	151	C	08/23/2019	10:49	-132.520	43.153	0	714.50	0	4.1930	0	36.1840	8	28.714	0	707.601	0	14.9	4	4.8	4	-1E+10	1	-1E+10	1	-1E+10	1	-1E+10	1	-1E+10	1	-1E+10	1
4901784	151	C	08/23/2019	10:49	-132.520	43.153	0	719.20	0	4.1850	0	36.1930	8	28.722	0	712.247	0	14.2	4	4.6	4	-1E+10	1	-1E+10	1	-1E+10	1	-1E+10	1	-1E+10	1	-1E+10	1
4901784	151	C	08/23/2019	10:49	-132.520	43.153	0	724.60	0	4.1870	0	36.1990	8	28.726	0	717.586	0	13.7	4	4.4	4	-1E+10	1	-1E+10	1	-1E+10	1	-1E+10	1	-1E+10	1	-1E+10	1
4901784	151	C	08/23/2019	10:49	-132.520	43.153	0	729.50	0	4.1740	0	36.2040	8	28.732	0	722.430	0	13.5	4	4.4	4	-1E+10	1	-1E+10	1	-1E+10	1	-1E+10	1	-1E+10	1	-1E+10	1
4901784	151	C	08/23/2019	10:49	-132.520	43.153	0	734.40	0	4.1630	0	36.2080	8	28.736	0	727.274	0	13.3	4	4.3	4	-1E+10	1	-1E+10	1	-1E+10	1	-1E+10	1	-1E+10	1	-1E+10	1
4901784	151	C	08/23/2019	10:49	-132.520	43.153	0	739.40	0	4.1480	0	36.2120	8	28.741	0	732.217	0	13.0	4	4.2	4	-1E+10	1	-1E+10	1	-1E+10	1	-1E+10	1	-1E+10	1	-1E+10	1
4901784	151	C	08/23/2019	10:49	-132.520	43.153	0	744.40	0	4.1310	0	36.2170	8	28.747	0	737.159	0	12.8	4	4.1	4	-1E+10	1	-1E+10	1	-1E+10	1	-1E+10	1	-1E+10	1	-1E+10	1
4901784	151	C	08/23/2019	10:49	-132.520	43.153	0	749.50	0	4.1220	0	36.2210	8	28.751	0	742.201	0	12.7	4	4.1	4	-1E+10	1	-1E+10	1	-1E+10	1	-1E+10	1	-1E+10	1	-1E+10	1
4901784	151	C	08/23/2019	10:49	-132.520	43.153	0	754.50	0	4.0990	0	36.2240	8	28.756	0	747.143	0	12.6	4	4.0	4	-1E+10	1	-1E+10	1	-1E+10	1	-1E+10	1	-1E+10	1	-1E+10	1
4901784	151	C	08/23/2019	10:49	-132.520	43.153	0	759.60	0	4.0820	0	36.2280	8	28.761	0	752.184	0	12.4	4	4.0	4	-1E+10	1	-1E+10	1	-1E+10	1	-1E+10	1	-1E+10	1	-1E+10	1
4901784	151	C	08/23/2019	10:49	-132.520	43.153	0	764.70	0	4.0700	0	36.2300	8	28.764	0	757.225	0	12.4	4	4.0	4	-1E+10	1	-1E+10	1	-1E+10	1	-1E+10	1	-1E+10	1	-1E+10	1
4901784	151	C	08/23/2019	10:49	-132.520	43.153	0	769.90	0	4.0430	0	36.2320	8	28.769	0	762.365	0	12.3	4	4.0	4	-1E+10	1	-1E+10	1	-1E+10	1	-1E+10	1	-1E+10	1	-1E+10	1
4901784	151	C	08/23/2019	10:49	-132.520	43.153	0	775.20	0	4.0300	0	36.2360	8	28.773	0	767.603	0	12.1	4	3.9	4	-1E+10	1	-1E+10	1	-1E+10	1	-1E+10	1	-1E+10	1	-1E+10	1
4901784	151	C	08/23/2019	10:49	-132.520	43.153	0	780.40	0	4.0220	0	36.2390	8	28.777	0	772.743	0	12.0	4	3.9	4	-1E+10	1	-1E+10	1	-1E+10	1	-1E+10	1	-1E+10	1	-1E+10	1
4901784	151	C	08/23/2019	10:49	-132.520	43.153	0	784.90	0	4.0160	0	36.2400	8	28.778	0	777.190	0	11.9	4	3.8	4	-1E+10	1	-1E+10	1	-1E+10	1	-1E+10	1	-1E+10	1	-1E+10	1
4901784	151	C	08/23/2019	10:49	-132.520	43.153	0	789.40	0	4.0010	0	36.2440	8	28.783	0	781.637	0	11.7	4	3.8	4	-1E+10	1	-1E+10	1	-1E+10	1	-1E+10	1	-1E+10	1	-1E+10	1
4901784	151	C	08/23/2019	10:49	-132.520	43.153	0	794.60	0	3.9840	0	36.2480	8	28.788	0	786.776	0	11.6	4	3.7	4	-1E+10	1	-1E+10	1	-1E+10	1	-1E+10	1	-1E+10	1	-1E+10	1
4901784	151	C	08/23/2019	10:49	-132.520	43.153	0	799.90	0	3.9680	0	36.2510	8	28.792	0	792.014	0	11.5	4	3.7	4	-1E+10	1	-1E+10	1	-1E+10	1	-1E+10	1	-1E+10	1	-1E+10	1
4901784	151	C	08/23/2019	10:49	-132.520	43.153	0	805.20	0	3.9550	0	36.2530	8	28.795	0	797.252	0	11.5	4	3.7	4	-1E+10	1	-1E+10	1	-1E+10	1	-1E+10	1	-1E+10	1	-1E+10	1
4901784	151	C	08/23/2019	10:49	-132.520	43.153	0	810.50	0	3.9400	0	36.2550	8	28.798	0	802.489	0	11.4	4	3.7	4	-1E+10	1	-1E+10	1	-1E+10	1	-1E+10	1	-1E+10	1	-1E+10	1
4901784	151	C	08/23/2019	10:49	-132.520	43.153	0	815.00	0	3.9330	0	36.2570	8	28.801	0	806.936	0	11.4	4	3.7	4	-1E+10	1	-1E+10	1	-1E+10	1	-1E+10	1	-1E+10	1	-1E+10	1
4901784	151	C	08/23/2019	10:49	-132.520	43.153	0	819.60	0	3.9040	0	36.2580	8	28.805	0	811.482	0	11.3	4	3.6	4	-1E+10	1	-1E+10	1	-1E+10	1	-1E+10	1	-1E+10	1	-1E+10	1
4901784	151	C	08/23/2019	10:49	-132.520	43.153	0	825.00	0	3.8970	0	36.2620	8	28.809	0	816.818	0	11.3	4	3.6	4	-1E+10	1	-1E+10	1	-1E+10	1	-1E+10	1	-1E+10	1	-1E+10	1
4901784	151	C	08/23/2019	10:49	-132.520	43.153	0	830.50	0	3.8630	0	36.2630	8	28.813	0	822.252	0	11.2	4	3.6	4	-1E+10	1	-1E+10	1	-1E+10	1	-1E+10	1	-1E+10	1	-1E+10	1
4901784	151	C	08/23/2019	10:49	-132.520	43.153	0	835.20	0	3.8600	0	36.2680	8	28.817	0	826.896	0	11.1	4	3.6	4	-1E+10	1	-1E+10	1	-1E+10	1	-1E+10	1	-1E+10	1	-1E+10	1
4901784	151	C	08/23/2019	10:49	-132.520	43.153	0	839.90	0	3.8440	0	36.2690	8	28.820	0	831.540	0	11.1	4	3.5	4	-1E+10	1	-1E+10	1	-1E+10	1	-1E+10	1	-1E+10	1	-1E+10	1
4901784	151	C	08/23/2019	10:49	-132.520	43.153	0	845.50	0	3.8190	0	36.2740	8	28.827	0	837.073	0	11.0	4	3.5	4	-1E+10	1	-1E+10	1	-1E+10	1	-1E+10	1	-1E+10	1	-1E+10	1
4901784	151	C	08/23/2019	10:49	-132.520	43.153	0	850.10	0	3.8160	0	36.2770	8	28.829	0	841.618	0	10.9	4	3.5	4	-1E+10	1	-1E+10	1	-1E+10	1	-1E+10	1	-1E+10	1	-1E+10	1
4901784	151	C	08/23/2019	10:49	-132.520	43.153	0	854.80	0	3.8070	0	36.2800	8	28.833	0	846.262	0	10.8	4	3.5	4	-1E+10	1	-1E+10	1	-1E+10	1	-1E+10	1	-1E+10	1	-1E+10	1
4901784	151	C	08/23/2019	10:49	-132.520	43.153	0	860.50	0	3.7840	0	36.2810	8	28.836	0	851.893	0	10.8	4	3.5	4	-1E+10	1	-1E+10	1	-1E+10	1	-1E+10	1	-1E+10	1	-1E+10	1
4901784	151	C	08/23/2019	10:49	-132.520	43.153	0	865.10	0	3.7770	0	36.2860	8	28.841	0	856.438	0	10.7	4	3.4	4	-1E+10	1	-1E+10	1	-1E+10	1	-1E+10	1	-1E+10	1	-1E+10	1
4901784	151	C	08/23/2019	10:49	-132.520	43.153	0	869.80	0	3.7740	0	36.2880	8	28.843	0	861.081	0	10.7	4	3.4	4	-1E+10	1	-1E+10	1	-1E+10	1	-1E+10	1	-1E+10	1	-1E+10	1
4901784	151	C	08/23/2019	10:49	-132.520	43.153	0	875.40	0	3.7480	0	36.2910	8	28.848	0	866.614	0	10.7	4	3.4	4	-1E+10	1	-1E+10	1	-1E+10	1	-1E+10	1	-1E+10	1	-1E+10	1
4901784	151	C	08/23/2019	10:49	-132.520	43.153	0	880.10	0	3.7330	0	36.2930	8	28.851	0	871.257	0	10.6	4	3.4	4	-1E+10	1	-1E+10	1	-1E+10	1	-1E+10	1	-1E+10	1	-1E+10	1
4901784	151	C	08/23/2019	10:49	-132.520	43.153	0	884.80	0	3.7320	0	36.2980	8	28.855	0	875.899	0	10.5	4	3.4	4	-1E+10	1	-1E+10	1	-1E+10	1	-1E+10	1	-1E+10	1	-1E+10	1
4901784	151	C	08/23/2019	10:49	-132.520	43.153	0	890.50	0	3.7120	0	36.3020	8	28.860	0	881.530	0	10.5	4	3.3	4	-1E+10	1	-1E+10	1	-1E+10	1	-1E+10	1	-1E+10	1	-1E+10	1
4901784	151	C	08/23/2019	10:49	-132.520	43.153	0	895.20	0	3.7150	0	36.3030	8	28.861	0	886.173	0	10.4	4	3.3	4	-1E+10	1	-1E+10	1	-1E+10	1	-1E+10	1	-1E+10	1	-1E+10	1
4901784	151	C	08/23/2019	10:49	-132.520	43.153	0	899.90	0	3.7070	0	36.3070	8	28.865	0	890.815	0	10.4	4	3.3	4	-1E+10	1	-1E+10	1	-1E+10	1	-1E+10	1	-1E+10	1	-1E+10	1
4901784	151	C	08/23/2019	10:49	-132.520	43.153	0	905.50	0	3.6730	0	36.3090	8	28.870	0	896.347	0	10.4	4	3.3	4	-1E+10	1	-1E+10	1	-1E+10	1	-1E+10	1	-1E+10	1	-1E+10	1
4901784	151	C	08/23/2019	10:49	-132.520	43.153	0	911.00	0	3.6490	0	36.3110	8	28.874	0	901.779	0	10.3	4	3.3	4	-1E+10	1	-1E+10	1	-1E+10	1	-1E+10	1	-1E+10	1	-1E+10	1
4901784	151	C	08/23/2019	10:49	-132.520	43.153	0	915.40	0	3.6430	0	36.3140	8	28.877	0	906.125	0	10.3	4	3.3	4	-1E+10	1	-1E+10	1	-1E+10	1	-1E+10	1	-1E+10	1	-1E+10	1
4901784	151	C	08/23/2019	10:49	-132.520	43.153	0	920.30	0	3.6370	0	36.3170	8	28.880	0	910.965	0	10.3	4	3.3	4	-1E+10	1	-1E+10	1	-1E+10	1	-1E+10	1	-1E+10	1	-1E+10	1
4901784	151	C	08/23/2019	10:49	-132.520	43.153	0	925.20	0	3.6280	0	36.3200	8	28.884	0	915.805	0	10.2	4	3.3	4	-1E+10	1	-1E+10	1	-1E+10	1	-1E+10	1	-1E+10	1	-1E+10	1
4901784	151	C	08/23/2019	10:49	-132.520	43.153	0	930.00	0	3.6190	0	36.3260	8	28.889	0	920.545	0	10.2	4	3.3	4	-1E+10	1	-1E+10	1	-1E+10	1	-1E+10	1	-1E+10	1	-1E+10	1
4901784	151	C	08/23/2019	10:49	-132.520	43.153	0	935.00	0	3.6210	0	36.3290	8	28.892	0	925.484	0	10.2	4	3.2	4	-1E+10	1	-1E+10	1	-1E+10	1	-1E+10	1	-1E+10	1	-1E+10	1
4901784	151	C	08/23/2019	10:49	-132.520	43.153	0	940.10	0	3.6100	0	36.3320	8	28.895	0	930.520	0	10.2	4	3.2	4	-1E+10	1	-1E+10	1	-1E+10	1	-1E+10	1	-1E+10	1	-1E+10	1
4901784	151	C	08/23/2019	10:49	-132.520	43.153	0	945.00	0	3.6000	0	36.3330	8	28.897	0	935.359	0	10.2	4	3.2	4	-1E+10	1	-1E+10	1	-1E+10	1	-1E+10	1	-1E+10	1	-1E+10	1
4901784	151	C	08/23/2019	10:49	-132.520	43.153	0	950.00	0	3.5740	0	36.3360	8	28.902	0	940.297	0	10.2	4	3.2	4	-1E+10	1	-1E+10	1	-1E+10	1	-1E+10	1	-1E+10	1	-1E+10	1
4901784	151	C	08/23/2019	10:49	-132.520	43.153	0	954.90	0	3.5580	0	36.3400	8	28.907	0	945.136	0	10.2	4	3.2	4	-1E+10	1	-1E+10	1	-1E+10	1	-1E+10	1	-1E+10	1	-1E+10	1
4901784	151	C	08/23/2019	10:49	-132.520	43.153	0	959.90	0	3.5430	0	36.3440	8	28.912	0	950.074	0	10.2	4	3.2	4	-1E+10	1	-1E+10	1	-1E+10	1	-1E+10	1	-1E+10	1	-1E+10	1
4901784	151	C	08/23/2019	10:49	-132.520	43.153	0	964.90	0	3.5290	0	36.3450	8	28.914	0	955.011	0	10.2	4	3.2	4	-1E+10	1	-1E+10	1	-1E+10	1	-1E+10	1	-1E+10	1	-1E+10	1
4901784	151	C	08/23/2019	10:49	-132.520	43.153	0	969.90	0	3.5150	0	36.3480	8	28.918	0	959.948	0	10.2	4	3.3	4	-1E+10	1	-1E+10	1	-1E+10	1	-1E+10	1	-1E+10	1	-1E+10	1
4901784	151	C	08/23/2019	10:49	-132.520	43.153	0	975.00	0	3.5010	0	36.3520	8	28.923	0	964.984	0	10.3	4	3.3	4	-1E+10	1	-1E+10	1	-1E+10	1	-1E+10	1	-1E+10	1	-1E+10	1
4901784	151	C	08/23/2019	10:49	-132.520	43.153	0	980.00	0	3.4950	0	36.3540	8	28.925	0	969.921	0	10.3	4	3.3	4	-1E+10	1	-1E+10	1	-1E+10	1	-1E+10	1	-1E+10	1	-1E+10	1
4901784	151	C	08/23/2019	10:49	-132.520	43.153	0	985.10	0	3.4800	0	36.3570	8	28.929	0	974.957	0	10.4	4	3.3	4	-1E+10	1	-1E+10	1	-1E+10	1	-1E+10	1	-1E+10	1	-1E+10	1
4901784	151	C	08/23/2019	10:49	-132.520	43.153	0	990.20	0	3.4670	0	36.3600	8	28.933	0	979.993	0	10.4	4	3.3	4	-1E+10	1	-1E+10	1	-1E+10	1	-1E+10	1	-1E+10	1	-1E+10	1
4901784	151	C	08/23/2019	10:49	-132.520	43.153	0	995.50	0	3.4600	0	36.3610	8	28.934	0	985.225	0	10.4	4	3.3	4	-1E+10	1	-1E+10	1	-1E+10	1	-1E+10	1	-1E+10	1	-1E+10	1
4901784	151	C	08/23/2019	10:49	-132.520	43.153	0	1000.70	0	3.4520	0	36.3640	8	28.937	0	990.360	0	10.5	4	3.3	4	-1E+10	1	-1E+10	1	-1E+10	1	-1E+10	1	-1E+10	1	-1E+10	1
4901784	151	C	08/23/2019	10:49	-132.520	43.153	0	1005.10	0	3.4440	0	36.3660	8	28.940	0	994.704	0	10.6	4	3.3	4	-1E+10	1	-1E+10	1	-1E+10	1	-1E+10	1	-1E+10	1	-1E+10	1
4901784	151	C	08/23/2019	10:49	-132.520	43.153	0	1009.50	0	3.4350	0	36.3700	8	28.944	0	999.048	0	10.7	4	3.4	4	-1E+10	1	-1E+10	1	-1E+10	1	-1E+10	1	-1E+10	1	-1E+10	1
4901784	151	C	08/23/2019	10:49	-132.520	43.153	0	1014.80	0	3.4270	0	36.3730	8	28.947	0	1004.280	0	10.8	4	3.4	4	-1E+10	1	-1E+10	1	-1E+10	1	-1E+10	1	-1E+10	1	-1E+10	1
4901784	151	C	08/23/2019	10:49	-132.520	43.153	0	1020.20	0	3.4170	0	36.3750	8	28.950	0	1009.611	0	10.8	4	3.4	4	-1E+10	1	-1E+10	1	-1E+10	1	-1E+10	1	-1E+10	1	-1E+10	1
4901784	151	C	08/23/2019	10:49	-132.520	43.153	0	1025.50	0	3.4040	0	36.3780	8	28.953	0	1014.843	0	10.9	4	3.4	4	-1E+10	1	-1E+10	1	-1E+10	1	-1E+10	1	-1E+10	1	-1E+10	1
4901784	151	C	08/23/2019	10:49	-132.520	43.153	0	1030.00	0	3.3980	0	36.3800	8	28.956	0	1019.286	0	10.9	4	3.5	4	-1E+10	1	-1E+10	1	-1E+10	1	-1E+10	1	-1E+10	1	-1E+10	1
4901784	151	C	08/23/2019	10:49	-132.520	43.153	0	1034.50	0	3.3900	0	36.3800	8	28.957	0	1023.728	0	11.0	4	3.5	4	-1E+10	1	-1E+10	1	-1E+10	1	-1E+10	1	-1E+10	1	-1E+10	1
4901784	151	C	08/23/2019	10:49	-132.520	43.153	0	1039.90	0	3.3760	0	36.3830	8	28.960	0	1029.058	0	11.1	4	3.5	4	-1E+10	1	-1E+10	1	-1E+10	1	-1E+10	1	-1E+10	1	-1E+10	1
4901784	151	C	08/23/2019	10:49	-132.520	43.153	0	1045.40	0	3.3560	0	36.3870	8	28.966	0	1034.487	0	11.2	4	3.5	4	-1E+10	1	-1E+10	1	-1E+10	1	-1E+10	1	-1E+10	1	-1E+10	1
4901784	151	C	08/23/2019	10:49	-132.520	43.153	0	1050.00	0	3.3500	0	36.3880	8	28.967	0	1039.028	0	11.2	4	3.5	4	-1E+10	1	-1E+10	1	-1E+10	1	-1E+10	1	-1E+10	1	-1E+10	1
4901784	151	C	08/23/2019	10:49	-132.520	43.153	0	1055.40	0	3.3430	0	36.3880	8	28.968	0	1044.358	0	11.3	4	3.6	4	-1E+10	1	-1E+10	1	-1E+10	1	-1E+10	1	-1E+10	1	-1E+10	1
4901784	151	C	08/23/2019	10:49	-132.520	43.153	0	1060.50	0	3.3270	0	36.3910	8	28.972	0	1049.392	0	11.4	4	3.6	4	-1E+10	1	-1E+10	1	-1E+10	1	-1E+10	1	-1E+10	1	-1E+10	1
4901784	151	C	08/23/2019	10:49	-132.520	43.153	0	1065.20	0	3.3170	0	36.3930	8	28.974	0	1054.031	0	11.4	4	3.6	4	-1E+10	1	-1E+10	1	-1E+10	1	-1E+10	1	-1E+10	1	-1E+10	1
4901784	151	C	08/23/2019	10:49	-132.520	43.153	0	1070.00	0	3.3090	0	36.3950	8	28.977	0	1058.769	0	11.5	4	3.6	4	-1E+10	1	-1E+10	1	-1E+10	1	-1E+10	1	-1E+10	1	-1E+10	1
4901784	151	C	08/23/2019	10:49	-132.520	43.153	0	1074.80	0	3.3020	0	36.3960	8	28.978	0	1063.506	0	11.6	4	3.7	4	-1E+10	1	-1E+10	1	-1E+10	1	-1E+10	1	-1E+10	1	-1E+10	1
4901784	151	C	08/23/2019	10:49	-132.520	43.153	0	1079.50	0	3.2820	0	36.4000	8	28.984	0	1068.145	0	11.7	4	3.7	4	-1E+10	1	-1E+10	1	-1E+10	1	-1E+10	1	-1E+10	1	-1E+10	1
4901784	151	C	08/23/2019	10:49	-132.520	43.153	0	1084.30	0	3.2740	0	36.4010	8	28.985	0	1072.882	0	11.8	4	3.7	4	-1E+10	1	-1E+10	1	-1E+10	1	-1E+10	1	-1E+10	1	-1E+10	1
4901784	151	C	08/23/2019	10:49	-132.520	43.153	0	1089.20	0	3.2660	0	36.4020	8	28.987	0	1077.718	0	11.9	4	3.7	4	-1E+10	1	-1E+10	1	-1E+10	1	-1E+10	1	-1E+10	1	-1E+10	1
4901784	151	C	08/23/2019	10:49	-132.520	43.153	0	1094.30	0	3.2550	0	36.4050	8	28.990	0	1082.751	0	12.0	4	3.8	4	-1E+10	1	-1E+10	1	-1E+10	1	-1E+10	1	-1E+10	1	-1E+10	1
4901784	151	C	08/23/2019	10:49	-132.520	43.153	0	1099.20	0	3.2470	0	36.4060	8	28.992	0	1087.586	0	12.0	4	3.8	4	-1E+10	1	-1E+10	1	-1E+10	1	-1E+10	1	-1E+10	1	-1E+10	1
4901784	151	C	08/23/2019	10:49	-132.520	43.153	0	1104.20	0	3.2360	0	36.4080	8	28.995	0	1092.521	0	12.1	4	3.8	4	-1E+10	1	-1E+10	1	-1E+10	1	-1E+10	1	-1E+10	1	-1E+10	1
4901784	151	C	08/23/2019	10:49	-132.520	43.153	0	1109.20	0	3.2260	0	36.4100	8	28.997	0	1097.455	0	12.3	4	3.9	4	-1E+10	1	-1E+10	1	-1E+10	1	-1E+10	1	-1E+10	1	-1E+10	1
4901784	151	C	08/23/2019	10:49	-132.520	43.153	0	1114.20	0	3.2110	0	36.4130	8	29.001	0	1102.389	0	12.4	4	3.9	4	-1E+10	1	-1E+10	1	-1E+10	1	-1E+10	1	-1E+10	1	-1E+10	1
4901784	151	C	08/23/2019	10:49	-132.520	43.153	0	1119.30	0	3.1970	0	36.4150	8	29.004	0	1107.421	0	12.5	4	3.9	4	-1E+10	1	-1E+10	1	-1E+10	1	-1E+10	1	-1E+10	1	-1E+10	1
4901784	151	C	08/23/2019	10:49	-132.520	43.153	0	1124.40	0	3.1900	0	36.4160	8	29.006	0	1112.453	0	12.6	4	4.0	4	-1E+10	1	-1E+10	1	-1E+10	1	-1E+10	1	-1E+10	1	-1E+10	1
4901784	151	C	08/23/2019	10:49	-132.520	43.153	0	1129.50	0	3.1800	0	36.4180	8	29.008	0	1117.486	0	12.8	4	4.0	4	-1E+10	1	-1E+10	1	-1E+10	1	-1E+10	1	-1E+10	1	-1E+10	1
4901784	151	C	08/23/2019	10:49	-132.520	43.153	0	1134.70	0	3.1690	0	36.4200	8	29.011	0	1122.616	0	12.9	4	4.1	4	-1E+10	1	-1E+10	1	-1E+10	1	-1E+10	1	-1E+10	1	-1E+10	1
4901784	151	C	08/23/2019	10:49	-132.520	43.153	0	1139.90	0	3.1620	0	36.4210	8	29.013	0	1127.747	0	13.1	4	4.1	4	-1E+10	1	-1E+10	1	-1E+10	1	-1E+10	1	-1E+10	1	-1E+10	1
4901784	151	C	08/23/2019	10:49	-132.520	43.153	0	1145.10	0	3.1500	0	36.4230	8	29.015	0	1132.878	0	13.2	4	4.2	4	-1E+10	1	-1E+10	1	-1E+10	1	-1E+10	1	-1E+10	1	-1E+10	1
4901784	151	C	08/23/2019	10:49	-132.520	43.153	0	1150.40	0	3.1360	0	36.4260	8	29.019	0	1138.107	0	13.4	4	4.2	4	-1E+10	1	-1E+10	1	-1E+10	1	-1E+10	1	-1E+10	1	-1E+10	1
4901784	151	C	08/23/2019	10:49	-132.520	43.153	0	1155.60	0	3.1260	0	36.4280	8	29.022	0	1143.237	0	13.5	4	4.3	4	-1E+10	1	-1E+10	1	-1E+10	1	-1E+10	1	-1E+10	1	-1E+10	1
4901784	151	C	08/23/2019	10:49	-132.520	43.153	0	1160.00	0	3.1190	0	36.4290	8	29.023	0	1147.578	0	13.7	4	4.3	4	-1E+10	1	-1E+10	1	-1E+10	1	-1E+10	1	-1E+10	1	-1E+10	1
4901784	151	C	08/23/2019	10:49	-132.520	43.153	0	1164.50	0	3.1120	0	36.4310	8	29.026	0	1152.018	0	13.8	4	4.3	4	-1E+10	1	-1E+10	1	-1E+10	1	-1E+10	1	-1E+10	1	-1E+10	1
4901784	151	C	08/23/2019	10:49	-132.520	43.153	0	1169.90	0	3.1050	0	36.4320	8	29.027	0	1157.345	0	14.0	4	4.4	4	-1E+10	1	-1E+10	1	-1E+10	1	-1E+10	1	-1E+10	1	-1E+10	1
4901784	151	C	08/23/2019	10:49	-132.520	43.153	0	1175.30	0	3.0830	0	36.4350	8	29.032	0	1162.672	0	14.2	4	4.5	4	-1E+10	1	-1E+10	1	-1E+10	1	-1E+10	1	-1E+10	1	-1E+10	1
4901784	151	C	08/23/2019	10:49	-132.520	43.153	0	1180.00	0	3.0690	0	36.4380	8	29.035	0	1167.308	0	14.4	4	4.5	4	-1E+10	1	-1E+10	1	-1E+10	1	-1E+10	1	-1E+10	1	-1E+10	1
4901784	151	C	08/23/2019	10:49	-132.520	43.153	0	1185.00	0	3.0610	0	36.4340	8	29.033	0	1172.241	0	14.5	4	4.6	4	-1E+10	1	-1E+10	1	-1E+10	1	-1E+10	1	-1E+10	1	-1E+10	1
4901784	151	C	08/23/2019	10:49	-132.520	43.153	0	1190.50	0	3.0530	0	36.4290	8	29.030	0	1177.666	0	14.7	4	4.6	4	-1E+10	1	-1E+10	1	-1E+10	1	-1E+10	1	-1E+10	1	-1E+10	1
4901784	151	C	08/23/2019	10:49	-132.520	43.153	0	1195.30	0	3.0450	0	36.4310	8	29.032	0	1182.401	0	14.8	4	4.6	4	-1E+10	1	-1E+10	1	-1E+10	1	-1E+10	1	-1E+10	1	-1E+10	1
4901784	151	C	08/23/2019	10:49	-132.520	43.153	0	1200.10	0	3.0380	0	36.4310	8	29.033	0	1187.135	0	14.9	4	4.7	4	-1E+10	1	-1E+10	1	-1E+10	1	-1E+10	1	-1E+10	1	-1E+10	1
4901784	151	C	08/23/2019	10:49	-132.520	43.153	0	1204.80	0	3.0260	0	36.4330	8	29.036	0	1191.771	0	15.1	4	4.7	4	-1E+10	1	-1E+10	1	-1E+10	1	-1E+10	1	-1E+10	1	-1E+10	1
4901784	151	C	08/23/2019	10:49	-132.520	43.153	0	1209.80	0	3.0140	0	36.4350	8	29.039	0	1196.703	0	15.3	4	4.8	4	-1E+10	1	-1E+10	1	-1E+10	1	-1E+10	1	-1E+10	1	-1E+10	1
4901784	151	C	08/23/2019	10:49	-132.520	43.153	0	1214.70	0	3.0080	0	36.4360	8	29.040	0	1201.536	0	15.4	4	4.8	4	-1E+10	1	-1E+10	1	-1E+10	1	-1E+10	1	-1E+10	1	-1E+10	1
4901784	151	C	08/23/2019	10:49	-132.520	43.153	0	1219.60	0	3.0040	0	36.4370	8	29.041	0	1206.369	0	15.6	4	4.9	4	-1E+10	1	-1E+10	1	-1E+10	1	-1E+10	1	-1E+10	1	-1E+10	1
4901784	151	C	08/23/2019	10:49	-132.520	43.153	0	1224.70	0	2.9910	0	36.4390	8	29.044	0	1211.399	0	15.7	4	4.9	4	-1E+10	1	-1E+10	1	-1E+10	1	-1E+10	1	-1E+10	1	-1E+10	1
4901784	151	C	08/23/2019	10:49	-132.520	43.153	0	1229.80	0	2.9830	0	36.4400	8	29.046	0	1216.429	0	15.8	4	5.0	4	-1E+10	1	-1E+10	1	-1E+10	1	-1E+10	1	-1E+10	1	-1E+10	1
4901784	151	C	08/23/2019	10:49	-132.520	43.153	0	1234.90	0	2.9730	0	36.4410	8	29.047	0	1221.459	0	15.9	4	5.0	4	-1E+10	1	-1E+10	1	-1E+10	1	-1E+10	1	-1E+10	1	-1E+10	1
4901784	151	C	08/23/2019	10:49	-132.520	43.153	0	1240.00	0	2.9640	0	36.4420	8	29.049	0	1226.488	0	16.1	4	5.0	4	-1E+10	1	-1E+10	1	-1E+10	1	-1E+10	1	-1E+10	1	-1E+10	1
4901784	151	C	08/23/2019	10:49	-132.520	43.153	0	1245.10	0	2.9520	0	36.4440	8	29.052	0	1231.518	0	16.3	4	5.1	4	-1E+10	1	-1E+10	1	-1E+10	1	-1E+10	1	-1E+10	1	-1E+10	1
4901784	151	C	08/23/2019	10:49	-132.520	43.153	0	1250.20	0	2.9420	0	36.4460	8	29.054	0	1236.547	0	16.4	4	5.1	4	-1E+10	1	-1E+10	1	-1E+10	1	-1E+10	1	-1E+10	1	-1E+10	1
4901784	151	C	08/23/2019	10:49	-132.520	43.153	0	1255.40	0	2.9400	0	36.4460	8	29.055	0	1241.675	0	16.5	4	5.2	4	-1E+10	1	-1E+10	1	-1E+10	1	-1E+10	1	-1E+10	1	-1E+10	1
4901784	151	C	08/23/2019	10:49	-132.520	43.153	0	1260.50	0	2.9320	0	36.4470	8	29.056	0	1246.704	0	16.6	4	5.2	4	-1E+10	1	-1E+10	1	-1E+10	1	-1E+10	1	-1E+10	1	-1E+10	1
4901784	151	C	08/23/2019	10:49	-132.520	43.153	0	1265.60	0	2.9240	0	36.4480	8	29.058	0	1251.733	0	16.8	4	5.2	4	-1E+10	1	-1E+10	1	-1E+10	1	-1E+10	1	-1E+10	1	-1E+10	1
4901784	151	C	08/23/2019	10:49	-132.520	43.153	0	1270.00	0	2.9160	0	36.4490	8	29.059	0	1256.072	0	16.9	4	5.3	4	-1E+10	1	-1E+10	1	-1E+10	1	-1E+10	1	-1E+10	1	-1E+10	1
4901784	151	C	08/23/2019	10:49	-132.520	43.153	0	1274.30	0	2.9080	0	36.4500	8	29.061	0	1260.312	0	17.1	4	5.3	4	-1E+10	1	-1E+10	1	-1E+10	1	-1E+10	1	-1E+10	1	-1E+10	1
4901784	151	C	08/23/2019	10:49	-132.520	43.153	0	1279.50	0	2.9010	0	36.4510	8	29.063	0	1265.439	0	17.2	4	5.4	4	-1E+10	1	-1E+10	1	-1E+10	1	-1E+10	1	-1E+10	1	-1E+10	1
4901784	151	C	08/23/2019	10:49	-132.520	43.153	0	1284.70	0	2.8930	0	36.4520	8	29.064	0	1270.566	0	17.4	4	5.4	4	-1E+10	1	-1E+10	1	-1E+10	1	-1E+10	1	-1E+10	1	-1E+10	1
4901784	151	C	08/23/2019	10:49	-132.520	43.153	0	1289.80	0	2.8790	0	36.4540	8	29.067	0	1275.595	0	17.6	4	5.5	4	-1E+10	1	-1E+10	1	-1E+10	1	-1E+10	1	-1E+10	1	-1E+10	1
4901784	151	C	08/23/2019	10:49	-132.520	43.153	0	1295.10	0	2.8680	0	36.4550	8	29.069	0	1280.820	0	17.8	4	5.6	4	-1E+10	1	-1E+10	1	-1E+10	1	-1E+10	1	-1E+10	1	-1E+10	1
4901784	151	C	08/23/2019	10:49	-132.520	43.153	0	1300.40	0	2.8550	0	36.4580	8	29.073	0	1286.046	0	18.1	4	5.6	4	-1E+10	1	-1E+10	1	-1E+10	1	-1E+10	1	-1E+10	1	-1E+10	1
4901784	151	C	08/23/2019	10:49	-132.520	43.153	0	1305.60	0	2.8470	0	36.4590	8	29.074	0	1291.172	0	18.2	4	5.7	4	-1E+10	1	-1E+10	1	-1E+10	1	-1E+10	1	-1E+10	1	-1E+10	1
4901784	151	C	08/23/2019	10:49	-132.520	43.153	0	1310.00	0	2.8420	0	36.4600	8	29.075	0	1295.510	0	18.3	4	5.7	4	-1E+10	1	-1E+10	1	-1E+10	1	-1E+10	1	-1E+10	1	-1E+10	1
4901784	151	C	08/23/2019	10:49	-132.520	43.153	0	1314.40	0	2.8370	0	36.4600	8	29.076	0	1299.848	0	18.4	4	5.8	4	-1E+10	1	-1E+10	1	-1E+10	1	-1E+10	1	-1E+10	1	-1E+10	1
4901784	151	C	08/23/2019	10:49	-132.520	43.153	0	1319.70	0	2.8310	0	36.4610	8	29.077	0	1305.073	0	18.5	4	5.8	4	-1E+10	1	-1E+10	1	-1E+10	1	-1E+10	1	-1E+10	1	-1E+10	1
4901784	151	C	08/23/2019	10:49	-132.520	43.153	0	1324.90	0	2.8270	0	36.4620	8	29.079	0	1310.199	0	18.6	4	5.8	4	-1E+10	1	-1E+10	1	-1E+10	1	-1E+10	1	-1E+10	1	-1E+10	1
4901784	151	C	08/23/2019	10:49	-132.520	43.153	0	1330.30	0	2.8230	0	36.4620	8	29.079	0	1315.522	0	18.8	4	5.9	4	-1E+10	1	-1E+10	1	-1E+10	1	-1E+10	1	-1E+10	1	-1E+10	1
4901784	151	C	08/23/2019	10:49	-132.520	43.153	0	1335.60	0	2.8150	0	36.4640	8	29.081	0	1320.747	0	19.1	4	6.0	4	-1E+10	1	-1E+10	1	-1E+10	1	-1E+10	1	-1E+10	1	-1E+10	1
4901784	151	C	08/23/2019	10:49	-132.520	43.153	0	1340.00	0	2.8060	0	36.4650	8	29.083	0	1325.084	0	19.3	4	6.0	4	-1E+10	1	-1E+10	1	-1E+10	1	-1E+10	1	-1E+10	1	-1E+10	1
4901784	151	C	08/23/2019	10:49	-132.520	43.153	0	1344.50	0	2.7980	0	36.4660	8	29.085	0	1329.520	0	19.5	4	6.1	4	-1E+10	1	-1E+10	1	-1E+10	1	-1E+10	1	-1E+10	1	-1E+10	1
4901784	151	C	08/23/2019	10:49	-132.520	43.153	0	1349.80	0	2.7890	0	36.4680	8	29.087	0	1334.744	0	19.7	4	6.2	4	-1E+10	1	-1E+10	1	-1E+10	1	-1E+10	1	-1E+10	1	-1E+10	1
4901784	151	C	08/23/2019	10:49	-132.520	43.153	0	1354.90	0	2.7810	0	36.4690	8	29.089	0	1339.771	0	19.9	4	6.2	4	-1E+10	1	-1E+10	1	-1E+10	1	-1E+10	1	-1E+10	1	-1E+10	1
4901784	151	C	08/23/2019	10:49	-132.520	43.153	0	1360.00	0	2.7740	0	36.4690	8	29.089	0	1344.798	0	20.1	4	6.3	4	-1E+10	1	-1E+10	1	-1E+10	1	-1E+10	1	-1E+10	1	-1E+10	1
4901784	151	C	08/23/2019	10:49	-132.520	43.153	0	1364.60	0	2.7610	0	36.4720	8	29.093	0	1349.331	0	20.3	4	6.3	4	-1E+10	1	-1E+10	1	-1E+10	1	-1E+10	1	-1E+10	1	-1E+10	1
4901784	151	C	08/23/2019	10:49	-132.520	43.153	0	1369.90	0	2.7580	0	36.4720	8	29.093	0	1354.555	0	20.4	4	6.4	4	-1E+10	1	-1E+10	1	-1E+10	1	-1E+10	1	-1E+10	1	-1E+10	1
4901784	151	C	08/23/2019	10:49	-132.520	43.153	0	1375.40	0	2.7550	0	36.4730	8	29.094	0	1359.976	0	20.5	4	6.4	4	-1E+10	1	-1E+10	1	-1E+10	1	-1E+10	1	-1E+10	1	-1E+10	1
4901784	151	C	08/23/2019	10:49	-132.520	43.153	0	1380.30	0	2.7520	0	36.4730	8	29.095	0	1364.805	0	20.6	4	6.4	4	-1E+10	1	-1E+10	1	-1E+10	1	-1E+10	1	-1E+10	1	-1E+10	1
4901784	151	C	08/23/2019	10:49	-132.520	43.153	0	1385.40	0	2.7470	0	36.4740	8	29.096	0	1369.831	0	20.9	4	6.5	4	-1E+10	1	-1E+10	1	-1E+10	1	-1E+10	1	-1E+10	1	-1E+10	1
4901784	151	C	08/23/2019	10:49	-132.520	43.153	0	1390.50	0	2.7390	0	36.4740	8	29.097	0	1374.857	0	21.2	4	6.6	4	-1E+10	1	-1E+10	1	-1E+10	1	-1E+10	1	-1E+10	1	-1E+10	1
4901784	151	C	08/23/2019	10:49	-132.520	43.153	0	1395.70	0	2.7220	0	36.4770	8	29.101	0	1379.982	0	21.6	4	6.7	4	-1E+10	1	-1E+10	1	-1E+10	1	-1E+10	1	-1E+10	1	-1E+10	1
4901784	151	C	08/23/2019	10:49	-132.520	43.153	0	1400.00	0	2.7070	0	36.4790	8	29.104	0	1384.219	0	21.8	4	6.8	4	-1E+10	1	-1E+10	1	-1E+10	1	-1E+10	1	-1E+10	1	-1E+10	1
4901784	151	C	08/23/2019	10:49	-132.520	43.153	0	1404.30	0	2.7010	0	36.4800	8	29.105	0	1388.457	0	22.0	4	6.8	4	-1E+10	1	-1E+10	1	-1E+10	1	-1E+10	1	-1E+10	1	-1E+10	1
4901784	151	C	08/23/2019	10:49	-132.520	43.153	0	1409.50	0	2.6930	0	36.4810	8	29.107	0	1393.581	0	22.2	4	6.9	4	-1E+10	1	-1E+10	1	-1E+10	1	-1E+10	1	-1E+10	1	-1E+10	1
4901784	151	C	08/23/2019	10:49	-132.520	43.153	0	1414.70	0	2.6840	0	36.4820	8	29.108	0	1398.705	0	22.4	4	7.0	4	-1E+10	1	-1E+10	1	-1E+10	1	-1E+10	1	-1E+10	1	-1E+10	1
4901784	151	C	08/23/2019	10:49	-132.520	43.153	0	1420.00	0	2.6770	0	36.4830	8	29.110	0	1403.927	0	22.7	4	7.1	4	-1E+10	1	-1E+10	1	-1E+10	1	-1E+10	1	-1E+10	1	-1E+10	1
4901784	151	C	08/23/2019	10:49	-132.520	43.153	0	1425.20	0	2.6700	0	36.4840	8	29.111	0	1409.051	0	23.0	4	7.1	4	-1E+10	1	-1E+10	1	-1E+10	1	-1E+10	1	-1E+10	1	-1E+10	1
4901784	151	C	08/23/2019	10:49	-132.520	43.153	0	1430.40	0	2.6580	0	36.4860	8	29.114	0	1414.175	0	23.2	4	7.2	4	-1E+10	1	-1E+10	1	-1E+10	1	-1E+10	1	-1E+10	1	-1E+10	1
4901784	151	C	08/23/2019	10:49	-132.520	43.153	0	1435.60	0	2.6520	0	36.4870	8	29.115	0	1419.298	0	23.4	4	7.3	4	-1E+10	1	-1E+10	1	-1E+10	1	-1E+10	1	-1E+10	1	-1E+10	1
4901784	151	C	08/23/2019	10:49	-132.520	43.153	0	1440.00	0	2.6480	0	36.4880	8	29.117	0	1423.634	0	23.6	4	7.3	4	-1E+10	1	-1E+10	1	-1E+10	1	-1E+10	1	-1E+10	1	-1E+10	1
4901784	151	C	08/23/2019	10:49	-132.520	43.153	0	1444.30	0	2.6410	0	36.4880	8	29.117	0	1427.870	0	23.8	4	7.4	4	-1E+10	1	-1E+10	1	-1E+10	1	-1E+10	1	-1E+10	1	-1E+10	1
4901784	151	C	08/23/2019	10:49	-132.520	43.153	0	1449.60	0	2.6270	0	36.4900	8	29.120	0	1433.092	0	24.1	4	7.5	4	-1E+10	1	-1E+10	1	-1E+10	1	-1E+10	1	-1E+10	1	-1E+10	1
4901784	151	C	08/23/2019	10:49	-132.520	43.153	0	1454.90	0	2.6170	0	36.4910	8	29.122	0	1438.314	0	24.4	4	7.6	4	-1E+10	1	-1E+10	1	-1E+10	1	-1E+10	1	-1E+10	1	-1E+10	1
4901784	151	C	08/23/2019	10:49	-132.520	43.153	0	1460.30	0	2.6070	0	36.4920	8	29.124	0	1443.634	0	24.6	4	7.6	4	-1E+10	1	-1E+10	1	-1E+10	1	-1E+10	1	-1E+10	1	-1E+10	1
4901784	151	C	08/23/2019	10:49	-132.520	43.153	0	1464.80	0	2.6020	0	36.4930	8	29.125	0	1448.067	0	24.8	4	7.7	4	-1E+10	1	-1E+10	1	-1E+10	1	-1E+10	1	-1E+10	1	-1E+10	1
4901784	151	C	08/23/2019	10:49	-132.520	43.153	0	1469.30	0	2.5930	0	36.4940	8	29.127	0	1452.500	0	25.0	4	7.8	4	-1E+10	1	-1E+10	1	-1E+10	1	-1E+10	1	-1E+10	1	-1E+10	1
4901784	151	C	08/23/2019	10:49	-132.520	43.153	0	1474.80	0	2.5870	0	36.4950	8	29.128	0	1457.918	0	25.2	4	7.8	4	-1E+10	1	-1E+10	1	-1E+10	1	-1E+10	1	-1E+10	1	-1E+10	1
4901784	151	C	08/23/2019	10:49	-132.520	43.153	0	1480.30	0	2.5770	0	36.4960	8	29.130	0	1463.336	0	25.5	4	7.9	4	-1E+10	1	-1E+10	1	-1E+10	1	-1E+10	1	-1E+10	1	-1E+10	1
4901784	151	C	08/23/2019	10:49	-132.520	43.153	0	1484.90	0	2.5680	0	36.4980	8	29.132	0	1467.867	0	25.6	4	7.9	4	-1E+10	1	-1E+10	1	-1E+10	1	-1E+10	1	-1E+10	1	-1E+10	1
4901784	151	C	08/23/2019	10:49	-132.520	43.153	0	1489.60	0	2.5650	0	36.4980	8	29.132	0	1472.497	0	25.7	4	8.0	4	-1E+10	1	-1E+10	1	-1E+10	1	-1E+10	1	-1E+10	1	-1E+10	1
4901784	151	C	08/23/2019	10:49	-132.520	43.153	0	1495.10	0	2.5640	0	36.4980	8	29.133	0	1477.915	0	25.8	4	8.0	4	-1E+10	1	-1E+10	1	-1E+10	1	-1E+10	1	-1E+10	1	-1E+10	1
4901784	151	C	08/23/2019	10:49	-132.520	43.153	0	1500.50	0	2.5570	0	36.4990	8	29.134	0	1483.234	0	26.0	4	8.1	4	-1E+10	1	-1E+10	1	-1E+10	1	-1E+10	1	-1E+10	1	-1E+10	1
4901784	151	C	08/23/2019	10:49	-132.520	43.153	0	1505.70	0	2.5510	0	36.4990	8	29.135	0	1488.355	0	26.2	4	8.1	4	-1E+10	1	-1E+10	1	-1E+10	1	-1E+10	1	-1E+10	1	-1E+10	1
4901784	151	C	08/23/2019	10:49	-132.520	43.153	0	1510.00	0	2.5450	0	36.5000	8	29.136	0	1492.591	0	26.4	4	8.2	4	-1E+10	1	-1E+10	1	-1E+10	1	-1E+10	1	-1E+10	1	-1E+10	1
4901784	151	C	08/23/2019	10:49	-132.520	43.153	0	1514.20	0	2.5380	0	36.5010	8	29.137	0	1496.727	0	26.6	4	8.2	4	-1E+10	1	-1E+10	1	-1E+10	1	-1E+10	1	-1E+10	1	-1E+10	1
4901784	151	C	08/23/2019	10:49	-132.520	43.153	0	1519.40	0	2.5330	0	36.5020	8	29.139	0	1501.849	0	26.8	4	8.3	4	-1E+10	1	-1E+10	1	-1E+10	1	-1E+10	1	-1E+10	1	-1E+10	1
4901784	151	C	08/23/2019	10:49	-132.520	43.153	0	1524.60	0	2.5270	0	36.5020	8	29.139	0	1506.970	0	27.1	4	8.4	4	-1E+10	1	-1E+10	1	-1E+10	1	-1E+10	1	-1E+10	1	-1E+10	1
4901784	151	C	08/23/2019	10:49	-132.520	43.153	0	1529.80	0	2.5160	0	36.5040	8	29.142	0	1512.092	0	27.5	4	8.5	4	-1E+10	1	-1E+10	1	-1E+10	1	-1E+10	1	-1E+10	1	-1E+10	1
4901784	151	C	08/23/2019	10:49	-132.520	43.153	0	1535.00	0	2.5020	0	36.5060	8	29.145	0	1517.213	0	27.9	4	8.6	4	-1E+10	1	-1E+10	1	-1E+10	1	-1E+10	1	-1E+10	1	-1E+10	1
4901784	151	C	08/23/2019	10:49	-132.520	43.153	0	1540.20	0	2.4950	0	36.5060	8	29.145	0	1522.334	0	28.3	4	8.8	4	-1E+10	1	-1E+10	1	-1E+10	1	-1E+10	1	-1E+10	1	-1E+10	1
4901784	151	C	08/23/2019	10:49	-132.520	43.153	0	1545.30	0	2.4850	0	36.5160	8	29.154	0	1527.356	0	28.6	4	8.9	4	-1E+10	1	-1E+10	1	-1E+10	1	-1E+10	1	-1E+10	1	-1E+10	1
4901784	151	C	08/23/2019	10:49	-132.520	43.153	0	1550.50	0	2.4790	0	36.5200	8	29.158	0	1532.477	0	28.8	4	8.9	4	-1E+10	1	-1E+10	1	-1E+10	1	-1E+10	1	-1E+10	1	-1E+10	1
4901784	151	C	08/23/2019	10:49	-132.520	43.153	0	1555.60	0	2.4700	0	36.5210	8	29.160	0	1537.499	0	29.0	4	9.0	4	-1E+10	1	-1E+10	1	-1E+10	1	-1E+10	1	-1E+10	1	-1E+10	1
4901784	151	C	08/23/2019	10:49	-132.520	43.153	0	1560.70	0	2.4620	0	36.5220	8	29.161	0	1542.521	0	29.2	4	9.0	4	-1E+10	1	-1E+10	1	-1E+10	1	-1E+10	1	-1E+10	1	-1E+10	1
4901784	151	C	08/23/2019	10:49	-132.520	43.153	0	1565.10	0	2.4570	0	36.5220	8	29.162	0	1546.854	0	29.5	4	9.1	4	-1E+10	1	-1E+10	1	-1E+10	1	-1E+10	1	-1E+10	1	-1E+10	1
4901784	151	C	08/23/2019	10:49	-132.520	43.153	0	1569.40	0	2.4460	0	36.5240	8	29.164	0	1551.088	0	29.9	4	9.2	4	-1E+10	1	-1E+10	1	-1E+10	1	-1E+10	1	-1E+10	1	-1E+10	1
4901784	151	C	08/23/2019	10:49	-132.520	43.153	0	1574.50	0	2.4340	0	36.5250	8	29.166	0	1556.110	0	30.4	4	9.4	4	-1E+10	1	-1E+10	1	-1E+10	1	-1E+10	1	-1E+10	1	-1E+10	1
4901784	151	C	08/23/2019	10:49	-132.520	43.153	0	1579.70	0	2.4170	0	36.5280	8	29.170	0	1561.230	0	30.9	4	9.6	4	-1E+10	1	-1E+10	1	-1E+10	1	-1E+10	1	-1E+10	1	-1E+10	1
4901784	151	C	08/23/2019	10:49	-132.520	43.153	0	1584.80	0	2.4100	0	36.5290	8	29.172	0	1566.252	0	31.4	4	9.7	4	-1E+10	1	-1E+10	1	-1E+10	1	-1E+10	1	-1E+10	1	-1E+10	1
4901784	151	C	08/23/2019	10:49	-132.520	43.153	0	1590.00	0	2.3970	0	36.5310	8	29.174	0	1571.371	0	32.0	4	9.9	4	-1E+10	1	-1E+10	1	-1E+10	1	-1E+10	1	-1E+10	1	-1E+10	1
4901784	151	C	08/23/2019	10:49	-132.520	43.153	0	1595.20	0	2.3860	0	36.5320	8	29.176	0	1576.491	0	32.6	4	10.1	4	-1E+10	1	-1E+10	1	-1E+10	1	-1E+10	1	-1E+10	1	-1E+10	1
4901784	151	C	08/23/2019	10:49	-132.520	43.153	0	1600.60	0	2.3770	0	36.5330	8	29.178	0	1581.808	0	33.0	4	10.2	4	-1E+10	1	-1E+10	1	-1E+10	1	-1E+10	1	-1E+10	1	-1E+10	1
4901784	151	C	08/23/2019	10:49	-132.520	43.153	0	1604.90	0	2.3680	0	36.5340	8	29.180	0	1586.041	0	33.4	4	10.3	4	-1E+10	1	-1E+10	1	-1E+10	1	-1E+10	1	-1E+10	1	-1E+10	1
4901784	151	C	08/23/2019	10:49	-132.520	43.153	0	1609.30	0	2.3600	0	36.5350	8	29.181	0	1590.373	0	33.8	4	10.4	4	-1E+10	1	-1E+10	1	-1E+10	1	-1E+10	1	-1E+10	1	-1E+10	1
4901784	151	C	08/23/2019	10:49	-132.520	43.153	0	1614.60	0	2.3440	0	36.5370	8	29.184	0	1595.591	0	34.2	4	10.6	4	-1E+10	1	-1E+10	1	-1E+10	1	-1E+10	1	-1E+10	1	-1E+10	1
4901784	151	C	08/23/2019	10:49	-132.520	43.153	0	1620.00	0	2.3330	0	36.5390	8	29.187	0	1600.907	0	34.6	4	10.7	4	-1E+10	1	-1E+10	1	-1E+10	1	-1E+10	1	-1E+10	1	-1E+10	1
4901784	151	C	08/23/2019	10:49	-132.520	43.153	0	1625.30	0	2.3230	0	36.5400	8	29.188	0	1606.124	0	35.1	4	10.8	4	-1E+10	1	-1E+10	1	-1E+10	1	-1E+10	1	-1E+10	1	-1E+10	1
4901784	151	C	08/23/2019	10:49	-132.520	43.153	0	1630.60	0	2.3090	0	36.5430	8	29.192	0	1611.341	0	35.5	4	10.9	4	-1E+10	1	-1E+10	1	-1E+10	1	-1E+10	1	-1E+10	1	-1E+10	1
4901784	151	C	08/23/2019	10:49	-132.520	43.153	0	1635.40	0	2.3040	0	36.5430	8	29.192	0	1616.066	0	35.7	4	11.0	4	-1E+10	1	-1E+10	1	-1E+10	1	-1E+10	1	-1E+10	1	-1E+10	1
4901784	151	C	08/23/2019	10:49	-132.520	43.153	0	1640.30	0	2.2980	0	36.5440	8	29.194	0	1620.890	0	36.0	4	11.1	4	-1E+10	1	-1E+10	1	-1E+10	1	-1E+10	1	-1E+10	1	-1E+10	1
4901784	151	C	08/23/2019	10:49	-132.520	43.153	0	1645.30	0	2.2950	0	36.5450	8	29.195	0	1625.811	0	36.3	4	11.2	4	-1E+10	1	-1E+10	1	-1E+10	1	-1E+10	1	-1E+10	1	-1E+10	1
4901784	151	C	08/23/2019	10:49	-132.520	43.153	0	1650.20	0	2.2870	0	36.5460	8	29.196	0	1630.634	0	36.6	4	11.3	4	-1E+10	1	-1E+10	1	-1E+10	1	-1E+10	1	-1E+10	1	-1E+10	1
4901784	151	C	08/23/2019	10:49	-132.520	43.153	0	1655.30	0	2.2770	0	36.5480	8	29.199	0	1635.654	0	37.0	4	11.4	4	-1E+10	1	-1E+10	1	-1E+10	1	-1E+10	1	-1E+10	1	-1E+10	1
4901784	151	C	08/23/2019	10:49	-132.520	43.153	0	1660.30	0	2.2710	0	36.5480	8	29.200	0	1640.576	0	37.3	4	11.5	4	-1E+10	1	-1E+10	1	-1E+10	1	-1E+10	1	-1E+10	1	-1E+10	1
4901784	151	C	08/23/2019	10:49	-132.520	43.153	0	1665.40	0	2.2690	0	36.5490	8	29.201	0	1645.595	0	37.5	4	11.5	4	-1E+10	1	-1E+10	1	-1E+10	1	-1E+10	1	-1E+10	1	-1E+10	1
4901784	151	C	08/23/2019	10:49	-132.520	43.153	0	1670.50	0	2.2620	0	36.5500	8	29.202	0	1650.615	0	37.7	4	11.6	4	-1E+10	1	-1E+10	1	-1E+10	1	-1E+10	1	-1E+10	1	-1E+10	1
4901784	151	C	08/23/2019	10:49	-132.520	43.153	0	1675.70	0	2.2570	0	36.5500	8	29.202	0	1655.733	0	38.0	4	11.7	4	-1E+10	1	-1E+10	1	-1E+10	1	-1E+10	1	-1E+10	1	-1E+10	1
4901784	151	C	08/23/2019	10:49	-132.520	43.153	0	1680.00	0	2.2540	0	36.5510	8	29.204	0	1659.964	0	38.3	4	11.8	4	-1E+10	1	-1E+10	1	-1E+10	1	-1E+10	1	-1E+10	1	-1E+10	1
4901784	151	C	08/23/2019	10:49	-132.520	43.153	0	1684.40	0	2.2470	0	36.5520	8	29.205	0	1664.295	0	38.7	4	11.9	4	-1E+10	1	-1E+10	1	-1E+10	1	-1E+10	1	-1E+10	1	-1E+10	1
4901784	151	C	08/23/2019	10:49	-132.520	43.153	0	1689.70	0	2.2410	0	36.5520	8	29.205	0	1669.511	0	39.1	4	12.0	4	-1E+10	1	-1E+10	1	-1E+10	1	-1E+10	1	-1E+10	1	-1E+10	1
4901784	151	C	08/23/2019	10:49	-132.520	43.153	0	1694.90	0	2.2340	0	36.5530	8	29.207	0	1674.628	0	39.5	4	12.2	4	-1E+10	1	-1E+10	1	-1E+10	1	-1E+10	1	-1E+10	1	-1E+10	1
4901784	151	C	08/23/2019	10:49	-132.520	43.153	0	1700.10	0	2.2280	0	36.5540	8	29.208	0	1679.745	0	39.9	4	12.3	4	-1E+10	1	-1E+10	1	-1E+10	1	-1E+10	1	-1E+10	1	-1E+10	1
4901784	151	C	08/23/2019	10:49	-132.520	43.153	0	1705.40	0	2.2170	0	36.5540	8	29.209	0	1684.961	0	40.5	4	12.5	4	-1E+10	1	-1E+10	1	-1E+10	1	-1E+10	1	-1E+10	1	-1E+10	1
4901784	151	C	08/23/2019	10:49	-132.520	43.153	0	1710.60	0	2.2090	0	36.5560	8	29.212	0	1690.078	0	40.9	4	12.6	4	-1E+10	1	-1E+10	1	-1E+10	1	-1E+10	1	-1E+10	1	-1E+10	1
4901784	151	C	08/23/2019	10:49	-132.520	43.153	0	1715.00	0	2.2010	0	36.5570	8	29.213	0	1694.407	0	41.3	4	12.7	4	-1E+10	1	-1E+10	1	-1E+10	1	-1E+10	1	-1E+10	1	-1E+10	1
4901784	151	C	08/23/2019	10:49	-132.520	43.153	0	1719.50	0	2.1980	0	36.5570	8	29.213	0	1698.835	0	41.5	4	12.8	4	-1E+10	1	-1E+10	1	-1E+10	1	-1E+10	1	-1E+10	1	-1E+10	1
4901784	151	C	08/23/2019	10:49	-132.520	43.153	0	1724.70	0	2.1890	0	36.5580	8	29.215	0	1703.952	0	42.0	4	12.9	4	-1E+10	1	-1E+10	1	-1E+10	1	-1E+10	1	-1E+10	1	-1E+10	1
4901784	151	C	08/23/2019	10:49	-132.520	43.153	0	1730.00	0	2.1830	0	36.5600	8	29.217	0	1709.167	0	42.3	4	13.0	4	-1E+10	1	-1E+10	1	-1E+10	1	-1E+10	1	-1E+10	1	-1E+10	1
4901784	151	C	08/23/2019	10:49	-132.520	43.153	0	1735.40	0	2.1770	0	36.5600	8	29.218	0	1714.480	0	42.7	4	13.1	4	-1E+10	1	-1E+10	1	-1E+10	1	-1E+10	1	-1E+10	1	-1E+10	1
4901784	151	C	08/23/2019	10:49	-132.520	43.153	0	1740.70	0	2.1690	0	36.5620	8	29.220	0	1719.695	0	43.1	4	13.2	4	-1E+10	1	-1E+10	1	-1E+10	1	-1E+10	1	-1E+10	1	-1E+10	1
4901784	151	C	08/23/2019	10:49	-132.520	43.153	0	1745.10	0	2.1640	0	36.5630	8	29.221	0	1724.024	0	43.4	4	13.3	4	-1E+10	1	-1E+10	1	-1E+10	1	-1E+10	1	-1E+10	1	-1E+10	1
4901784	151	C	08/23/2019	10:49	-132.520	43.153	0	1749.60	0	2.1600	0	36.5630	8	29.222	0	1728.451	0	43.6	4	13.4	4	-1E+10	1	-1E+10	1	-1E+10	1	-1E+10	1	-1E+10	1	-1E+10	1
4901784	151	C	08/23/2019	10:49	-132.520	43.153	0	1755.00	0	2.1540	0	36.5640	8	29.223	0	1733.764	0	44.0	4	13.5	4	-1E+10	1	-1E+10	1	-1E+10	1	-1E+10	1	-1E+10	1	-1E+10	1
4901784	151	C	08/23/2019	10:49	-132.520	43.153	0	1760.40	0	2.1470	0	36.5650	8	29.224	0	1739.076	0	44.3	4	13.6	4	-1E+10	1	-1E+10	1	-1E+10	1	-1E+10	1	-1E+10	1	-1E+10	1
4901784	151	C	08/23/2019	10:49	-132.520	43.153	0	1764.90	0	2.1440	0	36.5660	8	29.225	0	1743.503	0	44.5	4	13.7	4	-1E+10	1	-1E+10	1	-1E+10	1	-1E+10	1	-1E+10	1	-1E+10	1
4901784	151	C	08/23/2019	10:49	-132.520	43.153	0	1769.70	0	2.1400	0	36.5670	8	29.227	0	1748.225	0	44.8	4	13.8	4	-1E+10	1	-1E+10	1	-1E+10	1	-1E+10	1	-1E+10	1	-1E+10	1
4901784	151	C	08/23/2019	10:49	-132.520	43.153	0	1774.80	0	2.1350	0	36.5670	8	29.227	0	1753.242	0	45.2	4	13.9	4	-1E+10	1	-1E+10	1	-1E+10	1	-1E+10	1	-1E+10	1	-1E+10	1
4901784	151	C	08/23/2019	10:49	-132.520	43.153	0	1779.60	0	2.1290	0	36.5680	8	29.228	0	1757.964	0	45.5	4	14.0	4	-1E+10	1	-1E+10	1	-1E+10	1	-1E+10	1	-1E+10	1	-1E+10	1
4901784	151	C	08/23/2019	10:49	-132.520	43.153	0	1784.40	0	2.1220	0	36.5690	8	29.230	0	1762.686	0	45.9	4	14.1	4	-1E+10	1	-1E+10	1	-1E+10	1	-1E+10	1	-1E+10	1	-1E+10	1
4901784	151	C	08/23/2019	10:49	-132.520	43.153	0	1789.30	0	2.1160	0	36.5710	8	29.232	0	1767.506	0	46.2	4	14.2	4	-1E+10	1	-1E+10	1	-1E+10	1	-1E+10	1	-1E+10	1	-1E+10	1
4901784	151	C	08/23/2019	10:49	-132.520	43.153	0	1795.00	0	2.1120	0	36.5710	8	29.232	0	1773.113	0	46.5	4	14.3	4	-1E+10	1	-1E+10	1	-1E+10	1	-1E+10	1	-1E+10	1	-1E+10	1
4901784	151	C	08/23/2019	10:49	-132.520	43.153	0	1800.70	0	2.1070	0	36.5720	8	29.234	0	1778.719	0	46.9	4	14.4	4	-1E+10	1	-1E+10	1	-1E+10	1	-1E+10	1	-1E+10	1	-1E+10	1
4901784	151	C	08/23/2019	10:49	-132.520	43.153	0	1805.70	0	2.1000	0	36.5730	8	29.235	0	1783.637	0	47.2	4	14.5	4	-1E+10	1	-1E+10	1	-1E+10	1	-1E+10	1	-1E+10	1	-1E+10	1
4901784	151	C	08/23/2019	10:49	-132.520	43.153	0	1810.60	0	2.0980	0	36.5730	8	29.235	0	1788.457	0	47.4	4	14.5	4	-1E+10	1	-1E+10	1	-1E+10	1	-1E+10	1	-1E+10	1	-1E+10	1
4901784	151	C	08/23/2019	10:49	-132.520	43.153	0	1815.60	0	2.0930	0	36.5740	8	29.237	0	1793.375	0	47.6	4	14.6	4	-1E+10	1	-1E+10	1	-1E+10	1	-1E+10	1	-1E+10	1	-1E+10	1
4901784	151	C	08/23/2019	10:49	-132.520	43.153	0	1820.60	0	2.0870	0	36.5740	8	29.237	0	1798.292	0	47.9	4	14.7	4	-1E+10	1	-1E+10	1	-1E+10	1	-1E+10	1	-1E+10	1	-1E+10	1
4901784	151	C	08/23/2019	10:49	-132.520	43.153	0	1825.70	0	2.0800	0	36.5750	8	29.238	0	1803.308	0	48.2	4	14.8	4	-1E+10	1	-1E+10	1	-1E+10	1	-1E+10	1	-1E+10	1	-1E+10	1
4901784	151	C	08/23/2019	10:49	-132.520	43.153	0	1830.00	0	2.0760	0	36.5760	8	29.240	0	1807.537	0	48.6	4	14.9	4	-1E+10	1	-1E+10	1	-1E+10	1	-1E+10	1	-1E+10	1	-1E+10	1
4901784	151	C	08/23/2019	10:49	-132.520	43.153	0	1834.30	0	2.0710	0	36.5760	8	29.240	0	1811.766	0	48.8	4	15.0	4	-1E+10	1	-1E+10	1	-1E+10	1	-1E+10	1	-1E+10	1	-1E+10	1
4901784	151	C	08/23/2019	10:49	-132.520	43.153	0	1839.40	0	2.0670	0	36.5770	8	29.241	0	1816.782	0	49.1	4	15.1	4	-1E+10	1	-1E+10	1	-1E+10	1	-1E+10	1	-1E+10	1	-1E+10	1
4901784	151	C	08/23/2019	10:49	-132.520	43.153	0	1844.60	0	2.0630	0	36.5770	8	29.242	0	1821.895	0	49.4	4	15.2	4	-1E+10	1	-1E+10	1	-1E+10	1	-1E+10	1	-1E+10	1	-1E+10	1
4901784	151	C	08/23/2019	10:49	-132.520	43.153	0	1849.80	0	2.0550	0	36.5790	8	29.244	0	1827.009	0	49.8	4	15.3	4	-1E+10	1	-1E+10	1	-1E+10	1	-1E+10	1	-1E+10	1	-1E+10	1
4901784	151	C	08/23/2019	10:49	-132.520	43.153	0	1855.10	0	2.0500	0	36.5790	8	29.244	0	1832.221	0	50.1	4	15.4	4	-1E+10	1	-1E+10	1	-1E+10	1	-1E+10	1	-1E+10	1	-1E+10	1
4901784	151	C	08/23/2019	10:49	-132.520	43.153	0	1860.30	0	2.0460	0	36.5800	8	29.246	0	1837.334	0	50.5	4	15.5	4	-1E+10	1	-1E+10	1	-1E+10	1	-1E+10	1	-1E+10	1	-1E+10	1
4901784	151	C	08/23/2019	10:49	-132.520	43.153	0	1865.50	0	2.0430	0	36.5810	8	29.247	0	1842.448	0	50.9	4	15.6	4	-1E+10	1	-1E+10	1	-1E+10	1	-1E+10	1	-1E+10	1	-1E+10	1
4901784	151	C	08/23/2019	10:49	-132.520	43.153	0	1870.70	0	2.0350	0	36.5830	8	29.249	0	1847.561	0	51.2	4	15.7	4	-1E+10	1	-1E+10	1	-1E+10	1	-1E+10	1	-1E+10	1	-1E+10	1
4901784	151	C	08/23/2019	10:49	-132.520	43.153	0	1875.20	0	2.0350	0	36.5840	8	29.250	0	1851.986	0	51.5	4	15.8	4	-1E+10	1	-1E+10	1	-1E+10	1	-1E+10	1	-1E+10	1	-1E+10	1
4901784	151	C	08/23/2019	10:49	-132.520	43.153	0	1879.60	0	2.0330	0	36.5840	8	29.250	0	1856.312	0	51.7	4	15.8	4	-1E+10	1	-1E+10	1	-1E+10	1	-1E+10	1	-1E+10	1	-1E+10	1
4901784	151	C	08/23/2019	10:49	-132.520	43.153	0	1884.90	0	2.0220	0	36.5840	8	29.251	0	1861.523	0	51.9	4	15.9	4	-1E+10	1	-1E+10	1	-1E+10	1	-1E+10	1	-1E+10	1	-1E+10	1
4901784	151	C	08/23/2019	10:49	-132.520	43.153	0	1890.20	0	2.0190	0	36.5850	8	29.252	0	1866.734	0	52.3	4	16.0	4	-1E+10	1	-1E+10	1	-1E+10	1	-1E+10	1	-1E+10	1	-1E+10	1
4901784	151	C	08/23/2019	10:49	-132.520	43.153	0	1895.60	0	2.0170	0	36.5860	8	29.253	0	1872.043	0	52.6	4	16.1	4	-1E+10	1	-1E+10	1	-1E+10	1	-1E+10	1	-1E+10	1	-1E+10	1
4901784	151	C	08/23/2019	10:49	-132.520	43.153	0	1900.00	0	2.0130	0	36.5870	8	29.254	0	1876.369	0	52.9	4	16.2	4	-1E+10	1	-1E+10	1	-1E+10	1	-1E+10	1	-1E+10	1	-1E+10	1
4901784	151	C	08/23/2019	10:49	-132.520	43.153	0	1904.50	0	2.0100	0	36.5870	8	29.254	0	1880.793	0	53.1	4	16.3	4	-1E+10	1	-1E+10	1	-1E+10	1	-1E+10	1	-1E+10	1	-1E+10	1
4901784	151	C	08/23/2019	10:49	-132.520	43.153	0	1909.90	0	2.0040	0	36.5880	8	29.256	0	1886.102	0	53.4	4	16.4	4	-1E+10	1	-1E+10	1	-1E+10	1	-1E+10	1	-1E+10	1	-1E+10	1
4901784	151	C	08/23/2019	10:49	-132.520	43.153	0	1915.20	0	1.9980	0	36.5890	8	29.257	0	1891.313	0	53.7	4	16.5	4	-1E+10	1	-1E+10	1	-1E+10	1	-1E+10	1	-1E+10	1	-1E+10	1
4901784	151	C	08/23/2019	10:49	-132.520	43.153	0	1920.50	0	1.9920	0	36.5890	8	29.258	0	1896.523	0	54.0	4	16.5	4	-1E+10	1	-1E+10	1	-1E+10	1	-1E+10	1	-1E+10	1	-1E+10	1
4901784	151	C	08/23/2019	10:49	-132.520	43.153	0	1925.30	0	1.9880	0	36.5900	8	29.259	0	1901.242	0	54.3	4	16.6	4	-1E+10	1	-1E+10	1	-1E+10	1	-1E+10	1	-1E+10	1	-1E+10	1
4901784	151	C	08/23/2019	10:49	-132.520	43.153	0	1930.10	0	1.9850	0	36.5910	8	29.260	0	1905.960	0	54.5	4	16.7	4	-1E+10	1	-1E+10	1	-1E+10	1	-1E+10	1	-1E+10	1	-1E+10	1
4901784	151	C	08/23/2019	10:49	-132.520	43.153	0	1934.90	0	1.9810	0	36.5910	8	29.260	0	1910.679	0	54.8	4	16.8	4	-1E+10	1	-1E+10	1	-1E+10	1	-1E+10	1	-1E+10	1	-1E+10	1
4901784	151	C	08/23/2019	10:49	-132.520	43.153	0	1939.80	0	1.9750	0	36.5920	8	29.262	0	1915.495	0	55.1	4	16.9	4	-1E+10	1	-1E+10	1	-1E+10	1	-1E+10	1	-1E+10	1	-1E+10	1
4901784	151	C	08/23/2019	10:49	-132.520	43.153	0	1944.70	0	1.9720	0	36.5930	8	29.263	0	1920.312	0	55.3	4	16.9	4	-1E+10	1	-1E+10	1	-1E+10	1	-1E+10	1	-1E+10	1	-1E+10	1
4901784	151	C	08/23/2019	10:49	-132.520	43.153	0	1949.60	0	1.9680	0	36.5930	8	29.263	0	1925.128	0	55.6	4	17.0	4	-1E+10	1	-1E+10	1	-1E+10	1	-1E+10	1	-1E+10	1	-1E+10	1
4901784	151	C	08/23/2019	10:49	-132.520	43.153	0	1954.50	0	1.9650	0	36.5930	8	29.263	0	1929.945	0	55.9	4	17.1	4	-1E+10	1	-1E+10	1	-1E+10	1	-1E+10	1	-1E+10	1	-1E+10	1
4901784	151	C	08/23/2019	10:49	-132.520	43.153	0	1959.50	0	1.9600	0	36.5940	8	29.265	0	1934.859	0	56.2	4	17.2	4	-1E+10	1	-1E+10	1	-1E+10	1	-1E+10	1	-1E+10	1	-1E+10	1
4901784	151	C	08/23/2019	10:49	-132.520	43.153	0	1964.50	0	1.9560	0	36.5950	8	29.266	0	1939.773	0	56.5	4	17.3	4	-1E+10	1	-1E+10	1	-1E+10	1	-1E+10	1	-1E+10	1	-1E+10	1
4901784	151	C	08/23/2019	10:49	-132.520	43.153	0	1969.50	0	1.9520	0	36.5960	8	29.267	0	1944.688	0	56.9	4	17.4	4	-1E+10	1	-1E+10	1	-1E+10	1	-1E+10	1	-1E+10	1	-1E+10	1
4901784	151	C	08/23/2019	10:49	-132.520	43.153	0	1974.50	0	1.9470	0	36.5970	8	29.268	0	1949.602	0	57.2	4	17.5	4	-1E+10	1	-1E+10	1	-1E+10	1	-1E+10	1	-1E+10	1	-1E+10	1
4901784	151	C	08/23/2019	10:49	-132.520	43.153	0	1979.60	0	1.9430	0	36.5970	8	29.268	0	1954.614	0	57.5	4	17.6	4	-1E+10	1	-1E+10	1	-1E+10	1	-1E+10	1	-1E+10	1	-1E+10	1
4901784	151	C	08/23/2019	10:49	-132.520	43.153	0	1984.80	0	1.9400	0	36.5980	8	29.270	0	1959.725	0	57.8	4	17.7	4	-1E+10	1	-1E+10	1	-1E+10	1	-1E+10	1	-1E+10	1	-1E+10	1
4901784	151	C	08/23/2019	10:49	-132.520	43.153	0	1989.90	0	1.9370	0	36.5990	8	29.271	0	1964.737	0	58.0	4	17.7	4	-1E+10	1	-1E+10	1	-1E+10	1	-1E+10	1	-1E+10	1	-1E+10	1
4901784	151	C	08/23/2019	10:49	-132.520	43.153	0	1995.00	0	1.9350	0	36.5990	8	29.271	0	1969.749	0	58.1	4	17.8	4	-1E+10	1	-1E+10	1	-1E+10	1	-1E+10	1	-1E+10	1	-1E+10	1
4901784	151	C	08/23/2019	10:49	-132.520	43.153	0	2000.10	0	1.9320	0	36.6000	8	29.272	0	1974.760	0	58.4	4	17.8	4	-1E+10	1	-1E+10	1	-1E+10	1	-1E+10	1	-1E+10	1	-1E+10	1
4901784	151	C	08/23/2019	10:49	-132.520	43.153	0	2005.20	0	1.9300	0	36.6010	8	29.273	0	1979.772	0	58.6	4	17.9	4	-1E+10	1	-1E+10	1	-1E+10	1	-1E+10	1	-1E+10	1	-1E+10	1
4901784	151	C	08/23/2019	10:49	-132.520	43.153	0	2010.20	0	1.9280	0	36.6010	8	29.273	0	1984.685	0	58.7	4	18.0	4	-1E+10	1	-1E+10	1	-1E+10	1	-1E+10	1	-1E+10	1	-1E+10	1
4901784	151	C	08/23/2019	10:49	-132.520	43.153	0	2014.90	0	1.9260	0	36.6020	8	29.274	0	1989.304	0	58.9	4	18.0	4	-1E+10	1	-1E+10	1	-1E+10	1	-1E+10	1	-1E+10	1	-1E+10	1
4901784	151	C	08/23/2019	10:49	-132.520	43.153	0	2020.30	0	1.9240	0	36.6020	8	29.274	0	1994.610	0	58.9	4	18.0	4	-1E+10	1	-1E+10	1	-1E+10	1	-1E+10	1	-1E+10	1	-1E+10	1
4901784	151	C	08/23/2019	10:49	-132.520	43.153	0																										
4901784	152	C	09/02/2019	10:47	-132.656	43.252	0	2.60	0	20.4410	0	34.4520	8	24.228	0	2.579	0	215.7	4	96.0	4	-1E+10	1	-1E+10	1	-1E+10	1	-1E+10	1	-1E+10	1	-1E+10	1
4901784	152	C	09/02/2019	10:47	-132.656	43.252	0	4.20	0	20.4280	0	34.4490	8	24.230	0	4.167	0	215.4	4	95.9	4	-1E+10	1	-1E+10	1	-1E+10	1	-1E+10	1	-1E+10	1	-1E+10	1
4901784	152	C	09/02/2019	10:47	-132.656	43.252	0	5.70	0	20.3720	0	34.4460	8	24.242	0	5.655	0	215.6	4	95.9	4	-1E+10	1	-1E+10	1	-1E+10	1	-1E+10	1	-1E+10	1	-1E+10	1
4901784	152	C	09/02/2019	10:47	-132.656	43.252	0	7.80	0	20.2640	0	34.4490	8	24.273	0	7.738	0	215.7	4	95.7	4	-1E+10	1	-1E+10	1	-1E+10	1	-1E+10	1	-1E+10	1	-1E+10	1
4901784	152	C	09/02/2019	10:47	-132.656	43.252	0	9.50	0	20.2570	0	34.4460	8	24.273	0	9.424	0	215.7	4	95.7	4	-1E+10	1	-1E+10	1	-1E+10	1	-1E+10	1	-1E+10	1	-1E+10	1
4901784	152	C	09/02/2019	10:47	-132.656	43.252	0	10.80	0	20.2520	0	34.4440	8	24.273	0	10.714	0	215.9	4	95.8	4	-1E+10	1	-1E+10	1	-1E+10	1	-1E+10	1	-1E+10	1	-1E+10	1
4901784	152	C	09/02/2019	10:47	-132.656	43.252	0	12.10	0	20.2450	0	34.4390	8	24.271	0	12.003	0	216.0	4	95.9	4	-1E+10	1	-1E+10	1	-1E+10	1	-1E+10	1	-1E+10	1	-1E+10	1
4901784	152	C	09/02/2019	10:47	-132.656	43.252	0	13.40	0	20.2400	0	34.4340	8	24.269	0	13.293	0	216.4	4	96.0	4	-1E+10	1	-1E+10	1	-1E+10	1	-1E+10	1	-1E+10	1	-1E+10	1
4901784	152	C	09/02/2019	10:47	-132.656	43.252	0	14.50	0	20.2330	0	34.4270	8	24.265	0	14.384	0	216.8	4	96.2	4	-1E+10	1	-1E+10	1	-1E+10	1	-1E+10	1	-1E+10	1	-1E+10	1
4901784	152	C	09/02/2019	10:47	-132.656	43.252	0	15.90	0	20.1730	0	34.4140	8	24.271	0	15.773	0	218.6	4	96.8	4	-1E+10	1	-1E+10	1	-1E+10	1	-1E+10	1	-1E+10	1	-1E+10	1
4901784	152	C	09/02/2019	10:47	-132.656	43.252	0	16.80	0	19.9440	0	34.4120	8	24.330	0	16.666	0	221.3	4	97.6	4	-1E+10	1	-1E+10	1	-1E+10	1	-1E+10	1	-1E+10	1	-1E+10	1
4901784	152	C	09/02/2019	10:47	-132.656	43.252	0	18.00	0	19.7310	0	34.3920	8	24.370	0	17.856	0	225.0	4	98.9	4	-1E+10	1	-1E+10	1	-1E+10	1	-1E+10	1	-1E+10	1	-1E+10	1
4901784	152	C	09/02/2019	10:47	-132.656	43.252	0	19.20	0	19.4390	0	34.3550	8	24.418	0	19.046	0	230.5	4	100.7	4	-1E+10	1	-1E+10	1	-1E+10	1	-1E+10	1	-1E+10	1	-1E+10	1
4901784	152	C	09/02/2019	10:47	-132.656	43.252	0	20.30	0	19.1500	0	34.3100	8	24.458	0	20.137	0	235.1	4	102.2	4	-1E+10	1	-1E+10	1	-1E+10	1	-1E+10	1	-1E+10	1	-1E+10	1
4901784	152	C	09/02/2019	10:47	-132.656	43.252	0	21.60	0	17.2560	0	34.3170	8	24.931	0	21.427	0	245.4	4	102.9	4	-1E+10	1	-1E+10	1	-1E+10	1	-1E+10	1	-1E+10	1	-1E+10	1
4901784	152	C	09/02/2019	10:47	-132.656	43.252	0	23.00	0	15.9890	0	34.3770	8	25.273	0	22.816	0	255.7	4	104.8	4	-1E+10	1	-1E+10	1	-1E+10	1	-1E+10	1	-1E+10	1	-1E+10	1
4901784	152	C	09/02/2019	10:47	-132.656	43.252	0	24.60	0	15.4080	0	34.3840	8	25.409	0	24.403	0	258.9	4	104.9	4	-1E+10	1	-1E+10	1	-1E+10	1	-1E+10	1	-1E+10	1	-1E+10	1
4901784	152	C	09/02/2019	10:47	-132.656	43.252	0	26.10	0	15.0080	0	34.3850	8	25.498	0	25.891	0	261.1	4	104.9	4	-1E+10	1	-1E+10	1	-1E+10	1	-1E+10	1	-1E+10	1	-1E+10	1
4901784	152	C	09/02/2019	10:47	-132.656	43.252	0	27.70	0	14.6360	0	34.3790	8	25.574	0	27.478	0	262.9	4	104.9	4	-1E+10	1	-1E+10	1	-1E+10	1	-1E+10	1	-1E+10	1	-1E+10	1
4901784	152	C	09/02/2019	10:47	-132.656	43.252	0	29.60	0	13.7520	0	34.4060	8	25.781	0	29.362	0	266.1	4	104.3	4	-1E+10	1	-1E+10	1	-1E+10	1	-1E+10	1	-1E+10	1	-1E+10	1
4901784	152	C	09/02/2019	10:47	-132.656	43.252	0	31.40	0	13.2240	0	34.4220	8	25.902	0	31.148	0	268.5	4	104.2	4	-1E+10	1	-1E+10	1	-1E+10	1	-1E+10	1	-1E+10	1	-1E+10	1
4901784	152	C	09/02/2019	10:47	-132.656	43.252	0	33.30	0	13.0160	0	34.4270	8	25.947	0	33.032	0	268.8	4	103.8	4	-1E+10	1	-1E+10	1	-1E+10	1	-1E+10	1	-1E+10	1	-1E+10	1
4901784	152	C	09/02/2019	10:47	-132.656	43.252	0	35.20	0	12.8550	0	34.4330	8	25.984	0	34.917	0	269.3	4	103.7	4	-1E+10	1	-1E+10	1	-1E+10	1	-1E+10	1	-1E+10	1	-1E+10	1
4901784	152	C	09/02/2019	10:47	-132.656	43.252	0	37.20	0	12.8110	0	34.4330	8	25.993	0	36.901	0	269.1	4	103.5	4	-1E+10	1	-1E+10	1	-1E+10	1	-1E+10	1	-1E+10	1	-1E+10	1
4901784	152	C	09/02/2019	10:47	-132.656	43.252	0	39.10	0	12.7430	0	34.4280	8	26.002	0	38.785	0	268.8	4	103.3	4	-1E+10	1	-1E+10	1	-1E+10	1	-1E+10	1	-1E+10	1	-1E+10	1
4901784	152	C	09/02/2019	10:47	-132.656	43.252	0	41.10	0	12.6280	0	34.4280	8	26.025	0	40.769	0	268.6	4	102.9	4	-1E+10	1	-1E+10	1	-1E+10	1	-1E+10	1	-1E+10	1	-1E+10	1
4901784	152	C	09/02/2019	10:47	-132.656	43.252	0	43.10	0	12.5520	0	34.4230	8	26.036	0	42.753	0	268.4	4	102.7	4	-1E+10	1	-1E+10	1	-1E+10	1	-1E+10	1	-1E+10	1	-1E+10	1
4901784	152	C	09/02/2019	10:47	-132.656	43.252	0	45.10	0	12.3420	0	34.4340	8	26.086	0	44.736	0	268.9	4	102.4	4	-1E+10	1	-1E+10	1	-1E+10	1	-1E+10	1	-1E+10	1	-1E+10	1
4901784	152	C	09/02/2019	10:47	-132.656	43.252	0	47.00	0	12.2390	0	34.4290	8	26.102	0	46.621	0	269.0	4	102.3	4	-1E+10	1	-1E+10	1	-1E+10	1	-1E+10	1	-1E+10	1	-1E+10	1
4901784	152	C	09/02/2019	10:47	-132.656	43.252	0	49.00	0	12.1290	0	34.4270	8	26.121	0	48.604	0	268.8	4	102.0	4	-1E+10	1	-1E+10	1	-1E+10	1	-1E+10	1	-1E+10	1	-1E+10	1
4901784	152	C	09/02/2019	10:47	-132.656	43.252	0	51.00	0	11.9370	0	34.4320	8	26.162	0	50.588	0	269.2	4	101.7	4	-1E+10	1	-1E+10	1	-1E+10	1	-1E+10	1	-1E+10	1	-1E+10	1
4901784	152	C	09/02/2019	10:47	-132.656	43.252	0	53.10	0	11.8030	0	34.4280	8	26.184	0	52.671	0	269.1	4	101.4	4	-1E+10	1	-1E+10	1	-1E+10	1	-1E+10	1	-1E+10	1	-1E+10	1
4901784	152	C	09/02/2019	10:47	-132.656	43.252	0	55.10	0	11.5340	0	34.4370	8	26.241	0	54.654	0	269.6	4	101.0	4	-1E+10	1	-1E+10	1	-1E+10	1	-1E+10	1	-1E+10	1	-1E+10	1
4901784	152	C	09/02/2019	10:47	-132.656	43.252	0	57.10	0	11.4330	0	34.4380	8	26.261	0	56.638	0	269.2	4	100.6	4	-1E+10	1	-1E+10	1	-1E+10	1	-1E+10	1	-1E+10	1	-1E+10	1
4901784	152	C	09/02/2019	10:47	-132.656	43.252	0	59.10	0	11.2600	0	34.4400	8	26.294	0	58.621	0	269.2	4	100.3	4	-1E+10	1	-1E+10	1	-1E+10	1	-1E+10	1	-1E+10	1	-1E+10	1
4901784	152	C	09/02/2019	10:47	-132.656	43.252	0	61.00	0	11.0980	0	34.4410	8	26.324	0	60.506	0	268.4	4	99.6	4	-1E+10	1	-1E+10	1	-1E+10	1	-1E+10	1	-1E+10	1	-1E+10	1
4901784	152	C	09/02/2019	10:47	-132.656	43.252	0	63.10	0	11.0010	0	34.4420	8	26.343	0	62.588	0	267.6	4	99.1	4	-1E+10	1	-1E+10	1	-1E+10	1	-1E+10	1	-1E+10	1	-1E+10	1
4901784	152	C	09/02/2019	10:47	-132.656	43.252	0	65.10	0	10.9150	0	34.4440	8	26.360	0	64.572	0	265.6	4	98.2	4	-1E+10	1	-1E+10	1	-1E+10	1	-1E+10	1	-1E+10	1	-1E+10	1
4901784	152	C	09/02/2019	10:47	-132.656	43.252	0	67.10	0	10.8210	0	34.4440	8	26.377	0	66.555	0	263.6	4	97.3	4	-1E+10	1	-1E+10	1	-1E+10	1	-1E+10	1	-1E+10	1	-1E+10	1
4901784	152	C	09/02/2019	10:47	-132.656	43.252	0	69.20	0	10.7470	0	34.4440	8	26.390	0	68.638	0	261.5	4	96.4	4	-1E+10	1	-1E+10	1	-1E+10	1	-1E+10	1	-1E+10	1	-1E+10	1
4901784	152	C	09/02/2019	10:47	-132.656	43.252	0	71.30	0	10.6710	0	34.4390	8	26.399	0	70.720	0	259.2	4	95.4	4	-1E+10	1	-1E+10	1	-1E+10	1	-1E+10	1	-1E+10	1	-1E+10	1
4901784	152	C	09/02/2019	10:47	-132.656	43.252	0	73.30	0	10.5190	0	34.4440	8	26.430	0	72.704	0	257.2	4	94.3	4	-1E+10	1	-1E+10	1	-1E+10	1	-1E+10	1	-1E+10	1	-1E+10	1
4901784	152	C	09/02/2019	10:47	-132.656	43.252	0	75.10	0	10.4330	0	34.4360	8	26.439	0	74.489	0	256.2	4	93.8	4	-1E+10	1	-1E+10	1	-1E+10	1	-1E+10	1	-1E+10	1	-1E+10	1
4901784	152	C	09/02/2019	10:47	-132.656	43.252	0	77.10	0	10.2630	0	34.4370	8	26.469	0	76.472	0	255.6	4	93.2	4	-1E+10	1	-1E+10	1	-1E+10	1	-1E+10	1	-1E+10	1	-1E+10	1
4901784	152	C	09/02/2019	10:47	-132.656	43.252	0	79.10	0	10.2340	0	34.4330	8	26.471	0	78.456	0	254.7	4	92.9	4	-1E+10	1	-1E+10	1	-1E+10	1	-1E+10	1	-1E+10	1	-1E+10	1
4901784	152	C	09/02/2019	10:47	-132.656	43.252	0	81.00	0	10.1750	0	34.4300	8	26.479	0	80.340	0	254.2	4	92.5	4	-1E+10	1	-1E+10	1	-1E+10	1	-1E+10	1	-1E+10	1	-1E+10	1
4901784	152	C	09/02/2019	10:47	-132.656	43.252	0	83.00	0	10.1090	0	34.4250	8	26.486	0	82.323	0	253.8	4	92.2	4	-1E+10	1	-1E+10	1	-1E+10	1	-1E+10	1	-1E+10	1	-1E+10	1
4901784	152	C	09/02/2019	10:47	-132.656	43.252	0	84.90	0	10.0570	0	34.4230	8	26.494	0	84.207	0	253.4	4	92.0	4	-1E+10	1	-1E+10	1	-1E+10	1	-1E+10	1	-1E+10	1	-1E+10	1
4901784	152	C	09/02/2019	10:47	-132.656	43.252	0	86.90	0	10.0060	0	34.4170	8	26.498	0	86.190	0	253.3	4	91.9	4	-1E+10	1	-1E+10	1	-1E+10	1	-1E+10	1	-1E+10	1	-1E+10	1
4901784	152	C	09/02/2019	10:47	-132.656	43.252	0	88.90	0	9.9690	0	34.4130	8	26.501	0	88.174	0	252.9	4	91.6	4	-1E+10	1	-1E+10	1	-1E+10	1	-1E+10	1	-1E+10	1	-1E+10	1
4901784	152	C	09/02/2019	10:47	-132.656	43.252	0	90.80	0	9.9080	0	34.4070	8	26.507	0	90.058	0	252.7	4	91.5	4	-1E+10	1	-1E+10	1	-1E+10	1	-1E+10	1	-1E+10	1	-1E+10	1
4901784	152	C	09/02/2019	10:47	-132.656	43.252	0	92.70	0	9.8400	0	34.4030	8	26.515	0	91.942	0	252.7	4	91.3	4	-1E+10	1	-1E+10	1	-1E+10	1	-1E+10	1	-1E+10	1	-1E+10	1
4901784	152	C	09/02/2019	10:47	-132.656	43.252	0	94.60	0	9.7930	0	34.4000	8	26.521	0	93.826	0	252.5	4	91.1	4	-1E+10	1	-1E+10	1	-1E+10	1	-1E+10	1	-1E+10	1	-1E+10	1
4901784	152	C	09/02/2019	10:47	-132.656	43.252	0	96.50	0	9.7520	0	34.3980	8	26.526	0	95.710	0	252.3	4	91.0	4	-1E+10	1	-1E+10	1	-1E+10	1	-1E+10	1	-1E+10	1	-1E+10	1
4901784	152	C	09/02/2019	10:47	-132.656	43.252	0	98.50	0	9.7310	0	34.3960	8	26.528	0	97.693	0	252.1	4	90.9	4	-1E+10	1	-1E+10	1	-1E+10	1	-1E+10	1	-1E+10	1	-1E+10	1
4901784	152	C	09/02/2019	10:47	-132.656	43.252	0	100.30	0	9.7060	0	34.3930	8	26.530	0	99.478	0	251.7	4	90.7	4	-1E+10	1	-1E+10	1	-1E+10	1	-1E+10	1	-1E+10	1	-1E+10	1
4901784	152	C	09/02/2019	10:47	-132.656	43.252	0	102.70	0	9.6680	0	34.3920	8	26.535	0	101.857	0	250.9	4	90.3	4	-1E+10	1	-1E+10	1	-1E+10	1	-1E+10	1	-1E+10	1	-1E+10	1
4901784	152	C	09/02/2019	10:47	-132.656	43.252	0	105.40	0	9.6320	0	34.3910	8	26.541	0	104.535	0	249.7	4	89.8	4	-1E+10	1	-1E+10	1	-1E+10	1	-1E+10	1	-1E+10	1	-1E+10	1
4901784	152	C	09/02/2019	10:47	-132.656	43.252	0	107.80	0	9.6150	0	34.3880	8	26.541	0	106.914	0	248.3	4	89.3	4	-1E+10	1	-1E+10	1	-1E+10	1	-1E+10	1	-1E+10	1	-1E+10	1
4901784	152	C	09/02/2019	10:47	-132.656	43.252	0	110.20	0	9.5470	0	34.3930	8	26.556	0	109.294	0	245.5	4	88.2	4	-1E+10	1	-1E+10	1	-1E+10	1	-1E+10	1	-1E+10	1	-1E+10	1
4901784	152	C	09/02/2019	10:47	-132.656	43.252	0	113.10	0	9.4190	0	34.4170	8	26.596	0	112.169	0	242.3	4	86.8	4	-1E+10	1	-1E+10	1	-1E+10	1	-1E+10	1	-1E+10	1	-1E+10	1
4901784	152	C	09/02/2019	10:47	-132.656	43.252	0	115.40	0	9.2480	0	34.4580	8	26.656	0	114.450	0	238.7	4	85.2	4	-1E+10	1	-1E+10	1	-1E+10	1	-1E+10	1	-1E+10	1	-1E+10	1
4901784	152	C	09/02/2019	10:47	-132.656	43.252	0	118.00	0	8.9190	0	34.5510	8	26.782	0	117.028	0	236.4	4	83.8	4	-1E+10	1	-1E+10	1	-1E+10	1	-1E+10	1	-1E+10	1	-1E+10	1
4901784	152	C	09/02/2019	10:47	-132.656	43.252	0	120.10	0	8.8980	0	34.5510	8	26.785	0	119.110	0	233.7	4	82.8	4	-1E+10	1	-1E+10	1	-1E+10	1	-1E+10	1	-1E+10	1	-1E+10	1
4901784	152	C	09/02/2019	10:47	-132.656	43.252	0	122.40	0	8.7500	0	34.6560	8	26.891	0	121.390	0	230.8	4	81.6	4	-1E+10	1	-1E+10	1	-1E+10	1	-1E+10	1	-1E+10	1	-1E+10	1
4901784	152	C	09/02/2019	10:47	-132.656	43.252	0	124.70	0	8.6170	0	34.7100	8	26.954	0	123.670	0	229.1	4	80.8	4	-1E+10	1	-1E+10	1	-1E+10	1	-1E+10	1	-1E+10	1	-1E+10	1
4901784	152	C	09/02/2019	10:47	-132.656	43.252	0	127.10	0	8.5460	0	34.7570	8	27.002	0	126.050	0	227.2	4	80.0	4	-1E+10	1	-1E+10	1	-1E+10	1	-1E+10	1	-1E+10	1	-1E+10	1
4901784	152	C	09/02/2019	10:47	-132.656	43.252	0	129.60	0	8.4230	0	34.8180	8	27.069	0	128.528	0	225.6	4	79.3	4	-1E+10	1	-1E+10	1	-1E+10	1	-1E+10	1	-1E+10	1	-1E+10	1
4901784	152	C	09/02/2019	10:47	-132.656	43.252	0	132.30	0	8.2910	0	34.8830	8	27.140	0	131.205	0	224.3	4	78.6	4	-1E+10	1	-1E+10	1	-1E+10	1	-1E+10	1	-1E+10	1	-1E+10	1
4901784	152	C	09/02/2019	10:47	-132.656	43.252	0	134.90	0	8.2070	0	34.9260	8	27.187	0	133.783	0	222.9	4	78.0	4	-1E+10	1	-1E+10	1	-1E+10	1	-1E+10	1	-1E+10	1	-1E+10	1
4901784	152	C	09/02/2019	10:47	-132.656	43.252	0	137.00	0	8.1220	0	34.9860	8	27.247	0	135.865	0	221.6	4	77.4	4	-1E+10	1	-1E+10	1	-1E+10	1	-1E+10	1	-1E+10	1	-1E+10	1
4901784	152	C	09/02/2019	10:47	-132.656	43.252	0	139.90	0	8.0540	0	35.0400	8	27.300	0	138.740	0	219.8	4	76.7	4	-1E+10	1	-1E+10	1	-1E+10	1	-1E+10	1	-1E+10	1	-1E+10	1
4901784	152	C	09/02/2019	10:47	-132.656	43.252	0	142.80	0	7.9890	0	35.1230	8	27.375	0	141.615	0	217.5	4	75.8	4	-1E+10	1	-1E+10	1	-1E+10	1	-1E+10	1	-1E+10	1	-1E+10	1
4901784	152	C	09/02/2019	10:47	-132.656	43.252	0	145.10	0	7.9540	0	35.1870	8	27.430	0	143.895	0	215.7	4	75.2	4	-1E+10	1	-1E+10	1	-1E+10	1	-1E+10	1	-1E+10	1	-1E+10	1
4901784	152	C	09/02/2019	10:47	-132.656	43.252	0	147.60	0	7.9240	0	35.2740	8	27.503	0	146.373	0	214.2	4	74.7	4	-1E+10	1	-1E+10	1	-1E+10	1	-1E+10	1	-1E+10	1	-1E+10	1
4901784	152	C	09/02/2019	10:47	-132.656	43.252	0	150.00	0	7.9130	0	35.3380	8	27.555	0	148.752	0	213.0	4	74.3	4	-1E+10	1	-1E+10	1	-1E+10	1	-1E+10	1	-1E+10	1	-1E+10	1
4901784	152	C	09/02/2019	10:47	-132.656	43.252	0	152.50	0	7.9090	0	35.3660	8	27.578	0	151.231	0	212.3	4	74.1	4	-1E+10	1	-1E+10	1	-1E+10	1	-1E+10	1	-1E+10	1	-1E+10	1
4901784	152	C	09/02/2019	10:47	-132.656	43.252	0	154.90	0	7.9150	0	35.3860	8	27.593	0	153.610	0	211.6	4	73.8	4	-1E+10	1	-1E+10	1	-1E+10	1	-1E+10	1	-1E+10	1	-1E+10	1
4901784	152	C	09/02/2019	10:47	-132.656	43.252	0	157.40	0	7.9210	0	35.4070	8	27.608	0	156.088	0	210.7	4	73.5	4	-1E+10	1	-1E+10	1	-1E+10	1	-1E+10	1	-1E+10	1	-1E+10	1
4901784	152	C	09/02/2019	10:47	-132.656	43.252	0	160.50	0	7.9280	0	35.4570	8	27.647	0	159.161	0	209.1	4	73.0	4	-1E+10	1	-1E+10	1	-1E+10	1	-1E+10	1	-1E+10	1	-1E+10	1
4901784	152	C	09/02/2019	10:47	-132.656	43.252	0	162.30	0	7.9270	0	35.4660	8	27.654	0	160.945	0	208.0	4	72.6	4	-1E+10	1	-1E+10	1	-1E+10	1	-1E+10	1	-1E+10	1	-1E+10	1
4901784	152	C	09/02/2019	10:47	-132.656	43.252	0	164.50	0	7.9250	0	35.4990	8	27.680	0	163.126	0	206.2	4	72.0	4	-1E+10	1	-1E+10	1	-1E+10	1	-1E+10	1	-1E+10	1	-1E+10	1
4901784	152	C	09/02/2019	10:47	-132.656	43.252	0	167.50	0	7.9320	0	35.5290	8	27.703	0	166.100	0	203.8	4	71.2	4	-1E+10	1	-1E+10	1	-1E+10	1	-1E+10	1	-1E+10	1	-1E+10	1
4901784	152	C	09/02/2019	10:47	-132.656	43.252	0	169.80	0	7.9350	0	35.5490	8	27.718	0	168.380	0	201.6	4	70.4	4	-1E+10	1	-1E+10	1	-1E+10	1	-1E+10	1	-1E+10	1	-1E+10	1
4901784	152	C	09/02/2019	10:47	-132.656	43.252	0	172.10	0	7.9430	0	35.5770	8	27.739	0	170.659	0	198.5	4	69.4	4	-1E+10	1	-1E+10	1	-1E+10	1	-1E+10	1	-1E+10	1	-1E+10	1
4901784	152	C	09/02/2019	10:47	-132.656	43.252	0	175.20	0	7.9530	0	35.6380	8	27.785	0	173.732	0	195.0	4	68.2	4	-1E+10	1	-1E+10	1	-1E+10	1	-1E+10	1	-1E+10	1	-1E+10	1
4901784	152	C	09/02/2019	10:47	-132.656	43.252	0	177.50	0	7.9780	0	35.6760	8	27.811	0	176.012	0	193.4	4	67.7	4	-1E+10	1	-1E+10	1	-1E+10	1	-1E+10	1	-1E+10	1	-1E+10	1
4901784	152	C	09/02/2019	10:47	-132.656	43.252	0	180.00	0	8.0050	0	35.7110	8	27.835	0	178.490	0	191.8	4	67.2	4	-1E+10	1	-1E+10	1	-1E+10	1	-1E+10	1	-1E+10	1	-1E+10	1
4901784	152	C	09/02/2019	10:47	-132.656	43.252	0	182.50	0	8.0190	0	35.7320	8	27.849	0	180.968	0	190.1	4	66.7	4	-1E+10	1	-1E+10	1	-1E+10	1	-1E+10	1	-1E+10	1	-1E+10	1
4901784	152	C	09/02/2019	10:47	-132.656	43.252	0	185.00	0	8.0320	0	35.7570	8	27.867	0	183.446	0	188.5	4	66.1	4	-1E+10	1	-1E+10	1	-1E+10	1	-1E+10	1	-1E+10	1	-1E+10	1
4901784	152	C	09/02/2019	10:47	-132.656	43.252	0	187.60	0	8.0410	0	35.7680	8	27.874	0	186.023	0	187.4	4	65.8	4	-1E+10	1	-1E+10	1	-1E+10	1	-1E+10	1	-1E+10	1	-1E+10	1
4901784	152	C	09/02/2019	10:47	-132.656	43.252	0	190.20	0	8.0470	0	35.7840	8	27.886	0	188.600	0	186.2	4	65.3	4	-1E+10	1	-1E+10	1	-1E+10	1	-1E+10	1	-1E+10	1	-1E+10	1
4901784	152	C	09/02/2019	10:47	-132.656	43.252	0	192.80	0	8.0490	0	35.7940	8	27.894	0	191.177	0	184.7	4	64.8	4	-1E+10	1	-1E+10	1	-1E+10	1	-1E+10	1	-1E+10	1	-1E+10	1
4901784	152	C	09/02/2019	10:47	-132.656	43.252	0	195.30	0	8.0640	0	35.8080	8	27.902	0	193.654	0	182.5	4	64.1	4	-1E+10	1	-1E+10	1	-1E+10	1	-1E+10	1	-1E+10	1	-1E+10	1
4901784	152	C	09/02/2019	10:47	-132.656	43.252	0	197.80	0	8.0710	0	35.8180	8	27.909	0	196.132	0	179.5	4	63.0	4	-1E+10	1	-1E+10	1	-1E+10	1	-1E+10	1	-1E+10	1	-1E+10	1
4901784	152	C	09/02/2019	10:47	-132.656	43.252	0	200.20	0	8.0690	0	35.8270	8	27.917	0	198.511	0	176.1	4	61.8	4	-1E+10	1	-1E+10	1	-1E+10	1	-1E+10	1	-1E+10	1	-1E+10	1
4901784	152	C	09/02/2019	10:47	-132.656	43.252	0	202.70	0	8.0600	0	35.8450	8	27.932	0	200.988	0	172.5	4	60.6	4	-1E+10	1	-1E+10	1	-1E+10	1	-1E+10	1	-1E+10	1	-1E+10	1
4901784	152	C	09/02/2019	10:47	-132.656	43.252	0	205.40	0	8.0520	0	35.8590	8	27.944	0	203.664	0	170.1	4	59.7	4	-1E+10	1	-1E+10	1	-1E+10	1	-1E+10	1	-1E+10	1	-1E+10	1
4901784	152	C	09/02/2019	10:47	-132.656	43.252	0	207.90	0	8.0380	0	35.8650	8	27.951	0	206.142	0	168.4	4	59.1	4	-1E+10	1	-1E+10	1	-1E+10	1	-1E+10	1	-1E+10	1	-1E+10	1
4901784	152	C	09/02/2019	10:47	-132.656	43.252	0	209.60	0	8.0410	0	35.8730	8	27.957	0	207.827	0	167.5	4	58.8	4	-1E+10	1	-1E+10	1	-1E+10	1	-1E+10	1	-1E+10	1	-1E+10	1
4901784	152	C	09/02/2019	10:47	-132.656	43.252	0	212.20	0	8.0110	0	35.8940	8	27.978	0	210.403	0	166.6	4	58.5	4	-1E+10	1	-1E+10	1	-1E+10	1	-1E+10	1	-1E+10	1	-1E+10	1
4901784	152	C	09/02/2019	10:47	-132.656	43.252	0	214.80	0	8.0250	0	35.9050	8	27.985	0	212.980	0	165.9	4	58.2	4	-1E+10	1	-1E+10	1	-1E+10	1	-1E+10	1	-1E+10	1	-1E+10	1
4901784	152	C	09/02/2019	10:47	-132.656	43.252	0	217.30	0	7.9790	0	35.9160	8	28.001	0	215.457	0	163.8	4	57.5	4	-1E+10	1	-1E+10	1	-1E+10	1	-1E+10	1	-1E+10	1	-1E+10	1
4901784	152	C	09/02/2019	10:47	-132.656	43.252	0	219.90	0	7.9570	0	35.9230	8	28.009	0	218.034	0	161.9	4	56.7	4	-1E+10	1	-1E+10	1	-1E+10	1	-1E+10	1	-1E+10	1	-1E+10	1
4901784	152	C	09/02/2019	10:47	-132.656	43.252	0	222.50	0	7.9000	0	35.9210	8	28.017	0	220.611	0	159.8	4	56.0	4	-1E+10	1	-1E+10	1	-1E+10	1	-1E+10	1	-1E+10	1	-1E+10	1
4901784	152	C	09/02/2019	10:47	-132.656	43.252	0	225.00	0	7.8330	0	35.9220	8	28.027	0	223.088	0	158.9	4	55.6	4	-1E+10	1	-1E+10	1	-1E+10	1	-1E+10	1	-1E+10	1	-1E+10	1
4901784	152	C	09/02/2019	10:47	-132.656	43.252	0	227.50	0	7.8070	0	35.9260	8	28.034	0	225.565	0	159.1	4	55.6	4	-1E+10	1	-1E+10	1	-1E+10	1	-1E+10	1	-1E+10	1	-1E+10	1
4901784	152	C	09/02/2019	10:47	-132.656	43.252	0	230.00	0	7.7920	0	35.9320	8	28.042	0	228.043	0	158.5	4	55.4	4	-1E+10	1	-1E+10	1	-1E+10	1	-1E+10	1	-1E+10	1	-1E+10	1
4901784	152	C	09/02/2019	10:47	-132.656	43.252	0	232.50	0	7.7700	0	35.9310	8	28.044	0	230.520	0	157.2	4	54.9	4	-1E+10	1	-1E+10	1	-1E+10	1	-1E+10	1	-1E+10	1	-1E+10	1
4901784	152	C	09/02/2019	10:47	-132.656	43.252	0	235.10	0	7.7470	0	35.9290	8	28.046	0	233.097	0	155.1	4	54.1	4	-1E+10	1	-1E+10	1	-1E+10	1	-1E+10	1	-1E+10	1	-1E+10	1
4901784	152	C	09/02/2019	10:47	-132.656	43.252	0	237.60	0	7.6990	0	35.9250	8	28.050	0	235.574	0	153.3	4	53.4	4	-1E+10	1	-1E+10	1	-1E+10	1	-1E+10	1	-1E+10	1	-1E+10	1
4901784	152	C	09/02/2019	10:47	-132.656	43.252	0	240.10	0	7.6520	0	35.9250	8	28.057	0	238.051	0	152.6	4	53.1	4	-1E+10	1	-1E+10	1	-1E+10	1	-1E+10	1	-1E+10	1	-1E+10	1
4901784	152	C	09/02/2019	10:47	-132.656	43.252	0	242.70	0	7.5650	0	35.9290	8	28.073	0	240.627	0	151.7	4	52.7	4	-1E+10	1	-1E+10	1	-1E+10	1	-1E+10	1	-1E+10	1	-1E+10	1
4901784	152	C	09/02/2019	10:47	-132.656	43.252	0	245.30	0	7.5120	0	35.9300	8	28.082	0	243.204	0	150.8	4	52.3	4	-1E+10	1	-1E+10	1	-1E+10	1	-1E+10	1	-1E+10	1	-1E+10	1
4901784	152	C	09/02/2019	10:47	-132.656	43.252	0	247.80	0	7.4840	0	35.9300	8	28.086	0	245.681	0	150.4	4	52.2	4	-1E+10	1	-1E+10	1	-1E+10	1	-1E+10	1	-1E+10	1	-1E+10	1
4901784	152	C	09/02/2019	10:47	-132.656	43.252	0	250.40	0	7.4790	0	35.9310	8	28.087	0	248.257	0	149.9	4	52.0	4	-1E+10	1	-1E+10	1	-1E+10	1	-1E+10	1	-1E+10	1	-1E+10	1
4901784	152	C	09/02/2019	10:47	-132.656	43.252	0	252.10	0	7.4600	0	35.9310	8	28.090	0	249.941	0	149.2	4	51.7	4	-1E+10	1	-1E+10	1	-1E+10	1	-1E+10	1	-1E+10	1	-1E+10	1
4901784	152	C	09/02/2019	10:47	-132.656	43.252	0	254.60	0	7.4340	0	35.9330	8	28.096	0	252.418	0	147.3	4	51.0	4	-1E+10	1	-1E+10	1	-1E+10	1	-1E+10	1	-1E+10	1	-1E+10	1
4901784	152	C	09/02/2019	10:47	-132.656	43.252	0	257.10	0	7.4110	0	35.9290	8	28.096	0	254.895	0	145.5	4	50.4	4	-1E+10	1	-1E+10	1	-1E+10	1	-1E+10	1	-1E+10	1	-1E+10	1
4901784	152	C	09/02/2019	10:47	-132.656	43.252	0	259.60	0	7.3330	0	35.9280	8	28.106	0	257.372	0	143.4	4	49.6	4	-1E+10	1	-1E+10	1	-1E+10	1	-1E+10	1	-1E+10	1	-1E+10	1
4901784	152	C	09/02/2019	10:47	-132.656	43.252	0	262.90	0	7.2130	0	35.9300	8	28.125	0	260.642	0	141.0	4	48.6	4	-1E+10	1	-1E+10	1	-1E+10	1	-1E+10	1	-1E+10	1	-1E+10	1
4901784	152	C	09/02/2019	10:47	-132.656	43.252	0	265.40	0	7.1650	0	35.9280	8	28.131	0	263.119	0	139.5	4	48.1	4	-1E+10	1	-1E+10	1	-1E+10	1	-1E+10	1	-1E+10	1	-1E+10	1
4901784	152	C	09/02/2019	10:47	-132.656	43.252	0	267.90	0	7.1180	0	35.9280	8	28.137	0	265.596	0	138.1	4	47.5	4	-1E+10	1	-1E+10	1	-1E+10	1	-1E+10	1	-1E+10	1	-1E+10	1
4901784	152	C	09/02/2019	10:47	-132.656	43.252	0	270.50	0	7.0620	0	35.9270	8	28.145	0	268.172	0	137.0	4	47.1	4	-1E+10	1	-1E+10	1	-1E+10	1	-1E+10	1	-1E+10	1	-1E+10	1
4901784	152	C	09/02/2019	10:47	-132.656	43.252	0	272.10	0	7.0360	0	35.9260	8	28.147	0	269.757	0	136.0	4	46.7	4	-1E+10	1	-1E+10	1	-1E+10	1	-1E+10	1	-1E+10	1	-1E+10	1
4901784	152	C	09/02/2019	10:47	-132.656	43.252	0	274.70	0	6.9900	0	35.9260	8	28.154	0	272.333	0	134.4	4	46.1	4	-1E+10	1	-1E+10	1	-1E+10	1	-1E+10	1	-1E+10	1	-1E+10	1
4901784	152	C	09/02/2019	10:47	-132.656	43.252	0	277.30	0	6.9250	0	35.9270	8	28.164	0	274.909	0	133.0	4	45.6	4	-1E+10	1	-1E+10	1	-1E+10	1	-1E+10	1	-1E+10	1	-1E+10	1
4901784	152	C	09/02/2019	10:47	-132.656	43.252	0	280.00	0	6.8840	0	35.9260	8	28.169	0	277.584	0	131.5	4	45.0	4	-1E+10	1	-1E+10	1	-1E+10	1	-1E+10	1	-1E+10	1	-1E+10	1
4901784	152	C	09/02/2019	10:47	-132.656	43.252	0	282.60	0	6.8340	0	35.9270	8	28.177	0	280.160	0	130.5	4	44.6	4	-1E+10	1	-1E+10	1	-1E+10	1	-1E+10	1	-1E+10	1	-1E+10	1
4901784	152	C	09/02/2019	10:47	-132.656	43.252	0	285.30	0	6.8110	0	35.9260	8	28.179	0	282.834	0	129.4	4	44.2	4	-1E+10	1	-1E+10	1	-1E+10	1	-1E+10	1	-1E+10	1	-1E+10	1
4901784	152	C	09/02/2019	10:47	-132.656	43.252	0	287.90	0	6.7750	0	35.9250	8	28.183	0	285.410	0	127.9	4	43.7	4	-1E+10	1	-1E+10	1	-1E+10	1	-1E+10	1	-1E+10	1	-1E+10	1
4901784	152	C	09/02/2019	10:47	-132.656	43.252	0	289.70	0	6.7610	0	35.9240	8	28.185	0	287.193	0	126.7	4	43.2	4	-1E+10	1	-1E+10	1	-1E+10	1	-1E+10	1	-1E+10	1	-1E+10	1
4901784	152	C	09/02/2019	10:47	-132.656	43.252	0	292.30	0	6.7180	0	35.9230	8	28.190	0	289.769	0	124.7	4	42.5	4	-1E+10	1	-1E+10	1	-1E+10	1	-1E+10	1	-1E+10	1	-1E+10	1
4901784	152	C	09/02/2019	10:47	-132.656	43.252	0	294.90	0	6.6450	0	35.9250	8	28.201	0	292.345	0	122.9	4	41.8	4	-1E+10	1	-1E+10	1	-1E+10	1	-1E+10	1	-1E+10	1	-1E+10	1
4901784	152	C	09/02/2019	10:47	-132.656	43.252	0	297.60	0	6.5980	0	35.9250	8	28.208	0	295.019	0	121.9	4	41.4	4	-1E+10	1	-1E+10	1	-1E+10	1	-1E+10	1	-1E+10	1	-1E+10	1
4901784	152	C	09/02/2019	10:47	-132.656	43.252	0	300.20	0	6.5740	0	35.9240	8	28.210	0	297.595	0	120.9	4	41.1	4	-1E+10	1	-1E+10	1	-1E+10	1	-1E+10	1	-1E+10	1	-1E+10	1
4901784	152	C	09/02/2019	10:47	-132.656	43.252	0	302.00	0	6.5470	0	35.9250	8	28.215	0	299.378	0	120.2	4	40.8	4	-1E+10	1	-1E+10	1	-1E+10	1	-1E+10	1	-1E+10	1	-1E+10	1
4901784	152	C	09/02/2019	10:47	-132.656	43.252	0	304.70	0	6.5120	0	35.9240	8	28.219	0	302.053	0	119.3	4	40.5	4	-1E+10	1	-1E+10	1	-1E+10	1	-1E+10	1	-1E+10	1	-1E+10	1
4901784	152	C	09/02/2019	10:47	-132.656	43.252	0	307.30	0	6.4870	0	35.9220	8	28.221	0	304.628	0	118.2	4	40.1	4	-1E+10	1	-1E+10	1	-1E+10	1	-1E+10	1	-1E+10	1	-1E+10	1
4901784	152	C	09/02/2019	10:47	-132.656	43.252	0	310.10	0	6.4530	0	35.9190	8	28.223	0	307.402	0	116.9	4	39.6	4	-1E+10	1	-1E+10	1	-1E+10	1	-1E+10	1	-1E+10	1	-1E+10	1
4901784	152	C	09/02/2019	10:47	-132.656	43.252	0	312.90	0	6.3840	0	35.9220	8	28.235	0	310.175	0	115.6	4	39.1	4	-1E+10	1	-1E+10	1	-1E+10	1	-1E+10	1	-1E+10	1	-1E+10	1
4901784	152	C	09/02/2019	10:47	-132.656	43.252	0	314.70	0	6.3640	0	35.9210	8	28.237	0	311.958	0	114.8	4	38.8	4	-1E+10	1	-1E+10	1	-1E+10	1	-1E+10	1	-1E+10	1	-1E+10	1
4901784	152	C	09/02/2019	10:47	-132.656	43.252	0	317.50	0	6.3210	0	35.9190	8	28.241	0	314.732	0	113.4	4	38.3	4	-1E+10	1	-1E+10	1	-1E+10	1	-1E+10	1	-1E+10	1	-1E+10	1
4901784	152	C	09/02/2019	10:47	-132.656	43.252	0	320.20	0	6.2420	0	35.9210	8	28.253	0	317.406	0	112.0	4	37.8	4	-1E+10	1	-1E+10	1	-1E+10	1	-1E+10	1	-1E+10	1	-1E+10	1
4901784	152	C	09/02/2019	10:47	-132.656	43.252	0	321.90	0	6.2270	0	35.9200	8	28.254	0	319.090	0	110.9	4	37.4	4	-1E+10	1	-1E+10	1	-1E+10	1	-1E+10	1	-1E+10	1	-1E+10	1
4901784	152	C	09/02/2019	10:47	-132.656	43.252	0	324.70	0	6.1840	0	35.9210	8	28.261	0	321.863	0	109.6	4	36.9	4	-1E+10	1	-1E+10	1	-1E+10	1	-1E+10	1	-1E+10	1	-1E+10	1
4901784	152	C	09/02/2019	10:47	-132.656	43.252	0	327.50	0	6.1580	0	35.9200	8	28.263	0	324.637	0	108.6	4	36.5	4	-1E+10	1	-1E+10	1	-1E+10	1	-1E+10	1	-1E+10	1	-1E+10	1
4901784	152	C	09/02/2019	10:47	-132.656	43.252	0	330.20	0	6.1300	0	35.9180	8	28.266	0	327.311	0	107.0	4	36.0	4	-1E+10	1	-1E+10	1	-1E+10	1	-1E+10	1	-1E+10	1	-1E+10	1
4901784	152	C	09/02/2019	10:47	-132.656	43.252	0	333.00	0	6.0870	0	35.9180	8	28.271	0	330.084	0	105.4	4	35.4	4	-1E+10	1	-1E+10	1	-1E+10	1	-1E+10	1	-1E+10	1	-1E+10	1
4901784	152	C	09/02/2019	10:47	-132.656	43.252	0	334.90	0	6.0320	0	35.9200	8	28.280	0	331.966	0	104.4	4	35.0	4	-1E+10	1	-1E+10	1	-1E+10	1	-1E+10	1	-1E+10	1	-1E+10	1
4901784	152	C	09/02/2019	10:47	-132.656	43.252	0	337.60	0	6.0060	0	35.9170	8	28.281	0	334.640	0	103.1	4	34.6	4	-1E+10	1	-1E+10	1	-1E+10	1	-1E+10	1	-1E+10	1	-1E+10	1
4901784	152	C	09/02/2019	10:47	-132.656	43.252	0	340.30	0	5.9580	0	35.9160	8	28.287	0	337.314	0	101.7	4	34.1	4	-1E+10	1	-1E+10	1	-1E+10	1	-1E+10	1	-1E+10	1	-1E+10	1
4901784	152	C	09/02/2019	10:47	-132.656	43.252	0	342.10	0	5.9190	0	35.9160	8	28.292	0	339.097	0	100.6	4	33.7	4	-1E+10	1	-1E+10	1	-1E+10	1	-1E+10	1	-1E+10	1	-1E+10	1
4901784	152	C	09/02/2019	10:47	-132.656	43.252	0	344.90	0	5.8410	0	35.9200	8	28.305	0	341.870	0	99.3	4	33.2	4	-1E+10	1	-1E+10	1	-1E+10	1	-1E+10	1	-1E+10	1	-1E+10	1
4901784	152	C	09/02/2019	10:47	-132.656	43.252	0	347.70	0	5.8050	0	35.9200	8	28.309	0	344.643	0	98.6	4	32.9	4	-1E+10	1	-1E+10	1	-1E+10	1	-1E+10	1	-1E+10	1	-1E+10	1
4901784	152	C	09/02/2019	10:47	-132.656	43.252	0	349.60	0	5.7810	0	35.9210	8	28.313	0	346.525	0	98.0	4	32.7	4	-1E+10	1	-1E+10	1	-1E+10	1	-1E+10	1	-1E+10	1	-1E+10	1
4901784	152	C	09/02/2019	10:47	-132.656	43.252	0	352.30	0	5.7610	0	35.9200	8	28.315	0	349.199	0	97.5	4	32.5	4	-1E+10	1	-1E+10	1	-1E+10	1	-1E+10	1	-1E+10	1	-1E+10	1
4901784	152	C	09/02/2019	10:47	-132.656	43.252	0	355.00	0	5.7270	0	35.9200	8	28.319	0	351.873	0	97.0	4	32.3	4	-1E+10	1	-1E+10	1	-1E+10	1	-1E+10	1	-1E+10	1	-1E+10	1
4901784	152	C	09/02/2019	10:47	-132.656	43.252	0	357.40	0	5.7050	0	35.9210	8	28.323	0	354.250	0	96.4	4	32.1	4	-1E+10	1	-1E+10	1	-1E+10	1	-1E+10	1	-1E+10	1	-1E+10	1
4901784	152	C	09/02/2019	10:47	-132.656	43.252	0	360.10	0	5.6750	0	35.9210	8	28.327	0	356.924	0	95.7	4	31.9	4	-1E+10	1	-1E+10	1	-1E+10	1	-1E+10	1	-1E+10	1	-1E+10	1
4901784	152	C	09/02/2019	10:47	-132.656	43.252	0	362.40	0	5.6540	0	35.9220	8	28.330	0	359.201	0	95.3	4	31.7	4	-1E+10	1	-1E+10	1	-1E+10	1	-1E+10	1	-1E+10	1	-1E+10	1
4901784	152	C	09/02/2019	10:47	-132.656	43.252	0	364.70	0	5.6490	0	35.9210	8	28.330	0	361.479	0	94.6	4	31.5	4	-1E+10	1	-1E+10	1	-1E+10	1	-1E+10	1	-1E+10	1	-1E+10	1
4901784	152	C	09/02/2019	10:47	-132.656	43.252	0	367.80	0	5.6240	0	35.9190	8	28.332	0	364.549	0	93.5	4	31.1	4	-1E+10	1	-1E+10	1	-1E+10	1	-1E+10	1	-1E+10	1	-1E+10	1
4901784	152	C	09/02/2019	10:47	-132.656	43.252	0	370.10	0	5.5790	0	35.9220	8	28.340	0	366.827	0	92.7	4	30.8	4	-1E+10	1	-1E+10	1	-1E+10	1	-1E+10	1	-1E+10	1	-1E+10	1
4901784	152	C	09/02/2019	10:47	-132.656	43.252	0	372.40	0	5.5490	0	35.9230	8	28.344	0	369.104	0	92.1	4	30.6	4	-1E+10	1	-1E+10	1	-1E+10	1	-1E+10	1	-1E+10	1	-1E+10	1
4901784	152	C	09/02/2019	10:47	-132.656	43.252	0	374.80	0	5.5420	0	35.9200	8	28.343	0	371.481	0	91.4	4	30.3	4	-1E+10	1	-1E+10	1	-1E+10	1	-1E+10	1	-1E+10	1	-1E+10	1
4901784	152	C	09/02/2019	10:47	-132.656	43.252	0	377.10	0	5.5050	0	35.9200	8	28.348	0	373.758	0	90.3	4	29.9	4	-1E+10	1	-1E+10	1	-1E+10	1	-1E+10	1	-1E+10	1	-1E+10	1
4901784	152	C	09/02/2019	10:47	-132.656	43.252	0	380.30	0	5.4200	0	35.9250	8	28.362	0	376.927	0	89.1	4	29.5	4	-1E+10	1	-1E+10	1	-1E+10	1	-1E+10	1	-1E+10	1	-1E+10	1
4901784	152	C	09/02/2019	10:47	-132.656	43.252	0	382.80	0	5.4030	0	35.9230	8	28.363	0	379.403	0	88.5	4	29.3	4	-1E+10	1	-1E+10	1	-1E+10	1	-1E+10	1	-1E+10	1	-1E+10	1
4901784	152	C	09/02/2019	10:47	-132.656	43.252	0	385.30	0	5.3770	0	35.9230	8	28.366	0	381.878	0	87.8	4	29.0	4	-1E+10	1	-1E+10	1	-1E+10	1	-1E+10	1	-1E+10	1	-1E+10	1
4901784	152	C	09/02/2019	10:47	-132.656	43.252	0	387.80	0	5.3490	0	35.9220	8	28.368	0	384.354	0	86.9	4	28.7	4	-1E+10	1	-1E+10	1	-1E+10	1	-1E+10	1	-1E+10	1	-1E+10	1
4901784	152	C	09/02/2019	10:47	-132.656	43.252	0	390.40	0	5.2950	0	35.9260	8	28.378	0	386.928	0	86.5	4	28.5	4	-1E+10	1	-1E+10	1	-1E+10	1	-1E+10	1	-1E+10	1	-1E+10	1
4901784	152	C	09/02/2019	10:47	-132.656	43.252	0	392.90	0	5.2760	0	35.9250	8	28.380	0	389.403	0	86.0	4	28.4	4	-1E+10	1	-1E+10	1	-1E+10	1	-1E+10	1	-1E+10	1	-1E+10	1
4901784	152	C	09/02/2019	10:47	-132.656	43.252	0	394.60	0	5.2720	0	35.9240	8	28.380	0	391.087	0	85.6	4	28.2	4	-1E+10	1	-1E+10	1	-1E+10	1	-1E+10	1	-1E+10	1	-1E+10	1
4901784	152	C	09/02/2019	10:47	-132.656	43.252	0	397.10	0	5.2380	0	35.9250	8	28.384	0	393.562	0	84.9	4	28.0	4	-1E+10	1	-1E+10	1	-1E+10	1	-1E+10	1	-1E+10	1	-1E+10	1
4901784	152	C	09/02/2019	10:47	-132.656	43.252	0	399.70	0	5.2160	0	35.9270	8	28.389	0	396.136	0	84.1	4	27.7	4	-1E+10	1	-1E+10	1	-1E+10	1	-1E+10	1	-1E+10	1	-1E+10	1
4901784	152	C	09/02/2019	10:47	-132.656	43.252	0	402.20	0	5.2100	0	35.9280	8	28.390	0	398.612	0	83.4	4	27.5	4	-1E+10	1	-1E+10	1	-1E+10	1	-1E+10	1	-1E+10	1	-1E+10	1
4901784	152	C	09/02/2019	10:47	-132.656	43.252	0	404.70	0	5.1940	0	35.9260	8	28.391	0	401.087	0	82.7	4	27.2	4	-1E+10	1	-1E+10	1	-1E+10	1	-1E+10	1	-1E+10	1	-1E+10	1
4901784	152	C	09/02/2019	10:47	-132.656	43.252	0	407.30	0	5.1570	0	35.9290	8	28.398	0	403.661	0	82.1	4	27.0	4	-1E+10	1	-1E+10	1	-1E+10	1	-1E+10	1	-1E+10	1	-1E+10	1
4901784	152	C	09/02/2019	10:47	-132.656	43.252	0	409.90	0	5.1410	0	35.9270	8	28.398	0	406.236	0	81.4	4	26.8	4	-1E+10	1	-1E+10	1	-1E+10	1	-1E+10	1	-1E+10	1	-1E+10	1
4901784	152	C	09/02/2019	10:47	-132.656	43.252	0	412.40	0	5.1040	0	35.9290	8	28.404	0	408.711	0	80.3	4	26.4	4	-1E+10	1	-1E+10	1	-1E+10	1	-1E+10	1	-1E+10	1	-1E+10	1
4901784	152	C	09/02/2019	10:47	-132.656	43.252	0	415.00	0	5.0640	0	35.9330	8	28.412	0	411.285	0	79.2	4	26.0	4	-1E+10	1	-1E+10	1	-1E+10	1	-1E+10	1	-1E+10	1	-1E+10	1
4901784	152	C	09/02/2019	10:47	-132.656	43.252	0	417.60	0	5.0430	0	35.9330	8	28.414	0	413.859	0	78.4	4	25.7	4	-1E+10	1	-1E+10	1	-1E+10	1	-1E+10	1	-1E+10	1	-1E+10	1
4901784	152	C	09/02/2019	10:47	-132.656	43.252	0	420.20	0	5.0340	0	35.9340	8	28.416	0	416.433	0	77.2	4	25.3	4	-1E+10	1	-1E+10	1	-1E+10	1	-1E+10	1	-1E+10	1	-1E+10	1
4901784	152	C	09/02/2019	10:47	-132.656	43.252	0	421.90	0	5.0190	0	35.9340	8	28.418	0	418.116	0	76.3	4	25.0	4	-1E+10	1	-1E+10	1	-1E+10	1	-1E+10	1	-1E+10	1	-1E+10	1
4901784	152	C	09/02/2019	10:47	-132.656	43.252	0	424.70	0	4.9890	0	35.9360	8	28.423	0	420.888	0	74.3	4	24.3	4	-1E+10	1	-1E+10	1	-1E+10	1	-1E+10	1	-1E+10	1	-1E+10	1
4901784	152	C	09/02/2019	10:47	-132.656	43.252	0	427.30	0	4.9730	0	35.9400	8	28.428	0	423.462	0	71.6	4	23.5	4	-1E+10	1	-1E+10	1	-1E+10	1	-1E+10	1	-1E+10	1	-1E+10	1
4901784	152	C	09/02/2019	10:47	-132.656	43.252	0	430.00	0	4.9570	0	35.9490	8	28.437	0	426.135	0	68.9	4	22.5	4	-1E+10	1	-1E+10	1	-1E+10	1	-1E+10	1	-1E+10	1	-1E+10	1
4901784	152	C	09/02/2019	10:47	-132.656	43.252	0	432.70	0	4.9830	0	35.9590	8	28.442	0	428.808	0	66.0	4	21.6	4	-1E+10	1	-1E+10	1	-1E+10	1	-1E+10	1	-1E+10	1	-1E+10	1
4901784	152	C	09/02/2019	10:47	-132.656	43.252	0	434.50	0	4.9870	0	35.9630	8	28.445	0	430.590	0	65.0	4	21.3	4	-1E+10	1	-1E+10	1	-1E+10	1	-1E+10	1	-1E+10	1	-1E+10	1
4901784	152	C	09/02/2019	10:47	-132.656	43.252	0	437.20	0	4.9630	0	35.9680	8	28.452	0	433.263	0	64.0	4	21.0	4	-1E+10	1	-1E+10	1	-1E+10	1	-1E+10	1	-1E+10	1	-1E+10	1
4901784	152	C	09/02/2019	10:47	-132.656	43.252	0	439.90	0	4.9510	0	35.9700	8	28.455	0	435.936	0	63.5	4	20.8	4	-1E+10	1	-1E+10	1	-1E+10	1	-1E+10	1	-1E+10	1	-1E+10	1
4901784	152	C	09/02/2019	10:47	-132.656	43.252	0	442.70	0	4.9480	0	35.9700	8	28.455	0	438.708	0	62.9	4	20.6	4	-1E+10	1	-1E+10	1	-1E+10	1	-1E+10	1	-1E+10	1	-1E+10	1
4901784	152	C	09/02/2019	10:47	-132.656	43.252	0	445.50	0	4.9310	0	35.9720	8	28.459	0	441.479	0	62.2	4	20.3	4	-1E+10	1	-1E+10	1	-1E+10	1	-1E+10	1	-1E+10	1	-1E+10	1
4901784	152	C	09/02/2019	10:47	-132.656	43.252	0	447.40	0	4.9280	0	35.9720	8	28.459	0	443.360	0	61.7	4	20.2	4	-1E+10	1	-1E+10	1	-1E+10	1	-1E+10	1	-1E+10	1	-1E+10	1
4901784	152	C	09/02/2019	10:47	-132.656	43.252	0	450.20	0	4.9120	0	35.9740	8	28.463	0	446.132	0	60.8	4	19.9	4	-1E+10	1	-1E+10	1	-1E+10	1	-1E+10	1	-1E+10	1	-1E+10	1
4901784	152	C	09/02/2019	10:47	-132.656	43.252	0	452.90	0	4.8980	0	35.9760	8	28.466	0	448.805	0	59.9	4	19.6	4	-1E+10	1	-1E+10	1	-1E+10	1	-1E+10	1	-1E+10	1	-1E+10	1
4901784	152	C	09/02/2019	10:47	-132.656	43.252	0	454.80	0	4.8870	0	35.9790	8	28.470	0	450.685	0	59.3	4	19.4	4	-1E+10	1	-1E+10	1	-1E+10	1	-1E+10	1	-1E+10	1	-1E+10	1
4901784	152	C	09/02/2019	10:47	-132.656	43.252	0	457.70	0	4.8680	0	35.9820	8	28.474	0	453.556	0	58.4	4	19.1	4	-1E+10	1	-1E+10	1	-1E+10	1	-1E+10	1	-1E+10	1	-1E+10	1
4901784	152	C	09/02/2019	10:47	-132.656	43.252	0	460.60	0	4.8590	0	35.9830	8	28.476	0	456.427	0	57.6	4	18.8	4	-1E+10	1	-1E+10	1	-1E+10	1	-1E+10	1	-1E+10	1	-1E+10	1
4901784	152	C	09/02/2019	10:47	-132.656	43.252	0	462.50	0	4.8530	0	35.9840	8	28.478	0	458.307	0	56.8	4	18.6	4	-1E+10	1	-1E+10	1	-1E+10	1	-1E+10	1	-1E+10	1	-1E+10	1
4901784	152	C	09/02/2019	10:47	-132.656	43.252	0	465.30	0	4.8280	0	35.9900	8	28.485	0	461.079	0	55.7	4	18.2	4	-1E+10	1	-1E+10	1	-1E+10	1	-1E+10	1	-1E+10	1	-1E+10	1
4901784	152	C	09/02/2019	10:47	-132.656	43.252	0	468.10	0	4.8150	0	35.9930	8	28.489	0	463.850	0	54.8	4	17.9	4	-1E+10	1	-1E+10	1	-1E+10	1	-1E+10	1	-1E+10	1	-1E+10	1
4901784	152	C	09/02/2019	10:47	-132.656	43.252	0	470.00	0	4.8110	0	35.9940	8	28.491	0	465.731	0	54.2	4	17.7	4	-1E+10	1	-1E+10	1	-1E+10	1	-1E+10	1	-1E+10	1	-1E+10	1
4901784	152	C	09/02/2019	10:47	-132.656	43.252	0	471.90	0	4.7990	0	35.9960	8	28.494	0	467.611	0	53.6	4	17.5	4	-1E+10	1	-1E+10	1	-1E+10	1	-1E+10	1	-1E+10	1	-1E+10	1
4901784	152	C	09/02/2019	10:47	-132.656	43.252	0	474.70	0	4.7830	0	36.0010	8	28.500	0	470.383	0	52.7	4	17.2	4	-1E+10	1	-1E+10	1	-1E+10	1	-1E+10	1	-1E+10	1	-1E+10	1
4901784	152	C	09/02/2019	10:47	-132.656	43.252	0	477.60	0	4.7700	0	36.0030	8	28.503	0	473.253	0	52.0	4	17.0	4	-1E+10	1	-1E+10	1	-1E+10	1	-1E+10	1	-1E+10	1	-1E+10	1
4901784	152	C	09/02/2019	10:47	-132.656	43.252	0	479.60	0	4.7690	0	36.0050	8	28.504	0	475.233	0	51.6	4	16.8	4	-1E+10	1	-1E+10	1	-1E+10	1	-1E+10	1	-1E+10	1	-1E+10	1
4901784	152	C	09/02/2019	10:47	-132.656	43.252	0	482.40	0	4.7600	0	36.0070	8	28.507	0	478.004	0	50.9	4	16.6	4	-1E+10	1	-1E+10	1	-1E+10	1	-1E+10	1	-1E+10	1	-1E+10	1
4901784	152	C	09/02/2019	10:47	-132.656	43.252	0	485.20	0	4.7520	0	36.0090	8	28.510	0	480.775	0	50.1	4	16.3	4	-1E+10	1	-1E+10	1	-1E+10	1	-1E+10	1	-1E+10	1	-1E+10	1
4901784	152	C	09/02/2019	10:47	-132.656	43.252	0	487.10	0	4.7470	0	36.0100	8	28.511	0	482.656	0	49.5	4	16.1	4	-1E+10	1	-1E+10	1	-1E+10	1	-1E+10	1	-1E+10	1	-1E+10	1
4901784	152	C	09/02/2019	10:47	-132.656	43.252	0	490.00	0	4.7320	0	36.0150	8	28.517	0	485.526	0	48.8	4	15.9	4	-1E+10	1	-1E+10	1	-1E+10	1	-1E+10	1	-1E+10	1	-1E+10	1
4901784	152	C	09/02/2019	10:47	-132.656	43.252	0	492.90	0	4.7240	0	36.0160	8	28.518	0	488.396	0	48.1	4	15.7	4	-1E+10	1	-1E+10	1	-1E+10	1	-1E+10	1	-1E+10	1	-1E+10	1
4901784	152	C	09/02/2019	10:47	-132.656	43.252	0	494.80	0	4.7220	0	36.0180	8	28.520	0	490.276	0	47.6	4	15.5	4	-1E+10	1	-1E+10	1	-1E+10	1	-1E+10	1	-1E+10	1	-1E+10	1
4901784	152	C	09/02/2019	10:47	-132.656	43.252	0	497.70	0	4.7100	0	36.0200	8	28.523	0	493.146	0	46.9	4	15.3	4	-1E+10	1	-1E+10	1	-1E+10	1	-1E+10	1	-1E+10	1	-1E+10	1
4901784	152	C	09/02/2019	10:47	-132.656	43.252	0	500.60	0	4.6890	0	36.0250	8	28.530	0	496.016	0	46.3	4	15.1	4	-1E+10	1	-1E+10	1	-1E+10	1	-1E+10	1	-1E+10	1	-1E+10	1
4901784	152	C	09/02/2019	10:47	-132.656	43.252	0	504.40	0	4.6830	0	36.0250	8	28.530	0	499.777	0	45.5	4	14.8	4	-1E+10	1	-1E+10	1	-1E+10	1	-1E+10	1	-1E+10	1	-1E+10	1
4901784	152	C	09/02/2019	10:47	-132.656	43.252	0	510.30	0	4.6630	0	36.0300	8	28.537	0	505.616	0	43.8	4	14.2	4	-1E+10	1	-1E+10	1	-1E+10	1	-1E+10	1	-1E+10	1	-1E+10	1
4901784	152	C	09/02/2019	10:47	-132.656	43.252	0	515.10	0	4.6410	0	36.0370	8	28.545	0	510.366	0	42.0	4	13.7	4	-1E+10	1	-1E+10	1	-1E+10	1	-1E+10	1	-1E+10	1	-1E+10	1
4901784	152	C	09/02/2019	10:47	-132.656	43.252	0	520.00	0	4.6160	0	36.0440	8	28.553	0	515.215	0	40.7	4	13.2	4	-1E+10	1	-1E+10	1	-1E+10	1	-1E+10	1	-1E+10	1	-1E+10	1
4901784	152	C	09/02/2019	10:47	-132.656	43.252	0	524.90	0	4.6010	0	36.0490	8	28.559	0	520.064	0	39.6	4	12.9	4	-1E+10	1	-1E+10	1	-1E+10	1	-1E+10	1	-1E+10	1	-1E+10	1
4901784	152	C	09/02/2019	10:47	-132.656	43.252	0	529.70	0	4.5870	0	36.0530	8	28.564	0	524.813	0	38.8	4	12.6	4	-1E+10	1	-1E+10	1	-1E+10	1	-1E+10	1	-1E+10	1	-1E+10	1
4901784	152	C	09/02/2019	10:47	-132.656	43.252	0	534.60	0	4.5740	0	36.0680	8	28.577	0	529.662	0	37.9	4	12.3	4	-1E+10	1	-1E+10	1	-1E+10	1	-1E+10	1	-1E+10	1	-1E+10	1
4901784	152	C	09/02/2019	10:47	-132.656	43.252	0	540.20	0	4.5600	0	36.0730	8	28.583	0	535.203	0	36.9	4	12.0	4	-1E+10	1	-1E+10	1	-1E+10	1	-1E+10	1	-1E+10	1	-1E+10	1
4901784	152	C	09/02/2019	10:47	-132.656	43.252	0	545.50	0	4.5500	0	36.0760	8	28.587	0	540.447	0	35.9	4	11.6	4	-1E+10	1	-1E+10	1	-1E+10	1	-1E+10	1	-1E+10	1	-1E+10	1
4901784	152	C	09/02/2019	10:47	-132.656	43.252	0	550.30	0	4.5280	0	36.0830	8	28.595	0	545.196	0	34.9	4	11.3	4	-1E+10	1	-1E+10	1	-1E+10	1	-1E+10	1	-1E+10	1	-1E+10	1
4901784	152	C	09/02/2019	10:47	-132.656	43.252	0	555.20	0	4.5220	0	36.0850	8	28.597	0	550.044	0	34.2	4	11.1	4	-1E+10	1	-1E+10	1	-1E+10	1	-1E+10	1	-1E+10	1	-1E+10	1
4901784	152	C	09/02/2019	10:47	-132.656	43.252	0	560.00	0	4.5120	0	36.0870	8	28.600	0	554.793	0	32.8	4	10.6	4	-1E+10	1	-1E+10	1	-1E+10	1	-1E+10	1	-1E+10	1	-1E+10	1
4901784	152	C	09/02/2019	10:47	-132.656	43.252	0	564.90	0	4.4880	0	36.0960	8	28.610	0	559.641	0	31.2	4	10.1	4	-1E+10	1	-1E+10	1	-1E+10	1	-1E+10	1	-1E+10	1	-1E+10	1
4901784	152	C	09/02/2019	10:47	-132.656	43.252	0	569.90	0	4.4770	0	36.1030	8	28.616	0	564.588	0	29.8	4	9.7	4	-1E+10	1	-1E+10	1	-1E+10	1	-1E+10	1	-1E+10	1	-1E+10	1
4901784	152	C	09/02/2019	10:47	-132.656	43.252	0	574.80	0	4.4710	0	36.1100	8	28.623	0	569.435	0	28.6	4	9.3	4	-1E+10	1	-1E+10	1	-1E+10	1	-1E+10	1	-1E+10	1	-1E+10	1
4901784	152	C	09/02/2019	10:47	-132.656	43.252	0	579.80	0	4.4620	0	36.1130	8	28.626	0	574.382	0	27.6	4	8.9	4	-1E+10	1	-1E+10	1	-1E+10	1	-1E+10	1	-1E+10	1	-1E+10	1
4901784	152	C	09/02/2019	10:47	-132.656	43.252	0	584.80	0	4.4420	0	36.1200	8	28.634	0	579.328	0	26.4	4	8.6	4	-1E+10	1	-1E+10	1	-1E+10	1	-1E+10	1	-1E+10	1	-1E+10	1
4901784	152	C	09/02/2019	10:47	-132.656	43.252	0	589.70	0	4.4320	0	36.1270	8	28.641	0	584.175	0	25.4	4	8.2	4	-1E+10	1	-1E+10	1	-1E+10	1	-1E+10	1	-1E+10	1	-1E+10	1
4901784	152	C	09/02/2019	10:47	-132.656	43.252	0	594.70	0	4.4150	0	36.1330	8	28.647	0	589.122	0	24.4	4	7.9	4	-1E+10	1	-1E+10	1	-1E+10	1	-1E+10	1	-1E+10	1	-1E+10	1
4901784	152	C	09/02/2019	10:47	-132.656	43.252	0	599.90	0	4.4090	0	36.1370	8	28.651	0	594.265	0	23.5	4	7.6	4	-1E+10	1	-1E+10	1	-1E+10	1	-1E+10	1	-1E+10	1	-1E+10	1
4901784	152	C	09/02/2019	10:47	-132.656	43.252	0	605.00	0	4.3940	0	36.1440	8	28.659	0	599.310	0	22.3	4	7.2	4	-1E+10	1	-1E+10	1	-1E+10	1	-1E+10	1	-1E+10	1	-1E+10	1
4901784	152	C	09/02/2019	10:47	-132.656	43.252	0	610.10	0	4.4000	0	36.1530	8	28.665	0	604.355	0	21.3	4	6.9	4	-1E+10	1	-1E+10	1	-1E+10	1	-1E+10	1	-1E+10	1	-1E+10	1
4901784	152	C	09/02/2019	10:47	-132.656	43.252	0	615.40	0	4.3970	0	36.1560	8	28.668	0	609.597	0	20.5	4	6.6	4	-1E+10	1	-1E+10	1	-1E+10	1	-1E+10	1	-1E+10	1	-1E+10	1
4901784	152	C	09/02/2019	10:47	-132.656	43.252	0	619.90	0	4.3870	0	36.1630	8	28.675	0	614.048	0	19.8	4	6.4	4	-1E+10	1	-1E+10	1	-1E+10	1	-1E+10	1	-1E+10	1	-1E+10	1
4901784	152	C	09/02/2019	10:47	-132.656	43.252	0	624.40	0	4.3780	0	36.1660	8	28.678	0	618.499	0	19.2	4	6.2	4	-1E+10	1	-1E+10	1	-1E+10	1	-1E+10	1	-1E+10	1	-1E+10	1
4901784	152	C	09/02/2019	10:47	-132.656	43.252	0	629.80	0	4.3560	0	36.1730	8	28.686	0	623.840	0	18.6	4	6.0	4	-1E+10	1	-1E+10	1	-1E+10	1	-1E+10	1	-1E+10	1	-1E+10	1
4901784	152	C	09/02/2019	10:47	-132.656	43.252	0	635.30	0	4.3440	0	36.1770	8	28.691	0	629.279	0	18.0	4	5.8	4	-1E+10	1	-1E+10	1	-1E+10	1	-1E+10	1	-1E+10	1	-1E+10	1
4901784	152	C	09/02/2019	10:47	-132.656	43.252	0	639.90	0	4.3310	0	36.1830	8	28.697	0	633.829	0	17.5	4	5.7	4	-1E+10	1	-1E+10	1	-1E+10	1	-1E+10	1	-1E+10	1	-1E+10	1
4901784	152	C	09/02/2019	10:47	-132.656	43.252	0	644.40	0	4.3170	0	36.1860	8	28.701	0	638.279	0	17.2	4	5.5	4	-1E+10	1	-1E+10	1	-1E+10	1	-1E+10	1	-1E+10	1	-1E+10	1
4901784	152	C	09/02/2019	10:47	-132.656	43.252	0	650.00	0	4.3080	0	36.1910	8	28.706	0	643.817	0	16.7	4	5.4	4	-1E+10	1	-1E+10	1	-1E+10	1	-1E+10	1	-1E+10	1	-1E+10	1
4901784	152	C	09/02/2019	10:47	-132.656	43.252	0	655.60	0	4.2920	0	36.1960	8	28.712	0	649.355	0	16.3	4	5.3	4	-1E+10	1	-1E+10	1	-1E+10	1	-1E+10	1	-1E+10	1	-1E+10	1
4901784	152	C	09/02/2019	10:47	-132.656	43.252	0	660.20	0	4.2750	0	36.2000	8	28.717	0	653.904	0	16.0	4	5.2	4	-1E+10	1	-1E+10	1	-1E+10	1	-1E+10	1	-1E+10	1	-1E+10	1
4901784	152	C	09/02/2019	10:47	-132.656	43.252	0	664.90	0	4.2640	0	36.2030	8	28.721	0	658.552	0	15.7	4	5.1	4	-1E+10	1	-1E+10	1	-1E+10	1	-1E+10	1	-1E+10	1	-1E+10	1
4901784	152	C	09/02/2019	10:47	-132.656	43.252	0	670.50	0	4.2500	0	36.2000	8	28.720	0	664.090	0	15.6	4	5.0	4	-1E+10	1	-1E+10	1	-1E+10	1	-1E+10	1	-1E+10	1	-1E+10	1
4901784	152	C	09/02/2019	10:47	-132.656	43.252	0	675.20	0	4.2390	0	36.1990	8	28.720	0	668.737	0	15.5	4	5.0	4	-1E+10	1	-1E+10	1	-1E+10	1	-1E+10	1	-1E+10	1	-1E+10	1
4901784	152	C	09/02/2019	10:47	-132.656	43.252	0	679.90	0	4.2260	0	36.1990	8	28.722	0	673.385	0	15.7	4	5.1	4	-1E+10	1	-1E+10	1	-1E+10	1	-1E+10	1	-1E+10	1	-1E+10	1
4901784	152	C	09/02/2019	10:47	-132.656	43.252	0	685.60	0	4.1820	0	36.2020	8	28.729	0	679.021	0	15.5	4	5.0	4	-1E+10	1	-1E+10	1	-1E+10	1	-1E+10	1	-1E+10	1	-1E+10	1
4901784	152	C	09/02/2019	10:47	-132.656	43.252	0	690.50	0	4.1510	0	36.2060	8	28.736	0	683.866	0	15.6	4	5.0	4	-1E+10	1	-1E+10	1	-1E+10	1	-1E+10	1	-1E+10	1	-1E+10	1
4901784	152	C	09/02/2019	10:47	-132.656	43.252	0	695.00	0	4.1430	0	36.2080	8	28.738	0	688.315	0	15.3	4	4.9	4	-1E+10	1	-1E+10	1	-1E+10	1	-1E+10	1	-1E+10	1	-1E+10	1
4901784	152	C	09/02/2019	10:47	-132.656	43.252	0	699.80	0	4.1290	0	36.2100	8	28.741	0	693.061	0	15.2	4	4.9	4	-1E+10	1	-1E+10	1	-1E+10	1	-1E+10	1	-1E+10	1	-1E+10	1
4901784	152	C	09/02/2019	10:47	-132.656	43.252	0	704.70	0	4.1150	0	36.2140	8	28.746	0	697.906	0	14.7	4	4.7	4	-1E+10	1	-1E+10	1	-1E+10	1	-1E+10	1	-1E+10	1	-1E+10	1
4901784	152	C	09/02/2019	10:47	-132.656	43.252	0	709.60	0	4.1230	0	36.2190	8	28.749	0	702.750	0	14.2	4	4.6	4	-1E+10	1	-1E+10	1	-1E+10	1	-1E+10	1	-1E+10	1	-1E+10	1
4901784	152	C	09/02/2019	10:47	-132.656	43.252	0	714.50	0	4.1210	0	36.2260	8	28.755	0	707.594	0	13.7	4	4.4	4	-1E+10	1	-1E+10	1	-1E+10	1	-1E+10	1	-1E+10	1	-1E+10	1
4901784	152	C	09/02/2019	10:47	-132.656	43.252	0	719.40	0	4.1240	0	36.2300	8	28.758	0	712.439	0	13.5	4	4.3	4	-1E+10	1	-1E+10	1	-1E+10	1	-1E+10	1	-1E+10	1	-1E+10	1
4901784	152	C	09/02/2019	10:47	-132.656	43.252	0	724.40	0	4.1000	0	36.2310	8	28.761	0	717.382	0	13.3	4	4.3	4	-1E+10	1	-1E+10	1	-1E+10	1	-1E+10	1	-1E+10	1	-1E+10	1
4901784	152	C	09/02/2019	10:47	-132.656	43.252	0	729.50	0	4.0880	0	36.2380	8	28.768	0	722.423	0	12.9	4	4.1	4	-1E+10	1	-1E+10	1	-1E+10	1	-1E+10	1	-1E+10	1	-1E+10	1
4901784	152	C	09/02/2019	10:47	-132.656	43.252	0	734.50	0	4.0740	0	36.2440	8	28.775	0	727.366	0	12.5	4	4.0	4	-1E+10	1	-1E+10	1	-1E+10	1	-1E+10	1	-1E+10	1	-1E+10	1
4901784	152	C	09/02/2019	10:47	-132.656	43.252	0	739.50	0	4.0800	0	36.2500	8	28.779	0	732.309	0	12.2	4	3.9	4	-1E+10	1	-1E+10	1	-1E+10	1	-1E+10	1	-1E+10	1	-1E+10	1
4901784	152	C	09/02/2019	10:47	-132.656	43.252	0	744.60	0	4.0540	0	36.2560	8	28.786	0	737.350	0	12.1	4	3.9	4	-1E+10	1	-1E+10	1	-1E+10	1	-1E+10	1	-1E+10	1	-1E+10	1
4901784	152	C	09/02/2019	10:47	-132.656	43.252	0	749.80	0	4.0260	0	36.2590	8	28.792	0	742.490	0	11.9	4	3.8	4	-1E+10	1	-1E+10	1	-1E+10	1	-1E+10	1	-1E+10	1	-1E+10	1
4901784	152	C	09/02/2019	10:47	-132.656	43.252	0	754.80	0	4.0330	0	36.2660	8	28.797	0	747.433	0	11.6	4	3.7	4	-1E+10	1	-1E+10	1	-1E+10	1	-1E+10	1	-1E+10	1	-1E+10	1
4901784	152	C	09/02/2019	10:47	-132.656	43.252	0	759.90	0	4.0200	0	36.2690	8	28.801	0	752.474	0	11.4	4	3.7	4	-1E+10	1	-1E+10	1	-1E+10	1	-1E+10	1	-1E+10	1	-1E+10	1
4901784	152	C	09/02/2019	10:47	-132.656	43.252	0	764.90	0	4.0100	0	36.2740	8	28.806	0	757.416	0	11.3	4	3.6	4	-1E+10	1	-1E+10	1	-1E+10	1	-1E+10	1	-1E+10	1	-1E+10	1
4901784	152	C	09/02/2019	10:47	-132.656	43.252	0	770.10	0	4.0000	0	36.2770	8	28.809	0	762.555	0	11.1	4	3.6	4	-1E+10	1	-1E+10	1	-1E+10	1	-1E+10	1	-1E+10	1	-1E+10	1
4901784	152	C	09/02/2019	10:47	-132.656	43.252	0	775.20	0	3.9810	0	36.2810	8	28.814	0	767.596	0	11.0	4	3.5	4	-1E+10	1	-1E+10	1	-1E+10	1	-1E+10	1	-1E+10	1	-1E+10	1
4901784	152	C	09/02/2019	10:47	-132.656	43.252	0	780.40	0	3.9550	0	36.2850	8	28.820	0	772.736	0	11.0	4	3.5	4	-1E+10	1	-1E+10	1	-1E+10	1	-1E+10	1	-1E+10	1	-1E+10	1
4901784	152	C	09/02/2019	10:47	-132.656	43.252	0	785.70	0	3.9400	0	36.2870	8	28.824	0	777.974	0	11.0	4	3.5	4	-1E+10	1	-1E+10	1	-1E+10	1	-1E+10	1	-1E+10	1	-1E+10	1
4901784	152	C	09/02/2019	10:47	-132.656	43.252	0	790.10	0	3.9310	0	36.2890	8	28.826	0	782.322	0	10.9	4	3.5	4	-1E+10	1	-1E+10	1	-1E+10	1	-1E+10	1	-1E+10	1	-1E+10	1
4901784	152	C	09/02/2019	10:47	-132.656	43.252	0	794.50	0	3.9240	0	36.2910	8	28.829	0	786.670	0	10.8	4	3.5	4	-1E+10	1	-1E+10	1	-1E+10	1	-1E+10	1	-1E+10	1	-1E+10	1
4901784	152	C	09/02/2019	10:47	-132.656	43.252	0	799.80	0	3.9050	0	36.2950	8	28.834	0	791.908	0	10.8	4	3.4	4	-1E+10	1	-1E+10	1	-1E+10	1	-1E+10	1	-1E+10	1	-1E+10	1
4901784	152	C	09/02/2019	10:47	-132.656	43.252	0	805.20	0	3.8900	0	36.2970	8	28.837	0	797.245	0	10.7	4	3.4	4	-1E+10	1	-1E+10	1	-1E+10	1	-1E+10	1	-1E+10	1	-1E+10	1
4901784	152	C	09/02/2019	10:47	-132.656	43.252	0	810.60	0	3.8670	0	36.3020	8	28.844	0	802.581	0	10.6	4	3.4	4	-1E+10	1	-1E+10	1	-1E+10	1	-1E+10	1	-1E+10	1	-1E+10	1
4901784	152	C	09/02/2019	10:47	-132.656	43.252	0	815.10	0	3.8500	0	36.3050	8	28.848	0	807.028	0	10.5	4	3.4	4	-1E+10	1	-1E+10	1	-1E+10	1	-1E+10	1	-1E+10	1	-1E+10	1
4901784	152	C	09/02/2019	10:47	-132.656	43.252	0	819.60	0	3.8430	0	36.3090	8	28.852	0	811.474	0	10.5	4	3.3	4	-1E+10	1	-1E+10	1	-1E+10	1	-1E+10	1	-1E+10	1	-1E+10	1
4901784	152	C	09/02/2019	10:47	-132.656	43.252	0	825.10	0	3.8200	0	36.3120	8	28.857	0	816.909	0	10.5	4	3.3	4	-1E+10	1	-1E+10	1	-1E+10	1	-1E+10	1	-1E+10	1	-1E+10	1
4901784	152	C	09/02/2019	10:47	-132.656	43.252	0	830.50	0	3.8060	0	36.3140	8	28.860	0	822.245	0	10.4	4	3.3	4	-1E+10	1	-1E+10	1	-1E+10	1	-1E+10	1	-1E+10	1	-1E+10	1
4901784	152	C	09/02/2019	10:47	-132.656	43.252	0	835.10	0	3.8040	0	36.3170	8	28.862	0	826.790	0	10.4	4	3.3	4	-1E+10	1	-1E+10	1	-1E+10	1	-1E+10	1	-1E+10	1	-1E+10	1
4901784	152	C	09/02/2019	10:47	-132.656	43.252	0	839.70	0	3.7940	0	36.3200	8	28.866	0	831.335	0	10.3	4	3.3	4	-1E+10	1	-1E+10	1	-1E+10	1	-1E+10	1	-1E+10	1	-1E+10	1
4901784	152	C	09/02/2019	10:47	-132.656	43.252	0	845.20	0	3.7900	0	36.3220	8	28.868	0	836.769	0	10.3	4	3.3	4	-1E+10	1	-1E+10	1	-1E+10	1	-1E+10	1	-1E+10	1	-1E+10	1
4901784	152	C	09/02/2019	10:47	-132.656	43.252	0	849.80	0	3.7860	0	36.3230	8	28.869	0	841.314	0	10.3	4	3.3	4	-1E+10	1	-1E+10	1	-1E+10	1	-1E+10	1	-1E+10	1	-1E+10	1
4901784	152	C	09/02/2019	10:47	-132.656	43.252	0	854.40	0	3.7730	0	36.3280	8	28.874	0	845.859	0	10.2	4	3.3	4	-1E+10	1	-1E+10	1	-1E+10	1	-1E+10	1	-1E+10	1	-1E+10	1
4901784	152	C	09/02/2019	10:47	-132.656	43.252	0	859.90	0	3.7630	0	36.3310	8	28.878	0	851.293	0	10.2	4	3.3	4	-1E+10	1	-1E+10	1	-1E+10	1	-1E+10	1	-1E+10	1	-1E+10	1
4901784	152	C	09/02/2019	10:47	-132.656	43.252	0	865.50	0	3.7520	0	36.3330	8	28.881	0	856.825	0	10.2	4	3.3	4	-1E+10	1	-1E+10	1	-1E+10	1	-1E+10	1	-1E+10	1	-1E+10	1
4901784	152	C	09/02/2019	10:47	-132.656	43.252	0	870.20	0	3.7410	0	36.3350	8	28.884	0	861.468	0	10.2	4	3.3	4	-1E+10	1	-1E+10	1	-1E+10	1	-1E+10	1	-1E+10	1	-1E+10	1
4901784	152	C	09/02/2019	10:47	-132.656	43.252	0	874.90	0	3.7330	0	36.3370	8	28.886	0	866.112	0	10.2	4	3.3	4	-1E+10	1	-1E+10	1	-1E+10	1	-1E+10	1	-1E+10	1	-1E+10	1
4901784	152	C	09/02/2019	10:47	-132.656	43.252	0	880.50	0	3.7170	0	36.3380	8	28.889	0	871.644	0	10.2	4	3.3	4	-1E+10	1	-1E+10	1	-1E+10	1	-1E+10	1	-1E+10	1	-1E+10	1
4901784	152	C	09/02/2019	10:47	-132.656	43.252	0	885.10	0	3.6950	0	36.3400	8	28.892	0	876.188	0	10.3	4	3.3	4	-1E+10	1	-1E+10	1	-1E+10	1	-1E+10	1	-1E+10	1	-1E+10	1
4901784	152	C	09/02/2019	10:47	-132.656	43.252	0	889.80	0	3.6760	0	36.3400	8	28.894	0	880.831	0	10.3	4	3.3	4	-1E+10	1	-1E+10	1	-1E+10	1	-1E+10	1	-1E+10	1	-1E+10	1
4901784	152	C	09/02/2019	10:47	-132.656	43.252	0	895.40	0	3.6640	0	36.3420	8	28.897	0	886.362	0	10.3	4	3.3	4	-1E+10	1	-1E+10	1	-1E+10	1	-1E+10	1	-1E+10	1	-1E+10	1
4901784	152	C	09/02/2019	10:47	-132.656	43.252	0	900.10	0	3.6500	0	36.3430	8	28.900	0	891.005	0	10.3	4	3.3	4	-1E+10	1	-1E+10	1	-1E+10	1	-1E+10	1	-1E+10	1	-1E+10	1
4901784	152	C	09/02/2019	10:47	-132.656	43.252	0	904.80	0	3.6250	0	36.3430	8	28.902	0	895.647	0	10.4	4	3.3	4	-1E+10	1	-1E+10	1	-1E+10	1	-1E+10	1	-1E+10	1	-1E+10	1
4901784	152	C	09/02/2019	10:47	-132.656	43.252	0	910.50	0	3.6150	0	36.3470	8	28.906	0	901.277	0	10.4	4	3.3	4	-1E+10	1	-1E+10	1	-1E+10	1	-1E+10	1	-1E+10	1	-1E+10	1
4901784	152	C	09/02/2019	10:47	-132.656	43.252	0	915.30	0	3.6110	0	36.3580	8	28.916	0	906.018	0	10.4	4	3.3	4	-1E+10	1	-1E+10	1	-1E+10	1	-1E+10	1	-1E+10	1	-1E+10	1
4901784	152	C	09/02/2019	10:47	-132.656	43.252	0	920.10	0	3.5860	0	36.3600	8	28.920	0	910.759	0	10.4	4	3.3	4	-1E+10	1	-1E+10	1	-1E+10	1	-1E+10	1	-1E+10	1	-1E+10	1
4901784	152	C	09/02/2019	10:47	-132.656	43.252	0	925.20	0	3.5700	0	36.3620	8	28.923	0	915.796	0	10.4	4	3.3	4	-1E+10	1	-1E+10	1	-1E+10	1	-1E+10	1	-1E+10	1	-1E+10	1
4901784	152	C	09/02/2019	10:47	-132.656	43.252	0	929.90	0	3.5500	0	36.3650	8	28.928	0	920.438	0	10.4	4	3.3	4	-1E+10	1	-1E+10	1	-1E+10	1	-1E+10	1	-1E+10	1	-1E+10	1
4901784	152	C	09/02/2019	10:47	-132.656	43.252	0	934.90	0	3.5450	0	36.3670	8	28.930	0	925.376	0	10.4	4	3.3	4	-1E+10	1	-1E+10	1	-1E+10	1	-1E+10	1	-1E+10	1	-1E+10	1
4901784	152	C	09/02/2019	10:47	-132.656	43.252	0	939.80	0	3.5390	0	36.3680	8	28.931	0	930.215	0	10.4	4	3.3	4	-1E+10	1	-1E+10	1	-1E+10	1	-1E+10	1	-1E+10	1	-1E+10	1
4901784	152	C	09/02/2019	10:47	-132.656	43.252	0	944.70	0	3.5500	0	36.3730	8	28.934	0	935.055	0	10.4	4	3.3	4	-1E+10	1	-1E+10	1	-1E+10	1	-1E+10	1	-1E+10	1	-1E+10	1
4901784	152	C	09/02/2019	10:47	-132.656	43.252	0	949.80	0	3.5330	0	36.3690	8	28.933	0	940.091	0	10.4	4	3.3	4	-1E+10	1	-1E+10	1	-1E+10	1	-1E+10	1	-1E+10	1	-1E+10	1
4901784	152	C	09/02/2019	10:47	-132.656	43.252	0	954.70	0	3.5280	0	36.3700	8	28.934	0	944.930	0	10.4	4	3.3	4	-1E+10	1	-1E+10	1	-1E+10	1	-1E+10	1	-1E+10	1	-1E+10	1
4901784	152	C	09/02/2019	10:47	-132.656	43.252	0	959.80	0	3.5190	0	36.3720	8	28.937	0	949.966	0	10.4	4	3.3	4	-1E+10	1	-1E+10	1	-1E+10	1	-1E+10	1	-1E+10	1	-1E+10	1
4901784	152	C	09/02/2019	10:47	-132.656	43.252	0	964.90	0	3.5150	0	36.3750	8	28.939	0	955.002	0	10.4	4	3.3	4	-1E+10	1	-1E+10	1	-1E+10	1	-1E+10	1	-1E+10	1	-1E+10	1
4901784	152	C	09/02/2019	10:47	-132.656	43.252	0	970.00	0	3.4960	0	36.3780	8	28.944	0	960.038	0	10.4	4	3.3	4	-1E+10	1	-1E+10	1	-1E+10	1	-1E+10	1	-1E+10	1	-1E+10	1
4901784	152	C	09/02/2019	10:47	-132.656	43.252	0	975.10	0	3.4800	0	36.3810	8	28.948	0	965.074	0	10.4	4	3.3	4	-1E+10	1	-1E+10	1	-1E+10	1	-1E+10	1	-1E+10	1	-1E+10	1
4901784	152	C	09/02/2019	10:47	-132.656	43.252	0	980.40	0	3.4700	0	36.3830	8	28.950	0	970.307	0	10.5	4	3.3	4	-1E+10	1	-1E+10	1	-1E+10	1	-1E+10	1	-1E+10	1	-1E+10	1
4901784	152	C	09/02/2019	10:47	-132.656	43.252	0	985.50	0	3.4610	0	36.3850	8	28.953	0	975.343	0	10.5	4	3.3	4	-1E+10	1	-1E+10	1	-1E+10	1	-1E+10	1	-1E+10	1	-1E+10	1
4901784	152	C	09/02/2019	10:47	-132.656	43.252	0	989.90	0	3.4540	0	36.3870	8	28.955	0	979.687	0	10.5	4	3.3	4	-1E+10	1	-1E+10	1	-1E+10	1	-1E+10	1	-1E+10	1	-1E+10	1
4901784	152	C	09/02/2019	10:47	-132.656	43.252	0	994.30	0	3.4480	0	36.3890	8	28.958	0	984.032	0	10.6	4	3.4	4	-1E+10	1	-1E+10	1	-1E+10	1	-1E+10	1	-1E+10	1	-1E+10	1
4901784	152	C	09/02/2019	10:47	-132.656	43.252	0	999.50	0	3.4390	0	36.3910	8	28.960	0	989.166	0	10.6	4	3.4	4	-1E+10	1	-1E+10	1	-1E+10	1	-1E+10	1	-1E+10	1	-1E+10	1
4901784	152	C	09/02/2019	10:47	-132.656	43.252	0	1004.90	0	3.4350	0	36.3920	8	28.961	0	994.497	0	10.7	4	3.4	4	-1E+10	1	-1E+10	1	-1E+10	1	-1E+10	1	-1E+10	1	-1E+10	1
4901784	152	C	09/02/2019	10:47	-132.656	43.252	0	1010.20	0	3.4240	0	36.3950	8	28.965	0	999.730	0	10.8	4	3.4	4	-1E+10	1	-1E+10	1	-1E+10	1	-1E+10	1	-1E+10	1	-1E+10	1
4901784	152	C	09/02/2019	10:47	-132.656	43.252	0	1015.50	0	3.4160	0	36.3970	8	28.967	0	1004.962	0	10.9	4	3.4	4	-1E+10	1	-1E+10	1	-1E+10	1	-1E+10	1	-1E+10	1	-1E+10	1
4901784	152	C	09/02/2019	10:47	-132.656	43.252	0	1020.00	0	3.4090	0	36.3990	8	28.970	0	1009.404	0	10.9	4	3.5	4	-1E+10	1	-1E+10	1	-1E+10	1	-1E+10	1	-1E+10	1	-1E+10	1
4901784	152	C	09/02/2019	10:47	-132.656	43.252	0	1024.60	0	3.4000	0	36.4000	8	28.971	0	1013.945	0	11.0	4	3.5	4	-1E+10	1	-1E+10	1	-1E+10	1	-1E+10	1	-1E+10	1	-1E+10	1
4901784	152	C	09/02/2019	10:47	-132.656	43.252	0	1030.00	0	3.3840	0	36.4030	8	28.975	0	1019.276	0	11.1	4	3.5	4	-1E+10	1	-1E+10	1	-1E+10	1	-1E+10	1	-1E+10	1	-1E+10	1
4901784	152	C	09/02/2019	10:47	-132.656	43.252	0	1035.50	0	3.3720	0	36.4050	8	28.978	0	1024.706	0	11.1	4	3.5	4	-1E+10	1	-1E+10	1	-1E+10	1	-1E+10	1	-1E+10	1	-1E+10	1
4901784	152	C	09/02/2019	10:47	-132.656	43.252	0	1040.10	0	3.3650	0	36.4060	8	28.980	0	1029.246	0	11.2	4	3.5	4	-1E+10	1	-1E+10	1	-1E+10	1	-1E+10	1	-1E+10	1	-1E+10	1
4901784	152	C	09/02/2019	10:47	-132.656	43.252	0	1044.80	0	3.3550	0	36.4080	8	28.982	0	1033.886	0	11.2	4	3.5	4	-1E+10	1	-1E+10	1	-1E+10	1	-1E+10	1	-1E+10	1	-1E+10	1
4901784	152	C	09/02/2019	10:47	-132.656	43.252	0	1050.10	0	3.3410	0	36.4100	8	28.986	0	1039.117	0	11.3	4	3.6	4	-1E+10	1	-1E+10	1	-1E+10	1	-1E+10	1	-1E+10	1	-1E+10	1
4901784	152	C	09/02/2019	10:47	-132.656	43.252	0	1054.40	0	3.3350	0	36.4120	8	28.988	0	1043.362	0	11.3	4	3.6	4	-1E+10	1	-1E+10	1	-1E+10	1	-1E+10	1	-1E+10	1	-1E+10	1
4901784	152	C	09/02/2019	10:47	-132.656	43.252	0	1059.90	0	3.3230	0	36.4140	8	28.991	0	1048.790	0	11.4	4	3.6	4	-1E+10	1	-1E+10	1	-1E+10	1	-1E+10	1	-1E+10	1	-1E+10	1
4901784	152	C	09/02/2019	10:47	-132.656	43.252	0	1065.60	0	3.3110	0	36.4150	8	28.993	0	1054.416	0	11.5	4	3.6	4	-1E+10	1	-1E+10	1	-1E+10	1	-1E+10	1	-1E+10	1	-1E+10	1
4901784	152	C	09/02/2019	10:47	-132.656	43.252	0	1070.50	0	3.2990	0	36.4170	8	28.995	0	1059.252	0	11.6	4	3.7	4	-1E+10	1	-1E+10	1	-1E+10	1	-1E+10	1	-1E+10	1	-1E+10	1
4901784	152	C	09/02/2019	10:47	-132.656	43.252	0	1075.50	0	3.2880	0	36.4190	8	28.998	0	1064.187	0	11.7	4	3.7	4	-1E+10	1	-1E+10	1	-1E+10	1	-1E+10	1	-1E+10	1	-1E+10	1
4901784	152	C	09/02/2019	10:47	-132.656	43.252	0	1080.50	0	3.2730	0	36.4220	8	29.002	0	1069.122	0	11.8	4	3.7	4	-1E+10	1	-1E+10	1	-1E+10	1	-1E+10	1	-1E+10	1	-1E+10	1
4901784	152	C	09/02/2019	10:47	-132.656	43.252	0	1085.60	0	3.2630	0	36.4240	8	29.005	0	1074.155	0	11.9	4	3.8	4	-1E+10	1	-1E+10	1	-1E+10	1	-1E+10	1	-1E+10	1	-1E+10	1
4901784	152	C	09/02/2019	10:47	-132.656	43.252	0	1090.70	0	3.2480	0	36.4260	8	29.008	0	1079.188	0	12.0	4	3.8	4	-1E+10	1	-1E+10	1	-1E+10	1	-1E+10	1	-1E+10	1	-1E+10	1
4901784	152	C	09/02/2019	10:47	-132.656	43.252	0	1095.00	0	3.2360	0	36.4280	8	29.011	0	1083.432	0	12.1	4	3.8	4	-1E+10	1	-1E+10	1	-1E+10	1	-1E+10	1	-1E+10	1	-1E+10	1
4901784	152	C	09/02/2019	10:47	-132.656	43.252	0	1099.20	0	3.2230	0	36.4310	8	29.014	0	1087.576	0	12.3	4	3.9	4	-1E+10	1	-1E+10	1	-1E+10	1	-1E+10	1	-1E+10	1	-1E+10	1
4901784	152	C	09/02/2019	10:47	-132.656	43.252	0	1104.30	0	3.2130	0	36.4330	8	29.017	0	1092.609	0	12.3	4	3.9	4	-1E+10	1	-1E+10	1	-1E+10	1	-1E+10	1	-1E+10	1	-1E+10	1
4901784	152	C	09/02/2019	10:47	-132.656	43.252	0	1109.40	0	3.2120	0	36.4330	8	29.017	0	1097.642	0	12.4	4	3.9	4	-1E+10	1	-1E+10	1	-1E+10	1	-1E+10	1	-1E+10	1	-1E+10	1
4901784	152	C	09/02/2019	10:47	-132.656	43.252	0	1114.60	0	3.2040	0	36.4340	8	29.019	0	1102.773	0	12.5	4	3.9	4	-1E+10	1	-1E+10	1	-1E+10	1	-1E+10	1	-1E+10	1	-1E+10	1
4901784	152	C	09/02/2019	10:47	-132.656	43.252	0	1119.70	0	3.1930	0	36.4360	8	29.021	0	1107.806	0	12.6	4	4.0	4	-1E+10	1	-1E+10	1	-1E+10	1	-1E+10	1	-1E+10	1	-1E+10	1
4901784	152	C	09/02/2019	10:47	-132.656	43.252	0	1125.00	0	3.1820	0	36.4370	8	29.023	0	1113.035	0	12.8	4	4.0	4	-1E+10	1	-1E+10	1	-1E+10	1	-1E+10	1	-1E+10	1	-1E+10	1
4901784	152	C	09/02/2019	10:47	-132.656	43.252	0	1130.30	0	3.1710	0	36.4390	8	29.026	0	1118.265	0	12.9	4	4.1	4	-1E+10	1	-1E+10	1	-1E+10	1	-1E+10	1	-1E+10	1	-1E+10	1
4901784	152	C	09/02/2019	10:47	-132.656	43.252	0	1135.60	0	3.1550	0	36.4420	8	29.030	0	1123.494	0	13.1	4	4.1	4	-1E+10	1	-1E+10	1	-1E+10	1	-1E+10	1	-1E+10	1	-1E+10	1
4901784	152	C	09/02/2019	10:47	-132.656	43.252	0	1140.10	0	3.1460	0	36.4440	8	29.032	0	1127.934	0	13.2	4	4.2	4	-1E+10	1	-1E+10	1	-1E+10	1	-1E+10	1	-1E+10	1	-1E+10	1
4901784	152	C	09/02/2019	10:47	-132.656	43.252	0	1144.50	0	3.1400	0	36.4450	8	29.034	0	1132.275	0	13.3	4	4.2	4	-1E+10	1	-1E+10	1	-1E+10	1	-1E+10	1	-1E+10	1	-1E+10	1
4901784	152	C	09/02/2019	10:47	-132.656	43.252	0	1149.90	0	3.1320	0	36.4470	8	29.036	0	1137.603	0	13.4	4	4.2	4	-1E+10	1	-1E+10	1	-1E+10	1	-1E+10	1	-1E+10	1	-1E+10	1
4901784	152	C	09/02/2019	10:47	-132.656	43.252	0	1155.30	0	3.1250	0	36.4490	8	29.039	0	1142.931	0	13.5	4	4.2	4	-1E+10	1	-1E+10	1	-1E+10	1	-1E+10	1	-1E+10	1	-1E+10	1
4901784	152	C	09/02/2019	10:47	-132.656	43.252	0	1159.80	0	3.1210	0	36.4490	8	29.039	0	1147.370	0	13.6	4	4.3	4	-1E+10	1	-1E+10	1	-1E+10	1	-1E+10	1	-1E+10	1	-1E+10	1
4901784	152	C	09/02/2019	10:47	-132.656	43.252	0	1164.40	0	3.1130	0	36.4500	8	29.041	0	1151.908	0	13.7	4	4.3	4	-1E+10	1	-1E+10	1	-1E+10	1	-1E+10	1	-1E+10	1	-1E+10	1
4901784	152	C	09/02/2019	10:47	-132.656	43.252	0	1170.00	0	3.1010	0	36.4520	8	29.043	0	1157.433	0	13.9	4	4.4	4	-1E+10	1	-1E+10	1	-1E+10	1	-1E+10	1	-1E+10	1	-1E+10	1
4901784	152	C	09/02/2019	10:47	-132.656	43.252	0	1175.60	0	3.0900	0	36.4540	8	29.046	0	1162.957	0	14.1	4	4.4	4	-1E+10	1	-1E+10	1	-1E+10	1	-1E+10	1	-1E+10	1	-1E+10	1
4901784	152	C	09/02/2019	10:47	-132.656	43.252	0	1180.30	0	3.0790	0	36.4560	8	29.049	0	1167.594	0	14.2	4	4.5	4	-1E+10	1	-1E+10	1	-1E+10	1	-1E+10	1	-1E+10	1	-1E+10	1
4901784	152	C	09/02/2019	10:47	-132.656	43.252	0	1184.90	0	3.0670	0	36.4580	8	29.052	0	1172.131	0	14.4	4	4.5	4	-1E+10	1	-1E+10	1	-1E+10	1	-1E+10	1	-1E+10	1	-1E+10	1
4901784	152	C	09/02/2019	10:47	-132.656	43.252	0	1190.50	0	3.0580	0	36.4600	8	29.054	0	1177.655	0	14.5	4	4.6	4	-1E+10	1	-1E+10	1	-1E+10	1	-1E+10	1	-1E+10	1	-1E+10	1
4901784	152	C	09/02/2019	10:47	-132.656	43.252	0	1195.30	0	3.0450	0	36.4620	8	29.057	0	1182.390	0	14.7	4	4.6	4	-1E+10	1	-1E+10	1	-1E+10	1	-1E+10	1	-1E+10	1	-1E+10	1
4901784	152	C	09/02/2019	10:47	-132.656	43.252	0	1199.90	0	3.0400	0	36.4630	8	29.058	0	1186.927	0	14.7	4	4.6	4	-1E+10	1	-1E+10	1	-1E+10	1	-1E+10	1	-1E+10	1	-1E+10	1
4901784	152	C	09/02/2019	10:47	-132.656	43.252	0	1205.50	0	3.0340	0	36.4630	8	29.059	0	1192.451	0	14.8	4	4.7	4	-1E+10	1	-1E+10	1	-1E+10	1	-1E+10	1	-1E+10	1	-1E+10	1
4901784	152	C	09/02/2019	10:47	-132.656	43.252	0	1210.40	0	3.0240	0	36.4650	8	29.062	0	1197.284	0	15.0	4	4.7	4	-1E+10	1	-1E+10	1	-1E+10	1	-1E+10	1	-1E+10	1	-1E+10	1
4901784	152	C	09/02/2019	10:47	-132.656	43.252	0	1214.90	0	3.0190	0	36.4670	8	29.064	0	1201.722	0	15.2	4	4.8	4	-1E+10	1	-1E+10	1	-1E+10	1	-1E+10	1	-1E+10	1	-1E+10	1
4901784	152	C	09/02/2019	10:47	-132.656	43.252	0	1219.80	0	3.0150	0	36.4680	8	29.065	0	1206.555	0	15.4	4	4.8	4	-1E+10	1	-1E+10	1	-1E+10	1	-1E+10	1	-1E+10	1	-1E+10	1
4901784	152	C	09/02/2019	10:47	-132.656	43.252	0	1224.80	0	3.0070	0	36.4690	8	29.066	0	1211.486	0	15.6	4	4.9	4	-1E+10	1	-1E+10	1	-1E+10	1	-1E+10	1	-1E+10	1	-1E+10	1
4901784	152	C	09/02/2019	10:47	-132.656	43.252	0	1229.80	0	3.0020	0	36.4700	8	29.068	0	1216.418	0	15.7	4	4.9	4	-1E+10	1	-1E+10	1	-1E+10	1	-1E+10	1	-1E+10	1	-1E+10	1
4901784	152	C	09/02/2019	10:47	-132.656	43.252	0	1234.80	0	2.9900	0	36.4710	8	29.070	0	1221.349	0	15.8	4	4.9	4	-1E+10	1	-1E+10	1	-1E+10	1	-1E+10	1	-1E+10	1	-1E+10	1
4901784	152	C	09/02/2019	10:47	-132.656	43.252	0	1239.90	0	2.9800	0	36.4720	8	29.072	0	1226.378	0	16.0	4	5.0	4	-1E+10	1	-1E+10	1	-1E+10	1	-1E+10	1	-1E+10	1	-1E+10	1
4901784	152	C	09/02/2019	10:47	-132.656	43.252	0	1245.00	0	2.9670	0	36.4740	8	29.074	0	1231.408	0	16.2	4	5.1	4	-1E+10	1	-1E+10	1	-1E+10	1	-1E+10	1	-1E+10	1	-1E+10	1
4901784	152	C	09/02/2019	10:47	-132.656	43.252	0	1250.00	0	2.9490	0	36.4770	8	29.079	0	1236.338	0	16.4	4	5.1	4	-1E+10	1	-1E+10	1	-1E+10	1	-1E+10	1	-1E+10	1	-1E+10	1
4901784	152	C	09/02/2019	10:47	-132.656	43.252	0	1255.10	0	2.9400	0	36.4780	8	29.080	0	1241.368	0	16.5	4	5.2	4	-1E+10	1	-1E+10	1	-1E+10	1	-1E+10	1	-1E+10	1	-1E+10	1
4901784	152	C	09/02/2019	10:47	-132.656	43.252	0	1260.20	0	2.9340	0	36.4780	8	29.081	0	1246.397	0	16.7	4	5.2	4	-1E+10	1	-1E+10	1	-1E+10	1	-1E+10	1	-1E+10	1	-1E+10	1
4901784	152	C	09/02/2019	10:47	-132.656	43.252	0	1265.40	0	2.9210	0	36.4800	8	29.084	0	1251.524	0	16.8	4	5.3	4	-1E+10	1	-1E+10	1	-1E+10	1	-1E+10	1	-1E+10	1	-1E+10	1
4901784	152	C	09/02/2019	10:47	-132.656	43.252	0	1270.60	0	2.9110	0	36.4810	8	29.085	0	1256.652	0	17.0	4	5.3	4	-1E+10	1	-1E+10	1	-1E+10	1	-1E+10	1	-1E+10	1	-1E+10	1
4901784	152	C	09/02/2019	10:47	-132.656	43.252	0	1274.90	0	2.9040	0	36.4820	8	29.087	0	1260.892	0	17.1	4	5.4	4	-1E+10	1	-1E+10	1	-1E+10	1	-1E+10	1	-1E+10	1	-1E+10	1
4901784	152	C	09/02/2019	10:47	-132.656	43.252	0	1279.30	0	2.8940	0	36.4940	8	29.098	0	1265.230	0	17.3	4	5.4	4	-1E+10	1	-1E+10	1	-1E+10	1	-1E+10	1	-1E+10	1	-1E+10	1
4901784	152	C	09/02/2019	10:47	-132.656	43.252	0	1284.70	0	2.8830	0	36.4960	8	29.100	0	1270.554	0	17.5	4	5.5	4	-1E+10	1	-1E+10	1	-1E+10	1	-1E+10	1	-1E+10	1	-1E+10	1
4901784	152	C	09/02/2019	10:47	-132.656	43.252	0	1290.10	0	2.8750	0	36.4970	8	29.102	0	1275.879	0	17.7	4	5.5	4	-1E+10	1	-1E+10	1	-1E+10	1	-1E+10	1	-1E+10	1	-1E+10	1
4901784	152	C	09/02/2019	10:47	-132.656	43.252	0	1295.40	0	2.8660	0	36.4980	8	29.103	0	1281.104	0	17.9	4	5.6	4	-1E+10	1	-1E+10	1	-1E+10	1	-1E+10	1	-1E+10	1	-1E+10	1
4901784	152	C	09/02/2019	10:47	-132.656	43.252	0	1300.00	0	2.8580	0	36.4990	8	29.105	0	1285.639	0	18.1	4	5.6	4	-1E+10	1	-1E+10	1	-1E+10	1	-1E+10	1	-1E+10	1	-1E+10	1
4901784	152	C	09/02/2019	10:47	-132.656	43.252	0	1304.50	0	2.8470	0	36.5010	8	29.108	0	1290.076	0	18.2	4	5.7	4	-1E+10	1	-1E+10	1	-1E+10	1	-1E+10	1	-1E+10	1	-1E+10	1
4901784	152	C	09/02/2019	10:47	-132.656	43.252	0	1310.00	0	2.8380	0	36.5020	8	29.109	0	1295.498	0	18.4	4	5.8	4	-1E+10	1	-1E+10	1	-1E+10	1	-1E+10	1	-1E+10	1	-1E+10	1
4901784	152	C	09/02/2019	10:47	-132.656	43.252	0	1315.50	0	2.8280	0	36.5030	8	29.111	0	1300.920	0	18.6	4	5.8	4	-1E+10	1	-1E+10	1	-1E+10	1	-1E+10	1	-1E+10	1	-1E+10	1
4901784	152	C	09/02/2019	10:47	-132.656	43.252	0	1320.00	0	2.8200	0	36.5040	8	29.113	0	1305.357	0	18.8	4	5.9	4	-1E+10	1	-1E+10	1	-1E+10	1	-1E+10	1	-1E+10	1	-1E+10	1
4901784	152	C	09/02/2019	10:47	-132.656	43.252	0	1324.50	0	2.8140	0	36.5050	8	29.114	0	1309.793	0	18.9	4	5.9	4	-1E+10	1	-1E+10	1	-1E+10	1	-1E+10	1	-1E+10	1	-1E+10	1
4901784	152	C	09/02/2019	10:47	-132.656	43.252	0	1330.10	0	2.8100	0	36.5050	8	29.115	0	1315.313	0	19.1	4	6.0	4	-1E+10	1	-1E+10	1	-1E+10	1	-1E+10	1	-1E+10	1	-1E+10	1
4901784	152	C	09/02/2019	10:47	-132.656	43.252	0	1334.70	0	2.8000	0	36.5070	8	29.117	0	1319.847	0	19.3	4	6.0	4	-1E+10	1	-1E+10	1	-1E+10	1	-1E+10	1	-1E+10	1	-1E+10	1
4901784	152	C	09/02/2019	10:47	-132.656	43.252	0	1339.30	0	2.7890	0	36.5090	8	29.120	0	1324.382	0	19.6	4	6.1	4	-1E+10	1	-1E+10	1	-1E+10	1	-1E+10	1	-1E+10	1	-1E+10	1
4901784	152	C	09/02/2019	10:47	-132.656	43.252	0	1345.50	0	2.7780	0	36.5110	8	29.122	0	1330.493	0	19.9	4	6.2	4	-1E+10	1	-1E+10	1	-1E+10	1	-1E+10	1	-1E+10	1	-1E+10	1
4901784	152	C	09/02/2019	10:47	-132.656	43.252	0	1350.40	0	2.7680	0	36.5120	8	29.124	0	1335.323	0	20.1	4	6.3	4	-1E+10	1	-1E+10	1	-1E+10	1	-1E+10	1	-1E+10	1	-1E+10	1
4901784	152	C	09/02/2019	10:47	-132.656	43.252	0	1355.10	0	2.7620	0	36.5130	8	29.126	0	1339.956	0	20.3	4	6.3	4	-1E+10	1	-1E+10	1	-1E+10	1	-1E+10	1	-1E+10	1	-1E+10	1
4901784	152	C	09/02/2019	10:47	-132.656	43.252	0	1359.80	0	2.7530	0	36.5140	8	29.127	0	1344.588	0	20.4	4	6.4	4	-1E+10	1	-1E+10	1	-1E+10	1	-1E+10	1	-1E+10	1	-1E+10	1
4901784	152	C	09/02/2019	10:47	-132.656	43.252	0	1364.60	0	2.7480	0	36.5150	8	29.129	0	1349.319	0	20.6	4	6.4	4	-1E+10	1	-1E+10	1	-1E+10	1	-1E+10	1	-1E+10	1	-1E+10	1
4901784	152	C	09/02/2019	10:47	-132.656	43.252	0	1369.50	0	2.7430	0	36.5150	8	29.129	0	1354.148	0	20.7	4	6.5	4	-1E+10	1	-1E+10	1	-1E+10	1	-1E+10	1	-1E+10	1	-1E+10	1
4901784	152	C	09/02/2019	10:47	-132.656	43.252	0	1374.60	0	2.7340	0	36.5160	8	29.131	0	1359.175	0	21.0	4	6.5	4	-1E+10	1	-1E+10	1	-1E+10	1	-1E+10	1	-1E+10	1	-1E+10	1
4901784	152	C	09/02/2019	10:47	-132.656	43.252	0	1379.90	0	2.7240	0	36.5180	8	29.133	0	1364.398	0	21.2	4	6.6	4	-1E+10	1	-1E+10	1	-1E+10	1	-1E+10	1	-1E+10	1	-1E+10	1
4901784	152	C	09/02/2019	10:47	-132.656	43.252	0	1385.20	0	2.7150	0	36.5190	8	29.135	0	1369.621	0	21.5	4	6.7	4	-1E+10	1	-1E+10	1	-1E+10	1	-1E+10	1	-1E+10	1	-1E+10	1
4901784	152	C	09/02/2019	10:47	-132.656	43.252	0	1390.40	0	2.7060	0	36.5210	8	29.137	0	1374.746	0	21.7	4	6.7	4	-1E+10	1	-1E+10	1	-1E+10	1	-1E+10	1	-1E+10	1	-1E+10	1
4901784	152	C	09/02/2019	10:47	-132.656	43.252	0	1394.90	0	2.7040	0	36.5210	8	29.138	0	1379.181	0	21.8	4	6.8	4	-1E+10	1	-1E+10	1	-1E+10	1	-1E+10	1	-1E+10	1	-1E+10	1
4901784	152	C	09/02/2019	10:47	-132.656	43.252	0	1399.30	0	2.7010	0	36.5210	8	29.138	0	1383.517	0	22.0	4	6.8	4	-1E+10	1	-1E+10	1	-1E+10	1	-1E+10	1	-1E+10	1	-1E+10	1
4901784	152	C	09/02/2019	10:47	-132.656	43.252	0	1404.80	0	2.6890	0	36.5220	8	29.140	0	1388.937	0	22.3	4	6.9	4	-1E+10	1	-1E+10	1	-1E+10	1	-1E+10	1	-1E+10	1	-1E+10	1
4901784	152	C	09/02/2019	10:47	-132.656	43.252	0	1410.20	0	2.6750	0	36.5240	8	29.143	0	1394.258	0	22.6	4	7.0	4	-1E+10	1	-1E+10	1	-1E+10	1	-1E+10	1	-1E+10	1	-1E+10	1
4901784	152	C	09/02/2019	10:47	-132.656	43.252	0	1415.60	0	2.6650	0	36.5260	8	29.145	0	1399.579	0	22.9	4	7.1	4	-1E+10	1	-1E+10	1	-1E+10	1	-1E+10	1	-1E+10	1	-1E+10	1
4901784	152	C	09/02/2019	10:47	-132.656	43.252	0	1420.20	0	2.6560	0	36.5270	8	29.147	0	1404.111	0	23.2	4	7.2	4	-1E+10	1	-1E+10	1	-1E+10	1	-1E+10	1	-1E+10	1	-1E+10	1
4901784	152	C	09/02/2019	10:47	-132.656	43.252	0	1424.90	0	2.6450	0	36.5280	8	29.149	0	1408.743	0	23.5	4	7.3	4	-1E+10	1	-1E+10	1	-1E+10	1	-1E+10	1	-1E+10	1	-1E+10	1
4901784	152	C	09/02/2019	10:47	-132.656	43.252	0	1430.40	0	2.6330	0	36.5300	8	29.152	0	1414.162	0	23.9	4	7.4	4	-1E+10	1	-1E+10	1	-1E+10	1	-1E+10	1	-1E+10	1	-1E+10	1
4901784	152	C	09/02/2019	10:47	-132.656	43.252	0	1435.10	0	2.6260	0	36.5320	8	29.154	0	1418.793	0	24.1	4	7.5	4	-1E+10	1	-1E+10	1	-1E+10	1	-1E+10	1	-1E+10	1	-1E+10	1
4901784	152	C	09/02/2019	10:47	-132.656	43.252	0	1439.70	0	2.6190	0	36.5330	8	29.155	0	1423.325	0	24.3	4	7.6	4	-1E+10	1	-1E+10	1	-1E+10	1	-1E+10	1	-1E+10	1	-1E+10	1
4901784	152	C	09/02/2019	10:47	-132.656	43.252	0	1445.30	0	2.6110	0	36.5340	8	29.157	0	1428.842	0	24.6	4	7.6	4	-1E+10	1	-1E+10	1	-1E+10	1	-1E+10	1	-1E+10	1	-1E+10	1
4901784	152	C	09/02/2019	10:47	-132.656	43.252	0	1450.00	0	2.6020	0	36.5350	8	29.158	0	1433.473	0	24.8	4	7.7	4	-1E+10	1	-1E+10	1	-1E+10	1	-1E+10	1	-1E+10	1	-1E+10	1
4901784	152	C	09/02/2019	10:47	-132.656	43.252	0	1454.80	0	2.5950	0	36.5360	8	29.160	0	1438.202	0	25.1	4	7.8	4	-1E+10	1	-1E+10	1	-1E+10	1	-1E+10	1	-1E+10	1	-1E+10	1
4901784	152	C	09/02/2019	10:47	-132.656	43.252	0	1460.50	0	2.5830	0	36.5380	8	29.163	0	1443.817	0	25.4	4	7.9	4	-1E+10	1	-1E+10	1	-1E+10	1	-1E+10	1	-1E+10	1	-1E+10	1
4901784	152	C	09/02/2019	10:47	-132.656	43.252	0	1465.30	0	2.5760	0	36.5380	8	29.163	0	1448.546	0	25.7	4	8.0	4	-1E+10	1	-1E+10	1	-1E+10	1	-1E+10	1	-1E+10	1	-1E+10	1
4901784	152	C	09/02/2019	10:47	-132.656	43.252	0	1470.00	0	2.5620	0	36.5400	8	29.166	0	1453.176	0	26.0	4	8.1	4	-1E+10	1	-1E+10	1	-1E+10	1	-1E+10	1	-1E+10	1	-1E+10	1
4901784	152	C	09/02/2019	10:47	-132.656	43.252	0	1474.70	0	2.5540	0	36.5410	8	29.168	0	1457.806	0	26.3	4	8.2	4	-1E+10	1	-1E+10	1	-1E+10	1	-1E+10	1	-1E+10	1	-1E+10	1
4901784	152	C	09/02/2019	10:47	-132.656	43.252	0	1479.50	0	2.5440	0	36.5420	8	29.169	0	1462.534	0	26.6	4	8.3	4	-1E+10	1	-1E+10	1	-1E+10	1	-1E+10	1	-1E+10	1	-1E+10	1
4901784	152	C	09/02/2019	10:47	-132.656	43.252	0	1485.30	0	2.5350	0	36.5430	8	29.171	0	1468.248	0	26.9	4	8.4	4	-1E+10	1	-1E+10	1	-1E+10	1	-1E+10	1	-1E+10	1	-1E+10	1
4901784	152	C	09/02/2019	10:47	-132.656	43.252	0	1490.20	0	2.5220	0	36.5450	8	29.174	0	1473.074	0	27.2	4	8.4	4	-1E+10	1	-1E+10	1	-1E+10	1	-1E+10	1	-1E+10	1	-1E+10	1
4901784	152	C	09/02/2019	10:47	-132.656	43.252	0	1495.10	0	2.5130	0	36.5460	8	29.176	0	1477.901	0	27.6	4	8.6	4	-1E+10	1	-1E+10	1	-1E+10	1	-1E+10	1	-1E+10	1	-1E+10	1
4901784	152	C	09/02/2019	10:47	-132.656	43.252	0	1500.50	0	2.5060	0	36.5480	8	29.178	0	1483.220	0	27.9	4	8.6	4	-1E+10	1	-1E+10	1	-1E+10	1	-1E+10	1	-1E+10	1	-1E+10	1
4901784	152	C	09/02/2019	10:47	-132.656	43.252	0	1504.90	0	2.5030	0	36.5480	8	29.178	0	1487.554	0	28.1	4	8.7	4	-1E+10	1	-1E+10	1	-1E+10	1	-1E+10	1	-1E+10	1	-1E+10	1
4901784	152	C	09/02/2019	10:47	-132.656	43.252	0	1509.30	0	2.4990	0	36.5490	8	29.179	0	1491.888	0	28.3	4	8.8	4	-1E+10	1	-1E+10	1	-1E+10	1	-1E+10	1	-1E+10	1	-1E+10	1
4901784	152	C	09/02/2019	10:47	-132.656	43.252	0	1514.60	0	2.4920	0	36.5500	8	29.181	0	1497.108	0	28.6	4	8.9	4	-1E+10	1	-1E+10	1	-1E+10	1	-1E+10	1	-1E+10	1	-1E+10	1
4901784	152	C	09/02/2019	10:47	-132.656	43.252	0	1519.90	0	2.4800	0	36.5510	8	29.183	0	1502.328	0	29.0	4	9.0	4	-1E+10	1	-1E+10	1	-1E+10	1	-1E+10	1	-1E+10	1	-1E+10	1
4901784	152	C	09/02/2019	10:47	-132.656	43.252	0	1525.30	0	2.4710	0	36.5520	8	29.184	0	1507.646	0	29.3	4	9.1	4	-1E+10	1	-1E+10	1	-1E+10	1	-1E+10	1	-1E+10	1	-1E+10	1
4901784	152	C	09/02/2019	10:47	-132.656	43.252	0	1529.80	0	2.4600	0	36.5530	8	29.186	0	1512.078	0	29.7	4	9.2	4	-1E+10	1	-1E+10	1	-1E+10	1	-1E+10	1	-1E+10	1	-1E+10	1
4901784	152	C	09/02/2019	10:47	-132.656	43.252	0	1534.30	0	2.4510	0	36.5540	8	29.188	0	1516.510	0	29.9	4	9.3	4	-1E+10	1	-1E+10	1	-1E+10	1	-1E+10	1	-1E+10	1	-1E+10	1
4901784	152	C	09/02/2019	10:47	-132.656	43.252	0	1539.80	0	2.4460	0	36.5550	8	29.189	0	1521.926	0	30.1	4	9.3	4	-1E+10	1	-1E+10	1	-1E+10	1	-1E+10	1	-1E+10	1	-1E+10	1
4901784	152	C	09/02/2019	10:47	-132.656	43.252	0	1545.20	0	2.4380	0	36.5560	8	29.191	0	1527.244	0	30.4	4	9.4	4	-1E+10	1	-1E+10	1	-1E+10	1	-1E+10	1	-1E+10	1	-1E+10	1
4901784	152	C	09/02/2019	10:47	-132.656	43.252	0	1549.70	0	2.4320	0	36.5570	8	29.192	0	1531.675	0	30.6	4	9.5	4	-1E+10	1	-1E+10	1	-1E+10	1	-1E+10	1	-1E+10	1	-1E+10	1
4901784	152	C	09/02/2019	10:47	-132.656	43.252	0	1554.30	0	2.4280	0	36.5570	8	29.192	0	1536.205	0	30.8	4	9.5	4	-1E+10	1	-1E+10	1	-1E+10	1	-1E+10	1	-1E+10	1	-1E+10	1
4901784	152	C	09/02/2019	10:47	-132.656	43.252	0	1559.90	0	2.4200	0	36.5580	8	29.194	0	1541.720	0	31.2	4	9.7	4	-1E+10	1	-1E+10	1	-1E+10	1	-1E+10	1	-1E+10	1	-1E+10	1
4901784	152	C	09/02/2019	10:47	-132.656	43.252	0	1565.40	0	2.4090	0	36.5590	8	29.196	0	1547.135	0	31.7	4	9.8	4	-1E+10	1	-1E+10	1	-1E+10	1	-1E+10	1	-1E+10	1	-1E+10	1
4901784	152	C	09/02/2019	10:47	-132.656	43.252	0	1569.90	0	2.4020	0	36.5600	8	29.197	0	1551.566	0	32.0	4	9.9	4	-1E+10	1	-1E+10	1	-1E+10	1	-1E+10	1	-1E+10	1	-1E+10	1
4901784	152	C	09/02/2019	10:47	-132.656	43.252	0	1574.60	0	2.3920	0	36.5610	8	29.199	0	1556.194	0	32.4	4	10.0	4	-1E+10	1	-1E+10	1	-1E+10	1	-1E+10	1	-1E+10	1	-1E+10	1
4901784	152	C	09/02/2019	10:47	-132.656	43.252	0	1580.10	0	2.3810	0	36.5630	8	29.201	0	1561.610	0	32.8	4	10.1	4	-1E+10	1	-1E+10	1	-1E+10	1	-1E+10	1	-1E+10	1	-1E+10	1
4901784	152	C	09/02/2019	10:47	-132.656	43.252	0	1585.20	0	2.3700	0	36.5640	8	29.203	0	1566.631	0	33.2	4	10.3	4	-1E+10	1	-1E+10	1	-1E+10	1	-1E+10	1	-1E+10	1	-1E+10	1
4901784	152	C	09/02/2019	10:47	-132.656	43.252	0	1589.40	0	2.3610	0	36.5660	8	29.206	0	1570.766	0	33.5	4	10.3	4	-1E+10	1	-1E+10	1	-1E+10	1	-1E+10	1	-1E+10	1	-1E+10	1
4901784	152	C	09/02/2019	10:47	-132.656	43.252	0	1594.30	0	2.3560	0	36.5660	8	29.206	0	1575.591	0	33.8	4	10.4	4	-1E+10	1	-1E+10	1	-1E+10	1	-1E+10	1	-1E+10	1	-1E+10	1
4901784	152	C	09/02/2019	10:47	-132.656	43.252	0	1600.00	0	2.3470	0	36.5670	8	29.208	0	1581.202	0	34.1	4	10.5	4	-1E+10	1	-1E+10	1	-1E+10	1	-1E+10	1	-1E+10	1	-1E+10	1
4901784	152	C	09/02/2019	10:47	-132.656	43.252	0	1605.70	0	2.3390	0	36.5690	8	29.210	0	1586.814	0	34.4	4	10.6	4	-1E+10	1	-1E+10	1	-1E+10	1	-1E+10	1	-1E+10	1	-1E+10	1
4901784	152	C	09/02/2019	10:47	-132.656	43.252	0	1610.50	0	2.3360	0	36.5690	8	29.210	0	1591.540	0	34.6	4	10.7	4	-1E+10	1	-1E+10	1	-1E+10	1	-1E+10	1	-1E+10	1	-1E+10	1
4901784	152	C	09/02/2019	10:47	-132.656	43.252	0	1615.40	0	2.3310	0	36.5690	8	29.211	0	1596.364	0	34.9	4	10.8	4	-1E+10	1	-1E+10	1	-1E+10	1	-1E+10	1	-1E+10	1	-1E+10	1
4901784	152	C	09/02/2019	10:47	-132.656	43.252	0	1620.40	0	2.3220	0	36.5700	8	29.212	0	1601.286	0	35.2	4	10.9	4	-1E+10	1	-1E+10	1	-1E+10	1	-1E+10	1	-1E+10	1	-1E+10	1
4901784	152	C	09/02/2019	10:47	-132.656	43.252	0	1625.30	0	2.3140	0	36.5720	8	29.215	0	1606.109	0	35.6	4	11.0	4	-1E+10	1	-1E+10	1	-1E+10	1	-1E+10	1	-1E+10	1	-1E+10	1
4901784	152	C	09/02/2019	10:47	-132.656	43.252	0	1630.20	0	2.3090	0	36.5720	8	29.215	0	1610.933	0	35.9	4	11.1	4	-1E+10	1	-1E+10	1	-1E+10	1	-1E+10	1	-1E+10	1	-1E+10	1
4901784	152	C	09/02/2019	10:47	-132.656	43.252	0	1635.10	0	2.3020	0	36.5730	8	29.217	0	1615.756	0	36.2	4	11.2	4	-1E+10	1	-1E+10	1	-1E+10	1	-1E+10	1	-1E+10	1	-1E+10	1
4901784	152	C	09/02/2019	10:47	-132.656	43.252	0	1640.10	0	2.2950	0	36.5740	8	29.218	0	1620.678	0	36.4	4	11.2	4	-1E+10	1	-1E+10	1	-1E+10	1	-1E+10	1	-1E+10	1	-1E+10	1
4901784	152	C	09/02/2019	10:47	-132.656	43.252	0	1645.00	0	2.2890	0	36.5750	8	29.219	0	1625.501	0	36.6	4	11.3	4	-1E+10	1	-1E+10	1	-1E+10	1	-1E+10	1	-1E+10	1	-1E+10	1
4901784	152	C	09/02/2019	10:47	-132.656	43.252	0	1650.00	0	2.2850	0	36.5750	8	29.220	0	1630.423	0	36.8	4	11.3	4	-1E+10	1	-1E+10	1	-1E+10	1	-1E+10	1	-1E+10	1	-1E+10	1
4901784	152	C	09/02/2019	10:47	-132.656	43.252	0	1655.00	0	2.2800	0	36.5760	8	29.221	0	1635.344	0	37.1	4	11.5	4	-1E+10	1	-1E+10	1	-1E+10	1	-1E+10	1	-1E+10	1	-1E+10	1
4901784	152	C	09/02/2019	10:47	-132.656	43.252	0	1660.00	0	2.2720	0	36.5770	8	29.223	0	1640.265	0	37.5	4	11.5	4	-1E+10	1	-1E+10	1	-1E+10	1	-1E+10	1	-1E+10	1	-1E+10	1
4901784	152	C	09/02/2019	10:47	-132.656	43.252	0	1665.10	0	2.2650	0	36.5780	8	29.224	0	1645.285	0	37.8	4	11.7	4	-1E+10	1	-1E+10	1	-1E+10	1	-1E+10	1	-1E+10	1	-1E+10	1
4901784	152	C	09/02/2019	10:47	-132.656	43.252	0	1670.20	0	2.2570	0	36.5790	8	29.226	0	1650.304	0	38.2	4	11.8	4	-1E+10	1	-1E+10	1	-1E+10	1	-1E+10	1	-1E+10	1	-1E+10	1
4901784	152	C	09/02/2019	10:47	-132.656	43.252	0	1675.20	0	2.2490	0	36.5800	8	29.227	0	1655.225	0	38.6	4	11.9	4	-1E+10	1	-1E+10	1	-1E+10	1	-1E+10	1	-1E+10	1	-1E+10	1
4901784	152	C	09/02/2019	10:47	-132.656	43.252	0	1680.30	0	2.2410	0	36.5810	8	29.229	0	1660.245	0	39.0	4	12.0	4	-1E+10	1	-1E+10	1	-1E+10	1	-1E+10	1	-1E+10	1	-1E+10	1
4901784	152	C	09/02/2019	10:47	-132.656	43.252	0	1685.40	0	2.2340	0	36.5820	8	29.230	0	1665.264	0	39.3	4	12.1	4	-1E+10	1	-1E+10	1	-1E+10	1	-1E+10	1	-1E+10	1	-1E+10	1
4901784	152	C	09/02/2019	10:47	-132.656	43.252	0	1690.50	0	2.2280	0	36.5830	8	29.231	0	1670.283	0	39.7	4	12.2	4	-1E+10	1	-1E+10	1	-1E+10	1	-1E+10	1	-1E+10	1	-1E+10	1
4901784	152	C	09/02/2019	10:47	-132.656	43.252	0	1695.60	0	2.2190	0	36.5840	8	29.233	0	1675.301	0	40.1	4	12.3	4	-1E+10	1	-1E+10	1	-1E+10	1	-1E+10	1	-1E+10	1	-1E+10	1
4901784	152	C	09/02/2019	10:47	-132.656	43.252	0	1699.90	0	2.2120	0	36.5850	8	29.234	0	1679.533	0	40.3	4	12.4	4	-1E+10	1	-1E+10	1	-1E+10	1	-1E+10	1	-1E+10	1	-1E+10	1
4901784	152	C	09/02/2019	10:47	-132.656	43.252	0	1704.30	0	2.2080	0	36.5860	8	29.236	0	1683.863	0	40.5	4	12.5	4	-1E+10	1	-1E+10	1	-1E+10	1	-1E+10	1	-1E+10	1	-1E+10	1
4901784	152	C	09/02/2019	10:47	-132.656	43.252	0	1709.50	0	2.2040	0	36.5860	8	29.236	0	1688.980	0	40.8	4	12.6	4	-1E+10	1	-1E+10	1	-1E+10	1	-1E+10	1	-1E+10	1	-1E+10	1
4901784	152	C	09/02/2019	10:47	-132.656	43.252	0	1714.80	0	2.1950	0	36.5870	8	29.238	0	1694.195	0	41.3	4	12.7	4	-1E+10	1	-1E+10	1	-1E+10	1	-1E+10	1	-1E+10	1	-1E+10	1
4901784	152	C	09/02/2019	10:47	-132.656	43.252	0	1720.10	0	2.1830	0	36.5880	8	29.239	0	1699.410	0	41.6	4	12.8	4	-1E+10	1	-1E+10	1	-1E+10	1	-1E+10	1	-1E+10	1	-1E+10	1
4901784	152	C	09/02/2019	10:47	-132.656	43.252	0	1725.40	0	2.1780	0	36.5880	8	29.240	0	1704.625	0	42.0	4	12.9	4	-1E+10	1	-1E+10	1	-1E+10	1	-1E+10	1	-1E+10	1	-1E+10	1
4901784	152	C	09/02/2019	10:47	-132.656	43.252	0	1729.90	0	2.1710	0	36.5890	8	29.241	0	1709.053	0	42.3	4	13.0	4	-1E+10	1	-1E+10	1	-1E+10	1	-1E+10	1	-1E+10	1	-1E+10	1
4901784	152	C	09/02/2019	10:47	-132.656	43.252	0	1734.40	0	2.1650	0	36.5900	8	29.243	0	1713.480	0	42.6	4	13.1	4	-1E+10	1	-1E+10	1	-1E+10	1	-1E+10	1	-1E+10	1	-1E+10	1
4901784	152	C	09/02/2019	10:47	-132.656	43.252	0	1739.80	0	2.1600	0	36.5910	8	29.244	0	1718.793	0	42.9	4	13.2	4	-1E+10	1	-1E+10	1	-1E+10	1	-1E+10	1	-1E+10	1	-1E+10	1
4901784	152	C	09/02/2019	10:47	-132.656	43.252	0	1745.20	0	2.1530	0	36.5920	8	29.245	0	1724.106	0	43.3	4	13.3	4	-1E+10	1	-1E+10	1	-1E+10	1	-1E+10	1	-1E+10	1	-1E+10	1
4901784	152	C	09/02/2019	10:47	-132.656	43.252	0	1749.90	0	2.1490	0	36.5930	8	29.247	0	1728.730	0	43.6	4	13.4	4	-1E+10	1	-1E+10	1	-1E+10	1	-1E+10	1	-1E+10	1	-1E+10	1
4901784	152	C	09/02/2019	10:47	-132.656	43.252	0	1754.40	0	2.1450	0	36.5930	8	29.247	0	1733.158	0	43.9	4	13.5	4	-1E+10	1	-1E+10	1	-1E+10	1	-1E+10	1	-1E+10	1	-1E+10	1
4901784	152	C	09/02/2019	10:47	-132.656	43.252	0	1760.00	0	2.1370	0	36.5950	8	29.249	0	1738.667	0	44.3	4	13.6	4	-1E+10	1	-1E+10	1	-1E+10	1	-1E+10	1	-1E+10	1	-1E+10	1
4901784	152	C	09/02/2019	10:47	-132.656	43.252	0	1765.60	0	2.1300	0	36.5950	8	29.250	0	1744.176	0	44.6	4	13.7	4	-1E+10	1	-1E+10	1	-1E+10	1	-1E+10	1	-1E+10	1	-1E+10	1
4901784	152	C	09/02/2019	10:47	-132.656	43.252	0	1770.20	0	2.1250	0	36.5970	8	29.252	0	1748.701	0	44.9	4	13.8	4	-1E+10	1	-1E+10	1	-1E+10	1	-1E+10	1	-1E+10	1	-1E+10	1
4901784	152	C	09/02/2019	10:47	-132.656	43.252	0	1774.80	0	2.1200	0	36.5970	8	29.252	0	1753.226	0	45.3	4	13.9	4	-1E+10	1	-1E+10	1	-1E+10	1	-1E+10	1	-1E+10	1	-1E+10	1
4901784	152	C	09/02/2019	10:47	-132.656	43.252	0	1780.50	0	2.1120	0	36.5980	8	29.254	0	1758.833	0	45.7	4	14.0	4	-1E+10	1	-1E+10	1	-1E+10	1	-1E+10	1	-1E+10	1	-1E+10	1
4901784	152	C	09/02/2019	10:47	-132.656	43.252	0	1784.60	0	2.1070	0	36.5990	8	29.255	0	1762.867	0	46.0	4	14.1	4	-1E+10	1	-1E+10	1	-1E+10	1	-1E+10	1	-1E+10	1	-1E+10	1
4901784	152	C	09/02/2019	10:47	-132.656	43.252	0	1789.50	0	2.1000	0	36.6000	8	29.257	0	1767.686	0	46.3	4	14.2	4	-1E+10	1	-1E+10	1	-1E+10	1	-1E+10	1	-1E+10	1	-1E+10	1
4901784	152	C	09/02/2019	10:47	-132.656	43.252	0	1794.40	0	2.0950	0	36.6010	8	29.258	0	1772.506	0	46.7	4	14.3	4	-1E+10	1	-1E+10	1	-1E+10	1	-1E+10	1	-1E+10	1	-1E+10	1
4901784	152	C	09/02/2019	10:47	-132.656	43.252	0	1799.30	0	2.0890	0	36.6020	8	29.259	0	1777.326	0	47.0	4	14.4	4	-1E+10	1	-1E+10	1	-1E+10	1	-1E+10	1	-1E+10	1	-1E+10	1
4901784	152	C	09/02/2019	10:47	-132.656	43.252	0	1804.30	0	2.0850	0	36.6030	8	29.260	0	1782.244	0	47.2	4	14.5	4	-1E+10	1	-1E+10	1	-1E+10	1	-1E+10	1	-1E+10	1	-1E+10	1
4901784	152	C	09/02/2019	10:47	-132.656	43.252	0	1809.30	0	2.0820	0	36.6030	8	29.261	0	1787.162	0	47.5	4	14.6	4	-1E+10	1	-1E+10	1	-1E+10	1	-1E+10	1	-1E+10	1	-1E+10	1
4901784	152	C	09/02/2019	10:47	-132.656	43.252	0	1814.30	0	2.0760	0	36.6040	8	29.262	0	1792.080	0	47.9	4	14.7	4	-1E+10	1	-1E+10	1	-1E+10	1	-1E+10	1	-1E+10	1	-1E+10	1
4901784	152	C	09/02/2019	10:47	-132.656	43.252	0	1819.30	0	2.0720	0	36.6050	8	29.263	0	1796.997	0	48.2	4	14.8	4	-1E+10	1	-1E+10	1	-1E+10	1	-1E+10	1	-1E+10	1	-1E+10	1
4901784	152	C	09/02/2019	10:47	-132.656	43.252	0	1824.30	0	2.0670	0	36.6050	8	29.264	0	1801.915	0	48.5	4	14.9	4	-1E+10	1	-1E+10	1	-1E+10	1	-1E+10	1	-1E+10	1	-1E+10	1
4901784	152	C	09/02/2019	10:47	-132.656	43.252	0	1829.40	0	2.0620	0	36.6070	8	29.266	0	1806.931	0	48.8	4	15.0	4	-1E+10	1	-1E+10	1	-1E+10	1	-1E+10	1	-1E+10	1	-1E+10	1
4901784	152	C	09/02/2019	10:47	-132.656	43.252	0	1834.50	0	2.0560	0	36.6070	8	29.266	0	1811.946	0	49.3	4	15.1	4	-1E+10	1	-1E+10	1	-1E+10	1	-1E+10	1	-1E+10	1	-1E+10	1
4901784	152	C	09/02/2019	10:47	-132.656	43.252	0	1839.60	0	2.0500	0	36.6080	8	29.268	0	1816.962	0	49.6	4	15.2	4	-1E+10	1	-1E+10	1	-1E+10	1	-1E+10	1	-1E+10	1	-1E+10	1
4901784	152	C	09/02/2019	10:47	-132.656	43.252	0	1844.70	0	2.0440	0	36.6090	8	29.269	0	1821.977	0	50.0	4	15.3	4	-1E+10	1	-1E+10	1	-1E+10	1	-1E+10	1	-1E+10	1	-1E+10	1
4901784	152	C	09/02/2019	10:47	-132.656	43.252	0	1849.80	0	2.0390	0	36.6100	8	29.270	0	1826.992	0	50.3	4	15.4	4	-1E+10	1	-1E+10	1	-1E+10	1	-1E+10	1	-1E+10	1	-1E+10	1
4901784	152	C	09/02/2019	10:47	-132.656	43.252	0	1855.00	0	2.0340	0	36.6110	8	29.271	0	1832.106	0	50.6	4	15.5	4	-1E+10	1	-1E+10	1	-1E+10	1	-1E+10	1	-1E+10	1	-1E+10	1
4901784	152	C	09/02/2019	10:47	-132.656	43.252	0	1860.20	0	2.0300	0	36.6120	8	29.273	0	1837.219	0	50.9	4	15.6	4	-1E+10	1	-1E+10	1	-1E+10	1	-1E+10	1	-1E+10	1	-1E+10	1
4901784	152	C	09/02/2019	10:47	-132.656	43.252	0	1865.40	0	2.0270	0	36.6120	8	29.273	0	1842.332	0	51.2	4	15.7	4	-1E+10	1	-1E+10	1	-1E+10	1	-1E+10	1	-1E+10	1	-1E+10	1
4901784	152	C	09/02/2019	10:47	-132.656	43.252	0	1870.70	0	2.0190	0	36.6130	8	29.274	0	1847.544	0	51.7	4	15.8	4	-1E+10	1	-1E+10	1	-1E+10	1	-1E+10	1	-1E+10	1	-1E+10	1
4901784	152	C	09/02/2019	10:47	-132.656	43.252	0	1875.10	0	2.0160	0	36.6150	8	29.276	0	1851.870	0	51.9	4	15.9	4	-1E+10	1	-1E+10	1	-1E+10	1	-1E+10	1	-1E+10	1	-1E+10	1
4901784	152	C	09/02/2019	10:47	-132.656	43.252	0	1879.50	0	2.0120	0	36.6150	8	29.277	0	1856.197	0	52.1	4	16.0	4	-1E+10	1	-1E+10	1	-1E+10	1	-1E+10	1	-1E+10	1	-1E+10	1
4901784	152	C	09/02/2019	10:47	-132.656	43.252	0	1884.90	0	2.0090	0	36.6150	8	29.277	0	1861.506	0	52.4	4	16.1	4	-1E+10	1	-1E+10	1	-1E+10	1	-1E+10	1	-1E+10	1	-1E+10	1
4901784	152	C	09/02/2019	10:47	-132.656	43.252	0	1890.20	0	2.0050	0	36.6160	8	29.278	0	1866.717	0	52.7	4	16.1	4	-1E+10	1	-1E+10	1	-1E+10	1	-1E+10	1	-1E+10	1	-1E+10	1
4901784	152	C	09/02/2019	10:47	-132.656	43.252	0	1895.60	0	2.0010	0	36.6170	8	29.279	0	1872.026	0	53.0	4	16.2	4	-1E+10	1	-1E+10	1	-1E+10	1	-1E+10	1	-1E+10	1	-1E+10	1
4901784	152	C	09/02/2019	10:47	-132.656	43.252	0	1900.10	0	1.9960	0	36.6180	8	29.280	0	1876.450	0	53.3	4	16.3	4	-1E+10	1	-1E+10	1	-1E+10	1	-1E+10	1	-1E+10	1	-1E+10	1
4901784	152	C	09/02/2019	10:47	-132.656	43.252	0	1904.60	0	1.9930	0	36.6180	8	29.281	0	1880.874	0	53.6	4	16.4	4	-1E+10	1	-1E+10	1	-1E+10	1	-1E+10	1	-1E+10	1	-1E+10	1
4901784	152	C	09/02/2019	10:47	-132.656	43.252	0	1910.00	0	1.9870	0	36.6190	8	29.282	0	1886.183	0	54.0	4	16.5	4	-1E+10	1	-1E+10	1	-1E+10	1	-1E+10	1	-1E+10	1	-1E+10	1
4901784	152	C	09/02/2019	10:47	-132.656	43.252	0	1915.50	0	1.9830	0	36.6200	8	29.283	0	1891.590	0	54.3	4	16.6	4	-1E+10	1	-1E+10	1	-1E+10	1	-1E+10	1	-1E+10	1	-1E+10	1
4901784	152	C	09/02/2019	10:47	-132.656	43.252	0	1919.60	0	1.9790	0	36.6210	8	29.284	0	1895.621	0	54.6	4	16.7	4	-1E+10	1	-1E+10	1	-1E+10	1	-1E+10	1	-1E+10	1	-1E+10	1
4901784	152	C	09/02/2019	10:47	-132.656	43.252	0	1924.40	0	1.9750	0	36.6220	8	29.286	0	1900.340	0	54.9	4	16.8	4	-1E+10	1	-1E+10	1	-1E+10	1	-1E+10	1	-1E+10	1	-1E+10	1
4901784	152	C	09/02/2019	10:47	-132.656	43.252	0	1930.10	0	1.9710	0	36.6220	8	29.286	0	1905.943	0	55.1	4	16.9	4	-1E+10	1	-1E+10	1	-1E+10	1	-1E+10	1	-1E+10	1	-1E+10	1
4901784	152	C	09/02/2019	10:47	-132.656	43.252	0	1935.70	0	1.9670	0	36.6230	8	29.287	0	1911.447	0	55.4	4	17.0	4	-1E+10	1	-1E+10	1	-1E+10	1	-1E+10	1	-1E+10	1	-1E+10	1
4901784	152	C	09/02/2019	10:47	-132.656	43.252	0	1940.60	0	1.9650	0	36.6230	8	29.287	0	1916.264	0	55.6	4	17.0	4	-1E+10	1	-1E+10	1	-1E+10	1	-1E+10	1	-1E+10	1	-1E+10	1
4901784	152	C	09/02/2019	10:47	-132.656	43.252	0	1945.50	0	1.9620	0	36.6240	8	29.288	0	1921.081	0	55.9	4	17.1	4	-1E+10	1	-1E+10	1	-1E+10	1	-1E+10	1	-1E+10	1	-1E+10	1
4901784	152	C	09/02/2019	10:47	-132.656	43.252	0	1950.40	0	1.9590	0	36.6250	8	29.289	0	1925.897	0	56.2	4	17.2	4	-1E+10	1	-1E+10	1	-1E+10	1	-1E+10	1	-1E+10	1	-1E+10	1
4901784	152	C	09/02/2019	10:47	-132.656	43.252	0	1955.40	0	1.9550	0	36.6260	8	29.291	0	1930.811	0	56.5	4	17.3	4	-1E+10	1	-1E+10	1	-1E+10	1	-1E+10	1	-1E+10	1	-1E+10	1
4901784	152	C	09/02/2019	10:47	-132.656	43.252	0	1960.40	0	1.9520	0	36.6260	8	29.291	0	1935.726	0	56.7	4	17.4	4	-1E+10	1	-1E+10	1	-1E+10	1	-1E+10	1	-1E+10	1	-1E+10	1
4901784	152	C	09/02/2019	10:47	-132.656	43.252	0	1965.50	0	1.9480	0	36.6270	8	29.292	0	1940.738	0	57.0	4	17.4	4	-1E+10	1	-1E+10	1	-1E+10	1	-1E+10	1	-1E+10	1	-1E+10	1
4901784	152	C	09/02/2019	10:47	-132.656	43.252	0	1970.50	0	1.9440	0	36.6270	8	29.292	0	1945.653	0	57.3	4	17.5	4	-1E+10	1	-1E+10	1	-1E+10	1	-1E+10	1	-1E+10	1	-1E+10	1
4901784	152	C	09/02/2019	10:47	-132.656	43.252	0	1975.70	0	1.9420	0	36.6280	8	29.293	0	1950.763	0	57.5	4	17.6	4	-1E+10	1	-1E+10	1	-1E+10	1	-1E+10	1	-1E+10	1	-1E+10	1
4901784	152	C	09/02/2019	10:47	-132.656	43.252	0	1980.70	0	1.9380	0	36.6290	8	29.295	0	1955.677	0	57.8	4	17.7	4	-1E+10	1	-1E+10	1	-1E+10	1	-1E+10	1	-1E+10	1	-1E+10	1
4901784	152	C	09/02/2019	10:47	-132.656	43.252	0	1985.10	0	1.9350	0	36.6290	8	29.295	0	1960.001	0	58.0	4	17.7	4	-1E+10	1	-1E+10	1	-1E+10	1	-1E+10	1	-1E+10	1	-1E+10	1
4901784	152	C	09/02/2019	10:47	-132.656	43.252	0	1989.40	0	1.9330	0	36.6290	8	29.295	0	1964.227	0	58.2	4	17.8	4	-1E+10	1	-1E+10	1	-1E+10	1	-1E+10	1	-1E+10	1	-1E+10	1
4901784	152	C	09/02/2019	10:47	-132.656	43.252	0	1994.70	0	1.9300	0	36.6300	8	29.296	0	1969.436	0	58.4	4	17.8	4	-1E+10	1	-1E+10	1	-1E+10	1	-1E+10	1	-1E+10	1	-1E+10	1
4901784	152	C	09/02/2019	10:47	-132.656	43.252	0	1999.80	0	1.9290	0	36.6310	8	29.297	0	1974.448	0	58.5	4	17.9	4	-1E+10	1	-1E+10	1	-1E+10	1	-1E+10	1	-1E+10	1	-1E+10	1
4901784	152	C	09/02/2019	10:47	-132.656	43.252	0	2004.90	0	1.9260	0	36.6310	8	29.297	0	1979.459	0	58.8	4	18.0	4	-1E+10	1	-1E+10	1	-1E+10	1	-1E+10	1	-1E+10	1	-1E+10	1
4901784	152	C	09/02/2019	10:47	-132.656	43.252	0	2009.50	0	1.9230	0	36.6320	8	29.298	0	1983.979	0	59.1	4	18.1	4	-1E+10	1	-1E+10	1	-1E+10	1	-1E+10	1	-1E+10	1	-1E+10	1
4901784	152	C	09/02/2019	10:47	-132.656	43.252	0	2014.90	0	1.9190	0	36.6330	8	29.300	0	1989.286	0	59.4	4	18.1	4	-1E+10	1	-1E+10	1	-1E+10	1	-1E+10	1	-1E+10	1	-1E+10	1
4901784	152	C	09/02/2019	10:47	-132.656	43.252	0	2019.60	0	1.9150	0	36.6330	8	29.300	0	1993.904	0	59.5	4	18.2	4	-1E+10	1	-1E+10	1	-1E+10	1	-1E+10	1	-1E+10	1	-1E+10	1
4901784	152	C	09/02/2019	10:47	-132.656	43.252	0																										
4901784	153	C	09/12/2019	10:46	-132.702	43.322	0	2.50	0	19.7350	0	34.5150	8	24.463	0	2.480	0	220.0	4	96.8	4	-1E+10	1	-1E+10	1	-1E+10	1	-1E+10	1	-1E+10	1	-1E+10	1
4901784	153	C	09/12/2019	10:46	-132.702	43.322	0	4.00	0	19.7360	0	34.5140	8	24.462	0	3.968	0	219.7	4	96.6	4	-1E+10	1	-1E+10	1	-1E+10	1	-1E+10	1	-1E+10	1	-1E+10	1
4901784	153	C	09/12/2019	10:46	-132.702	43.322	0	5.40	0	19.7400	0	34.5140	8	24.461	0	5.357	0	219.5	4	96.6	4	-1E+10	1	-1E+10	1	-1E+10	1	-1E+10	1	-1E+10	1	-1E+10	1
4901784	153	C	09/12/2019	10:46	-132.702	43.322	0	6.90	0	19.7410	0	34.5140	8	24.460	0	6.845	0	219.4	4	96.5	4	-1E+10	1	-1E+10	1	-1E+10	1	-1E+10	1	-1E+10	1	-1E+10	1
4901784	153	C	09/12/2019	10:46	-132.702	43.322	0	8.30	0	19.7400	0	34.5140	8	24.461	0	8.234	0	219.3	4	96.5	4	-1E+10	1	-1E+10	1	-1E+10	1	-1E+10	1	-1E+10	1	-1E+10	1
4901784	153	C	09/12/2019	10:46	-132.702	43.322	0	9.90	0	19.7390	0	34.5130	8	24.460	0	9.821	0	219.1	4	96.4	4	-1E+10	1	-1E+10	1	-1E+10	1	-1E+10	1	-1E+10	1	-1E+10	1
4901784	153	C	09/12/2019	10:46	-132.702	43.322	0	12.00	0	19.7380	0	34.5120	8	24.460	0	11.904	0	218.9	4	96.3	4	-1E+10	1	-1E+10	1	-1E+10	1	-1E+10	1	-1E+10	1	-1E+10	1
4901784	153	C	09/12/2019	10:46	-132.702	43.322	0	13.50	0	19.7400	0	34.5110	8	24.459	0	13.392	0	218.7	4	96.2	4	-1E+10	1	-1E+10	1	-1E+10	1	-1E+10	1	-1E+10	1	-1E+10	1
4901784	153	C	09/12/2019	10:46	-132.702	43.322	0	14.80	0	19.7380	0	34.5100	8	24.459	0	14.682	0	218.6	4	96.2	4	-1E+10	1	-1E+10	1	-1E+10	1	-1E+10	1	-1E+10	1	-1E+10	1
4901784	153	C	09/12/2019	10:46	-132.702	43.322	0	16.10	0	19.7390	0	34.5090	8	24.458	0	15.971	0	218.5	4	96.1	4	-1E+10	1	-1E+10	1	-1E+10	1	-1E+10	1	-1E+10	1	-1E+10	1
4901784	153	C	09/12/2019	10:46	-132.702	43.322	0	17.40	0	19.7370	0	34.5070	8	24.457	0	17.261	0	218.4	4	96.1	4	-1E+10	1	-1E+10	1	-1E+10	1	-1E+10	1	-1E+10	1	-1E+10	1
4901784	153	C	09/12/2019	10:46	-132.702	43.322	0	18.80	0	19.7390	0	34.5050	8	24.455	0	18.649	0	218.4	4	96.1	4	-1E+10	1	-1E+10	1	-1E+10	1	-1E+10	1	-1E+10	1	-1E+10	1
4901784	153	C	09/12/2019	10:46	-132.702	43.322	0	20.30	0	19.7400	0	34.5020	8	24.452	0	20.137	0	218.3	4	96.0	4	-1E+10	1	-1E+10	1	-1E+10	1	-1E+10	1	-1E+10	1	-1E+10	1
4901784	153	C	09/12/2019	10:46	-132.702	43.322	0	20.70	0	19.7400	0	34.5010	8	24.451	0	20.534	0	218.5	4	96.1	4	-1E+10	1	-1E+10	1	-1E+10	1	-1E+10	1	-1E+10	1	-1E+10	1
4901784	153	C	09/12/2019	10:46	-132.702	43.322	0	21.70	0	19.7430	0	34.4950	8	24.446	0	21.526	0	218.8	4	96.2	4	-1E+10	1	-1E+10	1	-1E+10	1	-1E+10	1	-1E+10	1	-1E+10	1
4901784	153	C	09/12/2019	10:46	-132.702	43.322	0	23.00	0	19.7400	0	34.4870	8	24.441	0	22.816	0	219.5	4	96.6	4	-1E+10	1	-1E+10	1	-1E+10	1	-1E+10	1	-1E+10	1	-1E+10	1
4901784	153	C	09/12/2019	10:46	-132.702	43.322	0	24.30	0	19.7430	0	34.4730	8	24.429	0	24.105	0	221.3	4	97.3	4	-1E+10	1	-1E+10	1	-1E+10	1	-1E+10	1	-1E+10	1	-1E+10	1
4901784	153	C	09/12/2019	10:46	-132.702	43.322	0	25.10	0	19.7220	0	34.4560	8	24.422	0	24.899	0	223.3	4	98.2	4	-1E+10	1	-1E+10	1	-1E+10	1	-1E+10	1	-1E+10	1	-1E+10	1
4901784	153	C	09/12/2019	10:46	-132.702	43.322	0	25.90	0	19.6320	0	34.4270	8	24.423	0	25.692	0	226.5	4	99.4	4	-1E+10	1	-1E+10	1	-1E+10	1	-1E+10	1	-1E+10	1	-1E+10	1
4901784	153	C	09/12/2019	10:46	-132.702	43.322	0	26.70	0	19.1850	0	34.4100	8	24.525	0	26.486	0	232.1	4	101.0	4	-1E+10	1	-1E+10	1	-1E+10	1	-1E+10	1	-1E+10	1	-1E+10	1
4901784	153	C	09/12/2019	10:46	-132.702	43.322	0	27.80	0	18.8740	0	34.3700	8	24.574	0	27.577	0	237.5	4	102.7	4	-1E+10	1	-1E+10	1	-1E+10	1	-1E+10	1	-1E+10	1	-1E+10	1
4901784	153	C	09/12/2019	10:46	-132.702	43.322	0	29.10	0	17.8380	0	34.3510	8	24.817	0	28.866	0	246.1	4	104.4	4	-1E+10	1	-1E+10	1	-1E+10	1	-1E+10	1	-1E+10	1	-1E+10	1
4901784	153	C	09/12/2019	10:46	-132.702	43.322	0	30.60	0	16.6750	0	34.3570	8	25.099	0	30.354	0	254.5	4	105.6	4	-1E+10	1	-1E+10	1	-1E+10	1	-1E+10	1	-1E+10	1	-1E+10	1
4901784	153	C	09/12/2019	10:46	-132.702	43.322	0	32.20	0	15.2880	0	34.3940	8	25.443	0	31.941	0	262.0	4	105.9	4	-1E+10	1	-1E+10	1	-1E+10	1	-1E+10	1	-1E+10	1	-1E+10	1
4901784	153	C	09/12/2019	10:46	-132.702	43.322	0	33.90	0	14.6230	0	34.4010	8	25.594	0	33.627	0	265.8	4	106.0	4	-1E+10	1	-1E+10	1	-1E+10	1	-1E+10	1	-1E+10	1	-1E+10	1
4901784	153	C	09/12/2019	10:46	-132.702	43.322	0	35.60	0	13.6590	0	34.4590	8	25.842	0	35.313	0	269.7	4	105.6	4	-1E+10	1	-1E+10	1	-1E+10	1	-1E+10	1	-1E+10	1	-1E+10	1
4901784	153	C	09/12/2019	10:46	-132.702	43.322	0	37.20	0	13.5630	0	34.4470	8	25.852	0	36.900	0	270.0	4	105.5	4	-1E+10	1	-1E+10	1	-1E+10	1	-1E+10	1	-1E+10	1	-1E+10	1
4901784	153	C	09/12/2019	10:46	-132.702	43.322	0	38.90	0	13.2830	0	34.4630	8	25.922	0	38.587	0	270.7	4	105.2	4	-1E+10	1	-1E+10	1	-1E+10	1	-1E+10	1	-1E+10	1	-1E+10	1
4901784	153	C	09/12/2019	10:46	-132.702	43.322	0	40.50	0	13.1930	0	34.4540	8	25.933	0	40.174	0	270.4	4	104.9	4	-1E+10	1	-1E+10	1	-1E+10	1	-1E+10	1	-1E+10	1	-1E+10	1
4901784	153	C	09/12/2019	10:46	-132.702	43.322	0	42.20	0	12.8860	0	34.4730	8	26.009	0	41.860	0	270.6	4	104.3	4	-1E+10	1	-1E+10	1	-1E+10	1	-1E+10	1	-1E+10	1	-1E+10	1
4901784	153	C	09/12/2019	10:46	-132.702	43.322	0	43.90	0	12.7930	0	34.4640	8	26.021	0	43.546	0	270.5	4	104.1	4	-1E+10	1	-1E+10	1	-1E+10	1	-1E+10	1	-1E+10	1	-1E+10	1
4901784	153	C	09/12/2019	10:46	-132.702	43.322	0	45.70	0	12.5970	0	34.4700	8	26.064	0	45.331	0	270.1	4	103.5	4	-1E+10	1	-1E+10	1	-1E+10	1	-1E+10	1	-1E+10	1	-1E+10	1
4901784	153	C	09/12/2019	10:46	-132.702	43.322	0	47.40	0	12.4140	0	34.4800	8	26.107	0	47.017	0	269.6	4	102.9	4	-1E+10	1	-1E+10	1	-1E+10	1	-1E+10	1	-1E+10	1	-1E+10	1
4901784	153	C	09/12/2019	10:46	-132.702	43.322	0	49.20	0	12.3330	0	34.4780	8	26.122	0	48.802	0	269.5	4	102.7	4	-1E+10	1	-1E+10	1	-1E+10	1	-1E+10	1	-1E+10	1	-1E+10	1
4901784	153	C	09/12/2019	10:46	-132.702	43.322	0	50.90	0	12.1080	0	34.4910	8	26.175	0	50.488	0	269.0	4	102.1	4	-1E+10	1	-1E+10	1	-1E+10	1	-1E+10	1	-1E+10	1	-1E+10	1
4901784	153	C	09/12/2019	10:46	-132.702	43.322	0	52.60	0	12.0090	0	34.4870	8	26.191	0	52.174	0	268.6	4	101.7	4	-1E+10	1	-1E+10	1	-1E+10	1	-1E+10	1	-1E+10	1	-1E+10	1
4901784	153	C	09/12/2019	10:46	-132.702	43.322	0	55.00	0	11.7990	0	34.4890	8	26.232	0	54.555	0	268.0	4	101.0	4	-1E+10	1	-1E+10	1	-1E+10	1	-1E+10	1	-1E+10	1	-1E+10	1
4901784	153	C	09/12/2019	10:46	-132.702	43.322	0	56.70	0	11.5840	0	34.4950	8	26.277	0	56.241	0	267.8	4	100.5	4	-1E+10	1	-1E+10	1	-1E+10	1	-1E+10	1	-1E+10	1	-1E+10	1
4901784	153	C	09/12/2019	10:46	-132.702	43.322	0	58.30	0	11.5370	0	34.4940	8	26.285	0	57.828	0	267.0	4	100.1	4	-1E+10	1	-1E+10	1	-1E+10	1	-1E+10	1	-1E+10	1	-1E+10	1
4901784	153	C	09/12/2019	10:46	-132.702	43.322	0	59.70	0	11.4600	0	34.4970	8	26.302	0	59.216	0	265.8	4	99.5	4	-1E+10	1	-1E+10	1	-1E+10	1	-1E+10	1	-1E+10	1	-1E+10	1
4901784	153	C	09/12/2019	10:46	-132.702	43.322	0	61.20	0	11.3860	0	34.4920	8	26.311	0	60.704	0	265.3	4	99.1	4	-1E+10	1	-1E+10	1	-1E+10	1	-1E+10	1	-1E+10	1	-1E+10	1
4901784	153	C	09/12/2019	10:46	-132.702	43.322	0	62.60	0	11.3110	0	34.4900	8	26.324	0	62.092	0	263.8	4	98.4	4	-1E+10	1	-1E+10	1	-1E+10	1	-1E+10	1	-1E+10	1	-1E+10	1
4901784	153	C	09/12/2019	10:46	-132.702	43.322	0	64.00	0	11.1640	0	34.4950	8	26.354	0	63.480	0	262.5	4	97.6	4	-1E+10	1	-1E+10	1	-1E+10	1	-1E+10	1	-1E+10	1	-1E+10	1
4901784	153	C	09/12/2019	10:46	-132.702	43.322	0	65.50	0	11.0950	0	34.4830	8	26.358	0	64.968	0	260.7	4	96.8	4	-1E+10	1	-1E+10	1	-1E+10	1	-1E+10	1	-1E+10	1	-1E+10	1
4901784	153	C	09/12/2019	10:46	-132.702	43.322	0	67.20	0	10.8460	0	34.4990	8	26.415	0	66.654	0	258.9	4	95.7	4	-1E+10	1	-1E+10	1	-1E+10	1	-1E+10	1	-1E+10	1	-1E+10	1
4901784	153	C	09/12/2019	10:46	-132.702	43.322	0	68.80	0	10.7350	0	34.4940	8	26.431	0	68.241	0	257.2	4	94.8	4	-1E+10	1	-1E+10	1	-1E+10	1	-1E+10	1	-1E+10	1	-1E+10	1
4901784	153	C	09/12/2019	10:46	-132.702	43.322	0	70.40	0	10.5580	0	34.5030	8	26.469	0	69.827	0	255.7	4	93.9	4	-1E+10	1	-1E+10	1	-1E+10	1	-1E+10	1	-1E+10	1	-1E+10	1
4901784	153	C	09/12/2019	10:46	-132.702	43.322	0	71.90	0	10.5280	0	34.4990	8	26.471	0	71.315	0	254.8	4	93.5	4	-1E+10	1	-1E+10	1	-1E+10	1	-1E+10	1	-1E+10	1	-1E+10	1
4901784	153	C	09/12/2019	10:46	-132.702	43.322	0	73.60	0	10.4650	0	34.4970	8	26.481	0	73.001	0	253.5	4	92.9	4	-1E+10	1	-1E+10	1	-1E+10	1	-1E+10	1	-1E+10	1	-1E+10	1
4901784	153	C	09/12/2019	10:46	-132.702	43.322	0	75.30	0	10.3770	0	34.5010	8	26.499	0	74.687	0	252.7	4	92.4	4	-1E+10	1	-1E+10	1	-1E+10	1	-1E+10	1	-1E+10	1	-1E+10	1
4901784	153	C	09/12/2019	10:46	-132.702	43.322	0	76.90	0	10.3270	0	34.4980	8	26.506	0	76.273	0	252.3	4	92.2	4	-1E+10	1	-1E+10	1	-1E+10	1	-1E+10	1	-1E+10	1	-1E+10	1
4901784	153	C	09/12/2019	10:46	-132.702	43.322	0	78.50	0	10.2840	0	34.4950	8	26.511	0	77.860	0	251.7	4	91.9	4	-1E+10	1	-1E+10	1	-1E+10	1	-1E+10	1	-1E+10	1	-1E+10	1
4901784	153	C	09/12/2019	10:46	-132.702	43.322	0	80.10	0	10.2180	0	34.4900	8	26.518	0	79.447	0	251.4	4	91.7	4	-1E+10	1	-1E+10	1	-1E+10	1	-1E+10	1	-1E+10	1	-1E+10	1
4901784	153	C	09/12/2019	10:46	-132.702	43.322	0	81.70	0	10.1830	0	34.4850	8	26.521	0	81.033	0	251.2	4	91.5	4	-1E+10	1	-1E+10	1	-1E+10	1	-1E+10	1	-1E+10	1	-1E+10	1
4901784	153	C	09/12/2019	10:46	-132.702	43.322	0	83.30	0	10.1090	0	34.4800	8	26.529	0	82.620	0	250.4	4	91.0	4	-1E+10	1	-1E+10	1	-1E+10	1	-1E+10	1	-1E+10	1	-1E+10	1
4901784	153	C	09/12/2019	10:46	-132.702	43.322	0	85.00	0	10.0170	0	34.4760	8	26.542	0	84.306	0	250.2	4	90.8	4	-1E+10	1	-1E+10	1	-1E+10	1	-1E+10	1	-1E+10	1	-1E+10	1
4901784	153	C	09/12/2019	10:46	-132.702	43.322	0	86.70	0	9.9530	0	34.4730	8	26.550	0	85.991	0	250.1	4	90.7	4	-1E+10	1	-1E+10	1	-1E+10	1	-1E+10	1	-1E+10	1	-1E+10	1
4901784	153	C	09/12/2019	10:46	-132.702	43.322	0	88.40	0	9.9380	0	34.4700	8	26.551	0	87.677	0	249.7	4	90.4	4	-1E+10	1	-1E+10	1	-1E+10	1	-1E+10	1	-1E+10	1	-1E+10	1
4901784	153	C	09/12/2019	10:46	-132.702	43.322	0	90.10	0	9.8730	0	34.4670	8	26.559	0	89.363	0	249.4	4	90.2	4	-1E+10	1	-1E+10	1	-1E+10	1	-1E+10	1	-1E+10	1	-1E+10	1
4901784	153	C	09/12/2019	10:46	-132.702	43.322	0	91.80	0	9.7880	0	34.4630	8	26.571	0	91.049	0	249.4	4	90.0	4	-1E+10	1	-1E+10	1	-1E+10	1	-1E+10	1	-1E+10	1	-1E+10	1
4901784	153	C	09/12/2019	10:46	-132.702	43.322	0	93.60	0	9.7650	0	34.4600	8	26.572	0	92.834	0	249.0	4	89.9	4	-1E+10	1	-1E+10	1	-1E+10	1	-1E+10	1	-1E+10	1	-1E+10	1
4901784	153	C	09/12/2019	10:46	-132.702	43.322	0	95.30	0	9.7070	0	34.4570	8	26.580	0	94.519	0	248.4	4	89.6	4	-1E+10	1	-1E+10	1	-1E+10	1	-1E+10	1	-1E+10	1	-1E+10	1
4901784	153	C	09/12/2019	10:46	-132.702	43.322	0	97.00	0	9.6350	0	34.4530	8	26.588	0	96.205	0	248.2	4	89.3	4	-1E+10	1	-1E+10	1	-1E+10	1	-1E+10	1	-1E+10	1	-1E+10	1
4901784	153	C	09/12/2019	10:46	-132.702	43.322	0	98.80	0	9.5090	0	34.4590	8	26.614	0	97.990	0	247.8	4	88.9	4	-1E+10	1	-1E+10	1	-1E+10	1	-1E+10	1	-1E+10	1	-1E+10	1
4901784	153	C	09/12/2019	10:46	-132.702	43.322	0	102.30	0	9.4760	0	34.4730	8	26.630	0	101.460	0	246.0	4	88.2	4	-1E+10	1	-1E+10	1	-1E+10	1	-1E+10	1	-1E+10	1	-1E+10	1
4901784	153	C	09/12/2019	10:46	-132.702	43.322	0	104.60	0	9.3820	0	34.4900	8	26.659	0	103.741	0	244.6	4	87.6	4	-1E+10	1	-1E+10	1	-1E+10	1	-1E+10	1	-1E+10	1	-1E+10	1
4901784	153	C	09/12/2019	10:46	-132.702	43.322	0	107.20	0	9.3170	0	34.5110	8	26.686	0	106.319	0	242.8	4	86.8	4	-1E+10	1	-1E+10	1	-1E+10	1	-1E+10	1	-1E+10	1	-1E+10	1
4901784	153	C	09/12/2019	10:46	-132.702	43.322	0	110.10	0	9.2960	0	34.5570	8	26.726	0	109.194	0	240.0	4	85.8	4	-1E+10	1	-1E+10	1	-1E+10	1	-1E+10	1	-1E+10	1	-1E+10	1
4901784	153	C	09/12/2019	10:46	-132.702	43.322	0	112.40	0	9.2250	0	34.5700	8	26.747	0	111.475	0	238.6	4	85.2	4	-1E+10	1	-1E+10	1	-1E+10	1	-1E+10	1	-1E+10	1	-1E+10	1
4901784	153	C	09/12/2019	10:46	-132.702	43.322	0	114.60	0	9.1820	0	34.5800	8	26.762	0	113.656	0	237.0	4	84.5	4	-1E+10	1	-1E+10	1	-1E+10	1	-1E+10	1	-1E+10	1	-1E+10	1
4901784	153	C	09/12/2019	10:46	-132.702	43.322	0	117.70	0	9.0280	0	34.6190	8	26.818	0	116.729	0	234.6	4	83.4	4	-1E+10	1	-1E+10	1	-1E+10	1	-1E+10	1	-1E+10	1	-1E+10	1
4901784	153	C	09/12/2019	10:46	-132.702	43.322	0	120.00	0	8.9080	0	34.6510	8	26.862	0	119.010	0	233.0	4	82.7	4	-1E+10	1	-1E+10	1	-1E+10	1	-1E+10	1	-1E+10	1	-1E+10	1
4901784	153	C	09/12/2019	10:46	-132.702	43.322	0	122.50	0	8.7930	0	34.6970	8	26.916	0	121.488	0	231.5	4	81.9	4	-1E+10	1	-1E+10	1	-1E+10	1	-1E+10	1	-1E+10	1	-1E+10	1
4901784	153	C	09/12/2019	10:46	-132.702	43.322	0	124.90	0	8.6950	0	34.7380	8	26.964	0	123.868	0	229.3	4	81.0	4	-1E+10	1	-1E+10	1	-1E+10	1	-1E+10	1	-1E+10	1	-1E+10	1
4901784	153	C	09/12/2019	10:46	-132.702	43.322	0	127.50	0	8.5390	0	34.7930	8	27.031	0	126.446	0	228.2	4	80.4	4	-1E+10	1	-1E+10	1	-1E+10	1	-1E+10	1	-1E+10	1	-1E+10	1
4901784	153	C	09/12/2019	10:46	-132.702	43.322	0	130.10	0	8.4210	0	34.8390	8	27.086	0	129.023	0	226.8	4	79.7	4	-1E+10	1	-1E+10	1	-1E+10	1	-1E+10	1	-1E+10	1	-1E+10	1
4901784	153	C	09/12/2019	10:46	-132.702	43.322	0	132.70	0	8.3390	0	34.8910	8	27.139	0	131.601	0	225.6	4	79.2	4	-1E+10	1	-1E+10	1	-1E+10	1	-1E+10	1	-1E+10	1	-1E+10	1
4901784	153	C	09/12/2019	10:46	-132.702	43.322	0	134.90	0	8.2870	0	34.9370	8	27.183	0	133.782	0	224.3	4	78.6	4	-1E+10	1	-1E+10	1	-1E+10	1	-1E+10	1	-1E+10	1	-1E+10	1
4901784	153	C	09/12/2019	10:46	-132.702	43.322	0	137.80	0	8.1800	0	34.9990	8	27.248	0	136.657	0	222.9	4	78.0	4	-1E+10	1	-1E+10	1	-1E+10	1	-1E+10	1	-1E+10	1	-1E+10	1
4901784	153	C	09/12/2019	10:46	-132.702	43.322	0	140.00	0	8.1440	0	35.0350	8	27.282	0	138.838	0	221.6	4	77.5	4	-1E+10	1	-1E+10	1	-1E+10	1	-1E+10	1	-1E+10	1	-1E+10	1
4901784	153	C	09/12/2019	10:46	-132.702	43.322	0	142.10	0	8.0860	0	35.1010	8	27.343	0	140.920	0	220.5	4	77.0	4	-1E+10	1	-1E+10	1	-1E+10	1	-1E+10	1	-1E+10	1	-1E+10	1
4901784	153	C	09/12/2019	10:46	-132.702	43.322	0	145.10	0	8.0370	0	35.1550	8	27.393	0	143.894	0	218.8	4	76.4	4	-1E+10	1	-1E+10	1	-1E+10	1	-1E+10	1	-1E+10	1	-1E+10	1
4901784	153	C	09/12/2019	10:46	-132.702	43.322	0	147.50	0	8.0080	0	35.2030	8	27.435	0	146.273	0	217.6	4	76.0	4	-1E+10	1	-1E+10	1	-1E+10	1	-1E+10	1	-1E+10	1	-1E+10	1
4901784	153	C	09/12/2019	10:46	-132.702	43.322	0	149.90	0	7.9850	0	35.2430	8	27.470	0	148.652	0	216.2	4	75.4	4	-1E+10	1	-1E+10	1	-1E+10	1	-1E+10	1	-1E+10	1	-1E+10	1
4901784	153	C	09/12/2019	10:46	-132.702	43.322	0	152.40	0	7.9420	0	35.3090	8	27.528	0	151.131	0	214.8	4	74.9	4	-1E+10	1	-1E+10	1	-1E+10	1	-1E+10	1	-1E+10	1	-1E+10	1
4901784	153	C	09/12/2019	10:46	-132.702	43.322	0	154.80	0	7.9310	0	35.3340	8	27.549	0	153.510	0	213.9	4	74.6	4	-1E+10	1	-1E+10	1	-1E+10	1	-1E+10	1	-1E+10	1	-1E+10	1
4901784	153	C	09/12/2019	10:46	-132.702	43.322	0	157.30	0	7.9370	0	35.3440	8	27.556	0	155.988	0	212.4	4	74.1	4	-1E+10	1	-1E+10	1	-1E+10	1	-1E+10	1	-1E+10	1	-1E+10	1
4901784	153	C	09/12/2019	10:46	-132.702	43.322	0	159.90	0	7.9130	0	35.3760	8	27.585	0	158.565	0	210.4	4	73.4	4	-1E+10	1	-1E+10	1	-1E+10	1	-1E+10	1	-1E+10	1	-1E+10	1
4901784	153	C	09/12/2019	10:46	-132.702	43.322	0	162.30	0	7.8960	0	35.4420	8	27.640	0	160.944	0	208.4	4	72.7	4	-1E+10	1	-1E+10	1	-1E+10	1	-1E+10	1	-1E+10	1	-1E+10	1
4901784	153	C	09/12/2019	10:46	-132.702	43.322	0	164.80	0	7.9050	0	35.4830	8	27.671	0	163.422	0	206.6	4	72.1	4	-1E+10	1	-1E+10	1	-1E+10	1	-1E+10	1	-1E+10	1	-1E+10	1
4901784	153	C	09/12/2019	10:46	-132.702	43.322	0	167.40	0	7.9510	0	35.5500	8	27.716	0	166.000	0	204.3	4	71.4	4	-1E+10	1	-1E+10	1	-1E+10	1	-1E+10	1	-1E+10	1	-1E+10	1
4901784	153	C	09/12/2019	10:46	-132.702	43.322	0	170.10	0	7.9350	0	35.5870	8	27.748	0	168.676	0	201.9	4	70.6	4	-1E+10	1	-1E+10	1	-1E+10	1	-1E+10	1	-1E+10	1	-1E+10	1
4901784	153	C	09/12/2019	10:46	-132.702	43.322	0	172.80	0	7.9350	0	35.6150	8	27.770	0	171.352	0	200.1	4	70.0	4	-1E+10	1	-1E+10	1	-1E+10	1	-1E+10	1	-1E+10	1	-1E+10	1
4901784	153	C	09/12/2019	10:46	-132.702	43.322	0	174.60	0	7.9550	0	35.6400	8	27.787	0	173.136	0	198.2	4	69.3	4	-1E+10	1	-1E+10	1	-1E+10	1	-1E+10	1	-1E+10	1	-1E+10	1
4901784	153	C	09/12/2019	10:46	-132.702	43.322	0	177.40	0	7.9710	0	35.6780	8	27.814	0	175.912	0	195.2	4	68.3	4	-1E+10	1	-1E+10	1	-1E+10	1	-1E+10	1	-1E+10	1	-1E+10	1
4901784	153	C	09/12/2019	10:46	-132.702	43.322	0	180.20	0	7.9760	0	35.7030	8	27.833	0	178.687	0	193.0	4	67.6	4	-1E+10	1	-1E+10	1	-1E+10	1	-1E+10	1	-1E+10	1	-1E+10	1
4901784	153	C	09/12/2019	10:46	-132.702	43.322	0	182.00	0	7.9820	0	35.7150	8	27.842	0	180.471	0	191.1	4	66.9	4	-1E+10	1	-1E+10	1	-1E+10	1	-1E+10	1	-1E+10	1	-1E+10	1
4901784	153	C	09/12/2019	10:46	-132.702	43.322	0	184.70	0	8.0120	0	35.7690	8	27.879	0	183.147	0	188.5	4	66.1	4	-1E+10	1	-1E+10	1	-1E+10	1	-1E+10	1	-1E+10	1	-1E+10	1
4901784	153	C	09/12/2019	10:46	-132.702	43.322	0	187.40	0	8.0250	0	35.7910	8	27.895	0	185.823	0	186.7	4	65.5	4	-1E+10	1	-1E+10	1	-1E+10	1	-1E+10	1	-1E+10	1	-1E+10	1
4901784	153	C	09/12/2019	10:46	-132.702	43.322	0	190.20	0	8.0460	0	35.8190	8	27.914	0	188.598	0	184.6	4	64.8	4	-1E+10	1	-1E+10	1	-1E+10	1	-1E+10	1	-1E+10	1	-1E+10	1
4901784	153	C	09/12/2019	10:46	-132.702	43.322	0	193.00	0	8.0730	0	35.8520	8	27.936	0	191.374	0	182.2	4	64.0	4	-1E+10	1	-1E+10	1	-1E+10	1	-1E+10	1	-1E+10	1	-1E+10	1
4901784	153	C	09/12/2019	10:46	-132.702	43.322	0	194.80	0	8.0780	0	35.8560	8	27.938	0	193.158	0	180.2	4	63.3	4	-1E+10	1	-1E+10	1	-1E+10	1	-1E+10	1	-1E+10	1	-1E+10	1
4901784	153	C	09/12/2019	10:46	-132.702	43.322	0	197.60	0	8.0810	0	35.8770	8	27.954	0	195.933	0	176.2	4	61.9	4	-1E+10	1	-1E+10	1	-1E+10	1	-1E+10	1	-1E+10	1	-1E+10	1
4901784	153	C	09/12/2019	10:46	-132.702	43.322	0	200.40	0	8.0780	0	35.8950	8	27.969	0	198.708	0	173.2	4	60.9	4	-1E+10	1	-1E+10	1	-1E+10	1	-1E+10	1	-1E+10	1	-1E+10	1
4901784	153	C	09/12/2019	10:46	-132.702	43.322	0	202.30	0	8.0680	0	35.8990	8	27.973	0	200.591	0	171.5	4	60.2	4	-1E+10	1	-1E+10	1	-1E+10	1	-1E+10	1	-1E+10	1	-1E+10	1
4901784	153	C	09/12/2019	10:46	-132.702	43.322	0	204.20	0	8.0720	0	35.9200	8	27.989	0	202.474	0	170.4	4	59.9	4	-1E+10	1	-1E+10	1	-1E+10	1	-1E+10	1	-1E+10	1	-1E+10	1
4901784	153	C	09/12/2019	10:46	-132.702	43.322	0	207.40	0	8.0660	0	35.9350	8	28.002	0	205.645	0	168.3	4	59.2	4	-1E+10	1	-1E+10	1	-1E+10	1	-1E+10	1	-1E+10	1	-1E+10	1
4901784	153	C	09/12/2019	10:46	-132.702	43.322	0	210.30	0	8.0440	0	35.9540	8	28.020	0	208.519	0	166.5	4	58.5	4	-1E+10	1	-1E+10	1	-1E+10	1	-1E+10	1	-1E+10	1	-1E+10	1
4901784	153	C	09/12/2019	10:46	-132.702	43.322	0	212.80	0	8.0280	0	35.9640	8	28.031	0	210.997	0	165.1	4	58.0	4	-1E+10	1	-1E+10	1	-1E+10	1	-1E+10	1	-1E+10	1	-1E+10	1
4901784	153	C	09/12/2019	10:46	-132.702	43.322	0	215.20	0	8.0180	0	35.9740	8	28.040	0	213.375	0	163.7	4	57.5	4	-1E+10	1	-1E+10	1	-1E+10	1	-1E+10	1	-1E+10	1	-1E+10	1
4901784	153	C	09/12/2019	10:46	-132.702	43.322	0	217.70	0	7.9880	0	35.9790	8	28.049	0	215.852	0	160.9	4	56.5	4	-1E+10	1	-1E+10	1	-1E+10	1	-1E+10	1	-1E+10	1	-1E+10	1
4901784	153	C	09/12/2019	10:46	-132.702	43.322	0	220.10	0	7.9560	0	35.9770	8	28.052	0	218.231	0	157.9	4	55.4	4	-1E+10	1	-1E+10	1	-1E+10	1	-1E+10	1	-1E+10	1	-1E+10	1
4901784	153	C	09/12/2019	10:46	-132.702	43.322	0	222.50	0	7.8800	0	35.9700	8	28.058	0	220.609	0	155.8	4	54.5	4	-1E+10	1	-1E+10	1	-1E+10	1	-1E+10	1	-1E+10	1	-1E+10	1
4901784	153	C	09/12/2019	10:46	-132.702	43.322	0	225.00	0	7.8570	0	35.9660	8	28.058	0	223.087	0	155.2	4	54.3	4	-1E+10	1	-1E+10	1	-1E+10	1	-1E+10	1	-1E+10	1	-1E+10	1
4901784	153	C	09/12/2019	10:46	-132.702	43.322	0	227.50	0	7.8320	0	35.9680	8	28.064	0	225.564	0	155.0	4	54.2	4	-1E+10	1	-1E+10	1	-1E+10	1	-1E+10	1	-1E+10	1	-1E+10	1
4901784	153	C	09/12/2019	10:46	-132.702	43.322	0	229.90	0	7.7920	0	35.9710	8	28.072	0	227.942	0	154.6	4	54.0	4	-1E+10	1	-1E+10	1	-1E+10	1	-1E+10	1	-1E+10	1	-1E+10	1
4901784	153	C	09/12/2019	10:46	-132.702	43.322	0	232.40	0	7.7750	0	35.9710	8	28.075	0	230.420	0	154.3	4	53.9	4	-1E+10	1	-1E+10	1	-1E+10	1	-1E+10	1	-1E+10	1	-1E+10	1
4901784	153	C	09/12/2019	10:46	-132.702	43.322	0	235.00	0	7.7550	0	35.9710	8	28.078	0	232.996	0	153.9	4	53.7	4	-1E+10	1	-1E+10	1	-1E+10	1	-1E+10	1	-1E+10	1	-1E+10	1
4901784	153	C	09/12/2019	10:46	-132.702	43.322	0	237.60	0	7.7020	0	35.9750	8	28.089	0	235.572	0	153.6	4	53.6	4	-1E+10	1	-1E+10	1	-1E+10	1	-1E+10	1	-1E+10	1	-1E+10	1
4901784	153	C	09/12/2019	10:46	-132.702	43.322	0	240.10	0	7.6570	0	35.9770	8	28.097	0	238.049	0	153.6	4	53.5	4	-1E+10	1	-1E+10	1	-1E+10	1	-1E+10	1	-1E+10	1	-1E+10	1
4901784	153	C	09/12/2019	10:46	-132.702	43.322	0	242.70	0	7.6200	0	35.9800	8	28.105	0	240.626	0	152.6	4	53.1	4	-1E+10	1	-1E+10	1	-1E+10	1	-1E+10	1	-1E+10	1	-1E+10	1
4901784	153	C	09/12/2019	10:46	-132.702	43.322	0	245.30	0	7.5670	0	35.9800	8	28.113	0	243.202	0	151.2	4	52.6	4	-1E+10	1	-1E+10	1	-1E+10	1	-1E+10	1	-1E+10	1	-1E+10	1
4901784	153	C	09/12/2019	10:46	-132.702	43.322	0	247.80	0	7.5280	0	35.9790	8	28.118	0	245.679	0	150.3	4	52.2	4	-1E+10	1	-1E+10	1	-1E+10	1	-1E+10	1	-1E+10	1	-1E+10	1
4901784	153	C	09/12/2019	10:46	-132.702	43.322	0	250.30	0	7.5070	0	35.9790	8	28.121	0	248.156	0	149.6	4	52.0	4	-1E+10	1	-1E+10	1	-1E+10	1	-1E+10	1	-1E+10	1	-1E+10	1
4901784	153	C	09/12/2019	10:46	-132.702	43.322	0	252.80	0	7.4850	0	35.9780	8	28.124	0	250.633	0	148.9	4	51.7	4	-1E+10	1	-1E+10	1	-1E+10	1	-1E+10	1	-1E+10	1	-1E+10	1
4901784	153	C	09/12/2019	10:46	-132.702	43.322	0	255.30	0	7.4510	0	35.9750	8	28.126	0	253.110	0	147.8	4	51.2	4	-1E+10	1	-1E+10	1	-1E+10	1	-1E+10	1	-1E+10	1	-1E+10	1
4901784	153	C	09/12/2019	10:46	-132.702	43.322	0	257.10	0	7.3960	0	35.9790	8	28.137	0	254.894	0	147.3	4	51.0	4	-1E+10	1	-1E+10	1	-1E+10	1	-1E+10	1	-1E+10	1	-1E+10	1
4901784	153	C	09/12/2019	10:46	-132.702	43.322	0	259.60	0	7.3840	0	35.9790	8	28.139	0	257.371	0	146.4	4	50.7	4	-1E+10	1	-1E+10	1	-1E+10	1	-1E+10	1	-1E+10	1	-1E+10	1
4901784	153	C	09/12/2019	10:46	-132.702	43.322	0	262.20	0	7.3610	0	35.9770	8	28.141	0	259.947	0	145.1	4	50.2	4	-1E+10	1	-1E+10	1	-1E+10	1	-1E+10	1	-1E+10	1	-1E+10	1
4901784	153	C	09/12/2019	10:46	-132.702	43.322	0	264.90	0	7.3180	0	35.9790	8	28.149	0	262.622	0	143.8	4	49.7	4	-1E+10	1	-1E+10	1	-1E+10	1	-1E+10	1	-1E+10	1	-1E+10	1
4901784	153	C	09/12/2019	10:46	-132.702	43.322	0	267.40	0	7.2510	0	35.9770	8	28.157	0	265.099	0	142.2	4	49.1	4	-1E+10	1	-1E+10	1	-1E+10	1	-1E+10	1	-1E+10	1	-1E+10	1
4901784	153	C	09/12/2019	10:46	-132.702	43.322	0	270.10	0	7.2320	0	35.9750	8	28.158	0	267.774	0	140.3	4	48.4	4	-1E+10	1	-1E+10	1	-1E+10	1	-1E+10	1	-1E+10	1	-1E+10	1
4901784	153	C	09/12/2019	10:46	-132.702	43.322	0	272.80	0	7.1420	0	35.9740	8	28.170	0	270.449	0	138.5	4	47.7	4	-1E+10	1	-1E+10	1	-1E+10	1	-1E+10	1	-1E+10	1	-1E+10	1
4901784	153	C	09/12/2019	10:46	-132.702	43.322	0	275.40	0	7.1160	0	35.9710	8	28.172	0	273.025	0	137.7	4	47.4	4	-1E+10	1	-1E+10	1	-1E+10	1	-1E+10	1	-1E+10	1	-1E+10	1
4901784	153	C	09/12/2019	10:46	-132.702	43.322	0	278.00	0	7.0670	0	35.9710	8	28.179	0	275.601	0	137.0	4	47.1	4	-1E+10	1	-1E+10	1	-1E+10	1	-1E+10	1	-1E+10	1	-1E+10	1
4901784	153	C	09/12/2019	10:46	-132.702	43.322	0	279.80	0	7.0290	0	35.9730	8	28.186	0	277.384	0	136.8	4	47.0	4	-1E+10	1	-1E+10	1	-1E+10	1	-1E+10	1	-1E+10	1	-1E+10	1
4901784	153	C	09/12/2019	10:46	-132.702	43.322	0	282.40	0	6.9890	0	35.9730	8	28.191	0	279.960	0	136.2	4	46.7	4	-1E+10	1	-1E+10	1	-1E+10	1	-1E+10	1	-1E+10	1	-1E+10	1
4901784	153	C	09/12/2019	10:46	-132.702	43.322	0	285.10	0	6.9590	0	35.9720	8	28.195	0	282.634	0	134.9	4	46.3	4	-1E+10	1	-1E+10	1	-1E+10	1	-1E+10	1	-1E+10	1	-1E+10	1
4901784	153	C	09/12/2019	10:46	-132.702	43.322	0	287.70	0	6.9470	0	35.9720	8	28.197	0	285.210	0	132.5	4	45.4	4	-1E+10	1	-1E+10	1	-1E+10	1	-1E+10	1	-1E+10	1	-1E+10	1
4901784	153	C	09/12/2019	10:46	-132.702	43.322	0	290.30	0	6.9110	0	35.9690	8	28.199	0	287.786	0	128.9	4	44.2	4	-1E+10	1	-1E+10	1	-1E+10	1	-1E+10	1	-1E+10	1	-1E+10	1
4901784	153	C	09/12/2019	10:46	-132.702	43.322	0	292.10	0	6.8450	0	35.9680	8	28.208	0	289.569	0	127.9	4	43.8	4	-1E+10	1	-1E+10	1	-1E+10	1	-1E+10	1	-1E+10	1	-1E+10	1
4901784	153	C	09/12/2019	10:46	-132.702	43.322	0	294.70	0	6.8020	0	35.9710	8	28.216	0	292.145	0	127.1	4	43.4	4	-1E+10	1	-1E+10	1	-1E+10	1	-1E+10	1	-1E+10	1	-1E+10	1
4901784	153	C	09/12/2019	10:46	-132.702	43.322	0	297.40	0	6.7740	0	35.9710	8	28.220	0	294.819	0	126.9	4	43.3	4	-1E+10	1	-1E+10	1	-1E+10	1	-1E+10	1	-1E+10	1	-1E+10	1
4901784	153	C	09/12/2019	10:46	-132.702	43.322	0	300.00	0	6.7430	0	35.9720	8	28.225	0	297.395	0	125.9	4	43.0	4	-1E+10	1	-1E+10	1	-1E+10	1	-1E+10	1	-1E+10	1	-1E+10	1
4901784	153	C	09/12/2019	10:46	-132.702	43.322	0	302.60	0	6.7190	0	35.9710	8	28.228	0	299.970	0	125.0	4	42.6	4	-1E+10	1	-1E+10	1	-1E+10	1	-1E+10	1	-1E+10	1	-1E+10	1
4901784	153	C	09/12/2019	10:46	-132.702	43.322	0	305.20	0	6.6770	0	35.9700	8	28.233	0	302.546	0	124.5	4	42.4	4	-1E+10	1	-1E+10	1	-1E+10	1	-1E+10	1	-1E+10	1	-1E+10	1
4901784	153	C	09/12/2019	10:46	-132.702	43.322	0	307.90	0	6.6340	0	35.9710	8	28.239	0	305.220	0	124.1	4	42.2	4	-1E+10	1	-1E+10	1	-1E+10	1	-1E+10	1	-1E+10	1	-1E+10	1
4901784	153	C	09/12/2019	10:46	-132.702	43.322	0	309.70	0	6.6190	0	35.9730	8	28.243	0	307.004	0	123.8	4	42.1	4	-1E+10	1	-1E+10	1	-1E+10	1	-1E+10	1	-1E+10	1	-1E+10	1
4901784	153	C	09/12/2019	10:46	-132.702	43.322	0	312.40	0	6.5840	0	35.9740	8	28.249	0	309.678	0	122.7	4	41.7	4	-1E+10	1	-1E+10	1	-1E+10	1	-1E+10	1	-1E+10	1	-1E+10	1
4901784	153	C	09/12/2019	10:46	-132.702	43.322	0	315.00	0	6.5560	0	35.9720	8	28.251	0	312.253	0	121.2	4	41.2	4	-1E+10	1	-1E+10	1	-1E+10	1	-1E+10	1	-1E+10	1	-1E+10	1
4901784	153	C	09/12/2019	10:46	-132.702	43.322	0	317.80	0	6.5000	0	35.9740	8	28.260	0	315.027	0	120.1	4	40.7	4	-1E+10	1	-1E+10	1	-1E+10	1	-1E+10	1	-1E+10	1	-1E+10	1
4901784	153	C	09/12/2019	10:46	-132.702	43.322	0	320.50	0	6.4740	0	35.9740	8	28.264	0	317.701	0	118.9	4	40.3	4	-1E+10	1	-1E+10	1	-1E+10	1	-1E+10	1	-1E+10	1	-1E+10	1
4901784	153	C	09/12/2019	10:46	-132.702	43.322	0	322.30	0	6.4520	0	35.9730	8	28.266	0	319.484	0	118.0	4	40.0	4	-1E+10	1	-1E+10	1	-1E+10	1	-1E+10	1	-1E+10	1	-1E+10	1
4901784	153	C	09/12/2019	10:46	-132.702	43.322	0	324.90	0	6.4200	0	35.9740	8	28.271	0	322.059	0	116.2	4	39.4	4	-1E+10	1	-1E+10	1	-1E+10	1	-1E+10	1	-1E+10	1	-1E+10	1
4901784	153	C	09/12/2019	10:46	-132.702	43.322	0	327.60	0	6.3870	0	35.9740	8	28.276	0	324.734	0	114.9	4	38.9	4	-1E+10	1	-1E+10	1	-1E+10	1	-1E+10	1	-1E+10	1	-1E+10	1
4901784	153	C	09/12/2019	10:46	-132.702	43.322	0	330.30	0	6.3360	0	35.9740	8	28.283	0	327.408	0	114.0	4	38.5	4	-1E+10	1	-1E+10	1	-1E+10	1	-1E+10	1	-1E+10	1	-1E+10	1
4901784	153	C	09/12/2019	10:46	-132.702	43.322	0	332.90	0	6.2970	0	35.9740	8	28.288	0	329.983	0	113.1	4	38.2	4	-1E+10	1	-1E+10	1	-1E+10	1	-1E+10	1	-1E+10	1	-1E+10	1
4901784	153	C	09/12/2019	10:46	-132.702	43.322	0	334.70	0	6.2910	0	35.9720	8	28.287	0	331.766	0	112.3	4	37.9	4	-1E+10	1	-1E+10	1	-1E+10	1	-1E+10	1	-1E+10	1	-1E+10	1
4901784	153	C	09/12/2019	10:46	-132.702	43.322	0	337.30	0	6.2600	0	35.9700	8	28.290	0	334.341	0	110.7	4	37.4	4	-1E+10	1	-1E+10	1	-1E+10	1	-1E+10	1	-1E+10	1	-1E+10	1
4901784	153	C	09/12/2019	10:46	-132.702	43.322	0	340.10	0	6.2060	0	35.9700	8	28.297	0	337.114	0	109.2	4	36.8	4	-1E+10	1	-1E+10	1	-1E+10	1	-1E+10	1	-1E+10	1	-1E+10	1
4901784	153	C	09/12/2019	10:46	-132.702	43.322	0	342.70	0	6.1530	0	35.9700	8	28.304	0	339.689	0	107.7	4	36.2	4	-1E+10	1	-1E+10	1	-1E+10	1	-1E+10	1	-1E+10	1	-1E+10	1
4901784	153	C	09/12/2019	10:46	-132.702	43.322	0	345.40	0	6.1110	0	35.9710	8	28.310	0	342.363	0	106.3	4	35.8	4	-1E+10	1	-1E+10	1	-1E+10	1	-1E+10	1	-1E+10	1	-1E+10	1
4901784	153	C	09/12/2019	10:46	-132.702	43.322	0	347.30	0	6.0810	0	35.9680	8	28.312	0	344.245	0	105.3	4	35.4	4	-1E+10	1	-1E+10	1	-1E+10	1	-1E+10	1	-1E+10	1	-1E+10	1
4901784	153	C	09/12/2019	10:46	-132.702	43.322	0	350.00	0	6.0200	0	35.9700	8	28.321	0	346.919	0	103.7	4	34.8	4	-1E+10	1	-1E+10	1	-1E+10	1	-1E+10	1	-1E+10	1	-1E+10	1
4901784	153	C	09/12/2019	10:46	-132.702	43.322	0	352.80	0	5.9680	0	35.9710	8	28.329	0	349.692	0	102.5	4	34.3	4	-1E+10	1	-1E+10	1	-1E+10	1	-1E+10	1	-1E+10	1	-1E+10	1
4901784	153	C	09/12/2019	10:46	-132.702	43.322	0	354.60	0	5.9300	0	35.9720	8	28.335	0	351.474	0	101.7	4	34.1	4	-1E+10	1	-1E+10	1	-1E+10	1	-1E+10	1	-1E+10	1	-1E+10	1
4901784	153	C	09/12/2019	10:46	-132.702	43.322	0	357.30	0	5.9110	0	35.9700	8	28.336	0	354.148	0	100.7	4	33.7	4	-1E+10	1	-1E+10	1	-1E+10	1	-1E+10	1	-1E+10	1	-1E+10	1
4901784	153	C	09/12/2019	10:46	-132.702	43.322	0	360.10	0	5.8560	0	35.9720	8	28.344	0	356.921	0	99.6	4	33.3	4	-1E+10	1	-1E+10	1	-1E+10	1	-1E+10	1	-1E+10	1	-1E+10	1
4901784	153	C	09/12/2019	10:46	-132.702	43.322	0	362.00	0	5.8210	0	35.9730	8	28.349	0	358.803	0	99.2	4	33.2	4	-1E+10	1	-1E+10	1	-1E+10	1	-1E+10	1	-1E+10	1	-1E+10	1
4901784	153	C	09/12/2019	10:46	-132.702	43.322	0	364.80	0	5.8100	0	35.9720	8	28.350	0	361.576	0	98.9	4	33.0	4	-1E+10	1	-1E+10	1	-1E+10	1	-1E+10	1	-1E+10	1	-1E+10	1
4901784	153	C	09/12/2019	10:46	-132.702	43.322	0	367.60	0	5.7850	0	35.9710	8	28.353	0	364.348	0	98.2	4	32.8	4	-1E+10	1	-1E+10	1	-1E+10	1	-1E+10	1	-1E+10	1	-1E+10	1
4901784	153	C	09/12/2019	10:46	-132.702	43.322	0	370.30	0	5.7370	0	35.9720	8	28.360	0	367.022	0	96.7	4	32.2	4	-1E+10	1	-1E+10	1	-1E+10	1	-1E+10	1	-1E+10	1	-1E+10	1
4901784	153	C	09/12/2019	10:46	-132.702	43.322	0	373.10	0	5.7090	0	35.9730	8	28.364	0	369.795	0	94.8	4	31.6	4	-1E+10	1	-1E+10	1	-1E+10	1	-1E+10	1	-1E+10	1	-1E+10	1
4901784	153	C	09/12/2019	10:46	-132.702	43.322	0	375.00	0	5.6890	0	35.9710	8	28.365	0	371.676	0	94.0	4	31.3	4	-1E+10	1	-1E+10	1	-1E+10	1	-1E+10	1	-1E+10	1	-1E+10	1
4901784	153	C	09/12/2019	10:46	-132.702	43.322	0	377.80	0	5.6510	0	35.9720	8	28.370	0	374.449	0	92.3	4	30.7	4	-1E+10	1	-1E+10	1	-1E+10	1	-1E+10	1	-1E+10	1	-1E+10	1
4901784	153	C	09/12/2019	10:46	-132.702	43.322	0	380.60	0	5.5970	0	35.9750	8	28.380	0	377.222	0	91.4	4	30.4	4	-1E+10	1	-1E+10	1	-1E+10	1	-1E+10	1	-1E+10	1	-1E+10	1
4901784	153	C	09/12/2019	10:46	-132.702	43.322	0	382.50	0	5.5890	0	35.9740	8	28.380	0	379.103	0	90.7	4	30.2	4	-1E+10	1	-1E+10	1	-1E+10	1	-1E+10	1	-1E+10	1	-1E+10	1
4901784	153	C	09/12/2019	10:46	-132.702	43.322	0	384.30	0	5.5780	0	35.9730	8	28.381	0	380.885	0	90.0	4	29.9	4	-1E+10	1	-1E+10	1	-1E+10	1	-1E+10	1	-1E+10	1	-1E+10	1
4901784	153	C	09/12/2019	10:46	-132.702	43.322	0	387.40	0	5.5240	0	35.9760	8	28.390	0	383.955	0	88.7	4	29.4	4	-1E+10	1	-1E+10	1	-1E+10	1	-1E+10	1	-1E+10	1	-1E+10	1
4901784	153	C	09/12/2019	10:46	-132.702	43.322	0	390.20	0	5.4850	0	35.9780	8	28.396	0	386.728	0	87.8	4	29.1	4	-1E+10	1	-1E+10	1	-1E+10	1	-1E+10	1	-1E+10	1	-1E+10	1
4901784	153	C	09/12/2019	10:46	-132.702	43.322	0	392.60	0	5.4620	0	35.9780	8	28.399	0	389.104	0	87.7	4	29.1	4	-1E+10	1	-1E+10	1	-1E+10	1	-1E+10	1	-1E+10	1	-1E+10	1
4901784	153	C	09/12/2019	10:46	-132.702	43.322	0	395.00	0	5.4410	0	35.9790	8	28.402	0	391.480	0	87.6	4	29.0	4	-1E+10	1	-1E+10	1	-1E+10	1	-1E+10	1	-1E+10	1	-1E+10	1
4901784	153	C	09/12/2019	10:46	-132.702	43.322	0	397.40	0	5.4240	0	35.9790	8	28.405	0	393.857	0	87.3	4	28.9	4	-1E+10	1	-1E+10	1	-1E+10	1	-1E+10	1	-1E+10	1	-1E+10	1
4901784	153	C	09/12/2019	10:46	-132.702	43.322	0	399.70	0	5.4160	0	35.9780	8	28.405	0	396.134	0	87.4	4	28.9	4	-1E+10	1	-1E+10	1	-1E+10	1	-1E+10	1	-1E+10	1	-1E+10	1
4901784	153	C	09/12/2019	10:46	-132.702	43.322	0	402.10	0	5.3920	0	35.9760	8	28.406	0	398.510	0	87.7	4	29.0	4	-1E+10	1	-1E+10	1	-1E+10	1	-1E+10	1	-1E+10	1	-1E+10	1
4901784	153	C	09/12/2019	10:46	-132.702	43.322	0	405.30	0	5.3230	0	35.9750	8	28.414	0	401.679	0	87.9	4	29.0	4	-1E+10	1	-1E+10	1	-1E+10	1	-1E+10	1	-1E+10	1	-1E+10	1
4901784	153	C	09/12/2019	10:46	-132.702	43.322	0	407.80	0	5.2630	0	35.9770	8	28.423	0	404.154	0	87.8	4	29.0	4	-1E+10	1	-1E+10	1	-1E+10	1	-1E+10	1	-1E+10	1	-1E+10	1
4901784	153	C	09/12/2019	10:46	-132.702	43.322	0	410.30	0	5.2590	0	35.9750	8	28.422	0	406.629	0	87.5	4	28.8	4	-1E+10	1	-1E+10	1	-1E+10	1	-1E+10	1	-1E+10	1	-1E+10	1
4901784	153	C	09/12/2019	10:46	-132.702	43.322	0	412.70	0	5.2540	0	35.9730	8	28.421	0	409.005	0	86.9	4	28.6	4	-1E+10	1	-1E+10	1	-1E+10	1	-1E+10	1	-1E+10	1	-1E+10	1
4901784	153	C	09/12/2019	10:46	-132.702	43.322	0	415.20	0	5.2080	0	35.9740	8	28.427	0	411.480	0	86.1	4	28.3	4	-1E+10	1	-1E+10	1	-1E+10	1	-1E+10	1	-1E+10	1	-1E+10	1
4901784	153	C	09/12/2019	10:46	-132.702	43.322	0	417.70	0	5.1760	0	35.9740	8	28.431	0	413.955	0	85.2	4	28.0	4	-1E+10	1	-1E+10	1	-1E+10	1	-1E+10	1	-1E+10	1	-1E+10	1
4901784	153	C	09/12/2019	10:46	-132.702	43.322	0	420.30	0	5.1440	0	35.9760	8	28.437	0	416.529	0	84.2	4	27.7	4	-1E+10	1	-1E+10	1	-1E+10	1	-1E+10	1	-1E+10	1	-1E+10	1
4901784	153	C	09/12/2019	10:46	-132.702	43.322	0	422.70	0	5.1130	0	35.9770	8	28.441	0	418.906	0	83.4	4	27.4	4	-1E+10	1	-1E+10	1	-1E+10	1	-1E+10	1	-1E+10	1	-1E+10	1
4901784	153	C	09/12/2019	10:46	-132.702	43.322	0	425.20	0	5.0860	0	35.9770	8	28.444	0	421.381	0	82.4	4	27.1	4	-1E+10	1	-1E+10	1	-1E+10	1	-1E+10	1	-1E+10	1	-1E+10	1
4901784	153	C	09/12/2019	10:46	-132.702	43.322	0	427.80	0	5.0590	0	35.9780	8	28.448	0	423.954	0	81.4	4	26.7	4	-1E+10	1	-1E+10	1	-1E+10	1	-1E+10	1	-1E+10	1	-1E+10	1
4901784	153	C	09/12/2019	10:46	-132.702	43.322	0	430.30	0	5.0320	0	35.9800	8	28.453	0	426.429	0	80.2	4	26.3	4	-1E+10	1	-1E+10	1	-1E+10	1	-1E+10	1	-1E+10	1	-1E+10	1
4901784	153	C	09/12/2019	10:46	-132.702	43.322	0	433.00	0	5.0160	0	35.9830	8	28.457	0	429.102	0	78.9	4	25.9	4	-1E+10	1	-1E+10	1	-1E+10	1	-1E+10	1	-1E+10	1	-1E+10	1
4901784	153	C	09/12/2019	10:46	-132.702	43.322	0	434.70	0	5.0280	0	35.9850	8	28.458	0	430.785	0	78.0	4	25.6	4	-1E+10	1	-1E+10	1	-1E+10	1	-1E+10	1	-1E+10	1	-1E+10	1
4901784	153	C	09/12/2019	10:46	-132.702	43.322	0	437.30	0	5.0180	0	35.9870	8	28.460	0	433.359	0	77.1	4	25.3	4	-1E+10	1	-1E+10	1	-1E+10	1	-1E+10	1	-1E+10	1	-1E+10	1
4901784	153	C	09/12/2019	10:46	-132.702	43.322	0	439.90	0	5.0080	0	35.9860	8	28.461	0	435.933	0	76.5	4	25.1	4	-1E+10	1	-1E+10	1	-1E+10	1	-1E+10	1	-1E+10	1	-1E+10	1
4901784	153	C	09/12/2019	10:46	-132.702	43.322	0	442.50	0	4.9440	0	35.9870	8	28.469	0	438.507	0	75.6	4	24.7	4	-1E+10	1	-1E+10	1	-1E+10	1	-1E+10	1	-1E+10	1	-1E+10	1
4901784	153	C	09/12/2019	10:46	-132.702	43.322	0	445.20	0	4.9280	0	35.9920	8	28.475	0	441.180	0	74.1	4	24.2	4	-1E+10	1	-1E+10	1	-1E+10	1	-1E+10	1	-1E+10	1	-1E+10	1
4901784	153	C	09/12/2019	10:46	-132.702	43.322	0	447.70	0	4.9020	0	35.9970	8	28.482	0	443.654	0	72.9	4	23.8	4	-1E+10	1	-1E+10	1	-1E+10	1	-1E+10	1	-1E+10	1	-1E+10	1
4901784	153	C	09/12/2019	10:46	-132.702	43.322	0	450.30	0	4.8910	0	35.9980	8	28.484	0	446.228	0	71.9	4	23.5	4	-1E+10	1	-1E+10	1	-1E+10	1	-1E+10	1	-1E+10	1	-1E+10	1
4901784	153	C	09/12/2019	10:46	-132.702	43.322	0	452.10	0	4.8730	0	36.0020	8	28.490	0	448.010	0	71.2	4	23.3	4	-1E+10	1	-1E+10	1	-1E+10	1	-1E+10	1	-1E+10	1	-1E+10	1
4901784	153	C	09/12/2019	10:46	-132.702	43.322	0	454.70	0	4.8650	0	36.0040	8	28.492	0	450.584	0	70.1	4	22.9	4	-1E+10	1	-1E+10	1	-1E+10	1	-1E+10	1	-1E+10	1	-1E+10	1
4901784	153	C	09/12/2019	10:46	-132.702	43.322	0	457.40	0	4.8390	0	36.0060	8	28.497	0	453.256	0	68.9	4	22.5	4	-1E+10	1	-1E+10	1	-1E+10	1	-1E+10	1	-1E+10	1	-1E+10	1
4901784	153	C	09/12/2019	10:46	-132.702	43.322	0	460.00	0	4.8440	0	36.0090	8	28.499	0	455.830	0	66.7	4	21.8	4	-1E+10	1	-1E+10	1	-1E+10	1	-1E+10	1	-1E+10	1	-1E+10	1
4901784	153	C	09/12/2019	10:46	-132.702	43.322	0	462.80	0	4.8520	0	36.0150	8	28.502	0	458.601	0	63.9	4	20.9	4	-1E+10	1	-1E+10	1	-1E+10	1	-1E+10	1	-1E+10	1	-1E+10	1
4901784	153	C	09/12/2019	10:46	-132.702	43.322	0	464.60	0	4.8920	0	36.0230	8	28.504	0	460.383	0	62.6	4	20.5	4	-1E+10	1	-1E+10	1	-1E+10	1	-1E+10	1	-1E+10	1	-1E+10	1
4901784	153	C	09/12/2019	10:46	-132.702	43.322	0	467.30	0	4.8930	0	36.0250	8	28.506	0	463.055	0	61.3	4	20.1	4	-1E+10	1	-1E+10	1	-1E+10	1	-1E+10	1	-1E+10	1	-1E+10	1
4901784	153	C	09/12/2019	10:46	-132.702	43.322	0	470.00	0	4.8830	0	36.0280	8	28.509	0	465.728	0	60.4	4	19.8	4	-1E+10	1	-1E+10	1	-1E+10	1	-1E+10	1	-1E+10	1	-1E+10	1
4901784	153	C	09/12/2019	10:46	-132.702	43.322	0	472.80	0	4.8680	0	36.0320	8	28.514	0	468.499	0	60.1	4	19.6	4	-1E+10	1	-1E+10	1	-1E+10	1	-1E+10	1	-1E+10	1	-1E+10	1
4901784	153	C	09/12/2019	10:46	-132.702	43.322	0	475.50	0	4.8510	0	36.0330	8	28.517	0	471.172	0	60.1	4	19.6	4	-1E+10	1	-1E+10	1	-1E+10	1	-1E+10	1	-1E+10	1	-1E+10	1
4901784	153	C	09/12/2019	10:46	-132.702	43.322	0	477.30	0	4.8330	0	36.0310	8	28.518	0	472.953	0	60.0	4	19.6	4	-1E+10	1	-1E+10	1	-1E+10	1	-1E+10	1	-1E+10	1	-1E+10	1
4901784	153	C	09/12/2019	10:46	-132.702	43.322	0	480.10	0	4.7840	0	36.0340	8	28.526	0	475.724	0	59.5	4	19.4	4	-1E+10	1	-1E+10	1	-1E+10	1	-1E+10	1	-1E+10	1	-1E+10	1
4901784	153	C	09/12/2019	10:46	-132.702	43.322	0	482.80	0	4.7630	0	36.0360	8	28.530	0	478.397	0	58.4	4	19.0	4	-1E+10	1	-1E+10	1	-1E+10	1	-1E+10	1	-1E+10	1	-1E+10	1
4901784	153	C	09/12/2019	10:46	-132.702	43.322	0	484.60	0	4.7790	0	36.0390	8	28.530	0	480.178	0	57.3	4	18.7	4	-1E+10	1	-1E+10	1	-1E+10	1	-1E+10	1	-1E+10	1	-1E+10	1
4901784	153	C	09/12/2019	10:46	-132.702	43.322	0	487.30	0	4.7650	0	36.0440	8	28.536	0	482.850	0	56.3	4	18.4	4	-1E+10	1	-1E+10	1	-1E+10	1	-1E+10	1	-1E+10	1	-1E+10	1
4901784	153	C	09/12/2019	10:46	-132.702	43.322	0	490.00	0	4.7680	0	36.0460	8	28.537	0	485.523	0	55.3	4	18.0	4	-1E+10	1	-1E+10	1	-1E+10	1	-1E+10	1	-1E+10	1	-1E+10	1
4901784	153	C	09/12/2019	10:46	-132.702	43.322	0	491.90	0	4.7650	0	36.0470	8	28.538	0	487.403	0	54.6	4	17.8	4	-1E+10	1	-1E+10	1	-1E+10	1	-1E+10	1	-1E+10	1	-1E+10	1
4901784	153	C	09/12/2019	10:46	-132.702	43.322	0	494.80	0	4.7550	0	36.0510	8	28.543	0	490.273	0	53.3	4	17.4	4	-1E+10	1	-1E+10	1	-1E+10	1	-1E+10	1	-1E+10	1	-1E+10	1
4901784	153	C	09/12/2019	10:46	-132.702	43.322	0	497.60	0	4.7530	0	36.0570	8	28.548	0	493.044	0	52.2	4	17.0	4	-1E+10	1	-1E+10	1	-1E+10	1	-1E+10	1	-1E+10	1	-1E+10	1
4901784	153	C	09/12/2019	10:46	-132.702	43.322	0	499.50	0	4.7470	0	36.0580	8	28.549	0	494.925	0	51.8	4	16.9	4	-1E+10	1	-1E+10	1	-1E+10	1	-1E+10	1	-1E+10	1	-1E+10	1
4901784	153	C	09/12/2019	10:46	-132.702	43.322	0	505.20	0	4.7370	0	36.0630	8	28.554	0	500.566	0	50.1	4	16.3	4	-1E+10	1	-1E+10	1	-1E+10	1	-1E+10	1	-1E+10	1	-1E+10	1
4901784	153	C	09/12/2019	10:46	-132.702	43.322	0	509.90	0	4.7310	0	36.0660	8	28.558	0	505.217	0	48.9	4	15.9	4	-1E+10	1	-1E+10	1	-1E+10	1	-1E+10	1	-1E+10	1	-1E+10	1
4901784	153	C	09/12/2019	10:46	-132.702	43.322	0	514.60	0	4.7200	0	36.0700	8	28.562	0	509.868	0	47.5	4	15.5	4	-1E+10	1	-1E+10	1	-1E+10	1	-1E+10	1	-1E+10	1	-1E+10	1
4901784	153	C	09/12/2019	10:46	-132.702	43.322	0	520.40	0	4.7010	0	36.0750	8	28.568	0	515.607	0	46.0	4	15.0	4	-1E+10	1	-1E+10	1	-1E+10	1	-1E+10	1	-1E+10	1	-1E+10	1
4901784	153	C	09/12/2019	10:46	-132.702	43.322	0	525.40	0	4.6860	0	36.0800	8	28.574	0	520.555	0	44.7	4	14.5	4	-1E+10	1	-1E+10	1	-1E+10	1	-1E+10	1	-1E+10	1	-1E+10	1
4901784	153	C	09/12/2019	10:46	-132.702	43.322	0	530.00	0	4.6700	0	36.0860	8	28.581	0	525.107	0	43.1	4	14.0	4	-1E+10	1	-1E+10	1	-1E+10	1	-1E+10	1	-1E+10	1	-1E+10	1
4901784	153	C	09/12/2019	10:46	-132.702	43.322	0	534.80	0	4.6580	0	36.0910	8	28.586	0	529.856	0	41.5	4	13.5	4	-1E+10	1	-1E+10	1	-1E+10	1	-1E+10	1	-1E+10	1	-1E+10	1
4901784	153	C	09/12/2019	10:46	-132.702	43.322	0	539.70	0	4.6260	0	36.0990	8	28.596	0	534.705	0	39.8	4	12.9	4	-1E+10	1	-1E+10	1	-1E+10	1	-1E+10	1	-1E+10	1	-1E+10	1
4901784	153	C	09/12/2019	10:46	-132.702	43.322	0	544.70	0	4.6030	0	36.1050	8	28.604	0	539.652	0	38.9	4	12.6	4	-1E+10	1	-1E+10	1	-1E+10	1	-1E+10	1	-1E+10	1	-1E+10	1
4901784	153	C	09/12/2019	10:46	-132.702	43.322	0	549.70	0	4.5900	0	36.1060	8	28.606	0	544.599	0	37.8	4	12.3	4	-1E+10	1	-1E+10	1	-1E+10	1	-1E+10	1	-1E+10	1	-1E+10	1
4901784	153	C	09/12/2019	10:46	-132.702	43.322	0	554.70	0	4.5630	0	36.1140	8	28.615	0	549.546	0	36.1	4	11.7	4	-1E+10	1	-1E+10	1	-1E+10	1	-1E+10	1	-1E+10	1	-1E+10	1
4901784	153	C	09/12/2019	10:46	-132.702	43.322	0	559.70	0	4.5450	0	36.1220	8	28.624	0	554.493	0	34.6	4	11.2	4	-1E+10	1	-1E+10	1	-1E+10	1	-1E+10	1	-1E+10	1	-1E+10	1
4901784	153	C	09/12/2019	10:46	-132.702	43.322	0	564.70	0	4.5380	0	36.1270	8	28.629	0	559.440	0	33.0	4	10.7	4	-1E+10	1	-1E+10	1	-1E+10	1	-1E+10	1	-1E+10	1	-1E+10	1
4901784	153	C	09/12/2019	10:46	-132.702	43.322	0	569.70	0	4.5250	0	36.1340	8	28.636	0	564.386	0	31.1	4	10.1	4	-1E+10	1	-1E+10	1	-1E+10	1	-1E+10	1	-1E+10	1	-1E+10	1
4901784	153	C	09/12/2019	10:46	-132.702	43.322	0	574.80	0	4.5110	0	36.1440	8	28.645	0	569.432	0	29.7	4	9.6	4	-1E+10	1	-1E+10	1	-1E+10	1	-1E+10	1	-1E+10	1	-1E+10	1
4901784	153	C	09/12/2019	10:46	-132.702	43.322	0	579.80	0	4.4910	0	36.1500	8	28.652	0	574.378	0	28.7	4	9.3	4	-1E+10	1	-1E+10	1	-1E+10	1	-1E+10	1	-1E+10	1	-1E+10	1
4901784	153	C	09/12/2019	10:46	-132.702	43.322	0	584.90	0	4.4690	0	36.1550	8	28.659	0	579.423	0	27.8	4	9.0	4	-1E+10	1	-1E+10	1	-1E+10	1	-1E+10	1	-1E+10	1	-1E+10	1
4901784	153	C	09/12/2019	10:46	-132.702	43.322	0	589.90	0	4.4710	0	36.1600	8	28.663	0	584.370	0	26.7	4	8.6	4	-1E+10	1	-1E+10	1	-1E+10	1	-1E+10	1	-1E+10	1	-1E+10	1
4901784	153	C	09/12/2019	10:46	-132.702	43.322	0	594.90	0	4.4650	0	36.1660	8	28.668	0	589.316	0	25.4	4	8.2	4	-1E+10	1	-1E+10	1	-1E+10	1	-1E+10	1	-1E+10	1	-1E+10	1
4901784	153	C	09/12/2019	10:46	-132.702	43.322	0	600.00	0	4.4590	0	36.1730	8	28.674	0	594.360	0	24.3	4	7.9	4	-1E+10	1	-1E+10	1	-1E+10	1	-1E+10	1	-1E+10	1	-1E+10	1
4901784	153	C	09/12/2019	10:46	-132.702	43.322	0	605.20	0	4.4470	0	36.1800	8	28.681	0	599.504	0	23.4	4	7.6	4	-1E+10	1	-1E+10	1	-1E+10	1	-1E+10	1	-1E+10	1	-1E+10	1
4901784	153	C	09/12/2019	10:46	-132.702	43.322	0	610.50	0	4.4430	0	36.1830	8	28.684	0	604.746	0	22.8	4	7.4	4	-1E+10	1	-1E+10	1	-1E+10	1	-1E+10	1	-1E+10	1	-1E+10	1
4901784	153	C	09/12/2019	10:46	-132.702	43.322	0	615.70	0	4.4260	0	36.1890	8	28.691	0	609.890	0	22.3	4	7.2	4	-1E+10	1	-1E+10	1	-1E+10	1	-1E+10	1	-1E+10	1	-1E+10	1
4901784	153	C	09/12/2019	10:46	-132.702	43.322	0	620.10	0	4.4190	0	36.1900	8	28.693	0	614.242	0	21.9	4	7.1	4	-1E+10	1	-1E+10	1	-1E+10	1	-1E+10	1	-1E+10	1	-1E+10	1
4901784	153	C	09/12/2019	10:46	-132.702	43.322	0	624.40	0	4.4020	0	36.1940	8	28.698	0	618.495	0	21.7	4	7.0	4	-1E+10	1	-1E+10	1	-1E+10	1	-1E+10	1	-1E+10	1	-1E+10	1
4901784	153	C	09/12/2019	10:46	-132.702	43.322	0	629.60	0	4.3570	0	36.1980	8	28.706	0	623.638	0	21.5	4	7.0	4	-1E+10	1	-1E+10	1	-1E+10	1	-1E+10	1	-1E+10	1	-1E+10	1
4901784	153	C	09/12/2019	10:46	-132.702	43.322	0	634.80	0	4.3400	0	36.2020	8	28.711	0	628.781	0	20.9	4	6.8	4	-1E+10	1	-1E+10	1	-1E+10	1	-1E+10	1	-1E+10	1	-1E+10	1
4901784	153	C	09/12/2019	10:46	-132.702	43.322	0	640.00	0	4.3390	0	36.2060	8	28.714	0	633.924	0	20.0	4	6.5	4	-1E+10	1	-1E+10	1	-1E+10	1	-1E+10	1	-1E+10	1	-1E+10	1
4901784	153	C	09/12/2019	10:46	-132.702	43.322	0	645.20	0	4.3460	0	36.2120	8	28.718	0	639.066	0	19.2	4	6.2	4	-1E+10	1	-1E+10	1	-1E+10	1	-1E+10	1	-1E+10	1	-1E+10	1
4901784	153	C	09/12/2019	10:46	-132.702	43.322	0	650.40	0	4.3230	0	36.2190	8	28.727	0	644.209	0	18.3	4	5.9	4	-1E+10	1	-1E+10	1	-1E+10	1	-1E+10	1	-1E+10	1	-1E+10	1
4901784	153	C	09/12/2019	10:46	-132.702	43.322	0	655.70	0	4.3230	0	36.2240	8	28.731	0	649.450	0	17.8	4	5.8	4	-1E+10	1	-1E+10	1	-1E+10	1	-1E+10	1	-1E+10	1	-1E+10	1
4901784	153	C	09/12/2019	10:46	-132.702	43.322	0	660.10	0	4.2840	0	36.2270	8	28.737	0	653.801	0	17.7	4	5.7	4	-1E+10	1	-1E+10	1	-1E+10	1	-1E+10	1	-1E+10	1	-1E+10	1
4901784	153	C	09/12/2019	10:46	-132.702	43.322	0	664.60	0	4.2480	0	36.2320	8	28.745	0	658.251	0	17.2	4	5.5	4	-1E+10	1	-1E+10	1	-1E+10	1	-1E+10	1	-1E+10	1	-1E+10	1
4901784	153	C	09/12/2019	10:46	-132.702	43.322	0	670.00	0	4.2240	0	36.2420	8	28.756	0	663.591	0	16.3	4	5.3	4	-1E+10	1	-1E+10	1	-1E+10	1	-1E+10	1	-1E+10	1	-1E+10	1
4901784	153	C	09/12/2019	10:46	-132.702	43.322	0	675.40	0	4.2090	0	36.2500	8	28.764	0	668.931	0	15.6	4	5.0	4	-1E+10	1	-1E+10	1	-1E+10	1	-1E+10	1	-1E+10	1	-1E+10	1
4901784	153	C	09/12/2019	10:46	-132.702	43.322	0	679.90	0	4.1990	0	36.2570	8	28.771	0	673.380	0	15.4	4	5.0	4	-1E+10	1	-1E+10	1	-1E+10	1	-1E+10	1	-1E+10	1	-1E+10	1
4901784	153	C	09/12/2019	10:46	-132.702	43.322	0	684.50	0	4.1920	0	36.2580	8	28.772	0	677.929	0	15.3	4	4.9	4	-1E+10	1	-1E+10	1	-1E+10	1	-1E+10	1	-1E+10	1	-1E+10	1
4901784	153	C	09/12/2019	10:46	-132.702	43.322	0	690.10	0	4.1620	0	36.2590	8	28.777	0	683.466	0	15.1	4	4.9	4	-1E+10	1	-1E+10	1	-1E+10	1	-1E+10	1	-1E+10	1	-1E+10	1
4901784	153	C	09/12/2019	10:46	-132.702	43.322	0	694.70	0	4.1360	0	36.2640	8	28.783	0	688.014	0	14.8	4	4.8	4	-1E+10	1	-1E+10	1	-1E+10	1	-1E+10	1	-1E+10	1	-1E+10	1
4901784	153	C	09/12/2019	10:46	-132.702	43.322	0	700.20	0	4.1300	0	36.2700	8	28.789	0	693.452	0	14.3	4	4.6	4	-1E+10	1	-1E+10	1	-1E+10	1	-1E+10	1	-1E+10	1	-1E+10	1
4901784	153	C	09/12/2019	10:46	-132.702	43.322	0	705.30	0	4.1320	0	36.2760	8	28.793	0	698.494	0	14.0	4	4.5	4	-1E+10	1	-1E+10	1	-1E+10	1	-1E+10	1	-1E+10	1	-1E+10	1
4901784	153	C	09/12/2019	10:46	-132.702	43.322	0	710.10	0	4.1080	0	36.2790	8	28.799	0	703.240	0	14.0	4	4.5	4	-1E+10	1	-1E+10	1	-1E+10	1	-1E+10	1	-1E+10	1	-1E+10	1
4901784	153	C	09/12/2019	10:46	-132.702	43.322	0	714.90	0	4.0810	0	36.2810	8	28.803	0	707.985	0	13.8	4	4.4	4	-1E+10	1	-1E+10	1	-1E+10	1	-1E+10	1	-1E+10	1	-1E+10	1
4901784	153	C	09/12/2019	10:46	-132.702	43.322	0	719.70	0	4.0750	0	36.2860	8	28.808	0	712.731	0	13.4	4	4.3	4	-1E+10	1	-1E+10	1	-1E+10	1	-1E+10	1	-1E+10	1	-1E+10	1
4901784	153	C	09/12/2019	10:46	-132.702	43.322	0	724.60	0	4.0940	0	36.2930	8	28.811	0	717.575	0	13.0	4	4.2	4	-1E+10	1	-1E+10	1	-1E+10	1	-1E+10	1	-1E+10	1	-1E+10	1
4901784	153	C	09/12/2019	10:46	-132.702	43.322	0	729.50	0	4.0820	0	36.2930	8	28.813	0	722.419	0	13.0	4	4.2	4	-1E+10	1	-1E+10	1	-1E+10	1	-1E+10	1	-1E+10	1	-1E+10	1
4901784	153	C	09/12/2019	10:46	-132.702	43.322	0	734.50	0	4.0350	0	36.2960	8	28.820	0	727.362	0	13.0	4	4.2	4	-1E+10	1	-1E+10	1	-1E+10	1	-1E+10	1	-1E+10	1	-1E+10	1
4901784	153	C	09/12/2019	10:46	-132.702	43.322	0	739.50	0	4.0460	0	36.3000	8	28.822	0	732.304	0	12.7	4	4.1	4	-1E+10	1	-1E+10	1	-1E+10	1	-1E+10	1	-1E+10	1	-1E+10	1
4901784	153	C	09/12/2019	10:46	-132.702	43.322	0	744.70	0	4.0330	0	36.3020	8	28.825	0	737.444	0	12.6	4	4.0	4	-1E+10	1	-1E+10	1	-1E+10	1	-1E+10	1	-1E+10	1	-1E+10	1
4901784	153	C	09/12/2019	10:46	-132.702	43.322	0	749.70	0	4.0210	0	36.3060	8	28.830	0	742.387	0	12.4	4	4.0	4	-1E+10	1	-1E+10	1	-1E+10	1	-1E+10	1	-1E+10	1	-1E+10	1
4901784	153	C	09/12/2019	10:46	-132.702	43.322	0	754.80	0	4.0170	0	36.3080	8	28.832	0	747.428	0	12.3	4	4.0	4	-1E+10	1	-1E+10	1	-1E+10	1	-1E+10	1	-1E+10	1	-1E+10	1
4901784	153	C	09/12/2019	10:46	-132.702	43.322	0	759.90	0	4.0110	0	36.3110	8	28.835	0	752.469	0	12.1	4	3.9	4	-1E+10	1	-1E+10	1	-1E+10	1	-1E+10	1	-1E+10	1	-1E+10	1
4901784	153	C	09/12/2019	10:46	-132.702	43.322	0	765.10	0	4.0100	0	36.3150	8	28.838	0	757.609	0	12.0	4	3.8	4	-1E+10	1	-1E+10	1	-1E+10	1	-1E+10	1	-1E+10	1	-1E+10	1
4901784	153	C	09/12/2019	10:46	-132.702	43.322	0	770.40	0	3.9980	0	36.3160	8	28.840	0	762.847	0	11.9	4	3.8	4	-1E+10	1	-1E+10	1	-1E+10	1	-1E+10	1	-1E+10	1	-1E+10	1
4901784	153	C	09/12/2019	10:46	-132.702	43.322	0	774.80	0	3.9870	0	36.3180	8	28.843	0	767.196	0	11.8	4	3.8	4	-1E+10	1	-1E+10	1	-1E+10	1	-1E+10	1	-1E+10	1	-1E+10	1
4901784	153	C	09/12/2019	10:46	-132.702	43.322	0	779.30	0	3.9820	0	36.3210	8	28.846	0	771.643	0	11.7	4	3.8	4	-1E+10	1	-1E+10	1	-1E+10	1	-1E+10	1	-1E+10	1	-1E+10	1
4901784	153	C	09/12/2019	10:46	-132.702	43.322	0	784.60	0	3.9610	0	36.3270	8	28.853	0	776.881	0	11.7	4	3.7	4	-1E+10	1	-1E+10	1	-1E+10	1	-1E+10	1	-1E+10	1	-1E+10	1
4901784	153	C	09/12/2019	10:46	-132.702	43.322	0	790.00	0	3.9390	0	36.3340	8	28.861	0	782.218	0	11.7	4	3.7	4	-1E+10	1	-1E+10	1	-1E+10	1	-1E+10	1	-1E+10	1	-1E+10	1
4901784	153	C	09/12/2019	10:46	-132.702	43.322	0	795.50	0	3.9300	0	36.3360	8	28.864	0	787.654	0	11.5	4	3.7	4	-1E+10	1	-1E+10	1	-1E+10	1	-1E+10	1	-1E+10	1	-1E+10	1
4901784	153	C	09/12/2019	10:46	-132.702	43.322	0	800.10	0	3.9350	0	36.3380	8	28.865	0	792.200	0	11.4	4	3.7	4	-1E+10	1	-1E+10	1	-1E+10	1	-1E+10	1	-1E+10	1	-1E+10	1
4901784	153	C	09/12/2019	10:46	-132.702	43.322	0	804.80	0	3.9300	0	36.3410	8	28.868	0	796.844	0	11.3	4	3.6	4	-1E+10	1	-1E+10	1	-1E+10	1	-1E+10	1	-1E+10	1	-1E+10	1
4901784	153	C	09/12/2019	10:46	-132.702	43.322	0	810.40	0	3.9150	0	36.3430	8	28.871	0	802.378	0	11.2	4	3.6	4	-1E+10	1	-1E+10	1	-1E+10	1	-1E+10	1	-1E+10	1	-1E+10	1
4901784	153	C	09/12/2019	10:46	-132.702	43.322	0	815.20	0	3.8960	0	36.3460	8	28.876	0	807.121	0	11.1	4	3.6	4	-1E+10	1	-1E+10	1	-1E+10	1	-1E+10	1	-1E+10	1	-1E+10	1
4901784	153	C	09/12/2019	10:46	-132.702	43.322	0	819.90	0	3.8820	0	36.3520	8	28.882	0	811.766	0	10.9	4	3.5	4	-1E+10	1	-1E+10	1	-1E+10	1	-1E+10	1	-1E+10	1	-1E+10	1
4901784	153	C	09/12/2019	10:46	-132.702	43.322	0	824.70	0	3.8910	0	36.3580	8	28.886	0	816.509	0	10.7	4	3.4	4	-1E+10	1	-1E+10	1	-1E+10	1	-1E+10	1	-1E+10	1	-1E+10	1
4901784	153	C	09/12/2019	10:46	-132.702	43.322	0	829.50	0	3.8760	0	36.3600	8	28.889	0	821.252	0	10.7	4	3.4	4	-1E+10	1	-1E+10	1	-1E+10	1	-1E+10	1	-1E+10	1	-1E+10	1
4901784	153	C	09/12/2019	10:46	-132.702	43.322	0	835.20	0	3.8560	0	36.3650	8	28.895	0	826.884	0	10.6	4	3.4	4	-1E+10	1	-1E+10	1	-1E+10	1	-1E+10	1	-1E+10	1	-1E+10	1
4901784	153	C	09/12/2019	10:46	-132.702	43.322	0	840.00	0	3.8470	0	36.3660	8	28.897	0	831.626	0	10.6	4	3.4	4	-1E+10	1	-1E+10	1	-1E+10	1	-1E+10	1	-1E+10	1	-1E+10	1
4901784	153	C	09/12/2019	10:46	-132.702	43.322	0	844.70	0	3.8340	0	36.3700	8	28.901	0	836.270	0	10.5	4	3.4	4	-1E+10	1	-1E+10	1	-1E+10	1	-1E+10	1	-1E+10	1	-1E+10	1
4901784	153	C	09/12/2019	10:46	-132.702	43.322	0	850.50	0	3.8280	0	36.3730	8	28.905	0	842.000	0	10.4	4	3.3	4	-1E+10	1	-1E+10	1	-1E+10	1	-1E+10	1	-1E+10	1	-1E+10	1
4901784	153	C	09/12/2019	10:46	-132.702	43.322	0	855.20	0	3.8150	0	36.3760	8	28.908	0	846.644	0	10.4	4	3.3	4	-1E+10	1	-1E+10	1	-1E+10	1	-1E+10	1	-1E+10	1	-1E+10	1
4901784	153	C	09/12/2019	10:46	-132.702	43.322	0	859.90	0	3.7990	0	36.3780	8	28.912	0	851.287	0	10.4	4	3.3	4	-1E+10	1	-1E+10	1	-1E+10	1	-1E+10	1	-1E+10	1	-1E+10	1
4901784	153	C	09/12/2019	10:46	-132.702	43.322	0	864.60	0	3.7790	0	36.3810	8	28.916	0	855.931	0	10.4	4	3.3	4	-1E+10	1	-1E+10	1	-1E+10	1	-1E+10	1	-1E+10	1	-1E+10	1
4901784	153	C	09/12/2019	10:46	-132.702	43.322	0	869.40	0	3.7690	0	36.3830	8	28.919	0	860.673	0	10.3	4	3.3	4	-1E+10	1	-1E+10	1	-1E+10	1	-1E+10	1	-1E+10	1	-1E+10	1
4901784	153	C	09/12/2019	10:46	-132.702	43.322	0	875.10	0	3.7580	0	36.3880	8	28.924	0	866.304	0	10.3	4	3.3	4	-1E+10	1	-1E+10	1	-1E+10	1	-1E+10	1	-1E+10	1	-1E+10	1
4901784	153	C	09/12/2019	10:46	-132.702	43.322	0	880.60	0	3.7420	0	36.3900	8	28.927	0	871.737	0	10.3	4	3.3	4	-1E+10	1	-1E+10	1	-1E+10	1	-1E+10	1	-1E+10	1	-1E+10	1
4901784	153	C	09/12/2019	10:46	-132.702	43.322	0	885.50	0	3.7130	0	36.3930	8	28.933	0	876.577	0	10.3	4	3.3	4	-1E+10	1	-1E+10	1	-1E+10	1	-1E+10	1	-1E+10	1	-1E+10	1
4901784	153	C	09/12/2019	10:46	-132.702	43.322	0	890.50	0	3.7040	0	36.3940	8	28.935	0	881.516	0	10.3	4	3.3	4	-1E+10	1	-1E+10	1	-1E+10	1	-1E+10	1	-1E+10	1	-1E+10	1
4901784	153	C	09/12/2019	10:46	-132.702	43.322	0	895.50	0	3.6990	0	36.3950	8	28.936	0	886.455	0	10.3	4	3.3	4	-1E+10	1	-1E+10	1	-1E+10	1	-1E+10	1	-1E+10	1	-1E+10	1
4901784	153	C	09/12/2019	10:46	-132.702	43.322	0	900.40	0	3.6890	0	36.3960	8	28.938	0	891.295	0	10.3	4	3.3	4	-1E+10	1	-1E+10	1	-1E+10	1	-1E+10	1	-1E+10	1	-1E+10	1
4901784	153	C	09/12/2019	10:46	-132.702	43.322	0	905.50	0	3.6790	0	36.3990	8	28.941	0	896.333	0	10.3	4	3.3	4	-1E+10	1	-1E+10	1	-1E+10	1	-1E+10	1	-1E+10	1	-1E+10	1
4901784	153	C	09/12/2019	10:46	-132.702	43.322	0	910.40	0	3.6680	0	36.4020	8	28.945	0	901.173	0	10.3	4	3.3	4	-1E+10	1	-1E+10	1	-1E+10	1	-1E+10	1	-1E+10	1	-1E+10	1
4901784	153	C	09/12/2019	10:46	-132.702	43.322	0	915.50	0	3.6530	0	36.4040	8	28.948	0	906.210	0	10.3	4	3.3	4	-1E+10	1	-1E+10	1	-1E+10	1	-1E+10	1	-1E+10	1	-1E+10	1
4901784	153	C	09/12/2019	10:46	-132.702	43.322	0	920.60	0	3.6340	0	36.4050	8	28.951	0	911.247	0	10.3	4	3.3	4	-1E+10	1	-1E+10	1	-1E+10	1	-1E+10	1	-1E+10	1	-1E+10	1
4901784	153	C	09/12/2019	10:46	-132.702	43.322	0	925.70	0	3.6150	0	36.4090	8	28.956	0	916.284	0	10.3	4	3.3	4	-1E+10	1	-1E+10	1	-1E+10	1	-1E+10	1	-1E+10	1	-1E+10	1
4901784	153	C	09/12/2019	10:46	-132.702	43.322	0	930.70	0	3.6050	0	36.4120	8	28.959	0	921.222	0	10.3	4	3.3	4	-1E+10	1	-1E+10	1	-1E+10	1	-1E+10	1	-1E+10	1	-1E+10	1
4901784	153	C	09/12/2019	10:46	-132.702	43.322	0	935.00	0	3.5890	0	36.4150	8	28.964	0	925.469	0	10.4	4	3.3	4	-1E+10	1	-1E+10	1	-1E+10	1	-1E+10	1	-1E+10	1	-1E+10	1
4901784	153	C	09/12/2019	10:46	-132.702	43.322	0	939.30	0	3.5780	0	36.4170	8	28.966	0	929.716	0	10.3	4	3.3	4	-1E+10	1	-1E+10	1	-1E+10	1	-1E+10	1	-1E+10	1	-1E+10	1
4901784	153	C	09/12/2019	10:46	-132.702	43.322	0	944.40	0	3.5730	0	36.4220	8	28.971	0	934.752	0	10.3	4	3.3	4	-1E+10	1	-1E+10	1	-1E+10	1	-1E+10	1	-1E+10	1	-1E+10	1
4901784	153	C	09/12/2019	10:46	-132.702	43.322	0	949.50	0	3.5670	0	36.4250	8	28.974	0	939.789	0	10.3	4	3.3	4	-1E+10	1	-1E+10	1	-1E+10	1	-1E+10	1	-1E+10	1	-1E+10	1
4901784	153	C	09/12/2019	10:46	-132.702	43.322	0	954.60	0	3.5530	0	36.4270	8	28.977	0	944.825	0	10.4	4	3.3	4	-1E+10	1	-1E+10	1	-1E+10	1	-1E+10	1	-1E+10	1	-1E+10	1
4901784	153	C	09/12/2019	10:46	-132.702	43.322	0	959.80	0	3.5420	0	36.4310	8	28.981	0	949.960	0	10.3	4	3.3	4	-1E+10	1	-1E+10	1	-1E+10	1	-1E+10	1	-1E+10	1	-1E+10	1
4901784	153	C	09/12/2019	10:46	-132.702	43.322	0	965.10	0	3.5360	0	36.4330	8	28.984	0	955.194	0	10.3	4	3.3	4	-1E+10	1	-1E+10	1	-1E+10	1	-1E+10	1	-1E+10	1	-1E+10	1
4901784	153	C	09/12/2019	10:46	-132.702	43.322	0	970.30	0	3.5180	0	36.4370	8	28.989	0	960.328	0	10.4	4	3.3	4	-1E+10	1	-1E+10	1	-1E+10	1	-1E+10	1	-1E+10	1	-1E+10	1
4901784	153	C	09/12/2019	10:46	-132.702	43.322	0	975.60	0	3.5030	0	36.4390	8	28.992	0	965.562	0	10.4	4	3.3	4	-1E+10	1	-1E+10	1	-1E+10	1	-1E+10	1	-1E+10	1	-1E+10	1
4901784	153	C	09/12/2019	10:46	-132.702	43.322	0	980.70	0	3.4890	0	36.4410	8	28.995	0	970.597	0	10.4	4	3.3	4	-1E+10	1	-1E+10	1	-1E+10	1	-1E+10	1	-1E+10	1	-1E+10	1
4901784	153	C	09/12/2019	10:46	-132.702	43.322	0	985.10	0	3.4730	0	36.4440	8	28.999	0	974.942	0	10.5	4	3.3	4	-1E+10	1	-1E+10	1	-1E+10	1	-1E+10	1	-1E+10	1	-1E+10	1
4901784	153	C	09/12/2019	10:46	-132.702	43.322	0	989.50	0	3.4620	0	36.4470	8	29.002	0	979.286	0	10.6	4	3.3	4	-1E+10	1	-1E+10	1	-1E+10	1	-1E+10	1	-1E+10	1	-1E+10	1
4901784	153	C	09/12/2019	10:46	-132.702	43.322	0	994.80	0	3.4510	0	36.4520	8	29.008	0	984.519	0	10.7	4	3.4	4	-1E+10	1	-1E+10	1	-1E+10	1	-1E+10	1	-1E+10	1	-1E+10	1
4901784	153	C	09/12/2019	10:46	-132.702	43.322	0	1000.20	0	3.4340	0	36.4550	8	29.012	0	989.850	0	10.7	4	3.4	4	-1E+10	1	-1E+10	1	-1E+10	1	-1E+10	1	-1E+10	1	-1E+10	1
4901784	153	C	09/12/2019	10:46	-132.702	43.322	0	1005.60	0	3.4230	0	36.4580	8	29.015	0	995.182	0	10.8	4	3.4	4	-1E+10	1	-1E+10	1	-1E+10	1	-1E+10	1	-1E+10	1	-1E+10	1
4901784	153	C	09/12/2019	10:46	-132.702	43.322	0	1010.20	0	3.4150	0	36.4600	8	29.018	0	999.723	0	10.8	4	3.4	4	-1E+10	1	-1E+10	1	-1E+10	1	-1E+10	1	-1E+10	1	-1E+10	1
4901784	153	C	09/12/2019	10:46	-132.702	43.322	0	1014.70	0	3.4060	0	36.4610	8	29.019	0	1004.166	0	10.9	4	3.4	4	-1E+10	1	-1E+10	1	-1E+10	1	-1E+10	1	-1E+10	1	-1E+10	1
4901784	153	C	09/12/2019	10:46	-132.702	43.322	0	1020.20	0	3.3970	0	36.4630	8	29.022	0	1009.595	0	10.9	4	3.5	4	-1E+10	1	-1E+10	1	-1E+10	1	-1E+10	1	-1E+10	1	-1E+10	1
4901784	153	C	09/12/2019	10:46	-132.702	43.322	0	1024.80	0	3.3910	0	36.4650	8	29.024	0	1014.136	0	11.0	4	3.5	4	-1E+10	1	-1E+10	1	-1E+10	1	-1E+10	1	-1E+10	1	-1E+10	1
4901784	153	C	09/12/2019	10:46	-132.702	43.322	0	1029.40	0	3.3880	0	36.4650	8	29.025	0	1018.677	0	11.0	4	3.5	4	-1E+10	1	-1E+10	1	-1E+10	1	-1E+10	1	-1E+10	1	-1E+10	1
4901784	153	C	09/12/2019	10:46	-132.702	43.322	0	1035.10	0	3.3810	0	36.4660	8	29.026	0	1024.304	0	11.1	4	3.5	4	-1E+10	1	-1E+10	1	-1E+10	1	-1E+10	1	-1E+10	1	-1E+10	1
4901784	153	C	09/12/2019	10:46	-132.702	43.322	0	1039.70	0	3.3660	0	36.4690	8	29.030	0	1028.845	0	11.1	4	3.5	4	-1E+10	1	-1E+10	1	-1E+10	1	-1E+10	1	-1E+10	1	-1E+10	1
4901784	153	C	09/12/2019	10:46	-132.702	43.322	0	1044.40	0	3.3600	0	36.4690	8	29.031	0	1033.484	0	11.2	4	3.5	4	-1E+10	1	-1E+10	1	-1E+10	1	-1E+10	1	-1E+10	1	-1E+10	1
4901784	153	C	09/12/2019	10:46	-132.702	43.322	0	1050.10	0	3.3420	0	36.4730	8	29.036	0	1039.111	0	11.3	4	3.6	4	-1E+10	1	-1E+10	1	-1E+10	1	-1E+10	1	-1E+10	1	-1E+10	1
4901784	153	C	09/12/2019	10:46	-132.702	43.322	0	1054.80	0	3.3330	0	36.4740	8	29.037	0	1043.750	0	11.4	4	3.6	4	-1E+10	1	-1E+10	1	-1E+10	1	-1E+10	1	-1E+10	1	-1E+10	1
4901784	153	C	09/12/2019	10:46	-132.702	43.322	0	1059.50	0	3.3210	0	36.4770	8	29.041	0	1048.389	0	11.4	4	3.6	4	-1E+10	1	-1E+10	1	-1E+10	1	-1E+10	1	-1E+10	1	-1E+10	1
4901784	153	C	09/12/2019	10:46	-132.702	43.322	0	1065.10	0	3.3130	0	36.4780	8	29.043	0	1053.916	0	11.4	4	3.6	4	-1E+10	1	-1E+10	1	-1E+10	1	-1E+10	1	-1E+10	1	-1E+10	1
4901784	153	C	09/12/2019	10:46	-132.702	43.322	0	1070.50	0	3.3060	0	36.4790	8	29.044	0	1059.246	0	11.5	4	3.6	4	-1E+10	1	-1E+10	1	-1E+10	1	-1E+10	1	-1E+10	1	-1E+10	1
4901784	153	C	09/12/2019	10:46	-132.702	43.322	0	1075.30	0	3.2960	0	36.4800	8	29.046	0	1063.983	0	11.6	4	3.7	4	-1E+10	1	-1E+10	1	-1E+10	1	-1E+10	1	-1E+10	1	-1E+10	1
4901784	153	C	09/12/2019	10:46	-132.702	43.322	0	1080.30	0	3.2860	0	36.4800	8	29.047	0	1068.918	0	11.7	4	3.7	4	-1E+10	1	-1E+10	1	-1E+10	1	-1E+10	1	-1E+10	1	-1E+10	1
4901784	153	C	09/12/2019	10:46	-132.702	43.322	0	1085.30	0	3.2750	0	36.4810	8	29.049	0	1073.852	0	11.7	4	3.7	4	-1E+10	1	-1E+10	1	-1E+10	1	-1E+10	1	-1E+10	1	-1E+10	1
4901784	153	C	09/12/2019	10:46	-132.702	43.322	0	1090.30	0	3.2640	0	36.4810	8	29.050	0	1078.787	0	11.8	4	3.7	4	-1E+10	1	-1E+10	1	-1E+10	1	-1E+10	1	-1E+10	1	-1E+10	1
4901784	153	C	09/12/2019	10:46	-132.702	43.322	0	1095.30	0	3.2570	0	36.4810	8	29.051	0	1083.721	0	11.9	4	3.7	4	-1E+10	1	-1E+10	1	-1E+10	1	-1E+10	1	-1E+10	1	-1E+10	1
4901784	153	C	09/12/2019	10:46	-132.702	43.322	0	1100.40	0	3.2520	0	36.4810	8	29.051	0	1088.754	0	11.9	4	3.8	4	-1E+10	1	-1E+10	1	-1E+10	1	-1E+10	1	-1E+10	1	-1E+10	1
4901784	153	C	09/12/2019	10:46	-132.702	43.322	0	1105.40	0	3.2470	0	36.4810	8	29.052	0	1093.688	0	12.0	4	3.8	4	-1E+10	1	-1E+10	1	-1E+10	1	-1E+10	1	-1E+10	1	-1E+10	1
4901784	153	C	09/12/2019	10:46	-132.702	43.322	0	1110.40	0	3.2390	0	36.4820	8	29.054	0	1098.622	0	12.1	4	3.8	4	-1E+10	1	-1E+10	1	-1E+10	1	-1E+10	1	-1E+10	1	-1E+10	1
4901784	153	C	09/12/2019	10:46	-132.702	43.322	0	1115.50	0	3.2250	0	36.4840	8	29.057	0	1103.654	0	12.2	4	3.9	4	-1E+10	1	-1E+10	1	-1E+10	1	-1E+10	1	-1E+10	1	-1E+10	1
4901784	153	C	09/12/2019	10:46	-132.702	43.322	0	1120.60	0	3.2190	0	36.4850	8	29.058	0	1108.687	0	12.3	4	3.9	4	-1E+10	1	-1E+10	1	-1E+10	1	-1E+10	1	-1E+10	1	-1E+10	1
4901784	153	C	09/12/2019	10:46	-132.702	43.322	0	1125.60	0	3.2090	0	36.4870	8	29.061	0	1113.620	0	12.4	4	3.9	4	-1E+10	1	-1E+10	1	-1E+10	1	-1E+10	1	-1E+10	1	-1E+10	1
4901784	153	C	09/12/2019	10:46	-132.702	43.322	0	1130.40	0	3.1960	0	36.4890	8	29.064	0	1118.356	0	12.5	4	3.9	4	-1E+10	1	-1E+10	1	-1E+10	1	-1E+10	1	-1E+10	1	-1E+10	1
4901784	153	C	09/12/2019	10:46	-132.702	43.322	0	1134.70	0	3.1910	0	36.4900	8	29.065	0	1122.599	0	12.6	4	4.0	4	-1E+10	1	-1E+10	1	-1E+10	1	-1E+10	1	-1E+10	1	-1E+10	1
4901784	153	C	09/12/2019	10:46	-132.702	43.322	0	1139.40	0	3.1870	0	36.4900	8	29.065	0	1127.236	0	12.7	4	4.0	4	-1E+10	1	-1E+10	1	-1E+10	1	-1E+10	1	-1E+10	1	-1E+10	1
4901784	153	C	09/12/2019	10:46	-132.702	43.322	0	1144.30	0	3.1700	0	36.4950	8	29.071	0	1132.071	0	13.0	4	4.1	4	-1E+10	1	-1E+10	1	-1E+10	1	-1E+10	1	-1E+10	1	-1E+10	1
4901784	153	C	09/12/2019	10:46	-132.702	43.322	0	1150.00	0	3.1580	0	36.4970	8	29.074	0	1137.694	0	13.1	4	4.1	4	-1E+10	1	-1E+10	1	-1E+10	1	-1E+10	1	-1E+10	1	-1E+10	1
4901784	153	C	09/12/2019	10:46	-132.702	43.322	0	1155.70	0	3.1460	0	36.5000	8	29.077	0	1143.318	0	13.3	4	4.2	4	-1E+10	1	-1E+10	1	-1E+10	1	-1E+10	1	-1E+10	1	-1E+10	1
4901784	153	C	09/12/2019	10:46	-132.702	43.322	0	1160.50	0	3.1340	0	36.5010	8	29.079	0	1148.053	0	13.5	4	4.2	4	-1E+10	1	-1E+10	1	-1E+10	1	-1E+10	1	-1E+10	1	-1E+10	1
4901784	153	C	09/12/2019	10:46	-132.702	43.322	0	1165.40	0	3.1220	0	36.5040	8	29.083	0	1152.887	0	13.7	4	4.3	4	-1E+10	1	-1E+10	1	-1E+10	1	-1E+10	1	-1E+10	1	-1E+10	1
4901784	153	C	09/12/2019	10:46	-132.702	43.322	0	1170.40	0	3.1140	0	36.5050	8	29.085	0	1157.820	0	13.8	4	4.3	4	-1E+10	1	-1E+10	1	-1E+10	1	-1E+10	1	-1E+10	1	-1E+10	1
4901784	153	C	09/12/2019	10:46	-132.702	43.322	0	1175.50	0	3.1030	0	36.5080	8	29.088	0	1162.851	0	14.0	4	4.4	4	-1E+10	1	-1E+10	1	-1E+10	1	-1E+10	1	-1E+10	1	-1E+10	1
4901784	153	C	09/12/2019	10:46	-132.702	43.322	0	1180.60	0	3.0930	0	36.5100	8	29.091	0	1167.882	0	14.2	4	4.4	4	-1E+10	1	-1E+10	1	-1E+10	1	-1E+10	1	-1E+10	1	-1E+10	1
4901784	153	C	09/12/2019	10:46	-132.702	43.322	0	1185.70	0	3.0830	0	36.5110	8	29.092	0	1172.913	0	14.3	4	4.5	4	-1E+10	1	-1E+10	1	-1E+10	1	-1E+10	1	-1E+10	1	-1E+10	1
4901784	153	C	09/12/2019	10:46	-132.702	43.322	0	1190.70	0	3.0690	0	36.5130	8	29.095	0	1177.845	0	14.4	4	4.5	4	-1E+10	1	-1E+10	1	-1E+10	1	-1E+10	1	-1E+10	1	-1E+10	1
4901784	153	C	09/12/2019	10:46	-132.702	43.322	0	1195.00	0	3.0550	0	36.5150	8	29.098	0	1182.086	0	14.4	4	4.5	4	-1E+10	1	-1E+10	1	-1E+10	1	-1E+10	1	-1E+10	1	-1E+10	1
4901784	153	C	09/12/2019	10:46	-132.702	43.322	0	1199.20	0	3.0480	0	36.5150	8	29.099	0	1186.229	0	14.5	4	4.6	4	-1E+10	1	-1E+10	1	-1E+10	1	-1E+10	1	-1E+10	1	-1E+10	1
4901784	153	C	09/12/2019	10:46	-132.702	43.322	0	1204.40	0	3.0430	0	36.5170	8	29.101	0	1191.358	0	14.6	4	4.6	4	-1E+10	1	-1E+10	1	-1E+10	1	-1E+10	1	-1E+10	1	-1E+10	1
4901784	153	C	09/12/2019	10:46	-132.702	43.322	0	1209.50	0	3.0370	0	36.5180	8	29.103	0	1196.389	0	14.8	4	4.7	4	-1E+10	1	-1E+10	1	-1E+10	1	-1E+10	1	-1E+10	1	-1E+10	1
4901784	153	C	09/12/2019	10:46	-132.702	43.322	0	1214.70	0	3.0330	0	36.5190	8	29.104	0	1201.517	0	15.0	4	4.7	4	-1E+10	1	-1E+10	1	-1E+10	1	-1E+10	1	-1E+10	1	-1E+10	1
4901784	153	C	09/12/2019	10:46	-132.702	43.322	0	1219.90	0	3.0230	0	36.5200	8	29.106	0	1206.646	0	15.1	4	4.7	4	-1E+10	1	-1E+10	1	-1E+10	1	-1E+10	1	-1E+10	1	-1E+10	1
4901784	153	C	09/12/2019	10:46	-132.702	43.322	0	1225.20	0	3.0100	0	36.5220	8	29.109	0	1211.873	0	15.2	4	4.8	4	-1E+10	1	-1E+10	1	-1E+10	1	-1E+10	1	-1E+10	1	-1E+10	1
4901784	153	C	09/12/2019	10:46	-132.702	43.322	0	1230.60	0	2.9990	0	36.5230	8	29.110	0	1217.199	0	15.4	4	4.8	4	-1E+10	1	-1E+10	1	-1E+10	1	-1E+10	1	-1E+10	1	-1E+10	1
4901784	153	C	09/12/2019	10:46	-132.702	43.322	0	1235.00	0	2.9860	0	36.5250	8	29.113	0	1221.538	0	15.5	4	4.9	4	-1E+10	1	-1E+10	1	-1E+10	1	-1E+10	1	-1E+10	1	-1E+10	1
4901784	153	C	09/12/2019	10:46	-132.702	43.322	0	1239.40	0	2.9770	0	36.5260	8	29.115	0	1225.877	0	15.8	4	4.9	4	-1E+10	1	-1E+10	1	-1E+10	1	-1E+10	1	-1E+10	1	-1E+10	1
4901784	153	C	09/12/2019	10:46	-132.702	43.322	0	1244.80	0	2.9660	0	36.5280	8	29.118	0	1231.203	0	16.1	4	5.0	4	-1E+10	1	-1E+10	1	-1E+10	1	-1E+10	1	-1E+10	1	-1E+10	1
4901784	153	C	09/12/2019	10:46	-132.702	43.322	0	1250.10	0	2.9460	0	36.5310	8	29.122	0	1236.429	0	16.2	4	5.1	4	-1E+10	1	-1E+10	1	-1E+10	1	-1E+10	1	-1E+10	1	-1E+10	1
4901784	153	C	09/12/2019	10:46	-132.702	43.322	0	1255.40	0	2.9380	0	36.5320	8	29.124	0	1241.656	0	16.4	4	5.1	4	-1E+10	1	-1E+10	1	-1E+10	1	-1E+10	1	-1E+10	1	-1E+10	1
4901784	153	C	09/12/2019	10:46	-132.702	43.322	0	1260.50	0	2.9340	0	36.5330	8	29.125	0	1246.685	0	16.6	4	5.2	4	-1E+10	1	-1E+10	1	-1E+10	1	-1E+10	1	-1E+10	1	-1E+10	1
4901784	153	C	09/12/2019	10:46	-132.702	43.322	0	1265.50	0	2.9260	0	36.5340	8	29.126	0	1251.615	0	16.8	4	5.3	4	-1E+10	1	-1E+10	1	-1E+10	1	-1E+10	1	-1E+10	1	-1E+10	1
4901784	153	C	09/12/2019	10:46	-132.702	43.322	0	1270.40	0	2.9090	0	36.5360	8	29.130	0	1256.447	0	17.0	4	5.3	4	-1E+10	1	-1E+10	1	-1E+10	1	-1E+10	1	-1E+10	1	-1E+10	1
4901784	153	C	09/12/2019	10:46	-132.702	43.322	0	1275.40	0	2.8990	0	36.5370	8	29.131	0	1261.377	0	17.2	4	5.4	4	-1E+10	1	-1E+10	1	-1E+10	1	-1E+10	1	-1E+10	1	-1E+10	1
4901784	153	C	09/12/2019	10:46	-132.702	43.322	0	1280.40	0	2.8900	0	36.5390	8	29.134	0	1266.307	0	17.3	4	5.4	4	-1E+10	1	-1E+10	1	-1E+10	1	-1E+10	1	-1E+10	1	-1E+10	1
4901784	153	C	09/12/2019	10:46	-132.702	43.322	0	1285.50	0	2.8810	0	36.5390	8	29.135	0	1271.335	0	17.5	4	5.5	4	-1E+10	1	-1E+10	1	-1E+10	1	-1E+10	1	-1E+10	1	-1E+10	1
4901784	153	C	09/12/2019	10:46	-132.702	43.322	0	1290.60	0	2.8720	0	36.5410	8	29.137	0	1276.364	0	17.6	4	5.5	4	-1E+10	1	-1E+10	1	-1E+10	1	-1E+10	1	-1E+10	1	-1E+10	1
4901784	153	C	09/12/2019	10:46	-132.702	43.322	0	1294.90	0	2.8690	0	36.5420	8	29.138	0	1280.603	0	17.7	4	5.5	4	-1E+10	1	-1E+10	1	-1E+10	1	-1E+10	1	-1E+10	1	-1E+10	1
4901784	153	C	09/12/2019	10:46	-132.702	43.322	0	1299.30	0	2.8630	0	36.5420	8	29.139	0	1284.941	0	17.9	4	5.6	4	-1E+10	1	-1E+10	1	-1E+10	1	-1E+10	1	-1E+10	1	-1E+10	1
4901784	153	C	09/12/2019	10:46	-132.702	43.322	0	1304.50	0	2.8540	0	36.5440	8	29.141	0	1290.068	0	18.2	4	5.7	4	-1E+10	1	-1E+10	1	-1E+10	1	-1E+10	1	-1E+10	1	-1E+10	1
4901784	153	C	09/12/2019	10:46	-132.702	43.322	0	1309.70	0	2.8400	0	36.5450	8	29.144	0	1295.194	0	18.5	4	5.8	4	-1E+10	1	-1E+10	1	-1E+10	1	-1E+10	1	-1E+10	1	-1E+10	1
4901784	153	C	09/12/2019	10:46	-132.702	43.322	0	1315.00	0	2.8230	0	36.5480	8	29.148	0	1300.419	0	18.7	4	5.8	4	-1E+10	1	-1E+10	1	-1E+10	1	-1E+10	1	-1E+10	1	-1E+10	1
4901784	153	C	09/12/2019	10:46	-132.702	43.322	0	1320.20	0	2.8150	0	36.5490	8	29.149	0	1305.545	0	18.9	4	5.9	4	-1E+10	1	-1E+10	1	-1E+10	1	-1E+10	1	-1E+10	1	-1E+10	1
4901784	153	C	09/12/2019	10:46	-132.702	43.322	0	1325.50	0	2.8060	0	36.5500	8	29.151	0	1310.770	0	19.2	4	6.0	4	-1E+10	1	-1E+10	1	-1E+10	1	-1E+10	1	-1E+10	1	-1E+10	1
4901784	153	C	09/12/2019	10:46	-132.702	43.322	0	1329.90	0	2.7950	0	36.5520	8	29.154	0	1315.107	0	19.4	4	6.1	4	-1E+10	1	-1E+10	1	-1E+10	1	-1E+10	1	-1E+10	1	-1E+10	1
4901784	153	C	09/12/2019	10:46	-132.702	43.322	0	1334.40	0	2.7870	0	36.5530	8	29.155	0	1319.543	0	19.6	4	6.1	4	-1E+10	1	-1E+10	1	-1E+10	1	-1E+10	1	-1E+10	1	-1E+10	1
4901784	153	C	09/12/2019	10:46	-132.702	43.322	0	1339.80	0	2.7780	0	36.5550	8	29.158	0	1324.866	0	19.9	4	6.2	4	-1E+10	1	-1E+10	1	-1E+10	1	-1E+10	1	-1E+10	1	-1E+10	1
4901784	153	C	09/12/2019	10:46	-132.702	43.322	0	1345.20	0	2.7710	0	36.5550	8	29.158	0	1330.189	0	20.1	4	6.3	4	-1E+10	1	-1E+10	1	-1E+10	1	-1E+10	1	-1E+10	1	-1E+10	1
4901784	153	C	09/12/2019	10:46	-132.702	43.322	0	1350.60	0	2.7610	0	36.5570	8	29.161	0	1335.512	0	20.3	4	6.3	4	-1E+10	1	-1E+10	1	-1E+10	1	-1E+10	1	-1E+10	1	-1E+10	1
4901784	153	C	09/12/2019	10:46	-132.702	43.322	0	1355.10	0	2.7520	0	36.5580	8	29.163	0	1339.947	0	20.5	4	6.4	4	-1E+10	1	-1E+10	1	-1E+10	1	-1E+10	1	-1E+10	1	-1E+10	1
4901784	153	C	09/12/2019	10:46	-132.702	43.322	0	1359.90	0	2.7460	0	36.5590	8	29.164	0	1344.678	0	20.7	4	6.4	4	-1E+10	1	-1E+10	1	-1E+10	1	-1E+10	1	-1E+10	1	-1E+10	1
4901784	153	C	09/12/2019	10:46	-132.702	43.322	0	1365.00	0	2.7350	0	36.5610	8	29.167	0	1349.705	0	20.9	4	6.5	4	-1E+10	1	-1E+10	1	-1E+10	1	-1E+10	1	-1E+10	1	-1E+10	1
4901784	153	C	09/12/2019	10:46	-132.702	43.322	0	1369.70	0	2.7280	0	36.5620	8	29.168	0	1354.337	0	21.1	4	6.6	4	-1E+10	1	-1E+10	1	-1E+10	1	-1E+10	1	-1E+10	1	-1E+10	1
4901784	153	C	09/12/2019	10:46	-132.702	43.322	0	1374.50	0	2.7240	0	36.5620	8	29.168	0	1359.068	0	21.4	4	6.7	4	-1E+10	1	-1E+10	1	-1E+10	1	-1E+10	1	-1E+10	1	-1E+10	1
4901784	153	C	09/12/2019	10:46	-132.702	43.322	0	1379.40	0	2.7120	0	36.5640	8	29.171	0	1363.897	0	21.6	4	6.7	4	-1E+10	1	-1E+10	1	-1E+10	1	-1E+10	1	-1E+10	1	-1E+10	1
4901784	153	C	09/12/2019	10:46	-132.702	43.322	0	1384.40	0	2.7030	0	36.5660	8	29.174	0	1368.824	0	21.9	4	6.8	4	-1E+10	1	-1E+10	1	-1E+10	1	-1E+10	1	-1E+10	1	-1E+10	1
4901784	153	C	09/12/2019	10:46	-132.702	43.322	0	1389.30	0	2.6930	0	36.5670	8	29.175	0	1373.653	0	22.1	4	6.9	4	-1E+10	1	-1E+10	1	-1E+10	1	-1E+10	1	-1E+10	1	-1E+10	1
4901784	153	C	09/12/2019	10:46	-132.702	43.322	0	1394.20	0	2.6850	0	36.5670	8	29.176	0	1378.482	0	22.3	4	6.9	4	-1E+10	1	-1E+10	1	-1E+10	1	-1E+10	1	-1E+10	1	-1E+10	1
4901784	153	C	09/12/2019	10:46	-132.702	43.322	0	1399.20	0	2.6750	0	36.5690	8	29.179	0	1383.409	0	22.5	4	7.0	4	-1E+10	1	-1E+10	1	-1E+10	1	-1E+10	1	-1E+10	1	-1E+10	1
4901784	153	C	09/12/2019	10:46	-132.702	43.322	0	1404.20	0	2.6700	0	36.5700	8	29.180	0	1388.336	0	22.7	4	7.1	4	-1E+10	1	-1E+10	1	-1E+10	1	-1E+10	1	-1E+10	1	-1E+10	1
4901784	153	C	09/12/2019	10:46	-132.702	43.322	0	1410.00	0	2.6660	0	36.5710	8	29.181	0	1394.052	0	23.0	4	7.1	4	-1E+10	1	-1E+10	1	-1E+10	1	-1E+10	1	-1E+10	1	-1E+10	1
4901784	153	C	09/12/2019	10:46	-132.702	43.322	0	1415.00	0	2.6580	0	36.5720	8	29.183	0	1398.979	0	23.2	4	7.2	4	-1E+10	1	-1E+10	1	-1E+10	1	-1E+10	1	-1E+10	1	-1E+10	1
4901784	153	C	09/12/2019	10:46	-132.702	43.322	0	1419.30	0	2.6500	0	36.5730	8	29.184	0	1403.216	0	23.5	4	7.3	4	-1E+10	1	-1E+10	1	-1E+10	1	-1E+10	1	-1E+10	1	-1E+10	1
4901784	153	C	09/12/2019	10:46	-132.702	43.322	0	1424.40	0	2.6340	0	36.5740	8	29.187	0	1408.241	0	23.9	4	7.4	4	-1E+10	1	-1E+10	1	-1E+10	1	-1E+10	1	-1E+10	1	-1E+10	1
4901784	153	C	09/12/2019	10:46	-132.702	43.322	0	1429.50	0	2.6240	0	36.5760	8	29.189	0	1413.266	0	24.1	4	7.5	4	-1E+10	1	-1E+10	1	-1E+10	1	-1E+10	1	-1E+10	1	-1E+10	1
4901784	153	C	09/12/2019	10:46	-132.702	43.322	0	1434.70	0	2.6170	0	36.5770	8	29.191	0	1418.389	0	24.3	4	7.6	4	-1E+10	1	-1E+10	1	-1E+10	1	-1E+10	1	-1E+10	1	-1E+10	1
4901784	153	C	09/12/2019	10:46	-132.702	43.322	0	1439.80	0	2.6120	0	36.5780	8	29.192	0	1423.414	0	24.6	4	7.6	4	-1E+10	1	-1E+10	1	-1E+10	1	-1E+10	1	-1E+10	1	-1E+10	1
4901784	153	C	09/12/2019	10:46	-132.702	43.322	0	1445.00	0	2.6030	0	36.5790	8	29.194	0	1428.538	0	24.9	4	7.7	4	-1E+10	1	-1E+10	1	-1E+10	1	-1E+10	1	-1E+10	1	-1E+10	1
4901784	153	C	09/12/2019	10:46	-132.702	43.322	0	1450.20	0	2.5890	0	36.5800	8	29.196	0	1433.661	0	25.2	4	7.8	4	-1E+10	1	-1E+10	1	-1E+10	1	-1E+10	1	-1E+10	1	-1E+10	1
4901784	153	C	09/12/2019	10:46	-132.702	43.322	0	1455.40	0	2.5810	0	36.5820	8	29.198	0	1438.784	0	25.5	4	7.9	4	-1E+10	1	-1E+10	1	-1E+10	1	-1E+10	1	-1E+10	1	-1E+10	1
4901784	153	C	09/12/2019	10:46	-132.702	43.322	0	1460.60	0	2.5710	0	36.5830	8	29.200	0	1443.907	0	25.8	4	8.0	4	-1E+10	1	-1E+10	1	-1E+10	1	-1E+10	1	-1E+10	1	-1E+10	1
4901784	153	C	09/12/2019	10:46	-132.702	43.322	0	1464.90	0	2.5620	0	36.5840	8	29.201	0	1448.143	0	26.0	4	8.1	4	-1E+10	1	-1E+10	1	-1E+10	1	-1E+10	1	-1E+10	1	-1E+10	1
4901784	153	C	09/12/2019	10:46	-132.702	43.322	0	1469.30	0	2.5560	0	36.5850	8	29.203	0	1452.477	0	26.3	4	8.2	4	-1E+10	1	-1E+10	1	-1E+10	1	-1E+10	1	-1E+10	1	-1E+10	1
4901784	153	C	09/12/2019	10:46	-132.702	43.322	0	1474.60	0	2.5470	0	36.5860	8	29.204	0	1457.698	0	26.5	4	8.2	4	-1E+10	1	-1E+10	1	-1E+10	1	-1E+10	1	-1E+10	1	-1E+10	1
4901784	153	C	09/12/2019	10:46	-132.702	43.322	0	1479.80	0	2.5420	0	36.5870	8	29.206	0	1462.821	0	26.8	4	8.3	4	-1E+10	1	-1E+10	1	-1E+10	1	-1E+10	1	-1E+10	1	-1E+10	1
4901784	153	C	09/12/2019	10:46	-132.702	43.322	0	1485.10	0	2.5350	0	36.5880	8	29.207	0	1468.041	0	27.1	4	8.4	4	-1E+10	1	-1E+10	1	-1E+10	1	-1E+10	1	-1E+10	1	-1E+10	1
4901784	153	C	09/12/2019	10:46	-132.702	43.322	0	1490.30	0	2.5240	0	36.5890	8	29.209	0	1473.164	0	27.5	4	8.5	4	-1E+10	1	-1E+10	1	-1E+10	1	-1E+10	1	-1E+10	1	-1E+10	1
4901784	153	C	09/12/2019	10:46	-132.702	43.322	0	1495.60	0	2.5090	0	36.5910	8	29.212	0	1478.384	0	27.9	4	8.7	4	-1E+10	1	-1E+10	1	-1E+10	1	-1E+10	1	-1E+10	1	-1E+10	1
4901784	153	C	09/12/2019	10:46	-132.702	43.322	0	1500.00	0	2.5000	0	36.5930	8	29.214	0	1482.718	0	28.2	4	8.7	4	-1E+10	1	-1E+10	1	-1E+10	1	-1E+10	1	-1E+10	1	-1E+10	1
4901784	153	C	09/12/2019	10:46	-132.702	43.322	0	1504.50	0	2.4920	0	36.5930	8	29.215	0	1487.150	0	28.5	4	8.8	4	-1E+10	1	-1E+10	1	-1E+10	1	-1E+10	1	-1E+10	1	-1E+10	1
4901784	153	C	09/12/2019	10:46	-132.702	43.322	0	1509.90	0	2.4840	0	36.5940	8	29.217	0	1492.469	0	28.8	4	8.9	4	-1E+10	1	-1E+10	1	-1E+10	1	-1E+10	1	-1E+10	1	-1E+10	1
4901784	153	C	09/12/2019	10:46	-132.702	43.322	0	1515.30	0	2.4750	0	36.5960	8	29.219	0	1497.788	0	29.0	4	9.0	4	-1E+10	1	-1E+10	1	-1E+10	1	-1E+10	1	-1E+10	1	-1E+10	1
4901784	153	C	09/12/2019	10:46	-132.702	43.322	0	1520.70	0	2.4710	0	36.5960	8	29.220	0	1503.106	0	29.2	4	9.1	4	-1E+10	1	-1E+10	1	-1E+10	1	-1E+10	1	-1E+10	1	-1E+10	1
4901784	153	C	09/12/2019	10:46	-132.702	43.322	0	1525.20	0	2.4680	0	36.5970	8	29.221	0	1507.538	0	29.4	4	9.1	4	-1E+10	1	-1E+10	1	-1E+10	1	-1E+10	1	-1E+10	1	-1E+10	1
4901784	153	C	09/12/2019	10:46	-132.702	43.322	0	1529.80	0	2.4590	0	36.5980	8	29.222	0	1512.068	0	29.7	4	9.2	4	-1E+10	1	-1E+10	1	-1E+10	1	-1E+10	1	-1E+10	1	-1E+10	1
4901784	153	C	09/12/2019	10:46	-132.702	43.322	0	1535.30	0	2.4530	0	36.5980	8	29.223	0	1517.485	0	30.1	4	9.3	4	-1E+10	1	-1E+10	1	-1E+10	1	-1E+10	1	-1E+10	1	-1E+10	1
4901784	153	C	09/12/2019	10:46	-132.702	43.322	0	1539.90	0	2.4420	0	36.5990	8	29.225	0	1522.015	0	30.5	4	9.4	4	-1E+10	1	-1E+10	1	-1E+10	1	-1E+10	1	-1E+10	1	-1E+10	1
4901784	153	C	09/12/2019	10:46	-132.702	43.322	0	1544.60	0	2.4260	0	36.6010	8	29.228	0	1526.643	0	30.8	4	9.5	4	-1E+10	1	-1E+10	1	-1E+10	1	-1E+10	1	-1E+10	1	-1E+10	1
4901784	153	C	09/12/2019	10:46	-132.702	43.322	0	1550.10	0	2.4210	0	36.6010	8	29.228	0	1532.059	0	31.1	4	9.6	4	-1E+10	1	-1E+10	1	-1E+10	1	-1E+10	1	-1E+10	1	-1E+10	1
4901784	153	C	09/12/2019	10:46	-132.702	43.322	0	1554.70	0	2.4110	0	36.6030	8	29.231	0	1536.589	0	31.4	4	9.7	4	-1E+10	1	-1E+10	1	-1E+10	1	-1E+10	1	-1E+10	1	-1E+10	1
4901784	153	C	09/12/2019	10:46	-132.702	43.322	0	1559.20	0	2.4030	0	36.6040	8	29.232	0	1541.020	0	31.8	4	9.8	4	-1E+10	1	-1E+10	1	-1E+10	1	-1E+10	1	-1E+10	1	-1E+10	1
4901784	153	C	09/12/2019	10:46	-132.702	43.322	0	1564.50	0	2.3930	0	36.6050	8	29.234	0	1546.239	0	32.2	4	10.0	4	-1E+10	1	-1E+10	1	-1E+10	1	-1E+10	1	-1E+10	1	-1E+10	1
4901784	153	C	09/12/2019	10:46	-132.702	43.322	0	1569.40	0	2.3840	0	36.6060	8	29.236	0	1551.064	0	32.6	4	10.1	4	-1E+10	1	-1E+10	1	-1E+10	1	-1E+10	1	-1E+10	1	-1E+10	1
4901784	153	C	09/12/2019	10:46	-132.702	43.322	0	1574.30	0	2.3740	0	36.6080	8	29.238	0	1555.889	0	32.9	4	10.2	4	-1E+10	1	-1E+10	1	-1E+10	1	-1E+10	1	-1E+10	1	-1E+10	1
4901784	153	C	09/12/2019	10:46	-132.702	43.322	0	1579.20	0	2.3660	0	36.6080	8	29.239	0	1560.713	0	33.2	4	10.3	4	-1E+10	1	-1E+10	1	-1E+10	1	-1E+10	1	-1E+10	1	-1E+10	1
4901784	153	C	09/12/2019	10:46	-132.702	43.322	0	1584.90	0	2.3600	0	36.6090	8	29.240	0	1566.326	0	33.4	4	10.3	4	-1E+10	1	-1E+10	1	-1E+10	1	-1E+10	1	-1E+10	1	-1E+10	1
4901784	153	C	09/12/2019	10:46	-132.702	43.322	0	1590.70	0	2.3520	0	36.6100	8	29.242	0	1572.036	0	33.8	4	10.5	4	-1E+10	1	-1E+10	1	-1E+10	1	-1E+10	1	-1E+10	1	-1E+10	1
4901784	153	C	09/12/2019	10:46	-132.702	43.322	0	1595.60	0	2.3420	0	36.6120	8	29.244	0	1576.860	0	34.3	4	10.6	4	-1E+10	1	-1E+10	1	-1E+10	1	-1E+10	1	-1E+10	1	-1E+10	1
4901784	153	C	09/12/2019	10:46	-132.702	43.322	0	1600.60	0	2.3350	0	36.6130	8	29.246	0	1581.783	0	34.5	4	10.6	4	-1E+10	1	-1E+10	1	-1E+10	1	-1E+10	1	-1E+10	1	-1E+10	1
4901784	153	C	09/12/2019	10:46	-132.702	43.322	0	1605.60	0	2.3310	0	36.6130	8	29.246	0	1586.705	0	34.7	4	10.7	4	-1E+10	1	-1E+10	1	-1E+10	1	-1E+10	1	-1E+10	1	-1E+10	1
4901784	153	C	09/12/2019	10:46	-132.702	43.322	0	1610.60	0	2.3240	0	36.6140	8	29.247	0	1591.628	0	35.0	4	10.8	4	-1E+10	1	-1E+10	1	-1E+10	1	-1E+10	1	-1E+10	1	-1E+10	1
4901784	153	C	09/12/2019	10:46	-132.702	43.322	0	1615.70	0	2.3180	0	36.6150	8	29.249	0	1596.649	0	35.3	4	10.9	4	-1E+10	1	-1E+10	1	-1E+10	1	-1E+10	1	-1E+10	1	-1E+10	1
4901784	153	C	09/12/2019	10:46	-132.702	43.322	0	1619.90	0	2.3140	0	36.6150	8	29.249	0	1600.783	0	35.6	4	11.0	4	-1E+10	1	-1E+10	1	-1E+10	1	-1E+10	1	-1E+10	1	-1E+10	1
4901784	153	C	09/12/2019	10:46	-132.702	43.322	0	1624.30	0	2.3070	0	36.6160	8	29.251	0	1605.115	0	35.9	4	11.1	4	-1E+10	1	-1E+10	1	-1E+10	1	-1E+10	1	-1E+10	1	-1E+10	1
4901784	153	C	09/12/2019	10:46	-132.702	43.322	0	1629.30	0	2.2990	0	36.6170	8	29.252	0	1610.037	0	36.2	4	11.2	4	-1E+10	1	-1E+10	1	-1E+10	1	-1E+10	1	-1E+10	1	-1E+10	1
4901784	153	C	09/12/2019	10:46	-132.702	43.322	0	1634.40	0	2.2890	0	36.6250	8	29.259	0	1615.057	0	36.5	4	11.3	4	-1E+10	1	-1E+10	1	-1E+10	1	-1E+10	1	-1E+10	1	-1E+10	1
4901784	153	C	09/12/2019	10:46	-132.702	43.322	0	1639.50	0	2.2860	0	36.6280	8	29.262	0	1620.077	0	36.7	4	11.3	4	-1E+10	1	-1E+10	1	-1E+10	1	-1E+10	1	-1E+10	1	-1E+10	1
4901784	153	C	09/12/2019	10:46	-132.702	43.322	0	1644.70	0	2.2800	0	36.6290	8	29.264	0	1625.195	0	37.0	4	11.4	4	-1E+10	1	-1E+10	1	-1E+10	1	-1E+10	1	-1E+10	1	-1E+10	1
4901784	153	C	09/12/2019	10:46	-132.702	43.322	0	1649.80	0	2.2740	0	36.6290	8	29.264	0	1630.215	0	37.2	4	11.5	4	-1E+10	1	-1E+10	1	-1E+10	1	-1E+10	1	-1E+10	1	-1E+10	1
4901784	153	C	09/12/2019	10:46	-132.702	43.322	0	1655.00	0	2.2660	0	36.6300	8	29.266	0	1635.334	0	37.5	4	11.6	4	-1E+10	1	-1E+10	1	-1E+10	1	-1E+10	1	-1E+10	1	-1E+10	1
4901784	153	C	09/12/2019	10:46	-132.702	43.322	0	1660.20	0	2.2570	0	36.6310	8	29.267	0	1640.452	0	37.9	4	11.7	4	-1E+10	1	-1E+10	1	-1E+10	1	-1E+10	1	-1E+10	1	-1E+10	1
4901784	153	C	09/12/2019	10:46	-132.702	43.322	0	1665.50	0	2.2490	0	36.6320	8	29.269	0	1645.668	0	38.3	4	11.8	4	-1E+10	1	-1E+10	1	-1E+10	1	-1E+10	1	-1E+10	1	-1E+10	1
4901784	153	C	09/12/2019	10:46	-132.702	43.322	0	1670.70	0	2.2410	0	36.6330	8	29.270	0	1650.786	0	38.6	4	11.9	4	-1E+10	1	-1E+10	1	-1E+10	1	-1E+10	1	-1E+10	1	-1E+10	1
4901784	153	C	09/12/2019	10:46	-132.702	43.322	0	1675.10	0	2.2350	0	36.6340	8	29.272	0	1655.116	0	38.9	4	12.0	4	-1E+10	1	-1E+10	1	-1E+10	1	-1E+10	1	-1E+10	1	-1E+10	1
4901784	153	C	09/12/2019	10:46	-132.702	43.322	0	1679.40	0	2.2330	0	36.6350	8	29.273	0	1659.348	0	39.2	4	12.1	4	-1E+10	1	-1E+10	1	-1E+10	1	-1E+10	1	-1E+10	1	-1E+10	1
4901784	153	C	09/12/2019	10:46	-132.702	43.322	0	1684.60	0	2.2270	0	36.6360	8	29.274	0	1664.466	0	39.6	4	12.2	4	-1E+10	1	-1E+10	1	-1E+10	1	-1E+10	1	-1E+10	1	-1E+10	1
4901784	153	C	09/12/2019	10:46	-132.702	43.322	0	1689.90	0	2.2160	0	36.6370	8	29.276	0	1669.681	0	39.9	4	12.3	4	-1E+10	1	-1E+10	1	-1E+10	1	-1E+10	1	-1E+10	1	-1E+10	1
4901784	153	C	09/12/2019	10:46	-132.702	43.322	0	1695.20	0	2.2090	0	36.6370	8	29.276	0	1674.897	0	40.3	4	12.4	4	-1E+10	1	-1E+10	1	-1E+10	1	-1E+10	1	-1E+10	1	-1E+10	1
4901784	153	C	09/12/2019	10:46	-132.702	43.322	0	1700.40	0	2.2000	0	36.6390	8	29.279	0	1680.014	0	40.7	4	12.5	4	-1E+10	1	-1E+10	1	-1E+10	1	-1E+10	1	-1E+10	1	-1E+10	1
4901784	153	C	09/12/2019	10:46	-132.702	43.322	0	1705.70	0	2.1960	0	36.6400	8	29.280	0	1685.230	0	41.0	4	12.6	4	-1E+10	1	-1E+10	1	-1E+10	1	-1E+10	1	-1E+10	1	-1E+10	1
4901784	153	C	09/12/2019	10:46	-132.702	43.322	0	1710.10	0	2.1890	0	36.6400	8	29.281	0	1689.559	0	41.4	4	12.7	4	-1E+10	1	-1E+10	1	-1E+10	1	-1E+10	1	-1E+10	1	-1E+10	1
4901784	153	C	09/12/2019	10:46	-132.702	43.322	0	1714.60	0	2.1820	0	36.6410	8	29.282	0	1693.987	0	41.7	4	12.8	4	-1E+10	1	-1E+10	1	-1E+10	1	-1E+10	1	-1E+10	1	-1E+10	1
4901784	153	C	09/12/2019	10:46	-132.702	43.322	0	1719.90	0	2.1750	0	36.6420	8	29.283	0	1699.202	0	42.0	4	12.9	4	-1E+10	1	-1E+10	1	-1E+10	1	-1E+10	1	-1E+10	1	-1E+10	1
4901784	153	C	09/12/2019	10:46	-132.702	43.322	0	1725.20	0	2.1690	0	36.6430	8	29.285	0	1704.417	0	42.3	4	13.0	4	-1E+10	1	-1E+10	1	-1E+10	1	-1E+10	1	-1E+10	1	-1E+10	1
4901784	153	C	09/12/2019	10:46	-132.702	43.322	0	1730.50	0	2.1650	0	36.6440	8	29.286	0	1709.632	0	42.6	4	13.1	4	-1E+10	1	-1E+10	1	-1E+10	1	-1E+10	1	-1E+10	1	-1E+10	1
4901784	153	C	09/12/2019	10:46	-132.702	43.322	0	1735.00	0	2.1600	0	36.6450	8	29.287	0	1714.060	0	42.9	4	13.2	4	-1E+10	1	-1E+10	1	-1E+10	1	-1E+10	1	-1E+10	1	-1E+10	1
4901784	153	C	09/12/2019	10:46	-132.702	43.322	0	1739.50	0	2.1550	0	36.6450	8	29.288	0	1718.487	0	43.2	4	13.3	4	-1E+10	1	-1E+10	1	-1E+10	1	-1E+10	1	-1E+10	1	-1E+10	1
4901784	153	C	09/12/2019	10:46	-132.702	43.322	0	1744.90	0	2.1490	0	36.6460	8	29.289	0	1723.800	0	43.5	4	13.4	4	-1E+10	1	-1E+10	1	-1E+10	1	-1E+10	1	-1E+10	1	-1E+10	1
4901784	153	C	09/12/2019	10:46	-132.702	43.322	0	1750.40	0	2.1440	0	36.6470	8	29.290	0	1729.211	0	43.7	4	13.4	4	-1E+10	1	-1E+10	1	-1E+10	1	-1E+10	1	-1E+10	1	-1E+10	1
4901784	153	C	09/12/2019	10:46	-132.702	43.322	0	1755.00	0	2.1410	0	36.6480	8	29.291	0	1733.737	0	43.9	4	13.5	4	-1E+10	1	-1E+10	1	-1E+10	1	-1E+10	1	-1E+10	1	-1E+10	1
4901784	153	C	09/12/2019	10:46	-132.702	43.322	0	1759.50	0	2.1380	0	36.6480	8	29.292	0	1738.164	0	44.2	4	13.6	4	-1E+10	1	-1E+10	1	-1E+10	1	-1E+10	1	-1E+10	1	-1E+10	1
4901784	153	C	09/12/2019	10:46	-132.702	43.322	0	1765.00	0	2.1330	0	36.6490	8	29.293	0	1743.574	0	44.4	4	13.7	4	-1E+10	1	-1E+10	1	-1E+10	1	-1E+10	1	-1E+10	1	-1E+10	1
4901784	153	C	09/12/2019	10:46	-132.702	43.322	0	1770.40	0	2.1280	0	36.6500	8	29.294	0	1748.887	0	44.7	4	13.7	4	-1E+10	1	-1E+10	1	-1E+10	1	-1E+10	1	-1E+10	1	-1E+10	1
4901784	153	C	09/12/2019	10:46	-132.702	43.322	0	1775.00	0	2.1260	0	36.6500	8	29.294	0	1753.412	0	44.9	4	13.8	4	-1E+10	1	-1E+10	1	-1E+10	1	-1E+10	1	-1E+10	1	-1E+10	1
4901784	153	C	09/12/2019	10:46	-132.702	43.322	0	1779.70	0	2.1230	0	36.6500	8	29.295	0	1758.035	0	45.1	4	13.9	4	-1E+10	1	-1E+10	1	-1E+10	1	-1E+10	1	-1E+10	1	-1E+10	1
4901784	153	C	09/12/2019	10:46	-132.702	43.322	0	1785.20	0	2.1160	0	36.6520	8	29.297	0	1763.445	0	45.5	4	14.0	4	-1E+10	1	-1E+10	1	-1E+10	1	-1E+10	1	-1E+10	1	-1E+10	1
4901784	153	C	09/12/2019	10:46	-132.702	43.322	0	1789.90	0	2.1120	0	36.6530	8	29.298	0	1768.069	0	45.8	4	14.1	4	-1E+10	1	-1E+10	1	-1E+10	1	-1E+10	1	-1E+10	1	-1E+10	1
4901784	153	C	09/12/2019	10:46	-132.702	43.322	0	1794.60	0	2.1080	0	36.6530	8	29.298	0	1772.692	0	46.0	4	14.1	4	-1E+10	1	-1E+10	1	-1E+10	1	-1E+10	1	-1E+10	1	-1E+10	1
4901784	153	C	09/12/2019	10:46	-132.702	43.322	0	1800.00	0	2.1050	0	36.6540	8	29.300	0	1778.003	0	46.3	4	14.2	4	-1E+10	1	-1E+10	1	-1E+10	1	-1E+10	1	-1E+10	1	-1E+10	1
4901784	153	C	09/12/2019	10:46	-132.702	43.322	0	1805.50	0	2.0990	0	36.6550	8	29.301	0	1783.413	0	46.7	4	14.3	4	-1E+10	1	-1E+10	1	-1E+10	1	-1E+10	1	-1E+10	1	-1E+10	1
4901784	153	C	09/12/2019	10:46	-132.702	43.322	0	1810.40	0	2.0930	0	36.6560	8	29.302	0	1788.232	0	47.0	4	14.4	4	-1E+10	1	-1E+10	1	-1E+10	1	-1E+10	1	-1E+10	1	-1E+10	1
4901784	153	C	09/12/2019	10:46	-132.702	43.322	0	1815.30	0	2.0870	0	36.6570	8	29.304	0	1793.052	0	47.4	4	14.5	4	-1E+10	1	-1E+10	1	-1E+10	1	-1E+10	1	-1E+10	1	-1E+10	1
4901784	153	C	09/12/2019	10:46	-132.702	43.322	0	1820.30	0	2.0820	0	36.6580	8	29.305	0	1797.969	0	47.6	4	14.6	4	-1E+10	1	-1E+10	1	-1E+10	1	-1E+10	1	-1E+10	1	-1E+10	1
4901784	153	C	09/12/2019	10:46	-132.702	43.322	0	1825.30	0	2.0760	0	36.6580	8	29.305	0	1802.887	0	47.8	4	14.7	4	-1E+10	1	-1E+10	1	-1E+10	1	-1E+10	1	-1E+10	1	-1E+10	1
4901784	153	C	09/12/2019	10:46	-132.702	43.322	0	1830.30	0	2.0750	0	36.6590	8	29.306	0	1807.804	0	48.1	4	14.8	4	-1E+10	1	-1E+10	1	-1E+10	1	-1E+10	1	-1E+10	1	-1E+10	1
4901784	153	C	09/12/2019	10:46	-132.702	43.322	0	1835.30	0	2.0710	0	36.6590	8	29.307	0	1812.721	0	48.4	4	14.9	4	-1E+10	1	-1E+10	1	-1E+10	1	-1E+10	1	-1E+10	1	-1E+10	1
4901784	153	C	09/12/2019	10:46	-132.702	43.322	0	1840.20	0	2.0640	0	36.6600	8	29.308	0	1817.540	0	48.9	4	15.0	4	-1E+10	1	-1E+10	1	-1E+10	1	-1E+10	1	-1E+10	1	-1E+10	1
4901784	153	C	09/12/2019	10:46	-132.702	43.322	0	1845.20	0	2.0570	0	36.6610	8	29.310	0	1822.457	0	49.3	4	15.1	4	-1E+10	1	-1E+10	1	-1E+10	1	-1E+10	1	-1E+10	1	-1E+10	1
4901784	153	C	09/12/2019	10:46	-132.702	43.322	0	1850.20	0	2.0500	0	36.6620	8	29.311	0	1827.374	0	49.8	4	15.3	4	-1E+10	1	-1E+10	1	-1E+10	1	-1E+10	1	-1E+10	1	-1E+10	1
4901784	153	C	09/12/2019	10:46	-132.702	43.322	0	1855.20	0	2.0410	0	36.6640	8	29.313	0	1832.291	0	50.3	4	15.4	4	-1E+10	1	-1E+10	1	-1E+10	1	-1E+10	1	-1E+10	1	-1E+10	1
4901784	153	C	09/12/2019	10:46	-132.702	43.322	0	1860.20	0	2.0340	0	36.6650	8	29.315	0	1837.207	0	50.7	4	15.5	4	-1E+10	1	-1E+10	1	-1E+10	1	-1E+10	1	-1E+10	1	-1E+10	1
4901784	153	C	09/12/2019	10:46	-132.702	43.322	0	1865.30	0	2.0320	0	36.6650	8	29.315	0	1842.222	0	50.9	4	15.6	4	-1E+10	1	-1E+10	1	-1E+10	1	-1E+10	1	-1E+10	1	-1E+10	1
4901784	153	C	09/12/2019	10:46	-132.702	43.322	0	1870.40	0	2.0270	0	36.6660	8	29.316	0	1847.237	0	51.3	4	15.7	4	-1E+10	1	-1E+10	1	-1E+10	1	-1E+10	1	-1E+10	1	-1E+10	1
4901784	153	C	09/12/2019	10:46	-132.702	43.322	0	1875.50	0	2.0210	0	36.6670	8	29.318	0	1852.252	0	51.7	4	15.8	4	-1E+10	1	-1E+10	1	-1E+10	1	-1E+10	1	-1E+10	1	-1E+10	1
4901784	153	C	09/12/2019	10:46	-132.702	43.322	0	1880.60	0	2.0150	0	36.6680	8	29.319	0	1857.266	0	52.1	4	16.0	4	-1E+10	1	-1E+10	1	-1E+10	1	-1E+10	1	-1E+10	1	-1E+10	1
4901784	153	C	09/12/2019	10:46	-132.702	43.322	0	1885.70	0	2.0090	0	36.6690	8	29.320	0	1862.281	0	52.5	4	16.1	4	-1E+10	1	-1E+10	1	-1E+10	1	-1E+10	1	-1E+10	1	-1E+10	1
4901784	153	C	09/12/2019	10:46	-132.702	43.322	0	1890.00	0	2.0030	0	36.6710	8	29.322	0	1866.508	0	52.8	4	16.2	4	-1E+10	1	-1E+10	1	-1E+10	1	-1E+10	1	-1E+10	1	-1E+10	1
4901784	153	C	09/12/2019	10:46	-132.702	43.322	0	1894.30	0	2.0000	0	36.6710	8	29.323	0	1870.736	0	53.1	4	16.3	4	-1E+10	1	-1E+10	1	-1E+10	1	-1E+10	1	-1E+10	1	-1E+10	1
4901784	153	C	09/12/2019	10:46	-132.702	43.322	0	1899.50	0	1.9960	0	36.6720	8	29.324	0	1875.848	0	53.3	4	16.3	4	-1E+10	1	-1E+10	1	-1E+10	1	-1E+10	1	-1E+10	1	-1E+10	1
4901784	153	C	09/12/2019	10:46	-132.702	43.322	0	1904.70	0	1.9930	0	36.6720	8	29.324	0	1880.961	0	53.6	4	16.4	4	-1E+10	1	-1E+10	1	-1E+10	1	-1E+10	1	-1E+10	1	-1E+10	1
4901784	153	C	09/12/2019	10:46	-132.702	43.322	0	1910.00	0	1.9890	0	36.6730	8	29.325	0	1886.171	0	53.9	4	16.5	4	-1E+10	1	-1E+10	1	-1E+10	1	-1E+10	1	-1E+10	1	-1E+10	1
4901784	153	C	09/12/2019	10:46	-132.702	43.322	0	1915.20	0	1.9850	0	36.6740	8	29.326	0	1891.283	0	54.1	4	16.6	4	-1E+10	1	-1E+10	1	-1E+10	1	-1E+10	1	-1E+10	1	-1E+10	1
4901784	153	C	09/12/2019	10:46	-132.702	43.322	0	1920.50	0	1.9820	0	36.6740	8	29.327	0	1896.493	0	54.4	4	16.7	4	-1E+10	1	-1E+10	1	-1E+10	1	-1E+10	1	-1E+10	1	-1E+10	1
4901784	153	C	09/12/2019	10:46	-132.702	43.322	0	1924.90	0	1.9800	0	36.6750	8	29.328	0	1900.819	0	54.6	4	16.7	4	-1E+10	1	-1E+10	1	-1E+10	1	-1E+10	1	-1E+10	1	-1E+10	1
4901784	153	C	09/12/2019	10:46	-132.702	43.322	0	1929.40	0	1.9760	0	36.6750	8	29.328	0	1905.242	0	54.9	4	16.8	4	-1E+10	1	-1E+10	1	-1E+10	1	-1E+10	1	-1E+10	1	-1E+10	1
4901784	153	C	09/12/2019	10:46	-132.702	43.322	0	1934.70	0	1.9730	0	36.6760	8	29.329	0	1910.452	0	55.2	4	16.9	4	-1E+10	1	-1E+10	1	-1E+10	1	-1E+10	1	-1E+10	1	-1E+10	1
4901784	153	C	09/12/2019	10:46	-132.702	43.322	0	1940.10	0	1.9690	0	36.6770	8	29.330	0	1915.760	0	55.5	4	17.0	4	-1E+10	1	-1E+10	1	-1E+10	1	-1E+10	1	-1E+10	1	-1E+10	1
4901784	153	C	09/12/2019	10:46	-132.702	43.322	0	1945.40	0	1.9660	0	36.6780	8	29.331	0	1920.970	0	55.7	4	17.0	4	-1E+10	1	-1E+10	1	-1E+10	1	-1E+10	1	-1E+10	1	-1E+10	1
4901784	153	C	09/12/2019	10:46	-132.702	43.322	0	1950.00	0	1.9650	0	36.6780	8	29.331	0	1925.491	0	55.9	4	17.1	4	-1E+10	1	-1E+10	1	-1E+10	1	-1E+10	1	-1E+10	1	-1E+10	1
4901784	153	C	09/12/2019	10:46	-132.702	43.322	0	1954.50	0	1.9610	0	36.6790	8	29.333	0	1929.914	0	56.1	4	17.2	4	-1E+10	1	-1E+10	1	-1E+10	1	-1E+10	1	-1E+10	1	-1E+10	1
4901784	153	C	09/12/2019	10:46	-132.702	43.322	0	1959.90	0	1.9590	0	36.6790	8	29.333	0	1935.222	0	56.3	4	17.2	4	-1E+10	1	-1E+10	1	-1E+10	1	-1E+10	1	-1E+10	1	-1E+10	1
4901784	153	C	09/12/2019	10:46	-132.702	43.322	0	1965.30	0	1.9570	0	36.6790	8	29.333	0	1940.529	0	56.5	4	17.3	4	-1E+10	1	-1E+10	1	-1E+10	1	-1E+10	1	-1E+10	1	-1E+10	1
4901784	153	C	09/12/2019	10:46	-132.702	43.322	0	1969.80	0	1.9530	0	36.6800	8	29.334	0	1944.952	0	56.8	4	17.4	4	-1E+10	1	-1E+10	1	-1E+10	1	-1E+10	1	-1E+10	1	-1E+10	1
4901784	153	C	09/12/2019	10:46	-132.702	43.322	0	1974.60	0	1.9520	0	36.6800	8	29.334	0	1949.670	0	57.0	4	17.4	4	-1E+10	1	-1E+10	1	-1E+10	1	-1E+10	1	-1E+10	1	-1E+10	1
4901784	153	C	09/12/2019	10:46	-132.702	43.322	0	1979.80	0	1.9480	0	36.6770	8	29.332	0	1954.780	0	57.3	4	17.5	4	-1E+10	1	-1E+10	1	-1E+10	1	-1E+10	1	-1E+10	1	-1E+10	1
4901784	153	C	09/12/2019	10:46	-132.702	43.322	0	1984.70	0	1.9440	0	36.6760	8	29.332	0	1959.596	0	57.6	4	17.6	4	-1E+10	1	-1E+10	1	-1E+10	1	-1E+10	1	-1E+10	1	-1E+10	1
4901784	153	C	09/12/2019	10:46	-132.702	43.322	0	1989.60	0	1.9410	0	36.6750	8	29.331	0	1964.411	0	57.9	4	17.7	4	-1E+10	1	-1E+10	1	-1E+10	1	-1E+10	1	-1E+10	1	-1E+10	1
4901784	153	C	09/12/2019	10:46	-132.702	43.322	0	1994.50	0	1.9390	0	36.6750	8	29.332	0	1969.227	0	58.2	4	17.8	4	-1E+10	1	-1E+10	1	-1E+10	1	-1E+10	1	-1E+10	1	-1E+10	1
4901784	153	C	09/12/2019	10:46	-132.702	43.322	0	1999.40	0	1.9370	0	36.6760	8	29.333	0	1974.042	0	58.5	4	17.9	4	-1E+10	1	-1E+10	1	-1E+10	1	-1E+10	1	-1E+10	1	-1E+10	1
4901784	153	C	09/12/2019	10:46	-132.702	43.322	0	2004.30	0	1.9330	0	36.6770	8	29.334	0	1978.857	0	58.8	4	18.0	4	-1E+10	1	-1E+10	1	-1E+10	1	-1E+10	1	-1E+10	1	-1E+10	1
4901784	153	C	09/12/2019	10:46	-132.702	43.322	0	2009.30	0	1.9280	0	36.6780	8	29.335	0	1983.770	0	59.0	4	18.0	4	-1E+10	1	-1E+10	1	-1E+10	1	-1E+10	1	-1E+10	1	-1E+10	1
4901784	153	C	09/12/2019	10:46	-132.702	43.322	0	2014.50	0	1.9240	0	36.6780	8	29.335	0	1988.880	0	59.1	4	18.1	4	-1E+10	1	-1E+10	1	-1E+10	1	-1E+10	1	-1E+10	1	-1E+10	1
4901784	153	C	09/12/2019	10:46	-132.702	43.322	0	2019.80	0	1.9200	0	36.6780	8	29.336	0	1994.088	0	59.4	4	18.2	4	-1E+10	1	-1E+10	1	-1E+10	1	-1E+10	1	-1E+10	1	-1E+10	1
4901784	153	C	09/12/2019	10:46	-132.702	43.322	0																										
4901784	154	C	09/22/2019	10:43	-132.729	43.414	0	2.10	0	18.6000	0	34.5590	8	24.786	0	2.083	0	223.9	4	96.5	4	-1E+10	1	-1E+10	1	-1E+10	1	-1E+10	1	-1E+10	1	-1E+10	1
4901784	154	C	09/22/2019	10:43	-132.729	43.414	0	3.40	0	18.6010	0	34.5590	8	24.786	0	3.373	0	223.8	4	96.4	4	-1E+10	1	-1E+10	1	-1E+10	1	-1E+10	1	-1E+10	1	-1E+10	1
4901784	154	C	09/22/2019	10:43	-132.729	43.414	0	4.80	0	18.5990	0	34.5590	8	24.787	0	4.762	0	223.6	4	96.4	4	-1E+10	1	-1E+10	1	-1E+10	1	-1E+10	1	-1E+10	1	-1E+10	1
4901784	154	C	09/22/2019	10:43	-132.729	43.414	0	6.50	0	18.5990	0	34.5590	8	24.787	0	6.448	0	223.6	4	96.4	4	-1E+10	1	-1E+10	1	-1E+10	1	-1E+10	1	-1E+10	1	-1E+10	1
4901784	154	C	09/22/2019	10:43	-132.729	43.414	0	8.20	0	18.5970	0	34.5590	8	24.787	0	8.134	0	223.4	4	96.2	4	-1E+10	1	-1E+10	1	-1E+10	1	-1E+10	1	-1E+10	1	-1E+10	1
4901784	154	C	09/22/2019	10:43	-132.729	43.414	0	9.90	0	18.5950	0	34.5580	8	24.787	0	9.821	0	223.4	4	96.3	4	-1E+10	1	-1E+10	1	-1E+10	1	-1E+10	1	-1E+10	1	-1E+10	1
4901784	154	C	09/22/2019	10:43	-132.729	43.414	0	11.60	0	18.5980	0	34.5580	8	24.787	0	11.507	0	223.2	4	96.2	4	-1E+10	1	-1E+10	1	-1E+10	1	-1E+10	1	-1E+10	1	-1E+10	1
4901784	154	C	09/22/2019	10:43	-132.729	43.414	0	13.40	0	18.5960	0	34.5570	8	24.786	0	13.293	0	223.0	4	96.1	4	-1E+10	1	-1E+10	1	-1E+10	1	-1E+10	1	-1E+10	1	-1E+10	1
4901784	154	C	09/22/2019	10:43	-132.729	43.414	0	15.30	0	18.6000	0	34.5570	8	24.785	0	15.177	0	222.8	4	96.0	4	-1E+10	1	-1E+10	1	-1E+10	1	-1E+10	1	-1E+10	1	-1E+10	1
4901784	154	C	09/22/2019	10:43	-132.729	43.414	0	17.20	0	18.6000	0	34.5560	8	24.785	0	17.062	0	222.7	4	96.0	4	-1E+10	1	-1E+10	1	-1E+10	1	-1E+10	1	-1E+10	1	-1E+10	1
4901784	154	C	09/22/2019	10:43	-132.729	43.414	0	19.20	0	18.6000	0	34.5550	8	24.784	0	19.046	0	222.6	4	95.9	4	-1E+10	1	-1E+10	1	-1E+10	1	-1E+10	1	-1E+10	1	-1E+10	1
4901784	154	C	09/22/2019	10:43	-132.729	43.414	0	21.10	0	18.5980	0	34.5550	8	24.785	0	20.931	0	222.6	4	95.9	4	-1E+10	1	-1E+10	1	-1E+10	1	-1E+10	1	-1E+10	1	-1E+10	1
4901784	154	C	09/22/2019	10:43	-132.729	43.414	0	23.00	0	18.5940	0	34.5530	8	24.784	0	22.815	0	222.5	4	95.9	4	-1E+10	1	-1E+10	1	-1E+10	1	-1E+10	1	-1E+10	1	-1E+10	1
4901784	154	C	09/22/2019	10:43	-132.729	43.414	0	24.90	0	18.5940	0	34.5500	8	24.782	0	24.700	0	222.7	4	95.9	4	-1E+10	1	-1E+10	1	-1E+10	1	-1E+10	1	-1E+10	1	-1E+10	1
4901784	154	C	09/22/2019	10:43	-132.729	43.414	0	26.80	0	18.5890	0	34.5480	8	24.782	0	26.585	0	222.6	4	95.9	4	-1E+10	1	-1E+10	1	-1E+10	1	-1E+10	1	-1E+10	1	-1E+10	1
4901784	154	C	09/22/2019	10:43	-132.729	43.414	0	28.70	0	18.5960	0	34.5450	8	24.778	0	28.469	0	222.8	4	96.0	4	-1E+10	1	-1E+10	1	-1E+10	1	-1E+10	1	-1E+10	1	-1E+10	1
4901784	154	C	09/22/2019	10:43	-132.729	43.414	0	30.90	0	18.5790	0	34.5400	8	24.778	0	30.651	0	223.3	4	96.2	4	-1E+10	1	-1E+10	1	-1E+10	1	-1E+10	1	-1E+10	1	-1E+10	1
4901784	154	C	09/22/2019	10:43	-132.729	43.414	0	32.40	0	18.5910	0	34.5320	8	24.769	0	32.139	0	224.1	4	96.5	4	-1E+10	1	-1E+10	1	-1E+10	1	-1E+10	1	-1E+10	1	-1E+10	1
4901784	154	C	09/22/2019	10:43	-132.729	43.414	0	33.50	0	18.5760	0	34.5220	8	24.766	0	33.230	0	225.3	4	97.0	4	-1E+10	1	-1E+10	1	-1E+10	1	-1E+10	1	-1E+10	1	-1E+10	1
4901784	154	C	09/22/2019	10:43	-132.729	43.414	0	34.60	0	18.5730	0	34.5070	8	24.755	0	34.321	0	227.4	4	97.9	4	-1E+10	1	-1E+10	1	-1E+10	1	-1E+10	1	-1E+10	1	-1E+10	1
4901784	154	C	09/22/2019	10:43	-132.729	43.414	0	36.00	0	18.5560	0	34.4640	8	24.726	0	35.710	0	232.6	4	100.1	4	-1E+10	1	-1E+10	1	-1E+10	1	-1E+10	1	-1E+10	1	-1E+10	1
4901784	154	C	09/22/2019	10:43	-132.729	43.414	0	37.90	0	17.2590	0	34.4280	8	25.016	0	37.594	0	244.4	4	102.6	4	-1E+10	1	-1E+10	1	-1E+10	1	-1E+10	1	-1E+10	1	-1E+10	1
4901784	154	C	09/22/2019	10:43	-132.729	43.414	0	39.30	0	15.2680	0	34.4690	8	25.506	0	38.983	0	260.8	4	105.4	4	-1E+10	1	-1E+10	1	-1E+10	1	-1E+10	1	-1E+10	1	-1E+10	1
4901784	154	C	09/22/2019	10:43	-132.729	43.414	0	40.50	0	14.5660	0	34.5020	8	25.684	0	40.173	0	265.0	4	105.7	4	-1E+10	1	-1E+10	1	-1E+10	1	-1E+10	1	-1E+10	1	-1E+10	1
4901784	154	C	09/22/2019	10:43	-132.729	43.414	0	41.80	0	13.5650	0	34.5720	8	25.949	0	41.463	0	267.5	4	104.6	4	-1E+10	1	-1E+10	1	-1E+10	1	-1E+10	1	-1E+10	1	-1E+10	1
4901784	154	C	09/22/2019	10:43	-132.729	43.414	0	43.20	0	13.3090	0	34.5770	8	26.005	0	42.851	0	268.9	4	104.6	4	-1E+10	1	-1E+10	1	-1E+10	1	-1E+10	1	-1E+10	1	-1E+10	1
4901784	154	C	09/22/2019	10:43	-132.729	43.414	0	44.60	0	13.1290	0	34.5710	8	26.036	0	44.240	0	268.4	4	104.0	4	-1E+10	1	-1E+10	1	-1E+10	1	-1E+10	1	-1E+10	1	-1E+10	1
4901784	154	C	09/22/2019	10:43	-132.729	43.414	0	46.10	0	12.8080	0	34.5760	8	26.104	0	45.727	0	268.2	4	103.3	4	-1E+10	1	-1E+10	1	-1E+10	1	-1E+10	1	-1E+10	1	-1E+10	1
4901784	154	C	09/22/2019	10:43	-132.729	43.414	0	47.60	0	12.6770	0	34.5840	8	26.137	0	47.215	0	267.0	4	102.5	4	-1E+10	1	-1E+10	1	-1E+10	1	-1E+10	1	-1E+10	1	-1E+10	1
4901784	154	C	09/22/2019	10:43	-132.729	43.414	0	49.10	0	12.4830	0	34.5960	8	26.184	0	48.703	0	265.8	4	101.7	4	-1E+10	1	-1E+10	1	-1E+10	1	-1E+10	1	-1E+10	1	-1E+10	1
4901784	154	C	09/22/2019	10:43	-132.729	43.414	0	50.70	0	12.3830	0	34.5880	8	26.197	0	50.290	0	264.7	4	101.1	4	-1E+10	1	-1E+10	1	-1E+10	1	-1E+10	1	-1E+10	1	-1E+10	1
4901784	154	C	09/22/2019	10:43	-132.729	43.414	0	52.30	0	12.2970	0	34.5840	8	26.211	0	51.876	0	263.1	4	100.3	4	-1E+10	1	-1E+10	1	-1E+10	1	-1E+10	1	-1E+10	1	-1E+10	1
4901784	154	C	09/22/2019	10:43	-132.729	43.414	0	54.00	0	12.1080	0	34.5950	8	26.256	0	53.562	0	261.5	4	99.3	4	-1E+10	1	-1E+10	1	-1E+10	1	-1E+10	1	-1E+10	1	-1E+10	1
4901784	154	C	09/22/2019	10:43	-132.729	43.414	0	55.50	0	11.9640	0	34.5950	8	26.283	0	55.050	0	260.3	4	98.5	4	-1E+10	1	-1E+10	1	-1E+10	1	-1E+10	1	-1E+10	1	-1E+10	1
4901784	154	C	09/22/2019	10:43	-132.729	43.414	0	57.10	0	11.9010	0	34.5890	8	26.291	0	56.637	0	258.9	4	97.8	4	-1E+10	1	-1E+10	1	-1E+10	1	-1E+10	1	-1E+10	1	-1E+10	1
4901784	154	C	09/22/2019	10:43	-132.729	43.414	0	58.80	0	11.7470	0	34.5920	8	26.322	0	58.323	0	257.3	4	96.9	4	-1E+10	1	-1E+10	1	-1E+10	1	-1E+10	1	-1E+10	1	-1E+10	1
4901784	154	C	09/22/2019	10:43	-132.729	43.414	0	60.40	0	11.6540	0	34.5870	8	26.336	0	59.910	0	256.3	4	96.4	4	-1E+10	1	-1E+10	1	-1E+10	1	-1E+10	1	-1E+10	1	-1E+10	1
4901784	154	C	09/22/2019	10:43	-132.729	43.414	0	62.10	0	11.5450	0	34.5900	8	26.358	0	61.596	0	255.0	4	95.7	4	-1E+10	1	-1E+10	1	-1E+10	1	-1E+10	1	-1E+10	1	-1E+10	1
4901784	154	C	09/22/2019	10:43	-132.729	43.414	0	63.80	0	11.4840	0	34.5850	8	26.366	0	63.282	0	253.7	4	95.1	4	-1E+10	1	-1E+10	1	-1E+10	1	-1E+10	1	-1E+10	1	-1E+10	1
4901784	154	C	09/22/2019	10:43	-132.729	43.414	0	65.50	0	11.4460	0	34.5820	8	26.370	0	64.968	0	252.0	4	94.3	4	-1E+10	1	-1E+10	1	-1E+10	1	-1E+10	1	-1E+10	1	-1E+10	1
4901784	154	C	09/22/2019	10:43	-132.729	43.414	0	67.20	0	11.3790	0	34.5780	8	26.380	0	66.653	0	250.5	4	93.6	4	-1E+10	1	-1E+10	1	-1E+10	1	-1E+10	1	-1E+10	1	-1E+10	1
4901784	154	C	09/22/2019	10:43	-132.729	43.414	0	68.90	0	11.2550	0	34.5800	8	26.404	0	68.339	0	249.0	4	92.8	4	-1E+10	1	-1E+10	1	-1E+10	1	-1E+10	1	-1E+10	1	-1E+10	1
4901784	154	C	09/22/2019	10:43	-132.729	43.414	0	70.60	0	11.1590	0	34.5850	8	26.426	0	70.025	0	247.7	4	92.2	4	-1E+10	1	-1E+10	1	-1E+10	1	-1E+10	1	-1E+10	1	-1E+10	1
4901784	154	C	09/22/2019	10:43	-132.729	43.414	0	72.40	0	11.0580	0	34.5850	8	26.444	0	71.810	0	247.0	4	91.7	4	-1E+10	1	-1E+10	1	-1E+10	1	-1E+10	1	-1E+10	1	-1E+10	1
4901784	154	C	09/22/2019	10:43	-132.729	43.414	0	74.20	0	10.9730	0	34.5880	8	26.462	0	73.595	0	246.6	4	91.4	4	-1E+10	1	-1E+10	1	-1E+10	1	-1E+10	1	-1E+10	1	-1E+10	1
4901784	154	C	09/22/2019	10:43	-132.729	43.414	0	75.90	0	10.9350	0	34.5880	8	26.469	0	75.281	0	245.8	4	91.0	4	-1E+10	1	-1E+10	1	-1E+10	1	-1E+10	1	-1E+10	1	-1E+10	1
4901784	154	C	09/22/2019	10:43	-132.729	43.414	0	77.70	0	10.8460	0	34.5950	8	26.490	0	77.066	0	245.3	4	90.7	4	-1E+10	1	-1E+10	1	-1E+10	1	-1E+10	1	-1E+10	1	-1E+10	1
4901784	154	C	09/22/2019	10:43	-132.729	43.414	0	79.60	0	10.6720	0	34.5840	8	26.512	0	78.950	0	245.3	4	90.4	4	-1E+10	1	-1E+10	1	-1E+10	1	-1E+10	1	-1E+10	1	-1E+10	1
4901784	154	C	09/22/2019	10:43	-132.729	43.414	0	81.40	0	10.6370	0	34.5800	8	26.516	0	80.735	0	244.8	4	90.1	4	-1E+10	1	-1E+10	1	-1E+10	1	-1E+10	1	-1E+10	1	-1E+10	1
4901784	154	C	09/22/2019	10:43	-132.729	43.414	0	83.20	0	10.5400	0	34.5830	8	26.535	0	82.520	0	244.5	4	89.8	4	-1E+10	1	-1E+10	1	-1E+10	1	-1E+10	1	-1E+10	1	-1E+10	1
4901784	154	C	09/22/2019	10:43	-132.729	43.414	0	85.00	0	10.4090	0	34.5840	8	26.559	0	84.305	0	243.9	4	89.3	4	-1E+10	1	-1E+10	1	-1E+10	1	-1E+10	1	-1E+10	1	-1E+10	1
4901784	154	C	09/22/2019	10:43	-132.729	43.414	0	87.20	0	10.3770	0	34.5840	8	26.564	0	86.487	0	243.4	4	89.1	4	-1E+10	1	-1E+10	1	-1E+10	1	-1E+10	1	-1E+10	1	-1E+10	1
4901784	154	C	09/22/2019	10:43	-132.729	43.414	0	87.70	0	10.3850	0	34.5890	8	26.567	0	86.982	0	243.3	4	89.1	4	-1E+10	1	-1E+10	1	-1E+10	1	-1E+10	1	-1E+10	1	-1E+10	1
4901784	154	C	09/22/2019	10:43	-132.729	43.414	0	89.20	0	10.3720	0	34.5860	8	26.567	0	88.470	0	242.3	4	88.7	4	-1E+10	1	-1E+10	1	-1E+10	1	-1E+10	1	-1E+10	1	-1E+10	1
4901784	154	C	09/22/2019	10:43	-132.729	43.414	0	90.80	0	10.3570	0	34.5970	8	26.578	0	90.056	0	241.5	4	88.4	4	-1E+10	1	-1E+10	1	-1E+10	1	-1E+10	1	-1E+10	1	-1E+10	1
4901784	154	C	09/22/2019	10:43	-132.729	43.414	0	92.20	0	10.1570	0	34.5870	8	26.605	0	91.445	0	241.2	4	87.9	4	-1E+10	1	-1E+10	1	-1E+10	1	-1E+10	1	-1E+10	1	-1E+10	1
4901784	154	C	09/22/2019	10:43	-132.729	43.414	0	93.70	0	10.0920	0	34.6050	8	26.630	0	92.932	0	240.3	4	87.4	4	-1E+10	1	-1E+10	1	-1E+10	1	-1E+10	1	-1E+10	1	-1E+10	1
4901784	154	C	09/22/2019	10:43	-132.729	43.414	0	95.20	0	10.0160	0	34.6170	8	26.652	0	94.419	0	240.3	4	87.3	4	-1E+10	1	-1E+10	1	-1E+10	1	-1E+10	1	-1E+10	1	-1E+10	1
4901784	154	C	09/22/2019	10:43	-132.729	43.414	0	96.70	0	10.0230	0	34.6180	8	26.652	0	95.907	0	238.9	4	86.8	4	-1E+10	1	-1E+10	1	-1E+10	1	-1E+10	1	-1E+10	1	-1E+10	1
4901784	154	C	09/22/2019	10:43	-132.729	43.414	0	98.30	0	9.9740	0	34.6270	8	26.667	0	97.493	0	237.9	4	86.4	4	-1E+10	1	-1E+10	1	-1E+10	1	-1E+10	1	-1E+10	1	-1E+10	1
4901784	154	C	09/22/2019	10:43	-132.729	43.414	0	99.90	0	9.8680	0	34.6260	8	26.685	0	99.080	0	237.6	4	86.0	4	-1E+10	1	-1E+10	1	-1E+10	1	-1E+10	1	-1E+10	1	-1E+10	1
4901784	154	C	09/22/2019	10:43	-132.729	43.414	0	102.30	0	9.6930	0	34.6510	8	26.734	0	101.459	0	236.1	4	85.2	4	-1E+10	1	-1E+10	1	-1E+10	1	-1E+10	1	-1E+10	1	-1E+10	1
4901784	154	C	09/22/2019	10:43	-132.729	43.414	0	104.70	0	9.5350	0	34.6590	8	26.766	0	103.839	0	235.3	4	84.6	4	-1E+10	1	-1E+10	1	-1E+10	1	-1E+10	1	-1E+10	1	-1E+10	1
4901784	154	C	09/22/2019	10:43	-132.729	43.414	0	107.20	0	9.4630	0	34.6760	8	26.791	0	106.318	0	233.6	4	83.9	4	-1E+10	1	-1E+10	1	-1E+10	1	-1E+10	1	-1E+10	1	-1E+10	1
4901784	154	C	09/22/2019	10:43	-132.729	43.414	0	110.40	0	9.3530	0	34.7180	8	26.842	0	109.491	0	231.3	4	82.9	4	-1E+10	1	-1E+10	1	-1E+10	1	-1E+10	1	-1E+10	1	-1E+10	1
4901784	154	C	09/22/2019	10:43	-132.729	43.414	0	112.90	0	8.9720	0	34.7330	8	26.916	0	111.969	0	231.1	4	82.1	4	-1E+10	1	-1E+10	1	-1E+10	1	-1E+10	1	-1E+10	1	-1E+10	1
4901784	154	C	09/22/2019	10:43	-132.729	43.414	0	115.20	0	8.8150	0	34.7560	8	26.959	0	114.250	0	230.0	4	81.5	4	-1E+10	1	-1E+10	1	-1E+10	1	-1E+10	1	-1E+10	1	-1E+10	1
4901784	154	C	09/22/2019	10:43	-132.729	43.414	0	117.60	0	8.6660	0	34.8020	8	27.018	0	116.629	0	228.4	4	80.7	4	-1E+10	1	-1E+10	1	-1E+10	1	-1E+10	1	-1E+10	1	-1E+10	1
4901784	154	C	09/22/2019	10:43	-132.729	43.414	0	120.00	0	8.5560	0	34.8380	8	27.064	0	119.009	0	226.5	4	79.8	4	-1E+10	1	-1E+10	1	-1E+10	1	-1E+10	1	-1E+10	1	-1E+10	1
4901784	154	C	09/22/2019	10:43	-132.729	43.414	0	122.50	0	8.3760	0	34.9230	8	27.158	0	121.487	0	225.1	4	79.1	4	-1E+10	1	-1E+10	1	-1E+10	1	-1E+10	1	-1E+10	1	-1E+10	1
4901784	154	C	09/22/2019	10:43	-132.729	43.414	0	125.10	0	8.3170	0	34.9800	8	27.212	0	124.065	0	223.5	4	78.4	4	-1E+10	1	-1E+10	1	-1E+10	1	-1E+10	1	-1E+10	1	-1E+10	1
4901784	154	C	09/22/2019	10:43	-132.729	43.414	0	127.70	0	8.2480	0	35.0280	8	27.261	0	126.643	0	222.1	4	77.9	4	-1E+10	1	-1E+10	1	-1E+10	1	-1E+10	1	-1E+10	1	-1E+10	1
4901784	154	C	09/22/2019	10:43	-132.729	43.414	0	130.30	0	8.1880	0	35.0900	8	27.318	0	129.220	0	220.7	4	77.3	4	-1E+10	1	-1E+10	1	-1E+10	1	-1E+10	1	-1E+10	1	-1E+10	1
4901784	154	C	09/22/2019	10:43	-132.729	43.414	0	132.80	0	8.0900	0	35.1430	8	27.375	0	131.699	0	219.4	4	76.7	4	-1E+10	1	-1E+10	1	-1E+10	1	-1E+10	1	-1E+10	1	-1E+10	1
4901784	154	C	09/22/2019	10:43	-132.729	43.414	0	134.60	0	8.0360	0	35.2020	8	27.430	0	133.483	0	218.6	4	76.4	4	-1E+10	1	-1E+10	1	-1E+10	1	-1E+10	1	-1E+10	1	-1E+10	1
4901784	154	C	09/22/2019	10:43	-132.729	43.414	0	137.10	0	8.0070	0	35.2490	8	27.471	0	135.962	0	217.9	4	76.1	4	-1E+10	1	-1E+10	1	-1E+10	1	-1E+10	1	-1E+10	1	-1E+10	1
4901784	154	C	09/22/2019	10:43	-132.729	43.414	0	139.60	0	7.9900	0	35.3030	8	27.516	0	138.440	0	216.8	4	75.7	4	-1E+10	1	-1E+10	1	-1E+10	1	-1E+10	1	-1E+10	1	-1E+10	1
4901784	154	C	09/22/2019	10:43	-132.729	43.414	0	142.70	0	7.9750	0	35.3540	8	27.558	0	141.513	0	215.5	4	75.3	4	-1E+10	1	-1E+10	1	-1E+10	1	-1E+10	1	-1E+10	1	-1E+10	1
4901784	154	C	09/22/2019	10:43	-132.729	43.414	0	145.00	0	7.9680	0	35.3850	8	27.584	0	143.794	0	214.4	4	74.9	4	-1E+10	1	-1E+10	1	-1E+10	1	-1E+10	1	-1E+10	1	-1E+10	1
4901784	154	C	09/22/2019	10:43	-132.729	43.414	0	147.40	0	8.0110	0	35.4250	8	27.609	0	146.173	0	213.0	4	74.5	4	-1E+10	1	-1E+10	1	-1E+10	1	-1E+10	1	-1E+10	1	-1E+10	1
4901784	154	C	09/22/2019	10:43	-132.729	43.414	0	149.80	0	7.9700	0	35.4790	8	27.657	0	148.552	0	211.7	4	74.0	4	-1E+10	1	-1E+10	1	-1E+10	1	-1E+10	1	-1E+10	1	-1E+10	1
4901784	154	C	09/22/2019	10:43	-132.729	43.414	0	152.30	0	7.9610	0	35.5140	8	27.686	0	151.030	0	210.5	4	73.6	4	-1E+10	1	-1E+10	1	-1E+10	1	-1E+10	1	-1E+10	1	-1E+10	1
4901784	154	C	09/22/2019	10:43	-132.729	43.414	0	154.80	0	7.9530	0	35.5400	8	27.708	0	153.508	0	209.3	4	73.2	4	-1E+10	1	-1E+10	1	-1E+10	1	-1E+10	1	-1E+10	1	-1E+10	1
4901784	154	C	09/22/2019	10:43	-132.729	43.414	0	157.40	0	7.9490	0	35.5650	8	27.728	0	156.086	0	207.8	4	72.6	4	-1E+10	1	-1E+10	1	-1E+10	1	-1E+10	1	-1E+10	1	-1E+10	1
4901784	154	C	09/22/2019	10:43	-132.729	43.414	0	159.90	0	7.9640	0	35.6290	8	27.776	0	158.564	0	206.0	4	72.1	4	-1E+10	1	-1E+10	1	-1E+10	1	-1E+10	1	-1E+10	1	-1E+10	1
4901784	154	C	09/22/2019	10:43	-132.729	43.414	0	162.50	0	7.9640	0	35.6350	8	27.781	0	161.141	0	204.2	4	71.4	4	-1E+10	1	-1E+10	1	-1E+10	1	-1E+10	1	-1E+10	1	-1E+10	1
4901784	154	C	09/22/2019	10:43	-132.729	43.414	0	165.10	0	7.9640	0	35.6500	8	27.793	0	163.718	0	202.0	4	70.7	4	-1E+10	1	-1E+10	1	-1E+10	1	-1E+10	1	-1E+10	1	-1E+10	1
4901784	154	C	09/22/2019	10:43	-132.729	43.414	0	167.40	0	7.9710	0	35.6920	8	27.825	0	165.998	0	199.5	4	69.8	4	-1E+10	1	-1E+10	1	-1E+10	1	-1E+10	1	-1E+10	1	-1E+10	1
4901784	154	C	09/22/2019	10:43	-132.729	43.414	0	169.90	0	7.9790	0	35.7290	8	27.853	0	168.476	0	196.1	4	68.7	4	-1E+10	1	-1E+10	1	-1E+10	1	-1E+10	1	-1E+10	1	-1E+10	1
4901784	154	C	09/22/2019	10:43	-132.729	43.414	0	172.90	0	8.0040	0	35.7740	8	27.884	0	171.450	0	192.0	4	67.3	4	-1E+10	1	-1E+10	1	-1E+10	1	-1E+10	1	-1E+10	1	-1E+10	1
4901784	154	C	09/22/2019	10:43	-132.729	43.414	0	175.30	0	8.0290	0	35.8020	8	27.903	0	173.829	0	189.7	4	66.5	4	-1E+10	1	-1E+10	1	-1E+10	1	-1E+10	1	-1E+10	1	-1E+10	1
4901784	154	C	09/22/2019	10:43	-132.729	43.414	0	177.70	0	8.0620	0	35.8420	8	27.929	0	176.207	0	187.1	4	65.7	4	-1E+10	1	-1E+10	1	-1E+10	1	-1E+10	1	-1E+10	1	-1E+10	1
4901784	154	C	09/22/2019	10:43	-132.729	43.414	0	180.00	0	8.0820	0	35.8610	8	27.941	0	178.487	0	184.9	4	65.0	4	-1E+10	1	-1E+10	1	-1E+10	1	-1E+10	1	-1E+10	1	-1E+10	1
4901784	154	C	09/22/2019	10:43	-132.729	43.414	0	182.60	0	8.1040	0	35.8980	8	27.967	0	181.064	0	182.4	4	64.2	4	-1E+10	1	-1E+10	1	-1E+10	1	-1E+10	1	-1E+10	1	-1E+10	1
4901784	154	C	09/22/2019	10:43	-132.729	43.414	0	185.10	0	8.1230	0	35.9260	8	27.986	0	183.542	0	180.3	4	63.4	4	-1E+10	1	-1E+10	1	-1E+10	1	-1E+10	1	-1E+10	1	-1E+10	1
4901784	154	C	09/22/2019	10:43	-132.729	43.414	0	187.70	0	8.1300	0	35.9360	8	27.993	0	186.119	0	178.4	4	62.8	4	-1E+10	1	-1E+10	1	-1E+10	1	-1E+10	1	-1E+10	1	-1E+10	1
4901784	154	C	09/22/2019	10:43	-132.729	43.414	0	190.30	0	8.1480	0	35.9590	8	28.008	0	188.696	0	176.3	4	62.1	4	-1E+10	1	-1E+10	1	-1E+10	1	-1E+10	1	-1E+10	1	-1E+10	1
4901784	154	C	09/22/2019	10:43	-132.729	43.414	0	192.10	0	8.1510	0	35.9640	8	28.012	0	190.480	0	175.1	4	61.7	4	-1E+10	1	-1E+10	1	-1E+10	1	-1E+10	1	-1E+10	1	-1E+10	1
4901784	154	C	09/22/2019	10:43	-132.729	43.414	0	194.80	0	8.1520	0	35.9780	8	28.022	0	193.156	0	173.7	4	61.2	4	-1E+10	1	-1E+10	1	-1E+10	1	-1E+10	1	-1E+10	1	-1E+10	1
4901784	154	C	09/22/2019	10:43	-132.729	43.414	0	197.50	0	8.1480	0	35.9880	8	28.031	0	195.832	0	172.6	4	60.8	4	-1E+10	1	-1E+10	1	-1E+10	1	-1E+10	1	-1E+10	1	-1E+10	1
4901784	154	C	09/22/2019	10:43	-132.729	43.414	0	200.10	0	8.1440	0	35.9950	8	28.037	0	198.409	0	171.8	4	60.5	4	-1E+10	1	-1E+10	1	-1E+10	1	-1E+10	1	-1E+10	1	-1E+10	1
4901784	154	C	09/22/2019	10:43	-132.729	43.414	0	202.70	0	8.1380	0	36.0010	8	28.043	0	200.985	0	170.7	4	60.1	4	-1E+10	1	-1E+10	1	-1E+10	1	-1E+10	1	-1E+10	1	-1E+10	1
4901784	154	C	09/22/2019	10:43	-132.729	43.414	0	205.30	0	8.1310	0	36.0120	8	28.053	0	203.562	0	169.1	4	59.5	4	-1E+10	1	-1E+10	1	-1E+10	1	-1E+10	1	-1E+10	1	-1E+10	1
4901784	154	C	09/22/2019	10:43	-132.729	43.414	0	207.90	0	8.1200	0	36.0220	8	28.062	0	206.139	0	167.8	4	59.1	4	-1E+10	1	-1E+10	1	-1E+10	1	-1E+10	1	-1E+10	1	-1E+10	1
4901784	154	C	09/22/2019	10:43	-132.729	43.414	0	209.70	0	8.1130	0	36.0230	8	28.064	0	207.923	0	167.0	4	58.8	4	-1E+10	1	-1E+10	1	-1E+10	1	-1E+10	1	-1E+10	1	-1E+10	1
4901784	154	C	09/22/2019	10:43	-132.729	43.414	0	212.40	0	8.0850	0	36.0310	8	28.075	0	210.598	0	165.6	4	58.3	4	-1E+10	1	-1E+10	1	-1E+10	1	-1E+10	1	-1E+10	1	-1E+10	1
4901784	154	C	09/22/2019	10:43	-132.729	43.414	0	215.00	0	8.0640	0	36.0330	8	28.080	0	213.175	0	164.3	4	57.8	4	-1E+10	1	-1E+10	1	-1E+10	1	-1E+10	1	-1E+10	1	-1E+10	1
4901784	154	C	09/22/2019	10:43	-132.729	43.414	0	217.60	0	8.0280	0	36.0370	8	28.088	0	215.752	0	162.9	4	57.2	4	-1E+10	1	-1E+10	1	-1E+10	1	-1E+10	1	-1E+10	1	-1E+10	1
4901784	154	C	09/22/2019	10:43	-132.729	43.414	0	220.10	0	7.9910	0	36.0410	8	28.097	0	218.229	0	161.6	4	56.8	4	-1E+10	1	-1E+10	1	-1E+10	1	-1E+10	1	-1E+10	1	-1E+10	1
4901784	154	C	09/22/2019	10:43	-132.729	43.414	0	222.70	0	7.9530	0	36.0450	8	28.106	0	220.805	0	160.8	4	56.4	4	-1E+10	1	-1E+10	1	-1E+10	1	-1E+10	1	-1E+10	1	-1E+10	1
4901784	154	C	09/22/2019	10:43	-132.729	43.414	0	225.30	0	7.9190	0	36.0440	8	28.110	0	223.382	0	159.9	4	56.1	4	-1E+10	1	-1E+10	1	-1E+10	1	-1E+10	1	-1E+10	1	-1E+10	1
4901784	154	C	09/22/2019	10:43	-132.729	43.414	0	227.10	0	7.9060	0	36.0440	8	28.112	0	225.166	0	159.3	4	55.8	4	-1E+10	1	-1E+10	1	-1E+10	1	-1E+10	1	-1E+10	1	-1E+10	1
4901784	154	C	09/22/2019	10:43	-132.729	43.414	0	229.70	0	7.8720	0	36.0440	8	28.118	0	227.742	0	158.2	4	55.4	4	-1E+10	1	-1E+10	1	-1E+10	1	-1E+10	1	-1E+10	1	-1E+10	1
4901784	154	C	09/22/2019	10:43	-132.729	43.414	0	232.40	0	7.8270	0	36.0460	8	28.126	0	230.418	0	157.3	4	55.0	4	-1E+10	1	-1E+10	1	-1E+10	1	-1E+10	1	-1E+10	1	-1E+10	1
4901784	154	C	09/22/2019	10:43	-132.729	43.414	0	234.90	0	7.7960	0	36.0430	8	28.128	0	232.895	0	156.4	4	54.7	4	-1E+10	1	-1E+10	1	-1E+10	1	-1E+10	1	-1E+10	1	-1E+10	1
4901784	154	C	09/22/2019	10:43	-132.729	43.414	0	237.50	0	7.7510	0	36.0430	8	28.135	0	235.471	0	155.4	4	54.3	4	-1E+10	1	-1E+10	1	-1E+10	1	-1E+10	1	-1E+10	1	-1E+10	1
4901784	154	C	09/22/2019	10:43	-132.729	43.414	0	240.00	0	7.7330	0	36.0410	8	28.136	0	237.948	0	154.4	4	53.9	4	-1E+10	1	-1E+10	1	-1E+10	1	-1E+10	1	-1E+10	1	-1E+10	1
4901784	154	C	09/22/2019	10:43	-132.729	43.414	0	242.60	0	7.6750	0	36.0450	8	28.148	0	240.525	0	153.3	4	53.4	4	-1E+10	1	-1E+10	1	-1E+10	1	-1E+10	1	-1E+10	1	-1E+10	1
4901784	154	C	09/22/2019	10:43	-132.729	43.414	0	245.10	0	7.6520	0	36.0410	8	28.148	0	243.002	0	152.5	4	53.2	4	-1E+10	1	-1E+10	1	-1E+10	1	-1E+10	1	-1E+10	1	-1E+10	1
4901784	154	C	09/22/2019	10:43	-132.729	43.414	0	247.80	0	7.6200	0	36.0400	8	28.152	0	245.677	0	151.6	4	52.8	4	-1E+10	1	-1E+10	1	-1E+10	1	-1E+10	1	-1E+10	1	-1E+10	1
4901784	154	C	09/22/2019	10:43	-132.729	43.414	0	250.30	0	7.5900	0	36.0390	8	28.156	0	248.154	0	150.6	4	52.4	4	-1E+10	1	-1E+10	1	-1E+10	1	-1E+10	1	-1E+10	1	-1E+10	1
4901784	154	C	09/22/2019	10:43	-132.729	43.414	0	252.90	0	7.5370	0	36.0350	8	28.161	0	250.730	0	149.3	4	51.9	4	-1E+10	1	-1E+10	1	-1E+10	1	-1E+10	1	-1E+10	1	-1E+10	1
4901784	154	C	09/22/2019	10:43	-132.729	43.414	0	254.60	0	7.5040	0	36.0350	8	28.166	0	252.415	0	148.6	4	51.6	4	-1E+10	1	-1E+10	1	-1E+10	1	-1E+10	1	-1E+10	1	-1E+10	1
4901784	154	C	09/22/2019	10:43	-132.729	43.414	0	257.20	0	7.4770	0	36.0330	8	28.168	0	254.991	0	147.1	4	51.0	4	-1E+10	1	-1E+10	1	-1E+10	1	-1E+10	1	-1E+10	1	-1E+10	1
4901784	154	C	09/22/2019	10:43	-132.729	43.414	0	259.80	0	7.4010	0	36.0330	8	28.179	0	257.567	0	145.1	4	50.3	4	-1E+10	1	-1E+10	1	-1E+10	1	-1E+10	1	-1E+10	1	-1E+10	1
4901784	154	C	09/22/2019	10:43	-132.729	43.414	0	262.40	0	7.3260	0	36.0320	8	28.189	0	260.143	0	143.6	4	49.7	4	-1E+10	1	-1E+10	1	-1E+10	1	-1E+10	1	-1E+10	1	-1E+10	1
4901784	154	C	09/22/2019	10:43	-132.729	43.414	0	265.00	0	7.2600	0	36.0320	8	28.199	0	262.719	0	142.1	4	49.1	4	-1E+10	1	-1E+10	1	-1E+10	1	-1E+10	1	-1E+10	1	-1E+10	1
4901784	154	C	09/22/2019	10:43	-132.729	43.414	0	267.70	0	7.2190	0	36.0320	8	28.205	0	265.394	0	140.9	4	48.6	4	-1E+10	1	-1E+10	1	-1E+10	1	-1E+10	1	-1E+10	1	-1E+10	1
4901784	154	C	09/22/2019	10:43	-132.729	43.414	0	270.30	0	7.1840	0	36.0300	8	28.208	0	267.970	0	139.6	4	48.1	4	-1E+10	1	-1E+10	1	-1E+10	1	-1E+10	1	-1E+10	1	-1E+10	1
4901784	154	C	09/22/2019	10:43	-132.729	43.414	0	272.20	0	7.1350	0	36.0300	8	28.215	0	269.852	0	138.7	4	47.8	4	-1E+10	1	-1E+10	1	-1E+10	1	-1E+10	1	-1E+10	1	-1E+10	1
4901784	154	C	09/22/2019	10:43	-132.729	43.414	0	274.80	0	7.0870	0	36.0320	8	28.224	0	272.428	0	137.7	4	47.4	4	-1E+10	1	-1E+10	1	-1E+10	1	-1E+10	1	-1E+10	1	-1E+10	1
4901784	154	C	09/22/2019	10:43	-132.729	43.414	0	277.30	0	7.0610	0	36.0290	8	28.225	0	274.905	0	136.7	4	47.0	4	-1E+10	1	-1E+10	1	-1E+10	1	-1E+10	1	-1E+10	1	-1E+10	1
4901784	154	C	09/22/2019	10:43	-132.729	43.414	0	280.10	0	6.9990	0	36.0290	8	28.234	0	277.679	0	135.8	4	46.6	4	-1E+10	1	-1E+10	1	-1E+10	1	-1E+10	1	-1E+10	1	-1E+10	1
4901784	154	C	09/22/2019	10:43	-132.729	43.414	0	282.70	0	6.9690	0	36.0290	8	28.238	0	280.254	0	135.0	4	46.3	4	-1E+10	1	-1E+10	1	-1E+10	1	-1E+10	1	-1E+10	1	-1E+10	1
4901784	154	C	09/22/2019	10:43	-132.729	43.414	0	284.50	0	6.9550	0	36.0270	8	28.239	0	282.038	0	134.2	4	46.0	4	-1E+10	1	-1E+10	1	-1E+10	1	-1E+10	1	-1E+10	1	-1E+10	1
4901784	154	C	09/22/2019	10:43	-132.729	43.414	0	287.30	0	6.9120	0	36.0320	8	28.249	0	284.811	0	132.9	4	45.6	4	-1E+10	1	-1E+10	1	-1E+10	1	-1E+10	1	-1E+10	1	-1E+10	1
4901784	154	C	09/22/2019	10:43	-132.729	43.414	0	290.00	0	6.8870	0	36.0360	8	28.255	0	287.486	0	132.0	4	45.2	4	-1E+10	1	-1E+10	1	-1E+10	1	-1E+10	1	-1E+10	1	-1E+10	1
4901784	154	C	09/22/2019	10:43	-132.729	43.414	0	292.30	0	6.8720	0	36.0340	8	28.256	0	289.765	0	131.2	4	44.9	4	-1E+10	1	-1E+10	1	-1E+10	1	-1E+10	1	-1E+10	1	-1E+10	1
4901784	154	C	09/22/2019	10:43	-132.729	43.414	0	294.80	0	6.8220	0	36.0330	8	28.262	0	292.241	0	129.6	4	44.3	4	-1E+10	1	-1E+10	1	-1E+10	1	-1E+10	1	-1E+10	1	-1E+10	1
4901784	154	C	09/22/2019	10:43	-132.729	43.414	0	297.90	0	6.7390	0	36.0340	8	28.275	0	295.312	0	128.1	4	43.7	4	-1E+10	1	-1E+10	1	-1E+10	1	-1E+10	1	-1E+10	1	-1E+10	1
4901784	154	C	09/22/2019	10:43	-132.729	43.414	0	300.20	0	6.7140	0	36.0300	8	28.275	0	297.591	0	127.3	4	43.4	4	-1E+10	1	-1E+10	1	-1E+10	1	-1E+10	1	-1E+10	1	-1E+10	1
4901784	154	C	09/22/2019	10:43	-132.729	43.414	0	302.50	0	6.6810	0	36.0300	8	28.280	0	299.869	0	126.1	4	43.0	4	-1E+10	1	-1E+10	1	-1E+10	1	-1E+10	1	-1E+10	1	-1E+10	1
4901784	154	C	09/22/2019	10:43	-132.729	43.414	0	304.90	0	6.6420	0	36.0310	8	28.286	0	302.246	0	124.7	4	42.5	4	-1E+10	1	-1E+10	1	-1E+10	1	-1E+10	1	-1E+10	1	-1E+10	1
4901784	154	C	09/22/2019	10:43	-132.729	43.414	0	307.20	0	6.6040	0	36.0320	8	28.292	0	304.525	0	123.6	4	42.1	4	-1E+10	1	-1E+10	1	-1E+10	1	-1E+10	1	-1E+10	1	-1E+10	1
4901784	154	C	09/22/2019	10:43	-132.729	43.414	0	310.40	0	6.5700	0	36.0330	8	28.297	0	307.694	0	122.7	4	41.7	4	-1E+10	1	-1E+10	1	-1E+10	1	-1E+10	1	-1E+10	1	-1E+10	1
4901784	154	C	09/22/2019	10:43	-132.729	43.414	0	312.70	0	6.5560	0	36.0340	8	28.300	0	309.973	0	121.8	4	41.4	4	-1E+10	1	-1E+10	1	-1E+10	1	-1E+10	1	-1E+10	1	-1E+10	1
4901784	154	C	09/22/2019	10:43	-132.729	43.414	0	315.20	0	6.5380	0	36.0340	8	28.302	0	312.449	0	120.7	4	41.0	4	-1E+10	1	-1E+10	1	-1E+10	1	-1E+10	1	-1E+10	1	-1E+10	1
4901784	154	C	09/22/2019	10:43	-132.729	43.414	0	317.70	0	6.5110	0	36.0340	8	28.306	0	314.925	0	119.5	4	40.6	4	-1E+10	1	-1E+10	1	-1E+10	1	-1E+10	1	-1E+10	1	-1E+10	1
4901784	154	C	09/22/2019	10:43	-132.729	43.414	0	320.10	0	6.4820	0	36.0310	8	28.308	0	317.302	0	118.3	4	40.2	4	-1E+10	1	-1E+10	1	-1E+10	1	-1E+10	1	-1E+10	1	-1E+10	1
4901784	154	C	09/22/2019	10:43	-132.729	43.414	0	322.60	0	6.4260	0	36.0320	8	28.316	0	319.779	0	116.8	4	39.6	4	-1E+10	1	-1E+10	1	-1E+10	1	-1E+10	1	-1E+10	1	-1E+10	1
4901784	154	C	09/22/2019	10:43	-132.729	43.414	0	325.20	0	6.3640	0	36.0330	8	28.325	0	322.354	0	115.5	4	39.1	4	-1E+10	1	-1E+10	1	-1E+10	1	-1E+10	1	-1E+10	1	-1E+10	1
4901784	154	C	09/22/2019	10:43	-132.729	43.414	0	327.70	0	6.3270	0	36.0330	8	28.330	0	324.830	0	114.6	4	38.7	4	-1E+10	1	-1E+10	1	-1E+10	1	-1E+10	1	-1E+10	1	-1E+10	1
4901784	154	C	09/22/2019	10:43	-132.729	43.414	0	330.20	0	6.3060	0	36.0320	8	28.332	0	327.306	0	113.6	4	38.4	4	-1E+10	1	-1E+10	1	-1E+10	1	-1E+10	1	-1E+10	1	-1E+10	1
4901784	154	C	09/22/2019	10:43	-132.729	43.414	0	332.60	0	6.2800	0	36.0310	8	28.335	0	329.683	0	112.6	4	38.0	4	-1E+10	1	-1E+10	1	-1E+10	1	-1E+10	1	-1E+10	1	-1E+10	1
4901784	154	C	09/22/2019	10:43	-132.729	43.414	0	335.20	0	6.2320	0	36.0330	8	28.343	0	332.258	0	111.3	4	37.5	4	-1E+10	1	-1E+10	1	-1E+10	1	-1E+10	1	-1E+10	1	-1E+10	1
4901784	154	C	09/22/2019	10:43	-132.729	43.414	0	337.80	0	6.1900	0	36.0320	8	28.348	0	334.833	0	110.2	4	37.1	4	-1E+10	1	-1E+10	1	-1E+10	1	-1E+10	1	-1E+10	1	-1E+10	1
4901784	154	C	09/22/2019	10:43	-132.729	43.414	0	339.60	0	6.1680	0	36.0340	8	28.352	0	336.616	0	109.5	4	36.9	4	-1E+10	1	-1E+10	1	-1E+10	1	-1E+10	1	-1E+10	1	-1E+10	1
4901784	154	C	09/22/2019	10:43	-132.729	43.414	0	342.10	0	6.1320	0	36.0340	8	28.357	0	339.092	0	108.4	4	36.5	4	-1E+10	1	-1E+10	1	-1E+10	1	-1E+10	1	-1E+10	1	-1E+10	1
4901784	154	C	09/22/2019	10:43	-132.729	43.414	0	344.70	0	6.1180	0	36.0320	8	28.357	0	341.667	0	107.3	4	36.1	4	-1E+10	1	-1E+10	1	-1E+10	1	-1E+10	1	-1E+10	1	-1E+10	1
4901784	154	C	09/22/2019	10:43	-132.729	43.414	0	347.20	0	6.0830	0	36.0330	8	28.363	0	344.143	0	106.2	4	35.7	4	-1E+10	1	-1E+10	1	-1E+10	1	-1E+10	1	-1E+10	1	-1E+10	1
4901784	154	C	09/22/2019	10:43	-132.729	43.414	0	349.90	0	6.0440	0	36.0330	8	28.368	0	346.817	0	105.3	4	35.4	4	-1E+10	1	-1E+10	1	-1E+10	1	-1E+10	1	-1E+10	1	-1E+10	1
4901784	154	C	09/22/2019	10:43	-132.729	43.414	0	352.50	0	6.0220	0	36.0320	8	28.370	0	349.392	0	104.5	4	35.1	4	-1E+10	1	-1E+10	1	-1E+10	1	-1E+10	1	-1E+10	1	-1E+10	1
4901784	154	C	09/22/2019	10:43	-132.729	43.414	0	355.20	0	6.0020	0	36.0310	8	28.372	0	352.066	0	103.3	4	34.7	4	-1E+10	1	-1E+10	1	-1E+10	1	-1E+10	1	-1E+10	1	-1E+10	1
4901784	154	C	09/22/2019	10:43	-132.729	43.414	0	357.90	0	5.9600	0	36.0310	8	28.377	0	354.740	0	102.3	4	34.3	4	-1E+10	1	-1E+10	1	-1E+10	1	-1E+10	1	-1E+10	1	-1E+10	1
4901784	154	C	09/22/2019	10:43	-132.729	43.414	0	360.50	0	5.9270	0	36.0320	8	28.383	0	357.314	0	101.3	4	33.9	4	-1E+10	1	-1E+10	1	-1E+10	1	-1E+10	1	-1E+10	1	-1E+10	1
4901784	154	C	09/22/2019	10:43	-132.729	43.414	0	362.30	0	5.9070	0	36.0310	8	28.384	0	359.097	0	100.9	4	33.8	4	-1E+10	1	-1E+10	1	-1E+10	1	-1E+10	1	-1E+10	1	-1E+10	1
4901784	154	C	09/22/2019	10:43	-132.729	43.414	0	364.90	0	5.8630	0	36.0320	8	28.391	0	361.672	0	100.5	4	33.6	4	-1E+10	1	-1E+10	1	-1E+10	1	-1E+10	1	-1E+10	1	-1E+10	1
4901784	154	C	09/22/2019	10:43	-132.729	43.414	0	367.60	0	5.8300	0	36.0320	8	28.395	0	364.345	0	100.3	4	33.5	4	-1E+10	1	-1E+10	1	-1E+10	1	-1E+10	1	-1E+10	1	-1E+10	1
4901784	154	C	09/22/2019	10:43	-132.729	43.414	0	370.20	0	5.7870	0	36.0310	8	28.400	0	366.920	0	99.6	4	33.3	4	-1E+10	1	-1E+10	1	-1E+10	1	-1E+10	1	-1E+10	1	-1E+10	1
4901784	154	C	09/22/2019	10:43	-132.729	43.414	0	372.90	0	5.7510	0	36.0320	8	28.405	0	369.594	0	98.9	4	33.0	4	-1E+10	1	-1E+10	1	-1E+10	1	-1E+10	1	-1E+10	1	-1E+10	1
4901784	154	C	09/22/2019	10:43	-132.729	43.414	0	374.70	0	5.7350	0	36.0310	8	28.407	0	371.376	0	99.0	4	33.0	4	-1E+10	1	-1E+10	1	-1E+10	1	-1E+10	1	-1E+10	1	-1E+10	1
4901784	154	C	09/22/2019	10:43	-132.729	43.414	0	377.30	0	5.6920	0	36.0320	8	28.413	0	373.951	0	98.8	4	32.9	4	-1E+10	1	-1E+10	1	-1E+10	1	-1E+10	1	-1E+10	1	-1E+10	1
4901784	154	C	09/22/2019	10:43	-132.729	43.414	0	380.00	0	5.6730	0	36.0320	8	28.415	0	376.624	0	98.3	4	32.8	4	-1E+10	1	-1E+10	1	-1E+10	1	-1E+10	1	-1E+10	1	-1E+10	1
4901784	154	C	09/22/2019	10:43	-132.729	43.414	0	382.70	0	5.6480	0	36.0320	8	28.418	0	379.298	0	97.5	4	32.5	4	-1E+10	1	-1E+10	1	-1E+10	1	-1E+10	1	-1E+10	1	-1E+10	1
4901784	154	C	09/22/2019	10:43	-132.729	43.414	0	385.40	0	5.6220	0	36.0330	8	28.423	0	381.971	0	96.5	4	32.1	4	-1E+10	1	-1E+10	1	-1E+10	1	-1E+10	1	-1E+10	1	-1E+10	1
4901784	154	C	09/22/2019	10:43	-132.729	43.414	0	387.20	0	5.6090	0	36.0330	8	28.424	0	383.754	0	96.3	4	32.0	4	-1E+10	1	-1E+10	1	-1E+10	1	-1E+10	1	-1E+10	1	-1E+10	1
4901784	154	C	09/22/2019	10:43	-132.729	43.414	0	389.90	0	5.5970	0	36.0320	8	28.425	0	386.427	0	96.0	4	31.9	4	-1E+10	1	-1E+10	1	-1E+10	1	-1E+10	1	-1E+10	1	-1E+10	1
4901784	154	C	09/22/2019	10:43	-132.729	43.414	0	392.50	0	5.5740	0	36.0310	8	28.427	0	389.002	0	94.6	4	31.4	4	-1E+10	1	-1E+10	1	-1E+10	1	-1E+10	1	-1E+10	1	-1E+10	1
4901784	154	C	09/22/2019	10:43	-132.729	43.414	0	395.10	0	5.5560	0	36.0300	8	28.429	0	391.576	0	92.7	4	30.8	4	-1E+10	1	-1E+10	1	-1E+10	1	-1E+10	1	-1E+10	1	-1E+10	1
4901784	154	C	09/22/2019	10:43	-132.729	43.414	0	397.70	0	5.5290	0	36.0300	8	28.432	0	394.150	0	90.2	4	30.0	4	-1E+10	1	-1E+10	1	-1E+10	1	-1E+10	1	-1E+10	1	-1E+10	1
4901784	154	C	09/22/2019	10:43	-132.729	43.414	0	400.30	0	5.4820	0	36.0330	8	28.440	0	396.725	0	88.1	4	29.2	4	-1E+10	1	-1E+10	1	-1E+10	1	-1E+10	1	-1E+10	1	-1E+10	1
4901784	154	C	09/22/2019	10:43	-132.729	43.414	0	402.90	0	5.4530	0	36.0350	8	28.445	0	399.299	0	87.5	4	29.0	4	-1E+10	1	-1E+10	1	-1E+10	1	-1E+10	1	-1E+10	1	-1E+10	1
4901784	154	C	09/22/2019	10:43	-132.729	43.414	0	404.70	0	5.4370	0	36.0310	8	28.444	0	401.081	0	88.1	4	29.2	4	-1E+10	1	-1E+10	1	-1E+10	1	-1E+10	1	-1E+10	1	-1E+10	1
4901784	154	C	09/22/2019	10:43	-132.729	43.414	0	407.30	0	5.3480	0	36.0320	8	28.456	0	403.655	0	88.4	4	29.2	4	-1E+10	1	-1E+10	1	-1E+10	1	-1E+10	1	-1E+10	1	-1E+10	1
4901784	154	C	09/22/2019	10:43	-132.729	43.414	0	410.00	0	5.3030	0	36.0320	8	28.462	0	406.328	0	87.5	4	28.9	4	-1E+10	1	-1E+10	1	-1E+10	1	-1E+10	1	-1E+10	1	-1E+10	1
4901784	154	C	09/22/2019	10:43	-132.729	43.414	0	412.70	0	5.2500	0	36.0350	8	28.470	0	409.002	0	86.2	4	28.4	4	-1E+10	1	-1E+10	1	-1E+10	1	-1E+10	1	-1E+10	1	-1E+10	1
4901784	154	C	09/22/2019	10:43	-132.729	43.414	0	415.40	0	5.2120	0	36.0350	8	28.475	0	411.675	0	85.8	4	28.3	4	-1E+10	1	-1E+10	1	-1E+10	1	-1E+10	1	-1E+10	1	-1E+10	1
4901784	154	C	09/22/2019	10:43	-132.729	43.414	0	417.20	0	5.2030	0	36.0350	8	28.476	0	413.457	0	85.5	4	28.2	4	-1E+10	1	-1E+10	1	-1E+10	1	-1E+10	1	-1E+10	1	-1E+10	1
4901784	154	C	09/22/2019	10:43	-132.729	43.414	0	419.90	0	5.1660	0	36.0360	8	28.481	0	416.130	0	84.6	4	27.8	4	-1E+10	1	-1E+10	1	-1E+10	1	-1E+10	1	-1E+10	1	-1E+10	1
4901784	154	C	09/22/2019	10:43	-132.729	43.414	0	422.50	0	5.1360	0	36.0370	8	28.486	0	418.704	0	83.5	4	27.5	4	-1E+10	1	-1E+10	1	-1E+10	1	-1E+10	1	-1E+10	1	-1E+10	1
4901784	154	C	09/22/2019	10:43	-132.729	43.414	0	425.20	0	5.1080	0	36.0370	8	28.489	0	421.377	0	82.4	4	27.1	4	-1E+10	1	-1E+10	1	-1E+10	1	-1E+10	1	-1E+10	1	-1E+10	1
4901784	154	C	09/22/2019	10:43	-132.729	43.414	0	427.90	0	5.0860	0	36.0380	8	28.493	0	424.050	0	81.3	4	26.7	4	-1E+10	1	-1E+10	1	-1E+10	1	-1E+10	1	-1E+10	1	-1E+10	1
4901784	154	C	09/22/2019	10:43	-132.729	43.414	0	429.60	0	5.0720	0	36.0380	8	28.494	0	425.733	0	80.4	4	26.4	4	-1E+10	1	-1E+10	1	-1E+10	1	-1E+10	1	-1E+10	1	-1E+10	1
4901784	154	C	09/22/2019	10:43	-132.729	43.414	0	432.20	0	5.0360	0	36.0410	8	28.501	0	428.307	0	78.9	4	25.9	4	-1E+10	1	-1E+10	1	-1E+10	1	-1E+10	1	-1E+10	1	-1E+10	1
4901784	154	C	09/22/2019	10:43	-132.729	43.414	0	434.90	0	4.9880	0	36.0450	8	28.510	0	430.980	0	77.6	4	25.5	4	-1E+10	1	-1E+10	1	-1E+10	1	-1E+10	1	-1E+10	1	-1E+10	1
4901784	154	C	09/22/2019	10:43	-132.729	43.414	0	437.60	0	5.0020	0	36.0490	8	28.512	0	433.652	0	75.9	4	24.9	4	-1E+10	1	-1E+10	1	-1E+10	1	-1E+10	1	-1E+10	1	-1E+10	1
4901784	154	C	09/22/2019	10:43	-132.729	43.414	0	440.30	0	4.9780	0	36.0500	8	28.515	0	436.325	0	74.9	4	24.6	4	-1E+10	1	-1E+10	1	-1E+10	1	-1E+10	1	-1E+10	1	-1E+10	1
4901784	154	C	09/22/2019	10:43	-132.729	43.414	0	442.10	0	4.9410	0	36.0520	8	28.521	0	438.107	0	74.1	4	24.2	4	-1E+10	1	-1E+10	1	-1E+10	1	-1E+10	1	-1E+10	1	-1E+10	1
4901784	154	C	09/22/2019	10:43	-132.729	43.414	0	444.80	0	4.9620	0	36.0590	8	28.524	0	440.780	0	72.6	4	23.8	4	-1E+10	1	-1E+10	1	-1E+10	1	-1E+10	1	-1E+10	1	-1E+10	1
4901784	154	C	09/22/2019	10:43	-132.729	43.414	0	447.50	0	4.9110	0	36.0570	8	28.529	0	443.453	0	72.2	4	23.6	4	-1E+10	1	-1E+10	1	-1E+10	1	-1E+10	1	-1E+10	1	-1E+10	1
4901784	154	C	09/22/2019	10:43	-132.729	43.414	0	450.20	0	4.8840	0	36.0590	8	28.534	0	446.125	0	70.6	4	23.1	4	-1E+10	1	-1E+10	1	-1E+10	1	-1E+10	1	-1E+10	1	-1E+10	1
4901784	154	C	09/22/2019	10:43	-132.729	43.414	0	453.00	0	4.8850	0	36.0660	8	28.539	0	448.897	0	68.5	4	22.4	4	-1E+10	1	-1E+10	1	-1E+10	1	-1E+10	1	-1E+10	1	-1E+10	1
4901784	154	C	09/22/2019	10:43	-132.729	43.414	0	454.70	0	4.9300	0	36.0700	8	28.537	0	450.580	0	67.1	4	22.0	4	-1E+10	1	-1E+10	1	-1E+10	1	-1E+10	1	-1E+10	1	-1E+10	1
4901784	154	C	09/22/2019	10:43	-132.729	43.414	0	457.50	0	4.8860	0	36.0740	8	28.545	0	453.351	0	66.2	4	21.7	4	-1E+10	1	-1E+10	1	-1E+10	1	-1E+10	1	-1E+10	1	-1E+10	1
4901784	154	C	09/22/2019	10:43	-132.729	43.414	0	460.10	0	4.8740	0	36.0760	8	28.548	0	455.925	0	65.4	4	21.4	4	-1E+10	1	-1E+10	1	-1E+10	1	-1E+10	1	-1E+10	1	-1E+10	1
4901784	154	C	09/22/2019	10:43	-132.729	43.414	0	462.80	0	4.8500	0	36.0780	8	28.553	0	458.597	0	64.6	4	21.1	4	-1E+10	1	-1E+10	1	-1E+10	1	-1E+10	1	-1E+10	1	-1E+10	1
4901784	154	C	09/22/2019	10:43	-132.729	43.414	0	465.40	0	4.8170	0	36.0820	8	28.560	0	461.171	0	63.5	4	20.7	4	-1E+10	1	-1E+10	1	-1E+10	1	-1E+10	1	-1E+10	1	-1E+10	1
4901784	154	C	09/22/2019	10:43	-132.729	43.414	0	467.20	0	4.8150	0	36.0840	8	28.562	0	462.953	0	62.6	4	20.5	4	-1E+10	1	-1E+10	1	-1E+10	1	-1E+10	1	-1E+10	1	-1E+10	1
4901784	154	C	09/22/2019	10:43	-132.729	43.414	0	469.80	0	4.8290	0	36.0870	8	28.562	0	465.526	0	61.3	4	20.0	4	-1E+10	1	-1E+10	1	-1E+10	1	-1E+10	1	-1E+10	1	-1E+10	1
4901784	154	C	09/22/2019	10:43	-132.729	43.414	0	472.50	0	4.7950	0	36.0910	8	28.570	0	468.198	0	60.2	4	19.6	4	-1E+10	1	-1E+10	1	-1E+10	1	-1E+10	1	-1E+10	1	-1E+10	1
4901784	154	C	09/22/2019	10:43	-132.729	43.414	0	475.10	0	4.7870	0	36.0940	8	28.573	0	470.772	0	58.9	4	19.2	4	-1E+10	1	-1E+10	1	-1E+10	1	-1E+10	1	-1E+10	1	-1E+10	1
4901784	154	C	09/22/2019	10:43	-132.729	43.414	0	477.80	0	4.7840	0	36.0990	8	28.577	0	473.444	0	57.4	4	18.7	4	-1E+10	1	-1E+10	1	-1E+10	1	-1E+10	1	-1E+10	1	-1E+10	1
4901784	154	C	09/22/2019	10:43	-132.729	43.414	0	479.60	0	4.8020	0	36.1020	8	28.578	0	475.226	0	56.7	4	18.5	4	-1E+10	1	-1E+10	1	-1E+10	1	-1E+10	1	-1E+10	1	-1E+10	1
4901784	154	C	09/22/2019	10:43	-132.729	43.414	0	482.30	0	4.7750	0	36.1050	8	28.583	0	477.898	0	55.6	4	18.1	4	-1E+10	1	-1E+10	1	-1E+10	1	-1E+10	1	-1E+10	1	-1E+10	1
4901784	154	C	09/22/2019	10:43	-132.729	43.414	0	484.90	0	4.7920	0	36.1100	8	28.585	0	480.471	0	53.9	4	17.6	4	-1E+10	1	-1E+10	1	-1E+10	1	-1E+10	1	-1E+10	1	-1E+10	1
4901784	154	C	09/22/2019	10:43	-132.729	43.414	0	487.60	0	4.7990	0	36.1130	8	28.587	0	483.143	0	52.9	4	17.3	4	-1E+10	1	-1E+10	1	-1E+10	1	-1E+10	1	-1E+10	1	-1E+10	1
4901784	154	C	09/22/2019	10:43	-132.729	43.414	0	490.30	0	4.7880	0	36.1160	8	28.590	0	485.815	0	52.0	4	17.0	4	-1E+10	1	-1E+10	1	-1E+10	1	-1E+10	1	-1E+10	1	-1E+10	1
4901784	154	C	09/22/2019	10:43	-132.729	43.414	0	492.00	0	4.7860	0	36.1170	8	28.591	0	487.498	0	51.3	4	16.7	4	-1E+10	1	-1E+10	1	-1E+10	1	-1E+10	1	-1E+10	1	-1E+10	1
4901784	154	C	09/22/2019	10:43	-132.729	43.414	0	494.70	0	4.7860	0	36.1200	8	28.594	0	490.170	0	49.7	4	16.2	4	-1E+10	1	-1E+10	1	-1E+10	1	-1E+10	1	-1E+10	1	-1E+10	1
4901784	154	C	09/22/2019	10:43	-132.729	43.414	0	497.40	0	4.8090	0	36.1270	8	28.597	0	492.842	0	48.4	4	15.8	4	-1E+10	1	-1E+10	1	-1E+10	1	-1E+10	1	-1E+10	1	-1E+10	1
4901784	154	C	09/22/2019	10:43	-132.729	43.414	0	500.20	0	4.7820	0	36.1310	8	28.603	0	495.613	0	48.1	4	15.7	4	-1E+10	1	-1E+10	1	-1E+10	1	-1E+10	1	-1E+10	1	-1E+10	1
4901784	154	C	09/22/2019	10:43	-132.729	43.414	0	504.60	0	4.7610	0	36.1320	8	28.606	0	499.967	0	47.5	4	15.5	4	-1E+10	1	-1E+10	1	-1E+10	1	-1E+10	1	-1E+10	1	-1E+10	1
4901784	154	C	09/22/2019	10:43	-132.729	43.414	0	510.10	0	4.7310	0	36.1350	8	28.612	0	505.410	0	46.1	4	15.0	4	-1E+10	1	-1E+10	1	-1E+10	1	-1E+10	1	-1E+10	1	-1E+10	1
4901784	154	C	09/22/2019	10:43	-132.729	43.414	0	514.70	0	4.7080	0	36.1420	8	28.621	0	509.962	0	44.7	4	14.6	4	-1E+10	1	-1E+10	1	-1E+10	1	-1E+10	1	-1E+10	1	-1E+10	1
4901784	154	C	09/22/2019	10:43	-132.729	43.414	0	519.50	0	4.6960	0	36.1450	8	28.624	0	514.712	0	43.5	4	14.2	4	-1E+10	1	-1E+10	1	-1E+10	1	-1E+10	1	-1E+10	1	-1E+10	1
4901784	154	C	09/22/2019	10:43	-132.729	43.414	0	525.10	0	4.6750	0	36.1500	8	28.631	0	520.254	0	41.9	4	13.6	4	-1E+10	1	-1E+10	1	-1E+10	1	-1E+10	1	-1E+10	1	-1E+10	1
4901784	154	C	09/22/2019	10:43	-132.729	43.414	0	529.90	0	4.6460	0	36.1550	8	28.638	0	525.003	0	40.2	4	13.1	4	-1E+10	1	-1E+10	1	-1E+10	1	-1E+10	1	-1E+10	1	-1E+10	1
4901784	154	C	09/22/2019	10:43	-132.729	43.414	0	534.70	0	4.6150	0	36.1630	8	28.648	0	529.753	0	37.7	4	12.3	4	-1E+10	1	-1E+10	1	-1E+10	1	-1E+10	1	-1E+10	1	-1E+10	1
4901784	154	C	09/22/2019	10:43	-132.729	43.414	0	540.50	0	4.6290	0	36.1810	8	28.661	0	535.492	0	34.6	4	11.3	4	-1E+10	1	-1E+10	1	-1E+10	1	-1E+10	1	-1E+10	1	-1E+10	1
4901784	154	C	09/22/2019	10:43	-132.729	43.414	0	546.00	0	4.6320	0	36.1890	8	28.667	0	540.934	0	33.5	4	10.9	4	-1E+10	1	-1E+10	1	-1E+10	1	-1E+10	1	-1E+10	1	-1E+10	1
4901784	154	C	09/22/2019	10:43	-132.729	43.414	0	550.40	0	4.6210	0	36.1890	8	28.668	0	545.287	0	33.6	4	10.9	4	-1E+10	1	-1E+10	1	-1E+10	1	-1E+10	1	-1E+10	1	-1E+10	1
4901784	154	C	09/22/2019	10:43	-132.729	43.414	0	555.20	0	4.5730	0	36.1890	8	28.674	0	550.036	0	33.1	4	10.7	4	-1E+10	1	-1E+10	1	-1E+10	1	-1E+10	1	-1E+10	1	-1E+10	1
4901784	154	C	09/22/2019	10:43	-132.729	43.414	0	560.20	0	4.5770	0	36.1960	8	28.679	0	554.983	0	32.2	4	10.5	4	-1E+10	1	-1E+10	1	-1E+10	1	-1E+10	1	-1E+10	1	-1E+10	1
4901784	154	C	09/22/2019	10:43	-132.729	43.414	0	565.20	0	4.5370	0	36.1960	8	28.684	0	559.930	0	32.0	4	10.4	4	-1E+10	1	-1E+10	1	-1E+10	1	-1E+10	1	-1E+10	1	-1E+10	1
4901784	154	C	09/22/2019	10:43	-132.729	43.414	0	570.20	0	4.5010	0	36.1990	8	28.690	0	564.876	0	31.2	4	10.1	4	-1E+10	1	-1E+10	1	-1E+10	1	-1E+10	1	-1E+10	1	-1E+10	1
4901784	154	C	09/22/2019	10:43	-132.729	43.414	0	575.30	0	4.4910	0	36.2050	8	28.696	0	569.922	0	29.4	4	9.6	4	-1E+10	1	-1E+10	1	-1E+10	1	-1E+10	1	-1E+10	1	-1E+10	1
4901784	154	C	09/22/2019	10:43	-132.729	43.414	0	580.30	0	4.5080	0	36.2150	8	28.702	0	574.868	0	27.8	4	9.0	4	-1E+10	1	-1E+10	1	-1E+10	1	-1E+10	1	-1E+10	1	-1E+10	1
4901784	154	C	09/22/2019	10:43	-132.729	43.414	0	585.30	0	4.4950	0	36.2200	8	28.708	0	579.814	0	26.9	4	8.7	4	-1E+10	1	-1E+10	1	-1E+10	1	-1E+10	1	-1E+10	1	-1E+10	1
4901784	154	C	09/22/2019	10:43	-132.729	43.414	0	590.40	0	4.4780	0	36.2240	8	28.713	0	584.859	0	26.1	4	8.5	4	-1E+10	1	-1E+10	1	-1E+10	1	-1E+10	1	-1E+10	1	-1E+10	1
4901784	154	C	09/22/2019	10:43	-132.729	43.414	0	595.40	0	4.4620	0	36.2300	8	28.719	0	589.805	0	25.0	4	8.1	4	-1E+10	1	-1E+10	1	-1E+10	1	-1E+10	1	-1E+10	1	-1E+10	1
4901784	154	C	09/22/2019	10:43	-132.729	43.414	0	600.50	0	4.4510	0	36.2360	8	28.725	0	594.850	0	24.4	4	7.9	4	-1E+10	1	-1E+10	1	-1E+10	1	-1E+10	1	-1E+10	1	-1E+10	1
4901784	154	C	09/22/2019	10:43	-132.729	43.414	0	605.60	0	4.4350	0	36.2390	8	28.730	0	599.895	0	23.7	4	7.7	4	-1E+10	1	-1E+10	1	-1E+10	1	-1E+10	1	-1E+10	1	-1E+10	1
4901784	154	C	09/22/2019	10:43	-132.729	43.414	0	609.90	0	4.4080	0	36.2460	8	28.738	0	604.148	0	23.1	4	7.5	4	-1E+10	1	-1E+10	1	-1E+10	1	-1E+10	1	-1E+10	1	-1E+10	1
4901784	154	C	09/22/2019	10:43	-132.729	43.414	0	614.30	0	4.3900	0	36.2510	8	28.744	0	608.500	0	22.8	4	7.4	4	-1E+10	1	-1E+10	1	-1E+10	1	-1E+10	1	-1E+10	1	-1E+10	1
4901784	154	C	09/22/2019	10:43	-132.729	43.414	0	619.50	0	4.3640	0	36.2530	8	28.749	0	613.643	0	22.6	4	7.3	4	-1E+10	1	-1E+10	1	-1E+10	1	-1E+10	1	-1E+10	1	-1E+10	1
4901784	154	C	09/22/2019	10:43	-132.729	43.414	0	624.70	0	4.3440	0	36.2550	8	28.753	0	618.786	0	22.1	4	7.2	4	-1E+10	1	-1E+10	1	-1E+10	1	-1E+10	1	-1E+10	1	-1E+10	1
4901784	154	C	09/22/2019	10:43	-132.729	43.414	0	630.10	0	4.3150	0	36.2600	8	28.760	0	624.127	0	21.6	4	7.0	4	-1E+10	1	-1E+10	1	-1E+10	1	-1E+10	1	-1E+10	1	-1E+10	1
4901784	154	C	09/22/2019	10:43	-132.729	43.414	0	635.50	0	4.3040	0	36.2640	8	28.764	0	629.468	0	20.8	4	6.7	4	-1E+10	1	-1E+10	1	-1E+10	1	-1E+10	1	-1E+10	1	-1E+10	1
4901784	154	C	09/22/2019	10:43	-132.729	43.414	0	640.00	0	4.3170	0	36.2720	8	28.769	0	633.918	0	19.5	4	6.3	4	-1E+10	1	-1E+10	1	-1E+10	1	-1E+10	1	-1E+10	1	-1E+10	1
4901784	154	C	09/22/2019	10:43	-132.729	43.414	0	644.50	0	4.3300	0	36.2760	8	28.771	0	638.369	0	19.0	4	6.1	4	-1E+10	1	-1E+10	1	-1E+10	1	-1E+10	1	-1E+10	1	-1E+10	1
4901784	154	C	09/22/2019	10:43	-132.729	43.414	0	649.90	0	4.2620	0	36.2810	8	28.783	0	643.709	0	18.8	4	6.1	4	-1E+10	1	-1E+10	1	-1E+10	1	-1E+10	1	-1E+10	1	-1E+10	1
4901784	154	C	09/22/2019	10:43	-132.729	43.414	0	655.50	0	4.2550	0	36.2890	8	28.790	0	649.247	0	17.8	4	5.7	4	-1E+10	1	-1E+10	1	-1E+10	1	-1E+10	1	-1E+10	1	-1E+10	1
4901784	154	C	09/22/2019	10:43	-132.729	43.414	0	660.20	0	4.2660	0	36.2960	8	28.794	0	653.895	0	17.3	4	5.6	4	-1E+10	1	-1E+10	1	-1E+10	1	-1E+10	1	-1E+10	1	-1E+10	1
4901784	154	C	09/22/2019	10:43	-132.729	43.414	0	664.90	0	4.2470	0	36.2980	8	28.798	0	658.542	0	17.0	4	5.5	4	-1E+10	1	-1E+10	1	-1E+10	1	-1E+10	1	-1E+10	1	-1E+10	1
4901784	154	C	09/22/2019	10:43	-132.729	43.414	0	669.60	0	4.2270	0	36.3010	8	28.803	0	663.190	0	16.7	4	5.4	4	-1E+10	1	-1E+10	1	-1E+10	1	-1E+10	1	-1E+10	1	-1E+10	1
4901784	154	C	09/22/2019	10:43	-132.729	43.414	0	674.30	0	4.2250	0	36.3060	8	28.807	0	667.837	0	16.0	4	5.2	4	-1E+10	1	-1E+10	1	-1E+10	1	-1E+10	1	-1E+10	1	-1E+10	1
4901784	154	C	09/22/2019	10:43	-132.729	43.414	0	679.60	0	4.2200	0	36.3130	8	28.813	0	673.078	0	15.5	4	5.0	4	-1E+10	1	-1E+10	1	-1E+10	1	-1E+10	1	-1E+10	1	-1E+10	1
4901784	154	C	09/22/2019	10:43	-132.729	43.414	0	684.50	0	4.2000	0	36.3190	8	28.820	0	677.923	0	15.1	4	4.9	4	-1E+10	1	-1E+10	1	-1E+10	1	-1E+10	1	-1E+10	1	-1E+10	1
4901784	154	C	09/22/2019	10:43	-132.729	43.414	0	689.40	0	4.1900	0	36.3230	8	28.824	0	682.768	0	14.8	4	4.8	4	-1E+10	1	-1E+10	1	-1E+10	1	-1E+10	1	-1E+10	1	-1E+10	1
4901784	154	C	09/22/2019	10:43	-132.729	43.414	0	694.40	0	4.1800	0	36.3270	8	28.829	0	687.712	0	14.5	4	4.7	4	-1E+10	1	-1E+10	1	-1E+10	1	-1E+10	1	-1E+10	1	-1E+10	1
4901784	154	C	09/22/2019	10:43	-132.729	43.414	0	699.60	0	4.1730	0	36.3310	8	28.833	0	692.853	0	14.1	4	4.5	4	-1E+10	1	-1E+10	1	-1E+10	1	-1E+10	1	-1E+10	1	-1E+10	1
4901784	154	C	09/22/2019	10:43	-132.729	43.414	0	704.70	0	4.1660	0	36.3360	8	28.838	0	697.895	0	13.8	4	4.4	4	-1E+10	1	-1E+10	1	-1E+10	1	-1E+10	1	-1E+10	1	-1E+10	1
4901784	154	C	09/22/2019	10:43	-132.729	43.414	0	709.80	0	4.1550	0	36.3410	8	28.843	0	702.937	0	13.5	4	4.4	4	-1E+10	1	-1E+10	1	-1E+10	1	-1E+10	1	-1E+10	1	-1E+10	1
4901784	154	C	09/22/2019	10:43	-132.729	43.414	0	715.00	0	4.1450	0	36.3440	8	28.846	0	708.078	0	13.4	4	4.3	4	-1E+10	1	-1E+10	1	-1E+10	1	-1E+10	1	-1E+10	1	-1E+10	1
4901784	154	C	09/22/2019	10:43	-132.729	43.414	0	720.20	0	4.1350	0	36.3470	8	28.850	0	713.219	0	13.2	4	4.2	4	-1E+10	1	-1E+10	1	-1E+10	1	-1E+10	1	-1E+10	1	-1E+10	1
4901784	154	C	09/22/2019	10:43	-132.729	43.414	0	725.40	0	4.1180	0	36.3490	8	28.853	0	718.360	0	13.1	4	4.2	4	-1E+10	1	-1E+10	1	-1E+10	1	-1E+10	1	-1E+10	1	-1E+10	1
4901784	154	C	09/22/2019	10:43	-132.729	43.414	0	730.70	0	4.0960	0	36.3530	8	28.859	0	723.599	0	12.9	4	4.1	4	-1E+10	1	-1E+10	1	-1E+10	1	-1E+10	1	-1E+10	1	-1E+10	1
4901784	154	C	09/22/2019	10:43	-132.729	43.414	0	735.10	0	4.0750	0	36.3580	8	28.865	0	727.948	0	12.6	4	4.1	4	-1E+10	1	-1E+10	1	-1E+10	1	-1E+10	1	-1E+10	1	-1E+10	1
4901784	154	C	09/22/2019	10:43	-132.729	43.414	0	739.60	0	4.0720	0	36.3630	8	28.870	0	732.397	0	12.5	4	4.0	4	-1E+10	1	-1E+10	1	-1E+10	1	-1E+10	1	-1E+10	1	-1E+10	1
4901784	154	C	09/22/2019	10:43	-132.729	43.414	0	744.80	0	4.0540	0	36.3650	8	28.873	0	737.537	0	12.4	4	4.0	4	-1E+10	1	-1E+10	1	-1E+10	1	-1E+10	1	-1E+10	1	-1E+10	1
4901784	154	C	09/22/2019	10:43	-132.729	43.414	0	750.10	0	4.0300	0	36.3680	8	28.878	0	742.776	0	12.3	4	3.9	4	-1E+10	1	-1E+10	1	-1E+10	1	-1E+10	1	-1E+10	1	-1E+10	1
4901784	154	C	09/22/2019	10:43	-132.729	43.414	0	755.50	0	4.0240	0	36.3720	8	28.882	0	748.113	0	12.2	4	3.9	4	-1E+10	1	-1E+10	1	-1E+10	1	-1E+10	1	-1E+10	1	-1E+10	1
4901784	154	C	09/22/2019	10:43	-132.729	43.414	0	759.90	0	4.0130	0	36.3740	8	28.885	0	752.463	0	12.1	4	3.9	4	-1E+10	1	-1E+10	1	-1E+10	1	-1E+10	1	-1E+10	1	-1E+10	1
4901784	154	C	09/22/2019	10:43	-132.729	43.414	0	764.30	0	4.0130	0	36.3750	8	28.886	0	756.811	0	12.0	4	3.9	4	-1E+10	1	-1E+10	1	-1E+10	1	-1E+10	1	-1E+10	1	-1E+10	1
4901784	154	C	09/22/2019	10:43	-132.729	43.414	0	769.60	0	4.0050	0	36.3770	8	28.888	0	762.050	0	11.9	4	3.8	4	-1E+10	1	-1E+10	1	-1E+10	1	-1E+10	1	-1E+10	1	-1E+10	1
4901784	154	C	09/22/2019	10:43	-132.729	43.414	0	775.00	0	3.9950	0	36.3800	8	28.892	0	767.387	0	11.9	4	3.8	4	-1E+10	1	-1E+10	1	-1E+10	1	-1E+10	1	-1E+10	1	-1E+10	1
4901784	154	C	09/22/2019	10:43	-132.729	43.414	0	780.30	0	3.9670	0	36.3800	8	28.895	0	772.625	0	11.9	4	3.8	4	-1E+10	1	-1E+10	1	-1E+10	1	-1E+10	1	-1E+10	1	-1E+10	1
4901784	154	C	09/22/2019	10:43	-132.729	43.414	0	785.70	0	3.9430	0	36.3820	8	28.899	0	777.962	0	11.8	4	3.8	4	-1E+10	1	-1E+10	1	-1E+10	1	-1E+10	1	-1E+10	1	-1E+10	1
4901784	154	C	09/22/2019	10:43	-132.729	43.414	0	790.10	0	3.9420	0	36.3850	8	28.902	0	782.310	0	11.7	4	3.8	4	-1E+10	1	-1E+10	1	-1E+10	1	-1E+10	1	-1E+10	1	-1E+10	1
4901784	154	C	09/22/2019	10:43	-132.729	43.414	0	794.60	0	3.9210	0	36.3860	8	28.905	0	786.758	0	11.6	4	3.7	4	-1E+10	1	-1E+10	1	-1E+10	1	-1E+10	1	-1E+10	1	-1E+10	1
4901784	154	C	09/22/2019	10:43	-132.729	43.414	0	799.90	0	3.9070	0	36.3900	8	28.909	0	791.995	0	11.5	4	3.7	4	-1E+10	1	-1E+10	1	-1E+10	1	-1E+10	1	-1E+10	1	-1E+10	1
4901784	154	C	09/22/2019	10:43	-132.729	43.414	0	805.20	0	3.8970	0	36.3950	8	28.914	0	797.233	0	11.3	4	3.6	4	-1E+10	1	-1E+10	1	-1E+10	1	-1E+10	1	-1E+10	1	-1E+10	1
4901784	154	C	09/22/2019	10:43	-132.729	43.414	0	810.50	0	3.8730	0	36.3990	8	28.920	0	802.470	0	11.3	4	3.6	4	-1E+10	1	-1E+10	1	-1E+10	1	-1E+10	1	-1E+10	1	-1E+10	1
4901784	154	C	09/22/2019	10:43	-132.729	43.414	0	814.90	0	3.8680	0	36.4000	8	28.922	0	806.818	0	11.2	4	3.6	4	-1E+10	1	-1E+10	1	-1E+10	1	-1E+10	1	-1E+10	1	-1E+10	1
4901784	154	C	09/22/2019	10:43	-132.729	43.414	0	819.30	0	3.8500	0	36.4020	8	28.925	0	811.166	0	11.2	4	3.6	4	-1E+10	1	-1E+10	1	-1E+10	1	-1E+10	1	-1E+10	1	-1E+10	1
4901784	154	C	09/22/2019	10:43	-132.729	43.414	0	824.40	0	3.8160	0	36.4040	8	28.930	0	816.205	0	11.2	4	3.6	4	-1E+10	1	-1E+10	1	-1E+10	1	-1E+10	1	-1E+10	1	-1E+10	1
4901784	154	C	09/22/2019	10:43	-132.729	43.414	0	829.80	0	3.8050	0	36.4090	8	28.935	0	821.541	0	11.0	4	3.5	4	-1E+10	1	-1E+10	1	-1E+10	1	-1E+10	1	-1E+10	1	-1E+10	1
4901784	154	C	09/22/2019	10:43	-132.729	43.414	0	835.10	0	3.8100	0	36.4150	8	28.940	0	826.778	0	10.8	4	3.5	4	-1E+10	1	-1E+10	1	-1E+10	1	-1E+10	1	-1E+10	1	-1E+10	1
4901784	154	C	09/22/2019	10:43	-132.729	43.414	0	840.30	0	3.7920	0	36.4180	8	28.944	0	831.916	0	10.8	4	3.4	4	-1E+10	1	-1E+10	1	-1E+10	1	-1E+10	1	-1E+10	1	-1E+10	1
4901784	154	C	09/22/2019	10:43	-132.729	43.414	0	845.70	0	3.7750	0	36.4200	8	28.948	0	837.251	0	10.7	4	3.4	4	-1E+10	1	-1E+10	1	-1E+10	1	-1E+10	1	-1E+10	1	-1E+10	1
4901784	154	C	09/22/2019	10:43	-132.729	43.414	0	850.10	0	3.7620	0	36.4240	8	28.952	0	841.598	0	10.6	4	3.4	4	-1E+10	1	-1E+10	1	-1E+10	1	-1E+10	1	-1E+10	1	-1E+10	1
4901784	154	C	09/22/2019	10:43	-132.729	43.414	0	854.40	0	3.7480	0	36.4280	8	28.957	0	845.846	0	10.6	4	3.4	4	-1E+10	1	-1E+10	1	-1E+10	1	-1E+10	1	-1E+10	1	-1E+10	1
4901784	154	C	09/22/2019	10:43	-132.729	43.414	0	859.70	0	3.7390	0	36.4310	8	28.960	0	851.083	0	10.5	4	3.4	4	-1E+10	1	-1E+10	1	-1E+10	1	-1E+10	1	-1E+10	1	-1E+10	1
4901784	154	C	09/22/2019	10:43	-132.729	43.414	0	864.90	0	3.7300	0	36.4330	8	28.963	0	856.220	0	10.5	4	3.3	4	-1E+10	1	-1E+10	1	-1E+10	1	-1E+10	1	-1E+10	1	-1E+10	1
4901784	154	C	09/22/2019	10:43	-132.729	43.414	0	870.20	0	3.7160	0	36.4370	8	28.967	0	861.456	0	10.5	4	3.3	4	-1E+10	1	-1E+10	1	-1E+10	1	-1E+10	1	-1E+10	1	-1E+10	1
4901784	154	C	09/22/2019	10:43	-132.729	43.414	0	875.60	0	3.7050	0	36.4380	8	28.969	0	866.790	0	10.4	4	3.3	4	-1E+10	1	-1E+10	1	-1E+10	1	-1E+10	1	-1E+10	1	-1E+10	1
4901784	154	C	09/22/2019	10:43	-132.729	43.414	0	880.00	0	3.6840	0	36.4420	8	28.975	0	871.137	0	10.4	4	3.3	4	-1E+10	1	-1E+10	1	-1E+10	1	-1E+10	1	-1E+10	1	-1E+10	1
4901784	154	C	09/22/2019	10:43	-132.729	43.414	0	884.50	0	3.6750	0	36.4460	8	28.979	0	875.582	0	10.3	4	3.3	4	-1E+10	1	-1E+10	1	-1E+10	1	-1E+10	1	-1E+10	1	-1E+10	1
4901784	154	C	09/22/2019	10:43	-132.729	43.414	0	889.90	0	3.6680	0	36.4480	8	28.981	0	880.916	0	10.3	4	3.3	4	-1E+10	1	-1E+10	1	-1E+10	1	-1E+10	1	-1E+10	1	-1E+10	1
4901784	154	C	09/22/2019	10:43	-132.729	43.414	0	895.30	0	3.6620	0	36.4500	8	28.984	0	886.250	0	10.3	4	3.3	4	-1E+10	1	-1E+10	1	-1E+10	1	-1E+10	1	-1E+10	1	-1E+10	1
4901784	154	C	09/22/2019	10:43	-132.729	43.414	0	899.80	0	3.6560	0	36.4530	8	28.987	0	890.695	0	10.3	4	3.3	4	-1E+10	1	-1E+10	1	-1E+10	1	-1E+10	1	-1E+10	1	-1E+10	1
4901784	154	C	09/22/2019	10:43	-132.729	43.414	0	904.30	0	3.6500	0	36.4560	8	28.990	0	895.140	0	10.3	4	3.3	4	-1E+10	1	-1E+10	1	-1E+10	1	-1E+10	1	-1E+10	1	-1E+10	1
4901784	154	C	09/22/2019	10:43	-132.729	43.414	0	909.80	0	3.6370	0	36.4590	8	28.994	0	900.572	0	10.3	4	3.3	4	-1E+10	1	-1E+10	1	-1E+10	1	-1E+10	1	-1E+10	1	-1E+10	1
4901784	154	C	09/22/2019	10:43	-132.729	43.414	0	915.20	0	3.6220	0	36.4600	8	28.996	0	905.906	0	10.3	4	3.3	4	-1E+10	1	-1E+10	1	-1E+10	1	-1E+10	1	-1E+10	1	-1E+10	1
4901784	154	C	09/22/2019	10:43	-132.729	43.414	0	919.80	0	3.6040	0	36.4640	8	29.001	0	910.449	0	10.3	4	3.3	4	-1E+10	1	-1E+10	1	-1E+10	1	-1E+10	1	-1E+10	1	-1E+10	1
4901784	154	C	09/22/2019	10:43	-132.729	43.414	0	924.30	0	3.5950	0	36.4660	8	29.004	0	914.894	0	10.4	4	3.3	4	-1E+10	1	-1E+10	1	-1E+10	1	-1E+10	1	-1E+10	1	-1E+10	1
4901784	154	C	09/22/2019	10:43	-132.729	43.414	0	929.80	0	3.5930	0	36.4670	8	29.005	0	920.326	0	10.3	4	3.3	4	-1E+10	1	-1E+10	1	-1E+10	1	-1E+10	1	-1E+10	1	-1E+10	1
4901784	154	C	09/22/2019	10:43	-132.729	43.414	0	935.20	0	3.5790	0	36.4700	8	29.008	0	925.659	0	10.4	4	3.3	4	-1E+10	1	-1E+10	1	-1E+10	1	-1E+10	1	-1E+10	1	-1E+10	1
4901784	154	C	09/22/2019	10:43	-132.729	43.414	0	939.90	0	3.5660	0	36.4730	8	29.012	0	930.300	0	10.4	4	3.3	4	-1E+10	1	-1E+10	1	-1E+10	1	-1E+10	1	-1E+10	1	-1E+10	1
4901784	154	C	09/22/2019	10:43	-132.729	43.414	0	944.50	0	3.5550	0	36.4750	8	29.015	0	934.843	0	10.4	4	3.3	4	-1E+10	1	-1E+10	1	-1E+10	1	-1E+10	1	-1E+10	1	-1E+10	1
4901784	154	C	09/22/2019	10:43	-132.729	43.414	0	950.10	0	3.5440	0	36.4780	8	29.019	0	940.373	0	10.4	4	3.3	4	-1E+10	1	-1E+10	1	-1E+10	1	-1E+10	1	-1E+10	1	-1E+10	1
4901784	154	C	09/22/2019	10:43	-132.729	43.414	0	955.40	0	3.5390	0	36.4800	8	29.021	0	945.607	0	10.4	4	3.3	4	-1E+10	1	-1E+10	1	-1E+10	1	-1E+10	1	-1E+10	1	-1E+10	1
4901784	154	C	09/22/2019	10:43	-132.729	43.414	0	960.20	0	3.5340	0	36.4820	8	29.023	0	950.347	0	10.4	4	3.3	4	-1E+10	1	-1E+10	1	-1E+10	1	-1E+10	1	-1E+10	1	-1E+10	1
4901784	154	C	09/22/2019	10:43	-132.729	43.414	0	965.00	0	3.5310	0	36.4840	8	29.025	0	955.087	0	10.4	4	3.3	4	-1E+10	1	-1E+10	1	-1E+10	1	-1E+10	1	-1E+10	1	-1E+10	1
4901784	154	C	09/22/2019	10:43	-132.729	43.414	0	969.80	0	3.5250	0	36.4860	8	29.027	0	959.826	0	10.4	4	3.3	4	-1E+10	1	-1E+10	1	-1E+10	1	-1E+10	1	-1E+10	1	-1E+10	1
4901784	154	C	09/22/2019	10:43	-132.729	43.414	0	974.70	0	3.5110	0	36.4900	8	29.032	0	964.665	0	10.5	4	3.3	4	-1E+10	1	-1E+10	1	-1E+10	1	-1E+10	1	-1E+10	1	-1E+10	1
4901784	154	C	09/22/2019	10:43	-132.729	43.414	0	979.70	0	3.5020	0	36.4930	8	29.035	0	969.602	0	10.5	4	3.3	4	-1E+10	1	-1E+10	1	-1E+10	1	-1E+10	1	-1E+10	1	-1E+10	1
4901784	154	C	09/22/2019	10:43	-132.729	43.414	0	984.70	0	3.4910	0	36.4950	8	29.038	0	974.539	0	10.5	4	3.3	4	-1E+10	1	-1E+10	1	-1E+10	1	-1E+10	1	-1E+10	1	-1E+10	1
4901784	154	C	09/22/2019	10:43	-132.729	43.414	0	989.70	0	3.4820	0	36.4970	8	29.040	0	979.475	0	10.6	4	3.4	4	-1E+10	1	-1E+10	1	-1E+10	1	-1E+10	1	-1E+10	1	-1E+10	1
4901784	154	C	09/22/2019	10:43	-132.729	43.414	0	994.80	0	3.4740	0	36.4990	8	29.043	0	984.511	0	10.6	4	3.4	4	-1E+10	1	-1E+10	1	-1E+10	1	-1E+10	1	-1E+10	1	-1E+10	1
4901784	154	C	09/22/2019	10:43	-132.729	43.414	0	999.90	0	3.4670	0	36.5010	8	29.045	0	989.546	0	10.7	4	3.4	4	-1E+10	1	-1E+10	1	-1E+10	1	-1E+10	1	-1E+10	1	-1E+10	1
4901784	154	C	09/22/2019	10:43	-132.729	43.414	0	1004.90	0	3.4540	0	36.5040	8	29.049	0	994.482	0	10.7	4	3.4	4	-1E+10	1	-1E+10	1	-1E+10	1	-1E+10	1	-1E+10	1	-1E+10	1
4901784	154	C	09/22/2019	10:43	-132.729	43.414	0	1010.10	0	3.4380	0	36.5070	8	29.053	0	999.616	0	10.8	4	3.4	4	-1E+10	1	-1E+10	1	-1E+10	1	-1E+10	1	-1E+10	1	-1E+10	1
4901784	154	C	09/22/2019	10:43	-132.729	43.414	0	1015.30	0	3.4280	0	36.5090	8	29.056	0	1004.749	0	10.8	4	3.4	4	-1E+10	1	-1E+10	1	-1E+10	1	-1E+10	1	-1E+10	1	-1E+10	1
4901784	154	C	09/22/2019	10:43	-132.729	43.414	0	1020.60	0	3.4150	0	36.5110	8	29.059	0	1009.982	0	10.9	4	3.4	4	-1E+10	1	-1E+10	1	-1E+10	1	-1E+10	1	-1E+10	1	-1E+10	1
4901784	154	C	09/22/2019	10:43	-132.729	43.414	0	1025.00	0	3.4030	0	36.5130	8	29.061	0	1014.325	0	10.9	4	3.5	4	-1E+10	1	-1E+10	1	-1E+10	1	-1E+10	1	-1E+10	1	-1E+10	1
4901784	154	C	09/22/2019	10:43	-132.729	43.414	0	1029.50	0	3.3940	0	36.5150	8	29.064	0	1018.767	0	11.0	4	3.5	4	-1E+10	1	-1E+10	1	-1E+10	1	-1E+10	1	-1E+10	1	-1E+10	1
4901784	154	C	09/22/2019	10:43	-132.729	43.414	0	1034.80	0	3.3920	0	36.5170	8	29.066	0	1023.999	0	11.0	4	3.5	4	-1E+10	1	-1E+10	1	-1E+10	1	-1E+10	1	-1E+10	1	-1E+10	1
4901784	154	C	09/22/2019	10:43	-132.729	43.414	0	1040.30	0	3.3840	0	36.5170	8	29.067	0	1029.428	0	11.0	4	3.5	4	-1E+10	1	-1E+10	1	-1E+10	1	-1E+10	1	-1E+10	1	-1E+10	1
4901784	154	C	09/22/2019	10:43	-132.729	43.414	0	1044.80	0	3.3760	0	36.5190	8	29.069	0	1033.870	0	11.1	4	3.5	4	-1E+10	1	-1E+10	1	-1E+10	1	-1E+10	1	-1E+10	1	-1E+10	1
4901784	154	C	09/22/2019	10:43	-132.729	43.414	0	1049.40	0	3.3700	0	36.5210	8	29.071	0	1038.411	0	11.1	4	3.5	4	-1E+10	1	-1E+10	1	-1E+10	1	-1E+10	1	-1E+10	1	-1E+10	1
4901784	154	C	09/22/2019	10:43	-132.729	43.414	0	1054.80	0	3.3580	0	36.5230	8	29.074	0	1043.741	0	11.2	4	3.6	4	-1E+10	1	-1E+10	1	-1E+10	1	-1E+10	1	-1E+10	1	-1E+10	1
4901784	154	C	09/22/2019	10:43	-132.729	43.414	0	1060.30	0	3.3430	0	36.5250	8	29.077	0	1049.169	0	11.3	4	3.6	4	-1E+10	1	-1E+10	1	-1E+10	1	-1E+10	1	-1E+10	1	-1E+10	1
4901784	154	C	09/22/2019	10:43	-132.729	43.414	0	1064.90	0	3.3230	0	36.5280	8	29.082	0	1053.710	0	11.4	4	3.6	4	-1E+10	1	-1E+10	1	-1E+10	1	-1E+10	1	-1E+10	1	-1E+10	1
4901784	154	C	09/22/2019	10:43	-132.729	43.414	0	1069.60	0	3.3190	0	36.5290	8	29.083	0	1058.348	0	11.4	4	3.6	4	-1E+10	1	-1E+10	1	-1E+10	1	-1E+10	1	-1E+10	1	-1E+10	1
4901784	154	C	09/22/2019	10:43	-132.729	43.414	0	1075.10	0	3.3120	0	36.5290	8	29.084	0	1063.776	0	11.5	4	3.6	4	-1E+10	1	-1E+10	1	-1E+10	1	-1E+10	1	-1E+10	1	-1E+10	1
4901784	154	C	09/22/2019	10:43	-132.729	43.414	0	1080.60	0	3.2970	0	36.5330	8	29.088	0	1069.205	0	11.6	4	3.7	4	-1E+10	1	-1E+10	1	-1E+10	1	-1E+10	1	-1E+10	1	-1E+10	1
4901784	154	C	09/22/2019	10:43	-132.729	43.414	0	1085.40	0	3.2850	0	36.5350	8	29.091	0	1073.942	0	11.7	4	3.7	4	-1E+10	1	-1E+10	1	-1E+10	1	-1E+10	1	-1E+10	1	-1E+10	1
4901784	154	C	09/22/2019	10:43	-132.729	43.414	0	1089.80	0	3.2720	0	36.5370	8	29.094	0	1078.284	0	11.8	4	3.7	4	-1E+10	1	-1E+10	1	-1E+10	1	-1E+10	1	-1E+10	1	-1E+10	1
4901784	154	C	09/22/2019	10:43	-132.729	43.414	0	1094.80	0	3.2630	0	36.5390	8	29.097	0	1083.218	0	11.9	4	3.7	4	-1E+10	1	-1E+10	1	-1E+10	1	-1E+10	1	-1E+10	1	-1E+10	1
4901784	154	C	09/22/2019	10:43	-132.729	43.414	0	1099.70	0	3.2570	0	36.5400	8	29.098	0	1088.054	0	11.9	4	3.8	4	-1E+10	1	-1E+10	1	-1E+10	1	-1E+10	1	-1E+10	1	-1E+10	1
4901784	154	C	09/22/2019	10:43	-132.729	43.414	0	1104.60	0	3.2410	0	36.5430	8	29.102	0	1092.889	0	12.1	4	3.8	4	-1E+10	1	-1E+10	1	-1E+10	1	-1E+10	1	-1E+10	1	-1E+10	1
4901784	154	C	09/22/2019	10:43	-132.729	43.414	0	1109.60	0	3.2300	0	36.5450	8	29.105	0	1097.823	0	12.2	4	3.8	4	-1E+10	1	-1E+10	1	-1E+10	1	-1E+10	1	-1E+10	1	-1E+10	1
4901784	154	C	09/22/2019	10:43	-132.729	43.414	0	1114.60	0	3.2200	0	36.5470	8	29.107	0	1102.757	0	12.3	4	3.9	4	-1E+10	1	-1E+10	1	-1E+10	1	-1E+10	1	-1E+10	1	-1E+10	1
4901784	154	C	09/22/2019	10:43	-132.729	43.414	0	1119.60	0	3.2120	0	36.5490	8	29.110	0	1107.690	0	12.3	4	3.9	4	-1E+10	1	-1E+10	1	-1E+10	1	-1E+10	1	-1E+10	1	-1E+10	1
4901784	154	C	09/22/2019	10:43	-132.729	43.414	0	1124.70	0	3.2060	0	36.5500	8	29.111	0	1112.723	0	12.4	4	3.9	4	-1E+10	1	-1E+10	1	-1E+10	1	-1E+10	1	-1E+10	1	-1E+10	1
4901784	154	C	09/22/2019	10:43	-132.729	43.414	0	1129.90	0	3.2020	0	36.5510	8	29.112	0	1117.854	0	12.5	4	3.9	4	-1E+10	1	-1E+10	1	-1E+10	1	-1E+10	1	-1E+10	1	-1E+10	1
4901784	154	C	09/22/2019	10:43	-132.729	43.414	0	1135.00	0	3.1920	0	36.5530	8	29.115	0	1122.885	0	12.6	4	4.0	4	-1E+10	1	-1E+10	1	-1E+10	1	-1E+10	1	-1E+10	1	-1E+10	1
4901784	154	C	09/22/2019	10:43	-132.729	43.414	0	1140.20	0	3.1850	0	36.5550	8	29.117	0	1128.016	0	12.8	4	4.0	4	-1E+10	1	-1E+10	1	-1E+10	1	-1E+10	1	-1E+10	1	-1E+10	1
4901784	154	C	09/22/2019	10:43	-132.729	43.414	0	1145.50	0	3.1720	0	36.5570	8	29.120	0	1133.245	0	12.9	4	4.1	4	-1E+10	1	-1E+10	1	-1E+10	1	-1E+10	1	-1E+10	1	-1E+10	1
4901784	154	C	09/22/2019	10:43	-132.729	43.414	0	1150.70	0	3.1650	0	36.5580	8	29.122	0	1138.375	0	13.0	4	4.1	4	-1E+10	1	-1E+10	1	-1E+10	1	-1E+10	1	-1E+10	1	-1E+10	1
4901784	154	C	09/22/2019	10:43	-132.729	43.414	0	1155.10	0	3.1580	0	36.5600	8	29.124	0	1142.716	0	13.1	4	4.1	4	-1E+10	1	-1E+10	1	-1E+10	1	-1E+10	1	-1E+10	1	-1E+10	1
4901784	154	C	09/22/2019	10:43	-132.729	43.414	0	1159.60	0	3.1530	0	36.5610	8	29.125	0	1147.156	0	13.2	4	4.2	4	-1E+10	1	-1E+10	1	-1E+10	1	-1E+10	1	-1E+10	1	-1E+10	1
4901784	154	C	09/22/2019	10:43	-132.729	43.414	0	1164.90	0	3.1460	0	36.5620	8	29.127	0	1152.384	0	13.4	4	4.2	4	-1E+10	1	-1E+10	1	-1E+10	1	-1E+10	1	-1E+10	1	-1E+10	1
4901784	154	C	09/22/2019	10:43	-132.729	43.414	0	1170.30	0	3.1350	0	36.5640	8	29.130	0	1157.712	0	13.5	4	4.3	4	-1E+10	1	-1E+10	1	-1E+10	1	-1E+10	1	-1E+10	1	-1E+10	1
4901784	154	C	09/22/2019	10:43	-132.729	43.414	0	1174.90	0	3.1260	0	36.5660	8	29.132	0	1162.249	0	13.6	4	4.3	4	-1E+10	1	-1E+10	1	-1E+10	1	-1E+10	1	-1E+10	1	-1E+10	1
4901784	154	C	09/22/2019	10:43	-132.729	43.414	0	1179.40	0	3.1130	0	36.5680	8	29.135	0	1166.688	0	13.8	4	4.3	4	-1E+10	1	-1E+10	1	-1E+10	1	-1E+10	1	-1E+10	1	-1E+10	1
4901784	154	C	09/22/2019	10:43	-132.729	43.414	0	1184.90	0	3.1080	0	36.5690	8	29.136	0	1172.114	0	13.9	4	4.4	4	-1E+10	1	-1E+10	1	-1E+10	1	-1E+10	1	-1E+10	1	-1E+10	1
4901784	154	C	09/22/2019	10:43	-132.729	43.414	0	1190.40	0	3.0960	0	36.5710	8	29.139	0	1177.539	0	14.1	4	4.4	4	-1E+10	1	-1E+10	1	-1E+10	1	-1E+10	1	-1E+10	1	-1E+10	1
4901784	154	C	09/22/2019	10:43	-132.729	43.414	0	1194.90	0	3.0860	0	36.5720	8	29.141	0	1181.978	0	14.2	4	4.5	4	-1E+10	1	-1E+10	1	-1E+10	1	-1E+10	1	-1E+10	1	-1E+10	1
4901784	154	C	09/22/2019	10:43	-132.729	43.414	0	1199.40	0	3.0810	0	36.5730	8	29.142	0	1186.416	0	14.4	4	4.5	4	-1E+10	1	-1E+10	1	-1E+10	1	-1E+10	1	-1E+10	1	-1E+10	1
4901784	154	C	09/22/2019	10:43	-132.729	43.414	0	1204.90	0	3.0690	0	36.5760	8	29.146	0	1191.841	0	14.6	4	4.6	4	-1E+10	1	-1E+10	1	-1E+10	1	-1E+10	1	-1E+10	1	-1E+10	1
4901784	154	C	09/22/2019	10:43	-132.729	43.414	0	1210.10	0	3.0560	0	36.5780	8	29.149	0	1196.970	0	14.8	4	4.7	4	-1E+10	1	-1E+10	1	-1E+10	1	-1E+10	1	-1E+10	1	-1E+10	1
4901784	154	C	09/22/2019	10:43	-132.729	43.414	0	1215.00	0	3.0460	0	36.5810	8	29.152	0	1201.803	0	15.0	4	4.7	4	-1E+10	1	-1E+10	1	-1E+10	1	-1E+10	1	-1E+10	1	-1E+10	1
4901784	154	C	09/22/2019	10:43	-132.729	43.414	0	1220.60	0	3.0340	0	36.5820	8	29.154	0	1207.326	0	15.2	4	4.8	4	-1E+10	1	-1E+10	1	-1E+10	1	-1E+10	1	-1E+10	1	-1E+10	1
4901784	154	C	09/22/2019	10:43	-132.729	43.414	0	1225.40	0	3.0200	0	36.5840	8	29.157	0	1212.060	0	15.3	4	4.8	4	-1E+10	1	-1E+10	1	-1E+10	1	-1E+10	1	-1E+10	1	-1E+10	1
4901784	154	C	09/22/2019	10:43	-132.729	43.414	0	1230.30	0	3.0110	0	36.5850	8	29.159	0	1216.893	0	15.4	4	4.8	4	-1E+10	1	-1E+10	1	-1E+10	1	-1E+10	1	-1E+10	1	-1E+10	1
4901784	154	C	09/22/2019	10:43	-132.729	43.414	0	1235.20	0	3.0030	0	36.5860	8	29.160	0	1221.725	0	15.5	4	4.9	4	-1E+10	1	-1E+10	1	-1E+10	1	-1E+10	1	-1E+10	1	-1E+10	1
4901784	154	C	09/22/2019	10:43	-132.729	43.414	0	1240.10	0	2.9940	0	36.5880	8	29.163	0	1226.557	0	15.6	4	4.9	4	-1E+10	1	-1E+10	1	-1E+10	1	-1E+10	1	-1E+10	1	-1E+10	1
4901784	154	C	09/22/2019	10:43	-132.729	43.414	0	1245.00	0	2.9870	0	36.5880	8	29.164	0	1231.389	0	15.7	4	4.9	4	-1E+10	1	-1E+10	1	-1E+10	1	-1E+10	1	-1E+10	1	-1E+10	1
4901784	154	C	09/22/2019	10:43	-132.729	43.414	0	1250.00	0	2.9790	0	36.5890	8	29.165	0	1236.320	0	15.8	4	4.9	4	-1E+10	1	-1E+10	1	-1E+10	1	-1E+10	1	-1E+10	1	-1E+10	1
4901784	154	C	09/22/2019	10:43	-132.729	43.414	0	1255.00	0	2.9660	0	36.5900	8	29.167	0	1241.251	0	15.7	4	4.9	4	-1E+10	1	-1E+10	1	-1E+10	1	-1E+10	1	-1E+10	1	-1E+10	1
4901784	154	C	09/22/2019	10:43	-132.729	43.414	0	1260.00	0	2.9530	0	36.5920	8	29.170	0	1246.181	0	15.9	4	5.0	4	-1E+10	1	-1E+10	1	-1E+10	1	-1E+10	1	-1E+10	1	-1E+10	1
4901784	154	C	09/22/2019	10:43	-132.729	43.414	0	1265.10	0	2.9500	0	36.5920	8	29.171	0	1251.210	0	16.0	4	5.0	4	-1E+10	1	-1E+10	1	-1E+10	1	-1E+10	1	-1E+10	1	-1E+10	1
4901784	154	C	09/22/2019	10:43	-132.729	43.414	0	1270.20	0	2.9420	0	36.5930	8	29.172	0	1256.239	0	16.1	4	5.1	4	-1E+10	1	-1E+10	1	-1E+10	1	-1E+10	1	-1E+10	1	-1E+10	1
4901784	154	C	09/22/2019	10:43	-132.729	43.414	0	1275.30	0	2.9300	0	36.5950	8	29.175	0	1261.267	0	16.4	4	5.1	4	-1E+10	1	-1E+10	1	-1E+10	1	-1E+10	1	-1E+10	1	-1E+10	1
4901784	154	C	09/22/2019	10:43	-132.729	43.414	0	1280.50	0	2.9180	0	36.5970	8	29.178	0	1266.395	0	16.6	4	5.2	4	-1E+10	1	-1E+10	1	-1E+10	1	-1E+10	1	-1E+10	1	-1E+10	1
4901784	154	C	09/22/2019	10:43	-132.729	43.414	0	1285.80	0	2.9110	0	36.5980	8	29.179	0	1271.620	0	16.8	4	5.3	4	-1E+10	1	-1E+10	1	-1E+10	1	-1E+10	1	-1E+10	1	-1E+10	1
4901784	154	C	09/22/2019	10:43	-132.729	43.414	0	1290.10	0	2.9010	0	36.5990	8	29.181	0	1275.860	0	17.1	4	5.3	4	-1E+10	1	-1E+10	1	-1E+10	1	-1E+10	1	-1E+10	1	-1E+10	1
4901784	154	C	09/22/2019	10:43	-132.729	43.414	0	1294.50	0	2.8870	0	36.6020	8	29.185	0	1280.198	0	17.3	4	5.4	4	-1E+10	1	-1E+10	1	-1E+10	1	-1E+10	1	-1E+10	1	-1E+10	1
4901784	154	C	09/22/2019	10:43	-132.729	43.414	0	1299.80	0	2.8760	0	36.6030	8	29.187	0	1285.423	0	17.5	4	5.5	4	-1E+10	1	-1E+10	1	-1E+10	1	-1E+10	1	-1E+10	1	-1E+10	1
4901784	154	C	09/22/2019	10:43	-132.729	43.414	0	1305.10	0	2.8660	0	36.6040	8	29.188	0	1290.648	0	17.7	4	5.5	4	-1E+10	1	-1E+10	1	-1E+10	1	-1E+10	1	-1E+10	1	-1E+10	1
4901784	154	C	09/22/2019	10:43	-132.729	43.414	0	1310.60	0	2.8560	0	36.6060	8	29.191	0	1296.070	0	17.9	4	5.6	4	-1E+10	1	-1E+10	1	-1E+10	1	-1E+10	1	-1E+10	1	-1E+10	1
4901784	154	C	09/22/2019	10:43	-132.729	43.414	0	1315.10	0	2.8540	0	36.6070	8	29.192	0	1300.507	0	18.0	4	5.6	4	-1E+10	1	-1E+10	1	-1E+10	1	-1E+10	1	-1E+10	1	-1E+10	1
4901784	154	C	09/22/2019	10:43	-132.729	43.414	0	1319.70	0	2.8490	0	36.6070	8	29.192	0	1305.041	0	18.2	4	5.7	4	-1E+10	1	-1E+10	1	-1E+10	1	-1E+10	1	-1E+10	1	-1E+10	1
4901784	154	C	09/22/2019	10:43	-132.729	43.414	0	1325.10	0	2.8370	0	36.6090	8	29.195	0	1310.365	0	18.4	4	5.8	4	-1E+10	1	-1E+10	1	-1E+10	1	-1E+10	1	-1E+10	1	-1E+10	1
4901784	154	C	09/22/2019	10:43	-132.729	43.414	0	1330.40	0	2.8220	0	36.6110	8	29.198	0	1315.589	0	18.7	4	5.8	4	-1E+10	1	-1E+10	1	-1E+10	1	-1E+10	1	-1E+10	1	-1E+10	1
4901784	154	C	09/22/2019	10:43	-132.729	43.414	0	1335.00	0	2.8150	0	36.6120	8	29.200	0	1320.123	0	18.9	4	5.9	4	-1E+10	1	-1E+10	1	-1E+10	1	-1E+10	1	-1E+10	1	-1E+10	1
4901784	154	C	09/22/2019	10:43	-132.729	43.414	0	1339.50	0	2.8070	0	36.6130	8	29.201	0	1324.559	0	19.1	4	6.0	4	-1E+10	1	-1E+10	1	-1E+10	1	-1E+10	1	-1E+10	1	-1E+10	1
4901784	154	C	09/22/2019	10:43	-132.729	43.414	0	1345.20	0	2.7930	0	36.6150	8	29.204	0	1330.178	0	19.3	4	6.0	4	-1E+10	1	-1E+10	1	-1E+10	1	-1E+10	1	-1E+10	1	-1E+10	1
4901784	154	C	09/22/2019	10:43	-132.729	43.414	0	1350.30	0	2.7890	0	36.6160	8	29.205	0	1335.205	0	19.5	4	6.1	4	-1E+10	1	-1E+10	1	-1E+10	1	-1E+10	1	-1E+10	1	-1E+10	1
4901784	154	C	09/22/2019	10:43	-132.729	43.414	0	1354.90	0	2.7810	0	36.6170	8	29.207	0	1339.739	0	19.7	4	6.1	4	-1E+10	1	-1E+10	1	-1E+10	1	-1E+10	1	-1E+10	1	-1E+10	1
4901784	154	C	09/22/2019	10:43	-132.729	43.414	0	1359.70	0	2.7740	0	36.6180	8	29.209	0	1344.469	0	19.8	4	6.2	4	-1E+10	1	-1E+10	1	-1E+10	1	-1E+10	1	-1E+10	1	-1E+10	1
4901784	154	C	09/22/2019	10:43	-132.729	43.414	0	1364.50	0	2.7660	0	36.6190	8	29.210	0	1349.200	0	20.1	4	6.3	4	-1E+10	1	-1E+10	1	-1E+10	1	-1E+10	1	-1E+10	1	-1E+10	1
4901784	154	C	09/22/2019	10:43	-132.729	43.414	0	1369.20	0	2.7510	0	36.6220	8	29.214	0	1353.833	0	20.3	4	6.3	4	-1E+10	1	-1E+10	1	-1E+10	1	-1E+10	1	-1E+10	1	-1E+10	1
4901784	154	C	09/22/2019	10:43	-132.729	43.414	0	1374.50	0	2.7450	0	36.6220	8	29.215	0	1359.056	0	20.6	4	6.4	4	-1E+10	1	-1E+10	1	-1E+10	1	-1E+10	1	-1E+10	1	-1E+10	1
4901784	154	C	09/22/2019	10:43	-132.729	43.414	0	1379.70	0	2.7330	0	36.6230	8	29.216	0	1364.181	0	21.0	4	6.6	4	-1E+10	1	-1E+10	1	-1E+10	1	-1E+10	1	-1E+10	1	-1E+10	1
4901784	154	C	09/22/2019	10:43	-132.729	43.414	0	1385.10	0	2.7180	0	36.6260	8	29.220	0	1369.503	0	21.4	4	6.7	4	-1E+10	1	-1E+10	1	-1E+10	1	-1E+10	1	-1E+10	1	-1E+10	1
4901784	154	C	09/22/2019	10:43	-132.729	43.414	0	1390.50	0	2.7090	0	36.6270	8	29.222	0	1374.824	0	21.6	4	6.7	4	-1E+10	1	-1E+10	1	-1E+10	1	-1E+10	1	-1E+10	1	-1E+10	1
4901784	154	C	09/22/2019	10:43	-132.729	43.414	0	1394.90	0	2.7010	0	36.6280	8	29.224	0	1379.160	0	21.9	4	6.8	4	-1E+10	1	-1E+10	1	-1E+10	1	-1E+10	1	-1E+10	1	-1E+10	1
4901784	154	C	09/22/2019	10:43	-132.729	43.414	0	1399.40	0	2.6920	0	36.6300	8	29.226	0	1383.595	0	22.2	4	6.9	4	-1E+10	1	-1E+10	1	-1E+10	1	-1E+10	1	-1E+10	1	-1E+10	1
4901784	154	C	09/22/2019	10:43	-132.729	43.414	0	1404.70	0	2.6840	0	36.6310	8	29.228	0	1388.817	0	22.4	4	7.0	4	-1E+10	1	-1E+10	1	-1E+10	1	-1E+10	1	-1E+10	1	-1E+10	1
4901784	154	C	09/22/2019	10:43	-132.729	43.414	0	1410.10	0	2.6740	0	36.6320	8	29.229	0	1394.138	0	22.8	4	7.1	4	-1E+10	1	-1E+10	1	-1E+10	1	-1E+10	1	-1E+10	1	-1E+10	1
4901784	154	C	09/22/2019	10:43	-132.729	43.414	0	1415.50	0	2.6620	0	36.6340	8	29.232	0	1399.459	0	23.1	4	7.2	4	-1E+10	1	-1E+10	1	-1E+10	1	-1E+10	1	-1E+10	1	-1E+10	1
4901784	154	C	09/22/2019	10:43	-132.729	43.414	0	1420.10	0	2.6500	0	36.6360	8	29.235	0	1403.992	0	23.4	4	7.3	4	-1E+10	1	-1E+10	1	-1E+10	1	-1E+10	1	-1E+10	1	-1E+10	1
4901784	154	C	09/22/2019	10:43	-132.729	43.414	0	1424.70	0	2.6400	0	36.6370	8	29.237	0	1408.524	0	23.7	4	7.4	4	-1E+10	1	-1E+10	1	-1E+10	1	-1E+10	1	-1E+10	1	-1E+10	1
4901784	154	C	09/22/2019	10:43	-132.729	43.414	0	1430.30	0	2.6320	0	36.6380	8	29.238	0	1414.042	0	24.0	4	7.5	4	-1E+10	1	-1E+10	1	-1E+10	1	-1E+10	1	-1E+10	1	-1E+10	1
4901784	154	C	09/22/2019	10:43	-132.729	43.414	0	1434.80	0	2.6220	0	36.6390	8	29.240	0	1418.476	0	24.3	4	7.6	4	-1E+10	1	-1E+10	1	-1E+10	1	-1E+10	1	-1E+10	1	-1E+10	1
4901784	154	C	09/22/2019	10:43	-132.729	43.414	0	1439.40	0	2.6120	0	36.6410	8	29.242	0	1423.008	0	24.5	4	7.6	4	-1E+10	1	-1E+10	1	-1E+10	1	-1E+10	1	-1E+10	1	-1E+10	1
4901784	154	C	09/22/2019	10:43	-132.729	43.414	0	1444.90	0	2.6040	0	36.6420	8	29.244	0	1428.427	0	24.8	4	7.7	4	-1E+10	1	-1E+10	1	-1E+10	1	-1E+10	1	-1E+10	1	-1E+10	1
4901784	154	C	09/22/2019	10:43	-132.729	43.414	0	1450.50	0	2.5960	0	36.6430	8	29.245	0	1433.944	0	25.0	4	7.8	4	-1E+10	1	-1E+10	1	-1E+10	1	-1E+10	1	-1E+10	1	-1E+10	1
4901784	154	C	09/22/2019	10:43	-132.729	43.414	0	1455.20	0	2.5900	0	36.6440	8	29.247	0	1438.574	0	25.2	4	7.8	4	-1E+10	1	-1E+10	1	-1E+10	1	-1E+10	1	-1E+10	1	-1E+10	1
4901784	154	C	09/22/2019	10:43	-132.729	43.414	0	1459.90	0	2.5830	0	36.6450	8	29.248	0	1443.205	0	25.5	4	7.9	4	-1E+10	1	-1E+10	1	-1E+10	1	-1E+10	1	-1E+10	1	-1E+10	1
4901784	154	C	09/22/2019	10:43	-132.729	43.414	0	1465.50	0	2.5750	0	36.6460	8	29.250	0	1448.721	0	25.7	4	8.0	4	-1E+10	1	-1E+10	1	-1E+10	1	-1E+10	1	-1E+10	1	-1E+10	1
4901784	154	C	09/22/2019	10:43	-132.729	43.414	0	1470.20	0	2.5670	0	36.6470	8	29.251	0	1453.351	0	26.0	4	8.1	4	-1E+10	1	-1E+10	1	-1E+10	1	-1E+10	1	-1E+10	1	-1E+10	1
4901784	154	C	09/22/2019	10:43	-132.729	43.414	0	1475.00	0	2.5590	0	36.6480	8	29.253	0	1458.080	0	26.3	4	8.2	4	-1E+10	1	-1E+10	1	-1E+10	1	-1E+10	1	-1E+10	1	-1E+10	1
4901784	154	C	09/22/2019	10:43	-132.729	43.414	0	1480.60	0	2.5480	0	36.6490	8	29.255	0	1463.596	0	26.6	4	8.3	4	-1E+10	1	-1E+10	1	-1E+10	1	-1E+10	1	-1E+10	1	-1E+10	1
4901784	154	C	09/22/2019	10:43	-132.729	43.414	0	1485.30	0	2.5390	0	36.6510	8	29.257	0	1468.226	0	26.9	4	8.4	4	-1E+10	1	-1E+10	1	-1E+10	1	-1E+10	1	-1E+10	1	-1E+10	1
4901784	154	C	09/22/2019	10:43	-132.729	43.414	0	1489.90	0	2.5310	0	36.6510	8	29.258	0	1472.757	0	27.2	4	8.4	4	-1E+10	1	-1E+10	1	-1E+10	1	-1E+10	1	-1E+10	1	-1E+10	1
4901784	154	C	09/22/2019	10:43	-132.729	43.414	0	1495.30	0	2.5220	0	36.6520	8	29.260	0	1478.076	0	27.5	4	8.5	4	-1E+10	1	-1E+10	1	-1E+10	1	-1E+10	1	-1E+10	1	-1E+10	1
4901784	154	C	09/22/2019	10:43	-132.729	43.414	0	1500.60	0	2.5140	0	36.6530	8	29.261	0	1483.296	0	27.7	4	8.6	4	-1E+10	1	-1E+10	1	-1E+10	1	-1E+10	1	-1E+10	1	-1E+10	1
4901784	154	C	09/22/2019	10:43	-132.729	43.414	0	1505.00	0	2.5070	0	36.6540	8	29.263	0	1487.630	0	27.9	4	8.7	4	-1E+10	1	-1E+10	1	-1E+10	1	-1E+10	1	-1E+10	1	-1E+10	1
4901784	154	C	09/22/2019	10:43	-132.729	43.414	0	1509.40	0	2.5020	0	36.6550	8	29.264	0	1491.964	0	28.1	4	8.7	4	-1E+10	1	-1E+10	1	-1E+10	1	-1E+10	1	-1E+10	1	-1E+10	1
4901784	154	C	09/22/2019	10:43	-132.729	43.414	0	1514.80	0	2.4970	0	36.6550	8	29.264	0	1497.282	0	28.3	4	8.8	4	-1E+10	1	-1E+10	1	-1E+10	1	-1E+10	1	-1E+10	1	-1E+10	1
4901784	154	C	09/22/2019	10:43	-132.729	43.414	0	1520.20	0	2.4900	0	36.6560	8	29.266	0	1502.601	0	28.6	4	8.9	4	-1E+10	1	-1E+10	1	-1E+10	1	-1E+10	1	-1E+10	1	-1E+10	1
4901784	154	C	09/22/2019	10:43	-132.729	43.414	0	1525.50	0	2.4810	0	36.6570	8	29.268	0	1507.821	0	28.9	4	9.0	4	-1E+10	1	-1E+10	1	-1E+10	1	-1E+10	1	-1E+10	1	-1E+10	1
4901784	154	C	09/22/2019	10:43	-132.729	43.414	0	1530.00	0	2.4740	0	36.6580	8	29.269	0	1512.252	0	29.3	4	9.1	4	-1E+10	1	-1E+10	1	-1E+10	1	-1E+10	1	-1E+10	1	-1E+10	1
4901784	154	C	09/22/2019	10:43	-132.729	43.414	0	1534.50	0	2.4650	0	36.6590	8	29.271	0	1516.684	0	29.7	4	9.2	4	-1E+10	1	-1E+10	1	-1E+10	1	-1E+10	1	-1E+10	1	-1E+10	1
4901784	154	C	09/22/2019	10:43	-132.729	43.414	0	1539.90	0	2.4470	0	36.6610	8	29.274	0	1522.002	0	30.2	4	9.4	4	-1E+10	1	-1E+10	1	-1E+10	1	-1E+10	1	-1E+10	1	-1E+10	1
4901784	154	C	09/22/2019	10:43	-132.729	43.414	0	1545.30	0	2.4370	0	36.6620	8	29.276	0	1527.320	0	30.6	4	9.5	4	-1E+10	1	-1E+10	1	-1E+10	1	-1E+10	1	-1E+10	1	-1E+10	1
4901784	154	C	09/22/2019	10:43	-132.729	43.414	0	1549.90	0	2.4270	0	36.6640	8	29.278	0	1531.849	0	31.0	4	9.6	4	-1E+10	1	-1E+10	1	-1E+10	1	-1E+10	1	-1E+10	1	-1E+10	1
4901784	154	C	09/22/2019	10:43	-132.729	43.414	0	1554.40	0	2.4160	0	36.6650	8	29.280	0	1536.281	0	31.3	4	9.7	4	-1E+10	1	-1E+10	1	-1E+10	1	-1E+10	1	-1E+10	1	-1E+10	1
4901784	154	C	09/22/2019	10:43	-132.729	43.414	0	1559.90	0	2.4070	0	36.6660	8	29.282	0	1541.697	0	31.6	4	9.8	4	-1E+10	1	-1E+10	1	-1E+10	1	-1E+10	1	-1E+10	1	-1E+10	1
4901784	154	C	09/22/2019	10:43	-132.729	43.414	0	1565.30	0	2.4000	0	36.6670	8	29.283	0	1547.014	0	32.0	4	9.9	4	-1E+10	1	-1E+10	1	-1E+10	1	-1E+10	1	-1E+10	1	-1E+10	1
4901784	154	C	09/22/2019	10:43	-132.729	43.414	0	1569.90	0	2.3900	0	36.6680	8	29.285	0	1551.543	0	32.2	4	10.0	4	-1E+10	1	-1E+10	1	-1E+10	1	-1E+10	1	-1E+10	1	-1E+10	1
4901784	154	C	09/22/2019	10:43	-132.729	43.414	0	1574.50	0	2.3870	0	36.6690	8	29.286	0	1556.073	0	32.4	4	10.0	4	-1E+10	1	-1E+10	1	-1E+10	1	-1E+10	1	-1E+10	1	-1E+10	1
4901784	154	C	09/22/2019	10:43	-132.729	43.414	0	1580.00	0	2.3800	0	36.6690	8	29.286	0	1561.488	0	32.8	4	10.1	4	-1E+10	1	-1E+10	1	-1E+10	1	-1E+10	1	-1E+10	1	-1E+10	1
4901784	154	C	09/22/2019	10:43	-132.729	43.414	0	1585.60	0	2.3700	0	36.6710	8	29.289	0	1567.001	0	33.2	4	10.3	4	-1E+10	1	-1E+10	1	-1E+10	1	-1E+10	1	-1E+10	1	-1E+10	1
4901784	154	C	09/22/2019	10:43	-132.729	43.414	0	1590.30	0	2.3600	0	36.6720	8	29.291	0	1571.629	0	33.4	4	10.3	4	-1E+10	1	-1E+10	1	-1E+10	1	-1E+10	1	-1E+10	1	-1E+10	1
4901784	154	C	09/22/2019	10:43	-132.729	43.414	0	1594.90	0	2.3560	0	36.6720	8	29.291	0	1576.158	0	33.6	4	10.4	4	-1E+10	1	-1E+10	1	-1E+10	1	-1E+10	1	-1E+10	1	-1E+10	1
4901784	154	C	09/22/2019	10:43	-132.729	43.414	0	1600.60	0	2.3500	0	36.6730	8	29.292	0	1581.770	0	33.9	4	10.5	4	-1E+10	1	-1E+10	1	-1E+10	1	-1E+10	1	-1E+10	1	-1E+10	1
4901784	154	C	09/22/2019	10:43	-132.729	43.414	0	1605.30	0	2.3450	0	36.6740	8	29.294	0	1586.397	0	34.3	4	10.6	4	-1E+10	1	-1E+10	1	-1E+10	1	-1E+10	1	-1E+10	1	-1E+10	1
4901784	154	C	09/22/2019	10:43	-132.729	43.414	0	1609.90	0	2.3330	0	36.6760	8	29.296	0	1590.925	0	34.6	4	10.7	4	-1E+10	1	-1E+10	1	-1E+10	1	-1E+10	1	-1E+10	1	-1E+10	1
4901784	154	C	09/22/2019	10:43	-132.729	43.414	0	1614.80	0	2.3270	0	36.6760	8	29.297	0	1595.749	0	35.0	4	10.8	4	-1E+10	1	-1E+10	1	-1E+10	1	-1E+10	1	-1E+10	1	-1E+10	1
4901784	154	C	09/22/2019	10:43	-132.729	43.414	0	1619.80	0	2.3190	0	36.6770	8	29.298	0	1600.671	0	35.4	4	10.9	4	-1E+10	1	-1E+10	1	-1E+10	1	-1E+10	1	-1E+10	1	-1E+10	1
4901784	154	C	09/22/2019	10:43	-132.729	43.414	0	1624.60	0	2.3070	0	36.6790	8	29.301	0	1605.396	0	35.8	4	11.0	4	-1E+10	1	-1E+10	1	-1E+10	1	-1E+10	1	-1E+10	1	-1E+10	1
4901784	154	C	09/22/2019	10:43	-132.729	43.414	0	1629.60	0	2.3030	0	36.6800	8	29.302	0	1610.318	0	36.1	4	11.1	4	-1E+10	1	-1E+10	1	-1E+10	1	-1E+10	1	-1E+10	1	-1E+10	1
4901784	154	C	09/22/2019	10:43	-132.729	43.414	0	1634.50	0	2.2950	0	36.6800	8	29.303	0	1615.142	0	36.4	4	11.2	4	-1E+10	1	-1E+10	1	-1E+10	1	-1E+10	1	-1E+10	1	-1E+10	1
4901784	154	C	09/22/2019	10:43	-132.729	43.414	0	1639.50	0	2.2870	0	36.6810	8	29.305	0	1620.063	0	36.8	4	11.3	4	-1E+10	1	-1E+10	1	-1E+10	1	-1E+10	1	-1E+10	1	-1E+10	1
4901784	154	C	09/22/2019	10:43	-132.729	43.414	0	1644.50	0	2.2760	0	36.6830	8	29.307	0	1624.985	0	37.2	4	11.5	4	-1E+10	1	-1E+10	1	-1E+10	1	-1E+10	1	-1E+10	1	-1E+10	1
4901784	154	C	09/22/2019	10:43	-132.729	43.414	0	1649.60	0	2.2690	0	36.6840	8	29.309	0	1630.005	0	37.5	4	11.6	4	-1E+10	1	-1E+10	1	-1E+10	1	-1E+10	1	-1E+10	1	-1E+10	1
4901784	154	C	09/22/2019	10:43	-132.729	43.414	0	1654.60	0	2.2610	0	36.6850	8	29.310	0	1634.926	0	37.9	4	11.7	4	-1E+10	1	-1E+10	1	-1E+10	1	-1E+10	1	-1E+10	1	-1E+10	1
4901784	154	C	09/22/2019	10:43	-132.729	43.414	0	1659.70	0	2.2550	0	36.6860	8	29.311	0	1639.946	0	38.1	4	11.8	4	-1E+10	1	-1E+10	1	-1E+10	1	-1E+10	1	-1E+10	1	-1E+10	1
4901784	154	C	09/22/2019	10:43	-132.729	43.414	0	1664.70	0	2.2510	0	36.6860	8	29.312	0	1644.867	0	38.4	4	11.8	4	-1E+10	1	-1E+10	1	-1E+10	1	-1E+10	1	-1E+10	1	-1E+10	1
4901784	154	C	09/22/2019	10:43	-132.729	43.414	0	1669.80	0	2.2440	0	36.6870	8	29.313	0	1649.886	0	38.7	4	11.9	4	-1E+10	1	-1E+10	1	-1E+10	1	-1E+10	1	-1E+10	1	-1E+10	1
4901784	154	C	09/22/2019	10:43	-132.729	43.414	0	1674.80	0	2.2310	0	36.6880	8	29.315	0	1654.807	0	39.1	4	12.1	4	-1E+10	1	-1E+10	1	-1E+10	1	-1E+10	1	-1E+10	1	-1E+10	1
4901784	154	C	09/22/2019	10:43	-132.729	43.414	0	1679.90	0	2.2240	0	36.6890	8	29.317	0	1659.826	0	39.5	4	12.2	4	-1E+10	1	-1E+10	1	-1E+10	1	-1E+10	1	-1E+10	1	-1E+10	1
4901784	154	C	09/22/2019	10:43	-132.729	43.414	0	1685.00	0	2.2180	0	36.6900	8	29.318	0	1664.845	0	39.8	4	12.3	4	-1E+10	1	-1E+10	1	-1E+10	1	-1E+10	1	-1E+10	1	-1E+10	1
4901784	154	C	09/22/2019	10:43	-132.729	43.414	0	1690.10	0	2.2130	0	36.6910	8	29.319	0	1669.864	0	40.1	4	12.3	4	-1E+10	1	-1E+10	1	-1E+10	1	-1E+10	1	-1E+10	1	-1E+10	1
4901784	154	C	09/22/2019	10:43	-132.729	43.414	0	1695.20	0	2.2070	0	36.6920	8	29.321	0	1674.883	0	40.4	4	12.4	4	-1E+10	1	-1E+10	1	-1E+10	1	-1E+10	1	-1E+10	1	-1E+10	1
4901784	154	C	09/22/2019	10:43	-132.729	43.414	0	1700.30	0	2.2010	0	36.6930	8	29.322	0	1679.902	0	40.8	4	12.6	4	-1E+10	1	-1E+10	1	-1E+10	1	-1E+10	1	-1E+10	1	-1E+10	1
4901784	154	C	09/22/2019	10:43	-132.729	43.414	0	1705.50	0	2.1930	0	36.6930	8	29.323	0	1685.019	0	41.2	4	12.7	4	-1E+10	1	-1E+10	1	-1E+10	1	-1E+10	1	-1E+10	1	-1E+10	1
4901784	154	C	09/22/2019	10:43	-132.729	43.414	0	1710.80	0	2.1830	0	36.6940	8	29.324	0	1690.234	0	41.7	4	12.8	4	-1E+10	1	-1E+10	1	-1E+10	1	-1E+10	1	-1E+10	1	-1E+10	1
4901784	154	C	09/22/2019	10:43	-132.729	43.414	0	1715.10	0	2.1770	0	36.6960	8	29.327	0	1694.465	0	42.0	4	12.9	4	-1E+10	1	-1E+10	1	-1E+10	1	-1E+10	1	-1E+10	1	-1E+10	1
4901784	154	C	09/22/2019	10:43	-132.729	43.414	0	1719.50	0	2.1690	0	36.6970	8	29.328	0	1698.794	0	42.4	4	13.0	4	-1E+10	1	-1E+10	1	-1E+10	1	-1E+10	1	-1E+10	1	-1E+10	1
4901784	154	C	09/22/2019	10:43	-132.729	43.414	0	1724.80	0	2.1640	0	36.6980	8	29.329	0	1704.009	0	42.7	4	13.1	4	-1E+10	1	-1E+10	1	-1E+10	1	-1E+10	1	-1E+10	1	-1E+10	1
4901784	154	C	09/22/2019	10:43	-132.729	43.414	0	1730.10	0	2.1590	0	36.6990	8	29.331	0	1709.224	0	42.9	4	13.2	4	-1E+10	1	-1E+10	1	-1E+10	1	-1E+10	1	-1E+10	1	-1E+10	1
4901784	154	C	09/22/2019	10:43	-132.729	43.414	0	1735.50	0	2.1540	0	36.7000	8	29.332	0	1714.537	0	43.2	4	13.3	4	-1E+10	1	-1E+10	1	-1E+10	1	-1E+10	1	-1E+10	1	-1E+10	1
4901784	154	C	09/22/2019	10:43	-132.729	43.414	0	1740.00	0	2.1480	0	36.7000	8	29.332	0	1718.965	0	43.5	4	13.4	4	-1E+10	1	-1E+10	1	-1E+10	1	-1E+10	1	-1E+10	1	-1E+10	1
4901784	154	C	09/22/2019	10:43	-132.729	43.414	0	1744.50	0	2.1430	0	36.7010	8	29.334	0	1723.392	0	43.9	4	13.5	4	-1E+10	1	-1E+10	1	-1E+10	1	-1E+10	1	-1E+10	1	-1E+10	1
4901784	154	C	09/22/2019	10:43	-132.729	43.414	0	1749.80	0	2.1370	0	36.7020	8	29.335	0	1728.606	0	44.2	4	13.6	4	-1E+10	1	-1E+10	1	-1E+10	1	-1E+10	1	-1E+10	1	-1E+10	1
4901784	154	C	09/22/2019	10:43	-132.729	43.414	0	1755.20	0	2.1320	0	36.7030	8	29.336	0	1733.919	0	44.5	4	13.7	4	-1E+10	1	-1E+10	1	-1E+10	1	-1E+10	1	-1E+10	1	-1E+10	1
4901784	154	C	09/22/2019	10:43	-132.729	43.414	0	1759.80	0	2.1280	0	36.7040	8	29.337	0	1738.444	0	44.8	4	13.8	4	-1E+10	1	-1E+10	1	-1E+10	1	-1E+10	1	-1E+10	1	-1E+10	1
4901784	154	C	09/22/2019	10:43	-132.729	43.414	0	1765.00	0	2.1240	0	36.7040	8	29.338	0	1743.560	0	45.0	4	13.8	4	-1E+10	1	-1E+10	1	-1E+10	1	-1E+10	1	-1E+10	1	-1E+10	1
4901784	154	C	09/22/2019	10:43	-132.729	43.414	0	1770.60	0	2.1190	0	36.7050	8	29.339	0	1749.069	0	45.4	4	14.0	4	-1E+10	1	-1E+10	1	-1E+10	1	-1E+10	1	-1E+10	1	-1E+10	1
4901784	154	C	09/22/2019	10:43	-132.729	43.414	0	1775.30	0	2.1120	0	36.7070	8	29.341	0	1753.692	0	45.8	4	14.1	4	-1E+10	1	-1E+10	1	-1E+10	1	-1E+10	1	-1E+10	1	-1E+10	1
4901784	154	C	09/22/2019	10:43	-132.729	43.414	0	1780.10	0	2.1090	0	36.7070	8	29.342	0	1758.414	0	46.0	4	14.1	4	-1E+10	1	-1E+10	1	-1E+10	1	-1E+10	1	-1E+10	1	-1E+10	1
4901784	154	C	09/22/2019	10:43	-132.729	43.414	0	1785.00	0	2.1040	0	36.7080	8	29.343	0	1763.234	0	46.3	4	14.2	4	-1E+10	1	-1E+10	1	-1E+10	1	-1E+10	1	-1E+10	1	-1E+10	1
4901784	154	C	09/22/2019	10:43	-132.729	43.414	0	1789.90	0	2.1010	0	36.7080	8	29.343	0	1768.054	0	46.6	4	14.3	4	-1E+10	1	-1E+10	1	-1E+10	1	-1E+10	1	-1E+10	1	-1E+10	1
4901784	154	C	09/22/2019	10:43	-132.729	43.414	0	1794.80	0	2.0960	0	36.7090	8	29.344	0	1772.873	0	47.0	4	14.4	4	-1E+10	1	-1E+10	1	-1E+10	1	-1E+10	1	-1E+10	1	-1E+10	1
4901784	154	C	09/22/2019	10:43	-132.729	43.414	0	1799.80	0	2.0910	0	36.7100	8	29.346	0	1777.791	0	47.3	4	14.5	4	-1E+10	1	-1E+10	1	-1E+10	1	-1E+10	1	-1E+10	1	-1E+10	1
4901784	154	C	09/22/2019	10:43	-132.729	43.414	0	1804.90	0	2.0840	0	36.7120	8	29.348	0	1782.808	0	47.6	4	14.6	4	-1E+10	1	-1E+10	1	-1E+10	1	-1E+10	1	-1E+10	1	-1E+10	1
4901784	154	C	09/22/2019	10:43	-132.729	43.414	0	1809.90	0	2.0790	0	36.7120	8	29.348	0	1787.725	0	47.9	4	14.7	4	-1E+10	1	-1E+10	1	-1E+10	1	-1E+10	1	-1E+10	1	-1E+10	1
4901784	154	C	09/22/2019	10:43	-132.729	43.414	0	1815.00	0	2.0760	0	36.7130	8	29.349	0	1792.741	0	48.2	4	14.8	4	-1E+10	1	-1E+10	1	-1E+10	1	-1E+10	1	-1E+10	1	-1E+10	1
4901784	154	C	09/22/2019	10:43	-132.729	43.414	0	1820.10	0	2.0730	0	36.7140	8	29.351	0	1797.757	0	48.5	4	14.9	4	-1E+10	1	-1E+10	1	-1E+10	1	-1E+10	1	-1E+10	1	-1E+10	1
4901784	154	C	09/22/2019	10:43	-132.729	43.414	0	1825.30	0	2.0680	0	36.7140	8	29.351	0	1802.871	0	48.8	4	15.0	4	-1E+10	1	-1E+10	1	-1E+10	1	-1E+10	1	-1E+10	1	-1E+10	1
4901784	154	C	09/22/2019	10:43	-132.729	43.414	0	1830.40	0	2.0620	0	36.7150	8	29.352	0	1807.887	0	49.2	4	15.1	4	-1E+10	1	-1E+10	1	-1E+10	1	-1E+10	1	-1E+10	1	-1E+10	1
4901784	154	C	09/22/2019	10:43	-132.729	43.414	0	1835.70	0	2.0540	0	36.7160	8	29.354	0	1813.099	0	49.6	4	15.2	4	-1E+10	1	-1E+10	1	-1E+10	1	-1E+10	1	-1E+10	1	-1E+10	1
4901784	154	C	09/22/2019	10:43	-132.729	43.414	0	1840.10	0	2.0500	0	36.7170	8	29.355	0	1817.426	0	49.9	4	15.3	4	-1E+10	1	-1E+10	1	-1E+10	1	-1E+10	1	-1E+10	1	-1E+10	1
4901784	154	C	09/22/2019	10:43	-132.729	43.414	0	1844.50	0	2.0460	0	36.7170	8	29.355	0	1821.753	0	50.2	4	15.4	4	-1E+10	1	-1E+10	1	-1E+10	1	-1E+10	1	-1E+10	1	-1E+10	1
4901784	154	C	09/22/2019	10:43	-132.729	43.414	0	1849.80	0	2.0390	0	36.7180	8	29.357	0	1826.965	0	50.4	4	15.5	4	-1E+10	1	-1E+10	1	-1E+10	1	-1E+10	1	-1E+10	1	-1E+10	1
4901784	154	C	09/22/2019	10:43	-132.729	43.414	0	1855.20	0	2.0340	0	36.7180	8	29.357	0	1832.275	0	50.7	4	15.6	4	-1E+10	1	-1E+10	1	-1E+10	1	-1E+10	1	-1E+10	1	-1E+10	1
4901784	154	C	09/22/2019	10:43	-132.729	43.414	0	1860.20	0	2.0310	0	36.7190	8	29.358	0	1837.192	0	51.0	4	15.6	4	-1E+10	1	-1E+10	1	-1E+10	1	-1E+10	1	-1E+10	1	-1E+10	1
4901784	154	C	09/22/2019	10:43	-132.729	43.414	0	1865.10	0	2.0240	0	36.7210	8	29.361	0	1842.010	0	51.4	4	15.8	4	-1E+10	1	-1E+10	1	-1E+10	1	-1E+10	1	-1E+10	1	-1E+10	1
4901784	154	C	09/22/2019	10:43	-132.729	43.414	0	1870.60	0	2.0170	0	36.7210	8	29.361	0	1847.418	0	51.9	4	15.9	4	-1E+10	1	-1E+10	1	-1E+10	1	-1E+10	1	-1E+10	1	-1E+10	1
4901784	154	C	09/22/2019	10:43	-132.729	43.414	0	1875.30	0	2.0140	0	36.7220	8	29.362	0	1852.039	0	52.1	4	16.0	4	-1E+10	1	-1E+10	1	-1E+10	1	-1E+10	1	-1E+10	1	-1E+10	1
4901784	154	C	09/22/2019	10:43	-132.729	43.414	0	1880.10	0	2.0110	0	36.7230	8	29.363	0	1856.759	0	52.4	4	16.1	4	-1E+10	1	-1E+10	1	-1E+10	1	-1E+10	1	-1E+10	1	-1E+10	1
4901784	154	C	09/22/2019	10:43	-132.729	43.414	0	1885.00	0	2.0070	0	36.7230	8	29.364	0	1861.577	0	52.7	4	16.2	4	-1E+10	1	-1E+10	1	-1E+10	1	-1E+10	1	-1E+10	1	-1E+10	1
4901784	154	C	09/22/2019	10:43	-132.729	43.414	0	1889.90	0	2.0020	0	36.7240	8	29.365	0	1866.394	0	53.0	4	16.2	4	-1E+10	1	-1E+10	1	-1E+10	1	-1E+10	1	-1E+10	1	-1E+10	1
4901784	154	C	09/22/2019	10:43	-132.729	43.414	0	1894.90	0	1.9980	0	36.7250	8	29.366	0	1871.310	0	53.4	4	16.4	4	-1E+10	1	-1E+10	1	-1E+10	1	-1E+10	1	-1E+10	1	-1E+10	1
4901784	154	C	09/22/2019	10:43	-132.729	43.414	0	1899.90	0	1.9920	0	36.7260	8	29.367	0	1876.226	0	53.7	4	16.5	4	-1E+10	1	-1E+10	1	-1E+10	1	-1E+10	1	-1E+10	1	-1E+10	1
4901784	154	C	09/22/2019	10:43	-132.729	43.414	0	1904.90	0	1.9860	0	36.7270	8	29.369	0	1881.141	0	54.0	4	16.6	4	-1E+10	1	-1E+10	1	-1E+10	1	-1E+10	1	-1E+10	1	-1E+10	1
4901784	154	C	09/22/2019	10:43	-132.729	43.414	0	1909.80	0	1.9820	0	36.7270	8	29.369	0	1885.959	0	54.3	4	16.6	4	-1E+10	1	-1E+10	1	-1E+10	1	-1E+10	1	-1E+10	1	-1E+10	1
4901784	154	C	09/22/2019	10:43	-132.729	43.414	0	1914.90	0	1.9750	0	36.7280	8	29.371	0	1890.972	0	54.7	4	16.7	4	-1E+10	1	-1E+10	1	-1E+10	1	-1E+10	1	-1E+10	1	-1E+10	1
4901784	154	C	09/22/2019	10:43	-132.729	43.414	0	1920.00	0	1.9720	0	36.7290	8	29.372	0	1895.986	0	54.9	4	16.8	4	-1E+10	1	-1E+10	1	-1E+10	1	-1E+10	1	-1E+10	1	-1E+10	1
4901784	154	C	09/22/2019	10:43	-132.729	43.414	0	1925.20	0	1.9690	0	36.7300	8	29.373	0	1901.098	0	55.1	4	16.9	4	-1E+10	1	-1E+10	1	-1E+10	1	-1E+10	1	-1E+10	1	-1E+10	1
4901784	154	C	09/22/2019	10:43	-132.729	43.414	0	1930.30	0	1.9670	0	36.7300	8	29.373	0	1906.111	0	55.4	4	17.0	4	-1E+10	1	-1E+10	1	-1E+10	1	-1E+10	1	-1E+10	1	-1E+10	1
4901784	154	C	09/22/2019	10:43	-132.729	43.414	0	1935.60	0	1.9630	0	36.7310	8	29.374	0	1911.321	0	55.7	4	17.0	4	-1E+10	1	-1E+10	1	-1E+10	1	-1E+10	1	-1E+10	1	-1E+10	1
4901784	154	C	09/22/2019	10:43	-132.729	43.414	0	1940.00	0	1.9600	0	36.7320	8	29.375	0	1915.646	0	55.9	4	17.1	4	-1E+10	1	-1E+10	1	-1E+10	1	-1E+10	1	-1E+10	1	-1E+10	1
4901784	154	C	09/22/2019	10:43	-132.729	43.414	0	1944.30	0	1.9570	0	36.7320	8	29.375	0	1919.872	0	56.1	4	17.2	4	-1E+10	1	-1E+10	1	-1E+10	1	-1E+10	1	-1E+10	1	-1E+10	1
4901784	154	C	09/22/2019	10:43	-132.729	43.414	0	1949.70	0	1.9540	0	36.7320	8	29.376	0	1925.180	0	56.4	4	17.3	4	-1E+10	1	-1E+10	1	-1E+10	1	-1E+10	1	-1E+10	1	-1E+10	1
4901784	154	C	09/22/2019	10:43	-132.729	43.414	0	1955.00	0	1.9500	0	36.7330	8	29.377	0	1930.390	0	56.7	4	17.4	4	-1E+10	1	-1E+10	1	-1E+10	1	-1E+10	1	-1E+10	1	-1E+10	1
4901784	154	C	09/22/2019	10:43	-132.729	43.414	0	1960.30	0	1.9460	0	36.7340	8	29.378	0	1935.599	0	57.0	4	17.4	4	-1E+10	1	-1E+10	1	-1E+10	1	-1E+10	1	-1E+10	1	-1E+10	1
4901784	154	C	09/22/2019	10:43	-132.729	43.414	0	1965.60	0	1.9420	0	36.7350	8	29.379	0	1940.808	0	57.3	4	17.5	4	-1E+10	1	-1E+10	1	-1E+10	1	-1E+10	1	-1E+10	1	-1E+10	1
4901784	154	C	09/22/2019	10:43	-132.729	43.414	0	1970.10	0	1.9390	0	36.7360	8	29.380	0	1945.230	0	57.5	4	17.6	4	-1E+10	1	-1E+10	1	-1E+10	1	-1E+10	1	-1E+10	1	-1E+10	1
4901784	154	C	09/22/2019	10:43	-132.729	43.414	0	1974.60	0	1.9370	0	36.7360	8	29.380	0	1949.653	0	57.6	4	17.6	4	-1E+10	1	-1E+10	1	-1E+10	1	-1E+10	1	-1E+10	1	-1E+10	1
4901784	154	C	09/22/2019	10:43	-132.729	43.414	0	1980.00	0	1.9360	0	36.7360	8	29.381	0	1954.960	0	57.8	4	17.7	4	-1E+10	1	-1E+10	1	-1E+10	1	-1E+10	1	-1E+10	1	-1E+10	1
4901784	154	C	09/22/2019	10:43	-132.729	43.414	0	1985.40	0	1.9340	0	36.7370	8	29.382	0	1960.267	0	57.9	4	17.7	4	-1E+10	1	-1E+10	1	-1E+10	1	-1E+10	1	-1E+10	1	-1E+10	1
4901784	154	C	09/22/2019	10:43	-132.729	43.414	0	1989.90	0	1.9320	0	36.7370	8	29.382	0	1964.689	0	58.1	4	17.8	4	-1E+10	1	-1E+10	1	-1E+10	1	-1E+10	1	-1E+10	1	-1E+10	1
4901784	154	C	09/22/2019	10:43	-132.729	43.414	0	1994.50	0	1.9300	0	36.7380	8	29.383	0	1969.210	0	58.2	4	17.8	4	-1E+10	1	-1E+10	1	-1E+10	1	-1E+10	1	-1E+10	1	-1E+10	1
4901784	154	C	09/22/2019	10:43	-132.729	43.414	0	2000.00	0	1.9290	0	36.7380	8	29.383	0	1974.615	0	58.4	4	17.9	4	-1E+10	1	-1E+10	1	-1E+10	1	-1E+10	1	-1E+10	1	-1E+10	1
4901784	154	C	09/22/2019	10:43	-132.729	43.414	0	2005.00	0	1.9270	0	36.7380	8	29.383	0	1979.528	0	58.6	4	17.9	4	-1E+10	1	-1E+10	1	-1E+10	1	-1E+10	1	-1E+10	1	-1E+10	1
4901784	154	C	09/22/2019	10:43	-132.729	43.414	0	2010.10	0	1.9250	0	36.7390	8	29.384	0	1984.539	0	58.8	4	18.0	4	-1E+10	1	-1E+10	1	-1E+10	1	-1E+10	1	-1E+10	1	-1E+10	1
4901784	154	C	09/22/2019	10:43	-132.729	43.414	0	2015.70	0	1.9210	0	36.7400	8	29.385	0	1990.042	0	59.1	4	18.1	4	-1E+10	1	-1E+10	1	-1E+10	1	-1E+10	1	-1E+10	1	-1E+10	1
4901784	154	C	09/22/2019	10:43	-132.729	43.414	0	2020.00	0	1.9180	0	36.7410	8	29.386	0	1994.267	0	59.3	4	18.1	4	-1E+10	1	-1E+10	1	-1E+10	1	-1E+10	1	-1E+10	1	-1E+10	1
4901784	154	C	09/22/2019	10:43	-132.729	43.414	0																										
4901784	155	C	10/02/2019	10:51	-132.787	43.477	0	2.10	0	17.9110	0	34.6080	8	24.995	0	2.083	0	227.1	4	96.7	4	-1E+10	1	-1E+10	1	-1E+10	1	-1E+10	1	-1E+10	1	-1E+10	1
4901784	155	C	10/02/2019	10:51	-132.787	43.477	0	4.10	0	17.9140	0	34.6030	8	24.990	0	4.067	0	227.0	4	96.6	4	-1E+10	1	-1E+10	1	-1E+10	1	-1E+10	1	-1E+10	1	-1E+10	1
4901784	155	C	10/02/2019	10:51	-132.787	43.477	0	6.20	0	17.9130	0	34.6080	8	24.994	0	6.150	0	226.9	4	96.6	4	-1E+10	1	-1E+10	1	-1E+10	1	-1E+10	1	-1E+10	1	-1E+10	1
4901784	155	C	10/02/2019	10:51	-132.787	43.477	0	8.20	0	17.9150	0	34.6080	8	24.994	0	8.134	0	226.9	4	96.6	4	-1E+10	1	-1E+10	1	-1E+10	1	-1E+10	1	-1E+10	1	-1E+10	1
4901784	155	C	10/02/2019	10:51	-132.787	43.477	0	10.30	0	17.9140	0	34.6070	8	24.994	0	10.218	0	226.9	4	96.6	4	-1E+10	1	-1E+10	1	-1E+10	1	-1E+10	1	-1E+10	1	-1E+10	1
4901784	155	C	10/02/2019	10:51	-132.787	43.477	0	12.10	0	17.9160	0	34.6070	8	24.993	0	12.003	0	226.6	4	96.4	4	-1E+10	1	-1E+10	1	-1E+10	1	-1E+10	1	-1E+10	1	-1E+10	1
4901784	155	C	10/02/2019	10:51	-132.787	43.477	0	13.90	0	17.9160	0	34.6060	8	24.993	0	13.789	0	226.7	4	96.5	4	-1E+10	1	-1E+10	1	-1E+10	1	-1E+10	1	-1E+10	1	-1E+10	1
4901784	155	C	10/02/2019	10:51	-132.787	43.477	0	15.80	0	17.9160	0	34.6050	8	24.992	0	15.673	0	226.7	4	96.5	4	-1E+10	1	-1E+10	1	-1E+10	1	-1E+10	1	-1E+10	1	-1E+10	1
4901784	155	C	10/02/2019	10:51	-132.787	43.477	0	17.70	0	17.9120	0	34.6030	8	24.991	0	17.558	0	226.6	4	96.4	4	-1E+10	1	-1E+10	1	-1E+10	1	-1E+10	1	-1E+10	1	-1E+10	1
4901784	155	C	10/02/2019	10:51	-132.787	43.477	0	20.10	0	17.9050	0	34.6020	8	24.992	0	19.939	0	226.8	4	96.5	4	-1E+10	1	-1E+10	1	-1E+10	1	-1E+10	1	-1E+10	1	-1E+10	1
4901784	155	C	10/02/2019	10:51	-132.787	43.477	0	20.60	0	17.9020	0	34.6020	8	24.993	0	20.435	0	226.7	4	96.5	4	-1E+10	1	-1E+10	1	-1E+10	1	-1E+10	1	-1E+10	1	-1E+10	1
4901784	155	C	10/02/2019	10:51	-132.787	43.477	0	22.40	0	17.8910	0	34.6000	8	24.994	0	22.220	0	227.0	4	96.6	4	-1E+10	1	-1E+10	1	-1E+10	1	-1E+10	1	-1E+10	1	-1E+10	1
4901784	155	C	10/02/2019	10:51	-132.787	43.477	0	24.10	0	17.8780	0	34.5990	8	24.997	0	23.906	0	227.4	4	96.7	4	-1E+10	1	-1E+10	1	-1E+10	1	-1E+10	1	-1E+10	1	-1E+10	1
4901784	155	C	10/02/2019	10:51	-132.787	43.477	0	25.70	0	17.8950	0	34.5910	8	24.987	0	25.493	0	228.0	4	97.0	4	-1E+10	1	-1E+10	1	-1E+10	1	-1E+10	1	-1E+10	1	-1E+10	1
4901784	155	C	10/02/2019	10:51	-132.787	43.477	0	27.10	0	17.8910	0	34.5860	8	24.984	0	26.882	0	228.6	4	97.3	4	-1E+10	1	-1E+10	1	-1E+10	1	-1E+10	1	-1E+10	1	-1E+10	1
4901784	155	C	10/02/2019	10:51	-132.787	43.477	0	28.50	0	17.8440	0	34.5790	8	24.990	0	28.271	0	230.4	4	97.9	4	-1E+10	1	-1E+10	1	-1E+10	1	-1E+10	1	-1E+10	1	-1E+10	1
4901784	155	C	10/02/2019	10:51	-132.787	43.477	0	30.00	0	17.8540	0	34.5530	8	24.968	0	29.758	0	233.3	4	99.2	4	-1E+10	1	-1E+10	1	-1E+10	1	-1E+10	1	-1E+10	1	-1E+10	1
4901784	155	C	10/02/2019	10:51	-132.787	43.477	0	31.10	0	17.8330	0	34.5130	8	24.942	0	30.850	0	237.8	4	101.0	4	-1E+10	1	-1E+10	1	-1E+10	1	-1E+10	1	-1E+10	1	-1E+10	1
4901784	155	C	10/02/2019	10:51	-132.787	43.477	0	32.20	0	17.5330	0	34.4860	8	24.995	0	31.941	0	244.5	4	103.2	4	-1E+10	1	-1E+10	1	-1E+10	1	-1E+10	1	-1E+10	1	-1E+10	1
4901784	155	C	10/02/2019	10:51	-132.787	43.477	0	33.50	0	16.3490	0	34.5340	8	25.311	0	33.230	0	253.3	4	104.6	4	-1E+10	1	-1E+10	1	-1E+10	1	-1E+10	1	-1E+10	1	-1E+10	1
4901784	155	C	10/02/2019	10:51	-132.787	43.477	0	35.00	0	14.1250	0	34.6080	8	25.860	0	34.718	0	266.8	4	105.5	4	-1E+10	1	-1E+10	1	-1E+10	1	-1E+10	1	-1E+10	1	-1E+10	1
4901784	155	C	10/02/2019	10:51	-132.787	43.477	0	36.60	0	13.7840	0	34.6270	8	25.946	0	36.305	0	267.8	4	105.2	4	-1E+10	1	-1E+10	1	-1E+10	1	-1E+10	1	-1E+10	1	-1E+10	1
4901784	155	C	10/02/2019	10:51	-132.787	43.477	0	38.10	0	13.5950	0	34.6270	8	25.985	0	37.793	0	267.7	4	104.8	4	-1E+10	1	-1E+10	1	-1E+10	1	-1E+10	1	-1E+10	1	-1E+10	1
4901784	155	C	10/02/2019	10:51	-132.787	43.477	0	39.70	0	13.3150	0	34.6400	8	26.052	0	39.379	0	267.6	4	104.1	4	-1E+10	1	-1E+10	1	-1E+10	1	-1E+10	1	-1E+10	1	-1E+10	1
4901784	155	C	10/02/2019	10:51	-132.787	43.477	0	41.40	0	13.2920	0	34.6320	8	26.051	0	41.066	0	266.7	4	103.8	4	-1E+10	1	-1E+10	1	-1E+10	1	-1E+10	1	-1E+10	1	-1E+10	1
4901784	155	C	10/02/2019	10:51	-132.787	43.477	0	43.10	0	13.1530	0	34.6330	8	26.080	0	42.752	0	265.5	4	103.0	4	-1E+10	1	-1E+10	1	-1E+10	1	-1E+10	1	-1E+10	1	-1E+10	1
4901784	155	C	10/02/2019	10:51	-132.787	43.477	0	44.80	0	13.0030	0	34.6390	8	26.114	0	44.438	0	265.0	4	102.5	4	-1E+10	1	-1E+10	1	-1E+10	1	-1E+10	1	-1E+10	1	-1E+10	1
4901784	155	C	10/02/2019	10:51	-132.787	43.477	0	46.70	0	12.9520	0	34.6290	8	26.117	0	46.322	0	264.2	4	102.1	4	-1E+10	1	-1E+10	1	-1E+10	1	-1E+10	1	-1E+10	1	-1E+10	1
4901784	155	C	10/02/2019	10:51	-132.787	43.477	0	48.40	0	12.9110	0	34.6210	8	26.119	0	48.008	0	262.5	4	101.3	4	-1E+10	1	-1E+10	1	-1E+10	1	-1E+10	1	-1E+10	1	-1E+10	1
4901784	155	C	10/02/2019	10:51	-132.787	43.477	0	50.20	0	12.7670	0	34.6060	8	26.136	0	49.793	0	260.8	4	100.4	4	-1E+10	1	-1E+10	1	-1E+10	1	-1E+10	1	-1E+10	1	-1E+10	1
4901784	155	C	10/02/2019	10:51	-132.787	43.477	0	52.00	0	12.2860	0	34.6250	8	26.245	0	51.579	0	261.6	4	99.7	4	-1E+10	1	-1E+10	1	-1E+10	1	-1E+10	1	-1E+10	1	-1E+10	1
4901784	155	C	10/02/2019	10:51	-132.787	43.477	0	53.80	0	12.2280	0	34.6210	8	26.253	0	53.364	0	261.1	4	99.4	4	-1E+10	1	-1E+10	1	-1E+10	1	-1E+10	1	-1E+10	1	-1E+10	1
4901784	155	C	10/02/2019	10:51	-132.787	43.477	0	55.60	0	12.1660	0	34.6150	8	26.260	0	55.149	0	259.9	4	98.8	4	-1E+10	1	-1E+10	1	-1E+10	1	-1E+10	1	-1E+10	1	-1E+10	1
4901784	155	C	10/02/2019	10:51	-132.787	43.477	0	57.40	0	12.0110	0	34.6120	8	26.288	0	56.934	0	259.1	4	98.2	4	-1E+10	1	-1E+10	1	-1E+10	1	-1E+10	1	-1E+10	1	-1E+10	1
4901784	155	C	10/02/2019	10:51	-132.787	43.477	0	59.00	0	11.9540	0	34.6060	8	26.294	0	58.521	0	258.1	4	97.7	4	-1E+10	1	-1E+10	1	-1E+10	1	-1E+10	1	-1E+10	1	-1E+10	1
4901784	155	C	10/02/2019	10:51	-132.787	43.477	0	60.80	0	11.7950	0	34.6020	8	26.321	0	60.306	0	256.9	4	96.9	4	-1E+10	1	-1E+10	1	-1E+10	1	-1E+10	1	-1E+10	1	-1E+10	1
4901784	155	C	10/02/2019	10:51	-132.787	43.477	0	62.50	0	11.6030	0	34.5990	8	26.354	0	61.992	0	255.5	4	96.0	4	-1E+10	1	-1E+10	1	-1E+10	1	-1E+10	1	-1E+10	1	-1E+10	1
4901784	155	C	10/02/2019	10:51	-132.787	43.477	0	64.20	0	11.4700	0	34.5970	8	26.378	0	63.678	0	254.4	4	95.3	4	-1E+10	1	-1E+10	1	-1E+10	1	-1E+10	1	-1E+10	1	-1E+10	1
4901784	155	C	10/02/2019	10:51	-132.787	43.477	0	65.90	0	11.3620	0	34.6040	8	26.403	0	65.364	0	252.7	4	94.4	4	-1E+10	1	-1E+10	1	-1E+10	1	-1E+10	1	-1E+10	1	-1E+10	1
4901784	155	C	10/02/2019	10:51	-132.787	43.477	0	67.60	0	11.2950	0	34.6010	8	26.413	0	67.050	0	251.8	4	94.0	4	-1E+10	1	-1E+10	1	-1E+10	1	-1E+10	1	-1E+10	1	-1E+10	1
4901784	155	C	10/02/2019	10:51	-132.787	43.477	0	69.40	0	11.2510	0	34.5950	8	26.417	0	68.835	0	251.6	4	93.8	4	-1E+10	1	-1E+10	1	-1E+10	1	-1E+10	1	-1E+10	1	-1E+10	1
4901784	155	C	10/02/2019	10:51	-132.787	43.477	0	71.20	0	11.1360	0	34.5960	8	26.438	0	70.620	0	251.1	4	93.4	4	-1E+10	1	-1E+10	1	-1E+10	1	-1E+10	1	-1E+10	1	-1E+10	1
4901784	155	C	10/02/2019	10:51	-132.787	43.477	0	73.00	0	11.0120	0	34.5950	8	26.460	0	72.405	0	251.0	4	93.1	4	-1E+10	1	-1E+10	1	-1E+10	1	-1E+10	1	-1E+10	1	-1E+10	1
4901784	155	C	10/02/2019	10:51	-132.787	43.477	0	74.80	0	10.9470	0	34.5920	8	26.469	0	74.190	0	250.6	4	92.9	4	-1E+10	1	-1E+10	1	-1E+10	1	-1E+10	1	-1E+10	1	-1E+10	1
4901784	155	C	10/02/2019	10:51	-132.787	43.477	0	76.50	0	10.7960	0	34.5950	8	26.499	0	75.876	0	250.7	4	92.6	4	-1E+10	1	-1E+10	1	-1E+10	1	-1E+10	1	-1E+10	1	-1E+10	1
4901784	155	C	10/02/2019	10:51	-132.787	43.477	0	78.30	0	10.7130	0	34.5870	8	26.507	0	77.661	0	250.7	4	92.4	4	-1E+10	1	-1E+10	1	-1E+10	1	-1E+10	1	-1E+10	1	-1E+10	1
4901784	155	C	10/02/2019	10:51	-132.787	43.477	0	80.10	0	10.6700	0	34.5840	8	26.513	0	79.446	0	249.6	4	91.9	4	-1E+10	1	-1E+10	1	-1E+10	1	-1E+10	1	-1E+10	1	-1E+10	1
4901784	155	C	10/02/2019	10:51	-132.787	43.477	0	81.80	0	10.5930	0	34.5890	8	26.530	0	81.131	0	248.2	4	91.3	4	-1E+10	1	-1E+10	1	-1E+10	1	-1E+10	1	-1E+10	1	-1E+10	1
4901784	155	C	10/02/2019	10:51	-132.787	43.477	0	83.50	0	10.5810	0	34.5930	8	26.536	0	82.817	0	247.6	4	91.0	4	-1E+10	1	-1E+10	1	-1E+10	1	-1E+10	1	-1E+10	1	-1E+10	1
4901784	155	C	10/02/2019	10:51	-132.787	43.477	0	85.20	0	10.5430	0	34.5930	8	26.542	0	84.503	0	247.1	4	90.8	4	-1E+10	1	-1E+10	1	-1E+10	1	-1E+10	1	-1E+10	1	-1E+10	1
4901784	155	C	10/02/2019	10:51	-132.787	43.477	0	87.00	0	10.4280	0	34.5840	8	26.555	0	86.288	0	247.1	4	90.5	4	-1E+10	1	-1E+10	1	-1E+10	1	-1E+10	1	-1E+10	1	-1E+10	1
4901784	155	C	10/02/2019	10:51	-132.787	43.477	0	88.70	0	10.3430	0	34.5800	8	26.567	0	87.973	0	247.0	4	90.3	4	-1E+10	1	-1E+10	1	-1E+10	1	-1E+10	1	-1E+10	1	-1E+10	1
4901784	155	C	10/02/2019	10:51	-132.787	43.477	0	90.40	0	10.2690	0	34.5760	8	26.577	0	89.659	0	246.6	4	90.0	4	-1E+10	1	-1E+10	1	-1E+10	1	-1E+10	1	-1E+10	1	-1E+10	1
4901784	155	C	10/02/2019	10:51	-132.787	43.477	0	92.20	0	10.2510	0	34.5720	8	26.577	0	91.444	0	246.2	4	89.9	4	-1E+10	1	-1E+10	1	-1E+10	1	-1E+10	1	-1E+10	1	-1E+10	1
4901784	155	C	10/02/2019	10:51	-132.787	43.477	0	94.00	0	10.1080	0	34.5630	8	26.595	0	93.229	0	245.9	4	89.5	4	-1E+10	1	-1E+10	1	-1E+10	1	-1E+10	1	-1E+10	1	-1E+10	1
4901784	155	C	10/02/2019	10:51	-132.787	43.477	0	95.70	0	10.0760	0	34.5650	8	26.602	0	94.914	0	245.6	4	89.3	4	-1E+10	1	-1E+10	1	-1E+10	1	-1E+10	1	-1E+10	1	-1E+10	1
4901784	155	C	10/02/2019	10:51	-132.787	43.477	0	97.50	0	10.0130	0	34.5620	8	26.610	0	96.699	0	245.0	4	89.0	4	-1E+10	1	-1E+10	1	-1E+10	1	-1E+10	1	-1E+10	1	-1E+10	1
4901784	155	C	10/02/2019	10:51	-132.787	43.477	0	99.20	0	9.9610	0	34.5640	8	26.620	0	98.385	0	244.1	4	88.5	4	-1E+10	1	-1E+10	1	-1E+10	1	-1E+10	1	-1E+10	1	-1E+10	1
4901784	155	C	10/02/2019	10:51	-132.787	43.477	0	102.80	0	9.8880	0	34.5780	8	26.644	0	101.954	0	242.2	4	87.7	4	-1E+10	1	-1E+10	1	-1E+10	1	-1E+10	1	-1E+10	1	-1E+10	1
4901784	155	C	10/02/2019	10:51	-132.787	43.477	0	104.50	0	9.8780	0	34.5780	8	26.646	0	103.640	0	241.1	4	87.3	4	-1E+10	1	-1E+10	1	-1E+10	1	-1E+10	1	-1E+10	1	-1E+10	1
4901784	155	C	10/02/2019	10:51	-132.787	43.477	0	107.10	0	9.7300	0	34.5810	8	26.673	0	106.218	0	239.8	4	86.6	4	-1E+10	1	-1E+10	1	-1E+10	1	-1E+10	1	-1E+10	1	-1E+10	1
4901784	155	C	10/02/2019	10:51	-132.787	43.477	0	109.70	0	9.4960	0	34.6060	8	26.731	0	108.796	0	238.4	4	85.6	4	-1E+10	1	-1E+10	1	-1E+10	1	-1E+10	1	-1E+10	1	-1E+10	1
4901784	155	C	10/02/2019	10:51	-132.787	43.477	0	112.00	0	9.3810	0	34.6250	8	26.765	0	111.076	0	236.6	4	84.8	4	-1E+10	1	-1E+10	1	-1E+10	1	-1E+10	1	-1E+10	1	-1E+10	1
4901784	155	C	10/02/2019	10:51	-132.787	43.477	0	114.50	0	9.1360	0	34.6660	8	26.837	0	113.555	0	234.9	4	83.7	4	-1E+10	1	-1E+10	1	-1E+10	1	-1E+10	1	-1E+10	1	-1E+10	1
4901784	155	C	10/02/2019	10:51	-132.787	43.477	0	117.50	0	9.0000	0	34.6920	8	26.879	0	116.529	0	232.2	4	82.6	4	-1E+10	1	-1E+10	1	-1E+10	1	-1E+10	1	-1E+10	1	-1E+10	1
4901784	155	C	10/02/2019	10:51	-132.787	43.477	0	119.80	0	8.7270	0	34.8010	8	27.008	0	118.810	0	230.7	4	81.6	4	-1E+10	1	-1E+10	1	-1E+10	1	-1E+10	1	-1E+10	1	-1E+10	1
4901784	155	C	10/02/2019	10:51	-132.787	43.477	0	122.20	0	8.6700	0	34.8240	8	27.035	0	121.189	0	229.5	4	81.1	4	-1E+10	1	-1E+10	1	-1E+10	1	-1E+10	1	-1E+10	1	-1E+10	1
4901784	155	C	10/02/2019	10:51	-132.787	43.477	0	125.40	0	8.6310	0	34.8510	8	27.062	0	124.362	0	227.4	4	80.3	4	-1E+10	1	-1E+10	1	-1E+10	1	-1E+10	1	-1E+10	1	-1E+10	1
4901784	155	C	10/02/2019	10:51	-132.787	43.477	0	127.80	0	8.4890	0	34.9120	8	27.132	0	126.741	0	225.9	4	79.6	4	-1E+10	1	-1E+10	1	-1E+10	1	-1E+10	1	-1E+10	1	-1E+10	1
4901784	155	C	10/02/2019	10:51	-132.787	43.477	0	130.20	0	8.3910	0	34.9560	8	27.182	0	129.121	0	224.9	4	79.1	4	-1E+10	1	-1E+10	1	-1E+10	1	-1E+10	1	-1E+10	1	-1E+10	1
4901784	155	C	10/02/2019	10:51	-132.787	43.477	0	132.70	0	8.3390	0	34.9910	8	27.218	0	131.599	0	223.9	4	78.6	4	-1E+10	1	-1E+10	1	-1E+10	1	-1E+10	1	-1E+10	1	-1E+10	1
4901784	155	C	10/02/2019	10:51	-132.787	43.477	0	135.20	0	8.3280	0	35.0000	8	27.226	0	134.077	0	222.2	4	78.0	4	-1E+10	1	-1E+10	1	-1E+10	1	-1E+10	1	-1E+10	1	-1E+10	1
4901784	155	C	10/02/2019	10:51	-132.787	43.477	0	137.80	0	8.1190	0	35.1220	8	27.354	0	136.655	0	221.0	4	77.3	4	-1E+10	1	-1E+10	1	-1E+10	1	-1E+10	1	-1E+10	1	-1E+10	1
4901784	155	C	10/02/2019	10:51	-132.787	43.477	0	139.50	0	8.1050	0	35.1480	8	27.377	0	138.340	0	220.6	4	77.2	4	-1E+10	1	-1E+10	1	-1E+10	1	-1E+10	1	-1E+10	1	-1E+10	1
4901784	155	C	10/02/2019	10:51	-132.787	43.477	0	141.90	0	8.0810	0	35.1780	8	27.404	0	140.720	0	219.7	4	76.8	4	-1E+10	1	-1E+10	1	-1E+10	1	-1E+10	1	-1E+10	1	-1E+10	1
4901784	155	C	10/02/2019	10:51	-132.787	43.477	0	144.50	0	8.0480	0	35.2200	8	27.442	0	143.297	0	218.5	4	76.4	4	-1E+10	1	-1E+10	1	-1E+10	1	-1E+10	1	-1E+10	1	-1E+10	1
4901784	155	C	10/02/2019	10:51	-132.787	43.477	0	147.40	0	8.0130	0	35.2790	8	27.494	0	146.172	0	217.3	4	75.9	4	-1E+10	1	-1E+10	1	-1E+10	1	-1E+10	1	-1E+10	1	-1E+10	1
4901784	155	C	10/02/2019	10:51	-132.787	43.477	0	149.80	0	7.9940	0	35.3090	8	27.520	0	148.551	0	216.4	4	75.6	4	-1E+10	1	-1E+10	1	-1E+10	1	-1E+10	1	-1E+10	1	-1E+10	1
4901784	155	C	10/02/2019	10:51	-132.787	43.477	0	152.20	0	7.9800	0	35.3300	8	27.539	0	150.930	0	214.9	4	75.1	4	-1E+10	1	-1E+10	1	-1E+10	1	-1E+10	1	-1E+10	1	-1E+10	1
4901784	155	C	10/02/2019	10:51	-132.787	43.477	0	154.70	0	7.9570	0	35.3930	8	27.592	0	153.408	0	213.7	4	74.6	4	-1E+10	1	-1E+10	1	-1E+10	1	-1E+10	1	-1E+10	1	-1E+10	1
4901784	155	C	10/02/2019	10:51	-132.787	43.477	0	157.20	0	7.9630	0	35.4650	8	27.648	0	155.886	0	212.1	4	74.1	4	-1E+10	1	-1E+10	1	-1E+10	1	-1E+10	1	-1E+10	1	-1E+10	1
4901784	155	C	10/02/2019	10:51	-132.787	43.477	0	159.70	0	7.9600	0	35.5040	8	27.679	0	158.365	0	210.7	4	73.6	4	-1E+10	1	-1E+10	1	-1E+10	1	-1E+10	1	-1E+10	1	-1E+10	1
4901784	155	C	10/02/2019	10:51	-132.787	43.477	0	162.30	0	8.0090	0	35.5420	8	27.701	0	160.942	0	208.6	4	73.0	4	-1E+10	1	-1E+10	1	-1E+10	1	-1E+10	1	-1E+10	1	-1E+10	1
4901784	155	C	10/02/2019	10:51	-132.787	43.477	0	165.10	0	8.0270	0	35.5870	8	27.734	0	163.717	0	205.9	4	72.1	4	-1E+10	1	-1E+10	1	-1E+10	1	-1E+10	1	-1E+10	1	-1E+10	1
4901784	155	C	10/02/2019	10:51	-132.787	43.477	0	166.90	0	7.9910	0	35.6430	8	27.783	0	165.502	0	203.8	4	71.3	4	-1E+10	1	-1E+10	1	-1E+10	1	-1E+10	1	-1E+10	1	-1E+10	1
4901784	155	C	10/02/2019	10:51	-132.787	43.477	0	169.70	0	7.9770	0	35.6680	8	27.805	0	168.277	0	200.6	4	70.2	4	-1E+10	1	-1E+10	1	-1E+10	1	-1E+10	1	-1E+10	1	-1E+10	1
4901784	155	C	10/02/2019	10:51	-132.787	43.477	0	173.00	0	7.9800	0	35.7060	8	27.835	0	171.548	0	195.8	4	68.6	4	-1E+10	1	-1E+10	1	-1E+10	1	-1E+10	1	-1E+10	1	-1E+10	1
4901784	155	C	10/02/2019	10:51	-132.787	43.477	0	174.90	0	7.9650	0	35.7280	8	27.854	0	173.431	0	192.8	4	67.5	4	-1E+10	1	-1E+10	1	-1E+10	1	-1E+10	1	-1E+10	1	-1E+10	1
4901784	155	C	10/02/2019	10:51	-132.787	43.477	0	177.30	0	8.0510	0	35.7630	8	27.869	0	175.810	0	188.4	4	66.1	4	-1E+10	1	-1E+10	1	-1E+10	1	-1E+10	1	-1E+10	1	-1E+10	1
4901784	155	C	10/02/2019	10:51	-132.787	43.477	0	180.30	0	8.0660	0	35.8070	8	27.901	0	178.783	0	185.5	4	65.1	4	-1E+10	1	-1E+10	1	-1E+10	1	-1E+10	1	-1E+10	1	-1E+10	1
4901784	155	C	10/02/2019	10:51	-132.787	43.477	0	182.60	0	8.0770	0	35.8570	8	27.939	0	181.063	0	183.1	4	64.3	4	-1E+10	1	-1E+10	1	-1E+10	1	-1E+10	1	-1E+10	1	-1E+10	1
4901784	155	C	10/02/2019	10:51	-132.787	43.477	0	185.10	0	8.0550	0	35.8860	8	27.965	0	183.541	0	180.9	4	63.5	4	-1E+10	1	-1E+10	1	-1E+10	1	-1E+10	1	-1E+10	1	-1E+10	1
4901784	155	C	10/02/2019	10:51	-132.787	43.477	0	187.50	0	8.0630	0	35.9120	8	27.984	0	185.920	0	178.7	4	62.8	4	-1E+10	1	-1E+10	1	-1E+10	1	-1E+10	1	-1E+10	1	-1E+10	1
4901784	155	C	10/02/2019	10:51	-132.787	43.477	0	190.00	0	8.0790	0	35.9370	8	28.001	0	188.397	0	175.9	4	61.8	4	-1E+10	1	-1E+10	1	-1E+10	1	-1E+10	1	-1E+10	1	-1E+10	1
4901784	155	C	10/02/2019	10:51	-132.787	43.477	0	192.40	0	8.0780	0	35.9630	8	28.022	0	190.776	0	173.2	4	60.9	4	-1E+10	1	-1E+10	1	-1E+10	1	-1E+10	1	-1E+10	1	-1E+10	1
4901784	155	C	10/02/2019	10:51	-132.787	43.477	0	194.90	0	8.0740	0	35.9810	8	28.037	0	193.254	0	171.3	4	60.2	4	-1E+10	1	-1E+10	1	-1E+10	1	-1E+10	1	-1E+10	1	-1E+10	1
4901784	155	C	10/02/2019	10:51	-132.787	43.477	0	197.50	0	8.0930	0	36.0080	8	28.055	0	195.831	0	170.0	4	59.8	4	-1E+10	1	-1E+10	1	-1E+10	1	-1E+10	1	-1E+10	1	-1E+10	1
4901784	155	C	10/02/2019	10:51	-132.787	43.477	0	200.00	0	8.0920	0	36.0160	8	28.062	0	198.308	0	168.9	4	59.4	4	-1E+10	1	-1E+10	1	-1E+10	1	-1E+10	1	-1E+10	1	-1E+10	1
4901784	155	C	10/02/2019	10:51	-132.787	43.477	0	202.60	0	8.0850	0	36.0190	8	28.065	0	200.885	0	167.2	4	58.8	4	-1E+10	1	-1E+10	1	-1E+10	1	-1E+10	1	-1E+10	1	-1E+10	1
4901784	155	C	10/02/2019	10:51	-132.787	43.477	0	205.20	0	8.0930	0	36.0260	8	28.069	0	203.462	0	164.8	4	58.0	4	-1E+10	1	-1E+10	1	-1E+10	1	-1E+10	1	-1E+10	1	-1E+10	1
4901784	155	C	10/02/2019	10:51	-132.787	43.477	0	207.60	0	8.0310	0	36.0340	8	28.085	0	205.840	0	161.9	4	56.9	4	-1E+10	1	-1E+10	1	-1E+10	1	-1E+10	1	-1E+10	1	-1E+10	1
4901784	155	C	10/02/2019	10:51	-132.787	43.477	0	210.20	0	8.0010	0	36.0410	8	28.095	0	208.417	0	161.4	4	56.7	4	-1E+10	1	-1E+10	1	-1E+10	1	-1E+10	1	-1E+10	1	-1E+10	1
4901784	155	C	10/02/2019	10:51	-132.787	43.477	0	212.70	0	7.9660	0	36.0490	8	28.107	0	210.894	0	160.8	4	56.4	4	-1E+10	1	-1E+10	1	-1E+10	1	-1E+10	1	-1E+10	1	-1E+10	1
4901784	155	C	10/02/2019	10:51	-132.787	43.477	0	214.50	0	7.9560	0	36.0510	8	28.110	0	212.678	0	160.2	4	56.2	4	-1E+10	1	-1E+10	1	-1E+10	1	-1E+10	1	-1E+10	1	-1E+10	1
4901784	155	C	10/02/2019	10:51	-132.787	43.477	0	217.10	0	7.9460	0	36.0540	8	28.114	0	215.255	0	159.7	4	56.0	4	-1E+10	1	-1E+10	1	-1E+10	1	-1E+10	1	-1E+10	1	-1E+10	1
4901784	155	C	10/02/2019	10:51	-132.787	43.477	0	219.80	0	7.9430	0	36.0610	8	28.120	0	217.930	0	159.1	4	55.8	4	-1E+10	1	-1E+10	1	-1E+10	1	-1E+10	1	-1E+10	1	-1E+10	1
4901784	155	C	10/02/2019	10:51	-132.787	43.477	0	222.50	0	7.8980	0	36.0600	8	28.126	0	220.606	0	157.8	4	55.3	4	-1E+10	1	-1E+10	1	-1E+10	1	-1E+10	1	-1E+10	1	-1E+10	1
4901784	155	C	10/02/2019	10:51	-132.787	43.477	0	225.10	0	7.8420	0	36.0590	8	28.134	0	223.183	0	156.7	4	54.8	4	-1E+10	1	-1E+10	1	-1E+10	1	-1E+10	1	-1E+10	1	-1E+10	1
4901784	155	C	10/02/2019	10:51	-132.787	43.477	0	227.80	0	7.8330	0	36.0600	8	28.136	0	225.858	0	156.7	4	54.8	4	-1E+10	1	-1E+10	1	-1E+10	1	-1E+10	1	-1E+10	1	-1E+10	1
4901784	155	C	10/02/2019	10:51	-132.787	43.477	0	230.50	0	7.8190	0	36.0640	8	28.141	0	228.534	0	156.3	4	54.7	4	-1E+10	1	-1E+10	1	-1E+10	1	-1E+10	1	-1E+10	1	-1E+10	1
4901784	155	C	10/02/2019	10:51	-132.787	43.477	0	232.30	0	7.7890	0	36.0680	8	28.149	0	230.317	0	155.3	4	54.3	4	-1E+10	1	-1E+10	1	-1E+10	1	-1E+10	1	-1E+10	1	-1E+10	1
4901784	155	C	10/02/2019	10:51	-132.787	43.477	0	234.90	0	7.7740	0	36.0620	8	28.147	0	232.894	0	154.0	4	53.8	4	-1E+10	1	-1E+10	1	-1E+10	1	-1E+10	1	-1E+10	1	-1E+10	1
4901784	155	C	10/02/2019	10:51	-132.787	43.477	0	237.60	0	7.7580	0	36.0580	8	28.146	0	235.569	0	151.9	4	53.1	4	-1E+10	1	-1E+10	1	-1E+10	1	-1E+10	1	-1E+10	1	-1E+10	1
4901784	155	C	10/02/2019	10:51	-132.787	43.477	0	240.20	0	7.6590	0	36.0570	8	28.160	0	238.145	0	149.7	4	52.2	4	-1E+10	1	-1E+10	1	-1E+10	1	-1E+10	1	-1E+10	1	-1E+10	1
4901784	155	C	10/02/2019	10:51	-132.787	43.477	0	242.90	0	7.5970	0	36.0520	8	28.165	0	240.821	0	147.9	4	51.5	4	-1E+10	1	-1E+10	1	-1E+10	1	-1E+10	1	-1E+10	1	-1E+10	1
4901784	155	C	10/02/2019	10:51	-132.787	43.477	0	244.70	0	7.5540	0	36.0520	8	28.172	0	242.604	0	146.9	4	51.1	4	-1E+10	1	-1E+10	1	-1E+10	1	-1E+10	1	-1E+10	1	-1E+10	1
4901784	155	C	10/02/2019	10:51	-132.787	43.477	0	247.30	0	7.5070	0	36.0500	8	28.177	0	245.180	0	145.3	4	50.5	4	-1E+10	1	-1E+10	1	-1E+10	1	-1E+10	1	-1E+10	1	-1E+10	1
4901784	155	C	10/02/2019	10:51	-132.787	43.477	0	249.90	0	7.4510	0	36.0490	8	28.184	0	247.756	0	144.0	4	50.0	4	-1E+10	1	-1E+10	1	-1E+10	1	-1E+10	1	-1E+10	1	-1E+10	1
4901784	155	C	10/02/2019	10:51	-132.787	43.477	0	252.50	0	7.3800	0	36.0510	8	28.196	0	250.333	0	142.7	4	49.4	4	-1E+10	1	-1E+10	1	-1E+10	1	-1E+10	1	-1E+10	1	-1E+10	1
4901784	155	C	10/02/2019	10:51	-132.787	43.477	0	255.20	0	7.3470	0	36.0510	8	28.201	0	253.008	0	142.1	4	49.2	4	-1E+10	1	-1E+10	1	-1E+10	1	-1E+10	1	-1E+10	1	-1E+10	1
4901784	155	C	10/02/2019	10:51	-132.787	43.477	0	257.90	0	7.3250	0	36.0510	8	28.204	0	255.683	0	141.5	4	49.0	4	-1E+10	1	-1E+10	1	-1E+10	1	-1E+10	1	-1E+10	1	-1E+10	1
4901784	155	C	10/02/2019	10:51	-132.787	43.477	0	260.60	0	7.2980	0	36.0500	8	28.208	0	258.358	0	140.7	4	48.7	4	-1E+10	1	-1E+10	1	-1E+10	1	-1E+10	1	-1E+10	1	-1E+10	1
4901784	155	C	10/02/2019	10:51	-132.787	43.477	0	262.40	0	7.2810	0	36.0490	8	28.209	0	260.141	0	140.2	4	48.5	4	-1E+10	1	-1E+10	1	-1E+10	1	-1E+10	1	-1E+10	1	-1E+10	1
4901784	155	C	10/02/2019	10:51	-132.787	43.477	0	265.00	0	7.2470	0	36.0500	8	28.215	0	262.717	0	139.3	4	48.1	4	-1E+10	1	-1E+10	1	-1E+10	1	-1E+10	1	-1E+10	1	-1E+10	1
4901784	155	C	10/02/2019	10:51	-132.787	43.477	0	267.80	0	7.2260	0	36.0480	8	28.216	0	265.491	0	138.0	4	47.6	4	-1E+10	1	-1E+10	1	-1E+10	1	-1E+10	1	-1E+10	1	-1E+10	1
4901784	155	C	10/02/2019	10:51	-132.787	43.477	0	269.60	0	7.1970	0	36.0480	8	28.221	0	267.275	0	136.5	4	47.1	4	-1E+10	1	-1E+10	1	-1E+10	1	-1E+10	1	-1E+10	1	-1E+10	1
4901784	155	C	10/02/2019	10:51	-132.787	43.477	0	272.20	0	7.1670	0	36.0460	8	28.223	0	269.851	0	133.5	4	46.0	4	-1E+10	1	-1E+10	1	-1E+10	1	-1E+10	1	-1E+10	1	-1E+10	1
4901784	155	C	10/02/2019	10:51	-132.787	43.477	0	275.00	0	7.0430	0	36.0470	8	28.242	0	272.625	0	130.0	4	44.7	4	-1E+10	1	-1E+10	1	-1E+10	1	-1E+10	1	-1E+10	1	-1E+10	1
4901784	155	C	10/02/2019	10:51	-132.787	43.477	0	277.30	0	6.9240	0	36.0470	8	28.259	0	274.903	0	127.9	4	43.8	4	-1E+10	1	-1E+10	1	-1E+10	1	-1E+10	1	-1E+10	1	-1E+10	1
4901784	155	C	10/02/2019	10:51	-132.787	43.477	0	280.00	0	6.8740	0	36.0470	8	28.266	0	277.578	0	126.1	4	43.2	4	-1E+10	1	-1E+10	1	-1E+10	1	-1E+10	1	-1E+10	1	-1E+10	1
4901784	155	C	10/02/2019	10:51	-132.787	43.477	0	282.20	0	6.8380	0	36.0470	8	28.271	0	279.758	0	124.9	4	42.8	4	-1E+10	1	-1E+10	1	-1E+10	1	-1E+10	1	-1E+10	1	-1E+10	1
4901784	155	C	10/02/2019	10:51	-132.787	43.477	0	284.50	0	6.8200	0	36.0460	8	28.273	0	282.036	0	123.8	4	42.4	4	-1E+10	1	-1E+10	1	-1E+10	1	-1E+10	1	-1E+10	1	-1E+10	1
4901784	155	C	10/02/2019	10:51	-132.787	43.477	0	287.60	0	6.7610	0	36.0460	8	28.281	0	285.107	0	123.6	4	42.2	4	-1E+10	1	-1E+10	1	-1E+10	1	-1E+10	1	-1E+10	1	-1E+10	1
4901784	155	C	10/02/2019	10:51	-132.787	43.477	0	289.80	0	6.7110	0	36.0490	8	28.290	0	287.286	0	123.9	4	42.3	4	-1E+10	1	-1E+10	1	-1E+10	1	-1E+10	1	-1E+10	1	-1E+10	1
4901784	155	C	10/02/2019	10:51	-132.787	43.477	0	292.20	0	6.6930	0	36.0470	8	28.291	0	289.664	0	124.0	4	42.3	4	-1E+10	1	-1E+10	1	-1E+10	1	-1E+10	1	-1E+10	1	-1E+10	1
4901784	155	C	10/02/2019	10:51	-132.787	43.477	0	295.30	0	6.6770	0	36.0480	8	28.294	0	292.735	0	123.3	4	42.0	4	-1E+10	1	-1E+10	1	-1E+10	1	-1E+10	1	-1E+10	1	-1E+10	1
4901784	155	C	10/02/2019	10:51	-132.787	43.477	0	297.70	0	6.6410	0	36.0470	8	28.298	0	295.112	0	121.2	4	41.3	4	-1E+10	1	-1E+10	1	-1E+10	1	-1E+10	1	-1E+10	1	-1E+10	1
4901784	155	C	10/02/2019	10:51	-132.787	43.477	0	300.10	0	6.5840	0	36.0490	8	28.308	0	297.490	0	118.9	4	40.4	4	-1E+10	1	-1E+10	1	-1E+10	1	-1E+10	1	-1E+10	1	-1E+10	1
4901784	155	C	10/02/2019	10:51	-132.787	43.477	0	302.50	0	6.5640	0	36.0460	8	28.308	0	299.867	0	117.9	4	40.1	4	-1E+10	1	-1E+10	1	-1E+10	1	-1E+10	1	-1E+10	1	-1E+10	1
4901784	155	C	10/02/2019	10:51	-132.787	43.477	0	305.10	0	6.5240	0	36.0480	8	28.315	0	302.443	0	116.9	4	39.7	4	-1E+10	1	-1E+10	1	-1E+10	1	-1E+10	1	-1E+10	1	-1E+10	1
4901784	155	C	10/02/2019	10:51	-132.787	43.477	0	307.60	0	6.4940	0	36.0470	8	28.319	0	304.919	0	115.6	4	39.2	4	-1E+10	1	-1E+10	1	-1E+10	1	-1E+10	1	-1E+10	1	-1E+10	1
4901784	155	C	10/02/2019	10:51	-132.787	43.477	0	310.00	0	6.4550	0	36.0470	8	28.324	0	307.296	0	114.3	4	38.8	4	-1E+10	1	-1E+10	1	-1E+10	1	-1E+10	1	-1E+10	1	-1E+10	1
4901784	155	C	10/02/2019	10:51	-132.787	43.477	0	312.50	0	6.4230	0	36.0460	8	28.327	0	309.773	0	113.3	4	38.4	4	-1E+10	1	-1E+10	1	-1E+10	1	-1E+10	1	-1E+10	1	-1E+10	1
4901784	155	C	10/02/2019	10:51	-132.787	43.477	0	315.00	0	6.3800	0	36.0460	8	28.333	0	312.249	0	113.1	4	38.3	4	-1E+10	1	-1E+10	1	-1E+10	1	-1E+10	1	-1E+10	1	-1E+10	1
4901784	155	C	10/02/2019	10:51	-132.787	43.477	0	317.50	0	6.3480	0	36.0480	8	28.339	0	314.725	0	113.8	4	38.5	4	-1E+10	1	-1E+10	1	-1E+10	1	-1E+10	1	-1E+10	1	-1E+10	1
4901784	155	C	10/02/2019	10:51	-132.787	43.477	0	320.00	0	6.3260	0	36.0490	8	28.343	0	317.201	0	112.7	4	38.1	4	-1E+10	1	-1E+10	1	-1E+10	1	-1E+10	1	-1E+10	1	-1E+10	1
4901784	155	C	10/02/2019	10:51	-132.787	43.477	0	322.50	0	6.3000	0	36.0470	8	28.345	0	319.678	0	111.5	4	37.7	4	-1E+10	1	-1E+10	1	-1E+10	1	-1E+10	1	-1E+10	1	-1E+10	1
4901784	155	C	10/02/2019	10:51	-132.787	43.477	0	325.00	0	6.2440	0	36.0480	8	28.353	0	322.154	0	111.0	4	37.5	4	-1E+10	1	-1E+10	1	-1E+10	1	-1E+10	1	-1E+10	1	-1E+10	1
4901784	155	C	10/02/2019	10:51	-132.787	43.477	0	327.60	0	6.2060	0	36.0490	8	28.359	0	324.729	0	110.3	4	37.2	4	-1E+10	1	-1E+10	1	-1E+10	1	-1E+10	1	-1E+10	1	-1E+10	1
4901784	155	C	10/02/2019	10:51	-132.787	43.477	0	330.20	0	6.1920	0	36.0500	8	28.362	0	327.304	0	109.8	4	37.0	4	-1E+10	1	-1E+10	1	-1E+10	1	-1E+10	1	-1E+10	1	-1E+10	1
4901784	155	C	10/02/2019	10:51	-132.787	43.477	0	332.80	0	6.1700	0	36.0490	8	28.364	0	329.879	0	108.4	4	36.5	4	-1E+10	1	-1E+10	1	-1E+10	1	-1E+10	1	-1E+10	1	-1E+10	1
4901784	155	C	10/02/2019	10:51	-132.787	43.477	0	335.40	0	6.1370	0	36.0500	8	28.369	0	332.454	0	107.3	4	36.1	4	-1E+10	1	-1E+10	1	-1E+10	1	-1E+10	1	-1E+10	1	-1E+10	1
4901784	155	C	10/02/2019	10:51	-132.787	43.477	0	337.90	0	6.1190	0	36.0490	8	28.371	0	334.930	0	105.8	4	35.6	4	-1E+10	1	-1E+10	1	-1E+10	1	-1E+10	1	-1E+10	1	-1E+10	1
4901784	155	C	10/02/2019	10:51	-132.787	43.477	0	339.60	0	6.0850	0	36.0490	8	28.375	0	336.614	0	104.5	4	35.1	4	-1E+10	1	-1E+10	1	-1E+10	1	-1E+10	1	-1E+10	1	-1E+10	1
4901784	155	C	10/02/2019	10:51	-132.787	43.477	0	342.30	0	6.0660	0	36.0470	8	28.376	0	339.288	0	103.2	4	34.7	4	-1E+10	1	-1E+10	1	-1E+10	1	-1E+10	1	-1E+10	1	-1E+10	1
4901784	155	C	10/02/2019	10:51	-132.787	43.477	0	344.80	0	6.0430	0	36.0460	8	28.378	0	341.764	0	101.6	4	34.1	4	-1E+10	1	-1E+10	1	-1E+10	1	-1E+10	1	-1E+10	1	-1E+10	1
4901784	155	C	10/02/2019	10:51	-132.787	43.477	0	347.40	0	6.0130	0	36.0440	8	28.381	0	344.339	0	99.8	4	33.5	4	-1E+10	1	-1E+10	1	-1E+10	1	-1E+10	1	-1E+10	1	-1E+10	1
4901784	155	C	10/02/2019	10:51	-132.787	43.477	0	350.00	0	5.9480	0	36.0440	8	28.389	0	346.914	0	98.2	4	32.9	4	-1E+10	1	-1E+10	1	-1E+10	1	-1E+10	1	-1E+10	1	-1E+10	1
4901784	155	C	10/02/2019	10:51	-132.787	43.477	0	352.70	0	5.8930	0	36.0470	8	28.399	0	349.588	0	97.1	4	32.5	4	-1E+10	1	-1E+10	1	-1E+10	1	-1E+10	1	-1E+10	1	-1E+10	1
4901784	155	C	10/02/2019	10:51	-132.787	43.477	0	355.30	0	5.8690	0	36.0470	8	28.402	0	352.163	0	96.4	4	32.3	4	-1E+10	1	-1E+10	1	-1E+10	1	-1E+10	1	-1E+10	1	-1E+10	1
4901784	155	C	10/02/2019	10:51	-132.787	43.477	0	357.10	0	5.8600	0	36.0460	8	28.402	0	353.945	0	95.8	4	32.1	4	-1E+10	1	-1E+10	1	-1E+10	1	-1E+10	1	-1E+10	1	-1E+10	1
4901784	155	C	10/02/2019	10:51	-132.787	43.477	0	359.90	0	5.8300	0	36.0470	8	28.407	0	356.718	0	94.9	4	31.7	4	-1E+10	1	-1E+10	1	-1E+10	1	-1E+10	1	-1E+10	1	-1E+10	1
4901784	155	C	10/02/2019	10:51	-132.787	43.477	0	362.50	0	5.8010	0	36.0480	8	28.411	0	359.293	0	94.1	4	31.4	4	-1E+10	1	-1E+10	1	-1E+10	1	-1E+10	1	-1E+10	1	-1E+10	1
4901784	155	C	10/02/2019	10:51	-132.787	43.477	0	365.20	0	5.7750	0	36.0480	8	28.415	0	361.967	0	93.3	4	31.1	4	-1E+10	1	-1E+10	1	-1E+10	1	-1E+10	1	-1E+10	1	-1E+10	1
4901784	155	C	10/02/2019	10:51	-132.787	43.477	0	367.90	0	5.7410	0	36.0490	8	28.420	0	364.640	0	92.6	4	30.9	4	-1E+10	1	-1E+10	1	-1E+10	1	-1E+10	1	-1E+10	1	-1E+10	1
4901784	155	C	10/02/2019	10:51	-132.787	43.477	0	369.70	0	5.7280	0	36.0480	8	28.421	0	366.423	0	92.1	4	30.7	4	-1E+10	1	-1E+10	1	-1E+10	1	-1E+10	1	-1E+10	1	-1E+10	1
4901784	155	C	10/02/2019	10:51	-132.787	43.477	0	372.40	0	5.7060	0	36.0490	8	28.424	0	369.096	0	91.5	4	30.5	4	-1E+10	1	-1E+10	1	-1E+10	1	-1E+10	1	-1E+10	1	-1E+10	1
4901784	155	C	10/02/2019	10:51	-132.787	43.477	0	375.10	0	5.6900	0	36.0480	8	28.426	0	371.770	0	90.8	4	30.3	4	-1E+10	1	-1E+10	1	-1E+10	1	-1E+10	1	-1E+10	1	-1E+10	1
4901784	155	C	10/02/2019	10:51	-132.787	43.477	0	377.70	0	5.6450	0	36.0500	8	28.433	0	374.345	0	90.2	4	30.0	4	-1E+10	1	-1E+10	1	-1E+10	1	-1E+10	1	-1E+10	1	-1E+10	1
4901784	155	C	10/02/2019	10:51	-132.787	43.477	0	380.40	0	5.6220	0	36.0500	8	28.436	0	377.018	0	89.4	4	29.7	4	-1E+10	1	-1E+10	1	-1E+10	1	-1E+10	1	-1E+10	1	-1E+10	1
4901784	155	C	10/02/2019	10:51	-132.787	43.477	0	382.10	0	5.6040	0	36.0500	8	28.438	0	378.702	0	89.0	4	29.6	4	-1E+10	1	-1E+10	1	-1E+10	1	-1E+10	1	-1E+10	1	-1E+10	1
4901784	155	C	10/02/2019	10:51	-132.787	43.477	0	384.70	0	5.5800	0	36.0510	8	28.442	0	381.276	0	88.3	4	29.4	4	-1E+10	1	-1E+10	1	-1E+10	1	-1E+10	1	-1E+10	1	-1E+10	1
4901784	155	C	10/02/2019	10:51	-132.787	43.477	0	387.30	0	5.5580	0	36.0510	8	28.445	0	383.851	0	87.6	4	29.1	4	-1E+10	1	-1E+10	1	-1E+10	1	-1E+10	1	-1E+10	1	-1E+10	1
4901784	155	C	10/02/2019	10:51	-132.787	43.477	0	389.90	0	5.5400	0	36.0500	8	28.446	0	386.425	0	86.8	4	28.8	4	-1E+10	1	-1E+10	1	-1E+10	1	-1E+10	1	-1E+10	1	-1E+10	1
4901784	155	C	10/02/2019	10:51	-132.787	43.477	0	392.50	0	5.4940	0	36.0520	8	28.454	0	388.999	0	85.5	4	28.4	4	-1E+10	1	-1E+10	1	-1E+10	1	-1E+10	1	-1E+10	1	-1E+10	1
4901784	155	C	10/02/2019	10:51	-132.787	43.477	0	395.00	0	5.4640	0	36.0530	8	28.458	0	391.475	0	84.5	4	28.0	4	-1E+10	1	-1E+10	1	-1E+10	1	-1E+10	1	-1E+10	1	-1E+10	1
4901784	155	C	10/02/2019	10:51	-132.787	43.477	0	397.60	0	5.4160	0	36.0560	8	28.467	0	394.049	0	84.1	4	27.8	4	-1E+10	1	-1E+10	1	-1E+10	1	-1E+10	1	-1E+10	1	-1E+10	1
4901784	155	C	10/02/2019	10:51	-132.787	43.477	0	400.10	0	5.3970	0	36.0570	8	28.470	0	396.524	0	84.0	4	27.8	4	-1E+10	1	-1E+10	1	-1E+10	1	-1E+10	1	-1E+10	1	-1E+10	1
4901784	155	C	10/02/2019	10:51	-132.787	43.477	0	402.70	0	5.3790	0	36.0570	8	28.472	0	399.099	0	83.8	4	27.7	4	-1E+10	1	-1E+10	1	-1E+10	1	-1E+10	1	-1E+10	1	-1E+10	1
4901784	155	C	10/02/2019	10:51	-132.787	43.477	0	405.30	0	5.3590	0	36.0570	8	28.474	0	401.673	0	83.3	4	27.5	4	-1E+10	1	-1E+10	1	-1E+10	1	-1E+10	1	-1E+10	1	-1E+10	1
4901784	155	C	10/02/2019	10:51	-132.787	43.477	0	407.90	0	5.3310	0	36.0590	8	28.479	0	404.247	0	82.2	4	27.2	4	-1E+10	1	-1E+10	1	-1E+10	1	-1E+10	1	-1E+10	1	-1E+10	1
4901784	155	C	10/02/2019	10:51	-132.787	43.477	0	409.70	0	5.3260	0	36.0570	8	28.479	0	406.029	0	82.2	4	27.2	4	-1E+10	1	-1E+10	1	-1E+10	1	-1E+10	1	-1E+10	1	-1E+10	1
4901784	155	C	10/02/2019	10:51	-132.787	43.477	0	412.40	0	5.2810	0	36.0590	8	28.486	0	408.702	0	82.5	4	27.2	4	-1E+10	1	-1E+10	1	-1E+10	1	-1E+10	1	-1E+10	1	-1E+10	1
4901784	155	C	10/02/2019	10:51	-132.787	43.477	0	415.00	0	5.2550	0	36.0580	8	28.488	0	411.276	0	82.5	4	27.2	4	-1E+10	1	-1E+10	1	-1E+10	1	-1E+10	1	-1E+10	1	-1E+10	1
4901784	155	C	10/02/2019	10:51	-132.787	43.477	0	417.70	0	5.2200	0	36.0570	8	28.492	0	413.949	0	82.1	4	27.1	4	-1E+10	1	-1E+10	1	-1E+10	1	-1E+10	1	-1E+10	1	-1E+10	1
4901784	155	C	10/02/2019	10:51	-132.787	43.477	0	420.30	0	5.1800	0	36.0570	8	28.496	0	416.524	0	80.8	4	26.6	4	-1E+10	1	-1E+10	1	-1E+10	1	-1E+10	1	-1E+10	1	-1E+10	1
4901784	155	C	10/02/2019	10:51	-132.787	43.477	0	422.80	0	5.1440	0	36.0600	8	28.503	0	418.999	0	79.3	4	26.1	4	-1E+10	1	-1E+10	1	-1E+10	1	-1E+10	1	-1E+10	1	-1E+10	1
4901784	155	C	10/02/2019	10:51	-132.787	43.477	0	425.40	0	5.0980	0	36.0660	8	28.513	0	421.573	0	77.5	4	25.5	4	-1E+10	1	-1E+10	1	-1E+10	1	-1E+10	1	-1E+10	1	-1E+10	1
4901784	155	C	10/02/2019	10:51	-132.787	43.477	0	427.20	0	5.0810	0	36.0660	8	28.516	0	423.354	0	76.1	4	25.0	4	-1E+10	1	-1E+10	1	-1E+10	1	-1E+10	1	-1E+10	1	-1E+10	1
4901784	155	C	10/02/2019	10:51	-132.787	43.477	0	429.80	0	5.0900	0	36.0710	8	28.518	0	425.928	0	74.1	4	24.4	4	-1E+10	1	-1E+10	1	-1E+10	1	-1E+10	1	-1E+10	1	-1E+10	1
4901784	155	C	10/02/2019	10:51	-132.787	43.477	0	432.40	0	5.0590	0	36.0740	8	28.525	0	428.502	0	74.2	4	24.4	4	-1E+10	1	-1E+10	1	-1E+10	1	-1E+10	1	-1E+10	1	-1E+10	1
4901784	155	C	10/02/2019	10:51	-132.787	43.477	0	435.00	0	5.0380	0	36.0720	8	28.526	0	431.076	0	74.7	4	24.5	4	-1E+10	1	-1E+10	1	-1E+10	1	-1E+10	1	-1E+10	1	-1E+10	1
4901784	155	C	10/02/2019	10:51	-132.787	43.477	0	437.70	0	4.9640	0	36.0730	8	28.535	0	433.749	0	74.7	4	24.5	4	-1E+10	1	-1E+10	1	-1E+10	1	-1E+10	1	-1E+10	1	-1E+10	1
4901784	155	C	10/02/2019	10:51	-132.787	43.477	0	440.30	0	4.9570	0	36.0730	8	28.536	0	436.323	0	74.0	4	24.2	4	-1E+10	1	-1E+10	1	-1E+10	1	-1E+10	1	-1E+10	1	-1E+10	1
4901784	155	C	10/02/2019	10:51	-132.787	43.477	0	442.90	0	4.9340	0	36.0770	8	28.542	0	438.897	0	73.0	4	23.9	4	-1E+10	1	-1E+10	1	-1E+10	1	-1E+10	1	-1E+10	1	-1E+10	1
4901784	155	C	10/02/2019	10:51	-132.787	43.477	0	444.60	0	4.9270	0	36.0790	8	28.544	0	440.579	0	72.6	4	23.8	4	-1E+10	1	-1E+10	1	-1E+10	1	-1E+10	1	-1E+10	1	-1E+10	1
4901784	155	C	10/02/2019	10:51	-132.787	43.477	0	447.30	0	4.9240	0	36.0790	8	28.545	0	443.252	0	72.0	4	23.6	4	-1E+10	1	-1E+10	1	-1E+10	1	-1E+10	1	-1E+10	1	-1E+10	1
4901784	155	C	10/02/2019	10:51	-132.787	43.477	0	450.00	0	4.9060	0	36.0790	8	28.547	0	445.925	0	71.1	4	23.3	4	-1E+10	1	-1E+10	1	-1E+10	1	-1E+10	1	-1E+10	1	-1E+10	1
4901784	155	C	10/02/2019	10:51	-132.787	43.477	0	452.70	0	4.8770	0	36.0840	8	28.554	0	448.597	0	70.0	4	22.9	4	-1E+10	1	-1E+10	1	-1E+10	1	-1E+10	1	-1E+10	1	-1E+10	1
4901784	155	C	10/02/2019	10:51	-132.787	43.477	0	455.40	0	4.8580	0	36.0850	8	28.557	0	451.270	0	69.1	4	22.6	4	-1E+10	1	-1E+10	1	-1E+10	1	-1E+10	1	-1E+10	1	-1E+10	1
4901784	155	C	10/02/2019	10:51	-132.787	43.477	0	457.30	0	4.8440	0	36.0870	8	28.561	0	453.151	0	68.5	4	22.4	4	-1E+10	1	-1E+10	1	-1E+10	1	-1E+10	1	-1E+10	1	-1E+10	1
4901784	155	C	10/02/2019	10:51	-132.787	43.477	0	460.00	0	4.8130	0	36.0900	8	28.567	0	455.823	0	67.1	4	21.9	4	-1E+10	1	-1E+10	1	-1E+10	1	-1E+10	1	-1E+10	1	-1E+10	1
4901784	155	C	10/02/2019	10:51	-132.787	43.477	0	462.80	0	4.8020	0	36.0930	8	28.570	0	458.595	0	65.3	4	21.3	4	-1E+10	1	-1E+10	1	-1E+10	1	-1E+10	1	-1E+10	1	-1E+10	1
4901784	155	C	10/02/2019	10:51	-132.787	43.477	0	464.70	0	4.7970	0	36.0970	8	28.574	0	460.475	0	63.8	4	20.8	4	-1E+10	1	-1E+10	1	-1E+10	1	-1E+10	1	-1E+10	1	-1E+10	1
4901784	155	C	10/02/2019	10:51	-132.787	43.477	0	467.50	0	4.8110	0	36.1050	8	28.579	0	463.247	0	61.3	4	20.0	4	-1E+10	1	-1E+10	1	-1E+10	1	-1E+10	1	-1E+10	1	-1E+10	1
4901784	155	C	10/02/2019	10:51	-132.787	43.477	0	470.40	0	4.8130	0	36.1120	8	28.584	0	466.117	0	59.9	4	19.5	4	-1E+10	1	-1E+10	1	-1E+10	1	-1E+10	1	-1E+10	1	-1E+10	1
4901784	155	C	10/02/2019	10:51	-132.787	43.477	0	472.20	0	4.8100	0	36.1140	8	28.586	0	467.899	0	59.1	4	19.3	4	-1E+10	1	-1E+10	1	-1E+10	1	-1E+10	1	-1E+10	1	-1E+10	1
4901784	155	C	10/02/2019	10:51	-132.787	43.477	0	475.00	0	4.8180	0	36.1180	8	28.588	0	470.670	0	57.9	4	18.9	4	-1E+10	1	-1E+10	1	-1E+10	1	-1E+10	1	-1E+10	1	-1E+10	1
4901784	155	C	10/02/2019	10:51	-132.787	43.477	0	477.80	0	4.8250	0	36.1200	8	28.589	0	473.441	0	56.9	4	18.6	4	-1E+10	1	-1E+10	1	-1E+10	1	-1E+10	1	-1E+10	1	-1E+10	1
4901784	155	C	10/02/2019	10:51	-132.787	43.477	0	479.70	0	4.7980	0	36.1220	8	28.594	0	475.322	0	56.5	4	18.4	4	-1E+10	1	-1E+10	1	-1E+10	1	-1E+10	1	-1E+10	1	-1E+10	1
4901784	155	C	10/02/2019	10:51	-132.787	43.477	0	482.50	0	4.7860	0	36.1270	8	28.599	0	478.093	0	55.1	4	18.0	4	-1E+10	1	-1E+10	1	-1E+10	1	-1E+10	1	-1E+10	1	-1E+10	1
4901784	155	C	10/02/2019	10:51	-132.787	43.477	0	485.90	0	4.7960	0	36.1320	8	28.602	0	481.458	0	53.9	4	17.6	4	-1E+10	1	-1E+10	1	-1E+10	1	-1E+10	1	-1E+10	1	-1E+10	1
4901784	155	C	10/02/2019	10:51	-132.787	43.477	0	487.80	0	4.7970	0	36.1320	8	28.602	0	483.338	0	53.5	4	17.5	4	-1E+10	1	-1E+10	1	-1E+10	1	-1E+10	1	-1E+10	1	-1E+10	1
4901784	155	C	10/02/2019	10:51	-132.787	43.477	0	490.20	0	4.7700	0	36.1350	8	28.608	0	485.714	0	53.0	4	17.3	4	-1E+10	1	-1E+10	1	-1E+10	1	-1E+10	1	-1E+10	1	-1E+10	1
4901784	155	C	10/02/2019	10:51	-132.787	43.477	0	492.70	0	4.7640	0	36.1380	8	28.611	0	488.188	0	52.0	4	17.0	4	-1E+10	1	-1E+10	1	-1E+10	1	-1E+10	1	-1E+10	1	-1E+10	1
4901784	155	C	10/02/2019	10:51	-132.787	43.477	0	495.10	0	4.7610	0	36.1420	8	28.614	0	490.563	0	51.5	4	16.8	4	-1E+10	1	-1E+10	1	-1E+10	1	-1E+10	1	-1E+10	1	-1E+10	1
4901784	155	C	10/02/2019	10:51	-132.787	43.477	0	497.50	0	4.7520	0	36.1420	8	28.615	0	492.938	0	51.2	4	16.7	4	-1E+10	1	-1E+10	1	-1E+10	1	-1E+10	1	-1E+10	1	-1E+10	1
4901784	155	C	10/02/2019	10:51	-132.787	43.477	0	499.90	0	4.7350	0	36.1420	8	28.617	0	495.313	0	50.6	4	16.5	4	-1E+10	1	-1E+10	1	-1E+10	1	-1E+10	1	-1E+10	1	-1E+10	1
4901784	155	C	10/02/2019	10:51	-132.787	43.477	0	505.70	0	4.7290	0	36.1510	8	28.625	0	501.053	0	47.4	4	15.5	4	-1E+10	1	-1E+10	1	-1E+10	1	-1E+10	1	-1E+10	1	-1E+10	1
4901784	155	C	10/02/2019	10:51	-132.787	43.477	0	510.60	0	4.7550	0	36.1600	8	28.629	0	505.902	0	44.7	4	14.6	4	-1E+10	1	-1E+10	1	-1E+10	1	-1E+10	1	-1E+10	1	-1E+10	1
4901784	155	C	10/02/2019	10:51	-132.787	43.477	0	515.60	0	4.7590	0	36.1670	8	28.635	0	510.850	0	42.8	4	14.0	4	-1E+10	1	-1E+10	1	-1E+10	1	-1E+10	1	-1E+10	1	-1E+10	1
4901784	155	C	10/02/2019	10:51	-132.787	43.477	0	520.70	0	4.7600	0	36.1740	8	28.640	0	515.897	0	41.4	4	13.5	4	-1E+10	1	-1E+10	1	-1E+10	1	-1E+10	1	-1E+10	1	-1E+10	1
4901784	155	C	10/02/2019	10:51	-132.787	43.477	0	525.00	0	4.7080	0	36.1760	8	28.648	0	520.152	0	41.6	4	13.6	4	-1E+10	1	-1E+10	1	-1E+10	1	-1E+10	1	-1E+10	1	-1E+10	1
4901784	155	C	10/02/2019	10:51	-132.787	43.477	0	529.30	0	4.6860	0	36.1760	8	28.650	0	524.407	0	41.3	4	13.4	4	-1E+10	1	-1E+10	1	-1E+10	1	-1E+10	1	-1E+10	1	-1E+10	1
4901784	155	C	10/02/2019	10:51	-132.787	43.477	0	534.50	0	4.6530	0	36.1800	8	28.657	0	529.552	0	40.3	4	13.1	4	-1E+10	1	-1E+10	1	-1E+10	1	-1E+10	1	-1E+10	1	-1E+10	1
4901784	155	C	10/02/2019	10:51	-132.787	43.477	0	539.80	0	4.6440	0	36.1860	8	28.663	0	534.796	0	39.1	4	12.7	4	-1E+10	1	-1E+10	1	-1E+10	1	-1E+10	1	-1E+10	1	-1E+10	1
4901784	155	C	10/02/2019	10:51	-132.787	43.477	0	545.10	0	4.6350	0	36.1890	8	28.667	0	540.040	0	38.7	4	12.6	4	-1E+10	1	-1E+10	1	-1E+10	1	-1E+10	1	-1E+10	1	-1E+10	1
4901784	155	C	10/02/2019	10:51	-132.787	43.477	0	550.40	0	4.6130	0	36.1900	8	28.670	0	545.284	0	37.8	4	12.3	4	-1E+10	1	-1E+10	1	-1E+10	1	-1E+10	1	-1E+10	1	-1E+10	1
4901784	155	C	10/02/2019	10:51	-132.787	43.477	0	554.90	0	4.6130	0	36.1940	8	28.673	0	549.736	0	36.6	4	11.9	4	-1E+10	1	-1E+10	1	-1E+10	1	-1E+10	1	-1E+10	1	-1E+10	1
4901784	155	C	10/02/2019	10:51	-132.787	43.477	0	559.30	0	4.6120	0	36.1990	8	28.677	0	554.089	0	35.1	4	11.4	4	-1E+10	1	-1E+10	1	-1E+10	1	-1E+10	1	-1E+10	1	-1E+10	1
4901784	155	C	10/02/2019	10:51	-132.787	43.477	0	564.70	0	4.6190	0	36.2080	8	28.684	0	559.432	0	33.0	4	10.7	4	-1E+10	1	-1E+10	1	-1E+10	1	-1E+10	1	-1E+10	1	-1E+10	1
4901784	155	C	10/02/2019	10:51	-132.787	43.477	0	570.00	0	4.6300	0	36.2170	8	28.690	0	564.675	0	31.7	4	10.3	4	-1E+10	1	-1E+10	1	-1E+10	1	-1E+10	1	-1E+10	1	-1E+10	1
4901784	155	C	10/02/2019	10:51	-132.787	43.477	0	575.50	0	4.6290	0	36.2210	8	28.693	0	570.116	0	30.8	4	10.0	4	-1E+10	1	-1E+10	1	-1E+10	1	-1E+10	1	-1E+10	1	-1E+10	1
4901784	155	C	10/02/2019	10:51	-132.787	43.477	0	580.00	0	4.6120	0	36.2240	8	28.697	0	574.568	0	30.3	4	9.9	4	-1E+10	1	-1E+10	1	-1E+10	1	-1E+10	1	-1E+10	1	-1E+10	1
4901784	155	C	10/02/2019	10:51	-132.787	43.477	0	584.50	0	4.5880	0	36.2280	8	28.703	0	579.019	0	29.7	4	9.7	4	-1E+10	1	-1E+10	1	-1E+10	1	-1E+10	1	-1E+10	1	-1E+10	1
4901784	155	C	10/02/2019	10:51	-132.787	43.477	0	590.00	0	4.5770	0	36.2310	8	28.707	0	584.460	0	29.2	4	9.5	4	-1E+10	1	-1E+10	1	-1E+10	1	-1E+10	1	-1E+10	1	-1E+10	1
4901784	155	C	10/02/2019	10:51	-132.787	43.477	0	595.50	0	4.5630	0	36.2330	8	28.710	0	589.901	0	28.5	4	9.3	4	-1E+10	1	-1E+10	1	-1E+10	1	-1E+10	1	-1E+10	1	-1E+10	1
4901784	155	C	10/02/2019	10:51	-132.787	43.477	0	600.00	0	4.5350	0	36.2380	8	28.717	0	594.352	0	27.7	4	9.0	4	-1E+10	1	-1E+10	1	-1E+10	1	-1E+10	1	-1E+10	1	-1E+10	1
4901784	155	C	10/02/2019	10:51	-132.787	43.477	0	604.60	0	4.5170	0	36.2420	8	28.723	0	598.902	0	27.0	4	8.8	4	-1E+10	1	-1E+10	1	-1E+10	1	-1E+10	1	-1E+10	1	-1E+10	1
4901784	155	C	10/02/2019	10:51	-132.787	43.477	0	610.20	0	4.4920	0	36.2460	8	28.729	0	604.441	0	26.1	4	8.5	4	-1E+10	1	-1E+10	1	-1E+10	1	-1E+10	1	-1E+10	1	-1E+10	1
4901784	155	C	10/02/2019	10:51	-132.787	43.477	0	614.90	0	4.4730	0	36.2490	8	28.733	0	609.090	0	25.5	4	8.3	4	-1E+10	1	-1E+10	1	-1E+10	1	-1E+10	1	-1E+10	1	-1E+10	1
4901784	155	C	10/02/2019	10:51	-132.787	43.477	0	619.60	0	4.4510	0	36.2550	8	28.741	0	613.739	0	24.8	4	8.0	4	-1E+10	1	-1E+10	1	-1E+10	1	-1E+10	1	-1E+10	1	-1E+10	1
4901784	155	C	10/02/2019	10:51	-132.787	43.477	0	625.20	0	4.4410	0	36.2590	8	28.745	0	619.277	0	24.3	4	7.9	4	-1E+10	1	-1E+10	1	-1E+10	1	-1E+10	1	-1E+10	1	-1E+10	1
4901784	155	C	10/02/2019	10:51	-132.787	43.477	0	630.40	0	4.4300	0	36.2610	8	28.748	0	624.420	0	23.6	4	7.7	4	-1E+10	1	-1E+10	1	-1E+10	1	-1E+10	1	-1E+10	1	-1E+10	1
4901784	155	C	10/02/2019	10:51	-132.787	43.477	0	635.20	0	4.4130	0	36.2660	8	28.754	0	629.167	0	22.9	4	7.4	4	-1E+10	1	-1E+10	1	-1E+10	1	-1E+10	1	-1E+10	1	-1E+10	1
4901784	155	C	10/02/2019	10:51	-132.787	43.477	0	639.90	0	4.3930	0	36.2710	8	28.760	0	633.816	0	22.1	4	7.2	4	-1E+10	1	-1E+10	1	-1E+10	1	-1E+10	1	-1E+10	1	-1E+10	1
4901784	155	C	10/02/2019	10:51	-132.787	43.477	0	644.70	0	4.3670	0	36.2770	8	28.768	0	638.563	0	21.4	4	6.9	4	-1E+10	1	-1E+10	1	-1E+10	1	-1E+10	1	-1E+10	1	-1E+10	1
4901784	155	C	10/02/2019	10:51	-132.787	43.477	0	649.60	0	4.3370	0	36.2860	8	28.778	0	643.408	0	20.6	4	6.7	4	-1E+10	1	-1E+10	1	-1E+10	1	-1E+10	1	-1E+10	1	-1E+10	1
4901784	155	C	10/02/2019	10:51	-132.787	43.477	0	654.60	0	4.3450	0	36.2900	8	28.781	0	648.353	0	20.0	4	6.5	4	-1E+10	1	-1E+10	1	-1E+10	1	-1E+10	1	-1E+10	1	-1E+10	1
4901784	155	C	10/02/2019	10:51	-132.787	43.477	0	659.60	0	4.3380	0	36.2930	8	28.784	0	653.297	0	19.4	4	6.3	4	-1E+10	1	-1E+10	1	-1E+10	1	-1E+10	1	-1E+10	1	-1E+10	1
4901784	155	C	10/02/2019	10:51	-132.787	43.477	0	664.50	0	4.3380	0	36.2980	8	28.788	0	658.143	0	18.6	4	6.0	4	-1E+10	1	-1E+10	1	-1E+10	1	-1E+10	1	-1E+10	1	-1E+10	1
4901784	155	C	10/02/2019	10:51	-132.787	43.477	0	669.60	0	4.3190	0	36.3080	8	28.798	0	663.186	0	18.1	4	5.9	4	-1E+10	1	-1E+10	1	-1E+10	1	-1E+10	1	-1E+10	1	-1E+10	1
4901784	155	C	10/02/2019	10:51	-132.787	43.477	0	674.60	0	4.2960	0	36.3180	8	28.809	0	668.130	0	17.6	4	5.7	4	-1E+10	1	-1E+10	1	-1E+10	1	-1E+10	1	-1E+10	1	-1E+10	1
4901784	155	C	10/02/2019	10:51	-132.787	43.477	0	679.80	0	4.2900	0	36.3230	8	28.813	0	673.272	0	17.2	4	5.6	4	-1E+10	1	-1E+10	1	-1E+10	1	-1E+10	1	-1E+10	1	-1E+10	1
4901784	155	C	10/02/2019	10:51	-132.787	43.477	0	684.90	0	4.2710	0	36.3250	8	28.817	0	678.315	0	16.9	4	5.5	4	-1E+10	1	-1E+10	1	-1E+10	1	-1E+10	1	-1E+10	1	-1E+10	1
4901784	155	C	10/02/2019	10:51	-132.787	43.477	0	690.20	0	4.2430	0	36.3330	8	28.827	0	683.555	0	16.4	4	5.3	4	-1E+10	1	-1E+10	1	-1E+10	1	-1E+10	1	-1E+10	1	-1E+10	1
4901784	155	C	10/02/2019	10:51	-132.787	43.477	0	695.40	0	4.2300	0	36.3360	8	28.830	0	688.696	0	16.2	4	5.2	4	-1E+10	1	-1E+10	1	-1E+10	1	-1E+10	1	-1E+10	1	-1E+10	1
4901784	155	C	10/02/2019	10:51	-132.787	43.477	0	700.60	0	4.2080	0	36.3400	8	28.836	0	693.837	0	15.9	4	5.1	4	-1E+10	1	-1E+10	1	-1E+10	1	-1E+10	1	-1E+10	1	-1E+10	1
4901784	155	C	10/02/2019	10:51	-132.787	43.477	0	704.90	0	4.1820	0	36.3440	8	28.842	0	698.089	0	15.5	4	5.0	4	-1E+10	1	-1E+10	1	-1E+10	1	-1E+10	1	-1E+10	1	-1E+10	1
4901784	155	C	10/02/2019	10:51	-132.787	43.477	0	709.40	0	4.1860	0	36.3510	8	28.847	0	702.538	0	15.1	4	4.9	4	-1E+10	1	-1E+10	1	-1E+10	1	-1E+10	1	-1E+10	1	-1E+10	1
4901784	155	C	10/02/2019	10:51	-132.787	43.477	0	714.70	0	4.1870	0	36.3530	8	28.849	0	707.778	0	14.8	4	4.8	4	-1E+10	1	-1E+10	1	-1E+10	1	-1E+10	1	-1E+10	1	-1E+10	1
4901784	155	C	10/02/2019	10:51	-132.787	43.477	0	720.20	0	4.1780	0	36.3550	8	28.851	0	713.215	0	14.6	4	4.7	4	-1E+10	1	-1E+10	1	-1E+10	1	-1E+10	1	-1E+10	1	-1E+10	1
4901784	155	C	10/02/2019	10:51	-132.787	43.477	0	724.80	0	4.1590	0	36.3590	8	28.857	0	717.762	0	14.4	4	4.6	4	-1E+10	1	-1E+10	1	-1E+10	1	-1E+10	1	-1E+10	1	-1E+10	1
4901784	155	C	10/02/2019	10:51	-132.787	43.477	0	729.40	0	4.1370	0	36.3640	8	28.863	0	722.310	0	14.0	4	4.5	4	-1E+10	1	-1E+10	1	-1E+10	1	-1E+10	1	-1E+10	1	-1E+10	1
4901784	155	C	10/02/2019	10:51	-132.787	43.477	0	734.90	0	4.1200	0	36.3690	8	28.869	0	727.747	0	13.7	4	4.4	4	-1E+10	1	-1E+10	1	-1E+10	1	-1E+10	1	-1E+10	1	-1E+10	1
4901784	155	C	10/02/2019	10:51	-132.787	43.477	0	740.40	0	4.1010	0	36.3760	8	28.877	0	733.183	0	13.6	4	4.4	4	-1E+10	1	-1E+10	1	-1E+10	1	-1E+10	1	-1E+10	1	-1E+10	1
4901784	155	C	10/02/2019	10:51	-132.787	43.477	0	745.10	0	4.0740	0	36.3750	8	28.879	0	737.829	0	13.7	4	4.4	4	-1E+10	1	-1E+10	1	-1E+10	1	-1E+10	1	-1E+10	1	-1E+10	1
4901784	155	C	10/02/2019	10:51	-132.787	43.477	0	749.70	0	4.0570	0	36.3780	8	28.883	0	742.376	0	13.4	4	4.3	4	-1E+10	1	-1E+10	1	-1E+10	1	-1E+10	1	-1E+10	1	-1E+10	1
4901784	155	C	10/02/2019	10:51	-132.787	43.477	0	755.40	0	4.0520	0	36.3840	8	28.889	0	748.010	0	13.0	4	4.2	4	-1E+10	1	-1E+10	1	-1E+10	1	-1E+10	1	-1E+10	1	-1E+10	1
4901784	155	C	10/02/2019	10:51	-132.787	43.477	0	760.00	0	4.0540	0	36.3890	8	28.892	0	752.557	0	12.8	4	4.1	4	-1E+10	1	-1E+10	1	-1E+10	1	-1E+10	1	-1E+10	1	-1E+10	1
4901784	155	C	10/02/2019	10:51	-132.787	43.477	0	764.80	0	4.0460	0	36.3900	8	28.894	0	757.301	0	12.6	4	4.1	4	-1E+10	1	-1E+10	1	-1E+10	1	-1E+10	1	-1E+10	1	-1E+10	1
4901784	155	C	10/02/2019	10:51	-132.787	43.477	0	770.50	0	4.0140	0	36.3950	8	28.902	0	762.935	0	12.5	4	4.0	4	-1E+10	1	-1E+10	1	-1E+10	1	-1E+10	1	-1E+10	1	-1E+10	1
4901784	155	C	10/02/2019	10:51	-132.787	43.477	0	775.30	0	3.9930	0	36.3990	8	28.907	0	767.679	0	12.2	4	3.9	4	-1E+10	1	-1E+10	1	-1E+10	1	-1E+10	1	-1E+10	1	-1E+10	1
4901784	155	C	10/02/2019	10:51	-132.787	43.477	0	780.20	0	4.0050	0	36.4040	8	28.910	0	772.522	0	11.9	4	3.8	4	-1E+10	1	-1E+10	1	-1E+10	1	-1E+10	1	-1E+10	1	-1E+10	1
4901784	155	C	10/02/2019	10:51	-132.787	43.477	0	784.50	0	3.9930	0	36.4090	8	28.915	0	776.772	0	11.8	4	3.8	4	-1E+10	1	-1E+10	1	-1E+10	1	-1E+10	1	-1E+10	1	-1E+10	1
4901784	155	C	10/02/2019	10:51	-132.787	43.477	0	789.40	0	3.9850	0	36.4130	8	28.919	0	781.614	0	11.7	4	3.8	4	-1E+10	1	-1E+10	1	-1E+10	1	-1E+10	1	-1E+10	1	-1E+10	1
4901784	155	C	10/02/2019	10:51	-132.787	43.477	0	795.00	0	3.9540	0	36.4130	8	28.923	0	787.148	0	11.8	4	3.8	4	-1E+10	1	-1E+10	1	-1E+10	1	-1E+10	1	-1E+10	1	-1E+10	1
4901784	155	C	10/02/2019	10:51	-132.787	43.477	0	800.60	0	3.9000	0	36.4140	8	28.929	0	792.682	0	11.8	4	3.8	4	-1E+10	1	-1E+10	1	-1E+10	1	-1E+10	1	-1E+10	1	-1E+10	1
4901784	155	C	10/02/2019	10:51	-132.787	43.477	0	805.50	0	3.8890	0	36.4170	8	28.933	0	797.525	0	11.7	4	3.8	4	-1E+10	1	-1E+10	1	-1E+10	1	-1E+10	1	-1E+10	1	-1E+10	1
4901784	155	C	10/02/2019	10:51	-132.787	43.477	0	810.40	0	3.8830	0	36.4200	8	28.936	0	802.367	0	11.5	4	3.7	4	-1E+10	1	-1E+10	1	-1E+10	1	-1E+10	1	-1E+10	1	-1E+10	1
4901784	155	C	10/02/2019	10:51	-132.787	43.477	0	815.30	0	3.8750	0	36.4250	8	28.941	0	807.209	0	11.4	4	3.7	4	-1E+10	1	-1E+10	1	-1E+10	1	-1E+10	1	-1E+10	1	-1E+10	1
4901784	155	C	10/02/2019	10:51	-132.787	43.477	0	820.20	0	3.8550	0	36.4260	8	28.944	0	812.051	0	11.4	4	3.6	4	-1E+10	1	-1E+10	1	-1E+10	1	-1E+10	1	-1E+10	1	-1E+10	1
4901784	155	C	10/02/2019	10:51	-132.787	43.477	0	825.30	0	3.8340	0	36.4320	8	28.951	0	817.090	0	11.2	4	3.6	4	-1E+10	1	-1E+10	1	-1E+10	1	-1E+10	1	-1E+10	1	-1E+10	1
4901784	155	C	10/02/2019	10:51	-132.787	43.477	0	830.30	0	3.8220	0	36.4360	8	28.955	0	822.030	0	11.1	4	3.5	4	-1E+10	1	-1E+10	1	-1E+10	1	-1E+10	1	-1E+10	1	-1E+10	1
4901784	155	C	10/02/2019	10:51	-132.787	43.477	0	835.30	0	3.8090	0	36.4400	8	28.960	0	826.971	0	11.0	4	3.5	4	-1E+10	1	-1E+10	1	-1E+10	1	-1E+10	1	-1E+10	1	-1E+10	1
4901784	155	C	10/02/2019	10:51	-132.787	43.477	0	840.40	0	3.8020	0	36.4420	8	28.962	0	832.010	0	10.9	4	3.5	4	-1E+10	1	-1E+10	1	-1E+10	1	-1E+10	1	-1E+10	1	-1E+10	1
4901784	155	C	10/02/2019	10:51	-132.787	43.477	0	845.50	0	3.8010	0	36.4450	8	28.965	0	837.048	0	10.8	4	3.5	4	-1E+10	1	-1E+10	1	-1E+10	1	-1E+10	1	-1E+10	1	-1E+10	1
4901784	155	C	10/02/2019	10:51	-132.787	43.477	0	850.40	0	3.7810	0	36.4480	8	28.969	0	841.890	0	10.8	4	3.5	4	-1E+10	1	-1E+10	1	-1E+10	1	-1E+10	1	-1E+10	1	-1E+10	1
4901784	155	C	10/02/2019	10:51	-132.787	43.477	0	855.50	0	3.7680	0	36.4510	8	28.973	0	846.928	0	10.8	4	3.4	4	-1E+10	1	-1E+10	1	-1E+10	1	-1E+10	1	-1E+10	1	-1E+10	1
4901784	155	C	10/02/2019	10:51	-132.787	43.477	0	860.60	0	3.7640	0	36.4530	8	28.975	0	851.967	0	10.7	4	3.4	4	-1E+10	1	-1E+10	1	-1E+10	1	-1E+10	1	-1E+10	1	-1E+10	1
4901784	155	C	10/02/2019	10:51	-132.787	43.477	0	865.70	0	3.7530	0	36.4560	8	28.979	0	857.005	0	10.6	4	3.4	4	-1E+10	1	-1E+10	1	-1E+10	1	-1E+10	1	-1E+10	1	-1E+10	1
4901784	155	C	10/02/2019	10:51	-132.787	43.477	0	870.00	0	3.7420	0	36.4600	8	28.983	0	861.253	0	10.6	4	3.4	4	-1E+10	1	-1E+10	1	-1E+10	1	-1E+10	1	-1E+10	1	-1E+10	1
4901784	155	C	10/02/2019	10:51	-132.787	43.477	0	874.20	0	3.7350	0	36.4610	8	28.985	0	865.402	0	10.5	4	3.4	4	-1E+10	1	-1E+10	1	-1E+10	1	-1E+10	1	-1E+10	1	-1E+10	1
4901784	155	C	10/02/2019	10:51	-132.787	43.477	0	879.40	0	3.7150	0	36.4650	8	28.990	0	870.539	0	10.5	4	3.3	4	-1E+10	1	-1E+10	1	-1E+10	1	-1E+10	1	-1E+10	1	-1E+10	1
4901784	155	C	10/02/2019	10:51	-132.787	43.477	0	884.50	0	3.6990	0	36.4690	8	28.995	0	875.577	0	10.4	4	3.3	4	-1E+10	1	-1E+10	1	-1E+10	1	-1E+10	1	-1E+10	1	-1E+10	1
4901784	155	C	10/02/2019	10:51	-132.787	43.477	0	889.70	0	3.6780	0	36.4730	8	29.000	0	880.714	0	10.4	4	3.3	4	-1E+10	1	-1E+10	1	-1E+10	1	-1E+10	1	-1E+10	1	-1E+10	1
4901784	155	C	10/02/2019	10:51	-132.787	43.477	0	894.80	0	3.6660	0	36.4770	8	29.005	0	885.751	0	10.3	4	3.3	4	-1E+10	1	-1E+10	1	-1E+10	1	-1E+10	1	-1E+10	1	-1E+10	1
4901784	155	C	10/02/2019	10:51	-132.787	43.477	0	899.90	0	3.6580	0	36.4800	8	29.008	0	890.789	0	10.3	4	3.3	4	-1E+10	1	-1E+10	1	-1E+10	1	-1E+10	1	-1E+10	1	-1E+10	1
4901784	155	C	10/02/2019	10:51	-132.787	43.477	0	905.00	0	3.6450	0	36.4830	8	29.012	0	895.826	0	10.2	4	3.3	4	-1E+10	1	-1E+10	1	-1E+10	1	-1E+10	1	-1E+10	1	-1E+10	1
4901784	155	C	10/02/2019	10:51	-132.787	43.477	0	910.10	0	3.6340	0	36.4870	8	29.016	0	900.864	0	10.2	4	3.3	4	-1E+10	1	-1E+10	1	-1E+10	1	-1E+10	1	-1E+10	1	-1E+10	1
4901784	155	C	10/02/2019	10:51	-132.787	43.477	0	915.30	0	3.6160	0	36.4920	8	29.022	0	906.000	0	10.2	4	3.3	4	-1E+10	1	-1E+10	1	-1E+10	1	-1E+10	1	-1E+10	1	-1E+10	1
4901784	155	C	10/02/2019	10:51	-132.787	43.477	0	920.50	0	3.6070	0	36.4950	8	29.025	0	911.135	0	10.2	4	3.3	4	-1E+10	1	-1E+10	1	-1E+10	1	-1E+10	1	-1E+10	1	-1E+10	1
4901784	155	C	10/02/2019	10:51	-132.787	43.477	0	925.70	0	3.5990	0	36.4970	8	29.028	0	916.271	0	10.3	4	3.3	4	-1E+10	1	-1E+10	1	-1E+10	1	-1E+10	1	-1E+10	1	-1E+10	1
4901784	155	C	10/02/2019	10:51	-132.787	43.477	0	930.10	0	3.5900	0	36.4990	8	29.030	0	920.617	0	10.3	4	3.3	4	-1E+10	1	-1E+10	1	-1E+10	1	-1E+10	1	-1E+10	1	-1E+10	1
4901784	155	C	10/02/2019	10:51	-132.787	43.477	0	934.40	0	3.5840	0	36.5010	8	29.033	0	924.863	0	10.3	4	3.3	4	-1E+10	1	-1E+10	1	-1E+10	1	-1E+10	1	-1E+10	1	-1E+10	1
4901784	155	C	10/02/2019	10:51	-132.787	43.477	0	939.60	0	3.5730	0	36.5040	8	29.036	0	929.999	0	10.3	4	3.3	4	-1E+10	1	-1E+10	1	-1E+10	1	-1E+10	1	-1E+10	1	-1E+10	1
4901784	155	C	10/02/2019	10:51	-132.787	43.477	0	944.80	0	3.5610	0	36.5060	8	29.039	0	935.134	0	10.3	4	3.3	4	-1E+10	1	-1E+10	1	-1E+10	1	-1E+10	1	-1E+10	1	-1E+10	1
4901784	155	C	10/02/2019	10:51	-132.787	43.477	0	950.10	0	3.5460	0	36.5090	8	29.043	0	940.368	0	10.3	4	3.3	4	-1E+10	1	-1E+10	1	-1E+10	1	-1E+10	1	-1E+10	1	-1E+10	1
4901784	155	C	10/02/2019	10:51	-132.787	43.477	0	955.30	0	3.5310	0	36.5130	8	29.048	0	945.503	0	10.4	4	3.3	4	-1E+10	1	-1E+10	1	-1E+10	1	-1E+10	1	-1E+10	1	-1E+10	1
4901784	155	C	10/02/2019	10:51	-132.787	43.477	0	960.50	0	3.5220	0	36.5170	8	29.052	0	950.638	0	10.4	4	3.3	4	-1E+10	1	-1E+10	1	-1E+10	1	-1E+10	1	-1E+10	1	-1E+10	1
4901784	155	C	10/02/2019	10:51	-132.787	43.477	0	965.00	0	3.5130	0	36.5200	8	29.055	0	955.081	0	10.4	4	3.3	4	-1E+10	1	-1E+10	1	-1E+10	1	-1E+10	1	-1E+10	1	-1E+10	1
4901784	155	C	10/02/2019	10:51	-132.787	43.477	0	969.40	0	3.5060	0	36.5210	8	29.057	0	959.426	0	10.5	4	3.3	4	-1E+10	1	-1E+10	1	-1E+10	1	-1E+10	1	-1E+10	1	-1E+10	1
4901784	155	C	10/02/2019	10:51	-132.787	43.477	0	974.70	0	3.4980	0	36.5230	8	29.059	0	964.659	0	10.5	4	3.3	4	-1E+10	1	-1E+10	1	-1E+10	1	-1E+10	1	-1E+10	1	-1E+10	1
4901784	155	C	10/02/2019	10:51	-132.787	43.477	0	980.10	0	3.4830	0	36.5270	8	29.064	0	969.991	0	10.6	4	3.4	4	-1E+10	1	-1E+10	1	-1E+10	1	-1E+10	1	-1E+10	1	-1E+10	1
4901784	155	C	10/02/2019	10:51	-132.787	43.477	0	985.50	0	3.4690	0	36.5310	8	29.069	0	975.323	0	10.6	4	3.4	4	-1E+10	1	-1E+10	1	-1E+10	1	-1E+10	1	-1E+10	1	-1E+10	1
4901784	155	C	10/02/2019	10:51	-132.787	43.477	0	990.10	0	3.4580	0	36.5330	8	29.071	0	979.865	0	10.7	4	3.4	4	-1E+10	1	-1E+10	1	-1E+10	1	-1E+10	1	-1E+10	1	-1E+10	1
4901784	155	C	10/02/2019	10:51	-132.787	43.477	0	994.60	0	3.4510	0	36.5350	8	29.074	0	984.308	0	10.7	4	3.4	4	-1E+10	1	-1E+10	1	-1E+10	1	-1E+10	1	-1E+10	1	-1E+10	1
4901784	155	C	10/02/2019	10:51	-132.787	43.477	0	1000.10	0	3.4430	0	36.5380	8	29.077	0	989.738	0	10.7	4	3.4	4	-1E+10	1	-1E+10	1	-1E+10	1	-1E+10	1	-1E+10	1	-1E+10	1
4901784	155	C	10/02/2019	10:51	-132.787	43.477	0	1005.60	0	3.4300	0	36.5400	8	29.080	0	995.168	0	10.8	4	3.4	4	-1E+10	1	-1E+10	1	-1E+10	1	-1E+10	1	-1E+10	1	-1E+10	1
4901784	155	C	10/02/2019	10:51	-132.787	43.477	0	1010.20	0	3.4140	0	36.5440	8	29.085	0	999.709	0	10.8	4	3.4	4	-1E+10	1	-1E+10	1	-1E+10	1	-1E+10	1	-1E+10	1	-1E+10	1
4901784	155	C	10/02/2019	10:51	-132.787	43.477	0	1014.90	0	3.4050	0	36.5450	8	29.087	0	1004.349	0	10.9	4	3.5	4	-1E+10	1	-1E+10	1	-1E+10	1	-1E+10	1	-1E+10	1	-1E+10	1
4901784	155	C	10/02/2019	10:51	-132.787	43.477	0	1020.10	0	3.3920	0	36.5480	8	29.090	0	1009.482	0	11.0	4	3.5	4	-1E+10	1	-1E+10	1	-1E+10	1	-1E+10	1	-1E+10	1	-1E+10	1
4901784	155	C	10/02/2019	10:51	-132.787	43.477	0	1025.10	0	3.3810	0	36.5500	8	29.093	0	1014.418	0	11.0	4	3.5	4	-1E+10	1	-1E+10	1	-1E+10	1	-1E+10	1	-1E+10	1	-1E+10	1
4901784	155	C	10/02/2019	10:51	-132.787	43.477	0	1030.80	0	3.3690	0	36.5520	8	29.096	0	1020.045	0	11.1	4	3.5	4	-1E+10	1	-1E+10	1	-1E+10	1	-1E+10	1	-1E+10	1	-1E+10	1
4901784	155	C	10/02/2019	10:51	-132.787	43.477	0	1035.70	0	3.3550	0	36.5530	8	29.098	0	1024.882	0	11.2	4	3.5	4	-1E+10	1	-1E+10	1	-1E+10	1	-1E+10	1	-1E+10	1	-1E+10	1
4901784	155	C	10/02/2019	10:51	-132.787	43.477	0	1040.60	0	3.3410	0	36.5560	8	29.102	0	1029.719	0	11.3	4	3.6	4	-1E+10	1	-1E+10	1	-1E+10	1	-1E+10	1	-1E+10	1	-1E+10	1
4901784	155	C	10/02/2019	10:51	-132.787	43.477	0	1045.60	0	3.3310	0	36.5580	8	29.105	0	1034.654	0	11.3	4	3.6	4	-1E+10	1	-1E+10	1	-1E+10	1	-1E+10	1	-1E+10	1	-1E+10	1
4901784	155	C	10/02/2019	10:51	-132.787	43.477	0	1050.50	0	3.3190	0	36.5600	8	29.107	0	1039.491	0	11.4	4	3.6	4	-1E+10	1	-1E+10	1	-1E+10	1	-1E+10	1	-1E+10	1	-1E+10	1
4901784	155	C	10/02/2019	10:51	-132.787	43.477	0	1055.60	0	3.3120	0	36.5610	8	29.109	0	1044.524	0	11.5	4	3.6	4	-1E+10	1	-1E+10	1	-1E+10	1	-1E+10	1	-1E+10	1	-1E+10	1
4901784	155	C	10/02/2019	10:51	-132.787	43.477	0	1060.60	0	3.3020	0	36.5620	8	29.111	0	1049.459	0	11.6	4	3.7	4	-1E+10	1	-1E+10	1	-1E+10	1	-1E+10	1	-1E+10	1	-1E+10	1
4901784	155	C	10/02/2019	10:51	-132.787	43.477	0	1065.60	0	3.2890	0	36.5650	8	29.115	0	1054.394	0	11.6	4	3.7	4	-1E+10	1	-1E+10	1	-1E+10	1	-1E+10	1	-1E+10	1	-1E+10	1
4901784	155	C	10/02/2019	10:51	-132.787	43.477	0	1070.70	0	3.2830	0	36.5660	8	29.116	0	1059.428	0	11.7	4	3.7	4	-1E+10	1	-1E+10	1	-1E+10	1	-1E+10	1	-1E+10	1	-1E+10	1
4901784	155	C	10/02/2019	10:51	-132.787	43.477	0	1075.00	0	3.2770	0	36.5670	8	29.117	0	1063.672	0	11.7	4	3.7	4	-1E+10	1	-1E+10	1	-1E+10	1	-1E+10	1	-1E+10	1	-1E+10	1
4901784	155	C	10/02/2019	10:51	-132.787	43.477	0	1079.20	0	3.2700	0	36.5690	8	29.120	0	1067.817	0	11.8	4	3.7	4	-1E+10	1	-1E+10	1	-1E+10	1	-1E+10	1	-1E+10	1	-1E+10	1
4901784	155	C	10/02/2019	10:51	-132.787	43.477	0	1084.30	0	3.2650	0	36.5690	8	29.120	0	1072.850	0	11.9	4	3.8	4	-1E+10	1	-1E+10	1	-1E+10	1	-1E+10	1	-1E+10	1	-1E+10	1
4901784	155	C	10/02/2019	10:51	-132.787	43.477	0	1089.30	0	3.2530	0	36.5710	8	29.123	0	1077.784	0	12.0	4	3.8	4	-1E+10	1	-1E+10	1	-1E+10	1	-1E+10	1	-1E+10	1	-1E+10	1
4901784	155	C	10/02/2019	10:51	-132.787	43.477	0	1094.40	0	3.2430	0	36.5730	8	29.126	0	1082.817	0	12.0	4	3.8	4	-1E+10	1	-1E+10	1	-1E+10	1	-1E+10	1	-1E+10	1	-1E+10	1
4901784	155	C	10/02/2019	10:51	-132.787	43.477	0	1100.20	0	3.2330	0	36.5750	8	29.128	0	1088.541	0	12.1	4	3.8	4	-1E+10	1	-1E+10	1	-1E+10	1	-1E+10	1	-1E+10	1	-1E+10	1
4901784	155	C	10/02/2019	10:51	-132.787	43.477	0	1104.80	0	3.2270	0	36.5760	8	29.130	0	1093.080	0	12.2	4	3.8	4	-1E+10	1	-1E+10	1	-1E+10	1	-1E+10	1	-1E+10	1	-1E+10	1
4901784	155	C	10/02/2019	10:51	-132.787	43.477	0	1109.90	0	3.2170	0	36.5780	8	29.132	0	1098.113	0	12.3	4	3.9	4	-1E+10	1	-1E+10	1	-1E+10	1	-1E+10	1	-1E+10	1	-1E+10	1
4901784	155	C	10/02/2019	10:51	-132.787	43.477	0	1115.50	0	3.2100	0	36.5800	8	29.135	0	1103.638	0	12.3	4	3.9	4	-1E+10	1	-1E+10	1	-1E+10	1	-1E+10	1	-1E+10	1	-1E+10	1
4901784	155	C	10/02/2019	10:51	-132.787	43.477	0	1120.30	0	3.2040	0	36.5810	8	29.136	0	1108.375	0	12.4	4	3.9	4	-1E+10	1	-1E+10	1	-1E+10	1	-1E+10	1	-1E+10	1	-1E+10	1
4901784	155	C	10/02/2019	10:51	-132.787	43.477	0	1125.30	0	3.1980	0	36.5820	8	29.138	0	1113.308	0	12.5	4	3.9	4	-1E+10	1	-1E+10	1	-1E+10	1	-1E+10	1	-1E+10	1	-1E+10	1
4901784	155	C	10/02/2019	10:51	-132.787	43.477	0	1130.20	0	3.1950	0	36.5830	8	29.139	0	1118.143	0	12.5	4	3.9	4	-1E+10	1	-1E+10	1	-1E+10	1	-1E+10	1	-1E+10	1	-1E+10	1
4901784	155	C	10/02/2019	10:51	-132.787	43.477	0	1135.20	0	3.1940	0	36.5830	8	29.139	0	1123.076	0	12.5	4	3.9	4	-1E+10	1	-1E+10	1	-1E+10	1	-1E+10	1	-1E+10	1	-1E+10	1
4901784	155	C	10/02/2019	10:51	-132.787	43.477	0	1140.30	0	3.1910	0	36.5840	8	29.140	0	1128.108	0	12.6	4	4.0	4	-1E+10	1	-1E+10	1	-1E+10	1	-1E+10	1	-1E+10	1	-1E+10	1
4901784	155	C	10/02/2019	10:51	-132.787	43.477	0	1145.30	0	3.1830	0	36.5850	8	29.142	0	1133.041	0	12.7	4	4.0	4	-1E+10	1	-1E+10	1	-1E+10	1	-1E+10	1	-1E+10	1	-1E+10	1
4901784	155	C	10/02/2019	10:51	-132.787	43.477	0	1150.40	0	3.1760	0	36.5860	8	29.143	0	1138.073	0	12.8	4	4.0	4	-1E+10	1	-1E+10	1	-1E+10	1	-1E+10	1	-1E+10	1	-1E+10	1
4901784	155	C	10/02/2019	10:51	-132.787	43.477	0	1155.50	0	3.1710	0	36.5870	8	29.144	0	1143.104	0	12.9	4	4.1	4	-1E+10	1	-1E+10	1	-1E+10	1	-1E+10	1	-1E+10	1	-1E+10	1
4901784	155	C	10/02/2019	10:51	-132.787	43.477	0	1160.70	0	3.1620	0	36.5900	8	29.148	0	1148.234	0	13.1	4	4.1	4	-1E+10	1	-1E+10	1	-1E+10	1	-1E+10	1	-1E+10	1	-1E+10	1
4901784	155	C	10/02/2019	10:51	-132.787	43.477	0	1165.00	0	3.1550	0	36.5910	8	29.149	0	1152.476	0	13.2	4	4.2	4	-1E+10	1	-1E+10	1	-1E+10	1	-1E+10	1	-1E+10	1	-1E+10	1
4901784	155	C	10/02/2019	10:51	-132.787	43.477	0	1169.20	0	3.1450	0	36.5930	8	29.152	0	1156.620	0	13.3	4	4.2	4	-1E+10	1	-1E+10	1	-1E+10	1	-1E+10	1	-1E+10	1	-1E+10	1
4901784	155	C	10/02/2019	10:51	-132.787	43.477	0	1174.30	0	3.1340	0	36.5950	8	29.155	0	1161.651	0	13.5	4	4.2	4	-1E+10	1	-1E+10	1	-1E+10	1	-1E+10	1	-1E+10	1	-1E+10	1
4901784	155	C	10/02/2019	10:51	-132.787	43.477	0	1179.50	0	3.1250	0	36.5960	8	29.156	0	1166.780	0	13.6	4	4.3	4	-1E+10	1	-1E+10	1	-1E+10	1	-1E+10	1	-1E+10	1	-1E+10	1
4901784	155	C	10/02/2019	10:51	-132.787	43.477	0	1184.80	0	3.1190	0	36.5970	8	29.158	0	1172.008	0	13.7	4	4.3	4	-1E+10	1	-1E+10	1	-1E+10	1	-1E+10	1	-1E+10	1	-1E+10	1
4901784	155	C	10/02/2019	10:51	-132.787	43.477	0	1190.10	0	3.1060	0	36.6000	8	29.161	0	1177.236	0	13.9	4	4.4	4	-1E+10	1	-1E+10	1	-1E+10	1	-1E+10	1	-1E+10	1	-1E+10	1
4901784	155	C	10/02/2019	10:51	-132.787	43.477	0	1195.40	0	3.0920	0	36.6030	8	29.165	0	1182.464	0	14.1	4	4.4	4	-1E+10	1	-1E+10	1	-1E+10	1	-1E+10	1	-1E+10	1	-1E+10	1
4901784	155	C	10/02/2019	10:51	-132.787	43.477	0	1200.70	0	3.0850	0	36.6030	8	29.166	0	1187.692	0	14.3	4	4.5	4	-1E+10	1	-1E+10	1	-1E+10	1	-1E+10	1	-1E+10	1	-1E+10	1
4901784	155	C	10/02/2019	10:51	-132.787	43.477	0	1205.00	0	3.0720	0	36.6060	8	29.170	0	1191.933	0	14.5	4	4.6	4	-1E+10	1	-1E+10	1	-1E+10	1	-1E+10	1	-1E+10	1	-1E+10	1
4901784	155	C	10/02/2019	10:51	-132.787	43.477	0	1209.40	0	3.0610	0	36.6080	8	29.172	0	1196.273	0	14.6	4	4.6	4	-1E+10	1	-1E+10	1	-1E+10	1	-1E+10	1	-1E+10	1	-1E+10	1
4901784	155	C	10/02/2019	10:51	-132.787	43.477	0	1214.80	0	3.0480	0	36.6100	8	29.175	0	1201.599	0	14.8	4	4.6	4	-1E+10	1	-1E+10	1	-1E+10	1	-1E+10	1	-1E+10	1	-1E+10	1
4901784	155	C	10/02/2019	10:51	-132.787	43.477	0	1220.10	0	3.0400	0	36.6100	8	29.176	0	1206.826	0	14.9	4	4.7	4	-1E+10	1	-1E+10	1	-1E+10	1	-1E+10	1	-1E+10	1	-1E+10	1
4901784	155	C	10/02/2019	10:51	-132.787	43.477	0	1225.50	0	3.0240	0	36.6130	8	29.180	0	1212.152	0	15.1	4	4.7	4	-1E+10	1	-1E+10	1	-1E+10	1	-1E+10	1	-1E+10	1	-1E+10	1
4901784	155	C	10/02/2019	10:51	-132.787	43.477	0	1230.00	0	3.0150	0	36.6140	8	29.182	0	1216.590	0	15.3	4	4.8	4	-1E+10	1	-1E+10	1	-1E+10	1	-1E+10	1	-1E+10	1	-1E+10	1
4901784	155	C	10/02/2019	10:51	-132.787	43.477	0	1234.30	0	3.0030	0	36.6160	8	29.184	0	1220.830	0	15.4	4	4.8	4	-1E+10	1	-1E+10	1	-1E+10	1	-1E+10	1	-1E+10	1	-1E+10	1
4901784	155	C	10/02/2019	10:51	-132.787	43.477	0	1239.70	0	2.9890	0	36.6180	8	29.187	0	1226.156	0	15.6	4	4.9	4	-1E+10	1	-1E+10	1	-1E+10	1	-1E+10	1	-1E+10	1	-1E+10	1
4901784	155	C	10/02/2019	10:51	-132.787	43.477	0	1244.70	0	2.9790	0	36.6190	8	29.189	0	1231.086	0	15.7	4	4.9	4	-1E+10	1	-1E+10	1	-1E+10	1	-1E+10	1	-1E+10	1	-1E+10	1
4901784	155	C	10/02/2019	10:51	-132.787	43.477	0	1249.80	0	2.9680	0	36.6200	8	29.191	0	1236.116	0	15.9	4	5.0	4	-1E+10	1	-1E+10	1	-1E+10	1	-1E+10	1	-1E+10	1	-1E+10	1
4901784	155	C	10/02/2019	10:51	-132.787	43.477	0	1254.80	0	2.9570	0	36.6220	8	29.194	0	1241.046	0	16.1	4	5.0	4	-1E+10	1	-1E+10	1	-1E+10	1	-1E+10	1	-1E+10	1	-1E+10	1
4901784	155	C	10/02/2019	10:51	-132.787	43.477	0	1259.90	0	2.9490	0	36.6230	8	29.195	0	1246.075	0	16.3	4	5.1	4	-1E+10	1	-1E+10	1	-1E+10	1	-1E+10	1	-1E+10	1	-1E+10	1
4901784	155	C	10/02/2019	10:51	-132.787	43.477	0	1265.00	0	2.9330	0	36.6250	8	29.199	0	1251.104	0	16.5	4	5.2	4	-1E+10	1	-1E+10	1	-1E+10	1	-1E+10	1	-1E+10	1	-1E+10	1
4901784	155	C	10/02/2019	10:51	-132.787	43.477	0	1270.20	0	2.9230	0	36.6270	8	29.201	0	1256.231	0	16.6	4	5.2	4	-1E+10	1	-1E+10	1	-1E+10	1	-1E+10	1	-1E+10	1	-1E+10	1
4901784	155	C	10/02/2019	10:51	-132.787	43.477	0	1275.40	0	2.9170	0	36.6270	8	29.202	0	1261.359	0	16.7	4	5.2	4	-1E+10	1	-1E+10	1	-1E+10	1	-1E+10	1	-1E+10	1	-1E+10	1
4901784	155	C	10/02/2019	10:51	-132.787	43.477	0	1280.70	0	2.9100	0	36.6280	8	29.203	0	1266.584	0	16.9	4	5.3	4	-1E+10	1	-1E+10	1	-1E+10	1	-1E+10	1	-1E+10	1	-1E+10	1
4901784	155	C	10/02/2019	10:51	-132.787	43.477	0	1285.20	0	2.9010	0	36.6300	8	29.206	0	1271.021	0	17.0	4	5.3	4	-1E+10	1	-1E+10	1	-1E+10	1	-1E+10	1	-1E+10	1	-1E+10	1
4901784	155	C	10/02/2019	10:51	-132.787	43.477	0	1289.60	0	2.8950	0	36.6310	8	29.207	0	1275.359	0	17.1	4	5.4	4	-1E+10	1	-1E+10	1	-1E+10	1	-1E+10	1	-1E+10	1	-1E+10	1
4901784	155	C	10/02/2019	10:51	-132.787	43.477	0	1295.00	0	2.8890	0	36.6320	8	29.209	0	1280.683	0	17.2	4	5.4	4	-1E+10	1	-1E+10	1	-1E+10	1	-1E+10	1	-1E+10	1	-1E+10	1
4901784	155	C	10/02/2019	10:51	-132.787	43.477	0	1300.40	0	2.8830	0	36.6330	8	29.210	0	1286.007	0	17.3	4	5.4	4	-1E+10	1	-1E+10	1	-1E+10	1	-1E+10	1	-1E+10	1	-1E+10	1
4901784	155	C	10/02/2019	10:51	-132.787	43.477	0	1304.90	0	2.8770	0	36.6340	8	29.211	0	1290.444	0	17.4	4	5.5	4	-1E+10	1	-1E+10	1	-1E+10	1	-1E+10	1	-1E+10	1	-1E+10	1
4901784	155	C	10/02/2019	10:51	-132.787	43.477	0	1309.30	0	2.8710	0	36.6350	8	29.213	0	1294.781	0	17.6	4	5.5	4	-1E+10	1	-1E+10	1	-1E+10	1	-1E+10	1	-1E+10	1	-1E+10	1
4901784	155	C	10/02/2019	10:51	-132.787	43.477	0	1314.80	0	2.8650	0	36.6350	8	29.213	0	1300.203	0	17.7	4	5.5	4	-1E+10	1	-1E+10	1	-1E+10	1	-1E+10	1	-1E+10	1	-1E+10	1
4901784	155	C	10/02/2019	10:51	-132.787	43.477	0	1320.20	0	2.8590	0	36.6360	8	29.215	0	1305.527	0	17.9	4	5.6	4	-1E+10	1	-1E+10	1	-1E+10	1	-1E+10	1	-1E+10	1	-1E+10	1
4901784	155	C	10/02/2019	10:51	-132.787	43.477	0	1325.60	0	2.8510	0	36.6370	8	29.216	0	1310.850	0	18.0	4	5.6	4	-1E+10	1	-1E+10	1	-1E+10	1	-1E+10	1	-1E+10	1	-1E+10	1
4901784	155	C	10/02/2019	10:51	-132.787	43.477	0	1330.10	0	2.8460	0	36.6380	8	29.218	0	1315.286	0	18.2	4	5.7	4	-1E+10	1	-1E+10	1	-1E+10	1	-1E+10	1	-1E+10	1	-1E+10	1
4901784	155	C	10/02/2019	10:51	-132.787	43.477	0	1334.60	0	2.8380	0	36.6390	8	29.219	0	1319.722	0	18.4	4	5.7	4	-1E+10	1	-1E+10	1	-1E+10	1	-1E+10	1	-1E+10	1	-1E+10	1
4901784	155	C	10/02/2019	10:51	-132.787	43.477	0	1340.00	0	2.8270	0	36.6410	8	29.222	0	1325.044	0	18.6	4	5.8	4	-1E+10	1	-1E+10	1	-1E+10	1	-1E+10	1	-1E+10	1	-1E+10	1
4901784	155	C	10/02/2019	10:51	-132.787	43.477	0	1345.30	0	2.8170	0	36.6420	8	29.224	0	1330.269	0	18.8	4	5.9	4	-1E+10	1	-1E+10	1	-1E+10	1	-1E+10	1	-1E+10	1	-1E+10	1
4901784	155	C	10/02/2019	10:51	-132.787	43.477	0	1349.80	0	2.8100	0	36.6430	8	29.225	0	1334.704	0	18.9	4	5.9	4	-1E+10	1	-1E+10	1	-1E+10	1	-1E+10	1	-1E+10	1	-1E+10	1
4901784	155	C	10/02/2019	10:51	-132.787	43.477	0	1354.40	0	2.8050	0	36.6440	8	29.226	0	1339.238	0	19.0	4	5.9	4	-1E+10	1	-1E+10	1	-1E+10	1	-1E+10	1	-1E+10	1	-1E+10	1
4901784	155	C	10/02/2019	10:51	-132.787	43.477	0	1359.90	0	2.8010	0	36.6450	8	29.228	0	1344.659	0	19.2	4	6.0	4	-1E+10	1	-1E+10	1	-1E+10	1	-1E+10	1	-1E+10	1	-1E+10	1
4901784	155	C	10/02/2019	10:51	-132.787	43.477	0	1365.50	0	2.7980	0	36.6450	8	29.228	0	1350.178	0	19.3	4	6.0	4	-1E+10	1	-1E+10	1	-1E+10	1	-1E+10	1	-1E+10	1	-1E+10	1
4901784	155	C	10/02/2019	10:51	-132.787	43.477	0	1370.20	0	2.7930	0	36.6460	8	29.229	0	1354.810	0	19.5	4	6.1	4	-1E+10	1	-1E+10	1	-1E+10	1	-1E+10	1	-1E+10	1	-1E+10	1
4901784	155	C	10/02/2019	10:51	-132.787	43.477	0	1374.90	0	2.7860	0	36.6470	8	29.231	0	1359.443	0	19.7	4	6.1	4	-1E+10	1	-1E+10	1	-1E+10	1	-1E+10	1	-1E+10	1	-1E+10	1
4901784	155	C	10/02/2019	10:51	-132.787	43.477	0	1380.50	0	2.7750	0	36.6480	8	29.233	0	1364.961	0	19.9	4	6.2	4	-1E+10	1	-1E+10	1	-1E+10	1	-1E+10	1	-1E+10	1	-1E+10	1
4901784	155	C	10/02/2019	10:51	-132.787	43.477	0	1385.30	0	2.7700	0	36.6490	8	29.234	0	1369.692	0	20.1	4	6.3	4	-1E+10	1	-1E+10	1	-1E+10	1	-1E+10	1	-1E+10	1	-1E+10	1
4901784	155	C	10/02/2019	10:51	-132.787	43.477	0	1390.00	0	2.7600	0	36.6510	8	29.236	0	1374.324	0	20.3	4	6.3	4	-1E+10	1	-1E+10	1	-1E+10	1	-1E+10	1	-1E+10	1	-1E+10	1
4901784	155	C	10/02/2019	10:51	-132.787	43.477	0	1394.80	0	2.7530	0	36.6520	8	29.238	0	1379.054	0	20.5	4	6.4	4	-1E+10	1	-1E+10	1	-1E+10	1	-1E+10	1	-1E+10	1	-1E+10	1
4901784	155	C	10/02/2019	10:51	-132.787	43.477	0	1399.50	0	2.7460	0	36.6530	8	29.239	0	1383.685	0	20.8	4	6.5	4	-1E+10	1	-1E+10	1	-1E+10	1	-1E+10	1	-1E+10	1	-1E+10	1
4901784	155	C	10/02/2019	10:51	-132.787	43.477	0	1405.30	0	2.7360	0	36.6540	8	29.241	0	1389.401	0	21.0	4	6.6	4	-1E+10	1	-1E+10	1	-1E+10	1	-1E+10	1	-1E+10	1	-1E+10	1
4901784	155	C	10/02/2019	10:51	-132.787	43.477	0	1409.60	0	2.7270	0	36.6550	8	29.243	0	1393.638	0	21.3	4	6.6	4	-1E+10	1	-1E+10	1	-1E+10	1	-1E+10	1	-1E+10	1	-1E+10	1
4901784	155	C	10/02/2019	10:51	-132.787	43.477	0	1414.60	0	2.7180	0	36.6570	8	29.245	0	1398.565	0	21.4	4	6.7	4	-1E+10	1	-1E+10	1	-1E+10	1	-1E+10	1	-1E+10	1	-1E+10	1
4901784	155	C	10/02/2019	10:51	-132.787	43.477	0	1419.50	0	2.7130	0	36.6570	8	29.246	0	1403.393	0	21.6	4	6.7	4	-1E+10	1	-1E+10	1	-1E+10	1	-1E+10	1	-1E+10	1	-1E+10	1
4901784	155	C	10/02/2019	10:51	-132.787	43.477	0	1424.40	0	2.7100	0	36.6580	8	29.247	0	1408.221	0	21.7	4	6.8	4	-1E+10	1	-1E+10	1	-1E+10	1	-1E+10	1	-1E+10	1	-1E+10	1
4901784	155	C	10/02/2019	10:51	-132.787	43.477	0	1429.30	0	2.7040	0	36.6580	8	29.248	0	1413.049	0	22.0	4	6.9	4	-1E+10	1	-1E+10	1	-1E+10	1	-1E+10	1	-1E+10	1	-1E+10	1
4901784	155	C	10/02/2019	10:51	-132.787	43.477	0	1434.40	0	2.6890	0	36.6610	8	29.251	0	1418.074	0	22.4	4	7.0	4	-1E+10	1	-1E+10	1	-1E+10	1	-1E+10	1	-1E+10	1	-1E+10	1
4901784	155	C	10/02/2019	10:51	-132.787	43.477	0	1439.30	0	2.6790	0	36.6620	8	29.253	0	1422.901	0	22.6	4	7.0	4	-1E+10	1	-1E+10	1	-1E+10	1	-1E+10	1	-1E+10	1	-1E+10	1
4901784	155	C	10/02/2019	10:51	-132.787	43.477	0	1444.30	0	2.6720	0	36.6630	8	29.255	0	1427.828	0	22.8	4	7.1	4	-1E+10	1	-1E+10	1	-1E+10	1	-1E+10	1	-1E+10	1	-1E+10	1
4901784	155	C	10/02/2019	10:51	-132.787	43.477	0	1449.30	0	2.6660	0	36.6640	8	29.256	0	1432.754	0	23.1	4	7.2	4	-1E+10	1	-1E+10	1	-1E+10	1	-1E+10	1	-1E+10	1	-1E+10	1
4901784	155	C	10/02/2019	10:51	-132.787	43.477	0	1454.30	0	2.6540	0	36.6650	8	29.258	0	1437.680	0	23.6	4	7.3	4	-1E+10	1	-1E+10	1	-1E+10	1	-1E+10	1	-1E+10	1	-1E+10	1
4901784	155	C	10/02/2019	10:51	-132.787	43.477	0	1459.30	0	2.6360	0	36.6670	8	29.261	0	1442.605	0	24.0	4	7.5	4	-1E+10	1	-1E+10	1	-1E+10	1	-1E+10	1	-1E+10	1	-1E+10	1
4901784	155	C	10/02/2019	10:51	-132.787	43.477	0	1464.30	0	2.6190	0	36.6700	8	29.265	0	1447.531	0	24.5	4	7.6	4	-1E+10	1	-1E+10	1	-1E+10	1	-1E+10	1	-1E+10	1	-1E+10	1
4901784	155	C	10/02/2019	10:51	-132.787	43.477	0	1469.30	0	2.6070	0	36.6720	8	29.268	0	1452.457	0	24.8	4	7.7	4	-1E+10	1	-1E+10	1	-1E+10	1	-1E+10	1	-1E+10	1	-1E+10	1
4901784	155	C	10/02/2019	10:51	-132.787	43.477	0	1474.40	0	2.5940	0	36.6730	8	29.270	0	1457.480	0	25.2	4	7.8	4	-1E+10	1	-1E+10	1	-1E+10	1	-1E+10	1	-1E+10	1	-1E+10	1
4901784	155	C	10/02/2019	10:51	-132.787	43.477	0	1479.50	0	2.5780	0	36.6750	8	29.273	0	1462.504	0	25.5	4	7.9	4	-1E+10	1	-1E+10	1	-1E+10	1	-1E+10	1	-1E+10	1	-1E+10	1
4901784	155	C	10/02/2019	10:51	-132.787	43.477	0	1484.70	0	2.5750	0	36.6750	8	29.273	0	1467.626	0	25.7	4	8.0	4	-1E+10	1	-1E+10	1	-1E+10	1	-1E+10	1	-1E+10	1	-1E+10	1
4901784	155	C	10/02/2019	10:51	-132.787	43.477	0	1489.80	0	2.5650	0	36.6770	8	29.276	0	1472.650	0	26.0	4	8.1	4	-1E+10	1	-1E+10	1	-1E+10	1	-1E+10	1	-1E+10	1	-1E+10	1
4901784	155	C	10/02/2019	10:51	-132.787	43.477	0	1495.00	0	2.5530	0	36.6790	8	29.279	0	1477.772	0	26.4	4	8.2	4	-1E+10	1	-1E+10	1	-1E+10	1	-1E+10	1	-1E+10	1	-1E+10	1
4901784	155	C	10/02/2019	10:51	-132.787	43.477	0	1500.20	0	2.5460	0	36.6790	8	29.279	0	1482.894	0	26.6	4	8.3	4	-1E+10	1	-1E+10	1	-1E+10	1	-1E+10	1	-1E+10	1	-1E+10	1
4901784	155	C	10/02/2019	10:51	-132.787	43.477	0	1505.30	0	2.5390	0	36.6800	8	29.281	0	1487.917	0	26.9	4	8.4	4	-1E+10	1	-1E+10	1	-1E+10	1	-1E+10	1	-1E+10	1	-1E+10	1
4901784	155	C	10/02/2019	10:51	-132.787	43.477	0	1510.50	0	2.5260	0	36.6820	8	29.283	0	1493.039	0	27.4	4	8.5	4	-1E+10	1	-1E+10	1	-1E+10	1	-1E+10	1	-1E+10	1	-1E+10	1
4901784	155	C	10/02/2019	10:51	-132.787	43.477	0	1515.70	0	2.5170	0	36.6830	8	29.285	0	1498.160	0	27.7	4	8.6	4	-1E+10	1	-1E+10	1	-1E+10	1	-1E+10	1	-1E+10	1	-1E+10	1
4901784	155	C	10/02/2019	10:51	-132.787	43.477	0	1520.10	0	2.5080	0	36.6850	8	29.288	0	1502.494	0	28.0	4	8.7	4	-1E+10	1	-1E+10	1	-1E+10	1	-1E+10	1	-1E+10	1	-1E+10	1
4901784	155	C	10/02/2019	10:51	-132.787	43.477	0	1524.40	0	2.5000	0	36.6850	8	29.288	0	1506.729	0	28.2	4	8.8	4	-1E+10	1	-1E+10	1	-1E+10	1	-1E+10	1	-1E+10	1	-1E+10	1
4901784	155	C	10/02/2019	10:51	-132.787	43.477	0	1529.70	0	2.4880	0	36.6860	8	29.290	0	1511.948	0	28.6	4	8.9	4	-1E+10	1	-1E+10	1	-1E+10	1	-1E+10	1	-1E+10	1	-1E+10	1
4901784	155	C	10/02/2019	10:51	-132.787	43.477	0	1535.10	0	2.4750	0	36.6880	8	29.293	0	1517.266	0	28.9	4	9.0	4	-1E+10	1	-1E+10	1	-1E+10	1	-1E+10	1	-1E+10	1	-1E+10	1
4901784	155	C	10/02/2019	10:51	-132.787	43.477	0	1540.50	0	2.4700	0	36.6890	8	29.294	0	1522.584	0	29.2	4	9.0	4	-1E+10	1	-1E+10	1	-1E+10	1	-1E+10	1	-1E+10	1	-1E+10	1
4901784	155	C	10/02/2019	10:51	-132.787	43.477	0	1545.00	0	2.4640	0	36.6890	8	29.295	0	1527.015	0	29.4	4	9.1	4	-1E+10	1	-1E+10	1	-1E+10	1	-1E+10	1	-1E+10	1	-1E+10	1
4901784	155	C	10/02/2019	10:51	-132.787	43.477	0	1549.60	0	2.4530	0	36.6910	8	29.297	0	1531.545	0	29.7	4	9.2	4	-1E+10	1	-1E+10	1	-1E+10	1	-1E+10	1	-1E+10	1	-1E+10	1
4901784	155	C	10/02/2019	10:51	-132.787	43.477	0	1555.00	0	2.4490	0	36.6910	8	29.298	0	1536.863	0	30.0	4	9.3	4	-1E+10	1	-1E+10	1	-1E+10	1	-1E+10	1	-1E+10	1	-1E+10	1
4901784	155	C	10/02/2019	10:51	-132.787	43.477	0	1560.50	0	2.4410	0	36.6920	8	29.299	0	1542.278	0	30.2	4	9.4	4	-1E+10	1	-1E+10	1	-1E+10	1	-1E+10	1	-1E+10	1	-1E+10	1
4901784	155	C	10/02/2019	10:51	-132.787	43.477	0	1564.60	0	2.4350	0	36.6930	8	29.301	0	1546.316	0	30.4	4	9.4	4	-1E+10	1	-1E+10	1	-1E+10	1	-1E+10	1	-1E+10	1	-1E+10	1
4901784	155	C	10/02/2019	10:51	-132.787	43.477	0	1569.50	0	2.4280	0	36.6940	8	29.302	0	1551.140	0	30.7	4	9.5	4	-1E+10	1	-1E+10	1	-1E+10	1	-1E+10	1	-1E+10	1	-1E+10	1
4901784	155	C	10/02/2019	10:51	-132.787	43.477	0	1574.30	0	2.4210	0	36.6950	8	29.304	0	1555.867	0	31.0	4	9.6	4	-1E+10	1	-1E+10	1	-1E+10	1	-1E+10	1	-1E+10	1	-1E+10	1
4901784	155	C	10/02/2019	10:51	-132.787	43.477	0	1579.20	0	2.4170	0	36.6950	8	29.304	0	1560.691	0	31.3	4	9.7	4	-1E+10	1	-1E+10	1	-1E+10	1	-1E+10	1	-1E+10	1	-1E+10	1
4901784	155	C	10/02/2019	10:51	-132.787	43.477	0	1584.20	0	2.4070	0	36.6960	8	29.306	0	1565.614	0	31.7	4	9.8	4	-1E+10	1	-1E+10	1	-1E+10	1	-1E+10	1	-1E+10	1	-1E+10	1
4901784	155	C	10/02/2019	10:51	-132.787	43.477	0	1589.20	0	2.3950	0	36.6980	8	29.308	0	1570.537	0	32.0	4	9.9	4	-1E+10	1	-1E+10	1	-1E+10	1	-1E+10	1	-1E+10	1	-1E+10	1
4901784	155	C	10/02/2019	10:51	-132.787	43.477	0	1595.00	0	2.3860	0	36.6990	8	29.310	0	1576.247	0	32.4	4	10.0	4	-1E+10	1	-1E+10	1	-1E+10	1	-1E+10	1	-1E+10	1	-1E+10	1
4901784	155	C	10/02/2019	10:51	-132.787	43.477	0	1600.00	0	2.3800	0	36.6990	8	29.311	0	1581.170	0	32.8	4	10.1	4	-1E+10	1	-1E+10	1	-1E+10	1	-1E+10	1	-1E+10	1	-1E+10	1
4901784	155	C	10/02/2019	10:51	-132.787	43.477	0	1604.20	0	2.3680	0	36.7010	8	29.313	0	1585.305	0	33.2	4	10.3	4	-1E+10	1	-1E+10	1	-1E+10	1	-1E+10	1	-1E+10	1	-1E+10	1
4901784	155	C	10/02/2019	10:51	-132.787	43.477	0	1609.30	0	2.3590	0	36.7020	8	29.315	0	1590.325	0	33.5	4	10.4	4	-1E+10	1	-1E+10	1	-1E+10	1	-1E+10	1	-1E+10	1	-1E+10	1
4901784	155	C	10/02/2019	10:51	-132.787	43.477	0	1614.50	0	2.3520	0	36.7030	8	29.316	0	1595.445	0	33.8	4	10.5	4	-1E+10	1	-1E+10	1	-1E+10	1	-1E+10	1	-1E+10	1	-1E+10	1
4901784	155	C	10/02/2019	10:51	-132.787	43.477	0	1619.70	0	2.3430	0	36.7050	8	29.319	0	1600.563	0	34.2	4	10.6	4	-1E+10	1	-1E+10	1	-1E+10	1	-1E+10	1	-1E+10	1	-1E+10	1
4901784	155	C	10/02/2019	10:51	-132.787	43.477	0	1624.90	0	2.3380	0	36.7050	8	29.319	0	1605.682	0	34.4	4	10.6	4	-1E+10	1	-1E+10	1	-1E+10	1	-1E+10	1	-1E+10	1	-1E+10	1
4901784	155	C	10/02/2019	10:51	-132.787	43.477	0	1630.10	0	2.3320	0	36.7060	8	29.321	0	1610.801	0	34.8	4	10.8	4	-1E+10	1	-1E+10	1	-1E+10	1	-1E+10	1	-1E+10	1	-1E+10	1
4901784	155	C	10/02/2019	10:51	-132.787	43.477	0	1635.30	0	2.3210	0	36.7070	8	29.322	0	1615.920	0	35.2	4	10.9	4	-1E+10	1	-1E+10	1	-1E+10	1	-1E+10	1	-1E+10	1	-1E+10	1
4901784	155	C	10/02/2019	10:51	-132.787	43.477	0	1640.50	0	2.3140	0	36.7080	8	29.324	0	1621.038	0	35.6	4	11.0	4	-1E+10	1	-1E+10	1	-1E+10	1	-1E+10	1	-1E+10	1	-1E+10	1
4901784	155	C	10/02/2019	10:51	-132.787	43.477	0	1644.90	0	2.3040	0	36.7100	8	29.326	0	1625.369	0	36.0	4	11.1	4	-1E+10	1	-1E+10	1	-1E+10	1	-1E+10	1	-1E+10	1	-1E+10	1
4901784	155	C	10/02/2019	10:51	-132.787	43.477	0	1649.30	0	2.2960	0	36.7110	8	29.328	0	1629.700	0	36.3	4	11.2	4	-1E+10	1	-1E+10	1	-1E+10	1	-1E+10	1	-1E+10	1	-1E+10	1
4901784	155	C	10/02/2019	10:51	-132.787	43.477	0	1654.60	0	2.2880	0	36.7120	8	29.329	0	1634.917	0	36.6	4	11.3	4	-1E+10	1	-1E+10	1	-1E+10	1	-1E+10	1	-1E+10	1	-1E+10	1
4901784	155	C	10/02/2019	10:51	-132.787	43.477	0	1659.90	0	2.2820	0	36.7120	8	29.330	0	1640.133	0	36.9	4	11.4	4	-1E+10	1	-1E+10	1	-1E+10	1	-1E+10	1	-1E+10	1	-1E+10	1
4901784	155	C	10/02/2019	10:51	-132.787	43.477	0	1665.20	0	2.2730	0	36.7130	8	29.332	0	1645.349	0	37.3	4	11.5	4	-1E+10	1	-1E+10	1	-1E+10	1	-1E+10	1	-1E+10	1	-1E+10	1
4901784	155	C	10/02/2019	10:51	-132.787	43.477	0	1670.60	0	2.2620	0	36.7140	8	29.333	0	1650.664	0	37.8	4	11.7	4	-1E+10	1	-1E+10	1	-1E+10	1	-1E+10	1	-1E+10	1	-1E+10	1
4901784	155	C	10/02/2019	10:51	-132.787	43.477	0	1675.00	0	2.2540	0	36.7160	8	29.336	0	1654.994	0	38.1	4	11.8	4	-1E+10	1	-1E+10	1	-1E+10	1	-1E+10	1	-1E+10	1	-1E+10	1
4901784	155	C	10/02/2019	10:51	-132.787	43.477	0	1679.50	0	2.2440	0	36.7170	8	29.337	0	1659.423	0	38.5	4	11.9	4	-1E+10	1	-1E+10	1	-1E+10	1	-1E+10	1	-1E+10	1	-1E+10	1
4901784	155	C	10/02/2019	10:51	-132.787	43.477	0	1684.90	0	2.2400	0	36.7180	8	29.339	0	1664.737	0	38.8	4	12.0	4	-1E+10	1	-1E+10	1	-1E+10	1	-1E+10	1	-1E+10	1	-1E+10	1
4901784	155	C	10/02/2019	10:51	-132.787	43.477	0	1690.30	0	2.2350	0	36.7180	8	29.339	0	1670.051	0	39.1	4	12.0	4	-1E+10	1	-1E+10	1	-1E+10	1	-1E+10	1	-1E+10	1	-1E+10	1
4901784	155	C	10/02/2019	10:51	-132.787	43.477	0	1694.80	0	2.2300	0	36.7190	8	29.340	0	1674.480	0	39.3	4	12.1	4	-1E+10	1	-1E+10	1	-1E+10	1	-1E+10	1	-1E+10	1	-1E+10	1
4901784	155	C	10/02/2019	10:51	-132.787	43.477	0	1699.30	0	2.2230	0	36.7190	8	29.341	0	1678.908	0	39.7	4	12.2	4	-1E+10	1	-1E+10	1	-1E+10	1	-1E+10	1	-1E+10	1	-1E+10	1
4901784	155	C	10/02/2019	10:51	-132.787	43.477	0	1704.80	0	2.2110	0	36.7210	8	29.344	0	1684.320	0	40.2	4	12.4	4	-1E+10	1	-1E+10	1	-1E+10	1	-1E+10	1	-1E+10	1	-1E+10	1
4901784	155	C	10/02/2019	10:51	-132.787	43.477	0	1710.30	0	2.2020	0	36.7220	8	29.345	0	1689.732	0	40.6	4	12.5	4	-1E+10	1	-1E+10	1	-1E+10	1	-1E+10	1	-1E+10	1	-1E+10	1
4901784	155	C	10/02/2019	10:51	-132.787	43.477	0	1714.90	0	2.1970	0	36.7230	8	29.347	0	1694.258	0	40.8	4	12.6	4	-1E+10	1	-1E+10	1	-1E+10	1	-1E+10	1	-1E+10	1	-1E+10	1
4901784	155	C	10/02/2019	10:51	-132.787	43.477	0	1719.70	0	2.1910	0	36.7240	8	29.348	0	1698.981	0	41.0	4	12.6	4	-1E+10	1	-1E+10	1	-1E+10	1	-1E+10	1	-1E+10	1	-1E+10	1
4901784	155	C	10/02/2019	10:51	-132.787	43.477	0	1724.90	0	2.1890	0	36.7240	8	29.348	0	1704.098	0	41.3	4	12.7	4	-1E+10	1	-1E+10	1	-1E+10	1	-1E+10	1	-1E+10	1	-1E+10	1
4901784	155	C	10/02/2019	10:51	-132.787	43.477	0	1729.70	0	2.1850	0	36.7250	8	29.349	0	1708.821	0	41.7	4	12.8	4	-1E+10	1	-1E+10	1	-1E+10	1	-1E+10	1	-1E+10	1	-1E+10	1
4901784	155	C	10/02/2019	10:51	-132.787	43.477	0	1734.60	0	2.1760	0	36.7260	8	29.351	0	1713.642	0	42.1	4	13.0	4	-1E+10	1	-1E+10	1	-1E+10	1	-1E+10	1	-1E+10	1	-1E+10	1
4901784	155	C	10/02/2019	10:51	-132.787	43.477	0	1739.50	0	2.1700	0	36.7280	8	29.353	0	1718.463	0	42.5	4	13.1	4	-1E+10	1	-1E+10	1	-1E+10	1	-1E+10	1	-1E+10	1	-1E+10	1
4901784	155	C	10/02/2019	10:51	-132.787	43.477	0	1744.50	0	2.1610	0	36.7280	8	29.354	0	1723.382	0	42.9	4	13.2	4	-1E+10	1	-1E+10	1	-1E+10	1	-1E+10	1	-1E+10	1	-1E+10	1
4901784	155	C	10/02/2019	10:51	-132.787	43.477	0	1749.50	0	2.1550	0	36.7290	8	29.355	0	1728.301	0	43.2	4	13.3	4	-1E+10	1	-1E+10	1	-1E+10	1	-1E+10	1	-1E+10	1	-1E+10	1
4901784	155	C	10/02/2019	10:51	-132.787	43.477	0	1754.50	0	2.1510	0	36.7300	8	29.356	0	1733.220	0	43.5	4	13.4	4	-1E+10	1	-1E+10	1	-1E+10	1	-1E+10	1	-1E+10	1	-1E+10	1
4901784	155	C	10/02/2019	10:51	-132.787	43.477	0	1759.60	0	2.1430	0	36.7310	8	29.358	0	1738.237	0	44.0	4	13.5	4	-1E+10	1	-1E+10	1	-1E+10	1	-1E+10	1	-1E+10	1	-1E+10	1
4901784	155	C	10/02/2019	10:51	-132.787	43.477	0	1764.70	0	2.1360	0	36.7320	8	29.359	0	1743.254	0	44.3	4	13.6	4	-1E+10	1	-1E+10	1	-1E+10	1	-1E+10	1	-1E+10	1	-1E+10	1
4901784	155	C	10/02/2019	10:51	-132.787	43.477	0	1769.70	0	2.1310	0	36.7340	8	29.361	0	1748.173	0	44.7	4	13.7	4	-1E+10	1	-1E+10	1	-1E+10	1	-1E+10	1	-1E+10	1	-1E+10	1
4901784	155	C	10/02/2019	10:51	-132.787	43.477	0	1774.80	0	2.1280	0	36.7350	8	29.362	0	1753.190	0	45.0	4	13.8	4	-1E+10	1	-1E+10	1	-1E+10	1	-1E+10	1	-1E+10	1	-1E+10	1
4901784	155	C	10/02/2019	10:51	-132.787	43.477	0	1779.90	0	2.1250	0	36.7360	8	29.364	0	1758.207	0	45.4	4	13.9	4	-1E+10	1	-1E+10	1	-1E+10	1	-1E+10	1	-1E+10	1	-1E+10	1
4901784	155	C	10/02/2019	10:51	-132.787	43.477	0	1785.00	0	2.1200	0	36.7370	8	29.365	0	1763.224	0	45.6	4	14.0	4	-1E+10	1	-1E+10	1	-1E+10	1	-1E+10	1	-1E+10	1	-1E+10	1
4901784	155	C	10/02/2019	10:51	-132.787	43.477	0	1790.10	0	2.1110	0	36.7370	8	29.366	0	1768.240	0	45.9	4	14.1	4	-1E+10	1	-1E+10	1	-1E+10	1	-1E+10	1	-1E+10	1	-1E+10	1
4901784	155	C	10/02/2019	10:51	-132.787	43.477	0	1795.30	0	2.1070	0	36.7370	8	29.366	0	1773.355	0	46.2	4	14.2	4	-1E+10	1	-1E+10	1	-1E+10	1	-1E+10	1	-1E+10	1	-1E+10	1
4901784	155	C	10/02/2019	10:51	-132.787	43.477	0	1800.50	0	2.1020	0	36.7390	8	29.368	0	1778.470	0	46.6	4	14.3	4	-1E+10	1	-1E+10	1	-1E+10	1	-1E+10	1	-1E+10	1	-1E+10	1
4901784	155	C	10/02/2019	10:51	-132.787	43.477	0	1805.70	0	2.1000	0	36.7390	8	29.368	0	1783.584	0	46.9	4	14.4	4	-1E+10	1	-1E+10	1	-1E+10	1	-1E+10	1	-1E+10	1	-1E+10	1
4901784	155	C	10/02/2019	10:51	-132.787	43.477	0	1810.00	0	2.0950	0	36.7400	8	29.369	0	1787.813	0	47.2	4	14.5	4	-1E+10	1	-1E+10	1	-1E+10	1	-1E+10	1	-1E+10	1	-1E+10	1
4901784	155	C	10/02/2019	10:51	-132.787	43.477	0	1814.40	0	2.0920	0	36.7410	8	29.371	0	1792.141	0	47.4	4	14.6	4	-1E+10	1	-1E+10	1	-1E+10	1	-1E+10	1	-1E+10	1	-1E+10	1
4901784	155	C	10/02/2019	10:51	-132.787	43.477	0	1819.60	0	2.0870	0	36.7410	8	29.371	0	1797.255	0	47.8	4	14.7	4	-1E+10	1	-1E+10	1	-1E+10	1	-1E+10	1	-1E+10	1	-1E+10	1
4901784	155	C	10/02/2019	10:51	-132.787	43.477	0	1824.90	0	2.0830	0	36.7430	8	29.373	0	1802.468	0	48.2	4	14.8	4	-1E+10	1	-1E+10	1	-1E+10	1	-1E+10	1	-1E+10	1	-1E+10	1
4901784	155	C	10/02/2019	10:51	-132.787	43.477	0	1830.20	0	2.0750	0	36.7440	8	29.374	0	1807.680	0	48.5	4	14.9	4	-1E+10	1	-1E+10	1	-1E+10	1	-1E+10	1	-1E+10	1	-1E+10	1
4901784	155	C	10/02/2019	10:51	-132.787	43.477	0	1835.50	0	2.0700	0	36.7450	8	29.376	0	1812.892	0	48.9	4	15.0	4	-1E+10	1	-1E+10	1	-1E+10	1	-1E+10	1	-1E+10	1	-1E+10	1
4901784	155	C	10/02/2019	10:51	-132.787	43.477	0	1840.00	0	2.0660	0	36.7450	8	29.376	0	1817.318	0	49.1	4	15.1	4	-1E+10	1	-1E+10	1	-1E+10	1	-1E+10	1	-1E+10	1	-1E+10	1
4901784	155	C	10/02/2019	10:51	-132.787	43.477	0	1844.50	0	2.0610	0	36.7460	8	29.377	0	1821.743	0	49.3	4	15.1	4	-1E+10	1	-1E+10	1	-1E+10	1	-1E+10	1	-1E+10	1	-1E+10	1
4901784	155	C	10/02/2019	10:51	-132.787	43.477	0	1849.90	0	2.0580	0	36.7460	8	29.378	0	1827.053	0	49.5	4	15.2	4	-1E+10	1	-1E+10	1	-1E+10	1	-1E+10	1	-1E+10	1	-1E+10	1
4901784	155	C	10/02/2019	10:51	-132.787	43.477	0	1855.40	0	2.0550	0	36.7470	8	29.379	0	1832.461	0	49.9	4	15.3	4	-1E+10	1	-1E+10	1	-1E+10	1	-1E+10	1	-1E+10	1	-1E+10	1
4901784	155	C	10/02/2019	10:51	-132.787	43.477	0	1859.90	0	2.0520	0	36.7480	8	29.380	0	1836.886	0	50.2	4	15.4	4	-1E+10	1	-1E+10	1	-1E+10	1	-1E+10	1	-1E+10	1	-1E+10	1
4901784	155	C	10/02/2019	10:51	-132.787	43.477	0	1864.80	0	2.0450	0	36.7490	8	29.381	0	1841.704	0	50.5	4	15.5	4	-1E+10	1	-1E+10	1	-1E+10	1	-1E+10	1	-1E+10	1	-1E+10	1
4901784	155	C	10/02/2019	10:51	-132.787	43.477	0	1870.00	0	2.0410	0	36.7500	8	29.382	0	1846.817	0	50.8	4	15.6	4	-1E+10	1	-1E+10	1	-1E+10	1	-1E+10	1	-1E+10	1	-1E+10	1
4901784	155	C	10/02/2019	10:51	-132.787	43.477	0	1874.70	0	2.0370	0	36.7500	8	29.383	0	1851.439	0	50.9	4	15.6	4	-1E+10	1	-1E+10	1	-1E+10	1	-1E+10	1	-1E+10	1	-1E+10	1
4901784	155	C	10/02/2019	10:51	-132.787	43.477	0	1879.60	0	2.0350	0	36.7500	8	29.383	0	1856.257	0	51.1	4	15.7	4	-1E+10	1	-1E+10	1	-1E+10	1	-1E+10	1	-1E+10	1	-1E+10	1
4901784	155	C	10/02/2019	10:51	-132.787	43.477	0	1884.40	0	2.0300	0	36.7510	8	29.384	0	1860.976	0	51.4	4	15.8	4	-1E+10	1	-1E+10	1	-1E+10	1	-1E+10	1	-1E+10	1	-1E+10	1
4901784	155	C	10/02/2019	10:51	-132.787	43.477	0	1890.00	0	2.0250	0	36.7520	8	29.385	0	1866.482	0	51.7	4	15.9	4	-1E+10	1	-1E+10	1	-1E+10	1	-1E+10	1	-1E+10	1	-1E+10	1
4901784	155	C	10/02/2019	10:51	-132.787	43.477	0	1895.70	0	2.0220	0	36.7520	8	29.386	0	1872.086	0	52.0	4	15.9	4	-1E+10	1	-1E+10	1	-1E+10	1	-1E+10	1	-1E+10	1	-1E+10	1
4901784	155	C	10/02/2019	10:51	-132.787	43.477	0	1900.60	0	2.0150	0	36.7520	8	29.386	0	1876.903	0	52.2	4	16.0	4	-1E+10	1	-1E+10	1	-1E+10	1	-1E+10	1	-1E+10	1	-1E+10	1
4901784	155	C	10/02/2019	10:51	-132.787	43.477	0	1905.50	0	2.0120	0	36.7540	8	29.388	0	1881.720	0	52.5	4	16.1	4	-1E+10	1	-1E+10	1	-1E+10	1	-1E+10	1	-1E+10	1	-1E+10	1
4901784	155	C	10/02/2019	10:51	-132.787	43.477	0	1910.50	0	2.0060	0	36.7540	8	29.389	0	1886.636	0	52.8	4	16.2	4	-1E+10	1	-1E+10	1	-1E+10	1	-1E+10	1	-1E+10	1	-1E+10	1
4901784	155	C	10/02/2019	10:51	-132.787	43.477	0	1915.50	0	2.0030	0	36.7540	8	29.389	0	1891.551	0	52.9	4	16.2	4	-1E+10	1	-1E+10	1	-1E+10	1	-1E+10	1	-1E+10	1	-1E+10	1
4901784	155	C	10/02/2019	10:51	-132.787	43.477	0	1920.50	0	1.9990	0	36.7550	8	29.390	0	1896.466	0	53.1	4	16.3	4	-1E+10	1	-1E+10	1	-1E+10	1	-1E+10	1	-1E+10	1	-1E+10	1
4901784	155	C	10/02/2019	10:51	-132.787	43.477	0	1925.60	0	1.9960	0	36.7550	8	29.391	0	1901.480	0	53.4	4	16.4	4	-1E+10	1	-1E+10	1	-1E+10	1	-1E+10	1	-1E+10	1	-1E+10	1
4901784	155	C	10/02/2019	10:51	-132.787	43.477	0	1930.70	0	1.9910	0	36.7560	8	29.392	0	1906.493	0	53.7	4	16.4	4	-1E+10	1	-1E+10	1	-1E+10	1	-1E+10	1	-1E+10	1	-1E+10	1
4901784	155	C	10/02/2019	10:51	-132.787	43.477	0	1935.80	0	1.9870	0	36.7570	8	29.393	0	1911.506	0	53.9	4	16.5	4	-1E+10	1	-1E+10	1	-1E+10	1	-1E+10	1	-1E+10	1	-1E+10	1
4901784	155	C	10/02/2019	10:51	-132.787	43.477	0	1940.00	0	1.9860	0	36.7570	8	29.393	0	1915.635	0	54.2	4	16.6	4	-1E+10	1	-1E+10	1	-1E+10	1	-1E+10	1	-1E+10	1	-1E+10	1
4901784	155	C	10/02/2019	10:51	-132.787	43.477	0	1944.30	0	1.9830	0	36.7580	8	29.394	0	1919.861	0	54.4	4	16.7	4	-1E+10	1	-1E+10	1	-1E+10	1	-1E+10	1	-1E+10	1	-1E+10	1
4901784	155	C	10/02/2019	10:51	-132.787	43.477	0	1949.50	0	1.9830	0	36.7590	8	29.395	0	1924.973	0	54.6	4	16.7	4	-1E+10	1	-1E+10	1	-1E+10	1	-1E+10	1	-1E+10	1	-1E+10	1
4901784	155	C	10/02/2019	10:51	-132.787	43.477	0	1954.60	0	1.9800	0	36.7590	8	29.395	0	1929.985	0	55.0	4	16.8	4	-1E+10	1	-1E+10	1	-1E+10	1	-1E+10	1	-1E+10	1	-1E+10	1
4901784	155	C	10/02/2019	10:51	-132.787	43.477	0	1959.80	0	1.9760	0	36.7600	8	29.396	0	1935.096	0	55.3	4	16.9	4	-1E+10	1	-1E+10	1	-1E+10	1	-1E+10	1	-1E+10	1	-1E+10	1
4901784	155	C	10/02/2019	10:51	-132.787	43.477	0	1965.00	0	1.9730	0	36.7610	8	29.398	0	1940.207	0	55.5	4	17.0	4	-1E+10	1	-1E+10	1	-1E+10	1	-1E+10	1	-1E+10	1	-1E+10	1
4901784	155	C	10/02/2019	10:51	-132.787	43.477	0	1970.20	0	1.9680	0	36.7610	8	29.398	0	1945.318	0	55.7	4	17.1	4	-1E+10	1	-1E+10	1	-1E+10	1	-1E+10	1	-1E+10	1	-1E+10	1
4901784	155	C	10/02/2019	10:51	-132.787	43.477	0	1975.40	0	1.9630	0	36.7610	8	29.398	0	1950.428	0	56.0	4	17.1	4	-1E+10	1	-1E+10	1	-1E+10	1	-1E+10	1	-1E+10	1	-1E+10	1
4901784	155	C	10/02/2019	10:51	-132.787	43.477	0	1980.70	0	1.9600	0	36.7620	8	29.400	0	1955.637	0	56.3	4	17.2	4	-1E+10	1	-1E+10	1	-1E+10	1	-1E+10	1	-1E+10	1	-1E+10	1
4901784	155	C	10/02/2019	10:51	-132.787	43.477	0	1985.00	0	1.9570	0	36.7630	8	29.401	0	1959.863	0	56.6	4	17.3	4	-1E+10	1	-1E+10	1	-1E+10	1	-1E+10	1	-1E+10	1	-1E+10	1
4901784	155	C	10/02/2019	10:51	-132.787	43.477	0	1989.50	0	1.9530	0	36.7630	8	29.401	0	1964.285	0	56.8	4	17.4	4	-1E+10	1	-1E+10	1	-1E+10	1	-1E+10	1	-1E+10	1	-1E+10	1
4901784	155	C	10/02/2019	10:51	-132.787	43.477	0	1995.40	0	1.9470	0	36.7640	8	29.402	0	1970.083	0	57.1	4	17.5	4	-1E+10	1	-1E+10	1	-1E+10	1	-1E+10	1	-1E+10	1	-1E+10	1
4901784	155	C	10/02/2019	10:51	-132.787	43.477	0	2000.20	0	1.9450	0	36.7650	8	29.403	0	1974.800	0	57.3	4	17.6	4	-1E+10	1	-1E+10	1	-1E+10	1	-1E+10	1	-1E+10	1	-1E+10	1
4901784	155	C	10/02/2019	10:51	-132.787	43.477	0	2005.30	0	1.9420	0	36.7660	8	29.404	0	1979.811	0	57.7	4	17.7	4	-1E+10	1	-1E+10	1	-1E+10	1	-1E+10	1	-1E+10	1	-1E+10	1
4901784	155	C	10/02/2019	10:51	-132.787	43.477	0	2009.90	0	1.9410	0	36.7670	8	29.405	0	1984.332	0	57.9	4	17.7	4	-1E+10	1	-1E+10	1	-1E+10	1	-1E+10	1	-1E+10	1	-1E+10	1
4901784	155	C	10/02/2019	10:51	-132.787	43.477	0	2014.90	0	1.9360	0	36.7670	8	29.406	0	1989.245	0	58.0	4	17.8	4	-1E+10	1	-1E+10	1	-1E+10	1	-1E+10	1	-1E+10	1	-1E+10	1
4901784	155	C	10/02/2019	10:51	-132.787	43.477	0	2018.50	0	1.9340	0	36.7680	8	29.407	0	1992.782	0	57.1	4	17.5	4	-1E+10	1	-1E+10	1	-1E+10	1	-1E+10	1	-1E+10	1	-1E+10	1
4901784	155	C	10/02/2019	10:51	-132.787	43.477	0																										
4901784	157	C	10/22/2019	10:49	-132.792	43.613	0	2.90	0	16.7710	0	34.6580	8	25.307	0	2.877	0	231.0	4	96.3	4	-1E+10	1	-1E+10	1	-1E+10	1	-1E+10	1	-1E+10	1	-1E+10	1
4901784	157	C	10/22/2019	10:49	-132.792	43.613	0	4.60	0	16.7720	0	34.6580	8	25.307	0	4.563	0	231.0	4	96.2	4	-1E+10	1	-1E+10	1	-1E+10	1	-1E+10	1	-1E+10	1	-1E+10	1
4901784	157	C	10/22/2019	10:49	-132.792	43.613	0	6.20	0	16.7720	0	34.6580	8	25.307	0	6.150	0	230.9	4	96.2	4	-1E+10	1	-1E+10	1	-1E+10	1	-1E+10	1	-1E+10	1	-1E+10	1
4901784	157	C	10/22/2019	10:49	-132.792	43.613	0	7.90	0	16.7730	0	34.6580	8	25.307	0	7.837	0	230.7	4	96.1	4	-1E+10	1	-1E+10	1	-1E+10	1	-1E+10	1	-1E+10	1	-1E+10	1
4901784	157	C	10/22/2019	10:49	-132.792	43.613	0	9.70	0	16.7720	0	34.6580	8	25.307	0	9.622	0	230.7	4	96.1	4	-1E+10	1	-1E+10	1	-1E+10	1	-1E+10	1	-1E+10	1	-1E+10	1
4901784	157	C	10/22/2019	10:49	-132.792	43.613	0	11.50	0	16.7720	0	34.6590	8	25.308	0	11.408	0	230.6	4	96.1	4	-1E+10	1	-1E+10	1	-1E+10	1	-1E+10	1	-1E+10	1	-1E+10	1
4901784	157	C	10/22/2019	10:49	-132.792	43.613	0	13.40	0	16.7720	0	34.6600	8	25.309	0	13.292	0	230.4	4	96.0	4	-1E+10	1	-1E+10	1	-1E+10	1	-1E+10	1	-1E+10	1	-1E+10	1
4901784	157	C	10/22/2019	10:49	-132.792	43.613	0	15.20	0	16.7720	0	34.6600	8	25.309	0	15.078	0	230.4	4	96.0	4	-1E+10	1	-1E+10	1	-1E+10	1	-1E+10	1	-1E+10	1	-1E+10	1
4901784	157	C	10/22/2019	10:49	-132.792	43.613	0	17.20	0	16.7730	0	34.6600	8	25.309	0	17.062	0	230.1	4	95.9	4	-1E+10	1	-1E+10	1	-1E+10	1	-1E+10	1	-1E+10	1	-1E+10	1
4901784	157	C	10/22/2019	10:49	-132.792	43.613	0	19.00	0	16.7730	0	34.6600	8	25.309	0	18.847	0	230.0	4	95.8	4	-1E+10	1	-1E+10	1	-1E+10	1	-1E+10	1	-1E+10	1	-1E+10	1
4901784	157	C	10/22/2019	10:49	-132.792	43.613	0	21.00	0	16.7730	0	34.6520	8	25.303	0	20.831	0	230.0	4	95.8	4	-1E+10	1	-1E+10	1	-1E+10	1	-1E+10	1	-1E+10	1	-1E+10	1
4901784	157	C	10/22/2019	10:49	-132.792	43.613	0	22.90	0	16.7710	0	34.6520	8	25.303	0	22.716	0	229.7	4	95.7	4	-1E+10	1	-1E+10	1	-1E+10	1	-1E+10	1	-1E+10	1	-1E+10	1
4901784	157	C	10/22/2019	10:49	-132.792	43.613	0	24.80	0	16.7710	0	34.6520	8	25.303	0	24.600	0	229.7	4	95.7	4	-1E+10	1	-1E+10	1	-1E+10	1	-1E+10	1	-1E+10	1	-1E+10	1
4901784	157	C	10/22/2019	10:49	-132.792	43.613	0	26.70	0	16.7710	0	34.6500	8	25.302	0	26.485	0	229.5	4	95.6	4	-1E+10	1	-1E+10	1	-1E+10	1	-1E+10	1	-1E+10	1	-1E+10	1
4901784	157	C	10/22/2019	10:49	-132.792	43.613	0	28.70	0	16.7680	0	34.6500	8	25.302	0	28.469	0	229.8	4	95.7	4	-1E+10	1	-1E+10	1	-1E+10	1	-1E+10	1	-1E+10	1	-1E+10	1
4901784	157	C	10/22/2019	10:49	-132.792	43.613	0	30.60	0	16.7670	0	34.6480	8	25.301	0	30.353	0	229.9	4	95.8	4	-1E+10	1	-1E+10	1	-1E+10	1	-1E+10	1	-1E+10	1	-1E+10	1
4901784	157	C	10/22/2019	10:49	-132.792	43.613	0	32.40	0	16.7660	0	34.6440	8	25.298	0	32.139	0	230.2	4	95.9	4	-1E+10	1	-1E+10	1	-1E+10	1	-1E+10	1	-1E+10	1	-1E+10	1
4901784	157	C	10/22/2019	10:49	-132.792	43.613	0	34.90	0	16.7130	0	34.6370	8	25.306	0	34.618	0	231.2	4	96.2	4	-1E+10	1	-1E+10	1	-1E+10	1	-1E+10	1	-1E+10	1	-1E+10	1
4901784	157	C	10/22/2019	10:49	-132.792	43.613	0	36.80	0	16.6980	0	34.6310	8	25.305	0	36.503	0	232.5	4	96.7	4	-1E+10	1	-1E+10	1	-1E+10	1	-1E+10	1	-1E+10	1	-1E+10	1
4901784	157	C	10/22/2019	10:49	-132.792	43.613	0	38.30	0	16.6620	0	34.6220	8	25.306	0	37.990	0	233.9	4	97.2	4	-1E+10	1	-1E+10	1	-1E+10	1	-1E+10	1	-1E+10	1	-1E+10	1
4901784	157	C	10/22/2019	10:49	-132.792	43.613	0	39.80	0	16.5690	0	34.6140	8	25.322	0	39.478	0	236.8	4	98.3	4	-1E+10	1	-1E+10	1	-1E+10	1	-1E+10	1	-1E+10	1	-1E+10	1
4901784	157	C	10/22/2019	10:49	-132.792	43.613	0	41.40	0	16.2370	0	34.6120	8	25.397	0	41.065	0	240.6	4	99.2	4	-1E+10	1	-1E+10	1	-1E+10	1	-1E+10	1	-1E+10	1	-1E+10	1
4901784	157	C	10/22/2019	10:49	-132.792	43.613	0	43.00	0	16.0010	0	34.6000	8	25.442	0	42.652	0	244.2	4	100.2	4	-1E+10	1	-1E+10	1	-1E+10	1	-1E+10	1	-1E+10	1	-1E+10	1
4901784	157	C	10/22/2019	10:49	-132.792	43.613	0	44.60	0	15.7420	0	34.5900	8	25.493	0	44.239	0	248.1	4	101.3	4	-1E+10	1	-1E+10	1	-1E+10	1	-1E+10	1	-1E+10	1	-1E+10	1
4901784	157	C	10/22/2019	10:49	-132.792	43.613	0	46.20	0	15.4340	0	34.5580	8	25.538	0	45.826	0	252.6	4	102.5	4	-1E+10	1	-1E+10	1	-1E+10	1	-1E+10	1	-1E+10	1	-1E+10	1
4901784	157	C	10/22/2019	10:49	-132.792	43.613	0	47.80	0	14.7330	0	34.5500	8	25.685	0	47.413	0	259.1	4	103.7	4	-1E+10	1	-1E+10	1	-1E+10	1	-1E+10	1	-1E+10	1	-1E+10	1
4901784	157	C	10/22/2019	10:49	-132.792	43.613	0	49.40	0	13.6940	0	34.5370	8	25.895	0	48.999	0	265.6	4	104.1	4	-1E+10	1	-1E+10	1	-1E+10	1	-1E+10	1	-1E+10	1	-1E+10	1
4901784	157	C	10/22/2019	10:49	-132.792	43.613	0	51.10	0	13.2810	0	34.5350	8	25.978	0	50.685	0	268.6	4	104.4	4	-1E+10	1	-1E+10	1	-1E+10	1	-1E+10	1	-1E+10	1	-1E+10	1
4901784	157	C	10/22/2019	10:49	-132.792	43.613	0	52.70	0	12.7670	0	34.5420	8	26.086	0	52.272	0	271.2	4	104.3	4	-1E+10	1	-1E+10	1	-1E+10	1	-1E+10	1	-1E+10	1	-1E+10	1
4901784	157	C	10/22/2019	10:49	-132.792	43.613	0	55.00	0	12.5460	0	34.5570	8	26.142	0	54.553	0	270.5	4	103.6	4	-1E+10	1	-1E+10	1	-1E+10	1	-1E+10	1	-1E+10	1	-1E+10	1
4901784	157	C	10/22/2019	10:49	-132.792	43.613	0	56.80	0	12.2980	0	34.5450	8	26.181	0	56.338	0	270.4	4	103.0	4	-1E+10	1	-1E+10	1	-1E+10	1	-1E+10	1	-1E+10	1	-1E+10	1
4901784	157	C	10/22/2019	10:49	-132.792	43.613	0	58.40	0	12.1010	0	34.5520	8	26.224	0	57.925	0	269.8	4	102.4	4	-1E+10	1	-1E+10	1	-1E+10	1	-1E+10	1	-1E+10	1	-1E+10	1
4901784	157	C	10/22/2019	10:49	-132.792	43.613	0	60.00	0	11.9930	0	34.5800	8	26.266	0	59.512	0	268.4	4	101.6	4	-1E+10	1	-1E+10	1	-1E+10	1	-1E+10	1	-1E+10	1	-1E+10	1
4901784	157	C	10/22/2019	10:49	-132.792	43.613	0	61.60	0	11.9980	0	34.5860	8	26.270	0	61.099	0	267.3	4	101.2	4	-1E+10	1	-1E+10	1	-1E+10	1	-1E+10	1	-1E+10	1	-1E+10	1
4901784	157	C	10/22/2019	10:49	-132.792	43.613	0	63.10	0	11.9200	0	34.5810	8	26.281	0	62.586	0	265.9	4	100.5	4	-1E+10	1	-1E+10	1	-1E+10	1	-1E+10	1	-1E+10	1	-1E+10	1
4901784	157	C	10/22/2019	10:49	-132.792	43.613	0	64.60	0	11.8140	0	34.5850	8	26.304	0	64.074	0	264.7	4	99.9	4	-1E+10	1	-1E+10	1	-1E+10	1	-1E+10	1	-1E+10	1	-1E+10	1
4901784	157	C	10/22/2019	10:49	-132.792	43.613	0	66.10	0	11.7660	0	34.5970	8	26.323	0	65.561	0	263.5	4	99.3	4	-1E+10	1	-1E+10	1	-1E+10	1	-1E+10	1	-1E+10	1	-1E+10	1
4901784	157	C	10/22/2019	10:49	-132.792	43.613	0	67.70	0	11.5220	0	34.5860	8	26.360	0	67.148	0	263.2	4	98.7	4	-1E+10	1	-1E+10	1	-1E+10	1	-1E+10	1	-1E+10	1	-1E+10	1
4901784	157	C	10/22/2019	10:49	-132.792	43.613	0	69.30	0	11.4360	0	34.5880	8	26.377	0	68.735	0	262.6	4	98.3	4	-1E+10	1	-1E+10	1	-1E+10	1	-1E+10	1	-1E+10	1	-1E+10	1
4901784	157	C	10/22/2019	10:49	-132.792	43.613	0	70.80	0	11.4160	0	34.5820	8	26.376	0	70.222	0	260.5	4	97.5	4	-1E+10	1	-1E+10	1	-1E+10	1	-1E+10	1	-1E+10	1	-1E+10	1
4901784	157	C	10/22/2019	10:49	-132.792	43.613	0	72.40	0	11.3270	0	34.5660	8	26.380	0	71.809	0	258.8	4	96.7	4	-1E+10	1	-1E+10	1	-1E+10	1	-1E+10	1	-1E+10	1	-1E+10	1
4901784	157	C	10/22/2019	10:49	-132.792	43.613	0	74.00	0	10.9770	0	34.5600	8	26.439	0	73.396	0	258.4	4	95.8	4	-1E+10	1	-1E+10	1	-1E+10	1	-1E+10	1	-1E+10	1	-1E+10	1
4901784	157	C	10/22/2019	10:49	-132.792	43.613	0	75.70	0	10.7780	0	34.5770	8	26.488	0	75.081	0	256.3	4	94.6	4	-1E+10	1	-1E+10	1	-1E+10	1	-1E+10	1	-1E+10	1	-1E+10	1
4901784	157	C	10/22/2019	10:49	-132.792	43.613	0	77.20	0	10.7360	0	34.5840	8	26.501	0	76.569	0	255.5	4	94.2	4	-1E+10	1	-1E+10	1	-1E+10	1	-1E+10	1	-1E+10	1	-1E+10	1
4901784	157	C	10/22/2019	10:49	-132.792	43.613	0	78.90	0	10.5390	0	34.5800	8	26.533	0	78.255	0	256.1	4	94.1	4	-1E+10	1	-1E+10	1	-1E+10	1	-1E+10	1	-1E+10	1	-1E+10	1
4901784	157	C	10/22/2019	10:49	-132.792	43.613	0	80.60	0	10.4410	0	34.5530	8	26.529	0	79.940	0	256.2	4	93.9	4	-1E+10	1	-1E+10	1	-1E+10	1	-1E+10	1	-1E+10	1	-1E+10	1
4901784	157	C	10/22/2019	10:49	-132.792	43.613	0	82.20	0	10.3590	0	34.5520	8	26.542	0	81.527	0	255.2	4	93.3	4	-1E+10	1	-1E+10	1	-1E+10	1	-1E+10	1	-1E+10	1	-1E+10	1
4901784	157	C	10/22/2019	10:49	-132.792	43.613	0	83.90	0	10.3190	0	34.5680	8	26.562	0	83.213	0	254.3	4	93.0	4	-1E+10	1	-1E+10	1	-1E+10	1	-1E+10	1	-1E+10	1	-1E+10	1
4901784	157	C	10/22/2019	10:49	-132.792	43.613	0	85.60	0	10.2980	0	34.5630	8	26.562	0	84.898	0	253.2	4	92.5	4	-1E+10	1	-1E+10	1	-1E+10	1	-1E+10	1	-1E+10	1	-1E+10	1
4901784	157	C	10/22/2019	10:49	-132.792	43.613	0	87.40	0	10.2380	0	34.5710	8	26.578	0	86.683	0	252.5	4	92.1	4	-1E+10	1	-1E+10	1	-1E+10	1	-1E+10	1	-1E+10	1	-1E+10	1
4901784	157	C	10/22/2019	10:49	-132.792	43.613	0	89.10	0	10.1140	0	34.5610	8	26.592	0	88.369	0	252.7	4	92.0	4	-1E+10	1	-1E+10	1	-1E+10	1	-1E+10	1	-1E+10	1	-1E+10	1
4901784	157	C	10/22/2019	10:49	-132.792	43.613	0	90.80	0	10.0630	0	34.5590	8	26.599	0	90.055	0	252.7	4	91.9	4	-1E+10	1	-1E+10	1	-1E+10	1	-1E+10	1	-1E+10	1	-1E+10	1
4901784	157	C	10/22/2019	10:49	-132.792	43.613	0	92.50	0	9.9770	0	34.5480	8	26.605	0	91.740	0	252.2	4	91.5	4	-1E+10	1	-1E+10	1	-1E+10	1	-1E+10	1	-1E+10	1	-1E+10	1
4901784	157	C	10/22/2019	10:49	-132.792	43.613	0	94.20	0	9.9000	0	34.5470	8	26.617	0	93.426	0	251.7	4	91.1	4	-1E+10	1	-1E+10	1	-1E+10	1	-1E+10	1	-1E+10	1	-1E+10	1
4901784	157	C	10/22/2019	10:49	-132.792	43.613	0	95.90	0	9.8280	0	34.5460	8	26.629	0	95.112	0	251.0	4	90.8	4	-1E+10	1	-1E+10	1	-1E+10	1	-1E+10	1	-1E+10	1	-1E+10	1
4901784	157	C	10/22/2019	10:49	-132.792	43.613	0	97.60	0	9.7360	0	34.5420	8	26.641	0	96.797	0	251.1	4	90.6	4	-1E+10	1	-1E+10	1	-1E+10	1	-1E+10	1	-1E+10	1	-1E+10	1
4901784	157	C	10/22/2019	10:49	-132.792	43.613	0	99.30	0	9.6900	0	34.5430	8	26.650	0	98.483	0	250.3	4	90.2	4	-1E+10	1	-1E+10	1	-1E+10	1	-1E+10	1	-1E+10	1	-1E+10	1
4901784	157	C	10/22/2019	10:49	-132.792	43.613	0	102.70	0	9.6200	0	34.5450	8	26.663	0	101.854	0	249.2	4	89.7	4	-1E+10	1	-1E+10	1	-1E+10	1	-1E+10	1	-1E+10	1	-1E+10	1
4901784	157	C	10/22/2019	10:49	-132.792	43.613	0	105.30	0	9.5200	0	34.5500	8	26.683	0	104.432	0	248.5	4	89.3	4	-1E+10	1	-1E+10	1	-1E+10	1	-1E+10	1	-1E+10	1	-1E+10	1
4901784	157	C	10/22/2019	10:49	-132.792	43.613	0	107.90	0	9.4680	0	34.5540	8	26.695	0	107.010	0	247.3	4	88.7	4	-1E+10	1	-1E+10	1	-1E+10	1	-1E+10	1	-1E+10	1	-1E+10	1
4901784	157	C	10/22/2019	10:49	-132.792	43.613	0	109.60	0	9.4190	0	34.5610	8	26.709	0	108.695	0	246.6	4	88.4	4	-1E+10	1	-1E+10	1	-1E+10	1	-1E+10	1	-1E+10	1	-1E+10	1
4901784	157	C	10/22/2019	10:49	-132.792	43.613	0	112.20	0	9.4160	0	34.5720	8	26.718	0	111.273	0	244.7	4	87.7	4	-1E+10	1	-1E+10	1	-1E+10	1	-1E+10	1	-1E+10	1	-1E+10	1
4901784	157	C	10/22/2019	10:49	-132.792	43.613	0	115.30	0	9.4150	0	34.5920	8	26.734	0	114.347	0	242.3	4	86.9	4	-1E+10	1	-1E+10	1	-1E+10	1	-1E+10	1	-1E+10	1	-1E+10	1
4901784	157	C	10/22/2019	10:49	-132.792	43.613	0	117.60	0	9.3490	0	34.6060	8	26.756	0	116.627	0	239.7	4	85.8	4	-1E+10	1	-1E+10	1	-1E+10	1	-1E+10	1	-1E+10	1	-1E+10	1
4901784	157	C	10/22/2019	10:49	-132.792	43.613	0	120.40	0	9.1630	0	34.6580	8	26.827	0	119.403	0	237.1	4	84.6	4	-1E+10	1	-1E+10	1	-1E+10	1	-1E+10	1	-1E+10	1	-1E+10	1
4901784	157	C	10/22/2019	10:49	-132.792	43.613	0	122.60	0	9.1280	0	34.7030	8	26.867	0	121.584	0	234.8	4	83.7	4	-1E+10	1	-1E+10	1	-1E+10	1	-1E+10	1	-1E+10	1	-1E+10	1
4901784	157	C	10/22/2019	10:49	-132.792	43.613	0	124.90	0	9.1610	0	34.7450	8	26.895	0	123.865	0	232.2	4	82.9	4	-1E+10	1	-1E+10	1	-1E+10	1	-1E+10	1	-1E+10	1	-1E+10	1
4901784	157	C	10/22/2019	10:49	-132.792	43.613	0	127.90	0	9.0710	0	34.7710	8	26.930	0	126.839	0	229.2	4	81.7	4	-1E+10	1	-1E+10	1	-1E+10	1	-1E+10	1	-1E+10	1	-1E+10	1
4901784	157	C	10/22/2019	10:49	-132.792	43.613	0	130.20	0	8.6430	0	34.8100	8	27.028	0	129.119	0	228.5	4	80.7	4	-1E+10	1	-1E+10	1	-1E+10	1	-1E+10	1	-1E+10	1	-1E+10	1
4901784	157	C	10/22/2019	10:49	-132.792	43.613	0	132.50	0	8.5200	0	34.8600	8	27.087	0	131.399	0	226.8	4	79.9	4	-1E+10	1	-1E+10	1	-1E+10	1	-1E+10	1	-1E+10	1	-1E+10	1
4901784	157	C	10/22/2019	10:49	-132.792	43.613	0	134.80	0	8.3750	0	34.9070	8	27.146	0	133.679	0	225.7	4	79.3	4	-1E+10	1	-1E+10	1	-1E+10	1	-1E+10	1	-1E+10	1	-1E+10	1
4901784	157	C	10/22/2019	10:49	-132.792	43.613	0	137.10	0	8.3350	0	34.9270	8	27.168	0	135.959	0	224.3	4	78.7	4	-1E+10	1	-1E+10	1	-1E+10	1	-1E+10	1	-1E+10	1	-1E+10	1
4901784	157	C	10/22/2019	10:49	-132.792	43.613	0	139.60	0	8.2480	0	34.9870	8	27.229	0	138.438	0	222.5	4	78.0	4	-1E+10	1	-1E+10	1	-1E+10	1	-1E+10	1	-1E+10	1	-1E+10	1
4901784	157	C	10/22/2019	10:49	-132.792	43.613	0	142.30	0	8.2310	0	35.0390	8	27.272	0	141.114	0	221.2	4	77.5	4	-1E+10	1	-1E+10	1	-1E+10	1	-1E+10	1	-1E+10	1	-1E+10	1
4901784	157	C	10/22/2019	10:49	-132.792	43.613	0	144.50	0	8.2150	0	35.0660	8	27.296	0	143.295	0	219.2	4	76.8	4	-1E+10	1	-1E+10	1	-1E+10	1	-1E+10	1	-1E+10	1	-1E+10	1
4901784	157	C	10/22/2019	10:49	-132.792	43.613	0	147.50	0	8.1150	0	35.1410	8	27.370	0	146.269	0	217.1	4	75.9	4	-1E+10	1	-1E+10	1	-1E+10	1	-1E+10	1	-1E+10	1	-1E+10	1
4901784	157	C	10/22/2019	10:49	-132.792	43.613	0	150.40	0	8.0900	0	35.2030	8	27.422	0	149.144	0	215.5	4	75.4	4	-1E+10	1	-1E+10	1	-1E+10	1	-1E+10	1	-1E+10	1	-1E+10	1
4901784	157	C	10/22/2019	10:49	-132.792	43.613	0	152.50	0	8.0720	0	35.2200	8	27.438	0	151.226	0	214.6	4	75.0	4	-1E+10	1	-1E+10	1	-1E+10	1	-1E+10	1	-1E+10	1	-1E+10	1
4901784	157	C	10/22/2019	10:49	-132.792	43.613	0	154.70	0	8.0610	0	35.2500	8	27.464	0	153.406	0	213.5	4	74.7	4	-1E+10	1	-1E+10	1	-1E+10	1	-1E+10	1	-1E+10	1	-1E+10	1
4901784	157	C	10/22/2019	10:49	-132.792	43.613	0	157.80	0	8.0520	0	35.2740	8	27.484	0	156.479	0	212.0	4	74.1	4	-1E+10	1	-1E+10	1	-1E+10	1	-1E+10	1	-1E+10	1	-1E+10	1
4901784	157	C	10/22/2019	10:49	-132.792	43.613	0	160.20	0	8.0320	0	35.2960	8	27.504	0	158.858	0	210.6	4	73.6	4	-1E+10	1	-1E+10	1	-1E+10	1	-1E+10	1	-1E+10	1	-1E+10	1
4901784	157	C	10/22/2019	10:49	-132.792	43.613	0	162.70	0	8.0030	0	35.3650	8	27.563	0	161.336	0	208.1	4	72.7	4	-1E+10	1	-1E+10	1	-1E+10	1	-1E+10	1	-1E+10	1	-1E+10	1
4901784	157	C	10/22/2019	10:49	-132.792	43.613	0	165.30	0	7.9930	0	35.3940	8	27.587	0	163.914	0	205.1	4	71.7	4	-1E+10	1	-1E+10	1	-1E+10	1	-1E+10	1	-1E+10	1	-1E+10	1
4901784	157	C	10/22/2019	10:49	-132.792	43.613	0	167.00	0	7.9900	0	35.4130	8	27.603	0	165.599	0	202.3	4	70.7	4	-1E+10	1	-1E+10	1	-1E+10	1	-1E+10	1	-1E+10	1	-1E+10	1
4901784	157	C	10/22/2019	10:49	-132.792	43.613	0	169.70	0	8.0090	0	35.4740	8	27.648	0	168.275	0	197.3	4	69.0	4	-1E+10	1	-1E+10	1	-1E+10	1	-1E+10	1	-1E+10	1	-1E+10	1
4901784	157	C	10/22/2019	10:49	-132.792	43.613	0	172.30	0	8.0590	0	35.5330	8	27.687	0	170.852	0	192.2	4	67.3	4	-1E+10	1	-1E+10	1	-1E+10	1	-1E+10	1	-1E+10	1	-1E+10	1
4901784	157	C	10/22/2019	10:49	-132.792	43.613	0	174.90	0	8.1110	0	35.5720	8	27.709	0	173.429	0	189.6	4	66.5	4	-1E+10	1	-1E+10	1	-1E+10	1	-1E+10	1	-1E+10	1	-1E+10	1
4901784	157	C	10/22/2019	10:49	-132.792	43.613	0	177.60	0	8.0990	0	35.6280	8	27.755	0	176.105	0	188.5	4	66.2	4	-1E+10	1	-1E+10	1	-1E+10	1	-1E+10	1	-1E+10	1	-1E+10	1
4901784	157	C	10/22/2019	10:49	-132.792	43.613	0	180.30	0	8.1050	0	35.6570	8	27.777	0	178.781	0	187.2	4	65.7	4	-1E+10	1	-1E+10	1	-1E+10	1	-1E+10	1	-1E+10	1	-1E+10	1
4901784	157	C	10/22/2019	10:49	-132.792	43.613	0	183.10	0	8.1250	0	35.6890	8	27.799	0	181.556	0	186.0	4	65.3	4	-1E+10	1	-1E+10	1	-1E+10	1	-1E+10	1	-1E+10	1	-1E+10	1
4901784	157	C	10/22/2019	10:49	-132.792	43.613	0	184.90	0	8.1430	0	35.7150	8	27.817	0	183.340	0	185.8	4	65.3	4	-1E+10	1	-1E+10	1	-1E+10	1	-1E+10	1	-1E+10	1	-1E+10	1
4901784	157	C	10/22/2019	10:49	-132.792	43.613	0	187.70	0	8.1360	0	35.7250	8	27.826	0	186.116	0	187.0	4	65.7	4	-1E+10	1	-1E+10	1	-1E+10	1	-1E+10	1	-1E+10	1	-1E+10	1
4901784	157	C	10/22/2019	10:49	-132.792	43.613	0	190.40	0	8.1440	0	35.7320	8	27.830	0	188.792	0	188.3	4	66.2	4	-1E+10	1	-1E+10	1	-1E+10	1	-1E+10	1	-1E+10	1	-1E+10	1
4901784	157	C	10/22/2019	10:49	-132.792	43.613	0	192.30	0	8.0570	0	35.7430	8	27.852	0	190.675	0	189.7	4	66.6	4	-1E+10	1	-1E+10	1	-1E+10	1	-1E+10	1	-1E+10	1	-1E+10	1
4901784	157	C	10/22/2019	10:49	-132.792	43.613	0	194.60	0	8.0690	0	35.7730	8	27.874	0	192.954	0	188.3	4	66.1	4	-1E+10	1	-1E+10	1	-1E+10	1	-1E+10	1	-1E+10	1	-1E+10	1
4901784	157	C	10/22/2019	10:49	-132.792	43.613	0	197.10	0	8.0800	0	35.8030	8	27.896	0	195.432	0	187.3	4	65.8	4	-1E+10	1	-1E+10	1	-1E+10	1	-1E+10	1	-1E+10	1	-1E+10	1
4901784	157	C	10/22/2019	10:49	-132.792	43.613	0	200.10	0	8.0460	0	35.8310	8	27.923	0	198.405	0	185.4	4	65.1	4	-1E+10	1	-1E+10	1	-1E+10	1	-1E+10	1	-1E+10	1	-1E+10	1
4901784	157	C	10/22/2019	10:49	-132.792	43.613	0	202.30	0	8.0660	0	35.8510	8	27.936	0	200.585	0	182.6	4	64.1	4	-1E+10	1	-1E+10	1	-1E+10	1	-1E+10	1	-1E+10	1	-1E+10	1
4901784	157	C	10/22/2019	10:49	-132.792	43.613	0	204.60	0	8.0990	0	35.8680	8	27.944	0	202.865	0	179.3	4	63.0	4	-1E+10	1	-1E+10	1	-1E+10	1	-1E+10	1	-1E+10	1	-1E+10	1
4901784	157	C	10/22/2019	10:49	-132.792	43.613	0	207.70	0	8.1160	0	35.8830	8	27.954	0	205.937	0	174.8	4	61.5	4	-1E+10	1	-1E+10	1	-1E+10	1	-1E+10	1	-1E+10	1	-1E+10	1
4901784	157	C	10/22/2019	10:49	-132.792	43.613	0	210.20	0	8.1420	0	35.9050	8	27.967	0	208.414	0	170.8	4	60.1	4	-1E+10	1	-1E+10	1	-1E+10	1	-1E+10	1	-1E+10	1	-1E+10	1
4901784	157	C	10/22/2019	10:49	-132.792	43.613	0	212.60	0	8.1880	0	35.9460	8	27.992	0	210.793	0	166.8	4	58.8	4	-1E+10	1	-1E+10	1	-1E+10	1	-1E+10	1	-1E+10	1	-1E+10	1
4901784	157	C	10/22/2019	10:49	-132.792	43.613	0	215.00	0	8.1960	0	35.9690	8	28.009	0	213.171	0	165.6	4	58.4	4	-1E+10	1	-1E+10	1	-1E+10	1	-1E+10	1	-1E+10	1	-1E+10	1
4901784	157	C	10/22/2019	10:49	-132.792	43.613	0	217.50	0	8.1610	0	35.9960	8	28.036	0	215.648	0	162.6	4	57.3	4	-1E+10	1	-1E+10	1	-1E+10	1	-1E+10	1	-1E+10	1	-1E+10	1
4901784	157	C	10/22/2019	10:49	-132.792	43.613	0	220.00	0	8.1950	0	36.0230	8	28.052	0	218.126	0	159.6	4	56.3	4	-1E+10	1	-1E+10	1	-1E+10	1	-1E+10	1	-1E+10	1	-1E+10	1
4901784	157	C	10/22/2019	10:49	-132.792	43.613	0	222.40	0	8.1880	0	36.0330	8	28.061	0	220.504	0	158.9	4	56.0	4	-1E+10	1	-1E+10	1	-1E+10	1	-1E+10	1	-1E+10	1	-1E+10	1
4901784	157	C	10/22/2019	10:49	-132.792	43.613	0	224.90	0	8.1690	0	36.0440	8	28.072	0	222.982	0	156.9	4	55.3	4	-1E+10	1	-1E+10	1	-1E+10	1	-1E+10	1	-1E+10	1	-1E+10	1
4901784	157	C	10/22/2019	10:49	-132.792	43.613	0	227.30	0	8.1560	0	36.0650	8	28.091	0	225.360	0	154.4	4	54.4	4	-1E+10	1	-1E+10	1	-1E+10	1	-1E+10	1	-1E+10	1	-1E+10	1
4901784	157	C	10/22/2019	10:49	-132.792	43.613	0	229.80	0	8.1380	0	36.0730	8	28.100	0	227.837	0	152.9	4	53.9	4	-1E+10	1	-1E+10	1	-1E+10	1	-1E+10	1	-1E+10	1	-1E+10	1
4901784	157	C	10/22/2019	10:49	-132.792	43.613	0	232.40	0	8.1000	0	36.0840	8	28.114	0	230.413	0	151.4	4	53.3	4	-1E+10	1	-1E+10	1	-1E+10	1	-1E+10	1	-1E+10	1	-1E+10	1
4901784	157	C	10/22/2019	10:49	-132.792	43.613	0	235.00	0	8.0640	0	36.0920	8	28.126	0	232.990	0	150.2	4	52.8	4	-1E+10	1	-1E+10	1	-1E+10	1	-1E+10	1	-1E+10	1	-1E+10	1
4901784	157	C	10/22/2019	10:49	-132.792	43.613	0	237.60	0	8.0370	0	36.0960	8	28.134	0	235.566	0	148.8	4	52.3	4	-1E+10	1	-1E+10	1	-1E+10	1	-1E+10	1	-1E+10	1	-1E+10	1
4901784	157	C	10/22/2019	10:49	-132.792	43.613	0	240.20	0	8.0070	0	36.1010	8	28.142	0	238.142	0	147.8	4	51.9	4	-1E+10	1	-1E+10	1	-1E+10	1	-1E+10	1	-1E+10	1	-1E+10	1
4901784	157	C	10/22/2019	10:49	-132.792	43.613	0	242.70	0	7.9860	0	36.1010	8	28.145	0	240.619	0	146.7	4	51.5	4	-1E+10	1	-1E+10	1	-1E+10	1	-1E+10	1	-1E+10	1	-1E+10	1
4901784	157	C	10/22/2019	10:49	-132.792	43.613	0	245.20	0	7.9630	0	36.1020	8	28.150	0	243.096	0	146.4	4	51.4	4	-1E+10	1	-1E+10	1	-1E+10	1	-1E+10	1	-1E+10	1	-1E+10	1
4901784	157	C	10/22/2019	10:49	-132.792	43.613	0	247.80	0	7.9400	0	36.1070	8	28.157	0	245.673	0	146.3	4	51.3	4	-1E+10	1	-1E+10	1	-1E+10	1	-1E+10	1	-1E+10	1	-1E+10	1
4901784	157	C	10/22/2019	10:49	-132.792	43.613	0	250.40	0	7.9060	0	36.1080	8	28.163	0	248.249	0	143.2	4	50.2	4	-1E+10	1	-1E+10	1	-1E+10	1	-1E+10	1	-1E+10	1	-1E+10	1
4901784	157	C	10/22/2019	10:49	-132.792	43.613	0	252.10	0	7.8720	0	36.1100	8	28.170	0	249.933	0	141.1	4	49.4	4	-1E+10	1	-1E+10	1	-1E+10	1	-1E+10	1	-1E+10	1	-1E+10	1
4901784	157	C	10/22/2019	10:49	-132.792	43.613	0	254.80	0	7.8580	0	36.1070	8	28.170	0	252.608	0	139.1	4	48.7	4	-1E+10	1	-1E+10	1	-1E+10	1	-1E+10	1	-1E+10	1	-1E+10	1
4901784	157	C	10/22/2019	10:49	-132.792	43.613	0	257.30	0	7.8150	0	36.1070	8	28.176	0	255.085	0	137.5	4	48.1	4	-1E+10	1	-1E+10	1	-1E+10	1	-1E+10	1	-1E+10	1	-1E+10	1
4901784	157	C	10/22/2019	10:49	-132.792	43.613	0	260.00	0	7.7780	0	36.1070	8	28.182	0	257.760	0	137.7	4	48.1	4	-1E+10	1	-1E+10	1	-1E+10	1	-1E+10	1	-1E+10	1	-1E+10	1
4901784	157	C	10/22/2019	10:49	-132.792	43.613	0	262.60	0	7.7220	0	36.1100	8	28.192	0	260.336	0	138.0	4	48.2	4	-1E+10	1	-1E+10	1	-1E+10	1	-1E+10	1	-1E+10	1	-1E+10	1
4901784	157	C	10/22/2019	10:49	-132.792	43.613	0	265.20	0	7.6850	0	36.1120	8	28.200	0	262.912	0	139.3	4	48.6	4	-1E+10	1	-1E+10	1	-1E+10	1	-1E+10	1	-1E+10	1	-1E+10	1
4901784	157	C	10/22/2019	10:49	-132.792	43.613	0	267.90	0	7.6690	0	36.1100	8	28.200	0	265.587	0	140.4	4	49.0	4	-1E+10	1	-1E+10	1	-1E+10	1	-1E+10	1	-1E+10	1	-1E+10	1
4901784	157	C	10/22/2019	10:49	-132.792	43.613	0	270.40	0	7.6050	0	36.1110	8	28.211	0	268.064	0	141.9	4	49.4	4	-1E+10	1	-1E+10	1	-1E+10	1	-1E+10	1	-1E+10	1	-1E+10	1
4901784	157	C	10/22/2019	10:49	-132.792	43.613	0	273.00	0	7.5660	0	36.1100	8	28.216	0	270.640	0	143.5	4	49.9	4	-1E+10	1	-1E+10	1	-1E+10	1	-1E+10	1	-1E+10	1	-1E+10	1
4901784	157	C	10/22/2019	10:49	-132.792	43.613	0	274.60	0	7.5380	0	36.1090	8	28.219	0	272.225	0	143.9	4	50.0	4	-1E+10	1	-1E+10	1	-1E+10	1	-1E+10	1	-1E+10	1	-1E+10	1
4901784	157	C	10/22/2019	10:49	-132.792	43.613	0	277.30	0	7.4680	0	36.1070	8	28.228	0	274.900	0	144.2	4	50.1	4	-1E+10	1	-1E+10	1	-1E+10	1	-1E+10	1	-1E+10	1	-1E+10	1
4901784	157	C	10/22/2019	10:49	-132.792	43.613	0	279.90	0	7.4290	0	36.1040	8	28.231	0	277.475	0	142.5	4	49.4	4	-1E+10	1	-1E+10	1	-1E+10	1	-1E+10	1	-1E+10	1	-1E+10	1
4901784	157	C	10/22/2019	10:49	-132.792	43.613	0	282.40	0	7.3650	0	36.1030	8	28.240	0	279.952	0	140.5	4	48.7	4	-1E+10	1	-1E+10	1	-1E+10	1	-1E+10	1	-1E+10	1	-1E+10	1
4901784	157	C	10/22/2019	10:49	-132.792	43.613	0	285.00	0	7.2920	0	36.1010	8	28.249	0	282.528	0	138.7	4	48.0	4	-1E+10	1	-1E+10	1	-1E+10	1	-1E+10	1	-1E+10	1	-1E+10	1
4901784	157	C	10/22/2019	10:49	-132.792	43.613	0	287.60	0	7.2250	0	36.1040	8	28.261	0	285.103	0	137.3	4	47.4	4	-1E+10	1	-1E+10	1	-1E+10	1	-1E+10	1	-1E+10	1	-1E+10	1
4901784	157	C	10/22/2019	10:49	-132.792	43.613	0	290.10	0	7.2000	0	36.1020	8	28.263	0	287.580	0	135.5	4	46.8	4	-1E+10	1	-1E+10	1	-1E+10	1	-1E+10	1	-1E+10	1	-1E+10	1
4901784	157	C	10/22/2019	10:49	-132.792	43.613	0	292.80	0	7.1720	0	36.1030	8	28.268	0	290.255	0	133.2	4	46.0	4	-1E+10	1	-1E+10	1	-1E+10	1	-1E+10	1	-1E+10	1	-1E+10	1
4901784	157	C	10/22/2019	10:49	-132.792	43.613	0	295.40	0	7.1180	0	36.1030	8	28.276	0	292.830	0	131.6	4	45.3	4	-1E+10	1	-1E+10	1	-1E+10	1	-1E+10	1	-1E+10	1	-1E+10	1
4901784	157	C	10/22/2019	10:49	-132.792	43.613	0	297.10	0	7.1250	0	36.1030	8	28.275	0	294.514	0	130.3	4	44.9	4	-1E+10	1	-1E+10	1	-1E+10	1	-1E+10	1	-1E+10	1	-1E+10	1
4901784	157	C	10/22/2019	10:49	-132.792	43.613	0	299.80	0	7.0190	0	36.1000	8	28.287	0	297.189	0	129.7	4	44.6	4	-1E+10	1	-1E+10	1	-1E+10	1	-1E+10	1	-1E+10	1	-1E+10	1
4901784	157	C	10/22/2019	10:49	-132.792	43.613	0	302.40	0	6.9580	0	36.1020	8	28.298	0	299.764	0	128.3	4	44.0	4	-1E+10	1	-1E+10	1	-1E+10	1	-1E+10	1	-1E+10	1	-1E+10	1
4901784	157	C	10/22/2019	10:49	-132.792	43.613	0	305.20	0	6.9290	0	36.1020	8	28.302	0	302.538	0	126.8	4	43.5	4	-1E+10	1	-1E+10	1	-1E+10	1	-1E+10	1	-1E+10	1	-1E+10	1
4901784	157	C	10/22/2019	10:49	-132.792	43.613	0	307.90	0	6.9130	0	36.1030	8	28.305	0	305.212	0	124.7	4	42.8	4	-1E+10	1	-1E+10	1	-1E+10	1	-1E+10	1	-1E+10	1	-1E+10	1
4901784	157	C	10/22/2019	10:49	-132.792	43.613	0	309.70	0	6.8950	0	36.1030	8	28.307	0	306.995	0	123.0	4	42.2	4	-1E+10	1	-1E+10	1	-1E+10	1	-1E+10	1	-1E+10	1	-1E+10	1
4901784	157	C	10/22/2019	10:49	-132.792	43.613	0	312.40	0	6.8660	0	36.1070	8	28.315	0	309.670	0	120.3	4	41.2	4	-1E+10	1	-1E+10	1	-1E+10	1	-1E+10	1	-1E+10	1	-1E+10	1
4901784	157	C	10/22/2019	10:49	-132.792	43.613	0	315.10	0	6.8510	0	36.1070	8	28.317	0	312.344	0	117.5	4	40.2	4	-1E+10	1	-1E+10	1	-1E+10	1	-1E+10	1	-1E+10	1	-1E+10	1
4901784	157	C	10/22/2019	10:49	-132.792	43.613	0	317.80	0	6.8340	0	36.1090	8	28.321	0	315.018	0	113.2	4	38.7	4	-1E+10	1	-1E+10	1	-1E+10	1	-1E+10	1	-1E+10	1	-1E+10	1
4901784	157	C	10/22/2019	10:49	-132.792	43.613	0	320.50	0	6.7930	0	36.1070	8	28.325	0	317.693	0	110.1	4	37.6	4	-1E+10	1	-1E+10	1	-1E+10	1	-1E+10	1	-1E+10	1	-1E+10	1
4901784	157	C	10/22/2019	10:49	-132.792	43.613	0	322.30	0	6.7350	0	36.1090	8	28.335	0	319.475	0	106.3	4	36.3	4	-1E+10	1	-1E+10	1	-1E+10	1	-1E+10	1	-1E+10	1	-1E+10	1
4901784	157	C	10/22/2019	10:49	-132.792	43.613	0	325.00	0	6.7230	0	36.1190	8	28.344	0	322.150	0	102.4	4	34.9	4	-1E+10	1	-1E+10	1	-1E+10	1	-1E+10	1	-1E+10	1	-1E+10	1
4901784	157	C	10/22/2019	10:49	-132.792	43.613	0	327.70	0	6.6730	0	36.1230	8	28.354	0	324.824	0	100.7	4	34.3	4	-1E+10	1	-1E+10	1	-1E+10	1	-1E+10	1	-1E+10	1	-1E+10	1
4901784	157	C	10/22/2019	10:49	-132.792	43.613	0	329.40	0	6.6450	0	36.1210	8	28.357	0	326.508	0	100.0	4	34.1	4	-1E+10	1	-1E+10	1	-1E+10	1	-1E+10	1	-1E+10	1	-1E+10	1
4901784	157	C	10/22/2019	10:49	-132.792	43.613	0	332.20	0	6.5940	0	36.1230	8	28.365	0	329.281	0	99.1	4	33.7	4	-1E+10	1	-1E+10	1	-1E+10	1	-1E+10	1	-1E+10	1	-1E+10	1
4901784	157	C	10/22/2019	10:49	-132.792	43.613	0	334.90	0	6.5480	0	36.1230	8	28.372	0	331.955	0	98.4	4	33.5	4	-1E+10	1	-1E+10	1	-1E+10	1	-1E+10	1	-1E+10	1	-1E+10	1
4901784	157	C	10/22/2019	10:49	-132.792	43.613	0	337.60	0	6.5180	0	36.1210	8	28.374	0	334.629	0	97.9	4	33.3	4	-1E+10	1	-1E+10	1	-1E+10	1	-1E+10	1	-1E+10	1	-1E+10	1
4901784	157	C	10/22/2019	10:49	-132.792	43.613	0	340.30	0	6.4650	0	36.1150	8	28.377	0	337.303	0	97.4	4	33.1	4	-1E+10	1	-1E+10	1	-1E+10	1	-1E+10	1	-1E+10	1	-1E+10	1
4901784	157	C	10/22/2019	10:49	-132.792	43.613	0	342.20	0	6.3410	0	36.1130	8	28.392	0	339.185	0	95.8	4	32.4	4	-1E+10	1	-1E+10	1	-1E+10	1	-1E+10	1	-1E+10	1	-1E+10	1
4901784	157	C	10/22/2019	10:49	-132.792	43.613	0	344.90	0	6.3550	0	36.1260	8	28.400	0	341.859	0	92.5	4	31.3	4	-1E+10	1	-1E+10	1	-1E+10	1	-1E+10	1	-1E+10	1	-1E+10	1
4901784	157	C	10/22/2019	10:49	-132.792	43.613	0	347.60	0	6.3530	0	36.1300	8	28.404	0	344.533	0	91.0	4	30.8	4	-1E+10	1	-1E+10	1	-1E+10	1	-1E+10	1	-1E+10	1	-1E+10	1
4901784	157	C	10/22/2019	10:49	-132.792	43.613	0	349.40	0	6.3300	0	36.1310	8	28.408	0	346.315	0	90.6	4	30.7	4	-1E+10	1	-1E+10	1	-1E+10	1	-1E+10	1	-1E+10	1	-1E+10	1
4901784	157	C	10/22/2019	10:49	-132.792	43.613	0	352.20	0	6.3130	0	36.1290	8	28.408	0	349.088	0	90.0	4	30.5	4	-1E+10	1	-1E+10	1	-1E+10	1	-1E+10	1	-1E+10	1	-1E+10	1
4901784	157	C	10/22/2019	10:49	-132.792	43.613	0	354.90	0	6.2740	0	36.1280	8	28.413	0	351.762	0	89.4	4	30.2	4	-1E+10	1	-1E+10	1	-1E+10	1	-1E+10	1	-1E+10	1	-1E+10	1
4901784	157	C	10/22/2019	10:49	-132.792	43.613	0	357.60	0	6.2330	0	36.1270	8	28.417	0	354.436	0	88.3	4	29.8	4	-1E+10	1	-1E+10	1	-1E+10	1	-1E+10	1	-1E+10	1	-1E+10	1
4901784	157	C	10/22/2019	10:49	-132.792	43.613	0	360.90	0	6.1610	0	36.1260	8	28.426	0	357.704	0	87.8	4	29.6	4	-1E+10	1	-1E+10	1	-1E+10	1	-1E+10	1	-1E+10	1	-1E+10	1
4901784	157	C	10/22/2019	10:49	-132.792	43.613	0	362.80	0	6.0720	0	36.1310	8	28.442	0	359.585	0	87.8	4	29.5	4	-1E+10	1	-1E+10	1	-1E+10	1	-1E+10	1	-1E+10	1	-1E+10	1
4901784	157	C	10/22/2019	10:49	-132.792	43.613	0	365.20	0	6.0200	0	36.1260	8	28.445	0	361.962	0	87.0	4	29.2	4	-1E+10	1	-1E+10	1	-1E+10	1	-1E+10	1	-1E+10	1	-1E+10	1
4901784	157	C	10/22/2019	10:49	-132.792	43.613	0	367.50	0	5.9480	0	36.1300	8	28.457	0	364.240	0	85.5	4	28.7	4	-1E+10	1	-1E+10	1	-1E+10	1	-1E+10	1	-1E+10	1	-1E+10	1
4901784	157	C	10/22/2019	10:49	-132.792	43.613	0	369.90	0	5.9180	0	36.1310	8	28.462	0	366.616	0	83.8	4	28.1	4	-1E+10	1	-1E+10	1	-1E+10	1	-1E+10	1	-1E+10	1	-1E+10	1
4901784	157	C	10/22/2019	10:49	-132.792	43.613	0	372.30	0	5.9140	0	36.1320	8	28.463	0	368.993	0	82.1	4	27.5	4	-1E+10	1	-1E+10	1	-1E+10	1	-1E+10	1	-1E+10	1	-1E+10	1
4901784	157	C	10/22/2019	10:49	-132.792	43.613	0	374.80	0	5.8800	0	36.1340	8	28.469	0	371.468	0	81.0	4	27.1	4	-1E+10	1	-1E+10	1	-1E+10	1	-1E+10	1	-1E+10	1	-1E+10	1
4901784	157	C	10/22/2019	10:49	-132.792	43.613	0	377.20	0	5.8410	0	36.1360	8	28.476	0	373.845	0	80.5	4	26.9	4	-1E+10	1	-1E+10	1	-1E+10	1	-1E+10	1	-1E+10	1	-1E+10	1
4901784	157	C	10/22/2019	10:49	-132.792	43.613	0	379.60	0	5.7830	0	36.1380	8	28.485	0	376.221	0	80.2	4	26.8	4	-1E+10	1	-1E+10	1	-1E+10	1	-1E+10	1	-1E+10	1	-1E+10	1
4901784	157	C	10/22/2019	10:49	-132.792	43.613	0	382.70	0	5.7390	0	36.1350	8	28.488	0	379.291	0	79.7	4	26.6	4	-1E+10	1	-1E+10	1	-1E+10	1	-1E+10	1	-1E+10	1	-1E+10	1
4901784	157	C	10/22/2019	10:49	-132.792	43.613	0	385.10	0	5.7010	0	36.1340	8	28.492	0	381.667	0	79.4	4	26.5	4	-1E+10	1	-1E+10	1	-1E+10	1	-1E+10	1	-1E+10	1	-1E+10	1
4901784	157	C	10/22/2019	10:49	-132.792	43.613	0	387.50	0	5.6380	0	36.1310	8	28.498	0	384.044	0	79.3	4	26.4	4	-1E+10	1	-1E+10	1	-1E+10	1	-1E+10	1	-1E+10	1	-1E+10	1
4901784	157	C	10/22/2019	10:49	-132.792	43.613	0	390.00	0	5.6000	0	36.1300	8	28.502	0	386.519	0	79.3	4	26.4	4	-1E+10	1	-1E+10	1	-1E+10	1	-1E+10	1	-1E+10	1	-1E+10	1
4901784	157	C	10/22/2019	10:49	-132.792	43.613	0	392.50	0	5.5480	0	36.1290	8	28.508	0	388.994	0	79.5	4	26.4	4	-1E+10	1	-1E+10	1	-1E+10	1	-1E+10	1	-1E+10	1	-1E+10	1
4901784	157	C	10/22/2019	10:49	-132.792	43.613	0	395.00	0	5.5010	0	36.1270	8	28.512	0	391.470	0	79.7	4	26.5	4	-1E+10	1	-1E+10	1	-1E+10	1	-1E+10	1	-1E+10	1	-1E+10	1
4901784	157	C	10/22/2019	10:49	-132.792	43.613	0	397.50	0	5.4260	0	36.1230	8	28.518	0	393.945	0	79.3	4	26.3	4	-1E+10	1	-1E+10	1	-1E+10	1	-1E+10	1	-1E+10	1	-1E+10	1
4901784	157	C	10/22/2019	10:49	-132.792	43.613	0	400.00	0	5.3640	0	36.1240	8	28.527	0	396.420	0	78.2	4	25.9	4	-1E+10	1	-1E+10	1	-1E+10	1	-1E+10	1	-1E+10	1	-1E+10	1
4901784	157	C	10/22/2019	10:49	-132.792	43.613	0	402.60	0	5.3530	0	36.1270	8	28.531	0	398.995	0	77.0	4	25.5	4	-1E+10	1	-1E+10	1	-1E+10	1	-1E+10	1	-1E+10	1	-1E+10	1
4901784	157	C	10/22/2019	10:49	-132.792	43.613	0	405.20	0	5.3520	0	36.1300	8	28.533	0	401.569	0	75.9	4	25.1	4	-1E+10	1	-1E+10	1	-1E+10	1	-1E+10	1	-1E+10	1	-1E+10	1
4901784	157	C	10/22/2019	10:49	-132.792	43.613	0	407.80	0	5.3490	0	36.1320	8	28.535	0	404.143	0	75.9	4	25.1	4	-1E+10	1	-1E+10	1	-1E+10	1	-1E+10	1	-1E+10	1	-1E+10	1
4901784	157	C	10/22/2019	10:49	-132.792	43.613	0	410.30	0	5.2920	0	36.1300	8	28.541	0	406.618	0	76.3	4	25.2	4	-1E+10	1	-1E+10	1	-1E+10	1	-1E+10	1	-1E+10	1	-1E+10	1
4901784	157	C	10/22/2019	10:49	-132.792	43.613	0	412.10	0	5.2760	0	36.1300	8	28.543	0	408.400	0	76.3	4	25.2	4	-1E+10	1	-1E+10	1	-1E+10	1	-1E+10	1	-1E+10	1	-1E+10	1
4901784	157	C	10/22/2019	10:49	-132.792	43.613	0	414.70	0	5.2600	0	36.1290	8	28.544	0	410.974	0	76.0	4	25.1	4	-1E+10	1	-1E+10	1	-1E+10	1	-1E+10	1	-1E+10	1	-1E+10	1
4901784	157	C	10/22/2019	10:49	-132.792	43.613	0	417.30	0	5.2460	0	36.1280	8	28.545	0	413.548	0	75.5	4	24.9	4	-1E+10	1	-1E+10	1	-1E+10	1	-1E+10	1	-1E+10	1	-1E+10	1
4901784	157	C	10/22/2019	10:49	-132.792	43.613	0	420.00	0	5.2220	0	36.1300	8	28.549	0	416.221	0	74.8	4	24.7	4	-1E+10	1	-1E+10	1	-1E+10	1	-1E+10	1	-1E+10	1	-1E+10	1
4901784	157	C	10/22/2019	10:49	-132.792	43.613	0	422.70	0	5.2180	0	36.1300	8	28.550	0	418.894	0	74.0	4	24.4	4	-1E+10	1	-1E+10	1	-1E+10	1	-1E+10	1	-1E+10	1	-1E+10	1
4901784	157	C	10/22/2019	10:49	-132.792	43.613	0	424.50	0	5.2040	0	36.1300	8	28.551	0	420.676	0	73.2	4	24.1	4	-1E+10	1	-1E+10	1	-1E+10	1	-1E+10	1	-1E+10	1	-1E+10	1
4901784	157	C	10/22/2019	10:49	-132.792	43.613	0	427.20	0	5.1790	0	36.1340	8	28.558	0	423.349	0	72.1	4	23.8	4	-1E+10	1	-1E+10	1	-1E+10	1	-1E+10	1	-1E+10	1	-1E+10	1
4901784	157	C	10/22/2019	10:49	-132.792	43.613	0	429.90	0	5.1650	0	36.1360	8	28.561	0	426.022	0	71.0	4	23.4	4	-1E+10	1	-1E+10	1	-1E+10	1	-1E+10	1	-1E+10	1	-1E+10	1
4901784	157	C	10/22/2019	10:49	-132.792	43.613	0	432.60	0	5.1450	0	36.1390	8	28.566	0	428.695	0	70.0	4	23.0	4	-1E+10	1	-1E+10	1	-1E+10	1	-1E+10	1	-1E+10	1	-1E+10	1
4901784	157	C	10/22/2019	10:49	-132.792	43.613	0	435.30	0	5.1340	0	36.1420	8	28.570	0	431.368	0	69.0	4	22.7	4	-1E+10	1	-1E+10	1	-1E+10	1	-1E+10	1	-1E+10	1	-1E+10	1
4901784	157	C	10/22/2019	10:49	-132.792	43.613	0	437.20	0	5.1150	0	36.1460	8	28.575	0	433.249	0	68.5	4	22.5	4	-1E+10	1	-1E+10	1	-1E+10	1	-1E+10	1	-1E+10	1	-1E+10	1
4901784	157	C	10/22/2019	10:49	-132.792	43.613	0	439.90	0	5.1200	0	36.1460	8	28.574	0	435.921	0	67.4	4	22.2	4	-1E+10	1	-1E+10	1	-1E+10	1	-1E+10	1	-1E+10	1	-1E+10	1
4901784	157	C	10/22/2019	10:49	-132.792	43.613	0	442.60	0	5.1700	0	36.1540	8	28.575	0	438.594	0	66.7	4	22.0	4	-1E+10	1	-1E+10	1	-1E+10	1	-1E+10	1	-1E+10	1	-1E+10	1
4901784	157	C	10/22/2019	10:49	-132.792	43.613	0	444.40	0	5.1550	0	36.1520	8	28.575	0	440.376	0	67.1	4	22.1	4	-1E+10	1	-1E+10	1	-1E+10	1	-1E+10	1	-1E+10	1	-1E+10	1
4901784	157	C	10/22/2019	10:49	-132.792	43.613	0	447.30	0	5.0870	0	36.1490	8	28.581	0	443.246	0	67.5	4	22.2	4	-1E+10	1	-1E+10	1	-1E+10	1	-1E+10	1	-1E+10	1	-1E+10	1
4901784	157	C	10/22/2019	10:49	-132.792	43.613	0	450.00	0	5.0380	0	36.1470	8	28.585	0	445.919	0	67.1	4	22.0	4	-1E+10	1	-1E+10	1	-1E+10	1	-1E+10	1	-1E+10	1	-1E+10	1
4901784	157	C	10/22/2019	10:49	-132.792	43.613	0	452.70	0	5.0350	0	36.1460	8	28.585	0	448.592	0	65.9	4	21.7	4	-1E+10	1	-1E+10	1	-1E+10	1	-1E+10	1	-1E+10	1	-1E+10	1
4901784	157	C	10/22/2019	10:49	-132.792	43.613	0	455.40	0	5.0260	0	36.1470	8	28.587	0	451.264	0	64.8	4	21.3	4	-1E+10	1	-1E+10	1	-1E+10	1	-1E+10	1	-1E+10	1	-1E+10	1
4901784	157	C	10/22/2019	10:49	-132.792	43.613	0	457.30	0	5.0070	0	36.1530	8	28.594	0	453.145	0	64.3	4	21.1	4	-1E+10	1	-1E+10	1	-1E+10	1	-1E+10	1	-1E+10	1	-1E+10	1
4901784	157	C	10/22/2019	10:49	-132.792	43.613	0	460.00	0	4.9760	0	36.1550	8	28.599	0	455.817	0	63.9	4	21.0	4	-1E+10	1	-1E+10	1	-1E+10	1	-1E+10	1	-1E+10	1	-1E+10	1
4901784	157	C	10/22/2019	10:49	-132.792	43.613	0	462.80	0	4.9460	0	36.1540	8	28.602	0	458.589	0	63.5	4	20.8	4	-1E+10	1	-1E+10	1	-1E+10	1	-1E+10	1	-1E+10	1	-1E+10	1
4901784	157	C	10/22/2019	10:49	-132.792	43.613	0	464.60	0	4.9420	0	36.1540	8	28.602	0	460.371	0	63.0	4	20.7	4	-1E+10	1	-1E+10	1	-1E+10	1	-1E+10	1	-1E+10	1	-1E+10	1
4901784	157	C	10/22/2019	10:49	-132.792	43.613	0	467.40	0	4.9020	0	36.1570	8	28.609	0	463.142	0	62.6	4	20.5	4	-1E+10	1	-1E+10	1	-1E+10	1	-1E+10	1	-1E+10	1	-1E+10	1
4901784	157	C	10/22/2019	10:49	-132.792	43.613	0	470.10	0	4.8550	0	36.1570	8	28.615	0	465.814	0	62.1	4	20.3	4	-1E+10	1	-1E+10	1	-1E+10	1	-1E+10	1	-1E+10	1	-1E+10	1
4901784	157	C	10/22/2019	10:49	-132.792	43.613	0	472.10	0	4.8370	0	36.1600	8	28.619	0	467.794	0	61.4	4	20.1	4	-1E+10	1	-1E+10	1	-1E+10	1	-1E+10	1	-1E+10	1	-1E+10	1
4901784	157	C	10/22/2019	10:49	-132.792	43.613	0	474.80	0	4.8200	0	36.1610	8	28.622	0	470.466	0	60.2	4	19.7	4	-1E+10	1	-1E+10	1	-1E+10	1	-1E+10	1	-1E+10	1	-1E+10	1
4901784	157	C	10/22/2019	10:49	-132.792	43.613	0	477.70	0	4.8230	0	36.1640	8	28.624	0	473.336	0	58.4	4	19.1	4	-1E+10	1	-1E+10	1	-1E+10	1	-1E+10	1	-1E+10	1	-1E+10	1
4901784	157	C	10/22/2019	10:49	-132.792	43.613	0	479.60	0	4.8310	0	36.1690	8	28.627	0	475.217	0	57.2	4	18.7	4	-1E+10	1	-1E+10	1	-1E+10	1	-1E+10	1	-1E+10	1	-1E+10	1
4901784	157	C	10/22/2019	10:49	-132.792	43.613	0	482.60	0	4.8720	0	36.1780	8	28.630	0	478.186	0	56.7	4	18.5	4	-1E+10	1	-1E+10	1	-1E+10	1	-1E+10	1	-1E+10	1	-1E+10	1
4901784	157	C	10/22/2019	10:49	-132.792	43.613	0	485.40	0	4.7980	0	36.1770	8	28.638	0	480.957	0	56.8	4	18.6	4	-1E+10	1	-1E+10	1	-1E+10	1	-1E+10	1	-1E+10	1	-1E+10	1
4901784	157	C	10/22/2019	10:49	-132.792	43.613	0	487.90	0	4.7800	0	36.1760	8	28.639	0	483.431	0	56.3	4	18.4	4	-1E+10	1	-1E+10	1	-1E+10	1	-1E+10	1	-1E+10	1	-1E+10	1
4901784	157	C	10/22/2019	10:49	-132.792	43.613	0	489.80	0	4.7610	0	36.1780	8	28.643	0	485.312	0	55.6	4	18.2	4	-1E+10	1	-1E+10	1	-1E+10	1	-1E+10	1	-1E+10	1	-1E+10	1
4901784	157	C	10/22/2019	10:49	-132.792	43.613	0	492.10	0	4.7620	0	36.1820	8	28.646	0	487.588	0	54.3	4	17.7	4	-1E+10	1	-1E+10	1	-1E+10	1	-1E+10	1	-1E+10	1	-1E+10	1
4901784	157	C	10/22/2019	10:49	-132.792	43.613	0	495.30	0	4.7670	0	36.1880	8	28.650	0	490.755	0	52.8	4	17.2	4	-1E+10	1	-1E+10	1	-1E+10	1	-1E+10	1	-1E+10	1	-1E+10	1
4901784	157	C	10/22/2019	10:49	-132.792	43.613	0	497.70	0	4.8000	0	36.1940	8	28.651	0	493.130	0	51.7	4	16.9	4	-1E+10	1	-1E+10	1	-1E+10	1	-1E+10	1	-1E+10	1	-1E+10	1
4901784	157	C	10/22/2019	10:49	-132.792	43.613	0	500.10	0	4.7770	0	36.1940	8	28.654	0	495.505	0	51.2	4	16.7	4	-1E+10	1	-1E+10	1	-1E+10	1	-1E+10	1	-1E+10	1	-1E+10	1
4901784	157	C	10/22/2019	10:49	-132.792	43.613	0	504.90	0	4.7730	0	36.2000	8	28.659	0	500.255	0	49.7	4	16.2	4	-1E+10	1	-1E+10	1	-1E+10	1	-1E+10	1	-1E+10	1	-1E+10	1
4901784	157	C	10/22/2019	10:49	-132.792	43.613	0	510.60	0	4.7400	0	36.2040	8	28.666	0	505.896	0	49.1	4	16.0	4	-1E+10	1	-1E+10	1	-1E+10	1	-1E+10	1	-1E+10	1	-1E+10	1
4901784	157	C	10/22/2019	10:49	-132.792	43.613	0	515.60	0	4.7200	0	36.2060	8	28.670	0	510.844	0	48.0	4	15.7	4	-1E+10	1	-1E+10	1	-1E+10	1	-1E+10	1	-1E+10	1	-1E+10	1
4901784	157	C	10/22/2019	10:49	-132.792	43.613	0	520.50	0	4.6970	0	36.2110	8	28.677	0	515.692	0	46.6	4	15.2	4	-1E+10	1	-1E+10	1	-1E+10	1	-1E+10	1	-1E+10	1	-1E+10	1
4901784	157	C	10/22/2019	10:49	-132.792	43.613	0	525.40	0	4.6910	0	36.2150	8	28.681	0	520.541	0	45.3	4	14.8	4	-1E+10	1	-1E+10	1	-1E+10	1	-1E+10	1	-1E+10	1	-1E+10	1
4901784	157	C	10/22/2019	10:49	-132.792	43.613	0	530.50	0	4.6810	0	36.2190	8	28.685	0	525.587	0	43.8	4	14.3	4	-1E+10	1	-1E+10	1	-1E+10	1	-1E+10	1	-1E+10	1	-1E+10	1
4901784	157	C	10/22/2019	10:49	-132.792	43.613	0	535.50	0	4.6590	0	36.2270	8	28.694	0	530.535	0	41.8	4	13.6	4	-1E+10	1	-1E+10	1	-1E+10	1	-1E+10	1	-1E+10	1	-1E+10	1
4901784	157	C	10/22/2019	10:49	-132.792	43.613	0	540.60	0	4.6400	0	36.2340	8	28.702	0	535.581	0	40.4	4	13.1	4	-1E+10	1	-1E+10	1	-1E+10	1	-1E+10	1	-1E+10	1	-1E+10	1
4901784	157	C	10/22/2019	10:49	-132.792	43.613	0	545.80	0	4.6200	0	36.2400	8	28.709	0	540.726	0	39.1	4	12.7	4	-1E+10	1	-1E+10	1	-1E+10	1	-1E+10	1	-1E+10	1	-1E+10	1
4901784	157	C	10/22/2019	10:49	-132.792	43.613	0	550.10	0	4.5970	0	36.2440	8	28.715	0	544.980	0	38.1	4	12.4	4	-1E+10	1	-1E+10	1	-1E+10	1	-1E+10	1	-1E+10	1	-1E+10	1
4901784	157	C	10/22/2019	10:49	-132.792	43.613	0	554.40	0	4.5850	0	36.2510	8	28.722	0	549.234	0	36.9	4	12.0	4	-1E+10	1	-1E+10	1	-1E+10	1	-1E+10	1	-1E+10	1	-1E+10	1
4901784	157	C	10/22/2019	10:49	-132.792	43.613	0	559.60	0	4.5670	0	36.2550	8	28.727	0	554.379	0	36.1	4	11.7	4	-1E+10	1	-1E+10	1	-1E+10	1	-1E+10	1	-1E+10	1	-1E+10	1
4901784	157	C	10/22/2019	10:49	-132.792	43.613	0	564.80	0	4.5550	0	36.2560	8	28.729	0	559.524	0	35.0	4	11.4	4	-1E+10	1	-1E+10	1	-1E+10	1	-1E+10	1	-1E+10	1	-1E+10	1
4901784	157	C	10/22/2019	10:49	-132.792	43.613	0	570.00	0	4.5360	0	36.2640	8	28.738	0	564.668	0	32.8	4	10.7	4	-1E+10	1	-1E+10	1	-1E+10	1	-1E+10	1	-1E+10	1	-1E+10	1
4901784	157	C	10/22/2019	10:49	-132.792	43.613	0	575.20	0	4.5300	0	36.2760	8	28.748	0	569.812	0	31.0	4	10.1	4	-1E+10	1	-1E+10	1	-1E+10	1	-1E+10	1	-1E+10	1	-1E+10	1
4901784	157	C	10/22/2019	10:49	-132.792	43.613	0	580.50	0	4.5180	0	36.2820	8	28.754	0	575.055	0	29.5	4	9.6	4	-1E+10	1	-1E+10	1	-1E+10	1	-1E+10	1	-1E+10	1	-1E+10	1
4901784	157	C	10/22/2019	10:49	-132.792	43.613	0	584.90	0	4.5300	0	36.2910	8	28.760	0	579.408	0	28.3	4	9.2	4	-1E+10	1	-1E+10	1	-1E+10	1	-1E+10	1	-1E+10	1	-1E+10	1
4901784	157	C	10/22/2019	10:49	-132.792	43.613	0	589.30	0	4.4970	0	36.2950	8	28.767	0	583.760	0	27.7	4	9.0	4	-1E+10	1	-1E+10	1	-1E+10	1	-1E+10	1	-1E+10	1	-1E+10	1
4901784	157	C	10/22/2019	10:49	-132.792	43.613	0	594.80	0	4.4900	0	36.2990	8	28.771	0	589.201	0	26.9	4	8.7	4	-1E+10	1	-1E+10	1	-1E+10	1	-1E+10	1	-1E+10	1	-1E+10	1
4901784	157	C	10/22/2019	10:49	-132.792	43.613	0	600.20	0	4.4650	0	36.3020	8	28.776	0	594.542	0	26.2	4	8.5	4	-1E+10	1	-1E+10	1	-1E+10	1	-1E+10	1	-1E+10	1	-1E+10	1
4901784	157	C	10/22/2019	10:49	-132.792	43.613	0	605.70	0	4.4390	0	36.3080	8	28.784	0	599.983	0	25.3	4	8.2	4	-1E+10	1	-1E+10	1	-1E+10	1	-1E+10	1	-1E+10	1	-1E+10	1
4901784	157	C	10/22/2019	10:49	-132.792	43.613	0	610.20	0	4.4270	0	36.3150	8	28.791	0	604.434	0	24.6	4	8.0	4	-1E+10	1	-1E+10	1	-1E+10	1	-1E+10	1	-1E+10	1	-1E+10	1
4901784	157	C	10/22/2019	10:49	-132.792	43.613	0	614.80	0	4.4240	0	36.3170	8	28.793	0	608.983	0	24.1	4	7.8	4	-1E+10	1	-1E+10	1	-1E+10	1	-1E+10	1	-1E+10	1	-1E+10	1
4901784	157	C	10/22/2019	10:49	-132.792	43.613	0	620.20	0	4.4170	0	36.3200	8	28.796	0	614.324	0	23.2	4	7.5	4	-1E+10	1	-1E+10	1	-1E+10	1	-1E+10	1	-1E+10	1	-1E+10	1
4901784	157	C	10/22/2019	10:49	-132.792	43.613	0	624.80	0	4.3980	0	36.3280	8	28.805	0	618.874	0	22.6	4	7.3	4	-1E+10	1	-1E+10	1	-1E+10	1	-1E+10	1	-1E+10	1	-1E+10	1
4901784	157	C	10/22/2019	10:49	-132.792	43.613	0	629.40	0	4.3950	0	36.3290	8	28.806	0	623.423	0	22.1	4	7.1	4	-1E+10	1	-1E+10	1	-1E+10	1	-1E+10	1	-1E+10	1	-1E+10	1
4901784	157	C	10/22/2019	10:49	-132.792	43.613	0	635.00	0	4.3800	0	36.3350	8	28.812	0	628.962	0	21.4	4	6.9	4	-1E+10	1	-1E+10	1	-1E+10	1	-1E+10	1	-1E+10	1	-1E+10	1
4901784	157	C	10/22/2019	10:49	-132.792	43.613	0	640.40	0	4.3670	0	36.3400	8	28.818	0	634.302	0	20.7	4	6.7	4	-1E+10	1	-1E+10	1	-1E+10	1	-1E+10	1	-1E+10	1	-1E+10	1
4901784	157	C	10/22/2019	10:49	-132.792	43.613	0	645.10	0	4.3450	0	36.3430	8	28.823	0	638.950	0	20.2	4	6.5	4	-1E+10	1	-1E+10	1	-1E+10	1	-1E+10	1	-1E+10	1	-1E+10	1
4901784	157	C	10/22/2019	10:49	-132.792	43.613	0	649.70	0	4.3370	0	36.3480	8	28.828	0	643.499	0	19.5	4	6.3	4	-1E+10	1	-1E+10	1	-1E+10	1	-1E+10	1	-1E+10	1	-1E+10	1
4901784	157	C	10/22/2019	10:49	-132.792	43.613	0	655.40	0	4.3260	0	36.3540	8	28.834	0	649.136	0	18.7	4	6.1	4	-1E+10	1	-1E+10	1	-1E+10	1	-1E+10	1	-1E+10	1	-1E+10	1
4901784	157	C	10/22/2019	10:49	-132.792	43.613	0	660.10	0	4.3070	0	36.3620	8	28.842	0	653.784	0	18.3	4	5.9	4	-1E+10	1	-1E+10	1	-1E+10	1	-1E+10	1	-1E+10	1	-1E+10	1
4901784	157	C	10/22/2019	10:49	-132.792	43.613	0	664.90	0	4.3030	0	36.3650	8	28.845	0	658.530	0	17.8	4	5.8	4	-1E+10	1	-1E+10	1	-1E+10	1	-1E+10	1	-1E+10	1	-1E+10	1
4901784	157	C	10/22/2019	10:49	-132.792	43.613	0	669.70	0	4.3010	0	36.3690	8	28.849	0	663.277	0	17.3	4	5.6	4	-1E+10	1	-1E+10	1	-1E+10	1	-1E+10	1	-1E+10	1	-1E+10	1
4901784	157	C	10/22/2019	10:49	-132.792	43.613	0	674.40	0	4.2980	0	36.3730	8	28.852	0	667.924	0	16.9	4	5.5	4	-1E+10	1	-1E+10	1	-1E+10	1	-1E+10	1	-1E+10	1	-1E+10	1
4901784	157	C	10/22/2019	10:49	-132.792	43.613	0	680.10	0	4.2880	0	36.3770	8	28.857	0	673.560	0	16.6	4	5.4	4	-1E+10	1	-1E+10	1	-1E+10	1	-1E+10	1	-1E+10	1	-1E+10	1
4901784	157	C	10/22/2019	10:49	-132.792	43.613	0	685.60	0	4.2680	0	36.3830	8	28.864	0	678.998	0	16.2	4	5.2	4	-1E+10	1	-1E+10	1	-1E+10	1	-1E+10	1	-1E+10	1	-1E+10	1
4901784	157	C	10/22/2019	10:49	-132.792	43.613	0	690.50	0	4.2510	0	36.3850	8	28.867	0	683.843	0	16.0	4	5.2	4	-1E+10	1	-1E+10	1	-1E+10	1	-1E+10	1	-1E+10	1	-1E+10	1
4901784	157	C	10/22/2019	10:49	-132.792	43.613	0	695.30	0	4.2220	0	36.3890	8	28.873	0	688.589	0	15.6	4	5.0	4	-1E+10	1	-1E+10	1	-1E+10	1	-1E+10	1	-1E+10	1	-1E+10	1
4901784	157	C	10/22/2019	10:49	-132.792	43.613	0	700.20	0	4.1940	0	36.3980	8	28.884	0	693.433	0	15.2	4	4.9	4	-1E+10	1	-1E+10	1	-1E+10	1	-1E+10	1	-1E+10	1	-1E+10	1
4901784	157	C	10/22/2019	10:49	-132.792	43.613	0	705.30	0	4.1820	0	36.4020	8	28.888	0	698.475	0	14.9	4	4.8	4	-1E+10	1	-1E+10	1	-1E+10	1	-1E+10	1	-1E+10	1	-1E+10	1
4901784	157	C	10/22/2019	10:49	-132.792	43.613	0	710.30	0	4.1760	0	36.4060	8	28.892	0	703.419	0	14.6	4	4.7	4	-1E+10	1	-1E+10	1	-1E+10	1	-1E+10	1	-1E+10	1	-1E+10	1
4901784	157	C	10/22/2019	10:49	-132.792	43.613	0	715.30	0	4.1530	0	36.4090	8	28.897	0	708.362	0	14.4	4	4.6	4	-1E+10	1	-1E+10	1	-1E+10	1	-1E+10	1	-1E+10	1	-1E+10	1
4901784	157	C	10/22/2019	10:49	-132.792	43.613	0	720.20	0	4.1470	0	36.4140	8	28.902	0	713.206	0	14.1	4	4.5	4	-1E+10	1	-1E+10	1	-1E+10	1	-1E+10	1	-1E+10	1	-1E+10	1
4901784	157	C	10/22/2019	10:49	-132.792	43.613	0	725.20	0	4.1290	0	36.4170	8	28.906	0	718.149	0	13.9	4	4.5	4	-1E+10	1	-1E+10	1	-1E+10	1	-1E+10	1	-1E+10	1	-1E+10	1
4901784	157	C	10/22/2019	10:49	-132.792	43.613	0	730.20	0	4.0930	0	36.4190	8	28.912	0	723.091	0	13.9	4	4.5	4	-1E+10	1	-1E+10	1	-1E+10	1	-1E+10	1	-1E+10	1	-1E+10	1
4901784	157	C	10/22/2019	10:49	-132.792	43.613	0	735.10	0	4.0630	0	36.4180	8	28.914	0	727.935	0	13.8	4	4.4	4	-1E+10	1	-1E+10	1	-1E+10	1	-1E+10	1	-1E+10	1	-1E+10	1
4901784	157	C	10/22/2019	10:49	-132.792	43.613	0	740.20	0	4.0490	0	36.4210	8	28.918	0	732.976	0	13.7	4	4.4	4	-1E+10	1	-1E+10	1	-1E+10	1	-1E+10	1	-1E+10	1	-1E+10	1
4901784	157	C	10/22/2019	10:49	-132.792	43.613	0	745.40	0	4.0450	0	36.4220	8	28.920	0	738.117	0	13.6	4	4.4	4	-1E+10	1	-1E+10	1	-1E+10	1	-1E+10	1	-1E+10	1	-1E+10	1
4901784	157	C	10/22/2019	10:49	-132.792	43.613	0	750.50	0	4.0290	0	36.4240	8	28.923	0	743.158	0	13.5	4	4.4	4	-1E+10	1	-1E+10	1	-1E+10	1	-1E+10	1	-1E+10	1	-1E+10	1
4901784	157	C	10/22/2019	10:49	-132.792	43.613	0	755.50	0	4.0130	0	36.4270	8	28.927	0	748.100	0	13.4	4	4.3	4	-1E+10	1	-1E+10	1	-1E+10	1	-1E+10	1	-1E+10	1	-1E+10	1
4901784	157	C	10/22/2019	10:49	-132.792	43.613	0	760.70	0	3.9860	0	36.4300	8	28.932	0	753.239	0	13.3	4	4.3	4	-1E+10	1	-1E+10	1	-1E+10	1	-1E+10	1	-1E+10	1	-1E+10	1
4901784	157	C	10/22/2019	10:49	-132.792	43.613	0	765.00	0	3.9830	0	36.4340	8	28.936	0	757.489	0	13.0	4	4.2	4	-1E+10	1	-1E+10	1	-1E+10	1	-1E+10	1	-1E+10	1	-1E+10	1
4901784	157	C	10/22/2019	10:49	-132.792	43.613	0	769.20	0	3.9870	0	36.4370	8	28.938	0	761.641	0	12.9	4	4.1	4	-1E+10	1	-1E+10	1	-1E+10	1	-1E+10	1	-1E+10	1	-1E+10	1
4901784	157	C	10/22/2019	10:49	-132.792	43.613	0	774.30	0	3.9740	0	36.4380	8	28.940	0	766.681	0	12.8	4	4.1	4	-1E+10	1	-1E+10	1	-1E+10	1	-1E+10	1	-1E+10	1	-1E+10	1
4901784	157	C	10/22/2019	10:49	-132.792	43.613	0	779.30	0	3.9700	0	36.4410	8	28.943	0	771.623	0	12.6	4	4.0	4	-1E+10	1	-1E+10	1	-1E+10	1	-1E+10	1	-1E+10	1	-1E+10	1
4901784	157	C	10/22/2019	10:49	-132.792	43.613	0	784.50	0	3.9680	0	36.4460	8	28.947	0	776.762	0	12.3	4	4.0	4	-1E+10	1	-1E+10	1	-1E+10	1	-1E+10	1	-1E+10	1	-1E+10	1
4901784	157	C	10/22/2019	10:49	-132.792	43.613	0	789.70	0	3.9470	0	36.4490	8	28.952	0	781.901	0	12.3	4	3.9	4	-1E+10	1	-1E+10	1	-1E+10	1	-1E+10	1	-1E+10	1	-1E+10	1
4901784	157	C	10/22/2019	10:49	-132.792	43.613	0	795.00	0	3.9480	0	36.4510	8	28.953	0	787.138	0	12.1	4	3.9	4	-1E+10	1	-1E+10	1	-1E+10	1	-1E+10	1	-1E+10	1	-1E+10	1
4901784	157	C	10/22/2019	10:49	-132.792	43.613	0	800.30	0	3.9380	0	36.4530	8	28.956	0	792.376	0	12.1	4	3.9	4	-1E+10	1	-1E+10	1	-1E+10	1	-1E+10	1	-1E+10	1	-1E+10	1
4901784	157	C	10/22/2019	10:49	-132.792	43.613	0	805.70	0	3.9050	0	36.4550	8	28.961	0	797.712	0	12.1	4	3.9	4	-1E+10	1	-1E+10	1	-1E+10	1	-1E+10	1	-1E+10	1	-1E+10	1
4901784	157	C	10/22/2019	10:49	-132.792	43.613	0	810.10	0	3.8800	0	36.4570	8	28.966	0	802.060	0	12.0	4	3.8	4	-1E+10	1	-1E+10	1	-1E+10	1	-1E+10	1	-1E+10	1	-1E+10	1
4901784	157	C	10/22/2019	10:49	-132.792	43.613	0	814.60	0	3.8730	0	36.4590	8	28.968	0	806.507	0	11.8	4	3.8	4	-1E+10	1	-1E+10	1	-1E+10	1	-1E+10	1	-1E+10	1	-1E+10	1
4901784	157	C	10/22/2019	10:49	-132.792	43.613	0	820.00	0	3.8670	0	36.4640	8	28.973	0	811.843	0	11.6	4	3.7	4	-1E+10	1	-1E+10	1	-1E+10	1	-1E+10	1	-1E+10	1	-1E+10	1
4901784	157	C	10/22/2019	10:49	-132.792	43.613	0	825.50	0	3.8470	0	36.4700	8	28.980	0	817.277	0	11.4	4	3.7	4	-1E+10	1	-1E+10	1	-1E+10	1	-1E+10	1	-1E+10	1	-1E+10	1
4901784	157	C	10/22/2019	10:49	-132.792	43.613	0	830.20	0	3.8390	0	36.4740	8	28.984	0	821.921	0	11.3	4	3.6	4	-1E+10	1	-1E+10	1	-1E+10	1	-1E+10	1	-1E+10	1	-1E+10	1
4901784	157	C	10/22/2019	10:49	-132.792	43.613	0	834.60	0	3.8310	0	36.4780	8	28.988	0	826.269	0	11.2	4	3.6	4	-1E+10	1	-1E+10	1	-1E+10	1	-1E+10	1	-1E+10	1	-1E+10	1
4901784	157	C	10/22/2019	10:49	-132.792	43.613	0	840.10	0	3.8110	0	36.4830	8	28.994	0	831.703	0	11.0	4	3.5	4	-1E+10	1	-1E+10	1	-1E+10	1	-1E+10	1	-1E+10	1	-1E+10	1
4901784	157	C	10/22/2019	10:49	-132.792	43.613	0	845.50	0	3.7960	0	36.4860	8	28.998	0	837.038	0	10.9	4	3.5	4	-1E+10	1	-1E+10	1	-1E+10	1	-1E+10	1	-1E+10	1	-1E+10	1
4901784	157	C	10/22/2019	10:49	-132.792	43.613	0	850.20	0	3.7880	0	36.4890	8	29.001	0	841.681	0	10.9	4	3.5	4	-1E+10	1	-1E+10	1	-1E+10	1	-1E+10	1	-1E+10	1	-1E+10	1
4901784	157	C	10/22/2019	10:49	-132.792	43.613	0	854.80	0	3.7780	0	36.4920	8	29.005	0	846.226	0	10.8	4	3.4	4	-1E+10	1	-1E+10	1	-1E+10	1	-1E+10	1	-1E+10	1	-1E+10	1
4901784	157	C	10/22/2019	10:49	-132.792	43.613	0	860.40	0	3.7650	0	36.4960	8	29.009	0	851.758	0	10.7	4	3.4	4	-1E+10	1	-1E+10	1	-1E+10	1	-1E+10	1	-1E+10	1	-1E+10	1
4901784	157	C	10/22/2019	10:49	-132.792	43.613	0	865.10	0	3.7560	0	36.4990	8	29.013	0	856.402	0	10.6	4	3.4	4	-1E+10	1	-1E+10	1	-1E+10	1	-1E+10	1	-1E+10	1	-1E+10	1
4901784	157	C	10/22/2019	10:49	-132.792	43.613	0	869.70	0	3.7420	0	36.5030	8	29.017	0	860.946	0	10.6	4	3.4	4	-1E+10	1	-1E+10	1	-1E+10	1	-1E+10	1	-1E+10	1	-1E+10	1
4901784	157	C	10/22/2019	10:49	-132.792	43.613	0	875.30	0	3.7260	0	36.5080	8	29.023	0	866.478	0	10.5	4	3.4	4	-1E+10	1	-1E+10	1	-1E+10	1	-1E+10	1	-1E+10	1	-1E+10	1
4901784	157	C	10/22/2019	10:49	-132.792	43.613	0	880.00	0	3.7220	0	36.5090	8	29.024	0	871.121	0	10.5	4	3.3	4	-1E+10	1	-1E+10	1	-1E+10	1	-1E+10	1	-1E+10	1	-1E+10	1
4901784	157	C	10/22/2019	10:49	-132.792	43.613	0	884.70	0	3.7130	0	36.5130	8	29.028	0	875.764	0	10.4	4	3.3	4	-1E+10	1	-1E+10	1	-1E+10	1	-1E+10	1	-1E+10	1	-1E+10	1
4901784	157	C	10/22/2019	10:49	-132.792	43.613	0	890.30	0	3.7060	0	36.5170	8	29.032	0	881.295	0	10.4	4	3.3	4	-1E+10	1	-1E+10	1	-1E+10	1	-1E+10	1	-1E+10	1	-1E+10	1
4901784	157	C	10/22/2019	10:49	-132.792	43.613	0	895.00	0	3.7000	0	36.5200	8	29.036	0	885.938	0	10.3	4	3.3	4	-1E+10	1	-1E+10	1	-1E+10	1	-1E+10	1	-1E+10	1	-1E+10	1
4901784	157	C	10/22/2019	10:49	-132.792	43.613	0	899.90	0	3.6950	0	36.5210	8	29.037	0	890.778	0	10.3	4	3.3	4	-1E+10	1	-1E+10	1	-1E+10	1	-1E+10	1	-1E+10	1	-1E+10	1
4901784	157	C	10/22/2019	10:49	-132.792	43.613	0	905.10	0	3.6800	0	36.5240	8	29.041	0	895.914	0	10.3	4	3.3	4	-1E+10	1	-1E+10	1	-1E+10	1	-1E+10	1	-1E+10	1	-1E+10	1
4901784	157	C	10/22/2019	10:49	-132.792	43.613	0	909.80	0	3.6680	0	36.5250	8	29.043	0	900.556	0	10.3	4	3.3	4	-1E+10	1	-1E+10	1	-1E+10	1	-1E+10	1	-1E+10	1	-1E+10	1
4901784	157	C	10/22/2019	10:49	-132.792	43.613	0	914.70	0	3.6580	0	36.5290	8	29.047	0	905.396	0	10.3	4	3.3	4	-1E+10	1	-1E+10	1	-1E+10	1	-1E+10	1	-1E+10	1	-1E+10	1
4901784	157	C	10/22/2019	10:49	-132.792	43.613	0	919.60	0	3.6490	0	36.5310	8	29.050	0	910.235	0	10.2	4	3.3	4	-1E+10	1	-1E+10	1	-1E+10	1	-1E+10	1	-1E+10	1	-1E+10	1
4901784	157	C	10/22/2019	10:49	-132.792	43.613	0	924.50	0	3.6390	0	36.5340	8	29.053	0	915.075	0	10.2	4	3.3	4	-1E+10	1	-1E+10	1	-1E+10	1	-1E+10	1	-1E+10	1	-1E+10	1
4901784	157	C	10/22/2019	10:49	-132.792	43.613	0	929.40	0	3.6290	0	36.5370	8	29.057	0	919.914	0	10.3	4	3.3	4	-1E+10	1	-1E+10	1	-1E+10	1	-1E+10	1	-1E+10	1	-1E+10	1
4901784	157	C	10/22/2019	10:49	-132.792	43.613	0	934.40	0	3.6190	0	36.5390	8	29.059	0	924.852	0	10.2	4	3.3	4	-1E+10	1	-1E+10	1	-1E+10	1	-1E+10	1	-1E+10	1	-1E+10	1
4901784	157	C	10/22/2019	10:49	-132.792	43.613	0	939.50	0	3.6090	0	36.5410	8	29.062	0	929.888	0	10.2	4	3.3	4	-1E+10	1	-1E+10	1	-1E+10	1	-1E+10	1	-1E+10	1	-1E+10	1
4901784	157	C	10/22/2019	10:49	-132.792	43.613	0	944.60	0	3.5910	0	36.5450	8	29.067	0	934.925	0	10.3	4	3.3	4	-1E+10	1	-1E+10	1	-1E+10	1	-1E+10	1	-1E+10	1	-1E+10	1
4901784	157	C	10/22/2019	10:49	-132.792	43.613	0	949.60	0	3.5870	0	36.5470	8	29.069	0	939.862	0	10.3	4	3.3	4	-1E+10	1	-1E+10	1	-1E+10	1	-1E+10	1	-1E+10	1	-1E+10	1
4901784	157	C	10/22/2019	10:49	-132.792	43.613	0	954.60	0	3.5710	0	36.5520	8	29.075	0	944.800	0	10.3	4	3.3	4	-1E+10	1	-1E+10	1	-1E+10	1	-1E+10	1	-1E+10	1	-1E+10	1
4901784	157	C	10/22/2019	10:49	-132.792	43.613	0	959.70	0	3.5650	0	36.5540	8	29.077	0	949.836	0	10.3	4	3.3	4	-1E+10	1	-1E+10	1	-1E+10	1	-1E+10	1	-1E+10	1	-1E+10	1
4901784	157	C	10/22/2019	10:49	-132.792	43.613	0	964.70	0	3.5550	0	36.5560	8	29.080	0	954.773	0	10.3	4	3.3	4	-1E+10	1	-1E+10	1	-1E+10	1	-1E+10	1	-1E+10	1	-1E+10	1
4901784	157	C	10/22/2019	10:49	-132.792	43.613	0	969.90	0	3.5450	0	36.5580	8	29.082	0	959.908	0	10.3	4	3.3	4	-1E+10	1	-1E+10	1	-1E+10	1	-1E+10	1	-1E+10	1	-1E+10	1
4901784	157	C	10/22/2019	10:49	-132.792	43.613	0	975.00	0	3.5350	0	36.5610	8	29.086	0	964.943	0	10.4	4	3.3	4	-1E+10	1	-1E+10	1	-1E+10	1	-1E+10	1	-1E+10	1	-1E+10	1
4901784	157	C	10/22/2019	10:49	-132.792	43.613	0	980.30	0	3.5250	0	36.5640	8	29.089	0	970.176	0	10.4	4	3.3	4	-1E+10	1	-1E+10	1	-1E+10	1	-1E+10	1	-1E+10	1	-1E+10	1
4901784	157	C	10/22/2019	10:49	-132.792	43.613	0	985.60	0	3.5150	0	36.5670	8	29.093	0	975.409	0	10.4	4	3.3	4	-1E+10	1	-1E+10	1	-1E+10	1	-1E+10	1	-1E+10	1	-1E+10	1
4901784	157	C	10/22/2019	10:49	-132.792	43.613	0	990.10	0	3.5080	0	36.5700	8	29.096	0	979.852	0	10.5	4	3.3	4	-1E+10	1	-1E+10	1	-1E+10	1	-1E+10	1	-1E+10	1	-1E+10	1
4901784	157	C	10/22/2019	10:49	-132.792	43.613	0	994.60	0	3.4980	0	36.5710	8	29.098	0	984.295	0	10.5	4	3.3	4	-1E+10	1	-1E+10	1	-1E+10	1	-1E+10	1	-1E+10	1	-1E+10	1
4901784	157	C	10/22/2019	10:49	-132.792	43.613	0	1000.00	0	3.4760	0	36.5760	8	29.104	0	989.626	0	10.6	4	3.4	4	-1E+10	1	-1E+10	1	-1E+10	1	-1E+10	1	-1E+10	1	-1E+10	1
4901784	157	C	10/22/2019	10:49	-132.792	43.613	0	1005.50	0	3.4690	0	36.5770	8	29.106	0	995.056	0	10.6	4	3.4	4	-1E+10	1	-1E+10	1	-1E+10	1	-1E+10	1	-1E+10	1	-1E+10	1
4901784	157	C	10/22/2019	10:49	-132.792	43.613	0	1010.10	0	3.4620	0	36.5790	8	29.108	0	999.598	0	10.7	4	3.4	4	-1E+10	1	-1E+10	1	-1E+10	1	-1E+10	1	-1E+10	1	-1E+10	1
4901784	157	C	10/22/2019	10:49	-132.792	43.613	0	1014.70	0	3.4510	0	36.5810	8	29.111	0	1004.139	0	10.7	4	3.4	4	-1E+10	1	-1E+10	1	-1E+10	1	-1E+10	1	-1E+10	1	-1E+10	1
4901784	157	C	10/22/2019	10:49	-132.792	43.613	0	1020.10	0	3.4410	0	36.5830	8	29.113	0	1009.470	0	10.7	4	3.4	4	-1E+10	1	-1E+10	1	-1E+10	1	-1E+10	1	-1E+10	1	-1E+10	1
4901784	157	C	10/22/2019	10:49	-132.792	43.613	0	1024.80	0	3.4330	0	36.5850	8	29.116	0	1014.109	0	10.8	4	3.4	4	-1E+10	1	-1E+10	1	-1E+10	1	-1E+10	1	-1E+10	1	-1E+10	1
4901784	157	C	10/22/2019	10:49	-132.792	43.613	0	1029.90	0	3.4220	0	36.5870	8	29.119	0	1019.144	0	10.8	4	3.4	4	-1E+10	1	-1E+10	1	-1E+10	1	-1E+10	1	-1E+10	1	-1E+10	1
4901784	157	C	10/22/2019	10:49	-132.792	43.613	0	1035.40	0	3.4130	0	36.5890	8	29.121	0	1024.573	0	10.8	4	3.4	4	-1E+10	1	-1E+10	1	-1E+10	1	-1E+10	1	-1E+10	1	-1E+10	1
4901784	157	C	10/22/2019	10:49	-132.792	43.613	0	1040.20	0	3.4070	0	36.5910	8	29.123	0	1029.311	0	10.9	4	3.5	4	-1E+10	1	-1E+10	1	-1E+10	1	-1E+10	1	-1E+10	1	-1E+10	1
4901784	157	C	10/22/2019	10:49	-132.792	43.613	0	1045.00	0	3.3980	0	36.5930	8	29.126	0	1034.049	0	11.0	4	3.5	4	-1E+10	1	-1E+10	1	-1E+10	1	-1E+10	1	-1E+10	1	-1E+10	1
4901784	157	C	10/22/2019	10:49	-132.792	43.613	0	1049.80	0	3.3910	0	36.5940	8	29.127	0	1038.787	0	11.0	4	3.5	4	-1E+10	1	-1E+10	1	-1E+10	1	-1E+10	1	-1E+10	1	-1E+10	1
4901784	157	C	10/22/2019	10:49	-132.792	43.613	0	1054.70	0	3.3820	0	36.5960	8	29.130	0	1043.623	0	11.0	4	3.5	4	-1E+10	1	-1E+10	1	-1E+10	1	-1E+10	1	-1E+10	1	-1E+10	1
4901784	157	C	10/22/2019	10:49	-132.792	43.613	0	1059.70	0	3.3690	0	36.5980	8	29.133	0	1048.558	0	11.1	4	3.5	4	-1E+10	1	-1E+10	1	-1E+10	1	-1E+10	1	-1E+10	1	-1E+10	1
4901784	157	C	10/22/2019	10:49	-132.792	43.613	0	1064.80	0	3.3560	0	36.6010	8	29.137	0	1053.592	0	11.1	4	3.5	4	-1E+10	1	-1E+10	1	-1E+10	1	-1E+10	1	-1E+10	1	-1E+10	1
4901784	157	C	10/22/2019	10:49	-132.792	43.613	0	1069.80	0	3.3510	0	36.6020	8	29.138	0	1058.526	0	11.2	4	3.5	4	-1E+10	1	-1E+10	1	-1E+10	1	-1E+10	1	-1E+10	1	-1E+10	1
4901784	157	C	10/22/2019	10:49	-132.792	43.613	0	1074.90	0	3.3400	0	36.6020	8	29.139	0	1063.560	0	11.3	4	3.6	4	-1E+10	1	-1E+10	1	-1E+10	1	-1E+10	1	-1E+10	1	-1E+10	1
4901784	157	C	10/22/2019	10:49	-132.792	43.613	0	1079.90	0	3.3270	0	36.6040	8	29.142	0	1068.494	0	11.3	4	3.6	4	-1E+10	1	-1E+10	1	-1E+10	1	-1E+10	1	-1E+10	1	-1E+10	1
4901784	157	C	10/22/2019	10:49	-132.792	43.613	0	1085.00	0	3.3230	0	36.6050	8	29.143	0	1073.527	0	11.3	4	3.6	4	-1E+10	1	-1E+10	1	-1E+10	1	-1E+10	1	-1E+10	1	-1E+10	1
4901784	157	C	10/22/2019	10:49	-132.792	43.613	0	1090.10	0	3.3200	0	36.6060	8	29.144	0	1078.560	0	11.4	4	3.6	4	-1E+10	1	-1E+10	1	-1E+10	1	-1E+10	1	-1E+10	1	-1E+10	1
4901784	157	C	10/22/2019	10:49	-132.792	43.613	0	1095.20	0	3.3130	0	36.6080	8	29.147	0	1083.593	0	11.5	4	3.6	4	-1E+10	1	-1E+10	1	-1E+10	1	-1E+10	1	-1E+10	1	-1E+10	1
4901784	157	C	10/22/2019	10:49	-132.792	43.613	0	1100.40	0	3.2970	0	36.6110	8	29.151	0	1088.724	0	11.5	4	3.6	4	-1E+10	1	-1E+10	1	-1E+10	1	-1E+10	1	-1E+10	1	-1E+10	1
4901784	157	C	10/22/2019	10:49	-132.792	43.613	0	1105.60	0	3.2920	0	36.6110	8	29.151	0	1093.856	0	11.6	4	3.7	4	-1E+10	1	-1E+10	1	-1E+10	1	-1E+10	1	-1E+10	1	-1E+10	1
4901784	157	C	10/22/2019	10:49	-132.792	43.613	0	1110.10	0	3.2860	0	36.6120	8	29.153	0	1098.296	0	11.7	4	3.7	4	-1E+10	1	-1E+10	1	-1E+10	1	-1E+10	1	-1E+10	1	-1E+10	1
4901784	157	C	10/22/2019	10:49	-132.792	43.613	0	1114.60	0	3.2690	0	36.6150	8	29.157	0	1102.737	0	11.8	4	3.7	4	-1E+10	1	-1E+10	1	-1E+10	1	-1E+10	1	-1E+10	1	-1E+10	1
4901784	157	C	10/22/2019	10:49	-132.792	43.613	0	1120.00	0	3.2590	0	36.6170	8	29.159	0	1108.065	0	11.8	4	3.7	4	-1E+10	1	-1E+10	1	-1E+10	1	-1E+10	1	-1E+10	1	-1E+10	1
4901784	157	C	10/22/2019	10:49	-132.792	43.613	0	1124.70	0	3.2530	0	36.6180	8	29.161	0	1112.702	0	11.9	4	3.8	4	-1E+10	1	-1E+10	1	-1E+10	1	-1E+10	1	-1E+10	1	-1E+10	1
4901784	157	C	10/22/2019	10:49	-132.792	43.613	0	1129.40	0	3.2500	0	36.6180	8	29.161	0	1117.340	0	12.0	4	3.8	4	-1E+10	1	-1E+10	1	-1E+10	1	-1E+10	1	-1E+10	1	-1E+10	1
4901784	157	C	10/22/2019	10:49	-132.792	43.613	0	1135.20	0	3.2310	0	36.6230	8	29.167	0	1123.062	0	12.2	4	3.8	4	-1E+10	1	-1E+10	1	-1E+10	1	-1E+10	1	-1E+10	1	-1E+10	1
4901784	157	C	10/22/2019	10:49	-132.792	43.613	0	1140.10	0	3.2190	0	36.6250	8	29.170	0	1127.897	0	12.3	4	3.9	4	-1E+10	1	-1E+10	1	-1E+10	1	-1E+10	1	-1E+10	1	-1E+10	1
4901784	157	C	10/22/2019	10:49	-132.792	43.613	0	1145.00	0	3.2080	0	36.6280	8	29.173	0	1132.731	0	12.4	4	3.9	4	-1E+10	1	-1E+10	1	-1E+10	1	-1E+10	1	-1E+10	1	-1E+10	1
4901784	157	C	10/22/2019	10:49	-132.792	43.613	0	1149.90	0	3.2010	0	36.6290	8	29.175	0	1137.565	0	12.6	4	4.0	4	-1E+10	1	-1E+10	1	-1E+10	1	-1E+10	1	-1E+10	1	-1E+10	1
4901784	157	C	10/22/2019	10:49	-132.792	43.613	0	1154.80	0	3.1820	0	36.6330	8	29.180	0	1142.399	0	12.7	4	4.0	4	-1E+10	1	-1E+10	1	-1E+10	1	-1E+10	1	-1E+10	1	-1E+10	1
4901784	157	C	10/22/2019	10:49	-132.792	43.613	0	1159.70	0	3.1740	0	36.6350	8	29.183	0	1147.233	0	12.9	4	4.1	4	-1E+10	1	-1E+10	1	-1E+10	1	-1E+10	1	-1E+10	1	-1E+10	1
4901784	157	C	10/22/2019	10:49	-132.792	43.613	0	1164.70	0	3.1670	0	36.6360	8	29.184	0	1152.166	0	13.0	4	4.1	4	-1E+10	1	-1E+10	1	-1E+10	1	-1E+10	1	-1E+10	1	-1E+10	1
4901784	157	C	10/22/2019	10:49	-132.792	43.613	0	1169.60	0	3.1550	0	36.6380	8	29.187	0	1157.000	0	13.2	4	4.1	4	-1E+10	1	-1E+10	1	-1E+10	1	-1E+10	1	-1E+10	1	-1E+10	1
4901784	157	C	10/22/2019	10:49	-132.792	43.613	0	1174.50	0	3.1440	0	36.6410	8	29.190	0	1161.833	0	13.3	4	4.2	4	-1E+10	1	-1E+10	1	-1E+10	1	-1E+10	1	-1E+10	1	-1E+10	1
4901784	157	C	10/22/2019	10:49	-132.792	43.613	0	1180.40	0	3.1320	0	36.6430	8	29.193	0	1167.653	0	13.5	4	4.2	4	-1E+10	1	-1E+10	1	-1E+10	1	-1E+10	1	-1E+10	1	-1E+10	1
4901784	157	C	10/22/2019	10:49	-132.792	43.613	0	1185.20	0	3.1200	0	36.6440	8	29.195	0	1172.388	0	13.6	4	4.3	4	-1E+10	1	-1E+10	1	-1E+10	1	-1E+10	1	-1E+10	1	-1E+10	1
4901784	157	C	10/22/2019	10:49	-132.792	43.613	0	1190.10	0	3.1110	0	36.6460	8	29.198	0	1177.221	0	13.8	4	4.3	4	-1E+10	1	-1E+10	1	-1E+10	1	-1E+10	1	-1E+10	1	-1E+10	1
4901784	157	C	10/22/2019	10:49	-132.792	43.613	0	1195.10	0	3.0980	0	36.6490	8	29.201	0	1182.153	0	13.9	4	4.4	4	-1E+10	1	-1E+10	1	-1E+10	1	-1E+10	1	-1E+10	1	-1E+10	1
4901784	157	C	10/22/2019	10:49	-132.792	43.613	0	1200.10	0	3.0950	0	36.6500	8	29.203	0	1187.085	0	14.0	4	4.4	4	-1E+10	1	-1E+10	1	-1E+10	1	-1E+10	1	-1E+10	1	-1E+10	1
4901784	157	C	10/22/2019	10:49	-132.792	43.613	0	1205.00	0	3.0910	0	36.6510	8	29.204	0	1191.918	0	14.1	4	4.4	4	-1E+10	1	-1E+10	1	-1E+10	1	-1E+10	1	-1E+10	1	-1E+10	1
4901784	157	C	10/22/2019	10:49	-132.792	43.613	0	1210.00	0	3.0800	0	36.6520	8	29.206	0	1196.850	0	14.3	4	4.5	4	-1E+10	1	-1E+10	1	-1E+10	1	-1E+10	1	-1E+10	1	-1E+10	1
4901784	157	C	10/22/2019	10:49	-132.792	43.613	0	1215.00	0	3.0720	0	36.6540	8	29.208	0	1201.781	0	14.4	4	4.5	4	-1E+10	1	-1E+10	1	-1E+10	1	-1E+10	1	-1E+10	1	-1E+10	1
4901784	157	C	10/22/2019	10:49	-132.792	43.613	0	1220.00	0	3.0560	0	36.6560	8	29.211	0	1206.712	0	14.6	4	4.6	4	-1E+10	1	-1E+10	1	-1E+10	1	-1E+10	1	-1E+10	1	-1E+10	1
4901784	157	C	10/22/2019	10:49	-132.792	43.613	0	1225.10	0	3.0460	0	36.6580	8	29.214	0	1211.742	0	14.8	4	4.6	4	-1E+10	1	-1E+10	1	-1E+10	1	-1E+10	1	-1E+10	1	-1E+10	1
4901784	157	C	10/22/2019	10:49	-132.792	43.613	0	1230.20	0	3.0350	0	36.6600	8	29.217	0	1216.772	0	14.9	4	4.7	4	-1E+10	1	-1E+10	1	-1E+10	1	-1E+10	1	-1E+10	1	-1E+10	1
4901784	157	C	10/22/2019	10:49	-132.792	43.613	0	1235.30	0	3.0250	0	36.6610	8	29.218	0	1221.801	0	15.1	4	4.7	4	-1E+10	1	-1E+10	1	-1E+10	1	-1E+10	1	-1E+10	1	-1E+10	1
4901784	157	C	10/22/2019	10:49	-132.792	43.613	0	1240.40	0	3.0150	0	36.6630	8	29.221	0	1226.831	0	15.2	4	4.8	4	-1E+10	1	-1E+10	1	-1E+10	1	-1E+10	1	-1E+10	1	-1E+10	1
4901784	157	C	10/22/2019	10:49	-132.792	43.613	0	1245.50	0	3.0070	0	36.6640	8	29.223	0	1231.860	0	15.3	4	4.8	4	-1E+10	1	-1E+10	1	-1E+10	1	-1E+10	1	-1E+10	1	-1E+10	1
4901784	157	C	10/22/2019	10:49	-132.792	43.613	0	1249.60	0	3.0000	0	36.6650	8	29.224	0	1235.903	0	15.5	4	4.9	4	-1E+10	1	-1E+10	1	-1E+10	1	-1E+10	1	-1E+10	1	-1E+10	1
4901784	157	C	10/22/2019	10:49	-132.792	43.613	0	1254.70	0	2.9870	0	36.6670	8	29.227	0	1240.932	0	15.6	4	4.9	4	-1E+10	1	-1E+10	1	-1E+10	1	-1E+10	1	-1E+10	1	-1E+10	1
4901784	157	C	10/22/2019	10:49	-132.792	43.613	0	1259.60	0	2.9770	0	36.6680	8	29.229	0	1245.764	0	15.7	4	4.9	4	-1E+10	1	-1E+10	1	-1E+10	1	-1E+10	1	-1E+10	1	-1E+10	1
4901784	157	C	10/22/2019	10:49	-132.792	43.613	0	1264.40	0	2.9700	0	36.6690	8	29.230	0	1250.497	0	15.9	4	5.0	4	-1E+10	1	-1E+10	1	-1E+10	1	-1E+10	1	-1E+10	1	-1E+10	1
4901784	157	C	10/22/2019	10:49	-132.792	43.613	0	1270.10	0	2.9530	0	36.6710	8	29.233	0	1256.117	0	16.0	4	5.0	4	-1E+10	1	-1E+10	1	-1E+10	1	-1E+10	1	-1E+10	1	-1E+10	1
4901784	157	C	10/22/2019	10:49	-132.792	43.613	0	1275.60	0	2.9430	0	36.6720	8	29.235	0	1261.540	0	16.2	4	5.1	4	-1E+10	1	-1E+10	1	-1E+10	1	-1E+10	1	-1E+10	1	-1E+10	1
4901784	157	C	10/22/2019	10:49	-132.792	43.613	0	1280.40	0	2.9340	0	36.6740	8	29.238	0	1266.273	0	16.4	4	5.1	4	-1E+10	1	-1E+10	1	-1E+10	1	-1E+10	1	-1E+10	1	-1E+10	1
4901784	157	C	10/22/2019	10:49	-132.792	43.613	0	1284.90	0	2.9240	0	36.6750	8	29.240	0	1270.710	0	16.5	4	5.2	4	-1E+10	1	-1E+10	1	-1E+10	1	-1E+10	1	-1E+10	1	-1E+10	1
4901784	157	C	10/22/2019	10:49	-132.792	43.613	0	1289.80	0	2.9120	0	36.6770	8	29.242	0	1275.541	0	16.7	4	5.2	4	-1E+10	1	-1E+10	1	-1E+10	1	-1E+10	1	-1E+10	1	-1E+10	1
4901784	157	C	10/22/2019	10:49	-132.792	43.613	0	1294.60	0	2.9050	0	36.6780	8	29.244	0	1280.273	0	16.9	4	5.3	4	-1E+10	1	-1E+10	1	-1E+10	1	-1E+10	1	-1E+10	1	-1E+10	1
4901784	157	C	10/22/2019	10:49	-132.792	43.613	0	1299.60	0	2.8960	0	36.6790	8	29.245	0	1285.202	0	17.1	4	5.4	4	-1E+10	1	-1E+10	1	-1E+10	1	-1E+10	1	-1E+10	1	-1E+10	1
4901784	157	C	10/22/2019	10:49	-132.792	43.613	0	1304.60	0	2.8850	0	36.6810	8	29.248	0	1290.132	0	17.3	4	5.4	4	-1E+10	1	-1E+10	1	-1E+10	1	-1E+10	1	-1E+10	1	-1E+10	1
4901784	157	C	10/22/2019	10:49	-132.792	43.613	0	1309.60	0	2.8780	0	36.6820	8	29.250	0	1295.061	0	17.5	4	5.5	4	-1E+10	1	-1E+10	1	-1E+10	1	-1E+10	1	-1E+10	1	-1E+10	1
4901784	157	C	10/22/2019	10:49	-132.792	43.613	0	1314.60	0	2.8660	0	36.6840	8	29.252	0	1299.990	0	17.7	4	5.5	4	-1E+10	1	-1E+10	1	-1E+10	1	-1E+10	1	-1E+10	1	-1E+10	1
4901784	157	C	10/22/2019	10:49	-132.792	43.613	0	1319.70	0	2.8600	0	36.6850	8	29.254	0	1305.017	0	17.8	4	5.6	4	-1E+10	1	-1E+10	1	-1E+10	1	-1E+10	1	-1E+10	1	-1E+10	1
4901784	157	C	10/22/2019	10:49	-132.792	43.613	0	1324.70	0	2.8590	0	36.6850	8	29.254	0	1309.946	0	17.9	4	5.6	4	-1E+10	1	-1E+10	1	-1E+10	1	-1E+10	1	-1E+10	1	-1E+10	1
4901784	157	C	10/22/2019	10:49	-132.792	43.613	0	1329.80	0	2.8490	0	36.6860	8	29.256	0	1314.974	0	18.1	4	5.7	4	-1E+10	1	-1E+10	1	-1E+10	1	-1E+10	1	-1E+10	1	-1E+10	1
4901784	157	C	10/22/2019	10:49	-132.792	43.613	0	1334.90	0	2.8420	0	36.6870	8	29.257	0	1320.001	0	18.2	4	5.7	4	-1E+10	1	-1E+10	1	-1E+10	1	-1E+10	1	-1E+10	1	-1E+10	1
4901784	157	C	10/22/2019	10:49	-132.792	43.613	0	1340.00	0	2.8340	0	36.6880	8	29.259	0	1325.028	0	18.4	4	5.8	4	-1E+10	1	-1E+10	1	-1E+10	1	-1E+10	1	-1E+10	1	-1E+10	1
4901784	157	C	10/22/2019	10:49	-132.792	43.613	0	1345.20	0	2.8280	0	36.6890	8	29.260	0	1330.153	0	18.6	4	5.8	4	-1E+10	1	-1E+10	1	-1E+10	1	-1E+10	1	-1E+10	1	-1E+10	1
4901784	157	C	10/22/2019	10:49	-132.792	43.613	0	1350.40	0	2.8150	0	36.6910	8	29.263	0	1335.279	0	18.9	4	5.9	4	-1E+10	1	-1E+10	1	-1E+10	1	-1E+10	1	-1E+10	1	-1E+10	1
4901784	157	C	10/22/2019	10:49	-132.792	43.613	0	1355.50	0	2.8050	0	36.6920	8	29.265	0	1340.305	0	19.1	4	6.0	4	-1E+10	1	-1E+10	1	-1E+10	1	-1E+10	1	-1E+10	1	-1E+10	1
4901784	157	C	10/22/2019	10:49	-132.792	43.613	0	1360.80	0	2.7970	0	36.6940	8	29.267	0	1345.529	0	19.3	4	6.0	4	-1E+10	1	-1E+10	1	-1E+10	1	-1E+10	1	-1E+10	1	-1E+10	1
4901784	157	C	10/22/2019	10:49	-132.792	43.613	0	1365.10	0	2.7900	0	36.6950	8	29.269	0	1349.767	0	19.4	4	6.1	4	-1E+10	1	-1E+10	1	-1E+10	1	-1E+10	1	-1E+10	1	-1E+10	1
4901784	157	C	10/22/2019	10:49	-132.792	43.613	0	1369.40	0	2.7840	0	36.7030	8	29.276	0	1354.005	0	19.6	4	6.1	4	-1E+10	1	-1E+10	1	-1E+10	1	-1E+10	1	-1E+10	1	-1E+10	1
4901784	157	C	10/22/2019	10:49	-132.792	43.613	0	1374.70	0	2.7740	0	36.7040	8	29.277	0	1359.228	0	19.9	4	6.2	4	-1E+10	1	-1E+10	1	-1E+10	1	-1E+10	1	-1E+10	1	-1E+10	1
4901784	157	C	10/22/2019	10:49	-132.792	43.613	0	1379.90	0	2.7650	0	36.7060	8	29.280	0	1364.353	0	20.0	4	6.3	4	-1E+10	1	-1E+10	1	-1E+10	1	-1E+10	1	-1E+10	1	-1E+10	1
4901784	157	C	10/22/2019	10:49	-132.792	43.613	0	1385.20	0	2.7590	0	36.7060	8	29.281	0	1369.576	0	20.3	4	6.3	4	-1E+10	1	-1E+10	1	-1E+10	1	-1E+10	1	-1E+10	1	-1E+10	1
4901784	157	C	10/22/2019	10:49	-132.792	43.613	0	1390.50	0	2.7490	0	36.7080	8	29.283	0	1374.799	0	20.5	4	6.4	4	-1E+10	1	-1E+10	1	-1E+10	1	-1E+10	1	-1E+10	1	-1E+10	1
4901784	157	C	10/22/2019	10:49	-132.792	43.613	0	1394.90	0	2.7450	0	36.7090	8	29.284	0	1379.135	0	20.6	4	6.4	4	-1E+10	1	-1E+10	1	-1E+10	1	-1E+10	1	-1E+10	1	-1E+10	1
4901784	157	C	10/22/2019	10:49	-132.792	43.613	0	1399.40	0	2.7410	0	36.7090	8	29.285	0	1383.569	0	20.8	4	6.5	4	-1E+10	1	-1E+10	1	-1E+10	1	-1E+10	1	-1E+10	1	-1E+10	1
4901784	157	C	10/22/2019	10:49	-132.792	43.613	0	1404.80	0	2.7310	0	36.7100	8	29.286	0	1388.891	0	21.1	4	6.6	4	-1E+10	1	-1E+10	1	-1E+10	1	-1E+10	1	-1E+10	1	-1E+10	1
4901784	157	C	10/22/2019	10:49	-132.792	43.613	0	1410.10	0	2.7200	0	36.7120	8	29.289	0	1394.113	0	21.4	4	6.7	4	-1E+10	1	-1E+10	1	-1E+10	1	-1E+10	1	-1E+10	1	-1E+10	1
4901784	157	C	10/22/2019	10:49	-132.792	43.613	0	1415.60	0	2.7130	0	36.7130	8	29.291	0	1399.532	0	21.7	4	6.8	4	-1E+10	1	-1E+10	1	-1E+10	1	-1E+10	1	-1E+10	1	-1E+10	1
4901784	157	C	10/22/2019	10:49	-132.792	43.613	0	1420.10	0	2.7020	0	36.7150	8	29.293	0	1403.966	0	22.0	4	6.9	4	-1E+10	1	-1E+10	1	-1E+10	1	-1E+10	1	-1E+10	1	-1E+10	1
4901784	157	C	10/22/2019	10:49	-132.792	43.613	0	1424.60	0	2.6900	0	36.7160	8	29.295	0	1408.400	0	22.2	4	6.9	4	-1E+10	1	-1E+10	1	-1E+10	1	-1E+10	1	-1E+10	1	-1E+10	1
4901784	157	C	10/22/2019	10:49	-132.792	43.613	0	1430.00	0	2.6850	0	36.7170	8	29.296	0	1413.721	0	22.4	4	7.0	4	-1E+10	1	-1E+10	1	-1E+10	1	-1E+10	1	-1E+10	1	-1E+10	1
4901784	157	C	10/22/2019	10:49	-132.792	43.613	0	1435.40	0	2.6720	0	36.7180	8	29.299	0	1419.041	0	22.7	4	7.1	4	-1E+10	1	-1E+10	1	-1E+10	1	-1E+10	1	-1E+10	1	-1E+10	1
4901784	157	C	10/22/2019	10:49	-132.792	43.613	0	1439.90	0	2.6620	0	36.7200	8	29.301	0	1423.475	0	22.9	4	7.1	4	-1E+10	1	-1E+10	1	-1E+10	1	-1E+10	1	-1E+10	1	-1E+10	1
4901784	157	C	10/22/2019	10:49	-132.792	43.613	0	1444.40	0	2.6580	0	36.7210	8	29.302	0	1427.908	0	23.0	4	7.2	4	-1E+10	1	-1E+10	1	-1E+10	1	-1E+10	1	-1E+10	1	-1E+10	1
4901784	157	C	10/22/2019	10:49	-132.792	43.613	0	1449.90	0	2.6510	0	36.7220	8	29.304	0	1433.327	0	23.3	4	7.2	4	-1E+10	1	-1E+10	1	-1E+10	1	-1E+10	1	-1E+10	1	-1E+10	1
4901784	157	C	10/22/2019	10:49	-132.792	43.613	0	1455.40	0	2.6450	0	36.7220	8	29.304	0	1438.745	0	23.5	4	7.3	4	-1E+10	1	-1E+10	1	-1E+10	1	-1E+10	1	-1E+10	1	-1E+10	1
4901784	157	C	10/22/2019	10:49	-132.792	43.613	0	1460.00	0	2.6360	0	36.7240	8	29.307	0	1443.277	0	23.8	4	7.4	4	-1E+10	1	-1E+10	1	-1E+10	1	-1E+10	1	-1E+10	1	-1E+10	1
4901784	157	C	10/22/2019	10:49	-132.792	43.613	0	1464.60	0	2.6270	0	36.7250	8	29.308	0	1447.808	0	24.0	4	7.5	4	-1E+10	1	-1E+10	1	-1E+10	1	-1E+10	1	-1E+10	1	-1E+10	1
4901784	157	C	10/22/2019	10:49	-132.792	43.613	0	1470.00	0	2.6200	0	36.7260	8	29.310	0	1453.128	0	24.2	4	7.5	4	-1E+10	1	-1E+10	1	-1E+10	1	-1E+10	1	-1E+10	1	-1E+10	1
4901784	157	C	10/22/2019	10:49	-132.792	43.613	0	1475.50	0	2.6070	0	36.7270	8	29.312	0	1458.546	0	24.7	4	7.7	4	-1E+10	1	-1E+10	1	-1E+10	1	-1E+10	1	-1E+10	1	-1E+10	1
4901784	157	C	10/22/2019	10:49	-132.792	43.613	0	1480.40	0	2.5950	0	36.7290	8	29.315	0	1463.372	0	25.0	4	7.8	4	-1E+10	1	-1E+10	1	-1E+10	1	-1E+10	1	-1E+10	1	-1E+10	1
4901784	157	C	10/22/2019	10:49	-132.792	43.613	0	1485.30	0	2.5870	0	36.7300	8	29.316	0	1468.199	0	25.3	4	7.9	4	-1E+10	1	-1E+10	1	-1E+10	1	-1E+10	1	-1E+10	1	-1E+10	1
4901784	157	C	10/22/2019	10:49	-132.792	43.613	0	1490.30	0	2.5720	0	36.7310	8	29.318	0	1473.124	0	25.7	4	8.0	4	-1E+10	1	-1E+10	1	-1E+10	1	-1E+10	1	-1E+10	1	-1E+10	1
4901784	157	C	10/22/2019	10:49	-132.792	43.613	0	1495.30	0	2.5630	0	36.7320	8	29.320	0	1478.049	0	26.0	4	8.1	4	-1E+10	1	-1E+10	1	-1E+10	1	-1E+10	1	-1E+10	1	-1E+10	1
4901784	157	C	10/22/2019	10:49	-132.792	43.613	0	1500.40	0	2.5500	0	36.7340	8	29.323	0	1483.072	0	26.3	4	8.2	4	-1E+10	1	-1E+10	1	-1E+10	1	-1E+10	1	-1E+10	1	-1E+10	1
4901784	157	C	10/22/2019	10:49	-132.792	43.613	0	1505.40	0	2.5390	0	36.7360	8	29.325	0	1487.997	0	26.6	4	8.3	4	-1E+10	1	-1E+10	1	-1E+10	1	-1E+10	1	-1E+10	1	-1E+10	1
4901784	157	C	10/22/2019	10:49	-132.792	43.613	0	1510.50	0	2.5310	0	36.7370	8	29.327	0	1493.020	0	26.8	4	8.3	4	-1E+10	1	-1E+10	1	-1E+10	1	-1E+10	1	-1E+10	1	-1E+10	1
4901784	157	C	10/22/2019	10:49	-132.792	43.613	0	1515.70	0	2.5260	0	36.7380	8	29.328	0	1498.141	0	27.0	4	8.4	4	-1E+10	1	-1E+10	1	-1E+10	1	-1E+10	1	-1E+10	1	-1E+10	1
4901784	157	C	10/22/2019	10:49	-132.792	43.613	0	1520.00	0	2.5230	0	36.7380	8	29.329	0	1502.376	0	27.1	4	8.4	4	-1E+10	1	-1E+10	1	-1E+10	1	-1E+10	1	-1E+10	1	-1E+10	1
4901784	157	C	10/22/2019	10:49	-132.792	43.613	0	1524.30	0	2.5210	0	36.7380	8	29.329	0	1506.611	0	27.3	4	8.5	4	-1E+10	1	-1E+10	1	-1E+10	1	-1E+10	1	-1E+10	1	-1E+10	1
4901784	157	C	10/22/2019	10:49	-132.792	43.613	0	1529.50	0	2.5140	0	36.7380	8	29.330	0	1511.732	0	27.6	4	8.6	4	-1E+10	1	-1E+10	1	-1E+10	1	-1E+10	1	-1E+10	1	-1E+10	1
4901784	157	C	10/22/2019	10:49	-132.792	43.613	0	1534.80	0	2.4980	0	36.7410	8	29.333	0	1516.952	0	28.0	4	8.7	4	-1E+10	1	-1E+10	1	-1E+10	1	-1E+10	1	-1E+10	1	-1E+10	1
4901784	157	C	10/22/2019	10:49	-132.792	43.613	0	1540.10	0	2.4900	0	36.7420	8	29.335	0	1522.171	0	28.3	4	8.8	4	-1E+10	1	-1E+10	1	-1E+10	1	-1E+10	1	-1E+10	1	-1E+10	1
4901784	157	C	10/22/2019	10:49	-132.792	43.613	0	1545.40	0	2.4800	0	36.7440	8	29.337	0	1527.390	0	28.6	4	8.9	4	-1E+10	1	-1E+10	1	-1E+10	1	-1E+10	1	-1E+10	1	-1E+10	1
4901784	157	C	10/22/2019	10:49	-132.792	43.613	0	1549.90	0	2.4750	0	36.7450	8	29.339	0	1531.821	0	28.8	4	8.9	4	-1E+10	1	-1E+10	1	-1E+10	1	-1E+10	1	-1E+10	1	-1E+10	1
4901784	157	C	10/22/2019	10:49	-132.792	43.613	0	1554.40	0	2.4660	0	36.7460	8	29.340	0	1536.253	0	29.1	4	9.0	4	-1E+10	1	-1E+10	1	-1E+10	1	-1E+10	1	-1E+10	1	-1E+10	1
4901784	157	C	10/22/2019	10:49	-132.792	43.613	0	1559.70	0	2.4570	0	36.7470	8	29.342	0	1541.471	0	29.4	4	9.1	4	-1E+10	1	-1E+10	1	-1E+10	1	-1E+10	1	-1E+10	1	-1E+10	1
4901784	157	C	10/22/2019	10:49	-132.792	43.613	0	1565.10	0	2.4530	0	36.7480	8	29.343	0	1546.788	0	29.7	4	9.2	4	-1E+10	1	-1E+10	1	-1E+10	1	-1E+10	1	-1E+10	1	-1E+10	1
4901784	157	C	10/22/2019	10:49	-132.792	43.613	0	1570.60	0	2.4430	0	36.7490	8	29.345	0	1552.204	0	30.1	4	9.3	4	-1E+10	1	-1E+10	1	-1E+10	1	-1E+10	1	-1E+10	1	-1E+10	1
4901784	157	C	10/22/2019	10:49	-132.792	43.613	0	1575.20	0	2.4370	0	36.7500	8	29.346	0	1556.733	0	30.4	4	9.4	4	-1E+10	1	-1E+10	1	-1E+10	1	-1E+10	1	-1E+10	1	-1E+10	1
4901784	157	C	10/22/2019	10:49	-132.792	43.613	0	1579.80	0	2.4290	0	36.7510	8	29.348	0	1561.262	0	30.7	4	9.5	4	-1E+10	1	-1E+10	1	-1E+10	1	-1E+10	1	-1E+10	1	-1E+10	1
4901784	157	C	10/22/2019	10:49	-132.792	43.613	0	1585.20	0	2.4200	0	36.7520	8	29.349	0	1566.579	0	31.0	4	9.6	4	-1E+10	1	-1E+10	1	-1E+10	1	-1E+10	1	-1E+10	1	-1E+10	1
4901784	157	C	10/22/2019	10:49	-132.792	43.613	0	1589.80	0	2.4150	0	36.7530	8	29.351	0	1571.108	0	31.2	4	9.7	4	-1E+10	1	-1E+10	1	-1E+10	1	-1E+10	1	-1E+10	1	-1E+10	1
4901784	157	C	10/22/2019	10:49	-132.792	43.613	0	1594.70	0	2.4040	0	36.7550	8	29.353	0	1575.932	0	31.5	4	9.8	4	-1E+10	1	-1E+10	1	-1E+10	1	-1E+10	1	-1E+10	1	-1E+10	1
4901784	157	C	10/22/2019	10:49	-132.792	43.613	0	1599.90	0	2.3990	0	36.7550	8	29.354	0	1581.051	0	31.8	4	9.8	4	-1E+10	1	-1E+10	1	-1E+10	1	-1E+10	1	-1E+10	1	-1E+10	1
4901784	157	C	10/22/2019	10:49	-132.792	43.613	0	1604.70	0	2.3910	0	36.7560	8	29.355	0	1585.777	0	32.1	4	9.9	4	-1E+10	1	-1E+10	1	-1E+10	1	-1E+10	1	-1E+10	1	-1E+10	1
4901784	157	C	10/22/2019	10:49	-132.792	43.613	0	1609.60	0	2.3810	0	36.7570	8	29.357	0	1590.601	0	32.5	4	10.1	4	-1E+10	1	-1E+10	1	-1E+10	1	-1E+10	1	-1E+10	1	-1E+10	1
4901784	157	C	10/22/2019	10:49	-132.792	43.613	0	1614.40	0	2.3750	0	36.7580	8	29.358	0	1595.326	0	32.9	4	10.2	4	-1E+10	1	-1E+10	1	-1E+10	1	-1E+10	1	-1E+10	1	-1E+10	1
4901784	157	C	10/22/2019	10:49	-132.792	43.613	0	1619.30	0	2.3690	0	36.7580	8	29.359	0	1600.150	0	33.1	4	10.3	4	-1E+10	1	-1E+10	1	-1E+10	1	-1E+10	1	-1E+10	1	-1E+10	1
4901784	157	C	10/22/2019	10:49	-132.792	43.613	0	1624.20	0	2.3600	0	36.7590	8	29.361	0	1604.973	0	33.6	4	10.4	4	-1E+10	1	-1E+10	1	-1E+10	1	-1E+10	1	-1E+10	1	-1E+10	1
4901784	157	C	10/22/2019	10:49	-132.792	43.613	0	1630.00	0	2.3440	0	36.7610	8	29.364	0	1610.682	0	34.0	4	10.5	4	-1E+10	1	-1E+10	1	-1E+10	1	-1E+10	1	-1E+10	1	-1E+10	1
4901784	157	C	10/22/2019	10:49	-132.792	43.613	0	1635.80	0	2.3350	0	36.7620	8	29.365	0	1616.392	0	34.4	4	10.6	4	-1E+10	1	-1E+10	1	-1E+10	1	-1E+10	1	-1E+10	1	-1E+10	1
4901784	157	C	10/22/2019	10:49	-132.792	43.613	0	1640.80	0	2.3310	0	36.7620	8	29.366	0	1621.313	0	34.7	4	10.7	4	-1E+10	1	-1E+10	1	-1E+10	1	-1E+10	1	-1E+10	1	-1E+10	1
4901784	157	C	10/22/2019	10:49	-132.792	43.613	0	1645.00	0	2.3260	0	36.7630	8	29.367	0	1625.447	0	35.0	4	10.8	4	-1E+10	1	-1E+10	1	-1E+10	1	-1E+10	1	-1E+10	1	-1E+10	1
4901784	157	C	10/22/2019	10:49	-132.792	43.613	0	1649.20	0	2.3170	0	36.7650	8	29.369	0	1629.581	0	35.4	4	10.9	4	-1E+10	1	-1E+10	1	-1E+10	1	-1E+10	1	-1E+10	1	-1E+10	1
4901784	157	C	10/22/2019	10:49	-132.792	43.613	0	1654.30	0	2.3130	0	36.7660	8	29.371	0	1634.601	0	35.7	4	11.0	4	-1E+10	1	-1E+10	1	-1E+10	1	-1E+10	1	-1E+10	1	-1E+10	1
4901784	157	C	10/22/2019	10:49	-132.792	43.613	0	1659.40	0	2.3030	0	36.7670	8	29.372	0	1639.620	0	36.1	4	11.1	4	-1E+10	1	-1E+10	1	-1E+10	1	-1E+10	1	-1E+10	1	-1E+10	1
4901784	157	C	10/22/2019	10:49	-132.792	43.613	0	1664.40	0	2.2970	0	36.7680	8	29.374	0	1644.541	0	36.3	4	11.2	4	-1E+10	1	-1E+10	1	-1E+10	1	-1E+10	1	-1E+10	1	-1E+10	1
4901784	157	C	10/22/2019	10:49	-132.792	43.613	0	1669.50	0	2.2910	0	36.7680	8	29.374	0	1649.561	0	36.6	4	11.3	4	-1E+10	1	-1E+10	1	-1E+10	1	-1E+10	1	-1E+10	1	-1E+10	1
4901784	157	C	10/22/2019	10:49	-132.792	43.613	0	1674.70	0	2.2880	0	36.7690	8	29.375	0	1654.678	0	36.8	4	11.4	4	-1E+10	1	-1E+10	1	-1E+10	1	-1E+10	1	-1E+10	1	-1E+10	1
4901784	157	C	10/22/2019	10:49	-132.792	43.613	0	1679.90	0	2.2810	0	36.7700	8	29.377	0	1659.796	0	37.2	4	11.5	4	-1E+10	1	-1E+10	1	-1E+10	1	-1E+10	1	-1E+10	1	-1E+10	1
4901784	157	C	10/22/2019	10:49	-132.792	43.613	0	1685.10	0	2.2730	0	36.7710	8	29.378	0	1664.913	0	37.4	4	11.6	4	-1E+10	1	-1E+10	1	-1E+10	1	-1E+10	1	-1E+10	1	-1E+10	1
4901784	157	C	10/22/2019	10:49	-132.792	43.613	0	1690.20	0	2.2670	0	36.7710	8	29.379	0	1669.932	0	37.7	4	11.6	4	-1E+10	1	-1E+10	1	-1E+10	1	-1E+10	1	-1E+10	1	-1E+10	1
4901784	157	C	10/22/2019	10:49	-132.792	43.613	0	1695.40	0	2.2560	0	36.7720	8	29.381	0	1675.049	0	38.0	4	11.7	4	-1E+10	1	-1E+10	1	-1E+10	1	-1E+10	1	-1E+10	1	-1E+10	1
4901784	157	C	10/22/2019	10:49	-132.792	43.613	0	1700.60	0	2.2500	0	36.7730	8	29.382	0	1680.166	0	38.3	4	11.8	4	-1E+10	1	-1E+10	1	-1E+10	1	-1E+10	1	-1E+10	1	-1E+10	1
4901784	157	C	10/22/2019	10:49	-132.792	43.613	0	1705.70	0	2.2440	0	36.7740	8	29.383	0	1685.184	0	38.5	4	11.9	4	-1E+10	1	-1E+10	1	-1E+10	1	-1E+10	1	-1E+10	1	-1E+10	1
4901784	157	C	10/22/2019	10:49	-132.792	43.613	0	1710.10	0	2.2420	0	36.7740	8	29.384	0	1689.514	0	38.8	4	12.0	4	-1E+10	1	-1E+10	1	-1E+10	1	-1E+10	1	-1E+10	1	-1E+10	1
4901784	157	C	10/22/2019	10:49	-132.792	43.613	0	1714.40	0	2.2350	0	36.7750	8	29.385	0	1693.745	0	39.1	4	12.1	4	-1E+10	1	-1E+10	1	-1E+10	1	-1E+10	1	-1E+10	1	-1E+10	1
4901784	157	C	10/22/2019	10:49	-132.792	43.613	0	1719.60	0	2.2290	0	36.7760	8	29.386	0	1698.862	0	39.5	4	12.2	4	-1E+10	1	-1E+10	1	-1E+10	1	-1E+10	1	-1E+10	1	-1E+10	1
4901784	157	C	10/22/2019	10:49	-132.792	43.613	0	1724.80	0	2.2200	0	36.7770	8	29.388	0	1703.978	0	39.9	4	12.3	4	-1E+10	1	-1E+10	1	-1E+10	1	-1E+10	1	-1E+10	1	-1E+10	1
4901784	157	C	10/22/2019	10:49	-132.792	43.613	0	1730.00	0	2.2110	0	36.7790	8	29.390	0	1709.094	0	40.2	4	12.4	4	-1E+10	1	-1E+10	1	-1E+10	1	-1E+10	1	-1E+10	1	-1E+10	1
4901784	157	C	10/22/2019	10:49	-132.792	43.613	0	1735.30	0	2.2090	0	36.7790	8	29.391	0	1714.309	0	40.5	4	12.5	4	-1E+10	1	-1E+10	1	-1E+10	1	-1E+10	1	-1E+10	1	-1E+10	1
4901784	157	C	10/22/2019	10:49	-132.792	43.613	0	1740.70	0	2.2030	0	36.7800	8	29.392	0	1719.622	0	41.0	4	12.6	4	-1E+10	1	-1E+10	1	-1E+10	1	-1E+10	1	-1E+10	1	-1E+10	1
4901784	157	C	10/22/2019	10:49	-132.792	43.613	0	1745.10	0	2.1980	0	36.7810	8	29.393	0	1723.951	0	41.3	4	12.7	4	-1E+10	1	-1E+10	1	-1E+10	1	-1E+10	1	-1E+10	1	-1E+10	1
4901784	157	C	10/22/2019	10:49	-132.792	43.613	0	1749.60	0	2.1880	0	36.7820	8	29.395	0	1728.378	0	41.6	4	12.8	4	-1E+10	1	-1E+10	1	-1E+10	1	-1E+10	1	-1E+10	1	-1E+10	1
4901784	157	C	10/22/2019	10:49	-132.792	43.613	0	1754.90	0	2.1800	0	36.7820	8	29.396	0	1733.592	0	42.0	4	12.9	4	-1E+10	1	-1E+10	1	-1E+10	1	-1E+10	1	-1E+10	1	-1E+10	1
4901784	157	C	10/22/2019	10:49	-132.792	43.613	0	1760.30	0	2.1740	0	36.7830	8	29.397	0	1738.904	0	42.3	4	13.0	4	-1E+10	1	-1E+10	1	-1E+10	1	-1E+10	1	-1E+10	1	-1E+10	1
4901784	157	C	10/22/2019	10:49	-132.792	43.613	0	1764.80	0	2.1690	0	36.7840	8	29.398	0	1743.331	0	42.7	4	13.1	4	-1E+10	1	-1E+10	1	-1E+10	1	-1E+10	1	-1E+10	1	-1E+10	1
4901784	157	C	10/22/2019	10:49	-132.792	43.613	0	1769.30	0	2.1610	0	36.7850	8	29.400	0	1747.758	0	43.1	4	13.3	4	-1E+10	1	-1E+10	1	-1E+10	1	-1E+10	1	-1E+10	1	-1E+10	1
4901784	157	C	10/22/2019	10:49	-132.792	43.613	0	1774.90	0	2.1530	0	36.7860	8	29.401	0	1753.266	0	43.6	4	13.4	4	-1E+10	1	-1E+10	1	-1E+10	1	-1E+10	1	-1E+10	1	-1E+10	1
4901784	157	C	10/22/2019	10:49	-132.792	43.613	0	1780.00	0	2.1400	0	36.7880	8	29.404	0	1758.283	0	44.1	4	13.6	4	-1E+10	1	-1E+10	1	-1E+10	1	-1E+10	1	-1E+10	1	-1E+10	1
4901784	157	C	10/22/2019	10:49	-132.792	43.613	0	1784.30	0	2.1350	0	36.7890	8	29.405	0	1762.513	0	44.4	4	13.7	4	-1E+10	1	-1E+10	1	-1E+10	1	-1E+10	1	-1E+10	1	-1E+10	1
4901784	157	C	10/22/2019	10:49	-132.792	43.613	0	1789.90	0	2.1280	0	36.7900	8	29.407	0	1768.021	0	44.9	4	13.8	4	-1E+10	1	-1E+10	1	-1E+10	1	-1E+10	1	-1E+10	1	-1E+10	1
4901784	157	C	10/22/2019	10:49	-132.792	43.613	0	1795.70	0	2.1200	0	36.7910	8	29.408	0	1773.726	0	45.3	4	13.9	4	-1E+10	1	-1E+10	1	-1E+10	1	-1E+10	1	-1E+10	1	-1E+10	1
4901784	157	C	10/22/2019	10:49	-132.792	43.613	0	1800.50	0	2.1140	0	36.7920	8	29.410	0	1778.447	0	45.7	4	14.1	4	-1E+10	1	-1E+10	1	-1E+10	1	-1E+10	1	-1E+10	1	-1E+10	1
4901784	157	C	10/22/2019	10:49	-132.792	43.613	0	1805.40	0	2.1060	0	36.7930	8	29.411	0	1783.267	0	46.1	4	14.2	4	-1E+10	1	-1E+10	1	-1E+10	1	-1E+10	1	-1E+10	1	-1E+10	1
4901784	157	C	10/22/2019	10:49	-132.792	43.613	0	1810.40	0	2.1000	0	36.7940	8	29.412	0	1788.184	0	46.5	4	14.3	4	-1E+10	1	-1E+10	1	-1E+10	1	-1E+10	1	-1E+10	1	-1E+10	1
4901784	157	C	10/22/2019	10:49	-132.792	43.613	0	1815.40	0	2.0950	0	36.7950	8	29.414	0	1793.102	0	46.8	4	14.4	4	-1E+10	1	-1E+10	1	-1E+10	1	-1E+10	1	-1E+10	1	-1E+10	1
4901784	157	C	10/22/2019	10:49	-132.792	43.613	0	1820.40	0	2.0890	0	36.7960	8	29.415	0	1798.019	0	47.2	4	14.5	4	-1E+10	1	-1E+10	1	-1E+10	1	-1E+10	1	-1E+10	1	-1E+10	1
4901784	157	C	10/22/2019	10:49	-132.792	43.613	0	1825.40	0	2.0810	0	36.7970	8	29.416	0	1802.937	0	47.6	4	14.6	4	-1E+10	1	-1E+10	1	-1E+10	1	-1E+10	1	-1E+10	1	-1E+10	1
4901784	157	C	10/22/2019	10:49	-132.792	43.613	0	1830.50	0	2.0770	0	36.7980	8	29.418	0	1807.952	0	47.9	4	14.7	4	-1E+10	1	-1E+10	1	-1E+10	1	-1E+10	1	-1E+10	1	-1E+10	1
4901784	157	C	10/22/2019	10:49	-132.792	43.613	0	1835.60	0	2.0700	0	36.7990	8	29.419	0	1812.968	0	48.1	4	14.8	4	-1E+10	1	-1E+10	1	-1E+10	1	-1E+10	1	-1E+10	1	-1E+10	1
4901784	157	C	10/22/2019	10:49	-132.792	43.613	0	1840.60	0	2.0690	0	36.7990	8	29.419	0	1817.885	0	48.3	4	14.8	4	-1E+10	1	-1E+10	1	-1E+10	1	-1E+10	1	-1E+10	1	-1E+10	1
4901784	157	C	10/22/2019	10:49	-132.792	43.613	0	1845.60	0	2.0680	0	36.7990	8	29.419	0	1822.802	0	48.5	4	14.9	4	-1E+10	1	-1E+10	1	-1E+10	1	-1E+10	1	-1E+10	1	-1E+10	1
4901784	157	C	10/22/2019	10:49	-132.792	43.613	0	1850.70	0	2.0620	0	36.8000	8	29.421	0	1827.817	0	48.8	4	15.0	4	-1E+10	1	-1E+10	1	-1E+10	1	-1E+10	1	-1E+10	1	-1E+10	1
4901784	157	C	10/22/2019	10:49	-132.792	43.613	0	1855.70	0	2.0590	0	36.8010	8	29.422	0	1832.733	0	49.1	4	15.1	4	-1E+10	1	-1E+10	1	-1E+10	1	-1E+10	1	-1E+10	1	-1E+10	1
4901784	157	C	10/22/2019	10:49	-132.792	43.613	0	1860.80	0	2.0550	0	36.8020	8	29.423	0	1837.748	0	49.4	4	15.2	4	-1E+10	1	-1E+10	1	-1E+10	1	-1E+10	1	-1E+10	1	-1E+10	1
4901784	157	C	10/22/2019	10:49	-132.792	43.613	0	1865.10	0	2.0510	0	36.8020	8	29.423	0	1841.976	0	49.7	4	15.3	4	-1E+10	1	-1E+10	1	-1E+10	1	-1E+10	1	-1E+10	1	-1E+10	1
4901784	157	C	10/22/2019	10:49	-132.792	43.613	0	1869.30	0	2.0470	0	36.8030	8	29.424	0	1846.106	0	50.1	4	15.4	4	-1E+10	1	-1E+10	1	-1E+10	1	-1E+10	1	-1E+10	1	-1E+10	1
4901784	157	C	10/22/2019	10:49	-132.792	43.613	0	1874.60	0	2.0400	0	36.8040	8	29.426	0	1851.317	0	50.5	4	15.5	4	-1E+10	1	-1E+10	1	-1E+10	1	-1E+10	1	-1E+10	1	-1E+10	1
4901784	157	C	10/22/2019	10:49	-132.792	43.613	0	1879.70	0	2.0350	0	36.8050	8	29.427	0	1856.331	0	50.9	4	15.6	4	-1E+10	1	-1E+10	1	-1E+10	1	-1E+10	1	-1E+10	1	-1E+10	1
4901784	157	C	10/22/2019	10:49	-132.792	43.613	0	1884.90	0	2.0270	0	36.8060	8	29.429	0	1861.444	0	51.2	4	15.7	4	-1E+10	1	-1E+10	1	-1E+10	1	-1E+10	1	-1E+10	1	-1E+10	1
4901784	157	C	10/22/2019	10:49	-132.792	43.613	0	1890.20	0	2.0240	0	36.8070	8	29.430	0	1866.655	0	51.5	4	15.8	4	-1E+10	1	-1E+10	1	-1E+10	1	-1E+10	1	-1E+10	1	-1E+10	1
4901784	157	C	10/22/2019	10:49	-132.792	43.613	0	1895.50	0	2.0170	0	36.8080	8	29.431	0	1871.866	0	51.9	4	15.9	4	-1E+10	1	-1E+10	1	-1E+10	1	-1E+10	1	-1E+10	1	-1E+10	1
4901784	157	C	10/22/2019	10:49	-132.792	43.613	0	1899.90	0	2.0130	0	36.8090	8	29.432	0	1876.191	0	52.1	4	16.0	4	-1E+10	1	-1E+10	1	-1E+10	1	-1E+10	1	-1E+10	1	-1E+10	1
4901784	157	C	10/22/2019	10:49	-132.792	43.613	0	1904.30	0	2.0100	0	36.8090	8	29.433	0	1880.517	0	52.3	4	16.0	4	-1E+10	1	-1E+10	1	-1E+10	1	-1E+10	1	-1E+10	1	-1E+10	1
4901784	157	C	10/22/2019	10:49	-132.792	43.613	0	1909.60	0	2.0070	0	36.8090	8	29.433	0	1885.727	0	52.5	4	16.1	4	-1E+10	1	-1E+10	1	-1E+10	1	-1E+10	1	-1E+10	1	-1E+10	1
4901784	157	C	10/22/2019	10:49	-132.792	43.613	0	1914.90	0	2.0030	0	36.8100	8	29.434	0	1890.938	0	52.8	4	16.2	4	-1E+10	1	-1E+10	1	-1E+10	1	-1E+10	1	-1E+10	1	-1E+10	1
4901784	157	C	10/22/2019	10:49	-132.792	43.613	0	1920.30	0	1.9990	0	36.8110	8	29.435	0	1896.246	0	53.2	4	16.3	4	-1E+10	1	-1E+10	1	-1E+10	1	-1E+10	1	-1E+10	1	-1E+10	1
4901784	157	C	10/22/2019	10:49	-132.792	43.613	0	1924.80	0	1.9950	0	36.8110	8	29.436	0	1900.670	0	53.5	4	16.4	4	-1E+10	1	-1E+10	1	-1E+10	1	-1E+10	1	-1E+10	1	-1E+10	1
4901784	157	C	10/22/2019	10:49	-132.792	43.613	0	1929.30	0	1.9910	0	36.8120	8	29.437	0	1905.093	0	53.8	4	16.5	4	-1E+10	1	-1E+10	1	-1E+10	1	-1E+10	1	-1E+10	1	-1E+10	1
4901784	157	C	10/22/2019	10:49	-132.792	43.613	0	1934.70	0	1.9870	0	36.8130	8	29.438	0	1910.401	0	54.1	4	16.6	4	-1E+10	1	-1E+10	1	-1E+10	1	-1E+10	1	-1E+10	1	-1E+10	1
4901784	157	C	10/22/2019	10:49	-132.792	43.613	0	1940.10	0	1.9850	0	36.8150	8	29.440	0	1915.709	0	54.6	4	16.7	4	-1E+10	1	-1E+10	1	-1E+10	1	-1E+10	1	-1E+10	1	-1E+10	1
4901784	157	C	10/22/2019	10:49	-132.792	43.613	0	1945.20	0	1.9800	0	36.8150	8	29.440	0	1920.722	0	54.8	4	16.8	4	-1E+10	1	-1E+10	1	-1E+10	1	-1E+10	1	-1E+10	1	-1E+10	1
4901784	157	C	10/22/2019	10:49	-132.792	43.613	0	1949.40	0	1.9750	0	36.8150	8	29.441	0	1924.850	0	55.0	4	16.9	4	-1E+10	1	-1E+10	1	-1E+10	1	-1E+10	1	-1E+10	1	-1E+10	1
4901784	157	C	10/22/2019	10:49	-132.792	43.613	0	1955.00	0	1.9710	0	36.8160	8	29.442	0	1930.354	0	55.3	4	17.0	4	-1E+10	1	-1E+10	1	-1E+10	1	-1E+10	1	-1E+10	1	-1E+10	1
4901784	157	C	10/22/2019	10:49	-132.792	43.613	0	1960.70	0	1.9680	0	36.8170	8	29.443	0	1935.956	0	55.6	4	17.0	4	-1E+10	1	-1E+10	1	-1E+10	1	-1E+10	1	-1E+10	1	-1E+10	1
4901784	157	C	10/22/2019	10:49	-132.792	43.613	0	1965.60	0	1.9650	0	36.8180	8	29.444	0	1940.772	0	55.8	4	17.1	4	-1E+10	1	-1E+10	1	-1E+10	1	-1E+10	1	-1E+10	1	-1E+10	1
4901784	157	C	10/22/2019	10:49	-132.792	43.613	0	1970.60	0	1.9620	0	36.8180	8	29.444	0	1945.686	0	56.0	4	17.1	4	-1E+10	1	-1E+10	1	-1E+10	1	-1E+10	1	-1E+10	1	-1E+10	1
4901784	157	C	10/22/2019	10:49	-132.792	43.613	0	1975.50	0	1.9610	0	36.8180	8	29.444	0	1950.502	0	56.2	4	17.2	4	-1E+10	1	-1E+10	1	-1E+10	1	-1E+10	1	-1E+10	1	-1E+10	1
4901784	157	C	10/22/2019	10:49	-132.792	43.613	0	1980.50	0	1.9590	0	36.8190	8	29.445	0	1955.416	0	56.4	4	17.3	4	-1E+10	1	-1E+10	1	-1E+10	1	-1E+10	1	-1E+10	1	-1E+10	1
4901784	157	C	10/22/2019	10:49	-132.792	43.613	0	1985.40	0	1.9560	0	36.8190	8	29.446	0	1960.231	0	56.6	4	17.3	4	-1E+10	1	-1E+10	1	-1E+10	1	-1E+10	1	-1E+10	1	-1E+10	1
4901784	157	C	10/22/2019	10:49	-132.792	43.613	0	1990.40	0	1.9520	0	36.8200	8	29.447	0	1965.145	0	56.9	4	17.4	4	-1E+10	1	-1E+10	1	-1E+10	1	-1E+10	1	-1E+10	1	-1E+10	1
4901784	157	C	10/22/2019	10:49	-132.792	43.613	0	1995.40	0	1.9470	0	36.8200	8	29.447	0	1970.058	0	57.1	4	17.5	4	-1E+10	1	-1E+10	1	-1E+10	1	-1E+10	1	-1E+10	1	-1E+10	1
4901784	157	C	10/22/2019	10:49	-132.792	43.613	0	2000.40	0	1.9450	0	36.8210	8	29.448	0	1974.971	0	57.3	4	17.6	4	-1E+10	1	-1E+10	1	-1E+10	1	-1E+10	1	-1E+10	1	-1E+10	1
4901784	157	C	10/22/2019	10:49	-132.792	43.613	0	2005.40	0	1.9430	0	36.8220	8	29.449	0	1979.885	0	57.6	4	17.6	4	-1E+10	1	-1E+10	1	-1E+10	1	-1E+10	1	-1E+10	1	-1E+10	1
4901784	157	C	10/22/2019	10:49	-132.792	43.613	0	2010.50	0	1.9410	0	36.8220	8	29.449	0	1984.896	0	57.9	4	17.7	4	-1E+10	1	-1E+10	1	-1E+10	1	-1E+10	1	-1E+10	1	-1E+10	1
4901784	157	C	10/22/2019	10:49	-132.792	43.613	0	2015.10	0	1.9360	0	36.8230	8	29.451	0	1989.416	0	58.1	4	17.8	4	-1E+10	1	-1E+10	1	-1E+10	1	-1E+10	1	-1E+10	1	-1E+10	1
4901784	157	C	10/22/2019	10:49	-132.792	43.613	0	2019.70	0	1.9330	0	36.8230	8	29.451	0	1993.936	0	58.3	4	17.9	4	-1E+10	1	-1E+10	1	-1E+10	1	-1E+10	1	-1E+10	1	-1E+10	1
4901784	157	C	10/22/2019	10:49	-132.792	43.613	0																										
4901784	158	C	11/01/2019	10:42	-132.787	43.662	0	2.60	0	16.2130	0	34.6770	8	25.451	0	2.579	0	234.5	4	96.7	4	-1E+10	1	-1E+10	1	-1E+10	1	-1E+10	1	-1E+10	1	-1E+10	1
4901784	158	C	11/01/2019	10:42	-132.787	43.662	0	4.20	0	16.2150	0	34.6770	8	25.451	0	4.166	0	234.4	4	96.6	4	-1E+10	1	-1E+10	1	-1E+10	1	-1E+10	1	-1E+10	1	-1E+10	1
4901784	158	C	11/01/2019	10:42	-132.787	43.662	0	5.90	0	16.2160	0	34.6770	8	25.451	0	5.853	0	234.4	4	96.6	4	-1E+10	1	-1E+10	1	-1E+10	1	-1E+10	1	-1E+10	1	-1E+10	1
4901784	158	C	11/01/2019	10:42	-132.787	43.662	0	7.70	0	16.2190	0	34.6770	8	25.450	0	7.638	0	234.2	4	96.6	4	-1E+10	1	-1E+10	1	-1E+10	1	-1E+10	1	-1E+10	1	-1E+10	1
4901784	158	C	11/01/2019	10:42	-132.787	43.662	0	9.80	0	16.2190	0	34.6780	8	25.451	0	9.721	0	234.0	4	96.5	4	-1E+10	1	-1E+10	1	-1E+10	1	-1E+10	1	-1E+10	1	-1E+10	1
4901784	158	C	11/01/2019	10:42	-132.787	43.662	0	11.80	0	16.2180	0	34.6780	8	25.451	0	11.705	0	233.9	4	96.5	4	-1E+10	1	-1E+10	1	-1E+10	1	-1E+10	1	-1E+10	1	-1E+10	1
4901784	158	C	11/01/2019	10:42	-132.787	43.662	0	13.70	0	16.2170	0	34.6780	8	25.452	0	13.590	0	234.0	4	96.5	4	-1E+10	1	-1E+10	1	-1E+10	1	-1E+10	1	-1E+10	1	-1E+10	1
4901784	158	C	11/01/2019	10:42	-132.787	43.662	0	15.70	0	16.2180	0	34.6780	8	25.451	0	15.574	0	233.5	4	96.3	4	-1E+10	1	-1E+10	1	-1E+10	1	-1E+10	1	-1E+10	1	-1E+10	1
4901784	158	C	11/01/2019	10:42	-132.787	43.662	0	17.60	0	16.2160	0	34.6790	8	25.453	0	17.459	0	233.6	4	96.3	4	-1E+10	1	-1E+10	1	-1E+10	1	-1E+10	1	-1E+10	1	-1E+10	1
4901784	158	C	11/01/2019	10:42	-132.787	43.662	0	19.60	0	16.2220	0	34.6780	8	25.451	0	19.442	0	233.5	4	96.3	4	-1E+10	1	-1E+10	1	-1E+10	1	-1E+10	1	-1E+10	1	-1E+10	1
4901784	158	C	11/01/2019	10:42	-132.787	43.662	0	21.50	0	16.2230	0	34.6780	8	25.450	0	21.327	0	233.3	4	96.2	4	-1E+10	1	-1E+10	1	-1E+10	1	-1E+10	1	-1E+10	1	-1E+10	1
4901784	158	C	11/01/2019	10:42	-132.787	43.662	0	23.60	0	16.2230	0	34.6790	8	25.451	0	23.410	0	233.2	4	96.2	4	-1E+10	1	-1E+10	1	-1E+10	1	-1E+10	1	-1E+10	1	-1E+10	1
4901784	158	C	11/01/2019	10:42	-132.787	43.662	0	25.60	0	16.2230	0	34.6790	8	25.451	0	25.394	0	233.2	4	96.1	4	-1E+10	1	-1E+10	1	-1E+10	1	-1E+10	1	-1E+10	1	-1E+10	1
4901784	158	C	11/01/2019	10:42	-132.787	43.662	0	27.60	0	16.2230	0	34.6780	8	25.451	0	27.378	0	233.1	4	96.1	4	-1E+10	1	-1E+10	1	-1E+10	1	-1E+10	1	-1E+10	1	-1E+10	1
4901784	158	C	11/01/2019	10:42	-132.787	43.662	0	29.60	0	16.2230	0	34.6780	8	25.451	0	29.361	0	232.9	4	96.1	4	-1E+10	1	-1E+10	1	-1E+10	1	-1E+10	1	-1E+10	1	-1E+10	1
4901784	158	C	11/01/2019	10:42	-132.787	43.662	0	31.60	0	16.2240	0	34.6770	8	25.450	0	31.345	0	232.8	4	96.0	4	-1E+10	1	-1E+10	1	-1E+10	1	-1E+10	1	-1E+10	1	-1E+10	1
4901784	158	C	11/01/2019	10:42	-132.787	43.662	0	33.60	0	16.2250	0	34.6770	8	25.450	0	33.329	0	232.8	4	96.0	4	-1E+10	1	-1E+10	1	-1E+10	1	-1E+10	1	-1E+10	1	-1E+10	1
4901784	158	C	11/01/2019	10:42	-132.787	43.662	0	35.60	0	16.2230	0	34.6750	8	25.449	0	35.312	0	232.9	4	96.0	4	-1E+10	1	-1E+10	1	-1E+10	1	-1E+10	1	-1E+10	1	-1E+10	1
4901784	158	C	11/01/2019	10:42	-132.787	43.662	0	37.50	0	16.2220	0	34.6740	8	25.448	0	37.197	0	233.2	4	96.2	4	-1E+10	1	-1E+10	1	-1E+10	1	-1E+10	1	-1E+10	1	-1E+10	1
4901784	158	C	11/01/2019	10:42	-132.787	43.662	0	39.50	0	16.2250	0	34.6700	8	25.444	0	39.180	0	233.7	4	96.3	4	-1E+10	1	-1E+10	1	-1E+10	1	-1E+10	1	-1E+10	1	-1E+10	1
4901784	158	C	11/01/2019	10:42	-132.787	43.662	0	41.90	0	16.2210	0	34.6640	8	25.441	0	41.561	0	234.3	4	96.6	4	-1E+10	1	-1E+10	1	-1E+10	1	-1E+10	1	-1E+10	1	-1E+10	1
4901784	158	C	11/01/2019	10:42	-132.787	43.662	0	43.70	0	16.2190	0	34.6550	8	25.434	0	43.346	0	235.8	4	97.2	4	-1E+10	1	-1E+10	1	-1E+10	1	-1E+10	1	-1E+10	1	-1E+10	1
4901784	158	C	11/01/2019	10:42	-132.787	43.662	0	45.10	0	16.2130	0	34.6410	8	25.425	0	44.735	0	237.5	4	97.9	4	-1E+10	1	-1E+10	1	-1E+10	1	-1E+10	1	-1E+10	1	-1E+10	1
4901784	158	C	11/01/2019	10:42	-132.787	43.662	0	46.50	0	16.2110	0	34.6190	8	25.409	0	46.123	0	240.0	4	98.9	4	-1E+10	1	-1E+10	1	-1E+10	1	-1E+10	1	-1E+10	1	-1E+10	1
4901784	158	C	11/01/2019	10:42	-132.787	43.662	0	47.90	0	16.1510	0	34.5690	8	25.384	0	47.512	0	243.8	4	100.3	4	-1E+10	1	-1E+10	1	-1E+10	1	-1E+10	1	-1E+10	1	-1E+10	1
4901784	158	C	11/01/2019	10:42	-132.787	43.662	0	49.40	0	14.6790	0	34.6070	8	25.741	0	48.999	0	253.7	4	101.4	4	-1E+10	1	-1E+10	1	-1E+10	1	-1E+10	1	-1E+10	1	-1E+10	1
4901784	158	C	11/01/2019	10:42	-132.787	43.662	0	51.10	0	14.2440	0	34.5900	8	25.821	0	50.685	0	256.5	4	101.7	4	-1E+10	1	-1E+10	1	-1E+10	1	-1E+10	1	-1E+10	1	-1E+10	1
4901784	158	C	11/01/2019	10:42	-132.787	43.662	0	51.50	0	14.1680	0	34.5860	8	25.834	0	51.082	0	257.1	4	101.8	4	-1E+10	1	-1E+10	1	-1E+10	1	-1E+10	1	-1E+10	1	-1E+10	1
4901784	158	C	11/01/2019	10:42	-132.787	43.662	0	52.90	0	13.4360	0	34.6140	8	26.008	0	52.470	0	260.3	4	101.6	4	-1E+10	1	-1E+10	1	-1E+10	1	-1E+10	1	-1E+10	1	-1E+10	1
4901784	158	C	11/01/2019	10:42	-132.787	43.662	0	54.30	0	13.1550	0	34.6130	8	26.064	0	53.859	0	260.9	4	101.2	4	-1E+10	1	-1E+10	1	-1E+10	1	-1E+10	1	-1E+10	1	-1E+10	1
4901784	158	C	11/01/2019	10:42	-132.787	43.662	0	55.80	0	12.6810	0	34.6040	8	26.152	0	55.346	0	262.3	4	100.8	4	-1E+10	1	-1E+10	1	-1E+10	1	-1E+10	1	-1E+10	1	-1E+10	1
4901784	158	C	11/01/2019	10:42	-132.787	43.662	0	57.30	0	12.5570	0	34.6060	8	26.177	0	56.834	0	260.1	4	99.7	4	-1E+10	1	-1E+10	1	-1E+10	1	-1E+10	1	-1E+10	1	-1E+10	1
4901784	158	C	11/01/2019	10:42	-132.787	43.662	0	58.90	0	12.2980	0	34.6350	8	26.250	0	58.421	0	258.7	4	98.6	4	-1E+10	1	-1E+10	1	-1E+10	1	-1E+10	1	-1E+10	1	-1E+10	1
4901784	158	C	11/01/2019	10:42	-132.787	43.662	0	60.60	0	12.0580	0	34.6490	8	26.307	0	60.107	0	258.0	4	97.9	4	-1E+10	1	-1E+10	1	-1E+10	1	-1E+10	1	-1E+10	1	-1E+10	1
4901784	158	C	11/01/2019	10:42	-132.787	43.662	0	62.10	0	11.9430	0	34.6570	8	26.336	0	61.594	0	256.7	4	97.1	4	-1E+10	1	-1E+10	1	-1E+10	1	-1E+10	1	-1E+10	1	-1E+10	1
4901784	158	C	11/01/2019	10:42	-132.787	43.662	0	63.80	0	11.8240	0	34.6490	8	26.352	0	63.280	0	256.2	4	96.7	4	-1E+10	1	-1E+10	1	-1E+10	1	-1E+10	1	-1E+10	1	-1E+10	1
4901784	158	C	11/01/2019	10:42	-132.787	43.662	0	65.40	0	11.7330	0	34.6430	8	26.364	0	64.867	0	255.3	4	96.2	4	-1E+10	1	-1E+10	1	-1E+10	1	-1E+10	1	-1E+10	1	-1E+10	1
4901784	158	C	11/01/2019	10:42	-132.787	43.662	0	67.00	0	11.6000	0	34.6410	8	26.388	0	66.454	0	254.6	4	95.7	4	-1E+10	1	-1E+10	1	-1E+10	1	-1E+10	1	-1E+10	1	-1E+10	1
4901784	158	C	11/01/2019	10:42	-132.787	43.662	0	68.60	0	11.5080	0	34.6360	8	26.401	0	68.040	0	254.1	4	95.3	4	-1E+10	1	-1E+10	1	-1E+10	1	-1E+10	1	-1E+10	1	-1E+10	1
4901784	158	C	11/01/2019	10:42	-132.787	43.662	0	70.20	0	11.3920	0	34.6270	8	26.416	0	69.627	0	253.9	4	95.0	4	-1E+10	1	-1E+10	1	-1E+10	1	-1E+10	1	-1E+10	1	-1E+10	1
4901784	158	C	11/01/2019	10:42	-132.787	43.662	0	71.80	0	11.3290	0	34.6280	8	26.428	0	71.214	0	252.8	4	94.4	4	-1E+10	1	-1E+10	1	-1E+10	1	-1E+10	1	-1E+10	1	-1E+10	1
4901784	158	C	11/01/2019	10:42	-132.787	43.662	0	73.40	0	11.1900	0	34.6250	8	26.451	0	72.800	0	252.7	4	94.1	4	-1E+10	1	-1E+10	1	-1E+10	1	-1E+10	1	-1E+10	1	-1E+10	1
4901784	158	C	11/01/2019	10:42	-132.787	43.662	0	75.00	0	11.1590	0	34.6140	8	26.448	0	74.387	0	252.8	4	94.1	4	-1E+10	1	-1E+10	1	-1E+10	1	-1E+10	1	-1E+10	1	-1E+10	1
4901784	158	C	11/01/2019	10:42	-132.787	43.662	0	76.60	0	10.9790	0	34.6010	8	26.471	0	75.973	0	253.0	4	93.8	4	-1E+10	1	-1E+10	1	-1E+10	1	-1E+10	1	-1E+10	1	-1E+10	1
4901784	158	C	11/01/2019	10:42	-132.787	43.662	0	78.30	0	10.7160	0	34.5920	8	26.511	0	77.659	0	252.8	4	93.2	4	-1E+10	1	-1E+10	1	-1E+10	1	-1E+10	1	-1E+10	1	-1E+10	1
4901784	158	C	11/01/2019	10:42	-132.787	43.662	0	80.00	0	10.6150	0	34.5870	8	26.525	0	79.345	0	252.4	4	92.9	4	-1E+10	1	-1E+10	1	-1E+10	1	-1E+10	1	-1E+10	1	-1E+10	1
4901784	158	C	11/01/2019	10:42	-132.787	43.662	0	81.80	0	10.4950	0	34.5780	8	26.539	0	81.130	0	252.2	4	92.5	4	-1E+10	1	-1E+10	1	-1E+10	1	-1E+10	1	-1E+10	1	-1E+10	1
4901784	158	C	11/01/2019	10:42	-132.787	43.662	0	83.50	0	10.4430	0	34.5920	8	26.559	0	82.816	0	251.4	4	92.1	4	-1E+10	1	-1E+10	1	-1E+10	1	-1E+10	1	-1E+10	1	-1E+10	1
4901784	158	C	11/01/2019	10:42	-132.787	43.662	0	85.20	0	10.3680	0	34.5860	8	26.567	0	84.501	0	251.1	4	91.9	4	-1E+10	1	-1E+10	1	-1E+10	1	-1E+10	1	-1E+10	1	-1E+10	1
4901784	158	C	11/01/2019	10:42	-132.787	43.662	0	86.90	0	10.1600	0	34.5680	8	26.589	0	86.187	0	251.6	4	91.6	4	-1E+10	1	-1E+10	1	-1E+10	1	-1E+10	1	-1E+10	1	-1E+10	1
4901784	158	C	11/01/2019	10:42	-132.787	43.662	0	88.50	0	10.0330	0	34.5550	8	26.601	0	87.774	0	251.7	4	91.4	4	-1E+10	1	-1E+10	1	-1E+10	1	-1E+10	1	-1E+10	1	-1E+10	1
4901784	158	C	11/01/2019	10:42	-132.787	43.662	0	90.20	0	10.0010	0	34.5520	8	26.604	0	89.459	0	251.2	4	91.2	4	-1E+10	1	-1E+10	1	-1E+10	1	-1E+10	1	-1E+10	1	-1E+10	1
4901784	158	C	11/01/2019	10:42	-132.787	43.662	0	91.80	0	9.9980	0	34.5540	8	26.606	0	91.046	0	250.4	4	90.9	4	-1E+10	1	-1E+10	1	-1E+10	1	-1E+10	1	-1E+10	1	-1E+10	1
4901784	158	C	11/01/2019	10:42	-132.787	43.662	0	93.50	0	9.8270	0	34.5440	8	26.627	0	92.731	0	250.4	4	90.6	4	-1E+10	1	-1E+10	1	-1E+10	1	-1E+10	1	-1E+10	1	-1E+10	1
4901784	158	C	11/01/2019	10:42	-132.787	43.662	0	95.10	0	9.7680	0	34.5440	8	26.637	0	94.318	0	249.6	4	90.1	4	-1E+10	1	-1E+10	1	-1E+10	1	-1E+10	1	-1E+10	1	-1E+10	1
4901784	158	C	11/01/2019	10:42	-132.787	43.662	0	96.80	0	9.7290	0	34.5460	8	26.645	0	96.004	0	248.7	4	89.8	4	-1E+10	1	-1E+10	1	-1E+10	1	-1E+10	1	-1E+10	1	-1E+10	1
4901784	158	C	11/01/2019	10:42	-132.787	43.662	0	98.40	0	9.6900	0	34.5470	8	26.653	0	97.590	0	247.4	4	89.2	4	-1E+10	1	-1E+10	1	-1E+10	1	-1E+10	1	-1E+10	1	-1E+10	1
4901784	158	C	11/01/2019	10:42	-132.787	43.662	0	100.20	0	9.6910	0	34.5490	8	26.654	0	99.375	0	246.1	4	88.8	4	-1E+10	1	-1E+10	1	-1E+10	1	-1E+10	1	-1E+10	1	-1E+10	1
4901784	158	C	11/01/2019	10:42	-132.787	43.662	0	102.70	0	9.6070	0	34.5800	8	26.692	0	101.854	0	244.6	4	88.0	4	-1E+10	1	-1E+10	1	-1E+10	1	-1E+10	1	-1E+10	1	-1E+10	1
4901784	158	C	11/01/2019	10:42	-132.787	43.662	0	105.20	0	9.4100	0	34.5760	8	26.722	0	104.332	0	244.4	4	87.6	4	-1E+10	1	-1E+10	1	-1E+10	1	-1E+10	1	-1E+10	1	-1E+10	1
4901784	158	C	11/01/2019	10:42	-132.787	43.662	0	107.80	0	9.3690	0	34.5790	8	26.731	0	106.910	0	243.2	4	87.1	4	-1E+10	1	-1E+10	1	-1E+10	1	-1E+10	1	-1E+10	1	-1E+10	1
4901784	158	C	11/01/2019	10:42	-132.787	43.662	0	110.30	0	9.3320	0	34.5810	8	26.739	0	109.389	0	241.3	4	86.3	4	-1E+10	1	-1E+10	1	-1E+10	1	-1E+10	1	-1E+10	1	-1E+10	1
4901784	158	C	11/01/2019	10:42	-132.787	43.662	0	112.70	0	9.2170	0	34.6280	8	26.794	0	111.768	0	239.7	4	85.6	4	-1E+10	1	-1E+10	1	-1E+10	1	-1E+10	1	-1E+10	1	-1E+10	1
4901784	158	C	11/01/2019	10:42	-132.787	43.662	0	115.20	0	9.1880	0	34.6400	8	26.808	0	114.247	0	237.8	4	84.9	4	-1E+10	1	-1E+10	1	-1E+10	1	-1E+10	1	-1E+10	1	-1E+10	1
4901784	158	C	11/01/2019	10:42	-132.787	43.662	0	117.70	0	9.0970	0	34.6630	8	26.841	0	116.726	0	235.7	4	84.0	4	-1E+10	1	-1E+10	1	-1E+10	1	-1E+10	1	-1E+10	1	-1E+10	1
4901784	158	C	11/01/2019	10:42	-132.787	43.662	0	120.20	0	8.8520	0	34.7150	8	26.921	0	119.204	0	234.7	4	83.2	4	-1E+10	1	-1E+10	1	-1E+10	1	-1E+10	1	-1E+10	1	-1E+10	1
4901784	158	C	11/01/2019	10:42	-132.787	43.662	0	122.70	0	8.7280	0	34.7130	8	26.939	0	121.683	0	233.4	4	82.5	4	-1E+10	1	-1E+10	1	-1E+10	1	-1E+10	1	-1E+10	1	-1E+10	1
4901784	158	C	11/01/2019	10:42	-132.787	43.662	0	125.20	0	8.6540	0	34.7220	8	26.958	0	124.161	0	231.2	4	81.6	4	-1E+10	1	-1E+10	1	-1E+10	1	-1E+10	1	-1E+10	1	-1E+10	1
4901784	158	C	11/01/2019	10:42	-132.787	43.662	0	127.70	0	8.4710	0	34.7960	8	27.044	0	126.640	0	228.1	4	80.2	4	-1E+10	1	-1E+10	1	-1E+10	1	-1E+10	1	-1E+10	1	-1E+10	1
4901784	158	C	11/01/2019	10:42	-132.787	43.662	0	130.80	0	8.3330	0	34.8710	8	27.124	0	129.713	0	225.7	4	79.2	4	-1E+10	1	-1E+10	1	-1E+10	1	-1E+10	1	-1E+10	1	-1E+10	1
4901784	158	C	11/01/2019	10:42	-132.787	43.662	0	132.70	0	8.2540	0	34.9340	8	27.186	0	131.597	0	224.1	4	78.5	4	-1E+10	1	-1E+10	1	-1E+10	1	-1E+10	1	-1E+10	1	-1E+10	1
4901784	158	C	11/01/2019	10:42	-132.787	43.662	0	135.00	0	8.2200	0	34.9720	8	27.221	0	133.877	0	222.8	4	78.0	4	-1E+10	1	-1E+10	1	-1E+10	1	-1E+10	1	-1E+10	1	-1E+10	1
4901784	158	C	11/01/2019	10:42	-132.787	43.662	0	137.40	0	8.1920	0	35.0060	8	27.252	0	136.256	0	221.1	4	77.4	4	-1E+10	1	-1E+10	1	-1E+10	1	-1E+10	1	-1E+10	1	-1E+10	1
4901784	158	C	11/01/2019	10:42	-132.787	43.662	0	139.70	0	8.1940	0	35.0220	8	27.264	0	138.536	0	219.2	4	76.7	4	-1E+10	1	-1E+10	1	-1E+10	1	-1E+10	1	-1E+10	1	-1E+10	1
4901784	158	C	11/01/2019	10:42	-132.787	43.662	0	142.90	0	8.1480	0	35.0640	8	27.304	0	141.708	0	215.8	4	75.5	4	-1E+10	1	-1E+10	1	-1E+10	1	-1E+10	1	-1E+10	1	-1E+10	1
4901784	158	C	11/01/2019	10:42	-132.787	43.662	0	145.40	0	8.0910	0	35.1330	8	27.367	0	144.187	0	213.1	4	74.5	4	-1E+10	1	-1E+10	1	-1E+10	1	-1E+10	1	-1E+10	1	-1E+10	1
4901784	158	C	11/01/2019	10:42	-132.787	43.662	0	147.90	0	8.0740	0	35.2230	8	27.440	0	146.665	0	210.8	4	73.7	4	-1E+10	1	-1E+10	1	-1E+10	1	-1E+10	1	-1E+10	1	-1E+10	1
4901784	158	C	11/01/2019	10:42	-132.787	43.662	0	151.00	0	8.0680	0	35.2600	8	27.470	0	149.738	0	209.2	4	73.2	4	-1E+10	1	-1E+10	1	-1E+10	1	-1E+10	1	-1E+10	1	-1E+10	1
4901784	158	C	11/01/2019	10:42	-132.787	43.662	0	152.70	0	8.0640	0	35.2900	8	27.495	0	151.423	0	208.0	4	72.8	4	-1E+10	1	-1E+10	1	-1E+10	1	-1E+10	1	-1E+10	1	-1E+10	1
4901784	158	C	11/01/2019	10:42	-132.787	43.662	0	155.00	0	8.0650	0	35.3160	8	27.515	0	153.703	0	206.9	4	72.4	4	-1E+10	1	-1E+10	1	-1E+10	1	-1E+10	1	-1E+10	1	-1E+10	1
4901784	158	C	11/01/2019	10:42	-132.787	43.662	0	157.40	0	8.0580	0	35.3510	8	27.544	0	156.082	0	205.9	4	72.1	4	-1E+10	1	-1E+10	1	-1E+10	1	-1E+10	1	-1E+10	1	-1E+10	1
4901784	158	C	11/01/2019	10:42	-132.787	43.662	0	159.80	0	8.0640	0	35.3770	8	27.563	0	158.461	0	204.4	4	71.5	4	-1E+10	1	-1E+10	1	-1E+10	1	-1E+10	1	-1E+10	1	-1E+10	1
4901784	158	C	11/01/2019	10:42	-132.787	43.662	0	162.10	0	8.0770	0	35.4190	8	27.594	0	160.741	0	202.1	4	70.8	4	-1E+10	1	-1E+10	1	-1E+10	1	-1E+10	1	-1E+10	1	-1E+10	1
4901784	158	C	11/01/2019	10:42	-132.787	43.662	0	164.60	0	8.0720	0	35.5030	8	27.661	0	163.219	0	197.2	4	69.1	4	-1E+10	1	-1E+10	1	-1E+10	1	-1E+10	1	-1E+10	1	-1E+10	1
4901784	158	C	11/01/2019	10:42	-132.787	43.662	0	167.10	0	8.0660	0	35.5560	8	27.704	0	165.697	0	192.6	4	67.5	4	-1E+10	1	-1E+10	1	-1E+10	1	-1E+10	1	-1E+10	1	-1E+10	1
4901784	158	C	11/01/2019	10:42	-132.787	43.662	0	169.60	0	8.0720	0	35.5910	8	27.730	0	168.175	0	189.0	4	66.3	4	-1E+10	1	-1E+10	1	-1E+10	1	-1E+10	1	-1E+10	1	-1E+10	1
4901784	158	C	11/01/2019	10:42	-132.787	43.662	0	172.10	0	8.0830	0	35.6430	8	27.769	0	170.653	0	185.9	4	65.2	4	-1E+10	1	-1E+10	1	-1E+10	1	-1E+10	1	-1E+10	1	-1E+10	1
4901784	158	C	11/01/2019	10:42	-132.787	43.662	0	174.80	0	8.1010	0	35.7040	8	27.815	0	173.329	0	183.7	4	64.5	4	-1E+10	1	-1E+10	1	-1E+10	1	-1E+10	1	-1E+10	1	-1E+10	1
4901784	158	C	11/01/2019	10:42	-132.787	43.662	0	177.50	0	8.1090	0	35.7300	8	27.834	0	176.005	0	181.9	4	63.9	4	-1E+10	1	-1E+10	1	-1E+10	1	-1E+10	1	-1E+10	1	-1E+10	1
4901784	158	C	11/01/2019	10:42	-132.787	43.662	0	180.30	0	8.1290	0	35.7580	8	27.853	0	178.780	0	180.3	4	63.4	4	-1E+10	1	-1E+10	1	-1E+10	1	-1E+10	1	-1E+10	1	-1E+10	1
4901784	158	C	11/01/2019	10:42	-132.787	43.662	0	183.00	0	8.1380	0	35.7900	8	27.877	0	181.457	0	178.8	4	62.9	4	-1E+10	1	-1E+10	1	-1E+10	1	-1E+10	1	-1E+10	1	-1E+10	1
4901784	158	C	11/01/2019	10:42	-132.787	43.662	0	184.90	0	8.1470	0	35.8220	8	27.901	0	183.340	0	178.0	4	62.6	4	-1E+10	1	-1E+10	1	-1E+10	1	-1E+10	1	-1E+10	1	-1E+10	1
4901784	158	C	11/01/2019	10:42	-132.787	43.662	0	186.90	0	8.1440	0	35.8320	8	27.909	0	185.322	0	177.3	4	62.4	4	-1E+10	1	-1E+10	1	-1E+10	1	-1E+10	1	-1E+10	1	-1E+10	1
4901784	158	C	11/01/2019	10:42	-132.787	43.662	0	189.80	0	8.1420	0	35.8460	8	27.920	0	188.196	0	175.3	4	61.7	4	-1E+10	1	-1E+10	1	-1E+10	1	-1E+10	1	-1E+10	1	-1E+10	1
4901784	158	C	11/01/2019	10:42	-132.787	43.662	0	192.60	0	8.1660	0	35.8710	8	27.936	0	190.971	0	172.8	4	60.8	4	-1E+10	1	-1E+10	1	-1E+10	1	-1E+10	1	-1E+10	1	-1E+10	1
4901784	158	C	11/01/2019	10:42	-132.787	43.662	0	194.50	0	8.1770	0	35.8790	8	27.941	0	192.854	0	171.4	4	60.4	4	-1E+10	1	-1E+10	1	-1E+10	1	-1E+10	1	-1E+10	1	-1E+10	1
4901784	158	C	11/01/2019	10:42	-132.787	43.662	0	197.30	0	8.1830	0	35.8910	8	27.949	0	195.629	0	169.1	4	59.6	4	-1E+10	1	-1E+10	1	-1E+10	1	-1E+10	1	-1E+10	1	-1E+10	1
4901784	158	C	11/01/2019	10:42	-132.787	43.662	0	200.30	0	8.2010	0	35.9210	8	27.970	0	198.602	0	166.2	4	58.6	4	-1E+10	1	-1E+10	1	-1E+10	1	-1E+10	1	-1E+10	1	-1E+10	1
4901784	158	C	11/01/2019	10:42	-132.787	43.662	0	202.20	0	8.2070	0	35.9410	8	27.985	0	200.485	0	164.6	4	58.0	4	-1E+10	1	-1E+10	1	-1E+10	1	-1E+10	1	-1E+10	1	-1E+10	1
4901784	158	C	11/01/2019	10:42	-132.787	43.662	0	204.70	0	8.2150	0	35.9670	8	28.004	0	202.963	0	162.5	4	57.3	4	-1E+10	1	-1E+10	1	-1E+10	1	-1E+10	1	-1E+10	1	-1E+10	1
4901784	158	C	11/01/2019	10:42	-132.787	43.662	0	207.40	0	8.2210	0	36.0010	8	28.030	0	205.639	0	159.6	4	56.3	4	-1E+10	1	-1E+10	1	-1E+10	1	-1E+10	1	-1E+10	1	-1E+10	1
4901784	158	C	11/01/2019	10:42	-132.787	43.662	0	209.80	0	8.2200	0	36.0080	8	28.036	0	208.017	0	157.5	4	55.6	4	-1E+10	1	-1E+10	1	-1E+10	1	-1E+10	1	-1E+10	1	-1E+10	1
4901784	158	C	11/01/2019	10:42	-132.787	43.662	0	212.20	0	8.2030	0	36.0340	8	28.059	0	210.395	0	156.1	4	55.1	4	-1E+10	1	-1E+10	1	-1E+10	1	-1E+10	1	-1E+10	1	-1E+10	1
4901784	158	C	11/01/2019	10:42	-132.787	43.662	0	214.70	0	8.1880	0	36.0520	8	28.075	0	212.873	0	156.4	4	55.2	4	-1E+10	1	-1E+10	1	-1E+10	1	-1E+10	1	-1E+10	1	-1E+10	1
4901784	158	C	11/01/2019	10:42	-132.787	43.662	0	217.20	0	8.1780	0	36.0590	8	28.082	0	215.350	0	155.7	4	54.9	4	-1E+10	1	-1E+10	1	-1E+10	1	-1E+10	1	-1E+10	1	-1E+10	1
4901784	158	C	11/01/2019	10:42	-132.787	43.662	0	219.70	0	8.1550	0	36.0720	8	28.096	0	217.828	0	154.8	4	54.6	4	-1E+10	1	-1E+10	1	-1E+10	1	-1E+10	1	-1E+10	1	-1E+10	1
4901784	158	C	11/01/2019	10:42	-132.787	43.662	0	222.30	0	8.1150	0	36.0850	8	28.113	0	220.404	0	153.0	4	53.9	4	-1E+10	1	-1E+10	1	-1E+10	1	-1E+10	1	-1E+10	1	-1E+10	1
4901784	158	C	11/01/2019	10:42	-132.787	43.662	0	224.80	0	8.0840	0	36.0910	8	28.122	0	222.881	0	151.3	4	53.3	4	-1E+10	1	-1E+10	1	-1E+10	1	-1E+10	1	-1E+10	1	-1E+10	1
4901784	158	C	11/01/2019	10:42	-132.787	43.662	0	227.40	0	8.0420	0	36.0990	8	28.135	0	225.458	0	149.6	4	52.6	4	-1E+10	1	-1E+10	1	-1E+10	1	-1E+10	1	-1E+10	1	-1E+10	1
4901784	158	C	11/01/2019	10:42	-132.787	43.662	0	229.90	0	8.0190	0	36.0990	8	28.138	0	227.935	0	147.6	4	51.9	4	-1E+10	1	-1E+10	1	-1E+10	1	-1E+10	1	-1E+10	1	-1E+10	1
4901784	158	C	11/01/2019	10:42	-132.787	43.662	0	232.40	0	7.9750	0	36.1050	8	28.150	0	230.412	0	146.6	4	51.5	4	-1E+10	1	-1E+10	1	-1E+10	1	-1E+10	1	-1E+10	1	-1E+10	1
4901784	158	C	11/01/2019	10:42	-132.787	43.662	0	235.00	0	7.9680	0	36.1030	8	28.149	0	232.989	0	146.6	4	51.5	4	-1E+10	1	-1E+10	1	-1E+10	1	-1E+10	1	-1E+10	1	-1E+10	1
4901784	158	C	11/01/2019	10:42	-132.787	43.662	0	237.50	0	7.9470	0	36.1050	8	28.154	0	235.466	0	146.3	4	51.4	4	-1E+10	1	-1E+10	1	-1E+10	1	-1E+10	1	-1E+10	1	-1E+10	1
4901784	158	C	11/01/2019	10:42	-132.787	43.662	0	240.00	0	7.9120	0	36.1040	8	28.159	0	237.943	0	144.9	4	50.8	4	-1E+10	1	-1E+10	1	-1E+10	1	-1E+10	1	-1E+10	1	-1E+10	1
4901784	158	C	11/01/2019	10:42	-132.787	43.662	0	242.60	0	7.8410	0	36.1100	8	28.174	0	240.519	0	144.5	4	50.6	4	-1E+10	1	-1E+10	1	-1E+10	1	-1E+10	1	-1E+10	1	-1E+10	1
4901784	158	C	11/01/2019	10:42	-132.787	43.662	0	245.20	0	7.7910	0	36.1110	8	28.183	0	243.095	0	143.9	4	50.3	4	-1E+10	1	-1E+10	1	-1E+10	1	-1E+10	1	-1E+10	1	-1E+10	1
4901784	158	C	11/01/2019	10:42	-132.787	43.662	0	247.80	0	7.7380	0	36.1150	8	28.194	0	245.671	0	143.2	4	50.0	4	-1E+10	1	-1E+10	1	-1E+10	1	-1E+10	1	-1E+10	1	-1E+10	1
4901784	158	C	11/01/2019	10:42	-132.787	43.662	0	250.60	0	7.7240	0	36.1150	8	28.196	0	248.446	0	142.4	4	49.7	4	-1E+10	1	-1E+10	1	-1E+10	1	-1E+10	1	-1E+10	1	-1E+10	1
4901784	158	C	11/01/2019	10:42	-132.787	43.662	0	252.30	0	7.7170	0	36.1140	8	28.196	0	250.130	0	141.7	4	49.5	4	-1E+10	1	-1E+10	1	-1E+10	1	-1E+10	1	-1E+10	1	-1E+10	1
4901784	158	C	11/01/2019	10:42	-132.787	43.662	0	255.00	0	7.6930	0	36.1150	8	28.201	0	252.805	0	139.9	4	48.8	4	-1E+10	1	-1E+10	1	-1E+10	1	-1E+10	1	-1E+10	1	-1E+10	1
4901784	158	C	11/01/2019	10:42	-132.787	43.662	0	257.60	0	7.6790	0	36.1140	8	28.202	0	255.381	0	137.6	4	48.0	4	-1E+10	1	-1E+10	1	-1E+10	1	-1E+10	1	-1E+10	1	-1E+10	1
4901784	158	C	11/01/2019	10:42	-132.787	43.662	0	260.10	0	7.6400	0	36.1140	8	28.208	0	257.858	0	134.9	4	47.0	4	-1E+10	1	-1E+10	1	-1E+10	1	-1E+10	1	-1E+10	1	-1E+10	1
4901784	158	C	11/01/2019	10:42	-132.787	43.662	0	262.70	0	7.5970	0	36.1140	8	28.214	0	260.434	0	133.1	4	46.4	4	-1E+10	1	-1E+10	1	-1E+10	1	-1E+10	1	-1E+10	1	-1E+10	1
4901784	158	C	11/01/2019	10:42	-132.787	43.662	0	264.50	0	7.5730	0	36.1140	8	28.218	0	262.217	0	132.9	4	46.3	4	-1E+10	1	-1E+10	1	-1E+10	1	-1E+10	1	-1E+10	1	-1E+10	1
4901784	158	C	11/01/2019	10:42	-132.787	43.662	0	267.10	0	7.5240	0	36.1140	8	28.225	0	264.793	0	131.5	4	45.7	4	-1E+10	1	-1E+10	1	-1E+10	1	-1E+10	1	-1E+10	1	-1E+10	1
4901784	158	C	11/01/2019	10:42	-132.787	43.662	0	269.70	0	7.4950	0	36.1130	8	28.229	0	267.369	0	128.5	4	44.6	4	-1E+10	1	-1E+10	1	-1E+10	1	-1E+10	1	-1E+10	1	-1E+10	1
4901784	158	C	11/01/2019	10:42	-132.787	43.662	0	272.30	0	7.4140	0	36.1180	8	28.244	0	269.945	0	125.3	4	43.5	4	-1E+10	1	-1E+10	1	-1E+10	1	-1E+10	1	-1E+10	1	-1E+10	1
4901784	158	C	11/01/2019	10:42	-132.787	43.662	0	274.90	0	7.3770	0	36.1170	8	28.249	0	272.521	0	123.3	4	42.7	4	-1E+10	1	-1E+10	1	-1E+10	1	-1E+10	1	-1E+10	1	-1E+10	1
4901784	158	C	11/01/2019	10:42	-132.787	43.662	0	277.60	0	7.3400	0	36.1160	8	28.254	0	275.196	0	121.1	4	41.9	4	-1E+10	1	-1E+10	1	-1E+10	1	-1E+10	1	-1E+10	1	-1E+10	1
4901784	158	C	11/01/2019	10:42	-132.787	43.662	0	280.20	0	7.2850	0	36.1190	8	28.264	0	277.771	0	118.2	4	40.9	4	-1E+10	1	-1E+10	1	-1E+10	1	-1E+10	1	-1E+10	1	-1E+10	1
4901784	158	C	11/01/2019	10:42	-132.787	43.662	0	282.00	0	7.2600	0	36.1180	8	28.267	0	279.555	0	116.4	4	40.2	4	-1E+10	1	-1E+10	1	-1E+10	1	-1E+10	1	-1E+10	1	-1E+10	1
4901784	158	C	11/01/2019	10:42	-132.787	43.662	0	284.70	0	7.2190	0	36.1180	8	28.273	0	282.229	0	115.8	4	40.0	4	-1E+10	1	-1E+10	1	-1E+10	1	-1E+10	1	-1E+10	1	-1E+10	1
4901784	158	C	11/01/2019	10:42	-132.787	43.662	0	287.40	0	7.1600	0	36.1170	8	28.281	0	284.904	0	114.1	4	39.3	4	-1E+10	1	-1E+10	1	-1E+10	1	-1E+10	1	-1E+10	1	-1E+10	1
4901784	158	C	11/01/2019	10:42	-132.787	43.662	0	290.00	0	7.0870	0	36.1210	8	28.294	0	287.480	0	111.4	4	38.4	4	-1E+10	1	-1E+10	1	-1E+10	1	-1E+10	1	-1E+10	1	-1E+10	1
4901784	158	C	11/01/2019	10:42	-132.787	43.662	0	292.80	0	7.0390	0	36.1240	8	28.303	0	290.253	0	109.6	4	37.7	4	-1E+10	1	-1E+10	1	-1E+10	1	-1E+10	1	-1E+10	1	-1E+10	1
4901784	158	C	11/01/2019	10:42	-132.787	43.662	0	294.50	0	7.0110	0	36.1260	8	28.309	0	291.937	0	108.4	4	37.2	4	-1E+10	1	-1E+10	1	-1E+10	1	-1E+10	1	-1E+10	1	-1E+10	1
4901784	158	C	11/01/2019	10:42	-132.787	43.662	0	297.30	0	6.9820	0	36.1260	8	28.313	0	294.711	0	107.0	4	36.8	4	-1E+10	1	-1E+10	1	-1E+10	1	-1E+10	1	-1E+10	1	-1E+10	1
4901784	158	C	11/01/2019	10:42	-132.787	43.662	0	300.00	0	6.9510	0	36.1250	8	28.317	0	297.386	0	106.0	4	36.4	4	-1E+10	1	-1E+10	1	-1E+10	1	-1E+10	1	-1E+10	1	-1E+10	1
4901784	158	C	11/01/2019	10:42	-132.787	43.662	0	302.70	0	6.9110	0	36.1260	8	28.323	0	300.060	0	104.1	4	35.7	4	-1E+10	1	-1E+10	1	-1E+10	1	-1E+10	1	-1E+10	1	-1E+10	1
4901784	158	C	11/01/2019	10:42	-132.787	43.662	0	305.40	0	6.8730	0	36.1280	8	28.330	0	302.735	0	102.1	4	35.0	4	-1E+10	1	-1E+10	1	-1E+10	1	-1E+10	1	-1E+10	1	-1E+10	1
4901784	158	C	11/01/2019	10:42	-132.787	43.662	0	307.20	0	6.8410	0	36.1290	8	28.335	0	304.518	0	101.1	4	34.6	4	-1E+10	1	-1E+10	1	-1E+10	1	-1E+10	1	-1E+10	1	-1E+10	1
4901784	158	C	11/01/2019	10:42	-132.787	43.662	0	309.80	0	6.8120	0	36.1310	8	28.341	0	307.093	0	99.9	4	34.2	4	-1E+10	1	-1E+10	1	-1E+10	1	-1E+10	1	-1E+10	1	-1E+10	1
4901784	158	C	11/01/2019	10:42	-132.787	43.662	0	312.40	0	6.7880	0	36.1290	8	28.343	0	309.668	0	99.4	4	34.0	4	-1E+10	1	-1E+10	1	-1E+10	1	-1E+10	1	-1E+10	1	-1E+10	1
4901784	158	C	11/01/2019	10:42	-132.787	43.662	0	315.10	0	6.7300	0	36.1290	8	28.351	0	312.343	0	99.0	4	33.8	4	-1E+10	1	-1E+10	1	-1E+10	1	-1E+10	1	-1E+10	1	-1E+10	1
4901784	158	C	11/01/2019	10:42	-132.787	43.662	0	317.80	0	6.6870	0	36.1340	8	28.361	0	315.017	0	98.5	4	33.6	4	-1E+10	1	-1E+10	1	-1E+10	1	-1E+10	1	-1E+10	1	-1E+10	1
4901784	158	C	11/01/2019	10:42	-132.787	43.662	0	319.60	0	6.6790	0	36.1300	8	28.359	0	316.800	0	98.2	4	33.5	4	-1E+10	1	-1E+10	1	-1E+10	1	-1E+10	1	-1E+10	1	-1E+10	1
4901784	158	C	11/01/2019	10:42	-132.787	43.662	0	322.40	0	6.6540	0	36.1310	8	28.363	0	319.573	0	97.6	4	33.3	4	-1E+10	1	-1E+10	1	-1E+10	1	-1E+10	1	-1E+10	1	-1E+10	1
4901784	158	C	11/01/2019	10:42	-132.787	43.662	0	325.10	0	6.5810	0	36.1290	8	28.372	0	322.247	0	97.4	4	33.2	4	-1E+10	1	-1E+10	1	-1E+10	1	-1E+10	1	-1E+10	1	-1E+10	1
4901784	158	C	11/01/2019	10:42	-132.787	43.662	0	326.90	0	6.5360	0	36.1300	8	28.379	0	324.030	0	97.1	4	33.0	4	-1E+10	1	-1E+10	1	-1E+10	1	-1E+10	1	-1E+10	1	-1E+10	1
4901784	158	C	11/01/2019	10:42	-132.787	43.662	0	329.70	0	6.4880	0	36.1310	8	28.386	0	326.803	0	96.0	4	32.6	4	-1E+10	1	-1E+10	1	-1E+10	1	-1E+10	1	-1E+10	1	-1E+10	1
4901784	158	C	11/01/2019	10:42	-132.787	43.662	0	332.40	0	6.4470	0	36.1310	8	28.392	0	329.477	0	95.1	4	32.3	4	-1E+10	1	-1E+10	1	-1E+10	1	-1E+10	1	-1E+10	1	-1E+10	1
4901784	158	C	11/01/2019	10:42	-132.787	43.662	0	335.20	0	6.4090	0	36.1310	8	28.397	0	332.251	0	94.4	4	32.0	4	-1E+10	1	-1E+10	1	-1E+10	1	-1E+10	1	-1E+10	1	-1E+10	1
4901784	158	C	11/01/2019	10:42	-132.787	43.662	0	337.90	0	6.3740	0	36.1310	8	28.402	0	334.925	0	93.6	4	31.7	4	-1E+10	1	-1E+10	1	-1E+10	1	-1E+10	1	-1E+10	1	-1E+10	1
4901784	158	C	11/01/2019	10:42	-132.787	43.662	0	339.80	0	6.3220	0	36.1330	8	28.410	0	336.806	0	93.1	4	31.5	4	-1E+10	1	-1E+10	1	-1E+10	1	-1E+10	1	-1E+10	1	-1E+10	1
4901784	158	C	11/01/2019	10:42	-132.787	43.662	0	342.10	0	6.2950	0	36.1330	8	28.414	0	339.084	0	92.4	4	31.3	4	-1E+10	1	-1E+10	1	-1E+10	1	-1E+10	1	-1E+10	1	-1E+10	1
4901784	158	C	11/01/2019	10:42	-132.787	43.662	0	344.80	0	6.2630	0	36.1320	8	28.417	0	341.758	0	91.0	4	30.8	4	-1E+10	1	-1E+10	1	-1E+10	1	-1E+10	1	-1E+10	1	-1E+10	1
4901784	158	C	11/01/2019	10:42	-132.787	43.662	0	347.20	0	6.2210	0	36.1350	8	28.425	0	344.135	0	89.8	4	30.3	4	-1E+10	1	-1E+10	1	-1E+10	1	-1E+10	1	-1E+10	1	-1E+10	1
4901784	158	C	11/01/2019	10:42	-132.787	43.662	0	349.60	0	6.1850	0	36.1360	8	28.431	0	346.512	0	89.3	4	30.1	4	-1E+10	1	-1E+10	1	-1E+10	1	-1E+10	1	-1E+10	1	-1E+10	1
4901784	158	C	11/01/2019	10:42	-132.787	43.662	0	352.70	0	6.1650	0	36.1340	8	28.432	0	349.582	0	88.5	4	29.8	4	-1E+10	1	-1E+10	1	-1E+10	1	-1E+10	1	-1E+10	1	-1E+10	1
4901784	158	C	11/01/2019	10:42	-132.787	43.662	0	355.10	0	6.1170	0	36.1340	8	28.438	0	351.959	0	87.7	4	29.5	4	-1E+10	1	-1E+10	1	-1E+10	1	-1E+10	1	-1E+10	1	-1E+10	1
4901784	158	C	11/01/2019	10:42	-132.787	43.662	0	357.50	0	6.0580	0	36.1340	8	28.446	0	354.335	0	87.0	4	29.3	4	-1E+10	1	-1E+10	1	-1E+10	1	-1E+10	1	-1E+10	1	-1E+10	1
4901784	158	C	11/01/2019	10:42	-132.787	43.662	0	359.80	0	5.9900	0	36.1350	8	28.456	0	356.613	0	86.3	4	29.0	4	-1E+10	1	-1E+10	1	-1E+10	1	-1E+10	1	-1E+10	1	-1E+10	1
4901784	158	C	11/01/2019	10:42	-132.787	43.662	0	362.20	0	5.9550	0	36.1360	8	28.461	0	358.990	0	85.1	4	28.6	4	-1E+10	1	-1E+10	1	-1E+10	1	-1E+10	1	-1E+10	1	-1E+10	1
4901784	158	C	11/01/2019	10:42	-132.787	43.662	0	365.40	0	5.9170	0	36.1400	8	28.469	0	362.159	0	84.2	4	28.2	4	-1E+10	1	-1E+10	1	-1E+10	1	-1E+10	1	-1E+10	1	-1E+10	1
4901784	158	C	11/01/2019	10:42	-132.787	43.662	0	367.80	0	5.9030	0	36.1400	8	28.471	0	364.535	0	83.7	4	28.0	4	-1E+10	1	-1E+10	1	-1E+10	1	-1E+10	1	-1E+10	1	-1E+10	1
4901784	158	C	11/01/2019	10:42	-132.787	43.662	0	370.30	0	5.8720	0	36.1370	8	28.473	0	367.011	0	83.4	4	27.9	4	-1E+10	1	-1E+10	1	-1E+10	1	-1E+10	1	-1E+10	1	-1E+10	1
4901784	158	C	11/01/2019	10:42	-132.787	43.662	0	372.70	0	5.7900	0	36.1350	8	28.482	0	369.387	0	82.8	4	27.7	4	-1E+10	1	-1E+10	1	-1E+10	1	-1E+10	1	-1E+10	1	-1E+10	1
4901784	158	C	11/01/2019	10:42	-132.787	43.662	0	375.10	0	5.7640	0	36.1380	8	28.488	0	371.764	0	82.0	4	27.4	4	-1E+10	1	-1E+10	1	-1E+10	1	-1E+10	1	-1E+10	1	-1E+10	1
4901784	158	C	11/01/2019	10:42	-132.787	43.662	0	377.70	0	5.7330	0	36.1440	8	28.496	0	374.338	0	81.5	4	27.2	4	-1E+10	1	-1E+10	1	-1E+10	1	-1E+10	1	-1E+10	1	-1E+10	1
4901784	158	C	11/01/2019	10:42	-132.787	43.662	0	380.20	0	5.7150	0	36.1410	8	28.496	0	376.814	0	80.8	4	27.0	4	-1E+10	1	-1E+10	1	-1E+10	1	-1E+10	1	-1E+10	1	-1E+10	1
4901784	158	C	11/01/2019	10:42	-132.787	43.662	0	382.70	0	5.7150	0	36.1420	8	28.497	0	379.289	0	80.2	4	26.7	4	-1E+10	1	-1E+10	1	-1E+10	1	-1E+10	1	-1E+10	1	-1E+10	1
4901784	158	C	11/01/2019	10:42	-132.787	43.662	0	385.30	0	5.6890	0	36.1440	8	28.502	0	381.864	0	79.8	4	26.6	4	-1E+10	1	-1E+10	1	-1E+10	1	-1E+10	1	-1E+10	1	-1E+10	1
4901784	158	C	11/01/2019	10:42	-132.787	43.662	0	387.80	0	5.6640	0	36.1440	8	28.505	0	384.339	0	79.5	4	26.5	4	-1E+10	1	-1E+10	1	-1E+10	1	-1E+10	1	-1E+10	1	-1E+10	1
4901784	158	C	11/01/2019	10:42	-132.787	43.662	0	389.50	0	5.6590	0	36.1420	8	28.504	0	386.022	0	79.2	4	26.4	4	-1E+10	1	-1E+10	1	-1E+10	1	-1E+10	1	-1E+10	1	-1E+10	1
4901784	158	C	11/01/2019	10:42	-132.787	43.662	0	392.10	0	5.6290	0	36.1430	8	28.509	0	388.597	0	78.6	4	26.2	4	-1E+10	1	-1E+10	1	-1E+10	1	-1E+10	1	-1E+10	1	-1E+10	1
4901784	158	C	11/01/2019	10:42	-132.787	43.662	0	394.80	0	5.6060	0	36.1440	8	28.513	0	391.270	0	78.3	4	26.1	4	-1E+10	1	-1E+10	1	-1E+10	1	-1E+10	1	-1E+10	1	-1E+10	1
4901784	158	C	11/01/2019	10:42	-132.787	43.662	0	397.40	0	5.5970	0	36.1420	8	28.512	0	393.844	0	77.9	4	25.9	4	-1E+10	1	-1E+10	1	-1E+10	1	-1E+10	1	-1E+10	1	-1E+10	1
4901784	158	C	11/01/2019	10:42	-132.787	43.662	0	400.00	0	5.5500	0	36.1390	8	28.516	0	396.419	0	77.4	4	25.7	4	-1E+10	1	-1E+10	1	-1E+10	1	-1E+10	1	-1E+10	1	-1E+10	1
4901784	158	C	11/01/2019	10:42	-132.787	43.662	0	402.60	0	5.5200	0	36.1410	8	28.521	0	398.993	0	76.9	4	25.5	4	-1E+10	1	-1E+10	1	-1E+10	1	-1E+10	1	-1E+10	1	-1E+10	1
4901784	158	C	11/01/2019	10:42	-132.787	43.662	0	405.20	0	5.4880	0	36.1410	8	28.525	0	401.567	0	76.0	4	25.2	4	-1E+10	1	-1E+10	1	-1E+10	1	-1E+10	1	-1E+10	1	-1E+10	1
4901784	158	C	11/01/2019	10:42	-132.787	43.662	0	407.00	0	5.4710	0	36.1410	8	28.527	0	403.349	0	75.3	4	25.0	4	-1E+10	1	-1E+10	1	-1E+10	1	-1E+10	1	-1E+10	1	-1E+10	1
4901784	158	C	11/01/2019	10:42	-132.787	43.662	0	409.70	0	5.4250	0	36.1440	8	28.535	0	406.022	0	74.4	4	24.7	4	-1E+10	1	-1E+10	1	-1E+10	1	-1E+10	1	-1E+10	1	-1E+10	1
4901784	158	C	11/01/2019	10:42	-132.787	43.662	0	412.30	0	5.3980	0	36.1440	8	28.539	0	408.596	0	73.6	4	24.4	4	-1E+10	1	-1E+10	1	-1E+10	1	-1E+10	1	-1E+10	1	-1E+10	1
4901784	158	C	11/01/2019	10:42	-132.787	43.662	0	415.00	0	5.3830	0	36.1470	8	28.543	0	411.269	0	72.3	4	23.9	4	-1E+10	1	-1E+10	1	-1E+10	1	-1E+10	1	-1E+10	1	-1E+10	1
4901784	158	C	11/01/2019	10:42	-132.787	43.662	0	417.70	0	5.3710	0	36.1490	8	28.546	0	413.942	0	71.2	4	23.6	4	-1E+10	1	-1E+10	1	-1E+10	1	-1E+10	1	-1E+10	1	-1E+10	1
4901784	158	C	11/01/2019	10:42	-132.787	43.662	0	419.50	0	5.3670	0	36.1480	8	28.546	0	415.724	0	70.6	4	23.4	4	-1E+10	1	-1E+10	1	-1E+10	1	-1E+10	1	-1E+10	1	-1E+10	1
4901784	158	C	11/01/2019	10:42	-132.787	43.662	0	422.30	0	5.3280	0	36.1540	8	28.555	0	418.496	0	69.6	4	23.0	4	-1E+10	1	-1E+10	1	-1E+10	1	-1E+10	1	-1E+10	1	-1E+10	1
4901784	158	C	11/01/2019	10:42	-132.787	43.662	0	425.20	0	5.3100	0	36.1550	8	28.558	0	421.367	0	69.2	4	22.9	4	-1E+10	1	-1E+10	1	-1E+10	1	-1E+10	1	-1E+10	1	-1E+10	1
4901784	158	C	11/01/2019	10:42	-132.787	43.662	0	427.00	0	5.2960	0	36.1550	8	28.560	0	423.149	0	68.9	4	22.8	4	-1E+10	1	-1E+10	1	-1E+10	1	-1E+10	1	-1E+10	1	-1E+10	1
4901784	158	C	11/01/2019	10:42	-132.787	43.662	0	429.80	0	5.2620	0	36.1540	8	28.563	0	425.921	0	68.4	4	22.6	4	-1E+10	1	-1E+10	1	-1E+10	1	-1E+10	1	-1E+10	1	-1E+10	1
4901784	158	C	11/01/2019	10:42	-132.787	43.662	0	432.60	0	5.2380	0	36.1550	8	28.567	0	428.693	0	67.6	4	22.3	4	-1E+10	1	-1E+10	1	-1E+10	1	-1E+10	1	-1E+10	1	-1E+10	1
4901784	158	C	11/01/2019	10:42	-132.787	43.662	0	434.40	0	5.2240	0	36.1570	8	28.571	0	430.475	0	66.8	4	22.0	4	-1E+10	1	-1E+10	1	-1E+10	1	-1E+10	1	-1E+10	1	-1E+10	1
4901784	158	C	11/01/2019	10:42	-132.787	43.662	0	437.20	0	5.2170	0	36.1590	8	28.573	0	433.247	0	65.2	4	21.5	4	-1E+10	1	-1E+10	1	-1E+10	1	-1E+10	1	-1E+10	1	-1E+10	1
4901784	158	C	11/01/2019	10:42	-132.787	43.662	0	440.00	0	5.2420	0	36.1690	8	28.578	0	436.018	0	63.6	4	21.0	4	-1E+10	1	-1E+10	1	-1E+10	1	-1E+10	1	-1E+10	1	-1E+10	1
4901784	158	C	11/01/2019	10:42	-132.787	43.662	0	441.90	0	5.2400	0	36.1720	8	28.581	0	437.899	0	63.1	4	20.8	4	-1E+10	1	-1E+10	1	-1E+10	1	-1E+10	1	-1E+10	1	-1E+10	1
4901784	158	C	11/01/2019	10:42	-132.787	43.662	0	444.70	0	5.2400	0	36.1700	8	28.579	0	440.671	0	62.7	4	20.7	4	-1E+10	1	-1E+10	1	-1E+10	1	-1E+10	1	-1E+10	1	-1E+10	1
4901784	158	C	11/01/2019	10:42	-132.787	43.662	0	447.60	0	5.2000	0	36.1710	8	28.585	0	443.542	0	62.4	4	20.6	4	-1E+10	1	-1E+10	1	-1E+10	1	-1E+10	1	-1E+10	1	-1E+10	1
4901784	158	C	11/01/2019	10:42	-132.787	43.662	0	449.50	0	5.1830	0	36.1720	8	28.588	0	445.422	0	61.9	4	20.4	4	-1E+10	1	-1E+10	1	-1E+10	1	-1E+10	1	-1E+10	1	-1E+10	1
4901784	158	C	11/01/2019	10:42	-132.787	43.662	0	452.20	0	5.1670	0	36.1740	8	28.591	0	448.095	0	61.0	4	20.1	4	-1E+10	1	-1E+10	1	-1E+10	1	-1E+10	1	-1E+10	1	-1E+10	1
4901784	158	C	11/01/2019	10:42	-132.787	43.662	0	455.00	0	5.1710	0	36.1780	8	28.594	0	450.866	0	60.0	4	19.8	4	-1E+10	1	-1E+10	1	-1E+10	1	-1E+10	1	-1E+10	1	-1E+10	1
4901784	158	C	11/01/2019	10:42	-132.787	43.662	0	456.90	0	5.1480	0	36.1780	8	28.597	0	452.747	0	59.8	4	19.7	4	-1E+10	1	-1E+10	1	-1E+10	1	-1E+10	1	-1E+10	1	-1E+10	1
4901784	158	C	11/01/2019	10:42	-132.787	43.662	0	459.70	0	5.1470	0	36.1800	8	28.598	0	455.519	0	59.6	4	19.6	4	-1E+10	1	-1E+10	1	-1E+10	1	-1E+10	1	-1E+10	1	-1E+10	1
4901784	158	C	11/01/2019	10:42	-132.787	43.662	0	462.70	0	5.1310	0	36.1800	8	28.600	0	458.488	0	59.6	4	19.6	4	-1E+10	1	-1E+10	1	-1E+10	1	-1E+10	1	-1E+10	1	-1E+10	1
4901784	158	C	11/01/2019	10:42	-132.787	43.662	0	464.60	0	5.1110	0	36.1800	8	28.603	0	460.369	0	59.7	4	19.7	4	-1E+10	1	-1E+10	1	-1E+10	1	-1E+10	1	-1E+10	1	-1E+10	1
4901784	158	C	11/01/2019	10:42	-132.787	43.662	0	467.50	0	5.0860	0	36.1790	8	28.605	0	463.239	0	60.2	4	19.8	4	-1E+10	1	-1E+10	1	-1E+10	1	-1E+10	1	-1E+10	1	-1E+10	1
4901784	158	C	11/01/2019	10:42	-132.787	43.662	0	470.40	0	5.0440	0	36.1770	8	28.608	0	466.109	0	60.8	4	20.0	4	-1E+10	1	-1E+10	1	-1E+10	1	-1E+10	1	-1E+10	1	-1E+10	1
4901784	158	C	11/01/2019	10:42	-132.787	43.662	0	472.30	0	5.0190	0	36.1760	8	28.611	0	467.990	0	61.1	4	20.1	4	-1E+10	1	-1E+10	1	-1E+10	1	-1E+10	1	-1E+10	1	-1E+10	1
4901784	158	C	11/01/2019	10:42	-132.787	43.662	0	475.20	0	4.9970	0	36.1730	8	28.611	0	470.860	0	61.5	4	20.2	4	-1E+10	1	-1E+10	1	-1E+10	1	-1E+10	1	-1E+10	1	-1E+10	1
4901784	158	C	11/01/2019	10:42	-132.787	43.662	0	478.10	0	4.9390	0	36.1730	8	28.618	0	473.730	0	61.5	4	20.2	4	-1E+10	1	-1E+10	1	-1E+10	1	-1E+10	1	-1E+10	1	-1E+10	1
4901784	158	C	11/01/2019	10:42	-132.787	43.662	0	480.00	0	4.9250	0	36.1730	8	28.620	0	475.611	0	60.9	4	20.0	4	-1E+10	1	-1E+10	1	-1E+10	1	-1E+10	1	-1E+10	1	-1E+10	1
4901784	158	C	11/01/2019	10:42	-132.787	43.662	0	481.90	0	4.9040	0	36.1720	8	28.621	0	477.491	0	60.3	4	19.8	4	-1E+10	1	-1E+10	1	-1E+10	1	-1E+10	1	-1E+10	1	-1E+10	1
4901784	158	C	11/01/2019	10:42	-132.787	43.662	0	484.80	0	4.9140	0	36.1750	8	28.622	0	480.361	0	58.9	4	19.3	4	-1E+10	1	-1E+10	1	-1E+10	1	-1E+10	1	-1E+10	1	-1E+10	1
4901784	158	C	11/01/2019	10:42	-132.787	43.662	0	487.60	0	4.8870	0	36.1800	8	28.630	0	483.132	0	57.8	4	18.9	4	-1E+10	1	-1E+10	1	-1E+10	1	-1E+10	1	-1E+10	1	-1E+10	1
4901784	158	C	11/01/2019	10:42	-132.787	43.662	0	489.60	0	4.8970	0	36.1840	8	28.632	0	485.112	0	56.9	4	18.6	4	-1E+10	1	-1E+10	1	-1E+10	1	-1E+10	1	-1E+10	1	-1E+10	1
4901784	158	C	11/01/2019	10:42	-132.787	43.662	0	492.50	0	4.8810	0	36.1870	8	28.636	0	487.982	0	56.3	4	18.4	4	-1E+10	1	-1E+10	1	-1E+10	1	-1E+10	1	-1E+10	1	-1E+10	1
4901784	158	C	11/01/2019	10:42	-132.787	43.662	0	495.30	0	4.8540	0	36.1890	8	28.641	0	490.753	0	55.7	4	18.2	4	-1E+10	1	-1E+10	1	-1E+10	1	-1E+10	1	-1E+10	1	-1E+10	1
4901784	158	C	11/01/2019	10:42	-132.787	43.662	0	497.30	0	4.8510	0	36.1900	8	28.642	0	492.732	0	55.2	4	18.1	4	-1E+10	1	-1E+10	1	-1E+10	1	-1E+10	1	-1E+10	1	-1E+10	1
4901784	158	C	11/01/2019	10:42	-132.787	43.662	0	500.20	0	4.8420	0	36.1920	8	28.645	0	495.602	0	54.3	4	17.8	4	-1E+10	1	-1E+10	1	-1E+10	1	-1E+10	1	-1E+10	1	-1E+10	1
4901784	158	C	11/01/2019	10:42	-132.787	43.662	0	505.10	0	4.8580	0	36.1980	8	28.648	0	500.451	0	53.0	4	17.3	4	-1E+10	1	-1E+10	1	-1E+10	1	-1E+10	1	-1E+10	1	-1E+10	1
4901784	158	C	11/01/2019	10:42	-132.787	43.662	0	510.60	0	4.7940	0	36.2020	8	28.658	0	505.894	0	52.5	4	17.2	4	-1E+10	1	-1E+10	1	-1E+10	1	-1E+10	1	-1E+10	1	-1E+10	1
4901784	158	C	11/01/2019	10:42	-132.787	43.662	0	515.50	0	4.7840	0	36.2030	8	28.660	0	510.742	0	51.5	4	16.8	4	-1E+10	1	-1E+10	1	-1E+10	1	-1E+10	1	-1E+10	1	-1E+10	1
4901784	158	C	11/01/2019	10:42	-132.787	43.662	0	520.50	0	4.7700	0	36.2070	8	28.665	0	515.690	0	49.7	4	16.2	4	-1E+10	1	-1E+10	1	-1E+10	1	-1E+10	1	-1E+10	1	-1E+10	1
4901784	158	C	11/01/2019	10:42	-132.787	43.662	0	525.60	0	4.7570	0	36.2150	8	28.673	0	520.737	0	47.9	4	15.6	4	-1E+10	1	-1E+10	1	-1E+10	1	-1E+10	1	-1E+10	1	-1E+10	1
4901784	158	C	11/01/2019	10:42	-132.787	43.662	0	529.90	0	4.7390	0	36.2180	8	28.678	0	524.991	0	46.6	4	15.2	4	-1E+10	1	-1E+10	1	-1E+10	1	-1E+10	1	-1E+10	1	-1E+10	1
4901784	158	C	11/01/2019	10:42	-132.787	43.662	0	534.20	0	4.7170	0	36.2240	8	28.685	0	529.246	0	45.1	4	14.7	4	-1E+10	1	-1E+10	1	-1E+10	1	-1E+10	1	-1E+10	1	-1E+10	1
4901784	158	C	11/01/2019	10:42	-132.787	43.662	0	539.50	0	4.7040	0	36.2320	8	28.693	0	534.490	0	42.9	4	14.0	4	-1E+10	1	-1E+10	1	-1E+10	1	-1E+10	1	-1E+10	1	-1E+10	1
4901784	158	C	11/01/2019	10:42	-132.787	43.662	0	544.70	0	4.6970	0	36.2400	8	28.700	0	539.635	0	40.8	4	13.3	4	-1E+10	1	-1E+10	1	-1E+10	1	-1E+10	1	-1E+10	1	-1E+10	1
4901784	158	C	11/01/2019	10:42	-132.787	43.662	0	549.90	0	4.7020	0	36.2480	8	28.706	0	544.780	0	38.6	4	12.6	4	-1E+10	1	-1E+10	1	-1E+10	1	-1E+10	1	-1E+10	1	-1E+10	1
4901784	158	C	11/01/2019	10:42	-132.787	43.662	0	555.20	0	4.7150	0	36.2600	8	28.714	0	550.024	0	36.6	4	11.9	4	-1E+10	1	-1E+10	1	-1E+10	1	-1E+10	1	-1E+10	1	-1E+10	1
4901784	158	C	11/01/2019	10:42	-132.787	43.662	0	560.40	0	4.7110	0	36.2650	8	28.718	0	555.168	0	35.5	4	11.6	4	-1E+10	1	-1E+10	1	-1E+10	1	-1E+10	1	-1E+10	1	-1E+10	1
4901784	158	C	11/01/2019	10:42	-132.787	43.662	0	565.70	0	4.7050	0	36.2690	8	28.722	0	560.411	0	34.5	4	11.3	4	-1E+10	1	-1E+10	1	-1E+10	1	-1E+10	1	-1E+10	1	-1E+10	1
4901784	158	C	11/01/2019	10:42	-132.787	43.662	0	570.20	0	4.6870	0	36.2730	8	28.728	0	564.863	0	33.7	4	11.0	4	-1E+10	1	-1E+10	1	-1E+10	1	-1E+10	1	-1E+10	1	-1E+10	1
4901784	158	C	11/01/2019	10:42	-132.787	43.662	0	574.60	0	4.6730	0	36.2750	8	28.731	0	569.216	0	32.7	4	10.7	4	-1E+10	1	-1E+10	1	-1E+10	1	-1E+10	1	-1E+10	1	-1E+10	1
4901784	158	C	11/01/2019	10:42	-132.787	43.662	0	580.00	0	4.6560	0	36.2830	8	28.739	0	574.558	0	31.5	4	10.3	4	-1E+10	1	-1E+10	1	-1E+10	1	-1E+10	1	-1E+10	1	-1E+10	1
4901784	158	C	11/01/2019	10:42	-132.787	43.662	0	585.50	0	4.6320	0	36.2880	8	28.746	0	579.999	0	30.6	4	10.0	4	-1E+10	1	-1E+10	1	-1E+10	1	-1E+10	1	-1E+10	1	-1E+10	1
4901784	158	C	11/01/2019	10:42	-132.787	43.662	0	590.00	0	4.6150	0	36.2920	8	28.751	0	584.450	0	30.0	4	9.8	4	-1E+10	1	-1E+10	1	-1E+10	1	-1E+10	1	-1E+10	1	-1E+10	1
4901784	158	C	11/01/2019	10:42	-132.787	43.662	0	594.50	0	4.5880	0	36.2970	8	28.758	0	588.901	0	29.5	4	9.6	4	-1E+10	1	-1E+10	1	-1E+10	1	-1E+10	1	-1E+10	1	-1E+10	1
4901784	158	C	11/01/2019	10:42	-132.787	43.662	0	599.90	0	4.5800	0	36.2990	8	28.761	0	594.243	0	29.0	4	9.4	4	-1E+10	1	-1E+10	1	-1E+10	1	-1E+10	1	-1E+10	1	-1E+10	1
4901784	158	C	11/01/2019	10:42	-132.787	43.662	0	605.20	0	4.5550	0	36.3030	8	28.767	0	599.485	0	28.6	4	9.3	4	-1E+10	1	-1E+10	1	-1E+10	1	-1E+10	1	-1E+10	1	-1E+10	1
4901784	158	C	11/01/2019	10:42	-132.787	43.662	0	610.70	0	4.5310	0	36.3030	8	28.770	0	604.925	0	28.1	4	9.1	4	-1E+10	1	-1E+10	1	-1E+10	1	-1E+10	1	-1E+10	1	-1E+10	1
4901784	158	C	11/01/2019	10:42	-132.787	43.662	0	615.20	0	4.5130	0	36.3080	8	28.776	0	609.376	0	27.4	4	8.9	4	-1E+10	1	-1E+10	1	-1E+10	1	-1E+10	1	-1E+10	1	-1E+10	1
4901784	158	C	11/01/2019	10:42	-132.787	43.662	0	619.80	0	4.4910	0	36.3120	8	28.782	0	613.926	0	26.7	4	8.7	4	-1E+10	1	-1E+10	1	-1E+10	1	-1E+10	1	-1E+10	1	-1E+10	1
4901784	158	C	11/01/2019	10:42	-132.787	43.662	0	625.20	0	4.4600	0	36.3150	8	28.787	0	619.267	0	25.8	4	8.4	4	-1E+10	1	-1E+10	1	-1E+10	1	-1E+10	1	-1E+10	1	-1E+10	1
4901784	158	C	11/01/2019	10:42	-132.787	43.662	0	630.60	0	4.4340	0	36.3230	8	28.797	0	624.607	0	24.9	4	8.1	4	-1E+10	1	-1E+10	1	-1E+10	1	-1E+10	1	-1E+10	1	-1E+10	1
4901784	158	C	11/01/2019	10:42	-132.787	43.662	0	635.20	0	4.4200	0	36.3270	8	28.802	0	629.157	0	24.4	4	7.9	4	-1E+10	1	-1E+10	1	-1E+10	1	-1E+10	1	-1E+10	1	-1E+10	1
4901784	158	C	11/01/2019	10:42	-132.787	43.662	0	639.80	0	4.4170	0	36.3280	8	28.803	0	633.706	0	23.9	4	7.8	4	-1E+10	1	-1E+10	1	-1E+10	1	-1E+10	1	-1E+10	1	-1E+10	1
4901784	158	C	11/01/2019	10:42	-132.787	43.662	0	645.40	0	4.4080	0	36.3330	8	28.808	0	639.244	0	22.9	4	7.4	4	-1E+10	1	-1E+10	1	-1E+10	1	-1E+10	1	-1E+10	1	-1E+10	1
4901784	158	C	11/01/2019	10:42	-132.787	43.662	0	650.20	0	4.3960	0	36.3390	8	28.814	0	643.991	0	22.1	4	7.2	4	-1E+10	1	-1E+10	1	-1E+10	1	-1E+10	1	-1E+10	1	-1E+10	1
4901784	158	C	11/01/2019	10:42	-132.787	43.662	0	654.90	0	4.3810	0	36.3440	8	28.820	0	648.639	0	21.4	4	6.9	4	-1E+10	1	-1E+10	1	-1E+10	1	-1E+10	1	-1E+10	1	-1E+10	1
4901784	158	C	11/01/2019	10:42	-132.787	43.662	0	659.60	0	4.3660	0	36.3510	8	28.827	0	653.286	0	20.8	4	6.7	4	-1E+10	1	-1E+10	1	-1E+10	1	-1E+10	1	-1E+10	1	-1E+10	1
4901784	158	C	11/01/2019	10:42	-132.787	43.662	0	664.40	0	4.3540	0	36.3550	8	28.832	0	658.033	0	20.4	4	6.6	4	-1E+10	1	-1E+10	1	-1E+10	1	-1E+10	1	-1E+10	1	-1E+10	1
4901784	158	C	11/01/2019	10:42	-132.787	43.662	0	670.10	0	4.3360	0	36.3570	8	28.835	0	663.669	0	20.0	4	6.5	4	-1E+10	1	-1E+10	1	-1E+10	1	-1E+10	1	-1E+10	1	-1E+10	1
4901784	158	C	11/01/2019	10:42	-132.787	43.662	0	674.80	0	4.3130	0	36.3640	8	28.843	0	668.316	0	19.3	4	6.2	4	-1E+10	1	-1E+10	1	-1E+10	1	-1E+10	1	-1E+10	1	-1E+10	1
4901784	158	C	11/01/2019	10:42	-132.787	43.662	0	679.70	0	4.3000	0	36.3690	8	28.849	0	673.162	0	18.6	4	6.0	4	-1E+10	1	-1E+10	1	-1E+10	1	-1E+10	1	-1E+10	1	-1E+10	1
4901784	158	C	11/01/2019	10:42	-132.787	43.662	0	685.40	0	4.3030	0	36.3770	8	28.855	0	678.797	0	17.8	4	5.7	4	-1E+10	1	-1E+10	1	-1E+10	1	-1E+10	1	-1E+10	1	-1E+10	1
4901784	158	C	11/01/2019	10:42	-132.787	43.662	0	690.20	0	4.3020	0	36.3810	8	28.858	0	683.543	0	17.4	4	5.6	4	-1E+10	1	-1E+10	1	-1E+10	1	-1E+10	1	-1E+10	1	-1E+10	1
4901784	158	C	11/01/2019	10:42	-132.787	43.662	0	695.10	0	4.2910	0	36.3840	8	28.862	0	688.388	0	17.0	4	5.5	4	-1E+10	1	-1E+10	1	-1E+10	1	-1E+10	1	-1E+10	1	-1E+10	1
4901784	158	C	11/01/2019	10:42	-132.787	43.662	0	700.20	0	4.2760	0	36.3880	8	28.867	0	693.430	0	16.7	4	5.4	4	-1E+10	1	-1E+10	1	-1E+10	1	-1E+10	1	-1E+10	1	-1E+10	1
4901784	158	C	11/01/2019	10:42	-132.787	43.662	0	704.90	0	4.2680	0	36.3910	8	28.870	0	698.077	0	16.5	4	5.3	4	-1E+10	1	-1E+10	1	-1E+10	1	-1E+10	1	-1E+10	1	-1E+10	1
4901784	158	C	11/01/2019	10:42	-132.787	43.662	0	709.80	0	4.2240	0	36.3950	8	28.878	0	702.921	0	16.4	4	5.3	4	-1E+10	1	-1E+10	1	-1E+10	1	-1E+10	1	-1E+10	1	-1E+10	1
4901784	158	C	11/01/2019	10:42	-132.787	43.662	0	714.90	0	4.1910	0	36.4000	8	28.886	0	707.963	0	16.1	4	5.2	4	-1E+10	1	-1E+10	1	-1E+10	1	-1E+10	1	-1E+10	1	-1E+10	1
4901784	158	C	11/01/2019	10:42	-132.787	43.662	0	719.90	0	4.1790	0	36.4000	8	28.887	0	712.906	0	15.7	4	5.1	4	-1E+10	1	-1E+10	1	-1E+10	1	-1E+10	1	-1E+10	1	-1E+10	1
4901784	158	C	11/01/2019	10:42	-132.787	43.662	0	725.00	0	4.1620	0	36.4030	8	28.891	0	717.948	0	15.2	4	4.9	4	-1E+10	1	-1E+10	1	-1E+10	1	-1E+10	1	-1E+10	1	-1E+10	1
4901784	158	C	11/01/2019	10:42	-132.787	43.662	0	730.10	0	4.1460	0	36.4090	8	28.898	0	722.989	0	14.9	4	4.8	4	-1E+10	1	-1E+10	1	-1E+10	1	-1E+10	1	-1E+10	1	-1E+10	1
4901784	158	C	11/01/2019	10:42	-132.787	43.662	0	735.20	0	4.1180	0	36.4130	8	28.904	0	728.031	0	14.7	4	4.7	4	-1E+10	1	-1E+10	1	-1E+10	1	-1E+10	1	-1E+10	1	-1E+10	1
4901784	158	C	11/01/2019	10:42	-132.787	43.662	0	740.20	0	4.0940	0	36.4180	8	28.911	0	732.973	0	14.5	4	4.7	4	-1E+10	1	-1E+10	1	-1E+10	1	-1E+10	1	-1E+10	1	-1E+10	1
4901784	158	C	11/01/2019	10:42	-132.787	43.662	0	745.40	0	4.0840	0	36.4200	8	28.914	0	738.113	0	14.3	4	4.6	4	-1E+10	1	-1E+10	1	-1E+10	1	-1E+10	1	-1E+10	1	-1E+10	1
4901784	158	C	11/01/2019	10:42	-132.787	43.662	0	750.50	0	4.0640	0	36.4250	8	28.920	0	743.154	0	14.0	4	4.5	4	-1E+10	1	-1E+10	1	-1E+10	1	-1E+10	1	-1E+10	1	-1E+10	1
4901784	158	C	11/01/2019	10:42	-132.787	43.662	0	755.70	0	4.0450	0	36.4310	8	28.927	0	748.294	0	13.7	4	4.4	4	-1E+10	1	-1E+10	1	-1E+10	1	-1E+10	1	-1E+10	1	-1E+10	1
4901784	158	C	11/01/2019	10:42	-132.787	43.662	0	760.00	0	4.0440	0	36.4340	8	28.929	0	752.544	0	13.5	4	4.3	4	-1E+10	1	-1E+10	1	-1E+10	1	-1E+10	1	-1E+10	1	-1E+10	1
4901784	158	C	11/01/2019	10:42	-132.787	43.662	0	764.30	0	4.0270	0	36.4380	8	28.934	0	756.794	0	13.4	4	4.3	4	-1E+10	1	-1E+10	1	-1E+10	1	-1E+10	1	-1E+10	1	-1E+10	1
4901784	158	C	11/01/2019	10:42	-132.787	43.662	0	769.70	0	4.0130	0	36.4410	8	28.938	0	762.131	0	13.3	4	4.3	4	-1E+10	1	-1E+10	1	-1E+10	1	-1E+10	1	-1E+10	1	-1E+10	1
4901784	158	C	11/01/2019	10:42	-132.787	43.662	0	775.00	0	4.0010	0	36.4420	8	28.940	0	767.370	0	13.2	4	4.2	4	-1E+10	1	-1E+10	1	-1E+10	1	-1E+10	1	-1E+10	1	-1E+10	1
4901784	158	C	11/01/2019	10:42	-132.787	43.662	0	780.30	0	3.9830	0	36.4440	8	28.944	0	772.608	0	13.1	4	4.2	4	-1E+10	1	-1E+10	1	-1E+10	1	-1E+10	1	-1E+10	1	-1E+10	1
4901784	158	C	11/01/2019	10:42	-132.787	43.662	0	785.60	0	3.9540	0	36.4500	8	28.952	0	777.845	0	12.9	4	4.1	4	-1E+10	1	-1E+10	1	-1E+10	1	-1E+10	1	-1E+10	1	-1E+10	1
4901784	158	C	11/01/2019	10:42	-132.787	43.662	0	789.90	0	3.9460	0	36.4510	8	28.954	0	782.095	0	12.7	4	4.1	4	-1E+10	1	-1E+10	1	-1E+10	1	-1E+10	1	-1E+10	1	-1E+10	1
4901784	158	C	11/01/2019	10:42	-132.787	43.662	0	794.40	0	3.9260	0	36.4560	8	28.960	0	786.542	0	12.6	4	4.0	4	-1E+10	1	-1E+10	1	-1E+10	1	-1E+10	1	-1E+10	1	-1E+10	1
4901784	158	C	11/01/2019	10:42	-132.787	43.662	0	799.70	0	3.9100	0	36.4590	8	28.964	0	791.780	0	12.4	4	4.0	4	-1E+10	1	-1E+10	1	-1E+10	1	-1E+10	1	-1E+10	1	-1E+10	1
4901784	158	C	11/01/2019	10:42	-132.787	43.662	0	805.10	0	3.8940	0	36.4650	8	28.970	0	797.116	0	12.1	4	3.9	4	-1E+10	1	-1E+10	1	-1E+10	1	-1E+10	1	-1E+10	1	-1E+10	1
4901784	158	C	11/01/2019	10:42	-132.787	43.662	0	810.50	0	3.8820	0	36.4690	8	28.975	0	802.452	0	11.9	4	3.8	4	-1E+10	1	-1E+10	1	-1E+10	1	-1E+10	1	-1E+10	1	-1E+10	1
4901784	158	C	11/01/2019	10:42	-132.787	43.662	0	815.00	0	3.8750	0	36.4730	8	28.979	0	806.898	0	11.8	4	3.8	4	-1E+10	1	-1E+10	1	-1E+10	1	-1E+10	1	-1E+10	1	-1E+10	1
4901784	158	C	11/01/2019	10:42	-132.787	43.662	0	819.60	0	3.8580	0	36.4760	8	28.983	0	811.444	0	11.7	4	3.7	4	-1E+10	1	-1E+10	1	-1E+10	1	-1E+10	1	-1E+10	1	-1E+10	1
4901784	158	C	11/01/2019	10:42	-132.787	43.662	0	825.10	0	3.8380	0	36.4820	8	28.990	0	816.878	0	11.5	4	3.7	4	-1E+10	1	-1E+10	1	-1E+10	1	-1E+10	1	-1E+10	1	-1E+10	1
4901784	158	C	11/01/2019	10:42	-132.787	43.662	0	830.50	0	3.8270	0	36.4860	8	28.995	0	822.214	0	11.4	4	3.6	4	-1E+10	1	-1E+10	1	-1E+10	1	-1E+10	1	-1E+10	1	-1E+10	1
4901784	158	C	11/01/2019	10:42	-132.787	43.662	0	835.00	0	3.8160	0	36.4900	8	28.999	0	826.660	0	11.3	4	3.6	4	-1E+10	1	-1E+10	1	-1E+10	1	-1E+10	1	-1E+10	1	-1E+10	1
4901784	158	C	11/01/2019	10:42	-132.787	43.662	0	839.60	0	3.8110	0	36.4910	8	29.000	0	831.205	0	11.2	4	3.6	4	-1E+10	1	-1E+10	1	-1E+10	1	-1E+10	1	-1E+10	1	-1E+10	1
4901784	158	C	11/01/2019	10:42	-132.787	43.662	0	845.30	0	3.7980	0	36.4940	8	29.004	0	836.837	0	11.1	4	3.6	4	-1E+10	1	-1E+10	1	-1E+10	1	-1E+10	1	-1E+10	1	-1E+10	1
4901784	158	C	11/01/2019	10:42	-132.787	43.662	0	850.00	0	3.7890	0	36.4970	8	29.007	0	841.480	0	11.1	4	3.5	4	-1E+10	1	-1E+10	1	-1E+10	1	-1E+10	1	-1E+10	1	-1E+10	1
4901784	158	C	11/01/2019	10:42	-132.787	43.662	0	854.70	0	3.7820	0	36.4990	8	29.010	0	846.123	0	11.0	4	3.5	4	-1E+10	1	-1E+10	1	-1E+10	1	-1E+10	1	-1E+10	1	-1E+10	1
4901784	158	C	11/01/2019	10:42	-132.787	43.662	0	860.30	0	3.7760	0	36.5010	8	29.012	0	851.656	0	10.9	4	3.5	4	-1E+10	1	-1E+10	1	-1E+10	1	-1E+10	1	-1E+10	1	-1E+10	1
4901784	158	C	11/01/2019	10:42	-132.787	43.662	0	865.00	0	3.7660	0	36.5030	8	29.015	0	856.299	0	10.9	4	3.5	4	-1E+10	1	-1E+10	1	-1E+10	1	-1E+10	1	-1E+10	1	-1E+10	1
4901784	158	C	11/01/2019	10:42	-132.787	43.662	0	869.70	0	3.7530	0	36.5070	8	29.019	0	860.942	0	10.8	4	3.4	4	-1E+10	1	-1E+10	1	-1E+10	1	-1E+10	1	-1E+10	1	-1E+10	1
4901784	158	C	11/01/2019	10:42	-132.787	43.662	0	875.50	0	3.7440	0	36.5100	8	29.023	0	866.672	0	10.7	4	3.4	4	-1E+10	1	-1E+10	1	-1E+10	1	-1E+10	1	-1E+10	1	-1E+10	1
4901784	158	C	11/01/2019	10:42	-132.787	43.662	0	880.90	0	3.7310	0	36.5150	8	29.028	0	872.006	0	10.6	4	3.4	4	-1E+10	1	-1E+10	1	-1E+10	1	-1E+10	1	-1E+10	1	-1E+10	1
4901784	158	C	11/01/2019	10:42	-132.787	43.662	0	885.20	0	3.7170	0	36.5200	8	29.034	0	876.254	0	10.5	4	3.4	4	-1E+10	1	-1E+10	1	-1E+10	1	-1E+10	1	-1E+10	1	-1E+10	1
4901784	158	C	11/01/2019	10:42	-132.787	43.662	0	890.10	0	3.7040	0	36.5240	8	29.038	0	881.094	0	10.5	4	3.3	4	-1E+10	1	-1E+10	1	-1E+10	1	-1E+10	1	-1E+10	1	-1E+10	1
4901784	158	C	11/01/2019	10:42	-132.787	43.662	0	895.00	0	3.6950	0	36.5280	8	29.042	0	885.934	0	10.4	4	3.3	4	-1E+10	1	-1E+10	1	-1E+10	1	-1E+10	1	-1E+10	1	-1E+10	1
4901784	158	C	11/01/2019	10:42	-132.787	43.662	0	899.90	0	3.6870	0	36.5310	8	29.046	0	890.774	0	10.4	4	3.3	4	-1E+10	1	-1E+10	1	-1E+10	1	-1E+10	1	-1E+10	1	-1E+10	1
4901784	158	C	11/01/2019	10:42	-132.787	43.662	0	904.90	0	3.6830	0	36.5330	8	29.048	0	895.712	0	10.3	4	3.3	4	-1E+10	1	-1E+10	1	-1E+10	1	-1E+10	1	-1E+10	1	-1E+10	1
4901784	158	C	11/01/2019	10:42	-132.787	43.662	0	910.00	0	3.6730	0	36.5360	8	29.051	0	900.750	0	10.3	4	3.3	4	-1E+10	1	-1E+10	1	-1E+10	1	-1E+10	1	-1E+10	1	-1E+10	1
4901784	158	C	11/01/2019	10:42	-132.787	43.662	0	915.10	0	3.6580	0	36.5400	8	29.056	0	905.787	0	10.3	4	3.3	4	-1E+10	1	-1E+10	1	-1E+10	1	-1E+10	1	-1E+10	1	-1E+10	1
4901784	158	C	11/01/2019	10:42	-132.787	43.662	0	920.20	0	3.6480	0	36.5420	8	29.059	0	910.824	0	10.3	4	3.3	4	-1E+10	1	-1E+10	1	-1E+10	1	-1E+10	1	-1E+10	1	-1E+10	1
4901784	158	C	11/01/2019	10:42	-132.787	43.662	0	925.30	0	3.6450	0	36.5450	8	29.061	0	915.861	0	10.3	4	3.3	4	-1E+10	1	-1E+10	1	-1E+10	1	-1E+10	1	-1E+10	1	-1E+10	1
4901784	158	C	11/01/2019	10:42	-132.787	43.662	0	930.50	0	3.6310	0	36.5480	8	29.065	0	920.996	0	10.2	4	3.3	4	-1E+10	1	-1E+10	1	-1E+10	1	-1E+10	1	-1E+10	1	-1E+10	1
4901784	158	C	11/01/2019	10:42	-132.787	43.662	0	935.70	0	3.6170	0	36.5510	8	29.069	0	926.131	0	10.2	4	3.3	4	-1E+10	1	-1E+10	1	-1E+10	1	-1E+10	1	-1E+10	1	-1E+10	1
4901784	158	C	11/01/2019	10:42	-132.787	43.662	0	940.00	0	3.6090	0	36.5540	8	29.072	0	930.378	0	10.2	4	3.3	4	-1E+10	1	-1E+10	1	-1E+10	1	-1E+10	1	-1E+10	1	-1E+10	1
4901784	158	C	11/01/2019	10:42	-132.787	43.662	0	944.30	0	3.6060	0	36.5560	8	29.074	0	934.624	0	10.2	4	3.3	4	-1E+10	1	-1E+10	1	-1E+10	1	-1E+10	1	-1E+10	1	-1E+10	1
4901784	158	C	11/01/2019	10:42	-132.787	43.662	0	949.50	0	3.5960	0	36.5590	8	29.078	0	939.759	0	10.2	4	3.3	4	-1E+10	1	-1E+10	1	-1E+10	1	-1E+10	1	-1E+10	1	-1E+10	1
4901784	158	C	11/01/2019	10:42	-132.787	43.662	0	954.70	0	3.5840	0	36.5620	8	29.081	0	944.894	0	10.2	4	3.3	4	-1E+10	1	-1E+10	1	-1E+10	1	-1E+10	1	-1E+10	1	-1E+10	1
4901784	158	C	11/01/2019	10:42	-132.787	43.662	0	960.00	0	3.5710	0	36.5640	8	29.084	0	950.128	0	10.3	4	3.3	4	-1E+10	1	-1E+10	1	-1E+10	1	-1E+10	1	-1E+10	1	-1E+10	1
4901784	158	C	11/01/2019	10:42	-132.787	43.662	0	965.30	0	3.5590	0	36.5670	8	29.088	0	955.361	0	10.3	4	3.3	4	-1E+10	1	-1E+10	1	-1E+10	1	-1E+10	1	-1E+10	1	-1E+10	1
4901784	158	C	11/01/2019	10:42	-132.787	43.662	0	970.60	0	3.5380	0	36.5710	8	29.094	0	960.594	0	10.4	4	3.3	4	-1E+10	1	-1E+10	1	-1E+10	1	-1E+10	1	-1E+10	1	-1E+10	1
4901784	158	C	11/01/2019	10:42	-132.787	43.662	0	975.00	0	3.5310	0	36.5740	8	29.097	0	964.939	0	10.4	4	3.3	4	-1E+10	1	-1E+10	1	-1E+10	1	-1E+10	1	-1E+10	1	-1E+10	1
4901784	158	C	11/01/2019	10:42	-132.787	43.662	0	979.40	0	3.5230	0	36.5750	8	29.098	0	969.283	0	10.4	4	3.3	4	-1E+10	1	-1E+10	1	-1E+10	1	-1E+10	1	-1E+10	1	-1E+10	1
4901784	158	C	11/01/2019	10:42	-132.787	43.662	0	984.80	0	3.5090	0	36.5770	8	29.101	0	974.615	0	10.4	4	3.3	4	-1E+10	1	-1E+10	1	-1E+10	1	-1E+10	1	-1E+10	1	-1E+10	1
4901784	158	C	11/01/2019	10:42	-132.787	43.662	0	990.20	0	3.4980	0	36.5800	8	29.105	0	979.947	0	10.5	4	3.3	4	-1E+10	1	-1E+10	1	-1E+10	1	-1E+10	1	-1E+10	1	-1E+10	1
4901784	158	C	11/01/2019	10:42	-132.787	43.662	0	994.80	0	3.4880	0	36.5820	8	29.108	0	984.488	0	10.5	4	3.3	4	-1E+10	1	-1E+10	1	-1E+10	1	-1E+10	1	-1E+10	1	-1E+10	1
4901784	158	C	11/01/2019	10:42	-132.787	43.662	0	999.40	0	3.4790	0	36.5840	8	29.110	0	989.030	0	10.5	4	3.3	4	-1E+10	1	-1E+10	1	-1E+10	1	-1E+10	1	-1E+10	1	-1E+10	1
4901784	158	C	11/01/2019	10:42	-132.787	43.662	0	1005.60	0	3.4690	0	36.5850	8	29.112	0	995.151	0	10.5	4	3.3	4	-1E+10	1	-1E+10	1	-1E+10	1	-1E+10	1	-1E+10	1	-1E+10	1
4901784	158	C	11/01/2019	10:42	-132.787	43.662	0	1010.50	0	3.4630	0	36.5880	8	29.115	0	999.988	0	10.6	4	3.4	4	-1E+10	1	-1E+10	1	-1E+10	1	-1E+10	1	-1E+10	1	-1E+10	1
4901784	158	C	11/01/2019	10:42	-132.787	43.662	0	1015.20	0	3.4580	0	36.5900	8	29.117	0	1004.628	0	10.6	4	3.4	4	-1E+10	1	-1E+10	1	-1E+10	1	-1E+10	1	-1E+10	1	-1E+10	1
4901784	158	C	11/01/2019	10:42	-132.787	43.662	0	1020.00	0	3.4530	0	36.5910	8	29.119	0	1009.366	0	10.6	4	3.4	4	-1E+10	1	-1E+10	1	-1E+10	1	-1E+10	1	-1E+10	1	-1E+10	1
4901784	158	C	11/01/2019	10:42	-132.787	43.662	0	1024.80	0	3.4450	0	36.5930	8	29.121	0	1014.105	0	10.7	4	3.4	4	-1E+10	1	-1E+10	1	-1E+10	1	-1E+10	1	-1E+10	1	-1E+10	1
4901784	158	C	11/01/2019	10:42	-132.787	43.662	0	1029.60	0	3.4320	0	36.5960	8	29.125	0	1018.843	0	10.7	4	3.4	4	-1E+10	1	-1E+10	1	-1E+10	1	-1E+10	1	-1E+10	1	-1E+10	1
4901784	158	C	11/01/2019	10:42	-132.787	43.662	0	1034.50	0	3.4260	0	36.5970	8	29.126	0	1023.680	0	10.8	4	3.4	4	-1E+10	1	-1E+10	1	-1E+10	1	-1E+10	1	-1E+10	1	-1E+10	1
4901784	158	C	11/01/2019	10:42	-132.787	43.662	0	1039.40	0	3.4130	0	36.6000	8	29.130	0	1028.517	0	10.8	4	3.4	4	-1E+10	1	-1E+10	1	-1E+10	1	-1E+10	1	-1E+10	1	-1E+10	1
4901784	158	C	11/01/2019	10:42	-132.787	43.662	0	1044.40	0	3.3970	0	36.6020	8	29.133	0	1033.452	0	10.9	4	3.5	4	-1E+10	1	-1E+10	1	-1E+10	1	-1E+10	1	-1E+10	1	-1E+10	1
4901784	158	C	11/01/2019	10:42	-132.787	43.662	0	1049.40	0	3.3830	0	36.6050	8	29.137	0	1038.387	0	11.0	4	3.5	4	-1E+10	1	-1E+10	1	-1E+10	1	-1E+10	1	-1E+10	1	-1E+10	1
4901784	158	C	11/01/2019	10:42	-132.787	43.662	0	1054.30	0	3.3690	0	36.6090	8	29.142	0	1043.224	0	11.1	4	3.5	4	-1E+10	1	-1E+10	1	-1E+10	1	-1E+10	1	-1E+10	1	-1E+10	1
4901784	158	C	11/01/2019	10:42	-132.787	43.662	0	1059.30	0	3.3580	0	36.6120	8	29.145	0	1048.159	0	11.1	4	3.5	4	-1E+10	1	-1E+10	1	-1E+10	1	-1E+10	1	-1E+10	1	-1E+10	1
4901784	158	C	11/01/2019	10:42	-132.787	43.662	0	1064.40	0	3.3480	0	36.6140	8	29.148	0	1053.192	0	11.2	4	3.5	4	-1E+10	1	-1E+10	1	-1E+10	1	-1E+10	1	-1E+10	1	-1E+10	1
4901784	158	C	11/01/2019	10:42	-132.787	43.662	0	1069.40	0	3.3350	0	36.6160	8	29.151	0	1058.127	0	11.3	4	3.6	4	-1E+10	1	-1E+10	1	-1E+10	1	-1E+10	1	-1E+10	1	-1E+10	1
4901784	158	C	11/01/2019	10:42	-132.787	43.662	0	1074.50	0	3.3320	0	36.6170	8	29.152	0	1063.160	0	11.3	4	3.6	4	-1E+10	1	-1E+10	1	-1E+10	1	-1E+10	1	-1E+10	1	-1E+10	1
4901784	158	C	11/01/2019	10:42	-132.787	43.662	0	1079.60	0	3.3250	0	36.6190	8	29.154	0	1068.193	0	11.3	4	3.6	4	-1E+10	1	-1E+10	1	-1E+10	1	-1E+10	1	-1E+10	1	-1E+10	1
4901784	158	C	11/01/2019	10:42	-132.787	43.662	0	1084.70	0	3.3170	0	36.6210	8	29.157	0	1073.226	0	11.4	4	3.6	4	-1E+10	1	-1E+10	1	-1E+10	1	-1E+10	1	-1E+10	1	-1E+10	1
4901784	158	C	11/01/2019	10:42	-132.787	43.662	0	1089.80	0	3.3130	0	36.6220	8	29.158	0	1078.259	0	11.4	4	3.6	4	-1E+10	1	-1E+10	1	-1E+10	1	-1E+10	1	-1E+10	1	-1E+10	1
4901784	158	C	11/01/2019	10:42	-132.787	43.662	0	1095.00	0	3.3080	0	36.6230	8	29.159	0	1083.391	0	11.5	4	3.6	4	-1E+10	1	-1E+10	1	-1E+10	1	-1E+10	1	-1E+10	1	-1E+10	1
4901784	158	C	11/01/2019	10:42	-132.787	43.662	0	1100.20	0	3.3020	0	36.6240	8	29.161	0	1088.522	0	11.5	4	3.6	4	-1E+10	1	-1E+10	1	-1E+10	1	-1E+10	1	-1E+10	1	-1E+10	1
4901784	158	C	11/01/2019	10:42	-132.787	43.662	0	1105.30	0	3.2900	0	36.6260	8	29.163	0	1093.555	0	11.6	4	3.7	4	-1E+10	1	-1E+10	1	-1E+10	1	-1E+10	1	-1E+10	1	-1E+10	1
4901784	158	C	11/01/2019	10:42	-132.787	43.662	0	1110.40	0	3.2820	0	36.6270	8	29.165	0	1098.587	0	11.7	4	3.7	4	-1E+10	1	-1E+10	1	-1E+10	1	-1E+10	1	-1E+10	1	-1E+10	1
4901784	158	C	11/01/2019	10:42	-132.787	43.662	0	1114.70	0	3.2720	0	36.6290	8	29.168	0	1102.830	0	11.8	4	3.7	4	-1E+10	1	-1E+10	1	-1E+10	1	-1E+10	1	-1E+10	1	-1E+10	1
4901784	158	C	11/01/2019	10:42	-132.787	43.662	0	1119.60	0	3.2640	0	36.6310	8	29.170	0	1107.665	0	11.8	4	3.7	4	-1E+10	1	-1E+10	1	-1E+10	1	-1E+10	1	-1E+10	1	-1E+10	1
4901784	158	C	11/01/2019	10:42	-132.787	43.662	0	1125.40	0	3.2510	0	36.6330	8	29.173	0	1113.388	0	12.0	4	3.8	4	-1E+10	1	-1E+10	1	-1E+10	1	-1E+10	1	-1E+10	1	-1E+10	1
4901784	158	C	11/01/2019	10:42	-132.787	43.662	0	1130.20	0	3.2410	0	36.6350	8	29.176	0	1118.124	0	12.1	4	3.8	4	-1E+10	1	-1E+10	1	-1E+10	1	-1E+10	1	-1E+10	1	-1E+10	1
4901784	158	C	11/01/2019	10:42	-132.787	43.662	0	1134.90	0	3.2240	0	36.6380	8	29.180	0	1122.761	0	12.2	4	3.8	4	-1E+10	1	-1E+10	1	-1E+10	1	-1E+10	1	-1E+10	1	-1E+10	1
4901784	158	C	11/01/2019	10:42	-132.787	43.662	0	1140.60	0	3.2140	0	36.6400	8	29.182	0	1128.385	0	12.3	4	3.9	4	-1E+10	1	-1E+10	1	-1E+10	1	-1E+10	1	-1E+10	1	-1E+10	1
4901784	158	C	11/01/2019	10:42	-132.787	43.662	0	1145.30	0	3.2100	0	36.6410	8	29.184	0	1133.022	0	12.4	4	3.9	4	-1E+10	1	-1E+10	1	-1E+10	1	-1E+10	1	-1E+10	1	-1E+10	1
4901784	158	C	11/01/2019	10:42	-132.787	43.662	0	1150.10	0	3.2020	0	36.6430	8	29.186	0	1137.757	0	12.5	4	3.9	4	-1E+10	1	-1E+10	1	-1E+10	1	-1E+10	1	-1E+10	1	-1E+10	1
4901784	158	C	11/01/2019	10:42	-132.787	43.662	0	1154.90	0	3.1940	0	36.6450	8	29.189	0	1142.493	0	12.5	4	4.0	4	-1E+10	1	-1E+10	1	-1E+10	1	-1E+10	1	-1E+10	1	-1E+10	1
4901784	158	C	11/01/2019	10:42	-132.787	43.662	0	1159.80	0	3.1910	0	36.6460	8	29.190	0	1147.327	0	12.6	4	4.0	4	-1E+10	1	-1E+10	1	-1E+10	1	-1E+10	1	-1E+10	1	-1E+10	1
4901784	158	C	11/01/2019	10:42	-132.787	43.662	0	1164.70	0	3.1820	0	36.6470	8	29.191	0	1152.161	0	12.8	4	4.0	4	-1E+10	1	-1E+10	1	-1E+10	1	-1E+10	1	-1E+10	1	-1E+10	1
4901784	158	C	11/01/2019	10:42	-132.787	43.662	0	1169.50	0	3.1710	0	36.6500	8	29.195	0	1156.896	0	12.9	4	4.1	4	-1E+10	1	-1E+10	1	-1E+10	1	-1E+10	1	-1E+10	1	-1E+10	1
4901784	158	C	11/01/2019	10:42	-132.787	43.662	0	1175.30	0	3.1640	0	36.6500	8	29.196	0	1162.617	0	13.0	4	4.1	4	-1E+10	1	-1E+10	1	-1E+10	1	-1E+10	1	-1E+10	1	-1E+10	1
4901784	158	C	11/01/2019	10:42	-132.787	43.662	0	1180.10	0	3.1510	0	36.6530	8	29.199	0	1167.352	0	13.2	4	4.2	4	-1E+10	1	-1E+10	1	-1E+10	1	-1E+10	1	-1E+10	1	-1E+10	1
4901784	158	C	11/01/2019	10:42	-132.787	43.662	0	1185.00	0	3.1400	0	36.6550	8	29.202	0	1172.186	0	13.3	4	4.2	4	-1E+10	1	-1E+10	1	-1E+10	1	-1E+10	1	-1E+10	1	-1E+10	1
4901784	158	C	11/01/2019	10:42	-132.787	43.662	0	1189.80	0	3.1270	0	36.6580	8	29.206	0	1176.920	0	13.5	4	4.2	4	-1E+10	1	-1E+10	1	-1E+10	1	-1E+10	1	-1E+10	1	-1E+10	1
4901784	158	C	11/01/2019	10:42	-132.787	43.662	0	1194.70	0	3.1210	0	36.6590	8	29.207	0	1181.753	0	13.6	4	4.3	4	-1E+10	1	-1E+10	1	-1E+10	1	-1E+10	1	-1E+10	1	-1E+10	1
4901784	158	C	11/01/2019	10:42	-132.787	43.662	0	1200.50	0	3.1130	0	36.6610	8	29.210	0	1187.474	0	13.7	4	4.3	4	-1E+10	1	-1E+10	1	-1E+10	1	-1E+10	1	-1E+10	1	-1E+10	1
4901784	158	C	11/01/2019	10:42	-132.787	43.662	0	1205.40	0	3.1080	0	36.6620	8	29.211	0	1192.307	0	13.9	4	4.4	4	-1E+10	1	-1E+10	1	-1E+10	1	-1E+10	1	-1E+10	1	-1E+10	1
4901784	158	C	11/01/2019	10:42	-132.787	43.662	0	1210.40	0	3.0960	0	36.6640	8	29.214	0	1197.239	0	14.0	4	4.4	4	-1E+10	1	-1E+10	1	-1E+10	1	-1E+10	1	-1E+10	1	-1E+10	1
4901784	158	C	11/01/2019	10:42	-132.787	43.662	0	1215.40	0	3.0860	0	36.6660	8	29.216	0	1202.170	0	14.1	4	4.5	4	-1E+10	1	-1E+10	1	-1E+10	1	-1E+10	1	-1E+10	1	-1E+10	1
4901784	158	C	11/01/2019	10:42	-132.787	43.662	0	1220.30	0	3.0820	0	36.6670	8	29.218	0	1207.003	0	14.2	4	4.5	4	-1E+10	1	-1E+10	1	-1E+10	1	-1E+10	1	-1E+10	1	-1E+10	1
4901784	158	C	11/01/2019	10:42	-132.787	43.662	0	1225.30	0	3.0730	0	36.6680	8	29.219	0	1211.934	0	14.4	4	4.5	4	-1E+10	1	-1E+10	1	-1E+10	1	-1E+10	1	-1E+10	1	-1E+10	1
4901784	158	C	11/01/2019	10:42	-132.787	43.662	0	1230.30	0	3.0640	0	36.6700	8	29.222	0	1216.865	0	14.5	4	4.6	4	-1E+10	1	-1E+10	1	-1E+10	1	-1E+10	1	-1E+10	1	-1E+10	1
4901784	158	C	11/01/2019	10:42	-132.787	43.662	0	1235.10	0	3.0580	0	36.6710	8	29.223	0	1221.598	0	14.6	4	4.6	4	-1E+10	1	-1E+10	1	-1E+10	1	-1E+10	1	-1E+10	1	-1E+10	1
4901784	158	C	11/01/2019	10:42	-132.787	43.662	0	1240.10	0	3.0470	0	36.6720	8	29.225	0	1226.529	0	14.8	4	4.6	4	-1E+10	1	-1E+10	1	-1E+10	1	-1E+10	1	-1E+10	1	-1E+10	1
4901784	158	C	11/01/2019	10:42	-132.787	43.662	0	1245.10	0	3.0330	0	36.6750	8	29.229	0	1231.460	0	14.9	4	4.7	4	-1E+10	1	-1E+10	1	-1E+10	1	-1E+10	1	-1E+10	1	-1E+10	1
4901784	158	C	11/01/2019	10:42	-132.787	43.662	0	1249.80	0	3.0270	0	36.6760	8	29.230	0	1236.095	0	15.0	4	4.7	4	-1E+10	1	-1E+10	1	-1E+10	1	-1E+10	1	-1E+10	1	-1E+10	1
4901784	158	C	11/01/2019	10:42	-132.787	43.662	0	1255.20	0	3.0230	0	36.6760	8	29.231	0	1241.419	0	15.1	4	4.8	4	-1E+10	1	-1E+10	1	-1E+10	1	-1E+10	1	-1E+10	1	-1E+10	1
4901784	158	C	11/01/2019	10:42	-132.787	43.662	0	1259.80	0	3.0110	0	36.6780	8	29.233	0	1245.955	0	15.3	4	4.8	4	-1E+10	1	-1E+10	1	-1E+10	1	-1E+10	1	-1E+10	1	-1E+10	1
4901784	158	C	11/01/2019	10:42	-132.787	43.662	0	1264.40	0	3.0060	0	36.6790	8	29.235	0	1250.491	0	15.4	4	4.8	4	-1E+10	1	-1E+10	1	-1E+10	1	-1E+10	1	-1E+10	1	-1E+10	1
4901784	158	C	11/01/2019	10:42	-132.787	43.662	0	1269.90	0	2.9980	0	36.6800	8	29.236	0	1255.914	0	15.5	4	4.9	4	-1E+10	1	-1E+10	1	-1E+10	1	-1E+10	1	-1E+10	1	-1E+10	1
4901784	158	C	11/01/2019	10:42	-132.787	43.662	0	1275.30	0	2.9830	0	36.6820	8	29.239	0	1261.239	0	15.7	4	4.9	4	-1E+10	1	-1E+10	1	-1E+10	1	-1E+10	1	-1E+10	1	-1E+10	1
4901784	158	C	11/01/2019	10:42	-132.787	43.662	0	1280.70	0	2.9700	0	36.6830	8	29.242	0	1266.563	0	15.9	4	5.0	4	-1E+10	1	-1E+10	1	-1E+10	1	-1E+10	1	-1E+10	1	-1E+10	1
4901784	158	C	11/01/2019	10:42	-132.787	43.662	0	1285.20	0	2.9580	0	36.6850	8	29.244	0	1271.000	0	16.1	4	5.0	4	-1E+10	1	-1E+10	1	-1E+10	1	-1E+10	1	-1E+10	1	-1E+10	1
4901784	158	C	11/01/2019	10:42	-132.787	43.662	0	1290.00	0	2.9430	0	36.6870	8	29.247	0	1275.732	0	16.3	4	5.1	4	-1E+10	1	-1E+10	1	-1E+10	1	-1E+10	1	-1E+10	1	-1E+10	1
4901784	158	C	11/01/2019	10:42	-132.787	43.662	0	1295.10	0	2.9260	0	36.6900	8	29.251	0	1280.760	0	16.5	4	5.2	4	-1E+10	1	-1E+10	1	-1E+10	1	-1E+10	1	-1E+10	1	-1E+10	1
4901784	158	C	11/01/2019	10:42	-132.787	43.662	0	1299.90	0	2.9190	0	36.6910	8	29.253	0	1285.492	0	16.7	4	5.2	4	-1E+10	1	-1E+10	1	-1E+10	1	-1E+10	1	-1E+10	1	-1E+10	1
4901784	158	C	11/01/2019	10:42	-132.787	43.662	0	1304.70	0	2.9030	0	36.6920	8	29.255	0	1290.224	0	17.0	4	5.3	4	-1E+10	1	-1E+10	1	-1E+10	1	-1E+10	1	-1E+10	1	-1E+10	1
4901784	158	C	11/01/2019	10:42	-132.787	43.662	0	1309.60	0	2.8910	0	36.6950	8	29.259	0	1295.055	0	17.2	4	5.4	4	-1E+10	1	-1E+10	1	-1E+10	1	-1E+10	1	-1E+10	1	-1E+10	1
4901784	158	C	11/01/2019	10:42	-132.787	43.662	0	1314.50	0	2.8800	0	36.6960	8	29.261	0	1299.886	0	17.4	4	5.4	4	-1E+10	1	-1E+10	1	-1E+10	1	-1E+10	1	-1E+10	1	-1E+10	1
4901784	158	C	11/01/2019	10:42	-132.787	43.662	0	1319.40	0	2.8730	0	36.6980	8	29.263	0	1304.716	0	17.5	4	5.5	4	-1E+10	1	-1E+10	1	-1E+10	1	-1E+10	1	-1E+10	1	-1E+10	1
4901784	158	C	11/01/2019	10:42	-132.787	43.662	0	1325.00	0	2.8660	0	36.6980	8	29.264	0	1310.236	0	17.7	4	5.5	4	-1E+10	1	-1E+10	1	-1E+10	1	-1E+10	1	-1E+10	1	-1E+10	1
4901784	158	C	11/01/2019	10:42	-132.787	43.662	0	1330.80	0	2.8560	0	36.7000	8	29.266	0	1315.953	0	18.0	4	5.6	4	-1E+10	1	-1E+10	1	-1E+10	1	-1E+10	1	-1E+10	1	-1E+10	1
4901784	158	C	11/01/2019	10:42	-132.787	43.662	0	1335.80	0	2.8420	0	36.7020	8	29.269	0	1320.882	0	18.2	4	5.7	4	-1E+10	1	-1E+10	1	-1E+10	1	-1E+10	1	-1E+10	1	-1E+10	1
4901784	158	C	11/01/2019	10:42	-132.787	43.662	0	1340.00	0	2.8370	0	36.7030	8	29.271	0	1325.022	0	18.4	4	5.7	4	-1E+10	1	-1E+10	1	-1E+10	1	-1E+10	1	-1E+10	1	-1E+10	1
4901784	158	C	11/01/2019	10:42	-132.787	43.662	0	1344.20	0	2.8300	0	36.7040	8	29.272	0	1329.162	0	18.6	4	5.8	4	-1E+10	1	-1E+10	1	-1E+10	1	-1E+10	1	-1E+10	1	-1E+10	1
4901784	158	C	11/01/2019	10:42	-132.787	43.662	0	1349.40	0	2.8180	0	36.7060	8	29.275	0	1334.287	0	18.7	4	5.9	4	-1E+10	1	-1E+10	1	-1E+10	1	-1E+10	1	-1E+10	1	-1E+10	1
4901784	158	C	11/01/2019	10:42	-132.787	43.662	0	1354.50	0	2.8140	0	36.7060	8	29.275	0	1339.314	0	18.9	4	5.9	4	-1E+10	1	-1E+10	1	-1E+10	1	-1E+10	1	-1E+10	1	-1E+10	1
4901784	158	C	11/01/2019	10:42	-132.787	43.662	0	1359.70	0	2.8070	0	36.7070	8	29.277	0	1344.439	0	19.1	4	6.0	4	-1E+10	1	-1E+10	1	-1E+10	1	-1E+10	1	-1E+10	1	-1E+10	1
4901784	158	C	11/01/2019	10:42	-132.787	43.662	0	1365.00	0	2.7970	0	36.7080	8	29.278	0	1349.662	0	19.3	4	6.0	4	-1E+10	1	-1E+10	1	-1E+10	1	-1E+10	1	-1E+10	1	-1E+10	1
4901784	158	C	11/01/2019	10:42	-132.787	43.662	0	1370.20	0	2.7890	0	36.7100	8	29.281	0	1354.787	0	19.5	4	6.1	4	-1E+10	1	-1E+10	1	-1E+10	1	-1E+10	1	-1E+10	1	-1E+10	1
4901784	158	C	11/01/2019	10:42	-132.787	43.662	0	1375.50	0	2.7810	0	36.7110	8	29.282	0	1360.011	0	19.7	4	6.2	4	-1E+10	1	-1E+10	1	-1E+10	1	-1E+10	1	-1E+10	1	-1E+10	1
4901784	158	C	11/01/2019	10:42	-132.787	43.662	0	1380.00	0	2.7760	0	36.7110	8	29.283	0	1364.445	0	19.9	4	6.2	4	-1E+10	1	-1E+10	1	-1E+10	1	-1E+10	1	-1E+10	1	-1E+10	1
4901784	158	C	11/01/2019	10:42	-132.787	43.662	0	1384.50	0	2.7670	0	36.7130	8	29.285	0	1368.880	0	20.1	4	6.3	4	-1E+10	1	-1E+10	1	-1E+10	1	-1E+10	1	-1E+10	1	-1E+10	1
4901784	158	C	11/01/2019	10:42	-132.787	43.662	0	1390.60	0	2.7570	0	36.7140	8	29.287	0	1374.891	0	20.4	4	6.4	4	-1E+10	1	-1E+10	1	-1E+10	1	-1E+10	1	-1E+10	1	-1E+10	1
4901784	158	C	11/01/2019	10:42	-132.787	43.662	0	1395.60	0	2.7450	0	36.7160	8	29.290	0	1379.819	0	20.6	4	6.4	4	-1E+10	1	-1E+10	1	-1E+10	1	-1E+10	1	-1E+10	1	-1E+10	1
4901784	158	C	11/01/2019	10:42	-132.787	43.662	0	1400.30	0	2.7400	0	36.7170	8	29.291	0	1384.450	0	20.8	4	6.5	4	-1E+10	1	-1E+10	1	-1E+10	1	-1E+10	1	-1E+10	1	-1E+10	1
4901784	158	C	11/01/2019	10:42	-132.787	43.662	0	1405.10	0	2.7340	0	36.7170	8	29.292	0	1389.180	0	21.0	4	6.5	4	-1E+10	1	-1E+10	1	-1E+10	1	-1E+10	1	-1E+10	1	-1E+10	1
4901784	158	C	11/01/2019	10:42	-132.787	43.662	0	1410.00	0	2.7250	0	36.7190	8	29.294	0	1394.008	0	21.2	4	6.6	4	-1E+10	1	-1E+10	1	-1E+10	1	-1E+10	1	-1E+10	1	-1E+10	1
4901784	158	C	11/01/2019	10:42	-132.787	43.662	0	1414.90	0	2.7170	0	36.7200	8	29.296	0	1398.836	0	21.4	4	6.7	4	-1E+10	1	-1E+10	1	-1E+10	1	-1E+10	1	-1E+10	1	-1E+10	1
4901784	158	C	11/01/2019	10:42	-132.787	43.662	0	1419.90	0	2.7130	0	36.7210	8	29.297	0	1403.763	0	21.6	4	6.7	4	-1E+10	1	-1E+10	1	-1E+10	1	-1E+10	1	-1E+10	1	-1E+10	1
4901784	158	C	11/01/2019	10:42	-132.787	43.662	0	1424.80	0	2.7050	0	36.7220	8	29.299	0	1408.591	0	21.9	4	6.8	4	-1E+10	1	-1E+10	1	-1E+10	1	-1E+10	1	-1E+10	1	-1E+10	1
4901784	158	C	11/01/2019	10:42	-132.787	43.662	0	1429.90	0	2.6910	0	36.7240	8	29.302	0	1413.616	0	22.3	4	6.9	4	-1E+10	1	-1E+10	1	-1E+10	1	-1E+10	1	-1E+10	1	-1E+10	1
4901784	158	C	11/01/2019	10:42	-132.787	43.662	0	1434.80	0	2.6780	0	36.7260	8	29.304	0	1418.444	0	22.5	4	7.0	4	-1E+10	1	-1E+10	1	-1E+10	1	-1E+10	1	-1E+10	1	-1E+10	1
4901784	158	C	11/01/2019	10:42	-132.787	43.662	0	1439.90	0	2.6730	0	36.7260	8	29.305	0	1423.468	0	22.7	4	7.1	4	-1E+10	1	-1E+10	1	-1E+10	1	-1E+10	1	-1E+10	1	-1E+10	1
4901784	158	C	11/01/2019	10:42	-132.787	43.662	0	1445.10	0	2.6640	0	36.7270	8	29.307	0	1428.591	0	23.0	4	7.2	4	-1E+10	1	-1E+10	1	-1E+10	1	-1E+10	1	-1E+10	1	-1E+10	1
4901784	158	C	11/01/2019	10:42	-132.787	43.662	0	1450.40	0	2.6540	0	36.7290	8	29.309	0	1433.813	0	23.3	4	7.3	4	-1E+10	1	-1E+10	1	-1E+10	1	-1E+10	1	-1E+10	1	-1E+10	1
4901784	158	C	11/01/2019	10:42	-132.787	43.662	0	1455.00	0	2.6430	0	36.7300	8	29.311	0	1438.345	0	23.6	4	7.3	4	-1E+10	1	-1E+10	1	-1E+10	1	-1E+10	1	-1E+10	1	-1E+10	1
4901784	158	C	11/01/2019	10:42	-132.787	43.662	0	1459.40	0	2.6320	0	36.7320	8	29.314	0	1442.679	0	23.8	4	7.4	4	-1E+10	1	-1E+10	1	-1E+10	1	-1E+10	1	-1E+10	1	-1E+10	1
4901784	158	C	11/01/2019	10:42	-132.787	43.662	0	1464.70	0	2.6240	0	36.7330	8	29.315	0	1447.900	0	24.0	4	7.5	4	-1E+10	1	-1E+10	1	-1E+10	1	-1E+10	1	-1E+10	1	-1E+10	1
4901784	158	C	11/01/2019	10:42	-132.787	43.662	0	1470.10	0	2.6210	0	36.7330	8	29.315	0	1453.220	0	24.2	4	7.5	4	-1E+10	1	-1E+10	1	-1E+10	1	-1E+10	1	-1E+10	1	-1E+10	1
4901784	158	C	11/01/2019	10:42	-132.787	43.662	0	1475.40	0	2.6080	0	36.7350	8	29.318	0	1458.441	0	24.5	4	7.6	4	-1E+10	1	-1E+10	1	-1E+10	1	-1E+10	1	-1E+10	1	-1E+10	1
4901784	158	C	11/01/2019	10:42	-132.787	43.662	0	1480.00	0	2.6010	0	36.7360	8	29.320	0	1462.972	0	24.8	4	7.7	4	-1E+10	1	-1E+10	1	-1E+10	1	-1E+10	1	-1E+10	1	-1E+10	1
4901784	158	C	11/01/2019	10:42	-132.787	43.662	0	1484.50	0	2.5940	0	36.7370	8	29.321	0	1467.404	0	25.0	4	7.8	4	-1E+10	1	-1E+10	1	-1E+10	1	-1E+10	1	-1E+10	1	-1E+10	1
4901784	158	C	11/01/2019	10:42	-132.787	43.662	0	1490.00	0	2.5880	0	36.7380	8	29.323	0	1472.822	0	25.2	4	7.8	4	-1E+10	1	-1E+10	1	-1E+10	1	-1E+10	1	-1E+10	1	-1E+10	1
4901784	158	C	11/01/2019	10:42	-132.787	43.662	0	1495.50	0	2.5790	0	36.7390	8	29.324	0	1478.239	0	25.6	4	8.0	4	-1E+10	1	-1E+10	1	-1E+10	1	-1E+10	1	-1E+10	1	-1E+10	1
4901784	158	C	11/01/2019	10:42	-132.787	43.662	0	1500.10	0	2.5650	0	36.7400	8	29.326	0	1482.770	0	26.0	4	8.1	4	-1E+10	1	-1E+10	1	-1E+10	1	-1E+10	1	-1E+10	1	-1E+10	1
4901784	158	C	11/01/2019	10:42	-132.787	43.662	0	1505.40	0	2.5470	0	36.7430	8	29.330	0	1487.990	0	26.4	4	8.2	4	-1E+10	1	-1E+10	1	-1E+10	1	-1E+10	1	-1E+10	1	-1E+10	1
4901784	158	C	11/01/2019	10:42	-132.787	43.662	0	1510.40	0	2.5360	0	36.7440	8	29.332	0	1492.915	0	26.7	4	8.3	4	-1E+10	1	-1E+10	1	-1E+10	1	-1E+10	1	-1E+10	1	-1E+10	1
4901784	158	C	11/01/2019	10:42	-132.787	43.662	0	1515.20	0	2.5290	0	36.7450	8	29.334	0	1497.642	0	26.9	4	8.3	4	-1E+10	1	-1E+10	1	-1E+10	1	-1E+10	1	-1E+10	1	-1E+10	1
4901784	158	C	11/01/2019	10:42	-132.787	43.662	0	1520.10	0	2.5240	0	36.7460	8	29.335	0	1502.468	0	27.1	4	8.4	4	-1E+10	1	-1E+10	1	-1E+10	1	-1E+10	1	-1E+10	1	-1E+10	1
4901784	158	C	11/01/2019	10:42	-132.787	43.662	0	1525.10	0	2.5190	0	36.7460	8	29.335	0	1507.392	0	27.3	4	8.5	4	-1E+10	1	-1E+10	1	-1E+10	1	-1E+10	1	-1E+10	1	-1E+10	1
4901784	158	C	11/01/2019	10:42	-132.787	43.662	0	1530.00	0	2.5130	0	36.7550	8	29.343	0	1512.218	0	27.5	4	8.5	4	-1E+10	1	-1E+10	1	-1E+10	1	-1E+10	1	-1E+10	1	-1E+10	1
4901784	158	C	11/01/2019	10:42	-132.787	43.662	0	1535.00	0	2.5070	0	36.7560	8	29.345	0	1517.142	0	27.7	4	8.6	4	-1E+10	1	-1E+10	1	-1E+10	1	-1E+10	1	-1E+10	1	-1E+10	1
4901784	158	C	11/01/2019	10:42	-132.787	43.662	0	1540.00	0	2.5000	0	36.7570	8	29.346	0	1522.066	0	27.9	4	8.7	4	-1E+10	1	-1E+10	1	-1E+10	1	-1E+10	1	-1E+10	1	-1E+10	1
4901784	158	C	11/01/2019	10:42	-132.787	43.662	0	1545.00	0	2.4960	0	36.7570	8	29.346	0	1526.989	0	28.1	4	8.7	4	-1E+10	1	-1E+10	1	-1E+10	1	-1E+10	1	-1E+10	1	-1E+10	1
4901784	158	C	11/01/2019	10:42	-132.787	43.662	0	1550.10	0	2.4850	0	36.7580	8	29.348	0	1532.011	0	28.4	4	8.8	4	-1E+10	1	-1E+10	1	-1E+10	1	-1E+10	1	-1E+10	1	-1E+10	1
4901784	158	C	11/01/2019	10:42	-132.787	43.662	0	1555.20	0	2.4810	0	36.7590	8	29.349	0	1537.033	0	28.6	4	8.9	4	-1E+10	1	-1E+10	1	-1E+10	1	-1E+10	1	-1E+10	1	-1E+10	1
4901784	158	C	11/01/2019	10:42	-132.787	43.662	0	1560.20	0	2.4740	0	36.7600	8	29.351	0	1541.957	0	28.8	4	8.9	4	-1E+10	1	-1E+10	1	-1E+10	1	-1E+10	1	-1E+10	1	-1E+10	1
4901784	158	C	11/01/2019	10:42	-132.787	43.662	0	1565.30	0	2.4660	0	36.7610	8	29.352	0	1546.979	0	29.1	4	9.0	4	-1E+10	1	-1E+10	1	-1E+10	1	-1E+10	1	-1E+10	1	-1E+10	1
4901784	158	C	11/01/2019	10:42	-132.787	43.662	0	1570.40	0	2.4590	0	36.7620	8	29.354	0	1552.000	0	29.4	4	9.1	4	-1E+10	1	-1E+10	1	-1E+10	1	-1E+10	1	-1E+10	1	-1E+10	1
4901784	158	C	11/01/2019	10:42	-132.787	43.662	0	1575.50	0	2.4510	0	36.7630	8	29.355	0	1557.022	0	29.8	4	9.2	4	-1E+10	1	-1E+10	1	-1E+10	1	-1E+10	1	-1E+10	1	-1E+10	1
4901784	158	C	11/01/2019	10:42	-132.787	43.662	0	1580.70	0	2.4380	0	36.7650	8	29.358	0	1562.141	0	30.3	4	9.4	4	-1E+10	1	-1E+10	1	-1E+10	1	-1E+10	1	-1E+10	1	-1E+10	1
4901784	158	C	11/01/2019	10:42	-132.787	43.662	0	1585.00	0	2.4300	0	36.7660	8	29.360	0	1566.375	0	30.6	4	9.5	4	-1E+10	1	-1E+10	1	-1E+10	1	-1E+10	1	-1E+10	1	-1E+10	1
4901784	158	C	11/01/2019	10:42	-132.787	43.662	0	1589.30	0	2.4240	0	36.7660	8	29.360	0	1570.609	0	31.0	4	9.6	4	-1E+10	1	-1E+10	1	-1E+10	1	-1E+10	1	-1E+10	1	-1E+10	1
4901784	158	C	11/01/2019	10:42	-132.787	43.662	0	1594.50	0	2.4110	0	36.7680	8	29.363	0	1575.728	0	31.4	4	9.7	4	-1E+10	1	-1E+10	1	-1E+10	1	-1E+10	1	-1E+10	1	-1E+10	1
4901784	158	C	11/01/2019	10:42	-132.787	43.662	0	1599.70	0	2.3980	0	36.7690	8	29.365	0	1580.847	0	31.8	4	9.9	4	-1E+10	1	-1E+10	1	-1E+10	1	-1E+10	1	-1E+10	1	-1E+10	1
4901784	158	C	11/01/2019	10:42	-132.787	43.662	0	1604.90	0	2.3900	0	36.7700	8	29.367	0	1585.967	0	32.2	4	10.0	4	-1E+10	1	-1E+10	1	-1E+10	1	-1E+10	1	-1E+10	1	-1E+10	1
4901784	158	C	11/01/2019	10:42	-132.787	43.662	0	1610.10	0	2.3810	0	36.7720	8	29.369	0	1591.086	0	32.5	4	10.1	4	-1E+10	1	-1E+10	1	-1E+10	1	-1E+10	1	-1E+10	1	-1E+10	1
4901784	158	C	11/01/2019	10:42	-132.787	43.662	0	1615.40	0	2.3720	0	36.7730	8	29.371	0	1596.303	0	32.9	4	10.2	4	-1E+10	1	-1E+10	1	-1E+10	1	-1E+10	1	-1E+10	1	-1E+10	1
4901784	158	C	11/01/2019	10:42	-132.787	43.662	0	1620.60	0	2.3680	0	36.7730	8	29.371	0	1601.422	0	33.2	4	10.3	4	-1E+10	1	-1E+10	1	-1E+10	1	-1E+10	1	-1E+10	1	-1E+10	1
4901784	158	C	11/01/2019	10:42	-132.787	43.662	0	1624.90	0	2.3610	0	36.7740	8	29.373	0	1605.655	0	33.6	4	10.4	4	-1E+10	1	-1E+10	1	-1E+10	1	-1E+10	1	-1E+10	1	-1E+10	1
4901784	158	C	11/01/2019	10:42	-132.787	43.662	0	1629.30	0	2.3520	0	36.7750	8	29.374	0	1609.986	0	33.9	4	10.5	4	-1E+10	1	-1E+10	1	-1E+10	1	-1E+10	1	-1E+10	1	-1E+10	1
4901784	158	C	11/01/2019	10:42	-132.787	43.662	0	1634.50	0	2.3440	0	36.7760	8	29.376	0	1615.105	0	34.2	4	10.6	4	-1E+10	1	-1E+10	1	-1E+10	1	-1E+10	1	-1E+10	1	-1E+10	1
4901784	158	C	11/01/2019	10:42	-132.787	43.662	0	1639.80	0	2.3380	0	36.7770	8	29.377	0	1620.322	0	34.5	4	10.7	4	-1E+10	1	-1E+10	1	-1E+10	1	-1E+10	1	-1E+10	1	-1E+10	1
4901784	158	C	11/01/2019	10:42	-132.787	43.662	0	1645.00	0	2.3330	0	36.7780	8	29.378	0	1625.440	0	34.8	4	10.8	4	-1E+10	1	-1E+10	1	-1E+10	1	-1E+10	1	-1E+10	1	-1E+10	1
4901784	158	C	11/01/2019	10:42	-132.787	43.662	0	1650.20	0	2.3220	0	36.7790	8	29.380	0	1630.558	0	35.1	4	10.9	4	-1E+10	1	-1E+10	1	-1E+10	1	-1E+10	1	-1E+10	1	-1E+10	1
4901784	158	C	11/01/2019	10:42	-132.787	43.662	0	1655.50	0	2.3180	0	36.7800	8	29.381	0	1635.775	0	35.3	4	10.9	4	-1E+10	1	-1E+10	1	-1E+10	1	-1E+10	1	-1E+10	1	-1E+10	1
4901784	158	C	11/01/2019	10:42	-132.787	43.662	0	1659.90	0	2.3130	0	36.7800	8	29.382	0	1640.105	0	35.7	4	11.0	4	-1E+10	1	-1E+10	1	-1E+10	1	-1E+10	1	-1E+10	1	-1E+10	1
4901784	158	C	11/01/2019	10:42	-132.787	43.662	0	1664.20	0	2.3030	0	36.7820	8	29.384	0	1644.337	0	36.0	4	11.1	4	-1E+10	1	-1E+10	1	-1E+10	1	-1E+10	1	-1E+10	1	-1E+10	1
4901784	158	C	11/01/2019	10:42	-132.787	43.662	0	1669.50	0	2.2950	0	36.7830	8	29.386	0	1649.553	0	36.3	4	11.2	4	-1E+10	1	-1E+10	1	-1E+10	1	-1E+10	1	-1E+10	1	-1E+10	1
4901784	158	C	11/01/2019	10:42	-132.787	43.662	0	1674.70	0	2.2870	0	36.7840	8	29.387	0	1654.671	0	36.6	4	11.3	4	-1E+10	1	-1E+10	1	-1E+10	1	-1E+10	1	-1E+10	1	-1E+10	1
4901784	158	C	11/01/2019	10:42	-132.787	43.662	0	1680.00	0	2.2800	0	36.7840	8	29.388	0	1659.887	0	36.9	4	11.4	4	-1E+10	1	-1E+10	1	-1E+10	1	-1E+10	1	-1E+10	1	-1E+10	1
4901784	158	C	11/01/2019	10:42	-132.787	43.662	0	1685.20	0	2.2720	0	36.7850	8	29.390	0	1665.004	0	37.2	4	11.5	4	-1E+10	1	-1E+10	1	-1E+10	1	-1E+10	1	-1E+10	1	-1E+10	1
4901784	158	C	11/01/2019	10:42	-132.787	43.662	0	1690.60	0	2.2630	0	36.7860	8	29.391	0	1670.318	0	37.5	4	11.6	4	-1E+10	1	-1E+10	1	-1E+10	1	-1E+10	1	-1E+10	1	-1E+10	1
4901784	158	C	11/01/2019	10:42	-132.787	43.662	0	1695.10	0	2.2600	0	36.7870	8	29.392	0	1674.746	0	37.7	4	11.6	4	-1E+10	1	-1E+10	1	-1E+10	1	-1E+10	1	-1E+10	1	-1E+10	1
4901784	158	C	11/01/2019	10:42	-132.787	43.662	0	1699.50	0	2.2550	0	36.7870	8	29.393	0	1679.076	0	38.0	4	11.7	4	-1E+10	1	-1E+10	1	-1E+10	1	-1E+10	1	-1E+10	1	-1E+10	1
4901784	158	C	11/01/2019	10:42	-132.787	43.662	0	1704.90	0	2.2470	0	36.7880	8	29.394	0	1684.390	0	38.5	4	11.9	4	-1E+10	1	-1E+10	1	-1E+10	1	-1E+10	1	-1E+10	1	-1E+10	1
4901784	158	C	11/01/2019	10:42	-132.787	43.662	0	1710.20	0	2.2370	0	36.7890	8	29.396	0	1689.605	0	38.9	4	12.0	4	-1E+10	1	-1E+10	1	-1E+10	1	-1E+10	1	-1E+10	1	-1E+10	1
4901784	158	C	11/01/2019	10:42	-132.787	43.662	0	1715.60	0	2.2290	0	36.7910	8	29.398	0	1694.918	0	39.3	4	12.1	4	-1E+10	1	-1E+10	1	-1E+10	1	-1E+10	1	-1E+10	1	-1E+10	1
4901784	158	C	11/01/2019	10:42	-132.787	43.662	0	1720.00	0	2.2260	0	36.7910	8	29.399	0	1699.248	0	39.5	4	12.2	4	-1E+10	1	-1E+10	1	-1E+10	1	-1E+10	1	-1E+10	1	-1E+10	1
4901784	158	C	11/01/2019	10:42	-132.787	43.662	0	1724.50	0	2.2210	0	36.7920	8	29.400	0	1703.675	0	39.9	4	12.3	4	-1E+10	1	-1E+10	1	-1E+10	1	-1E+10	1	-1E+10	1	-1E+10	1
4901784	158	C	11/01/2019	10:42	-132.787	43.662	0	1729.80	0	2.2110	0	36.7930	8	29.402	0	1708.890	0	40.3	4	12.4	4	-1E+10	1	-1E+10	1	-1E+10	1	-1E+10	1	-1E+10	1	-1E+10	1
4901784	158	C	11/01/2019	10:42	-132.787	43.662	0	1735.20	0	2.2030	0	36.7940	8	29.403	0	1714.203	0	40.6	4	12.5	4	-1E+10	1	-1E+10	1	-1E+10	1	-1E+10	1	-1E+10	1	-1E+10	1
4901784	158	C	11/01/2019	10:42	-132.787	43.662	0	1740.60	0	2.1980	0	36.7950	8	29.404	0	1719.516	0	40.9	4	12.6	4	-1E+10	1	-1E+10	1	-1E+10	1	-1E+10	1	-1E+10	1	-1E+10	1
4901784	158	C	11/01/2019	10:42	-132.787	43.662	0	1745.10	0	2.1950	0	36.7960	8	29.405	0	1723.943	0	41.1	4	12.7	4	-1E+10	1	-1E+10	1	-1E+10	1	-1E+10	1	-1E+10	1	-1E+10	1
4901784	158	C	11/01/2019	10:42	-132.787	43.662	0	1749.60	0	2.1890	0	36.7960	8	29.406	0	1728.370	0	41.4	4	12.8	4	-1E+10	1	-1E+10	1	-1E+10	1	-1E+10	1	-1E+10	1	-1E+10	1
4901784	158	C	11/01/2019	10:42	-132.787	43.662	0	1755.10	0	2.1850	0	36.7970	8	29.407	0	1733.781	0	41.7	4	12.8	4	-1E+10	1	-1E+10	1	-1E+10	1	-1E+10	1	-1E+10	1	-1E+10	1
4901784	158	C	11/01/2019	10:42	-132.787	43.662	0	1760.50	0	2.1810	0	36.7980	8	29.408	0	1739.093	0	42.0	4	13.0	4	-1E+10	1	-1E+10	1	-1E+10	1	-1E+10	1	-1E+10	1	-1E+10	1
4901784	158	C	11/01/2019	10:42	-132.787	43.662	0	1765.10	0	2.1770	0	36.8000	8	29.410	0	1743.618	0	42.3	4	13.0	4	-1E+10	1	-1E+10	1	-1E+10	1	-1E+10	1	-1E+10	1	-1E+10	1
4901784	158	C	11/01/2019	10:42	-132.787	43.662	0	1769.60	0	2.1720	0	36.8000	8	29.411	0	1748.045	0	42.6	4	13.1	4	-1E+10	1	-1E+10	1	-1E+10	1	-1E+10	1	-1E+10	1	-1E+10	1
4901784	158	C	11/01/2019	10:42	-132.787	43.662	0	1775.10	0	2.1680	0	36.8010	8	29.412	0	1753.455	0	42.8	4	13.2	4	-1E+10	1	-1E+10	1	-1E+10	1	-1E+10	1	-1E+10	1	-1E+10	1
4901784	158	C	11/01/2019	10:42	-132.787	43.662	0	1780.50	0	2.1640	0	36.8010	8	29.412	0	1758.767	0	43.2	4	13.3	4	-1E+10	1	-1E+10	1	-1E+10	1	-1E+10	1	-1E+10	1	-1E+10	1
4901784	158	C	11/01/2019	10:42	-132.787	43.662	0	1785.10	0	2.1580	0	36.8030	8	29.415	0	1763.292	0	43.4	4	13.4	4	-1E+10	1	-1E+10	1	-1E+10	1	-1E+10	1	-1E+10	1	-1E+10	1
4901784	158	C	11/01/2019	10:42	-132.787	43.662	0	1789.60	0	2.1560	0	36.8040	8	29.416	0	1767.718	0	43.7	4	13.5	4	-1E+10	1	-1E+10	1	-1E+10	1	-1E+10	1	-1E+10	1	-1E+10	1
4901784	158	C	11/01/2019	10:42	-132.787	43.662	0	1795.00	0	2.1530	0	36.8040	8	29.416	0	1773.030	0	43.9	4	13.5	4	-1E+10	1	-1E+10	1	-1E+10	1	-1E+10	1	-1E+10	1	-1E+10	1
4901784	158	C	11/01/2019	10:42	-132.787	43.662	0	1800.60	0	2.1490	0	36.8050	8	29.417	0	1778.538	0	44.2	4	13.6	4	-1E+10	1	-1E+10	1	-1E+10	1	-1E+10	1	-1E+10	1	-1E+10	1
4901784	158	C	11/01/2019	10:42	-132.787	43.662	0	1805.10	0	2.1460	0	36.8060	8	29.418	0	1782.964	0	44.5	4	13.7	4	-1E+10	1	-1E+10	1	-1E+10	1	-1E+10	1	-1E+10	1	-1E+10	1
4901784	158	C	11/01/2019	10:42	-132.787	43.662	0	1809.60	0	2.1430	0	36.8060	8	29.418	0	1787.390	0	44.7	4	13.8	4	-1E+10	1	-1E+10	1	-1E+10	1	-1E+10	1	-1E+10	1	-1E+10	1
4901784	158	C	11/01/2019	10:42	-132.787	43.662	0	1815.10	0	2.1380	0	36.8070	8	29.420	0	1792.799	0	45.1	4	13.9	4	-1E+10	1	-1E+10	1	-1E+10	1	-1E+10	1	-1E+10	1	-1E+10	1
4901784	158	C	11/01/2019	10:42	-132.787	43.662	0	1820.60	0	2.1300	0	36.8080	8	29.421	0	1798.208	0	45.4	4	14.0	4	-1E+10	1	-1E+10	1	-1E+10	1	-1E+10	1	-1E+10	1	-1E+10	1
4901784	158	C	11/01/2019	10:42	-132.787	43.662	0	1825.20	0	2.1280	0	36.8090	8	29.422	0	1802.732	0	45.6	4	14.0	4	-1E+10	1	-1E+10	1	-1E+10	1	-1E+10	1	-1E+10	1	-1E+10	1
4901784	158	C	11/01/2019	10:42	-132.787	43.662	0	1829.70	0	2.1240	0	36.8090	8	29.423	0	1807.157	0	45.9	4	14.1	4	-1E+10	1	-1E+10	1	-1E+10	1	-1E+10	1	-1E+10	1	-1E+10	1
4901784	158	C	11/01/2019	10:42	-132.787	43.662	0	1835.30	0	2.1200	0	36.8090	8	29.423	0	1812.665	0	46.3	4	14.2	4	-1E+10	1	-1E+10	1	-1E+10	1	-1E+10	1	-1E+10	1	-1E+10	1
4901784	158	C	11/01/2019	10:42	-132.787	43.662	0	1839.80	0	2.1100	0	36.8110	8	29.425	0	1817.090	0	46.7	4	14.4	4	-1E+10	1	-1E+10	1	-1E+10	1	-1E+10	1	-1E+10	1	-1E+10	1
4901784	158	C	11/01/2019	10:42	-132.787	43.662	0	1844.70	0	2.1030	0	36.8120	8	29.427	0	1821.908	0	47.1	4	14.5	4	-1E+10	1	-1E+10	1	-1E+10	1	-1E+10	1	-1E+10	1	-1E+10	1
4901784	158	C	11/01/2019	10:42	-132.787	43.662	0	1850.00	0	2.0970	0	36.8130	8	29.428	0	1827.120	0	47.5	4	14.6	4	-1E+10	1	-1E+10	1	-1E+10	1	-1E+10	1	-1E+10	1	-1E+10	1
4901784	158	C	11/01/2019	10:42	-132.787	43.662	0	1854.80	0	2.0900	0	36.8140	8	29.430	0	1831.840	0	47.8	4	14.7	4	-1E+10	1	-1E+10	1	-1E+10	1	-1E+10	1	-1E+10	1	-1E+10	1
4901784	158	C	11/01/2019	10:42	-132.787	43.662	0	1859.70	0	2.0860	0	36.8150	8	29.431	0	1836.658	0	48.1	4	14.8	4	-1E+10	1	-1E+10	1	-1E+10	1	-1E+10	1	-1E+10	1	-1E+10	1
4901784	158	C	11/01/2019	10:42	-132.787	43.662	0	1864.60	0	2.0800	0	36.8150	8	29.431	0	1841.476	0	48.5	4	14.9	4	-1E+10	1	-1E+10	1	-1E+10	1	-1E+10	1	-1E+10	1	-1E+10	1
4901784	158	C	11/01/2019	10:42	-132.787	43.662	0	1869.60	0	2.0740	0	36.8160	8	29.433	0	1846.393	0	48.9	4	15.0	4	-1E+10	1	-1E+10	1	-1E+10	1	-1E+10	1	-1E+10	1	-1E+10	1
4901784	158	C	11/01/2019	10:42	-132.787	43.662	0	1874.50	0	2.0680	0	36.8170	8	29.434	0	1851.211	0	49.3	4	15.2	4	-1E+10	1	-1E+10	1	-1E+10	1	-1E+10	1	-1E+10	1	-1E+10	1
4901784	158	C	11/01/2019	10:42	-132.787	43.662	0	1879.40	0	2.0600	0	36.8180	8	29.435	0	1856.028	0	49.8	4	15.3	4	-1E+10	1	-1E+10	1	-1E+10	1	-1E+10	1	-1E+10	1	-1E+10	1
4901784	158	C	11/01/2019	10:42	-132.787	43.662	0	1884.40	0	2.0520	0	36.8200	8	29.438	0	1860.944	0	50.2	4	15.4	4	-1E+10	1	-1E+10	1	-1E+10	1	-1E+10	1	-1E+10	1	-1E+10	1
4901784	158	C	11/01/2019	10:42	-132.787	43.662	0	1889.30	0	2.0470	0	36.8200	8	29.438	0	1865.762	0	50.6	4	15.5	4	-1E+10	1	-1E+10	1	-1E+10	1	-1E+10	1	-1E+10	1	-1E+10	1
4901784	158	C	11/01/2019	10:42	-132.787	43.662	0	1894.30	0	2.0410	0	36.8220	8	29.440	0	1870.678	0	51.0	4	15.7	4	-1E+10	1	-1E+10	1	-1E+10	1	-1E+10	1	-1E+10	1	-1E+10	1
4901784	158	C	11/01/2019	10:42	-132.787	43.662	0	1899.30	0	2.0350	0	36.8220	8	29.441	0	1875.593	0	51.4	4	15.8	4	-1E+10	1	-1E+10	1	-1E+10	1	-1E+10	1	-1E+10	1	-1E+10	1
4901784	158	C	11/01/2019	10:42	-132.787	43.662	0	1904.30	0	2.0270	0	36.8230	8	29.442	0	1880.509	0	51.9	4	15.9	4	-1E+10	1	-1E+10	1	-1E+10	1	-1E+10	1	-1E+10	1	-1E+10	1
4901784	158	C	11/01/2019	10:42	-132.787	43.662	0	1909.20	0	2.0200	0	36.8240	8	29.444	0	1885.326	0	52.5	4	16.1	4	-1E+10	1	-1E+10	1	-1E+10	1	-1E+10	1	-1E+10	1	-1E+10	1
4901784	158	C	11/01/2019	10:42	-132.787	43.662	0	1914.30	0	2.0120	0	36.8260	8	29.446	0	1890.339	0	53.1	4	16.3	4	-1E+10	1	-1E+10	1	-1E+10	1	-1E+10	1	-1E+10	1	-1E+10	1
4901784	158	C	11/01/2019	10:42	-132.787	43.662	0	1919.40	0	2.0030	0	36.8270	8	29.448	0	1895.353	0	53.6	4	16.4	4	-1E+10	1	-1E+10	1	-1E+10	1	-1E+10	1	-1E+10	1	-1E+10	1
4901784	158	C	11/01/2019	10:42	-132.787	43.662	0	1924.50	0	1.9990	0	36.8280	8	29.449	0	1900.366	0	53.9	4	16.5	4	-1E+10	1	-1E+10	1	-1E+10	1	-1E+10	1	-1E+10	1	-1E+10	1
4901784	158	C	11/01/2019	10:42	-132.787	43.662	0	1929.80	0	1.9960	0	36.8290	8	29.450	0	1905.576	0	54.4	4	16.7	4	-1E+10	1	-1E+10	1	-1E+10	1	-1E+10	1	-1E+10	1	-1E+10	1
4901784	158	C	11/01/2019	10:42	-132.787	43.662	0	1934.90	0	1.9930	0	36.8300	8	29.451	0	1910.589	0	54.7	4	16.8	4	-1E+10	1	-1E+10	1	-1E+10	1	-1E+10	1	-1E+10	1	-1E+10	1
4901784	158	C	11/01/2019	10:42	-132.787	43.662	0	1940.10	0	1.9850	0	36.8300	8	29.452	0	1915.700	0	54.7	4	16.8	4	-1E+10	1	-1E+10	1	-1E+10	1	-1E+10	1	-1E+10	1	-1E+10	1
4901784	158	C	11/01/2019	10:42	-132.787	43.662	0	1945.30	0	1.9790	0	36.8300	8	29.452	0	1920.812	0	55.0	4	16.9	4	-1E+10	1	-1E+10	1	-1E+10	1	-1E+10	1	-1E+10	1	-1E+10	1
4901784	158	C	11/01/2019	10:42	-132.787	43.662	0	1950.50	0	1.9770	0	36.8310	8	29.453	0	1925.923	0	55.3	4	17.0	4	-1E+10	1	-1E+10	1	-1E+10	1	-1E+10	1	-1E+10	1	-1E+10	1
4901784	158	C	11/01/2019	10:42	-132.787	43.662	0	1955.00	0	1.9720	0	36.8320	8	29.455	0	1930.346	0	55.7	4	17.1	4	-1E+10	1	-1E+10	1	-1E+10	1	-1E+10	1	-1E+10	1	-1E+10	1
4901784	158	C	11/01/2019	10:42	-132.787	43.662	0	1959.40	0	1.9730	0	36.8330	8	29.455	0	1934.670	0	56.1	4	17.2	4	-1E+10	1	-1E+10	1	-1E+10	1	-1E+10	1	-1E+10	1	-1E+10	1
4901784	158	C	11/01/2019	10:42	-132.787	43.662	0	1964.80	0	1.9680	0	36.8330	8	29.456	0	1939.977	0	56.4	4	17.3	4	-1E+10	1	-1E+10	1	-1E+10	1	-1E+10	1	-1E+10	1	-1E+10	1
4901784	158	C	11/01/2019	10:42	-132.787	43.662	0	1970.10	0	1.9660	0	36.8340	8	29.457	0	1945.186	0	56.7	4	17.4	4	-1E+10	1	-1E+10	1	-1E+10	1	-1E+10	1	-1E+10	1	-1E+10	1
4901784	158	C	11/01/2019	10:42	-132.787	43.662	0	1975.50	0	1.9600	0	36.8340	8	29.457	0	1950.493	0	57.0	4	17.5	4	-1E+10	1	-1E+10	1	-1E+10	1	-1E+10	1	-1E+10	1	-1E+10	1
4901784	158	C	11/01/2019	10:42	-132.787	43.662	0	1980.00	0	1.9520	0	36.8360	8	29.460	0	1954.916	0	57.4	4	17.6	4	-1E+10	1	-1E+10	1	-1E+10	1	-1E+10	1	-1E+10	1	-1E+10	1
4901784	158	C	11/01/2019	10:42	-132.787	43.662	0	1984.60	0	1.9470	0	36.8360	8	29.460	0	1959.436	0	57.6	4	17.6	4	-1E+10	1	-1E+10	1	-1E+10	1	-1E+10	1	-1E+10	1	-1E+10	1
4901784	158	C	11/01/2019	10:42	-132.787	43.662	0	1990.00	0	1.9430	0	36.8370	8	29.461	0	1964.743	0	57.8	4	17.7	4	-1E+10	1	-1E+10	1	-1E+10	1	-1E+10	1	-1E+10	1	-1E+10	1
4901784	158	C	11/01/2019	10:42	-132.787	43.662	0	1995.50	0	1.9380	0	36.8380	8	29.462	0	1970.148	0	58.3	4	17.9	4	-1E+10	1	-1E+10	1	-1E+10	1	-1E+10	1	-1E+10	1	-1E+10	1
4901784	158	C	11/01/2019	10:42	-132.787	43.662	0	2000.50	0	1.9370	0	36.8390	8	29.463	0	1975.061	0	58.4	4	17.9	4	-1E+10	1	-1E+10	1	-1E+10	1	-1E+10	1	-1E+10	1	-1E+10	1
4901784	158	C	11/01/2019	10:42	-132.787	43.662	0	2005.50	0	1.9350	0	36.8390	8	29.464	0	1979.974	0	58.5	4	17.9	4	-1E+10	1	-1E+10	1	-1E+10	1	-1E+10	1	-1E+10	1	-1E+10	1
4901784	158	C	11/01/2019	10:42	-132.787	43.662	0	2010.40	0	1.9310	0	36.8390	8	29.464	0	1984.789	0	58.6	4	17.9	4	-1E+10	1	-1E+10	1	-1E+10	1	-1E+10	1	-1E+10	1	-1E+10	1
4901784	158	C	11/01/2019	10:42	-132.787	43.662	0	2015.20	0	1.9280	0	36.8390	8	29.464	0	1989.505	0	58.6	4	18.0	4	-1E+10	1	-1E+10	1	-1E+10	1	-1E+10	1	-1E+10	1	-1E+10	1
4901784	158	C	11/01/2019	10:42	-132.787	43.662	0	2019.90	0	1.9250	0	36.8390	8	29.464	0	1994.124	0	58.8	4	18.0	4	-1E+10	1	-1E+10	1	-1E+10	1	-1E+10	1	-1E+10	1	-1E+10	1
4901784	158	C	11/01/2019	10:42	-132.787	43.662	0																										
4901784	159	C	11/11/2019	10:49	-132.779	43.658	0	2.80	0	16.0790	0	34.6610	8	25.470	0	2.778	0	235.2	4	96.7	4	-1E+10	1	-1E+10	1	-1E+10	1	-1E+10	1	-1E+10	1	-1E+10	1
4901784	159	C	11/11/2019	10:49	-132.779	43.658	0	4.30	0	16.0790	0	34.6610	8	25.470	0	4.266	0	235.0	4	96.6	4	-1E+10	1	-1E+10	1	-1E+10	1	-1E+10	1	-1E+10	1	-1E+10	1
4901784	159	C	11/11/2019	10:49	-132.779	43.658	0	5.90	0	16.0780	0	34.6620	8	25.471	0	5.853	0	234.9	4	96.6	4	-1E+10	1	-1E+10	1	-1E+10	1	-1E+10	1	-1E+10	1	-1E+10	1
4901784	159	C	11/11/2019	10:49	-132.779	43.658	0	7.40	0	16.0790	0	34.6620	8	25.471	0	7.341	0	234.8	4	96.5	4	-1E+10	1	-1E+10	1	-1E+10	1	-1E+10	1	-1E+10	1	-1E+10	1
4901784	159	C	11/11/2019	10:49	-132.779	43.658	0	9.10	0	16.0790	0	34.6630	8	25.472	0	9.027	0	234.5	4	96.4	4	-1E+10	1	-1E+10	1	-1E+10	1	-1E+10	1	-1E+10	1	-1E+10	1
4901784	159	C	11/11/2019	10:49	-132.779	43.658	0	10.80	0	16.0800	0	34.6620	8	25.471	0	10.713	0	234.9	4	96.6	4	-1E+10	1	-1E+10	1	-1E+10	1	-1E+10	1	-1E+10	1	-1E+10	1
4901784	159	C	11/11/2019	10:49	-132.779	43.658	0	12.60	0	16.0800	0	34.6630	8	25.471	0	12.499	0	234.6	4	96.5	4	-1E+10	1	-1E+10	1	-1E+10	1	-1E+10	1	-1E+10	1	-1E+10	1
4901784	159	C	11/11/2019	10:49	-132.779	43.658	0	14.30	0	16.0800	0	34.6630	8	25.471	0	14.185	0	234.6	4	96.4	4	-1E+10	1	-1E+10	1	-1E+10	1	-1E+10	1	-1E+10	1	-1E+10	1
4901784	159	C	11/11/2019	10:49	-132.779	43.658	0	16.00	0	16.0800	0	34.6630	8	25.472	0	15.871	0	234.5	4	96.4	4	-1E+10	1	-1E+10	1	-1E+10	1	-1E+10	1	-1E+10	1	-1E+10	1
4901784	159	C	11/11/2019	10:49	-132.779	43.658	0	17.70	0	16.0810	0	34.6630	8	25.471	0	17.558	0	234.3	4	96.4	4	-1E+10	1	-1E+10	1	-1E+10	1	-1E+10	1	-1E+10	1	-1E+10	1
4901784	159	C	11/11/2019	10:49	-132.779	43.658	0	19.40	0	16.0800	0	34.6630	8	25.472	0	19.244	0	234.3	4	96.3	4	-1E+10	1	-1E+10	1	-1E+10	1	-1E+10	1	-1E+10	1	-1E+10	1
4901784	159	C	11/11/2019	10:49	-132.779	43.658	0	21.10	0	16.0790	0	34.6640	8	25.473	0	20.930	0	234.2	4	96.3	4	-1E+10	1	-1E+10	1	-1E+10	1	-1E+10	1	-1E+10	1	-1E+10	1
4901784	159	C	11/11/2019	10:49	-132.779	43.658	0	22.90	0	16.0810	0	34.6620	8	25.471	0	22.716	0	234.3	4	96.4	4	-1E+10	1	-1E+10	1	-1E+10	1	-1E+10	1	-1E+10	1	-1E+10	1
4901784	159	C	11/11/2019	10:49	-132.779	43.658	0	24.60	0	16.0710	0	34.6630	8	25.474	0	24.402	0	234.2	4	96.3	4	-1E+10	1	-1E+10	1	-1E+10	1	-1E+10	1	-1E+10	1	-1E+10	1
4901784	159	C	11/11/2019	10:49	-132.779	43.658	0	26.30	0	16.0090	0	34.6750	8	25.497	0	26.088	0	234.3	4	96.2	4	-1E+10	1	-1E+10	1	-1E+10	1	-1E+10	1	-1E+10	1	-1E+10	1
4901784	159	C	11/11/2019	10:49	-132.779	43.658	0	28.00	0	15.9650	0	34.6770	8	25.509	0	27.774	0	234.3	4	96.1	4	-1E+10	1	-1E+10	1	-1E+10	1	-1E+10	1	-1E+10	1	-1E+10	1
4901784	159	C	11/11/2019	10:49	-132.779	43.658	0	29.80	0	15.9510	0	34.6760	8	25.511	0	29.560	0	234.4	4	96.2	4	-1E+10	1	-1E+10	1	-1E+10	1	-1E+10	1	-1E+10	1	-1E+10	1
4901784	159	C	11/11/2019	10:49	-132.779	43.658	0	31.50	0	15.9510	0	34.6770	8	25.512	0	31.246	0	234.3	4	96.1	4	-1E+10	1	-1E+10	1	-1E+10	1	-1E+10	1	-1E+10	1	-1E+10	1
4901784	159	C	11/11/2019	10:49	-132.779	43.658	0	33.30	0	15.9590	0	34.6800	8	25.513	0	33.031	0	234.1	4	96.0	4	-1E+10	1	-1E+10	1	-1E+10	1	-1E+10	1	-1E+10	1	-1E+10	1
4901784	159	C	11/11/2019	10:49	-132.779	43.658	0	35.00	0	15.9600	0	34.6810	8	25.513	0	34.717	0	233.7	4	95.9	4	-1E+10	1	-1E+10	1	-1E+10	1	-1E+10	1	-1E+10	1	-1E+10	1
4901784	159	C	11/11/2019	10:49	-132.779	43.658	0	36.70	0	15.9610	0	34.6810	8	25.513	0	36.403	0	233.7	4	95.9	4	-1E+10	1	-1E+10	1	-1E+10	1	-1E+10	1	-1E+10	1	-1E+10	1
4901784	159	C	11/11/2019	10:49	-132.779	43.658	0	38.50	0	15.9600	0	34.6810	8	25.514	0	38.189	0	233.7	4	95.9	4	-1E+10	1	-1E+10	1	-1E+10	1	-1E+10	1	-1E+10	1	-1E+10	1
4901784	159	C	11/11/2019	10:49	-132.779	43.658	0	40.20	0	15.9600	0	34.6800	8	25.513	0	39.875	0	233.6	4	95.8	4	-1E+10	1	-1E+10	1	-1E+10	1	-1E+10	1	-1E+10	1	-1E+10	1
4901784	159	C	11/11/2019	10:49	-132.779	43.658	0	41.90	0	15.9580	0	34.6800	8	25.513	0	41.561	0	233.5	4	95.8	4	-1E+10	1	-1E+10	1	-1E+10	1	-1E+10	1	-1E+10	1	-1E+10	1
4901784	159	C	11/11/2019	10:49	-132.779	43.658	0	43.60	0	15.9560	0	34.6800	8	25.514	0	43.247	0	233.4	4	95.8	4	-1E+10	1	-1E+10	1	-1E+10	1	-1E+10	1	-1E+10	1	-1E+10	1
4901784	159	C	11/11/2019	10:49	-132.779	43.658	0	45.40	0	15.9550	0	34.6790	8	25.513	0	45.032	0	233.4	4	95.8	4	-1E+10	1	-1E+10	1	-1E+10	1	-1E+10	1	-1E+10	1	-1E+10	1
4901784	159	C	11/11/2019	10:49	-132.779	43.658	0	47.10	0	15.9530	0	34.6770	8	25.512	0	46.718	0	233.6	4	95.8	4	-1E+10	1	-1E+10	1	-1E+10	1	-1E+10	1	-1E+10	1	-1E+10	1
4901784	159	C	11/11/2019	10:49	-132.779	43.658	0	48.80	0	15.9510	0	34.6750	8	25.511	0	48.404	0	233.7	4	95.9	4	-1E+10	1	-1E+10	1	-1E+10	1	-1E+10	1	-1E+10	1	-1E+10	1
4901784	159	C	11/11/2019	10:49	-132.779	43.658	0	50.50	0	15.9480	0	34.6700	8	25.508	0	50.090	0	234.2	4	96.1	4	-1E+10	1	-1E+10	1	-1E+10	1	-1E+10	1	-1E+10	1	-1E+10	1
4901784	159	C	11/11/2019	10:49	-132.779	43.658	0	52.30	0	15.9430	0	34.6650	8	25.506	0	51.875	0	234.9	4	96.3	4	-1E+10	1	-1E+10	1	-1E+10	1	-1E+10	1	-1E+10	1	-1E+10	1
4901784	159	C	11/11/2019	10:49	-132.779	43.658	0	54.00	0	15.9360	0	34.6560	8	25.500	0	53.561	0	236.0	4	96.8	4	-1E+10	1	-1E+10	1	-1E+10	1	-1E+10	1	-1E+10	1	-1E+10	1
4901784	159	C	11/11/2019	10:49	-132.779	43.658	0	55.70	0	15.9250	0	34.6430	8	25.493	0	55.247	0	237.6	4	97.4	4	-1E+10	1	-1E+10	1	-1E+10	1	-1E+10	1	-1E+10	1	-1E+10	1
4901784	159	C	11/11/2019	10:49	-132.779	43.658	0	57.30	0	15.9020	0	34.6210	8	25.481	0	56.834	0	240.1	4	98.4	4	-1E+10	1	-1E+10	1	-1E+10	1	-1E+10	1	-1E+10	1	-1E+10	1
4901784	159	C	11/11/2019	10:49	-132.779	43.658	0	58.90	0	15.7900	0	34.5930	8	25.485	0	58.421	0	243.9	4	99.7	4	-1E+10	1	-1E+10	1	-1E+10	1	-1E+10	1	-1E+10	1	-1E+10	1
4901784	159	C	11/11/2019	10:49	-132.779	43.658	0	60.40	0	15.0010	0	34.5600	8	25.635	0	59.908	0	250.6	4	100.8	4	-1E+10	1	-1E+10	1	-1E+10	1	-1E+10	1	-1E+10	1	-1E+10	1
4901784	159	C	11/11/2019	10:49	-132.779	43.658	0	62.20	0	13.9830	0	34.5410	8	25.838	0	61.693	0	259.3	4	102.2	4	-1E+10	1	-1E+10	1	-1E+10	1	-1E+10	1	-1E+10	1	-1E+10	1
4901784	159	C	11/11/2019	10:49	-132.779	43.658	0	63.90	0	13.5390	0	34.5300	8	25.922	0	63.379	0	261.6	4	102.2	4	-1E+10	1	-1E+10	1	-1E+10	1	-1E+10	1	-1E+10	1	-1E+10	1
4901784	159	C	11/11/2019	10:49	-132.779	43.658	0	65.70	0	12.7700	0	34.5200	8	26.069	0	65.164	0	265.9	4	102.3	4	-1E+10	1	-1E+10	1	-1E+10	1	-1E+10	1	-1E+10	1	-1E+10	1
4901784	159	C	11/11/2019	10:49	-132.779	43.658	0	67.60	0	12.1760	0	34.5640	8	26.219	0	67.049	0	265.2	4	100.8	4	-1E+10	1	-1E+10	1	-1E+10	1	-1E+10	1	-1E+10	1	-1E+10	1
4901784	159	C	11/11/2019	10:49	-132.779	43.658	0	69.50	0	11.8820	0	34.5490	8	26.263	0	68.933	0	266.5	4	100.7	4	-1E+10	1	-1E+10	1	-1E+10	1	-1E+10	1	-1E+10	1	-1E+10	1
4901784	159	C	11/11/2019	10:49	-132.779	43.658	0	71.40	0	11.7970	0	34.5390	8	26.272	0	70.817	0	265.7	4	100.2	4	-1E+10	1	-1E+10	1	-1E+10	1	-1E+10	1	-1E+10	1	-1E+10	1
4901784	159	C	11/11/2019	10:49	-132.779	43.658	0	73.80	0	11.6540	0	34.5590	8	26.314	0	73.197	0	262.9	4	98.8	4	-1E+10	1	-1E+10	1	-1E+10	1	-1E+10	1	-1E+10	1	-1E+10	1
4901784	159	C	11/11/2019	10:49	-132.779	43.658	0	75.70	0	11.4100	0	34.5640	8	26.363	0	75.081	0	261.5	4	97.8	4	-1E+10	1	-1E+10	1	-1E+10	1	-1E+10	1	-1E+10	1	-1E+10	1
4901784	159	C	11/11/2019	10:49	-132.779	43.658	0	77.40	0	11.1390	0	34.5670	8	26.415	0	76.767	0	261.3	4	97.2	4	-1E+10	1	-1E+10	1	-1E+10	1	-1E+10	1	-1E+10	1	-1E+10	1
4901784	159	C	11/11/2019	10:49	-132.779	43.658	0	78.90	0	10.9940	0	34.5650	8	26.440	0	78.254	0	261.1	4	96.8	4	-1E+10	1	-1E+10	1	-1E+10	1	-1E+10	1	-1E+10	1	-1E+10	1
4901784	159	C	11/11/2019	10:49	-132.779	43.658	0	80.50	0	10.9250	0	34.5590	8	26.448	0	79.841	0	260.5	4	96.4	4	-1E+10	1	-1E+10	1	-1E+10	1	-1E+10	1	-1E+10	1	-1E+10	1
4901784	159	C	11/11/2019	10:49	-132.779	43.658	0	82.10	0	10.8350	0	34.5570	8	26.462	0	81.427	0	259.4	4	95.8	4	-1E+10	1	-1E+10	1	-1E+10	1	-1E+10	1	-1E+10	1	-1E+10	1
4901784	159	C	11/11/2019	10:49	-132.779	43.658	0	83.60	0	10.7140	0	34.5470	8	26.476	0	82.915	0	258.5	4	95.3	4	-1E+10	1	-1E+10	1	-1E+10	1	-1E+10	1	-1E+10	1	-1E+10	1
4901784	159	C	11/11/2019	10:49	-132.779	43.658	0	85.30	0	10.6080	0	34.5470	8	26.495	0	84.601	0	257.3	4	94.6	4	-1E+10	1	-1E+10	1	-1E+10	1	-1E+10	1	-1E+10	1	-1E+10	1
4901784	159	C	11/11/2019	10:49	-132.779	43.658	0	86.90	0	10.4650	0	34.5450	8	26.519	0	86.187	0	256.6	4	94.1	4	-1E+10	1	-1E+10	1	-1E+10	1	-1E+10	1	-1E+10	1	-1E+10	1
4901784	159	C	11/11/2019	10:49	-132.779	43.658	0	88.50	0	10.3580	0	34.5490	8	26.540	0	87.774	0	255.7	4	93.5	4	-1E+10	1	-1E+10	1	-1E+10	1	-1E+10	1	-1E+10	1	-1E+10	1
4901784	159	C	11/11/2019	10:49	-132.779	43.658	0	90.20	0	10.3420	0	34.5440	8	26.539	0	89.459	0	254.9	4	93.2	4	-1E+10	1	-1E+10	1	-1E+10	1	-1E+10	1	-1E+10	1	-1E+10	1
4901784	159	C	11/11/2019	10:49	-132.779	43.658	0	91.80	0	10.3000	0	34.5390	8	26.543	0	91.046	0	253.2	4	92.5	4	-1E+10	1	-1E+10	1	-1E+10	1	-1E+10	1	-1E+10	1	-1E+10	1
4901784	159	C	11/11/2019	10:49	-132.779	43.658	0	93.50	0	10.1810	0	34.5390	8	26.563	0	92.731	0	252.0	4	91.8	4	-1E+10	1	-1E+10	1	-1E+10	1	-1E+10	1	-1E+10	1	-1E+10	1
4901784	159	C	11/11/2019	10:49	-132.779	43.658	0	95.20	0	9.9650	0	34.5490	8	26.608	0	94.417	0	251.2	4	91.1	4	-1E+10	1	-1E+10	1	-1E+10	1	-1E+10	1	-1E+10	1	-1E+10	1
4901784	159	C	11/11/2019	10:49	-132.779	43.658	0	96.80	0	9.9240	0	34.5490	8	26.615	0	96.004	0	250.8	4	90.9	4	-1E+10	1	-1E+10	1	-1E+10	1	-1E+10	1	-1E+10	1	-1E+10	1
4901784	159	C	11/11/2019	10:49	-132.779	43.658	0	98.60	0	9.8790	0	34.5460	8	26.620	0	97.788	0	250.0	4	90.5	4	-1E+10	1	-1E+10	1	-1E+10	1	-1E+10	1	-1E+10	1	-1E+10	1
4901784	159	C	11/11/2019	10:49	-132.779	43.658	0	100.20	0	9.8200	0	34.5450	8	26.629	0	99.375	0	249.7	4	90.3	4	-1E+10	1	-1E+10	1	-1E+10	1	-1E+10	1	-1E+10	1	-1E+10	1
4901784	159	C	11/11/2019	10:49	-132.779	43.658	0	102.80	0	9.7320	0	34.5420	8	26.642	0	101.953	0	248.4	4	89.7	4	-1E+10	1	-1E+10	1	-1E+10	1	-1E+10	1	-1E+10	1	-1E+10	1
4901784	159	C	11/11/2019	10:49	-132.779	43.658	0	105.40	0	9.6130	0	34.5440	8	26.663	0	104.531	0	247.2	4	89.0	4	-1E+10	1	-1E+10	1	-1E+10	1	-1E+10	1	-1E+10	1	-1E+10	1
4901784	159	C	11/11/2019	10:49	-132.779	43.658	0	107.10	0	9.5530	0	34.5450	8	26.674	0	106.216	0	246.5	4	88.6	4	-1E+10	1	-1E+10	1	-1E+10	1	-1E+10	1	-1E+10	1	-1E+10	1
4901784	159	C	11/11/2019	10:49	-132.779	43.658	0	109.70	0	9.4190	0	34.5550	8	26.704	0	108.794	0	245.3	4	87.9	4	-1E+10	1	-1E+10	1	-1E+10	1	-1E+10	1	-1E+10	1	-1E+10	1
4901784	159	C	11/11/2019	10:49	-132.779	43.658	0	112.10	0	9.3230	0	34.5670	8	26.729	0	111.174	0	244.1	4	87.3	4	-1E+10	1	-1E+10	1	-1E+10	1	-1E+10	1	-1E+10	1	-1E+10	1
4901784	159	C	11/11/2019	10:49	-132.779	43.658	0	114.80	0	9.2600	0	34.5820	8	26.751	0	113.851	0	242.1	4	86.5	4	-1E+10	1	-1E+10	1	-1E+10	1	-1E+10	1	-1E+10	1	-1E+10	1
4901784	159	C	11/11/2019	10:49	-132.779	43.658	0	117.40	0	9.1030	0	34.6050	8	26.795	0	116.428	0	239.7	4	85.4	4	-1E+10	1	-1E+10	1	-1E+10	1	-1E+10	1	-1E+10	1	-1E+10	1
4901784	159	C	11/11/2019	10:49	-132.779	43.658	0	119.60	0	9.0940	0	34.6190	8	26.807	0	118.609	0	237.5	4	84.6	4	-1E+10	1	-1E+10	1	-1E+10	1	-1E+10	1	-1E+10	1	-1E+10	1
4901784	159	C	11/11/2019	10:49	-132.779	43.658	0	122.40	0	8.8090	0	34.6800	8	26.900	0	121.385	0	234.8	4	83.1	4	-1E+10	1	-1E+10	1	-1E+10	1	-1E+10	1	-1E+10	1	-1E+10	1
4901784	159	C	11/11/2019	10:49	-132.779	43.658	0	125.30	0	8.6660	0	34.7140	8	26.950	0	124.261	0	232.2	4	81.9	4	-1E+10	1	-1E+10	1	-1E+10	1	-1E+10	1	-1E+10	1	-1E+10	1
4901784	159	C	11/11/2019	10:49	-132.779	43.658	0	127.60	0	8.5340	0	34.7660	8	27.011	0	126.541	0	229.7	4	80.9	4	-1E+10	1	-1E+10	1	-1E+10	1	-1E+10	1	-1E+10	1	-1E+10	1
4901784	159	C	11/11/2019	10:49	-132.779	43.658	0	130.00	0	8.4340	0	34.8160	8	27.066	0	128.920	0	227.7	4	80.0	4	-1E+10	1	-1E+10	1	-1E+10	1	-1E+10	1	-1E+10	1	-1E+10	1
4901784	159	C	11/11/2019	10:49	-132.779	43.658	0	132.30	0	8.2760	0	34.9180	8	27.170	0	131.200	0	225.4	4	79.0	4	-1E+10	1	-1E+10	1	-1E+10	1	-1E+10	1	-1E+10	1	-1E+10	1
4901784	159	C	11/11/2019	10:49	-132.779	43.658	0	134.80	0	8.2640	0	34.9340	8	27.184	0	133.679	0	224.1	4	78.5	4	-1E+10	1	-1E+10	1	-1E+10	1	-1E+10	1	-1E+10	1	-1E+10	1
4901784	159	C	11/11/2019	10:49	-132.779	43.658	0	137.40	0	8.2370	0	34.9620	8	27.211	0	136.256	0	222.5	4	77.9	4	-1E+10	1	-1E+10	1	-1E+10	1	-1E+10	1	-1E+10	1	-1E+10	1
4901784	159	C	11/11/2019	10:49	-132.779	43.658	0	139.80	0	8.1900	0	35.0020	8	27.249	0	138.635	0	220.6	4	77.2	4	-1E+10	1	-1E+10	1	-1E+10	1	-1E+10	1	-1E+10	1	-1E+10	1
4901784	159	C	11/11/2019	10:49	-132.779	43.658	0	142.30	0	8.1450	0	35.0350	8	27.282	0	141.114	0	218.5	4	76.4	4	-1E+10	1	-1E+10	1	-1E+10	1	-1E+10	1	-1E+10	1	-1E+10	1
4901784	159	C	11/11/2019	10:49	-132.779	43.658	0	145.00	0	8.0770	0	35.1010	8	27.344	0	143.790	0	216.5	4	75.6	4	-1E+10	1	-1E+10	1	-1E+10	1	-1E+10	1	-1E+10	1	-1E+10	1
4901784	159	C	11/11/2019	10:49	-132.779	43.658	0	147.70	0	8.0200	0	35.1410	8	27.384	0	146.467	0	214.7	4	74.9	4	-1E+10	1	-1E+10	1	-1E+10	1	-1E+10	1	-1E+10	1	-1E+10	1
4901784	159	C	11/11/2019	10:49	-132.779	43.658	0	149.60	0	8.0470	0	35.1820	8	27.412	0	148.350	0	213.0	4	74.4	4	-1E+10	1	-1E+10	1	-1E+10	1	-1E+10	1	-1E+10	1	-1E+10	1
4901784	159	C	11/11/2019	10:49	-132.779	43.658	0	152.30	0	8.0280	0	35.2250	8	27.449	0	151.027	0	211.1	4	73.7	4	-1E+10	1	-1E+10	1	-1E+10	1	-1E+10	1	-1E+10	1	-1E+10	1
4901784	159	C	11/11/2019	10:49	-132.779	43.658	0	154.60	0	7.9950	0	35.2630	8	27.484	0	153.307	0	209.3	4	73.1	4	-1E+10	1	-1E+10	1	-1E+10	1	-1E+10	1	-1E+10	1	-1E+10	1
4901784	159	C	11/11/2019	10:49	-132.779	43.658	0	157.50	0	8.0090	0	35.3160	8	27.524	0	156.181	0	206.3	4	72.1	4	-1E+10	1	-1E+10	1	-1E+10	1	-1E+10	1	-1E+10	1	-1E+10	1
4901784	159	C	11/11/2019	10:49	-132.779	43.658	0	159.80	0	8.0120	0	35.3500	8	27.550	0	158.461	0	204.1	4	71.4	4	-1E+10	1	-1E+10	1	-1E+10	1	-1E+10	1	-1E+10	1	-1E+10	1
4901784	159	C	11/11/2019	10:49	-132.779	43.658	0	162.20	0	8.0280	0	35.3870	8	27.577	0	160.840	0	201.7	4	70.5	4	-1E+10	1	-1E+10	1	-1E+10	1	-1E+10	1	-1E+10	1	-1E+10	1
4901784	159	C	11/11/2019	10:49	-132.779	43.658	0	165.30	0	8.0450	0	35.4500	8	27.623	0	163.913	0	199.3	4	69.7	4	-1E+10	1	-1E+10	1	-1E+10	1	-1E+10	1	-1E+10	1	-1E+10	1
4901784	159	C	11/11/2019	10:49	-132.779	43.658	0	167.70	0	8.0380	0	35.4620	8	27.634	0	166.292	0	197.7	4	69.2	4	-1E+10	1	-1E+10	1	-1E+10	1	-1E+10	1	-1E+10	1	-1E+10	1
4901784	159	C	11/11/2019	10:49	-132.779	43.658	0	170.00	0	8.0390	0	35.4890	8	27.655	0	168.572	0	194.6	4	68.1	4	-1E+10	1	-1E+10	1	-1E+10	1	-1E+10	1	-1E+10	1	-1E+10	1
4901784	159	C	11/11/2019	10:49	-132.779	43.658	0	172.50	0	8.0420	0	35.5660	8	27.715	0	171.049	0	190.6	4	66.8	4	-1E+10	1	-1E+10	1	-1E+10	1	-1E+10	1	-1E+10	1	-1E+10	1
4901784	159	C	11/11/2019	10:49	-132.779	43.658	0	175.00	0	8.0460	0	35.5890	8	27.733	0	173.527	0	186.1	4	65.2	4	-1E+10	1	-1E+10	1	-1E+10	1	-1E+10	1	-1E+10	1	-1E+10	1
4901784	159	C	11/11/2019	10:49	-132.779	43.658	0	177.60	0	8.1090	0	35.6690	8	27.786	0	176.104	0	180.5	4	63.4	4	-1E+10	1	-1E+10	1	-1E+10	1	-1E+10	1	-1E+10	1	-1E+10	1
4901784	159	C	11/11/2019	10:49	-132.779	43.658	0	180.20	0	8.1410	0	35.7140	8	27.817	0	178.681	0	175.7	4	61.8	4	-1E+10	1	-1E+10	1	-1E+10	1	-1E+10	1	-1E+10	1	-1E+10	1
4901784	159	C	11/11/2019	10:49	-132.779	43.658	0	183.30	0	8.1850	0	35.7930	8	27.872	0	181.754	0	171.1	4	60.2	4	-1E+10	1	-1E+10	1	-1E+10	1	-1E+10	1	-1E+10	1	-1E+10	1
4901784	159	C	11/11/2019	10:49	-132.779	43.658	0	184.90	0	8.1910	0	35.8130	8	27.887	0	183.340	0	168.9	4	59.5	4	-1E+10	1	-1E+10	1	-1E+10	1	-1E+10	1	-1E+10	1	-1E+10	1
4901784	159	C	11/11/2019	10:49	-132.779	43.658	0	187.20	0	8.2010	0	35.8430	8	27.909	0	185.619	0	165.6	4	58.3	4	-1E+10	1	-1E+10	1	-1E+10	1	-1E+10	1	-1E+10	1	-1E+10	1
4901784	159	C	11/11/2019	10:49	-132.779	43.658	0	190.30	0	8.2120	0	35.8910	8	27.945	0	188.692	0	161.5	4	56.9	4	-1E+10	1	-1E+10	1	-1E+10	1	-1E+10	1	-1E+10	1	-1E+10	1
4901784	159	C	11/11/2019	10:49	-132.779	43.658	0	192.70	0	8.2140	0	35.9130	8	27.962	0	191.070	0	158.0	4	55.7	4	-1E+10	1	-1E+10	1	-1E+10	1	-1E+10	1	-1E+10	1	-1E+10	1
4901784	159	C	11/11/2019	10:49	-132.779	43.658	0	195.10	0	8.2260	0	35.9420	8	27.983	0	193.449	0	154.1	4	54.3	4	-1E+10	1	-1E+10	1	-1E+10	1	-1E+10	1	-1E+10	1	-1E+10	1
4901784	159	C	11/11/2019	10:49	-132.779	43.658	0	197.60	0	8.2320	0	35.9710	8	28.005	0	195.927	0	151.9	4	53.6	4	-1E+10	1	-1E+10	1	-1E+10	1	-1E+10	1	-1E+10	1	-1E+10	1
4901784	159	C	11/11/2019	10:49	-132.779	43.658	0	200.00	0	8.2270	0	35.9810	8	28.013	0	198.305	0	150.2	4	53.0	4	-1E+10	1	-1E+10	1	-1E+10	1	-1E+10	1	-1E+10	1	-1E+10	1
4901784	159	C	11/11/2019	10:49	-132.779	43.658	0	202.50	0	8.2150	0	35.9960	8	28.027	0	200.783	0	148.4	4	52.3	4	-1E+10	1	-1E+10	1	-1E+10	1	-1E+10	1	-1E+10	1	-1E+10	1
4901784	159	C	11/11/2019	10:49	-132.779	43.658	0	205.00	0	8.2070	0	36.0100	8	28.039	0	203.260	0	147.1	4	51.9	4	-1E+10	1	-1E+10	1	-1E+10	1	-1E+10	1	-1E+10	1	-1E+10	1
4901784	159	C	11/11/2019	10:49	-132.779	43.658	0	207.50	0	8.2010	0	36.0180	8	28.047	0	205.738	0	146.3	4	51.6	4	-1E+10	1	-1E+10	1	-1E+10	1	-1E+10	1	-1E+10	1	-1E+10	1
4901784	159	C	11/11/2019	10:49	-132.779	43.658	0	210.10	0	8.1890	0	36.0300	8	28.058	0	208.314	0	145.8	4	51.4	4	-1E+10	1	-1E+10	1	-1E+10	1	-1E+10	1	-1E+10	1	-1E+10	1
4901784	159	C	11/11/2019	10:49	-132.779	43.658	0	212.70	0	8.1810	0	36.0360	8	28.064	0	210.891	0	145.6	4	51.3	4	-1E+10	1	-1E+10	1	-1E+10	1	-1E+10	1	-1E+10	1	-1E+10	1
4901784	159	C	11/11/2019	10:49	-132.779	43.658	0	215.30	0	8.1710	0	36.0420	8	28.070	0	213.467	0	145.8	4	51.4	4	-1E+10	1	-1E+10	1	-1E+10	1	-1E+10	1	-1E+10	1	-1E+10	1
4901784	159	C	11/11/2019	10:49	-132.779	43.658	0	218.00	0	8.1560	0	36.0490	8	28.078	0	216.143	0	147.0	4	51.8	4	-1E+10	1	-1E+10	1	-1E+10	1	-1E+10	1	-1E+10	1	-1E+10	1
4901784	159	C	11/11/2019	10:49	-132.779	43.658	0	219.80	0	8.1280	0	36.0620	8	28.093	0	217.927	0	148.5	4	52.3	4	-1E+10	1	-1E+10	1	-1E+10	1	-1E+10	1	-1E+10	1	-1E+10	1
4901784	159	C	11/11/2019	10:49	-132.779	43.658	0	222.50	0	8.0900	0	36.0840	8	28.116	0	220.602	0	151.6	4	53.4	4	-1E+10	1	-1E+10	1	-1E+10	1	-1E+10	1	-1E+10	1	-1E+10	1
4901784	159	C	11/11/2019	10:49	-132.779	43.658	0	225.30	0	8.0730	0	36.0940	8	28.126	0	223.377	0	153.2	4	53.9	4	-1E+10	1	-1E+10	1	-1E+10	1	-1E+10	1	-1E+10	1	-1E+10	1
4901784	159	C	11/11/2019	10:49	-132.779	43.658	0	227.10	0	8.0660	0	36.0950	8	28.128	0	225.161	0	153.1	4	53.9	4	-1E+10	1	-1E+10	1	-1E+10	1	-1E+10	1	-1E+10	1	-1E+10	1
4901784	159	C	11/11/2019	10:49	-132.779	43.658	0	229.80	0	8.0330	0	36.1010	8	28.138	0	227.836	0	152.0	4	53.5	4	-1E+10	1	-1E+10	1	-1E+10	1	-1E+10	1	-1E+10	1	-1E+10	1
4901784	159	C	11/11/2019	10:49	-132.779	43.658	0	232.50	0	7.9870	0	36.1060	8	28.149	0	230.511	0	151.2	4	53.1	4	-1E+10	1	-1E+10	1	-1E+10	1	-1E+10	1	-1E+10	1	-1E+10	1
4901784	159	C	11/11/2019	10:49	-132.779	43.658	0	235.20	0	7.9640	0	36.1080	8	28.154	0	233.187	0	150.4	4	52.8	4	-1E+10	1	-1E+10	1	-1E+10	1	-1E+10	1	-1E+10	1	-1E+10	1
4901784	159	C	11/11/2019	10:49	-132.779	43.658	0	237.90	0	7.9380	0	36.1080	8	28.158	0	235.862	0	149.1	4	52.3	4	-1E+10	1	-1E+10	1	-1E+10	1	-1E+10	1	-1E+10	1	-1E+10	1
4901784	159	C	11/11/2019	10:49	-132.779	43.658	0	239.80	0	7.9040	0	36.1110	8	28.166	0	237.745	0	148.2	4	52.0	4	-1E+10	1	-1E+10	1	-1E+10	1	-1E+10	1	-1E+10	1	-1E+10	1
4901784	159	C	11/11/2019	10:49	-132.779	43.658	0	242.50	0	7.8440	0	36.1150	8	28.178	0	240.420	0	146.2	4	51.2	4	-1E+10	1	-1E+10	1	-1E+10	1	-1E+10	1	-1E+10	1	-1E+10	1
4901784	159	C	11/11/2019	10:49	-132.779	43.658	0	245.20	0	7.7870	0	36.1150	8	28.186	0	243.095	0	145.1	4	50.7	4	-1E+10	1	-1E+10	1	-1E+10	1	-1E+10	1	-1E+10	1	-1E+10	1
4901784	159	C	11/11/2019	10:49	-132.779	43.658	0	247.10	0	7.7760	0	36.1170	8	28.190	0	244.978	0	144.4	4	50.5	4	-1E+10	1	-1E+10	1	-1E+10	1	-1E+10	1	-1E+10	1	-1E+10	1
4901784	159	C	11/11/2019	10:49	-132.779	43.658	0	249.80	0	7.7570	0	36.1160	8	28.192	0	247.653	0	141.3	4	49.4	4	-1E+10	1	-1E+10	1	-1E+10	1	-1E+10	1	-1E+10	1	-1E+10	1
4901784	159	C	11/11/2019	10:49	-132.779	43.658	0	252.50	0	7.7030	0	36.1180	8	28.201	0	250.328	0	137.2	4	47.9	4	-1E+10	1	-1E+10	1	-1E+10	1	-1E+10	1	-1E+10	1	-1E+10	1
4901784	159	C	11/11/2019	10:49	-132.779	43.658	0	255.20	0	7.6690	0	36.1160	8	28.205	0	253.003	0	132.3	4	46.2	4	-1E+10	1	-1E+10	1	-1E+10	1	-1E+10	1	-1E+10	1	-1E+10	1
4901784	159	C	11/11/2019	10:49	-132.779	43.658	0	257.90	0	7.6450	0	36.1140	8	28.207	0	255.679	0	129.5	4	45.1	4	-1E+10	1	-1E+10	1	-1E+10	1	-1E+10	1	-1E+10	1	-1E+10	1
4901784	159	C	11/11/2019	10:49	-132.779	43.658	0	259.80	0	7.6100	0	36.1150	8	28.213	0	257.561	0	129.0	4	44.9	4	-1E+10	1	-1E+10	1	-1E+10	1	-1E+10	1	-1E+10	1	-1E+10	1
4901784	159	C	11/11/2019	10:49	-132.779	43.658	0	262.60	0	7.5680	0	36.1150	8	28.219	0	260.335	0	130.1	4	45.3	4	-1E+10	1	-1E+10	1	-1E+10	1	-1E+10	1	-1E+10	1	-1E+10	1
4901784	159	C	11/11/2019	10:49	-132.779	43.658	0	265.40	0	7.5180	0	36.1170	8	28.228	0	263.109	0	131.0	4	45.5	4	-1E+10	1	-1E+10	1	-1E+10	1	-1E+10	1	-1E+10	1	-1E+10	1
4901784	159	C	11/11/2019	10:49	-132.779	43.658	0	267.20	0	7.4820	0	36.1180	8	28.234	0	264.893	0	130.7	4	45.4	4	-1E+10	1	-1E+10	1	-1E+10	1	-1E+10	1	-1E+10	1	-1E+10	1
4901784	159	C	11/11/2019	10:49	-132.779	43.658	0	270.00	0	7.4250	0	36.1190	8	28.244	0	267.667	0	131.3	4	45.5	4	-1E+10	1	-1E+10	1	-1E+10	1	-1E+10	1	-1E+10	1	-1E+10	1
4901784	159	C	11/11/2019	10:49	-132.779	43.658	0	272.80	0	7.3880	0	36.1190	8	28.249	0	270.440	0	132.0	4	45.7	4	-1E+10	1	-1E+10	1	-1E+10	1	-1E+10	1	-1E+10	1	-1E+10	1
4901784	159	C	11/11/2019	10:49	-132.779	43.658	0	274.70	0	7.3550	0	36.1210	8	28.255	0	272.323	0	132.1	4	45.7	4	-1E+10	1	-1E+10	1	-1E+10	1	-1E+10	1	-1E+10	1	-1E+10	1
4901784	159	C	11/11/2019	10:49	-132.779	43.658	0	277.50	0	7.3310	0	36.1180	8	28.257	0	275.097	0	131.3	4	45.5	4	-1E+10	1	-1E+10	1	-1E+10	1	-1E+10	1	-1E+10	1	-1E+10	1
4901784	159	C	11/11/2019	10:49	-132.779	43.658	0	280.40	0	7.2970	0	36.1180	8	28.262	0	277.970	0	130.1	4	45.0	4	-1E+10	1	-1E+10	1	-1E+10	1	-1E+10	1	-1E+10	1	-1E+10	1
4901784	159	C	11/11/2019	10:49	-132.779	43.658	0	282.20	0	7.2450	0	36.1210	8	28.271	0	279.753	0	130.3	4	45.0	4	-1E+10	1	-1E+10	1	-1E+10	1	-1E+10	1	-1E+10	1	-1E+10	1
4901784	159	C	11/11/2019	10:49	-132.779	43.658	0	285.00	0	7.1860	0	36.1200	8	28.279	0	282.527	0	130.5	4	45.0	4	-1E+10	1	-1E+10	1	-1E+10	1	-1E+10	1	-1E+10	1	-1E+10	1
4901784	159	C	11/11/2019	10:49	-132.779	43.658	0	287.90	0	7.1640	0	36.1190	8	28.282	0	285.399	0	128.9	4	44.5	4	-1E+10	1	-1E+10	1	-1E+10	1	-1E+10	1	-1E+10	1	-1E+10	1
4901784	159	C	11/11/2019	10:49	-132.779	43.658	0	289.80	0	7.1320	0	36.1210	8	28.288	0	287.282	0	128.0	4	44.1	4	-1E+10	1	-1E+10	1	-1E+10	1	-1E+10	1	-1E+10	1	-1E+10	1
4901784	159	C	11/11/2019	10:49	-132.779	43.658	0	292.70	0	7.1060	0	36.1200	8	28.291	0	290.154	0	126.9	4	43.7	4	-1E+10	1	-1E+10	1	-1E+10	1	-1E+10	1	-1E+10	1	-1E+10	1
4901784	159	C	11/11/2019	10:49	-132.779	43.658	0	295.60	0	7.0740	0	36.1220	8	28.297	0	293.027	0	126.0	4	43.4	4	-1E+10	1	-1E+10	1	-1E+10	1	-1E+10	1	-1E+10	1	-1E+10	1
4901784	159	C	11/11/2019	10:49	-132.779	43.658	0	297.60	0	7.0660	0	36.1210	8	28.297	0	295.008	0	125.5	4	43.2	4	-1E+10	1	-1E+10	1	-1E+10	1	-1E+10	1	-1E+10	1	-1E+10	1
4901784	159	C	11/11/2019	10:49	-132.779	43.658	0	299.50	0	7.0520	0	36.1200	8	28.299	0	296.890	0	124.7	4	42.9	4	-1E+10	1	-1E+10	1	-1E+10	1	-1E+10	1	-1E+10	1	-1E+10	1
4901784	159	C	11/11/2019	10:49	-132.779	43.658	0	302.40	0	7.0050	0	36.1210	8	28.306	0	299.763	0	123.4	4	42.4	4	-1E+10	1	-1E+10	1	-1E+10	1	-1E+10	1	-1E+10	1	-1E+10	1
4901784	159	C	11/11/2019	10:49	-132.779	43.658	0	305.30	0	6.9780	0	36.1210	8	28.310	0	302.636	0	122.2	4	42.0	4	-1E+10	1	-1E+10	1	-1E+10	1	-1E+10	1	-1E+10	1	-1E+10	1
4901784	159	C	11/11/2019	10:49	-132.779	43.658	0	307.20	0	6.9560	0	36.1210	8	28.313	0	304.518	0	121.3	4	41.6	4	-1E+10	1	-1E+10	1	-1E+10	1	-1E+10	1	-1E+10	1	-1E+10	1
4901784	159	C	11/11/2019	10:49	-132.779	43.658	0	310.10	0	6.9270	0	36.1220	8	28.318	0	307.390	0	120.1	4	41.2	4	-1E+10	1	-1E+10	1	-1E+10	1	-1E+10	1	-1E+10	1	-1E+10	1
4901784	159	C	11/11/2019	10:49	-132.779	43.658	0	313.00	0	6.9150	0	36.1210	8	28.319	0	310.263	0	118.7	4	40.7	4	-1E+10	1	-1E+10	1	-1E+10	1	-1E+10	1	-1E+10	1	-1E+10	1
4901784	159	C	11/11/2019	10:49	-132.779	43.658	0	314.90	0	6.9040	0	36.1200	8	28.320	0	312.145	0	117.6	4	40.3	4	-1E+10	1	-1E+10	1	-1E+10	1	-1E+10	1	-1E+10	1	-1E+10	1
4901784	159	C	11/11/2019	10:49	-132.779	43.658	0	316.80	0	6.8450	0	36.1230	8	28.330	0	314.027	0	116.6	4	39.9	4	-1E+10	1	-1E+10	1	-1E+10	1	-1E+10	1	-1E+10	1	-1E+10	1
4901784	159	C	11/11/2019	10:49	-132.779	43.658	0	319.70	0	6.8110	0	36.1220	8	28.334	0	316.899	0	114.9	4	39.3	4	-1E+10	1	-1E+10	1	-1E+10	1	-1E+10	1	-1E+10	1	-1E+10	1
4901784	159	C	11/11/2019	10:49	-132.779	43.658	0	322.60	0	6.7760	0	36.1210	8	28.338	0	319.771	0	112.8	4	38.6	4	-1E+10	1	-1E+10	1	-1E+10	1	-1E+10	1	-1E+10	1	-1E+10	1
4901784	159	C	11/11/2019	10:49	-132.779	43.658	0	324.50	0	6.7430	0	36.1230	8	28.345	0	321.653	0	111.5	4	38.1	4	-1E+10	1	-1E+10	1	-1E+10	1	-1E+10	1	-1E+10	1	-1E+10	1
4901784	159	C	11/11/2019	10:49	-132.779	43.658	0	327.40	0	6.7090	0	36.1240	8	28.350	0	324.525	0	109.8	4	37.5	4	-1E+10	1	-1E+10	1	-1E+10	1	-1E+10	1	-1E+10	1	-1E+10	1
4901784	159	C	11/11/2019	10:49	-132.779	43.658	0	330.30	0	6.6400	0	36.1250	8	28.361	0	327.398	0	109.0	4	37.1	4	-1E+10	1	-1E+10	1	-1E+10	1	-1E+10	1	-1E+10	1	-1E+10	1
4901784	159	C	11/11/2019	10:49	-132.779	43.658	0	332.30	0	6.6340	0	36.1230	8	28.360	0	329.379	0	108.2	4	36.9	4	-1E+10	1	-1E+10	1	-1E+10	1	-1E+10	1	-1E+10	1	-1E+10	1
4901784	159	C	11/11/2019	10:49	-132.779	43.658	0	334.30	0	6.6100	0	36.1230	8	28.363	0	331.359	0	107.3	4	36.5	4	-1E+10	1	-1E+10	1	-1E+10	1	-1E+10	1	-1E+10	1	-1E+10	1
4901784	159	C	11/11/2019	10:49	-132.779	43.658	0	337.40	0	6.5580	0	36.1230	8	28.370	0	334.430	0	105.5	4	35.9	4	-1E+10	1	-1E+10	1	-1E+10	1	-1E+10	1	-1E+10	1	-1E+10	1
4901784	159	C	11/11/2019	10:49	-132.779	43.658	0	340.30	0	6.4760	0	36.1250	8	28.383	0	337.302	0	103.8	4	35.2	4	-1E+10	1	-1E+10	1	-1E+10	1	-1E+10	1	-1E+10	1	-1E+10	1
4901784	159	C	11/11/2019	10:49	-132.779	43.658	0	342.70	0	6.4430	0	36.1250	8	28.388	0	339.679	0	102.7	4	34.8	4	-1E+10	1	-1E+10	1	-1E+10	1	-1E+10	1	-1E+10	1	-1E+10	1
4901784	159	C	11/11/2019	10:49	-132.779	43.658	0	345.10	0	6.3840	0	36.1280	8	28.398	0	342.055	0	101.5	4	34.4	4	-1E+10	1	-1E+10	1	-1E+10	1	-1E+10	1	-1E+10	1	-1E+10	1
4901784	159	C	11/11/2019	10:49	-132.779	43.658	0	347.60	0	6.3370	0	36.1280	8	28.404	0	344.531	0	100.7	4	34.1	4	-1E+10	1	-1E+10	1	-1E+10	1	-1E+10	1	-1E+10	1	-1E+10	1
4901784	159	C	11/11/2019	10:49	-132.779	43.658	0	350.00	0	6.3040	0	36.1270	8	28.408	0	346.908	0	99.9	4	33.8	4	-1E+10	1	-1E+10	1	-1E+10	1	-1E+10	1	-1E+10	1	-1E+10	1
4901784	159	C	11/11/2019	10:49	-132.779	43.658	0	352.50	0	6.2710	0	36.1290	8	28.414	0	349.384	0	99.4	4	33.6	4	-1E+10	1	-1E+10	1	-1E+10	1	-1E+10	1	-1E+10	1	-1E+10	1
4901784	159	C	11/11/2019	10:49	-132.779	43.658	0	355.00	0	6.2510	0	36.1280	8	28.416	0	351.860	0	98.9	4	33.4	4	-1E+10	1	-1E+10	1	-1E+10	1	-1E+10	1	-1E+10	1	-1E+10	1
4901784	159	C	11/11/2019	10:49	-132.779	43.658	0	357.50	0	6.2170	0	36.1270	8	28.420	0	354.335	0	98.5	4	33.3	4	-1E+10	1	-1E+10	1	-1E+10	1	-1E+10	1	-1E+10	1	-1E+10	1
4901784	159	C	11/11/2019	10:49	-132.779	43.658	0	360.00	0	6.1720	0	36.1270	8	28.426	0	356.811	0	98.3	4	33.1	4	-1E+10	1	-1E+10	1	-1E+10	1	-1E+10	1	-1E+10	1	-1E+10	1
4901784	159	C	11/11/2019	10:49	-132.779	43.658	0	362.50	0	6.1300	0	36.1260	8	28.430	0	359.287	0	98.1	4	33.0	4	-1E+10	1	-1E+10	1	-1E+10	1	-1E+10	1	-1E+10	1	-1E+10	1
4901784	159	C	11/11/2019	10:49	-132.779	43.658	0	365.10	0	6.0720	0	36.1250	8	28.437	0	361.862	0	97.7	4	32.9	4	-1E+10	1	-1E+10	1	-1E+10	1	-1E+10	1	-1E+10	1	-1E+10	1
4901784	159	C	11/11/2019	10:49	-132.779	43.658	0	367.60	0	6.0380	0	36.1250	8	28.442	0	364.337	0	97.1	4	32.7	4	-1E+10	1	-1E+10	1	-1E+10	1	-1E+10	1	-1E+10	1	-1E+10	1
4901784	159	C	11/11/2019	10:49	-132.779	43.658	0	370.00	0	6.0040	0	36.1250	8	28.446	0	366.714	0	96.7	4	32.5	4	-1E+10	1	-1E+10	1	-1E+10	1	-1E+10	1	-1E+10	1	-1E+10	1
4901784	159	C	11/11/2019	10:49	-132.779	43.658	0	372.60	0	5.9990	0	36.1240	8	28.446	0	369.288	0	95.8	4	32.2	4	-1E+10	1	-1E+10	1	-1E+10	1	-1E+10	1	-1E+10	1	-1E+10	1
4901784	159	C	11/11/2019	10:49	-132.779	43.658	0	375.20	0	5.9700	0	36.1250	8	28.451	0	371.863	0	94.6	4	31.8	4	-1E+10	1	-1E+10	1	-1E+10	1	-1E+10	1	-1E+10	1	-1E+10	1
4901784	159	C	11/11/2019	10:49	-132.779	43.658	0	377.70	0	5.9560	0	36.1250	8	28.453	0	374.338	0	93.4	4	31.3	4	-1E+10	1	-1E+10	1	-1E+10	1	-1E+10	1	-1E+10	1	-1E+10	1
4901784	159	C	11/11/2019	10:49	-132.779	43.658	0	380.30	0	5.9220	0	36.1260	8	28.458	0	376.913	0	92.5	4	31.0	4	-1E+10	1	-1E+10	1	-1E+10	1	-1E+10	1	-1E+10	1	-1E+10	1
4901784	159	C	11/11/2019	10:49	-132.779	43.658	0	382.90	0	5.8920	0	36.1240	8	28.460	0	379.487	0	91.7	4	30.7	4	-1E+10	1	-1E+10	1	-1E+10	1	-1E+10	1	-1E+10	1	-1E+10	1
4901784	159	C	11/11/2019	10:49	-132.779	43.658	0	385.40	0	5.8400	0	36.1240	8	28.467	0	381.963	0	90.8	4	30.4	4	-1E+10	1	-1E+10	1	-1E+10	1	-1E+10	1	-1E+10	1	-1E+10	1
4901784	159	C	11/11/2019	10:49	-132.779	43.658	0	387.20	0	5.7980	0	36.1250	8	28.473	0	383.745	0	90.3	4	30.2	4	-1E+10	1	-1E+10	1	-1E+10	1	-1E+10	1	-1E+10	1	-1E+10	1
4901784	159	C	11/11/2019	10:49	-132.779	43.658	0	389.80	0	5.7570	0	36.1260	8	28.479	0	386.319	0	89.4	4	29.9	4	-1E+10	1	-1E+10	1	-1E+10	1	-1E+10	1	-1E+10	1	-1E+10	1
4901784	159	C	11/11/2019	10:49	-132.779	43.658	0	392.30	0	5.7330	0	36.1260	8	28.482	0	388.795	0	88.7	4	29.6	4	-1E+10	1	-1E+10	1	-1E+10	1	-1E+10	1	-1E+10	1	-1E+10	1
4901784	159	C	11/11/2019	10:49	-132.779	43.658	0	395.00	0	5.6960	0	36.1260	8	28.487	0	391.468	0	87.8	4	29.3	4	-1E+10	1	-1E+10	1	-1E+10	1	-1E+10	1	-1E+10	1	-1E+10	1
4901784	159	C	11/11/2019	10:49	-132.779	43.658	0	397.60	0	5.6550	0	36.1280	8	28.494	0	394.042	0	86.9	4	28.9	4	-1E+10	1	-1E+10	1	-1E+10	1	-1E+10	1	-1E+10	1	-1E+10	1
4901784	159	C	11/11/2019	10:49	-132.779	43.658	0	400.20	0	5.6360	0	36.1260	8	28.495	0	396.617	0	85.8	4	28.6	4	-1E+10	1	-1E+10	1	-1E+10	1	-1E+10	1	-1E+10	1	-1E+10	1
4901784	159	C	11/11/2019	10:49	-132.779	43.658	0	402.80	0	5.6120	0	36.1280	8	28.499	0	399.191	0	84.9	4	28.3	4	-1E+10	1	-1E+10	1	-1E+10	1	-1E+10	1	-1E+10	1	-1E+10	1
4901784	159	C	11/11/2019	10:49	-132.779	43.658	0	404.50	0	5.5610	0	36.1280	8	28.506	0	400.874	0	84.6	4	28.1	4	-1E+10	1	-1E+10	1	-1E+10	1	-1E+10	1	-1E+10	1	-1E+10	1
4901784	159	C	11/11/2019	10:49	-132.779	43.658	0	407.10	0	5.5110	0	36.1290	8	28.513	0	403.448	0	83.9	4	27.9	4	-1E+10	1	-1E+10	1	-1E+10	1	-1E+10	1	-1E+10	1	-1E+10	1
4901784	159	C	11/11/2019	10:49	-132.779	43.658	0	409.70	0	5.4850	0	36.1290	8	28.516	0	406.022	0	83.2	4	27.6	4	-1E+10	1	-1E+10	1	-1E+10	1	-1E+10	1	-1E+10	1	-1E+10	1
4901784	159	C	11/11/2019	10:49	-132.779	43.658	0	412.30	0	5.4560	0	36.1320	8	28.522	0	408.596	0	82.5	4	27.4	4	-1E+10	1	-1E+10	1	-1E+10	1	-1E+10	1	-1E+10	1	-1E+10	1
4901784	159	C	11/11/2019	10:49	-132.779	43.658	0	414.90	0	5.4460	0	36.1320	8	28.523	0	411.170	0	81.8	4	27.1	4	-1E+10	1	-1E+10	1	-1E+10	1	-1E+10	1	-1E+10	1	-1E+10	1
4901784	159	C	11/11/2019	10:49	-132.779	43.658	0	417.60	0	5.4390	0	36.1330	8	28.525	0	413.844	0	80.9	4	26.8	4	-1E+10	1	-1E+10	1	-1E+10	1	-1E+10	1	-1E+10	1	-1E+10	1
4901784	159	C	11/11/2019	10:49	-132.779	43.658	0	420.30	0	5.4280	0	36.1330	8	28.526	0	416.517	0	80.0	4	26.5	4	-1E+10	1	-1E+10	1	-1E+10	1	-1E+10	1	-1E+10	1	-1E+10	1
4901784	159	C	11/11/2019	10:49	-132.779	43.658	0	422.10	0	5.4000	0	36.1320	8	28.529	0	418.299	0	79.3	4	26.3	4	-1E+10	1	-1E+10	1	-1E+10	1	-1E+10	1	-1E+10	1	-1E+10	1
4901784	159	C	11/11/2019	10:49	-132.779	43.658	0	424.80	0	5.3590	0	36.1370	8	28.538	0	420.971	0	78.3	4	25.9	4	-1E+10	1	-1E+10	1	-1E+10	1	-1E+10	1	-1E+10	1	-1E+10	1
4901784	159	C	11/11/2019	10:49	-132.779	43.658	0	427.40	0	5.3510	0	36.1380	8	28.540	0	423.545	0	77.3	4	25.6	4	-1E+10	1	-1E+10	1	-1E+10	1	-1E+10	1	-1E+10	1	-1E+10	1
4901784	159	C	11/11/2019	10:49	-132.779	43.658	0	430.00	0	5.3440	0	36.1400	8	28.542	0	426.119	0	76.2	4	25.2	4	-1E+10	1	-1E+10	1	-1E+10	1	-1E+10	1	-1E+10	1	-1E+10	1
4901784	159	C	11/11/2019	10:49	-132.779	43.658	0	432.70	0	5.3360	0	36.1400	8	28.543	0	428.792	0	74.9	4	24.8	4	-1E+10	1	-1E+10	1	-1E+10	1	-1E+10	1	-1E+10	1	-1E+10	1
4901784	159	C	11/11/2019	10:49	-132.779	43.658	0	434.50	0	5.3220	0	36.1410	8	28.546	0	430.574	0	73.9	4	24.4	4	-1E+10	1	-1E+10	1	-1E+10	1	-1E+10	1	-1E+10	1	-1E+10	1
4901784	159	C	11/11/2019	10:49	-132.779	43.658	0	437.30	0	5.3060	0	36.1460	8	28.552	0	433.346	0	72.2	4	23.9	4	-1E+10	1	-1E+10	1	-1E+10	1	-1E+10	1	-1E+10	1	-1E+10	1
4901784	159	C	11/11/2019	10:49	-132.779	43.658	0	440.00	0	5.2930	0	36.1480	8	28.555	0	436.019	0	70.5	4	23.3	4	-1E+10	1	-1E+10	1	-1E+10	1	-1E+10	1	-1E+10	1	-1E+10	1
4901784	159	C	11/11/2019	10:49	-132.779	43.658	0	442.70	0	5.2550	0	36.1540	8	28.564	0	438.691	0	68.9	4	22.7	4	-1E+10	1	-1E+10	1	-1E+10	1	-1E+10	1	-1E+10	1	-1E+10	1
4901784	159	C	11/11/2019	10:49	-132.779	43.658	0	445.30	0	5.2340	0	36.1610	8	28.573	0	441.265	0	67.2	4	22.2	4	-1E+10	1	-1E+10	1	-1E+10	1	-1E+10	1	-1E+10	1	-1E+10	1
4901784	159	C	11/11/2019	10:49	-132.779	43.658	0	447.10	0	5.2250	0	36.1620	8	28.575	0	443.047	0	66.3	4	21.9	4	-1E+10	1	-1E+10	1	-1E+10	1	-1E+10	1	-1E+10	1	-1E+10	1
4901784	159	C	11/11/2019	10:49	-132.779	43.658	0	449.90	0	5.2330	0	36.1660	8	28.577	0	445.818	0	64.9	4	21.4	4	-1E+10	1	-1E+10	1	-1E+10	1	-1E+10	1	-1E+10	1	-1E+10	1
4901784	159	C	11/11/2019	10:49	-132.779	43.658	0	452.60	0	5.2230	0	36.1680	8	28.580	0	448.491	0	63.5	4	20.9	4	-1E+10	1	-1E+10	1	-1E+10	1	-1E+10	1	-1E+10	1	-1E+10	1
4901784	159	C	11/11/2019	10:49	-132.779	43.658	0	455.30	0	5.2340	0	36.1740	8	28.583	0	451.163	0	62.0	4	20.4	4	-1E+10	1	-1E+10	1	-1E+10	1	-1E+10	1	-1E+10	1	-1E+10	1
4901784	159	C	11/11/2019	10:49	-132.779	43.658	0	458.00	0	5.2280	0	36.1760	8	28.585	0	453.836	0	60.7	4	20.0	4	-1E+10	1	-1E+10	1	-1E+10	1	-1E+10	1	-1E+10	1	-1E+10	1
4901784	159	C	11/11/2019	10:49	-132.779	43.658	0	459.80	0	5.2230	0	36.1820	8	28.591	0	455.618	0	60.1	4	19.8	4	-1E+10	1	-1E+10	1	-1E+10	1	-1E+10	1	-1E+10	1	-1E+10	1
4901784	159	C	11/11/2019	10:49	-132.779	43.658	0	462.50	0	5.1820	0	36.1840	8	28.597	0	458.290	0	59.6	4	19.7	4	-1E+10	1	-1E+10	1	-1E+10	1	-1E+10	1	-1E+10	1	-1E+10	1
4901784	159	C	11/11/2019	10:49	-132.779	43.658	0	465.10	0	5.1400	0	36.1860	8	28.604	0	460.864	0	59.1	4	19.5	4	-1E+10	1	-1E+10	1	-1E+10	1	-1E+10	1	-1E+10	1	-1E+10	1
4901784	159	C	11/11/2019	10:49	-132.779	43.658	0	467.80	0	5.1250	0	36.1850	8	28.605	0	463.536	0	58.2	4	19.2	4	-1E+10	1	-1E+10	1	-1E+10	1	-1E+10	1	-1E+10	1	-1E+10	1
4901784	159	C	11/11/2019	10:49	-132.779	43.658	0	470.60	0	5.1160	0	36.1840	8	28.605	0	466.307	0	56.9	4	18.7	4	-1E+10	1	-1E+10	1	-1E+10	1	-1E+10	1	-1E+10	1	-1E+10	1
4901784	159	C	11/11/2019	10:49	-132.779	43.658	0	472.40	0	5.0790	0	36.1910	8	28.615	0	468.089	0	56.0	4	18.4	4	-1E+10	1	-1E+10	1	-1E+10	1	-1E+10	1	-1E+10	1	-1E+10	1
4901784	159	C	11/11/2019	10:49	-132.779	43.658	0	475.20	0	5.0690	0	36.1940	8	28.619	0	470.860	0	54.7	4	18.0	4	-1E+10	1	-1E+10	1	-1E+10	1	-1E+10	1	-1E+10	1	-1E+10	1
4901784	159	C	11/11/2019	10:49	-132.779	43.658	0	478.00	0	5.0560	0	36.1990	8	28.625	0	473.631	0	53.2	4	17.5	4	-1E+10	1	-1E+10	1	-1E+10	1	-1E+10	1	-1E+10	1	-1E+10	1
4901784	159	C	11/11/2019	10:49	-132.779	43.658	0	479.90	0	5.0510	0	36.2020	8	28.628	0	475.512	0	52.3	4	17.2	4	-1E+10	1	-1E+10	1	-1E+10	1	-1E+10	1	-1E+10	1	-1E+10	1
4901784	159	C	11/11/2019	10:49	-132.779	43.658	0	482.60	0	5.0400	0	36.2100	8	28.635	0	478.184	0	51.1	4	16.8	4	-1E+10	1	-1E+10	1	-1E+10	1	-1E+10	1	-1E+10	1	-1E+10	1
4901784	159	C	11/11/2019	10:49	-132.779	43.658	0	485.40	0	5.0330	0	36.2130	8	28.639	0	480.955	0	50.2	4	16.5	4	-1E+10	1	-1E+10	1	-1E+10	1	-1E+10	1	-1E+10	1	-1E+10	1
4901784	159	C	11/11/2019	10:49	-132.779	43.658	0	487.10	0	5.0290	0	36.2160	8	28.641	0	482.638	0	49.6	4	16.3	4	-1E+10	1	-1E+10	1	-1E+10	1	-1E+10	1	-1E+10	1	-1E+10	1
4901784	159	C	11/11/2019	10:49	-132.779	43.658	0	489.90	0	5.0320	0	36.2180	8	28.643	0	485.409	0	48.7	4	16.0	4	-1E+10	1	-1E+10	1	-1E+10	1	-1E+10	1	-1E+10	1	-1E+10	1
4901784	159	C	11/11/2019	10:49	-132.779	43.658	0	492.60	0	5.0340	0	36.2180	8	28.642	0	488.081	0	47.7	4	15.7	4	-1E+10	1	-1E+10	1	-1E+10	1	-1E+10	1	-1E+10	1	-1E+10	1
4901784	159	C	11/11/2019	10:49	-132.779	43.658	0	494.50	0	5.0250	0	36.2230	8	28.647	0	489.961	0	46.8	4	15.4	4	-1E+10	1	-1E+10	1	-1E+10	1	-1E+10	1	-1E+10	1	-1E+10	1
4901784	159	C	11/11/2019	10:49	-132.779	43.658	0	497.30	0	5.0160	0	36.2300	8	28.654	0	492.732	0	45.5	4	14.9	4	-1E+10	1	-1E+10	1	-1E+10	1	-1E+10	1	-1E+10	1	-1E+10	1
4901784	159	C	11/11/2019	10:49	-132.779	43.658	0	500.00	0	5.0370	0	36.2360	8	28.656	0	495.404	0	44.7	4	14.7	4	-1E+10	1	-1E+10	1	-1E+10	1	-1E+10	1	-1E+10	1	-1E+10	1
4901784	159	C	11/11/2019	10:49	-132.779	43.658	0	505.60	0	4.9980	0	36.2380	8	28.663	0	500.946	0	43.3	4	14.2	4	-1E+10	1	-1E+10	1	-1E+10	1	-1E+10	1	-1E+10	1	-1E+10	1
4901784	159	C	11/11/2019	10:49	-132.779	43.658	0	510.20	0	4.9790	0	36.2450	8	28.671	0	505.498	0	41.5	4	13.6	4	-1E+10	1	-1E+10	1	-1E+10	1	-1E+10	1	-1E+10	1	-1E+10	1
4901784	159	C	11/11/2019	10:49	-132.779	43.658	0	514.80	0	4.9690	0	36.2530	8	28.678	0	510.050	0	39.7	4	13.0	4	-1E+10	1	-1E+10	1	-1E+10	1	-1E+10	1	-1E+10	1	-1E+10	1
4901784	159	C	11/11/2019	10:49	-132.779	43.658	0	520.30	0	4.9970	0	36.2660	8	28.685	0	515.492	0	37.4	4	12.3	4	-1E+10	1	-1E+10	1	-1E+10	1	-1E+10	1	-1E+10	1	-1E+10	1
4901784	159	C	11/11/2019	10:49	-132.779	43.658	0	525.00	0	4.9560	0	36.2680	8	28.692	0	520.143	0	35.8	4	11.7	4	-1E+10	1	-1E+10	1	-1E+10	1	-1E+10	1	-1E+10	1	-1E+10	1
4901784	159	C	11/11/2019	10:49	-132.779	43.658	0	529.60	0	4.9880	0	36.2790	8	28.697	0	524.695	0	34.2	4	11.2	4	-1E+10	1	-1E+10	1	-1E+10	1	-1E+10	1	-1E+10	1	-1E+10	1
4901784	159	C	11/11/2019	10:49	-132.779	43.658	0	535.20	0	4.9800	0	36.2910	8	28.707	0	530.236	0	33.0	4	10.8	4	-1E+10	1	-1E+10	1	-1E+10	1	-1E+10	1	-1E+10	1	-1E+10	1
4901784	159	C	11/11/2019	10:49	-132.779	43.658	0	539.90	0	4.9550	0	36.2920	8	28.711	0	534.886	0	32.9	4	10.8	4	-1E+10	1	-1E+10	1	-1E+10	1	-1E+10	1	-1E+10	1	-1E+10	1
4901784	159	C	11/11/2019	10:49	-132.779	43.658	0	544.60	0	4.9160	0	36.2920	8	28.716	0	539.536	0	33.1	4	10.8	4	-1E+10	1	-1E+10	1	-1E+10	1	-1E+10	1	-1E+10	1	-1E+10	1
4901784	159	C	11/11/2019	10:49	-132.779	43.658	0	550.00	0	4.8940	0	36.2900	8	28.717	0	544.879	0	32.8	4	10.7	4	-1E+10	1	-1E+10	1	-1E+10	1	-1E+10	1	-1E+10	1	-1E+10	1
4901784	159	C	11/11/2019	10:49	-132.779	43.658	0	554.30	0	4.8500	0	36.2950	8	28.726	0	549.133	0	32.2	4	10.5	4	-1E+10	1	-1E+10	1	-1E+10	1	-1E+10	1	-1E+10	1	-1E+10	1
4901784	159	C	11/11/2019	10:49	-132.779	43.658	0	559.90	0	4.8250	0	36.2980	8	28.731	0	554.674	0	30.5	4	10.0	4	-1E+10	1	-1E+10	1	-1E+10	1	-1E+10	1	-1E+10	1	-1E+10	1
4901784	159	C	11/11/2019	10:49	-132.779	43.658	0	565.50	0	4.8510	0	36.3160	8	28.743	0	560.214	0	27.5	4	9.0	4	-1E+10	1	-1E+10	1	-1E+10	1	-1E+10	1	-1E+10	1	-1E+10	1
4901784	159	C	11/11/2019	10:49	-132.779	43.658	0	570.40	0	4.8920	0	36.3250	8	28.745	0	565.061	0	26.2	4	8.6	4	-1E+10	1	-1E+10	1	-1E+10	1	-1E+10	1	-1E+10	1	-1E+10	1
4901784	159	C	11/11/2019	10:49	-132.779	43.658	0	575.30	0	4.8600	0	36.3300	8	28.753	0	569.909	0	25.7	4	8.4	4	-1E+10	1	-1E+10	1	-1E+10	1	-1E+10	1	-1E+10	1	-1E+10	1
4901784	159	C	11/11/2019	10:49	-132.779	43.658	0	580.30	0	4.8270	0	36.3330	8	28.759	0	574.855	0	25.2	4	8.2	4	-1E+10	1	-1E+10	1	-1E+10	1	-1E+10	1	-1E+10	1	-1E+10	1
4901784	159	C	11/11/2019	10:49	-132.779	43.658	0	585.30	0	4.8070	0	36.3360	8	28.764	0	579.801	0	24.4	4	8.0	4	-1E+10	1	-1E+10	1	-1E+10	1	-1E+10	1	-1E+10	1	-1E+10	1
4901784	159	C	11/11/2019	10:49	-132.779	43.658	0	590.40	0	4.7950	0	36.3430	8	28.771	0	584.846	0	23.6	4	7.7	4	-1E+10	1	-1E+10	1	-1E+10	1	-1E+10	1	-1E+10	1	-1E+10	1
4901784	159	C	11/11/2019	10:49	-132.779	43.658	0	595.40	0	4.7630	0	36.3470	8	28.778	0	589.792	0	23.2	4	7.6	4	-1E+10	1	-1E+10	1	-1E+10	1	-1E+10	1	-1E+10	1	-1E+10	1
4901784	159	C	11/11/2019	10:49	-132.779	43.658	0	600.40	0	4.7620	0	36.3510	8	28.781	0	594.738	0	23.0	4	7.5	4	-1E+10	1	-1E+10	1	-1E+10	1	-1E+10	1	-1E+10	1	-1E+10	1
4901784	159	C	11/11/2019	10:49	-132.779	43.658	0	605.50	0	4.7370	0	36.3500	8	28.783	0	599.782	0	23.4	4	7.6	4	-1E+10	1	-1E+10	1	-1E+10	1	-1E+10	1	-1E+10	1	-1E+10	1
4901784	159	C	11/11/2019	10:49	-132.779	43.658	0	610.70	0	4.6890	0	36.3460	8	28.786	0	604.926	0	24.0	4	7.8	4	-1E+10	1	-1E+10	1	-1E+10	1	-1E+10	1	-1E+10	1	-1E+10	1
4901784	159	C	11/11/2019	10:49	-132.779	43.658	0	615.10	0	4.6060	0	36.3430	8	28.793	0	609.278	0	24.2	4	7.9	4	-1E+10	1	-1E+10	1	-1E+10	1	-1E+10	1	-1E+10	1	-1E+10	1
4901784	159	C	11/11/2019	10:49	-132.779	43.658	0	619.40	0	4.5650	0	36.3440	8	28.799	0	613.531	0	23.7	4	7.7	4	-1E+10	1	-1E+10	1	-1E+10	1	-1E+10	1	-1E+10	1	-1E+10	1
4901784	159	C	11/11/2019	10:49	-132.779	43.658	0	624.50	0	4.5440	0	36.3490	8	28.805	0	618.575	0	22.9	4	7.5	4	-1E+10	1	-1E+10	1	-1E+10	1	-1E+10	1	-1E+10	1	-1E+10	1
4901784	159	C	11/11/2019	10:49	-132.779	43.658	0	629.80	0	4.5060	0	36.3530	8	28.812	0	623.816	0	22.5	4	7.3	4	-1E+10	1	-1E+10	1	-1E+10	1	-1E+10	1	-1E+10	1	-1E+10	1
4901784	159	C	11/11/2019	10:49	-132.779	43.658	0	635.10	0	4.4920	0	36.3590	8	28.819	0	629.058	0	22.0	4	7.2	4	-1E+10	1	-1E+10	1	-1E+10	1	-1E+10	1	-1E+10	1	-1E+10	1
4901784	159	C	11/11/2019	10:49	-132.779	43.658	0	640.50	0	4.4860	0	36.3650	8	28.824	0	634.398	0	21.1	4	6.8	4	-1E+10	1	-1E+10	1	-1E+10	1	-1E+10	1	-1E+10	1	-1E+10	1
4901784	159	C	11/11/2019	10:49	-132.779	43.658	0	644.90	0	4.4920	0	36.3720	8	28.829	0	638.750	0	20.2	4	6.6	4	-1E+10	1	-1E+10	1	-1E+10	1	-1E+10	1	-1E+10	1	-1E+10	1
4901784	159	C	11/11/2019	10:49	-132.779	43.658	0	649.40	0	4.4830	0	36.3780	8	28.835	0	643.200	0	19.3	4	6.3	4	-1E+10	1	-1E+10	1	-1E+10	1	-1E+10	1	-1E+10	1	-1E+10	1
4901784	159	C	11/11/2019	10:49	-132.779	43.658	0	654.70	0	4.4940	0	36.3860	8	28.840	0	648.441	0	18.7	4	6.1	4	-1E+10	1	-1E+10	1	-1E+10	1	-1E+10	1	-1E+10	1	-1E+10	1
4901784	159	C	11/11/2019	10:49	-132.779	43.658	0	659.90	0	4.4770	0	36.3860	8	28.842	0	653.583	0	18.8	4	6.1	4	-1E+10	1	-1E+10	1	-1E+10	1	-1E+10	1	-1E+10	1	-1E+10	1
4901784	159	C	11/11/2019	10:49	-132.779	43.658	0	665.20	0	4.4400	0	36.3840	8	28.845	0	658.824	0	19.0	4	6.2	4	-1E+10	1	-1E+10	1	-1E+10	1	-1E+10	1	-1E+10	1	-1E+10	1
4901784	159	C	11/11/2019	10:49	-132.779	43.658	0	670.50	0	4.3560	0	36.3800	8	28.851	0	664.065	0	19.4	4	6.3	4	-1E+10	1	-1E+10	1	-1E+10	1	-1E+10	1	-1E+10	1	-1E+10	1
4901784	159	C	11/11/2019	10:49	-132.779	43.658	0	674.90	0	4.3250	0	36.3790	8	28.854	0	668.416	0	19.4	4	6.3	4	-1E+10	1	-1E+10	1	-1E+10	1	-1E+10	1	-1E+10	1	-1E+10	1
4901784	159	C	11/11/2019	10:49	-132.779	43.658	0	679.40	0	4.3070	0	36.3800	8	28.857	0	672.865	0	19.2	4	6.2	4	-1E+10	1	-1E+10	1	-1E+10	1	-1E+10	1	-1E+10	1	-1E+10	1
4901784	159	C	11/11/2019	10:49	-132.779	43.658	0	684.70	0	4.2810	0	36.3840	8	28.863	0	678.105	0	19.0	4	6.1	4	-1E+10	1	-1E+10	1	-1E+10	1	-1E+10	1	-1E+10	1	-1E+10	1
4901784	159	C	11/11/2019	10:49	-132.779	43.658	0	690.20	0	4.2650	0	36.3840	8	28.865	0	683.544	0	18.7	4	6.0	4	-1E+10	1	-1E+10	1	-1E+10	1	-1E+10	1	-1E+10	1	-1E+10	1
4901784	159	C	11/11/2019	10:49	-132.779	43.658	0	695.40	0	4.2540	0	36.3910	8	28.872	0	688.685	0	18.1	4	5.8	4	-1E+10	1	-1E+10	1	-1E+10	1	-1E+10	1	-1E+10	1	-1E+10	1
4901784	159	C	11/11/2019	10:49	-132.779	43.658	0	699.70	0	4.2640	0	36.3960	8	28.874	0	692.936	0	17.7	4	5.7	4	-1E+10	1	-1E+10	1	-1E+10	1	-1E+10	1	-1E+10	1	-1E+10	1
4901784	159	C	11/11/2019	10:49	-132.779	43.658	0	705.10	0	4.2380	0	36.4000	8	28.881	0	698.275	0	17.5	4	5.7	4	-1E+10	1	-1E+10	1	-1E+10	1	-1E+10	1	-1E+10	1	-1E+10	1
4901784	159	C	11/11/2019	10:49	-132.779	43.658	0	710.70	0	4.2420	0	36.4020	8	28.882	0	703.811	0	17.2	4	5.6	4	-1E+10	1	-1E+10	1	-1E+10	1	-1E+10	1	-1E+10	1	-1E+10	1
4901784	159	C	11/11/2019	10:49	-132.779	43.658	0	715.50	0	4.2170	0	36.4050	8	28.887	0	708.557	0	17.0	4	5.5	4	-1E+10	1	-1E+10	1	-1E+10	1	-1E+10	1	-1E+10	1	-1E+10	1
4901784	159	C	11/11/2019	10:49	-132.779	43.658	0	720.40	0	4.1970	0	36.4100	8	28.893	0	713.401	0	16.6	4	5.3	4	-1E+10	1	-1E+10	1	-1E+10	1	-1E+10	1	-1E+10	1	-1E+10	1
4901784	159	C	11/11/2019	10:49	-132.779	43.658	0	725.20	0	4.2020	0	36.4150	8	28.897	0	718.146	0	16.2	4	5.2	4	-1E+10	1	-1E+10	1	-1E+10	1	-1E+10	1	-1E+10	1	-1E+10	1
4901784	159	C	11/11/2019	10:49	-132.779	43.658	0	730.20	0	4.1820	0	36.4170	8	28.900	0	723.088	0	16.0	4	5.2	4	-1E+10	1	-1E+10	1	-1E+10	1	-1E+10	1	-1E+10	1	-1E+10	1
4901784	159	C	11/11/2019	10:49	-132.779	43.658	0	735.20	0	4.1900	0	36.4240	8	28.905	0	728.031	0	15.4	4	5.0	4	-1E+10	1	-1E+10	1	-1E+10	1	-1E+10	1	-1E+10	1	-1E+10	1
4901784	159	C	11/11/2019	10:49	-132.779	43.658	0	740.20	0	4.1920	0	36.4290	8	28.909	0	732.973	0	15.1	4	4.9	4	-1E+10	1	-1E+10	1	-1E+10	1	-1E+10	1	-1E+10	1	-1E+10	1
4901784	159	C	11/11/2019	10:49	-132.779	43.658	0	745.20	0	4.1790	0	36.4300	8	28.911	0	737.916	0	15.0	4	4.8	4	-1E+10	1	-1E+10	1	-1E+10	1	-1E+10	1	-1E+10	1	-1E+10	1
4901784	159	C	11/11/2019	10:49	-132.779	43.658	0	750.20	0	4.1700	0	36.4320	8	28.914	0	742.858	0	14.8	4	4.8	4	-1E+10	1	-1E+10	1	-1E+10	1	-1E+10	1	-1E+10	1	-1E+10	1
4901784	159	C	11/11/2019	10:49	-132.779	43.658	0	755.30	0	4.1440	0	36.4350	8	28.919	0	747.899	0	14.7	4	4.7	4	-1E+10	1	-1E+10	1	-1E+10	1	-1E+10	1	-1E+10	1	-1E+10	1
4901784	159	C	11/11/2019	10:49	-132.779	43.658	0	760.40	0	4.1200	0	36.4360	8	28.923	0	752.940	0	14.6	4	4.7	4	-1E+10	1	-1E+10	1	-1E+10	1	-1E+10	1	-1E+10	1	-1E+10	1
4901784	159	C	11/11/2019	10:49	-132.779	43.658	0	765.60	0	4.0980	0	36.4380	8	28.927	0	758.079	0	14.5	4	4.7	4	-1E+10	1	-1E+10	1	-1E+10	1	-1E+10	1	-1E+10	1	-1E+10	1
4901784	159	C	11/11/2019	10:49	-132.779	43.658	0	770.70	0	4.0720	0	36.4410	8	28.932	0	763.120	0	14.5	4	4.7	4	-1E+10	1	-1E+10	1	-1E+10	1	-1E+10	1	-1E+10	1	-1E+10	1
4901784	159	C	11/11/2019	10:49	-132.779	43.658	0	775.10	0	4.0500	0	36.4410	8	28.934	0	767.469	0	14.5	4	4.7	4	-1E+10	1	-1E+10	1	-1E+10	1	-1E+10	1	-1E+10	1	-1E+10	1
4901784	159	C	11/11/2019	10:49	-132.779	43.658	0	779.40	0	4.0270	0	36.4420	8	28.938	0	771.718	0	14.4	4	4.6	4	-1E+10	1	-1E+10	1	-1E+10	1	-1E+10	1	-1E+10	1	-1E+10	1
4901784	159	C	11/11/2019	10:49	-132.779	43.658	0	784.60	0	3.9870	0	36.4470	8	28.946	0	776.857	0	14.2	4	4.6	4	-1E+10	1	-1E+10	1	-1E+10	1	-1E+10	1	-1E+10	1	-1E+10	1
4901784	159	C	11/11/2019	10:49	-132.779	43.658	0	789.80	0	3.9660	0	36.4520	8	28.952	0	781.996	0	14.1	4	4.5	4	-1E+10	1	-1E+10	1	-1E+10	1	-1E+10	1	-1E+10	1	-1E+10	1
4901784	159	C	11/11/2019	10:49	-132.779	43.658	0	795.10	0	3.9510	0	36.4540	8	28.956	0	787.234	0	13.9	4	4.5	4	-1E+10	1	-1E+10	1	-1E+10	1	-1E+10	1	-1E+10	1	-1E+10	1
4901784	159	C	11/11/2019	10:49	-132.779	43.658	0	800.50	0	3.9430	0	36.4580	8	28.960	0	792.570	0	13.6	4	4.4	4	-1E+10	1	-1E+10	1	-1E+10	1	-1E+10	1	-1E+10	1	-1E+10	1
4901784	159	C	11/11/2019	10:49	-132.779	43.658	0	804.90	0	3.9340	0	36.4600	8	28.962	0	796.918	0	13.4	4	4.3	4	-1E+10	1	-1E+10	1	-1E+10	1	-1E+10	1	-1E+10	1	-1E+10	1
4901784	159	C	11/11/2019	10:49	-132.779	43.658	0	809.30	0	3.9150	0	36.4660	8	28.969	0	801.266	0	13.1	4	4.2	4	-1E+10	1	-1E+10	1	-1E+10	1	-1E+10	1	-1E+10	1	-1E+10	1
4901784	159	C	11/11/2019	10:49	-132.779	43.658	0	814.70	0	3.9040	0	36.4700	8	28.973	0	806.602	0	12.9	4	4.1	4	-1E+10	1	-1E+10	1	-1E+10	1	-1E+10	1	-1E+10	1	-1E+10	1
4901784	159	C	11/11/2019	10:49	-132.779	43.658	0	820.10	0	3.8730	0	36.4750	8	28.981	0	811.938	0	12.7	4	4.1	4	-1E+10	1	-1E+10	1	-1E+10	1	-1E+10	1	-1E+10	1	-1E+10	1
4901784	159	C	11/11/2019	10:49	-132.779	43.658	0	824.80	0	3.8490	0	36.4790	8	28.987	0	816.582	0	12.5	4	4.0	4	-1E+10	1	-1E+10	1	-1E+10	1	-1E+10	1	-1E+10	1	-1E+10	1
4901784	159	C	11/11/2019	10:49	-132.779	43.658	0	829.40	0	3.8570	0	36.4860	8	28.991	0	821.127	0	12.3	4	3.9	4	-1E+10	1	-1E+10	1	-1E+10	1	-1E+10	1	-1E+10	1	-1E+10	1
4901784	159	C	11/11/2019	10:49	-132.779	43.658	0	834.90	0	3.8510	0	36.4890	8	28.994	0	826.562	0	12.1	4	3.9	4	-1E+10	1	-1E+10	1	-1E+10	1	-1E+10	1	-1E+10	1	-1E+10	1
4901784	159	C	11/11/2019	10:49	-132.779	43.658	0	840.40	0	3.8350	0	36.4900	8	28.997	0	831.996	0	12.1	4	3.9	4	-1E+10	1	-1E+10	1	-1E+10	1	-1E+10	1	-1E+10	1	-1E+10	1
4901784	159	C	11/11/2019	10:49	-132.779	43.658	0	845.00	0	3.8190	0	36.4920	8	29.000	0	836.540	0	11.9	4	3.8	4	-1E+10	1	-1E+10	1	-1E+10	1	-1E+10	1	-1E+10	1	-1E+10	1
4901784	159	C	11/11/2019	10:49	-132.779	43.658	0	850.30	0	3.8120	0	36.5000	8	29.007	0	841.777	0	11.6	4	3.7	4	-1E+10	1	-1E+10	1	-1E+10	1	-1E+10	1	-1E+10	1	-1E+10	1
4901784	159	C	11/11/2019	10:49	-132.779	43.658	0	855.40	0	3.8260	0	36.5070	8	29.012	0	846.815	0	11.3	4	3.6	4	-1E+10	1	-1E+10	1	-1E+10	1	-1E+10	1	-1E+10	1	-1E+10	1
4901784	159	C	11/11/2019	10:49	-132.779	43.658	0	860.10	0	3.8210	0	36.5100	8	29.015	0	851.459	0	11.2	4	3.6	4	-1E+10	1	-1E+10	1	-1E+10	1	-1E+10	1	-1E+10	1	-1E+10	1
4901784	159	C	11/11/2019	10:49	-132.779	43.658	0	864.90	0	3.8170	0	36.5140	8	29.018	0	856.201	0	11.0	4	3.5	4	-1E+10	1	-1E+10	1	-1E+10	1	-1E+10	1	-1E+10	1	-1E+10	1
4901784	159	C	11/11/2019	10:49	-132.779	43.658	0	869.80	0	3.8080	0	36.5170	8	29.022	0	861.041	0	10.9	4	3.5	4	-1E+10	1	-1E+10	1	-1E+10	1	-1E+10	1	-1E+10	1	-1E+10	1
4901784	159	C	11/11/2019	10:49	-132.779	43.658	0	874.80	0	3.7890	0	36.5220	8	29.028	0	865.980	0	10.8	4	3.4	4	-1E+10	1	-1E+10	1	-1E+10	1	-1E+10	1	-1E+10	1	-1E+10	1
4901784	159	C	11/11/2019	10:49	-132.779	43.658	0	879.70	0	3.7740	0	36.5280	8	29.034	0	870.821	0	10.7	4	3.4	4	-1E+10	1	-1E+10	1	-1E+10	1	-1E+10	1	-1E+10	1	-1E+10	1
4901784	159	C	11/11/2019	10:49	-132.779	43.658	0	884.80	0	3.7580	0	36.5320	8	29.039	0	875.859	0	10.6	4	3.4	4	-1E+10	1	-1E+10	1	-1E+10	1	-1E+10	1	-1E+10	1	-1E+10	1
4901784	159	C	11/11/2019	10:49	-132.779	43.658	0	889.80	0	3.7580	0	36.5350	8	29.041	0	880.798	0	10.5	4	3.4	4	-1E+10	1	-1E+10	1	-1E+10	1	-1E+10	1	-1E+10	1	-1E+10	1
4901784	159	C	11/11/2019	10:49	-132.779	43.658	0	894.80	0	3.7460	0	36.5390	8	29.046	0	885.736	0	10.5	4	3.3	4	-1E+10	1	-1E+10	1	-1E+10	1	-1E+10	1	-1E+10	1	-1E+10	1
4901784	159	C	11/11/2019	10:49	-132.779	43.658	0	899.70	0	3.7340	0	36.5420	8	29.050	0	890.576	0	10.4	4	3.3	4	-1E+10	1	-1E+10	1	-1E+10	1	-1E+10	1	-1E+10	1	-1E+10	1
4901784	159	C	11/11/2019	10:49	-132.779	43.658	0	904.80	0	3.7280	0	36.5430	8	29.051	0	895.614	0	10.4	4	3.3	4	-1E+10	1	-1E+10	1	-1E+10	1	-1E+10	1	-1E+10	1	-1E+10	1
4901784	159	C	11/11/2019	10:49	-132.779	43.658	0	909.90	0	3.7230	0	36.5440	8	29.052	0	900.651	0	10.4	4	3.3	4	-1E+10	1	-1E+10	1	-1E+10	1	-1E+10	1	-1E+10	1	-1E+10	1
4901784	159	C	11/11/2019	10:49	-132.779	43.658	0	914.90	0	3.7130	0	36.5450	8	29.054	0	905.589	0	10.4	4	3.3	4	-1E+10	1	-1E+10	1	-1E+10	1	-1E+10	1	-1E+10	1	-1E+10	1
4901784	159	C	11/11/2019	10:49	-132.779	43.658	0	920.00	0	3.7040	0	36.5480	8	29.058	0	910.626	0	10.3	4	3.3	4	-1E+10	1	-1E+10	1	-1E+10	1	-1E+10	1	-1E+10	1	-1E+10	1
4901784	159	C	11/11/2019	10:49	-132.779	43.658	0	925.10	0	3.6920	0	36.5520	8	29.062	0	915.663	0	10.3	4	3.3	4	-1E+10	1	-1E+10	1	-1E+10	1	-1E+10	1	-1E+10	1	-1E+10	1
4901784	159	C	11/11/2019	10:49	-132.779	43.658	0	930.30	0	3.6830	0	36.5560	8	29.066	0	920.799	0	10.2	4	3.3	4	-1E+10	1	-1E+10	1	-1E+10	1	-1E+10	1	-1E+10	1	-1E+10	1
4901784	159	C	11/11/2019	10:49	-132.779	43.658	0	935.50	0	3.6600	0	36.5620	8	29.073	0	925.934	0	10.2	4	3.2	4	-1E+10	1	-1E+10	1	-1E+10	1	-1E+10	1	-1E+10	1	-1E+10	1
4901784	159	C	11/11/2019	10:49	-132.779	43.658	0	940.70	0	3.6340	0	36.5660	8	29.079	0	931.069	0	10.2	4	3.2	4	-1E+10	1	-1E+10	1	-1E+10	1	-1E+10	1	-1E+10	1	-1E+10	1
4901784	159	C	11/11/2019	10:49	-132.779	43.658	0	945.20	0	3.6150	0	36.5710	8	29.085	0	935.513	0	10.1	4	3.2	4	-1E+10	1	-1E+10	1	-1E+10	1	-1E+10	1	-1E+10	1	-1E+10	1
4901784	159	C	11/11/2019	10:49	-132.779	43.658	0	949.60	0	3.6030	0	36.5720	8	29.087	0	939.858	0	10.1	4	3.2	4	-1E+10	1	-1E+10	1	-1E+10	1	-1E+10	1	-1E+10	1	-1E+10	1
4901784	159	C	11/11/2019	10:49	-132.779	43.658	0	954.90	0	3.5920	0	36.5750	8	29.091	0	945.092	0	10.1	4	3.2	4	-1E+10	1	-1E+10	1	-1E+10	1	-1E+10	1	-1E+10	1	-1E+10	1
4901784	159	C	11/11/2019	10:49	-132.779	43.658	0	960.20	0	3.5770	0	36.5780	8	29.095	0	950.326	0	10.1	4	3.2	4	-1E+10	1	-1E+10	1	-1E+10	1	-1E+10	1	-1E+10	1	-1E+10	1
4901784	159	C	11/11/2019	10:49	-132.779	43.658	0	965.50	0	3.5630	0	36.5820	8	29.100	0	955.559	0	10.1	4	3.2	4	-1E+10	1	-1E+10	1	-1E+10	1	-1E+10	1	-1E+10	1	-1E+10	1
4901784	159	C	11/11/2019	10:49	-132.779	43.658	0	970.10	0	3.5610	0	36.5830	8	29.101	0	960.101	0	10.1	4	3.2	4	-1E+10	1	-1E+10	1	-1E+10	1	-1E+10	1	-1E+10	1	-1E+10	1
4901784	159	C	11/11/2019	10:49	-132.779	43.658	0	974.60	0	3.5470	0	36.5860	8	29.105	0	964.544	0	10.1	4	3.2	4	-1E+10	1	-1E+10	1	-1E+10	1	-1E+10	1	-1E+10	1	-1E+10	1
4901784	159	C	11/11/2019	10:49	-132.779	43.658	0	980.00	0	3.5350	0	36.5900	8	29.109	0	969.876	0	10.1	4	3.2	4	-1E+10	1	-1E+10	1	-1E+10	1	-1E+10	1	-1E+10	1	-1E+10	1
4901784	159	C	11/11/2019	10:49	-132.779	43.658	0	985.50	0	3.5240	0	36.5920	8	29.112	0	975.307	0	10.2	4	3.2	4	-1E+10	1	-1E+10	1	-1E+10	1	-1E+10	1	-1E+10	1	-1E+10	1
4901784	159	C	11/11/2019	10:49	-132.779	43.658	0	990.10	0	3.5140	0	36.5960	8	29.116	0	979.848	0	10.3	4	3.3	4	-1E+10	1	-1E+10	1	-1E+10	1	-1E+10	1	-1E+10	1	-1E+10	1
4901784	159	C	11/11/2019	10:49	-132.779	43.658	0	994.70	0	3.4970	0	36.6010	8	29.122	0	984.390	0	10.3	4	3.3	4	-1E+10	1	-1E+10	1	-1E+10	1	-1E+10	1	-1E+10	1	-1E+10	1
4901784	159	C	11/11/2019	10:49	-132.779	43.658	0	1000.20	0	3.4870	0	36.6050	8	29.126	0	989.820	0	10.4	4	3.3	4	-1E+10	1	-1E+10	1	-1E+10	1	-1E+10	1	-1E+10	1	-1E+10	1
4901784	159	C	11/11/2019	10:49	-132.779	43.658	0	1004.90	0	3.4790	0	36.6060	8	29.128	0	994.460	0	10.4	4	3.3	4	-1E+10	1	-1E+10	1	-1E+10	1	-1E+10	1	-1E+10	1	-1E+10	1
4901784	159	C	11/11/2019	10:49	-132.779	43.658	0	1009.50	0	3.4760	0	36.6080	8	29.130	0	999.001	0	10.5	4	3.3	4	-1E+10	1	-1E+10	1	-1E+10	1	-1E+10	1	-1E+10	1	-1E+10	1
4901784	159	C	11/11/2019	10:49	-132.779	43.658	0	1014.80	0	3.4630	0	36.6090	8	29.132	0	1004.233	0	10.6	4	3.4	4	-1E+10	1	-1E+10	1	-1E+10	1	-1E+10	1	-1E+10	1	-1E+10	1
4901784	159	C	11/11/2019	10:49	-132.779	43.658	0	1019.50	0	3.4470	0	36.6130	8	29.137	0	1008.873	0	10.7	4	3.4	4	-1E+10	1	-1E+10	1	-1E+10	1	-1E+10	1	-1E+10	1	-1E+10	1
4901784	159	C	11/11/2019	10:49	-132.779	43.658	0	1024.40	0	3.4370	0	36.6150	8	29.139	0	1013.710	0	10.7	4	3.4	4	-1E+10	1	-1E+10	1	-1E+10	1	-1E+10	1	-1E+10	1	-1E+10	1
4901784	159	C	11/11/2019	10:49	-132.779	43.658	0	1030.00	0	3.4220	0	36.6190	8	29.144	0	1019.238	0	10.8	4	3.4	4	-1E+10	1	-1E+10	1	-1E+10	1	-1E+10	1	-1E+10	1	-1E+10	1
4901784	159	C	11/11/2019	10:49	-132.779	43.658	0	1035.70	0	3.4150	0	36.6200	8	29.146	0	1024.865	0	10.8	4	3.4	4	-1E+10	1	-1E+10	1	-1E+10	1	-1E+10	1	-1E+10	1	-1E+10	1
4901784	159	C	11/11/2019	10:49	-132.779	43.658	0	1040.60	0	3.4030	0	36.6220	8	29.148	0	1029.701	0	10.9	4	3.4	4	-1E+10	1	-1E+10	1	-1E+10	1	-1E+10	1	-1E+10	1	-1E+10	1
4901784	159	C	11/11/2019	10:49	-132.779	43.658	0	1045.60	0	3.3900	0	36.6240	8	29.151	0	1034.637	0	10.9	4	3.5	4	-1E+10	1	-1E+10	1	-1E+10	1	-1E+10	1	-1E+10	1	-1E+10	1
4901784	159	C	11/11/2019	10:49	-132.779	43.658	0	1050.50	0	3.3790	0	36.6270	8	29.155	0	1039.473	0	11.0	4	3.5	4	-1E+10	1	-1E+10	1	-1E+10	1	-1E+10	1	-1E+10	1	-1E+10	1
4901784	159	C	11/11/2019	10:49	-132.779	43.658	0	1055.50	0	3.3620	0	36.6300	8	29.159	0	1044.408	0	11.1	4	3.5	4	-1E+10	1	-1E+10	1	-1E+10	1	-1E+10	1	-1E+10	1	-1E+10	1
4901784	159	C	11/11/2019	10:49	-132.779	43.658	0	1060.50	0	3.3570	0	36.6330	8	29.162	0	1049.343	0	11.1	4	3.5	4	-1E+10	1	-1E+10	1	-1E+10	1	-1E+10	1	-1E+10	1	-1E+10	1
4901784	159	C	11/11/2019	10:49	-132.779	43.658	0	1065.50	0	3.3440	0	36.6360	8	29.166	0	1054.278	0	11.2	4	3.6	4	-1E+10	1	-1E+10	1	-1E+10	1	-1E+10	1	-1E+10	1	-1E+10	1
4901784	159	C	11/11/2019	10:49	-132.779	43.658	0	1070.50	0	3.3340	0	36.6380	8	29.168	0	1059.213	0	11.3	4	3.6	4	-1E+10	1	-1E+10	1	-1E+10	1	-1E+10	1	-1E+10	1	-1E+10	1
4901784	159	C	11/11/2019	10:49	-132.779	43.658	0	1075.50	0	3.3230	0	36.6390	8	29.170	0	1064.147	0	11.4	4	3.6	4	-1E+10	1	-1E+10	1	-1E+10	1	-1E+10	1	-1E+10	1	-1E+10	1
4901784	159	C	11/11/2019	10:49	-132.779	43.658	0	1080.40	0	3.3120	0	36.6400	8	29.172	0	1068.983	0	11.4	4	3.6	4	-1E+10	1	-1E+10	1	-1E+10	1	-1E+10	1	-1E+10	1	-1E+10	1
4901784	159	C	11/11/2019	10:49	-132.779	43.658	0	1085.50	0	3.2950	0	36.6440	8	29.177	0	1074.016	0	11.5	4	3.6	4	-1E+10	1	-1E+10	1	-1E+10	1	-1E+10	1	-1E+10	1	-1E+10	1
4901784	159	C	11/11/2019	10:49	-132.779	43.658	0	1090.50	0	3.2840	0	36.6460	8	29.180	0	1078.950	0	11.6	4	3.7	4	-1E+10	1	-1E+10	1	-1E+10	1	-1E+10	1	-1E+10	1	-1E+10	1
4901784	159	C	11/11/2019	10:49	-132.779	43.658	0	1095.50	0	3.2760	0	36.6480	8	29.182	0	1083.885	0	11.7	4	3.7	4	-1E+10	1	-1E+10	1	-1E+10	1	-1E+10	1	-1E+10	1	-1E+10	1
4901784	159	C	11/11/2019	10:49	-132.779	43.658	0	1100.50	0	3.2680	0	36.6500	8	29.185	0	1088.819	0	11.8	4	3.7	4	-1E+10	1	-1E+10	1	-1E+10	1	-1E+10	1	-1E+10	1	-1E+10	1
4901784	159	C	11/11/2019	10:49	-132.779	43.658	0	1105.40	0	3.2530	0	36.6520	8	29.188	0	1093.654	0	12.0	4	3.8	4	-1E+10	1	-1E+10	1	-1E+10	1	-1E+10	1	-1E+10	1	-1E+10	1
4901784	159	C	11/11/2019	10:49	-132.779	43.658	0	1110.30	0	3.2350	0	36.6550	8	29.192	0	1098.489	0	12.1	4	3.8	4	-1E+10	1	-1E+10	1	-1E+10	1	-1E+10	1	-1E+10	1	-1E+10	1
4901784	159	C	11/11/2019	10:49	-132.779	43.658	0	1115.20	0	3.2260	0	36.6520	8	29.191	0	1103.324	0	12.1	4	3.8	4	-1E+10	1	-1E+10	1	-1E+10	1	-1E+10	1	-1E+10	1	-1E+10	1
4901784	159	C	11/11/2019	10:49	-132.779	43.658	0	1120.30	0	3.2200	0	36.6520	8	29.191	0	1108.356	0	12.2	4	3.9	4	-1E+10	1	-1E+10	1	-1E+10	1	-1E+10	1	-1E+10	1	-1E+10	1
4901784	159	C	11/11/2019	10:49	-132.779	43.658	0	1125.50	0	3.2090	0	36.6540	8	29.194	0	1113.487	0	12.4	4	3.9	4	-1E+10	1	-1E+10	1	-1E+10	1	-1E+10	1	-1E+10	1	-1E+10	1
4901784	159	C	11/11/2019	10:49	-132.779	43.658	0	1130.60	0	3.1990	0	36.6570	8	29.197	0	1118.519	0	12.5	4	3.9	4	-1E+10	1	-1E+10	1	-1E+10	1	-1E+10	1	-1E+10	1	-1E+10	1
4901784	159	C	11/11/2019	10:49	-132.779	43.658	0	1135.60	0	3.1930	0	36.6580	8	29.199	0	1123.452	0	12.6	4	4.0	4	-1E+10	1	-1E+10	1	-1E+10	1	-1E+10	1	-1E+10	1	-1E+10	1
4901784	159	C	11/11/2019	10:49	-132.779	43.658	0	1140.60	0	3.1780	0	36.6610	8	29.203	0	1128.385	0	12.8	4	4.0	4	-1E+10	1	-1E+10	1	-1E+10	1	-1E+10	1	-1E+10	1	-1E+10	1
4901784	159	C	11/11/2019	10:49	-132.779	43.658	0	1145.70	0	3.1670	0	36.6640	8	29.206	0	1133.417	0	12.9	4	4.1	4	-1E+10	1	-1E+10	1	-1E+10	1	-1E+10	1	-1E+10	1	-1E+10	1
4901784	159	C	11/11/2019	10:49	-132.779	43.658	0	1150.80	0	3.1580	0	36.6650	8	29.208	0	1138.448	0	13.1	4	4.1	4	-1E+10	1	-1E+10	1	-1E+10	1	-1E+10	1	-1E+10	1	-1E+10	1
4901784	159	C	11/11/2019	10:49	-132.779	43.658	0	1155.80	0	3.1440	0	36.6680	8	29.212	0	1143.381	0	13.3	4	4.2	4	-1E+10	1	-1E+10	1	-1E+10	1	-1E+10	1	-1E+10	1	-1E+10	1
4901784	159	C	11/11/2019	10:49	-132.779	43.658	0	1160.00	0	3.1350	0	36.6700	8	29.214	0	1147.525	0	13.4	4	4.2	4	-1E+10	1	-1E+10	1	-1E+10	1	-1E+10	1	-1E+10	1	-1E+10	1
4901784	159	C	11/11/2019	10:49	-132.779	43.658	0	1164.20	0	3.1260	0	36.6710	8	29.216	0	1151.668	0	13.5	4	4.3	4	-1E+10	1	-1E+10	1	-1E+10	1	-1E+10	1	-1E+10	1	-1E+10	1
4901784	159	C	11/11/2019	10:49	-132.779	43.658	0	1169.30	0	3.1160	0	36.6740	8	29.219	0	1156.699	0	13.7	4	4.3	4	-1E+10	1	-1E+10	1	-1E+10	1	-1E+10	1	-1E+10	1	-1E+10	1
4901784	159	C	11/11/2019	10:49	-132.779	43.658	0	1174.40	0	3.1050	0	36.6750	8	29.221	0	1161.730	0	13.8	4	4.4	4	-1E+10	1	-1E+10	1	-1E+10	1	-1E+10	1	-1E+10	1	-1E+10	1
4901784	159	C	11/11/2019	10:49	-132.779	43.658	0	1179.50	0	3.0990	0	36.6770	8	29.224	0	1166.761	0	14.0	4	4.4	4	-1E+10	1	-1E+10	1	-1E+10	1	-1E+10	1	-1E+10	1	-1E+10	1
4901784	159	C	11/11/2019	10:49	-132.779	43.658	0	1184.70	0	3.0870	0	36.6790	8	29.226	0	1171.890	0	14.1	4	4.5	4	-1E+10	1	-1E+10	1	-1E+10	1	-1E+10	1	-1E+10	1	-1E+10	1
4901784	159	C	11/11/2019	10:49	-132.779	43.658	0	1189.90	0	3.0750	0	36.6810	8	29.229	0	1177.019	0	14.3	4	4.5	4	-1E+10	1	-1E+10	1	-1E+10	1	-1E+10	1	-1E+10	1	-1E+10	1
4901784	159	C	11/11/2019	10:49	-132.779	43.658	0	1194.90	0	3.0600	0	36.6840	8	29.233	0	1181.951	0	14.5	4	4.6	4	-1E+10	1	-1E+10	1	-1E+10	1	-1E+10	1	-1E+10	1	-1E+10	1
4901784	159	C	11/11/2019	10:49	-132.779	43.658	0	1200.10	0	3.0500	0	36.6850	8	29.235	0	1187.080	0	14.6	4	4.6	4	-1E+10	1	-1E+10	1	-1E+10	1	-1E+10	1	-1E+10	1	-1E+10	1
4901784	159	C	11/11/2019	10:49	-132.779	43.658	0	1205.30	0	3.0380	0	36.6870	8	29.238	0	1192.209	0	14.8	4	4.7	4	-1E+10	1	-1E+10	1	-1E+10	1	-1E+10	1	-1E+10	1	-1E+10	1
4901784	159	C	11/11/2019	10:49	-132.779	43.658	0	1210.50	0	3.0310	0	36.6880	8	29.239	0	1197.338	0	15.0	4	4.7	4	-1E+10	1	-1E+10	1	-1E+10	1	-1E+10	1	-1E+10	1	-1E+10	1
4901784	159	C	11/11/2019	10:49	-132.779	43.658	0	1214.80	0	3.0190	0	36.6900	8	29.242	0	1201.579	0	15.2	4	4.8	4	-1E+10	1	-1E+10	1	-1E+10	1	-1E+10	1	-1E+10	1	-1E+10	1
4901784	159	C	11/11/2019	10:49	-132.779	43.658	0	1219.30	0	3.0080	0	36.6920	8	29.245	0	1206.017	0	15.3	4	4.8	4	-1E+10	1	-1E+10	1	-1E+10	1	-1E+10	1	-1E+10	1	-1E+10	1
4901784	159	C	11/11/2019	10:49	-132.779	43.658	0	1224.50	0	3.0000	0	36.6940	8	29.247	0	1211.145	0	15.4	4	4.8	4	-1E+10	1	-1E+10	1	-1E+10	1	-1E+10	1	-1E+10	1	-1E+10	1
4901784	159	C	11/11/2019	10:49	-132.779	43.658	0	1229.70	0	2.9900	0	36.6940	8	29.248	0	1216.273	0	15.6	4	4.9	4	-1E+10	1	-1E+10	1	-1E+10	1	-1E+10	1	-1E+10	1	-1E+10	1
4901784	159	C	11/11/2019	10:49	-132.779	43.658	0	1235.20	0	2.9750	0	36.6970	8	29.252	0	1221.697	0	15.7	4	4.9	4	-1E+10	1	-1E+10	1	-1E+10	1	-1E+10	1	-1E+10	1	-1E+10	1
4901784	159	C	11/11/2019	10:49	-132.779	43.658	0	1240.30	0	2.9660	0	36.6980	8	29.254	0	1226.727	0	15.9	4	5.0	4	-1E+10	1	-1E+10	1	-1E+10	1	-1E+10	1	-1E+10	1	-1E+10	1
4901784	159	C	11/11/2019	10:49	-132.779	43.658	0	1244.40	0	2.9560	0	36.7000	8	29.256	0	1230.770	0	16.0	4	5.0	4	-1E+10	1	-1E+10	1	-1E+10	1	-1E+10	1	-1E+10	1	-1E+10	1
4901784	159	C	11/11/2019	10:49	-132.779	43.658	0	1249.90	0	2.9470	0	36.7010	8	29.258	0	1236.194	0	16.1	4	5.1	4	-1E+10	1	-1E+10	1	-1E+10	1	-1E+10	1	-1E+10	1	-1E+10	1
4901784	159	C	11/11/2019	10:49	-132.779	43.658	0	1255.50	0	2.9380	0	36.7020	8	29.260	0	1241.716	0	16.3	4	5.1	4	-1E+10	1	-1E+10	1	-1E+10	1	-1E+10	1	-1E+10	1	-1E+10	1
4901784	159	C	11/11/2019	10:49	-132.779	43.658	0	1260.30	0	2.9230	0	36.7040	8	29.263	0	1246.449	0	16.5	4	5.2	4	-1E+10	1	-1E+10	1	-1E+10	1	-1E+10	1	-1E+10	1	-1E+10	1
4901784	159	C	11/11/2019	10:49	-132.779	43.658	0	1265.10	0	2.9140	0	36.7060	8	29.265	0	1251.182	0	16.6	4	5.2	4	-1E+10	1	-1E+10	1	-1E+10	1	-1E+10	1	-1E+10	1	-1E+10	1
4901784	159	C	11/11/2019	10:49	-132.779	43.658	0	1270.00	0	2.9070	0	36.7070	8	29.267	0	1256.013	0	16.8	4	5.3	4	-1E+10	1	-1E+10	1	-1E+10	1	-1E+10	1	-1E+10	1	-1E+10	1
4901784	159	C	11/11/2019	10:49	-132.779	43.658	0	1275.00	0	2.8990	0	36.7080	8	29.268	0	1260.943	0	17.0	4	5.3	4	-1E+10	1	-1E+10	1	-1E+10	1	-1E+10	1	-1E+10	1	-1E+10	1
4901784	159	C	11/11/2019	10:49	-132.779	43.658	0	1279.90	0	2.8880	0	36.7100	8	29.271	0	1265.775	0	17.2	4	5.4	4	-1E+10	1	-1E+10	1	-1E+10	1	-1E+10	1	-1E+10	1	-1E+10	1
4901784	159	C	11/11/2019	10:49	-132.779	43.658	0	1284.90	0	2.8790	0	36.7110	8	29.273	0	1270.704	0	17.4	4	5.5	4	-1E+10	1	-1E+10	1	-1E+10	1	-1E+10	1	-1E+10	1	-1E+10	1
4901784	159	C	11/11/2019	10:49	-132.779	43.658	0	1289.90	0	2.8690	0	36.7120	8	29.274	0	1275.634	0	17.6	4	5.5	4	-1E+10	1	-1E+10	1	-1E+10	1	-1E+10	1	-1E+10	1	-1E+10	1
4901784	159	C	11/11/2019	10:49	-132.779	43.658	0	1295.00	0	2.8600	0	36.7130	8	29.276	0	1280.662	0	17.9	4	5.6	4	-1E+10	1	-1E+10	1	-1E+10	1	-1E+10	1	-1E+10	1	-1E+10	1
4901784	159	C	11/11/2019	10:49	-132.779	43.658	0	1300.10	0	2.8450	0	36.7160	8	29.280	0	1285.690	0	18.1	4	5.7	4	-1E+10	1	-1E+10	1	-1E+10	1	-1E+10	1	-1E+10	1	-1E+10	1
4901784	159	C	11/11/2019	10:49	-132.779	43.658	0	1305.20	0	2.8350	0	36.7170	8	29.282	0	1290.718	0	18.3	4	5.7	4	-1E+10	1	-1E+10	1	-1E+10	1	-1E+10	1	-1E+10	1	-1E+10	1
4901784	159	C	11/11/2019	10:49	-132.779	43.658	0	1310.30	0	2.8220	0	36.7200	8	29.285	0	1295.746	0	18.6	4	5.8	4	-1E+10	1	-1E+10	1	-1E+10	1	-1E+10	1	-1E+10	1	-1E+10	1
4901784	159	C	11/11/2019	10:49	-132.779	43.658	0	1315.40	0	2.8160	0	36.7200	8	29.286	0	1300.773	0	18.7	4	5.9	4	-1E+10	1	-1E+10	1	-1E+10	1	-1E+10	1	-1E+10	1	-1E+10	1
4901784	159	C	11/11/2019	10:49	-132.779	43.658	0	1320.60	0	2.8060	0	36.7220	8	29.288	0	1305.899	0	19.0	4	5.9	4	-1E+10	1	-1E+10	1	-1E+10	1	-1E+10	1	-1E+10	1	-1E+10	1
4901784	159	C	11/11/2019	10:49	-132.779	43.658	0	1324.90	0	2.7990	0	36.7230	8	29.290	0	1310.138	0	19.2	4	6.0	4	-1E+10	1	-1E+10	1	-1E+10	1	-1E+10	1	-1E+10	1	-1E+10	1
4901784	159	C	11/11/2019	10:49	-132.779	43.658	0	1329.30	0	2.7940	0	36.7230	8	29.290	0	1314.475	0	19.3	4	6.0	4	-1E+10	1	-1E+10	1	-1E+10	1	-1E+10	1	-1E+10	1	-1E+10	1
4901784	159	C	11/11/2019	10:49	-132.779	43.658	0	1334.60	0	2.7860	0	36.7240	8	29.292	0	1319.700	0	19.6	4	6.1	4	-1E+10	1	-1E+10	1	-1E+10	1	-1E+10	1	-1E+10	1	-1E+10	1
4901784	159	C	11/11/2019	10:49	-132.779	43.658	0	1339.90	0	2.7730	0	36.7270	8	29.296	0	1324.924	0	19.9	4	6.2	4	-1E+10	1	-1E+10	1	-1E+10	1	-1E+10	1	-1E+10	1	-1E+10	1
4901784	159	C	11/11/2019	10:49	-132.779	43.658	0	1345.30	0	2.7640	0	36.7280	8	29.297	0	1330.246	0	20.1	4	6.3	4	-1E+10	1	-1E+10	1	-1E+10	1	-1E+10	1	-1E+10	1	-1E+10	1
4901784	159	C	11/11/2019	10:49	-132.779	43.658	0	1349.80	0	2.7590	0	36.7290	8	29.299	0	1334.682	0	20.2	4	6.3	4	-1E+10	1	-1E+10	1	-1E+10	1	-1E+10	1	-1E+10	1	-1E+10	1
4901784	159	C	11/11/2019	10:49	-132.779	43.658	0	1354.20	0	2.7500	0	36.7300	8	29.300	0	1339.018	0	20.4	4	6.4	4	-1E+10	1	-1E+10	1	-1E+10	1	-1E+10	1	-1E+10	1	-1E+10	1
4901784	159	C	11/11/2019	10:49	-132.779	43.658	0	1360.10	0	2.7460	0	36.7310	8	29.302	0	1344.834	0	20.5	4	6.4	4	-1E+10	1	-1E+10	1	-1E+10	1	-1E+10	1	-1E+10	1	-1E+10	1
4901784	159	C	11/11/2019	10:49	-132.779	43.658	0	1365.70	0	2.7380	0	36.7310	8	29.302	0	1350.353	0	20.9	4	6.5	4	-1E+10	1	-1E+10	1	-1E+10	1	-1E+10	1	-1E+10	1	-1E+10	1
4901784	159	C	11/11/2019	10:49	-132.779	43.658	0	1370.50	0	2.7230	0	36.7340	8	29.306	0	1355.083	0	21.2	4	6.6	4	-1E+10	1	-1E+10	1	-1E+10	1	-1E+10	1	-1E+10	1	-1E+10	1
4901784	159	C	11/11/2019	10:49	-132.779	43.658	0	1374.90	0	2.7140	0	36.7350	8	29.308	0	1359.420	0	21.4	4	6.7	4	-1E+10	1	-1E+10	1	-1E+10	1	-1E+10	1	-1E+10	1	-1E+10	1
4901784	159	C	11/11/2019	10:49	-132.779	43.658	0	1379.30	0	2.7060	0	36.7360	8	29.309	0	1363.756	0	21.7	4	6.8	4	-1E+10	1	-1E+10	1	-1E+10	1	-1E+10	1	-1E+10	1	-1E+10	1
4901784	159	C	11/11/2019	10:49	-132.779	43.658	0	1384.60	0	2.6940	0	36.7380	8	29.312	0	1368.979	0	22.0	4	6.9	4	-1E+10	1	-1E+10	1	-1E+10	1	-1E+10	1	-1E+10	1	-1E+10	1
4901784	159	C	11/11/2019	10:49	-132.779	43.658	0	1389.90	0	2.6830	0	36.7390	8	29.314	0	1374.202	0	22.2	4	6.9	4	-1E+10	1	-1E+10	1	-1E+10	1	-1E+10	1	-1E+10	1	-1E+10	1
4901784	159	C	11/11/2019	10:49	-132.779	43.658	0	1395.20	0	2.6730	0	36.7410	8	29.317	0	1379.425	0	22.6	4	7.0	4	-1E+10	1	-1E+10	1	-1E+10	1	-1E+10	1	-1E+10	1	-1E+10	1
4901784	159	C	11/11/2019	10:49	-132.779	43.658	0	1400.50	0	2.6640	0	36.7430	8	29.319	0	1384.648	0	22.8	4	7.1	4	-1E+10	1	-1E+10	1	-1E+10	1	-1E+10	1	-1E+10	1	-1E+10	1
4901784	159	C	11/11/2019	10:49	-132.779	43.658	0	1405.00	0	2.6600	0	36.7430	8	29.319	0	1389.082	0	22.9	4	7.1	4	-1E+10	1	-1E+10	1	-1E+10	1	-1E+10	1	-1E+10	1	-1E+10	1
4901784	159	C	11/11/2019	10:49	-132.779	43.658	0	1409.60	0	2.6520	0	36.7450	8	29.322	0	1393.614	0	23.1	4	7.2	4	-1E+10	1	-1E+10	1	-1E+10	1	-1E+10	1	-1E+10	1	-1E+10	1
4901784	159	C	11/11/2019	10:49	-132.779	43.658	0	1415.00	0	2.6480	0	36.7450	8	29.322	0	1398.935	0	23.3	4	7.3	4	-1E+10	1	-1E+10	1	-1E+10	1	-1E+10	1	-1E+10	1	-1E+10	1
4901784	159	C	11/11/2019	10:49	-132.779	43.658	0	1419.70	0	2.6440	0	36.7460	8	29.323	0	1403.566	0	23.5	4	7.3	4	-1E+10	1	-1E+10	1	-1E+10	1	-1E+10	1	-1E+10	1	-1E+10	1
4901784	159	C	11/11/2019	10:49	-132.779	43.658	0	1424.40	0	2.6310	0	36.7480	8	29.326	0	1408.197	0	23.8	4	7.4	4	-1E+10	1	-1E+10	1	-1E+10	1	-1E+10	1	-1E+10	1	-1E+10	1
4901784	159	C	11/11/2019	10:49	-132.779	43.658	0	1430.00	0	2.6230	0	36.7490	8	29.328	0	1413.715	0	24.0	4	7.5	4	-1E+10	1	-1E+10	1	-1E+10	1	-1E+10	1	-1E+10	1	-1E+10	1
4901784	159	C	11/11/2019	10:49	-132.779	43.658	0	1434.80	0	2.6170	0	36.7500	8	29.329	0	1418.444	0	24.2	4	7.5	4	-1E+10	1	-1E+10	1	-1E+10	1	-1E+10	1	-1E+10	1	-1E+10	1
4901784	159	C	11/11/2019	10:49	-132.779	43.658	0	1439.50	0	2.6100	0	36.7510	8	29.331	0	1423.075	0	24.4	4	7.6	4	-1E+10	1	-1E+10	1	-1E+10	1	-1E+10	1	-1E+10	1	-1E+10	1
4901784	159	C	11/11/2019	10:49	-132.779	43.658	0	1445.20	0	2.6000	0	36.7520	8	29.332	0	1428.690	0	24.7	4	7.7	4	-1E+10	1	-1E+10	1	-1E+10	1	-1E+10	1	-1E+10	1	-1E+10	1
4901784	159	C	11/11/2019	10:49	-132.779	43.658	0	1449.90	0	2.5950	0	36.7530	8	29.334	0	1433.321	0	24.9	4	7.7	4	-1E+10	1	-1E+10	1	-1E+10	1	-1E+10	1	-1E+10	1	-1E+10	1
4901784	159	C	11/11/2019	10:49	-132.779	43.658	0	1454.60	0	2.5880	0	36.7540	8	29.335	0	1437.951	0	25.1	4	7.8	4	-1E+10	1	-1E+10	1	-1E+10	1	-1E+10	1	-1E+10	1	-1E+10	1
4901784	159	C	11/11/2019	10:49	-132.779	43.658	0	1460.30	0	2.5800	0	36.7540	8	29.336	0	1443.566	0	25.5	4	7.9	4	-1E+10	1	-1E+10	1	-1E+10	1	-1E+10	1	-1E+10	1	-1E+10	1
4901784	159	C	11/11/2019	10:49	-132.779	43.658	0	1465.00	0	2.5650	0	36.7570	8	29.340	0	1448.196	0	25.8	4	8.0	4	-1E+10	1	-1E+10	1	-1E+10	1	-1E+10	1	-1E+10	1	-1E+10	1
4901784	159	C	11/11/2019	10:49	-132.779	43.658	0	1469.80	0	2.5560	0	36.7580	8	29.341	0	1452.925	0	26.1	4	8.1	4	-1E+10	1	-1E+10	1	-1E+10	1	-1E+10	1	-1E+10	1	-1E+10	1
4901784	159	C	11/11/2019	10:49	-132.779	43.658	0	1474.70	0	2.5500	0	36.7590	8	29.343	0	1457.752	0	26.4	4	8.2	4	-1E+10	1	-1E+10	1	-1E+10	1	-1E+10	1	-1E+10	1	-1E+10	1
4901784	159	C	11/11/2019	10:49	-132.779	43.658	0	1479.60	0	2.5420	0	36.7600	8	29.344	0	1462.578	0	26.7	4	8.3	4	-1E+10	1	-1E+10	1	-1E+10	1	-1E+10	1	-1E+10	1	-1E+10	1
4901784	159	C	11/11/2019	10:49	-132.779	43.658	0	1484.60	0	2.5330	0	36.7610	8	29.346	0	1467.503	0	27.0	4	8.4	4	-1E+10	1	-1E+10	1	-1E+10	1	-1E+10	1	-1E+10	1	-1E+10	1
4901784	159	C	11/11/2019	10:49	-132.779	43.658	0	1489.50	0	2.5170	0	36.7630	8	29.349	0	1472.330	0	27.3	4	8.5	4	-1E+10	1	-1E+10	1	-1E+10	1	-1E+10	1	-1E+10	1	-1E+10	1
4901784	159	C	11/11/2019	10:49	-132.779	43.658	0	1495.40	0	2.5120	0	36.7640	8	29.350	0	1478.141	0	27.6	4	8.6	4	-1E+10	1	-1E+10	1	-1E+10	1	-1E+10	1	-1E+10	1	-1E+10	1
4901784	159	C	11/11/2019	10:49	-132.779	43.658	0	1500.10	0	2.5010	0	36.7650	8	29.352	0	1482.771	0	27.9	4	8.7	4	-1E+10	1	-1E+10	1	-1E+10	1	-1E+10	1	-1E+10	1	-1E+10	1
4901784	159	C	11/11/2019	10:49	-132.779	43.658	0	1504.70	0	2.4920	0	36.7660	8	29.354	0	1487.301	0	28.2	4	8.7	4	-1E+10	1	-1E+10	1	-1E+10	1	-1E+10	1	-1E+10	1	-1E+10	1
4901784	159	C	11/11/2019	10:49	-132.779	43.658	0	1510.10	0	2.4820	0	36.7670	8	29.355	0	1492.620	0	28.5	4	8.8	4	-1E+10	1	-1E+10	1	-1E+10	1	-1E+10	1	-1E+10	1	-1E+10	1
4901784	159	C	11/11/2019	10:49	-132.779	43.658	0	1515.60	0	2.4750	0	36.7690	8	29.358	0	1498.037	0	28.7	4	8.9	4	-1E+10	1	-1E+10	1	-1E+10	1	-1E+10	1	-1E+10	1	-1E+10	1
4901784	159	C	11/11/2019	10:49	-132.779	43.658	0	1520.10	0	2.4700	0	36.7690	8	29.358	0	1502.468	0	28.9	4	9.0	4	-1E+10	1	-1E+10	1	-1E+10	1	-1E+10	1	-1E+10	1	-1E+10	1
4901784	159	C	11/11/2019	10:49	-132.779	43.658	0	1524.60	0	2.4630	0	36.7700	8	29.360	0	1506.900	0	29.3	4	9.1	4	-1E+10	1	-1E+10	1	-1E+10	1	-1E+10	1	-1E+10	1	-1E+10	1
4901784	159	C	11/11/2019	10:49	-132.779	43.658	0	1530.20	0	2.4530	0	36.7720	8	29.362	0	1512.415	0	29.7	4	9.2	4	-1E+10	1	-1E+10	1	-1E+10	1	-1E+10	1	-1E+10	1	-1E+10	1
4901784	159	C	11/11/2019	10:49	-132.779	43.658	0	1534.80	0	2.4460	0	36.7720	8	29.363	0	1516.945	0	30.0	4	9.3	4	-1E+10	1	-1E+10	1	-1E+10	1	-1E+10	1	-1E+10	1	-1E+10	1
4901784	159	C	11/11/2019	10:49	-132.779	43.658	0	1539.40	0	2.4400	0	36.7730	8	29.364	0	1521.475	0	30.2	4	9.4	4	-1E+10	1	-1E+10	1	-1E+10	1	-1E+10	1	-1E+10	1	-1E+10	1
4901784	159	C	11/11/2019	10:49	-132.779	43.658	0	1545.00	0	2.4300	0	36.7740	8	29.366	0	1526.990	0	30.6	4	9.5	4	-1E+10	1	-1E+10	1	-1E+10	1	-1E+10	1	-1E+10	1	-1E+10	1
4901784	159	C	11/11/2019	10:49	-132.779	43.658	0	1550.10	0	2.4230	0	36.7750	8	29.367	0	1532.012	0	30.8	4	9.5	4	-1E+10	1	-1E+10	1	-1E+10	1	-1E+10	1	-1E+10	1	-1E+10	1
4901784	159	C	11/11/2019	10:49	-132.779	43.658	0	1555.10	0	2.4160	0	36.7760	8	29.369	0	1536.935	0	31.1	4	9.6	4	-1E+10	1	-1E+10	1	-1E+10	1	-1E+10	1	-1E+10	1	-1E+10	1
4901784	159	C	11/11/2019	10:49	-132.779	43.658	0	1560.70	0	2.4050	0	36.7780	8	29.371	0	1542.450	0	31.5	4	9.8	4	-1E+10	1	-1E+10	1	-1E+10	1	-1E+10	1	-1E+10	1	-1E+10	1
4901784	159	C	11/11/2019	10:49	-132.779	43.658	0	1565.40	0	2.3970	0	36.7790	8	29.373	0	1547.078	0	31.8	4	9.8	4	-1E+10	1	-1E+10	1	-1E+10	1	-1E+10	1	-1E+10	1	-1E+10	1
4901784	159	C	11/11/2019	10:49	-132.779	43.658	0	1570.30	0	2.3940	0	36.7790	8	29.373	0	1551.902	0	32.0	4	9.9	4	-1E+10	1	-1E+10	1	-1E+10	1	-1E+10	1	-1E+10	1	-1E+10	1
4901784	159	C	11/11/2019	10:49	-132.779	43.658	0	1575.20	0	2.3840	0	36.7800	8	29.375	0	1556.727	0	32.4	4	10.0	4	-1E+10	1	-1E+10	1	-1E+10	1	-1E+10	1	-1E+10	1	-1E+10	1
4901784	159	C	11/11/2019	10:49	-132.779	43.658	0	1580.10	0	2.3760	0	36.7810	8	29.377	0	1561.551	0	32.7	4	10.1	4	-1E+10	1	-1E+10	1	-1E+10	1	-1E+10	1	-1E+10	1	-1E+10	1
4901784	159	C	11/11/2019	10:49	-132.779	43.658	0	1585.00	0	2.3660	0	36.7830	8	29.379	0	1566.376	0	33.0	4	10.2	4	-1E+10	1	-1E+10	1	-1E+10	1	-1E+10	1	-1E+10	1	-1E+10	1
4901784	159	C	11/11/2019	10:49	-132.779	43.658	0	1589.90	0	2.3610	0	36.7830	8	29.380	0	1571.200	0	33.3	4	10.3	4	-1E+10	1	-1E+10	1	-1E+10	1	-1E+10	1	-1E+10	1	-1E+10	1
4901784	159	C	11/11/2019	10:49	-132.779	43.658	0	1594.90	0	2.3540	0	36.7840	8	29.381	0	1576.122	0	33.6	4	10.4	4	-1E+10	1	-1E+10	1	-1E+10	1	-1E+10	1	-1E+10	1	-1E+10	1
4901784	159	C	11/11/2019	10:49	-132.779	43.658	0	1599.90	0	2.3450	0	36.7850	8	29.383	0	1581.045	0	33.9	4	10.5	4	-1E+10	1	-1E+10	1	-1E+10	1	-1E+10	1	-1E+10	1	-1E+10	1
4901784	159	C	11/11/2019	10:49	-132.779	43.658	0	1604.90	0	2.3390	0	36.7860	8	29.384	0	1585.967	0	34.1	4	10.6	4	-1E+10	1	-1E+10	1	-1E+10	1	-1E+10	1	-1E+10	1	-1E+10	1
4901784	159	C	11/11/2019	10:49	-132.779	43.658	0	1610.00	0	2.3330	0	36.7860	8	29.385	0	1590.988	0	34.4	4	10.6	4	-1E+10	1	-1E+10	1	-1E+10	1	-1E+10	1	-1E+10	1	-1E+10	1
4901784	159	C	11/11/2019	10:49	-132.779	43.658	0	1615.20	0	2.3270	0	36.7870	8	29.386	0	1596.107	0	34.8	4	10.8	4	-1E+10	1	-1E+10	1	-1E+10	1	-1E+10	1	-1E+10	1	-1E+10	1
4901784	159	C	11/11/2019	10:49	-132.779	43.658	0	1620.30	0	2.3160	0	36.7890	8	29.389	0	1601.127	0	35.1	4	10.8	4	-1E+10	1	-1E+10	1	-1E+10	1	-1E+10	1	-1E+10	1	-1E+10	1
4901784	159	C	11/11/2019	10:49	-132.779	43.658	0	1625.40	0	2.3120	0	36.7890	8	29.389	0	1606.148	0	35.2	4	10.9	4	-1E+10	1	-1E+10	1	-1E+10	1	-1E+10	1	-1E+10	1	-1E+10	1
4901784	159	C	11/11/2019	10:49	-132.779	43.658	0	1630.60	0	2.3080	0	36.7900	8	29.390	0	1611.266	0	35.5	4	11.0	4	-1E+10	1	-1E+10	1	-1E+10	1	-1E+10	1	-1E+10	1	-1E+10	1
4901784	159	C	11/11/2019	10:49	-132.779	43.658	0	1635.70	0	2.3020	0	36.7910	8	29.391	0	1616.286	0	35.7	4	11.0	4	-1E+10	1	-1E+10	1	-1E+10	1	-1E+10	1	-1E+10	1	-1E+10	1
4901784	159	C	11/11/2019	10:49	-132.779	43.658	0	1640.00	0	2.2990	0	36.7910	8	29.392	0	1620.519	0	36.0	4	11.1	4	-1E+10	1	-1E+10	1	-1E+10	1	-1E+10	1	-1E+10	1	-1E+10	1
4901784	159	C	11/11/2019	10:49	-132.779	43.658	0	1644.40	0	2.2920	0	36.7920	8	29.393	0	1624.850	0	36.2	4	11.2	4	-1E+10	1	-1E+10	1	-1E+10	1	-1E+10	1	-1E+10	1	-1E+10	1
4901784	159	C	11/11/2019	10:49	-132.779	43.658	0	1649.60	0	2.2860	0	36.7930	8	29.395	0	1629.968	0	36.5	4	11.3	4	-1E+10	1	-1E+10	1	-1E+10	1	-1E+10	1	-1E+10	1	-1E+10	1
4901784	159	C	11/11/2019	10:49	-132.779	43.658	0	1654.90	0	2.2810	0	36.7930	8	29.395	0	1635.184	0	36.7	4	11.3	4	-1E+10	1	-1E+10	1	-1E+10	1	-1E+10	1	-1E+10	1	-1E+10	1
4901784	159	C	11/11/2019	10:49	-132.779	43.658	0	1660.10	0	2.2730	0	36.7940	8	29.397	0	1640.302	0	37.1	4	11.5	4	-1E+10	1	-1E+10	1	-1E+10	1	-1E+10	1	-1E+10	1	-1E+10	1
4901784	159	C	11/11/2019	10:49	-132.779	43.658	0	1665.40	0	2.2630	0	36.7960	8	29.399	0	1645.519	0	37.5	4	11.6	4	-1E+10	1	-1E+10	1	-1E+10	1	-1E+10	1	-1E+10	1	-1E+10	1
4901784	159	C	11/11/2019	10:49	-132.779	43.658	0	1669.90	0	2.2590	0	36.7960	8	29.399	0	1649.947	0	37.7	4	11.6	4	-1E+10	1	-1E+10	1	-1E+10	1	-1E+10	1	-1E+10	1	-1E+10	1
4901784	159	C	11/11/2019	10:49	-132.779	43.658	0	1674.30	0	2.2530	0	36.7970	8	29.401	0	1654.278	0	38.1	4	11.7	4	-1E+10	1	-1E+10	1	-1E+10	1	-1E+10	1	-1E+10	1	-1E+10	1
4901784	159	C	11/11/2019	10:49	-132.779	43.658	0	1679.70	0	2.2460	0	36.7980	8	29.402	0	1659.592	0	38.4	4	11.9	4	-1E+10	1	-1E+10	1	-1E+10	1	-1E+10	1	-1E+10	1	-1E+10	1
4901784	159	C	11/11/2019	10:49	-132.779	43.658	0	1685.10	0	2.2380	0	36.7990	8	29.404	0	1664.906	0	38.8	4	12.0	4	-1E+10	1	-1E+10	1	-1E+10	1	-1E+10	1	-1E+10	1	-1E+10	1
4901784	159	C	11/11/2019	10:49	-132.779	43.658	0	1690.50	0	2.2310	0	36.8010	8	29.406	0	1670.220	0	39.1	4	12.1	4	-1E+10	1	-1E+10	1	-1E+10	1	-1E+10	1	-1E+10	1	-1E+10	1
4901784	159	C	11/11/2019	10:49	-132.779	43.658	0	1695.00	0	2.2280	0	36.8010	8	29.406	0	1674.648	0	39.3	4	12.1	4	-1E+10	1	-1E+10	1	-1E+10	1	-1E+10	1	-1E+10	1	-1E+10	1
4901784	159	C	11/11/2019	10:49	-132.779	43.658	0	1699.40	0	2.2240	0	36.8010	8	29.407	0	1678.978	0	39.7	4	12.2	4	-1E+10	1	-1E+10	1	-1E+10	1	-1E+10	1	-1E+10	1	-1E+10	1
4901784	159	C	11/11/2019	10:49	-132.779	43.658	0	1704.80	0	2.2170	0	36.8020	8	29.408	0	1684.292	0	40.2	4	12.4	4	-1E+10	1	-1E+10	1	-1E+10	1	-1E+10	1	-1E+10	1	-1E+10	1
4901784	159	C	11/11/2019	10:49	-132.779	43.658	0	1710.20	0	2.2070	0	36.8040	8	29.411	0	1689.605	0	40.6	4	12.5	4	-1E+10	1	-1E+10	1	-1E+10	1	-1E+10	1	-1E+10	1	-1E+10	1
4901784	159	C	11/11/2019	10:49	-132.779	43.658	0	1715.70	0	2.2010	0	36.8050	8	29.412	0	1695.017	0	40.9	4	12.6	4	-1E+10	1	-1E+10	1	-1E+10	1	-1E+10	1	-1E+10	1	-1E+10	1
4901784	159	C	11/11/2019	10:49	-132.779	43.658	0	1720.20	0	2.1940	0	36.8060	8	29.413	0	1699.445	0	41.3	4	12.7	4	-1E+10	1	-1E+10	1	-1E+10	1	-1E+10	1	-1E+10	1	-1E+10	1
4901784	159	C	11/11/2019	10:49	-132.779	43.658	0	1724.70	0	2.1900	0	36.8070	8	29.415	0	1703.873	0	41.5	4	12.8	4	-1E+10	1	-1E+10	1	-1E+10	1	-1E+10	1	-1E+10	1	-1E+10	1
4901784	159	C	11/11/2019	10:49	-132.779	43.658	0	1730.20	0	2.1840	0	36.8080	8	29.416	0	1709.284	0	41.9	4	12.9	4	-1E+10	1	-1E+10	1	-1E+10	1	-1E+10	1	-1E+10	1	-1E+10	1
4901784	159	C	11/11/2019	10:49	-132.779	43.658	0	1734.80	0	2.1790	0	36.8090	8	29.417	0	1713.810	0	42.1	4	13.0	4	-1E+10	1	-1E+10	1	-1E+10	1	-1E+10	1	-1E+10	1	-1E+10	1
4901784	159	C	11/11/2019	10:49	-132.779	43.658	0	1739.20	0	2.1750	0	36.8130	8	29.421	0	1718.139	0	42.4	4	13.1	4	-1E+10	1	-1E+10	1	-1E+10	1	-1E+10	1	-1E+10	1	-1E+10	1
4901784	159	C	11/11/2019	10:49	-132.779	43.658	0	1744.60	0	2.1710	0	36.8180	8	29.425	0	1723.451	0	42.8	4	13.2	4	-1E+10	1	-1E+10	1	-1E+10	1	-1E+10	1	-1E+10	1	-1E+10	1
4901784	159	C	11/11/2019	10:49	-132.779	43.658	0	1749.50	0	2.1640	0	36.8190	8	29.427	0	1728.272	0	43.2	4	13.3	4	-1E+10	1	-1E+10	1	-1E+10	1	-1E+10	1	-1E+10	1	-1E+10	1
4901784	159	C	11/11/2019	10:49	-132.779	43.658	0	1754.40	0	2.1580	0	36.8210	8	29.429	0	1733.093	0	43.5	4	13.4	4	-1E+10	1	-1E+10	1	-1E+10	1	-1E+10	1	-1E+10	1	-1E+10	1
4901784	159	C	11/11/2019	10:49	-132.779	43.658	0	1759.30	0	2.1550	0	36.8210	8	29.429	0	1737.913	0	43.8	4	13.5	4	-1E+10	1	-1E+10	1	-1E+10	1	-1E+10	1	-1E+10	1	-1E+10	1
4901784	159	C	11/11/2019	10:49	-132.779	43.658	0	1764.40	0	2.1510	0	36.8220	8	29.430	0	1742.930	0	44.1	4	13.6	4	-1E+10	1	-1E+10	1	-1E+10	1	-1E+10	1	-1E+10	1	-1E+10	1
4901784	159	C	11/11/2019	10:49	-132.779	43.658	0	1769.40	0	2.1450	0	36.8230	8	29.432	0	1747.849	0	44.5	4	13.7	4	-1E+10	1	-1E+10	1	-1E+10	1	-1E+10	1	-1E+10	1	-1E+10	1
4901784	159	C	11/11/2019	10:49	-132.779	43.658	0	1774.50	0	2.1380	0	36.8240	8	29.433	0	1752.866	0	45.0	4	13.8	4	-1E+10	1	-1E+10	1	-1E+10	1	-1E+10	1	-1E+10	1	-1E+10	1
4901784	159	C	11/11/2019	10:49	-132.779	43.658	0	1779.50	0	2.1310	0	36.8250	8	29.434	0	1757.784	0	45.4	4	14.0	4	-1E+10	1	-1E+10	1	-1E+10	1	-1E+10	1	-1E+10	1	-1E+10	1
4901784	159	C	11/11/2019	10:49	-132.779	43.658	0	1784.70	0	2.1260	0	36.8260	8	29.436	0	1762.899	0	45.8	4	14.1	4	-1E+10	1	-1E+10	1	-1E+10	1	-1E+10	1	-1E+10	1	-1E+10	1
4901784	159	C	11/11/2019	10:49	-132.779	43.658	0	1789.80	0	2.1220	0	36.8270	8	29.437	0	1767.916	0	46.2	4	14.2	4	-1E+10	1	-1E+10	1	-1E+10	1	-1E+10	1	-1E+10	1	-1E+10	1
4901784	159	C	11/11/2019	10:49	-132.779	43.658	0	1794.90	0	2.1190	0	36.8280	8	29.438	0	1772.932	0	46.6	4	14.3	4	-1E+10	1	-1E+10	1	-1E+10	1	-1E+10	1	-1E+10	1	-1E+10	1
4901784	159	C	11/11/2019	10:49	-132.779	43.658	0	1800.10	0	2.1140	0	36.8280	8	29.438	0	1778.046	0	46.8	4	14.4	4	-1E+10	1	-1E+10	1	-1E+10	1	-1E+10	1	-1E+10	1	-1E+10	1
4901784	159	C	11/11/2019	10:49	-132.779	43.658	0	1805.20	0	2.1080	0	36.8290	8	29.440	0	1783.063	0	47.1	4	14.5	4	-1E+10	1	-1E+10	1	-1E+10	1	-1E+10	1	-1E+10	1	-1E+10	1
4901784	159	C	11/11/2019	10:49	-132.779	43.658	0	1810.40	0	2.1070	0	36.8300	8	29.441	0	1788.177	0	47.5	4	14.6	4	-1E+10	1	-1E+10	1	-1E+10	1	-1E+10	1	-1E+10	1	-1E+10	1
4901784	159	C	11/11/2019	10:49	-132.779	43.658	0	1815.60	0	2.1030	0	36.8310	8	29.442	0	1793.291	0	48.0	4	14.8	4	-1E+10	1	-1E+10	1	-1E+10	1	-1E+10	1	-1E+10	1	-1E+10	1
4901784	159	C	11/11/2019	10:49	-132.779	43.658	0	1820.00	0	2.0980	0	36.8320	8	29.443	0	1797.619	0	48.4	4	14.9	4	-1E+10	1	-1E+10	1	-1E+10	1	-1E+10	1	-1E+10	1	-1E+10	1
4901784	159	C	11/11/2019	10:49	-132.779	43.658	0	1824.30	0	2.0920	0	36.8320	8	29.444	0	1801.847	0	48.7	4	15.0	4	-1E+10	1	-1E+10	1	-1E+10	1	-1E+10	1	-1E+10	1	-1E+10	1
4901784	159	C	11/11/2019	10:49	-132.779	43.658	0	1829.60	0	2.0870	0	36.8330	8	29.445	0	1807.060	0	48.9	4	15.0	4	-1E+10	1	-1E+10	1	-1E+10	1	-1E+10	1	-1E+10	1	-1E+10	1
4901784	159	C	11/11/2019	10:49	-132.779	43.658	0	1834.90	0	2.0810	0	36.8330	8	29.445	0	1812.272	0	49.2	4	15.1	4	-1E+10	1	-1E+10	1	-1E+10	1	-1E+10	1	-1E+10	1	-1E+10	1
4901784	159	C	11/11/2019	10:49	-132.779	43.658	0	1840.20	0	2.0700	0	36.8340	8	29.447	0	1817.484	0	49.6	4	15.2	4	-1E+10	1	-1E+10	1	-1E+10	1	-1E+10	1	-1E+10	1	-1E+10	1
4901784	159	C	11/11/2019	10:49	-132.779	43.658	0	1845.60	0	2.0600	0	36.8350	8	29.449	0	1822.794	0	49.8	4	15.3	4	-1E+10	1	-1E+10	1	-1E+10	1	-1E+10	1	-1E+10	1	-1E+10	1
4901784	159	C	11/11/2019	10:49	-132.779	43.658	0	1850.20	0	2.0580	0	36.8350	8	29.449	0	1827.317	0	50.0	4	15.4	4	-1E+10	1	-1E+10	1	-1E+10	1	-1E+10	1	-1E+10	1	-1E+10	1
4901784	159	C	11/11/2019	10:49	-132.779	43.658	0	1854.70	0	2.0500	0	36.8360	8	29.451	0	1831.742	0	50.3	4	15.5	4	-1E+10	1	-1E+10	1	-1E+10	1	-1E+10	1	-1E+10	1	-1E+10	1
4901784	159	C	11/11/2019	10:49	-132.779	43.658	0	1860.10	0	2.0450	0	36.8370	8	29.452	0	1837.052	0	50.6	4	15.5	4	-1E+10	1	-1E+10	1	-1E+10	1	-1E+10	1	-1E+10	1	-1E+10	1
4901784	159	C	11/11/2019	10:49	-132.779	43.658	0	1865.50	0	2.0410	0	36.8370	8	29.452	0	1842.362	0	50.9	4	15.6	4	-1E+10	1	-1E+10	1	-1E+10	1	-1E+10	1	-1E+10	1	-1E+10	1
4901784	159	C	11/11/2019	10:49	-132.779	43.658	0	1870.10	0	2.0350	0	36.8380	8	29.454	0	1846.885	0	51.0	4	15.7	4	-1E+10	1	-1E+10	1	-1E+10	1	-1E+10	1	-1E+10	1	-1E+10	1
4901784	159	C	11/11/2019	10:49	-132.779	43.658	0	1874.70	0	2.0320	0	36.8380	8	29.454	0	1851.408	0	51.1	4	15.7	4	-1E+10	1	-1E+10	1	-1E+10	1	-1E+10	1	-1E+10	1	-1E+10	1
4901784	159	C	11/11/2019	10:49	-132.779	43.658	0	1880.30	0	2.0260	0	36.8390	8	29.455	0	1856.914	0	51.4	4	15.8	4	-1E+10	1	-1E+10	1	-1E+10	1	-1E+10	1	-1E+10	1	-1E+10	1
4901784	159	C	11/11/2019	10:49	-132.779	43.658	0	1884.90	0	2.0230	0	36.8400	8	29.456	0	1861.436	0	51.6	4	15.8	4	-1E+10	1	-1E+10	1	-1E+10	1	-1E+10	1	-1E+10	1	-1E+10	1
4901784	159	C	11/11/2019	10:49	-132.779	43.658	0	1889.60	0	2.0190	0	36.8400	8	29.457	0	1866.057	0	51.8	4	15.9	4	-1E+10	1	-1E+10	1	-1E+10	1	-1E+10	1	-1E+10	1	-1E+10	1
4901784	159	C	11/11/2019	10:49	-132.779	43.658	0	1894.80	0	2.0160	0	36.8410	8	29.458	0	1871.170	0	52.0	4	16.0	4	-1E+10	1	-1E+10	1	-1E+10	1	-1E+10	1	-1E+10	1	-1E+10	1
4901784	159	C	11/11/2019	10:49	-132.779	43.658	0	1899.20	0	2.0140	0	36.8410	8	29.458	0	1875.495	0	52.2	4	16.0	4	-1E+10	1	-1E+10	1	-1E+10	1	-1E+10	1	-1E+10	1	-1E+10	1
4901784	159	C	11/11/2019	10:49	-132.779	43.658	0	1905.00	0	2.0080	0	36.8420	8	29.459	0	1881.197	0	52.7	4	16.2	4	-1E+10	1	-1E+10	1	-1E+10	1	-1E+10	1	-1E+10	1	-1E+10	1
4901784	159	C	11/11/2019	10:49	-132.779	43.658	0	1910.80	0	2.0030	0	36.8430	8	29.460	0	1886.899	0	53.0	4	16.3	4	-1E+10	1	-1E+10	1	-1E+10	1	-1E+10	1	-1E+10	1	-1E+10	1
4901784	159	C	11/11/2019	10:49	-132.779	43.658	0	1915.00	0	2.0010	0	36.8440	8	29.461	0	1891.028	0	53.2	4	16.3	4	-1E+10	1	-1E+10	1	-1E+10	1	-1E+10	1	-1E+10	1	-1E+10	1
4901784	159	C	11/11/2019	10:49	-132.779	43.658	0	1919.20	0	1.9990	0	36.8440	8	29.462	0	1895.157	0	53.3	4	16.4	4	-1E+10	1	-1E+10	1	-1E+10	1	-1E+10	1	-1E+10	1	-1E+10	1
4901784	159	C	11/11/2019	10:49	-132.779	43.658	0	1924.20	0	1.9980	0	36.8440	8	29.462	0	1900.072	0	53.4	4	16.4	4	-1E+10	1	-1E+10	1	-1E+10	1	-1E+10	1	-1E+10	1	-1E+10	1
4901784	159	C	11/11/2019	10:49	-132.779	43.658	0	1929.20	0	1.9950	0	36.8450	8	29.463	0	1904.987	0	53.6	4	16.4	4	-1E+10	1	-1E+10	1	-1E+10	1	-1E+10	1	-1E+10	1	-1E+10	1
4901784	159	C	11/11/2019	10:49	-132.779	43.658	0	1934.20	0	1.9930	0	36.8450	8	29.463	0	1909.902	0	53.8	4	16.5	4	-1E+10	1	-1E+10	1	-1E+10	1	-1E+10	1	-1E+10	1	-1E+10	1
4901784	159	C	11/11/2019	10:49	-132.779	43.658	0	1939.30	0	1.9910	0	36.8460	8	29.464	0	1914.915	0	54.0	4	16.6	4	-1E+10	1	-1E+10	1	-1E+10	1	-1E+10	1	-1E+10	1	-1E+10	1
4901784	159	C	11/11/2019	10:49	-132.779	43.658	0	1944.40	0	1.9880	0	36.8460	8	29.464	0	1919.928	0	54.3	4	16.6	4	-1E+10	1	-1E+10	1	-1E+10	1	-1E+10	1	-1E+10	1	-1E+10	1
4901784	159	C	11/11/2019	10:49	-132.779	43.658	0	1949.50	0	1.9840	0	36.8470	8	29.466	0	1924.940	0	54.5	4	16.7	4	-1E+10	1	-1E+10	1	-1E+10	1	-1E+10	1	-1E+10	1	-1E+10	1
4901784	159	C	11/11/2019	10:49	-132.779	43.658	0	1954.70	0	1.9830	0	36.8480	8	29.466	0	1930.051	0	54.8	4	16.8	4	-1E+10	1	-1E+10	1	-1E+10	1	-1E+10	1	-1E+10	1	-1E+10	1
4901784	159	C	11/11/2019	10:49	-132.779	43.658	0	1959.90	0	1.9840	0	36.8490	8	29.467	0	1935.162	0	55.0	4	16.9	4	-1E+10	1	-1E+10	1	-1E+10	1	-1E+10	1	-1E+10	1	-1E+10	1
4901784	159	C	11/11/2019	10:49	-132.779	43.658	0	1965.10	0	1.9840	0	36.8490	8	29.467	0	1940.273	0	55.2	4	16.9	4	-1E+10	1	-1E+10	1	-1E+10	1	-1E+10	1	-1E+10	1	-1E+10	1
4901784	159	C	11/11/2019	10:49	-132.779	43.658	0	1970.20	0	1.9800	0	36.8500	8	29.468	0	1945.285	0	55.3	4	17.0	4	-1E+10	1	-1E+10	1	-1E+10	1	-1E+10	1	-1E+10	1	-1E+10	1
4901784	159	C	11/11/2019	10:49	-132.779	43.658	0	1975.50	0	1.9770	0	36.8500	8	29.469	0	1950.494	0	55.5	4	17.0	4	-1E+10	1	-1E+10	1	-1E+10	1	-1E+10	1	-1E+10	1	-1E+10	1
4901784	159	C	11/11/2019	10:49	-132.779	43.658	0	1980.60	0	1.9730	0	36.8500	8	29.469	0	1955.506	0	55.7	4	17.1	4	-1E+10	1	-1E+10	1	-1E+10	1	-1E+10	1	-1E+10	1	-1E+10	1
4901784	159	C	11/11/2019	10:49	-132.779	43.658	0	1985.00	0	1.9720	0	36.8510	8	29.470	0	1959.830	0	55.9	4	17.1	4	-1E+10	1	-1E+10	1	-1E+10	1	-1E+10	1	-1E+10	1	-1E+10	1
4901784	159	C	11/11/2019	10:49	-132.779	43.658	0	1989.40	0	1.9700	0	36.8510	8	29.470	0	1964.154	0	56.0	4	17.2	4	-1E+10	1	-1E+10	1	-1E+10	1	-1E+10	1	-1E+10	1	-1E+10	1
4901784	159	C	11/11/2019	10:49	-132.779	43.658	0	1994.60	0	1.9660	0	36.8520	8	29.471	0	1969.264	0	56.3	4	17.2	4	-1E+10	1	-1E+10	1	-1E+10	1	-1E+10	1	-1E+10	1	-1E+10	1
4901784	159	C	11/11/2019	10:49	-132.779	43.658	0	1999.80	0	1.9610	0	36.8530	8	29.473	0	1974.374	0	56.6	4	17.3	4	-1E+10	1	-1E+10	1	-1E+10	1	-1E+10	1	-1E+10	1	-1E+10	1
4901784	159	C	11/11/2019	10:49	-132.779	43.658	0	2004.90	0	1.9580	0	36.8530	8	29.473	0	1979.385	0	56.9	4	17.4	4	-1E+10	1	-1E+10	1	-1E+10	1	-1E+10	1	-1E+10	1	-1E+10	1
4901784	159	C	11/11/2019	10:49	-132.779	43.658	0	2009.60	0	1.9550	0	36.8540	8	29.474	0	1984.003	0	57.1	4	17.5	4	-1E+10	1	-1E+10	1	-1E+10	1	-1E+10	1	-1E+10	1	-1E+10	1
4901784	159	C	11/11/2019	10:49	-132.779	43.658	0	2015.00	0	1.9520	0	36.8550	8	29.475	0	1989.310	0	57.4	4	17.6	4	-1E+10	1	-1E+10	1	-1E+10	1	-1E+10	1	-1E+10	1	-1E+10	1
4901784	159	C	11/11/2019	10:49	-132.779	43.658	0	2019.60	0	1.9500	0	36.8550	8	29.475	0	1993.829	0	57.5	4	17.6	4	-1E+10	1	-1E+10	1	-1E+10	1	-1E+10	1	-1E+10	1	-1E+10	1
4901784	159	C	11/11/2019	10:49	-132.779	43.658	0																										
4901784	160	C	11/21/2019	10:42	-132.759	43.651	0	2.20	0	15.8320	0	34.6990	8	25.555	0	2.182	0	235.4	4	96.3	4	-1E+10	1	-1E+10	1	-1E+10	1	-1E+10	1	-1E+10	1	-1E+10	1
4901784	160	C	11/21/2019	10:42	-132.759	43.651	0	3.70	0	15.8370	0	34.6990	8	25.554	0	3.670	0	235.6	4	96.5	4	-1E+10	1	-1E+10	1	-1E+10	1	-1E+10	1	-1E+10	1	-1E+10	1
4901784	160	C	11/21/2019	10:42	-132.759	43.651	0	5.30	0	15.8380	0	34.7000	8	25.555	0	5.258	0	235.5	4	96.4	4	-1E+10	1	-1E+10	1	-1E+10	1	-1E+10	1	-1E+10	1	-1E+10	1
4901784	160	C	11/21/2019	10:42	-132.759	43.651	0	7.00	0	15.8360	0	34.7000	8	25.555	0	6.944	0	235.4	4	96.4	4	-1E+10	1	-1E+10	1	-1E+10	1	-1E+10	1	-1E+10	1	-1E+10	1
4901784	160	C	11/21/2019	10:42	-132.759	43.651	0	8.60	0	15.8380	0	34.7000	8	25.555	0	8.531	0	235.4	4	96.4	4	-1E+10	1	-1E+10	1	-1E+10	1	-1E+10	1	-1E+10	1	-1E+10	1
4901784	160	C	11/21/2019	10:42	-132.759	43.651	0	10.40	0	15.8350	0	34.7010	8	25.556	0	10.317	0	235.3	4	96.3	4	-1E+10	1	-1E+10	1	-1E+10	1	-1E+10	1	-1E+10	1	-1E+10	1
4901784	160	C	11/21/2019	10:42	-132.759	43.651	0	12.20	0	15.8350	0	34.7010	8	25.556	0	12.102	0	235.4	4	96.3	4	-1E+10	1	-1E+10	1	-1E+10	1	-1E+10	1	-1E+10	1	-1E+10	1
4901784	160	C	11/21/2019	10:42	-132.759	43.651	0	14.00	0	15.8350	0	34.7020	8	25.557	0	13.888	0	235.3	4	96.3	4	-1E+10	1	-1E+10	1	-1E+10	1	-1E+10	1	-1E+10	1	-1E+10	1
4901784	160	C	11/21/2019	10:42	-132.759	43.651	0	15.80	0	15.8370	0	34.6730	8	25.535	0	15.673	0	235.4	4	96.3	4	-1E+10	1	-1E+10	1	-1E+10	1	-1E+10	1	-1E+10	1	-1E+10	1
4901784	160	C	11/21/2019	10:42	-132.759	43.651	0	17.60	0	15.8410	0	34.6750	8	25.535	0	17.459	0	235.1	4	96.2	4	-1E+10	1	-1E+10	1	-1E+10	1	-1E+10	1	-1E+10	1	-1E+10	1
4901784	160	C	11/21/2019	10:42	-132.759	43.651	0	19.30	0	15.8400	0	34.6750	8	25.536	0	19.145	0	234.9	4	96.2	4	-1E+10	1	-1E+10	1	-1E+10	1	-1E+10	1	-1E+10	1	-1E+10	1
4901784	160	C	11/21/2019	10:42	-132.759	43.651	0	21.20	0	15.8410	0	34.6750	8	25.535	0	21.029	0	234.9	4	96.1	4	-1E+10	1	-1E+10	1	-1E+10	1	-1E+10	1	-1E+10	1	-1E+10	1
4901784	160	C	11/21/2019	10:42	-132.759	43.651	0	22.90	0	15.8420	0	34.6750	8	25.535	0	22.716	0	234.8	4	96.1	4	-1E+10	1	-1E+10	1	-1E+10	1	-1E+10	1	-1E+10	1	-1E+10	1
4901784	160	C	11/21/2019	10:42	-132.759	43.651	0	24.80	0	15.8420	0	34.6760	8	25.536	0	24.600	0	234.8	4	96.1	4	-1E+10	1	-1E+10	1	-1E+10	1	-1E+10	1	-1E+10	1	-1E+10	1
4901784	160	C	11/21/2019	10:42	-132.759	43.651	0	26.60	0	15.8420	0	34.6760	8	25.536	0	26.386	0	234.7	4	96.1	4	-1E+10	1	-1E+10	1	-1E+10	1	-1E+10	1	-1E+10	1	-1E+10	1
4901784	160	C	11/21/2019	10:42	-132.759	43.651	0	28.40	0	15.8420	0	34.6770	8	25.537	0	28.171	0	234.7	4	96.1	4	-1E+10	1	-1E+10	1	-1E+10	1	-1E+10	1	-1E+10	1	-1E+10	1
4901784	160	C	11/21/2019	10:42	-132.759	43.651	0	30.30	0	15.8420	0	34.6770	8	25.537	0	30.056	0	234.5	4	96.0	4	-1E+10	1	-1E+10	1	-1E+10	1	-1E+10	1	-1E+10	1	-1E+10	1
4901784	160	C	11/21/2019	10:42	-132.759	43.651	0	32.10	0	15.8430	0	34.6770	8	25.537	0	31.841	0	234.5	4	96.0	4	-1E+10	1	-1E+10	1	-1E+10	1	-1E+10	1	-1E+10	1	-1E+10	1
4901784	160	C	11/21/2019	10:42	-132.759	43.651	0	33.90	0	15.8420	0	34.6770	8	25.537	0	33.626	0	234.4	4	95.9	4	-1E+10	1	-1E+10	1	-1E+10	1	-1E+10	1	-1E+10	1	-1E+10	1
4901784	160	C	11/21/2019	10:42	-132.759	43.651	0	35.60	0	15.8430	0	34.6780	8	25.538	0	35.312	0	234.3	4	95.9	4	-1E+10	1	-1E+10	1	-1E+10	1	-1E+10	1	-1E+10	1	-1E+10	1
4901784	160	C	11/21/2019	10:42	-132.759	43.651	0	37.40	0	15.8430	0	34.6780	8	25.538	0	37.098	0	234.1	4	95.8	4	-1E+10	1	-1E+10	1	-1E+10	1	-1E+10	1	-1E+10	1	-1E+10	1
4901784	160	C	11/21/2019	10:42	-132.759	43.651	0	39.10	0	15.8430	0	34.6790	8	25.539	0	38.784	0	234.0	4	95.8	4	-1E+10	1	-1E+10	1	-1E+10	1	-1E+10	1	-1E+10	1	-1E+10	1
4901784	160	C	11/21/2019	10:42	-132.759	43.651	0	40.90	0	15.8440	0	34.6790	8	25.538	0	40.569	0	233.9	4	95.7	4	-1E+10	1	-1E+10	1	-1E+10	1	-1E+10	1	-1E+10	1	-1E+10	1
4901784	160	C	11/21/2019	10:42	-132.759	43.651	0	42.70	0	15.8440	0	34.6790	8	25.539	0	42.354	0	233.8	4	95.7	4	-1E+10	1	-1E+10	1	-1E+10	1	-1E+10	1	-1E+10	1	-1E+10	1
4901784	160	C	11/21/2019	10:42	-132.759	43.651	0	44.50	0	15.8450	0	34.6800	8	25.539	0	44.140	0	233.6	4	95.6	4	-1E+10	1	-1E+10	1	-1E+10	1	-1E+10	1	-1E+10	1	-1E+10	1
4901784	160	C	11/21/2019	10:42	-132.759	43.651	0	46.20	0	15.8450	0	34.6790	8	25.538	0	45.826	0	233.6	4	95.6	4	-1E+10	1	-1E+10	1	-1E+10	1	-1E+10	1	-1E+10	1	-1E+10	1
4901784	160	C	11/21/2019	10:42	-132.759	43.651	0	48.00	0	15.8460	0	34.6790	8	25.538	0	47.611	0	233.3	4	95.5	4	-1E+10	1	-1E+10	1	-1E+10	1	-1E+10	1	-1E+10	1	-1E+10	1
4901784	160	C	11/21/2019	10:42	-132.759	43.651	0	49.70	0	15.8450	0	34.6780	8	25.538	0	49.297	0	233.3	4	95.5	4	-1E+10	1	-1E+10	1	-1E+10	1	-1E+10	1	-1E+10	1	-1E+10	1
4901784	160	C	11/21/2019	10:42	-132.759	43.651	0	51.50	0	15.8460	0	34.6770	8	25.537	0	51.082	0	233.4	4	95.6	4	-1E+10	1	-1E+10	1	-1E+10	1	-1E+10	1	-1E+10	1	-1E+10	1
4901784	160	C	11/21/2019	10:42	-132.759	43.651	0	53.10	0	15.8460	0	34.6750	8	25.535	0	52.669	0	233.5	4	95.6	4	-1E+10	1	-1E+10	1	-1E+10	1	-1E+10	1	-1E+10	1	-1E+10	1
4901784	160	C	11/21/2019	10:42	-132.759	43.651	0	54.90	0	15.8460	0	34.6720	8	25.533	0	54.454	0	233.9	4	95.7	4	-1E+10	1	-1E+10	1	-1E+10	1	-1E+10	1	-1E+10	1	-1E+10	1
4901784	160	C	11/21/2019	10:42	-132.759	43.651	0	56.40	0	15.8460	0	34.6670	8	25.529	0	55.941	0	234.5	4	96.0	4	-1E+10	1	-1E+10	1	-1E+10	1	-1E+10	1	-1E+10	1	-1E+10	1
4901784	160	C	11/21/2019	10:42	-132.759	43.651	0	58.10	0	15.8460	0	34.6600	8	25.524	0	57.627	0	235.2	4	96.3	4	-1E+10	1	-1E+10	1	-1E+10	1	-1E+10	1	-1E+10	1	-1E+10	1
4901784	160	C	11/21/2019	10:42	-132.759	43.651	0	59.70	0	15.8450	0	34.6490	8	25.516	0	59.214	0	236.3	4	96.7	4	-1E+10	1	-1E+10	1	-1E+10	1	-1E+10	1	-1E+10	1	-1E+10	1
4901784	160	C	11/21/2019	10:42	-132.759	43.651	0	61.20	0	15.8430	0	34.6570	8	25.523	0	60.702	0	238.3	4	97.5	4	-1E+10	1	-1E+10	1	-1E+10	1	-1E+10	1	-1E+10	1	-1E+10	1
4901784	160	C	11/21/2019	10:42	-132.759	43.651	0	62.60	0	15.8420	0	34.6200	8	25.494	0	62.090	0	241.2	4	98.7	4	-1E+10	1	-1E+10	1	-1E+10	1	-1E+10	1	-1E+10	1	-1E+10	1
4901784	160	C	11/21/2019	10:42	-132.759	43.651	0	64.10	0	15.1700	0	34.6040	8	25.632	0	63.578	0	246.4	4	99.5	4	-1E+10	1	-1E+10	1	-1E+10	1	-1E+10	1	-1E+10	1	-1E+10	1
4901784	160	C	11/21/2019	10:42	-132.759	43.651	0	65.80	0	13.7190	0	34.6490	8	25.977	0	65.264	0	256.5	4	100.7	4	-1E+10	1	-1E+10	1	-1E+10	1	-1E+10	1	-1E+10	1	-1E+10	1
4901784	160	C	11/21/2019	10:42	-132.759	43.651	0	67.40	0	13.3860	0	34.6500	8	26.046	0	66.850	0	259.1	4	101.0	4	-1E+10	1	-1E+10	1	-1E+10	1	-1E+10	1	-1E+10	1	-1E+10	1
4901784	160	C	11/21/2019	10:42	-132.759	43.651	0	69.10	0	13.0260	0	34.6320	8	26.105	0	68.536	0	261.6	4	101.2	4	-1E+10	1	-1E+10	1	-1E+10	1	-1E+10	1	-1E+10	1	-1E+10	1
4901784	160	C	11/21/2019	10:42	-132.759	43.651	0	70.80	0	12.5940	0	34.6650	8	26.216	0	70.222	0	262.2	4	100.6	4	-1E+10	1	-1E+10	1	-1E+10	1	-1E+10	1	-1E+10	1	-1E+10	1
4901784	160	C	11/21/2019	10:42	-132.759	43.651	0	72.70	0	12.0400	0	34.6050	8	26.277	0	72.106	0	266.4	4	101.0	4	-1E+10	1	-1E+10	1	-1E+10	1	-1E+10	1	-1E+10	1	-1E+10	1
4901784	160	C	11/21/2019	10:42	-132.759	43.651	0	75.10	0	11.8580	0	34.5860	8	26.297	0	74.486	0	266.0	4	100.4	4	-1E+10	1	-1E+10	1	-1E+10	1	-1E+10	1	-1E+10	1	-1E+10	1
4901784	160	C	11/21/2019	10:42	-132.759	43.651	0	77.00	0	11.5510	0	34.5780	8	26.348	0	76.370	0	265.3	4	99.5	4	-1E+10	1	-1E+10	1	-1E+10	1	-1E+10	1	-1E+10	1	-1E+10	1
4901784	160	C	11/21/2019	10:42	-132.759	43.651	0	78.60	0	11.4380	0	34.5880	8	26.377	0	77.957	0	264.4	4	99.0	4	-1E+10	1	-1E+10	1	-1E+10	1	-1E+10	1	-1E+10	1	-1E+10	1
4901784	160	C	11/21/2019	10:42	-132.759	43.651	0	80.20	0	11.3940	0	34.5860	8	26.384	0	79.543	0	262.7	4	98.3	4	-1E+10	1	-1E+10	1	-1E+10	1	-1E+10	1	-1E+10	1	-1E+10	1
4901784	160	C	11/21/2019	10:42	-132.759	43.651	0	81.80	0	11.3000	0	34.5930	8	26.406	0	81.130	0	261.3	4	97.5	4	-1E+10	1	-1E+10	1	-1E+10	1	-1E+10	1	-1E+10	1	-1E+10	1
4901784	160	C	11/21/2019	10:42	-132.759	43.651	0	83.30	0	11.1750	0	34.6020	8	26.436	0	82.617	0	259.4	4	96.6	4	-1E+10	1	-1E+10	1	-1E+10	1	-1E+10	1	-1E+10	1	-1E+10	1
4901784	160	C	11/21/2019	10:42	-132.759	43.651	0	84.90	0	10.9970	0	34.6000	8	26.467	0	84.204	0	258.8	4	96.0	4	-1E+10	1	-1E+10	1	-1E+10	1	-1E+10	1	-1E+10	1	-1E+10	1
4901784	160	C	11/21/2019	10:42	-132.759	43.651	0	86.40	0	10.9190	0	34.5960	8	26.478	0	85.691	0	257.8	4	95.5	4	-1E+10	1	-1E+10	1	-1E+10	1	-1E+10	1	-1E+10	1	-1E+10	1
4901784	160	C	11/21/2019	10:42	-132.759	43.651	0	88.10	0	10.8150	0	34.5910	8	26.493	0	87.377	0	256.7	4	94.8	4	-1E+10	1	-1E+10	1	-1E+10	1	-1E+10	1	-1E+10	1	-1E+10	1
4901784	160	C	11/21/2019	10:42	-132.759	43.651	0	89.70	0	10.6750	0	34.5790	8	26.508	0	88.964	0	254.8	4	93.9	4	-1E+10	1	-1E+10	1	-1E+10	1	-1E+10	1	-1E+10	1	-1E+10	1
4901784	160	C	11/21/2019	10:42	-132.759	43.651	0	91.30	0	10.4880	0	34.5930	8	26.552	0	90.550	0	253.7	4	93.1	4	-1E+10	1	-1E+10	1	-1E+10	1	-1E+10	1	-1E+10	1	-1E+10	1
4901784	160	C	11/21/2019	10:42	-132.759	43.651	0	93.00	0	10.5470	0	34.6180	8	26.561	0	92.236	0	251.7	4	92.5	4	-1E+10	1	-1E+10	1	-1E+10	1	-1E+10	1	-1E+10	1	-1E+10	1
4901784	160	C	11/21/2019	10:42	-132.759	43.651	0	94.70	0	10.4160	0	34.6130	8	26.580	0	93.921	0	251.2	4	92.1	4	-1E+10	1	-1E+10	1	-1E+10	1	-1E+10	1	-1E+10	1	-1E+10	1
4901784	160	C	11/21/2019	10:42	-132.759	43.651	0	96.40	0	10.2410	0	34.5980	8	26.599	0	95.607	0	251.6	4	91.8	4	-1E+10	1	-1E+10	1	-1E+10	1	-1E+10	1	-1E+10	1	-1E+10	1
4901784	160	C	11/21/2019	10:42	-132.759	43.651	0	98.20	0	10.1850	0	34.5960	8	26.607	0	97.392	0	250.3	4	91.2	4	-1E+10	1	-1E+10	1	-1E+10	1	-1E+10	1	-1E+10	1	-1E+10	1
4901784	160	C	11/21/2019	10:42	-132.759	43.651	0	99.90	0	10.1970	0	34.6070	8	26.614	0	99.077	0	248.9	4	90.8	4	-1E+10	1	-1E+10	1	-1E+10	1	-1E+10	1	-1E+10	1	-1E+10	1
4901784	160	C	11/21/2019	10:42	-132.759	43.651	0	102.60	0	10.1260	0	34.6070	8	26.626	0	101.755	0	247.4	4	90.1	4	-1E+10	1	-1E+10	1	-1E+10	1	-1E+10	1	-1E+10	1	-1E+10	1
4901784	160	C	11/21/2019	10:42	-132.759	43.651	0	105.30	0	10.0700	0	34.6080	8	26.636	0	104.432	0	245.5	4	89.3	4	-1E+10	1	-1E+10	1	-1E+10	1	-1E+10	1	-1E+10	1	-1E+10	1
4901784	160	C	11/21/2019	10:42	-132.759	43.651	0	107.00	0	9.9140	0	34.6070	8	26.662	0	106.117	0	245.1	4	88.8	4	-1E+10	1	-1E+10	1	-1E+10	1	-1E+10	1	-1E+10	1	-1E+10	1
4901784	160	C	11/21/2019	10:42	-132.759	43.651	0	109.70	0	9.6740	0	34.6030	8	26.699	0	108.794	0	244.3	4	88.1	4	-1E+10	1	-1E+10	1	-1E+10	1	-1E+10	1	-1E+10	1	-1E+10	1
4901784	160	C	11/21/2019	10:42	-132.759	43.651	0	112.30	0	9.5530	0	34.6090	8	26.724	0	111.372	0	243.0	4	87.4	4	-1E+10	1	-1E+10	1	-1E+10	1	-1E+10	1	-1E+10	1	-1E+10	1
4901784	160	C	11/21/2019	10:42	-132.759	43.651	0	115.10	0	9.4380	0	34.6410	8	26.768	0	114.148	0	240.8	4	86.4	4	-1E+10	1	-1E+10	1	-1E+10	1	-1E+10	1	-1E+10	1	-1E+10	1
4901784	160	C	11/21/2019	10:42	-132.759	43.651	0	117.40	0	9.3940	0	34.6730	8	26.801	0	116.428	0	239.0	4	85.7	4	-1E+10	1	-1E+10	1	-1E+10	1	-1E+10	1	-1E+10	1	-1E+10	1
4901784	160	C	11/21/2019	10:42	-132.759	43.651	0	120.40	0	9.3400	0	34.6790	8	26.814	0	119.403	0	236.6	4	84.7	4	-1E+10	1	-1E+10	1	-1E+10	1	-1E+10	1	-1E+10	1	-1E+10	1
4901784	160	C	11/21/2019	10:42	-132.759	43.651	0	122.50	0	9.2760	0	34.7200	8	26.857	0	121.485	0	234.6	4	83.9	4	-1E+10	1	-1E+10	1	-1E+10	1	-1E+10	1	-1E+10	1	-1E+10	1
4901784	160	C	11/21/2019	10:42	-132.759	43.651	0	124.80	0	9.0350	0	34.7170	8	26.893	0	123.765	0	233.3	4	83.0	4	-1E+10	1	-1E+10	1	-1E+10	1	-1E+10	1	-1E+10	1	-1E+10	1
4901784	160	C	11/21/2019	10:42	-132.759	43.651	0	127.20	0	8.6390	0	34.7760	8	27.002	0	126.144	0	232.2	4	82.0	4	-1E+10	1	-1E+10	1	-1E+10	1	-1E+10	1	-1E+10	1	-1E+10	1
4901784	160	C	11/21/2019	10:42	-132.759	43.651	0	129.70	0	8.5790	0	34.8140	8	27.042	0	128.623	0	230.8	4	81.4	4	-1E+10	1	-1E+10	1	-1E+10	1	-1E+10	1	-1E+10	1	-1E+10	1
4901784	160	C	11/21/2019	10:42	-132.759	43.651	0	132.30	0	8.5210	0	34.8410	8	27.072	0	131.200	0	229.0	4	80.6	4	-1E+10	1	-1E+10	1	-1E+10	1	-1E+10	1	-1E+10	1	-1E+10	1
4901784	160	C	11/21/2019	10:42	-132.759	43.651	0	134.90	0	8.4250	0	34.8970	8	27.131	0	133.778	0	227.5	4	80.0	4	-1E+10	1	-1E+10	1	-1E+10	1	-1E+10	1	-1E+10	1	-1E+10	1
4901784	160	C	11/21/2019	10:42	-132.759	43.651	0	137.00	0	8.3800	0	34.9200	8	27.156	0	135.860	0	226.1	4	79.4	4	-1E+10	1	-1E+10	1	-1E+10	1	-1E+10	1	-1E+10	1	-1E+10	1
4901784	160	C	11/21/2019	10:42	-132.759	43.651	0	139.80	0	8.3500	0	34.9940	8	27.218	0	138.635	0	223.9	4	78.7	4	-1E+10	1	-1E+10	1	-1E+10	1	-1E+10	1	-1E+10	1	-1E+10	1
4901784	160	C	11/21/2019	10:42	-132.759	43.651	0	142.70	0	8.2600	0	35.0250	8	27.257	0	141.510	0	222.2	4	77.9	4	-1E+10	1	-1E+10	1	-1E+10	1	-1E+10	1	-1E+10	1	-1E+10	1
4901784	160	C	11/21/2019	10:42	-132.759	43.651	0	144.90	0	8.2590	0	35.0800	8	27.300	0	143.691	0	220.5	4	77.3	4	-1E+10	1	-1E+10	1	-1E+10	1	-1E+10	1	-1E+10	1	-1E+10	1
4901784	160	C	11/21/2019	10:42	-132.759	43.651	0	147.10	0	8.2140	0	35.1290	8	27.345	0	145.872	0	218.9	4	76.7	4	-1E+10	1	-1E+10	1	-1E+10	1	-1E+10	1	-1E+10	1	-1E+10	1
4901784	160	C	11/21/2019	10:42	-132.759	43.651	0	150.20	0	8.1470	0	35.1660	8	27.385	0	148.945	0	217.2	4	76.0	4	-1E+10	1	-1E+10	1	-1E+10	1	-1E+10	1	-1E+10	1	-1E+10	1
4901784	160	C	11/21/2019	10:42	-132.759	43.651	0	152.50	0	8.1060	0	35.2030	8	27.420	0	151.225	0	215.5	4	75.4	4	-1E+10	1	-1E+10	1	-1E+10	1	-1E+10	1	-1E+10	1	-1E+10	1
4901784	160	C	11/21/2019	10:42	-132.759	43.651	0	154.90	0	8.1080	0	35.2520	8	27.458	0	153.604	0	213.2	4	74.6	4	-1E+10	1	-1E+10	1	-1E+10	1	-1E+10	1	-1E+10	1	-1E+10	1
4901784	160	C	11/21/2019	10:42	-132.759	43.651	0	157.50	0	8.0530	0	35.3000	8	27.504	0	156.181	0	211.1	4	73.8	4	-1E+10	1	-1E+10	1	-1E+10	1	-1E+10	1	-1E+10	1	-1E+10	1
4901784	160	C	11/21/2019	10:42	-132.759	43.651	0	159.90	0	8.0210	0	35.3230	8	27.527	0	158.560	0	209.2	4	73.1	4	-1E+10	1	-1E+10	1	-1E+10	1	-1E+10	1	-1E+10	1	-1E+10	1
4901784	160	C	11/21/2019	10:42	-132.759	43.651	0	162.40	0	8.0220	0	35.3550	8	27.552	0	161.038	0	207.0	4	72.4	4	-1E+10	1	-1E+10	1	-1E+10	1	-1E+10	1	-1E+10	1	-1E+10	1
4901784	160	C	11/21/2019	10:42	-132.759	43.651	0	164.90	0	8.0200	0	35.4140	8	27.599	0	163.516	0	203.9	4	71.3	4	-1E+10	1	-1E+10	1	-1E+10	1	-1E+10	1	-1E+10	1	-1E+10	1
4901784	160	C	11/21/2019	10:42	-132.759	43.651	0	167.30	0	8.0040	0	35.4700	8	27.645	0	165.895	0	201.9	4	70.6	4	-1E+10	1	-1E+10	1	-1E+10	1	-1E+10	1	-1E+10	1	-1E+10	1
4901784	160	C	11/21/2019	10:42	-132.759	43.651	0	169.80	0	8.0150	0	35.5000	8	27.667	0	168.373	0	200.5	4	70.2	4	-1E+10	1	-1E+10	1	-1E+10	1	-1E+10	1	-1E+10	1	-1E+10	1
4901784	160	C	11/21/2019	10:42	-132.759	43.651	0	172.30	0	8.0370	0	35.5420	8	27.697	0	170.851	0	199.1	4	69.7	4	-1E+10	1	-1E+10	1	-1E+10	1	-1E+10	1	-1E+10	1	-1E+10	1
4901784	160	C	11/21/2019	10:42	-132.759	43.651	0	175.00	0	8.0450	0	35.6000	8	27.741	0	173.528	0	196.8	4	69.0	4	-1E+10	1	-1E+10	1	-1E+10	1	-1E+10	1	-1E+10	1	-1E+10	1
4901784	160	C	11/21/2019	10:42	-132.759	43.651	0	177.60	0	8.0510	0	35.6610	8	27.789	0	176.105	0	194.2	4	68.1	4	-1E+10	1	-1E+10	1	-1E+10	1	-1E+10	1	-1E+10	1	-1E+10	1
4901784	160	C	11/21/2019	10:42	-132.759	43.651	0	180.20	0	8.0570	0	35.6990	8	27.818	0	178.682	0	191.4	4	67.1	4	-1E+10	1	-1E+10	1	-1E+10	1	-1E+10	1	-1E+10	1	-1E+10	1
4901784	160	C	11/21/2019	10:42	-132.759	43.651	0	182.90	0	8.0650	0	35.7450	8	27.853	0	181.358	0	186.4	4	65.4	4	-1E+10	1	-1E+10	1	-1E+10	1	-1E+10	1	-1E+10	1	-1E+10	1
4901784	160	C	11/21/2019	10:42	-132.759	43.651	0	184.70	0	8.1010	0	35.7820	8	27.876	0	183.142	0	183.4	4	64.4	4	-1E+10	1	-1E+10	1	-1E+10	1	-1E+10	1	-1E+10	1	-1E+10	1
4901784	160	C	11/21/2019	10:42	-132.759	43.651	0	187.50	0	8.0980	0	35.8390	8	27.921	0	185.917	0	181.2	4	63.7	4	-1E+10	1	-1E+10	1	-1E+10	1	-1E+10	1	-1E+10	1	-1E+10	1
4901784	160	C	11/21/2019	10:42	-132.759	43.651	0	190.20	0	8.0870	0	35.8690	8	27.947	0	188.593	0	177.6	4	62.4	4	-1E+10	1	-1E+10	1	-1E+10	1	-1E+10	1	-1E+10	1	-1E+10	1
4901784	160	C	11/21/2019	10:42	-132.759	43.651	0	191.90	0	8.0960	0	35.8890	8	27.961	0	190.278	0	173.6	4	61.0	4	-1E+10	1	-1E+10	1	-1E+10	1	-1E+10	1	-1E+10	1	-1E+10	1
4901784	160	C	11/21/2019	10:42	-132.759	43.651	0	194.90	0	8.1650	0	35.9460	8	27.995	0	193.251	0	167.0	4	58.8	4	-1E+10	1	-1E+10	1	-1E+10	1	-1E+10	1	-1E+10	1	-1E+10	1
4901784	160	C	11/21/2019	10:42	-132.759	43.651	0	197.30	0	8.1980	0	36.0020	8	28.034	0	195.629	0	162.9	4	57.4	4	-1E+10	1	-1E+10	1	-1E+10	1	-1E+10	1	-1E+10	1	-1E+10	1
4901784	160	C	11/21/2019	10:42	-132.759	43.651	0	200.40	0	8.1900	0	36.0460	8	28.070	0	198.702	0	159.7	4	56.3	4	-1E+10	1	-1E+10	1	-1E+10	1	-1E+10	1	-1E+10	1	-1E+10	1
4901784	160	C	11/21/2019	10:42	-132.759	43.651	0	202.70	0	8.1800	0	36.0660	8	28.087	0	200.981	0	157.6	4	55.6	4	-1E+10	1	-1E+10	1	-1E+10	1	-1E+10	1	-1E+10	1	-1E+10	1
4901784	160	C	11/21/2019	10:42	-132.759	43.651	0	205.10	0	8.1640	0	36.0860	8	28.106	0	203.359	0	156.0	4	55.0	4	-1E+10	1	-1E+10	1	-1E+10	1	-1E+10	1	-1E+10	1	-1E+10	1
4901784	160	C	11/21/2019	10:42	-132.759	43.651	0	207.40	0	8.1570	0	36.0940	8	28.113	0	205.639	0	155.2	4	54.7	4	-1E+10	1	-1E+10	1	-1E+10	1	-1E+10	1	-1E+10	1	-1E+10	1
4901784	160	C	11/21/2019	10:42	-132.759	43.651	0	209.90	0	8.1530	0	36.1000	8	28.118	0	208.116	0	155.0	4	54.6	4	-1E+10	1	-1E+10	1	-1E+10	1	-1E+10	1	-1E+10	1	-1E+10	1
4901784	160	C	11/21/2019	10:42	-132.759	43.651	0	212.30	0	8.1520	0	36.1010	8	28.119	0	210.495	0	154.8	4	54.6	4	-1E+10	1	-1E+10	1	-1E+10	1	-1E+10	1	-1E+10	1	-1E+10	1
4901784	160	C	11/21/2019	10:42	-132.759	43.651	0	214.80	0	8.1470	0	36.1050	8	28.123	0	212.972	0	153.7	4	54.2	4	-1E+10	1	-1E+10	1	-1E+10	1	-1E+10	1	-1E+10	1	-1E+10	1
4901784	160	C	11/21/2019	10:42	-132.759	43.651	0	217.30	0	8.1430	0	36.1060	8	28.125	0	215.450	0	152.3	4	53.7	4	-1E+10	1	-1E+10	1	-1E+10	1	-1E+10	1	-1E+10	1	-1E+10	1
4901784	160	C	11/21/2019	10:42	-132.759	43.651	0	219.70	0	8.1250	0	36.1130	8	28.133	0	217.828	0	150.3	4	53.0	4	-1E+10	1	-1E+10	1	-1E+10	1	-1E+10	1	-1E+10	1	-1E+10	1
4901784	160	C	11/21/2019	10:42	-132.759	43.651	0	222.20	0	8.0900	0	36.1230	8	28.146	0	220.305	0	148.9	4	52.4	4	-1E+10	1	-1E+10	1	-1E+10	1	-1E+10	1	-1E+10	1	-1E+10	1
4901784	160	C	11/21/2019	10:42	-132.759	43.651	0	224.70	0	8.0630	0	36.1280	8	28.154	0	222.783	0	148.0	4	52.1	4	-1E+10	1	-1E+10	1	-1E+10	1	-1E+10	1	-1E+10	1	-1E+10	1
4901784	160	C	11/21/2019	10:42	-132.759	43.651	0	227.30	0	8.0240	0	36.1370	8	28.168	0	225.359	0	147.2	4	51.8	4	-1E+10	1	-1E+10	1	-1E+10	1	-1E+10	1	-1E+10	1	-1E+10	1
4901784	160	C	11/21/2019	10:42	-132.759	43.651	0	229.80	0	7.9860	0	36.1440	8	28.179	0	227.836	0	146.6	4	51.5	4	-1E+10	1	-1E+10	1	-1E+10	1	-1E+10	1	-1E+10	1	-1E+10	1
4901784	160	C	11/21/2019	10:42	-132.759	43.651	0	232.40	0	7.9710	0	36.1460	8	28.183	0	230.413	0	146.3	4	51.4	4	-1E+10	1	-1E+10	1	-1E+10	1	-1E+10	1	-1E+10	1	-1E+10	1
4901784	160	C	11/21/2019	10:42	-132.759	43.651	0	235.10	0	7.9690	0	36.1450	8	28.182	0	233.088	0	146.1	4	51.3	4	-1E+10	1	-1E+10	1	-1E+10	1	-1E+10	1	-1E+10	1	-1E+10	1
4901784	160	C	11/21/2019	10:42	-132.759	43.651	0	237.80	0	7.9560	0	36.1470	8	28.186	0	235.763	0	145.5	4	51.1	4	-1E+10	1	-1E+10	1	-1E+10	1	-1E+10	1	-1E+10	1	-1E+10	1
4901784	160	C	11/21/2019	10:42	-132.759	43.651	0	239.60	0	7.9130	0	36.1500	8	28.195	0	237.547	0	145.6	4	51.1	4	-1E+10	1	-1E+10	1	-1E+10	1	-1E+10	1	-1E+10	1	-1E+10	1
4901784	160	C	11/21/2019	10:42	-132.759	43.651	0	242.30	0	7.8880	0	36.1510	8	28.199	0	240.222	0	146.0	4	51.2	4	-1E+10	1	-1E+10	1	-1E+10	1	-1E+10	1	-1E+10	1	-1E+10	1
4901784	160	C	11/21/2019	10:42	-132.759	43.651	0	244.90	0	7.8610	0	36.1530	8	28.205	0	242.798	0	146.2	4	51.2	4	-1E+10	1	-1E+10	1	-1E+10	1	-1E+10	1	-1E+10	1	-1E+10	1
4901784	160	C	11/21/2019	10:42	-132.759	43.651	0	247.70	0	7.8220	0	36.1540	8	28.212	0	245.573	0	146.3	4	51.2	4	-1E+10	1	-1E+10	1	-1E+10	1	-1E+10	1	-1E+10	1	-1E+10	1
4901784	160	C	11/21/2019	10:42	-132.759	43.651	0	250.40	0	7.7590	0	36.1580	8	28.225	0	248.248	0	146.0	4	51.1	4	-1E+10	1	-1E+10	1	-1E+10	1	-1E+10	1	-1E+10	1	-1E+10	1
4901784	160	C	11/21/2019	10:42	-132.759	43.651	0	252.30	0	7.7450	0	36.1590	8	28.227	0	250.130	0	145.8	4	51.0	4	-1E+10	1	-1E+10	1	-1E+10	1	-1E+10	1	-1E+10	1	-1E+10	1
4901784	160	C	11/21/2019	10:42	-132.759	43.651	0	254.90	0	7.7370	0	36.1580	8	28.228	0	252.706	0	145.2	4	50.7	4	-1E+10	1	-1E+10	1	-1E+10	1	-1E+10	1	-1E+10	1	-1E+10	1
4901784	160	C	11/21/2019	10:42	-132.759	43.651	0	257.70	0	7.7160	0	36.1570	8	28.230	0	255.481	0	144.5	4	50.5	4	-1E+10	1	-1E+10	1	-1E+10	1	-1E+10	1	-1E+10	1	-1E+10	1
4901784	160	C	11/21/2019	10:42	-132.759	43.651	0	259.50	0	7.6820	0	36.1570	8	28.235	0	257.264	0	143.7	4	50.2	4	-1E+10	1	-1E+10	1	-1E+10	1	-1E+10	1	-1E+10	1	-1E+10	1
4901784	160	C	11/21/2019	10:42	-132.759	43.651	0	262.30	0	7.6200	0	36.1590	8	28.246	0	260.038	0	142.9	4	49.8	4	-1E+10	1	-1E+10	1	-1E+10	1	-1E+10	1	-1E+10	1	-1E+10	1
4901784	160	C	11/21/2019	10:42	-132.759	43.651	0	265.10	0	7.5820	0	36.1610	8	28.253	0	262.812	0	141.9	4	49.4	4	-1E+10	1	-1E+10	1	-1E+10	1	-1E+10	1	-1E+10	1	-1E+10	1
4901784	160	C	11/21/2019	10:42	-132.759	43.651	0	267.80	0	7.5570	0	36.1590	8	28.256	0	265.487	0	140.7	4	49.0	4	-1E+10	1	-1E+10	1	-1E+10	1	-1E+10	1	-1E+10	1	-1E+10	1
4901784	160	C	11/21/2019	10:42	-132.759	43.651	0	270.50	0	7.5010	0	36.1610	8	28.266	0	268.162	0	139.4	4	48.5	4	-1E+10	1	-1E+10	1	-1E+10	1	-1E+10	1	-1E+10	1	-1E+10	1
4901784	160	C	11/21/2019	10:42	-132.759	43.651	0	272.40	0	7.4670	0	36.1610	8	28.271	0	270.044	0	138.5	4	48.1	4	-1E+10	1	-1E+10	1	-1E+10	1	-1E+10	1	-1E+10	1	-1E+10	1
4901784	160	C	11/21/2019	10:42	-132.759	43.651	0	275.20	0	7.4450	0	36.1620	8	28.275	0	272.818	0	137.5	4	47.8	4	-1E+10	1	-1E+10	1	-1E+10	1	-1E+10	1	-1E+10	1	-1E+10	1
4901784	160	C	11/21/2019	10:42	-132.759	43.651	0	278.10	0	7.4310	0	36.1610	8	28.276	0	275.691	0	136.4	4	47.3	4	-1E+10	1	-1E+10	1	-1E+10	1	-1E+10	1	-1E+10	1	-1E+10	1
4901784	160	C	11/21/2019	10:42	-132.759	43.651	0	280.00	0	7.4210	0	36.1580	8	28.275	0	277.574	0	135.4	4	47.0	4	-1E+10	1	-1E+10	1	-1E+10	1	-1E+10	1	-1E+10	1	-1E+10	1
4901784	160	C	11/21/2019	10:42	-132.759	43.651	0	281.80	0	7.3800	0	36.1630	8	28.285	0	279.357	0	134.1	4	46.5	4	-1E+10	1	-1E+10	1	-1E+10	1	-1E+10	1	-1E+10	1	-1E+10	1
4901784	160	C	11/21/2019	10:42	-132.759	43.651	0	284.80	0	7.3120	0	36.1620	8	28.294	0	282.329	0	133.1	4	46.1	4	-1E+10	1	-1E+10	1	-1E+10	1	-1E+10	1	-1E+10	1	-1E+10	1
4901784	160	C	11/21/2019	10:42	-132.759	43.651	0	287.80	0	7.2900	0	36.1620	8	28.297	0	285.301	0	132.1	4	45.7	4	-1E+10	1	-1E+10	1	-1E+10	1	-1E+10	1	-1E+10	1	-1E+10	1
4901784	160	C	11/21/2019	10:42	-132.759	43.651	0	289.70	0	7.2760	0	36.1610	8	28.299	0	287.183	0	131.4	4	45.5	4	-1E+10	1	-1E+10	1	-1E+10	1	-1E+10	1	-1E+10	1	-1E+10	1
4901784	160	C	11/21/2019	10:42	-132.759	43.651	0	292.60	0	7.2560	0	36.1590	8	28.300	0	290.056	0	130.2	4	45.0	4	-1E+10	1	-1E+10	1	-1E+10	1	-1E+10	1	-1E+10	1	-1E+10	1
4901784	160	C	11/21/2019	10:42	-132.759	43.651	0	295.50	0	7.2260	0	36.1560	8	28.302	0	292.928	0	128.6	4	44.4	4	-1E+10	1	-1E+10	1	-1E+10	1	-1E+10	1	-1E+10	1	-1E+10	1
4901784	160	C	11/21/2019	10:42	-132.759	43.651	0	297.40	0	7.1200	0	36.1630	8	28.323	0	294.810	0	127.7	4	44.0	4	-1E+10	1	-1E+10	1	-1E+10	1	-1E+10	1	-1E+10	1	-1E+10	1
4901784	160	C	11/21/2019	10:42	-132.759	43.651	0	300.20	0	7.0870	0	36.1640	8	28.328	0	297.584	0	127.1	4	43.8	4	-1E+10	1	-1E+10	1	-1E+10	1	-1E+10	1	-1E+10	1	-1E+10	1
4901784	160	C	11/21/2019	10:42	-132.759	43.651	0	303.00	0	7.0740	0	36.1640	8	28.330	0	300.358	0	126.5	4	43.5	4	-1E+10	1	-1E+10	1	-1E+10	1	-1E+10	1	-1E+10	1	-1E+10	1
4901784	160	C	11/21/2019	10:42	-132.759	43.651	0	304.90	0	7.0680	0	36.1640	8	28.331	0	302.240	0	125.9	4	43.4	4	-1E+10	1	-1E+10	1	-1E+10	1	-1E+10	1	-1E+10	1	-1E+10	1
4901784	160	C	11/21/2019	10:42	-132.759	43.651	0	307.60	0	7.0520	0	36.1640	8	28.333	0	304.914	0	125.1	4	43.0	4	-1E+10	1	-1E+10	1	-1E+10	1	-1E+10	1	-1E+10	1	-1E+10	1
4901784	160	C	11/21/2019	10:42	-132.759	43.651	0	310.50	0	7.0370	0	36.1630	8	28.335	0	307.787	0	124.1	4	42.7	4	-1E+10	1	-1E+10	1	-1E+10	1	-1E+10	1	-1E+10	1	-1E+10	1
4901784	160	C	11/21/2019	10:42	-132.759	43.651	0	312.40	0	7.0250	0	36.1620	8	28.336	0	309.669	0	123.3	4	42.4	4	-1E+10	1	-1E+10	1	-1E+10	1	-1E+10	1	-1E+10	1	-1E+10	1
4901784	160	C	11/21/2019	10:42	-132.759	43.651	0	315.20	0	6.9800	0	36.1630	8	28.343	0	312.442	0	121.9	4	41.9	4	-1E+10	1	-1E+10	1	-1E+10	1	-1E+10	1	-1E+10	1	-1E+10	1
4901784	160	C	11/21/2019	10:42	-132.759	43.651	0	318.00	0	6.9320	0	36.1630	8	28.350	0	315.215	0	120.6	4	41.4	4	-1E+10	1	-1E+10	1	-1E+10	1	-1E+10	1	-1E+10	1	-1E+10	1
4901784	160	C	11/21/2019	10:42	-132.759	43.651	0	320.00	0	6.9080	0	36.1650	8	28.355	0	317.196	0	119.7	4	41.1	4	-1E+10	1	-1E+10	1	-1E+10	1	-1E+10	1	-1E+10	1	-1E+10	1
4901784	160	C	11/21/2019	10:42	-132.759	43.651	0	322.70	0	6.8800	0	36.1640	8	28.358	0	319.871	0	118.0	4	40.5	4	-1E+10	1	-1E+10	1	-1E+10	1	-1E+10	1	-1E+10	1	-1E+10	1
4901784	160	C	11/21/2019	10:42	-132.759	43.651	0	325.50	0	6.8260	0	36.1670	8	28.368	0	322.644	0	116.6	4	39.9	4	-1E+10	1	-1E+10	1	-1E+10	1	-1E+10	1	-1E+10	1	-1E+10	1
4901784	160	C	11/21/2019	10:42	-132.759	43.651	0	327.40	0	6.8100	0	36.1650	8	28.368	0	324.526	0	115.7	4	39.6	4	-1E+10	1	-1E+10	1	-1E+10	1	-1E+10	1	-1E+10	1	-1E+10	1
4901784	160	C	11/21/2019	10:42	-132.759	43.651	0	330.20	0	6.7900	0	36.1640	8	28.371	0	327.299	0	113.9	4	39.0	4	-1E+10	1	-1E+10	1	-1E+10	1	-1E+10	1	-1E+10	1	-1E+10	1
4901784	160	C	11/21/2019	10:42	-132.759	43.651	0	333.10	0	6.7300	0	36.1660	8	28.380	0	330.171	0	112.5	4	38.4	4	-1E+10	1	-1E+10	1	-1E+10	1	-1E+10	1	-1E+10	1	-1E+10	1
4901784	160	C	11/21/2019	10:42	-132.759	43.651	0	335.00	0	6.6920	0	36.1670	8	28.387	0	332.053	0	111.6	4	38.1	4	-1E+10	1	-1E+10	1	-1E+10	1	-1E+10	1	-1E+10	1	-1E+10	1
4901784	160	C	11/21/2019	10:42	-132.759	43.651	0	337.80	0	6.6750	0	36.1650	8	28.387	0	334.826	0	110.5	4	37.7	4	-1E+10	1	-1E+10	1	-1E+10	1	-1E+10	1	-1E+10	1	-1E+10	1
4901784	160	C	11/21/2019	10:42	-132.759	43.651	0	340.60	0	6.6260	0	36.1670	8	28.396	0	337.599	0	109.4	4	37.3	4	-1E+10	1	-1E+10	1	-1E+10	1	-1E+10	1	-1E+10	1	-1E+10	1
4901784	160	C	11/21/2019	10:42	-132.759	43.651	0	342.50	0	6.5850	0	36.1690	8	28.403	0	339.481	0	109.1	4	37.1	4	-1E+10	1	-1E+10	1	-1E+10	1	-1E+10	1	-1E+10	1	-1E+10	1
4901784	160	C	11/21/2019	10:42	-132.759	43.651	0	345.20	0	6.5700	0	36.1680	8	28.404	0	342.155	0	108.6	4	37.0	4	-1E+10	1	-1E+10	1	-1E+10	1	-1E+10	1	-1E+10	1	-1E+10	1
4901784	160	C	11/21/2019	10:42	-132.759	43.651	0	348.00	0	6.5450	0	36.1660	8	28.406	0	344.928	0	108.0	4	36.7	4	-1E+10	1	-1E+10	1	-1E+10	1	-1E+10	1	-1E+10	1	-1E+10	1
4901784	160	C	11/21/2019	10:42	-132.759	43.651	0	349.90	0	6.5340	0	36.1630	8	28.405	0	346.809	0	107.3	4	36.5	4	-1E+10	1	-1E+10	1	-1E+10	1	-1E+10	1	-1E+10	1	-1E+10	1
4901784	160	C	11/21/2019	10:42	-132.759	43.651	0	352.70	0	6.4560	0	36.1670	8	28.419	0	349.582	0	106.2	4	36.0	4	-1E+10	1	-1E+10	1	-1E+10	1	-1E+10	1	-1E+10	1	-1E+10	1
4901784	160	C	11/21/2019	10:42	-132.759	43.651	0	355.50	0	6.4130	0	36.1680	8	28.426	0	352.355	0	104.9	4	35.6	4	-1E+10	1	-1E+10	1	-1E+10	1	-1E+10	1	-1E+10	1	-1E+10	1
4901784	160	C	11/21/2019	10:42	-132.759	43.651	0	357.40	0	6.4070	0	36.1660	8	28.425	0	354.237	0	103.8	4	35.2	4	-1E+10	1	-1E+10	1	-1E+10	1	-1E+10	1	-1E+10	1	-1E+10	1
4901784	160	C	11/21/2019	10:42	-132.759	43.651	0	359.80	0	6.3580	0	36.1680	8	28.433	0	356.613	0	101.7	4	34.5	4	-1E+10	1	-1E+10	1	-1E+10	1	-1E+10	1	-1E+10	1	-1E+10	1
4901784	160	C	11/21/2019	10:42	-132.759	43.651	0	362.50	0	6.3040	0	36.1730	8	28.444	0	359.287	0	99.3	4	33.6	4	-1E+10	1	-1E+10	1	-1E+10	1	-1E+10	1	-1E+10	1	-1E+10	1
4901784	160	C	11/21/2019	10:42	-132.759	43.651	0	364.90	0	6.2760	0	36.1750	8	28.450	0	361.664	0	98.3	4	33.2	4	-1E+10	1	-1E+10	1	-1E+10	1	-1E+10	1	-1E+10	1	-1E+10	1
4901784	160	C	11/21/2019	10:42	-132.759	43.651	0	367.40	0	6.2760	0	36.1740	8	28.449	0	364.139	0	97.2	4	32.9	4	-1E+10	1	-1E+10	1	-1E+10	1	-1E+10	1	-1E+10	1	-1E+10	1
4901784	160	C	11/21/2019	10:42	-132.759	43.651	0	369.70	0	6.2670	0	36.1740	8	28.450	0	366.417	0	95.7	4	32.4	4	-1E+10	1	-1E+10	1	-1E+10	1	-1E+10	1	-1E+10	1	-1E+10	1
4901784	160	C	11/21/2019	10:42	-132.759	43.651	0	372.10	0	6.2460	0	36.1740	8	28.453	0	368.794	0	93.7	4	31.7	4	-1E+10	1	-1E+10	1	-1E+10	1	-1E+10	1	-1E+10	1	-1E+10	1
4901784	160	C	11/21/2019	10:42	-132.759	43.651	0	375.40	0	6.1880	0	36.1750	8	28.462	0	372.061	0	90.8	4	30.6	4	-1E+10	1	-1E+10	1	-1E+10	1	-1E+10	1	-1E+10	1	-1E+10	1
4901784	160	C	11/21/2019	10:42	-132.759	43.651	0	377.70	0	6.1300	0	36.1820	8	28.475	0	374.339	0	88.8	4	29.9	4	-1E+10	1	-1E+10	1	-1E+10	1	-1E+10	1	-1E+10	1	-1E+10	1
4901784	160	C	11/21/2019	10:42	-132.759	43.651	0	380.10	0	6.1070	0	36.1830	8	28.479	0	376.715	0	87.0	4	29.3	4	-1E+10	1	-1E+10	1	-1E+10	1	-1E+10	1	-1E+10	1	-1E+10	1
4901784	160	C	11/21/2019	10:42	-132.759	43.651	0	382.60	0	6.0780	0	36.1850	8	28.484	0	379.191	0	85.3	4	28.7	4	-1E+10	1	-1E+10	1	-1E+10	1	-1E+10	1	-1E+10	1	-1E+10	1
4901784	160	C	11/21/2019	10:42	-132.759	43.651	0	385.20	0	6.0520	0	36.1880	8	28.490	0	381.765	0	83.9	4	28.2	4	-1E+10	1	-1E+10	1	-1E+10	1	-1E+10	1	-1E+10	1	-1E+10	1
4901784	160	C	11/21/2019	10:42	-132.759	43.651	0	387.70	0	6.0360	0	36.1880	8	28.492	0	384.240	0	82.6	4	27.8	4	-1E+10	1	-1E+10	1	-1E+10	1	-1E+10	1	-1E+10	1	-1E+10	1
4901784	160	C	11/21/2019	10:42	-132.759	43.651	0	390.30	0	6.0060	0	36.1910	8	28.498	0	386.815	0	81.1	4	27.3	4	-1E+10	1	-1E+10	1	-1E+10	1	-1E+10	1	-1E+10	1	-1E+10	1
4901784	160	C	11/21/2019	10:42	-132.759	43.651	0	392.90	0	5.9810	0	36.1910	8	28.502	0	389.389	0	79.3	4	26.6	4	-1E+10	1	-1E+10	1	-1E+10	1	-1E+10	1	-1E+10	1	-1E+10	1
4901784	160	C	11/21/2019	10:42	-132.759	43.651	0	394.60	0	5.9810	0	36.1960	8	28.506	0	391.072	0	77.8	4	26.1	4	-1E+10	1	-1E+10	1	-1E+10	1	-1E+10	1	-1E+10	1	-1E+10	1
4901784	160	C	11/21/2019	10:42	-132.759	43.651	0	397.20	0	5.9750	0	36.1970	8	28.507	0	393.647	0	76.2	4	25.6	4	-1E+10	1	-1E+10	1	-1E+10	1	-1E+10	1	-1E+10	1	-1E+10	1
4901784	160	C	11/21/2019	10:42	-132.759	43.651	0	399.80	0	5.9560	0	36.2010	8	28.513	0	396.221	0	74.4	4	25.0	4	-1E+10	1	-1E+10	1	-1E+10	1	-1E+10	1	-1E+10	1	-1E+10	1
4901784	160	C	11/21/2019	10:42	-132.759	43.651	0	402.30	0	5.9310	0	36.2050	8	28.519	0	398.696	0	72.9	4	24.5	4	-1E+10	1	-1E+10	1	-1E+10	1	-1E+10	1	-1E+10	1	-1E+10	1
4901784	160	C	11/21/2019	10:42	-132.759	43.651	0	404.90	0	5.9030	0	36.2080	8	28.525	0	401.270	0	71.8	4	24.1	4	-1E+10	1	-1E+10	1	-1E+10	1	-1E+10	1	-1E+10	1	-1E+10	1
4901784	160	C	11/21/2019	10:42	-132.759	43.651	0	407.40	0	5.8900	0	36.2080	8	28.527	0	403.745	0	70.8	4	23.7	4	-1E+10	1	-1E+10	1	-1E+10	1	-1E+10	1	-1E+10	1	-1E+10	1
4901784	160	C	11/21/2019	10:42	-132.759	43.651	0	410.00	0	5.8630	0	36.2090	8	28.531	0	406.320	0	69.7	4	23.4	4	-1E+10	1	-1E+10	1	-1E+10	1	-1E+10	1	-1E+10	1	-1E+10	1
4901784	160	C	11/21/2019	10:42	-132.759	43.651	0	412.60	0	5.8350	0	36.2130	8	28.538	0	408.894	0	68.8	4	23.0	4	-1E+10	1	-1E+10	1	-1E+10	1	-1E+10	1	-1E+10	1	-1E+10	1
4901784	160	C	11/21/2019	10:42	-132.759	43.651	0	415.20	0	5.8200	0	36.2130	8	28.540	0	411.468	0	68.3	4	22.9	4	-1E+10	1	-1E+10	1	-1E+10	1	-1E+10	1	-1E+10	1	-1E+10	1
4901784	160	C	11/21/2019	10:42	-132.759	43.651	0	417.00	0	5.8020	0	36.2160	8	28.545	0	413.250	0	68.2	4	22.8	4	-1E+10	1	-1E+10	1	-1E+10	1	-1E+10	1	-1E+10	1	-1E+10	1
4901784	160	C	11/21/2019	10:42	-132.759	43.651	0	419.60	0	5.7930	0	36.2130	8	28.544	0	415.824	0	68.7	4	23.0	4	-1E+10	1	-1E+10	1	-1E+10	1	-1E+10	1	-1E+10	1	-1E+10	1
4901784	160	C	11/21/2019	10:42	-132.759	43.651	0	422.20	0	5.6960	0	36.2100	8	28.554	0	418.398	0	69.9	4	23.3	4	-1E+10	1	-1E+10	1	-1E+10	1	-1E+10	1	-1E+10	1	-1E+10	1
4901784	160	C	11/21/2019	10:42	-132.759	43.651	0	424.90	0	5.6710	0	36.2090	8	28.556	0	421.071	0	70.6	4	23.5	4	-1E+10	1	-1E+10	1	-1E+10	1	-1E+10	1	-1E+10	1	-1E+10	1
4901784	160	C	11/21/2019	10:42	-132.759	43.651	0	427.60	0	5.5940	0	36.2040	8	28.562	0	423.744	0	71.8	4	23.9	4	-1E+10	1	-1E+10	1	-1E+10	1	-1E+10	1	-1E+10	1	-1E+10	1
4901784	160	C	11/21/2019	10:42	-132.759	43.651	0	430.30	0	5.5320	0	36.2030	8	28.569	0	426.417	0	72.2	4	24.0	4	-1E+10	1	-1E+10	1	-1E+10	1	-1E+10	1	-1E+10	1	-1E+10	1
4901784	160	C	11/21/2019	10:42	-132.759	43.651	0	433.00	0	5.4960	0	36.1990	8	28.570	0	429.089	0	71.8	4	23.9	4	-1E+10	1	-1E+10	1	-1E+10	1	-1E+10	1	-1E+10	1	-1E+10	1
4901784	160	C	11/21/2019	10:42	-132.759	43.651	0	434.70	0	5.4750	0	36.1970	8	28.571	0	430.772	0	71.1	4	23.6	4	-1E+10	1	-1E+10	1	-1E+10	1	-1E+10	1	-1E+10	1	-1E+10	1
4901784	160	C	11/21/2019	10:42	-132.759	43.651	0	437.30	0	5.4020	0	36.2000	8	28.583	0	433.346	0	68.9	4	22.8	4	-1E+10	1	-1E+10	1	-1E+10	1	-1E+10	1	-1E+10	1	-1E+10	1
4901784	160	C	11/21/2019	10:42	-132.759	43.651	0	440.00	0	5.3730	0	36.2100	8	28.594	0	436.019	0	66.1	4	21.9	4	-1E+10	1	-1E+10	1	-1E+10	1	-1E+10	1	-1E+10	1	-1E+10	1
4901784	160	C	11/21/2019	10:42	-132.759	43.651	0	442.60	0	5.4050	0	36.2180	8	28.597	0	438.593	0	63.8	4	21.2	4	-1E+10	1	-1E+10	1	-1E+10	1	-1E+10	1	-1E+10	1	-1E+10	1
4901784	160	C	11/21/2019	10:42	-132.759	43.651	0	445.20	0	5.4530	0	36.2300	8	28.600	0	441.166	0	62.5	4	20.7	4	-1E+10	1	-1E+10	1	-1E+10	1	-1E+10	1	-1E+10	1	-1E+10	1
4901784	160	C	11/21/2019	10:42	-132.759	43.651	0	447.80	0	5.4230	0	36.2260	8	28.601	0	443.740	0	63.6	4	21.1	4	-1E+10	1	-1E+10	1	-1E+10	1	-1E+10	1	-1E+10	1	-1E+10	1
4901784	160	C	11/21/2019	10:42	-132.759	43.651	0	450.40	0	5.3610	0	36.2200	8	28.604	0	446.314	0	64.6	4	21.4	4	-1E+10	1	-1E+10	1	-1E+10	1	-1E+10	1	-1E+10	1	-1E+10	1
4901784	160	C	11/21/2019	10:42	-132.759	43.651	0	452.20	0	5.3290	0	36.2160	8	28.605	0	448.095	0	64.6	4	21.4	4	-1E+10	1	-1E+10	1	-1E+10	1	-1E+10	1	-1E+10	1	-1E+10	1
4901784	160	C	11/21/2019	10:42	-132.759	43.651	0	454.80	0	5.2540	0	36.2180	8	28.615	0	450.669	0	63.5	4	21.0	4	-1E+10	1	-1E+10	1	-1E+10	1	-1E+10	1	-1E+10	1	-1E+10	1
4901784	160	C	11/21/2019	10:42	-132.759	43.651	0	457.40	0	5.2470	0	36.2200	8	28.618	0	453.242	0	61.1	4	20.2	4	-1E+10	1	-1E+10	1	-1E+10	1	-1E+10	1	-1E+10	1	-1E+10	1
4901784	160	C	11/21/2019	10:42	-132.759	43.651	0	460.10	0	5.2380	0	36.2290	8	28.626	0	455.915	0	57.6	4	19.0	4	-1E+10	1	-1E+10	1	-1E+10	1	-1E+10	1	-1E+10	1	-1E+10	1
4901784	160	C	11/21/2019	10:42	-132.759	43.651	0	462.70	0	5.2880	0	36.2440	8	28.632	0	458.488	0	53.5	4	17.7	4	-1E+10	1	-1E+10	1	-1E+10	1	-1E+10	1	-1E+10	1	-1E+10	1
4901784	160	C	11/21/2019	10:42	-132.759	43.651	0	464.50	0	5.4060	0	36.2560	8	28.627	0	460.270	0	51.4	4	17.0	4	-1E+10	1	-1E+10	1	-1E+10	1	-1E+10	1	-1E+10	1	-1E+10	1
4901784	160	C	11/21/2019	10:42	-132.759	43.651	0	467.30	0	5.3630	0	36.2570	8	28.633	0	463.041	0	50.9	4	16.9	4	-1E+10	1	-1E+10	1	-1E+10	1	-1E+10	1	-1E+10	1	-1E+10	1
4901784	160	C	11/21/2019	10:42	-132.759	43.651	0	470.00	0	5.3510	0	36.2610	8	28.638	0	465.714	0	49.9	4	16.5	4	-1E+10	1	-1E+10	1	-1E+10	1	-1E+10	1	-1E+10	1	-1E+10	1
4901784	160	C	11/21/2019	10:42	-132.759	43.651	0	472.70	0	5.3600	0	36.2640	8	28.639	0	468.386	0	49.0	4	16.2	4	-1E+10	1	-1E+10	1	-1E+10	1	-1E+10	1	-1E+10	1	-1E+10	1
4901784	160	C	11/21/2019	10:42	-132.759	43.651	0	475.30	0	5.3180	0	36.2720	8	28.651	0	470.959	0	49.0	4	16.2	4	-1E+10	1	-1E+10	1	-1E+10	1	-1E+10	1	-1E+10	1	-1E+10	1
4901784	160	C	11/21/2019	10:42	-132.759	43.651	0	477.10	0	5.2680	0	36.2670	8	28.653	0	472.741	0	49.2	4	16.3	4	-1E+10	1	-1E+10	1	-1E+10	1	-1E+10	1	-1E+10	1	-1E+10	1
4901784	160	C	11/21/2019	10:42	-132.759	43.651	0	479.70	0	5.2450	0	36.2670	8	28.656	0	475.314	0	48.9	4	16.2	4	-1E+10	1	-1E+10	1	-1E+10	1	-1E+10	1	-1E+10	1	-1E+10	1
4901784	160	C	11/21/2019	10:42	-132.759	43.651	0	482.40	0	5.2300	0	36.2660	8	28.657	0	477.986	0	48.3	4	15.9	4	-1E+10	1	-1E+10	1	-1E+10	1	-1E+10	1	-1E+10	1	-1E+10	1
4901784	160	C	11/21/2019	10:42	-132.759	43.651	0	485.10	0	5.2310	0	36.2680	8	28.658	0	480.659	0	47.1	4	15.6	4	-1E+10	1	-1E+10	1	-1E+10	1	-1E+10	1	-1E+10	1	-1E+10	1
4901784	160	C	11/21/2019	10:42	-132.759	43.651	0	487.80	0	5.2090	0	36.2720	8	28.664	0	483.331	0	45.8	4	15.1	4	-1E+10	1	-1E+10	1	-1E+10	1	-1E+10	1	-1E+10	1	-1E+10	1
4901784	160	C	11/21/2019	10:42	-132.759	43.651	0	489.60	0	5.1970	0	36.2770	8	28.670	0	485.112	0	44.7	4	14.7	4	-1E+10	1	-1E+10	1	-1E+10	1	-1E+10	1	-1E+10	1	-1E+10	1
4901784	160	C	11/21/2019	10:42	-132.759	43.651	0	492.20	0	5.1960	0	36.2840	8	28.675	0	487.685	0	43.7	4	14.4	4	-1E+10	1	-1E+10	1	-1E+10	1	-1E+10	1	-1E+10	1	-1E+10	1
4901784	160	C	11/21/2019	10:42	-132.759	43.651	0	494.90	0	5.1750	0	36.2890	8	28.682	0	490.357	0	43.1	4	14.2	4	-1E+10	1	-1E+10	1	-1E+10	1	-1E+10	1	-1E+10	1	-1E+10	1
4901784	160	C	11/21/2019	10:42	-132.759	43.651	0	497.50	0	5.1710	0	36.2900	8	28.683	0	492.930	0	42.6	4	14.1	4	-1E+10	1	-1E+10	1	-1E+10	1	-1E+10	1	-1E+10	1	-1E+10	1
4901784	160	C	11/21/2019	10:42	-132.759	43.651	0	500.20	0	5.1460	0	36.2930	8	28.689	0	495.602	0	42.3	4	13.9	4	-1E+10	1	-1E+10	1	-1E+10	1	-1E+10	1	-1E+10	1	-1E+10	1
4901784	160	C	11/21/2019	10:42	-132.759	43.651	0	505.60	0	5.1210	0	36.2960	8	28.694	0	500.946	0	41.0	4	13.5	4	-1E+10	1	-1E+10	1	-1E+10	1	-1E+10	1	-1E+10	1	-1E+10	1
4901784	160	C	11/21/2019	10:42	-132.759	43.651	0	510.20	0	5.1410	0	36.3030	8	28.697	0	505.498	0	39.9	4	13.1	4	-1E+10	1	-1E+10	1	-1E+10	1	-1E+10	1	-1E+10	1	-1E+10	1
4901784	160	C	11/21/2019	10:42	-132.759	43.651	0	514.70	0	5.1090	0	36.3040	8	28.702	0	509.951	0	39.3	4	13.0	4	-1E+10	1	-1E+10	1	-1E+10	1	-1E+10	1	-1E+10	1	-1E+10	1
4901784	160	C	11/21/2019	10:42	-132.759	43.651	0	520.20	0	5.0890	0	36.3080	8	28.708	0	515.394	0	37.8	4	12.4	4	-1E+10	1	-1E+10	1	-1E+10	1	-1E+10	1	-1E+10	1	-1E+10	1
4901784	160	C	11/21/2019	10:42	-132.759	43.651	0	524.80	0	5.0660	0	36.3180	8	28.718	0	519.945	0	36.2	4	11.9	4	-1E+10	1	-1E+10	1	-1E+10	1	-1E+10	1	-1E+10	1	-1E+10	1
4901784	160	C	11/21/2019	10:42	-132.759	43.651	0	529.40	0	5.0760	0	36.3240	8	28.722	0	524.497	0	35.1	4	11.6	4	-1E+10	1	-1E+10	1	-1E+10	1	-1E+10	1	-1E+10	1	-1E+10	1
4901784	160	C	11/21/2019	10:42	-132.759	43.651	0	534.60	0	5.0550	0	36.3290	8	28.728	0	529.642	0	33.8	4	11.1	4	-1E+10	1	-1E+10	1	-1E+10	1	-1E+10	1	-1E+10	1	-1E+10	1
4901784	160	C	11/21/2019	10:42	-132.759	43.651	0	539.40	0	5.0400	0	36.3370	8	28.737	0	534.392	0	32.1	4	10.6	4	-1E+10	1	-1E+10	1	-1E+10	1	-1E+10	1	-1E+10	1	-1E+10	1
4901784	160	C	11/21/2019	10:42	-132.759	43.651	0	544.30	0	5.0420	0	36.3450	8	28.743	0	539.240	0	30.8	4	10.1	4	-1E+10	1	-1E+10	1	-1E+10	1	-1E+10	1	-1E+10	1	-1E+10	1
4901784	160	C	11/21/2019	10:42	-132.759	43.651	0	550.00	0	5.0110	0	36.3510	8	28.751	0	544.879	0	29.7	4	9.8	4	-1E+10	1	-1E+10	1	-1E+10	1	-1E+10	1	-1E+10	1	-1E+10	1
4901784	160	C	11/21/2019	10:42	-132.759	43.651	0	555.70	0	4.9850	0	36.3560	8	28.758	0	550.519	0	28.9	4	9.5	4	-1E+10	1	-1E+10	1	-1E+10	1	-1E+10	1	-1E+10	1	-1E+10	1
4901784	160	C	11/21/2019	10:42	-132.759	43.651	0	560.70	0	4.9610	0	36.3610	8	28.765	0	555.465	0	28.1	4	9.2	4	-1E+10	1	-1E+10	1	-1E+10	1	-1E+10	1	-1E+10	1	-1E+10	1
4901784	160	C	11/21/2019	10:42	-132.759	43.651	0	565.60	0	4.9500	0	36.3650	8	28.770	0	560.313	0	27.2	4	8.9	4	-1E+10	1	-1E+10	1	-1E+10	1	-1E+10	1	-1E+10	1	-1E+10	1
4901784	160	C	11/21/2019	10:42	-132.759	43.651	0	570.60	0	4.9420	0	36.3690	8	28.774	0	565.260	0	26.3	4	8.6	4	-1E+10	1	-1E+10	1	-1E+10	1	-1E+10	1	-1E+10	1	-1E+10	1
4901784	160	C	11/21/2019	10:42	-132.759	43.651	0	575.60	0	4.9300	0	36.3770	8	28.782	0	570.206	0	25.3	4	8.3	4	-1E+10	1	-1E+10	1	-1E+10	1	-1E+10	1	-1E+10	1	-1E+10	1
4901784	160	C	11/21/2019	10:42	-132.759	43.651	0	580.60	0	4.9140	0	36.3820	8	28.788	0	575.152	0	24.7	4	8.1	4	-1E+10	1	-1E+10	1	-1E+10	1	-1E+10	1	-1E+10	1	-1E+10	1
4901784	160	C	11/21/2019	10:42	-132.759	43.651	0	585.70	0	4.9000	0	36.3860	8	28.793	0	580.197	0	24.4	4	8.0	4	-1E+10	1	-1E+10	1	-1E+10	1	-1E+10	1	-1E+10	1	-1E+10	1
4901784	160	C	11/21/2019	10:42	-132.759	43.651	0	590.80	0	4.8900	0	36.3850	8	28.793	0	585.242	0	24.5	4	8.0	4	-1E+10	1	-1E+10	1	-1E+10	1	-1E+10	1	-1E+10	1	-1E+10	1
4901784	160	C	11/21/2019	10:42	-132.759	43.651	0	595.10	0	4.8510	0	36.3850	8	28.798	0	589.496	0	24.6	4	8.1	4	-1E+10	1	-1E+10	1	-1E+10	1	-1E+10	1	-1E+10	1	-1E+10	1
4901784	160	C	11/21/2019	10:42	-132.759	43.651	0	599.40	0	4.8220	0	36.3840	8	28.800	0	593.749	0	24.5	4	8.0	4	-1E+10	1	-1E+10	1	-1E+10	1	-1E+10	1	-1E+10	1	-1E+10	1
4901784	160	C	11/21/2019	10:42	-132.759	43.651	0	604.60	0	4.8020	0	36.3870	8	28.805	0	598.892	0	23.9	4	7.8	4	-1E+10	1	-1E+10	1	-1E+10	1	-1E+10	1	-1E+10	1	-1E+10	1
4901784	160	C	11/21/2019	10:42	-132.759	43.651	0	609.90	0	4.7660	0	36.3920	8	28.813	0	604.135	0	23.3	4	7.6	4	-1E+10	1	-1E+10	1	-1E+10	1	-1E+10	1	-1E+10	1	-1E+10	1
4901784	160	C	11/21/2019	10:42	-132.759	43.651	0	615.10	0	4.7220	0	36.3970	8	28.823	0	609.278	0	22.7	4	7.4	4	-1E+10	1	-1E+10	1	-1E+10	1	-1E+10	1	-1E+10	1	-1E+10	1
4901784	160	C	11/21/2019	10:42	-132.759	43.651	0	620.30	0	4.7140	0	36.4000	8	28.826	0	614.421	0	22.1	4	7.2	4	-1E+10	1	-1E+10	1	-1E+10	1	-1E+10	1	-1E+10	1	-1E+10	1
4901784	160	C	11/21/2019	10:42	-132.759	43.651	0	625.60	0	4.6820	0	36.4050	8	28.834	0	619.663	0	21.1	4	6.9	4	-1E+10	1	-1E+10	1	-1E+10	1	-1E+10	1	-1E+10	1	-1E+10	1
4901784	160	C	11/21/2019	10:42	-132.759	43.651	0	630.10	0	4.6890	0	36.4150	8	28.841	0	624.113	0	20.1	4	6.5	4	-1E+10	1	-1E+10	1	-1E+10	1	-1E+10	1	-1E+10	1	-1E+10	1
4901784	160	C	11/21/2019	10:42	-132.759	43.651	0	634.70	0	4.6560	0	36.4180	8	28.847	0	628.663	0	19.5	4	6.4	4	-1E+10	1	-1E+10	1	-1E+10	1	-1E+10	1	-1E+10	1	-1E+10	1
4901784	160	C	11/21/2019	10:42	-132.759	43.651	0	640.10	0	4.6570	0	36.4270	8	28.854	0	634.003	0	18.5	4	6.0	4	-1E+10	1	-1E+10	1	-1E+10	1	-1E+10	1	-1E+10	1	-1E+10	1
4901784	160	C	11/21/2019	10:42	-132.759	43.651	0	645.50	0	4.6350	0	36.4330	8	28.861	0	639.344	0	18.0	4	5.9	4	-1E+10	1	-1E+10	1	-1E+10	1	-1E+10	1	-1E+10	1	-1E+10	1
4901784	160	C	11/21/2019	10:42	-132.759	43.651	0	650.00	0	4.6190	0	36.4360	8	28.866	0	643.794	0	17.7	4	5.8	4	-1E+10	1	-1E+10	1	-1E+10	1	-1E+10	1	-1E+10	1	-1E+10	1
4901784	160	C	11/21/2019	10:42	-132.759	43.651	0	654.50	0	4.5890	0	36.4380	8	28.871	0	648.244	0	17.7	4	5.8	4	-1E+10	1	-1E+10	1	-1E+10	1	-1E+10	1	-1E+10	1	-1E+10	1
4901784	160	C	11/21/2019	10:42	-132.759	43.651	0	659.90	0	4.5400	0	36.4390	8	28.877	0	653.584	0	17.3	4	5.6	4	-1E+10	1	-1E+10	1	-1E+10	1	-1E+10	1	-1E+10	1	-1E+10	1
4901784	160	C	11/21/2019	10:42	-132.759	43.651	0	665.40	0	4.5400	0	36.4470	8	28.884	0	659.022	0	16.6	4	5.4	4	-1E+10	1	-1E+10	1	-1E+10	1	-1E+10	1	-1E+10	1	-1E+10	1
4901784	160	C	11/21/2019	10:42	-132.759	43.651	0	670.00	0	4.5120	0	36.4540	8	28.893	0	663.571	0	16.2	4	5.3	4	-1E+10	1	-1E+10	1	-1E+10	1	-1E+10	1	-1E+10	1	-1E+10	1
4901784	160	C	11/21/2019	10:42	-132.759	43.651	0	674.50	0	4.5050	0	36.4550	8	28.894	0	668.021	0	16.1	4	5.2	4	-1E+10	1	-1E+10	1	-1E+10	1	-1E+10	1	-1E+10	1	-1E+10	1
4901784	160	C	11/21/2019	10:42	-132.759	43.651	0	680.00	0	4.4750	0	36.4580	8	28.900	0	673.459	0	15.9	4	5.2	4	-1E+10	1	-1E+10	1	-1E+10	1	-1E+10	1	-1E+10	1	-1E+10	1
4901784	160	C	11/21/2019	10:42	-132.759	43.651	0	685.50	0	4.4020	0	36.4590	8	28.909	0	678.897	0	15.8	4	5.1	4	-1E+10	1	-1E+10	1	-1E+10	1	-1E+10	1	-1E+10	1	-1E+10	1
4901784	160	C	11/21/2019	10:42	-132.759	43.651	0	690.20	0	4.4030	0	36.4670	8	28.915	0	683.544	0	15.3	4	5.0	4	-1E+10	1	-1E+10	1	-1E+10	1	-1E+10	1	-1E+10	1	-1E+10	1
4901784	160	C	11/21/2019	10:42	-132.759	43.651	0	694.90	0	4.3810	0	36.4690	8	28.919	0	688.191	0	15.0	4	4.9	4	-1E+10	1	-1E+10	1	-1E+10	1	-1E+10	1	-1E+10	1	-1E+10	1
4901784	160	C	11/21/2019	10:42	-132.759	43.651	0	700.60	0	4.3580	0	36.4750	8	28.927	0	693.826	0	14.7	4	4.8	4	-1E+10	1	-1E+10	1	-1E+10	1	-1E+10	1	-1E+10	1	-1E+10	1
4901784	160	C	11/21/2019	10:42	-132.759	43.651	0	706.10	0	4.3380	0	36.4800	8	28.933	0	699.264	0	14.4	4	4.7	4	-1E+10	1	-1E+10	1	-1E+10	1	-1E+10	1	-1E+10	1	-1E+10	1
4901784	160	C	11/21/2019	10:42	-132.759	43.651	0	710.40	0	4.3320	0	36.4820	8	28.935	0	703.515	0	14.2	4	4.6	4	-1E+10	1	-1E+10	1	-1E+10	1	-1E+10	1	-1E+10	1	-1E+10	1
4901784	160	C	11/21/2019	10:42	-132.759	43.651	0	715.30	0	4.3350	0	36.4850	8	28.938	0	708.359	0	14.0	4	4.5	4	-1E+10	1	-1E+10	1	-1E+10	1	-1E+10	1	-1E+10	1	-1E+10	1
4901784	160	C	11/21/2019	10:42	-132.759	43.651	0	720.10	0	4.3180	0	36.4870	8	28.941	0	713.104	0	13.9	4	4.5	4	-1E+10	1	-1E+10	1	-1E+10	1	-1E+10	1	-1E+10	1	-1E+10	1
4901784	160	C	11/21/2019	10:42	-132.759	43.651	0	725.00	0	4.2670	0	36.4880	8	28.948	0	717.948	0	13.8	4	4.5	4	-1E+10	1	-1E+10	1	-1E+10	1	-1E+10	1	-1E+10	1	-1E+10	1
4901784	160	C	11/21/2019	10:42	-132.759	43.651	0	729.90	0	4.2650	0	36.4940	8	28.953	0	722.792	0	13.6	4	4.4	4	-1E+10	1	-1E+10	1	-1E+10	1	-1E+10	1	-1E+10	1	-1E+10	1
4901784	160	C	11/21/2019	10:42	-132.759	43.651	0	735.00	0	4.2170	0	36.4940	8	28.958	0	727.834	0	13.8	4	4.4	4	-1E+10	1	-1E+10	1	-1E+10	1	-1E+10	1	-1E+10	1	-1E+10	1
4901784	160	C	11/21/2019	10:42	-132.759	43.651	0	739.90	0	4.2020	0	36.4950	8	28.960	0	732.677	0	13.7	4	4.4	4	-1E+10	1	-1E+10	1	-1E+10	1	-1E+10	1	-1E+10	1	-1E+10	1
4901784	160	C	11/21/2019	10:42	-132.759	43.651	0	745.00	0	4.1720	0	36.4930	8	28.962	0	737.719	0	13.9	4	4.5	4	-1E+10	1	-1E+10	1	-1E+10	1	-1E+10	1	-1E+10	1	-1E+10	1
4901784	160	C	11/21/2019	10:42	-132.759	43.651	0	750.00	0	4.1440	0	36.4930	8	28.965	0	742.661	0	13.9	4	4.5	4	-1E+10	1	-1E+10	1	-1E+10	1	-1E+10	1	-1E+10	1	-1E+10	1
4901784	160	C	11/21/2019	10:42	-132.759	43.651	0	755.20	0	4.0860	0	36.4930	8	28.972	0	747.801	0	14.0	4	4.5	4	-1E+10	1	-1E+10	1	-1E+10	1	-1E+10	1	-1E+10	1	-1E+10	1
4901784	160	C	11/21/2019	10:42	-132.759	43.651	0	760.30	0	4.0790	0	36.4940	8	28.973	0	752.841	0	13.9	4	4.5	4	-1E+10	1	-1E+10	1	-1E+10	1	-1E+10	1	-1E+10	1	-1E+10	1
4901784	160	C	11/21/2019	10:42	-132.759	43.651	0	765.50	0	4.0530	0	36.4960	8	28.978	0	757.981	0	13.9	4	4.5	4	-1E+10	1	-1E+10	1	-1E+10	1	-1E+10	1	-1E+10	1	-1E+10	1
4901784	160	C	11/21/2019	10:42	-132.759	43.651	0	770.70	0	4.0320	0	36.4980	8	28.982	0	763.120	0	13.8	4	4.4	4	-1E+10	1	-1E+10	1	-1E+10	1	-1E+10	1	-1E+10	1	-1E+10	1
4901784	160	C	11/21/2019	10:42	-132.759	43.651	0	775.00	0	4.0250	0	36.5000	8	28.984	0	767.370	0	13.6	4	4.4	4	-1E+10	1	-1E+10	1	-1E+10	1	-1E+10	1	-1E+10	1	-1E+10	1
4901784	160	C	11/21/2019	10:42	-132.759	43.651	0	779.40	0	4.0220	0	36.5040	8	28.988	0	771.719	0	13.2	4	4.3	4	-1E+10	1	-1E+10	1	-1E+10	1	-1E+10	1	-1E+10	1	-1E+10	1
4901784	160	C	11/21/2019	10:42	-132.759	43.651	0	784.70	0	4.0140	0	36.5090	8	28.993	0	776.957	0	13.0	4	4.2	4	-1E+10	1	-1E+10	1	-1E+10	1	-1E+10	1	-1E+10	1	-1E+10	1
4901784	160	C	11/21/2019	10:42	-132.759	43.651	0	790.00	0	3.9900	0	36.5160	8	29.001	0	782.195	0	12.7	4	4.1	4	-1E+10	1	-1E+10	1	-1E+10	1	-1E+10	1	-1E+10	1	-1E+10	1
4901784	160	C	11/21/2019	10:42	-132.759	43.651	0	795.40	0	3.9810	0	36.5210	8	29.006	0	787.531	0	12.4	4	4.0	4	-1E+10	1	-1E+10	1	-1E+10	1	-1E+10	1	-1E+10	1	-1E+10	1
4901784	160	C	11/21/2019	10:42	-132.759	43.651	0	800.00	0	3.9670	0	36.5230	8	29.009	0	792.077	0	12.3	4	4.0	4	-1E+10	1	-1E+10	1	-1E+10	1	-1E+10	1	-1E+10	1	-1E+10	1
4901784	160	C	11/21/2019	10:42	-132.759	43.651	0	804.50	0	3.9620	0	36.5230	8	29.009	0	796.524	0	12.2	4	3.9	4	-1E+10	1	-1E+10	1	-1E+10	1	-1E+10	1	-1E+10	1	-1E+10	1
4901784	160	C	11/21/2019	10:42	-132.759	43.651	0	809.90	0	3.9520	0	36.5240	8	29.011	0	801.860	0	12.1	4	3.9	4	-1E+10	1	-1E+10	1	-1E+10	1	-1E+10	1	-1E+10	1	-1E+10	1
4901784	160	C	11/21/2019	10:42	-132.759	43.651	0	815.40	0	3.9550	0	36.5260	8	29.013	0	807.295	0	11.9	4	3.8	4	-1E+10	1	-1E+10	1	-1E+10	1	-1E+10	1	-1E+10	1	-1E+10	1
4901784	160	C	11/21/2019	10:42	-132.759	43.651	0	819.90	0	3.9540	0	36.5320	8	29.018	0	811.741	0	11.8	4	3.8	4	-1E+10	1	-1E+10	1	-1E+10	1	-1E+10	1	-1E+10	1	-1E+10	1
4901784	160	C	11/21/2019	10:42	-132.759	43.651	0	824.50	0	3.9470	0	36.5320	8	29.018	0	816.286	0	11.8	4	3.8	4	-1E+10	1	-1E+10	1	-1E+10	1	-1E+10	1	-1E+10	1	-1E+10	1
4901784	160	C	11/21/2019	10:42	-132.759	43.651	0	830.00	0	3.9260	0	36.5330	8	29.021	0	821.721	0	11.8	4	3.8	4	-1E+10	1	-1E+10	1	-1E+10	1	-1E+10	1	-1E+10	1	-1E+10	1
4901784	160	C	11/21/2019	10:42	-132.759	43.651	0	835.40	0	3.9030	0	36.5360	8	29.026	0	827.056	0	11.6	4	3.7	4	-1E+10	1	-1E+10	1	-1E+10	1	-1E+10	1	-1E+10	1	-1E+10	1
4901784	160	C	11/21/2019	10:42	-132.759	43.651	0	840.10	0	3.8930	0	36.5410	8	29.031	0	831.700	0	11.6	4	3.7	4	-1E+10	1	-1E+10	1	-1E+10	1	-1E+10	1	-1E+10	1	-1E+10	1
4901784	160	C	11/21/2019	10:42	-132.759	43.651	0	844.70	0	3.8690	0	36.5420	8	29.035	0	836.245	0	11.6	4	3.7	4	-1E+10	1	-1E+10	1	-1E+10	1	-1E+10	1	-1E+10	1	-1E+10	1
4901784	160	C	11/21/2019	10:42	-132.759	43.651	0	850.20	0	3.8530	0	36.5430	8	29.037	0	841.679	0	11.6	4	3.7	4	-1E+10	1	-1E+10	1	-1E+10	1	-1E+10	1	-1E+10	1	-1E+10	1
4901784	160	C	11/21/2019	10:42	-132.759	43.651	0	854.90	0	3.8230	0	36.5440	8	29.041	0	846.322	0	11.5	4	3.7	4	-1E+10	1	-1E+10	1	-1E+10	1	-1E+10	1	-1E+10	1	-1E+10	1
4901784	160	C	11/21/2019	10:42	-132.759	43.651	0	859.50	0	3.8270	0	36.5490	8	29.045	0	850.866	0	11.4	4	3.6	4	-1E+10	1	-1E+10	1	-1E+10	1	-1E+10	1	-1E+10	1	-1E+10	1
4901784	160	C	11/21/2019	10:42	-132.759	43.651	0	865.10	0	3.8110	0	36.5510	8	29.048	0	856.399	0	11.4	4	3.6	4	-1E+10	1	-1E+10	1	-1E+10	1	-1E+10	1	-1E+10	1	-1E+10	1
4901784	160	C	11/21/2019	10:42	-132.759	43.651	0	869.80	0	3.7950	0	36.5520	8	29.051	0	861.042	0	11.4	4	3.6	4	-1E+10	1	-1E+10	1	-1E+10	1	-1E+10	1	-1E+10	1	-1E+10	1
4901784	160	C	11/21/2019	10:42	-132.759	43.651	0	874.40	0	3.7900	0	36.5530	8	29.052	0	865.586	0	11.3	4	3.6	4	-1E+10	1	-1E+10	1	-1E+10	1	-1E+10	1	-1E+10	1	-1E+10	1
4901784	160	C	11/21/2019	10:42	-132.759	43.651	0	880.10	0	3.7800	0	36.5560	8	29.056	0	871.217	0	11.2	4	3.6	4	-1E+10	1	-1E+10	1	-1E+10	1	-1E+10	1	-1E+10	1	-1E+10	1
4901784	160	C	11/21/2019	10:42	-132.759	43.651	0	884.80	0	3.7760	0	36.5600	8	29.059	0	875.859	0	11.1	4	3.5	4	-1E+10	1	-1E+10	1	-1E+10	1	-1E+10	1	-1E+10	1	-1E+10	1
4901784	160	C	11/21/2019	10:42	-132.759	43.651	0	889.60	0	3.7700	0	36.5630	8	29.062	0	880.601	0	11.0	4	3.5	4	-1E+10	1	-1E+10	1	-1E+10	1	-1E+10	1	-1E+10	1	-1E+10	1
4901784	160	C	11/21/2019	10:42	-132.759	43.651	0	895.30	0	3.7470	0	36.5650	8	29.066	0	886.231	0	11.0	4	3.5	4	-1E+10	1	-1E+10	1	-1E+10	1	-1E+10	1	-1E+10	1	-1E+10	1
4901784	160	C	11/21/2019	10:42	-132.759	43.651	0	900.30	0	3.7380	0	36.5670	8	29.069	0	891.170	0	10.9	4	3.5	4	-1E+10	1	-1E+10	1	-1E+10	1	-1E+10	1	-1E+10	1	-1E+10	1
4901784	160	C	11/21/2019	10:42	-132.759	43.651	0	904.80	0	3.7270	0	36.5700	8	29.073	0	895.614	0	10.8	4	3.5	4	-1E+10	1	-1E+10	1	-1E+10	1	-1E+10	1	-1E+10	1	-1E+10	1
4901784	160	C	11/21/2019	10:42	-132.759	43.651	0	909.80	0	3.7220	0	36.5730	8	29.076	0	900.553	0	10.8	4	3.4	4	-1E+10	1	-1E+10	1	-1E+10	1	-1E+10	1	-1E+10	1	-1E+10	1
4901784	160	C	11/21/2019	10:42	-132.759	43.651	0	914.80	0	3.7140	0	36.5750	8	29.078	0	905.491	0	10.7	4	3.4	4	-1E+10	1	-1E+10	1	-1E+10	1	-1E+10	1	-1E+10	1	-1E+10	1
4901784	160	C	11/21/2019	10:42	-132.759	43.651	0	919.80	0	3.7070	0	36.5780	8	29.081	0	910.429	0	10.6	4	3.4	4	-1E+10	1	-1E+10	1	-1E+10	1	-1E+10	1	-1E+10	1	-1E+10	1
4901784	160	C	11/21/2019	10:42	-132.759	43.651	0	924.90	0	3.6920	0	36.5820	8	29.086	0	915.466	0	10.5	4	3.4	4	-1E+10	1	-1E+10	1	-1E+10	1	-1E+10	1	-1E+10	1	-1E+10	1
4901784	160	C	11/21/2019	10:42	-132.759	43.651	0	929.90	0	3.6810	0	36.5860	8	29.090	0	920.404	0	10.5	4	3.3	4	-1E+10	1	-1E+10	1	-1E+10	1	-1E+10	1	-1E+10	1	-1E+10	1
4901784	160	C	11/21/2019	10:42	-132.759	43.651	0	935.10	0	3.6640	0	36.5890	8	29.095	0	925.540	0	10.4	4	3.3	4	-1E+10	1	-1E+10	1	-1E+10	1	-1E+10	1	-1E+10	1	-1E+10	1
4901784	160	C	11/21/2019	10:42	-132.759	43.651	0	940.30	0	3.6560	0	36.5920	8	29.098	0	930.675	0	10.3	4	3.3	4	-1E+10	1	-1E+10	1	-1E+10	1	-1E+10	1	-1E+10	1	-1E+10	1
4901784	160	C	11/21/2019	10:42	-132.759	43.651	0	945.50	0	3.6430	0	36.5980	8	29.104	0	935.810	0	10.3	4	3.3	4	-1E+10	1	-1E+10	1	-1E+10	1	-1E+10	1	-1E+10	1	-1E+10	1
4901784	160	C	11/21/2019	10:42	-132.759	43.651	0	950.00	0	3.6370	0	36.6020	8	29.108	0	940.254	0	10.2	4	3.3	4	-1E+10	1	-1E+10	1	-1E+10	1	-1E+10	1	-1E+10	1	-1E+10	1
4901784	160	C	11/21/2019	10:42	-132.759	43.651	0	954.40	0	3.6390	0	36.6070	8	29.112	0	944.599	0	10.2	4	3.2	4	-1E+10	1	-1E+10	1	-1E+10	1	-1E+10	1	-1E+10	1	-1E+10	1
4901784	160	C	11/21/2019	10:42	-132.759	43.651	0	959.80	0	3.6210	0	36.6110	8	29.117	0	949.931	0	10.1	4	3.2	4	-1E+10	1	-1E+10	1	-1E+10	1	-1E+10	1	-1E+10	1	-1E+10	1
4901784	160	C	11/21/2019	10:42	-132.759	43.651	0	965.30	0	3.5970	0	36.6170	8	29.124	0	955.362	0	10.1	4	3.2	4	-1E+10	1	-1E+10	1	-1E+10	1	-1E+10	1	-1E+10	1	-1E+10	1
4901784	160	C	11/21/2019	10:42	-132.759	43.651	0	969.80	0	3.5870	0	36.6200	8	29.128	0	959.806	0	10.1	4	3.2	4	-1E+10	1	-1E+10	1	-1E+10	1	-1E+10	1	-1E+10	1	-1E+10	1
4901784	160	C	11/21/2019	10:42	-132.759	43.651	0	974.30	0	3.5800	0	36.6220	8	29.130	0	964.249	0	10.1	4	3.2	4	-1E+10	1	-1E+10	1	-1E+10	1	-1E+10	1	-1E+10	1	-1E+10	1
4901784	160	C	11/21/2019	10:42	-132.759	43.651	0	979.60	0	3.5660	0	36.6270	8	29.135	0	969.482	0	10.1	4	3.2	4	-1E+10	1	-1E+10	1	-1E+10	1	-1E+10	1	-1E+10	1	-1E+10	1
4901784	160	C	11/21/2019	10:42	-132.759	43.651	0	984.40	0	3.5570	0	36.6290	8	29.138	0	974.221	0	10.1	4	3.2	4	-1E+10	1	-1E+10	1	-1E+10	1	-1E+10	1	-1E+10	1	-1E+10	1
4901784	160	C	11/21/2019	10:42	-132.759	43.651	0	989.30	0	3.5470	0	36.6310	8	29.141	0	979.059	0	10.1	4	3.2	4	-1E+10	1	-1E+10	1	-1E+10	1	-1E+10	1	-1E+10	1	-1E+10	1
4901784	160	C	11/21/2019	10:42	-132.759	43.651	0	994.30	0	3.5340	0	36.6340	8	29.144	0	983.996	0	10.1	4	3.2	4	-1E+10	1	-1E+10	1	-1E+10	1	-1E+10	1	-1E+10	1	-1E+10	1
4901784	160	C	11/21/2019	10:42	-132.759	43.651	0	999.30	0	3.5220	0	36.6370	8	29.148	0	988.932	0	10.1	4	3.2	4	-1E+10	1	-1E+10	1	-1E+10	1	-1E+10	1	-1E+10	1	-1E+10	1
4901784	160	C	11/21/2019	10:42	-132.759	43.651	0	1004.30	0	3.5230	0	36.6390	8	29.150	0	993.868	0	10.2	4	3.2	4	-1E+10	1	-1E+10	1	-1E+10	1	-1E+10	1	-1E+10	1	-1E+10	1
4901784	160	C	11/21/2019	10:42	-132.759	43.651	0	1009.50	0	3.5110	0	36.6420	8	29.153	0	999.002	0	10.2	4	3.2	4	-1E+10	1	-1E+10	1	-1E+10	1	-1E+10	1	-1E+10	1	-1E+10	1
4901784	160	C	11/21/2019	10:42	-132.759	43.651	0	1014.60	0	3.5070	0	36.6440	8	29.155	0	1004.037	0	10.3	4	3.3	4	-1E+10	1	-1E+10	1	-1E+10	1	-1E+10	1	-1E+10	1	-1E+10	1
4901784	160	C	11/21/2019	10:42	-132.759	43.651	0	1019.90	0	3.4940	0	36.6470	8	29.159	0	1009.269	0	10.4	4	3.3	4	-1E+10	1	-1E+10	1	-1E+10	1	-1E+10	1	-1E+10	1	-1E+10	1
4901784	160	C	11/21/2019	10:42	-132.759	43.651	0	1025.20	0	3.4790	0	36.6510	8	29.164	0	1014.501	0	10.5	4	3.3	4	-1E+10	1	-1E+10	1	-1E+10	1	-1E+10	1	-1E+10	1	-1E+10	1
4901784	160	C	11/21/2019	10:42	-132.759	43.651	0	1030.50	0	3.4710	0	36.6550	8	29.168	0	1019.732	0	10.5	4	3.3	4	-1E+10	1	-1E+10	1	-1E+10	1	-1E+10	1	-1E+10	1	-1E+10	1
4901784	160	C	11/21/2019	10:42	-132.759	43.651	0	1034.90	0	3.4630	0	36.6550	8	29.169	0	1024.076	0	10.6	4	3.4	4	-1E+10	1	-1E+10	1	-1E+10	1	-1E+10	1	-1E+10	1	-1E+10	1
4901784	160	C	11/21/2019	10:42	-132.759	43.651	0	1039.30	0	3.4510	0	36.6560	8	29.171	0	1028.419	0	10.6	4	3.4	4	-1E+10	1	-1E+10	1	-1E+10	1	-1E+10	1	-1E+10	1	-1E+10	1
4901784	160	C	11/21/2019	10:42	-132.759	43.651	0	1044.70	0	3.4360	0	36.6600	8	29.176	0	1033.749	0	10.7	4	3.4	4	-1E+10	1	-1E+10	1	-1E+10	1	-1E+10	1	-1E+10	1	-1E+10	1
4901784	160	C	11/21/2019	10:42	-132.759	43.651	0	1050.10	0	3.4250	0	36.6630	8	29.179	0	1039.079	0	10.7	4	3.4	4	-1E+10	1	-1E+10	1	-1E+10	1	-1E+10	1	-1E+10	1	-1E+10	1
4901784	160	C	11/21/2019	10:42	-132.759	43.651	0	1055.70	0	3.4200	0	36.6650	8	29.181	0	1044.606	0	10.8	4	3.4	4	-1E+10	1	-1E+10	1	-1E+10	1	-1E+10	1	-1E+10	1	-1E+10	1
4901784	160	C	11/21/2019	10:42	-132.759	43.651	0	1060.30	0	3.4070	0	36.6680	8	29.185	0	1049.147	0	10.8	4	3.4	4	-1E+10	1	-1E+10	1	-1E+10	1	-1E+10	1	-1E+10	1	-1E+10	1
4901784	160	C	11/21/2019	10:42	-132.759	43.651	0	1064.90	0	3.3940	0	36.6700	8	29.188	0	1053.687	0	10.9	4	3.5	4	-1E+10	1	-1E+10	1	-1E+10	1	-1E+10	1	-1E+10	1	-1E+10	1
4901784	160	C	11/21/2019	10:42	-132.759	43.651	0	1070.40	0	3.3780	0	36.6730	8	29.192	0	1059.115	0	11.0	4	3.5	4	-1E+10	1	-1E+10	1	-1E+10	1	-1E+10	1	-1E+10	1	-1E+10	1
4901784	160	C	11/21/2019	10:42	-132.759	43.651	0	1075.00	0	3.3680	0	36.6750	8	29.195	0	1063.655	0	11.0	4	3.5	4	-1E+10	1	-1E+10	1	-1E+10	1	-1E+10	1	-1E+10	1	-1E+10	1
4901784	160	C	11/21/2019	10:42	-132.759	43.651	0	1079.50	0	3.3610	0	36.6760	8	29.196	0	1068.096	0	11.0	4	3.5	4	-1E+10	1	-1E+10	1	-1E+10	1	-1E+10	1	-1E+10	1	-1E+10	1
4901784	160	C	11/21/2019	10:42	-132.759	43.651	0	1085.00	0	3.3490	0	36.6780	8	29.199	0	1073.524	0	11.1	4	3.5	4	-1E+10	1	-1E+10	1	-1E+10	1	-1E+10	1	-1E+10	1	-1E+10	1
4901784	160	C	11/21/2019	10:42	-132.759	43.651	0	1090.50	0	3.3380	0	36.6810	8	29.203	0	1078.951	0	11.2	4	3.5	4	-1E+10	1	-1E+10	1	-1E+10	1	-1E+10	1	-1E+10	1	-1E+10	1
4901784	160	C	11/21/2019	10:42	-132.759	43.651	0	1095.10	0	3.3310	0	36.6820	8	29.204	0	1083.491	0	11.2	4	3.6	4	-1E+10	1	-1E+10	1	-1E+10	1	-1E+10	1	-1E+10	1	-1E+10	1
4901784	160	C	11/21/2019	10:42	-132.759	43.651	0	1099.80	0	3.3220	0	36.6840	8	29.207	0	1088.129	0	11.3	4	3.6	4	-1E+10	1	-1E+10	1	-1E+10	1	-1E+10	1	-1E+10	1	-1E+10	1
4901784	160	C	11/21/2019	10:42	-132.759	43.651	0	1105.30	0	3.3070	0	36.6870	8	29.211	0	1093.556	0	11.4	4	3.6	4	-1E+10	1	-1E+10	1	-1E+10	1	-1E+10	1	-1E+10	1	-1E+10	1
4901784	160	C	11/21/2019	10:42	-132.759	43.651	0	1110.60	0	3.2960	0	36.6900	8	29.214	0	1098.786	0	11.5	4	3.6	4	-1E+10	1	-1E+10	1	-1E+10	1	-1E+10	1	-1E+10	1	-1E+10	1
4901784	160	C	11/21/2019	10:42	-132.759	43.651	0	1114.70	0	3.2940	0	36.6900	8	29.214	0	1102.831	0	11.5	4	3.6	4	-1E+10	1	-1E+10	1	-1E+10	1	-1E+10	1	-1E+10	1	-1E+10	1
4901784	160	C	11/21/2019	10:42	-132.759	43.651	0	1119.40	0	3.2870	0	36.6930	8	29.217	0	1107.469	0	11.6	4	3.7	4	-1E+10	1	-1E+10	1	-1E+10	1	-1E+10	1	-1E+10	1	-1E+10	1
4901784	160	C	11/21/2019	10:42	-132.759	43.651	0	1124.80	0	3.2730	0	36.6960	8	29.221	0	1112.797	0	11.7	4	3.7	4	-1E+10	1	-1E+10	1	-1E+10	1	-1E+10	1	-1E+10	1	-1E+10	1
4901784	160	C	11/21/2019	10:42	-132.759	43.651	0	1130.50	0	3.2620	0	36.6980	8	29.224	0	1118.421	0	11.8	4	3.7	4	-1E+10	1	-1E+10	1	-1E+10	1	-1E+10	1	-1E+10	1	-1E+10	1
4901784	160	C	11/21/2019	10:42	-132.759	43.651	0	1135.60	0	3.2500	0	36.7000	8	29.227	0	1123.453	0	11.9	4	3.8	4	-1E+10	1	-1E+10	1	-1E+10	1	-1E+10	1	-1E+10	1	-1E+10	1
4901784	160	C	11/21/2019	10:42	-132.759	43.651	0	1139.90	0	3.2440	0	36.7020	8	29.229	0	1127.695	0	12.0	4	3.8	4	-1E+10	1	-1E+10	1	-1E+10	1	-1E+10	1	-1E+10	1	-1E+10	1
4901784	160	C	11/21/2019	10:42	-132.759	43.651	0	1144.30	0	3.2370	0	36.7030	8	29.231	0	1132.037	0	12.1	4	3.8	4	-1E+10	1	-1E+10	1	-1E+10	1	-1E+10	1	-1E+10	1	-1E+10	1
4901784	160	C	11/21/2019	10:42	-132.759	43.651	0	1149.50	0	3.2260	0	36.7060	8	29.234	0	1137.167	0	12.2	4	3.9	4	-1E+10	1	-1E+10	1	-1E+10	1	-1E+10	1	-1E+10	1	-1E+10	1
4901784	160	C	11/21/2019	10:42	-132.759	43.651	0	1154.80	0	3.2180	0	36.7070	8	29.236	0	1142.395	0	12.3	4	3.9	4	-1E+10	1	-1E+10	1	-1E+10	1	-1E+10	1	-1E+10	1	-1E+10	1
4901784	160	C	11/21/2019	10:42	-132.759	43.651	0	1160.10	0	3.2050	0	36.7090	8	29.239	0	1147.624	0	12.4	4	3.9	4	-1E+10	1	-1E+10	1	-1E+10	1	-1E+10	1	-1E+10	1	-1E+10	1
4901784	160	C	11/21/2019	10:42	-132.759	43.651	0	1165.20	0	3.1940	0	36.7110	8	29.241	0	1152.655	0	12.6	4	4.0	4	-1E+10	1	-1E+10	1	-1E+10	1	-1E+10	1	-1E+10	1	-1E+10	1
4901784	160	C	11/21/2019	10:42	-132.759	43.651	0	1170.40	0	3.1830	0	36.7150	8	29.246	0	1157.785	0	12.7	4	4.0	4	-1E+10	1	-1E+10	1	-1E+10	1	-1E+10	1	-1E+10	1	-1E+10	1
4901784	160	C	11/21/2019	10:42	-132.759	43.651	0	1175.60	0	3.1720	0	36.7160	8	29.248	0	1162.914	0	12.9	4	4.1	4	-1E+10	1	-1E+10	1	-1E+10	1	-1E+10	1	-1E+10	1	-1E+10	1
4901784	160	C	11/21/2019	10:42	-132.759	43.651	0	1180.10	0	3.1620	0	36.7190	8	29.251	0	1167.353	0	13.0	4	4.1	4	-1E+10	1	-1E+10	1	-1E+10	1	-1E+10	1	-1E+10	1	-1E+10	1
4901784	160	C	11/21/2019	10:42	-132.759	43.651	0	1184.60	0	3.1530	0	36.7210	8	29.253	0	1171.792	0	13.1	4	4.1	4	-1E+10	1	-1E+10	1	-1E+10	1	-1E+10	1	-1E+10	1	-1E+10	1
4901784	160	C	11/21/2019	10:42	-132.759	43.651	0	1190.00	0	3.1440	0	36.7230	8	29.256	0	1177.119	0	13.2	4	4.2	4	-1E+10	1	-1E+10	1	-1E+10	1	-1E+10	1	-1E+10	1	-1E+10	1
4901784	160	C	11/21/2019	10:42	-132.759	43.651	0	1195.30	0	3.1380	0	36.7240	8	29.257	0	1182.347	0	13.3	4	4.2	4	-1E+10	1	-1E+10	1	-1E+10	1	-1E+10	1	-1E+10	1	-1E+10	1
4901784	160	C	11/21/2019	10:42	-132.759	43.651	0	1200.60	0	3.1340	0	36.7250	8	29.259	0	1187.574	0	13.4	4	4.2	4	-1E+10	1	-1E+10	1	-1E+10	1	-1E+10	1	-1E+10	1	-1E+10	1
4901784	160	C	11/21/2019	10:42	-132.759	43.651	0	1205.00	0	3.1300	0	36.7260	8	29.260	0	1191.914	0	13.4	4	4.2	4	-1E+10	1	-1E+10	1	-1E+10	1	-1E+10	1	-1E+10	1	-1E+10	1
4901784	160	C	11/21/2019	10:42	-132.759	43.651	0	1209.50	0	3.1220	0	36.7270	8	29.262	0	1196.352	0	13.5	4	4.3	4	-1E+10	1	-1E+10	1	-1E+10	1	-1E+10	1	-1E+10	1	-1E+10	1
4901784	160	C	11/21/2019	10:42	-132.759	43.651	0	1215.00	0	3.1130	0	36.7280	8	29.263	0	1201.777	0	13.6	4	4.3	4	-1E+10	1	-1E+10	1	-1E+10	1	-1E+10	1	-1E+10	1	-1E+10	1
4901784	160	C	11/21/2019	10:42	-132.759	43.651	0	1220.40	0	3.1090	0	36.7290	8	29.264	0	1207.103	0	13.8	4	4.3	4	-1E+10	1	-1E+10	1	-1E+10	1	-1E+10	1	-1E+10	1	-1E+10	1
4901784	160	C	11/21/2019	10:42	-132.759	43.651	0	1224.80	0	3.1020	0	36.7310	8	29.267	0	1211.442	0	13.9	4	4.4	4	-1E+10	1	-1E+10	1	-1E+10	1	-1E+10	1	-1E+10	1	-1E+10	1
4901784	160	C	11/21/2019	10:42	-132.759	43.651	0	1229.30	0	3.0910	0	36.7320	8	29.269	0	1215.880	0	14.0	4	4.4	4	-1E+10	1	-1E+10	1	-1E+10	1	-1E+10	1	-1E+10	1	-1E+10	1
4901784	160	C	11/21/2019	10:42	-132.759	43.651	0	1234.70	0	3.0770	0	36.7350	8	29.272	0	1221.205	0	14.2	4	4.5	4	-1E+10	1	-1E+10	1	-1E+10	1	-1E+10	1	-1E+10	1	-1E+10	1
4901784	160	C	11/21/2019	10:42	-132.759	43.651	0	1240.10	0	3.0670	0	36.7360	8	29.274	0	1226.530	0	14.3	4	4.5	4	-1E+10	1	-1E+10	1	-1E+10	1	-1E+10	1	-1E+10	1	-1E+10	1
4901784	160	C	11/21/2019	10:42	-132.759	43.651	0	1245.50	0	3.0510	0	36.7380	8	29.277	0	1231.856	0	14.5	4	4.6	4	-1E+10	1	-1E+10	1	-1E+10	1	-1E+10	1	-1E+10	1	-1E+10	1
4901784	160	C	11/21/2019	10:42	-132.759	43.651	0	1250.10	0	3.0450	0	36.7400	8	29.280	0	1236.392	0	14.6	4	4.6	4	-1E+10	1	-1E+10	1	-1E+10	1	-1E+10	1	-1E+10	1	-1E+10	1
4901784	160	C	11/21/2019	10:42	-132.759	43.651	0	1254.50	0	3.0360	0	36.7410	8	29.281	0	1240.730	0	14.7	4	4.6	4	-1E+10	1	-1E+10	1	-1E+10	1	-1E+10	1	-1E+10	1	-1E+10	1
4901784	160	C	11/21/2019	10:42	-132.759	43.651	0	1259.50	0	3.0270	0	36.7420	8	29.283	0	1245.661	0	14.9	4	4.7	4	-1E+10	1	-1E+10	1	-1E+10	1	-1E+10	1	-1E+10	1	-1E+10	1
4901784	160	C	11/21/2019	10:42	-132.759	43.651	0	1264.60	0	3.0180	0	36.7430	8	29.285	0	1250.690	0	15.0	4	4.7	4	-1E+10	1	-1E+10	1	-1E+10	1	-1E+10	1	-1E+10	1	-1E+10	1
4901784	160	C	11/21/2019	10:42	-132.759	43.651	0	1269.70	0	3.0090	0	36.7450	8	29.287	0	1255.718	0	15.1	4	4.8	4	-1E+10	1	-1E+10	1	-1E+10	1	-1E+10	1	-1E+10	1	-1E+10	1
4901784	160	C	11/21/2019	10:42	-132.759	43.651	0	1274.70	0	3.0010	0	36.7460	8	29.289	0	1260.648	0	15.3	4	4.8	4	-1E+10	1	-1E+10	1	-1E+10	1	-1E+10	1	-1E+10	1	-1E+10	1
4901784	160	C	11/21/2019	10:42	-132.759	43.651	0	1279.80	0	2.9880	0	36.7490	8	29.293	0	1265.677	0	15.5	4	4.9	4	-1E+10	1	-1E+10	1	-1E+10	1	-1E+10	1	-1E+10	1	-1E+10	1
4901784	160	C	11/21/2019	10:42	-132.759	43.651	0	1284.90	0	2.9820	0	36.7490	8	29.293	0	1270.705	0	15.6	4	4.9	4	-1E+10	1	-1E+10	1	-1E+10	1	-1E+10	1	-1E+10	1	-1E+10	1
4901784	160	C	11/21/2019	10:42	-132.759	43.651	0	1290.10	0	2.9730	0	36.7500	8	29.295	0	1275.832	0	15.8	4	5.0	4	-1E+10	1	-1E+10	1	-1E+10	1	-1E+10	1	-1E+10	1	-1E+10	1
4901784	160	C	11/21/2019	10:42	-132.759	43.651	0	1295.20	0	2.9620	0	36.7520	8	29.298	0	1280.860	0	16.0	4	5.0	4	-1E+10	1	-1E+10	1	-1E+10	1	-1E+10	1	-1E+10	1	-1E+10	1
4901784	160	C	11/21/2019	10:42	-132.759	43.651	0	1300.40	0	2.9490	0	36.7530	8	29.300	0	1285.987	0	16.1	4	5.1	4	-1E+10	1	-1E+10	1	-1E+10	1	-1E+10	1	-1E+10	1	-1E+10	1
4901784	160	C	11/21/2019	10:42	-132.759	43.651	0	1305.60	0	2.9380	0	36.7550	8	29.302	0	1291.113	0	16.3	4	5.1	4	-1E+10	1	-1E+10	1	-1E+10	1	-1E+10	1	-1E+10	1	-1E+10	1
4901784	160	C	11/21/2019	10:42	-132.759	43.651	0	1309.90	0	2.9300	0	36.7560	8	29.304	0	1295.352	0	16.5	4	5.2	4	-1E+10	1	-1E+10	1	-1E+10	1	-1E+10	1	-1E+10	1	-1E+10	1
4901784	160	C	11/21/2019	10:42	-132.759	43.651	0	1314.20	0	2.9150	0	36.7580	8	29.307	0	1299.591	0	16.7	4	5.2	4	-1E+10	1	-1E+10	1	-1E+10	1	-1E+10	1	-1E+10	1	-1E+10	1
4901784	160	C	11/21/2019	10:42	-132.759	43.651	0	1319.40	0	2.9050	0	36.7590	8	29.309	0	1304.717	0	16.8	4	5.3	4	-1E+10	1	-1E+10	1	-1E+10	1	-1E+10	1	-1E+10	1	-1E+10	1
4901784	160	C	11/21/2019	10:42	-132.759	43.651	0	1324.60	0	2.9020	0	36.7600	8	29.310	0	1309.843	0	16.9	4	5.3	4	-1E+10	1	-1E+10	1	-1E+10	1	-1E+10	1	-1E+10	1	-1E+10	1
4901784	160	C	11/21/2019	10:42	-132.759	43.651	0	1329.80	0	2.8880	0	36.7620	8	29.313	0	1314.969	0	17.1	4	5.4	4	-1E+10	1	-1E+10	1	-1E+10	1	-1E+10	1	-1E+10	1	-1E+10	1
4901784	160	C	11/21/2019	10:42	-132.759	43.651	0	1335.00	0	2.8810	0	36.7630	8	29.314	0	1320.095	0	17.3	4	5.4	4	-1E+10	1	-1E+10	1	-1E+10	1	-1E+10	1	-1E+10	1	-1E+10	1
4901784	160	C	11/21/2019	10:42	-132.759	43.651	0	1340.10	0	2.8740	0	36.7630	8	29.315	0	1325.122	0	17.4	4	5.5	4	-1E+10	1	-1E+10	1	-1E+10	1	-1E+10	1	-1E+10	1	-1E+10	1
4901784	160	C	11/21/2019	10:42	-132.759	43.651	0	1345.40	0	2.8650	0	36.7640	8	29.317	0	1330.346	0	17.6	4	5.5	4	-1E+10	1	-1E+10	1	-1E+10	1	-1E+10	1	-1E+10	1	-1E+10	1
4901784	160	C	11/21/2019	10:42	-132.759	43.651	0	1350.50	0	2.8520	0	36.7670	8	29.320	0	1335.373	0	17.8	4	5.6	4	-1E+10	1	-1E+10	1	-1E+10	1	-1E+10	1	-1E+10	1	-1E+10	1
4901784	160	C	11/21/2019	10:42	-132.759	43.651	0	1355.70	0	2.8430	0	36.7680	8	29.322	0	1340.498	0	18.1	4	5.7	4	-1E+10	1	-1E+10	1	-1E+10	1	-1E+10	1	-1E+10	1	-1E+10	1
4901784	160	C	11/21/2019	10:42	-132.759	43.651	0	1360.00	0	2.8310	0	36.7700	8	29.325	0	1344.736	0	18.2	4	5.7	4	-1E+10	1	-1E+10	1	-1E+10	1	-1E+10	1	-1E+10	1	-1E+10	1
4901784	160	C	11/21/2019	10:42	-132.759	43.651	0	1364.30	0	2.8180	0	36.7710	8	29.327	0	1348.974	0	18.4	4	5.7	4	-1E+10	1	-1E+10	1	-1E+10	1	-1E+10	1	-1E+10	1	-1E+10	1
4901784	160	C	11/21/2019	10:42	-132.759	43.651	0	1369.50	0	2.8110	0	36.7720	8	29.328	0	1354.099	0	18.6	4	5.8	4	-1E+10	1	-1E+10	1	-1E+10	1	-1E+10	1	-1E+10	1	-1E+10	1
4901784	160	C	11/21/2019	10:42	-132.759	43.651	0	1374.60	0	2.7980	0	36.7730	8	29.330	0	1359.125	0	18.8	4	5.9	4	-1E+10	1	-1E+10	1	-1E+10	1	-1E+10	1	-1E+10	1	-1E+10	1
4901784	160	C	11/21/2019	10:42	-132.759	43.651	0	1379.90	0	2.7880	0	36.7750	8	29.333	0	1364.348	0	18.9	4	5.9	4	-1E+10	1	-1E+10	1	-1E+10	1	-1E+10	1	-1E+10	1	-1E+10	1
4901784	160	C	11/21/2019	10:42	-132.759	43.651	0	1385.10	0	2.7840	0	36.7750	8	29.333	0	1369.473	0	19.1	4	6.0	4	-1E+10	1	-1E+10	1	-1E+10	1	-1E+10	1	-1E+10	1	-1E+10	1
4901784	160	C	11/21/2019	10:42	-132.759	43.651	0	1390.40	0	2.7790	0	36.7760	8	29.335	0	1374.696	0	19.3	4	6.0	4	-1E+10	1	-1E+10	1	-1E+10	1	-1E+10	1	-1E+10	1	-1E+10	1
4901784	160	C	11/21/2019	10:42	-132.759	43.651	0	1395.70	0	2.7710	0	36.7780	8	29.337	0	1379.918	0	19.5	4	6.1	4	-1E+10	1	-1E+10	1	-1E+10	1	-1E+10	1	-1E+10	1	-1E+10	1
4901784	160	C	11/21/2019	10:42	-132.759	43.651	0	1400.20	0	2.7620	0	36.7790	8	29.339	0	1384.353	0	19.7	4	6.2	4	-1E+10	1	-1E+10	1	-1E+10	1	-1E+10	1	-1E+10	1	-1E+10	1
4901784	160	C	11/21/2019	10:42	-132.759	43.651	0	1404.60	0	2.7530	0	36.7800	8	29.340	0	1388.689	0	19.9	4	6.2	4	-1E+10	1	-1E+10	1	-1E+10	1	-1E+10	1	-1E+10	1	-1E+10	1
4901784	160	C	11/21/2019	10:42	-132.759	43.651	0	1410.00	0	2.7440	0	36.7810	8	29.342	0	1394.010	0	20.1	4	6.3	4	-1E+10	1	-1E+10	1	-1E+10	1	-1E+10	1	-1E+10	1	-1E+10	1
4901784	160	C	11/21/2019	10:42	-132.759	43.651	0	1415.40	0	2.7360	0	36.7820	8	29.344	0	1399.330	0	20.4	4	6.4	4	-1E+10	1	-1E+10	1	-1E+10	1	-1E+10	1	-1E+10	1	-1E+10	1
4901784	160	C	11/21/2019	10:42	-132.759	43.651	0	1420.00	0	2.7260	0	36.7840	8	29.346	0	1403.863	0	20.7	4	6.5	4	-1E+10	1	-1E+10	1	-1E+10	1	-1E+10	1	-1E+10	1	-1E+10	1
4901784	160	C	11/21/2019	10:42	-132.759	43.651	0	1424.60	0	2.7150	0	36.7850	8	29.348	0	1408.395	0	21.0	4	6.5	4	-1E+10	1	-1E+10	1	-1E+10	1	-1E+10	1	-1E+10	1	-1E+10	1
4901784	160	C	11/21/2019	10:42	-132.759	43.651	0	1430.00	0	2.7020	0	36.7870	8	29.351	0	1413.716	0	21.3	4	6.7	4	-1E+10	1	-1E+10	1	-1E+10	1	-1E+10	1	-1E+10	1	-1E+10	1
4901784	160	C	11/21/2019	10:42	-132.759	43.651	0	1435.50	0	2.6890	0	36.7890	8	29.354	0	1419.135	0	21.7	4	6.8	4	-1E+10	1	-1E+10	1	-1E+10	1	-1E+10	1	-1E+10	1	-1E+10	1
4901784	160	C	11/21/2019	10:42	-132.759	43.651	0	1440.10	0	2.6790	0	36.7910	8	29.356	0	1423.667	0	21.9	4	6.8	4	-1E+10	1	-1E+10	1	-1E+10	1	-1E+10	1	-1E+10	1	-1E+10	1
4901784	160	C	11/21/2019	10:42	-132.759	43.651	0	1444.70	0	2.6690	0	36.7920	8	29.358	0	1428.199	0	22.2	4	6.9	4	-1E+10	1	-1E+10	1	-1E+10	1	-1E+10	1	-1E+10	1	-1E+10	1
4901784	160	C	11/21/2019	10:42	-132.759	43.651	0	1450.20	0	2.6640	0	36.7930	8	29.359	0	1433.617	0	22.4	4	7.0	4	-1E+10	1	-1E+10	1	-1E+10	1	-1E+10	1	-1E+10	1	-1E+10	1
4901784	160	C	11/21/2019	10:42	-132.759	43.651	0	1454.80	0	2.6540	0	36.7950	8	29.362	0	1438.149	0	22.7	4	7.1	4	-1E+10	1	-1E+10	1	-1E+10	1	-1E+10	1	-1E+10	1	-1E+10	1
4901784	160	C	11/21/2019	10:42	-132.759	43.651	0	1459.20	0	2.6500	0	36.7950	8	29.362	0	1442.484	0	22.9	4	7.1	4	-1E+10	1	-1E+10	1	-1E+10	1	-1E+10	1	-1E+10	1	-1E+10	1
4901784	160	C	11/21/2019	10:42	-132.759	43.651	0	1464.50	0	2.6420	0	36.7960	8	29.364	0	1447.705	0	23.2	4	7.2	4	-1E+10	1	-1E+10	1	-1E+10	1	-1E+10	1	-1E+10	1	-1E+10	1
4901784	160	C	11/21/2019	10:42	-132.759	43.651	0	1470.10	0	2.6310	0	36.7980	8	29.367	0	1453.221	0	23.6	4	7.3	4	-1E+10	1	-1E+10	1	-1E+10	1	-1E+10	1	-1E+10	1	-1E+10	1
4901784	160	C	11/21/2019	10:42	-132.759	43.651	0	1475.60	0	2.6190	0	36.8000	8	29.369	0	1458.639	0	24.0	4	7.5	4	-1E+10	1	-1E+10	1	-1E+10	1	-1E+10	1	-1E+10	1	-1E+10	1
4901784	160	C	11/21/2019	10:42	-132.759	43.651	0	1480.50	0	2.6050	0	36.8020	8	29.372	0	1463.466	0	24.4	4	7.6	4	-1E+10	1	-1E+10	1	-1E+10	1	-1E+10	1	-1E+10	1	-1E+10	1
4901784	160	C	11/21/2019	10:42	-132.759	43.651	0	1485.50	0	2.5950	0	36.8030	8	29.374	0	1468.391	0	24.7	4	7.7	4	-1E+10	1	-1E+10	1	-1E+10	1	-1E+10	1	-1E+10	1	-1E+10	1
4901784	160	C	11/21/2019	10:42	-132.759	43.651	0	1490.40	0	2.5870	0	36.8050	8	29.376	0	1473.217	0	24.9	4	7.8	4	-1E+10	1	-1E+10	1	-1E+10	1	-1E+10	1	-1E+10	1	-1E+10	1
4901784	160	C	11/21/2019	10:42	-132.759	43.651	0	1495.30	0	2.5800	0	36.8060	8	29.378	0	1478.044	0	25.1	4	7.8	4	-1E+10	1	-1E+10	1	-1E+10	1	-1E+10	1	-1E+10	1	-1E+10	1
4901784	160	C	11/21/2019	10:42	-132.759	43.651	0	1500.30	0	2.5730	0	36.8070	8	29.379	0	1482.969	0	25.4	4	7.9	4	-1E+10	1	-1E+10	1	-1E+10	1	-1E+10	1	-1E+10	1	-1E+10	1
4901784	160	C	11/21/2019	10:42	-132.759	43.651	0	1505.30	0	2.5680	0	36.8080	8	29.381	0	1487.893	0	25.7	4	8.0	4	-1E+10	1	-1E+10	1	-1E+10	1	-1E+10	1	-1E+10	1	-1E+10	1
4901784	160	C	11/21/2019	10:42	-132.759	43.651	0	1510.30	0	2.5530	0	36.8100	8	29.384	0	1492.818	0	26.1	4	8.1	4	-1E+10	1	-1E+10	1	-1E+10	1	-1E+10	1	-1E+10	1	-1E+10	1
4901784	160	C	11/21/2019	10:42	-132.759	43.651	0	1515.40	0	2.5390	0	36.8120	8	29.386	0	1497.841	0	26.4	4	8.2	4	-1E+10	1	-1E+10	1	-1E+10	1	-1E+10	1	-1E+10	1	-1E+10	1
4901784	160	C	11/21/2019	10:42	-132.759	43.651	0	1520.50	0	2.5320	0	36.8130	8	29.388	0	1502.863	0	26.7	4	8.3	4	-1E+10	1	-1E+10	1	-1E+10	1	-1E+10	1	-1E+10	1	-1E+10	1
4901784	160	C	11/21/2019	10:42	-132.759	43.651	0	1525.60	0	2.5290	0	36.8130	8	29.388	0	1507.886	0	26.9	4	8.4	4	-1E+10	1	-1E+10	1	-1E+10	1	-1E+10	1	-1E+10	1	-1E+10	1
4901784	160	C	11/21/2019	10:42	-132.759	43.651	0	1530.70	0	2.5170	0	36.8140	8	29.390	0	1512.909	0	27.3	4	8.5	4	-1E+10	1	-1E+10	1	-1E+10	1	-1E+10	1	-1E+10	1	-1E+10	1
4901784	160	C	11/21/2019	10:42	-132.759	43.651	0	1535.10	0	2.5090	0	36.8150	8	29.392	0	1517.242	0	27.6	4	8.6	4	-1E+10	1	-1E+10	1	-1E+10	1	-1E+10	1	-1E+10	1	-1E+10	1
4901784	160	C	11/21/2019	10:42	-132.759	43.651	0	1539.40	0	2.4990	0	36.8160	8	29.393	0	1521.476	0	28.0	4	8.7	4	-1E+10	1	-1E+10	1	-1E+10	1	-1E+10	1	-1E+10	1	-1E+10	1
4901784	160	C	11/21/2019	10:42	-132.759	43.651	0	1544.70	0	2.4900	0	36.8180	8	29.396	0	1526.695	0	28.3	4	8.8	4	-1E+10	1	-1E+10	1	-1E+10	1	-1E+10	1	-1E+10	1	-1E+10	1
4901784	160	C	11/21/2019	10:42	-132.759	43.651	0	1550.00	0	2.4850	0	36.8180	8	29.396	0	1531.914	0	28.6	4	8.9	4	-1E+10	1	-1E+10	1	-1E+10	1	-1E+10	1	-1E+10	1	-1E+10	1
4901784	160	C	11/21/2019	10:42	-132.759	43.651	0	1555.30	0	2.4740	0	36.8200	8	29.399	0	1537.133	0	29.0	4	9.0	4	-1E+10	1	-1E+10	1	-1E+10	1	-1E+10	1	-1E+10	1	-1E+10	1
4901784	160	C	11/21/2019	10:42	-132.759	43.651	0	1560.70	0	2.4670	0	36.8210	8	29.400	0	1542.451	0	29.2	4	9.1	4	-1E+10	1	-1E+10	1	-1E+10	1	-1E+10	1	-1E+10	1	-1E+10	1
4901784	160	C	11/21/2019	10:42	-132.759	43.651	0	1565.10	0	2.4620	0	36.8220	8	29.402	0	1546.783	0	29.5	4	9.2	4	-1E+10	1	-1E+10	1	-1E+10	1	-1E+10	1	-1E+10	1	-1E+10	1
4901784	160	C	11/21/2019	10:42	-132.759	43.651	0	1569.60	0	2.4500	0	36.8230	8	29.404	0	1551.214	0	29.8	4	9.2	4	-1E+10	1	-1E+10	1	-1E+10	1	-1E+10	1	-1E+10	1	-1E+10	1
4901784	160	C	11/21/2019	10:42	-132.759	43.651	0	1575.00	0	2.4440	0	36.8240	8	29.405	0	1556.531	0	30.0	4	9.3	4	-1E+10	1	-1E+10	1	-1E+10	1	-1E+10	1	-1E+10	1	-1E+10	1
4901784	160	C	11/21/2019	10:42	-132.759	43.651	0	1580.40	0	2.4380	0	36.8250	8	29.406	0	1561.848	0	30.3	4	9.4	4	-1E+10	1	-1E+10	1	-1E+10	1	-1E+10	1	-1E+10	1	-1E+10	1
4901784	160	C	11/21/2019	10:42	-132.759	43.651	0	1585.00	0	2.4340	0	36.8260	8	29.408	0	1566.377	0	30.5	4	9.5	4	-1E+10	1	-1E+10	1	-1E+10	1	-1E+10	1	-1E+10	1	-1E+10	1
4901784	160	C	11/21/2019	10:42	-132.759	43.651	0	1590.20	0	2.4260	0	36.8270	8	29.409	0	1571.496	0	30.8	4	9.5	4	-1E+10	1	-1E+10	1	-1E+10	1	-1E+10	1	-1E+10	1	-1E+10	1
4901784	160	C	11/21/2019	10:42	-132.759	43.651	0	1595.30	0	2.4210	0	36.8270	8	29.410	0	1576.517	0	31.1	4	9.6	4	-1E+10	1	-1E+10	1	-1E+10	1	-1E+10	1	-1E+10	1	-1E+10	1
4901784	160	C	11/21/2019	10:42	-132.759	43.651	0	1600.10	0	2.4110	0	36.8290	8	29.412	0	1581.243	0	31.4	4	9.7	4	-1E+10	1	-1E+10	1	-1E+10	1	-1E+10	1	-1E+10	1	-1E+10	1
4901784	160	C	11/21/2019	10:42	-132.759	43.651	0	1605.00	0	2.4020	0	36.8300	8	29.414	0	1586.067	0	31.7	4	9.8	4	-1E+10	1	-1E+10	1	-1E+10	1	-1E+10	1	-1E+10	1	-1E+10	1
4901784	160	C	11/21/2019	10:42	-132.759	43.651	0	1609.90	0	2.3970	0	36.8310	8	29.415	0	1590.891	0	32.0	4	9.9	4	-1E+10	1	-1E+10	1	-1E+10	1	-1E+10	1	-1E+10	1	-1E+10	1
4901784	160	C	11/21/2019	10:42	-132.759	43.651	0	1614.70	0	2.3880	0	36.8320	8	29.417	0	1595.616	0	32.3	4	10.0	4	-1E+10	1	-1E+10	1	-1E+10	1	-1E+10	1	-1E+10	1	-1E+10	1
4901784	160	C	11/21/2019	10:42	-132.759	43.651	0	1619.60	0	2.3780	0	36.8330	8	29.418	0	1600.439	0	32.8	4	10.2	4	-1E+10	1	-1E+10	1	-1E+10	1	-1E+10	1	-1E+10	1	-1E+10	1
4901784	160	C	11/21/2019	10:42	-132.759	43.651	0	1624.60	0	2.3660	0	36.8350	8	29.421	0	1605.361	0	33.2	4	10.3	4	-1E+10	1	-1E+10	1	-1E+10	1	-1E+10	1	-1E+10	1	-1E+10	1
4901784	160	C	11/21/2019	10:42	-132.759	43.651	0	1629.50	0	2.3570	0	36.8360	8	29.423	0	1610.185	0	33.6	4	10.4	4	-1E+10	1	-1E+10	1	-1E+10	1	-1E+10	1	-1E+10	1	-1E+10	1
4901784	160	C	11/21/2019	10:42	-132.759	43.651	0	1634.50	0	2.3510	0	36.8380	8	29.425	0	1615.106	0	33.9	4	10.5	4	-1E+10	1	-1E+10	1	-1E+10	1	-1E+10	1	-1E+10	1	-1E+10	1
4901784	160	C	11/21/2019	10:42	-132.759	43.651	0	1639.50	0	2.3470	0	36.8390	8	29.426	0	1620.028	0	34.1	4	10.6	4	-1E+10	1	-1E+10	1	-1E+10	1	-1E+10	1	-1E+10	1	-1E+10	1
4901784	160	C	11/21/2019	10:42	-132.759	43.651	0	1644.50	0	2.3400	0	36.8400	8	29.427	0	1624.949	0	34.5	4	10.7	4	-1E+10	1	-1E+10	1	-1E+10	1	-1E+10	1	-1E+10	1	-1E+10	1
4901784	160	C	11/21/2019	10:42	-132.759	43.651	0	1649.60	0	2.3240	0	36.8410	8	29.430	0	1629.969	0	35.1	4	10.8	4	-1E+10	1	-1E+10	1	-1E+10	1	-1E+10	1	-1E+10	1	-1E+10	1
4901784	160	C	11/21/2019	10:42	-132.759	43.651	0	1654.80	0	2.3120	0	36.8440	8	29.433	0	1635.087	0	35.4	4	11.0	4	-1E+10	1	-1E+10	1	-1E+10	1	-1E+10	1	-1E+10	1	-1E+10	1
4901784	160	C	11/21/2019	10:42	-132.759	43.651	0	1659.90	0	2.3060	0	36.8450	8	29.435	0	1640.107	0	35.7	4	11.0	4	-1E+10	1	-1E+10	1	-1E+10	1	-1E+10	1	-1E+10	1	-1E+10	1
4901784	160	C	11/21/2019	10:42	-132.759	43.651	0	1665.10	0	2.3010	0	36.8450	8	29.435	0	1645.224	0	36.0	4	11.1	4	-1E+10	1	-1E+10	1	-1E+10	1	-1E+10	1	-1E+10	1	-1E+10	1
4901784	160	C	11/21/2019	10:42	-132.759	43.651	0	1670.40	0	2.2910	0	36.8460	8	29.437	0	1650.441	0	36.3	4	11.2	4	-1E+10	1	-1E+10	1	-1E+10	1	-1E+10	1	-1E+10	1	-1E+10	1
4901784	160	C	11/21/2019	10:42	-132.759	43.651	0	1675.70	0	2.2840	0	36.8470	8	29.438	0	1655.657	0	36.6	4	11.3	4	-1E+10	1	-1E+10	1	-1E+10	1	-1E+10	1	-1E+10	1	-1E+10	1
4901784	160	C	11/21/2019	10:42	-132.759	43.651	0	1680.10	0	2.2780	0	36.8480	8	29.440	0	1659.987	0	37.0	4	11.4	4	-1E+10	1	-1E+10	1	-1E+10	1	-1E+10	1	-1E+10	1	-1E+10	1
4901784	160	C	11/21/2019	10:42	-132.759	43.651	0	1684.50	0	2.2720	0	36.8490	8	29.441	0	1664.317	0	37.3	4	11.5	4	-1E+10	1	-1E+10	1	-1E+10	1	-1E+10	1	-1E+10	1	-1E+10	1
4901784	160	C	11/21/2019	10:42	-132.759	43.651	0	1689.90	0	2.2620	0	36.8500	8	29.443	0	1669.631	0	37.7	4	11.6	4	-1E+10	1	-1E+10	1	-1E+10	1	-1E+10	1	-1E+10	1	-1E+10	1
4901784	160	C	11/21/2019	10:42	-132.759	43.651	0	1695.30	0	2.2540	0	36.8510	8	29.444	0	1674.945	0	38.2	4	11.8	4	-1E+10	1	-1E+10	1	-1E+10	1	-1E+10	1	-1E+10	1	-1E+10	1
4901784	160	C	11/21/2019	10:42	-132.759	43.651	0	1699.90	0	2.2460	0	36.8520	8	29.446	0	1679.471	0	38.5	4	11.9	4	-1E+10	1	-1E+10	1	-1E+10	1	-1E+10	1	-1E+10	1	-1E+10	1
4901784	160	C	11/21/2019	10:42	-132.759	43.651	0	1704.70	0	2.2390	0	36.8540	8	29.448	0	1684.195	0	39.0	4	12.0	4	-1E+10	1	-1E+10	1	-1E+10	1	-1E+10	1	-1E+10	1	-1E+10	1
4901784	160	C	11/21/2019	10:42	-132.759	43.651	0	1709.80	0	2.2310	0	36.8560	8	29.450	0	1689.213	0	39.6	4	12.2	4	-1E+10	1	-1E+10	1	-1E+10	1	-1E+10	1	-1E+10	1	-1E+10	1
4901784	160	C	11/21/2019	10:42	-132.759	43.651	0	1714.60	0	2.2270	0	36.8570	8	29.451	0	1693.936	0	40.0	4	12.3	4	-1E+10	1	-1E+10	1	-1E+10	1	-1E+10	1	-1E+10	1	-1E+10	1
4901784	160	C	11/21/2019	10:42	-132.759	43.651	0	1719.50	0	2.2200	0	36.8580	8	29.453	0	1698.757	0	40.5	4	12.5	4	-1E+10	1	-1E+10	1	-1E+10	1	-1E+10	1	-1E+10	1	-1E+10	1
4901784	160	C	11/21/2019	10:42	-132.759	43.651	0	1724.40	0	2.2120	0	36.8590	8	29.454	0	1703.579	0	40.8	4	12.6	4	-1E+10	1	-1E+10	1	-1E+10	1	-1E+10	1	-1E+10	1	-1E+10	1
4901784	160	C	11/21/2019	10:42	-132.759	43.651	0	1729.30	0	2.2030	0	36.8600	8	29.456	0	1708.400	0	41.2	4	12.7	4	-1E+10	1	-1E+10	1	-1E+10	1	-1E+10	1	-1E+10	1	-1E+10	1
4901784	160	C	11/21/2019	10:42	-132.759	43.651	0	1735.00	0	2.1950	0	36.8610	8	29.458	0	1714.008	0	41.6	4	12.8	4	-1E+10	1	-1E+10	1	-1E+10	1	-1E+10	1	-1E+10	1	-1E+10	1
4901784	160	C	11/21/2019	10:42	-132.759	43.651	0	1740.80	0	2.1890	0	36.8620	8	29.459	0	1719.714	0	41.9	4	12.9	4	-1E+10	1	-1E+10	1	-1E+10	1	-1E+10	1	-1E+10	1	-1E+10	1
4901784	160	C	11/21/2019	10:42	-132.759	43.651	0	1745.80	0	2.1860	0	36.8630	8	29.460	0	1724.633	0	42.2	4	13.0	4	-1E+10	1	-1E+10	1	-1E+10	1	-1E+10	1	-1E+10	1	-1E+10	1
4901784	160	C	11/21/2019	10:42	-132.759	43.651	0	1750.80	0	2.1800	0	36.8630	8	29.461	0	1729.552	0	42.5	4	13.1	4	-1E+10	1	-1E+10	1	-1E+10	1	-1E+10	1	-1E+10	1	-1E+10	1
4901784	160	C	11/21/2019	10:42	-132.759	43.651	0	1755.00	0	2.1750	0	36.8650	8	29.463	0	1733.684	0	42.8	4	13.2	4	-1E+10	1	-1E+10	1	-1E+10	1	-1E+10	1	-1E+10	1	-1E+10	1
4901784	160	C	11/21/2019	10:42	-132.759	43.651	0	1759.30	0	2.1710	0	36.8650	8	29.463	0	1737.914	0	43.0	4	13.2	4	-1E+10	1	-1E+10	1	-1E+10	1	-1E+10	1	-1E+10	1	-1E+10	1
4901784	160	C	11/21/2019	10:42	-132.759	43.651	0	1764.40	0	2.1670	0	36.8660	8	29.464	0	1742.931	0	43.2	4	13.3	4	-1E+10	1	-1E+10	1	-1E+10	1	-1E+10	1	-1E+10	1	-1E+10	1
4901784	160	C	11/21/2019	10:42	-132.759	43.651	0	1769.60	0	2.1630	0	36.8660	8	29.464	0	1748.047	0	43.4	4	13.4	4	-1E+10	1	-1E+10	1	-1E+10	1	-1E+10	1	-1E+10	1	-1E+10	1
4901784	160	C	11/21/2019	10:42	-132.759	43.651	0	1774.90	0	2.1610	0	36.8670	8	29.466	0	1753.260	0	43.6	4	13.4	4	-1E+10	1	-1E+10	1	-1E+10	1	-1E+10	1	-1E+10	1	-1E+10	1
4901784	160	C	11/21/2019	10:42	-132.759	43.651	0	1780.10	0	2.1580	0	36.8670	8	29.466	0	1758.375	0	43.9	4	13.5	4	-1E+10	1	-1E+10	1	-1E+10	1	-1E+10	1	-1E+10	1	-1E+10	1
4901784	160	C	11/21/2019	10:42	-132.759	43.651	0	1785.30	0	2.1500	0	36.8680	8	29.467	0	1763.490	0	44.3	4	13.6	4	-1E+10	1	-1E+10	1	-1E+10	1	-1E+10	1	-1E+10	1	-1E+10	1
4901784	160	C	11/21/2019	10:42	-132.759	43.651	0	1790.50	0	2.1430	0	36.8690	8	29.469	0	1768.605	0	44.7	4	13.8	4	-1E+10	1	-1E+10	1	-1E+10	1	-1E+10	1	-1E+10	1	-1E+10	1
4901784	160	C	11/21/2019	10:42	-132.759	43.651	0	1794.90	0	2.1400	0	36.8690	8	29.469	0	1772.933	0	45.1	4	13.9	4	-1E+10	1	-1E+10	1	-1E+10	1	-1E+10	1	-1E+10	1	-1E+10	1
4901784	160	C	11/21/2019	10:42	-132.759	43.651	0	1799.30	0	2.1290	0	36.8710	8	29.472	0	1777.261	0	45.5	4	14.0	4	-1E+10	1	-1E+10	1	-1E+10	1	-1E+10	1	-1E+10	1	-1E+10	1
4901784	160	C	11/21/2019	10:42	-132.759	43.651	0	1804.60	0	2.1170	0	36.8730	8	29.474	0	1782.474	0	46.0	4	14.1	4	-1E+10	1	-1E+10	1	-1E+10	1	-1E+10	1	-1E+10	1	-1E+10	1
4901784	160	C	11/21/2019	10:42	-132.759	43.651	0	1809.80	0	2.1130	0	36.8730	8	29.475	0	1787.588	0	46.2	4	14.2	4	-1E+10	1	-1E+10	1	-1E+10	1	-1E+10	1	-1E+10	1	-1E+10	1
4901784	160	C	11/21/2019	10:42	-132.759	43.651	0	1815.10	0	2.1070	0	36.8740	8	29.476	0	1792.801	0	46.6	4	14.4	4	-1E+10	1	-1E+10	1	-1E+10	1	-1E+10	1	-1E+10	1	-1E+10	1
4901784	160	C	11/21/2019	10:42	-132.759	43.651	0	1820.40	0	2.0960	0	36.8750	8	29.478	0	1798.013	0	47.1	4	14.5	4	-1E+10	1	-1E+10	1	-1E+10	1	-1E+10	1	-1E+10	1	-1E+10	1
4901784	160	C	11/21/2019	10:42	-132.759	43.651	0	1825.70	0	2.0900	0	36.8760	8	29.479	0	1803.225	0	47.6	4	14.7	4	-1E+10	1	-1E+10	1	-1E+10	1	-1E+10	1	-1E+10	1	-1E+10	1
4901784	160	C	11/21/2019	10:42	-132.759	43.651	0	1830.10	0	2.0810	0	36.8780	8	29.481	0	1807.553	0	48.2	4	14.8	4	-1E+10	1	-1E+10	1	-1E+10	1	-1E+10	1	-1E+10	1	-1E+10	1
4901784	160	C	11/21/2019	10:42	-132.759	43.651	0	1834.60	0	2.0760	0	36.8780	8	29.482	0	1811.978	0	48.4	4	14.9	4	-1E+10	1	-1E+10	1	-1E+10	1	-1E+10	1	-1E+10	1	-1E+10	1
4901784	160	C	11/21/2019	10:42	-132.759	43.651	0	1839.90	0	2.0730	0	36.8790	8	29.483	0	1817.190	0	48.9	4	15.0	4	-1E+10	1	-1E+10	1	-1E+10	1	-1E+10	1	-1E+10	1	-1E+10	1
4901784	160	C	11/21/2019	10:42	-132.759	43.651	0	1845.30	0	2.0640	0	36.8860	8	29.489	0	1822.500	0	49.4	4	15.2	4	-1E+10	1	-1E+10	1	-1E+10	1	-1E+10	1	-1E+10	1	-1E+10	1
4901784	160	C	11/21/2019	10:42	-132.759	43.651	0	1849.80	0	2.0570	0	36.8880	8	29.492	0	1826.925	0	49.8	4	15.3	4	-1E+10	1	-1E+10	1	-1E+10	1	-1E+10	1	-1E+10	1	-1E+10	1
4901784	160	C	11/21/2019	10:42	-132.759	43.651	0	1854.30	0	2.0460	0	36.8900	8	29.494	0	1831.350	0	50.1	4	15.4	4	-1E+10	1	-1E+10	1	-1E+10	1	-1E+10	1	-1E+10	1	-1E+10	1
4901784	160	C	11/21/2019	10:42	-132.759	43.651	0	1860.10	0	2.0430	0	36.8900	8	29.495	0	1837.053	0	50.3	4	15.5	4	-1E+10	1	-1E+10	1	-1E+10	1	-1E+10	1	-1E+10	1	-1E+10	1
4901784	160	C	11/21/2019	10:42	-132.759	43.651	0	1865.20	0	2.0410	0	36.8900	8	29.495	0	1842.068	0	50.5	4	15.5	4	-1E+10	1	-1E+10	1	-1E+10	1	-1E+10	1	-1E+10	1	-1E+10	1
4901784	160	C	11/21/2019	10:42	-132.759	43.651	0	1869.90	0	2.0370	0	36.8910	8	29.496	0	1846.690	0	50.7	4	15.6	4	-1E+10	1	-1E+10	1	-1E+10	1	-1E+10	1	-1E+10	1	-1E+10	1
4901784	160	C	11/21/2019	10:42	-132.759	43.651	0	1874.70	0	2.0290	0	36.8920	8	29.497	0	1851.409	0	51.0	4	15.7	4	-1E+10	1	-1E+10	1	-1E+10	1	-1E+10	1	-1E+10	1	-1E+10	1
4901784	160	C	11/21/2019	10:42	-132.759	43.651	0	1879.50	0	2.0250	0	36.8920	8	29.498	0	1856.128	0	51.3	4	15.7	4	-1E+10	1	-1E+10	1	-1E+10	1	-1E+10	1	-1E+10	1	-1E+10	1
4901784	160	C	11/21/2019	10:42	-132.759	43.651	0	1884.40	0	2.0160	0	36.8930	8	29.499	0	1860.946	0	51.6	4	15.8	4	-1E+10	1	-1E+10	1	-1E+10	1	-1E+10	1	-1E+10	1	-1E+10	1
4901784	160	C	11/21/2019	10:42	-132.759	43.651	0	1890.10	0	2.0120	0	36.8940	8	29.501	0	1866.550	0	52.0	4	16.0	4	-1E+10	1	-1E+10	1	-1E+10	1	-1E+10	1	-1E+10	1	-1E+10	1
4901784	160	C	11/21/2019	10:42	-132.759	43.651	0	1895.80	0	2.0060	0	36.8950	8	29.502	0	1872.154	0	52.4	4	16.1	4	-1E+10	1	-1E+10	1	-1E+10	1	-1E+10	1	-1E+10	1	-1E+10	1
4901784	160	C	11/21/2019	10:42	-132.759	43.651	0	1900.70	0	2.0040	0	36.8960	8	29.503	0	1876.971	0	52.6	4	16.2	4	-1E+10	1	-1E+10	1	-1E+10	1	-1E+10	1	-1E+10	1	-1E+10	1
4901784	160	C	11/21/2019	10:42	-132.759	43.651	0	1905.70	0	2.0020	0	36.8960	8	29.503	0	1881.887	0	52.9	4	16.2	4	-1E+10	1	-1E+10	1	-1E+10	1	-1E+10	1	-1E+10	1	-1E+10	1
4901784	160	C	11/21/2019	10:42	-132.759	43.651	0	1910.70	0	1.9980	0	36.8970	8	29.504	0	1886.802	0	53.2	4	16.3	4	-1E+10	1	-1E+10	1	-1E+10	1	-1E+10	1	-1E+10	1	-1E+10	1
4901784	160	C	11/21/2019	10:42	-132.759	43.651	0	1915.70	0	1.9940	0	36.8980	8	29.505	0	1891.717	0	53.5	4	16.4	4	-1E+10	1	-1E+10	1	-1E+10	1	-1E+10	1	-1E+10	1	-1E+10	1
4901784	160	C	11/21/2019	10:42	-132.759	43.651	0	1920.80	0	1.9880	0	36.8990	8	29.507	0	1896.731	0	53.9	4	16.5	4	-1E+10	1	-1E+10	1	-1E+10	1	-1E+10	1	-1E+10	1	-1E+10	1
4901784	160	C	11/21/2019	10:42	-132.759	43.651	0	1925.00	0	1.9850	0	36.8990	8	29.507	0	1900.860	0	54.0	4	16.6	4	-1E+10	1	-1E+10	1	-1E+10	1	-1E+10	1	-1E+10	1	-1E+10	1
4901784	160	C	11/21/2019	10:42	-132.759	43.651	0	1929.30	0	1.9830	0	36.9000	8	29.508	0	1905.086	0	54.2	4	16.6	4	-1E+10	1	-1E+10	1	-1E+10	1	-1E+10	1	-1E+10	1	-1E+10	1
4901784	160	C	11/21/2019	10:42	-132.759	43.651	0	1934.40	0	1.9800	0	36.9000	8	29.508	0	1910.100	0	54.5	4	16.7	4	-1E+10	1	-1E+10	1	-1E+10	1	-1E+10	1	-1E+10	1	-1E+10	1
4901784	160	C	11/21/2019	10:42	-132.759	43.651	0	1939.50	0	1.9770	0	36.9000	8	29.509	0	1915.113	0	54.8	4	16.8	4	-1E+10	1	-1E+10	1	-1E+10	1	-1E+10	1	-1E+10	1	-1E+10	1
4901784	160	C	11/21/2019	10:42	-132.759	43.651	0	1944.70	0	1.9720	0	36.9010	8	29.510	0	1920.224	0	55.1	4	16.9	4	-1E+10	1	-1E+10	1	-1E+10	1	-1E+10	1	-1E+10	1	-1E+10	1
4901784	160	C	11/21/2019	10:42	-132.759	43.651	0	1949.90	0	1.9670	0	36.9020	8	29.511	0	1925.335	0	55.5	4	17.0	4	-1E+10	1	-1E+10	1	-1E+10	1	-1E+10	1	-1E+10	1	-1E+10	1
4901784	160	C	11/21/2019	10:42	-132.759	43.651	0	1955.00	0	1.9630	0	36.9030	8	29.512	0	1930.347	0	55.9	4	17.2	4	-1E+10	1	-1E+10	1	-1E+10	1	-1E+10	1	-1E+10	1	-1E+10	1
4901784	160	C	11/21/2019	10:42	-132.759	43.651	0	1960.30	0	1.9580	0	36.9040	8	29.514	0	1935.557	0	56.3	4	17.3	4	-1E+10	1	-1E+10	1	-1E+10	1	-1E+10	1	-1E+10	1	-1E+10	1
4901784	160	C	11/21/2019	10:42	-132.759	43.651	0	1965.50	0	1.9520	0	36.9050	8	29.515	0	1940.667	0	56.5	4	17.3	4	-1E+10	1	-1E+10	1	-1E+10	1	-1E+10	1	-1E+10	1	-1E+10	1
4901784	160	C	11/21/2019	10:42	-132.759	43.651	0	1969.90	0	1.9520	0	36.9050	8	29.515	0	1944.992	0	56.6	4	17.4	4	-1E+10	1	-1E+10	1	-1E+10	1	-1E+10	1	-1E+10	1	-1E+10	1
4901784	160	C	11/21/2019	10:42	-132.759	43.651	0	1974.30	0	1.9500	0	36.9050	8	29.515	0	1949.316	0	56.9	4	17.4	4	-1E+10	1	-1E+10	1	-1E+10	1	-1E+10	1	-1E+10	1	-1E+10	1
4901784	160	C	11/21/2019	10:42	-132.759	43.651	0	1979.60	0	1.9480	0	36.9060	8	29.516	0	1954.524	0	57.2	4	17.5	4	-1E+10	1	-1E+10	1	-1E+10	1	-1E+10	1	-1E+10	1	-1E+10	1
4901784	160	C	11/21/2019	10:42	-132.759	43.651	0	1984.90	0	1.9430	0	36.9060	8	29.517	0	1959.733	0	57.7	4	17.7	4	-1E+10	1	-1E+10	1	-1E+10	1	-1E+10	1	-1E+10	1	-1E+10	1
4901784	160	C	11/21/2019	10:42	-132.759	43.651	0	1990.30	0	1.9380	0	36.9070	8	29.518	0	1965.040	0	58.2	4	17.8	4	-1E+10	1	-1E+10	1	-1E+10	1	-1E+10	1	-1E+10	1	-1E+10	1
4901784	160	C	11/21/2019	10:42	-132.759	43.651	0	1995.70	0	1.9340	0	36.9080	8	29.519	0	1970.346	0	58.6	4	17.9	4	-1E+10	1	-1E+10	1	-1E+10	1	-1E+10	1	-1E+10	1	-1E+10	1
4901784	160	C	11/21/2019	10:42	-132.759	43.651	0	2000.10	0	1.9320	0	36.9090	8	29.520	0	1974.670	0	58.8	4	18.0	4	-1E+10	1	-1E+10	1	-1E+10	1	-1E+10	1	-1E+10	1	-1E+10	1
4901784	160	C	11/21/2019	10:42	-132.759	43.651	0	2004.30	0	1.9290	0	36.9090	8	29.520	0	1978.797	0	59.0	4	18.1	4	-1E+10	1	-1E+10	1	-1E+10	1	-1E+10	1	-1E+10	1	-1E+10	1
4901784	160	C	11/21/2019	10:42	-132.759	43.651	0	2010.10	0	1.9260	0	36.9100	8	29.521	0	1984.496	0	59.3	4	18.2	4	-1E+10	1	-1E+10	1	-1E+10	1	-1E+10	1	-1E+10	1	-1E+10	1
4901784	160	C	11/21/2019	10:42	-132.759	43.651	0	2014.80	0	1.9230	0	36.9110	8	29.522	0	1989.114	0	59.4	4	18.2	4	-1E+10	1	-1E+10	1	-1E+10	1	-1E+10	1	-1E+10	1	-1E+10	1
4901784	160	C	11/21/2019	10:42	-132.759	43.651	0	2020.10	0	1.9210	0	36.9110	8	29.523	0	1994.322	0	59.5	4	18.2	4	-1E+10	1	-1E+10	1	-1E+10	1	-1E+10	1	-1E+10	1	-1E+10	1
4901784	160	C	11/21/2019	10:42	-132.759	43.651	0																										
4901784	161	C	12/01/2019	10:47	-132.726	43.656	0	2.10	0	14.2530	0	34.7010	8	25.903	0	2.083	0	242.3	4	96.1	4	-1E+10	1	-1E+10	1	-1E+10	1	-1E+10	1	-1E+10	1	-1E+10	1
4901784	161	C	12/01/2019	10:47	-132.726	43.656	0	3.20	0	14.2530	0	34.7020	8	25.904	0	3.174	0	242.2	4	96.1	4	-1E+10	1	-1E+10	1	-1E+10	1	-1E+10	1	-1E+10	1	-1E+10	1
4901784	161	C	12/01/2019	10:47	-132.726	43.656	0	4.60	0	14.2540	0	34.7030	8	25.905	0	4.563	0	242.1	4	96.1	4	-1E+10	1	-1E+10	1	-1E+10	1	-1E+10	1	-1E+10	1	-1E+10	1
4901784	161	C	12/01/2019	10:47	-132.726	43.656	0	6.20	0	14.2570	0	34.7020	8	25.903	0	6.150	0	242.0	4	96.0	4	-1E+10	1	-1E+10	1	-1E+10	1	-1E+10	1	-1E+10	1	-1E+10	1
4901784	161	C	12/01/2019	10:47	-132.726	43.656	0	7.90	0	14.2580	0	34.7030	8	25.904	0	7.837	0	242.1	4	96.1	4	-1E+10	1	-1E+10	1	-1E+10	1	-1E+10	1	-1E+10	1	-1E+10	1
4901784	161	C	12/01/2019	10:47	-132.726	43.656	0	9.80	0	14.2580	0	34.7030	8	25.904	0	9.721	0	241.9	4	96.0	4	-1E+10	1	-1E+10	1	-1E+10	1	-1E+10	1	-1E+10	1	-1E+10	1
4901784	161	C	12/01/2019	10:47	-132.726	43.656	0	11.70	0	14.2570	0	34.7040	8	25.905	0	11.606	0	241.9	4	96.0	4	-1E+10	1	-1E+10	1	-1E+10	1	-1E+10	1	-1E+10	1	-1E+10	1
4901784	161	C	12/01/2019	10:47	-132.726	43.656	0	13.80	0	14.2580	0	34.7040	8	25.905	0	13.689	0	241.8	4	96.0	4	-1E+10	1	-1E+10	1	-1E+10	1	-1E+10	1	-1E+10	1	-1E+10	1
4901784	161	C	12/01/2019	10:47	-132.726	43.656	0	15.80	0	14.2600	0	34.7050	8	25.905	0	15.673	0	241.9	4	96.0	4	-1E+10	1	-1E+10	1	-1E+10	1	-1E+10	1	-1E+10	1	-1E+10	1
4901784	161	C	12/01/2019	10:47	-132.726	43.656	0	17.80	0	14.2580	0	34.7060	8	25.907	0	17.657	0	241.7	4	95.9	4	-1E+10	1	-1E+10	1	-1E+10	1	-1E+10	1	-1E+10	1	-1E+10	1
4901784	161	C	12/01/2019	10:47	-132.726	43.656	0	19.80	0	14.2600	0	34.7050	8	25.906	0	19.641	0	241.6	4	95.9	4	-1E+10	1	-1E+10	1	-1E+10	1	-1E+10	1	-1E+10	1	-1E+10	1
4901784	161	C	12/01/2019	10:47	-132.726	43.656	0	21.70	0	14.2620	0	34.7060	8	25.906	0	21.525	0	241.5	4	95.8	4	-1E+10	1	-1E+10	1	-1E+10	1	-1E+10	1	-1E+10	1	-1E+10	1
4901784	161	C	12/01/2019	10:47	-132.726	43.656	0	23.60	0	14.2610	0	34.7070	8	25.907	0	23.410	0	241.6	4	95.9	4	-1E+10	1	-1E+10	1	-1E+10	1	-1E+10	1	-1E+10	1	-1E+10	1
4901784	161	C	12/01/2019	10:47	-132.726	43.656	0	25.50	0	14.2630	0	34.7070	8	25.907	0	25.295	0	241.6	4	95.9	4	-1E+10	1	-1E+10	1	-1E+10	1	-1E+10	1	-1E+10	1	-1E+10	1
4901784	161	C	12/01/2019	10:47	-132.726	43.656	0	27.40	0	14.2620	0	34.7080	8	25.908	0	27.179	0	241.6	4	95.9	4	-1E+10	1	-1E+10	1	-1E+10	1	-1E+10	1	-1E+10	1	-1E+10	1
4901784	161	C	12/01/2019	10:47	-132.726	43.656	0	29.40	0	14.2630	0	34.7080	8	25.908	0	29.163	0	241.3	4	95.8	4	-1E+10	1	-1E+10	1	-1E+10	1	-1E+10	1	-1E+10	1	-1E+10	1
4901784	161	C	12/01/2019	10:47	-132.726	43.656	0	31.30	0	14.2600	0	34.7080	8	25.908	0	31.047	0	241.4	4	95.8	4	-1E+10	1	-1E+10	1	-1E+10	1	-1E+10	1	-1E+10	1	-1E+10	1
4901784	161	C	12/01/2019	10:47	-132.726	43.656	0	33.20	0	14.2590	0	34.7090	8	25.909	0	32.932	0	241.4	4	95.8	4	-1E+10	1	-1E+10	1	-1E+10	1	-1E+10	1	-1E+10	1	-1E+10	1
4901784	161	C	12/01/2019	10:47	-132.726	43.656	0	35.20	0	14.2590	0	34.7100	8	25.910	0	34.916	0	241.3	4	95.8	4	-1E+10	1	-1E+10	1	-1E+10	1	-1E+10	1	-1E+10	1	-1E+10	1
4901784	161	C	12/01/2019	10:47	-132.726	43.656	0	37.10	0	14.2590	0	34.7100	8	25.910	0	36.800	0	241.2	4	95.7	4	-1E+10	1	-1E+10	1	-1E+10	1	-1E+10	1	-1E+10	1	-1E+10	1
4901784	161	C	12/01/2019	10:47	-132.726	43.656	0	39.00	0	14.2600	0	34.7100	8	25.910	0	38.685	0	241.0	4	95.7	4	-1E+10	1	-1E+10	1	-1E+10	1	-1E+10	1	-1E+10	1	-1E+10	1
4901784	161	C	12/01/2019	10:47	-132.726	43.656	0	40.90	0	14.2590	0	34.7110	8	25.911	0	40.569	0	241.0	4	95.6	4	-1E+10	1	-1E+10	1	-1E+10	1	-1E+10	1	-1E+10	1	-1E+10	1
4901784	161	C	12/01/2019	10:47	-132.726	43.656	0	42.90	0	14.2560	0	34.7110	8	25.912	0	42.553	0	240.9	4	95.6	4	-1E+10	1	-1E+10	1	-1E+10	1	-1E+10	1	-1E+10	1	-1E+10	1
4901784	161	C	12/01/2019	10:47	-132.726	43.656	0	44.90	0	14.2550	0	34.7120	8	25.913	0	44.536	0	240.8	4	95.5	4	-1E+10	1	-1E+10	1	-1E+10	1	-1E+10	1	-1E+10	1	-1E+10	1
4901784	161	C	12/01/2019	10:47	-132.726	43.656	0	46.80	0	14.2560	0	34.7120	8	25.913	0	46.421	0	240.5	4	95.5	4	-1E+10	1	-1E+10	1	-1E+10	1	-1E+10	1	-1E+10	1	-1E+10	1
4901784	161	C	12/01/2019	10:47	-132.726	43.656	0	48.70	0	14.2560	0	34.7120	8	25.913	0	48.305	0	240.3	4	95.4	4	-1E+10	1	-1E+10	1	-1E+10	1	-1E+10	1	-1E+10	1	-1E+10	1
4901784	161	C	12/01/2019	10:47	-132.726	43.656	0	50.60	0	14.2560	0	34.7130	8	25.914	0	50.189	0	240.5	4	95.4	4	-1E+10	1	-1E+10	1	-1E+10	1	-1E+10	1	-1E+10	1	-1E+10	1
4901784	161	C	12/01/2019	10:47	-132.726	43.656	0	52.60	0	14.2530	0	34.7120	8	25.913	0	52.173	0	240.1	4	95.3	4	-1E+10	1	-1E+10	1	-1E+10	1	-1E+10	1	-1E+10	1	-1E+10	1
4901784	161	C	12/01/2019	10:47	-132.726	43.656	0	54.40	0	14.2530	0	34.7120	8	25.913	0	53.958	0	240.1	4	95.3	4	-1E+10	1	-1E+10	1	-1E+10	1	-1E+10	1	-1E+10	1	-1E+10	1
4901784	161	C	12/01/2019	10:47	-132.726	43.656	0	56.10	0	14.2480	0	34.7120	8	25.915	0	55.644	0	239.7	4	95.1	4	-1E+10	1	-1E+10	1	-1E+10	1	-1E+10	1	-1E+10	1	-1E+10	1
4901784	161	C	12/01/2019	10:47	-132.726	43.656	0	58.00	0	14.2550	0	34.7110	8	25.912	0	57.528	0	239.7	4	95.1	4	-1E+10	1	-1E+10	1	-1E+10	1	-1E+10	1	-1E+10	1	-1E+10	1
4901784	161	C	12/01/2019	10:47	-132.726	43.656	0	59.80	0	14.2540	0	34.7090	8	25.911	0	59.313	0	239.5	4	95.0	4	-1E+10	1	-1E+10	1	-1E+10	1	-1E+10	1	-1E+10	1	-1E+10	1
4901784	161	C	12/01/2019	10:47	-132.726	43.656	0	61.50	0	14.2530	0	34.7060	8	25.909	0	60.999	0	239.3	4	95.0	4	-1E+10	1	-1E+10	1	-1E+10	1	-1E+10	1	-1E+10	1	-1E+10	1
4901784	161	C	12/01/2019	10:47	-132.726	43.656	0	63.40	0	14.2530	0	34.7020	8	25.906	0	62.883	0	239.0	4	94.8	4	-1E+10	1	-1E+10	1	-1E+10	1	-1E+10	1	-1E+10	1	-1E+10	1
4901784	161	C	12/01/2019	10:47	-132.726	43.656	0	64.90	0	14.2530	0	34.6960	8	25.901	0	64.371	0	238.9	4	94.8	4	-1E+10	1	-1E+10	1	-1E+10	1	-1E+10	1	-1E+10	1	-1E+10	1
4901784	161	C	12/01/2019	10:47	-132.726	43.656	0	67.00	0	14.2190	0	34.6820	8	25.898	0	66.454	0	238.7	4	94.7	4	-1E+10	1	-1E+10	1	-1E+10	1	-1E+10	1	-1E+10	1	-1E+10	1
4901784	161	C	12/01/2019	10:47	-132.726	43.656	0	68.40	0	14.0780	0	34.6760	8	25.923	0	67.842	0	238.6	4	94.3	4	-1E+10	1	-1E+10	1	-1E+10	1	-1E+10	1	-1E+10	1	-1E+10	1
4901784	161	C	12/01/2019	10:47	-132.726	43.656	0	69.70	0	13.7450	0	34.6540	8	25.976	0	69.131	0	239.9	4	94.2	4	-1E+10	1	-1E+10	1	-1E+10	1	-1E+10	1	-1E+10	1	-1E+10	1
4901784	161	C	12/01/2019	10:47	-132.726	43.656	0	70.90	0	13.1750	0	34.6670	8	26.102	0	70.321	0	241.9	4	93.9	4	-1E+10	1	-1E+10	1	-1E+10	1	-1E+10	1	-1E+10	1	-1E+10	1
4901784	161	C	12/01/2019	10:47	-132.726	43.656	0	72.30	0	12.9110	0	34.6580	8	26.148	0	71.709	0	242.6	4	93.7	4	-1E+10	1	-1E+10	1	-1E+10	1	-1E+10	1	-1E+10	1	-1E+10	1
4901784	161	C	12/01/2019	10:47	-132.726	43.656	0	73.60	0	12.4750	0	34.6640	8	26.239	0	72.999	0	243.6	4	93.2	4	-1E+10	1	-1E+10	1	-1E+10	1	-1E+10	1	-1E+10	1	-1E+10	1
4901784	161	C	12/01/2019	10:47	-132.726	43.656	0	75.00	0	12.2750	0	34.6560	8	26.272	0	74.387	0	243.7	4	92.9	4	-1E+10	1	-1E+10	1	-1E+10	1	-1E+10	1	-1E+10	1	-1E+10	1
4901784	161	C	12/01/2019	10:47	-132.726	43.656	0	76.40	0	11.8950	0	34.6580	8	26.346	0	75.775	0	244.2	4	92.3	4	-1E+10	1	-1E+10	1	-1E+10	1	-1E+10	1	-1E+10	1	-1E+10	1
4901784	161	C	12/01/2019	10:47	-132.726	43.656	0	78.00	0	11.6230	0	34.6530	8	26.393	0	77.362	0	244.1	4	91.8	4	-1E+10	1	-1E+10	1	-1E+10	1	-1E+10	1	-1E+10	1	-1E+10	1
4901784	161	C	12/01/2019	10:47	-132.726	43.656	0	79.60	0	11.3300	0	34.6550	8	26.449	0	78.948	0	243.9	4	91.1	4	-1E+10	1	-1E+10	1	-1E+10	1	-1E+10	1	-1E+10	1	-1E+10	1
4901784	161	C	12/01/2019	10:47	-132.726	43.656	0	81.30	0	11.0570	0	34.6690	8	26.510	0	80.634	0	244.2	4	90.7	4	-1E+10	1	-1E+10	1	-1E+10	1	-1E+10	1	-1E+10	1	-1E+10	1
4901784	161	C	12/01/2019	10:47	-132.726	43.656	0	82.90	0	10.7450	0	34.6680	8	26.565	0	82.221	0	243.6	4	89.9	4	-1E+10	1	-1E+10	1	-1E+10	1	-1E+10	1	-1E+10	1	-1E+10	1
4901784	161	C	12/01/2019	10:47	-132.726	43.656	0	84.50	0	10.6800	0	34.6820	8	26.587	0	83.807	0	244.1	4	90.0	4	-1E+10	1	-1E+10	1	-1E+10	1	-1E+10	1	-1E+10	1	-1E+10	1
4901784	161	C	12/01/2019	10:47	-132.726	43.656	0	86.10	0	10.6540	0	34.6790	8	26.590	0	85.394	0	243.8	4	89.8	4	-1E+10	1	-1E+10	1	-1E+10	1	-1E+10	1	-1E+10	1	-1E+10	1
4901784	161	C	12/01/2019	10:47	-132.726	43.656	0	87.80	0	10.6630	0	34.6830	8	26.591	0	87.080	0	243.2	4	89.6	4	-1E+10	1	-1E+10	1	-1E+10	1	-1E+10	1	-1E+10	1	-1E+10	1
4901784	161	C	12/01/2019	10:47	-132.726	43.656	0	89.50	0	10.6400	0	34.6770	8	26.591	0	88.765	0	242.5	4	89.3	4	-1E+10	1	-1E+10	1	-1E+10	1	-1E+10	1	-1E+10	1	-1E+10	1
4901784	161	C	12/01/2019	10:47	-132.726	43.656	0	91.20	0	10.5420	0	34.6820	8	26.612	0	90.451	0	242.5	4	89.1	4	-1E+10	1	-1E+10	1	-1E+10	1	-1E+10	1	-1E+10	1	-1E+10	1
4901784	161	C	12/01/2019	10:47	-132.726	43.656	0	93.00	0	10.4450	0	34.6770	8	26.625	0	92.236	0	242.5	4	89.0	4	-1E+10	1	-1E+10	1	-1E+10	1	-1E+10	1	-1E+10	1	-1E+10	1
4901784	161	C	12/01/2019	10:47	-132.726	43.656	0	94.80	0	10.2860	0	34.6690	8	26.647	0	94.021	0	243.1	4	88.9	4	-1E+10	1	-1E+10	1	-1E+10	1	-1E+10	1	-1E+10	1	-1E+10	1
4901784	161	C	12/01/2019	10:47	-132.726	43.656	0	96.70	0	10.2070	0	34.6630	8	26.656	0	95.904	0	243.2	4	88.7	4	-1E+10	1	-1E+10	1	-1E+10	1	-1E+10	1	-1E+10	1	-1E+10	1
4901784	161	C	12/01/2019	10:47	-132.726	43.656	0	98.50	0	10.0900	0	34.6590	8	26.673	0	97.689	0	243.4	4	88.6	4	-1E+10	1	-1E+10	1	-1E+10	1	-1E+10	1	-1E+10	1	-1E+10	1
4901784	161	C	12/01/2019	10:47	-132.726	43.656	0	100.40	0	10.0380	0	34.6540	8	26.678	0	99.573	0	243.7	4	88.6	4	-1E+10	1	-1E+10	1	-1E+10	1	-1E+10	1	-1E+10	1	-1E+10	1
4901784	161	C	12/01/2019	10:47	-132.726	43.656	0	102.10	0	10.0190	0	34.6510	8	26.679	0	101.259	0	243.2	4	88.4	4	-1E+10	1	-1E+10	1	-1E+10	1	-1E+10	1	-1E+10	1	-1E+10	1
4901784	161	C	12/01/2019	10:47	-132.726	43.656	0	104.80	0	9.9690	0	34.6500	8	26.686	0	103.936	0	242.5	4	88.0	4	-1E+10	1	-1E+10	1	-1E+10	1	-1E+10	1	-1E+10	1	-1E+10	1
4901784	161	C	12/01/2019	10:47	-132.726	43.656	0	107.50	0	9.8400	0	34.6520	8	26.710	0	106.613	0	241.8	4	87.5	4	-1E+10	1	-1E+10	1	-1E+10	1	-1E+10	1	-1E+10	1	-1E+10	1
4901784	161	C	12/01/2019	10:47	-132.726	43.656	0	109.40	0	9.8070	0	34.6540	8	26.717	0	108.497	0	241.2	4	87.2	4	-1E+10	1	-1E+10	1	-1E+10	1	-1E+10	1	-1E+10	1	-1E+10	1
4901784	161	C	12/01/2019	10:47	-132.726	43.656	0	112.30	0	9.7600	0	34.6700	8	26.737	0	111.372	0	239.5	4	86.5	4	-1E+10	1	-1E+10	1	-1E+10	1	-1E+10	1	-1E+10	1	-1E+10	1
4901784	161	C	12/01/2019	10:47	-132.726	43.656	0	115.10	0	9.7110	0	34.6850	8	26.757	0	114.148	0	238.1	4	86.0	4	-1E+10	1	-1E+10	1	-1E+10	1	-1E+10	1	-1E+10	1	-1E+10	1
4901784	161	C	12/01/2019	10:47	-132.726	43.656	0	117.60	0	9.5680	0	34.7020	8	26.795	0	116.627	0	236.9	4	85.3	4	-1E+10	1	-1E+10	1	-1E+10	1	-1E+10	1	-1E+10	1	-1E+10	1
4901784	161	C	12/01/2019	10:47	-132.726	43.656	0	120.40	0	9.4760	0	34.7120	8	26.818	0	119.403	0	235.1	4	84.5	4	-1E+10	1	-1E+10	1	-1E+10	1	-1E+10	1	-1E+10	1	-1E+10	1
4901784	161	C	12/01/2019	10:47	-132.726	43.656	0	122.70	0	9.2980	0	34.7290	8	26.860	0	121.683	0	233.7	4	83.6	4	-1E+10	1	-1E+10	1	-1E+10	1	-1E+10	1	-1E+10	1	-1E+10	1
4901784	161	C	12/01/2019	10:47	-132.726	43.656	0	125.00	0	9.1650	0	34.7570	8	26.904	0	123.963	0	232.0	4	82.8	4	-1E+10	1	-1E+10	1	-1E+10	1	-1E+10	1	-1E+10	1	-1E+10	1
4901784	161	C	12/01/2019	10:47	-132.726	43.656	0	127.50	0	9.0200	0	34.8110	8	26.970	0	126.442	0	230.5	4	82.1	4	-1E+10	1	-1E+10	1	-1E+10	1	-1E+10	1	-1E+10	1	-1E+10	1
4901784	161	C	12/01/2019	10:47	-132.726	43.656	0	130.00	0	8.9750	0	34.8330	8	26.994	0	128.920	0	228.7	4	81.4	4	-1E+10	1	-1E+10	1	-1E+10	1	-1E+10	1	-1E+10	1	-1E+10	1
4901784	161	C	12/01/2019	10:47	-132.726	43.656	0	132.40	0	8.8970	0	34.8730	8	27.038	0	131.299	0	226.9	4	80.6	4	-1E+10	1	-1E+10	1	-1E+10	1	-1E+10	1	-1E+10	1	-1E+10	1
4901784	161	C	12/01/2019	10:47	-132.726	43.656	0	134.90	0	8.6990	0	34.9210	8	27.107	0	133.778	0	226.0	4	80.0	4	-1E+10	1	-1E+10	1	-1E+10	1	-1E+10	1	-1E+10	1	-1E+10	1
4901784	161	C	12/01/2019	10:47	-132.726	43.656	0	137.60	0	8.6140	0	34.9730	8	27.161	0	136.454	0	225.0	4	79.5	4	-1E+10	1	-1E+10	1	-1E+10	1	-1E+10	1	-1E+10	1	-1E+10	1
4901784	161	C	12/01/2019	10:47	-132.726	43.656	0	140.30	0	8.4590	0	34.9760	8	27.188	0	139.131	0	224.8	4	79.1	4	-1E+10	1	-1E+10	1	-1E+10	1	-1E+10	1	-1E+10	1	-1E+10	1
4901784	161	C	12/01/2019	10:47	-132.726	43.656	0	142.80	0	8.4280	0	34.9760	8	27.192	0	141.609	0	223.6	4	78.7	4	-1E+10	1	-1E+10	1	-1E+10	1	-1E+10	1	-1E+10	1	-1E+10	1
4901784	161	C	12/01/2019	10:47	-132.726	43.656	0	145.20	0	8.3600	0	35.0270	8	27.243	0	143.989	0	222.2	4	78.1	4	-1E+10	1	-1E+10	1	-1E+10	1	-1E+10	1	-1E+10	1	-1E+10	1
4901784	161	C	12/01/2019	10:47	-132.726	43.656	0	148.30	0	8.3280	0	35.0810	8	27.290	0	147.062	0	220.5	4	77.5	4	-1E+10	1	-1E+10	1	-1E+10	1	-1E+10	1	-1E+10	1	-1E+10	1
4901784	161	C	12/01/2019	10:47	-132.726	43.656	0	149.90	0	8.3280	0	35.1340	8	27.332	0	148.648	0	219.0	4	77.0	4	-1E+10	1	-1E+10	1	-1E+10	1	-1E+10	1	-1E+10	1	-1E+10	1
4901784	161	C	12/01/2019	10:47	-132.726	43.656	0	152.00	0	8.3220	0	35.1850	8	27.373	0	150.729	0	217.6	4	76.5	4	-1E+10	1	-1E+10	1	-1E+10	1	-1E+10	1	-1E+10	1	-1E+10	1
4901784	161	C	12/01/2019	10:47	-132.726	43.656	0	154.90	0	8.2860	0	35.2450	8	27.426	0	153.604	0	215.8	4	75.8	4	-1E+10	1	-1E+10	1	-1E+10	1	-1E+10	1	-1E+10	1	-1E+10	1
4901784	161	C	12/01/2019	10:47	-132.726	43.656	0	157.80	0	8.2340	0	35.2770	8	27.459	0	156.479	0	213.8	4	75.1	4	-1E+10	1	-1E+10	1	-1E+10	1	-1E+10	1	-1E+10	1	-1E+10	1
4901784	161	C	12/01/2019	10:47	-132.726	43.656	0	159.90	0	8.2000	0	35.3080	8	27.488	0	158.560	0	212.0	4	74.4	4	-1E+10	1	-1E+10	1	-1E+10	1	-1E+10	1	-1E+10	1	-1E+10	1
4901784	161	C	12/01/2019	10:47	-132.726	43.656	0	162.10	0	8.1720	0	35.3300	8	27.510	0	160.741	0	209.5	4	73.5	4	-1E+10	1	-1E+10	1	-1E+10	1	-1E+10	1	-1E+10	1	-1E+10	1
4901784	161	C	12/01/2019	10:47	-132.726	43.656	0	165.10	0	8.1130	0	35.4000	8	27.574	0	163.715	0	206.4	4	72.3	4	-1E+10	1	-1E+10	1	-1E+10	1	-1E+10	1	-1E+10	1	-1E+10	1
4901784	161	C	12/01/2019	10:47	-132.726	43.656	0	167.60	0	8.0900	0	35.4640	8	27.628	0	166.193	0	204.6	4	71.7	4	-1E+10	1	-1E+10	1	-1E+10	1	-1E+10	1	-1E+10	1	-1E+10	1
4901784	161	C	12/01/2019	10:47	-132.726	43.656	0	170.00	0	8.0810	0	35.4900	8	27.650	0	168.572	0	203.7	4	71.4	4	-1E+10	1	-1E+10	1	-1E+10	1	-1E+10	1	-1E+10	1	-1E+10	1
4901784	161	C	12/01/2019	10:47	-132.726	43.656	0	172.50	0	8.0770	0	35.5040	8	27.661	0	171.049	0	202.2	4	70.9	4	-1E+10	1	-1E+10	1	-1E+10	1	-1E+10	1	-1E+10	1	-1E+10	1
4901784	161	C	12/01/2019	10:47	-132.726	43.656	0	175.10	0	8.0660	0	35.5400	8	27.691	0	173.627	0	199.7	4	70.0	4	-1E+10	1	-1E+10	1	-1E+10	1	-1E+10	1	-1E+10	1	-1E+10	1
4901784	161	C	12/01/2019	10:47	-132.726	43.656	0	177.80	0	8.0640	0	35.6150	8	27.750	0	176.303	0	197.1	4	69.1	4	-1E+10	1	-1E+10	1	-1E+10	1	-1E+10	1	-1E+10	1	-1E+10	1
4901784	161	C	12/01/2019	10:47	-132.726	43.656	0	179.60	0	8.0650	0	35.6410	8	27.771	0	178.087	0	196.2	4	68.8	4	-1E+10	1	-1E+10	1	-1E+10	1	-1E+10	1	-1E+10	1	-1E+10	1
4901784	161	C	12/01/2019	10:47	-132.726	43.656	0	182.40	0	8.0690	0	35.6650	8	27.789	0	180.862	0	194.7	4	68.3	4	-1E+10	1	-1E+10	1	-1E+10	1	-1E+10	1	-1E+10	1	-1E+10	1
4901784	161	C	12/01/2019	10:47	-132.726	43.656	0	185.10	0	8.0700	0	35.6930	8	27.811	0	183.538	0	191.9	4	67.3	4	-1E+10	1	-1E+10	1	-1E+10	1	-1E+10	1	-1E+10	1	-1E+10	1
4901784	161	C	12/01/2019	10:47	-132.726	43.656	0	187.70	0	8.0720	0	35.7390	8	27.847	0	186.115	0	187.7	4	65.9	4	-1E+10	1	-1E+10	1	-1E+10	1	-1E+10	1	-1E+10	1	-1E+10	1
4901784	161	C	12/01/2019	10:47	-132.726	43.656	0	190.40	0	8.0830	0	35.7830	8	27.880	0	188.791	0	183.3	4	64.4	4	-1E+10	1	-1E+10	1	-1E+10	1	-1E+10	1	-1E+10	1	-1E+10	1
4901784	161	C	12/01/2019	10:47	-132.726	43.656	0	192.10	0	8.0920	0	35.8060	8	27.896	0	190.476	0	179.7	4	63.1	4	-1E+10	1	-1E+10	1	-1E+10	1	-1E+10	1	-1E+10	1	-1E+10	1
4901784	161	C	12/01/2019	10:47	-132.726	43.656	0	194.70	0	8.1430	0	35.8400	8	27.915	0	193.052	0	175.3	4	61.7	4	-1E+10	1	-1E+10	1	-1E+10	1	-1E+10	1	-1E+10	1	-1E+10	1
4901784	161	C	12/01/2019	10:47	-132.726	43.656	0	197.90	0	8.1630	0	35.8830	8	27.946	0	196.224	0	171.7	4	60.5	4	-1E+10	1	-1E+10	1	-1E+10	1	-1E+10	1	-1E+10	1	-1E+10	1
4901784	161	C	12/01/2019	10:47	-132.726	43.656	0	199.70	0	8.1740	0	35.9170	8	27.971	0	198.008	0	169.4	4	59.7	4	-1E+10	1	-1E+10	1	-1E+10	1	-1E+10	1	-1E+10	1	-1E+10	1
4901784	161	C	12/01/2019	10:47	-132.726	43.656	0	202.10	0	8.1880	0	35.9600	8	28.003	0	200.386	0	166.5	4	58.7	4	-1E+10	1	-1E+10	1	-1E+10	1	-1E+10	1	-1E+10	1	-1E+10	1
4901784	161	C	12/01/2019	10:47	-132.726	43.656	0	205.30	0	8.2020	0	36.0060	8	28.037	0	203.558	0	164.1	4	57.9	4	-1E+10	1	-1E+10	1	-1E+10	1	-1E+10	1	-1E+10	1	-1E+10	1
4901784	161	C	12/01/2019	10:47	-132.726	43.656	0	207.80	0	8.1970	0	36.0160	8	28.046	0	206.035	0	162.5	4	57.3	4	-1E+10	1	-1E+10	1	-1E+10	1	-1E+10	1	-1E+10	1	-1E+10	1
4901784	161	C	12/01/2019	10:47	-132.726	43.656	0	210.20	0	8.2060	0	36.0360	8	28.060	0	208.413	0	160.7	4	56.7	4	-1E+10	1	-1E+10	1	-1E+10	1	-1E+10	1	-1E+10	1	-1E+10	1
4901784	161	C	12/01/2019	10:47	-132.726	43.656	0	212.60	0	8.2020	0	36.0590	8	28.079	0	210.792	0	158.9	4	56.1	4	-1E+10	1	-1E+10	1	-1E+10	1	-1E+10	1	-1E+10	1	-1E+10	1
4901784	161	C	12/01/2019	10:47	-132.726	43.656	0	215.00	0	8.1930	0	36.0740	8	28.092	0	213.170	0	157.9	4	55.7	4	-1E+10	1	-1E+10	1	-1E+10	1	-1E+10	1	-1E+10	1	-1E+10	1
4901784	161	C	12/01/2019	10:47	-132.726	43.656	0	217.50	0	8.1820	0	36.0870	8	28.104	0	215.648	0	156.7	4	55.3	4	-1E+10	1	-1E+10	1	-1E+10	1	-1E+10	1	-1E+10	1	-1E+10	1
4901784	161	C	12/01/2019	10:47	-132.726	43.656	0	220.10	0	8.1700	0	36.0950	8	28.112	0	218.224	0	155.5	4	54.9	4	-1E+10	1	-1E+10	1	-1E+10	1	-1E+10	1	-1E+10	1	-1E+10	1
4901784	161	C	12/01/2019	10:47	-132.726	43.656	0	222.60	0	8.1540	0	36.1030	8	28.121	0	220.701	0	154.8	4	54.6	4	-1E+10	1	-1E+10	1	-1E+10	1	-1E+10	1	-1E+10	1	-1E+10	1
4901784	161	C	12/01/2019	10:47	-132.726	43.656	0	225.10	0	8.1220	0	36.1190	8	28.138	0	223.179	0	153.8	4	54.2	4	-1E+10	1	-1E+10	1	-1E+10	1	-1E+10	1	-1E+10	1	-1E+10	1
4901784	161	C	12/01/2019	10:47	-132.726	43.656	0	227.70	0	8.1000	0	36.1290	8	28.150	0	225.755	0	152.7	4	53.8	4	-1E+10	1	-1E+10	1	-1E+10	1	-1E+10	1	-1E+10	1	-1E+10	1
4901784	161	C	12/01/2019	10:47	-132.726	43.656	0	230.20	0	8.0710	0	36.1330	8	28.157	0	228.232	0	151.1	4	53.2	4	-1E+10	1	-1E+10	1	-1E+10	1	-1E+10	1	-1E+10	1	-1E+10	1
4901784	161	C	12/01/2019	10:47	-132.726	43.656	0	232.90	0	8.0120	0	36.1420	8	28.173	0	230.908	0	149.3	4	52.5	4	-1E+10	1	-1E+10	1	-1E+10	1	-1E+10	1	-1E+10	1	-1E+10	1
4901784	161	C	12/01/2019	10:47	-132.726	43.656	0	234.80	0	7.9750	0	36.1460	8	28.182	0	232.791	0	148.3	4	52.1	4	-1E+10	1	-1E+10	1	-1E+10	1	-1E+10	1	-1E+10	1	-1E+10	1
4901784	161	C	12/01/2019	10:47	-132.726	43.656	0	237.40	0	7.9350	0	36.1490	8	28.191	0	235.367	0	147.1	4	51.6	4	-1E+10	1	-1E+10	1	-1E+10	1	-1E+10	1	-1E+10	1	-1E+10	1
4901784	161	C	12/01/2019	10:47	-132.726	43.656	0	240.00	0	7.9090	0	36.1490	8	28.195	0	237.943	0	146.3	4	51.3	4	-1E+10	1	-1E+10	1	-1E+10	1	-1E+10	1	-1E+10	1	-1E+10	1
4901784	161	C	12/01/2019	10:47	-132.726	43.656	0	242.70	0	7.8360	0	36.1560	8	28.211	0	240.618	0	145.7	4	51.0	4	-1E+10	1	-1E+10	1	-1E+10	1	-1E+10	1	-1E+10	1	-1E+10	1
4901784	161	C	12/01/2019	10:47	-132.726	43.656	0	245.40	0	7.8040	0	36.1570	8	28.217	0	243.294	0	145.3	4	50.8	4	-1E+10	1	-1E+10	1	-1E+10	1	-1E+10	1	-1E+10	1	-1E+10	1
4901784	161	C	12/01/2019	10:47	-132.726	43.656	0	247.10	0	7.8020	0	36.1560	8	28.216	0	244.978	0	145.0	4	50.7	4	-1E+10	1	-1E+10	1	-1E+10	1	-1E+10	1	-1E+10	1	-1E+10	1
4901784	161	C	12/01/2019	10:47	-132.726	43.656	0	249.80	0	7.7810	0	36.1540	8	28.218	0	247.653	0	144.0	4	50.4	4	-1E+10	1	-1E+10	1	-1E+10	1	-1E+10	1	-1E+10	1	-1E+10	1
4901784	161	C	12/01/2019	10:47	-132.726	43.656	0	252.50	0	7.7340	0	36.1540	8	28.225	0	250.328	0	142.7	4	49.8	4	-1E+10	1	-1E+10	1	-1E+10	1	-1E+10	1	-1E+10	1	-1E+10	1
4901784	161	C	12/01/2019	10:47	-132.726	43.656	0	255.20	0	7.6430	0	36.1570	8	28.241	0	253.004	0	141.5	4	49.3	4	-1E+10	1	-1E+10	1	-1E+10	1	-1E+10	1	-1E+10	1	-1E+10	1
4901784	161	C	12/01/2019	10:47	-132.726	43.656	0	257.90	0	7.5820	0	36.1570	8	28.250	0	255.679	0	140.0	4	48.8	4	-1E+10	1	-1E+10	1	-1E+10	1	-1E+10	1	-1E+10	1	-1E+10	1
4901784	161	C	12/01/2019	10:47	-132.726	43.656	0	259.70	0	7.5680	0	36.1560	8	28.252	0	257.462	0	138.7	4	48.3	4	-1E+10	1	-1E+10	1	-1E+10	1	-1E+10	1	-1E+10	1	-1E+10	1
4901784	161	C	12/01/2019	10:47	-132.726	43.656	0	262.50	0	7.4820	0	36.1540	8	28.263	0	260.236	0	136.8	4	47.5	4	-1E+10	1	-1E+10	1	-1E+10	1	-1E+10	1	-1E+10	1	-1E+10	1
4901784	161	C	12/01/2019	10:47	-132.726	43.656	0	265.20	0	7.3880	0	36.1580	8	28.280	0	262.911	0	135.1	4	46.8	4	-1E+10	1	-1E+10	1	-1E+10	1	-1E+10	1	-1E+10	1	-1E+10	1
4901784	161	C	12/01/2019	10:47	-132.726	43.656	0	267.10	0	7.3610	0	36.1550	8	28.281	0	264.793	0	133.9	4	46.4	4	-1E+10	1	-1E+10	1	-1E+10	1	-1E+10	1	-1E+10	1	-1E+10	1
4901784	161	C	12/01/2019	10:47	-132.726	43.656	0	269.80	0	7.2780	0	36.1590	8	28.296	0	267.468	0	132.5	4	45.8	4	-1E+10	1	-1E+10	1	-1E+10	1	-1E+10	1	-1E+10	1	-1E+10	1
4901784	161	C	12/01/2019	10:47	-132.726	43.656	0	272.60	0	7.2220	0	36.1610	8	28.306	0	270.242	0	131.2	4	45.3	4	-1E+10	1	-1E+10	1	-1E+10	1	-1E+10	1	-1E+10	1	-1E+10	1
4901784	161	C	12/01/2019	10:47	-132.726	43.656	0	274.50	0	7.2110	0	36.1590	8	28.306	0	272.125	0	130.4	4	45.0	4	-1E+10	1	-1E+10	1	-1E+10	1	-1E+10	1	-1E+10	1	-1E+10	1
4901784	161	C	12/01/2019	10:47	-132.726	43.656	0	277.30	0	7.1700	0	36.1590	8	28.312	0	274.899	0	128.8	4	44.4	4	-1E+10	1	-1E+10	1	-1E+10	1	-1E+10	1	-1E+10	1	-1E+10	1
4901784	161	C	12/01/2019	10:47	-132.726	43.656	0	280.20	0	7.0960	0	36.1610	8	28.324	0	277.772	0	127.2	4	43.8	4	-1E+10	1	-1E+10	1	-1E+10	1	-1E+10	1	-1E+10	1	-1E+10	1
4901784	161	C	12/01/2019	10:47	-132.726	43.656	0	282.00	0	7.0750	0	36.1590	8	28.326	0	279.555	0	126.4	4	43.5	4	-1E+10	1	-1E+10	1	-1E+10	1	-1E+10	1	-1E+10	1	-1E+10	1
4901784	161	C	12/01/2019	10:47	-132.726	43.656	0	284.80	0	7.0180	0	36.1630	8	28.337	0	282.329	0	125.0	4	43.0	4	-1E+10	1	-1E+10	1	-1E+10	1	-1E+10	1	-1E+10	1	-1E+10	1
4901784	161	C	12/01/2019	10:47	-132.726	43.656	0	287.70	0	7.0060	0	36.1610	8	28.337	0	285.201	0	123.8	4	42.6	4	-1E+10	1	-1E+10	1	-1E+10	1	-1E+10	1	-1E+10	1	-1E+10	1
4901784	161	C	12/01/2019	10:47	-132.726	43.656	0	289.60	0	6.9810	0	36.1620	8	28.342	0	287.084	0	122.9	4	42.2	4	-1E+10	1	-1E+10	1	-1E+10	1	-1E+10	1	-1E+10	1	-1E+10	1
4901784	161	C	12/01/2019	10:47	-132.726	43.656	0	292.50	0	6.9500	0	36.1620	8	28.346	0	289.956	0	121.7	4	41.8	4	-1E+10	1	-1E+10	1	-1E+10	1	-1E+10	1	-1E+10	1	-1E+10	1
4901784	161	C	12/01/2019	10:47	-132.726	43.656	0	295.30	0	6.9330	0	36.1590	8	28.346	0	292.730	0	120.1	4	41.2	4	-1E+10	1	-1E+10	1	-1E+10	1	-1E+10	1	-1E+10	1	-1E+10	1
4901784	161	C	12/01/2019	10:47	-132.726	43.656	0	297.20	0	6.8710	0	36.1640	8	28.359	0	294.612	0	118.7	4	40.7	4	-1E+10	1	-1E+10	1	-1E+10	1	-1E+10	1	-1E+10	1	-1E+10	1
4901784	161	C	12/01/2019	10:47	-132.726	43.656	0	300.10	0	6.8060	0	36.1660	8	28.369	0	297.485	0	117.7	4	40.3	4	-1E+10	1	-1E+10	1	-1E+10	1	-1E+10	1	-1E+10	1	-1E+10	1
4901784	161	C	12/01/2019	10:47	-132.726	43.656	0	303.00	0	6.7870	0	36.1660	8	28.372	0	300.357	0	116.7	4	39.9	4	-1E+10	1	-1E+10	1	-1E+10	1	-1E+10	1	-1E+10	1	-1E+10	1
4901784	161	C	12/01/2019	10:47	-132.726	43.656	0	305.60	0	6.7780	0	36.1650	8	28.373	0	302.933	0	115.4	4	39.5	4	-1E+10	1	-1E+10	1	-1E+10	1	-1E+10	1	-1E+10	1	-1E+10	1
4901784	161	C	12/01/2019	10:47	-132.726	43.656	0	307.60	0	6.7530	0	36.1670	8	28.378	0	304.914	0	114.1	4	39.0	4	-1E+10	1	-1E+10	1	-1E+10	1	-1E+10	1	-1E+10	1	-1E+10	1
4901784	161	C	12/01/2019	10:47	-132.726	43.656	0	310.00	0	6.7210	0	36.1670	8	28.382	0	307.291	0	112.6	4	38.5	4	-1E+10	1	-1E+10	1	-1E+10	1	-1E+10	1	-1E+10	1	-1E+10	1
4901784	161	C	12/01/2019	10:47	-132.726	43.656	0	312.40	0	6.7040	0	36.1670	8	28.385	0	309.668	0	111.1	4	37.9	4	-1E+10	1	-1E+10	1	-1E+10	1	-1E+10	1	-1E+10	1	-1E+10	1
4901784	161	C	12/01/2019	10:47	-132.726	43.656	0	314.90	0	6.6800	0	36.1680	8	28.389	0	312.145	0	109.3	4	37.3	4	-1E+10	1	-1E+10	1	-1E+10	1	-1E+10	1	-1E+10	1	-1E+10	1
4901784	161	C	12/01/2019	10:47	-132.726	43.656	0	317.40	0	6.6360	0	36.1700	8	28.396	0	314.621	0	107.5	4	36.6	4	-1E+10	1	-1E+10	1	-1E+10	1	-1E+10	1	-1E+10	1	-1E+10	1
4901784	161	C	12/01/2019	10:47	-132.726	43.656	0	319.80	0	6.6080	0	36.1700	8	28.400	0	316.998	0	105.9	4	36.1	4	-1E+10	1	-1E+10	1	-1E+10	1	-1E+10	1	-1E+10	1	-1E+10	1
4901784	161	C	12/01/2019	10:47	-132.726	43.656	0	322.30	0	6.5690	0	36.1710	8	28.406	0	319.474	0	104.7	4	35.6	4	-1E+10	1	-1E+10	1	-1E+10	1	-1E+10	1	-1E+10	1	-1E+10	1
4901784	161	C	12/01/2019	10:47	-132.726	43.656	0	324.80	0	6.5280	0	36.1720	8	28.413	0	321.950	0	103.2	4	35.1	4	-1E+10	1	-1E+10	1	-1E+10	1	-1E+10	1	-1E+10	1	-1E+10	1
4901784	161	C	12/01/2019	10:47	-132.726	43.656	0	327.30	0	6.5060	0	36.1730	8	28.417	0	324.426	0	101.7	4	34.6	4	-1E+10	1	-1E+10	1	-1E+10	1	-1E+10	1	-1E+10	1	-1E+10	1
4901784	161	C	12/01/2019	10:47	-132.726	43.656	0	329.90	0	6.4940	0	36.1720	8	28.418	0	327.002	0	99.8	4	33.9	4	-1E+10	1	-1E+10	1	-1E+10	1	-1E+10	1	-1E+10	1	-1E+10	1
4901784	161	C	12/01/2019	10:47	-132.726	43.656	0	332.40	0	6.4560	0	36.1730	8	28.424	0	329.478	0	97.7	4	33.2	4	-1E+10	1	-1E+10	1	-1E+10	1	-1E+10	1	-1E+10	1	-1E+10	1
4901784	161	C	12/01/2019	10:47	-132.726	43.656	0	335.00	0	6.3920	0	36.1780	8	28.436	0	332.053	0	96.3	4	32.6	4	-1E+10	1	-1E+10	1	-1E+10	1	-1E+10	1	-1E+10	1	-1E+10	1
4901784	161	C	12/01/2019	10:47	-132.726	43.656	0	337.60	0	6.3600	0	36.1780	8	28.441	0	334.628	0	95.4	4	32.3	4	-1E+10	1	-1E+10	1	-1E+10	1	-1E+10	1	-1E+10	1	-1E+10	1
4901784	161	C	12/01/2019	10:47	-132.726	43.656	0	340.20	0	6.3300	0	36.1810	8	28.447	0	337.203	0	94.4	4	32.0	4	-1E+10	1	-1E+10	1	-1E+10	1	-1E+10	1	-1E+10	1	-1E+10	1
4901784	161	C	12/01/2019	10:47	-132.726	43.656	0	342.70	0	6.3010	0	36.1810	8	28.451	0	339.679	0	93.6	4	31.7	4	-1E+10	1	-1E+10	1	-1E+10	1	-1E+10	1	-1E+10	1	-1E+10	1
4901784	161	C	12/01/2019	10:47	-132.726	43.656	0	345.30	0	6.2710	0	36.1830	8	28.457	0	342.254	0	92.9	4	31.4	4	-1E+10	1	-1E+10	1	-1E+10	1	-1E+10	1	-1E+10	1	-1E+10	1
4901784	161	C	12/01/2019	10:47	-132.726	43.656	0	347.80	0	6.2630	0	36.1830	8	28.458	0	344.729	0	91.9	4	31.1	4	-1E+10	1	-1E+10	1	-1E+10	1	-1E+10	1	-1E+10	1	-1E+10	1
4901784	161	C	12/01/2019	10:47	-132.726	43.656	0	349.60	0	6.2540	0	36.1850	8	28.460	0	346.512	0	91.2	4	30.8	4	-1E+10	1	-1E+10	1	-1E+10	1	-1E+10	1	-1E+10	1	-1E+10	1
4901784	161	C	12/01/2019	10:47	-132.726	43.656	0	352.10	0	6.2430	0	36.1860	8	28.463	0	348.988	0	90.7	4	30.6	4	-1E+10	1	-1E+10	1	-1E+10	1	-1E+10	1	-1E+10	1	-1E+10	1
4901784	161	C	12/01/2019	10:47	-132.726	43.656	0	355.40	0	6.2320	0	36.1860	8	28.464	0	352.256	0	90.2	4	30.5	4	-1E+10	1	-1E+10	1	-1E+10	1	-1E+10	1	-1E+10	1	-1E+10	1
4901784	161	C	12/01/2019	10:47	-132.726	43.656	0	357.70	0	6.2190	0	36.1830	8	28.464	0	354.534	0	89.6	4	30.3	4	-1E+10	1	-1E+10	1	-1E+10	1	-1E+10	1	-1E+10	1	-1E+10	1
4901784	161	C	12/01/2019	10:47	-132.726	43.656	0	360.30	0	6.1690	0	36.1860	8	28.473	0	357.108	0	88.7	4	29.9	4	-1E+10	1	-1E+10	1	-1E+10	1	-1E+10	1	-1E+10	1	-1E+10	1
4901784	161	C	12/01/2019	10:47	-132.726	43.656	0	362.90	0	6.1430	0	36.1880	8	28.478	0	359.683	0	87.8	4	29.6	4	-1E+10	1	-1E+10	1	-1E+10	1	-1E+10	1	-1E+10	1	-1E+10	1
4901784	161	C	12/01/2019	10:47	-132.726	43.656	0	364.60	0	6.1380	0	36.1870	8	28.478	0	361.367	0	86.8	4	29.3	4	-1E+10	1	-1E+10	1	-1E+10	1	-1E+10	1	-1E+10	1	-1E+10	1
4901784	161	C	12/01/2019	10:47	-132.726	43.656	0	367.20	0	6.1150	0	36.1890	8	28.482	0	363.941	0	85.2	4	28.7	4	-1E+10	1	-1E+10	1	-1E+10	1	-1E+10	1	-1E+10	1	-1E+10	1
4901784	161	C	12/01/2019	10:47	-132.726	43.656	0	369.70	0	6.1220	0	36.1920	8	28.484	0	366.417	0	83.1	4	28.0	4	-1E+10	1	-1E+10	1	-1E+10	1	-1E+10	1	-1E+10	1	-1E+10	1
4901784	161	C	12/01/2019	10:47	-132.726	43.656	0	372.30	0	6.1020	0	36.1940	8	28.488	0	368.991	0	81.9	4	27.6	4	-1E+10	1	-1E+10	1	-1E+10	1	-1E+10	1	-1E+10	1	-1E+10	1
4901784	161	C	12/01/2019	10:47	-132.726	43.656	0	374.80	0	6.0820	0	36.1940	8	28.491	0	371.467	0	80.7	4	27.2	4	-1E+10	1	-1E+10	1	-1E+10	1	-1E+10	1	-1E+10	1	-1E+10	1
4901784	161	C	12/01/2019	10:47	-132.726	43.656	0	377.30	0	6.0510	0	36.1950	8	28.496	0	373.942	0	78.9	4	26.5	4	-1E+10	1	-1E+10	1	-1E+10	1	-1E+10	1	-1E+10	1	-1E+10	1
4901784	161	C	12/01/2019	10:47	-132.726	43.656	0	379.90	0	6.0070	0	36.1980	8	28.504	0	376.517	0	77.5	4	26.0	4	-1E+10	1	-1E+10	1	-1E+10	1	-1E+10	1	-1E+10	1	-1E+10	1
4901784	161	C	12/01/2019	10:47	-132.726	43.656	0	382.50	0	5.9530	0	36.2010	8	28.513	0	379.091	0	76.7	4	25.8	4	-1E+10	1	-1E+10	1	-1E+10	1	-1E+10	1	-1E+10	1	-1E+10	1
4901784	161	C	12/01/2019	10:47	-132.726	43.656	0	385.10	0	5.8880	0	36.2050	8	28.525	0	381.666	0	76.5	4	25.6	4	-1E+10	1	-1E+10	1	-1E+10	1	-1E+10	1	-1E+10	1	-1E+10	1
4901784	161	C	12/01/2019	10:47	-132.726	43.656	0	387.80	0	5.8750	0	36.2040	8	28.526	0	384.339	0	76.2	4	25.5	4	-1E+10	1	-1E+10	1	-1E+10	1	-1E+10	1	-1E+10	1	-1E+10	1
4901784	161	C	12/01/2019	10:47	-132.726	43.656	0	390.40	0	5.8490	0	36.2040	8	28.529	0	386.914	0	75.8	4	25.4	4	-1E+10	1	-1E+10	1	-1E+10	1	-1E+10	1	-1E+10	1	-1E+10	1
4901784	161	C	12/01/2019	10:47	-132.726	43.656	0	392.90	0	5.8320	0	36.2050	8	28.532	0	389.389	0	75.1	4	25.2	4	-1E+10	1	-1E+10	1	-1E+10	1	-1E+10	1	-1E+10	1	-1E+10	1
4901784	161	C	12/01/2019	10:47	-132.726	43.656	0	395.40	0	5.8200	0	36.2060	8	28.534	0	391.864	0	74.3	4	24.9	4	-1E+10	1	-1E+10	1	-1E+10	1	-1E+10	1	-1E+10	1	-1E+10	1
4901784	161	C	12/01/2019	10:47	-132.726	43.656	0	397.00	0	5.8170	0	36.2070	8	28.536	0	393.448	0	73.8	4	24.7	4	-1E+10	1	-1E+10	1	-1E+10	1	-1E+10	1	-1E+10	1	-1E+10	1
4901784	161	C	12/01/2019	10:47	-132.726	43.656	0	399.70	0	5.8120	0	36.2080	8	28.537	0	396.122	0	72.8	4	24.3	4	-1E+10	1	-1E+10	1	-1E+10	1	-1E+10	1	-1E+10	1	-1E+10	1
4901784	161	C	12/01/2019	10:47	-132.726	43.656	0	402.30	0	5.8080	0	36.2100	8	28.539	0	398.696	0	71.8	4	24.0	4	-1E+10	1	-1E+10	1	-1E+10	1	-1E+10	1	-1E+10	1	-1E+10	1
4901784	161	C	12/01/2019	10:47	-132.726	43.656	0	405.00	0	5.7950	0	36.2100	8	28.541	0	401.369	0	70.7	4	23.6	4	-1E+10	1	-1E+10	1	-1E+10	1	-1E+10	1	-1E+10	1	-1E+10	1
4901784	161	C	12/01/2019	10:47	-132.726	43.656	0	407.50	0	5.7670	0	36.2140	8	28.548	0	403.844	0	69.4	4	23.2	4	-1E+10	1	-1E+10	1	-1E+10	1	-1E+10	1	-1E+10	1	-1E+10	1
4901784	161	C	12/01/2019	10:47	-132.726	43.656	0	410.10	0	5.7500	0	36.2150	8	28.551	0	406.418	0	68.5	4	22.9	4	-1E+10	1	-1E+10	1	-1E+10	1	-1E+10	1	-1E+10	1	-1E+10	1
4901784	161	C	12/01/2019	10:47	-132.726	43.656	0	412.70	0	5.7240	0	36.2170	8	28.556	0	408.993	0	67.5	4	22.6	4	-1E+10	1	-1E+10	1	-1E+10	1	-1E+10	1	-1E+10	1	-1E+10	1
4901784	161	C	12/01/2019	10:47	-132.726	43.656	0	415.30	0	5.7030	0	36.2190	8	28.560	0	411.567	0	66.7	4	22.3	4	-1E+10	1	-1E+10	1	-1E+10	1	-1E+10	1	-1E+10	1	-1E+10	1
4901784	161	C	12/01/2019	10:47	-132.726	43.656	0	417.90	0	5.6700	0	36.2210	8	28.566	0	414.141	0	66.3	4	22.1	4	-1E+10	1	-1E+10	1	-1E+10	1	-1E+10	1	-1E+10	1	-1E+10	1
4901784	161	C	12/01/2019	10:47	-132.726	43.656	0	419.70	0	5.6470	0	36.2200	8	28.568	0	415.923	0	65.8	4	21.9	4	-1E+10	1	-1E+10	1	-1E+10	1	-1E+10	1	-1E+10	1	-1E+10	1
4901784	161	C	12/01/2019	10:47	-132.726	43.656	0	422.40	0	5.6260	0	36.2230	8	28.573	0	418.596	0	64.5	4	21.5	4	-1E+10	1	-1E+10	1	-1E+10	1	-1E+10	1	-1E+10	1	-1E+10	1
4901784	161	C	12/01/2019	10:47	-132.726	43.656	0	425.10	0	5.6250	0	36.2270	8	28.576	0	421.269	0	63.1	4	21.0	4	-1E+10	1	-1E+10	1	-1E+10	1	-1E+10	1	-1E+10	1	-1E+10	1
4901784	161	C	12/01/2019	10:47	-132.726	43.656	0	427.80	0	5.6180	0	36.2290	8	28.579	0	423.941	0	61.9	4	20.6	4	-1E+10	1	-1E+10	1	-1E+10	1	-1E+10	1	-1E+10	1	-1E+10	1
4901784	161	C	12/01/2019	10:47	-132.726	43.656	0	430.50	0	5.6080	0	36.2330	8	28.583	0	426.614	0	60.8	4	20.2	4	-1E+10	1	-1E+10	1	-1E+10	1	-1E+10	1	-1E+10	1	-1E+10	1
4901784	161	C	12/01/2019	10:47	-132.726	43.656	0	432.20	0	5.5920	0	36.2350	8	28.587	0	428.297	0	60.1	4	20.0	4	-1E+10	1	-1E+10	1	-1E+10	1	-1E+10	1	-1E+10	1	-1E+10	1
4901784	161	C	12/01/2019	10:47	-132.726	43.656	0	434.90	0	5.5830	0	36.2370	8	28.590	0	430.970	0	59.2	4	19.7	4	-1E+10	1	-1E+10	1	-1E+10	1	-1E+10	1	-1E+10	1	-1E+10	1
4901784	161	C	12/01/2019	10:47	-132.726	43.656	0	437.50	0	5.5700	0	36.2380	8	28.592	0	433.544	0	58.1	4	19.3	4	-1E+10	1	-1E+10	1	-1E+10	1	-1E+10	1	-1E+10	1	-1E+10	1
4901784	161	C	12/01/2019	10:47	-132.726	43.656	0	440.20	0	5.5510	0	36.2430	8	28.598	0	436.217	0	56.6	4	18.8	4	-1E+10	1	-1E+10	1	-1E+10	1	-1E+10	1	-1E+10	1	-1E+10	1
4901784	161	C	12/01/2019	10:47	-132.726	43.656	0	442.80	0	5.5540	0	36.2470	8	28.601	0	438.790	0	55.3	4	18.4	4	-1E+10	1	-1E+10	1	-1E+10	1	-1E+10	1	-1E+10	1	-1E+10	1
4901784	161	C	12/01/2019	10:47	-132.726	43.656	0	444.60	0	5.5470	0	36.2500	8	28.604	0	440.572	0	54.7	4	18.2	4	-1E+10	1	-1E+10	1	-1E+10	1	-1E+10	1	-1E+10	1	-1E+10	1
4901784	161	C	12/01/2019	10:47	-132.726	43.656	0	447.40	0	5.5190	0	36.2520	8	28.610	0	443.344	0	53.9	4	17.9	4	-1E+10	1	-1E+10	1	-1E+10	1	-1E+10	1	-1E+10	1	-1E+10	1
4901784	161	C	12/01/2019	10:47	-132.726	43.656	0	450.10	0	5.5060	0	36.2550	8	28.614	0	446.016	0	52.7	4	17.5	4	-1E+10	1	-1E+10	1	-1E+10	1	-1E+10	1	-1E+10	1	-1E+10	1
4901784	161	C	12/01/2019	10:47	-132.726	43.656	0	451.90	0	5.4990	0	36.2600	8	28.618	0	447.798	0	52.1	4	17.3	4	-1E+10	1	-1E+10	1	-1E+10	1	-1E+10	1	-1E+10	1	-1E+10	1
4901784	161	C	12/01/2019	10:47	-132.726	43.656	0	454.70	0	5.4950	0	36.2600	8	28.619	0	450.570	0	51.5	4	17.1	4	-1E+10	1	-1E+10	1	-1E+10	1	-1E+10	1	-1E+10	1	-1E+10	1
4901784	161	C	12/01/2019	10:47	-132.726	43.656	0	457.40	0	5.4680	0	36.2630	8	28.625	0	453.242	0	51.0	4	16.9	4	-1E+10	1	-1E+10	1	-1E+10	1	-1E+10	1	-1E+10	1	-1E+10	1
4901784	161	C	12/01/2019	10:47	-132.726	43.656	0	460.20	0	5.4450	0	36.2650	8	28.629	0	456.014	0	50.6	4	16.8	4	-1E+10	1	-1E+10	1	-1E+10	1	-1E+10	1	-1E+10	1	-1E+10	1
4901784	161	C	12/01/2019	10:47	-132.726	43.656	0	463.00	0	5.4310	0	36.2660	8	28.632	0	458.785	0	50.2	4	16.6	4	-1E+10	1	-1E+10	1	-1E+10	1	-1E+10	1	-1E+10	1	-1E+10	1
4901784	161	C	12/01/2019	10:47	-132.726	43.656	0	464.90	0	5.4060	0	36.2680	8	28.637	0	460.666	0	49.9	4	16.6	4	-1E+10	1	-1E+10	1	-1E+10	1	-1E+10	1	-1E+10	1	-1E+10	1
4901784	161	C	12/01/2019	10:47	-132.726	43.656	0	467.60	0	5.3960	0	36.2690	8	28.639	0	463.338	0	49.9	4	16.6	4	-1E+10	1	-1E+10	1	-1E+10	1	-1E+10	1	-1E+10	1	-1E+10	1
4901784	161	C	12/01/2019	10:47	-132.726	43.656	0	470.40	0	5.3690	0	36.2700	8	28.643	0	466.109	0	50.2	4	16.6	4	-1E+10	1	-1E+10	1	-1E+10	1	-1E+10	1	-1E+10	1	-1E+10	1
4901784	161	C	12/01/2019	10:47	-132.726	43.656	0	472.20	0	5.3530	0	36.2700	8	28.645	0	467.891	0	50.8	4	16.8	4	-1E+10	1	-1E+10	1	-1E+10	1	-1E+10	1	-1E+10	1	-1E+10	1
4901784	161	C	12/01/2019	10:47	-132.726	43.656	0	475.00	0	5.2820	0	36.2660	8	28.650	0	470.662	0	51.9	4	17.2	4	-1E+10	1	-1E+10	1	-1E+10	1	-1E+10	1	-1E+10	1	-1E+10	1
4901784	161	C	12/01/2019	10:47	-132.726	43.656	0	477.70	0	5.2090	0	36.2590	8	28.654	0	473.335	0	52.3	4	17.3	4	-1E+10	1	-1E+10	1	-1E+10	1	-1E+10	1	-1E+10	1	-1E+10	1
4901784	161	C	12/01/2019	10:47	-132.726	43.656	0	479.60	0	5.2150	0	36.2600	8	28.654	0	475.215	0	52.0	4	17.2	4	-1E+10	1	-1E+10	1	-1E+10	1	-1E+10	1	-1E+10	1	-1E+10	1
4901784	161	C	12/01/2019	10:47	-132.726	43.656	0	482.50	0	5.1690	0	36.2600	8	28.659	0	478.085	0	51.5	4	17.0	4	-1E+10	1	-1E+10	1	-1E+10	1	-1E+10	1	-1E+10	1	-1E+10	1
4901784	161	C	12/01/2019	10:47	-132.726	43.656	0	484.90	0	5.1440	0	36.2630	8	28.665	0	480.460	0	50.9	4	16.8	4	-1E+10	1	-1E+10	1	-1E+10	1	-1E+10	1	-1E+10	1	-1E+10	1
4901784	161	C	12/01/2019	10:47	-132.726	43.656	0	487.30	0	5.1330	0	36.2650	8	28.668	0	482.836	0	50.0	4	16.5	4	-1E+10	1	-1E+10	1	-1E+10	1	-1E+10	1	-1E+10	1	-1E+10	1
4901784	161	C	12/01/2019	10:47	-132.726	43.656	0	489.60	0	5.1180	0	36.2690	8	28.673	0	485.112	0	49.4	4	16.3	4	-1E+10	1	-1E+10	1	-1E+10	1	-1E+10	1	-1E+10	1	-1E+10	1
4901784	161	C	12/01/2019	10:47	-132.726	43.656	0	492.70	0	5.0970	0	36.2710	8	28.677	0	488.180	0	48.6	4	16.0	4	-1E+10	1	-1E+10	1	-1E+10	1	-1E+10	1	-1E+10	1	-1E+10	1
4901784	161	C	12/01/2019	10:47	-132.726	43.656	0	495.10	0	5.0890	0	36.2710	8	28.678	0	490.555	0	48.2	4	15.9	4	-1E+10	1	-1E+10	1	-1E+10	1	-1E+10	1	-1E+10	1	-1E+10	1
4901784	161	C	12/01/2019	10:47	-132.726	43.656	0	497.50	0	5.0410	0	36.2740	8	28.686	0	492.930	0	47.4	4	15.6	4	-1E+10	1	-1E+10	1	-1E+10	1	-1E+10	1	-1E+10	1	-1E+10	1
4901784	161	C	12/01/2019	10:47	-132.726	43.656	0	499.90	0	5.0290	0	36.2770	8	28.690	0	495.305	0	46.1	4	15.2	4	-1E+10	1	-1E+10	1	-1E+10	1	-1E+10	1	-1E+10	1	-1E+10	1
4901784	161	C	12/01/2019	10:47	-132.726	43.656	0	504.80	0	5.0480	0	36.2900	8	28.698	0	500.154	0	43.8	4	14.4	4	-1E+10	1	-1E+10	1	-1E+10	1	-1E+10	1	-1E+10	1	-1E+10	1
4901784	161	C	12/01/2019	10:47	-132.726	43.656	0	509.70	0	5.0220	0	36.2960	8	28.706	0	505.003	0	42.6	4	14.0	4	-1E+10	1	-1E+10	1	-1E+10	1	-1E+10	1	-1E+10	1	-1E+10	1
4901784	161	C	12/01/2019	10:47	-132.726	43.656	0	514.60	0	5.0180	0	36.3020	8	28.711	0	509.852	0	41.2	4	13.5	4	-1E+10	1	-1E+10	1	-1E+10	1	-1E+10	1	-1E+10	1	-1E+10	1
4901784	161	C	12/01/2019	10:47	-132.726	43.656	0	519.60	0	4.9990	0	36.3070	8	28.718	0	514.800	0	40.3	4	13.2	4	-1E+10	1	-1E+10	1	-1E+10	1	-1E+10	1	-1E+10	1	-1E+10	1
4901784	161	C	12/01/2019	10:47	-132.726	43.656	0	524.60	0	4.9530	0	36.3120	8	28.727	0	519.747	0	39.5	4	13.0	4	-1E+10	1	-1E+10	1	-1E+10	1	-1E+10	1	-1E+10	1	-1E+10	1
4901784	161	C	12/01/2019	10:47	-132.726	43.656	0	529.80	0	4.9430	0	36.3160	8	28.731	0	524.893	0	38.2	4	12.5	4	-1E+10	1	-1E+10	1	-1E+10	1	-1E+10	1	-1E+10	1	-1E+10	1
4901784	161	C	12/01/2019	10:47	-132.726	43.656	0	534.90	0	4.9530	0	36.3240	8	28.737	0	529.939	0	36.9	4	12.1	4	-1E+10	1	-1E+10	1	-1E+10	1	-1E+10	1	-1E+10	1	-1E+10	1
4901784	161	C	12/01/2019	10:47	-132.726	43.656	0	540.00	0	4.9510	0	36.3280	8	28.740	0	534.985	0	36.0	4	11.8	4	-1E+10	1	-1E+10	1	-1E+10	1	-1E+10	1	-1E+10	1	-1E+10	1
4901784	161	C	12/01/2019	10:47	-132.726	43.656	0	544.90	0	4.9190	0	36.3320	8	28.747	0	539.833	0	35.7	4	11.7	4	-1E+10	1	-1E+10	1	-1E+10	1	-1E+10	1	-1E+10	1	-1E+10	1
4901784	161	C	12/01/2019	10:47	-132.726	43.656	0	549.80	0	4.8980	0	36.3340	8	28.751	0	544.681	0	34.9	4	11.4	4	-1E+10	1	-1E+10	1	-1E+10	1	-1E+10	1	-1E+10	1	-1E+10	1
4901784	161	C	12/01/2019	10:47	-132.726	43.656	0	554.90	0	4.8830	0	36.3400	8	28.758	0	549.727	0	33.9	4	11.1	4	-1E+10	1	-1E+10	1	-1E+10	1	-1E+10	1	-1E+10	1	-1E+10	1
4901784	161	C	12/01/2019	10:47	-132.726	43.656	0	560.10	0	4.8770	0	36.3450	8	28.763	0	554.872	0	32.9	4	10.8	4	-1E+10	1	-1E+10	1	-1E+10	1	-1E+10	1	-1E+10	1	-1E+10	1
4901784	161	C	12/01/2019	10:47	-132.726	43.656	0	565.40	0	4.8830	0	36.3500	8	28.766	0	560.115	0	31.5	4	10.3	4	-1E+10	1	-1E+10	1	-1E+10	1	-1E+10	1	-1E+10	1	-1E+10	1
4901784	161	C	12/01/2019	10:47	-132.726	43.656	0	570.70	0	4.8910	0	36.3580	8	28.771	0	565.358	0	29.5	4	9.7	4	-1E+10	1	-1E+10	1	-1E+10	1	-1E+10	1	-1E+10	1	-1E+10	1
4901784	161	C	12/01/2019	10:47	-132.726	43.656	0	575.10	0	4.9090	0	36.3700	8	28.779	0	569.711	0	28.0	4	9.2	4	-1E+10	1	-1E+10	1	-1E+10	1	-1E+10	1	-1E+10	1	-1E+10	1
4901784	161	C	12/01/2019	10:47	-132.726	43.656	0	579.60	0	4.9150	0	36.3710	8	28.779	0	574.163	0	27.8	4	9.1	4	-1E+10	1	-1E+10	1	-1E+10	1	-1E+10	1	-1E+10	1	-1E+10	1
4901784	161	C	12/01/2019	10:47	-132.726	43.656	0	585.00	0	4.8210	0	36.3700	8	28.789	0	579.504	0	28.3	4	9.3	4	-1E+10	1	-1E+10	1	-1E+10	1	-1E+10	1	-1E+10	1	-1E+10	1
4901784	161	C	12/01/2019	10:47	-132.726	43.656	0	590.40	0	4.7420	0	36.3700	8	28.799	0	584.846	0	28.3	4	9.2	4	-1E+10	1	-1E+10	1	-1E+10	1	-1E+10	1	-1E+10	1	-1E+10	1
4901784	161	C	12/01/2019	10:47	-132.726	43.656	0	595.10	0	4.7000	0	36.3740	8	28.807	0	589.495	0	27.7	4	9.1	4	-1E+10	1	-1E+10	1	-1E+10	1	-1E+10	1	-1E+10	1	-1E+10	1
4901784	161	C	12/01/2019	10:47	-132.726	43.656	0	599.70	0	4.6770	0	36.3780	8	28.812	0	594.045	0	26.9	4	8.8	4	-1E+10	1	-1E+10	1	-1E+10	1	-1E+10	1	-1E+10	1	-1E+10	1
4901784	161	C	12/01/2019	10:47	-132.726	43.656	0	605.30	0	4.6760	0	36.3860	8	28.819	0	599.585	0	26.0	4	8.5	4	-1E+10	1	-1E+10	1	-1E+10	1	-1E+10	1	-1E+10	1	-1E+10	1
4901784	161	C	12/01/2019	10:47	-132.726	43.656	0	610.00	0	4.6510	0	36.3880	8	28.824	0	604.233	0	25.8	4	8.4	4	-1E+10	1	-1E+10	1	-1E+10	1	-1E+10	1	-1E+10	1	-1E+10	1
4901784	161	C	12/01/2019	10:47	-132.726	43.656	0	614.50	0	4.6260	0	36.3880	8	28.826	0	608.684	0	25.3	4	8.2	4	-1E+10	1	-1E+10	1	-1E+10	1	-1E+10	1	-1E+10	1	-1E+10	1
4901784	161	C	12/01/2019	10:47	-132.726	43.656	0	620.00	0	4.6030	0	36.3940	8	28.834	0	614.124	0	24.3	4	7.9	4	-1E+10	1	-1E+10	1	-1E+10	1	-1E+10	1	-1E+10	1	-1E+10	1
4901784	161	C	12/01/2019	10:47	-132.726	43.656	0	625.60	0	4.5590	0	36.4020	8	28.845	0	619.663	0	23.1	4	7.5	4	-1E+10	1	-1E+10	1	-1E+10	1	-1E+10	1	-1E+10	1	-1E+10	1
4901784	161	C	12/01/2019	10:47	-132.726	43.656	0	630.30	0	4.5450	0	36.4090	8	28.853	0	624.311	0	21.9	4	7.1	4	-1E+10	1	-1E+10	1	-1E+10	1	-1E+10	1	-1E+10	1	-1E+10	1
4901784	161	C	12/01/2019	10:47	-132.726	43.656	0	634.90	0	4.5660	0	36.4210	8	28.860	0	628.860	0	20.4	4	6.7	4	-1E+10	1	-1E+10	1	-1E+10	1	-1E+10	1	-1E+10	1	-1E+10	1
4901784	161	C	12/01/2019	10:47	-132.726	43.656	0	640.60	0	4.5600	0	36.4280	8	28.866	0	634.497	0	19.9	4	6.5	4	-1E+10	1	-1E+10	1	-1E+10	1	-1E+10	1	-1E+10	1	-1E+10	1
4901784	161	C	12/01/2019	10:47	-132.726	43.656	0	645.20	0	4.5060	0	36.4310	8	28.875	0	639.047	0	19.6	4	6.4	4	-1E+10	1	-1E+10	1	-1E+10	1	-1E+10	1	-1E+10	1	-1E+10	1
4901784	161	C	12/01/2019	10:47	-132.726	43.656	0	649.80	0	4.4900	0	36.4360	8	28.880	0	643.596	0	18.9	4	6.1	4	-1E+10	1	-1E+10	1	-1E+10	1	-1E+10	1	-1E+10	1	-1E+10	1
4901784	161	C	12/01/2019	10:47	-132.726	43.656	0	655.30	0	4.5060	0	36.4420	8	28.884	0	649.035	0	17.9	4	5.8	4	-1E+10	1	-1E+10	1	-1E+10	1	-1E+10	1	-1E+10	1	-1E+10	1
4901784	161	C	12/01/2019	10:47	-132.726	43.656	0	659.80	0	4.4740	0	36.4490	8	28.893	0	653.484	0	17.6	4	5.7	4	-1E+10	1	-1E+10	1	-1E+10	1	-1E+10	1	-1E+10	1	-1E+10	1
4901784	161	C	12/01/2019	10:47	-132.726	43.656	0	664.50	0	4.4390	0	36.4490	8	28.897	0	658.132	0	17.7	4	5.7	4	-1E+10	1	-1E+10	1	-1E+10	1	-1E+10	1	-1E+10	1	-1E+10	1
4901784	161	C	12/01/2019	10:47	-132.726	43.656	0	670.10	0	4.3450	0	36.4480	8	28.907	0	663.669	0	17.4	4	5.6	4	-1E+10	1	-1E+10	1	-1E+10	1	-1E+10	1	-1E+10	1	-1E+10	1
4901784	161	C	12/01/2019	10:47	-132.726	43.656	0	674.70	0	4.3950	0	36.4600	8	28.911	0	668.218	0	16.9	4	5.5	4	-1E+10	1	-1E+10	1	-1E+10	1	-1E+10	1	-1E+10	1	-1E+10	1
4901784	161	C	12/01/2019	10:47	-132.726	43.656	0	679.60	0	4.2880	0	36.4520	8	28.916	0	673.063	0	17.2	4	5.5	4	-1E+10	1	-1E+10	1	-1E+10	1	-1E+10	1	-1E+10	1	-1E+10	1
4901784	161	C	12/01/2019	10:47	-132.726	43.656	0	685.30	0	4.2600	0	36.4560	8	28.923	0	678.699	0	16.7	4	5.4	4	-1E+10	1	-1E+10	1	-1E+10	1	-1E+10	1	-1E+10	1	-1E+10	1
4901784	161	C	12/01/2019	10:47	-132.726	43.656	0	690.10	0	4.2220	0	36.4600	8	28.930	0	683.445	0	16.3	4	5.3	4	-1E+10	1	-1E+10	1	-1E+10	1	-1E+10	1	-1E+10	1	-1E+10	1
4901784	161	C	12/01/2019	10:47	-132.726	43.656	0	694.90	0	4.2100	0	36.4630	8	28.934	0	688.191	0	15.9	4	5.1	4	-1E+10	1	-1E+10	1	-1E+10	1	-1E+10	1	-1E+10	1	-1E+10	1
4901784	161	C	12/01/2019	10:47	-132.726	43.656	0	699.70	0	4.1880	0	36.4720	8	28.943	0	692.936	0	15.3	4	4.9	4	-1E+10	1	-1E+10	1	-1E+10	1	-1E+10	1	-1E+10	1	-1E+10	1
4901784	161	C	12/01/2019	10:47	-132.726	43.656	0	704.70	0	4.1570	0	36.4800	8	28.953	0	697.880	0	15.1	4	4.9	4	-1E+10	1	-1E+10	1	-1E+10	1	-1E+10	1	-1E+10	1	-1E+10	1
4901784	161	C	12/01/2019	10:47	-132.726	43.656	0	710.50	0	4.1320	0	36.4830	8	28.958	0	703.614	0	15.0	4	4.8	4	-1E+10	1	-1E+10	1	-1E+10	1	-1E+10	1	-1E+10	1	-1E+10	1
4901784	161	C	12/01/2019	10:47	-132.726	43.656	0	715.30	0	4.1210	0	36.4840	8	28.960	0	708.359	0	14.9	4	4.8	4	-1E+10	1	-1E+10	1	-1E+10	1	-1E+10	1	-1E+10	1	-1E+10	1
4901784	161	C	12/01/2019	10:47	-132.726	43.656	0	719.80	0	4.1120	0	36.4870	8	28.964	0	712.808	0	14.6	4	4.7	4	-1E+10	1	-1E+10	1	-1E+10	1	-1E+10	1	-1E+10	1	-1E+10	1
4901784	161	C	12/01/2019	10:47	-132.726	43.656	0	724.20	0	4.1050	0	36.4910	8	28.968	0	717.157	0	14.4	4	4.6	4	-1E+10	1	-1E+10	1	-1E+10	1	-1E+10	1	-1E+10	1	-1E+10	1
4901784	161	C	12/01/2019	10:47	-132.726	43.656	0	729.20	0	4.0880	0	36.4950	8	28.973	0	722.100	0	14.1	4	4.6	4	-1E+10	1	-1E+10	1	-1E+10	1	-1E+10	1	-1E+10	1	-1E+10	1
4901784	161	C	12/01/2019	10:47	-132.726	43.656	0	735.00	0	4.0730	0	36.5000	8	28.979	0	727.833	0	13.9	4	4.5	4	-1E+10	1	-1E+10	1	-1E+10	1	-1E+10	1	-1E+10	1	-1E+10	1
4901784	161	C	12/01/2019	10:47	-132.726	43.656	0	740.00	0	4.0520	0	36.5030	8	28.983	0	732.776	0	13.8	4	4.4	4	-1E+10	1	-1E+10	1	-1E+10	1	-1E+10	1	-1E+10	1	-1E+10	1
4901784	161	C	12/01/2019	10:47	-132.726	43.656	0	744.30	0	4.0310	0	36.5060	8	28.988	0	737.026	0	13.5	4	4.4	4	-1E+10	1	-1E+10	1	-1E+10	1	-1E+10	1	-1E+10	1	-1E+10	1
4901784	161	C	12/01/2019	10:47	-132.726	43.656	0	749.30	0	4.0080	0	36.5120	8	28.995	0	741.969	0	13.3	4	4.3	4	-1E+10	1	-1E+10	1	-1E+10	1	-1E+10	1	-1E+10	1	-1E+10	1
4901784	161	C	12/01/2019	10:47	-132.726	43.656	0	754.50	0	3.9680	0	36.5180	8	29.004	0	747.108	0	13.1	4	4.2	4	-1E+10	1	-1E+10	1	-1E+10	1	-1E+10	1	-1E+10	1	-1E+10	1
4901784	161	C	12/01/2019	10:47	-132.726	43.656	0	759.60	0	3.9570	0	36.5230	8	29.010	0	752.149	0	12.9	4	4.1	4	-1E+10	1	-1E+10	1	-1E+10	1	-1E+10	1	-1E+10	1	-1E+10	1
4901784	161	C	12/01/2019	10:47	-132.726	43.656	0	764.80	0	3.9460	0	36.5280	8	29.015	0	757.289	0	12.7	4	4.1	4	-1E+10	1	-1E+10	1	-1E+10	1	-1E+10	1	-1E+10	1	-1E+10	1
4901784	161	C	12/01/2019	10:47	-132.726	43.656	0	770.00	0	3.9360	0	36.5320	8	29.019	0	762.428	0	12.5	4	4.0	4	-1E+10	1	-1E+10	1	-1E+10	1	-1E+10	1	-1E+10	1	-1E+10	1
4901784	161	C	12/01/2019	10:47	-132.726	43.656	0	775.30	0	3.9290	0	36.5330	8	29.021	0	767.666	0	12.4	4	4.0	4	-1E+10	1	-1E+10	1	-1E+10	1	-1E+10	1	-1E+10	1	-1E+10	1
4901784	161	C	12/01/2019	10:47	-132.726	43.656	0	780.60	0	3.9140	0	36.5360	8	29.025	0	772.904	0	12.3	4	3.9	4	-1E+10	1	-1E+10	1	-1E+10	1	-1E+10	1	-1E+10	1	-1E+10	1
4901784	161	C	12/01/2019	10:47	-132.726	43.656	0	785.00	0	3.9060	0	36.5400	8	29.029	0	777.253	0	12.1	4	3.9	4	-1E+10	1	-1E+10	1	-1E+10	1	-1E+10	1	-1E+10	1	-1E+10	1
4901784	161	C	12/01/2019	10:47	-132.726	43.656	0	789.50	0	3.8990	0	36.5420	8	29.031	0	781.700	0	12.0	4	3.8	4	-1E+10	1	-1E+10	1	-1E+10	1	-1E+10	1	-1E+10	1	-1E+10	1
4901784	161	C	12/01/2019	10:47	-132.726	43.656	0	794.90	0	3.8810	0	36.5460	8	29.036	0	787.037	0	11.8	4	3.8	4	-1E+10	1	-1E+10	1	-1E+10	1	-1E+10	1	-1E+10	1	-1E+10	1
4901784	161	C	12/01/2019	10:47	-132.726	43.656	0	800.30	0	3.8540	0	36.5530	8	29.045	0	792.373	0	11.6	4	3.7	4	-1E+10	1	-1E+10	1	-1E+10	1	-1E+10	1	-1E+10	1	-1E+10	1
4901784	161	C	12/01/2019	10:47	-132.726	43.656	0	805.10	0	3.8460	0	36.5560	8	29.048	0	797.116	0	11.6	4	3.7	4	-1E+10	1	-1E+10	1	-1E+10	1	-1E+10	1	-1E+10	1	-1E+10	1
4901784	161	C	12/01/2019	10:47	-132.726	43.656	0	810.10	0	3.8340	0	36.5590	8	29.052	0	802.057	0	11.4	4	3.7	4	-1E+10	1	-1E+10	1	-1E+10	1	-1E+10	1	-1E+10	1	-1E+10	1
4901784	161	C	12/01/2019	10:47	-132.726	43.656	0	815.50	0	3.8200	0	36.5630	8	29.057	0	807.393	0	11.3	4	3.6	4	-1E+10	1	-1E+10	1	-1E+10	1	-1E+10	1	-1E+10	1	-1E+10	1
4901784	161	C	12/01/2019	10:47	-132.726	43.656	0	820.20	0	3.8090	0	36.5680	8	29.062	0	812.037	0	11.2	4	3.6	4	-1E+10	1	-1E+10	1	-1E+10	1	-1E+10	1	-1E+10	1	-1E+10	1
4901784	161	C	12/01/2019	10:47	-132.726	43.656	0	824.90	0	3.8000	0	36.5730	8	29.067	0	816.681	0	11.1	4	3.5	4	-1E+10	1	-1E+10	1	-1E+10	1	-1E+10	1	-1E+10	1	-1E+10	1
4901784	161	C	12/01/2019	10:47	-132.726	43.656	0	829.70	0	3.7940	0	36.5750	8	29.069	0	821.424	0	11.0	4	3.5	4	-1E+10	1	-1E+10	1	-1E+10	1	-1E+10	1	-1E+10	1	-1E+10	1
4901784	161	C	12/01/2019	10:47	-132.726	43.656	0	834.60	0	3.7860	0	36.5780	8	29.072	0	826.265	0	10.9	4	3.5	4	-1E+10	1	-1E+10	1	-1E+10	1	-1E+10	1	-1E+10	1	-1E+10	1
4901784	161	C	12/01/2019	10:47	-132.726	43.656	0	839.60	0	3.7780	0	36.5810	8	29.075	0	831.205	0	10.8	4	3.5	4	-1E+10	1	-1E+10	1	-1E+10	1	-1E+10	1	-1E+10	1	-1E+10	1
4901784	161	C	12/01/2019	10:47	-132.726	43.656	0	844.60	0	3.7750	0	36.5820	8	29.077	0	836.145	0	10.8	4	3.5	4	-1E+10	1	-1E+10	1	-1E+10	1	-1E+10	1	-1E+10	1	-1E+10	1
4901784	161	C	12/01/2019	10:47	-132.726	43.656	0	849.60	0	3.7650	0	36.5850	8	29.080	0	841.085	0	10.7	4	3.4	4	-1E+10	1	-1E+10	1	-1E+10	1	-1E+10	1	-1E+10	1	-1E+10	1
4901784	161	C	12/01/2019	10:47	-132.726	43.656	0	854.70	0	3.7440	0	36.5870	8	29.084	0	846.124	0	10.7	4	3.4	4	-1E+10	1	-1E+10	1	-1E+10	1	-1E+10	1	-1E+10	1	-1E+10	1
4901784	161	C	12/01/2019	10:47	-132.726	43.656	0	859.80	0	3.7300	0	36.5890	8	29.087	0	851.162	0	10.7	4	3.4	4	-1E+10	1	-1E+10	1	-1E+10	1	-1E+10	1	-1E+10	1	-1E+10	1
4901784	161	C	12/01/2019	10:47	-132.726	43.656	0	865.00	0	3.7100	0	36.5930	8	29.092	0	856.299	0	10.6	4	3.4	4	-1E+10	1	-1E+10	1	-1E+10	1	-1E+10	1	-1E+10	1	-1E+10	1
4901784	161	C	12/01/2019	10:47	-132.726	43.656	0	870.20	0	3.6990	0	36.5970	8	29.097	0	861.436	0	10.6	4	3.4	4	-1E+10	1	-1E+10	1	-1E+10	1	-1E+10	1	-1E+10	1	-1E+10	1
4901784	161	C	12/01/2019	10:47	-132.726	43.656	0	875.50	0	3.6910	0	36.5980	8	29.098	0	866.672	0	10.5	4	3.4	4	-1E+10	1	-1E+10	1	-1E+10	1	-1E+10	1	-1E+10	1	-1E+10	1
4901784	161	C	12/01/2019	10:47	-132.726	43.656	0	880.00	0	3.6810	0	36.6010	8	29.102	0	871.117	0	10.5	4	3.3	4	-1E+10	1	-1E+10	1	-1E+10	1	-1E+10	1	-1E+10	1	-1E+10	1
4901784	161	C	12/01/2019	10:47	-132.726	43.656	0	884.50	0	3.6730	0	36.6040	8	29.105	0	875.562	0	10.5	4	3.3	4	-1E+10	1	-1E+10	1	-1E+10	1	-1E+10	1	-1E+10	1	-1E+10	1
4901784	161	C	12/01/2019	10:47	-132.726	43.656	0	889.80	0	3.6750	0	36.6060	8	29.107	0	880.798	0	10.4	4	3.3	4	-1E+10	1	-1E+10	1	-1E+10	1	-1E+10	1	-1E+10	1	-1E+10	1
4901784	161	C	12/01/2019	10:47	-132.726	43.656	0	895.20	0	3.6770	0	36.6070	8	29.107	0	886.132	0	10.3	4	3.3	4	-1E+10	1	-1E+10	1	-1E+10	1	-1E+10	1	-1E+10	1	-1E+10	1
4901784	161	C	12/01/2019	10:47	-132.726	43.656	0	900.40	0	3.6680	0	36.6110	8	29.111	0	891.268	0	10.3	4	3.3	4	-1E+10	1	-1E+10	1	-1E+10	1	-1E+10	1	-1E+10	1	-1E+10	1
4901784	161	C	12/01/2019	10:47	-132.726	43.656	0	904.90	0	3.6570	0	36.6150	8	29.116	0	895.713	0	10.2	4	3.3	4	-1E+10	1	-1E+10	1	-1E+10	1	-1E+10	1	-1E+10	1	-1E+10	1
4901784	161	C	12/01/2019	10:47	-132.726	43.656	0	909.30	0	3.6480	0	36.6200	8	29.121	0	900.059	0	10.2	4	3.3	4	-1E+10	1	-1E+10	1	-1E+10	1	-1E+10	1	-1E+10	1	-1E+10	1
4901784	161	C	12/01/2019	10:47	-132.726	43.656	0	914.70	0	3.6440	0	36.6220	8	29.123	0	905.392	0	10.2	4	3.3	4	-1E+10	1	-1E+10	1	-1E+10	1	-1E+10	1	-1E+10	1	-1E+10	1
4901784	161	C	12/01/2019	10:47	-132.726	43.656	0	920.10	0	3.6310	0	36.6250	8	29.127	0	910.725	0	10.2	4	3.2	4	-1E+10	1	-1E+10	1	-1E+10	1	-1E+10	1	-1E+10	1	-1E+10	1
4901784	161	C	12/01/2019	10:47	-132.726	43.656	0	925.50	0	3.6170	0	36.6290	8	29.131	0	916.058	0	10.1	4	3.2	4	-1E+10	1	-1E+10	1	-1E+10	1	-1E+10	1	-1E+10	1	-1E+10	1
4901784	161	C	12/01/2019	10:47	-132.726	43.656	0	930.00	0	3.6110	0	36.6310	8	29.134	0	920.503	0	10.1	4	3.2	4	-1E+10	1	-1E+10	1	-1E+10	1	-1E+10	1	-1E+10	1	-1E+10	1
4901784	161	C	12/01/2019	10:47	-132.726	43.656	0	934.50	0	3.6030	0	36.6330	8	29.136	0	924.947	0	10.1	4	3.2	4	-1E+10	1	-1E+10	1	-1E+10	1	-1E+10	1	-1E+10	1	-1E+10	1
4901784	161	C	12/01/2019	10:47	-132.726	43.656	0	939.90	0	3.5930	0	36.6360	8	29.139	0	930.280	0	10.1	4	3.2	4	-1E+10	1	-1E+10	1	-1E+10	1	-1E+10	1	-1E+10	1	-1E+10	1
4901784	161	C	12/01/2019	10:47	-132.726	43.656	0	945.30	0	3.5780	0	36.6390	8	29.143	0	935.612	0	10.1	4	3.2	4	-1E+10	1	-1E+10	1	-1E+10	1	-1E+10	1	-1E+10	1	-1E+10	1
4901784	161	C	12/01/2019	10:47	-132.726	43.656	0	950.70	0	3.5620	0	36.6430	8	29.148	0	940.945	0	10.1	4	3.2	4	-1E+10	1	-1E+10	1	-1E+10	1	-1E+10	1	-1E+10	1	-1E+10	1
4901784	161	C	12/01/2019	10:47	-132.726	43.656	0	955.20	0	3.5470	0	36.6480	8	29.154	0	945.388	0	10.2	4	3.2	4	-1E+10	1	-1E+10	1	-1E+10	1	-1E+10	1	-1E+10	1	-1E+10	1
4901784	161	C	12/01/2019	10:47	-132.726	43.656	0	959.70	0	3.5400	0	36.6510	8	29.157	0	949.832	0	10.2	4	3.3	4	-1E+10	1	-1E+10	1	-1E+10	1	-1E+10	1	-1E+10	1	-1E+10	1
4901784	161	C	12/01/2019	10:47	-132.726	43.656	0	965.30	0	3.5240	0	36.6560	8	29.163	0	955.362	0	10.3	4	3.3	4	-1E+10	1	-1E+10	1	-1E+10	1	-1E+10	1	-1E+10	1	-1E+10	1
4901784	161	C	12/01/2019	10:47	-132.726	43.656	0	969.90	0	3.5060	0	36.6600	8	29.168	0	959.904	0	10.3	4	3.3	4	-1E+10	1	-1E+10	1	-1E+10	1	-1E+10	1	-1E+10	1	-1E+10	1
4901784	161	C	12/01/2019	10:47	-132.726	43.656	0	974.50	0	3.5000	0	36.6620	8	29.170	0	964.446	0	10.3	4	3.3	4	-1E+10	1	-1E+10	1	-1E+10	1	-1E+10	1	-1E+10	1	-1E+10	1
4901784	161	C	12/01/2019	10:47	-132.726	43.656	0	980.10	0	3.4900	0	36.6640	8	29.173	0	969.975	0	10.4	4	3.3	4	-1E+10	1	-1E+10	1	-1E+10	1	-1E+10	1	-1E+10	1	-1E+10	1
4901784	161	C	12/01/2019	10:47	-132.726	43.656	0	984.90	0	3.4850	0	36.6650	8	29.174	0	974.714	0	10.4	4	3.3	4	-1E+10	1	-1E+10	1	-1E+10	1	-1E+10	1	-1E+10	1	-1E+10	1
4901784	161	C	12/01/2019	10:47	-132.726	43.656	0	989.70	0	3.4700	0	36.6690	8	29.179	0	979.453	0	10.5	4	3.3	4	-1E+10	1	-1E+10	1	-1E+10	1	-1E+10	1	-1E+10	1	-1E+10	1
4901784	161	C	12/01/2019	10:47	-132.726	43.656	0	995.40	0	3.4580	0	36.6710	8	29.182	0	985.081	0	10.5	4	3.3	4	-1E+10	1	-1E+10	1	-1E+10	1	-1E+10	1	-1E+10	1	-1E+10	1
4901784	161	C	12/01/2019	10:47	-132.726	43.656	0	1000.20	0	3.4500	0	36.6720	8	29.183	0	989.820	0	10.5	4	3.3	4	-1E+10	1	-1E+10	1	-1E+10	1	-1E+10	1	-1E+10	1	-1E+10	1
4901784	161	C	12/01/2019	10:47	-132.726	43.656	0	1005.00	0	3.4360	0	36.6750	8	29.187	0	994.559	0	10.6	4	3.4	4	-1E+10	1	-1E+10	1	-1E+10	1	-1E+10	1	-1E+10	1	-1E+10	1
4901784	161	C	12/01/2019	10:47	-132.726	43.656	0	1009.80	0	3.4270	0	36.6760	8	29.189	0	999.297	0	10.6	4	3.4	4	-1E+10	1	-1E+10	1	-1E+10	1	-1E+10	1	-1E+10	1	-1E+10	1
4901784	161	C	12/01/2019	10:47	-132.726	43.656	0	1014.50	0	3.4100	0	36.6800	8	29.194	0	1003.937	0	10.7	4	3.4	4	-1E+10	1	-1E+10	1	-1E+10	1	-1E+10	1	-1E+10	1	-1E+10	1
4901784	161	C	12/01/2019	10:47	-132.726	43.656	0	1020.30	0	3.3960	0	36.6840	8	29.199	0	1009.663	0	10.7	4	3.4	4	-1E+10	1	-1E+10	1	-1E+10	1	-1E+10	1	-1E+10	1	-1E+10	1
4901784	161	C	12/01/2019	10:47	-132.726	43.656	0	1025.10	0	3.3880	0	36.6870	8	29.202	0	1014.401	0	10.8	4	3.4	4	-1E+10	1	-1E+10	1	-1E+10	1	-1E+10	1	-1E+10	1	-1E+10	1
4901784	161	C	12/01/2019	10:47	-132.726	43.656	0	1029.80	0	3.3810	0	36.6880	8	29.203	0	1019.041	0	10.8	4	3.4	4	-1E+10	1	-1E+10	1	-1E+10	1	-1E+10	1	-1E+10	1	-1E+10	1
4901784	161	C	12/01/2019	10:47	-132.726	43.656	0	1035.50	0	3.3720	0	36.6900	8	29.206	0	1024.667	0	10.9	4	3.4	4	-1E+10	1	-1E+10	1	-1E+10	1	-1E+10	1	-1E+10	1	-1E+10	1
4901784	161	C	12/01/2019	10:47	-132.726	43.656	0	1040.40	0	3.3660	0	36.6920	8	29.208	0	1029.504	0	10.9	4	3.5	4	-1E+10	1	-1E+10	1	-1E+10	1	-1E+10	1	-1E+10	1	-1E+10	1
4901784	161	C	12/01/2019	10:47	-132.726	43.656	0	1044.90	0	3.3600	0	36.6930	8	29.210	0	1033.946	0	10.9	4	3.5	4	-1E+10	1	-1E+10	1	-1E+10	1	-1E+10	1	-1E+10	1	-1E+10	1
4901784	161	C	12/01/2019	10:47	-132.726	43.656	0	1049.80	0	3.3540	0	36.6950	8	29.212	0	1038.782	0	11.0	4	3.5	4	-1E+10	1	-1E+10	1	-1E+10	1	-1E+10	1	-1E+10	1	-1E+10	1
4901784	161	C	12/01/2019	10:47	-132.726	43.656	0	1054.60	0	3.3500	0	36.6960	8	29.213	0	1043.520	0	11.0	4	3.5	4	-1E+10	1	-1E+10	1	-1E+10	1	-1E+10	1	-1E+10	1	-1E+10	1
4901784	161	C	12/01/2019	10:47	-132.726	43.656	0	1059.50	0	3.3430	0	36.6970	8	29.215	0	1048.356	0	11.0	4	3.5	4	-1E+10	1	-1E+10	1	-1E+10	1	-1E+10	1	-1E+10	1	-1E+10	1
4901784	161	C	12/01/2019	10:47	-132.726	43.656	0	1064.40	0	3.3310	0	36.7000	8	29.218	0	1053.193	0	11.1	4	3.5	4	-1E+10	1	-1E+10	1	-1E+10	1	-1E+10	1	-1E+10	1	-1E+10	1
4901784	161	C	12/01/2019	10:47	-132.726	43.656	0	1069.40	0	3.3240	0	36.7010	8	29.220	0	1058.127	0	11.2	4	3.5	4	-1E+10	1	-1E+10	1	-1E+10	1	-1E+10	1	-1E+10	1	-1E+10	1
4901784	161	C	12/01/2019	10:47	-132.726	43.656	0	1074.50	0	3.3140	0	36.7040	8	29.223	0	1063.161	0	11.3	4	3.6	4	-1E+10	1	-1E+10	1	-1E+10	1	-1E+10	1	-1E+10	1	-1E+10	1
4901784	161	C	12/01/2019	10:47	-132.726	43.656	0	1079.50	0	3.3030	0	36.7060	8	29.226	0	1068.095	0	11.4	4	3.6	4	-1E+10	1	-1E+10	1	-1E+10	1	-1E+10	1	-1E+10	1	-1E+10	1
4901784	161	C	12/01/2019	10:47	-132.726	43.656	0	1084.60	0	3.2930	0	36.7090	8	29.229	0	1073.128	0	11.5	4	3.6	4	-1E+10	1	-1E+10	1	-1E+10	1	-1E+10	1	-1E+10	1	-1E+10	1
4901784	161	C	12/01/2019	10:47	-132.726	43.656	0	1089.70	0	3.2830	0	36.7110	8	29.232	0	1078.161	0	11.6	4	3.7	4	-1E+10	1	-1E+10	1	-1E+10	1	-1E+10	1	-1E+10	1	-1E+10	1
4901784	161	C	12/01/2019	10:47	-132.726	43.656	0	1094.70	0	3.2740	0	36.7140	8	29.235	0	1083.095	0	11.6	4	3.7	4	-1E+10	1	-1E+10	1	-1E+10	1	-1E+10	1	-1E+10	1	-1E+10	1
4901784	161	C	12/01/2019	10:47	-132.726	43.656	0	1099.80	0	3.2680	0	36.7150	8	29.237	0	1088.128	0	11.7	4	3.7	4	-1E+10	1	-1E+10	1	-1E+10	1	-1E+10	1	-1E+10	1	-1E+10	1
4901784	161	C	12/01/2019	10:47	-132.726	43.656	0	1104.90	0	3.2620	0	36.7170	8	29.239	0	1093.161	0	11.7	4	3.7	4	-1E+10	1	-1E+10	1	-1E+10	1	-1E+10	1	-1E+10	1	-1E+10	1
4901784	161	C	12/01/2019	10:47	-132.726	43.656	0	1110.00	0	3.2600	0	36.7180	8	29.240	0	1098.193	0	11.8	4	3.7	4	-1E+10	1	-1E+10	1	-1E+10	1	-1E+10	1	-1E+10	1	-1E+10	1
4901784	161	C	12/01/2019	10:47	-132.726	43.656	0	1115.20	0	3.2570	0	36.7180	8	29.240	0	1103.324	0	11.9	4	3.7	4	-1E+10	1	-1E+10	1	-1E+10	1	-1E+10	1	-1E+10	1	-1E+10	1
4901784	161	C	12/01/2019	10:47	-132.726	43.656	0	1120.50	0	3.2480	0	36.7210	8	29.244	0	1108.554	0	11.9	4	3.8	4	-1E+10	1	-1E+10	1	-1E+10	1	-1E+10	1	-1E+10	1	-1E+10	1
4901784	161	C	12/01/2019	10:47	-132.726	43.656	0	1124.90	0	3.2420	0	36.7220	8	29.245	0	1112.895	0	12.0	4	3.8	4	-1E+10	1	-1E+10	1	-1E+10	1	-1E+10	1	-1E+10	1	-1E+10	1
4901784	161	C	12/01/2019	10:47	-132.726	43.656	0	1129.80	0	3.2370	0	36.7230	8	29.246	0	1117.730	0	12.1	4	3.8	4	-1E+10	1	-1E+10	1	-1E+10	1	-1E+10	1	-1E+10	1	-1E+10	1
4901784	161	C	12/01/2019	10:47	-132.726	43.656	0	1134.50	0	3.2310	0	36.7250	8	29.249	0	1122.367	0	12.2	4	3.8	4	-1E+10	1	-1E+10	1	-1E+10	1	-1E+10	1	-1E+10	1	-1E+10	1
4901784	161	C	12/01/2019	10:47	-132.726	43.656	0	1140.00	0	3.2230	0	36.7260	8	29.250	0	1127.794	0	12.3	4	3.9	4	-1E+10	1	-1E+10	1	-1E+10	1	-1E+10	1	-1E+10	1	-1E+10	1
4901784	161	C	12/01/2019	10:47	-132.726	43.656	0	1145.70	0	3.2070	0	36.7290	8	29.254	0	1133.417	0	12.4	4	3.9	4	-1E+10	1	-1E+10	1	-1E+10	1	-1E+10	1	-1E+10	1	-1E+10	1
4901784	161	C	12/01/2019	10:47	-132.726	43.656	0	1150.70	0	3.1950	0	36.7320	8	29.258	0	1138.350	0	12.5	4	4.0	4	-1E+10	1	-1E+10	1	-1E+10	1	-1E+10	1	-1E+10	1	-1E+10	1
4901784	161	C	12/01/2019	10:47	-132.726	43.656	0	1155.60	0	3.1870	0	36.7340	8	29.260	0	1143.184	0	12.6	4	4.0	4	-1E+10	1	-1E+10	1	-1E+10	1	-1E+10	1	-1E+10	1	-1E+10	1
4901784	161	C	12/01/2019	10:47	-132.726	43.656	0	1160.50	0	3.1820	0	36.7350	8	29.262	0	1148.018	0	12.7	4	4.0	4	-1E+10	1	-1E+10	1	-1E+10	1	-1E+10	1	-1E+10	1	-1E+10	1
4901784	161	C	12/01/2019	10:47	-132.726	43.656	0	1165.40	0	3.1730	0	36.7370	8	29.264	0	1152.852	0	12.8	4	4.1	4	-1E+10	1	-1E+10	1	-1E+10	1	-1E+10	1	-1E+10	1	-1E+10	1
4901784	161	C	12/01/2019	10:47	-132.726	43.656	0	1170.30	0	3.1660	0	36.7380	8	29.266	0	1157.686	0	12.9	4	4.1	4	-1E+10	1	-1E+10	1	-1E+10	1	-1E+10	1	-1E+10	1	-1E+10	1
4901784	161	C	12/01/2019	10:47	-132.726	43.656	0	1175.40	0	3.1560	0	36.7400	8	29.268	0	1162.717	0	13.1	4	4.1	4	-1E+10	1	-1E+10	1	-1E+10	1	-1E+10	1	-1E+10	1	-1E+10	1
4901784	161	C	12/01/2019	10:47	-132.726	43.656	0	1180.30	0	3.1460	0	36.7420	8	29.271	0	1167.550	0	13.2	4	4.2	4	-1E+10	1	-1E+10	1	-1E+10	1	-1E+10	1	-1E+10	1	-1E+10	1
4901784	161	C	12/01/2019	10:47	-132.726	43.656	0	1185.40	0	3.1310	0	36.7440	8	29.274	0	1172.581	0	13.4	4	4.2	4	-1E+10	1	-1E+10	1	-1E+10	1	-1E+10	1	-1E+10	1	-1E+10	1
4901784	161	C	12/01/2019	10:47	-132.726	43.656	0	1190.50	0	3.1150	0	36.7480	8	29.279	0	1177.611	0	13.6	4	4.3	4	-1E+10	1	-1E+10	1	-1E+10	1	-1E+10	1	-1E+10	1	-1E+10	1
4901784	161	C	12/01/2019	10:47	-132.726	43.656	0	1195.60	0	3.1090	0	36.7480	8	29.279	0	1182.642	0	13.7	4	4.3	4	-1E+10	1	-1E+10	1	-1E+10	1	-1E+10	1	-1E+10	1	-1E+10	1
4901784	161	C	12/01/2019	10:47	-132.726	43.656	0	1199.90	0	3.1020	0	36.7500	8	29.282	0	1186.883	0	13.9	4	4.4	4	-1E+10	1	-1E+10	1	-1E+10	1	-1E+10	1	-1E+10	1	-1E+10	1
4901784	161	C	12/01/2019	10:47	-132.726	43.656	0	1204.30	0	3.0840	0	36.7520	8	29.285	0	1191.223	0	14.1	4	4.4	4	-1E+10	1	-1E+10	1	-1E+10	1	-1E+10	1	-1E+10	1	-1E+10	1
4901784	161	C	12/01/2019	10:47	-132.726	43.656	0	1209.60	0	3.0680	0	36.7550	8	29.289	0	1196.450	0	14.3	4	4.5	4	-1E+10	1	-1E+10	1	-1E+10	1	-1E+10	1	-1E+10	1	-1E+10	1
4901784	161	C	12/01/2019	10:47	-132.726	43.656	0	1214.80	0	3.0610	0	36.7540	8	29.289	0	1201.579	0	14.4	4	4.5	4	-1E+10	1	-1E+10	1	-1E+10	1	-1E+10	1	-1E+10	1	-1E+10	1
4901784	161	C	12/01/2019	10:47	-132.726	43.656	0	1220.00	0	3.0470	0	36.7570	8	29.293	0	1206.707	0	14.6	4	4.6	4	-1E+10	1	-1E+10	1	-1E+10	1	-1E+10	1	-1E+10	1	-1E+10	1
4901784	161	C	12/01/2019	10:47	-132.726	43.656	0	1225.30	0	3.0360	0	36.7580	8	29.295	0	1211.934	0	14.7	4	4.6	4	-1E+10	1	-1E+10	1	-1E+10	1	-1E+10	1	-1E+10	1	-1E+10	1
4901784	161	C	12/01/2019	10:47	-132.726	43.656	0	1230.50	0	3.0240	0	36.7600	8	29.298	0	1217.063	0	14.8	4	4.7	4	-1E+10	1	-1E+10	1	-1E+10	1	-1E+10	1	-1E+10	1	-1E+10	1
4901784	161	C	12/01/2019	10:47	-132.726	43.656	0	1235.00	0	3.0200	0	36.7610	8	29.299	0	1221.500	0	14.9	4	4.7	4	-1E+10	1	-1E+10	1	-1E+10	1	-1E+10	1	-1E+10	1	-1E+10	1
4901784	161	C	12/01/2019	10:47	-132.726	43.656	0	1239.50	0	3.0160	0	36.7610	8	29.299	0	1225.938	0	15.0	4	4.7	4	-1E+10	1	-1E+10	1	-1E+10	1	-1E+10	1	-1E+10	1	-1E+10	1
4901784	161	C	12/01/2019	10:47	-132.726	43.656	0	1244.80	0	3.0080	0	36.7610	8	29.300	0	1231.165	0	15.1	4	4.8	4	-1E+10	1	-1E+10	1	-1E+10	1	-1E+10	1	-1E+10	1	-1E+10	1
4901784	161	C	12/01/2019	10:47	-132.726	43.656	0	1250.00	0	3.0030	0	36.7620	8	29.301	0	1236.292	0	15.3	4	4.8	4	-1E+10	1	-1E+10	1	-1E+10	1	-1E+10	1	-1E+10	1	-1E+10	1
4901784	161	C	12/01/2019	10:47	-132.726	43.656	0	1255.20	0	2.9960	0	36.7620	8	29.302	0	1241.420	0	15.4	4	4.8	4	-1E+10	1	-1E+10	1	-1E+10	1	-1E+10	1	-1E+10	1	-1E+10	1
4901784	161	C	12/01/2019	10:47	-132.726	43.656	0	1260.30	0	2.9860	0	36.7630	8	29.304	0	1246.449	0	15.6	4	4.9	4	-1E+10	1	-1E+10	1	-1E+10	1	-1E+10	1	-1E+10	1	-1E+10	1
4901784	161	C	12/01/2019	10:47	-132.726	43.656	0	1265.30	0	2.9690	0	36.7640	8	29.306	0	1251.379	0	15.8	4	5.0	4	-1E+10	1	-1E+10	1	-1E+10	1	-1E+10	1	-1E+10	1	-1E+10	1
4901784	161	C	12/01/2019	10:47	-132.726	43.656	0	1270.40	0	2.9480	0	36.7670	8	29.311	0	1256.408	0	16.1	4	5.1	4	-1E+10	1	-1E+10	1	-1E+10	1	-1E+10	1	-1E+10	1	-1E+10	1
4901784	161	C	12/01/2019	10:47	-132.726	43.656	0	1275.40	0	2.9310	0	36.7700	8	29.315	0	1261.338	0	16.3	4	5.1	4	-1E+10	1	-1E+10	1	-1E+10	1	-1E+10	1	-1E+10	1	-1E+10	1
4901784	161	C	12/01/2019	10:47	-132.726	43.656	0	1280.60	0	2.9190	0	36.7720	8	29.318	0	1266.465	0	16.5	4	5.2	4	-1E+10	1	-1E+10	1	-1E+10	1	-1E+10	1	-1E+10	1	-1E+10	1
4901784	161	C	12/01/2019	10:47	-132.726	43.656	0	1285.00	0	2.9140	0	36.7730	8	29.319	0	1270.803	0	16.5	4	5.2	4	-1E+10	1	-1E+10	1	-1E+10	1	-1E+10	1	-1E+10	1	-1E+10	1
4901784	161	C	12/01/2019	10:47	-132.726	43.656	0	1289.40	0	2.9120	0	36.7720	8	29.318	0	1275.141	0	16.6	4	5.2	4	-1E+10	1	-1E+10	1	-1E+10	1	-1E+10	1	-1E+10	1	-1E+10	1
4901784	161	C	12/01/2019	10:47	-132.726	43.656	0	1294.80	0	2.8990	0	36.7740	8	29.321	0	1280.465	0	16.9	4	5.3	4	-1E+10	1	-1E+10	1	-1E+10	1	-1E+10	1	-1E+10	1	-1E+10	1
4901784	161	C	12/01/2019	10:47	-132.726	43.656	0	1300.20	0	2.8850	0	36.7760	8	29.324	0	1285.789	0	17.0	4	5.3	4	-1E+10	1	-1E+10	1	-1E+10	1	-1E+10	1	-1E+10	1	-1E+10	1
4901784	161	C	12/01/2019	10:47	-132.726	43.656	0	1305.60	0	2.8770	0	36.7780	8	29.326	0	1291.112	0	17.1	4	5.4	4	-1E+10	1	-1E+10	1	-1E+10	1	-1E+10	1	-1E+10	1	-1E+10	1
4901784	161	C	12/01/2019	10:47	-132.726	43.656	0	1310.20	0	2.8760	0	36.7780	8	29.327	0	1295.647	0	17.2	4	5.4	4	-1E+10	1	-1E+10	1	-1E+10	1	-1E+10	1	-1E+10	1	-1E+10	1
4901784	161	C	12/01/2019	10:47	-132.726	43.656	0	1314.80	0	2.8740	0	36.7780	8	29.327	0	1300.182	0	17.2	4	5.4	4	-1E+10	1	-1E+10	1	-1E+10	1	-1E+10	1	-1E+10	1	-1E+10	1
4901784	161	C	12/01/2019	10:47	-132.726	43.656	0	1320.40	0	2.8660	0	36.7790	8	29.328	0	1305.702	0	17.3	4	5.4	4	-1E+10	1	-1E+10	1	-1E+10	1	-1E+10	1	-1E+10	1	-1E+10	1
4901784	161	C	12/01/2019	10:47	-132.726	43.656	0	1325.00	0	2.8630	0	36.7800	8	29.330	0	1310.237	0	17.4	4	5.5	4	-1E+10	1	-1E+10	1	-1E+10	1	-1E+10	1	-1E+10	1	-1E+10	1
4901784	161	C	12/01/2019	10:47	-132.726	43.656	0	1329.80	0	2.8570	0	36.7810	8	29.331	0	1314.968	0	17.5	4	5.5	4	-1E+10	1	-1E+10	1	-1E+10	1	-1E+10	1	-1E+10	1	-1E+10	1
4901784	161	C	12/01/2019	10:47	-132.726	43.656	0	1335.40	0	2.8540	0	36.7810	8	29.331	0	1320.488	0	17.6	4	5.5	4	-1E+10	1	-1E+10	1	-1E+10	1	-1E+10	1	-1E+10	1	-1E+10	1
4901784	161	C	12/01/2019	10:47	-132.726	43.656	0	1340.20	0	2.8450	0	36.7820	8	29.333	0	1325.220	0	17.7	4	5.6	4	-1E+10	1	-1E+10	1	-1E+10	1	-1E+10	1	-1E+10	1	-1E+10	1
4901784	161	C	12/01/2019	10:47	-132.726	43.656	0	1344.80	0	2.8420	0	36.7830	8	29.334	0	1329.754	0	17.8	4	5.6	4	-1E+10	1	-1E+10	1	-1E+10	1	-1E+10	1	-1E+10	1	-1E+10	1
4901784	161	C	12/01/2019	10:47	-132.726	43.656	0	1349.60	0	2.8360	0	36.7840	8	29.335	0	1334.485	0	18.0	4	5.6	4	-1E+10	1	-1E+10	1	-1E+10	1	-1E+10	1	-1E+10	1	-1E+10	1
4901784	161	C	12/01/2019	10:47	-132.726	43.656	0	1354.40	0	2.8270	0	36.7850	8	29.337	0	1339.216	0	18.2	4	5.7	4	-1E+10	1	-1E+10	1	-1E+10	1	-1E+10	1	-1E+10	1	-1E+10	1
4901784	161	C	12/01/2019	10:47	-132.726	43.656	0	1359.30	0	2.8130	0	36.7870	8	29.340	0	1344.045	0	18.4	4	5.8	4	-1E+10	1	-1E+10	1	-1E+10	1	-1E+10	1	-1E+10	1	-1E+10	1
4901784	161	C	12/01/2019	10:47	-132.726	43.656	0	1364.30	0	2.8080	0	36.7880	8	29.341	0	1348.973	0	18.6	4	5.8	4	-1E+10	1	-1E+10	1	-1E+10	1	-1E+10	1	-1E+10	1	-1E+10	1
4901784	161	C	12/01/2019	10:47	-132.726	43.656	0	1369.30	0	2.7990	0	36.7890	8	29.343	0	1353.901	0	18.8	4	5.9	4	-1E+10	1	-1E+10	1	-1E+10	1	-1E+10	1	-1E+10	1	-1E+10	1
4901784	161	C	12/01/2019	10:47	-132.726	43.656	0	1374.30	0	2.7910	0	36.7900	8	29.345	0	1358.829	0	19.0	4	5.9	4	-1E+10	1	-1E+10	1	-1E+10	1	-1E+10	1	-1E+10	1	-1E+10	1
4901784	161	C	12/01/2019	10:47	-132.726	43.656	0	1379.30	0	2.7790	0	36.7920	8	29.347	0	1363.756	0	19.3	4	6.0	4	-1E+10	1	-1E+10	1	-1E+10	1	-1E+10	1	-1E+10	1	-1E+10	1
4901784	161	C	12/01/2019	10:47	-132.726	43.656	0	1384.40	0	2.7700	0	36.7930	8	29.349	0	1368.782	0	19.6	4	6.1	4	-1E+10	1	-1E+10	1	-1E+10	1	-1E+10	1	-1E+10	1	-1E+10	1
4901784	161	C	12/01/2019	10:47	-132.726	43.656	0	1389.50	0	2.7540	0	36.7960	8	29.353	0	1373.808	0	19.9	4	6.2	4	-1E+10	1	-1E+10	1	-1E+10	1	-1E+10	1	-1E+10	1	-1E+10	1
4901784	161	C	12/01/2019	10:47	-132.726	43.656	0	1394.70	0	2.7380	0	36.7980	8	29.356	0	1378.932	0	20.3	4	6.3	4	-1E+10	1	-1E+10	1	-1E+10	1	-1E+10	1	-1E+10	1	-1E+10	1
4901784	161	C	12/01/2019	10:47	-132.726	43.656	0	1400.00	0	2.7300	0	36.7990	8	29.358	0	1384.155	0	20.5	4	6.4	4	-1E+10	1	-1E+10	1	-1E+10	1	-1E+10	1	-1E+10	1	-1E+10	1
4901784	161	C	12/01/2019	10:47	-132.726	43.656	0	1405.10	0	2.7170	0	36.8010	8	29.361	0	1389.181	0	20.9	4	6.5	4	-1E+10	1	-1E+10	1	-1E+10	1	-1E+10	1	-1E+10	1	-1E+10	1
4901784	161	C	12/01/2019	10:47	-132.726	43.656	0	1410.30	0	2.7130	0	36.8030	8	29.363	0	1394.305	0	21.2	4	6.6	4	-1E+10	1	-1E+10	1	-1E+10	1	-1E+10	1	-1E+10	1	-1E+10	1
4901784	161	C	12/01/2019	10:47	-132.726	43.656	0	1415.40	0	2.7030	0	36.8040	8	29.364	0	1399.330	0	21.5	4	6.7	4	-1E+10	1	-1E+10	1	-1E+10	1	-1E+10	1	-1E+10	1	-1E+10	1
4901784	161	C	12/01/2019	10:47	-132.726	43.656	0	1420.60	0	2.6830	0	36.8070	8	29.369	0	1404.453	0	21.7	4	6.8	4	-1E+10	1	-1E+10	1	-1E+10	1	-1E+10	1	-1E+10	1	-1E+10	1
4901784	161	C	12/01/2019	10:47	-132.726	43.656	0	1425.00	0	2.6790	0	36.8070	8	29.369	0	1408.789	0	21.8	4	6.8	4	-1E+10	1	-1E+10	1	-1E+10	1	-1E+10	1	-1E+10	1	-1E+10	1
4901784	161	C	12/01/2019	10:47	-132.726	43.656	0	1429.40	0	2.6760	0	36.8070	8	29.369	0	1413.124	0	22.0	4	6.9	4	-1E+10	1	-1E+10	1	-1E+10	1	-1E+10	1	-1E+10	1	-1E+10	1
4901784	161	C	12/01/2019	10:47	-132.726	43.656	0	1434.70	0	2.6650	0	36.8090	8	29.372	0	1418.346	0	22.3	4	7.0	4	-1E+10	1	-1E+10	1	-1E+10	1	-1E+10	1	-1E+10	1	-1E+10	1
4901784	161	C	12/01/2019	10:47	-132.726	43.656	0	1440.00	0	2.6570	0	36.8100	8	29.374	0	1423.568	0	22.6	4	7.0	4	-1E+10	1	-1E+10	1	-1E+10	1	-1E+10	1	-1E+10	1	-1E+10	1
4901784	161	C	12/01/2019	10:47	-132.726	43.656	0	1445.30	0	2.6470	0	36.8110	8	29.375	0	1428.789	0	23.0	4	7.2	4	-1E+10	1	-1E+10	1	-1E+10	1	-1E+10	1	-1E+10	1	-1E+10	1
4901784	161	C	12/01/2019	10:47	-132.726	43.656	0	1449.80	0	2.6320	0	36.8150	8	29.380	0	1433.222	0	23.3	4	7.3	4	-1E+10	1	-1E+10	1	-1E+10	1	-1E+10	1	-1E+10	1	-1E+10	1
4901784	161	C	12/01/2019	10:47	-132.726	43.656	0	1454.30	0	2.6280	0	36.8150	8	29.380	0	1437.656	0	23.4	4	7.3	4	-1E+10	1	-1E+10	1	-1E+10	1	-1E+10	1	-1E+10	1	-1E+10	1
4901784	161	C	12/01/2019	10:47	-132.726	43.656	0	1459.70	0	2.6250	0	36.8160	8	29.381	0	1442.975	0	23.6	4	7.3	4	-1E+10	1	-1E+10	1	-1E+10	1	-1E+10	1	-1E+10	1	-1E+10	1
4901784	161	C	12/01/2019	10:47	-132.726	43.656	0	1465.10	0	2.6220	0	36.8160	8	29.382	0	1448.295	0	23.8	4	7.4	4	-1E+10	1	-1E+10	1	-1E+10	1	-1E+10	1	-1E+10	1	-1E+10	1
4901784	161	C	12/01/2019	10:47	-132.726	43.656	0	1470.40	0	2.6110	0	36.8180	8	29.384	0	1453.516	0	24.2	4	7.5	4	-1E+10	1	-1E+10	1	-1E+10	1	-1E+10	1	-1E+10	1	-1E+10	1
4901784	161	C	12/01/2019	10:47	-132.726	43.656	0	1474.80	0	2.6060	0	36.8190	8	29.386	0	1457.850	0	24.4	4	7.6	4	-1E+10	1	-1E+10	1	-1E+10	1	-1E+10	1	-1E+10	1	-1E+10	1
4901784	161	C	12/01/2019	10:47	-132.726	43.656	0	1479.30	0	2.5960	0	36.8200	8	29.387	0	1462.283	0	24.8	4	7.7	4	-1E+10	1	-1E+10	1	-1E+10	1	-1E+10	1	-1E+10	1	-1E+10	1
4901784	161	C	12/01/2019	10:47	-132.726	43.656	0	1484.70	0	2.5850	0	36.8220	8	29.390	0	1467.602	0	25.1	4	7.8	4	-1E+10	1	-1E+10	1	-1E+10	1	-1E+10	1	-1E+10	1	-1E+10	1
4901784	161	C	12/01/2019	10:47	-132.726	43.656	0	1490.10	0	2.5780	0	36.8230	8	29.392	0	1472.921	0	25.4	4	7.9	4	-1E+10	1	-1E+10	1	-1E+10	1	-1E+10	1	-1E+10	1	-1E+10	1
4901784	161	C	12/01/2019	10:47	-132.726	43.656	0	1495.50	0	2.5690	0	36.8250	8	29.394	0	1478.240	0	25.6	4	8.0	4	-1E+10	1	-1E+10	1	-1E+10	1	-1E+10	1	-1E+10	1	-1E+10	1
4901784	161	C	12/01/2019	10:47	-132.726	43.656	0	1500.10	0	2.5650	0	36.8260	8	29.395	0	1482.771	0	25.7	4	8.0	4	-1E+10	1	-1E+10	1	-1E+10	1	-1E+10	1	-1E+10	1	-1E+10	1
4901784	161	C	12/01/2019	10:47	-132.726	43.656	0	1504.60	0	2.5650	0	36.8260	8	29.395	0	1487.203	0	25.7	4	8.0	4	-1E+10	1	-1E+10	1	-1E+10	1	-1E+10	1	-1E+10	1	-1E+10	1
4901784	161	C	12/01/2019	10:47	-132.726	43.656	0	1510.10	0	2.5650	0	36.8260	8	29.395	0	1492.620	0	25.8	4	8.0	4	-1E+10	1	-1E+10	1	-1E+10	1	-1E+10	1	-1E+10	1	-1E+10	1
4901784	161	C	12/01/2019	10:47	-132.726	43.656	0	1514.80	0	2.5630	0	36.8260	8	29.395	0	1497.249	0	26.0	4	8.1	4	-1E+10	1	-1E+10	1	-1E+10	1	-1E+10	1	-1E+10	1	-1E+10	1
4901784	161	C	12/01/2019	10:47	-132.726	43.656	0	1519.50	0	2.5520	0	36.8270	8	29.397	0	1501.878	0	26.4	4	8.2	4	-1E+10	1	-1E+10	1	-1E+10	1	-1E+10	1	-1E+10	1	-1E+10	1
4901784	161	C	12/01/2019	10:47	-132.726	43.656	0	1525.00	0	2.5460	0	36.8280	8	29.399	0	1507.294	0	26.7	4	8.3	4	-1E+10	1	-1E+10	1	-1E+10	1	-1E+10	1	-1E+10	1	-1E+10	1
4901784	161	C	12/01/2019	10:47	-132.726	43.656	0	1530.40	0	2.5330	0	36.8300	8	29.402	0	1512.613	0	27.2	4	8.4	4	-1E+10	1	-1E+10	1	-1E+10	1	-1E+10	1	-1E+10	1	-1E+10	1
4901784	161	C	12/01/2019	10:47	-132.726	43.656	0	1535.00	0	2.5210	0	36.8310	8	29.403	0	1517.143	0	27.5	4	8.5	4	-1E+10	1	-1E+10	1	-1E+10	1	-1E+10	1	-1E+10	1	-1E+10	1
4901784	161	C	12/01/2019	10:47	-132.726	43.656	0	1539.70	0	2.5100	0	36.8330	8	29.406	0	1521.771	0	27.7	4	8.6	4	-1E+10	1	-1E+10	1	-1E+10	1	-1E+10	1	-1E+10	1	-1E+10	1
4901784	161	C	12/01/2019	10:47	-132.726	43.656	0	1545.30	0	2.5060	0	36.8340	8	29.407	0	1527.286	0	28.0	4	8.7	4	-1E+10	1	-1E+10	1	-1E+10	1	-1E+10	1	-1E+10	1	-1E+10	1
4901784	161	C	12/01/2019	10:47	-132.726	43.656	0	1550.00	0	2.5020	0	36.8340	8	29.408	0	1531.914	0	28.2	4	8.8	4	-1E+10	1	-1E+10	1	-1E+10	1	-1E+10	1	-1E+10	1	-1E+10	1
4901784	161	C	12/01/2019	10:47	-132.726	43.656	0	1554.60	0	2.4920	0	36.8360	8	29.410	0	1536.443	0	28.4	4	8.8	4	-1E+10	1	-1E+10	1	-1E+10	1	-1E+10	1	-1E+10	1	-1E+10	1
4901784	161	C	12/01/2019	10:47	-132.726	43.656	0	1560.30	0	2.4890	0	36.8360	8	29.410	0	1542.056	0	28.6	4	8.9	4	-1E+10	1	-1E+10	1	-1E+10	1	-1E+10	1	-1E+10	1	-1E+10	1
4901784	161	C	12/01/2019	10:47	-132.726	43.656	0	1565.00	0	2.4830	0	36.8370	8	29.412	0	1546.684	0	28.8	4	8.9	4	-1E+10	1	-1E+10	1	-1E+10	1	-1E+10	1	-1E+10	1	-1E+10	1
4901784	161	C	12/01/2019	10:47	-132.726	43.656	0	1569.70	0	2.4780	0	36.8380	8	29.413	0	1551.312	0	29.1	4	9.0	4	-1E+10	1	-1E+10	1	-1E+10	1	-1E+10	1	-1E+10	1	-1E+10	1
4901784	161	C	12/01/2019	10:47	-132.726	43.656	0	1575.10	0	2.4670	0	36.8390	8	29.415	0	1556.629	0	29.4	4	9.1	4	-1E+10	1	-1E+10	1	-1E+10	1	-1E+10	1	-1E+10	1	-1E+10	1
4901784	161	C	12/01/2019	10:47	-132.726	43.656	0	1580.60	0	2.4620	0	36.8410	8	29.417	0	1562.044	0	29.6	4	9.2	4	-1E+10	1	-1E+10	1	-1E+10	1	-1E+10	1	-1E+10	1	-1E+10	1
4901784	161	C	12/01/2019	10:47	-132.726	43.656	0	1585.50	0	2.4610	0	36.8410	8	29.417	0	1566.868	0	29.7	4	9.2	4	-1E+10	1	-1E+10	1	-1E+10	1	-1E+10	1	-1E+10	1	-1E+10	1
4901784	161	C	12/01/2019	10:47	-132.726	43.656	0	1590.50	0	2.4570	0	36.8410	8	29.418	0	1571.791	0	30.1	4	9.3	4	-1E+10	1	-1E+10	1	-1E+10	1	-1E+10	1	-1E+10	1	-1E+10	1
4901784	161	C	12/01/2019	10:47	-132.726	43.656	0	1595.50	0	2.4450	0	36.8430	8	29.420	0	1576.713	0	30.6	4	9.5	4	-1E+10	1	-1E+10	1	-1E+10	1	-1E+10	1	-1E+10	1	-1E+10	1
4901784	161	C	12/01/2019	10:47	-132.726	43.656	0	1600.50	0	2.4330	0	36.8450	8	29.423	0	1581.636	0	30.8	4	9.6	4	-1E+10	1	-1E+10	1	-1E+10	1	-1E+10	1	-1E+10	1	-1E+10	1
4901784	161	C	12/01/2019	10:47	-132.726	43.656	0	1605.60	0	2.4310	0	36.8450	8	29.423	0	1586.657	0	31.0	4	9.6	4	-1E+10	1	-1E+10	1	-1E+10	1	-1E+10	1	-1E+10	1	-1E+10	1
4901784	161	C	12/01/2019	10:47	-132.726	43.656	0	1610.60	0	2.4270	0	36.8450	8	29.424	0	1591.579	0	31.2	4	9.7	4	-1E+10	1	-1E+10	1	-1E+10	1	-1E+10	1	-1E+10	1	-1E+10	1
4901784	161	C	12/01/2019	10:47	-132.726	43.656	0	1615.60	0	2.4190	0	36.8470	8	29.426	0	1596.501	0	31.5	4	9.8	4	-1E+10	1	-1E+10	1	-1E+10	1	-1E+10	1	-1E+10	1	-1E+10	1
4901784	161	C	12/01/2019	10:47	-132.726	43.656	0	1620.60	0	2.4110	0	36.8480	8	29.427	0	1601.423	0	31.8	4	9.9	4	-1E+10	1	-1E+10	1	-1E+10	1	-1E+10	1	-1E+10	1	-1E+10	1
4901784	161	C	12/01/2019	10:47	-132.726	43.656	0	1625.70	0	2.4010	0	36.8490	8	29.429	0	1606.443	0	32.2	4	10.0	4	-1E+10	1	-1E+10	1	-1E+10	1	-1E+10	1	-1E+10	1	-1E+10	1
4901784	161	C	12/01/2019	10:47	-132.726	43.656	0	1630.70	0	2.3930	0	36.8500	8	29.431	0	1611.365	0	32.5	4	10.1	4	-1E+10	1	-1E+10	1	-1E+10	1	-1E+10	1	-1E+10	1	-1E+10	1
4901784	161	C	12/01/2019	10:47	-132.726	43.656	0	1635.80	0	2.3820	0	36.8510	8	29.433	0	1616.385	0	32.9	4	10.2	4	-1E+10	1	-1E+10	1	-1E+10	1	-1E+10	1	-1E+10	1	-1E+10	1
4901784	161	C	12/01/2019	10:47	-132.726	43.656	0	1640.00	0	2.3740	0	36.8520	8	29.434	0	1620.519	0	33.1	4	10.3	4	-1E+10	1	-1E+10	1	-1E+10	1	-1E+10	1	-1E+10	1	-1E+10	1
4901784	161	C	12/01/2019	10:47	-132.726	43.656	0	1644.20	0	2.3670	0	36.8530	8	29.436	0	1624.653	0	33.3	4	10.3	4	-1E+10	1	-1E+10	1	-1E+10	1	-1E+10	1	-1E+10	1	-1E+10	1
4901784	161	C	12/01/2019	10:47	-132.726	43.656	0	1649.40	0	2.3650	0	36.8540	8	29.437	0	1629.771	0	33.4	4	10.3	4	-1E+10	1	-1E+10	1	-1E+10	1	-1E+10	1	-1E+10	1	-1E+10	1
4901784	161	C	12/01/2019	10:47	-132.726	43.656	0	1654.50	0	2.3600	0	36.8540	8	29.437	0	1634.791	0	33.7	4	10.4	4	-1E+10	1	-1E+10	1	-1E+10	1	-1E+10	1	-1E+10	1	-1E+10	1
4901784	161	C	12/01/2019	10:47	-132.726	43.656	0	1659.70	0	2.3540	0	36.8550	8	29.438	0	1639.909	0	33.9	4	10.5	4	-1E+10	1	-1E+10	1	-1E+10	1	-1E+10	1	-1E+10	1	-1E+10	1
4901784	161	C	12/01/2019	10:47	-132.726	43.656	0	1664.90	0	2.3470	0	36.8560	8	29.440	0	1645.027	0	34.2	4	10.6	4	-1E+10	1	-1E+10	1	-1E+10	1	-1E+10	1	-1E+10	1	-1E+10	1
4901784	161	C	12/01/2019	10:47	-132.726	43.656	0	1670.10	0	2.3400	0	36.8570	8	29.441	0	1650.145	0	34.6	4	10.7	4	-1E+10	1	-1E+10	1	-1E+10	1	-1E+10	1	-1E+10	1	-1E+10	1
4901784	161	C	12/01/2019	10:47	-132.726	43.656	0	1675.30	0	2.3330	0	36.8580	8	29.443	0	1655.262	0	34.8	4	10.8	4	-1E+10	1	-1E+10	1	-1E+10	1	-1E+10	1	-1E+10	1	-1E+10	1
4901784	161	C	12/01/2019	10:47	-132.726	43.656	0	1680.50	0	2.3250	0	36.8590	8	29.444	0	1660.380	0	35.2	4	10.9	4	-1E+10	1	-1E+10	1	-1E+10	1	-1E+10	1	-1E+10	1	-1E+10	1
4901784	161	C	12/01/2019	10:47	-132.726	43.656	0	1685.00	0	2.3180	0	36.8600	8	29.446	0	1664.808	0	35.5	4	11.0	4	-1E+10	1	-1E+10	1	-1E+10	1	-1E+10	1	-1E+10	1	-1E+10	1
4901784	161	C	12/01/2019	10:47	-132.726	43.656	0	1689.50	0	2.3110	0	36.8610	8	29.447	0	1669.236	0	35.8	4	11.1	4	-1E+10	1	-1E+10	1	-1E+10	1	-1E+10	1	-1E+10	1	-1E+10	1
4901784	161	C	12/01/2019	10:47	-132.726	43.656	0	1694.90	0	2.3030	0	36.8620	8	29.449	0	1674.550	0	36.1	4	11.1	4	-1E+10	1	-1E+10	1	-1E+10	1	-1E+10	1	-1E+10	1	-1E+10	1
4901784	161	C	12/01/2019	10:47	-132.726	43.656	0	1700.30	0	2.2980	0	36.8630	8	29.450	0	1679.864	0	36.4	4	11.2	4	-1E+10	1	-1E+10	1	-1E+10	1	-1E+10	1	-1E+10	1	-1E+10	1
4901784	161	C	12/01/2019	10:47	-132.726	43.656	0	1704.80	0	2.2900	0	36.8640	8	29.452	0	1684.292	0	36.8	4	11.4	4	-1E+10	1	-1E+10	1	-1E+10	1	-1E+10	1	-1E+10	1	-1E+10	1
4901784	161	C	12/01/2019	10:47	-132.726	43.656	0	1709.40	0	2.2800	0	36.8650	8	29.453	0	1688.819	0	37.3	4	11.5	4	-1E+10	1	-1E+10	1	-1E+10	1	-1E+10	1	-1E+10	1	-1E+10	1
4901784	161	C	12/01/2019	10:47	-132.726	43.656	0	1714.80	0	2.2690	0	36.8680	8	29.457	0	1694.132	0	37.7	4	11.6	4	-1E+10	1	-1E+10	1	-1E+10	1	-1E+10	1	-1E+10	1	-1E+10	1
4901784	161	C	12/01/2019	10:47	-132.726	43.656	0	1720.30	0	2.2610	0	36.8680	8	29.457	0	1699.544	0	38.0	4	11.7	4	-1E+10	1	-1E+10	1	-1E+10	1	-1E+10	1	-1E+10	1	-1E+10	1
4901784	161	C	12/01/2019	10:47	-132.726	43.656	0	1724.80	0	2.2550	0	36.8690	8	29.459	0	1703.971	0	38.3	4	11.8	4	-1E+10	1	-1E+10	1	-1E+10	1	-1E+10	1	-1E+10	1	-1E+10	1
4901784	161	C	12/01/2019	10:47	-132.726	43.656	0	1729.40	0	2.2470	0	36.8700	8	29.460	0	1708.497	0	38.8	4	12.0	4	-1E+10	1	-1E+10	1	-1E+10	1	-1E+10	1	-1E+10	1	-1E+10	1
4901784	161	C	12/01/2019	10:47	-132.726	43.656	0	1734.90	0	2.2420	0	36.8710	8	29.461	0	1713.909	0	39.3	4	12.1	4	-1E+10	1	-1E+10	1	-1E+10	1	-1E+10	1	-1E+10	1	-1E+10	1
4901784	161	C	12/01/2019	10:47	-132.726	43.656	0	1740.40	0	2.2290	0	36.8730	8	29.464	0	1719.320	0	39.7	4	12.3	4	-1E+10	1	-1E+10	1	-1E+10	1	-1E+10	1	-1E+10	1	-1E+10	1
4901784	161	C	12/01/2019	10:47	-132.726	43.656	0	1745.10	0	2.2220	0	36.8750	8	29.466	0	1723.944	0	40.1	4	12.4	4	-1E+10	1	-1E+10	1	-1E+10	1	-1E+10	1	-1E+10	1	-1E+10	1
4901784	161	C	12/01/2019	10:47	-132.726	43.656	0	1750.30	0	2.2140	0	36.8760	8	29.468	0	1729.060	0	40.5	4	12.5	4	-1E+10	1	-1E+10	1	-1E+10	1	-1E+10	1	-1E+10	1	-1E+10	1
4901784	161	C	12/01/2019	10:47	-132.726	43.656	0	1755.40	0	2.2080	0	36.8770	8	29.469	0	1734.077	0	40.7	4	12.6	4	-1E+10	1	-1E+10	1	-1E+10	1	-1E+10	1	-1E+10	1	-1E+10	1
4901784	161	C	12/01/2019	10:47	-132.726	43.656	0	1760.30	0	2.2030	0	36.8770	8	29.470	0	1738.897	0	41.1	4	12.7	4	-1E+10	1	-1E+10	1	-1E+10	1	-1E+10	1	-1E+10	1	-1E+10	1
4901784	161	C	12/01/2019	10:47	-132.726	43.656	0	1765.10	0	2.1940	0	36.8790	8	29.472	0	1743.619	0	41.6	4	12.8	4	-1E+10	1	-1E+10	1	-1E+10	1	-1E+10	1	-1E+10	1	-1E+10	1
4901784	161	C	12/01/2019	10:47	-132.726	43.656	0	1770.00	0	2.1880	0	36.8800	8	29.474	0	1748.439	0	41.9	4	12.9	4	-1E+10	1	-1E+10	1	-1E+10	1	-1E+10	1	-1E+10	1	-1E+10	1
4901784	161	C	12/01/2019	10:47	-132.726	43.656	0	1774.90	0	2.1830	0	36.8810	8	29.475	0	1753.259	0	42.1	4	13.0	4	-1E+10	1	-1E+10	1	-1E+10	1	-1E+10	1	-1E+10	1	-1E+10	1
4901784	161	C	12/01/2019	10:47	-132.726	43.656	0	1779.70	0	2.1770	0	36.8820	8	29.476	0	1757.981	0	42.4	4	13.1	4	-1E+10	1	-1E+10	1	-1E+10	1	-1E+10	1	-1E+10	1	-1E+10	1
4901784	161	C	12/01/2019	10:47	-132.726	43.656	0	1784.60	0	2.1740	0	36.8820	8	29.477	0	1762.801	0	42.6	4	13.1	4	-1E+10	1	-1E+10	1	-1E+10	1	-1E+10	1	-1E+10	1	-1E+10	1
4901784	161	C	12/01/2019	10:47	-132.726	43.656	0	1789.60	0	2.1690	0	36.8830	8	29.478	0	1767.719	0	42.9	4	13.2	4	-1E+10	1	-1E+10	1	-1E+10	1	-1E+10	1	-1E+10	1	-1E+10	1
4901784	161	C	12/01/2019	10:47	-132.726	43.656	0	1794.60	0	2.1650	0	36.8830	8	29.478	0	1772.637	0	43.2	4	13.3	4	-1E+10	1	-1E+10	1	-1E+10	1	-1E+10	1	-1E+10	1	-1E+10	1
4901784	161	C	12/01/2019	10:47	-132.726	43.656	0	1799.70	0	2.1570	0	36.8850	8	29.480	0	1777.653	0	43.6	4	13.4	4	-1E+10	1	-1E+10	1	-1E+10	1	-1E+10	1	-1E+10	1	-1E+10	1
4901784	161	C	12/01/2019	10:47	-132.726	43.656	0	1804.70	0	2.1510	0	36.8850	8	29.481	0	1782.571	0	44.0	4	13.5	4	-1E+10	1	-1E+10	1	-1E+10	1	-1E+10	1	-1E+10	1	-1E+10	1
4901784	161	C	12/01/2019	10:47	-132.726	43.656	0	1809.80	0	2.1420	0	36.8870	8	29.483	0	1787.587	0	44.4	4	13.7	4	-1E+10	1	-1E+10	1	-1E+10	1	-1E+10	1	-1E+10	1	-1E+10	1
4901784	161	C	12/01/2019	10:47	-132.726	43.656	0	1814.90	0	2.1330	0	36.8880	8	29.485	0	1792.603	0	44.9	4	13.8	4	-1E+10	1	-1E+10	1	-1E+10	1	-1E+10	1	-1E+10	1	-1E+10	1
4901784	161	C	12/01/2019	10:47	-132.726	43.656	0	1819.90	0	2.1240	0	36.8890	8	29.487	0	1797.521	0	45.3	4	13.9	4	-1E+10	1	-1E+10	1	-1E+10	1	-1E+10	1	-1E+10	1	-1E+10	1
4901784	161	C	12/01/2019	10:47	-132.726	43.656	0	1825.00	0	2.1180	0	36.8900	8	29.488	0	1802.536	0	45.5	4	14.0	4	-1E+10	1	-1E+10	1	-1E+10	1	-1E+10	1	-1E+10	1	-1E+10	1
4901784	161	C	12/01/2019	10:47	-132.726	43.656	0	1830.10	0	2.1160	0	36.8910	8	29.489	0	1807.552	0	45.8	4	14.1	4	-1E+10	1	-1E+10	1	-1E+10	1	-1E+10	1	-1E+10	1	-1E+10	1
4901784	161	C	12/01/2019	10:47	-132.726	43.656	0	1835.30	0	2.1090	0	36.8920	8	29.490	0	1812.666	0	46.1	4	14.2	4	-1E+10	1	-1E+10	1	-1E+10	1	-1E+10	1	-1E+10	1	-1E+10	1
4901784	161	C	12/01/2019	10:47	-132.726	43.656	0	1840.50	0	2.1040	0	36.8930	8	29.492	0	1817.779	0	46.4	4	14.3	4	-1E+10	1	-1E+10	1	-1E+10	1	-1E+10	1	-1E+10	1	-1E+10	1
4901784	161	C	12/01/2019	10:47	-132.726	43.656	0	1845.60	0	2.1010	0	36.8930	8	29.492	0	1822.794	0	46.7	4	14.4	4	-1E+10	1	-1E+10	1	-1E+10	1	-1E+10	1	-1E+10	1	-1E+10	1
4901784	161	C	12/01/2019	10:47	-132.726	43.656	0	1850.70	0	2.0950	0	36.8940	8	29.493	0	1827.809	0	47.0	4	14.5	4	-1E+10	1	-1E+10	1	-1E+10	1	-1E+10	1	-1E+10	1	-1E+10	1
4901784	161	C	12/01/2019	10:47	-132.726	43.656	0	1855.10	0	2.0900	0	36.8950	8	29.495	0	1832.136	0	47.2	4	14.5	4	-1E+10	1	-1E+10	1	-1E+10	1	-1E+10	1	-1E+10	1	-1E+10	1
4901784	161	C	12/01/2019	10:47	-132.726	43.656	0	1859.40	0	2.0870	0	36.8960	8	29.496	0	1836.364	0	47.3	4	14.6	4	-1E+10	1	-1E+10	1	-1E+10	1	-1E+10	1	-1E+10	1	-1E+10	1
4901784	161	C	12/01/2019	10:47	-132.726	43.656	0	1864.60	0	2.0810	0	36.8960	8	29.496	0	1841.477	0	47.6	4	14.6	4	-1E+10	1	-1E+10	1	-1E+10	1	-1E+10	1	-1E+10	1	-1E+10	1
4901784	161	C	12/01/2019	10:47	-132.726	43.656	0	1869.80	0	2.0750	0	36.8960	8	29.497	0	1846.590	0	48.0	4	14.8	4	-1E+10	1	-1E+10	1	-1E+10	1	-1E+10	1	-1E+10	1	-1E+10	1
4901784	161	C	12/01/2019	10:47	-132.726	43.656	0	1875.10	0	2.0660	0	36.8980	8	29.499	0	1851.801	0	48.4	4	14.9	4	-1E+10	1	-1E+10	1	-1E+10	1	-1E+10	1	-1E+10	1	-1E+10	1
4901784	161	C	12/01/2019	10:47	-132.726	43.656	0	1880.40	0	2.0580	0	36.8990	8	29.501	0	1857.012	0	48.7	4	15.0	4	-1E+10	1	-1E+10	1	-1E+10	1	-1E+10	1	-1E+10	1	-1E+10	1
4901784	161	C	12/01/2019	10:47	-132.726	43.656	0	1884.90	0	2.0580	0	36.9000	8	29.501	0	1861.437	0	48.9	4	15.0	4	-1E+10	1	-1E+10	1	-1E+10	1	-1E+10	1	-1E+10	1	-1E+10	1
4901784	161	C	12/01/2019	10:47	-132.726	43.656	0	1889.30	0	2.0560	0	36.9000	8	29.502	0	1865.763	0	49.2	4	15.1	4	-1E+10	1	-1E+10	1	-1E+10	1	-1E+10	1	-1E+10	1	-1E+10	1
4901784	161	C	12/01/2019	10:47	-132.726	43.656	0	1894.80	0	2.0480	0	36.9010	8	29.503	0	1871.170	0	49.5	4	15.2	4	-1E+10	1	-1E+10	1	-1E+10	1	-1E+10	1	-1E+10	1	-1E+10	1
4901784	161	C	12/01/2019	10:47	-132.726	43.656	0	1900.20	0	2.0440	0	36.9020	8	29.504	0	1876.479	0	49.9	4	15.3	4	-1E+10	1	-1E+10	1	-1E+10	1	-1E+10	1	-1E+10	1	-1E+10	1
4901784	161	C	12/01/2019	10:47	-132.726	43.656	0	1904.80	0	2.0400	0	36.9030	8	29.506	0	1881.001	0	50.1	4	15.4	4	-1E+10	1	-1E+10	1	-1E+10	1	-1E+10	1	-1E+10	1	-1E+10	1
4901784	161	C	12/01/2019	10:47	-132.726	43.656	0	1909.40	0	2.0360	0	36.9040	8	29.507	0	1885.523	0	50.4	4	15.5	4	-1E+10	1	-1E+10	1	-1E+10	1	-1E+10	1	-1E+10	1	-1E+10	1
4901784	161	C	12/01/2019	10:47	-132.726	43.656	0	1915.40	0	2.0310	0	36.9040	8	29.507	0	1891.422	0	50.6	4	15.5	4	-1E+10	1	-1E+10	1	-1E+10	1	-1E+10	1	-1E+10	1	-1E+10	1
4901784	161	C	12/01/2019	10:47	-132.726	43.656	0	1920.50	0	2.0270	0	36.9050	8	29.508	0	1896.435	0	50.8	4	15.6	4	-1E+10	1	-1E+10	1	-1E+10	1	-1E+10	1	-1E+10	1	-1E+10	1
4901784	161	C	12/01/2019	10:47	-132.726	43.656	0	1925.30	0	2.0240	0	36.9060	8	29.509	0	1901.154	0	51.0	4	15.7	4	-1E+10	1	-1E+10	1	-1E+10	1	-1E+10	1	-1E+10	1	-1E+10	1
4901784	161	C	12/01/2019	10:47	-132.726	43.656	0	1930.10	0	2.0220	0	36.9060	8	29.510	0	1905.872	0	51.1	4	15.7	4	-1E+10	1	-1E+10	1	-1E+10	1	-1E+10	1	-1E+10	1	-1E+10	1
4901784	161	C	12/01/2019	10:47	-132.726	43.656	0	1934.90	0	2.0170	0	36.9060	8	29.510	0	1910.590	0	51.4	4	15.8	4	-1E+10	1	-1E+10	1	-1E+10	1	-1E+10	1	-1E+10	1	-1E+10	1
4901784	161	C	12/01/2019	10:47	-132.726	43.656	0	1939.70	0	2.0120	0	36.9070	8	29.511	0	1915.308	0	51.8	4	15.9	4	-1E+10	1	-1E+10	1	-1E+10	1	-1E+10	1	-1E+10	1	-1E+10	1
4901784	161	C	12/01/2019	10:47	-132.726	43.656	0	1944.60	0	2.0080	0	36.9080	8	29.512	0	1920.124	0	52.1	4	16.0	4	-1E+10	1	-1E+10	1	-1E+10	1	-1E+10	1	-1E+10	1	-1E+10	1
4901784	161	C	12/01/2019	10:47	-132.726	43.656	0	1949.50	0	2.0040	0	36.9090	8	29.514	0	1924.941	0	52.5	4	16.1	4	-1E+10	1	-1E+10	1	-1E+10	1	-1E+10	1	-1E+10	1	-1E+10	1
4901784	161	C	12/01/2019	10:47	-132.726	43.656	0	1954.40	0	2.0000	0	36.9100	8	29.515	0	1929.757	0	52.8	4	16.2	4	-1E+10	1	-1E+10	1	-1E+10	1	-1E+10	1	-1E+10	1	-1E+10	1
4901784	161	C	12/01/2019	10:47	-132.726	43.656	0	1959.40	0	1.9970	0	36.9110	8	29.516	0	1934.671	0	53.2	4	16.3	4	-1E+10	1	-1E+10	1	-1E+10	1	-1E+10	1	-1E+10	1	-1E+10	1
4901784	161	C	12/01/2019	10:47	-132.726	43.656	0	1964.40	0	1.9950	0	36.9130	8	29.518	0	1939.585	0	53.5	4	16.4	4	-1E+10	1	-1E+10	1	-1E+10	1	-1E+10	1	-1E+10	1	-1E+10	1
4901784	161	C	12/01/2019	10:47	-132.726	43.656	0	1969.50	0	1.9930	0	36.9180	8	29.522	0	1944.597	0	53.8	4	16.5	4	-1E+10	1	-1E+10	1	-1E+10	1	-1E+10	1	-1E+10	1	-1E+10	1
4901784	161	C	12/01/2019	10:47	-132.726	43.656	0	1974.60	0	1.9910	0	36.9190	8	29.523	0	1949.610	0	54.1	4	16.6	4	-1E+10	1	-1E+10	1	-1E+10	1	-1E+10	1	-1E+10	1	-1E+10	1
4901784	161	C	12/01/2019	10:47	-132.726	43.656	0	1979.70	0	1.9880	0	36.9200	8	29.524	0	1954.622	0	54.3	4	16.7	4	-1E+10	1	-1E+10	1	-1E+10	1	-1E+10	1	-1E+10	1	-1E+10	1
4901784	161	C	12/01/2019	10:47	-132.726	43.656	0	1984.80	0	1.9830	0	36.9210	8	29.525	0	1959.634	0	54.5	4	16.7	4	-1E+10	1	-1E+10	1	-1E+10	1	-1E+10	1	-1E+10	1	-1E+10	1
4901784	161	C	12/01/2019	10:47	-132.726	43.656	0	1990.00	0	1.9810	0	36.9210	8	29.525	0	1964.744	0	54.8	4	16.8	4	-1E+10	1	-1E+10	1	-1E+10	1	-1E+10	1	-1E+10	1	-1E+10	1
4901784	161	C	12/01/2019	10:47	-132.726	43.656	0	1995.20	0	1.9780	0	36.9210	8	29.526	0	1969.854	0	55.0	4	16.9	4	-1E+10	1	-1E+10	1	-1E+10	1	-1E+10	1	-1E+10	1	-1E+10	1
4901784	161	C	12/01/2019	10:47	-132.726	43.656	0	2000.40	0	1.9750	0	36.9220	8	29.527	0	1974.964	0	55.2	4	16.9	4	-1E+10	1	-1E+10	1	-1E+10	1	-1E+10	1	-1E+10	1	-1E+10	1
4901784	161	C	12/01/2019	10:47	-132.726	43.656	0	2005.70	0	1.9710	0	36.9220	8	29.527	0	1980.172	0	55.4	4	17.0	4	-1E+10	1	-1E+10	1	-1E+10	1	-1E+10	1	-1E+10	1	-1E+10	1
4901784	161	C	12/01/2019	10:47	-132.726	43.656	0	2010.20	0	1.9680	0	36.9230	8	29.528	0	1984.593	0	55.7	4	17.1	4	-1E+10	1	-1E+10	1	-1E+10	1	-1E+10	1	-1E+10	1	-1E+10	1
4901784	161	C	12/01/2019	10:47	-132.726	43.656	0	2015.90	0	1.9630	0	36.9240	8	29.530	0	1990.194	0	55.9	4	17.1	4	-1E+10	1	-1E+10	1	-1E+10	1	-1E+10	1	-1E+10	1	-1E+10	1
4901784	161	C	12/01/2019	10:47	-132.726	43.656	0	2020.50	0	1.9610	0	36.9240	8	29.530	0	1994.714	0	56.0	4	17.2	4	-1E+10	1	-1E+10	1	-1E+10	1	-1E+10	1	-1E+10	1	-1E+10	1
4901784	161	C	12/01/2019	10:47	-132.726	43.656	0																										
4901784	162	C	12/11/2019	10:43	-132.684	43.638	0	3.00	0	13.8660	0	34.7120	8	25.993	0	2.976	0	242.5	4	95.5	4	-1E+10	1	-1E+10	1	-1E+10	1	-1E+10	1	-1E+10	1	-1E+10	1
4901784	162	C	12/11/2019	10:43	-132.684	43.638	0	4.40	0	13.8650	0	34.7110	8	25.993	0	4.365	0	242.5	4	95.5	4	-1E+10	1	-1E+10	1	-1E+10	1	-1E+10	1	-1E+10	1	-1E+10	1
4901784	162	C	12/11/2019	10:43	-132.684	43.638	0	5.80	0	13.8650	0	34.7120	8	25.994	0	5.754	0	242.5	4	95.5	4	-1E+10	1	-1E+10	1	-1E+10	1	-1E+10	1	-1E+10	1	-1E+10	1
4901784	162	C	12/11/2019	10:43	-132.684	43.638	0	7.10	0	13.8650	0	34.7110	8	25.993	0	7.043	0	242.4	4	95.5	4	-1E+10	1	-1E+10	1	-1E+10	1	-1E+10	1	-1E+10	1	-1E+10	1
4901784	162	C	12/11/2019	10:43	-132.684	43.638	0	8.50	0	13.8650	0	34.7130	8	25.994	0	8.432	0	242.5	4	95.5	4	-1E+10	1	-1E+10	1	-1E+10	1	-1E+10	1	-1E+10	1	-1E+10	1
4901784	162	C	12/11/2019	10:43	-132.684	43.638	0	9.90	0	13.8660	0	34.7130	8	25.994	0	9.821	0	242.4	4	95.5	4	-1E+10	1	-1E+10	1	-1E+10	1	-1E+10	1	-1E+10	1	-1E+10	1
4901784	162	C	12/11/2019	10:43	-132.684	43.638	0	11.40	0	13.8670	0	34.7150	8	25.996	0	11.309	0	242.6	4	95.6	4	-1E+10	1	-1E+10	1	-1E+10	1	-1E+10	1	-1E+10	1	-1E+10	1
4901784	162	C	12/11/2019	10:43	-132.684	43.638	0	13.00	0	13.8690	0	34.7160	8	25.996	0	12.896	0	242.4	4	95.5	4	-1E+10	1	-1E+10	1	-1E+10	1	-1E+10	1	-1E+10	1	-1E+10	1
4901784	162	C	12/11/2019	10:43	-132.684	43.638	0	14.70	0	13.8680	0	34.7160	8	25.996	0	14.582	0	242.4	4	95.5	4	-1E+10	1	-1E+10	1	-1E+10	1	-1E+10	1	-1E+10	1	-1E+10	1
4901784	162	C	12/11/2019	10:43	-132.684	43.638	0	16.40	0	13.8680	0	34.7160	8	25.996	0	16.268	0	242.4	4	95.4	4	-1E+10	1	-1E+10	1	-1E+10	1	-1E+10	1	-1E+10	1	-1E+10	1
4901784	162	C	12/11/2019	10:43	-132.684	43.638	0	18.10	0	13.8690	0	34.7170	8	25.997	0	17.955	0	242.1	4	95.4	4	-1E+10	1	-1E+10	1	-1E+10	1	-1E+10	1	-1E+10	1	-1E+10	1
4901784	162	C	12/11/2019	10:43	-132.684	43.638	0	19.90	0	13.8690	0	34.7170	8	25.997	0	19.740	0	242.3	4	95.4	4	-1E+10	1	-1E+10	1	-1E+10	1	-1E+10	1	-1E+10	1	-1E+10	1
4901784	162	C	12/11/2019	10:43	-132.684	43.638	0	21.70	0	13.8690	0	34.7170	8	25.997	0	21.525	0	242.1	4	95.4	4	-1E+10	1	-1E+10	1	-1E+10	1	-1E+10	1	-1E+10	1	-1E+10	1
4901784	162	C	12/11/2019	10:43	-132.684	43.638	0	23.50	0	13.8690	0	34.7180	8	25.998	0	23.311	0	242.1	4	95.4	4	-1E+10	1	-1E+10	1	-1E+10	1	-1E+10	1	-1E+10	1	-1E+10	1
4901784	162	C	12/11/2019	10:43	-132.684	43.638	0	25.30	0	13.8700	0	34.7190	8	25.999	0	25.096	0	242.1	4	95.4	4	-1E+10	1	-1E+10	1	-1E+10	1	-1E+10	1	-1E+10	1	-1E+10	1
4901784	162	C	12/11/2019	10:43	-132.684	43.638	0	27.30	0	13.8700	0	34.7190	8	25.999	0	27.080	0	242.0	4	95.3	4	-1E+10	1	-1E+10	1	-1E+10	1	-1E+10	1	-1E+10	1	-1E+10	1
4901784	162	C	12/11/2019	10:43	-132.684	43.638	0	29.10	0	13.8710	0	34.7200	8	25.999	0	28.865	0	242.2	4	95.4	4	-1E+10	1	-1E+10	1	-1E+10	1	-1E+10	1	-1E+10	1	-1E+10	1
4901784	162	C	12/11/2019	10:43	-132.684	43.638	0	31.00	0	13.8710	0	34.7210	8	26.000	0	30.750	0	242.1	4	95.3	4	-1E+10	1	-1E+10	1	-1E+10	1	-1E+10	1	-1E+10	1	-1E+10	1
4901784	162	C	12/11/2019	10:43	-132.684	43.638	0	32.70	0	13.8710	0	34.7210	8	26.000	0	32.436	0	242.0	4	95.3	4	-1E+10	1	-1E+10	1	-1E+10	1	-1E+10	1	-1E+10	1	-1E+10	1
4901784	162	C	12/11/2019	10:43	-132.684	43.638	0	34.50	0	13.8710	0	34.7210	8	26.000	0	34.221	0	242.0	4	95.3	4	-1E+10	1	-1E+10	1	-1E+10	1	-1E+10	1	-1E+10	1	-1E+10	1
4901784	162	C	12/11/2019	10:43	-132.684	43.638	0	36.20	0	13.8710	0	34.7220	8	26.001	0	35.908	0	242.0	4	95.3	4	-1E+10	1	-1E+10	1	-1E+10	1	-1E+10	1	-1E+10	1	-1E+10	1
4901784	162	C	12/11/2019	10:43	-132.684	43.638	0	37.70	0	13.8720	0	34.7220	8	26.001	0	37.395	0	241.8	4	95.2	4	-1E+10	1	-1E+10	1	-1E+10	1	-1E+10	1	-1E+10	1	-1E+10	1
4901784	162	C	12/11/2019	10:43	-132.684	43.638	0	39.20	0	13.8720	0	34.7230	8	26.002	0	38.883	0	241.8	4	95.2	4	-1E+10	1	-1E+10	1	-1E+10	1	-1E+10	1	-1E+10	1	-1E+10	1
4901784	162	C	12/11/2019	10:43	-132.684	43.638	0	40.50	0	13.8720	0	34.7240	8	26.002	0	40.172	0	241.7	4	95.2	4	-1E+10	1	-1E+10	1	-1E+10	1	-1E+10	1	-1E+10	1	-1E+10	1
4901784	162	C	12/11/2019	10:43	-132.684	43.638	0	42.00	0	13.8720	0	34.7250	8	26.003	0	41.660	0	241.5	4	95.1	4	-1E+10	1	-1E+10	1	-1E+10	1	-1E+10	1	-1E+10	1	-1E+10	1
4901784	162	C	12/11/2019	10:43	-132.684	43.638	0	43.60	0	13.8720	0	34.7250	8	26.003	0	43.247	0	241.7	4	95.2	4	-1E+10	1	-1E+10	1	-1E+10	1	-1E+10	1	-1E+10	1	-1E+10	1
4901784	162	C	12/11/2019	10:43	-132.684	43.638	0	45.30	0	13.8730	0	34.7260	8	26.004	0	44.933	0	241.5	4	95.1	4	-1E+10	1	-1E+10	1	-1E+10	1	-1E+10	1	-1E+10	1	-1E+10	1
4901784	162	C	12/11/2019	10:43	-132.684	43.638	0	47.00	0	13.8730	0	34.7260	8	26.004	0	46.619	0	241.6	4	95.2	4	-1E+10	1	-1E+10	1	-1E+10	1	-1E+10	1	-1E+10	1	-1E+10	1
4901784	162	C	12/11/2019	10:43	-132.684	43.638	0	48.70	0	13.8730	0	34.7260	8	26.004	0	48.305	0	241.3	4	95.1	4	-1E+10	1	-1E+10	1	-1E+10	1	-1E+10	1	-1E+10	1	-1E+10	1
4901784	162	C	12/11/2019	10:43	-132.684	43.638	0	50.30	0	13.8740	0	34.7270	8	26.005	0	49.892	0	241.5	4	95.1	4	-1E+10	1	-1E+10	1	-1E+10	1	-1E+10	1	-1E+10	1	-1E+10	1
4901784	162	C	12/11/2019	10:43	-132.684	43.638	0	51.70	0	13.8740	0	34.7270	8	26.005	0	51.280	0	241.3	4	95.0	4	-1E+10	1	-1E+10	1	-1E+10	1	-1E+10	1	-1E+10	1	-1E+10	1
4901784	162	C	12/11/2019	10:43	-132.684	43.638	0	53.30	0	13.8740	0	34.7280	8	26.006	0	52.867	0	241.1	4	95.0	4	-1E+10	1	-1E+10	1	-1E+10	1	-1E+10	1	-1E+10	1	-1E+10	1
4901784	162	C	12/11/2019	10:43	-132.684	43.638	0	54.90	0	13.8740	0	34.7290	8	26.006	0	54.454	0	241.1	4	95.0	4	-1E+10	1	-1E+10	1	-1E+10	1	-1E+10	1	-1E+10	1	-1E+10	1
4901784	162	C	12/11/2019	10:43	-132.684	43.638	0	56.80	0	13.8740	0	34.7290	8	26.006	0	56.338	0	240.9	4	94.9	4	-1E+10	1	-1E+10	1	-1E+10	1	-1E+10	1	-1E+10	1	-1E+10	1
4901784	162	C	12/11/2019	10:43	-132.684	43.638	0	58.90	0	13.8730	0	34.7300	8	26.007	0	58.421	0	240.7	4	94.8	4	-1E+10	1	-1E+10	1	-1E+10	1	-1E+10	1	-1E+10	1	-1E+10	1
4901784	162	C	12/11/2019	10:43	-132.684	43.638	0	61.00	0	13.8720	0	34.7320	8	26.009	0	60.503	0	240.9	4	94.9	4	-1E+10	1	-1E+10	1	-1E+10	1	-1E+10	1	-1E+10	1	-1E+10	1
4901784	162	C	12/11/2019	10:43	-132.684	43.638	0	63.00	0	13.8730	0	34.7320	8	26.009	0	62.487	0	240.6	4	94.8	4	-1E+10	1	-1E+10	1	-1E+10	1	-1E+10	1	-1E+10	1	-1E+10	1
4901784	162	C	12/11/2019	10:43	-132.684	43.638	0	64.80	0	13.8720	0	34.7320	8	26.009	0	64.272	0	240.3	4	94.7	4	-1E+10	1	-1E+10	1	-1E+10	1	-1E+10	1	-1E+10	1	-1E+10	1
4901784	162	C	12/11/2019	10:43	-132.684	43.638	0	66.70	0	13.8720	0	34.7320	8	26.009	0	66.156	0	240.4	4	94.7	4	-1E+10	1	-1E+10	1	-1E+10	1	-1E+10	1	-1E+10	1	-1E+10	1
4901784	162	C	12/11/2019	10:43	-132.684	43.638	0	68.50	0	13.8670	0	34.7320	8	26.011	0	67.941	0	240.2	4	94.6	4	-1E+10	1	-1E+10	1	-1E+10	1	-1E+10	1	-1E+10	1	-1E+10	1
4901784	162	C	12/11/2019	10:43	-132.684	43.638	0	70.30	0	13.8660	0	34.7330	8	26.012	0	69.726	0	240.2	4	94.6	4	-1E+10	1	-1E+10	1	-1E+10	1	-1E+10	1	-1E+10	1	-1E+10	1
4901784	162	C	12/11/2019	10:43	-132.684	43.638	0	72.10	0	13.8620	0	34.7310	8	26.011	0	71.511	0	239.9	4	94.5	4	-1E+10	1	-1E+10	1	-1E+10	1	-1E+10	1	-1E+10	1	-1E+10	1
4901784	162	C	12/11/2019	10:43	-132.684	43.638	0	73.90	0	13.8610	0	34.7320	8	26.012	0	73.296	0	239.7	4	94.4	4	-1E+10	1	-1E+10	1	-1E+10	1	-1E+10	1	-1E+10	1	-1E+10	1
4901784	162	C	12/11/2019	10:43	-132.684	43.638	0	75.80	0	13.8600	0	34.7300	8	26.011	0	75.180	0	239.6	4	94.4	4	-1E+10	1	-1E+10	1	-1E+10	1	-1E+10	1	-1E+10	1	-1E+10	1
4901784	162	C	12/11/2019	10:43	-132.684	43.638	0	77.60	0	13.8600	0	34.7280	8	26.009	0	76.965	0	239.6	4	94.3	4	-1E+10	1	-1E+10	1	-1E+10	1	-1E+10	1	-1E+10	1	-1E+10	1
4901784	162	C	12/11/2019	10:43	-132.684	43.638	0	79.40	0	13.8680	0	34.7230	8	26.004	0	78.750	0	239.3	4	94.2	4	-1E+10	1	-1E+10	1	-1E+10	1	-1E+10	1	-1E+10	1	-1E+10	1
4901784	162	C	12/11/2019	10:43	-132.684	43.638	0	79.90	0	13.8680	0	34.7220	8	26.003	0	79.246	0	239.2	4	94.2	4	-1E+10	1	-1E+10	1	-1E+10	1	-1E+10	1	-1E+10	1	-1E+10	1
4901784	162	C	12/11/2019	10:43	-132.684	43.638	0	81.30	0	13.8690	0	34.7150	8	25.997	0	80.634	0	239.3	4	94.2	4	-1E+10	1	-1E+10	1	-1E+10	1	-1E+10	1	-1E+10	1	-1E+10	1
4901784	162	C	12/11/2019	10:43	-132.684	43.638	0	82.70	0	13.8690	0	34.7010	8	25.987	0	82.023	0	239.4	4	94.3	4	-1E+10	1	-1E+10	1	-1E+10	1	-1E+10	1	-1E+10	1	-1E+10	1
4901784	162	C	12/11/2019	10:43	-132.684	43.638	0	84.10	0	13.7410	0	34.6900	8	26.005	0	83.411	0	239.8	4	94.2	4	-1E+10	1	-1E+10	1	-1E+10	1	-1E+10	1	-1E+10	1	-1E+10	1
4901784	162	C	12/11/2019	10:43	-132.684	43.638	0	85.70	0	13.6750	0	34.6640	8	25.998	0	84.997	0	240.4	4	94.3	4	-1E+10	1	-1E+10	1	-1E+10	1	-1E+10	1	-1E+10	1	-1E+10	1
4901784	162	C	12/11/2019	10:43	-132.684	43.638	0	87.20	0	12.9540	0	34.6420	8	26.128	0	86.485	0	243.1	4	93.9	4	-1E+10	1	-1E+10	1	-1E+10	1	-1E+10	1	-1E+10	1	-1E+10	1
4901784	162	C	12/11/2019	10:43	-132.684	43.638	0	88.80	0	12.1260	0	34.7090	8	26.342	0	88.071	0	244.8	4	93.0	4	-1E+10	1	-1E+10	1	-1E+10	1	-1E+10	1	-1E+10	1	-1E+10	1
4901784	162	C	12/11/2019	10:43	-132.684	43.638	0	90.40	0	11.7240	0	34.6450	8	26.368	0	89.658	0	248.5	4	93.6	4	-1E+10	1	-1E+10	1	-1E+10	1	-1E+10	1	-1E+10	1	-1E+10	1
4901784	162	C	12/11/2019	10:43	-132.684	43.638	0	92.00	0	11.6790	0	34.6400	8	26.373	0	91.244	0	248.0	4	93.3	4	-1E+10	1	-1E+10	1	-1E+10	1	-1E+10	1	-1E+10	1	-1E+10	1
4901784	162	C	12/11/2019	10:43	-132.684	43.638	0	93.60	0	11.6410	0	34.6240	8	26.368	0	92.831	0	246.8	4	92.8	4	-1E+10	1	-1E+10	1	-1E+10	1	-1E+10	1	-1E+10	1	-1E+10	1
4901784	162	C	12/11/2019	10:43	-132.684	43.638	0	95.10	0	11.2990	0	34.6280	8	26.434	0	94.318	0	246.4	4	92.0	4	-1E+10	1	-1E+10	1	-1E+10	1	-1E+10	1	-1E+10	1	-1E+10	1
4901784	162	C	12/11/2019	10:43	-132.684	43.638	0	96.80	0	11.1980	0	34.6150	8	26.442	0	96.004	0	245.3	4	91.4	4	-1E+10	1	-1E+10	1	-1E+10	1	-1E+10	1	-1E+10	1	-1E+10	1
4901784	162	C	12/11/2019	10:43	-132.684	43.638	0	98.60	0	10.8890	0	34.6270	8	26.508	0	97.789	0	243.7	4	90.2	4	-1E+10	1	-1E+10	1	-1E+10	1	-1E+10	1	-1E+10	1	-1E+10	1
4901784	162	C	12/11/2019	10:43	-132.684	43.638	0	100.30	0	10.3570	0	34.6460	8	26.616	0	99.474	0	245.3	4	89.8	4	-1E+10	1	-1E+10	1	-1E+10	1	-1E+10	1	-1E+10	1	-1E+10	1
4901784	162	C	12/11/2019	10:43	-132.684	43.638	0	102.10	0	10.2150	0	34.6580	8	26.650	0	101.259	0	245.0	4	89.4	4	-1E+10	1	-1E+10	1	-1E+10	1	-1E+10	1	-1E+10	1	-1E+10	1
4901784	162	C	12/11/2019	10:43	-132.684	43.638	0	104.80	0	10.1010	0	34.6540	8	26.667	0	103.936	0	244.8	4	89.1	4	-1E+10	1	-1E+10	1	-1E+10	1	-1E+10	1	-1E+10	1	-1E+10	1
4901784	162	C	12/11/2019	10:43	-132.684	43.638	0	107.40	0	10.0000	0	34.6480	8	26.680	0	106.514	0	244.1	4	88.7	4	-1E+10	1	-1E+10	1	-1E+10	1	-1E+10	1	-1E+10	1	-1E+10	1
4901784	162	C	12/11/2019	10:43	-132.684	43.638	0	110.10	0	9.8950	0	34.6530	8	26.701	0	109.191	0	243.2	4	88.1	4	-1E+10	1	-1E+10	1	-1E+10	1	-1E+10	1	-1E+10	1	-1E+10	1
4901784	162	C	12/11/2019	10:43	-132.684	43.638	0	112.80	0	9.7750	0	34.6580	8	26.726	0	111.868	0	242.4	4	87.6	4	-1E+10	1	-1E+10	1	-1E+10	1	-1E+10	1	-1E+10	1	-1E+10	1
4901784	162	C	12/11/2019	10:43	-132.684	43.638	0	114.60	0	9.7550	0	34.6550	8	26.727	0	113.652	0	241.2	4	87.2	4	-1E+10	1	-1E+10	1	-1E+10	1	-1E+10	1	-1E+10	1	-1E+10	1
4901784	162	C	12/11/2019	10:43	-132.684	43.638	0	117.30	0	9.6250	0	34.6580	8	26.751	0	116.329	0	239.3	4	86.2	4	-1E+10	1	-1E+10	1	-1E+10	1	-1E+10	1	-1E+10	1	-1E+10	1
4901784	162	C	12/11/2019	10:43	-132.684	43.638	0	120.00	0	9.4490	0	34.6980	8	26.811	0	119.006	0	237.2	4	85.2	4	-1E+10	1	-1E+10	1	-1E+10	1	-1E+10	1	-1E+10	1	-1E+10	1
4901784	162	C	12/11/2019	10:43	-132.684	43.638	0	121.90	0	9.3540	0	34.6940	8	26.824	0	120.890	0	236.0	4	84.6	4	-1E+10	1	-1E+10	1	-1E+10	1	-1E+10	1	-1E+10	1	-1E+10	1
4901784	162	C	12/11/2019	10:43	-132.684	43.638	0	124.70	0	9.2050	0	34.7360	8	26.881	0	123.666	0	233.3	4	83.4	4	-1E+10	1	-1E+10	1	-1E+10	1	-1E+10	1	-1E+10	1	-1E+10	1
4901784	162	C	12/11/2019	10:43	-132.684	43.638	0	127.60	0	9.1010	0	34.8150	8	26.960	0	126.541	0	230.5	4	82.2	4	-1E+10	1	-1E+10	1	-1E+10	1	-1E+10	1	-1E+10	1	-1E+10	1
4901784	162	C	12/11/2019	10:43	-132.684	43.638	0	129.40	0	8.9660	0	34.8670	8	27.022	0	128.325	0	229.7	4	81.7	4	-1E+10	1	-1E+10	1	-1E+10	1	-1E+10	1	-1E+10	1	-1E+10	1
4901784	162	C	12/11/2019	10:43	-132.684	43.638	0	132.00	0	8.9140	0	34.8940	8	27.052	0	130.903	0	228.8	4	81.3	4	-1E+10	1	-1E+10	1	-1E+10	1	-1E+10	1	-1E+10	1	-1E+10	1
4901784	162	C	12/11/2019	10:43	-132.684	43.638	0	134.70	0	8.8530	0	34.9430	8	27.100	0	133.580	0	227.5	4	80.8	4	-1E+10	1	-1E+10	1	-1E+10	1	-1E+10	1	-1E+10	1	-1E+10	1
4901784	162	C	12/11/2019	10:43	-132.684	43.638	0	137.90	0	8.8660	0	34.9950	8	27.138	0	136.752	0	225.7	4	80.2	4	-1E+10	1	-1E+10	1	-1E+10	1	-1E+10	1	-1E+10	1	-1E+10	1
4901784	162	C	12/11/2019	10:43	-132.684	43.638	0	140.40	0	8.8600	0	35.0120	8	27.153	0	139.230	0	224.5	4	79.8	4	-1E+10	1	-1E+10	1	-1E+10	1	-1E+10	1	-1E+10	1	-1E+10	1
4901784	162	C	12/11/2019	10:43	-132.684	43.638	0	142.80	0	8.7850	0	35.0570	8	27.200	0	141.610	0	223.2	4	79.2	4	-1E+10	1	-1E+10	1	-1E+10	1	-1E+10	1	-1E+10	1	-1E+10	1
4901784	162	C	12/11/2019	10:43	-132.684	43.638	0	145.10	0	8.7310	0	35.0870	8	27.232	0	143.890	0	222.2	4	78.7	4	-1E+10	1	-1E+10	1	-1E+10	1	-1E+10	1	-1E+10	1	-1E+10	1
4901784	162	C	12/11/2019	10:43	-132.684	43.638	0	147.40	0	8.6610	0	35.1190	8	27.268	0	146.170	0	220.8	4	78.2	4	-1E+10	1	-1E+10	1	-1E+10	1	-1E+10	1	-1E+10	1	-1E+10	1
4901784	162	C	12/11/2019	10:43	-132.684	43.638	0	149.90	0	8.5900	0	35.1470	8	27.301	0	148.648	0	219.2	4	77.5	4	-1E+10	1	-1E+10	1	-1E+10	1	-1E+10	1	-1E+10	1	-1E+10	1
4901784	162	C	12/11/2019	10:43	-132.684	43.638	0	152.20	0	8.4680	0	35.1910	8	27.355	0	150.928	0	217.8	4	76.8	4	-1E+10	1	-1E+10	1	-1E+10	1	-1E+10	1	-1E+10	1	-1E+10	1
4901784	162	C	12/11/2019	10:43	-132.684	43.638	0	154.70	0	8.3560	0	35.2220	8	27.397	0	153.406	0	216.2	4	76.1	4	-1E+10	1	-1E+10	1	-1E+10	1	-1E+10	1	-1E+10	1	-1E+10	1
4901784	162	C	12/11/2019	10:43	-132.684	43.638	0	157.40	0	8.2560	0	35.3030	8	27.476	0	156.082	0	214.6	4	75.4	4	-1E+10	1	-1E+10	1	-1E+10	1	-1E+10	1	-1E+10	1	-1E+10	1
4901784	162	C	12/11/2019	10:43	-132.684	43.638	0	160.00	0	8.2060	0	35.3260	8	27.501	0	158.660	0	213.1	4	74.8	4	-1E+10	1	-1E+10	1	-1E+10	1	-1E+10	1	-1E+10	1	-1E+10	1
4901784	162	C	12/11/2019	10:43	-132.684	43.638	0	162.20	0	8.1400	0	35.3770	8	27.552	0	160.840	0	211.5	4	74.2	4	-1E+10	1	-1E+10	1	-1E+10	1	-1E+10	1	-1E+10	1	-1E+10	1
4901784	162	C	12/11/2019	10:43	-132.684	43.638	0	164.60	0	8.0970	0	35.4380	8	27.606	0	163.219	0	209.7	4	73.5	4	-1E+10	1	-1E+10	1	-1E+10	1	-1E+10	1	-1E+10	1	-1E+10	1
4901784	162	C	12/11/2019	10:43	-132.684	43.638	0	167.70	0	8.0740	0	35.5050	8	27.662	0	166.292	0	208.8	4	73.2	4	-1E+10	1	-1E+10	1	-1E+10	1	-1E+10	1	-1E+10	1	-1E+10	1
4901784	162	C	12/11/2019	10:43	-132.684	43.638	0	170.00	0	8.0720	0	35.5280	8	27.681	0	168.572	0	207.2	4	72.6	4	-1E+10	1	-1E+10	1	-1E+10	1	-1E+10	1	-1E+10	1	-1E+10	1
4901784	162	C	12/11/2019	10:43	-132.684	43.638	0	172.30	0	8.0550	0	35.5600	8	27.709	0	170.852	0	204.3	4	71.6	4	-1E+10	1	-1E+10	1	-1E+10	1	-1E+10	1	-1E+10	1	-1E+10	1
4901784	162	C	12/11/2019	10:43	-132.684	43.638	0	175.40	0	8.0580	0	35.6040	8	27.743	0	173.924	0	201.0	4	70.5	4	-1E+10	1	-1E+10	1	-1E+10	1	-1E+10	1	-1E+10	1	-1E+10	1
4901784	162	C	12/11/2019	10:43	-132.684	43.638	0	177.80	0	8.0600	0	35.6240	8	27.758	0	176.303	0	200.6	4	70.3	4	-1E+10	1	-1E+10	1	-1E+10	1	-1E+10	1	-1E+10	1	-1E+10	1
4901784	162	C	12/11/2019	10:43	-132.684	43.638	0	180.30	0	8.0590	0	35.6450	8	27.775	0	178.781	0	199.8	4	70.1	4	-1E+10	1	-1E+10	1	-1E+10	1	-1E+10	1	-1E+10	1	-1E+10	1
4901784	162	C	12/11/2019	10:43	-132.684	43.638	0	182.70	0	8.0540	0	35.6750	8	27.799	0	181.160	0	199.1	4	69.8	4	-1E+10	1	-1E+10	1	-1E+10	1	-1E+10	1	-1E+10	1	-1E+10	1
4901784	162	C	12/11/2019	10:43	-132.684	43.638	0	185.30	0	8.0310	0	35.7160	8	27.835	0	183.736	0	196.5	4	68.9	4	-1E+10	1	-1E+10	1	-1E+10	1	-1E+10	1	-1E+10	1	-1E+10	1
4901784	162	C	12/11/2019	10:43	-132.684	43.638	0	187.80	0	8.0240	0	35.7400	8	27.855	0	186.214	0	191.1	4	67.0	4	-1E+10	1	-1E+10	1	-1E+10	1	-1E+10	1	-1E+10	1	-1E+10	1
4901784	162	C	12/11/2019	10:43	-132.684	43.638	0	190.20	0	8.0770	0	35.7910	8	27.887	0	188.593	0	183.9	4	64.6	4	-1E+10	1	-1E+10	1	-1E+10	1	-1E+10	1	-1E+10	1	-1E+10	1
4901784	162	C	12/11/2019	10:43	-132.684	43.638	0	192.70	0	8.1130	0	35.8510	8	27.929	0	191.071	0	178.4	4	62.7	4	-1E+10	1	-1E+10	1	-1E+10	1	-1E+10	1	-1E+10	1	-1E+10	1
4901784	162	C	12/11/2019	10:43	-132.684	43.638	0	195.30	0	8.1460	0	35.9010	8	27.963	0	193.647	0	174.3	4	61.4	4	-1E+10	1	-1E+10	1	-1E+10	1	-1E+10	1	-1E+10	1	-1E+10	1
4901784	162	C	12/11/2019	10:43	-132.684	43.638	0	198.00	0	8.1710	0	35.9330	8	27.984	0	196.323	0	172.3	4	60.7	4	-1E+10	1	-1E+10	1	-1E+10	1	-1E+10	1	-1E+10	1	-1E+10	1
4901784	162	C	12/11/2019	10:43	-132.684	43.638	0	199.80	0	8.1710	0	35.9370	8	27.987	0	198.107	0	171.1	4	60.3	4	-1E+10	1	-1E+10	1	-1E+10	1	-1E+10	1	-1E+10	1	-1E+10	1
4901784	162	C	12/11/2019	10:43	-132.684	43.638	0	202.10	0	8.1710	0	35.9570	8	28.003	0	200.387	0	169.0	4	59.5	4	-1E+10	1	-1E+10	1	-1E+10	1	-1E+10	1	-1E+10	1	-1E+10	1
4901784	162	C	12/11/2019	10:43	-132.684	43.638	0	204.80	0	8.1930	0	36.0030	8	28.036	0	203.062	0	165.8	4	58.4	4	-1E+10	1	-1E+10	1	-1E+10	1	-1E+10	1	-1E+10	1	-1E+10	1
4901784	162	C	12/11/2019	10:43	-132.684	43.638	0	207.90	0	8.1940	0	36.0370	8	28.063	0	206.135	0	163.1	4	57.5	4	-1E+10	1	-1E+10	1	-1E+10	1	-1E+10	1	-1E+10	1	-1E+10	1
4901784	162	C	12/11/2019	10:43	-132.684	43.638	0	210.30	0	8.1940	0	36.0570	8	28.078	0	208.513	0	160.4	4	56.6	4	-1E+10	1	-1E+10	1	-1E+10	1	-1E+10	1	-1E+10	1	-1E+10	1
4901784	162	C	12/11/2019	10:43	-132.684	43.638	0	212.70	0	8.1980	0	36.0770	8	28.093	0	210.891	0	158.3	4	55.9	4	-1E+10	1	-1E+10	1	-1E+10	1	-1E+10	1	-1E+10	1	-1E+10	1
4901784	162	C	12/11/2019	10:43	-132.684	43.638	0	215.10	0	8.1930	0	36.0870	8	28.102	0	213.270	0	156.5	4	55.2	4	-1E+10	1	-1E+10	1	-1E+10	1	-1E+10	1	-1E+10	1	-1E+10	1
4901784	162	C	12/11/2019	10:43	-132.684	43.638	0	217.50	0	8.1890	0	36.0960	8	28.110	0	215.648	0	154.2	4	54.4	4	-1E+10	1	-1E+10	1	-1E+10	1	-1E+10	1	-1E+10	1	-1E+10	1
4901784	162	C	12/11/2019	10:43	-132.684	43.638	0	219.90	0	8.1800	0	36.1050	8	28.118	0	218.026	0	151.1	4	53.3	4	-1E+10	1	-1E+10	1	-1E+10	1	-1E+10	1	-1E+10	1	-1E+10	1
4901784	162	C	12/11/2019	10:43	-132.684	43.638	0	222.30	0	8.1630	0	36.1240	8	28.136	0	220.405	0	147.5	4	52.0	4	-1E+10	1	-1E+10	1	-1E+10	1	-1E+10	1	-1E+10	1	-1E+10	1
4901784	162	C	12/11/2019	10:43	-132.684	43.638	0	224.80	0	8.1320	0	36.1360	8	28.150	0	222.882	0	143.7	4	50.7	4	-1E+10	1	-1E+10	1	-1E+10	1	-1E+10	1	-1E+10	1	-1E+10	1
4901784	162	C	12/11/2019	10:43	-132.684	43.638	0	227.20	0	8.0980	0	36.1480	8	28.165	0	225.260	0	141.0	4	49.7	4	-1E+10	1	-1E+10	1	-1E+10	1	-1E+10	1	-1E+10	1	-1E+10	1
4901784	162	C	12/11/2019	10:43	-132.684	43.638	0	229.70	0	8.0720	0	36.1520	8	28.172	0	227.737	0	139.0	4	48.9	4	-1E+10	1	-1E+10	1	-1E+10	1	-1E+10	1	-1E+10	1	-1E+10	1
4901784	162	C	12/11/2019	10:43	-132.684	43.638	0	232.20	0	8.0280	0	36.1610	8	28.186	0	230.215	0	137.3	4	48.3	4	-1E+10	1	-1E+10	1	-1E+10	1	-1E+10	1	-1E+10	1	-1E+10	1
4901784	162	C	12/11/2019	10:43	-132.684	43.638	0	234.70	0	8.0010	0	36.1630	8	28.192	0	232.692	0	136.0	4	47.8	4	-1E+10	1	-1E+10	1	-1E+10	1	-1E+10	1	-1E+10	1	-1E+10	1
4901784	162	C	12/11/2019	10:43	-132.684	43.638	0	237.30	0	7.9540	0	36.1690	8	28.204	0	235.268	0	135.0	4	47.4	4	-1E+10	1	-1E+10	1	-1E+10	1	-1E+10	1	-1E+10	1	-1E+10	1
4901784	162	C	12/11/2019	10:43	-132.684	43.638	0	239.90	0	7.8860	0	36.1760	8	28.219	0	237.844	0	134.1	4	47.0	4	-1E+10	1	-1E+10	1	-1E+10	1	-1E+10	1	-1E+10	1	-1E+10	1
4901784	162	C	12/11/2019	10:43	-132.684	43.638	0	242.50	0	7.8370	0	36.1820	8	28.232	0	240.421	0	134.1	4	47.0	4	-1E+10	1	-1E+10	1	-1E+10	1	-1E+10	1	-1E+10	1	-1E+10	1
4901784	162	C	12/11/2019	10:43	-132.684	43.638	0	245.00	0	7.8260	0	36.1830	8	28.234	0	242.898	0	134.0	4	46.9	4	-1E+10	1	-1E+10	1	-1E+10	1	-1E+10	1	-1E+10	1	-1E+10	1
4901784	162	C	12/11/2019	10:43	-132.684	43.638	0	247.60	0	7.8120	0	36.1830	8	28.236	0	245.474	0	133.6	4	46.8	4	-1E+10	1	-1E+10	1	-1E+10	1	-1E+10	1	-1E+10	1	-1E+10	1
4901784	162	C	12/11/2019	10:43	-132.684	43.638	0	250.20	0	7.7850	0	36.1820	8	28.240	0	248.050	0	133.1	4	46.6	4	-1E+10	1	-1E+10	1	-1E+10	1	-1E+10	1	-1E+10	1	-1E+10	1
4901784	162	C	12/11/2019	10:43	-132.684	43.638	0	252.00	0	7.7340	0	36.1870	8	28.251	0	249.833	0	133.0	4	46.5	4	-1E+10	1	-1E+10	1	-1E+10	1	-1E+10	1	-1E+10	1	-1E+10	1
4901784	162	C	12/11/2019	10:43	-132.684	43.638	0	254.70	0	7.7080	0	36.1880	8	28.256	0	252.509	0	133.1	4	46.5	4	-1E+10	1	-1E+10	1	-1E+10	1	-1E+10	1	-1E+10	1	-1E+10	1
4901784	162	C	12/11/2019	10:43	-132.684	43.638	0	257.40	0	7.6780	0	36.1880	8	28.260	0	255.184	0	133.3	4	46.5	4	-1E+10	1	-1E+10	1	-1E+10	1	-1E+10	1	-1E+10	1	-1E+10	1
4901784	162	C	12/11/2019	10:43	-132.684	43.638	0	260.10	0	7.6220	0	36.1920	8	28.272	0	257.859	0	133.8	4	46.6	4	-1E+10	1	-1E+10	1	-1E+10	1	-1E+10	1	-1E+10	1	-1E+10	1
4901784	162	C	12/11/2019	10:43	-132.684	43.638	0	262.70	0	7.5830	0	36.1930	8	28.278	0	260.435	0	134.1	4	46.7	4	-1E+10	1	-1E+10	1	-1E+10	1	-1E+10	1	-1E+10	1	-1E+10	1
4901784	162	C	12/11/2019	10:43	-132.684	43.638	0	264.60	0	7.5790	0	36.1910	8	28.278	0	262.317	0	133.8	4	46.6	4	-1E+10	1	-1E+10	1	-1E+10	1	-1E+10	1	-1E+10	1	-1E+10	1
4901784	162	C	12/11/2019	10:43	-132.684	43.638	0	267.30	0	7.5380	0	36.1930	8	28.285	0	264.992	0	133.2	4	46.4	4	-1E+10	1	-1E+10	1	-1E+10	1	-1E+10	1	-1E+10	1	-1E+10	1
4901784	162	C	12/11/2019	10:43	-132.684	43.638	0	270.10	0	7.5170	0	36.1920	8	28.288	0	267.766	0	132.1	4	46.0	4	-1E+10	1	-1E+10	1	-1E+10	1	-1E+10	1	-1E+10	1	-1E+10	1
4901784	162	C	12/11/2019	10:43	-132.684	43.638	0	272.80	0	7.4630	0	36.1940	8	28.297	0	270.441	0	130.4	4	45.3	4	-1E+10	1	-1E+10	1	-1E+10	1	-1E+10	1	-1E+10	1	-1E+10	1
4901784	162	C	12/11/2019	10:43	-132.684	43.638	0	275.70	0	7.4030	0	36.1950	8	28.307	0	273.314	0	128.9	4	44.7	4	-1E+10	1	-1E+10	1	-1E+10	1	-1E+10	1	-1E+10	1	-1E+10	1
4901784	162	C	12/11/2019	10:43	-132.684	43.638	0	277.50	0	7.3810	0	36.1950	8	28.310	0	275.097	0	127.7	4	44.3	4	-1E+10	1	-1E+10	1	-1E+10	1	-1E+10	1	-1E+10	1	-1E+10	1
4901784	162	C	12/11/2019	10:43	-132.684	43.638	0	279.40	0	7.3640	0	36.1920	8	28.310	0	276.979	0	126.4	4	43.8	4	-1E+10	1	-1E+10	1	-1E+10	1	-1E+10	1	-1E+10	1	-1E+10	1
4901784	162	C	12/11/2019	10:43	-132.684	43.638	0	282.20	0	7.2750	0	36.1970	8	28.327	0	279.753	0	124.7	4	43.1	4	-1E+10	1	-1E+10	1	-1E+10	1	-1E+10	1	-1E+10	1	-1E+10	1
4901784	162	C	12/11/2019	10:43	-132.684	43.638	0	285.00	0	7.2290	0	36.1980	8	28.334	0	282.527	0	124.7	4	43.1	4	-1E+10	1	-1E+10	1	-1E+10	1	-1E+10	1	-1E+10	1	-1E+10	1
4901784	162	C	12/11/2019	10:43	-132.684	43.638	0	287.80	0	7.2080	0	36.1970	8	28.337	0	285.301	0	126.0	4	43.5	4	-1E+10	1	-1E+10	1	-1E+10	1	-1E+10	1	-1E+10	1	-1E+10	1
4901784	162	C	12/11/2019	10:43	-132.684	43.638	0	290.60	0	7.1500	0	36.1970	8	28.345	0	288.075	0	127.4	4	44.0	4	-1E+10	1	-1E+10	1	-1E+10	1	-1E+10	1	-1E+10	1	-1E+10	1
4901784	162	C	12/11/2019	10:43	-132.684	43.638	0	292.50	0	7.1040	0	36.1970	8	28.352	0	289.957	0	126.9	4	43.7	4	-1E+10	1	-1E+10	1	-1E+10	1	-1E+10	1	-1E+10	1	-1E+10	1
4901784	162	C	12/11/2019	10:43	-132.684	43.638	0	294.40	0	7.0980	0	36.1960	8	28.352	0	291.839	0	126.3	4	43.5	4	-1E+10	1	-1E+10	1	-1E+10	1	-1E+10	1	-1E+10	1	-1E+10	1
4901784	162	C	12/11/2019	10:43	-132.684	43.638	0	297.20	0	7.0540	0	36.1970	8	28.359	0	294.613	0	125.5	4	43.2	4	-1E+10	1	-1E+10	1	-1E+10	1	-1E+10	1	-1E+10	1	-1E+10	1
4901784	162	C	12/11/2019	10:43	-132.684	43.638	0	300.10	0	7.0190	0	36.1970	8	28.364	0	297.485	0	124.9	4	42.9	4	-1E+10	1	-1E+10	1	-1E+10	1	-1E+10	1	-1E+10	1	-1E+10	1
4901784	162	C	12/11/2019	10:43	-132.684	43.638	0	302.00	0	6.9960	0	36.1990	8	28.369	0	299.367	0	124.3	4	42.7	4	-1E+10	1	-1E+10	1	-1E+10	1	-1E+10	1	-1E+10	1	-1E+10	1
4901784	162	C	12/11/2019	10:43	-132.684	43.638	0	304.90	0	6.9660	0	36.1970	8	28.372	0	302.240	0	123.2	4	42.3	4	-1E+10	1	-1E+10	1	-1E+10	1	-1E+10	1	-1E+10	1	-1E+10	1
4901784	162	C	12/11/2019	10:43	-132.684	43.638	0	307.70	0	6.9340	0	36.1960	8	28.375	0	305.013	0	121.5	4	41.7	4	-1E+10	1	-1E+10	1	-1E+10	1	-1E+10	1	-1E+10	1	-1E+10	1
4901784	162	C	12/11/2019	10:43	-132.684	43.638	0	309.60	0	6.8970	0	36.1960	8	28.381	0	306.895	0	120.1	4	41.2	4	-1E+10	1	-1E+10	1	-1E+10	1	-1E+10	1	-1E+10	1	-1E+10	1
4901784	162	C	12/11/2019	10:43	-132.684	43.638	0	312.50	0	6.8460	0	36.1980	8	28.389	0	309.768	0	118.6	4	40.6	4	-1E+10	1	-1E+10	1	-1E+10	1	-1E+10	1	-1E+10	1	-1E+10	1
4901784	162	C	12/11/2019	10:43	-132.684	43.638	0	315.30	0	6.7930	0	36.1970	8	28.396	0	312.541	0	117.3	4	40.1	4	-1E+10	1	-1E+10	1	-1E+10	1	-1E+10	1	-1E+10	1	-1E+10	1
4901784	162	C	12/11/2019	10:43	-132.684	43.638	0	317.20	0	6.7620	0	36.1960	8	28.400	0	314.423	0	115.9	4	39.6	4	-1E+10	1	-1E+10	1	-1E+10	1	-1E+10	1	-1E+10	1	-1E+10	1
4901784	162	C	12/11/2019	10:43	-132.684	43.638	0	320.00	0	6.7110	0	36.1990	8	28.409	0	317.197	0	114.1	4	39.0	4	-1E+10	1	-1E+10	1	-1E+10	1	-1E+10	1	-1E+10	1	-1E+10	1
4901784	162	C	12/11/2019	10:43	-132.684	43.638	0	322.80	0	6.6840	0	36.1980	8	28.412	0	319.970	0	112.2	4	38.3	4	-1E+10	1	-1E+10	1	-1E+10	1	-1E+10	1	-1E+10	1	-1E+10	1
4901784	162	C	12/11/2019	10:43	-132.684	43.638	0	324.70	0	6.6430	0	36.2000	8	28.419	0	321.852	0	110.6	4	37.7	4	-1E+10	1	-1E+10	1	-1E+10	1	-1E+10	1	-1E+10	1	-1E+10	1
4901784	162	C	12/11/2019	10:43	-132.684	43.638	0	327.60	0	6.6110	0	36.2020	8	28.425	0	324.724	0	107.8	4	36.7	4	-1E+10	1	-1E+10	1	-1E+10	1	-1E+10	1	-1E+10	1	-1E+10	1
4901784	162	C	12/11/2019	10:43	-132.684	43.638	0	330.40	0	6.5900	0	36.2040	8	28.430	0	327.497	0	105.5	4	35.9	4	-1E+10	1	-1E+10	1	-1E+10	1	-1E+10	1	-1E+10	1	-1E+10	1
4901784	162	C	12/11/2019	10:43	-132.684	43.638	0	332.30	0	6.5530	0	36.2050	8	28.436	0	329.379	0	104.9	4	35.7	4	-1E+10	1	-1E+10	1	-1E+10	1	-1E+10	1	-1E+10	1	-1E+10	1
4901784	162	C	12/11/2019	10:43	-132.684	43.638	0	335.20	0	6.5400	0	36.2050	8	28.437	0	332.251	0	103.3	4	35.2	4	-1E+10	1	-1E+10	1	-1E+10	1	-1E+10	1	-1E+10	1	-1E+10	1
4901784	162	C	12/11/2019	10:43	-132.684	43.638	0	338.00	0	6.4920	0	36.2060	8	28.445	0	335.024	0	102.7	4	34.9	4	-1E+10	1	-1E+10	1	-1E+10	1	-1E+10	1	-1E+10	1	-1E+10	1
4901784	162	C	12/11/2019	10:43	-132.684	43.638	0	340.00	0	6.4580	0	36.2030	8	28.447	0	337.005	0	101.6	4	34.5	4	-1E+10	1	-1E+10	1	-1E+10	1	-1E+10	1	-1E+10	1	-1E+10	1
4901784	162	C	12/11/2019	10:43	-132.684	43.638	0	341.90	0	6.4100	0	36.2050	8	28.455	0	338.887	0	100.1	4	34.0	4	-1E+10	1	-1E+10	1	-1E+10	1	-1E+10	1	-1E+10	1	-1E+10	1
4901784	162	C	12/11/2019	10:43	-132.684	43.638	0	344.80	0	6.3960	0	36.2070	8	28.459	0	341.759	0	97.9	4	33.2	4	-1E+10	1	-1E+10	1	-1E+10	1	-1E+10	1	-1E+10	1	-1E+10	1
4901784	162	C	12/11/2019	10:43	-132.684	43.638	0	347.80	0	6.3480	0	36.2100	8	28.468	0	344.730	0	97.2	4	32.9	4	-1E+10	1	-1E+10	1	-1E+10	1	-1E+10	1	-1E+10	1	-1E+10	1
4901784	162	C	12/11/2019	10:43	-132.684	43.638	0	349.80	0	6.2850	0	36.2090	8	28.475	0	346.711	0	97.2	4	32.9	4	-1E+10	1	-1E+10	1	-1E+10	1	-1E+10	1	-1E+10	1	-1E+10	1
4901784	162	C	12/11/2019	10:43	-132.684	43.638	0	352.70	0	6.2250	0	36.2100	8	28.484	0	349.583	0	96.4	4	32.5	4	-1E+10	1	-1E+10	1	-1E+10	1	-1E+10	1	-1E+10	1	-1E+10	1
4901784	162	C	12/11/2019	10:43	-132.684	43.638	0	355.10	0	6.1890	0	36.2100	8	28.489	0	351.959	0	95.6	4	32.3	4	-1E+10	1	-1E+10	1	-1E+10	1	-1E+10	1	-1E+10	1	-1E+10	1
4901784	162	C	12/11/2019	10:43	-132.684	43.638	0	357.50	0	6.1450	0	36.2120	8	28.496	0	354.336	0	94.9	4	32.0	4	-1E+10	1	-1E+10	1	-1E+10	1	-1E+10	1	-1E+10	1	-1E+10	1
4901784	162	C	12/11/2019	10:43	-132.684	43.638	0	359.90	0	6.1120	0	36.2090	8	28.498	0	356.713	0	94.8	4	31.9	4	-1E+10	1	-1E+10	1	-1E+10	1	-1E+10	1	-1E+10	1	-1E+10	1
4901784	162	C	12/11/2019	10:43	-132.684	43.638	0	362.30	0	6.0760	0	36.2160	8	28.509	0	359.089	0	94.5	4	31.8	4	-1E+10	1	-1E+10	1	-1E+10	1	-1E+10	1	-1E+10	1	-1E+10	1
4901784	162	C	12/11/2019	10:43	-132.684	43.638	0	364.70	0	6.0570	0	36.2090	8	28.506	0	361.466	0	94.1	4	31.6	4	-1E+10	1	-1E+10	1	-1E+10	1	-1E+10	1	-1E+10	1	-1E+10	1
4901784	162	C	12/11/2019	10:43	-132.684	43.638	0	367.90	0	6.0120	0	36.2100	8	28.512	0	364.635	0	93.3	4	31.4	4	-1E+10	1	-1E+10	1	-1E+10	1	-1E+10	1	-1E+10	1	-1E+10	1
4901784	162	C	12/11/2019	10:43	-132.684	43.638	0	370.40	0	5.9860	0	36.2110	8	28.517	0	367.111	0	92.9	4	31.2	4	-1E+10	1	-1E+10	1	-1E+10	1	-1E+10	1	-1E+10	1	-1E+10	1
4901784	162	C	12/11/2019	10:43	-132.684	43.638	0	372.70	0	5.9740	0	36.2100	8	28.517	0	369.388	0	92.4	4	31.0	4	-1E+10	1	-1E+10	1	-1E+10	1	-1E+10	1	-1E+10	1	-1E+10	1
4901784	162	C	12/11/2019	10:43	-132.684	43.638	0	375.20	0	5.9600	0	36.2090	8	28.518	0	371.864	0	91.8	4	30.8	4	-1E+10	1	-1E+10	1	-1E+10	1	-1E+10	1	-1E+10	1	-1E+10	1
4901784	162	C	12/11/2019	10:43	-132.684	43.638	0	377.60	0	5.9240	0	36.2100	8	28.524	0	374.240	0	91.1	4	30.6	4	-1E+10	1	-1E+10	1	-1E+10	1	-1E+10	1	-1E+10	1	-1E+10	1
4901784	162	C	12/11/2019	10:43	-132.684	43.638	0	380.20	0	5.8760	0	36.2120	8	28.532	0	376.815	0	90.5	4	30.3	4	-1E+10	1	-1E+10	1	-1E+10	1	-1E+10	1	-1E+10	1	-1E+10	1
4901784	162	C	12/11/2019	10:43	-132.684	43.638	0	382.80	0	5.8500	0	36.2120	8	28.535	0	379.389	0	90.1	4	30.2	4	-1E+10	1	-1E+10	1	-1E+10	1	-1E+10	1	-1E+10	1	-1E+10	1
4901784	162	C	12/11/2019	10:43	-132.684	43.638	0	385.30	0	5.8240	0	36.2110	8	28.538	0	381.864	0	89.6	4	30.0	4	-1E+10	1	-1E+10	1	-1E+10	1	-1E+10	1	-1E+10	1	-1E+10	1
4901784	162	C	12/11/2019	10:43	-132.684	43.638	0	387.80	0	5.8100	0	36.2090	8	28.538	0	384.340	0	89.1	4	29.8	4	-1E+10	1	-1E+10	1	-1E+10	1	-1E+10	1	-1E+10	1	-1E+10	1
4901784	162	C	12/11/2019	10:43	-132.684	43.638	0	390.40	0	5.7730	0	36.2100	8	28.544	0	386.914	0	88.4	4	29.5	4	-1E+10	1	-1E+10	1	-1E+10	1	-1E+10	1	-1E+10	1	-1E+10	1
4901784	162	C	12/11/2019	10:43	-132.684	43.638	0	392.90	0	5.7180	0	36.2130	8	28.553	0	389.390	0	87.7	4	29.3	4	-1E+10	1	-1E+10	1	-1E+10	1	-1E+10	1	-1E+10	1	-1E+10	1
4901784	162	C	12/11/2019	10:43	-132.684	43.638	0	395.40	0	5.6880	0	36.2130	8	28.557	0	391.865	0	86.9	4	29.0	4	-1E+10	1	-1E+10	1	-1E+10	1	-1E+10	1	-1E+10	1	-1E+10	1
4901784	162	C	12/11/2019	10:43	-132.684	43.638	0	397.10	0	5.6700	0	36.2140	8	28.560	0	393.548	0	86.3	4	28.8	4	-1E+10	1	-1E+10	1	-1E+10	1	-1E+10	1	-1E+10	1	-1E+10	1
4901784	162	C	12/11/2019	10:43	-132.684	43.638	0	399.60	0	5.6560	0	36.2150	8	28.563	0	396.023	0	85.6	4	28.5	4	-1E+10	1	-1E+10	1	-1E+10	1	-1E+10	1	-1E+10	1	-1E+10	1
4901784	162	C	12/11/2019	10:43	-132.684	43.638	0	402.10	0	5.6430	0	36.2160	8	28.565	0	398.499	0	84.8	4	28.3	4	-1E+10	1	-1E+10	1	-1E+10	1	-1E+10	1	-1E+10	1	-1E+10	1
4901784	162	C	12/11/2019	10:43	-132.684	43.638	0	404.70	0	5.6370	0	36.2150	8	28.565	0	401.073	0	83.8	4	27.9	4	-1E+10	1	-1E+10	1	-1E+10	1	-1E+10	1	-1E+10	1	-1E+10	1
4901784	162	C	12/11/2019	10:43	-132.684	43.638	0	407.20	0	5.6140	0	36.2180	8	28.570	0	403.548	0	82.5	4	27.5	4	-1E+10	1	-1E+10	1	-1E+10	1	-1E+10	1	-1E+10	1	-1E+10	1
4901784	162	C	12/11/2019	10:43	-132.684	43.638	0	409.80	0	5.5900	0	36.2170	8	28.573	0	406.122	0	80.8	4	26.9	4	-1E+10	1	-1E+10	1	-1E+10	1	-1E+10	1	-1E+10	1	-1E+10	1
4901784	162	C	12/11/2019	10:43	-132.684	43.638	0	412.30	0	5.5660	0	36.2190	8	28.577	0	408.597	0	78.6	4	26.2	4	-1E+10	1	-1E+10	1	-1E+10	1	-1E+10	1	-1E+10	1	-1E+10	1
4901784	162	C	12/11/2019	10:43	-132.684	43.638	0	414.90	0	5.5430	0	36.2240	8	28.584	0	411.171	0	75.5	4	25.1	4	-1E+10	1	-1E+10	1	-1E+10	1	-1E+10	1	-1E+10	1	-1E+10	1
4901784	162	C	12/11/2019	10:43	-132.684	43.638	0	417.40	0	5.5440	0	36.2300	8	28.589	0	413.646	0	71.9	4	23.9	4	-1E+10	1	-1E+10	1	-1E+10	1	-1E+10	1	-1E+10	1	-1E+10	1
4901784	162	C	12/11/2019	10:43	-132.684	43.638	0	420.10	0	5.5250	0	36.2440	8	28.602	0	416.319	0	67.9	4	22.6	4	-1E+10	1	-1E+10	1	-1E+10	1	-1E+10	1	-1E+10	1	-1E+10	1
4901784	162	C	12/11/2019	10:43	-132.684	43.638	0	422.60	0	5.6030	0	36.2530	8	28.600	0	418.794	0	64.0	4	21.3	4	-1E+10	1	-1E+10	1	-1E+10	1	-1E+10	1	-1E+10	1	-1E+10	1
4901784	162	C	12/11/2019	10:43	-132.684	43.638	0	425.20	0	5.6110	0	36.2600	8	28.604	0	421.368	0	62.3	4	20.8	4	-1E+10	1	-1E+10	1	-1E+10	1	-1E+10	1	-1E+10	1	-1E+10	1
4901784	162	C	12/11/2019	10:43	-132.684	43.638	0	427.80	0	5.5950	0	36.2640	8	28.609	0	423.942	0	61.3	4	20.4	4	-1E+10	1	-1E+10	1	-1E+10	1	-1E+10	1	-1E+10	1	-1E+10	1
4901784	162	C	12/11/2019	10:43	-132.684	43.638	0	430.40	0	5.5480	0	36.2650	8	28.616	0	426.516	0	60.9	4	20.2	4	-1E+10	1	-1E+10	1	-1E+10	1	-1E+10	1	-1E+10	1	-1E+10	1
4901784	162	C	12/11/2019	10:43	-132.684	43.638	0	432.90	0	5.4820	0	36.2690	8	28.628	0	428.991	0	59.9	4	19.9	4	-1E+10	1	-1E+10	1	-1E+10	1	-1E+10	1	-1E+10	1	-1E+10	1
4901784	162	C	12/11/2019	10:43	-132.684	43.638	0	434.60	0	5.4760	0	36.2700	8	28.629	0	430.674	0	59.0	4	19.6	4	-1E+10	1	-1E+10	1	-1E+10	1	-1E+10	1	-1E+10	1	-1E+10	1
4901784	162	C	12/11/2019	10:43	-132.684	43.638	0	437.10	0	5.4760	0	36.2740	8	28.632	0	433.149	0	58.3	4	19.3	4	-1E+10	1	-1E+10	1	-1E+10	1	-1E+10	1	-1E+10	1	-1E+10	1
4901784	162	C	12/11/2019	10:43	-132.684	43.638	0	439.70	0	5.4280	0	36.2750	8	28.639	0	435.722	0	58.0	4	19.3	4	-1E+10	1	-1E+10	1	-1E+10	1	-1E+10	1	-1E+10	1	-1E+10	1
4901784	162	C	12/11/2019	10:43	-132.684	43.638	0	442.30	0	5.3890	0	36.2750	8	28.644	0	438.296	0	56.9	4	18.9	4	-1E+10	1	-1E+10	1	-1E+10	1	-1E+10	1	-1E+10	1	-1E+10	1
4901784	162	C	12/11/2019	10:43	-132.684	43.638	0	444.80	0	5.4020	0	36.2830	8	28.649	0	440.771	0	55.4	4	18.4	4	-1E+10	1	-1E+10	1	-1E+10	1	-1E+10	1	-1E+10	1	-1E+10	1
4901784	162	C	12/11/2019	10:43	-132.684	43.638	0	447.50	0	5.4180	0	36.2850	8	28.648	0	443.443	0	54.3	4	18.0	4	-1E+10	1	-1E+10	1	-1E+10	1	-1E+10	1	-1E+10	1	-1E+10	1
4901784	162	C	12/11/2019	10:43	-132.684	43.638	0	450.00	0	5.4040	0	36.2900	8	28.654	0	445.918	0	53.6	4	17.8	4	-1E+10	1	-1E+10	1	-1E+10	1	-1E+10	1	-1E+10	1	-1E+10	1
4901784	162	C	12/11/2019	10:43	-132.684	43.638	0	452.60	0	5.4020	0	36.2930	8	28.657	0	448.492	0	53.5	4	17.8	4	-1E+10	1	-1E+10	1	-1E+10	1	-1E+10	1	-1E+10	1	-1E+10	1
4901784	162	C	12/11/2019	10:43	-132.684	43.638	0	455.30	0	5.3900	0	36.2930	8	28.658	0	451.164	0	54.2	4	18.0	4	-1E+10	1	-1E+10	1	-1E+10	1	-1E+10	1	-1E+10	1	-1E+10	1
4901784	162	C	12/11/2019	10:43	-132.684	43.638	0	457.90	0	5.3330	0	36.2880	8	28.661	0	453.738	0	55.7	4	18.4	4	-1E+10	1	-1E+10	1	-1E+10	1	-1E+10	1	-1E+10	1	-1E+10	1
4901784	162	C	12/11/2019	10:43	-132.684	43.638	0	460.40	0	5.3190	0	36.2830	8	28.659	0	456.212	0	57.2	4	18.9	4	-1E+10	1	-1E+10	1	-1E+10	1	-1E+10	1	-1E+10	1	-1E+10	1
4901784	162	C	12/11/2019	10:43	-132.684	43.638	0	462.20	0	5.1880	0	36.2790	8	28.672	0	457.994	0	59.1	4	19.5	4	-1E+10	1	-1E+10	1	-1E+10	1	-1E+10	1	-1E+10	1	-1E+10	1
4901784	162	C	12/11/2019	10:43	-132.684	43.638	0	464.80	0	5.0460	0	36.2660	8	28.679	0	460.567	0	60.3	4	19.8	4	-1E+10	1	-1E+10	1	-1E+10	1	-1E+10	1	-1E+10	1	-1E+10	1
4901784	162	C	12/11/2019	10:43	-132.684	43.638	0	467.40	0	4.9760	0	36.2630	8	28.685	0	463.141	0	59.7	4	19.6	4	-1E+10	1	-1E+10	1	-1E+10	1	-1E+10	1	-1E+10	1	-1E+10	1
4901784	162	C	12/11/2019	10:43	-132.684	43.638	0	470.00	0	4.9990	0	36.2670	8	28.685	0	465.714	0	57.8	4	19.0	4	-1E+10	1	-1E+10	1	-1E+10	1	-1E+10	1	-1E+10	1	-1E+10	1
4901784	162	C	12/11/2019	10:43	-132.684	43.638	0	472.60	0	4.9710	0	36.2720	8	28.693	0	468.288	0	56.1	4	18.4	4	-1E+10	1	-1E+10	1	-1E+10	1	-1E+10	1	-1E+10	1	-1E+10	1
4901784	162	C	12/11/2019	10:43	-132.684	43.638	0	475.30	0	4.9810	0	36.2830	8	28.700	0	470.960	0	54.3	4	17.8	4	-1E+10	1	-1E+10	1	-1E+10	1	-1E+10	1	-1E+10	1	-1E+10	1
4901784	162	C	12/11/2019	10:43	-132.684	43.638	0	477.90	0	5.0420	0	36.2920	8	28.700	0	473.533	0	53.1	4	17.5	4	-1E+10	1	-1E+10	1	-1E+10	1	-1E+10	1	-1E+10	1	-1E+10	1
4901784	162	C	12/11/2019	10:43	-132.684	43.638	0	479.70	0	5.0000	0	36.2900	8	28.703	0	475.315	0	53.0	4	17.4	4	-1E+10	1	-1E+10	1	-1E+10	1	-1E+10	1	-1E+10	1	-1E+10	1
4901784	162	C	12/11/2019	10:43	-132.684	43.638	0	482.40	0	4.9790	0	36.2910	8	28.707	0	477.987	0	52.0	4	17.1	4	-1E+10	1	-1E+10	1	-1E+10	1	-1E+10	1	-1E+10	1	-1E+10	1
4901784	162	C	12/11/2019	10:43	-132.684	43.638	0	485.10	0	4.9700	0	36.2950	8	28.711	0	480.659	0	50.2	4	16.5	4	-1E+10	1	-1E+10	1	-1E+10	1	-1E+10	1	-1E+10	1	-1E+10	1
4901784	162	C	12/11/2019	10:43	-132.684	43.638	0	486.90	0	5.0730	0	36.3080	8	28.709	0	482.441	0	48.5	4	16.0	4	-1E+10	1	-1E+10	1	-1E+10	1	-1E+10	1	-1E+10	1	-1E+10	1
4901784	162	C	12/11/2019	10:43	-132.684	43.638	0	489.70	0	5.0090	0	36.3060	8	28.715	0	485.212	0	48.0	4	15.8	4	-1E+10	1	-1E+10	1	-1E+10	1	-1E+10	1	-1E+10	1	-1E+10	1
4901784	162	C	12/11/2019	10:43	-132.684	43.638	0	492.50	0	4.9530	0	36.3100	8	28.725	0	487.983	0	45.7	4	15.0	4	-1E+10	1	-1E+10	1	-1E+10	1	-1E+10	1	-1E+10	1	-1E+10	1
4901784	162	C	12/11/2019	10:43	-132.684	43.638	0	495.30	0	5.0530	0	36.3270	8	28.727	0	490.754	0	43.4	4	14.3	4	-1E+10	1	-1E+10	1	-1E+10	1	-1E+10	1	-1E+10	1	-1E+10	1
4901784	162	C	12/11/2019	10:43	-132.684	43.638	0	498.00	0	5.0710	0	36.3310	8	28.728	0	493.426	0	42.5	4	14.0	4	-1E+10	1	-1E+10	1	-1E+10	1	-1E+10	1	-1E+10	1	-1E+10	1
4901784	162	C	12/11/2019	10:43	-132.684	43.638	0	499.90	0	5.0450	0	36.3330	8	28.732	0	495.306	0	42.0	4	13.8	4	-1E+10	1	-1E+10	1	-1E+10	1	-1E+10	1	-1E+10	1	-1E+10	1
4901784	162	C	12/11/2019	10:43	-132.684	43.638	0	505.60	0	5.0520	0	36.3370	8	28.735	0	500.947	0	40.6	4	13.4	4	-1E+10	1	-1E+10	1	-1E+10	1	-1E+10	1	-1E+10	1	-1E+10	1
4901784	162	C	12/11/2019	10:43	-132.684	43.638	0	510.40	0	5.0620	0	36.3450	8	28.740	0	505.697	0	40.3	4	13.3	4	-1E+10	1	-1E+10	1	-1E+10	1	-1E+10	1	-1E+10	1	-1E+10	1
4901784	162	C	12/11/2019	10:43	-132.684	43.638	0	515.20	0	4.9770	0	36.3420	8	28.748	0	510.447	0	41.1	4	13.5	4	-1E+10	1	-1E+10	1	-1E+10	1	-1E+10	1	-1E+10	1	-1E+10	1
4901784	162	C	12/11/2019	10:43	-132.684	43.638	0	520.70	0	4.9180	0	36.3390	8	28.753	0	515.889	0	41.2	4	13.5	4	-1E+10	1	-1E+10	1	-1E+10	1	-1E+10	1	-1E+10	1	-1E+10	1
4901784	162	C	12/11/2019	10:43	-132.684	43.638	0	525.20	0	4.8720	0	36.3410	8	28.760	0	520.342	0	40.6	4	13.3	4	-1E+10	1	-1E+10	1	-1E+10	1	-1E+10	1	-1E+10	1	-1E+10	1
4901784	162	C	12/11/2019	10:43	-132.684	43.638	0	530.10	0	4.8690	0	36.3460	8	28.764	0	525.190	0	39.5	4	12.9	4	-1E+10	1	-1E+10	1	-1E+10	1	-1E+10	1	-1E+10	1	-1E+10	1
4901784	162	C	12/11/2019	10:43	-132.684	43.638	0	535.10	0	4.8580	0	36.3500	8	28.769	0	530.138	0	38.4	4	12.6	4	-1E+10	1	-1E+10	1	-1E+10	1	-1E+10	1	-1E+10	1	-1E+10	1
4901784	162	C	12/11/2019	10:43	-132.684	43.638	0	540.00	0	4.8160	0	36.3530	8	28.776	0	534.986	0	37.6	4	12.3	4	-1E+10	1	-1E+10	1	-1E+10	1	-1E+10	1	-1E+10	1	-1E+10	1
4901784	162	C	12/11/2019	10:43	-132.684	43.638	0	544.90	0	4.8040	0	36.3580	8	28.781	0	539.834	0	36.5	4	12.0	4	-1E+10	1	-1E+10	1	-1E+10	1	-1E+10	1	-1E+10	1	-1E+10	1
4901784	162	C	12/11/2019	10:43	-132.684	43.638	0	549.90	0	4.7940	0	36.3650	8	28.788	0	544.781	0	35.8	4	11.7	4	-1E+10	1	-1E+10	1	-1E+10	1	-1E+10	1	-1E+10	1	-1E+10	1
4901784	162	C	12/11/2019	10:43	-132.684	43.638	0	554.80	0	4.7850	0	36.3680	8	28.792	0	549.629	0	35.2	4	11.5	4	-1E+10	1	-1E+10	1	-1E+10	1	-1E+10	1	-1E+10	1	-1E+10	1
4901784	162	C	12/11/2019	10:43	-132.684	43.638	0	559.70	0	4.7640	0	36.3700	8	28.796	0	554.477	0	34.6	4	11.3	4	-1E+10	1	-1E+10	1	-1E+10	1	-1E+10	1	-1E+10	1	-1E+10	1
4901784	162	C	12/11/2019	10:43	-132.684	43.638	0	564.80	0	4.7480	0	36.3740	8	28.801	0	559.522	0	33.9	4	11.1	4	-1E+10	1	-1E+10	1	-1E+10	1	-1E+10	1	-1E+10	1	-1E+10	1
4901784	162	C	12/11/2019	10:43	-132.684	43.638	0	569.90	0	4.7010	0	36.3740	8	28.806	0	564.568	0	33.5	4	10.9	4	-1E+10	1	-1E+10	1	-1E+10	1	-1E+10	1	-1E+10	1	-1E+10	1
4901784	162	C	12/11/2019	10:43	-132.684	43.638	0	575.00	0	4.6400	0	36.3770	8	28.816	0	569.613	0	32.7	4	10.7	4	-1E+10	1	-1E+10	1	-1E+10	1	-1E+10	1	-1E+10	1	-1E+10	1
4901784	162	C	12/11/2019	10:43	-132.684	43.638	0	580.10	0	4.5970	0	36.3830	8	28.825	0	574.658	0	31.0	4	10.1	4	-1E+10	1	-1E+10	1	-1E+10	1	-1E+10	1	-1E+10	1	-1E+10	1
4901784	162	C	12/11/2019	10:43	-132.684	43.638	0	585.30	0	4.6340	0	36.3980	8	28.833	0	579.802	0	28.3	4	9.2	4	-1E+10	1	-1E+10	1	-1E+10	1	-1E+10	1	-1E+10	1	-1E+10	1
4901784	162	C	12/11/2019	10:43	-132.684	43.638	0	590.50	0	4.7080	0	36.4130	8	28.837	0	584.946	0	26.8	4	8.8	4	-1E+10	1	-1E+10	1	-1E+10	1	-1E+10	1	-1E+10	1	-1E+10	1
4901784	162	C	12/11/2019	10:43	-132.684	43.638	0	595.00	0	4.6630	0	36.4150	8	28.843	0	589.397	0	26.6	4	8.7	4	-1E+10	1	-1E+10	1	-1E+10	1	-1E+10	1	-1E+10	1	-1E+10	1
4901784	162	C	12/11/2019	10:43	-132.684	43.638	0	599.30	0	4.6140	0	36.4150	8	28.849	0	593.651	0	26.3	4	8.6	4	-1E+10	1	-1E+10	1	-1E+10	1	-1E+10	1	-1E+10	1	-1E+10	1
4901784	162	C	12/11/2019	10:43	-132.684	43.638	0	604.50	0	4.5580	0	36.4190	8	28.859	0	598.794	0	26.0	4	8.5	4	-1E+10	1	-1E+10	1	-1E+10	1	-1E+10	1	-1E+10	1	-1E+10	1
4901784	162	C	12/11/2019	10:43	-132.684	43.638	0	609.70	0	4.5050	0	36.4190	8	28.865	0	603.938	0	26.0	4	8.4	4	-1E+10	1	-1E+10	1	-1E+10	1	-1E+10	1	-1E+10	1	-1E+10	1
4901784	162	C	12/11/2019	10:43	-132.684	43.638	0	615.00	0	4.4640	0	36.4200	8	28.870	0	609.180	0	25.5	4	8.3	4	-1E+10	1	-1E+10	1	-1E+10	1	-1E+10	1	-1E+10	1	-1E+10	1
4901784	162	C	12/11/2019	10:43	-132.684	43.638	0	620.30	0	4.4470	0	36.4230	8	28.875	0	614.422	0	24.9	4	8.1	4	-1E+10	1	-1E+10	1	-1E+10	1	-1E+10	1	-1E+10	1	-1E+10	1
4901784	162	C	12/11/2019	10:43	-132.684	43.638	0	625.70	0	4.4010	0	36.4290	8	28.885	0	619.763	0	24.3	4	7.9	4	-1E+10	1	-1E+10	1	-1E+10	1	-1E+10	1	-1E+10	1	-1E+10	1
4901784	162	C	12/11/2019	10:43	-132.684	43.638	0	630.30	0	4.3880	0	36.4310	8	28.888	0	624.312	0	23.8	4	7.7	4	-1E+10	1	-1E+10	1	-1E+10	1	-1E+10	1	-1E+10	1	-1E+10	1
4901784	162	C	12/11/2019	10:43	-132.684	43.638	0	634.90	0	4.3660	0	36.4330	8	28.892	0	628.861	0	23.2	4	7.5	4	-1E+10	1	-1E+10	1	-1E+10	1	-1E+10	1	-1E+10	1	-1E+10	1
4901784	162	C	12/11/2019	10:43	-132.684	43.638	0	640.50	0	4.3450	0	36.4400	8	28.900	0	634.400	0	22.4	4	7.2	4	-1E+10	1	-1E+10	1	-1E+10	1	-1E+10	1	-1E+10	1	-1E+10	1
4901784	162	C	12/11/2019	10:43	-132.684	43.638	0	645.10	0	4.3410	0	36.4440	8	28.904	0	638.949	0	21.7	4	7.0	4	-1E+10	1	-1E+10	1	-1E+10	1	-1E+10	1	-1E+10	1	-1E+10	1
4901784	162	C	12/11/2019	10:43	-132.684	43.638	0	649.70	0	4.3160	0	36.4500	8	28.911	0	643.498	0	21.1	4	6.8	4	-1E+10	1	-1E+10	1	-1E+10	1	-1E+10	1	-1E+10	1	-1E+10	1
4901784	162	C	12/11/2019	10:43	-132.684	43.638	0	655.20	0	4.3000	0	36.4560	8	28.918	0	648.937	0	20.6	4	6.7	4	-1E+10	1	-1E+10	1	-1E+10	1	-1E+10	1	-1E+10	1	-1E+10	1
4901784	162	C	12/11/2019	10:43	-132.684	43.638	0	659.90	0	4.2920	0	36.4580	8	28.920	0	653.584	0	20.3	4	6.6	4	-1E+10	1	-1E+10	1	-1E+10	1	-1E+10	1	-1E+10	1	-1E+10	1
4901784	162	C	12/11/2019	10:43	-132.684	43.638	0	664.60	0	4.2860	0	36.4610	8	28.923	0	658.232	0	19.9	4	6.5	4	-1E+10	1	-1E+10	1	-1E+10	1	-1E+10	1	-1E+10	1	-1E+10	1
4901784	162	C	12/11/2019	10:43	-132.684	43.638	0	670.20	0	4.2760	0	36.4660	8	28.929	0	663.769	0	19.4	4	6.3	4	-1E+10	1	-1E+10	1	-1E+10	1	-1E+10	1	-1E+10	1	-1E+10	1
4901784	162	C	12/11/2019	10:43	-132.684	43.638	0	675.60	0	4.2700	0	36.4700	8	28.932	0	669.109	0	18.7	4	6.1	4	-1E+10	1	-1E+10	1	-1E+10	1	-1E+10	1	-1E+10	1	-1E+10	1
4901784	162	C	12/11/2019	10:43	-132.684	43.638	0	680.40	0	4.2640	0	36.4790	8	28.940	0	673.855	0	18.1	4	5.9	4	-1E+10	1	-1E+10	1	-1E+10	1	-1E+10	1	-1E+10	1	-1E+10	1
4901784	162	C	12/11/2019	10:43	-132.684	43.638	0	685.30	0	4.2500	0	36.4820	8	28.944	0	678.700	0	17.7	4	5.7	4	-1E+10	1	-1E+10	1	-1E+10	1	-1E+10	1	-1E+10	1	-1E+10	1
4901784	162	C	12/11/2019	10:43	-132.684	43.638	0	690.20	0	4.2360	0	36.4880	8	28.951	0	683.545	0	17.2	4	5.6	4	-1E+10	1	-1E+10	1	-1E+10	1	-1E+10	1	-1E+10	1	-1E+10	1
4901784	162	C	12/11/2019	10:43	-132.684	43.638	0	695.10	0	4.2260	0	36.4930	8	28.956	0	688.389	0	16.8	4	5.4	4	-1E+10	1	-1E+10	1	-1E+10	1	-1E+10	1	-1E+10	1	-1E+10	1
4901784	162	C	12/11/2019	10:43	-132.684	43.638	0	700.10	0	4.2160	0	36.4980	8	28.961	0	693.333	0	16.5	4	5.3	4	-1E+10	1	-1E+10	1	-1E+10	1	-1E+10	1	-1E+10	1	-1E+10	1
4901784	162	C	12/11/2019	10:43	-132.684	43.638	0	705.10	0	4.2030	0	36.5000	8	28.964	0	698.276	0	16.2	4	5.2	4	-1E+10	1	-1E+10	1	-1E+10	1	-1E+10	1	-1E+10	1	-1E+10	1
4901784	162	C	12/11/2019	10:43	-132.684	43.638	0	710.00	0	4.1840	0	36.5050	8	28.970	0	703.120	0	15.9	4	5.1	4	-1E+10	1	-1E+10	1	-1E+10	1	-1E+10	1	-1E+10	1	-1E+10	1
4901784	162	C	12/11/2019	10:43	-132.684	43.638	0	714.80	0	4.1630	0	36.5110	8	28.977	0	707.866	0	15.5	4	5.0	4	-1E+10	1	-1E+10	1	-1E+10	1	-1E+10	1	-1E+10	1	-1E+10	1
4901784	162	C	12/11/2019	10:43	-132.684	43.638	0	719.70	0	4.1520	0	36.5160	8	28.982	0	712.710	0	15.2	4	4.9	4	-1E+10	1	-1E+10	1	-1E+10	1	-1E+10	1	-1E+10	1	-1E+10	1
4901784	162	C	12/11/2019	10:43	-132.684	43.638	0	724.70	0	4.1300	0	36.5210	8	28.989	0	717.653	0	14.9	4	4.8	4	-1E+10	1	-1E+10	1	-1E+10	1	-1E+10	1	-1E+10	1	-1E+10	1
4901784	162	C	12/11/2019	10:43	-132.684	43.638	0	729.60	0	4.1010	0	36.5270	8	28.997	0	722.497	0	14.7	4	4.7	4	-1E+10	1	-1E+10	1	-1E+10	1	-1E+10	1	-1E+10	1	-1E+10	1
4901784	162	C	12/11/2019	10:43	-132.684	43.638	0	734.60	0	4.0870	0	36.5320	8	29.002	0	727.439	0	14.5	4	4.7	4	-1E+10	1	-1E+10	1	-1E+10	1	-1E+10	1	-1E+10	1	-1E+10	1
4901784	162	C	12/11/2019	10:43	-132.684	43.638	0	739.70	0	4.0790	0	36.5350	8	29.006	0	732.481	0	14.3	4	4.6	4	-1E+10	1	-1E+10	1	-1E+10	1	-1E+10	1	-1E+10	1	-1E+10	1
4901784	162	C	12/11/2019	10:43	-132.684	43.638	0	744.70	0	4.0620	0	36.5390	8	29.011	0	737.423	0	14.1	4	4.5	4	-1E+10	1	-1E+10	1	-1E+10	1	-1E+10	1	-1E+10	1	-1E+10	1
4901784	162	C	12/11/2019	10:43	-132.684	43.638	0	749.80	0	4.0460	0	36.5420	8	29.015	0	742.464	0	14.0	4	4.5	4	-1E+10	1	-1E+10	1	-1E+10	1	-1E+10	1	-1E+10	1	-1E+10	1
4901784	162	C	12/11/2019	10:43	-132.684	43.638	0	754.90	0	4.0320	0	36.5440	8	29.018	0	747.505	0	14.0	4	4.5	4	-1E+10	1	-1E+10	1	-1E+10	1	-1E+10	1	-1E+10	1	-1E+10	1
4901784	162	C	12/11/2019	10:43	-132.684	43.638	0	759.90	0	4.0190	0	36.5460	8	29.021	0	752.447	0	13.7	4	4.4	4	-1E+10	1	-1E+10	1	-1E+10	1	-1E+10	1	-1E+10	1	-1E+10	1
4901784	162	C	12/11/2019	10:43	-132.684	43.638	0	765.00	0	4.0040	0	36.5510	8	29.027	0	757.488	0	13.5	4	4.3	4	-1E+10	1	-1E+10	1	-1E+10	1	-1E+10	1	-1E+10	1	-1E+10	1
4901784	162	C	12/11/2019	10:43	-132.684	43.638	0	770.20	0	3.9890	0	36.5550	8	29.032	0	762.627	0	13.3	4	4.3	4	-1E+10	1	-1E+10	1	-1E+10	1	-1E+10	1	-1E+10	1	-1E+10	1
4901784	162	C	12/11/2019	10:43	-132.684	43.638	0	775.30	0	3.9820	0	36.5580	8	29.035	0	767.668	0	13.1	4	4.2	4	-1E+10	1	-1E+10	1	-1E+10	1	-1E+10	1	-1E+10	1	-1E+10	1
4901784	162	C	12/11/2019	10:43	-132.684	43.638	0	780.60	0	3.9690	0	36.5620	8	29.040	0	772.906	0	12.9	4	4.1	4	-1E+10	1	-1E+10	1	-1E+10	1	-1E+10	1	-1E+10	1	-1E+10	1
4901784	162	C	12/11/2019	10:43	-132.684	43.638	0	784.90	0	3.9580	0	36.5650	8	29.043	0	777.155	0	12.7	4	4.1	4	-1E+10	1	-1E+10	1	-1E+10	1	-1E+10	1	-1E+10	1	-1E+10	1
4901784	162	C	12/11/2019	10:43	-132.684	43.638	0	789.30	0	3.9430	0	36.5690	8	29.048	0	781.504	0	12.5	4	4.0	4	-1E+10	1	-1E+10	1	-1E+10	1	-1E+10	1	-1E+10	1	-1E+10	1
4901784	162	C	12/11/2019	10:43	-132.684	43.638	0	794.50	0	3.9260	0	36.5730	8	29.053	0	786.642	0	12.4	4	4.0	4	-1E+10	1	-1E+10	1	-1E+10	1	-1E+10	1	-1E+10	1	-1E+10	1
4901784	162	C	12/11/2019	10:43	-132.684	43.638	0	799.80	0	3.9060	0	36.5780	8	29.059	0	791.880	0	12.2	4	3.9	4	-1E+10	1	-1E+10	1	-1E+10	1	-1E+10	1	-1E+10	1	-1E+10	1
4901784	162	C	12/11/2019	10:43	-132.684	43.638	0	805.00	0	3.8890	0	36.5820	8	29.064	0	797.019	0	12.0	4	3.9	4	-1E+10	1	-1E+10	1	-1E+10	1	-1E+10	1	-1E+10	1	-1E+10	1
4901784	162	C	12/11/2019	10:43	-132.684	43.638	0	810.20	0	3.8730	0	36.5870	8	29.070	0	802.157	0	11.9	4	3.8	4	-1E+10	1	-1E+10	1	-1E+10	1	-1E+10	1	-1E+10	1	-1E+10	1
4901784	162	C	12/11/2019	10:43	-132.684	43.638	0	815.40	0	3.8660	0	36.5890	8	29.072	0	807.295	0	11.8	4	3.8	4	-1E+10	1	-1E+10	1	-1E+10	1	-1E+10	1	-1E+10	1	-1E+10	1
4901784	162	C	12/11/2019	10:43	-132.684	43.638	0	820.60	0	3.8550	0	36.5930	8	29.077	0	812.434	0	11.7	4	3.7	4	-1E+10	1	-1E+10	1	-1E+10	1	-1E+10	1	-1E+10	1	-1E+10	1
4901784	162	C	12/11/2019	10:43	-132.684	43.638	0	825.00	0	3.8470	0	36.5960	8	29.080	0	816.781	0	11.6	4	3.7	4	-1E+10	1	-1E+10	1	-1E+10	1	-1E+10	1	-1E+10	1	-1E+10	1
4901784	162	C	12/11/2019	10:43	-132.684	43.638	0	829.40	0	3.8390	0	36.5980	8	29.083	0	821.129	0	11.5	4	3.7	4	-1E+10	1	-1E+10	1	-1E+10	1	-1E+10	1	-1E+10	1	-1E+10	1
4901784	162	C	12/11/2019	10:43	-132.684	43.638	0	834.70	0	3.8270	0	36.6020	8	29.087	0	826.365	0	11.4	4	3.6	4	-1E+10	1	-1E+10	1	-1E+10	1	-1E+10	1	-1E+10	1	-1E+10	1
4901784	162	C	12/11/2019	10:43	-132.684	43.638	0	840.00	0	3.8130	0	36.6070	8	29.093	0	831.602	0	11.2	4	3.6	4	-1E+10	1	-1E+10	1	-1E+10	1	-1E+10	1	-1E+10	1	-1E+10	1
4901784	162	C	12/11/2019	10:43	-132.684	43.638	0	845.40	0	3.8020	0	36.6100	8	29.096	0	836.937	0	11.1	4	3.6	4	-1E+10	1	-1E+10	1	-1E+10	1	-1E+10	1	-1E+10	1	-1E+10	1
4901784	162	C	12/11/2019	10:43	-132.684	43.638	0	850.60	0	3.7920	0	36.6130	8	29.100	0	842.075	0	11.0	4	3.5	4	-1E+10	1	-1E+10	1	-1E+10	1	-1E+10	1	-1E+10	1	-1E+10	1
4901784	162	C	12/11/2019	10:43	-132.684	43.638	0	855.10	0	3.7800	0	36.6190	8	29.106	0	846.520	0	10.9	4	3.5	4	-1E+10	1	-1E+10	1	-1E+10	1	-1E+10	1	-1E+10	1	-1E+10	1
4901784	162	C	12/11/2019	10:43	-132.684	43.638	0	859.60	0	3.7790	0	36.6200	8	29.107	0	850.966	0	10.9	4	3.5	4	-1E+10	1	-1E+10	1	-1E+10	1	-1E+10	1	-1E+10	1	-1E+10	1
4901784	162	C	12/11/2019	10:43	-132.684	43.638	0	864.90	0	3.7760	0	36.6220	8	29.109	0	856.202	0	10.8	4	3.5	4	-1E+10	1	-1E+10	1	-1E+10	1	-1E+10	1	-1E+10	1	-1E+10	1
4901784	162	C	12/11/2019	10:43	-132.684	43.638	0	870.30	0	3.7640	0	36.6250	8	29.112	0	861.537	0	10.7	4	3.4	4	-1E+10	1	-1E+10	1	-1E+10	1	-1E+10	1	-1E+10	1	-1E+10	1
4901784	162	C	12/11/2019	10:43	-132.684	43.638	0	875.60	0	3.7510	0	36.6280	8	29.116	0	866.772	0	10.7	4	3.4	4	-1E+10	1	-1E+10	1	-1E+10	1	-1E+10	1	-1E+10	1	-1E+10	1
4901784	162	C	12/11/2019	10:43	-132.684	43.638	0	880.10	0	3.7430	0	36.6300	8	29.119	0	871.218	0	10.6	4	3.4	4	-1E+10	1	-1E+10	1	-1E+10	1	-1E+10	1	-1E+10	1	-1E+10	1
4901784	162	C	12/11/2019	10:43	-132.684	43.638	0	884.60	0	3.7290	0	36.6340	8	29.123	0	875.663	0	10.6	4	3.4	4	-1E+10	1	-1E+10	1	-1E+10	1	-1E+10	1	-1E+10	1	-1E+10	1
4901784	162	C	12/11/2019	10:43	-132.684	43.638	0	889.90	0	3.7220	0	36.6360	8	29.126	0	880.898	0	10.5	4	3.3	4	-1E+10	1	-1E+10	1	-1E+10	1	-1E+10	1	-1E+10	1	-1E+10	1
4901784	162	C	12/11/2019	10:43	-132.684	43.638	0	895.20	0	3.7010	0	36.6430	8	29.133	0	886.133	0	10.4	4	3.3	4	-1E+10	1	-1E+10	1	-1E+10	1	-1E+10	1	-1E+10	1	-1E+10	1
4901784	162	C	12/11/2019	10:43	-132.684	43.638	0	899.80	0	3.6910	0	36.6470	8	29.138	0	890.677	0	10.4	4	3.3	4	-1E+10	1	-1E+10	1	-1E+10	1	-1E+10	1	-1E+10	1	-1E+10	1
4901784	162	C	12/11/2019	10:43	-132.684	43.638	0	904.40	0	3.6770	0	36.6480	8	29.140	0	895.220	0	10.3	4	3.3	4	-1E+10	1	-1E+10	1	-1E+10	1	-1E+10	1	-1E+10	1	-1E+10	1
4901784	162	C	12/11/2019	10:43	-132.684	43.638	0	909.90	0	3.6610	0	36.6540	8	29.147	0	900.653	0	10.3	4	3.3	4	-1E+10	1	-1E+10	1	-1E+10	1	-1E+10	1	-1E+10	1	-1E+10	1
4901784	162	C	12/11/2019	10:43	-132.684	43.638	0	915.30	0	3.6440	0	36.6600	8	29.153	0	905.986	0	10.3	4	3.3	4	-1E+10	1	-1E+10	1	-1E+10	1	-1E+10	1	-1E+10	1	-1E+10	1
4901784	162	C	12/11/2019	10:43	-132.684	43.638	0	920.00	0	3.6310	0	36.6630	8	29.157	0	910.628	0	10.3	4	3.3	4	-1E+10	1	-1E+10	1	-1E+10	1	-1E+10	1	-1E+10	1	-1E+10	1
4901784	162	C	12/11/2019	10:43	-132.684	43.638	0	924.60	0	3.6250	0	36.6640	8	29.158	0	915.171	0	10.3	4	3.3	4	-1E+10	1	-1E+10	1	-1E+10	1	-1E+10	1	-1E+10	1	-1E+10	1
4901784	162	C	12/11/2019	10:43	-132.684	43.638	0	930.10	0	3.6120	0	36.6680	8	29.163	0	920.603	0	10.3	4	3.3	4	-1E+10	1	-1E+10	1	-1E+10	1	-1E+10	1	-1E+10	1	-1E+10	1
4901784	162	C	12/11/2019	10:43	-132.684	43.638	0	935.50	0	3.6050	0	36.6700	8	29.165	0	925.936	0	10.2	4	3.3	4	-1E+10	1	-1E+10	1	-1E+10	1	-1E+10	1	-1E+10	1	-1E+10	1
4901784	162	C	12/11/2019	10:43	-132.684	43.638	0	940.40	0	3.5970	0	36.6730	8	29.169	0	930.775	0	10.2	4	3.3	4	-1E+10	1	-1E+10	1	-1E+10	1	-1E+10	1	-1E+10	1	-1E+10	1
4901784	162	C	12/11/2019	10:43	-132.684	43.638	0	945.50	0	3.5880	0	36.6760	8	29.172	0	935.811	0	10.2	4	3.3	4	-1E+10	1	-1E+10	1	-1E+10	1	-1E+10	1	-1E+10	1	-1E+10	1
4901784	162	C	12/11/2019	10:43	-132.684	43.638	0	950.60	0	3.5830	0	36.6770	8	29.173	0	940.848	0	10.2	4	3.3	4	-1E+10	1	-1E+10	1	-1E+10	1	-1E+10	1	-1E+10	1	-1E+10	1
4901784	162	C	12/11/2019	10:43	-132.684	43.638	0	955.60	0	3.5630	0	36.6830	8	29.180	0	945.785	0	10.2	4	3.3	4	-1E+10	1	-1E+10	1	-1E+10	1	-1E+10	1	-1E+10	1	-1E+10	1
4901784	162	C	12/11/2019	10:43	-132.684	43.638	0	960.70	0	3.5540	0	36.6860	8	29.184	0	950.821	0	10.2	4	3.3	4	-1E+10	1	-1E+10	1	-1E+10	1	-1E+10	1	-1E+10	1	-1E+10	1
4901784	162	C	12/11/2019	10:43	-132.684	43.638	0	964.90	0	3.5460	0	36.6880	8	29.186	0	954.968	0	10.2	4	3.3	4	-1E+10	1	-1E+10	1	-1E+10	1	-1E+10	1	-1E+10	1	-1E+10	1
4901784	162	C	12/11/2019	10:43	-132.684	43.638	0	969.30	0	3.5340	0	36.6910	8	29.190	0	959.313	0	10.3	4	3.3	4	-1E+10	1	-1E+10	1	-1E+10	1	-1E+10	1	-1E+10	1	-1E+10	1
4901784	162	C	12/11/2019	10:43	-132.684	43.638	0	974.50	0	3.5200	0	36.6940	8	29.194	0	964.447	0	10.3	4	3.3	4	-1E+10	1	-1E+10	1	-1E+10	1	-1E+10	1	-1E+10	1	-1E+10	1
4901784	162	C	12/11/2019	10:43	-132.684	43.638	0	979.80	0	3.5120	0	36.6970	8	29.197	0	969.680	0	10.3	4	3.3	4	-1E+10	1	-1E+10	1	-1E+10	1	-1E+10	1	-1E+10	1	-1E+10	1
4901784	162	C	12/11/2019	10:43	-132.684	43.638	0	985.00	0	3.4970	0	36.7020	8	29.202	0	974.815	0	10.3	4	3.3	4	-1E+10	1	-1E+10	1	-1E+10	1	-1E+10	1	-1E+10	1	-1E+10	1
4901784	162	C	12/11/2019	10:43	-132.684	43.638	0	990.30	0	3.4850	0	36.7030	8	29.204	0	980.047	0	10.3	4	3.3	4	-1E+10	1	-1E+10	1	-1E+10	1	-1E+10	1	-1E+10	1	-1E+10	1
4901784	162	C	12/11/2019	10:43	-132.684	43.638	0	995.60	0	3.4770	0	36.7050	8	29.207	0	985.280	0	10.4	4	3.3	4	-1E+10	1	-1E+10	1	-1E+10	1	-1E+10	1	-1E+10	1	-1E+10	1
4901784	162	C	12/11/2019	10:43	-132.684	43.638	0	1000.00	0	3.4700	0	36.7060	8	29.208	0	989.624	0	10.4	4	3.3	4	-1E+10	1	-1E+10	1	-1E+10	1	-1E+10	1	-1E+10	1	-1E+10	1
4901784	162	C	12/11/2019	10:43	-132.684	43.638	0	1004.50	0	3.4580	0	36.7080	8	29.211	0	994.067	0	10.4	4	3.3	4	-1E+10	1	-1E+10	1	-1E+10	1	-1E+10	1	-1E+10	1	-1E+10	1
4901784	162	C	12/11/2019	10:43	-132.684	43.638	0	1009.80	0	3.4390	0	36.7120	8	29.216	0	999.299	0	10.5	4	3.3	4	-1E+10	1	-1E+10	1	-1E+10	1	-1E+10	1	-1E+10	1	-1E+10	1
4901784	162	C	12/11/2019	10:43	-132.684	43.638	0	1015.20	0	3.4200	0	36.7180	8	29.223	0	1004.630	0	10.5	4	3.3	4	-1E+10	1	-1E+10	1	-1E+10	1	-1E+10	1	-1E+10	1	-1E+10	1
4901784	162	C	12/11/2019	10:43	-132.684	43.638	0	1020.60	0	3.4170	0	36.7190	8	29.224	0	1009.961	0	10.5	4	3.3	4	-1E+10	1	-1E+10	1	-1E+10	1	-1E+10	1	-1E+10	1	-1E+10	1
4901784	162	C	12/11/2019	10:43	-132.684	43.638	0	1025.10	0	3.4130	0	36.7170	8	29.223	0	1014.403	0	10.5	4	3.3	4	-1E+10	1	-1E+10	1	-1E+10	1	-1E+10	1	-1E+10	1	-1E+10	1
4901784	162	C	12/11/2019	10:43	-132.684	43.638	0	1029.70	0	3.4100	0	36.7150	8	29.222	0	1018.944	0	10.6	4	3.4	4	-1E+10	1	-1E+10	1	-1E+10	1	-1E+10	1	-1E+10	1	-1E+10	1
4901784	162	C	12/11/2019	10:43	-132.684	43.638	0	1035.20	0	3.4020	0	36.7180	8	29.225	0	1024.373	0	10.6	4	3.4	4	-1E+10	1	-1E+10	1	-1E+10	1	-1E+10	1	-1E+10	1	-1E+10	1
4901784	162	C	12/11/2019	10:43	-132.684	43.638	0	1039.90	0	3.3930	0	36.7200	8	29.228	0	1029.012	0	10.7	4	3.4	4	-1E+10	1	-1E+10	1	-1E+10	1	-1E+10	1	-1E+10	1	-1E+10	1
4901784	162	C	12/11/2019	10:43	-132.684	43.638	0	1044.50	0	3.3890	0	36.7220	8	29.230	0	1033.553	0	10.7	4	3.4	4	-1E+10	1	-1E+10	1	-1E+10	1	-1E+10	1	-1E+10	1	-1E+10	1
4901784	162	C	12/11/2019	10:43	-132.684	43.638	0	1050.20	0	3.3840	0	36.7230	8	29.231	0	1039.179	0	10.8	4	3.4	4	-1E+10	1	-1E+10	1	-1E+10	1	-1E+10	1	-1E+10	1	-1E+10	1
4901784	162	C	12/11/2019	10:43	-132.684	43.638	0	1055.00	0	3.3750	0	36.7270	8	29.235	0	1043.917	0	10.9	4	3.4	4	-1E+10	1	-1E+10	1	-1E+10	1	-1E+10	1	-1E+10	1	-1E+10	1
4901784	162	C	12/11/2019	10:43	-132.684	43.638	0	1059.70	0	3.3650	0	36.7300	8	29.239	0	1048.555	0	11.0	4	3.5	4	-1E+10	1	-1E+10	1	-1E+10	1	-1E+10	1	-1E+10	1	-1E+10	1
4901784	162	C	12/11/2019	10:43	-132.684	43.638	0	1064.40	0	3.3560	0	36.7330	8	29.242	0	1053.194	0	11.0	4	3.5	4	-1E+10	1	-1E+10	1	-1E+10	1	-1E+10	1	-1E+10	1	-1E+10	1
4901784	162	C	12/11/2019	10:43	-132.684	43.638	0	1069.10	0	3.3530	0	36.7340	8	29.243	0	1057.833	0	11.0	4	3.5	4	-1E+10	1	-1E+10	1	-1E+10	1	-1E+10	1	-1E+10	1	-1E+10	1
4901784	162	C	12/11/2019	10:43	-132.684	43.638	0	1074.60	0	3.3500	0	36.7350	8	29.244	0	1063.261	0	11.1	4	3.5	4	-1E+10	1	-1E+10	1	-1E+10	1	-1E+10	1	-1E+10	1	-1E+10	1
4901784	162	C	12/11/2019	10:43	-132.684	43.638	0	1079.50	0	3.3480	0	36.7360	8	29.245	0	1068.097	0	11.1	4	3.5	4	-1E+10	1	-1E+10	1	-1E+10	1	-1E+10	1	-1E+10	1	-1E+10	1
4901784	162	C	12/11/2019	10:43	-132.684	43.638	0	1084.30	0	3.3370	0	36.7380	8	29.248	0	1072.834	0	11.2	4	3.5	4	-1E+10	1	-1E+10	1	-1E+10	1	-1E+10	1	-1E+10	1	-1E+10	1
4901784	162	C	12/11/2019	10:43	-132.684	43.638	0	1090.00	0	3.3260	0	36.7400	8	29.251	0	1078.459	0	11.2	4	3.5	4	-1E+10	1	-1E+10	1	-1E+10	1	-1E+10	1	-1E+10	1	-1E+10	1
4901784	162	C	12/11/2019	10:43	-132.684	43.638	0	1095.70	0	3.3140	0	36.7430	8	29.254	0	1084.084	0	11.3	4	3.6	4	-1E+10	1	-1E+10	1	-1E+10	1	-1E+10	1	-1E+10	1	-1E+10	1
4901784	162	C	12/11/2019	10:43	-132.684	43.638	0	1100.60	0	3.3110	0	36.7440	8	29.256	0	1088.919	0	11.4	4	3.6	4	-1E+10	1	-1E+10	1	-1E+10	1	-1E+10	1	-1E+10	1	-1E+10	1
4901784	162	C	12/11/2019	10:43	-132.684	43.638	0	1105.60	0	3.3010	0	36.7470	8	29.259	0	1093.853	0	11.5	4	3.7	4	-1E+10	1	-1E+10	1	-1E+10	1	-1E+10	1	-1E+10	1	-1E+10	1
4901784	162	C	12/11/2019	10:43	-132.684	43.638	0	1110.60	0	3.2930	0	36.7500	8	29.262	0	1098.787	0	11.7	4	3.7	4	-1E+10	1	-1E+10	1	-1E+10	1	-1E+10	1	-1E+10	1	-1E+10	1
4901784	162	C	12/11/2019	10:43	-132.684	43.638	0	1115.60	0	3.2790	0	36.7550	8	29.268	0	1103.721	0	11.9	4	3.8	4	-1E+10	1	-1E+10	1	-1E+10	1	-1E+10	1	-1E+10	1	-1E+10	1
4901784	162	C	12/11/2019	10:43	-132.684	43.638	0	1120.10	0	3.2720	0	36.7560	8	29.269	0	1108.161	0	12.0	4	3.8	4	-1E+10	1	-1E+10	1	-1E+10	1	-1E+10	1	-1E+10	1	-1E+10	1
4901784	162	C	12/11/2019	10:43	-132.684	43.638	0	1124.70	0	3.2640	0	36.7580	8	29.272	0	1112.700	0	12.1	4	3.8	4	-1E+10	1	-1E+10	1	-1E+10	1	-1E+10	1	-1E+10	1	-1E+10	1
4901784	162	C	12/11/2019	10:43	-132.684	43.638	0	1130.30	0	3.2510	0	36.7610	8	29.275	0	1118.225	0	12.2	4	3.9	4	-1E+10	1	-1E+10	1	-1E+10	1	-1E+10	1	-1E+10	1	-1E+10	1
4901784	162	C	12/11/2019	10:43	-132.684	43.638	0	1134.90	0	3.2450	0	36.7620	8	29.277	0	1122.764	0	12.3	4	3.9	4	-1E+10	1	-1E+10	1	-1E+10	1	-1E+10	1	-1E+10	1	-1E+10	1
4901784	162	C	12/11/2019	10:43	-132.684	43.638	0	1139.70	0	3.2340	0	36.7640	8	29.280	0	1127.499	0	12.5	4	3.9	4	-1E+10	1	-1E+10	1	-1E+10	1	-1E+10	1	-1E+10	1	-1E+10	1
4901784	162	C	12/11/2019	10:43	-132.684	43.638	0	1145.30	0	3.2200	0	36.7670	8	29.283	0	1133.024	0	12.6	4	4.0	4	-1E+10	1	-1E+10	1	-1E+10	1	-1E+10	1	-1E+10	1	-1E+10	1
4901784	162	C	12/11/2019	10:43	-132.684	43.638	0	1150.00	0	3.2110	0	36.7690	8	29.286	0	1137.661	0	12.8	4	4.0	4	-1E+10	1	-1E+10	1	-1E+10	1	-1E+10	1	-1E+10	1	-1E+10	1
4901784	162	C	12/11/2019	10:43	-132.684	43.638	0	1154.80	0	3.1960	0	36.7710	8	29.289	0	1142.397	0	12.9	4	4.1	4	-1E+10	1	-1E+10	1	-1E+10	1	-1E+10	1	-1E+10	1	-1E+10	1
4901784	162	C	12/11/2019	10:43	-132.684	43.638	0	1160.60	0	3.1820	0	36.7730	8	29.292	0	1148.119	0	13.1	4	4.1	4	-1E+10	1	-1E+10	1	-1E+10	1	-1E+10	1	-1E+10	1	-1E+10	1
4901784	162	C	12/11/2019	10:43	-132.684	43.638	0	1165.30	0	3.1580	0	36.7770	8	29.298	0	1152.755	0	13.2	4	4.2	4	-1E+10	1	-1E+10	1	-1E+10	1	-1E+10	1	-1E+10	1	-1E+10	1
4901784	162	C	12/11/2019	10:43	-132.684	43.638	0	1170.10	0	3.1500	0	36.7780	8	29.299	0	1157.490	0	13.4	4	4.2	4	-1E+10	1	-1E+10	1	-1E+10	1	-1E+10	1	-1E+10	1	-1E+10	1
4901784	162	C	12/11/2019	10:43	-132.684	43.638	0	1174.90	0	3.1350	0	36.7810	8	29.303	0	1162.225	0	13.5	4	4.3	4	-1E+10	1	-1E+10	1	-1E+10	1	-1E+10	1	-1E+10	1	-1E+10	1
4901784	162	C	12/11/2019	10:43	-132.684	43.638	0	1179.70	0	3.1230	0	36.7820	8	29.305	0	1166.960	0	13.7	4	4.3	4	-1E+10	1	-1E+10	1	-1E+10	1	-1E+10	1	-1E+10	1	-1E+10	1
4901784	162	C	12/11/2019	10:43	-132.684	43.638	0	1184.70	0	3.1150	0	36.7840	8	29.308	0	1171.892	0	13.8	4	4.3	4	-1E+10	1	-1E+10	1	-1E+10	1	-1E+10	1	-1E+10	1	-1E+10	1
4901784	162	C	12/11/2019	10:43	-132.684	43.638	0	1189.50	0	3.1000	0	36.7860	8	29.311	0	1176.627	0	13.9	4	4.4	4	-1E+10	1	-1E+10	1	-1E+10	1	-1E+10	1	-1E+10	1	-1E+10	1
4901784	162	C	12/11/2019	10:43	-132.684	43.638	0	1195.40	0	3.0790	0	36.7890	8	29.315	0	1182.447	0	14.1	4	4.4	4	-1E+10	1	-1E+10	1	-1E+10	1	-1E+10	1	-1E+10	1	-1E+10	1
4901784	162	C	12/11/2019	10:43	-132.684	43.638	0	1200.30	0	3.0730	0	36.7900	8	29.317	0	1187.280	0	14.2	4	4.5	4	-1E+10	1	-1E+10	1	-1E+10	1	-1E+10	1	-1E+10	1	-1E+10	1
4901784	162	C	12/11/2019	10:43	-132.684	43.638	0	1205.20	0	3.0640	0	36.7920	8	29.319	0	1192.113	0	14.3	4	4.5	4	-1E+10	1	-1E+10	1	-1E+10	1	-1E+10	1	-1E+10	1	-1E+10	1
4901784	162	C	12/11/2019	10:43	-132.684	43.638	0	1210.20	0	3.0560	0	36.7930	8	29.321	0	1197.044	0	14.4	4	4.5	4	-1E+10	1	-1E+10	1	-1E+10	1	-1E+10	1	-1E+10	1	-1E+10	1
4901784	162	C	12/11/2019	10:43	-132.684	43.638	0	1215.20	0	3.0440	0	36.7940	8	29.323	0	1201.975	0	14.6	4	4.6	4	-1E+10	1	-1E+10	1	-1E+10	1	-1E+10	1	-1E+10	1	-1E+10	1
4901784	162	C	12/11/2019	10:43	-132.684	43.638	0	1220.20	0	3.0330	0	36.7960	8	29.325	0	1206.907	0	14.7	4	4.6	4	-1E+10	1	-1E+10	1	-1E+10	1	-1E+10	1	-1E+10	1	-1E+10	1
4901784	162	C	12/11/2019	10:43	-132.684	43.638	0	1225.10	0	3.0270	0	36.7970	8	29.327	0	1211.739	0	14.8	4	4.7	4	-1E+10	1	-1E+10	1	-1E+10	1	-1E+10	1	-1E+10	1	-1E+10	1
4901784	162	C	12/11/2019	10:43	-132.684	43.638	0	1230.00	0	3.0130	0	36.7990	8	29.330	0	1216.572	0	15.0	4	4.7	4	-1E+10	1	-1E+10	1	-1E+10	1	-1E+10	1	-1E+10	1	-1E+10	1
4901784	162	C	12/11/2019	10:43	-132.684	43.638	0	1235.00	0	3.0020	0	36.8010	8	29.332	0	1221.502	0	15.2	4	4.8	4	-1E+10	1	-1E+10	1	-1E+10	1	-1E+10	1	-1E+10	1	-1E+10	1
4901784	162	C	12/11/2019	10:43	-132.684	43.638	0	1239.90	0	2.9960	0	36.8030	8	29.335	0	1226.335	0	15.3	4	4.8	4	-1E+10	1	-1E+10	1	-1E+10	1	-1E+10	1	-1E+10	1	-1E+10	1
4901784	162	C	12/11/2019	10:43	-132.684	43.638	0	1244.90	0	2.9810	0	36.8040	8	29.337	0	1231.265	0	15.5	4	4.9	4	-1E+10	1	-1E+10	1	-1E+10	1	-1E+10	1	-1E+10	1	-1E+10	1
4901784	162	C	12/11/2019	10:43	-132.684	43.638	0	1249.80	0	2.9580	0	36.8070	8	29.342	0	1236.097	0	15.7	4	4.9	4	-1E+10	1	-1E+10	1	-1E+10	1	-1E+10	1	-1E+10	1	-1E+10	1
4901784	162	C	12/11/2019	10:43	-132.684	43.638	0	1255.20	0	2.9500	0	36.8090	8	29.344	0	1241.422	0	15.8	4	5.0	4	-1E+10	1	-1E+10	1	-1E+10	1	-1E+10	1	-1E+10	1	-1E+10	1
4901784	162	C	12/11/2019	10:43	-132.684	43.638	0	1260.20	0	2.9490	0	36.8090	8	29.344	0	1246.352	0	15.9	4	5.0	4	-1E+10	1	-1E+10	1	-1E+10	1	-1E+10	1	-1E+10	1	-1E+10	1
4901784	162	C	12/11/2019	10:43	-132.684	43.638	0	1265.10	0	2.9430	0	36.8100	8	29.346	0	1251.184	0	16.0	4	5.0	4	-1E+10	1	-1E+10	1	-1E+10	1	-1E+10	1	-1E+10	1	-1E+10	1
4901784	162	C	12/11/2019	10:43	-132.684	43.638	0	1269.90	0	2.9330	0	36.8120	8	29.348	0	1255.917	0	16.2	4	5.1	4	-1E+10	1	-1E+10	1	-1E+10	1	-1E+10	1	-1E+10	1	-1E+10	1
4901784	162	C	12/11/2019	10:43	-132.684	43.638	0	1274.70	0	2.9220	0	36.8140	8	29.351	0	1260.650	0	16.4	4	5.1	4	-1E+10	1	-1E+10	1	-1E+10	1	-1E+10	1	-1E+10	1	-1E+10	1
4901784	162	C	12/11/2019	10:43	-132.684	43.638	0	1279.60	0	2.9140	0	36.8150	8	29.352	0	1265.481	0	16.5	4	5.2	4	-1E+10	1	-1E+10	1	-1E+10	1	-1E+10	1	-1E+10	1	-1E+10	1
4901784	162	C	12/11/2019	10:43	-132.684	43.638	0	1284.50	0	2.9060	0	36.8170	8	29.355	0	1270.312	0	16.6	4	5.2	4	-1E+10	1	-1E+10	1	-1E+10	1	-1E+10	1	-1E+10	1	-1E+10	1
4901784	162	C	12/11/2019	10:43	-132.684	43.638	0	1289.40	0	2.9020	0	36.8170	8	29.355	0	1275.143	0	16.7	4	5.2	4	-1E+10	1	-1E+10	1	-1E+10	1	-1E+10	1	-1E+10	1	-1E+10	1
4901784	162	C	12/11/2019	10:43	-132.684	43.638	0	1294.30	0	2.8940	0	36.8180	8	29.357	0	1279.974	0	16.8	4	5.3	4	-1E+10	1	-1E+10	1	-1E+10	1	-1E+10	1	-1E+10	1	-1E+10	1
4901784	162	C	12/11/2019	10:43	-132.684	43.638	0	1299.20	0	2.8860	0	36.8190	8	29.358	0	1284.805	0	16.9	4	5.3	4	-1E+10	1	-1E+10	1	-1E+10	1	-1E+10	1	-1E+10	1	-1E+10	1
4901784	162	C	12/11/2019	10:43	-132.684	43.638	0	1304.20	0	2.8780	0	36.8210	8	29.361	0	1289.734	0	17.0	4	5.3	4	-1E+10	1	-1E+10	1	-1E+10	1	-1E+10	1	-1E+10	1	-1E+10	1
4901784	162	C	12/11/2019	10:43	-132.684	43.638	0	1309.30	0	2.8730	0	36.8210	8	29.361	0	1294.762	0	17.2	4	5.4	4	-1E+10	1	-1E+10	1	-1E+10	1	-1E+10	1	-1E+10	1	-1E+10	1
4901784	162	C	12/11/2019	10:43	-132.684	43.638	0	1314.30	0	2.8630	0	36.8220	8	29.363	0	1299.691	0	17.3	4	5.4	4	-1E+10	1	-1E+10	1	-1E+10	1	-1E+10	1	-1E+10	1	-1E+10	1
4901784	162	C	12/11/2019	10:43	-132.684	43.638	0	1319.30	0	2.8520	0	36.8240	8	29.366	0	1304.620	0	17.5	4	5.5	4	-1E+10	1	-1E+10	1	-1E+10	1	-1E+10	1	-1E+10	1	-1E+10	1
4901784	162	C	12/11/2019	10:43	-132.684	43.638	0	1324.50	0	2.8450	0	36.8250	8	29.367	0	1309.746	0	17.7	4	5.5	4	-1E+10	1	-1E+10	1	-1E+10	1	-1E+10	1	-1E+10	1	-1E+10	1
4901784	162	C	12/11/2019	10:43	-132.684	43.638	0	1329.80	0	2.8330	0	36.8270	8	29.370	0	1314.971	0	17.9	4	5.6	4	-1E+10	1	-1E+10	1	-1E+10	1	-1E+10	1	-1E+10	1	-1E+10	1
4901784	162	C	12/11/2019	10:43	-132.684	43.638	0	1335.20	0	2.8280	0	36.8280	8	29.371	0	1320.293	0	18.1	4	5.7	4	-1E+10	1	-1E+10	1	-1E+10	1	-1E+10	1	-1E+10	1	-1E+10	1
4901784	162	C	12/11/2019	10:43	-132.684	43.638	0	1340.50	0	2.8200	0	36.8290	8	29.373	0	1325.518	0	18.3	4	5.7	4	-1E+10	1	-1E+10	1	-1E+10	1	-1E+10	1	-1E+10	1	-1E+10	1
4901784	162	C	12/11/2019	10:43	-132.684	43.638	0	1345.00	0	2.8050	0	36.8320	8	29.377	0	1329.953	0	18.6	4	5.8	4	-1E+10	1	-1E+10	1	-1E+10	1	-1E+10	1	-1E+10	1	-1E+10	1
4901784	162	C	12/11/2019	10:43	-132.684	43.638	0	1349.50	0	2.7980	0	36.8330	8	29.378	0	1334.388	0	18.8	4	5.9	4	-1E+10	1	-1E+10	1	-1E+10	1	-1E+10	1	-1E+10	1	-1E+10	1
4901784	162	C	12/11/2019	10:43	-132.684	43.638	0	1354.80	0	2.7900	0	36.8340	8	29.380	0	1339.612	0	19.0	4	5.9	4	-1E+10	1	-1E+10	1	-1E+10	1	-1E+10	1	-1E+10	1	-1E+10	1
4901784	162	C	12/11/2019	10:43	-132.684	43.638	0	1360.20	0	2.7790	0	36.8360	8	29.382	0	1344.934	0	19.3	4	6.0	4	-1E+10	1	-1E+10	1	-1E+10	1	-1E+10	1	-1E+10	1	-1E+10	1
4901784	162	C	12/11/2019	10:43	-132.684	43.638	0	1364.80	0	2.7650	0	36.8380	8	29.385	0	1349.468	0	19.6	4	6.1	4	-1E+10	1	-1E+10	1	-1E+10	1	-1E+10	1	-1E+10	1	-1E+10	1
4901784	162	C	12/11/2019	10:43	-132.684	43.638	0	1369.40	0	2.7560	0	36.8390	8	29.387	0	1354.002	0	19.8	4	6.2	4	-1E+10	1	-1E+10	1	-1E+10	1	-1E+10	1	-1E+10	1	-1E+10	1
4901784	162	C	12/11/2019	10:43	-132.684	43.638	0	1374.90	0	2.7420	0	36.8410	8	29.390	0	1359.422	0	20.2	4	6.3	4	-1E+10	1	-1E+10	1	-1E+10	1	-1E+10	1	-1E+10	1	-1E+10	1
4901784	162	C	12/11/2019	10:43	-132.684	43.638	0	1380.00	0	2.7300	0	36.8430	8	29.393	0	1364.448	0	20.4	4	6.4	4	-1E+10	1	-1E+10	1	-1E+10	1	-1E+10	1	-1E+10	1	-1E+10	1
4901784	162	C	12/11/2019	10:43	-132.684	43.638	0	1384.30	0	2.7240	0	36.8440	8	29.394	0	1368.686	0	20.6	4	6.4	4	-1E+10	1	-1E+10	1	-1E+10	1	-1E+10	1	-1E+10	1	-1E+10	1
4901784	162	C	12/11/2019	10:43	-132.684	43.638	0	1390.00	0	2.7090	0	36.8460	8	29.397	0	1374.303	0	21.0	4	6.6	4	-1E+10	1	-1E+10	1	-1E+10	1	-1E+10	1	-1E+10	1	-1E+10	1
4901784	162	C	12/11/2019	10:43	-132.684	43.638	0	1395.60	0	2.6930	0	36.8480	8	29.400	0	1379.821	0	21.4	4	6.7	4	-1E+10	1	-1E+10	1	-1E+10	1	-1E+10	1	-1E+10	1	-1E+10	1
4901784	162	C	12/11/2019	10:43	-132.684	43.638	0	1400.50	0	2.6840	0	36.8500	8	29.403	0	1384.650	0	21.6	4	6.7	4	-1E+10	1	-1E+10	1	-1E+10	1	-1E+10	1	-1E+10	1	-1E+10	1
4901784	162	C	12/11/2019	10:43	-132.684	43.638	0	1405.40	0	2.6770	0	36.8510	8	29.404	0	1389.478	0	21.9	4	6.8	4	-1E+10	1	-1E+10	1	-1E+10	1	-1E+10	1	-1E+10	1	-1E+10	1
4901784	162	C	12/11/2019	10:43	-132.684	43.638	0	1410.40	0	2.6670	0	36.8520	8	29.406	0	1394.405	0	22.2	4	6.9	4	-1E+10	1	-1E+10	1	-1E+10	1	-1E+10	1	-1E+10	1	-1E+10	1
4901784	162	C	12/11/2019	10:43	-132.684	43.638	0	1415.50	0	2.6570	0	36.8540	8	29.409	0	1399.431	0	22.4	4	7.0	4	-1E+10	1	-1E+10	1	-1E+10	1	-1E+10	1	-1E+10	1	-1E+10	1
4901784	162	C	12/11/2019	10:43	-132.684	43.638	0	1420.60	0	2.6480	0	36.8560	8	29.411	0	1404.456	0	22.6	4	7.1	4	-1E+10	1	-1E+10	1	-1E+10	1	-1E+10	1	-1E+10	1	-1E+10	1
4901784	162	C	12/11/2019	10:43	-132.684	43.638	0	1425.70	0	2.6430	0	36.8560	8	29.412	0	1409.481	0	22.9	4	7.2	4	-1E+10	1	-1E+10	1	-1E+10	1	-1E+10	1	-1E+10	1	-1E+10	1
4901784	162	C	12/11/2019	10:43	-132.684	43.638	0	1430.00	0	2.6320	0	36.8580	8	29.414	0	1413.717	0	23.2	4	7.2	4	-1E+10	1	-1E+10	1	-1E+10	1	-1E+10	1	-1E+10	1	-1E+10	1
4901784	162	C	12/11/2019	10:43	-132.684	43.638	0	1434.30	0	2.6250	0	36.8590	8	29.416	0	1417.954	0	23.5	4	7.3	4	-1E+10	1	-1E+10	1	-1E+10	1	-1E+10	1	-1E+10	1	-1E+10	1
4901784	162	C	12/11/2019	10:43	-132.684	43.638	0	1439.40	0	2.6130	0	36.8610	8	29.418	0	1422.979	0	23.9	4	7.5	4	-1E+10	1	-1E+10	1	-1E+10	1	-1E+10	1	-1E+10	1	-1E+10	1
4901784	162	C	12/11/2019	10:43	-132.684	43.638	0	1444.60	0	2.6100	0	36.8630	8	29.420	0	1428.102	0	24.4	4	7.6	4	-1E+10	1	-1E+10	1	-1E+10	1	-1E+10	1	-1E+10	1	-1E+10	1
4901784	162	C	12/11/2019	10:43	-132.684	43.638	0	1449.80	0	2.5980	0	36.8640	8	29.422	0	1433.225	0	24.8	4	7.7	4	-1E+10	1	-1E+10	1	-1E+10	1	-1E+10	1	-1E+10	1	-1E+10	1
4901784	162	C	12/11/2019	10:43	-132.684	43.638	0	1455.00	0	2.5890	0	36.8660	8	29.425	0	1438.348	0	25.1	4	7.8	4	-1E+10	1	-1E+10	1	-1E+10	1	-1E+10	1	-1E+10	1	-1E+10	1
4901784	162	C	12/11/2019	10:43	-132.684	43.638	0	1460.20	0	2.5820	0	36.8670	8	29.426	0	1443.470	0	25.4	4	7.9	4	-1E+10	1	-1E+10	1	-1E+10	1	-1E+10	1	-1E+10	1	-1E+10	1
4901784	162	C	12/11/2019	10:43	-132.684	43.638	0	1465.40	0	2.5680	0	36.8690	8	29.429	0	1448.593	0	25.7	4	8.0	4	-1E+10	1	-1E+10	1	-1E+10	1	-1E+10	1	-1E+10	1	-1E+10	1
4901784	162	C	12/11/2019	10:43	-132.684	43.638	0	1469.90	0	2.5650	0	36.8700	8	29.430	0	1453.026	0	25.9	4	8.1	4	-1E+10	1	-1E+10	1	-1E+10	1	-1E+10	1	-1E+10	1	-1E+10	1
4901784	162	C	12/11/2019	10:43	-132.684	43.638	0	1474.30	0	2.5600	0	36.8700	8	29.431	0	1457.360	0	26.1	4	8.1	4	-1E+10	1	-1E+10	1	-1E+10	1	-1E+10	1	-1E+10	1	-1E+10	1
4901784	162	C	12/11/2019	10:43	-132.684	43.638	0	1479.60	0	2.5500	0	36.8710	8	29.432	0	1462.581	0	26.4	4	8.2	4	-1E+10	1	-1E+10	1	-1E+10	1	-1E+10	1	-1E+10	1	-1E+10	1
4901784	162	C	12/11/2019	10:43	-132.684	43.638	0	1485.00	0	2.5390	0	36.8730	8	29.435	0	1467.900	0	26.8	4	8.3	4	-1E+10	1	-1E+10	1	-1E+10	1	-1E+10	1	-1E+10	1	-1E+10	1
4901784	162	C	12/11/2019	10:43	-132.684	43.638	0	1490.30	0	2.5300	0	36.8740	8	29.437	0	1473.121	0	27.2	4	8.5	4	-1E+10	1	-1E+10	1	-1E+10	1	-1E+10	1	-1E+10	1	-1E+10	1
4901784	162	C	12/11/2019	10:43	-132.684	43.638	0	1495.60	0	2.5150	0	36.8760	8	29.440	0	1478.341	0	27.5	4	8.6	4	-1E+10	1	-1E+10	1	-1E+10	1	-1E+10	1	-1E+10	1	-1E+10	1
4901784	162	C	12/11/2019	10:43	-132.684	43.638	0	1500.10	0	2.5100	0	36.8780	8	29.442	0	1482.773	0	27.7	4	8.6	4	-1E+10	1	-1E+10	1	-1E+10	1	-1E+10	1	-1E+10	1	-1E+10	1
4901784	162	C	12/11/2019	10:43	-132.684	43.638	0	1504.50	0	2.5050	0	36.8780	8	29.442	0	1487.107	0	28.0	4	8.7	4	-1E+10	1	-1E+10	1	-1E+10	1	-1E+10	1	-1E+10	1	-1E+10	1
4901784	162	C	12/11/2019	10:43	-132.684	43.638	0	1509.90	0	2.4940	0	36.8790	8	29.444	0	1492.426	0	28.4	4	8.8	4	-1E+10	1	-1E+10	1	-1E+10	1	-1E+10	1	-1E+10	1	-1E+10	1
4901784	162	C	12/11/2019	10:43	-132.684	43.638	0	1515.40	0	2.4780	0	36.8810	8	29.447	0	1497.842	0	28.8	4	8.9	4	-1E+10	1	-1E+10	1	-1E+10	1	-1E+10	1	-1E+10	1	-1E+10	1
4901784	162	C	12/11/2019	10:43	-132.684	43.638	0	1519.90	0	2.4700	0	36.8830	8	29.450	0	1502.274	0	29.0	4	9.0	4	-1E+10	1	-1E+10	1	-1E+10	1	-1E+10	1	-1E+10	1	-1E+10	1
4901784	162	C	12/11/2019	10:43	-132.684	43.638	0	1524.50	0	2.4640	0	36.8830	8	29.450	0	1506.805	0	29.2	4	9.1	4	-1E+10	1	-1E+10	1	-1E+10	1	-1E+10	1	-1E+10	1	-1E+10	1
4901784	162	C	12/11/2019	10:43	-132.684	43.638	0	1529.90	0	2.4560	0	36.8840	8	29.452	0	1512.123	0	29.5	4	9.2	4	-1E+10	1	-1E+10	1	-1E+10	1	-1E+10	1	-1E+10	1	-1E+10	1
4901784	162	C	12/11/2019	10:43	-132.684	43.638	0	1535.40	0	2.4480	0	36.8860	8	29.454	0	1517.539	0	29.8	4	9.2	4	-1E+10	1	-1E+10	1	-1E+10	1	-1E+10	1	-1E+10	1	-1E+10	1
4901784	162	C	12/11/2019	10:43	-132.684	43.638	0	1539.90	0	2.4440	0	36.8860	8	29.454	0	1521.970	0	30.1	4	9.3	4	-1E+10	1	-1E+10	1	-1E+10	1	-1E+10	1	-1E+10	1	-1E+10	1
4901784	162	C	12/11/2019	10:43	-132.684	43.638	0	1544.60	0	2.4330	0	36.8880	8	29.457	0	1526.599	0	30.4	4	9.4	4	-1E+10	1	-1E+10	1	-1E+10	1	-1E+10	1	-1E+10	1	-1E+10	1
4901784	162	C	12/11/2019	10:43	-132.684	43.638	0	1550.10	0	2.4270	0	36.8890	8	29.458	0	1532.015	0	30.6	4	9.5	4	-1E+10	1	-1E+10	1	-1E+10	1	-1E+10	1	-1E+10	1	-1E+10	1
4901784	162	C	12/11/2019	10:43	-132.684	43.638	0	1555.60	0	2.4200	0	36.8900	8	29.460	0	1537.431	0	30.9	4	9.6	4	-1E+10	1	-1E+10	1	-1E+10	1	-1E+10	1	-1E+10	1	-1E+10	1
4901784	162	C	12/11/2019	10:43	-132.684	43.638	0	1560.30	0	2.4150	0	36.8900	8	29.460	0	1542.059	0	31.2	4	9.7	4	-1E+10	1	-1E+10	1	-1E+10	1	-1E+10	1	-1E+10	1	-1E+10	1
4901784	162	C	12/11/2019	10:43	-132.684	43.638	0	1564.80	0	2.4070	0	36.8920	8	29.463	0	1546.490	0	31.5	4	9.8	4	-1E+10	1	-1E+10	1	-1E+10	1	-1E+10	1	-1E+10	1	-1E+10	1
4901784	162	C	12/11/2019	10:43	-132.684	43.638	0	1569.70	0	2.3980	0	36.8940	8	29.465	0	1551.314	0	31.7	4	9.8	4	-1E+10	1	-1E+10	1	-1E+10	1	-1E+10	1	-1E+10	1	-1E+10	1
4901784	162	C	12/11/2019	10:43	-132.684	43.638	0	1574.50	0	2.3950	0	36.8940	8	29.465	0	1556.040	0	31.8	4	9.9	4	-1E+10	1	-1E+10	1	-1E+10	1	-1E+10	1	-1E+10	1	-1E+10	1
4901784	162	C	12/11/2019	10:43	-132.684	43.638	0	1579.40	0	2.3940	0	36.8940	8	29.466	0	1560.865	0	31.9	4	9.9	4	-1E+10	1	-1E+10	1	-1E+10	1	-1E+10	1	-1E+10	1	-1E+10	1
4901784	162	C	12/11/2019	10:43	-132.684	43.638	0	1584.30	0	2.3920	0	36.8940	8	29.466	0	1565.689	0	32.2	4	10.0	4	-1E+10	1	-1E+10	1	-1E+10	1	-1E+10	1	-1E+10	1	-1E+10	1
4901784	162	C	12/11/2019	10:43	-132.684	43.638	0	1589.20	0	2.3820	0	36.8960	8	29.468	0	1570.513	0	32.5	4	10.1	4	-1E+10	1	-1E+10	1	-1E+10	1	-1E+10	1	-1E+10	1	-1E+10	1
4901784	162	C	12/11/2019	10:43	-132.684	43.638	0	1594.20	0	2.3730	0	36.8970	8	29.470	0	1575.436	0	33.0	4	10.2	4	-1E+10	1	-1E+10	1	-1E+10	1	-1E+10	1	-1E+10	1	-1E+10	1
4901784	162	C	12/11/2019	10:43	-132.684	43.638	0	1600.00	0	2.3610	0	36.8990	8	29.473	0	1581.146	0	33.4	4	10.3	4	-1E+10	1	-1E+10	1	-1E+10	1	-1E+10	1	-1E+10	1	-1E+10	1
4901784	162	C	12/11/2019	10:43	-132.684	43.638	0	1605.80	0	2.3520	0	36.9000	8	29.474	0	1586.856	0	33.8	4	10.5	4	-1E+10	1	-1E+10	1	-1E+10	1	-1E+10	1	-1E+10	1	-1E+10	1
4901784	162	C	12/11/2019	10:43	-132.684	43.638	0	1610.80	0	2.3400	0	36.9020	8	29.477	0	1591.778	0	34.2	4	10.6	4	-1E+10	1	-1E+10	1	-1E+10	1	-1E+10	1	-1E+10	1	-1E+10	1
4901784	162	C	12/11/2019	10:43	-132.684	43.638	0	1615.00	0	2.3370	0	36.9030	8	29.478	0	1595.913	0	34.4	4	10.6	4	-1E+10	1	-1E+10	1	-1E+10	1	-1E+10	1	-1E+10	1	-1E+10	1
4901784	162	C	12/11/2019	10:43	-132.684	43.638	0	1619.20	0	2.3320	0	36.9030	8	29.478	0	1600.047	0	34.7	4	10.7	4	-1E+10	1	-1E+10	1	-1E+10	1	-1E+10	1	-1E+10	1	-1E+10	1
4901784	162	C	12/11/2019	10:43	-132.684	43.638	0	1624.30	0	2.3210	0	36.9050	8	29.481	0	1605.068	0	35.1	4	10.9	4	-1E+10	1	-1E+10	1	-1E+10	1	-1E+10	1	-1E+10	1	-1E+10	1
4901784	162	C	12/11/2019	10:43	-132.684	43.638	0	1629.40	0	2.3160	0	36.9060	8	29.482	0	1610.088	0	35.4	4	10.9	4	-1E+10	1	-1E+10	1	-1E+10	1	-1E+10	1	-1E+10	1	-1E+10	1
4901784	162	C	12/11/2019	10:43	-132.684	43.638	0	1634.60	0	2.3080	0	36.9070	8	29.484	0	1615.207	0	35.8	4	11.1	4	-1E+10	1	-1E+10	1	-1E+10	1	-1E+10	1	-1E+10	1	-1E+10	1
4901784	162	C	12/11/2019	10:43	-132.684	43.638	0	1639.80	0	2.3010	0	36.9080	8	29.485	0	1620.325	0	36.2	4	11.2	4	-1E+10	1	-1E+10	1	-1E+10	1	-1E+10	1	-1E+10	1	-1E+10	1
4901784	162	C	12/11/2019	10:43	-132.684	43.638	0	1645.00	0	2.2910	0	36.9090	8	29.487	0	1625.443	0	36.7	4	11.3	4	-1E+10	1	-1E+10	1	-1E+10	1	-1E+10	1	-1E+10	1	-1E+10	1
4901784	162	C	12/11/2019	10:43	-132.684	43.638	0	1650.30	0	2.2800	0	36.9110	8	29.490	0	1630.660	0	37.0	4	11.4	4	-1E+10	1	-1E+10	1	-1E+10	1	-1E+10	1	-1E+10	1	-1E+10	1
4901784	162	C	12/11/2019	10:43	-132.684	43.638	0	1655.70	0	2.2760	0	36.9120	8	29.491	0	1635.975	0	37.4	4	11.5	4	-1E+10	1	-1E+10	1	-1E+10	1	-1E+10	1	-1E+10	1	-1E+10	1
4901784	162	C	12/11/2019	10:43	-132.684	43.638	0	1660.20	0	2.2690	0	36.9130	8	29.492	0	1640.404	0	37.7	4	11.7	4	-1E+10	1	-1E+10	1	-1E+10	1	-1E+10	1	-1E+10	1	-1E+10	1
4901784	162	C	12/11/2019	10:43	-132.684	43.638	0	1664.70	0	2.2590	0	36.9140	8	29.494	0	1644.833	0	38.1	4	11.8	4	-1E+10	1	-1E+10	1	-1E+10	1	-1E+10	1	-1E+10	1	-1E+10	1
4901784	162	C	12/11/2019	10:43	-132.684	43.638	0	1670.10	0	2.2510	0	36.9150	8	29.496	0	1650.147	0	38.5	4	11.9	4	-1E+10	1	-1E+10	1	-1E+10	1	-1E+10	1	-1E+10	1	-1E+10	1
4901784	162	C	12/11/2019	10:43	-132.684	43.638	0	1675.50	0	2.2450	0	36.9160	8	29.497	0	1655.462	0	38.8	4	12.0	4	-1E+10	1	-1E+10	1	-1E+10	1	-1E+10	1	-1E+10	1	-1E+10	1
4901784	162	C	12/11/2019	10:43	-132.684	43.638	0	1680.00	0	2.2410	0	36.9170	8	29.498	0	1659.890	0	39.1	4	12.1	4	-1E+10	1	-1E+10	1	-1E+10	1	-1E+10	1	-1E+10	1	-1E+10	1
4901784	162	C	12/11/2019	10:43	-132.684	43.638	0	1684.60	0	2.2330	0	36.9180	8	29.500	0	1664.417	0	39.4	4	12.2	4	-1E+10	1	-1E+10	1	-1E+10	1	-1E+10	1	-1E+10	1	-1E+10	1
4901784	162	C	12/11/2019	10:43	-132.684	43.638	0	1690.10	0	2.2230	0	36.9190	8	29.501	0	1669.830	0	39.9	4	12.3	4	-1E+10	1	-1E+10	1	-1E+10	1	-1E+10	1	-1E+10	1	-1E+10	1
4901784	162	C	12/11/2019	10:43	-132.684	43.638	0	1695.60	0	2.2130	0	36.9210	8	29.504	0	1675.242	0	40.3	4	12.4	4	-1E+10	1	-1E+10	1	-1E+10	1	-1E+10	1	-1E+10	1	-1E+10	1
4901784	162	C	12/11/2019	10:43	-132.684	43.638	0	1700.20	0	2.2090	0	36.9220	8	29.505	0	1679.768	0	40.5	4	12.5	4	-1E+10	1	-1E+10	1	-1E+10	1	-1E+10	1	-1E+10	1	-1E+10	1
4901784	162	C	12/11/2019	10:43	-132.684	43.638	0	1704.80	0	2.2050	0	36.9220	8	29.505	0	1684.295	0	40.8	4	12.6	4	-1E+10	1	-1E+10	1	-1E+10	1	-1E+10	1	-1E+10	1	-1E+10	1
4901784	162	C	12/11/2019	10:43	-132.684	43.638	0	1710.40	0	2.1980	0	36.9230	8	29.507	0	1689.805	0	41.2	4	12.7	4	-1E+10	1	-1E+10	1	-1E+10	1	-1E+10	1	-1E+10	1	-1E+10	1
4901784	162	C	12/11/2019	10:43	-132.684	43.638	0	1715.00	0	2.1890	0	36.9250	8	29.509	0	1694.332	0	41.6	4	12.8	4	-1E+10	1	-1E+10	1	-1E+10	1	-1E+10	1	-1E+10	1	-1E+10	1
4901784	162	C	12/11/2019	10:43	-132.684	43.638	0	1719.60	0	2.1850	0	36.9260	8	29.510	0	1698.858	0	42.0	4	12.9	4	-1E+10	1	-1E+10	1	-1E+10	1	-1E+10	1	-1E+10	1	-1E+10	1
4901784	162	C	12/11/2019	10:43	-132.684	43.638	0	1725.20	0	2.1780	0	36.9260	8	29.511	0	1704.368	0	42.4	4	13.1	4	-1E+10	1	-1E+10	1	-1E+10	1	-1E+10	1	-1E+10	1	-1E+10	1
4901784	162	C	12/11/2019	10:43	-132.684	43.638	0	1729.80	0	2.1690	0	36.9280	8	29.513	0	1708.894	0	42.8	4	13.2	4	-1E+10	1	-1E+10	1	-1E+10	1	-1E+10	1	-1E+10	1	-1E+10	1
4901784	162	C	12/11/2019	10:43	-132.684	43.638	0	1734.50	0	2.1610	0	36.9290	8	29.515	0	1713.518	0	43.2	4	13.3	4	-1E+10	1	-1E+10	1	-1E+10	1	-1E+10	1	-1E+10	1	-1E+10	1
4901784	162	C	12/11/2019	10:43	-132.684	43.638	0	1740.00	0	2.1540	0	36.9300	8	29.516	0	1718.929	0	43.5	4	13.4	4	-1E+10	1	-1E+10	1	-1E+10	1	-1E+10	1	-1E+10	1	-1E+10	1
4901784	162	C	12/11/2019	10:43	-132.684	43.638	0	1745.50	0	2.1500	0	36.9310	8	29.518	0	1724.340	0	43.9	4	13.5	4	-1E+10	1	-1E+10	1	-1E+10	1	-1E+10	1	-1E+10	1	-1E+10	1
4901784	162	C	12/11/2019	10:43	-132.684	43.638	0	1750.40	0	2.1410	0	36.9320	8	29.519	0	1729.161	0	44.3	4	13.6	4	-1E+10	1	-1E+10	1	-1E+10	1	-1E+10	1	-1E+10	1	-1E+10	1
4901784	162	C	12/11/2019	10:43	-132.684	43.638	0	1755.40	0	2.1330	0	36.9340	8	29.521	0	1734.080	0	44.6	4	13.7	4	-1E+10	1	-1E+10	1	-1E+10	1	-1E+10	1	-1E+10	1	-1E+10	1
4901784	162	C	12/11/2019	10:43	-132.684	43.638	0	1760.50	0	2.1290	0	36.9340	8	29.522	0	1739.097	0	44.7	4	13.8	4	-1E+10	1	-1E+10	1	-1E+10	1	-1E+10	1	-1E+10	1	-1E+10	1
4901784	162	C	12/11/2019	10:43	-132.684	43.638	0	1765.70	0	2.1270	0	36.9340	8	29.522	0	1744.212	0	45.0	4	13.8	4	-1E+10	1	-1E+10	1	-1E+10	1	-1E+10	1	-1E+10	1	-1E+10	1
4901784	162	C	12/11/2019	10:43	-132.684	43.638	0	1770.80	0	2.1230	0	36.9350	8	29.523	0	1749.229	0	45.2	4	13.9	4	-1E+10	1	-1E+10	1	-1E+10	1	-1E+10	1	-1E+10	1	-1E+10	1
4901784	162	C	12/11/2019	10:43	-132.684	43.638	0	1775.10	0	2.1200	0	36.9360	8	29.524	0	1753.459	0	45.3	4	14.0	4	-1E+10	1	-1E+10	1	-1E+10	1	-1E+10	1	-1E+10	1	-1E+10	1
4901784	162	C	12/11/2019	10:43	-132.684	43.638	0	1779.30	0	2.1170	0	36.9360	8	29.525	0	1757.591	0	45.5	4	14.0	4	-1E+10	1	-1E+10	1	-1E+10	1	-1E+10	1	-1E+10	1	-1E+10	1
4901784	162	C	12/11/2019	10:43	-132.684	43.638	0	1784.50	0	2.1120	0	36.9370	8	29.526	0	1762.705	0	45.8	4	14.1	4	-1E+10	1	-1E+10	1	-1E+10	1	-1E+10	1	-1E+10	1	-1E+10	1
4901784	162	C	12/11/2019	10:43	-132.684	43.638	0	1789.80	0	2.1070	0	36.9380	8	29.527	0	1767.919	0	46.0	4	14.2	4	-1E+10	1	-1E+10	1	-1E+10	1	-1E+10	1	-1E+10	1	-1E+10	1
4901784	162	C	12/11/2019	10:43	-132.684	43.638	0	1795.00	0	2.1010	0	36.9380	8	29.528	0	1773.033	0	46.4	4	14.3	4	-1E+10	1	-1E+10	1	-1E+10	1	-1E+10	1	-1E+10	1	-1E+10	1
4901784	162	C	12/11/2019	10:43	-132.684	43.638	0	1800.20	0	2.0940	0	36.9400	8	29.530	0	1778.148	0	46.7	4	14.4	4	-1E+10	1	-1E+10	1	-1E+10	1	-1E+10	1	-1E+10	1	-1E+10	1
4901784	162	C	12/11/2019	10:43	-132.684	43.638	0	1805.50	0	2.0910	0	36.9400	8	29.530	0	1783.361	0	46.9	4	14.4	4	-1E+10	1	-1E+10	1	-1E+10	1	-1E+10	1	-1E+10	1	-1E+10	1
4901784	162	C	12/11/2019	10:43	-132.684	43.638	0	1809.80	0	2.0880	0	36.9410	8	29.531	0	1787.590	0	47.2	4	14.5	4	-1E+10	1	-1E+10	1	-1E+10	1	-1E+10	1	-1E+10	1	-1E+10	1
4901784	162	C	12/11/2019	10:43	-132.684	43.638	0	1814.30	0	2.0820	0	36.9420	8	29.533	0	1792.016	0	47.4	4	14.6	4	-1E+10	1	-1E+10	1	-1E+10	1	-1E+10	1	-1E+10	1	-1E+10	1
4901784	162	C	12/11/2019	10:43	-132.684	43.638	0	1819.60	0	2.0780	0	36.9420	8	29.533	0	1797.228	0	47.8	4	14.7	4	-1E+10	1	-1E+10	1	-1E+10	1	-1E+10	1	-1E+10	1	-1E+10	1
4901784	162	C	12/11/2019	10:43	-132.684	43.638	0	1824.80	0	2.0720	0	36.9430	8	29.534	0	1802.342	0	48.1	4	14.8	4	-1E+10	1	-1E+10	1	-1E+10	1	-1E+10	1	-1E+10	1	-1E+10	1
4901784	162	C	12/11/2019	10:43	-132.684	43.638	0	1830.20	0	2.0670	0	36.9450	8	29.536	0	1807.653	0	48.4	4	14.9	4	-1E+10	1	-1E+10	1	-1E+10	1	-1E+10	1	-1E+10	1	-1E+10	1
4901784	162	C	12/11/2019	10:43	-132.684	43.638	0	1835.50	0	2.0630	0	36.9450	8	29.537	0	1812.865	0	48.7	4	15.0	4	-1E+10	1	-1E+10	1	-1E+10	1	-1E+10	1	-1E+10	1	-1E+10	1
4901784	162	C	12/11/2019	10:43	-132.684	43.638	0	1839.90	0	2.0580	0	36.9460	8	29.538	0	1817.192	0	49.0	4	15.1	4	-1E+10	1	-1E+10	1	-1E+10	1	-1E+10	1	-1E+10	1	-1E+10	1
4901784	162	C	12/11/2019	10:43	-132.684	43.638	0	1844.30	0	2.0550	0	36.9460	8	29.538	0	1821.519	0	49.2	4	15.1	4	-1E+10	1	-1E+10	1	-1E+10	1	-1E+10	1	-1E+10	1	-1E+10	1
4901784	162	C	12/11/2019	10:43	-132.684	43.638	0	1849.70	0	2.0520	0	36.9470	8	29.539	0	1826.829	0	49.6	4	15.2	4	-1E+10	1	-1E+10	1	-1E+10	1	-1E+10	1	-1E+10	1	-1E+10	1
4901784	162	C	12/11/2019	10:43	-132.684	43.638	0	1855.00	0	2.0450	0	36.9490	8	29.542	0	1832.041	0	50.1	4	15.4	4	-1E+10	1	-1E+10	1	-1E+10	1	-1E+10	1	-1E+10	1	-1E+10	1
4901784	162	C	12/11/2019	10:43	-132.684	43.638	0	1860.40	0	2.0390	0	36.9500	8	29.543	0	1837.351	0	50.5	4	15.5	4	-1E+10	1	-1E+10	1	-1E+10	1	-1E+10	1	-1E+10	1	-1E+10	1
4901784	162	C	12/11/2019	10:43	-132.684	43.638	0	1864.90	0	2.0360	0	36.9510	8	29.544	0	1841.775	0	50.8	4	15.6	4	-1E+10	1	-1E+10	1	-1E+10	1	-1E+10	1	-1E+10	1	-1E+10	1
4901784	162	C	12/11/2019	10:43	-132.684	43.638	0	1869.40	0	2.0330	0	36.9510	8	29.544	0	1846.200	0	51.1	4	15.7	4	-1E+10	1	-1E+10	1	-1E+10	1	-1E+10	1	-1E+10	1	-1E+10	1
4901784	162	C	12/11/2019	10:43	-132.684	43.638	0	1874.80	0	2.0270	0	36.9520	8	29.546	0	1851.510	0	51.6	4	15.9	4	-1E+10	1	-1E+10	1	-1E+10	1	-1E+10	1	-1E+10	1	-1E+10	1
4901784	162	C	12/11/2019	10:43	-132.684	43.638	0	1880.20	0	2.0190	0	36.9540	8	29.548	0	1856.819	0	52.0	4	16.0	4	-1E+10	1	-1E+10	1	-1E+10	1	-1E+10	1	-1E+10	1	-1E+10	1
4901784	162	C	12/11/2019	10:43	-132.684	43.638	0	1885.60	0	2.0150	0	36.9540	8	29.548	0	1862.128	0	52.2	4	16.0	4	-1E+10	1	-1E+10	1	-1E+10	1	-1E+10	1	-1E+10	1	-1E+10	1
4901784	162	C	12/11/2019	10:43	-132.684	43.638	0	1890.10	0	2.0130	0	36.9550	8	29.549	0	1866.552	0	52.6	4	16.1	4	-1E+10	1	-1E+10	1	-1E+10	1	-1E+10	1	-1E+10	1	-1E+10	1
4901784	162	C	12/11/2019	10:43	-132.684	43.638	0	1894.70	0	2.0080	0	36.9550	8	29.550	0	1871.075	0	52.9	4	16.2	4	-1E+10	1	-1E+10	1	-1E+10	1	-1E+10	1	-1E+10	1	-1E+10	1
4901784	162	C	12/11/2019	10:43	-132.684	43.638	0	1900.10	0	2.0010	0	36.9570	8	29.552	0	1876.384	0	53.2	4	16.3	4	-1E+10	1	-1E+10	1	-1E+10	1	-1E+10	1	-1E+10	1	-1E+10	1
4901784	162	C	12/11/2019	10:43	-132.684	43.638	0	1904.70	0	1.9980	0	36.9570	8	29.552	0	1880.906	0	53.5	4	16.4	4	-1E+10	1	-1E+10	1	-1E+10	1	-1E+10	1	-1E+10	1	-1E+10	1
4901784	162	C	12/11/2019	10:43	-132.684	43.638	0	1909.20	0	1.9940	0	36.9580	8	29.554	0	1885.330	0	53.8	4	16.5	4	-1E+10	1	-1E+10	1	-1E+10	1	-1E+10	1	-1E+10	1	-1E+10	1
4901784	162	C	12/11/2019	10:43	-132.684	43.638	0	1914.60	0	1.9890	0	36.9590	8	29.555	0	1890.638	0	54.1	4	16.6	4	-1E+10	1	-1E+10	1	-1E+10	1	-1E+10	1	-1E+10	1	-1E+10	1
4901784	162	C	12/11/2019	10:43	-132.684	43.638	0	1919.40	0	1.9850	0	36.9600	8	29.556	0	1895.357	0	54.3	4	16.7	4	-1E+10	1	-1E+10	1	-1E+10	1	-1E+10	1	-1E+10	1	-1E+10	1
4901784	162	C	12/11/2019	10:43	-132.684	43.638	0	1924.30	0	1.9830	0	36.9600	8	29.556	0	1900.174	0	54.4	4	16.7	4	-1E+10	1	-1E+10	1	-1E+10	1	-1E+10	1	-1E+10	1	-1E+10	1
4901784	162	C	12/11/2019	10:43	-132.684	43.638	0	1930.00	0	1.9810	0	36.9600	8	29.556	0	1905.777	0	54.6	4	16.8	4	-1E+10	1	-1E+10	1	-1E+10	1	-1E+10	1	-1E+10	1	-1E+10	1
4901784	162	C	12/11/2019	10:43	-132.684	43.638	0	1935.70	0	1.9770	0	36.9610	8	29.558	0	1911.379	0	55.0	4	16.9	4	-1E+10	1	-1E+10	1	-1E+10	1	-1E+10	1	-1E+10	1	-1E+10	1
4901784	162	C	12/11/2019	10:43	-132.684	43.638	0	1940.60	0	1.9730	0	36.9610	8	29.558	0	1916.196	0	55.3	4	17.0	4	-1E+10	1	-1E+10	1	-1E+10	1	-1E+10	1	-1E+10	1	-1E+10	1
4901784	162	C	12/11/2019	10:43	-132.684	43.638	0	1945.50	0	1.9670	0	36.9630	8	29.560	0	1921.012	0	55.6	4	17.1	4	-1E+10	1	-1E+10	1	-1E+10	1	-1E+10	1	-1E+10	1	-1E+10	1
4901784	162	C	12/11/2019	10:43	-132.684	43.638	0	1950.50	0	1.9620	0	36.9630	8	29.560	0	1925.927	0	55.9	4	17.1	4	-1E+10	1	-1E+10	1	-1E+10	1	-1E+10	1	-1E+10	1	-1E+10	1
4901784	162	C	12/11/2019	10:43	-132.684	43.638	0	1955.40	0	1.9580	0	36.9640	8	29.562	0	1930.743	0	56.1	4	17.2	4	-1E+10	1	-1E+10	1	-1E+10	1	-1E+10	1	-1E+10	1	-1E+10	1
4901784	162	C	12/11/2019	10:43	-132.684	43.638	0	1960.40	0	1.9550	0	36.9650	8	29.563	0	1935.657	0	56.3	4	17.3	4	-1E+10	1	-1E+10	1	-1E+10	1	-1E+10	1	-1E+10	1	-1E+10	1
4901784	162	C	12/11/2019	10:43	-132.684	43.638	0	1965.40	0	1.9530	0	36.9650	8	29.563	0	1940.571	0	56.5	4	17.3	4	-1E+10	1	-1E+10	1	-1E+10	1	-1E+10	1	-1E+10	1	-1E+10	1
4901784	162	C	12/11/2019	10:43	-132.684	43.638	0	1970.40	0	1.9520	0	36.9660	8	29.564	0	1945.485	0	56.7	4	17.4	4	-1E+10	1	-1E+10	1	-1E+10	1	-1E+10	1	-1E+10	1	-1E+10	1
4901784	162	C	12/11/2019	10:43	-132.684	43.638	0	1975.60	0	1.9490	0	36.9660	8	29.564	0	1950.596	0	56.9	4	17.5	4	-1E+10	1	-1E+10	1	-1E+10	1	-1E+10	1	-1E+10	1	-1E+10	1
4901784	162	C	12/11/2019	10:43	-132.684	43.638	0	1980.70	0	1.9460	0	36.9670	8	29.565	0	1955.608	0	57.2	4	17.5	4	-1E+10	1	-1E+10	1	-1E+10	1	-1E+10	1	-1E+10	1	-1E+10	1
4901784	162	C	12/11/2019	10:43	-132.684	43.638	0	1985.70	0	1.9430	0	36.9670	8	29.566	0	1960.521	0	57.5	4	17.6	4	-1E+10	1	-1E+10	1	-1E+10	1	-1E+10	1	-1E+10	1	-1E+10	1
4901784	162	C	12/11/2019	10:43	-132.684	43.638	0	1990.00	0	1.9410	0	36.9680	8	29.567	0	1964.747	0	57.7	4	17.7	4	-1E+10	1	-1E+10	1	-1E+10	1	-1E+10	1	-1E+10	1	-1E+10	1
4901784	162	C	12/11/2019	10:43	-132.684	43.638	0	1994.20	0	1.9390	0	36.9680	8	29.567	0	1968.874	0	58.0	4	17.8	4	-1E+10	1	-1E+10	1	-1E+10	1	-1E+10	1	-1E+10	1	-1E+10	1
4901784	162	C	12/11/2019	10:43	-132.684	43.638	0	1999.30	0	1.9340	0	36.9690	8	29.568	0	1973.886	0	58.5	4	17.9	4	-1E+10	1	-1E+10	1	-1E+10	1	-1E+10	1	-1E+10	1	-1E+10	1
4901784	162	C	12/11/2019	10:43	-132.684	43.638	0	2004.30	0	1.9300	0	36.9700	8	29.569	0	1978.799	0	58.7	4	18.0	4	-1E+10	1	-1E+10	1	-1E+10	1	-1E+10	1	-1E+10	1	-1E+10	1
4901784	162	C	12/11/2019	10:43	-132.684	43.638	0	2009.30	0	1.9280	0	36.9710	8	29.570	0	1983.712	0	58.9	4	18.1	4	-1E+10	1	-1E+10	1	-1E+10	1	-1E+10	1	-1E+10	1	-1E+10	1
4901784	162	C	12/11/2019	10:43	-132.684	43.638	0	2015.00	0	1.9260	0	36.9710	8	29.570	0	1989.313	0	59.2	4	18.1	4	-1E+10	1	-1E+10	1	-1E+10	1	-1E+10	1	-1E+10	1	-1E+10	1
4901784	162	C	12/11/2019	10:43	-132.684	43.638	0	2020.00	0	1.9240	0	36.9720	8	29.571	0	1994.226	0	59.4	4	18.2	4	-1E+10	1	-1E+10	1	-1E+10	1	-1E+10	1	-1E+10	1	-1E+10	1
4901784	162	C	12/11/2019	10:43	-132.684	43.638	0																										
4901784	163	C	12/21/2019	10:46	-132.660	43.629	0	2.80	0	13.4030	0	34.6850	8	26.068	0	2.778	0	243.8	4	95.1	4	-1E+10	1	-1E+10	1	-1E+10	1	-1E+10	1	-1E+10	1	-1E+10	1
4901784	163	C	12/21/2019	10:46	-132.660	43.629	0	4.10	0	13.4030	0	34.6860	8	26.069	0	4.067	0	243.6	4	95.0	4	-1E+10	1	-1E+10	1	-1E+10	1	-1E+10	1	-1E+10	1	-1E+10	1
4901784	163	C	12/21/2019	10:46	-132.660	43.629	0	5.70	0	13.4040	0	34.6860	8	26.069	0	5.654	0	243.5	4	95.0	4	-1E+10	1	-1E+10	1	-1E+10	1	-1E+10	1	-1E+10	1	-1E+10	1
4901784	163	C	12/21/2019	10:46	-132.660	43.629	0	7.20	0	13.4030	0	34.6860	8	26.069	0	7.142	0	243.5	4	95.0	4	-1E+10	1	-1E+10	1	-1E+10	1	-1E+10	1	-1E+10	1	-1E+10	1
4901784	163	C	12/21/2019	10:46	-132.660	43.629	0	8.90	0	13.3990	0	34.6870	8	26.071	0	8.829	0	243.6	4	95.0	4	-1E+10	1	-1E+10	1	-1E+10	1	-1E+10	1	-1E+10	1	-1E+10	1
4901784	163	C	12/21/2019	10:46	-132.660	43.629	0	10.70	0	13.3970	0	34.6880	8	26.072	0	10.614	0	243.7	4	95.1	4	-1E+10	1	-1E+10	1	-1E+10	1	-1E+10	1	-1E+10	1	-1E+10	1
4901784	163	C	12/21/2019	10:46	-132.660	43.629	0	12.60	0	13.4010	0	34.6880	8	26.071	0	12.499	0	243.4	4	94.9	4	-1E+10	1	-1E+10	1	-1E+10	1	-1E+10	1	-1E+10	1	-1E+10	1
4901784	163	C	12/21/2019	10:46	-132.660	43.629	0	14.40	0	13.4030	0	34.6880	8	26.071	0	14.284	0	243.5	4	95.0	4	-1E+10	1	-1E+10	1	-1E+10	1	-1E+10	1	-1E+10	1	-1E+10	1
4901784	163	C	12/21/2019	10:46	-132.660	43.629	0	16.10	0	13.3990	0	34.6890	8	26.072	0	15.971	0	243.4	4	94.9	4	-1E+10	1	-1E+10	1	-1E+10	1	-1E+10	1	-1E+10	1	-1E+10	1
4901784	163	C	12/21/2019	10:46	-132.660	43.629	0	18.00	0	13.3980	0	34.6900	8	26.073	0	17.855	0	243.4	4	94.9	4	-1E+10	1	-1E+10	1	-1E+10	1	-1E+10	1	-1E+10	1	-1E+10	1
4901784	163	C	12/21/2019	10:46	-132.660	43.629	0	19.90	0	13.3960	0	34.6900	8	26.074	0	19.740	0	243.6	4	95.0	4	-1E+10	1	-1E+10	1	-1E+10	1	-1E+10	1	-1E+10	1	-1E+10	1
4901784	163	C	12/21/2019	10:46	-132.660	43.629	0	21.80	0	13.3930	0	34.6910	8	26.075	0	21.625	0	243.5	4	95.0	4	-1E+10	1	-1E+10	1	-1E+10	1	-1E+10	1	-1E+10	1	-1E+10	1
4901784	163	C	12/21/2019	10:46	-132.660	43.629	0	23.80	0	13.4060	0	34.6900	8	26.072	0	23.608	0	243.3	4	94.9	4	-1E+10	1	-1E+10	1	-1E+10	1	-1E+10	1	-1E+10	1	-1E+10	1
4901784	163	C	12/21/2019	10:46	-132.660	43.629	0	25.70	0	13.4060	0	34.6910	8	26.073	0	25.493	0	243.5	4	95.0	4	-1E+10	1	-1E+10	1	-1E+10	1	-1E+10	1	-1E+10	1	-1E+10	1
4901784	163	C	12/21/2019	10:46	-132.660	43.629	0	27.80	0	13.4060	0	34.6920	8	26.074	0	27.576	0	243.2	4	94.9	4	-1E+10	1	-1E+10	1	-1E+10	1	-1E+10	1	-1E+10	1	-1E+10	1
4901784	163	C	12/21/2019	10:46	-132.660	43.629	0	29.70	0	13.4060	0	34.6930	8	26.074	0	29.461	0	243.2	4	94.9	4	-1E+10	1	-1E+10	1	-1E+10	1	-1E+10	1	-1E+10	1	-1E+10	1
4901784	163	C	12/21/2019	10:46	-132.660	43.629	0	31.70	0	13.4060	0	34.6930	8	26.074	0	31.444	0	243.1	4	94.9	4	-1E+10	1	-1E+10	1	-1E+10	1	-1E+10	1	-1E+10	1	-1E+10	1
4901784	163	C	12/21/2019	10:46	-132.660	43.629	0	33.70	0	13.4070	0	34.6940	8	26.075	0	33.428	0	243.1	4	94.8	4	-1E+10	1	-1E+10	1	-1E+10	1	-1E+10	1	-1E+10	1	-1E+10	1
4901784	163	C	12/21/2019	10:46	-132.660	43.629	0	35.70	0	13.4070	0	34.6940	8	26.075	0	35.412	0	243.2	4	94.9	4	-1E+10	1	-1E+10	1	-1E+10	1	-1E+10	1	-1E+10	1	-1E+10	1
4901784	163	C	12/21/2019	10:46	-132.660	43.629	0	37.70	0	13.4070	0	34.6940	8	26.075	0	37.395	0	243.0	4	94.8	4	-1E+10	1	-1E+10	1	-1E+10	1	-1E+10	1	-1E+10	1	-1E+10	1
4901784	163	C	12/21/2019	10:46	-132.660	43.629	0	39.60	0	13.4070	0	34.6950	8	26.076	0	39.280	0	243.2	4	94.9	4	-1E+10	1	-1E+10	1	-1E+10	1	-1E+10	1	-1E+10	1	-1E+10	1
4901784	163	C	12/21/2019	10:46	-132.660	43.629	0	41.60	0	13.4070	0	34.6960	8	26.077	0	41.263	0	242.9	4	94.8	4	-1E+10	1	-1E+10	1	-1E+10	1	-1E+10	1	-1E+10	1	-1E+10	1
4901784	163	C	12/21/2019	10:46	-132.660	43.629	0	43.50	0	13.4060	0	34.6970	8	26.078	0	43.148	0	242.9	4	94.8	4	-1E+10	1	-1E+10	1	-1E+10	1	-1E+10	1	-1E+10	1	-1E+10	1
4901784	163	C	12/21/2019	10:46	-132.660	43.629	0	45.60	0	13.4060	0	34.6970	8	26.078	0	45.231	0	242.9	4	94.8	4	-1E+10	1	-1E+10	1	-1E+10	1	-1E+10	1	-1E+10	1	-1E+10	1
4901784	163	C	12/21/2019	10:46	-132.660	43.629	0	47.60	0	13.4060	0	34.6970	8	26.078	0	47.214	0	242.9	4	94.7	4	-1E+10	1	-1E+10	1	-1E+10	1	-1E+10	1	-1E+10	1	-1E+10	1
4901784	163	C	12/21/2019	10:46	-132.660	43.629	0	49.70	0	13.4060	0	34.6980	8	26.079	0	49.297	0	242.8	4	94.7	4	-1E+10	1	-1E+10	1	-1E+10	1	-1E+10	1	-1E+10	1	-1E+10	1
4901784	163	C	12/21/2019	10:46	-132.660	43.629	0	51.70	0	13.4060	0	34.6990	8	26.080	0	51.280	0	242.6	4	94.7	4	-1E+10	1	-1E+10	1	-1E+10	1	-1E+10	1	-1E+10	1	-1E+10	1
4901784	163	C	12/21/2019	10:46	-132.660	43.629	0	53.70	0	13.4060	0	34.7000	8	26.080	0	53.264	0	242.7	4	94.7	4	-1E+10	1	-1E+10	1	-1E+10	1	-1E+10	1	-1E+10	1	-1E+10	1
4901784	163	C	12/21/2019	10:46	-132.660	43.629	0	55.60	0	13.4060	0	34.7000	8	26.081	0	55.148	0	242.7	4	94.7	4	-1E+10	1	-1E+10	1	-1E+10	1	-1E+10	1	-1E+10	1	-1E+10	1
4901784	163	C	12/21/2019	10:46	-132.660	43.629	0	57.40	0	13.4060	0	34.7010	8	26.081	0	56.933	0	242.5	4	94.6	4	-1E+10	1	-1E+10	1	-1E+10	1	-1E+10	1	-1E+10	1	-1E+10	1
4901784	163	C	12/21/2019	10:46	-132.660	43.629	0	59.30	0	13.4070	0	34.7010	8	26.081	0	58.818	0	242.6	4	94.6	4	-1E+10	1	-1E+10	1	-1E+10	1	-1E+10	1	-1E+10	1	-1E+10	1
4901784	163	C	12/21/2019	10:46	-132.660	43.629	0	61.30	0	13.4080	0	34.7020	8	26.082	0	60.801	0	242.5	4	94.6	4	-1E+10	1	-1E+10	1	-1E+10	1	-1E+10	1	-1E+10	1	-1E+10	1
4901784	163	C	12/21/2019	10:46	-132.660	43.629	0	63.20	0	13.4090	0	34.7020	8	26.082	0	62.685	0	242.4	4	94.6	4	-1E+10	1	-1E+10	1	-1E+10	1	-1E+10	1	-1E+10	1	-1E+10	1
4901784	163	C	12/21/2019	10:46	-132.660	43.629	0	65.20	0	13.4090	0	34.7030	8	26.083	0	64.669	0	242.3	4	94.5	4	-1E+10	1	-1E+10	1	-1E+10	1	-1E+10	1	-1E+10	1	-1E+10	1
4901784	163	C	12/21/2019	10:46	-132.660	43.629	0	67.10	0	13.4090	0	34.7040	8	26.083	0	66.553	0	242.2	4	94.5	4	-1E+10	1	-1E+10	1	-1E+10	1	-1E+10	1	-1E+10	1	-1E+10	1
4901784	163	C	12/21/2019	10:46	-132.660	43.629	0	69.00	0	13.4090	0	34.7040	8	26.083	0	68.437	0	242.0	4	94.4	4	-1E+10	1	-1E+10	1	-1E+10	1	-1E+10	1	-1E+10	1	-1E+10	1
4901784	163	C	12/21/2019	10:46	-132.660	43.629	0	70.80	0	13.4100	0	34.7040	8	26.083	0	70.222	0	241.9	4	94.4	4	-1E+10	1	-1E+10	1	-1E+10	1	-1E+10	1	-1E+10	1	-1E+10	1
4901784	163	C	12/21/2019	10:46	-132.660	43.629	0	72.70	0	13.4100	0	34.7050	8	26.084	0	72.106	0	241.9	4	94.4	4	-1E+10	1	-1E+10	1	-1E+10	1	-1E+10	1	-1E+10	1	-1E+10	1
4901784	163	C	12/21/2019	10:46	-132.660	43.629	0	74.60	0	13.4100	0	34.7060	8	26.085	0	73.990	0	241.6	4	94.3	4	-1E+10	1	-1E+10	1	-1E+10	1	-1E+10	1	-1E+10	1	-1E+10	1
4901784	163	C	12/21/2019	10:46	-132.660	43.629	0	76.40	0	13.4100	0	34.7060	8	26.085	0	75.775	0	241.3	4	94.2	4	-1E+10	1	-1E+10	1	-1E+10	1	-1E+10	1	-1E+10	1	-1E+10	1
4901784	163	C	12/21/2019	10:46	-132.660	43.629	0	78.20	0	13.4090	0	34.7060	8	26.085	0	77.560	0	241.4	4	94.2	4	-1E+10	1	-1E+10	1	-1E+10	1	-1E+10	1	-1E+10	1	-1E+10	1
4901784	163	C	12/21/2019	10:46	-132.660	43.629	0	80.00	0	13.4070	0	34.7060	8	26.086	0	79.345	0	241.3	4	94.2	4	-1E+10	1	-1E+10	1	-1E+10	1	-1E+10	1	-1E+10	1	-1E+10	1
4901784	163	C	12/21/2019	10:46	-132.660	43.629	0	81.90	0	13.4090	0	34.7070	8	26.086	0	81.229	0	241.0	4	94.0	4	-1E+10	1	-1E+10	1	-1E+10	1	-1E+10	1	-1E+10	1	-1E+10	1
4901784	163	C	12/21/2019	10:46	-132.660	43.629	0	83.80	0	13.4080	0	34.7070	8	26.086	0	83.113	0	240.8	4	93.9	4	-1E+10	1	-1E+10	1	-1E+10	1	-1E+10	1	-1E+10	1	-1E+10	1
4901784	163	C	12/21/2019	10:46	-132.660	43.629	0	85.50	0	13.4080	0	34.7060	8	26.086	0	84.799	0	240.6	4	93.9	4	-1E+10	1	-1E+10	1	-1E+10	1	-1E+10	1	-1E+10	1	-1E+10	1
4901784	163	C	12/21/2019	10:46	-132.660	43.629	0	87.90	0	13.4080	0	34.7050	8	26.085	0	87.179	0	240.4	4	93.8	4	-1E+10	1	-1E+10	1	-1E+10	1	-1E+10	1	-1E+10	1	-1E+10	1
4901784	163	C	12/21/2019	10:46	-132.660	43.629	0	89.80	0	13.4080	0	34.7020	8	26.083	0	89.063	0	239.8	4	93.5	4	-1E+10	1	-1E+10	1	-1E+10	1	-1E+10	1	-1E+10	1	-1E+10	1
4901784	163	C	12/21/2019	10:46	-132.660	43.629	0	91.40	0	13.4070	0	34.6990	8	26.081	0	90.649	0	239.7	4	93.5	4	-1E+10	1	-1E+10	1	-1E+10	1	-1E+10	1	-1E+10	1	-1E+10	1
4901784	163	C	12/21/2019	10:46	-132.660	43.629	0	92.90	0	13.4080	0	34.6920	8	26.075	0	92.137	0	239.1	4	93.3	4	-1E+10	1	-1E+10	1	-1E+10	1	-1E+10	1	-1E+10	1	-1E+10	1
4901784	163	C	12/21/2019	10:46	-132.660	43.629	0	94.30	0	13.4080	0	34.6840	8	26.069	0	93.525	0	238.4	4	93.0	4	-1E+10	1	-1E+10	1	-1E+10	1	-1E+10	1	-1E+10	1	-1E+10	1
4901784	163	C	12/21/2019	10:46	-132.660	43.629	0	95.80	0	13.4090	0	34.6670	8	26.056	0	95.012	0	237.9	4	92.8	4	-1E+10	1	-1E+10	1	-1E+10	1	-1E+10	1	-1E+10	1	-1E+10	1
4901784	163	C	12/21/2019	10:46	-132.660	43.629	0	97.30	0	13.3490	0	34.6540	8	26.058	0	96.500	0	237.1	4	92.4	4	-1E+10	1	-1E+10	1	-1E+10	1	-1E+10	1	-1E+10	1	-1E+10	1
4901784	163	C	12/21/2019	10:46	-132.660	43.629	0	98.80	0	12.8490	0	34.6720	8	26.172	0	97.987	0	236.9	4	91.4	4	-1E+10	1	-1E+10	1	-1E+10	1	-1E+10	1	-1E+10	1	-1E+10	1
4901784	163	C	12/21/2019	10:46	-132.660	43.629	0	100.30	0	12.3180	0	34.6320	8	26.245	0	99.474	0	239.4	4	91.3	4	-1E+10	1	-1E+10	1	-1E+10	1	-1E+10	1	-1E+10	1	-1E+10	1
4901784	163	C	12/21/2019	10:46	-132.660	43.629	0	102.60	0	11.2070	0	34.6510	8	26.469	0	101.755	0	240.7	4	89.7	4	-1E+10	1	-1E+10	1	-1E+10	1	-1E+10	1	-1E+10	1	-1E+10	1
4901784	163	C	12/21/2019	10:46	-132.660	43.629	0	105.10	0	10.6140	0	34.6410	8	26.568	0	104.234	0	242.9	4	89.4	4	-1E+10	1	-1E+10	1	-1E+10	1	-1E+10	1	-1E+10	1	-1E+10	1
4901784	163	C	12/21/2019	10:46	-132.660	43.629	0	107.70	0	10.2310	0	34.6450	8	26.638	0	106.811	0	242.5	4	88.5	4	-1E+10	1	-1E+10	1	-1E+10	1	-1E+10	1	-1E+10	1	-1E+10	1
4901784	163	C	12/21/2019	10:46	-132.660	43.629	0	110.20	0	10.0020	0	34.6550	8	26.685	0	109.290	0	241.8	4	87.8	4	-1E+10	1	-1E+10	1	-1E+10	1	-1E+10	1	-1E+10	1	-1E+10	1
4901784	163	C	12/21/2019	10:46	-132.660	43.629	0	112.00	0	9.9730	0	34.6770	8	26.707	0	111.075	0	240.7	4	87.4	4	-1E+10	1	-1E+10	1	-1E+10	1	-1E+10	1	-1E+10	1	-1E+10	1
4901784	163	C	12/21/2019	10:46	-132.660	43.629	0	114.70	0	9.7150	0	34.6840	8	26.756	0	113.752	0	240.3	4	86.8	4	-1E+10	1	-1E+10	1	-1E+10	1	-1E+10	1	-1E+10	1	-1E+10	1
4901784	163	C	12/21/2019	10:46	-132.660	43.629	0	117.80	0	9.6250	0	34.7010	8	26.784	0	116.825	0	239.1	4	86.2	4	-1E+10	1	-1E+10	1	-1E+10	1	-1E+10	1	-1E+10	1	-1E+10	1
4901784	163	C	12/21/2019	10:46	-132.660	43.629	0	120.40	0	9.5640	0	34.7230	8	26.812	0	119.403	0	237.3	4	85.4	4	-1E+10	1	-1E+10	1	-1E+10	1	-1E+10	1	-1E+10	1	-1E+10	1
4901784	163	C	12/21/2019	10:46	-132.660	43.629	0	122.70	0	9.5300	0	34.7320	8	26.824	0	121.683	0	235.9	4	84.9	4	-1E+10	1	-1E+10	1	-1E+10	1	-1E+10	1	-1E+10	1	-1E+10	1
4901784	163	C	12/21/2019	10:46	-132.660	43.629	0	124.90	0	9.4730	0	34.7780	8	26.870	0	123.864	0	233.6	4	84.0	4	-1E+10	1	-1E+10	1	-1E+10	1	-1E+10	1	-1E+10	1	-1E+10	1
4901784	163	C	12/21/2019	10:46	-132.660	43.629	0	127.90	0	9.4780	0	34.8420	8	26.919	0	126.839	0	231.3	4	83.2	4	-1E+10	1	-1E+10	1	-1E+10	1	-1E+10	1	-1E+10	1	-1E+10	1
4901784	163	C	12/21/2019	10:46	-132.660	43.629	0	130.10	0	9.4850	0	34.8700	8	26.940	0	129.020	0	229.2	4	82.5	4	-1E+10	1	-1E+10	1	-1E+10	1	-1E+10	1	-1E+10	1	-1E+10	1
4901784	163	C	12/21/2019	10:46	-132.660	43.629	0	132.40	0	9.4370	0	34.8900	8	26.964	0	131.300	0	227.4	4	81.7	4	-1E+10	1	-1E+10	1	-1E+10	1	-1E+10	1	-1E+10	1	-1E+10	1
4901784	163	C	12/21/2019	10:46	-132.660	43.629	0	134.90	0	9.3870	0	34.9300	8	27.003	0	133.778	0	225.5	4	81.0	4	-1E+10	1	-1E+10	1	-1E+10	1	-1E+10	1	-1E+10	1	-1E+10	1
4901784	163	C	12/21/2019	10:46	-132.660	43.629	0	137.40	0	9.2200	0	35.0090	8	27.092	0	136.257	0	223.9	4	80.2	4	-1E+10	1	-1E+10	1	-1E+10	1	-1E+10	1	-1E+10	1	-1E+10	1
4901784	163	C	12/21/2019	10:46	-132.660	43.629	0	140.10	0	9.0910	0	35.0330	8	27.132	0	138.933	0	223.0	4	79.7	4	-1E+10	1	-1E+10	1	-1E+10	1	-1E+10	1	-1E+10	1	-1E+10	1
4901784	163	C	12/21/2019	10:46	-132.660	43.629	0	142.80	0	8.9980	0	35.0730	8	27.179	0	141.610	0	221.8	4	79.1	4	-1E+10	1	-1E+10	1	-1E+10	1	-1E+10	1	-1E+10	1	-1E+10	1
4901784	163	C	12/21/2019	10:46	-132.660	43.629	0	145.60	0	8.8660	0	35.1210	8	27.237	0	144.385	0	220.9	4	78.6	4	-1E+10	1	-1E+10	1	-1E+10	1	-1E+10	1	-1E+10	1	-1E+10	1
4901784	163	C	12/21/2019	10:46	-132.660	43.629	0	147.90	0	8.8100	0	35.1430	8	27.264	0	146.665	0	220.0	4	78.2	4	-1E+10	1	-1E+10	1	-1E+10	1	-1E+10	1	-1E+10	1	-1E+10	1
4901784	163	C	12/21/2019	10:46	-132.660	43.629	0	150.40	0	8.7220	0	35.1850	8	27.310	0	149.144	0	218.8	4	77.6	4	-1E+10	1	-1E+10	1	-1E+10	1	-1E+10	1	-1E+10	1	-1E+10	1
4901784	163	C	12/21/2019	10:46	-132.660	43.629	0	152.50	0	8.5990	0	35.2410	8	27.374	0	151.225	0	218.0	4	77.1	4	-1E+10	1	-1E+10	1	-1E+10	1	-1E+10	1	-1E+10	1	-1E+10	1
4901784	163	C	12/21/2019	10:46	-132.660	43.629	0	154.70	0	8.5240	0	35.2660	8	27.405	0	153.406	0	217.2	4	76.7	4	-1E+10	1	-1E+10	1	-1E+10	1	-1E+10	1	-1E+10	1	-1E+10	1
4901784	163	C	12/21/2019	10:46	-132.660	43.629	0	157.70	0	8.4580	0	35.2930	8	27.437	0	156.380	0	216.2	4	76.3	4	-1E+10	1	-1E+10	1	-1E+10	1	-1E+10	1	-1E+10	1	-1E+10	1
4901784	163	C	12/21/2019	10:46	-132.660	43.629	0	160.00	0	8.3850	0	35.3370	8	27.483	0	158.660	0	215.3	4	75.9	4	-1E+10	1	-1E+10	1	-1E+10	1	-1E+10	1	-1E+10	1	-1E+10	1
4901784	163	C	12/21/2019	10:46	-132.660	43.629	0	162.40	0	8.2500	0	35.4020	8	27.554	0	161.039	0	214.7	4	75.5	4	-1E+10	1	-1E+10	1	-1E+10	1	-1E+10	1	-1E+10	1	-1E+10	1
4901784	163	C	12/21/2019	10:46	-132.660	43.629	0	164.80	0	8.2190	0	35.4300	8	27.581	0	163.418	0	213.8	4	75.1	4	-1E+10	1	-1E+10	1	-1E+10	1	-1E+10	1	-1E+10	1	-1E+10	1
4901784	163	C	12/21/2019	10:46	-132.660	43.629	0	167.40	0	8.1860	0	35.4800	8	27.626	0	165.995	0	213.2	4	74.9	4	-1E+10	1	-1E+10	1	-1E+10	1	-1E+10	1	-1E+10	1	-1E+10	1
4901784	163	C	12/21/2019	10:46	-132.660	43.629	0	169.90	0	8.1780	0	35.4910	8	27.636	0	168.473	0	212.5	4	74.6	4	-1E+10	1	-1E+10	1	-1E+10	1	-1E+10	1	-1E+10	1	-1E+10	1
4901784	163	C	12/21/2019	10:46	-132.660	43.629	0	172.40	0	8.1420	0	35.5190	8	27.663	0	170.951	0	211.7	4	74.3	4	-1E+10	1	-1E+10	1	-1E+10	1	-1E+10	1	-1E+10	1	-1E+10	1
4901784	163	C	12/21/2019	10:46	-132.660	43.629	0	174.80	0	8.1140	0	35.5530	8	27.694	0	173.330	0	210.7	4	73.9	4	-1E+10	1	-1E+10	1	-1E+10	1	-1E+10	1	-1E+10	1	-1E+10	1
4901784	163	C	12/21/2019	10:46	-132.660	43.629	0	177.30	0	8.1130	0	35.5760	8	27.712	0	175.808	0	209.7	4	73.6	4	-1E+10	1	-1E+10	1	-1E+10	1	-1E+10	1	-1E+10	1	-1E+10	1
4901784	163	C	12/21/2019	10:46	-132.660	43.629	0	179.80	0	8.0890	0	35.6170	8	27.748	0	178.285	0	208.7	4	73.2	4	-1E+10	1	-1E+10	1	-1E+10	1	-1E+10	1	-1E+10	1	-1E+10	1
4901784	163	C	12/21/2019	10:46	-132.660	43.629	0	182.40	0	8.0640	0	35.6310	8	27.763	0	180.862	0	207.6	4	72.8	4	-1E+10	1	-1E+10	1	-1E+10	1	-1E+10	1	-1E+10	1	-1E+10	1
4901784	163	C	12/21/2019	10:46	-132.660	43.629	0	185.00	0	8.0540	0	35.6410	8	27.773	0	183.439	0	206.1	4	72.3	4	-1E+10	1	-1E+10	1	-1E+10	1	-1E+10	1	-1E+10	1	-1E+10	1
4901784	163	C	12/21/2019	10:46	-132.660	43.629	0	187.50	0	8.0220	0	35.7220	8	27.841	0	185.917	0	204.1	4	71.5	4	-1E+10	1	-1E+10	1	-1E+10	1	-1E+10	1	-1E+10	1	-1E+10	1
4901784	163	C	12/21/2019	10:46	-132.660	43.629	0	190.20	0	8.0210	0	35.7690	8	27.878	0	188.593	0	202.4	4	71.0	4	-1E+10	1	-1E+10	1	-1E+10	1	-1E+10	1	-1E+10	1	-1E+10	1
4901784	163	C	12/21/2019	10:46	-132.660	43.629	0	192.80	0	8.0160	0	35.8060	8	27.908	0	191.170	0	200.1	4	70.2	4	-1E+10	1	-1E+10	1	-1E+10	1	-1E+10	1	-1E+10	1	-1E+10	1
4901784	163	C	12/21/2019	10:46	-132.660	43.629	0	195.50	0	8.0240	0	35.8650	8	27.953	0	193.846	0	198.1	4	69.5	4	-1E+10	1	-1E+10	1	-1E+10	1	-1E+10	1	-1E+10	1	-1E+10	1
4901784	163	C	12/21/2019	10:46	-132.660	43.629	0	197.30	0	8.0250	0	35.8960	8	27.978	0	195.630	0	196.9	4	69.1	4	-1E+10	1	-1E+10	1	-1E+10	1	-1E+10	1	-1E+10	1	-1E+10	1
4901784	163	C	12/21/2019	10:46	-132.660	43.629	0	200.00	0	8.0200	0	35.8980	8	27.980	0	198.306	0	195.1	4	68.5	4	-1E+10	1	-1E+10	1	-1E+10	1	-1E+10	1	-1E+10	1	-1E+10	1
4901784	163	C	12/21/2019	10:46	-132.660	43.629	0	202.80	0	8.0220	0	35.9080	8	27.987	0	201.080	0	192.8	4	67.7	4	-1E+10	1	-1E+10	1	-1E+10	1	-1E+10	1	-1E+10	1	-1E+10	1
4901784	163	C	12/21/2019	10:46	-132.660	43.629	0	204.70	0	8.0320	0	35.9380	8	28.010	0	202.963	0	191.3	4	67.2	4	-1E+10	1	-1E+10	1	-1E+10	1	-1E+10	1	-1E+10	1	-1E+10	1
4901784	163	C	12/21/2019	10:46	-132.660	43.629	0	207.50	0	8.0480	0	35.9860	8	28.045	0	205.738	0	188.8	4	66.3	4	-1E+10	1	-1E+10	1	-1E+10	1	-1E+10	1	-1E+10	1	-1E+10	1
4901784	163	C	12/21/2019	10:46	-132.660	43.629	0	209.90	0	8.0610	0	36.0090	8	28.061	0	208.117	0	187.1	4	65.8	4	-1E+10	1	-1E+10	1	-1E+10	1	-1E+10	1	-1E+10	1	-1E+10	1
4901784	163	C	12/21/2019	10:46	-132.660	43.629	0	212.20	0	8.0670	0	36.0170	8	28.066	0	210.396	0	186.2	4	65.5	4	-1E+10	1	-1E+10	1	-1E+10	1	-1E+10	1	-1E+10	1	-1E+10	1
4901784	163	C	12/21/2019	10:46	-132.660	43.629	0	214.60	0	8.0710	0	36.0390	8	28.083	0	212.774	0	184.8	4	65.0	4	-1E+10	1	-1E+10	1	-1E+10	1	-1E+10	1	-1E+10	1	-1E+10	1
4901784	163	C	12/21/2019	10:46	-132.660	43.629	0	217.80	0	8.0810	0	36.0610	8	28.099	0	215.945	0	182.4	4	64.2	4	-1E+10	1	-1E+10	1	-1E+10	1	-1E+10	1	-1E+10	1	-1E+10	1
4901784	163	C	12/21/2019	10:46	-132.660	43.629	0	220.20	0	8.0900	0	36.0770	8	28.110	0	218.324	0	180.6	4	63.6	4	-1E+10	1	-1E+10	1	-1E+10	1	-1E+10	1	-1E+10	1	-1E+10	1
4901784	163	C	12/21/2019	10:46	-132.660	43.629	0	222.70	0	8.0910	0	36.0820	8	28.114	0	220.801	0	179.0	4	63.0	4	-1E+10	1	-1E+10	1	-1E+10	1	-1E+10	1	-1E+10	1	-1E+10	1
4901784	163	C	12/21/2019	10:46	-132.660	43.629	0	225.10	0	8.0880	0	36.0970	8	28.126	0	223.179	0	176.8	4	62.3	4	-1E+10	1	-1E+10	1	-1E+10	1	-1E+10	1	-1E+10	1	-1E+10	1
4901784	163	C	12/21/2019	10:46	-132.660	43.629	0	227.60	0	8.0860	0	36.1220	8	28.146	0	225.657	0	175.1	4	61.6	4	-1E+10	1	-1E+10	1	-1E+10	1	-1E+10	1	-1E+10	1	-1E+10	1
4901784	163	C	12/21/2019	10:46	-132.660	43.629	0	230.00	0	8.0800	0	36.1330	8	28.156	0	228.035	0	173.9	4	61.2	4	-1E+10	1	-1E+10	1	-1E+10	1	-1E+10	1	-1E+10	1	-1E+10	1
4901784	163	C	12/21/2019	10:46	-132.660	43.629	0	232.50	0	8.0810	0	36.1360	8	28.158	0	230.512	0	173.3	4	61.0	4	-1E+10	1	-1E+10	1	-1E+10	1	-1E+10	1	-1E+10	1	-1E+10	1
4901784	163	C	12/21/2019	10:46	-132.660	43.629	0	234.90	0	8.0810	0	36.1370	8	28.159	0	232.890	0	172.7	4	60.8	4	-1E+10	1	-1E+10	1	-1E+10	1	-1E+10	1	-1E+10	1	-1E+10	1
4901784	163	C	12/21/2019	10:46	-132.660	43.629	0	237.40	0	8.0780	0	36.1400	8	28.162	0	235.367	0	171.9	4	60.5	4	-1E+10	1	-1E+10	1	-1E+10	1	-1E+10	1	-1E+10	1	-1E+10	1
4901784	163	C	12/21/2019	10:46	-132.660	43.629	0	239.90	0	8.0740	0	36.1430	8	28.165	0	237.845	0	171.0	4	60.2	4	-1E+10	1	-1E+10	1	-1E+10	1	-1E+10	1	-1E+10	1	-1E+10	1
4901784	163	C	12/21/2019	10:46	-132.660	43.629	0	242.40	0	8.0700	0	36.1450	8	28.167	0	240.322	0	169.8	4	59.8	4	-1E+10	1	-1E+10	1	-1E+10	1	-1E+10	1	-1E+10	1	-1E+10	1
4901784	163	C	12/21/2019	10:46	-132.660	43.629	0	244.90	0	8.0600	0	36.1480	8	28.171	0	242.799	0	168.5	4	59.3	4	-1E+10	1	-1E+10	1	-1E+10	1	-1E+10	1	-1E+10	1	-1E+10	1
4901784	163	C	12/21/2019	10:46	-132.660	43.629	0	247.40	0	8.0220	0	36.1630	8	28.189	0	245.276	0	167.2	4	58.8	4	-1E+10	1	-1E+10	1	-1E+10	1	-1E+10	1	-1E+10	1	-1E+10	1
4901784	163	C	12/21/2019	10:46	-132.660	43.629	0	249.90	0	7.9970	0	36.1690	8	28.197	0	247.753	0	166.3	4	58.5	4	-1E+10	1	-1E+10	1	-1E+10	1	-1E+10	1	-1E+10	1	-1E+10	1
4901784	163	C	12/21/2019	10:46	-132.660	43.629	0	252.60	0	7.9240	0	36.1800	8	28.217	0	250.428	0	165.6	4	58.1	4	-1E+10	1	-1E+10	1	-1E+10	1	-1E+10	1	-1E+10	1	-1E+10	1
4901784	163	C	12/21/2019	10:46	-132.660	43.629	0	255.10	0	7.8540	0	36.1830	8	28.230	0	252.905	0	165.1	4	57.9	4	-1E+10	1	-1E+10	1	-1E+10	1	-1E+10	1	-1E+10	1	-1E+10	1
4901784	163	C	12/21/2019	10:46	-132.660	43.629	0	257.70	0	7.8250	0	36.1850	8	28.236	0	255.481	0	164.8	4	57.7	4	-1E+10	1	-1E+10	1	-1E+10	1	-1E+10	1	-1E+10	1	-1E+10	1
4901784	163	C	12/21/2019	10:46	-132.660	43.629	0	260.30	0	7.7860	0	36.1870	8	28.243	0	258.057	0	163.8	4	57.3	4	-1E+10	1	-1E+10	1	-1E+10	1	-1E+10	1	-1E+10	1	-1E+10	1
4901784	163	C	12/21/2019	10:46	-132.660	43.629	0	262.00	0	7.7710	0	36.1870	8	28.246	0	259.741	0	163.0	4	57.0	4	-1E+10	1	-1E+10	1	-1E+10	1	-1E+10	1	-1E+10	1	-1E+10	1
4901784	163	C	12/21/2019	10:46	-132.660	43.629	0	264.70	0	7.7480	0	36.1860	8	28.248	0	262.416	0	161.7	4	56.5	4	-1E+10	1	-1E+10	1	-1E+10	1	-1E+10	1	-1E+10	1	-1E+10	1
4901784	163	C	12/21/2019	10:46	-132.660	43.629	0	267.30	0	7.7120	0	36.1820	8	28.251	0	264.992	0	160.3	4	56.0	4	-1E+10	1	-1E+10	1	-1E+10	1	-1E+10	1	-1E+10	1	-1E+10	1
4901784	163	C	12/21/2019	10:46	-132.660	43.629	0	270.00	0	7.6330	0	36.1860	8	28.266	0	267.667	0	160.1	4	55.8	4	-1E+10	1	-1E+10	1	-1E+10	1	-1E+10	1	-1E+10	1	-1E+10	1
4901784	163	C	12/21/2019	10:46	-132.660	43.629	0	272.70	0	7.6040	0	36.1870	8	28.271	0	270.342	0	160.2	4	55.8	4	-1E+10	1	-1E+10	1	-1E+10	1	-1E+10	1	-1E+10	1	-1E+10	1
4901784	163	C	12/21/2019	10:46	-132.660	43.629	0	274.50	0	7.5930	0	36.1890	8	28.274	0	272.125	0	160.4	4	55.9	4	-1E+10	1	-1E+10	1	-1E+10	1	-1E+10	1	-1E+10	1	-1E+10	1
4901784	163	C	12/21/2019	10:46	-132.660	43.629	0	277.20	0	7.5750	0	36.1900	8	28.278	0	274.800	0	160.2	4	55.8	4	-1E+10	1	-1E+10	1	-1E+10	1	-1E+10	1	-1E+10	1	-1E+10	1
4901784	163	C	12/21/2019	10:46	-132.660	43.629	0	279.90	0	7.5620	0	36.1900	8	28.279	0	277.475	0	159.7	4	55.6	4	-1E+10	1	-1E+10	1	-1E+10	1	-1E+10	1	-1E+10	1	-1E+10	1
4901784	163	C	12/21/2019	10:46	-132.660	43.629	0	282.50	0	7.5430	0	36.1900	8	28.282	0	280.051	0	158.9	4	55.3	4	-1E+10	1	-1E+10	1	-1E+10	1	-1E+10	1	-1E+10	1	-1E+10	1
4901784	163	C	12/21/2019	10:46	-132.660	43.629	0	285.30	0	7.5340	0	36.1870	8	28.281	0	282.825	0	157.9	4	54.9	4	-1E+10	1	-1E+10	1	-1E+10	1	-1E+10	1	-1E+10	1	-1E+10	1
4901784	163	C	12/21/2019	10:46	-132.660	43.629	0	287.10	0	7.5050	0	36.1900	8	28.288	0	284.608	0	156.8	4	54.5	4	-1E+10	1	-1E+10	1	-1E+10	1	-1E+10	1	-1E+10	1	-1E+10	1
4901784	163	C	12/21/2019	10:46	-132.660	43.629	0	289.90	0	7.4460	0	36.1850	8	28.293	0	287.381	0	155.5	4	54.0	4	-1E+10	1	-1E+10	1	-1E+10	1	-1E+10	1	-1E+10	1	-1E+10	1
4901784	163	C	12/21/2019	10:46	-132.660	43.629	0	292.70	0	7.3850	0	36.1840	8	28.301	0	290.155	0	153.9	4	53.4	4	-1E+10	1	-1E+10	1	-1E+10	1	-1E+10	1	-1E+10	1	-1E+10	1
4901784	163	C	12/21/2019	10:46	-132.660	43.629	0	294.40	0	7.3350	0	36.1840	8	28.308	0	291.839	0	152.7	4	52.9	4	-1E+10	1	-1E+10	1	-1E+10	1	-1E+10	1	-1E+10	1	-1E+10	1
4901784	163	C	12/21/2019	10:46	-132.660	43.629	0	297.20	0	7.2860	0	36.1830	8	28.315	0	294.613	0	150.6	4	52.1	4	-1E+10	1	-1E+10	1	-1E+10	1	-1E+10	1	-1E+10	1	-1E+10	1
4901784	163	C	12/21/2019	10:46	-132.660	43.629	0	299.90	0	7.2180	0	36.1830	8	28.324	0	297.287	0	148.5	4	51.3	4	-1E+10	1	-1E+10	1	-1E+10	1	-1E+10	1	-1E+10	1	-1E+10	1
4901784	163	C	12/21/2019	10:46	-132.660	43.629	0	302.70	0	7.1560	0	36.1810	8	28.332	0	300.061	0	146.7	4	50.6	4	-1E+10	1	-1E+10	1	-1E+10	1	-1E+10	1	-1E+10	1	-1E+10	1
4901784	163	C	12/21/2019	10:46	-132.660	43.629	0	305.40	0	7.1010	0	36.1780	8	28.337	0	302.736	0	144.5	4	49.8	4	-1E+10	1	-1E+10	1	-1E+10	1	-1E+10	1	-1E+10	1	-1E+10	1
4901784	163	C	12/21/2019	10:46	-132.660	43.629	0	307.30	0	7.0290	0	36.1790	8	28.348	0	304.618	0	143.1	4	49.2	4	-1E+10	1	-1E+10	1	-1E+10	1	-1E+10	1	-1E+10	1	-1E+10	1
4901784	163	C	12/21/2019	10:46	-132.660	43.629	0	310.20	0	6.9420	0	36.1830	8	28.364	0	307.490	0	140.5	4	48.2	4	-1E+10	1	-1E+10	1	-1E+10	1	-1E+10	1	-1E+10	1	-1E+10	1
4901784	163	C	12/21/2019	10:46	-132.660	43.629	0	312.90	0	6.8970	0	36.1830	8	28.370	0	310.164	0	138.7	4	47.6	4	-1E+10	1	-1E+10	1	-1E+10	1	-1E+10	1	-1E+10	1	-1E+10	1
4901784	163	C	12/21/2019	10:46	-132.660	43.629	0	314.80	0	6.8820	0	36.1820	8	28.372	0	312.046	0	137.3	4	47.1	4	-1E+10	1	-1E+10	1	-1E+10	1	-1E+10	1	-1E+10	1	-1E+10	1
4901784	163	C	12/21/2019	10:46	-132.660	43.629	0	317.60	0	6.8370	0	36.1830	8	28.379	0	314.820	0	134.8	4	46.2	4	-1E+10	1	-1E+10	1	-1E+10	1	-1E+10	1	-1E+10	1	-1E+10	1
4901784	163	C	12/21/2019	10:46	-132.660	43.629	0	320.40	0	6.8090	0	36.1810	8	28.381	0	317.593	0	132.4	4	45.3	4	-1E+10	1	-1E+10	1	-1E+10	1	-1E+10	1	-1E+10	1	-1E+10	1
4901784	163	C	12/21/2019	10:46	-132.660	43.629	0	322.30	0	6.7710	0	36.1840	8	28.389	0	319.475	0	130.7	4	44.7	4	-1E+10	1	-1E+10	1	-1E+10	1	-1E+10	1	-1E+10	1	-1E+10	1
4901784	163	C	12/21/2019	10:46	-132.660	43.629	0	324.70	0	6.7520	0	36.1810	8	28.389	0	321.852	0	128.6	4	43.9	4	-1E+10	1	-1E+10	1	-1E+10	1	-1E+10	1	-1E+10	1	-1E+10	1
4901784	163	C	12/21/2019	10:46	-132.660	43.629	0	327.40	0	6.6970	0	36.1830	8	28.398	0	324.526	0	125.4	4	42.8	4	-1E+10	1	-1E+10	1	-1E+10	1	-1E+10	1	-1E+10	1	-1E+10	1
4901784	163	C	12/21/2019	10:46	-132.660	43.629	0	329.90	0	6.6430	0	36.1830	8	28.406	0	327.002	0	124.1	4	42.3	4	-1E+10	1	-1E+10	1	-1E+10	1	-1E+10	1	-1E+10	1	-1E+10	1
4901784	163	C	12/21/2019	10:46	-132.660	43.629	0	332.40	0	6.6150	0	36.1830	8	28.410	0	329.478	0	123.3	4	42.0	4	-1E+10	1	-1E+10	1	-1E+10	1	-1E+10	1	-1E+10	1	-1E+10	1
4901784	163	C	12/21/2019	10:46	-132.660	43.629	0	334.70	0	6.5730	0	36.1830	8	28.416	0	331.756	0	122.7	4	41.8	4	-1E+10	1	-1E+10	1	-1E+10	1	-1E+10	1	-1E+10	1	-1E+10	1
4901784	163	C	12/21/2019	10:46	-132.660	43.629	0	337.20	0	6.5300	0	36.1850	8	28.423	0	334.232	0	121.3	4	41.2	4	-1E+10	1	-1E+10	1	-1E+10	1	-1E+10	1	-1E+10	1	-1E+10	1
4901784	163	C	12/21/2019	10:46	-132.660	43.629	0	339.70	0	6.4950	0	36.1850	8	28.428	0	336.708	0	119.4	4	40.6	4	-1E+10	1	-1E+10	1	-1E+10	1	-1E+10	1	-1E+10	1	-1E+10	1
4901784	163	C	12/21/2019	10:46	-132.660	43.629	0	342.10	0	6.4710	0	36.1840	8	28.430	0	339.085	0	117.0	4	39.7	4	-1E+10	1	-1E+10	1	-1E+10	1	-1E+10	1	-1E+10	1	-1E+10	1
4901784	163	C	12/21/2019	10:46	-132.660	43.629	0	344.60	0	6.4280	0	36.1850	8	28.437	0	341.561	0	114.5	4	38.9	4	-1E+10	1	-1E+10	1	-1E+10	1	-1E+10	1	-1E+10	1	-1E+10	1
4901784	163	C	12/21/2019	10:46	-132.660	43.629	0	347.20	0	6.3840	0	36.1880	8	28.445	0	344.136	0	111.9	4	37.9	4	-1E+10	1	-1E+10	1	-1E+10	1	-1E+10	1	-1E+10	1	-1E+10	1
4901784	163	C	12/21/2019	10:46	-132.660	43.629	0	349.80	0	6.3660	0	36.1870	8	28.447	0	346.711	0	109.5	4	37.1	4	-1E+10	1	-1E+10	1	-1E+10	1	-1E+10	1	-1E+10	1	-1E+10	1
4901784	163	C	12/21/2019	10:46	-132.660	43.629	0	352.40	0	6.3190	0	36.1890	8	28.455	0	349.286	0	107.2	4	36.3	4	-1E+10	1	-1E+10	1	-1E+10	1	-1E+10	1	-1E+10	1	-1E+10	1
4901784	163	C	12/21/2019	10:46	-132.660	43.629	0	355.10	0	6.2800	0	36.1900	8	28.461	0	351.960	0	106.1	4	35.9	4	-1E+10	1	-1E+10	1	-1E+10	1	-1E+10	1	-1E+10	1	-1E+10	1
4901784	163	C	12/21/2019	10:46	-132.660	43.629	0	357.70	0	6.2510	0	36.1900	8	28.465	0	354.535	0	105.7	4	35.7	4	-1E+10	1	-1E+10	1	-1E+10	1	-1E+10	1	-1E+10	1	-1E+10	1
4901784	163	C	12/21/2019	10:46	-132.660	43.629	0	360.30	0	6.2310	0	36.1880	8	28.466	0	357.109	0	105.1	4	35.5	4	-1E+10	1	-1E+10	1	-1E+10	1	-1E+10	1	-1E+10	1	-1E+10	1
4901784	163	C	12/21/2019	10:46	-132.660	43.629	0	362.90	0	6.1730	0	36.1890	8	28.475	0	359.684	0	104.5	4	35.3	4	-1E+10	1	-1E+10	1	-1E+10	1	-1E+10	1	-1E+10	1	-1E+10	1
4901784	163	C	12/21/2019	10:46	-132.660	43.629	0	365.50	0	6.1480	0	36.1880	8	28.477	0	362.259	0	103.9	4	35.0	4	-1E+10	1	-1E+10	1	-1E+10	1	-1E+10	1	-1E+10	1	-1E+10	1
4901784	163	C	12/21/2019	10:46	-132.660	43.629	0	367.30	0	6.1300	0	36.1860	8	28.478	0	364.041	0	103.2	4	34.8	4	-1E+10	1	-1E+10	1	-1E+10	1	-1E+10	1	-1E+10	1	-1E+10	1
4901784	163	C	12/21/2019	10:46	-132.660	43.629	0	369.90	0	6.0730	0	36.1860	8	28.485	0	366.616	0	102.3	4	34.4	4	-1E+10	1	-1E+10	1	-1E+10	1	-1E+10	1	-1E+10	1	-1E+10	1
4901784	163	C	12/21/2019	10:46	-132.660	43.629	0	372.60	0	6.0340	0	36.1850	8	28.490	0	369.289	0	101.2	4	34.0	4	-1E+10	1	-1E+10	1	-1E+10	1	-1E+10	1	-1E+10	1	-1E+10	1
4901784	163	C	12/21/2019	10:46	-132.660	43.629	0	375.20	0	5.9710	0	36.1860	8	28.499	0	371.864	0	100.0	4	33.6	4	-1E+10	1	-1E+10	1	-1E+10	1	-1E+10	1	-1E+10	1	-1E+10	1
4901784	163	C	12/21/2019	10:46	-132.660	43.629	0	377.90	0	5.9260	0	36.1850	8	28.504	0	374.537	0	98.8	4	33.2	4	-1E+10	1	-1E+10	1	-1E+10	1	-1E+10	1	-1E+10	1	-1E+10	1
4901784	163	C	12/21/2019	10:46	-132.660	43.629	0	379.70	0	5.8870	0	36.1860	8	28.510	0	376.320	0	97.9	4	32.8	4	-1E+10	1	-1E+10	1	-1E+10	1	-1E+10	1	-1E+10	1	-1E+10	1
4901784	163	C	12/21/2019	10:46	-132.660	43.629	0	382.30	0	5.8270	0	36.1880	8	28.519	0	378.894	0	96.7	4	32.4	4	-1E+10	1	-1E+10	1	-1E+10	1	-1E+10	1	-1E+10	1	-1E+10	1
4901784	163	C	12/21/2019	10:46	-132.660	43.629	0	385.10	0	5.8220	0	36.1880	8	28.520	0	381.667	0	95.5	4	31.9	4	-1E+10	1	-1E+10	1	-1E+10	1	-1E+10	1	-1E+10	1	-1E+10	1
4901784	163	C	12/21/2019	10:46	-132.660	43.629	0	387.00	0	5.7810	0	36.1890	8	28.526	0	383.548	0	94.8	4	31.7	4	-1E+10	1	-1E+10	1	-1E+10	1	-1E+10	1	-1E+10	1	-1E+10	1
4901784	163	C	12/21/2019	10:46	-132.660	43.629	0	389.70	0	5.7440	0	36.1880	8	28.530	0	386.222	0	93.8	4	31.3	4	-1E+10	1	-1E+10	1	-1E+10	1	-1E+10	1	-1E+10	1	-1E+10	1
4901784	163	C	12/21/2019	10:46	-132.660	43.629	0	392.50	0	5.7150	0	36.1860	8	28.532	0	388.994	0	92.6	4	30.9	4	-1E+10	1	-1E+10	1	-1E+10	1	-1E+10	1	-1E+10	1	-1E+10	1
4901784	163	C	12/21/2019	10:46	-132.660	43.629	0	395.20	0	5.6490	0	36.1880	8	28.542	0	391.667	0	91.3	4	30.4	4	-1E+10	1	-1E+10	1	-1E+10	1	-1E+10	1	-1E+10	1	-1E+10	1
4901784	163	C	12/21/2019	10:46	-132.660	43.629	0	398.00	0	5.5880	0	36.1890	8	28.550	0	394.440	0	90.2	4	30.0	4	-1E+10	1	-1E+10	1	-1E+10	1	-1E+10	1	-1E+10	1	-1E+10	1
4901784	163	C	12/21/2019	10:46	-132.660	43.629	0	399.80	0	5.5590	0	36.1890	8	28.554	0	396.222	0	89.1	4	29.6	4	-1E+10	1	-1E+10	1	-1E+10	1	-1E+10	1	-1E+10	1	-1E+10	1
4901784	163	C	12/21/2019	10:46	-132.660	43.629	0	402.50	0	5.5070	0	36.1920	8	28.563	0	398.895	0	87.7	4	29.1	4	-1E+10	1	-1E+10	1	-1E+10	1	-1E+10	1	-1E+10	1	-1E+10	1
4901784	163	C	12/21/2019	10:46	-132.660	43.629	0	405.20	0	5.4720	0	36.1940	8	28.569	0	401.568	0	86.6	4	28.8	4	-1E+10	1	-1E+10	1	-1E+10	1	-1E+10	1	-1E+10	1	-1E+10	1
4901784	163	C	12/21/2019	10:46	-132.660	43.629	0	407.00	0	5.4310	0	36.1970	8	28.577	0	403.350	0	86.3	4	28.6	4	-1E+10	1	-1E+10	1	-1E+10	1	-1E+10	1	-1E+10	1	-1E+10	1
4901784	163	C	12/21/2019	10:46	-132.660	43.629	0	409.70	0	5.4230	0	36.1960	8	28.577	0	406.023	0	85.6	4	28.4	4	-1E+10	1	-1E+10	1	-1E+10	1	-1E+10	1	-1E+10	1	-1E+10	1
4901784	163	C	12/21/2019	10:46	-132.660	43.629	0	412.40	0	5.4060	0	36.1940	8	28.577	0	408.697	0	84.6	4	28.0	4	-1E+10	1	-1E+10	1	-1E+10	1	-1E+10	1	-1E+10	1	-1E+10	1
4901784	163	C	12/21/2019	10:46	-132.660	43.629	0	415.20	0	5.3580	0	36.1960	8	28.585	0	411.469	0	83.3	4	27.6	4	-1E+10	1	-1E+10	1	-1E+10	1	-1E+10	1	-1E+10	1	-1E+10	1
4901784	163	C	12/21/2019	10:46	-132.660	43.629	0	417.90	0	5.3220	0	36.1990	8	28.592	0	414.142	0	82.1	4	27.1	4	-1E+10	1	-1E+10	1	-1E+10	1	-1E+10	1	-1E+10	1	-1E+10	1
4901784	163	C	12/21/2019	10:46	-132.660	43.629	0	419.80	0	5.2940	0	36.2010	8	28.597	0	416.023	0	81.3	4	26.9	4	-1E+10	1	-1E+10	1	-1E+10	1	-1E+10	1	-1E+10	1	-1E+10	1
4901784	163	C	12/21/2019	10:46	-132.660	43.629	0	422.50	0	5.2750	0	36.2020	8	28.600	0	418.696	0	80.4	4	26.6	4	-1E+10	1	-1E+10	1	-1E+10	1	-1E+10	1	-1E+10	1	-1E+10	1
4901784	163	C	12/21/2019	10:46	-132.660	43.629	0	425.20	0	5.2390	0	36.2040	8	28.606	0	421.369	0	79.7	4	26.3	4	-1E+10	1	-1E+10	1	-1E+10	1	-1E+10	1	-1E+10	1	-1E+10	1
4901784	163	C	12/21/2019	10:46	-132.660	43.629	0	427.00	0	5.2240	0	36.2050	8	28.609	0	423.151	0	79.1	4	26.1	4	-1E+10	1	-1E+10	1	-1E+10	1	-1E+10	1	-1E+10	1	-1E+10	1
4901784	163	C	12/21/2019	10:46	-132.660	43.629	0	429.70	0	5.2020	0	36.2080	8	28.614	0	425.823	0	78.3	4	25.8	4	-1E+10	1	-1E+10	1	-1E+10	1	-1E+10	1	-1E+10	1	-1E+10	1
4901784	163	C	12/21/2019	10:46	-132.660	43.629	0	432.40	0	5.1870	0	36.2090	8	28.616	0	428.496	0	77.7	4	25.6	4	-1E+10	1	-1E+10	1	-1E+10	1	-1E+10	1	-1E+10	1	-1E+10	1
4901784	163	C	12/21/2019	10:46	-132.660	43.629	0	435.10	0	5.1720	0	36.2100	8	28.619	0	431.169	0	76.8	4	25.3	4	-1E+10	1	-1E+10	1	-1E+10	1	-1E+10	1	-1E+10	1	-1E+10	1
4901784	163	C	12/21/2019	10:46	-132.660	43.629	0	437.80	0	5.1420	0	36.2120	8	28.624	0	433.842	0	76.1	4	25.1	4	-1E+10	1	-1E+10	1	-1E+10	1	-1E+10	1	-1E+10	1	-1E+10	1
4901784	163	C	12/21/2019	10:46	-132.660	43.629	0	439.60	0	5.1300	0	36.2120	8	28.626	0	435.624	0	75.5	4	24.9	4	-1E+10	1	-1E+10	1	-1E+10	1	-1E+10	1	-1E+10	1	-1E+10	1
4901784	163	C	12/21/2019	10:46	-132.660	43.629	0	442.40	0	5.0980	0	36.2150	8	28.632	0	438.395	0	74.5	4	24.5	4	-1E+10	1	-1E+10	1	-1E+10	1	-1E+10	1	-1E+10	1	-1E+10	1
4901784	163	C	12/21/2019	10:46	-132.660	43.629	0	445.20	0	5.0690	0	36.2190	8	28.639	0	441.167	0	73.7	4	24.2	4	-1E+10	1	-1E+10	1	-1E+10	1	-1E+10	1	-1E+10	1	-1E+10	1
4901784	163	C	12/21/2019	10:46	-132.660	43.629	0	447.00	0	5.0530	0	36.2200	8	28.641	0	442.949	0	73.2	4	24.1	4	-1E+10	1	-1E+10	1	-1E+10	1	-1E+10	1	-1E+10	1	-1E+10	1
4901784	163	C	12/21/2019	10:46	-132.660	43.629	0	449.70	0	5.0450	0	36.2210	8	28.643	0	445.622	0	72.2	4	23.7	4	-1E+10	1	-1E+10	1	-1E+10	1	-1E+10	1	-1E+10	1	-1E+10	1
4901784	163	C	12/21/2019	10:46	-132.660	43.629	0	452.40	0	5.0390	0	36.2220	8	28.645	0	448.294	0	71.1	4	23.4	4	-1E+10	1	-1E+10	1	-1E+10	1	-1E+10	1	-1E+10	1	-1E+10	1
4901784	163	C	12/21/2019	10:46	-132.660	43.629	0	455.10	0	5.0150	0	36.2280	8	28.652	0	450.967	0	70.1	4	23.0	4	-1E+10	1	-1E+10	1	-1E+10	1	-1E+10	1	-1E+10	1	-1E+10	1
4901784	163	C	12/21/2019	10:46	-132.660	43.629	0	457.70	0	5.0030	0	36.2300	8	28.655	0	453.540	0	69.3	4	22.8	4	-1E+10	1	-1E+10	1	-1E+10	1	-1E+10	1	-1E+10	1	-1E+10	1
4901784	163	C	12/21/2019	10:46	-132.660	43.629	0	459.50	0	4.9760	0	36.2310	8	28.659	0	455.322	0	68.8	4	22.6	4	-1E+10	1	-1E+10	1	-1E+10	1	-1E+10	1	-1E+10	1	-1E+10	1
4901784	163	C	12/21/2019	10:46	-132.660	43.629	0	462.30	0	4.9580	0	36.2340	8	28.664	0	458.093	0	68.1	4	22.4	4	-1E+10	1	-1E+10	1	-1E+10	1	-1E+10	1	-1E+10	1	-1E+10	1
4901784	163	C	12/21/2019	10:46	-132.660	43.629	0	464.90	0	4.9440	0	36.2360	8	28.667	0	460.667	0	67.4	4	22.1	4	-1E+10	1	-1E+10	1	-1E+10	1	-1E+10	1	-1E+10	1	-1E+10	1
4901784	163	C	12/21/2019	10:46	-132.660	43.629	0	467.60	0	4.9330	0	36.2380	8	28.670	0	463.339	0	66.6	4	21.8	4	-1E+10	1	-1E+10	1	-1E+10	1	-1E+10	1	-1E+10	1	-1E+10	1
4901784	163	C	12/21/2019	10:46	-132.660	43.629	0	470.30	0	4.9110	0	36.2400	8	28.674	0	466.012	0	65.7	4	21.5	4	-1E+10	1	-1E+10	1	-1E+10	1	-1E+10	1	-1E+10	1	-1E+10	1
4901784	163	C	12/21/2019	10:46	-132.660	43.629	0	472.10	0	4.9020	0	36.2410	8	28.676	0	467.793	0	65.1	4	21.3	4	-1E+10	1	-1E+10	1	-1E+10	1	-1E+10	1	-1E+10	1	-1E+10	1
4901784	163	C	12/21/2019	10:46	-132.660	43.629	0	474.80	0	4.8840	0	36.2450	8	28.681	0	470.465	0	64.1	4	21.0	4	-1E+10	1	-1E+10	1	-1E+10	1	-1E+10	1	-1E+10	1	-1E+10	1
4901784	163	C	12/21/2019	10:46	-132.660	43.629	0	477.50	0	4.8660	0	36.2480	8	28.686	0	473.138	0	63.3	4	20.7	4	-1E+10	1	-1E+10	1	-1E+10	1	-1E+10	1	-1E+10	1	-1E+10	1
4901784	163	C	12/21/2019	10:46	-132.660	43.629	0	480.20	0	4.8500	0	36.2510	8	28.690	0	475.810	0	62.3	4	20.4	4	-1E+10	1	-1E+10	1	-1E+10	1	-1E+10	1	-1E+10	1	-1E+10	1
4901784	163	C	12/21/2019	10:46	-132.660	43.629	0	482.90	0	4.8330	0	36.2540	8	28.695	0	478.482	0	61.3	4	20.1	4	-1E+10	1	-1E+10	1	-1E+10	1	-1E+10	1	-1E+10	1	-1E+10	1
4901784	163	C	12/21/2019	10:46	-132.660	43.629	0	484.80	0	4.8260	0	36.2530	8	28.695	0	480.363	0	60.5	4	19.8	4	-1E+10	1	-1E+10	1	-1E+10	1	-1E+10	1	-1E+10	1	-1E+10	1
4901784	163	C	12/21/2019	10:46	-132.660	43.629	0	487.40	0	4.7980	0	36.2630	8	28.706	0	482.936	0	59.0	4	19.3	4	-1E+10	1	-1E+10	1	-1E+10	1	-1E+10	1	-1E+10	1	-1E+10	1
4901784	163	C	12/21/2019	10:46	-132.660	43.629	0	490.10	0	4.7880	0	36.2660	8	28.710	0	485.608	0	58.1	4	19.0	4	-1E+10	1	-1E+10	1	-1E+10	1	-1E+10	1	-1E+10	1	-1E+10	1
4901784	163	C	12/21/2019	10:46	-132.660	43.629	0	492.80	0	4.7790	0	36.2690	8	28.713	0	488.280	0	57.2	4	18.7	4	-1E+10	1	-1E+10	1	-1E+10	1	-1E+10	1	-1E+10	1	-1E+10	1
4901784	163	C	12/21/2019	10:46	-132.660	43.629	0	495.50	0	4.7600	0	36.2730	8	28.718	0	490.952	0	56.0	4	18.3	4	-1E+10	1	-1E+10	1	-1E+10	1	-1E+10	1	-1E+10	1	-1E+10	1
4901784	163	C	12/21/2019	10:46	-132.660	43.629	0	497.30	0	4.7540	0	36.2750	8	28.721	0	492.733	0	55.3	4	18.1	4	-1E+10	1	-1E+10	1	-1E+10	1	-1E+10	1	-1E+10	1	-1E+10	1
4901784	163	C	12/21/2019	10:46	-132.660	43.629	0	500.00	0	4.7450	0	36.2790	8	28.725	0	495.405	0	54.2	4	17.7	4	-1E+10	1	-1E+10	1	-1E+10	1	-1E+10	1	-1E+10	1	-1E+10	1
4901784	163	C	12/21/2019	10:46	-132.660	43.629	0	504.60	0	4.7230	0	36.2860	8	28.733	0	499.958	0	52.4	4	17.1	4	-1E+10	1	-1E+10	1	-1E+10	1	-1E+10	1	-1E+10	1	-1E+10	1
4901784	163	C	12/21/2019	10:46	-132.660	43.629	0	510.10	0	4.6950	0	36.2950	8	28.744	0	505.400	0	50.2	4	16.4	4	-1E+10	1	-1E+10	1	-1E+10	1	-1E+10	1	-1E+10	1	-1E+10	1
4901784	163	C	12/21/2019	10:46	-132.660	43.629	0	515.50	0	4.6800	0	36.3030	8	28.752	0	510.744	0	47.6	4	15.5	4	-1E+10	1	-1E+10	1	-1E+10	1	-1E+10	1	-1E+10	1	-1E+10	1
4901784	163	C	12/21/2019	10:46	-132.660	43.629	0	520.10	0	4.6740	0	36.3150	8	28.762	0	515.296	0	45.6	4	14.9	4	-1E+10	1	-1E+10	1	-1E+10	1	-1E+10	1	-1E+10	1	-1E+10	1
4901784	163	C	12/21/2019	10:46	-132.660	43.629	0	524.80	0	4.6620	0	36.3180	8	28.766	0	519.946	0	44.5	4	14.5	4	-1E+10	1	-1E+10	1	-1E+10	1	-1E+10	1	-1E+10	1	-1E+10	1
4901784	163	C	12/21/2019	10:46	-132.660	43.629	0	530.40	0	4.6380	0	36.3250	8	28.774	0	525.488	0	43.0	4	14.0	4	-1E+10	1	-1E+10	1	-1E+10	1	-1E+10	1	-1E+10	1	-1E+10	1
4901784	163	C	12/21/2019	10:46	-132.660	43.629	0	535.10	0	4.6180	0	36.3310	8	28.781	0	530.138	0	42.0	4	13.7	4	-1E+10	1	-1E+10	1	-1E+10	1	-1E+10	1	-1E+10	1	-1E+10	1
4901784	163	C	12/21/2019	10:46	-132.660	43.629	0	539.90	0	4.6150	0	36.3330	8	28.783	0	534.887	0	40.8	4	13.3	4	-1E+10	1	-1E+10	1	-1E+10	1	-1E+10	1	-1E+10	1	-1E+10	1
4901784	163	C	12/21/2019	10:46	-132.660	43.629	0	545.50	0	4.6140	0	36.3430	8	28.791	0	540.428	0	38.8	4	12.6	4	-1E+10	1	-1E+10	1	-1E+10	1	-1E+10	1	-1E+10	1	-1E+10	1
4901784	163	C	12/21/2019	10:46	-132.660	43.629	0	550.20	0	4.6130	0	36.3470	8	28.795	0	545.078	0	37.8	4	12.3	4	-1E+10	1	-1E+10	1	-1E+10	1	-1E+10	1	-1E+10	1	-1E+10	1
4901784	163	C	12/21/2019	10:46	-132.660	43.629	0	554.90	0	4.5950	0	36.3530	8	28.802	0	549.728	0	36.8	4	12.0	4	-1E+10	1	-1E+10	1	-1E+10	1	-1E+10	1	-1E+10	1	-1E+10	1
4901784	163	C	12/21/2019	10:46	-132.660	43.629	0	559.60	0	4.5790	0	36.3570	8	28.807	0	554.378	0	36.0	4	11.7	4	-1E+10	1	-1E+10	1	-1E+10	1	-1E+10	1	-1E+10	1	-1E+10	1
4901784	163	C	12/21/2019	10:46	-132.660	43.629	0	564.30	0	4.5720	0	36.3610	8	28.811	0	559.028	0	35.3	4	11.5	4	-1E+10	1	-1E+10	1	-1E+10	1	-1E+10	1	-1E+10	1	-1E+10	1
4901784	163	C	12/21/2019	10:46	-132.660	43.629	0	569.70	0	4.5440	0	36.3640	8	28.816	0	564.370	0	34.6	4	11.2	4	-1E+10	1	-1E+10	1	-1E+10	1	-1E+10	1	-1E+10	1	-1E+10	1
4901784	163	C	12/21/2019	10:46	-132.660	43.629	0	574.50	0	4.5020	0	36.3690	8	28.825	0	569.119	0	33.9	4	11.0	4	-1E+10	1	-1E+10	1	-1E+10	1	-1E+10	1	-1E+10	1	-1E+10	1
4901784	163	C	12/21/2019	10:46	-132.660	43.629	0	579.30	0	4.4910	0	36.3720	8	28.829	0	573.867	0	32.8	4	10.7	4	-1E+10	1	-1E+10	1	-1E+10	1	-1E+10	1	-1E+10	1	-1E+10	1
4901784	163	C	12/21/2019	10:46	-132.660	43.629	0	585.00	0	4.4720	0	36.3810	8	28.838	0	579.506	0	31.6	4	10.3	4	-1E+10	1	-1E+10	1	-1E+10	1	-1E+10	1	-1E+10	1	-1E+10	1
4901784	163	C	12/21/2019	10:46	-132.660	43.629	0	590.80	0	4.4610	0	36.3840	8	28.842	0	585.243	0	31.0	4	10.0	4	-1E+10	1	-1E+10	1	-1E+10	1	-1E+10	1	-1E+10	1	-1E+10	1
4901784	163	C	12/21/2019	10:46	-132.660	43.629	0	595.60	0	4.4330	0	36.3880	8	28.848	0	589.991	0	30.1	4	9.8	4	-1E+10	1	-1E+10	1	-1E+10	1	-1E+10	1	-1E+10	1	-1E+10	1
4901784	163	C	12/21/2019	10:46	-132.660	43.629	0	600.60	0	4.4160	0	36.3940	8	28.855	0	594.937	0	28.9	4	9.4	4	-1E+10	1	-1E+10	1	-1E+10	1	-1E+10	1	-1E+10	1	-1E+10	1
4901784	163	C	12/21/2019	10:46	-132.660	43.629	0	605.50	0	4.4140	0	36.4020	8	28.862	0	599.784	0	27.1	4	8.8	4	-1E+10	1	-1E+10	1	-1E+10	1	-1E+10	1	-1E+10	1	-1E+10	1
4901784	163	C	12/21/2019	10:46	-132.660	43.629	0	610.60	0	4.4290	0	36.4140	8	28.870	0	604.828	0	25.4	4	8.2	4	-1E+10	1	-1E+10	1	-1E+10	1	-1E+10	1	-1E+10	1	-1E+10	1
4901784	163	C	12/21/2019	10:46	-132.660	43.629	0	615.70	0	4.4000	0	36.4220	8	28.879	0	609.873	0	24.4	4	7.9	4	-1E+10	1	-1E+10	1	-1E+10	1	-1E+10	1	-1E+10	1	-1E+10	1
4901784	163	C	12/21/2019	10:46	-132.660	43.629	0	620.60	0	4.3840	0	36.4270	8	28.885	0	614.719	0	23.8	4	7.7	4	-1E+10	1	-1E+10	1	-1E+10	1	-1E+10	1	-1E+10	1	-1E+10	1
4901784	163	C	12/21/2019	10:46	-132.660	43.629	0	625.60	0	4.3750	0	36.4320	8	28.890	0	619.664	0	23.1	4	7.5	4	-1E+10	1	-1E+10	1	-1E+10	1	-1E+10	1	-1E+10	1	-1E+10	1
4901784	163	C	12/21/2019	10:46	-132.660	43.629	0	630.60	0	4.3740	0	36.4370	8	28.894	0	624.609	0	22.4	4	7.3	4	-1E+10	1	-1E+10	1	-1E+10	1	-1E+10	1	-1E+10	1	-1E+10	1
4901784	163	C	12/21/2019	10:46	-132.660	43.629	0	635.70	0	4.3690	0	36.4420	8	28.899	0	629.653	0	21.7	4	7.0	4	-1E+10	1	-1E+10	1	-1E+10	1	-1E+10	1	-1E+10	1	-1E+10	1
4901784	163	C	12/21/2019	10:46	-132.660	43.629	0	640.10	0	4.3680	0	36.4480	8	28.904	0	634.005	0	21.1	4	6.8	4	-1E+10	1	-1E+10	1	-1E+10	1	-1E+10	1	-1E+10	1	-1E+10	1
4901784	163	C	12/21/2019	10:46	-132.660	43.629	0	644.50	0	4.3670	0	36.4520	8	28.907	0	638.356	0	20.5	4	6.6	4	-1E+10	1	-1E+10	1	-1E+10	1	-1E+10	1	-1E+10	1	-1E+10	1
4901784	163	C	12/21/2019	10:46	-132.660	43.629	0	649.80	0	4.3560	0	36.4570	8	28.912	0	643.597	0	20.0	4	6.5	4	-1E+10	1	-1E+10	1	-1E+10	1	-1E+10	1	-1E+10	1	-1E+10	1
4901784	163	C	12/21/2019	10:46	-132.660	43.629	0	655.00	0	4.3400	0	36.4610	8	28.917	0	648.739	0	19.5	4	6.3	4	-1E+10	1	-1E+10	1	-1E+10	1	-1E+10	1	-1E+10	1	-1E+10	1
4901784	163	C	12/21/2019	10:46	-132.660	43.629	0	660.30	0	4.3130	0	36.4650	8	28.924	0	653.981	0	19.0	4	6.1	4	-1E+10	1	-1E+10	1	-1E+10	1	-1E+10	1	-1E+10	1	-1E+10	1
4901784	163	C	12/21/2019	10:46	-132.660	43.629	0	664.80	0	4.2910	0	36.4700	8	28.930	0	658.430	0	18.6	4	6.0	4	-1E+10	1	-1E+10	1	-1E+10	1	-1E+10	1	-1E+10	1	-1E+10	1
4901784	163	C	12/21/2019	10:46	-132.660	43.629	0	669.30	0	4.2820	0	36.4730	8	28.933	0	662.880	0	18.2	4	5.9	4	-1E+10	1	-1E+10	1	-1E+10	1	-1E+10	1	-1E+10	1	-1E+10	1
4901784	163	C	12/21/2019	10:46	-132.660	43.629	0	674.90	0	4.2630	0	36.4770	8	28.939	0	668.417	0	17.6	4	5.7	4	-1E+10	1	-1E+10	1	-1E+10	1	-1E+10	1	-1E+10	1	-1E+10	1
4901784	163	C	12/21/2019	10:46	-132.660	43.629	0	680.40	0	4.2410	0	36.4840	8	28.947	0	673.856	0	17.2	4	5.5	4	-1E+10	1	-1E+10	1	-1E+10	1	-1E+10	1	-1E+10	1	-1E+10	1
4901784	163	C	12/21/2019	10:46	-132.660	43.629	0	685.10	0	4.2310	0	36.4870	8	28.950	0	678.503	0	16.8	4	5.4	4	-1E+10	1	-1E+10	1	-1E+10	1	-1E+10	1	-1E+10	1	-1E+10	1
4901784	163	C	12/21/2019	10:46	-132.660	43.629	0	689.80	0	4.2110	0	36.4930	8	28.957	0	683.150	0	16.3	4	5.3	4	-1E+10	1	-1E+10	1	-1E+10	1	-1E+10	1	-1E+10	1	-1E+10	1
4901784	163	C	12/21/2019	10:46	-132.660	43.629	0	695.50	0	4.1940	0	36.4990	8	28.964	0	688.785	0	15.8	4	5.1	4	-1E+10	1	-1E+10	1	-1E+10	1	-1E+10	1	-1E+10	1	-1E+10	1
4901784	163	C	12/21/2019	10:46	-132.660	43.629	0	700.30	0	4.1790	0	36.5050	8	28.971	0	693.531	0	15.3	4	4.9	4	-1E+10	1	-1E+10	1	-1E+10	1	-1E+10	1	-1E+10	1	-1E+10	1
4901784	163	C	12/21/2019	10:46	-132.660	43.629	0	705.10	0	4.1590	0	36.5120	8	28.978	0	698.277	0	14.9	4	4.8	4	-1E+10	1	-1E+10	1	-1E+10	1	-1E+10	1	-1E+10	1	-1E+10	1
4901784	163	C	12/21/2019	10:46	-132.660	43.629	0	710.20	0	4.1410	0	36.5180	8	28.985	0	703.319	0	14.7	4	4.8	4	-1E+10	1	-1E+10	1	-1E+10	1	-1E+10	1	-1E+10	1	-1E+10	1
4901784	163	C	12/21/2019	10:46	-132.660	43.629	0	714.90	0	4.1310	0	36.5210	8	28.989	0	707.965	0	14.5	4	4.7	4	-1E+10	1	-1E+10	1	-1E+10	1	-1E+10	1	-1E+10	1	-1E+10	1
4901784	163	C	12/21/2019	10:46	-132.660	43.629	0	719.90	0	4.1210	0	36.5240	8	28.992	0	712.908	0	14.3	4	4.6	4	-1E+10	1	-1E+10	1	-1E+10	1	-1E+10	1	-1E+10	1	-1E+10	1
4901784	163	C	12/21/2019	10:46	-132.660	43.629	0	724.90	0	4.1120	0	36.5290	8	28.997	0	717.851	0	14.1	4	4.5	4	-1E+10	1	-1E+10	1	-1E+10	1	-1E+10	1	-1E+10	1	-1E+10	1
4901784	163	C	12/21/2019	10:46	-132.660	43.629	0	729.80	0	4.1070	0	36.5320	8	29.000	0	722.695	0	13.9	4	4.5	4	-1E+10	1	-1E+10	1	-1E+10	1	-1E+10	1	-1E+10	1	-1E+10	1
4901784	163	C	12/21/2019	10:46	-132.660	43.629	0	734.90	0	4.1000	0	36.5350	8	29.003	0	727.736	0	13.8	4	4.4	4	-1E+10	1	-1E+10	1	-1E+10	1	-1E+10	1	-1E+10	1	-1E+10	1
4901784	163	C	12/21/2019	10:46	-132.660	43.629	0	740.10	0	4.0910	0	36.5370	8	29.006	0	732.877	0	13.7	4	4.4	4	-1E+10	1	-1E+10	1	-1E+10	1	-1E+10	1	-1E+10	1	-1E+10	1
4901784	163	C	12/21/2019	10:46	-132.660	43.629	0	745.30	0	4.0830	0	36.5380	8	29.008	0	738.017	0	13.6	4	4.4	4	-1E+10	1	-1E+10	1	-1E+10	1	-1E+10	1	-1E+10	1	-1E+10	1
4901784	163	C	12/21/2019	10:46	-132.660	43.629	0	749.80	0	4.0830	0	36.5410	8	29.010	0	742.465	0	13.5	4	4.3	4	-1E+10	1	-1E+10	1	-1E+10	1	-1E+10	1	-1E+10	1	-1E+10	1
4901784	163	C	12/21/2019	10:46	-132.660	43.629	0	754.30	0	4.0770	0	36.5440	8	29.013	0	746.913	0	13.4	4	4.3	4	-1E+10	1	-1E+10	1	-1E+10	1	-1E+10	1	-1E+10	1	-1E+10	1
4901784	163	C	12/21/2019	10:46	-132.660	43.629	0	759.70	0	4.0690	0	36.5460	8	29.016	0	752.250	0	13.3	4	4.3	4	-1E+10	1	-1E+10	1	-1E+10	1	-1E+10	1	-1E+10	1	-1E+10	1
4901784	163	C	12/21/2019	10:46	-132.660	43.629	0	765.10	0	4.0630	0	36.5470	8	29.017	0	757.587	0	13.1	4	4.2	4	-1E+10	1	-1E+10	1	-1E+10	1	-1E+10	1	-1E+10	1	-1E+10	1
4901784	163	C	12/21/2019	10:46	-132.660	43.629	0	769.80	0	4.0540	0	36.5500	8	29.021	0	762.232	0	13.0	4	4.2	4	-1E+10	1	-1E+10	1	-1E+10	1	-1E+10	1	-1E+10	1	-1E+10	1
4901784	163	C	12/21/2019	10:46	-132.660	43.629	0	774.40	0	4.0420	0	36.5540	8	29.025	0	766.779	0	12.8	4	4.1	4	-1E+10	1	-1E+10	1	-1E+10	1	-1E+10	1	-1E+10	1	-1E+10	1
4901784	163	C	12/21/2019	10:46	-132.660	43.629	0	780.10	0	4.0260	0	36.5570	8	29.029	0	772.412	0	12.7	4	4.1	4	-1E+10	1	-1E+10	1	-1E+10	1	-1E+10	1	-1E+10	1	-1E+10	1
4901784	163	C	12/21/2019	10:46	-132.660	43.629	0	784.70	0	4.0150	0	36.5610	8	29.034	0	776.958	0	12.5	4	4.0	4	-1E+10	1	-1E+10	1	-1E+10	1	-1E+10	1	-1E+10	1	-1E+10	1
4901784	163	C	12/21/2019	10:46	-132.660	43.629	0	789.40	0	4.0080	0	36.5640	8	29.037	0	781.603	0	12.4	4	4.0	4	-1E+10	1	-1E+10	1	-1E+10	1	-1E+10	1	-1E+10	1	-1E+10	1
4901784	163	C	12/21/2019	10:46	-132.660	43.629	0	795.10	0	3.9890	0	36.5690	8	29.043	0	787.236	0	12.2	4	3.9	4	-1E+10	1	-1E+10	1	-1E+10	1	-1E+10	1	-1E+10	1	-1E+10	1
4901784	163	C	12/21/2019	10:46	-132.660	43.629	0	799.90	0	3.9700	0	36.5720	8	29.048	0	791.980	0	12.2	4	3.9	4	-1E+10	1	-1E+10	1	-1E+10	1	-1E+10	1	-1E+10	1	-1E+10	1
4901784	163	C	12/21/2019	10:46	-132.660	43.629	0	805.30	0	3.9550	0	36.5750	8	29.052	0	797.316	0	12.1	4	3.9	4	-1E+10	1	-1E+10	1	-1E+10	1	-1E+10	1	-1E+10	1	-1E+10	1
4901784	163	C	12/21/2019	10:46	-132.660	43.629	0	810.30	0	3.9400	0	36.5780	8	29.056	0	802.257	0	12.0	4	3.9	4	-1E+10	1	-1E+10	1	-1E+10	1	-1E+10	1	-1E+10	1	-1E+10	1
4901784	163	C	12/21/2019	10:46	-132.660	43.629	0	815.10	0	3.9330	0	36.5800	8	29.058	0	807.000	0	11.9	4	3.8	4	-1E+10	1	-1E+10	1	-1E+10	1	-1E+10	1	-1E+10	1	-1E+10	1
4901784	163	C	12/21/2019	10:46	-132.660	43.629	0	819.80	0	3.9250	0	36.5830	8	29.061	0	811.644	0	11.8	4	3.8	4	-1E+10	1	-1E+10	1	-1E+10	1	-1E+10	1	-1E+10	1	-1E+10	1
4901784	163	C	12/21/2019	10:46	-132.660	43.629	0	824.70	0	3.9160	0	36.5860	8	29.065	0	816.486	0	11.7	4	3.8	4	-1E+10	1	-1E+10	1	-1E+10	1	-1E+10	1	-1E+10	1	-1E+10	1
4901784	163	C	12/21/2019	10:46	-132.660	43.629	0	829.60	0	3.9130	0	36.5900	8	29.068	0	821.327	0	11.6	4	3.7	4	-1E+10	1	-1E+10	1	-1E+10	1	-1E+10	1	-1E+10	1	-1E+10	1
4901784	163	C	12/21/2019	10:46	-132.660	43.629	0	834.50	0	3.9130	0	36.5940	8	29.072	0	826.169	0	11.4	4	3.7	4	-1E+10	1	-1E+10	1	-1E+10	1	-1E+10	1	-1E+10	1	-1E+10	1
4901784	163	C	12/21/2019	10:46	-132.660	43.629	0	839.50	0	3.9100	0	36.5960	8	29.073	0	831.109	0	11.3	4	3.6	4	-1E+10	1	-1E+10	1	-1E+10	1	-1E+10	1	-1E+10	1	-1E+10	1
4901784	163	C	12/21/2019	10:46	-132.660	43.629	0	844.50	0	3.9030	0	36.5980	8	29.076	0	836.049	0	11.2	4	3.6	4	-1E+10	1	-1E+10	1	-1E+10	1	-1E+10	1	-1E+10	1	-1E+10	1
4901784	163	C	12/21/2019	10:46	-132.660	43.629	0	849.40	0	3.8820	0	36.6030	8	29.082	0	840.890	0	11.2	4	3.6	4	-1E+10	1	-1E+10	1	-1E+10	1	-1E+10	1	-1E+10	1	-1E+10	1
4901784	163	C	12/21/2019	10:46	-132.660	43.629	0	854.40	0	3.8610	0	36.6030	8	29.084	0	845.830	0	11.2	4	3.6	4	-1E+10	1	-1E+10	1	-1E+10	1	-1E+10	1	-1E+10	1	-1E+10	1
4901784	163	C	12/21/2019	10:46	-132.660	43.629	0	859.30	0	3.8370	0	36.6060	8	29.089	0	850.671	0	11.1	4	3.6	4	-1E+10	1	-1E+10	1	-1E+10	1	-1E+10	1	-1E+10	1	-1E+10	1
4901784	163	C	12/21/2019	10:46	-132.660	43.629	0	864.20	0	3.8190	0	36.6100	8	29.095	0	855.511	0	11.1	4	3.5	4	-1E+10	1	-1E+10	1	-1E+10	1	-1E+10	1	-1E+10	1	-1E+10	1
4901784	163	C	12/21/2019	10:46	-132.660	43.629	0	869.30	0	3.7990	0	36.6130	8	29.099	0	860.550	0	11.0	4	3.5	4	-1E+10	1	-1E+10	1	-1E+10	1	-1E+10	1	-1E+10	1	-1E+10	1
4901784	163	C	12/21/2019	10:46	-132.660	43.629	0	874.30	0	3.7860	0	36.6180	8	29.104	0	865.489	0	10.9	4	3.5	4	-1E+10	1	-1E+10	1	-1E+10	1	-1E+10	1	-1E+10	1	-1E+10	1
4901784	163	C	12/21/2019	10:46	-132.660	43.629	0	879.40	0	3.7820	0	36.6200	8	29.107	0	870.527	0	10.8	4	3.5	4	-1E+10	1	-1E+10	1	-1E+10	1	-1E+10	1	-1E+10	1	-1E+10	1
4901784	163	C	12/21/2019	10:46	-132.660	43.629	0	884.30	0	3.7800	0	36.6230	8	29.109	0	875.367	0	10.7	4	3.4	4	-1E+10	1	-1E+10	1	-1E+10	1	-1E+10	1	-1E+10	1	-1E+10	1
4901784	163	C	12/21/2019	10:46	-132.660	43.629	0	889.20	0	3.7570	0	36.6310	8	29.118	0	880.207	0	10.6	4	3.4	4	-1E+10	1	-1E+10	1	-1E+10	1	-1E+10	1	-1E+10	1	-1E+10	1
4901784	163	C	12/21/2019	10:46	-132.660	43.629	0	894.30	0	3.7400	0	36.6340	8	29.122	0	885.245	0	10.6	4	3.4	4	-1E+10	1	-1E+10	1	-1E+10	1	-1E+10	1	-1E+10	1	-1E+10	1
4901784	163	C	12/21/2019	10:46	-132.660	43.629	0	899.40	0	3.7270	0	36.6360	8	29.125	0	890.283	0	10.6	4	3.4	4	-1E+10	1	-1E+10	1	-1E+10	1	-1E+10	1	-1E+10	1	-1E+10	1
4901784	163	C	12/21/2019	10:46	-132.660	43.629	0	904.50	0	3.7150	0	36.6400	8	29.130	0	895.320	0	10.5	4	3.4	4	-1E+10	1	-1E+10	1	-1E+10	1	-1E+10	1	-1E+10	1	-1E+10	1
4901784	163	C	12/21/2019	10:46	-132.660	43.629	0	909.60	0	3.6990	0	36.6460	8	29.136	0	900.357	0	10.5	4	3.3	4	-1E+10	1	-1E+10	1	-1E+10	1	-1E+10	1	-1E+10	1	-1E+10	1
4901784	163	C	12/21/2019	10:46	-132.660	43.629	0	914.80	0	3.6850	0	36.6490	8	29.140	0	905.493	0	10.4	4	3.3	4	-1E+10	1	-1E+10	1	-1E+10	1	-1E+10	1	-1E+10	1	-1E+10	1
4901784	163	C	12/21/2019	10:46	-132.660	43.629	0	920.00	0	3.6790	0	36.6510	8	29.142	0	910.629	0	10.4	4	3.3	4	-1E+10	1	-1E+10	1	-1E+10	1	-1E+10	1	-1E+10	1	-1E+10	1
4901784	163	C	12/21/2019	10:46	-132.660	43.629	0	925.10	0	3.6750	0	36.6560	8	29.147	0	915.666	0	10.3	4	3.3	4	-1E+10	1	-1E+10	1	-1E+10	1	-1E+10	1	-1E+10	1	-1E+10	1
4901784	163	C	12/21/2019	10:46	-132.660	43.629	0	930.40	0	3.6530	0	36.6590	8	29.152	0	920.900	0	10.3	4	3.3	4	-1E+10	1	-1E+10	1	-1E+10	1	-1E+10	1	-1E+10	1	-1E+10	1
4901784	163	C	12/21/2019	10:46	-132.660	43.629	0	935.60	0	3.6410	0	36.6610	8	29.154	0	926.035	0	10.3	4	3.3	4	-1E+10	1	-1E+10	1	-1E+10	1	-1E+10	1	-1E+10	1	-1E+10	1
4901784	163	C	12/21/2019	10:46	-132.660	43.629	0	939.90	0	3.6310	0	36.6620	8	29.156	0	930.282	0	10.3	4	3.3	4	-1E+10	1	-1E+10	1	-1E+10	1	-1E+10	1	-1E+10	1	-1E+10	1
4901784	163	C	12/21/2019	10:46	-132.660	43.629	0	944.20	0	3.5950	0	36.6700	8	29.166	0	934.528	0	10.3	4	3.3	4	-1E+10	1	-1E+10	1	-1E+10	1	-1E+10	1	-1E+10	1	-1E+10	1
4901784	163	C	12/21/2019	10:46	-132.660	43.629	0	949.50	0	3.5820	0	36.6740	8	29.171	0	939.762	0	10.3	4	3.3	4	-1E+10	1	-1E+10	1	-1E+10	1	-1E+10	1	-1E+10	1	-1E+10	1
4901784	163	C	12/21/2019	10:46	-132.660	43.629	0	954.70	0	3.5790	0	36.6740	8	29.171	0	944.897	0	10.3	4	3.3	4	-1E+10	1	-1E+10	1	-1E+10	1	-1E+10	1	-1E+10	1	-1E+10	1
4901784	163	C	12/21/2019	10:46	-132.660	43.629	0	960.00	0	3.5670	0	36.6780	8	29.176	0	950.131	0	10.3	4	3.3	4	-1E+10	1	-1E+10	1	-1E+10	1	-1E+10	1	-1E+10	1	-1E+10	1
4901784	163	C	12/21/2019	10:46	-132.660	43.629	0	965.30	0	3.5630	0	36.6790	8	29.177	0	955.364	0	10.3	4	3.3	4	-1E+10	1	-1E+10	1	-1E+10	1	-1E+10	1	-1E+10	1	-1E+10	1
4901784	163	C	12/21/2019	10:46	-132.660	43.629	0	969.90	0	3.5550	0	36.6820	8	29.180	0	959.906	0	10.3	4	3.3	4	-1E+10	1	-1E+10	1	-1E+10	1	-1E+10	1	-1E+10	1	-1E+10	1
4901784	163	C	12/21/2019	10:46	-132.660	43.629	0	974.40	0	3.5520	0	36.6840	8	29.182	0	964.350	0	10.3	4	3.3	4	-1E+10	1	-1E+10	1	-1E+10	1	-1E+10	1	-1E+10	1	-1E+10	1
4901784	163	C	12/21/2019	10:46	-132.660	43.629	0	979.80	0	3.5440	0	36.6870	8	29.186	0	969.681	0	10.3	4	3.3	4	-1E+10	1	-1E+10	1	-1E+10	1	-1E+10	1	-1E+10	1	-1E+10	1
4901784	163	C	12/21/2019	10:46	-132.660	43.629	0	985.20	0	3.5310	0	36.6910	8	29.190	0	975.013	0	10.3	4	3.3	4	-1E+10	1	-1E+10	1	-1E+10	1	-1E+10	1	-1E+10	1	-1E+10	1
4901784	163	C	12/21/2019	10:46	-132.660	43.629	0	990.60	0	3.5250	0	36.6940	8	29.193	0	980.345	0	10.3	4	3.3	4	-1E+10	1	-1E+10	1	-1E+10	1	-1E+10	1	-1E+10	1	-1E+10	1
4901784	163	C	12/21/2019	10:46	-132.660	43.629	0	995.20	0	3.5140	0	36.6950	8	29.195	0	984.886	0	10.3	4	3.3	4	-1E+10	1	-1E+10	1	-1E+10	1	-1E+10	1	-1E+10	1	-1E+10	1
4901784	163	C	12/21/2019	10:46	-132.660	43.629	0	999.70	0	3.5010	0	36.6980	8	29.199	0	989.329	0	10.3	4	3.3	4	-1E+10	1	-1E+10	1	-1E+10	1	-1E+10	1	-1E+10	1	-1E+10	1
4901784	163	C	12/21/2019	10:46	-132.660	43.629	0	1005.10	0	3.4910	0	36.7020	8	29.203	0	994.660	0	10.3	4	3.3	4	-1E+10	1	-1E+10	1	-1E+10	1	-1E+10	1	-1E+10	1	-1E+10	1
4901784	163	C	12/21/2019	10:46	-132.660	43.629	0	1010.60	0	3.4850	0	36.7040	8	29.205	0	1000.090	0	10.4	4	3.3	4	-1E+10	1	-1E+10	1	-1E+10	1	-1E+10	1	-1E+10	1	-1E+10	1
4901784	163	C	12/21/2019	10:46	-132.660	43.629	0	1015.20	0	3.4780	0	36.7060	8	29.208	0	1004.631	0	10.4	4	3.3	4	-1E+10	1	-1E+10	1	-1E+10	1	-1E+10	1	-1E+10	1	-1E+10	1
4901784	163	C	12/21/2019	10:46	-132.660	43.629	0	1019.80	0	3.4680	0	36.7090	8	29.211	0	1009.172	0	10.4	4	3.3	4	-1E+10	1	-1E+10	1	-1E+10	1	-1E+10	1	-1E+10	1	-1E+10	1
4901784	163	C	12/21/2019	10:46	-132.660	43.629	0	1025.30	0	3.4580	0	36.7120	8	29.215	0	1014.601	0	10.4	4	3.3	4	-1E+10	1	-1E+10	1	-1E+10	1	-1E+10	1	-1E+10	1	-1E+10	1
4901784	163	C	12/21/2019	10:46	-132.660	43.629	0	1030.00	0	3.4470	0	36.7150	8	29.218	0	1019.241	0	10.5	4	3.3	4	-1E+10	1	-1E+10	1	-1E+10	1	-1E+10	1	-1E+10	1	-1E+10	1
4901784	163	C	12/21/2019	10:46	-132.660	43.629	0	1034.70	0	3.4420	0	36.7170	8	29.220	0	1023.880	0	10.5	4	3.3	4	-1E+10	1	-1E+10	1	-1E+10	1	-1E+10	1	-1E+10	1	-1E+10	1
4901784	163	C	12/21/2019	10:46	-132.660	43.629	0	1040.30	0	3.4310	0	36.7200	8	29.224	0	1029.408	0	10.6	4	3.4	4	-1E+10	1	-1E+10	1	-1E+10	1	-1E+10	1	-1E+10	1	-1E+10	1
4901784	163	C	12/21/2019	10:46	-132.660	43.629	0	1044.90	0	3.4130	0	36.7230	8	29.228	0	1033.949	0	10.7	4	3.4	4	-1E+10	1	-1E+10	1	-1E+10	1	-1E+10	1	-1E+10	1	-1E+10	1
4901784	163	C	12/21/2019	10:46	-132.660	43.629	0	1049.40	0	3.3990	0	36.7270	8	29.233	0	1038.390	0	10.7	4	3.4	4	-1E+10	1	-1E+10	1	-1E+10	1	-1E+10	1	-1E+10	1	-1E+10	1
4901784	163	C	12/21/2019	10:46	-132.660	43.629	0	1055.10	0	3.3870	0	36.7310	8	29.237	0	1044.016	0	10.8	4	3.4	4	-1E+10	1	-1E+10	1	-1E+10	1	-1E+10	1	-1E+10	1	-1E+10	1
4901784	163	C	12/21/2019	10:46	-132.660	43.629	0	1059.80	0	3.3850	0	36.7310	8	29.237	0	1048.655	0	10.8	4	3.4	4	-1E+10	1	-1E+10	1	-1E+10	1	-1E+10	1	-1E+10	1	-1E+10	1
4901784	163	C	12/21/2019	10:46	-132.660	43.629	0	1064.50	0	3.3760	0	36.7340	8	29.241	0	1053.294	0	10.9	4	3.4	4	-1E+10	1	-1E+10	1	-1E+10	1	-1E+10	1	-1E+10	1	-1E+10	1
4901784	163	C	12/21/2019	10:46	-132.660	43.629	0	1070.10	0	3.3610	0	36.7380	8	29.246	0	1058.821	0	11.0	4	3.5	4	-1E+10	1	-1E+10	1	-1E+10	1	-1E+10	1	-1E+10	1	-1E+10	1
4901784	163	C	12/21/2019	10:46	-132.660	43.629	0	1075.50	0	3.3580	0	36.7390	8	29.247	0	1064.150	0	11.0	4	3.5	4	-1E+10	1	-1E+10	1	-1E+10	1	-1E+10	1	-1E+10	1	-1E+10	1
4901784	163	C	12/21/2019	10:46	-132.660	43.629	0	1080.40	0	3.3450	0	36.7430	8	29.251	0	1068.986	0	11.2	4	3.5	4	-1E+10	1	-1E+10	1	-1E+10	1	-1E+10	1	-1E+10	1	-1E+10	1
4901784	163	C	12/21/2019	10:46	-132.660	43.629	0	1085.40	0	3.3370	0	36.7470	8	29.255	0	1073.920	0	11.3	4	3.6	4	-1E+10	1	-1E+10	1	-1E+10	1	-1E+10	1	-1E+10	1	-1E+10	1
4901784	163	C	12/21/2019	10:46	-132.660	43.629	0	1090.40	0	3.3300	0	36.7490	8	29.258	0	1078.855	0	11.4	4	3.6	4	-1E+10	1	-1E+10	1	-1E+10	1	-1E+10	1	-1E+10	1	-1E+10	1
4901784	163	C	12/21/2019	10:46	-132.660	43.629	0	1095.40	0	3.3210	0	36.7520	8	29.261	0	1083.789	0	11.5	4	3.7	4	-1E+10	1	-1E+10	1	-1E+10	1	-1E+10	1	-1E+10	1	-1E+10	1
4901784	163	C	12/21/2019	10:46	-132.660	43.629	0	1100.60	0	3.3100	0	36.7550	8	29.264	0	1088.920	0	11.7	4	3.7	4	-1E+10	1	-1E+10	1	-1E+10	1	-1E+10	1	-1E+10	1	-1E+10	1
4901784	163	C	12/21/2019	10:46	-132.660	43.629	0	1105.70	0	3.2990	0	36.7580	8	29.268	0	1093.953	0	11.9	4	3.8	4	-1E+10	1	-1E+10	1	-1E+10	1	-1E+10	1	-1E+10	1	-1E+10	1
4901784	163	C	12/21/2019	10:46	-132.660	43.629	0	1110.30	0	3.2820	0	36.7630	8	29.274	0	1098.492	0	12.0	4	3.8	4	-1E+10	1	-1E+10	1	-1E+10	1	-1E+10	1	-1E+10	1	-1E+10	1
4901784	163	C	12/21/2019	10:46	-132.660	43.629	0	1115.00	0	3.2730	0	36.7650	8	29.276	0	1103.130	0	12.2	4	3.8	4	-1E+10	1	-1E+10	1	-1E+10	1	-1E+10	1	-1E+10	1	-1E+10	1
4901784	163	C	12/21/2019	10:46	-132.660	43.629	0	1119.90	0	3.2620	0	36.7670	8	29.279	0	1107.965	0	12.2	4	3.9	4	-1E+10	1	-1E+10	1	-1E+10	1	-1E+10	1	-1E+10	1	-1E+10	1
4901784	163	C	12/21/2019	10:46	-132.660	43.629	0	1124.70	0	3.2540	0	36.7680	8	29.281	0	1112.701	0	12.3	4	3.9	4	-1E+10	1	-1E+10	1	-1E+10	1	-1E+10	1	-1E+10	1	-1E+10	1
4901784	163	C	12/21/2019	10:46	-132.660	43.629	0	1130.50	0	3.2390	0	36.7710	8	29.285	0	1118.423	0	12.4	4	3.9	4	-1E+10	1	-1E+10	1	-1E+10	1	-1E+10	1	-1E+10	1	-1E+10	1
4901784	163	C	12/21/2019	10:46	-132.660	43.629	0	1135.30	0	3.2310	0	36.7730	8	29.287	0	1123.159	0	12.5	4	4.0	4	-1E+10	1	-1E+10	1	-1E+10	1	-1E+10	1	-1E+10	1	-1E+10	1
4901784	163	C	12/21/2019	10:46	-132.660	43.629	0	1140.20	0	3.2250	0	36.7740	8	29.288	0	1127.994	0	12.6	4	4.0	4	-1E+10	1	-1E+10	1	-1E+10	1	-1E+10	1	-1E+10	1	-1E+10	1
4901784	163	C	12/21/2019	10:46	-132.660	43.629	0	1145.00	0	3.2180	0	36.7760	8	29.291	0	1132.729	0	12.7	4	4.0	4	-1E+10	1	-1E+10	1	-1E+10	1	-1E+10	1	-1E+10	1	-1E+10	1
4901784	163	C	12/21/2019	10:46	-132.660	43.629	0	1149.90	0	3.2090	0	36.7780	8	29.293	0	1137.564	0	12.8	4	4.0	4	-1E+10	1	-1E+10	1	-1E+10	1	-1E+10	1	-1E+10	1	-1E+10	1
4901784	163	C	12/21/2019	10:46	-132.660	43.629	0	1154.90	0	3.2050	0	36.7780	8	29.294	0	1142.496	0	12.8	4	4.1	4	-1E+10	1	-1E+10	1	-1E+10	1	-1E+10	1	-1E+10	1	-1E+10	1
4901784	163	C	12/21/2019	10:46	-132.660	43.629	0	1159.80	0	3.1980	0	36.7800	8	29.296	0	1147.330	0	13.0	4	4.1	4	-1E+10	1	-1E+10	1	-1E+10	1	-1E+10	1	-1E+10	1	-1E+10	1
4901784	163	C	12/21/2019	10:46	-132.660	43.629	0	1164.70	0	3.1820	0	36.7830	8	29.300	0	1152.164	0	13.1	4	4.1	4	-1E+10	1	-1E+10	1	-1E+10	1	-1E+10	1	-1E+10	1	-1E+10	1
4901784	163	C	12/21/2019	10:46	-132.660	43.629	0	1169.80	0	3.1720	0	36.7840	8	29.302	0	1157.195	0	13.2	4	4.2	4	-1E+10	1	-1E+10	1	-1E+10	1	-1E+10	1	-1E+10	1	-1E+10	1
4901784	163	C	12/21/2019	10:46	-132.660	43.629	0	1174.80	0	3.1640	0	36.7860	8	29.304	0	1162.128	0	13.3	4	4.2	4	-1E+10	1	-1E+10	1	-1E+10	1	-1E+10	1	-1E+10	1	-1E+10	1
4901784	163	C	12/21/2019	10:46	-132.660	43.629	0	1179.70	0	3.1530	0	36.7880	8	29.307	0	1166.961	0	13.4	4	4.2	4	-1E+10	1	-1E+10	1	-1E+10	1	-1E+10	1	-1E+10	1	-1E+10	1
4901784	163	C	12/21/2019	10:46	-132.660	43.629	0	1184.80	0	3.1510	0	36.7880	8	29.307	0	1171.992	0	13.4	4	4.2	4	-1E+10	1	-1E+10	1	-1E+10	1	-1E+10	1	-1E+10	1	-1E+10	1
4901784	163	C	12/21/2019	10:46	-132.660	43.629	0	1189.90	0	3.1440	0	36.7950	8	29.314	0	1177.023	0	13.5	4	4.3	4	-1E+10	1	-1E+10	1	-1E+10	1	-1E+10	1	-1E+10	1	-1E+10	1
4901784	163	C	12/21/2019	10:46	-132.660	43.629	0	1194.90	0	3.1380	0	36.7960	8	29.315	0	1181.954	0	13.6	4	4.3	4	-1E+10	1	-1E+10	1	-1E+10	1	-1E+10	1	-1E+10	1	-1E+10	1
4901784	163	C	12/21/2019	10:46	-132.660	43.629	0	1199.90	0	3.1310	0	36.7970	8	29.316	0	1186.886	0	13.7	4	4.3	4	-1E+10	1	-1E+10	1	-1E+10	1	-1E+10	1	-1E+10	1	-1E+10	1
4901784	163	C	12/21/2019	10:46	-132.660	43.629	0	1205.10	0	3.1190	0	36.7990	8	29.319	0	1192.015	0	13.8	4	4.4	4	-1E+10	1	-1E+10	1	-1E+10	1	-1E+10	1	-1E+10	1	-1E+10	1
4901784	163	C	12/21/2019	10:46	-132.660	43.629	0	1210.20	0	3.1090	0	36.8000	8	29.321	0	1197.045	0	13.9	4	4.4	4	-1E+10	1	-1E+10	1	-1E+10	1	-1E+10	1	-1E+10	1	-1E+10	1
4901784	163	C	12/21/2019	10:46	-132.660	43.629	0	1215.20	0	3.0980	0	36.8020	8	29.324	0	1201.976	0	14.0	4	4.4	4	-1E+10	1	-1E+10	1	-1E+10	1	-1E+10	1	-1E+10	1	-1E+10	1
4901784	163	C	12/21/2019	10:46	-132.660	43.629	0	1220.30	0	3.0920	0	36.8030	8	29.325	0	1207.006	0	14.1	4	4.4	4	-1E+10	1	-1E+10	1	-1E+10	1	-1E+10	1	-1E+10	1	-1E+10	1
4901784	163	C	12/21/2019	10:46	-132.660	43.629	0	1225.40	0	3.0830	0	36.8040	8	29.327	0	1212.036	0	14.2	4	4.5	4	-1E+10	1	-1E+10	1	-1E+10	1	-1E+10	1	-1E+10	1	-1E+10	1
4901784	163	C	12/21/2019	10:46	-132.660	43.629	0	1229.50	0	3.0720	0	36.8060	8	29.330	0	1216.080	0	14.3	4	4.5	4	-1E+10	1	-1E+10	1	-1E+10	1	-1E+10	1	-1E+10	1	-1E+10	1
4901784	163	C	12/21/2019	10:46	-132.660	43.629	0	1234.70	0	3.0620	0	36.8070	8	29.331	0	1221.208	0	14.4	4	4.5	4	-1E+10	1	-1E+10	1	-1E+10	1	-1E+10	1	-1E+10	1	-1E+10	1
4901784	163	C	12/21/2019	10:46	-132.660	43.629	0	1239.80	0	3.0540	0	36.8090	8	29.334	0	1226.237	0	14.6	4	4.6	4	-1E+10	1	-1E+10	1	-1E+10	1	-1E+10	1	-1E+10	1	-1E+10	1
4901784	163	C	12/21/2019	10:46	-132.660	43.629	0	1244.90	0	3.0440	0	36.8100	8	29.336	0	1231.266	0	14.7	4	4.6	4	-1E+10	1	-1E+10	1	-1E+10	1	-1E+10	1	-1E+10	1	-1E+10	1
4901784	163	C	12/21/2019	10:46	-132.660	43.629	0	1249.90	0	3.0300	0	36.8120	8	29.339	0	1236.197	0	14.8	4	4.7	4	-1E+10	1	-1E+10	1	-1E+10	1	-1E+10	1	-1E+10	1	-1E+10	1
4901784	163	C	12/21/2019	10:46	-132.660	43.629	0	1254.80	0	3.0210	0	36.8130	8	29.340	0	1241.029	0	15.0	4	4.7	4	-1E+10	1	-1E+10	1	-1E+10	1	-1E+10	1	-1E+10	1	-1E+10	1
4901784	163	C	12/21/2019	10:46	-132.660	43.629	0	1260.60	0	3.0070	0	36.8150	8	29.343	0	1246.748	0	15.2	4	4.8	4	-1E+10	1	-1E+10	1	-1E+10	1	-1E+10	1	-1E+10	1	-1E+10	1
4901784	163	C	12/21/2019	10:46	-132.660	43.629	0	1265.40	0	2.9940	0	36.8160	8	29.345	0	1251.481	0	15.4	4	4.8	4	-1E+10	1	-1E+10	1	-1E+10	1	-1E+10	1	-1E+10	1	-1E+10	1
4901784	163	C	12/21/2019	10:46	-132.660	43.629	0	1269.90	0	2.9770	0	36.8190	8	29.350	0	1255.918	0	15.5	4	4.9	4	-1E+10	1	-1E+10	1	-1E+10	1	-1E+10	1	-1E+10	1	-1E+10	1
4901784	163	C	12/21/2019	10:46	-132.660	43.629	0	1274.90	0	2.9630	0	36.8210	8	29.352	0	1260.848	0	15.7	4	4.9	4	-1E+10	1	-1E+10	1	-1E+10	1	-1E+10	1	-1E+10	1	-1E+10	1
4901784	163	C	12/21/2019	10:46	-132.660	43.629	0	1279.80	0	2.9530	0	36.8220	8	29.354	0	1265.679	0	15.8	4	5.0	4	-1E+10	1	-1E+10	1	-1E+10	1	-1E+10	1	-1E+10	1	-1E+10	1
4901784	163	C	12/21/2019	10:46	-132.660	43.629	0	1284.60	0	2.9410	0	36.8240	8	29.357	0	1270.412	0	16.0	4	5.0	4	-1E+10	1	-1E+10	1	-1E+10	1	-1E+10	1	-1E+10	1	-1E+10	1
4901784	163	C	12/21/2019	10:46	-132.660	43.629	0	1289.50	0	2.9310	0	36.8260	8	29.360	0	1275.243	0	16.2	4	5.1	4	-1E+10	1	-1E+10	1	-1E+10	1	-1E+10	1	-1E+10	1	-1E+10	1
4901784	163	C	12/21/2019	10:46	-132.660	43.629	0	1294.40	0	2.9200	0	36.8270	8	29.362	0	1280.074	0	16.3	4	5.1	4	-1E+10	1	-1E+10	1	-1E+10	1	-1E+10	1	-1E+10	1	-1E+10	1
4901784	163	C	12/21/2019	10:46	-132.660	43.629	0	1299.40	0	2.9040	0	36.8290	8	29.365	0	1285.003	0	16.5	4	5.2	4	-1E+10	1	-1E+10	1	-1E+10	1	-1E+10	1	-1E+10	1	-1E+10	1
4901784	163	C	12/21/2019	10:46	-132.660	43.629	0	1304.40	0	2.8950	0	36.8300	8	29.366	0	1289.933	0	16.6	4	5.2	4	-1E+10	1	-1E+10	1	-1E+10	1	-1E+10	1	-1E+10	1	-1E+10	1
4901784	163	C	12/21/2019	10:46	-132.660	43.629	0	1309.40	0	2.8830	0	36.8320	8	29.369	0	1294.862	0	16.8	4	5.3	4	-1E+10	1	-1E+10	1	-1E+10	1	-1E+10	1	-1E+10	1	-1E+10	1
4901784	163	C	12/21/2019	10:46	-132.660	43.629	0	1314.50	0	2.8790	0	36.8330	8	29.370	0	1299.889	0	16.9	4	5.3	4	-1E+10	1	-1E+10	1	-1E+10	1	-1E+10	1	-1E+10	1	-1E+10	1
4901784	163	C	12/21/2019	10:46	-132.660	43.629	0	1319.50	0	2.8770	0	36.8330	8	29.371	0	1304.818	0	17.0	4	5.3	4	-1E+10	1	-1E+10	1	-1E+10	1	-1E+10	1	-1E+10	1	-1E+10	1
4901784	163	C	12/21/2019	10:46	-132.660	43.629	0	1324.60	0	2.8690	0	36.8340	8	29.372	0	1309.846	0	17.2	4	5.4	4	-1E+10	1	-1E+10	1	-1E+10	1	-1E+10	1	-1E+10	1	-1E+10	1
4901784	163	C	12/21/2019	10:46	-132.660	43.629	0	1329.50	0	2.8530	0	36.8380	8	29.377	0	1314.676	0	17.4	4	5.5	4	-1E+10	1	-1E+10	1	-1E+10	1	-1E+10	1	-1E+10	1	-1E+10	1
4901784	163	C	12/21/2019	10:46	-132.660	43.629	0	1334.60	0	2.8480	0	36.8380	8	29.377	0	1319.703	0	17.6	4	5.5	4	-1E+10	1	-1E+10	1	-1E+10	1	-1E+10	1	-1E+10	1	-1E+10	1
4901784	163	C	12/21/2019	10:46	-132.660	43.629	0	1339.70	0	2.8370	0	36.8400	8	29.380	0	1324.730	0	17.8	4	5.6	4	-1E+10	1	-1E+10	1	-1E+10	1	-1E+10	1	-1E+10	1	-1E+10	1
4901784	163	C	12/21/2019	10:46	-132.660	43.629	0	1344.90	0	2.8270	0	36.8420	8	29.383	0	1329.856	0	18.1	4	5.7	4	-1E+10	1	-1E+10	1	-1E+10	1	-1E+10	1	-1E+10	1	-1E+10	1
4901784	163	C	12/21/2019	10:46	-132.660	43.629	0	1350.00	0	2.8190	0	36.8420	8	29.383	0	1334.882	0	18.4	4	5.7	4	-1E+10	1	-1E+10	1	-1E+10	1	-1E+10	1	-1E+10	1	-1E+10	1
4901784	163	C	12/21/2019	10:46	-132.660	43.629	0	1355.20	0	2.7980	0	36.8460	8	29.389	0	1340.008	0	18.7	4	5.8	4	-1E+10	1	-1E+10	1	-1E+10	1	-1E+10	1	-1E+10	1	-1E+10	1
4901784	163	C	12/21/2019	10:46	-132.660	43.629	0	1360.40	0	2.7920	0	36.8480	8	29.391	0	1345.133	0	18.8	4	5.9	4	-1E+10	1	-1E+10	1	-1E+10	1	-1E+10	1	-1E+10	1	-1E+10	1
4901784	163	C	12/21/2019	10:46	-132.660	43.629	0	1365.60	0	2.7900	0	36.8480	8	29.391	0	1350.258	0	18.9	4	5.9	4	-1E+10	1	-1E+10	1	-1E+10	1	-1E+10	1	-1E+10	1	-1E+10	1
4901784	163	C	12/21/2019	10:46	-132.660	43.629	0	1369.90	0	2.7860	0	36.8480	8	29.392	0	1354.496	0	19.1	4	6.0	4	-1E+10	1	-1E+10	1	-1E+10	1	-1E+10	1	-1E+10	1	-1E+10	1
4901784	163	C	12/21/2019	10:46	-132.660	43.629	0	1374.30	0	2.7750	0	36.8500	8	29.394	0	1358.832	0	19.4	4	6.1	4	-1E+10	1	-1E+10	1	-1E+10	1	-1E+10	1	-1E+10	1	-1E+10	1
4901784	163	C	12/21/2019	10:46	-132.660	43.629	0	1379.50	0	2.7600	0	36.8530	8	29.398	0	1363.957	0	19.8	4	6.2	4	-1E+10	1	-1E+10	1	-1E+10	1	-1E+10	1	-1E+10	1	-1E+10	1
4901784	163	C	12/21/2019	10:46	-132.660	43.629	0	1384.70	0	2.7440	0	36.8550	8	29.401	0	1369.081	0	20.1	4	6.3	4	-1E+10	1	-1E+10	1	-1E+10	1	-1E+10	1	-1E+10	1	-1E+10	1
4901784	163	C	12/21/2019	10:46	-132.660	43.629	0	1390.00	0	2.7340	0	36.8570	8	29.404	0	1374.304	0	20.3	4	6.3	4	-1E+10	1	-1E+10	1	-1E+10	1	-1E+10	1	-1E+10	1	-1E+10	1
4901784	163	C	12/21/2019	10:46	-132.660	43.629	0	1395.40	0	2.7260	0	36.8590	8	29.406	0	1379.626	0	20.4	4	6.4	4	-1E+10	1	-1E+10	1	-1E+10	1	-1E+10	1	-1E+10	1	-1E+10	1
4901784	163	C	12/21/2019	10:46	-132.660	43.629	0	1400.00	0	2.7250	0	36.8590	8	29.406	0	1384.159	0	20.5	4	6.4	4	-1E+10	1	-1E+10	1	-1E+10	1	-1E+10	1	-1E+10	1	-1E+10	1
4901784	163	C	12/21/2019	10:46	-132.660	43.629	0	1404.60	0	2.7230	0	36.8590	8	29.406	0	1388.691	0	20.7	4	6.5	4	-1E+10	1	-1E+10	1	-1E+10	1	-1E+10	1	-1E+10	1	-1E+10	1
4901784	163	C	12/21/2019	10:46	-132.660	43.629	0	1410.20	0	2.7120	0	36.8610	8	29.409	0	1394.209	0	20.9	4	6.5	4	-1E+10	1	-1E+10	1	-1E+10	1	-1E+10	1	-1E+10	1	-1E+10	1
4901784	163	C	12/21/2019	10:46	-132.660	43.629	0	1414.90	0	2.7060	0	36.8620	8	29.410	0	1398.841	0	21.1	4	6.6	4	-1E+10	1	-1E+10	1	-1E+10	1	-1E+10	1	-1E+10	1	-1E+10	1
4901784	163	C	12/21/2019	10:46	-132.660	43.629	0	1419.70	0	2.6990	0	36.8630	8	29.412	0	1403.570	0	21.4	4	6.7	4	-1E+10	1	-1E+10	1	-1E+10	1	-1E+10	1	-1E+10	1	-1E+10	1
4901784	163	C	12/21/2019	10:46	-132.660	43.629	0	1424.90	0	2.6870	0	36.8650	8	29.415	0	1408.694	0	21.7	4	6.8	4	-1E+10	1	-1E+10	1	-1E+10	1	-1E+10	1	-1E+10	1	-1E+10	1
4901784	163	C	12/21/2019	10:46	-132.660	43.629	0	1429.70	0	2.6750	0	36.8670	8	29.417	0	1413.423	0	22.0	4	6.9	4	-1E+10	1	-1E+10	1	-1E+10	1	-1E+10	1	-1E+10	1	-1E+10	1
4901784	163	C	12/21/2019	10:46	-132.660	43.629	0	1434.60	0	2.6690	0	36.8680	8	29.419	0	1418.251	0	22.2	4	6.9	4	-1E+10	1	-1E+10	1	-1E+10	1	-1E+10	1	-1E+10	1	-1E+10	1
4901784	163	C	12/21/2019	10:46	-132.660	43.629	0	1439.40	0	2.6620	0	36.8690	8	29.420	0	1422.980	0	22.4	4	7.0	4	-1E+10	1	-1E+10	1	-1E+10	1	-1E+10	1	-1E+10	1	-1E+10	1
4901784	163	C	12/21/2019	10:46	-132.660	43.629	0	1445.00	0	2.6550	0	36.8710	8	29.423	0	1428.497	0	22.7	4	7.1	4	-1E+10	1	-1E+10	1	-1E+10	1	-1E+10	1	-1E+10	1	-1E+10	1
4901784	163	C	12/21/2019	10:46	-132.660	43.629	0	1450.70	0	2.6450	0	36.8720	8	29.424	0	1434.113	0	23.1	4	7.2	4	-1E+10	1	-1E+10	1	-1E+10	1	-1E+10	1	-1E+10	1	-1E+10	1
4901784	163	C	12/21/2019	10:46	-132.660	43.629	0	1455.60	0	2.6320	0	36.8740	8	29.427	0	1438.940	0	23.5	4	7.3	4	-1E+10	1	-1E+10	1	-1E+10	1	-1E+10	1	-1E+10	1	-1E+10	1
4901784	163	C	12/21/2019	10:46	-132.660	43.629	0	1460.60	0	2.6160	0	36.8770	8	29.431	0	1443.866	0	23.7	4	7.4	4	-1E+10	1	-1E+10	1	-1E+10	1	-1E+10	1	-1E+10	1	-1E+10	1
4901784	163	C	12/21/2019	10:46	-132.660	43.629	0	1465.60	0	2.6160	0	36.8770	8	29.431	0	1448.791	0	23.7	4	7.4	4	-1E+10	1	-1E+10	1	-1E+10	1	-1E+10	1	-1E+10	1	-1E+10	1
4901784	163	C	12/21/2019	10:46	-132.660	43.629	0	1470.70	0	2.6150	0	36.8780	8	29.432	0	1453.815	0	23.8	4	7.4	4	-1E+10	1	-1E+10	1	-1E+10	1	-1E+10	1	-1E+10	1	-1E+10	1
4901784	163	C	12/21/2019	10:46	-132.660	43.629	0	1475.70	0	2.6160	0	36.8780	8	29.432	0	1458.741	0	23.8	4	7.4	4	-1E+10	1	-1E+10	1	-1E+10	1	-1E+10	1	-1E+10	1	-1E+10	1
4901784	163	C	12/21/2019	10:46	-132.660	43.629	0	1480.70	0	2.6140	0	36.8780	8	29.432	0	1463.666	0	24.0	4	7.5	4	-1E+10	1	-1E+10	1	-1E+10	1	-1E+10	1	-1E+10	1	-1E+10	1
4901784	163	C	12/21/2019	10:46	-132.660	43.629	0	1485.00	0	2.6120	0	36.8780	8	29.432	0	1467.901	0	24.1	4	7.5	4	-1E+10	1	-1E+10	1	-1E+10	1	-1E+10	1	-1E+10	1	-1E+10	1
4901784	163	C	12/21/2019	10:46	-132.660	43.629	0	1489.20	0	2.6100	0	36.8780	8	29.433	0	1472.038	0	24.5	4	7.6	4	-1E+10	1	-1E+10	1	-1E+10	1	-1E+10	1	-1E+10	1	-1E+10	1
4901784	163	C	12/21/2019	10:46	-132.660	43.629	0	1494.30	0	2.5890	0	36.8810	8	29.437	0	1477.062	0	25.0	4	7.8	4	-1E+10	1	-1E+10	1	-1E+10	1	-1E+10	1	-1E+10	1	-1E+10	1
4901784	163	C	12/21/2019	10:46	-132.660	43.629	0	1499.40	0	2.5800	0	36.8830	8	29.439	0	1482.085	0	25.3	4	7.9	4	-1E+10	1	-1E+10	1	-1E+10	1	-1E+10	1	-1E+10	1	-1E+10	1
4901784	163	C	12/21/2019	10:46	-132.660	43.629	0	1504.70	0	2.5720	0	36.8840	8	29.441	0	1487.305	0	25.6	4	8.0	4	-1E+10	1	-1E+10	1	-1E+10	1	-1E+10	1	-1E+10	1	-1E+10	1
4901784	163	C	12/21/2019	10:46	-132.660	43.629	0	1510.00	0	2.5620	0	36.8850	8	29.443	0	1492.525	0	26.0	4	8.1	4	-1E+10	1	-1E+10	1	-1E+10	1	-1E+10	1	-1E+10	1	-1E+10	1
4901784	163	C	12/21/2019	10:46	-132.660	43.629	0	1515.40	0	2.5430	0	36.8880	8	29.447	0	1497.844	0	26.5	4	8.2	4	-1E+10	1	-1E+10	1	-1E+10	1	-1E+10	1	-1E+10	1	-1E+10	1
4901784	163	C	12/21/2019	10:46	-132.660	43.629	0	1519.90	0	2.5340	0	36.8900	8	29.449	0	1502.276	0	26.7	4	8.3	4	-1E+10	1	-1E+10	1	-1E+10	1	-1E+10	1	-1E+10	1	-1E+10	1
4901784	163	C	12/21/2019	10:46	-132.660	43.629	0	1524.30	0	2.5260	0	36.8910	8	29.451	0	1506.609	0	27.0	4	8.4	4	-1E+10	1	-1E+10	1	-1E+10	1	-1E+10	1	-1E+10	1	-1E+10	1
4901784	163	C	12/21/2019	10:46	-132.660	43.629	0	1529.60	0	2.5170	0	36.8920	8	29.453	0	1511.828	0	27.3	4	8.5	4	-1E+10	1	-1E+10	1	-1E+10	1	-1E+10	1	-1E+10	1	-1E+10	1
4901784	163	C	12/21/2019	10:46	-132.660	43.629	0	1535.00	0	2.5100	0	36.8930	8	29.454	0	1517.146	0	27.5	4	8.6	4	-1E+10	1	-1E+10	1	-1E+10	1	-1E+10	1	-1E+10	1	-1E+10	1
4901784	163	C	12/21/2019	10:46	-132.660	43.629	0	1540.40	0	2.5070	0	36.8940	8	29.455	0	1522.464	0	27.7	4	8.6	4	-1E+10	1	-1E+10	1	-1E+10	1	-1E+10	1	-1E+10	1	-1E+10	1
4901784	163	C	12/21/2019	10:46	-132.660	43.629	0	1544.90	0	2.5030	0	36.8940	8	29.456	0	1526.896	0	28.0	4	8.7	4	-1E+10	1	-1E+10	1	-1E+10	1	-1E+10	1	-1E+10	1	-1E+10	1
4901784	163	C	12/21/2019	10:46	-132.660	43.629	0	1549.40	0	2.4940	0	36.8960	8	29.458	0	1531.327	0	28.3	4	8.8	4	-1E+10	1	-1E+10	1	-1E+10	1	-1E+10	1	-1E+10	1	-1E+10	1
4901784	163	C	12/21/2019	10:46	-132.660	43.629	0	1554.90	0	2.4890	0	36.8970	8	29.459	0	1536.743	0	28.7	4	8.9	4	-1E+10	1	-1E+10	1	-1E+10	1	-1E+10	1	-1E+10	1	-1E+10	1
4901784	163	C	12/21/2019	10:46	-132.660	43.629	0	1560.30	0	2.4800	0	36.8990	8	29.462	0	1542.060	0	29.0	4	9.0	4	-1E+10	1	-1E+10	1	-1E+10	1	-1E+10	1	-1E+10	1	-1E+10	1
4901784	163	C	12/21/2019	10:46	-132.660	43.629	0	1564.90	0	2.4730	0	36.9000	8	29.463	0	1546.589	0	29.3	4	9.1	4	-1E+10	1	-1E+10	1	-1E+10	1	-1E+10	1	-1E+10	1	-1E+10	1
4901784	163	C	12/21/2019	10:46	-132.660	43.629	0	1569.40	0	2.4680	0	36.9000	8	29.464	0	1551.020	0	29.6	4	9.2	4	-1E+10	1	-1E+10	1	-1E+10	1	-1E+10	1	-1E+10	1	-1E+10	1
4901784	163	C	12/21/2019	10:46	-132.660	43.629	0	1575.00	0	2.4550	0	36.9020	8	29.466	0	1556.534	0	30.2	4	9.4	4	-1E+10	1	-1E+10	1	-1E+10	1	-1E+10	1	-1E+10	1	-1E+10	1
4901784	163	C	12/21/2019	10:46	-132.660	43.629	0	1580.50	0	2.4420	0	36.9040	8	29.469	0	1561.949	0	30.6	4	9.5	4	-1E+10	1	-1E+10	1	-1E+10	1	-1E+10	1	-1E+10	1	-1E+10	1
4901784	163	C	12/21/2019	10:46	-132.660	43.629	0	1585.20	0	2.4320	0	36.9060	8	29.472	0	1566.577	0	30.9	4	9.6	4	-1E+10	1	-1E+10	1	-1E+10	1	-1E+10	1	-1E+10	1	-1E+10	1
4901784	163	C	12/21/2019	10:46	-132.660	43.629	0	1589.90	0	2.4240	0	36.9060	8	29.473	0	1571.204	0	31.2	4	9.7	4	-1E+10	1	-1E+10	1	-1E+10	1	-1E+10	1	-1E+10	1	-1E+10	1
4901784	163	C	12/21/2019	10:46	-132.660	43.629	0	1595.50	0	2.4140	0	36.9090	8	29.476	0	1576.717	0	31.6	4	9.8	4	-1E+10	1	-1E+10	1	-1E+10	1	-1E+10	1	-1E+10	1	-1E+10	1
4901784	163	C	12/21/2019	10:46	-132.660	43.629	0	1599.50	0	2.4080	0	36.9090	8	29.476	0	1580.655	0	31.8	4	9.9	4	-1E+10	1	-1E+10	1	-1E+10	1	-1E+10	1	-1E+10	1	-1E+10	1
4901784	163	C	12/21/2019	10:46	-132.660	43.629	0	1604.50	0	2.4030	0	36.9090	8	29.477	0	1585.578	0	32.1	4	10.0	4	-1E+10	1	-1E+10	1	-1E+10	1	-1E+10	1	-1E+10	1	-1E+10	1
4901784	163	C	12/21/2019	10:46	-132.660	43.629	0	1609.40	0	2.3920	0	36.9110	8	29.480	0	1590.402	0	32.5	4	10.1	4	-1E+10	1	-1E+10	1	-1E+10	1	-1E+10	1	-1E+10	1	-1E+10	1
4901784	163	C	12/21/2019	10:46	-132.660	43.629	0	1614.40	0	2.3850	0	36.9120	8	29.481	0	1595.324	0	32.8	4	10.2	4	-1E+10	1	-1E+10	1	-1E+10	1	-1E+10	1	-1E+10	1	-1E+10	1
4901784	163	C	12/21/2019	10:46	-132.660	43.629	0	1619.50	0	2.3770	0	36.9130	8	29.483	0	1600.344	0	33.1	4	10.3	4	-1E+10	1	-1E+10	1	-1E+10	1	-1E+10	1	-1E+10	1	-1E+10	1
4901784	163	C	12/21/2019	10:46	-132.660	43.629	0	1624.50	0	2.3650	0	36.9140	8	29.484	0	1605.266	0	33.9	4	10.5	4	-1E+10	1	-1E+10	1	-1E+10	1	-1E+10	1	-1E+10	1	-1E+10	1
4901784	163	C	12/21/2019	10:46	-132.660	43.629	0	1629.50	0	2.3520	0	36.9170	8	29.488	0	1610.188	0	34.6	4	10.7	4	-1E+10	1	-1E+10	1	-1E+10	1	-1E+10	1	-1E+10	1	-1E+10	1
4901784	163	C	12/21/2019	10:46	-132.660	43.629	0	1634.60	0	2.3370	0	36.9190	8	29.491	0	1615.208	0	35.0	4	10.8	4	-1E+10	1	-1E+10	1	-1E+10	1	-1E+10	1	-1E+10	1	-1E+10	1
4901784	163	C	12/21/2019	10:46	-132.660	43.629	0	1639.80	0	2.3310	0	36.9200	8	29.492	0	1620.327	0	35.4	4	11.0	4	-1E+10	1	-1E+10	1	-1E+10	1	-1E+10	1	-1E+10	1	-1E+10	1
4901784	163	C	12/21/2019	10:46	-132.660	43.629	0	1644.90	0	2.3200	0	36.9210	8	29.494	0	1625.346	0	36.1	4	11.2	4	-1E+10	1	-1E+10	1	-1E+10	1	-1E+10	1	-1E+10	1	-1E+10	1
4901784	163	C	12/21/2019	10:46	-132.660	43.629	0	1650.20	0	2.2990	0	36.9250	8	29.499	0	1630.563	0	36.7	4	11.4	4	-1E+10	1	-1E+10	1	-1E+10	1	-1E+10	1	-1E+10	1	-1E+10	1
4901784	163	C	12/21/2019	10:46	-132.660	43.629	0	1655.50	0	2.2900	0	36.9260	8	29.501	0	1635.779	0	37.2	4	11.5	4	-1E+10	1	-1E+10	1	-1E+10	1	-1E+10	1	-1E+10	1	-1E+10	1
4901784	163	C	12/21/2019	10:46	-132.660	43.629	0	1660.70	0	2.2810	0	36.9270	8	29.502	0	1640.897	0	37.6	4	11.6	4	-1E+10	1	-1E+10	1	-1E+10	1	-1E+10	1	-1E+10	1	-1E+10	1
4901784	163	C	12/21/2019	10:46	-132.660	43.629	0	1665.10	0	2.2730	0	36.9290	8	29.505	0	1645.228	0	38.0	4	11.7	4	-1E+10	1	-1E+10	1	-1E+10	1	-1E+10	1	-1E+10	1	-1E+10	1
4901784	163	C	12/21/2019	10:46	-132.660	43.629	0	1669.50	0	2.2670	0	36.9290	8	29.505	0	1649.558	0	38.5	4	11.9	4	-1E+10	1	-1E+10	1	-1E+10	1	-1E+10	1	-1E+10	1	-1E+10	1
4901784	163	C	12/21/2019	10:46	-132.660	43.629	0	1675.00	0	2.2520	0	36.9310	8	29.508	0	1654.971	0	39.3	4	12.2	4	-1E+10	1	-1E+10	1	-1E+10	1	-1E+10	1	-1E+10	1	-1E+10	1
4901784	163	C	12/21/2019	10:46	-132.660	43.629	0	1680.50	0	2.2290	0	36.9350	8	29.514	0	1660.384	0	40.0	4	12.4	4	-1E+10	1	-1E+10	1	-1E+10	1	-1E+10	1	-1E+10	1	-1E+10	1
4901784	163	C	12/21/2019	10:46	-132.660	43.629	0	1685.10	0	2.2220	0	36.9360	8	29.515	0	1664.911	0	40.4	4	12.5	4	-1E+10	1	-1E+10	1	-1E+10	1	-1E+10	1	-1E+10	1	-1E+10	1
4901784	163	C	12/21/2019	10:46	-132.660	43.629	0	1690.40	0	2.2110	0	36.9380	8	29.518	0	1670.126	0	40.8	4	12.6	4	-1E+10	1	-1E+10	1	-1E+10	1	-1E+10	1	-1E+10	1	-1E+10	1
4901784	163	C	12/21/2019	10:46	-132.660	43.629	0	1695.50	0	2.2050	0	36.9390	8	29.519	0	1675.145	0	41.1	4	12.7	4	-1E+10	1	-1E+10	1	-1E+10	1	-1E+10	1	-1E+10	1	-1E+10	1
4901784	163	C	12/21/2019	10:46	-132.660	43.629	0	1700.30	0	2.1990	0	36.9400	8	29.520	0	1679.868	0	41.4	4	12.8	4	-1E+10	1	-1E+10	1	-1E+10	1	-1E+10	1	-1E+10	1	-1E+10	1
4901784	163	C	12/21/2019	10:46	-132.660	43.629	0	1705.10	0	2.1940	0	36.9410	8	29.522	0	1684.592	0	41.7	4	12.9	4	-1E+10	1	-1E+10	1	-1E+10	1	-1E+10	1	-1E+10	1	-1E+10	1
4901784	163	C	12/21/2019	10:46	-132.660	43.629	0	1709.90	0	2.1860	0	36.9410	8	29.522	0	1689.315	0	42.3	4	13.0	4	-1E+10	1	-1E+10	1	-1E+10	1	-1E+10	1	-1E+10	1	-1E+10	1
4901784	163	C	12/21/2019	10:46	-132.660	43.629	0	1714.80	0	2.1730	0	36.9430	8	29.525	0	1694.136	0	42.9	4	13.2	4	-1E+10	1	-1E+10	1	-1E+10	1	-1E+10	1	-1E+10	1	-1E+10	1
4901784	163	C	12/21/2019	10:46	-132.660	43.629	0	1719.70	0	2.1600	0	36.9460	8	29.529	0	1698.958	0	43.4	4	13.4	4	-1E+10	1	-1E+10	1	-1E+10	1	-1E+10	1	-1E+10	1	-1E+10	1
4901784	163	C	12/21/2019	10:46	-132.660	43.629	0	1724.60	0	2.1510	0	36.9470	8	29.530	0	1703.779	0	43.7	4	13.5	4	-1E+10	1	-1E+10	1	-1E+10	1	-1E+10	1	-1E+10	1	-1E+10	1
4901784	163	C	12/21/2019	10:46	-132.660	43.629	0	1729.70	0	2.1450	0	36.9480	8	29.532	0	1708.797	0	44.0	4	13.6	4	-1E+10	1	-1E+10	1	-1E+10	1	-1E+10	1	-1E+10	1	-1E+10	1
4901784	163	C	12/21/2019	10:46	-132.660	43.629	0	1734.70	0	2.1390	0	36.9490	8	29.533	0	1713.716	0	44.3	4	13.7	4	-1E+10	1	-1E+10	1	-1E+10	1	-1E+10	1	-1E+10	1	-1E+10	1
4901784	163	C	12/21/2019	10:46	-132.660	43.629	0	1739.80	0	2.1350	0	36.9500	8	29.534	0	1718.734	0	44.6	4	13.7	4	-1E+10	1	-1E+10	1	-1E+10	1	-1E+10	1	-1E+10	1	-1E+10	1
4901784	163	C	12/21/2019	10:46	-132.660	43.629	0	1744.90	0	2.1300	0	36.9500	8	29.534	0	1723.751	0	45.0	4	13.9	4	-1E+10	1	-1E+10	1	-1E+10	1	-1E+10	1	-1E+10	1	-1E+10	1
4901784	163	C	12/21/2019	10:46	-132.660	43.629	0	1750.00	0	2.1220	0	36.9520	8	29.537	0	1728.769	0	45.5	4	14.0	4	-1E+10	1	-1E+10	1	-1E+10	1	-1E+10	1	-1E+10	1	-1E+10	1
4901784	163	C	12/21/2019	10:46	-132.660	43.629	0	1755.10	0	2.1160	0	36.9530	8	29.538	0	1733.786	0	45.9	4	14.1	4	-1E+10	1	-1E+10	1	-1E+10	1	-1E+10	1	-1E+10	1	-1E+10	1
4901784	163	C	12/21/2019	10:46	-132.660	43.629	0	1760.20	0	2.1100	0	36.9540	8	29.540	0	1738.803	0	46.1	4	14.2	4	-1E+10	1	-1E+10	1	-1E+10	1	-1E+10	1	-1E+10	1	-1E+10	1
4901784	163	C	12/21/2019	10:46	-132.660	43.629	0	1765.40	0	2.1080	0	36.9550	8	29.541	0	1743.919	0	46.2	4	14.2	4	-1E+10	1	-1E+10	1	-1E+10	1	-1E+10	1	-1E+10	1	-1E+10	1
4901784	163	C	12/21/2019	10:46	-132.660	43.629	0	1770.70	0	2.1080	0	36.9550	8	29.541	0	1749.132	0	46.2	4	14.2	4	-1E+10	1	-1E+10	1	-1E+10	1	-1E+10	1	-1E+10	1	-1E+10	1
4901784	163	C	12/21/2019	10:46	-132.660	43.629	0	1775.10	0	2.1070	0	36.9550	8	29.541	0	1753.461	0	46.3	4	14.3	4	-1E+10	1	-1E+10	1	-1E+10	1	-1E+10	1	-1E+10	1	-1E+10	1
4901784	163	C	12/21/2019	10:46	-132.660	43.629	0	1779.50	0	2.1060	0	36.9550	8	29.541	0	1757.789	0	46.5	4	14.3	4	-1E+10	1	-1E+10	1	-1E+10	1	-1E+10	1	-1E+10	1	-1E+10	1
4901784	163	C	12/21/2019	10:46	-132.660	43.629	0	1784.70	0	2.1010	0	36.9560	8	29.542	0	1762.904	0	46.8	4	14.4	4	-1E+10	1	-1E+10	1	-1E+10	1	-1E+10	1	-1E+10	1	-1E+10	1
4901784	163	C	12/21/2019	10:46	-132.660	43.629	0	1790.10	0	2.0940	0	36.9570	8	29.543	0	1768.215	0	47.2	4	14.5	4	-1E+10	1	-1E+10	1	-1E+10	1	-1E+10	1	-1E+10	1	-1E+10	1
4901784	163	C	12/21/2019	10:46	-132.660	43.629	0	1795.50	0	2.0890	0	36.9580	8	29.545	0	1773.527	0	47.4	4	14.6	4	-1E+10	1	-1E+10	1	-1E+10	1	-1E+10	1	-1E+10	1	-1E+10	1
4901784	163	C	12/21/2019	10:46	-132.660	43.629	0	1800.00	0	2.0890	0	36.9580	8	29.545	0	1777.953	0	47.7	4	14.7	4	-1E+10	1	-1E+10	1	-1E+10	1	-1E+10	1	-1E+10	1	-1E+10	1
4901784	163	C	12/21/2019	10:46	-132.660	43.629	0	1804.50	0	2.0810	0	36.9590	8	29.546	0	1782.379	0	48.2	4	14.8	4	-1E+10	1	-1E+10	1	-1E+10	1	-1E+10	1	-1E+10	1	-1E+10	1
4901784	163	C	12/21/2019	10:46	-132.660	43.629	0	1809.90	0	2.0690	0	36.9610	8	29.549	0	1787.690	0	48.6	4	15.0	4	-1E+10	1	-1E+10	1	-1E+10	1	-1E+10	1	-1E+10	1	-1E+10	1
4901784	163	C	12/21/2019	10:46	-132.660	43.629	0	1815.40	0	2.0620	0	36.9620	8	29.550	0	1793.099	0	49.0	4	15.1	4	-1E+10	1	-1E+10	1	-1E+10	1	-1E+10	1	-1E+10	1	-1E+10	1
4901784	163	C	12/21/2019	10:46	-132.660	43.629	0	1820.00	0	2.0570	0	36.9640	8	29.552	0	1797.623	0	49.2	4	15.1	4	-1E+10	1	-1E+10	1	-1E+10	1	-1E+10	1	-1E+10	1	-1E+10	1
4901784	163	C	12/21/2019	10:46	-132.660	43.629	0	1824.60	0	2.0540	0	36.9640	8	29.553	0	1802.147	0	49.4	4	15.2	4	-1E+10	1	-1E+10	1	-1E+10	1	-1E+10	1	-1E+10	1	-1E+10	1
4901784	163	C	12/21/2019	10:46	-132.660	43.629	0	1830.10	0	2.0510	0	36.9640	8	29.553	0	1807.556	0	49.7	4	15.3	4	-1E+10	1	-1E+10	1	-1E+10	1	-1E+10	1	-1E+10	1	-1E+10	1
4901784	163	C	12/21/2019	10:46	-132.660	43.629	0	1835.50	0	2.0440	0	36.9660	8	29.555	0	1812.867	0	50.1	4	15.4	4	-1E+10	1	-1E+10	1	-1E+10	1	-1E+10	1	-1E+10	1	-1E+10	1
4901784	163	C	12/21/2019	10:46	-132.660	43.629	0	1840.00	0	2.0410	0	36.9660	8	29.556	0	1817.292	0	50.3	4	15.5	4	-1E+10	1	-1E+10	1	-1E+10	1	-1E+10	1	-1E+10	1	-1E+10	1
4901784	163	C	12/21/2019	10:46	-132.660	43.629	0	1844.60	0	2.0390	0	36.9670	8	29.557	0	1821.816	0	50.7	4	15.6	4	-1E+10	1	-1E+10	1	-1E+10	1	-1E+10	1	-1E+10	1	-1E+10	1
4901784	163	C	12/21/2019	10:46	-132.660	43.629	0	1850.10	0	2.0330	0	36.9680	8	29.558	0	1827.224	0	51.2	4	15.7	4	-1E+10	1	-1E+10	1	-1E+10	1	-1E+10	1	-1E+10	1	-1E+10	1
4901784	163	C	12/21/2019	10:46	-132.660	43.629	0	1854.80	0	2.0250	0	36.9700	8	29.560	0	1831.846	0	51.4	4	15.8	4	-1E+10	1	-1E+10	1	-1E+10	1	-1E+10	1	-1E+10	1	-1E+10	1
4901784	163	C	12/21/2019	10:46	-132.660	43.629	0	1859.70	0	2.0230	0	36.9700	8	29.560	0	1836.664	0	51.7	4	15.9	4	-1E+10	1	-1E+10	1	-1E+10	1	-1E+10	1	-1E+10	1	-1E+10	1
4901784	163	C	12/21/2019	10:46	-132.660	43.629	0	1865.00	0	2.0190	0	36.9710	8	29.562	0	1841.875	0	51.9	4	15.9	4	-1E+10	1	-1E+10	1	-1E+10	1	-1E+10	1	-1E+10	1	-1E+10	1
4901784	163	C	12/21/2019	10:46	-132.660	43.629	0	1869.90	0	2.0180	0	36.9710	8	29.562	0	1846.693	0	52.1	4	16.0	4	-1E+10	1	-1E+10	1	-1E+10	1	-1E+10	1	-1E+10	1	-1E+10	1
4901784	163	C	12/21/2019	10:46	-132.660	43.629	0	1874.70	0	2.0130	0	36.9720	8	29.563	0	1851.413	0	52.4	4	16.1	4	-1E+10	1	-1E+10	1	-1E+10	1	-1E+10	1	-1E+10	1	-1E+10	1
4901784	163	C	12/21/2019	10:46	-132.660	43.629	0	1879.70	0	2.0090	0	36.9730	8	29.564	0	1856.329	0	52.6	4	16.2	4	-1E+10	1	-1E+10	1	-1E+10	1	-1E+10	1	-1E+10	1	-1E+10	1
4901784	163	C	12/21/2019	10:46	-132.660	43.629	0	1884.60	0	2.0060	0	36.9730	8	29.564	0	1861.147	0	52.8	4	16.2	4	-1E+10	1	-1E+10	1	-1E+10	1	-1E+10	1	-1E+10	1	-1E+10	1
4901784	163	C	12/21/2019	10:46	-132.660	43.629	0	1889.50	0	2.0030	0	36.9740	8	29.565	0	1865.964	0	53.0	4	16.3	4	-1E+10	1	-1E+10	1	-1E+10	1	-1E+10	1	-1E+10	1	-1E+10	1
4901784	163	C	12/21/2019	10:46	-132.660	43.629	0	1894.40	0	2.0000	0	36.9740	8	29.566	0	1870.782	0	53.2	4	16.3	4	-1E+10	1	-1E+10	1	-1E+10	1	-1E+10	1	-1E+10	1	-1E+10	1
4901784	163	C	12/21/2019	10:46	-132.660	43.629	0	1899.30	0	1.9980	0	36.9750	8	29.567	0	1875.599	0	53.3	4	16.4	4	-1E+10	1	-1E+10	1	-1E+10	1	-1E+10	1	-1E+10	1	-1E+10	1
4901784	163	C	12/21/2019	10:46	-132.660	43.629	0	1904.30	0	1.9960	0	36.9750	8	29.567	0	1880.514	0	53.5	4	16.4	4	-1E+10	1	-1E+10	1	-1E+10	1	-1E+10	1	-1E+10	1	-1E+10	1
4901784	163	C	12/21/2019	10:46	-132.660	43.629	0	1909.30	0	1.9950	0	36.9750	8	29.567	0	1885.430	0	53.6	4	16.4	4	-1E+10	1	-1E+10	1	-1E+10	1	-1E+10	1	-1E+10	1	-1E+10	1
4901784	163	C	12/21/2019	10:46	-132.660	43.629	0	1914.40	0	1.9930	0	36.9760	8	29.568	0	1890.443	0	53.8	4	16.5	4	-1E+10	1	-1E+10	1	-1E+10	1	-1E+10	1	-1E+10	1	-1E+10	1
4901784	163	C	12/21/2019	10:46	-132.660	43.629	0	1919.50	0	1.9900	0	36.9760	8	29.568	0	1895.457	0	53.9	4	16.6	4	-1E+10	1	-1E+10	1	-1E+10	1	-1E+10	1	-1E+10	1	-1E+10	1
4901784	163	C	12/21/2019	10:46	-132.660	43.629	0	1924.60	0	1.9850	0	36.9770	8	29.570	0	1900.470	0	54.1	4	16.6	4	-1E+10	1	-1E+10	1	-1E+10	1	-1E+10	1	-1E+10	1	-1E+10	1
4901784	163	C	12/21/2019	10:46	-132.660	43.629	0	1929.70	0	1.9840	0	36.9770	8	29.570	0	1905.483	0	54.2	4	16.6	4	-1E+10	1	-1E+10	1	-1E+10	1	-1E+10	1	-1E+10	1	-1E+10	1
4901784	163	C	12/21/2019	10:46	-132.660	43.629	0	1934.80	0	1.9840	0	36.9780	8	29.571	0	1910.497	0	54.4	4	16.7	4	-1E+10	1	-1E+10	1	-1E+10	1	-1E+10	1	-1E+10	1	-1E+10	1
4901784	163	C	12/21/2019	10:46	-132.660	43.629	0	1940.00	0	1.9810	0	36.9780	8	29.571	0	1915.608	0	54.5	4	16.7	4	-1E+10	1	-1E+10	1	-1E+10	1	-1E+10	1	-1E+10	1	-1E+10	1
4901784	163	C	12/21/2019	10:46	-132.660	43.629	0	1945.20	0	1.9790	0	36.9780	8	29.571	0	1920.719	0	54.7	4	16.8	4	-1E+10	1	-1E+10	1	-1E+10	1	-1E+10	1	-1E+10	1	-1E+10	1
4901784	163	C	12/21/2019	10:46	-132.660	43.629	0	1950.40	0	1.9760	0	36.9790	8	29.572	0	1925.830	0	55.1	4	16.9	4	-1E+10	1	-1E+10	1	-1E+10	1	-1E+10	1	-1E+10	1	-1E+10	1
4901784	163	C	12/21/2019	10:46	-132.660	43.629	0	1955.50	0	1.9700	0	36.9800	8	29.574	0	1930.843	0	55.5	4	17.0	4	-1E+10	1	-1E+10	1	-1E+10	1	-1E+10	1	-1E+10	1	-1E+10	1
4901784	163	C	12/21/2019	10:46	-132.660	43.629	0	1959.90	0	1.9680	0	36.9810	8	29.575	0	1935.167	0	55.7	4	17.1	4	-1E+10	1	-1E+10	1	-1E+10	1	-1E+10	1	-1E+10	1	-1E+10	1
4901784	163	C	12/21/2019	10:46	-132.660	43.629	0	1964.30	0	1.9620	0	36.9810	8	29.575	0	1939.492	0	56.0	4	17.2	4	-1E+10	1	-1E+10	1	-1E+10	1	-1E+10	1	-1E+10	1	-1E+10	1
4901784	163	C	12/21/2019	10:46	-132.660	43.629	0	1969.50	0	1.9570	0	36.9820	8	29.576	0	1944.602	0	56.3	4	17.3	4	-1E+10	1	-1E+10	1	-1E+10	1	-1E+10	1	-1E+10	1	-1E+10	1
4901784	163	C	12/21/2019	10:46	-132.660	43.629	0	1974.70	0	1.9540	0	36.9830	8	29.577	0	1949.713	0	56.5	4	17.3	4	-1E+10	1	-1E+10	1	-1E+10	1	-1E+10	1	-1E+10	1	-1E+10	1
4901784	163	C	12/21/2019	10:46	-132.660	43.629	0	1979.90	0	1.9530	0	36.9840	8	29.578	0	1954.823	0	56.7	4	17.4	4	-1E+10	1	-1E+10	1	-1E+10	1	-1E+10	1	-1E+10	1	-1E+10	1
4901784	163	C	12/21/2019	10:46	-132.660	43.629	0	1985.30	0	1.9490	0	36.9840	8	29.579	0	1960.130	0	57.0	4	17.5	4	-1E+10	1	-1E+10	1	-1E+10	1	-1E+10	1	-1E+10	1	-1E+10	1
4901784	163	C	12/21/2019	10:46	-132.660	43.629	0	1990.60	0	1.9470	0	36.9850	8	29.580	0	1965.338	0	57.3	4	17.6	4	-1E+10	1	-1E+10	1	-1E+10	1	-1E+10	1	-1E+10	1	-1E+10	1
4901784	163	C	12/21/2019	10:46	-132.660	43.629	0	1994.90	0	1.9450	0	36.9850	8	29.580	0	1969.564	0	57.5	4	17.6	4	-1E+10	1	-1E+10	1	-1E+10	1	-1E+10	1	-1E+10	1	-1E+10	1
4901784	163	C	12/21/2019	10:46	-132.660	43.629	0	1999.40	0	1.9420	0	36.9860	8	29.581	0	1973.986	0	57.8	4	17.7	4	-1E+10	1	-1E+10	1	-1E+10	1	-1E+10	1	-1E+10	1	-1E+10	1
4901784	163	C	12/21/2019	10:46	-132.660	43.629	0	2004.60	0	1.9390	0	36.9870	8	29.582	0	1979.096	0	58.1	4	17.8	4	-1E+10	1	-1E+10	1	-1E+10	1	-1E+10	1	-1E+10	1	-1E+10	1
4901784	163	C	12/21/2019	10:46	-132.660	43.629	0	2009.70	0	1.9370	0	36.9870	8	29.582	0	1984.107	0	58.3	4	17.9	4	-1E+10	1	-1E+10	1	-1E+10	1	-1E+10	1	-1E+10	1	-1E+10	1
4901784	163	C	12/21/2019	10:46	-132.660	43.629	0	2014.70	0	1.9350	0	36.9870	8	29.582	0	1989.020	0	58.5	4	17.9	4	-1E+10	1	-1E+10	1	-1E+10	1	-1E+10	1	-1E+10	1	-1E+10	1
4901784	163	C	12/21/2019	10:46	-132.660	43.629	0	2020.30	0	1.9320	0	36.9880	8	29.584	0	1994.523	0	58.7	4	18.0	4	-1E+10	1	-1E+10	1	-1E+10	1	-1E+10	1	-1E+10	1	-1E+10	1
4901784	163	C	12/21/2019	10:46	-132.660	43.629	0																										
4901784	164	C	12/31/2019	10:46	-132.688	43.583	0	2.20	0	13.1360	0	34.6810	8	26.119	0	2.182	0	245.2	4	95.1	4	-1E+10	1	-1E+10	1	-1E+10	1	-1E+10	1	-1E+10	1	-1E+10	1
4901784	164	C	12/31/2019	10:46	-132.688	43.583	0	3.00	0	13.1350	0	34.6820	8	26.120	0	2.976	0	245.0	4	95.0	4	-1E+10	1	-1E+10	1	-1E+10	1	-1E+10	1	-1E+10	1	-1E+10	1
4901784	164	C	12/31/2019	10:46	-132.688	43.583	0	4.00	0	13.1360	0	34.6820	8	26.120	0	3.968	0	245.1	4	95.1	4	-1E+10	1	-1E+10	1	-1E+10	1	-1E+10	1	-1E+10	1	-1E+10	1
4901784	164	C	12/31/2019	10:46	-132.688	43.583	0	5.10	0	13.1380	0	34.6830	8	26.120	0	5.059	0	244.9	4	95.0	4	-1E+10	1	-1E+10	1	-1E+10	1	-1E+10	1	-1E+10	1	-1E+10	1
4901784	164	C	12/31/2019	10:46	-132.688	43.583	0	6.40	0	13.1370	0	34.6840	8	26.121	0	6.349	0	245.1	4	95.1	4	-1E+10	1	-1E+10	1	-1E+10	1	-1E+10	1	-1E+10	1	-1E+10	1
4901784	164	C	12/31/2019	10:46	-132.688	43.583	0	7.80	0	13.1400	0	34.6850	8	26.122	0	7.738	0	245.1	4	95.1	4	-1E+10	1	-1E+10	1	-1E+10	1	-1E+10	1	-1E+10	1	-1E+10	1
4901784	164	C	12/31/2019	10:46	-132.688	43.583	0	9.40	0	13.1410	0	34.6850	8	26.121	0	9.325	0	244.9	4	95.0	4	-1E+10	1	-1E+10	1	-1E+10	1	-1E+10	1	-1E+10	1	-1E+10	1
4901784	164	C	12/31/2019	10:46	-132.688	43.583	0	11.20	0	13.1400	0	34.6850	8	26.122	0	11.110	0	244.8	4	95.0	4	-1E+10	1	-1E+10	1	-1E+10	1	-1E+10	1	-1E+10	1	-1E+10	1
4901784	164	C	12/31/2019	10:46	-132.688	43.583	0	12.80	0	13.1400	0	34.6860	8	26.122	0	12.697	0	244.9	4	95.0	4	-1E+10	1	-1E+10	1	-1E+10	1	-1E+10	1	-1E+10	1	-1E+10	1
4901784	164	C	12/31/2019	10:46	-132.688	43.583	0	14.40	0	13.1410	0	34.6860	8	26.122	0	14.284	0	244.9	4	95.0	4	-1E+10	1	-1E+10	1	-1E+10	1	-1E+10	1	-1E+10	1	-1E+10	1
4901784	164	C	12/31/2019	10:46	-132.688	43.583	0	16.20	0	13.1420	0	34.6870	8	26.123	0	16.070	0	244.8	4	95.0	4	-1E+10	1	-1E+10	1	-1E+10	1	-1E+10	1	-1E+10	1	-1E+10	1
4901784	164	C	12/31/2019	10:46	-132.688	43.583	0	18.00	0	13.1420	0	34.6870	8	26.123	0	17.855	0	244.9	4	95.0	4	-1E+10	1	-1E+10	1	-1E+10	1	-1E+10	1	-1E+10	1	-1E+10	1
4901784	164	C	12/31/2019	10:46	-132.688	43.583	0	19.90	0	13.1420	0	34.6880	8	26.124	0	19.740	0	244.7	4	94.9	4	-1E+10	1	-1E+10	1	-1E+10	1	-1E+10	1	-1E+10	1	-1E+10	1
4901784	164	C	12/31/2019	10:46	-132.688	43.583	0	21.80	0	13.1420	0	34.6880	8	26.124	0	21.625	0	244.7	4	94.9	4	-1E+10	1	-1E+10	1	-1E+10	1	-1E+10	1	-1E+10	1	-1E+10	1
4901784	164	C	12/31/2019	10:46	-132.688	43.583	0	23.70	0	13.1420	0	34.6890	8	26.125	0	23.509	0	244.6	4	94.9	4	-1E+10	1	-1E+10	1	-1E+10	1	-1E+10	1	-1E+10	1	-1E+10	1
4901784	164	C	12/31/2019	10:46	-132.688	43.583	0	25.70	0	13.1420	0	34.6890	8	26.125	0	25.493	0	244.6	4	94.9	4	-1E+10	1	-1E+10	1	-1E+10	1	-1E+10	1	-1E+10	1	-1E+10	1
4901784	164	C	12/31/2019	10:46	-132.688	43.583	0	27.60	0	13.1420	0	34.6900	8	26.126	0	27.378	0	244.6	4	94.9	4	-1E+10	1	-1E+10	1	-1E+10	1	-1E+10	1	-1E+10	1	-1E+10	1
4901784	164	C	12/31/2019	10:46	-132.688	43.583	0	29.50	0	13.1430	0	34.6900	8	26.125	0	29.262	0	244.4	4	94.8	4	-1E+10	1	-1E+10	1	-1E+10	1	-1E+10	1	-1E+10	1	-1E+10	1
4901784	164	C	12/31/2019	10:46	-132.688	43.583	0	31.30	0	13.1430	0	34.6910	8	26.126	0	31.048	0	244.5	4	94.9	4	-1E+10	1	-1E+10	1	-1E+10	1	-1E+10	1	-1E+10	1	-1E+10	1
4901784	164	C	12/31/2019	10:46	-132.688	43.583	0	33.00	0	13.1430	0	34.6920	8	26.127	0	32.734	0	244.5	4	94.9	4	-1E+10	1	-1E+10	1	-1E+10	1	-1E+10	1	-1E+10	1	-1E+10	1
4901784	164	C	12/31/2019	10:46	-132.688	43.583	0	34.90	0	13.1440	0	34.6920	8	26.127	0	34.618	0	244.5	4	94.9	4	-1E+10	1	-1E+10	1	-1E+10	1	-1E+10	1	-1E+10	1	-1E+10	1
4901784	164	C	12/31/2019	10:46	-132.688	43.583	0	36.80	0	13.1430	0	34.6930	8	26.128	0	36.503	0	244.4	4	94.8	4	-1E+10	1	-1E+10	1	-1E+10	1	-1E+10	1	-1E+10	1	-1E+10	1
4901784	164	C	12/31/2019	10:46	-132.688	43.583	0	38.80	0	13.1430	0	34.6930	8	26.128	0	38.486	0	244.5	4	94.9	4	-1E+10	1	-1E+10	1	-1E+10	1	-1E+10	1	-1E+10	1	-1E+10	1
4901784	164	C	12/31/2019	10:46	-132.688	43.583	0	40.60	0	13.1440	0	34.6940	8	26.129	0	40.272	0	244.4	4	94.8	4	-1E+10	1	-1E+10	1	-1E+10	1	-1E+10	1	-1E+10	1	-1E+10	1
4901784	164	C	12/31/2019	10:46	-132.688	43.583	0	42.50	0	13.1440	0	34.6940	8	26.129	0	42.156	0	244.4	4	94.8	4	-1E+10	1	-1E+10	1	-1E+10	1	-1E+10	1	-1E+10	1	-1E+10	1
4901784	164	C	12/31/2019	10:46	-132.688	43.583	0	44.20	0	13.1450	0	34.6950	8	26.129	0	43.842	0	244.3	4	94.8	4	-1E+10	1	-1E+10	1	-1E+10	1	-1E+10	1	-1E+10	1	-1E+10	1
4901784	164	C	12/31/2019	10:46	-132.688	43.583	0	46.00	0	13.1450	0	34.6960	8	26.130	0	45.627	0	244.2	4	94.7	4	-1E+10	1	-1E+10	1	-1E+10	1	-1E+10	1	-1E+10	1	-1E+10	1
4901784	164	C	12/31/2019	10:46	-132.688	43.583	0	47.60	0	13.1450	0	34.6970	8	26.131	0	47.214	0	243.9	4	94.7	4	-1E+10	1	-1E+10	1	-1E+10	1	-1E+10	1	-1E+10	1	-1E+10	1
4901784	164	C	12/31/2019	10:46	-132.688	43.583	0	49.40	0	13.1460	0	34.6970	8	26.131	0	49.000	0	244.2	4	94.8	4	-1E+10	1	-1E+10	1	-1E+10	1	-1E+10	1	-1E+10	1	-1E+10	1
4901784	164	C	12/31/2019	10:46	-132.688	43.583	0	51.30	0	13.1460	0	34.6980	8	26.132	0	50.884	0	244.0	4	94.7	4	-1E+10	1	-1E+10	1	-1E+10	1	-1E+10	1	-1E+10	1	-1E+10	1
4901784	164	C	12/31/2019	10:46	-132.688	43.583	0	53.20	0	13.1510	0	34.6990	8	26.131	0	52.768	0	243.8	4	94.6	4	-1E+10	1	-1E+10	1	-1E+10	1	-1E+10	1	-1E+10	1	-1E+10	1
4901784	164	C	12/31/2019	10:46	-132.688	43.583	0	55.10	0	13.1510	0	34.6990	8	26.131	0	54.653	0	243.7	4	94.6	4	-1E+10	1	-1E+10	1	-1E+10	1	-1E+10	1	-1E+10	1	-1E+10	1
4901784	164	C	12/31/2019	10:46	-132.688	43.583	0	57.00	0	13.1510	0	34.7000	8	26.132	0	56.537	0	243.6	4	94.5	4	-1E+10	1	-1E+10	1	-1E+10	1	-1E+10	1	-1E+10	1	-1E+10	1
4901784	164	C	12/31/2019	10:46	-132.688	43.583	0	58.90	0	13.1410	0	34.7010	8	26.135	0	58.421	0	243.6	4	94.5	4	-1E+10	1	-1E+10	1	-1E+10	1	-1E+10	1	-1E+10	1	-1E+10	1
4901784	164	C	12/31/2019	10:46	-132.688	43.583	0	60.80	0	13.1490	0	34.7010	8	26.134	0	60.305	0	243.5	4	94.5	4	-1E+10	1	-1E+10	1	-1E+10	1	-1E+10	1	-1E+10	1	-1E+10	1
4901784	164	C	12/31/2019	10:46	-132.688	43.583	0	62.60	0	13.1360	0	34.7010	8	26.136	0	62.091	0	243.4	4	94.4	4	-1E+10	1	-1E+10	1	-1E+10	1	-1E+10	1	-1E+10	1	-1E+10	1
4901784	164	C	12/31/2019	10:46	-132.688	43.583	0	64.40	0	13.1360	0	34.7020	8	26.137	0	63.876	0	243.2	4	94.4	4	-1E+10	1	-1E+10	1	-1E+10	1	-1E+10	1	-1E+10	1	-1E+10	1
4901784	164	C	12/31/2019	10:46	-132.688	43.583	0	66.30	0	13.1450	0	34.7030	8	26.136	0	65.760	0	243.2	4	94.4	4	-1E+10	1	-1E+10	1	-1E+10	1	-1E+10	1	-1E+10	1	-1E+10	1
4901784	164	C	12/31/2019	10:46	-132.688	43.583	0	68.30	0	13.1320	0	34.7010	8	26.137	0	67.743	0	243.0	4	94.3	4	-1E+10	1	-1E+10	1	-1E+10	1	-1E+10	1	-1E+10	1	-1E+10	1
4901784	164	C	12/31/2019	10:46	-132.688	43.583	0	70.10	0	13.1320	0	34.7010	8	26.137	0	69.528	0	243.0	4	94.3	4	-1E+10	1	-1E+10	1	-1E+10	1	-1E+10	1	-1E+10	1	-1E+10	1
4901784	164	C	12/31/2019	10:46	-132.688	43.583	0	72.00	0	13.1200	0	34.7010	8	26.140	0	71.412	0	242.8	4	94.2	4	-1E+10	1	-1E+10	1	-1E+10	1	-1E+10	1	-1E+10	1	-1E+10	1
4901784	164	C	12/31/2019	10:46	-132.688	43.583	0	74.00	0	13.1220	0	34.7010	8	26.139	0	73.396	0	242.5	4	94.1	4	-1E+10	1	-1E+10	1	-1E+10	1	-1E+10	1	-1E+10	1	-1E+10	1
4901784	164	C	12/31/2019	10:46	-132.688	43.583	0	75.90	0	13.1220	0	34.7020	8	26.140	0	75.280	0	242.3	4	94.0	4	-1E+10	1	-1E+10	1	-1E+10	1	-1E+10	1	-1E+10	1	-1E+10	1
4901784	164	C	12/31/2019	10:46	-132.688	43.583	0	77.80	0	13.1230	0	34.7020	8	26.140	0	77.164	0	242.2	4	93.9	4	-1E+10	1	-1E+10	1	-1E+10	1	-1E+10	1	-1E+10	1	-1E+10	1
4901784	164	C	12/31/2019	10:46	-132.688	43.583	0	79.80	0	13.1230	0	34.7020	8	26.140	0	79.147	0	242.0	4	93.9	4	-1E+10	1	-1E+10	1	-1E+10	1	-1E+10	1	-1E+10	1	-1E+10	1
4901784	164	C	12/31/2019	10:46	-132.688	43.583	0	81.80	0	13.1210	0	34.7000	8	26.139	0	81.131	0	241.6	4	93.7	4	-1E+10	1	-1E+10	1	-1E+10	1	-1E+10	1	-1E+10	1	-1E+10	1
4901784	164	C	12/31/2019	10:46	-132.688	43.583	0	83.60	0	13.1180	0	34.6990	8	26.139	0	82.915	0	241.2	4	93.5	4	-1E+10	1	-1E+10	1	-1E+10	1	-1E+10	1	-1E+10	1	-1E+10	1
4901784	164	C	12/31/2019	10:46	-132.688	43.583	0	85.60	0	13.1080	0	34.6980	8	26.140	0	84.899	0	240.9	4	93.4	4	-1E+10	1	-1E+10	1	-1E+10	1	-1E+10	1	-1E+10	1	-1E+10	1
4901784	164	C	12/31/2019	10:46	-132.688	43.583	0	87.40	0	13.1000	0	34.6930	8	26.138	0	86.684	0	240.4	4	93.2	4	-1E+10	1	-1E+10	1	-1E+10	1	-1E+10	1	-1E+10	1	-1E+10	1
4901784	164	C	12/31/2019	10:46	-132.688	43.583	0	89.30	0	13.0800	0	34.6880	8	26.138	0	88.568	0	240.0	4	93.0	4	-1E+10	1	-1E+10	1	-1E+10	1	-1E+10	1	-1E+10	1	-1E+10	1
4901784	164	C	12/31/2019	10:46	-132.688	43.583	0	91.10	0	13.0770	0	34.6820	8	26.134	0	90.352	0	239.4	4	92.8	4	-1E+10	1	-1E+10	1	-1E+10	1	-1E+10	1	-1E+10	1	-1E+10	1
4901784	164	C	12/31/2019	10:46	-132.688	43.583	0	93.00	0	13.0750	0	34.6670	8	26.123	0	92.236	0	238.4	4	92.4	4	-1E+10	1	-1E+10	1	-1E+10	1	-1E+10	1	-1E+10	1	-1E+10	1
4901784	164	C	12/31/2019	10:46	-132.688	43.583	0	94.80	0	13.0410	0	34.6450	8	26.113	0	94.021	0	237.1	4	91.8	4	-1E+10	1	-1E+10	1	-1E+10	1	-1E+10	1	-1E+10	1	-1E+10	1
4901784	164	C	12/31/2019	10:46	-132.688	43.583	0	96.50	0	12.9100	0	34.6070	8	26.110	0	95.707	0	235.4	4	90.9	4	-1E+10	1	-1E+10	1	-1E+10	1	-1E+10	1	-1E+10	1	-1E+10	1
4901784	164	C	12/31/2019	10:46	-132.688	43.583	0	98.20	0	11.7750	0	34.6560	8	26.367	0	97.392	0	237.8	4	89.7	4	-1E+10	1	-1E+10	1	-1E+10	1	-1E+10	1	-1E+10	1	-1E+10	1
4901784	164	C	12/31/2019	10:46	-132.688	43.583	0	100.50	0	10.8610	0	34.6440	8	26.526	0	99.673	0	241.3	4	89.3	4	-1E+10	1	-1E+10	1	-1E+10	1	-1E+10	1	-1E+10	1	-1E+10	1
4901784	164	C	12/31/2019	10:46	-132.688	43.583	0	102.60	0	10.6200	0	34.6680	8	26.588	0	101.755	0	240.9	4	88.7	4	-1E+10	1	-1E+10	1	-1E+10	1	-1E+10	1	-1E+10	1	-1E+10	1
4901784	164	C	12/31/2019	10:46	-132.688	43.583	0	105.10	0	10.4670	0	34.6690	8	26.615	0	104.234	0	240.2	4	88.1	4	-1E+10	1	-1E+10	1	-1E+10	1	-1E+10	1	-1E+10	1	-1E+10	1
4901784	164	C	12/31/2019	10:46	-132.688	43.583	0	107.60	0	10.2790	0	34.6830	8	26.659	0	106.713	0	239.6	4	87.6	4	-1E+10	1	-1E+10	1	-1E+10	1	-1E+10	1	-1E+10	1	-1E+10	1
4901784	164	C	12/31/2019	10:46	-132.688	43.583	0	110.10	0	10.1700	0	34.7060	8	26.696	0	109.191	0	238.4	4	87.0	4	-1E+10	1	-1E+10	1	-1E+10	1	-1E+10	1	-1E+10	1	-1E+10	1
4901784	164	C	12/31/2019	10:46	-132.688	43.583	0	112.50	0	10.0870	0	34.7210	8	26.722	0	111.571	0	237.4	4	86.5	4	-1E+10	1	-1E+10	1	-1E+10	1	-1E+10	1	-1E+10	1	-1E+10	1
4901784	164	C	12/31/2019	10:46	-132.688	43.583	0	115.00	0	10.0190	0	34.7290	8	26.740	0	114.050	0	236.2	4	85.9	4	-1E+10	1	-1E+10	1	-1E+10	1	-1E+10	1	-1E+10	1	-1E+10	1
4901784	164	C	12/31/2019	10:46	-132.688	43.583	0	117.50	0	9.8660	0	34.7660	8	26.795	0	116.528	0	234.9	4	85.1	4	-1E+10	1	-1E+10	1	-1E+10	1	-1E+10	1	-1E+10	1	-1E+10	1
4901784	164	C	12/31/2019	10:46	-132.688	43.583	0	120.10	0	9.8090	0	34.7810	8	26.816	0	119.106	0	234.1	4	84.8	4	-1E+10	1	-1E+10	1	-1E+10	1	-1E+10	1	-1E+10	1	-1E+10	1
4901784	164	C	12/31/2019	10:46	-132.688	43.583	0	122.70	0	9.7660	0	34.7840	8	26.826	0	121.684	0	232.9	4	84.2	4	-1E+10	1	-1E+10	1	-1E+10	1	-1E+10	1	-1E+10	1	-1E+10	1
4901784	164	C	12/31/2019	10:46	-132.688	43.583	0	125.40	0	9.6100	0	34.8010	8	26.865	0	124.361	0	231.8	4	83.6	4	-1E+10	1	-1E+10	1	-1E+10	1	-1E+10	1	-1E+10	1	-1E+10	1
4901784	164	C	12/31/2019	10:46	-132.688	43.583	0	128.00	0	9.5000	0	34.8360	8	26.911	0	126.938	0	230.4	4	82.9	4	-1E+10	1	-1E+10	1	-1E+10	1	-1E+10	1	-1E+10	1	-1E+10	1
4901784	164	C	12/31/2019	10:46	-132.688	43.583	0	129.70	0	9.4540	0	34.8400	8	26.922	0	128.624	0	229.2	4	82.4	4	-1E+10	1	-1E+10	1	-1E+10	1	-1E+10	1	-1E+10	1	-1E+10	1
4901784	164	C	12/31/2019	10:46	-132.688	43.583	0	132.00	0	9.2260	0	34.8470	8	26.965	0	130.904	0	228.7	4	81.8	4	-1E+10	1	-1E+10	1	-1E+10	1	-1E+10	1	-1E+10	1	-1E+10	1
4901784	164	C	12/31/2019	10:46	-132.688	43.583	0	134.60	0	9.1430	0	34.9160	8	27.032	0	133.481	0	226.6	4	80.9	4	-1E+10	1	-1E+10	1	-1E+10	1	-1E+10	1	-1E+10	1	-1E+10	1
4901784	164	C	12/31/2019	10:46	-132.688	43.583	0	137.80	0	9.0480	0	34.9730	8	27.092	0	136.654	0	224.6	4	80.1	4	-1E+10	1	-1E+10	1	-1E+10	1	-1E+10	1	-1E+10	1	-1E+10	1
4901784	164	C	12/31/2019	10:46	-132.688	43.583	0	140.20	0	8.9750	0	35.0060	8	27.130	0	139.033	0	223.1	4	79.5	4	-1E+10	1	-1E+10	1	-1E+10	1	-1E+10	1	-1E+10	1	-1E+10	1
4901784	164	C	12/31/2019	10:46	-132.688	43.583	0	142.50	0	8.9090	0	35.0260	8	27.156	0	141.313	0	221.8	4	78.9	4	-1E+10	1	-1E+10	1	-1E+10	1	-1E+10	1	-1E+10	1	-1E+10	1
4901784	164	C	12/31/2019	10:46	-132.688	43.583	0	144.80	0	8.7700	0	35.1070	8	27.242	0	143.593	0	219.8	4	78.0	4	-1E+10	1	-1E+10	1	-1E+10	1	-1E+10	1	-1E+10	1	-1E+10	1
4901784	164	C	12/31/2019	10:46	-132.688	43.583	0	147.30	0	8.7230	0	35.1310	8	27.268	0	146.071	0	218.3	4	77.4	4	-1E+10	1	-1E+10	1	-1E+10	1	-1E+10	1	-1E+10	1	-1E+10	1
4901784	164	C	12/31/2019	10:46	-132.688	43.583	0	149.90	0	8.5730	0	35.2200	8	27.361	0	148.649	0	216.8	4	76.6	4	-1E+10	1	-1E+10	1	-1E+10	1	-1E+10	1	-1E+10	1	-1E+10	1
4901784	164	C	12/31/2019	10:46	-132.688	43.583	0	152.10	0	8.4700	0	35.2790	8	27.424	0	150.829	0	216.3	4	76.4	4	-1E+10	1	-1E+10	1	-1E+10	1	-1E+10	1	-1E+10	1	-1E+10	1
4901784	164	C	12/31/2019	10:46	-132.688	43.583	0	154.60	0	8.4430	0	35.3180	8	27.459	0	153.308	0	215.4	4	76.0	4	-1E+10	1	-1E+10	1	-1E+10	1	-1E+10	1	-1E+10	1	-1E+10	1
4901784	164	C	12/31/2019	10:46	-132.688	43.583	0	157.50	0	8.3960	0	35.3530	8	27.493	0	156.182	0	214.2	4	75.5	4	-1E+10	1	-1E+10	1	-1E+10	1	-1E+10	1	-1E+10	1	-1E+10	1
4901784	164	C	12/31/2019	10:46	-132.688	43.583	0	160.40	0	8.3630	0	35.3740	8	27.515	0	159.057	0	212.0	4	74.7	4	-1E+10	1	-1E+10	1	-1E+10	1	-1E+10	1	-1E+10	1	-1E+10	1
4901784	164	C	12/31/2019	10:46	-132.688	43.583	0	162.70	0	8.2380	0	35.4770	8	27.615	0	161.337	0	210.4	4	74.0	4	-1E+10	1	-1E+10	1	-1E+10	1	-1E+10	1	-1E+10	1	-1E+10	1
4901784	164	C	12/31/2019	10:46	-132.688	43.583	0	165.20	0	8.2250	0	35.4880	8	27.626	0	163.815	0	209.5	4	73.6	4	-1E+10	1	-1E+10	1	-1E+10	1	-1E+10	1	-1E+10	1	-1E+10	1
4901784	164	C	12/31/2019	10:46	-132.688	43.583	0	167.80	0	8.1760	0	35.5480	8	27.681	0	166.392	0	208.1	4	73.1	4	-1E+10	1	-1E+10	1	-1E+10	1	-1E+10	1	-1E+10	1	-1E+10	1
4901784	164	C	12/31/2019	10:46	-132.688	43.583	0	170.30	0	8.1450	0	35.5970	8	27.724	0	168.870	0	206.7	4	72.6	4	-1E+10	1	-1E+10	1	-1E+10	1	-1E+10	1	-1E+10	1	-1E+10	1
4901784	164	C	12/31/2019	10:46	-132.688	43.583	0	172.40	0	8.1190	0	35.6420	8	27.763	0	170.952	0	205.4	4	72.1	4	-1E+10	1	-1E+10	1	-1E+10	1	-1E+10	1	-1E+10	1	-1E+10	1
4901784	164	C	12/31/2019	10:46	-132.688	43.583	0	175.40	0	8.0900	0	35.7030	8	27.816	0	173.925	0	203.4	4	71.4	4	-1E+10	1	-1E+10	1	-1E+10	1	-1E+10	1	-1E+10	1	-1E+10	1
4901784	164	C	12/31/2019	10:46	-132.688	43.583	0	177.50	0	8.0750	0	35.7370	8	27.845	0	176.007	0	201.9	4	70.9	4	-1E+10	1	-1E+10	1	-1E+10	1	-1E+10	1	-1E+10	1	-1E+10	1
4901784	164	C	12/31/2019	10:46	-132.688	43.583	0	179.70	0	8.0610	0	35.7900	8	27.888	0	178.187	0	200.3	4	70.3	4	-1E+10	1	-1E+10	1	-1E+10	1	-1E+10	1	-1E+10	1	-1E+10	1
4901784	164	C	12/31/2019	10:46	-132.688	43.583	0	182.80	0	8.0570	0	35.8030	8	27.899	0	181.260	0	198.1	4	69.5	4	-1E+10	1	-1E+10	1	-1E+10	1	-1E+10	1	-1E+10	1	-1E+10	1
4901784	164	C	12/31/2019	10:46	-132.688	43.583	0	185.20	0	8.0520	0	35.8330	8	27.924	0	183.638	0	195.5	4	68.7	4	-1E+10	1	-1E+10	1	-1E+10	1	-1E+10	1	-1E+10	1	-1E+10	1
4901784	164	C	12/31/2019	10:46	-132.688	43.583	0	187.70	0	8.0610	0	35.8660	8	27.948	0	186.116	0	192.1	4	67.5	4	-1E+10	1	-1E+10	1	-1E+10	1	-1E+10	1	-1E+10	1	-1E+10	1
4901784	164	C	12/31/2019	10:46	-132.688	43.583	0	190.10	0	8.0720	0	35.8920	8	27.967	0	188.495	0	188.4	4	66.2	4	-1E+10	1	-1E+10	1	-1E+10	1	-1E+10	1	-1E+10	1	-1E+10	1
4901784	164	C	12/31/2019	10:46	-132.688	43.583	0	192.50	0	8.1030	0	35.9360	8	27.997	0	190.873	0	183.4	4	64.5	4	-1E+10	1	-1E+10	1	-1E+10	1	-1E+10	1	-1E+10	1	-1E+10	1
4901784	164	C	12/31/2019	10:46	-132.688	43.583	0	194.90	0	8.1380	0	35.9930	8	28.036	0	193.252	0	179.0	4	63.0	4	-1E+10	1	-1E+10	1	-1E+10	1	-1E+10	1	-1E+10	1	-1E+10	1
4901784	164	C	12/31/2019	10:46	-132.688	43.583	0	197.50	0	8.1490	0	36.0410	8	28.072	0	195.829	0	175.7	4	61.9	4	-1E+10	1	-1E+10	1	-1E+10	1	-1E+10	1	-1E+10	1	-1E+10	1
4901784	164	C	12/31/2019	10:46	-132.688	43.583	0	200.00	0	8.1500	0	36.0670	8	28.093	0	198.306	0	173.1	4	61.0	4	-1E+10	1	-1E+10	1	-1E+10	1	-1E+10	1	-1E+10	1	-1E+10	1
4901784	164	C	12/31/2019	10:46	-132.688	43.583	0	202.60	0	8.1650	0	36.0830	8	28.103	0	200.883	0	170.8	4	60.2	4	-1E+10	1	-1E+10	1	-1E+10	1	-1E+10	1	-1E+10	1	-1E+10	1
4901784	164	C	12/31/2019	10:46	-132.688	43.583	0	205.20	0	8.1740	0	36.1000	8	28.115	0	203.460	0	169.0	4	59.6	4	-1E+10	1	-1E+10	1	-1E+10	1	-1E+10	1	-1E+10	1	-1E+10	1
4901784	164	C	12/31/2019	10:46	-132.688	43.583	0	207.80	0	8.1680	0	36.1110	8	28.125	0	206.036	0	168.2	4	59.3	4	-1E+10	1	-1E+10	1	-1E+10	1	-1E+10	1	-1E+10	1	-1E+10	1
4901784	164	C	12/31/2019	10:46	-132.688	43.583	0	210.40	0	8.1610	0	36.1200	8	28.133	0	208.613	0	167.4	4	59.0	4	-1E+10	1	-1E+10	1	-1E+10	1	-1E+10	1	-1E+10	1	-1E+10	1
4901784	164	C	12/31/2019	10:46	-132.688	43.583	0	212.20	0	8.1570	0	36.1230	8	28.136	0	210.397	0	166.7	4	58.8	4	-1E+10	1	-1E+10	1	-1E+10	1	-1E+10	1	-1E+10	1	-1E+10	1
4901784	164	C	12/31/2019	10:46	-132.688	43.583	0	214.90	0	8.1310	0	36.1390	8	28.153	0	213.073	0	166.2	4	58.6	4	-1E+10	1	-1E+10	1	-1E+10	1	-1E+10	1	-1E+10	1	-1E+10	1
4901784	164	C	12/31/2019	10:46	-132.688	43.583	0	217.70	0	8.1100	0	36.1470	8	28.162	0	215.847	0	165.7	4	58.4	4	-1E+10	1	-1E+10	1	-1E+10	1	-1E+10	1	-1E+10	1	-1E+10	1
4901784	164	C	12/31/2019	10:46	-132.688	43.583	0	219.50	0	8.0930	0	36.1530	8	28.169	0	217.631	0	165.1	4	58.1	4	-1E+10	1	-1E+10	1	-1E+10	1	-1E+10	1	-1E+10	1	-1E+10	1
4901784	164	C	12/31/2019	10:46	-132.688	43.583	0	222.30	0	8.0750	0	36.1590	8	28.177	0	220.406	0	164.2	4	57.8	4	-1E+10	1	-1E+10	1	-1E+10	1	-1E+10	1	-1E+10	1	-1E+10	1
4901784	164	C	12/31/2019	10:46	-132.688	43.583	0	225.00	0	8.0580	0	36.1640	8	28.184	0	223.081	0	163.5	4	57.5	4	-1E+10	1	-1E+10	1	-1E+10	1	-1E+10	1	-1E+10	1	-1E+10	1
4901784	164	C	12/31/2019	10:46	-132.688	43.583	0	227.80	0	8.0340	0	36.1680	8	28.190	0	225.856	0	162.9	4	57.3	4	-1E+10	1	-1E+10	1	-1E+10	1	-1E+10	1	-1E+10	1	-1E+10	1
4901784	164	C	12/31/2019	10:46	-132.688	43.583	0	230.50	0	8.0080	0	36.1700	8	28.196	0	228.531	0	162.0	4	57.0	4	-1E+10	1	-1E+10	1	-1E+10	1	-1E+10	1	-1E+10	1	-1E+10	1
4901784	164	C	12/31/2019	10:46	-132.688	43.583	0	232.30	0	7.9760	0	36.1720	8	28.202	0	230.315	0	161.5	4	56.7	4	-1E+10	1	-1E+10	1	-1E+10	1	-1E+10	1	-1E+10	1	-1E+10	1
4901784	164	C	12/31/2019	10:46	-132.688	43.583	0	235.20	0	7.9080	0	36.1730	8	28.214	0	233.188	0	160.6	4	56.3	4	-1E+10	1	-1E+10	1	-1E+10	1	-1E+10	1	-1E+10	1	-1E+10	1
4901784	164	C	12/31/2019	10:46	-132.688	43.583	0	237.90	0	7.8400	0	36.1740	8	28.225	0	235.864	0	159.6	4	55.9	4	-1E+10	1	-1E+10	1	-1E+10	1	-1E+10	1	-1E+10	1	-1E+10	1
4901784	164	C	12/31/2019	10:46	-132.688	43.583	0	239.60	0	7.8220	0	36.1740	8	28.227	0	237.548	0	159.0	4	55.7	4	-1E+10	1	-1E+10	1	-1E+10	1	-1E+10	1	-1E+10	1	-1E+10	1
4901784	164	C	12/31/2019	10:46	-132.688	43.583	0	242.40	0	7.7330	0	36.1780	8	28.244	0	240.323	0	158.2	4	55.3	4	-1E+10	1	-1E+10	1	-1E+10	1	-1E+10	1	-1E+10	1	-1E+10	1
4901784	164	C	12/31/2019	10:46	-132.688	43.583	0	245.10	0	7.7060	0	36.1770	8	28.247	0	242.998	0	157.8	4	55.1	4	-1E+10	1	-1E+10	1	-1E+10	1	-1E+10	1	-1E+10	1	-1E+10	1
4901784	164	C	12/31/2019	10:46	-132.688	43.583	0	247.80	0	7.6760	0	36.1780	8	28.253	0	245.673	0	157.3	4	54.9	4	-1E+10	1	-1E+10	1	-1E+10	1	-1E+10	1	-1E+10	1	-1E+10	1
4901784	164	C	12/31/2019	10:46	-132.688	43.583	0	250.50	0	7.6320	0	36.1780	8	28.259	0	248.348	0	157.0	4	54.7	4	-1E+10	1	-1E+10	1	-1E+10	1	-1E+10	1	-1E+10	1	-1E+10	1
4901784	164	C	12/31/2019	10:46	-132.688	43.583	0	252.40	0	7.6150	0	36.1790	8	28.263	0	250.231	0	156.9	4	54.7	4	-1E+10	1	-1E+10	1	-1E+10	1	-1E+10	1	-1E+10	1	-1E+10	1
4901784	164	C	12/31/2019	10:46	-132.688	43.583	0	255.20	0	7.5940	0	36.1790	8	28.266	0	253.005	0	156.7	4	54.6	4	-1E+10	1	-1E+10	1	-1E+10	1	-1E+10	1	-1E+10	1	-1E+10	1
4901784	164	C	12/31/2019	10:46	-132.688	43.583	0	257.90	0	7.5800	0	36.1780	8	28.267	0	255.680	0	156.5	4	54.5	4	-1E+10	1	-1E+10	1	-1E+10	1	-1E+10	1	-1E+10	1	-1E+10	1
4901784	164	C	12/31/2019	10:46	-132.688	43.583	0	259.70	0	7.5380	0	36.1800	8	28.275	0	257.464	0	156.4	4	54.4	4	-1E+10	1	-1E+10	1	-1E+10	1	-1E+10	1	-1E+10	1	-1E+10	1
4901784	164	C	12/31/2019	10:46	-132.688	43.583	0	262.50	0	7.5220	0	36.1820	8	28.279	0	260.238	0	156.3	4	54.4	4	-1E+10	1	-1E+10	1	-1E+10	1	-1E+10	1	-1E+10	1	-1E+10	1
4901784	164	C	12/31/2019	10:46	-132.688	43.583	0	265.30	0	7.5080	0	36.1800	8	28.279	0	263.012	0	156.1	4	54.3	4	-1E+10	1	-1E+10	1	-1E+10	1	-1E+10	1	-1E+10	1	-1E+10	1
4901784	164	C	12/31/2019	10:46	-132.688	43.583	0	267.10	0	7.5010	0	36.1780	8	28.279	0	264.795	0	155.8	4	54.2	4	-1E+10	1	-1E+10	1	-1E+10	1	-1E+10	1	-1E+10	1	-1E+10	1
4901784	164	C	12/31/2019	10:46	-132.688	43.583	0	269.90	0	7.4470	0	36.1800	8	28.288	0	267.569	0	155.6	4	54.0	4	-1E+10	1	-1E+10	1	-1E+10	1	-1E+10	1	-1E+10	1	-1E+10	1
4901784	164	C	12/31/2019	10:46	-132.688	43.583	0	272.70	0	7.3940	0	36.1820	8	28.298	0	270.343	0	155.2	4	53.8	4	-1E+10	1	-1E+10	1	-1E+10	1	-1E+10	1	-1E+10	1	-1E+10	1
4901784	164	C	12/31/2019	10:46	-132.688	43.583	0	274.60	0	7.3480	0	36.1830	8	28.305	0	272.226	0	154.6	4	53.6	4	-1E+10	1	-1E+10	1	-1E+10	1	-1E+10	1	-1E+10	1	-1E+10	1
4901784	164	C	12/31/2019	10:46	-132.688	43.583	0	277.30	0	7.3190	0	36.1830	8	28.310	0	274.900	0	153.9	4	53.3	4	-1E+10	1	-1E+10	1	-1E+10	1	-1E+10	1	-1E+10	1	-1E+10	1
4901784	164	C	12/31/2019	10:46	-132.688	43.583	0	280.10	0	7.3060	0	36.1820	8	28.311	0	277.674	0	152.9	4	52.9	4	-1E+10	1	-1E+10	1	-1E+10	1	-1E+10	1	-1E+10	1	-1E+10	1
4901784	164	C	12/31/2019	10:46	-132.688	43.583	0	282.00	0	7.2920	0	36.1800	8	28.311	0	279.557	0	152.0	4	52.6	4	-1E+10	1	-1E+10	1	-1E+10	1	-1E+10	1	-1E+10	1	-1E+10	1
4901784	164	C	12/31/2019	10:46	-132.688	43.583	0	284.80	0	7.2310	0	36.1810	8	28.321	0	282.330	0	150.8	4	52.1	4	-1E+10	1	-1E+10	1	-1E+10	1	-1E+10	1	-1E+10	1	-1E+10	1
4901784	164	C	12/31/2019	10:46	-132.688	43.583	0	287.60	0	7.1920	0	36.1790	8	28.325	0	285.104	0	149.6	4	51.7	4	-1E+10	1	-1E+10	1	-1E+10	1	-1E+10	1	-1E+10	1	-1E+10	1
4901784	164	C	12/31/2019	10:46	-132.688	43.583	0	289.50	0	7.1780	0	36.1790	8	28.327	0	286.986	0	148.6	4	51.3	4	-1E+10	1	-1E+10	1	-1E+10	1	-1E+10	1	-1E+10	1	-1E+10	1
4901784	164	C	12/31/2019	10:46	-132.688	43.583	0	292.40	0	7.1080	0	36.1800	8	28.338	0	289.859	0	147.2	4	50.7	4	-1E+10	1	-1E+10	1	-1E+10	1	-1E+10	1	-1E+10	1	-1E+10	1
4901784	164	C	12/31/2019	10:46	-132.688	43.583	0	295.30	0	7.0730	0	36.1790	8	28.342	0	292.732	0	145.9	4	50.2	4	-1E+10	1	-1E+10	1	-1E+10	1	-1E+10	1	-1E+10	1	-1E+10	1
4901784	164	C	12/31/2019	10:46	-132.688	43.583	0	297.20	0	7.0410	0	36.1780	8	28.346	0	294.614	0	145.2	4	49.9	4	-1E+10	1	-1E+10	1	-1E+10	1	-1E+10	1	-1E+10	1	-1E+10	1
4901784	164	C	12/31/2019	10:46	-132.688	43.583	0	299.90	0	6.9810	0	36.1810	8	28.357	0	297.289	0	144.2	4	49.6	4	-1E+10	1	-1E+10	1	-1E+10	1	-1E+10	1	-1E+10	1	-1E+10	1
4901784	164	C	12/31/2019	10:46	-132.688	43.583	0	302.70	0	6.9560	0	36.1810	8	28.360	0	300.062	0	143.5	4	49.3	4	-1E+10	1	-1E+10	1	-1E+10	1	-1E+10	1	-1E+10	1	-1E+10	1
4901784	164	C	12/31/2019	10:46	-132.688	43.583	0	304.60	0	6.9430	0	36.1810	8	28.362	0	301.944	0	142.9	4	49.1	4	-1E+10	1	-1E+10	1	-1E+10	1	-1E+10	1	-1E+10	1	-1E+10	1
4901784	164	C	12/31/2019	10:46	-132.688	43.583	0	307.40	0	6.9130	0	36.1800	8	28.366	0	304.718	0	141.6	4	48.6	4	-1E+10	1	-1E+10	1	-1E+10	1	-1E+10	1	-1E+10	1	-1E+10	1
4901784	164	C	12/31/2019	10:46	-132.688	43.583	0	310.20	0	6.8740	0	36.1800	8	28.371	0	307.491	0	140.2	4	48.1	4	-1E+10	1	-1E+10	1	-1E+10	1	-1E+10	1	-1E+10	1	-1E+10	1
4901784	164	C	12/31/2019	10:46	-132.688	43.583	0	312.10	0	6.8590	0	36.1780	8	28.372	0	309.373	0	139.2	4	47.7	4	-1E+10	1	-1E+10	1	-1E+10	1	-1E+10	1	-1E+10	1	-1E+10	1
4901784	164	C	12/31/2019	10:46	-132.688	43.583	0	314.90	0	6.7970	0	36.1810	8	28.383	0	312.147	0	137.5	4	47.0	4	-1E+10	1	-1E+10	1	-1E+10	1	-1E+10	1	-1E+10	1	-1E+10	1
4901784	164	C	12/31/2019	10:46	-132.688	43.583	0	317.70	0	6.7460	0	36.1820	8	28.391	0	314.920	0	135.9	4	46.4	4	-1E+10	1	-1E+10	1	-1E+10	1	-1E+10	1	-1E+10	1	-1E+10	1
4901784	164	C	12/31/2019	10:46	-132.688	43.583	0	319.60	0	6.7260	0	36.1820	8	28.393	0	316.802	0	134.9	4	46.1	4	-1E+10	1	-1E+10	1	-1E+10	1	-1E+10	1	-1E+10	1	-1E+10	1
4901784	164	C	12/31/2019	10:46	-132.688	43.583	0	322.40	0	6.6930	0	36.1810	8	28.397	0	319.575	0	133.0	4	45.4	4	-1E+10	1	-1E+10	1	-1E+10	1	-1E+10	1	-1E+10	1	-1E+10	1
4901784	164	C	12/31/2019	10:46	-132.688	43.583	0	325.30	0	6.6520	0	36.1800	8	28.402	0	322.448	0	130.8	4	44.6	4	-1E+10	1	-1E+10	1	-1E+10	1	-1E+10	1	-1E+10	1	-1E+10	1
4901784	164	C	12/31/2019	10:46	-132.688	43.583	0	327.10	0	6.6250	0	36.1790	8	28.405	0	324.231	0	129.0	4	44.0	4	-1E+10	1	-1E+10	1	-1E+10	1	-1E+10	1	-1E+10	1	-1E+10	1
4901784	164	C	12/31/2019	10:46	-132.688	43.583	0	330.00	0	6.5360	0	36.1840	8	28.421	0	327.103	0	127.3	4	43.3	4	-1E+10	1	-1E+10	1	-1E+10	1	-1E+10	1	-1E+10	1	-1E+10	1
4901784	164	C	12/31/2019	10:46	-132.688	43.583	0	332.80	0	6.5100	0	36.1840	8	28.425	0	329.876	0	125.9	4	42.8	4	-1E+10	1	-1E+10	1	-1E+10	1	-1E+10	1	-1E+10	1	-1E+10	1
4901784	164	C	12/31/2019	10:46	-132.688	43.583	0	334.70	0	6.4950	0	36.1830	8	28.426	0	331.758	0	125.1	4	42.5	4	-1E+10	1	-1E+10	1	-1E+10	1	-1E+10	1	-1E+10	1	-1E+10	1
4901784	164	C	12/31/2019	10:46	-132.688	43.583	0	337.60	0	6.4560	0	36.1850	8	28.433	0	334.630	0	124.0	4	42.1	4	-1E+10	1	-1E+10	1	-1E+10	1	-1E+10	1	-1E+10	1	-1E+10	1
4901784	164	C	12/31/2019	10:46	-132.688	43.583	0	340.50	0	6.4500	0	36.1820	8	28.432	0	337.502	0	122.6	4	41.6	4	-1E+10	1	-1E+10	1	-1E+10	1	-1E+10	1	-1E+10	1	-1E+10	1
4901784	164	C	12/31/2019	10:46	-132.688	43.583	0	342.40	0	6.4150	0	36.1840	8	28.438	0	339.384	0	121.4	4	41.2	4	-1E+10	1	-1E+10	1	-1E+10	1	-1E+10	1	-1E+10	1	-1E+10	1
4901784	164	C	12/31/2019	10:46	-132.688	43.583	0	344.40	0	6.3730	0	36.1850	8	28.444	0	341.365	0	120.4	4	40.8	4	-1E+10	1	-1E+10	1	-1E+10	1	-1E+10	1	-1E+10	1	-1E+10	1
4901784	164	C	12/31/2019	10:46	-132.688	43.583	0	347.30	0	6.3440	0	36.1860	8	28.449	0	344.237	0	118.8	4	40.2	4	-1E+10	1	-1E+10	1	-1E+10	1	-1E+10	1	-1E+10	1	-1E+10	1
4901784	164	C	12/31/2019	10:46	-132.688	43.583	0	350.20	0	6.2990	0	36.1870	8	28.456	0	347.109	0	117.1	4	39.6	4	-1E+10	1	-1E+10	1	-1E+10	1	-1E+10	1	-1E+10	1	-1E+10	1
4901784	164	C	12/31/2019	10:46	-132.688	43.583	0	352.10	0	6.2810	0	36.1860	8	28.458	0	348.990	0	116.1	4	39.3	4	-1E+10	1	-1E+10	1	-1E+10	1	-1E+10	1	-1E+10	1	-1E+10	1
4901784	164	C	12/31/2019	10:46	-132.688	43.583	0	354.90	0	6.2560	0	36.1850	8	28.460	0	351.763	0	114.7	4	38.8	4	-1E+10	1	-1E+10	1	-1E+10	1	-1E+10	1	-1E+10	1	-1E+10	1
4901784	164	C	12/31/2019	10:46	-132.688	43.583	0	357.60	0	6.2190	0	36.1840	8	28.464	0	354.437	0	113.2	4	38.2	4	-1E+10	1	-1E+10	1	-1E+10	1	-1E+10	1	-1E+10	1	-1E+10	1
4901784	164	C	12/31/2019	10:46	-132.688	43.583	0	359.50	0	6.1430	0	36.1900	8	28.479	0	356.319	0	112.1	4	37.8	4	-1E+10	1	-1E+10	1	-1E+10	1	-1E+10	1	-1E+10	1	-1E+10	1
4901784	164	C	12/31/2019	10:46	-132.688	43.583	0	362.30	0	6.1170	0	36.1910	8	28.483	0	359.091	0	111.5	4	37.6	4	-1E+10	1	-1E+10	1	-1E+10	1	-1E+10	1	-1E+10	1	-1E+10	1
4901784	164	C	12/31/2019	10:46	-132.688	43.583	0	365.10	0	6.1060	0	36.1910	8	28.485	0	361.864	0	110.7	4	37.3	4	-1E+10	1	-1E+10	1	-1E+10	1	-1E+10	1	-1E+10	1	-1E+10	1
4901784	164	C	12/31/2019	10:46	-132.688	43.583	0	366.90	0	6.1070	0	36.1890	8	28.483	0	363.647	0	110.0	4	37.1	4	-1E+10	1	-1E+10	1	-1E+10	1	-1E+10	1	-1E+10	1	-1E+10	1
4901784	164	C	12/31/2019	10:46	-132.688	43.583	0	369.70	0	6.0860	0	36.1880	8	28.485	0	366.419	0	108.6	4	36.5	4	-1E+10	1	-1E+10	1	-1E+10	1	-1E+10	1	-1E+10	1	-1E+10	1
4901784	164	C	12/31/2019	10:46	-132.688	43.583	0	372.50	0	6.0450	0	36.1870	8	28.490	0	369.192	0	106.9	4	36.0	4	-1E+10	1	-1E+10	1	-1E+10	1	-1E+10	1	-1E+10	1	-1E+10	1
4901784	164	C	12/31/2019	10:46	-132.688	43.583	0	374.40	0	6.0110	0	36.1880	8	28.495	0	371.073	0	105.5	4	35.5	4	-1E+10	1	-1E+10	1	-1E+10	1	-1E+10	1	-1E+10	1	-1E+10	1
4901784	164	C	12/31/2019	10:46	-132.688	43.583	0	377.30	0	5.9430	0	36.1890	8	28.505	0	373.945	0	103.4	4	34.7	4	-1E+10	1	-1E+10	1	-1E+10	1	-1E+10	1	-1E+10	1	-1E+10	1
4901784	164	C	12/31/2019	10:46	-132.688	43.583	0	380.10	0	5.8630	0	36.1910	8	28.517	0	376.718	0	102.1	4	34.2	4	-1E+10	1	-1E+10	1	-1E+10	1	-1E+10	1	-1E+10	1	-1E+10	1
4901784	164	C	12/31/2019	10:46	-132.688	43.583	0	382.00	0	5.8480	0	36.1910	8	28.519	0	378.599	0	101.4	4	33.9	4	-1E+10	1	-1E+10	1	-1E+10	1	-1E+10	1	-1E+10	1	-1E+10	1
4901784	164	C	12/31/2019	10:46	-132.688	43.583	0	384.90	0	5.8100	0	36.1920	8	28.524	0	381.470	0	100.1	4	33.5	4	-1E+10	1	-1E+10	1	-1E+10	1	-1E+10	1	-1E+10	1	-1E+10	1
4901784	164	C	12/31/2019	10:46	-132.688	43.583	0	387.80	0	5.7790	0	36.1920	8	28.529	0	384.342	0	99.4	4	33.2	4	-1E+10	1	-1E+10	1	-1E+10	1	-1E+10	1	-1E+10	1	-1E+10	1
4901784	164	C	12/31/2019	10:46	-132.688	43.583	0	389.70	0	5.7770	0	36.1910	8	28.528	0	386.223	0	98.8	4	33.0	4	-1E+10	1	-1E+10	1	-1E+10	1	-1E+10	1	-1E+10	1	-1E+10	1
4901784	164	C	12/31/2019	10:46	-132.688	43.583	0	392.60	0	5.7500	0	36.1900	8	28.531	0	389.095	0	97.7	4	32.7	4	-1E+10	1	-1E+10	1	-1E+10	1	-1E+10	1	-1E+10	1	-1E+10	1
4901784	164	C	12/31/2019	10:46	-132.688	43.583	0	395.60	0	5.7280	0	36.1880	8	28.532	0	392.065	0	96.6	4	32.3	4	-1E+10	1	-1E+10	1	-1E+10	1	-1E+10	1	-1E+10	1	-1E+10	1
4901784	164	C	12/31/2019	10:46	-132.688	43.583	0	397.50	0	5.6730	0	36.1930	8	28.543	0	393.946	0	95.7	4	31.9	4	-1E+10	1	-1E+10	1	-1E+10	1	-1E+10	1	-1E+10	1	-1E+10	1
4901784	164	C	12/31/2019	10:46	-132.688	43.583	0	399.40	0	5.6480	0	36.1940	8	28.547	0	395.827	0	95.1	4	31.7	4	-1E+10	1	-1E+10	1	-1E+10	1	-1E+10	1	-1E+10	1	-1E+10	1
4901784	164	C	12/31/2019	10:46	-132.688	43.583	0	401.90	0	5.6390	0	36.1920	8	28.546	0	398.303	0	94.1	4	31.4	4	-1E+10	1	-1E+10	1	-1E+10	1	-1E+10	1	-1E+10	1	-1E+10	1
4901784	164	C	12/31/2019	10:46	-132.688	43.583	0	404.60	0	5.5910	0	36.1930	8	28.553	0	400.976	0	92.4	4	30.8	4	-1E+10	1	-1E+10	1	-1E+10	1	-1E+10	1	-1E+10	1	-1E+10	1
4901784	164	C	12/31/2019	10:46	-132.688	43.583	0	407.80	0	5.5410	0	36.1940	8	28.560	0	404.144	0	91.0	4	30.3	4	-1E+10	1	-1E+10	1	-1E+10	1	-1E+10	1	-1E+10	1	-1E+10	1
4901784	164	C	12/31/2019	10:46	-132.688	43.583	0	410.20	0	5.5210	0	36.1920	8	28.561	0	406.520	0	89.9	4	29.9	4	-1E+10	1	-1E+10	1	-1E+10	1	-1E+10	1	-1E+10	1	-1E+10	1
4901784	164	C	12/31/2019	10:46	-132.688	43.583	0	412.70	0	5.4830	0	36.1920	8	28.566	0	408.995	0	88.8	4	29.5	4	-1E+10	1	-1E+10	1	-1E+10	1	-1E+10	1	-1E+10	1	-1E+10	1
4901784	164	C	12/31/2019	10:46	-132.688	43.583	0	415.10	0	5.4050	0	36.2000	8	28.582	0	411.371	0	87.6	4	29.0	4	-1E+10	1	-1E+10	1	-1E+10	1	-1E+10	1	-1E+10	1	-1E+10	1
4901784	164	C	12/31/2019	10:46	-132.688	43.583	0	417.60	0	5.3870	0	36.2000	8	28.584	0	413.846	0	86.9	4	28.8	4	-1E+10	1	-1E+10	1	-1E+10	1	-1E+10	1	-1E+10	1	-1E+10	1
4901784	164	C	12/31/2019	10:46	-132.688	43.583	0	420.00	0	5.3800	0	36.1980	8	28.584	0	416.222	0	86.3	4	28.6	4	-1E+10	1	-1E+10	1	-1E+10	1	-1E+10	1	-1E+10	1	-1E+10	1
4901784	164	C	12/31/2019	10:46	-132.688	43.583	0	422.50	0	5.3540	0	36.2010	8	28.589	0	418.697	0	85.4	4	28.3	4	-1E+10	1	-1E+10	1	-1E+10	1	-1E+10	1	-1E+10	1	-1E+10	1
4901784	164	C	12/31/2019	10:46	-132.688	43.583	0	424.90	0	5.3380	0	36.2010	8	28.591	0	421.073	0	84.5	4	28.0	4	-1E+10	1	-1E+10	1	-1E+10	1	-1E+10	1	-1E+10	1	-1E+10	1
4901784	164	C	12/31/2019	10:46	-132.688	43.583	0	427.30	0	5.3250	0	36.2010	8	28.593	0	423.449	0	83.2	4	27.5	4	-1E+10	1	-1E+10	1	-1E+10	1	-1E+10	1	-1E+10	1	-1E+10	1
4901784	164	C	12/31/2019	10:46	-132.688	43.583	0	429.80	0	5.2960	0	36.2010	8	28.597	0	425.924	0	81.6	4	27.0	4	-1E+10	1	-1E+10	1	-1E+10	1	-1E+10	1	-1E+10	1	-1E+10	1
4901784	164	C	12/31/2019	10:46	-132.688	43.583	0	432.30	0	5.2710	0	36.2020	8	28.600	0	428.399	0	80.1	4	26.5	4	-1E+10	1	-1E+10	1	-1E+10	1	-1E+10	1	-1E+10	1	-1E+10	1
4901784	164	C	12/31/2019	10:46	-132.688	43.583	0	434.80	0	5.2290	0	36.2040	8	28.607	0	430.874	0	78.5	4	25.9	4	-1E+10	1	-1E+10	1	-1E+10	1	-1E+10	1	-1E+10	1	-1E+10	1
4901784	164	C	12/31/2019	10:46	-132.688	43.583	0	437.20	0	5.1810	0	36.2070	8	28.615	0	433.250	0	76.8	4	25.3	4	-1E+10	1	-1E+10	1	-1E+10	1	-1E+10	1	-1E+10	1	-1E+10	1
4901784	164	C	12/31/2019	10:46	-132.688	43.583	0	439.80	0	5.1380	0	36.2110	8	28.624	0	435.824	0	75.8	4	25.0	4	-1E+10	1	-1E+10	1	-1E+10	1	-1E+10	1	-1E+10	1	-1E+10	1
4901784	164	C	12/31/2019	10:46	-132.688	43.583	0	442.20	0	5.1100	0	36.2140	8	28.630	0	438.199	0	74.9	4	24.7	4	-1E+10	1	-1E+10	1	-1E+10	1	-1E+10	1	-1E+10	1	-1E+10	1
4901784	164	C	12/31/2019	10:46	-132.688	43.583	0	444.70	0	5.0810	0	36.2170	8	28.636	0	440.674	0	74.3	4	24.4	4	-1E+10	1	-1E+10	1	-1E+10	1	-1E+10	1	-1E+10	1	-1E+10	1
4901784	164	C	12/31/2019	10:46	-132.688	43.583	0	447.20	0	5.0640	0	36.2190	8	28.639	0	443.149	0	73.7	4	24.2	4	-1E+10	1	-1E+10	1	-1E+10	1	-1E+10	1	-1E+10	1	-1E+10	1
4901784	164	C	12/31/2019	10:46	-132.688	43.583	0	449.70	0	5.0580	0	36.2190	8	28.640	0	445.623	0	73.2	4	24.1	4	-1E+10	1	-1E+10	1	-1E+10	1	-1E+10	1	-1E+10	1	-1E+10	1
4901784	164	C	12/31/2019	10:46	-132.688	43.583	0	452.30	0	5.0470	0	36.2200	8	28.642	0	448.197	0	72.3	4	23.8	4	-1E+10	1	-1E+10	1	-1E+10	1	-1E+10	1	-1E+10	1	-1E+10	1
4901784	164	C	12/31/2019	10:46	-132.688	43.583	0	454.80	0	5.0320	0	36.2200	8	28.644	0	450.672	0	71.2	4	23.4	4	-1E+10	1	-1E+10	1	-1E+10	1	-1E+10	1	-1E+10	1	-1E+10	1
4901784	164	C	12/31/2019	10:46	-132.688	43.583	0	457.40	0	4.9860	0	36.2270	8	28.655	0	453.245	0	69.7	4	22.9	4	-1E+10	1	-1E+10	1	-1E+10	1	-1E+10	1	-1E+10	1	-1E+10	1
4901784	164	C	12/31/2019	10:46	-132.688	43.583	0	460.00	0	4.9660	0	36.2300	8	28.660	0	455.819	0	68.4	4	22.4	4	-1E+10	1	-1E+10	1	-1E+10	1	-1E+10	1	-1E+10	1	-1E+10	1
4901784	164	C	12/31/2019	10:46	-132.688	43.583	0	462.50	0	4.9460	0	36.2320	8	28.664	0	458.293	0	67.0	4	22.0	4	-1E+10	1	-1E+10	1	-1E+10	1	-1E+10	1	-1E+10	1	-1E+10	1
4901784	164	C	12/31/2019	10:46	-132.688	43.583	0	465.10	0	4.9270	0	36.2340	8	28.668	0	460.867	0	65.5	4	21.5	4	-1E+10	1	-1E+10	1	-1E+10	1	-1E+10	1	-1E+10	1	-1E+10	1
4901784	164	C	12/31/2019	10:46	-132.688	43.583	0	467.70	0	4.8860	0	36.2440	8	28.680	0	463.440	0	64.3	4	21.0	4	-1E+10	1	-1E+10	1	-1E+10	1	-1E+10	1	-1E+10	1	-1E+10	1
4901784	164	C	12/31/2019	10:46	-132.688	43.583	0	470.30	0	4.8760	0	36.2440	8	28.682	0	466.014	0	63.2	4	20.7	4	-1E+10	1	-1E+10	1	-1E+10	1	-1E+10	1	-1E+10	1	-1E+10	1
4901784	164	C	12/31/2019	10:46	-132.688	43.583	0	472.10	0	4.8500	0	36.2510	8	28.690	0	467.795	0	62.5	4	20.4	4	-1E+10	1	-1E+10	1	-1E+10	1	-1E+10	1	-1E+10	1	-1E+10	1
4901784	164	C	12/31/2019	10:46	-132.688	43.583	0	474.70	0	4.8390	0	36.2530	8	28.693	0	470.369	0	61.7	4	20.2	4	-1E+10	1	-1E+10	1	-1E+10	1	-1E+10	1	-1E+10	1	-1E+10	1
4901784	164	C	12/31/2019	10:46	-132.688	43.583	0	477.40	0	4.8230	0	36.2570	8	28.698	0	473.041	0	60.9	4	19.9	4	-1E+10	1	-1E+10	1	-1E+10	1	-1E+10	1	-1E+10	1	-1E+10	1
4901784	164	C	12/31/2019	10:46	-132.688	43.583	0	480.10	0	4.8180	0	36.2590	8	28.700	0	475.713	0	60.3	4	19.7	4	-1E+10	1	-1E+10	1	-1E+10	1	-1E+10	1	-1E+10	1	-1E+10	1
4901784	164	C	12/31/2019	10:46	-132.688	43.583	0	482.80	0	4.8160	0	36.2580	8	28.700	0	478.385	0	59.4	4	19.4	4	-1E+10	1	-1E+10	1	-1E+10	1	-1E+10	1	-1E+10	1	-1E+10	1
4901784	164	C	12/31/2019	10:46	-132.688	43.583	0	484.60	0	4.7980	0	36.2630	8	28.706	0	480.167	0	58.8	4	19.2	4	-1E+10	1	-1E+10	1	-1E+10	1	-1E+10	1	-1E+10	1	-1E+10	1
4901784	164	C	12/31/2019	10:46	-132.688	43.583	0	487.30	0	4.7880	0	36.2660	8	28.710	0	482.839	0	57.9	4	18.9	4	-1E+10	1	-1E+10	1	-1E+10	1	-1E+10	1	-1E+10	1	-1E+10	1
4901784	164	C	12/31/2019	10:46	-132.688	43.583	0	490.00	0	4.7830	0	36.2670	8	28.711	0	485.511	0	57.0	4	18.6	4	-1E+10	1	-1E+10	1	-1E+10	1	-1E+10	1	-1E+10	1	-1E+10	1
4901784	164	C	12/31/2019	10:46	-132.688	43.583	0	492.80	0	4.7680	0	36.2720	8	28.717	0	488.282	0	56.0	4	18.3	4	-1E+10	1	-1E+10	1	-1E+10	1	-1E+10	1	-1E+10	1	-1E+10	1
4901784	164	C	12/31/2019	10:46	-132.688	43.583	0	495.50	0	4.7610	0	36.2730	8	28.718	0	490.954	0	54.8	4	17.9	4	-1E+10	1	-1E+10	1	-1E+10	1	-1E+10	1	-1E+10	1	-1E+10	1
4901784	164	C	12/31/2019	10:46	-132.688	43.583	0	497.30	0	4.7500	0	36.2770	8	28.723	0	492.735	0	53.8	4	17.6	4	-1E+10	1	-1E+10	1	-1E+10	1	-1E+10	1	-1E+10	1	-1E+10	1
4901784	164	C	12/31/2019	10:46	-132.688	43.583	0	500.10	0	4.7400	0	36.2820	8	28.728	0	495.506	0	52.5	4	17.1	4	-1E+10	1	-1E+10	1	-1E+10	1	-1E+10	1	-1E+10	1	-1E+10	1
4901784	164	C	12/31/2019	10:46	-132.688	43.583	0	504.80	0	4.7210	0	36.2880	8	28.735	0	500.158	0	50.1	4	16.4	4	-1E+10	1	-1E+10	1	-1E+10	1	-1E+10	1	-1E+10	1	-1E+10	1
4901784	164	C	12/31/2019	10:46	-132.688	43.583	0	510.40	0	4.6830	0	36.3020	8	28.751	0	505.699	0	47.2	4	15.4	4	-1E+10	1	-1E+10	1	-1E+10	1	-1E+10	1	-1E+10	1	-1E+10	1
4901784	164	C	12/31/2019	10:46	-132.688	43.583	0	515.80	0	4.6650	0	36.3120	8	28.761	0	511.043	0	45.4	4	14.8	4	-1E+10	1	-1E+10	1	-1E+10	1	-1E+10	1	-1E+10	1	-1E+10	1
4901784	164	C	12/31/2019	10:46	-132.688	43.583	0	520.20	0	4.6540	0	36.3190	8	28.767	0	515.397	0	44.3	4	14.5	4	-1E+10	1	-1E+10	1	-1E+10	1	-1E+10	1	-1E+10	1	-1E+10	1
4901784	164	C	12/31/2019	10:46	-132.688	43.583	0	525.00	0	4.6460	0	36.3230	8	28.772	0	520.147	0	43.3	4	14.1	4	-1E+10	1	-1E+10	1	-1E+10	1	-1E+10	1	-1E+10	1	-1E+10	1
4901784	164	C	12/31/2019	10:46	-132.688	43.583	0	529.90	0	4.6380	0	36.3270	8	28.776	0	524.995	0	42.2	4	13.8	4	-1E+10	1	-1E+10	1	-1E+10	1	-1E+10	1	-1E+10	1	-1E+10	1
4901784	164	C	12/31/2019	10:46	-132.688	43.583	0	534.90	0	4.6280	0	36.3310	8	28.780	0	529.942	0	41.0	4	13.4	4	-1E+10	1	-1E+10	1	-1E+10	1	-1E+10	1	-1E+10	1	-1E+10	1
4901784	164	C	12/31/2019	10:46	-132.688	43.583	0	539.90	0	4.6080	0	36.3390	8	28.789	0	534.890	0	39.7	4	12.9	4	-1E+10	1	-1E+10	1	-1E+10	1	-1E+10	1	-1E+10	1	-1E+10	1
4901784	164	C	12/31/2019	10:46	-132.688	43.583	0	545.00	0	4.5990	0	36.3450	8	28.795	0	539.936	0	38.9	4	12.7	4	-1E+10	1	-1E+10	1	-1E+10	1	-1E+10	1	-1E+10	1	-1E+10	1
4901784	164	C	12/31/2019	10:46	-132.688	43.583	0	550.00	0	4.5980	0	36.3460	8	28.796	0	544.883	0	38.3	4	12.5	4	-1E+10	1	-1E+10	1	-1E+10	1	-1E+10	1	-1E+10	1	-1E+10	1
4901784	164	C	12/31/2019	10:46	-132.688	43.583	0	555.10	0	4.5910	0	36.3510	8	28.800	0	549.929	0	37.3	4	12.1	4	-1E+10	1	-1E+10	1	-1E+10	1	-1E+10	1	-1E+10	1	-1E+10	1
4901784	164	C	12/31/2019	10:46	-132.688	43.583	0	560.40	0	4.5850	0	36.3550	8	28.804	0	555.172	0	36.2	4	11.8	4	-1E+10	1	-1E+10	1	-1E+10	1	-1E+10	1	-1E+10	1	-1E+10	1
4901784	164	C	12/31/2019	10:46	-132.688	43.583	0	565.70	0	4.5740	0	36.3610	8	28.810	0	560.416	0	34.8	4	11.3	4	-1E+10	1	-1E+10	1	-1E+10	1	-1E+10	1	-1E+10	1	-1E+10	1
4901784	164	C	12/31/2019	10:46	-132.688	43.583	0	570.10	0	4.5630	0	36.3680	8	28.817	0	564.768	0	33.9	4	11.0	4	-1E+10	1	-1E+10	1	-1E+10	1	-1E+10	1	-1E+10	1	-1E+10	1
4901784	164	C	12/31/2019	10:46	-132.688	43.583	0	574.50	0	4.5650	0	36.3710	8	28.820	0	569.121	0	33.2	4	10.8	4	-1E+10	1	-1E+10	1	-1E+10	1	-1E+10	1	-1E+10	1	-1E+10	1
4901784	164	C	12/31/2019	10:46	-132.688	43.583	0	579.90	0	4.5360	0	36.3740	8	28.825	0	574.463	0	32.3	4	10.5	4	-1E+10	1	-1E+10	1	-1E+10	1	-1E+10	1	-1E+10	1	-1E+10	1
4901784	164	C	12/31/2019	10:46	-132.688	43.583	0	585.40	0	4.4990	0	36.3820	8	28.836	0	579.904	0	31.2	4	10.1	4	-1E+10	1	-1E+10	1	-1E+10	1	-1E+10	1	-1E+10	1	-1E+10	1
4901784	164	C	12/31/2019	10:46	-132.688	43.583	0	590.00	0	4.4900	0	36.3840	8	28.839	0	584.454	0	30.6	4	9.9	4	-1E+10	1	-1E+10	1	-1E+10	1	-1E+10	1	-1E+10	1	-1E+10	1
4901784	164	C	12/31/2019	10:46	-132.688	43.583	0	594.60	0	4.4550	0	36.3890	8	28.847	0	589.005	0	29.8	4	9.7	4	-1E+10	1	-1E+10	1	-1E+10	1	-1E+10	1	-1E+10	1	-1E+10	1
4901784	164	C	12/31/2019	10:46	-132.688	43.583	0	600.00	0	4.4330	0	36.3960	8	28.855	0	594.346	0	28.7	4	9.3	4	-1E+10	1	-1E+10	1	-1E+10	1	-1E+10	1	-1E+10	1	-1E+10	1
4901784	164	C	12/31/2019	10:46	-132.688	43.583	0	605.50	0	4.4260	0	36.4030	8	28.861	0	599.786	0	27.8	4	9.0	4	-1E+10	1	-1E+10	1	-1E+10	1	-1E+10	1	-1E+10	1	-1E+10	1
4901784	164	C	12/31/2019	10:46	-132.688	43.583	0	610.20	0	4.4070	0	36.4060	8	28.866	0	604.435	0	27.4	4	8.9	4	-1E+10	1	-1E+10	1	-1E+10	1	-1E+10	1	-1E+10	1	-1E+10	1
4901784	164	C	12/31/2019	10:46	-132.688	43.583	0	614.80	0	4.3950	0	36.4080	8	28.869	0	608.985	0	26.7	4	8.6	4	-1E+10	1	-1E+10	1	-1E+10	1	-1E+10	1	-1E+10	1	-1E+10	1
4901784	164	C	12/31/2019	10:46	-132.688	43.583	0	620.50	0	4.3850	0	36.4140	8	28.875	0	614.623	0	25.8	4	8.3	4	-1E+10	1	-1E+10	1	-1E+10	1	-1E+10	1	-1E+10	1	-1E+10	1
4901784	164	C	12/31/2019	10:46	-132.688	43.583	0	625.20	0	4.3870	0	36.4190	8	28.878	0	619.271	0	24.9	4	8.1	4	-1E+10	1	-1E+10	1	-1E+10	1	-1E+10	1	-1E+10	1	-1E+10	1
4901784	164	C	12/31/2019	10:46	-132.688	43.583	0	629.80	0	4.3840	0	36.4250	8	28.884	0	623.821	0	24.1	4	7.8	4	-1E+10	1	-1E+10	1	-1E+10	1	-1E+10	1	-1E+10	1	-1E+10	1
4901784	164	C	12/31/2019	10:46	-132.688	43.583	0	635.50	0	4.3710	0	36.4310	8	28.890	0	629.458	0	23.5	4	7.6	4	-1E+10	1	-1E+10	1	-1E+10	1	-1E+10	1	-1E+10	1	-1E+10	1
4901784	164	C	12/31/2019	10:46	-132.688	43.583	0	640.30	0	4.3690	0	36.4340	8	28.892	0	634.205	0	22.9	4	7.4	4	-1E+10	1	-1E+10	1	-1E+10	1	-1E+10	1	-1E+10	1	-1E+10	1
4901784	164	C	12/31/2019	10:46	-132.688	43.583	0	645.10	0	4.3610	0	36.4400	8	28.898	0	638.952	0	22.6	4	7.3	4	-1E+10	1	-1E+10	1	-1E+10	1	-1E+10	1	-1E+10	1	-1E+10	1
4901784	164	C	12/31/2019	10:46	-132.688	43.583	0	649.80	0	4.3430	0	36.4390	8	28.899	0	643.600	0	22.4	4	7.3	4	-1E+10	1	-1E+10	1	-1E+10	1	-1E+10	1	-1E+10	1	-1E+10	1
4901784	164	C	12/31/2019	10:46	-132.688	43.583	0	654.60	0	4.3240	0	36.4400	8	28.902	0	648.347	0	22.0	4	7.1	4	-1E+10	1	-1E+10	1	-1E+10	1	-1E+10	1	-1E+10	1	-1E+10	1
4901784	164	C	12/31/2019	10:46	-132.688	43.583	0	660.30	0	4.2920	0	36.4460	8	28.911	0	653.983	0	21.3	4	6.9	4	-1E+10	1	-1E+10	1	-1E+10	1	-1E+10	1	-1E+10	1	-1E+10	1
4901784	164	C	12/31/2019	10:46	-132.688	43.583	0	665.10	0	4.2770	0	36.4520	8	28.917	0	658.730	0	20.7	4	6.7	4	-1E+10	1	-1E+10	1	-1E+10	1	-1E+10	1	-1E+10	1	-1E+10	1
4901784	164	C	12/31/2019	10:46	-132.688	43.583	0	669.90	0	4.2760	0	36.4570	8	28.921	0	663.476	0	20.1	4	6.5	4	-1E+10	1	-1E+10	1	-1E+10	1	-1E+10	1	-1E+10	1	-1E+10	1
4901784	164	C	12/31/2019	10:46	-132.688	43.583	0	674.80	0	4.2860	0	36.4620	8	28.924	0	668.321	0	19.4	4	6.3	4	-1E+10	1	-1E+10	1	-1E+10	1	-1E+10	1	-1E+10	1	-1E+10	1
4901784	164	C	12/31/2019	10:46	-132.688	43.583	0	679.50	0	4.2920	0	36.4670	8	28.928	0	672.969	0	18.9	4	6.1	4	-1E+10	1	-1E+10	1	-1E+10	1	-1E+10	1	-1E+10	1	-1E+10	1
4901784	164	C	12/31/2019	10:46	-132.688	43.583	0	685.20	0	4.2740	0	36.4730	8	28.934	0	678.605	0	18.4	4	5.9	4	-1E+10	1	-1E+10	1	-1E+10	1	-1E+10	1	-1E+10	1	-1E+10	1
4901784	164	C	12/31/2019	10:46	-132.688	43.583	0	689.90	0	4.2590	0	36.4750	8	28.938	0	683.252	0	18.1	4	5.9	4	-1E+10	1	-1E+10	1	-1E+10	1	-1E+10	1	-1E+10	1	-1E+10	1
4901784	164	C	12/31/2019	10:46	-132.688	43.583	0	694.70	0	4.2290	0	36.4800	8	28.945	0	687.997	0	17.8	4	5.7	4	-1E+10	1	-1E+10	1	-1E+10	1	-1E+10	1	-1E+10	1	-1E+10	1
4901784	164	C	12/31/2019	10:46	-132.688	43.583	0	700.40	0	4.2080	0	36.4850	8	28.951	0	693.633	0	17.5	4	5.6	4	-1E+10	1	-1E+10	1	-1E+10	1	-1E+10	1	-1E+10	1	-1E+10	1
4901784	164	C	12/31/2019	10:46	-132.688	43.583	0	705.20	0	4.1940	0	36.4850	8	28.953	0	698.379	0	17.3	4	5.6	4	-1E+10	1	-1E+10	1	-1E+10	1	-1E+10	1	-1E+10	1	-1E+10	1
4901784	164	C	12/31/2019	10:46	-132.688	43.583	0	710.10	0	4.1740	0	36.4900	8	28.959	0	703.223	0	16.9	4	5.4	4	-1E+10	1	-1E+10	1	-1E+10	1	-1E+10	1	-1E+10	1	-1E+10	1
4901784	164	C	12/31/2019	10:46	-132.688	43.583	0	714.80	0	4.1710	0	36.4950	8	28.964	0	707.869	0	16.4	4	5.3	4	-1E+10	1	-1E+10	1	-1E+10	1	-1E+10	1	-1E+10	1	-1E+10	1
4901784	164	C	12/31/2019	10:46	-132.688	43.583	0	719.50	0	4.1670	0	36.5010	8	28.969	0	712.516	0	16.0	4	5.2	4	-1E+10	1	-1E+10	1	-1E+10	1	-1E+10	1	-1E+10	1	-1E+10	1
4901784	164	C	12/31/2019	10:46	-132.688	43.583	0	725.20	0	4.1620	0	36.5070	8	28.974	0	718.151	0	15.7	4	5.1	4	-1E+10	1	-1E+10	1	-1E+10	1	-1E+10	1	-1E+10	1	-1E+10	1
4901784	164	C	12/31/2019	10:46	-132.688	43.583	0	729.90	0	4.1570	0	36.5090	8	28.976	0	722.797	0	15.5	4	5.0	4	-1E+10	1	-1E+10	1	-1E+10	1	-1E+10	1	-1E+10	1	-1E+10	1
4901784	164	C	12/31/2019	10:46	-132.688	43.583	0	734.60	0	4.1500	0	36.5100	8	28.978	0	727.443	0	15.2	4	4.9	4	-1E+10	1	-1E+10	1	-1E+10	1	-1E+10	1	-1E+10	1	-1E+10	1
4901784	164	C	12/31/2019	10:46	-132.688	43.583	0	740.20	0	4.1440	0	36.5180	8	28.985	0	732.979	0	14.8	4	4.8	4	-1E+10	1	-1E+10	1	-1E+10	1	-1E+10	1	-1E+10	1	-1E+10	1
4901784	164	C	12/31/2019	10:46	-132.688	43.583	0	744.80	0	4.1270	0	36.5210	8	28.989	0	737.526	0	14.4	4	4.7	4	-1E+10	1	-1E+10	1	-1E+10	1	-1E+10	1	-1E+10	1	-1E+10	1
4901784	164	C	12/31/2019	10:46	-132.688	43.583	0	749.50	0	4.1130	0	36.5280	8	28.997	0	742.171	0	14.2	4	4.6	4	-1E+10	1	-1E+10	1	-1E+10	1	-1E+10	1	-1E+10	1	-1E+10	1
4901784	164	C	12/31/2019	10:46	-132.688	43.583	0	755.10	0	4.1040	0	36.5330	8	29.002	0	747.706	0	13.9	4	4.5	4	-1E+10	1	-1E+10	1	-1E+10	1	-1E+10	1	-1E+10	1	-1E+10	1
4901784	164	C	12/31/2019	10:46	-132.688	43.583	0	759.90	0	4.0950	0	36.5360	8	29.005	0	752.451	0	13.6	4	4.4	4	-1E+10	1	-1E+10	1	-1E+10	1	-1E+10	1	-1E+10	1	-1E+10	1
4901784	164	C	12/31/2019	10:46	-132.688	43.583	0	764.60	0	4.0870	0	36.5410	8	29.010	0	757.096	0	13.4	4	4.3	4	-1E+10	1	-1E+10	1	-1E+10	1	-1E+10	1	-1E+10	1	-1E+10	1
4901784	164	C	12/31/2019	10:46	-132.688	43.583	0	770.20	0	4.0740	0	36.5480	8	29.017	0	762.631	0	13.2	4	4.3	4	-1E+10	1	-1E+10	1	-1E+10	1	-1E+10	1	-1E+10	1	-1E+10	1
4901784	164	C	12/31/2019	10:46	-132.688	43.583	0	774.90	0	4.0720	0	36.5480	8	29.017	0	767.276	0	13.2	4	4.2	4	-1E+10	1	-1E+10	1	-1E+10	1	-1E+10	1	-1E+10	1	-1E+10	1
4901784	164	C	12/31/2019	10:46	-132.688	43.583	0	780.30	0	4.0680	0	36.5490	8	29.018	0	772.613	0	13.0	4	4.2	4	-1E+10	1	-1E+10	1	-1E+10	1	-1E+10	1	-1E+10	1	-1E+10	1
4901784	164	C	12/31/2019	10:46	-132.688	43.583	0	785.50	0	4.0500	0	36.5550	8	29.025	0	777.752	0	12.9	4	4.1	4	-1E+10	1	-1E+10	1	-1E+10	1	-1E+10	1	-1E+10	1	-1E+10	1
4901784	164	C	12/31/2019	10:46	-132.688	43.583	0	790.30	0	4.0430	0	36.5560	8	29.027	0	782.496	0	12.7	4	4.1	4	-1E+10	1	-1E+10	1	-1E+10	1	-1E+10	1	-1E+10	1	-1E+10	1
4901784	164	C	12/31/2019	10:46	-132.688	43.583	0	795.00	0	4.0200	0	36.5600	8	29.033	0	787.141	0	12.5	4	4.0	4	-1E+10	1	-1E+10	1	-1E+10	1	-1E+10	1	-1E+10	1	-1E+10	1
4901784	164	C	12/31/2019	10:46	-132.688	43.583	0	800.00	0	3.9890	0	36.5680	8	29.042	0	792.082	0	12.3	4	4.0	4	-1E+10	1	-1E+10	1	-1E+10	1	-1E+10	1	-1E+10	1	-1E+10	1
4901784	164	C	12/31/2019	10:46	-132.688	43.583	0	804.90	0	3.9760	0	36.5720	8	29.047	0	796.924	0	12.2	4	3.9	4	-1E+10	1	-1E+10	1	-1E+10	1	-1E+10	1	-1E+10	1	-1E+10	1
4901784	164	C	12/31/2019	10:46	-132.688	43.583	0	809.90	0	3.9700	0	36.5750	8	29.050	0	801.865	0	12.1	4	3.9	4	-1E+10	1	-1E+10	1	-1E+10	1	-1E+10	1	-1E+10	1	-1E+10	1
4901784	164	C	12/31/2019	10:46	-132.688	43.583	0	814.90	0	3.9570	0	36.5770	8	29.053	0	806.805	0	12.0	4	3.9	4	-1E+10	1	-1E+10	1	-1E+10	1	-1E+10	1	-1E+10	1	-1E+10	1
4901784	164	C	12/31/2019	10:46	-132.688	43.583	0	819.90	0	3.9490	0	36.5800	8	29.056	0	811.746	0	12.0	4	3.8	4	-1E+10	1	-1E+10	1	-1E+10	1	-1E+10	1	-1E+10	1	-1E+10	1
4901784	164	C	12/31/2019	10:46	-132.688	43.583	0	824.90	0	3.9420	0	36.5810	8	29.058	0	816.687	0	11.9	4	3.8	4	-1E+10	1	-1E+10	1	-1E+10	1	-1E+10	1	-1E+10	1	-1E+10	1
4901784	164	C	12/31/2019	10:46	-132.688	43.583	0	829.90	0	3.9230	0	36.5840	8	29.062	0	821.627	0	11.8	4	3.8	4	-1E+10	1	-1E+10	1	-1E+10	1	-1E+10	1	-1E+10	1	-1E+10	1
4901784	164	C	12/31/2019	10:46	-132.688	43.583	0	835.00	0	3.9160	0	36.5880	8	29.066	0	826.666	0	11.7	4	3.7	4	-1E+10	1	-1E+10	1	-1E+10	1	-1E+10	1	-1E+10	1	-1E+10	1
4901784	164	C	12/31/2019	10:46	-132.688	43.583	0	840.20	0	3.9030	0	36.5920	8	29.071	0	831.804	0	11.5	4	3.7	4	-1E+10	1	-1E+10	1	-1E+10	1	-1E+10	1	-1E+10	1	-1E+10	1
4901784	164	C	12/31/2019	10:46	-132.688	43.583	0	845.50	0	3.8930	0	36.5960	8	29.075	0	837.040	0	11.4	4	3.7	4	-1E+10	1	-1E+10	1	-1E+10	1	-1E+10	1	-1E+10	1	-1E+10	1
4901784	164	C	12/31/2019	10:46	-132.688	43.583	0	850.70	0	3.8650	0	36.6000	8	29.082	0	842.178	0	11.3	4	3.6	4	-1E+10	1	-1E+10	1	-1E+10	1	-1E+10	1	-1E+10	1	-1E+10	1
4901784	164	C	12/31/2019	10:46	-132.688	43.583	0	855.00	0	3.8520	0	36.6030	8	29.085	0	846.426	0	11.3	4	3.6	4	-1E+10	1	-1E+10	1	-1E+10	1	-1E+10	1	-1E+10	1	-1E+10	1
4901784	164	C	12/31/2019	10:46	-132.688	43.583	0	859.20	0	3.8260	0	36.6070	8	29.091	0	850.575	0	11.2	4	3.6	4	-1E+10	1	-1E+10	1	-1E+10	1	-1E+10	1	-1E+10	1	-1E+10	1
4901784	164	C	12/31/2019	10:46	-132.688	43.583	0	864.50	0	3.8060	0	36.6110	8	29.097	0	855.811	0	11.1	4	3.6	4	-1E+10	1	-1E+10	1	-1E+10	1	-1E+10	1	-1E+10	1	-1E+10	1
4901784	164	C	12/31/2019	10:46	-132.688	43.583	0	869.70	0	3.7980	0	36.6130	8	29.099	0	860.948	0	11.1	4	3.5	4	-1E+10	1	-1E+10	1	-1E+10	1	-1E+10	1	-1E+10	1	-1E+10	1
4901784	164	C	12/31/2019	10:46	-132.688	43.583	0	874.90	0	3.7830	0	36.6170	8	29.104	0	866.085	0	11.0	4	3.5	4	-1E+10	1	-1E+10	1	-1E+10	1	-1E+10	1	-1E+10	1	-1E+10	1
4901784	164	C	12/31/2019	10:46	-132.688	43.583	0	880.30	0	3.7720	0	36.6210	8	29.108	0	871.420	0	10.9	4	3.5	4	-1E+10	1	-1E+10	1	-1E+10	1	-1E+10	1	-1E+10	1	-1E+10	1
4901784	164	C	12/31/2019	10:46	-132.688	43.583	0	885.60	0	3.7580	0	36.6250	8	29.113	0	876.655	0	10.8	4	3.4	4	-1E+10	1	-1E+10	1	-1E+10	1	-1E+10	1	-1E+10	1	-1E+10	1
4901784	164	C	12/31/2019	10:46	-132.688	43.583	0	890.00	0	3.7470	0	36.6280	8	29.117	0	881.001	0	10.7	4	3.4	4	-1E+10	1	-1E+10	1	-1E+10	1	-1E+10	1	-1E+10	1	-1E+10	1
4901784	164	C	12/31/2019	10:46	-132.688	43.583	0	894.50	0	3.7280	0	36.6330	8	29.123	0	885.446	0	10.6	4	3.4	4	-1E+10	1	-1E+10	1	-1E+10	1	-1E+10	1	-1E+10	1	-1E+10	1
4901784	164	C	12/31/2019	10:46	-132.688	43.583	0	899.90	0	3.7210	0	36.6370	8	29.127	0	890.780	0	10.6	4	3.4	4	-1E+10	1	-1E+10	1	-1E+10	1	-1E+10	1	-1E+10	1	-1E+10	1
4901784	164	C	12/31/2019	10:46	-132.688	43.583	0	905.10	0	3.7100	0	36.6410	8	29.131	0	895.916	0	10.5	4	3.4	4	-1E+10	1	-1E+10	1	-1E+10	1	-1E+10	1	-1E+10	1	-1E+10	1
4901784	164	C	12/31/2019	10:46	-132.688	43.583	0	910.00	0	3.7070	0	36.6450	8	29.135	0	900.756	0	10.5	4	3.3	4	-1E+10	1	-1E+10	1	-1E+10	1	-1E+10	1	-1E+10	1	-1E+10	1
4901784	164	C	12/31/2019	10:46	-132.688	43.583	0	915.50	0	3.6990	0	36.6490	8	29.139	0	906.188	0	10.4	4	3.3	4	-1E+10	1	-1E+10	1	-1E+10	1	-1E+10	1	-1E+10	1	-1E+10	1
4901784	164	C	12/31/2019	10:46	-132.688	43.583	0	920.30	0	3.6970	0	36.6520	8	29.141	0	910.929	0	10.3	4	3.3	4	-1E+10	1	-1E+10	1	-1E+10	1	-1E+10	1	-1E+10	1	-1E+10	1
4901784	164	C	12/31/2019	10:46	-132.688	43.583	0	925.20	0	3.6860	0	36.6550	8	29.145	0	915.768	0	10.3	4	3.3	4	-1E+10	1	-1E+10	1	-1E+10	1	-1E+10	1	-1E+10	1	-1E+10	1
4901784	164	C	12/31/2019	10:46	-132.688	43.583	0	930.10	0	3.6620	0	36.6590	8	29.151	0	920.608	0	10.3	4	3.3	4	-1E+10	1	-1E+10	1	-1E+10	1	-1E+10	1	-1E+10	1	-1E+10	1
4901784	164	C	12/31/2019	10:46	-132.688	43.583	0	935.20	0	3.6350	0	36.6620	8	29.156	0	925.644	0	10.3	4	3.3	4	-1E+10	1	-1E+10	1	-1E+10	1	-1E+10	1	-1E+10	1	-1E+10	1
4901784	164	C	12/31/2019	10:46	-132.688	43.583	0	940.30	0	3.6170	0	36.6660	8	29.161	0	930.681	0	10.3	4	3.3	4	-1E+10	1	-1E+10	1	-1E+10	1	-1E+10	1	-1E+10	1	-1E+10	1
4901784	164	C	12/31/2019	10:46	-132.688	43.583	0	945.40	0	3.6040	0	36.6700	8	29.166	0	935.717	0	10.3	4	3.3	4	-1E+10	1	-1E+10	1	-1E+10	1	-1E+10	1	-1E+10	1	-1E+10	1
4901784	164	C	12/31/2019	10:46	-132.688	43.583	0	950.70	0	3.5970	0	36.6720	8	29.168	0	940.951	0	10.3	4	3.3	4	-1E+10	1	-1E+10	1	-1E+10	1	-1E+10	1	-1E+10	1	-1E+10	1
4901784	164	C	12/31/2019	10:46	-132.688	43.583	0	955.00	0	3.5930	0	36.6730	8	29.169	0	945.197	0	10.3	4	3.3	4	-1E+10	1	-1E+10	1	-1E+10	1	-1E+10	1	-1E+10	1	-1E+10	1
4901784	164	C	12/31/2019	10:46	-132.688	43.583	0	959.40	0	3.5820	0	36.6770	8	29.173	0	949.542	0	10.3	4	3.3	4	-1E+10	1	-1E+10	1	-1E+10	1	-1E+10	1	-1E+10	1	-1E+10	1
4901784	164	C	12/31/2019	10:46	-132.688	43.583	0	964.80	0	3.5730	0	36.6800	8	29.177	0	954.874	0	10.3	4	3.3	4	-1E+10	1	-1E+10	1	-1E+10	1	-1E+10	1	-1E+10	1	-1E+10	1
4901784	164	C	12/31/2019	10:46	-132.688	43.583	0	970.10	0	3.5630	0	36.6840	8	29.181	0	960.108	0	10.3	4	3.3	4	-1E+10	1	-1E+10	1	-1E+10	1	-1E+10	1	-1E+10	1	-1E+10	1
4901784	164	C	12/31/2019	10:46	-132.688	43.583	0	975.60	0	3.5590	0	36.6860	8	29.183	0	965.538	0	10.3	4	3.3	4	-1E+10	1	-1E+10	1	-1E+10	1	-1E+10	1	-1E+10	1	-1E+10	1
4901784	164	C	12/31/2019	10:46	-132.688	43.583	0	980.20	0	3.5530	0	36.6860	8	29.184	0	970.080	0	10.3	4	3.3	4	-1E+10	1	-1E+10	1	-1E+10	1	-1E+10	1	-1E+10	1	-1E+10	1
4901784	164	C	12/31/2019	10:46	-132.688	43.583	0	984.80	0	3.5380	0	36.6900	8	29.189	0	974.622	0	10.3	4	3.3	4	-1E+10	1	-1E+10	1	-1E+10	1	-1E+10	1	-1E+10	1	-1E+10	1
4901784	164	C	12/31/2019	10:46	-132.688	43.583	0	990.40	0	3.5300	0	36.6930	8	29.192	0	980.151	0	10.3	4	3.3	4	-1E+10	1	-1E+10	1	-1E+10	1	-1E+10	1	-1E+10	1	-1E+10	1
4901784	164	C	12/31/2019	10:46	-132.688	43.583	0	995.10	0	3.5210	0	36.6960	8	29.195	0	984.791	0	10.3	4	3.3	4	-1E+10	1	-1E+10	1	-1E+10	1	-1E+10	1	-1E+10	1	-1E+10	1
4901784	164	C	12/31/2019	10:46	-132.688	43.583	0	999.80	0	3.5110	0	36.6980	8	29.198	0	989.432	0	10.3	4	3.3	4	-1E+10	1	-1E+10	1	-1E+10	1	-1E+10	1	-1E+10	1	-1E+10	1
4901784	164	C	12/31/2019	10:46	-132.688	43.583	0	1005.60	0	3.4960	0	36.7030	8	29.203	0	995.158	0	10.3	4	3.3	4	-1E+10	1	-1E+10	1	-1E+10	1	-1E+10	1	-1E+10	1	-1E+10	1
4901784	164	C	12/31/2019	10:46	-132.688	43.583	0	1011.00	0	3.4900	0	36.7060	8	29.206	0	1000.489	0	10.3	4	3.3	4	-1E+10	1	-1E+10	1	-1E+10	1	-1E+10	1	-1E+10	1	-1E+10	1
4901784	164	C	12/31/2019	10:46	-132.688	43.583	0	1015.20	0	3.4830	0	36.7070	8	29.208	0	1004.635	0	10.4	4	3.3	4	-1E+10	1	-1E+10	1	-1E+10	1	-1E+10	1	-1E+10	1	-1E+10	1
4901784	164	C	12/31/2019	10:46	-132.688	43.583	0	1020.10	0	3.4740	0	36.7100	8	29.211	0	1009.472	0	10.4	4	3.3	4	-1E+10	1	-1E+10	1	-1E+10	1	-1E+10	1	-1E+10	1	-1E+10	1
4901784	164	C	12/31/2019	10:46	-132.688	43.583	0	1025.10	0	3.4660	0	36.7130	8	29.215	0	1014.408	0	10.4	4	3.3	4	-1E+10	1	-1E+10	1	-1E+10	1	-1E+10	1	-1E+10	1	-1E+10	1
4901784	164	C	12/31/2019	10:46	-132.688	43.583	0	1030.00	0	3.4550	0	36.7150	8	29.217	0	1019.245	0	10.5	4	3.3	4	-1E+10	1	-1E+10	1	-1E+10	1	-1E+10	1	-1E+10	1	-1E+10	1
4901784	164	C	12/31/2019	10:46	-132.688	43.583	0	1034.90	0	3.4370	0	36.7180	8	29.222	0	1024.082	0	10.5	4	3.3	4	-1E+10	1	-1E+10	1	-1E+10	1	-1E+10	1	-1E+10	1	-1E+10	1
4901784	164	C	12/31/2019	10:46	-132.688	43.583	0	1039.80	0	3.4200	0	36.7240	8	29.228	0	1028.919	0	10.6	4	3.4	4	-1E+10	1	-1E+10	1	-1E+10	1	-1E+10	1	-1E+10	1	-1E+10	1
4901784	164	C	12/31/2019	10:46	-132.688	43.583	0	1044.70	0	3.4130	0	36.7260	8	29.231	0	1033.755	0	10.6	4	3.4	4	-1E+10	1	-1E+10	1	-1E+10	1	-1E+10	1	-1E+10	1	-1E+10	1
4901784	164	C	12/31/2019	10:46	-132.688	43.583	0	1049.70	0	3.4080	0	36.7290	8	29.233	0	1038.691	0	10.7	4	3.4	4	-1E+10	1	-1E+10	1	-1E+10	1	-1E+10	1	-1E+10	1	-1E+10	1
4901784	164	C	12/31/2019	10:46	-132.688	43.583	0	1054.80	0	3.4030	0	36.7310	8	29.236	0	1043.725	0	10.7	4	3.4	4	-1E+10	1	-1E+10	1	-1E+10	1	-1E+10	1	-1E+10	1	-1E+10	1
4901784	164	C	12/31/2019	10:46	-132.688	43.583	0	1059.70	0	3.3980	0	36.7330	8	29.238	0	1048.561	0	10.8	4	3.4	4	-1E+10	1	-1E+10	1	-1E+10	1	-1E+10	1	-1E+10	1	-1E+10	1
4901784	164	C	12/31/2019	10:46	-132.688	43.583	0	1064.70	0	3.3810	0	36.7380	8	29.243	0	1053.496	0	10.9	4	3.5	4	-1E+10	1	-1E+10	1	-1E+10	1	-1E+10	1	-1E+10	1	-1E+10	1
4901784	164	C	12/31/2019	10:46	-132.688	43.583	0	1069.60	0	3.3660	0	36.7400	8	29.247	0	1058.332	0	11.0	4	3.5	4	-1E+10	1	-1E+10	1	-1E+10	1	-1E+10	1	-1E+10	1	-1E+10	1
4901784	164	C	12/31/2019	10:46	-132.688	43.583	0	1074.70	0	3.3500	0	36.7450	8	29.252	0	1063.365	0	11.1	4	3.5	4	-1E+10	1	-1E+10	1	-1E+10	1	-1E+10	1	-1E+10	1	-1E+10	1
4901784	164	C	12/31/2019	10:46	-132.688	43.583	0	1079.80	0	3.3450	0	36.7480	8	29.255	0	1068.398	0	11.3	4	3.6	4	-1E+10	1	-1E+10	1	-1E+10	1	-1E+10	1	-1E+10	1	-1E+10	1
4901784	164	C	12/31/2019	10:46	-132.688	43.583	0	1084.90	0	3.3390	0	36.7510	8	29.258	0	1073.432	0	11.4	4	3.6	4	-1E+10	1	-1E+10	1	-1E+10	1	-1E+10	1	-1E+10	1	-1E+10	1
4901784	164	C	12/31/2019	10:46	-132.688	43.583	0	1089.90	0	3.3280	0	36.7540	8	29.262	0	1078.366	0	11.5	4	3.6	4	-1E+10	1	-1E+10	1	-1E+10	1	-1E+10	1	-1E+10	1	-1E+10	1
4901784	164	C	12/31/2019	10:46	-132.688	43.583	0	1095.00	0	3.3220	0	36.7560	8	29.264	0	1083.399	0	11.6	4	3.7	4	-1E+10	1	-1E+10	1	-1E+10	1	-1E+10	1	-1E+10	1	-1E+10	1
4901784	164	C	12/31/2019	10:46	-132.688	43.583	0	1100.10	0	3.3090	0	36.7600	8	29.269	0	1088.431	0	11.8	4	3.7	4	-1E+10	1	-1E+10	1	-1E+10	1	-1E+10	1	-1E+10	1	-1E+10	1
4901784	164	C	12/31/2019	10:46	-132.688	43.583	0	1105.30	0	3.2990	0	36.7620	8	29.271	0	1093.563	0	11.8	4	3.7	4	-1E+10	1	-1E+10	1	-1E+10	1	-1E+10	1	-1E+10	1	-1E+10	1
4901784	164	C	12/31/2019	10:46	-132.688	43.583	0	1109.70	0	3.2980	0	36.7630	8	29.272	0	1097.904	0	11.9	4	3.8	4	-1E+10	1	-1E+10	1	-1E+10	1	-1E+10	1	-1E+10	1	-1E+10	1
4901784	164	C	12/31/2019	10:46	-132.688	43.583	0	1114.40	0	3.2870	0	36.7640	8	29.274	0	1102.542	0	12.0	4	3.8	4	-1E+10	1	-1E+10	1	-1E+10	1	-1E+10	1	-1E+10	1	-1E+10	1
4901784	164	C	12/31/2019	10:46	-132.688	43.583	0	1120.10	0	3.2670	0	36.7670	8	29.278	0	1108.167	0	12.3	4	3.9	4	-1E+10	1	-1E+10	1	-1E+10	1	-1E+10	1	-1E+10	1	-1E+10	1
4901784	164	C	12/31/2019	10:46	-132.688	43.583	0	1125.30	0	3.2400	0	36.7730	8	29.286	0	1113.297	0	12.5	4	3.9	4	-1E+10	1	-1E+10	1	-1E+10	1	-1E+10	1	-1E+10	1	-1E+10	1
4901784	164	C	12/31/2019	10:46	-132.688	43.583	0	1130.40	0	3.2210	0	36.7770	8	29.291	0	1118.329	0	12.6	4	4.0	4	-1E+10	1	-1E+10	1	-1E+10	1	-1E+10	1	-1E+10	1	-1E+10	1
4901784	164	C	12/31/2019	10:46	-132.688	43.583	0	1135.20	0	3.2140	0	36.7790	8	29.293	0	1123.065	0	12.7	4	4.0	4	-1E+10	1	-1E+10	1	-1E+10	1	-1E+10	1	-1E+10	1	-1E+10	1
4901784	164	C	12/31/2019	10:46	-132.688	43.583	0	1140.10	0	3.2090	0	36.7800	8	29.295	0	1127.900	0	12.7	4	4.0	4	-1E+10	1	-1E+10	1	-1E+10	1	-1E+10	1	-1E+10	1	-1E+10	1
4901784	164	C	12/31/2019	10:46	-132.688	43.583	0	1144.90	0	3.2060	0	36.7810	8	29.296	0	1132.636	0	12.8	4	4.0	4	-1E+10	1	-1E+10	1	-1E+10	1	-1E+10	1	-1E+10	1	-1E+10	1
4901784	164	C	12/31/2019	10:46	-132.688	43.583	0	1149.90	0	3.1970	0	36.7820	8	29.298	0	1137.568	0	12.9	4	4.1	4	-1E+10	1	-1E+10	1	-1E+10	1	-1E+10	1	-1E+10	1	-1E+10	1
4901784	164	C	12/31/2019	10:46	-132.688	43.583	0	1154.80	0	3.1910	0	36.7840	8	29.300	0	1142.403	0	13.0	4	4.1	4	-1E+10	1	-1E+10	1	-1E+10	1	-1E+10	1	-1E+10	1	-1E+10	1
4901784	164	C	12/31/2019	10:46	-132.688	43.583	0	1159.80	0	3.1790	0	36.7850	8	29.302	0	1147.335	0	13.1	4	4.2	4	-1E+10	1	-1E+10	1	-1E+10	1	-1E+10	1	-1E+10	1	-1E+10	1
4901784	164	C	12/31/2019	10:46	-132.688	43.583	0	1164.80	0	3.1630	0	36.7880	8	29.306	0	1152.268	0	13.3	4	4.2	4	-1E+10	1	-1E+10	1	-1E+10	1	-1E+10	1	-1E+10	1	-1E+10	1
4901784	164	C	12/31/2019	10:46	-132.688	43.583	0	1169.80	0	3.1550	0	36.7900	8	29.308	0	1157.200	0	13.3	4	4.2	4	-1E+10	1	-1E+10	1	-1E+10	1	-1E+10	1	-1E+10	1	-1E+10	1
4901784	164	C	12/31/2019	10:46	-132.688	43.583	0	1174.90	0	3.1460	0	36.7900	8	29.309	0	1162.231	0	13.4	4	4.2	4	-1E+10	1	-1E+10	1	-1E+10	1	-1E+10	1	-1E+10	1	-1E+10	1
4901784	164	C	12/31/2019	10:46	-132.688	43.583	0	1179.90	0	3.1350	0	36.7920	8	29.312	0	1167.163	0	13.6	4	4.3	4	-1E+10	1	-1E+10	1	-1E+10	1	-1E+10	1	-1E+10	1	-1E+10	1
4901784	164	C	12/31/2019	10:46	-132.688	43.583	0	1185.00	0	3.1230	0	36.7930	8	29.314	0	1172.194	0	13.8	4	4.3	4	-1E+10	1	-1E+10	1	-1E+10	1	-1E+10	1	-1E+10	1	-1E+10	1
4901784	164	C	12/31/2019	10:46	-132.688	43.583	0	1190.10	0	3.1000	0	36.7970	8	29.319	0	1177.225	0	14.0	4	4.4	4	-1E+10	1	-1E+10	1	-1E+10	1	-1E+10	1	-1E+10	1	-1E+10	1
4901784	164	C	12/31/2019	10:46	-132.688	43.583	0	1195.20	0	3.0810	0	36.8010	8	29.325	0	1182.255	0	14.1	4	4.4	4	-1E+10	1	-1E+10	1	-1E+10	1	-1E+10	1	-1E+10	1	-1E+10	1
4901784	164	C	12/31/2019	10:46	-132.688	43.583	0	1200.60	0	3.0780	0	36.8010	8	29.325	0	1187.582	0	14.2	4	4.5	4	-1E+10	1	-1E+10	1	-1E+10	1	-1E+10	1	-1E+10	1	-1E+10	1
4901784	164	C	12/31/2019	10:46	-132.688	43.583	0	1204.90	0	3.0690	0	36.8020	8	29.327	0	1191.823	0	14.3	4	4.5	4	-1E+10	1	-1E+10	1	-1E+10	1	-1E+10	1	-1E+10	1	-1E+10	1
4901784	164	C	12/31/2019	10:46	-132.688	43.583	0	1209.40	0	3.0540	0	36.8040	8	29.330	0	1196.261	0	14.5	4	4.6	4	-1E+10	1	-1E+10	1	-1E+10	1	-1E+10	1	-1E+10	1	-1E+10	1
4901784	164	C	12/31/2019	10:46	-132.688	43.583	0	1214.70	0	3.0410	0	36.8060	8	29.333	0	1201.488	0	14.6	4	4.6	4	-1E+10	1	-1E+10	1	-1E+10	1	-1E+10	1	-1E+10	1	-1E+10	1
4901784	164	C	12/31/2019	10:46	-132.688	43.583	0	1220.10	0	3.0360	0	36.8070	8	29.334	0	1206.814	0	14.8	4	4.6	4	-1E+10	1	-1E+10	1	-1E+10	1	-1E+10	1	-1E+10	1	-1E+10	1
4901784	164	C	12/31/2019	10:46	-132.688	43.583	0	1225.50	0	3.0220	0	36.8090	8	29.337	0	1212.140	0	15.0	4	4.7	4	-1E+10	1	-1E+10	1	-1E+10	1	-1E+10	1	-1E+10	1	-1E+10	1
4901784	164	C	12/31/2019	10:46	-132.688	43.583	0	1230.80	0	3.0040	0	36.8130	8	29.342	0	1217.367	0	15.2	4	4.8	4	-1E+10	1	-1E+10	1	-1E+10	1	-1E+10	1	-1E+10	1	-1E+10	1
4901784	164	C	12/31/2019	10:46	-132.688	43.583	0	1235.70	0	2.9950	0	36.8140	8	29.344	0	1222.199	0	15.3	4	4.8	4	-1E+10	1	-1E+10	1	-1E+10	1	-1E+10	1	-1E+10	1	-1E+10	1
4901784	164	C	12/31/2019	10:46	-132.688	43.583	0	1240.00	0	2.9860	0	36.8160	8	29.346	0	1226.440	0	15.4	4	4.8	4	-1E+10	1	-1E+10	1	-1E+10	1	-1E+10	1	-1E+10	1	-1E+10	1
4901784	164	C	12/31/2019	10:46	-132.688	43.583	0	1244.30	0	2.9830	0	36.8160	8	29.346	0	1230.680	0	15.5	4	4.9	4	-1E+10	1	-1E+10	1	-1E+10	1	-1E+10	1	-1E+10	1	-1E+10	1
4901784	164	C	12/31/2019	10:46	-132.688	43.583	0	1249.30	0	2.9800	0	36.8170	8	29.347	0	1235.611	0	15.6	4	4.9	4	-1E+10	1	-1E+10	1	-1E+10	1	-1E+10	1	-1E+10	1	-1E+10	1
4901784	164	C	12/31/2019	10:46	-132.688	43.583	0	1254.30	0	2.9780	0	36.8180	8	29.348	0	1240.541	0	15.6	4	4.9	4	-1E+10	1	-1E+10	1	-1E+10	1	-1E+10	1	-1E+10	1	-1E+10	1
4901784	164	C	12/31/2019	10:46	-132.688	43.583	0	1259.40	0	2.9690	0	36.8190	8	29.350	0	1245.570	0	15.7	4	4.9	4	-1E+10	1	-1E+10	1	-1E+10	1	-1E+10	1	-1E+10	1	-1E+10	1
4901784	164	C	12/31/2019	10:46	-132.688	43.583	0	1264.60	0	2.9660	0	36.8200	8	29.351	0	1250.697	0	15.8	4	5.0	4	-1E+10	1	-1E+10	1	-1E+10	1	-1E+10	1	-1E+10	1	-1E+10	1
4901784	164	C	12/31/2019	10:46	-132.688	43.583	0	1269.90	0	2.9640	0	36.8200	8	29.352	0	1255.923	0	15.8	4	5.0	4	-1E+10	1	-1E+10	1	-1E+10	1	-1E+10	1	-1E+10	1	-1E+10	1
4901784	164	C	12/31/2019	10:46	-132.688	43.583	0	1275.20	0	2.9630	0	36.8200	8	29.352	0	1261.149	0	15.9	4	5.0	4	-1E+10	1	-1E+10	1	-1E+10	1	-1E+10	1	-1E+10	1	-1E+10	1
4901784	164	C	12/31/2019	10:46	-132.688	43.583	0	1280.50	0	2.9500	0	36.8230	8	29.355	0	1266.375	0	16.0	4	5.0	4	-1E+10	1	-1E+10	1	-1E+10	1	-1E+10	1	-1E+10	1	-1E+10	1
4901784	164	C	12/31/2019	10:46	-132.688	43.583	0	1284.90	0	2.9440	0	36.8230	8	29.356	0	1270.713	0	16.1	4	5.1	4	-1E+10	1	-1E+10	1	-1E+10	1	-1E+10	1	-1E+10	1	-1E+10	1
4901784	164	C	12/31/2019	10:46	-132.688	43.583	0	1289.30	0	2.9370	0	36.8250	8	29.358	0	1275.051	0	16.1	4	5.1	4	-1E+10	1	-1E+10	1	-1E+10	1	-1E+10	1	-1E+10	1	-1E+10	1
4901784	164	C	12/31/2019	10:46	-132.688	43.583	0	1294.70	0	2.9320	0	36.8260	8	29.360	0	1280.375	0	16.2	4	5.1	4	-1E+10	1	-1E+10	1	-1E+10	1	-1E+10	1	-1E+10	1	-1E+10	1
4901784	164	C	12/31/2019	10:46	-132.688	43.583	0	1300.10	0	2.9250	0	36.8270	8	29.361	0	1285.699	0	16.3	4	5.1	4	-1E+10	1	-1E+10	1	-1E+10	1	-1E+10	1	-1E+10	1	-1E+10	1
4901784	164	C	12/31/2019	10:46	-132.688	43.583	0	1305.50	0	2.9220	0	36.8280	8	29.362	0	1291.022	0	16.4	4	5.1	4	-1E+10	1	-1E+10	1	-1E+10	1	-1E+10	1	-1E+10	1	-1E+10	1
4901784	164	C	12/31/2019	10:46	-132.688	43.583	0	1310.00	0	2.9220	0	36.8270	8	29.361	0	1295.459	0	16.5	4	5.2	4	-1E+10	1	-1E+10	1	-1E+10	1	-1E+10	1	-1E+10	1	-1E+10	1
4901784	164	C	12/31/2019	10:46	-132.688	43.583	0	1314.50	0	2.9080	0	36.8300	8	29.365	0	1299.895	0	16.7	4	5.2	4	-1E+10	1	-1E+10	1	-1E+10	1	-1E+10	1	-1E+10	1	-1E+10	1
4901784	164	C	12/31/2019	10:46	-132.688	43.583	0	1320.00	0	2.8950	0	36.8320	8	29.368	0	1305.317	0	16.9	4	5.3	4	-1E+10	1	-1E+10	1	-1E+10	1	-1E+10	1	-1E+10	1	-1E+10	1
4901784	164	C	12/31/2019	10:46	-132.688	43.583	0	1325.40	0	2.8870	0	36.8330	8	29.370	0	1310.640	0	17.1	4	5.4	4	-1E+10	1	-1E+10	1	-1E+10	1	-1E+10	1	-1E+10	1	-1E+10	1
4901784	164	C	12/31/2019	10:46	-132.688	43.583	0	1330.00	0	2.8790	0	36.8340	8	29.371	0	1315.174	0	17.3	4	5.4	4	-1E+10	1	-1E+10	1	-1E+10	1	-1E+10	1	-1E+10	1	-1E+10	1
4901784	164	C	12/31/2019	10:46	-132.688	43.583	0	1334.60	0	2.8690	0	36.8300	8	29.369	0	1319.709	0	17.5	4	5.5	4	-1E+10	1	-1E+10	1	-1E+10	1	-1E+10	1	-1E+10	1	-1E+10	1
4901784	164	C	12/31/2019	10:46	-132.688	43.583	0	1340.20	0	2.8570	0	36.8320	8	29.372	0	1325.229	0	17.9	4	5.6	4	-1E+10	1	-1E+10	1	-1E+10	1	-1E+10	1	-1E+10	1	-1E+10	1
4901784	164	C	12/31/2019	10:46	-132.688	43.583	0	1344.90	0	2.8410	0	36.8340	8	29.375	0	1329.861	0	18.2	4	5.7	4	-1E+10	1	-1E+10	1	-1E+10	1	-1E+10	1	-1E+10	1	-1E+10	1
4901784	164	C	12/31/2019	10:46	-132.688	43.583	0	1349.60	0	2.8300	0	36.8370	8	29.378	0	1334.494	0	18.3	4	5.7	4	-1E+10	1	-1E+10	1	-1E+10	1	-1E+10	1	-1E+10	1	-1E+10	1
4901784	164	C	12/31/2019	10:46	-132.688	43.583	0	1355.30	0	2.8220	0	36.8370	8	29.379	0	1340.112	0	18.5	4	5.8	4	-1E+10	1	-1E+10	1	-1E+10	1	-1E+10	1	-1E+10	1	-1E+10	1
4901784	164	C	12/31/2019	10:46	-132.688	43.583	0	1360.10	0	2.8080	0	36.8410	8	29.384	0	1344.843	0	18.7	4	5.8	4	-1E+10	1	-1E+10	1	-1E+10	1	-1E+10	1	-1E+10	1	-1E+10	1
4901784	164	C	12/31/2019	10:46	-132.688	43.583	0	1364.80	0	2.8020	0	36.8410	8	29.384	0	1349.475	0	18.8	4	5.9	4	-1E+10	1	-1E+10	1	-1E+10	1	-1E+10	1	-1E+10	1	-1E+10	1
4901784	164	C	12/31/2019	10:46	-132.688	43.583	0	1370.60	0	2.7920	0	36.8430	8	29.387	0	1355.191	0	19.0	4	5.9	4	-1E+10	1	-1E+10	1	-1E+10	1	-1E+10	1	-1E+10	1	-1E+10	1
4901784	164	C	12/31/2019	10:46	-132.688	43.583	0	1375.90	0	2.7840	0	36.8440	8	29.389	0	1360.415	0	19.1	4	6.0	4	-1E+10	1	-1E+10	1	-1E+10	1	-1E+10	1	-1E+10	1	-1E+10	1
4901784	164	C	12/31/2019	10:46	-132.688	43.583	0	1380.20	0	2.7830	0	36.8450	8	29.389	0	1364.652	0	19.2	4	6.0	4	-1E+10	1	-1E+10	1	-1E+10	1	-1E+10	1	-1E+10	1	-1E+10	1
4901784	164	C	12/31/2019	10:46	-132.688	43.583	0	1385.20	0	2.7790	0	36.8450	8	29.390	0	1369.580	0	19.4	4	6.1	4	-1E+10	1	-1E+10	1	-1E+10	1	-1E+10	1	-1E+10	1	-1E+10	1
4901784	164	C	12/31/2019	10:46	-132.688	43.583	0	1390.20	0	2.7670	0	36.8510	8	29.396	0	1374.507	0	19.7	4	6.2	4	-1E+10	1	-1E+10	1	-1E+10	1	-1E+10	1	-1E+10	1	-1E+10	1
4901784	164	C	12/31/2019	10:46	-132.688	43.583	0	1395.30	0	2.7600	0	36.8550	8	29.400	0	1379.533	0	19.9	4	6.2	4	-1E+10	1	-1E+10	1	-1E+10	1	-1E+10	1	-1E+10	1	-1E+10	1
4901784	164	C	12/31/2019	10:46	-132.688	43.583	0	1400.40	0	2.7550	0	36.8550	8	29.400	0	1384.559	0	20.1	4	6.3	4	-1E+10	1	-1E+10	1	-1E+10	1	-1E+10	1	-1E+10	1	-1E+10	1
4901784	164	C	12/31/2019	10:46	-132.688	43.583	0	1405.50	0	2.7430	0	36.8580	8	29.404	0	1389.584	0	20.3	4	6.3	4	-1E+10	1	-1E+10	1	-1E+10	1	-1E+10	1	-1E+10	1	-1E+10	1
4901784	164	C	12/31/2019	10:46	-132.688	43.583	0	1410.70	0	2.7410	0	36.8580	8	29.404	0	1394.708	0	20.4	4	6.4	4	-1E+10	1	-1E+10	1	-1E+10	1	-1E+10	1	-1E+10	1	-1E+10	1
4901784	164	C	12/31/2019	10:46	-132.688	43.583	0	1415.10	0	2.7370	0	36.8590	8	29.405	0	1399.044	0	20.6	4	6.4	4	-1E+10	1	-1E+10	1	-1E+10	1	-1E+10	1	-1E+10	1	-1E+10	1
4901784	164	C	12/31/2019	10:46	-132.688	43.583	0	1419.50	0	2.7270	0	36.8610	8	29.408	0	1403.379	0	20.8	4	6.5	4	-1E+10	1	-1E+10	1	-1E+10	1	-1E+10	1	-1E+10	1	-1E+10	1
4901784	164	C	12/31/2019	10:46	-132.688	43.583	0	1424.80	0	2.7170	0	36.8620	8	29.410	0	1408.601	0	21.1	4	6.6	4	-1E+10	1	-1E+10	1	-1E+10	1	-1E+10	1	-1E+10	1	-1E+10	1
4901784	164	C	12/31/2019	10:46	-132.688	43.583	0	1430.10	0	2.7080	0	36.8640	8	29.412	0	1413.823	0	21.4	4	6.7	4	-1E+10	1	-1E+10	1	-1E+10	1	-1E+10	1	-1E+10	1	-1E+10	1
4901784	164	C	12/31/2019	10:46	-132.688	43.583	0	1435.50	0	2.6980	0	36.8660	8	29.415	0	1419.144	0	21.8	4	6.8	4	-1E+10	1	-1E+10	1	-1E+10	1	-1E+10	1	-1E+10	1	-1E+10	1
4901784	164	C	12/31/2019	10:46	-132.688	43.583	0	1440.00	0	2.6860	0	36.8670	8	29.417	0	1423.577	0	22.1	4	6.9	4	-1E+10	1	-1E+10	1	-1E+10	1	-1E+10	1	-1E+10	1	-1E+10	1
4901784	164	C	12/31/2019	10:46	-132.688	43.583	0	1444.50	0	2.6750	0	36.8700	8	29.420	0	1428.011	0	22.3	4	7.0	4	-1E+10	1	-1E+10	1	-1E+10	1	-1E+10	1	-1E+10	1	-1E+10	1
4901784	164	C	12/31/2019	10:46	-132.688	43.583	0	1449.90	0	2.6700	0	36.8710	8	29.421	0	1433.331	0	22.4	4	7.0	4	-1E+10	1	-1E+10	1	-1E+10	1	-1E+10	1	-1E+10	1	-1E+10	1
4901784	164	C	12/31/2019	10:46	-132.688	43.583	0	1455.20	0	2.6650	0	36.8720	8	29.423	0	1438.552	0	22.6	4	7.1	4	-1E+10	1	-1E+10	1	-1E+10	1	-1E+10	1	-1E+10	1	-1E+10	1
4901784	164	C	12/31/2019	10:46	-132.688	43.583	0	1460.50	0	2.6620	0	36.8720	8	29.423	0	1443.773	0	22.8	4	7.1	4	-1E+10	1	-1E+10	1	-1E+10	1	-1E+10	1	-1E+10	1	-1E+10	1
4901784	164	C	12/31/2019	10:46	-132.688	43.583	0	1465.80	0	2.6540	0	36.8730	8	29.424	0	1448.994	0	23.0	4	7.2	4	-1E+10	1	-1E+10	1	-1E+10	1	-1E+10	1	-1E+10	1	-1E+10	1
4901784	164	C	12/31/2019	10:46	-132.688	43.583	0	1470.10	0	2.6460	0	36.8750	8	29.427	0	1453.230	0	23.3	4	7.3	4	-1E+10	1	-1E+10	1	-1E+10	1	-1E+10	1	-1E+10	1	-1E+10	1
4901784	164	C	12/31/2019	10:46	-132.688	43.583	0	1474.50	0	2.6420	0	36.8750	8	29.427	0	1457.565	0	23.6	4	7.3	4	-1E+10	1	-1E+10	1	-1E+10	1	-1E+10	1	-1E+10	1	-1E+10	1
4901784	164	C	12/31/2019	10:46	-132.688	43.583	0	1479.90	0	2.6250	0	36.8770	8	29.430	0	1462.884	0	24.1	4	7.5	4	-1E+10	1	-1E+10	1	-1E+10	1	-1E+10	1	-1E+10	1	-1E+10	1
4901784	164	C	12/31/2019	10:46	-132.688	43.583	0	1485.20	0	2.6110	0	36.8790	8	29.433	0	1468.105	0	24.3	4	7.6	4	-1E+10	1	-1E+10	1	-1E+10	1	-1E+10	1	-1E+10	1	-1E+10	1
4901784	164	C	12/31/2019	10:46	-132.688	43.583	0	1490.60	0	2.6060	0	36.8800	8	29.435	0	1473.424	0	24.5	4	7.6	4	-1E+10	1	-1E+10	1	-1E+10	1	-1E+10	1	-1E+10	1	-1E+10	1
4901784	164	C	12/31/2019	10:46	-132.688	43.583	0	1495.10	0	2.5990	0	36.8800	8	29.435	0	1477.856	0	24.8	4	7.7	4	-1E+10	1	-1E+10	1	-1E+10	1	-1E+10	1	-1E+10	1	-1E+10	1
4901784	164	C	12/31/2019	10:46	-132.688	43.583	0	1499.70	0	2.5840	0	36.8830	8	29.439	0	1482.387	0	25.2	4	7.8	4	-1E+10	1	-1E+10	1	-1E+10	1	-1E+10	1	-1E+10	1	-1E+10	1
4901784	164	C	12/31/2019	10:46	-132.688	43.583	0	1505.20	0	2.5700	0	36.8850	8	29.442	0	1487.804	0	25.4	4	7.9	4	-1E+10	1	-1E+10	1	-1E+10	1	-1E+10	1	-1E+10	1	-1E+10	1
4901784	164	C	12/31/2019	10:46	-132.688	43.583	0	1509.90	0	2.5620	0	36.8870	8	29.444	0	1492.433	0	25.7	4	8.0	4	-1E+10	1	-1E+10	1	-1E+10	1	-1E+10	1	-1E+10	1	-1E+10	1
4901784	164	C	12/31/2019	10:46	-132.688	43.583	0	1514.80	0	2.5560	0	36.8880	8	29.446	0	1497.259	0	25.8	4	8.0	4	-1E+10	1	-1E+10	1	-1E+10	1	-1E+10	1	-1E+10	1	-1E+10	1
4901784	164	C	12/31/2019	10:46	-132.688	43.583	0	1520.00	0	2.5550	0	36.8880	8	29.446	0	1502.380	0	26.0	4	8.1	4	-1E+10	1	-1E+10	1	-1E+10	1	-1E+10	1	-1E+10	1	-1E+10	1
4901784	164	C	12/31/2019	10:46	-132.688	43.583	0	1524.80	0	2.5440	0	36.8890	8	29.448	0	1507.108	0	26.5	4	8.2	4	-1E+10	1	-1E+10	1	-1E+10	1	-1E+10	1	-1E+10	1	-1E+10	1
4901784	164	C	12/31/2019	10:46	-132.688	43.583	0	1529.60	0	2.5270	0	36.8920	8	29.452	0	1511.835	0	26.8	4	8.3	4	-1E+10	1	-1E+10	1	-1E+10	1	-1E+10	1	-1E+10	1	-1E+10	1
4901784	164	C	12/31/2019	10:46	-132.688	43.583	0	1534.50	0	2.5240	0	36.8930	8	29.453	0	1516.660	0	26.9	4	8.4	4	-1E+10	1	-1E+10	1	-1E+10	1	-1E+10	1	-1E+10	1	-1E+10	1
4901784	164	C	12/31/2019	10:46	-132.688	43.583	0	1539.40	0	2.5210	0	36.8930	8	29.453	0	1521.486	0	27.1	4	8.4	4	-1E+10	1	-1E+10	1	-1E+10	1	-1E+10	1	-1E+10	1	-1E+10	1
4901784	164	C	12/31/2019	10:46	-132.688	43.583	0	1544.40	0	2.5150	0	36.8930	8	29.454	0	1526.410	0	27.5	4	8.5	4	-1E+10	1	-1E+10	1	-1E+10	1	-1E+10	1	-1E+10	1	-1E+10	1
4901784	164	C	12/31/2019	10:46	-132.688	43.583	0	1549.40	0	2.5040	0	36.8950	8	29.456	0	1531.333	0	27.9	4	8.7	4	-1E+10	1	-1E+10	1	-1E+10	1	-1E+10	1	-1E+10	1	-1E+10	1
4901784	164	C	12/31/2019	10:46	-132.688	43.583	0	1554.50	0	2.4910	0	36.8980	8	29.460	0	1536.355	0	28.1	4	8.7	4	-1E+10	1	-1E+10	1	-1E+10	1	-1E+10	1	-1E+10	1	-1E+10	1
4901784	164	C	12/31/2019	10:46	-132.688	43.583	0	1559.60	0	2.4900	0	36.8980	8	29.460	0	1541.377	0	28.2	4	8.8	4	-1E+10	1	-1E+10	1	-1E+10	1	-1E+10	1	-1E+10	1	-1E+10	1
4901784	164	C	12/31/2019	10:46	-132.688	43.583	0	1564.80	0	2.4890	0	36.8990	8	29.461	0	1546.497	0	28.3	4	8.8	4	-1E+10	1	-1E+10	1	-1E+10	1	-1E+10	1	-1E+10	1	-1E+10	1
4901784	164	C	12/31/2019	10:46	-132.688	43.583	0	1570.00	0	2.4850	0	36.8990	8	29.461	0	1551.618	0	28.6	4	8.9	4	-1E+10	1	-1E+10	1	-1E+10	1	-1E+10	1	-1E+10	1	-1E+10	1
4901784	164	C	12/31/2019	10:46	-132.688	43.583	0	1575.20	0	2.4740	0	36.9010	8	29.464	0	1556.737	0	29.0	4	9.0	4	-1E+10	1	-1E+10	1	-1E+10	1	-1E+10	1	-1E+10	1	-1E+10	1
4901784	164	C	12/31/2019	10:46	-132.688	43.583	0	1580.40	0	2.4670	0	36.9020	8	29.465	0	1561.857	0	29.4	4	9.1	4	-1E+10	1	-1E+10	1	-1E+10	1	-1E+10	1	-1E+10	1	-1E+10	1
4901784	164	C	12/31/2019	10:46	-132.688	43.583	0	1585.50	0	2.4520	0	36.9030	8	29.468	0	1566.879	0	29.9	4	9.3	4	-1E+10	1	-1E+10	1	-1E+10	1	-1E+10	1	-1E+10	1	-1E+10	1
4901784	164	C	12/31/2019	10:46	-132.688	43.583	0	1589.90	0	2.4410	0	36.9050	8	29.470	0	1571.211	0	30.1	4	9.4	4	-1E+10	1	-1E+10	1	-1E+10	1	-1E+10	1	-1E+10	1	-1E+10	1
4901784	164	C	12/31/2019	10:46	-132.688	43.583	0	1594.30	0	2.4350	0	36.9060	8	29.472	0	1575.543	0	30.3	4	9.4	4	-1E+10	1	-1E+10	1	-1E+10	1	-1E+10	1	-1E+10	1	-1E+10	1
4901784	164	C	12/31/2019	10:46	-132.688	43.583	0	1599.50	0	2.4310	0	36.9060	8	29.472	0	1580.662	0	30.7	4	9.5	4	-1E+10	1	-1E+10	1	-1E+10	1	-1E+10	1	-1E+10	1	-1E+10	1
4901784	164	C	12/31/2019	10:46	-132.688	43.583	0	1604.80	0	2.4160	0	36.9090	8	29.476	0	1585.880	0	31.1	4	9.7	4	-1E+10	1	-1E+10	1	-1E+10	1	-1E+10	1	-1E+10	1	-1E+10	1
4901784	164	C	12/31/2019	10:46	-132.688	43.583	0	1610.00	0	2.4090	0	36.9100	8	29.477	0	1590.999	0	31.4	4	9.7	4	-1E+10	1	-1E+10	1	-1E+10	1	-1E+10	1	-1E+10	1	-1E+10	1
4901784	164	C	12/31/2019	10:46	-132.688	43.583	0	1615.20	0	2.4020	0	36.9110	8	29.479	0	1596.118	0	31.7	4	9.8	4	-1E+10	1	-1E+10	1	-1E+10	1	-1E+10	1	-1E+10	1	-1E+10	1
4901784	164	C	12/31/2019	10:46	-132.688	43.583	0	1620.50	0	2.3970	0	36.9120	8	29.480	0	1601.335	0	32.0	4	9.9	4	-1E+10	1	-1E+10	1	-1E+10	1	-1E+10	1	-1E+10	1	-1E+10	1
4901784	164	C	12/31/2019	10:46	-132.688	43.583	0	1624.90	0	2.3880	0	36.9130	8	29.482	0	1605.667	0	32.2	4	10.0	4	-1E+10	1	-1E+10	1	-1E+10	1	-1E+10	1	-1E+10	1	-1E+10	1
4901784	164	C	12/31/2019	10:46	-132.688	43.583	0	1629.30	0	2.3870	0	36.9130	8	29.482	0	1609.998	0	32.5	4	10.1	4	-1E+10	1	-1E+10	1	-1E+10	1	-1E+10	1	-1E+10	1	-1E+10	1
4901784	164	C	12/31/2019	10:46	-132.688	43.583	0	1634.70	0	2.3810	0	36.9130	8	29.482	0	1615.313	0	33.1	4	10.2	4	-1E+10	1	-1E+10	1	-1E+10	1	-1E+10	1	-1E+10	1	-1E+10	1
4901784	164	C	12/31/2019	10:46	-132.688	43.583	0	1640.00	0	2.3580	0	36.9170	8	29.488	0	1620.530	0	33.8	4	10.5	4	-1E+10	1	-1E+10	1	-1E+10	1	-1E+10	1	-1E+10	1	-1E+10	1
4901784	164	C	12/31/2019	10:46	-132.688	43.583	0	1645.30	0	2.3450	0	36.9190	8	29.490	0	1625.747	0	34.1	4	10.6	4	-1E+10	1	-1E+10	1	-1E+10	1	-1E+10	1	-1E+10	1	-1E+10	1
4901784	164	C	12/31/2019	10:46	-132.688	43.583	0	1649.80	0	2.3440	0	36.9190	8	29.490	0	1630.176	0	34.3	4	10.6	4	-1E+10	1	-1E+10	1	-1E+10	1	-1E+10	1	-1E+10	1	-1E+10	1
4901784	164	C	12/31/2019	10:46	-132.688	43.583	0	1654.30	0	2.3370	0	36.9200	8	29.492	0	1634.605	0	34.7	4	10.7	4	-1E+10	1	-1E+10	1	-1E+10	1	-1E+10	1	-1E+10	1	-1E+10	1
4901784	164	C	12/31/2019	10:46	-132.688	43.583	0	1659.70	0	2.3270	0	36.9220	8	29.494	0	1639.920	0	35.0	4	10.8	4	-1E+10	1	-1E+10	1	-1E+10	1	-1E+10	1	-1E+10	1	-1E+10	1
4901784	164	C	12/31/2019	10:46	-132.688	43.583	0	1665.20	0	2.3210	0	36.9230	8	29.496	0	1645.333	0	35.3	4	10.9	4	-1E+10	1	-1E+10	1	-1E+10	1	-1E+10	1	-1E+10	1	-1E+10	1
4901784	164	C	12/31/2019	10:46	-132.688	43.583	0	1670.70	0	2.3140	0	36.9250	8	29.498	0	1650.746	0	35.5	4	11.0	4	-1E+10	1	-1E+10	1	-1E+10	1	-1E+10	1	-1E+10	1	-1E+10	1
4901784	164	C	12/31/2019	10:46	-132.688	43.583	0	1675.20	0	2.3130	0	36.9250	8	29.498	0	1655.175	0	35.7	4	11.1	4	-1E+10	1	-1E+10	1	-1E+10	1	-1E+10	1	-1E+10	1	-1E+10	1
4901784	164	C	12/31/2019	10:46	-132.688	43.583	0	1679.60	0	2.3080	0	36.9250	8	29.499	0	1659.505	0	36.1	4	11.2	4	-1E+10	1	-1E+10	1	-1E+10	1	-1E+10	1	-1E+10	1	-1E+10	1
4901784	164	C	12/31/2019	10:46	-132.688	43.583	0	1685.10	0	2.2960	0	36.9270	8	29.501	0	1664.918	0	36.7	4	11.4	4	-1E+10	1	-1E+10	1	-1E+10	1	-1E+10	1	-1E+10	1	-1E+10	1
4901784	164	C	12/31/2019	10:46	-132.688	43.583	0	1690.60	0	2.2820	0	36.9290	8	29.504	0	1670.330	0	37.2	4	11.5	4	-1E+10	1	-1E+10	1	-1E+10	1	-1E+10	1	-1E+10	1	-1E+10	1
4901784	164	C	12/31/2019	10:46	-132.688	43.583	0	1695.10	0	2.2750	0	36.9310	8	29.506	0	1674.758	0	37.4	4	11.6	4	-1E+10	1	-1E+10	1	-1E+10	1	-1E+10	1	-1E+10	1	-1E+10	1
4901784	164	C	12/31/2019	10:46	-132.688	43.583	0	1699.70	0	2.2740	0	36.9310	8	29.507	0	1679.285	0	37.6	4	11.6	4	-1E+10	1	-1E+10	1	-1E+10	1	-1E+10	1	-1E+10	1	-1E+10	1
4901784	164	C	12/31/2019	10:46	-132.688	43.583	0	1705.10	0	2.2710	0	36.9320	8	29.508	0	1684.599	0	37.8	4	11.7	4	-1E+10	1	-1E+10	1	-1E+10	1	-1E+10	1	-1E+10	1	-1E+10	1
4901784	164	C	12/31/2019	10:46	-132.688	43.583	0	1710.50	0	2.2680	0	36.9330	8	29.509	0	1689.912	0	38.2	4	11.8	4	-1E+10	1	-1E+10	1	-1E+10	1	-1E+10	1	-1E+10	1	-1E+10	1
4901784	164	C	12/31/2019	10:46	-132.688	43.583	0	1715.10	0	2.2630	0	36.9330	8	29.509	0	1694.439	0	38.6	4	11.9	4	-1E+10	1	-1E+10	1	-1E+10	1	-1E+10	1	-1E+10	1	-1E+10	1
4901784	164	C	12/31/2019	10:46	-132.688	43.583	0	1719.60	0	2.2560	0	36.9350	8	29.511	0	1698.866	0	39.1	4	12.1	4	-1E+10	1	-1E+10	1	-1E+10	1	-1E+10	1	-1E+10	1	-1E+10	1
4901784	164	C	12/31/2019	10:46	-132.688	43.583	0	1725.10	0	2.2470	0	36.9360	8	29.513	0	1704.278	0	39.8	4	12.3	4	-1E+10	1	-1E+10	1	-1E+10	1	-1E+10	1	-1E+10	1	-1E+10	1
4901784	164	C	12/31/2019	10:46	-132.688	43.583	0	1730.60	0	2.2320	0	36.9390	8	29.517	0	1709.689	0	40.3	4	12.5	4	-1E+10	1	-1E+10	1	-1E+10	1	-1E+10	1	-1E+10	1	-1E+10	1
4901784	164	C	12/31/2019	10:46	-132.688	43.583	0	1735.20	0	2.2210	0	36.9400	8	29.519	0	1714.215	0	40.7	4	12.5	4	-1E+10	1	-1E+10	1	-1E+10	1	-1E+10	1	-1E+10	1	-1E+10	1
4901784	164	C	12/31/2019	10:46	-132.688	43.583	0	1739.90	0	2.2100	0	36.9410	8	29.520	0	1718.839	0	40.9	4	12.6	4	-1E+10	1	-1E+10	1	-1E+10	1	-1E+10	1	-1E+10	1	-1E+10	1
4901784	164	C	12/31/2019	10:46	-132.688	43.583	0	1744.60	0	2.2040	0	36.9410	8	29.521	0	1723.463	0	41.1	4	12.7	4	-1E+10	1	-1E+10	1	-1E+10	1	-1E+10	1	-1E+10	1	-1E+10	1
4901784	164	C	12/31/2019	10:46	-132.688	43.583	0	1749.20	0	2.1970	0	36.9420	8	29.522	0	1727.989	0	41.4	4	12.8	4	-1E+10	1	-1E+10	1	-1E+10	1	-1E+10	1	-1E+10	1	-1E+10	1
4901784	164	C	12/31/2019	10:46	-132.688	43.583	0	1754.60	0	2.1860	0	36.9430	8	29.524	0	1733.301	0	42.1	4	13.0	4	-1E+10	1	-1E+10	1	-1E+10	1	-1E+10	1	-1E+10	1	-1E+10	1
4901784	164	C	12/31/2019	10:46	-132.688	43.583	0	1759.40	0	2.1720	0	36.9450	8	29.527	0	1738.024	0	42.6	4	13.1	4	-1E+10	1	-1E+10	1	-1E+10	1	-1E+10	1	-1E+10	1	-1E+10	1
4901784	164	C	12/31/2019	10:46	-132.688	43.583	0	1765.10	0	2.1610	0	36.9460	8	29.529	0	1743.631	0	43.3	4	13.4	4	-1E+10	1	-1E+10	1	-1E+10	1	-1E+10	1	-1E+10	1	-1E+10	1
4901784	164	C	12/31/2019	10:46	-132.688	43.583	0	1770.00	0	2.1470	0	36.9490	8	29.532	0	1748.451	0	43.9	4	13.5	4	-1E+10	1	-1E+10	1	-1E+10	1	-1E+10	1	-1E+10	1	-1E+10	1
4901784	164	C	12/31/2019	10:46	-132.688	43.583	0	1775.00	0	2.1400	0	36.9500	8	29.534	0	1753.370	0	44.4	4	13.7	4	-1E+10	1	-1E+10	1	-1E+10	1	-1E+10	1	-1E+10	1	-1E+10	1
4901784	164	C	12/31/2019	10:46	-132.688	43.583	0	1780.70	0	2.1290	0	36.9520	8	29.536	0	1758.977	0	45.1	4	13.9	4	-1E+10	1	-1E+10	1	-1E+10	1	-1E+10	1	-1E+10	1	-1E+10	1
4901784	164	C	12/31/2019	10:46	-132.688	43.583	0	1785.80	0	2.1190	0	36.9540	8	29.539	0	1763.993	0	45.6	4	14.0	4	-1E+10	1	-1E+10	1	-1E+10	1	-1E+10	1	-1E+10	1	-1E+10	1
4901784	164	C	12/31/2019	10:46	-132.688	43.583	0	1790.10	0	2.1180	0	36.9550	8	29.540	0	1768.223	0	45.8	4	14.1	4	-1E+10	1	-1E+10	1	-1E+10	1	-1E+10	1	-1E+10	1	-1E+10	1
4901784	164	C	12/31/2019	10:46	-132.688	43.583	0	1794.40	0	2.1140	0	36.9550	8	29.540	0	1772.452	0	46.2	4	14.2	4	-1E+10	1	-1E+10	1	-1E+10	1	-1E+10	1	-1E+10	1	-1E+10	1
4901784	164	C	12/31/2019	10:46	-132.688	43.583	0	1799.60	0	2.1040	0	36.9580	8	29.544	0	1777.567	0	46.7	4	14.4	4	-1E+10	1	-1E+10	1	-1E+10	1	-1E+10	1	-1E+10	1	-1E+10	1
4901784	164	C	12/31/2019	10:46	-132.688	43.583	0	1804.70	0	2.1000	0	36.9590	8	29.545	0	1782.583	0	46.8	4	14.4	4	-1E+10	1	-1E+10	1	-1E+10	1	-1E+10	1	-1E+10	1	-1E+10	1
4901784	164	C	12/31/2019	10:46	-132.688	43.583	0	1809.90	0	2.1000	0	36.9590	8	29.545	0	1787.698	0	46.9	4	14.4	4	-1E+10	1	-1E+10	1	-1E+10	1	-1E+10	1	-1E+10	1	-1E+10	1
4901784	164	C	12/31/2019	10:46	-132.688	43.583	0	1815.10	0	2.0990	0	36.9590	8	29.545	0	1792.812	0	47.1	4	14.5	4	-1E+10	1	-1E+10	1	-1E+10	1	-1E+10	1	-1E+10	1	-1E+10	1
4901784	164	C	12/31/2019	10:46	-132.688	43.583	0	1820.40	0	2.0970	0	36.9600	8	29.546	0	1798.024	0	47.3	4	14.6	4	-1E+10	1	-1E+10	1	-1E+10	1	-1E+10	1	-1E+10	1	-1E+10	1
4901784	164	C	12/31/2019	10:46	-132.688	43.583	0	1825.60	0	2.0910	0	36.9610	8	29.547	0	1803.138	0	47.6	4	14.7	4	-1E+10	1	-1E+10	1	-1E+10	1	-1E+10	1	-1E+10	1	-1E+10	1
4901784	164	C	12/31/2019	10:46	-132.688	43.583	0	1830.70	0	2.0870	0	36.9610	8	29.548	0	1808.154	0	47.8	4	14.7	4	-1E+10	1	-1E+10	1	-1E+10	1	-1E+10	1	-1E+10	1	-1E+10	1
4901784	164	C	12/31/2019	10:46	-132.688	43.583	0	1835.10	0	2.0840	0	36.9620	8	29.549	0	1812.481	0	47.7	4	14.7	4	-1E+10	1	-1E+10	1	-1E+10	1	-1E+10	1	-1E+10	1	-1E+10	1
4901784	164	C	12/31/2019	10:46	-132.688	43.583	0	1839.50	0	2.0850	0	36.9620	8	29.549	0	1816.808	0	47.8	4	14.7	4	-1E+10	1	-1E+10	1	-1E+10	1	-1E+10	1	-1E+10	1	-1E+10	1
4901784	164	C	12/31/2019	10:46	-132.688	43.583	0	1844.90	0	2.0830	0	36.9620	8	29.549	0	1822.118	0	47.9	4	14.7	4	-1E+10	1	-1E+10	1	-1E+10	1	-1E+10	1	-1E+10	1	-1E+10	1
4901784	164	C	12/31/2019	10:46	-132.688	43.583	0	1850.20	0	2.0820	0	36.9620	8	29.549	0	1827.330	0	48.0	4	14.8	4	-1E+10	1	-1E+10	1	-1E+10	1	-1E+10	1	-1E+10	1	-1E+10	1
4901784	164	C	12/31/2019	10:46	-132.688	43.583	0	1855.40	0	2.0810	0	36.9620	8	29.549	0	1832.443	0	48.2	4	14.8	4	-1E+10	1	-1E+10	1	-1E+10	1	-1E+10	1	-1E+10	1	-1E+10	1
4901784	164	C	12/31/2019	10:46	-132.688	43.583	0	1860.60	0	2.0780	0	36.9630	8	29.550	0	1837.557	0	48.4	4	14.9	4	-1E+10	1	-1E+10	1	-1E+10	1	-1E+10	1	-1E+10	1	-1E+10	1
4901784	164	C	12/31/2019	10:46	-132.688	43.583	0	1865.00	0	2.0780	0	36.9630	8	29.550	0	1841.883	0	48.7	4	15.0	4	-1E+10	1	-1E+10	1	-1E+10	1	-1E+10	1	-1E+10	1	-1E+10	1
4901784	164	C	12/31/2019	10:46	-132.688	43.583	0	1869.60	0	2.0690	0	36.9640	8	29.552	0	1846.406	0	49.1	4	15.1	4	-1E+10	1	-1E+10	1	-1E+10	1	-1E+10	1	-1E+10	1	-1E+10	1
4901784	164	C	12/31/2019	10:46	-132.688	43.583	0	1875.10	0	2.0610	0	36.9660	8	29.554	0	1851.814	0	49.5	4	15.2	4	-1E+10	1	-1E+10	1	-1E+10	1	-1E+10	1	-1E+10	1	-1E+10	1
4901784	164	C	12/31/2019	10:46	-132.688	43.583	0	1880.60	0	2.0580	0	36.9660	8	29.554	0	1857.222	0	49.6	4	15.3	4	-1E+10	1	-1E+10	1	-1E+10	1	-1E+10	1	-1E+10	1	-1E+10	1
4901784	164	C	12/31/2019	10:46	-132.688	43.583	0	1885.10	0	2.0550	0	36.9670	8	29.555	0	1861.646	0	49.8	4	15.3	4	-1E+10	1	-1E+10	1	-1E+10	1	-1E+10	1	-1E+10	1	-1E+10	1
4901784	164	C	12/31/2019	10:46	-132.688	43.583	0	1889.70	0	2.0530	0	36.9670	8	29.556	0	1866.169	0	50.1	4	15.4	4	-1E+10	1	-1E+10	1	-1E+10	1	-1E+10	1	-1E+10	1	-1E+10	1
4901784	164	C	12/31/2019	10:46	-132.688	43.583	0	1895.10	0	2.0500	0	36.9680	8	29.557	0	1871.478	0	50.4	4	15.5	4	-1E+10	1	-1E+10	1	-1E+10	1	-1E+10	1	-1E+10	1	-1E+10	1
4901784	164	C	12/31/2019	10:46	-132.688	43.583	0	1900.60	0	2.0440	0	36.9690	8	29.558	0	1876.885	0	51.0	4	15.7	4	-1E+10	1	-1E+10	1	-1E+10	1	-1E+10	1	-1E+10	1	-1E+10	1
4901784	164	C	12/31/2019	10:46	-132.688	43.583	0	1905.10	0	2.0400	0	36.9690	8	29.558	0	1881.309	0	51.4	4	15.8	4	-1E+10	1	-1E+10	1	-1E+10	1	-1E+10	1	-1E+10	1	-1E+10	1
4901784	164	C	12/31/2019	10:46	-132.688	43.583	0	1909.60	0	2.0310	0	36.9710	8	29.561	0	1885.733	0	52.1	4	16.0	4	-1E+10	1	-1E+10	1	-1E+10	1	-1E+10	1	-1E+10	1	-1E+10	1
4901784	164	C	12/31/2019	10:46	-132.688	43.583	0	1914.90	0	2.0220	0	36.9730	8	29.563	0	1890.943	0	52.5	4	16.1	4	-1E+10	1	-1E+10	1	-1E+10	1	-1E+10	1	-1E+10	1	-1E+10	1
4901784	164	C	12/31/2019	10:46	-132.688	43.583	0	1920.30	0	2.0160	0	36.9740	8	29.565	0	1896.251	0	53.0	4	16.3	4	-1E+10	1	-1E+10	1	-1E+10	1	-1E+10	1	-1E+10	1	-1E+10	1
4901784	164	C	12/31/2019	10:46	-132.688	43.583	0	1925.60	0	2.0140	0	36.9740	8	29.565	0	1901.461	0	53.5	4	16.4	4	-1E+10	1	-1E+10	1	-1E+10	1	-1E+10	1	-1E+10	1	-1E+10	1
4901784	164	C	12/31/2019	10:46	-132.688	43.583	0	1930.00	0	2.0060	0	36.9750	8	29.566	0	1905.786	0	54.1	4	16.6	4	-1E+10	1	-1E+10	1	-1E+10	1	-1E+10	1	-1E+10	1	-1E+10	1
4901784	164	C	12/31/2019	10:46	-132.688	43.583	0	1935.00	0	1.9930	0	36.9770	8	29.569	0	1910.701	0	55.1	4	16.9	4	-1E+10	1	-1E+10	1	-1E+10	1	-1E+10	1	-1E+10	1	-1E+10	1
4901784	164	C	12/31/2019	10:46	-132.688	43.583	0	1939.80	0	1.9760	0	36.9800	8	29.573	0	1915.419	0	55.7	4	17.1	4	-1E+10	1	-1E+10	1	-1E+10	1	-1E+10	1	-1E+10	1	-1E+10	1
4901784	164	C	12/31/2019	10:46	-132.688	43.583	0	1944.50	0	1.9730	0	36.9810	8	29.574	0	1920.039	0	55.9	4	17.2	4	-1E+10	1	-1E+10	1	-1E+10	1	-1E+10	1	-1E+10	1	-1E+10	1
4901784	164	C	12/31/2019	10:46	-132.688	43.583	0	1949.90	0	1.9690	0	36.9820	8	29.575	0	1925.347	0	56.4	4	17.3	4	-1E+10	1	-1E+10	1	-1E+10	1	-1E+10	1	-1E+10	1	-1E+10	1
4901784	164	C	12/31/2019	10:46	-132.688	43.583	0	1955.50	0	1.9610	0	36.9830	8	29.577	0	1930.851	0	57.1	4	17.5	4	-1E+10	1	-1E+10	1	-1E+10	1	-1E+10	1	-1E+10	1	-1E+10	1
4901784	164	C	12/31/2019	10:46	-132.688	43.583	0	1960.40	0	1.9500	0	36.9850	8	29.579	0	1935.667	0	57.7	4	17.7	4	-1E+10	1	-1E+10	1	-1E+10	1	-1E+10	1	-1E+10	1	-1E+10	1
4901784	164	C	12/31/2019	10:46	-132.688	43.583	0	1965.30	0	1.9450	0	36.9860	8	29.580	0	1940.483	0	58.1	4	17.8	4	-1E+10	1	-1E+10	1	-1E+10	1	-1E+10	1	-1E+10	1	-1E+10	1
4901784	164	C	12/31/2019	10:46	-132.688	43.583	0	1970.40	0	1.9410	0	36.9860	8	29.581	0	1945.495	0	58.5	4	17.9	4	-1E+10	1	-1E+10	1	-1E+10	1	-1E+10	1	-1E+10	1	-1E+10	1
4901784	164	C	12/31/2019	10:46	-132.688	43.583	0	1975.40	0	1.9320	0	36.9880	8	29.583	0	1950.409	0	58.9	4	18.1	4	-1E+10	1	-1E+10	1	-1E+10	1	-1E+10	1	-1E+10	1	-1E+10	1
4901784	164	C	12/31/2019	10:46	-132.688	43.583	0	1980.50	0	1.9290	0	36.9880	8	29.583	0	1955.421	0	59.1	4	18.1	4	-1E+10	1	-1E+10	1	-1E+10	1	-1E+10	1	-1E+10	1	-1E+10	1
4901784	164	C	12/31/2019	10:46	-132.688	43.583	0	1985.60	0	1.9260	0	36.9890	8	29.585	0	1960.433	0	59.2	4	18.2	4	-1E+10	1	-1E+10	1	-1E+10	1	-1E+10	1	-1E+10	1	-1E+10	1
4901784	164	C	12/31/2019	10:46	-132.688	43.583	0	1989.90	0	1.9260	0	36.9890	8	29.585	0	1964.659	0	59.3	4	18.2	4	-1E+10	1	-1E+10	1	-1E+10	1	-1E+10	1	-1E+10	1	-1E+10	1
4901784	164	C	12/31/2019	10:46	-132.688	43.583	0	1994.90	0	1.9250	0	36.9900	8	29.586	0	1969.572	0	59.4	4	18.2	4	-1E+10	1	-1E+10	1	-1E+10	1	-1E+10	1	-1E+10	1	-1E+10	1
4901784	164	C	12/31/2019	10:46	-132.688	43.583	0	2000.30	0	1.9240	0	36.9900	8	29.586	0	1974.879	0	59.5	4	18.2	4	-1E+10	1	-1E+10	1	-1E+10	1	-1E+10	1	-1E+10	1	-1E+10	1
4901784	164	C	12/31/2019	10:46	-132.688	43.583	0	2005.50	0	1.9230	0	36.9900	8	29.586	0	1979.988	0	59.5	4	18.2	4	-1E+10	1	-1E+10	1	-1E+10	1	-1E+10	1	-1E+10	1	-1E+10	1
4901784	164	C	12/31/2019	10:46	-132.688	43.583	0	2009.80	0	1.9240	0	36.9900	8	29.586	0	1984.214	0	59.5	4	18.2	4	-1E+10	1	-1E+10	1	-1E+10	1	-1E+10	1	-1E+10	1	-1E+10	1
4901784	164	C	12/31/2019	10:46	-132.688	43.583	0	2015.60	0	1.9230	0	36.9910	8	29.587	0	1989.913	0	58.1	4	17.8	4	-1E+10	1	-1E+10	1	-1E+10	1	-1E+10	1	-1E+10	1	-1E+10	1
4901784	164	C	12/31/2019	10:46	-132.688	43.583	0																										
4901784	165	C	01/10/2020	10:50	-132.645	43.538	0	2.10	0	12.7570	0	34.7050	8	26.213	0	2.083	0	248.0	4	95.5	4	-1E+10	1	-1E+10	1	-1E+10	1	-1E+10	1	-1E+10	1	-1E+10	1
4901784	165	C	01/10/2020	10:50	-132.645	43.538	0	3.20	0	12.7570	0	34.7060	8	26.214	0	3.174	0	247.8	4	95.4	4	-1E+10	1	-1E+10	1	-1E+10	1	-1E+10	1	-1E+10	1	-1E+10	1
4901784	165	C	01/10/2020	10:50	-132.645	43.538	0	4.40	0	12.7570	0	34.7060	8	26.214	0	4.365	0	247.8	4	95.4	4	-1E+10	1	-1E+10	1	-1E+10	1	-1E+10	1	-1E+10	1	-1E+10	1
4901784	165	C	01/10/2020	10:50	-132.645	43.538	0	5.90	0	12.7560	0	34.7070	8	26.215	0	5.853	0	247.9	4	95.4	4	-1E+10	1	-1E+10	1	-1E+10	1	-1E+10	1	-1E+10	1	-1E+10	1
4901784	165	C	01/10/2020	10:50	-132.645	43.538	0	7.60	0	12.7580	0	34.7070	8	26.215	0	7.539	0	247.9	4	95.4	4	-1E+10	1	-1E+10	1	-1E+10	1	-1E+10	1	-1E+10	1	-1E+10	1
4901784	165	C	01/10/2020	10:50	-132.645	43.538	0	9.60	0	12.7570	0	34.7080	8	26.216	0	9.523	0	247.7	4	95.4	4	-1E+10	1	-1E+10	1	-1E+10	1	-1E+10	1	-1E+10	1	-1E+10	1
4901784	165	C	01/10/2020	10:50	-132.645	43.538	0	11.50	0	12.7580	0	34.7080	8	26.216	0	11.408	0	247.8	4	95.4	4	-1E+10	1	-1E+10	1	-1E+10	1	-1E+10	1	-1E+10	1	-1E+10	1
4901784	165	C	01/10/2020	10:50	-132.645	43.538	0	13.40	0	12.7580	0	34.7090	8	26.217	0	13.293	0	247.7	4	95.4	4	-1E+10	1	-1E+10	1	-1E+10	1	-1E+10	1	-1E+10	1	-1E+10	1
4901784	165	C	01/10/2020	10:50	-132.645	43.538	0	15.20	0	12.7580	0	34.7090	8	26.217	0	15.078	0	247.7	4	95.4	4	-1E+10	1	-1E+10	1	-1E+10	1	-1E+10	1	-1E+10	1	-1E+10	1
4901784	165	C	01/10/2020	10:50	-132.645	43.538	0	17.00	0	12.7580	0	34.7090	8	26.217	0	16.864	0	247.6	4	95.3	4	-1E+10	1	-1E+10	1	-1E+10	1	-1E+10	1	-1E+10	1	-1E+10	1
4901784	165	C	01/10/2020	10:50	-132.645	43.538	0	19.00	0	12.7590	0	34.7100	8	26.217	0	18.847	0	247.7	4	95.4	4	-1E+10	1	-1E+10	1	-1E+10	1	-1E+10	1	-1E+10	1	-1E+10	1
4901784	165	C	01/10/2020	10:50	-132.645	43.538	0	20.90	0	12.7590	0	34.7110	8	26.218	0	20.732	0	247.7	4	95.4	4	-1E+10	1	-1E+10	1	-1E+10	1	-1E+10	1	-1E+10	1	-1E+10	1
4901784	165	C	01/10/2020	10:50	-132.645	43.538	0	22.70	0	12.7590	0	34.7110	8	26.218	0	22.518	0	247.6	4	95.3	4	-1E+10	1	-1E+10	1	-1E+10	1	-1E+10	1	-1E+10	1	-1E+10	1
4901784	165	C	01/10/2020	10:50	-132.645	43.538	0	24.60	0	12.7590	0	34.7120	8	26.219	0	24.402	0	247.6	4	95.3	4	-1E+10	1	-1E+10	1	-1E+10	1	-1E+10	1	-1E+10	1	-1E+10	1
4901784	165	C	01/10/2020	10:50	-132.645	43.538	0	26.40	0	12.7590	0	34.7130	8	26.220	0	26.188	0	247.5	4	95.3	4	-1E+10	1	-1E+10	1	-1E+10	1	-1E+10	1	-1E+10	1	-1E+10	1
4901784	165	C	01/10/2020	10:50	-132.645	43.538	0	28.20	0	12.7600	0	34.7130	8	26.220	0	27.973	0	247.5	4	95.3	4	-1E+10	1	-1E+10	1	-1E+10	1	-1E+10	1	-1E+10	1	-1E+10	1
4901784	165	C	01/10/2020	10:50	-132.645	43.538	0	30.10	0	12.7600	0	34.7140	8	26.221	0	29.858	0	247.3	4	95.2	4	-1E+10	1	-1E+10	1	-1E+10	1	-1E+10	1	-1E+10	1	-1E+10	1
4901784	165	C	01/10/2020	10:50	-132.645	43.538	0	31.90	0	12.7610	0	34.7140	8	26.220	0	31.643	0	247.5	4	95.3	4	-1E+10	1	-1E+10	1	-1E+10	1	-1E+10	1	-1E+10	1	-1E+10	1
4901784	165	C	01/10/2020	10:50	-132.645	43.538	0	33.60	0	12.7610	0	34.7150	8	26.221	0	33.329	0	247.4	4	95.3	4	-1E+10	1	-1E+10	1	-1E+10	1	-1E+10	1	-1E+10	1	-1E+10	1
4901784	165	C	01/10/2020	10:50	-132.645	43.538	0	35.50	0	12.7610	0	34.7160	8	26.222	0	35.214	0	247.3	4	95.2	4	-1E+10	1	-1E+10	1	-1E+10	1	-1E+10	1	-1E+10	1	-1E+10	1
4901784	165	C	01/10/2020	10:50	-132.645	43.538	0	37.40	0	12.7610	0	34.7160	8	26.222	0	37.098	0	247.2	4	95.2	4	-1E+10	1	-1E+10	1	-1E+10	1	-1E+10	1	-1E+10	1	-1E+10	1
4901784	165	C	01/10/2020	10:50	-132.645	43.538	0	39.40	0	12.7620	0	34.7160	8	26.222	0	39.082	0	247.3	4	95.2	4	-1E+10	1	-1E+10	1	-1E+10	1	-1E+10	1	-1E+10	1	-1E+10	1
4901784	165	C	01/10/2020	10:50	-132.645	43.538	0	41.50	0	12.7620	0	34.7170	8	26.223	0	41.165	0	247.1	4	95.2	4	-1E+10	1	-1E+10	1	-1E+10	1	-1E+10	1	-1E+10	1	-1E+10	1
4901784	165	C	01/10/2020	10:50	-132.645	43.538	0	43.50	0	12.7620	0	34.7180	8	26.224	0	43.148	0	247.4	4	95.3	4	-1E+10	1	-1E+10	1	-1E+10	1	-1E+10	1	-1E+10	1	-1E+10	1
4901784	165	C	01/10/2020	10:50	-132.645	43.538	0	45.60	0	12.7620	0	34.7180	8	26.224	0	45.231	0	247.2	4	95.2	4	-1E+10	1	-1E+10	1	-1E+10	1	-1E+10	1	-1E+10	1	-1E+10	1
4901784	165	C	01/10/2020	10:50	-132.645	43.538	0	47.70	0	12.7630	0	34.7190	8	26.224	0	47.314	0	247.1	4	95.1	4	-1E+10	1	-1E+10	1	-1E+10	1	-1E+10	1	-1E+10	1	-1E+10	1
4901784	165	C	01/10/2020	10:50	-132.645	43.538	0	49.60	0	12.7620	0	34.7200	8	26.225	0	49.198	0	247.0	4	95.1	4	-1E+10	1	-1E+10	1	-1E+10	1	-1E+10	1	-1E+10	1	-1E+10	1
4901784	165	C	01/10/2020	10:50	-132.645	43.538	0	51.50	0	12.7630	0	34.7200	8	26.225	0	51.082	0	247.0	4	95.1	4	-1E+10	1	-1E+10	1	-1E+10	1	-1E+10	1	-1E+10	1	-1E+10	1
4901784	165	C	01/10/2020	10:50	-132.645	43.538	0	53.40	0	12.7630	0	34.7200	8	26.225	0	52.967	0	247.1	4	95.2	4	-1E+10	1	-1E+10	1	-1E+10	1	-1E+10	1	-1E+10	1	-1E+10	1
4901784	165	C	01/10/2020	10:50	-132.645	43.538	0	55.30	0	12.7630	0	34.7210	8	26.226	0	54.851	0	246.9	4	95.1	4	-1E+10	1	-1E+10	1	-1E+10	1	-1E+10	1	-1E+10	1	-1E+10	1
4901784	165	C	01/10/2020	10:50	-132.645	43.538	0	57.10	0	12.7630	0	34.7220	8	26.227	0	56.636	0	246.8	4	95.0	4	-1E+10	1	-1E+10	1	-1E+10	1	-1E+10	1	-1E+10	1	-1E+10	1
4901784	165	C	01/10/2020	10:50	-132.645	43.538	0	58.80	0	12.7640	0	34.7230	8	26.228	0	58.322	0	246.8	4	95.0	4	-1E+10	1	-1E+10	1	-1E+10	1	-1E+10	1	-1E+10	1	-1E+10	1
4901784	165	C	01/10/2020	10:50	-132.645	43.538	0	60.40	0	12.7650	0	34.7230	8	26.227	0	59.909	0	246.7	4	95.0	4	-1E+10	1	-1E+10	1	-1E+10	1	-1E+10	1	-1E+10	1	-1E+10	1
4901784	165	C	01/10/2020	10:50	-132.645	43.538	0	62.00	0	12.7640	0	34.7240	8	26.228	0	61.496	0	246.6	4	95.0	4	-1E+10	1	-1E+10	1	-1E+10	1	-1E+10	1	-1E+10	1	-1E+10	1
4901784	165	C	01/10/2020	10:50	-132.645	43.538	0	63.80	0	12.7650	0	34.7240	8	26.228	0	63.281	0	246.6	4	95.0	4	-1E+10	1	-1E+10	1	-1E+10	1	-1E+10	1	-1E+10	1	-1E+10	1
4901784	165	C	01/10/2020	10:50	-132.645	43.538	0	65.70	0	12.7650	0	34.7250	8	26.229	0	65.165	0	246.5	4	94.9	4	-1E+10	1	-1E+10	1	-1E+10	1	-1E+10	1	-1E+10	1	-1E+10	1
4901784	165	C	01/10/2020	10:50	-132.645	43.538	0	67.50	0	12.7660	0	34.7260	8	26.230	0	66.950	0	246.5	4	94.9	4	-1E+10	1	-1E+10	1	-1E+10	1	-1E+10	1	-1E+10	1	-1E+10	1
4901784	165	C	01/10/2020	10:50	-132.645	43.538	0	69.40	0	12.7660	0	34.7270	8	26.230	0	68.834	0	246.3	4	94.9	4	-1E+10	1	-1E+10	1	-1E+10	1	-1E+10	1	-1E+10	1	-1E+10	1
4901784	165	C	01/10/2020	10:50	-132.645	43.538	0	71.20	0	12.7660	0	34.7270	8	26.231	0	70.619	0	246.3	4	94.9	4	-1E+10	1	-1E+10	1	-1E+10	1	-1E+10	1	-1E+10	1	-1E+10	1
4901784	165	C	01/10/2020	10:50	-132.645	43.538	0	73.10	0	12.7660	0	34.7280	8	26.231	0	72.504	0	246.1	4	94.8	4	-1E+10	1	-1E+10	1	-1E+10	1	-1E+10	1	-1E+10	1	-1E+10	1
4901784	165	C	01/10/2020	10:50	-132.645	43.538	0	75.10	0	12.7660	0	34.7280	8	26.231	0	74.487	0	246.1	4	94.8	4	-1E+10	1	-1E+10	1	-1E+10	1	-1E+10	1	-1E+10	1	-1E+10	1
4901784	165	C	01/10/2020	10:50	-132.645	43.538	0	77.10	0	12.7670	0	34.7280	8	26.231	0	76.470	0	246.0	4	94.7	4	-1E+10	1	-1E+10	1	-1E+10	1	-1E+10	1	-1E+10	1	-1E+10	1
4901784	165	C	01/10/2020	10:50	-132.645	43.538	0	79.00	0	12.7670	0	34.7290	8	26.232	0	78.354	0	245.7	4	94.6	4	-1E+10	1	-1E+10	1	-1E+10	1	-1E+10	1	-1E+10	1	-1E+10	1
4901784	165	C	01/10/2020	10:50	-132.645	43.538	0	81.00	0	12.7660	0	34.7290	8	26.232	0	80.338	0	245.5	4	94.5	4	-1E+10	1	-1E+10	1	-1E+10	1	-1E+10	1	-1E+10	1	-1E+10	1
4901784	165	C	01/10/2020	10:50	-132.645	43.538	0	82.90	0	12.7660	0	34.7290	8	26.232	0	82.222	0	245.2	4	94.5	4	-1E+10	1	-1E+10	1	-1E+10	1	-1E+10	1	-1E+10	1	-1E+10	1
4901784	165	C	01/10/2020	10:50	-132.645	43.538	0	84.90	0	12.7660	0	34.7290	8	26.232	0	84.205	0	244.8	4	94.3	4	-1E+10	1	-1E+10	1	-1E+10	1	-1E+10	1	-1E+10	1	-1E+10	1
4901784	165	C	01/10/2020	10:50	-132.645	43.538	0	86.80	0	12.7660	0	34.7280	8	26.232	0	86.089	0	244.5	4	94.2	4	-1E+10	1	-1E+10	1	-1E+10	1	-1E+10	1	-1E+10	1	-1E+10	1
4901784	165	C	01/10/2020	10:50	-132.645	43.538	0	88.80	0	12.7640	0	34.7270	8	26.231	0	88.072	0	244.3	4	94.1	4	-1E+10	1	-1E+10	1	-1E+10	1	-1E+10	1	-1E+10	1	-1E+10	1
4901784	165	C	01/10/2020	10:50	-132.645	43.538	0	90.60	0	12.7640	0	34.7260	8	26.231	0	89.857	0	244.0	4	94.0	4	-1E+10	1	-1E+10	1	-1E+10	1	-1E+10	1	-1E+10	1	-1E+10	1
4901784	165	C	01/10/2020	10:50	-132.645	43.538	0	92.50	0	12.7510	0	34.7220	8	26.230	0	91.741	0	243.2	4	93.6	4	-1E+10	1	-1E+10	1	-1E+10	1	-1E+10	1	-1E+10	1	-1E+10	1
4901784	165	C	01/10/2020	10:50	-132.645	43.538	0	94.80	0	12.7540	0	34.7140	8	26.223	0	94.022	0	242.2	4	93.3	4	-1E+10	1	-1E+10	1	-1E+10	1	-1E+10	1	-1E+10	1	-1E+10	1
4901784	165	C	01/10/2020	10:50	-132.645	43.538	0	96.50	0	12.7500	0	34.7010	8	26.214	0	95.707	0	240.8	4	92.7	4	-1E+10	1	-1E+10	1	-1E+10	1	-1E+10	1	-1E+10	1	-1E+10	1
4901784	165	C	01/10/2020	10:50	-132.645	43.538	0	97.80	0	12.6580	0	34.6960	8	26.229	0	96.996	0	239.7	4	92.1	4	-1E+10	1	-1E+10	1	-1E+10	1	-1E+10	1	-1E+10	1	-1E+10	1
4901784	165	C	01/10/2020	10:50	-132.645	43.538	0	99.20	0	12.4690	0	34.6710	8	26.246	0	98.384	0	238.5	4	91.3	4	-1E+10	1	-1E+10	1	-1E+10	1	-1E+10	1	-1E+10	1	-1E+10	1
4901784	165	C	01/10/2020	10:50	-132.645	43.538	0	102.80	0	11.2710	0	34.6670	8	26.470	0	101.954	0	239.3	4	89.3	4	-1E+10	1	-1E+10	1	-1E+10	1	-1E+10	1	-1E+10	1	-1E+10	1
4901784	165	C	01/10/2020	10:50	-132.645	43.538	0	105.10	0	10.8080	0	34.6810	8	26.564	0	104.234	0	239.0	4	88.4	4	-1E+10	1	-1E+10	1	-1E+10	1	-1E+10	1	-1E+10	1	-1E+10	1
4901784	165	C	01/10/2020	10:50	-132.645	43.538	0	107.60	0	10.6180	0	34.7090	8	26.620	0	106.713	0	237.6	4	87.5	4	-1E+10	1	-1E+10	1	-1E+10	1	-1E+10	1	-1E+10	1	-1E+10	1
4901784	165	C	01/10/2020	10:50	-132.645	43.538	0	110.20	0	10.3450	0	34.7310	8	26.685	0	109.291	0	237.9	4	87.1	4	-1E+10	1	-1E+10	1	-1E+10	1	-1E+10	1	-1E+10	1	-1E+10	1
4901784	165	C	01/10/2020	10:50	-132.645	43.538	0	112.70	0	10.1250	0	34.6960	8	26.696	0	111.770	0	238.2	4	86.8	4	-1E+10	1	-1E+10	1	-1E+10	1	-1E+10	1	-1E+10	1	-1E+10	1
4901784	165	C	01/10/2020	10:50	-132.645	43.538	0	115.30	0	9.8320	0	34.6790	8	26.732	0	114.348	0	238.1	4	86.2	4	-1E+10	1	-1E+10	1	-1E+10	1	-1E+10	1	-1E+10	1	-1E+10	1
4901784	165	C	01/10/2020	10:50	-132.645	43.538	0	117.90	0	9.8530	0	34.7140	8	26.756	0	116.925	0	235.5	4	85.3	4	-1E+10	1	-1E+10	1	-1E+10	1	-1E+10	1	-1E+10	1	-1E+10	1
4901784	165	C	01/10/2020	10:50	-132.645	43.538	0	120.40	0	9.6060	0	34.7540	8	26.829	0	119.404	0	233.8	4	84.3	4	-1E+10	1	-1E+10	1	-1E+10	1	-1E+10	1	-1E+10	1	-1E+10	1
4901784	165	C	01/10/2020	10:50	-132.645	43.538	0	122.10	0	9.4660	0	34.7590	8	26.856	0	121.089	0	233.6	4	83.9	4	-1E+10	1	-1E+10	1	-1E+10	1	-1E+10	1	-1E+10	1	-1E+10	1
4901784	165	C	01/10/2020	10:50	-132.645	43.538	0	124.80	0	9.1680	0	34.7700	8	26.914	0	123.766	0	233.6	4	83.4	4	-1E+10	1	-1E+10	1	-1E+10	1	-1E+10	1	-1E+10	1	-1E+10	1
4901784	165	C	01/10/2020	10:50	-132.645	43.538	0	127.30	0	9.1020	0	34.7880	8	26.938	0	126.245	0	231.7	4	82.6	4	-1E+10	1	-1E+10	1	-1E+10	1	-1E+10	1	-1E+10	1	-1E+10	1
4901784	165	C	01/10/2020	10:50	-132.645	43.538	0	129.50	0	8.9810	0	34.8260	8	26.988	0	128.426	0	230.1	4	81.9	4	-1E+10	1	-1E+10	1	-1E+10	1	-1E+10	1	-1E+10	1	-1E+10	1
4901784	165	C	01/10/2020	10:50	-132.645	43.538	0	132.60	0	8.8360	0	34.8620	8	27.039	0	131.499	0	228.1	4	80.9	4	-1E+10	1	-1E+10	1	-1E+10	1	-1E+10	1	-1E+10	1	-1E+10	1
4901784	165	C	01/10/2020	10:50	-132.645	43.538	0	134.90	0	8.6920	0	34.9040	8	27.095	0	133.779	0	226.9	4	80.2	4	-1E+10	1	-1E+10	1	-1E+10	1	-1E+10	1	-1E+10	1	-1E+10	1
4901784	165	C	01/10/2020	10:50	-132.645	43.538	0	137.30	0	8.6170	0	34.9440	8	27.138	0	136.159	0	225.9	4	79.8	4	-1E+10	1	-1E+10	1	-1E+10	1	-1E+10	1	-1E+10	1	-1E+10	1
4901784	165	C	01/10/2020	10:50	-132.645	43.538	0	139.70	0	8.5960	0	34.9570	8	27.151	0	138.538	0	224.7	4	79.3	4	-1E+10	1	-1E+10	1	-1E+10	1	-1E+10	1	-1E+10	1	-1E+10	1
4901784	165	C	01/10/2020	10:50	-132.645	43.538	0	142.20	0	8.5700	0	34.9790	8	27.173	0	141.016	0	222.9	4	78.7	4	-1E+10	1	-1E+10	1	-1E+10	1	-1E+10	1	-1E+10	1	-1E+10	1
4901784	165	C	01/10/2020	10:50	-132.645	43.538	0	144.80	0	8.5310	0	35.0160	8	27.208	0	143.594	0	221.1	4	78.0	4	-1E+10	1	-1E+10	1	-1E+10	1	-1E+10	1	-1E+10	1	-1E+10	1
4901784	165	C	01/10/2020	10:50	-132.645	43.538	0	147.30	0	8.4870	0	35.0730	8	27.259	0	146.072	0	219.6	4	77.4	4	-1E+10	1	-1E+10	1	-1E+10	1	-1E+10	1	-1E+10	1	-1E+10	1
4901784	165	C	01/10/2020	10:50	-132.645	43.538	0	149.90	0	8.4630	0	35.0990	8	27.284	0	148.649	0	218.3	4	76.9	4	-1E+10	1	-1E+10	1	-1E+10	1	-1E+10	1	-1E+10	1	-1E+10	1
4901784	165	C	01/10/2020	10:50	-132.645	43.538	0	152.70	0	8.4250	0	35.1210	8	27.307	0	151.425	0	217.3	4	76.5	4	-1E+10	1	-1E+10	1	-1E+10	1	-1E+10	1	-1E+10	1	-1E+10	1
4901784	165	C	01/10/2020	10:50	-132.645	43.538	0	154.90	0	8.3630	0	35.1600	8	27.347	0	153.606	0	216.2	4	76.1	4	-1E+10	1	-1E+10	1	-1E+10	1	-1E+10	1	-1E+10	1	-1E+10	1
4901784	165	C	01/10/2020	10:50	-132.645	43.538	0	157.80	0	8.3280	0	35.1990	8	27.383	0	156.480	0	214.9	4	75.5	4	-1E+10	1	-1E+10	1	-1E+10	1	-1E+10	1	-1E+10	1	-1E+10	1
4901784	165	C	01/10/2020	10:50	-132.645	43.538	0	160.00	0	8.3230	0	35.2170	8	27.398	0	158.661	0	213.7	4	75.1	4	-1E+10	1	-1E+10	1	-1E+10	1	-1E+10	1	-1E+10	1	-1E+10	1
4901784	165	C	01/10/2020	10:50	-132.645	43.538	0	162.20	0	8.3350	0	35.2390	8	27.413	0	160.842	0	212.7	4	74.8	4	-1E+10	1	-1E+10	1	-1E+10	1	-1E+10	1	-1E+10	1	-1E+10	1
4901784	165	C	01/10/2020	10:50	-132.645	43.538	0	165.30	0	8.3360	0	35.2860	8	27.450	0	163.915	0	211.1	4	74.3	4	-1E+10	1	-1E+10	1	-1E+10	1	-1E+10	1	-1E+10	1	-1E+10	1
4901784	165	C	01/10/2020	10:50	-132.645	43.538	0	167.70	0	8.3070	0	35.3310	8	27.490	0	166.294	0	209.8	4	73.8	4	-1E+10	1	-1E+10	1	-1E+10	1	-1E+10	1	-1E+10	1	-1E+10	1
4901784	165	C	01/10/2020	10:50	-132.645	43.538	0	170.10	0	8.2720	0	35.3800	8	27.534	0	168.672	0	208.8	4	73.4	4	-1E+10	1	-1E+10	1	-1E+10	1	-1E+10	1	-1E+10	1	-1E+10	1
4901784	165	C	01/10/2020	10:50	-132.645	43.538	0	172.50	0	8.2770	0	35.4260	8	27.569	0	171.051	0	209.0	4	73.5	4	-1E+10	1	-1E+10	1	-1E+10	1	-1E+10	1	-1E+10	1	-1E+10	1
4901784	165	C	01/10/2020	10:50	-132.645	43.538	0	175.00	0	8.2140	0	35.4840	8	27.625	0	173.529	0	206.3	4	72.5	4	-1E+10	1	-1E+10	1	-1E+10	1	-1E+10	1	-1E+10	1	-1E+10	1
4901784	165	C	01/10/2020	10:50	-132.645	43.538	0	177.60	0	8.1460	0	35.5490	8	27.686	0	176.106	0	204.0	4	71.6	4	-1E+10	1	-1E+10	1	-1E+10	1	-1E+10	1	-1E+10	1	-1E+10	1
4901784	165	C	01/10/2020	10:50	-132.645	43.538	0	180.20	0	8.1460	0	35.5490	8	27.686	0	178.683	0	203.4	4	71.4	4	-1E+10	1	-1E+10	1	-1E+10	1	-1E+10	1	-1E+10	1	-1E+10	1
4901784	165	C	01/10/2020	10:50	-132.645	43.538	0	182.80	0	8.1370	0	35.5640	8	27.699	0	181.260	0	202.8	4	71.2	4	-1E+10	1	-1E+10	1	-1E+10	1	-1E+10	1	-1E+10	1	-1E+10	1
4901784	165	C	01/10/2020	10:50	-132.645	43.538	0	184.60	0	8.1140	0	35.5920	8	27.725	0	183.044	0	201.7	4	70.8	4	-1E+10	1	-1E+10	1	-1E+10	1	-1E+10	1	-1E+10	1	-1E+10	1
4901784	165	C	01/10/2020	10:50	-132.645	43.538	0	187.40	0	8.1060	0	35.6240	8	27.751	0	185.820	0	200.7	4	70.4	4	-1E+10	1	-1E+10	1	-1E+10	1	-1E+10	1	-1E+10	1	-1E+10	1
4901784	165	C	01/10/2020	10:50	-132.645	43.538	0	190.10	0	8.1000	0	35.6580	8	27.779	0	188.496	0	199.7	4	70.1	4	-1E+10	1	-1E+10	1	-1E+10	1	-1E+10	1	-1E+10	1	-1E+10	1
4901784	165	C	01/10/2020	10:50	-132.645	43.538	0	191.90	0	8.0880	0	35.6860	8	27.803	0	190.280	0	199.8	4	70.1	4	-1E+10	1	-1E+10	1	-1E+10	1	-1E+10	1	-1E+10	1	-1E+10	1
4901784	165	C	01/10/2020	10:50	-132.645	43.538	0	194.80	0	8.0820	0	35.7170	8	27.828	0	193.154	0	198.9	4	69.8	4	-1E+10	1	-1E+10	1	-1E+10	1	-1E+10	1	-1E+10	1	-1E+10	1
4901784	165	C	01/10/2020	10:50	-132.645	43.538	0	197.60	0	8.0790	0	35.7580	8	27.861	0	195.929	0	198.0	4	69.5	4	-1E+10	1	-1E+10	1	-1E+10	1	-1E+10	1	-1E+10	1	-1E+10	1
4901784	165	C	01/10/2020	10:50	-132.645	43.538	0	199.50	0	8.0790	0	35.7770	8	27.876	0	197.812	0	196.9	4	69.1	4	-1E+10	1	-1E+10	1	-1E+10	1	-1E+10	1	-1E+10	1	-1E+10	1
4901784	165	C	01/10/2020	10:50	-132.645	43.538	0	202.30	0	8.0770	0	35.8140	8	27.905	0	200.587	0	195.9	4	68.8	4	-1E+10	1	-1E+10	1	-1E+10	1	-1E+10	1	-1E+10	1	-1E+10	1
4901784	165	C	01/10/2020	10:50	-132.645	43.538	0	205.10	0	8.0660	0	35.8610	8	27.944	0	203.362	0	194.6	4	68.3	4	-1E+10	1	-1E+10	1	-1E+10	1	-1E+10	1	-1E+10	1	-1E+10	1
4901784	165	C	01/10/2020	10:50	-132.645	43.538	0	207.00	0	8.0650	0	35.8740	8	27.954	0	205.245	0	192.7	4	67.7	4	-1E+10	1	-1E+10	1	-1E+10	1	-1E+10	1	-1E+10	1	-1E+10	1
4901784	165	C	01/10/2020	10:50	-132.645	43.538	0	209.80	0	8.0730	0	35.9120	8	27.983	0	208.019	0	189.0	4	66.4	4	-1E+10	1	-1E+10	1	-1E+10	1	-1E+10	1	-1E+10	1	-1E+10	1
4901784	165	C	01/10/2020	10:50	-132.645	43.538	0	212.60	0	8.1260	0	35.9590	8	28.012	0	210.794	0	185.0	4	65.1	4	-1E+10	1	-1E+10	1	-1E+10	1	-1E+10	1	-1E+10	1	-1E+10	1
4901784	165	C	01/10/2020	10:50	-132.645	43.538	0	214.40	0	8.1240	0	35.9950	8	28.040	0	212.578	0	183.7	4	64.7	4	-1E+10	1	-1E+10	1	-1E+10	1	-1E+10	1	-1E+10	1	-1E+10	1
4901784	165	C	01/10/2020	10:50	-132.645	43.538	0	216.80	0	8.1120	0	36.0180	8	28.060	0	214.956	0	181.9	4	64.0	4	-1E+10	1	-1E+10	1	-1E+10	1	-1E+10	1	-1E+10	1	-1E+10	1
4901784	165	C	01/10/2020	10:50	-132.645	43.538	0	219.60	0	8.1340	0	36.0400	8	28.074	0	217.731	0	179.5	4	63.2	4	-1E+10	1	-1E+10	1	-1E+10	1	-1E+10	1	-1E+10	1	-1E+10	1
4901784	165	C	01/10/2020	10:50	-132.645	43.538	0	222.70	0	8.1390	0	36.0740	8	28.100	0	220.803	0	177.3	4	62.5	4	-1E+10	1	-1E+10	1	-1E+10	1	-1E+10	1	-1E+10	1	-1E+10	1
4901784	165	C	01/10/2020	10:50	-132.645	43.538	0	225.10	0	8.1280	0	36.0920	8	28.116	0	223.181	0	176.7	4	62.3	4	-1E+10	1	-1E+10	1	-1E+10	1	-1E+10	1	-1E+10	1	-1E+10	1
4901784	165	C	01/10/2020	10:50	-132.645	43.538	0	227.60	0	8.1110	0	36.0980	8	28.124	0	225.659	0	175.6	4	61.9	4	-1E+10	1	-1E+10	1	-1E+10	1	-1E+10	1	-1E+10	1	-1E+10	1
4901784	165	C	01/10/2020	10:50	-132.645	43.538	0	230.00	0	8.0970	0	36.1160	8	28.140	0	228.037	0	174.1	4	61.3	4	-1E+10	1	-1E+10	1	-1E+10	1	-1E+10	1	-1E+10	1	-1E+10	1
4901784	165	C	01/10/2020	10:50	-132.645	43.538	0	232.50	0	8.1010	0	36.1330	8	28.153	0	230.514	0	173.2	4	61.0	4	-1E+10	1	-1E+10	1	-1E+10	1	-1E+10	1	-1E+10	1	-1E+10	1
4901784	165	C	01/10/2020	10:50	-132.645	43.538	0	235.00	0	8.0800	0	36.1470	8	28.167	0	232.991	0	172.0	4	60.6	4	-1E+10	1	-1E+10	1	-1E+10	1	-1E+10	1	-1E+10	1	-1E+10	1
4901784	165	C	01/10/2020	10:50	-132.645	43.538	0	237.60	0	8.0690	0	36.1560	8	28.176	0	235.568	0	171.2	4	60.3	4	-1E+10	1	-1E+10	1	-1E+10	1	-1E+10	1	-1E+10	1	-1E+10	1
4901784	165	C	01/10/2020	10:50	-132.645	43.538	0	240.10	0	8.0660	0	36.1570	8	28.177	0	238.045	0	170.3	4	59.9	4	-1E+10	1	-1E+10	1	-1E+10	1	-1E+10	1	-1E+10	1	-1E+10	1
4901784	165	C	01/10/2020	10:50	-132.645	43.538	0	242.60	0	8.0500	0	36.1650	8	28.186	0	240.522	0	169.2	4	59.5	4	-1E+10	1	-1E+10	1	-1E+10	1	-1E+10	1	-1E+10	1	-1E+10	1
4901784	165	C	01/10/2020	10:50	-132.645	43.538	0	245.20	0	8.0260	0	36.1730	8	28.196	0	243.098	0	168.6	4	59.3	4	-1E+10	1	-1E+10	1	-1E+10	1	-1E+10	1	-1E+10	1	-1E+10	1
4901784	165	C	01/10/2020	10:50	-132.645	43.538	0	247.70	0	8.0180	0	36.1750	8	28.199	0	245.575	0	168.0	4	59.1	4	-1E+10	1	-1E+10	1	-1E+10	1	-1E+10	1	-1E+10	1	-1E+10	1
4901784	165	C	01/10/2020	10:50	-132.645	43.538	0	250.20	0	8.0050	0	36.1770	8	28.202	0	248.052	0	166.8	4	58.7	4	-1E+10	1	-1E+10	1	-1E+10	1	-1E+10	1	-1E+10	1	-1E+10	1
4901784	165	C	01/10/2020	10:50	-132.645	43.538	0	252.80	0	7.9840	0	36.1810	8	28.209	0	250.628	0	165.0	4	58.0	4	-1E+10	1	-1E+10	1	-1E+10	1	-1E+10	1	-1E+10	1	-1E+10	1
4901784	165	C	01/10/2020	10:50	-132.645	43.538	0	255.40	0	7.9590	0	36.1830	8	28.214	0	253.204	0	162.6	4	57.1	4	-1E+10	1	-1E+10	1	-1E+10	1	-1E+10	1	-1E+10	1	-1E+10	1
4901784	165	C	01/10/2020	10:50	-132.645	43.538	0	257.10	0	7.9400	0	36.1860	8	28.219	0	254.889	0	160.7	4	56.4	4	-1E+10	1	-1E+10	1	-1E+10	1	-1E+10	1	-1E+10	1	-1E+10	1
4901784	165	C	01/10/2020	10:50	-132.645	43.538	0	259.70	0	7.8920	0	36.1860	8	28.227	0	257.465	0	157.8	4	55.3	4	-1E+10	1	-1E+10	1	-1E+10	1	-1E+10	1	-1E+10	1	-1E+10	1
4901784	165	C	01/10/2020	10:50	-132.645	43.538	0	262.30	0	7.8290	0	36.1900	8	28.239	0	260.041	0	155.6	4	54.5	4	-1E+10	1	-1E+10	1	-1E+10	1	-1E+10	1	-1E+10	1	-1E+10	1
4901784	165	C	01/10/2020	10:50	-132.645	43.538	0	264.90	0	7.7990	0	36.1920	8	28.246	0	262.617	0	155.3	4	54.4	4	-1E+10	1	-1E+10	1	-1E+10	1	-1E+10	1	-1E+10	1	-1E+10	1
4901784	165	C	01/10/2020	10:50	-132.645	43.538	0	267.40	0	7.7800	0	36.1910	8	28.248	0	265.094	0	155.5	4	54.4	4	-1E+10	1	-1E+10	1	-1E+10	1	-1E+10	1	-1E+10	1	-1E+10	1
4901784	165	C	01/10/2020	10:50	-132.645	43.538	0	269.90	0	7.7420	0	36.1930	8	28.255	0	267.570	0	155.7	4	54.4	4	-1E+10	1	-1E+10	1	-1E+10	1	-1E+10	1	-1E+10	1	-1E+10	1
4901784	165	C	01/10/2020	10:50	-132.645	43.538	0	272.40	0	7.6970	0	36.1940	8	28.262	0	270.047	0	155.3	4	54.2	4	-1E+10	1	-1E+10	1	-1E+10	1	-1E+10	1	-1E+10	1	-1E+10	1
4901784	165	C	01/10/2020	10:50	-132.645	43.538	0	275.00	0	7.6330	0	36.1960	8	28.274	0	272.623	0	154.3	4	53.8	4	-1E+10	1	-1E+10	1	-1E+10	1	-1E+10	1	-1E+10	1	-1E+10	1
4901784	165	C	01/10/2020	10:50	-132.645	43.538	0	277.50	0	7.5990	0	36.1980	8	28.280	0	275.100	0	154.6	4	53.9	4	-1E+10	1	-1E+10	1	-1E+10	1	-1E+10	1	-1E+10	1	-1E+10	1
4901784	165	C	01/10/2020	10:50	-132.645	43.538	0	280.20	0	7.5980	0	36.1970	8	28.280	0	277.775	0	154.8	4	53.9	4	-1E+10	1	-1E+10	1	-1E+10	1	-1E+10	1	-1E+10	1	-1E+10	1
4901784	165	C	01/10/2020	10:50	-132.645	43.538	0	282.90	0	7.5910	0	36.1960	8	28.280	0	280.449	0	154.7	4	53.9	4	-1E+10	1	-1E+10	1	-1E+10	1	-1E+10	1	-1E+10	1	-1E+10	1
4901784	165	C	01/10/2020	10:50	-132.645	43.538	0	284.70	0	7.5510	0	36.1970	8	28.287	0	282.233	0	154.6	4	53.8	4	-1E+10	1	-1E+10	1	-1E+10	1	-1E+10	1	-1E+10	1	-1E+10	1
4901784	165	C	01/10/2020	10:50	-132.645	43.538	0	287.30	0	7.5060	0	36.1970	8	28.293	0	284.808	0	154.2	4	53.6	4	-1E+10	1	-1E+10	1	-1E+10	1	-1E+10	1	-1E+10	1	-1E+10	1
4901784	165	C	01/10/2020	10:50	-132.645	43.538	0	289.90	0	7.4660	0	36.1970	8	28.299	0	287.384	0	153.6	4	53.4	4	-1E+10	1	-1E+10	1	-1E+10	1	-1E+10	1	-1E+10	1	-1E+10	1
4901784	165	C	01/10/2020	10:50	-132.645	43.538	0	292.60	0	7.4260	0	36.1960	8	28.304	0	290.059	0	151.7	4	52.7	4	-1E+10	1	-1E+10	1	-1E+10	1	-1E+10	1	-1E+10	1	-1E+10	1
4901784	165	C	01/10/2020	10:50	-132.645	43.538	0	295.20	0	7.3860	0	36.1950	8	28.309	0	292.634	0	149.6	4	51.9	4	-1E+10	1	-1E+10	1	-1E+10	1	-1E+10	1	-1E+10	1	-1E+10	1
4901784	165	C	01/10/2020	10:50	-132.645	43.538	0	297.00	0	7.3480	0	36.1940	8	28.314	0	294.417	0	147.4	4	51.1	4	-1E+10	1	-1E+10	1	-1E+10	1	-1E+10	1	-1E+10	1	-1E+10	1
4901784	165	C	01/10/2020	10:50	-132.645	43.538	0	299.70	0	7.2890	0	36.1950	8	28.324	0	297.092	0	143.8	4	49.8	4	-1E+10	1	-1E+10	1	-1E+10	1	-1E+10	1	-1E+10	1	-1E+10	1
4901784	165	C	01/10/2020	10:50	-132.645	43.538	0	302.30	0	7.2500	0	36.1940	8	28.329	0	299.667	0	140.3	4	48.5	4	-1E+10	1	-1E+10	1	-1E+10	1	-1E+10	1	-1E+10	1	-1E+10	1
4901784	165	C	01/10/2020	10:50	-132.645	43.538	0	305.00	0	7.2160	0	36.1930	8	28.333	0	302.342	0	136.5	4	47.2	4	-1E+10	1	-1E+10	1	-1E+10	1	-1E+10	1	-1E+10	1	-1E+10	1
4901784	165	C	01/10/2020	10:50	-132.645	43.538	0	307.60	0	7.1480	0	36.1960	8	28.345	0	304.917	0	131.7	4	45.4	4	-1E+10	1	-1E+10	1	-1E+10	1	-1E+10	1	-1E+10	1	-1E+10	1
4901784	165	C	01/10/2020	10:50	-132.645	43.538	0	310.30	0	7.0680	0	36.1950	8	28.356	0	307.592	0	127.2	4	43.8	4	-1E+10	1	-1E+10	1	-1E+10	1	-1E+10	1	-1E+10	1	-1E+10	1
4901784	165	C	01/10/2020	10:50	-132.645	43.538	0	312.90	0	7.0150	0	36.1930	8	28.362	0	310.167	0	122.9	4	42.3	4	-1E+10	1	-1E+10	1	-1E+10	1	-1E+10	1	-1E+10	1	-1E+10	1
4901784	165	C	01/10/2020	10:50	-132.645	43.538	0	314.80	0	6.9590	0	36.2020	8	28.377	0	312.049	0	120.0	4	41.2	4	-1E+10	1	-1E+10	1	-1E+10	1	-1E+10	1	-1E+10	1	-1E+10	1
4901784	165	C	01/10/2020	10:50	-132.645	43.538	0	317.50	0	6.9330	0	36.2000	8	28.379	0	314.723	0	118.2	4	40.6	4	-1E+10	1	-1E+10	1	-1E+10	1	-1E+10	1	-1E+10	1	-1E+10	1
4901784	165	C	01/10/2020	10:50	-132.645	43.538	0	320.20	0	6.9130	0	36.2010	8	28.382	0	317.398	0	115.9	4	39.8	4	-1E+10	1	-1E+10	1	-1E+10	1	-1E+10	1	-1E+10	1	-1E+10	1
4901784	165	C	01/10/2020	10:50	-132.645	43.538	0	322.00	0	6.8690	0	36.2050	8	28.392	0	319.181	0	115.0	4	39.4	4	-1E+10	1	-1E+10	1	-1E+10	1	-1E+10	1	-1E+10	1	-1E+10	1
4901784	165	C	01/10/2020	10:50	-132.645	43.538	0	324.80	0	6.8250	0	36.2050	8	28.398	0	321.954	0	114.8	4	39.3	4	-1E+10	1	-1E+10	1	-1E+10	1	-1E+10	1	-1E+10	1	-1E+10	1
4901784	165	C	01/10/2020	10:50	-132.645	43.538	0	327.50	0	6.7770	0	36.2050	8	28.405	0	324.628	0	114.7	4	39.2	4	-1E+10	1	-1E+10	1	-1E+10	1	-1E+10	1	-1E+10	1	-1E+10	1
4901784	165	C	01/10/2020	10:50	-132.645	43.538	0	330.20	0	6.7540	0	36.2030	8	28.406	0	327.302	0	114.8	4	39.3	4	-1E+10	1	-1E+10	1	-1E+10	1	-1E+10	1	-1E+10	1	-1E+10	1
4901784	165	C	01/10/2020	10:50	-132.645	43.538	0	333.00	0	6.7040	0	36.2010	8	28.412	0	330.076	0	114.7	4	39.2	4	-1E+10	1	-1E+10	1	-1E+10	1	-1E+10	1	-1E+10	1	-1E+10	1
4901784	165	C	01/10/2020	10:50	-132.645	43.538	0	334.80	0	6.6320	0	36.2020	8	28.422	0	331.858	0	114.9	4	39.2	4	-1E+10	1	-1E+10	1	-1E+10	1	-1E+10	1	-1E+10	1	-1E+10	1
4901784	165	C	01/10/2020	10:50	-132.645	43.538	0	337.60	0	6.6090	0	36.2010	8	28.425	0	334.631	0	114.8	4	39.1	4	-1E+10	1	-1E+10	1	-1E+10	1	-1E+10	1	-1E+10	1	-1E+10	1
4901784	165	C	01/10/2020	10:50	-132.645	43.538	0	340.30	0	6.5940	0	36.2010	8	28.427	0	337.305	0	114.9	4	39.1	4	-1E+10	1	-1E+10	1	-1E+10	1	-1E+10	1	-1E+10	1	-1E+10	1
4901784	165	C	01/10/2020	10:50	-132.645	43.538	0	342.20	0	6.5270	0	36.1980	8	28.434	0	339.187	0	116.0	4	39.4	4	-1E+10	1	-1E+10	1	-1E+10	1	-1E+10	1	-1E+10	1	-1E+10	1
4901784	165	C	01/10/2020	10:50	-132.645	43.538	0	344.90	0	6.4710	0	36.1960	8	28.440	0	341.861	0	116.6	4	39.6	4	-1E+10	1	-1E+10	1	-1E+10	1	-1E+10	1	-1E+10	1	-1E+10	1
4901784	165	C	01/10/2020	10:50	-132.645	43.538	0	347.70	0	6.4380	0	36.1950	8	28.444	0	344.634	0	117.2	4	39.8	4	-1E+10	1	-1E+10	1	-1E+10	1	-1E+10	1	-1E+10	1	-1E+10	1
4901784	165	C	01/10/2020	10:50	-132.645	43.538	0	349.50	0	6.3830	0	36.1990	8	28.454	0	346.417	0	117.4	4	39.8	4	-1E+10	1	-1E+10	1	-1E+10	1	-1E+10	1	-1E+10	1	-1E+10	1
4901784	165	C	01/10/2020	10:50	-132.645	43.538	0	352.40	0	6.3540	0	36.1970	8	28.457	0	349.289	0	116.1	4	39.3	4	-1E+10	1	-1E+10	1	-1E+10	1	-1E+10	1	-1E+10	1	-1E+10	1
4901784	165	C	01/10/2020	10:50	-132.645	43.538	0	355.20	0	6.2590	0	36.2010	8	28.472	0	352.062	0	114.4	4	38.7	4	-1E+10	1	-1E+10	1	-1E+10	1	-1E+10	1	-1E+10	1	-1E+10	1
4901784	165	C	01/10/2020	10:50	-132.645	43.538	0	357.10	0	6.2330	0	36.2020	8	28.477	0	353.943	0	113.5	4	38.4	4	-1E+10	1	-1E+10	1	-1E+10	1	-1E+10	1	-1E+10	1	-1E+10	1
4901784	165	C	01/10/2020	10:50	-132.645	43.538	0	360.00	0	6.2030	0	36.2040	8	28.482	0	356.815	0	112.8	4	38.1	4	-1E+10	1	-1E+10	1	-1E+10	1	-1E+10	1	-1E+10	1	-1E+10	1
4901784	165	C	01/10/2020	10:50	-132.645	43.538	0	362.80	0	6.1960	0	36.2030	8	28.483	0	359.588	0	111.7	4	37.7	4	-1E+10	1	-1E+10	1	-1E+10	1	-1E+10	1	-1E+10	1	-1E+10	1
4901784	165	C	01/10/2020	10:50	-132.645	43.538	0	364.70	0	6.1960	0	36.1990	8	28.479	0	361.469	0	110.7	4	37.4	4	-1E+10	1	-1E+10	1	-1E+10	1	-1E+10	1	-1E+10	1	-1E+10	1
4901784	165	C	01/10/2020	10:50	-132.645	43.538	0	367.70	0	6.1380	0	36.2040	8	28.491	0	364.440	0	109.5	4	36.9	4	-1E+10	1	-1E+10	1	-1E+10	1	-1E+10	1	-1E+10	1	-1E+10	1
4901784	165	C	01/10/2020	10:50	-132.645	43.538	0	370.50	0	6.1090	0	36.2050	8	28.496	0	367.213	0	108.5	4	36.5	4	-1E+10	1	-1E+10	1	-1E+10	1	-1E+10	1	-1E+10	1	-1E+10	1
4901784	165	C	01/10/2020	10:50	-132.645	43.538	0	372.40	0	6.0930	0	36.2040	8	28.497	0	369.094	0	107.8	4	36.3	4	-1E+10	1	-1E+10	1	-1E+10	1	-1E+10	1	-1E+10	1	-1E+10	1
4901784	165	C	01/10/2020	10:50	-132.645	43.538	0	374.30	0	6.0830	0	36.2030	8	28.498	0	370.976	0	107.1	4	36.0	4	-1E+10	1	-1E+10	1	-1E+10	1	-1E+10	1	-1E+10	1	-1E+10	1
4901784	165	C	01/10/2020	10:50	-132.645	43.538	0	377.40	0	6.0320	0	36.2050	8	28.506	0	374.046	0	105.8	4	35.6	4	-1E+10	1	-1E+10	1	-1E+10	1	-1E+10	1	-1E+10	1	-1E+10	1
4901784	165	C	01/10/2020	10:50	-132.645	43.538	0	380.30	0	6.0020	0	36.2050	8	28.510	0	376.917	0	104.4	4	35.1	4	-1E+10	1	-1E+10	1	-1E+10	1	-1E+10	1	-1E+10	1	-1E+10	1
4901784	165	C	01/10/2020	10:50	-132.645	43.538	0	382.70	0	5.9620	0	36.2060	8	28.516	0	379.294	0	103.2	4	34.6	4	-1E+10	1	-1E+10	1	-1E+10	1	-1E+10	1	-1E+10	1	-1E+10	1
4901784	165	C	01/10/2020	10:50	-132.645	43.538	0	385.20	0	5.9370	0	36.2070	8	28.520	0	381.769	0	103.1	4	34.6	4	-1E+10	1	-1E+10	1	-1E+10	1	-1E+10	1	-1E+10	1	-1E+10	1
4901784	165	C	01/10/2020	10:50	-132.645	43.538	0	387.60	0	5.9070	0	36.2060	8	28.523	0	384.145	0	103.2	4	34.6	4	-1E+10	1	-1E+10	1	-1E+10	1	-1E+10	1	-1E+10	1	-1E+10	1
4901784	165	C	01/10/2020	10:50	-132.645	43.538	0	390.00	0	5.8710	0	36.2070	8	28.529	0	386.522	0	102.7	4	34.4	4	-1E+10	1	-1E+10	1	-1E+10	1	-1E+10	1	-1E+10	1	-1E+10	1
4901784	165	C	01/10/2020	10:50	-132.645	43.538	0	392.50	0	5.8540	0	36.2060	8	28.530	0	388.997	0	101.9	4	34.1	4	-1E+10	1	-1E+10	1	-1E+10	1	-1E+10	1	-1E+10	1	-1E+10	1
4901784	165	C	01/10/2020	10:50	-132.645	43.538	0	394.90	0	5.8160	0	36.2080	8	28.537	0	391.373	0	100.9	4	33.8	4	-1E+10	1	-1E+10	1	-1E+10	1	-1E+10	1	-1E+10	1	-1E+10	1
4901784	165	C	01/10/2020	10:50	-132.645	43.538	0	397.40	0	5.7840	0	36.2080	8	28.541	0	393.849	0	100.1	4	33.5	4	-1E+10	1	-1E+10	1	-1E+10	1	-1E+10	1	-1E+10	1	-1E+10	1
4901784	165	C	01/10/2020	10:50	-132.645	43.538	0	399.90	0	5.7570	0	36.2080	8	28.544	0	396.324	0	99.1	4	33.1	4	-1E+10	1	-1E+10	1	-1E+10	1	-1E+10	1	-1E+10	1	-1E+10	1
4901784	165	C	01/10/2020	10:50	-132.645	43.538	0	402.40	0	5.7240	0	36.2080	8	28.548	0	398.799	0	97.9	4	32.7	4	-1E+10	1	-1E+10	1	-1E+10	1	-1E+10	1	-1E+10	1	-1E+10	1
4901784	165	C	01/10/2020	10:50	-132.645	43.538	0	404.90	0	5.6860	0	36.2070	8	28.552	0	401.274	0	96.5	4	32.2	4	-1E+10	1	-1E+10	1	-1E+10	1	-1E+10	1	-1E+10	1	-1E+10	1
4901784	165	C	01/10/2020	10:50	-132.645	43.538	0	407.40	0	5.6330	0	36.2090	8	28.561	0	403.750	0	95.3	4	31.8	4	-1E+10	1	-1E+10	1	-1E+10	1	-1E+10	1	-1E+10	1	-1E+10	1
4901784	165	C	01/10/2020	10:50	-132.645	43.538	0	409.80	0	5.5840	0	36.2110	8	28.569	0	406.126	0	94.2	4	31.3	4	-1E+10	1	-1E+10	1	-1E+10	1	-1E+10	1	-1E+10	1	-1E+10	1
4901784	165	C	01/10/2020	10:50	-132.645	43.538	0	412.30	0	5.5560	0	36.2100	8	28.571	0	408.601	0	93.1	4	31.0	4	-1E+10	1	-1E+10	1	-1E+10	1	-1E+10	1	-1E+10	1	-1E+10	1
4901784	165	C	01/10/2020	10:50	-132.645	43.538	0	414.80	0	5.5050	0	36.2120	8	28.579	0	411.076	0	92.0	4	30.6	4	-1E+10	1	-1E+10	1	-1E+10	1	-1E+10	1	-1E+10	1	-1E+10	1
4901784	165	C	01/10/2020	10:50	-132.645	43.538	0	417.30	0	5.4920	0	36.2120	8	28.581	0	413.551	0	91.1	4	30.2	4	-1E+10	1	-1E+10	1	-1E+10	1	-1E+10	1	-1E+10	1	-1E+10	1
4901784	165	C	01/10/2020	10:50	-132.645	43.538	0	419.70	0	5.4860	0	36.2090	8	28.579	0	415.927	0	89.8	4	29.8	4	-1E+10	1	-1E+10	1	-1E+10	1	-1E+10	1	-1E+10	1	-1E+10	1
4901784	165	C	01/10/2020	10:50	-132.645	43.538	0	422.20	0	5.4230	0	36.2130	8	28.590	0	418.402	0	88.4	4	29.3	4	-1E+10	1	-1E+10	1	-1E+10	1	-1E+10	1	-1E+10	1	-1E+10	1
4901784	165	C	01/10/2020	10:50	-132.645	43.538	0	424.80	0	5.3900	0	36.2140	8	28.595	0	420.976	0	87.2	4	28.9	4	-1E+10	1	-1E+10	1	-1E+10	1	-1E+10	1	-1E+10	1	-1E+10	1
4901784	165	C	01/10/2020	10:50	-132.645	43.538	0	427.50	0	5.3810	0	36.2130	8	28.596	0	423.649	0	85.6	4	28.4	4	-1E+10	1	-1E+10	1	-1E+10	1	-1E+10	1	-1E+10	1	-1E+10	1
4901784	165	C	01/10/2020	10:50	-132.645	43.538	0	430.00	0	5.3440	0	36.2120	8	28.599	0	426.124	0	83.5	4	27.6	4	-1E+10	1	-1E+10	1	-1E+10	1	-1E+10	1	-1E+10	1	-1E+10	1
4901784	165	C	01/10/2020	10:50	-132.645	43.538	0	432.60	0	5.2910	0	36.2180	8	28.611	0	428.698	0	81.8	4	27.0	4	-1E+10	1	-1E+10	1	-1E+10	1	-1E+10	1	-1E+10	1	-1E+10	1
4901784	165	C	01/10/2020	10:50	-132.645	43.538	0	435.10	0	5.2610	0	36.2180	8	28.614	0	431.173	0	80.4	4	26.5	4	-1E+10	1	-1E+10	1	-1E+10	1	-1E+10	1	-1E+10	1	-1E+10	1
4901784	165	C	01/10/2020	10:50	-132.645	43.538	0	437.80	0	5.2310	0	36.2200	8	28.620	0	433.846	0	78.8	4	26.0	4	-1E+10	1	-1E+10	1	-1E+10	1	-1E+10	1	-1E+10	1	-1E+10	1
4901784	165	C	01/10/2020	10:50	-132.645	43.538	0	440.40	0	5.2000	0	36.2250	8	28.627	0	436.419	0	77.3	4	25.5	4	-1E+10	1	-1E+10	1	-1E+10	1	-1E+10	1	-1E+10	1	-1E+10	1
4901784	165	C	01/10/2020	10:50	-132.645	43.538	0	442.30	0	5.1850	0	36.2270	8	28.631	0	438.300	0	76.6	4	25.3	4	-1E+10	1	-1E+10	1	-1E+10	1	-1E+10	1	-1E+10	1	-1E+10	1
4901784	165	C	01/10/2020	10:50	-132.645	43.538	0	444.90	0	5.1520	0	36.2270	8	28.635	0	440.874	0	75.6	4	24.9	4	-1E+10	1	-1E+10	1	-1E+10	1	-1E+10	1	-1E+10	1	-1E+10	1
4901784	165	C	01/10/2020	10:50	-132.645	43.538	0	447.60	0	5.1050	0	36.2300	8	28.643	0	443.547	0	74.6	4	24.6	4	-1E+10	1	-1E+10	1	-1E+10	1	-1E+10	1	-1E+10	1	-1E+10	1
4901784	165	C	01/10/2020	10:50	-132.645	43.538	0	450.20	0	5.0860	0	36.2330	8	28.648	0	446.120	0	73.6	4	24.2	4	-1E+10	1	-1E+10	1	-1E+10	1	-1E+10	1	-1E+10	1	-1E+10	1
4901784	165	C	01/10/2020	10:50	-132.645	43.538	0	452.90	0	5.0640	0	36.2330	8	28.650	0	448.793	0	72.7	4	23.9	4	-1E+10	1	-1E+10	1	-1E+10	1	-1E+10	1	-1E+10	1	-1E+10	1
4901784	165	C	01/10/2020	10:50	-132.645	43.538	0	454.60	0	5.0440	0	36.2340	8	28.654	0	450.476	0	72.0	4	23.7	4	-1E+10	1	-1E+10	1	-1E+10	1	-1E+10	1	-1E+10	1	-1E+10	1
4901784	165	C	01/10/2020	10:50	-132.645	43.538	0	457.20	0	5.0270	0	36.2360	8	28.657	0	453.049	0	70.6	4	23.2	4	-1E+10	1	-1E+10	1	-1E+10	1	-1E+10	1	-1E+10	1	-1E+10	1
4901784	165	C	01/10/2020	10:50	-132.645	43.538	0	459.90	0	4.9970	0	36.2390	8	28.663	0	455.722	0	69.1	4	22.7	4	-1E+10	1	-1E+10	1	-1E+10	1	-1E+10	1	-1E+10	1	-1E+10	1
4901784	165	C	01/10/2020	10:50	-132.645	43.538	0	462.60	0	4.9600	0	36.2470	8	28.674	0	458.394	0	67.8	4	22.3	4	-1E+10	1	-1E+10	1	-1E+10	1	-1E+10	1	-1E+10	1	-1E+10	1
4901784	165	C	01/10/2020	10:50	-132.645	43.538	0	465.30	0	4.9540	0	36.2480	8	28.675	0	461.067	0	66.8	4	21.9	4	-1E+10	1	-1E+10	1	-1E+10	1	-1E+10	1	-1E+10	1	-1E+10	1
4901784	165	C	01/10/2020	10:50	-132.645	43.538	0	467.00	0	4.9390	0	36.2530	8	28.681	0	462.749	0	66.3	4	21.7	4	-1E+10	1	-1E+10	1	-1E+10	1	-1E+10	1	-1E+10	1	-1E+10	1
4901784	165	C	01/10/2020	10:50	-132.645	43.538	0	469.70	0	4.9350	0	36.2550	8	28.683	0	465.422	0	65.7	4	21.5	4	-1E+10	1	-1E+10	1	-1E+10	1	-1E+10	1	-1E+10	1	-1E+10	1
4901784	165	C	01/10/2020	10:50	-132.645	43.538	0	472.30	0	4.9330	0	36.2550	8	28.684	0	467.995	0	65.1	4	21.3	4	-1E+10	1	-1E+10	1	-1E+10	1	-1E+10	1	-1E+10	1	-1E+10	1
4901784	165	C	01/10/2020	10:50	-132.645	43.538	0	475.00	0	4.9150	0	36.2580	8	28.688	0	470.667	0	64.5	4	21.2	4	-1E+10	1	-1E+10	1	-1E+10	1	-1E+10	1	-1E+10	1	-1E+10	1
4901784	165	C	01/10/2020	10:50	-132.645	43.538	0	477.80	0	4.8880	0	36.2620	8	28.695	0	473.439	0	64.1	4	21.0	4	-1E+10	1	-1E+10	1	-1E+10	1	-1E+10	1	-1E+10	1	-1E+10	1
4901784	165	C	01/10/2020	10:50	-132.645	43.538	0	479.60	0	4.8770	0	36.2620	8	28.696	0	475.220	0	63.9	4	20.9	4	-1E+10	1	-1E+10	1	-1E+10	1	-1E+10	1	-1E+10	1	-1E+10	1
4901784	165	C	01/10/2020	10:50	-132.645	43.538	0	482.40	0	4.8710	0	36.2630	8	28.697	0	477.991	0	63.4	4	20.8	4	-1E+10	1	-1E+10	1	-1E+10	1	-1E+10	1	-1E+10	1	-1E+10	1
4901784	165	C	01/10/2020	10:50	-132.645	43.538	0	485.20	0	4.8630	0	36.2630	8	28.698	0	480.763	0	62.7	4	20.5	4	-1E+10	1	-1E+10	1	-1E+10	1	-1E+10	1	-1E+10	1	-1E+10	1
4901784	165	C	01/10/2020	10:50	-132.645	43.538	0	487.00	0	4.8550	0	36.2650	8	28.701	0	482.544	0	62.1	4	20.3	4	-1E+10	1	-1E+10	1	-1E+10	1	-1E+10	1	-1E+10	1	-1E+10	1
4901784	165	C	01/10/2020	10:50	-132.645	43.538	0	489.70	0	4.8410	0	36.2680	8	28.705	0	485.216	0	61.2	4	20.0	4	-1E+10	1	-1E+10	1	-1E+10	1	-1E+10	1	-1E+10	1	-1E+10	1
4901784	165	C	01/10/2020	10:50	-132.645	43.538	0	492.50	0	4.8300	0	36.2690	8	28.707	0	487.987	0	60.1	4	19.7	4	-1E+10	1	-1E+10	1	-1E+10	1	-1E+10	1	-1E+10	1	-1E+10	1
4901784	165	C	01/10/2020	10:50	-132.645	43.538	0	495.30	0	4.8130	0	36.2760	8	28.715	0	490.758	0	58.8	4	19.2	4	-1E+10	1	-1E+10	1	-1E+10	1	-1E+10	1	-1E+10	1	-1E+10	1
4901784	165	C	01/10/2020	10:50	-132.645	43.538	0	498.10	0	4.8120	0	36.2780	8	28.716	0	493.529	0	57.7	4	18.9	4	-1E+10	1	-1E+10	1	-1E+10	1	-1E+10	1	-1E+10	1	-1E+10	1
4901784	165	C	01/10/2020	10:50	-132.645	43.538	0	500.00	0	4.7970	0	36.2800	8	28.720	0	495.410	0	57.0	4	18.6	4	-1E+10	1	-1E+10	1	-1E+10	1	-1E+10	1	-1E+10	1	-1E+10	1
4901784	165	C	01/10/2020	10:50	-132.645	43.538	0	504.70	0	4.7730	0	36.2870	8	28.728	0	500.061	0	55.2	4	18.0	4	-1E+10	1	-1E+10	1	-1E+10	1	-1E+10	1	-1E+10	1	-1E+10	1
4901784	165	C	01/10/2020	10:50	-132.645	43.538	0	509.40	0	4.7440	0	36.2960	8	28.739	0	504.712	0	52.9	4	17.3	4	-1E+10	1	-1E+10	1	-1E+10	1	-1E+10	1	-1E+10	1	-1E+10	1
4901784	165	C	01/10/2020	10:50	-132.645	43.538	0	515.10	0	4.7230	0	36.3030	8	28.747	0	510.352	0	51.0	4	16.6	4	-1E+10	1	-1E+10	1	-1E+10	1	-1E+10	1	-1E+10	1	-1E+10	1
4901784	165	C	01/10/2020	10:50	-132.645	43.538	0	519.70	0	4.7030	0	36.3110	8	28.755	0	514.904	0	49.2	4	16.0	4	-1E+10	1	-1E+10	1	-1E+10	1	-1E+10	1	-1E+10	1	-1E+10	1
4901784	165	C	01/10/2020	10:50	-132.645	43.538	0	524.40	0	4.6870	0	36.3180	8	28.763	0	519.555	0	47.1	4	15.3	4	-1E+10	1	-1E+10	1	-1E+10	1	-1E+10	1	-1E+10	1	-1E+10	1
4901784	165	C	01/10/2020	10:50	-132.645	43.538	0	530.10	0	4.6720	0	36.3270	8	28.772	0	525.195	0	45.0	4	14.7	4	-1E+10	1	-1E+10	1	-1E+10	1	-1E+10	1	-1E+10	1	-1E+10	1
4901784	165	C	01/10/2020	10:50	-132.645	43.538	0	534.80	0	4.6560	0	36.3340	8	28.779	0	529.846	0	43.1	4	14.1	4	-1E+10	1	-1E+10	1	-1E+10	1	-1E+10	1	-1E+10	1	-1E+10	1
4901784	165	C	01/10/2020	10:50	-132.645	43.538	0	539.60	0	4.6380	0	36.3410	8	28.787	0	534.595	0	41.7	4	13.6	4	-1E+10	1	-1E+10	1	-1E+10	1	-1E+10	1	-1E+10	1	-1E+10	1
4901784	165	C	01/10/2020	10:50	-132.645	43.538	0	544.50	0	4.6220	0	36.3470	8	28.794	0	539.443	0	40.0	4	13.0	4	-1E+10	1	-1E+10	1	-1E+10	1	-1E+10	1	-1E+10	1	-1E+10	1
4901784	165	C	01/10/2020	10:50	-132.645	43.538	0	549.30	0	4.6020	0	36.3560	8	28.803	0	544.192	0	38.5	4	12.5	4	-1E+10	1	-1E+10	1	-1E+10	1	-1E+10	1	-1E+10	1	-1E+10	1
4901784	165	C	01/10/2020	10:50	-132.645	43.538	0	554.80	0	4.5800	0	36.3640	8	28.812	0	549.634	0	37.1	4	12.1	4	-1E+10	1	-1E+10	1	-1E+10	1	-1E+10	1	-1E+10	1	-1E+10	1
4901784	165	C	01/10/2020	10:50	-132.645	43.538	0	559.50	0	4.5600	0	36.3690	8	28.818	0	554.284	0	36.0	4	11.7	4	-1E+10	1	-1E+10	1	-1E+10	1	-1E+10	1	-1E+10	1	-1E+10	1
4901784	165	C	01/10/2020	10:50	-132.645	43.538	0	564.30	0	4.5390	0	36.3770	8	28.827	0	559.033	0	35.1	4	11.4	4	-1E+10	1	-1E+10	1	-1E+10	1	-1E+10	1	-1E+10	1	-1E+10	1
4901784	165	C	01/10/2020	10:50	-132.645	43.538	0	570.00	0	4.5330	0	36.3790	8	28.830	0	564.672	0	34.2	4	11.1	4	-1E+10	1	-1E+10	1	-1E+10	1	-1E+10	1	-1E+10	1	-1E+10	1
4901784	165	C	01/10/2020	10:50	-132.645	43.538	0	575.70	0	4.5220	0	36.3840	8	28.835	0	570.311	0	32.9	4	10.7	4	-1E+10	1	-1E+10	1	-1E+10	1	-1E+10	1	-1E+10	1	-1E+10	1
4901784	165	C	01/10/2020	10:50	-132.645	43.538	0	580.70	0	4.5060	0	36.3900	8	28.841	0	575.257	0	31.6	4	10.3	4	-1E+10	1	-1E+10	1	-1E+10	1	-1E+10	1	-1E+10	1	-1E+10	1
4901784	165	C	01/10/2020	10:50	-132.645	43.538	0	585.80	0	4.4970	0	36.3970	8	28.848	0	580.302	0	30.3	4	9.8	4	-1E+10	1	-1E+10	1	-1E+10	1	-1E+10	1	-1E+10	1	-1E+10	1
4901784	165	C	01/10/2020	10:50	-132.645	43.538	0	590.00	0	4.4920	0	36.4020	8	28.853	0	584.457	0	29.2	4	9.5	4	-1E+10	1	-1E+10	1	-1E+10	1	-1E+10	1	-1E+10	1	-1E+10	1
4901784	165	C	01/10/2020	10:50	-132.645	43.538	0	594.30	0	4.4700	0	36.4100	8	28.862	0	588.710	0	28.1	4	9.1	4	-1E+10	1	-1E+10	1	-1E+10	1	-1E+10	1	-1E+10	1	-1E+10	1
4901784	165	C	01/10/2020	10:50	-132.645	43.538	0	599.50	0	4.4530	0	36.4160	8	28.868	0	593.854	0	27.1	4	8.8	4	-1E+10	1	-1E+10	1	-1E+10	1	-1E+10	1	-1E+10	1	-1E+10	1
4901784	165	C	01/10/2020	10:50	-132.645	43.538	0	604.70	0	4.4400	0	36.4220	8	28.875	0	598.998	0	26.2	4	8.5	4	-1E+10	1	-1E+10	1	-1E+10	1	-1E+10	1	-1E+10	1	-1E+10	1
4901784	165	C	01/10/2020	10:50	-132.645	43.538	0	610.00	0	4.3990	0	36.4270	8	28.883	0	604.240	0	25.7	4	8.3	4	-1E+10	1	-1E+10	1	-1E+10	1	-1E+10	1	-1E+10	1	-1E+10	1
4901784	165	C	01/10/2020	10:50	-132.645	43.538	0	615.20	0	4.3760	0	36.4320	8	28.890	0	609.383	0	24.9	4	8.1	4	-1E+10	1	-1E+10	1	-1E+10	1	-1E+10	1	-1E+10	1	-1E+10	1
4901784	165	C	01/10/2020	10:50	-132.645	43.538	0	620.50	0	4.3570	0	36.4370	8	28.896	0	614.625	0	23.9	4	7.7	4	-1E+10	1	-1E+10	1	-1E+10	1	-1E+10	1	-1E+10	1	-1E+10	1
4901784	165	C	01/10/2020	10:50	-132.645	43.538	0	625.70	0	4.3380	0	36.4460	8	28.905	0	619.768	0	22.9	4	7.4	4	-1E+10	1	-1E+10	1	-1E+10	1	-1E+10	1	-1E+10	1	-1E+10	1
4901784	165	C	01/10/2020	10:50	-132.645	43.538	0	630.10	0	4.3240	0	36.4510	8	28.911	0	624.120	0	22.4	4	7.2	4	-1E+10	1	-1E+10	1	-1E+10	1	-1E+10	1	-1E+10	1	-1E+10	1
4901784	165	C	01/10/2020	10:50	-132.645	43.538	0	634.50	0	4.3170	0	36.4530	8	28.913	0	628.472	0	21.8	4	7.1	4	-1E+10	1	-1E+10	1	-1E+10	1	-1E+10	1	-1E+10	1	-1E+10	1
4901784	165	C	01/10/2020	10:50	-132.645	43.538	0	639.80	0	4.2980	0	36.4600	8	28.921	0	633.713	0	20.9	4	6.8	4	-1E+10	1	-1E+10	1	-1E+10	1	-1E+10	1	-1E+10	1	-1E+10	1
4901784	165	C	01/10/2020	10:50	-132.645	43.538	0	645.10	0	4.2830	0	36.4680	8	28.929	0	638.955	0	20.2	4	6.5	4	-1E+10	1	-1E+10	1	-1E+10	1	-1E+10	1	-1E+10	1	-1E+10	1
4901784	165	C	01/10/2020	10:50	-132.645	43.538	0	650.40	0	4.2750	0	36.4720	8	28.933	0	644.196	0	19.6	4	6.3	4	-1E+10	1	-1E+10	1	-1E+10	1	-1E+10	1	-1E+10	1	-1E+10	1
4901784	165	C	01/10/2020	10:50	-132.645	43.538	0	655.70	0	4.2550	0	36.4770	8	28.940	0	649.437	0	19.1	4	6.2	4	-1E+10	1	-1E+10	1	-1E+10	1	-1E+10	1	-1E+10	1	-1E+10	1
4901784	165	C	01/10/2020	10:50	-132.645	43.538	0	660.10	0	4.2300	0	36.4810	8	28.945	0	653.788	0	18.7	4	6.0	4	-1E+10	1	-1E+10	1	-1E+10	1	-1E+10	1	-1E+10	1	-1E+10	1
4901784	165	C	01/10/2020	10:50	-132.645	43.538	0	664.60	0	4.2150	0	36.4870	8	28.952	0	658.238	0	18.0	4	5.8	4	-1E+10	1	-1E+10	1	-1E+10	1	-1E+10	1	-1E+10	1	-1E+10	1
4901784	165	C	01/10/2020	10:50	-132.645	43.538	0	670.00	0	4.2050	0	36.4950	8	28.959	0	663.578	0	17.3	4	5.6	4	-1E+10	1	-1E+10	1	-1E+10	1	-1E+10	1	-1E+10	1	-1E+10	1
4901784	165	C	01/10/2020	10:50	-132.645	43.538	0	675.50	0	4.1930	0	36.5040	8	28.968	0	669.016	0	16.8	4	5.4	4	-1E+10	1	-1E+10	1	-1E+10	1	-1E+10	1	-1E+10	1	-1E+10	1
4901784	165	C	01/10/2020	10:50	-132.645	43.538	0	680.20	0	4.1860	0	36.5080	8	28.972	0	673.664	0	16.5	4	5.3	4	-1E+10	1	-1E+10	1	-1E+10	1	-1E+10	1	-1E+10	1	-1E+10	1
4901784	165	C	01/10/2020	10:50	-132.645	43.538	0	684.90	0	4.1740	0	36.5120	8	28.977	0	678.311	0	16.3	4	5.2	4	-1E+10	1	-1E+10	1	-1E+10	1	-1E+10	1	-1E+10	1	-1E+10	1
4901784	165	C	01/10/2020	10:50	-132.645	43.538	0	690.60	0	4.1670	0	36.5150	8	28.980	0	683.947	0	16.0	4	5.2	4	-1E+10	1	-1E+10	1	-1E+10	1	-1E+10	1	-1E+10	1	-1E+10	1
4901784	165	C	01/10/2020	10:50	-132.645	43.538	0	695.20	0	4.1550	0	36.5210	8	28.986	0	688.495	0	15.8	4	5.1	4	-1E+10	1	-1E+10	1	-1E+10	1	-1E+10	1	-1E+10	1	-1E+10	1
4901784	165	C	01/10/2020	10:50	-132.645	43.538	0	700.00	0	4.1490	0	36.5230	8	28.988	0	693.240	0	15.6	4	5.0	4	-1E+10	1	-1E+10	1	-1E+10	1	-1E+10	1	-1E+10	1	-1E+10	1
4901784	165	C	01/10/2020	10:50	-132.645	43.538	0	705.40	0	4.1470	0	36.5230	8	28.988	0	698.579	0	15.5	4	5.0	4	-1E+10	1	-1E+10	1	-1E+10	1	-1E+10	1	-1E+10	1	-1E+10	1
4901784	165	C	01/10/2020	10:50	-132.645	43.538	0	709.60	0	4.1410	0	36.5260	8	28.992	0	702.731	0	15.1	4	4.9	4	-1E+10	1	-1E+10	1	-1E+10	1	-1E+10	1	-1E+10	1	-1E+10	1
4901784	165	C	01/10/2020	10:50	-132.645	43.538	0	715.10	0	4.1220	0	36.5330	8	28.999	0	708.169	0	14.8	4	4.8	4	-1E+10	1	-1E+10	1	-1E+10	1	-1E+10	1	-1E+10	1	-1E+10	1
4901784	165	C	01/10/2020	10:50	-132.645	43.538	0	720.70	0	4.1050	0	36.5380	8	29.005	0	713.705	0	14.5	4	4.7	4	-1E+10	1	-1E+10	1	-1E+10	1	-1E+10	1	-1E+10	1	-1E+10	1
4901784	165	C	01/10/2020	10:50	-132.645	43.538	0	725.50	0	4.0930	0	36.5420	8	29.010	0	718.450	0	14.3	4	4.6	4	-1E+10	1	-1E+10	1	-1E+10	1	-1E+10	1	-1E+10	1	-1E+10	1
4901784	165	C	01/10/2020	10:50	-132.645	43.538	0	730.30	0	4.0800	0	36.5450	8	29.014	0	723.195	0	14.2	4	4.6	4	-1E+10	1	-1E+10	1	-1E+10	1	-1E+10	1	-1E+10	1	-1E+10	1
4901784	165	C	01/10/2020	10:50	-132.645	43.538	0	735.20	0	4.0740	0	36.5460	8	29.015	0	728.039	0	13.9	4	4.5	4	-1E+10	1	-1E+10	1	-1E+10	1	-1E+10	1	-1E+10	1	-1E+10	1
4901784	165	C	01/10/2020	10:50	-132.645	43.538	0	740.10	0	4.0580	0	36.5530	8	29.022	0	732.883	0	13.6	4	4.4	4	-1E+10	1	-1E+10	1	-1E+10	1	-1E+10	1	-1E+10	1	-1E+10	1
4901784	165	C	01/10/2020	10:50	-132.645	43.538	0	745.00	0	4.0520	0	36.5590	8	29.028	0	737.726	0	13.3	4	4.3	4	-1E+10	1	-1E+10	1	-1E+10	1	-1E+10	1	-1E+10	1	-1E+10	1
4901784	165	C	01/10/2020	10:50	-132.645	43.538	0	750.00	0	4.0370	0	36.5630	8	29.033	0	742.669	0	13.2	4	4.2	4	-1E+10	1	-1E+10	1	-1E+10	1	-1E+10	1	-1E+10	1	-1E+10	1
4901784	165	C	01/10/2020	10:50	-132.645	43.538	0	754.90	0	4.0170	0	36.5680	8	29.039	0	747.512	0	13.0	4	4.2	4	-1E+10	1	-1E+10	1	-1E+10	1	-1E+10	1	-1E+10	1	-1E+10	1
4901784	165	C	01/10/2020	10:50	-132.645	43.538	0	759.90	0	4.0100	0	36.5700	8	29.041	0	752.454	0	12.9	4	4.2	4	-1E+10	1	-1E+10	1	-1E+10	1	-1E+10	1	-1E+10	1	-1E+10	1
4901784	165	C	01/10/2020	10:50	-132.645	43.538	0	765.00	0	4.0040	0	36.5720	8	29.044	0	757.495	0	12.8	4	4.1	4	-1E+10	1	-1E+10	1	-1E+10	1	-1E+10	1	-1E+10	1	-1E+10	1
4901784	165	C	01/10/2020	10:50	-132.645	43.538	0	770.10	0	3.9910	0	36.5750	8	29.047	0	762.535	0	12.6	4	4.0	4	-1E+10	1	-1E+10	1	-1E+10	1	-1E+10	1	-1E+10	1	-1E+10	1
4901784	165	C	01/10/2020	10:50	-132.645	43.538	0	775.20	0	3.9710	0	36.5820	8	29.055	0	767.576	0	12.3	4	4.0	4	-1E+10	1	-1E+10	1	-1E+10	1	-1E+10	1	-1E+10	1	-1E+10	1
4901784	165	C	01/10/2020	10:50	-132.645	43.538	0	780.50	0	3.9540	0	36.5870	8	29.061	0	772.814	0	12.2	4	3.9	4	-1E+10	1	-1E+10	1	-1E+10	1	-1E+10	1	-1E+10	1	-1E+10	1
4901784	165	C	01/10/2020	10:50	-132.645	43.538	0	784.90	0	3.9410	0	36.5900	8	29.065	0	777.162	0	12.0	4	3.9	4	-1E+10	1	-1E+10	1	-1E+10	1	-1E+10	1	-1E+10	1	-1E+10	1
4901784	165	C	01/10/2020	10:50	-132.645	43.538	0	789.30	0	3.9350	0	36.5940	8	29.069	0	781.511	0	11.9	4	3.8	4	-1E+10	1	-1E+10	1	-1E+10	1	-1E+10	1	-1E+10	1	-1E+10	1
4901784	165	C	01/10/2020	10:50	-132.645	43.538	0	794.70	0	3.9200	0	36.6000	8	29.075	0	786.847	0	11.8	4	3.8	4	-1E+10	1	-1E+10	1	-1E+10	1	-1E+10	1	-1E+10	1	-1E+10	1
4901784	165	C	01/10/2020	10:50	-132.645	43.538	0	800.10	0	3.9170	0	36.6020	8	29.077	0	792.184	0	11.6	4	3.7	4	-1E+10	1	-1E+10	1	-1E+10	1	-1E+10	1	-1E+10	1	-1E+10	1
4901784	165	C	01/10/2020	10:50	-132.645	43.538	0	805.50	0	3.9030	0	36.6070	8	29.083	0	797.520	0	11.5	4	3.7	4	-1E+10	1	-1E+10	1	-1E+10	1	-1E+10	1	-1E+10	1	-1E+10	1
4901784	165	C	01/10/2020	10:50	-132.645	43.538	0	809.90	0	3.8840	0	36.6110	8	29.088	0	801.868	0	11.5	4	3.7	4	-1E+10	1	-1E+10	1	-1E+10	1	-1E+10	1	-1E+10	1	-1E+10	1
4901784	165	C	01/10/2020	10:50	-132.645	43.538	0	814.40	0	3.8760	0	36.6130	8	29.090	0	806.315	0	11.4	4	3.7	4	-1E+10	1	-1E+10	1	-1E+10	1	-1E+10	1	-1E+10	1	-1E+10	1
4901784	165	C	01/10/2020	10:50	-132.645	43.538	0	819.90	0	3.8680	0	36.6140	8	29.092	0	811.749	0	11.4	4	3.7	4	-1E+10	1	-1E+10	1	-1E+10	1	-1E+10	1	-1E+10	1	-1E+10	1
4901784	165	C	01/10/2020	10:50	-132.645	43.538	0	825.50	0	3.8540	0	36.6170	8	29.096	0	817.283	0	11.4	4	3.6	4	-1E+10	1	-1E+10	1	-1E+10	1	-1E+10	1	-1E+10	1	-1E+10	1
4901784	165	C	01/10/2020	10:50	-132.645	43.538	0	830.10	0	3.8500	0	36.6170	8	29.096	0	821.828	0	11.3	4	3.6	4	-1E+10	1	-1E+10	1	-1E+10	1	-1E+10	1	-1E+10	1	-1E+10	1
4901784	165	C	01/10/2020	10:50	-132.645	43.538	0	834.80	0	3.8290	0	36.6210	8	29.102	0	826.472	0	11.3	4	3.6	4	-1E+10	1	-1E+10	1	-1E+10	1	-1E+10	1	-1E+10	1	-1E+10	1
4901784	165	C	01/10/2020	10:50	-132.645	43.538	0	840.00	0	3.8220	0	36.6230	8	29.104	0	831.610	0	11.2	4	3.6	4	-1E+10	1	-1E+10	1	-1E+10	1	-1E+10	1	-1E+10	1	-1E+10	1
4901784	165	C	01/10/2020	10:50	-132.645	43.538	0	844.30	0	3.8120	0	36.6250	8	29.107	0	835.858	0	11.1	4	3.6	4	-1E+10	1	-1E+10	1	-1E+10	1	-1E+10	1	-1E+10	1	-1E+10	1
4901784	165	C	01/10/2020	10:50	-132.645	43.538	0	850.00	0	3.7960	0	36.6290	8	29.112	0	841.490	0	11.1	4	3.5	4	-1E+10	1	-1E+10	1	-1E+10	1	-1E+10	1	-1E+10	1	-1E+10	1
4901784	165	C	01/10/2020	10:50	-132.645	43.538	0	855.70	0	3.7850	0	36.6330	8	29.116	0	847.121	0	11.0	4	3.5	4	-1E+10	1	-1E+10	1	-1E+10	1	-1E+10	1	-1E+10	1	-1E+10	1
4901784	165	C	01/10/2020	10:50	-132.645	43.538	0	860.60	0	3.7770	0	36.6350	8	29.119	0	851.962	0	10.9	4	3.5	4	-1E+10	1	-1E+10	1	-1E+10	1	-1E+10	1	-1E+10	1	-1E+10	1
4901784	165	C	01/10/2020	10:50	-132.645	43.538	0	865.50	0	3.7680	0	36.6380	8	29.122	0	856.803	0	10.9	4	3.5	4	-1E+10	1	-1E+10	1	-1E+10	1	-1E+10	1	-1E+10	1	-1E+10	1
4901784	165	C	01/10/2020	10:50	-132.645	43.538	0	870.50	0	3.7530	0	36.6420	8	29.127	0	861.742	0	10.8	4	3.4	4	-1E+10	1	-1E+10	1	-1E+10	1	-1E+10	1	-1E+10	1	-1E+10	1
4901784	165	C	01/10/2020	10:50	-132.645	43.538	0	875.50	0	3.7400	0	36.6460	8	29.132	0	866.682	0	10.7	4	3.4	4	-1E+10	1	-1E+10	1	-1E+10	1	-1E+10	1	-1E+10	1	-1E+10	1
4901784	165	C	01/10/2020	10:50	-132.645	43.538	0	880.30	0	3.7330	0	36.6480	8	29.134	0	871.423	0	10.7	4	3.4	4	-1E+10	1	-1E+10	1	-1E+10	1	-1E+10	1	-1E+10	1	-1E+10	1
4901784	165	C	01/10/2020	10:50	-132.645	43.538	0	885.20	0	3.7270	0	36.6500	8	29.136	0	876.264	0	10.6	4	3.4	4	-1E+10	1	-1E+10	1	-1E+10	1	-1E+10	1	-1E+10	1	-1E+10	1
4901784	165	C	01/10/2020	10:50	-132.645	43.538	0	890.20	0	3.7160	0	36.6540	8	29.141	0	881.203	0	10.6	4	3.4	4	-1E+10	1	-1E+10	1	-1E+10	1	-1E+10	1	-1E+10	1	-1E+10	1
4901784	165	C	01/10/2020	10:50	-132.645	43.538	0	895.20	0	3.7040	0	36.6580	8	29.145	0	886.141	0	10.5	4	3.4	4	-1E+10	1	-1E+10	1	-1E+10	1	-1E+10	1	-1E+10	1	-1E+10	1
4901784	165	C	01/10/2020	10:50	-132.645	43.538	0	900.20	0	3.6950	0	36.6600	8	29.148	0	891.080	0	10.5	4	3.4	4	-1E+10	1	-1E+10	1	-1E+10	1	-1E+10	1	-1E+10	1	-1E+10	1
4901784	165	C	01/10/2020	10:50	-132.645	43.538	0	905.20	0	3.6760	0	36.6660	8	29.155	0	896.019	0	10.5	4	3.3	4	-1E+10	1	-1E+10	1	-1E+10	1	-1E+10	1	-1E+10	1	-1E+10	1
4901784	165	C	01/10/2020	10:50	-132.645	43.538	0	910.40	0	3.6630	0	36.6690	8	29.158	0	901.155	0	10.4	4	3.3	4	-1E+10	1	-1E+10	1	-1E+10	1	-1E+10	1	-1E+10	1	-1E+10	1
4901784	165	C	01/10/2020	10:50	-132.645	43.538	0	915.60	0	3.6580	0	36.6710	8	29.160	0	906.291	0	10.4	4	3.3	4	-1E+10	1	-1E+10	1	-1E+10	1	-1E+10	1	-1E+10	1	-1E+10	1
4901784	165	C	01/10/2020	10:50	-132.645	43.538	0	920.60	0	3.6570	0	36.6720	8	29.161	0	911.229	0	10.4	4	3.3	4	-1E+10	1	-1E+10	1	-1E+10	1	-1E+10	1	-1E+10	1	-1E+10	1
4901784	165	C	01/10/2020	10:50	-132.645	43.538	0	925.70	0	3.6450	0	36.6740	8	29.164	0	916.266	0	10.4	4	3.3	4	-1E+10	1	-1E+10	1	-1E+10	1	-1E+10	1	-1E+10	1	-1E+10	1
4901784	165	C	01/10/2020	10:50	-132.645	43.538	0	930.10	0	3.6360	0	36.6770	8	29.168	0	920.611	0	10.4	4	3.3	4	-1E+10	1	-1E+10	1	-1E+10	1	-1E+10	1	-1E+10	1	-1E+10	1
4901784	165	C	01/10/2020	10:50	-132.645	43.538	0	934.30	0	3.6270	0	36.6790	8	29.170	0	924.759	0	10.3	4	3.3	4	-1E+10	1	-1E+10	1	-1E+10	1	-1E+10	1	-1E+10	1	-1E+10	1
4901784	165	C	01/10/2020	10:50	-132.645	43.538	0	939.40	0	3.6140	0	36.6850	8	29.176	0	929.796	0	10.3	4	3.3	4	-1E+10	1	-1E+10	1	-1E+10	1	-1E+10	1	-1E+10	1	-1E+10	1
4901784	165	C	01/10/2020	10:50	-132.645	43.538	0	944.60	0	3.6010	0	36.6890	8	29.181	0	934.931	0	10.2	4	3.3	4	-1E+10	1	-1E+10	1	-1E+10	1	-1E+10	1	-1E+10	1	-1E+10	1
4901784	165	C	01/10/2020	10:50	-132.645	43.538	0	949.60	0	3.5920	0	36.6940	8	29.186	0	939.869	0	10.2	4	3.3	4	-1E+10	1	-1E+10	1	-1E+10	1	-1E+10	1	-1E+10	1	-1E+10	1
4901784	165	C	01/10/2020	10:50	-132.645	43.538	0	954.70	0	3.5790	0	36.6980	8	29.190	0	944.905	0	10.2	4	3.3	4	-1E+10	1	-1E+10	1	-1E+10	1	-1E+10	1	-1E+10	1	-1E+10	1
4901784	165	C	01/10/2020	10:50	-132.645	43.538	0	959.80	0	3.5710	0	36.7000	8	29.193	0	949.941	0	10.2	4	3.3	4	-1E+10	1	-1E+10	1	-1E+10	1	-1E+10	1	-1E+10	1	-1E+10	1
4901784	165	C	01/10/2020	10:50	-132.645	43.538	0	964.90	0	3.5620	0	36.7040	8	29.197	0	954.977	0	10.2	4	3.3	4	-1E+10	1	-1E+10	1	-1E+10	1	-1E+10	1	-1E+10	1	-1E+10	1
4901784	165	C	01/10/2020	10:50	-132.645	43.538	0	970.10	0	3.5500	0	36.7080	8	29.202	0	960.112	0	10.2	4	3.3	4	-1E+10	1	-1E+10	1	-1E+10	1	-1E+10	1	-1E+10	1	-1E+10	1
4901784	165	C	01/10/2020	10:50	-132.645	43.538	0	975.30	0	3.5410	0	36.7110	8	29.205	0	965.246	0	10.3	4	3.3	4	-1E+10	1	-1E+10	1	-1E+10	1	-1E+10	1	-1E+10	1	-1E+10	1
4901784	165	C	01/10/2020	10:50	-132.645	43.538	0	980.60	0	3.5290	0	36.7130	8	29.208	0	970.479	0	10.3	4	3.3	4	-1E+10	1	-1E+10	1	-1E+10	1	-1E+10	1	-1E+10	1	-1E+10	1
4901784	165	C	01/10/2020	10:50	-132.645	43.538	0	985.00	0	3.5140	0	36.7160	8	29.212	0	974.824	0	10.3	4	3.3	4	-1E+10	1	-1E+10	1	-1E+10	1	-1E+10	1	-1E+10	1	-1E+10	1
4901784	165	C	01/10/2020	10:50	-132.645	43.538	0	989.40	0	3.5050	0	36.7190	8	29.215	0	979.168	0	10.3	4	3.3	4	-1E+10	1	-1E+10	1	-1E+10	1	-1E+10	1	-1E+10	1	-1E+10	1
4901784	165	C	01/10/2020	10:50	-132.645	43.538	0	994.60	0	3.4890	0	36.7240	8	29.221	0	984.302	0	10.4	4	3.3	4	-1E+10	1	-1E+10	1	-1E+10	1	-1E+10	1	-1E+10	1	-1E+10	1
4901784	165	C	01/10/2020	10:50	-132.645	43.538	0	1000.00	0	3.4800	0	36.7260	8	29.223	0	989.633	0	10.4	4	3.3	4	-1E+10	1	-1E+10	1	-1E+10	1	-1E+10	1	-1E+10	1	-1E+10	1
4901784	165	C	01/10/2020	10:50	-132.645	43.538	0	1005.20	0	3.4740	0	36.7290	8	29.226	0	994.767	0	10.4	4	3.3	4	-1E+10	1	-1E+10	1	-1E+10	1	-1E+10	1	-1E+10	1	-1E+10	1
4901784	165	C	01/10/2020	10:50	-132.645	43.538	0	1010.50	0	3.4610	0	36.7330	8	29.231	0	999.999	0	10.4	4	3.3	4	-1E+10	1	-1E+10	1	-1E+10	1	-1E+10	1	-1E+10	1	-1E+10	1
4901784	165	C	01/10/2020	10:50	-132.645	43.538	0	1014.90	0	3.4540	0	36.7350	8	29.233	0	1004.343	0	10.5	4	3.3	4	-1E+10	1	-1E+10	1	-1E+10	1	-1E+10	1	-1E+10	1	-1E+10	1
4901784	165	C	01/10/2020	10:50	-132.645	43.538	0	1019.30	0	3.4480	0	36.7360	8	29.235	0	1008.687	0	10.5	4	3.3	4	-1E+10	1	-1E+10	1	-1E+10	1	-1E+10	1	-1E+10	1	-1E+10	1
4901784	165	C	01/10/2020	10:50	-132.645	43.538	0	1024.60	0	3.4380	0	36.7440	8	29.242	0	1013.919	0	10.6	4	3.4	4	-1E+10	1	-1E+10	1	-1E+10	1	-1E+10	1	-1E+10	1	-1E+10	1
4901784	165	C	01/10/2020	10:50	-132.645	43.538	0	1030.00	0	3.4190	0	36.7480	8	29.247	0	1019.249	0	10.6	4	3.4	4	-1E+10	1	-1E+10	1	-1E+10	1	-1E+10	1	-1E+10	1	-1E+10	1
4901784	165	C	01/10/2020	10:50	-132.645	43.538	0	1035.50	0	3.4090	0	36.7520	8	29.252	0	1024.679	0	10.7	4	3.4	4	-1E+10	1	-1E+10	1	-1E+10	1	-1E+10	1	-1E+10	1	-1E+10	1
4901784	165	C	01/10/2020	10:50	-132.645	43.538	0	1040.10	0	3.4080	0	36.7540	8	29.253	0	1029.219	0	10.8	4	3.4	4	-1E+10	1	-1E+10	1	-1E+10	1	-1E+10	1	-1E+10	1	-1E+10	1
4901784	165	C	01/10/2020	10:50	-132.645	43.538	0	1044.70	0	3.3980	0	36.7570	8	29.257	0	1033.760	0	10.8	4	3.4	4	-1E+10	1	-1E+10	1	-1E+10	1	-1E+10	1	-1E+10	1	-1E+10	1
4901784	165	C	01/10/2020	10:50	-132.645	43.538	0	1050.20	0	3.3890	0	36.7600	8	29.260	0	1039.189	0	10.9	4	3.5	4	-1E+10	1	-1E+10	1	-1E+10	1	-1E+10	1	-1E+10	1	-1E+10	1
4901784	165	C	01/10/2020	10:50	-132.645	43.538	0	1054.80	0	3.3760	0	36.7620	8	29.263	0	1043.729	0	11.0	4	3.5	4	-1E+10	1	-1E+10	1	-1E+10	1	-1E+10	1	-1E+10	1	-1E+10	1
4901784	165	C	01/10/2020	10:50	-132.645	43.538	0	1059.40	0	3.3750	0	36.7660	8	29.266	0	1048.269	0	11.1	4	3.5	4	-1E+10	1	-1E+10	1	-1E+10	1	-1E+10	1	-1E+10	1	-1E+10	1
4901784	165	C	01/10/2020	10:50	-132.645	43.538	0	1065.00	0	3.3660	0	36.7700	8	29.271	0	1053.796	0	11.3	4	3.6	4	-1E+10	1	-1E+10	1	-1E+10	1	-1E+10	1	-1E+10	1	-1E+10	1
4901784	165	C	01/10/2020	10:50	-132.645	43.538	0	1070.60	0	3.3470	0	36.7730	8	29.275	0	1059.323	0	11.4	4	3.6	4	-1E+10	1	-1E+10	1	-1E+10	1	-1E+10	1	-1E+10	1	-1E+10	1
4901784	165	C	01/10/2020	10:50	-132.645	43.538	0	1075.40	0	3.3290	0	36.7770	8	29.280	0	1064.060	0	11.5	4	3.7	4	-1E+10	1	-1E+10	1	-1E+10	1	-1E+10	1	-1E+10	1	-1E+10	1
4901784	165	C	01/10/2020	10:50	-132.645	43.538	0	1080.10	0	3.3190	0	36.7800	8	29.283	0	1068.699	0	11.7	4	3.7	4	-1E+10	1	-1E+10	1	-1E+10	1	-1E+10	1	-1E+10	1	-1E+10	1
4901784	165	C	01/10/2020	10:50	-132.645	43.538	0	1084.90	0	3.3050	0	36.7840	8	29.288	0	1073.436	0	11.8	4	3.7	4	-1E+10	1	-1E+10	1	-1E+10	1	-1E+10	1	-1E+10	1	-1E+10	1
4901784	165	C	01/10/2020	10:50	-132.645	43.538	0	1089.80	0	3.3020	0	36.7840	8	29.288	0	1078.272	0	11.8	4	3.7	4	-1E+10	1	-1E+10	1	-1E+10	1	-1E+10	1	-1E+10	1	-1E+10	1
4901784	165	C	01/10/2020	10:50	-132.645	43.538	0	1094.60	0	3.2860	0	36.7880	8	29.293	0	1083.008	0	12.0	4	3.8	4	-1E+10	1	-1E+10	1	-1E+10	1	-1E+10	1	-1E+10	1	-1E+10	1
4901784	165	C	01/10/2020	10:50	-132.645	43.538	0	1099.50	0	3.2810	0	36.7890	8	29.295	0	1087.844	0	12.0	4	3.8	4	-1E+10	1	-1E+10	1	-1E+10	1	-1E+10	1	-1E+10	1	-1E+10	1
4901784	165	C	01/10/2020	10:50	-132.645	43.538	0	1105.10	0	3.2680	0	36.7920	8	29.298	0	1093.370	0	12.1	4	3.8	4	-1E+10	1	-1E+10	1	-1E+10	1	-1E+10	1	-1E+10	1	-1E+10	1
4901784	165	C	01/10/2020	10:50	-132.645	43.538	0	1110.60	0	3.2580	0	36.7950	8	29.302	0	1098.797	0	12.2	4	3.9	4	-1E+10	1	-1E+10	1	-1E+10	1	-1E+10	1	-1E+10	1	-1E+10	1
4901784	165	C	01/10/2020	10:50	-132.645	43.538	0	1115.50	0	3.2540	0	36.7950	8	29.302	0	1103.632	0	12.3	4	3.9	4	-1E+10	1	-1E+10	1	-1E+10	1	-1E+10	1	-1E+10	1	-1E+10	1
4901784	165	C	01/10/2020	10:50	-132.645	43.538	0	1120.40	0	3.2470	0	36.7970	8	29.304	0	1108.467	0	12.3	4	3.9	4	-1E+10	1	-1E+10	1	-1E+10	1	-1E+10	1	-1E+10	1	-1E+10	1
4901784	165	C	01/10/2020	10:50	-132.645	43.538	0	1125.40	0	3.2380	0	36.7990	8	29.307	0	1113.401	0	12.4	4	3.9	4	-1E+10	1	-1E+10	1	-1E+10	1	-1E+10	1	-1E+10	1	-1E+10	1
4901784	165	C	01/10/2020	10:50	-132.645	43.538	0	1130.40	0	3.2330	0	36.8000	8	29.308	0	1118.334	0	12.5	4	3.9	4	-1E+10	1	-1E+10	1	-1E+10	1	-1E+10	1	-1E+10	1	-1E+10	1
4901784	165	C	01/10/2020	10:50	-132.645	43.538	0	1135.60	0	3.2280	0	36.8010	8	29.310	0	1123.465	0	12.5	4	4.0	4	-1E+10	1	-1E+10	1	-1E+10	1	-1E+10	1	-1E+10	1	-1E+10	1
4901784	165	C	01/10/2020	10:50	-132.645	43.538	0	1140.20	0	3.2250	0	36.8020	8	29.311	0	1128.003	0	12.6	4	4.0	4	-1E+10	1	-1E+10	1	-1E+10	1	-1E+10	1	-1E+10	1	-1E+10	1
4901784	165	C	01/10/2020	10:50	-132.645	43.538	0	1144.90	0	3.2180	0	36.8030	8	29.312	0	1132.640	0	12.7	4	4.0	4	-1E+10	1	-1E+10	1	-1E+10	1	-1E+10	1	-1E+10	1	-1E+10	1
4901784	165	C	01/10/2020	10:50	-132.645	43.538	0	1150.50	0	3.2090	0	36.8050	8	29.315	0	1138.165	0	12.8	4	4.0	4	-1E+10	1	-1E+10	1	-1E+10	1	-1E+10	1	-1E+10	1	-1E+10	1
4901784	165	C	01/10/2020	10:50	-132.645	43.538	0	1155.60	0	3.1930	0	36.8080	8	29.319	0	1143.197	0	12.9	4	4.1	4	-1E+10	1	-1E+10	1	-1E+10	1	-1E+10	1	-1E+10	1	-1E+10	1
4901784	165	C	01/10/2020	10:50	-132.645	43.538	0	1159.50	0	3.1870	0	36.8090	8	29.320	0	1147.044	0	13.0	4	4.1	4	-1E+10	1	-1E+10	1	-1E+10	1	-1E+10	1	-1E+10	1	-1E+10	1
4901784	165	C	01/10/2020	10:50	-132.645	43.538	0	1165.00	0	3.1800	0	36.8110	8	29.323	0	1152.470	0	13.1	4	4.1	4	-1E+10	1	-1E+10	1	-1E+10	1	-1E+10	1	-1E+10	1	-1E+10	1
4901784	165	C	01/10/2020	10:50	-132.645	43.538	0	1170.60	0	3.1700	0	36.8120	8	29.324	0	1157.994	0	13.2	4	4.2	4	-1E+10	1	-1E+10	1	-1E+10	1	-1E+10	1	-1E+10	1	-1E+10	1
4901784	165	C	01/10/2020	10:50	-132.645	43.538	0	1175.30	0	3.1550	0	36.8150	8	29.328	0	1162.631	0	13.3	4	4.2	4	-1E+10	1	-1E+10	1	-1E+10	1	-1E+10	1	-1E+10	1	-1E+10	1
4901784	165	C	01/10/2020	10:50	-132.645	43.538	0	1180.10	0	3.1510	0	36.8160	8	29.330	0	1167.366	0	13.3	4	4.2	4	-1E+10	1	-1E+10	1	-1E+10	1	-1E+10	1	-1E+10	1	-1E+10	1
4901784	165	C	01/10/2020	10:50	-132.645	43.538	0	1185.00	0	3.1480	0	36.8160	8	29.330	0	1172.199	0	13.4	4	4.2	4	-1E+10	1	-1E+10	1	-1E+10	1	-1E+10	1	-1E+10	1	-1E+10	1
4901784	165	C	01/10/2020	10:50	-132.645	43.538	0	1189.90	0	3.1470	0	36.8160	8	29.330	0	1177.032	0	13.4	4	4.2	4	-1E+10	1	-1E+10	1	-1E+10	1	-1E+10	1	-1E+10	1	-1E+10	1
4901784	165	C	01/10/2020	10:50	-132.645	43.538	0	1194.90	0	3.1360	0	36.8170	8	29.332	0	1181.964	0	13.6	4	4.3	4	-1E+10	1	-1E+10	1	-1E+10	1	-1E+10	1	-1E+10	1	-1E+10	1
4901784	165	C	01/10/2020	10:50	-132.645	43.538	0	1200.00	0	3.1170	0	36.8200	8	29.336	0	1186.995	0	13.8	4	4.3	4	-1E+10	1	-1E+10	1	-1E+10	1	-1E+10	1	-1E+10	1	-1E+10	1
4901784	165	C	01/10/2020	10:50	-132.645	43.538	0	1204.90	0	3.0960	0	36.8230	8	29.341	0	1191.828	0	14.0	4	4.4	4	-1E+10	1	-1E+10	1	-1E+10	1	-1E+10	1	-1E+10	1	-1E+10	1
4901784	165	C	01/10/2020	10:50	-132.645	43.538	0	1209.90	0	3.0750	0	36.8260	8	29.345	0	1196.759	0	14.3	4	4.5	4	-1E+10	1	-1E+10	1	-1E+10	1	-1E+10	1	-1E+10	1	-1E+10	1
4901784	165	C	01/10/2020	10:50	-132.645	43.538	0	1215.00	0	3.0510	0	36.8300	8	29.351	0	1201.789	0	14.5	4	4.6	4	-1E+10	1	-1E+10	1	-1E+10	1	-1E+10	1	-1E+10	1	-1E+10	1
4901784	165	C	01/10/2020	10:50	-132.645	43.538	0	1220.10	0	3.0400	0	36.8320	8	29.353	0	1206.819	0	14.6	4	4.6	4	-1E+10	1	-1E+10	1	-1E+10	1	-1E+10	1	-1E+10	1	-1E+10	1
4901784	165	C	01/10/2020	10:50	-132.645	43.538	0	1225.20	0	3.0230	0	36.8340	8	29.357	0	1211.849	0	14.8	4	4.6	4	-1E+10	1	-1E+10	1	-1E+10	1	-1E+10	1	-1E+10	1	-1E+10	1
4901784	165	C	01/10/2020	10:50	-132.645	43.538	0	1230.40	0	3.0140	0	36.8360	8	29.359	0	1216.977	0	14.9	4	4.7	4	-1E+10	1	-1E+10	1	-1E+10	1	-1E+10	1	-1E+10	1	-1E+10	1
4901784	165	C	01/10/2020	10:50	-132.645	43.538	0	1235.70	0	3.0030	0	36.8370	8	29.361	0	1222.204	0	15.0	4	4.7	4	-1E+10	1	-1E+10	1	-1E+10	1	-1E+10	1	-1E+10	1	-1E+10	1
4901784	165	C	01/10/2020	10:50	-132.645	43.538	0	1240.10	0	2.9970	0	36.8390	8	29.363	0	1226.543	0	15.1	4	4.8	4	-1E+10	1	-1E+10	1	-1E+10	1	-1E+10	1	-1E+10	1	-1E+10	1
4901784	165	C	01/10/2020	10:50	-132.645	43.538	0	1244.60	0	2.9910	0	36.8390	8	29.364	0	1230.981	0	15.3	4	4.8	4	-1E+10	1	-1E+10	1	-1E+10	1	-1E+10	1	-1E+10	1	-1E+10	1
4901784	165	C	01/10/2020	10:50	-132.645	43.538	0	1250.00	0	2.9700	0	36.8420	8	29.368	0	1236.306	0	15.5	4	4.9	4	-1E+10	1	-1E+10	1	-1E+10	1	-1E+10	1	-1E+10	1	-1E+10	1
4901784	165	C	01/10/2020	10:50	-132.645	43.538	0	1255.40	0	2.9580	0	36.8450	8	29.372	0	1241.631	0	15.7	4	4.9	4	-1E+10	1	-1E+10	1	-1E+10	1	-1E+10	1	-1E+10	1	-1E+10	1
4901784	165	C	01/10/2020	10:50	-132.645	43.538	0	1260.50	0	2.9490	0	36.8460	8	29.374	0	1246.660	0	15.9	4	5.0	4	-1E+10	1	-1E+10	1	-1E+10	1	-1E+10	1	-1E+10	1	-1E+10	1
4901784	165	C	01/10/2020	10:50	-132.645	43.538	0	1265.50	0	2.9400	0	36.8470	8	29.375	0	1251.590	0	16.1	4	5.1	4	-1E+10	1	-1E+10	1	-1E+10	1	-1E+10	1	-1E+10	1	-1E+10	1
4901784	165	C	01/10/2020	10:50	-132.645	43.538	0	1270.60	0	2.9190	0	36.8510	8	29.381	0	1256.619	0	16.4	4	5.2	4	-1E+10	1	-1E+10	1	-1E+10	1	-1E+10	1	-1E+10	1	-1E+10	1
4901784	165	C	01/10/2020	10:50	-132.645	43.538	0	1275.80	0	2.9070	0	36.8530	8	29.383	0	1261.746	0	16.5	4	5.2	4	-1E+10	1	-1E+10	1	-1E+10	1	-1E+10	1	-1E+10	1	-1E+10	1
4901784	165	C	01/10/2020	10:50	-132.645	43.538	0	1280.10	0	2.9050	0	36.8540	8	29.384	0	1265.986	0	16.6	4	5.2	4	-1E+10	1	-1E+10	1	-1E+10	1	-1E+10	1	-1E+10	1	-1E+10	1
4901784	165	C	01/10/2020	10:50	-132.645	43.538	0	1284.50	0	2.8970	0	36.8550	8	29.386	0	1270.324	0	16.7	4	5.2	4	-1E+10	1	-1E+10	1	-1E+10	1	-1E+10	1	-1E+10	1	-1E+10	1
4901784	165	C	01/10/2020	10:50	-132.645	43.538	0	1289.70	0	2.8890	0	36.8560	8	29.388	0	1275.451	0	16.9	4	5.3	4	-1E+10	1	-1E+10	1	-1E+10	1	-1E+10	1	-1E+10	1	-1E+10	1
4901784	165	C	01/10/2020	10:50	-132.645	43.538	0	1295.00	0	2.8800	0	36.8580	8	29.390	0	1280.676	0	17.1	4	5.4	4	-1E+10	1	-1E+10	1	-1E+10	1	-1E+10	1	-1E+10	1	-1E+10	1
4901784	165	C	01/10/2020	10:50	-132.645	43.538	0	1300.20	0	2.8670	0	36.8600	8	29.393	0	1285.803	0	17.3	4	5.4	4	-1E+10	1	-1E+10	1	-1E+10	1	-1E+10	1	-1E+10	1	-1E+10	1
4901784	165	C	01/10/2020	10:50	-132.645	43.538	0	1305.50	0	2.8590	0	36.8610	8	29.395	0	1291.028	0	17.4	4	5.4	4	-1E+10	1	-1E+10	1	-1E+10	1	-1E+10	1	-1E+10	1	-1E+10	1
4901784	165	C	01/10/2020	10:50	-132.645	43.538	0	1310.00	0	2.8540	0	36.8620	8	29.396	0	1295.464	0	17.4	4	5.5	4	-1E+10	1	-1E+10	1	-1E+10	1	-1E+10	1	-1E+10	1	-1E+10	1
4901784	165	C	01/10/2020	10:50	-132.645	43.538	0	1314.50	0	2.8540	0	36.8620	8	29.396	0	1299.900	0	17.5	4	5.5	4	-1E+10	1	-1E+10	1	-1E+10	1	-1E+10	1	-1E+10	1	-1E+10	1
4901784	165	C	01/10/2020	10:50	-132.645	43.538	0	1319.90	0	2.8480	0	36.8640	8	29.398	0	1305.224	0	17.7	4	5.5	4	-1E+10	1	-1E+10	1	-1E+10	1	-1E+10	1	-1E+10	1	-1E+10	1
4901784	165	C	01/10/2020	10:50	-132.645	43.538	0	1325.30	0	2.8440	0	36.8650	8	29.399	0	1310.547	0	18.0	4	5.6	4	-1E+10	1	-1E+10	1	-1E+10	1	-1E+10	1	-1E+10	1	-1E+10	1
4901784	165	C	01/10/2020	10:50	-132.645	43.538	0	1330.40	0	2.8270	0	36.8680	8	29.403	0	1315.574	0	18.2	4	5.7	4	-1E+10	1	-1E+10	1	-1E+10	1	-1E+10	1	-1E+10	1	-1E+10	1
4901784	165	C	01/10/2020	10:50	-132.645	43.538	0	1334.60	0	2.8220	0	36.8680	8	29.404	0	1319.714	0	18.4	4	5.7	4	-1E+10	1	-1E+10	1	-1E+10	1	-1E+10	1	-1E+10	1	-1E+10	1
4901784	165	C	01/10/2020	10:50	-132.645	43.538	0	1340.10	0	2.8050	0	36.8710	8	29.408	0	1325.136	0	18.6	4	5.8	4	-1E+10	1	-1E+10	1	-1E+10	1	-1E+10	1	-1E+10	1	-1E+10	1
4901784	165	C	01/10/2020	10:50	-132.645	43.538	0	1345.70	0	2.7980	0	36.8730	8	29.410	0	1330.655	0	18.8	4	5.9	4	-1E+10	1	-1E+10	1	-1E+10	1	-1E+10	1	-1E+10	1	-1E+10	1
4901784	165	C	01/10/2020	10:50	-132.645	43.538	0	1350.50	0	2.7950	0	36.8740	8	29.411	0	1335.386	0	18.8	4	5.9	4	-1E+10	1	-1E+10	1	-1E+10	1	-1E+10	1	-1E+10	1	-1E+10	1
4901784	165	C	01/10/2020	10:50	-132.645	43.538	0	1355.30	0	2.7930	0	36.8740	8	29.412	0	1340.118	0	18.9	4	5.9	4	-1E+10	1	-1E+10	1	-1E+10	1	-1E+10	1	-1E+10	1	-1E+10	1
4901784	165	C	01/10/2020	10:50	-132.645	43.538	0	1360.20	0	2.7930	0	36.8750	8	29.412	0	1344.947	0	19.0	4	5.9	4	-1E+10	1	-1E+10	1	-1E+10	1	-1E+10	1	-1E+10	1	-1E+10	1
4901784	165	C	01/10/2020	10:50	-132.645	43.538	0	1365.00	0	2.7860	0	36.8760	8	29.414	0	1349.678	0	19.1	4	6.0	4	-1E+10	1	-1E+10	1	-1E+10	1	-1E+10	1	-1E+10	1	-1E+10	1
4901784	165	C	01/10/2020	10:50	-132.645	43.538	0	1369.90	0	2.7810	0	36.8770	8	29.415	0	1354.507	0	19.2	4	6.0	4	-1E+10	1	-1E+10	1	-1E+10	1	-1E+10	1	-1E+10	1	-1E+10	1
4901784	165	C	01/10/2020	10:50	-132.645	43.538	0	1374.90	0	2.7790	0	36.8780	8	29.416	0	1359.435	0	19.3	4	6.0	4	-1E+10	1	-1E+10	1	-1E+10	1	-1E+10	1	-1E+10	1	-1E+10	1
4901784	165	C	01/10/2020	10:50	-132.645	43.538	0	1379.90	0	2.7740	0	36.8780	8	29.417	0	1364.362	0	19.5	4	6.1	4	-1E+10	1	-1E+10	1	-1E+10	1	-1E+10	1	-1E+10	1	-1E+10	1
4901784	165	C	01/10/2020	10:50	-132.645	43.538	0	1384.90	0	2.7700	0	36.8800	8	29.419	0	1369.290	0	19.6	4	6.1	4	-1E+10	1	-1E+10	1	-1E+10	1	-1E+10	1	-1E+10	1	-1E+10	1
4901784	165	C	01/10/2020	10:50	-132.645	43.538	0	1389.90	0	2.7680	0	36.8800	8	29.419	0	1374.217	0	19.7	4	6.2	4	-1E+10	1	-1E+10	1	-1E+10	1	-1E+10	1	-1E+10	1	-1E+10	1
4901784	165	C	01/10/2020	10:50	-132.645	43.538	0	1395.00	0	2.7610	0	36.8810	8	29.420	0	1379.243	0	20.0	4	6.3	4	-1E+10	1	-1E+10	1	-1E+10	1	-1E+10	1	-1E+10	1	-1E+10	1
4901784	165	C	01/10/2020	10:50	-132.645	43.538	0	1400.10	0	2.7420	0	36.8840	8	29.425	0	1384.269	0	20.4	4	6.4	4	-1E+10	1	-1E+10	1	-1E+10	1	-1E+10	1	-1E+10	1	-1E+10	1
4901784	165	C	01/10/2020	10:50	-132.645	43.538	0	1405.10	0	2.7320	0	36.8860	8	29.427	0	1389.196	0	20.6	4	6.4	4	-1E+10	1	-1E+10	1	-1E+10	1	-1E+10	1	-1E+10	1	-1E+10	1
4901784	165	C	01/10/2020	10:50	-132.645	43.538	0	1410.30	0	2.7280	0	36.8870	8	29.428	0	1394.320	0	20.7	4	6.5	4	-1E+10	1	-1E+10	1	-1E+10	1	-1E+10	1	-1E+10	1	-1E+10	1
4901784	165	C	01/10/2020	10:50	-132.645	43.538	0	1415.50	0	2.7220	0	36.8880	8	29.430	0	1399.444	0	21.0	4	6.6	4	-1E+10	1	-1E+10	1	-1E+10	1	-1E+10	1	-1E+10	1	-1E+10	1
4901784	165	C	01/10/2020	10:50	-132.645	43.538	0	1420.70	0	2.7170	0	36.8890	8	29.431	0	1404.567	0	21.2	4	6.6	4	-1E+10	1	-1E+10	1	-1E+10	1	-1E+10	1	-1E+10	1	-1E+10	1
4901784	165	C	01/10/2020	10:50	-132.645	43.538	0	1425.70	0	2.7080	0	36.8900	8	29.433	0	1409.494	0	21.5	4	6.7	4	-1E+10	1	-1E+10	1	-1E+10	1	-1E+10	1	-1E+10	1	-1E+10	1
4901784	165	C	01/10/2020	10:50	-132.645	43.538	0	1430.70	0	2.6980	0	36.8920	8	29.435	0	1414.420	0	21.6	4	6.7	4	-1E+10	1	-1E+10	1	-1E+10	1	-1E+10	1	-1E+10	1	-1E+10	1
4901784	165	C	01/10/2020	10:50	-132.645	43.538	0	1435.80	0	2.6980	0	36.8920	8	29.435	0	1419.445	0	21.7	4	6.8	4	-1E+10	1	-1E+10	1	-1E+10	1	-1E+10	1	-1E+10	1	-1E+10	1
4901784	165	C	01/10/2020	10:50	-132.645	43.538	0	1440.80	0	2.6930	0	36.8930	8	29.437	0	1424.371	0	22.0	4	6.9	4	-1E+10	1	-1E+10	1	-1E+10	1	-1E+10	1	-1E+10	1	-1E+10	1
4901784	165	C	01/10/2020	10:50	-132.645	43.538	0	1445.00	0	2.6780	0	36.8940	8	29.439	0	1428.509	0	22.4	4	7.0	4	-1E+10	1	-1E+10	1	-1E+10	1	-1E+10	1	-1E+10	1	-1E+10	1
4901784	165	C	01/10/2020	10:50	-132.645	43.538	0	1449.20	0	2.6610	0	36.8980	8	29.444	0	1432.647	0	22.8	4	7.1	4	-1E+10	1	-1E+10	1	-1E+10	1	-1E+10	1	-1E+10	1	-1E+10	1
4901784	165	C	01/10/2020	10:50	-132.645	43.538	0	1454.40	0	2.6480	0	36.9000	8	29.447	0	1437.770	0	23.1	4	7.2	4	-1E+10	1	-1E+10	1	-1E+10	1	-1E+10	1	-1E+10	1	-1E+10	1
4901784	165	C	01/10/2020	10:50	-132.645	43.538	0	1459.50	0	2.6410	0	36.9010	8	29.448	0	1442.794	0	23.2	4	7.2	4	-1E+10	1	-1E+10	1	-1E+10	1	-1E+10	1	-1E+10	1	-1E+10	1
4901784	165	C	01/10/2020	10:50	-132.645	43.538	0	1464.70	0	2.6370	0	36.9020	8	29.449	0	1447.917	0	23.5	4	7.3	4	-1E+10	1	-1E+10	1	-1E+10	1	-1E+10	1	-1E+10	1	-1E+10	1
4901784	165	C	01/10/2020	10:50	-132.645	43.538	0	1470.00	0	2.6240	0	36.9040	8	29.452	0	1453.138	0	23.9	4	7.5	4	-1E+10	1	-1E+10	1	-1E+10	1	-1E+10	1	-1E+10	1	-1E+10	1
4901784	165	C	01/10/2020	10:50	-132.645	43.538	0	1475.20	0	2.6100	0	36.9060	8	29.455	0	1458.260	0	24.2	4	7.5	4	-1E+10	1	-1E+10	1	-1E+10	1	-1E+10	1	-1E+10	1	-1E+10	1
4901784	165	C	01/10/2020	10:50	-132.645	43.538	0	1480.30	0	2.6080	0	36.9070	8	29.456	0	1463.284	0	24.3	4	7.6	4	-1E+10	1	-1E+10	1	-1E+10	1	-1E+10	1	-1E+10	1	-1E+10	1
4901784	165	C	01/10/2020	10:50	-132.645	43.538	0	1485.50	0	2.6050	0	36.9070	8	29.456	0	1468.406	0	24.5	4	7.6	4	-1E+10	1	-1E+10	1	-1E+10	1	-1E+10	1	-1E+10	1	-1E+10	1
4901784	165	C	01/10/2020	10:50	-132.645	43.538	0	1490.70	0	2.5950	0	36.9090	8	29.459	0	1473.528	0	24.9	4	7.8	4	-1E+10	1	-1E+10	1	-1E+10	1	-1E+10	1	-1E+10	1	-1E+10	1
4901784	165	C	01/10/2020	10:50	-132.645	43.538	0	1495.00	0	2.5850	0	36.9100	8	29.461	0	1477.764	0	25.2	4	7.9	4	-1E+10	1	-1E+10	1	-1E+10	1	-1E+10	1	-1E+10	1	-1E+10	1
4901784	165	C	01/10/2020	10:50	-132.645	43.538	0	1499.40	0	2.5740	0	36.9120	8	29.463	0	1482.098	0	25.6	4	8.0	4	-1E+10	1	-1E+10	1	-1E+10	1	-1E+10	1	-1E+10	1	-1E+10	1
4901784	165	C	01/10/2020	10:50	-132.645	43.538	0	1504.70	0	2.5630	0	36.9130	8	29.465	0	1487.318	0	26.0	4	8.1	4	-1E+10	1	-1E+10	1	-1E+10	1	-1E+10	1	-1E+10	1	-1E+10	1
4901784	165	C	01/10/2020	10:50	-132.645	43.538	0	1510.00	0	2.5510	0	36.9150	8	29.468	0	1492.538	0	26.5	4	8.2	4	-1E+10	1	-1E+10	1	-1E+10	1	-1E+10	1	-1E+10	1	-1E+10	1
4901784	165	C	01/10/2020	10:50	-132.645	43.538	0	1515.50	0	2.5430	0	36.9170	8	29.470	0	1497.955	0	26.7	4	8.3	4	-1E+10	1	-1E+10	1	-1E+10	1	-1E+10	1	-1E+10	1	-1E+10	1
4901784	165	C	01/10/2020	10:50	-132.645	43.538	0	1520.00	0	2.5400	0	36.9180	8	29.471	0	1502.387	0	27.0	4	8.4	4	-1E+10	1	-1E+10	1	-1E+10	1	-1E+10	1	-1E+10	1	-1E+10	1
4901784	165	C	01/10/2020	10:50	-132.645	43.538	0	1524.50	0	2.5320	0	36.9190	8	29.473	0	1506.818	0	27.4	4	8.5	4	-1E+10	1	-1E+10	1	-1E+10	1	-1E+10	1	-1E+10	1	-1E+10	1
4901784	165	C	01/10/2020	10:50	-132.645	43.538	0	1530.00	0	2.5110	0	36.9220	8	29.477	0	1512.235	0	28.0	4	8.7	4	-1E+10	1	-1E+10	1	-1E+10	1	-1E+10	1	-1E+10	1	-1E+10	1
4901784	165	C	01/10/2020	10:50	-132.645	43.538	0	1535.40	0	2.4990	0	36.9240	8	29.480	0	1517.553	0	28.3	4	8.8	4	-1E+10	1	-1E+10	1	-1E+10	1	-1E+10	1	-1E+10	1	-1E+10	1
4901784	165	C	01/10/2020	10:50	-132.645	43.538	0	1539.90	0	2.4880	0	36.9250	8	29.482	0	1521.985	0	28.6	4	8.9	4	-1E+10	1	-1E+10	1	-1E+10	1	-1E+10	1	-1E+10	1	-1E+10	1
4901784	165	C	01/10/2020	10:50	-132.645	43.538	0	1544.40	0	2.4760	0	36.9270	8	29.484	0	1526.416	0	29.0	4	9.0	4	-1E+10	1	-1E+10	1	-1E+10	1	-1E+10	1	-1E+10	1	-1E+10	1
4901784	165	C	01/10/2020	10:50	-132.645	43.538	0	1549.70	0	2.4640	0	36.9290	8	29.487	0	1531.635	0	29.4	4	9.1	4	-1E+10	1	-1E+10	1	-1E+10	1	-1E+10	1	-1E+10	1	-1E+10	1
4901784	165	C	01/10/2020	10:50	-132.645	43.538	0	1555.00	0	2.4510	0	36.9310	8	29.490	0	1536.854	0	29.9	4	9.3	4	-1E+10	1	-1E+10	1	-1E+10	1	-1E+10	1	-1E+10	1	-1E+10	1
4901784	165	C	01/10/2020	10:50	-132.645	43.538	0	1560.30	0	2.4380	0	36.9330	8	29.493	0	1542.073	0	30.2	4	9.4	4	-1E+10	1	-1E+10	1	-1E+10	1	-1E+10	1	-1E+10	1	-1E+10	1
4901784	165	C	01/10/2020	10:50	-132.645	43.538	0	1564.90	0	2.4290	0	36.9350	8	29.495	0	1546.602	0	30.4	4	9.4	4	-1E+10	1	-1E+10	1	-1E+10	1	-1E+10	1	-1E+10	1	-1E+10	1
4901784	165	C	01/10/2020	10:50	-132.645	43.538	0	1569.40	0	2.4270	0	36.9350	8	29.495	0	1551.033	0	30.6	4	9.5	4	-1E+10	1	-1E+10	1	-1E+10	1	-1E+10	1	-1E+10	1	-1E+10	1
4901784	165	C	01/10/2020	10:50	-132.645	43.538	0	1574.90	0	2.4250	0	36.9350	8	29.496	0	1556.449	0	30.7	4	9.5	4	-1E+10	1	-1E+10	1	-1E+10	1	-1E+10	1	-1E+10	1	-1E+10	1
4901784	165	C	01/10/2020	10:50	-132.645	43.538	0	1580.10	0	2.4180	0	36.9370	8	29.498	0	1561.568	0	31.0	4	9.6	4	-1E+10	1	-1E+10	1	-1E+10	1	-1E+10	1	-1E+10	1	-1E+10	1
4901784	165	C	01/10/2020	10:50	-132.645	43.538	0	1585.40	0	2.4120	0	36.9370	8	29.498	0	1566.787	0	31.4	4	9.7	4	-1E+10	1	-1E+10	1	-1E+10	1	-1E+10	1	-1E+10	1	-1E+10	1
4901784	165	C	01/10/2020	10:50	-132.645	43.538	0	1590.10	0	2.4020	0	36.9390	8	29.501	0	1571.414	0	31.8	4	9.9	4	-1E+10	1	-1E+10	1	-1E+10	1	-1E+10	1	-1E+10	1	-1E+10	1
4901784	165	C	01/10/2020	10:50	-132.645	43.538	0	1594.80	0	2.3910	0	36.9410	8	29.504	0	1576.041	0	32.2	4	10.0	4	-1E+10	1	-1E+10	1	-1E+10	1	-1E+10	1	-1E+10	1	-1E+10	1
4901784	165	C	01/10/2020	10:50	-132.645	43.538	0	1599.60	0	2.3860	0	36.9410	8	29.504	0	1580.767	0	32.4	4	10.1	4	-1E+10	1	-1E+10	1	-1E+10	1	-1E+10	1	-1E+10	1	-1E+10	1
4901784	165	C	01/10/2020	10:50	-132.645	43.538	0	1604.50	0	2.3790	0	36.9420	8	29.506	0	1585.591	0	32.8	4	10.2	4	-1E+10	1	-1E+10	1	-1E+10	1	-1E+10	1	-1E+10	1	-1E+10	1
4901784	165	C	01/10/2020	10:50	-132.645	43.538	0	1609.50	0	2.3680	0	36.9440	8	29.508	0	1590.513	0	33.2	4	10.3	4	-1E+10	1	-1E+10	1	-1E+10	1	-1E+10	1	-1E+10	1	-1E+10	1
4901784	165	C	01/10/2020	10:50	-132.645	43.538	0	1614.60	0	2.3590	0	36.9460	8	29.511	0	1595.534	0	33.5	4	10.4	4	-1E+10	1	-1E+10	1	-1E+10	1	-1E+10	1	-1E+10	1	-1E+10	1
4901784	165	C	01/10/2020	10:50	-132.645	43.538	0	1619.60	0	2.3520	0	36.9470	8	29.512	0	1600.456	0	33.7	4	10.4	4	-1E+10	1	-1E+10	1	-1E+10	1	-1E+10	1	-1E+10	1	-1E+10	1
4901784	165	C	01/10/2020	10:50	-132.645	43.538	0	1624.70	0	2.3490	0	36.9480	8	29.513	0	1605.476	0	33.9	4	10.5	4	-1E+10	1	-1E+10	1	-1E+10	1	-1E+10	1	-1E+10	1	-1E+10	1
4901784	165	C	01/10/2020	10:50	-132.645	43.538	0	1629.90	0	2.3450	0	36.9480	8	29.513	0	1610.595	0	34.1	4	10.6	4	-1E+10	1	-1E+10	1	-1E+10	1	-1E+10	1	-1E+10	1	-1E+10	1
4901784	165	C	01/10/2020	10:50	-132.645	43.538	0	1635.00	0	2.3400	0	36.9490	8	29.515	0	1615.615	0	34.4	4	10.7	4	-1E+10	1	-1E+10	1	-1E+10	1	-1E+10	1	-1E+10	1	-1E+10	1
4901784	165	C	01/10/2020	10:50	-132.645	43.538	0	1640.00	0	2.3310	0	36.9500	8	29.516	0	1620.537	0	34.8	4	10.8	4	-1E+10	1	-1E+10	1	-1E+10	1	-1E+10	1	-1E+10	1	-1E+10	1
4901784	165	C	01/10/2020	10:50	-132.645	43.538	0	1645.00	0	2.3230	0	36.9510	8	29.518	0	1625.458	0	35.3	4	10.9	4	-1E+10	1	-1E+10	1	-1E+10	1	-1E+10	1	-1E+10	1	-1E+10	1
4901784	165	C	01/10/2020	10:50	-132.645	43.538	0	1650.20	0	2.3080	0	36.9540	8	29.522	0	1630.577	0	35.7	4	11.1	4	-1E+10	1	-1E+10	1	-1E+10	1	-1E+10	1	-1E+10	1	-1E+10	1
4901784	165	C	01/10/2020	10:50	-132.645	43.538	0	1655.40	0	2.3040	0	36.9550	8	29.523	0	1635.695	0	36.1	4	11.2	4	-1E+10	1	-1E+10	1	-1E+10	1	-1E+10	1	-1E+10	1	-1E+10	1
4901784	165	C	01/10/2020	10:50	-132.645	43.538	0	1660.60	0	2.2960	0	36.9560	8	29.524	0	1640.813	0	36.4	4	11.2	4	-1E+10	1	-1E+10	1	-1E+10	1	-1E+10	1	-1E+10	1	-1E+10	1
4901784	165	C	01/10/2020	10:50	-132.645	43.538	0	1665.70	0	2.2900	0	36.9570	8	29.526	0	1645.832	0	36.6	4	11.3	4	-1E+10	1	-1E+10	1	-1E+10	1	-1E+10	1	-1E+10	1	-1E+10	1
4901784	165	C	01/10/2020	10:50	-132.645	43.538	0	1670.00	0	2.2890	0	36.9580	8	29.527	0	1650.064	0	36.8	4	11.4	4	-1E+10	1	-1E+10	1	-1E+10	1	-1E+10	1	-1E+10	1	-1E+10	1
4901784	165	C	01/10/2020	10:50	-132.645	43.538	0	1674.40	0	2.2830	0	36.9580	8	29.527	0	1654.394	0	37.2	4	11.5	4	-1E+10	1	-1E+10	1	-1E+10	1	-1E+10	1	-1E+10	1	-1E+10	1
4901784	165	C	01/10/2020	10:50	-132.645	43.538	0	1679.70	0	2.2730	0	36.9590	8	29.529	0	1659.610	0	37.6	4	11.6	4	-1E+10	1	-1E+10	1	-1E+10	1	-1E+10	1	-1E+10	1	-1E+10	1
4901784	165	C	01/10/2020	10:50	-132.645	43.538	0	1685.00	0	2.2610	0	36.9610	8	29.532	0	1664.826	0	38.3	4	11.8	4	-1E+10	1	-1E+10	1	-1E+10	1	-1E+10	1	-1E+10	1	-1E+10	1
4901784	165	C	01/10/2020	10:50	-132.645	43.538	0	1690.30	0	2.2480	0	36.9640	8	29.535	0	1670.042	0	38.9	4	12.0	4	-1E+10	1	-1E+10	1	-1E+10	1	-1E+10	1	-1E+10	1	-1E+10	1
4901784	165	C	01/10/2020	10:50	-132.645	43.538	0	1694.80	0	2.2390	0	36.9650	8	29.537	0	1674.470	0	39.4	4	12.2	4	-1E+10	1	-1E+10	1	-1E+10	1	-1E+10	1	-1E+10	1	-1E+10	1
4901784	165	C	01/10/2020	10:50	-132.645	43.538	0	1699.30	0	2.2300	0	36.9660	8	29.538	0	1678.898	0	39.9	4	12.3	4	-1E+10	1	-1E+10	1	-1E+10	1	-1E+10	1	-1E+10	1	-1E+10	1
4901784	165	C	01/10/2020	10:50	-132.645	43.538	0	1704.70	0	2.2120	0	36.9690	8	29.542	0	1684.212	0	40.5	4	12.5	4	-1E+10	1	-1E+10	1	-1E+10	1	-1E+10	1	-1E+10	1	-1E+10	1
4901784	165	C	01/10/2020	10:50	-132.645	43.538	0	1710.00	0	2.2080	0	36.9700	8	29.544	0	1689.427	0	40.9	4	12.6	4	-1E+10	1	-1E+10	1	-1E+10	1	-1E+10	1	-1E+10	1	-1E+10	1
4901784	165	C	01/10/2020	10:50	-132.645	43.538	0	1715.40	0	2.2000	0	36.9710	8	29.545	0	1694.741	0	41.5	4	12.8	4	-1E+10	1	-1E+10	1	-1E+10	1	-1E+10	1	-1E+10	1	-1E+10	1
4901784	165	C	01/10/2020	10:50	-132.645	43.538	0	1720.00	0	2.1910	0	36.9730	8	29.548	0	1699.267	0	41.9	4	12.9	4	-1E+10	1	-1E+10	1	-1E+10	1	-1E+10	1	-1E+10	1	-1E+10	1
4901784	165	C	01/10/2020	10:50	-132.645	43.538	0	1724.50	0	2.1850	0	36.9730	8	29.548	0	1703.695	0	42.4	4	13.1	4	-1E+10	1	-1E+10	1	-1E+10	1	-1E+10	1	-1E+10	1	-1E+10	1
4901784	165	C	01/10/2020	10:50	-132.645	43.538	0	1730.10	0	2.1710	0	36.9760	8	29.552	0	1709.205	0	43.1	4	13.3	4	-1E+10	1	-1E+10	1	-1E+10	1	-1E+10	1	-1E+10	1	-1E+10	1
4901784	165	C	01/10/2020	10:50	-132.645	43.538	0	1735.60	0	2.1610	0	36.9770	8	29.553	0	1714.616	0	43.5	4	13.4	4	-1E+10	1	-1E+10	1	-1E+10	1	-1E+10	1	-1E+10	1	-1E+10	1
4901784	165	C	01/10/2020	10:50	-132.645	43.538	0	1740.10	0	2.1530	0	36.9790	8	29.556	0	1719.043	0	43.7	4	13.5	4	-1E+10	1	-1E+10	1	-1E+10	1	-1E+10	1	-1E+10	1	-1E+10	1
4901784	165	C	01/10/2020	10:50	-132.645	43.538	0	1744.80	0	2.1510	0	36.9790	8	29.556	0	1723.667	0	43.8	4	13.5	4	-1E+10	1	-1E+10	1	-1E+10	1	-1E+10	1	-1E+10	1	-1E+10	1
4901784	165	C	01/10/2020	10:50	-132.645	43.538	0	1750.40	0	2.1480	0	36.9800	8	29.557	0	1729.177	0	44.0	4	13.6	4	-1E+10	1	-1E+10	1	-1E+10	1	-1E+10	1	-1E+10	1	-1E+10	1
4901784	165	C	01/10/2020	10:50	-132.645	43.538	0	1755.10	0	2.1480	0	36.9800	8	29.557	0	1733.801	0	44.3	4	13.6	4	-1E+10	1	-1E+10	1	-1E+10	1	-1E+10	1	-1E+10	1	-1E+10	1
4901784	165	C	01/10/2020	10:50	-132.645	43.538	0	1759.80	0	2.1450	0	36.9800	8	29.557	0	1738.424	0	44.7	4	13.8	4	-1E+10	1	-1E+10	1	-1E+10	1	-1E+10	1	-1E+10	1	-1E+10	1
4901784	165	C	01/10/2020	10:50	-132.645	43.538	0	1765.40	0	2.1280	0	36.9830	8	29.561	0	1743.933	0	45.5	4	14.0	4	-1E+10	1	-1E+10	1	-1E+10	1	-1E+10	1	-1E+10	1	-1E+10	1
4901784	165	C	01/10/2020	10:50	-132.645	43.538	0	1769.60	0	2.1170	0	36.9840	8	29.563	0	1748.065	0	46.1	4	14.2	4	-1E+10	1	-1E+10	1	-1E+10	1	-1E+10	1	-1E+10	1	-1E+10	1
4901784	165	C	01/10/2020	10:50	-132.645	43.538	0	1774.50	0	2.1030	0	36.9870	8	29.567	0	1752.885	0	46.4	4	14.3	4	-1E+10	1	-1E+10	1	-1E+10	1	-1E+10	1	-1E+10	1	-1E+10	1
4901784	165	C	01/10/2020	10:50	-132.645	43.538	0	1779.50	0	2.1030	0	36.9870	8	29.567	0	1757.804	0	46.5	4	14.3	4	-1E+10	1	-1E+10	1	-1E+10	1	-1E+10	1	-1E+10	1	-1E+10	1
4901784	165	C	01/10/2020	10:50	-132.645	43.538	0	1784.40	0	2.1030	0	36.9870	8	29.567	0	1762.623	0	46.6	4	14.4	4	-1E+10	1	-1E+10	1	-1E+10	1	-1E+10	1	-1E+10	1	-1E+10	1
4901784	165	C	01/10/2020	10:50	-132.645	43.538	0	1789.40	0	2.0990	0	36.9880	8	29.568	0	1767.542	0	47.0	4	14.5	4	-1E+10	1	-1E+10	1	-1E+10	1	-1E+10	1	-1E+10	1	-1E+10	1
4901784	165	C	01/10/2020	10:50	-132.645	43.538	0	1794.40	0	2.0950	0	36.9890	8	29.569	0	1772.460	0	47.2	4	14.5	4	-1E+10	1	-1E+10	1	-1E+10	1	-1E+10	1	-1E+10	1	-1E+10	1
4901784	165	C	01/10/2020	10:50	-132.645	43.538	0	1799.40	0	2.0900	0	36.9890	8	29.570	0	1777.378	0	47.6	4	14.7	4	-1E+10	1	-1E+10	1	-1E+10	1	-1E+10	1	-1E+10	1	-1E+10	1
4901784	165	C	01/10/2020	10:50	-132.645	43.538	0	1804.40	0	2.0810	0	36.9910	8	29.572	0	1782.296	0	48.3	4	14.8	4	-1E+10	1	-1E+10	1	-1E+10	1	-1E+10	1	-1E+10	1	-1E+10	1
4901784	165	C	01/10/2020	10:50	-132.645	43.538	0	1809.40	0	2.0750	0	36.9930	8	29.574	0	1787.213	0	48.5	4	14.9	4	-1E+10	1	-1E+10	1	-1E+10	1	-1E+10	1	-1E+10	1	-1E+10	1
4901784	165	C	01/10/2020	10:50	-132.645	43.538	0	1814.50	0	2.0720	0	36.9930	8	29.574	0	1792.229	0	48.7	4	15.0	4	-1E+10	1	-1E+10	1	-1E+10	1	-1E+10	1	-1E+10	1	-1E+10	1
4901784	165	C	01/10/2020	10:50	-132.645	43.538	0	1819.70	0	2.0690	0	36.9940	8	29.575	0	1797.343	0	48.9	4	15.0	4	-1E+10	1	-1E+10	1	-1E+10	1	-1E+10	1	-1E+10	1	-1E+10	1
4901784	165	C	01/10/2020	10:50	-132.645	43.538	0	1824.80	0	2.0670	0	36.9940	8	29.576	0	1802.359	0	49.0	4	15.1	4	-1E+10	1	-1E+10	1	-1E+10	1	-1E+10	1	-1E+10	1	-1E+10	1
4901784	165	C	01/10/2020	10:50	-132.645	43.538	0	1830.10	0	2.0640	0	36.9950	8	29.577	0	1807.571	0	49.2	4	15.1	4	-1E+10	1	-1E+10	1	-1E+10	1	-1E+10	1	-1E+10	1	-1E+10	1
4901784	165	C	01/10/2020	10:50	-132.645	43.538	0	1835.40	0	2.0630	0	36.9960	8	29.578	0	1812.784	0	49.3	4	15.2	4	-1E+10	1	-1E+10	1	-1E+10	1	-1E+10	1	-1E+10	1	-1E+10	1
4901784	165	C	01/10/2020	10:50	-132.645	43.538	0	1840.50	0	2.0640	0	36.9950	8	29.577	0	1817.799	0	49.5	4	15.2	4	-1E+10	1	-1E+10	1	-1E+10	1	-1E+10	1	-1E+10	1	-1E+10	1
4901784	165	C	01/10/2020	10:50	-132.645	43.538	0	1845.40	0	2.0550	0	36.9960	8	29.578	0	1822.618	0	49.9	4	15.4	4	-1E+10	1	-1E+10	1	-1E+10	1	-1E+10	1	-1E+10	1	-1E+10	1
4901784	165	C	01/10/2020	10:50	-132.645	43.538	0	1850.40	0	2.0490	0	36.9980	8	29.581	0	1827.534	0	50.2	4	15.4	4	-1E+10	1	-1E+10	1	-1E+10	1	-1E+10	1	-1E+10	1	-1E+10	1
4901784	165	C	01/10/2020	10:50	-132.645	43.538	0	1855.40	0	2.0450	0	36.9980	8	29.581	0	1832.451	0	50.4	4	15.5	4	-1E+10	1	-1E+10	1	-1E+10	1	-1E+10	1	-1E+10	1	-1E+10	1
4901784	165	C	01/10/2020	10:50	-132.645	43.538	0	1860.60	0	2.0420	0	36.9980	8	29.581	0	1837.564	0	50.8	4	15.6	4	-1E+10	1	-1E+10	1	-1E+10	1	-1E+10	1	-1E+10	1	-1E+10	1
4901784	165	C	01/10/2020	10:50	-132.645	43.538	0	1865.00	0	2.0330	0	37.0010	8	29.584	0	1841.891	0	51.2	4	15.7	4	-1E+10	1	-1E+10	1	-1E+10	1	-1E+10	1	-1E+10	1	-1E+10	1
4901784	165	C	01/10/2020	10:50	-132.645	43.538	0	1869.40	0	2.0300	0	37.0010	8	29.585	0	1846.217	0	51.5	4	15.8	4	-1E+10	1	-1E+10	1	-1E+10	1	-1E+10	1	-1E+10	1	-1E+10	1
4901784	165	C	01/10/2020	10:50	-132.645	43.538	0	1874.70	0	2.0200	0	37.0020	8	29.586	0	1851.428	0	52.0	4	16.0	4	-1E+10	1	-1E+10	1	-1E+10	1	-1E+10	1	-1E+10	1	-1E+10	1
4901784	165	C	01/10/2020	10:50	-132.645	43.538	0	1880.00	0	2.0130	0	37.0030	8	29.588	0	1856.639	0	52.4	4	16.1	4	-1E+10	1	-1E+10	1	-1E+10	1	-1E+10	1	-1E+10	1	-1E+10	1
4901784	165	C	01/10/2020	10:50	-132.645	43.538	0	1885.40	0	2.0030	0	37.0050	8	29.590	0	1861.949	0	52.9	4	16.3	4	-1E+10	1	-1E+10	1	-1E+10	1	-1E+10	1	-1E+10	1	-1E+10	1
4901784	165	C	01/10/2020	10:50	-132.645	43.538	0	1890.40	0	1.9990	0	37.0060	8	29.592	0	1866.865	0	53.3	4	16.4	4	-1E+10	1	-1E+10	1	-1E+10	1	-1E+10	1	-1E+10	1	-1E+10	1
4901784	165	C	01/10/2020	10:50	-132.645	43.538	0	1894.50	0	1.9940	0	37.0060	8	29.592	0	1870.895	0	53.7	4	16.5	4	-1E+10	1	-1E+10	1	-1E+10	1	-1E+10	1	-1E+10	1	-1E+10	1
4901784	165	C	01/10/2020	10:50	-132.645	43.538	0	1900.00	0	1.9850	0	37.0080	8	29.594	0	1876.303	0	54.2	4	16.7	4	-1E+10	1	-1E+10	1	-1E+10	1	-1E+10	1	-1E+10	1	-1E+10	1
4901784	165	C	01/10/2020	10:50	-132.645	43.538	0	1905.60	0	1.9780	0	37.0090	8	29.596	0	1881.808	0	54.8	4	16.8	4	-1E+10	1	-1E+10	1	-1E+10	1	-1E+10	1	-1E+10	1	-1E+10	1
4901784	165	C	01/10/2020	10:50	-132.645	43.538	0	1910.40	0	1.9650	0	37.0110	8	29.598	0	1886.527	0	55.3	4	17.0	4	-1E+10	1	-1E+10	1	-1E+10	1	-1E+10	1	-1E+10	1	-1E+10	1
4901784	165	C	01/10/2020	10:50	-132.645	43.538	0	1915.30	0	1.9620	0	37.0120	8	29.600	0	1891.344	0	55.5	4	17.0	4	-1E+10	1	-1E+10	1	-1E+10	1	-1E+10	1	-1E+10	1	-1E+10	1
4901784	165	C	01/10/2020	10:50	-132.645	43.538	0	1920.20	0	1.9590	0	37.0130	8	29.601	0	1896.161	0	55.7	4	17.1	4	-1E+10	1	-1E+10	1	-1E+10	1	-1E+10	1	-1E+10	1	-1E+10	1
4901784	165	C	01/10/2020	10:50	-132.645	43.538	0	1925.30	0	1.9570	0	37.0130	8	29.601	0	1901.174	0	55.9	4	17.1	4	-1E+10	1	-1E+10	1	-1E+10	1	-1E+10	1	-1E+10	1	-1E+10	1
4901784	165	C	01/10/2020	10:50	-132.645	43.538	0	1930.40	0	1.9530	0	37.0140	8	29.602	0	1906.188	0	56.0	4	17.2	4	-1E+10	1	-1E+10	1	-1E+10	1	-1E+10	1	-1E+10	1	-1E+10	1
4901784	165	C	01/10/2020	10:50	-132.645	43.538	0	1935.40	0	1.9530	0	37.0140	8	29.602	0	1911.102	0	56.0	4	17.2	4	-1E+10	1	-1E+10	1	-1E+10	1	-1E+10	1	-1E+10	1	-1E+10	1
4901784	165	C	01/10/2020	10:50	-132.645	43.538	0	1940.40	0	1.9540	0	37.0140	8	29.602	0	1916.017	0	56.0	4	17.2	4	-1E+10	1	-1E+10	1	-1E+10	1	-1E+10	1	-1E+10	1	-1E+10	1
4901784	165	C	01/10/2020	10:50	-132.645	43.538	0	1945.20	0	1.9550	0	37.0140	8	29.602	0	1920.735	0	56.1	4	17.2	4	-1E+10	1	-1E+10	1	-1E+10	1	-1E+10	1	-1E+10	1	-1E+10	1
4901784	165	C	01/10/2020	10:50	-132.645	43.538	0	1950.10	0	1.9550	0	37.0150	8	29.603	0	1925.551	0	56.1	4	17.2	4	-1E+10	1	-1E+10	1	-1E+10	1	-1E+10	1	-1E+10	1	-1E+10	1
4901784	165	C	01/10/2020	10:50	-132.645	43.538	0	1955.10	0	1.9550	0	37.0140	8	29.602	0	1930.466	0	56.2	4	17.3	4	-1E+10	1	-1E+10	1	-1E+10	1	-1E+10	1	-1E+10	1	-1E+10	1
4901784	165	C	01/10/2020	10:50	-132.645	43.538	0	1960.10	0	1.9520	0	37.0150	8	29.603	0	1935.380	0	56.5	4	17.3	4	-1E+10	1	-1E+10	1	-1E+10	1	-1E+10	1	-1E+10	1	-1E+10	1
4901784	165	C	01/10/2020	10:50	-132.645	43.538	0	1965.00	0	1.9490	0	37.0150	8	29.603	0	1940.196	0	56.8	4	17.4	4	-1E+10	1	-1E+10	1	-1E+10	1	-1E+10	1	-1E+10	1	-1E+10	1
4901784	165	C	01/10/2020	10:50	-132.645	43.538	0	1970.10	0	1.9440	0	37.0160	8	29.605	0	1945.208	0	57.0	4	17.5	4	-1E+10	1	-1E+10	1	-1E+10	1	-1E+10	1	-1E+10	1	-1E+10	1
4901784	165	C	01/10/2020	10:50	-132.645	43.538	0	1975.20	0	1.9430	0	37.0170	8	29.606	0	1950.221	0	57.1	4	17.5	4	-1E+10	1	-1E+10	1	-1E+10	1	-1E+10	1	-1E+10	1	-1E+10	1
4901784	165	C	01/10/2020	10:50	-132.645	43.538	0	1980.40	0	1.9410	0	37.0170	8	29.606	0	1955.331	0	57.3	4	17.6	4	-1E+10	1	-1E+10	1	-1E+10	1	-1E+10	1	-1E+10	1	-1E+10	1
4901784	165	C	01/10/2020	10:50	-132.645	43.538	0	1985.50	0	1.9380	0	37.0180	8	29.607	0	1960.343	0	57.5	4	17.6	4	-1E+10	1	-1E+10	1	-1E+10	1	-1E+10	1	-1E+10	1	-1E+10	1
4901784	165	C	01/10/2020	10:50	-132.645	43.538	0	1989.90	0	1.9360	0	37.0180	8	29.607	0	1964.667	0	57.7	4	17.7	4	-1E+10	1	-1E+10	1	-1E+10	1	-1E+10	1	-1E+10	1	-1E+10	1
4901784	165	C	01/10/2020	10:50	-132.645	43.538	0	1994.20	0	1.9320	0	37.0190	8	29.608	0	1968.893	0	58.0	4	17.8	4	-1E+10	1	-1E+10	1	-1E+10	1	-1E+10	1	-1E+10	1	-1E+10	1
4901784	165	C	01/10/2020	10:50	-132.645	43.538	0	1999.50	0	1.9290	0	37.0190	8	29.609	0	1974.101	0	58.1	4	17.8	4	-1E+10	1	-1E+10	1	-1E+10	1	-1E+10	1	-1E+10	1	-1E+10	1
4901784	165	C	01/10/2020	10:50	-132.645	43.538	0	2004.70	0	1.9280	0	37.0200	8	29.609	0	1979.211	0	58.4	4	17.9	4	-1E+10	1	-1E+10	1	-1E+10	1	-1E+10	1	-1E+10	1	-1E+10	1
4901784	165	C	01/10/2020	10:50	-132.645	43.538	0	2010.40	0	1.9240	0	37.0210	8	29.611	0	1984.812	0	58.6	4	18.0	4	-1E+10	1	-1E+10	1	-1E+10	1	-1E+10	1	-1E+10	1	-1E+10	1
4901784	165	C	01/10/2020	10:50	-132.645	43.538	0	2015.20	0	1.9230	0	37.0210	8	29.611	0	1989.528	0	58.7	4	18.0	4	-1E+10	1	-1E+10	1	-1E+10	1	-1E+10	1	-1E+10	1	-1E+10	1
4901784	165	C	01/10/2020	10:50	-132.645	43.538	0	2020.20	0	1.9220	0	37.0210	8	29.611	0	1994.441	0	58.7	4	18.0	4	-1E+10	1	-1E+10	1	-1E+10	1	-1E+10	1	-1E+10	1	-1E+10	1
4901784	165	C	01/10/2020	10:50	-132.645	43.538	0																										
4901784	166	C	01/20/2020	10:43	-132.617	43.480	0	3.00	0	11.9440	0	34.6810	8	26.353	0	2.976	0	250.8	4	95.0	4	-1E+10	1	-1E+10	1	-1E+10	1	-1E+10	1	-1E+10	1	-1E+10	1
4901784	166	C	01/20/2020	10:43	-132.617	43.480	0	4.40	0	11.9450	0	34.6810	8	26.352	0	4.365	0	250.7	4	94.9	4	-1E+10	1	-1E+10	1	-1E+10	1	-1E+10	1	-1E+10	1	-1E+10	1
4901784	166	C	01/20/2020	10:43	-132.617	43.480	0	5.80	0	11.9440	0	34.6820	8	26.353	0	5.754	0	250.8	4	94.9	4	-1E+10	1	-1E+10	1	-1E+10	1	-1E+10	1	-1E+10	1	-1E+10	1
4901784	166	C	01/20/2020	10:43	-132.617	43.480	0	7.40	0	11.9430	0	34.6830	8	26.354	0	7.341	0	250.9	4	95.0	4	-1E+10	1	-1E+10	1	-1E+10	1	-1E+10	1	-1E+10	1	-1E+10	1
4901784	166	C	01/20/2020	10:43	-132.617	43.480	0	9.00	0	11.9430	0	34.6830	8	26.354	0	8.928	0	250.8	4	94.9	4	-1E+10	1	-1E+10	1	-1E+10	1	-1E+10	1	-1E+10	1	-1E+10	1
4901784	166	C	01/20/2020	10:43	-132.617	43.480	0	10.80	0	11.9430	0	34.6840	8	26.355	0	10.714	0	250.7	4	94.9	4	-1E+10	1	-1E+10	1	-1E+10	1	-1E+10	1	-1E+10	1	-1E+10	1
4901784	166	C	01/20/2020	10:43	-132.617	43.480	0	12.60	0	11.9440	0	34.6840	8	26.355	0	12.499	0	250.8	4	94.9	4	-1E+10	1	-1E+10	1	-1E+10	1	-1E+10	1	-1E+10	1	-1E+10	1
4901784	166	C	01/20/2020	10:43	-132.617	43.480	0	14.40	0	11.9450	0	34.6850	8	26.356	0	14.285	0	250.8	4	94.9	4	-1E+10	1	-1E+10	1	-1E+10	1	-1E+10	1	-1E+10	1	-1E+10	1
4901784	166	C	01/20/2020	10:43	-132.617	43.480	0	16.30	0	11.9440	0	34.6850	8	26.356	0	16.169	0	250.7	4	94.9	4	-1E+10	1	-1E+10	1	-1E+10	1	-1E+10	1	-1E+10	1	-1E+10	1
4901784	166	C	01/20/2020	10:43	-132.617	43.480	0	18.00	0	11.9450	0	34.6850	8	26.356	0	17.856	0	250.7	4	94.9	4	-1E+10	1	-1E+10	1	-1E+10	1	-1E+10	1	-1E+10	1	-1E+10	1
4901784	166	C	01/20/2020	10:43	-132.617	43.480	0	19.80	0	11.9450	0	34.6860	8	26.357	0	19.641	0	250.7	4	94.9	4	-1E+10	1	-1E+10	1	-1E+10	1	-1E+10	1	-1E+10	1	-1E+10	1
4901784	166	C	01/20/2020	10:43	-132.617	43.480	0	21.60	0	11.9440	0	34.6870	8	26.358	0	21.427	0	250.7	4	94.9	4	-1E+10	1	-1E+10	1	-1E+10	1	-1E+10	1	-1E+10	1	-1E+10	1
4901784	166	C	01/20/2020	10:43	-132.617	43.480	0	23.30	0	11.9440	0	34.6870	8	26.358	0	23.113	0	250.6	4	94.9	4	-1E+10	1	-1E+10	1	-1E+10	1	-1E+10	1	-1E+10	1	-1E+10	1
4901784	166	C	01/20/2020	10:43	-132.617	43.480	0	25.00	0	11.9440	0	34.6880	8	26.359	0	24.799	0	250.6	4	94.9	4	-1E+10	1	-1E+10	1	-1E+10	1	-1E+10	1	-1E+10	1	-1E+10	1
4901784	166	C	01/20/2020	10:43	-132.617	43.480	0	26.80	0	11.9480	0	34.6880	8	26.358	0	26.584	0	250.6	4	94.9	4	-1E+10	1	-1E+10	1	-1E+10	1	-1E+10	1	-1E+10	1	-1E+10	1
4901784	166	C	01/20/2020	10:43	-132.617	43.480	0	28.50	0	11.9480	0	34.6890	8	26.359	0	28.271	0	250.6	4	94.9	4	-1E+10	1	-1E+10	1	-1E+10	1	-1E+10	1	-1E+10	1	-1E+10	1
4901784	166	C	01/20/2020	10:43	-132.617	43.480	0	30.20	0	11.9450	0	34.6900	8	26.360	0	29.957	0	250.5	4	94.8	4	-1E+10	1	-1E+10	1	-1E+10	1	-1E+10	1	-1E+10	1	-1E+10	1
4901784	166	C	01/20/2020	10:43	-132.617	43.480	0	32.00	0	11.9470	0	34.6900	8	26.360	0	31.742	0	250.6	4	94.9	4	-1E+10	1	-1E+10	1	-1E+10	1	-1E+10	1	-1E+10	1	-1E+10	1
4901784	166	C	01/20/2020	10:43	-132.617	43.480	0	33.80	0	11.9480	0	34.6910	8	26.360	0	33.528	0	250.5	4	94.9	4	-1E+10	1	-1E+10	1	-1E+10	1	-1E+10	1	-1E+10	1	-1E+10	1
4901784	166	C	01/20/2020	10:43	-132.617	43.480	0	35.70	0	11.9470	0	34.6920	8	26.361	0	35.412	0	250.5	4	94.9	4	-1E+10	1	-1E+10	1	-1E+10	1	-1E+10	1	-1E+10	1	-1E+10	1
4901784	166	C	01/20/2020	10:43	-132.617	43.480	0	37.50	0	11.9490	0	34.6910	8	26.360	0	37.197	0	250.5	4	94.8	4	-1E+10	1	-1E+10	1	-1E+10	1	-1E+10	1	-1E+10	1	-1E+10	1
4901784	166	C	01/20/2020	10:43	-132.617	43.480	0	39.10	0	11.9490	0	34.6920	8	26.361	0	38.784	0	250.6	4	94.9	4	-1E+10	1	-1E+10	1	-1E+10	1	-1E+10	1	-1E+10	1	-1E+10	1
4901784	166	C	01/20/2020	10:43	-132.617	43.480	0	40.80	0	11.9490	0	34.6930	8	26.362	0	40.470	0	250.4	4	94.8	4	-1E+10	1	-1E+10	1	-1E+10	1	-1E+10	1	-1E+10	1	-1E+10	1
4901784	166	C	01/20/2020	10:43	-132.617	43.480	0	42.50	0	11.9490	0	34.6930	8	26.362	0	42.157	0	250.5	4	94.9	4	-1E+10	1	-1E+10	1	-1E+10	1	-1E+10	1	-1E+10	1	-1E+10	1
4901784	166	C	01/20/2020	10:43	-132.617	43.480	0	44.20	0	11.9530	0	34.6940	8	26.362	0	43.843	0	250.4	4	94.8	4	-1E+10	1	-1E+10	1	-1E+10	1	-1E+10	1	-1E+10	1	-1E+10	1
4901784	166	C	01/20/2020	10:43	-132.617	43.480	0	46.00	0	11.9530	0	34.6940	8	26.362	0	45.628	0	250.2	4	94.8	4	-1E+10	1	-1E+10	1	-1E+10	1	-1E+10	1	-1E+10	1	-1E+10	1
4901784	166	C	01/20/2020	10:43	-132.617	43.480	0	47.90	0	11.9530	0	34.6950	8	26.363	0	47.512	0	250.4	4	94.8	4	-1E+10	1	-1E+10	1	-1E+10	1	-1E+10	1	-1E+10	1	-1E+10	1
4901784	166	C	01/20/2020	10:43	-132.617	43.480	0	49.70	0	11.9530	0	34.6960	8	26.364	0	49.298	0	250.3	4	94.8	4	-1E+10	1	-1E+10	1	-1E+10	1	-1E+10	1	-1E+10	1	-1E+10	1
4901784	166	C	01/20/2020	10:43	-132.617	43.480	0	51.50	0	11.9530	0	34.6960	8	26.364	0	51.083	0	250.1	4	94.7	4	-1E+10	1	-1E+10	1	-1E+10	1	-1E+10	1	-1E+10	1	-1E+10	1
4901784	166	C	01/20/2020	10:43	-132.617	43.480	0	53.40	0	11.9550	0	34.6970	8	26.364	0	52.967	0	250.3	4	94.8	4	-1E+10	1	-1E+10	1	-1E+10	1	-1E+10	1	-1E+10	1	-1E+10	1
4901784	166	C	01/20/2020	10:43	-132.617	43.480	0	55.20	0	11.9540	0	34.6970	8	26.364	0	54.752	0	250.1	4	94.7	4	-1E+10	1	-1E+10	1	-1E+10	1	-1E+10	1	-1E+10	1	-1E+10	1
4901784	166	C	01/20/2020	10:43	-132.617	43.480	0	57.10	0	11.9560	0	34.6980	8	26.365	0	56.637	0	250.2	4	94.7	4	-1E+10	1	-1E+10	1	-1E+10	1	-1E+10	1	-1E+10	1	-1E+10	1
4901784	166	C	01/20/2020	10:43	-132.617	43.480	0	58.90	0	11.9550	0	34.6980	8	26.365	0	58.422	0	250.1	4	94.7	4	-1E+10	1	-1E+10	1	-1E+10	1	-1E+10	1	-1E+10	1	-1E+10	1
4901784	166	C	01/20/2020	10:43	-132.617	43.480	0	60.80	0	11.9560	0	34.6990	8	26.366	0	60.306	0	250.0	4	94.7	4	-1E+10	1	-1E+10	1	-1E+10	1	-1E+10	1	-1E+10	1	-1E+10	1
4901784	166	C	01/20/2020	10:43	-132.617	43.480	0	62.60	0	11.9560	0	34.7000	8	26.367	0	62.091	0	250.0	4	94.7	4	-1E+10	1	-1E+10	1	-1E+10	1	-1E+10	1	-1E+10	1	-1E+10	1
4901784	166	C	01/20/2020	10:43	-132.617	43.480	0	64.30	0	11.9570	0	34.7000	8	26.366	0	63.777	0	250.0	4	94.7	4	-1E+10	1	-1E+10	1	-1E+10	1	-1E+10	1	-1E+10	1	-1E+10	1
4901784	166	C	01/20/2020	10:43	-132.617	43.480	0	66.10	0	11.9570	0	34.7010	8	26.367	0	65.562	0	250.0	4	94.7	4	-1E+10	1	-1E+10	1	-1E+10	1	-1E+10	1	-1E+10	1	-1E+10	1
4901784	166	C	01/20/2020	10:43	-132.617	43.480	0	67.90	0	11.9570	0	34.7010	8	26.367	0	67.347	0	249.9	4	94.6	4	-1E+10	1	-1E+10	1	-1E+10	1	-1E+10	1	-1E+10	1	-1E+10	1
4901784	166	C	01/20/2020	10:43	-132.617	43.480	0	69.50	0	11.9570	0	34.7020	8	26.368	0	68.934	0	249.8	4	94.6	4	-1E+10	1	-1E+10	1	-1E+10	1	-1E+10	1	-1E+10	1	-1E+10	1
4901784	166	C	01/20/2020	10:43	-132.617	43.480	0	71.10	0	11.9570	0	34.7030	8	26.369	0	70.521	0	249.7	4	94.6	4	-1E+10	1	-1E+10	1	-1E+10	1	-1E+10	1	-1E+10	1	-1E+10	1
4901784	166	C	01/20/2020	10:43	-132.617	43.480	0	72.80	0	11.9570	0	34.7040	8	26.370	0	72.206	0	249.8	4	94.6	4	-1E+10	1	-1E+10	1	-1E+10	1	-1E+10	1	-1E+10	1	-1E+10	1
4901784	166	C	01/20/2020	10:43	-132.617	43.480	0	74.50	0	11.9570	0	34.7040	8	26.370	0	73.892	0	249.5	4	94.5	4	-1E+10	1	-1E+10	1	-1E+10	1	-1E+10	1	-1E+10	1	-1E+10	1
4901784	166	C	01/20/2020	10:43	-132.617	43.480	0	76.30	0	11.9570	0	34.7050	8	26.371	0	75.677	0	249.5	4	94.5	4	-1E+10	1	-1E+10	1	-1E+10	1	-1E+10	1	-1E+10	1	-1E+10	1
4901784	166	C	01/20/2020	10:43	-132.617	43.480	0	78.00	0	11.9570	0	34.7060	8	26.371	0	77.363	0	249.4	4	94.5	4	-1E+10	1	-1E+10	1	-1E+10	1	-1E+10	1	-1E+10	1	-1E+10	1
4901784	166	C	01/20/2020	10:43	-132.617	43.480	0	79.80	0	11.9580	0	34.7060	8	26.371	0	79.148	0	249.4	4	94.5	4	-1E+10	1	-1E+10	1	-1E+10	1	-1E+10	1	-1E+10	1	-1E+10	1
4901784	166	C	01/20/2020	10:43	-132.617	43.480	0	81.60	0	11.9580	0	34.7070	8	26.372	0	80.933	0	249.3	4	94.4	4	-1E+10	1	-1E+10	1	-1E+10	1	-1E+10	1	-1E+10	1	-1E+10	1
4901784	166	C	01/20/2020	10:43	-132.617	43.480	0	83.40	0	11.9580	0	34.7070	8	26.372	0	82.718	0	249.2	4	94.4	4	-1E+10	1	-1E+10	1	-1E+10	1	-1E+10	1	-1E+10	1	-1E+10	1
4901784	166	C	01/20/2020	10:43	-132.617	43.480	0	85.10	0	11.9580	0	34.7070	8	26.372	0	84.404	0	249.1	4	94.3	4	-1E+10	1	-1E+10	1	-1E+10	1	-1E+10	1	-1E+10	1	-1E+10	1
4901784	166	C	01/20/2020	10:43	-132.617	43.480	0	86.80	0	11.9580	0	34.7080	8	26.373	0	86.089	0	249.1	4	94.4	4	-1E+10	1	-1E+10	1	-1E+10	1	-1E+10	1	-1E+10	1	-1E+10	1
4901784	166	C	01/20/2020	10:43	-132.617	43.480	0	88.50	0	11.9560	0	34.7090	8	26.374	0	87.775	0	248.8	4	94.2	4	-1E+10	1	-1E+10	1	-1E+10	1	-1E+10	1	-1E+10	1	-1E+10	1
4901784	166	C	01/20/2020	10:43	-132.617	43.480	0	90.20	0	11.9570	0	34.7080	8	26.373	0	89.461	0	248.7	4	94.2	4	-1E+10	1	-1E+10	1	-1E+10	1	-1E+10	1	-1E+10	1	-1E+10	1
4901784	166	C	01/20/2020	10:43	-132.617	43.480	0	92.00	0	11.9570	0	34.7080	8	26.373	0	91.246	0	248.4	4	94.1	4	-1E+10	1	-1E+10	1	-1E+10	1	-1E+10	1	-1E+10	1	-1E+10	1
4901784	166	C	01/20/2020	10:43	-132.617	43.480	0	93.90	0	11.9590	0	34.7080	8	26.373	0	93.130	0	248.0	4	93.9	4	-1E+10	1	-1E+10	1	-1E+10	1	-1E+10	1	-1E+10	1	-1E+10	1
4901784	166	C	01/20/2020	10:43	-132.617	43.480	0	95.70	0	11.9590	0	34.7070	8	26.372	0	94.914	0	247.5	4	93.7	4	-1E+10	1	-1E+10	1	-1E+10	1	-1E+10	1	-1E+10	1	-1E+10	1
4901784	166	C	01/20/2020	10:43	-132.617	43.480	0	97.60	0	11.9550	0	34.7030	8	26.370	0	96.798	0	247.3	4	93.7	4	-1E+10	1	-1E+10	1	-1E+10	1	-1E+10	1	-1E+10	1	-1E+10	1
4901784	166	C	01/20/2020	10:43	-132.617	43.480	0	99.60	0	11.9200	0	34.7010	8	26.375	0	98.782	0	247.0	4	93.5	4	-1E+10	1	-1E+10	1	-1E+10	1	-1E+10	1	-1E+10	1	-1E+10	1
4901784	166	C	01/20/2020	10:43	-132.617	43.480	0	102.30	0	11.8990	0	34.6980	8	26.377	0	101.459	0	245.8	4	93.0	4	-1E+10	1	-1E+10	1	-1E+10	1	-1E+10	1	-1E+10	1	-1E+10	1
4901784	166	C	01/20/2020	10:43	-132.617	43.480	0	104.90	0	11.9090	0	34.6900	8	26.369	0	104.037	0	244.4	4	92.4	4	-1E+10	1	-1E+10	1	-1E+10	1	-1E+10	1	-1E+10	1	-1E+10	1
4901784	166	C	01/20/2020	10:43	-132.617	43.480	0	107.40	0	11.8550	0	34.6760	8	26.368	0	106.515	0	241.9	4	91.4	4	-1E+10	1	-1E+10	1	-1E+10	1	-1E+10	1	-1E+10	1	-1E+10	1
4901784	166	C	01/20/2020	10:43	-132.617	43.480	0	109.80	0	11.6400	0	34.6380	8	26.379	0	108.895	0	239.4	4	90.0	4	-1E+10	1	-1E+10	1	-1E+10	1	-1E+10	1	-1E+10	1	-1E+10	1
4901784	166	C	01/20/2020	10:43	-132.617	43.480	0	112.10	0	11.1250	0	34.6280	8	26.466	0	111.175	0	237.2	4	88.2	4	-1E+10	1	-1E+10	1	-1E+10	1	-1E+10	1	-1E+10	1	-1E+10	1
4901784	166	C	01/20/2020	10:43	-132.617	43.480	0	115.40	0	10.1360	0	34.7030	8	26.699	0	114.447	0	235.4	4	85.8	4	-1E+10	1	-1E+10	1	-1E+10	1	-1E+10	1	-1E+10	1	-1E+10	1
4901784	166	C	01/20/2020	10:43	-132.617	43.480	0	117.90	0	9.8720	0	34.7160	8	26.755	0	116.926	0	234.6	4	85.0	4	-1E+10	1	-1E+10	1	-1E+10	1	-1E+10	1	-1E+10	1	-1E+10	1
4901784	166	C	01/20/2020	10:43	-132.617	43.480	0	119.50	0	9.6970	0	34.7380	8	26.801	0	118.512	0	233.1	4	84.2	4	-1E+10	1	-1E+10	1	-1E+10	1	-1E+10	1	-1E+10	1	-1E+10	1
4901784	166	C	01/20/2020	10:43	-132.617	43.480	0	122.50	0	9.3310	0	34.7910	8	26.903	0	121.487	0	233.0	4	83.5	4	-1E+10	1	-1E+10	1	-1E+10	1	-1E+10	1	-1E+10	1	-1E+10	1
4901784	166	C	01/20/2020	10:43	-132.617	43.480	0	125.10	0	9.2110	0	34.8050	8	26.934	0	124.064	0	232.0	4	82.9	4	-1E+10	1	-1E+10	1	-1E+10	1	-1E+10	1	-1E+10	1	-1E+10	1
4901784	166	C	01/20/2020	10:43	-132.617	43.480	0	127.20	0	9.1550	0	34.8260	8	26.959	0	126.146	0	230.6	4	82.3	4	-1E+10	1	-1E+10	1	-1E+10	1	-1E+10	1	-1E+10	1	-1E+10	1
4901784	166	C	01/20/2020	10:43	-132.617	43.480	0	130.20	0	9.1080	0	34.8480	8	26.984	0	129.120	0	228.5	4	81.5	4	-1E+10	1	-1E+10	1	-1E+10	1	-1E+10	1	-1E+10	1	-1E+10	1
4901784	166	C	01/20/2020	10:43	-132.617	43.480	0	132.50	0	9.0750	0	34.8620	8	27.001	0	131.401	0	226.6	4	80.8	4	-1E+10	1	-1E+10	1	-1E+10	1	-1E+10	1	-1E+10	1	-1E+10	1
4901784	166	C	01/20/2020	10:43	-132.617	43.480	0	134.90	0	9.0630	0	34.9000	8	27.032	0	133.780	0	224.0	4	79.9	4	-1E+10	1	-1E+10	1	-1E+10	1	-1E+10	1	-1E+10	1	-1E+10	1
4901784	166	C	01/20/2020	10:43	-132.617	43.480	0	137.20	0	8.9040	0	34.9240	8	27.077	0	136.060	0	221.3	4	78.7	4	-1E+10	1	-1E+10	1	-1E+10	1	-1E+10	1	-1E+10	1	-1E+10	1
4901784	166	C	01/20/2020	10:43	-132.617	43.480	0	139.50	0	8.7900	0	34.9860	8	27.143	0	138.340	0	218.3	4	77.4	4	-1E+10	1	-1E+10	1	-1E+10	1	-1E+10	1	-1E+10	1	-1E+10	1
4901784	166	C	01/20/2020	10:43	-132.617	43.480	0	142.10	0	8.6740	0	35.0580	8	27.218	0	140.918	0	215.5	4	76.3	4	-1E+10	1	-1E+10	1	-1E+10	1	-1E+10	1	-1E+10	1	-1E+10	1
4901784	166	C	01/20/2020	10:43	-132.617	43.480	0	144.70	0	8.6360	0	35.0960	8	27.254	0	143.495	0	212.4	4	75.2	4	-1E+10	1	-1E+10	1	-1E+10	1	-1E+10	1	-1E+10	1	-1E+10	1
4901784	166	C	01/20/2020	10:43	-132.617	43.480	0	147.30	0	8.6900	0	35.1580	8	27.294	0	146.073	0	208.7	4	74.0	4	-1E+10	1	-1E+10	1	-1E+10	1	-1E+10	1	-1E+10	1	-1E+10	1
4901784	166	C	01/20/2020	10:43	-132.617	43.480	0	150.10	0	8.5910	0	35.2120	8	27.352	0	148.848	0	205.5	4	72.7	4	-1E+10	1	-1E+10	1	-1E+10	1	-1E+10	1	-1E+10	1	-1E+10	1
4901784	166	C	01/20/2020	10:43	-132.617	43.480	0	152.30	0	8.5700	0	35.2600	8	27.393	0	151.029	0	201.9	4	71.4	4	-1E+10	1	-1E+10	1	-1E+10	1	-1E+10	1	-1E+10	1	-1E+10	1
4901784	166	C	01/20/2020	10:43	-132.617	43.480	0	155.30	0	8.5810	0	35.3450	8	27.458	0	154.003	0	196.7	4	69.6	4	-1E+10	1	-1E+10	1	-1E+10	1	-1E+10	1	-1E+10	1	-1E+10	1
4901784	166	C	01/20/2020	10:43	-132.617	43.480	0	157.40	0	8.5810	0	35.3920	8	27.495	0	156.085	0	193.9	4	68.6	4	-1E+10	1	-1E+10	1	-1E+10	1	-1E+10	1	-1E+10	1	-1E+10	1
4901784	166	C	01/20/2020	10:43	-132.617	43.480	0	159.70	0	8.5860	0	35.4230	8	27.519	0	158.365	0	190.7	4	67.5	4	-1E+10	1	-1E+10	1	-1E+10	1	-1E+10	1	-1E+10	1	-1E+10	1
4901784	166	C	01/20/2020	10:43	-132.617	43.480	0	162.90	0	8.5980	0	35.4840	8	27.565	0	161.537	0	186.9	4	66.3	4	-1E+10	1	-1E+10	1	-1E+10	1	-1E+10	1	-1E+10	1	-1E+10	1
4901784	166	C	01/20/2020	10:43	-132.617	43.480	0	165.20	0	8.5970	0	35.5020	8	27.579	0	163.816	0	184.6	4	65.4	4	-1E+10	1	-1E+10	1	-1E+10	1	-1E+10	1	-1E+10	1	-1E+10	1
4901784	166	C	01/20/2020	10:43	-132.617	43.480	0	167.60	0	8.5840	0	35.5360	8	27.608	0	166.195	0	181.5	4	64.3	4	-1E+10	1	-1E+10	1	-1E+10	1	-1E+10	1	-1E+10	1	-1E+10	1
4901784	166	C	01/20/2020	10:43	-132.617	43.480	0	170.00	0	8.5910	0	35.5750	8	27.637	0	168.574	0	177.9	4	63.1	4	-1E+10	1	-1E+10	1	-1E+10	1	-1E+10	1	-1E+10	1	-1E+10	1
4901784	166	C	01/20/2020	10:43	-132.617	43.480	0	172.40	0	8.6210	0	35.6240	8	27.671	0	170.953	0	174.2	4	61.8	4	-1E+10	1	-1E+10	1	-1E+10	1	-1E+10	1	-1E+10	1	-1E+10	1
4901784	166	C	01/20/2020	10:43	-132.617	43.480	0	174.90	0	8.5870	0	35.6860	8	27.725	0	173.431	0	171.9	4	61.0	4	-1E+10	1	-1E+10	1	-1E+10	1	-1E+10	1	-1E+10	1	-1E+10	1
4901784	166	C	01/20/2020	10:43	-132.617	43.480	0	177.40	0	8.5690	0	35.7190	8	27.754	0	175.909	0	170.2	4	60.4	4	-1E+10	1	-1E+10	1	-1E+10	1	-1E+10	1	-1E+10	1	-1E+10	1
4901784	166	C	01/20/2020	10:43	-132.617	43.480	0	180.50	0	8.5310	0	35.7540	8	27.787	0	178.982	0	168.5	4	59.8	4	-1E+10	1	-1E+10	1	-1E+10	1	-1E+10	1	-1E+10	1	-1E+10	1
4901784	166	C	01/20/2020	10:43	-132.617	43.480	0	182.30	0	8.4850	0	35.7870	8	27.821	0	180.766	0	167.3	4	59.3	4	-1E+10	1	-1E+10	1	-1E+10	1	-1E+10	1	-1E+10	1	-1E+10	1
4901784	166	C	01/20/2020	10:43	-132.617	43.480	0	184.50	0	8.4600	0	35.8140	8	27.846	0	182.946	0	165.5	4	58.6	4	-1E+10	1	-1E+10	1	-1E+10	1	-1E+10	1	-1E+10	1	-1E+10	1
4901784	166	C	01/20/2020	10:43	-132.617	43.480	0	187.40	0	8.4030	0	35.8750	8	27.903	0	185.821	0	163.4	4	57.8	4	-1E+10	1	-1E+10	1	-1E+10	1	-1E+10	1	-1E+10	1	-1E+10	1
4901784	166	C	01/20/2020	10:43	-132.617	43.480	0	190.40	0	8.3890	0	35.8930	8	27.919	0	188.794	0	161.6	4	57.2	4	-1E+10	1	-1E+10	1	-1E+10	1	-1E+10	1	-1E+10	1	-1E+10	1
4901784	166	C	01/20/2020	10:43	-132.617	43.480	0	192.80	0	8.3810	0	35.9140	8	27.937	0	191.173	0	159.8	4	56.6	4	-1E+10	1	-1E+10	1	-1E+10	1	-1E+10	1	-1E+10	1	-1E+10	1
4901784	166	C	01/20/2020	10:43	-132.617	43.480	0	195.30	0	8.3740	0	35.9320	8	27.952	0	193.650	0	158.4	4	56.0	4	-1E+10	1	-1E+10	1	-1E+10	1	-1E+10	1	-1E+10	1	-1E+10	1
4901784	166	C	01/20/2020	10:43	-132.617	43.480	0	197.60	0	8.3580	0	35.9560	8	27.973	0	195.930	0	157.1	4	55.6	4	-1E+10	1	-1E+10	1	-1E+10	1	-1E+10	1	-1E+10	1	-1E+10	1
4901784	166	C	01/20/2020	10:43	-132.617	43.480	0	199.90	0	8.3350	0	35.9850	8	28.000	0	198.209	0	156.3	4	55.3	4	-1E+10	1	-1E+10	1	-1E+10	1	-1E+10	1	-1E+10	1	-1E+10	1
4901784	166	C	01/20/2020	10:43	-132.617	43.480	0	202.40	0	8.3160	0	36.0030	8	28.017	0	200.687	0	156.1	4	55.2	4	-1E+10	1	-1E+10	1	-1E+10	1	-1E+10	1	-1E+10	1	-1E+10	1
4901784	166	C	01/20/2020	10:43	-132.617	43.480	0	204.90	0	8.3170	0	36.0060	8	28.019	0	203.164	0	156.1	4	55.2	4	-1E+10	1	-1E+10	1	-1E+10	1	-1E+10	1	-1E+10	1	-1E+10	1
4901784	166	C	01/20/2020	10:43	-132.617	43.480	0	207.40	0	8.2900	0	36.0230	8	28.037	0	205.642	0	156.4	4	55.3	4	-1E+10	1	-1E+10	1	-1E+10	1	-1E+10	1	-1E+10	1	-1E+10	1
4901784	166	C	01/20/2020	10:43	-132.617	43.480	0	210.00	0	8.2510	0	36.0400	8	28.056	0	208.219	0	156.5	4	55.3	4	-1E+10	1	-1E+10	1	-1E+10	1	-1E+10	1	-1E+10	1	-1E+10	1
4901784	166	C	01/20/2020	10:43	-132.617	43.480	0	212.70	0	8.2090	0	36.0510	8	28.071	0	210.894	0	155.7	4	54.9	4	-1E+10	1	-1E+10	1	-1E+10	1	-1E+10	1	-1E+10	1	-1E+10	1
4901784	166	C	01/20/2020	10:43	-132.617	43.480	0	215.30	0	8.2010	0	36.0640	8	28.083	0	213.471	0	153.2	4	54.1	4	-1E+10	1	-1E+10	1	-1E+10	1	-1E+10	1	-1E+10	1	-1E+10	1
4901784	166	C	01/20/2020	10:43	-132.617	43.480	0	217.90	0	8.1880	0	36.0840	8	28.101	0	216.048	0	150.3	4	53.0	4	-1E+10	1	-1E+10	1	-1E+10	1	-1E+10	1	-1E+10	1	-1E+10	1
4901784	166	C	01/20/2020	10:43	-132.617	43.480	0	219.70	0	8.1600	0	36.1180	8	28.132	0	217.831	0	148.7	4	52.5	4	-1E+10	1	-1E+10	1	-1E+10	1	-1E+10	1	-1E+10	1	-1E+10	1
4901784	166	C	01/20/2020	10:43	-132.617	43.480	0	222.40	0	8.1540	0	36.1220	8	28.136	0	220.507	0	147.4	4	52.0	4	-1E+10	1	-1E+10	1	-1E+10	1	-1E+10	1	-1E+10	1	-1E+10	1
4901784	166	C	01/20/2020	10:43	-132.617	43.480	0	225.10	0	8.1470	0	36.1280	8	28.142	0	223.182	0	146.0	4	51.5	4	-1E+10	1	-1E+10	1	-1E+10	1	-1E+10	1	-1E+10	1	-1E+10	1
4901784	166	C	01/20/2020	10:43	-132.617	43.480	0	227.80	0	8.1400	0	36.1350	8	28.148	0	225.858	0	145.5	4	51.3	4	-1E+10	1	-1E+10	1	-1E+10	1	-1E+10	1	-1E+10	1	-1E+10	1
4901784	166	C	01/20/2020	10:43	-132.617	43.480	0	230.40	0	8.0810	0	36.1530	8	28.171	0	228.434	0	145.6	4	51.3	4	-1E+10	1	-1E+10	1	-1E+10	1	-1E+10	1	-1E+10	1	-1E+10	1
4901784	166	C	01/20/2020	10:43	-132.617	43.480	0	232.10	0	8.0590	0	36.1580	8	28.179	0	230.119	0	145.9	4	51.4	4	-1E+10	1	-1E+10	1	-1E+10	1	-1E+10	1	-1E+10	1	-1E+10	1
4901784	166	C	01/20/2020	10:43	-132.617	43.480	0	234.80	0	8.0360	0	36.1620	8	28.185	0	232.794	0	145.2	4	51.1	4	-1E+10	1	-1E+10	1	-1E+10	1	-1E+10	1	-1E+10	1	-1E+10	1
4901784	166	C	01/20/2020	10:43	-132.617	43.480	0	237.50	0	7.9910	0	36.1710	8	28.199	0	235.470	0	143.4	4	50.4	4	-1E+10	1	-1E+10	1	-1E+10	1	-1E+10	1	-1E+10	1	-1E+10	1
4901784	166	C	01/20/2020	10:43	-132.617	43.480	0	240.20	0	7.9620	0	36.1760	8	28.208	0	238.145	0	141.1	4	49.6	4	-1E+10	1	-1E+10	1	-1E+10	1	-1E+10	1	-1E+10	1	-1E+10	1
4901784	166	C	01/20/2020	10:43	-132.617	43.480	0	242.90	0	7.9300	0	36.1800	8	28.216	0	240.820	0	138.1	4	48.5	4	-1E+10	1	-1E+10	1	-1E+10	1	-1E+10	1	-1E+10	1	-1E+10	1
4901784	166	C	01/20/2020	10:43	-132.617	43.480	0	244.80	0	7.9190	0	36.1800	8	28.218	0	242.703	0	135.4	4	47.5	4	-1E+10	1	-1E+10	1	-1E+10	1	-1E+10	1	-1E+10	1	-1E+10	1
4901784	166	C	01/20/2020	10:43	-132.617	43.480	0	247.60	0	7.8410	0	36.1930	8	28.240	0	245.477	0	133.1	4	46.6	4	-1E+10	1	-1E+10	1	-1E+10	1	-1E+10	1	-1E+10	1	-1E+10	1
4901784	166	C	01/20/2020	10:43	-132.617	43.480	0	250.40	0	7.8020	0	36.1950	8	28.247	0	248.252	0	132.9	4	46.5	4	-1E+10	1	-1E+10	1	-1E+10	1	-1E+10	1	-1E+10	1	-1E+10	1
4901784	166	C	01/20/2020	10:43	-132.617	43.480	0	252.20	0	7.7930	0	36.1960	8	28.249	0	250.035	0	133.0	4	46.5	4	-1E+10	1	-1E+10	1	-1E+10	1	-1E+10	1	-1E+10	1	-1E+10	1
4901784	166	C	01/20/2020	10:43	-132.617	43.480	0	254.90	0	7.7550	0	36.1980	8	28.257	0	252.710	0	133.7	4	46.8	4	-1E+10	1	-1E+10	1	-1E+10	1	-1E+10	1	-1E+10	1	-1E+10	1
4901784	166	C	01/20/2020	10:43	-132.617	43.480	0	257.50	0	7.7160	0	36.2000	8	28.264	0	255.286	0	135.4	4	47.3	4	-1E+10	1	-1E+10	1	-1E+10	1	-1E+10	1	-1E+10	1	-1E+10	1
4901784	166	C	01/20/2020	10:43	-132.617	43.480	0	260.10	0	7.7100	0	36.1980	8	28.263	0	257.862	0	137.2	4	47.9	4	-1E+10	1	-1E+10	1	-1E+10	1	-1E+10	1	-1E+10	1	-1E+10	1
4901784	166	C	01/20/2020	10:43	-132.617	43.480	0	262.70	0	7.6980	0	36.1930	8	28.261	0	260.438	0	138.8	4	48.5	4	-1E+10	1	-1E+10	1	-1E+10	1	-1E+10	1	-1E+10	1	-1E+10	1
4901784	166	C	01/20/2020	10:43	-132.617	43.480	0	265.30	0	7.5870	0	36.1970	8	28.281	0	263.014	0	139.2	4	48.5	4	-1E+10	1	-1E+10	1	-1E+10	1	-1E+10	1	-1E+10	1	-1E+10	1
4901784	166	C	01/20/2020	10:43	-132.617	43.480	0	268.00	0	7.5380	0	36.1980	8	28.289	0	265.689	0	139.4	4	48.5	4	-1E+10	1	-1E+10	1	-1E+10	1	-1E+10	1	-1E+10	1	-1E+10	1
4901784	166	C	01/20/2020	10:43	-132.617	43.480	0	269.80	0	7.5240	0	36.1990	8	28.292	0	267.473	0	139.3	4	48.5	4	-1E+10	1	-1E+10	1	-1E+10	1	-1E+10	1	-1E+10	1	-1E+10	1
4901784	166	C	01/20/2020	10:43	-132.617	43.480	0	272.40	0	7.4980	0	36.1980	8	28.295	0	270.049	0	139.4	4	48.5	4	-1E+10	1	-1E+10	1	-1E+10	1	-1E+10	1	-1E+10	1	-1E+10	1
4901784	166	C	01/20/2020	10:43	-132.617	43.480	0	275.00	0	7.4700	0	36.1980	8	28.299	0	272.624	0	138.9	4	48.2	4	-1E+10	1	-1E+10	1	-1E+10	1	-1E+10	1	-1E+10	1	-1E+10	1
4901784	166	C	01/20/2020	10:43	-132.617	43.480	0	277.60	0	7.4410	0	36.1960	8	28.302	0	275.200	0	137.6	4	47.8	4	-1E+10	1	-1E+10	1	-1E+10	1	-1E+10	1	-1E+10	1	-1E+10	1
4901784	166	C	01/20/2020	10:43	-132.617	43.480	0	280.30	0	7.3930	0	36.1960	8	28.309	0	277.875	0	136.4	4	47.3	4	-1E+10	1	-1E+10	1	-1E+10	1	-1E+10	1	-1E+10	1	-1E+10	1
4901784	166	C	01/20/2020	10:43	-132.617	43.480	0	282.10	0	7.3510	0	36.1950	8	28.314	0	279.658	0	135.5	4	46.9	4	-1E+10	1	-1E+10	1	-1E+10	1	-1E+10	1	-1E+10	1	-1E+10	1
4901784	166	C	01/20/2020	10:43	-132.617	43.480	0	284.80	0	7.2960	0	36.1960	8	28.323	0	282.333	0	134.1	4	46.4	4	-1E+10	1	-1E+10	1	-1E+10	1	-1E+10	1	-1E+10	1	-1E+10	1
4901784	166	C	01/20/2020	10:43	-132.617	43.480	0	287.50	0	7.2380	0	36.1990	8	28.334	0	285.008	0	132.0	4	45.6	4	-1E+10	1	-1E+10	1	-1E+10	1	-1E+10	1	-1E+10	1	-1E+10	1
4901784	166	C	01/20/2020	10:43	-132.617	43.480	0	290.20	0	7.1740	0	36.2030	8	28.346	0	287.683	0	131.0	4	45.2	4	-1E+10	1	-1E+10	1	-1E+10	1	-1E+10	1	-1E+10	1	-1E+10	1
4901784	166	C	01/20/2020	10:43	-132.617	43.480	0	292.80	0	7.1630	0	36.2020	8	28.347	0	290.258	0	130.0	4	44.9	4	-1E+10	1	-1E+10	1	-1E+10	1	-1E+10	1	-1E+10	1	-1E+10	1
4901784	166	C	01/20/2020	10:43	-132.617	43.480	0	294.60	0	7.1530	0	36.2010	8	28.348	0	292.041	0	129.1	4	44.5	4	-1E+10	1	-1E+10	1	-1E+10	1	-1E+10	1	-1E+10	1	-1E+10	1
4901784	166	C	01/20/2020	10:43	-132.617	43.480	0	297.30	0	7.0960	0	36.2030	8	28.358	0	294.716	0	127.5	4	43.9	4	-1E+10	1	-1E+10	1	-1E+10	1	-1E+10	1	-1E+10	1	-1E+10	1
4901784	166	C	01/20/2020	10:43	-132.617	43.480	0	299.90	0	7.0350	0	36.2030	8	28.366	0	297.292	0	126.2	4	43.4	4	-1E+10	1	-1E+10	1	-1E+10	1	-1E+10	1	-1E+10	1	-1E+10	1
4901784	166	C	01/20/2020	10:43	-132.617	43.480	0	302.60	0	7.0130	0	36.2030	8	28.370	0	299.966	0	124.4	4	42.8	4	-1E+10	1	-1E+10	1	-1E+10	1	-1E+10	1	-1E+10	1	-1E+10	1
4901784	166	C	01/20/2020	10:43	-132.617	43.480	0	305.20	0	6.9690	0	36.2050	8	28.377	0	302.542	0	122.7	4	42.2	4	-1E+10	1	-1E+10	1	-1E+10	1	-1E+10	1	-1E+10	1	-1E+10	1
4901784	166	C	01/20/2020	10:43	-132.617	43.480	0	307.00	0	6.9490	0	36.2060	8	28.381	0	304.325	0	121.5	4	41.7	4	-1E+10	1	-1E+10	1	-1E+10	1	-1E+10	1	-1E+10	1	-1E+10	1
4901784	166	C	01/20/2020	10:43	-132.617	43.480	0	309.70	0	6.9310	0	36.2050	8	28.383	0	306.999	0	119.8	4	41.1	4	-1E+10	1	-1E+10	1	-1E+10	1	-1E+10	1	-1E+10	1	-1E+10	1
4901784	166	C	01/20/2020	10:43	-132.617	43.480	0	312.30	0	6.9030	0	36.2040	8	28.386	0	309.574	0	117.5	4	40.3	4	-1E+10	1	-1E+10	1	-1E+10	1	-1E+10	1	-1E+10	1	-1E+10	1
4901784	166	C	01/20/2020	10:43	-132.617	43.480	0	315.20	0	6.8260	0	36.2070	8	28.399	0	312.447	0	115.4	4	39.5	4	-1E+10	1	-1E+10	1	-1E+10	1	-1E+10	1	-1E+10	1	-1E+10	1
4901784	166	C	01/20/2020	10:43	-132.617	43.480	0	317.50	0	6.7770	0	36.2070	8	28.406	0	314.725	0	115.0	4	39.3	4	-1E+10	1	-1E+10	1	-1E+10	1	-1E+10	1	-1E+10	1	-1E+10	1
4901784	166	C	01/20/2020	10:43	-132.617	43.480	0	319.70	0	6.7400	0	36.2060	8	28.410	0	316.904	0	114.3	4	39.1	4	-1E+10	1	-1E+10	1	-1E+10	1	-1E+10	1	-1E+10	1	-1E+10	1
4901784	166	C	01/20/2020	10:43	-132.617	43.480	0	322.10	0	6.6590	0	36.2090	8	28.424	0	319.281	0	113.4	4	38.7	4	-1E+10	1	-1E+10	1	-1E+10	1	-1E+10	1	-1E+10	1	-1E+10	1
4901784	166	C	01/20/2020	10:43	-132.617	43.480	0	325.20	0	6.5910	0	36.2100	8	28.434	0	322.352	0	112.3	4	38.3	4	-1E+10	1	-1E+10	1	-1E+10	1	-1E+10	1	-1E+10	1	-1E+10	1
4901784	166	C	01/20/2020	10:43	-132.617	43.480	0	327.50	0	6.5720	0	36.2080	8	28.435	0	324.630	0	111.5	4	38.0	4	-1E+10	1	-1E+10	1	-1E+10	1	-1E+10	1	-1E+10	1	-1E+10	1
4901784	166	C	01/20/2020	10:43	-132.617	43.480	0	329.80	0	6.5260	0	36.2100	8	28.443	0	326.908	0	111.1	4	37.8	4	-1E+10	1	-1E+10	1	-1E+10	1	-1E+10	1	-1E+10	1	-1E+10	1
4901784	166	C	01/20/2020	10:43	-132.617	43.480	0	332.20	0	6.4840	0	36.2110	8	28.450	0	329.285	0	110.8	4	37.7	4	-1E+10	1	-1E+10	1	-1E+10	1	-1E+10	1	-1E+10	1	-1E+10	1
4901784	166	C	01/20/2020	10:43	-132.617	43.480	0	334.60	0	6.4300	0	36.2110	8	28.457	0	331.662	0	110.6	4	37.5	4	-1E+10	1	-1E+10	1	-1E+10	1	-1E+10	1	-1E+10	1	-1E+10	1
4901784	166	C	01/20/2020	10:43	-132.617	43.480	0	337.90	0	6.4090	0	36.2100	8	28.459	0	334.930	0	109.4	4	37.1	4	-1E+10	1	-1E+10	1	-1E+10	1	-1E+10	1	-1E+10	1	-1E+10	1
4901784	166	C	01/20/2020	10:43	-132.617	43.480	0	340.40	0	6.3900	0	36.2090	8	28.461	0	337.406	0	108.2	4	36.7	4	-1E+10	1	-1E+10	1	-1E+10	1	-1E+10	1	-1E+10	1	-1E+10	1
4901784	166	C	01/20/2020	10:43	-132.617	43.480	0	342.90	0	6.3500	0	36.2100	8	28.467	0	339.882	0	106.7	4	36.2	4	-1E+10	1	-1E+10	1	-1E+10	1	-1E+10	1	-1E+10	1	-1E+10	1
4901784	166	C	01/20/2020	10:43	-132.617	43.480	0	345.40	0	6.3100	0	36.2110	8	28.473	0	342.358	0	105.4	4	35.7	4	-1E+10	1	-1E+10	1	-1E+10	1	-1E+10	1	-1E+10	1	-1E+10	1
4901784	166	C	01/20/2020	10:43	-132.617	43.480	0	347.90	0	6.2740	0	36.2100	8	28.477	0	344.834	0	104.2	4	35.2	4	-1E+10	1	-1E+10	1	-1E+10	1	-1E+10	1	-1E+10	1	-1E+10	1
4901784	166	C	01/20/2020	10:43	-132.617	43.480	0	350.30	0	6.2280	0	36.2100	8	28.484	0	347.211	0	102.8	4	34.7	4	-1E+10	1	-1E+10	1	-1E+10	1	-1E+10	1	-1E+10	1	-1E+10	1
4901784	166	C	01/20/2020	10:43	-132.617	43.480	0	352.90	0	6.1820	0	36.2120	8	28.491	0	349.786	0	101.7	4	34.3	4	-1E+10	1	-1E+10	1	-1E+10	1	-1E+10	1	-1E+10	1	-1E+10	1
4901784	166	C	01/20/2020	10:43	-132.617	43.480	0	355.40	0	6.1440	0	36.2120	8	28.496	0	352.262	0	100.3	4	33.8	4	-1E+10	1	-1E+10	1	-1E+10	1	-1E+10	1	-1E+10	1	-1E+10	1
4901784	166	C	01/20/2020	10:43	-132.617	43.480	0	357.80	0	6.1050	0	36.2130	8	28.502	0	354.638	0	98.6	4	33.2	4	-1E+10	1	-1E+10	1	-1E+10	1	-1E+10	1	-1E+10	1	-1E+10	1
4901784	166	C	01/20/2020	10:43	-132.617	43.480	0	360.30	0	6.0650	0	36.2130	8	28.508	0	357.114	0	96.9	4	32.6	4	-1E+10	1	-1E+10	1	-1E+10	1	-1E+10	1	-1E+10	1	-1E+10	1
4901784	166	C	01/20/2020	10:43	-132.617	43.480	0	362.10	0	6.0300	0	36.2150	8	28.514	0	358.897	0	95.6	4	32.1	4	-1E+10	1	-1E+10	1	-1E+10	1	-1E+10	1	-1E+10	1	-1E+10	1
4901784	166	C	01/20/2020	10:43	-132.617	43.480	0	364.70	0	5.9910	0	36.2190	8	28.522	0	361.471	0	94.1	4	31.6	4	-1E+10	1	-1E+10	1	-1E+10	1	-1E+10	1	-1E+10	1	-1E+10	1
4901784	166	C	01/20/2020	10:43	-132.617	43.480	0	367.30	0	5.9700	0	36.2210	8	28.527	0	364.046	0	92.6	4	31.1	4	-1E+10	1	-1E+10	1	-1E+10	1	-1E+10	1	-1E+10	1	-1E+10	1
4901784	166	C	01/20/2020	10:43	-132.617	43.480	0	369.90	0	5.9510	0	36.2220	8	28.530	0	366.621	0	91.0	4	30.5	4	-1E+10	1	-1E+10	1	-1E+10	1	-1E+10	1	-1E+10	1	-1E+10	1
4901784	166	C	01/20/2020	10:43	-132.617	43.480	0	372.50	0	5.9270	0	36.2230	8	28.534	0	369.195	0	89.3	4	30.0	4	-1E+10	1	-1E+10	1	-1E+10	1	-1E+10	1	-1E+10	1	-1E+10	1
4901784	166	C	01/20/2020	10:43	-132.617	43.480	0	375.10	0	5.8940	0	36.2270	8	28.541	0	371.770	0	87.6	4	29.4	4	-1E+10	1	-1E+10	1	-1E+10	1	-1E+10	1	-1E+10	1	-1E+10	1
4901784	166	C	01/20/2020	10:43	-132.617	43.480	0	377.70	0	5.8470	0	36.2310	8	28.551	0	374.345	0	86.5	4	29.0	4	-1E+10	1	-1E+10	1	-1E+10	1	-1E+10	1	-1E+10	1	-1E+10	1
4901784	166	C	01/20/2020	10:43	-132.617	43.480	0	380.30	0	5.8330	0	36.2330	8	28.554	0	376.919	0	86.0	4	28.8	4	-1E+10	1	-1E+10	1	-1E+10	1	-1E+10	1	-1E+10	1	-1E+10	1
4901784	166	C	01/20/2020	10:43	-132.617	43.480	0	382.90	0	5.8260	0	36.2320	8	28.554	0	379.494	0	85.5	4	28.6	4	-1E+10	1	-1E+10	1	-1E+10	1	-1E+10	1	-1E+10	1	-1E+10	1
4901784	166	C	01/20/2020	10:43	-132.617	43.480	0	384.60	0	5.8120	0	36.2330	8	28.557	0	381.177	0	85.1	4	28.5	4	-1E+10	1	-1E+10	1	-1E+10	1	-1E+10	1	-1E+10	1	-1E+10	1
4901784	166	C	01/20/2020	10:43	-132.617	43.480	0	387.20	0	5.8060	0	36.2330	8	28.557	0	383.751	0	84.3	4	28.2	4	-1E+10	1	-1E+10	1	-1E+10	1	-1E+10	1	-1E+10	1	-1E+10	1
4901784	166	C	01/20/2020	10:43	-132.617	43.480	0	389.80	0	5.7900	0	36.2320	8	28.559	0	386.326	0	83.4	4	27.9	4	-1E+10	1	-1E+10	1	-1E+10	1	-1E+10	1	-1E+10	1	-1E+10	1
4901784	166	C	01/20/2020	10:43	-132.617	43.480	0	392.40	0	5.7570	0	36.2340	8	28.565	0	388.900	0	82.0	4	27.4	4	-1E+10	1	-1E+10	1	-1E+10	1	-1E+10	1	-1E+10	1	-1E+10	1
4901784	166	C	01/20/2020	10:43	-132.617	43.480	0	395.00	0	5.7180	0	36.2380	8	28.573	0	391.475	0	80.9	4	27.0	4	-1E+10	1	-1E+10	1	-1E+10	1	-1E+10	1	-1E+10	1	-1E+10	1
4901784	166	C	01/20/2020	10:43	-132.617	43.480	0	397.60	0	5.7090	0	36.2370	8	28.573	0	394.049	0	80.2	4	26.8	4	-1E+10	1	-1E+10	1	-1E+10	1	-1E+10	1	-1E+10	1	-1E+10	1
4901784	166	C	01/20/2020	10:43	-132.617	43.480	0	400.30	0	5.6920	0	36.2350	8	28.574	0	396.722	0	79.3	4	26.5	4	-1E+10	1	-1E+10	1	-1E+10	1	-1E+10	1	-1E+10	1	-1E+10	1
4901784	166	C	01/20/2020	10:43	-132.617	43.480	0	402.90	0	5.6280	0	36.2370	8	28.584	0	399.296	0	78.4	4	26.1	4	-1E+10	1	-1E+10	1	-1E+10	1	-1E+10	1	-1E+10	1	-1E+10	1
4901784	166	C	01/20/2020	10:43	-132.617	43.480	0	405.50	0	5.5550	0	36.2410	8	28.596	0	401.871	0	78.0	4	25.9	4	-1E+10	1	-1E+10	1	-1E+10	1	-1E+10	1	-1E+10	1	-1E+10	1
4901784	166	C	01/20/2020	10:43	-132.617	43.480	0	407.30	0	5.5300	0	36.2400	8	28.598	0	403.653	0	77.7	4	25.8	4	-1E+10	1	-1E+10	1	-1E+10	1	-1E+10	1	-1E+10	1	-1E+10	1
4901784	166	C	01/20/2020	10:43	-132.617	43.480	0	409.90	0	5.4990	0	36.2410	8	28.603	0	406.227	0	77.1	4	25.6	4	-1E+10	1	-1E+10	1	-1E+10	1	-1E+10	1	-1E+10	1	-1E+10	1
4901784	166	C	01/20/2020	10:43	-132.617	43.480	0	412.50	0	5.4750	0	36.2420	8	28.607	0	408.801	0	76.6	4	25.4	4	-1E+10	1	-1E+10	1	-1E+10	1	-1E+10	1	-1E+10	1	-1E+10	1
4901784	166	C	01/20/2020	10:43	-132.617	43.480	0	415.00	0	5.4420	0	36.2430	8	28.612	0	411.276	0	76.3	4	25.3	4	-1E+10	1	-1E+10	1	-1E+10	1	-1E+10	1	-1E+10	1	-1E+10	1
4901784	166	C	01/20/2020	10:43	-132.617	43.480	0	417.60	0	5.4240	0	36.2430	8	28.614	0	413.850	0	76.1	4	25.2	4	-1E+10	1	-1E+10	1	-1E+10	1	-1E+10	1	-1E+10	1	-1E+10	1
4901784	166	C	01/20/2020	10:43	-132.617	43.480	0	420.20	0	5.3590	0	36.2440	8	28.623	0	416.424	0	76.1	4	25.2	4	-1E+10	1	-1E+10	1	-1E+10	1	-1E+10	1	-1E+10	1	-1E+10	1
4901784	166	C	01/20/2020	10:43	-132.617	43.480	0	422.80	0	5.3290	0	36.2420	8	28.625	0	418.998	0	76.1	4	25.2	4	-1E+10	1	-1E+10	1	-1E+10	1	-1E+10	1	-1E+10	1	-1E+10	1
4901784	166	C	01/20/2020	10:43	-132.617	43.480	0	425.30	0	5.3140	0	36.2400	8	28.625	0	421.473	0	75.9	4	25.1	4	-1E+10	1	-1E+10	1	-1E+10	1	-1E+10	1	-1E+10	1	-1E+10	1
4901784	166	C	01/20/2020	10:43	-132.617	43.480	0	428.00	0	5.2970	0	36.2360	8	28.624	0	424.146	0	75.5	4	25.0	4	-1E+10	1	-1E+10	1	-1E+10	1	-1E+10	1	-1E+10	1	-1E+10	1
4901784	166	C	01/20/2020	10:43	-132.617	43.480	0	429.70	0	5.2470	0	36.2360	8	28.630	0	425.829	0	75.0	4	24.8	4	-1E+10	1	-1E+10	1	-1E+10	1	-1E+10	1	-1E+10	1	-1E+10	1
4901784	166	C	01/20/2020	10:43	-132.617	43.480	0	432.30	0	5.1870	0	36.2370	8	28.638	0	428.403	0	73.7	4	24.3	4	-1E+10	1	-1E+10	1	-1E+10	1	-1E+10	1	-1E+10	1	-1E+10	1
4901784	166	C	01/20/2020	10:43	-132.617	43.480	0	434.80	0	5.1850	0	36.2440	8	28.644	0	430.878	0	71.7	4	23.6	4	-1E+10	1	-1E+10	1	-1E+10	1	-1E+10	1	-1E+10	1	-1E+10	1
4901784	166	C	01/20/2020	10:43	-132.617	43.480	0	437.40	0	5.1430	0	36.2470	8	28.652	0	433.452	0	70.1	4	23.1	4	-1E+10	1	-1E+10	1	-1E+10	1	-1E+10	1	-1E+10	1	-1E+10	1
4901784	166	C	01/20/2020	10:43	-132.617	43.480	0	439.90	0	5.1000	0	36.2530	8	28.662	0	435.927	0	68.2	4	22.5	4	-1E+10	1	-1E+10	1	-1E+10	1	-1E+10	1	-1E+10	1	-1E+10	1
4901784	166	C	01/20/2020	10:43	-132.617	43.480	0	442.50	0	5.1170	0	36.2620	8	28.667	0	438.500	0	67.0	4	22.1	4	-1E+10	1	-1E+10	1	-1E+10	1	-1E+10	1	-1E+10	1	-1E+10	1
4901784	166	C	01/20/2020	10:43	-132.617	43.480	0	445.10	0	5.1060	0	36.2620	8	28.668	0	441.074	0	66.6	4	21.9	4	-1E+10	1	-1E+10	1	-1E+10	1	-1E+10	1	-1E+10	1	-1E+10	1
4901784	166	C	01/20/2020	10:43	-132.617	43.480	0	447.70	0	5.0990	0	36.2610	8	28.668	0	443.648	0	65.8	4	21.7	4	-1E+10	1	-1E+10	1	-1E+10	1	-1E+10	1	-1E+10	1	-1E+10	1
4901784	166	C	01/20/2020	10:43	-132.617	43.480	0	450.20	0	5.0220	0	36.2660	8	28.682	0	446.123	0	65.2	4	21.4	4	-1E+10	1	-1E+10	1	-1E+10	1	-1E+10	1	-1E+10	1	-1E+10	1
4901784	166	C	01/20/2020	10:43	-132.617	43.480	0	452.80	0	4.9810	0	36.2660	8	28.686	0	448.696	0	63.8	4	21.0	4	-1E+10	1	-1E+10	1	-1E+10	1	-1E+10	1	-1E+10	1	-1E+10	1
4901784	166	C	01/20/2020	10:43	-132.617	43.480	0	455.30	0	4.9990	0	36.2690	8	28.687	0	451.171	0	61.4	4	20.2	4	-1E+10	1	-1E+10	1	-1E+10	1	-1E+10	1	-1E+10	1	-1E+10	1
4901784	166	C	01/20/2020	10:43	-132.617	43.480	0	457.10	0	5.0520	0	36.2820	8	28.691	0	452.953	0	60.1	4	19.8	4	-1E+10	1	-1E+10	1	-1E+10	1	-1E+10	1	-1E+10	1	-1E+10	1
4901784	166	C	01/20/2020	10:43	-132.617	43.480	0	459.70	0	5.0730	0	36.2870	8	28.692	0	455.526	0	59.5	4	19.6	4	-1E+10	1	-1E+10	1	-1E+10	1	-1E+10	1	-1E+10	1	-1E+10	1
4901784	166	C	01/20/2020	10:43	-132.617	43.480	0	462.20	0	5.0490	0	36.2860	8	28.694	0	458.001	0	59.1	4	19.4	4	-1E+10	1	-1E+10	1	-1E+10	1	-1E+10	1	-1E+10	1	-1E+10	1
4901784	166	C	01/20/2020	10:43	-132.617	43.480	0	464.80	0	5.0190	0	36.2880	8	28.699	0	460.574	0	58.3	4	19.2	4	-1E+10	1	-1E+10	1	-1E+10	1	-1E+10	1	-1E+10	1	-1E+10	1
4901784	166	C	01/20/2020	10:43	-132.617	43.480	0	467.50	0	4.9960	0	36.2910	8	28.705	0	463.247	0	56.9	4	18.7	4	-1E+10	1	-1E+10	1	-1E+10	1	-1E+10	1	-1E+10	1	-1E+10	1
4901784	166	C	01/20/2020	10:43	-132.617	43.480	0	470.20	0	5.0460	0	36.3000	8	28.706	0	465.919	0	55.3	4	18.2	4	-1E+10	1	-1E+10	1	-1E+10	1	-1E+10	1	-1E+10	1	-1E+10	1
4901784	166	C	01/20/2020	10:43	-132.617	43.480	0	472.90	0	5.0290	0	36.3030	8	28.710	0	468.591	0	54.6	4	18.0	4	-1E+10	1	-1E+10	1	-1E+10	1	-1E+10	1	-1E+10	1	-1E+10	1
4901784	166	C	01/20/2020	10:43	-132.617	43.480	0	474.70	0	5.0080	0	36.3080	8	28.717	0	470.373	0	53.9	4	17.7	4	-1E+10	1	-1E+10	1	-1E+10	1	-1E+10	1	-1E+10	1	-1E+10	1
4901784	166	C	01/20/2020	10:43	-132.617	43.480	0	477.30	0	5.0370	0	36.3120	8	28.717	0	472.946	0	53.6	4	17.6	4	-1E+10	1	-1E+10	1	-1E+10	1	-1E+10	1	-1E+10	1	-1E+10	1
4901784	166	C	01/20/2020	10:43	-132.617	43.480	0	480.00	0	5.0330	0	36.3100	8	28.715	0	475.619	0	54.2	4	17.8	4	-1E+10	1	-1E+10	1	-1E+10	1	-1E+10	1	-1E+10	1	-1E+10	1
4901784	166	C	01/20/2020	10:43	-132.617	43.480	0	482.70	0	4.9780	0	36.3070	8	28.720	0	478.291	0	55.4	4	18.2	4	-1E+10	1	-1E+10	1	-1E+10	1	-1E+10	1	-1E+10	1	-1E+10	1
4901784	166	C	01/20/2020	10:43	-132.617	43.480	0	485.40	0	4.8520	0	36.2980	8	28.727	0	480.963	0	56.1	4	18.4	4	-1E+10	1	-1E+10	1	-1E+10	1	-1E+10	1	-1E+10	1	-1E+10	1
4901784	166	C	01/20/2020	10:43	-132.617	43.480	0	487.20	0	4.8240	0	36.2980	8	28.731	0	482.744	0	55.7	4	18.2	4	-1E+10	1	-1E+10	1	-1E+10	1	-1E+10	1	-1E+10	1	-1E+10	1
4901784	166	C	01/20/2020	10:43	-132.617	43.480	0	489.90	0	4.7980	0	36.3020	8	28.737	0	485.417	0	54.4	4	17.8	4	-1E+10	1	-1E+10	1	-1E+10	1	-1E+10	1	-1E+10	1	-1E+10	1
4901784	166	C	01/20/2020	10:43	-132.617	43.480	0	492.60	0	4.8590	0	36.3100	8	28.736	0	488.089	0	52.8	4	17.3	4	-1E+10	1	-1E+10	1	-1E+10	1	-1E+10	1	-1E+10	1	-1E+10	1
4901784	166	C	01/20/2020	10:43	-132.617	43.480	0	495.30	0	4.8630	0	36.3120	8	28.737	0	490.761	0	52.0	4	17.0	4	-1E+10	1	-1E+10	1	-1E+10	1	-1E+10	1	-1E+10	1	-1E+10	1
4901784	166	C	01/20/2020	10:43	-132.617	43.480	0	498.00	0	4.8310	0	36.3140	8	28.743	0	493.433	0	51.4	4	16.8	4	-1E+10	1	-1E+10	1	-1E+10	1	-1E+10	1	-1E+10	1	-1E+10	1
4901784	166	C	01/20/2020	10:43	-132.617	43.480	0	499.70	0	4.8200	0	36.3150	8	28.745	0	495.115	0	50.6	4	16.5	4	-1E+10	1	-1E+10	1	-1E+10	1	-1E+10	1	-1E+10	1	-1E+10	1
4901784	166	C	01/20/2020	10:43	-132.617	43.480	0	505.20	0	4.8750	0	36.3270	8	28.748	0	500.558	0	47.5	4	15.6	4	-1E+10	1	-1E+10	1	-1E+10	1	-1E+10	1	-1E+10	1	-1E+10	1
4901784	166	C	01/20/2020	10:43	-132.617	43.480	0	510.60	0	4.8480	0	36.3330	8	28.756	0	505.902	0	45.5	4	14.9	4	-1E+10	1	-1E+10	1	-1E+10	1	-1E+10	1	-1E+10	1	-1E+10	1
4901784	166	C	01/20/2020	10:43	-132.617	43.480	0	515.20	0	4.8400	0	36.3450	8	28.766	0	510.454	0	43.7	4	14.3	4	-1E+10	1	-1E+10	1	-1E+10	1	-1E+10	1	-1E+10	1	-1E+10	1
4901784	166	C	01/20/2020	10:43	-132.617	43.480	0	519.90	0	4.8310	0	36.3480	8	28.770	0	515.105	0	43.1	4	14.1	4	-1E+10	1	-1E+10	1	-1E+10	1	-1E+10	1	-1E+10	1	-1E+10	1
4901784	166	C	01/20/2020	10:43	-132.617	43.480	0	525.60	0	4.7720	0	36.3490	8	28.778	0	520.745	0	43.3	4	14.2	4	-1E+10	1	-1E+10	1	-1E+10	1	-1E+10	1	-1E+10	1	-1E+10	1
4901784	166	C	01/20/2020	10:43	-132.617	43.480	0	530.20	0	4.6950	0	36.3450	8	28.784	0	525.297	0	43.5	4	14.2	4	-1E+10	1	-1E+10	1	-1E+10	1	-1E+10	1	-1E+10	1	-1E+10	1
4901784	166	C	01/20/2020	10:43	-132.617	43.480	0	534.90	0	4.6510	0	36.3500	8	28.793	0	529.947	0	41.8	4	13.6	4	-1E+10	1	-1E+10	1	-1E+10	1	-1E+10	1	-1E+10	1	-1E+10	1
4901784	166	C	01/20/2020	10:43	-132.617	43.480	0	540.60	0	4.7180	0	36.3640	8	28.796	0	535.587	0	40.0	4	13.0	4	-1E+10	1	-1E+10	1	-1E+10	1	-1E+10	1	-1E+10	1	-1E+10	1
4901784	166	C	01/20/2020	10:43	-132.617	43.480	0	546.00	0	4.6580	0	36.3630	8	28.802	0	540.930	0	40.6	4	13.2	4	-1E+10	1	-1E+10	1	-1E+10	1	-1E+10	1	-1E+10	1	-1E+10	1
4901784	166	C	01/20/2020	10:43	-132.617	43.480	0	550.40	0	4.5960	0	36.3620	8	28.809	0	545.284	0	40.4	4	13.2	4	-1E+10	1	-1E+10	1	-1E+10	1	-1E+10	1	-1E+10	1	-1E+10	1
4901784	166	C	01/20/2020	10:43	-132.617	43.480	0	555.20	0	4.5970	0	36.3660	8	28.812	0	550.033	0	39.4	4	12.8	4	-1E+10	1	-1E+10	1	-1E+10	1	-1E+10	1	-1E+10	1	-1E+10	1
4901784	166	C	01/20/2020	10:43	-132.617	43.480	0	560.10	0	4.5780	0	36.3700	8	28.817	0	554.881	0	38.3	4	12.4	4	-1E+10	1	-1E+10	1	-1E+10	1	-1E+10	1	-1E+10	1	-1E+10	1
4901784	166	C	01/20/2020	10:43	-132.617	43.480	0	565.00	0	4.5650	0	36.3750	8	28.823	0	559.728	0	37.2	4	12.1	4	-1E+10	1	-1E+10	1	-1E+10	1	-1E+10	1	-1E+10	1	-1E+10	1
4901784	166	C	01/20/2020	10:43	-132.617	43.480	0	569.90	0	4.5180	0	36.3800	8	28.832	0	564.576	0	36.6	4	11.9	4	-1E+10	1	-1E+10	1	-1E+10	1	-1E+10	1	-1E+10	1	-1E+10	1
4901784	166	C	01/20/2020	10:43	-132.617	43.480	0	575.00	0	4.5120	0	36.3840	8	28.836	0	569.621	0	35.3	4	11.5	4	-1E+10	1	-1E+10	1	-1E+10	1	-1E+10	1	-1E+10	1	-1E+10	1
4901784	166	C	01/20/2020	10:43	-132.617	43.480	0	580.10	0	4.5120	0	36.3910	8	28.842	0	574.667	0	34.1	4	11.1	4	-1E+10	1	-1E+10	1	-1E+10	1	-1E+10	1	-1E+10	1	-1E+10	1
4901784	166	C	01/20/2020	10:43	-132.617	43.480	0	585.10	0	4.4830	0	36.3960	8	28.849	0	579.613	0	33.0	4	10.7	4	-1E+10	1	-1E+10	1	-1E+10	1	-1E+10	1	-1E+10	1	-1E+10	1
4901784	166	C	01/20/2020	10:43	-132.617	43.480	0	590.30	0	4.4680	0	36.4040	8	28.857	0	584.757	0	31.5	4	10.2	4	-1E+10	1	-1E+10	1	-1E+10	1	-1E+10	1	-1E+10	1	-1E+10	1
4901784	166	C	01/20/2020	10:43	-132.617	43.480	0	595.50	0	4.4680	0	36.4110	8	28.863	0	589.900	0	30.4	4	9.9	4	-1E+10	1	-1E+10	1	-1E+10	1	-1E+10	1	-1E+10	1	-1E+10	1
4901784	166	C	01/20/2020	10:43	-132.617	43.480	0	599.90	0	4.4660	0	36.4130	8	28.864	0	594.253	0	29.8	4	9.7	4	-1E+10	1	-1E+10	1	-1E+10	1	-1E+10	1	-1E+10	1	-1E+10	1
4901784	166	C	01/20/2020	10:43	-132.617	43.480	0	604.30	0	4.4530	0	36.4180	8	28.870	0	598.605	0	29.0	4	9.4	4	-1E+10	1	-1E+10	1	-1E+10	1	-1E+10	1	-1E+10	1	-1E+10	1
4901784	166	C	01/20/2020	10:43	-132.617	43.480	0	609.50	0	4.4410	0	36.4240	8	28.876	0	603.749	0	28.1	4	9.1	4	-1E+10	1	-1E+10	1	-1E+10	1	-1E+10	1	-1E+10	1	-1E+10	1
4901784	166	C	01/20/2020	10:43	-132.617	43.480	0	614.90	0	4.4290	0	36.4280	8	28.881	0	609.090	0	27.5	4	8.9	4	-1E+10	1	-1E+10	1	-1E+10	1	-1E+10	1	-1E+10	1	-1E+10	1
4901784	166	C	01/20/2020	10:43	-132.617	43.480	0	620.40	0	4.4190	0	36.4310	8	28.884	0	614.530	0	26.8	4	8.7	4	-1E+10	1	-1E+10	1	-1E+10	1	-1E+10	1	-1E+10	1	-1E+10	1
4901784	166	C	01/20/2020	10:43	-132.617	43.480	0	624.90	0	4.4040	0	36.4360	8	28.890	0	618.980	0	26.1	4	8.5	4	-1E+10	1	-1E+10	1	-1E+10	1	-1E+10	1	-1E+10	1	-1E+10	1
4901784	166	C	01/20/2020	10:43	-132.617	43.480	0	629.40	0	4.3840	0	36.4390	8	28.895	0	623.431	0	25.4	4	8.2	4	-1E+10	1	-1E+10	1	-1E+10	1	-1E+10	1	-1E+10	1	-1E+10	1
4901784	166	C	01/20/2020	10:43	-132.617	43.480	0	634.80	0	4.3470	0	36.4480	8	28.906	0	628.772	0	24.4	4	7.9	4	-1E+10	1	-1E+10	1	-1E+10	1	-1E+10	1	-1E+10	1	-1E+10	1
4901784	166	C	01/20/2020	10:43	-132.617	43.480	0	640.20	0	4.3370	0	36.4540	8	28.912	0	634.112	0	23.7	4	7.7	4	-1E+10	1	-1E+10	1	-1E+10	1	-1E+10	1	-1E+10	1	-1E+10	1
4901784	166	C	01/20/2020	10:43	-132.617	43.480	0	645.50	0	4.3330	0	36.4580	8	28.916	0	639.354	0	22.9	4	7.4	4	-1E+10	1	-1E+10	1	-1E+10	1	-1E+10	1	-1E+10	1	-1E+10	1
4901784	166	C	01/20/2020	10:43	-132.617	43.480	0	650.00	0	4.3240	0	36.4630	8	28.921	0	643.804	0	22.2	4	7.2	4	-1E+10	1	-1E+10	1	-1E+10	1	-1E+10	1	-1E+10	1	-1E+10	1
4901784	166	C	01/20/2020	10:43	-132.617	43.480	0	654.60	0	4.3040	0	36.4690	8	28.928	0	648.353	0	21.6	4	7.0	4	-1E+10	1	-1E+10	1	-1E+10	1	-1E+10	1	-1E+10	1	-1E+10	1
4901784	166	C	01/20/2020	10:43	-132.617	43.480	0	660.10	0	4.2900	0	36.4700	8	28.930	0	653.792	0	21.0	4	6.8	4	-1E+10	1	-1E+10	1	-1E+10	1	-1E+10	1	-1E+10	1	-1E+10	1
4901784	166	C	01/20/2020	10:43	-132.617	43.480	0	664.80	0	4.2770	0	36.4730	8	28.934	0	658.439	0	20.4	4	6.6	4	-1E+10	1	-1E+10	1	-1E+10	1	-1E+10	1	-1E+10	1	-1E+10	1
4901784	166	C	01/20/2020	10:43	-132.617	43.480	0	669.50	0	4.2600	0	36.4800	8	28.941	0	663.087	0	19.7	4	6.4	4	-1E+10	1	-1E+10	1	-1E+10	1	-1E+10	1	-1E+10	1	-1E+10	1
4901784	166	C	01/20/2020	10:43	-132.617	43.480	0	675.10	0	4.2600	0	36.4880	8	28.948	0	668.624	0	19.1	4	6.2	4	-1E+10	1	-1E+10	1	-1E+10	1	-1E+10	1	-1E+10	1	-1E+10	1
4901784	166	C	01/20/2020	10:43	-132.617	43.480	0	679.80	0	4.2460	0	36.4910	8	28.952	0	673.272	0	18.6	4	6.0	4	-1E+10	1	-1E+10	1	-1E+10	1	-1E+10	1	-1E+10	1	-1E+10	1
4901784	166	C	01/20/2020	10:43	-132.617	43.480	0	684.50	0	4.2490	0	36.4970	8	28.956	0	677.919	0	18.0	4	5.8	4	-1E+10	1	-1E+10	1	-1E+10	1	-1E+10	1	-1E+10	1	-1E+10	1
4901784	166	C	01/20/2020	10:43	-132.617	43.480	0	690.20	0	4.2500	0	36.5040	8	28.962	0	683.555	0	17.4	4	5.6	4	-1E+10	1	-1E+10	1	-1E+10	1	-1E+10	1	-1E+10	1	-1E+10	1
4901784	166	C	01/20/2020	10:43	-132.617	43.480	0	694.90	0	4.2360	0	36.5100	8	28.968	0	688.202	0	17.0	4	5.5	4	-1E+10	1	-1E+10	1	-1E+10	1	-1E+10	1	-1E+10	1	-1E+10	1
4901784	166	C	01/20/2020	10:43	-132.617	43.480	0	699.60	0	4.2290	0	36.5120	8	28.971	0	692.849	0	16.7	4	5.4	4	-1E+10	1	-1E+10	1	-1E+10	1	-1E+10	1	-1E+10	1	-1E+10	1
4901784	166	C	01/20/2020	10:43	-132.617	43.480	0	704.40	0	4.2200	0	36.5140	8	28.973	0	697.594	0	16.3	4	5.3	4	-1E+10	1	-1E+10	1	-1E+10	1	-1E+10	1	-1E+10	1	-1E+10	1
4901784	166	C	01/20/2020	10:43	-132.617	43.480	0	709.20	0	4.1960	0	36.5210	8	28.982	0	702.340	0	15.9	4	5.1	4	-1E+10	1	-1E+10	1	-1E+10	1	-1E+10	1	-1E+10	1	-1E+10	1
4901784	166	C	01/20/2020	10:43	-132.617	43.480	0	714.60	0	4.1780	0	36.5270	8	28.988	0	707.678	0	15.6	4	5.0	4	-1E+10	1	-1E+10	1	-1E+10	1	-1E+10	1	-1E+10	1	-1E+10	1
4901784	166	C	01/20/2020	10:43	-132.617	43.480	0	719.40	0	4.1660	0	36.5310	8	28.993	0	712.424	0	15.3	4	4.9	4	-1E+10	1	-1E+10	1	-1E+10	1	-1E+10	1	-1E+10	1	-1E+10	1
4901784	166	C	01/20/2020	10:43	-132.617	43.480	0	724.30	0	4.1500	0	36.5350	8	28.998	0	717.268	0	15.0	4	4.8	4	-1E+10	1	-1E+10	1	-1E+10	1	-1E+10	1	-1E+10	1	-1E+10	1
4901784	166	C	01/20/2020	10:43	-132.617	43.480	0	730.10	0	4.1280	0	36.5410	8	29.005	0	723.001	0	14.8	4	4.8	4	-1E+10	1	-1E+10	1	-1E+10	1	-1E+10	1	-1E+10	1	-1E+10	1
4901784	166	C	01/20/2020	10:43	-132.617	43.480	0	735.80	0	4.1210	0	36.5450	8	29.009	0	728.636	0	14.6	4	4.7	4	-1E+10	1	-1E+10	1	-1E+10	1	-1E+10	1	-1E+10	1	-1E+10	1
4901784	166	C	01/20/2020	10:43	-132.617	43.480	0	740.70	0	4.1140	0	36.5480	8	29.012	0	733.480	0	14.4	4	4.6	4	-1E+10	1	-1E+10	1	-1E+10	1	-1E+10	1	-1E+10	1	-1E+10	1
4901784	166	C	01/20/2020	10:43	-132.617	43.480	0	745.70	0	4.1090	0	36.5500	8	29.014	0	738.422	0	14.3	4	4.6	4	-1E+10	1	-1E+10	1	-1E+10	1	-1E+10	1	-1E+10	1	-1E+10	1
4901784	166	C	01/20/2020	10:43	-132.617	43.480	0	750.70	0	4.1010	0	36.5520	8	29.017	0	743.364	0	14.1	4	4.5	4	-1E+10	1	-1E+10	1	-1E+10	1	-1E+10	1	-1E+10	1	-1E+10	1
4901784	166	C	01/20/2020	10:43	-132.617	43.480	0	755.80	0	4.0870	0	36.5570	8	29.023	0	748.405	0	13.8	4	4.4	4	-1E+10	1	-1E+10	1	-1E+10	1	-1E+10	1	-1E+10	1	-1E+10	1
4901784	166	C	01/20/2020	10:43	-132.617	43.480	0	760.00	0	4.0800	0	36.5590	8	29.025	0	752.557	0	13.6	4	4.4	4	-1E+10	1	-1E+10	1	-1E+10	1	-1E+10	1	-1E+10	1	-1E+10	1
4901784	166	C	01/20/2020	10:43	-132.617	43.480	0	764.20	0	4.0650	0	36.5620	8	29.029	0	756.708	0	13.4	4	4.3	4	-1E+10	1	-1E+10	1	-1E+10	1	-1E+10	1	-1E+10	1	-1E+10	1
4901784	166	C	01/20/2020	10:43	-132.617	43.480	0	769.40	0	4.0270	0	36.5710	8	29.040	0	761.848	0	13.1	4	4.2	4	-1E+10	1	-1E+10	1	-1E+10	1	-1E+10	1	-1E+10	1	-1E+10	1
4901784	166	C	01/20/2020	10:43	-132.617	43.480	0	774.60	0	4.0100	0	36.5770	8	29.047	0	766.987	0	12.9	4	4.1	4	-1E+10	1	-1E+10	1	-1E+10	1	-1E+10	1	-1E+10	1	-1E+10	1
4901784	166	C	01/20/2020	10:43	-132.617	43.480	0	779.70	0	3.9910	0	36.5800	8	29.051	0	772.027	0	12.7	4	4.1	4	-1E+10	1	-1E+10	1	-1E+10	1	-1E+10	1	-1E+10	1	-1E+10	1
4901784	166	C	01/20/2020	10:43	-132.617	43.480	0	784.90	0	3.9610	0	36.5850	8	29.059	0	777.167	0	12.6	4	4.0	4	-1E+10	1	-1E+10	1	-1E+10	1	-1E+10	1	-1E+10	1	-1E+10	1
4901784	166	C	01/20/2020	10:43	-132.617	43.480	0	790.10	0	3.9440	0	36.5890	8	29.064	0	782.306	0	12.4	4	4.0	4	-1E+10	1	-1E+10	1	-1E+10	1	-1E+10	1	-1E+10	1	-1E+10	1
4901784	166	C	01/20/2020	10:43	-132.617	43.480	0	795.40	0	3.9260	0	36.5950	8	29.071	0	787.543	0	12.2	4	3.9	4	-1E+10	1	-1E+10	1	-1E+10	1	-1E+10	1	-1E+10	1	-1E+10	1
4901784	166	C	01/20/2020	10:43	-132.617	43.480	0	800.70	0	3.9020	0	36.6010	8	29.078	0	792.781	0	12.0	4	3.8	4	-1E+10	1	-1E+10	1	-1E+10	1	-1E+10	1	-1E+10	1	-1E+10	1
4901784	166	C	01/20/2020	10:43	-132.617	43.480	0	805.00	0	3.8880	0	36.6050	8	29.083	0	797.030	0	11.9	4	3.8	4	-1E+10	1	-1E+10	1	-1E+10	1	-1E+10	1	-1E+10	1	-1E+10	1
4901784	166	C	01/20/2020	10:43	-132.617	43.480	0	809.30	0	3.8770	0	36.6090	8	29.087	0	801.279	0	11.8	4	3.8	4	-1E+10	1	-1E+10	1	-1E+10	1	-1E+10	1	-1E+10	1	-1E+10	1
4901784	166	C	01/20/2020	10:43	-132.617	43.480	0	814.60	0	3.8720	0	36.6120	8	29.090	0	806.517	0	11.7	4	3.8	4	-1E+10	1	-1E+10	1	-1E+10	1	-1E+10	1	-1E+10	1	-1E+10	1
4901784	166	C	01/20/2020	10:43	-132.617	43.480	0	819.90	0	3.8660	0	36.6150	8	29.093	0	811.754	0	11.6	4	3.7	4	-1E+10	1	-1E+10	1	-1E+10	1	-1E+10	1	-1E+10	1	-1E+10	1
4901784	166	C	01/20/2020	10:43	-132.617	43.480	0	825.10	0	3.8540	0	36.6180	8	29.097	0	816.892	0	11.5	4	3.7	4	-1E+10	1	-1E+10	1	-1E+10	1	-1E+10	1	-1E+10	1	-1E+10	1
4901784	166	C	01/20/2020	10:43	-132.617	43.480	0	830.30	0	3.8450	0	36.6220	8	29.101	0	822.030	0	11.4	4	3.6	4	-1E+10	1	-1E+10	1	-1E+10	1	-1E+10	1	-1E+10	1	-1E+10	1
4901784	166	C	01/20/2020	10:43	-132.617	43.480	0	835.60	0	3.8340	0	36.6250	8	29.105	0	827.267	0	11.3	4	3.6	4	-1E+10	1	-1E+10	1	-1E+10	1	-1E+10	1	-1E+10	1	-1E+10	1
4901784	166	C	01/20/2020	10:43	-132.617	43.480	0	840.00	0	3.8260	0	36.6270	8	29.107	0	831.614	0	11.2	4	3.6	4	-1E+10	1	-1E+10	1	-1E+10	1	-1E+10	1	-1E+10	1	-1E+10	1
4901784	166	C	01/20/2020	10:43	-132.617	43.480	0	844.50	0	3.8140	0	36.6310	8	29.112	0	836.060	0	11.1	4	3.6	4	-1E+10	1	-1E+10	1	-1E+10	1	-1E+10	1	-1E+10	1	-1E+10	1
4901784	166	C	01/20/2020	10:43	-132.617	43.480	0	849.90	0	3.8050	0	36.6360	8	29.117	0	841.395	0	11.0	4	3.5	4	-1E+10	1	-1E+10	1	-1E+10	1	-1E+10	1	-1E+10	1	-1E+10	1
4901784	166	C	01/20/2020	10:43	-132.617	43.480	0	855.30	0	3.7990	0	36.6410	8	29.121	0	846.730	0	10.9	4	3.5	4	-1E+10	1	-1E+10	1	-1E+10	1	-1E+10	1	-1E+10	1	-1E+10	1
4901784	166	C	01/20/2020	10:43	-132.617	43.480	0	860.60	0	3.7910	0	36.6450	8	29.125	0	851.966	0	10.8	4	3.5	4	-1E+10	1	-1E+10	1	-1E+10	1	-1E+10	1	-1E+10	1	-1E+10	1
4901784	166	C	01/20/2020	10:43	-132.617	43.480	0	865.10	0	3.7680	0	36.6510	8	29.133	0	856.412	0	10.8	4	3.5	4	-1E+10	1	-1E+10	1	-1E+10	1	-1E+10	1	-1E+10	1	-1E+10	1
4901784	166	C	01/20/2020	10:43	-132.617	43.480	0	869.70	0	3.7580	0	36.6530	8	29.135	0	860.956	0	10.8	4	3.4	4	-1E+10	1	-1E+10	1	-1E+10	1	-1E+10	1	-1E+10	1	-1E+10	1
4901784	166	C	01/20/2020	10:43	-132.617	43.480	0	875.20	0	3.7520	0	36.6550	8	29.138	0	866.390	0	10.7	4	3.4	4	-1E+10	1	-1E+10	1	-1E+10	1	-1E+10	1	-1E+10	1	-1E+10	1
4901784	166	C	01/20/2020	10:43	-132.617	43.480	0	880.60	0	3.7470	0	36.6590	8	29.141	0	871.724	0	10.6	4	3.4	4	-1E+10	1	-1E+10	1	-1E+10	1	-1E+10	1	-1E+10	1	-1E+10	1
4901784	166	C	01/20/2020	10:43	-132.617	43.480	0	885.30	0	3.7340	0	36.6630	8	29.146	0	876.367	0	10.5	4	3.4	4	-1E+10	1	-1E+10	1	-1E+10	1	-1E+10	1	-1E+10	1	-1E+10	1
4901784	166	C	01/20/2020	10:43	-132.617	43.480	0	889.80	0	3.7350	0	36.6650	8	29.147	0	880.812	0	10.5	4	3.3	4	-1E+10	1	-1E+10	1	-1E+10	1	-1E+10	1	-1E+10	1	-1E+10	1
4901784	166	C	01/20/2020	10:43	-132.617	43.480	0	895.10	0	3.7240	0	36.6700	8	29.153	0	886.047	0	10.4	4	3.3	4	-1E+10	1	-1E+10	1	-1E+10	1	-1E+10	1	-1E+10	1	-1E+10	1
4901784	166	C	01/20/2020	10:43	-132.617	43.480	0	899.30	0	3.7100	0	36.6740	8	29.157	0	890.196	0	10.3	4	3.3	4	-1E+10	1	-1E+10	1	-1E+10	1	-1E+10	1	-1E+10	1	-1E+10	1
4901784	166	C	01/20/2020	10:43	-132.617	43.480	0	905.00	0	3.6900	0	36.6780	8	29.163	0	895.826	0	10.3	4	3.3	4	-1E+10	1	-1E+10	1	-1E+10	1	-1E+10	1	-1E+10	1	-1E+10	1
4901784	166	C	01/20/2020	10:43	-132.617	43.480	0	910.70	0	3.6810	0	36.6850	8	29.169	0	901.456	0	10.2	4	3.3	4	-1E+10	1	-1E+10	1	-1E+10	1	-1E+10	1	-1E+10	1	-1E+10	1
4901784	166	C	01/20/2020	10:43	-132.617	43.480	0	915.60	0	3.6730	0	36.6890	8	29.173	0	906.296	0	10.2	4	3.2	4	-1E+10	1	-1E+10	1	-1E+10	1	-1E+10	1	-1E+10	1	-1E+10	1
4901784	166	C	01/20/2020	10:43	-132.617	43.480	0	920.50	0	3.6560	0	36.6920	8	29.177	0	911.135	0	10.2	4	3.2	4	-1E+10	1	-1E+10	1	-1E+10	1	-1E+10	1	-1E+10	1	-1E+10	1
4901784	166	C	01/20/2020	10:43	-132.617	43.480	0	925.50	0	3.6430	0	36.6940	8	29.180	0	916.073	0	10.2	4	3.2	4	-1E+10	1	-1E+10	1	-1E+10	1	-1E+10	1	-1E+10	1	-1E+10	1
4901784	166	C	01/20/2020	10:43	-132.617	43.480	0	930.60	0	3.6380	0	36.6960	8	29.183	0	921.110	0	10.1	4	3.2	4	-1E+10	1	-1E+10	1	-1E+10	1	-1E+10	1	-1E+10	1	-1E+10	1
4901784	166	C	01/20/2020	10:43	-132.617	43.480	0	935.80	0	3.6390	0	36.7000	8	29.186	0	926.246	0	10.1	4	3.2	4	-1E+10	1	-1E+10	1	-1E+10	1	-1E+10	1	-1E+10	1	-1E+10	1
4901784	166	C	01/20/2020	10:43	-132.617	43.480	0	940.00	0	3.6350	0	36.7020	8	29.188	0	930.393	0	10.1	4	3.2	4	-1E+10	1	-1E+10	1	-1E+10	1	-1E+10	1	-1E+10	1	-1E+10	1
4901784	166	C	01/20/2020	10:43	-132.617	43.480	0	944.30	0	3.6210	0	36.7040	8	29.191	0	934.640	0	10.1	4	3.2	4	-1E+10	1	-1E+10	1	-1E+10	1	-1E+10	1	-1E+10	1	-1E+10	1
4901784	166	C	01/20/2020	10:43	-132.617	43.480	0	949.40	0	3.6060	0	36.7070	8	29.195	0	939.676	0	10.1	4	3.2	4	-1E+10	1	-1E+10	1	-1E+10	1	-1E+10	1	-1E+10	1	-1E+10	1
4901784	166	C	01/20/2020	10:43	-132.617	43.480	0	954.60	0	3.6050	0	36.7090	8	29.197	0	944.811	0	10.1	4	3.2	4	-1E+10	1	-1E+10	1	-1E+10	1	-1E+10	1	-1E+10	1	-1E+10	1
4901784	166	C	01/20/2020	10:43	-132.617	43.480	0	959.80	0	3.6030	0	36.7120	8	29.199	0	949.946	0	10.1	4	3.2	4	-1E+10	1	-1E+10	1	-1E+10	1	-1E+10	1	-1E+10	1	-1E+10	1
4901784	166	C	01/20/2020	10:43	-132.617	43.480	0	965.10	0	3.6000	0	36.7160	8	29.203	0	955.180	0	10.1	4	3.2	4	-1E+10	1	-1E+10	1	-1E+10	1	-1E+10	1	-1E+10	1	-1E+10	1
4901784	166	C	01/20/2020	10:43	-132.617	43.480	0	970.40	0	3.5970	0	36.7180	8	29.205	0	960.413	0	10.1	4	3.2	4	-1E+10	1	-1E+10	1	-1E+10	1	-1E+10	1	-1E+10	1	-1E+10	1
4901784	166	C	01/20/2020	10:43	-132.617	43.480	0	974.90	0	3.5930	0	36.7190	8	29.206	0	964.856	0	10.1	4	3.2	4	-1E+10	1	-1E+10	1	-1E+10	1	-1E+10	1	-1E+10	1	-1E+10	1
4901784	166	C	01/20/2020	10:43	-132.617	43.480	0	979.30	0	3.5820	0	36.7200	8	29.208	0	969.201	0	10.2	4	3.2	4	-1E+10	1	-1E+10	1	-1E+10	1	-1E+10	1	-1E+10	1	-1E+10	1
4901784	166	C	01/20/2020	10:43	-132.617	43.480	0	984.50	0	3.5380	0	36.7260	8	29.217	0	974.335	0	10.3	4	3.3	4	-1E+10	1	-1E+10	1	-1E+10	1	-1E+10	1	-1E+10	1	-1E+10	1
4901784	166	C	01/20/2020	10:43	-132.617	43.480	0	990.00	0	3.5060	0	36.7350	8	29.228	0	979.766	0	10.3	4	3.3	4	-1E+10	1	-1E+10	1	-1E+10	1	-1E+10	1	-1E+10	1	-1E+10	1
4901784	166	C	01/20/2020	10:43	-132.617	43.480	0	995.50	0	3.4920	0	36.7390	8	29.232	0	985.196	0	10.4	4	3.3	4	-1E+10	1	-1E+10	1	-1E+10	1	-1E+10	1	-1E+10	1	-1E+10	1
4901784	166	C	01/20/2020	10:43	-132.617	43.480	0	1000.30	0	3.4890	0	36.7400	8	29.234	0	989.935	0	10.4	4	3.3	4	-1E+10	1	-1E+10	1	-1E+10	1	-1E+10	1	-1E+10	1	-1E+10	1
4901784	166	C	01/20/2020	10:43	-132.617	43.480	0	1005.20	0	3.4850	0	36.7410	8	29.235	0	994.772	0	10.4	4	3.3	4	-1E+10	1	-1E+10	1	-1E+10	1	-1E+10	1	-1E+10	1	-1E+10	1
4901784	166	C	01/20/2020	10:43	-132.617	43.480	0	1010.20	0	3.4800	0	36.7400	8	29.235	0	999.709	0	10.4	4	3.3	4	-1E+10	1	-1E+10	1	-1E+10	1	-1E+10	1	-1E+10	1	-1E+10	1
4901784	166	C	01/20/2020	10:43	-132.617	43.480	0	1015.30	0	3.4560	0	36.7450	8	29.241	0	1004.743	0	10.5	4	3.3	4	-1E+10	1	-1E+10	1	-1E+10	1	-1E+10	1	-1E+10	1	-1E+10	1
4901784	166	C	01/20/2020	10:43	-132.617	43.480	0	1020.30	0	3.4400	0	36.7500	8	29.247	0	1009.679	0	10.5	4	3.3	4	-1E+10	1	-1E+10	1	-1E+10	1	-1E+10	1	-1E+10	1	-1E+10	1
4901784	166	C	01/20/2020	10:43	-132.617	43.480	0	1025.40	0	3.4260	0	36.7540	8	29.251	0	1014.714	0	10.6	4	3.4	4	-1E+10	1	-1E+10	1	-1E+10	1	-1E+10	1	-1E+10	1	-1E+10	1
4901784	166	C	01/20/2020	10:43	-132.617	43.480	0	1030.50	0	3.4130	0	36.7570	8	29.255	0	1019.748	0	10.6	4	3.4	4	-1E+10	1	-1E+10	1	-1E+10	1	-1E+10	1	-1E+10	1	-1E+10	1
4901784	166	C	01/20/2020	10:43	-132.617	43.480	0	1035.70	0	3.4060	0	36.7590	8	29.257	0	1024.881	0	10.7	4	3.4	4	-1E+10	1	-1E+10	1	-1E+10	1	-1E+10	1	-1E+10	1	-1E+10	1
4901784	166	C	01/20/2020	10:43	-132.617	43.480	0	1040.10	0	3.4040	0	36.7600	8	29.259	0	1029.225	0	10.7	4	3.4	4	-1E+10	1	-1E+10	1	-1E+10	1	-1E+10	1	-1E+10	1	-1E+10	1
4901784	166	C	01/20/2020	10:43	-132.617	43.480	0	1044.40	0	3.4000	0	36.7620	8	29.261	0	1033.469	0	10.7	4	3.4	4	-1E+10	1	-1E+10	1	-1E+10	1	-1E+10	1	-1E+10	1	-1E+10	1
4901784	166	C	01/20/2020	10:43	-132.617	43.480	0	1049.70	0	3.3950	0	36.7650	8	29.264	0	1038.700	0	10.8	4	3.4	4	-1E+10	1	-1E+10	1	-1E+10	1	-1E+10	1	-1E+10	1	-1E+10	1
4901784	166	C	01/20/2020	10:43	-132.617	43.480	0	1054.90	0	3.3940	0	36.7660	8	29.264	0	1043.833	0	10.9	4	3.4	4	-1E+10	1	-1E+10	1	-1E+10	1	-1E+10	1	-1E+10	1	-1E+10	1
4901784	166	C	01/20/2020	10:43	-132.617	43.480	0	1060.20	0	3.3820	0	36.7700	8	29.269	0	1049.064	0	10.9	4	3.5	4	-1E+10	1	-1E+10	1	-1E+10	1	-1E+10	1	-1E+10	1	-1E+10	1
4901784	166	C	01/20/2020	10:43	-132.617	43.480	0	1065.50	0	3.3780	0	36.7730	8	29.272	0	1054.295	0	11.0	4	3.5	4	-1E+10	1	-1E+10	1	-1E+10	1	-1E+10	1	-1E+10	1	-1E+10	1
4901784	166	C	01/20/2020	10:43	-132.617	43.480	0	1070.80	0	3.3760	0	36.7740	8	29.273	0	1059.526	0	11.1	4	3.5	4	-1E+10	1	-1E+10	1	-1E+10	1	-1E+10	1	-1E+10	1	-1E+10	1
4901784	166	C	01/20/2020	10:43	-132.617	43.480	0	1075.10	0	3.3700	0	36.7760	8	29.275	0	1063.770	0	11.1	4	3.5	4	-1E+10	1	-1E+10	1	-1E+10	1	-1E+10	1	-1E+10	1	-1E+10	1
4901784	166	C	01/20/2020	10:43	-132.617	43.480	0	1079.50	0	3.3610	0	36.7790	8	29.278	0	1068.112	0	11.2	4	3.6	4	-1E+10	1	-1E+10	1	-1E+10	1	-1E+10	1	-1E+10	1	-1E+10	1
4901784	166	C	01/20/2020	10:43	-132.617	43.480	0	1084.80	0	3.3560	0	36.7820	8	29.281	0	1073.343	0	11.3	4	3.6	4	-1E+10	1	-1E+10	1	-1E+10	1	-1E+10	1	-1E+10	1	-1E+10	1
4901784	166	C	01/20/2020	10:43	-132.617	43.480	0	1090.00	0	3.3520	0	36.7820	8	29.282	0	1078.475	0	11.4	4	3.6	4	-1E+10	1	-1E+10	1	-1E+10	1	-1E+10	1	-1E+10	1	-1E+10	1
4901784	166	C	01/20/2020	10:43	-132.617	43.480	0	1095.20	0	3.3330	0	36.7870	8	29.288	0	1083.606	0	11.6	4	3.7	4	-1E+10	1	-1E+10	1	-1E+10	1	-1E+10	1	-1E+10	1	-1E+10	1
4901784	166	C	01/20/2020	10:43	-132.617	43.480	0	1100.40	0	3.3200	0	36.7900	8	29.291	0	1088.738	0	11.7	4	3.7	4	-1E+10	1	-1E+10	1	-1E+10	1	-1E+10	1	-1E+10	1	-1E+10	1
4901784	166	C	01/20/2020	10:43	-132.617	43.480	0	1105.70	0	3.3080	0	36.7920	8	29.294	0	1093.968	0	11.7	4	3.7	4	-1E+10	1	-1E+10	1	-1E+10	1	-1E+10	1	-1E+10	1	-1E+10	1
4901784	166	C	01/20/2020	10:43	-132.617	43.480	0	1110.40	0	3.3030	0	36.7930	8	29.296	0	1098.606	0	11.8	4	3.7	4	-1E+10	1	-1E+10	1	-1E+10	1	-1E+10	1	-1E+10	1	-1E+10	1
4901784	166	C	01/20/2020	10:43	-132.617	43.480	0	1115.30	0	3.2910	0	36.7960	8	29.299	0	1103.441	0	11.9	4	3.8	4	-1E+10	1	-1E+10	1	-1E+10	1	-1E+10	1	-1E+10	1	-1E+10	1
4901784	166	C	01/20/2020	10:43	-132.617	43.480	0	1120.10	0	3.2850	0	36.7980	8	29.301	0	1108.177	0	12.0	4	3.8	4	-1E+10	1	-1E+10	1	-1E+10	1	-1E+10	1	-1E+10	1	-1E+10	1
4901784	166	C	01/20/2020	10:43	-132.617	43.480	0	1124.90	0	3.2780	0	36.7990	8	29.303	0	1112.913	0	12.1	4	3.8	4	-1E+10	1	-1E+10	1	-1E+10	1	-1E+10	1	-1E+10	1	-1E+10	1
4901784	166	C	01/20/2020	10:43	-132.617	43.480	0	1129.80	0	3.2680	0	36.8010	8	29.306	0	1117.748	0	12.2	4	3.8	4	-1E+10	1	-1E+10	1	-1E+10	1	-1E+10	1	-1E+10	1	-1E+10	1
4901784	166	C	01/20/2020	10:43	-132.617	43.480	0	1134.60	0	3.2590	0	36.8030	8	29.308	0	1122.484	0	12.2	4	3.9	4	-1E+10	1	-1E+10	1	-1E+10	1	-1E+10	1	-1E+10	1	-1E+10	1
4901784	166	C	01/20/2020	10:43	-132.617	43.480	0	1140.40	0	3.2530	0	36.8040	8	29.310	0	1128.206	0	12.4	4	3.9	4	-1E+10	1	-1E+10	1	-1E+10	1	-1E+10	1	-1E+10	1	-1E+10	1
4901784	166	C	01/20/2020	10:43	-132.617	43.480	0	1145.20	0	3.2380	0	36.8070	8	29.314	0	1132.942	0	12.5	4	4.0	4	-1E+10	1	-1E+10	1	-1E+10	1	-1E+10	1	-1E+10	1	-1E+10	1
4901784	166	C	01/20/2020	10:43	-132.617	43.480	0	1150.00	0	3.2230	0	36.8110	8	29.318	0	1137.678	0	12.6	4	4.0	4	-1E+10	1	-1E+10	1	-1E+10	1	-1E+10	1	-1E+10	1	-1E+10	1
4901784	166	C	01/20/2020	10:43	-132.617	43.480	0	1154.90	0	3.2160	0	36.8120	8	29.320	0	1142.512	0	12.7	4	4.0	4	-1E+10	1	-1E+10	1	-1E+10	1	-1E+10	1	-1E+10	1	-1E+10	1
4901784	166	C	01/20/2020	10:43	-132.617	43.480	0	1159.70	0	3.2110	0	36.8130	8	29.321	0	1147.247	0	12.8	4	4.0	4	-1E+10	1	-1E+10	1	-1E+10	1	-1E+10	1	-1E+10	1	-1E+10	1
4901784	166	C	01/20/2020	10:43	-132.617	43.480	0	1165.50	0	3.2010	0	36.8150	8	29.324	0	1152.969	0	12.9	4	4.1	4	-1E+10	1	-1E+10	1	-1E+10	1	-1E+10	1	-1E+10	1	-1E+10	1
4901784	166	C	01/20/2020	10:43	-132.617	43.480	0	1170.40	0	3.1890	0	36.8170	8	29.327	0	1157.803	0	13.0	4	4.1	4	-1E+10	1	-1E+10	1	-1E+10	1	-1E+10	1	-1E+10	1	-1E+10	1
4901784	166	C	01/20/2020	10:43	-132.617	43.480	0	1175.30	0	3.1820	0	36.8180	8	29.328	0	1162.637	0	13.1	4	4.1	4	-1E+10	1	-1E+10	1	-1E+10	1	-1E+10	1	-1E+10	1	-1E+10	1
4901784	166	C	01/20/2020	10:43	-132.617	43.480	0	1180.20	0	3.1650	0	36.8210	8	29.332	0	1167.470	0	13.3	4	4.2	4	-1E+10	1	-1E+10	1	-1E+10	1	-1E+10	1	-1E+10	1	-1E+10	1
4901784	166	C	01/20/2020	10:43	-132.617	43.480	0	1185.10	0	3.1500	0	36.8230	8	29.335	0	1172.304	0	13.4	4	4.2	4	-1E+10	1	-1E+10	1	-1E+10	1	-1E+10	1	-1E+10	1	-1E+10	1
4901784	166	C	01/20/2020	10:43	-132.617	43.480	0	1190.10	0	3.1350	0	36.8260	8	29.339	0	1177.236	0	13.6	4	4.3	4	-1E+10	1	-1E+10	1	-1E+10	1	-1E+10	1	-1E+10	1	-1E+10	1
4901784	166	C	01/20/2020	10:43	-132.617	43.480	0	1195.00	0	3.1260	0	36.8270	8	29.341	0	1182.069	0	13.7	4	4.3	4	-1E+10	1	-1E+10	1	-1E+10	1	-1E+10	1	-1E+10	1	-1E+10	1
4901784	166	C	01/20/2020	10:43	-132.617	43.480	0	1199.90	0	3.1130	0	36.8300	8	29.345	0	1186.902	0	13.8	4	4.4	4	-1E+10	1	-1E+10	1	-1E+10	1	-1E+10	1	-1E+10	1	-1E+10	1
4901784	166	C	01/20/2020	10:43	-132.617	43.480	0	1204.90	0	3.0960	0	36.8320	8	29.348	0	1191.834	0	14.0	4	4.4	4	-1E+10	1	-1E+10	1	-1E+10	1	-1E+10	1	-1E+10	1	-1E+10	1
4901784	166	C	01/20/2020	10:43	-132.617	43.480	0	1209.80	0	3.0900	0	36.8330	8	29.349	0	1196.667	0	14.0	4	4.4	4	-1E+10	1	-1E+10	1	-1E+10	1	-1E+10	1	-1E+10	1	-1E+10	1
4901784	166	C	01/20/2020	10:43	-132.617	43.480	0	1214.80	0	3.0840	0	36.8340	8	29.351	0	1201.598	0	14.2	4	4.5	4	-1E+10	1	-1E+10	1	-1E+10	1	-1E+10	1	-1E+10	1	-1E+10	1
4901784	166	C	01/20/2020	10:43	-132.617	43.480	0	1219.70	0	3.0690	0	36.8360	8	29.354	0	1206.431	0	14.4	4	4.5	4	-1E+10	1	-1E+10	1	-1E+10	1	-1E+10	1	-1E+10	1	-1E+10	1
4901784	166	C	01/20/2020	10:43	-132.617	43.480	0	1224.50	0	3.0500	0	36.8390	8	29.358	0	1211.165	0	14.5	4	4.6	4	-1E+10	1	-1E+10	1	-1E+10	1	-1E+10	1	-1E+10	1	-1E+10	1
4901784	166	C	01/20/2020	10:43	-132.617	43.480	0	1230.20	0	3.0350	0	36.8420	8	29.362	0	1216.786	0	14.7	4	4.6	4	-1E+10	1	-1E+10	1	-1E+10	1	-1E+10	1	-1E+10	1	-1E+10	1
4901784	166	C	01/20/2020	10:43	-132.617	43.480	0	1235.10	0	3.0270	0	36.8430	8	29.364	0	1221.619	0	14.9	4	4.7	4	-1E+10	1	-1E+10	1	-1E+10	1	-1E+10	1	-1E+10	1	-1E+10	1
4901784	166	C	01/20/2020	10:43	-132.617	43.480	0	1239.60	0	3.0060	0	36.8460	8	29.368	0	1226.057	0	15.1	4	4.7	4	-1E+10	1	-1E+10	1	-1E+10	1	-1E+10	1	-1E+10	1	-1E+10	1
4901784	166	C	01/20/2020	10:43	-132.617	43.480	0	1244.90	0	2.9980	0	36.8470	8	29.370	0	1231.283	0	15.2	4	4.8	4	-1E+10	1	-1E+10	1	-1E+10	1	-1E+10	1	-1E+10	1	-1E+10	1
4901784	166	C	01/20/2020	10:43	-132.617	43.480	0	1250.20	0	2.9900	0	36.8480	8	29.371	0	1236.510	0	15.4	4	4.8	4	-1E+10	1	-1E+10	1	-1E+10	1	-1E+10	1	-1E+10	1	-1E+10	1
4901784	166	C	01/20/2020	10:43	-132.617	43.480	0	1255.50	0	2.9720	0	36.8510	8	29.375	0	1241.736	0	15.6	4	4.9	4	-1E+10	1	-1E+10	1	-1E+10	1	-1E+10	1	-1E+10	1	-1E+10	1
4901784	166	C	01/20/2020	10:43	-132.617	43.480	0	1260.00	0	2.9640	0	36.8530	8	29.378	0	1246.173	0	15.7	4	4.9	4	-1E+10	1	-1E+10	1	-1E+10	1	-1E+10	1	-1E+10	1	-1E+10	1
4901784	166	C	01/20/2020	10:43	-132.617	43.480	0	1264.40	0	2.9570	0	36.8540	8	29.379	0	1250.512	0	15.9	4	5.0	4	-1E+10	1	-1E+10	1	-1E+10	1	-1E+10	1	-1E+10	1	-1E+10	1
4901784	166	C	01/20/2020	10:43	-132.617	43.480	0	1269.90	0	2.9420	0	36.8560	8	29.382	0	1255.935	0	16.1	4	5.1	4	-1E+10	1	-1E+10	1	-1E+10	1	-1E+10	1	-1E+10	1	-1E+10	1
4901784	166	C	01/20/2020	10:43	-132.617	43.480	0	1275.30	0	2.9300	0	36.8590	8	29.386	0	1261.260	0	16.3	4	5.1	4	-1E+10	1	-1E+10	1	-1E+10	1	-1E+10	1	-1E+10	1	-1E+10	1
4901784	166	C	01/20/2020	10:43	-132.617	43.480	0	1279.80	0	2.9200	0	36.8600	8	29.388	0	1265.697	0	16.5	4	5.2	4	-1E+10	1	-1E+10	1	-1E+10	1	-1E+10	1	-1E+10	1	-1E+10	1
4901784	166	C	01/20/2020	10:43	-132.617	43.480	0	1284.30	0	2.9130	0	36.8620	8	29.390	0	1270.134	0	16.6	4	5.2	4	-1E+10	1	-1E+10	1	-1E+10	1	-1E+10	1	-1E+10	1	-1E+10	1
4901784	166	C	01/20/2020	10:43	-132.617	43.480	0	1289.60	0	2.9010	0	36.8640	8	29.393	0	1275.359	0	16.8	4	5.3	4	-1E+10	1	-1E+10	1	-1E+10	1	-1E+10	1	-1E+10	1	-1E+10	1
4901784	166	C	01/20/2020	10:43	-132.617	43.480	0	1294.40	0	2.8910	0	36.8660	8	29.395	0	1280.091	0	17.0	4	5.3	4	-1E+10	1	-1E+10	1	-1E+10	1	-1E+10	1	-1E+10	1	-1E+10	1
4901784	166	C	01/20/2020	10:43	-132.617	43.480	0	1300.00	0	2.8790	0	36.8680	8	29.398	0	1285.612	0	17.2	4	5.4	4	-1E+10	1	-1E+10	1	-1E+10	1	-1E+10	1	-1E+10	1	-1E+10	1
4901784	166	C	01/20/2020	10:43	-132.617	43.480	0	1305.70	0	2.8720	0	36.8690	8	29.400	0	1291.232	0	17.4	4	5.5	4	-1E+10	1	-1E+10	1	-1E+10	1	-1E+10	1	-1E+10	1	-1E+10	1
4901784	166	C	01/20/2020	10:43	-132.617	43.480	0	1310.60	0	2.8620	0	36.8710	8	29.402	0	1296.062	0	17.6	4	5.5	4	-1E+10	1	-1E+10	1	-1E+10	1	-1E+10	1	-1E+10	1	-1E+10	1
4901784	166	C	01/20/2020	10:43	-132.617	43.480	0	1315.50	0	2.8540	0	36.8720	8	29.404	0	1300.893	0	17.8	4	5.6	4	-1E+10	1	-1E+10	1	-1E+10	1	-1E+10	1	-1E+10	1	-1E+10	1
4901784	166	C	01/20/2020	10:43	-132.617	43.480	0	1320.40	0	2.8420	0	36.8750	8	29.407	0	1305.723	0	18.1	4	5.7	4	-1E+10	1	-1E+10	1	-1E+10	1	-1E+10	1	-1E+10	1	-1E+10	1
4901784	166	C	01/20/2020	10:43	-132.617	43.480	0	1325.40	0	2.8340	0	36.8760	8	29.409	0	1310.652	0	18.4	4	5.7	4	-1E+10	1	-1E+10	1	-1E+10	1	-1E+10	1	-1E+10	1	-1E+10	1
4901784	166	C	01/20/2020	10:43	-132.617	43.480	0	1330.50	0	2.8170	0	36.8790	8	29.413	0	1315.680	0	18.7	4	5.8	4	-1E+10	1	-1E+10	1	-1E+10	1	-1E+10	1	-1E+10	1	-1E+10	1
4901784	166	C	01/20/2020	10:43	-132.617	43.480	0	1335.50	0	2.8000	0	36.8820	8	29.417	0	1320.608	0	19.0	4	5.9	4	-1E+10	1	-1E+10	1	-1E+10	1	-1E+10	1	-1E+10	1	-1E+10	1
4901784	166	C	01/20/2020	10:43	-132.617	43.480	0	1340.60	0	2.7920	0	36.8840	8	29.420	0	1325.635	0	19.1	4	6.0	4	-1E+10	1	-1E+10	1	-1E+10	1	-1E+10	1	-1E+10	1	-1E+10	1
4901784	166	C	01/20/2020	10:43	-132.617	43.480	0	1345.00	0	2.7880	0	36.8850	8	29.421	0	1329.972	0	19.3	4	6.0	4	-1E+10	1	-1E+10	1	-1E+10	1	-1E+10	1	-1E+10	1	-1E+10	1
4901784	166	C	01/20/2020	10:43	-132.617	43.480	0	1349.30	0	2.7860	0	36.8860	8	29.422	0	1334.211	0	19.4	4	6.1	4	-1E+10	1	-1E+10	1	-1E+10	1	-1E+10	1	-1E+10	1	-1E+10	1
4901784	166	C	01/20/2020	10:43	-132.617	43.480	0	1354.50	0	2.7770	0	36.8870	8	29.423	0	1339.336	0	19.7	4	6.2	4	-1E+10	1	-1E+10	1	-1E+10	1	-1E+10	1	-1E+10	1	-1E+10	1
4901784	166	C	01/20/2020	10:43	-132.617	43.480	0	1359.60	0	2.7660	0	36.8890	8	29.426	0	1344.363	0	19.9	4	6.2	4	-1E+10	1	-1E+10	1	-1E+10	1	-1E+10	1	-1E+10	1	-1E+10	1
4901784	166	C	01/20/2020	10:43	-132.617	43.480	0	1364.90	0	2.7600	0	36.8900	8	29.428	0	1349.586	0	20.1	4	6.3	4	-1E+10	1	-1E+10	1	-1E+10	1	-1E+10	1	-1E+10	1	-1E+10	1
4901784	166	C	01/20/2020	10:43	-132.617	43.480	0	1370.20	0	2.7540	0	36.8910	8	29.429	0	1354.810	0	20.3	4	6.4	4	-1E+10	1	-1E+10	1	-1E+10	1	-1E+10	1	-1E+10	1	-1E+10	1
4901784	166	C	01/20/2020	10:43	-132.617	43.480	0	1375.60	0	2.7440	0	36.8930	8	29.431	0	1360.132	0	20.6	4	6.4	4	-1E+10	1	-1E+10	1	-1E+10	1	-1E+10	1	-1E+10	1	-1E+10	1
4901784	166	C	01/20/2020	10:43	-132.617	43.480	0	1380.10	0	2.7350	0	36.8950	8	29.434	0	1364.567	0	20.8	4	6.5	4	-1E+10	1	-1E+10	1	-1E+10	1	-1E+10	1	-1E+10	1	-1E+10	1
4901784	166	C	01/20/2020	10:43	-132.617	43.480	0	1384.60	0	2.7230	0	36.8970	8	29.437	0	1369.001	0	21.0	4	6.6	4	-1E+10	1	-1E+10	1	-1E+10	1	-1E+10	1	-1E+10	1	-1E+10	1
4901784	166	C	01/20/2020	10:43	-132.617	43.480	0	1390.00	0	2.7150	0	36.8980	8	29.438	0	1374.323	0	21.3	4	6.6	4	-1E+10	1	-1E+10	1	-1E+10	1	-1E+10	1	-1E+10	1	-1E+10	1
4901784	166	C	01/20/2020	10:43	-132.617	43.480	0	1395.10	0	2.7060	0	36.8990	8	29.440	0	1379.349	0	21.5	4	6.7	4	-1E+10	1	-1E+10	1	-1E+10	1	-1E+10	1	-1E+10	1	-1E+10	1
4901784	166	C	01/20/2020	10:43	-132.617	43.480	0	1399.30	0	2.6980	0	36.9010	8	29.442	0	1383.488	0	21.8	4	6.8	4	-1E+10	1	-1E+10	1	-1E+10	1	-1E+10	1	-1E+10	1	-1E+10	1
4901784	166	C	01/20/2020	10:43	-132.617	43.480	0	1404.90	0	2.6830	0	36.9030	8	29.445	0	1389.006	0	22.1	4	6.9	4	-1E+10	1	-1E+10	1	-1E+10	1	-1E+10	1	-1E+10	1	-1E+10	1
4901784	166	C	01/20/2020	10:43	-132.617	43.480	0	1410.60	0	2.6720	0	36.9050	8	29.448	0	1394.623	0	22.4	4	7.0	4	-1E+10	1	-1E+10	1	-1E+10	1	-1E+10	1	-1E+10	1	-1E+10	1
4901784	166	C	01/20/2020	10:43	-132.617	43.480	0	1415.50	0	2.6650	0	36.9060	8	29.449	0	1399.451	0	22.6	4	7.1	4	-1E+10	1	-1E+10	1	-1E+10	1	-1E+10	1	-1E+10	1	-1E+10	1
4901784	166	C	01/20/2020	10:43	-132.617	43.480	0	1420.40	0	2.6550	0	36.9080	8	29.452	0	1404.279	0	22.9	4	7.1	4	-1E+10	1	-1E+10	1	-1E+10	1	-1E+10	1	-1E+10	1	-1E+10	1
4901784	166	C	01/20/2020	10:43	-132.617	43.480	0	1425.40	0	2.6480	0	36.9090	8	29.454	0	1409.206	0	23.2	4	7.2	4	-1E+10	1	-1E+10	1	-1E+10	1	-1E+10	1	-1E+10	1	-1E+10	1
4901784	166	C	01/20/2020	10:43	-132.617	43.480	0	1430.40	0	2.6350	0	36.9110	8	29.456	0	1414.132	0	23.5	4	7.3	4	-1E+10	1	-1E+10	1	-1E+10	1	-1E+10	1	-1E+10	1	-1E+10	1
4901784	166	C	01/20/2020	10:43	-132.617	43.480	0	1435.50	0	2.6260	0	36.9120	8	29.458	0	1419.157	0	23.9	4	7.4	4	-1E+10	1	-1E+10	1	-1E+10	1	-1E+10	1	-1E+10	1	-1E+10	1
4901784	166	C	01/20/2020	10:43	-132.617	43.480	0	1440.60	0	2.6120	0	36.9140	8	29.461	0	1424.182	0	24.3	4	7.6	4	-1E+10	1	-1E+10	1	-1E+10	1	-1E+10	1	-1E+10	1	-1E+10	1
4901784	166	C	01/20/2020	10:43	-132.617	43.480	0	1445.70	0	2.5960	0	36.9170	8	29.465	0	1429.206	0	24.6	4	7.7	4	-1E+10	1	-1E+10	1	-1E+10	1	-1E+10	1	-1E+10	1	-1E+10	1
4901784	166	C	01/20/2020	10:43	-132.617	43.480	0	1450.10	0	2.5900	0	36.9180	8	29.466	0	1433.541	0	24.8	4	7.7	4	-1E+10	1	-1E+10	1	-1E+10	1	-1E+10	1	-1E+10	1	-1E+10	1
4901784	166	C	01/20/2020	10:43	-132.617	43.480	0	1454.40	0	2.5850	0	36.9180	8	29.467	0	1437.778	0	25.0	4	7.8	4	-1E+10	1	-1E+10	1	-1E+10	1	-1E+10	1	-1E+10	1	-1E+10	1
4901784	166	C	01/20/2020	10:43	-132.617	43.480	0	1459.70	0	2.5790	0	36.9200	8	29.469	0	1442.999	0	25.2	4	7.8	4	-1E+10	1	-1E+10	1	-1E+10	1	-1E+10	1	-1E+10	1	-1E+10	1
4901784	166	C	01/20/2020	10:43	-132.617	43.480	0	1465.00	0	2.5760	0	36.9200	8	29.469	0	1448.220	0	25.3	4	7.9	4	-1E+10	1	-1E+10	1	-1E+10	1	-1E+10	1	-1E+10	1	-1E+10	1
4901784	166	C	01/20/2020	10:43	-132.617	43.480	0	1470.30	0	2.5710	0	36.9210	8	29.470	0	1453.441	0	25.6	4	8.0	4	-1E+10	1	-1E+10	1	-1E+10	1	-1E+10	1	-1E+10	1	-1E+10	1
4901784	166	C	01/20/2020	10:43	-132.617	43.480	0	1474.90	0	2.5620	0	36.9230	8	29.473	0	1457.973	0	25.8	4	8.0	4	-1E+10	1	-1E+10	1	-1E+10	1	-1E+10	1	-1E+10	1	-1E+10	1
4901784	166	C	01/20/2020	10:43	-132.617	43.480	0	1479.40	0	2.5570	0	36.9240	8	29.474	0	1462.405	0	25.9	4	8.1	4	-1E+10	1	-1E+10	1	-1E+10	1	-1E+10	1	-1E+10	1	-1E+10	1
4901784	166	C	01/20/2020	10:43	-132.617	43.480	0	1484.70	0	2.5540	0	36.9240	8	29.475	0	1467.626	0	26.1	4	8.1	4	-1E+10	1	-1E+10	1	-1E+10	1	-1E+10	1	-1E+10	1	-1E+10	1
4901784	166	C	01/20/2020	10:43	-132.617	43.480	0	1490.10	0	2.5470	0	36.9250	8	29.476	0	1472.945	0	26.4	4	8.2	4	-1E+10	1	-1E+10	1	-1E+10	1	-1E+10	1	-1E+10	1	-1E+10	1
4901784	166	C	01/20/2020	10:43	-132.617	43.480	0	1495.50	0	2.5430	0	36.9260	8	29.477	0	1478.264	0	26.6	4	8.3	4	-1E+10	1	-1E+10	1	-1E+10	1	-1E+10	1	-1E+10	1	-1E+10	1
4901784	166	C	01/20/2020	10:43	-132.617	43.480	0	1500.00	0	2.5390	0	36.9270	8	29.478	0	1482.696	0	26.8	4	8.4	4	-1E+10	1	-1E+10	1	-1E+10	1	-1E+10	1	-1E+10	1	-1E+10	1
4901784	166	C	01/20/2020	10:43	-132.617	43.480	0	1504.40	0	2.5300	0	36.9280	8	29.480	0	1487.030	0	27.2	4	8.5	4	-1E+10	1	-1E+10	1	-1E+10	1	-1E+10	1	-1E+10	1	-1E+10	1
4901784	166	C	01/20/2020	10:43	-132.617	43.480	0	1509.80	0	2.5220	0	36.9290	8	29.482	0	1492.349	0	27.5	4	8.6	4	-1E+10	1	-1E+10	1	-1E+10	1	-1E+10	1	-1E+10	1	-1E+10	1
4901784	166	C	01/20/2020	10:43	-132.617	43.480	0	1515.20	0	2.5120	0	36.9310	8	29.484	0	1497.667	0	28.0	4	8.7	4	-1E+10	1	-1E+10	1	-1E+10	1	-1E+10	1	-1E+10	1	-1E+10	1
4901784	166	C	01/20/2020	10:43	-132.617	43.480	0	1520.60	0	2.4940	0	36.9340	8	29.488	0	1502.986	0	28.6	4	8.9	4	-1E+10	1	-1E+10	1	-1E+10	1	-1E+10	1	-1E+10	1	-1E+10	1
4901784	166	C	01/20/2020	10:43	-132.617	43.480	0	1525.20	0	2.4800	0	36.9360	8	29.491	0	1507.516	0	29.0	4	9.0	4	-1E+10	1	-1E+10	1	-1E+10	1	-1E+10	1	-1E+10	1	-1E+10	1
4901784	166	C	01/20/2020	10:43	-132.617	43.480	0	1529.80	0	2.4730	0	36.9370	8	29.493	0	1512.046	0	29.3	4	9.1	4	-1E+10	1	-1E+10	1	-1E+10	1	-1E+10	1	-1E+10	1	-1E+10	1
4901784	166	C	01/20/2020	10:43	-132.617	43.480	0	1535.20	0	2.4610	0	36.9390	8	29.495	0	1517.364	0	29.7	4	9.2	4	-1E+10	1	-1E+10	1	-1E+10	1	-1E+10	1	-1E+10	1	-1E+10	1
4901784	166	C	01/20/2020	10:43	-132.617	43.480	0	1540.70	0	2.4520	0	36.9400	8	29.497	0	1522.780	0	30.1	4	9.3	4	-1E+10	1	-1E+10	1	-1E+10	1	-1E+10	1	-1E+10	1	-1E+10	1
4901784	166	C	01/20/2020	10:43	-132.617	43.480	0	1545.20	0	2.4440	0	36.9420	8	29.499	0	1527.212	0	30.3	4	9.4	4	-1E+10	1	-1E+10	1	-1E+10	1	-1E+10	1	-1E+10	1	-1E+10	1
4901784	166	C	01/20/2020	10:43	-132.617	43.480	0	1549.80	0	2.4360	0	36.9430	8	29.501	0	1531.742	0	30.6	4	9.5	4	-1E+10	1	-1E+10	1	-1E+10	1	-1E+10	1	-1E+10	1	-1E+10	1
4901784	166	C	01/20/2020	10:43	-132.617	43.480	0	1555.20	0	2.4280	0	36.9440	8	29.502	0	1537.059	0	30.9	4	9.6	4	-1E+10	1	-1E+10	1	-1E+10	1	-1E+10	1	-1E+10	1	-1E+10	1
4901784	166	C	01/20/2020	10:43	-132.617	43.480	0	1559.80	0	2.4170	0	36.9460	8	29.505	0	1541.589	0	31.1	4	9.7	4	-1E+10	1	-1E+10	1	-1E+10	1	-1E+10	1	-1E+10	1	-1E+10	1
4901784	166	C	01/20/2020	10:43	-132.617	43.480	0	1564.40	0	2.4150	0	36.9470	8	29.506	0	1546.118	0	31.3	4	9.7	4	-1E+10	1	-1E+10	1	-1E+10	1	-1E+10	1	-1E+10	1	-1E+10	1
4901784	166	C	01/20/2020	10:43	-132.617	43.480	0	1569.90	0	2.4120	0	36.9470	8	29.506	0	1551.534	0	31.5	4	9.8	4	-1E+10	1	-1E+10	1	-1E+10	1	-1E+10	1	-1E+10	1	-1E+10	1
4901784	166	C	01/20/2020	10:43	-132.617	43.480	0	1575.30	0	2.4070	0	36.9480	8	29.508	0	1556.851	0	31.8	4	9.9	4	-1E+10	1	-1E+10	1	-1E+10	1	-1E+10	1	-1E+10	1	-1E+10	1
4901784	166	C	01/20/2020	10:43	-132.617	43.480	0	1580.00	0	2.3960	0	36.9500	8	29.510	0	1561.478	0	32.3	4	10.0	4	-1E+10	1	-1E+10	1	-1E+10	1	-1E+10	1	-1E+10	1	-1E+10	1
4901784	166	C	01/20/2020	10:43	-132.617	43.480	0	1585.30	0	2.3840	0	36.9520	8	29.513	0	1566.697	0	32.7	4	10.1	4	-1E+10	1	-1E+10	1	-1E+10	1	-1E+10	1	-1E+10	1	-1E+10	1
4901784	166	C	01/20/2020	10:43	-132.617	43.480	0	1590.30	0	2.3740	0	36.9540	8	29.515	0	1571.619	0	33.1	4	10.3	4	-1E+10	1	-1E+10	1	-1E+10	1	-1E+10	1	-1E+10	1	-1E+10	1
4901784	166	C	01/20/2020	10:43	-132.617	43.480	0	1595.10	0	2.3660	0	36.9540	8	29.516	0	1576.345	0	33.5	4	10.4	4	-1E+10	1	-1E+10	1	-1E+10	1	-1E+10	1	-1E+10	1	-1E+10	1
4901784	166	C	01/20/2020	10:43	-132.617	43.480	0	1599.90	0	2.3530	0	36.9570	8	29.520	0	1581.071	0	33.9	4	10.5	4	-1E+10	1	-1E+10	1	-1E+10	1	-1E+10	1	-1E+10	1	-1E+10	1
4901784	166	C	01/20/2020	10:43	-132.617	43.480	0	1604.80	0	2.3510	0	36.9570	8	29.520	0	1585.895	0	34.1	4	10.6	4	-1E+10	1	-1E+10	1	-1E+10	1	-1E+10	1	-1E+10	1	-1E+10	1
4901784	166	C	01/20/2020	10:43	-132.617	43.480	0	1609.70	0	2.3430	0	36.9580	8	29.522	0	1590.719	0	34.5	4	10.7	4	-1E+10	1	-1E+10	1	-1E+10	1	-1E+10	1	-1E+10	1	-1E+10	1
4901784	166	C	01/20/2020	10:43	-132.617	43.480	0	1614.70	0	2.3320	0	36.9600	8	29.524	0	1595.641	0	35.0	4	10.8	4	-1E+10	1	-1E+10	1	-1E+10	1	-1E+10	1	-1E+10	1	-1E+10	1
4901784	166	C	01/20/2020	10:43	-132.617	43.480	0	1619.60	0	2.3250	0	36.9620	8	29.526	0	1600.464	0	35.3	4	10.9	4	-1E+10	1	-1E+10	1	-1E+10	1	-1E+10	1	-1E+10	1	-1E+10	1
4901784	166	C	01/20/2020	10:43	-132.617	43.480	0	1624.60	0	2.3140	0	36.9630	8	29.528	0	1605.386	0	35.8	4	11.1	4	-1E+10	1	-1E+10	1	-1E+10	1	-1E+10	1	-1E+10	1	-1E+10	1
4901784	166	C	01/20/2020	10:43	-132.617	43.480	0	1629.70	0	2.3040	0	36.9650	8	29.531	0	1610.407	0	36.1	4	11.2	4	-1E+10	1	-1E+10	1	-1E+10	1	-1E+10	1	-1E+10	1	-1E+10	1
4901784	166	C	01/20/2020	10:43	-132.617	43.480	0	1634.70	0	2.2970	0	36.9670	8	29.533	0	1615.329	0	36.3	4	11.2	4	-1E+10	1	-1E+10	1	-1E+10	1	-1E+10	1	-1E+10	1	-1E+10	1
4901784	166	C	01/20/2020	10:43	-132.617	43.480	0	1639.80	0	2.2950	0	36.9670	8	29.533	0	1620.349	0	36.4	4	11.3	4	-1E+10	1	-1E+10	1	-1E+10	1	-1E+10	1	-1E+10	1	-1E+10	1
4901784	166	C	01/20/2020	10:43	-132.617	43.480	0	1644.90	0	2.2940	0	36.9670	8	29.533	0	1625.369	0	36.6	4	11.3	4	-1E+10	1	-1E+10	1	-1E+10	1	-1E+10	1	-1E+10	1	-1E+10	1
4901784	166	C	01/20/2020	10:43	-132.617	43.480	0	1650.00	0	2.2900	0	36.9680	8	29.534	0	1630.388	0	37.1	4	11.5	4	-1E+10	1	-1E+10	1	-1E+10	1	-1E+10	1	-1E+10	1	-1E+10	1
4901784	166	C	01/20/2020	10:43	-132.617	43.480	0	1655.20	0	2.2770	0	36.9710	8	29.538	0	1635.506	0	37.5	4	11.6	4	-1E+10	1	-1E+10	1	-1E+10	1	-1E+10	1	-1E+10	1	-1E+10	1
4901784	166	C	01/20/2020	10:43	-132.617	43.480	0	1660.40	0	2.2710	0	36.9720	8	29.539	0	1640.625	0	37.8	4	11.7	4	-1E+10	1	-1E+10	1	-1E+10	1	-1E+10	1	-1E+10	1	-1E+10	1
4901784	166	C	01/20/2020	10:43	-132.617	43.480	0	1665.70	0	2.2650	0	36.9730	8	29.541	0	1645.841	0	38.0	4	11.8	4	-1E+10	1	-1E+10	1	-1E+10	1	-1E+10	1	-1E+10	1	-1E+10	1
4901784	166	C	01/20/2020	10:43	-132.617	43.480	0	1670.00	0	2.2610	0	36.9740	8	29.542	0	1650.073	0	38.3	4	11.8	4	-1E+10	1	-1E+10	1	-1E+10	1	-1E+10	1	-1E+10	1	-1E+10	1
4901784	166	C	01/20/2020	10:43	-132.617	43.480	0	1674.40	0	2.2550	0	36.9750	8	29.543	0	1654.403	0	38.5	4	11.9	4	-1E+10	1	-1E+10	1	-1E+10	1	-1E+10	1	-1E+10	1	-1E+10	1
4901784	166	C	01/20/2020	10:43	-132.617	43.480	0	1679.70	0	2.2520	0	36.9760	8	29.544	0	1659.619	0	38.7	4	12.0	4	-1E+10	1	-1E+10	1	-1E+10	1	-1E+10	1	-1E+10	1	-1E+10	1
4901784	166	C	01/20/2020	10:43	-132.617	43.480	0	1685.10	0	2.2500	0	36.9760	8	29.545	0	1664.933	0	38.9	4	12.0	4	-1E+10	1	-1E+10	1	-1E+10	1	-1E+10	1	-1E+10	1	-1E+10	1
4901784	166	C	01/20/2020	10:43	-132.617	43.480	0	1690.50	0	2.2450	0	36.9780	8	29.547	0	1670.248	0	39.3	4	12.1	4	-1E+10	1	-1E+10	1	-1E+10	1	-1E+10	1	-1E+10	1	-1E+10	1
4901784	166	C	01/20/2020	10:43	-132.617	43.480	0	1694.90	0	2.2390	0	36.9790	8	29.548	0	1674.577	0	39.6	4	12.2	4	-1E+10	1	-1E+10	1	-1E+10	1	-1E+10	1	-1E+10	1	-1E+10	1
4901784	166	C	01/20/2020	10:43	-132.617	43.480	0	1699.40	0	2.2340	0	36.9800	8	29.549	0	1679.006	0	39.8	4	12.3	4	-1E+10	1	-1E+10	1	-1E+10	1	-1E+10	1	-1E+10	1	-1E+10	1
4901784	166	C	01/20/2020	10:43	-132.617	43.480	0	1704.80	0	2.2260	0	36.9810	8	29.551	0	1684.320	0	40.1	4	12.4	4	-1E+10	1	-1E+10	1	-1E+10	1	-1E+10	1	-1E+10	1	-1E+10	1
4901784	166	C	01/20/2020	10:43	-132.617	43.480	0	1710.20	0	2.2240	0	36.9810	8	29.551	0	1689.633	0	40.2	4	12.4	4	-1E+10	1	-1E+10	1	-1E+10	1	-1E+10	1	-1E+10	1	-1E+10	1
4901784	166	C	01/20/2020	10:43	-132.617	43.480	0	1714.80	0	2.2220	0	36.9820	8	29.552	0	1694.159	0	40.5	4	12.5	4	-1E+10	1	-1E+10	1	-1E+10	1	-1E+10	1	-1E+10	1	-1E+10	1
4901784	166	C	01/20/2020	10:43	-132.617	43.480	0	1719.40	0	2.2170	0	36.9830	8	29.553	0	1698.686	0	40.7	4	12.6	4	-1E+10	1	-1E+10	1	-1E+10	1	-1E+10	1	-1E+10	1	-1E+10	1
4901784	166	C	01/20/2020	10:43	-132.617	43.480	0	1724.90	0	2.2120	0	36.9830	8	29.554	0	1704.097	0	41.0	4	12.7	4	-1E+10	1	-1E+10	1	-1E+10	1	-1E+10	1	-1E+10	1	-1E+10	1
4901784	166	C	01/20/2020	10:43	-132.617	43.480	0	1730.50	0	2.2030	0	36.9850	8	29.556	0	1709.607	0	41.5	4	12.8	4	-1E+10	1	-1E+10	1	-1E+10	1	-1E+10	1	-1E+10	1	-1E+10	1
4901784	166	C	01/20/2020	10:43	-132.617	43.480	0	1734.70	0	2.1960	0	36.9860	8	29.558	0	1713.739	0	41.7	4	12.9	4	-1E+10	1	-1E+10	1	-1E+10	1	-1E+10	1	-1E+10	1	-1E+10	1
4901784	166	C	01/20/2020	10:43	-132.617	43.480	0	1739.50	0	2.1920	0	36.9870	8	29.559	0	1718.462	0	42.1	4	13.0	4	-1E+10	1	-1E+10	1	-1E+10	1	-1E+10	1	-1E+10	1	-1E+10	1
4901784	166	C	01/20/2020	10:43	-132.617	43.480	0	1744.40	0	2.1780	0	36.9880	8	29.561	0	1723.283	0	42.7	4	13.2	4	-1E+10	1	-1E+10	1	-1E+10	1	-1E+10	1	-1E+10	1	-1E+10	1
4901784	166	C	01/20/2020	10:43	-132.617	43.480	0	1749.30	0	2.1680	0	36.9890	8	29.563	0	1728.104	0	42.9	4	13.2	4	-1E+10	1	-1E+10	1	-1E+10	1	-1E+10	1	-1E+10	1	-1E+10	1
4901784	166	C	01/20/2020	10:43	-132.617	43.480	0	1755.00	0	2.1630	0	36.9900	8	29.564	0	1733.711	0	43.2	4	13.3	4	-1E+10	1	-1E+10	1	-1E+10	1	-1E+10	1	-1E+10	1	-1E+10	1
4901784	166	C	01/20/2020	10:43	-132.617	43.480	0	1760.80	0	2.1590	0	36.9910	8	29.565	0	1739.417	0	43.4	4	13.4	4	-1E+10	1	-1E+10	1	-1E+10	1	-1E+10	1	-1E+10	1	-1E+10	1
4901784	166	C	01/20/2020	10:43	-132.617	43.480	0	1765.70	0	2.1580	0	36.9910	8	29.565	0	1744.238	0	43.6	4	13.4	4	-1E+10	1	-1E+10	1	-1E+10	1	-1E+10	1	-1E+10	1	-1E+10	1
4901784	166	C	01/20/2020	10:43	-132.617	43.480	0	1770.70	0	2.1520	0	36.9930	8	29.567	0	1749.156	0	44.0	4	13.6	4	-1E+10	1	-1E+10	1	-1E+10	1	-1E+10	1	-1E+10	1	-1E+10	1
4901784	166	C	01/20/2020	10:43	-132.617	43.480	0	1775.60	0	2.1460	0	36.9940	8	29.569	0	1753.976	0	44.3	4	13.7	4	-1E+10	1	-1E+10	1	-1E+10	1	-1E+10	1	-1E+10	1	-1E+10	1
4901784	166	C	01/20/2020	10:43	-132.617	43.480	0	1780.60	0	2.1420	0	36.9950	8	29.570	0	1758.895	0	44.6	4	13.8	4	-1E+10	1	-1E+10	1	-1E+10	1	-1E+10	1	-1E+10	1	-1E+10	1
4901784	166	C	01/20/2020	10:43	-132.617	43.480	0	1785.60	0	2.1340	0	36.9960	8	29.571	0	1763.813	0	44.9	4	13.8	4	-1E+10	1	-1E+10	1	-1E+10	1	-1E+10	1	-1E+10	1	-1E+10	1
4901784	166	C	01/20/2020	10:43	-132.617	43.480	0	1790.60	0	2.1300	0	36.9960	8	29.572	0	1768.731	0	45.3	4	13.9	4	-1E+10	1	-1E+10	1	-1E+10	1	-1E+10	1	-1E+10	1	-1E+10	1
4901784	166	C	01/20/2020	10:43	-132.617	43.480	0	1795.70	0	2.1240	0	36.9970	8	29.573	0	1773.748	0	45.7	4	14.1	4	-1E+10	1	-1E+10	1	-1E+10	1	-1E+10	1	-1E+10	1	-1E+10	1
4901784	166	C	01/20/2020	10:43	-132.617	43.480	0	1800.70	0	2.1130	0	36.9990	8	29.576	0	1778.666	0	46.2	4	14.2	4	-1E+10	1	-1E+10	1	-1E+10	1	-1E+10	1	-1E+10	1	-1E+10	1
4901784	166	C	01/20/2020	10:43	-132.617	43.480	0	1804.90	0	2.1070	0	37.0010	8	29.578	0	1782.797	0	46.4	4	14.3	4	-1E+10	1	-1E+10	1	-1E+10	1	-1E+10	1	-1E+10	1	-1E+10	1
4901784	166	C	01/20/2020	10:43	-132.617	43.480	0	1809.20	0	2.1050	0	37.0010	8	29.578	0	1787.026	0	46.6	4	14.3	4	-1E+10	1	-1E+10	1	-1E+10	1	-1E+10	1	-1E+10	1	-1E+10	1
4901784	166	C	01/20/2020	10:43	-132.617	43.480	0	1814.30	0	2.1010	0	37.0010	8	29.578	0	1792.042	0	46.8	4	14.4	4	-1E+10	1	-1E+10	1	-1E+10	1	-1E+10	1	-1E+10	1	-1E+10	1
4901784	166	C	01/20/2020	10:43	-132.617	43.480	0	1819.50	0	2.0960	0	37.0020	8	29.580	0	1797.156	0	47.2	4	14.5	4	-1E+10	1	-1E+10	1	-1E+10	1	-1E+10	1	-1E+10	1	-1E+10	1
4901784	166	C	01/20/2020	10:43	-132.617	43.480	0	1824.60	0	2.0890	0	37.0030	8	29.581	0	1802.172	0	47.5	4	14.6	4	-1E+10	1	-1E+10	1	-1E+10	1	-1E+10	1	-1E+10	1	-1E+10	1
4901784	166	C	01/20/2020	10:43	-132.617	43.480	0	1829.80	0	2.0860	0	37.0040	8	29.582	0	1807.286	0	47.7	4	14.7	4	-1E+10	1	-1E+10	1	-1E+10	1	-1E+10	1	-1E+10	1	-1E+10	1
4901784	166	C	01/20/2020	10:43	-132.617	43.480	0	1835.00	0	2.0800	0	37.0050	8	29.584	0	1812.400	0	48.1	4	14.8	4	-1E+10	1	-1E+10	1	-1E+10	1	-1E+10	1	-1E+10	1	-1E+10	1
4901784	166	C	01/20/2020	10:43	-132.617	43.480	0	1840.30	0	2.0740	0	37.0060	8	29.585	0	1817.612	0	48.6	4	14.9	4	-1E+10	1	-1E+10	1	-1E+10	1	-1E+10	1	-1E+10	1	-1E+10	1
4901784	166	C	01/20/2020	10:43	-132.617	43.480	0	1845.50	0	2.0630	0	37.0070	8	29.587	0	1822.725	0	49.0	4	15.1	4	-1E+10	1	-1E+10	1	-1E+10	1	-1E+10	1	-1E+10	1	-1E+10	1
4901784	166	C	01/20/2020	10:43	-132.617	43.480	0	1850.70	0	2.0570	0	37.0080	8	29.588	0	1827.839	0	49.2	4	15.1	4	-1E+10	1	-1E+10	1	-1E+10	1	-1E+10	1	-1E+10	1	-1E+10	1
4901784	166	C	01/20/2020	10:43	-132.617	43.480	0	1855.10	0	2.0560	0	37.0080	8	29.588	0	1832.166	0	49.4	4	15.2	4	-1E+10	1	-1E+10	1	-1E+10	1	-1E+10	1	-1E+10	1	-1E+10	1
4901784	166	C	01/20/2020	10:43	-132.617	43.480	0	1859.50	0	2.0530	0	37.0090	8	29.589	0	1836.492	0	49.6	4	15.3	4	-1E+10	1	-1E+10	1	-1E+10	1	-1E+10	1	-1E+10	1	-1E+10	1
4901784	166	C	01/20/2020	10:43	-132.617	43.480	0	1864.70	0	2.0480	0	37.0100	8	29.590	0	1841.605	0	49.9	4	15.4	4	-1E+10	1	-1E+10	1	-1E+10	1	-1E+10	1	-1E+10	1	-1E+10	1
4901784	166	C	01/20/2020	10:43	-132.617	43.480	0	1870.00	0	2.0420	0	37.0110	8	29.592	0	1846.817	0	50.3	4	15.5	4	-1E+10	1	-1E+10	1	-1E+10	1	-1E+10	1	-1E+10	1	-1E+10	1
4901784	166	C	01/20/2020	10:43	-132.617	43.480	0	1875.40	0	2.0360	0	37.0120	8	29.593	0	1852.126	0	50.8	4	15.6	4	-1E+10	1	-1E+10	1	-1E+10	1	-1E+10	1	-1E+10	1	-1E+10	1
4901784	166	C	01/20/2020	10:43	-132.617	43.480	0	1879.90	0	2.0310	0	37.0130	8	29.594	0	1856.551	0	51.1	4	15.7	4	-1E+10	1	-1E+10	1	-1E+10	1	-1E+10	1	-1E+10	1	-1E+10	1
4901784	166	C	01/20/2020	10:43	-132.617	43.480	0	1884.40	0	2.0270	0	37.0140	8	29.596	0	1860.975	0	51.5	4	15.8	4	-1E+10	1	-1E+10	1	-1E+10	1	-1E+10	1	-1E+10	1	-1E+10	1
4901784	166	C	01/20/2020	10:43	-132.617	43.480	0	1889.80	0	2.0190	0	37.0150	8	29.597	0	1866.285	0	52.0	4	16.0	4	-1E+10	1	-1E+10	1	-1E+10	1	-1E+10	1	-1E+10	1	-1E+10	1
4901784	166	C	01/20/2020	10:43	-132.617	43.480	0	1895.20	0	2.0120	0	37.0160	8	29.598	0	1871.594	0	52.5	4	16.1	4	-1E+10	1	-1E+10	1	-1E+10	1	-1E+10	1	-1E+10	1	-1E+10	1
4901784	166	C	01/20/2020	10:43	-132.617	43.480	0	1899.80	0	2.0060	0	37.0170	8	29.600	0	1876.116	0	52.8	4	16.2	4	-1E+10	1	-1E+10	1	-1E+10	1	-1E+10	1	-1E+10	1	-1E+10	1
4901784	166	C	01/20/2020	10:43	-132.617	43.480	0	1904.30	0	2.0010	0	37.0180	8	29.601	0	1880.540	0	53.0	4	16.3	4	-1E+10	1	-1E+10	1	-1E+10	1	-1E+10	1	-1E+10	1	-1E+10	1
4901784	166	C	01/20/2020	10:43	-132.617	43.480	0	1909.90	0	1.9970	0	37.0190	8	29.602	0	1886.045	0	53.3	4	16.4	4	-1E+10	1	-1E+10	1	-1E+10	1	-1E+10	1	-1E+10	1	-1E+10	1
4901784	166	C	01/20/2020	10:43	-132.617	43.480	0	1915.40	0	1.9940	0	37.0200	8	29.603	0	1891.452	0	53.5	4	16.4	4	-1E+10	1	-1E+10	1	-1E+10	1	-1E+10	1	-1E+10	1	-1E+10	1
4901784	166	C	01/20/2020	10:43	-132.617	43.480	0	1920.00	0	1.9930	0	37.0200	8	29.603	0	1895.974	0	53.6	4	16.5	4	-1E+10	1	-1E+10	1	-1E+10	1	-1E+10	1	-1E+10	1	-1E+10	1
4901784	166	C	01/20/2020	10:43	-132.617	43.480	0	1924.70	0	1.9910	0	37.0210	8	29.604	0	1900.594	0	53.8	4	16.5	4	-1E+10	1	-1E+10	1	-1E+10	1	-1E+10	1	-1E+10	1	-1E+10	1
4901784	166	C	01/20/2020	10:43	-132.617	43.480	0	1929.90	0	1.9870	0	37.0220	8	29.606	0	1905.706	0	54.1	4	16.6	4	-1E+10	1	-1E+10	1	-1E+10	1	-1E+10	1	-1E+10	1	-1E+10	1
4901784	166	C	01/20/2020	10:43	-132.617	43.480	0	1935.00	0	1.9830	0	37.0220	8	29.606	0	1910.719	0	54.3	4	16.7	4	-1E+10	1	-1E+10	1	-1E+10	1	-1E+10	1	-1E+10	1	-1E+10	1
4901784	166	C	01/20/2020	10:43	-132.617	43.480	0	1940.80	0	1.9810	0	37.0230	8	29.607	0	1916.420	0	54.5	4	16.7	4	-1E+10	1	-1E+10	1	-1E+10	1	-1E+10	1	-1E+10	1	-1E+10	1
4901784	166	C	01/20/2020	10:43	-132.617	43.480	0	1945.70	0	1.9790	0	37.0230	8	29.607	0	1921.237	0	54.6	4	16.8	4	-1E+10	1	-1E+10	1	-1E+10	1	-1E+10	1	-1E+10	1	-1E+10	1
4901784	166	C	01/20/2020	10:43	-132.617	43.480	0	1950.70	0	1.9780	0	37.0240	8	29.608	0	1926.151	0	54.8	4	16.8	4	-1E+10	1	-1E+10	1	-1E+10	1	-1E+10	1	-1E+10	1	-1E+10	1
4901784	166	C	01/20/2020	10:43	-132.617	43.480	0	1955.80	0	1.9740	0	37.0250	8	29.609	0	1931.164	0	55.2	4	16.9	4	-1E+10	1	-1E+10	1	-1E+10	1	-1E+10	1	-1E+10	1	-1E+10	1
4901784	166	C	01/20/2020	10:43	-132.617	43.480	0	1960.00	0	1.9700	0	37.0250	8	29.610	0	1935.292	0	55.3	4	17.0	4	-1E+10	1	-1E+10	1	-1E+10	1	-1E+10	1	-1E+10	1	-1E+10	1
4901784	166	C	01/20/2020	10:43	-132.617	43.480	0	1964.30	0	1.9690	0	37.0260	8	29.611	0	1939.518	0	55.5	4	17.0	4	-1E+10	1	-1E+10	1	-1E+10	1	-1E+10	1	-1E+10	1	-1E+10	1
4901784	166	C	01/20/2020	10:43	-132.617	43.480	0	1969.40	0	1.9670	0	37.0260	8	29.611	0	1944.531	0	55.8	4	17.1	4	-1E+10	1	-1E+10	1	-1E+10	1	-1E+10	1	-1E+10	1	-1E+10	1
4901784	166	C	01/20/2020	10:43	-132.617	43.480	0	1974.50	0	1.9620	0	37.0270	8	29.612	0	1949.543	0	56.1	4	17.2	4	-1E+10	1	-1E+10	1	-1E+10	1	-1E+10	1	-1E+10	1	-1E+10	1
4901784	166	C	01/20/2020	10:43	-132.617	43.480	0	1979.70	0	1.9570	0	37.0280	8	29.613	0	1954.653	0	56.3	4	17.3	4	-1E+10	1	-1E+10	1	-1E+10	1	-1E+10	1	-1E+10	1	-1E+10	1
4901784	166	C	01/20/2020	10:43	-132.617	43.480	0	1984.90	0	1.9560	0	37.0280	8	29.613	0	1959.764	0	56.5	4	17.3	4	-1E+10	1	-1E+10	1	-1E+10	1	-1E+10	1	-1E+10	1	-1E+10	1
4901784	166	C	01/20/2020	10:43	-132.617	43.480	0	1990.10	0	1.9550	0	37.0290	8	29.614	0	1964.874	0	56.6	4	17.4	4	-1E+10	1	-1E+10	1	-1E+10	1	-1E+10	1	-1E+10	1	-1E+10	1
4901784	166	C	01/20/2020	10:43	-132.617	43.480	0	1995.30	0	1.9530	0	37.0290	8	29.615	0	1969.984	0	56.8	4	17.4	4	-1E+10	1	-1E+10	1	-1E+10	1	-1E+10	1	-1E+10	1	-1E+10	1
4901784	166	C	01/20/2020	10:43	-132.617	43.480	0	2000.50	0	1.9500	0	37.0290	8	29.615	0	1975.094	0	57.3	4	17.6	4	-1E+10	1	-1E+10	1	-1E+10	1	-1E+10	1	-1E+10	1	-1E+10	1
4901784	166	C	01/20/2020	10:43	-132.617	43.480	0	2005.10	0	1.9440	0	37.0310	8	29.617	0	1979.614	0	57.6	4	17.7	4	-1E+10	1	-1E+10	1	-1E+10	1	-1E+10	1	-1E+10	1	-1E+10	1
4901784	166	C	01/20/2020	10:43	-132.617	43.480	0	2010.80	0	1.9370	0	37.0320	8	29.618	0	1985.215	0	57.9	4	17.8	4	-1E+10	1	-1E+10	1	-1E+10	1	-1E+10	1	-1E+10	1	-1E+10	1
4901784	166	C	01/20/2020	10:43	-132.617	43.480	0	2015.50	0	1.9350	0	37.0330	8	29.619	0	1989.833	0	58.1	4	17.8	4	-1E+10	1	-1E+10	1	-1E+10	1	-1E+10	1	-1E+10	1	-1E+10	1
4901784	166	C	01/20/2020	10:43	-132.617	43.480	0	2020.20	0	1.9330	0	37.0330	8	29.620	0	1994.452	0	58.3	4	17.9	4	-1E+10	1	-1E+10	1	-1E+10	1	-1E+10	1	-1E+10	1	-1E+10	1
4901784	166	C	01/20/2020	10:43	-132.617	43.480	0																										
4901784	167	C	01/30/2020	10:49	-132.599	43.455	0	3.40	0	11.2720	0	34.5810	8	26.400	0	3.373	0	255.1	4	95.2	4	-1E+10	1	-1E+10	1	-1E+10	1	-1E+10	1	-1E+10	1	-1E+10	1
4901784	167	C	01/30/2020	10:49	-132.599	43.455	0	5.90	0	11.2730	0	34.5810	8	26.400	0	5.853	0	255.1	4	95.1	4	-1E+10	1	-1E+10	1	-1E+10	1	-1E+10	1	-1E+10	1	-1E+10	1
4901784	167	C	01/30/2020	10:49	-132.599	43.455	0	7.80	0	11.2740	0	34.5810	8	26.400	0	7.738	0	255.2	4	95.2	4	-1E+10	1	-1E+10	1	-1E+10	1	-1E+10	1	-1E+10	1	-1E+10	1
4901784	167	C	01/30/2020	10:49	-132.599	43.455	0	9.40	0	11.2730	0	34.5830	8	26.402	0	9.325	0	255.1	4	95.2	4	-1E+10	1	-1E+10	1	-1E+10	1	-1E+10	1	-1E+10	1	-1E+10	1
4901784	167	C	01/30/2020	10:49	-132.599	43.455	0	10.90	0	11.2740	0	34.5830	8	26.402	0	10.813	0	255.0	4	95.1	4	-1E+10	1	-1E+10	1	-1E+10	1	-1E+10	1	-1E+10	1	-1E+10	1
4901784	167	C	01/30/2020	10:49	-132.599	43.455	0	12.60	0	11.2730	0	34.5840	8	26.403	0	12.499	0	255.1	4	95.1	4	-1E+10	1	-1E+10	1	-1E+10	1	-1E+10	1	-1E+10	1	-1E+10	1
4901784	167	C	01/30/2020	10:49	-132.599	43.455	0	14.10	0	11.2740	0	34.5840	8	26.403	0	13.987	0	255.1	4	95.2	4	-1E+10	1	-1E+10	1	-1E+10	1	-1E+10	1	-1E+10	1	-1E+10	1
4901784	167	C	01/30/2020	10:49	-132.599	43.455	0	15.70	0	11.2740	0	34.5840	8	26.403	0	15.574	0	255.1	4	95.2	4	-1E+10	1	-1E+10	1	-1E+10	1	-1E+10	1	-1E+10	1	-1E+10	1
4901784	167	C	01/30/2020	10:49	-132.599	43.455	0	17.20	0	11.2750	0	34.5840	8	26.402	0	17.062	0	255.0	4	95.1	4	-1E+10	1	-1E+10	1	-1E+10	1	-1E+10	1	-1E+10	1	-1E+10	1
4901784	167	C	01/30/2020	10:49	-132.599	43.455	0	18.80	0	11.2750	0	34.5850	8	26.403	0	18.649	0	255.0	4	95.1	4	-1E+10	1	-1E+10	1	-1E+10	1	-1E+10	1	-1E+10	1	-1E+10	1
4901784	167	C	01/30/2020	10:49	-132.599	43.455	0	20.40	0	11.2750	0	34.5850	8	26.403	0	20.236	0	255.0	4	95.1	4	-1E+10	1	-1E+10	1	-1E+10	1	-1E+10	1	-1E+10	1	-1E+10	1
4901784	167	C	01/30/2020	10:49	-132.599	43.455	0	22.00	0	11.2750	0	34.5860	8	26.404	0	21.823	0	254.9	4	95.1	4	-1E+10	1	-1E+10	1	-1E+10	1	-1E+10	1	-1E+10	1	-1E+10	1
4901784	167	C	01/30/2020	10:49	-132.599	43.455	0	23.70	0	11.2750	0	34.5870	8	26.405	0	23.510	0	254.7	4	95.0	4	-1E+10	1	-1E+10	1	-1E+10	1	-1E+10	1	-1E+10	1	-1E+10	1
4901784	167	C	01/30/2020	10:49	-132.599	43.455	0	26.00	0	11.2750	0	34.5880	8	26.406	0	25.791	0	254.8	4	95.1	4	-1E+10	1	-1E+10	1	-1E+10	1	-1E+10	1	-1E+10	1	-1E+10	1
4901784	167	C	01/30/2020	10:49	-132.599	43.455	0	27.90	0	11.2750	0	34.5890	8	26.407	0	27.676	0	254.8	4	95.0	4	-1E+10	1	-1E+10	1	-1E+10	1	-1E+10	1	-1E+10	1	-1E+10	1
4901784	167	C	01/30/2020	10:49	-132.599	43.455	0	29.30	0	11.2760	0	34.5890	8	26.406	0	29.064	0	254.9	4	95.1	4	-1E+10	1	-1E+10	1	-1E+10	1	-1E+10	1	-1E+10	1	-1E+10	1
4901784	167	C	01/30/2020	10:49	-132.599	43.455	0	30.70	0	11.2760	0	34.5900	8	26.407	0	30.453	0	254.8	4	95.1	4	-1E+10	1	-1E+10	1	-1E+10	1	-1E+10	1	-1E+10	1	-1E+10	1
4901784	167	C	01/30/2020	10:49	-132.599	43.455	0	32.10	0	11.2760	0	34.5910	8	26.408	0	31.841	0	254.7	4	95.0	4	-1E+10	1	-1E+10	1	-1E+10	1	-1E+10	1	-1E+10	1	-1E+10	1
4901784	167	C	01/30/2020	10:49	-132.599	43.455	0	33.50	0	11.2760	0	34.5910	8	26.408	0	33.230	0	254.7	4	95.0	4	-1E+10	1	-1E+10	1	-1E+10	1	-1E+10	1	-1E+10	1	-1E+10	1
4901784	167	C	01/30/2020	10:49	-132.599	43.455	0	35.00	0	11.2760	0	34.5920	8	26.409	0	34.718	0	254.7	4	95.0	4	-1E+10	1	-1E+10	1	-1E+10	1	-1E+10	1	-1E+10	1	-1E+10	1
4901784	167	C	01/30/2020	10:49	-132.599	43.455	0	36.70	0	11.2760	0	34.5930	8	26.410	0	36.404	0	254.7	4	95.0	4	-1E+10	1	-1E+10	1	-1E+10	1	-1E+10	1	-1E+10	1	-1E+10	1
4901784	167	C	01/30/2020	10:49	-132.599	43.455	0	38.40	0	11.2760	0	34.5930	8	26.410	0	38.090	0	254.7	4	95.0	4	-1E+10	1	-1E+10	1	-1E+10	1	-1E+10	1	-1E+10	1	-1E+10	1
4901784	167	C	01/30/2020	10:49	-132.599	43.455	0	40.30	0	11.2770	0	34.5940	8	26.410	0	39.975	0	254.7	4	95.0	4	-1E+10	1	-1E+10	1	-1E+10	1	-1E+10	1	-1E+10	1	-1E+10	1
4901784	167	C	01/30/2020	10:49	-132.599	43.455	0	42.00	0	11.2770	0	34.5940	8	26.410	0	41.661	0	254.6	4	95.0	4	-1E+10	1	-1E+10	1	-1E+10	1	-1E+10	1	-1E+10	1	-1E+10	1
4901784	167	C	01/30/2020	10:49	-132.599	43.455	0	43.60	0	11.2770	0	34.5950	8	26.411	0	43.248	0	254.6	4	95.0	4	-1E+10	1	-1E+10	1	-1E+10	1	-1E+10	1	-1E+10	1	-1E+10	1
4901784	167	C	01/30/2020	10:49	-132.599	43.455	0	45.30	0	11.2770	0	34.5960	8	26.412	0	44.934	0	254.6	4	95.0	4	-1E+10	1	-1E+10	1	-1E+10	1	-1E+10	1	-1E+10	1	-1E+10	1
4901784	167	C	01/30/2020	10:49	-132.599	43.455	0	46.90	0	11.2770	0	34.5960	8	26.412	0	46.521	0	254.4	4	94.9	4	-1E+10	1	-1E+10	1	-1E+10	1	-1E+10	1	-1E+10	1	-1E+10	1
4901784	167	C	01/30/2020	10:49	-132.599	43.455	0	48.60	0	11.2770	0	34.5980	8	26.414	0	48.207	0	254.5	4	94.9	4	-1E+10	1	-1E+10	1	-1E+10	1	-1E+10	1	-1E+10	1	-1E+10	1
4901784	167	C	01/30/2020	10:49	-132.599	43.455	0	50.20	0	11.2770	0	34.5980	8	26.414	0	49.794	0	254.3	4	94.9	4	-1E+10	1	-1E+10	1	-1E+10	1	-1E+10	1	-1E+10	1	-1E+10	1
4901784	167	C	01/30/2020	10:49	-132.599	43.455	0	51.90	0	11.2760	0	34.5990	8	26.415	0	51.480	0	254.2	4	94.8	4	-1E+10	1	-1E+10	1	-1E+10	1	-1E+10	1	-1E+10	1	-1E+10	1
4901784	167	C	01/30/2020	10:49	-132.599	43.455	0	53.50	0	11.2760	0	34.6000	8	26.415	0	53.066	0	254.0	4	94.8	4	-1E+10	1	-1E+10	1	-1E+10	1	-1E+10	1	-1E+10	1	-1E+10	1
4901784	167	C	01/30/2020	10:49	-132.599	43.455	0	55.20	0	11.2750	0	34.6010	8	26.416	0	54.752	0	254.1	4	94.8	4	-1E+10	1	-1E+10	1	-1E+10	1	-1E+10	1	-1E+10	1	-1E+10	1
4901784	167	C	01/30/2020	10:49	-132.599	43.455	0	56.80	0	11.2740	0	34.6010	8	26.417	0	56.339	0	253.7	4	94.7	4	-1E+10	1	-1E+10	1	-1E+10	1	-1E+10	1	-1E+10	1	-1E+10	1
4901784	167	C	01/30/2020	10:49	-132.599	43.455	0	58.50	0	11.2740	0	34.6010	8	26.417	0	58.025	0	253.7	4	94.7	4	-1E+10	1	-1E+10	1	-1E+10	1	-1E+10	1	-1E+10	1	-1E+10	1
4901784	167	C	01/30/2020	10:49	-132.599	43.455	0	60.20	0	11.2740	0	34.6020	8	26.418	0	59.711	0	253.8	4	94.7	4	-1E+10	1	-1E+10	1	-1E+10	1	-1E+10	1	-1E+10	1	-1E+10	1
4901784	167	C	01/30/2020	10:49	-132.599	43.455	0	61.90	0	11.2730	0	34.6030	8	26.419	0	61.397	0	253.6	4	94.6	4	-1E+10	1	-1E+10	1	-1E+10	1	-1E+10	1	-1E+10	1	-1E+10	1
4901784	167	C	01/30/2020	10:49	-132.599	43.455	0	63.50	0	11.2730	0	34.6040	8	26.419	0	62.984	0	253.6	4	94.6	4	-1E+10	1	-1E+10	1	-1E+10	1	-1E+10	1	-1E+10	1	-1E+10	1
4901784	167	C	01/30/2020	10:49	-132.599	43.455	0	65.20	0	11.2730	0	34.6040	8	26.419	0	64.670	0	253.5	4	94.6	4	-1E+10	1	-1E+10	1	-1E+10	1	-1E+10	1	-1E+10	1	-1E+10	1
4901784	167	C	01/30/2020	10:49	-132.599	43.455	0	66.90	0	11.2730	0	34.6050	8	26.420	0	66.356	0	253.4	4	94.5	4	-1E+10	1	-1E+10	1	-1E+10	1	-1E+10	1	-1E+10	1	-1E+10	1
4901784	167	C	01/30/2020	10:49	-132.599	43.455	0	68.50	0	11.2730	0	34.6050	8	26.420	0	67.942	0	253.4	4	94.5	4	-1E+10	1	-1E+10	1	-1E+10	1	-1E+10	1	-1E+10	1	-1E+10	1
4901784	167	C	01/30/2020	10:49	-132.599	43.455	0	70.20	0	11.2720	0	34.6060	8	26.421	0	69.628	0	253.3	4	94.5	4	-1E+10	1	-1E+10	1	-1E+10	1	-1E+10	1	-1E+10	1	-1E+10	1
4901784	167	C	01/30/2020	10:49	-132.599	43.455	0	71.90	0	11.2710	0	34.6060	8	26.421	0	71.314	0	253.2	4	94.5	4	-1E+10	1	-1E+10	1	-1E+10	1	-1E+10	1	-1E+10	1	-1E+10	1
4901784	167	C	01/30/2020	10:49	-132.599	43.455	0	73.60	0	11.2710	0	34.6070	8	26.422	0	73.000	0	253.2	4	94.5	4	-1E+10	1	-1E+10	1	-1E+10	1	-1E+10	1	-1E+10	1	-1E+10	1
4901784	167	C	01/30/2020	10:49	-132.599	43.455	0	75.30	0	11.2700	0	34.6070	8	26.423	0	74.686	0	253.1	4	94.4	4	-1E+10	1	-1E+10	1	-1E+10	1	-1E+10	1	-1E+10	1	-1E+10	1
4901784	167	C	01/30/2020	10:49	-132.599	43.455	0	77.00	0	11.2710	0	34.6080	8	26.423	0	76.372	0	252.8	4	94.3	4	-1E+10	1	-1E+10	1	-1E+10	1	-1E+10	1	-1E+10	1	-1E+10	1
4901784	167	C	01/30/2020	10:49	-132.599	43.455	0	78.70	0	11.2720	0	34.6080	8	26.423	0	78.057	0	252.8	4	94.3	4	-1E+10	1	-1E+10	1	-1E+10	1	-1E+10	1	-1E+10	1	-1E+10	1
4901784	167	C	01/30/2020	10:49	-132.599	43.455	0	80.40	0	11.2710	0	34.6090	8	26.424	0	79.743	0	252.4	4	94.2	4	-1E+10	1	-1E+10	1	-1E+10	1	-1E+10	1	-1E+10	1	-1E+10	1
4901784	167	C	01/30/2020	10:49	-132.599	43.455	0	82.10	0	11.2720	0	34.6090	8	26.424	0	81.429	0	252.5	4	94.2	4	-1E+10	1	-1E+10	1	-1E+10	1	-1E+10	1	-1E+10	1	-1E+10	1
4901784	167	C	01/30/2020	10:49	-132.599	43.455	0	83.80	0	11.2710	0	34.6100	8	26.425	0	83.115	0	252.3	4	94.1	4	-1E+10	1	-1E+10	1	-1E+10	1	-1E+10	1	-1E+10	1	-1E+10	1
4901784	167	C	01/30/2020	10:49	-132.599	43.455	0	85.50	0	11.2710	0	34.6100	8	26.425	0	84.800	0	252.1	4	94.0	4	-1E+10	1	-1E+10	1	-1E+10	1	-1E+10	1	-1E+10	1	-1E+10	1
4901784	167	C	01/30/2020	10:49	-132.599	43.455	0	87.20	0	11.2710	0	34.6100	8	26.425	0	86.486	0	251.7	4	93.9	4	-1E+10	1	-1E+10	1	-1E+10	1	-1E+10	1	-1E+10	1	-1E+10	1
4901784	167	C	01/30/2020	10:49	-132.599	43.455	0	88.90	0	11.2710	0	34.6110	8	26.426	0	88.172	0	251.2	4	93.7	4	-1E+10	1	-1E+10	1	-1E+10	1	-1E+10	1	-1E+10	1	-1E+10	1
4901784	167	C	01/30/2020	10:49	-132.599	43.455	0	90.60	0	11.2710	0	34.6100	8	26.425	0	89.858	0	250.8	4	93.6	4	-1E+10	1	-1E+10	1	-1E+10	1	-1E+10	1	-1E+10	1	-1E+10	1
4901784	167	C	01/30/2020	10:49	-132.599	43.455	0	92.40	0	11.2710	0	34.6090	8	26.424	0	91.642	0	250.0	4	93.3	4	-1E+10	1	-1E+10	1	-1E+10	1	-1E+10	1	-1E+10	1	-1E+10	1
4901784	167	C	01/30/2020	10:49	-132.599	43.455	0	94.00	0	11.2700	0	34.6080	8	26.424	0	93.229	0	248.8	4	92.8	4	-1E+10	1	-1E+10	1	-1E+10	1	-1E+10	1	-1E+10	1	-1E+10	1
4901784	167	C	01/30/2020	10:49	-132.599	43.455	0	95.70	0	11.2660	0	34.6060	8	26.423	0	94.915	0	247.5	4	92.3	4	-1E+10	1	-1E+10	1	-1E+10	1	-1E+10	1	-1E+10	1	-1E+10	1
4901784	167	C	01/30/2020	10:49	-132.599	43.455	0	97.30	0	11.2580	0	34.6030	8	26.422	0	96.501	0	245.8	4	91.7	4	-1E+10	1	-1E+10	1	-1E+10	1	-1E+10	1	-1E+10	1	-1E+10	1
4901784	167	C	01/30/2020	10:49	-132.599	43.455	0	99.10	0	11.2200	0	34.6050	8	26.431	0	98.286	0	243.8	4	90.8	4	-1E+10	1	-1E+10	1	-1E+10	1	-1E+10	1	-1E+10	1	-1E+10	1
4901784	167	C	01/30/2020	10:49	-132.599	43.455	0	102.30	0	11.1100	0	34.6150	8	26.459	0	101.459	0	237.9	4	88.5	4	-1E+10	1	-1E+10	1	-1E+10	1	-1E+10	1	-1E+10	1	-1E+10	1
4901784	167	C	01/30/2020	10:49	-132.599	43.455	0	105.20	0	10.5770	0	34.7130	8	26.630	0	104.334	0	234.1	4	86.1	4	-1E+10	1	-1E+10	1	-1E+10	1	-1E+10	1	-1E+10	1	-1E+10	1
4901784	167	C	01/30/2020	10:49	-132.599	43.455	0	107.50	0	10.1200	0	34.7570	8	26.744	0	106.615	0	233.0	4	84.9	4	-1E+10	1	-1E+10	1	-1E+10	1	-1E+10	1	-1E+10	1	-1E+10	1
4901784	167	C	01/30/2020	10:49	-132.599	43.455	0	109.60	0	9.7620	0	34.8010	8	26.839	0	108.697	0	232.4	4	84.1	4	-1E+10	1	-1E+10	1	-1E+10	1	-1E+10	1	-1E+10	1	-1E+10	1
4901784	167	C	01/30/2020	10:49	-132.599	43.455	0	112.50	0	9.5970	0	34.8240	8	26.885	0	111.572	0	230.5	4	83.1	4	-1E+10	1	-1E+10	1	-1E+10	1	-1E+10	1	-1E+10	1	-1E+10	1
4901784	167	C	01/30/2020	10:49	-132.599	43.455	0	114.90	0	9.3970	0	34.8590	8	26.946	0	113.952	0	229.3	4	82.3	4	-1E+10	1	-1E+10	1	-1E+10	1	-1E+10	1	-1E+10	1	-1E+10	1
4901784	167	C	01/30/2020	10:49	-132.599	43.455	0	117.20	0	9.2560	0	34.9160	8	27.013	0	116.232	0	227.9	4	81.6	4	-1E+10	1	-1E+10	1	-1E+10	1	-1E+10	1	-1E+10	1	-1E+10	1
4901784	167	C	01/30/2020	10:49	-132.599	43.455	0	120.40	0	9.2460	0	34.9350	8	27.030	0	119.405	0	225.0	4	80.6	4	-1E+10	1	-1E+10	1	-1E+10	1	-1E+10	1	-1E+10	1	-1E+10	1
4901784	167	C	01/30/2020	10:49	-132.599	43.455	0	122.70	0	9.2310	0	34.9990	8	27.083	0	121.685	0	222.1	4	79.5	4	-1E+10	1	-1E+10	1	-1E+10	1	-1E+10	1	-1E+10	1	-1E+10	1
4901784	167	C	01/30/2020	10:49	-132.599	43.455	0	125.10	0	9.1860	0	35.0300	8	27.114	0	124.065	0	219.0	4	78.4	4	-1E+10	1	-1E+10	1	-1E+10	1	-1E+10	1	-1E+10	1	-1E+10	1
4901784	167	C	01/30/2020	10:49	-132.599	43.455	0	127.40	0	9.0550	0	35.0630	8	27.161	0	126.345	0	216.1	4	77.1	4	-1E+10	1	-1E+10	1	-1E+10	1	-1E+10	1	-1E+10	1	-1E+10	1
4901784	167	C	01/30/2020	10:49	-132.599	43.455	0	129.70	0	8.8190	0	35.1370	8	27.257	0	128.625	0	212.8	4	75.6	4	-1E+10	1	-1E+10	1	-1E+10	1	-1E+10	1	-1E+10	1	-1E+10	1
4901784	167	C	01/30/2020	10:49	-132.599	43.455	0	132.10	0	8.6160	0	35.2080	8	27.345	0	131.004	0	210.1	4	74.4	4	-1E+10	1	-1E+10	1	-1E+10	1	-1E+10	1	-1E+10	1	-1E+10	1
4901784	167	C	01/30/2020	10:49	-132.599	43.455	0	134.70	0	8.4750	0	35.2810	8	27.424	0	133.582	0	209.0	4	73.8	4	-1E+10	1	-1E+10	1	-1E+10	1	-1E+10	1	-1E+10	1	-1E+10	1
4901784	167	C	01/30/2020	10:49	-132.599	43.455	0	137.30	0	8.4500	0	35.2940	8	27.438	0	136.160	0	207.7	4	73.3	4	-1E+10	1	-1E+10	1	-1E+10	1	-1E+10	1	-1E+10	1	-1E+10	1
4901784	167	C	01/30/2020	10:49	-132.599	43.455	0	139.90	0	8.4350	0	35.3170	8	27.459	0	138.737	0	205.6	4	72.5	4	-1E+10	1	-1E+10	1	-1E+10	1	-1E+10	1	-1E+10	1	-1E+10	1
4901784	167	C	01/30/2020	10:49	-132.599	43.455	0	142.50	0	8.3810	0	35.3720	8	27.510	0	141.315	0	203.6	4	71.8	4	-1E+10	1	-1E+10	1	-1E+10	1	-1E+10	1	-1E+10	1	-1E+10	1
4901784	167	C	01/30/2020	10:49	-132.599	43.455	0	144.80	0	8.3500	0	35.4130	8	27.547	0	143.595	0	201.6	4	71.0	4	-1E+10	1	-1E+10	1	-1E+10	1	-1E+10	1	-1E+10	1	-1E+10	1
4901784	167	C	01/30/2020	10:49	-132.599	43.455	0	147.50	0	8.3160	0	35.4700	8	27.597	0	146.271	0	198.6	4	69.9	4	-1E+10	1	-1E+10	1	-1E+10	1	-1E+10	1	-1E+10	1	-1E+10	1
4901784	167	C	01/30/2020	10:49	-132.599	43.455	0	149.90	0	8.2800	0	35.5200	8	27.642	0	148.650	0	196.2	4	69.1	4	-1E+10	1	-1E+10	1	-1E+10	1	-1E+10	1	-1E+10	1	-1E+10	1
4901784	167	C	01/30/2020	10:49	-132.599	43.455	0	152.20	0	8.2850	0	35.5440	8	27.660	0	150.930	0	193.0	4	68.0	4	-1E+10	1	-1E+10	1	-1E+10	1	-1E+10	1	-1E+10	1	-1E+10	1
4901784	167	C	01/30/2020	10:49	-132.599	43.455	0	154.70	0	8.2840	0	35.5950	8	27.701	0	153.409	0	189.2	4	66.6	4	-1E+10	1	-1E+10	1	-1E+10	1	-1E+10	1	-1E+10	1	-1E+10	1
4901784	167	C	01/30/2020	10:49	-132.599	43.455	0	157.20	0	8.3190	0	35.6450	8	27.735	0	155.887	0	186.9	4	65.9	4	-1E+10	1	-1E+10	1	-1E+10	1	-1E+10	1	-1E+10	1	-1E+10	1
4901784	167	C	01/30/2020	10:49	-132.599	43.455	0	159.80	0	8.3300	0	35.6590	8	27.744	0	158.464	0	185.2	4	65.3	4	-1E+10	1	-1E+10	1	-1E+10	1	-1E+10	1	-1E+10	1	-1E+10	1
4901784	167	C	01/30/2020	10:49	-132.599	43.455	0	162.40	0	8.3220	0	35.6910	8	27.770	0	161.041	0	183.7	4	64.8	4	-1E+10	1	-1E+10	1	-1E+10	1	-1E+10	1	-1E+10	1	-1E+10	1
4901784	167	C	01/30/2020	10:49	-132.599	43.455	0	164.90	0	8.3140	0	35.7280	8	27.801	0	163.519	0	182.5	4	64.4	4	-1E+10	1	-1E+10	1	-1E+10	1	-1E+10	1	-1E+10	1	-1E+10	1
4901784	167	C	01/30/2020	10:49	-132.599	43.455	0	167.40	0	8.3110	0	35.7300	8	27.803	0	165.997	0	181.5	4	64.0	4	-1E+10	1	-1E+10	1	-1E+10	1	-1E+10	1	-1E+10	1	-1E+10	1
4901784	167	C	01/30/2020	10:49	-132.599	43.455	0	169.90	0	8.2680	0	35.7550	8	27.829	0	168.476	0	179.9	4	63.4	4	-1E+10	1	-1E+10	1	-1E+10	1	-1E+10	1	-1E+10	1	-1E+10	1
4901784	167	C	01/30/2020	10:49	-132.599	43.455	0	172.50	0	8.2670	0	35.7830	8	27.851	0	171.053	0	177.1	4	62.4	4	-1E+10	1	-1E+10	1	-1E+10	1	-1E+10	1	-1E+10	1	-1E+10	1
4901784	167	C	01/30/2020	10:49	-132.599	43.455	0	175.00	0	8.3070	0	35.8150	8	27.870	0	173.531	0	173.5	4	61.2	4	-1E+10	1	-1E+10	1	-1E+10	1	-1E+10	1	-1E+10	1	-1E+10	1
4901784	167	C	01/30/2020	10:49	-132.599	43.455	0	177.50	0	8.3040	0	35.8510	8	27.899	0	176.009	0	171.0	4	60.4	4	-1E+10	1	-1E+10	1	-1E+10	1	-1E+10	1	-1E+10	1	-1E+10	1
4901784	167	C	01/30/2020	10:49	-132.599	43.455	0	180.20	0	8.2990	0	35.8620	8	27.908	0	178.685	0	168.8	4	59.6	4	-1E+10	1	-1E+10	1	-1E+10	1	-1E+10	1	-1E+10	1	-1E+10	1
4901784	167	C	01/30/2020	10:49	-132.599	43.455	0	182.70	0	8.2960	0	35.8990	8	27.938	0	181.163	0	165.8	4	58.6	4	-1E+10	1	-1E+10	1	-1E+10	1	-1E+10	1	-1E+10	1	-1E+10	1
4901784	167	C	01/30/2020	10:49	-132.599	43.455	0	185.40	0	8.2950	0	35.9200	8	27.955	0	183.839	0	162.9	4	57.5	4	-1E+10	1	-1E+10	1	-1E+10	1	-1E+10	1	-1E+10	1	-1E+10	1
4901784	167	C	01/30/2020	10:49	-132.599	43.455	0	187.10	0	8.2960	0	35.9330	8	27.965	0	185.524	0	160.8	4	56.8	4	-1E+10	1	-1E+10	1	-1E+10	1	-1E+10	1	-1E+10	1	-1E+10	1
4901784	167	C	01/30/2020	10:49	-132.599	43.455	0	189.70	0	8.2940	0	35.9510	8	27.979	0	188.101	0	157.0	4	55.5	4	-1E+10	1	-1E+10	1	-1E+10	1	-1E+10	1	-1E+10	1	-1E+10	1
4901784	167	C	01/30/2020	10:49	-132.599	43.455	0	192.30	0	8.2860	0	35.9990	8	28.018	0	190.677	0	152.5	4	53.9	4	-1E+10	1	-1E+10	1	-1E+10	1	-1E+10	1	-1E+10	1	-1E+10	1
4901784	167	C	01/30/2020	10:49	-132.599	43.455	0	195.10	0	8.2650	0	36.0510	8	28.062	0	193.452	0	148.7	4	52.5	4	-1E+10	1	-1E+10	1	-1E+10	1	-1E+10	1	-1E+10	1	-1E+10	1
4901784	167	C	01/30/2020	10:49	-132.599	43.455	0	197.40	0	8.2530	0	36.0720	8	28.081	0	195.732	0	145.8	4	51.5	4	-1E+10	1	-1E+10	1	-1E+10	1	-1E+10	1	-1E+10	1	-1E+10	1
4901784	167	C	01/30/2020	10:49	-132.599	43.455	0	200.30	0	8.2150	0	36.1130	8	28.119	0	198.606	0	142.7	4	50.4	4	-1E+10	1	-1E+10	1	-1E+10	1	-1E+10	1	-1E+10	1	-1E+10	1
4901784	167	C	01/30/2020	10:49	-132.599	43.455	0	202.50	0	8.1940	0	36.1310	8	28.136	0	200.786	0	141.7	4	50.0	4	-1E+10	1	-1E+10	1	-1E+10	1	-1E+10	1	-1E+10	1	-1E+10	1
4901784	167	C	01/30/2020	10:49	-132.599	43.455	0	204.90	0	8.1770	0	36.1390	8	28.145	0	203.165	0	142.1	4	50.1	4	-1E+10	1	-1E+10	1	-1E+10	1	-1E+10	1	-1E+10	1	-1E+10	1
4901784	167	C	01/30/2020	10:49	-132.599	43.455	0	207.20	0	8.1620	0	36.1460	8	28.153	0	205.444	0	143.5	4	50.6	4	-1E+10	1	-1E+10	1	-1E+10	1	-1E+10	1	-1E+10	1	-1E+10	1
4901784	167	C	01/30/2020	10:49	-132.599	43.455	0	209.60	0	8.1270	0	36.1560	8	28.166	0	207.823	0	146.9	4	51.8	4	-1E+10	1	-1E+10	1	-1E+10	1	-1E+10	1	-1E+10	1	-1E+10	1
4901784	167	C	01/30/2020	10:49	-132.599	43.455	0	212.80	0	8.0400	0	36.1700	8	28.191	0	210.994	0	151.7	4	53.4	4	-1E+10	1	-1E+10	1	-1E+10	1	-1E+10	1	-1E+10	1	-1E+10	1
4901784	167	C	01/30/2020	10:49	-132.599	43.455	0	215.30	0	8.0090	0	36.1740	8	28.199	0	213.471	0	151.5	4	53.3	4	-1E+10	1	-1E+10	1	-1E+10	1	-1E+10	1	-1E+10	1	-1E+10	1
4901784	167	C	01/30/2020	10:49	-132.599	43.455	0	217.80	0	7.9840	0	36.1790	8	28.207	0	215.949	0	150.2	4	52.8	4	-1E+10	1	-1E+10	1	-1E+10	1	-1E+10	1	-1E+10	1	-1E+10	1
4901784	167	C	01/30/2020	10:49	-132.599	43.455	0	220.30	0	7.9660	0	36.1820	8	28.212	0	218.426	0	148.7	4	52.2	4	-1E+10	1	-1E+10	1	-1E+10	1	-1E+10	1	-1E+10	1	-1E+10	1
4901784	167	C	01/30/2020	10:49	-132.599	43.455	0	222.90	0	7.9290	0	36.1870	8	28.221	0	221.003	0	147.0	4	51.6	4	-1E+10	1	-1E+10	1	-1E+10	1	-1E+10	1	-1E+10	1	-1E+10	1
4901784	167	C	01/30/2020	10:49	-132.599	43.455	0	225.40	0	7.8790	0	36.1920	8	28.233	0	223.480	0	145.6	4	51.0	4	-1E+10	1	-1E+10	1	-1E+10	1	-1E+10	1	-1E+10	1	-1E+10	1
4901784	167	C	01/30/2020	10:49	-132.599	43.455	0	227.90	0	7.8500	0	36.1940	8	28.239	0	225.958	0	144.4	4	50.6	4	-1E+10	1	-1E+10	1	-1E+10	1	-1E+10	1	-1E+10	1	-1E+10	1
4901784	167	C	01/30/2020	10:49	-132.599	43.455	0	230.30	0	7.8140	0	36.1970	8	28.247	0	228.336	0	143.3	4	50.2	4	-1E+10	1	-1E+10	1	-1E+10	1	-1E+10	1	-1E+10	1	-1E+10	1
4901784	167	C	01/30/2020	10:49	-132.599	43.455	0	232.90	0	7.7770	0	36.1980	8	28.253	0	230.912	0	142.1	4	49.7	4	-1E+10	1	-1E+10	1	-1E+10	1	-1E+10	1	-1E+10	1	-1E+10	1
4901784	167	C	01/30/2020	10:49	-132.599	43.455	0	235.50	0	7.7560	0	36.1980	8	28.256	0	233.489	0	140.8	4	49.2	4	-1E+10	1	-1E+10	1	-1E+10	1	-1E+10	1	-1E+10	1	-1E+10	1
4901784	167	C	01/30/2020	10:49	-132.599	43.455	0	237.10	0	7.7430	0	36.1970	8	28.257	0	235.074	0	139.8	4	48.9	4	-1E+10	1	-1E+10	1	-1E+10	1	-1E+10	1	-1E+10	1	-1E+10	1
4901784	167	C	01/30/2020	10:49	-132.599	43.455	0	239.70	0	7.6940	0	36.1990	8	28.266	0	237.650	0	137.9	4	48.1	4	-1E+10	1	-1E+10	1	-1E+10	1	-1E+10	1	-1E+10	1	-1E+10	1
4901784	167	C	01/30/2020	10:49	-132.599	43.455	0	242.20	0	7.6270	0	36.2040	8	28.280	0	240.127	0	136.0	4	47.4	4	-1E+10	1	-1E+10	1	-1E+10	1	-1E+10	1	-1E+10	1	-1E+10	1
4901784	167	C	01/30/2020	10:49	-132.599	43.455	0	244.90	0	7.6100	0	36.2060	8	28.284	0	242.803	0	134.1	4	46.8	4	-1E+10	1	-1E+10	1	-1E+10	1	-1E+10	1	-1E+10	1	-1E+10	1
4901784	167	C	01/30/2020	10:49	-132.599	43.455	0	247.60	0	7.6090	0	36.2050	8	28.284	0	245.478	0	133.0	4	46.4	4	-1E+10	1	-1E+10	1	-1E+10	1	-1E+10	1	-1E+10	1	-1E+10	1
4901784	167	C	01/30/2020	10:49	-132.599	43.455	0	250.20	0	7.5820	0	36.2050	8	28.288	0	248.054	0	133.8	4	46.6	4	-1E+10	1	-1E+10	1	-1E+10	1	-1E+10	1	-1E+10	1	-1E+10	1
4901784	167	C	01/30/2020	10:49	-132.599	43.455	0	252.80	0	7.5020	0	36.2070	8	28.301	0	250.630	0	135.1	4	47.0	4	-1E+10	1	-1E+10	1	-1E+10	1	-1E+10	1	-1E+10	1	-1E+10	1
4901784	167	C	01/30/2020	10:49	-132.599	43.455	0	254.60	0	7.4940	0	36.2040	8	28.300	0	252.414	0	135.3	4	47.1	4	-1E+10	1	-1E+10	1	-1E+10	1	-1E+10	1	-1E+10	1	-1E+10	1
4901784	167	C	01/30/2020	10:49	-132.599	43.455	0	257.20	0	7.4490	0	36.2030	8	28.306	0	254.990	0	135.5	4	47.1	4	-1E+10	1	-1E+10	1	-1E+10	1	-1E+10	1	-1E+10	1	-1E+10	1
4901784	167	C	01/30/2020	10:49	-132.599	43.455	0	259.90	0	7.3670	0	36.2040	8	28.319	0	257.665	0	134.5	4	46.6	4	-1E+10	1	-1E+10	1	-1E+10	1	-1E+10	1	-1E+10	1	-1E+10	1
4901784	167	C	01/30/2020	10:49	-132.599	43.455	0	262.60	0	7.2900	0	36.2060	8	28.332	0	260.340	0	133.1	4	46.1	4	-1E+10	1	-1E+10	1	-1E+10	1	-1E+10	1	-1E+10	1	-1E+10	1
4901784	167	C	01/30/2020	10:49	-132.599	43.455	0	265.30	0	7.2460	0	36.2070	8	28.339	0	263.015	0	132.0	4	45.6	4	-1E+10	1	-1E+10	1	-1E+10	1	-1E+10	1	-1E+10	1	-1E+10	1
4901784	167	C	01/30/2020	10:49	-132.599	43.455	0	267.10	0	7.2100	0	36.2070	8	28.344	0	264.798	0	131.3	4	45.4	4	-1E+10	1	-1E+10	1	-1E+10	1	-1E+10	1	-1E+10	1	-1E+10	1
4901784	167	C	01/30/2020	10:49	-132.599	43.455	0	269.90	0	7.1630	0	36.2090	8	28.352	0	267.572	0	130.3	4	45.0	4	-1E+10	1	-1E+10	1	-1E+10	1	-1E+10	1	-1E+10	1	-1E+10	1
4901784	167	C	01/30/2020	10:49	-132.599	43.455	0	272.60	0	7.1060	0	36.2090	8	28.361	0	270.247	0	129.0	4	44.5	4	-1E+10	1	-1E+10	1	-1E+10	1	-1E+10	1	-1E+10	1	-1E+10	1
4901784	167	C	01/30/2020	10:49	-132.599	43.455	0	275.30	0	7.0770	0	36.2120	8	28.367	0	272.922	0	127.7	4	44.0	4	-1E+10	1	-1E+10	1	-1E+10	1	-1E+10	1	-1E+10	1	-1E+10	1
4901784	167	C	01/30/2020	10:49	-132.599	43.455	0	278.00	0	7.0620	0	36.2120	8	28.369	0	275.597	0	127.1	4	43.7	4	-1E+10	1	-1E+10	1	-1E+10	1	-1E+10	1	-1E+10	1	-1E+10	1
4901784	167	C	01/30/2020	10:49	-132.599	43.455	0	279.80	0	7.0380	0	36.2130	8	28.374	0	277.380	0	126.9	4	43.7	4	-1E+10	1	-1E+10	1	-1E+10	1	-1E+10	1	-1E+10	1	-1E+10	1
4901784	167	C	01/30/2020	10:49	-132.599	43.455	0	282.50	0	7.0340	0	36.2130	8	28.374	0	280.055	0	126.2	4	43.4	4	-1E+10	1	-1E+10	1	-1E+10	1	-1E+10	1	-1E+10	1	-1E+10	1
4901784	167	C	01/30/2020	10:49	-132.599	43.455	0	285.20	0	7.0270	0	36.2120	8	28.374	0	282.730	0	125.3	4	43.1	4	-1E+10	1	-1E+10	1	-1E+10	1	-1E+10	1	-1E+10	1	-1E+10	1
4901784	167	C	01/30/2020	10:49	-132.599	43.455	0	287.00	0	7.0130	0	36.2110	8	28.376	0	284.513	0	124.5	4	42.8	4	-1E+10	1	-1E+10	1	-1E+10	1	-1E+10	1	-1E+10	1	-1E+10	1
4901784	167	C	01/30/2020	10:49	-132.599	43.455	0	289.80	0	6.9580	0	36.2140	8	28.386	0	287.287	0	123.7	4	42.5	4	-1E+10	1	-1E+10	1	-1E+10	1	-1E+10	1	-1E+10	1	-1E+10	1
4901784	167	C	01/30/2020	10:49	-132.599	43.455	0	292.60	0	6.9320	0	36.2120	8	28.388	0	290.061	0	123.1	4	42.3	4	-1E+10	1	-1E+10	1	-1E+10	1	-1E+10	1	-1E+10	1	-1E+10	1
4901784	167	C	01/30/2020	10:49	-132.599	43.455	0	294.50	0	6.8880	0	36.2150	8	28.397	0	291.943	0	122.5	4	42.0	4	-1E+10	1	-1E+10	1	-1E+10	1	-1E+10	1	-1E+10	1	-1E+10	1
4901784	167	C	01/30/2020	10:49	-132.599	43.455	0	297.30	0	6.8520	0	36.2140	8	28.401	0	294.717	0	121.9	4	41.8	4	-1E+10	1	-1E+10	1	-1E+10	1	-1E+10	1	-1E+10	1	-1E+10	1
4901784	167	C	01/30/2020	10:49	-132.599	43.455	0	300.00	0	6.8020	0	36.2130	8	28.407	0	297.391	0	121.5	4	41.6	4	-1E+10	1	-1E+10	1	-1E+10	1	-1E+10	1	-1E+10	1	-1E+10	1
4901784	167	C	01/30/2020	10:49	-132.599	43.455	0	302.80	0	6.7630	0	36.2140	8	28.413	0	300.165	0	120.6	4	41.2	4	-1E+10	1	-1E+10	1	-1E+10	1	-1E+10	1	-1E+10	1	-1E+10	1
4901784	167	C	01/30/2020	10:49	-132.599	43.455	0	305.50	0	6.7480	0	36.2120	8	28.414	0	302.839	0	119.7	4	40.9	4	-1E+10	1	-1E+10	1	-1E+10	1	-1E+10	1	-1E+10	1	-1E+10	1
4901784	167	C	01/30/2020	10:49	-132.599	43.455	0	307.30	0	6.7400	0	36.2110	8	28.414	0	304.622	0	118.9	4	40.6	4	-1E+10	1	-1E+10	1	-1E+10	1	-1E+10	1	-1E+10	1	-1E+10	1
4901784	167	C	01/30/2020	10:49	-132.599	43.455	0	310.00	0	6.6810	0	36.2110	8	28.422	0	307.297	0	117.5	4	40.1	4	-1E+10	1	-1E+10	1	-1E+10	1	-1E+10	1	-1E+10	1	-1E+10	1
4901784	167	C	01/30/2020	10:49	-132.599	43.455	0	312.70	0	6.6160	0	36.2130	8	28.433	0	309.971	0	116.3	4	39.6	4	-1E+10	1	-1E+10	1	-1E+10	1	-1E+10	1	-1E+10	1	-1E+10	1
4901784	167	C	01/30/2020	10:49	-132.599	43.455	0	314.60	0	6.5980	0	36.2130	8	28.436	0	311.853	0	115.5	4	39.4	4	-1E+10	1	-1E+10	1	-1E+10	1	-1E+10	1	-1E+10	1	-1E+10	1
4901784	167	C	01/30/2020	10:49	-132.599	43.455	0	317.30	0	6.5480	0	36.2130	8	28.442	0	314.528	0	114.2	4	38.9	4	-1E+10	1	-1E+10	1	-1E+10	1	-1E+10	1	-1E+10	1	-1E+10	1
4901784	167	C	01/30/2020	10:49	-132.599	43.455	0	320.00	0	6.4990	0	36.2130	8	28.449	0	317.202	0	112.9	4	38.4	4	-1E+10	1	-1E+10	1	-1E+10	1	-1E+10	1	-1E+10	1	-1E+10	1
4901784	167	C	01/30/2020	10:49	-132.599	43.455	0	322.80	0	6.4550	0	36.2150	8	28.457	0	319.975	0	111.5	4	37.9	4	-1E+10	1	-1E+10	1	-1E+10	1	-1E+10	1	-1E+10	1	-1E+10	1
4901784	167	C	01/30/2020	10:49	-132.599	43.455	0	325.50	0	6.4000	0	36.2180	8	28.467	0	322.650	0	110.5	4	37.5	4	-1E+10	1	-1E+10	1	-1E+10	1	-1E+10	1	-1E+10	1	-1E+10	1
4901784	167	C	01/30/2020	10:49	-132.599	43.455	0	327.40	0	6.3860	0	36.2170	8	28.468	0	324.532	0	110.0	4	37.3	4	-1E+10	1	-1E+10	1	-1E+10	1	-1E+10	1	-1E+10	1	-1E+10	1
4901784	167	C	01/30/2020	10:49	-132.599	43.455	0	330.10	0	6.3760	0	36.2160	8	28.468	0	327.206	0	108.9	4	36.9	4	-1E+10	1	-1E+10	1	-1E+10	1	-1E+10	1	-1E+10	1	-1E+10	1
4901784	167	C	01/30/2020	10:49	-132.599	43.455	0	332.80	0	6.3470	0	36.2160	8	28.472	0	329.880	0	107.6	4	36.5	4	-1E+10	1	-1E+10	1	-1E+10	1	-1E+10	1	-1E+10	1	-1E+10	1
4901784	167	C	01/30/2020	10:49	-132.599	43.455	0	334.70	0	6.3070	0	36.2210	8	28.482	0	331.762	0	107.2	4	36.3	4	-1E+10	1	-1E+10	1	-1E+10	1	-1E+10	1	-1E+10	1	-1E+10	1
4901784	167	C	01/30/2020	10:49	-132.599	43.455	0	337.50	0	6.2560	0	36.2190	8	28.487	0	334.535	0	106.7	4	36.1	4	-1E+10	1	-1E+10	1	-1E+10	1	-1E+10	1	-1E+10	1	-1E+10	1
4901784	167	C	01/30/2020	10:49	-132.599	43.455	0	340.30	0	6.2430	0	36.2180	8	28.488	0	337.308	0	105.7	4	35.7	4	-1E+10	1	-1E+10	1	-1E+10	1	-1E+10	1	-1E+10	1	-1E+10	1
4901784	167	C	01/30/2020	10:49	-132.599	43.455	0	342.10	0	6.2310	0	36.2190	8	28.490	0	339.091	0	104.8	4	35.4	4	-1E+10	1	-1E+10	1	-1E+10	1	-1E+10	1	-1E+10	1	-1E+10	1
4901784	167	C	01/30/2020	10:49	-132.599	43.455	0	344.90	0	6.1570	0	36.2200	8	28.501	0	341.864	0	103.7	4	35.0	4	-1E+10	1	-1E+10	1	-1E+10	1	-1E+10	1	-1E+10	1	-1E+10	1
4901784	167	C	01/30/2020	10:49	-132.599	43.455	0	347.60	0	6.1350	0	36.2230	8	28.506	0	344.538	0	102.6	4	34.6	4	-1E+10	1	-1E+10	1	-1E+10	1	-1E+10	1	-1E+10	1	-1E+10	1
4901784	167	C	01/30/2020	10:49	-132.599	43.455	0	349.50	0	6.1190	0	36.2240	8	28.509	0	346.419	0	102.2	4	34.4	4	-1E+10	1	-1E+10	1	-1E+10	1	-1E+10	1	-1E+10	1	-1E+10	1
4901784	167	C	01/30/2020	10:49	-132.599	43.455	0	352.40	0	6.1040	0	36.2240	8	28.511	0	349.291	0	101.6	4	34.2	4	-1E+10	1	-1E+10	1	-1E+10	1	-1E+10	1	-1E+10	1	-1E+10	1
4901784	167	C	01/30/2020	10:49	-132.599	43.455	0	355.30	0	6.0980	0	36.2230	8	28.511	0	352.163	0	100.8	4	34.0	4	-1E+10	1	-1E+10	1	-1E+10	1	-1E+10	1	-1E+10	1	-1E+10	1
4901784	167	C	01/30/2020	10:49	-132.599	43.455	0	357.20	0	6.0930	0	36.2210	8	28.510	0	354.045	0	100.2	4	33.8	4	-1E+10	1	-1E+10	1	-1E+10	1	-1E+10	1	-1E+10	1	-1E+10	1
4901784	167	C	01/30/2020	10:49	-132.599	43.455	0	360.10	0	6.0270	0	36.2220	8	28.520	0	356.917	0	99.5	4	33.5	4	-1E+10	1	-1E+10	1	-1E+10	1	-1E+10	1	-1E+10	1	-1E+10	1
4901784	167	C	01/30/2020	10:49	-132.599	43.455	0	362.80	0	5.9430	0	36.2230	8	28.532	0	359.591	0	98.9	4	33.2	4	-1E+10	1	-1E+10	1	-1E+10	1	-1E+10	1	-1E+10	1	-1E+10	1
4901784	167	C	01/30/2020	10:49	-132.599	43.455	0	364.70	0	5.9020	0	36.2250	8	28.539	0	361.472	0	99.1	4	33.2	4	-1E+10	1	-1E+10	1	-1E+10	1	-1E+10	1	-1E+10	1	-1E+10	1
4901784	167	C	01/30/2020	10:49	-132.599	43.455	0	367.60	0	5.8920	0	36.2240	8	28.539	0	364.344	0	98.4	4	33.0	4	-1E+10	1	-1E+10	1	-1E+10	1	-1E+10	1	-1E+10	1	-1E+10	1
4901784	167	C	01/30/2020	10:49	-132.599	43.455	0	370.50	0	5.8690	0	36.2240	8	28.542	0	367.216	0	97.6	4	32.7	4	-1E+10	1	-1E+10	1	-1E+10	1	-1E+10	1	-1E+10	1	-1E+10	1
4901784	167	C	01/30/2020	10:49	-132.599	43.455	0	372.40	0	5.8560	0	36.2250	8	28.545	0	369.097	0	96.8	4	32.4	4	-1E+10	1	-1E+10	1	-1E+10	1	-1E+10	1	-1E+10	1	-1E+10	1
4901784	167	C	01/30/2020	10:49	-132.599	43.455	0	375.20	0	5.8250	0	36.2270	8	28.550	0	371.870	0	96.3	4	32.2	4	-1E+10	1	-1E+10	1	-1E+10	1	-1E+10	1	-1E+10	1	-1E+10	1
4901784	167	C	01/30/2020	10:49	-132.599	43.455	0	378.40	0	5.8090	0	36.2250	8	28.551	0	375.039	0	95.8	4	32.0	4	-1E+10	1	-1E+10	1	-1E+10	1	-1E+10	1	-1E+10	1	-1E+10	1
4901784	167	C	01/30/2020	10:49	-132.599	43.455	0	379.80	0	5.8010	0	36.2240	8	28.551	0	376.425	0	95.3	4	31.9	4	-1E+10	1	-1E+10	1	-1E+10	1	-1E+10	1	-1E+10	1	-1E+10	1
4901784	167	C	01/30/2020	10:49	-132.599	43.455	0	382.20	0	5.7750	0	36.2230	8	28.553	0	378.801	0	94.2	4	31.5	4	-1E+10	1	-1E+10	1	-1E+10	1	-1E+10	1	-1E+10	1	-1E+10	1
4901784	167	C	01/30/2020	10:49	-132.599	43.455	0	384.60	0	5.7310	0	36.2250	8	28.561	0	381.178	0	93.2	4	31.1	4	-1E+10	1	-1E+10	1	-1E+10	1	-1E+10	1	-1E+10	1	-1E+10	1
4901784	167	C	01/30/2020	10:49	-132.599	43.455	0	387.80	0	5.6810	0	36.2240	8	28.566	0	384.346	0	91.9	4	30.7	4	-1E+10	1	-1E+10	1	-1E+10	1	-1E+10	1	-1E+10	1	-1E+10	1
4901784	167	C	01/30/2020	10:49	-132.599	43.455	0	390.30	0	5.6100	0	36.2280	8	28.579	0	386.822	0	91.0	4	30.3	4	-1E+10	1	-1E+10	1	-1E+10	1	-1E+10	1	-1E+10	1	-1E+10	1
4901784	167	C	01/30/2020	10:49	-132.599	43.455	0	392.90	0	5.5810	0	36.2270	8	28.581	0	389.396	0	90.3	4	30.1	4	-1E+10	1	-1E+10	1	-1E+10	1	-1E+10	1	-1E+10	1	-1E+10	1
4901784	167	C	01/30/2020	10:49	-132.599	43.455	0	395.40	0	5.5490	0	36.2290	8	28.587	0	391.872	0	89.6	4	29.8	4	-1E+10	1	-1E+10	1	-1E+10	1	-1E+10	1	-1E+10	1	-1E+10	1
4901784	167	C	01/30/2020	10:49	-132.599	43.455	0	397.90	0	5.5030	0	36.2300	8	28.594	0	394.347	0	88.9	4	29.5	4	-1E+10	1	-1E+10	1	-1E+10	1	-1E+10	1	-1E+10	1	-1E+10	1
4901784	167	C	01/30/2020	10:49	-132.599	43.455	0	400.40	0	5.4960	0	36.2280	8	28.593	0	396.822	0	88.1	4	29.3	4	-1E+10	1	-1E+10	1	-1E+10	1	-1E+10	1	-1E+10	1	-1E+10	1
4901784	167	C	01/30/2020	10:49	-132.599	43.455	0	402.10	0	5.4650	0	36.2310	8	28.599	0	398.505	0	87.5	4	29.0	4	-1E+10	1	-1E+10	1	-1E+10	1	-1E+10	1	-1E+10	1	-1E+10	1
4901784	167	C	01/30/2020	10:49	-132.599	43.455	0	404.60	0	5.4440	0	36.2340	8	28.604	0	400.981	0	86.2	4	28.6	4	-1E+10	1	-1E+10	1	-1E+10	1	-1E+10	1	-1E+10	1	-1E+10	1
4901784	167	C	01/30/2020	10:49	-132.599	43.455	0	407.00	0	5.4010	0	36.2340	8	28.610	0	403.357	0	85.0	4	28.2	4	-1E+10	1	-1E+10	1	-1E+10	1	-1E+10	1	-1E+10	1	-1E+10	1
4901784	167	C	01/30/2020	10:49	-132.599	43.455	0	409.60	0	5.3760	0	36.2360	8	28.614	0	405.931	0	83.7	4	27.7	4	-1E+10	1	-1E+10	1	-1E+10	1	-1E+10	1	-1E+10	1	-1E+10	1
4901784	167	C	01/30/2020	10:49	-132.599	43.455	0	412.10	0	5.3560	0	36.2400	8	28.620	0	408.406	0	82.4	4	27.3	4	-1E+10	1	-1E+10	1	-1E+10	1	-1E+10	1	-1E+10	1	-1E+10	1
4901784	167	C	01/30/2020	10:49	-132.599	43.455	0	414.60	0	5.3350	0	36.2400	8	28.623	0	410.881	0	81.6	4	27.0	4	-1E+10	1	-1E+10	1	-1E+10	1	-1E+10	1	-1E+10	1	-1E+10	1
4901784	167	C	01/30/2020	10:49	-132.599	43.455	0	417.10	0	5.2800	0	36.2430	8	28.632	0	413.356	0	80.8	4	26.7	4	-1E+10	1	-1E+10	1	-1E+10	1	-1E+10	1	-1E+10	1	-1E+10	1
4901784	167	C	01/30/2020	10:49	-132.599	43.455	0	419.60	0	5.2540	0	36.2440	8	28.636	0	415.831	0	80.0	4	26.4	4	-1E+10	1	-1E+10	1	-1E+10	1	-1E+10	1	-1E+10	1	-1E+10	1
4901784	167	C	01/30/2020	10:49	-132.599	43.455	0	422.20	0	5.2320	0	36.2460	8	28.640	0	418.405	0	79.4	4	26.2	4	-1E+10	1	-1E+10	1	-1E+10	1	-1E+10	1	-1E+10	1	-1E+10	1
4901784	167	C	01/30/2020	10:49	-132.599	43.455	0	424.80	0	5.2220	0	36.2460	8	28.641	0	420.979	0	78.6	4	26.0	4	-1E+10	1	-1E+10	1	-1E+10	1	-1E+10	1	-1E+10	1	-1E+10	1
4901784	167	C	01/30/2020	10:49	-132.599	43.455	0	427.30	0	5.2100	0	36.2470	8	28.644	0	423.454	0	77.7	4	25.6	4	-1E+10	1	-1E+10	1	-1E+10	1	-1E+10	1	-1E+10	1	-1E+10	1
4901784	167	C	01/30/2020	10:49	-132.599	43.455	0	429.80	0	5.1770	0	36.2510	8	28.651	0	425.929	0	76.6	4	25.3	4	-1E+10	1	-1E+10	1	-1E+10	1	-1E+10	1	-1E+10	1	-1E+10	1
4901784	167	C	01/30/2020	10:49	-132.599	43.455	0	432.40	0	5.1570	0	36.2520	8	28.654	0	428.503	0	75.5	4	24.9	4	-1E+10	1	-1E+10	1	-1E+10	1	-1E+10	1	-1E+10	1	-1E+10	1
4901784	167	C	01/30/2020	10:49	-132.599	43.455	0	435.00	0	5.1480	0	36.2540	8	28.657	0	431.077	0	74.1	4	24.4	4	-1E+10	1	-1E+10	1	-1E+10	1	-1E+10	1	-1E+10	1	-1E+10	1
4901784	167	C	01/30/2020	10:49	-132.599	43.455	0	437.60	0	5.1380	0	36.2580	8	28.661	0	433.651	0	72.9	4	24.0	4	-1E+10	1	-1E+10	1	-1E+10	1	-1E+10	1	-1E+10	1	-1E+10	1
4901784	167	C	01/30/2020	10:49	-132.599	43.455	0	440.20	0	5.1300	0	36.2580	8	28.662	0	436.225	0	72.1	4	23.8	4	-1E+10	1	-1E+10	1	-1E+10	1	-1E+10	1	-1E+10	1	-1E+10	1
4901784	167	C	01/30/2020	10:49	-132.599	43.455	0	442.90	0	5.1170	0	36.2580	8	28.664	0	438.897	0	70.9	4	23.4	4	-1E+10	1	-1E+10	1	-1E+10	1	-1E+10	1	-1E+10	1	-1E+10	1
4901784	167	C	01/30/2020	10:49	-132.599	43.455	0	444.60	0	5.1070	0	36.2590	8	28.666	0	440.580	0	69.8	4	23.0	4	-1E+10	1	-1E+10	1	-1E+10	1	-1E+10	1	-1E+10	1	-1E+10	1
4901784	167	C	01/30/2020	10:49	-132.599	43.455	0	447.20	0	5.0620	0	36.2700	8	28.680	0	443.154	0	68.6	4	22.6	4	-1E+10	1	-1E+10	1	-1E+10	1	-1E+10	1	-1E+10	1	-1E+10	1
4901784	167	C	01/30/2020	10:49	-132.599	43.455	0	449.80	0	5.0440	0	36.2700	8	28.682	0	445.728	0	68.1	4	22.4	4	-1E+10	1	-1E+10	1	-1E+10	1	-1E+10	1	-1E+10	1	-1E+10	1
4901784	167	C	01/30/2020	10:49	-132.599	43.455	0	452.50	0	5.0170	0	36.2730	8	28.688	0	448.400	0	66.9	4	22.0	4	-1E+10	1	-1E+10	1	-1E+10	1	-1E+10	1	-1E+10	1	-1E+10	1
4901784	167	C	01/30/2020	10:49	-132.599	43.455	0	455.10	0	5.0130	0	36.2760	8	28.691	0	450.974	0	65.4	4	21.5	4	-1E+10	1	-1E+10	1	-1E+10	1	-1E+10	1	-1E+10	1	-1E+10	1
4901784	167	C	01/30/2020	10:49	-132.599	43.455	0	457.80	0	4.9980	0	36.2820	8	28.697	0	453.646	0	64.2	4	21.1	4	-1E+10	1	-1E+10	1	-1E+10	1	-1E+10	1	-1E+10	1	-1E+10	1
4901784	167	C	01/30/2020	10:49	-132.599	43.455	0	460.40	0	4.9860	0	36.2850	8	28.701	0	456.220	0	63.3	4	20.8	4	-1E+10	1	-1E+10	1	-1E+10	1	-1E+10	1	-1E+10	1	-1E+10	1
4901784	167	C	01/30/2020	10:49	-132.599	43.455	0	462.20	0	4.9890	0	36.2870	8	28.702	0	458.002	0	62.6	4	20.6	4	-1E+10	1	-1E+10	1	-1E+10	1	-1E+10	1	-1E+10	1	-1E+10	1
4901784	167	C	01/30/2020	10:49	-132.599	43.455	0	464.90	0	4.9640	0	36.2880	8	28.706	0	460.674	0	61.2	4	20.1	4	-1E+10	1	-1E+10	1	-1E+10	1	-1E+10	1	-1E+10	1	-1E+10	1
4901784	167	C	01/30/2020	10:49	-132.599	43.455	0	467.60	0	4.9790	0	36.2920	8	28.707	0	463.347	0	58.8	4	19.3	4	-1E+10	1	-1E+10	1	-1E+10	1	-1E+10	1	-1E+10	1	-1E+10	1
4901784	167	C	01/30/2020	10:49	-132.599	43.455	0	470.30	0	4.9660	0	36.3000	8	28.715	0	466.019	0	57.3	4	18.8	4	-1E+10	1	-1E+10	1	-1E+10	1	-1E+10	1	-1E+10	1	-1E+10	1
4901784	167	C	01/30/2020	10:49	-132.599	43.455	0	473.10	0	4.9750	0	36.3070	8	28.720	0	468.790	0	55.9	4	18.3	4	-1E+10	1	-1E+10	1	-1E+10	1	-1E+10	1	-1E+10	1	-1E+10	1
4901784	167	C	01/30/2020	10:49	-132.599	43.455	0	475.00	0	4.9830	0	36.3120	8	28.723	0	470.671	0	55.7	4	18.3	4	-1E+10	1	-1E+10	1	-1E+10	1	-1E+10	1	-1E+10	1	-1E+10	1
4901784	167	C	01/30/2020	10:49	-132.599	43.455	0	477.80	0	4.9240	0	36.3120	8	28.730	0	473.442	0	55.9	4	18.3	4	-1E+10	1	-1E+10	1	-1E+10	1	-1E+10	1	-1E+10	1	-1E+10	1
4901784	167	C	01/30/2020	10:49	-132.599	43.455	0	480.50	0	4.8890	0	36.3130	8	28.735	0	476.115	0	55.4	4	18.2	4	-1E+10	1	-1E+10	1	-1E+10	1	-1E+10	1	-1E+10	1	-1E+10	1
4901784	167	C	01/30/2020	10:49	-132.599	43.455	0	483.00	0	4.8670	0	36.3130	8	28.738	0	478.589	0	54.9	4	18.0	4	-1E+10	1	-1E+10	1	-1E+10	1	-1E+10	1	-1E+10	1	-1E+10	1
4901784	167	C	01/30/2020	10:49	-132.599	43.455	0	484.80	0	4.8600	0	36.3150	8	28.740	0	480.370	0	54.1	4	17.7	4	-1E+10	1	-1E+10	1	-1E+10	1	-1E+10	1	-1E+10	1	-1E+10	1
4901784	167	C	01/30/2020	10:49	-132.599	43.455	0	487.10	0	4.8540	0	36.3180	8	28.743	0	482.647	0	53.0	4	17.4	4	-1E+10	1	-1E+10	1	-1E+10	1	-1E+10	1	-1E+10	1	-1E+10	1
4901784	167	C	01/30/2020	10:49	-132.599	43.455	0	490.30	0	4.8400	0	36.3250	8	28.750	0	485.814	0	51.6	4	16.9	4	-1E+10	1	-1E+10	1	-1E+10	1	-1E+10	1	-1E+10	1	-1E+10	1
4901784	167	C	01/30/2020	10:49	-132.599	43.455	0	492.70	0	4.8380	0	36.3270	8	28.752	0	488.189	0	50.6	4	16.6	4	-1E+10	1	-1E+10	1	-1E+10	1	-1E+10	1	-1E+10	1	-1E+10	1
4901784	167	C	01/30/2020	10:49	-132.599	43.455	0	495.00	0	4.8350	0	36.3300	8	28.755	0	490.465	0	49.9	4	16.3	4	-1E+10	1	-1E+10	1	-1E+10	1	-1E+10	1	-1E+10	1	-1E+10	1
4901784	167	C	01/30/2020	10:49	-132.599	43.455	0	497.40	0	4.8280	0	36.3330	8	28.758	0	492.840	0	49.4	4	16.2	4	-1E+10	1	-1E+10	1	-1E+10	1	-1E+10	1	-1E+10	1	-1E+10	1
4901784	167	C	01/30/2020	10:49	-132.599	43.455	0	499.80	0	4.7700	0	36.3370	8	28.768	0	495.215	0	48.8	4	16.0	4	-1E+10	1	-1E+10	1	-1E+10	1	-1E+10	1	-1E+10	1	-1E+10	1
4901784	167	C	01/30/2020	10:49	-132.599	43.455	0	505.50	0	4.7350	0	36.3440	8	28.778	0	500.856	0	46.9	4	15.3	4	-1E+10	1	-1E+10	1	-1E+10	1	-1E+10	1	-1E+10	1	-1E+10	1
4901784	167	C	01/30/2020	10:49	-132.599	43.455	0	510.40	0	4.7360	0	36.3530	8	28.785	0	505.705	0	44.6	4	14.6	4	-1E+10	1	-1E+10	1	-1E+10	1	-1E+10	1	-1E+10	1	-1E+10	1
4901784	167	C	01/30/2020	10:49	-132.599	43.455	0	515.30	0	4.7050	0	36.3580	8	28.793	0	510.554	0	43.7	4	14.3	4	-1E+10	1	-1E+10	1	-1E+10	1	-1E+10	1	-1E+10	1	-1E+10	1
4901784	167	C	01/30/2020	10:49	-132.599	43.455	0	520.30	0	4.6920	0	36.3620	8	28.797	0	515.502	0	43.1	4	14.0	4	-1E+10	1	-1E+10	1	-1E+10	1	-1E+10	1	-1E+10	1	-1E+10	1
4901784	167	C	01/30/2020	10:49	-132.599	43.455	0	525.30	0	4.6430	0	36.3650	8	28.805	0	520.450	0	42.4	4	13.8	4	-1E+10	1	-1E+10	1	-1E+10	1	-1E+10	1	-1E+10	1	-1E+10	1
4901784	167	C	01/30/2020	10:49	-132.599	43.455	0	530.30	0	4.6290	0	36.3700	8	28.811	0	525.397	0	41.3	4	13.5	4	-1E+10	1	-1E+10	1	-1E+10	1	-1E+10	1	-1E+10	1	-1E+10	1
4901784	167	C	01/30/2020	10:49	-132.599	43.455	0	535.40	0	4.6280	0	36.3730	8	28.814	0	530.443	0	40.4	4	13.2	4	-1E+10	1	-1E+10	1	-1E+10	1	-1E+10	1	-1E+10	1	-1E+10	1
4901784	167	C	01/30/2020	10:49	-132.599	43.455	0	540.60	0	4.5970	0	36.3790	8	28.822	0	535.589	0	39.3	4	12.8	4	-1E+10	1	-1E+10	1	-1E+10	1	-1E+10	1	-1E+10	1	-1E+10	1
4901784	167	C	01/30/2020	10:49	-132.599	43.455	0	545.70	0	4.5740	0	36.3850	8	28.829	0	540.635	0	37.6	4	12.2	4	-1E+10	1	-1E+10	1	-1E+10	1	-1E+10	1	-1E+10	1	-1E+10	1
4901784	167	C	01/30/2020	10:49	-132.599	43.455	0	550.00	0	4.5680	0	36.3920	8	28.836	0	544.889	0	36.1	4	11.7	4	-1E+10	1	-1E+10	1	-1E+10	1	-1E+10	1	-1E+10	1	-1E+10	1
4901784	167	C	01/30/2020	10:49	-132.599	43.455	0	554.30	0	4.5650	0	36.3990	8	28.842	0	549.144	0	35.1	4	11.4	4	-1E+10	1	-1E+10	1	-1E+10	1	-1E+10	1	-1E+10	1	-1E+10	1
4901784	167	C	01/30/2020	10:49	-132.599	43.455	0	559.40	0	4.5700	0	36.4020	8	28.843	0	554.189	0	34.2	4	11.1	4	-1E+10	1	-1E+10	1	-1E+10	1	-1E+10	1	-1E+10	1	-1E+10	1
4901784	167	C	01/30/2020	10:49	-132.599	43.455	0	564.60	0	4.5630	0	36.4060	8	28.848	0	559.334	0	33.2	4	10.8	4	-1E+10	1	-1E+10	1	-1E+10	1	-1E+10	1	-1E+10	1	-1E+10	1
4901784	167	C	01/30/2020	10:49	-132.599	43.455	0	569.80	0	4.5430	0	36.4120	8	28.855	0	564.478	0	32.2	4	10.5	4	-1E+10	1	-1E+10	1	-1E+10	1	-1E+10	1	-1E+10	1	-1E+10	1
4901784	167	C	01/30/2020	10:49	-132.599	43.455	0	575.00	0	4.5450	0	36.4190	8	28.860	0	569.623	0	31.1	4	10.1	4	-1E+10	1	-1E+10	1	-1E+10	1	-1E+10	1	-1E+10	1	-1E+10	1
4901784	167	C	01/30/2020	10:49	-132.599	43.455	0	580.20	0	4.5360	0	36.4220	8	28.863	0	574.767	0	30.4	4	9.9	4	-1E+10	1	-1E+10	1	-1E+10	1	-1E+10	1	-1E+10	1	-1E+10	1
4901784	167	C	01/30/2020	10:49	-132.599	43.455	0	585.40	0	4.5090	0	36.4270	8	28.871	0	579.911	0	29.6	4	9.6	4	-1E+10	1	-1E+10	1	-1E+10	1	-1E+10	1	-1E+10	1	-1E+10	1
4901784	167	C	01/30/2020	10:49	-132.599	43.455	0	590.70	0	4.5060	0	36.4310	8	28.874	0	585.154	0	28.6	4	9.3	4	-1E+10	1	-1E+10	1	-1E+10	1	-1E+10	1	-1E+10	1	-1E+10	1
4901784	167	C	01/30/2020	10:49	-132.599	43.455	0	595.20	0	4.5010	0	36.4380	8	28.880	0	589.605	0	27.8	4	9.0	4	-1E+10	1	-1E+10	1	-1E+10	1	-1E+10	1	-1E+10	1	-1E+10	1
4901784	167	C	01/30/2020	10:49	-132.599	43.455	0	599.60	0	4.4790	0	36.4420	8	28.886	0	593.957	0	27.1	4	8.8	4	-1E+10	1	-1E+10	1	-1E+10	1	-1E+10	1	-1E+10	1	-1E+10	1
4901784	167	C	01/30/2020	10:49	-132.599	43.455	0	605.00	0	4.4870	0	36.4500	8	28.892	0	599.299	0	26.2	4	8.5	4	-1E+10	1	-1E+10	1	-1E+10	1	-1E+10	1	-1E+10	1	-1E+10	1
4901784	167	C	01/30/2020	10:49	-132.599	43.455	0	610.30	0	4.4750	0	36.4530	8	28.895	0	604.541	0	26.0	4	8.4	4	-1E+10	1	-1E+10	1	-1E+10	1	-1E+10	1	-1E+10	1	-1E+10	1
4901784	167	C	01/30/2020	10:49	-132.599	43.455	0	615.60	0	4.4520	0	36.4540	8	28.899	0	609.783	0	25.8	4	8.4	4	-1E+10	1	-1E+10	1	-1E+10	1	-1E+10	1	-1E+10	1	-1E+10	1
4901784	167	C	01/30/2020	10:49	-132.599	43.455	0	620.10	0	4.4140	0	36.4540	8	28.903	0	614.234	0	25.5	4	8.3	4	-1E+10	1	-1E+10	1	-1E+10	1	-1E+10	1	-1E+10	1	-1E+10	1
4901784	167	C	01/30/2020	10:49	-132.599	43.455	0	624.50	0	4.4120	0	36.4580	8	28.907	0	618.586	0	24.9	4	8.1	4	-1E+10	1	-1E+10	1	-1E+10	1	-1E+10	1	-1E+10	1	-1E+10	1
4901784	167	C	01/30/2020	10:49	-132.599	43.455	0	630.00	0	4.3820	0	36.4610	8	28.912	0	624.026	0	24.4	4	7.9	4	-1E+10	1	-1E+10	1	-1E+10	1	-1E+10	1	-1E+10	1	-1E+10	1
4901784	167	C	01/30/2020	10:49	-132.599	43.455	0	635.40	0	4.3500	0	36.4670	8	28.921	0	629.367	0	23.8	4	7.7	4	-1E+10	1	-1E+10	1	-1E+10	1	-1E+10	1	-1E+10	1	-1E+10	1
4901784	167	C	01/30/2020	10:49	-132.599	43.455	0	639.90	0	4.3390	0	36.4690	8	28.924	0	633.817	0	23.4	4	7.6	4	-1E+10	1	-1E+10	1	-1E+10	1	-1E+10	1	-1E+10	1	-1E+10	1
4901784	167	C	01/30/2020	10:49	-132.599	43.455	0	644.40	0	4.3260	0	36.4730	8	28.928	0	638.267	0	23.0	4	7.4	4	-1E+10	1	-1E+10	1	-1E+10	1	-1E+10	1	-1E+10	1	-1E+10	1
4901784	167	C	01/30/2020	10:49	-132.599	43.455	0	649.90	0	4.3090	0	36.4750	8	28.932	0	643.706	0	22.4	4	7.2	4	-1E+10	1	-1E+10	1	-1E+10	1	-1E+10	1	-1E+10	1	-1E+10	1
4901784	167	C	01/30/2020	10:49	-132.599	43.455	0	655.40	0	4.2890	0	36.4810	8	28.939	0	649.145	0	21.8	4	7.1	4	-1E+10	1	-1E+10	1	-1E+10	1	-1E+10	1	-1E+10	1	-1E+10	1
4901784	167	C	01/30/2020	10:49	-132.599	43.455	0	660.00	0	4.2700	0	36.4850	8	28.944	0	653.694	0	21.4	4	6.9	4	-1E+10	1	-1E+10	1	-1E+10	1	-1E+10	1	-1E+10	1	-1E+10	1
4901784	167	C	01/30/2020	10:49	-132.599	43.455	0	664.70	0	4.2610	0	36.4880	8	28.948	0	658.342	0	21.0	4	6.8	4	-1E+10	1	-1E+10	1	-1E+10	1	-1E+10	1	-1E+10	1	-1E+10	1
4901784	167	C	01/30/2020	10:49	-132.599	43.455	0	670.30	0	4.2460	0	36.4920	8	28.953	0	663.880	0	20.4	4	6.6	4	-1E+10	1	-1E+10	1	-1E+10	1	-1E+10	1	-1E+10	1	-1E+10	1
4901784	167	C	01/30/2020	10:49	-132.599	43.455	0	674.90	0	4.2300	0	36.4970	8	28.958	0	668.428	0	19.9	4	6.4	4	-1E+10	1	-1E+10	1	-1E+10	1	-1E+10	1	-1E+10	1	-1E+10	1
4901784	167	C	01/30/2020	10:49	-132.599	43.455	0	680.20	0	4.2160	0	36.5010	8	28.963	0	673.669	0	19.2	4	6.2	4	-1E+10	1	-1E+10	1	-1E+10	1	-1E+10	1	-1E+10	1	-1E+10	1
4901784	167	C	01/30/2020	10:49	-132.599	43.455	0	685.40	0	4.1880	0	36.5100	8	28.973	0	678.810	0	18.5	4	6.0	4	-1E+10	1	-1E+10	1	-1E+10	1	-1E+10	1	-1E+10	1	-1E+10	1
4901784	167	C	01/30/2020	10:49	-132.599	43.455	0	690.20	0	4.1720	0	36.5150	8	28.979	0	683.556	0	18.0	4	5.8	4	-1E+10	1	-1E+10	1	-1E+10	1	-1E+10	1	-1E+10	1	-1E+10	1
4901784	167	C	01/30/2020	10:49	-132.599	43.455	0	695.00	0	4.1540	0	36.5210	8	28.986	0	688.302	0	17.6	4	5.7	4	-1E+10	1	-1E+10	1	-1E+10	1	-1E+10	1	-1E+10	1	-1E+10	1
4901784	167	C	01/30/2020	10:49	-132.599	43.455	0	699.80	0	4.1380	0	36.5240	8	28.990	0	693.048	0	17.2	4	5.5	4	-1E+10	1	-1E+10	1	-1E+10	1	-1E+10	1	-1E+10	1	-1E+10	1
4901784	167	C	01/30/2020	10:49	-132.599	43.455	0	704.50	0	4.1090	0	36.5330	8	29.001	0	697.695	0	16.7	4	5.4	4	-1E+10	1	-1E+10	1	-1E+10	1	-1E+10	1	-1E+10	1	-1E+10	1
4901784	167	C	01/30/2020	10:49	-132.599	43.455	0	709.40	0	4.1030	0	36.5400	8	29.007	0	702.539	0	16.2	4	5.2	4	-1E+10	1	-1E+10	1	-1E+10	1	-1E+10	1	-1E+10	1	-1E+10	1
4901784	167	C	01/30/2020	10:49	-132.599	43.455	0	714.40	0	4.1050	0	36.5440	8	29.010	0	707.482	0	15.7	4	5.1	4	-1E+10	1	-1E+10	1	-1E+10	1	-1E+10	1	-1E+10	1	-1E+10	1
4901784	167	C	01/30/2020	10:49	-132.599	43.455	0	719.40	0	4.1080	0	36.5510	8	29.015	0	712.425	0	15.2	4	4.9	4	-1E+10	1	-1E+10	1	-1E+10	1	-1E+10	1	-1E+10	1	-1E+10	1
4901784	167	C	01/30/2020	10:49	-132.599	43.455	0	724.40	0	4.1030	0	36.5560	8	29.020	0	717.368	0	14.9	4	4.8	4	-1E+10	1	-1E+10	1	-1E+10	1	-1E+10	1	-1E+10	1	-1E+10	1
4901784	167	C	01/30/2020	10:49	-132.599	43.455	0	729.50	0	4.0940	0	36.5610	8	29.025	0	722.410	0	14.6	4	4.7	4	-1E+10	1	-1E+10	1	-1E+10	1	-1E+10	1	-1E+10	1	-1E+10	1
4901784	167	C	01/30/2020	10:49	-132.599	43.455	0	734.60	0	4.0750	0	36.5670	8	29.032	0	727.451	0	14.3	4	4.6	4	-1E+10	1	-1E+10	1	-1E+10	1	-1E+10	1	-1E+10	1	-1E+10	1
4901784	167	C	01/30/2020	10:49	-132.599	43.455	0	739.70	0	4.0570	0	36.5690	8	29.035	0	732.493	0	14.3	4	4.6	4	-1E+10	1	-1E+10	1	-1E+10	1	-1E+10	1	-1E+10	1	-1E+10	1
4901784	167	C	01/30/2020	10:49	-132.599	43.455	0	744.80	0	4.0070	0	36.5720	8	29.043	0	737.534	0	14.2	4	4.6	4	-1E+10	1	-1E+10	1	-1E+10	1	-1E+10	1	-1E+10	1	-1E+10	1
4901784	167	C	01/30/2020	10:49	-132.599	43.455	0	749.90	0	3.9980	0	36.5750	8	29.046	0	742.575	0	13.9	4	4.5	4	-1E+10	1	-1E+10	1	-1E+10	1	-1E+10	1	-1E+10	1	-1E+10	1
4901784	167	C	01/30/2020	10:49	-132.599	43.455	0	755.10	0	3.9880	0	36.5810	8	29.052	0	747.715	0	13.6	4	4.4	4	-1E+10	1	-1E+10	1	-1E+10	1	-1E+10	1	-1E+10	1	-1E+10	1
4901784	167	C	01/30/2020	10:49	-132.599	43.455	0	760.30	0	3.9810	0	36.5870	8	29.058	0	752.855	0	13.3	4	4.3	4	-1E+10	1	-1E+10	1	-1E+10	1	-1E+10	1	-1E+10	1	-1E+10	1
4901784	167	C	01/30/2020	10:49	-132.599	43.455	0	765.50	0	3.9730	0	36.5940	8	29.064	0	757.995	0	12.9	4	4.2	4	-1E+10	1	-1E+10	1	-1E+10	1	-1E+10	1	-1E+10	1	-1E+10	1
4901784	167	C	01/30/2020	10:49	-132.599	43.455	0	770.70	0	3.9720	0	36.6010	8	29.070	0	763.134	0	12.7	4	4.1	4	-1E+10	1	-1E+10	1	-1E+10	1	-1E+10	1	-1E+10	1	-1E+10	1
4901784	167	C	01/30/2020	10:49	-132.599	43.455	0	775.10	0	3.9660	0	36.6040	8	29.073	0	767.483	0	12.6	4	4.0	4	-1E+10	1	-1E+10	1	-1E+10	1	-1E+10	1	-1E+10	1	-1E+10	1
4901784	167	C	01/30/2020	10:49	-132.599	43.455	0	779.50	0	3.9610	0	36.6070	8	29.076	0	771.832	0	12.4	4	4.0	4	-1E+10	1	-1E+10	1	-1E+10	1	-1E+10	1	-1E+10	1	-1E+10	1
4901784	167	C	01/30/2020	10:49	-132.599	43.455	0	784.90	0	3.9470	0	36.6110	8	29.081	0	777.168	0	12.2	4	3.9	4	-1E+10	1	-1E+10	1	-1E+10	1	-1E+10	1	-1E+10	1	-1E+10	1
4901784	167	C	01/30/2020	10:49	-132.599	43.455	0	790.20	0	3.9250	0	36.6180	8	29.089	0	782.406	0	12.0	4	3.8	4	-1E+10	1	-1E+10	1	-1E+10	1	-1E+10	1	-1E+10	1	-1E+10	1
4901784	167	C	01/30/2020	10:49	-132.599	43.455	0	795.60	0	3.9070	0	36.6240	8	29.096	0	787.743	0	11.9	4	3.8	4	-1E+10	1	-1E+10	1	-1E+10	1	-1E+10	1	-1E+10	1	-1E+10	1
4901784	167	C	01/30/2020	10:49	-132.599	43.455	0	800.10	0	3.9020	0	36.6250	8	29.097	0	792.190	0	11.8	4	3.8	4	-1E+10	1	-1E+10	1	-1E+10	1	-1E+10	1	-1E+10	1	-1E+10	1
4901784	167	C	01/30/2020	10:49	-132.599	43.455	0	804.60	0	3.8870	0	36.6280	8	29.101	0	796.637	0	11.6	4	3.7	4	-1E+10	1	-1E+10	1	-1E+10	1	-1E+10	1	-1E+10	1	-1E+10	1
4901784	167	C	01/30/2020	10:49	-132.599	43.455	0	810.10	0	3.8710	0	36.6350	8	29.108	0	802.072	0	11.5	4	3.7	4	-1E+10	1	-1E+10	1	-1E+10	1	-1E+10	1	-1E+10	1	-1E+10	1
4901784	167	C	01/30/2020	10:49	-132.599	43.455	0	815.50	0	3.8540	0	36.6410	8	29.115	0	807.408	0	11.4	4	3.6	4	-1E+10	1	-1E+10	1	-1E+10	1	-1E+10	1	-1E+10	1	-1E+10	1
4901784	167	C	01/30/2020	10:49	-132.599	43.455	0	820.00	0	3.8450	0	36.6430	8	29.118	0	811.854	0	11.3	4	3.6	4	-1E+10	1	-1E+10	1	-1E+10	1	-1E+10	1	-1E+10	1	-1E+10	1
4901784	167	C	01/30/2020	10:49	-132.599	43.455	0	824.60	0	3.8420	0	36.6430	8	29.118	0	816.400	0	11.3	4	3.6	4	-1E+10	1	-1E+10	1	-1E+10	1	-1E+10	1	-1E+10	1	-1E+10	1
4901784	167	C	01/30/2020	10:49	-132.599	43.455	0	830.10	0	3.8290	0	36.6470	8	29.123	0	821.834	0	11.2	4	3.6	4	-1E+10	1	-1E+10	1	-1E+10	1	-1E+10	1	-1E+10	1	-1E+10	1
4901784	167	C	01/30/2020	10:49	-132.599	43.455	0	834.90	0	3.8210	0	36.6500	8	29.126	0	826.577	0	11.1	4	3.5	4	-1E+10	1	-1E+10	1	-1E+10	1	-1E+10	1	-1E+10	1	-1E+10	1
4901784	167	C	01/30/2020	10:49	-132.599	43.455	0	839.60	0	3.8090	0	36.6540	8	29.130	0	831.221	0	11.0	4	3.5	4	-1E+10	1	-1E+10	1	-1E+10	1	-1E+10	1	-1E+10	1	-1E+10	1
4901784	167	C	01/30/2020	10:49	-132.599	43.455	0	845.30	0	3.8010	0	36.6560	8	29.133	0	836.853	0	11.0	4	3.5	4	-1E+10	1	-1E+10	1	-1E+10	1	-1E+10	1	-1E+10	1	-1E+10	1
4901784	167	C	01/30/2020	10:49	-132.599	43.455	0	850.10	0	3.7910	0	36.6590	8	29.136	0	841.595	0	10.9	4	3.5	4	-1E+10	1	-1E+10	1	-1E+10	1	-1E+10	1	-1E+10	1	-1E+10	1
4901784	167	C	01/30/2020	10:49	-132.599	43.455	0	854.90	0	3.7810	0	36.6630	8	29.141	0	846.337	0	10.8	4	3.5	4	-1E+10	1	-1E+10	1	-1E+10	1	-1E+10	1	-1E+10	1	-1E+10	1
4901784	167	C	01/30/2020	10:49	-132.599	43.455	0	859.70	0	3.7770	0	36.6660	8	29.144	0	851.079	0	10.8	4	3.4	4	-1E+10	1	-1E+10	1	-1E+10	1	-1E+10	1	-1E+10	1	-1E+10	1
4901784	167	C	01/30/2020	10:49	-132.599	43.455	0	864.40	0	3.7680	0	36.6680	8	29.146	0	855.723	0	10.7	4	3.4	4	-1E+10	1	-1E+10	1	-1E+10	1	-1E+10	1	-1E+10	1	-1E+10	1
4901784	167	C	01/30/2020	10:49	-132.599	43.455	0	870.20	0	3.7470	0	36.6740	8	29.153	0	861.452	0	10.6	4	3.4	4	-1E+10	1	-1E+10	1	-1E+10	1	-1E+10	1	-1E+10	1	-1E+10	1
4901784	167	C	01/30/2020	10:49	-132.599	43.455	0	875.10	0	3.7370	0	36.6760	8	29.156	0	866.293	0	10.6	4	3.4	4	-1E+10	1	-1E+10	1	-1E+10	1	-1E+10	1	-1E+10	1	-1E+10	1
4901784	167	C	01/30/2020	10:49	-132.599	43.455	0	880.00	0	3.7270	0	36.6780	8	29.159	0	871.133	0	10.6	4	3.4	4	-1E+10	1	-1E+10	1	-1E+10	1	-1E+10	1	-1E+10	1	-1E+10	1
4901784	167	C	01/30/2020	10:49	-132.599	43.455	0	885.20	0	3.7210	0	36.6810	8	29.162	0	876.270	0	10.6	4	3.4	4	-1E+10	1	-1E+10	1	-1E+10	1	-1E+10	1	-1E+10	1	-1E+10	1
4901784	167	C	01/30/2020	10:49	-132.599	43.455	0	889.90	0	3.7190	0	36.6810	8	29.162	0	880.913	0	10.5	4	3.4	4	-1E+10	1	-1E+10	1	-1E+10	1	-1E+10	1	-1E+10	1	-1E+10	1
4901784	167	C	01/30/2020	10:49	-132.599	43.455	0	894.80	0	3.7090	0	36.6840	8	29.165	0	885.753	0	10.5	4	3.3	4	-1E+10	1	-1E+10	1	-1E+10	1	-1E+10	1	-1E+10	1	-1E+10	1
4901784	167	C	01/30/2020	10:49	-132.599	43.455	0	899.80	0	3.7000	0	36.6880	8	29.170	0	890.692	0	10.5	4	3.3	4	-1E+10	1	-1E+10	1	-1E+10	1	-1E+10	1	-1E+10	1	-1E+10	1
4901784	167	C	01/30/2020	10:49	-132.599	43.455	0	904.90	0	3.6950	0	36.6900	8	29.172	0	895.729	0	10.4	4	3.3	4	-1E+10	1	-1E+10	1	-1E+10	1	-1E+10	1	-1E+10	1	-1E+10	1
4901784	167	C	01/30/2020	10:49	-132.599	43.455	0	910.00	0	3.6920	0	36.6910	8	29.173	0	900.767	0	10.4	4	3.3	4	-1E+10	1	-1E+10	1	-1E+10	1	-1E+10	1	-1E+10	1	-1E+10	1
4901784	167	C	01/30/2020	10:49	-132.599	43.455	0	915.10	0	3.6800	0	36.6950	8	29.177	0	905.804	0	10.3	4	3.3	4	-1E+10	1	-1E+10	1	-1E+10	1	-1E+10	1	-1E+10	1	-1E+10	1
4901784	167	C	01/30/2020	10:49	-132.599	43.455	0	920.40	0	3.6730	0	36.6990	8	29.181	0	911.039	0	10.3	4	3.3	4	-1E+10	1	-1E+10	1	-1E+10	1	-1E+10	1	-1E+10	1	-1E+10	1
4901784	167	C	01/30/2020	10:49	-132.599	43.455	0	925.50	0	3.6650	0	36.7020	8	29.185	0	916.075	0	10.2	4	3.3	4	-1E+10	1	-1E+10	1	-1E+10	1	-1E+10	1	-1E+10	1	-1E+10	1
4901784	167	C	01/30/2020	10:49	-132.599	43.455	0	930.70	0	3.6550	0	36.7050	8	29.188	0	921.211	0	10.2	4	3.3	4	-1E+10	1	-1E+10	1	-1E+10	1	-1E+10	1	-1E+10	1	-1E+10	1
4901784	167	C	01/30/2020	10:49	-132.599	43.455	0	935.00	0	3.6440	0	36.7090	8	29.192	0	925.458	0	10.2	4	3.3	4	-1E+10	1	-1E+10	1	-1E+10	1	-1E+10	1	-1E+10	1	-1E+10	1
4901784	167	C	01/30/2020	10:49	-132.599	43.455	0	939.30	0	3.6370	0	36.7110	8	29.195	0	929.704	0	10.2	4	3.2	4	-1E+10	1	-1E+10	1	-1E+10	1	-1E+10	1	-1E+10	1	-1E+10	1
4901784	167	C	01/30/2020	10:49	-132.599	43.455	0	944.50	0	3.6290	0	36.7150	8	29.199	0	934.840	0	10.1	4	3.2	4	-1E+10	1	-1E+10	1	-1E+10	1	-1E+10	1	-1E+10	1	-1E+10	1
4901784	167	C	01/30/2020	10:49	-132.599	43.455	0	949.80	0	3.6190	0	36.7190	8	29.203	0	940.073	0	10.1	4	3.2	4	-1E+10	1	-1E+10	1	-1E+10	1	-1E+10	1	-1E+10	1	-1E+10	1
4901784	167	C	01/30/2020	10:49	-132.599	43.455	0	955.20	0	3.6060	0	36.7230	8	29.208	0	945.406	0	10.1	4	3.2	4	-1E+10	1	-1E+10	1	-1E+10	1	-1E+10	1	-1E+10	1	-1E+10	1
4901784	167	C	01/30/2020	10:49	-132.599	43.455	0	960.60	0	3.5910	0	36.7270	8	29.212	0	950.738	0	10.1	4	3.2	4	-1E+10	1	-1E+10	1	-1E+10	1	-1E+10	1	-1E+10	1	-1E+10	1
4901784	167	C	01/30/2020	10:49	-132.599	43.455	0	965.20	0	3.5760	0	36.7320	8	29.218	0	955.281	0	10.2	4	3.2	4	-1E+10	1	-1E+10	1	-1E+10	1	-1E+10	1	-1E+10	1	-1E+10	1
4901784	167	C	01/30/2020	10:49	-132.599	43.455	0	969.70	0	3.5610	0	36.7340	8	29.221	0	959.724	0	10.2	4	3.3	4	-1E+10	1	-1E+10	1	-1E+10	1	-1E+10	1	-1E+10	1	-1E+10	1
4901784	167	C	01/30/2020	10:49	-132.599	43.455	0	975.20	0	3.5410	0	36.7390	8	29.227	0	965.155	0	10.2	4	3.3	4	-1E+10	1	-1E+10	1	-1E+10	1	-1E+10	1	-1E+10	1	-1E+10	1
4901784	167	C	01/30/2020	10:49	-132.599	43.455	0	979.80	0	3.5380	0	36.7410	8	29.229	0	969.697	0	10.2	4	3.3	4	-1E+10	1	-1E+10	1	-1E+10	1	-1E+10	1	-1E+10	1	-1E+10	1
4901784	167	C	01/30/2020	10:49	-132.599	43.455	0	984.40	0	3.5310	0	36.7430	8	29.232	0	974.239	0	10.3	4	3.3	4	-1E+10	1	-1E+10	1	-1E+10	1	-1E+10	1	-1E+10	1	-1E+10	1
4901784	167	C	01/30/2020	10:49	-132.599	43.455	0	989.90	0	3.5260	0	36.7450	8	29.234	0	979.669	0	10.3	4	3.3	4	-1E+10	1	-1E+10	1	-1E+10	1	-1E+10	1	-1E+10	1	-1E+10	1
4901784	167	C	01/30/2020	10:49	-132.599	43.455	0	995.50	0	3.5140	0	36.7510	8	29.240	0	985.198	0	10.3	4	3.3	4	-1E+10	1	-1E+10	1	-1E+10	1	-1E+10	1	-1E+10	1	-1E+10	1
4901784	167	C	01/30/2020	10:49	-132.599	43.455	0	1000.10	0	3.5000	0	36.7540	8	29.244	0	989.740	0	10.4	4	3.3	4	-1E+10	1	-1E+10	1	-1E+10	1	-1E+10	1	-1E+10	1	-1E+10	1
4901784	167	C	01/30/2020	10:49	-132.599	43.455	0	1004.60	0	3.4890	0	36.7570	8	29.247	0	994.182	0	10.4	4	3.3	4	-1E+10	1	-1E+10	1	-1E+10	1	-1E+10	1	-1E+10	1	-1E+10	1
4901784	167	C	01/30/2020	10:49	-132.599	43.455	0	1010.20	0	3.4810	0	36.7600	8	29.250	0	999.711	0	10.4	4	3.3	4	-1E+10	1	-1E+10	1	-1E+10	1	-1E+10	1	-1E+10	1	-1E+10	1
4901784	167	C	01/30/2020	10:49	-132.599	43.455	0	1014.80	0	3.4680	0	36.7640	8	29.255	0	1004.252	0	10.5	4	3.3	4	-1E+10	1	-1E+10	1	-1E+10	1	-1E+10	1	-1E+10	1	-1E+10	1
4901784	167	C	01/30/2020	10:49	-132.599	43.455	0	1019.50	0	3.4580	0	36.7660	8	29.258	0	1008.892	0	10.6	4	3.4	4	-1E+10	1	-1E+10	1	-1E+10	1	-1E+10	1	-1E+10	1	-1E+10	1
4901784	167	C	01/30/2020	10:49	-132.599	43.455	0	1025.20	0	3.4520	0	36.7700	8	29.262	0	1014.519	0	10.6	4	3.4	4	-1E+10	1	-1E+10	1	-1E+10	1	-1E+10	1	-1E+10	1	-1E+10	1
4901784	167	C	01/30/2020	10:49	-132.599	43.455	0	1030.60	0	3.4440	0	36.7720	8	29.264	0	1019.849	0	10.7	4	3.4	4	-1E+10	1	-1E+10	1	-1E+10	1	-1E+10	1	-1E+10	1	-1E+10	1
4901784	167	C	01/30/2020	10:49	-132.599	43.455	0	1035.30	0	3.4370	0	36.7760	8	29.268	0	1024.489	0	10.8	4	3.4	4	-1E+10	1	-1E+10	1	-1E+10	1	-1E+10	1	-1E+10	1	-1E+10	1
4901784	167	C	01/30/2020	10:49	-132.599	43.455	0	1040.10	0	3.4230	0	36.7800	8	29.273	0	1029.227	0	10.9	4	3.5	4	-1E+10	1	-1E+10	1	-1E+10	1	-1E+10	1	-1E+10	1	-1E+10	1
4901784	167	C	01/30/2020	10:49	-132.599	43.455	0	1044.90	0	3.4190	0	36.7810	8	29.274	0	1033.965	0	10.9	4	3.5	4	-1E+10	1	-1E+10	1	-1E+10	1	-1E+10	1	-1E+10	1	-1E+10	1
4901784	167	C	01/30/2020	10:49	-132.599	43.455	0	1049.80	0	3.4050	0	36.7850	8	29.278	0	1038.802	0	11.0	4	3.5	4	-1E+10	1	-1E+10	1	-1E+10	1	-1E+10	1	-1E+10	1	-1E+10	1
4901784	167	C	01/30/2020	10:49	-132.599	43.455	0	1054.80	0	3.3910	0	36.7880	8	29.282	0	1043.737	0	11.1	4	3.5	4	-1E+10	1	-1E+10	1	-1E+10	1	-1E+10	1	-1E+10	1	-1E+10	1
4901784	167	C	01/30/2020	10:49	-132.599	43.455	0	1059.80	0	3.3810	0	36.7900	8	29.285	0	1048.672	0	11.2	4	3.6	4	-1E+10	1	-1E+10	1	-1E+10	1	-1E+10	1	-1E+10	1	-1E+10	1
4901784	167	C	01/30/2020	10:49	-132.599	43.455	0	1064.70	0	3.3680	0	36.7930	8	29.289	0	1053.508	0	11.3	4	3.6	4	-1E+10	1	-1E+10	1	-1E+10	1	-1E+10	1	-1E+10	1	-1E+10	1
4901784	167	C	01/30/2020	10:49	-132.599	43.455	0	1069.70	0	3.3600	0	36.7950	8	29.291	0	1058.443	0	11.3	4	3.6	4	-1E+10	1	-1E+10	1	-1E+10	1	-1E+10	1	-1E+10	1	-1E+10	1
4901784	167	C	01/30/2020	10:49	-132.599	43.455	0	1074.70	0	3.3560	0	36.7950	8	29.292	0	1063.378	0	11.4	4	3.6	4	-1E+10	1	-1E+10	1	-1E+10	1	-1E+10	1	-1E+10	1	-1E+10	1
4901784	167	C	01/30/2020	10:49	-132.599	43.455	0	1079.80	0	3.3480	0	36.7960	8	29.293	0	1068.411	0	11.5	4	3.6	4	-1E+10	1	-1E+10	1	-1E+10	1	-1E+10	1	-1E+10	1	-1E+10	1
4901784	167	C	01/30/2020	10:49	-132.599	43.455	0	1085.00	0	3.3330	0	36.7990	8	29.297	0	1073.543	0	11.6	4	3.7	4	-1E+10	1	-1E+10	1	-1E+10	1	-1E+10	1	-1E+10	1	-1E+10	1
4901784	167	C	01/30/2020	10:49	-132.599	43.455	0	1090.20	0	3.3230	0	36.8020	8	29.301	0	1078.675	0	11.7	4	3.7	4	-1E+10	1	-1E+10	1	-1E+10	1	-1E+10	1	-1E+10	1	-1E+10	1
4901784	167	C	01/30/2020	10:49	-132.599	43.455	0	1095.40	0	3.3210	0	36.8030	8	29.302	0	1083.806	0	11.7	4	3.7	4	-1E+10	1	-1E+10	1	-1E+10	1	-1E+10	1	-1E+10	1	-1E+10	1
4901784	167	C	01/30/2020	10:49	-132.599	43.455	0	1100.60	0	3.3000	0	36.8070	8	29.307	0	1088.938	0	11.9	4	3.8	4	-1E+10	1	-1E+10	1	-1E+10	1	-1E+10	1	-1E+10	1	-1E+10	1
4901784	167	C	01/30/2020	10:49	-132.599	43.455	0	1105.80	0	3.2790	0	36.8110	8	29.312	0	1094.069	0	12.0	4	3.8	4	-1E+10	1	-1E+10	1	-1E+10	1	-1E+10	1	-1E+10	1	-1E+10	1
4901784	167	C	01/30/2020	10:49	-132.599	43.455	0	1110.00	0	3.2760	0	36.8120	8	29.313	0	1098.214	0	12.1	4	3.8	4	-1E+10	1	-1E+10	1	-1E+10	1	-1E+10	1	-1E+10	1	-1E+10	1
4901784	167	C	01/30/2020	10:49	-132.599	43.455	0	1114.40	0	3.2660	0	36.8150	8	29.317	0	1102.555	0	12.3	4	3.9	4	-1E+10	1	-1E+10	1	-1E+10	1	-1E+10	1	-1E+10	1	-1E+10	1
4901784	167	C	01/30/2020	10:49	-132.599	43.455	0	1119.70	0	3.2450	0	36.8190	8	29.322	0	1107.785	0	12.4	4	3.9	4	-1E+10	1	-1E+10	1	-1E+10	1	-1E+10	1	-1E+10	1	-1E+10	1
4901784	167	C	01/30/2020	10:49	-132.599	43.455	0	1125.10	0	3.2320	0	36.8220	8	29.326	0	1113.113	0	12.6	4	4.0	4	-1E+10	1	-1E+10	1	-1E+10	1	-1E+10	1	-1E+10	1	-1E+10	1
4901784	167	C	01/30/2020	10:49	-132.599	43.455	0	1130.40	0	3.2090	0	36.8250	8	29.331	0	1118.343	0	12.8	4	4.0	4	-1E+10	1	-1E+10	1	-1E+10	1	-1E+10	1	-1E+10	1	-1E+10	1
4901784	167	C	01/30/2020	10:49	-132.599	43.455	0	1135.70	0	3.1900	0	36.8280	8	29.335	0	1123.572	0	13.0	4	4.1	4	-1E+10	1	-1E+10	1	-1E+10	1	-1E+10	1	-1E+10	1	-1E+10	1
4901784	167	C	01/30/2020	10:49	-132.599	43.455	0	1140.20	0	3.1740	0	36.8320	8	29.340	0	1128.012	0	13.1	4	4.1	4	-1E+10	1	-1E+10	1	-1E+10	1	-1E+10	1	-1E+10	1	-1E+10	1
4901784	167	C	01/30/2020	10:49	-132.599	43.455	0	1144.70	0	3.1680	0	36.8320	8	29.340	0	1132.452	0	13.2	4	4.2	4	-1E+10	1	-1E+10	1	-1E+10	1	-1E+10	1	-1E+10	1	-1E+10	1
4901784	167	C	01/30/2020	10:49	-132.599	43.455	0	1150.20	0	3.1510	0	36.8350	8	29.344	0	1137.878	0	13.3	4	4.2	4	-1E+10	1	-1E+10	1	-1E+10	1	-1E+10	1	-1E+10	1	-1E+10	1
4901784	167	C	01/30/2020	10:49	-132.599	43.455	0	1154.70	0	3.1460	0	36.8360	8	29.346	0	1142.317	0	13.4	4	4.2	4	-1E+10	1	-1E+10	1	-1E+10	1	-1E+10	1	-1E+10	1	-1E+10	1
4901784	167	C	01/30/2020	10:49	-132.599	43.455	0	1159.40	0	3.1410	0	36.8360	8	29.346	0	1146.954	0	13.4	4	4.2	4	-1E+10	1	-1E+10	1	-1E+10	1	-1E+10	1	-1E+10	1	-1E+10	1
4901784	167	C	01/30/2020	10:49	-132.599	43.455	0	1164.90	0	3.1230	0	36.8400	8	29.351	0	1152.380	0	13.6	4	4.3	4	-1E+10	1	-1E+10	1	-1E+10	1	-1E+10	1	-1E+10	1	-1E+10	1
4901784	167	C	01/30/2020	10:49	-132.599	43.455	0	1170.50	0	3.1160	0	36.8410	8	29.353	0	1157.904	0	13.7	4	4.3	4	-1E+10	1	-1E+10	1	-1E+10	1	-1E+10	1	-1E+10	1	-1E+10	1
4901784	167	C	01/30/2020	10:49	-132.599	43.455	0	1175.10	0	3.1100	0	36.8420	8	29.354	0	1162.442	0	13.7	4	4.3	4	-1E+10	1	-1E+10	1	-1E+10	1	-1E+10	1	-1E+10	1	-1E+10	1
4901784	167	C	01/30/2020	10:49	-132.599	43.455	0	1180.10	0	3.1040	0	36.8440	8	29.357	0	1167.374	0	13.8	4	4.4	4	-1E+10	1	-1E+10	1	-1E+10	1	-1E+10	1	-1E+10	1	-1E+10	1
4901784	167	C	01/30/2020	10:49	-132.599	43.455	0	1185.20	0	3.0990	0	36.8460	8	29.359	0	1172.405	0	13.9	4	4.4	4	-1E+10	1	-1E+10	1	-1E+10	1	-1E+10	1	-1E+10	1	-1E+10	1
4901784	167	C	01/30/2020	10:49	-132.599	43.455	0	1189.90	0	3.0870	0	36.8480	8	29.361	0	1177.041	0	14.1	4	4.4	4	-1E+10	1	-1E+10	1	-1E+10	1	-1E+10	1	-1E+10	1	-1E+10	1
4901784	167	C	01/30/2020	10:49	-132.599	43.455	0	1194.80	0	3.0740	0	36.8500	8	29.364	0	1181.875	0	14.3	4	4.5	4	-1E+10	1	-1E+10	1	-1E+10	1	-1E+10	1	-1E+10	1	-1E+10	1
4901784	167	C	01/30/2020	10:49	-132.599	43.455	0	1199.70	0	3.0610	0	36.8520	8	29.367	0	1186.708	0	14.5	4	4.6	4	-1E+10	1	-1E+10	1	-1E+10	1	-1E+10	1	-1E+10	1	-1E+10	1
4901784	167	C	01/30/2020	10:49	-132.599	43.455	0	1204.70	0	3.0390	0	36.8550	8	29.372	0	1191.639	0	14.7	4	4.6	4	-1E+10	1	-1E+10	1	-1E+10	1	-1E+10	1	-1E+10	1	-1E+10	1
4901784	167	C	01/30/2020	10:49	-132.599	43.455	0	1209.70	0	3.0250	0	36.8580	8	29.376	0	1196.571	0	14.8	4	4.7	4	-1E+10	1	-1E+10	1	-1E+10	1	-1E+10	1	-1E+10	1	-1E+10	1
4901784	167	C	01/30/2020	10:49	-132.599	43.455	0	1214.70	0	3.0170	0	36.8600	8	29.378	0	1201.503	0	14.9	4	4.7	4	-1E+10	1	-1E+10	1	-1E+10	1	-1E+10	1	-1E+10	1	-1E+10	1
4901784	167	C	01/30/2020	10:49	-132.599	43.455	0	1219.80	0	3.0090	0	36.8600	8	29.379	0	1206.533	0	15.1	4	4.7	4	-1E+10	1	-1E+10	1	-1E+10	1	-1E+10	1	-1E+10	1	-1E+10	1
4901784	167	C	01/30/2020	10:49	-132.599	43.455	0	1224.90	0	2.9950	0	36.8630	8	29.383	0	1211.562	0	15.2	4	4.8	4	-1E+10	1	-1E+10	1	-1E+10	1	-1E+10	1	-1E+10	1	-1E+10	1
4901784	167	C	01/30/2020	10:49	-132.599	43.455	0	1229.90	0	2.9860	0	36.8640	8	29.384	0	1216.494	0	15.4	4	4.8	4	-1E+10	1	-1E+10	1	-1E+10	1	-1E+10	1	-1E+10	1	-1E+10	1
4901784	167	C	01/30/2020	10:49	-132.599	43.455	0	1235.00	0	2.9770	0	36.8660	8	29.387	0	1221.523	0	15.5	4	4.9	4	-1E+10	1	-1E+10	1	-1E+10	1	-1E+10	1	-1E+10	1	-1E+10	1
4901784	167	C	01/30/2020	10:49	-132.599	43.455	0	1240.10	0	2.9720	0	36.8670	8	29.388	0	1226.553	0	15.6	4	4.9	4	-1E+10	1	-1E+10	1	-1E+10	1	-1E+10	1	-1E+10	1	-1E+10	1
4901784	167	C	01/30/2020	10:49	-132.599	43.455	0	1245.30	0	2.9580	0	36.8700	8	29.392	0	1231.681	0	15.8	4	5.0	4	-1E+10	1	-1E+10	1	-1E+10	1	-1E+10	1	-1E+10	1	-1E+10	1
4901784	167	C	01/30/2020	10:49	-132.599	43.455	0	1250.40	0	2.9460	0	36.8720	8	29.395	0	1236.710	0	16.0	4	5.0	4	-1E+10	1	-1E+10	1	-1E+10	1	-1E+10	1	-1E+10	1	-1E+10	1
4901784	167	C	01/30/2020	10:49	-132.599	43.455	0	1255.50	0	2.9410	0	36.8730	8	29.396	0	1241.739	0	16.1	4	5.1	4	-1E+10	1	-1E+10	1	-1E+10	1	-1E+10	1	-1E+10	1	-1E+10	1
4901784	167	C	01/30/2020	10:49	-132.599	43.455	0	1259.90	0	2.9310	0	36.8740	8	29.398	0	1246.078	0	16.3	4	5.1	4	-1E+10	1	-1E+10	1	-1E+10	1	-1E+10	1	-1E+10	1	-1E+10	1
4901784	167	C	01/30/2020	10:49	-132.599	43.455	0	1264.40	0	2.9210	0	36.8760	8	29.400	0	1250.515	0	16.4	4	5.2	4	-1E+10	1	-1E+10	1	-1E+10	1	-1E+10	1	-1E+10	1	-1E+10	1
4901784	167	C	01/30/2020	10:49	-132.599	43.455	0	1269.60	0	2.9140	0	36.8770	8	29.402	0	1255.642	0	16.6	4	5.2	4	-1E+10	1	-1E+10	1	-1E+10	1	-1E+10	1	-1E+10	1	-1E+10	1
4901784	167	C	01/30/2020	10:49	-132.599	43.455	0	1274.90	0	2.8980	0	36.8800	8	29.406	0	1260.868	0	16.8	4	5.3	4	-1E+10	1	-1E+10	1	-1E+10	1	-1E+10	1	-1E+10	1	-1E+10	1
4901784	167	C	01/30/2020	10:49	-132.599	43.455	0	1280.20	0	2.8930	0	36.8810	8	29.407	0	1266.094	0	16.9	4	5.3	4	-1E+10	1	-1E+10	1	-1E+10	1	-1E+10	1	-1E+10	1	-1E+10	1
4901784	167	C	01/30/2020	10:49	-132.599	43.455	0	1285.50	0	2.8890	0	36.8820	8	29.408	0	1271.320	0	17.0	4	5.3	4	-1E+10	1	-1E+10	1	-1E+10	1	-1E+10	1	-1E+10	1	-1E+10	1
4901784	167	C	01/30/2020	10:49	-132.599	43.455	0	1290.00	0	2.8840	0	36.8830	8	29.410	0	1275.756	0	17.2	4	5.4	4	-1E+10	1	-1E+10	1	-1E+10	1	-1E+10	1	-1E+10	1	-1E+10	1
4901784	167	C	01/30/2020	10:49	-132.599	43.455	0	1294.50	0	2.8740	0	36.8850	8	29.412	0	1280.193	0	17.3	4	5.4	4	-1E+10	1	-1E+10	1	-1E+10	1	-1E+10	1	-1E+10	1	-1E+10	1
4901784	167	C	01/30/2020	10:49	-132.599	43.455	0	1299.90	0	2.8690	0	36.8860	8	29.414	0	1285.517	0	17.5	4	5.5	4	-1E+10	1	-1E+10	1	-1E+10	1	-1E+10	1	-1E+10	1	-1E+10	1
4901784	167	C	01/30/2020	10:49	-132.599	43.455	0	1305.30	0	2.8610	0	36.8870	8	29.415	0	1290.841	0	17.8	4	5.6	4	-1E+10	1	-1E+10	1	-1E+10	1	-1E+10	1	-1E+10	1	-1E+10	1
4901784	167	C	01/30/2020	10:49	-132.599	43.455	0	1310.70	0	2.8390	0	36.8910	8	29.420	0	1296.164	0	18.2	4	5.7	4	-1E+10	1	-1E+10	1	-1E+10	1	-1E+10	1	-1E+10	1	-1E+10	1
4901784	167	C	01/30/2020	10:49	-132.599	43.455	0	1315.20	0	2.8240	0	36.8940	8	29.424	0	1300.600	0	18.4	4	5.8	4	-1E+10	1	-1E+10	1	-1E+10	1	-1E+10	1	-1E+10	1	-1E+10	1
4901784	167	C	01/30/2020	10:49	-132.599	43.455	0	1319.60	0	2.8160	0	36.8950	8	29.426	0	1304.938	0	18.6	4	5.8	4	-1E+10	1	-1E+10	1	-1E+10	1	-1E+10	1	-1E+10	1	-1E+10	1
4901784	167	C	01/30/2020	10:49	-132.599	43.455	0	1325.00	0	2.8070	0	36.8970	8	29.428	0	1310.261	0	18.9	4	5.9	4	-1E+10	1	-1E+10	1	-1E+10	1	-1E+10	1	-1E+10	1	-1E+10	1
4901784	167	C	01/30/2020	10:49	-132.599	43.455	0	1330.30	0	2.8000	0	36.8990	8	29.431	0	1315.486	0	19.1	4	6.0	4	-1E+10	1	-1E+10	1	-1E+10	1	-1E+10	1	-1E+10	1	-1E+10	1
4901784	167	C	01/30/2020	10:49	-132.599	43.455	0	1334.90	0	2.7890	0	36.9010	8	29.433	0	1320.020	0	19.3	4	6.1	4	-1E+10	1	-1E+10	1	-1E+10	1	-1E+10	1	-1E+10	1	-1E+10	1
4901784	167	C	01/30/2020	10:49	-132.599	43.455	0	1339.40	0	2.7830	0	36.9020	8	29.435	0	1324.456	0	19.5	4	6.1	4	-1E+10	1	-1E+10	1	-1E+10	1	-1E+10	1	-1E+10	1	-1E+10	1
4901784	167	C	01/30/2020	10:49	-132.599	43.455	0	1345.50	0	2.7730	0	36.9030	8	29.437	0	1330.468	0	19.8	4	6.2	4	-1E+10	1	-1E+10	1	-1E+10	1	-1E+10	1	-1E+10	1	-1E+10	1
4901784	167	C	01/30/2020	10:49	-132.599	43.455	0	1350.40	0	2.7600	0	36.9060	8	29.440	0	1335.298	0	20.1	4	6.3	4	-1E+10	1	-1E+10	1	-1E+10	1	-1E+10	1	-1E+10	1	-1E+10	1
4901784	167	C	01/30/2020	10:49	-132.599	43.455	0	1355.00	0	2.7540	0	36.9080	8	29.442	0	1339.832	0	20.2	4	6.3	4	-1E+10	1	-1E+10	1	-1E+10	1	-1E+10	1	-1E+10	1	-1E+10	1
4901784	167	C	01/30/2020	10:49	-132.599	43.455	0	1359.70	0	2.7520	0	36.9080	8	29.443	0	1344.464	0	20.3	4	6.4	4	-1E+10	1	-1E+10	1	-1E+10	1	-1E+10	1	-1E+10	1	-1E+10	1
4901784	167	C	01/30/2020	10:49	-132.599	43.455	0	1364.60	0	2.7430	0	36.9100	8	29.445	0	1349.294	0	20.5	4	6.4	4	-1E+10	1	-1E+10	1	-1E+10	1	-1E+10	1	-1E+10	1	-1E+10	1
4901784	167	C	01/30/2020	10:49	-132.599	43.455	0	1369.70	0	2.7390	0	36.9110	8	29.446	0	1354.320	0	20.6	4	6.4	4	-1E+10	1	-1E+10	1	-1E+10	1	-1E+10	1	-1E+10	1	-1E+10	1
4901784	167	C	01/30/2020	10:49	-132.599	43.455	0	1375.00	0	2.7380	0	36.9110	8	29.446	0	1359.544	0	20.7	4	6.5	4	-1E+10	1	-1E+10	1	-1E+10	1	-1E+10	1	-1E+10	1	-1E+10	1
4901784	167	C	01/30/2020	10:49	-132.599	43.455	0	1380.40	0	2.7330	0	36.9130	8	29.449	0	1364.866	0	20.9	4	6.5	4	-1E+10	1	-1E+10	1	-1E+10	1	-1E+10	1	-1E+10	1	-1E+10	1
4901784	167	C	01/30/2020	10:49	-132.599	43.455	0	1384.80	0	2.7290	0	36.9140	8	29.450	0	1369.202	0	21.1	4	6.6	4	-1E+10	1	-1E+10	1	-1E+10	1	-1E+10	1	-1E+10	1	-1E+10	1
4901784	167	C	01/30/2020	10:49	-132.599	43.455	0	1389.40	0	2.7180	0	36.9160	8	29.452	0	1373.735	0	21.3	4	6.7	4	-1E+10	1	-1E+10	1	-1E+10	1	-1E+10	1	-1E+10	1	-1E+10	1
4901784	167	C	01/30/2020	10:49	-132.599	43.455	0	1394.90	0	2.7120	0	36.9170	8	29.454	0	1379.155	0	21.5	4	6.7	4	-1E+10	1	-1E+10	1	-1E+10	1	-1E+10	1	-1E+10	1	-1E+10	1
4901784	167	C	01/30/2020	10:49	-132.599	43.455	0	1400.40	0	2.7080	0	36.9180	8	29.455	0	1384.575	0	21.9	4	6.8	4	-1E+10	1	-1E+10	1	-1E+10	1	-1E+10	1	-1E+10	1	-1E+10	1
4901784	167	C	01/30/2020	10:49	-132.599	43.455	0	1405.00	0	2.6960	0	36.9210	8	29.459	0	1389.108	0	22.3	4	7.0	4	-1E+10	1	-1E+10	1	-1E+10	1	-1E+10	1	-1E+10	1	-1E+10	1
4901784	167	C	01/30/2020	10:49	-132.599	43.455	0	1409.70	0	2.6900	0	36.9230	8	29.461	0	1393.739	0	22.6	4	7.0	4	-1E+10	1	-1E+10	1	-1E+10	1	-1E+10	1	-1E+10	1	-1E+10	1
4901784	167	C	01/30/2020	10:49	-132.599	43.455	0	1415.40	0	2.6850	0	36.9250	8	29.463	0	1399.356	0	22.8	4	7.1	4	-1E+10	1	-1E+10	1	-1E+10	1	-1E+10	1	-1E+10	1	-1E+10	1
4901784	167	C	01/30/2020	10:49	-132.599	43.455	0	1420.10	0	2.6790	0	36.9260	8	29.464	0	1403.987	0	22.9	4	7.1	4	-1E+10	1	-1E+10	1	-1E+10	1	-1E+10	1	-1E+10	1	-1E+10	1
4901784	167	C	01/30/2020	10:49	-132.599	43.455	0	1424.70	0	2.6760	0	36.9260	8	29.465	0	1408.519	0	23.0	4	7.2	4	-1E+10	1	-1E+10	1	-1E+10	1	-1E+10	1	-1E+10	1	-1E+10	1
4901784	167	C	01/30/2020	10:49	-132.599	43.455	0	1430.30	0	2.6720	0	36.9270	8	29.466	0	1414.037	0	23.2	4	7.2	4	-1E+10	1	-1E+10	1	-1E+10	1	-1E+10	1	-1E+10	1	-1E+10	1
4901784	167	C	01/30/2020	10:49	-132.599	43.455	0	1435.10	0	2.6660	0	36.9280	8	29.467	0	1418.766	0	23.3	4	7.3	4	-1E+10	1	-1E+10	1	-1E+10	1	-1E+10	1	-1E+10	1	-1E+10	1
4901784	167	C	01/30/2020	10:49	-132.599	43.455	0	1439.80	0	2.6490	0	36.9290	8	29.470	0	1423.397	0	23.5	4	7.3	4	-1E+10	1	-1E+10	1	-1E+10	1	-1E+10	1	-1E+10	1	-1E+10	1
4901784	167	C	01/30/2020	10:49	-132.599	43.455	0	1445.30	0	2.6340	0	36.9300	8	29.472	0	1428.816	0	23.8	4	7.4	4	-1E+10	1	-1E+10	1	-1E+10	1	-1E+10	1	-1E+10	1	-1E+10	1
4901784	167	C	01/30/2020	10:49	-132.599	43.455	0	1450.00	0	2.6250	0	36.9320	8	29.474	0	1433.446	0	24.0	4	7.5	4	-1E+10	1	-1E+10	1	-1E+10	1	-1E+10	1	-1E+10	1	-1E+10	1
4901784	167	C	01/30/2020	10:49	-132.599	43.455	0	1454.70	0	2.6210	0	36.9330	8	29.475	0	1438.076	0	24.2	4	7.5	4	-1E+10	1	-1E+10	1	-1E+10	1	-1E+10	1	-1E+10	1	-1E+10	1
4901784	167	C	01/30/2020	10:49	-132.599	43.455	0	1460.30	0	2.6160	0	36.9340	8	29.477	0	1443.593	0	24.4	4	7.6	4	-1E+10	1	-1E+10	1	-1E+10	1	-1E+10	1	-1E+10	1	-1E+10	1
4901784	167	C	01/30/2020	10:49	-132.599	43.455	0	1465.10	0	2.6090	0	36.9350	8	29.478	0	1448.322	0	24.6	4	7.7	4	-1E+10	1	-1E+10	1	-1E+10	1	-1E+10	1	-1E+10	1	-1E+10	1
4901784	167	C	01/30/2020	10:49	-132.599	43.455	0	1469.80	0	2.6010	0	36.9360	8	29.480	0	1452.952	0	24.9	4	7.7	4	-1E+10	1	-1E+10	1	-1E+10	1	-1E+10	1	-1E+10	1	-1E+10	1
4901784	167	C	01/30/2020	10:49	-132.599	43.455	0	1475.40	0	2.5860	0	36.9370	8	29.482	0	1458.468	0	25.3	4	7.9	4	-1E+10	1	-1E+10	1	-1E+10	1	-1E+10	1	-1E+10	1	-1E+10	1
4901784	167	C	01/30/2020	10:49	-132.599	43.455	0	1480.30	0	2.5700	0	36.9410	8	29.487	0	1463.295	0	25.6	4	8.0	4	-1E+10	1	-1E+10	1	-1E+10	1	-1E+10	1	-1E+10	1	-1E+10	1
4901784	167	C	01/30/2020	10:49	-132.599	43.455	0	1485.00	0	2.5640	0	36.9410	8	29.487	0	1467.925	0	25.8	4	8.0	4	-1E+10	1	-1E+10	1	-1E+10	1	-1E+10	1	-1E+10	1	-1E+10	1
4901784	167	C	01/30/2020	10:49	-132.599	43.455	0	1489.80	0	2.5610	0	36.9410	8	29.488	0	1472.653	0	26.0	4	8.1	4	-1E+10	1	-1E+10	1	-1E+10	1	-1E+10	1	-1E+10	1	-1E+10	1
4901784	167	C	01/30/2020	10:49	-132.599	43.455	0	1494.60	0	2.5480	0	36.9440	8	29.491	0	1477.381	0	26.4	4	8.2	4	-1E+10	1	-1E+10	1	-1E+10	1	-1E+10	1	-1E+10	1	-1E+10	1
4901784	167	C	01/30/2020	10:49	-132.599	43.455	0	1500.30	0	2.5410	0	36.9450	8	29.493	0	1482.995	0	26.6	4	8.3	4	-1E+10	1	-1E+10	1	-1E+10	1	-1E+10	1	-1E+10	1	-1E+10	1
4901784	167	C	01/30/2020	10:49	-132.599	43.455	0	1505.70	0	2.5330	0	36.9460	8	29.494	0	1488.314	0	26.8	4	8.3	4	-1E+10	1	-1E+10	1	-1E+10	1	-1E+10	1	-1E+10	1	-1E+10	1
4901784	167	C	01/30/2020	10:49	-132.599	43.455	0	1510.10	0	2.5310	0	36.9470	8	29.495	0	1492.648	0	26.9	4	8.4	4	-1E+10	1	-1E+10	1	-1E+10	1	-1E+10	1	-1E+10	1	-1E+10	1
4901784	167	C	01/30/2020	10:49	-132.599	43.455	0	1514.50	0	2.5290	0	36.9470	8	29.495	0	1496.981	0	27.2	4	8.5	4	-1E+10	1	-1E+10	1	-1E+10	1	-1E+10	1	-1E+10	1	-1E+10	1
4901784	167	C	01/30/2020	10:49	-132.599	43.455	0	1519.80	0	2.5190	0	36.9480	8	29.497	0	1502.201	0	27.7	4	8.6	4	-1E+10	1	-1E+10	1	-1E+10	1	-1E+10	1	-1E+10	1	-1E+10	1
4901784	167	C	01/30/2020	10:49	-132.599	43.455	0	1525.20	0	2.5030	0	36.9510	8	29.501	0	1507.519	0	28.2	4	8.8	4	-1E+10	1	-1E+10	1	-1E+10	1	-1E+10	1	-1E+10	1	-1E+10	1
4901784	167	C	01/30/2020	10:49	-132.599	43.455	0	1530.60	0	2.4870	0	36.9530	8	29.504	0	1512.837	0	28.7	4	8.9	4	-1E+10	1	-1E+10	1	-1E+10	1	-1E+10	1	-1E+10	1	-1E+10	1
4901784	167	C	01/30/2020	10:49	-132.599	43.455	0	1535.10	0	2.4760	0	36.9550	8	29.507	0	1517.269	0	29.0	4	9.0	4	-1E+10	1	-1E+10	1	-1E+10	1	-1E+10	1	-1E+10	1	-1E+10	1
4901784	167	C	01/30/2020	10:49	-132.599	43.455	0	1539.70	0	2.4720	0	36.9560	8	29.508	0	1521.799	0	29.3	4	9.1	4	-1E+10	1	-1E+10	1	-1E+10	1	-1E+10	1	-1E+10	1	-1E+10	1
4901784	167	C	01/30/2020	10:49	-132.599	43.455	0	1545.00	0	2.4540	0	36.9590	8	29.512	0	1527.018	0	29.8	4	9.2	4	-1E+10	1	-1E+10	1	-1E+10	1	-1E+10	1	-1E+10	1	-1E+10	1
4901784	167	C	01/30/2020	10:49	-132.599	43.455	0	1550.50	0	2.4480	0	36.9600	8	29.513	0	1532.435	0	29.9	4	9.3	4	-1E+10	1	-1E+10	1	-1E+10	1	-1E+10	1	-1E+10	1	-1E+10	1
4901784	167	C	01/30/2020	10:49	-132.599	43.455	0	1555.10	0	2.4460	0	36.9600	8	29.514	0	1536.964	0	30.1	4	9.4	4	-1E+10	1	-1E+10	1	-1E+10	1	-1E+10	1	-1E+10	1	-1E+10	1
4901784	167	C	01/30/2020	10:49	-132.599	43.455	0	1559.80	0	2.4390	0	36.9610	8	29.515	0	1541.592	0	30.4	4	9.4	4	-1E+10	1	-1E+10	1	-1E+10	1	-1E+10	1	-1E+10	1	-1E+10	1
4901784	167	C	01/30/2020	10:49	-132.599	43.455	0	1565.30	0	2.4320	0	36.9620	8	29.517	0	1547.008	0	30.7	4	9.5	4	-1E+10	1	-1E+10	1	-1E+10	1	-1E+10	1	-1E+10	1	-1E+10	1
4901784	167	C	01/30/2020	10:49	-132.599	43.455	0	1569.90	0	2.4270	0	36.9640	8	29.519	0	1551.537	0	30.9	4	9.6	4	-1E+10	1	-1E+10	1	-1E+10	1	-1E+10	1	-1E+10	1	-1E+10	1
4901784	167	C	01/30/2020	10:49	-132.599	43.455	0	1575.20	0	2.4190	0	36.9650	8	29.520	0	1556.756	0	31.2	4	9.7	4	-1E+10	1	-1E+10	1	-1E+10	1	-1E+10	1	-1E+10	1	-1E+10	1
4901784	167	C	01/30/2020	10:49	-132.599	43.455	0	1580.30	0	2.4130	0	36.9660	8	29.522	0	1561.777	0	31.5	4	9.8	4	-1E+10	1	-1E+10	1	-1E+10	1	-1E+10	1	-1E+10	1	-1E+10	1
4901784	167	C	01/30/2020	10:49	-132.599	43.455	0	1585.10	0	2.4020	0	36.9680	8	29.524	0	1566.503	0	31.9	4	9.9	4	-1E+10	1	-1E+10	1	-1E+10	1	-1E+10	1	-1E+10	1	-1E+10	1
4901784	167	C	01/30/2020	10:49	-132.599	43.455	0	1590.00	0	2.3950	0	36.9690	8	29.526	0	1571.328	0	32.1	4	10.0	4	-1E+10	1	-1E+10	1	-1E+10	1	-1E+10	1	-1E+10	1	-1E+10	1
4901784	167	C	01/30/2020	10:49	-132.599	43.455	0	1594.90	0	2.3900	0	36.9700	8	29.527	0	1576.152	0	32.3	4	10.0	4	-1E+10	1	-1E+10	1	-1E+10	1	-1E+10	1	-1E+10	1	-1E+10	1
4901784	167	C	01/30/2020	10:49	-132.599	43.455	0	1599.80	0	2.3840	0	36.9710	8	29.528	0	1580.976	0	32.7	4	10.1	4	-1E+10	1	-1E+10	1	-1E+10	1	-1E+10	1	-1E+10	1	-1E+10	1
4901784	167	C	01/30/2020	10:49	-132.599	43.455	0	1604.80	0	2.3780	0	36.9720	8	29.530	0	1585.899	0	33.0	4	10.2	4	-1E+10	1	-1E+10	1	-1E+10	1	-1E+10	1	-1E+10	1	-1E+10	1
4901784	167	C	01/30/2020	10:49	-132.599	43.455	0	1609.80	0	2.3670	0	36.9730	8	29.531	0	1590.821	0	33.4	4	10.4	4	-1E+10	1	-1E+10	1	-1E+10	1	-1E+10	1	-1E+10	1	-1E+10	1
4901784	167	C	01/30/2020	10:49	-132.599	43.455	0	1614.70	0	2.3580	0	36.9750	8	29.534	0	1595.645	0	33.8	4	10.5	4	-1E+10	1	-1E+10	1	-1E+10	1	-1E+10	1	-1E+10	1	-1E+10	1
4901784	167	C	01/30/2020	10:49	-132.599	43.455	0	1619.70	0	2.3520	0	36.9760	8	29.535	0	1600.567	0	34.0	4	10.5	4	-1E+10	1	-1E+10	1	-1E+10	1	-1E+10	1	-1E+10	1	-1E+10	1
4901784	167	C	01/30/2020	10:49	-132.599	43.455	0	1624.70	0	2.3450	0	36.9770	8	29.537	0	1605.489	0	34.4	4	10.6	4	-1E+10	1	-1E+10	1	-1E+10	1	-1E+10	1	-1E+10	1	-1E+10	1
4901784	167	C	01/30/2020	10:49	-132.599	43.455	0	1629.80	0	2.3370	0	36.9790	8	29.539	0	1610.509	0	34.7	4	10.7	4	-1E+10	1	-1E+10	1	-1E+10	1	-1E+10	1	-1E+10	1	-1E+10	1
4901784	167	C	01/30/2020	10:49	-132.599	43.455	0	1634.90	0	2.3350	0	36.9790	8	29.539	0	1615.529	0	34.9	4	10.8	4	-1E+10	1	-1E+10	1	-1E+10	1	-1E+10	1	-1E+10	1	-1E+10	1
4901784	167	C	01/30/2020	10:49	-132.599	43.455	0	1639.90	0	2.3260	0	36.9810	8	29.542	0	1620.451	0	35.3	4	10.9	4	-1E+10	1	-1E+10	1	-1E+10	1	-1E+10	1	-1E+10	1	-1E+10	1
4901784	167	C	01/30/2020	10:49	-132.599	43.455	0	1645.00	0	2.3190	0	36.9820	8	29.543	0	1625.471	0	35.7	4	11.0	4	-1E+10	1	-1E+10	1	-1E+10	1	-1E+10	1	-1E+10	1	-1E+10	1
4901784	167	C	01/30/2020	10:49	-132.599	43.455	0	1650.00	0	2.3050	0	36.9830	8	29.545	0	1630.392	0	36.3	4	11.2	4	-1E+10	1	-1E+10	1	-1E+10	1	-1E+10	1	-1E+10	1	-1E+10	1
4901784	167	C	01/30/2020	10:49	-132.599	43.455	0	1655.10	0	2.2910	0	36.9860	8	29.549	0	1635.412	0	36.7	4	11.3	4	-1E+10	1	-1E+10	1	-1E+10	1	-1E+10	1	-1E+10	1	-1E+10	1
4901784	167	C	01/30/2020	10:49	-132.599	43.455	0	1660.20	0	2.2860	0	36.9870	8	29.550	0	1640.431	0	36.9	4	11.4	4	-1E+10	1	-1E+10	1	-1E+10	1	-1E+10	1	-1E+10	1	-1E+10	1
4901784	167	C	01/30/2020	10:49	-132.599	43.455	0	1665.30	0	2.2800	0	36.9880	8	29.551	0	1645.451	0	37.2	4	11.5	4	-1E+10	1	-1E+10	1	-1E+10	1	-1E+10	1	-1E+10	1	-1E+10	1
4901784	167	C	01/30/2020	10:49	-132.599	43.455	0	1670.50	0	2.2760	0	36.9880	8	29.552	0	1650.569	0	37.5	4	11.6	4	-1E+10	1	-1E+10	1	-1E+10	1	-1E+10	1	-1E+10	1	-1E+10	1
4901784	167	C	01/30/2020	10:49	-132.599	43.455	0	1675.60	0	2.2670	0	36.9900	8	29.554	0	1655.588	0	38.0	4	11.7	4	-1E+10	1	-1E+10	1	-1E+10	1	-1E+10	1	-1E+10	1	-1E+10	1
4901784	167	C	01/30/2020	10:49	-132.599	43.455	0	1680.00	0	2.2610	0	36.9920	8	29.556	0	1659.918	0	38.3	4	11.8	4	-1E+10	1	-1E+10	1	-1E+10	1	-1E+10	1	-1E+10	1	-1E+10	1
4901784	167	C	01/30/2020	10:49	-132.599	43.455	0	1684.30	0	2.2530	0	36.9930	8	29.558	0	1664.150	0	38.5	4	11.9	4	-1E+10	1	-1E+10	1	-1E+10	1	-1E+10	1	-1E+10	1	-1E+10	1
4901784	167	C	01/30/2020	10:49	-132.599	43.455	0	1689.50	0	2.2480	0	36.9940	8	29.559	0	1669.267	0	38.8	4	12.0	4	-1E+10	1	-1E+10	1	-1E+10	1	-1E+10	1	-1E+10	1	-1E+10	1
4901784	167	C	01/30/2020	10:49	-132.599	43.455	0	1694.70	0	2.2440	0	36.9940	8	29.560	0	1674.385	0	39.1	4	12.1	4	-1E+10	1	-1E+10	1	-1E+10	1	-1E+10	1	-1E+10	1	-1E+10	1
4901784	167	C	01/30/2020	10:49	-132.599	43.455	0	1699.90	0	2.2360	0	36.9950	8	29.561	0	1679.502	0	39.6	4	12.2	4	-1E+10	1	-1E+10	1	-1E+10	1	-1E+10	1	-1E+10	1	-1E+10	1
4901784	167	C	01/30/2020	10:49	-132.599	43.455	0	1705.20	0	2.2210	0	36.9970	8	29.564	0	1684.717	0	40.2	4	12.4	4	-1E+10	1	-1E+10	1	-1E+10	1	-1E+10	1	-1E+10	1	-1E+10	1
4901784	167	C	01/30/2020	10:49	-132.599	43.455	0	1710.40	0	2.2110	0	36.9990	8	29.567	0	1689.834	0	40.5	4	12.5	4	-1E+10	1	-1E+10	1	-1E+10	1	-1E+10	1	-1E+10	1	-1E+10	1
4901784	167	C	01/30/2020	10:49	-132.599	43.455	0	1714.90	0	2.2070	0	36.9990	8	29.567	0	1694.262	0	40.9	4	12.6	4	-1E+10	1	-1E+10	1	-1E+10	1	-1E+10	1	-1E+10	1	-1E+10	1
4901784	167	C	01/30/2020	10:49	-132.599	43.455	0	1719.30	0	2.1960	0	37.0010	8	29.570	0	1698.591	0	41.4	4	12.8	4	-1E+10	1	-1E+10	1	-1E+10	1	-1E+10	1	-1E+10	1	-1E+10	1
4901784	167	C	01/30/2020	10:49	-132.599	43.455	0	1724.70	0	2.1850	0	37.0030	8	29.572	0	1703.904	0	42.0	4	13.0	4	-1E+10	1	-1E+10	1	-1E+10	1	-1E+10	1	-1E+10	1	-1E+10	1
4901784	167	C	01/30/2020	10:49	-132.599	43.455	0	1730.10	0	2.1750	0	37.0050	8	29.575	0	1709.218	0	42.5	4	13.1	4	-1E+10	1	-1E+10	1	-1E+10	1	-1E+10	1	-1E+10	1	-1E+10	1
4901784	167	C	01/30/2020	10:49	-132.599	43.455	0	1735.50	0	2.1670	0	37.0070	8	29.577	0	1714.531	0	42.8	4	13.2	4	-1E+10	1	-1E+10	1	-1E+10	1	-1E+10	1	-1E+10	1	-1E+10	1
4901784	167	C	01/30/2020	10:49	-132.599	43.455	0	1740.60	0	2.1640	0	37.0070	8	29.577	0	1719.548	0	43.1	4	13.3	4	-1E+10	1	-1E+10	1	-1E+10	1	-1E+10	1	-1E+10	1	-1E+10	1
4901784	167	C	01/30/2020	10:49	-132.599	43.455	0	1744.70	0	2.1580	0	37.0080	8	29.579	0	1723.582	0	43.5	4	13.4	4	-1E+10	1	-1E+10	1	-1E+10	1	-1E+10	1	-1E+10	1	-1E+10	1
4901784	167	C	01/30/2020	10:49	-132.599	43.455	0	1749.40	0	2.1510	0	37.0090	8	29.580	0	1728.206	0	43.8	4	13.5	4	-1E+10	1	-1E+10	1	-1E+10	1	-1E+10	1	-1E+10	1	-1E+10	1
4901784	167	C	01/30/2020	10:49	-132.599	43.455	0	1755.00	0	2.1430	0	37.0110	8	29.582	0	1733.715	0	44.3	4	13.6	4	-1E+10	1	-1E+10	1	-1E+10	1	-1E+10	1	-1E+10	1	-1E+10	1
4901784	167	C	01/30/2020	10:49	-132.599	43.455	0	1760.60	0	2.1370	0	37.0120	8	29.584	0	1739.225	0	44.7	4	13.8	4	-1E+10	1	-1E+10	1	-1E+10	1	-1E+10	1	-1E+10	1	-1E+10	1
4901784	167	C	01/30/2020	10:49	-132.599	43.455	0	1765.40	0	2.1310	0	37.0130	8	29.585	0	1743.947	0	45.0	4	13.9	4	-1E+10	1	-1E+10	1	-1E+10	1	-1E+10	1	-1E+10	1	-1E+10	1
4901784	167	C	01/30/2020	10:49	-132.599	43.455	0	1770.30	0	2.1240	0	37.0140	8	29.587	0	1748.767	0	45.5	4	14.0	4	-1E+10	1	-1E+10	1	-1E+10	1	-1E+10	1	-1E+10	1	-1E+10	1
4901784	167	C	01/30/2020	10:49	-132.599	43.455	0	1775.20	0	2.1130	0	37.0160	8	29.589	0	1753.587	0	46.1	4	14.2	4	-1E+10	1	-1E+10	1	-1E+10	1	-1E+10	1	-1E+10	1	-1E+10	1
4901784	167	C	01/30/2020	10:49	-132.599	43.455	0	1780.20	0	2.1050	0	37.0180	8	29.591	0	1758.505	0	46.3	4	14.3	4	-1E+10	1	-1E+10	1	-1E+10	1	-1E+10	1	-1E+10	1	-1E+10	1
4901784	167	C	01/30/2020	10:49	-132.599	43.455	0	1785.20	0	2.1040	0	37.0180	8	29.592	0	1763.424	0	46.5	4	14.3	4	-1E+10	1	-1E+10	1	-1E+10	1	-1E+10	1	-1E+10	1	-1E+10	1
4901784	167	C	01/30/2020	10:49	-132.599	43.455	0	1790.10	0	2.1040	0	37.0180	8	29.592	0	1768.244	0	46.6	4	14.4	4	-1E+10	1	-1E+10	1	-1E+10	1	-1E+10	1	-1E+10	1	-1E+10	1
4901784	167	C	01/30/2020	10:49	-132.599	43.455	0	1795.10	0	2.1030	0	37.0180	8	29.592	0	1773.162	0	47.1	4	14.5	4	-1E+10	1	-1E+10	1	-1E+10	1	-1E+10	1	-1E+10	1	-1E+10	1
4901784	167	C	01/30/2020	10:49	-132.599	43.455	0	1800.10	0	2.0870	0	37.0210	8	29.596	0	1778.080	0	47.7	4	14.7	4	-1E+10	1	-1E+10	1	-1E+10	1	-1E+10	1	-1E+10	1	-1E+10	1
4901784	167	C	01/30/2020	10:49	-132.599	43.455	0	1805.20	0	2.0800	0	37.0220	8	29.597	0	1783.096	0	48.0	4	14.8	4	-1E+10	1	-1E+10	1	-1E+10	1	-1E+10	1	-1E+10	1	-1E+10	1
4901784	167	C	01/30/2020	10:49	-132.599	43.455	0	1810.30	0	2.0730	0	37.0230	8	29.598	0	1788.112	0	48.2	4	14.8	4	-1E+10	1	-1E+10	1	-1E+10	1	-1E+10	1	-1E+10	1	-1E+10	1
4901784	167	C	01/30/2020	10:49	-132.599	43.455	0	1815.50	0	2.0690	0	37.0240	8	29.600	0	1793.226	0	48.3	4	14.9	4	-1E+10	1	-1E+10	1	-1E+10	1	-1E+10	1	-1E+10	1	-1E+10	1
4901784	167	C	01/30/2020	10:49	-132.599	43.455	0	1820.70	0	2.0670	0	37.0240	8	29.600	0	1798.341	0	48.5	4	14.9	4	-1E+10	1	-1E+10	1	-1E+10	1	-1E+10	1	-1E+10	1	-1E+10	1
4901784	167	C	01/30/2020	10:49	-132.599	43.455	0	1825.00	0	2.0630	0	37.0250	8	29.601	0	1802.570	0	48.6	4	15.0	4	-1E+10	1	-1E+10	1	-1E+10	1	-1E+10	1	-1E+10	1	-1E+10	1
4901784	167	C	01/30/2020	10:49	-132.599	43.455	0	1829.40	0	2.0610	0	37.0250	8	29.601	0	1806.897	0	48.8	4	15.0	4	-1E+10	1	-1E+10	1	-1E+10	1	-1E+10	1	-1E+10	1	-1E+10	1
4901784	167	C	01/30/2020	10:49	-132.599	43.455	0	1834.70	0	2.0590	0	37.0250	8	29.601	0	1812.109	0	49.1	4	15.1	4	-1E+10	1	-1E+10	1	-1E+10	1	-1E+10	1	-1E+10	1	-1E+10	1
4901784	167	C	01/30/2020	10:49	-132.599	43.455	0	1840.00	0	2.0490	0	37.0270	8	29.604	0	1817.321	0	49.6	4	15.3	4	-1E+10	1	-1E+10	1	-1E+10	1	-1E+10	1	-1E+10	1	-1E+10	1
4901784	167	C	01/30/2020	10:49	-132.599	43.455	0	1845.30	0	2.0440	0	37.0280	8	29.605	0	1822.533	0	49.9	4	15.4	4	-1E+10	1	-1E+10	1	-1E+10	1	-1E+10	1	-1E+10	1	-1E+10	1
4901784	167	C	01/30/2020	10:49	-132.599	43.455	0	1850.70	0	2.0420	0	37.0290	8	29.606	0	1827.843	0	50.2	4	15.4	4	-1E+10	1	-1E+10	1	-1E+10	1	-1E+10	1	-1E+10	1	-1E+10	1
4901784	167	C	01/30/2020	10:49	-132.599	43.455	0	1855.10	0	2.0360	0	37.0300	8	29.607	0	1832.170	0	50.4	4	15.5	4	-1E+10	1	-1E+10	1	-1E+10	1	-1E+10	1	-1E+10	1	-1E+10	1
4901784	167	C	01/30/2020	10:49	-132.599	43.455	0	1859.50	0	2.0330	0	37.0300	8	29.608	0	1836.497	0	50.7	4	15.6	4	-1E+10	1	-1E+10	1	-1E+10	1	-1E+10	1	-1E+10	1	-1E+10	1
4901784	167	C	01/30/2020	10:49	-132.599	43.455	0	1864.90	0	2.0280	0	37.0310	8	29.609	0	1841.806	0	51.1	4	15.7	4	-1E+10	1	-1E+10	1	-1E+10	1	-1E+10	1	-1E+10	1	-1E+10	1
4901784	167	C	01/30/2020	10:49	-132.599	43.455	0	1870.30	0	2.0230	0	37.0330	8	29.611	0	1847.116	0	51.3	4	15.8	4	-1E+10	1	-1E+10	1	-1E+10	1	-1E+10	1	-1E+10	1	-1E+10	1
4901784	167	C	01/30/2020	10:49	-132.599	43.455	0	1874.80	0	2.0220	0	37.0330	8	29.611	0	1851.541	0	51.5	4	15.8	4	-1E+10	1	-1E+10	1	-1E+10	1	-1E+10	1	-1E+10	1	-1E+10	1
4901784	167	C	01/30/2020	10:49	-132.599	43.455	0	1879.40	0	2.0210	0	37.0330	8	29.611	0	1856.064	0	51.6	4	15.9	4	-1E+10	1	-1E+10	1	-1E+10	1	-1E+10	1	-1E+10	1	-1E+10	1
4901784	167	C	01/30/2020	10:49	-132.599	43.455	0	1884.90	0	2.0200	0	37.0330	8	29.611	0	1861.471	0	52.0	4	16.0	4	-1E+10	1	-1E+10	1	-1E+10	1	-1E+10	1	-1E+10	1	-1E+10	1
4901784	167	C	01/30/2020	10:49	-132.599	43.455	0	1890.30	0	2.0090	0	37.0350	8	29.614	0	1866.781	0	52.7	4	16.2	4	-1E+10	1	-1E+10	1	-1E+10	1	-1E+10	1	-1E+10	1	-1E+10	1
4901784	167	C	01/30/2020	10:49	-132.599	43.455	0	1895.70	0	1.9980	0	37.0370	8	29.617	0	1872.090	0	53.1	4	16.3	4	-1E+10	1	-1E+10	1	-1E+10	1	-1E+10	1	-1E+10	1	-1E+10	1
4901784	167	C	01/30/2020	10:49	-132.599	43.455	0	1900.20	0	1.9960	0	37.0380	8	29.618	0	1876.514	0	53.2	4	16.3	4	-1E+10	1	-1E+10	1	-1E+10	1	-1E+10	1	-1E+10	1	-1E+10	1
4901784	167	C	01/30/2020	10:49	-132.599	43.455	0	1904.80	0	1.9950	0	37.0380	8	29.618	0	1881.036	0	53.3	4	16.4	4	-1E+10	1	-1E+10	1	-1E+10	1	-1E+10	1	-1E+10	1	-1E+10	1
4901784	167	C	01/30/2020	10:49	-132.599	43.455	0	1910.30	0	1.9920	0	37.0390	8	29.619	0	1886.443	0	53.5	4	16.4	4	-1E+10	1	-1E+10	1	-1E+10	1	-1E+10	1	-1E+10	1	-1E+10	1
4901784	167	C	01/30/2020	10:49	-132.599	43.455	0	1914.80	0	1.9900	0	37.0390	8	29.619	0	1890.867	0	53.6	4	16.5	4	-1E+10	1	-1E+10	1	-1E+10	1	-1E+10	1	-1E+10	1	-1E+10	1
4901784	167	C	01/30/2020	10:49	-132.599	43.455	0	1919.30	0	1.9890	0	37.0390	8	29.619	0	1895.291	0	53.8	4	16.5	4	-1E+10	1	-1E+10	1	-1E+10	1	-1E+10	1	-1E+10	1	-1E+10	1
4901784	167	C	01/30/2020	10:49	-132.599	43.455	0	1924.60	0	1.9840	0	37.0400	8	29.620	0	1900.501	0	54.1	4	16.6	4	-1E+10	1	-1E+10	1	-1E+10	1	-1E+10	1	-1E+10	1	-1E+10	1
4901784	167	C	01/30/2020	10:49	-132.599	43.455	0	1929.40	0	1.9820	0	37.0410	8	29.621	0	1905.219	0	54.3	4	16.7	4	-1E+10	1	-1E+10	1	-1E+10	1	-1E+10	1	-1E+10	1	-1E+10	1
4901784	167	C	01/30/2020	10:49	-132.599	43.455	0	1935.00	0	1.9770	0	37.0420	8	29.623	0	1910.724	0	54.6	4	16.8	4	-1E+10	1	-1E+10	1	-1E+10	1	-1E+10	1	-1E+10	1	-1E+10	1
4901784	167	C	01/30/2020	10:49	-132.599	43.455	0	1940.60	0	1.9720	0	37.0430	8	29.624	0	1916.228	0	55.0	4	16.9	4	-1E+10	1	-1E+10	1	-1E+10	1	-1E+10	1	-1E+10	1	-1E+10	1
4901784	167	C	01/30/2020	10:49	-132.599	43.455	0	1945.50	0	1.9690	0	37.0430	8	29.624	0	1921.045	0	55.2	4	17.0	4	-1E+10	1	-1E+10	1	-1E+10	1	-1E+10	1	-1E+10	1	-1E+10	1
4901784	167	C	01/30/2020	10:49	-132.599	43.455	0	1950.40	0	1.9650	0	37.0440	8	29.625	0	1925.861	0	55.5	4	17.0	4	-1E+10	1	-1E+10	1	-1E+10	1	-1E+10	1	-1E+10	1	-1E+10	1
4901784	167	C	01/30/2020	10:49	-132.599	43.455	0	1955.30	0	1.9620	0	37.0450	8	29.626	0	1930.677	0	55.7	4	17.1	4	-1E+10	1	-1E+10	1	-1E+10	1	-1E+10	1	-1E+10	1	-1E+10	1
4901784	167	C	01/30/2020	10:49	-132.599	43.455	0	1960.30	0	1.9590	0	37.0450	8	29.627	0	1935.591	0	55.9	4	17.2	4	-1E+10	1	-1E+10	1	-1E+10	1	-1E+10	1	-1E+10	1	-1E+10	1
4901784	167	C	01/30/2020	10:49	-132.599	43.455	0	1965.30	0	1.9570	0	37.0460	8	29.628	0	1940.506	0	56.1	4	17.2	4	-1E+10	1	-1E+10	1	-1E+10	1	-1E+10	1	-1E+10	1	-1E+10	1
4901784	167	C	01/30/2020	10:49	-132.599	43.455	0	1970.30	0	1.9540	0	37.0460	8	29.628	0	1945.420	0	56.4	4	17.3	4	-1E+10	1	-1E+10	1	-1E+10	1	-1E+10	1	-1E+10	1	-1E+10	1
4901784	167	C	01/30/2020	10:49	-132.599	43.455	0	1975.50	0	1.9500	0	37.0470	8	29.629	0	1950.530	0	56.6	4	17.4	4	-1E+10	1	-1E+10	1	-1E+10	1	-1E+10	1	-1E+10	1	-1E+10	1
4901784	167	C	01/30/2020	10:49	-132.599	43.455	0	1980.60	0	1.9490	0	37.0470	8	29.629	0	1955.542	0	56.8	4	17.4	4	-1E+10	1	-1E+10	1	-1E+10	1	-1E+10	1	-1E+10	1	-1E+10	1
4901784	167	C	01/30/2020	10:49	-132.599	43.455	0	1985.80	0	1.9440	0	37.0480	8	29.630	0	1960.653	0	57.1	4	17.5	4	-1E+10	1	-1E+10	1	-1E+10	1	-1E+10	1	-1E+10	1	-1E+10	1
4901784	167	C	01/30/2020	10:49	-132.599	43.455	0	1990.00	0	1.9420	0	37.0490	8	29.631	0	1964.780	0	57.2	4	17.6	4	-1E+10	1	-1E+10	1	-1E+10	1	-1E+10	1	-1E+10	1	-1E+10	1
4901784	167	C	01/30/2020	10:49	-132.599	43.455	0	1994.40	0	1.9410	0	37.0490	8	29.632	0	1969.104	0	57.5	4	17.6	4	-1E+10	1	-1E+10	1	-1E+10	1	-1E+10	1	-1E+10	1	-1E+10	1
4901784	167	C	01/30/2020	10:49	-132.599	43.455	0	1999.60	0	1.9370	0	37.0500	8	29.633	0	1974.214	0	57.9	4	17.8	4	-1E+10	1	-1E+10	1	-1E+10	1	-1E+10	1	-1E+10	1	-1E+10	1
4901784	167	C	01/30/2020	10:49	-132.599	43.455	0	2004.80	0	1.9330	0	37.0510	8	29.634	0	1979.324	0	58.2	4	17.9	4	-1E+10	1	-1E+10	1	-1E+10	1	-1E+10	1	-1E+10	1	-1E+10	1
4901784	167	C	01/30/2020	10:49	-132.599	43.455	0	2009.90	0	1.9330	0	37.0520	8	29.635	0	1984.335	0	58.3	4	17.9	4	-1E+10	1	-1E+10	1	-1E+10	1	-1E+10	1	-1E+10	1	-1E+10	1
4901784	167	C	01/30/2020	10:49	-132.599	43.455	0	2014.80	0	1.9340	0	37.0520	8	29.635	0	1989.150	0	58.6	4	18.0	4	-1E+10	1	-1E+10	1	-1E+10	1	-1E+10	1	-1E+10	1	-1E+10	1
4901784	167	C	01/30/2020	10:49	-132.599	43.455	0	2019.70	0	1.9340	0	37.0530	8	29.636	0	1993.965	0	58.9	4	18.1	4	-1E+10	1	-1E+10	1	-1E+10	1	-1E+10	1	-1E+10	1	-1E+10	1
4901784	167	C	01/30/2020	10:49	-132.599	43.455	0																										
4901784	168	C	02/09/2020	10:43	-132.628	43.416	0	3.00	0	11.3430	0	34.6470	8	26.439	0	2.976	0	255.9	4	95.7	4	-1E+10	1	-1E+10	1	-1E+10	1	-1E+10	1	-1E+10	1	-1E+10	1
4901784	168	C	02/09/2020	10:43	-132.628	43.416	0	4.70	0	11.3400	0	34.6470	8	26.439	0	4.662	0	255.9	4	95.6	4	-1E+10	1	-1E+10	1	-1E+10	1	-1E+10	1	-1E+10	1	-1E+10	1
4901784	168	C	02/09/2020	10:43	-132.628	43.416	0	6.50	0	11.3410	0	34.6470	8	26.439	0	6.448	0	255.8	4	95.6	4	-1E+10	1	-1E+10	1	-1E+10	1	-1E+10	1	-1E+10	1	-1E+10	1
4901784	168	C	02/09/2020	10:43	-132.628	43.416	0	8.60	0	11.3410	0	34.6480	8	26.440	0	8.531	0	255.8	4	95.6	4	-1E+10	1	-1E+10	1	-1E+10	1	-1E+10	1	-1E+10	1	-1E+10	1
4901784	168	C	02/09/2020	10:43	-132.628	43.416	0	10.70	0	11.3420	0	34.6480	8	26.440	0	10.614	0	255.8	4	95.6	4	-1E+10	1	-1E+10	1	-1E+10	1	-1E+10	1	-1E+10	1	-1E+10	1
4901784	168	C	02/09/2020	10:43	-132.628	43.416	0	12.90	0	11.3420	0	34.6490	8	26.441	0	12.797	0	255.9	4	95.6	4	-1E+10	1	-1E+10	1	-1E+10	1	-1E+10	1	-1E+10	1	-1E+10	1
4901784	168	C	02/09/2020	10:43	-132.628	43.416	0	15.00	0	11.3490	0	34.6480	8	26.439	0	14.880	0	255.9	4	95.6	4	-1E+10	1	-1E+10	1	-1E+10	1	-1E+10	1	-1E+10	1	-1E+10	1
4901784	168	C	02/09/2020	10:43	-132.628	43.416	0	17.30	0	11.3500	0	34.6470	8	26.438	0	17.161	0	255.7	4	95.6	4	-1E+10	1	-1E+10	1	-1E+10	1	-1E+10	1	-1E+10	1	-1E+10	1
4901784	168	C	02/09/2020	10:43	-132.628	43.416	0	19.40	0	11.3480	0	34.6490	8	26.440	0	19.244	0	255.9	4	95.6	4	-1E+10	1	-1E+10	1	-1E+10	1	-1E+10	1	-1E+10	1	-1E+10	1
4901784	168	C	02/09/2020	10:43	-132.628	43.416	0	21.60	0	11.3470	0	34.6500	8	26.441	0	21.427	0	255.7	4	95.6	4	-1E+10	1	-1E+10	1	-1E+10	1	-1E+10	1	-1E+10	1	-1E+10	1
4901784	168	C	02/09/2020	10:43	-132.628	43.416	0	23.80	0	11.3470	0	34.6510	8	26.441	0	23.609	0	256.0	4	95.7	4	-1E+10	1	-1E+10	1	-1E+10	1	-1E+10	1	-1E+10	1	-1E+10	1
4901784	168	C	02/09/2020	10:43	-132.628	43.416	0	25.80	0	11.3470	0	34.6520	8	26.442	0	25.593	0	255.6	4	95.6	4	-1E+10	1	-1E+10	1	-1E+10	1	-1E+10	1	-1E+10	1	-1E+10	1
4901784	168	C	02/09/2020	10:43	-132.628	43.416	0	27.80	0	11.3460	0	34.6530	8	26.443	0	27.577	0	255.6	4	95.6	4	-1E+10	1	-1E+10	1	-1E+10	1	-1E+10	1	-1E+10	1	-1E+10	1
4901784	168	C	02/09/2020	10:43	-132.628	43.416	0	29.80	0	11.3470	0	34.6530	8	26.443	0	29.560	0	255.7	4	95.6	4	-1E+10	1	-1E+10	1	-1E+10	1	-1E+10	1	-1E+10	1	-1E+10	1
4901784	168	C	02/09/2020	10:43	-132.628	43.416	0	31.80	0	11.3470	0	34.6540	8	26.444	0	31.544	0	255.7	4	95.6	4	-1E+10	1	-1E+10	1	-1E+10	1	-1E+10	1	-1E+10	1	-1E+10	1
4901784	168	C	02/09/2020	10:43	-132.628	43.416	0	33.70	0	11.3500	0	34.6540	8	26.443	0	33.429	0	255.7	4	95.6	4	-1E+10	1	-1E+10	1	-1E+10	1	-1E+10	1	-1E+10	1	-1E+10	1
4901784	168	C	02/09/2020	10:43	-132.628	43.416	0	35.70	0	11.3530	0	34.6540	8	26.443	0	35.412	0	255.5	4	95.5	4	-1E+10	1	-1E+10	1	-1E+10	1	-1E+10	1	-1E+10	1	-1E+10	1
4901784	168	C	02/09/2020	10:43	-132.628	43.416	0	37.70	0	11.3530	0	34.6550	8	26.444	0	37.396	0	255.5	4	95.5	4	-1E+10	1	-1E+10	1	-1E+10	1	-1E+10	1	-1E+10	1	-1E+10	1
4901784	168	C	02/09/2020	10:43	-132.628	43.416	0	39.70	0	11.3540	0	34.6550	8	26.444	0	39.380	0	255.6	4	95.6	4	-1E+10	1	-1E+10	1	-1E+10	1	-1E+10	1	-1E+10	1	-1E+10	1
4901784	168	C	02/09/2020	10:43	-132.628	43.416	0	41.70	0	11.3520	0	34.6560	8	26.445	0	41.363	0	255.6	4	95.6	4	-1E+10	1	-1E+10	1	-1E+10	1	-1E+10	1	-1E+10	1	-1E+10	1
4901784	168	C	02/09/2020	10:43	-132.628	43.416	0	43.70	0	11.3520	0	34.6570	8	26.446	0	43.347	0	255.5	4	95.5	4	-1E+10	1	-1E+10	1	-1E+10	1	-1E+10	1	-1E+10	1	-1E+10	1
4901784	168	C	02/09/2020	10:43	-132.628	43.416	0	45.80	0	11.3520	0	34.6580	8	26.446	0	45.430	0	255.4	4	95.5	4	-1E+10	1	-1E+10	1	-1E+10	1	-1E+10	1	-1E+10	1	-1E+10	1
4901784	168	C	02/09/2020	10:43	-132.628	43.416	0	47.80	0	11.3540	0	34.6580	8	26.446	0	47.413	0	255.6	4	95.6	4	-1E+10	1	-1E+10	1	-1E+10	1	-1E+10	1	-1E+10	1	-1E+10	1
4901784	168	C	02/09/2020	10:43	-132.628	43.416	0	49.80	0	11.3540	0	34.6590	8	26.447	0	49.397	0	255.6	4	95.5	4	-1E+10	1	-1E+10	1	-1E+10	1	-1E+10	1	-1E+10	1	-1E+10	1
4901784	168	C	02/09/2020	10:43	-132.628	43.416	0	51.80	0	11.3530	0	34.6600	8	26.448	0	51.381	0	255.3	4	95.4	4	-1E+10	1	-1E+10	1	-1E+10	1	-1E+10	1	-1E+10	1	-1E+10	1
4901784	168	C	02/09/2020	10:43	-132.628	43.416	0	53.70	0	11.3560	0	34.6600	8	26.447	0	53.265	0	255.5	4	95.5	4	-1E+10	1	-1E+10	1	-1E+10	1	-1E+10	1	-1E+10	1	-1E+10	1
4901784	168	C	02/09/2020	10:43	-132.628	43.416	0	55.60	0	11.3560	0	34.6610	8	26.448	0	55.149	0	255.3	4	95.5	4	-1E+10	1	-1E+10	1	-1E+10	1	-1E+10	1	-1E+10	1	-1E+10	1
4901784	168	C	02/09/2020	10:43	-132.628	43.416	0	57.60	0	11.3540	0	34.6610	8	26.449	0	57.133	0	255.1	4	95.4	4	-1E+10	1	-1E+10	1	-1E+10	1	-1E+10	1	-1E+10	1	-1E+10	1
4901784	168	C	02/09/2020	10:43	-132.628	43.416	0	59.60	0	11.3530	0	34.6620	8	26.450	0	59.116	0	255.2	4	95.4	4	-1E+10	1	-1E+10	1	-1E+10	1	-1E+10	1	-1E+10	1	-1E+10	1
4901784	168	C	02/09/2020	10:43	-132.628	43.416	0	61.60	0	11.3540	0	34.6630	8	26.450	0	61.100	0	255.2	4	95.4	4	-1E+10	1	-1E+10	1	-1E+10	1	-1E+10	1	-1E+10	1	-1E+10	1
4901784	168	C	02/09/2020	10:43	-132.628	43.416	0	63.70	0	11.3560	0	34.6630	8	26.450	0	63.182	0	255.1	4	95.4	4	-1E+10	1	-1E+10	1	-1E+10	1	-1E+10	1	-1E+10	1	-1E+10	1
4901784	168	C	02/09/2020	10:43	-132.628	43.416	0	65.60	0	11.3560	0	34.6650	8	26.452	0	65.067	0	255.1	4	95.4	4	-1E+10	1	-1E+10	1	-1E+10	1	-1E+10	1	-1E+10	1	-1E+10	1
4901784	168	C	02/09/2020	10:43	-132.628	43.416	0	68.10	0	11.3560	0	34.6650	8	26.452	0	67.546	0	254.9	4	95.3	4	-1E+10	1	-1E+10	1	-1E+10	1	-1E+10	1	-1E+10	1	-1E+10	1
4901784	168	C	02/09/2020	10:43	-132.628	43.416	0	70.00	0	11.3580	0	34.6660	8	26.452	0	69.430	0	255.1	4	95.4	4	-1E+10	1	-1E+10	1	-1E+10	1	-1E+10	1	-1E+10	1	-1E+10	1
4901784	168	C	02/09/2020	10:43	-132.628	43.416	0	71.70	0	11.3570	0	34.6670	8	26.453	0	71.116	0	254.8	4	95.3	4	-1E+10	1	-1E+10	1	-1E+10	1	-1E+10	1	-1E+10	1	-1E+10	1
4901784	168	C	02/09/2020	10:43	-132.628	43.416	0	73.20	0	11.3580	0	34.6670	8	26.453	0	72.604	0	254.9	4	95.3	4	-1E+10	1	-1E+10	1	-1E+10	1	-1E+10	1	-1E+10	1	-1E+10	1
4901784	168	C	02/09/2020	10:43	-132.628	43.416	0	74.80	0	11.3580	0	34.6680	8	26.454	0	74.190	0	255.0	4	95.3	4	-1E+10	1	-1E+10	1	-1E+10	1	-1E+10	1	-1E+10	1	-1E+10	1
4901784	168	C	02/09/2020	10:43	-132.628	43.416	0	76.30	0	11.3580	0	34.6690	8	26.455	0	75.678	0	254.8	4	95.3	4	-1E+10	1	-1E+10	1	-1E+10	1	-1E+10	1	-1E+10	1	-1E+10	1
4901784	168	C	02/09/2020	10:43	-132.628	43.416	0	77.90	0	11.3570	0	34.6700	8	26.456	0	77.264	0	254.7	4	95.2	4	-1E+10	1	-1E+10	1	-1E+10	1	-1E+10	1	-1E+10	1	-1E+10	1
4901784	168	C	02/09/2020	10:43	-132.628	43.416	0	79.60	0	11.3580	0	34.6700	8	26.456	0	78.950	0	254.6	4	95.2	4	-1E+10	1	-1E+10	1	-1E+10	1	-1E+10	1	-1E+10	1	-1E+10	1
4901784	168	C	02/09/2020	10:43	-132.628	43.416	0	81.10	0	11.3580	0	34.6700	8	26.456	0	80.438	0	254.5	4	95.2	4	-1E+10	1	-1E+10	1	-1E+10	1	-1E+10	1	-1E+10	1	-1E+10	1
4901784	168	C	02/09/2020	10:43	-132.628	43.416	0	82.80	0	11.3580	0	34.6710	8	26.456	0	82.123	0	254.4	4	95.1	4	-1E+10	1	-1E+10	1	-1E+10	1	-1E+10	1	-1E+10	1	-1E+10	1
4901784	168	C	02/09/2020	10:43	-132.628	43.416	0	84.30	0	11.3570	0	34.6720	8	26.457	0	83.611	0	254.3	4	95.1	4	-1E+10	1	-1E+10	1	-1E+10	1	-1E+10	1	-1E+10	1	-1E+10	1
4901784	168	C	02/09/2020	10:43	-132.628	43.416	0	85.90	0	11.3570	0	34.6720	8	26.457	0	85.197	0	254.2	4	95.0	4	-1E+10	1	-1E+10	1	-1E+10	1	-1E+10	1	-1E+10	1	-1E+10	1
4901784	168	C	02/09/2020	10:43	-132.628	43.416	0	88.00	0	11.3570	0	34.6730	8	26.458	0	87.280	0	254.0	4	95.0	4	-1E+10	1	-1E+10	1	-1E+10	1	-1E+10	1	-1E+10	1	-1E+10	1
4901784	168	C	02/09/2020	10:43	-132.628	43.416	0	89.70	0	11.3570	0	34.6730	8	26.458	0	88.966	0	253.8	4	94.9	4	-1E+10	1	-1E+10	1	-1E+10	1	-1E+10	1	-1E+10	1	-1E+10	1
4901784	168	C	02/09/2020	10:43	-132.628	43.416	0	91.20	0	11.3580	0	34.6740	8	26.459	0	90.453	0	253.6	4	94.8	4	-1E+10	1	-1E+10	1	-1E+10	1	-1E+10	1	-1E+10	1	-1E+10	1
4901784	168	C	02/09/2020	10:43	-132.628	43.416	0	92.50	0	11.3580	0	34.6740	8	26.459	0	91.742	0	253.3	4	94.7	4	-1E+10	1	-1E+10	1	-1E+10	1	-1E+10	1	-1E+10	1	-1E+10	1
4901784	168	C	02/09/2020	10:43	-132.628	43.416	0	93.80	0	11.3590	0	34.6740	8	26.459	0	93.031	0	252.7	4	94.5	4	-1E+10	1	-1E+10	1	-1E+10	1	-1E+10	1	-1E+10	1	-1E+10	1
4901784	168	C	02/09/2020	10:43	-132.628	43.416	0	95.00	0	11.3580	0	34.6740	8	26.459	0	94.221	0	252.2	4	94.3	4	-1E+10	1	-1E+10	1	-1E+10	1	-1E+10	1	-1E+10	1	-1E+10	1
4901784	168	C	02/09/2020	10:43	-132.628	43.416	0	96.30	0	11.3580	0	34.6730	8	26.458	0	95.510	0	251.6	4	94.1	4	-1E+10	1	-1E+10	1	-1E+10	1	-1E+10	1	-1E+10	1	-1E+10	1
4901784	168	C	02/09/2020	10:43	-132.628	43.416	0	97.60	0	11.3580	0	34.6710	8	26.457	0	96.799	0	250.7	4	93.8	4	-1E+10	1	-1E+10	1	-1E+10	1	-1E+10	1	-1E+10	1	-1E+10	1
4901784	168	C	02/09/2020	10:43	-132.628	43.416	0	99.10	0	11.3580	0	34.6680	8	26.454	0	98.286	0	249.5	4	93.3	4	-1E+10	1	-1E+10	1	-1E+10	1	-1E+10	1	-1E+10	1	-1E+10	1
4901784	168	C	02/09/2020	10:43	-132.628	43.416	0	102.30	0	11.3590	0	34.6550	8	26.444	0	101.459	0	245.9	4	92.0	4	-1E+10	1	-1E+10	1	-1E+10	1	-1E+10	1	-1E+10	1	-1E+10	1
4901784	168	C	02/09/2020	10:43	-132.628	43.416	0	104.60	0	11.3600	8	34.6290	8	26.424	0	103.740	0	240.6	4	89.9	4	-1E+10	1	-1E+10	1	-1E+10	1	-1E+10	1	-1E+10	1	-1E+10	1
4901784	168	C	02/09/2020	10:43	-132.628	43.416	0	107.20	0	11.3430	8	34.5350	8	26.354	0	106.318	0	232.7	4	86.9	4	-1E+10	1	-1E+10	1	-1E+10	1	-1E+10	1	-1E+10	1	-1E+10	1
4901784	168	C	02/09/2020	10:43	-132.628	43.416	0	109.70	0	9.6380	0	34.7680	8	26.834	0	108.797	0	235.9	4	85.1	4	-1E+10	1	-1E+10	1	-1E+10	1	-1E+10	1	-1E+10	1	-1E+10	1
4901784	168	C	02/09/2020	10:43	-132.628	43.416	0	112.20	0	9.5100	0	34.7800	8	26.865	0	111.275	0	234.9	4	84.5	4	-1E+10	1	-1E+10	1	-1E+10	1	-1E+10	1	-1E+10	1	-1E+10	1
4901784	168	C	02/09/2020	10:43	-132.628	43.416	0	114.90	0	9.3820	0	34.8020	8	26.903	0	113.952	0	233.3	4	83.7	4	-1E+10	1	-1E+10	1	-1E+10	1	-1E+10	1	-1E+10	1	-1E+10	1
4901784	168	C	02/09/2020	10:43	-132.628	43.416	0	117.20	0	9.2920	0	34.8270	8	26.938	0	116.233	0	231.6	4	82.9	4	-1E+10	1	-1E+10	1	-1E+10	1	-1E+10	1	-1E+10	1	-1E+10	1
4901784	168	C	02/09/2020	10:43	-132.628	43.416	0	120.10	0	9.1590	0	34.8750	8	26.997	0	119.108	0	228.3	4	81.5	4	-1E+10	1	-1E+10	1	-1E+10	1	-1E+10	1	-1E+10	1	-1E+10	1
4901784	168	C	02/09/2020	10:43	-132.628	43.416	0	122.30	0	9.0210	0	34.9440	8	27.073	0	121.289	0	225.9	4	80.5	4	-1E+10	1	-1E+10	1	-1E+10	1	-1E+10	1	-1E+10	1	-1E+10	1
4901784	168	C	02/09/2020	10:43	-132.628	43.416	0	124.80	0	8.7770	0	35.0070	8	27.162	0	123.768	0	225.6	4	80.0	4	-1E+10	1	-1E+10	1	-1E+10	1	-1E+10	1	-1E+10	1	-1E+10	1
4901784	168	C	02/09/2020	10:43	-132.628	43.416	0	127.20	0	8.7070	0	35.0440	8	27.202	0	126.147	0	224.7	4	79.6	4	-1E+10	1	-1E+10	1	-1E+10	1	-1E+10	1	-1E+10	1	-1E+10	1
4901784	168	C	02/09/2020	10:43	-132.628	43.416	0	129.60	0	8.6690	0	35.0630	8	27.223	0	128.526	0	223.8	4	79.2	4	-1E+10	1	-1E+10	1	-1E+10	1	-1E+10	1	-1E+10	1	-1E+10	1
4901784	168	C	02/09/2020	10:43	-132.628	43.416	0	132.80	0	8.6090	0	35.0870	8	27.251	0	131.699	0	222.0	4	78.5	4	-1E+10	1	-1E+10	1	-1E+10	1	-1E+10	1	-1E+10	1	-1E+10	1
4901784	168	C	02/09/2020	10:43	-132.628	43.416	0	135.30	0	8.5740	0	35.1010	8	27.268	0	134.177	0	220.3	4	77.8	4	-1E+10	1	-1E+10	1	-1E+10	1	-1E+10	1	-1E+10	1	-1E+10	1
4901784	168	C	02/09/2020	10:43	-132.628	43.416	0	137.70	0	8.4990	0	35.1500	8	27.318	0	136.557	0	218.3	4	77.0	4	-1E+10	1	-1E+10	1	-1E+10	1	-1E+10	1	-1E+10	1	-1E+10	1
4901784	168	C	02/09/2020	10:43	-132.628	43.416	0	140.30	0	8.4130	0	35.2070	8	27.376	0	139.134	0	216.6	4	76.3	4	-1E+10	1	-1E+10	1	-1E+10	1	-1E+10	1	-1E+10	1	-1E+10	1
4901784	168	C	02/09/2020	10:43	-132.628	43.416	0	142.00	0	8.3260	0	35.2470	8	27.421	0	140.819	0	215.5	4	75.8	4	-1E+10	1	-1E+10	1	-1E+10	1	-1E+10	1	-1E+10	1	-1E+10	1
4901784	168	C	02/09/2020	10:43	-132.628	43.416	0	144.90	0	8.2340	0	35.2990	8	27.476	0	143.694	0	213.8	4	75.1	4	-1E+10	1	-1E+10	1	-1E+10	1	-1E+10	1	-1E+10	1	-1E+10	1
4901784	168	C	02/09/2020	10:43	-132.628	43.416	0	147.20	0	8.1660	0	35.3460	8	27.523	0	145.974	0	211.9	4	74.3	4	-1E+10	1	-1E+10	1	-1E+10	1	-1E+10	1	-1E+10	1	-1E+10	1
4901784	168	C	02/09/2020	10:43	-132.628	43.416	0	150.30	0	8.0910	0	35.4060	8	27.582	0	149.047	0	208.4	4	73.0	4	-1E+10	1	-1E+10	1	-1E+10	1	-1E+10	1	-1E+10	1	-1E+10	1
4901784	168	C	02/09/2020	10:43	-132.628	43.416	0	152.60	0	8.0320	0	35.4610	8	27.634	0	151.327	0	204.5	4	71.6	4	-1E+10	1	-1E+10	1	-1E+10	1	-1E+10	1	-1E+10	1	-1E+10	1
4901784	168	C	02/09/2020	10:43	-132.628	43.416	0	155.00	0	8.0410	0	35.5590	8	27.710	0	153.707	0	199.6	4	69.9	4	-1E+10	1	-1E+10	1	-1E+10	1	-1E+10	1	-1E+10	1	-1E+10	1
4901784	168	C	02/09/2020	10:43	-132.628	43.416	0	157.40	0	8.1630	0	35.6770	8	27.784	0	156.086	0	194.2	4	68.3	4	-1E+10	1	-1E+10	1	-1E+10	1	-1E+10	1	-1E+10	1	-1E+10	1
4901784	168	C	02/09/2020	10:43	-132.628	43.416	0	160.10	0	8.1820	0	35.7310	8	27.823	0	158.762	0	191.4	4	67.3	4	-1E+10	1	-1E+10	1	-1E+10	1	-1E+10	1	-1E+10	1	-1E+10	1
4901784	168	C	02/09/2020	10:43	-132.628	43.416	0	162.80	0	8.1930	0	35.7560	8	27.841	0	161.438	0	189.2	4	66.6	4	-1E+10	1	-1E+10	1	-1E+10	1	-1E+10	1	-1E+10	1	-1E+10	1
4901784	168	C	02/09/2020	10:43	-132.628	43.416	0	165.40	0	8.1910	0	35.7970	8	27.874	0	164.016	0	186.6	4	65.7	4	-1E+10	1	-1E+10	1	-1E+10	1	-1E+10	1	-1E+10	1	-1E+10	1
4901784	168	C	02/09/2020	10:43	-132.628	43.416	0	168.00	0	8.1890	0	35.8410	8	27.909	0	166.593	0	184.5	4	65.0	4	-1E+10	1	-1E+10	1	-1E+10	1	-1E+10	1	-1E+10	1	-1E+10	1
4901784	168	C	02/09/2020	10:43	-132.628	43.416	0	169.80	0	8.1840	0	35.8970	8	27.954	0	168.377	0	184.1	4	64.9	4	-1E+10	1	-1E+10	1	-1E+10	1	-1E+10	1	-1E+10	1	-1E+10	1
4901784	168	C	02/09/2020	10:43	-132.628	43.416	0	172.50	0	8.1560	0	35.9010	8	27.961	0	171.053	0	184.6	4	65.0	4	-1E+10	1	-1E+10	1	-1E+10	1	-1E+10	1	-1E+10	1	-1E+10	1
4901784	168	C	02/09/2020	10:43	-132.628	43.416	0	175.20	0	8.1320	0	35.9110	8	27.973	0	173.730	0	183.8	4	64.7	4	-1E+10	1	-1E+10	1	-1E+10	1	-1E+10	1	-1E+10	1	-1E+10	1
4901784	168	C	02/09/2020	10:43	-132.628	43.416	0	177.00	0	8.1220	0	35.9260	8	27.986	0	175.514	0	182.2	4	64.1	4	-1E+10	1	-1E+10	1	-1E+10	1	-1E+10	1	-1E+10	1	-1E+10	1
4901784	168	C	02/09/2020	10:43	-132.628	43.416	0	179.80	0	8.1310	0	35.9460	8	28.000	0	178.289	0	179.0	4	63.0	4	-1E+10	1	-1E+10	1	-1E+10	1	-1E+10	1	-1E+10	1	-1E+10	1
4901784	168	C	02/09/2020	10:43	-132.628	43.416	0	182.60	0	8.1430	0	35.9710	8	28.018	0	181.064	0	176.3	4	62.1	4	-1E+10	1	-1E+10	1	-1E+10	1	-1E+10	1	-1E+10	1	-1E+10	1
4901784	168	C	02/09/2020	10:43	-132.628	43.416	0	184.50	0	8.1340	0	35.9840	8	28.030	0	182.947	0	174.7	4	61.5	4	-1E+10	1	-1E+10	1	-1E+10	1	-1E+10	1	-1E+10	1	-1E+10	1
4901784	168	C	02/09/2020	10:43	-132.628	43.416	0	187.40	0	8.1240	0	36.0210	8	28.060	0	185.822	0	170.7	4	60.1	4	-1E+10	1	-1E+10	1	-1E+10	1	-1E+10	1	-1E+10	1	-1E+10	1
4901784	168	C	02/09/2020	10:43	-132.628	43.416	0	189.90	0	8.1250	0	36.0520	8	28.085	0	188.299	0	167.8	4	59.1	4	-1E+10	1	-1E+10	1	-1E+10	1	-1E+10	1	-1E+10	1	-1E+10	1
4901784	168	C	02/09/2020	10:43	-132.628	43.416	0	192.30	0	8.1250	0	36.0780	8	28.105	0	190.678	0	164.8	4	58.1	4	-1E+10	1	-1E+10	1	-1E+10	1	-1E+10	1	-1E+10	1	-1E+10	1
4901784	168	C	02/09/2020	10:43	-132.628	43.416	0	194.60	0	8.1180	0	36.0830	8	28.110	0	192.958	0	161.3	4	56.8	4	-1E+10	1	-1E+10	1	-1E+10	1	-1E+10	1	-1E+10	1	-1E+10	1
4901784	168	C	02/09/2020	10:43	-132.628	43.416	0	197.90	0	8.1160	0	36.1040	8	28.127	0	196.228	0	152.5	4	53.7	4	-1E+10	1	-1E+10	1	-1E+10	1	-1E+10	1	-1E+10	1	-1E+10	1
4901784	168	C	02/09/2020	10:43	-132.628	43.416	0	200.40	0	8.1650	0	36.1300	8	28.140	0	198.706	0	143.8	4	50.7	4	-1E+10	1	-1E+10	1	-1E+10	1	-1E+10	1	-1E+10	1	-1E+10	1
4901784	168	C	02/09/2020	10:43	-132.628	43.416	0	202.90	0	8.1700	0	36.1440	8	28.150	0	201.184	0	141.6	4	50.0	4	-1E+10	1	-1E+10	1	-1E+10	1	-1E+10	1	-1E+10	1	-1E+10	1
4901784	168	C	02/09/2020	10:43	-132.628	43.416	0	205.40	0	8.1610	0	36.1500	8	28.156	0	203.661	0	140.1	4	49.4	4	-1E+10	1	-1E+10	1	-1E+10	1	-1E+10	1	-1E+10	1	-1E+10	1
4901784	168	C	02/09/2020	10:43	-132.628	43.416	0	207.90	0	8.1380	0	36.1620	8	28.169	0	206.139	0	138.2	4	48.7	4	-1E+10	1	-1E+10	1	-1E+10	1	-1E+10	1	-1E+10	1	-1E+10	1
4901784	168	C	02/09/2020	10:43	-132.628	43.416	0	210.30	0	8.1240	0	36.1690	8	28.177	0	208.517	0	136.2	4	48.0	4	-1E+10	1	-1E+10	1	-1E+10	1	-1E+10	1	-1E+10	1	-1E+10	1
4901784	168	C	02/09/2020	10:43	-132.628	43.416	0	212.70	0	8.1030	0	36.1750	8	28.185	0	210.896	0	134.6	4	47.4	4	-1E+10	1	-1E+10	1	-1E+10	1	-1E+10	1	-1E+10	1	-1E+10	1
4901784	168	C	02/09/2020	10:43	-132.628	43.416	0	215.20	0	8.0620	0	36.1840	8	28.198	0	213.373	0	133.2	4	46.9	4	-1E+10	1	-1E+10	1	-1E+10	1	-1E+10	1	-1E+10	1	-1E+10	1
4901784	168	C	02/09/2020	10:43	-132.628	43.416	0	217.80	0	8.0380	0	36.1900	8	28.207	0	215.950	0	132.4	4	46.6	4	-1E+10	1	-1E+10	1	-1E+10	1	-1E+10	1	-1E+10	1	-1E+10	1
4901784	168	C	02/09/2020	10:43	-132.628	43.416	0	220.30	0	8.0100	0	36.1960	8	28.216	0	218.427	0	131.1	4	46.1	4	-1E+10	1	-1E+10	1	-1E+10	1	-1E+10	1	-1E+10	1	-1E+10	1
4901784	168	C	02/09/2020	10:43	-132.628	43.416	0	222.00	0	7.9900	0	36.1970	8	28.220	0	220.112	0	129.9	4	45.7	4	-1E+10	1	-1E+10	1	-1E+10	1	-1E+10	1	-1E+10	1	-1E+10	1
4901784	168	C	02/09/2020	10:43	-132.628	43.416	0	224.60	0	7.9460	0	36.2020	8	28.231	0	222.688	0	128.2	4	45.0	4	-1E+10	1	-1E+10	1	-1E+10	1	-1E+10	1	-1E+10	1	-1E+10	1
4901784	168	C	02/09/2020	10:43	-132.628	43.416	0	227.20	0	7.9210	0	36.2030	8	28.235	0	225.265	0	127.6	4	44.8	4	-1E+10	1	-1E+10	1	-1E+10	1	-1E+10	1	-1E+10	1	-1E+10	1
4901784	168	C	02/09/2020	10:43	-132.628	43.416	0	229.80	0	7.9020	0	36.2040	8	28.239	0	227.841	0	127.1	4	44.6	4	-1E+10	1	-1E+10	1	-1E+10	1	-1E+10	1	-1E+10	1	-1E+10	1
4901784	168	C	02/09/2020	10:43	-132.628	43.416	0	232.40	0	7.8750	0	36.2040	8	28.243	0	230.418	0	126.4	4	44.3	4	-1E+10	1	-1E+10	1	-1E+10	1	-1E+10	1	-1E+10	1	-1E+10	1
4901784	168	C	02/09/2020	10:43	-132.628	43.416	0	235.00	0	7.8000	0	36.2060	8	28.256	0	232.994	0	126.0	4	44.1	4	-1E+10	1	-1E+10	1	-1E+10	1	-1E+10	1	-1E+10	1	-1E+10	1
4901784	168	C	02/09/2020	10:43	-132.628	43.416	0	237.70	0	7.7420	0	36.2080	8	28.266	0	235.669	0	125.4	4	43.8	4	-1E+10	1	-1E+10	1	-1E+10	1	-1E+10	1	-1E+10	1	-1E+10	1
4901784	168	C	02/09/2020	10:43	-132.628	43.416	0	240.30	0	7.6980	0	36.2120	8	28.276	0	238.246	0	124.9	4	43.6	4	-1E+10	1	-1E+10	1	-1E+10	1	-1E+10	1	-1E+10	1	-1E+10	1
4901784	168	C	02/09/2020	10:43	-132.628	43.416	0	243.00	0	7.6740	0	36.2120	8	28.280	0	240.921	0	125.1	4	43.7	4	-1E+10	1	-1E+10	1	-1E+10	1	-1E+10	1	-1E+10	1	-1E+10	1
4901784	168	C	02/09/2020	10:43	-132.628	43.416	0	244.80	0	7.6410	0	36.2150	8	28.287	0	242.705	0	125.3	4	43.7	4	-1E+10	1	-1E+10	1	-1E+10	1	-1E+10	1	-1E+10	1	-1E+10	1
4901784	168	C	02/09/2020	10:43	-132.628	43.416	0	247.50	0	7.6060	0	36.2130	8	28.291	0	245.380	0	126.2	4	44.0	4	-1E+10	1	-1E+10	1	-1E+10	1	-1E+10	1	-1E+10	1	-1E+10	1
4901784	168	C	02/09/2020	10:43	-132.628	43.416	0	250.10	0	7.5460	0	36.2130	8	28.300	0	247.956	0	127.2	4	44.3	4	-1E+10	1	-1E+10	1	-1E+10	1	-1E+10	1	-1E+10	1	-1E+10	1
4901784	168	C	02/09/2020	10:43	-132.628	43.416	0	252.80	0	7.4960	0	36.2150	8	28.308	0	250.631	0	129.6	4	45.1	4	-1E+10	1	-1E+10	1	-1E+10	1	-1E+10	1	-1E+10	1	-1E+10	1
4901784	168	C	02/09/2020	10:43	-132.628	43.416	0	255.40	0	7.4310	0	36.2130	8	28.317	0	253.207	0	133.8	4	46.4	4	-1E+10	1	-1E+10	1	-1E+10	1	-1E+10	1	-1E+10	1	-1E+10	1
4901784	168	C	02/09/2020	10:43	-132.628	43.416	0	257.20	0	7.3880	0	36.2090	8	28.320	0	254.991	0	134.7	4	46.7	4	-1E+10	1	-1E+10	1	-1E+10	1	-1E+10	1	-1E+10	1	-1E+10	1
4901784	168	C	02/09/2020	10:43	-132.628	43.416	0	259.90	0	7.3130	0	36.2120	8	28.333	0	257.666	0	134.6	4	46.6	4	-1E+10	1	-1E+10	1	-1E+10	1	-1E+10	1	-1E+10	1	-1E+10	1
4901784	168	C	02/09/2020	10:43	-132.628	43.416	0	262.50	0	7.2920	0	36.2120	8	28.336	0	260.242	0	133.0	4	46.0	4	-1E+10	1	-1E+10	1	-1E+10	1	-1E+10	1	-1E+10	1	-1E+10	1
4901784	168	C	02/09/2020	10:43	-132.628	43.416	0	265.30	0	7.2220	0	36.2120	8	28.346	0	263.016	0	131.9	4	45.6	4	-1E+10	1	-1E+10	1	-1E+10	1	-1E+10	1	-1E+10	1	-1E+10	1
4901784	168	C	02/09/2020	10:43	-132.628	43.416	0	268.00	0	7.1900	0	36.2110	8	28.350	0	265.691	0	131.1	4	45.3	4	-1E+10	1	-1E+10	1	-1E+10	1	-1E+10	1	-1E+10	1	-1E+10	1
4901784	168	C	02/09/2020	10:43	-132.628	43.416	0	269.80	0	7.1620	0	36.2120	8	28.355	0	267.474	0	130.6	4	45.1	4	-1E+10	1	-1E+10	1	-1E+10	1	-1E+10	1	-1E+10	1	-1E+10	1
4901784	168	C	02/09/2020	10:43	-132.628	43.416	0	272.60	0	7.1390	0	36.2140	8	28.360	0	270.248	0	129.6	4	44.7	4	-1E+10	1	-1E+10	1	-1E+10	1	-1E+10	1	-1E+10	1	-1E+10	1
4901784	168	C	02/09/2020	10:43	-132.628	43.416	0	275.40	0	7.1010	0	36.2160	8	28.367	0	273.022	0	128.5	4	44.3	4	-1E+10	1	-1E+10	1	-1E+10	1	-1E+10	1	-1E+10	1	-1E+10	1
4901784	168	C	02/09/2020	10:43	-132.628	43.416	0	277.20	0	7.0650	0	36.2170	8	28.373	0	274.806	0	127.5	4	43.9	4	-1E+10	1	-1E+10	1	-1E+10	1	-1E+10	1	-1E+10	1	-1E+10	1
4901784	168	C	02/09/2020	10:43	-132.628	43.416	0	280.10	0	7.0180	0	36.2180	8	28.380	0	277.679	0	126.5	4	43.5	4	-1E+10	1	-1E+10	1	-1E+10	1	-1E+10	1	-1E+10	1	-1E+10	1
4901784	168	C	02/09/2020	10:43	-132.628	43.416	0	283.00	0	6.9890	0	36.2180	8	28.385	0	280.552	0	125.5	4	43.2	4	-1E+10	1	-1E+10	1	-1E+10	1	-1E+10	1	-1E+10	1	-1E+10	1
4901784	168	C	02/09/2020	10:43	-132.628	43.416	0	284.80	0	6.9680	0	36.2170	8	28.387	0	282.335	0	124.8	4	42.9	4	-1E+10	1	-1E+10	1	-1E+10	1	-1E+10	1	-1E+10	1	-1E+10	1
4901784	168	C	02/09/2020	10:43	-132.628	43.416	0	287.60	0	6.9080	0	36.2210	8	28.398	0	285.109	0	124.0	4	42.6	4	-1E+10	1	-1E+10	1	-1E+10	1	-1E+10	1	-1E+10	1	-1E+10	1
4901784	168	C	02/09/2020	10:43	-132.628	43.416	0	290.40	0	6.8930	0	36.2190	8	28.399	0	287.882	0	123.1	4	42.2	4	-1E+10	1	-1E+10	1	-1E+10	1	-1E+10	1	-1E+10	1	-1E+10	1
4901784	168	C	02/09/2020	10:43	-132.628	43.416	0	292.30	0	6.8780	0	36.2170	8	28.400	0	289.765	0	122.2	4	41.9	4	-1E+10	1	-1E+10	1	-1E+10	1	-1E+10	1	-1E+10	1	-1E+10	1
4901784	168	C	02/09/2020	10:43	-132.628	43.416	0	295.10	0	6.8190	0	36.2190	8	28.409	0	292.538	0	120.8	4	41.4	4	-1E+10	1	-1E+10	1	-1E+10	1	-1E+10	1	-1E+10	1	-1E+10	1
4901784	168	C	02/09/2020	10:43	-132.628	43.416	0	297.90	0	6.7320	0	36.2230	8	28.425	0	295.312	0	119.5	4	40.8	4	-1E+10	1	-1E+10	1	-1E+10	1	-1E+10	1	-1E+10	1	-1E+10	1
4901784	168	C	02/09/2020	10:43	-132.628	43.416	0	299.90	0	6.6930	0	36.2230	8	28.430	0	297.293	0	119.0	4	40.6	4	-1E+10	1	-1E+10	1	-1E+10	1	-1E+10	1	-1E+10	1	-1E+10	1
4901784	168	C	02/09/2020	10:43	-132.628	43.416	0	302.70	0	6.6550	0	36.2240	8	28.436	0	300.067	0	118.5	4	40.4	4	-1E+10	1	-1E+10	1	-1E+10	1	-1E+10	1	-1E+10	1	-1E+10	1
4901784	168	C	02/09/2020	10:43	-132.628	43.416	0	305.80	0	6.6200	0	36.2240	8	28.441	0	303.138	0	117.9	4	40.2	4	-1E+10	1	-1E+10	1	-1E+10	1	-1E+10	1	-1E+10	1	-1E+10	1
4901784	168	C	02/09/2020	10:43	-132.628	43.416	0	307.20	0	6.6150	0	36.2220	8	28.440	0	304.524	0	117.5	4	40.0	4	-1E+10	1	-1E+10	1	-1E+10	1	-1E+10	1	-1E+10	1	-1E+10	1
4901784	168	C	02/09/2020	10:43	-132.628	43.416	0	310.30	0	6.5560	0	36.2220	8	28.448	0	307.595	0	116.7	4	39.7	4	-1E+10	1	-1E+10	1	-1E+10	1	-1E+10	1	-1E+10	1	-1E+10	1
4901784	168	C	02/09/2020	10:43	-132.628	43.416	0	312.60	0	6.5000	0	36.2220	8	28.456	0	309.873	0	116.3	4	39.5	4	-1E+10	1	-1E+10	1	-1E+10	1	-1E+10	1	-1E+10	1	-1E+10	1
4901784	168	C	02/09/2020	10:43	-132.628	43.416	0	315.10	0	6.4510	0	36.2240	8	28.464	0	312.350	0	115.5	4	39.2	4	-1E+10	1	-1E+10	1	-1E+10	1	-1E+10	1	-1E+10	1	-1E+10	1
4901784	168	C	02/09/2020	10:43	-132.628	43.416	0	317.50	0	6.3940	0	36.2250	8	28.473	0	314.727	0	114.5	4	38.8	4	-1E+10	1	-1E+10	1	-1E+10	1	-1E+10	1	-1E+10	1	-1E+10	1
4901784	168	C	02/09/2020	10:43	-132.628	43.416	0	319.90	0	6.3710	0	36.2220	8	28.474	0	317.104	0	113.4	4	38.4	4	-1E+10	1	-1E+10	1	-1E+10	1	-1E+10	1	-1E+10	1	-1E+10	1
4901784	168	C	02/09/2020	10:43	-132.628	43.416	0	322.40	0	6.2850	0	36.2260	8	28.488	0	319.580	0	112.1	4	37.9	4	-1E+10	1	-1E+10	1	-1E+10	1	-1E+10	1	-1E+10	1	-1E+10	1
4901784	168	C	02/09/2020	10:43	-132.628	43.416	0	324.80	0	6.2590	0	36.2250	8	28.491	0	321.957	0	111.3	4	37.6	4	-1E+10	1	-1E+10	1	-1E+10	1	-1E+10	1	-1E+10	1	-1E+10	1
4901784	168	C	02/09/2020	10:43	-132.628	43.416	0	327.30	0	6.2480	0	36.2250	8	28.493	0	324.434	0	110.1	4	37.2	4	-1E+10	1	-1E+10	1	-1E+10	1	-1E+10	1	-1E+10	1	-1E+10	1
4901784	168	C	02/09/2020	10:43	-132.628	43.416	0	329.80	0	6.2220	0	36.2230	8	28.494	0	326.910	0	108.8	4	36.8	4	-1E+10	1	-1E+10	1	-1E+10	1	-1E+10	1	-1E+10	1	-1E+10	1
4901784	168	C	02/09/2020	10:43	-132.628	43.416	0	332.30	0	6.1690	0	36.2230	8	28.502	0	329.386	0	107.6	4	36.3	4	-1E+10	1	-1E+10	1	-1E+10	1	-1E+10	1	-1E+10	1	-1E+10	1
4901784	168	C	02/09/2020	10:43	-132.628	43.416	0	334.90	0	6.1050	0	36.2270	8	28.513	0	331.961	0	106.3	4	35.8	4	-1E+10	1	-1E+10	1	-1E+10	1	-1E+10	1	-1E+10	1	-1E+10	1
4901784	168	C	02/09/2020	10:43	-132.628	43.416	0	337.50	0	6.0780	0	36.2260	8	28.516	0	334.536	0	105.2	4	35.4	4	-1E+10	1	-1E+10	1	-1E+10	1	-1E+10	1	-1E+10	1	-1E+10	1
4901784	168	C	02/09/2020	10:43	-132.628	43.416	0	340.10	0	6.0540	0	36.2270	8	28.520	0	337.111	0	103.6	4	34.8	4	-1E+10	1	-1E+10	1	-1E+10	1	-1E+10	1	-1E+10	1	-1E+10	1
4901784	168	C	02/09/2020	10:43	-132.628	43.416	0	342.70	0	6.0120	0	36.2270	8	28.526	0	339.686	0	101.7	4	34.2	4	-1E+10	1	-1E+10	1	-1E+10	1	-1E+10	1	-1E+10	1	-1E+10	1
4901784	168	C	02/09/2020	10:43	-132.628	43.416	0	344.50	0	5.9900	0	36.2290	8	28.530	0	341.469	0	100.9	4	33.9	4	-1E+10	1	-1E+10	1	-1E+10	1	-1E+10	1	-1E+10	1	-1E+10	1
4901784	168	C	02/09/2020	10:43	-132.628	43.416	0	347.10	0	5.9570	0	36.2280	8	28.534	0	344.044	0	99.7	4	33.5	4	-1E+10	1	-1E+10	1	-1E+10	1	-1E+10	1	-1E+10	1	-1E+10	1
4901784	168	C	02/09/2020	10:43	-132.628	43.416	0	349.80	0	5.9100	0	36.2300	8	28.541	0	346.718	0	98.5	4	33.0	4	-1E+10	1	-1E+10	1	-1E+10	1	-1E+10	1	-1E+10	1	-1E+10	1
4901784	168	C	02/09/2020	10:43	-132.628	43.416	0	352.40	0	5.8840	0	36.2300	8	28.545	0	349.293	0	97.4	4	32.6	4	-1E+10	1	-1E+10	1	-1E+10	1	-1E+10	1	-1E+10	1	-1E+10	1
4901784	168	C	02/09/2020	10:43	-132.628	43.416	0	355.10	0	5.8530	0	36.2290	8	28.548	0	351.967	0	96.1	4	32.2	4	-1E+10	1	-1E+10	1	-1E+10	1	-1E+10	1	-1E+10	1	-1E+10	1
4901784	168	C	02/09/2020	10:43	-132.628	43.416	0	357.70	0	5.8080	0	36.2300	8	28.555	0	354.541	0	94.8	4	31.7	4	-1E+10	1	-1E+10	1	-1E+10	1	-1E+10	1	-1E+10	1	-1E+10	1
4901784	168	C	02/09/2020	10:43	-132.628	43.416	0	360.40	0	5.7830	0	36.2290	8	28.557	0	357.215	0	93.3	4	31.2	4	-1E+10	1	-1E+10	1	-1E+10	1	-1E+10	1	-1E+10	1	-1E+10	1
4901784	168	C	02/09/2020	10:43	-132.628	43.416	0	362.20	0	5.7470	0	36.2300	8	28.562	0	358.998	0	92.2	4	30.8	4	-1E+10	1	-1E+10	1	-1E+10	1	-1E+10	1	-1E+10	1	-1E+10	1
4901784	168	C	02/09/2020	10:43	-132.628	43.416	0	364.90	0	5.6810	0	36.2360	8	28.576	0	361.672	0	90.8	4	30.3	4	-1E+10	1	-1E+10	1	-1E+10	1	-1E+10	1	-1E+10	1	-1E+10	1
4901784	168	C	02/09/2020	10:43	-132.628	43.416	0	367.60	0	5.6590	0	36.2370	8	28.579	0	364.345	0	90.0	4	30.0	4	-1E+10	1	-1E+10	1	-1E+10	1	-1E+10	1	-1E+10	1	-1E+10	1
4901784	168	C	02/09/2020	10:43	-132.628	43.416	0	369.50	0	5.6540	0	36.2360	8	28.579	0	366.227	0	89.6	4	29.9	4	-1E+10	1	-1E+10	1	-1E+10	1	-1E+10	1	-1E+10	1	-1E+10	1
4901784	168	C	02/09/2020	10:43	-132.628	43.416	0	372.30	0	5.6420	0	36.2360	8	28.581	0	369.000	0	88.6	4	29.5	4	-1E+10	1	-1E+10	1	-1E+10	1	-1E+10	1	-1E+10	1	-1E+10	1
4901784	168	C	02/09/2020	10:43	-132.628	43.416	0	375.10	0	5.6110	0	36.2370	8	28.585	0	371.772	0	87.5	4	29.1	4	-1E+10	1	-1E+10	1	-1E+10	1	-1E+10	1	-1E+10	1	-1E+10	1
4901784	168	C	02/09/2020	10:43	-132.628	43.416	0	376.90	0	5.5750	0	36.2370	8	28.590	0	373.555	0	86.9	4	28.9	4	-1E+10	1	-1E+10	1	-1E+10	1	-1E+10	1	-1E+10	1	-1E+10	1
4901784	168	C	02/09/2020	10:43	-132.628	43.416	0	379.70	0	5.5250	0	36.2380	8	28.597	0	376.327	0	86.0	4	28.6	4	-1E+10	1	-1E+10	1	-1E+10	1	-1E+10	1	-1E+10	1	-1E+10	1
4901784	168	C	02/09/2020	10:43	-132.628	43.416	0	382.50	0	5.5000	0	36.2380	8	28.600	0	379.100	0	85.0	4	28.2	4	-1E+10	1	-1E+10	1	-1E+10	1	-1E+10	1	-1E+10	1	-1E+10	1
4901784	168	C	02/09/2020	10:43	-132.628	43.416	0	385.20	0	5.4640	0	36.2400	8	28.606	0	381.773	0	84.0	4	27.9	4	-1E+10	1	-1E+10	1	-1E+10	1	-1E+10	1	-1E+10	1	-1E+10	1
4901784	168	C	02/09/2020	10:43	-132.628	43.416	0	388.00	0	5.4200	0	36.2430	8	28.614	0	384.546	0	83.2	4	27.6	4	-1E+10	1	-1E+10	1	-1E+10	1	-1E+10	1	-1E+10	1	-1E+10	1
4901784	168	C	02/09/2020	10:43	-132.628	43.416	0	389.90	0	5.3990	0	36.2450	8	28.618	0	386.427	0	82.9	4	27.5	4	-1E+10	1	-1E+10	1	-1E+10	1	-1E+10	1	-1E+10	1	-1E+10	1
4901784	168	C	02/09/2020	10:43	-132.628	43.416	0	392.70	0	5.3760	0	36.2470	8	28.623	0	389.200	0	82.5	4	27.3	4	-1E+10	1	-1E+10	1	-1E+10	1	-1E+10	1	-1E+10	1	-1E+10	1
4901784	168	C	02/09/2020	10:43	-132.628	43.416	0	395.50	0	5.3710	0	36.2470	8	28.623	0	391.972	0	82.0	4	27.2	4	-1E+10	1	-1E+10	1	-1E+10	1	-1E+10	1	-1E+10	1	-1E+10	1
4901784	168	C	02/09/2020	10:43	-132.628	43.416	0	397.40	0	5.3690	0	36.2460	8	28.623	0	393.853	0	81.6	4	27.0	4	-1E+10	1	-1E+10	1	-1E+10	1	-1E+10	1	-1E+10	1	-1E+10	1
4901784	168	C	02/09/2020	10:43	-132.628	43.416	0	400.20	0	5.3560	0	36.2470	8	28.625	0	396.626	0	80.8	4	26.8	4	-1E+10	1	-1E+10	1	-1E+10	1	-1E+10	1	-1E+10	1	-1E+10	1
4901784	168	C	02/09/2020	10:43	-132.628	43.416	0	403.10	0	5.3290	0	36.2460	8	28.628	0	399.497	0	80.0	4	26.5	4	-1E+10	1	-1E+10	1	-1E+10	1	-1E+10	1	-1E+10	1	-1E+10	1
4901784	168	C	02/09/2020	10:43	-132.628	43.416	0	405.00	0	5.3050	0	36.2490	8	28.633	0	401.378	0	79.5	4	26.3	4	-1E+10	1	-1E+10	1	-1E+10	1	-1E+10	1	-1E+10	1	-1E+10	1
4901784	168	C	02/09/2020	10:43	-132.628	43.416	0	406.80	0	5.2730	0	36.2510	8	28.639	0	403.160	0	78.9	4	26.1	4	-1E+10	1	-1E+10	1	-1E+10	1	-1E+10	1	-1E+10	1	-1E+10	1
4901784	168	C	02/09/2020	10:43	-132.628	43.416	0	409.70	0	5.2530	0	36.2530	8	28.643	0	406.031	0	78.4	4	25.9	4	-1E+10	1	-1E+10	1	-1E+10	1	-1E+10	1	-1E+10	1	-1E+10	1
4901784	168	C	02/09/2020	10:43	-132.628	43.416	0	412.60	0	5.2470	0	36.2510	8	28.642	0	408.903	0	77.6	4	25.6	4	-1E+10	1	-1E+10	1	-1E+10	1	-1E+10	1	-1E+10	1	-1E+10	1
4901784	168	C	02/09/2020	10:43	-132.628	43.416	0	414.50	0	5.2290	0	36.2530	8	28.646	0	410.784	0	76.9	4	25.4	4	-1E+10	1	-1E+10	1	-1E+10	1	-1E+10	1	-1E+10	1	-1E+10	1
4901784	168	C	02/09/2020	10:43	-132.628	43.416	0	417.40	0	5.1900	0	36.2580	8	28.655	0	413.655	0	76.1	4	25.1	4	-1E+10	1	-1E+10	1	-1E+10	1	-1E+10	1	-1E+10	1	-1E+10	1
4901784	168	C	02/09/2020	10:43	-132.628	43.416	0	420.30	0	5.1790	0	36.2580	8	28.656	0	416.526	0	75.4	4	24.9	4	-1E+10	1	-1E+10	1	-1E+10	1	-1E+10	1	-1E+10	1	-1E+10	1
4901784	168	C	02/09/2020	10:43	-132.628	43.416	0	422.20	0	5.1730	0	36.2580	8	28.657	0	418.407	0	74.8	4	24.7	4	-1E+10	1	-1E+10	1	-1E+10	1	-1E+10	1	-1E+10	1	-1E+10	1
4901784	168	C	02/09/2020	10:43	-132.628	43.416	0	425.20	0	5.1550	0	36.2600	8	28.660	0	421.377	0	73.8	4	24.3	4	-1E+10	1	-1E+10	1	-1E+10	1	-1E+10	1	-1E+10	1	-1E+10	1
4901784	168	C	02/09/2020	10:43	-132.628	43.416	0	428.00	0	5.1280	0	36.2630	8	28.666	0	424.149	0	72.8	4	24.0	4	-1E+10	1	-1E+10	1	-1E+10	1	-1E+10	1	-1E+10	1	-1E+10	1
4901784	168	C	02/09/2020	10:43	-132.628	43.416	0	430.00	0	5.1110	0	36.2650	8	28.670	0	426.129	0	72.1	4	23.7	4	-1E+10	1	-1E+10	1	-1E+10	1	-1E+10	1	-1E+10	1	-1E+10	1
4901784	168	C	02/09/2020	10:43	-132.628	43.416	0	431.90	0	5.0950	0	36.2660	8	28.673	0	428.010	0	71.5	4	23.5	4	-1E+10	1	-1E+10	1	-1E+10	1	-1E+10	1	-1E+10	1	-1E+10	1
4901784	168	C	02/09/2020	10:43	-132.628	43.416	0	434.80	0	5.0750	0	36.2680	8	28.677	0	430.881	0	70.4	4	23.1	4	-1E+10	1	-1E+10	1	-1E+10	1	-1E+10	1	-1E+10	1	-1E+10	1
4901784	168	C	02/09/2020	10:43	-132.628	43.416	0	437.70	0	5.0550	0	36.2700	8	28.681	0	433.751	0	69.2	4	22.8	4	-1E+10	1	-1E+10	1	-1E+10	1	-1E+10	1	-1E+10	1	-1E+10	1
4901784	168	C	02/09/2020	10:43	-132.628	43.416	0	439.70	0	5.0310	0	36.2740	8	28.687	0	435.731	0	68.3	4	22.4	4	-1E+10	1	-1E+10	1	-1E+10	1	-1E+10	1	-1E+10	1	-1E+10	1
4901784	168	C	02/09/2020	10:43	-132.628	43.416	0	442.70	0	5.0060	0	36.2760	8	28.691	0	438.701	0	67.1	4	22.1	4	-1E+10	1	-1E+10	1	-1E+10	1	-1E+10	1	-1E+10	1	-1E+10	1
4901784	168	C	02/09/2020	10:43	-132.628	43.416	0	445.60	0	4.9660	0	36.2830	8	28.702	0	441.572	0	66.2	4	21.7	4	-1E+10	1	-1E+10	1	-1E+10	1	-1E+10	1	-1E+10	1	-1E+10	1
4901784	168	C	02/09/2020	10:43	-132.628	43.416	0	447.50	0	4.9500	0	36.2850	8	28.705	0	443.453	0	65.8	4	21.6	4	-1E+10	1	-1E+10	1	-1E+10	1	-1E+10	1	-1E+10	1	-1E+10	1
4901784	168	C	02/09/2020	10:43	-132.628	43.416	0	449.40	0	4.9390	0	36.2870	8	28.708	0	445.333	0	65.5	4	21.5	4	-1E+10	1	-1E+10	1	-1E+10	1	-1E+10	1	-1E+10	1	-1E+10	1
4901784	168	C	02/09/2020	10:43	-132.628	43.416	0	452.20	0	4.9240	0	36.2870	8	28.710	0	448.105	0	65.1	4	21.3	4	-1E+10	1	-1E+10	1	-1E+10	1	-1E+10	1	-1E+10	1	-1E+10	1
4901784	168	C	02/09/2020	10:43	-132.628	43.416	0	455.10	0	4.9050	0	36.2890	8	28.714	0	450.976	0	64.4	4	21.1	4	-1E+10	1	-1E+10	1	-1E+10	1	-1E+10	1	-1E+10	1	-1E+10	1
4901784	168	C	02/09/2020	10:43	-132.628	43.416	0	457.10	0	4.9000	0	36.2910	8	28.716	0	452.955	0	63.9	4	21.0	4	-1E+10	1	-1E+10	1	-1E+10	1	-1E+10	1	-1E+10	1	-1E+10	1
4901784	168	C	02/09/2020	10:43	-132.628	43.416	0	460.00	0	4.8950	0	36.2920	8	28.717	0	455.826	0	63.2	4	20.7	4	-1E+10	1	-1E+10	1	-1E+10	1	-1E+10	1	-1E+10	1	-1E+10	1
4901784	168	C	02/09/2020	10:43	-132.628	43.416	0	463.00	0	4.8850	0	36.2930	8	28.719	0	458.795	0	62.2	4	20.4	4	-1E+10	1	-1E+10	1	-1E+10	1	-1E+10	1	-1E+10	1	-1E+10	1
4901784	168	C	02/09/2020	10:43	-132.628	43.416	0	464.90	0	4.8610	0	36.2980	8	28.726	0	460.676	0	61.7	4	20.2	4	-1E+10	1	-1E+10	1	-1E+10	1	-1E+10	1	-1E+10	1	-1E+10	1
4901784	168	C	02/09/2020	10:43	-132.628	43.416	0	467.80	0	4.8540	0	36.3000	8	28.729	0	463.546	0	60.9	4	20.0	4	-1E+10	1	-1E+10	1	-1E+10	1	-1E+10	1	-1E+10	1	-1E+10	1
4901784	168	C	02/09/2020	10:43	-132.628	43.416	0	470.70	0	4.8480	0	36.3010	8	28.730	0	466.417	0	60.0	4	19.6	4	-1E+10	1	-1E+10	1	-1E+10	1	-1E+10	1	-1E+10	1	-1E+10	1
4901784	168	C	02/09/2020	10:43	-132.628	43.416	0	472.60	0	4.8410	0	36.3020	8	28.732	0	468.297	0	59.2	4	19.4	4	-1E+10	1	-1E+10	1	-1E+10	1	-1E+10	1	-1E+10	1	-1E+10	1
4901784	168	C	02/09/2020	10:43	-132.628	43.416	0	474.60	0	4.8370	0	36.3050	8	28.735	0	470.277	0	58.4	4	19.1	4	-1E+10	1	-1E+10	1	-1E+10	1	-1E+10	1	-1E+10	1	-1E+10	1
4901784	168	C	02/09/2020	10:43	-132.628	43.416	0	477.50	0	4.8230	0	36.3120	8	28.742	0	473.147	0	57.1	4	18.7	4	-1E+10	1	-1E+10	1	-1E+10	1	-1E+10	1	-1E+10	1	-1E+10	1
4901784	168	C	02/09/2020	10:43	-132.628	43.416	0	480.40	0	4.8060	0	36.3180	8	28.749	0	476.017	0	56.2	4	18.4	4	-1E+10	1	-1E+10	1	-1E+10	1	-1E+10	1	-1E+10	1	-1E+10	1
4901784	168	C	02/09/2020	10:43	-132.628	43.416	0	482.30	0	4.7910	0	36.3200	8	28.752	0	477.898	0	55.6	4	18.2	4	-1E+10	1	-1E+10	1	-1E+10	1	-1E+10	1	-1E+10	1	-1E+10	1
4901784	168	C	02/09/2020	10:43	-132.628	43.416	0	485.20	0	4.8060	0	36.3230	8	28.753	0	480.768	0	55.0	4	18.0	4	-1E+10	1	-1E+10	1	-1E+10	1	-1E+10	1	-1E+10	1	-1E+10	1
4901784	168	C	02/09/2020	10:43	-132.628	43.416	0	488.10	0	4.7970	0	36.3250	8	28.755	0	483.638	0	54.5	4	17.8	4	-1E+10	1	-1E+10	1	-1E+10	1	-1E+10	1	-1E+10	1	-1E+10	1
4901784	168	C	02/09/2020	10:43	-132.628	43.416	0	490.00	0	4.7870	0	36.3240	8	28.756	0	485.519	0	54.1	4	17.7	4	-1E+10	1	-1E+10	1	-1E+10	1	-1E+10	1	-1E+10	1	-1E+10	1
4901784	168	C	02/09/2020	10:43	-132.628	43.416	0	491.90	0	4.7760	0	36.3250	8	28.758	0	487.399	0	53.6	4	17.5	4	-1E+10	1	-1E+10	1	-1E+10	1	-1E+10	1	-1E+10	1	-1E+10	1
4901784	168	C	02/09/2020	10:43	-132.628	43.416	0	494.80	0	4.7650	0	36.3260	8	28.760	0	490.269	0	52.9	4	17.3	4	-1E+10	1	-1E+10	1	-1E+10	1	-1E+10	1	-1E+10	1	-1E+10	1
4901784	168	C	02/09/2020	10:43	-132.628	43.416	0	497.70	0	4.7610	0	36.3270	8	28.761	0	493.139	0	52.0	4	17.0	4	-1E+10	1	-1E+10	1	-1E+10	1	-1E+10	1	-1E+10	1	-1E+10	1
4901784	168	C	02/09/2020	10:43	-132.628	43.416	0	499.70	0	4.7560	0	36.3290	8	28.763	0	495.118	0	51.4	4	16.8	4	-1E+10	1	-1E+10	1	-1E+10	1	-1E+10	1	-1E+10	1	-1E+10	1
4901784	168	C	02/09/2020	10:43	-132.628	43.416	0	504.70	0	4.7330	0	36.3350	8	28.771	0	500.066	0	49.6	4	16.2	4	-1E+10	1	-1E+10	1	-1E+10	1	-1E+10	1	-1E+10	1	-1E+10	1
4901784	168	C	02/09/2020	10:43	-132.628	43.416	0	509.60	0	4.7100	0	36.3420	8	28.779	0	504.915	0	47.9	4	15.6	4	-1E+10	1	-1E+10	1	-1E+10	1	-1E+10	1	-1E+10	1	-1E+10	1
4901784	168	C	02/09/2020	10:43	-132.628	43.416	0	514.40	0	4.6950	0	36.3470	8	28.785	0	509.665	0	46.2	4	15.1	4	-1E+10	1	-1E+10	1	-1E+10	1	-1E+10	1	-1E+10	1	-1E+10	1
4901784	168	C	02/09/2020	10:43	-132.628	43.416	0	519.20	0	4.6750	0	36.3580	8	28.796	0	514.415	0	44.4	4	14.5	4	-1E+10	1	-1E+10	1	-1E+10	1	-1E+10	1	-1E+10	1	-1E+10	1
4901784	168	C	02/09/2020	10:43	-132.628	43.416	0	524.60	0	4.6310	0	36.3640	8	28.806	0	519.759	0	43.1	4	14.0	4	-1E+10	1	-1E+10	1	-1E+10	1	-1E+10	1	-1E+10	1	-1E+10	1
4901784	168	C	02/09/2020	10:43	-132.628	43.416	0	529.50	0	4.6230	0	36.3690	8	28.811	0	524.607	0	41.4	4	13.5	4	-1E+10	1	-1E+10	1	-1E+10	1	-1E+10	1	-1E+10	1	-1E+10	1
4901784	168	C	02/09/2020	10:43	-132.628	43.416	0	534.50	0	4.6160	0	36.3760	8	28.817	0	529.555	0	39.3	4	12.8	4	-1E+10	1	-1E+10	1	-1E+10	1	-1E+10	1	-1E+10	1	-1E+10	1
4901784	168	C	02/09/2020	10:43	-132.628	43.416	0	539.50	0	4.5960	0	36.3870	8	28.828	0	534.502	0	37.6	4	12.2	4	-1E+10	1	-1E+10	1	-1E+10	1	-1E+10	1	-1E+10	1	-1E+10	1
4901784	168	C	02/09/2020	10:43	-132.628	43.416	0	544.70	0	4.5810	0	36.3920	8	28.834	0	539.647	0	36.1	4	11.7	4	-1E+10	1	-1E+10	1	-1E+10	1	-1E+10	1	-1E+10	1	-1E+10	1
4901784	168	C	02/09/2020	10:43	-132.628	43.416	0	549.90	0	4.5800	0	36.4010	8	28.841	0	544.792	0	34.3	4	11.2	4	-1E+10	1	-1E+10	1	-1E+10	1	-1E+10	1	-1E+10	1	-1E+10	1
4901784	168	C	02/09/2020	10:43	-132.628	43.416	0	554.90	0	4.5580	0	36.4100	8	28.851	0	549.739	0	32.7	4	10.6	4	-1E+10	1	-1E+10	1	-1E+10	1	-1E+10	1	-1E+10	1	-1E+10	1
4901784	168	C	02/09/2020	10:43	-132.628	43.416	0	560.10	0	4.5490	0	36.4170	8	28.858	0	554.884	0	30.9	4	10.1	4	-1E+10	1	-1E+10	1	-1E+10	1	-1E+10	1	-1E+10	1	-1E+10	1
4901784	168	C	02/09/2020	10:43	-132.628	43.416	0	565.40	0	4.5930	0	36.4330	8	28.866	0	560.127	0	28.6	4	9.3	4	-1E+10	1	-1E+10	1	-1E+10	1	-1E+10	1	-1E+10	1	-1E+10	1
4901784	168	C	02/09/2020	10:43	-132.628	43.416	0	570.60	0	4.6220	0	36.4420	8	28.869	0	565.272	0	27.7	4	9.0	4	-1E+10	1	-1E+10	1	-1E+10	1	-1E+10	1	-1E+10	1	-1E+10	1
4901784	168	C	02/09/2020	10:43	-132.628	43.416	0	575.00	0	4.5860	0	36.4410	8	28.873	0	569.625	0	27.6	4	9.0	4	-1E+10	1	-1E+10	1	-1E+10	1	-1E+10	1	-1E+10	1	-1E+10	1
4901784	168	C	02/09/2020	10:43	-132.628	43.416	0	579.50	0	4.5630	0	36.4460	8	28.879	0	574.076	0	27.0	4	8.8	4	-1E+10	1	-1E+10	1	-1E+10	1	-1E+10	1	-1E+10	1	-1E+10	1
4901784	168	C	02/09/2020	10:43	-132.628	43.416	0	584.90	0	4.5620	0	36.4480	8	28.881	0	579.418	0	26.7	4	8.7	4	-1E+10	1	-1E+10	1	-1E+10	1	-1E+10	1	-1E+10	1	-1E+10	1
4901784	168	C	02/09/2020	10:43	-132.628	43.416	0	590.10	0	4.4780	0	36.4480	8	28.891	0	584.562	0	26.7	4	8.7	4	-1E+10	1	-1E+10	1	-1E+10	1	-1E+10	1	-1E+10	1	-1E+10	1
4901784	168	C	02/09/2020	10:43	-132.628	43.416	0	595.40	0	4.4520	0	36.4490	8	28.895	0	589.805	0	26.1	4	8.5	4	-1E+10	1	-1E+10	1	-1E+10	1	-1E+10	1	-1E+10	1	-1E+10	1
4901784	168	C	02/09/2020	10:43	-132.628	43.416	0	599.90	0	4.4340	0	36.4520	8	28.899	0	594.256	0	25.5	4	8.3	4	-1E+10	1	-1E+10	1	-1E+10	1	-1E+10	1	-1E+10	1	-1E+10	1
4901784	168	C	02/09/2020	10:43	-132.628	43.416	0	604.30	0	4.4010	0	36.4560	8	28.906	0	598.609	0	24.9	4	8.1	4	-1E+10	1	-1E+10	1	-1E+10	1	-1E+10	1	-1E+10	1	-1E+10	1
4901784	168	C	02/09/2020	10:43	-132.628	43.416	0	609.70	0	4.3810	0	36.4610	8	28.912	0	603.950	0	24.2	4	7.8	4	-1E+10	1	-1E+10	1	-1E+10	1	-1E+10	1	-1E+10	1	-1E+10	1
4901784	168	C	02/09/2020	10:43	-132.628	43.416	0	615.10	0	4.3520	0	36.4660	8	28.920	0	609.291	0	23.4	4	7.6	4	-1E+10	1	-1E+10	1	-1E+10	1	-1E+10	1	-1E+10	1	-1E+10	1
4901784	168	C	02/09/2020	10:43	-132.628	43.416	0	620.50	0	4.3280	0	36.4730	8	28.928	0	614.632	0	22.6	4	7.3	4	-1E+10	1	-1E+10	1	-1E+10	1	-1E+10	1	-1E+10	1	-1E+10	1
4901784	168	C	02/09/2020	10:43	-132.628	43.416	0	625.00	0	4.3210	0	36.4780	8	28.933	0	619.083	0	22.1	4	7.2	4	-1E+10	1	-1E+10	1	-1E+10	1	-1E+10	1	-1E+10	1	-1E+10	1
4901784	168	C	02/09/2020	10:43	-132.628	43.416	0	629.50	0	4.2980	0	36.4810	8	28.938	0	623.534	0	21.7	4	7.0	4	-1E+10	1	-1E+10	1	-1E+10	1	-1E+10	1	-1E+10	1	-1E+10	1
4901784	168	C	02/09/2020	10:43	-132.628	43.416	0	634.90	0	4.2770	0	36.4850	8	28.943	0	628.874	0	21.2	4	6.8	4	-1E+10	1	-1E+10	1	-1E+10	1	-1E+10	1	-1E+10	1	-1E+10	1
4901784	168	C	02/09/2020	10:43	-132.628	43.416	0	640.50	0	4.2530	0	36.4910	8	28.951	0	634.413	0	20.6	4	6.7	4	-1E+10	1	-1E+10	1	-1E+10	1	-1E+10	1	-1E+10	1	-1E+10	1
4901784	168	C	02/09/2020	10:43	-132.628	43.416	0	645.20	0	4.2360	0	36.4980	8	28.958	0	639.061	0	20.2	4	6.5	4	-1E+10	1	-1E+10	1	-1E+10	1	-1E+10	1	-1E+10	1	-1E+10	1
4901784	168	C	02/09/2020	10:43	-132.628	43.416	0	650.00	0	4.2360	0	36.4990	8	28.959	0	643.808	0	19.9	4	6.4	4	-1E+10	1	-1E+10	1	-1E+10	1	-1E+10	1	-1E+10	1	-1E+10	1
4901784	168	C	02/09/2020	10:43	-132.628	43.416	0	654.70	0	4.2420	0	36.5000	8	28.959	0	648.456	0	19.4	4	6.3	4	-1E+10	1	-1E+10	1	-1E+10	1	-1E+10	1	-1E+10	1	-1E+10	1
4901784	168	C	02/09/2020	10:43	-132.628	43.416	0	659.40	0	4.2470	0	36.5080	8	28.965	0	653.103	0	18.8	4	6.1	4	-1E+10	1	-1E+10	1	-1E+10	1	-1E+10	1	-1E+10	1	-1E+10	1
4901784	168	C	02/09/2020	10:43	-132.628	43.416	0	665.00	0	4.2450	0	36.5160	8	28.972	0	658.641	0	18.0	4	5.8	4	-1E+10	1	-1E+10	1	-1E+10	1	-1E+10	1	-1E+10	1	-1E+10	1
4901784	168	C	02/09/2020	10:43	-132.628	43.416	0	669.80	0	4.2390	0	36.5240	8	28.979	0	663.387	0	17.7	4	5.7	4	-1E+10	1	-1E+10	1	-1E+10	1	-1E+10	1	-1E+10	1	-1E+10	1
4901784	168	C	02/09/2020	10:43	-132.628	43.416	0	674.50	0	4.2390	0	36.5250	8	28.980	0	668.035	0	17.5	4	5.7	4	-1E+10	1	-1E+10	1	-1E+10	1	-1E+10	1	-1E+10	1	-1E+10	1
4901784	168	C	02/09/2020	10:43	-132.628	43.416	0	680.20	0	4.2050	0	36.5270	8	28.985	0	673.671	0	17.3	4	5.6	4	-1E+10	1	-1E+10	1	-1E+10	1	-1E+10	1	-1E+10	1	-1E+10	1
4901784	168	C	02/09/2020	10:43	-132.628	43.416	0	685.60	0	4.1970	0	36.5320	8	28.990	0	679.010	0	16.9	4	5.5	4	-1E+10	1	-1E+10	1	-1E+10	1	-1E+10	1	-1E+10	1	-1E+10	1
4901784	168	C	02/09/2020	10:43	-132.628	43.416	0	690.50	0	4.1990	0	36.5360	8	28.993	0	683.855	0	16.5	4	5.3	4	-1E+10	1	-1E+10	1	-1E+10	1	-1E+10	1	-1E+10	1	-1E+10	1
4901784	168	C	02/09/2020	10:43	-132.628	43.416	0	695.40	0	4.1880	0	36.5410	8	28.998	0	688.700	0	16.2	4	5.2	4	-1E+10	1	-1E+10	1	-1E+10	1	-1E+10	1	-1E+10	1	-1E+10	1
4901784	168	C	02/09/2020	10:43	-132.628	43.416	0	700.40	0	4.1670	0	36.5460	8	29.005	0	693.644	0	15.9	4	5.1	4	-1E+10	1	-1E+10	1	-1E+10	1	-1E+10	1	-1E+10	1	-1E+10	1
4901784	168	C	02/09/2020	10:43	-132.628	43.416	0	705.30	0	4.1590	0	36.5490	8	29.008	0	698.488	0	15.6	4	5.0	4	-1E+10	1	-1E+10	1	-1E+10	1	-1E+10	1	-1E+10	1	-1E+10	1
4901784	168	C	02/09/2020	10:43	-132.628	43.416	0	710.30	0	4.1420	0	36.5550	8	29.015	0	703.431	0	15.4	4	5.0	4	-1E+10	1	-1E+10	1	-1E+10	1	-1E+10	1	-1E+10	1	-1E+10	1
4901784	168	C	02/09/2020	10:43	-132.628	43.416	0	715.30	0	4.1290	0	36.5560	8	29.017	0	708.375	0	15.3	4	4.9	4	-1E+10	1	-1E+10	1	-1E+10	1	-1E+10	1	-1E+10	1	-1E+10	1
4901784	168	C	02/09/2020	10:43	-132.628	43.416	0	720.40	0	4.1050	0	36.5590	8	29.022	0	713.417	0	15.1	4	4.9	4	-1E+10	1	-1E+10	1	-1E+10	1	-1E+10	1	-1E+10	1	-1E+10	1
4901784	168	C	02/09/2020	10:43	-132.628	43.416	0	725.60	0	4.0920	0	36.5610	8	29.025	0	718.557	0	14.8	4	4.8	4	-1E+10	1	-1E+10	1	-1E+10	1	-1E+10	1	-1E+10	1	-1E+10	1
4901784	168	C	02/09/2020	10:43	-132.628	43.416	0	730.00	0	4.0600	0	36.5660	8	29.032	0	722.907	0	14.6	4	4.7	4	-1E+10	1	-1E+10	1	-1E+10	1	-1E+10	1	-1E+10	1	-1E+10	1
4901784	168	C	02/09/2020	10:43	-132.628	43.416	0	734.30	0	4.0550	0	36.5680	8	29.035	0	727.158	0	14.4	4	4.6	4	-1E+10	1	-1E+10	1	-1E+10	1	-1E+10	1	-1E+10	1	-1E+10	1
4901784	168	C	02/09/2020	10:43	-132.628	43.416	0	739.50	0	4.0350	0	36.5740	8	29.042	0	732.298	0	14.0	4	4.5	4	-1E+10	1	-1E+10	1	-1E+10	1	-1E+10	1	-1E+10	1	-1E+10	1
4901784	168	C	02/09/2020	10:43	-132.628	43.416	0	744.70	0	4.0190	0	36.5800	8	29.048	0	737.438	0	13.7	4	4.4	4	-1E+10	1	-1E+10	1	-1E+10	1	-1E+10	1	-1E+10	1	-1E+10	1
4901784	168	C	02/09/2020	10:43	-132.628	43.416	0	749.90	0	3.9910	0	36.5840	8	29.054	0	742.578	0	13.5	4	4.3	4	-1E+10	1	-1E+10	1	-1E+10	1	-1E+10	1	-1E+10	1	-1E+10	1
4901784	168	C	02/09/2020	10:43	-132.628	43.416	0	755.20	0	3.9650	0	36.5910	8	29.063	0	747.817	0	13.3	4	4.3	4	-1E+10	1	-1E+10	1	-1E+10	1	-1E+10	1	-1E+10	1	-1E+10	1
4901784	168	C	02/09/2020	10:43	-132.628	43.416	0	760.50	0	3.9540	0	36.5950	8	29.067	0	753.055	0	13.2	4	4.2	4	-1E+10	1	-1E+10	1	-1E+10	1	-1E+10	1	-1E+10	1	-1E+10	1
4901784	168	C	02/09/2020	10:43	-132.628	43.416	0	765.70	0	3.9470	0	36.5980	8	29.070	0	758.195	0	13.0	4	4.2	4	-1E+10	1	-1E+10	1	-1E+10	1	-1E+10	1	-1E+10	1	-1E+10	1
4901784	168	C	02/09/2020	10:43	-132.628	43.416	0	770.10	0	3.9460	0	36.6000	8	29.072	0	762.544	0	13.0	4	4.2	4	-1E+10	1	-1E+10	1	-1E+10	1	-1E+10	1	-1E+10	1	-1E+10	1
4901784	168	C	02/09/2020	10:43	-132.628	43.416	0	774.50	0	3.9400	0	36.6020	8	29.074	0	766.893	0	12.8	4	4.1	4	-1E+10	1	-1E+10	1	-1E+10	1	-1E+10	1	-1E+10	1	-1E+10	1
4901784	168	C	02/09/2020	10:43	-132.628	43.416	0	779.80	0	3.9280	0	36.6060	8	29.079	0	772.131	0	12.7	4	4.1	4	-1E+10	1	-1E+10	1	-1E+10	1	-1E+10	1	-1E+10	1	-1E+10	1
4901784	168	C	02/09/2020	10:43	-132.628	43.416	0	785.10	0	3.9200	0	36.6100	8	29.083	0	777.369	0	12.6	4	4.0	4	-1E+10	1	-1E+10	1	-1E+10	1	-1E+10	1	-1E+10	1	-1E+10	1
4901784	168	C	02/09/2020	10:43	-132.628	43.416	0	790.50	0	3.9120	0	36.6130	8	29.086	0	782.706	0	12.4	4	4.0	4	-1E+10	1	-1E+10	1	-1E+10	1	-1E+10	1	-1E+10	1	-1E+10	1
4901784	168	C	02/09/2020	10:43	-132.628	43.416	0	794.90	0	3.9030	0	36.6170	8	29.091	0	787.054	0	12.3	4	3.9	4	-1E+10	1	-1E+10	1	-1E+10	1	-1E+10	1	-1E+10	1	-1E+10	1
4901784	168	C	02/09/2020	10:43	-132.628	43.416	0	799.30	0	3.8990	0	36.6190	8	29.093	0	791.402	0	12.1	4	3.9	4	-1E+10	1	-1E+10	1	-1E+10	1	-1E+10	1	-1E+10	1	-1E+10	1
4901784	168	C	02/09/2020	10:43	-132.628	43.416	0	804.70	0	3.8840	0	36.6240	8	29.098	0	796.739	0	12.0	4	3.8	4	-1E+10	1	-1E+10	1	-1E+10	1	-1E+10	1	-1E+10	1	-1E+10	1
4901784	168	C	02/09/2020	10:43	-132.628	43.416	0	810.00	0	3.8710	0	36.6290	8	29.104	0	801.976	0	11.8	4	3.8	4	-1E+10	1	-1E+10	1	-1E+10	1	-1E+10	1	-1E+10	1	-1E+10	1
4901784	168	C	02/09/2020	10:43	-132.628	43.416	0	815.40	0	3.8540	0	36.6350	8	29.110	0	807.312	0	11.6	4	3.7	4	-1E+10	1	-1E+10	1	-1E+10	1	-1E+10	1	-1E+10	1	-1E+10	1
4901784	168	C	02/09/2020	10:43	-132.628	43.416	0	819.90	0	3.8410	0	36.6410	8	29.116	0	811.759	0	11.5	4	3.7	4	-1E+10	1	-1E+10	1	-1E+10	1	-1E+10	1	-1E+10	1	-1E+10	1
4901784	168	C	02/09/2020	10:43	-132.628	43.416	0	824.40	0	3.8310	0	36.6450	8	29.121	0	816.205	0	11.4	4	3.7	4	-1E+10	1	-1E+10	1	-1E+10	1	-1E+10	1	-1E+10	1	-1E+10	1
4901784	168	C	02/09/2020	10:43	-132.628	43.416	0	829.70	0	3.8290	0	36.6460	8	29.122	0	821.442	0	11.3	4	3.6	4	-1E+10	1	-1E+10	1	-1E+10	1	-1E+10	1	-1E+10	1	-1E+10	1
4901784	168	C	02/09/2020	10:43	-132.628	43.416	0	835.10	0	3.8220	0	36.6480	8	29.124	0	826.778	0	11.2	4	3.6	4	-1E+10	1	-1E+10	1	-1E+10	1	-1E+10	1	-1E+10	1	-1E+10	1
4901784	168	C	02/09/2020	10:43	-132.628	43.416	0	840.60	0	3.8050	0	36.6560	8	29.132	0	832.212	0	11.0	4	3.5	4	-1E+10	1	-1E+10	1	-1E+10	1	-1E+10	1	-1E+10	1	-1E+10	1
4901784	168	C	02/09/2020	10:43	-132.628	43.416	0	845.10	0	3.7920	0	36.6630	8	29.139	0	836.658	0	10.9	4	3.5	4	-1E+10	1	-1E+10	1	-1E+10	1	-1E+10	1	-1E+10	1	-1E+10	1
4901784	168	C	02/09/2020	10:43	-132.628	43.416	0	849.60	0	3.7810	0	36.6670	8	29.144	0	841.104	0	10.8	4	3.5	4	-1E+10	1	-1E+10	1	-1E+10	1	-1E+10	1	-1E+10	1	-1E+10	1
4901784	168	C	02/09/2020	10:43	-132.628	43.416	0	855.00	0	3.7700	0	36.6700	8	29.147	0	846.439	0	10.7	4	3.4	4	-1E+10	1	-1E+10	1	-1E+10	1	-1E+10	1	-1E+10	1	-1E+10	1
4901784	168	C	02/09/2020	10:43	-132.628	43.416	0	860.50	0	3.7610	0	36.6740	8	29.152	0	851.873	0	10.7	4	3.4	4	-1E+10	1	-1E+10	1	-1E+10	1	-1E+10	1	-1E+10	1	-1E+10	1
4901784	168	C	02/09/2020	10:43	-132.628	43.416	0	865.10	0	3.7540	0	36.6750	8	29.153	0	856.417	0	10.7	4	3.4	4	-1E+10	1	-1E+10	1	-1E+10	1	-1E+10	1	-1E+10	1	-1E+10	1
4901784	168	C	02/09/2020	10:43	-132.628	43.416	0	869.70	0	3.7450	0	36.6780	8	29.157	0	860.962	0	10.6	4	3.4	4	-1E+10	1	-1E+10	1	-1E+10	1	-1E+10	1	-1E+10	1	-1E+10	1
4901784	168	C	02/09/2020	10:43	-132.628	43.416	0	875.20	0	3.7330	0	36.6800	8	29.159	0	866.395	0	10.6	4	3.4	4	-1E+10	1	-1E+10	1	-1E+10	1	-1E+10	1	-1E+10	1	-1E+10	1
4901784	168	C	02/09/2020	10:43	-132.628	43.416	0	879.80	0	3.7250	0	36.6820	8	29.162	0	870.939	0	10.5	4	3.4	4	-1E+10	1	-1E+10	1	-1E+10	1	-1E+10	1	-1E+10	1	-1E+10	1
4901784	168	C	02/09/2020	10:43	-132.628	43.416	0	884.60	0	3.7080	0	36.6870	8	29.168	0	875.681	0	10.4	4	3.3	4	-1E+10	1	-1E+10	1	-1E+10	1	-1E+10	1	-1E+10	1	-1E+10	1
4901784	168	C	02/09/2020	10:43	-132.628	43.416	0	890.20	0	3.6920	0	36.6930	8	29.174	0	881.212	0	10.3	4	3.3	4	-1E+10	1	-1E+10	1	-1E+10	1	-1E+10	1	-1E+10	1	-1E+10	1
4901784	168	C	02/09/2020	10:43	-132.628	43.416	0	894.90	0	3.6820	0	36.6970	8	29.179	0	885.855	0	10.3	4	3.3	4	-1E+10	1	-1E+10	1	-1E+10	1	-1E+10	1	-1E+10	1	-1E+10	1
4901784	168	C	02/09/2020	10:43	-132.628	43.416	0	900.30	0	3.6760	0	36.7010	8	29.182	0	891.189	0	10.3	4	3.3	4	-1E+10	1	-1E+10	1	-1E+10	1	-1E+10	1	-1E+10	1	-1E+10	1
4901784	168	C	02/09/2020	10:43	-132.628	43.416	0	905.30	0	3.6690	0	36.7030	8	29.185	0	896.128	0	10.2	4	3.3	4	-1E+10	1	-1E+10	1	-1E+10	1	-1E+10	1	-1E+10	1	-1E+10	1
4901784	168	C	02/09/2020	10:43	-132.628	43.416	0	910.20	0	3.6580	0	36.7060	8	29.188	0	900.967	0	10.2	4	3.3	4	-1E+10	1	-1E+10	1	-1E+10	1	-1E+10	1	-1E+10	1	-1E+10	1
4901784	168	C	02/09/2020	10:43	-132.628	43.416	0	915.00	0	3.6530	0	36.7070	8	29.190	0	905.708	0	10.2	4	3.3	4	-1E+10	1	-1E+10	1	-1E+10	1	-1E+10	1	-1E+10	1	-1E+10	1
4901784	168	C	02/09/2020	10:43	-132.628	43.416	0	920.00	0	3.6380	0	36.7130	8	29.196	0	910.647	0	10.2	4	3.2	4	-1E+10	1	-1E+10	1	-1E+10	1	-1E+10	1	-1E+10	1	-1E+10	1
4901784	168	C	02/09/2020	10:43	-132.628	43.416	0	924.90	0	3.6200	0	36.7180	8	29.202	0	915.486	0	10.2	4	3.2	4	-1E+10	1	-1E+10	1	-1E+10	1	-1E+10	1	-1E+10	1	-1E+10	1
4901784	168	C	02/09/2020	10:43	-132.628	43.416	0	929.80	0	3.6110	0	36.7210	8	29.205	0	920.326	0	10.1	4	3.2	4	-1E+10	1	-1E+10	1	-1E+10	1	-1E+10	1	-1E+10	1	-1E+10	1
4901784	168	C	02/09/2020	10:43	-132.628	43.416	0	934.80	0	3.6070	0	36.7230	8	29.207	0	925.264	0	10.1	4	3.2	4	-1E+10	1	-1E+10	1	-1E+10	1	-1E+10	1	-1E+10	1	-1E+10	1
4901784	168	C	02/09/2020	10:43	-132.628	43.416	0	939.80	0	3.6010	0	36.7270	8	29.211	0	930.201	0	10.1	4	3.2	4	-1E+10	1	-1E+10	1	-1E+10	1	-1E+10	1	-1E+10	1	-1E+10	1
4901784	168	C	02/09/2020	10:43	-132.628	43.416	0	944.80	0	3.5870	0	36.7310	8	29.216	0	935.139	0	10.2	4	3.2	4	-1E+10	1	-1E+10	1	-1E+10	1	-1E+10	1	-1E+10	1	-1E+10	1
4901784	168	C	02/09/2020	10:43	-132.628	43.416	0	949.80	0	3.5730	0	36.7350	8	29.221	0	940.077	0	10.2	4	3.2	4	-1E+10	1	-1E+10	1	-1E+10	1	-1E+10	1	-1E+10	1	-1E+10	1
4901784	168	C	02/09/2020	10:43	-132.628	43.416	0	954.80	0	3.5640	0	36.7370	8	29.223	0	945.014	0	10.2	4	3.2	4	-1E+10	1	-1E+10	1	-1E+10	1	-1E+10	1	-1E+10	1	-1E+10	1
4901784	168	C	02/09/2020	10:43	-132.628	43.416	0	959.80	0	3.5550	0	36.7390	8	29.226	0	949.952	0	10.2	4	3.3	4	-1E+10	1	-1E+10	1	-1E+10	1	-1E+10	1	-1E+10	1	-1E+10	1
4901784	168	C	02/09/2020	10:43	-132.628	43.416	0	964.90	0	3.5310	0	36.7420	8	29.231	0	954.988	0	10.3	4	3.3	4	-1E+10	1	-1E+10	1	-1E+10	1	-1E+10	1	-1E+10	1	-1E+10	1
4901784	168	C	02/09/2020	10:43	-132.628	43.416	0	970.10	0	3.5220	0	36.7450	8	29.234	0	960.123	0	10.3	4	3.3	4	-1E+10	1	-1E+10	1	-1E+10	1	-1E+10	1	-1E+10	1	-1E+10	1
4901784	168	C	02/09/2020	10:43	-132.628	43.416	0	975.20	0	3.5120	0	36.7480	8	29.237	0	965.158	0	10.3	4	3.3	4	-1E+10	1	-1E+10	1	-1E+10	1	-1E+10	1	-1E+10	1	-1E+10	1
4901784	168	C	02/09/2020	10:43	-132.628	43.416	0	980.40	0	3.5020	0	36.7530	8	29.242	0	970.293	0	10.3	4	3.3	4	-1E+10	1	-1E+10	1	-1E+10	1	-1E+10	1	-1E+10	1	-1E+10	1
4901784	168	C	02/09/2020	10:43	-132.628	43.416	0	985.60	0	3.5000	0	36.7560	8	29.245	0	975.427	0	10.4	4	3.3	4	-1E+10	1	-1E+10	1	-1E+10	1	-1E+10	1	-1E+10	1	-1E+10	1
4901784	168	C	02/09/2020	10:43	-132.628	43.416	0	990.70	0	3.4820	0	36.7590	8	29.249	0	980.463	0	10.4	4	3.3	4	-1E+10	1	-1E+10	1	-1E+10	1	-1E+10	1	-1E+10	1	-1E+10	1
4901784	168	C	02/09/2020	10:43	-132.628	43.416	0	995.00	0	3.4730	0	36.7640	8	29.254	0	984.708	0	10.5	4	3.3	4	-1E+10	1	-1E+10	1	-1E+10	1	-1E+10	1	-1E+10	1	-1E+10	1
4901784	168	C	02/09/2020	10:43	-132.628	43.416	0	999.50	0	3.4640	0	36.7670	8	29.258	0	989.151	0	10.5	4	3.3	4	-1E+10	1	-1E+10	1	-1E+10	1	-1E+10	1	-1E+10	1	-1E+10	1
4901784	168	C	02/09/2020	10:43	-132.628	43.416	0	1004.90	0	3.4560	0	36.7710	8	29.262	0	994.482	0	10.6	4	3.4	4	-1E+10	1	-1E+10	1	-1E+10	1	-1E+10	1	-1E+10	1	-1E+10	1
4901784	168	C	02/09/2020	10:43	-132.628	43.416	0	1010.30	0	3.4450	0	36.7740	8	29.265	0	999.813	0	10.6	4	3.4	4	-1E+10	1	-1E+10	1	-1E+10	1	-1E+10	1	-1E+10	1	-1E+10	1
4901784	168	C	02/09/2020	10:43	-132.628	43.416	0	1014.90	0	3.4420	0	36.7760	8	29.267	0	1004.355	0	10.7	4	3.4	4	-1E+10	1	-1E+10	1	-1E+10	1	-1E+10	1	-1E+10	1	-1E+10	1
4901784	168	C	02/09/2020	10:43	-132.628	43.416	0	1020.00	0	3.4300	0	36.7790	8	29.271	0	1009.389	0	10.8	4	3.4	4	-1E+10	1	-1E+10	1	-1E+10	1	-1E+10	1	-1E+10	1	-1E+10	1
4901784	168	C	02/09/2020	10:43	-132.628	43.416	0	1025.50	0	3.4220	0	36.7820	8	29.274	0	1014.819	0	10.8	4	3.4	4	-1E+10	1	-1E+10	1	-1E+10	1	-1E+10	1	-1E+10	1	-1E+10	1
4901784	168	C	02/09/2020	10:43	-132.628	43.416	0	1030.20	0	3.4200	0	36.7830	8	29.275	0	1019.458	0	10.8	4	3.4	4	-1E+10	1	-1E+10	1	-1E+10	1	-1E+10	1	-1E+10	1	-1E+10	1
4901784	168	C	02/09/2020	10:43	-132.628	43.416	0	1035.00	0	3.4090	0	36.7850	8	29.278	0	1024.197	0	10.9	4	3.5	4	-1E+10	1	-1E+10	1	-1E+10	1	-1E+10	1	-1E+10	1	-1E+10	1
4901784	168	C	02/09/2020	10:43	-132.628	43.416	0	1039.80	0	3.3960	0	36.7880	8	29.282	0	1028.935	0	11.0	4	3.5	4	-1E+10	1	-1E+10	1	-1E+10	1	-1E+10	1	-1E+10	1	-1E+10	1
4901784	168	C	02/09/2020	10:43	-132.628	43.416	0	1044.60	0	3.3960	0	36.7890	8	29.283	0	1033.673	0	11.0	4	3.5	4	-1E+10	1	-1E+10	1	-1E+10	1	-1E+10	1	-1E+10	1	-1E+10	1
4901784	168	C	02/09/2020	10:43	-132.628	43.416	0	1049.60	0	3.3910	0	36.7910	8	29.285	0	1038.608	0	11.1	4	3.5	4	-1E+10	1	-1E+10	1	-1E+10	1	-1E+10	1	-1E+10	1	-1E+10	1
4901784	168	C	02/09/2020	10:43	-132.628	43.416	0	1054.60	0	3.3820	0	36.7930	8	29.287	0	1043.543	0	11.2	4	3.5	4	-1E+10	1	-1E+10	1	-1E+10	1	-1E+10	1	-1E+10	1	-1E+10	1
4901784	168	C	02/09/2020	10:43	-132.628	43.416	0	1059.60	0	3.3640	0	36.7960	8	29.291	0	1048.478	0	11.3	4	3.6	4	-1E+10	1	-1E+10	1	-1E+10	1	-1E+10	1	-1E+10	1	-1E+10	1
4901784	168	C	02/09/2020	10:43	-132.628	43.416	0	1064.60	0	3.3500	0	36.8010	8	29.297	0	1053.413	0	11.3	4	3.6	4	-1E+10	1	-1E+10	1	-1E+10	1	-1E+10	1	-1E+10	1	-1E+10	1
4901784	168	C	02/09/2020	10:43	-132.628	43.416	0	1069.70	0	3.3440	0	36.8030	8	29.299	0	1058.447	0	11.4	4	3.6	4	-1E+10	1	-1E+10	1	-1E+10	1	-1E+10	1	-1E+10	1	-1E+10	1
4901784	168	C	02/09/2020	10:43	-132.628	43.416	0	1074.80	0	3.3390	0	36.8040	8	29.300	0	1063.480	0	11.4	4	3.6	4	-1E+10	1	-1E+10	1	-1E+10	1	-1E+10	1	-1E+10	1	-1E+10	1
4901784	168	C	02/09/2020	10:43	-132.628	43.416	0	1079.90	0	3.3360	0	36.8050	8	29.302	0	1068.514	0	11.5	4	3.7	4	-1E+10	1	-1E+10	1	-1E+10	1	-1E+10	1	-1E+10	1	-1E+10	1
4901784	168	C	02/09/2020	10:43	-132.628	43.416	0	1085.30	0	3.3220	0	36.8080	8	29.305	0	1073.843	0	11.6	4	3.7	4	-1E+10	1	-1E+10	1	-1E+10	1	-1E+10	1	-1E+10	1	-1E+10	1
4901784	168	C	02/09/2020	10:43	-132.628	43.416	0	1089.70	0	3.3090	0	36.8100	8	29.308	0	1078.185	0	11.8	4	3.7	4	-1E+10	1	-1E+10	1	-1E+10	1	-1E+10	1	-1E+10	1	-1E+10	1
4901784	168	C	02/09/2020	10:43	-132.628	43.416	0	1094.40	0	3.2890	0	36.8140	8	29.314	0	1082.823	0	12.0	4	3.8	4	-1E+10	1	-1E+10	1	-1E+10	1	-1E+10	1	-1E+10	1	-1E+10	1
4901784	168	C	02/09/2020	10:43	-132.628	43.416	0	1100.10	0	3.2770	0	36.8160	8	29.316	0	1088.448	0	12.1	4	3.8	4	-1E+10	1	-1E+10	1	-1E+10	1	-1E+10	1	-1E+10	1	-1E+10	1
4901784	168	C	02/09/2020	10:43	-132.628	43.416	0	1104.90	0	3.2680	0	36.8180	8	29.319	0	1093.185	0	12.1	4	3.8	4	-1E+10	1	-1E+10	1	-1E+10	1	-1E+10	1	-1E+10	1	-1E+10	1
4901784	168	C	02/09/2020	10:43	-132.628	43.416	0	1109.60	0	3.2570	0	36.8210	8	29.323	0	1097.823	0	12.2	4	3.9	4	-1E+10	1	-1E+10	1	-1E+10	1	-1E+10	1	-1E+10	1	-1E+10	1
4901784	168	C	02/09/2020	10:43	-132.628	43.416	0	1115.30	0	3.2470	0	36.8240	8	29.326	0	1103.447	0	12.3	4	3.9	4	-1E+10	1	-1E+10	1	-1E+10	1	-1E+10	1	-1E+10	1	-1E+10	1
4901784	168	C	02/09/2020	10:43	-132.628	43.416	0	1120.10	0	3.2390	0	36.8250	8	29.328	0	1108.184	0	12.4	4	3.9	4	-1E+10	1	-1E+10	1	-1E+10	1	-1E+10	1	-1E+10	1	-1E+10	1
4901784	168	C	02/09/2020	10:43	-132.628	43.416	0	1124.80	0	3.2300	0	36.8270	8	29.330	0	1112.821	0	12.5	4	4.0	4	-1E+10	1	-1E+10	1	-1E+10	1	-1E+10	1	-1E+10	1	-1E+10	1
4901784	168	C	02/09/2020	10:43	-132.628	43.416	0	1129.60	0	3.2190	0	36.8280	8	29.332	0	1117.557	0	12.6	4	4.0	4	-1E+10	1	-1E+10	1	-1E+10	1	-1E+10	1	-1E+10	1	-1E+10	1
4901784	168	C	02/09/2020	10:43	-132.628	43.416	0	1134.50	0	3.2110	0	36.8290	8	29.334	0	1122.392	0	12.7	4	4.0	4	-1E+10	1	-1E+10	1	-1E+10	1	-1E+10	1	-1E+10	1	-1E+10	1
4901784	168	C	02/09/2020	10:43	-132.628	43.416	0	1140.30	0	3.1920	0	36.8340	8	29.340	0	1128.115	0	12.9	4	4.1	4	-1E+10	1	-1E+10	1	-1E+10	1	-1E+10	1	-1E+10	1	-1E+10	1
4901784	168	C	02/09/2020	10:43	-132.628	43.416	0	1145.20	0	3.1780	0	36.8370	8	29.343	0	1132.949	0	13.1	4	4.1	4	-1E+10	1	-1E+10	1	-1E+10	1	-1E+10	1	-1E+10	1	-1E+10	1
4901784	168	C	02/09/2020	10:43	-132.628	43.416	0	1150.10	0	3.1670	0	36.8390	8	29.346	0	1137.783	0	13.2	4	4.2	4	-1E+10	1	-1E+10	1	-1E+10	1	-1E+10	1	-1E+10	1	-1E+10	1
4901784	168	C	02/09/2020	10:43	-132.628	43.416	0	1155.10	0	3.1560	0	36.8410	8	29.349	0	1142.716	0	13.4	4	4.2	4	-1E+10	1	-1E+10	1	-1E+10	1	-1E+10	1	-1E+10	1	-1E+10	1
4901784	168	C	02/09/2020	10:43	-132.628	43.416	0	1160.10	0	3.1410	0	36.8440	8	29.353	0	1147.649	0	13.5	4	4.3	4	-1E+10	1	-1E+10	1	-1E+10	1	-1E+10	1	-1E+10	1	-1E+10	1
4901784	168	C	02/09/2020	10:43	-132.628	43.416	0	1165.00	0	3.1320	0	36.8450	8	29.354	0	1152.483	0	13.6	4	4.3	4	-1E+10	1	-1E+10	1	-1E+10	1	-1E+10	1	-1E+10	1	-1E+10	1
4901784	168	C	02/09/2020	10:43	-132.628	43.416	0	1170.00	0	3.1150	0	36.8480	8	29.359	0	1157.415	0	13.7	4	4.3	4	-1E+10	1	-1E+10	1	-1E+10	1	-1E+10	1	-1E+10	1	-1E+10	1
4901784	168	C	02/09/2020	10:43	-132.628	43.416	0	1175.10	0	3.1070	0	36.8500	8	29.361	0	1162.446	0	13.8	4	4.4	4	-1E+10	1	-1E+10	1	-1E+10	1	-1E+10	1	-1E+10	1	-1E+10	1
4901784	168	C	02/09/2020	10:43	-132.628	43.416	0	1180.10	0	3.0980	0	36.8510	8	29.363	0	1167.379	0	14.0	4	4.4	4	-1E+10	1	-1E+10	1	-1E+10	1	-1E+10	1	-1E+10	1	-1E+10	1
4901784	168	C	02/09/2020	10:43	-132.628	43.416	0	1185.20	0	3.0880	0	36.8530	8	29.365	0	1172.409	0	14.1	4	4.4	4	-1E+10	1	-1E+10	1	-1E+10	1	-1E+10	1	-1E+10	1	-1E+10	1
4901784	168	C	02/09/2020	10:43	-132.628	43.416	0	1190.30	0	3.0710	0	36.8540	8	29.368	0	1177.440	0	14.3	4	4.5	4	-1E+10	1	-1E+10	1	-1E+10	1	-1E+10	1	-1E+10	1	-1E+10	1
4901784	168	C	02/09/2020	10:43	-132.628	43.416	0	1195.30	0	3.0500	0	36.8580	8	29.373	0	1182.372	0	14.5	4	4.6	4	-1E+10	1	-1E+10	1	-1E+10	1	-1E+10	1	-1E+10	1	-1E+10	1
4901784	168	C	02/09/2020	10:43	-132.628	43.416	0	1199.40	0	3.0440	0	36.8590	8	29.374	0	1186.416	0	14.6	4	4.6	4	-1E+10	1	-1E+10	1	-1E+10	1	-1E+10	1	-1E+10	1	-1E+10	1
4901784	168	C	02/09/2020	10:43	-132.628	43.416	0	1204.60	0	3.0300	0	36.8610	8	29.377	0	1191.545	0	14.7	4	4.6	4	-1E+10	1	-1E+10	1	-1E+10	1	-1E+10	1	-1E+10	1	-1E+10	1
4901784	168	C	02/09/2020	10:43	-132.628	43.416	0	1209.70	0	3.0230	0	36.8620	8	29.379	0	1196.575	0	14.8	4	4.7	4	-1E+10	1	-1E+10	1	-1E+10	1	-1E+10	1	-1E+10	1	-1E+10	1
4901784	168	C	02/09/2020	10:43	-132.628	43.416	0	1215.00	0	3.0140	0	36.8640	8	29.381	0	1201.803	0	15.0	4	4.7	4	-1E+10	1	-1E+10	1	-1E+10	1	-1E+10	1	-1E+10	1	-1E+10	1
4901784	168	C	02/09/2020	10:43	-132.628	43.416	0	1220.20	0	3.0090	0	36.8650	8	29.383	0	1206.931	0	15.1	4	4.8	4	-1E+10	1	-1E+10	1	-1E+10	1	-1E+10	1	-1E+10	1	-1E+10	1
4901784	168	C	02/09/2020	10:43	-132.628	43.416	0	1224.90	0	2.9940	0	36.8670	8	29.386	0	1211.567	0	15.3	4	4.8	4	-1E+10	1	-1E+10	1	-1E+10	1	-1E+10	1	-1E+10	1	-1E+10	1
4901784	168	C	02/09/2020	10:43	-132.628	43.416	0	1229.30	0	2.9770	0	36.8700	8	29.390	0	1215.906	0	15.5	4	4.9	4	-1E+10	1	-1E+10	1	-1E+10	1	-1E+10	1	-1E+10	1	-1E+10	1
4901784	168	C	02/09/2020	10:43	-132.628	43.416	0	1234.20	0	2.9670	0	36.8720	8	29.393	0	1220.739	0	15.7	4	4.9	4	-1E+10	1	-1E+10	1	-1E+10	1	-1E+10	1	-1E+10	1	-1E+10	1
4901784	168	C	02/09/2020	10:43	-132.628	43.416	0	1240.00	0	2.9540	0	36.8740	8	29.395	0	1226.458	0	15.9	4	5.0	4	-1E+10	1	-1E+10	1	-1E+10	1	-1E+10	1	-1E+10	1	-1E+10	1
4901784	168	C	02/09/2020	10:43	-132.628	43.416	0	1245.80	0	2.9390	0	36.8770	8	29.399	0	1232.178	0	16.2	4	5.1	4	-1E+10	1	-1E+10	1	-1E+10	1	-1E+10	1	-1E+10	1	-1E+10	1
4901784	168	C	02/09/2020	10:43	-132.628	43.416	0	1250.80	0	2.9260	0	36.8800	8	29.403	0	1237.109	0	16.3	4	5.1	4	-1E+10	1	-1E+10	1	-1E+10	1	-1E+10	1	-1E+10	1	-1E+10	1
4901784	168	C	02/09/2020	10:43	-132.628	43.416	0	1254.90	0	2.9170	0	36.8820	8	29.405	0	1241.152	0	16.4	4	5.2	4	-1E+10	1	-1E+10	1	-1E+10	1	-1E+10	1	-1E+10	1	-1E+10	1
4901784	168	C	02/09/2020	10:43	-132.628	43.416	0	1259.20	0	2.9090	0	36.8830	8	29.407	0	1245.392	0	16.6	4	5.2	4	-1E+10	1	-1E+10	1	-1E+10	1	-1E+10	1	-1E+10	1	-1E+10	1
4901784	168	C	02/09/2020	10:43	-132.628	43.416	0	1264.30	0	2.8960	0	36.8850	8	29.410	0	1250.421	0	16.8	4	5.3	4	-1E+10	1	-1E+10	1	-1E+10	1	-1E+10	1	-1E+10	1	-1E+10	1
4901784	168	C	02/09/2020	10:43	-132.628	43.416	0	1269.40	0	2.8830	0	36.8880	8	29.414	0	1255.450	0	17.1	4	5.4	4	-1E+10	1	-1E+10	1	-1E+10	1	-1E+10	1	-1E+10	1	-1E+10	1
4901784	168	C	02/09/2020	10:43	-132.628	43.416	0	1274.60	0	2.8730	0	36.8890	8	29.415	0	1260.577	0	17.3	4	5.4	4	-1E+10	1	-1E+10	1	-1E+10	1	-1E+10	1	-1E+10	1	-1E+10	1
4901784	168	C	02/09/2020	10:43	-132.628	43.416	0	1279.70	0	2.8620	0	36.8910	8	29.418	0	1265.606	0	17.5	4	5.5	4	-1E+10	1	-1E+10	1	-1E+10	1	-1E+10	1	-1E+10	1	-1E+10	1
4901784	168	C	02/09/2020	10:43	-132.628	43.416	0	1285.00	0	2.8520	0	36.8930	8	29.421	0	1270.831	0	17.6	4	5.5	4	-1E+10	1	-1E+10	1	-1E+10	1	-1E+10	1	-1E+10	1	-1E+10	1
4901784	168	C	02/09/2020	10:43	-132.628	43.416	0	1290.20	0	2.8430	0	36.8940	8	29.422	0	1275.958	0	17.8	4	5.6	4	-1E+10	1	-1E+10	1	-1E+10	1	-1E+10	1	-1E+10	1	-1E+10	1
4901784	168	C	02/09/2020	10:43	-132.628	43.416	0	1295.50	0	2.8350	0	36.8960	8	29.425	0	1281.184	0	18.0	4	5.6	4	-1E+10	1	-1E+10	1	-1E+10	1	-1E+10	1	-1E+10	1	-1E+10	1
4901784	168	C	02/09/2020	10:43	-132.628	43.416	0	1300.70	0	2.8260	0	36.8970	8	29.426	0	1286.310	0	18.3	4	5.7	4	-1E+10	1	-1E+10	1	-1E+10	1	-1E+10	1	-1E+10	1	-1E+10	1
4901784	168	C	02/09/2020	10:43	-132.628	43.416	0	1305.20	0	2.8190	0	36.8990	8	29.429	0	1290.747	0	18.5	4	5.8	4	-1E+10	1	-1E+10	1	-1E+10	1	-1E+10	1	-1E+10	1	-1E+10	1
4901784	168	C	02/09/2020	10:43	-132.628	43.416	0	1309.60	0	2.8120	0	36.9000	8	29.430	0	1295.084	0	18.7	4	5.8	4	-1E+10	1	-1E+10	1	-1E+10	1	-1E+10	1	-1E+10	1	-1E+10	1
4901784	168	C	02/09/2020	10:43	-132.628	43.416	0	1315.00	0	2.8080	0	36.9020	8	29.432	0	1300.408	0	18.9	4	5.9	4	-1E+10	1	-1E+10	1	-1E+10	1	-1E+10	1	-1E+10	1	-1E+10	1
4901784	168	C	02/09/2020	10:43	-132.628	43.416	0	1320.30	0	2.8010	0	36.9040	8	29.435	0	1305.633	0	19.1	4	6.0	4	-1E+10	1	-1E+10	1	-1E+10	1	-1E+10	1	-1E+10	1	-1E+10	1
4901784	168	C	02/09/2020	10:43	-132.628	43.416	0	1324.90	0	2.7950	0	36.9060	8	29.437	0	1310.167	0	19.3	4	6.0	4	-1E+10	1	-1E+10	1	-1E+10	1	-1E+10	1	-1E+10	1	-1E+10	1
4901784	168	C	02/09/2020	10:43	-132.628	43.416	0	1329.40	0	2.7900	0	36.9060	8	29.437	0	1314.603	0	19.4	4	6.1	4	-1E+10	1	-1E+10	1	-1E+10	1	-1E+10	1	-1E+10	1	-1E+10	1
4901784	168	C	02/09/2020	10:43	-132.628	43.416	0	1335.00	0	2.7830	0	36.9070	8	29.439	0	1320.123	0	19.6	4	6.1	4	-1E+10	1	-1E+10	1	-1E+10	1	-1E+10	1	-1E+10	1	-1E+10	1
4901784	168	C	02/09/2020	10:43	-132.628	43.416	0	1340.60	0	2.7720	0	36.9090	8	29.441	0	1325.643	0	19.9	4	6.2	4	-1E+10	1	-1E+10	1	-1E+10	1	-1E+10	1	-1E+10	1	-1E+10	1
4901784	168	C	02/09/2020	10:43	-132.628	43.416	0	1345.20	0	2.7640	0	36.9120	8	29.445	0	1330.177	0	20.1	4	6.3	4	-1E+10	1	-1E+10	1	-1E+10	1	-1E+10	1	-1E+10	1	-1E+10	1
4901784	168	C	02/09/2020	10:43	-132.628	43.416	0	1350.50	0	2.7600	0	36.9130	8	29.446	0	1335.402	0	20.2	4	6.3	4	-1E+10	1	-1E+10	1	-1E+10	1	-1E+10	1	-1E+10	1	-1E+10	1
4901784	168	C	02/09/2020	10:43	-132.628	43.416	0	1355.60	0	2.7550	0	36.9140	8	29.447	0	1340.428	0	20.4	4	6.4	4	-1E+10	1	-1E+10	1	-1E+10	1	-1E+10	1	-1E+10	1	-1E+10	1
4901784	168	C	02/09/2020	10:43	-132.628	43.416	0	1360.30	0	2.7430	0	36.9150	8	29.449	0	1345.061	0	20.7	4	6.5	4	-1E+10	1	-1E+10	1	-1E+10	1	-1E+10	1	-1E+10	1	-1E+10	1
4901784	168	C	02/09/2020	10:43	-132.628	43.416	0	1365.20	0	2.7300	0	36.9170	8	29.452	0	1349.890	0	20.9	4	6.5	4	-1E+10	1	-1E+10	1	-1E+10	1	-1E+10	1	-1E+10	1	-1E+10	1
4901784	168	C	02/09/2020	10:43	-132.628	43.416	0	1370.00	0	2.7240	0	36.9180	8	29.453	0	1354.621	0	21.0	4	6.6	4	-1E+10	1	-1E+10	1	-1E+10	1	-1E+10	1	-1E+10	1	-1E+10	1
4901784	168	C	02/09/2020	10:43	-132.628	43.416	0	1374.80	0	2.7200	0	36.9190	8	29.455	0	1359.352	0	21.1	4	6.6	4	-1E+10	1	-1E+10	1	-1E+10	1	-1E+10	1	-1E+10	1	-1E+10	1
4901784	168	C	02/09/2020	10:43	-132.628	43.416	0	1379.70	0	2.7160	0	36.9200	8	29.456	0	1364.181	0	21.3	4	6.7	4	-1E+10	1	-1E+10	1	-1E+10	1	-1E+10	1	-1E+10	1	-1E+10	1
4901784	168	C	02/09/2020	10:43	-132.628	43.416	0	1384.70	0	2.7120	0	36.9220	8	29.458	0	1369.108	0	21.6	4	6.8	4	-1E+10	1	-1E+10	1	-1E+10	1	-1E+10	1	-1E+10	1	-1E+10	1
4901784	168	C	02/09/2020	10:43	-132.628	43.416	0	1389.60	0	2.7040	0	36.9230	8	29.459	0	1373.937	0	21.9	4	6.8	4	-1E+10	1	-1E+10	1	-1E+10	1	-1E+10	1	-1E+10	1	-1E+10	1
4901784	168	C	02/09/2020	10:43	-132.628	43.416	0	1394.60	0	2.6890	0	36.9250	8	29.462	0	1378.864	0	22.3	4	7.0	4	-1E+10	1	-1E+10	1	-1E+10	1	-1E+10	1	-1E+10	1	-1E+10	1
4901784	168	C	02/09/2020	10:43	-132.628	43.416	0	1399.60	0	2.6780	0	36.9270	8	29.465	0	1383.792	0	22.6	4	7.1	4	-1E+10	1	-1E+10	1	-1E+10	1	-1E+10	1	-1E+10	1	-1E+10	1
4901784	168	C	02/09/2020	10:43	-132.628	43.416	0	1404.60	0	2.6690	0	36.9290	8	29.467	0	1388.719	0	22.8	4	7.1	4	-1E+10	1	-1E+10	1	-1E+10	1	-1E+10	1	-1E+10	1	-1E+10	1
4901784	168	C	02/09/2020	10:43	-132.628	43.416	0	1409.60	0	2.6590	0	36.9310	8	29.470	0	1393.646	0	23.1	4	7.2	4	-1E+10	1	-1E+10	1	-1E+10	1	-1E+10	1	-1E+10	1	-1E+10	1
4901784	168	C	02/09/2020	10:43	-132.628	43.416	0	1414.70	0	2.6540	0	36.9320	8	29.471	0	1398.671	0	23.4	4	7.3	4	-1E+10	1	-1E+10	1	-1E+10	1	-1E+10	1	-1E+10	1	-1E+10	1
4901784	168	C	02/09/2020	10:43	-132.628	43.416	0	1419.90	0	2.6430	0	36.9340	8	29.474	0	1403.795	0	23.7	4	7.4	4	-1E+10	1	-1E+10	1	-1E+10	1	-1E+10	1	-1E+10	1	-1E+10	1
4901784	168	C	02/09/2020	10:43	-132.628	43.416	0	1425.00	0	2.6350	0	36.9350	8	29.476	0	1408.820	0	23.9	4	7.4	4	-1E+10	1	-1E+10	1	-1E+10	1	-1E+10	1	-1E+10	1	-1E+10	1
4901784	168	C	02/09/2020	10:43	-132.628	43.416	0	1430.10	0	2.6280	0	36.9360	8	29.477	0	1413.845	0	24.1	4	7.5	4	-1E+10	1	-1E+10	1	-1E+10	1	-1E+10	1	-1E+10	1	-1E+10	1
4901784	168	C	02/09/2020	10:43	-132.628	43.416	0	1435.20	0	2.6170	0	36.9370	8	29.479	0	1418.870	0	24.4	4	7.6	4	-1E+10	1	-1E+10	1	-1E+10	1	-1E+10	1	-1E+10	1	-1E+10	1
4901784	168	C	02/09/2020	10:43	-132.628	43.416	0	1440.30	0	2.6090	0	36.9390	8	29.481	0	1423.895	0	24.7	4	7.7	4	-1E+10	1	-1E+10	1	-1E+10	1	-1E+10	1	-1E+10	1	-1E+10	1
4901784	168	C	02/09/2020	10:43	-132.628	43.416	0	1445.50	0	2.5970	0	36.9400	8	29.483	0	1429.018	0	25.1	4	7.8	4	-1E+10	1	-1E+10	1	-1E+10	1	-1E+10	1	-1E+10	1	-1E+10	1
4901784	168	C	02/09/2020	10:43	-132.628	43.416	0	1450.60	0	2.5840	0	36.9420	8	29.486	0	1434.042	0	25.4	4	7.9	4	-1E+10	1	-1E+10	1	-1E+10	1	-1E+10	1	-1E+10	1	-1E+10	1
4901784	168	C	02/09/2020	10:43	-132.628	43.416	0	1455.80	0	2.5720	0	36.9440	8	29.489	0	1439.165	0	25.7	4	8.0	4	-1E+10	1	-1E+10	1	-1E+10	1	-1E+10	1	-1E+10	1	-1E+10	1
4901784	168	C	02/09/2020	10:43	-132.628	43.416	0	1460.00	0	2.5610	0	36.9450	8	29.491	0	1443.303	0	25.9	4	8.1	4	-1E+10	1	-1E+10	1	-1E+10	1	-1E+10	1	-1E+10	1	-1E+10	1
4901784	168	C	02/09/2020	10:43	-132.628	43.416	0	1464.30	0	2.5550	0	36.9460	8	29.492	0	1447.539	0	26.1	4	8.1	4	-1E+10	1	-1E+10	1	-1E+10	1	-1E+10	1	-1E+10	1	-1E+10	1
4901784	168	C	02/09/2020	10:43	-132.628	43.416	0	1469.30	0	2.5460	0	36.9480	8	29.494	0	1452.465	0	26.4	4	8.2	4	-1E+10	1	-1E+10	1	-1E+10	1	-1E+10	1	-1E+10	1	-1E+10	1
4901784	168	C	02/09/2020	10:43	-132.628	43.416	0	1474.40	0	2.5400	0	36.9490	8	29.496	0	1457.489	0	26.7	4	8.3	4	-1E+10	1	-1E+10	1	-1E+10	1	-1E+10	1	-1E+10	1	-1E+10	1
4901784	168	C	02/09/2020	10:43	-132.628	43.416	0	1479.60	0	2.5320	0	36.9500	8	29.497	0	1462.611	0	27.0	4	8.4	4	-1E+10	1	-1E+10	1	-1E+10	1	-1E+10	1	-1E+10	1	-1E+10	1
4901784	168	C	02/09/2020	10:43	-132.628	43.416	0	1484.90	0	2.5230	0	36.9510	8	29.499	0	1467.832	0	27.5	4	8.5	4	-1E+10	1	-1E+10	1	-1E+10	1	-1E+10	1	-1E+10	1	-1E+10	1
4901784	168	C	02/09/2020	10:43	-132.628	43.416	0	1490.10	0	2.5060	0	36.9540	8	29.503	0	1472.954	0	28.0	4	8.7	4	-1E+10	1	-1E+10	1	-1E+10	1	-1E+10	1	-1E+10	1	-1E+10	1
4901784	168	C	02/09/2020	10:43	-132.628	43.416	0	1495.40	0	2.4920	0	36.9560	8	29.506	0	1478.174	0	28.4	4	8.8	4	-1E+10	1	-1E+10	1	-1E+10	1	-1E+10	1	-1E+10	1	-1E+10	1
4901784	168	C	02/09/2020	10:43	-132.628	43.416	0	1499.80	0	2.4810	0	36.9580	8	29.508	0	1482.508	0	28.7	4	8.9	4	-1E+10	1	-1E+10	1	-1E+10	1	-1E+10	1	-1E+10	1	-1E+10	1
4901784	168	C	02/09/2020	10:43	-132.628	43.416	0	1504.30	0	2.4760	0	36.9590	8	29.510	0	1486.941	0	29.0	4	9.0	4	-1E+10	1	-1E+10	1	-1E+10	1	-1E+10	1	-1E+10	1	-1E+10	1
4901784	168	C	02/09/2020	10:43	-132.628	43.416	0	1509.60	0	2.4650	0	36.9600	8	29.512	0	1492.161	0	29.4	4	9.1	4	-1E+10	1	-1E+10	1	-1E+10	1	-1E+10	1	-1E+10	1	-1E+10	1
4901784	168	C	02/09/2020	10:43	-132.628	43.416	0	1515.00	0	2.4550	0	36.9620	8	29.514	0	1497.479	0	29.8	4	9.2	4	-1E+10	1	-1E+10	1	-1E+10	1	-1E+10	1	-1E+10	1	-1E+10	1
4901784	168	C	02/09/2020	10:43	-132.628	43.416	0	1520.30	0	2.4470	0	36.9630	8	29.516	0	1502.699	0	30.3	4	9.4	4	-1E+10	1	-1E+10	1	-1E+10	1	-1E+10	1	-1E+10	1	-1E+10	1
4901784	168	C	02/09/2020	10:43	-132.628	43.416	0	1525.40	0	2.4300	0	36.9660	8	29.520	0	1507.722	0	30.8	4	9.6	4	-1E+10	1	-1E+10	1	-1E+10	1	-1E+10	1	-1E+10	1	-1E+10	1
4901784	168	C	02/09/2020	10:43	-132.628	43.416	0	1529.50	0	2.4200	0	36.9680	8	29.522	0	1511.760	0	31.2	4	9.7	4	-1E+10	1	-1E+10	1	-1E+10	1	-1E+10	1	-1E+10	1	-1E+10	1
4901784	168	C	02/09/2020	10:43	-132.628	43.416	0	1535.00	0	2.4080	0	36.9700	8	29.525	0	1517.176	0	31.5	4	9.8	4	-1E+10	1	-1E+10	1	-1E+10	1	-1E+10	1	-1E+10	1	-1E+10	1
4901784	168	C	02/09/2020	10:43	-132.628	43.416	0	1540.60	0	2.4020	0	36.9710	8	29.526	0	1522.691	0	31.7	4	9.8	4	-1E+10	1	-1E+10	1	-1E+10	1	-1E+10	1	-1E+10	1	-1E+10	1
4901784	168	C	02/09/2020	10:43	-132.628	43.416	0	1545.50	0	2.3980	0	36.9720	8	29.527	0	1527.516	0	32.0	4	9.9	4	-1E+10	1	-1E+10	1	-1E+10	1	-1E+10	1	-1E+10	1	-1E+10	1
4901784	168	C	02/09/2020	10:43	-132.628	43.416	0	1550.30	0	2.3900	0	36.9730	8	29.529	0	1532.243	0	32.3	4	10.0	4	-1E+10	1	-1E+10	1	-1E+10	1	-1E+10	1	-1E+10	1	-1E+10	1
4901784	168	C	02/09/2020	10:43	-132.628	43.416	0	1555.20	0	2.3850	0	36.9740	8	29.530	0	1537.068	0	32.5	4	10.1	4	-1E+10	1	-1E+10	1	-1E+10	1	-1E+10	1	-1E+10	1	-1E+10	1
4901784	168	C	02/09/2020	10:43	-132.628	43.416	0	1560.20	0	2.3800	0	36.9750	8	29.532	0	1541.992	0	32.8	4	10.2	4	-1E+10	1	-1E+10	1	-1E+10	1	-1E+10	1	-1E+10	1	-1E+10	1
4901784	168	C	02/09/2020	10:43	-132.628	43.416	0	1565.00	0	2.3720	0	36.9760	8	29.533	0	1546.718	0	33.1	4	10.3	4	-1E+10	1	-1E+10	1	-1E+10	1	-1E+10	1	-1E+10	1	-1E+10	1
4901784	168	C	02/09/2020	10:43	-132.628	43.416	0	1570.00	0	2.3670	0	36.9820	8	29.538	0	1551.641	0	33.4	4	10.3	4	-1E+10	1	-1E+10	1	-1E+10	1	-1E+10	1	-1E+10	1	-1E+10	1
4901784	168	C	02/09/2020	10:43	-132.628	43.416	0	1575.10	0	2.3640	0	36.9830	8	29.539	0	1556.663	0	33.7	4	10.4	4	-1E+10	1	-1E+10	1	-1E+10	1	-1E+10	1	-1E+10	1	-1E+10	1
4901784	168	C	02/09/2020	10:43	-132.628	43.416	0	1580.10	0	2.3560	0	36.9850	8	29.542	0	1561.586	0	34.0	4	10.5	4	-1E+10	1	-1E+10	1	-1E+10	1	-1E+10	1	-1E+10	1	-1E+10	1
4901784	168	C	02/09/2020	10:43	-132.628	43.416	0	1585.10	0	2.3480	0	36.9860	8	29.543	0	1566.509	0	34.2	4	10.6	4	-1E+10	1	-1E+10	1	-1E+10	1	-1E+10	1	-1E+10	1	-1E+10	1
4901784	168	C	02/09/2020	10:43	-132.628	43.416	0	1590.20	0	2.3410	0	36.9870	8	29.545	0	1571.530	0	34.6	4	10.7	4	-1E+10	1	-1E+10	1	-1E+10	1	-1E+10	1	-1E+10	1	-1E+10	1
4901784	168	C	02/09/2020	10:43	-132.628	43.416	0	1595.30	0	2.3340	0	36.9880	8	29.546	0	1576.551	0	34.8	4	10.8	4	-1E+10	1	-1E+10	1	-1E+10	1	-1E+10	1	-1E+10	1	-1E+10	1
4901784	168	C	02/09/2020	10:43	-132.628	43.416	0	1600.40	0	2.3290	0	36.9890	8	29.548	0	1581.572	0	35.1	4	10.9	4	-1E+10	1	-1E+10	1	-1E+10	1	-1E+10	1	-1E+10	1	-1E+10	1
4901784	168	C	02/09/2020	10:43	-132.628	43.416	0	1605.50	0	2.3180	0	36.9900	8	29.549	0	1586.593	0	35.5	4	11.0	4	-1E+10	1	-1E+10	1	-1E+10	1	-1E+10	1	-1E+10	1	-1E+10	1
4901784	168	C	02/09/2020	10:43	-132.628	43.416	0	1610.60	0	2.3120	0	36.9910	8	29.551	0	1591.614	0	35.7	4	11.1	4	-1E+10	1	-1E+10	1	-1E+10	1	-1E+10	1	-1E+10	1	-1E+10	1
4901784	168	C	02/09/2020	10:43	-132.628	43.416	0	1615.80	0	2.3050	0	36.9920	8	29.552	0	1596.733	0	36.1	4	11.2	4	-1E+10	1	-1E+10	1	-1E+10	1	-1E+10	1	-1E+10	1	-1E+10	1
4901784	168	C	02/09/2020	10:43	-132.628	43.416	0	1620.10	0	2.2970	0	36.9930	8	29.554	0	1600.966	0	36.3	4	11.2	4	-1E+10	1	-1E+10	1	-1E+10	1	-1E+10	1	-1E+10	1	-1E+10	1
4901784	168	C	02/09/2020	10:43	-132.628	43.416	0	1624.40	0	2.2910	0	36.9940	8	29.555	0	1605.199	0	36.7	4	11.3	4	-1E+10	1	-1E+10	1	-1E+10	1	-1E+10	1	-1E+10	1	-1E+10	1
4901784	168	C	02/09/2020	10:43	-132.628	43.416	0	1629.50	0	2.2840	0	36.9960	8	29.557	0	1610.220	0	37.0	4	11.5	4	-1E+10	1	-1E+10	1	-1E+10	1	-1E+10	1	-1E+10	1	-1E+10	1
4901784	168	C	02/09/2020	10:43	-132.628	43.416	0	1634.70	0	2.2760	0	36.9980	8	29.560	0	1615.338	0	37.4	4	11.6	4	-1E+10	1	-1E+10	1	-1E+10	1	-1E+10	1	-1E+10	1	-1E+10	1
4901784	168	C	02/09/2020	10:43	-132.628	43.416	0	1639.90	0	2.2690	0	36.9990	8	29.561	0	1620.457	0	37.7	4	11.7	4	-1E+10	1	-1E+10	1	-1E+10	1	-1E+10	1	-1E+10	1	-1E+10	1
4901784	168	C	02/09/2020	10:43	-132.628	43.416	0	1645.20	0	2.2630	0	37.0000	8	29.562	0	1625.673	0	38.1	4	11.8	4	-1E+10	1	-1E+10	1	-1E+10	1	-1E+10	1	-1E+10	1	-1E+10	1
4901784	168	C	02/09/2020	10:43	-132.628	43.416	0	1650.40	0	2.2540	0	37.0010	8	29.564	0	1630.792	0	38.5	4	11.9	4	-1E+10	1	-1E+10	1	-1E+10	1	-1E+10	1	-1E+10	1	-1E+10	1
4901784	168	C	02/09/2020	10:43	-132.628	43.416	0	1655.60	0	2.2440	0	37.0030	8	29.567	0	1635.910	0	39.0	4	12.0	4	-1E+10	1	-1E+10	1	-1E+10	1	-1E+10	1	-1E+10	1	-1E+10	1
4901784	168	C	02/09/2020	10:43	-132.628	43.416	0	1660.00	0	2.2370	0	37.0040	8	29.568	0	1640.241	0	39.3	4	12.2	4	-1E+10	1	-1E+10	1	-1E+10	1	-1E+10	1	-1E+10	1	-1E+10	1
4901784	168	C	02/09/2020	10:43	-132.628	43.416	0	1664.50	0	2.2300	0	37.0060	8	29.570	0	1644.670	0	39.6	4	12.2	4	-1E+10	1	-1E+10	1	-1E+10	1	-1E+10	1	-1E+10	1	-1E+10	1
4901784	168	C	02/09/2020	10:43	-132.628	43.416	0	1669.80	0	2.2250	0	37.0070	8	29.572	0	1649.886	0	39.9	4	12.3	4	-1E+10	1	-1E+10	1	-1E+10	1	-1E+10	1	-1E+10	1	-1E+10	1
4901784	168	C	02/09/2020	10:43	-132.628	43.416	0	1675.10	0	2.2190	0	37.0070	8	29.572	0	1655.102	0	40.3	4	12.4	4	-1E+10	1	-1E+10	1	-1E+10	1	-1E+10	1	-1E+10	1	-1E+10	1
4901784	168	C	02/09/2020	10:43	-132.628	43.416	0	1680.50	0	2.2110	0	37.0080	8	29.574	0	1660.416	0	40.7	4	12.6	4	-1E+10	1	-1E+10	1	-1E+10	1	-1E+10	1	-1E+10	1	-1E+10	1
4901784	168	C	02/09/2020	10:43	-132.628	43.416	0	1685.00	0	2.2030	0	37.0090	8	29.575	0	1664.845	0	41.1	4	12.7	4	-1E+10	1	-1E+10	1	-1E+10	1	-1E+10	1	-1E+10	1	-1E+10	1
4901784	168	C	02/09/2020	10:43	-132.628	43.416	0	1689.50	0	2.1910	0	37.0110	8	29.578	0	1669.273	0	41.5	4	12.8	4	-1E+10	1	-1E+10	1	-1E+10	1	-1E+10	1	-1E+10	1	-1E+10	1
4901784	168	C	02/09/2020	10:43	-132.628	43.416	0	1695.00	0	2.1860	0	37.0120	8	29.579	0	1674.686	0	41.8	4	12.9	4	-1E+10	1	-1E+10	1	-1E+10	1	-1E+10	1	-1E+10	1	-1E+10	1
4901784	168	C	02/09/2020	10:43	-132.628	43.416	0	1700.40	0	2.1790	0	37.0130	8	29.581	0	1680.000	0	42.1	4	13.0	4	-1E+10	1	-1E+10	1	-1E+10	1	-1E+10	1	-1E+10	1	-1E+10	1
4901784	168	C	02/09/2020	10:43	-132.628	43.416	0	1705.00	0	2.1730	0	37.0150	8	29.583	0	1684.526	0	42.4	4	13.1	4	-1E+10	1	-1E+10	1	-1E+10	1	-1E+10	1	-1E+10	1	-1E+10	1
4901784	168	C	02/09/2020	10:43	-132.628	43.416	0	1709.60	0	2.1680	0	37.0160	8	29.584	0	1689.053	0	42.6	4	13.1	4	-1E+10	1	-1E+10	1	-1E+10	1	-1E+10	1	-1E+10	1	-1E+10	1
4901784	168	C	02/09/2020	10:43	-132.628	43.416	0	1715.00	0	2.1660	0	37.0160	8	29.584	0	1694.366	0	42.8	4	13.2	4	-1E+10	1	-1E+10	1	-1E+10	1	-1E+10	1	-1E+10	1	-1E+10	1
4901784	168	C	02/09/2020	10:43	-132.628	43.416	0	1720.50	0	2.1630	0	37.0170	8	29.585	0	1699.778	0	43.0	4	13.3	4	-1E+10	1	-1E+10	1	-1E+10	1	-1E+10	1	-1E+10	1	-1E+10	1
4901784	168	C	02/09/2020	10:43	-132.628	43.416	0	1725.10	0	2.1590	0	37.0180	8	29.586	0	1704.304	0	43.3	4	13.4	4	-1E+10	1	-1E+10	1	-1E+10	1	-1E+10	1	-1E+10	1	-1E+10	1
4901784	168	C	02/09/2020	10:43	-132.628	43.416	0	1729.70	0	2.1530	0	37.0190	8	29.588	0	1708.830	0	43.7	4	13.5	4	-1E+10	1	-1E+10	1	-1E+10	1	-1E+10	1	-1E+10	1	-1E+10	1
4901784	168	C	02/09/2020	10:43	-132.628	43.416	0	1735.10	0	2.1470	0	37.0200	8	29.589	0	1714.143	0	44.0	4	13.6	4	-1E+10	1	-1E+10	1	-1E+10	1	-1E+10	1	-1E+10	1	-1E+10	1
4901784	168	C	02/09/2020	10:43	-132.628	43.416	0	1740.60	0	2.1390	0	37.0210	8	29.591	0	1719.555	0	44.4	4	13.7	4	-1E+10	1	-1E+10	1	-1E+10	1	-1E+10	1	-1E+10	1	-1E+10	1
4901784	168	C	02/09/2020	10:43	-132.628	43.416	0	1745.40	0	2.1330	0	37.0220	8	29.592	0	1724.277	0	44.7	4	13.8	4	-1E+10	1	-1E+10	1	-1E+10	1	-1E+10	1	-1E+10	1	-1E+10	1
4901784	168	C	02/09/2020	10:43	-132.628	43.416	0	1749.90	0	2.1270	0	37.0230	8	29.593	0	1728.704	0	45.0	4	13.9	4	-1E+10	1	-1E+10	1	-1E+10	1	-1E+10	1	-1E+10	1	-1E+10	1
4901784	168	C	02/09/2020	10:43	-132.628	43.416	0	1754.80	0	2.1220	0	37.0240	8	29.595	0	1733.525	0	45.3	4	13.9	4	-1E+10	1	-1E+10	1	-1E+10	1	-1E+10	1	-1E+10	1	-1E+10	1
4901784	168	C	02/09/2020	10:43	-132.628	43.416	0	1759.70	0	2.1190	0	37.0250	8	29.596	0	1738.345	0	45.4	4	14.0	4	-1E+10	1	-1E+10	1	-1E+10	1	-1E+10	1	-1E+10	1	-1E+10	1
4901784	168	C	02/09/2020	10:43	-132.628	43.416	0	1764.60	0	2.1150	0	37.0260	8	29.597	0	1743.166	0	45.7	4	14.1	4	-1E+10	1	-1E+10	1	-1E+10	1	-1E+10	1	-1E+10	1	-1E+10	1
4901784	168	C	02/09/2020	10:43	-132.628	43.416	0	1769.50	0	2.1100	0	37.0260	8	29.597	0	1747.986	0	46.0	4	14.2	4	-1E+10	1	-1E+10	1	-1E+10	1	-1E+10	1	-1E+10	1	-1E+10	1
4901784	168	C	02/09/2020	10:43	-132.628	43.416	0	1774.50	0	2.1060	0	37.0270	8	29.599	0	1752.905	0	46.3	4	14.3	4	-1E+10	1	-1E+10	1	-1E+10	1	-1E+10	1	-1E+10	1	-1E+10	1
4901784	168	C	02/09/2020	10:43	-132.628	43.416	0	1779.50	0	2.1020	0	37.0280	8	29.600	0	1757.823	0	46.5	4	14.3	4	-1E+10	1	-1E+10	1	-1E+10	1	-1E+10	1	-1E+10	1	-1E+10	1
4901784	168	C	02/09/2020	10:43	-132.628	43.416	0	1784.50	0	2.0970	0	37.0290	8	29.601	0	1762.742	0	46.9	4	14.4	4	-1E+10	1	-1E+10	1	-1E+10	1	-1E+10	1	-1E+10	1	-1E+10	1
4901784	168	C	02/09/2020	10:43	-132.628	43.416	0	1789.60	0	2.0920	0	37.0300	8	29.602	0	1767.758	0	47.4	4	14.6	4	-1E+10	1	-1E+10	1	-1E+10	1	-1E+10	1	-1E+10	1	-1E+10	1
4901784	168	C	02/09/2020	10:43	-132.628	43.416	0	1794.70	0	2.0860	0	37.0320	8	29.604	0	1772.775	0	47.6	4	14.7	4	-1E+10	1	-1E+10	1	-1E+10	1	-1E+10	1	-1E+10	1	-1E+10	1
4901784	168	C	02/09/2020	10:43	-132.628	43.416	0	1799.80	0	2.0870	0	37.0320	8	29.604	0	1777.791	0	47.8	4	14.7	4	-1E+10	1	-1E+10	1	-1E+10	1	-1E+10	1	-1E+10	1	-1E+10	1
4901784	168	C	02/09/2020	10:43	-132.628	43.416	0	1804.90	0	2.0830	0	37.0330	8	29.606	0	1782.807	0	48.1	4	14.8	4	-1E+10	1	-1E+10	1	-1E+10	1	-1E+10	1	-1E+10	1	-1E+10	1
4901784	168	C	02/09/2020	10:43	-132.628	43.416	0	1810.10	0	2.0770	0	37.0340	8	29.607	0	1787.922	0	48.5	4	14.9	4	-1E+10	1	-1E+10	1	-1E+10	1	-1E+10	1	-1E+10	1	-1E+10	1
4901784	168	C	02/09/2020	10:43	-132.628	43.416	0	1815.30	0	2.0710	0	37.0350	8	29.608	0	1793.036	0	48.6	4	15.0	4	-1E+10	1	-1E+10	1	-1E+10	1	-1E+10	1	-1E+10	1	-1E+10	1
4901784	168	C	02/09/2020	10:43	-132.628	43.416	0	1820.50	0	2.0650	0	37.0350	8	29.609	0	1798.150	0	48.8	4	15.0	4	-1E+10	1	-1E+10	1	-1E+10	1	-1E+10	1	-1E+10	1	-1E+10	1
4901784	168	C	02/09/2020	10:43	-132.628	43.416	0	1824.90	0	2.0630	0	37.0360	8	29.610	0	1802.478	0	48.9	4	15.0	4	-1E+10	1	-1E+10	1	-1E+10	1	-1E+10	1	-1E+10	1	-1E+10	1
4901784	168	C	02/09/2020	10:43	-132.628	43.416	0	1829.30	0	2.0610	0	37.0360	8	29.610	0	1806.805	0	49.1	4	15.1	4	-1E+10	1	-1E+10	1	-1E+10	1	-1E+10	1	-1E+10	1	-1E+10	1
4901784	168	C	02/09/2020	10:43	-132.628	43.416	0	1834.60	0	2.0590	0	37.0370	8	29.611	0	1812.017	0	49.3	4	15.2	4	-1E+10	1	-1E+10	1	-1E+10	1	-1E+10	1	-1E+10	1	-1E+10	1
4901784	168	C	02/09/2020	10:43	-132.628	43.416	0	1840.00	0	2.0530	0	37.0380	8	29.612	0	1817.328	0	49.6	4	15.3	4	-1E+10	1	-1E+10	1	-1E+10	1	-1E+10	1	-1E+10	1	-1E+10	1
4901784	168	C	02/09/2020	10:43	-132.628	43.416	0	1845.30	0	2.0470	0	37.0390	8	29.614	0	1822.540	0	49.9	4	15.4	4	-1E+10	1	-1E+10	1	-1E+10	1	-1E+10	1	-1E+10	1	-1E+10	1
4901784	168	C	02/09/2020	10:43	-132.628	43.416	0	1850.60	0	2.0420	0	37.0400	8	29.615	0	1827.752	0	50.2	4	15.4	4	-1E+10	1	-1E+10	1	-1E+10	1	-1E+10	1	-1E+10	1	-1E+10	1
4901784	168	C	02/09/2020	10:43	-132.628	43.416	0	1855.10	0	2.0390	0	37.0400	8	29.615	0	1832.177	0	50.4	4	15.5	4	-1E+10	1	-1E+10	1	-1E+10	1	-1E+10	1	-1E+10	1	-1E+10	1
4901784	168	C	02/09/2020	10:43	-132.628	43.416	0	1859.50	0	2.0360	0	37.0410	8	29.616	0	1836.503	0	50.7	4	15.6	4	-1E+10	1	-1E+10	1	-1E+10	1	-1E+10	1	-1E+10	1	-1E+10	1
4901784	168	C	02/09/2020	10:43	-132.628	43.416	0	1864.90	0	2.0310	0	37.0420	8	29.618	0	1841.813	0	51.0	4	15.7	4	-1E+10	1	-1E+10	1	-1E+10	1	-1E+10	1	-1E+10	1	-1E+10	1
4901784	168	C	02/09/2020	10:43	-132.628	43.416	0	1870.40	0	2.0260	0	37.0430	8	29.619	0	1847.221	0	51.3	4	15.8	4	-1E+10	1	-1E+10	1	-1E+10	1	-1E+10	1	-1E+10	1	-1E+10	1
4901784	168	C	02/09/2020	10:43	-132.628	43.416	0	1874.90	0	2.0220	0	37.0440	8	29.620	0	1851.646	0	51.5	4	15.8	4	-1E+10	1	-1E+10	1	-1E+10	1	-1E+10	1	-1E+10	1	-1E+10	1
4901784	168	C	02/09/2020	10:43	-132.628	43.416	0	1879.70	0	2.0200	0	37.0440	8	29.620	0	1856.365	0	51.7	4	15.9	4	-1E+10	1	-1E+10	1	-1E+10	1	-1E+10	1	-1E+10	1	-1E+10	1
4901784	168	C	02/09/2020	10:43	-132.628	43.416	0	1884.90	0	2.0160	0	37.0450	8	29.621	0	1861.478	0	52.0	4	16.0	4	-1E+10	1	-1E+10	1	-1E+10	1	-1E+10	1	-1E+10	1	-1E+10	1
4901784	168	C	02/09/2020	10:43	-132.628	43.416	0	1889.70	0	2.0130	0	37.0450	8	29.622	0	1866.197	0	52.2	4	16.0	4	-1E+10	1	-1E+10	1	-1E+10	1	-1E+10	1	-1E+10	1	-1E+10	1
4901784	168	C	02/09/2020	10:43	-132.628	43.416	0	1894.60	0	2.0090	0	37.0460	8	29.623	0	1871.015	0	52.5	4	16.1	4	-1E+10	1	-1E+10	1	-1E+10	1	-1E+10	1	-1E+10	1	-1E+10	1
4901784	168	C	02/09/2020	10:43	-132.628	43.416	0	1899.40	0	2.0060	0	37.0470	8	29.624	0	1875.734	0	52.7	4	16.2	4	-1E+10	1	-1E+10	1	-1E+10	1	-1E+10	1	-1E+10	1	-1E+10	1
4901784	168	C	02/09/2020	10:43	-132.628	43.416	0	1904.40	0	2.0040	0	37.0470	8	29.624	0	1880.650	0	53.0	4	16.3	4	-1E+10	1	-1E+10	1	-1E+10	1	-1E+10	1	-1E+10	1	-1E+10	1
4901784	168	C	02/09/2020	10:43	-132.628	43.416	0	1909.30	0	1.9990	0	37.0480	8	29.625	0	1885.467	0	53.2	4	16.4	4	-1E+10	1	-1E+10	1	-1E+10	1	-1E+10	1	-1E+10	1	-1E+10	1
4901784	168	C	02/09/2020	10:43	-132.628	43.416	0	1914.30	0	1.9940	0	37.0490	8	29.627	0	1890.382	0	53.5	4	16.4	4	-1E+10	1	-1E+10	1	-1E+10	1	-1E+10	1	-1E+10	1	-1E+10	1
4901784	168	C	02/09/2020	10:43	-132.628	43.416	0	1919.40	0	1.9910	0	37.0500	8	29.628	0	1895.396	0	53.8	4	16.5	4	-1E+10	1	-1E+10	1	-1E+10	1	-1E+10	1	-1E+10	1	-1E+10	1
4901784	168	C	02/09/2020	10:43	-132.628	43.416	0	1924.40	0	1.9890	0	37.0500	8	29.628	0	1900.311	0	54.0	4	16.6	4	-1E+10	1	-1E+10	1	-1E+10	1	-1E+10	1	-1E+10	1	-1E+10	1
4901784	168	C	02/09/2020	10:43	-132.628	43.416	0	1929.40	0	1.9850	0	37.0510	8	29.629	0	1905.226	0	54.2	4	16.7	4	-1E+10	1	-1E+10	1	-1E+10	1	-1E+10	1	-1E+10	1	-1E+10	1
4901784	168	C	02/09/2020	10:43	-132.628	43.416	0	1934.50	0	1.9810	0	37.0520	8	29.630	0	1910.239	0	54.6	4	16.8	4	-1E+10	1	-1E+10	1	-1E+10	1	-1E+10	1	-1E+10	1	-1E+10	1
4901784	168	C	02/09/2020	10:43	-132.628	43.416	0	1939.60	0	1.9770	0	37.0520	8	29.631	0	1915.252	0	54.9	4	16.9	4	-1E+10	1	-1E+10	1	-1E+10	1	-1E+10	1	-1E+10	1	-1E+10	1
4901784	168	C	02/09/2020	10:43	-132.628	43.416	0	1944.70	0	1.9710	0	37.0530	8	29.632	0	1920.265	0	55.2	4	16.9	4	-1E+10	1	-1E+10	1	-1E+10	1	-1E+10	1	-1E+10	1	-1E+10	1
4901784	168	C	02/09/2020	10:43	-132.628	43.416	0	1949.80	0	1.9670	0	37.0540	8	29.633	0	1925.278	0	55.5	4	17.1	4	-1E+10	1	-1E+10	1	-1E+10	1	-1E+10	1	-1E+10	1	-1E+10	1
4901784	168	C	02/09/2020	10:43	-132.628	43.416	0	1955.00	0	1.9610	0	37.0560	8	29.635	0	1930.389	0	55.8	4	17.1	4	-1E+10	1	-1E+10	1	-1E+10	1	-1E+10	1	-1E+10	1	-1E+10	1
4901784	168	C	02/09/2020	10:43	-132.628	43.416	0	1960.30	0	1.9590	0	37.0560	8	29.635	0	1935.598	0	56.0	4	17.2	4	-1E+10	1	-1E+10	1	-1E+10	1	-1E+10	1	-1E+10	1	-1E+10	1
4901784	168	C	02/09/2020	10:43	-132.628	43.416	0	1965.60	0	1.9570	0	37.0560	8	29.636	0	1940.808	0	56.2	4	17.2	4	-1E+10	1	-1E+10	1	-1E+10	1	-1E+10	1	-1E+10	1	-1E+10	1
4901784	168	C	02/09/2020	10:43	-132.628	43.416	0	1970.60	0	1.9540	0	37.0570	8	29.637	0	1945.722	0	56.3	4	17.3	4	-1E+10	1	-1E+10	1	-1E+10	1	-1E+10	1	-1E+10	1	-1E+10	1
4901784	168	C	02/09/2020	10:43	-132.628	43.416	0	1974.80	0	1.9520	0	37.0570	8	29.637	0	1949.849	0	56.5	4	17.3	4	-1E+10	1	-1E+10	1	-1E+10	1	-1E+10	1	-1E+10	1	-1E+10	1
4901784	168	C	02/09/2020	10:43	-132.628	43.416	0	1980.10	0	1.9500	0	37.0580	8	29.638	0	1955.058	0	56.7	4	17.4	4	-1E+10	1	-1E+10	1	-1E+10	1	-1E+10	1	-1E+10	1	-1E+10	1
4901784	168	C	02/09/2020	10:43	-132.628	43.416	0	1985.50	0	1.9470	0	37.0580	8	29.638	0	1960.365	0	57.0	4	17.5	4	-1E+10	1	-1E+10	1	-1E+10	1	-1E+10	1	-1E+10	1	-1E+10	1
4901784	168	C	02/09/2020	10:43	-132.628	43.416	0	1990.40	0	1.9430	0	37.0590	8	29.639	0	1965.180	0	57.2	4	17.6	4	-1E+10	1	-1E+10	1	-1E+10	1	-1E+10	1	-1E+10	1	-1E+10	1
4901784	168	C	02/09/2020	10:43	-132.628	43.416	0	1995.20	0	1.9400	0	37.0600	8	29.641	0	1969.897	0	57.4	4	17.6	4	-1E+10	1	-1E+10	1	-1E+10	1	-1E+10	1	-1E+10	1	-1E+10	1
4901784	168	C	02/09/2020	10:43	-132.628	43.416	0	2000.10	0	1.9390	0	37.0610	8	29.641	0	1974.713	0	57.3	4	17.6	4	-1E+10	1	-1E+10	1	-1E+10	1	-1E+10	1	-1E+10	1	-1E+10	1
4901784	168	C	02/09/2020	10:43	-132.628	43.416	0	2003.00	0	1.9390	0	37.0610	8	29.641	0	1977.562	0	55.6	4	17.1	4	-1E+10	1	-1E+10	1	-1E+10	1	-1E+10	1	-1E+10	1	-1E+10	1
4901784	168	C	02/09/2020	10:43	-132.628	43.416	0																										
4901784	169	C	02/19/2020	10:43	-132.680	43.389	0	2.30	0	11.0150	0	34.6290	8	26.484	0	2.282	0	259.9	4	96.5	4	-1E+10	1	-1E+10	1	-1E+10	1	-1E+10	1	-1E+10	1	-1E+10	1
4901784	169	C	02/19/2020	10:43	-132.680	43.389	0	3.40	0	11.0180	0	34.6290	8	26.484	0	3.373	0	259.8	4	96.4	4	-1E+10	1	-1E+10	1	-1E+10	1	-1E+10	1	-1E+10	1	-1E+10	1
4901784	169	C	02/19/2020	10:43	-132.680	43.389	0	4.70	0	11.0200	0	34.6300	8	26.484	0	4.662	0	259.8	4	96.4	4	-1E+10	1	-1E+10	1	-1E+10	1	-1E+10	1	-1E+10	1	-1E+10	1
4901784	169	C	02/19/2020	10:43	-132.680	43.389	0	6.10	0	11.0160	0	34.6300	8	26.485	0	6.051	0	259.9	4	96.4	4	-1E+10	1	-1E+10	1	-1E+10	1	-1E+10	1	-1E+10	1	-1E+10	1
4901784	169	C	02/19/2020	10:43	-132.680	43.389	0	7.60	0	11.0160	0	34.6300	8	26.485	0	7.539	0	259.7	4	96.4	4	-1E+10	1	-1E+10	1	-1E+10	1	-1E+10	1	-1E+10	1	-1E+10	1
4901784	169	C	02/19/2020	10:43	-132.680	43.389	0	9.20	0	11.0170	0	34.6310	8	26.486	0	9.126	0	259.8	4	96.4	4	-1E+10	1	-1E+10	1	-1E+10	1	-1E+10	1	-1E+10	1	-1E+10	1
4901784	169	C	02/19/2020	10:43	-132.680	43.389	0	10.90	0	11.0160	0	34.6310	8	26.486	0	10.813	0	259.8	4	96.4	4	-1E+10	1	-1E+10	1	-1E+10	1	-1E+10	1	-1E+10	1	-1E+10	1
4901784	169	C	02/19/2020	10:43	-132.680	43.389	0	12.70	0	11.0090	0	34.6310	8	26.487	0	12.598	0	259.8	4	96.4	4	-1E+10	1	-1E+10	1	-1E+10	1	-1E+10	1	-1E+10	1	-1E+10	1
4901784	169	C	02/19/2020	10:43	-132.680	43.389	0	14.40	0	11.0110	0	34.6320	8	26.488	0	14.285	0	259.6	4	96.4	4	-1E+10	1	-1E+10	1	-1E+10	1	-1E+10	1	-1E+10	1	-1E+10	1
4901784	169	C	02/19/2020	10:43	-132.680	43.389	0	16.20	0	11.0160	0	34.6320	8	26.487	0	16.070	0	259.8	4	96.4	4	-1E+10	1	-1E+10	1	-1E+10	1	-1E+10	1	-1E+10	1	-1E+10	1
4901784	169	C	02/19/2020	10:43	-132.680	43.389	0	18.00	0	11.0060	0	34.6300	8	26.487	0	17.856	0	259.7	4	96.4	4	-1E+10	1	-1E+10	1	-1E+10	1	-1E+10	1	-1E+10	1	-1E+10	1
4901784	169	C	02/19/2020	10:43	-132.680	43.389	0	19.80	0	11.0120	0	34.6330	8	26.488	0	19.641	0	259.7	4	96.4	4	-1E+10	1	-1E+10	1	-1E+10	1	-1E+10	1	-1E+10	1	-1E+10	1
4901784	169	C	02/19/2020	10:43	-132.680	43.389	0	21.60	0	11.0130	0	34.6330	8	26.488	0	21.427	0	259.5	4	96.3	4	-1E+10	1	-1E+10	1	-1E+10	1	-1E+10	1	-1E+10	1	-1E+10	1
4901784	169	C	02/19/2020	10:43	-132.680	43.389	0	23.40	0	11.0130	0	34.6340	8	26.489	0	23.212	0	259.6	4	96.3	4	-1E+10	1	-1E+10	1	-1E+10	1	-1E+10	1	-1E+10	1	-1E+10	1
4901784	169	C	02/19/2020	10:43	-132.680	43.389	0	25.20	0	11.0130	0	34.6340	8	26.489	0	24.998	0	259.6	4	96.3	4	-1E+10	1	-1E+10	1	-1E+10	1	-1E+10	1	-1E+10	1	-1E+10	1
4901784	169	C	02/19/2020	10:43	-132.680	43.389	0	27.00	0	11.0140	0	34.6350	8	26.490	0	26.783	0	259.4	4	96.3	4	-1E+10	1	-1E+10	1	-1E+10	1	-1E+10	1	-1E+10	1	-1E+10	1
4901784	169	C	02/19/2020	10:43	-132.680	43.389	0	28.80	0	11.0130	0	34.6350	8	26.490	0	28.568	0	259.6	4	96.3	4	-1E+10	1	-1E+10	1	-1E+10	1	-1E+10	1	-1E+10	1	-1E+10	1
4901784	169	C	02/19/2020	10:43	-132.680	43.389	0	30.60	0	11.0010	0	34.6350	8	26.492	0	30.354	0	259.5	4	96.3	4	-1E+10	1	-1E+10	1	-1E+10	1	-1E+10	1	-1E+10	1	-1E+10	1
4901784	169	C	02/19/2020	10:43	-132.680	43.389	0	32.40	0	11.0110	0	34.6360	8	26.491	0	32.139	0	259.5	4	96.3	4	-1E+10	1	-1E+10	1	-1E+10	1	-1E+10	1	-1E+10	1	-1E+10	1
4901784	169	C	02/19/2020	10:43	-132.680	43.389	0	34.20	0	11.0080	0	34.6340	8	26.490	0	33.925	0	259.5	4	96.3	4	-1E+10	1	-1E+10	1	-1E+10	1	-1E+10	1	-1E+10	1	-1E+10	1
4901784	169	C	02/19/2020	10:43	-132.680	43.389	0	36.00	0	11.0050	0	34.6370	8	26.493	0	35.710	0	259.5	4	96.3	4	-1E+10	1	-1E+10	1	-1E+10	1	-1E+10	1	-1E+10	1	-1E+10	1
4901784	169	C	02/19/2020	10:43	-132.680	43.389	0	37.80	0	10.9840	0	34.6340	8	26.495	0	37.495	0	259.7	4	96.3	4	-1E+10	1	-1E+10	1	-1E+10	1	-1E+10	1	-1E+10	1	-1E+10	1
4901784	169	C	02/19/2020	10:43	-132.680	43.389	0	39.60	0	10.9820	0	34.6320	8	26.494	0	39.281	0	259.6	4	96.3	4	-1E+10	1	-1E+10	1	-1E+10	1	-1E+10	1	-1E+10	1	-1E+10	1
4901784	169	C	02/19/2020	10:43	-132.680	43.389	0	41.30	0	10.9560	0	34.6320	8	26.498	0	40.967	0	259.8	4	96.3	4	-1E+10	1	-1E+10	1	-1E+10	1	-1E+10	1	-1E+10	1	-1E+10	1
4901784	169	C	02/19/2020	10:43	-132.680	43.389	0	43.00	0	10.9730	0	34.6320	8	26.495	0	42.653	0	259.6	4	96.3	4	-1E+10	1	-1E+10	1	-1E+10	1	-1E+10	1	-1E+10	1	-1E+10	1
4901784	169	C	02/19/2020	10:43	-132.680	43.389	0	44.70	0	10.9700	0	34.6330	8	26.497	0	44.339	0	259.6	4	96.3	4	-1E+10	1	-1E+10	1	-1E+10	1	-1E+10	1	-1E+10	1	-1E+10	1
4901784	169	C	02/19/2020	10:43	-132.680	43.389	0	46.50	0	10.9660	0	34.6310	8	26.496	0	46.124	0	259.7	4	96.3	4	-1E+10	1	-1E+10	1	-1E+10	1	-1E+10	1	-1E+10	1	-1E+10	1
4901784	169	C	02/19/2020	10:43	-132.680	43.389	0	48.20	0	10.9330	0	34.6290	8	26.500	0	47.810	0	259.5	4	96.2	4	-1E+10	1	-1E+10	1	-1E+10	1	-1E+10	1	-1E+10	1	-1E+10	1
4901784	169	C	02/19/2020	10:43	-132.680	43.389	0	49.80	0	10.9300	0	34.6300	8	26.502	0	49.397	0	259.5	4	96.1	4	-1E+10	1	-1E+10	1	-1E+10	1	-1E+10	1	-1E+10	1	-1E+10	1
4901784	169	C	02/19/2020	10:43	-132.680	43.389	0	51.60	0	10.9260	0	34.6300	8	26.502	0	51.182	0	259.4	4	96.1	4	-1E+10	1	-1E+10	1	-1E+10	1	-1E+10	1	-1E+10	1	-1E+10	1
4901784	169	C	02/19/2020	10:43	-132.680	43.389	0	53.30	0	10.9240	0	34.6300	8	26.503	0	52.868	0	259.4	4	96.1	4	-1E+10	1	-1E+10	1	-1E+10	1	-1E+10	1	-1E+10	1	-1E+10	1
4901784	169	C	02/19/2020	10:43	-132.680	43.389	0	54.90	0	10.9220	0	34.6310	8	26.504	0	54.455	0	259.5	4	96.1	4	-1E+10	1	-1E+10	1	-1E+10	1	-1E+10	1	-1E+10	1	-1E+10	1
4901784	169	C	02/19/2020	10:43	-132.680	43.389	0	56.60	0	10.9210	0	34.6310	8	26.504	0	56.141	0	259.4	4	96.1	4	-1E+10	1	-1E+10	1	-1E+10	1	-1E+10	1	-1E+10	1	-1E+10	1
4901784	169	C	02/19/2020	10:43	-132.680	43.389	0	58.30	0	10.9200	0	34.6310	8	26.504	0	57.827	0	259.4	4	96.1	4	-1E+10	1	-1E+10	1	-1E+10	1	-1E+10	1	-1E+10	1	-1E+10	1
4901784	169	C	02/19/2020	10:43	-132.680	43.389	0	60.00	0	10.9190	0	34.6320	8	26.505	0	59.513	0	259.4	4	96.1	4	-1E+10	1	-1E+10	1	-1E+10	1	-1E+10	1	-1E+10	1	-1E+10	1
4901784	169	C	02/19/2020	10:43	-132.680	43.389	0	61.70	0	10.9180	0	34.6320	8	26.506	0	61.199	0	259.1	4	96.0	4	-1E+10	1	-1E+10	1	-1E+10	1	-1E+10	1	-1E+10	1	-1E+10	1
4901784	169	C	02/19/2020	10:43	-132.680	43.389	0	63.40	0	10.9170	0	34.6320	8	26.506	0	62.885	0	259.1	4	96.0	4	-1E+10	1	-1E+10	1	-1E+10	1	-1E+10	1	-1E+10	1	-1E+10	1
4901784	169	C	02/19/2020	10:43	-132.680	43.389	0	65.10	0	10.9140	0	34.6330	8	26.507	0	64.571	0	259.1	4	96.0	4	-1E+10	1	-1E+10	1	-1E+10	1	-1E+10	1	-1E+10	1	-1E+10	1
4901784	169	C	02/19/2020	10:43	-132.680	43.389	0	66.80	0	10.9130	0	34.6320	8	26.507	0	66.257	0	259.0	4	95.9	4	-1E+10	1	-1E+10	1	-1E+10	1	-1E+10	1	-1E+10	1	-1E+10	1
4901784	169	C	02/19/2020	10:43	-132.680	43.389	0	68.40	0	10.9100	0	34.6340	8	26.509	0	67.844	0	259.0	4	95.9	4	-1E+10	1	-1E+10	1	-1E+10	1	-1E+10	1	-1E+10	1	-1E+10	1
4901784	169	C	02/19/2020	10:43	-132.680	43.389	0	70.20	0	10.9070	0	34.6330	8	26.508	0	69.629	0	259.1	4	95.9	4	-1E+10	1	-1E+10	1	-1E+10	1	-1E+10	1	-1E+10	1	-1E+10	1
4901784	169	C	02/19/2020	10:43	-132.680	43.389	0	71.80	0	10.9060	0	34.6330	8	26.509	0	71.215	0	258.9	4	95.9	4	-1E+10	1	-1E+10	1	-1E+10	1	-1E+10	1	-1E+10	1	-1E+10	1
4901784	169	C	02/19/2020	10:43	-132.680	43.389	0	73.60	0	10.8980	0	34.6340	8	26.511	0	73.000	0	258.8	4	95.8	4	-1E+10	1	-1E+10	1	-1E+10	1	-1E+10	1	-1E+10	1	-1E+10	1
4901784	169	C	02/19/2020	10:43	-132.680	43.389	0	75.30	0	10.8930	0	34.6330	8	26.511	0	74.686	0	258.7	4	95.8	4	-1E+10	1	-1E+10	1	-1E+10	1	-1E+10	1	-1E+10	1	-1E+10	1
4901784	169	C	02/19/2020	10:43	-132.680	43.389	0	77.00	0	10.8930	0	34.6340	8	26.512	0	76.372	0	258.6	4	95.7	4	-1E+10	1	-1E+10	1	-1E+10	1	-1E+10	1	-1E+10	1	-1E+10	1
4901784	169	C	02/19/2020	10:43	-132.680	43.389	0	78.80	0	10.8930	0	34.6340	8	26.512	0	78.157	0	258.5	4	95.7	4	-1E+10	1	-1E+10	1	-1E+10	1	-1E+10	1	-1E+10	1	-1E+10	1
4901784	169	C	02/19/2020	10:43	-132.680	43.389	0	80.40	0	10.8910	0	34.6340	8	26.512	0	79.744	0	258.3	4	95.6	4	-1E+10	1	-1E+10	1	-1E+10	1	-1E+10	1	-1E+10	1	-1E+10	1
4901784	169	C	02/19/2020	10:43	-132.680	43.389	0	82.20	0	10.8920	0	34.6350	8	26.513	0	81.529	0	258.2	4	95.6	4	-1E+10	1	-1E+10	1	-1E+10	1	-1E+10	1	-1E+10	1	-1E+10	1
4901784	169	C	02/19/2020	10:43	-132.680	43.389	0	84.00	0	10.8870	0	34.6340	8	26.513	0	83.314	0	257.7	4	95.4	4	-1E+10	1	-1E+10	1	-1E+10	1	-1E+10	1	-1E+10	1	-1E+10	1
4901784	169	C	02/19/2020	10:43	-132.680	43.389	0	85.70	0	10.8610	0	34.6320	8	26.516	0	84.999	0	257.4	4	95.2	4	-1E+10	1	-1E+10	1	-1E+10	1	-1E+10	1	-1E+10	1	-1E+10	1
4901784	169	C	02/19/2020	10:43	-132.680	43.389	0	87.50	0	10.8320	0	34.6300	8	26.520	0	86.784	0	257.5	4	95.2	4	-1E+10	1	-1E+10	1	-1E+10	1	-1E+10	1	-1E+10	1	-1E+10	1
4901784	169	C	02/19/2020	10:43	-132.680	43.389	0	89.20	0	10.8280	0	34.6300	8	26.521	0	88.470	0	257.0	4	95.0	4	-1E+10	1	-1E+10	1	-1E+10	1	-1E+10	1	-1E+10	1	-1E+10	1
4901784	169	C	02/19/2020	10:43	-132.680	43.389	0	91.00	0	10.8280	0	34.6300	8	26.521	0	90.255	0	256.7	4	94.9	4	-1E+10	1	-1E+10	1	-1E+10	1	-1E+10	1	-1E+10	1	-1E+10	1
4901784	169	C	02/19/2020	10:43	-132.680	43.389	0	92.70	0	10.8260	0	34.6300	8	26.521	0	91.941	0	256.0	4	94.6	4	-1E+10	1	-1E+10	1	-1E+10	1	-1E+10	1	-1E+10	1	-1E+10	1
4901784	169	C	02/19/2020	10:43	-132.680	43.389	0	94.40	0	10.8170	0	34.6300	8	26.523	0	93.626	0	255.5	4	94.4	4	-1E+10	1	-1E+10	1	-1E+10	1	-1E+10	1	-1E+10	1	-1E+10	1
4901784	169	C	02/19/2020	10:43	-132.680	43.389	0	96.20	0	10.8080	0	34.6300	8	26.524	0	95.411	0	254.4	4	94.0	4	-1E+10	1	-1E+10	1	-1E+10	1	-1E+10	1	-1E+10	1	-1E+10	1
4901784	169	C	02/19/2020	10:43	-132.680	43.389	0	98.00	0	10.8140	0	34.6300	8	26.523	0	97.196	0	253.1	4	93.5	4	-1E+10	1	-1E+10	1	-1E+10	1	-1E+10	1	-1E+10	1	-1E+10	1
4901784	169	C	02/19/2020	10:43	-132.680	43.389	0	99.70	0	10.8110	0	34.6280	8	26.522	0	98.882	0	251.4	4	92.9	4	-1E+10	1	-1E+10	1	-1E+10	1	-1E+10	1	-1E+10	1	-1E+10	1
4901784	169	C	02/19/2020	10:43	-132.680	43.389	0	102.30	0	10.7520	0	34.6290	8	26.534	0	101.460	0	247.8	4	91.4	4	-1E+10	1	-1E+10	1	-1E+10	1	-1E+10	1	-1E+10	1	-1E+10	1
4901784	169	C	02/19/2020	10:43	-132.680	43.389	0	105.10	0	10.6570	0	34.6350	8	26.555	0	104.236	0	242.1	4	89.2	4	-1E+10	1	-1E+10	1	-1E+10	1	-1E+10	1	-1E+10	1	-1E+10	1
4901784	169	C	02/19/2020	10:43	-132.680	43.389	0	107.50	0	10.4130	0	34.6830	8	26.636	0	106.615	0	236.0	4	86.5	4	-1E+10	1	-1E+10	1	-1E+10	1	-1E+10	1	-1E+10	1	-1E+10	1
4901784	169	C	02/19/2020	10:43	-132.680	43.389	0	110.40	0	9.9190	0	34.7920	8	26.806	0	109.491	0	230.3	4	83.6	4	-1E+10	1	-1E+10	1	-1E+10	1	-1E+10	1	-1E+10	1	-1E+10	1
4901784	169	C	02/19/2020	10:43	-132.680	43.389	0	112.60	0	9.5970	0	34.8680	8	26.920	0	111.672	0	227.9	4	82.2	4	-1E+10	1	-1E+10	1	-1E+10	1	-1E+10	1	-1E+10	1	-1E+10	1
4901784	169	C	02/19/2020	10:43	-132.680	43.389	0	114.90	0	9.4730	0	34.9470	8	27.002	0	113.953	0	225.9	4	81.3	4	-1E+10	1	-1E+10	1	-1E+10	1	-1E+10	1	-1E+10	1	-1E+10	1
4901784	169	C	02/19/2020	10:43	-132.680	43.389	0	117.40	0	9.3420	0	34.9950	8	27.061	0	116.431	0	224.5	4	80.6	4	-1E+10	1	-1E+10	1	-1E+10	1	-1E+10	1	-1E+10	1	-1E+10	1
4901784	169	C	02/19/2020	10:43	-132.680	43.389	0	120.00	0	9.1940	0	35.0370	8	27.118	0	119.009	0	223.6	4	80.1	4	-1E+10	1	-1E+10	1	-1E+10	1	-1E+10	1	-1E+10	1	-1E+10	1
4901784	169	C	02/19/2020	10:43	-132.680	43.389	0	122.40	0	9.1490	0	35.0450	8	27.132	0	121.388	0	222.3	4	79.5	4	-1E+10	1	-1E+10	1	-1E+10	1	-1E+10	1	-1E+10	1	-1E+10	1
4901784	169	C	02/19/2020	10:43	-132.680	43.389	0	125.20	0	9.0060	0	35.1190	8	27.213	0	124.164	0	221.0	4	78.8	4	-1E+10	1	-1E+10	1	-1E+10	1	-1E+10	1	-1E+10	1	-1E+10	1
4901784	169	C	02/19/2020	10:43	-132.680	43.389	0	128.00	0	8.9190	0	35.1690	8	27.266	0	126.940	0	220.5	4	78.5	4	-1E+10	1	-1E+10	1	-1E+10	1	-1E+10	1	-1E+10	1	-1E+10	1
4901784	169	C	02/19/2020	10:43	-132.680	43.389	0	129.80	0	8.9140	0	35.1700	8	27.268	0	128.725	0	219.9	4	78.3	4	-1E+10	1	-1E+10	1	-1E+10	1	-1E+10	1	-1E+10	1	-1E+10	1
4901784	169	C	02/19/2020	10:43	-132.680	43.389	0	132.60	0	8.8930	0	35.1810	8	27.280	0	131.501	0	218.9	4	77.9	4	-1E+10	1	-1E+10	1	-1E+10	1	-1E+10	1	-1E+10	1	-1E+10	1
4901784	169	C	02/19/2020	10:43	-132.680	43.389	0	135.70	0	8.8410	0	35.2070	8	27.309	0	134.574	0	217.5	4	77.3	4	-1E+10	1	-1E+10	1	-1E+10	1	-1E+10	1	-1E+10	1	-1E+10	1
4901784	169	C	02/19/2020	10:43	-132.680	43.389	0	137.10	0	8.8130	0	35.2150	8	27.319	0	135.962	0	216.5	4	77.0	4	-1E+10	1	-1E+10	1	-1E+10	1	-1E+10	1	-1E+10	1	-1E+10	1
4901784	169	C	02/19/2020	10:43	-132.680	43.389	0	140.10	0	8.6720	0	35.2730	8	27.387	0	138.936	0	214.9	4	76.2	4	-1E+10	1	-1E+10	1	-1E+10	1	-1E+10	1	-1E+10	1	-1E+10	1
4901784	169	C	02/19/2020	10:43	-132.680	43.389	0	142.50	0	8.6180	0	35.2960	8	27.414	0	141.315	0	213.9	4	75.7	4	-1E+10	1	-1E+10	1	-1E+10	1	-1E+10	1	-1E+10	1	-1E+10	1
4901784	169	C	02/19/2020	10:43	-132.680	43.389	0	144.90	0	8.5480	0	35.3300	8	27.451	0	143.695	0	212.6	4	75.2	4	-1E+10	1	-1E+10	1	-1E+10	1	-1E+10	1	-1E+10	1	-1E+10	1
4901784	169	C	02/19/2020	10:43	-132.680	43.389	0	147.40	0	8.4610	0	35.3950	8	27.516	0	146.173	0	211.7	4	74.8	4	-1E+10	1	-1E+10	1	-1E+10	1	-1E+10	1	-1E+10	1	-1E+10	1
4901784	169	C	02/19/2020	10:43	-132.680	43.389	0	149.80	0	8.4520	0	35.4010	8	27.522	0	148.552	0	210.8	4	74.4	4	-1E+10	1	-1E+10	1	-1E+10	1	-1E+10	1	-1E+10	1	-1E+10	1
4901784	169	C	02/19/2020	10:43	-132.680	43.389	0	152.20	0	8.4370	0	35.4090	8	27.531	0	150.931	0	209.8	4	74.1	4	-1E+10	1	-1E+10	1	-1E+10	1	-1E+10	1	-1E+10	1	-1E+10	1
4901784	169	C	02/19/2020	10:43	-132.680	43.389	0	154.60	0	8.3720	0	35.4710	8	27.590	0	153.310	0	208.7	4	73.6	4	-1E+10	1	-1E+10	1	-1E+10	1	-1E+10	1	-1E+10	1	-1E+10	1
4901784	169	C	02/19/2020	10:43	-132.680	43.389	0	157.80	0	8.3280	0	35.5090	8	27.626	0	156.483	0	207.4	4	73.1	4	-1E+10	1	-1E+10	1	-1E+10	1	-1E+10	1	-1E+10	1	-1E+10	1
4901784	169	C	02/19/2020	10:43	-132.680	43.389	0	160.10	0	8.2390	0	35.5660	8	27.685	0	158.762	0	206.2	4	72.6	4	-1E+10	1	-1E+10	1	-1E+10	1	-1E+10	1	-1E+10	1	-1E+10	1
4901784	169	C	02/19/2020	10:43	-132.680	43.389	0	162.60	0	8.1960	0	35.6160	8	27.731	0	161.241	0	205.1	4	72.1	4	-1E+10	1	-1E+10	1	-1E+10	1	-1E+10	1	-1E+10	1	-1E+10	1
4901784	169	C	02/19/2020	10:43	-132.680	43.389	0	165.20	0	8.1680	0	35.6520	8	27.763	0	163.818	0	203.7	4	71.6	4	-1E+10	1	-1E+10	1	-1E+10	1	-1E+10	1	-1E+10	1	-1E+10	1
4901784	169	C	02/19/2020	10:43	-132.680	43.389	0	167.80	0	8.1070	0	35.7180	8	27.825	0	166.395	0	203.2	4	71.4	4	-1E+10	1	-1E+10	1	-1E+10	1	-1E+10	1	-1E+10	1	-1E+10	1
4901784	169	C	02/19/2020	10:43	-132.680	43.389	0	170.40	0	8.0900	0	35.7390	8	27.844	0	168.972	0	202.3	4	71.0	4	-1E+10	1	-1E+10	1	-1E+10	1	-1E+10	1	-1E+10	1	-1E+10	1
4901784	169	C	02/19/2020	10:43	-132.680	43.389	0	172.20	0	8.0710	0	35.7740	8	27.874	0	170.756	0	201.7	4	70.8	4	-1E+10	1	-1E+10	1	-1E+10	1	-1E+10	1	-1E+10	1	-1E+10	1
4901784	169	C	02/19/2020	10:43	-132.680	43.389	0	175.00	0	8.0200	0	35.8430	8	27.936	0	173.532	0	200.5	4	70.3	4	-1E+10	1	-1E+10	1	-1E+10	1	-1E+10	1	-1E+10	1	-1E+10	1
4901784	169	C	02/19/2020	10:43	-132.680	43.389	0	177.70	0	8.0150	0	35.8590	8	27.950	0	176.208	0	199.4	4	69.9	4	-1E+10	1	-1E+10	1	-1E+10	1	-1E+10	1	-1E+10	1	-1E+10	1
4901784	169	C	02/19/2020	10:43	-132.680	43.389	0	179.60	0	8.0040	0	35.8860	8	27.973	0	178.091	0	198.3	4	69.6	4	-1E+10	1	-1E+10	1	-1E+10	1	-1E+10	1	-1E+10	1	-1E+10	1
4901784	169	C	02/19/2020	10:43	-132.680	43.389	0	182.20	0	7.9970	0	35.9100	8	27.993	0	180.668	0	196.4	4	68.9	4	-1E+10	1	-1E+10	1	-1E+10	1	-1E+10	1	-1E+10	1	-1E+10	1
4901784	169	C	02/19/2020	10:43	-132.680	43.389	0	184.80	0	7.9800	0	35.9620	8	28.036	0	183.245	0	194.3	4	68.2	4	-1E+10	1	-1E+10	1	-1E+10	1	-1E+10	1	-1E+10	1	-1E+10	1
4901784	169	C	02/19/2020	10:43	-132.680	43.389	0	187.40	0	7.9820	0	35.9840	8	28.053	0	185.822	0	193.2	4	67.8	4	-1E+10	1	-1E+10	1	-1E+10	1	-1E+10	1	-1E+10	1	-1E+10	1
4901784	169	C	02/19/2020	10:43	-132.680	43.389	0	190.10	0	7.9820	0	35.9970	8	28.063	0	188.498	0	192.5	4	67.6	4	-1E+10	1	-1E+10	1	-1E+10	1	-1E+10	1	-1E+10	1	-1E+10	1
4901784	169	C	02/19/2020	10:43	-132.680	43.389	0	192.00	0	7.9200	0	36.0180	8	28.089	0	190.381	0	192.4	4	67.5	4	-1E+10	1	-1E+10	1	-1E+10	1	-1E+10	1	-1E+10	1	-1E+10	1
4901784	169	C	02/19/2020	10:43	-132.680	43.389	0	194.70	0	7.8810	0	36.0230	8	28.099	0	193.057	0	192.0	4	67.2	4	-1E+10	1	-1E+10	1	-1E+10	1	-1E+10	1	-1E+10	1	-1E+10	1
4901784	169	C	02/19/2020	10:43	-132.680	43.389	0	197.90	0	7.8840	0	36.0290	8	28.103	0	196.229	0	190.3	4	66.7	4	-1E+10	1	-1E+10	1	-1E+10	1	-1E+10	1	-1E+10	1	-1E+10	1
4901784	169	C	02/19/2020	10:43	-132.680	43.389	0	199.70	0	7.8710	0	36.0510	8	28.123	0	198.013	0	188.7	4	66.1	4	-1E+10	1	-1E+10	1	-1E+10	1	-1E+10	1	-1E+10	1	-1E+10	1
4901784	169	C	02/19/2020	10:43	-132.680	43.389	0	202.10	0	7.8790	0	36.0750	8	28.140	0	200.391	0	186.6	4	65.4	4	-1E+10	1	-1E+10	1	-1E+10	1	-1E+10	1	-1E+10	1	-1E+10	1
4901784	169	C	02/19/2020	10:43	-132.680	43.389	0	205.20	0	7.8870	0	36.0950	8	28.155	0	203.463	0	183.7	4	64.4	4	-1E+10	1	-1E+10	1	-1E+10	1	-1E+10	1	-1E+10	1	-1E+10	1
4901784	169	C	02/19/2020	10:43	-132.680	43.389	0	207.60	0	7.8890	0	36.1110	8	28.167	0	205.842	0	181.3	4	63.5	4	-1E+10	1	-1E+10	1	-1E+10	1	-1E+10	1	-1E+10	1	-1E+10	1
4901784	169	C	02/19/2020	10:43	-132.680	43.389	0	210.10	0	7.8930	0	36.1280	8	28.180	0	208.320	0	178.6	4	62.6	4	-1E+10	1	-1E+10	1	-1E+10	1	-1E+10	1	-1E+10	1	-1E+10	1
4901784	169	C	02/19/2020	10:43	-132.680	43.389	0	212.50	0	7.8800	0	36.1450	8	28.196	0	210.698	0	176.3	4	61.8	4	-1E+10	1	-1E+10	1	-1E+10	1	-1E+10	1	-1E+10	1	-1E+10	1
4901784	169	C	02/19/2020	10:43	-132.680	43.389	0	214.90	0	7.8800	0	36.1520	8	28.201	0	213.076	0	174.8	4	61.3	4	-1E+10	1	-1E+10	1	-1E+10	1	-1E+10	1	-1E+10	1	-1E+10	1
4901784	169	C	02/19/2020	10:43	-132.680	43.389	0	217.30	0	7.8810	0	36.1630	8	28.210	0	215.455	0	173.3	4	60.7	4	-1E+10	1	-1E+10	1	-1E+10	1	-1E+10	1	-1E+10	1	-1E+10	1
4901784	169	C	02/19/2020	10:43	-132.680	43.389	0	219.70	0	7.8760	0	36.1710	8	28.217	0	217.833	0	171.5	4	60.1	4	-1E+10	1	-1E+10	1	-1E+10	1	-1E+10	1	-1E+10	1	-1E+10	1
4901784	169	C	02/19/2020	10:43	-132.680	43.389	0	222.90	0	7.8480	0	36.1860	8	28.233	0	221.004	0	168.9	4	59.2	4	-1E+10	1	-1E+10	1	-1E+10	1	-1E+10	1	-1E+10	1	-1E+10	1
4901784	169	C	02/19/2020	10:43	-132.680	43.389	0	225.40	0	7.8100	0	36.1970	8	28.247	0	223.482	0	167.3	4	58.6	4	-1E+10	1	-1E+10	1	-1E+10	1	-1E+10	1	-1E+10	1	-1E+10	1
4901784	169	C	02/19/2020	10:43	-132.680	43.389	0	227.80	0	7.7660	0	36.2070	8	28.262	0	225.860	0	166.4	4	58.2	4	-1E+10	1	-1E+10	1	-1E+10	1	-1E+10	1	-1E+10	1	-1E+10	1
4901784	169	C	02/19/2020	10:43	-132.680	43.389	0	230.30	0	7.7560	0	36.2090	8	28.265	0	228.337	0	166.0	4	58.1	4	-1E+10	1	-1E+10	1	-1E+10	1	-1E+10	1	-1E+10	1	-1E+10	1
4901784	169	C	02/19/2020	10:43	-132.680	43.389	0	232.80	0	7.7470	0	36.2100	8	28.267	0	230.814	0	165.2	4	57.7	4	-1E+10	1	-1E+10	1	-1E+10	1	-1E+10	1	-1E+10	1	-1E+10	1
4901784	169	C	02/19/2020	10:43	-132.680	43.389	0	235.30	0	7.7270	0	36.2120	8	28.272	0	233.292	0	164.4	4	57.4	4	-1E+10	1	-1E+10	1	-1E+10	1	-1E+10	1	-1E+10	1	-1E+10	1
4901784	169	C	02/19/2020	10:43	-132.680	43.389	0	237.90	0	7.7050	0	36.2130	8	28.276	0	235.868	0	163.4	4	57.1	4	-1E+10	1	-1E+10	1	-1E+10	1	-1E+10	1	-1E+10	1	-1E+10	1
4901784	169	C	02/19/2020	10:43	-132.680	43.389	0	240.40	0	7.6560	0	36.2170	8	28.286	0	238.345	0	162.7	4	56.8	4	-1E+10	1	-1E+10	1	-1E+10	1	-1E+10	1	-1E+10	1	-1E+10	1
4901784	169	C	02/19/2020	10:43	-132.680	43.389	0	242.10	0	7.6300	0	36.2200	8	28.292	0	240.030	0	162.3	4	56.6	4	-1E+10	1	-1E+10	1	-1E+10	1	-1E+10	1	-1E+10	1	-1E+10	1
4901784	169	C	02/19/2020	10:43	-132.680	43.389	0	244.70	0	7.6160	0	36.2200	8	28.295	0	242.606	0	161.6	4	56.3	4	-1E+10	1	-1E+10	1	-1E+10	1	-1E+10	1	-1E+10	1	-1E+10	1
4901784	169	C	02/19/2020	10:43	-132.680	43.389	0	247.20	0	7.6040	0	36.2170	8	28.294	0	245.083	0	160.6	4	56.0	4	-1E+10	1	-1E+10	1	-1E+10	1	-1E+10	1	-1E+10	1	-1E+10	1
4901784	169	C	02/19/2020	10:43	-132.680	43.389	0	249.80	0	7.5540	0	36.2170	8	28.301	0	247.659	0	159.3	4	55.5	4	-1E+10	1	-1E+10	1	-1E+10	1	-1E+10	1	-1E+10	1	-1E+10	1
4901784	169	C	02/19/2020	10:43	-132.680	43.389	0	252.20	0	7.4790	0	36.2190	8	28.314	0	250.037	0	158.1	4	55.0	4	-1E+10	1	-1E+10	1	-1E+10	1	-1E+10	1	-1E+10	1	-1E+10	1
4901784	169	C	02/19/2020	10:43	-132.680	43.389	0	254.80	0	7.4140	0	36.2160	8	28.321	0	252.613	0	157.2	4	54.6	4	-1E+10	1	-1E+10	1	-1E+10	1	-1E+10	1	-1E+10	1	-1E+10	1
4901784	169	C	02/19/2020	10:43	-132.680	43.389	0	257.30	0	7.3550	0	36.2180	8	28.332	0	255.090	0	156.2	4	54.2	4	-1E+10	1	-1E+10	1	-1E+10	1	-1E+10	1	-1E+10	1	-1E+10	1
4901784	169	C	02/19/2020	10:43	-132.680	43.389	0	259.90	0	7.3160	0	36.2170	8	28.336	0	257.666	0	155.1	4	53.7	4	-1E+10	1	-1E+10	1	-1E+10	1	-1E+10	1	-1E+10	1	-1E+10	1
4901784	169	C	02/19/2020	10:43	-132.680	43.389	0	262.50	0	7.2350	0	36.2190	8	28.350	0	260.243	0	154.1	4	53.3	4	-1E+10	1	-1E+10	1	-1E+10	1	-1E+10	1	-1E+10	1	-1E+10	1
4901784	169	C	02/19/2020	10:43	-132.680	43.389	0	265.10	0	7.2020	0	36.2180	8	28.354	0	262.819	0	153.2	4	52.9	4	-1E+10	1	-1E+10	1	-1E+10	1	-1E+10	1	-1E+10	1	-1E+10	1
4901784	169	C	02/19/2020	10:43	-132.680	43.389	0	267.80	0	7.1450	0	36.2170	8	28.361	0	265.494	0	152.3	4	52.5	4	-1E+10	1	-1E+10	1	-1E+10	1	-1E+10	1	-1E+10	1	-1E+10	1
4901784	169	C	02/19/2020	10:43	-132.680	43.389	0	270.40	0	7.0890	0	36.2190	8	28.371	0	268.069	0	151.6	4	52.2	4	-1E+10	1	-1E+10	1	-1E+10	1	-1E+10	1	-1E+10	1	-1E+10	1
4901784	169	C	02/19/2020	10:43	-132.680	43.389	0	273.00	0	7.0590	0	36.2190	8	28.375	0	270.645	0	150.9	4	52.0	4	-1E+10	1	-1E+10	1	-1E+10	1	-1E+10	1	-1E+10	1	-1E+10	1
4901784	169	C	02/19/2020	10:43	-132.680	43.389	0	274.70	0	7.0370	0	36.2200	8	28.379	0	272.330	0	150.4	4	51.7	4	-1E+10	1	-1E+10	1	-1E+10	1	-1E+10	1	-1E+10	1	-1E+10	1
4901784	169	C	02/19/2020	10:43	-132.680	43.389	0	277.30	0	7.0080	0	36.2220	8	28.385	0	274.905	0	149.8	4	51.5	4	-1E+10	1	-1E+10	1	-1E+10	1	-1E+10	1	-1E+10	1	-1E+10	1
4901784	169	C	02/19/2020	10:43	-132.680	43.389	0	279.90	0	7.0060	0	36.2210	8	28.384	0	277.481	0	149.2	4	51.3	4	-1E+10	1	-1E+10	1	-1E+10	1	-1E+10	1	-1E+10	1	-1E+10	1
4901784	169	C	02/19/2020	10:43	-132.680	43.389	0	282.60	0	6.9820	0	36.2240	8	28.390	0	280.156	0	148.2	4	50.9	4	-1E+10	1	-1E+10	1	-1E+10	1	-1E+10	1	-1E+10	1	-1E+10	1
4901784	169	C	02/19/2020	10:43	-132.680	43.389	0	285.20	0	6.9610	0	36.2220	8	28.392	0	282.732	0	147.2	4	50.6	4	-1E+10	1	-1E+10	1	-1E+10	1	-1E+10	1	-1E+10	1	-1E+10	1
4901784	169	C	02/19/2020	10:43	-132.680	43.389	0	287.80	0	6.9370	0	36.2210	8	28.394	0	285.307	0	145.5	4	50.0	4	-1E+10	1	-1E+10	1	-1E+10	1	-1E+10	1	-1E+10	1	-1E+10	1
4901784	169	C	02/19/2020	10:43	-132.680	43.389	0	290.30	0	6.8830	0	36.2260	8	28.406	0	287.784	0	144.0	4	49.4	4	-1E+10	1	-1E+10	1	-1E+10	1	-1E+10	1	-1E+10	1	-1E+10	1
4901784	169	C	02/19/2020	10:43	-132.680	43.389	0	292.10	0	6.8690	0	36.2260	8	28.408	0	289.567	0	143.3	4	49.1	4	-1E+10	1	-1E+10	1	-1E+10	1	-1E+10	1	-1E+10	1	-1E+10	1
4901784	169	C	02/19/2020	10:43	-132.680	43.389	0	294.60	0	6.8440	0	36.2270	8	28.412	0	292.044	0	142.0	4	48.7	4	-1E+10	1	-1E+10	1	-1E+10	1	-1E+10	1	-1E+10	1	-1E+10	1
4901784	169	C	02/19/2020	10:43	-132.680	43.389	0	297.30	0	6.8080	0	36.2280	8	28.418	0	294.718	0	140.7	4	48.2	4	-1E+10	1	-1E+10	1	-1E+10	1	-1E+10	1	-1E+10	1	-1E+10	1
4901784	169	C	02/19/2020	10:43	-132.680	43.389	0	299.80	0	6.7910	0	36.2280	8	28.420	0	297.195	0	138.8	4	47.5	4	-1E+10	1	-1E+10	1	-1E+10	1	-1E+10	1	-1E+10	1	-1E+10	1
4901784	169	C	02/19/2020	10:43	-132.680	43.389	0	302.40	0	6.7610	0	36.2280	8	28.425	0	299.770	0	136.3	4	46.6	4	-1E+10	1	-1E+10	1	-1E+10	1	-1E+10	1	-1E+10	1	-1E+10	1
4901784	169	C	02/19/2020	10:43	-132.680	43.389	0	305.00	0	6.7270	0	36.2310	8	28.432	0	302.346	0	134.2	4	45.9	4	-1E+10	1	-1E+10	1	-1E+10	1	-1E+10	1	-1E+10	1	-1E+10	1
4901784	169	C	02/19/2020	10:43	-132.680	43.389	0	307.50	0	6.7150	0	36.2300	8	28.433	0	304.822	0	132.0	4	45.1	4	-1E+10	1	-1E+10	1	-1E+10	1	-1E+10	1	-1E+10	1	-1E+10	1
4901784	169	C	02/19/2020	10:43	-132.680	43.389	0	310.20	0	6.6610	0	36.2330	8	28.443	0	307.497	0	129.8	4	44.3	4	-1E+10	1	-1E+10	1	-1E+10	1	-1E+10	1	-1E+10	1	-1E+10	1
4901784	169	C	02/19/2020	10:43	-132.680	43.389	0	312.70	0	6.6040	0	36.2340	8	28.451	0	309.973	0	128.4	4	43.8	4	-1E+10	1	-1E+10	1	-1E+10	1	-1E+10	1	-1E+10	1	-1E+10	1
4901784	169	C	02/19/2020	10:43	-132.680	43.389	0	315.20	0	6.6000	0	36.2340	8	28.452	0	312.450	0	127.2	4	43.4	4	-1E+10	1	-1E+10	1	-1E+10	1	-1E+10	1	-1E+10	1	-1E+10	1
4901784	169	C	02/19/2020	10:43	-132.680	43.389	0	317.80	0	6.5750	0	36.2330	8	28.455	0	315.025	0	125.6	4	42.8	4	-1E+10	1	-1E+10	1	-1E+10	1	-1E+10	1	-1E+10	1	-1E+10	1
4901784	169	C	02/19/2020	10:43	-132.680	43.389	0	319.50	0	6.5280	0	36.2360	8	28.463	0	316.709	0	124.5	4	42.4	4	-1E+10	1	-1E+10	1	-1E+10	1	-1E+10	1	-1E+10	1	-1E+10	1
4901784	169	C	02/19/2020	10:43	-132.680	43.389	0	322.10	0	6.4890	0	36.2380	8	28.470	0	319.284	0	123.1	4	41.8	4	-1E+10	1	-1E+10	1	-1E+10	1	-1E+10	1	-1E+10	1	-1E+10	1
4901784	169	C	02/19/2020	10:43	-132.680	43.389	0	324.70	0	6.4500	0	36.2390	8	28.476	0	321.859	0	121.9	4	41.4	4	-1E+10	1	-1E+10	1	-1E+10	1	-1E+10	1	-1E+10	1	-1E+10	1
4901784	169	C	02/19/2020	10:43	-132.680	43.389	0	327.30	0	6.4250	0	36.2390	8	28.480	0	324.434	0	120.4	4	40.9	4	-1E+10	1	-1E+10	1	-1E+10	1	-1E+10	1	-1E+10	1	-1E+10	1
4901784	169	C	02/19/2020	10:43	-132.680	43.389	0	330.00	0	6.4040	0	36.2360	8	28.480	0	327.109	0	118.8	4	40.3	4	-1E+10	1	-1E+10	1	-1E+10	1	-1E+10	1	-1E+10	1	-1E+10	1
4901784	169	C	02/19/2020	10:43	-132.680	43.389	0	332.70	0	6.3230	0	36.2410	8	28.495	0	329.783	0	117.2	4	39.7	4	-1E+10	1	-1E+10	1	-1E+10	1	-1E+10	1	-1E+10	1	-1E+10	1
4901784	169	C	02/19/2020	10:43	-132.680	43.389	0	335.30	0	6.2750	0	36.2430	8	28.503	0	332.358	0	116.0	4	39.2	4	-1E+10	1	-1E+10	1	-1E+10	1	-1E+10	1	-1E+10	1	-1E+10	1
4901784	169	C	02/19/2020	10:43	-132.680	43.389	0	337.10	0	6.2630	0	36.2430	8	28.505	0	334.141	0	115.3	4	39.0	4	-1E+10	1	-1E+10	1	-1E+10	1	-1E+10	1	-1E+10	1	-1E+10	1
4901784	169	C	02/19/2020	10:43	-132.680	43.389	0	339.80	0	6.2340	0	36.2440	8	28.510	0	336.815	0	114.3	4	38.6	4	-1E+10	1	-1E+10	1	-1E+10	1	-1E+10	1	-1E+10	1	-1E+10	1
4901784	169	C	02/19/2020	10:43	-132.680	43.389	0	342.40	0	6.2100	0	36.2430	8	28.512	0	339.390	0	112.9	4	38.1	4	-1E+10	1	-1E+10	1	-1E+10	1	-1E+10	1	-1E+10	1	-1E+10	1
4901784	169	C	02/19/2020	10:43	-132.680	43.389	0	345.10	0	6.1530	0	36.2450	8	28.521	0	342.064	0	111.4	4	37.6	4	-1E+10	1	-1E+10	1	-1E+10	1	-1E+10	1	-1E+10	1	-1E+10	1
4901784	169	C	02/19/2020	10:43	-132.680	43.389	0	347.80	0	6.1120	0	36.2460	8	28.527	0	344.738	0	110.1	4	37.1	4	-1E+10	1	-1E+10	1	-1E+10	1	-1E+10	1	-1E+10	1	-1E+10	1
4901784	169	C	02/19/2020	10:43	-132.680	43.389	0	349.70	0	6.0940	0	36.2480	8	28.531	0	346.620	0	109.0	4	36.7	4	-1E+10	1	-1E+10	1	-1E+10	1	-1E+10	1	-1E+10	1	-1E+10	1
4901784	169	C	02/19/2020	10:43	-132.680	43.389	0	352.00	0	6.0410	0	36.2470	8	28.538	0	348.897	0	107.7	4	36.2	4	-1E+10	1	-1E+10	1	-1E+10	1	-1E+10	1	-1E+10	1	-1E+10	1
4901784	169	C	02/19/2020	10:43	-132.680	43.389	0	354.70	0	6.0010	0	36.2470	8	28.543	0	351.571	0	106.1	4	35.7	4	-1E+10	1	-1E+10	1	-1E+10	1	-1E+10	1	-1E+10	1	-1E+10	1
4901784	169	C	02/19/2020	10:43	-132.680	43.389	0	357.80	0	5.9650	0	36.2460	8	28.547	0	354.641	0	103.9	4	34.9	4	-1E+10	1	-1E+10	1	-1E+10	1	-1E+10	1	-1E+10	1	-1E+10	1
4901784	169	C	02/19/2020	10:43	-132.680	43.389	0	360.00	0	5.9210	0	36.2470	8	28.553	0	356.820	0	102.0	4	34.2	4	-1E+10	1	-1E+10	1	-1E+10	1	-1E+10	1	-1E+10	1	-1E+10	1
4901784	169	C	02/19/2020	10:43	-132.680	43.389	0	362.30	0	5.8750	0	36.2490	8	28.561	0	359.098	0	100.1	4	33.6	4	-1E+10	1	-1E+10	1	-1E+10	1	-1E+10	1	-1E+10	1	-1E+10	1
4901784	169	C	02/19/2020	10:43	-132.680	43.389	0	364.70	0	5.8120	0	36.2520	8	28.571	0	361.474	0	98.6	4	33.0	4	-1E+10	1	-1E+10	1	-1E+10	1	-1E+10	1	-1E+10	1	-1E+10	1
4901784	169	C	02/19/2020	10:43	-132.680	43.389	0	367.20	0	5.7950	0	36.2520	8	28.574	0	363.950	0	97.3	4	32.5	4	-1E+10	1	-1E+10	1	-1E+10	1	-1E+10	1	-1E+10	1	-1E+10	1
4901784	169	C	02/19/2020	10:43	-132.680	43.389	0	369.60	0	5.7700	0	36.2520	8	28.577	0	366.327	0	95.8	4	32.0	4	-1E+10	1	-1E+10	1	-1E+10	1	-1E+10	1	-1E+10	1	-1E+10	1
4901784	169	C	02/19/2020	10:43	-132.680	43.389	0	372.10	0	5.7260	0	36.2560	8	28.586	0	368.802	0	94.7	4	31.6	4	-1E+10	1	-1E+10	1	-1E+10	1	-1E+10	1	-1E+10	1	-1E+10	1
4901784	169	C	02/19/2020	10:43	-132.680	43.389	0	375.30	0	5.6860	0	36.2570	8	28.592	0	371.971	0	93.6	4	31.2	4	-1E+10	1	-1E+10	1	-1E+10	1	-1E+10	1	-1E+10	1	-1E+10	1
4901784	169	C	02/19/2020	10:43	-132.680	43.389	0	377.70	0	5.6630	0	36.2560	8	28.594	0	374.348	0	92.7	4	30.9	4	-1E+10	1	-1E+10	1	-1E+10	1	-1E+10	1	-1E+10	1	-1E+10	1
4901784	169	C	02/19/2020	10:43	-132.680	43.389	0	380.20	0	5.6310	0	36.2560	8	28.598	0	376.823	0	91.5	4	30.5	4	-1E+10	1	-1E+10	1	-1E+10	1	-1E+10	1	-1E+10	1	-1E+10	1
4901784	169	C	02/19/2020	10:43	-132.680	43.389	0	382.70	0	5.5650	0	36.2600	8	28.609	0	379.299	0	90.0	4	30.0	4	-1E+10	1	-1E+10	1	-1E+10	1	-1E+10	1	-1E+10	1	-1E+10	1
4901784	169	C	02/19/2020	10:43	-132.680	43.389	0	385.20	0	5.5530	0	36.2590	8	28.610	0	381.774	0	88.4	4	29.4	4	-1E+10	1	-1E+10	1	-1E+10	1	-1E+10	1	-1E+10	1	-1E+10	1
4901784	169	C	02/19/2020	10:43	-132.680	43.389	0	387.70	0	5.5110	0	36.2630	8	28.619	0	384.250	0	86.5	4	28.7	4	-1E+10	1	-1E+10	1	-1E+10	1	-1E+10	1	-1E+10	1	-1E+10	1
4901784	169	C	02/19/2020	10:43	-132.680	43.389	0	390.30	0	5.4930	0	36.2650	8	28.623	0	386.824	0	84.9	4	28.2	4	-1E+10	1	-1E+10	1	-1E+10	1	-1E+10	1	-1E+10	1	-1E+10	1
4901784	169	C	02/19/2020	10:43	-132.680	43.389	0	393.00	0	5.4630	0	36.2670	8	28.628	0	389.498	0	84.1	4	27.9	4	-1E+10	1	-1E+10	1	-1E+10	1	-1E+10	1	-1E+10	1	-1E+10	1
4901784	169	C	02/19/2020	10:43	-132.680	43.389	0	394.80	0	5.4390	0	36.2680	8	28.632	0	391.280	0	83.8	4	27.8	4	-1E+10	1	-1E+10	1	-1E+10	1	-1E+10	1	-1E+10	1	-1E+10	1
4901784	169	C	02/19/2020	10:43	-132.680	43.389	0	397.50	0	5.4320	0	36.2670	8	28.632	0	393.953	0	82.8	4	27.5	4	-1E+10	1	-1E+10	1	-1E+10	1	-1E+10	1	-1E+10	1	-1E+10	1
4901784	169	C	02/19/2020	10:43	-132.680	43.389	0	400.10	0	5.4170	0	36.2660	8	28.633	0	396.528	0	81.2	4	26.9	4	-1E+10	1	-1E+10	1	-1E+10	1	-1E+10	1	-1E+10	1	-1E+10	1
4901784	169	C	02/19/2020	10:43	-132.680	43.389	0	402.70	0	5.3690	0	36.2700	8	28.642	0	399.102	0	79.2	4	26.2	4	-1E+10	1	-1E+10	1	-1E+10	1	-1E+10	1	-1E+10	1	-1E+10	1
4901784	169	C	02/19/2020	10:43	-132.680	43.389	0	405.40	0	5.3270	0	36.2710	8	28.648	0	401.775	0	78.0	4	25.8	4	-1E+10	1	-1E+10	1	-1E+10	1	-1E+10	1	-1E+10	1	-1E+10	1
4901784	169	C	02/19/2020	10:43	-132.680	43.389	0	407.20	0	5.3120	0	36.2710	8	28.650	0	403.557	0	77.3	4	25.6	4	-1E+10	1	-1E+10	1	-1E+10	1	-1E+10	1	-1E+10	1	-1E+10	1
4901784	169	C	02/19/2020	10:43	-132.680	43.389	0	409.90	0	5.2370	0	36.2770	8	28.664	0	406.230	0	76.2	4	25.2	4	-1E+10	1	-1E+10	1	-1E+10	1	-1E+10	1	-1E+10	1	-1E+10	1
4901784	169	C	02/19/2020	10:43	-132.680	43.389	0	412.60	0	5.2050	0	36.2790	8	28.669	0	408.904	0	75.4	4	24.9	4	-1E+10	1	-1E+10	1	-1E+10	1	-1E+10	1	-1E+10	1	-1E+10	1
4901784	169	C	02/19/2020	10:43	-132.680	43.389	0	414.40	0	5.1750	0	36.2830	8	28.676	0	410.686	0	75.0	4	24.7	4	-1E+10	1	-1E+10	1	-1E+10	1	-1E+10	1	-1E+10	1	-1E+10	1
4901784	169	C	02/19/2020	10:43	-132.680	43.389	0	417.20	0	5.1590	0	36.2830	8	28.678	0	413.458	0	74.7	4	24.6	4	-1E+10	1	-1E+10	1	-1E+10	1	-1E+10	1	-1E+10	1	-1E+10	1
4901784	169	C	02/19/2020	10:43	-132.680	43.389	0	420.00	0	5.1530	0	36.2830	8	28.679	0	416.230	0	74.2	4	24.5	4	-1E+10	1	-1E+10	1	-1E+10	1	-1E+10	1	-1E+10	1	-1E+10	1
4901784	169	C	02/19/2020	10:43	-132.680	43.389	0	422.70	0	5.1390	0	36.2840	8	28.681	0	418.903	0	73.5	4	24.2	4	-1E+10	1	-1E+10	1	-1E+10	1	-1E+10	1	-1E+10	1	-1E+10	1
4901784	169	C	02/19/2020	10:43	-132.680	43.389	0	425.50	0	5.1170	0	36.2860	8	28.686	0	421.675	0	72.9	4	24.0	4	-1E+10	1	-1E+10	1	-1E+10	1	-1E+10	1	-1E+10	1	-1E+10	1
4901784	169	C	02/19/2020	10:43	-132.680	43.389	0	427.30	0	5.1110	0	36.2860	8	28.686	0	423.457	0	72.5	4	23.9	4	-1E+10	1	-1E+10	1	-1E+10	1	-1E+10	1	-1E+10	1	-1E+10	1
4901784	169	C	02/19/2020	10:43	-132.680	43.389	0	430.10	0	5.0860	0	36.2900	8	28.693	0	426.229	0	71.7	4	23.6	4	-1E+10	1	-1E+10	1	-1E+10	1	-1E+10	1	-1E+10	1	-1E+10	1
4901784	169	C	02/19/2020	10:43	-132.680	43.389	0	432.90	0	5.0800	0	36.2910	8	28.694	0	429.001	0	71.0	4	23.4	4	-1E+10	1	-1E+10	1	-1E+10	1	-1E+10	1	-1E+10	1	-1E+10	1
4901784	169	C	02/19/2020	10:43	-132.680	43.389	0	434.80	0	5.0760	0	36.2900	8	28.694	0	430.882	0	70.4	4	23.2	4	-1E+10	1	-1E+10	1	-1E+10	1	-1E+10	1	-1E+10	1	-1E+10	1
4901784	169	C	02/19/2020	10:43	-132.680	43.389	0	437.60	0	5.0560	0	36.2930	8	28.699	0	433.654	0	69.1	4	22.7	4	-1E+10	1	-1E+10	1	-1E+10	1	-1E+10	1	-1E+10	1	-1E+10	1
4901784	169	C	02/19/2020	10:43	-132.680	43.389	0	440.40	0	5.0140	0	36.2990	8	28.709	0	436.425	0	67.8	4	22.3	4	-1E+10	1	-1E+10	1	-1E+10	1	-1E+10	1	-1E+10	1	-1E+10	1
4901784	169	C	02/19/2020	10:43	-132.680	43.389	0	442.40	0	5.0010	0	36.3010	8	28.712	0	438.405	0	67.1	4	22.1	4	-1E+10	1	-1E+10	1	-1E+10	1	-1E+10	1	-1E+10	1	-1E+10	1
4901784	169	C	02/19/2020	10:43	-132.680	43.389	0	444.30	0	5.0000	0	36.3020	8	28.713	0	440.286	0	66.4	4	21.8	4	-1E+10	1	-1E+10	1	-1E+10	1	-1E+10	1	-1E+10	1	-1E+10	1
4901784	169	C	02/19/2020	10:43	-132.680	43.389	0	447.20	0	4.9840	0	36.3040	8	28.716	0	443.157	0	65.3	4	21.4	4	-1E+10	1	-1E+10	1	-1E+10	1	-1E+10	1	-1E+10	1	-1E+10	1
4901784	169	C	02/19/2020	10:43	-132.680	43.389	0	450.10	0	4.9560	0	36.3080	8	28.723	0	446.027	0	64.0	4	21.0	4	-1E+10	1	-1E+10	1	-1E+10	1	-1E+10	1	-1E+10	1	-1E+10	1
4901784	169	C	02/19/2020	10:43	-132.680	43.389	0	452.00	0	4.9370	0	36.3110	8	28.727	0	447.908	0	62.9	4	20.6	4	-1E+10	1	-1E+10	1	-1E+10	1	-1E+10	1	-1E+10	1	-1E+10	1
4901784	169	C	02/19/2020	10:43	-132.680	43.389	0	454.90	0	4.9380	0	36.3150	8	28.730	0	450.779	0	61.3	4	20.1	4	-1E+10	1	-1E+10	1	-1E+10	1	-1E+10	1	-1E+10	1	-1E+10	1
4901784	169	C	02/19/2020	10:43	-132.680	43.389	0	457.80	0	4.9120	0	36.3210	8	28.738	0	453.649	0	59.7	4	19.6	4	-1E+10	1	-1E+10	1	-1E+10	1	-1E+10	1	-1E+10	1	-1E+10	1
4901784	169	C	02/19/2020	10:43	-132.680	43.389	0	459.80	0	4.9070	0	36.3280	8	28.744	0	455.629	0	58.4	4	19.2	4	-1E+10	1	-1E+10	1	-1E+10	1	-1E+10	1	-1E+10	1	-1E+10	1
4901784	169	C	02/19/2020	10:43	-132.680	43.389	0	462.60	0	4.8790	0	36.3330	8	28.752	0	458.400	0	57.3	4	18.8	4	-1E+10	1	-1E+10	1	-1E+10	1	-1E+10	1	-1E+10	1	-1E+10	1
4901784	169	C	02/19/2020	10:43	-132.680	43.389	0	465.40	0	4.8860	0	36.3400	8	28.757	0	461.172	0	56.3	4	18.5	4	-1E+10	1	-1E+10	1	-1E+10	1	-1E+10	1	-1E+10	1	-1E+10	1
4901784	169	C	02/19/2020	10:43	-132.680	43.389	0	467.40	0	4.8880	0	36.3420	8	28.758	0	463.152	0	55.9	4	18.3	4	-1E+10	1	-1E+10	1	-1E+10	1	-1E+10	1	-1E+10	1	-1E+10	1
4901784	169	C	02/19/2020	10:43	-132.680	43.389	0	469.30	0	4.8880	0	36.3430	8	28.759	0	465.032	0	55.6	4	18.2	4	-1E+10	1	-1E+10	1	-1E+10	1	-1E+10	1	-1E+10	1	-1E+10	1
4901784	169	C	02/19/2020	10:43	-132.680	43.389	0	472.20	0	4.8880	0	36.3430	8	28.759	0	467.903	0	54.9	4	18.0	4	-1E+10	1	-1E+10	1	-1E+10	1	-1E+10	1	-1E+10	1	-1E+10	1
4901784	169	C	02/19/2020	10:43	-132.680	43.389	0	475.10	0	4.8850	0	36.3430	8	28.759	0	470.773	0	53.9	4	17.7	4	-1E+10	1	-1E+10	1	-1E+10	1	-1E+10	1	-1E+10	1	-1E+10	1
4901784	169	C	02/19/2020	10:43	-132.680	43.389	0	477.00	0	4.8690	0	36.3490	8	28.766	0	472.653	0	53.2	4	17.4	4	-1E+10	1	-1E+10	1	-1E+10	1	-1E+10	1	-1E+10	1	-1E+10	1
4901784	169	C	02/19/2020	10:43	-132.680	43.389	0	479.90	0	4.8690	0	36.3540	8	28.770	0	475.524	0	52.4	4	17.2	4	-1E+10	1	-1E+10	1	-1E+10	1	-1E+10	1	-1E+10	1	-1E+10	1
4901784	169	C	02/19/2020	10:43	-132.680	43.389	0	482.70	0	4.8590	0	36.3550	8	28.772	0	478.295	0	51.8	4	17.0	4	-1E+10	1	-1E+10	1	-1E+10	1	-1E+10	1	-1E+10	1	-1E+10	1
4901784	169	C	02/19/2020	10:43	-132.680	43.389	0	484.60	0	4.8480	0	36.3570	8	28.775	0	480.175	0	51.3	4	16.8	4	-1E+10	1	-1E+10	1	-1E+10	1	-1E+10	1	-1E+10	1	-1E+10	1
4901784	169	C	02/19/2020	10:43	-132.680	43.389	0	487.50	0	4.8390	0	36.3580	8	28.777	0	483.045	0	50.5	4	16.5	4	-1E+10	1	-1E+10	1	-1E+10	1	-1E+10	1	-1E+10	1	-1E+10	1
4901784	169	C	02/19/2020	10:43	-132.680	43.389	0	490.40	0	4.8190	0	36.3610	8	28.781	0	485.916	0	49.4	4	16.2	4	-1E+10	1	-1E+10	1	-1E+10	1	-1E+10	1	-1E+10	1	-1E+10	1
4901784	169	C	02/19/2020	10:43	-132.680	43.389	0	492.30	0	4.8190	0	36.3680	8	28.787	0	487.796	0	48.5	4	15.9	4	-1E+10	1	-1E+10	1	-1E+10	1	-1E+10	1	-1E+10	1	-1E+10	1
4901784	169	C	02/19/2020	10:43	-132.680	43.389	0	495.10	0	4.8150	0	36.3710	8	28.790	0	490.567	0	47.9	4	15.7	4	-1E+10	1	-1E+10	1	-1E+10	1	-1E+10	1	-1E+10	1	-1E+10	1
4901784	169	C	02/19/2020	10:43	-132.680	43.389	0	498.00	0	4.8140	0	36.3720	8	28.791	0	493.437	0	47.1	4	15.4	4	-1E+10	1	-1E+10	1	-1E+10	1	-1E+10	1	-1E+10	1	-1E+10	1
4901784	169	C	02/19/2020	10:43	-132.680	43.389	0	499.90	0	4.8130	0	36.3720	8	28.791	0	495.317	0	46.3	4	15.2	4	-1E+10	1	-1E+10	1	-1E+10	1	-1E+10	1	-1E+10	1	-1E+10	1
4901784	169	C	02/19/2020	10:43	-132.680	43.389	0	505.60	0	4.8040	0	36.3860	8	28.803	0	500.958	0	43.2	4	14.1	4	-1E+10	1	-1E+10	1	-1E+10	1	-1E+10	1	-1E+10	1	-1E+10	1
4901784	169	C	02/19/2020	10:43	-132.680	43.389	0	510.30	0	4.7940	0	36.3940	8	28.811	0	505.609	0	41.5	4	13.6	4	-1E+10	1	-1E+10	1	-1E+10	1	-1E+10	1	-1E+10	1	-1E+10	1
4901784	169	C	02/19/2020	10:43	-132.680	43.389	0	515.10	0	4.7580	0	36.4030	8	28.822	0	510.359	0	40.1	4	13.1	4	-1E+10	1	-1E+10	1	-1E+10	1	-1E+10	1	-1E+10	1	-1E+10	1
4901784	169	C	02/19/2020	10:43	-132.680	43.389	0	519.90	0	4.7520	0	36.4090	8	28.828	0	515.109	0	39.0	4	12.8	4	-1E+10	1	-1E+10	1	-1E+10	1	-1E+10	1	-1E+10	1	-1E+10	1
4901784	169	C	02/19/2020	10:43	-132.680	43.389	0	524.60	0	4.7350	0	36.4110	8	28.831	0	519.760	0	38.6	4	12.6	4	-1E+10	1	-1E+10	1	-1E+10	1	-1E+10	1	-1E+10	1	-1E+10	1
4901784	169	C	02/19/2020	10:43	-132.680	43.389	0	530.30	0	4.6660	0	36.4120	8	28.840	0	525.400	0	38.3	4	12.5	4	-1E+10	1	-1E+10	1	-1E+10	1	-1E+10	1	-1E+10	1	-1E+10	1
4901784	169	C	02/19/2020	10:43	-132.680	43.389	0	535.00	0	4.6030	0	36.4170	8	28.851	0	530.051	0	37.8	4	12.3	4	-1E+10	1	-1E+10	1	-1E+10	1	-1E+10	1	-1E+10	1	-1E+10	1
4901784	169	C	02/19/2020	10:43	-132.680	43.389	0	539.70	0	4.5950	0	36.4200	8	28.855	0	534.701	0	37.1	4	12.1	4	-1E+10	1	-1E+10	1	-1E+10	1	-1E+10	1	-1E+10	1	-1E+10	1
4901784	169	C	02/19/2020	10:43	-132.680	43.389	0	545.30	0	4.5930	0	36.4230	8	28.857	0	540.242	0	35.8	4	11.7	4	-1E+10	1	-1E+10	1	-1E+10	1	-1E+10	1	-1E+10	1	-1E+10	1
4901784	169	C	02/19/2020	10:43	-132.680	43.389	0	550.00	0	4.5720	0	36.4310	8	28.866	0	544.893	0	34.7	4	11.3	4	-1E+10	1	-1E+10	1	-1E+10	1	-1E+10	1	-1E+10	1	-1E+10	1
4901784	169	C	02/19/2020	10:43	-132.680	43.389	0	554.60	0	4.5840	0	36.4370	8	28.870	0	549.444	0	33.7	4	11.0	4	-1E+10	1	-1E+10	1	-1E+10	1	-1E+10	1	-1E+10	1	-1E+10	1
4901784	169	C	02/19/2020	10:43	-132.680	43.389	0	560.20	0	4.5990	0	36.4390	8	28.870	0	554.984	0	33.0	4	10.7	4	-1E+10	1	-1E+10	1	-1E+10	1	-1E+10	1	-1E+10	1	-1E+10	1
4901784	169	C	02/19/2020	10:43	-132.680	43.389	0	564.90	0	4.5620	0	36.4410	8	28.875	0	559.634	0	32.4	4	10.6	4	-1E+10	1	-1E+10	1	-1E+10	1	-1E+10	1	-1E+10	1	-1E+10	1
4901784	169	C	02/19/2020	10:43	-132.680	43.389	0	570.30	0	4.5360	0	36.4490	8	28.885	0	564.976	0	31.7	4	10.3	4	-1E+10	1	-1E+10	1	-1E+10	1	-1E+10	1	-1E+10	1	-1E+10	1
4901784	169	C	02/19/2020	10:43	-132.680	43.389	0	575.50	0	4.5420	0	36.4510	8	28.886	0	570.121	0	31.0	4	10.1	4	-1E+10	1	-1E+10	1	-1E+10	1	-1E+10	1	-1E+10	1	-1E+10	1
4901784	169	C	02/19/2020	10:43	-132.680	43.389	0	580.30	0	4.5300	0	36.4540	8	28.890	0	574.869	0	30.2	4	9.8	4	-1E+10	1	-1E+10	1	-1E+10	1	-1E+10	1	-1E+10	1	-1E+10	1
4901784	169	C	02/19/2020	10:43	-132.680	43.389	0	585.00	0	4.5090	0	36.4590	8	28.896	0	579.519	0	29.4	4	9.6	4	-1E+10	1	-1E+10	1	-1E+10	1	-1E+10	1	-1E+10	1	-1E+10	1
4901784	169	C	02/19/2020	10:43	-132.680	43.389	0	589.80	0	4.4950	0	36.4620	8	28.900	0	584.267	0	28.7	4	9.3	4	-1E+10	1	-1E+10	1	-1E+10	1	-1E+10	1	-1E+10	1	-1E+10	1
4901784	169	C	02/19/2020	10:43	-132.680	43.389	0	594.70	0	4.4860	0	36.4670	8	28.905	0	589.114	0	27.4	4	8.9	4	-1E+10	1	-1E+10	1	-1E+10	1	-1E+10	1	-1E+10	1	-1E+10	1
4901784	169	C	02/19/2020	10:43	-132.680	43.389	0	599.70	0	4.4750	0	36.4770	8	28.914	0	594.060	0	26.3	4	8.5	4	-1E+10	1	-1E+10	1	-1E+10	1	-1E+10	1	-1E+10	1	-1E+10	1
4901784	169	C	02/19/2020	10:43	-132.680	43.389	0	604.70	0	4.4440	0	36.4810	8	28.921	0	599.006	0	25.9	4	8.4	4	-1E+10	1	-1E+10	1	-1E+10	1	-1E+10	1	-1E+10	1	-1E+10	1
4901784	169	C	02/19/2020	10:43	-132.680	43.389	0	609.60	0	4.4210	0	36.4830	8	28.925	0	603.853	0	25.3	4	8.2	4	-1E+10	1	-1E+10	1	-1E+10	1	-1E+10	1	-1E+10	1	-1E+10	1
4901784	169	C	02/19/2020	10:43	-132.680	43.389	0	614.60	0	4.3950	0	36.4870	8	28.931	0	608.798	0	24.6	4	8.0	4	-1E+10	1	-1E+10	1	-1E+10	1	-1E+10	1	-1E+10	1	-1E+10	1
4901784	169	C	02/19/2020	10:43	-132.680	43.389	0	619.70	0	4.3800	0	36.4930	8	28.938	0	613.842	0	23.6	4	7.6	4	-1E+10	1	-1E+10	1	-1E+10	1	-1E+10	1	-1E+10	1	-1E+10	1
4901784	169	C	02/19/2020	10:43	-132.680	43.389	0	624.80	0	4.3800	0	36.5050	8	28.948	0	618.887	0	22.6	4	7.3	4	-1E+10	1	-1E+10	1	-1E+10	1	-1E+10	1	-1E+10	1	-1E+10	1
4901784	169	C	02/19/2020	10:43	-132.680	43.389	0	629.80	0	4.3710	0	36.5070	8	28.950	0	623.832	0	22.1	4	7.2	4	-1E+10	1	-1E+10	1	-1E+10	1	-1E+10	1	-1E+10	1	-1E+10	1
4901784	169	C	02/19/2020	10:43	-132.680	43.389	0	635.00	0	4.3550	0	36.5140	8	28.958	0	628.975	0	21.3	4	6.9	4	-1E+10	1	-1E+10	1	-1E+10	1	-1E+10	1	-1E+10	1	-1E+10	1
4901784	169	C	02/19/2020	10:43	-132.680	43.389	0	640.30	0	4.3440	0	36.5190	8	28.963	0	634.216	0	20.6	4	6.7	4	-1E+10	1	-1E+10	1	-1E+10	1	-1E+10	1	-1E+10	1	-1E+10	1
4901784	169	C	02/19/2020	10:43	-132.680	43.389	0	645.50	0	4.3400	0	36.5260	8	28.969	0	639.359	0	20.0	4	6.5	4	-1E+10	1	-1E+10	1	-1E+10	1	-1E+10	1	-1E+10	1	-1E+10	1
4901784	169	C	02/19/2020	10:43	-132.680	43.389	0	649.90	0	4.3210	0	36.5270	8	28.972	0	643.710	0	19.5	4	6.3	4	-1E+10	1	-1E+10	1	-1E+10	1	-1E+10	1	-1E+10	1	-1E+10	1
4901784	169	C	02/19/2020	10:43	-132.680	43.389	0	654.30	0	4.3030	0	36.5330	8	28.979	0	648.062	0	19.0	4	6.1	4	-1E+10	1	-1E+10	1	-1E+10	1	-1E+10	1	-1E+10	1	-1E+10	1
4901784	169	C	02/19/2020	10:43	-132.680	43.389	0	659.60	0	4.2750	0	36.5380	8	28.986	0	653.303	0	18.7	4	6.0	4	-1E+10	1	-1E+10	1	-1E+10	1	-1E+10	1	-1E+10	1	-1E+10	1
4901784	169	C	02/19/2020	10:43	-132.680	43.389	0	665.10	0	4.2470	0	36.5390	8	28.990	0	658.742	0	18.4	4	5.9	4	-1E+10	1	-1E+10	1	-1E+10	1	-1E+10	1	-1E+10	1	-1E+10	1
4901784	169	C	02/19/2020	10:43	-132.680	43.389	0	669.80	0	4.2290	0	36.5420	8	28.994	0	663.389	0	17.9	4	5.8	4	-1E+10	1	-1E+10	1	-1E+10	1	-1E+10	1	-1E+10	1	-1E+10	1
4901784	169	C	02/19/2020	10:43	-132.680	43.389	0	674.40	0	4.2110	0	36.5480	8	29.001	0	667.938	0	17.5	4	5.7	4	-1E+10	1	-1E+10	1	-1E+10	1	-1E+10	1	-1E+10	1	-1E+10	1
4901784	169	C	02/19/2020	10:43	-132.680	43.389	0	679.90	0	4.1950	0	36.5540	8	29.008	0	673.376	0	17.2	4	5.5	4	-1E+10	1	-1E+10	1	-1E+10	1	-1E+10	1	-1E+10	1	-1E+10	1
4901784	169	C	02/19/2020	10:43	-132.680	43.389	0	685.50	0	4.1880	0	36.5590	8	29.012	0	678.913	0	16.8	4	5.4	4	-1E+10	1	-1E+10	1	-1E+10	1	-1E+10	1	-1E+10	1	-1E+10	1
4901784	169	C	02/19/2020	10:43	-132.680	43.389	0	690.30	0	4.1880	0	36.5610	8	29.014	0	683.659	0	16.6	4	5.3	4	-1E+10	1	-1E+10	1	-1E+10	1	-1E+10	1	-1E+10	1	-1E+10	1
4901784	169	C	02/19/2020	10:43	-132.680	43.389	0	695.20	0	4.1710	0	36.5660	8	29.020	0	688.504	0	16.2	4	5.2	4	-1E+10	1	-1E+10	1	-1E+10	1	-1E+10	1	-1E+10	1	-1E+10	1
4901784	169	C	02/19/2020	10:43	-132.680	43.389	0	699.70	0	4.1620	0	36.5730	8	29.027	0	692.953	0	15.8	4	5.1	4	-1E+10	1	-1E+10	1	-1E+10	1	-1E+10	1	-1E+10	1	-1E+10	1
4901784	169	C	02/19/2020	10:43	-132.680	43.389	0	704.60	0	4.1430	0	36.5770	8	29.032	0	697.798	0	15.5	4	5.0	4	-1E+10	1	-1E+10	1	-1E+10	1	-1E+10	1	-1E+10	1	-1E+10	1
4901784	169	C	02/19/2020	10:43	-132.680	43.389	0	709.50	0	4.1270	0	36.5830	8	29.038	0	702.642	0	15.1	4	4.9	4	-1E+10	1	-1E+10	1	-1E+10	1	-1E+10	1	-1E+10	1	-1E+10	1
4901784	169	C	02/19/2020	10:43	-132.680	43.389	0	714.50	0	4.1180	0	36.5890	8	29.044	0	707.586	0	14.7	4	4.8	4	-1E+10	1	-1E+10	1	-1E+10	1	-1E+10	1	-1E+10	1	-1E+10	1
4901784	169	C	02/19/2020	10:43	-132.680	43.389	0	719.50	0	4.1020	0	36.5930	8	29.049	0	712.529	0	14.6	4	4.7	4	-1E+10	1	-1E+10	1	-1E+10	1	-1E+10	1	-1E+10	1	-1E+10	1
4901784	169	C	02/19/2020	10:43	-132.680	43.389	0	724.60	0	4.0730	0	36.5960	8	29.055	0	717.570	0	14.4	4	4.6	4	-1E+10	1	-1E+10	1	-1E+10	1	-1E+10	1	-1E+10	1	-1E+10	1
4901784	169	C	02/19/2020	10:43	-132.680	43.389	0	729.70	0	4.0610	0	36.6010	8	29.060	0	722.612	0	14.1	4	4.6	4	-1E+10	1	-1E+10	1	-1E+10	1	-1E+10	1	-1E+10	1	-1E+10	1
4901784	169	C	02/19/2020	10:43	-132.680	43.389	0	734.70	0	4.0550	0	36.6050	8	29.064	0	727.555	0	13.9	4	4.5	4	-1E+10	1	-1E+10	1	-1E+10	1	-1E+10	1	-1E+10	1	-1E+10	1
4901784	169	C	02/19/2020	10:43	-132.680	43.389	0	739.90	0	4.0400	0	36.6100	8	29.070	0	732.695	0	13.7	4	4.4	4	-1E+10	1	-1E+10	1	-1E+10	1	-1E+10	1	-1E+10	1	-1E+10	1
4901784	169	C	02/19/2020	10:43	-132.680	43.389	0	745.10	0	4.0270	0	36.6140	8	29.074	0	737.835	0	13.5	4	4.3	4	-1E+10	1	-1E+10	1	-1E+10	1	-1E+10	1	-1E+10	1	-1E+10	1
4901784	169	C	02/19/2020	10:43	-132.680	43.389	0	750.40	0	4.0120	0	36.6180	8	29.079	0	743.074	0	13.3	4	4.3	4	-1E+10	1	-1E+10	1	-1E+10	1	-1E+10	1	-1E+10	1	-1E+10	1
4901784	169	C	02/19/2020	10:43	-132.680	43.389	0	755.70	0	4.0100	0	36.6230	8	29.083	0	748.313	0	13.1	4	4.2	4	-1E+10	1	-1E+10	1	-1E+10	1	-1E+10	1	-1E+10	1	-1E+10	1
4901784	169	C	02/19/2020	10:43	-132.680	43.389	0	760.00	0	4.0080	0	36.6270	8	29.087	0	752.563	0	13.0	4	4.2	4	-1E+10	1	-1E+10	1	-1E+10	1	-1E+10	1	-1E+10	1	-1E+10	1
4901784	169	C	02/19/2020	10:43	-132.680	43.389	0	764.20	0	4.0040	0	36.6300	8	29.090	0	756.714	0	13.0	4	4.2	4	-1E+10	1	-1E+10	1	-1E+10	1	-1E+10	1	-1E+10	1	-1E+10	1
4901784	169	C	02/19/2020	10:43	-132.680	43.389	0	769.50	0	3.9870	0	36.6290	8	29.091	0	761.953	0	13.0	4	4.2	4	-1E+10	1	-1E+10	1	-1E+10	1	-1E+10	1	-1E+10	1	-1E+10	1
4901784	169	C	02/19/2020	10:43	-132.680	43.389	0	774.90	0	3.9580	0	36.6300	8	29.095	0	767.290	0	12.9	4	4.2	4	-1E+10	1	-1E+10	1	-1E+10	1	-1E+10	1	-1E+10	1	-1E+10	1
4901784	169	C	02/19/2020	10:43	-132.680	43.389	0	780.30	0	3.9480	0	36.6320	8	29.098	0	772.627	0	12.8	4	4.1	4	-1E+10	1	-1E+10	1	-1E+10	1	-1E+10	1	-1E+10	1	-1E+10	1
4901784	169	C	02/19/2020	10:43	-132.680	43.389	0	784.80	0	3.9510	0	36.6330	8	29.098	0	777.074	0	12.7	4	4.1	4	-1E+10	1	-1E+10	1	-1E+10	1	-1E+10	1	-1E+10	1	-1E+10	1
4901784	169	C	02/19/2020	10:43	-132.680	43.389	0	789.40	0	3.9260	0	36.6380	8	29.105	0	781.620	0	12.5	4	4.0	4	-1E+10	1	-1E+10	1	-1E+10	1	-1E+10	1	-1E+10	1	-1E+10	1
4901784	169	C	02/19/2020	10:43	-132.680	43.389	0	795.00	0	3.9160	0	36.6430	8	29.110	0	787.155	0	12.4	4	4.0	4	-1E+10	1	-1E+10	1	-1E+10	1	-1E+10	1	-1E+10	1	-1E+10	1
4901784	169	C	02/19/2020	10:43	-132.680	43.389	0	800.60	0	3.9020	0	36.6470	8	29.115	0	792.689	0	12.3	4	3.9	4	-1E+10	1	-1E+10	1	-1E+10	1	-1E+10	1	-1E+10	1	-1E+10	1
4901784	169	C	02/19/2020	10:43	-132.680	43.389	0	805.20	0	3.8870	0	36.6490	8	29.118	0	797.235	0	12.2	4	3.9	4	-1E+10	1	-1E+10	1	-1E+10	1	-1E+10	1	-1E+10	1	-1E+10	1
4901784	169	C	02/19/2020	10:43	-132.680	43.389	0	809.90	0	3.8810	0	36.6520	8	29.121	0	801.879	0	12.0	4	3.9	4	-1E+10	1	-1E+10	1	-1E+10	1	-1E+10	1	-1E+10	1	-1E+10	1
4901784	169	C	02/19/2020	10:43	-132.680	43.389	0	815.40	0	3.8670	0	36.6580	8	29.127	0	807.314	0	11.8	4	3.8	4	-1E+10	1	-1E+10	1	-1E+10	1	-1E+10	1	-1E+10	1	-1E+10	1
4901784	169	C	02/19/2020	10:43	-132.680	43.389	0	820.10	0	3.8580	0	36.6630	8	29.132	0	811.958	0	11.7	4	3.8	4	-1E+10	1	-1E+10	1	-1E+10	1	-1E+10	1	-1E+10	1	-1E+10	1
4901784	169	C	02/19/2020	10:43	-132.680	43.389	0	824.90	0	3.8510	0	36.6660	8	29.135	0	816.701	0	11.6	4	3.7	4	-1E+10	1	-1E+10	1	-1E+10	1	-1E+10	1	-1E+10	1	-1E+10	1
4901784	169	C	02/19/2020	10:43	-132.680	43.389	0	830.50	0	3.8430	0	36.6690	8	29.139	0	822.235	0	11.5	4	3.7	4	-1E+10	1	-1E+10	1	-1E+10	1	-1E+10	1	-1E+10	1	-1E+10	1
4901784	169	C	02/19/2020	10:43	-132.680	43.389	0	835.20	0	3.8380	0	36.6720	8	29.142	0	826.879	0	11.4	4	3.7	4	-1E+10	1	-1E+10	1	-1E+10	1	-1E+10	1	-1E+10	1	-1E+10	1
4901784	169	C	02/19/2020	10:43	-132.680	43.389	0	840.00	0	3.8350	0	36.6750	8	29.144	0	831.621	0	11.3	4	3.6	4	-1E+10	1	-1E+10	1	-1E+10	1	-1E+10	1	-1E+10	1	-1E+10	1
4901784	169	C	02/19/2020	10:43	-132.680	43.389	0	844.70	0	3.8200	0	36.6810	8	29.151	0	836.265	0	11.2	4	3.6	4	-1E+10	1	-1E+10	1	-1E+10	1	-1E+10	1	-1E+10	1	-1E+10	1
4901784	169	C	02/19/2020	10:43	-132.680	43.389	0	849.20	0	3.8100	0	36.6850	8	29.155	0	840.711	0	11.1	4	3.6	4	-1E+10	1	-1E+10	1	-1E+10	1	-1E+10	1	-1E+10	1	-1E+10	1
4901784	169	C	02/19/2020	10:43	-132.680	43.389	0	854.50	0	3.7980	0	36.6900	8	29.160	0	845.947	0	11.0	4	3.5	4	-1E+10	1	-1E+10	1	-1E+10	1	-1E+10	1	-1E+10	1	-1E+10	1
4901784	169	C	02/19/2020	10:43	-132.680	43.389	0	859.40	0	3.7940	0	36.6950	8	29.165	0	850.788	0	10.9	4	3.5	4	-1E+10	1	-1E+10	1	-1E+10	1	-1E+10	1	-1E+10	1	-1E+10	1
4901784	169	C	02/19/2020	10:43	-132.680	43.389	0	864.30	0	3.7870	0	36.6960	8	29.166	0	855.629	0	10.8	4	3.5	4	-1E+10	1	-1E+10	1	-1E+10	1	-1E+10	1	-1E+10	1	-1E+10	1
4901784	169	C	02/19/2020	10:43	-132.680	43.389	0	870.00	0	3.7720	0	36.6990	8	29.170	0	861.260	0	10.8	4	3.5	4	-1E+10	1	-1E+10	1	-1E+10	1	-1E+10	1	-1E+10	1	-1E+10	1
4901784	169	C	02/19/2020	10:43	-132.680	43.389	0	875.80	0	3.7620	0	36.7020	8	29.174	0	866.990	0	10.7	4	3.4	4	-1E+10	1	-1E+10	1	-1E+10	1	-1E+10	1	-1E+10	1	-1E+10	1
4901784	169	C	02/19/2020	10:43	-132.680	43.389	0	880.80	0	3.7540	0	36.7050	8	29.177	0	871.929	0	10.7	4	3.4	4	-1E+10	1	-1E+10	1	-1E+10	1	-1E+10	1	-1E+10	1	-1E+10	1
4901784	169	C	02/19/2020	10:43	-132.680	43.389	0	885.70	0	3.7470	0	36.7080	8	29.180	0	876.770	0	10.6	4	3.4	4	-1E+10	1	-1E+10	1	-1E+10	1	-1E+10	1	-1E+10	1	-1E+10	1
4901784	169	C	02/19/2020	10:43	-132.680	43.389	0	890.70	0	3.7350	0	36.7130	8	29.186	0	881.709	0	10.6	4	3.4	4	-1E+10	1	-1E+10	1	-1E+10	1	-1E+10	1	-1E+10	1	-1E+10	1
4901784	169	C	02/19/2020	10:43	-132.680	43.389	0	895.70	0	3.7270	0	36.7160	8	29.189	0	886.647	0	10.5	4	3.4	4	-1E+10	1	-1E+10	1	-1E+10	1	-1E+10	1	-1E+10	1	-1E+10	1
4901784	169	C	02/19/2020	10:43	-132.680	43.389	0	900.70	0	3.7150	0	36.7210	8	29.194	0	891.586	0	10.4	4	3.3	4	-1E+10	1	-1E+10	1	-1E+10	1	-1E+10	1	-1E+10	1	-1E+10	1
4901784	169	C	02/19/2020	10:43	-132.680	43.389	0	905.80	0	3.7140	0	36.7240	8	29.197	0	896.624	0	10.4	4	3.3	4	-1E+10	1	-1E+10	1	-1E+10	1	-1E+10	1	-1E+10	1	-1E+10	1
4901784	169	C	02/19/2020	10:43	-132.680	43.389	0	910.80	0	3.6980	0	36.7290	8	29.202	0	901.562	0	10.3	4	3.3	4	-1E+10	1	-1E+10	1	-1E+10	1	-1E+10	1	-1E+10	1	-1E+10	1
4901784	169	C	02/19/2020	10:43	-132.680	43.389	0	915.10	0	3.6910	0	36.7330	8	29.206	0	905.809	0	10.3	4	3.3	4	-1E+10	1	-1E+10	1	-1E+10	1	-1E+10	1	-1E+10	1	-1E+10	1
4901784	169	C	02/19/2020	10:43	-132.680	43.389	0	919.30	0	3.6900	0	36.7340	8	29.207	0	909.958	0	10.3	4	3.3	4	-1E+10	1	-1E+10	1	-1E+10	1	-1E+10	1	-1E+10	1	-1E+10	1
4901784	169	C	02/19/2020	10:43	-132.680	43.389	0	924.30	0	3.6810	0	36.7380	8	29.212	0	914.896	0	10.2	4	3.3	4	-1E+10	1	-1E+10	1	-1E+10	1	-1E+10	1	-1E+10	1	-1E+10	1
4901784	169	C	02/19/2020	10:43	-132.680	43.389	0	929.30	0	3.6720	0	36.7400	8	29.214	0	919.834	0	10.3	4	3.3	4	-1E+10	1	-1E+10	1	-1E+10	1	-1E+10	1	-1E+10	1	-1E+10	1
4901784	169	C	02/19/2020	10:43	-132.680	43.389	0	934.40	0	3.6600	0	36.7430	8	29.218	0	924.871	0	10.2	4	3.3	4	-1E+10	1	-1E+10	1	-1E+10	1	-1E+10	1	-1E+10	1	-1E+10	1
4901784	169	C	02/19/2020	10:43	-132.680	43.389	0	939.40	0	3.6450	0	36.7470	8	29.223	0	929.809	0	10.2	4	3.3	4	-1E+10	1	-1E+10	1	-1E+10	1	-1E+10	1	-1E+10	1	-1E+10	1
4901784	169	C	02/19/2020	10:43	-132.680	43.389	0	944.50	0	3.6360	0	36.7500	8	29.226	0	934.845	0	10.2	4	3.3	4	-1E+10	1	-1E+10	1	-1E+10	1	-1E+10	1	-1E+10	1	-1E+10	1
4901784	169	C	02/19/2020	10:43	-132.680	43.389	0	949.60	0	3.6220	0	36.7540	8	29.231	0	939.882	0	10.2	4	3.3	4	-1E+10	1	-1E+10	1	-1E+10	1	-1E+10	1	-1E+10	1	-1E+10	1
4901784	169	C	02/19/2020	10:43	-132.680	43.389	0	954.80	0	3.6130	0	36.7570	8	29.234	0	945.017	0	10.2	4	3.3	4	-1E+10	1	-1E+10	1	-1E+10	1	-1E+10	1	-1E+10	1	-1E+10	1
4901784	169	C	02/19/2020	10:43	-132.680	43.389	0	959.90	0	3.6050	0	36.7590	8	29.237	0	950.053	0	10.2	4	3.3	4	-1E+10	1	-1E+10	1	-1E+10	1	-1E+10	1	-1E+10	1	-1E+10	1
4901784	169	C	02/19/2020	10:43	-132.680	43.389	0	965.10	0	3.5950	0	36.7620	8	29.240	0	955.188	0	10.2	4	3.3	4	-1E+10	1	-1E+10	1	-1E+10	1	-1E+10	1	-1E+10	1	-1E+10	1
4901784	169	C	02/19/2020	10:43	-132.680	43.389	0	970.20	0	3.5900	0	36.7630	8	29.241	0	960.224	0	10.2	4	3.3	4	-1E+10	1	-1E+10	1	-1E+10	1	-1E+10	1	-1E+10	1	-1E+10	1
4901784	169	C	02/19/2020	10:43	-132.680	43.389	0	975.40	0	3.5840	0	36.7650	8	29.244	0	965.358	0	10.2	4	3.3	4	-1E+10	1	-1E+10	1	-1E+10	1	-1E+10	1	-1E+10	1	-1E+10	1
4901784	169	C	02/19/2020	10:43	-132.680	43.389	0	980.60	0	3.5710	0	36.7690	8	29.248	0	970.493	0	10.3	4	3.3	4	-1E+10	1	-1E+10	1	-1E+10	1	-1E+10	1	-1E+10	1	-1E+10	1
4901784	169	C	02/19/2020	10:43	-132.680	43.389	0	985.00	0	3.5660	0	36.7710	8	29.250	0	974.837	0	10.3	4	3.3	4	-1E+10	1	-1E+10	1	-1E+10	1	-1E+10	1	-1E+10	1	-1E+10	1
4901784	169	C	02/19/2020	10:43	-132.680	43.389	0	989.30	0	3.5610	0	36.7730	8	29.252	0	979.083	0	10.3	4	3.3	4	-1E+10	1	-1E+10	1	-1E+10	1	-1E+10	1	-1E+10	1	-1E+10	1
4901784	169	C	02/19/2020	10:43	-132.680	43.389	0	994.50	0	3.5480	0	36.7750	8	29.255	0	984.217	0	10.3	4	3.3	4	-1E+10	1	-1E+10	1	-1E+10	1	-1E+10	1	-1E+10	1	-1E+10	1
4901784	169	C	02/19/2020	10:43	-132.680	43.389	0	999.80	0	3.5340	0	36.7790	8	29.260	0	989.449	0	10.3	4	3.3	4	-1E+10	1	-1E+10	1	-1E+10	1	-1E+10	1	-1E+10	1	-1E+10	1
4901784	169	C	02/19/2020	10:43	-132.680	43.389	0	1005.00	0	3.5190	0	36.7820	8	29.264	0	994.583	0	10.3	4	3.3	4	-1E+10	1	-1E+10	1	-1E+10	1	-1E+10	1	-1E+10	1	-1E+10	1
4901784	169	C	02/19/2020	10:43	-132.680	43.389	0	1010.20	0	3.5090	0	36.7850	8	29.268	0	999.717	0	10.3	4	3.3	4	-1E+10	1	-1E+10	1	-1E+10	1	-1E+10	1	-1E+10	1	-1E+10	1
4901784	169	C	02/19/2020	10:43	-132.680	43.389	0	1015.40	0	3.4970	0	36.7880	8	29.271	0	1004.851	0	10.4	4	3.3	4	-1E+10	1	-1E+10	1	-1E+10	1	-1E+10	1	-1E+10	1	-1E+10	1
4901784	169	C	02/19/2020	10:43	-132.680	43.389	0	1019.90	0	3.4900	0	36.7900	8	29.274	0	1009.293	0	10.4	4	3.3	4	-1E+10	1	-1E+10	1	-1E+10	1	-1E+10	1	-1E+10	1	-1E+10	1
4901784	169	C	02/19/2020	10:43	-132.680	43.389	0	1024.30	0	3.4760	0	36.7940	8	29.278	0	1013.637	0	10.4	4	3.3	4	-1E+10	1	-1E+10	1	-1E+10	1	-1E+10	1	-1E+10	1	-1E+10	1
4901784	169	C	02/19/2020	10:43	-132.680	43.389	0	1029.80	0	3.4570	0	36.8000	8	29.285	0	1019.066	0	10.5	4	3.3	4	-1E+10	1	-1E+10	1	-1E+10	1	-1E+10	1	-1E+10	1	-1E+10	1
4901784	169	C	02/19/2020	10:43	-132.680	43.389	0	1035.20	0	3.4460	0	36.8020	8	29.288	0	1024.397	0	10.5	4	3.3	4	-1E+10	1	-1E+10	1	-1E+10	1	-1E+10	1	-1E+10	1	-1E+10	1
4901784	169	C	02/19/2020	10:43	-132.680	43.389	0	1040.60	0	3.4390	0	36.8050	8	29.291	0	1029.727	0	10.6	4	3.4	4	-1E+10	1	-1E+10	1	-1E+10	1	-1E+10	1	-1E+10	1	-1E+10	1
4901784	169	C	02/19/2020	10:43	-132.680	43.389	0	1045.00	0	3.4300	0	36.8080	8	29.294	0	1034.070	0	10.7	4	3.4	4	-1E+10	1	-1E+10	1	-1E+10	1	-1E+10	1	-1E+10	1	-1E+10	1
4901784	169	C	02/19/2020	10:43	-132.680	43.389	0	1049.50	0	3.4240	0	36.8100	8	29.297	0	1038.512	0	10.7	4	3.4	4	-1E+10	1	-1E+10	1	-1E+10	1	-1E+10	1	-1E+10	1	-1E+10	1
4901784	169	C	02/19/2020	10:43	-132.680	43.389	0	1054.90	0	3.4160	0	36.8150	8	29.301	0	1043.842	0	10.8	4	3.4	4	-1E+10	1	-1E+10	1	-1E+10	1	-1E+10	1	-1E+10	1	-1E+10	1
4901784	169	C	02/19/2020	10:43	-132.680	43.389	0	1060.30	0	3.4000	0	36.8180	8	29.305	0	1049.172	0	11.0	4	3.5	4	-1E+10	1	-1E+10	1	-1E+10	1	-1E+10	1	-1E+10	1	-1E+10	1
4901784	169	C	02/19/2020	10:43	-132.680	43.389	0	1064.80	0	3.3820	0	36.8240	8	29.312	0	1053.613	0	11.1	4	3.5	4	-1E+10	1	-1E+10	1	-1E+10	1	-1E+10	1	-1E+10	1	-1E+10	1
4901784	169	C	02/19/2020	10:43	-132.680	43.389	0	1069.40	0	3.3720	0	36.8260	8	29.315	0	1058.153	0	11.1	4	3.5	4	-1E+10	1	-1E+10	1	-1E+10	1	-1E+10	1	-1E+10	1	-1E+10	1
4901784	169	C	02/19/2020	10:43	-132.680	43.389	0	1075.20	0	3.3610	0	36.8290	8	29.318	0	1063.878	0	11.2	4	3.6	4	-1E+10	1	-1E+10	1	-1E+10	1	-1E+10	1	-1E+10	1	-1E+10	1
4901784	169	C	02/19/2020	10:43	-132.680	43.389	0	1080.30	0	3.3570	0	36.8300	8	29.319	0	1068.911	0	11.3	4	3.6	4	-1E+10	1	-1E+10	1	-1E+10	1	-1E+10	1	-1E+10	1	-1E+10	1
4901784	169	C	02/19/2020	10:43	-132.680	43.389	0	1085.00	0	3.3470	0	36.8330	8	29.323	0	1073.549	0	11.4	4	3.6	4	-1E+10	1	-1E+10	1	-1E+10	1	-1E+10	1	-1E+10	1	-1E+10	1
4901784	169	C	02/19/2020	10:43	-132.680	43.389	0	1089.70	0	3.3400	0	36.8350	8	29.325	0	1078.188	0	11.5	4	3.6	4	-1E+10	1	-1E+10	1	-1E+10	1	-1E+10	1	-1E+10	1	-1E+10	1
4901784	169	C	02/19/2020	10:43	-132.680	43.389	0	1094.50	0	3.3200	0	36.8390	8	29.331	0	1082.925	0	11.6	4	3.7	4	-1E+10	1	-1E+10	1	-1E+10	1	-1E+10	1	-1E+10	1	-1E+10	1
4901784	169	C	02/19/2020	10:43	-132.680	43.389	0	1099.30	0	3.3070	0	36.8420	8	29.334	0	1087.662	0	11.7	4	3.7	4	-1E+10	1	-1E+10	1	-1E+10	1	-1E+10	1	-1E+10	1	-1E+10	1
4901784	169	C	02/19/2020	10:43	-132.680	43.389	0	1104.30	0	3.3010	0	36.8440	8	29.336	0	1092.596	0	11.8	4	3.7	4	-1E+10	1	-1E+10	1	-1E+10	1	-1E+10	1	-1E+10	1	-1E+10	1
4901784	169	C	02/19/2020	10:43	-132.680	43.389	0	1109.40	0	3.2890	0	36.8470	8	29.340	0	1097.628	0	11.9	4	3.8	4	-1E+10	1	-1E+10	1	-1E+10	1	-1E+10	1	-1E+10	1	-1E+10	1
4901784	169	C	02/19/2020	10:43	-132.680	43.389	0	1114.40	0	3.2810	0	36.8490	8	29.343	0	1102.562	0	12.0	4	3.8	4	-1E+10	1	-1E+10	1	-1E+10	1	-1E+10	1	-1E+10	1	-1E+10	1
4901784	169	C	02/19/2020	10:43	-132.680	43.389	0	1119.80	0	3.2700	0	36.8510	8	29.345	0	1107.890	0	12.1	4	3.8	4	-1E+10	1	-1E+10	1	-1E+10	1	-1E+10	1	-1E+10	1	-1E+10	1
4901784	169	C	02/19/2020	10:43	-132.680	43.389	0	1125.30	0	3.2550	0	36.8540	8	29.349	0	1113.317	0	12.3	4	3.9	4	-1E+10	1	-1E+10	1	-1E+10	1	-1E+10	1	-1E+10	1	-1E+10	1
4901784	169	C	02/19/2020	10:43	-132.680	43.389	0	1129.80	0	3.2410	0	36.8570	8	29.353	0	1117.758	0	12.4	4	3.9	4	-1E+10	1	-1E+10	1	-1E+10	1	-1E+10	1	-1E+10	1	-1E+10	1
4901784	169	C	02/19/2020	10:43	-132.680	43.389	0	1134.40	0	3.2290	0	36.8590	8	29.356	0	1122.296	0	12.6	4	4.0	4	-1E+10	1	-1E+10	1	-1E+10	1	-1E+10	1	-1E+10	1	-1E+10	1
4901784	169	C	02/19/2020	10:43	-132.680	43.389	0	1139.90	0	3.2140	0	36.8610	8	29.359	0	1127.723	0	12.7	4	4.0	4	-1E+10	1	-1E+10	1	-1E+10	1	-1E+10	1	-1E+10	1	-1E+10	1
4901784	169	C	02/19/2020	10:43	-132.680	43.389	0	1145.40	0	3.1960	0	36.8650	8	29.364	0	1133.149	0	12.9	4	4.1	4	-1E+10	1	-1E+10	1	-1E+10	1	-1E+10	1	-1E+10	1	-1E+10	1
4901784	169	C	02/19/2020	10:43	-132.680	43.389	0	1149.90	0	3.1870	0	36.8660	8	29.366	0	1137.589	0	13.0	4	4.1	4	-1E+10	1	-1E+10	1	-1E+10	1	-1E+10	1	-1E+10	1	-1E+10	1
4901784	169	C	02/19/2020	10:43	-132.680	43.389	0	1154.50	0	3.1760	0	36.8690	8	29.369	0	1142.127	0	13.1	4	4.1	4	-1E+10	1	-1E+10	1	-1E+10	1	-1E+10	1	-1E+10	1	-1E+10	1
4901784	169	C	02/19/2020	10:43	-132.680	43.389	0	1160.00	0	3.1660	0	36.8700	8	29.371	0	1147.553	0	13.2	4	4.2	4	-1E+10	1	-1E+10	1	-1E+10	1	-1E+10	1	-1E+10	1	-1E+10	1
4901784	169	C	02/19/2020	10:43	-132.680	43.389	0	1164.70	0	3.1560	0	36.8730	8	29.374	0	1152.190	0	13.3	4	4.2	4	-1E+10	1	-1E+10	1	-1E+10	1	-1E+10	1	-1E+10	1	-1E+10	1
4901784	169	C	02/19/2020	10:43	-132.680	43.389	0	1169.50	0	3.1510	0	36.8730	8	29.375	0	1156.925	0	13.3	4	4.2	4	-1E+10	1	-1E+10	1	-1E+10	1	-1E+10	1	-1E+10	1	-1E+10	1
4901784	169	C	02/19/2020	10:43	-132.680	43.389	0	1175.20	0	3.1410	0	36.8750	8	29.378	0	1162.548	0	13.4	4	4.2	4	-1E+10	1	-1E+10	1	-1E+10	1	-1E+10	1	-1E+10	1	-1E+10	1
4901784	169	C	02/19/2020	10:43	-132.680	43.389	0	1179.90	0	3.1310	0	36.8770	8	29.380	0	1167.184	0	13.5	4	4.3	4	-1E+10	1	-1E+10	1	-1E+10	1	-1E+10	1	-1E+10	1	-1E+10	1
4901784	169	C	02/19/2020	10:43	-132.680	43.389	0	1184.80	0	3.1240	0	36.8780	8	29.382	0	1172.018	0	13.6	4	4.3	4	-1E+10	1	-1E+10	1	-1E+10	1	-1E+10	1	-1E+10	1	-1E+10	1
4901784	169	C	02/19/2020	10:43	-132.680	43.389	0	1189.70	0	3.1100	0	36.8810	8	29.386	0	1176.851	0	13.7	4	4.3	4	-1E+10	1	-1E+10	1	-1E+10	1	-1E+10	1	-1E+10	1	-1E+10	1
4901784	169	C	02/19/2020	10:43	-132.680	43.389	0	1194.50	0	3.1060	0	36.8810	8	29.386	0	1181.586	0	13.8	4	4.4	4	-1E+10	1	-1E+10	1	-1E+10	1	-1E+10	1	-1E+10	1	-1E+10	1
4901784	169	C	02/19/2020	10:43	-132.680	43.389	0	1200.40	0	3.0930	0	36.8830	8	29.389	0	1187.406	0	14.0	4	4.4	4	-1E+10	1	-1E+10	1	-1E+10	1	-1E+10	1	-1E+10	1	-1E+10	1
4901784	169	C	02/19/2020	10:43	-132.680	43.389	0	1205.40	0	3.0840	0	36.8860	8	29.392	0	1192.337	0	14.1	4	4.4	4	-1E+10	1	-1E+10	1	-1E+10	1	-1E+10	1	-1E+10	1	-1E+10	1
4901784	169	C	02/19/2020	10:43	-132.680	43.389	0	1210.30	0	3.0750	0	36.8870	8	29.394	0	1197.170	0	14.2	4	4.5	4	-1E+10	1	-1E+10	1	-1E+10	1	-1E+10	1	-1E+10	1	-1E+10	1
4901784	169	C	02/19/2020	10:43	-132.680	43.389	0	1215.30	0	3.0650	0	36.8900	8	29.397	0	1202.102	0	14.3	4	4.5	4	-1E+10	1	-1E+10	1	-1E+10	1	-1E+10	1	-1E+10	1	-1E+10	1
4901784	169	C	02/19/2020	10:43	-132.680	43.389	0	1220.30	0	3.0580	0	36.8910	8	29.399	0	1207.033	0	14.4	4	4.5	4	-1E+10	1	-1E+10	1	-1E+10	1	-1E+10	1	-1E+10	1	-1E+10	1
4901784	169	C	02/19/2020	10:43	-132.680	43.389	0	1225.20	0	3.0540	0	36.8920	8	29.400	0	1211.866	0	14.4	4	4.5	4	-1E+10	1	-1E+10	1	-1E+10	1	-1E+10	1	-1E+10	1	-1E+10	1
4901784	169	C	02/19/2020	10:43	-132.680	43.389	0	1230.20	0	3.0440	0	36.8940	8	29.403	0	1216.797	0	14.5	4	4.6	4	-1E+10	1	-1E+10	1	-1E+10	1	-1E+10	1	-1E+10	1	-1E+10	1
4901784	169	C	02/19/2020	10:43	-132.680	43.389	0	1235.10	0	3.0390	0	36.8950	8	29.404	0	1221.629	0	14.6	4	4.6	4	-1E+10	1	-1E+10	1	-1E+10	1	-1E+10	1	-1E+10	1	-1E+10	1
4901784	169	C	02/19/2020	10:43	-132.680	43.389	0	1240.20	0	3.0340	0	36.8960	8	29.405	0	1226.659	0	14.7	4	4.6	4	-1E+10	1	-1E+10	1	-1E+10	1	-1E+10	1	-1E+10	1	-1E+10	1
4901784	169	C	02/19/2020	10:43	-132.680	43.389	0	1245.30	0	3.0250	0	36.8970	8	29.407	0	1231.688	0	14.9	4	4.7	4	-1E+10	1	-1E+10	1	-1E+10	1	-1E+10	1	-1E+10	1	-1E+10	1
4901784	169	C	02/19/2020	10:43	-132.680	43.389	0	1250.00	0	3.0110	0	36.9000	8	29.411	0	1236.323	0	15.1	4	4.7	4	-1E+10	1	-1E+10	1	-1E+10	1	-1E+10	1	-1E+10	1	-1E+10	1
4901784	169	C	02/19/2020	10:43	-132.680	43.389	0	1254.80	0	2.9980	0	36.9020	8	29.414	0	1241.056	0	15.2	4	4.8	4	-1E+10	1	-1E+10	1	-1E+10	1	-1E+10	1	-1E+10	1	-1E+10	1
4901784	169	C	02/19/2020	10:43	-132.680	43.389	0	1259.60	0	2.9900	0	36.9030	8	29.415	0	1245.789	0	15.4	4	4.8	4	-1E+10	1	-1E+10	1	-1E+10	1	-1E+10	1	-1E+10	1	-1E+10	1
4901784	169	C	02/19/2020	10:43	-132.680	43.389	0	1264.40	0	2.9740	0	36.9060	8	29.419	0	1250.523	0	15.5	4	4.9	4	-1E+10	1	-1E+10	1	-1E+10	1	-1E+10	1	-1E+10	1	-1E+10	1
4901784	169	C	02/19/2020	10:43	-132.680	43.389	0	1269.20	0	2.9650	0	36.9080	8	29.422	0	1255.256	0	15.7	4	4.9	4	-1E+10	1	-1E+10	1	-1E+10	1	-1E+10	1	-1E+10	1	-1E+10	1
4901784	169	C	02/19/2020	10:43	-132.680	43.389	0	1274.90	0	2.9530	0	36.9100	8	29.425	0	1260.876	0	15.9	4	5.0	4	-1E+10	1	-1E+10	1	-1E+10	1	-1E+10	1	-1E+10	1	-1E+10	1
4901784	169	C	02/19/2020	10:43	-132.680	43.389	0	1280.60	0	2.9360	0	36.9120	8	29.428	0	1266.496	0	16.2	4	5.1	4	-1E+10	1	-1E+10	1	-1E+10	1	-1E+10	1	-1E+10	1	-1E+10	1
4901784	169	C	02/19/2020	10:43	-132.680	43.389	0	1285.60	0	2.9230	0	36.9150	8	29.432	0	1271.426	0	16.4	4	5.2	4	-1E+10	1	-1E+10	1	-1E+10	1	-1E+10	1	-1E+10	1	-1E+10	1
4901784	169	C	02/19/2020	10:43	-132.680	43.389	0	1290.60	0	2.9110	0	36.9170	8	29.434	0	1276.356	0	16.6	4	5.2	4	-1E+10	1	-1E+10	1	-1E+10	1	-1E+10	1	-1E+10	1	-1E+10	1
4901784	169	C	02/19/2020	10:43	-132.680	43.389	0	1295.70	0	2.9010	0	36.9200	8	29.438	0	1281.384	0	16.8	4	5.3	4	-1E+10	1	-1E+10	1	-1E+10	1	-1E+10	1	-1E+10	1	-1E+10	1
4901784	169	C	02/19/2020	10:43	-132.680	43.389	0	1300.80	0	2.8940	0	36.9210	8	29.439	0	1286.412	0	17.0	4	5.3	4	-1E+10	1	-1E+10	1	-1E+10	1	-1E+10	1	-1E+10	1	-1E+10	1
4901784	169	C	02/19/2020	10:43	-132.680	43.389	0	1305.00	0	2.8850	0	36.9220	8	29.441	0	1290.553	0	17.2	4	5.4	4	-1E+10	1	-1E+10	1	-1E+10	1	-1E+10	1	-1E+10	1	-1E+10	1
4901784	169	C	02/19/2020	10:43	-132.680	43.389	0	1309.20	0	2.8730	0	36.9240	8	29.444	0	1294.693	0	17.4	4	5.5	4	-1E+10	1	-1E+10	1	-1E+10	1	-1E+10	1	-1E+10	1	-1E+10	1
4901784	169	C	02/19/2020	10:43	-132.680	43.389	0	1314.30	0	2.8580	0	36.9270	8	29.448	0	1299.721	0	17.7	4	5.5	4	-1E+10	1	-1E+10	1	-1E+10	1	-1E+10	1	-1E+10	1	-1E+10	1
4901784	169	C	02/19/2020	10:43	-132.680	43.389	0	1319.40	0	2.8460	0	36.9290	8	29.450	0	1304.749	0	17.8	4	5.6	4	-1E+10	1	-1E+10	1	-1E+10	1	-1E+10	1	-1E+10	1	-1E+10	1
4901784	169	C	02/19/2020	10:43	-132.680	43.389	0	1324.40	0	2.8360	0	36.9310	8	29.453	0	1309.678	0	18.0	4	5.7	4	-1E+10	1	-1E+10	1	-1E+10	1	-1E+10	1	-1E+10	1	-1E+10	1
4901784	169	C	02/19/2020	10:43	-132.680	43.389	0	1329.60	0	2.8290	0	36.9320	8	29.454	0	1314.804	0	18.2	4	5.7	4	-1E+10	1	-1E+10	1	-1E+10	1	-1E+10	1	-1E+10	1	-1E+10	1
4901784	169	C	02/19/2020	10:43	-132.680	43.389	0	1334.70	0	2.8240	0	36.9330	8	29.456	0	1319.831	0	18.3	4	5.7	4	-1E+10	1	-1E+10	1	-1E+10	1	-1E+10	1	-1E+10	1	-1E+10	1
4901784	169	C	02/19/2020	10:43	-132.680	43.389	0	1340.00	0	2.8170	0	36.9340	8	29.457	0	1325.055	0	18.5	4	5.8	4	-1E+10	1	-1E+10	1	-1E+10	1	-1E+10	1	-1E+10	1	-1E+10	1
4901784	169	C	02/19/2020	10:43	-132.680	43.389	0	1345.20	0	2.8100	0	36.9350	8	29.459	0	1330.181	0	18.7	4	5.9	4	-1E+10	1	-1E+10	1	-1E+10	1	-1E+10	1	-1E+10	1	-1E+10	1
4901784	169	C	02/19/2020	10:43	-132.680	43.389	0	1350.40	0	2.7940	0	36.9380	8	29.463	0	1335.306	0	19.1	4	6.0	4	-1E+10	1	-1E+10	1	-1E+10	1	-1E+10	1	-1E+10	1	-1E+10	1
4901784	169	C	02/19/2020	10:43	-132.680	43.389	0	1354.90	0	2.7830	0	36.9400	8	29.465	0	1339.742	0	19.4	4	6.1	4	-1E+10	1	-1E+10	1	-1E+10	1	-1E+10	1	-1E+10	1	-1E+10	1
4901784	169	C	02/19/2020	10:43	-132.680	43.389	0	1359.40	0	2.7740	0	36.9420	8	29.468	0	1344.177	0	19.7	4	6.2	4	-1E+10	1	-1E+10	1	-1E+10	1	-1E+10	1	-1E+10	1	-1E+10	1
4901784	169	C	02/19/2020	10:43	-132.680	43.389	0	1364.80	0	2.7640	0	36.9450	8	29.471	0	1349.499	0	20.0	4	6.3	4	-1E+10	1	-1E+10	1	-1E+10	1	-1E+10	1	-1E+10	1	-1E+10	1
4901784	169	C	02/19/2020	10:43	-132.680	43.389	0	1370.20	0	2.7540	0	36.9460	8	29.473	0	1354.821	0	20.2	4	6.3	4	-1E+10	1	-1E+10	1	-1E+10	1	-1E+10	1	-1E+10	1	-1E+10	1
4901784	169	C	02/19/2020	10:43	-132.680	43.389	0	1375.70	0	2.7410	0	36.9480	8	29.476	0	1360.242	0	20.3	4	6.4	4	-1E+10	1	-1E+10	1	-1E+10	1	-1E+10	1	-1E+10	1	-1E+10	1
4901784	169	C	02/19/2020	10:43	-132.680	43.389	0	1380.30	0	2.7330	0	36.9490	8	29.477	0	1364.775	0	20.5	4	6.4	4	-1E+10	1	-1E+10	1	-1E+10	1	-1E+10	1	-1E+10	1	-1E+10	1
4901784	169	C	02/19/2020	10:43	-132.680	43.389	0	1384.90	0	2.7260	0	36.9500	8	29.479	0	1369.309	0	20.7	4	6.5	4	-1E+10	1	-1E+10	1	-1E+10	1	-1E+10	1	-1E+10	1	-1E+10	1
4901784	169	C	02/19/2020	10:43	-132.680	43.389	0	1390.50	0	2.7180	0	36.9520	8	29.481	0	1374.827	0	21.0	4	6.5	4	-1E+10	1	-1E+10	1	-1E+10	1	-1E+10	1	-1E+10	1	-1E+10	1
4901784	169	C	02/19/2020	10:43	-132.680	43.389	0	1395.20	0	2.7130	0	36.9530	8	29.483	0	1379.459	0	21.2	4	6.6	4	-1E+10	1	-1E+10	1	-1E+10	1	-1E+10	1	-1E+10	1	-1E+10	1
4901784	169	C	02/19/2020	10:43	-132.680	43.389	0	1399.80	0	2.7090	0	36.9550	8	29.485	0	1383.992	0	21.6	4	6.7	4	-1E+10	1	-1E+10	1	-1E+10	1	-1E+10	1	-1E+10	1	-1E+10	1
4901784	169	C	02/19/2020	10:43	-132.680	43.389	0	1404.90	0	2.6990	0	36.9560	8	29.486	0	1389.018	0	21.9	4	6.8	4	-1E+10	1	-1E+10	1	-1E+10	1	-1E+10	1	-1E+10	1	-1E+10	1
4901784	169	C	02/19/2020	10:43	-132.680	43.389	0	1409.30	0	2.6820	0	36.9580	8	29.490	0	1393.354	0	22.3	4	7.0	4	-1E+10	1	-1E+10	1	-1E+10	1	-1E+10	1	-1E+10	1	-1E+10	1
4901784	169	C	02/19/2020	10:43	-132.680	43.389	0	1415.00	0	2.6630	0	36.9610	8	29.494	0	1398.970	0	22.6	4	7.1	4	-1E+10	1	-1E+10	1	-1E+10	1	-1E+10	1	-1E+10	1	-1E+10	1
4901784	169	C	02/19/2020	10:43	-132.680	43.389	0	1420.80	0	2.6490	0	36.9630	8	29.497	0	1404.685	0	22.8	4	7.1	4	-1E+10	1	-1E+10	1	-1E+10	1	-1E+10	1	-1E+10	1	-1E+10	1
4901784	169	C	02/19/2020	10:43	-132.680	43.389	0	1425.80	0	2.6450	0	36.9650	8	29.499	0	1409.612	0	23.0	4	7.2	4	-1E+10	1	-1E+10	1	-1E+10	1	-1E+10	1	-1E+10	1	-1E+10	1
4901784	169	C	02/19/2020	10:43	-132.680	43.389	0	1430.00	0	2.6410	0	36.9660	8	29.500	0	1413.750	0	23.1	4	7.2	4	-1E+10	1	-1E+10	1	-1E+10	1	-1E+10	1	-1E+10	1	-1E+10	1
4901784	169	C	02/19/2020	10:43	-132.680	43.389	0	1434.30	0	2.6390	0	36.9660	8	29.500	0	1417.987	0	23.3	4	7.3	4	-1E+10	1	-1E+10	1	-1E+10	1	-1E+10	1	-1E+10	1	-1E+10	1
4901784	169	C	02/19/2020	10:43	-132.680	43.389	0	1439.40	0	2.6320	0	36.9670	8	29.502	0	1423.012	0	23.6	4	7.4	4	-1E+10	1	-1E+10	1	-1E+10	1	-1E+10	1	-1E+10	1	-1E+10	1
4901784	169	C	02/19/2020	10:43	-132.680	43.389	0	1444.60	0	2.6150	0	36.9690	8	29.505	0	1428.135	0	24.1	4	7.5	4	-1E+10	1	-1E+10	1	-1E+10	1	-1E+10	1	-1E+10	1	-1E+10	1
4901784	169	C	02/19/2020	10:43	-132.680	43.389	0	1449.70	0	2.6010	0	36.9720	8	29.508	0	1433.159	0	24.4	4	7.6	4	-1E+10	1	-1E+10	1	-1E+10	1	-1E+10	1	-1E+10	1	-1E+10	1
4901784	169	C	02/19/2020	10:43	-132.680	43.389	0	1454.90	0	2.5920	0	36.9730	8	29.510	0	1438.282	0	24.8	4	7.7	4	-1E+10	1	-1E+10	1	-1E+10	1	-1E+10	1	-1E+10	1	-1E+10	1
4901784	169	C	02/19/2020	10:43	-132.680	43.389	0	1460.10	0	2.5850	0	36.9750	8	29.512	0	1443.405	0	25.0	4	7.8	4	-1E+10	1	-1E+10	1	-1E+10	1	-1E+10	1	-1E+10	1	-1E+10	1
4901784	169	C	02/19/2020	10:43	-132.680	43.389	0	1465.40	0	2.5770	0	36.9760	8	29.514	0	1448.626	0	25.2	4	7.9	4	-1E+10	1	-1E+10	1	-1E+10	1	-1E+10	1	-1E+10	1	-1E+10	1
4901784	169	C	02/19/2020	10:43	-132.680	43.389	0	1470.60	0	2.5690	0	36.9780	8	29.516	0	1453.749	0	25.4	4	7.9	4	-1E+10	1	-1E+10	1	-1E+10	1	-1E+10	1	-1E+10	1	-1E+10	1
4901784	169	C	02/19/2020	10:43	-132.680	43.389	0	1475.00	0	2.5650	0	36.9780	8	29.517	0	1458.083	0	25.6	4	8.0	4	-1E+10	1	-1E+10	1	-1E+10	1	-1E+10	1	-1E+10	1	-1E+10	1
4901784	169	C	02/19/2020	10:43	-132.680	43.389	0	1479.40	0	2.5580	0	36.9790	8	29.518	0	1462.418	0	25.9	4	8.1	4	-1E+10	1	-1E+10	1	-1E+10	1	-1E+10	1	-1E+10	1	-1E+10	1
4901784	169	C	02/19/2020	10:43	-132.680	43.389	0	1484.70	0	2.5460	0	36.9810	8	29.521	0	1467.638	0	26.3	4	8.2	4	-1E+10	1	-1E+10	1	-1E+10	1	-1E+10	1	-1E+10	1	-1E+10	1
4901784	169	C	02/19/2020	10:43	-132.680	43.389	0	1490.00	0	2.5370	0	36.9830	8	29.523	0	1472.859	0	26.6	4	8.3	4	-1E+10	1	-1E+10	1	-1E+10	1	-1E+10	1	-1E+10	1	-1E+10	1
4901784	169	C	02/19/2020	10:43	-132.680	43.389	0	1495.40	0	2.5270	0	36.9850	8	29.526	0	1478.178	0	26.9	4	8.4	4	-1E+10	1	-1E+10	1	-1E+10	1	-1E+10	1	-1E+10	1	-1E+10	1
4901784	169	C	02/19/2020	10:43	-132.680	43.389	0	1499.90	0	2.5220	0	36.9860	8	29.527	0	1482.610	0	27.2	4	8.4	4	-1E+10	1	-1E+10	1	-1E+10	1	-1E+10	1	-1E+10	1	-1E+10	1
4901784	169	C	02/19/2020	10:43	-132.680	43.389	0	1504.40	0	2.5130	0	36.9870	8	29.529	0	1487.043	0	27.4	4	8.5	4	-1E+10	1	-1E+10	1	-1E+10	1	-1E+10	1	-1E+10	1	-1E+10	1
4901784	169	C	02/19/2020	10:43	-132.680	43.389	0	1509.90	0	2.5070	0	36.9880	8	29.530	0	1492.460	0	27.7	4	8.6	4	-1E+10	1	-1E+10	1	-1E+10	1	-1E+10	1	-1E+10	1	-1E+10	1
4901784	169	C	02/19/2020	10:43	-132.680	43.389	0	1515.40	0	2.4960	0	36.9900	8	29.533	0	1497.877	0	28.1	4	8.8	4	-1E+10	1	-1E+10	1	-1E+10	1	-1E+10	1	-1E+10	1	-1E+10	1
4901784	169	C	02/19/2020	10:43	-132.680	43.389	0	1520.00	0	2.4850	0	36.9920	8	29.535	0	1502.407	0	28.5	4	8.9	4	-1E+10	1	-1E+10	1	-1E+10	1	-1E+10	1	-1E+10	1	-1E+10	1
4901784	169	C	02/19/2020	10:43	-132.680	43.389	0	1524.60	0	2.4780	0	36.9930	8	29.537	0	1506.938	0	28.7	4	8.9	4	-1E+10	1	-1E+10	1	-1E+10	1	-1E+10	1	-1E+10	1	-1E+10	1
4901784	169	C	02/19/2020	10:43	-132.680	43.389	0	1530.20	0	2.4680	0	36.9940	8	29.539	0	1512.453	0	29.1	4	9.0	4	-1E+10	1	-1E+10	1	-1E+10	1	-1E+10	1	-1E+10	1	-1E+10	1
4901784	169	C	02/19/2020	10:43	-132.680	43.389	0	1534.90	0	2.4580	0	36.9970	8	29.542	0	1517.082	0	29.4	4	9.1	4	-1E+10	1	-1E+10	1	-1E+10	1	-1E+10	1	-1E+10	1	-1E+10	1
4901784	169	C	02/19/2020	10:43	-132.680	43.389	0	1539.60	0	2.4550	0	36.9970	8	29.542	0	1521.710	0	29.6	4	9.2	4	-1E+10	1	-1E+10	1	-1E+10	1	-1E+10	1	-1E+10	1	-1E+10	1
4901784	169	C	02/19/2020	10:43	-132.680	43.389	0	1545.10	0	2.4480	0	36.9980	8	29.544	0	1527.126	0	29.9	4	9.3	4	-1E+10	1	-1E+10	1	-1E+10	1	-1E+10	1	-1E+10	1	-1E+10	1
4901784	169	C	02/19/2020	10:43	-132.680	43.389	0	1550.50	0	2.4390	0	37.0000	8	29.546	0	1532.444	0	30.2	4	9.4	4	-1E+10	1	-1E+10	1	-1E+10	1	-1E+10	1	-1E+10	1	-1E+10	1
4901784	169	C	02/19/2020	10:43	-132.680	43.389	0	1555.40	0	2.4300	0	37.0010	8	29.548	0	1537.269	0	30.6	4	9.5	4	-1E+10	1	-1E+10	1	-1E+10	1	-1E+10	1	-1E+10	1	-1E+10	1
4901784	169	C	02/19/2020	10:43	-132.680	43.389	0	1560.30	0	2.4220	0	37.0020	8	29.549	0	1542.094	0	30.9	4	9.6	4	-1E+10	1	-1E+10	1	-1E+10	1	-1E+10	1	-1E+10	1	-1E+10	1
4901784	169	C	02/19/2020	10:43	-132.680	43.389	0	1565.30	0	2.4130	0	37.0040	8	29.552	0	1547.018	0	31.2	4	9.7	4	-1E+10	1	-1E+10	1	-1E+10	1	-1E+10	1	-1E+10	1	-1E+10	1
4901784	169	C	02/19/2020	10:43	-132.680	43.389	0	1570.30	0	2.4070	0	37.0050	8	29.553	0	1551.941	0	31.4	4	9.7	4	-1E+10	1	-1E+10	1	-1E+10	1	-1E+10	1	-1E+10	1	-1E+10	1
4901784	169	C	02/19/2020	10:43	-132.680	43.389	0	1575.30	0	2.4020	0	37.0060	8	29.555	0	1556.864	0	31.7	4	9.8	4	-1E+10	1	-1E+10	1	-1E+10	1	-1E+10	1	-1E+10	1	-1E+10	1
4901784	169	C	02/19/2020	10:43	-132.680	43.389	0	1580.40	0	2.3940	0	37.0080	8	29.557	0	1561.885	0	31.9	4	9.9	4	-1E+10	1	-1E+10	1	-1E+10	1	-1E+10	1	-1E+10	1	-1E+10	1
4901784	169	C	02/19/2020	10:43	-132.680	43.389	0	1585.40	0	2.3890	0	37.0080	8	29.557	0	1566.808	0	32.2	4	10.0	4	-1E+10	1	-1E+10	1	-1E+10	1	-1E+10	1	-1E+10	1	-1E+10	1
4901784	169	C	02/19/2020	10:43	-132.680	43.389	0	1590.50	0	2.3860	0	37.0090	8	29.558	0	1571.830	0	32.4	4	10.1	4	-1E+10	1	-1E+10	1	-1E+10	1	-1E+10	1	-1E+10	1	-1E+10	1
4901784	169	C	02/19/2020	10:43	-132.680	43.389	0	1595.70	0	2.3760	0	37.0100	8	29.560	0	1576.949	0	32.9	4	10.2	4	-1E+10	1	-1E+10	1	-1E+10	1	-1E+10	1	-1E+10	1	-1E+10	1
4901784	169	C	02/19/2020	10:43	-132.680	43.389	0	1600.00	0	2.3670	0	37.0120	8	29.563	0	1581.183	0	33.3	4	10.3	4	-1E+10	1	-1E+10	1	-1E+10	1	-1E+10	1	-1E+10	1	-1E+10	1
4901784	169	C	02/19/2020	10:43	-132.680	43.389	0	1604.40	0	2.3580	0	37.0130	8	29.564	0	1585.514	0	33.7	4	10.4	4	-1E+10	1	-1E+10	1	-1E+10	1	-1E+10	1	-1E+10	1	-1E+10	1
4901784	169	C	02/19/2020	10:43	-132.680	43.389	0	1609.60	0	2.3460	0	37.0150	8	29.567	0	1590.634	0	34.1	4	10.6	4	-1E+10	1	-1E+10	1	-1E+10	1	-1E+10	1	-1E+10	1	-1E+10	1
4901784	169	C	02/19/2020	10:43	-132.680	43.389	0	1615.00	0	2.3350	0	37.0170	8	29.570	0	1595.950	0	34.6	4	10.7	4	-1E+10	1	-1E+10	1	-1E+10	1	-1E+10	1	-1E+10	1	-1E+10	1
4901784	169	C	02/19/2020	10:43	-132.680	43.389	0	1620.30	0	2.3230	0	37.0190	8	29.572	0	1601.167	0	35.0	4	10.9	4	-1E+10	1	-1E+10	1	-1E+10	1	-1E+10	1	-1E+10	1	-1E+10	1
4901784	169	C	02/19/2020	10:43	-132.680	43.389	0	1624.80	0	2.3150	0	37.0200	8	29.574	0	1605.597	0	35.4	4	11.0	4	-1E+10	1	-1E+10	1	-1E+10	1	-1E+10	1	-1E+10	1	-1E+10	1
4901784	169	C	02/19/2020	10:43	-132.680	43.389	0	1629.30	0	2.3070	0	37.0210	8	29.575	0	1610.027	0	35.7	4	11.1	4	-1E+10	1	-1E+10	1	-1E+10	1	-1E+10	1	-1E+10	1	-1E+10	1
4901784	169	C	02/19/2020	10:43	-132.680	43.389	0	1634.60	0	2.2980	0	37.0230	8	29.578	0	1615.244	0	36.1	4	11.2	4	-1E+10	1	-1E+10	1	-1E+10	1	-1E+10	1	-1E+10	1	-1E+10	1
4901784	169	C	02/19/2020	10:43	-132.680	43.389	0	1640.10	0	2.2890	0	37.0250	8	29.580	0	1620.658	0	36.4	4	11.3	4	-1E+10	1	-1E+10	1	-1E+10	1	-1E+10	1	-1E+10	1	-1E+10	1
4901784	169	C	02/19/2020	10:43	-132.680	43.389	0	1645.50	0	2.2850	0	37.0250	8	29.581	0	1625.973	0	36.6	4	11.3	4	-1E+10	1	-1E+10	1	-1E+10	1	-1E+10	1	-1E+10	1	-1E+10	1
4901784	169	C	02/19/2020	10:43	-132.680	43.389	0	1650.00	0	2.2830	0	37.0260	8	29.582	0	1630.402	0	36.8	4	11.4	4	-1E+10	1	-1E+10	1	-1E+10	1	-1E+10	1	-1E+10	1	-1E+10	1
4901784	169	C	02/19/2020	10:43	-132.680	43.389	0	1654.50	0	2.2770	0	37.0270	8	29.583	0	1634.831	0	37.1	4	11.5	4	-1E+10	1	-1E+10	1	-1E+10	1	-1E+10	1	-1E+10	1	-1E+10	1
4901784	169	C	02/19/2020	10:43	-132.680	43.389	0	1660.00	0	2.2680	0	37.0280	8	29.585	0	1640.245	0	37.6	4	11.6	4	-1E+10	1	-1E+10	1	-1E+10	1	-1E+10	1	-1E+10	1	-1E+10	1
4901784	169	C	02/19/2020	10:43	-132.680	43.389	0	1665.40	0	2.2600	0	37.0300	8	29.587	0	1645.560	0	37.9	4	11.7	4	-1E+10	1	-1E+10	1	-1E+10	1	-1E+10	1	-1E+10	1	-1E+10	1
4901784	169	C	02/19/2020	10:43	-132.680	43.389	0	1670.00	0	2.2530	0	37.0310	8	29.588	0	1650.087	0	38.3	4	11.8	4	-1E+10	1	-1E+10	1	-1E+10	1	-1E+10	1	-1E+10	1	-1E+10	1
4901784	169	C	02/19/2020	10:43	-132.680	43.389	0	1674.60	0	2.2450	0	37.0320	8	29.590	0	1654.614	0	38.6	4	11.9	4	-1E+10	1	-1E+10	1	-1E+10	1	-1E+10	1	-1E+10	1	-1E+10	1
4901784	169	C	02/19/2020	10:43	-132.680	43.389	0	1680.20	0	2.2350	0	37.0340	8	29.592	0	1660.125	0	39.0	4	12.1	4	-1E+10	1	-1E+10	1	-1E+10	1	-1E+10	1	-1E+10	1	-1E+10	1
4901784	169	C	02/19/2020	10:43	-132.680	43.389	0	1684.90	0	2.2310	0	37.0350	8	29.594	0	1664.751	0	39.3	4	12.1	4	-1E+10	1	-1E+10	1	-1E+10	1	-1E+10	1	-1E+10	1	-1E+10	1
4901784	169	C	02/19/2020	10:43	-132.680	43.389	0	1689.50	0	2.2260	0	37.0360	8	29.595	0	1669.278	0	39.5	4	12.2	4	-1E+10	1	-1E+10	1	-1E+10	1	-1E+10	1	-1E+10	1	-1E+10	1
4901784	169	C	02/19/2020	10:43	-132.680	43.389	0	1695.10	0	2.2200	0	37.0370	8	29.596	0	1674.788	0	39.8	4	12.3	4	-1E+10	1	-1E+10	1	-1E+10	1	-1E+10	1	-1E+10	1	-1E+10	1
4901784	169	C	02/19/2020	10:43	-132.680	43.389	0	1699.80	0	2.2190	0	37.0380	8	29.597	0	1679.414	0	39.9	4	12.3	4	-1E+10	1	-1E+10	1	-1E+10	1	-1E+10	1	-1E+10	1	-1E+10	1
4901784	169	C	02/19/2020	10:43	-132.680	43.389	0	1704.50	0	2.2140	0	37.0390	8	29.598	0	1684.039	0	40.2	4	12.4	4	-1E+10	1	-1E+10	1	-1E+10	1	-1E+10	1	-1E+10	1	-1E+10	1
4901784	169	C	02/19/2020	10:43	-132.680	43.389	0	1710.00	0	2.2110	0	37.0400	8	29.599	0	1689.451	0	40.5	4	12.5	4	-1E+10	1	-1E+10	1	-1E+10	1	-1E+10	1	-1E+10	1	-1E+10	1
4901784	169	C	02/19/2020	10:43	-132.680	43.389	0	1715.60	0	2.2040	0	37.0450	8	29.604	0	1694.961	0	40.9	4	12.6	4	-1E+10	1	-1E+10	1	-1E+10	1	-1E+10	1	-1E+10	1	-1E+10	1
4901784	169	C	02/19/2020	10:43	-132.680	43.389	0	1720.20	0	2.2010	0	37.0470	8	29.606	0	1699.487	0	41.1	4	12.7	4	-1E+10	1	-1E+10	1	-1E+10	1	-1E+10	1	-1E+10	1	-1E+10	1
4901784	169	C	02/19/2020	10:43	-132.680	43.389	0	1724.90	0	2.1970	0	37.0480	8	29.607	0	1704.112	0	41.4	4	12.8	4	-1E+10	1	-1E+10	1	-1E+10	1	-1E+10	1	-1E+10	1	-1E+10	1
4901784	169	C	02/19/2020	10:43	-132.680	43.389	0	1730.50	0	2.1900	0	37.0490	8	29.609	0	1709.622	0	41.7	4	12.9	4	-1E+10	1	-1E+10	1	-1E+10	1	-1E+10	1	-1E+10	1	-1E+10	1
4901784	169	C	02/19/2020	10:43	-132.680	43.389	0	1735.10	0	2.1840	0	37.0500	8	29.610	0	1714.148	0	42.0	4	13.0	4	-1E+10	1	-1E+10	1	-1E+10	1	-1E+10	1	-1E+10	1	-1E+10	1
4901784	169	C	02/19/2020	10:43	-132.680	43.389	0	1739.80	0	2.1760	0	37.0510	8	29.612	0	1718.772	0	42.5	4	13.1	4	-1E+10	1	-1E+10	1	-1E+10	1	-1E+10	1	-1E+10	1	-1E+10	1
4901784	169	C	02/19/2020	10:43	-132.680	43.389	0	1745.40	0	2.1660	0	37.0530	8	29.614	0	1724.281	0	43.0	4	13.3	4	-1E+10	1	-1E+10	1	-1E+10	1	-1E+10	1	-1E+10	1	-1E+10	1
4901784	169	C	02/19/2020	10:43	-132.680	43.389	0	1750.00	0	2.1620	0	37.0540	8	29.615	0	1728.807	0	43.2	4	13.3	4	-1E+10	1	-1E+10	1	-1E+10	1	-1E+10	1	-1E+10	1	-1E+10	1
4901784	169	C	02/19/2020	10:43	-132.680	43.389	0	1754.70	0	2.1560	0	37.0540	8	29.616	0	1733.431	0	43.6	4	13.4	4	-1E+10	1	-1E+10	1	-1E+10	1	-1E+10	1	-1E+10	1	-1E+10	1
4901784	169	C	02/19/2020	10:43	-132.680	43.389	0	1760.40	0	2.1470	0	37.0560	8	29.618	0	1739.039	0	44.1	4	13.6	4	-1E+10	1	-1E+10	1	-1E+10	1	-1E+10	1	-1E+10	1	-1E+10	1
4901784	169	C	02/19/2020	10:43	-132.680	43.389	0	1765.10	0	2.1400	0	37.0580	8	29.620	0	1743.662	0	44.4	4	13.7	4	-1E+10	1	-1E+10	1	-1E+10	1	-1E+10	1	-1E+10	1	-1E+10	1
4901784	169	C	02/19/2020	10:43	-132.680	43.389	0	1769.80	0	2.1360	0	37.0590	8	29.622	0	1748.286	0	44.7	4	13.8	4	-1E+10	1	-1E+10	1	-1E+10	1	-1E+10	1	-1E+10	1	-1E+10	1
4901784	169	C	02/19/2020	10:43	-132.680	43.389	0	1775.40	0	2.1280	0	37.0600	8	29.623	0	1753.795	0	45.1	4	13.9	4	-1E+10	1	-1E+10	1	-1E+10	1	-1E+10	1	-1E+10	1	-1E+10	1
4901784	169	C	02/19/2020	10:43	-132.680	43.389	0	1780.10	0	2.1250	0	37.0610	8	29.624	0	1758.418	0	45.3	4	14.0	4	-1E+10	1	-1E+10	1	-1E+10	1	-1E+10	1	-1E+10	1	-1E+10	1
4901784	169	C	02/19/2020	10:43	-132.680	43.389	0	1784.80	0	2.1170	0	37.0610	8	29.625	0	1763.041	0	45.6	4	14.0	4	-1E+10	1	-1E+10	1	-1E+10	1	-1E+10	1	-1E+10	1	-1E+10	1
4901784	169	C	02/19/2020	10:43	-132.680	43.389	0	1790.40	0	2.1100	0	37.0620	8	29.626	0	1768.550	0	45.9	4	14.1	4	-1E+10	1	-1E+10	1	-1E+10	1	-1E+10	1	-1E+10	1	-1E+10	1
4901784	169	C	02/19/2020	10:43	-132.680	43.389	0	1794.60	0	2.1050	0	37.0630	8	29.628	0	1772.681	0	46.2	4	14.2	4	-1E+10	1	-1E+10	1	-1E+10	1	-1E+10	1	-1E+10	1	-1E+10	1
4901784	169	C	02/19/2020	10:43	-132.680	43.389	0	1799.50	0	2.1000	0	37.0640	8	29.629	0	1777.500	0	46.6	4	14.4	4	-1E+10	1	-1E+10	1	-1E+10	1	-1E+10	1	-1E+10	1	-1E+10	1
4901784	169	C	02/19/2020	10:43	-132.680	43.389	0	1804.40	0	2.0940	0	37.0660	8	29.631	0	1782.320	0	47.1	4	14.5	4	-1E+10	1	-1E+10	1	-1E+10	1	-1E+10	1	-1E+10	1	-1E+10	1
4901784	169	C	02/19/2020	10:43	-132.680	43.389	0	1809.30	0	2.0860	0	37.0670	8	29.633	0	1787.140	0	47.4	4	14.6	4	-1E+10	1	-1E+10	1	-1E+10	1	-1E+10	1	-1E+10	1	-1E+10	1
4901784	169	C	02/19/2020	10:43	-132.680	43.389	0	1814.30	0	2.0820	0	37.0670	8	29.633	0	1792.057	0	47.6	4	14.7	4	-1E+10	1	-1E+10	1	-1E+10	1	-1E+10	1	-1E+10	1	-1E+10	1
4901784	169	C	02/19/2020	10:43	-132.680	43.389	0	1819.20	0	2.0750	0	37.0680	8	29.634	0	1796.876	0	48.1	4	14.8	4	-1E+10	1	-1E+10	1	-1E+10	1	-1E+10	1	-1E+10	1	-1E+10	1
4901784	169	C	02/19/2020	10:43	-132.680	43.389	0	1824.20	0	2.0660	0	37.0700	8	29.637	0	1801.794	0	48.6	4	15.0	4	-1E+10	1	-1E+10	1	-1E+10	1	-1E+10	1	-1E+10	1	-1E+10	1
4901784	169	C	02/19/2020	10:43	-132.680	43.389	0	1829.20	0	2.0610	0	37.0710	8	29.638	0	1806.711	0	48.8	4	15.0	4	-1E+10	1	-1E+10	1	-1E+10	1	-1E+10	1	-1E+10	1	-1E+10	1
4901784	169	C	02/19/2020	10:43	-132.680	43.389	0	1835.00	0	2.0570	0	37.0720	8	29.639	0	1812.415	0	49.0	4	15.1	4	-1E+10	1	-1E+10	1	-1E+10	1	-1E+10	1	-1E+10	1	-1E+10	1
4901784	169	C	02/19/2020	10:43	-132.680	43.389	0	1840.00	0	2.0510	0	37.0730	8	29.641	0	1817.332	0	49.2	4	15.2	4	-1E+10	1	-1E+10	1	-1E+10	1	-1E+10	1	-1E+10	1	-1E+10	1
4901784	169	C	02/19/2020	10:43	-132.680	43.389	0	1844.20	0	2.0480	0	37.0730	8	29.641	0	1821.462	0	49.5	4	15.2	4	-1E+10	1	-1E+10	1	-1E+10	1	-1E+10	1	-1E+10	1	-1E+10	1
4901784	169	C	02/19/2020	10:43	-132.680	43.389	0	1849.30	0	2.0450	0	37.0740	8	29.642	0	1826.478	0	49.9	4	15.3	4	-1E+10	1	-1E+10	1	-1E+10	1	-1E+10	1	-1E+10	1	-1E+10	1
4901784	169	C	02/19/2020	10:43	-132.680	43.389	0	1854.40	0	2.0410	0	37.0760	8	29.644	0	1831.493	0	50.1	4	15.4	4	-1E+10	1	-1E+10	1	-1E+10	1	-1E+10	1	-1E+10	1	-1E+10	1
4901784	169	C	02/19/2020	10:43	-132.680	43.389	0	1859.50	0	2.0400	0	37.0760	8	29.644	0	1836.508	0	50.4	4	15.5	4	-1E+10	1	-1E+10	1	-1E+10	1	-1E+10	1	-1E+10	1	-1E+10	1
4901784	169	C	02/19/2020	10:43	-132.680	43.389	0	1864.70	0	2.0350	0	37.0770	8	29.645	0	1841.621	0	50.8	4	15.6	4	-1E+10	1	-1E+10	1	-1E+10	1	-1E+10	1	-1E+10	1	-1E+10	1
4901784	169	C	02/19/2020	10:43	-132.680	43.389	0	1869.90	0	2.0280	0	37.0780	8	29.647	0	1846.734	0	51.1	4	15.7	4	-1E+10	1	-1E+10	1	-1E+10	1	-1E+10	1	-1E+10	1	-1E+10	1
4901784	169	C	02/19/2020	10:43	-132.680	43.389	0	1875.10	0	2.0260	0	37.0790	8	29.648	0	1851.847	0	51.3	4	15.8	4	-1E+10	1	-1E+10	1	-1E+10	1	-1E+10	1	-1E+10	1	-1E+10	1
4901784	169	C	02/19/2020	10:43	-132.680	43.389	0	1880.30	0	2.0230	0	37.0790	8	29.648	0	1856.960	0	51.6	4	15.9	4	-1E+10	1	-1E+10	1	-1E+10	1	-1E+10	1	-1E+10	1	-1E+10	1
4901784	169	C	02/19/2020	10:43	-132.680	43.389	0	1885.50	0	2.0180	0	37.0810	8	29.650	0	1862.073	0	51.9	4	16.0	4	-1E+10	1	-1E+10	1	-1E+10	1	-1E+10	1	-1E+10	1	-1E+10	1
4901784	169	C	02/19/2020	10:43	-132.680	43.389	0	1889.90	0	2.0150	0	37.0810	8	29.650	0	1866.399	0	52.1	4	16.0	4	-1E+10	1	-1E+10	1	-1E+10	1	-1E+10	1	-1E+10	1	-1E+10	1
4901784	169	C	02/19/2020	10:43	-132.680	43.389	0	1894.30	0	2.0110	0	37.0820	8	29.652	0	1870.725	0	52.4	4	16.1	4	-1E+10	1	-1E+10	1	-1E+10	1	-1E+10	1	-1E+10	1	-1E+10	1
4901784	169	C	02/19/2020	10:43	-132.680	43.389	0	1899.60	0	2.0060	0	37.0830	8	29.653	0	1875.935	0	52.7	4	16.2	4	-1E+10	1	-1E+10	1	-1E+10	1	-1E+10	1	-1E+10	1	-1E+10	1
4901784	169	C	02/19/2020	10:43	-132.680	43.389	0	1904.90	0	2.0010	0	37.0840	8	29.654	0	1881.146	0	53.0	4	16.3	4	-1E+10	1	-1E+10	1	-1E+10	1	-1E+10	1	-1E+10	1	-1E+10	1
4901784	169	C	02/19/2020	10:43	-132.680	43.389	0	1910.20	0	1.9990	0	37.0840	8	29.654	0	1886.356	0	53.2	4	16.4	4	-1E+10	1	-1E+10	1	-1E+10	1	-1E+10	1	-1E+10	1	-1E+10	1
4901784	169	C	02/19/2020	10:43	-132.680	43.389	0	1915.70	0	1.9970	0	37.0850	8	29.655	0	1891.763	0	53.5	4	16.4	4	-1E+10	1	-1E+10	1	-1E+10	1	-1E+10	1	-1E+10	1	-1E+10	1
4901784	169	C	02/19/2020	10:43	-132.680	43.389	0	1920.20	0	1.9930	0	37.0860	8	29.656	0	1896.187	0	53.9	4	16.6	4	-1E+10	1	-1E+10	1	-1E+10	1	-1E+10	1	-1E+10	1	-1E+10	1
4901784	169	C	02/19/2020	10:43	-132.680	43.389	0	1925.40	0	1.9880	0	37.0870	8	29.658	0	1901.299	0	54.2	4	16.7	4	-1E+10	1	-1E+10	1	-1E+10	1	-1E+10	1	-1E+10	1	-1E+10	1
4901784	169	C	02/19/2020	10:43	-132.680	43.389	0	1930.40	0	1.9840	0	37.0880	8	29.659	0	1906.214	0	54.4	4	16.7	4	-1E+10	1	-1E+10	1	-1E+10	1	-1E+10	1	-1E+10	1	-1E+10	1
4901784	169	C	02/19/2020	10:43	-132.680	43.389	0	1935.20	0	1.9810	0	37.0880	8	29.659	0	1910.932	0	54.7	4	16.8	4	-1E+10	1	-1E+10	1	-1E+10	1	-1E+10	1	-1E+10	1	-1E+10	1
4901784	169	C	02/19/2020	10:43	-132.680	43.389	0	1940.00	0	1.9780	0	37.0890	8	29.660	0	1915.650	0	55.0	4	16.9	4	-1E+10	1	-1E+10	1	-1E+10	1	-1E+10	1	-1E+10	1	-1E+10	1
4901784	169	C	02/19/2020	10:43	-132.680	43.389	0	1944.80	0	1.9720	0	37.0900	8	29.662	0	1920.368	0	55.3	4	17.0	4	-1E+10	1	-1E+10	1	-1E+10	1	-1E+10	1	-1E+10	1	-1E+10	1
4901784	169	C	02/19/2020	10:43	-132.680	43.389	0	1949.60	0	1.9670	0	37.0910	8	29.663	0	1925.086	0	55.7	4	17.1	4	-1E+10	1	-1E+10	1	-1E+10	1	-1E+10	1	-1E+10	1	-1E+10	1
4901784	169	C	02/19/2020	10:43	-132.680	43.389	0	1954.50	0	1.9610	0	37.0910	8	29.663	0	1929.903	0	56.0	4	17.2	4	-1E+10	1	-1E+10	1	-1E+10	1	-1E+10	1	-1E+10	1	-1E+10	1
4901784	169	C	02/19/2020	10:43	-132.680	43.389	0	1959.40	0	1.9560	0	37.0920	8	29.665	0	1934.719	0	56.3	4	17.3	4	-1E+10	1	-1E+10	1	-1E+10	1	-1E+10	1	-1E+10	1	-1E+10	1
4901784	169	C	02/19/2020	10:43	-132.680	43.389	0	1964.30	0	1.9530	0	37.0930	8	29.666	0	1939.535	0	56.5	4	17.4	4	-1E+10	1	-1E+10	1	-1E+10	1	-1E+10	1	-1E+10	1	-1E+10	1
4901784	169	C	02/19/2020	10:43	-132.680	43.389	0	1969.20	0	1.9500	0	37.0940	8	29.667	0	1944.351	0	56.7	4	17.4	4	-1E+10	1	-1E+10	1	-1E+10	1	-1E+10	1	-1E+10	1	-1E+10	1
4901784	169	C	02/19/2020	10:43	-132.680	43.389	0	1974.20	0	1.9480	0	37.0940	8	29.667	0	1949.265	0	57.0	4	17.5	4	-1E+10	1	-1E+10	1	-1E+10	1	-1E+10	1	-1E+10	1	-1E+10	1
4901784	169	C	02/19/2020	10:43	-132.680	43.389	0	1979.20	0	1.9450	0	37.0950	8	29.668	0	1954.179	0	57.2	4	17.6	4	-1E+10	1	-1E+10	1	-1E+10	1	-1E+10	1	-1E+10	1	-1E+10	1
4901784	169	C	02/19/2020	10:43	-132.680	43.389	0	1984.30	0	1.9420	0	37.0960	8	29.669	0	1959.191	0	57.5	4	17.7	4	-1E+10	1	-1E+10	1	-1E+10	1	-1E+10	1	-1E+10	1	-1E+10	1
4901784	169	C	02/19/2020	10:43	-132.680	43.389	0	1989.30	0	1.9390	0	37.0970	8	29.670	0	1964.104	0	57.7	4	17.7	4	-1E+10	1	-1E+10	1	-1E+10	1	-1E+10	1	-1E+10	1	-1E+10	1
4901784	169	C	02/19/2020	10:43	-132.680	43.389	0	1994.40	0	1.9380	0	37.0970	8	29.670	0	1969.116	0	57.9	4	17.8	4	-1E+10	1	-1E+10	1	-1E+10	1	-1E+10	1	-1E+10	1	-1E+10	1
4901784	169	C	02/19/2020	10:43	-132.680	43.389	0	1999.50	0	1.9340	0	37.0980	8	29.672	0	1974.128	0	58.1	4	17.8	4	-1E+10	1	-1E+10	1	-1E+10	1	-1E+10	1	-1E+10	1	-1E+10	1
4901784	169	C	02/19/2020	10:43	-132.680	43.389	0	2005.30	0	1.9310	0	37.0980	8	29.672	0	1979.827	0	58.3	4	17.9	4	-1E+10	1	-1E+10	1	-1E+10	1	-1E+10	1	-1E+10	1	-1E+10	1
4901784	169	C	02/19/2020	10:43	-132.680	43.389	0	2010.10	0	1.9260	0	37.0990	8	29.673	0	1984.544	0	58.6	4	18.0	4	-1E+10	1	-1E+10	1	-1E+10	1	-1E+10	1	-1E+10	1	-1E+10	1
4901784	169	C	02/19/2020	10:43	-132.680	43.389	0	2015.00	0	1.9230	0	37.1000	8	29.674	0	1989.359	0	58.8	4	18.0	4	-1E+10	1	-1E+10	1	-1E+10	1	-1E+10	1	-1E+10	1	-1E+10	1
4901784	169	C	02/19/2020	10:43	-132.680	43.389	0	2019.60	0	1.9190	0	37.1000	8	29.675	0	1993.879	0	59.0	4	18.1	4	-1E+10	1	-1E+10	1	-1E+10	1	-1E+10	1	-1E+10	1	-1E+10	1
4901784	169	C	02/19/2020	10:43	-132.680	43.389	0																										
4901784	170	C	02/29/2020	10:45	-132.753	43.373	0	2.40	0	10.9100	0	34.6470	8	26.517	0	2.381	0	262.7	4	97.3	4	-1E+10	1	-1E+10	1	-1E+10	1	-1E+10	1	-1E+10	1	-1E+10	1
4901784	170	C	02/29/2020	10:45	-132.753	43.373	0	3.70	0	10.9100	0	34.6470	8	26.517	0	3.670	0	262.9	4	97.4	4	-1E+10	1	-1E+10	1	-1E+10	1	-1E+10	1	-1E+10	1	-1E+10	1
4901784	170	C	02/29/2020	10:45	-132.753	43.373	0	5.20	0	10.9090	0	34.6480	8	26.518	0	5.158	0	262.8	4	97.3	4	-1E+10	1	-1E+10	1	-1E+10	1	-1E+10	1	-1E+10	1	-1E+10	1
4901784	170	C	02/29/2020	10:45	-132.753	43.373	0	6.70	0	10.9090	0	34.6490	8	26.519	0	6.647	0	262.7	4	97.3	4	-1E+10	1	-1E+10	1	-1E+10	1	-1E+10	1	-1E+10	1	-1E+10	1
4901784	170	C	02/29/2020	10:45	-132.753	43.373	0	8.40	0	10.9090	0	34.6490	8	26.519	0	8.333	0	262.7	4	97.3	4	-1E+10	1	-1E+10	1	-1E+10	1	-1E+10	1	-1E+10	1	-1E+10	1
4901784	170	C	02/29/2020	10:45	-132.753	43.373	0	10.10	0	10.9090	0	34.6500	8	26.520	0	10.019	0	262.7	4	97.3	4	-1E+10	1	-1E+10	1	-1E+10	1	-1E+10	1	-1E+10	1	-1E+10	1
4901784	170	C	02/29/2020	10:45	-132.753	43.373	0	11.90	0	10.9090	0	34.6510	8	26.521	0	11.805	0	262.7	4	97.3	4	-1E+10	1	-1E+10	1	-1E+10	1	-1E+10	1	-1E+10	1	-1E+10	1
4901784	170	C	02/29/2020	10:45	-132.753	43.373	0	13.50	0	10.9080	0	34.6510	8	26.521	0	13.392	0	262.7	4	97.3	4	-1E+10	1	-1E+10	1	-1E+10	1	-1E+10	1	-1E+10	1	-1E+10	1
4901784	170	C	02/29/2020	10:45	-132.753	43.373	0	15.20	0	10.9110	0	34.6510	8	26.521	0	15.078	0	262.7	4	97.3	4	-1E+10	1	-1E+10	1	-1E+10	1	-1E+10	1	-1E+10	1	-1E+10	1
4901784	170	C	02/29/2020	10:45	-132.753	43.373	0	16.90	0	10.9120	0	34.6520	8	26.521	0	16.765	0	262.7	4	97.3	4	-1E+10	1	-1E+10	1	-1E+10	1	-1E+10	1	-1E+10	1	-1E+10	1
4901784	170	C	02/29/2020	10:45	-132.753	43.373	0	18.60	0	10.9110	0	34.6520	8	26.521	0	18.451	0	262.7	4	97.3	4	-1E+10	1	-1E+10	1	-1E+10	1	-1E+10	1	-1E+10	1	-1E+10	1
4901784	170	C	02/29/2020	10:45	-132.753	43.373	0	20.30	0	10.9080	0	34.6530	8	26.523	0	20.137	0	262.5	4	97.2	4	-1E+10	1	-1E+10	1	-1E+10	1	-1E+10	1	-1E+10	1	-1E+10	1
4901784	170	C	02/29/2020	10:45	-132.753	43.373	0	22.10	0	10.9110	0	34.6540	8	26.523	0	21.923	0	262.7	4	97.3	4	-1E+10	1	-1E+10	1	-1E+10	1	-1E+10	1	-1E+10	1	-1E+10	1
4901784	170	C	02/29/2020	10:45	-132.753	43.373	0	23.90	0	10.9110	0	34.6540	8	26.523	0	23.708	0	262.6	4	97.3	4	-1E+10	1	-1E+10	1	-1E+10	1	-1E+10	1	-1E+10	1	-1E+10	1
4901784	170	C	02/29/2020	10:45	-132.753	43.373	0	25.60	0	10.9100	0	34.6550	8	26.524	0	25.394	0	262.7	4	97.3	4	-1E+10	1	-1E+10	1	-1E+10	1	-1E+10	1	-1E+10	1	-1E+10	1
4901784	170	C	02/29/2020	10:45	-132.753	43.373	0	27.30	0	10.9110	0	34.6550	8	26.524	0	27.081	0	262.5	4	97.2	4	-1E+10	1	-1E+10	1	-1E+10	1	-1E+10	1	-1E+10	1	-1E+10	1
4901784	170	C	02/29/2020	10:45	-132.753	43.373	0	29.00	0	10.9120	0	34.6550	8	26.524	0	28.767	0	262.6	4	97.3	4	-1E+10	1	-1E+10	1	-1E+10	1	-1E+10	1	-1E+10	1	-1E+10	1
4901784	170	C	02/29/2020	10:45	-132.753	43.373	0	30.80	0	10.9130	0	34.6560	8	26.524	0	30.552	0	262.4	4	97.2	4	-1E+10	1	-1E+10	1	-1E+10	1	-1E+10	1	-1E+10	1	-1E+10	1
4901784	170	C	02/29/2020	10:45	-132.753	43.373	0	32.50	0	10.9130	0	34.6560	8	26.524	0	32.238	0	262.5	4	97.2	4	-1E+10	1	-1E+10	1	-1E+10	1	-1E+10	1	-1E+10	1	-1E+10	1
4901784	170	C	02/29/2020	10:45	-132.753	43.373	0	34.20	0	10.9130	0	34.6570	8	26.525	0	33.925	0	262.4	4	97.2	4	-1E+10	1	-1E+10	1	-1E+10	1	-1E+10	1	-1E+10	1	-1E+10	1
4901784	170	C	02/29/2020	10:45	-132.753	43.373	0	36.00	0	10.9130	0	34.6570	8	26.525	0	35.710	0	262.5	4	97.2	4	-1E+10	1	-1E+10	1	-1E+10	1	-1E+10	1	-1E+10	1	-1E+10	1
4901784	170	C	02/29/2020	10:45	-132.753	43.373	0	37.80	0	10.9140	0	34.6580	8	26.526	0	37.495	0	262.1	4	97.1	4	-1E+10	1	-1E+10	1	-1E+10	1	-1E+10	1	-1E+10	1	-1E+10	1
4901784	170	C	02/29/2020	10:45	-132.753	43.373	0	39.50	0	10.9140	0	34.6590	8	26.527	0	39.181	0	262.3	4	97.2	4	-1E+10	1	-1E+10	1	-1E+10	1	-1E+10	1	-1E+10	1	-1E+10	1
4901784	170	C	02/29/2020	10:45	-132.753	43.373	0	41.20	0	10.9160	0	34.6600	8	26.527	0	40.868	0	262.2	4	97.1	4	-1E+10	1	-1E+10	1	-1E+10	1	-1E+10	1	-1E+10	1	-1E+10	1
4901784	170	C	02/29/2020	10:45	-132.753	43.373	0	42.90	0	10.9140	0	34.6610	8	26.528	0	42.554	0	261.9	4	97.0	4	-1E+10	1	-1E+10	1	-1E+10	1	-1E+10	1	-1E+10	1	-1E+10	1
4901784	170	C	02/29/2020	10:45	-132.753	43.373	0	44.60	0	10.9150	0	34.6620	8	26.529	0	44.240	0	262.0	4	97.1	4	-1E+10	1	-1E+10	1	-1E+10	1	-1E+10	1	-1E+10	1	-1E+10	1
4901784	170	C	02/29/2020	10:45	-132.753	43.373	0	46.20	0	10.9150	0	34.6620	8	26.529	0	45.827	0	261.7	4	97.0	4	-1E+10	1	-1E+10	1	-1E+10	1	-1E+10	1	-1E+10	1	-1E+10	1
4901784	170	C	02/29/2020	10:45	-132.753	43.373	0	47.90	0	10.9150	0	34.6630	8	26.530	0	47.513	0	261.6	4	96.9	4	-1E+10	1	-1E+10	1	-1E+10	1	-1E+10	1	-1E+10	1	-1E+10	1
4901784	170	C	02/29/2020	10:45	-132.753	43.373	0	49.50	0	10.9140	0	34.6630	8	26.530	0	49.100	0	261.4	4	96.8	4	-1E+10	1	-1E+10	1	-1E+10	1	-1E+10	1	-1E+10	1	-1E+10	1
4901784	170	C	02/29/2020	10:45	-132.753	43.373	0	51.10	0	10.9130	0	34.6640	8	26.531	0	50.687	0	261.4	4	96.8	4	-1E+10	1	-1E+10	1	-1E+10	1	-1E+10	1	-1E+10	1	-1E+10	1
4901784	170	C	02/29/2020	10:45	-132.753	43.373	0	52.70	0	10.9110	0	34.6650	8	26.532	0	52.273	0	261.0	4	96.7	4	-1E+10	1	-1E+10	1	-1E+10	1	-1E+10	1	-1E+10	1	-1E+10	1
4901784	170	C	02/29/2020	10:45	-132.753	43.373	0	54.30	0	10.9060	0	34.6660	8	26.534	0	53.860	0	260.8	4	96.6	4	-1E+10	1	-1E+10	1	-1E+10	1	-1E+10	1	-1E+10	1	-1E+10	1
4901784	170	C	02/29/2020	10:45	-132.753	43.373	0	55.80	0	10.9050	0	34.6650	8	26.533	0	55.348	0	260.4	4	96.5	4	-1E+10	1	-1E+10	1	-1E+10	1	-1E+10	1	-1E+10	1	-1E+10	1
4901784	170	C	02/29/2020	10:45	-132.753	43.373	0	57.40	0	10.8950	0	34.6690	8	26.538	0	56.935	0	260.1	4	96.3	4	-1E+10	1	-1E+10	1	-1E+10	1	-1E+10	1	-1E+10	1	-1E+10	1
4901784	170	C	02/29/2020	10:45	-132.753	43.373	0	59.00	0	10.8930	0	34.6690	8	26.539	0	58.521	0	259.8	4	96.2	4	-1E+10	1	-1E+10	1	-1E+10	1	-1E+10	1	-1E+10	1	-1E+10	1
4901784	170	C	02/29/2020	10:45	-132.753	43.373	0	60.60	0	10.8870	0	34.6690	8	26.540	0	60.108	0	259.2	4	96.0	4	-1E+10	1	-1E+10	1	-1E+10	1	-1E+10	1	-1E+10	1	-1E+10	1
4901784	170	C	02/29/2020	10:45	-132.753	43.373	0	62.20	0	10.8570	0	34.6750	8	26.550	0	61.695	0	258.8	4	95.8	4	-1E+10	1	-1E+10	1	-1E+10	1	-1E+10	1	-1E+10	1	-1E+10	1
4901784	170	C	02/29/2020	10:45	-132.753	43.373	0	64.00	0	10.8540	0	34.6730	8	26.549	0	63.480	0	259.0	4	95.8	4	-1E+10	1	-1E+10	1	-1E+10	1	-1E+10	1	-1E+10	1	-1E+10	1
4901784	170	C	02/29/2020	10:45	-132.753	43.373	0	65.70	0	10.8380	0	34.6740	8	26.553	0	65.166	0	258.7	4	95.7	4	-1E+10	1	-1E+10	1	-1E+10	1	-1E+10	1	-1E+10	1	-1E+10	1
4901784	170	C	02/29/2020	10:45	-132.753	43.373	0	67.40	0	10.8400	0	34.6760	8	26.554	0	66.852	0	258.7	4	95.7	4	-1E+10	1	-1E+10	1	-1E+10	1	-1E+10	1	-1E+10	1	-1E+10	1
4901784	170	C	02/29/2020	10:45	-132.753	43.373	0	69.10	0	10.8440	0	34.6790	8	26.556	0	68.538	0	258.5	4	95.6	4	-1E+10	1	-1E+10	1	-1E+10	1	-1E+10	1	-1E+10	1	-1E+10	1
4901784	170	C	02/29/2020	10:45	-132.753	43.373	0	70.90	0	10.8510	0	34.6810	8	26.556	0	70.323	0	258.4	4	95.6	4	-1E+10	1	-1E+10	1	-1E+10	1	-1E+10	1	-1E+10	1	-1E+10	1
4901784	170	C	02/29/2020	10:45	-132.753	43.373	0	72.50	0	10.8630	0	34.6830	8	26.555	0	71.910	0	258.3	4	95.6	4	-1E+10	1	-1E+10	1	-1E+10	1	-1E+10	1	-1E+10	1	-1E+10	1
4901784	170	C	02/29/2020	10:45	-132.753	43.373	0	74.30	0	10.8600	0	34.6830	8	26.556	0	73.695	0	258.0	4	95.5	4	-1E+10	1	-1E+10	1	-1E+10	1	-1E+10	1	-1E+10	1	-1E+10	1
4901784	170	C	02/29/2020	10:45	-132.753	43.373	0	75.90	0	10.8580	0	34.6830	8	26.556	0	75.281	0	257.7	4	95.4	4	-1E+10	1	-1E+10	1	-1E+10	1	-1E+10	1	-1E+10	1	-1E+10	1
4901784	170	C	02/29/2020	10:45	-132.753	43.373	0	77.70	0	10.8520	0	34.6830	8	26.557	0	77.066	0	257.5	4	95.3	4	-1E+10	1	-1E+10	1	-1E+10	1	-1E+10	1	-1E+10	1	-1E+10	1
4901784	170	C	02/29/2020	10:45	-132.753	43.373	0	79.40	0	10.8490	0	34.6840	8	26.559	0	78.752	0	256.9	4	95.0	4	-1E+10	1	-1E+10	1	-1E+10	1	-1E+10	1	-1E+10	1	-1E+10	1
4901784	170	C	02/29/2020	10:45	-132.753	43.373	0	81.10	0	10.8490	0	34.6840	8	26.559	0	80.438	0	256.4	4	94.9	4	-1E+10	1	-1E+10	1	-1E+10	1	-1E+10	1	-1E+10	1	-1E+10	1
4901784	170	C	02/29/2020	10:45	-132.753	43.373	0	82.80	0	10.8500	0	34.6860	8	26.560	0	82.124	0	256.0	4	94.7	4	-1E+10	1	-1E+10	1	-1E+10	1	-1E+10	1	-1E+10	1	-1E+10	1
4901784	170	C	02/29/2020	10:45	-132.753	43.373	0	84.50	0	10.8560	0	34.6880	8	26.561	0	83.810	0	255.4	4	94.5	4	-1E+10	1	-1E+10	1	-1E+10	1	-1E+10	1	-1E+10	1	-1E+10	1
4901784	170	C	02/29/2020	10:45	-132.753	43.373	0	86.40	0	10.8570	0	34.6890	8	26.561	0	85.694	0	254.7	4	94.2	4	-1E+10	1	-1E+10	1	-1E+10	1	-1E+10	1	-1E+10	1	-1E+10	1
4901784	170	C	02/29/2020	10:45	-132.753	43.373	0	88.10	0	10.8580	0	34.6890	8	26.561	0	87.379	0	253.5	4	93.8	4	-1E+10	1	-1E+10	1	-1E+10	1	-1E+10	1	-1E+10	1	-1E+10	1
4901784	170	C	02/29/2020	10:45	-132.753	43.373	0	89.90	0	10.8610	0	34.6900	8	26.562	0	89.164	0	252.1	4	93.3	4	-1E+10	1	-1E+10	1	-1E+10	1	-1E+10	1	-1E+10	1	-1E+10	1
4901784	170	C	02/29/2020	10:45	-132.753	43.373	0	91.70	0	10.8640	0	34.6900	8	26.561	0	90.949	0	250.1	4	92.6	4	-1E+10	1	-1E+10	1	-1E+10	1	-1E+10	1	-1E+10	1	-1E+10	1
4901784	170	C	02/29/2020	10:45	-132.753	43.373	0	93.50	0	10.8720	0	34.6920	8	26.561	0	92.734	0	247.8	4	91.7	4	-1E+10	1	-1E+10	1	-1E+10	1	-1E+10	1	-1E+10	1	-1E+10	1
4901784	170	C	02/29/2020	10:45	-132.753	43.373	0	95.80	0	10.8680	0	34.7150	8	26.580	0	95.015	0	244.2	4	90.4	4	-1E+10	1	-1E+10	1	-1E+10	1	-1E+10	1	-1E+10	1	-1E+10	1
4901784	170	C	02/29/2020	10:45	-132.753	43.373	0	97.60	0	10.7200	0	34.7350	8	26.622	0	96.799	0	240.2	4	88.7	4	-1E+10	1	-1E+10	1	-1E+10	1	-1E+10	1	-1E+10	1	-1E+10	1
4901784	170	C	02/29/2020	10:45	-132.753	43.373	0	99.00	0	10.5880	0	34.7370	8	26.647	0	98.188	0	238.0	4	87.6	4	-1E+10	1	-1E+10	1	-1E+10	1	-1E+10	1	-1E+10	1	-1E+10	1
4901784	170	C	02/29/2020	10:45	-132.753	43.373	0	100.40	0	10.3850	0	34.7790	8	26.715	0	99.576	0	235.7	4	86.4	4	-1E+10	1	-1E+10	1	-1E+10	1	-1E+10	1	-1E+10	1	-1E+10	1
4901784	170	C	02/29/2020	10:45	-132.753	43.373	0	102.60	0	10.1150	0	34.8070	8	26.784	0	101.757	0	234.5	4	85.5	4	-1E+10	1	-1E+10	1	-1E+10	1	-1E+10	1	-1E+10	1	-1E+10	1
4901784	170	C	02/29/2020	10:45	-132.753	43.373	0	105.50	0	9.7560	0	34.8040	8	26.843	0	104.633	0	232.5	4	84.1	4	-1E+10	1	-1E+10	1	-1E+10	1	-1E+10	1	-1E+10	1	-1E+10	1
4901784	170	C	02/29/2020	10:45	-132.753	43.373	0	107.70	0	9.2640	0	34.8240	8	26.940	0	106.814	0	232.2	4	83.1	4	-1E+10	1	-1E+10	1	-1E+10	1	-1E+10	1	-1E+10	1	-1E+10	1
4901784	170	C	02/29/2020	10:45	-132.753	43.373	0	110.00	0	9.1380	0	34.9150	8	27.032	0	109.094	0	229.7	4	82.1	4	-1E+10	1	-1E+10	1	-1E+10	1	-1E+10	1	-1E+10	1	-1E+10	1
4901784	170	C	02/29/2020	10:45	-132.753	43.373	0	112.30	0	9.0840	0	34.9540	8	27.071	0	111.375	0	228.0	4	81.4	4	-1E+10	1	-1E+10	1	-1E+10	1	-1E+10	1	-1E+10	1	-1E+10	1
4901784	170	C	02/29/2020	10:45	-132.753	43.373	0	114.80	0	8.9700	0	34.9940	8	27.121	0	113.854	0	226.1	4	80.5	4	-1E+10	1	-1E+10	1	-1E+10	1	-1E+10	1	-1E+10	1	-1E+10	1
4901784	170	C	02/29/2020	10:45	-132.753	43.373	0	117.30	0	8.7930	0	35.0420	8	27.187	0	116.332	0	224.7	4	79.7	4	-1E+10	1	-1E+10	1	-1E+10	1	-1E+10	1	-1E+10	1	-1E+10	1
4901784	170	C	02/29/2020	10:45	-132.753	43.373	0	120.00	0	8.6620	0	35.1220	8	27.270	0	119.009	0	223.2	4	79.0	4	-1E+10	1	-1E+10	1	-1E+10	1	-1E+10	1	-1E+10	1	-1E+10	1
4901784	170	C	02/29/2020	10:45	-132.753	43.373	0	122.70	0	8.6170	0	35.1640	8	27.310	0	121.686	0	221.9	4	78.5	4	-1E+10	1	-1E+10	1	-1E+10	1	-1E+10	1	-1E+10	1	-1E+10	1
4901784	170	C	02/29/2020	10:45	-132.753	43.373	0	124.90	0	8.5530	0	35.2240	8	27.367	0	123.867	0	220.7	4	78.0	4	-1E+10	1	-1E+10	1	-1E+10	1	-1E+10	1	-1E+10	1	-1E+10	1
4901784	170	C	02/29/2020	10:45	-132.753	43.373	0	127.20	0	8.5370	0	35.2350	8	27.378	0	126.148	0	219.3	4	77.5	4	-1E+10	1	-1E+10	1	-1E+10	1	-1E+10	1	-1E+10	1	-1E+10	1
4901784	170	C	02/29/2020	10:45	-132.753	43.373	0	130.10	0	8.4850	0	35.2830	8	27.424	0	129.023	0	217.1	4	76.6	4	-1E+10	1	-1E+10	1	-1E+10	1	-1E+10	1	-1E+10	1	-1E+10	1
4901784	170	C	02/29/2020	10:45	-132.753	43.373	0	132.30	0	8.4310	0	35.3310	8	27.470	0	131.204	0	215.1	4	75.9	4	-1E+10	1	-1E+10	1	-1E+10	1	-1E+10	1	-1E+10	1	-1E+10	1
4901784	170	C	02/29/2020	10:45	-132.753	43.373	0	134.50	0	8.3360	0	35.4350	8	27.567	0	133.385	0	213.2	4	75.1	4	-1E+10	1	-1E+10	1	-1E+10	1	-1E+10	1	-1E+10	1	-1E+10	1
4901784	170	C	02/29/2020	10:45	-132.753	43.373	0	137.60	0	8.2750	0	35.5070	8	27.633	0	136.458	0	211.2	4	74.4	4	-1E+10	1	-1E+10	1	-1E+10	1	-1E+10	1	-1E+10	1	-1E+10	1
4901784	170	C	02/29/2020	10:45	-132.753	43.373	0	140.00	0	8.2320	0	35.5650	8	27.685	0	138.837	0	210.0	4	73.9	4	-1E+10	1	-1E+10	1	-1E+10	1	-1E+10	1	-1E+10	1	-1E+10	1
4901784	170	C	02/29/2020	10:45	-132.753	43.373	0	142.40	0	8.2120	0	35.5870	8	27.705	0	141.217	0	208.8	4	73.4	4	-1E+10	1	-1E+10	1	-1E+10	1	-1E+10	1	-1E+10	1	-1E+10	1
4901784	170	C	02/29/2020	10:45	-132.753	43.373	0	144.80	0	8.1970	0	35.6000	8	27.718	0	143.596	0	207.4	4	72.9	4	-1E+10	1	-1E+10	1	-1E+10	1	-1E+10	1	-1E+10	1	-1E+10	1
4901784	170	C	02/29/2020	10:45	-132.753	43.373	0	147.40	0	8.1520	0	35.6540	8	27.767	0	146.173	0	205.3	4	72.2	4	-1E+10	1	-1E+10	1	-1E+10	1	-1E+10	1	-1E+10	1	-1E+10	1
4901784	170	C	02/29/2020	10:45	-132.753	43.373	0	149.90	0	8.1250	0	35.6920	8	27.801	0	148.652	0	203.5	4	71.5	4	-1E+10	1	-1E+10	1	-1E+10	1	-1E+10	1	-1E+10	1	-1E+10	1
4901784	170	C	02/29/2020	10:45	-132.753	43.373	0	152.40	0	8.0910	0	35.7670	8	27.865	0	151.130	0	201.7	4	70.8	4	-1E+10	1	-1E+10	1	-1E+10	1	-1E+10	1	-1E+10	1	-1E+10	1
4901784	170	C	02/29/2020	10:45	-132.753	43.373	0	155.00	0	8.0820	0	35.7890	8	27.884	0	153.707	0	200.1	4	70.3	4	-1E+10	1	-1E+10	1	-1E+10	1	-1E+10	1	-1E+10	1	-1E+10	1
4901784	170	C	02/29/2020	10:45	-132.753	43.373	0	157.60	0	8.0730	0	35.8310	8	27.918	0	156.285	0	198.4	4	69.7	4	-1E+10	1	-1E+10	1	-1E+10	1	-1E+10	1	-1E+10	1	-1E+10	1
4901784	170	C	02/29/2020	10:45	-132.753	43.373	0	160.10	0	8.0420	0	35.8630	8	27.948	0	158.763	0	196.9	4	69.1	4	-1E+10	1	-1E+10	1	-1E+10	1	-1E+10	1	-1E+10	1	-1E+10	1
4901784	170	C	02/29/2020	10:45	-132.753	43.373	0	162.70	0	8.0410	0	35.9030	8	27.980	0	161.340	0	194.9	4	68.4	4	-1E+10	1	-1E+10	1	-1E+10	1	-1E+10	1	-1E+10	1	-1E+10	1
4901784	170	C	02/29/2020	10:45	-132.753	43.373	0	164.90	0	8.0470	0	35.9340	8	28.004	0	163.521	0	193.1	4	67.8	4	-1E+10	1	-1E+10	1	-1E+10	1	-1E+10	1	-1E+10	1	-1E+10	1
4901784	170	C	02/29/2020	10:45	-132.753	43.373	0	167.90	0	8.0500	0	35.9570	8	28.021	0	166.494	0	191.3	4	67.2	4	-1E+10	1	-1E+10	1	-1E+10	1	-1E+10	1	-1E+10	1	-1E+10	1
4901784	170	C	02/29/2020	10:45	-132.753	43.373	0	170.20	0	8.0450	0	35.9690	8	28.031	0	168.774	0	190.1	4	66.8	4	-1E+10	1	-1E+10	1	-1E+10	1	-1E+10	1	-1E+10	1	-1E+10	1
4901784	170	C	02/29/2020	10:45	-132.753	43.373	0	172.40	0	8.0350	0	36.0020	8	28.059	0	170.955	0	188.5	4	66.2	4	-1E+10	1	-1E+10	1	-1E+10	1	-1E+10	1	-1E+10	1	-1E+10	1
4901784	170	C	02/29/2020	10:45	-132.753	43.373	0	175.40	0	8.0290	0	36.0200	8	28.074	0	173.928	0	186.8	4	65.6	4	-1E+10	1	-1E+10	1	-1E+10	1	-1E+10	1	-1E+10	1	-1E+10	1
4901784	170	C	02/29/2020	10:45	-132.753	43.373	0	177.70	0	8.0020	0	36.0410	8	28.095	0	176.208	0	185.6	4	65.2	4	-1E+10	1	-1E+10	1	-1E+10	1	-1E+10	1	-1E+10	1	-1E+10	1
4901784	170	C	02/29/2020	10:45	-132.753	43.373	0	180.00	0	7.9920	0	36.0680	8	28.117	0	178.488	0	184.4	4	64.7	4	-1E+10	1	-1E+10	1	-1E+10	1	-1E+10	1	-1E+10	1	-1E+10	1
4901784	170	C	02/29/2020	10:45	-132.753	43.373	0	182.40	0	8.0040	0	36.0910	8	28.134	0	180.867	0	182.7	4	64.2	4	-1E+10	1	-1E+10	1	-1E+10	1	-1E+10	1	-1E+10	1	-1E+10	1
4901784	170	C	02/29/2020	10:45	-132.753	43.373	0	184.70	0	7.9970	0	36.0960	8	28.139	0	183.146	0	182.0	4	64.0	4	-1E+10	1	-1E+10	1	-1E+10	1	-1E+10	1	-1E+10	1	-1E+10	1
4901784	170	C	02/29/2020	10:45	-132.753	43.373	0	187.80	0	7.9730	0	36.1100	8	28.153	0	186.219	0	180.0	4	63.2	4	-1E+10	1	-1E+10	1	-1E+10	1	-1E+10	1	-1E+10	1	-1E+10	1
4901784	170	C	02/29/2020	10:45	-132.753	43.373	0	190.20	0	8.0190	0	36.1390	8	28.169	0	188.598	0	178.6	4	62.8	4	-1E+10	1	-1E+10	1	-1E+10	1	-1E+10	1	-1E+10	1	-1E+10	1
4901784	170	C	02/29/2020	10:45	-132.753	43.373	0	192.70	0	7.9870	0	36.1470	8	28.181	0	191.075	0	178.9	4	62.9	4	-1E+10	1	-1E+10	1	-1E+10	1	-1E+10	1	-1E+10	1	-1E+10	1
4901784	170	C	02/29/2020	10:45	-132.753	43.373	0	195.20	0	7.9330	0	36.1550	8	28.195	0	193.553	0	179.5	4	63.0	4	-1E+10	1	-1E+10	1	-1E+10	1	-1E+10	1	-1E+10	1	-1E+10	1
4901784	170	C	02/29/2020	10:45	-132.753	43.373	0	197.80	0	7.9130	0	36.1570	8	28.200	0	196.130	0	178.5	4	62.6	4	-1E+10	1	-1E+10	1	-1E+10	1	-1E+10	1	-1E+10	1	-1E+10	1
4901784	170	C	02/29/2020	10:45	-132.753	43.373	0	200.30	0	7.9120	0	36.1720	8	28.212	0	198.608	0	176.8	4	62.0	4	-1E+10	1	-1E+10	1	-1E+10	1	-1E+10	1	-1E+10	1	-1E+10	1
4901784	170	C	02/29/2020	10:45	-132.753	43.373	0	202.80	0	7.9110	0	36.1790	8	28.217	0	201.085	0	175.5	4	61.6	4	-1E+10	1	-1E+10	1	-1E+10	1	-1E+10	1	-1E+10	1	-1E+10	1
4901784	170	C	02/29/2020	10:45	-132.753	43.373	0	205.30	0	7.9030	0	36.1860	8	28.224	0	203.563	0	174.0	4	61.0	4	-1E+10	1	-1E+10	1	-1E+10	1	-1E+10	1	-1E+10	1	-1E+10	1
4901784	170	C	02/29/2020	10:45	-132.753	43.373	0	207.10	0	7.9000	0	36.1900	8	28.228	0	205.347	0	172.9	4	60.7	4	-1E+10	1	-1E+10	1	-1E+10	1	-1E+10	1	-1E+10	1	-1E+10	1
4901784	170	C	02/29/2020	10:45	-132.753	43.373	0	209.70	0	7.8940	0	36.1990	8	28.236	0	207.923	0	171.2	4	60.0	4	-1E+10	1	-1E+10	1	-1E+10	1	-1E+10	1	-1E+10	1	-1E+10	1
4901784	170	C	02/29/2020	10:45	-132.753	43.373	0	212.20	0	7.8710	0	36.2080	8	28.246	0	210.401	0	169.5	4	59.4	4	-1E+10	1	-1E+10	1	-1E+10	1	-1E+10	1	-1E+10	1	-1E+10	1
4901784	170	C	02/29/2020	10:45	-132.753	43.373	0	214.80	0	7.8590	0	36.2110	8	28.251	0	212.978	0	167.9	4	58.8	4	-1E+10	1	-1E+10	1	-1E+10	1	-1E+10	1	-1E+10	1	-1E+10	1
4901784	170	C	02/29/2020	10:45	-132.753	43.373	0	217.40	0	7.8370	0	36.2150	8	28.257	0	215.554	0	165.8	4	58.1	4	-1E+10	1	-1E+10	1	-1E+10	1	-1E+10	1	-1E+10	1	-1E+10	1
4901784	170	C	02/29/2020	10:45	-132.753	43.373	0	219.90	0	7.7790	0	36.2250	8	28.274	0	218.032	0	164.1	4	57.4	4	-1E+10	1	-1E+10	1	-1E+10	1	-1E+10	1	-1E+10	1	-1E+10	1
4901784	170	C	02/29/2020	10:45	-132.753	43.373	0	222.60	0	7.7160	0	36.2310	8	28.288	0	220.707	0	163.0	4	57.0	4	-1E+10	1	-1E+10	1	-1E+10	1	-1E+10	1	-1E+10	1	-1E+10	1
4901784	170	C	02/29/2020	10:45	-132.753	43.373	0	225.20	0	7.6800	0	36.2330	8	28.295	0	223.284	0	162.6	4	56.8	4	-1E+10	1	-1E+10	1	-1E+10	1	-1E+10	1	-1E+10	1	-1E+10	1
4901784	170	C	02/29/2020	10:45	-132.753	43.373	0	228.00	0	7.6710	0	36.2300	8	28.294	0	226.058	0	161.8	4	56.5	4	-1E+10	1	-1E+10	1	-1E+10	1	-1E+10	1	-1E+10	1	-1E+10	1
4901784	170	C	02/29/2020	10:45	-132.753	43.373	0	229.80	0	7.6360	0	36.2290	8	28.298	0	227.842	0	161.1	4	56.2	4	-1E+10	1	-1E+10	1	-1E+10	1	-1E+10	1	-1E+10	1	-1E+10	1
4901784	170	C	02/29/2020	10:45	-132.753	43.373	0	232.50	0	7.5420	0	36.2300	8	28.313	0	230.518	0	160.3	4	55.8	4	-1E+10	1	-1E+10	1	-1E+10	1	-1E+10	1	-1E+10	1	-1E+10	1
4901784	170	C	02/29/2020	10:45	-132.753	43.373	0	235.20	0	7.4860	0	36.2320	8	28.323	0	233.193	0	159.5	4	55.5	4	-1E+10	1	-1E+10	1	-1E+10	1	-1E+10	1	-1E+10	1	-1E+10	1
4901784	170	C	02/29/2020	10:45	-132.753	43.373	0	237.00	0	7.4570	0	36.2310	8	28.327	0	234.977	0	159.0	4	55.3	4	-1E+10	1	-1E+10	1	-1E+10	1	-1E+10	1	-1E+10	1	-1E+10	1
4901784	170	C	02/29/2020	10:45	-132.753	43.373	0	239.70	0	7.3970	0	36.2340	8	28.338	0	237.652	0	158.3	4	54.9	4	-1E+10	1	-1E+10	1	-1E+10	1	-1E+10	1	-1E+10	1	-1E+10	1
4901784	170	C	02/29/2020	10:45	-132.753	43.373	0	242.30	0	7.3750	0	36.2340	8	28.341	0	240.228	0	157.7	4	54.7	4	-1E+10	1	-1E+10	1	-1E+10	1	-1E+10	1	-1E+10	1	-1E+10	1
4901784	170	C	02/29/2020	10:45	-132.753	43.373	0	245.00	0	7.3570	0	36.2320	8	28.342	0	242.904	0	156.8	4	54.4	4	-1E+10	1	-1E+10	1	-1E+10	1	-1E+10	1	-1E+10	1	-1E+10	1
4901784	170	C	02/29/2020	10:45	-132.753	43.373	0	247.60	0	7.3360	0	36.2300	8	28.344	0	245.480	0	155.7	4	54.0	4	-1E+10	1	-1E+10	1	-1E+10	1	-1E+10	1	-1E+10	1	-1E+10	1
4901784	170	C	02/29/2020	10:45	-132.753	43.373	0	249.50	0	7.3020	0	36.2320	8	28.350	0	247.362	0	154.8	4	53.6	4	-1E+10	1	-1E+10	1	-1E+10	1	-1E+10	1	-1E+10	1	-1E+10	1
4901784	170	C	02/29/2020	10:45	-132.753	43.373	0	252.20	0	7.2070	0	36.2330	8	28.365	0	250.038	0	153.8	4	53.1	4	-1E+10	1	-1E+10	1	-1E+10	1	-1E+10	1	-1E+10	1	-1E+10	1
4901784	170	C	02/29/2020	10:45	-132.753	43.373	0	254.90	0	7.1590	0	36.2340	8	28.372	0	252.713	0	152.8	4	52.7	4	-1E+10	1	-1E+10	1	-1E+10	1	-1E+10	1	-1E+10	1	-1E+10	1
4901784	170	C	02/29/2020	10:45	-132.753	43.373	0	257.70	0	7.1440	0	36.2310	8	28.372	0	255.487	0	151.6	4	52.3	4	-1E+10	1	-1E+10	1	-1E+10	1	-1E+10	1	-1E+10	1	-1E+10	1
4901784	170	C	02/29/2020	10:45	-132.753	43.373	0	260.40	0	7.1180	0	36.2260	8	28.372	0	258.162	0	149.8	4	51.7	4	-1E+10	1	-1E+10	1	-1E+10	1	-1E+10	1	-1E+10	1	-1E+10	1
4901784	170	C	02/29/2020	10:45	-132.753	43.373	0	262.20	0	6.9980	0	36.2310	8	28.393	0	259.946	0	148.8	4	51.2	4	-1E+10	1	-1E+10	1	-1E+10	1	-1E+10	1	-1E+10	1	-1E+10	1
4901784	170	C	02/29/2020	10:45	-132.753	43.373	0	265.00	0	6.9520	0	36.2320	8	28.401	0	262.720	0	147.5	4	50.7	4	-1E+10	1	-1E+10	1	-1E+10	1	-1E+10	1	-1E+10	1	-1E+10	1
4901784	170	C	02/29/2020	10:45	-132.753	43.373	0	267.80	0	6.8900	0	36.2340	8	28.411	0	265.494	0	146.2	4	50.2	4	-1E+10	1	-1E+10	1	-1E+10	1	-1E+10	1	-1E+10	1	-1E+10	1
4901784	170	C	02/29/2020	10:45	-132.753	43.373	0	269.70	0	6.8630	0	36.2340	8	28.415	0	267.376	0	145.6	4	49.9	4	-1E+10	1	-1E+10	1	-1E+10	1	-1E+10	1	-1E+10	1	-1E+10	1
4901784	170	C	02/29/2020	10:45	-132.753	43.373	0	272.50	0	6.8320	0	36.2350	8	28.420	0	270.150	0	144.7	4	49.6	4	-1E+10	1	-1E+10	1	-1E+10	1	-1E+10	1	-1E+10	1	-1E+10	1
4901784	170	C	02/29/2020	10:45	-132.753	43.373	0	275.30	0	6.8060	0	36.2350	8	28.424	0	272.924	0	143.8	4	49.2	4	-1E+10	1	-1E+10	1	-1E+10	1	-1E+10	1	-1E+10	1	-1E+10	1
4901784	170	C	02/29/2020	10:45	-132.753	43.373	0	277.20	0	6.7950	0	36.2340	8	28.424	0	274.807	0	143.0	4	49.0	4	-1E+10	1	-1E+10	1	-1E+10	1	-1E+10	1	-1E+10	1	-1E+10	1
4901784	170	C	02/29/2020	10:45	-132.753	43.373	0	280.00	0	6.7630	0	36.2340	8	28.429	0	277.581	0	141.6	4	48.4	4	-1E+10	1	-1E+10	1	-1E+10	1	-1E+10	1	-1E+10	1	-1E+10	1
4901784	170	C	02/29/2020	10:45	-132.753	43.373	0	282.80	0	6.7340	0	36.2310	8	28.431	0	280.355	0	140.2	4	47.9	4	-1E+10	1	-1E+10	1	-1E+10	1	-1E+10	1	-1E+10	1	-1E+10	1
4901784	170	C	02/29/2020	10:45	-132.753	43.373	0	284.70	0	6.6760	0	36.2330	8	28.440	0	282.237	0	139.5	4	47.6	4	-1E+10	1	-1E+10	1	-1E+10	1	-1E+10	1	-1E+10	1	-1E+10	1
4901784	170	C	02/29/2020	10:45	-132.753	43.373	0	287.60	0	6.6550	0	36.2340	8	28.444	0	285.110	0	138.2	4	47.2	4	-1E+10	1	-1E+10	1	-1E+10	1	-1E+10	1	-1E+10	1	-1E+10	1
4901784	170	C	02/29/2020	10:45	-132.753	43.373	0	290.50	0	6.6400	0	36.2320	8	28.444	0	287.983	0	136.8	4	46.7	4	-1E+10	1	-1E+10	1	-1E+10	1	-1E+10	1	-1E+10	1	-1E+10	1
4901784	170	C	02/29/2020	10:45	-132.753	43.373	0	292.40	0	6.6160	0	36.2320	8	28.448	0	289.865	0	135.6	4	46.2	4	-1E+10	1	-1E+10	1	-1E+10	1	-1E+10	1	-1E+10	1	-1E+10	1
4901784	170	C	02/29/2020	10:45	-132.753	43.373	0	294.30	0	6.5880	0	36.2310	8	28.451	0	291.747	0	134.3	4	45.8	4	-1E+10	1	-1E+10	1	-1E+10	1	-1E+10	1	-1E+10	1	-1E+10	1
4901784	170	C	02/29/2020	10:45	-132.753	43.373	0	297.30	0	6.5190	0	36.2370	8	28.465	0	294.719	0	132.5	4	45.1	4	-1E+10	1	-1E+10	1	-1E+10	1	-1E+10	1	-1E+10	1	-1E+10	1
4901784	170	C	02/29/2020	10:45	-132.753	43.373	0	300.20	0	6.4720	0	36.2360	8	28.471	0	297.592	0	131.3	4	44.6	4	-1E+10	1	-1E+10	1	-1E+10	1	-1E+10	1	-1E+10	1	-1E+10	1
4901784	170	C	02/29/2020	10:45	-132.753	43.373	0	302.10	0	6.4420	0	36.2380	8	28.476	0	299.474	0	130.6	4	44.3	4	-1E+10	1	-1E+10	1	-1E+10	1	-1E+10	1	-1E+10	1	-1E+10	1
4901784	170	C	02/29/2020	10:45	-132.753	43.373	0	305.00	0	6.4280	0	36.2380	8	28.478	0	302.346	0	129.3	4	43.9	4	-1E+10	1	-1E+10	1	-1E+10	1	-1E+10	1	-1E+10	1	-1E+10	1
4901784	170	C	02/29/2020	10:45	-132.753	43.373	0	307.90	0	6.4160	0	36.2370	8	28.479	0	305.219	0	127.8	4	43.4	4	-1E+10	1	-1E+10	1	-1E+10	1	-1E+10	1	-1E+10	1	-1E+10	1
4901784	170	C	02/29/2020	10:45	-132.753	43.373	0	309.80	0	6.3980	0	36.2370	8	28.482	0	307.101	0	126.5	4	42.9	4	-1E+10	1	-1E+10	1	-1E+10	1	-1E+10	1	-1E+10	1	-1E+10	1
4901784	170	C	02/29/2020	10:45	-132.753	43.373	0	312.70	0	6.3570	0	36.2370	8	28.487	0	309.974	0	124.0	4	42.0	4	-1E+10	1	-1E+10	1	-1E+10	1	-1E+10	1	-1E+10	1	-1E+10	1
4901784	170	C	02/29/2020	10:45	-132.753	43.373	0	315.60	0	6.3040	0	36.2400	8	28.497	0	312.846	0	121.6	4	41.2	4	-1E+10	1	-1E+10	1	-1E+10	1	-1E+10	1	-1E+10	1	-1E+10	1
4901784	170	C	02/29/2020	10:45	-132.753	43.373	0	317.50	0	6.2560	0	36.2420	8	28.505	0	314.728	0	120.1	4	40.6	4	-1E+10	1	-1E+10	1	-1E+10	1	-1E+10	1	-1E+10	1	-1E+10	1
4901784	170	C	02/29/2020	10:45	-132.753	43.373	0	319.40	0	6.2420	0	36.2440	8	28.508	0	316.610	0	118.6	4	40.1	4	-1E+10	1	-1E+10	1	-1E+10	1	-1E+10	1	-1E+10	1	-1E+10	1
4901784	170	C	02/29/2020	10:45	-132.753	43.373	0	322.40	0	6.2100	0	36.2440	8	28.513	0	319.582	0	116.0	4	39.2	4	-1E+10	1	-1E+10	1	-1E+10	1	-1E+10	1	-1E+10	1	-1E+10	1
4901784	170	C	02/29/2020	10:45	-132.753	43.373	0	324.90	0	6.1540	0	36.2450	8	28.521	0	322.058	0	113.3	4	38.2	4	-1E+10	1	-1E+10	1	-1E+10	1	-1E+10	1	-1E+10	1	-1E+10	1
4901784	170	C	02/29/2020	10:45	-132.753	43.373	0	327.30	0	6.0810	0	36.2490	8	28.534	0	324.435	0	110.9	4	37.4	4	-1E+10	1	-1E+10	1	-1E+10	1	-1E+10	1	-1E+10	1	-1E+10	1
4901784	170	C	02/29/2020	10:45	-132.753	43.373	0	329.80	0	6.0250	0	36.2520	8	28.543	0	326.911	0	109.4	4	36.8	4	-1E+10	1	-1E+10	1	-1E+10	1	-1E+10	1	-1E+10	1	-1E+10	1
4901784	170	C	02/29/2020	10:45	-132.753	43.373	0	332.20	0	5.9820	0	36.2550	8	28.551	0	329.288	0	108.5	4	36.5	4	-1E+10	1	-1E+10	1	-1E+10	1	-1E+10	1	-1E+10	1	-1E+10	1
4901784	170	C	02/29/2020	10:45	-132.753	43.373	0	334.70	0	5.9580	0	36.2550	8	28.555	0	331.764	0	107.5	4	36.1	4	-1E+10	1	-1E+10	1	-1E+10	1	-1E+10	1	-1E+10	1	-1E+10	1
4901784	170	C	02/29/2020	10:45	-132.753	43.373	0	337.10	0	5.9470	0	36.2540	8	28.555	0	334.141	0	106.5	4	35.8	4	-1E+10	1	-1E+10	1	-1E+10	1	-1E+10	1	-1E+10	1	-1E+10	1
4901784	170	C	02/29/2020	10:45	-132.753	43.373	0	339.60	0	5.9290	0	36.2540	8	28.558	0	336.617	0	105.1	4	35.3	4	-1E+10	1	-1E+10	1	-1E+10	1	-1E+10	1	-1E+10	1	-1E+10	1
4901784	170	C	02/29/2020	10:45	-132.753	43.373	0	342.20	0	5.8700	0	36.2570	8	28.568	0	339.192	0	103.7	4	34.8	4	-1E+10	1	-1E+10	1	-1E+10	1	-1E+10	1	-1E+10	1	-1E+10	1
4901784	170	C	02/29/2020	10:45	-132.753	43.373	0	344.70	0	5.8550	0	36.2550	8	28.568	0	341.668	0	102.5	4	34.3	4	-1E+10	1	-1E+10	1	-1E+10	1	-1E+10	1	-1E+10	1	-1E+10	1
4901784	170	C	02/29/2020	10:45	-132.753	43.373	0	347.20	0	5.8280	0	36.2550	8	28.572	0	344.144	0	100.9	4	33.8	4	-1E+10	1	-1E+10	1	-1E+10	1	-1E+10	1	-1E+10	1	-1E+10	1
4901784	170	C	02/29/2020	10:45	-132.753	43.373	0	349.70	0	5.7590	0	36.2590	8	28.584	0	346.620	0	99.7	4	33.3	4	-1E+10	1	-1E+10	1	-1E+10	1	-1E+10	1	-1E+10	1	-1E+10	1
4901784	170	C	02/29/2020	10:45	-132.753	43.373	0	352.20	0	5.7400	0	36.2580	8	28.585	0	349.096	0	99.0	4	33.1	4	-1E+10	1	-1E+10	1	-1E+10	1	-1E+10	1	-1E+10	1	-1E+10	1
4901784	170	C	02/29/2020	10:45	-132.753	43.373	0	354.70	0	5.7010	0	36.2620	8	28.593	0	351.572	0	98.3	4	32.8	4	-1E+10	1	-1E+10	1	-1E+10	1	-1E+10	1	-1E+10	1	-1E+10	1
4901784	170	C	02/29/2020	10:45	-132.753	43.373	0	357.20	0	5.6870	0	36.2620	8	28.595	0	354.048	0	97.7	4	32.6	4	-1E+10	1	-1E+10	1	-1E+10	1	-1E+10	1	-1E+10	1	-1E+10	1
4901784	170	C	02/29/2020	10:45	-132.753	43.373	0	359.80	0	5.6810	0	36.2600	8	28.595	0	356.623	0	96.8	4	32.3	4	-1E+10	1	-1E+10	1	-1E+10	1	-1E+10	1	-1E+10	1	-1E+10	1
4901784	170	C	02/29/2020	10:45	-132.753	43.373	0	362.30	0	5.6530	0	36.2620	8	28.600	0	359.098	0	95.9	4	32.0	4	-1E+10	1	-1E+10	1	-1E+10	1	-1E+10	1	-1E+10	1	-1E+10	1
4901784	170	C	02/29/2020	10:45	-132.753	43.373	0	364.70	0	5.6360	0	36.2620	8	28.602	0	361.475	0	95.0	4	31.7	4	-1E+10	1	-1E+10	1	-1E+10	1	-1E+10	1	-1E+10	1	-1E+10	1
4901784	170	C	02/29/2020	10:45	-132.753	43.373	0	367.30	0	5.6200	0	36.2610	8	28.603	0	364.050	0	93.9	4	31.3	4	-1E+10	1	-1E+10	1	-1E+10	1	-1E+10	1	-1E+10	1	-1E+10	1
4901784	170	C	02/29/2020	10:45	-132.753	43.373	0	369.90	0	5.5820	0	36.2620	8	28.609	0	366.624	0	92.8	4	30.9	4	-1E+10	1	-1E+10	1	-1E+10	1	-1E+10	1	-1E+10	1	-1E+10	1
4901784	170	C	02/29/2020	10:45	-132.753	43.373	0	372.50	0	5.5490	0	36.2630	8	28.614	0	369.199	0	91.5	4	30.4	4	-1E+10	1	-1E+10	1	-1E+10	1	-1E+10	1	-1E+10	1	-1E+10	1
4901784	170	C	02/29/2020	10:45	-132.753	43.373	0	375.00	0	5.5040	0	36.2640	8	28.620	0	371.675	0	90.5	4	30.1	4	-1E+10	1	-1E+10	1	-1E+10	1	-1E+10	1	-1E+10	1	-1E+10	1
4901784	170	C	02/29/2020	10:45	-132.753	43.373	0	377.40	0	5.4550	0	36.2660	8	28.628	0	374.051	0	89.7	4	29.8	4	-1E+10	1	-1E+10	1	-1E+10	1	-1E+10	1	-1E+10	1	-1E+10	1
4901784	170	C	02/29/2020	10:45	-132.753	43.373	0	380.00	0	5.4360	0	36.2670	8	28.631	0	376.626	0	89.2	4	29.6	4	-1E+10	1	-1E+10	1	-1E+10	1	-1E+10	1	-1E+10	1	-1E+10	1
4901784	170	C	02/29/2020	10:45	-132.753	43.373	0	382.50	0	5.4260	0	36.2680	8	28.633	0	379.101	0	88.6	4	29.4	4	-1E+10	1	-1E+10	1	-1E+10	1	-1E+10	1	-1E+10	1	-1E+10	1
4901784	170	C	02/29/2020	10:45	-132.753	43.373	0	385.00	0	5.4120	0	36.2680	8	28.635	0	381.577	0	87.9	4	29.1	4	-1E+10	1	-1E+10	1	-1E+10	1	-1E+10	1	-1E+10	1	-1E+10	1
4901784	170	C	02/29/2020	10:45	-132.753	43.373	0	387.60	0	5.3850	0	36.2690	8	28.639	0	384.151	0	86.8	4	28.8	4	-1E+10	1	-1E+10	1	-1E+10	1	-1E+10	1	-1E+10	1	-1E+10	1
4901784	170	C	02/29/2020	10:45	-132.753	43.373	0	390.20	0	5.3560	0	36.2690	8	28.643	0	386.726	0	85.6	4	28.4	4	-1E+10	1	-1E+10	1	-1E+10	1	-1E+10	1	-1E+10	1	-1E+10	1
4901784	170	C	02/29/2020	10:45	-132.753	43.373	0	392.80	0	5.3140	0	36.2720	8	28.650	0	389.300	0	84.6	4	28.0	4	-1E+10	1	-1E+10	1	-1E+10	1	-1E+10	1	-1E+10	1	-1E+10	1
4901784	170	C	02/29/2020	10:45	-132.753	43.373	0	395.30	0	5.2840	0	36.2730	8	28.655	0	391.775	0	83.7	4	27.7	4	-1E+10	1	-1E+10	1	-1E+10	1	-1E+10	1	-1E+10	1	-1E+10	1
4901784	170	C	02/29/2020	10:45	-132.753	43.373	0	397.90	0	5.2330	0	36.2780	8	28.665	0	394.350	0	82.8	4	27.4	4	-1E+10	1	-1E+10	1	-1E+10	1	-1E+10	1	-1E+10	1	-1E+10	1
4901784	170	C	02/29/2020	10:45	-132.753	43.373	0	399.60	0	5.2280	0	36.2770	8	28.665	0	396.033	0	82.5	4	27.2	4	-1E+10	1	-1E+10	1	-1E+10	1	-1E+10	1	-1E+10	1	-1E+10	1
4901784	170	C	02/29/2020	10:45	-132.753	43.373	0	402.20	0	5.2200	0	36.2780	8	28.667	0	398.607	0	81.8	4	27.0	4	-1E+10	1	-1E+10	1	-1E+10	1	-1E+10	1	-1E+10	1	-1E+10	1
4901784	170	C	02/29/2020	10:45	-132.753	43.373	0	404.80	0	5.2050	0	36.2780	8	28.668	0	401.182	0	81.0	4	26.7	4	-1E+10	1	-1E+10	1	-1E+10	1	-1E+10	1	-1E+10	1	-1E+10	1
4901784	170	C	02/29/2020	10:45	-132.753	43.373	0	407.40	0	5.1840	0	36.2780	8	28.671	0	403.756	0	80.1	4	26.4	4	-1E+10	1	-1E+10	1	-1E+10	1	-1E+10	1	-1E+10	1	-1E+10	1
4901784	170	C	02/29/2020	10:45	-132.753	43.373	0	410.00	0	5.1410	0	36.2840	8	28.681	0	406.330	0	79.3	4	26.1	4	-1E+10	1	-1E+10	1	-1E+10	1	-1E+10	1	-1E+10	1	-1E+10	1
4901784	170	C	02/29/2020	10:45	-132.753	43.373	0	412.70	0	5.1200	0	36.2840	8	28.684	0	409.003	0	78.9	4	26.0	4	-1E+10	1	-1E+10	1	-1E+10	1	-1E+10	1	-1E+10	1	-1E+10	1
4901784	170	C	02/29/2020	10:45	-132.753	43.373	0	415.30	0	5.1080	0	36.2860	8	28.687	0	411.577	0	78.5	4	25.9	4	-1E+10	1	-1E+10	1	-1E+10	1	-1E+10	1	-1E+10	1	-1E+10	1
4901784	170	C	02/29/2020	10:45	-132.753	43.373	0	417.10	0	5.1010	0	36.2870	8	28.688	0	413.359	0	78.2	4	25.8	4	-1E+10	1	-1E+10	1	-1E+10	1	-1E+10	1	-1E+10	1	-1E+10	1
4901784	170	C	02/29/2020	10:45	-132.753	43.373	0	419.70	0	5.0890	0	36.2890	8	28.691	0	415.933	0	77.7	4	25.6	4	-1E+10	1	-1E+10	1	-1E+10	1	-1E+10	1	-1E+10	1	-1E+10	1
4901784	170	C	02/29/2020	10:45	-132.753	43.373	0	422.40	0	5.0820	0	36.2900	8	28.693	0	418.607	0	77.3	4	25.4	4	-1E+10	1	-1E+10	1	-1E+10	1	-1E+10	1	-1E+10	1	-1E+10	1
4901784	170	C	02/29/2020	10:45	-132.753	43.373	0	425.10	0	5.0770	0	36.2900	8	28.694	0	421.280	0	76.5	4	25.2	4	-1E+10	1	-1E+10	1	-1E+10	1	-1E+10	1	-1E+10	1	-1E+10	1
4901784	170	C	02/29/2020	10:45	-132.753	43.373	0	427.80	0	5.0740	0	36.2890	8	28.693	0	423.953	0	75.7	4	24.9	4	-1E+10	1	-1E+10	1	-1E+10	1	-1E+10	1	-1E+10	1	-1E+10	1
4901784	170	C	02/29/2020	10:45	-132.753	43.373	0	429.50	0	5.0620	0	36.2890	8	28.695	0	425.635	0	74.8	4	24.6	4	-1E+10	1	-1E+10	1	-1E+10	1	-1E+10	1	-1E+10	1	-1E+10	1
4901784	170	C	02/29/2020	10:45	-132.753	43.373	0	432.30	0	5.0170	0	36.2960	8	28.706	0	428.407	0	73.7	4	24.2	4	-1E+10	1	-1E+10	1	-1E+10	1	-1E+10	1	-1E+10	1	-1E+10	1
4901784	170	C	02/29/2020	10:45	-132.753	43.373	0	435.00	0	4.9920	0	36.2980	8	28.710	0	431.080	0	72.8	4	23.9	4	-1E+10	1	-1E+10	1	-1E+10	1	-1E+10	1	-1E+10	1	-1E+10	1
4901784	170	C	02/29/2020	10:45	-132.753	43.373	0	437.70	0	4.9710	0	36.3000	8	28.714	0	433.753	0	71.8	4	23.6	4	-1E+10	1	-1E+10	1	-1E+10	1	-1E+10	1	-1E+10	1	-1E+10	1
4901784	170	C	02/29/2020	10:45	-132.753	43.373	0	440.30	0	4.9480	0	36.3040	8	28.720	0	436.327	0	70.8	4	23.2	4	-1E+10	1	-1E+10	1	-1E+10	1	-1E+10	1	-1E+10	1	-1E+10	1
4901784	170	C	02/29/2020	10:45	-132.753	43.373	0	442.10	0	4.9360	0	36.3070	8	28.724	0	438.109	0	70.2	4	23.0	4	-1E+10	1	-1E+10	1	-1E+10	1	-1E+10	1	-1E+10	1	-1E+10	1
4901784	170	C	02/29/2020	10:45	-132.753	43.373	0	444.80	0	4.9280	0	36.3080	8	28.726	0	440.782	0	69.1	4	22.7	4	-1E+10	1	-1E+10	1	-1E+10	1	-1E+10	1	-1E+10	1	-1E+10	1
4901784	170	C	02/29/2020	10:45	-132.753	43.373	0	447.40	0	4.9140	0	36.3100	8	28.729	0	443.355	0	67.6	4	22.2	4	-1E+10	1	-1E+10	1	-1E+10	1	-1E+10	1	-1E+10	1	-1E+10	1
4901784	170	C	02/29/2020	10:45	-132.753	43.373	0	450.10	0	4.8810	0	36.3210	8	28.742	0	446.028	0	66.1	4	21.7	4	-1E+10	1	-1E+10	1	-1E+10	1	-1E+10	1	-1E+10	1	-1E+10	1
4901784	170	C	02/29/2020	10:45	-132.753	43.373	0	452.70	0	4.8740	0	36.3260	8	28.747	0	448.602	0	65.5	4	21.5	4	-1E+10	1	-1E+10	1	-1E+10	1	-1E+10	1	-1E+10	1	-1E+10	1
4901784	170	C	02/29/2020	10:45	-132.753	43.373	0	454.50	0	4.8720	0	36.3260	8	28.747	0	450.383	0	65.0	4	21.3	4	-1E+10	1	-1E+10	1	-1E+10	1	-1E+10	1	-1E+10	1	-1E+10	1
4901784	170	C	02/29/2020	10:45	-132.753	43.373	0	457.30	0	4.8700	0	36.3270	8	28.748	0	453.155	0	64.0	4	21.0	4	-1E+10	1	-1E+10	1	-1E+10	1	-1E+10	1	-1E+10	1	-1E+10	1
4901784	170	C	02/29/2020	10:45	-132.753	43.373	0	460.10	0	4.8710	0	36.3300	8	28.750	0	455.927	0	62.5	4	20.5	4	-1E+10	1	-1E+10	1	-1E+10	1	-1E+10	1	-1E+10	1	-1E+10	1
4901784	170	C	02/29/2020	10:45	-132.753	43.373	0	462.00	0	4.8770	0	36.3340	8	28.753	0	457.807	0	61.3	4	20.1	4	-1E+10	1	-1E+10	1	-1E+10	1	-1E+10	1	-1E+10	1	-1E+10	1
4901784	170	C	02/29/2020	10:45	-132.753	43.373	0	464.80	0	4.8840	0	36.3420	8	28.758	0	460.579	0	59.9	4	19.6	4	-1E+10	1	-1E+10	1	-1E+10	1	-1E+10	1	-1E+10	1	-1E+10	1
4901784	170	C	02/29/2020	10:45	-132.753	43.373	0	467.70	0	4.9000	0	36.3460	8	28.760	0	463.449	0	58.8	4	19.3	4	-1E+10	1	-1E+10	1	-1E+10	1	-1E+10	1	-1E+10	1	-1E+10	1
4901784	170	C	02/29/2020	10:45	-132.753	43.373	0	469.60	0	4.9000	0	36.3470	8	28.761	0	465.330	0	58.3	4	19.1	4	-1E+10	1	-1E+10	1	-1E+10	1	-1E+10	1	-1E+10	1	-1E+10	1
4901784	170	C	02/29/2020	10:45	-132.753	43.373	0	472.30	0	4.9020	0	36.3490	8	28.762	0	468.002	0	57.2	4	18.7	4	-1E+10	1	-1E+10	1	-1E+10	1	-1E+10	1	-1E+10	1	-1E+10	1
4901784	170	C	02/29/2020	10:45	-132.753	43.373	0	475.10	0	4.8980	0	36.3510	8	28.764	0	470.774	0	56.2	4	18.4	4	-1E+10	1	-1E+10	1	-1E+10	1	-1E+10	1	-1E+10	1	-1E+10	1
4901784	170	C	02/29/2020	10:45	-132.753	43.373	0	477.00	0	4.8840	0	36.3560	8	28.770	0	472.654	0	55.4	4	18.2	4	-1E+10	1	-1E+10	1	-1E+10	1	-1E+10	1	-1E+10	1	-1E+10	1
4901784	170	C	02/29/2020	10:45	-132.753	43.373	0	479.70	0	4.8720	0	36.3590	8	28.773	0	475.326	0	54.7	4	17.9	4	-1E+10	1	-1E+10	1	-1E+10	1	-1E+10	1	-1E+10	1	-1E+10	1
4901784	170	C	02/29/2020	10:45	-132.753	43.373	0	482.60	0	4.8620	0	36.3610	8	28.776	0	478.197	0	53.8	4	17.6	4	-1E+10	1	-1E+10	1	-1E+10	1	-1E+10	1	-1E+10	1	-1E+10	1
4901784	170	C	02/29/2020	10:45	-132.753	43.373	0	484.50	0	4.8660	0	36.3660	8	28.780	0	480.077	0	53.0	4	17.4	4	-1E+10	1	-1E+10	1	-1E+10	1	-1E+10	1	-1E+10	1	-1E+10	1
4901784	170	C	02/29/2020	10:45	-132.753	43.373	0	487.30	0	4.8630	0	36.3680	8	28.782	0	482.848	0	52.2	4	17.1	4	-1E+10	1	-1E+10	1	-1E+10	1	-1E+10	1	-1E+10	1	-1E+10	1
4901784	170	C	02/29/2020	10:45	-132.753	43.373	0	490.10	0	4.8360	0	36.3700	8	28.787	0	485.619	0	51.5	4	16.9	4	-1E+10	1	-1E+10	1	-1E+10	1	-1E+10	1	-1E+10	1	-1E+10	1
4901784	170	C	02/29/2020	10:45	-132.753	43.373	0	492.00	0	4.8300	0	36.3710	8	28.788	0	487.500	0	50.8	4	16.6	4	-1E+10	1	-1E+10	1	-1E+10	1	-1E+10	1	-1E+10	1	-1E+10	1
4901784	170	C	02/29/2020	10:45	-132.753	43.373	0	494.80	0	4.8200	0	36.3770	8	28.794	0	490.271	0	50.1	4	16.4	4	-1E+10	1	-1E+10	1	-1E+10	1	-1E+10	1	-1E+10	1	-1E+10	1
4901784	170	C	02/29/2020	10:45	-132.753	43.373	0	497.60	0	4.7800	0	36.3810	8	28.802	0	493.042	0	49.9	4	16.3	4	-1E+10	1	-1E+10	1	-1E+10	1	-1E+10	1	-1E+10	1	-1E+10	1
4901784	170	C	02/29/2020	10:45	-132.753	43.373	0	499.50	0	4.7760	0	36.3800	8	28.802	0	494.922	0	49.7	4	16.3	4	-1E+10	1	-1E+10	1	-1E+10	1	-1E+10	1	-1E+10	1	-1E+10	1
4901784	170	C	02/29/2020	10:45	-132.753	43.373	0	505.20	0	4.7400	0	36.3840	8	28.809	0	500.563	0	48.9	4	16.0	4	-1E+10	1	-1E+10	1	-1E+10	1	-1E+10	1	-1E+10	1	-1E+10	1
4901784	170	C	02/29/2020	10:45	-132.753	43.373	0	510.60	0	4.7340	0	36.3870	8	28.812	0	505.907	0	47.7	4	15.6	4	-1E+10	1	-1E+10	1	-1E+10	1	-1E+10	1	-1E+10	1	-1E+10	1
4901784	170	C	02/29/2020	10:45	-132.753	43.373	0	515.40	0	4.7220	0	36.3920	8	28.818	0	510.657	0	45.8	4	15.0	4	-1E+10	1	-1E+10	1	-1E+10	1	-1E+10	1	-1E+10	1	-1E+10	1
4901784	170	C	02/29/2020	10:45	-132.753	43.373	0	520.30	0	4.7180	0	36.4000	8	28.824	0	515.506	0	43.4	4	14.2	4	-1E+10	1	-1E+10	1	-1E+10	1	-1E+10	1	-1E+10	1	-1E+10	1
4901784	170	C	02/29/2020	10:45	-132.753	43.373	0	525.30	0	4.7020	0	36.4120	8	28.836	0	520.454	0	40.8	4	13.3	4	-1E+10	1	-1E+10	1	-1E+10	1	-1E+10	1	-1E+10	1	-1E+10	1
4901784	170	C	02/29/2020	10:45	-132.753	43.373	0	530.40	0	4.6920	0	36.4260	8	28.848	0	525.500	0	38.9	4	12.7	4	-1E+10	1	-1E+10	1	-1E+10	1	-1E+10	1	-1E+10	1	-1E+10	1
4901784	170	C	02/29/2020	10:45	-132.753	43.373	0	535.60	0	4.6830	0	36.4300	8	28.852	0	530.645	0	38.0	4	12.4	4	-1E+10	1	-1E+10	1	-1E+10	1	-1E+10	1	-1E+10	1	-1E+10	1
4901784	170	C	02/29/2020	10:45	-132.753	43.373	0	539.90	0	4.6740	0	36.4340	8	28.857	0	534.900	0	36.8	4	12.0	4	-1E+10	1	-1E+10	1	-1E+10	1	-1E+10	1	-1E+10	1	-1E+10	1
4901784	170	C	02/29/2020	10:45	-132.753	43.373	0	544.30	0	4.6610	0	36.4390	8	28.862	0	539.254	0	35.8	4	11.7	4	-1E+10	1	-1E+10	1	-1E+10	1	-1E+10	1	-1E+10	1	-1E+10	1
4901784	170	C	02/29/2020	10:45	-132.753	43.373	0	549.50	0	4.6340	0	36.4460	8	28.871	0	544.399	0	34.7	4	11.3	4	-1E+10	1	-1E+10	1	-1E+10	1	-1E+10	1	-1E+10	1	-1E+10	1
4901784	170	C	02/29/2020	10:45	-132.753	43.373	0	554.80	0	4.6270	0	36.4520	8	28.877	0	549.642	0	33.7	4	11.0	4	-1E+10	1	-1E+10	1	-1E+10	1	-1E+10	1	-1E+10	1	-1E+10	1
4901784	170	C	02/29/2020	10:45	-132.753	43.373	0	560.10	0	4.6230	0	36.4540	8	28.879	0	554.886	0	33.3	4	10.8	4	-1E+10	1	-1E+10	1	-1E+10	1	-1E+10	1	-1E+10	1	-1E+10	1
4901784	170	C	02/29/2020	10:45	-132.753	43.373	0	565.50	0	4.5900	0	36.4560	8	28.884	0	560.229	0	32.3	4	10.5	4	-1E+10	1	-1E+10	1	-1E+10	1	-1E+10	1	-1E+10	1	-1E+10	1
4901784	170	C	02/29/2020	10:45	-132.753	43.373	0	570.00	0	4.5530	0	36.4610	8	28.892	0	564.680	0	31.4	4	10.2	4	-1E+10	1	-1E+10	1	-1E+10	1	-1E+10	1	-1E+10	1	-1E+10	1
4901784	170	C	02/29/2020	10:45	-132.753	43.373	0	574.40	0	4.5300	0	36.4670	8	28.900	0	569.033	0	30.6	4	10.0	4	-1E+10	1	-1E+10	1	-1E+10	1	-1E+10	1	-1E+10	1	-1E+10	1
4901784	170	C	02/29/2020	10:45	-132.753	43.373	0	579.90	0	4.5120	0	36.4700	8	28.904	0	574.474	0	29.8	4	9.7	4	-1E+10	1	-1E+10	1	-1E+10	1	-1E+10	1	-1E+10	1	-1E+10	1
4901784	170	C	02/29/2020	10:45	-132.753	43.373	0	585.40	0	4.4830	0	36.4760	8	28.912	0	579.915	0	29.2	4	9.5	4	-1E+10	1	-1E+10	1	-1E+10	1	-1E+10	1	-1E+10	1	-1E+10	1
4901784	170	C	02/29/2020	10:45	-132.753	43.373	0	590.00	0	4.4730	0	36.4790	8	28.916	0	584.466	0	28.7	4	9.3	4	-1E+10	1	-1E+10	1	-1E+10	1	-1E+10	1	-1E+10	1	-1E+10	1
4901784	170	C	02/29/2020	10:45	-132.753	43.373	0	594.70	0	4.4660	0	36.4820	8	28.919	0	589.115	0	28.1	4	9.1	4	-1E+10	1	-1E+10	1	-1E+10	1	-1E+10	1	-1E+10	1	-1E+10	1
4901784	170	C	02/29/2020	10:45	-132.753	43.373	0	600.20	0	4.4540	0	36.4870	8	28.925	0	594.556	0	27.3	4	8.9	4	-1E+10	1	-1E+10	1	-1E+10	1	-1E+10	1	-1E+10	1	-1E+10	1
4901784	170	C	02/29/2020	10:45	-132.753	43.373	0	604.80	0	4.4410	0	36.4910	8	28.929	0	599.106	0	26.8	4	8.7	4	-1E+10	1	-1E+10	1	-1E+10	1	-1E+10	1	-1E+10	1	-1E+10	1
4901784	170	C	02/29/2020	10:45	-132.753	43.373	0	609.50	0	4.4370	0	36.4940	8	28.932	0	603.755	0	26.2	4	8.5	4	-1E+10	1	-1E+10	1	-1E+10	1	-1E+10	1	-1E+10	1	-1E+10	1
4901784	170	C	02/29/2020	10:45	-132.753	43.373	0	615.20	0	4.4300	0	36.4990	8	28.937	0	609.392	0	25.6	4	8.3	4	-1E+10	1	-1E+10	1	-1E+10	1	-1E+10	1	-1E+10	1	-1E+10	1
4901784	170	C	02/29/2020	10:45	-132.753	43.373	0	619.80	0	4.4260	0	36.5030	8	28.941	0	613.942	0	25.1	4	8.1	4	-1E+10	1	-1E+10	1	-1E+10	1	-1E+10	1	-1E+10	1	-1E+10	1
4901784	170	C	02/29/2020	10:45	-132.753	43.373	0	624.50	0	4.4170	0	36.5050	8	28.943	0	618.591	0	24.6	4	8.0	4	-1E+10	1	-1E+10	1	-1E+10	1	-1E+10	1	-1E+10	1	-1E+10	1
4901784	170	C	02/29/2020	10:45	-132.753	43.373	0	630.30	0	4.3980	0	36.5090	8	28.949	0	624.327	0	23.8	4	7.7	4	-1E+10	1	-1E+10	1	-1E+10	1	-1E+10	1	-1E+10	1	-1E+10	1
4901784	170	C	02/29/2020	10:45	-132.753	43.373	0	635.10	0	4.3860	0	36.5140	8	28.954	0	629.075	0	22.9	4	7.4	4	-1E+10	1	-1E+10	1	-1E+10	1	-1E+10	1	-1E+10	1	-1E+10	1
4901784	170	C	02/29/2020	10:45	-132.753	43.373	0	640.00	0	4.3650	0	36.5220	8	28.963	0	633.921	0	22.1	4	7.2	4	-1E+10	1	-1E+10	1	-1E+10	1	-1E+10	1	-1E+10	1	-1E+10	1
4901784	170	C	02/29/2020	10:45	-132.753	43.373	0	644.90	0	4.3560	0	36.5280	8	28.969	0	638.767	0	21.3	4	6.9	4	-1E+10	1	-1E+10	1	-1E+10	1	-1E+10	1	-1E+10	1	-1E+10	1
4901784	170	C	02/29/2020	10:45	-132.753	43.373	0	649.80	0	4.3530	0	36.5350	8	28.975	0	643.612	0	20.7	4	6.7	4	-1E+10	1	-1E+10	1	-1E+10	1	-1E+10	1	-1E+10	1	-1E+10	1
4901784	170	C	02/29/2020	10:45	-132.753	43.373	0	654.80	0	4.3530	0	36.5390	8	28.978	0	648.557	0	19.9	4	6.4	4	-1E+10	1	-1E+10	1	-1E+10	1	-1E+10	1	-1E+10	1	-1E+10	1
4901784	170	C	02/29/2020	10:45	-132.753	43.373	0	659.60	0	4.3440	0	36.5490	8	28.987	0	653.304	0	19.1	4	6.2	4	-1E+10	1	-1E+10	1	-1E+10	1	-1E+10	1	-1E+10	1	-1E+10	1
4901784	170	C	02/29/2020	10:45	-132.753	43.373	0	665.50	0	4.3360	0	36.5580	8	28.995	0	659.138	0	18.4	4	6.0	4	-1E+10	1	-1E+10	1	-1E+10	1	-1E+10	1	-1E+10	1	-1E+10	1
4901784	170	C	02/29/2020	10:45	-132.753	43.373	0	670.40	0	4.3260	0	36.5630	8	29.000	0	663.983	0	18.0	4	5.8	4	-1E+10	1	-1E+10	1	-1E+10	1	-1E+10	1	-1E+10	1	-1E+10	1
4901784	170	C	02/29/2020	10:45	-132.753	43.373	0	675.30	0	4.3130	0	36.5660	8	29.004	0	668.829	0	17.5	4	5.7	4	-1E+10	1	-1E+10	1	-1E+10	1	-1E+10	1	-1E+10	1	-1E+10	1
4901784	170	C	02/29/2020	10:45	-132.753	43.373	0	680.20	0	4.2910	0	36.5730	8	29.012	0	673.674	0	17.0	4	5.5	4	-1E+10	1	-1E+10	1	-1E+10	1	-1E+10	1	-1E+10	1	-1E+10	1
4901784	170	C	02/29/2020	10:45	-132.753	43.373	0	685.00	0	4.2860	0	36.5800	8	29.018	0	678.420	0	16.6	4	5.4	4	-1E+10	1	-1E+10	1	-1E+10	1	-1E+10	1	-1E+10	1	-1E+10	1
4901784	170	C	02/29/2020	10:45	-132.753	43.373	0	689.90	0	4.2750	0	36.5840	8	29.023	0	683.265	0	16.3	4	5.3	4	-1E+10	1	-1E+10	1	-1E+10	1	-1E+10	1	-1E+10	1	-1E+10	1
4901784	170	C	02/29/2020	10:45	-132.753	43.373	0	694.70	0	4.2620	0	36.5870	8	29.027	0	688.011	0	16.0	4	5.2	4	-1E+10	1	-1E+10	1	-1E+10	1	-1E+10	1	-1E+10	1	-1E+10	1
4901784	170	C	02/29/2020	10:45	-132.753	43.373	0	700.40	0	4.2420	0	36.5920	8	29.033	0	693.646	0	15.6	4	5.1	4	-1E+10	1	-1E+10	1	-1E+10	1	-1E+10	1	-1E+10	1	-1E+10	1
4901784	170	C	02/29/2020	10:45	-132.753	43.373	0	705.30	0	4.2280	0	36.5960	8	29.038	0	698.491	0	15.4	4	5.0	4	-1E+10	1	-1E+10	1	-1E+10	1	-1E+10	1	-1E+10	1	-1E+10	1
4901784	170	C	02/29/2020	10:45	-132.753	43.373	0	710.10	0	4.2140	0	36.5990	8	29.042	0	703.237	0	15.1	4	4.9	4	-1E+10	1	-1E+10	1	-1E+10	1	-1E+10	1	-1E+10	1	-1E+10	1
4901784	170	C	02/29/2020	10:45	-132.753	43.373	0	715.00	0	4.1980	0	36.6040	8	29.047	0	708.081	0	14.9	4	4.8	4	-1E+10	1	-1E+10	1	-1E+10	1	-1E+10	1	-1E+10	1	-1E+10	1
4901784	170	C	02/29/2020	10:45	-132.753	43.373	0	719.90	0	4.1890	0	36.6070	8	29.051	0	712.925	0	14.7	4	4.8	4	-1E+10	1	-1E+10	1	-1E+10	1	-1E+10	1	-1E+10	1	-1E+10	1
4901784	170	C	02/29/2020	10:45	-132.753	43.373	0	724.80	0	4.1860	0	36.6090	8	29.053	0	717.769	0	14.5	4	4.7	4	-1E+10	1	-1E+10	1	-1E+10	1	-1E+10	1	-1E+10	1	-1E+10	1
4901784	170	C	02/29/2020	10:45	-132.753	43.373	0	729.70	0	4.1760	0	36.6110	8	29.056	0	722.613	0	14.3	4	4.6	4	-1E+10	1	-1E+10	1	-1E+10	1	-1E+10	1	-1E+10	1	-1E+10	1
4901784	170	C	02/29/2020	10:45	-132.753	43.373	0	735.50	0	4.1300	0	36.6190	8	29.067	0	728.347	0	13.9	4	4.5	4	-1E+10	1	-1E+10	1	-1E+10	1	-1E+10	1	-1E+10	1	-1E+10	1
4901784	170	C	02/29/2020	10:45	-132.753	43.373	0	740.40	0	4.1190	0	36.6250	8	29.073	0	733.190	0	13.7	4	4.4	4	-1E+10	1	-1E+10	1	-1E+10	1	-1E+10	1	-1E+10	1	-1E+10	1
4901784	170	C	02/29/2020	10:45	-132.753	43.373	0	745.30	0	4.1050	0	36.6270	8	29.076	0	738.034	0	13.6	4	4.4	4	-1E+10	1	-1E+10	1	-1E+10	1	-1E+10	1	-1E+10	1	-1E+10	1
4901784	170	C	02/29/2020	10:45	-132.753	43.373	0	750.30	0	4.0880	0	36.6300	8	29.081	0	742.976	0	13.4	4	4.3	4	-1E+10	1	-1E+10	1	-1E+10	1	-1E+10	1	-1E+10	1	-1E+10	1
4901784	170	C	02/29/2020	10:45	-132.753	43.373	0	755.00	0	4.0680	0	36.6330	8	29.085	0	747.622	0	13.3	4	4.3	4	-1E+10	1	-1E+10	1	-1E+10	1	-1E+10	1	-1E+10	1	-1E+10	1
4901784	170	C	02/29/2020	10:45	-132.753	43.373	0	759.90	0	4.0440	0	36.6360	8	29.090	0	752.465	0	13.0	4	4.2	4	-1E+10	1	-1E+10	1	-1E+10	1	-1E+10	1	-1E+10	1	-1E+10	1
4901784	170	C	02/29/2020	10:45	-132.753	43.373	0	764.90	0	4.0090	0	36.6430	8	29.100	0	757.407	0	12.8	4	4.1	4	-1E+10	1	-1E+10	1	-1E+10	1	-1E+10	1	-1E+10	1	-1E+10	1
4901784	170	C	02/29/2020	10:45	-132.753	43.373	0	769.90	0	3.9820	0	36.6440	8	29.103	0	762.349	0	12.7	4	4.1	4	-1E+10	1	-1E+10	1	-1E+10	1	-1E+10	1	-1E+10	1	-1E+10	1
4901784	170	C	02/29/2020	10:45	-132.753	43.373	0	775.10	0	3.9530	0	36.6490	8	29.111	0	767.489	0	12.4	4	4.0	4	-1E+10	1	-1E+10	1	-1E+10	1	-1E+10	1	-1E+10	1	-1E+10	1
4901784	170	C	02/29/2020	10:45	-132.753	43.373	0	780.30	0	3.9370	0	36.6590	8	29.120	0	772.628	0	12.1	4	3.9	4	-1E+10	1	-1E+10	1	-1E+10	1	-1E+10	1	-1E+10	1	-1E+10	1
4901784	170	C	02/29/2020	10:45	-132.753	43.373	0	785.50	0	3.9430	0	36.6670	8	29.126	0	777.767	0	11.9	4	3.8	4	-1E+10	1	-1E+10	1	-1E+10	1	-1E+10	1	-1E+10	1	-1E+10	1
4901784	170	C	02/29/2020	10:45	-132.753	43.373	0	790.70	0	3.9220	0	36.6700	8	29.131	0	782.906	0	11.8	4	3.8	4	-1E+10	1	-1E+10	1	-1E+10	1	-1E+10	1	-1E+10	1	-1E+10	1
4901784	170	C	02/29/2020	10:45	-132.753	43.373	0	795.10	0	3.9150	0	36.6720	8	29.133	0	787.255	0	11.8	4	3.8	4	-1E+10	1	-1E+10	1	-1E+10	1	-1E+10	1	-1E+10	1	-1E+10	1
4901784	170	C	02/29/2020	10:45	-132.753	43.373	0	799.50	0	3.9060	0	36.6740	8	29.136	0	791.603	0	11.7	4	3.8	4	-1E+10	1	-1E+10	1	-1E+10	1	-1E+10	1	-1E+10	1	-1E+10	1
4901784	170	C	02/29/2020	10:45	-132.753	43.373	0	804.80	0	3.8930	0	36.6760	8	29.139	0	796.840	0	11.6	4	3.7	4	-1E+10	1	-1E+10	1	-1E+10	1	-1E+10	1	-1E+10	1	-1E+10	1
4901784	170	C	02/29/2020	10:45	-132.753	43.373	0	810.00	0	3.8780	0	36.6800	8	29.144	0	801.979	0	11.5	4	3.7	4	-1E+10	1	-1E+10	1	-1E+10	1	-1E+10	1	-1E+10	1	-1E+10	1
4901784	170	C	02/29/2020	10:45	-132.753	43.373	0	815.30	0	3.8670	0	36.6840	8	29.148	0	807.216	0	11.4	4	3.7	4	-1E+10	1	-1E+10	1	-1E+10	1	-1E+10	1	-1E+10	1	-1E+10	1
4901784	170	C	02/29/2020	10:45	-132.753	43.373	0	820.60	0	3.8550	0	36.6860	8	29.151	0	812.453	0	11.3	4	3.6	4	-1E+10	1	-1E+10	1	-1E+10	1	-1E+10	1	-1E+10	1	-1E+10	1
4901784	170	C	02/29/2020	10:45	-132.753	43.373	0	825.20	0	3.8400	0	36.6910	8	29.156	0	816.999	0	11.2	4	3.6	4	-1E+10	1	-1E+10	1	-1E+10	1	-1E+10	1	-1E+10	1	-1E+10	1
4901784	170	C	02/29/2020	10:45	-132.753	43.373	0	829.70	0	3.8360	0	36.6960	8	29.161	0	821.445	0	11.0	4	3.5	4	-1E+10	1	-1E+10	1	-1E+10	1	-1E+10	1	-1E+10	1	-1E+10	1
4901784	170	C	02/29/2020	10:45	-132.753	43.373	0	835.20	0	3.8250	0	36.7020	8	29.167	0	826.880	0	10.9	4	3.5	4	-1E+10	1	-1E+10	1	-1E+10	1	-1E+10	1	-1E+10	1	-1E+10	1
4901784	170	C	02/29/2020	10:45	-132.753	43.373	0	839.80	0	3.8070	0	36.7070	8	29.173	0	831.425	0	10.9	4	3.5	4	-1E+10	1	-1E+10	1	-1E+10	1	-1E+10	1	-1E+10	1	-1E+10	1
4901784	170	C	02/29/2020	10:45	-132.753	43.373	0	844.70	0	3.8070	0	36.7070	8	29.173	0	836.266	0	10.9	4	3.5	4	-1E+10	1	-1E+10	1	-1E+10	1	-1E+10	1	-1E+10	1	-1E+10	1
4901784	170	C	02/29/2020	10:45	-132.753	43.373	0	850.00	0	3.8020	0	36.7080	8	29.174	0	841.502	0	10.8	4	3.5	4	-1E+10	1	-1E+10	1	-1E+10	1	-1E+10	1	-1E+10	1	-1E+10	1
4901784	170	C	02/29/2020	10:45	-132.753	43.373	0	854.90	0	3.7890	0	36.7130	8	29.180	0	846.344	0	10.8	4	3.4	4	-1E+10	1	-1E+10	1	-1E+10	1	-1E+10	1	-1E+10	1	-1E+10	1
4901784	170	C	02/29/2020	10:45	-132.753	43.373	0	859.70	0	3.7860	0	36.7150	8	29.182	0	851.086	0	10.7	4	3.4	4	-1E+10	1	-1E+10	1	-1E+10	1	-1E+10	1	-1E+10	1	-1E+10	1
4901784	170	C	02/29/2020	10:45	-132.753	43.373	0	864.60	0	3.7770	0	36.7180	8	29.185	0	855.927	0	10.6	4	3.4	4	-1E+10	1	-1E+10	1	-1E+10	1	-1E+10	1	-1E+10	1	-1E+10	1
4901784	170	C	02/29/2020	10:45	-132.753	43.373	0	869.60	0	3.7580	0	36.7240	8	29.192	0	860.866	0	10.6	4	3.4	4	-1E+10	1	-1E+10	1	-1E+10	1	-1E+10	1	-1E+10	1	-1E+10	1
4901784	170	C	02/29/2020	10:45	-132.753	43.373	0	874.50	0	3.7470	0	36.7250	8	29.194	0	865.707	0	10.5	4	3.4	4	-1E+10	1	-1E+10	1	-1E+10	1	-1E+10	1	-1E+10	1	-1E+10	1
4901784	170	C	02/29/2020	10:45	-132.753	43.373	0	879.60	0	3.7310	0	36.7290	8	29.199	0	870.745	0	10.5	4	3.4	4	-1E+10	1	-1E+10	1	-1E+10	1	-1E+10	1	-1E+10	1	-1E+10	1
4901784	170	C	02/29/2020	10:45	-132.753	43.373	0	884.60	0	3.7180	0	36.7340	8	29.204	0	875.684	0	10.4	4	3.3	4	-1E+10	1	-1E+10	1	-1E+10	1	-1E+10	1	-1E+10	1	-1E+10	1
4901784	170	C	02/29/2020	10:45	-132.753	43.373	0	889.70	0	3.7000	0	36.7420	8	29.212	0	880.722	0	10.3	4	3.3	4	-1E+10	1	-1E+10	1	-1E+10	1	-1E+10	1	-1E+10	1	-1E+10	1
4901784	170	C	02/29/2020	10:45	-132.753	43.373	0	894.80	0	3.6840	0	36.7450	8	29.217	0	885.760	0	10.3	4	3.3	4	-1E+10	1	-1E+10	1	-1E+10	1	-1E+10	1	-1E+10	1	-1E+10	1
4901784	170	C	02/29/2020	10:45	-132.753	43.373	0	900.00	0	3.6740	0	36.7490	8	29.221	0	890.896	0	10.3	4	3.3	4	-1E+10	1	-1E+10	1	-1E+10	1	-1E+10	1	-1E+10	1	-1E+10	1
4901784	170	C	02/29/2020	10:45	-132.753	43.373	0	905.30	0	3.6640	0	36.7530	8	29.225	0	896.131	0	10.3	4	3.3	4	-1E+10	1	-1E+10	1	-1E+10	1	-1E+10	1	-1E+10	1	-1E+10	1
4901784	170	C	02/29/2020	10:45	-132.753	43.373	0	910.50	0	3.6600	0	36.7550	8	29.227	0	901.267	0	10.3	4	3.3	4	-1E+10	1	-1E+10	1	-1E+10	1	-1E+10	1	-1E+10	1	-1E+10	1
4901784	170	C	02/29/2020	10:45	-132.753	43.373	0	914.90	0	3.6570	0	36.7560	8	29.228	0	905.613	0	10.2	4	3.3	4	-1E+10	1	-1E+10	1	-1E+10	1	-1E+10	1	-1E+10	1	-1E+10	1
4901784	170	C	02/29/2020	10:45	-132.753	43.373	0	919.30	0	3.6460	0	36.7590	8	29.232	0	909.959	0	10.2	4	3.3	4	-1E+10	1	-1E+10	1	-1E+10	1	-1E+10	1	-1E+10	1	-1E+10	1
4901784	170	C	02/29/2020	10:45	-132.753	43.373	0	924.60	0	3.6280	0	36.7630	8	29.237	0	915.194	0	10.2	4	3.3	4	-1E+10	1	-1E+10	1	-1E+10	1	-1E+10	1	-1E+10	1	-1E+10	1
4901784	170	C	02/29/2020	10:45	-132.753	43.373	0	930.00	0	3.6110	0	36.7670	8	29.242	0	920.527	0	10.2	4	3.3	4	-1E+10	1	-1E+10	1	-1E+10	1	-1E+10	1	-1E+10	1	-1E+10	1
4901784	170	C	02/29/2020	10:45	-132.753	43.373	0	935.60	0	3.6050	0	36.7690	8	29.244	0	926.057	0	10.2	4	3.3	4	-1E+10	1	-1E+10	1	-1E+10	1	-1E+10	1	-1E+10	1	-1E+10	1
4901784	170	C	02/29/2020	10:45	-132.753	43.373	0	940.20	0	3.5980	0	36.7710	8	29.247	0	930.600	0	10.2	4	3.3	4	-1E+10	1	-1E+10	1	-1E+10	1	-1E+10	1	-1E+10	1	-1E+10	1
4901784	170	C	02/29/2020	10:45	-132.753	43.373	0	944.70	0	3.5810	0	36.7760	8	29.252	0	935.044	0	10.2	4	3.3	4	-1E+10	1	-1E+10	1	-1E+10	1	-1E+10	1	-1E+10	1	-1E+10	1
4901784	170	C	02/29/2020	10:45	-132.753	43.373	0	950.30	0	3.5690	0	36.7800	8	29.257	0	940.574	0	10.2	4	3.3	4	-1E+10	1	-1E+10	1	-1E+10	1	-1E+10	1	-1E+10	1	-1E+10	1
4901784	170	C	02/29/2020	10:45	-132.753	43.373	0	955.00	0	3.5570	0	36.7830	8	29.261	0	945.216	0	10.2	4	3.3	4	-1E+10	1	-1E+10	1	-1E+10	1	-1E+10	1	-1E+10	1	-1E+10	1
4901784	170	C	02/29/2020	10:45	-132.753	43.373	0	959.80	0	3.5510	0	36.7850	8	29.263	0	949.956	0	10.3	4	3.3	4	-1E+10	1	-1E+10	1	-1E+10	1	-1E+10	1	-1E+10	1	-1E+10	1
4901784	170	C	02/29/2020	10:45	-132.753	43.373	0	965.60	0	3.5350	0	36.7880	8	29.267	0	955.683	0	10.3	4	3.3	4	-1E+10	1	-1E+10	1	-1E+10	1	-1E+10	1	-1E+10	1	-1E+10	1
4901784	170	C	02/29/2020	10:45	-132.753	43.373	0	970.40	0	3.5280	0	36.7900	8	29.269	0	960.423	0	10.2	4	3.3	4	-1E+10	1	-1E+10	1	-1E+10	1	-1E+10	1	-1E+10	1	-1E+10	1
4901784	170	C	02/29/2020	10:45	-132.753	43.373	0	975.10	0	3.5170	0	36.7930	8	29.273	0	965.063	0	10.3	4	3.3	4	-1E+10	1	-1E+10	1	-1E+10	1	-1E+10	1	-1E+10	1	-1E+10	1
4901784	170	C	02/29/2020	10:45	-132.753	43.373	0	979.90	0	3.5100	0	36.7960	8	29.276	0	969.803	0	10.3	4	3.3	4	-1E+10	1	-1E+10	1	-1E+10	1	-1E+10	1	-1E+10	1	-1E+10	1
4901784	170	C	02/29/2020	10:45	-132.753	43.373	0	984.70	0	3.5040	0	36.7990	8	29.279	0	974.542	0	10.3	4	3.3	4	-1E+10	1	-1E+10	1	-1E+10	1	-1E+10	1	-1E+10	1	-1E+10	1
4901784	170	C	02/29/2020	10:45	-132.753	43.373	0	990.50	0	3.4890	0	36.8020	8	29.283	0	980.269	0	10.4	4	3.3	4	-1E+10	1	-1E+10	1	-1E+10	1	-1E+10	1	-1E+10	1	-1E+10	1
4901784	170	C	02/29/2020	10:45	-132.753	43.373	0	995.40	0	3.4850	0	36.8040	8	29.285	0	985.107	0	10.4	4	3.3	4	-1E+10	1	-1E+10	1	-1E+10	1	-1E+10	1	-1E+10	1	-1E+10	1
4901784	170	C	02/29/2020	10:45	-132.753	43.373	0	1000.00	0	3.4770	0	36.8070	8	29.288	0	989.648	0	10.4	4	3.3	4	-1E+10	1	-1E+10	1	-1E+10	1	-1E+10	1	-1E+10	1	-1E+10	1
4901784	170	C	02/29/2020	10:45	-132.753	43.373	0	1004.80	0	3.4650	0	36.8110	8	29.293	0	994.387	0	10.5	4	3.3	4	-1E+10	1	-1E+10	1	-1E+10	1	-1E+10	1	-1E+10	1	-1E+10	1
4901784	170	C	02/29/2020	10:45	-132.753	43.373	0	1009.80	0	3.4550	0	36.8140	8	29.296	0	999.324	0	10.5	4	3.3	4	-1E+10	1	-1E+10	1	-1E+10	1	-1E+10	1	-1E+10	1	-1E+10	1
4901784	170	C	02/29/2020	10:45	-132.753	43.373	0	1014.80	0	3.4490	0	36.8160	8	29.298	0	1004.260	0	10.5	4	3.3	4	-1E+10	1	-1E+10	1	-1E+10	1	-1E+10	1	-1E+10	1	-1E+10	1
4901784	170	C	02/29/2020	10:45	-132.753	43.373	0	1019.80	0	3.4410	0	36.8190	8	29.302	0	1009.196	0	10.6	4	3.4	4	-1E+10	1	-1E+10	1	-1E+10	1	-1E+10	1	-1E+10	1	-1E+10	1
4901784	170	C	02/29/2020	10:45	-132.753	43.373	0	1024.80	0	3.4320	0	36.8220	8	29.305	0	1014.132	0	10.7	4	3.4	4	-1E+10	1	-1E+10	1	-1E+10	1	-1E+10	1	-1E+10	1	-1E+10	1
4901784	170	C	02/29/2020	10:45	-132.753	43.373	0	1029.90	0	3.4280	0	36.8240	8	29.307	0	1019.166	0	10.7	4	3.4	4	-1E+10	1	-1E+10	1	-1E+10	1	-1E+10	1	-1E+10	1	-1E+10	1
4901784	170	C	02/29/2020	10:45	-132.753	43.373	0	1035.00	0	3.4200	0	36.8260	8	29.310	0	1024.201	0	10.7	4	3.4	4	-1E+10	1	-1E+10	1	-1E+10	1	-1E+10	1	-1E+10	1	-1E+10	1
4901784	170	C	02/29/2020	10:45	-132.753	43.373	0	1040.20	0	3.4070	0	36.8280	8	29.313	0	1029.334	0	10.8	4	3.4	4	-1E+10	1	-1E+10	1	-1E+10	1	-1E+10	1	-1E+10	1	-1E+10	1
4901784	170	C	02/29/2020	10:45	-132.753	43.373	0	1045.30	0	3.3950	0	36.8320	8	29.317	0	1034.368	0	10.9	4	3.4	4	-1E+10	1	-1E+10	1	-1E+10	1	-1E+10	1	-1E+10	1	-1E+10	1
4901784	170	C	02/29/2020	10:45	-132.753	43.373	0	1050.40	0	3.3960	0	36.8330	8	29.318	0	1039.402	0	10.9	4	3.5	4	-1E+10	1	-1E+10	1	-1E+10	1	-1E+10	1	-1E+10	1	-1E+10	1
4901784	170	C	02/29/2020	10:45	-132.753	43.373	0	1055.40	0	3.3790	0	36.8360	8	29.322	0	1044.337	0	11.0	4	3.5	4	-1E+10	1	-1E+10	1	-1E+10	1	-1E+10	1	-1E+10	1	-1E+10	1
4901784	170	C	02/29/2020	10:45	-132.753	43.373	0	1060.50	0	3.3690	0	36.8390	8	29.325	0	1049.371	0	11.1	4	3.5	4	-1E+10	1	-1E+10	1	-1E+10	1	-1E+10	1	-1E+10	1	-1E+10	1
4901784	170	C	02/29/2020	10:45	-132.753	43.373	0	1065.60	0	3.3630	0	36.8420	8	29.328	0	1054.404	0	11.1	4	3.5	4	-1E+10	1	-1E+10	1	-1E+10	1	-1E+10	1	-1E+10	1	-1E+10	1
4901784	170	C	02/29/2020	10:45	-132.753	43.373	0	1070.80	0	3.3570	0	36.8440	8	29.331	0	1059.537	0	11.2	4	3.6	4	-1E+10	1	-1E+10	1	-1E+10	1	-1E+10	1	-1E+10	1	-1E+10	1
4901784	170	C	02/29/2020	10:45	-132.753	43.373	0	1075.00	0	3.3540	0	36.8450	8	29.332	0	1063.682	0	11.3	4	3.6	4	-1E+10	1	-1E+10	1	-1E+10	1	-1E+10	1	-1E+10	1	-1E+10	1
4901784	170	C	02/29/2020	10:45	-132.753	43.373	0	1079.30	0	3.3500	0	36.8470	8	29.334	0	1067.926	0	11.4	4	3.6	4	-1E+10	1	-1E+10	1	-1E+10	1	-1E+10	1	-1E+10	1	-1E+10	1
4901784	170	C	02/29/2020	10:45	-132.753	43.373	0	1084.40	0	3.3380	0	36.8500	8	29.337	0	1072.959	0	11.5	4	3.6	4	-1E+10	1	-1E+10	1	-1E+10	1	-1E+10	1	-1E+10	1	-1E+10	1
4901784	170	C	02/29/2020	10:45	-132.753	43.373	0	1089.50	0	3.3220	0	36.8550	8	29.343	0	1077.992	0	11.6	4	3.7	4	-1E+10	1	-1E+10	1	-1E+10	1	-1E+10	1	-1E+10	1	-1E+10	1
4901784	170	C	02/29/2020	10:45	-132.753	43.373	0	1094.80	0	3.3160	0	36.8560	8	29.344	0	1083.222	0	11.6	4	3.7	4	-1E+10	1	-1E+10	1	-1E+10	1	-1E+10	1	-1E+10	1	-1E+10	1
4901784	170	C	02/29/2020	10:45	-132.753	43.373	0	1100.50	0	3.3120	0	36.8580	8	29.347	0	1088.847	0	11.7	4	3.7	4	-1E+10	1	-1E+10	1	-1E+10	1	-1E+10	1	-1E+10	1	-1E+10	1
4901784	170	C	02/29/2020	10:45	-132.753	43.373	0	1105.20	0	3.3060	0	36.8590	8	29.348	0	1093.485	0	11.8	4	3.7	4	-1E+10	1	-1E+10	1	-1E+10	1	-1E+10	1	-1E+10	1	-1E+10	1
4901784	170	C	02/29/2020	10:45	-132.753	43.373	0	1110.00	0	3.2920	0	36.8610	8	29.351	0	1098.222	0	11.8	4	3.8	4	-1E+10	1	-1E+10	1	-1E+10	1	-1E+10	1	-1E+10	1	-1E+10	1
4901784	170	C	02/29/2020	10:45	-132.753	43.373	0	1114.70	0	3.2820	0	36.8640	8	29.354	0	1102.860	0	11.9	4	3.8	4	-1E+10	1	-1E+10	1	-1E+10	1	-1E+10	1	-1E+10	1	-1E+10	1
4901784	170	C	02/29/2020	10:45	-132.753	43.373	0	1119.40	0	3.2720	0	36.8660	8	29.357	0	1107.497	0	12.1	4	3.8	4	-1E+10	1	-1E+10	1	-1E+10	1	-1E+10	1	-1E+10	1	-1E+10	1
4901784	170	C	02/29/2020	10:45	-132.753	43.373	0	1125.10	0	3.2610	0	36.8680	8	29.360	0	1113.122	0	12.2	4	3.9	4	-1E+10	1	-1E+10	1	-1E+10	1	-1E+10	1	-1E+10	1	-1E+10	1
4901784	170	C	02/29/2020	10:45	-132.753	43.373	0	1130.00	0	3.2520	0	36.8710	8	29.363	0	1117.956	0	12.3	4	3.9	4	-1E+10	1	-1E+10	1	-1E+10	1	-1E+10	1	-1E+10	1	-1E+10	1
4901784	170	C	02/29/2020	10:45	-132.753	43.373	0	1134.80	0	3.2430	0	36.8730	8	29.366	0	1122.692	0	12.4	4	3.9	4	-1E+10	1	-1E+10	1	-1E+10	1	-1E+10	1	-1E+10	1	-1E+10	1
4901784	170	C	02/29/2020	10:45	-132.753	43.373	0	1140.60	0	3.2320	0	36.8750	8	29.368	0	1128.415	0	12.5	4	3.9	4	-1E+10	1	-1E+10	1	-1E+10	1	-1E+10	1	-1E+10	1	-1E+10	1
4901784	170	C	02/29/2020	10:45	-132.753	43.373	0	1145.30	0	3.2260	0	36.8760	8	29.370	0	1133.052	0	12.5	4	4.0	4	-1E+10	1	-1E+10	1	-1E+10	1	-1E+10	1	-1E+10	1	-1E+10	1
4901784	170	C	02/29/2020	10:45	-132.753	43.373	0	1150.10	0	3.2200	0	36.8770	8	29.371	0	1137.788	0	12.6	4	4.0	4	-1E+10	1	-1E+10	1	-1E+10	1	-1E+10	1	-1E+10	1	-1E+10	1
4901784	170	C	02/29/2020	10:45	-132.753	43.373	0	1155.00	0	3.2090	0	36.8800	8	29.375	0	1142.622	0	12.7	4	4.0	4	-1E+10	1	-1E+10	1	-1E+10	1	-1E+10	1	-1E+10	1	-1E+10	1
4901784	170	C	02/29/2020	10:45	-132.753	43.373	0	1159.80	0	3.2010	0	36.8810	8	29.376	0	1147.358	0	12.8	4	4.0	4	-1E+10	1	-1E+10	1	-1E+10	1	-1E+10	1	-1E+10	1	-1E+10	1
4901784	170	C	02/29/2020	10:45	-132.753	43.373	0	1164.60	0	3.1890	0	36.8840	8	29.380	0	1152.093	0	12.9	4	4.1	4	-1E+10	1	-1E+10	1	-1E+10	1	-1E+10	1	-1E+10	1	-1E+10	1
4901784	170	C	02/29/2020	10:45	-132.753	43.373	0	1169.50	0	3.1800	0	36.8850	8	29.382	0	1156.927	0	13.0	4	4.1	4	-1E+10	1	-1E+10	1	-1E+10	1	-1E+10	1	-1E+10	1	-1E+10	1
4901784	170	C	02/29/2020	10:45	-132.753	43.373	0	1175.40	0	3.1650	0	36.8880	8	29.386	0	1162.747	0	13.1	4	4.1	4	-1E+10	1	-1E+10	1	-1E+10	1	-1E+10	1	-1E+10	1	-1E+10	1
4901784	170	C	02/29/2020	10:45	-132.753	43.373	0	1180.40	0	3.1580	0	36.8910	8	29.389	0	1167.679	0	13.2	4	4.2	4	-1E+10	1	-1E+10	1	-1E+10	1	-1E+10	1	-1E+10	1	-1E+10	1
4901784	170	C	02/29/2020	10:45	-132.753	43.373	0	1185.30	0	3.1490	0	36.8920	8	29.391	0	1172.513	0	13.3	4	4.2	4	-1E+10	1	-1E+10	1	-1E+10	1	-1E+10	1	-1E+10	1	-1E+10	1
4901784	170	C	02/29/2020	10:45	-132.753	43.373	0	1190.30	0	3.1440	0	36.8930	8	29.392	0	1177.445	0	13.4	4	4.2	4	-1E+10	1	-1E+10	1	-1E+10	1	-1E+10	1	-1E+10	1	-1E+10	1
4901784	170	C	02/29/2020	10:45	-132.753	43.373	0	1195.20	0	3.1350	0	36.8950	8	29.394	0	1182.278	0	13.5	4	4.3	4	-1E+10	1	-1E+10	1	-1E+10	1	-1E+10	1	-1E+10	1	-1E+10	1
4901784	170	C	02/29/2020	10:45	-132.753	43.373	0	1200.10	0	3.1260	0	36.8960	8	29.396	0	1187.111	0	13.6	4	4.3	4	-1E+10	1	-1E+10	1	-1E+10	1	-1E+10	1	-1E+10	1	-1E+10	1
4901784	170	C	02/29/2020	10:45	-132.753	43.373	0	1205.10	0	3.1100	0	36.8990	8	29.400	0	1192.043	0	13.8	4	4.3	4	-1E+10	1	-1E+10	1	-1E+10	1	-1E+10	1	-1E+10	1	-1E+10	1
4901784	170	C	02/29/2020	10:45	-132.753	43.373	0	1210.10	0	3.1010	0	36.9010	8	29.403	0	1196.975	0	13.9	4	4.4	4	-1E+10	1	-1E+10	1	-1E+10	1	-1E+10	1	-1E+10	1	-1E+10	1
4901784	170	C	02/29/2020	10:45	-132.753	43.373	0	1215.00	0	3.0870	0	36.9030	8	29.406	0	1201.808	0	14.1	4	4.4	4	-1E+10	1	-1E+10	1	-1E+10	1	-1E+10	1	-1E+10	1	-1E+10	1
4901784	170	C	02/29/2020	10:45	-132.753	43.373	0	1220.00	0	3.0800	0	36.9040	8	29.407	0	1206.739	0	14.2	4	4.5	4	-1E+10	1	-1E+10	1	-1E+10	1	-1E+10	1	-1E+10	1	-1E+10	1
4901784	170	C	02/29/2020	10:45	-132.753	43.373	0	1224.90	0	3.0670	0	36.9060	8	29.410	0	1211.572	0	14.4	4	4.5	4	-1E+10	1	-1E+10	1	-1E+10	1	-1E+10	1	-1E+10	1	-1E+10	1
4901784	170	C	02/29/2020	10:45	-132.753	43.373	0	1230.60	0	3.0430	0	36.9100	8	29.416	0	1217.193	0	14.6	4	4.6	4	-1E+10	1	-1E+10	1	-1E+10	1	-1E+10	1	-1E+10	1	-1E+10	1
4901784	170	C	02/29/2020	10:45	-132.753	43.373	0	1235.20	0	3.0320	0	36.9120	8	29.418	0	1221.730	0	14.7	4	4.6	4	-1E+10	1	-1E+10	1	-1E+10	1	-1E+10	1	-1E+10	1	-1E+10	1
4901784	170	C	02/29/2020	10:45	-132.753	43.373	0	1239.80	0	3.0220	0	36.9140	8	29.421	0	1226.266	0	14.8	4	4.7	4	-1E+10	1	-1E+10	1	-1E+10	1	-1E+10	1	-1E+10	1	-1E+10	1
4901784	170	C	02/29/2020	10:45	-132.753	43.373	0	1245.30	0	3.0160	0	36.9140	8	29.422	0	1231.690	0	15.0	4	4.7	4	-1E+10	1	-1E+10	1	-1E+10	1	-1E+10	1	-1E+10	1	-1E+10	1
4901784	170	C	02/29/2020	10:45	-132.753	43.373	0	1250.00	0	3.0070	0	36.9160	8	29.424	0	1236.325	0	15.1	4	4.7	4	-1E+10	1	-1E+10	1	-1E+10	1	-1E+10	1	-1E+10	1	-1E+10	1
4901784	170	C	02/29/2020	10:45	-132.753	43.373	0	1254.60	0	3.0020	0	36.9170	8	29.425	0	1240.861	0	15.2	4	4.8	4	-1E+10	1	-1E+10	1	-1E+10	1	-1E+10	1	-1E+10	1	-1E+10	1
4901784	170	C	02/29/2020	10:45	-132.753	43.373	0	1260.10	0	2.9910	0	36.9190	8	29.428	0	1246.284	0	15.4	4	4.8	4	-1E+10	1	-1E+10	1	-1E+10	1	-1E+10	1	-1E+10	1	-1E+10	1
4901784	170	C	02/29/2020	10:45	-132.753	43.373	0	1265.50	0	2.9760	0	36.9210	8	29.431	0	1251.609	0	15.7	4	4.9	4	-1E+10	1	-1E+10	1	-1E+10	1	-1E+10	1	-1E+10	1	-1E+10	1
4901784	170	C	02/29/2020	10:45	-132.753	43.373	0	1270.40	0	2.9550	0	36.9240	8	29.436	0	1256.441	0	15.9	4	5.0	4	-1E+10	1	-1E+10	1	-1E+10	1	-1E+10	1	-1E+10	1	-1E+10	1
4901784	170	C	02/29/2020	10:45	-132.753	43.373	0	1275.20	0	2.9380	0	36.9280	8	29.440	0	1261.174	0	16.2	4	5.1	4	-1E+10	1	-1E+10	1	-1E+10	1	-1E+10	1	-1E+10	1	-1E+10	1
4901784	170	C	02/29/2020	10:45	-132.753	43.373	0	1280.10	0	2.9290	0	36.9290	8	29.442	0	1266.005	0	16.3	4	5.1	4	-1E+10	1	-1E+10	1	-1E+10	1	-1E+10	1	-1E+10	1	-1E+10	1
4901784	170	C	02/29/2020	10:45	-132.753	43.373	0	1285.00	0	2.9180	0	36.9310	8	29.445	0	1270.836	0	16.5	4	5.2	4	-1E+10	1	-1E+10	1	-1E+10	1	-1E+10	1	-1E+10	1	-1E+10	1
4901784	170	C	02/29/2020	10:45	-132.753	43.373	0	1289.90	0	2.9100	0	36.9330	8	29.447	0	1275.667	0	16.6	4	5.2	4	-1E+10	1	-1E+10	1	-1E+10	1	-1E+10	1	-1E+10	1	-1E+10	1
4901784	170	C	02/29/2020	10:45	-132.753	43.373	0	1294.90	0	2.9060	0	36.9360	8	29.450	0	1280.597	0	16.9	4	5.3	4	-1E+10	1	-1E+10	1	-1E+10	1	-1E+10	1	-1E+10	1	-1E+10	1
4901784	170	C	02/29/2020	10:45	-132.753	43.373	0	1299.90	0	2.9080	0	36.9380	8	29.451	0	1285.527	0	17.1	4	5.4	4	-1E+10	1	-1E+10	1	-1E+10	1	-1E+10	1	-1E+10	1	-1E+10	1
4901784	170	C	02/29/2020	10:45	-132.753	43.373	0	1304.90	0	2.8950	0	36.9400	8	29.454	0	1290.456	0	17.3	4	5.4	4	-1E+10	1	-1E+10	1	-1E+10	1	-1E+10	1	-1E+10	1	-1E+10	1
4901784	170	C	02/29/2020	10:45	-132.753	43.373	0	1309.90	0	2.8880	0	36.9420	8	29.457	0	1295.385	0	17.4	4	5.5	4	-1E+10	1	-1E+10	1	-1E+10	1	-1E+10	1	-1E+10	1	-1E+10	1
4901784	170	C	02/29/2020	10:45	-132.753	43.373	0	1314.90	0	2.8800	0	36.9420	8	29.457	0	1300.314	0	17.4	4	5.5	4	-1E+10	1	-1E+10	1	-1E+10	1	-1E+10	1	-1E+10	1	-1E+10	1
4901784	170	C	02/29/2020	10:45	-132.753	43.373	0	1319.80	0	2.8660	0	36.9420	8	29.459	0	1305.145	0	17.5	4	5.5	4	-1E+10	1	-1E+10	1	-1E+10	1	-1E+10	1	-1E+10	1	-1E+10	1
4901784	170	C	02/29/2020	10:45	-132.753	43.373	0	1324.80	0	2.8510	0	36.9450	8	29.463	0	1310.074	0	17.8	4	5.6	4	-1E+10	1	-1E+10	1	-1E+10	1	-1E+10	1	-1E+10	1	-1E+10	1
4901784	170	C	02/29/2020	10:45	-132.753	43.373	0	1329.80	0	2.8390	0	36.9470	8	29.465	0	1315.003	0	17.9	4	5.6	4	-1E+10	1	-1E+10	1	-1E+10	1	-1E+10	1	-1E+10	1	-1E+10	1
4901784	170	C	02/29/2020	10:45	-132.753	43.373	0	1334.80	0	2.8310	0	36.9480	8	29.467	0	1319.931	0	18.1	4	5.7	4	-1E+10	1	-1E+10	1	-1E+10	1	-1E+10	1	-1E+10	1	-1E+10	1
4901784	170	C	02/29/2020	10:45	-132.753	43.373	0	1339.80	0	2.8240	0	36.9490	8	29.469	0	1324.860	0	18.2	4	5.7	4	-1E+10	1	-1E+10	1	-1E+10	1	-1E+10	1	-1E+10	1	-1E+10	1
4901784	170	C	02/29/2020	10:45	-132.753	43.373	0	1344.90	0	2.8170	0	36.9510	8	29.471	0	1329.887	0	18.4	4	5.8	4	-1E+10	1	-1E+10	1	-1E+10	1	-1E+10	1	-1E+10	1	-1E+10	1
4901784	170	C	02/29/2020	10:45	-132.753	43.373	0	1349.90	0	2.8120	0	36.9520	8	29.472	0	1334.815	0	18.6	4	5.8	4	-1E+10	1	-1E+10	1	-1E+10	1	-1E+10	1	-1E+10	1	-1E+10	1
4901784	170	C	02/29/2020	10:45	-132.753	43.373	0	1355.00	0	2.8050	0	36.9540	8	29.474	0	1339.842	0	18.7	4	5.9	4	-1E+10	1	-1E+10	1	-1E+10	1	-1E+10	1	-1E+10	1	-1E+10	1
4901784	170	C	02/29/2020	10:45	-132.753	43.373	0	1360.20	0	2.8000	0	36.9540	8	29.475	0	1344.967	0	18.9	4	5.9	4	-1E+10	1	-1E+10	1	-1E+10	1	-1E+10	1	-1E+10	1	-1E+10	1
4901784	170	C	02/29/2020	10:45	-132.753	43.373	0	1365.30	0	2.7920	0	36.9560	8	29.477	0	1349.994	0	19.1	4	6.0	4	-1E+10	1	-1E+10	1	-1E+10	1	-1E+10	1	-1E+10	1	-1E+10	1
4901784	170	C	02/29/2020	10:45	-132.753	43.373	0	1370.40	0	2.7800	0	36.9580	8	29.480	0	1355.021	0	19.3	4	6.0	4	-1E+10	1	-1E+10	1	-1E+10	1	-1E+10	1	-1E+10	1	-1E+10	1
4901784	170	C	02/29/2020	10:45	-132.753	43.373	0	1375.60	0	2.7700	0	36.9590	8	29.482	0	1360.145	0	19.6	4	6.1	4	-1E+10	1	-1E+10	1	-1E+10	1	-1E+10	1	-1E+10	1	-1E+10	1
4901784	170	C	02/29/2020	10:45	-132.753	43.373	0	1380.00	0	2.7630	0	36.9620	8	29.485	0	1364.482	0	19.7	4	6.2	4	-1E+10	1	-1E+10	1	-1E+10	1	-1E+10	1	-1E+10	1	-1E+10	1
4901784	170	C	02/29/2020	10:45	-132.753	43.373	0	1384.40	0	2.7600	0	36.9620	8	29.485	0	1368.818	0	19.9	4	6.2	4	-1E+10	1	-1E+10	1	-1E+10	1	-1E+10	1	-1E+10	1	-1E+10	1
4901784	170	C	02/29/2020	10:45	-132.753	43.373	0	1389.70	0	2.7560	0	36.9640	8	29.487	0	1374.041	0	20.1	4	6.3	4	-1E+10	1	-1E+10	1	-1E+10	1	-1E+10	1	-1E+10	1	-1E+10	1
4901784	170	C	02/29/2020	10:45	-132.753	43.373	0	1395.00	0	2.7520	0	36.9650	8	29.489	0	1379.264	0	20.3	4	6.4	4	-1E+10	1	-1E+10	1	-1E+10	1	-1E+10	1	-1E+10	1	-1E+10	1
4901784	170	C	02/29/2020	10:45	-132.753	43.373	0	1400.20	0	2.7410	0	36.9660	8	29.490	0	1384.388	0	20.5	4	6.4	4	-1E+10	1	-1E+10	1	-1E+10	1	-1E+10	1	-1E+10	1	-1E+10	1
4901784	170	C	02/29/2020	10:45	-132.753	43.373	0	1405.50	0	2.7290	0	36.9690	8	29.494	0	1389.611	0	20.8	4	6.5	4	-1E+10	1	-1E+10	1	-1E+10	1	-1E+10	1	-1E+10	1	-1E+10	1
4901784	170	C	02/29/2020	10:45	-132.753	43.373	0	1409.90	0	2.7220	0	36.9710	8	29.496	0	1393.947	0	21.0	4	6.6	4	-1E+10	1	-1E+10	1	-1E+10	1	-1E+10	1	-1E+10	1	-1E+10	1
4901784	170	C	02/29/2020	10:45	-132.753	43.373	0	1414.40	0	2.7190	0	36.9710	8	29.497	0	1398.381	0	21.0	4	6.6	4	-1E+10	1	-1E+10	1	-1E+10	1	-1E+10	1	-1E+10	1	-1E+10	1
4901784	170	C	02/29/2020	10:45	-132.753	43.373	0	1420.40	0	2.7130	0	36.9720	8	29.498	0	1404.293	0	21.2	4	6.6	4	-1E+10	1	-1E+10	1	-1E+10	1	-1E+10	1	-1E+10	1	-1E+10	1
4901784	170	C	02/29/2020	10:45	-132.753	43.373	0	1425.40	0	2.7030	0	36.9730	8	29.500	0	1409.220	0	21.3	4	6.7	4	-1E+10	1	-1E+10	1	-1E+10	1	-1E+10	1	-1E+10	1	-1E+10	1
4901784	170	C	02/29/2020	10:45	-132.753	43.373	0	1430.20	0	2.6980	0	36.9740	8	29.501	0	1413.949	0	21.5	4	6.7	4	-1E+10	1	-1E+10	1	-1E+10	1	-1E+10	1	-1E+10	1	-1E+10	1
4901784	170	C	02/29/2020	10:45	-132.753	43.373	0	1434.90	0	2.6950	0	36.9740	8	29.501	0	1418.580	0	21.8	4	6.8	4	-1E+10	1	-1E+10	1	-1E+10	1	-1E+10	1	-1E+10	1	-1E+10	1
4901784	170	C	02/29/2020	10:45	-132.753	43.373	0	1439.70	0	2.6790	0	36.9780	8	29.506	0	1423.309	0	22.2	4	6.9	4	-1E+10	1	-1E+10	1	-1E+10	1	-1E+10	1	-1E+10	1	-1E+10	1
4901784	170	C	02/29/2020	10:45	-132.753	43.373	0	1444.50	0	2.6750	0	36.9790	8	29.507	0	1428.038	0	22.6	4	7.1	4	-1E+10	1	-1E+10	1	-1E+10	1	-1E+10	1	-1E+10	1	-1E+10	1
4901784	170	C	02/29/2020	10:45	-132.753	43.373	0	1449.40	0	2.6730	0	36.9810	8	29.509	0	1432.866	0	23.1	4	7.2	4	-1E+10	1	-1E+10	1	-1E+10	1	-1E+10	1	-1E+10	1	-1E+10	1
4901784	170	C	02/29/2020	10:45	-132.753	43.373	0	1454.30	0	2.6510	0	36.9840	8	29.514	0	1437.693	0	23.6	4	7.4	4	-1E+10	1	-1E+10	1	-1E+10	1	-1E+10	1	-1E+10	1	-1E+10	1
4901784	170	C	02/29/2020	10:45	-132.753	43.373	0	1459.30	0	2.6440	0	36.9860	8	29.516	0	1442.619	0	23.9	4	7.5	4	-1E+10	1	-1E+10	1	-1E+10	1	-1E+10	1	-1E+10	1	-1E+10	1
4901784	170	C	02/29/2020	10:45	-132.753	43.373	0	1464.30	0	2.6280	0	36.9880	8	29.519	0	1447.545	0	24.3	4	7.6	4	-1E+10	1	-1E+10	1	-1E+10	1	-1E+10	1	-1E+10	1	-1E+10	1
4901784	170	C	02/29/2020	10:45	-132.753	43.373	0	1469.30	0	2.6140	0	36.9910	8	29.523	0	1452.470	0	24.7	4	7.7	4	-1E+10	1	-1E+10	1	-1E+10	1	-1E+10	1	-1E+10	1	-1E+10	1
4901784	170	C	02/29/2020	10:45	-132.753	43.373	0	1474.30	0	2.6050	0	36.9920	8	29.524	0	1457.396	0	24.9	4	7.8	4	-1E+10	1	-1E+10	1	-1E+10	1	-1E+10	1	-1E+10	1	-1E+10	1
4901784	170	C	02/29/2020	10:45	-132.753	43.373	0	1479.40	0	2.6000	0	36.9940	8	29.526	0	1462.420	0	25.2	4	7.8	4	-1E+10	1	-1E+10	1	-1E+10	1	-1E+10	1	-1E+10	1	-1E+10	1
4901784	170	C	02/29/2020	10:45	-132.753	43.373	0	1484.50	0	2.5880	0	36.9940	8	29.528	0	1467.444	0	25.2	4	7.9	4	-1E+10	1	-1E+10	1	-1E+10	1	-1E+10	1	-1E+10	1	-1E+10	1
4901784	170	C	02/29/2020	10:45	-132.753	43.373	0	1489.60	0	2.5740	0	36.9950	8	29.530	0	1472.467	0	25.4	4	7.9	4	-1E+10	1	-1E+10	1	-1E+10	1	-1E+10	1	-1E+10	1	-1E+10	1
4901784	170	C	02/29/2020	10:45	-132.753	43.373	0	1494.80	0	2.5640	0	36.9970	8	29.532	0	1477.589	0	25.6	4	8.0	4	-1E+10	1	-1E+10	1	-1E+10	1	-1E+10	1	-1E+10	1	-1E+10	1
4901784	170	C	02/29/2020	10:45	-132.753	43.373	0	1500.00	0	2.5590	0	36.9980	8	29.533	0	1482.711	0	25.9	4	8.1	4	-1E+10	1	-1E+10	1	-1E+10	1	-1E+10	1	-1E+10	1	-1E+10	1
4901784	170	C	02/29/2020	10:45	-132.753	43.373	0	1505.30	0	2.5530	0	36.9990	8	29.535	0	1487.931	0	26.1	4	8.1	4	-1E+10	1	-1E+10	1	-1E+10	1	-1E+10	1	-1E+10	1	-1E+10	1
4901784	170	C	02/29/2020	10:45	-132.753	43.373	0	1510.60	0	2.5470	0	37.0000	8	29.536	0	1493.151	0	26.4	4	8.2	4	-1E+10	1	-1E+10	1	-1E+10	1	-1E+10	1	-1E+10	1	-1E+10	1
4901784	170	C	02/29/2020	10:45	-132.753	43.373	0	1515.00	0	2.5380	0	37.0020	8	29.539	0	1497.485	0	26.7	4	8.3	4	-1E+10	1	-1E+10	1	-1E+10	1	-1E+10	1	-1E+10	1	-1E+10	1
4901784	170	C	02/29/2020	10:45	-132.753	43.373	0	1519.30	0	2.5300	0	37.0020	8	29.539	0	1501.720	0	27.0	4	8.4	4	-1E+10	1	-1E+10	1	-1E+10	1	-1E+10	1	-1E+10	1	-1E+10	1
4901784	170	C	02/29/2020	10:45	-132.753	43.373	0	1524.60	0	2.5150	0	37.0050	8	29.543	0	1506.940	0	27.5	4	8.5	4	-1E+10	1	-1E+10	1	-1E+10	1	-1E+10	1	-1E+10	1	-1E+10	1
4901784	170	C	02/29/2020	10:45	-132.753	43.373	0	1530.00	0	2.5040	0	37.0070	8	29.546	0	1512.258	0	27.7	4	8.6	4	-1E+10	1	-1E+10	1	-1E+10	1	-1E+10	1	-1E+10	1	-1E+10	1
4901784	170	C	02/29/2020	10:45	-132.753	43.373	0	1535.40	0	2.5000	0	37.0080	8	29.547	0	1517.576	0	28.0	4	8.7	4	-1E+10	1	-1E+10	1	-1E+10	1	-1E+10	1	-1E+10	1	-1E+10	1
4901784	170	C	02/29/2020	10:45	-132.753	43.373	0	1539.80	0	2.4950	0	37.0090	8	29.548	0	1521.909	0	28.3	4	8.8	4	-1E+10	1	-1E+10	1	-1E+10	1	-1E+10	1	-1E+10	1	-1E+10	1
4901784	170	C	02/29/2020	10:45	-132.753	43.373	0	1544.40	0	2.4860	0	37.0100	8	29.550	0	1526.439	0	28.6	4	8.9	4	-1E+10	1	-1E+10	1	-1E+10	1	-1E+10	1	-1E+10	1	-1E+10	1
4901784	170	C	02/29/2020	10:45	-132.753	43.373	0	1549.80	0	2.4750	0	37.0120	8	29.553	0	1531.757	0	29.0	4	9.0	4	-1E+10	1	-1E+10	1	-1E+10	1	-1E+10	1	-1E+10	1	-1E+10	1
4901784	170	C	02/29/2020	10:45	-132.753	43.373	0	1555.00	0	2.4650	0	37.0130	8	29.554	0	1536.877	0	29.5	4	9.2	4	-1E+10	1	-1E+10	1	-1E+10	1	-1E+10	1	-1E+10	1	-1E+10	1
4901784	170	C	02/29/2020	10:45	-132.753	43.373	0	1559.30	0	2.4510	0	37.0160	8	29.558	0	1541.112	0	29.8	4	9.3	4	-1E+10	1	-1E+10	1	-1E+10	1	-1E+10	1	-1E+10	1	-1E+10	1
4901784	170	C	02/29/2020	10:45	-132.753	43.373	0	1564.90	0	2.4420	0	37.0170	8	29.560	0	1546.626	0	30.2	4	9.4	4	-1E+10	1	-1E+10	1	-1E+10	1	-1E+10	1	-1E+10	1	-1E+10	1
4901784	170	C	02/29/2020	10:45	-132.753	43.373	0	1570.50	0	2.4310	0	37.0190	8	29.562	0	1552.140	0	30.6	4	9.5	4	-1E+10	1	-1E+10	1	-1E+10	1	-1E+10	1	-1E+10	1	-1E+10	1
4901784	170	C	02/29/2020	10:45	-132.753	43.373	0	1575.50	0	2.4250	0	37.0200	8	29.564	0	1557.063	0	30.9	4	9.6	4	-1E+10	1	-1E+10	1	-1E+10	1	-1E+10	1	-1E+10	1	-1E+10	1
4901784	170	C	02/29/2020	10:45	-132.753	43.373	0	1580.30	0	2.4170	0	37.0210	8	29.565	0	1561.789	0	31.3	4	9.7	4	-1E+10	1	-1E+10	1	-1E+10	1	-1E+10	1	-1E+10	1	-1E+10	1
4901784	170	C	02/29/2020	10:45	-132.753	43.373	0	1585.40	0	2.4060	0	37.0230	8	29.568	0	1566.811	0	31.9	4	9.9	4	-1E+10	1	-1E+10	1	-1E+10	1	-1E+10	1	-1E+10	1	-1E+10	1
4901784	170	C	02/29/2020	10:45	-132.753	43.373	0	1590.40	0	2.3930	0	37.0250	8	29.571	0	1571.733	0	32.3	4	10.0	4	-1E+10	1	-1E+10	1	-1E+10	1	-1E+10	1	-1E+10	1	-1E+10	1
4901784	170	C	02/29/2020	10:45	-132.753	43.373	0	1595.50	0	2.3780	0	37.0270	8	29.574	0	1576.755	0	32.8	4	10.2	4	-1E+10	1	-1E+10	1	-1E+10	1	-1E+10	1	-1E+10	1	-1E+10	1
4901784	170	C	02/29/2020	10:45	-132.753	43.373	0	1600.50	0	2.3690	0	37.0290	8	29.576	0	1581.677	0	33.2	4	10.3	4	-1E+10	1	-1E+10	1	-1E+10	1	-1E+10	1	-1E+10	1	-1E+10	1
4901784	170	C	02/29/2020	10:45	-132.753	43.373	0	1605.60	0	2.3610	0	37.0300	8	29.578	0	1586.698	0	33.6	4	10.4	4	-1E+10	1	-1E+10	1	-1E+10	1	-1E+10	1	-1E+10	1	-1E+10	1
4901784	170	C	02/29/2020	10:45	-132.753	43.373	0	1610.80	0	2.3520	0	37.0320	8	29.580	0	1591.817	0	34.0	4	10.5	4	-1E+10	1	-1E+10	1	-1E+10	1	-1E+10	1	-1E+10	1	-1E+10	1
4901784	170	C	02/29/2020	10:45	-132.753	43.373	0	1615.10	0	2.3440	0	37.0330	8	29.582	0	1596.050	0	34.3	4	10.6	4	-1E+10	1	-1E+10	1	-1E+10	1	-1E+10	1	-1E+10	1	-1E+10	1
4901784	170	C	02/29/2020	10:45	-132.753	43.373	0	1619.50	0	2.3340	0	37.0340	8	29.583	0	1600.382	0	34.7	4	10.8	4	-1E+10	1	-1E+10	1	-1E+10	1	-1E+10	1	-1E+10	1	-1E+10	1
4901784	170	C	02/29/2020	10:45	-132.753	43.373	0	1624.80	0	2.3250	0	37.0360	8	29.586	0	1605.599	0	35.1	4	10.9	4	-1E+10	1	-1E+10	1	-1E+10	1	-1E+10	1	-1E+10	1	-1E+10	1
4901784	170	C	02/29/2020	10:45	-132.753	43.373	0	1630.20	0	2.3150	0	37.0380	8	29.588	0	1610.915	0	35.6	4	11.0	4	-1E+10	1	-1E+10	1	-1E+10	1	-1E+10	1	-1E+10	1	-1E+10	1
4901784	170	C	02/29/2020	10:45	-132.753	43.373	0	1635.60	0	2.3030	0	37.0400	8	29.591	0	1616.230	0	36.0	4	11.1	4	-1E+10	1	-1E+10	1	-1E+10	1	-1E+10	1	-1E+10	1	-1E+10	1
4901784	170	C	02/29/2020	10:45	-132.753	43.373	0	1640.10	0	2.2970	0	37.0410	8	29.592	0	1620.660	0	36.2	4	11.2	4	-1E+10	1	-1E+10	1	-1E+10	1	-1E+10	1	-1E+10	1	-1E+10	1
4901784	170	C	02/29/2020	10:45	-132.753	43.373	0	1644.70	0	2.2900	0	37.0420	8	29.594	0	1625.188	0	36.4	4	11.3	4	-1E+10	1	-1E+10	1	-1E+10	1	-1E+10	1	-1E+10	1	-1E+10	1
4901784	170	C	02/29/2020	10:45	-132.753	43.373	0	1650.10	0	2.2870	0	37.0430	8	29.595	0	1630.503	0	36.6	4	11.3	4	-1E+10	1	-1E+10	1	-1E+10	1	-1E+10	1	-1E+10	1	-1E+10	1
4901784	170	C	02/29/2020	10:45	-132.753	43.373	0	1655.60	0	2.2840	0	37.0440	8	29.596	0	1635.916	0	36.9	4	11.4	4	-1E+10	1	-1E+10	1	-1E+10	1	-1E+10	1	-1E+10	1	-1E+10	1
4901784	170	C	02/29/2020	10:45	-132.753	43.373	0	1660.30	0	2.2800	0	37.0440	8	29.596	0	1640.542	0	37.2	4	11.5	4	-1E+10	1	-1E+10	1	-1E+10	1	-1E+10	1	-1E+10	1	-1E+10	1
4901784	170	C	02/29/2020	10:45	-132.753	43.373	0	1664.80	0	2.2720	0	37.0460	8	29.599	0	1644.971	0	37.5	4	11.6	4	-1E+10	1	-1E+10	1	-1E+10	1	-1E+10	1	-1E+10	1	-1E+10	1
4901784	170	C	02/29/2020	10:45	-132.753	43.373	0	1669.60	0	2.2660	0	37.0460	8	29.599	0	1649.696	0	37.9	4	11.7	4	-1E+10	1	-1E+10	1	-1E+10	1	-1E+10	1	-1E+10	1	-1E+10	1
4901784	170	C	02/29/2020	10:45	-132.753	43.373	0	1674.40	0	2.2540	0	37.0480	8	29.602	0	1654.420	0	38.4	4	11.9	4	-1E+10	1	-1E+10	1	-1E+10	1	-1E+10	1	-1E+10	1	-1E+10	1
4901784	170	C	02/29/2020	10:45	-132.753	43.373	0	1679.20	0	2.2450	0	37.0500	8	29.604	0	1659.144	0	38.8	4	12.0	4	-1E+10	1	-1E+10	1	-1E+10	1	-1E+10	1	-1E+10	1	-1E+10	1
4901784	170	C	02/29/2020	10:45	-132.753	43.373	0	1684.90	0	2.2330	0	37.0520	8	29.607	0	1664.753	0	39.4	4	12.2	4	-1E+10	1	-1E+10	1	-1E+10	1	-1E+10	1	-1E+10	1	-1E+10	1
4901784	170	C	02/29/2020	10:45	-132.753	43.373	0	1690.70	0	2.2250	0	37.0530	8	29.609	0	1670.461	0	39.9	4	12.3	4	-1E+10	1	-1E+10	1	-1E+10	1	-1E+10	1	-1E+10	1	-1E+10	1
4901784	170	C	02/29/2020	10:45	-132.753	43.373	0	1695.60	0	2.2140	0	37.0550	8	29.611	0	1675.283	0	40.3	4	12.4	4	-1E+10	1	-1E+10	1	-1E+10	1	-1E+10	1	-1E+10	1	-1E+10	1
4901784	170	C	02/29/2020	10:45	-132.753	43.373	0	1700.50	0	2.2060	0	37.0570	8	29.613	0	1680.105	0	40.6	4	12.5	4	-1E+10	1	-1E+10	1	-1E+10	1	-1E+10	1	-1E+10	1	-1E+10	1
4901784	170	C	02/29/2020	10:45	-132.753	43.373	0	1705.50	0	2.1990	0	37.0580	8	29.615	0	1685.025	0	40.9	4	12.6	4	-1E+10	1	-1E+10	1	-1E+10	1	-1E+10	1	-1E+10	1	-1E+10	1
4901784	170	C	02/29/2020	10:45	-132.753	43.373	0	1710.50	0	2.1940	0	37.0590	8	29.616	0	1689.945	0	41.1	4	12.7	4	-1E+10	1	-1E+10	1	-1E+10	1	-1E+10	1	-1E+10	1	-1E+10	1
4901784	170	C	02/29/2020	10:45	-132.753	43.373	0	1715.50	0	2.1900	0	37.0600	8	29.617	0	1694.865	0	41.4	4	12.8	4	-1E+10	1	-1E+10	1	-1E+10	1	-1E+10	1	-1E+10	1	-1E+10	1
4901784	170	C	02/29/2020	10:45	-132.753	43.373	0	1720.50	0	2.1850	0	37.0600	8	29.618	0	1699.785	0	41.7	4	12.9	4	-1E+10	1	-1E+10	1	-1E+10	1	-1E+10	1	-1E+10	1	-1E+10	1
4901784	170	C	02/29/2020	10:45	-132.753	43.373	0	1725.50	0	2.1800	0	37.0620	8	29.620	0	1704.705	0	42.0	4	13.0	4	-1E+10	1	-1E+10	1	-1E+10	1	-1E+10	1	-1E+10	1	-1E+10	1
4901784	170	C	02/29/2020	10:45	-132.753	43.373	0	1730.60	0	2.1750	0	37.0620	8	29.620	0	1709.723	0	42.3	4	13.1	4	-1E+10	1	-1E+10	1	-1E+10	1	-1E+10	1	-1E+10	1	-1E+10	1
4901784	170	C	02/29/2020	10:45	-132.753	43.373	0	1735.70	0	2.1690	0	37.0630	8	29.622	0	1714.740	0	42.7	4	13.2	4	-1E+10	1	-1E+10	1	-1E+10	1	-1E+10	1	-1E+10	1	-1E+10	1
4901784	170	C	02/29/2020	10:45	-132.753	43.373	0	1740.80	0	2.1590	0	37.0650	8	29.624	0	1719.758	0	43.2	4	13.3	4	-1E+10	1	-1E+10	1	-1E+10	1	-1E+10	1	-1E+10	1	-1E+10	1
4901784	170	C	02/29/2020	10:45	-132.753	43.373	0	1745.00	0	2.1530	0	37.0660	8	29.626	0	1723.890	0	43.6	4	13.4	4	-1E+10	1	-1E+10	1	-1E+10	1	-1E+10	1	-1E+10	1	-1E+10	1
4901784	170	C	02/29/2020	10:45	-132.753	43.373	0	1749.20	0	2.1460	0	37.0670	8	29.627	0	1728.022	0	43.9	4	13.5	4	-1E+10	1	-1E+10	1	-1E+10	1	-1E+10	1	-1E+10	1	-1E+10	1
4901784	170	C	02/29/2020	10:45	-132.753	43.373	0	1754.30	0	2.1410	0	37.0680	8	29.628	0	1733.040	0	44.2	4	13.6	4	-1E+10	1	-1E+10	1	-1E+10	1	-1E+10	1	-1E+10	1	-1E+10	1
4901784	170	C	02/29/2020	10:45	-132.753	43.373	0	1759.40	0	2.1340	0	37.0700	8	29.631	0	1738.057	0	44.6	4	13.7	4	-1E+10	1	-1E+10	1	-1E+10	1	-1E+10	1	-1E+10	1	-1E+10	1
4901784	170	C	02/29/2020	10:45	-132.753	43.373	0	1764.60	0	2.1300	0	37.0710	8	29.632	0	1743.173	0	44.8	4	13.8	4	-1E+10	1	-1E+10	1	-1E+10	1	-1E+10	1	-1E+10	1	-1E+10	1
4901784	170	C	02/29/2020	10:45	-132.753	43.373	0	1769.80	0	2.1250	0	37.0710	8	29.632	0	1748.288	0	45.2	4	13.9	4	-1E+10	1	-1E+10	1	-1E+10	1	-1E+10	1	-1E+10	1	-1E+10	1
4901784	170	C	02/29/2020	10:45	-132.753	43.373	0	1774.90	0	2.1170	0	37.0730	8	29.634	0	1753.305	0	45.5	4	14.0	4	-1E+10	1	-1E+10	1	-1E+10	1	-1E+10	1	-1E+10	1	-1E+10	1
4901784	170	C	02/29/2020	10:45	-132.753	43.373	0	1780.20	0	2.1140	0	37.0740	8	29.636	0	1758.519	0	45.7	4	14.1	4	-1E+10	1	-1E+10	1	-1E+10	1	-1E+10	1	-1E+10	1	-1E+10	1
4901784	170	C	02/29/2020	10:45	-132.753	43.373	0	1785.50	0	2.1110	0	37.0740	8	29.636	0	1763.732	0	45.9	4	14.2	4	-1E+10	1	-1E+10	1	-1E+10	1	-1E+10	1	-1E+10	1	-1E+10	1
4901784	170	C	02/29/2020	10:45	-132.753	43.373	0	1789.90	0	2.1070	0	37.0760	8	29.638	0	1768.060	0	46.2	4	14.2	4	-1E+10	1	-1E+10	1	-1E+10	1	-1E+10	1	-1E+10	1	-1E+10	1
4901784	170	C	02/29/2020	10:45	-132.753	43.373	0	1794.30	0	2.1030	0	37.0760	8	29.638	0	1772.388	0	46.5	4	14.3	4	-1E+10	1	-1E+10	1	-1E+10	1	-1E+10	1	-1E+10	1	-1E+10	1
4901784	170	C	02/29/2020	10:45	-132.753	43.373	0	1799.60	0	2.0960	0	37.0770	8	29.640	0	1777.601	0	46.9	4	14.4	4	-1E+10	1	-1E+10	1	-1E+10	1	-1E+10	1	-1E+10	1	-1E+10	1
4901784	170	C	02/29/2020	10:45	-132.753	43.373	0	1804.90	0	2.0910	0	37.0780	8	29.641	0	1782.814	0	47.2	4	14.5	4	-1E+10	1	-1E+10	1	-1E+10	1	-1E+10	1	-1E+10	1	-1E+10	1
4901784	170	C	02/29/2020	10:45	-132.753	43.373	0	1810.20	0	2.0840	0	37.0790	8	29.642	0	1788.027	0	47.6	4	14.7	4	-1E+10	1	-1E+10	1	-1E+10	1	-1E+10	1	-1E+10	1	-1E+10	1
4901784	170	C	02/29/2020	10:45	-132.753	43.373	0	1815.50	0	2.0770	0	37.0810	8	29.645	0	1793.240	0	48.0	4	14.8	4	-1E+10	1	-1E+10	1	-1E+10	1	-1E+10	1	-1E+10	1	-1E+10	1
4901784	170	C	02/29/2020	10:45	-132.753	43.373	0	1819.90	0	2.0730	0	37.0820	8	29.646	0	1797.567	0	48.4	4	14.9	4	-1E+10	1	-1E+10	1	-1E+10	1	-1E+10	1	-1E+10	1	-1E+10	1
4901784	170	C	02/29/2020	10:45	-132.753	43.373	0	1824.30	0	2.0660	0	37.0830	8	29.647	0	1801.895	0	48.7	4	15.0	4	-1E+10	1	-1E+10	1	-1E+10	1	-1E+10	1	-1E+10	1	-1E+10	1
4901784	170	C	02/29/2020	10:45	-132.753	43.373	0	1829.60	0	2.0610	0	37.0840	8	29.648	0	1807.107	0	48.9	4	15.1	4	-1E+10	1	-1E+10	1	-1E+10	1	-1E+10	1	-1E+10	1	-1E+10	1
4901784	170	C	02/29/2020	10:45	-132.753	43.373	0	1835.00	0	2.0590	0	37.0840	8	29.649	0	1812.418	0	49.2	4	15.2	4	-1E+10	1	-1E+10	1	-1E+10	1	-1E+10	1	-1E+10	1	-1E+10	1
4901784	170	C	02/29/2020	10:45	-132.753	43.373	0	1840.40	0	2.0540	0	37.0850	8	29.650	0	1817.728	0	49.6	4	15.3	4	-1E+10	1	-1E+10	1	-1E+10	1	-1E+10	1	-1E+10	1	-1E+10	1
4901784	170	C	02/29/2020	10:45	-132.753	43.373	0	1844.90	0	2.0510	0	37.0860	8	29.651	0	1822.154	0	49.9	4	15.4	4	-1E+10	1	-1E+10	1	-1E+10	1	-1E+10	1	-1E+10	1	-1E+10	1
4901784	170	C	02/29/2020	10:45	-132.753	43.373	0	1849.40	0	2.0430	0	37.0870	8	29.653	0	1826.579	0	50.4	4	15.5	4	-1E+10	1	-1E+10	1	-1E+10	1	-1E+10	1	-1E+10	1	-1E+10	1
4901784	170	C	02/29/2020	10:45	-132.753	43.373	0	1854.90	0	2.0360	0	37.0880	8	29.654	0	1831.987	0	50.8	4	15.6	4	-1E+10	1	-1E+10	1	-1E+10	1	-1E+10	1	-1E+10	1	-1E+10	1
4901784	170	C	02/29/2020	10:45	-132.753	43.373	0	1860.30	0	2.0280	0	37.0900	8	29.656	0	1837.297	0	51.2	4	15.8	4	-1E+10	1	-1E+10	1	-1E+10	1	-1E+10	1	-1E+10	1	-1E+10	1
4901784	170	C	02/29/2020	10:45	-132.753	43.373	0	1864.90	0	2.0230	0	37.0910	8	29.658	0	1841.820	0	51.5	4	15.8	4	-1E+10	1	-1E+10	1	-1E+10	1	-1E+10	1	-1E+10	1	-1E+10	1
4901784	170	C	02/29/2020	10:45	-132.753	43.373	0	1869.60	0	2.0210	0	37.0910	8	29.658	0	1846.442	0	51.7	4	15.9	4	-1E+10	1	-1E+10	1	-1E+10	1	-1E+10	1	-1E+10	1	-1E+10	1
4901784	170	C	02/29/2020	10:45	-132.753	43.373	0	1875.20	0	2.0170	0	37.0920	8	29.659	0	1851.948	0	52.0	4	16.0	4	-1E+10	1	-1E+10	1	-1E+10	1	-1E+10	1	-1E+10	1	-1E+10	1
4901784	170	C	02/29/2020	10:45	-132.753	43.373	0	1879.90	0	2.0120	0	37.0940	8	29.661	0	1856.569	0	52.4	4	16.1	4	-1E+10	1	-1E+10	1	-1E+10	1	-1E+10	1	-1E+10	1	-1E+10	1
4901784	170	C	02/29/2020	10:45	-132.753	43.373	0	1884.60	0	2.0070	0	37.0940	8	29.661	0	1861.190	0	52.6	4	16.2	4	-1E+10	1	-1E+10	1	-1E+10	1	-1E+10	1	-1E+10	1	-1E+10	1
4901784	170	C	02/29/2020	10:45	-132.753	43.373	0	1890.10	0	2.0040	0	37.0950	8	29.663	0	1866.598	0	52.9	4	16.3	4	-1E+10	1	-1E+10	1	-1E+10	1	-1E+10	1	-1E+10	1	-1E+10	1
4901784	170	C	02/29/2020	10:45	-132.753	43.373	0	1895.50	0	2.0000	0	37.0960	8	29.664	0	1871.907	0	53.1	4	16.3	4	-1E+10	1	-1E+10	1	-1E+10	1	-1E+10	1	-1E+10	1	-1E+10	1
4901784	170	C	02/29/2020	10:45	-132.753	43.373	0	1900.50	0	1.9980	0	37.0960	8	29.664	0	1876.823	0	53.5	4	16.4	4	-1E+10	1	-1E+10	1	-1E+10	1	-1E+10	1	-1E+10	1	-1E+10	1
4901784	170	C	02/29/2020	10:45	-132.753	43.373	0	1905.50	0	1.9890	0	37.0980	8	29.666	0	1881.738	0	53.9	4	16.6	4	-1E+10	1	-1E+10	1	-1E+10	1	-1E+10	1	-1E+10	1	-1E+10	1
4901784	170	C	02/29/2020	10:45	-132.753	43.373	0	1910.50	0	1.9850	0	37.0990	8	29.667	0	1886.654	0	54.2	4	16.6	4	-1E+10	1	-1E+10	1	-1E+10	1	-1E+10	1	-1E+10	1	-1E+10	1
4901784	170	C	02/29/2020	10:45	-132.753	43.373	0	1915.50	0	1.9810	0	37.0990	8	29.668	0	1891.569	0	54.4	4	16.7	4	-1E+10	1	-1E+10	1	-1E+10	1	-1E+10	1	-1E+10	1	-1E+10	1
4901784	170	C	02/29/2020	10:45	-132.753	43.373	0	1920.60	0	1.9800	0	37.1000	8	29.669	0	1896.583	0	54.7	4	16.8	4	-1E+10	1	-1E+10	1	-1E+10	1	-1E+10	1	-1E+10	1	-1E+10	1
4901784	170	C	02/29/2020	10:45	-132.753	43.373	0	1925.70	0	1.9760	0	37.1000	8	29.669	0	1901.596	0	55.0	4	16.9	4	-1E+10	1	-1E+10	1	-1E+10	1	-1E+10	1	-1E+10	1	-1E+10	1
4901784	170	C	02/29/2020	10:45	-132.753	43.373	0	1929.90	0	1.9720	0	37.1020	8	29.671	0	1905.725	0	55.2	4	17.0	4	-1E+10	1	-1E+10	1	-1E+10	1	-1E+10	1	-1E+10	1	-1E+10	1
4901784	170	C	02/29/2020	10:45	-132.753	43.373	0	1934.30	0	1.9680	0	37.1020	8	29.671	0	1910.050	0	55.4	4	17.0	4	-1E+10	1	-1E+10	1	-1E+10	1	-1E+10	1	-1E+10	1	-1E+10	1
4901784	170	C	02/29/2020	10:45	-132.753	43.373	0	1939.40	0	1.9660	0	37.1020	8	29.672	0	1915.063	0	55.7	4	17.1	4	-1E+10	1	-1E+10	1	-1E+10	1	-1E+10	1	-1E+10	1	-1E+10	1
4901784	170	C	02/29/2020	10:45	-132.753	43.373	0	1944.60	0	1.9630	0	37.1030	8	29.673	0	1920.175	0	55.9	4	17.2	4	-1E+10	1	-1E+10	1	-1E+10	1	-1E+10	1	-1E+10	1	-1E+10	1
4901784	170	C	02/29/2020	10:45	-132.753	43.373	0	1949.90	0	1.9600	0	37.1040	8	29.674	0	1925.384	0	56.1	4	17.2	4	-1E+10	1	-1E+10	1	-1E+10	1	-1E+10	1	-1E+10	1	-1E+10	1
4901784	170	C	02/29/2020	10:45	-132.753	43.373	0	1955.10	0	1.9590	0	37.1040	8	29.674	0	1930.495	0	56.2	4	17.3	4	-1E+10	1	-1E+10	1	-1E+10	1	-1E+10	1	-1E+10	1	-1E+10	1
4901784	170	C	02/29/2020	10:45	-132.753	43.373	0	1960.30	0	1.9580	0	37.1040	8	29.674	0	1935.606	0	56.4	4	17.3	4	-1E+10	1	-1E+10	1	-1E+10	1	-1E+10	1	-1E+10	1	-1E+10	1
4901784	170	C	02/29/2020	10:45	-132.753	43.373	0	1965.70	0	1.9550	0	37.1050	8	29.675	0	1940.913	0	56.6	4	17.4	4	-1E+10	1	-1E+10	1	-1E+10	1	-1E+10	1	-1E+10	1	-1E+10	1
4901784	170	C	02/29/2020	10:45	-132.753	43.373	0	1970.60	0	1.9520	0	37.1060	8	29.676	0	1945.729	0	56.8	4	17.4	4	-1E+10	1	-1E+10	1	-1E+10	1	-1E+10	1	-1E+10	1	-1E+10	1
4901784	170	C	02/29/2020	10:45	-132.753	43.373	0	1974.70	0	1.9490	0	37.1060	8	29.677	0	1949.759	0	57.0	4	17.5	4	-1E+10	1	-1E+10	1	-1E+10	1	-1E+10	1	-1E+10	1	-1E+10	1
4901784	170	C	02/29/2020	10:45	-132.753	43.373	0	1979.40	0	1.9460	0	37.1060	8	29.677	0	1954.378	0	57.3	4	17.6	4	-1E+10	1	-1E+10	1	-1E+10	1	-1E+10	1	-1E+10	1	-1E+10	1
4901784	170	C	02/29/2020	10:45	-132.753	43.373	0	1984.90	0	1.9410	0	37.1080	8	29.679	0	1959.783	0	57.6	4	17.7	4	-1E+10	1	-1E+10	1	-1E+10	1	-1E+10	1	-1E+10	1	-1E+10	1
4901784	170	C	02/29/2020	10:45	-132.753	43.373	0	1990.60	0	1.9380	0	37.1120	8	29.682	0	1965.385	0	57.7	4	17.7	4	-1E+10	1	-1E+10	1	-1E+10	1	-1E+10	1	-1E+10	1	-1E+10	1
4901784	170	C	02/29/2020	10:45	-132.753	43.373	0	1995.40	0	1.9370	0	37.1140	8	29.684	0	1970.102	0	57.8	4	17.7	4	-1E+10	1	-1E+10	1	-1E+10	1	-1E+10	1	-1E+10	1	-1E+10	1
4901784	170	C	02/29/2020	10:45	-132.753	43.373	0	2000.30	0	1.9360	0	37.1140	8	29.684	0	1974.917	0	57.7	4	17.7	4	-1E+10	1	-1E+10	1	-1E+10	1	-1E+10	1	-1E+10	1	-1E+10	1
4901784	170	C	02/29/2020	10:45	-132.753	43.373	0	2003.00	0	1.9370	0	37.1130	8	29.683	0	1977.570	0	55.5	4	17.0	4	-1E+10	1	-1E+10	1	-1E+10	1	-1E+10	1	-1E+10	1	-1E+10	1
4901784	170	C	02/29/2020	10:45	-132.753	43.373	0																										
4901784	171	C	03/10/2020	10:49	-132.777	43.363	0	3.20	0	10.7250	0	34.6180	8	26.528	0	3.174	0	264.9	4	97.7	4	-1E+10	1	-1E+10	1	-1E+10	1	-1E+10	1	-1E+10	1	-1E+10	1
4901784	171	C	03/10/2020	10:49	-132.777	43.363	0	4.60	0	10.7240	0	34.6180	8	26.528	0	4.563	0	264.9	4	97.7	4	-1E+10	1	-1E+10	1	-1E+10	1	-1E+10	1	-1E+10	1	-1E+10	1
4901784	171	C	03/10/2020	10:49	-132.777	43.363	0	6.00	0	10.7240	0	34.6190	8	26.529	0	5.952	0	265.0	4	97.7	4	-1E+10	1	-1E+10	1	-1E+10	1	-1E+10	1	-1E+10	1	-1E+10	1
4901784	171	C	03/10/2020	10:49	-132.777	43.363	0	7.50	0	10.7210	0	34.6210	8	26.531	0	7.440	0	265.0	4	97.7	4	-1E+10	1	-1E+10	1	-1E+10	1	-1E+10	1	-1E+10	1	-1E+10	1
4901784	171	C	03/10/2020	10:49	-132.777	43.363	0	9.00	0	10.7140	0	34.6200	8	26.531	0	8.928	0	264.8	4	97.7	4	-1E+10	1	-1E+10	1	-1E+10	1	-1E+10	1	-1E+10	1	-1E+10	1
4901784	171	C	03/10/2020	10:49	-132.777	43.363	0	10.50	0	10.7160	0	34.6200	8	26.531	0	10.416	0	264.9	4	97.7	4	-1E+10	1	-1E+10	1	-1E+10	1	-1E+10	1	-1E+10	1	-1E+10	1
4901784	171	C	03/10/2020	10:49	-132.777	43.363	0	12.10	0	10.7170	0	34.6190	8	26.530	0	12.003	0	264.9	4	97.7	4	-1E+10	1	-1E+10	1	-1E+10	1	-1E+10	1	-1E+10	1	-1E+10	1
4901784	171	C	03/10/2020	10:49	-132.777	43.363	0	13.70	0	10.6960	0	34.6210	8	26.536	0	13.590	0	264.8	4	97.6	4	-1E+10	1	-1E+10	1	-1E+10	1	-1E+10	1	-1E+10	1	-1E+10	1
4901784	171	C	03/10/2020	10:49	-132.777	43.363	0	15.40	0	10.6920	0	34.6160	8	26.532	0	15.277	0	265.0	4	97.7	4	-1E+10	1	-1E+10	1	-1E+10	1	-1E+10	1	-1E+10	1	-1E+10	1
4901784	171	C	03/10/2020	10:49	-132.777	43.363	0	17.00	0	10.6590	0	34.6190	8	26.541	0	16.864	0	264.9	4	97.6	4	-1E+10	1	-1E+10	1	-1E+10	1	-1E+10	1	-1E+10	1	-1E+10	1
4901784	171	C	03/10/2020	10:49	-132.777	43.363	0	18.60	0	10.6560	0	34.6190	8	26.541	0	18.451	0	264.9	4	97.5	4	-1E+10	1	-1E+10	1	-1E+10	1	-1E+10	1	-1E+10	1	-1E+10	1
4901784	171	C	03/10/2020	10:49	-132.777	43.363	0	20.30	0	10.6530	0	34.6200	8	26.543	0	20.137	0	264.9	4	97.6	4	-1E+10	1	-1E+10	1	-1E+10	1	-1E+10	1	-1E+10	1	-1E+10	1
4901784	171	C	03/10/2020	10:49	-132.777	43.363	0	21.90	0	10.6480	0	34.6210	8	26.544	0	21.724	0	264.9	4	97.6	4	-1E+10	1	-1E+10	1	-1E+10	1	-1E+10	1	-1E+10	1	-1E+10	1
4901784	171	C	03/10/2020	10:49	-132.777	43.363	0	23.60	0	10.6470	0	34.6210	8	26.544	0	23.411	0	264.8	4	97.5	4	-1E+10	1	-1E+10	1	-1E+10	1	-1E+10	1	-1E+10	1	-1E+10	1
4901784	171	C	03/10/2020	10:49	-132.777	43.363	0	25.20	0	10.6390	0	34.6230	8	26.547	0	24.998	0	264.6	4	97.4	4	-1E+10	1	-1E+10	1	-1E+10	1	-1E+10	1	-1E+10	1	-1E+10	1
4901784	171	C	03/10/2020	10:49	-132.777	43.363	0	26.90	0	10.6360	0	34.6240	8	26.549	0	26.684	0	264.6	4	97.4	4	-1E+10	1	-1E+10	1	-1E+10	1	-1E+10	1	-1E+10	1	-1E+10	1
4901784	171	C	03/10/2020	10:49	-132.777	43.363	0	28.60	0	10.6360	0	34.6240	8	26.549	0	28.370	0	264.6	4	97.4	4	-1E+10	1	-1E+10	1	-1E+10	1	-1E+10	1	-1E+10	1	-1E+10	1
4901784	171	C	03/10/2020	10:49	-132.777	43.363	0	30.30	0	10.6330	0	34.6250	8	26.550	0	30.056	0	264.1	4	97.2	4	-1E+10	1	-1E+10	1	-1E+10	1	-1E+10	1	-1E+10	1	-1E+10	1
4901784	171	C	03/10/2020	10:49	-132.777	43.363	0	32.00	0	10.6260	0	34.6260	8	26.552	0	31.743	0	264.2	4	97.2	4	-1E+10	1	-1E+10	1	-1E+10	1	-1E+10	1	-1E+10	1	-1E+10	1
4901784	171	C	03/10/2020	10:49	-132.777	43.363	0	33.60	0	10.6240	0	34.6260	8	26.553	0	33.330	0	263.8	4	97.1	4	-1E+10	1	-1E+10	1	-1E+10	1	-1E+10	1	-1E+10	1	-1E+10	1
4901784	171	C	03/10/2020	10:49	-132.777	43.363	0	35.30	0	10.6230	0	34.6270	8	26.554	0	35.016	0	263.7	4	97.1	4	-1E+10	1	-1E+10	1	-1E+10	1	-1E+10	1	-1E+10	1	-1E+10	1
4901784	171	C	03/10/2020	10:49	-132.777	43.363	0	37.00	0	10.6240	0	34.6280	8	26.554	0	36.702	0	263.5	4	97.0	4	-1E+10	1	-1E+10	1	-1E+10	1	-1E+10	1	-1E+10	1	-1E+10	1
4901784	171	C	03/10/2020	10:49	-132.777	43.363	0	38.60	0	10.6240	0	34.6290	8	26.555	0	38.289	0	263.3	4	96.9	4	-1E+10	1	-1E+10	1	-1E+10	1	-1E+10	1	-1E+10	1	-1E+10	1
4901784	171	C	03/10/2020	10:49	-132.777	43.363	0	40.30	0	10.6250	0	34.6290	8	26.555	0	39.975	0	263.2	4	96.9	4	-1E+10	1	-1E+10	1	-1E+10	1	-1E+10	1	-1E+10	1	-1E+10	1
4901784	171	C	03/10/2020	10:49	-132.777	43.363	0	42.00	0	10.6250	0	34.6300	8	26.556	0	41.661	0	263.1	4	96.8	4	-1E+10	1	-1E+10	1	-1E+10	1	-1E+10	1	-1E+10	1	-1E+10	1
4901784	171	C	03/10/2020	10:49	-132.777	43.363	0	43.70	0	10.6230	0	34.6310	8	26.557	0	43.347	0	262.9	4	96.7	4	-1E+10	1	-1E+10	1	-1E+10	1	-1E+10	1	-1E+10	1	-1E+10	1
4901784	171	C	03/10/2020	10:49	-132.777	43.363	0	45.40	0	10.6220	0	34.6310	8	26.557	0	45.033	0	262.6	4	96.7	4	-1E+10	1	-1E+10	1	-1E+10	1	-1E+10	1	-1E+10	1	-1E+10	1
4901784	171	C	03/10/2020	10:49	-132.777	43.363	0	47.10	0	10.6210	0	34.6320	8	26.558	0	46.719	0	262.7	4	96.7	4	-1E+10	1	-1E+10	1	-1E+10	1	-1E+10	1	-1E+10	1	-1E+10	1
4901784	171	C	03/10/2020	10:49	-132.777	43.363	0	48.80	0	10.6220	0	34.6320	8	26.558	0	48.405	0	262.6	4	96.7	4	-1E+10	1	-1E+10	1	-1E+10	1	-1E+10	1	-1E+10	1	-1E+10	1
4901784	171	C	03/10/2020	10:49	-132.777	43.363	0	50.50	0	10.6200	0	34.6320	8	26.558	0	50.092	0	262.4	4	96.6	4	-1E+10	1	-1E+10	1	-1E+10	1	-1E+10	1	-1E+10	1	-1E+10	1
4901784	171	C	03/10/2020	10:49	-132.777	43.363	0	52.20	0	10.6190	0	34.6330	8	26.559	0	51.778	0	262.4	4	96.6	4	-1E+10	1	-1E+10	1	-1E+10	1	-1E+10	1	-1E+10	1	-1E+10	1
4901784	171	C	03/10/2020	10:49	-132.777	43.363	0	53.90	0	10.6150	0	34.6330	8	26.560	0	53.464	0	262.4	4	96.6	4	-1E+10	1	-1E+10	1	-1E+10	1	-1E+10	1	-1E+10	1	-1E+10	1
4901784	171	C	03/10/2020	10:49	-132.777	43.363	0	55.60	0	10.6130	0	34.6340	8	26.561	0	55.150	0	262.6	4	96.6	4	-1E+10	1	-1E+10	1	-1E+10	1	-1E+10	1	-1E+10	1	-1E+10	1
4901784	171	C	03/10/2020	10:49	-132.777	43.363	0	57.30	0	10.6100	0	34.6340	8	26.562	0	56.836	0	262.6	4	96.6	4	-1E+10	1	-1E+10	1	-1E+10	1	-1E+10	1	-1E+10	1	-1E+10	1
4901784	171	C	03/10/2020	10:49	-132.777	43.363	0	59.00	0	10.6100	0	34.6340	8	26.562	0	58.522	0	262.8	4	96.7	4	-1E+10	1	-1E+10	1	-1E+10	1	-1E+10	1	-1E+10	1	-1E+10	1
4901784	171	C	03/10/2020	10:49	-132.777	43.363	0	60.80	0	10.6080	0	34.6350	8	26.563	0	60.307	0	262.7	4	96.6	4	-1E+10	1	-1E+10	1	-1E+10	1	-1E+10	1	-1E+10	1	-1E+10	1
4901784	171	C	03/10/2020	10:49	-132.777	43.363	0	62.50	0	10.6070	0	34.6360	8	26.564	0	61.993	0	262.6	4	96.6	4	-1E+10	1	-1E+10	1	-1E+10	1	-1E+10	1	-1E+10	1	-1E+10	1
4901784	171	C	03/10/2020	10:49	-132.777	43.363	0	64.20	0	10.6070	0	34.6370	8	26.565	0	63.679	0	262.5	4	96.6	4	-1E+10	1	-1E+10	1	-1E+10	1	-1E+10	1	-1E+10	1	-1E+10	1
4901784	171	C	03/10/2020	10:49	-132.777	43.363	0	66.00	0	10.6070	0	34.6370	8	26.565	0	65.464	0	262.3	4	96.5	4	-1E+10	1	-1E+10	1	-1E+10	1	-1E+10	1	-1E+10	1	-1E+10	1
4901784	171	C	03/10/2020	10:49	-132.777	43.363	0	67.70	0	10.6060	0	34.6380	8	26.566	0	67.150	0	262.5	4	96.6	4	-1E+10	1	-1E+10	1	-1E+10	1	-1E+10	1	-1E+10	1	-1E+10	1
4901784	171	C	03/10/2020	10:49	-132.777	43.363	0	69.50	0	10.6060	0	34.6390	8	26.567	0	68.935	0	262.3	4	96.5	4	-1E+10	1	-1E+10	1	-1E+10	1	-1E+10	1	-1E+10	1	-1E+10	1
4901784	171	C	03/10/2020	10:49	-132.777	43.363	0	71.10	0	10.6060	0	34.6390	8	26.567	0	70.521	0	262.2	4	96.5	4	-1E+10	1	-1E+10	1	-1E+10	1	-1E+10	1	-1E+10	1	-1E+10	1
4901784	171	C	03/10/2020	10:49	-132.777	43.363	0	72.90	0	10.6060	0	34.6400	8	26.568	0	72.306	0	262.1	4	96.4	4	-1E+10	1	-1E+10	1	-1E+10	1	-1E+10	1	-1E+10	1	-1E+10	1
4901784	171	C	03/10/2020	10:49	-132.777	43.363	0	74.60	0	10.6060	0	34.6400	8	26.568	0	73.992	0	262.0	4	96.4	4	-1E+10	1	-1E+10	1	-1E+10	1	-1E+10	1	-1E+10	1	-1E+10	1
4901784	171	C	03/10/2020	10:49	-132.777	43.363	0	76.30	0	10.6030	0	34.6410	8	26.569	0	75.678	0	261.8	4	96.3	4	-1E+10	1	-1E+10	1	-1E+10	1	-1E+10	1	-1E+10	1	-1E+10	1
4901784	171	C	03/10/2020	10:49	-132.777	43.363	0	78.00	0	10.6000	0	34.6410	8	26.570	0	77.364	0	261.6	4	96.2	4	-1E+10	1	-1E+10	1	-1E+10	1	-1E+10	1	-1E+10	1	-1E+10	1
4901784	171	C	03/10/2020	10:49	-132.777	43.363	0	79.80	0	10.5980	0	34.6410	8	26.570	0	79.149	0	261.6	4	96.2	4	-1E+10	1	-1E+10	1	-1E+10	1	-1E+10	1	-1E+10	1	-1E+10	1
4901784	171	C	03/10/2020	10:49	-132.777	43.363	0	81.50	0	10.5930	0	34.6410	8	26.571	0	80.835	0	261.4	4	96.1	4	-1E+10	1	-1E+10	1	-1E+10	1	-1E+10	1	-1E+10	1	-1E+10	1
4901784	171	C	03/10/2020	10:49	-132.777	43.363	0	83.30	0	10.5890	0	34.6420	8	26.572	0	82.620	0	261.1	4	96.1	4	-1E+10	1	-1E+10	1	-1E+10	1	-1E+10	1	-1E+10	1	-1E+10	1
4901784	171	C	03/10/2020	10:49	-132.777	43.363	0	85.00	0	10.5910	0	34.6440	8	26.574	0	84.305	0	261.2	4	96.1	4	-1E+10	1	-1E+10	1	-1E+10	1	-1E+10	1	-1E+10	1	-1E+10	1
4901784	171	C	03/10/2020	10:49	-132.777	43.363	0	86.80	0	10.5960	0	34.6450	8	26.574	0	86.090	0	260.7	4	95.9	4	-1E+10	1	-1E+10	1	-1E+10	1	-1E+10	1	-1E+10	1	-1E+10	1
4901784	171	C	03/10/2020	10:49	-132.777	43.363	0	88.50	0	10.5970	0	34.6450	8	26.573	0	87.776	0	260.1	4	95.7	4	-1E+10	1	-1E+10	1	-1E+10	1	-1E+10	1	-1E+10	1	-1E+10	1
4901784	171	C	03/10/2020	10:49	-132.777	43.363	0	90.30	0	10.5970	0	34.6460	8	26.574	0	89.561	0	259.9	4	95.6	4	-1E+10	1	-1E+10	1	-1E+10	1	-1E+10	1	-1E+10	1	-1E+10	1
4901784	171	C	03/10/2020	10:49	-132.777	43.363	0	92.00	0	10.5980	0	34.6460	8	26.574	0	91.247	0	259.1	4	95.3	4	-1E+10	1	-1E+10	1	-1E+10	1	-1E+10	1	-1E+10	1	-1E+10	1
4901784	171	C	03/10/2020	10:49	-132.777	43.363	0	93.70	0	10.6000	0	34.6460	8	26.574	0	92.932	0	258.2	4	95.0	4	-1E+10	1	-1E+10	1	-1E+10	1	-1E+10	1	-1E+10	1	-1E+10	1
4901784	171	C	03/10/2020	10:49	-132.777	43.363	0	95.50	0	10.6010	0	34.6480	8	26.575	0	94.717	0	256.9	4	94.5	4	-1E+10	1	-1E+10	1	-1E+10	1	-1E+10	1	-1E+10	1	-1E+10	1
4901784	171	C	03/10/2020	10:49	-132.777	43.363	0	97.20	0	10.5930	0	34.6470	8	26.576	0	96.403	0	255.6	4	94.0	4	-1E+10	1	-1E+10	1	-1E+10	1	-1E+10	1	-1E+10	1	-1E+10	1
4901784	171	C	03/10/2020	10:49	-132.777	43.363	0	99.00	0	10.5750	0	34.6390	8	26.573	0	98.188	0	254.0	4	93.4	4	-1E+10	1	-1E+10	1	-1E+10	1	-1E+10	1	-1E+10	1	-1E+10	1
4901784	171	C	03/10/2020	10:49	-132.777	43.363	0	102.30	0	10.5390	0	34.6260	8	26.569	0	101.460	0	247.9	4	91.1	4	-1E+10	1	-1E+10	1	-1E+10	1	-1E+10	1	-1E+10	1	-1E+10	1
4901784	171	C	03/10/2020	10:49	-132.777	43.363	0	104.80	0	10.4110	0	34.6260	8	26.592	0	103.939	0	242.1	4	88.7	4	-1E+10	1	-1E+10	1	-1E+10	1	-1E+10	1	-1E+10	1	-1E+10	1
4901784	171	C	03/10/2020	10:49	-132.777	43.363	0	107.20	0	10.1340	0	34.6750	8	26.678	0	106.318	0	236.5	4	86.2	4	-1E+10	1	-1E+10	1	-1E+10	1	-1E+10	1	-1E+10	1	-1E+10	1
4901784	171	C	03/10/2020	10:49	-132.777	43.363	0	110.00	0	9.6080	0	34.7920	8	26.858	0	109.094	0	233.6	4	84.2	4	-1E+10	1	-1E+10	1	-1E+10	1	-1E+10	1	-1E+10	1	-1E+10	1
4901784	171	C	03/10/2020	10:49	-132.777	43.363	0	112.30	0	9.3390	0	34.8560	8	26.953	0	111.375	0	232.2	4	83.3	4	-1E+10	1	-1E+10	1	-1E+10	1	-1E+10	1	-1E+10	1	-1E+10	1
4901784	171	C	03/10/2020	10:49	-132.777	43.363	0	115.40	0	9.0760	0	34.9230	8	27.048	0	114.449	0	230.3	4	82.1	4	-1E+10	1	-1E+10	1	-1E+10	1	-1E+10	1	-1E+10	1	-1E+10	1
4901784	171	C	03/10/2020	10:49	-132.777	43.363	0	117.70	0	9.0070	0	34.9640	8	27.091	0	116.729	0	229.3	4	81.7	4	-1E+10	1	-1E+10	1	-1E+10	1	-1E+10	1	-1E+10	1	-1E+10	1
4901784	171	C	03/10/2020	10:49	-132.777	43.363	0	120.10	0	8.9540	0	34.9840	8	27.115	0	119.108	0	228.1	4	81.2	4	-1E+10	1	-1E+10	1	-1E+10	1	-1E+10	1	-1E+10	1	-1E+10	1
4901784	171	C	03/10/2020	10:49	-132.777	43.363	0	122.40	0	8.8290	0	35.0260	8	27.168	0	121.389	0	227.1	4	80.6	4	-1E+10	1	-1E+10	1	-1E+10	1	-1E+10	1	-1E+10	1	-1E+10	1
4901784	171	C	03/10/2020	10:49	-132.777	43.363	0	124.70	0	8.8200	0	35.0410	8	27.182	0	123.669	0	226.0	4	80.2	4	-1E+10	1	-1E+10	1	-1E+10	1	-1E+10	1	-1E+10	1	-1E+10	1
4901784	171	C	03/10/2020	10:49	-132.777	43.363	0	127.20	0	8.8150	0	35.0450	8	27.186	0	126.148	0	224.3	4	79.6	4	-1E+10	1	-1E+10	1	-1E+10	1	-1E+10	1	-1E+10	1	-1E+10	1
4901784	171	C	03/10/2020	10:49	-132.777	43.363	0	129.80	0	8.6900	0	35.1150	8	27.260	0	128.725	0	222.6	4	78.9	4	-1E+10	1	-1E+10	1	-1E+10	1	-1E+10	1	-1E+10	1	-1E+10	1
4901784	171	C	03/10/2020	10:49	-132.777	43.363	0	132.00	0	8.6010	0	35.1660	8	27.314	0	130.906	0	221.6	4	78.4	4	-1E+10	1	-1E+10	1	-1E+10	1	-1E+10	1	-1E+10	1	-1E+10	1
4901784	171	C	03/10/2020	10:49	-132.777	43.363	0	134.80	0	8.4840	0	35.2100	8	27.367	0	133.682	0	219.7	4	77.5	4	-1E+10	1	-1E+10	1	-1E+10	1	-1E+10	1	-1E+10	1	-1E+10	1
4901784	171	C	03/10/2020	10:49	-132.777	43.363	0	137.80	0	8.3760	0	35.2950	8	27.451	0	136.656	0	218.0	4	76.8	4	-1E+10	1	-1E+10	1	-1E+10	1	-1E+10	1	-1E+10	1	-1E+10	1
4901784	171	C	03/10/2020	10:49	-132.777	43.363	0	140.00	0	8.3460	0	35.3250	8	27.479	0	138.837	0	216.5	4	76.2	4	-1E+10	1	-1E+10	1	-1E+10	1	-1E+10	1	-1E+10	1	-1E+10	1
4901784	171	C	03/10/2020	10:49	-132.777	43.363	0	142.20	0	8.2910	0	35.3820	8	27.532	0	141.018	0	214.9	4	75.6	4	-1E+10	1	-1E+10	1	-1E+10	1	-1E+10	1	-1E+10	1	-1E+10	1
4901784	171	C	03/10/2020	10:49	-132.777	43.363	0	145.10	0	8.2190	0	35.4430	8	27.591	0	143.893	0	213.5	4	75.0	4	-1E+10	1	-1E+10	1	-1E+10	1	-1E+10	1	-1E+10	1	-1E+10	1
4901784	171	C	03/10/2020	10:49	-132.777	43.363	0	147.40	0	8.0950	0	35.5040	8	27.658	0	146.173	0	212.8	4	74.6	4	-1E+10	1	-1E+10	1	-1E+10	1	-1E+10	1	-1E+10	1	-1E+10	1
4901784	171	C	03/10/2020	10:49	-132.777	43.363	0	149.80	0	8.0600	0	35.5270	8	27.681	0	148.553	0	211.8	4	74.2	4	-1E+10	1	-1E+10	1	-1E+10	1	-1E+10	1	-1E+10	1	-1E+10	1
4901784	171	C	03/10/2020	10:49	-132.777	43.363	0	153.00	0	8.0290	0	35.5680	8	27.718	0	151.725	0	210.0	4	73.6	4	-1E+10	1	-1E+10	1	-1E+10	1	-1E+10	1	-1E+10	1	-1E+10	1
4901784	171	C	03/10/2020	10:49	-132.777	43.363	0	155.40	0	7.9410	0	35.6220	8	27.774	0	154.104	0	208.7	4	73.0	4	-1E+10	1	-1E+10	1	-1E+10	1	-1E+10	1	-1E+10	1	-1E+10	1
4901784	171	C	03/10/2020	10:49	-132.777	43.363	0	157.10	0	7.9180	0	35.6640	8	27.811	0	155.789	0	207.6	4	72.6	4	-1E+10	1	-1E+10	1	-1E+10	1	-1E+10	1	-1E+10	1	-1E+10	1
4901784	171	C	03/10/2020	10:49	-132.777	43.363	0	159.60	0	7.8870	0	35.7170	8	27.857	0	158.267	0	206.3	4	72.1	4	-1E+10	1	-1E+10	1	-1E+10	1	-1E+10	1	-1E+10	1	-1E+10	1
4901784	171	C	03/10/2020	10:49	-132.777	43.363	0	162.20	0	7.8720	0	35.7460	8	27.882	0	160.844	0	204.7	4	71.5	4	-1E+10	1	-1E+10	1	-1E+10	1	-1E+10	1	-1E+10	1	-1E+10	1
4901784	171	C	03/10/2020	10:49	-132.777	43.363	0	164.70	0	7.8610	0	35.7750	8	27.907	0	163.323	0	202.7	4	70.8	4	-1E+10	1	-1E+10	1	-1E+10	1	-1E+10	1	-1E+10	1	-1E+10	1
4901784	171	C	03/10/2020	10:49	-132.777	43.363	0	167.10	0	7.9260	0	35.8330	8	27.943	0	165.702	0	199.9	4	70.0	4	-1E+10	1	-1E+10	1	-1E+10	1	-1E+10	1	-1E+10	1	-1E+10	1
4901784	171	C	03/10/2020	10:49	-132.777	43.363	0	169.70	0	7.8840	0	35.8950	8	27.998	0	168.279	0	197.8	4	69.2	4	-1E+10	1	-1E+10	1	-1E+10	1	-1E+10	1	-1E+10	1	-1E+10	1
4901784	171	C	03/10/2020	10:49	-132.777	43.363	0	172.40	0	7.8500	0	35.9360	8	28.035	0	170.955	0	195.8	4	68.5	4	-1E+10	1	-1E+10	1	-1E+10	1	-1E+10	1	-1E+10	1	-1E+10	1
4901784	171	C	03/10/2020	10:49	-132.777	43.363	0	175.10	0	7.8280	0	35.9810	8	28.074	0	173.631	0	193.7	4	67.7	4	-1E+10	1	-1E+10	1	-1E+10	1	-1E+10	1	-1E+10	1	-1E+10	1
4901784	171	C	03/10/2020	10:49	-132.777	43.363	0	177.80	0	7.8280	0	36.0130	8	28.099	0	176.307	0	191.5	4	67.0	4	-1E+10	1	-1E+10	1	-1E+10	1	-1E+10	1	-1E+10	1	-1E+10	1
4901784	171	C	03/10/2020	10:49	-132.777	43.363	0	180.20	0	7.8460	0	36.0560	8	28.130	0	178.686	0	189.1	4	66.2	4	-1E+10	1	-1E+10	1	-1E+10	1	-1E+10	1	-1E+10	1	-1E+10	1
4901784	171	C	03/10/2020	10:49	-132.777	43.363	0	182.80	0	7.8620	0	36.0850	8	28.151	0	181.263	0	186.1	4	65.2	4	-1E+10	1	-1E+10	1	-1E+10	1	-1E+10	1	-1E+10	1	-1E+10	1
4901784	171	C	03/10/2020	10:49	-132.777	43.363	0	185.10	0	7.8840	0	36.1170	8	28.172	0	183.543	0	183.9	4	64.5	4	-1E+10	1	-1E+10	1	-1E+10	1	-1E+10	1	-1E+10	1	-1E+10	1
4901784	171	C	03/10/2020	10:49	-132.777	43.363	0	187.40	0	7.8940	0	36.1330	8	28.184	0	185.823	0	182.3	4	63.9	4	-1E+10	1	-1E+10	1	-1E+10	1	-1E+10	1	-1E+10	1	-1E+10	1
4901784	171	C	03/10/2020	10:49	-132.777	43.363	0	189.90	0	7.9020	0	36.1480	8	28.194	0	188.300	0	180.8	4	63.4	4	-1E+10	1	-1E+10	1	-1E+10	1	-1E+10	1	-1E+10	1	-1E+10	1
4901784	171	C	03/10/2020	10:49	-132.777	43.363	0	192.20	0	7.9110	0	36.1600	8	28.202	0	190.580	0	179.2	4	62.9	4	-1E+10	1	-1E+10	1	-1E+10	1	-1E+10	1	-1E+10	1	-1E+10	1
4901784	171	C	03/10/2020	10:49	-132.777	43.363	0	194.60	0	7.9180	0	36.1720	8	28.211	0	192.959	0	177.3	4	62.2	4	-1E+10	1	-1E+10	1	-1E+10	1	-1E+10	1	-1E+10	1	-1E+10	1
4901784	171	C	03/10/2020	10:49	-132.777	43.363	0	197.10	0	7.9150	0	36.1870	8	28.223	0	195.436	0	174.9	4	61.4	4	-1E+10	1	-1E+10	1	-1E+10	1	-1E+10	1	-1E+10	1	-1E+10	1
4901784	171	C	03/10/2020	10:49	-132.777	43.363	0	200.40	0	7.9030	0	36.2080	8	28.241	0	198.707	0	172.1	4	60.4	4	-1E+10	1	-1E+10	1	-1E+10	1	-1E+10	1	-1E+10	1	-1E+10	1
4901784	171	C	03/10/2020	10:49	-132.777	43.363	0	202.90	0	7.8830	0	36.2220	8	28.255	0	201.185	0	170.1	4	59.7	4	-1E+10	1	-1E+10	1	-1E+10	1	-1E+10	1	-1E+10	1	-1E+10	1
4901784	171	C	03/10/2020	10:49	-132.777	43.363	0	205.40	0	7.8620	0	36.2280	8	28.263	0	203.662	0	168.7	4	59.1	4	-1E+10	1	-1E+10	1	-1E+10	1	-1E+10	1	-1E+10	1	-1E+10	1
4901784	171	C	03/10/2020	10:49	-132.777	43.363	0	207.80	0	7.8240	0	36.2370	8	28.276	0	206.041	0	167.1	4	58.5	4	-1E+10	1	-1E+10	1	-1E+10	1	-1E+10	1	-1E+10	1	-1E+10	1
4901784	171	C	03/10/2020	10:49	-132.777	43.363	0	210.20	0	7.7990	0	36.2410	8	28.283	0	208.419	0	165.9	4	58.1	4	-1E+10	1	-1E+10	1	-1E+10	1	-1E+10	1	-1E+10	1	-1E+10	1
4901784	171	C	03/10/2020	10:49	-132.777	43.363	0	212.70	0	7.7580	0	36.2460	8	28.293	0	210.897	0	164.6	4	57.6	4	-1E+10	1	-1E+10	1	-1E+10	1	-1E+10	1	-1E+10	1	-1E+10	1
4901784	171	C	03/10/2020	10:49	-132.777	43.363	0	215.10	0	7.7010	0	36.2510	8	28.306	0	213.275	0	163.9	4	57.3	4	-1E+10	1	-1E+10	1	-1E+10	1	-1E+10	1	-1E+10	1	-1E+10	1
4901784	171	C	03/10/2020	10:49	-132.777	43.363	0	217.60	0	7.6670	0	36.2550	8	28.314	0	215.753	0	163.1	4	56.9	4	-1E+10	1	-1E+10	1	-1E+10	1	-1E+10	1	-1E+10	1	-1E+10	1
4901784	171	C	03/10/2020	10:49	-132.777	43.363	0	220.10	0	7.6230	0	36.2580	8	28.323	0	218.230	0	162.2	4	56.6	4	-1E+10	1	-1E+10	1	-1E+10	1	-1E+10	1	-1E+10	1	-1E+10	1
4901784	171	C	03/10/2020	10:49	-132.777	43.363	0	222.60	0	7.5770	0	36.2580	8	28.330	0	220.707	0	161.6	4	56.3	4	-1E+10	1	-1E+10	1	-1E+10	1	-1E+10	1	-1E+10	1	-1E+10	1
4901784	171	C	03/10/2020	10:49	-132.777	43.363	0	225.10	0	7.5380	0	36.2600	8	28.337	0	223.185	0	161.1	4	56.1	4	-1E+10	1	-1E+10	1	-1E+10	1	-1E+10	1	-1E+10	1	-1E+10	1
4901784	171	C	03/10/2020	10:49	-132.777	43.363	0	227.70	0	7.5040	0	36.2590	8	28.342	0	225.761	0	160.5	4	55.8	4	-1E+10	1	-1E+10	1	-1E+10	1	-1E+10	1	-1E+10	1	-1E+10	1
4901784	171	C	03/10/2020	10:49	-132.777	43.363	0	230.20	0	7.4810	0	36.2610	8	28.347	0	228.239	0	159.9	4	55.6	4	-1E+10	1	-1E+10	1	-1E+10	1	-1E+10	1	-1E+10	1	-1E+10	1
4901784	171	C	03/10/2020	10:49	-132.777	43.363	0	232.80	0	7.4730	0	36.2600	8	28.347	0	230.815	0	159.2	4	55.4	4	-1E+10	1	-1E+10	1	-1E+10	1	-1E+10	1	-1E+10	1	-1E+10	1
4901784	171	C	03/10/2020	10:49	-132.777	43.363	0	235.30	0	7.4400	0	36.2610	8	28.353	0	233.292	0	158.3	4	55.0	4	-1E+10	1	-1E+10	1	-1E+10	1	-1E+10	1	-1E+10	1	-1E+10	1
4901784	171	C	03/10/2020	10:49	-132.777	43.363	0	237.90	0	7.3950	0	36.2610	8	28.359	0	235.869	0	157.4	4	54.6	4	-1E+10	1	-1E+10	1	-1E+10	1	-1E+10	1	-1E+10	1	-1E+10	1
4901784	171	C	03/10/2020	10:49	-132.777	43.363	0	239.60	0	7.3730	0	36.2610	8	28.363	0	237.553	0	156.8	4	54.4	4	-1E+10	1	-1E+10	1	-1E+10	1	-1E+10	1	-1E+10	1	-1E+10	1
4901784	171	C	03/10/2020	10:49	-132.777	43.363	0	242.30	0	7.3520	0	36.2600	8	28.365	0	240.229	0	155.5	4	53.9	4	-1E+10	1	-1E+10	1	-1E+10	1	-1E+10	1	-1E+10	1	-1E+10	1
4901784	171	C	03/10/2020	10:49	-132.777	43.363	0	244.90	0	7.3140	0	36.2590	8	28.370	0	242.805	0	153.7	4	53.3	4	-1E+10	1	-1E+10	1	-1E+10	1	-1E+10	1	-1E+10	1	-1E+10	1
4901784	171	C	03/10/2020	10:49	-132.777	43.363	0	247.80	0	7.2540	0	36.2620	8	28.381	0	245.678	0	152.4	4	52.7	4	-1E+10	1	-1E+10	1	-1E+10	1	-1E+10	1	-1E+10	1	-1E+10	1
4901784	171	C	03/10/2020	10:49	-132.777	43.363	0	250.50	0	7.2080	0	36.2610	8	28.387	0	248.353	0	151.4	4	52.3	4	-1E+10	1	-1E+10	1	-1E+10	1	-1E+10	1	-1E+10	1	-1E+10	1
4901784	171	C	03/10/2020	10:49	-132.777	43.363	0	252.50	0	7.1580	0	36.2620	8	28.395	0	250.335	0	150.7	4	52.0	4	-1E+10	1	-1E+10	1	-1E+10	1	-1E+10	1	-1E+10	1	-1E+10	1
4901784	171	C	03/10/2020	10:49	-132.777	43.363	0	255.20	0	7.1270	0	36.2610	8	28.398	0	253.010	0	149.8	4	51.7	4	-1E+10	1	-1E+10	1	-1E+10	1	-1E+10	1	-1E+10	1	-1E+10	1
4901784	171	C	03/10/2020	10:49	-132.777	43.363	0	258.00	0	7.0750	0	36.2620	8	28.407	0	255.785	0	149.2	4	51.4	4	-1E+10	1	-1E+10	1	-1E+10	1	-1E+10	1	-1E+10	1	-1E+10	1
4901784	171	C	03/10/2020	10:49	-132.777	43.363	0	259.80	0	7.0480	0	36.2650	8	28.413	0	257.568	0	148.8	4	51.2	4	-1E+10	1	-1E+10	1	-1E+10	1	-1E+10	1	-1E+10	1	-1E+10	1
4901784	171	C	03/10/2020	10:49	-132.777	43.363	0	262.50	0	6.9910	0	36.2630	8	28.419	0	260.243	0	148.1	4	50.9	4	-1E+10	1	-1E+10	1	-1E+10	1	-1E+10	1	-1E+10	1	-1E+10	1
4901784	171	C	03/10/2020	10:49	-132.777	43.363	0	265.30	0	6.9780	0	36.2620	8	28.421	0	263.017	0	147.4	4	50.7	4	-1E+10	1	-1E+10	1	-1E+10	1	-1E+10	1	-1E+10	1	-1E+10	1
4901784	171	C	03/10/2020	10:49	-132.777	43.363	0	267.20	0	6.9450	0	36.2640	8	28.427	0	264.900	0	147.0	4	50.5	4	-1E+10	1	-1E+10	1	-1E+10	1	-1E+10	1	-1E+10	1	-1E+10	1
4901784	171	C	03/10/2020	10:49	-132.777	43.363	0	270.10	0	6.9430	0	36.2630	8	28.426	0	267.773	0	146.1	4	50.2	4	-1E+10	1	-1E+10	1	-1E+10	1	-1E+10	1	-1E+10	1	-1E+10	1
4901784	171	C	03/10/2020	10:49	-132.777	43.363	0	272.90	0	6.9280	0	36.2620	8	28.428	0	270.547	0	145.0	4	49.8	4	-1E+10	1	-1E+10	1	-1E+10	1	-1E+10	1	-1E+10	1	-1E+10	1
4901784	171	C	03/10/2020	10:49	-132.777	43.363	0	274.80	0	6.8870	0	36.2620	8	28.434	0	272.429	0	144.0	4	49.4	4	-1E+10	1	-1E+10	1	-1E+10	1	-1E+10	1	-1E+10	1	-1E+10	1
4901784	171	C	03/10/2020	10:49	-132.777	43.363	0	277.60	0	6.8460	0	36.2640	8	28.441	0	275.203	0	142.6	4	48.9	4	-1E+10	1	-1E+10	1	-1E+10	1	-1E+10	1	-1E+10	1	-1E+10	1
4901784	171	C	03/10/2020	10:49	-132.777	43.363	0	280.40	0	6.8360	0	36.2640	8	28.442	0	277.977	0	141.3	4	48.4	4	-1E+10	1	-1E+10	1	-1E+10	1	-1E+10	1	-1E+10	1	-1E+10	1
4901784	171	C	03/10/2020	10:49	-132.777	43.363	0	282.20	0	6.8150	0	36.2640	8	28.445	0	279.760	0	140.4	4	48.1	4	-1E+10	1	-1E+10	1	-1E+10	1	-1E+10	1	-1E+10	1	-1E+10	1
4901784	171	C	03/10/2020	10:49	-132.777	43.363	0	284.70	0	6.7850	0	36.2630	8	28.449	0	282.237	0	139.3	4	47.7	4	-1E+10	1	-1E+10	1	-1E+10	1	-1E+10	1	-1E+10	1	-1E+10	1
4901784	171	C	03/10/2020	10:49	-132.777	43.363	0	287.40	0	6.7150	0	36.2670	8	28.462	0	284.912	0	138.1	4	47.2	4	-1E+10	1	-1E+10	1	-1E+10	1	-1E+10	1	-1E+10	1	-1E+10	1
4901784	171	C	03/10/2020	10:49	-132.777	43.363	0	289.80	0	6.6730	0	36.2660	8	28.467	0	287.289	0	137.4	4	46.9	4	-1E+10	1	-1E+10	1	-1E+10	1	-1E+10	1	-1E+10	1	-1E+10	1
4901784	171	C	03/10/2020	10:49	-132.777	43.363	0	292.20	0	6.6490	0	36.2680	8	28.472	0	289.667	0	136.7	4	46.6	4	-1E+10	1	-1E+10	1	-1E+10	1	-1E+10	1	-1E+10	1	-1E+10	1
4901784	171	C	03/10/2020	10:49	-132.777	43.363	0	295.40	0	6.6290	0	36.2670	8	28.474	0	292.837	0	135.6	4	46.3	4	-1E+10	1	-1E+10	1	-1E+10	1	-1E+10	1	-1E+10	1	-1E+10	1
4901784	171	C	03/10/2020	10:49	-132.777	43.363	0	297.90	0	6.6200	0	36.2660	8	28.474	0	295.314	0	134.7	4	45.9	4	-1E+10	1	-1E+10	1	-1E+10	1	-1E+10	1	-1E+10	1	-1E+10	1
4901784	171	C	03/10/2020	10:49	-132.777	43.363	0	300.40	0	6.5660	0	36.2660	8	28.482	0	297.790	0	133.5	4	45.5	4	-1E+10	1	-1E+10	1	-1E+10	1	-1E+10	1	-1E+10	1	-1E+10	1
4901784	171	C	03/10/2020	10:49	-132.777	43.363	0	302.80	0	6.5180	0	36.2670	8	28.489	0	300.167	0	132.3	4	45.0	4	-1E+10	1	-1E+10	1	-1E+10	1	-1E+10	1	-1E+10	1	-1E+10	1
4901784	171	C	03/10/2020	10:49	-132.777	43.363	0	305.30	0	6.4970	0	36.2660	8	28.491	0	302.644	0	131.1	4	44.6	4	-1E+10	1	-1E+10	1	-1E+10	1	-1E+10	1	-1E+10	1	-1E+10	1
4901784	171	C	03/10/2020	10:49	-132.777	43.363	0	307.70	0	6.4550	0	36.2670	8	28.498	0	305.021	0	129.8	4	44.1	4	-1E+10	1	-1E+10	1	-1E+10	1	-1E+10	1	-1E+10	1	-1E+10	1
4901784	171	C	03/10/2020	10:49	-132.777	43.363	0	310.10	0	6.4060	0	36.2690	8	28.506	0	307.399	0	129.0	4	43.8	4	-1E+10	1	-1E+10	1	-1E+10	1	-1E+10	1	-1E+10	1	-1E+10	1
4901784	171	C	03/10/2020	10:49	-132.777	43.363	0	312.60	0	6.3930	0	36.2690	8	28.508	0	309.875	0	128.2	4	43.5	4	-1E+10	1	-1E+10	1	-1E+10	1	-1E+10	1	-1E+10	1	-1E+10	1
4901784	171	C	03/10/2020	10:49	-132.777	43.363	0	315.10	0	6.3780	0	36.2680	8	28.509	0	312.351	0	127.2	4	43.1	4	-1E+10	1	-1E+10	1	-1E+10	1	-1E+10	1	-1E+10	1	-1E+10	1
4901784	171	C	03/10/2020	10:49	-132.777	43.363	0	317.50	0	6.3380	0	36.2710	8	28.517	0	314.728	0	126.1	4	42.7	4	-1E+10	1	-1E+10	1	-1E+10	1	-1E+10	1	-1E+10	1	-1E+10	1
4901784	171	C	03/10/2020	10:49	-132.777	43.363	0	319.90	0	6.3180	0	36.2720	8	28.520	0	317.106	0	125.0	4	42.3	4	-1E+10	1	-1E+10	1	-1E+10	1	-1E+10	1	-1E+10	1	-1E+10	1
4901784	171	C	03/10/2020	10:49	-132.777	43.363	0	322.40	0	6.3030	0	36.2730	8	28.523	0	319.582	0	124.1	4	42.0	4	-1E+10	1	-1E+10	1	-1E+10	1	-1E+10	1	-1E+10	1	-1E+10	1
4901784	171	C	03/10/2020	10:49	-132.777	43.363	0	324.90	0	6.2830	0	36.2740	8	28.527	0	322.058	0	123.1	4	41.6	4	-1E+10	1	-1E+10	1	-1E+10	1	-1E+10	1	-1E+10	1	-1E+10	1
4901784	171	C	03/10/2020	10:49	-132.777	43.363	0	327.30	0	6.2630	0	36.2740	8	28.529	0	324.435	0	122.1	4	41.3	4	-1E+10	1	-1E+10	1	-1E+10	1	-1E+10	1	-1E+10	1	-1E+10	1
4901784	171	C	03/10/2020	10:49	-132.777	43.363	0	329.90	0	6.2330	0	36.2760	8	28.535	0	327.010	0	121.3	4	41.0	4	-1E+10	1	-1E+10	1	-1E+10	1	-1E+10	1	-1E+10	1	-1E+10	1
4901784	171	C	03/10/2020	10:49	-132.777	43.363	0	332.50	0	6.2230	0	36.2750	8	28.535	0	329.586	0	120.3	4	40.7	4	-1E+10	1	-1E+10	1	-1E+10	1	-1E+10	1	-1E+10	1	-1E+10	1
4901784	171	C	03/10/2020	10:49	-132.777	43.363	0	335.00	0	6.1850	0	36.2770	8	28.542	0	332.062	0	119.3	4	40.3	4	-1E+10	1	-1E+10	1	-1E+10	1	-1E+10	1	-1E+10	1	-1E+10	1
4901784	171	C	03/10/2020	10:49	-132.777	43.363	0	337.60	0	6.1690	0	36.2770	8	28.544	0	334.637	0	118.3	4	39.9	4	-1E+10	1	-1E+10	1	-1E+10	1	-1E+10	1	-1E+10	1	-1E+10	1
4901784	171	C	03/10/2020	10:49	-132.777	43.363	0	340.10	0	6.1570	0	36.2780	8	28.547	0	337.113	0	117.1	4	39.5	4	-1E+10	1	-1E+10	1	-1E+10	1	-1E+10	1	-1E+10	1	-1E+10	1
4901784	171	C	03/10/2020	10:49	-132.777	43.363	0	342.60	0	6.1450	0	36.2780	8	28.548	0	339.589	0	115.7	4	39.0	4	-1E+10	1	-1E+10	1	-1E+10	1	-1E+10	1	-1E+10	1	-1E+10	1
4901784	171	C	03/10/2020	10:49	-132.777	43.363	0	345.10	0	6.1160	0	36.2770	8	28.551	0	342.065	0	114.3	4	38.5	4	-1E+10	1	-1E+10	1	-1E+10	1	-1E+10	1	-1E+10	1	-1E+10	1
4901784	171	C	03/10/2020	10:49	-132.777	43.363	0	347.60	0	6.0580	0	36.2790	8	28.561	0	344.541	0	113.0	4	38.0	4	-1E+10	1	-1E+10	1	-1E+10	1	-1E+10	1	-1E+10	1	-1E+10	1
4901784	171	C	03/10/2020	10:49	-132.777	43.363	0	350.10	0	6.0190	0	36.2770	8	28.564	0	347.017	0	111.7	4	37.6	4	-1E+10	1	-1E+10	1	-1E+10	1	-1E+10	1	-1E+10	1	-1E+10	1
4901784	171	C	03/10/2020	10:49	-132.777	43.363	0	352.50	0	5.9680	0	36.2780	8	28.572	0	349.393	0	110.4	4	37.1	4	-1E+10	1	-1E+10	1	-1E+10	1	-1E+10	1	-1E+10	1	-1E+10	1
4901784	171	C	03/10/2020	10:49	-132.777	43.363	0	355.00	0	5.9380	0	36.2800	8	28.577	0	351.869	0	109.1	4	36.6	4	-1E+10	1	-1E+10	1	-1E+10	1	-1E+10	1	-1E+10	1	-1E+10	1
4901784	171	C	03/10/2020	10:49	-132.777	43.363	0	357.40	0	5.9130	0	36.2800	8	28.581	0	354.246	0	107.9	4	36.2	4	-1E+10	1	-1E+10	1	-1E+10	1	-1E+10	1	-1E+10	1	-1E+10	1
4901784	171	C	03/10/2020	10:49	-132.777	43.363	0	360.00	0	5.8820	0	36.2810	8	28.585	0	356.821	0	106.5	4	35.7	4	-1E+10	1	-1E+10	1	-1E+10	1	-1E+10	1	-1E+10	1	-1E+10	1
4901784	171	C	03/10/2020	10:49	-132.777	43.363	0	362.40	0	5.8340	0	36.2860	8	28.596	0	359.198	0	105.5	4	35.3	4	-1E+10	1	-1E+10	1	-1E+10	1	-1E+10	1	-1E+10	1	-1E+10	1
4901784	171	C	03/10/2020	10:49	-132.777	43.363	0	364.90	0	5.8200	0	36.2850	8	28.597	0	361.673	0	104.4	4	34.9	4	-1E+10	1	-1E+10	1	-1E+10	1	-1E+10	1	-1E+10	1	-1E+10	1
4901784	171	C	03/10/2020	10:49	-132.777	43.363	0	367.50	0	5.8070	0	36.2840	8	28.597	0	364.248	0	103.1	4	34.5	4	-1E+10	1	-1E+10	1	-1E+10	1	-1E+10	1	-1E+10	1	-1E+10	1
4901784	171	C	03/10/2020	10:49	-132.777	43.363	0	370.00	0	5.7620	0	36.2880	8	28.606	0	366.724	0	101.8	4	34.0	4	-1E+10	1	-1E+10	1	-1E+10	1	-1E+10	1	-1E+10	1	-1E+10	1
4901784	171	C	03/10/2020	10:49	-132.777	43.363	0	372.40	0	5.7320	0	36.2910	8	28.613	0	369.100	0	100.5	4	33.6	4	-1E+10	1	-1E+10	1	-1E+10	1	-1E+10	1	-1E+10	1	-1E+10	1
4901784	171	C	03/10/2020	10:49	-132.777	43.363	0	374.90	0	5.6910	0	36.2910	8	28.618	0	371.576	0	99.4	4	33.2	4	-1E+10	1	-1E+10	1	-1E+10	1	-1E+10	1	-1E+10	1	-1E+10	1
4901784	171	C	03/10/2020	10:49	-132.777	43.363	0	377.40	0	5.6630	0	36.2920	8	28.622	0	374.052	0	98.3	4	32.8	4	-1E+10	1	-1E+10	1	-1E+10	1	-1E+10	1	-1E+10	1	-1E+10	1
4901784	171	C	03/10/2020	10:49	-132.777	43.363	0	379.90	0	5.6270	0	36.2940	8	28.629	0	376.527	0	97.4	4	32.5	4	-1E+10	1	-1E+10	1	-1E+10	1	-1E+10	1	-1E+10	1	-1E+10	1
4901784	171	C	03/10/2020	10:49	-132.777	43.363	0	382.40	0	5.6130	0	36.2930	8	28.630	0	379.003	0	96.4	4	32.1	4	-1E+10	1	-1E+10	1	-1E+10	1	-1E+10	1	-1E+10	1	-1E+10	1
4901784	171	C	03/10/2020	10:49	-132.777	43.363	0	384.90	0	5.5800	0	36.2940	8	28.635	0	381.478	0	95.1	4	31.7	4	-1E+10	1	-1E+10	1	-1E+10	1	-1E+10	1	-1E+10	1	-1E+10	1
4901784	171	C	03/10/2020	10:49	-132.777	43.363	0	387.40	0	5.5480	0	36.2960	8	28.640	0	383.954	0	93.8	4	31.2	4	-1E+10	1	-1E+10	1	-1E+10	1	-1E+10	1	-1E+10	1	-1E+10	1
4901784	171	C	03/10/2020	10:49	-132.777	43.363	0	389.90	0	5.5130	0	36.2950	8	28.644	0	386.429	0	92.7	4	30.8	4	-1E+10	1	-1E+10	1	-1E+10	1	-1E+10	1	-1E+10	1	-1E+10	1
4901784	171	C	03/10/2020	10:49	-132.777	43.363	0	392.50	0	5.4760	0	36.2960	8	28.649	0	389.003	0	91.8	4	30.5	4	-1E+10	1	-1E+10	1	-1E+10	1	-1E+10	1	-1E+10	1	-1E+10	1
4901784	171	C	03/10/2020	10:49	-132.777	43.363	0	395.00	0	5.4430	0	36.2980	8	28.655	0	391.479	0	90.7	4	30.1	4	-1E+10	1	-1E+10	1	-1E+10	1	-1E+10	1	-1E+10	1	-1E+10	1
4901784	171	C	03/10/2020	10:49	-132.777	43.363	0	397.50	0	5.4170	0	36.2970	8	28.657	0	393.954	0	89.2	4	29.6	4	-1E+10	1	-1E+10	1	-1E+10	1	-1E+10	1	-1E+10	1	-1E+10	1
4901784	171	C	03/10/2020	10:49	-132.777	43.363	0	400.00	0	5.3870	0	36.2970	8	28.661	0	396.429	0	87.6	4	29.0	4	-1E+10	1	-1E+10	1	-1E+10	1	-1E+10	1	-1E+10	1	-1E+10	1
4901784	171	C	03/10/2020	10:49	-132.777	43.363	0	402.60	0	5.3320	0	36.3000	8	28.670	0	399.004	0	86.1	4	28.5	4	-1E+10	1	-1E+10	1	-1E+10	1	-1E+10	1	-1E+10	1	-1E+10	1
4901784	171	C	03/10/2020	10:49	-132.777	43.363	0	405.10	0	5.3040	0	36.3020	8	28.675	0	401.479	0	85.1	4	28.1	4	-1E+10	1	-1E+10	1	-1E+10	1	-1E+10	1	-1E+10	1	-1E+10	1
4901784	171	C	03/10/2020	10:49	-132.777	43.363	0	407.60	0	5.2650	0	36.3040	8	28.682	0	403.954	0	84.3	4	27.9	4	-1E+10	1	-1E+10	1	-1E+10	1	-1E+10	1	-1E+10	1	-1E+10	1
4901784	171	C	03/10/2020	10:49	-132.777	43.363	0	410.10	0	5.2440	0	36.3050	8	28.685	0	406.429	0	83.7	4	27.6	4	-1E+10	1	-1E+10	1	-1E+10	1	-1E+10	1	-1E+10	1	-1E+10	1
4901784	171	C	03/10/2020	10:49	-132.777	43.363	0	412.50	0	5.2210	0	36.3070	8	28.690	0	408.806	0	83.0	4	27.4	4	-1E+10	1	-1E+10	1	-1E+10	1	-1E+10	1	-1E+10	1	-1E+10	1
4901784	171	C	03/10/2020	10:49	-132.777	43.363	0	415.00	0	5.1940	0	36.3090	8	28.695	0	411.281	0	82.8	4	27.3	4	-1E+10	1	-1E+10	1	-1E+10	1	-1E+10	1	-1E+10	1	-1E+10	1
4901784	171	C	03/10/2020	10:49	-132.777	43.363	0	417.50	0	5.1740	0	36.3090	8	28.697	0	413.756	0	82.8	4	27.3	4	-1E+10	1	-1E+10	1	-1E+10	1	-1E+10	1	-1E+10	1	-1E+10	1
4901784	171	C	03/10/2020	10:49	-132.777	43.363	0	420.00	0	5.1600	0	36.3100	8	28.700	0	416.231	0	82.8	4	27.3	4	-1E+10	1	-1E+10	1	-1E+10	1	-1E+10	1	-1E+10	1	-1E+10	1
4901784	171	C	03/10/2020	10:49	-132.777	43.363	0	422.50	0	5.1410	0	36.3110	8	28.703	0	418.706	0	82.5	4	27.2	4	-1E+10	1	-1E+10	1	-1E+10	1	-1E+10	1	-1E+10	1	-1E+10	1
4901784	171	C	03/10/2020	10:49	-132.777	43.363	0	424.90	0	5.1110	0	36.3120	8	28.707	0	421.082	0	82.3	4	27.1	4	-1E+10	1	-1E+10	1	-1E+10	1	-1E+10	1	-1E+10	1	-1E+10	1
4901784	171	C	03/10/2020	10:49	-132.777	43.363	0	427.40	0	5.0890	0	36.3140	8	28.711	0	423.557	0	81.6	4	26.9	4	-1E+10	1	-1E+10	1	-1E+10	1	-1E+10	1	-1E+10	1	-1E+10	1
4901784	171	C	03/10/2020	10:49	-132.777	43.363	0	429.90	0	5.0800	0	36.3140	8	28.712	0	426.032	0	80.4	4	26.5	4	-1E+10	1	-1E+10	1	-1E+10	1	-1E+10	1	-1E+10	1	-1E+10	1
4901784	171	C	03/10/2020	10:49	-132.777	43.363	0	432.40	0	5.0680	0	36.3140	8	28.714	0	428.507	0	78.9	4	26.0	4	-1E+10	1	-1E+10	1	-1E+10	1	-1E+10	1	-1E+10	1	-1E+10	1
4901784	171	C	03/10/2020	10:49	-132.777	43.363	0	434.90	0	5.0520	0	36.3150	8	28.717	0	430.982	0	76.7	4	25.2	4	-1E+10	1	-1E+10	1	-1E+10	1	-1E+10	1	-1E+10	1	-1E+10	1
4901784	171	C	03/10/2020	10:49	-132.777	43.363	0	437.50	0	5.0220	0	36.3190	8	28.723	0	433.556	0	74.7	4	24.5	4	-1E+10	1	-1E+10	1	-1E+10	1	-1E+10	1	-1E+10	1	-1E+10	1
4901784	171	C	03/10/2020	10:49	-132.777	43.363	0	440.10	0	4.9850	0	36.3240	8	28.732	0	436.129	0	73.3	4	24.1	4	-1E+10	1	-1E+10	1	-1E+10	1	-1E+10	1	-1E+10	1	-1E+10	1
4901784	171	C	03/10/2020	10:49	-132.777	43.363	0	442.60	0	4.9350	0	36.3290	8	28.742	0	438.604	0	72.2	4	23.7	4	-1E+10	1	-1E+10	1	-1E+10	1	-1E+10	1	-1E+10	1	-1E+10	1
4901784	171	C	03/10/2020	10:49	-132.777	43.363	0	445.10	0	4.9160	0	36.3310	8	28.746	0	441.079	0	70.8	4	23.2	4	-1E+10	1	-1E+10	1	-1E+10	1	-1E+10	1	-1E+10	1	-1E+10	1
4901784	171	C	03/10/2020	10:49	-132.777	43.363	0	447.60	0	4.8830	0	36.3340	8	28.752	0	443.554	0	69.4	4	22.7	4	-1E+10	1	-1E+10	1	-1E+10	1	-1E+10	1	-1E+10	1	-1E+10	1
4901784	171	C	03/10/2020	10:49	-132.777	43.363	0	450.10	0	4.8620	0	36.3390	8	28.758	0	446.028	0	68.0	4	22.3	4	-1E+10	1	-1E+10	1	-1E+10	1	-1E+10	1	-1E+10	1	-1E+10	1
4901784	171	C	03/10/2020	10:49	-132.777	43.363	0	452.60	0	4.8450	0	36.3480	8	28.768	0	448.503	0	67.0	4	21.9	4	-1E+10	1	-1E+10	1	-1E+10	1	-1E+10	1	-1E+10	1	-1E+10	1
4901784	171	C	03/10/2020	10:49	-132.777	43.363	0	455.10	0	4.8370	0	36.3490	8	28.769	0	450.978	0	66.3	4	21.7	4	-1E+10	1	-1E+10	1	-1E+10	1	-1E+10	1	-1E+10	1	-1E+10	1
4901784	171	C	03/10/2020	10:49	-132.777	43.363	0	457.50	0	4.8340	0	36.3500	8	28.771	0	453.353	0	65.6	4	21.5	4	-1E+10	1	-1E+10	1	-1E+10	1	-1E+10	1	-1E+10	1	-1E+10	1
4901784	171	C	03/10/2020	10:49	-132.777	43.363	0	460.10	0	4.8250	0	36.3540	8	28.775	0	455.927	0	64.6	4	21.1	4	-1E+10	1	-1E+10	1	-1E+10	1	-1E+10	1	-1E+10	1	-1E+10	1
4901784	171	C	03/10/2020	10:49	-132.777	43.363	0	462.60	0	4.8140	0	36.3560	8	28.778	0	458.402	0	63.6	4	20.8	4	-1E+10	1	-1E+10	1	-1E+10	1	-1E+10	1	-1E+10	1	-1E+10	1
4901784	171	C	03/10/2020	10:49	-132.777	43.363	0	465.20	0	4.8120	0	36.3640	8	28.784	0	460.975	0	62.8	4	20.5	4	-1E+10	1	-1E+10	1	-1E+10	1	-1E+10	1	-1E+10	1	-1E+10	1
4901784	171	C	03/10/2020	10:49	-132.777	43.363	0	467.80	0	4.8100	0	36.3640	8	28.785	0	463.549	0	62.2	4	20.4	4	-1E+10	1	-1E+10	1	-1E+10	1	-1E+10	1	-1E+10	1	-1E+10	1
4901784	171	C	03/10/2020	10:49	-132.777	43.363	0	469.60	0	4.8060	0	36.3650	8	28.786	0	465.330	0	61.7	4	20.2	4	-1E+10	1	-1E+10	1	-1E+10	1	-1E+10	1	-1E+10	1	-1E+10	1
4901784	171	C	03/10/2020	10:49	-132.777	43.363	0	472.20	0	4.8010	0	36.3690	8	28.790	0	467.904	0	61.0	4	19.9	4	-1E+10	1	-1E+10	1	-1E+10	1	-1E+10	1	-1E+10	1	-1E+10	1
4901784	171	C	03/10/2020	10:49	-132.777	43.363	0	474.90	0	4.7960	0	36.3720	8	28.793	0	470.576	0	60.3	4	19.7	4	-1E+10	1	-1E+10	1	-1E+10	1	-1E+10	1	-1E+10	1	-1E+10	1
4901784	171	C	03/10/2020	10:49	-132.777	43.363	0	477.50	0	4.7810	0	36.3730	8	28.795	0	473.149	0	59.7	4	19.5	4	-1E+10	1	-1E+10	1	-1E+10	1	-1E+10	1	-1E+10	1	-1E+10	1
4901784	171	C	03/10/2020	10:49	-132.777	43.363	0	480.10	0	4.7800	0	36.3740	8	28.796	0	475.723	0	59.1	4	19.3	4	-1E+10	1	-1E+10	1	-1E+10	1	-1E+10	1	-1E+10	1	-1E+10	1
4901784	171	C	03/10/2020	10:49	-132.777	43.363	0	482.70	0	4.7660	0	36.3790	8	28.802	0	478.296	0	58.3	4	19.0	4	-1E+10	1	-1E+10	1	-1E+10	1	-1E+10	1	-1E+10	1	-1E+10	1
4901784	171	C	03/10/2020	10:49	-132.777	43.363	0	485.40	0	4.7620	0	36.3800	8	28.803	0	480.968	0	57.4	4	18.8	4	-1E+10	1	-1E+10	1	-1E+10	1	-1E+10	1	-1E+10	1	-1E+10	1
4901784	171	C	03/10/2020	10:49	-132.777	43.363	0	487.10	0	4.7580	0	36.3820	8	28.805	0	482.651	0	56.9	4	18.6	4	-1E+10	1	-1E+10	1	-1E+10	1	-1E+10	1	-1E+10	1	-1E+10	1
4901784	171	C	03/10/2020	10:49	-132.777	43.363	0	489.80	0	4.7500	0	36.3840	8	28.808	0	485.323	0	55.8	4	18.2	4	-1E+10	1	-1E+10	1	-1E+10	1	-1E+10	1	-1E+10	1	-1E+10	1
4901784	171	C	03/10/2020	10:49	-132.777	43.363	0	492.50	0	4.7470	0	36.3880	8	28.811	0	487.995	0	54.7	4	17.9	4	-1E+10	1	-1E+10	1	-1E+10	1	-1E+10	1	-1E+10	1	-1E+10	1
4901784	171	C	03/10/2020	10:49	-132.777	43.363	0	495.20	0	4.7230	0	36.3920	8	28.817	0	490.667	0	53.7	4	17.5	4	-1E+10	1	-1E+10	1	-1E+10	1	-1E+10	1	-1E+10	1	-1E+10	1
4901784	171	C	03/10/2020	10:49	-132.777	43.363	0	497.80	0	4.7170	0	36.3950	8	28.820	0	493.240	0	52.7	4	17.2	4	-1E+10	1	-1E+10	1	-1E+10	1	-1E+10	1	-1E+10	1	-1E+10	1
4901784	171	C	03/10/2020	10:49	-132.777	43.363	0	499.50	0	4.7190	0	36.4000	8	28.824	0	494.923	0	52.0	4	17.0	4	-1E+10	1	-1E+10	1	-1E+10	1	-1E+10	1	-1E+10	1	-1E+10	1
4901784	171	C	03/10/2020	10:49	-132.777	43.363	0	504.90	0	4.7020	0	36.4050	8	28.830	0	500.267	0	50.3	4	16.4	4	-1E+10	1	-1E+10	1	-1E+10	1	-1E+10	1	-1E+10	1	-1E+10	1
4901784	171	C	03/10/2020	10:49	-132.777	43.363	0	510.30	0	4.6840	0	36.4140	8	28.839	0	505.611	0	48.7	4	15.9	4	-1E+10	1	-1E+10	1	-1E+10	1	-1E+10	1	-1E+10	1	-1E+10	1
4901784	171	C	03/10/2020	10:49	-132.777	43.363	0	514.80	0	4.6610	0	36.4180	8	28.845	0	510.064	0	47.9	4	15.6	4	-1E+10	1	-1E+10	1	-1E+10	1	-1E+10	1	-1E+10	1	-1E+10	1
4901784	171	C	03/10/2020	10:49	-132.777	43.363	0	519.40	0	4.6610	0	36.4200	8	28.847	0	514.616	0	46.9	4	15.3	4	-1E+10	1	-1E+10	1	-1E+10	1	-1E+10	1	-1E+10	1	-1E+10	1
4901784	171	C	03/10/2020	10:49	-132.777	43.363	0	524.90	0	4.6660	0	36.4250	8	28.850	0	520.058	0	45.2	4	14.7	4	-1E+10	1	-1E+10	1	-1E+10	1	-1E+10	1	-1E+10	1	-1E+10	1
4901784	171	C	03/10/2020	10:49	-132.777	43.363	0	530.40	0	4.6520	0	36.4280	8	28.854	0	525.501	0	43.1	4	14.0	4	-1E+10	1	-1E+10	1	-1E+10	1	-1E+10	1	-1E+10	1	-1E+10	1
4901784	171	C	03/10/2020	10:49	-132.777	43.363	0	535.00	0	4.6230	0	36.4350	8	28.863	0	530.052	0	41.2	4	13.4	4	-1E+10	1	-1E+10	1	-1E+10	1	-1E+10	1	-1E+10	1	-1E+10	1
4901784	171	C	03/10/2020	10:49	-132.777	43.363	0	539.70	0	4.6380	0	36.4450	8	28.870	0	534.703	0	39.1	4	12.7	4	-1E+10	1	-1E+10	1	-1E+10	1	-1E+10	1	-1E+10	1	-1E+10	1
4901784	171	C	03/10/2020	10:49	-132.777	43.363	0	545.30	0	4.6220	0	36.4540	8	28.879	0	540.244	0	37.5	4	12.2	4	-1E+10	1	-1E+10	1	-1E+10	1	-1E+10	1	-1E+10	1	-1E+10	1
4901784	171	C	03/10/2020	10:49	-132.777	43.363	0	550.80	0	4.6090	0	36.4610	8	28.886	0	545.685	0	36.1	4	11.8	4	-1E+10	1	-1E+10	1	-1E+10	1	-1E+10	1	-1E+10	1	-1E+10	1
4901784	171	C	03/10/2020	10:49	-132.777	43.363	0	555.20	0	4.6090	0	36.4660	8	28.890	0	550.039	0	35.0	4	11.4	4	-1E+10	1	-1E+10	1	-1E+10	1	-1E+10	1	-1E+10	1	-1E+10	1
4901784	171	C	03/10/2020	10:49	-132.777	43.363	0	560.00	0	4.6030	0	36.4740	8	28.897	0	554.788	0	33.7	4	11.0	4	-1E+10	1	-1E+10	1	-1E+10	1	-1E+10	1	-1E+10	1	-1E+10	1
4901784	171	C	03/10/2020	10:49	-132.777	43.363	0	564.90	0	4.5880	0	36.4780	8	28.902	0	559.635	0	32.8	4	10.7	4	-1E+10	1	-1E+10	1	-1E+10	1	-1E+10	1	-1E+10	1	-1E+10	1
4901784	171	C	03/10/2020	10:49	-132.777	43.363	0	570.00	0	4.5690	0	36.4840	8	28.909	0	564.681	0	31.8	4	10.3	4	-1E+10	1	-1E+10	1	-1E+10	1	-1E+10	1	-1E+10	1	-1E+10	1
4901784	171	C	03/10/2020	10:49	-132.777	43.363	0	575.00	0	4.5570	0	36.4880	8	28.913	0	569.627	0	30.7	4	10.0	4	-1E+10	1	-1E+10	1	-1E+10	1	-1E+10	1	-1E+10	1	-1E+10	1
4901784	171	C	03/10/2020	10:49	-132.777	43.363	0	580.10	0	4.5440	0	36.4950	8	28.921	0	574.673	0	29.6	4	9.6	4	-1E+10	1	-1E+10	1	-1E+10	1	-1E+10	1	-1E+10	1	-1E+10	1
4901784	171	C	03/10/2020	10:49	-132.777	43.363	0	585.30	0	4.5130	0	36.5020	8	28.930	0	579.817	0	28.8	4	9.4	4	-1E+10	1	-1E+10	1	-1E+10	1	-1E+10	1	-1E+10	1	-1E+10	1
4901784	171	C	03/10/2020	10:49	-132.777	43.363	0	590.50	0	4.5030	0	36.5060	8	28.934	0	584.961	0	28.3	4	9.2	4	-1E+10	1	-1E+10	1	-1E+10	1	-1E+10	1	-1E+10	1	-1E+10	1
4901784	171	C	03/10/2020	10:49	-132.777	43.363	0	594.90	0	4.5060	0	36.5060	8	28.934	0	589.313	0	27.7	4	9.0	4	-1E+10	1	-1E+10	1	-1E+10	1	-1E+10	1	-1E+10	1	-1E+10	1
4901784	171	C	03/10/2020	10:49	-132.777	43.363	0	599.40	0	4.4740	0	36.5120	8	28.942	0	593.765	0	27.1	4	8.8	4	-1E+10	1	-1E+10	1	-1E+10	1	-1E+10	1	-1E+10	1	-1E+10	1
4901784	171	C	03/10/2020	10:49	-132.777	43.363	0	604.70	0	4.4580	0	36.5160	8	28.947	0	599.007	0	26.4	4	8.6	4	-1E+10	1	-1E+10	1	-1E+10	1	-1E+10	1	-1E+10	1	-1E+10	1
4901784	171	C	03/10/2020	10:49	-132.777	43.363	0	610.10	0	4.4410	0	36.5200	8	28.952	0	604.349	0	25.6	4	8.3	4	-1E+10	1	-1E+10	1	-1E+10	1	-1E+10	1	-1E+10	1	-1E+10	1
4901784	171	C	03/10/2020	10:49	-132.777	43.363	0	615.60	0	4.4310	0	36.5270	8	28.959	0	609.789	0	24.3	4	7.9	4	-1E+10	1	-1E+10	1	-1E+10	1	-1E+10	1	-1E+10	1	-1E+10	1
4901784	171	C	03/10/2020	10:49	-132.777	43.363	0	620.20	0	4.4220	0	36.5380	8	28.969	0	614.338	0	23.4	4	7.6	4	-1E+10	1	-1E+10	1	-1E+10	1	-1E+10	1	-1E+10	1	-1E+10	1
4901784	171	C	03/10/2020	10:49	-132.777	43.363	0	624.90	0	4.4130	0	36.5400	8	28.972	0	618.987	0	22.9	4	7.4	4	-1E+10	1	-1E+10	1	-1E+10	1	-1E+10	1	-1E+10	1	-1E+10	1
4901784	171	C	03/10/2020	10:49	-132.777	43.363	0	630.50	0	4.3890	0	36.5440	8	28.978	0	624.526	0	22.1	4	7.2	4	-1E+10	1	-1E+10	1	-1E+10	1	-1E+10	1	-1E+10	1	-1E+10	1
4901784	171	C	03/10/2020	10:49	-132.777	43.363	0	635.10	0	4.3760	0	36.5510	8	28.985	0	629.075	0	21.2	4	6.9	4	-1E+10	1	-1E+10	1	-1E+10	1	-1E+10	1	-1E+10	1	-1E+10	1
4901784	171	C	03/10/2020	10:49	-132.777	43.363	0	639.80	0	4.3730	0	36.5610	8	28.993	0	633.723	0	20.4	4	6.6	4	-1E+10	1	-1E+10	1	-1E+10	1	-1E+10	1	-1E+10	1	-1E+10	1
4901784	171	C	03/10/2020	10:49	-132.777	43.363	0	644.60	0	4.3730	0	36.5670	8	28.998	0	638.470	0	19.8	4	6.4	4	-1E+10	1	-1E+10	1	-1E+10	1	-1E+10	1	-1E+10	1	-1E+10	1
4901784	171	C	03/10/2020	10:49	-132.777	43.363	0	649.50	0	4.3690	0	36.5710	8	29.002	0	643.316	0	19.2	4	6.2	4	-1E+10	1	-1E+10	1	-1E+10	1	-1E+10	1	-1E+10	1	-1E+10	1
4901784	171	C	03/10/2020	10:49	-132.777	43.363	0	655.20	0	4.3590	0	36.5790	8	29.009	0	648.953	0	18.6	4	6.0	4	-1E+10	1	-1E+10	1	-1E+10	1	-1E+10	1	-1E+10	1	-1E+10	1
4901784	171	C	03/10/2020	10:49	-132.777	43.363	0	660.00	0	4.3520	0	36.5840	8	29.014	0	653.700	0	18.2	4	5.9	4	-1E+10	1	-1E+10	1	-1E+10	1	-1E+10	1	-1E+10	1	-1E+10	1
4901784	171	C	03/10/2020	10:49	-132.777	43.363	0	664.80	0	4.3400	0	36.5890	8	29.019	0	658.446	0	17.9	4	5.8	4	-1E+10	1	-1E+10	1	-1E+10	1	-1E+10	1	-1E+10	1	-1E+10	1
4901784	171	C	03/10/2020	10:49	-132.777	43.363	0	670.30	0	4.3330	0	36.5930	8	29.023	0	663.885	0	17.6	4	5.7	4	-1E+10	1	-1E+10	1	-1E+10	1	-1E+10	1	-1E+10	1	-1E+10	1
4901784	171	C	03/10/2020	10:49	-132.777	43.363	0	674.60	0	4.3270	0	36.5960	8	29.026	0	668.137	0	17.4	4	5.6	4	-1E+10	1	-1E+10	1	-1E+10	1	-1E+10	1	-1E+10	1	-1E+10	1
4901784	171	C	03/10/2020	10:49	-132.777	43.363	0	679.40	0	4.3090	0	36.5970	8	29.029	0	672.883	0	17.2	4	5.6	4	-1E+10	1	-1E+10	1	-1E+10	1	-1E+10	1	-1E+10	1	-1E+10	1
4901784	171	C	03/10/2020	10:49	-132.777	43.363	0	685.00	0	4.2760	0	36.6010	8	29.036	0	678.421	0	16.9	4	5.5	4	-1E+10	1	-1E+10	1	-1E+10	1	-1E+10	1	-1E+10	1	-1E+10	1
4901784	171	C	03/10/2020	10:49	-132.777	43.363	0	690.70	0	4.2610	0	36.6050	8	29.041	0	684.056	0	16.5	4	5.3	4	-1E+10	1	-1E+10	1	-1E+10	1	-1E+10	1	-1E+10	1	-1E+10	1
4901784	171	C	03/10/2020	10:49	-132.777	43.363	0	695.60	0	4.2560	0	36.6090	8	29.045	0	688.901	0	16.2	4	5.2	4	-1E+10	1	-1E+10	1	-1E+10	1	-1E+10	1	-1E+10	1	-1E+10	1
4901784	171	C	03/10/2020	10:49	-132.777	43.363	0	700.50	0	4.2400	0	36.6140	8	29.051	0	693.746	0	15.9	4	5.1	4	-1E+10	1	-1E+10	1	-1E+10	1	-1E+10	1	-1E+10	1	-1E+10	1
4901784	171	C	03/10/2020	10:49	-132.777	43.363	0	705.40	0	4.2260	0	36.6170	8	29.055	0	698.590	0	15.7	4	5.1	4	-1E+10	1	-1E+10	1	-1E+10	1	-1E+10	1	-1E+10	1	-1E+10	1
4901784	171	C	03/10/2020	10:49	-132.777	43.363	0	710.30	0	4.2150	0	36.6190	8	29.057	0	703.435	0	15.5	4	5.0	4	-1E+10	1	-1E+10	1	-1E+10	1	-1E+10	1	-1E+10	1	-1E+10	1
4901784	171	C	03/10/2020	10:49	-132.777	43.363	0	715.20	0	4.2020	0	36.6220	8	29.061	0	708.279	0	15.2	4	4.9	4	-1E+10	1	-1E+10	1	-1E+10	1	-1E+10	1	-1E+10	1	-1E+10	1
4901784	171	C	03/10/2020	10:49	-132.777	43.363	0	720.20	0	4.1850	0	36.6280	8	29.068	0	713.222	0	14.8	4	4.8	4	-1E+10	1	-1E+10	1	-1E+10	1	-1E+10	1	-1E+10	1	-1E+10	1
4901784	171	C	03/10/2020	10:49	-132.777	43.363	0	725.20	0	4.1650	0	36.6360	8	29.077	0	718.165	0	14.3	4	4.6	4	-1E+10	1	-1E+10	1	-1E+10	1	-1E+10	1	-1E+10	1	-1E+10	1
4901784	171	C	03/10/2020	10:49	-132.777	43.363	0	730.30	0	4.1420	0	36.6420	8	29.084	0	723.207	0	14.0	4	4.5	4	-1E+10	1	-1E+10	1	-1E+10	1	-1E+10	1	-1E+10	1	-1E+10	1
4901784	171	C	03/10/2020	10:49	-132.777	43.363	0	735.30	0	4.1230	0	36.6460	8	29.089	0	728.150	0	13.7	4	4.4	4	-1E+10	1	-1E+10	1	-1E+10	1	-1E+10	1	-1E+10	1	-1E+10	1
4901784	171	C	03/10/2020	10:49	-132.777	43.363	0	740.40	0	4.0980	0	36.6530	8	29.098	0	733.191	0	13.5	4	4.3	4	-1E+10	1	-1E+10	1	-1E+10	1	-1E+10	1	-1E+10	1	-1E+10	1
4901784	171	C	03/10/2020	10:49	-132.777	43.363	0	745.60	0	4.0870	0	36.6570	8	29.102	0	738.331	0	13.3	4	4.3	4	-1E+10	1	-1E+10	1	-1E+10	1	-1E+10	1	-1E+10	1	-1E+10	1
4901784	171	C	03/10/2020	10:49	-132.777	43.363	0	750.70	0	4.0790	0	36.6600	8	29.105	0	743.372	0	13.1	4	4.2	4	-1E+10	1	-1E+10	1	-1E+10	1	-1E+10	1	-1E+10	1	-1E+10	1
4901784	171	C	03/10/2020	10:49	-132.777	43.363	0	755.00	0	4.0690	0	36.6640	8	29.110	0	747.623	0	13.0	4	4.2	4	-1E+10	1	-1E+10	1	-1E+10	1	-1E+10	1	-1E+10	1	-1E+10	1
4901784	171	C	03/10/2020	10:49	-132.777	43.363	0	759.30	0	4.0570	0	36.6660	8	29.113	0	751.873	0	12.8	4	4.1	4	-1E+10	1	-1E+10	1	-1E+10	1	-1E+10	1	-1E+10	1	-1E+10	1
4901784	171	C	03/10/2020	10:49	-132.777	43.363	0	764.50	0	4.0320	0	36.6730	8	29.121	0	757.013	0	12.6	4	4.1	4	-1E+10	1	-1E+10	1	-1E+10	1	-1E+10	1	-1E+10	1	-1E+10	1
4901784	171	C	03/10/2020	10:49	-132.777	43.363	0	769.60	0	4.0240	0	36.6750	8	29.123	0	762.053	0	12.6	4	4.0	4	-1E+10	1	-1E+10	1	-1E+10	1	-1E+10	1	-1E+10	1	-1E+10	1
4901784	171	C	03/10/2020	10:49	-132.777	43.363	0	774.60	0	4.0130	0	36.6780	8	29.127	0	766.995	0	12.4	4	4.0	4	-1E+10	1	-1E+10	1	-1E+10	1	-1E+10	1	-1E+10	1	-1E+10	1
4901784	171	C	03/10/2020	10:49	-132.777	43.363	0	779.60	0	4.0130	0	36.6810	8	29.130	0	771.937	0	12.3	4	4.0	4	-1E+10	1	-1E+10	1	-1E+10	1	-1E+10	1	-1E+10	1	-1E+10	1
4901784	171	C	03/10/2020	10:49	-132.777	43.363	0	784.70	0	4.0020	0	36.6840	8	29.133	0	776.977	0	12.1	4	3.9	4	-1E+10	1	-1E+10	1	-1E+10	1	-1E+10	1	-1E+10	1	-1E+10	1
4901784	171	C	03/10/2020	10:49	-132.777	43.363	0	789.90	0	3.9890	0	36.6890	8	29.139	0	782.116	0	12.0	4	3.9	4	-1E+10	1	-1E+10	1	-1E+10	1	-1E+10	1	-1E+10	1	-1E+10	1
4901784	171	C	03/10/2020	10:49	-132.777	43.363	0	795.00	0	3.9740	0	36.6920	8	29.143	0	787.157	0	11.9	4	3.8	4	-1E+10	1	-1E+10	1	-1E+10	1	-1E+10	1	-1E+10	1	-1E+10	1
4901784	171	C	03/10/2020	10:49	-132.777	43.363	0	800.20	0	3.9540	0	36.6970	8	29.149	0	792.295	0	11.7	4	3.8	4	-1E+10	1	-1E+10	1	-1E+10	1	-1E+10	1	-1E+10	1	-1E+10	1
4901784	171	C	03/10/2020	10:49	-132.777	43.363	0	805.20	0	3.9390	0	36.7010	8	29.154	0	797.237	0	11.6	4	3.7	4	-1E+10	1	-1E+10	1	-1E+10	1	-1E+10	1	-1E+10	1	-1E+10	1
4901784	171	C	03/10/2020	10:49	-132.777	43.363	0	810.50	0	3.9300	0	36.7040	8	29.157	0	802.474	0	11.5	4	3.7	4	-1E+10	1	-1E+10	1	-1E+10	1	-1E+10	1	-1E+10	1	-1E+10	1
4901784	171	C	03/10/2020	10:49	-132.777	43.363	0	815.70	0	3.9230	0	36.7060	8	29.160	0	807.612	0	11.4	4	3.6	4	-1E+10	1	-1E+10	1	-1E+10	1	-1E+10	1	-1E+10	1	-1E+10	1
4901784	171	C	03/10/2020	10:49	-132.777	43.363	0	820.00	0	3.8950	0	36.7120	8	29.167	0	811.861	0	11.2	4	3.6	4	-1E+10	1	-1E+10	1	-1E+10	1	-1E+10	1	-1E+10	1	-1E+10	1
4901784	171	C	03/10/2020	10:49	-132.777	43.363	0	824.40	0	3.8760	0	36.7160	8	29.173	0	816.209	0	11.1	4	3.5	4	-1E+10	1	-1E+10	1	-1E+10	1	-1E+10	1	-1E+10	1	-1E+10	1
4901784	171	C	03/10/2020	10:49	-132.777	43.363	0	829.60	0	3.8500	0	36.7260	8	29.183	0	821.347	0	10.9	4	3.5	4	-1E+10	1	-1E+10	1	-1E+10	1	-1E+10	1	-1E+10	1	-1E+10	1
4901784	171	C	03/10/2020	10:49	-132.777	43.363	0	835.00	0	3.8360	0	36.7300	8	29.188	0	826.683	0	10.8	4	3.5	4	-1E+10	1	-1E+10	1	-1E+10	1	-1E+10	1	-1E+10	1	-1E+10	1
4901784	171	C	03/10/2020	10:49	-132.777	43.363	0	840.30	0	3.8250	0	36.7330	8	29.192	0	831.919	0	10.7	4	3.4	4	-1E+10	1	-1E+10	1	-1E+10	1	-1E+10	1	-1E+10	1	-1E+10	1
4901784	171	C	03/10/2020	10:49	-132.777	43.363	0	844.90	0	3.8130	0	36.7370	8	29.196	0	836.464	0	10.7	4	3.4	4	-1E+10	1	-1E+10	1	-1E+10	1	-1E+10	1	-1E+10	1	-1E+10	1
4901784	171	C	03/10/2020	10:49	-132.777	43.363	0	849.50	0	3.7960	0	36.7420	8	29.202	0	841.009	0	10.5	4	3.4	4	-1E+10	1	-1E+10	1	-1E+10	1	-1E+10	1	-1E+10	1	-1E+10	1
4901784	171	C	03/10/2020	10:49	-132.777	43.363	0	855.00	0	3.7730	0	36.7480	8	29.209	0	846.443	0	10.5	4	3.4	4	-1E+10	1	-1E+10	1	-1E+10	1	-1E+10	1	-1E+10	1	-1E+10	1
4901784	171	C	03/10/2020	10:49	-132.777	43.363	0	860.60	0	3.7510	0	36.7530	8	29.216	0	851.976	0	10.4	4	3.3	4	-1E+10	1	-1E+10	1	-1E+10	1	-1E+10	1	-1E+10	1	-1E+10	1
4901784	171	C	03/10/2020	10:49	-132.777	43.363	0	865.20	0	3.7380	0	36.7570	8	29.220	0	856.520	0	10.4	4	3.3	4	-1E+10	1	-1E+10	1	-1E+10	1	-1E+10	1	-1E+10	1	-1E+10	1
4901784	171	C	03/10/2020	10:49	-132.777	43.363	0	869.90	0	3.7310	0	36.7590	8	29.223	0	861.163	0	10.3	4	3.3	4	-1E+10	1	-1E+10	1	-1E+10	1	-1E+10	1	-1E+10	1	-1E+10	1
4901784	171	C	03/10/2020	10:49	-132.777	43.363	0	874.50	0	3.7180	0	36.7640	8	29.228	0	865.708	0	10.3	4	3.3	4	-1E+10	1	-1E+10	1	-1E+10	1	-1E+10	1	-1E+10	1	-1E+10	1
4901784	171	C	03/10/2020	10:49	-132.777	43.363	0	879.10	0	3.7020	0	36.7680	8	29.233	0	870.252	0	10.3	4	3.3	4	-1E+10	1	-1E+10	1	-1E+10	1	-1E+10	1	-1E+10	1	-1E+10	1
4901784	171	C	03/10/2020	10:49	-132.777	43.363	0	884.50	0	3.6840	0	36.7720	8	29.238	0	875.586	0	10.2	4	3.3	4	-1E+10	1	-1E+10	1	-1E+10	1	-1E+10	1	-1E+10	1	-1E+10	1
4901784	171	C	03/10/2020	10:49	-132.777	43.363	0	889.30	0	3.6660	0	36.7790	8	29.246	0	880.328	0	10.2	4	3.3	4	-1E+10	1	-1E+10	1	-1E+10	1	-1E+10	1	-1E+10	1	-1E+10	1
4901784	171	C	03/10/2020	10:49	-132.777	43.363	0	894.30	0	3.6580	0	36.7820	8	29.249	0	885.267	0	10.2	4	3.3	4	-1E+10	1	-1E+10	1	-1E+10	1	-1E+10	1	-1E+10	1	-1E+10	1
4901784	171	C	03/10/2020	10:49	-132.777	43.363	0	899.30	0	3.6490	0	36.7850	8	29.252	0	890.206	0	10.2	4	3.3	4	-1E+10	1	-1E+10	1	-1E+10	1	-1E+10	1	-1E+10	1	-1E+10	1
4901784	171	C	03/10/2020	10:49	-132.777	43.363	0	904.20	0	3.6360	0	36.7890	8	29.257	0	895.046	0	10.2	4	3.3	4	-1E+10	1	-1E+10	1	-1E+10	1	-1E+10	1	-1E+10	1	-1E+10	1
4901784	171	C	03/10/2020	10:49	-132.777	43.363	0	909.20	0	3.6280	0	36.7920	8	29.260	0	899.984	0	10.2	4	3.3	4	-1E+10	1	-1E+10	1	-1E+10	1	-1E+10	1	-1E+10	1	-1E+10	1
4901784	171	C	03/10/2020	10:49	-132.777	43.363	0	914.30	0	3.6170	0	36.7960	8	29.264	0	905.021	0	10.2	4	3.2	4	-1E+10	1	-1E+10	1	-1E+10	1	-1E+10	1	-1E+10	1	-1E+10	1
4901784	171	C	03/10/2020	10:49	-132.777	43.363	0	919.40	0	3.6120	0	36.7970	8	29.266	0	910.059	0	10.2	4	3.3	4	-1E+10	1	-1E+10	1	-1E+10	1	-1E+10	1	-1E+10	1	-1E+10	1
4901784	171	C	03/10/2020	10:49	-132.777	43.363	0	924.40	0	3.6100	0	36.8000	8	29.268	0	914.997	0	10.2	4	3.2	4	-1E+10	1	-1E+10	1	-1E+10	1	-1E+10	1	-1E+10	1	-1E+10	1
4901784	171	C	03/10/2020	10:49	-132.777	43.363	0	929.50	0	3.6030	0	36.8010	8	29.270	0	920.034	0	10.2	4	3.3	4	-1E+10	1	-1E+10	1	-1E+10	1	-1E+10	1	-1E+10	1	-1E+10	1
4901784	171	C	03/10/2020	10:49	-132.777	43.363	0	934.60	0	3.5840	0	36.8030	8	29.274	0	925.071	0	10.2	4	3.3	4	-1E+10	1	-1E+10	1	-1E+10	1	-1E+10	1	-1E+10	1	-1E+10	1
4901784	171	C	03/10/2020	10:49	-132.777	43.363	0	939.90	0	3.5820	0	36.8050	8	29.275	0	930.305	0	10.2	4	3.3	4	-1E+10	1	-1E+10	1	-1E+10	1	-1E+10	1	-1E+10	1	-1E+10	1
4901784	171	C	03/10/2020	10:49	-132.777	43.363	0	945.10	0	3.5740	0	36.8070	8	29.278	0	935.440	0	10.2	4	3.3	4	-1E+10	1	-1E+10	1	-1E+10	1	-1E+10	1	-1E+10	1	-1E+10	1
4901784	171	C	03/10/2020	10:49	-132.777	43.363	0	950.30	0	3.5640	0	36.8090	8	29.281	0	940.575	0	10.2	4	3.3	4	-1E+10	1	-1E+10	1	-1E+10	1	-1E+10	1	-1E+10	1	-1E+10	1
4901784	171	C	03/10/2020	10:49	-132.777	43.363	0	955.60	0	3.5450	0	36.8130	8	29.286	0	945.809	0	10.2	4	3.3	4	-1E+10	1	-1E+10	1	-1E+10	1	-1E+10	1	-1E+10	1	-1E+10	1
4901784	171	C	03/10/2020	10:49	-132.777	43.363	0	960.00	0	3.5330	0	36.8160	8	29.289	0	950.154	0	10.3	4	3.3	4	-1E+10	1	-1E+10	1	-1E+10	1	-1E+10	1	-1E+10	1	-1E+10	1
4901784	171	C	03/10/2020	10:49	-132.777	43.363	0	964.30	0	3.5200	0	36.8200	8	29.294	0	954.400	0	10.3	4	3.3	4	-1E+10	1	-1E+10	1	-1E+10	1	-1E+10	1	-1E+10	1	-1E+10	1
4901784	171	C	03/10/2020	10:49	-132.777	43.363	0	969.50	0	3.5080	0	36.8230	8	29.298	0	959.535	0	10.3	4	3.3	4	-1E+10	1	-1E+10	1	-1E+10	1	-1E+10	1	-1E+10	1	-1E+10	1
4901784	171	C	03/10/2020	10:49	-132.777	43.363	0	974.90	0	3.4960	0	36.8250	8	29.301	0	964.867	0	10.3	4	3.3	4	-1E+10	1	-1E+10	1	-1E+10	1	-1E+10	1	-1E+10	1	-1E+10	1
4901784	171	C	03/10/2020	10:49	-132.777	43.363	0	980.30	0	3.4870	0	36.8290	8	29.305	0	970.199	0	10.4	4	3.3	4	-1E+10	1	-1E+10	1	-1E+10	1	-1E+10	1	-1E+10	1	-1E+10	1
4901784	171	C	03/10/2020	10:49	-132.777	43.363	0	985.70	0	3.4750	0	36.8320	8	29.308	0	975.531	0	10.4	4	3.3	4	-1E+10	1	-1E+10	1	-1E+10	1	-1E+10	1	-1E+10	1	-1E+10	1
4901784	171	C	03/10/2020	10:49	-132.777	43.363	0	990.20	0	3.4660	0	36.8350	8	29.312	0	979.974	0	10.4	4	3.3	4	-1E+10	1	-1E+10	1	-1E+10	1	-1E+10	1	-1E+10	1	-1E+10	1
4901784	171	C	03/10/2020	10:49	-132.777	43.363	0	994.70	0	3.4610	0	36.8360	8	29.313	0	984.417	0	10.5	4	3.3	4	-1E+10	1	-1E+10	1	-1E+10	1	-1E+10	1	-1E+10	1	-1E+10	1
4901784	171	C	03/10/2020	10:49	-132.777	43.363	0	1000.20	0	3.4500	0	36.8400	8	29.317	0	989.847	0	10.5	4	3.3	4	-1E+10	1	-1E+10	1	-1E+10	1	-1E+10	1	-1E+10	1	-1E+10	1
4901784	171	C	03/10/2020	10:49	-132.777	43.363	0	1004.80	0	3.4450	0	36.8420	8	29.320	0	994.388	0	10.6	4	3.4	4	-1E+10	1	-1E+10	1	-1E+10	1	-1E+10	1	-1E+10	1	-1E+10	1
4901784	171	C	03/10/2020	10:49	-132.777	43.363	0	1009.40	0	3.4320	0	36.8450	8	29.323	0	998.930	0	10.6	4	3.4	4	-1E+10	1	-1E+10	1	-1E+10	1	-1E+10	1	-1E+10	1	-1E+10	1
4901784	171	C	03/10/2020	10:49	-132.777	43.363	0	1015.00	0	3.4200	0	36.8490	8	29.328	0	1004.458	0	10.7	4	3.4	4	-1E+10	1	-1E+10	1	-1E+10	1	-1E+10	1	-1E+10	1	-1E+10	1
4901784	171	C	03/10/2020	10:49	-132.777	43.363	0	1020.50	0	3.4130	0	36.8510	8	29.330	0	1009.888	0	10.7	4	3.4	4	-1E+10	1	-1E+10	1	-1E+10	1	-1E+10	1	-1E+10	1	-1E+10	1
4901784	171	C	03/10/2020	10:49	-132.777	43.363	0	1025.20	0	3.4010	0	36.8550	8	29.335	0	1014.527	0	10.8	4	3.4	4	-1E+10	1	-1E+10	1	-1E+10	1	-1E+10	1	-1E+10	1	-1E+10	1
4901784	171	C	03/10/2020	10:49	-132.777	43.363	0	1029.80	0	3.3910	0	36.8580	8	29.338	0	1019.068	0	10.9	4	3.5	4	-1E+10	1	-1E+10	1	-1E+10	1	-1E+10	1	-1E+10	1	-1E+10	1
4901784	171	C	03/10/2020	10:49	-132.777	43.363	0	1035.10	0	3.3850	0	36.8600	8	29.340	0	1024.300	0	10.9	4	3.5	4	-1E+10	1	-1E+10	1	-1E+10	1	-1E+10	1	-1E+10	1	-1E+10	1
4901784	171	C	03/10/2020	10:49	-132.777	43.363	0	1039.30	0	3.3810	0	36.8620	8	29.342	0	1028.446	0	11.0	4	3.5	4	-1E+10	1	-1E+10	1	-1E+10	1	-1E+10	1	-1E+10	1	-1E+10	1
4901784	171	C	03/10/2020	10:49	-132.777	43.363	0	1044.90	0	3.3700	0	36.8660	8	29.347	0	1033.974	0	11.1	4	3.5	4	-1E+10	1	-1E+10	1	-1E+10	1	-1E+10	1	-1E+10	1	-1E+10	1
4901784	171	C	03/10/2020	10:49	-132.777	43.363	0	1050.60	0	3.3620	0	36.8680	8	29.349	0	1039.600	0	11.2	4	3.5	4	-1E+10	1	-1E+10	1	-1E+10	1	-1E+10	1	-1E+10	1	-1E+10	1
4901784	171	C	03/10/2020	10:49	-132.777	43.363	0	1055.40	0	3.3530	0	36.8710	8	29.352	0	1044.338	0	11.2	4	3.6	4	-1E+10	1	-1E+10	1	-1E+10	1	-1E+10	1	-1E+10	1	-1E+10	1
4901784	171	C	03/10/2020	10:49	-132.777	43.363	0	1060.40	0	3.3420	0	36.8730	8	29.355	0	1049.273	0	11.3	4	3.6	4	-1E+10	1	-1E+10	1	-1E+10	1	-1E+10	1	-1E+10	1	-1E+10	1
4901784	171	C	03/10/2020	10:49	-132.777	43.363	0	1065.30	0	3.3330	0	36.8750	8	29.358	0	1054.109	0	11.4	4	3.6	4	-1E+10	1	-1E+10	1	-1E+10	1	-1E+10	1	-1E+10	1	-1E+10	1
4901784	171	C	03/10/2020	10:49	-132.777	43.363	0	1070.30	0	3.3210	0	36.8780	8	29.361	0	1059.044	0	11.5	4	3.6	4	-1E+10	1	-1E+10	1	-1E+10	1	-1E+10	1	-1E+10	1	-1E+10	1
4901784	171	C	03/10/2020	10:49	-132.777	43.363	0	1075.30	0	3.3150	0	36.8800	8	29.364	0	1063.979	0	11.6	4	3.7	4	-1E+10	1	-1E+10	1	-1E+10	1	-1E+10	1	-1E+10	1	-1E+10	1
4901784	171	C	03/10/2020	10:49	-132.777	43.363	0	1080.30	0	3.3020	0	36.8840	8	29.368	0	1068.914	0	11.7	4	3.7	4	-1E+10	1	-1E+10	1	-1E+10	1	-1E+10	1	-1E+10	1	-1E+10	1
4901784	171	C	03/10/2020	10:49	-132.777	43.363	0	1085.30	0	3.2900	0	36.8860	8	29.371	0	1073.848	0	11.8	4	3.7	4	-1E+10	1	-1E+10	1	-1E+10	1	-1E+10	1	-1E+10	1	-1E+10	1
4901784	171	C	03/10/2020	10:49	-132.777	43.363	0	1090.20	0	3.2820	0	36.8880	8	29.373	0	1078.684	0	11.9	4	3.8	4	-1E+10	1	-1E+10	1	-1E+10	1	-1E+10	1	-1E+10	1	-1E+10	1
4901784	171	C	03/10/2020	10:49	-132.777	43.363	0	1095.20	0	3.2690	0	36.8910	8	29.377	0	1083.618	0	12.0	4	3.8	4	-1E+10	1	-1E+10	1	-1E+10	1	-1E+10	1	-1E+10	1	-1E+10	1
4901784	171	C	03/10/2020	10:49	-132.777	43.363	0	1100.10	0	3.2590	0	36.8940	8	29.381	0	1088.454	0	12.0	4	3.8	4	-1E+10	1	-1E+10	1	-1E+10	1	-1E+10	1	-1E+10	1	-1E+10	1
4901784	171	C	03/10/2020	10:49	-132.777	43.363	0	1105.40	0	3.2560	0	36.8950	8	29.382	0	1093.684	0	12.1	4	3.8	4	-1E+10	1	-1E+10	1	-1E+10	1	-1E+10	1	-1E+10	1	-1E+10	1
4901784	171	C	03/10/2020	10:49	-132.777	43.363	0	1110.60	0	3.2470	0	36.8970	8	29.384	0	1098.815	0	12.3	4	3.9	4	-1E+10	1	-1E+10	1	-1E+10	1	-1E+10	1	-1E+10	1	-1E+10	1
4901784	171	C	03/10/2020	10:49	-132.777	43.363	0	1115.20	0	3.2410	0	36.8980	8	29.386	0	1103.354	0	12.4	4	3.9	4	-1E+10	1	-1E+10	1	-1E+10	1	-1E+10	1	-1E+10	1	-1E+10	1
4901784	171	C	03/10/2020	10:49	-132.777	43.363	0	1119.90	0	3.2230	0	36.9020	8	29.391	0	1107.992	0	12.5	4	4.0	4	-1E+10	1	-1E+10	1	-1E+10	1	-1E+10	1	-1E+10	1	-1E+10	1
4901784	171	C	03/10/2020	10:49	-132.777	43.363	0	1125.40	0	3.2080	0	36.9050	8	29.395	0	1113.419	0	12.7	4	4.0	4	-1E+10	1	-1E+10	1	-1E+10	1	-1E+10	1	-1E+10	1	-1E+10	1
4901784	171	C	03/10/2020	10:49	-132.777	43.363	0	1130.00	0	3.1940	0	36.9070	8	29.398	0	1117.957	0	12.7	4	4.0	4	-1E+10	1	-1E+10	1	-1E+10	1	-1E+10	1	-1E+10	1	-1E+10	1
4901784	171	C	03/10/2020	10:49	-132.777	43.363	0	1134.60	0	3.1830	0	36.9100	8	29.401	0	1122.496	0	12.8	4	4.0	4	-1E+10	1	-1E+10	1	-1E+10	1	-1E+10	1	-1E+10	1	-1E+10	1
4901784	171	C	03/10/2020	10:49	-132.777	43.363	0	1140.10	0	3.1720	0	36.9120	8	29.404	0	1127.923	0	12.9	4	4.1	4	-1E+10	1	-1E+10	1	-1E+10	1	-1E+10	1	-1E+10	1	-1E+10	1
4901784	171	C	03/10/2020	10:49	-132.777	43.363	0	1144.80	0	3.1630	0	36.9140	8	29.406	0	1132.560	0	13.1	4	4.1	4	-1E+10	1	-1E+10	1	-1E+10	1	-1E+10	1	-1E+10	1	-1E+10	1
4901784	171	C	03/10/2020	10:49	-132.777	43.363	0	1149.50	0	3.1540	0	36.9150	8	29.408	0	1137.197	0	13.3	4	4.2	4	-1E+10	1	-1E+10	1	-1E+10	1	-1E+10	1	-1E+10	1	-1E+10	1
4901784	171	C	03/10/2020	10:49	-132.777	43.363	0	1155.10	0	3.1360	0	36.9190	8	29.413	0	1142.722	0	13.4	4	4.2	4	-1E+10	1	-1E+10	1	-1E+10	1	-1E+10	1	-1E+10	1	-1E+10	1
4901784	171	C	03/10/2020	10:49	-132.777	43.363	0	1159.80	0	3.1230	0	36.9220	8	29.417	0	1147.359	0	13.6	4	4.3	4	-1E+10	1	-1E+10	1	-1E+10	1	-1E+10	1	-1E+10	1	-1E+10	1
4901784	171	C	03/10/2020	10:49	-132.777	43.363	0	1164.50	0	3.1120	0	36.9240	8	29.420	0	1151.995	0	13.8	4	4.3	4	-1E+10	1	-1E+10	1	-1E+10	1	-1E+10	1	-1E+10	1	-1E+10	1
4901784	171	C	03/10/2020	10:49	-132.777	43.363	0	1170.20	0	3.1010	0	36.9260	8	29.422	0	1157.618	0	14.0	4	4.4	4	-1E+10	1	-1E+10	1	-1E+10	1	-1E+10	1	-1E+10	1	-1E+10	1
4901784	171	C	03/10/2020	10:49	-132.777	43.363	0	1174.90	0	3.0800	0	36.9300	8	29.428	0	1162.255	0	14.2	4	4.5	4	-1E+10	1	-1E+10	1	-1E+10	1	-1E+10	1	-1E+10	1	-1E+10	1
4901784	171	C	03/10/2020	10:49	-132.777	43.363	0	1179.70	0	3.0640	0	36.9330	8	29.432	0	1166.990	0	14.4	4	4.5	4	-1E+10	1	-1E+10	1	-1E+10	1	-1E+10	1	-1E+10	1	-1E+10	1
4901784	171	C	03/10/2020	10:49	-132.777	43.363	0	1185.50	0	3.0520	0	36.9350	8	29.434	0	1172.711	0	14.5	4	4.6	4	-1E+10	1	-1E+10	1	-1E+10	1	-1E+10	1	-1E+10	1	-1E+10	1
4901784	171	C	03/10/2020	10:49	-132.777	43.363	0	1190.30	0	3.0450	0	36.9370	8	29.437	0	1177.446	0	14.6	4	4.6	4	-1E+10	1	-1E+10	1	-1E+10	1	-1E+10	1	-1E+10	1	-1E+10	1
4901784	171	C	03/10/2020	10:49	-132.777	43.363	0	1195.10	0	3.0380	0	36.9390	8	29.439	0	1182.181	0	14.7	4	4.6	4	-1E+10	1	-1E+10	1	-1E+10	1	-1E+10	1	-1E+10	1	-1E+10	1
4901784	171	C	03/10/2020	10:49	-132.777	43.363	0	1199.90	0	3.0360	0	36.9390	8	29.439	0	1186.915	0	14.8	4	4.7	4	-1E+10	1	-1E+10	1	-1E+10	1	-1E+10	1	-1E+10	1	-1E+10	1
4901784	171	C	03/10/2020	10:49	-132.777	43.363	0	1204.80	0	3.0290	0	36.9400	8	29.441	0	1191.748	0	14.8	4	4.7	4	-1E+10	1	-1E+10	1	-1E+10	1	-1E+10	1	-1E+10	1	-1E+10	1
4901784	171	C	03/10/2020	10:49	-132.777	43.363	0	1209.70	0	3.0220	0	36.9420	8	29.443	0	1196.581	0	14.9	4	4.7	4	-1E+10	1	-1E+10	1	-1E+10	1	-1E+10	1	-1E+10	1	-1E+10	1
4901784	171	C	03/10/2020	10:49	-132.777	43.363	0	1214.60	0	3.0160	0	36.9420	8	29.444	0	1201.414	0	15.0	4	4.7	4	-1E+10	1	-1E+10	1	-1E+10	1	-1E+10	1	-1E+10	1	-1E+10	1
4901784	171	C	03/10/2020	10:49	-132.777	43.363	0	1220.50	0	2.9980	0	36.9440	8	29.447	0	1207.233	0	15.2	4	4.8	4	-1E+10	1	-1E+10	1	-1E+10	1	-1E+10	1	-1E+10	1	-1E+10	1
4901784	171	C	03/10/2020	10:49	-132.777	43.363	0	1225.40	0	2.9880	0	36.9450	8	29.449	0	1212.066	0	15.3	4	4.8	4	-1E+10	1	-1E+10	1	-1E+10	1	-1E+10	1	-1E+10	1	-1E+10	1
4901784	171	C	03/10/2020	10:49	-132.777	43.363	0	1230.40	0	2.9760	0	36.9470	8	29.452	0	1216.997	0	15.5	4	4.9	4	-1E+10	1	-1E+10	1	-1E+10	1	-1E+10	1	-1E+10	1	-1E+10	1
4901784	171	C	03/10/2020	10:49	-132.777	43.363	0	1235.30	0	2.9670	0	36.9490	8	29.454	0	1221.829	0	15.6	4	4.9	4	-1E+10	1	-1E+10	1	-1E+10	1	-1E+10	1	-1E+10	1	-1E+10	1
4901784	171	C	03/10/2020	10:49	-132.777	43.363	0	1240.30	0	2.9620	0	36.9510	8	29.456	0	1226.760	0	15.7	4	4.9	4	-1E+10	1	-1E+10	1	-1E+10	1	-1E+10	1	-1E+10	1	-1E+10	1
4901784	171	C	03/10/2020	10:49	-132.777	43.363	0	1244.90	0	2.9530	0	36.9520	8	29.458	0	1231.297	0	15.8	4	5.0	4	-1E+10	1	-1E+10	1	-1E+10	1	-1E+10	1	-1E+10	1	-1E+10	1
4901784	171	C	03/10/2020	10:49	-132.777	43.363	0	1249.60	0	2.9440	0	36.9530	8	29.460	0	1235.931	0	16.0	4	5.0	4	-1E+10	1	-1E+10	1	-1E+10	1	-1E+10	1	-1E+10	1	-1E+10	1
4901784	171	C	03/10/2020	10:49	-132.777	43.363	0	1255.00	0	2.9360	0	36.9550	8	29.462	0	1241.256	0	16.1	4	5.1	4	-1E+10	1	-1E+10	1	-1E+10	1	-1E+10	1	-1E+10	1	-1E+10	1
4901784	171	C	03/10/2020	10:49	-132.777	43.363	0	1260.40	0	2.9280	0	36.9560	8	29.464	0	1246.581	0	16.3	4	5.1	4	-1E+10	1	-1E+10	1	-1E+10	1	-1E+10	1	-1E+10	1	-1E+10	1
4901784	171	C	03/10/2020	10:49	-132.777	43.363	0	1265.30	0	2.9170	0	36.9580	8	29.466	0	1251.413	0	16.4	4	5.2	4	-1E+10	1	-1E+10	1	-1E+10	1	-1E+10	1	-1E+10	1	-1E+10	1
4901784	171	C	03/10/2020	10:49	-132.777	43.363	0	1270.10	0	2.9070	0	36.9600	8	29.469	0	1256.146	0	16.6	4	5.2	4	-1E+10	1	-1E+10	1	-1E+10	1	-1E+10	1	-1E+10	1	-1E+10	1
4901784	171	C	03/10/2020	10:49	-132.777	43.363	0	1275.10	0	2.8980	0	36.9620	8	29.471	0	1261.076	0	16.8	4	5.3	4	-1E+10	1	-1E+10	1	-1E+10	1	-1E+10	1	-1E+10	1	-1E+10	1
4901784	171	C	03/10/2020	10:49	-132.777	43.363	0	1280.00	0	2.8850	0	36.9640	8	29.474	0	1265.908	0	17.0	4	5.4	4	-1E+10	1	-1E+10	1	-1E+10	1	-1E+10	1	-1E+10	1	-1E+10	1
4901784	171	C	03/10/2020	10:49	-132.777	43.363	0	1284.90	0	2.8750	0	36.9670	8	29.478	0	1270.739	0	17.3	4	5.4	4	-1E+10	1	-1E+10	1	-1E+10	1	-1E+10	1	-1E+10	1	-1E+10	1
4901784	171	C	03/10/2020	10:49	-132.777	43.363	0	1289.80	0	2.8640	0	36.9690	8	29.480	0	1275.570	0	17.4	4	5.5	4	-1E+10	1	-1E+10	1	-1E+10	1	-1E+10	1	-1E+10	1	-1E+10	1
4901784	171	C	03/10/2020	10:49	-132.777	43.363	0	1294.90	0	2.8560	0	36.9710	8	29.483	0	1280.598	0	17.6	4	5.5	4	-1E+10	1	-1E+10	1	-1E+10	1	-1E+10	1	-1E+10	1	-1E+10	1
4901784	171	C	03/10/2020	10:49	-132.777	43.363	0	1300.10	0	2.8500	0	36.9720	8	29.484	0	1285.725	0	17.8	4	5.6	4	-1E+10	1	-1E+10	1	-1E+10	1	-1E+10	1	-1E+10	1	-1E+10	1
4901784	171	C	03/10/2020	10:49	-132.777	43.363	0	1305.30	0	2.8440	0	36.9740	8	29.486	0	1290.852	0	18.0	4	5.7	4	-1E+10	1	-1E+10	1	-1E+10	1	-1E+10	1	-1E+10	1	-1E+10	1
4901784	171	C	03/10/2020	10:49	-132.777	43.363	0	1310.50	0	2.8350	0	36.9760	8	29.489	0	1295.978	0	18.2	4	5.7	4	-1E+10	1	-1E+10	1	-1E+10	1	-1E+10	1	-1E+10	1	-1E+10	1
4901784	171	C	03/10/2020	10:49	-132.777	43.363	0	1315.60	0	2.8270	0	36.9760	8	29.490	0	1301.006	0	18.3	4	5.7	4	-1E+10	1	-1E+10	1	-1E+10	1	-1E+10	1	-1E+10	1	-1E+10	1
4901784	171	C	03/10/2020	10:49	-132.777	43.363	0	1320.80	0	2.8180	0	36.9770	8	29.491	0	1306.132	0	18.4	4	5.8	4	-1E+10	1	-1E+10	1	-1E+10	1	-1E+10	1	-1E+10	1	-1E+10	1
4901784	171	C	03/10/2020	10:49	-132.777	43.363	0	1325.10	0	2.8090	0	36.9790	8	29.494	0	1310.371	0	18.6	4	5.8	4	-1E+10	1	-1E+10	1	-1E+10	1	-1E+10	1	-1E+10	1	-1E+10	1
4901784	171	C	03/10/2020	10:49	-132.777	43.363	0	1329.50	0	2.8030	0	36.9800	8	29.495	0	1314.708	0	18.7	4	5.9	4	-1E+10	1	-1E+10	1	-1E+10	1	-1E+10	1	-1E+10	1	-1E+10	1
4901784	171	C	03/10/2020	10:49	-132.777	43.363	0	1334.80	0	2.7970	0	36.9820	8	29.497	0	1319.933	0	18.8	4	5.9	4	-1E+10	1	-1E+10	1	-1E+10	1	-1E+10	1	-1E+10	1	-1E+10	1
4901784	171	C	03/10/2020	10:49	-132.777	43.363	0	1340.00	0	2.7900	0	36.9830	8	29.499	0	1325.058	0	18.9	4	5.9	4	-1E+10	1	-1E+10	1	-1E+10	1	-1E+10	1	-1E+10	1	-1E+10	1
4901784	171	C	03/10/2020	10:49	-132.777	43.363	0	1345.20	0	2.7860	0	36.9840	8	29.500	0	1330.184	0	19.1	4	6.0	4	-1E+10	1	-1E+10	1	-1E+10	1	-1E+10	1	-1E+10	1	-1E+10	1
4901784	171	C	03/10/2020	10:49	-132.777	43.363	0	1350.60	0	2.7830	0	36.9850	8	29.501	0	1335.507	0	19.3	4	6.0	4	-1E+10	1	-1E+10	1	-1E+10	1	-1E+10	1	-1E+10	1	-1E+10	1
4901784	171	C	03/10/2020	10:49	-132.777	43.363	0	1355.10	0	2.7750	0	36.9860	8	29.503	0	1339.942	0	19.5	4	6.1	4	-1E+10	1	-1E+10	1	-1E+10	1	-1E+10	1	-1E+10	1	-1E+10	1
4901784	171	C	03/10/2020	10:49	-132.777	43.363	0	1359.50	0	2.7670	0	36.9880	8	29.505	0	1344.279	0	19.8	4	6.2	4	-1E+10	1	-1E+10	1	-1E+10	1	-1E+10	1	-1E+10	1	-1E+10	1
4901784	171	C	03/10/2020	10:49	-132.777	43.363	0	1364.80	0	2.7530	0	36.9910	8	29.509	0	1349.503	0	20.1	4	6.3	4	-1E+10	1	-1E+10	1	-1E+10	1	-1E+10	1	-1E+10	1	-1E+10	1
4901784	171	C	03/10/2020	10:49	-132.777	43.363	0	1370.10	0	2.7430	0	36.9920	8	29.511	0	1354.726	0	20.3	4	6.4	4	-1E+10	1	-1E+10	1	-1E+10	1	-1E+10	1	-1E+10	1	-1E+10	1
4901784	171	C	03/10/2020	10:49	-132.777	43.363	0	1375.50	0	2.7330	0	36.9940	8	29.513	0	1360.048	0	20.5	4	6.4	4	-1E+10	1	-1E+10	1	-1E+10	1	-1E+10	1	-1E+10	1	-1E+10	1
4901784	171	C	03/10/2020	10:49	-132.777	43.363	0	1380.00	0	2.7270	0	36.9960	8	29.516	0	1364.483	0	20.7	4	6.5	4	-1E+10	1	-1E+10	1	-1E+10	1	-1E+10	1	-1E+10	1	-1E+10	1
4901784	171	C	03/10/2020	10:49	-132.777	43.363	0	1384.60	0	2.7210	0	36.9960	8	29.516	0	1369.016	0	20.9	4	6.5	4	-1E+10	1	-1E+10	1	-1E+10	1	-1E+10	1	-1E+10	1	-1E+10	1
4901784	171	C	03/10/2020	10:49	-132.777	43.363	0	1390.10	0	2.7070	0	36.9990	8	29.520	0	1374.436	0	21.3	4	6.6	4	-1E+10	1	-1E+10	1	-1E+10	1	-1E+10	1	-1E+10	1	-1E+10	1
4901784	171	C	03/10/2020	10:49	-132.777	43.363	0	1395.60	0	2.6970	0	37.0010	8	29.522	0	1379.857	0	21.5	4	6.7	4	-1E+10	1	-1E+10	1	-1E+10	1	-1E+10	1	-1E+10	1	-1E+10	1
4901784	171	C	03/10/2020	10:49	-132.777	43.363	0	1400.30	0	2.6930	0	37.0020	8	29.524	0	1384.488	0	21.7	4	6.8	4	-1E+10	1	-1E+10	1	-1E+10	1	-1E+10	1	-1E+10	1	-1E+10	1
4901784	171	C	03/10/2020	10:49	-132.777	43.363	0	1404.90	0	2.6810	0	37.0040	8	29.526	0	1389.021	0	22.0	4	6.9	4	-1E+10	1	-1E+10	1	-1E+10	1	-1E+10	1	-1E+10	1	-1E+10	1
4901784	171	C	03/10/2020	10:49	-132.777	43.363	0	1410.10	0	2.6730	0	37.0050	8	29.528	0	1394.145	0	22.2	4	6.9	4	-1E+10	1	-1E+10	1	-1E+10	1	-1E+10	1	-1E+10	1	-1E+10	1
4901784	171	C	03/10/2020	10:49	-132.777	43.363	0	1414.30	0	2.6680	0	37.0060	8	29.529	0	1398.284	0	22.3	4	7.0	4	-1E+10	1	-1E+10	1	-1E+10	1	-1E+10	1	-1E+10	1	-1E+10	1
4901784	171	C	03/10/2020	10:49	-132.777	43.363	0	1420.00	0	2.6600	0	37.0080	8	29.532	0	1403.900	0	22.5	4	7.0	4	-1E+10	1	-1E+10	1	-1E+10	1	-1E+10	1	-1E+10	1	-1E+10	1
4901784	171	C	03/10/2020	10:49	-132.777	43.363	0	1425.70	0	2.6530	0	37.0090	8	29.533	0	1409.516	0	22.8	4	7.1	4	-1E+10	1	-1E+10	1	-1E+10	1	-1E+10	1	-1E+10	1	-1E+10	1
4901784	171	C	03/10/2020	10:49	-132.777	43.363	0	1430.70	0	2.6420	0	37.0110	8	29.536	0	1414.443	0	23.0	4	7.2	4	-1E+10	1	-1E+10	1	-1E+10	1	-1E+10	1	-1E+10	1	-1E+10	1
4901784	171	C	03/10/2020	10:49	-132.777	43.363	0	1435.70	0	2.6340	0	37.0120	8	29.537	0	1419.369	0	23.3	4	7.3	4	-1E+10	1	-1E+10	1	-1E+10	1	-1E+10	1	-1E+10	1	-1E+10	1
4901784	171	C	03/10/2020	10:49	-132.777	43.363	0	1440.70	0	2.6240	0	37.0140	8	29.540	0	1424.296	0	23.6	4	7.4	4	-1E+10	1	-1E+10	1	-1E+10	1	-1E+10	1	-1E+10	1	-1E+10	1
4901784	171	C	03/10/2020	10:49	-132.777	43.363	0	1445.80	0	2.6160	0	37.0160	8	29.542	0	1429.320	0	23.8	4	7.4	4	-1E+10	1	-1E+10	1	-1E+10	1	-1E+10	1	-1E+10	1	-1E+10	1
4901784	171	C	03/10/2020	10:49	-132.777	43.363	0	1450.10	0	2.6130	0	37.0170	8	29.543	0	1433.557	0	24.0	4	7.5	4	-1E+10	1	-1E+10	1	-1E+10	1	-1E+10	1	-1E+10	1	-1E+10	1
4901784	171	C	03/10/2020	10:49	-132.777	43.363	0	1454.40	0	2.6070	0	37.0180	8	29.545	0	1437.793	0	24.2	4	7.6	4	-1E+10	1	-1E+10	1	-1E+10	1	-1E+10	1	-1E+10	1	-1E+10	1
4901784	171	C	03/10/2020	10:49	-132.777	43.363	0	1459.50	0	2.5970	0	37.0190	8	29.547	0	1442.817	0	24.5	4	7.6	4	-1E+10	1	-1E+10	1	-1E+10	1	-1E+10	1	-1E+10	1	-1E+10	1
4901784	171	C	03/10/2020	10:49	-132.777	43.363	0	1464.80	0	2.5890	0	37.0210	8	29.549	0	1448.039	0	24.8	4	7.7	4	-1E+10	1	-1E+10	1	-1E+10	1	-1E+10	1	-1E+10	1	-1E+10	1
4901784	171	C	03/10/2020	10:49	-132.777	43.363	0	1470.00	0	2.5820	0	37.0220	8	29.550	0	1453.161	0	25.0	4	7.8	4	-1E+10	1	-1E+10	1	-1E+10	1	-1E+10	1	-1E+10	1	-1E+10	1
4901784	171	C	03/10/2020	10:49	-132.777	43.363	0	1475.30	0	2.5740	0	37.0240	8	29.553	0	1458.382	0	25.3	4	7.9	4	-1E+10	1	-1E+10	1	-1E+10	1	-1E+10	1	-1E+10	1	-1E+10	1
4901784	171	C	03/10/2020	10:49	-132.777	43.363	0	1480.70	0	2.5670	0	37.0250	8	29.554	0	1463.702	0	25.6	4	8.0	4	-1E+10	1	-1E+10	1	-1E+10	1	-1E+10	1	-1E+10	1	-1E+10	1
4901784	171	C	03/10/2020	10:49	-132.777	43.363	0	1485.10	0	2.5560	0	37.0270	8	29.557	0	1468.036	0	25.9	4	8.1	4	-1E+10	1	-1E+10	1	-1E+10	1	-1E+10	1	-1E+10	1	-1E+10	1
4901784	171	C	03/10/2020	10:49	-132.777	43.363	0	1489.50	0	2.5510	0	37.0280	8	29.558	0	1472.370	0	26.1	4	8.1	4	-1E+10	1	-1E+10	1	-1E+10	1	-1E+10	1	-1E+10	1	-1E+10	1
4901784	171	C	03/10/2020	10:49	-132.777	43.363	0	1494.90	0	2.5400	0	37.0300	8	29.561	0	1477.689	0	26.5	4	8.3	4	-1E+10	1	-1E+10	1	-1E+10	1	-1E+10	1	-1E+10	1	-1E+10	1
4901784	171	C	03/10/2020	10:49	-132.777	43.363	0	1500.20	0	2.5310	0	37.0310	8	29.562	0	1482.909	0	26.9	4	8.4	4	-1E+10	1	-1E+10	1	-1E+10	1	-1E+10	1	-1E+10	1	-1E+10	1
4901784	171	C	03/10/2020	10:49	-132.777	43.363	0	1505.50	0	2.5230	0	37.0330	8	29.565	0	1488.130	0	27.2	4	8.5	4	-1E+10	1	-1E+10	1	-1E+10	1	-1E+10	1	-1E+10	1	-1E+10	1
4901784	171	C	03/10/2020	10:49	-132.777	43.363	0	1510.00	0	2.5160	0	37.0340	8	29.566	0	1492.562	0	27.5	4	8.5	4	-1E+10	1	-1E+10	1	-1E+10	1	-1E+10	1	-1E+10	1	-1E+10	1
4901784	171	C	03/10/2020	10:49	-132.777	43.363	0	1514.50	0	2.5070	0	37.0360	8	29.569	0	1496.994	0	27.7	4	8.6	4	-1E+10	1	-1E+10	1	-1E+10	1	-1E+10	1	-1E+10	1	-1E+10	1
4901784	171	C	03/10/2020	10:49	-132.777	43.363	0	1520.00	0	2.5010	0	37.0370	8	29.570	0	1502.411	0	27.9	4	8.7	4	-1E+10	1	-1E+10	1	-1E+10	1	-1E+10	1	-1E+10	1	-1E+10	1
4901784	171	C	03/10/2020	10:49	-132.777	43.363	0	1525.40	0	2.4970	0	37.0380	8	29.571	0	1507.729	0	28.1	4	8.7	4	-1E+10	1	-1E+10	1	-1E+10	1	-1E+10	1	-1E+10	1	-1E+10	1
4901784	171	C	03/10/2020	10:49	-132.777	43.363	0	1529.90	0	2.4880	0	37.0390	8	29.573	0	1512.161	0	28.4	4	8.8	4	-1E+10	1	-1E+10	1	-1E+10	1	-1E+10	1	-1E+10	1	-1E+10	1
4901784	171	C	03/10/2020	10:49	-132.777	43.363	0	1534.60	0	2.4780	0	37.0410	8	29.575	0	1516.790	0	28.7	4	8.9	4	-1E+10	1	-1E+10	1	-1E+10	1	-1E+10	1	-1E+10	1	-1E+10	1
4901784	171	C	03/10/2020	10:49	-132.777	43.363	0	1540.10	0	2.4670	0	37.0430	8	29.578	0	1522.206	0	28.9	4	9.0	4	-1E+10	1	-1E+10	1	-1E+10	1	-1E+10	1	-1E+10	1	-1E+10	1
4901784	171	C	03/10/2020	10:49	-132.777	43.363	0	1544.70	0	2.4600	0	37.0450	8	29.580	0	1526.736	0	29.1	4	9.0	4	-1E+10	1	-1E+10	1	-1E+10	1	-1E+10	1	-1E+10	1	-1E+10	1
4901784	171	C	03/10/2020	10:49	-132.777	43.363	0	1549.20	0	2.4570	0	37.0450	8	29.581	0	1531.167	0	29.3	4	9.1	4	-1E+10	1	-1E+10	1	-1E+10	1	-1E+10	1	-1E+10	1	-1E+10	1
4901784	171	C	03/10/2020	10:49	-132.777	43.363	0	1554.60	0	2.4500	0	37.0470	8	29.583	0	1536.485	0	29.6	4	9.2	4	-1E+10	1	-1E+10	1	-1E+10	1	-1E+10	1	-1E+10	1	-1E+10	1
4901784	171	C	03/10/2020	10:49	-132.777	43.363	0	1559.40	0	2.4400	0	37.0480	8	29.585	0	1541.212	0	30.0	4	9.3	4	-1E+10	1	-1E+10	1	-1E+10	1	-1E+10	1	-1E+10	1	-1E+10	1
4901784	171	C	03/10/2020	10:49	-132.777	43.363	0	1564.30	0	2.4310	0	37.0500	8	29.587	0	1546.036	0	30.2	4	9.4	4	-1E+10	1	-1E+10	1	-1E+10	1	-1E+10	1	-1E+10	1	-1E+10	1
4901784	171	C	03/10/2020	10:49	-132.777	43.363	0	1570.00	0	2.4250	0	37.0510	8	29.589	0	1551.649	0	30.5	4	9.5	4	-1E+10	1	-1E+10	1	-1E+10	1	-1E+10	1	-1E+10	1	-1E+10	1
4901784	171	C	03/10/2020	10:49	-132.777	43.363	0	1575.70	0	2.4150	0	37.0530	8	29.591	0	1557.261	0	30.8	4	9.6	4	-1E+10	1	-1E+10	1	-1E+10	1	-1E+10	1	-1E+10	1	-1E+10	1
4901784	171	C	03/10/2020	10:49	-132.777	43.363	0	1580.60	0	2.4080	0	37.0540	8	29.593	0	1562.086	0	31.1	4	9.7	4	-1E+10	1	-1E+10	1	-1E+10	1	-1E+10	1	-1E+10	1	-1E+10	1
4901784	171	C	03/10/2020	10:49	-132.777	43.363	0	1585.50	0	2.4030	0	37.0550	8	29.594	0	1566.910	0	31.3	4	9.7	4	-1E+10	1	-1E+10	1	-1E+10	1	-1E+10	1	-1E+10	1	-1E+10	1
4901784	171	C	03/10/2020	10:49	-132.777	43.363	0	1590.50	0	2.3980	0	37.0560	8	29.595	0	1571.833	0	31.7	4	9.8	4	-1E+10	1	-1E+10	1	-1E+10	1	-1E+10	1	-1E+10	1	-1E+10	1
4901784	171	C	03/10/2020	10:49	-132.777	43.363	0	1595.50	0	2.3900	0	37.0570	8	29.597	0	1576.756	0	32.0	4	9.9	4	-1E+10	1	-1E+10	1	-1E+10	1	-1E+10	1	-1E+10	1	-1E+10	1
4901784	171	C	03/10/2020	10:49	-132.777	43.363	0	1600.50	0	2.3820	0	37.0580	8	29.598	0	1581.679	0	32.4	4	10.1	4	-1E+10	1	-1E+10	1	-1E+10	1	-1E+10	1	-1E+10	1	-1E+10	1
4901784	171	C	03/10/2020	10:49	-132.777	43.363	0	1605.40	0	2.3760	0	37.0590	8	29.600	0	1586.503	0	32.8	4	10.2	4	-1E+10	1	-1E+10	1	-1E+10	1	-1E+10	1	-1E+10	1	-1E+10	1
4901784	171	C	03/10/2020	10:49	-132.777	43.363	0	1610.40	0	2.3700	0	37.0600	8	29.601	0	1591.425	0	33.1	4	10.3	4	-1E+10	1	-1E+10	1	-1E+10	1	-1E+10	1	-1E+10	1	-1E+10	1
4901784	171	C	03/10/2020	10:49	-132.777	43.363	0	1615.50	0	2.3600	0	37.0620	8	29.603	0	1596.446	0	33.5	4	10.4	4	-1E+10	1	-1E+10	1	-1E+10	1	-1E+10	1	-1E+10	1	-1E+10	1
4901784	171	C	03/10/2020	10:49	-132.777	43.363	0	1620.60	0	2.3520	0	37.0630	8	29.605	0	1601.466	0	33.8	4	10.5	4	-1E+10	1	-1E+10	1	-1E+10	1	-1E+10	1	-1E+10	1	-1E+10	1
4901784	171	C	03/10/2020	10:49	-132.777	43.363	0	1625.80	0	2.3470	0	37.0640	8	29.606	0	1606.585	0	34.0	4	10.6	4	-1E+10	1	-1E+10	1	-1E+10	1	-1E+10	1	-1E+10	1	-1E+10	1
4901784	171	C	03/10/2020	10:49	-132.777	43.363	0	1630.10	0	2.3410	0	37.0660	8	29.608	0	1610.818	0	34.3	4	10.6	4	-1E+10	1	-1E+10	1	-1E+10	1	-1E+10	1	-1E+10	1	-1E+10	1
4901784	171	C	03/10/2020	10:49	-132.777	43.363	0	1634.40	0	2.3360	0	37.0660	8	29.609	0	1615.051	0	34.6	4	10.7	4	-1E+10	1	-1E+10	1	-1E+10	1	-1E+10	1	-1E+10	1	-1E+10	1
4901784	171	C	03/10/2020	10:49	-132.777	43.363	0	1639.50	0	2.3280	0	37.0680	8	29.611	0	1620.071	0	34.9	4	10.8	4	-1E+10	1	-1E+10	1	-1E+10	1	-1E+10	1	-1E+10	1	-1E+10	1
4901784	171	C	03/10/2020	10:49	-132.777	43.363	0	1644.60	0	2.3180	0	37.0690	8	29.613	0	1625.091	0	35.3	4	10.9	4	-1E+10	1	-1E+10	1	-1E+10	1	-1E+10	1	-1E+10	1	-1E+10	1
4901784	171	C	03/10/2020	10:49	-132.777	43.363	0	1649.70	0	2.3100	0	37.0710	8	29.615	0	1630.111	0	35.7	4	11.1	4	-1E+10	1	-1E+10	1	-1E+10	1	-1E+10	1	-1E+10	1	-1E+10	1
4901784	171	C	03/10/2020	10:49	-132.777	43.363	0	1654.80	0	2.3010	0	37.0730	8	29.618	0	1635.131	0	36.0	4	11.2	4	-1E+10	1	-1E+10	1	-1E+10	1	-1E+10	1	-1E+10	1	-1E+10	1
4901784	171	C	03/10/2020	10:49	-132.777	43.363	0	1660.00	0	2.2960	0	37.0730	8	29.618	0	1640.249	0	36.4	4	11.3	4	-1E+10	1	-1E+10	1	-1E+10	1	-1E+10	1	-1E+10	1	-1E+10	1
4901784	171	C	03/10/2020	10:49	-132.777	43.363	0	1665.10	0	2.2870	0	37.0750	8	29.621	0	1645.268	0	36.8	4	11.4	4	-1E+10	1	-1E+10	1	-1E+10	1	-1E+10	1	-1E+10	1	-1E+10	1
4901784	171	C	03/10/2020	10:49	-132.777	43.363	0	1670.30	0	2.2750	0	37.0770	8	29.623	0	1650.386	0	37.1	4	11.5	4	-1E+10	1	-1E+10	1	-1E+10	1	-1E+10	1	-1E+10	1	-1E+10	1
4901784	171	C	03/10/2020	10:49	-132.777	43.363	0	1675.40	0	2.2710	0	37.0780	8	29.625	0	1655.405	0	37.4	4	11.6	4	-1E+10	1	-1E+10	1	-1E+10	1	-1E+10	1	-1E+10	1	-1E+10	1
4901784	171	C	03/10/2020	10:49	-132.777	43.363	0	1680.50	0	2.2660	0	37.0790	8	29.626	0	1660.424	0	37.8	4	11.7	4	-1E+10	1	-1E+10	1	-1E+10	1	-1E+10	1	-1E+10	1	-1E+10	1
4901784	171	C	03/10/2020	10:49	-132.777	43.363	0	1685.70	0	2.2570	0	37.0800	8	29.627	0	1665.542	0	38.2	4	11.8	4	-1E+10	1	-1E+10	1	-1E+10	1	-1E+10	1	-1E+10	1	-1E+10	1
4901784	171	C	03/10/2020	10:49	-132.777	43.363	0	1690.10	0	2.2510	0	37.0810	8	29.629	0	1669.872	0	38.5	4	11.9	4	-1E+10	1	-1E+10	1	-1E+10	1	-1E+10	1	-1E+10	1	-1E+10	1
4901784	171	C	03/10/2020	10:49	-132.777	43.363	0	1694.50	0	2.2430	0	37.0830	8	29.631	0	1674.202	0	38.8	4	12.0	4	-1E+10	1	-1E+10	1	-1E+10	1	-1E+10	1	-1E+10	1	-1E+10	1
4901784	171	C	03/10/2020	10:49	-132.777	43.363	0	1699.70	0	2.2350	0	37.0840	8	29.633	0	1679.319	0	39.0	4	12.1	4	-1E+10	1	-1E+10	1	-1E+10	1	-1E+10	1	-1E+10	1	-1E+10	1
4901784	171	C	03/10/2020	10:49	-132.777	43.363	0	1705.00	0	2.2330	0	37.0850	8	29.634	0	1684.535	0	39.2	4	12.1	4	-1E+10	1	-1E+10	1	-1E+10	1	-1E+10	1	-1E+10	1	-1E+10	1
4901784	171	C	03/10/2020	10:49	-132.777	43.363	0	1710.20	0	2.2300	0	37.0860	8	29.635	0	1689.651	0	39.4	4	12.2	4	-1E+10	1	-1E+10	1	-1E+10	1	-1E+10	1	-1E+10	1	-1E+10	1
4901784	171	C	03/10/2020	10:49	-132.777	43.363	0	1715.60	0	2.2270	0	37.0860	8	29.635	0	1694.965	0	39.6	4	12.3	4	-1E+10	1	-1E+10	1	-1E+10	1	-1E+10	1	-1E+10	1	-1E+10	1
4901784	171	C	03/10/2020	10:49	-132.777	43.363	0	1720.10	0	2.2210	0	37.0870	8	29.636	0	1699.393	0	40.0	4	12.4	4	-1E+10	1	-1E+10	1	-1E+10	1	-1E+10	1	-1E+10	1	-1E+10	1
4901784	171	C	03/10/2020	10:49	-132.777	43.363	0	1724.60	0	2.2150	0	37.0880	8	29.638	0	1703.821	0	40.2	4	12.4	4	-1E+10	1	-1E+10	1	-1E+10	1	-1E+10	1	-1E+10	1	-1E+10	1
4901784	171	C	03/10/2020	10:49	-132.777	43.363	0	1730.00	0	2.2100	0	37.0890	8	29.639	0	1709.134	0	40.5	4	12.5	4	-1E+10	1	-1E+10	1	-1E+10	1	-1E+10	1	-1E+10	1	-1E+10	1
4901784	171	C	03/10/2020	10:49	-132.777	43.363	0	1735.40	0	2.2050	0	37.0900	8	29.640	0	1714.447	0	40.9	4	12.6	4	-1E+10	1	-1E+10	1	-1E+10	1	-1E+10	1	-1E+10	1	-1E+10	1
4901784	171	C	03/10/2020	10:49	-132.777	43.363	0	1739.90	0	2.1960	0	37.0920	8	29.643	0	1718.874	0	41.3	4	12.7	4	-1E+10	1	-1E+10	1	-1E+10	1	-1E+10	1	-1E+10	1	-1E+10	1
4901784	171	C	03/10/2020	10:49	-132.777	43.363	0	1744.40	0	2.1920	0	37.0930	8	29.644	0	1723.302	0	41.6	4	12.8	4	-1E+10	1	-1E+10	1	-1E+10	1	-1E+10	1	-1E+10	1	-1E+10	1
4901784	171	C	03/10/2020	10:49	-132.777	43.363	0	1749.90	0	2.1840	0	37.0940	8	29.645	0	1728.713	0	42.0	4	13.0	4	-1E+10	1	-1E+10	1	-1E+10	1	-1E+10	1	-1E+10	1	-1E+10	1
4901784	171	C	03/10/2020	10:49	-132.777	43.363	0	1755.30	0	2.1780	0	37.0950	8	29.647	0	1734.025	0	42.3	4	13.1	4	-1E+10	1	-1E+10	1	-1E+10	1	-1E+10	1	-1E+10	1	-1E+10	1
4901784	171	C	03/10/2020	10:49	-132.777	43.363	0	1759.90	0	2.1720	0	37.0970	8	29.649	0	1738.551	0	42.5	4	13.1	4	-1E+10	1	-1E+10	1	-1E+10	1	-1E+10	1	-1E+10	1	-1E+10	1
4901784	171	C	03/10/2020	10:49	-132.777	43.363	0	1764.40	0	2.1690	0	37.0970	8	29.649	0	1742.978	0	42.8	4	13.2	4	-1E+10	1	-1E+10	1	-1E+10	1	-1E+10	1	-1E+10	1	-1E+10	1
4901784	171	C	03/10/2020	10:49	-132.777	43.363	0	1769.80	0	2.1610	0	37.0980	8	29.651	0	1748.290	0	43.3	4	13.4	4	-1E+10	1	-1E+10	1	-1E+10	1	-1E+10	1	-1E+10	1	-1E+10	1
4901784	171	C	03/10/2020	10:49	-132.777	43.363	0	1775.30	0	2.1520	0	37.1000	8	29.653	0	1753.700	0	43.8	4	13.5	4	-1E+10	1	-1E+10	1	-1E+10	1	-1E+10	1	-1E+10	1	-1E+10	1
4901784	171	C	03/10/2020	10:49	-132.777	43.363	0	1779.90	0	2.1450	0	37.1020	8	29.655	0	1758.225	0	44.1	4	13.6	4	-1E+10	1	-1E+10	1	-1E+10	1	-1E+10	1	-1E+10	1	-1E+10	1
4901784	171	C	03/10/2020	10:49	-132.777	43.363	0	1785.10	0	2.1410	0	37.1020	8	29.656	0	1763.340	0	44.5	4	13.7	4	-1E+10	1	-1E+10	1	-1E+10	1	-1E+10	1	-1E+10	1	-1E+10	1
4901784	171	C	03/10/2020	10:49	-132.777	43.363	0	1790.20	0	2.1310	0	37.1040	8	29.658	0	1768.357	0	45.0	4	13.9	4	-1E+10	1	-1E+10	1	-1E+10	1	-1E+10	1	-1E+10	1	-1E+10	1
4901784	171	C	03/10/2020	10:49	-132.777	43.363	0	1795.10	0	2.1230	0	37.1050	8	29.660	0	1773.177	0	45.5	4	14.0	4	-1E+10	1	-1E+10	1	-1E+10	1	-1E+10	1	-1E+10	1	-1E+10	1
4901784	171	C	03/10/2020	10:49	-132.777	43.363	0	1800.00	0	2.1140	0	37.1070	8	29.662	0	1777.996	0	45.9	4	14.2	4	-1E+10	1	-1E+10	1	-1E+10	1	-1E+10	1	-1E+10	1	-1E+10	1
4901784	171	C	03/10/2020	10:49	-132.777	43.363	0	1804.80	0	2.1050	0	37.1090	8	29.665	0	1782.718	0	46.3	4	14.3	4	-1E+10	1	-1E+10	1	-1E+10	1	-1E+10	1	-1E+10	1	-1E+10	1
4901784	171	C	03/10/2020	10:49	-132.777	43.363	0	1809.70	0	2.1010	0	37.1090	8	29.665	0	1787.537	0	46.6	4	14.4	4	-1E+10	1	-1E+10	1	-1E+10	1	-1E+10	1	-1E+10	1	-1E+10	1
4901784	171	C	03/10/2020	10:49	-132.777	43.363	0	1814.60	0	2.0960	0	37.1100	8	29.666	0	1792.356	0	47.0	4	14.5	4	-1E+10	1	-1E+10	1	-1E+10	1	-1E+10	1	-1E+10	1	-1E+10	1
4901784	171	C	03/10/2020	10:49	-132.777	43.363	0	1819.50	0	2.0870	0	37.1110	8	29.668	0	1797.176	0	47.6	4	14.7	4	-1E+10	1	-1E+10	1	-1E+10	1	-1E+10	1	-1E+10	1	-1E+10	1
4901784	171	C	03/10/2020	10:49	-132.777	43.363	0	1824.40	0	2.0750	0	37.1140	8	29.671	0	1801.995	0	48.0	4	14.8	4	-1E+10	1	-1E+10	1	-1E+10	1	-1E+10	1	-1E+10	1	-1E+10	1
4901784	171	C	03/10/2020	10:49	-132.777	43.363	0	1829.30	0	2.0720	0	37.1150	8	29.672	0	1806.814	0	48.3	4	14.9	4	-1E+10	1	-1E+10	1	-1E+10	1	-1E+10	1	-1E+10	1	-1E+10	1
4901784	171	C	03/10/2020	10:49	-132.777	43.363	0	1834.30	0	2.0690	0	37.1150	8	29.673	0	1811.731	0	48.6	4	15.0	4	-1E+10	1	-1E+10	1	-1E+10	1	-1E+10	1	-1E+10	1	-1E+10	1
4901784	171	C	03/10/2020	10:49	-132.777	43.363	0	1839.30	0	2.0630	0	37.1170	8	29.675	0	1816.648	0	49.0	4	15.1	4	-1E+10	1	-1E+10	1	-1E+10	1	-1E+10	1	-1E+10	1	-1E+10	1
4901784	171	C	03/10/2020	10:49	-132.777	43.363	0	1844.30	0	2.0570	0	37.1180	8	29.676	0	1821.565	0	49.3	4	15.2	4	-1E+10	1	-1E+10	1	-1E+10	1	-1E+10	1	-1E+10	1	-1E+10	1
4901784	171	C	03/10/2020	10:49	-132.777	43.363	0	1849.30	0	2.0520	0	37.1190	8	29.677	0	1826.482	0	49.7	4	15.3	4	-1E+10	1	-1E+10	1	-1E+10	1	-1E+10	1	-1E+10	1	-1E+10	1
4901784	171	C	03/10/2020	10:49	-132.777	43.363	0	1854.40	0	2.0460	0	37.1200	8	29.679	0	1831.497	0	50.1	4	15.4	4	-1E+10	1	-1E+10	1	-1E+10	1	-1E+10	1	-1E+10	1	-1E+10	1
4901784	171	C	03/10/2020	10:49	-132.777	43.363	0	1859.50	0	2.0370	0	37.1210	8	29.680	0	1836.512	0	50.5	4	15.5	4	-1E+10	1	-1E+10	1	-1E+10	1	-1E+10	1	-1E+10	1	-1E+10	1
4901784	171	C	03/10/2020	10:49	-132.777	43.363	0	1864.60	0	2.0320	0	37.1230	8	29.682	0	1841.527	0	50.9	4	15.7	4	-1E+10	1	-1E+10	1	-1E+10	1	-1E+10	1	-1E+10	1	-1E+10	1
4901784	171	C	03/10/2020	10:49	-132.777	43.363	0	1869.80	0	2.0290	0	37.1230	8	29.683	0	1846.640	0	51.2	4	15.8	4	-1E+10	1	-1E+10	1	-1E+10	1	-1E+10	1	-1E+10	1	-1E+10	1
4901784	171	C	03/10/2020	10:49	-132.777	43.363	0	1875.00	0	2.0230	0	37.1240	8	29.684	0	1851.753	0	51.6	4	15.9	4	-1E+10	1	-1E+10	1	-1E+10	1	-1E+10	1	-1E+10	1	-1E+10	1
4901784	171	C	03/10/2020	10:49	-132.777	43.363	0	1880.20	0	2.0150	0	37.1260	8	29.686	0	1856.866	0	52.0	4	16.0	4	-1E+10	1	-1E+10	1	-1E+10	1	-1E+10	1	-1E+10	1	-1E+10	1
4901784	171	C	03/10/2020	10:49	-132.777	43.363	0	1885.50	0	2.0110	0	37.1270	8	29.688	0	1862.077	0	52.4	4	16.1	4	-1E+10	1	-1E+10	1	-1E+10	1	-1E+10	1	-1E+10	1	-1E+10	1
4901784	171	C	03/10/2020	10:49	-132.777	43.363	0	1890.70	0	2.0050	0	37.1270	8	29.688	0	1867.190	0	52.7	4	16.2	4	-1E+10	1	-1E+10	1	-1E+10	1	-1E+10	1	-1E+10	1	-1E+10	1
4901784	171	C	03/10/2020	10:49	-132.777	43.363	0	1895.20	0	2.0020	0	37.1290	8	29.690	0	1871.614	0	53.0	4	16.3	4	-1E+10	1	-1E+10	1	-1E+10	1	-1E+10	1	-1E+10	1	-1E+10	1
4901784	171	C	03/10/2020	10:49	-132.777	43.363	0	1899.60	0	1.9980	0	37.1300	8	29.691	0	1875.940	0	53.3	4	16.4	4	-1E+10	1	-1E+10	1	-1E+10	1	-1E+10	1	-1E+10	1	-1E+10	1
4901784	171	C	03/10/2020	10:49	-132.777	43.363	0	1905.00	0	1.9940	0	37.1300	8	29.692	0	1881.249	0	53.6	4	16.5	4	-1E+10	1	-1E+10	1	-1E+10	1	-1E+10	1	-1E+10	1	-1E+10	1
4901784	171	C	03/10/2020	10:49	-132.777	43.363	0	1910.40	0	1.9910	0	37.1310	8	29.693	0	1886.557	0	53.9	4	16.6	4	-1E+10	1	-1E+10	1	-1E+10	1	-1E+10	1	-1E+10	1	-1E+10	1
4901784	171	C	03/10/2020	10:49	-132.777	43.363	0	1914.90	0	1.9890	0	37.1320	8	29.694	0	1890.981	0	54.1	4	16.6	4	-1E+10	1	-1E+10	1	-1E+10	1	-1E+10	1	-1E+10	1	-1E+10	1
4901784	171	C	03/10/2020	10:49	-132.777	43.363	0	1919.80	0	1.9840	0	37.1330	8	29.695	0	1895.798	0	54.5	4	16.7	4	-1E+10	1	-1E+10	1	-1E+10	1	-1E+10	1	-1E+10	1	-1E+10	1
4901784	171	C	03/10/2020	10:49	-132.777	43.363	0	1925.10	0	1.9780	0	37.1340	8	29.696	0	1901.008	0	54.8	4	16.8	4	-1E+10	1	-1E+10	1	-1E+10	1	-1E+10	1	-1E+10	1	-1E+10	1
4901784	171	C	03/10/2020	10:49	-132.777	43.363	0	1929.90	0	1.9760	0	37.1340	8	29.696	0	1905.727	0	55.0	4	16.9	4	-1E+10	1	-1E+10	1	-1E+10	1	-1E+10	1	-1E+10	1	-1E+10	1
4901784	171	C	03/10/2020	10:49	-132.777	43.363	0	1934.80	0	1.9730	0	37.1350	8	29.698	0	1910.543	0	55.2	4	17.0	4	-1E+10	1	-1E+10	1	-1E+10	1	-1E+10	1	-1E+10	1	-1E+10	1
4901784	171	C	03/10/2020	10:49	-132.777	43.363	0	1939.70	0	1.9690	0	37.1360	8	29.699	0	1915.360	0	55.6	4	17.1	4	-1E+10	1	-1E+10	1	-1E+10	1	-1E+10	1	-1E+10	1	-1E+10	1
4901784	171	C	03/10/2020	10:49	-132.777	43.363	0	1944.60	0	1.9630	0	37.1370	8	29.700	0	1920.176	0	55.9	4	17.2	4	-1E+10	1	-1E+10	1	-1E+10	1	-1E+10	1	-1E+10	1	-1E+10	1
4901784	171	C	03/10/2020	10:49	-132.777	43.363	0	1949.60	0	1.9600	0	37.1380	8	29.701	0	1925.091	0	56.2	4	17.3	4	-1E+10	1	-1E+10	1	-1E+10	1	-1E+10	1	-1E+10	1	-1E+10	1
4901784	171	C	03/10/2020	10:49	-132.777	43.363	0	1954.60	0	1.9550	0	37.1390	8	29.702	0	1930.005	0	56.5	4	17.4	4	-1E+10	1	-1E+10	1	-1E+10	1	-1E+10	1	-1E+10	1	-1E+10	1
4901784	171	C	03/10/2020	10:49	-132.777	43.363	0	1959.70	0	1.9500	0	37.1400	8	29.704	0	1935.018	0	56.8	4	17.4	4	-1E+10	1	-1E+10	1	-1E+10	1	-1E+10	1	-1E+10	1	-1E+10	1
4901784	171	C	03/10/2020	10:49	-132.777	43.363	0	1964.80	0	1.9480	0	37.1400	8	29.704	0	1940.031	0	57.0	4	17.5	4	-1E+10	1	-1E+10	1	-1E+10	1	-1E+10	1	-1E+10	1	-1E+10	1
4901784	171	C	03/10/2020	10:49	-132.777	43.363	0	1969.90	0	1.9450	0	37.1410	8	29.705	0	1945.043	0	57.2	4	17.6	4	-1E+10	1	-1E+10	1	-1E+10	1	-1E+10	1	-1E+10	1	-1E+10	1
4901784	171	C	03/10/2020	10:49	-132.777	43.363	0	1975.20	0	1.9420	0	37.1410	8	29.705	0	1950.252	0	57.5	4	17.6	4	-1E+10	1	-1E+10	1	-1E+10	1	-1E+10	1	-1E+10	1	-1E+10	1
4901784	171	C	03/10/2020	10:49	-132.777	43.363	0	1980.40	0	1.9380	0	37.1420	8	29.706	0	1955.363	0	57.8	4	17.7	4	-1E+10	1	-1E+10	1	-1E+10	1	-1E+10	1	-1E+10	1	-1E+10	1
4901784	171	C	03/10/2020	10:49	-132.777	43.363	0	1984.80	0	1.9350	0	37.1430	8	29.707	0	1959.687	0	58.0	4	17.8	4	-1E+10	1	-1E+10	1	-1E+10	1	-1E+10	1	-1E+10	1	-1E+10	1
4901784	171	C	03/10/2020	10:49	-132.777	43.363	0	1989.90	0	1.9320	0	37.1430	8	29.708	0	1964.699	0	58.3	4	17.9	4	-1E+10	1	-1E+10	1	-1E+10	1	-1E+10	1	-1E+10	1	-1E+10	1
4901784	171	C	03/10/2020	10:49	-132.777	43.363	0	1994.70	0	1.9290	0	37.1440	8	29.709	0	1969.416	0	58.6	4	18.0	4	-1E+10	1	-1E+10	1	-1E+10	1	-1E+10	1	-1E+10	1	-1E+10	1
4901784	171	C	03/10/2020	10:49	-132.777	43.363	0	2000.10	0	1.9250	0	37.1450	8	29.710	0	1974.722	0	58.9	4	18.1	4	-1E+10	1	-1E+10	1	-1E+10	1	-1E+10	1	-1E+10	1	-1E+10	1
4901784	171	C	03/10/2020	10:49	-132.777	43.363	0	2005.60	0	1.9220	0	37.1460	8	29.711	0	1980.127	0	59.2	4	18.2	4	-1E+10	1	-1E+10	1	-1E+10	1	-1E+10	1	-1E+10	1	-1E+10	1
4901784	171	C	03/10/2020	10:49	-132.777	43.363	0	2010.40	0	1.9200	0	37.1470	8	29.712	0	1984.844	0	59.4	4	18.2	4	-1E+10	1	-1E+10	1	-1E+10	1	-1E+10	1	-1E+10	1	-1E+10	1
4901784	171	C	03/10/2020	10:49	-132.777	43.363	0	2015.20	0	1.9160	0	37.1480	8	29.713	0	1989.560	0	59.6	4	18.3	4	-1E+10	1	-1E+10	1	-1E+10	1	-1E+10	1	-1E+10	1	-1E+10	1
4901784	171	C	03/10/2020	10:49	-132.777	43.363	0	2020.40	0	1.9140	0	37.1480	8	29.713	0	1994.670	0	59.6	4	18.3	4	-1E+10	1	-1E+10	1	-1E+10	1	-1E+10	1	-1E+10	1	-1E+10	1
4901784	171	C	03/10/2020	10:49	-132.777	43.363	0																										
4901784	172	C	03/20/2020	10:44	-132.755	43.319	0	2.90	0	10.6480	0	34.6720	8	26.584	0	2.877	0	262.7	4	96.8	4	-1E+10	1	-1E+10	1	-1E+10	1	-1E+10	1	-1E+10	1	-1E+10	1
4901784	172	C	03/20/2020	10:44	-132.755	43.319	0	4.20	0	10.6510	0	34.6730	8	26.584	0	4.167	0	262.6	4	96.7	4	-1E+10	1	-1E+10	1	-1E+10	1	-1E+10	1	-1E+10	1	-1E+10	1
4901784	172	C	03/20/2020	10:44	-132.755	43.319	0	5.70	0	10.6450	0	34.6730	8	26.585	0	5.655	0	262.6	4	96.7	4	-1E+10	1	-1E+10	1	-1E+10	1	-1E+10	1	-1E+10	1	-1E+10	1
4901784	172	C	03/20/2020	10:44	-132.755	43.319	0	7.10	0	10.6590	0	34.6730	8	26.583	0	7.043	0	262.6	4	96.8	4	-1E+10	1	-1E+10	1	-1E+10	1	-1E+10	1	-1E+10	1	-1E+10	1
4901784	172	C	03/20/2020	10:44	-132.755	43.319	0	8.60	0	10.6520	0	34.6730	8	26.584	0	8.531	0	262.7	4	96.8	4	-1E+10	1	-1E+10	1	-1E+10	1	-1E+10	1	-1E+10	1	-1E+10	1
4901784	172	C	03/20/2020	10:44	-132.755	43.319	0	10.10	0	10.6540	0	34.6730	8	26.583	0	10.019	0	262.5	4	96.7	4	-1E+10	1	-1E+10	1	-1E+10	1	-1E+10	1	-1E+10	1	-1E+10	1
4901784	172	C	03/20/2020	10:44	-132.755	43.319	0	11.70	0	10.6510	0	34.6750	8	26.586	0	11.606	0	262.6	4	96.7	4	-1E+10	1	-1E+10	1	-1E+10	1	-1E+10	1	-1E+10	1	-1E+10	1
4901784	172	C	03/20/2020	10:44	-132.755	43.319	0	13.30	0	10.6390	0	34.6780	8	26.590	0	13.194	0	262.5	4	96.7	4	-1E+10	1	-1E+10	1	-1E+10	1	-1E+10	1	-1E+10	1	-1E+10	1
4901784	172	C	03/20/2020	10:44	-132.755	43.319	0	14.90	0	10.6310	0	34.6790	8	26.592	0	14.781	0	262.3	4	96.6	4	-1E+10	1	-1E+10	1	-1E+10	1	-1E+10	1	-1E+10	1	-1E+10	1
4901784	172	C	03/20/2020	10:44	-132.755	43.319	0	16.50	0	10.6230	0	34.6800	8	26.595	0	16.368	0	262.6	4	96.7	4	-1E+10	1	-1E+10	1	-1E+10	1	-1E+10	1	-1E+10	1	-1E+10	1
4901784	172	C	03/20/2020	10:44	-132.755	43.319	0	18.10	0	10.6190	0	34.6820	8	26.597	0	17.955	0	262.4	4	96.6	4	-1E+10	1	-1E+10	1	-1E+10	1	-1E+10	1	-1E+10	1	-1E+10	1
4901784	172	C	03/20/2020	10:44	-132.755	43.319	0	19.80	0	10.6290	0	34.6830	8	26.596	0	19.641	0	262.4	4	96.6	4	-1E+10	1	-1E+10	1	-1E+10	1	-1E+10	1	-1E+10	1	-1E+10	1
4901784	172	C	03/20/2020	10:44	-132.755	43.319	0	21.50	0	10.6230	0	34.6840	8	26.598	0	21.328	0	262.2	4	96.6	4	-1E+10	1	-1E+10	1	-1E+10	1	-1E+10	1	-1E+10	1	-1E+10	1
4901784	172	C	03/20/2020	10:44	-132.755	43.319	0	23.10	0	10.6210	0	34.6830	8	26.597	0	22.915	0	262.2	4	96.5	4	-1E+10	1	-1E+10	1	-1E+10	1	-1E+10	1	-1E+10	1	-1E+10	1
4901784	172	C	03/20/2020	10:44	-132.755	43.319	0	24.80	0	10.6180	0	34.6840	8	26.599	0	24.601	0	262.3	4	96.6	4	-1E+10	1	-1E+10	1	-1E+10	1	-1E+10	1	-1E+10	1	-1E+10	1
4901784	172	C	03/20/2020	10:44	-132.755	43.319	0	26.50	0	10.6180	0	34.6840	8	26.599	0	26.287	0	262.2	4	96.5	4	-1E+10	1	-1E+10	1	-1E+10	1	-1E+10	1	-1E+10	1	-1E+10	1
4901784	172	C	03/20/2020	10:44	-132.755	43.319	0	28.20	0	10.6190	0	34.6860	8	26.600	0	27.974	0	261.9	4	96.4	4	-1E+10	1	-1E+10	1	-1E+10	1	-1E+10	1	-1E+10	1	-1E+10	1
4901784	172	C	03/20/2020	10:44	-132.755	43.319	0	29.90	0	10.6200	0	34.6860	8	26.600	0	29.660	0	261.9	4	96.4	4	-1E+10	1	-1E+10	1	-1E+10	1	-1E+10	1	-1E+10	1	-1E+10	1
4901784	172	C	03/20/2020	10:44	-132.755	43.319	0	31.60	0	10.6150	0	34.6860	8	26.601	0	31.346	0	261.9	4	96.4	4	-1E+10	1	-1E+10	1	-1E+10	1	-1E+10	1	-1E+10	1	-1E+10	1
4901784	172	C	03/20/2020	10:44	-132.755	43.319	0	33.30	0	10.6130	0	34.6870	8	26.602	0	33.032	0	261.5	4	96.3	4	-1E+10	1	-1E+10	1	-1E+10	1	-1E+10	1	-1E+10	1	-1E+10	1
4901784	172	C	03/20/2020	10:44	-132.755	43.319	0	35.00	0	10.6120	0	34.6870	8	26.602	0	34.718	0	261.6	4	96.3	4	-1E+10	1	-1E+10	1	-1E+10	1	-1E+10	1	-1E+10	1	-1E+10	1
4901784	172	C	03/20/2020	10:44	-132.755	43.319	0	36.70	0	10.6040	0	34.6860	8	26.603	0	36.405	0	261.5	4	96.3	4	-1E+10	1	-1E+10	1	-1E+10	1	-1E+10	1	-1E+10	1	-1E+10	1
4901784	172	C	03/20/2020	10:44	-132.755	43.319	0	38.40	0	10.6030	0	34.6870	8	26.604	0	38.091	0	261.4	4	96.2	4	-1E+10	1	-1E+10	1	-1E+10	1	-1E+10	1	-1E+10	1	-1E+10	1
4901784	172	C	03/20/2020	10:44	-132.755	43.319	0	40.10	0	10.6020	0	34.6870	8	26.604	0	39.777	0	261.5	4	96.2	4	-1E+10	1	-1E+10	1	-1E+10	1	-1E+10	1	-1E+10	1	-1E+10	1
4901784	172	C	03/20/2020	10:44	-132.755	43.319	0	41.80	0	10.6000	0	34.6880	8	26.605	0	41.463	0	261.4	4	96.2	4	-1E+10	1	-1E+10	1	-1E+10	1	-1E+10	1	-1E+10	1	-1E+10	1
4901784	172	C	03/20/2020	10:44	-132.755	43.319	0	43.60	0	10.6010	0	34.6880	8	26.605	0	43.248	0	261.5	4	96.2	4	-1E+10	1	-1E+10	1	-1E+10	1	-1E+10	1	-1E+10	1	-1E+10	1
4901784	172	C	03/20/2020	10:44	-132.755	43.319	0	45.30	0	10.6010	0	34.6890	8	26.606	0	44.934	0	261.4	4	96.2	4	-1E+10	1	-1E+10	1	-1E+10	1	-1E+10	1	-1E+10	1	-1E+10	1
4901784	172	C	03/20/2020	10:44	-132.755	43.319	0	47.00	0	10.6010	0	34.6890	8	26.606	0	46.620	0	261.4	4	96.2	4	-1E+10	1	-1E+10	1	-1E+10	1	-1E+10	1	-1E+10	1	-1E+10	1
4901784	172	C	03/20/2020	10:44	-132.755	43.319	0	48.80	0	10.6000	0	34.6900	8	26.607	0	48.406	0	261.4	4	96.2	4	-1E+10	1	-1E+10	1	-1E+10	1	-1E+10	1	-1E+10	1	-1E+10	1
4901784	172	C	03/20/2020	10:44	-132.755	43.319	0	50.50	0	10.6030	0	34.6910	8	26.607	0	50.092	0	261.4	4	96.2	4	-1E+10	1	-1E+10	1	-1E+10	1	-1E+10	1	-1E+10	1	-1E+10	1
4901784	172	C	03/20/2020	10:44	-132.755	43.319	0	52.30	0	10.6100	0	34.6920	8	26.607	0	51.877	0	261.3	4	96.2	4	-1E+10	1	-1E+10	1	-1E+10	1	-1E+10	1	-1E+10	1	-1E+10	1
4901784	172	C	03/20/2020	10:44	-132.755	43.319	0	54.10	0	10.5800	0	34.6900	8	26.611	0	53.662	0	261.5	4	96.2	4	-1E+10	1	-1E+10	1	-1E+10	1	-1E+10	1	-1E+10	1	-1E+10	1
4901784	172	C	03/20/2020	10:44	-132.755	43.319	0	55.90	0	10.5780	0	34.6900	8	26.611	0	55.447	0	261.4	4	96.2	4	-1E+10	1	-1E+10	1	-1E+10	1	-1E+10	1	-1E+10	1	-1E+10	1
4901784	172	C	03/20/2020	10:44	-132.755	43.319	0	57.60	0	10.5770	0	34.6910	8	26.612	0	57.133	0	261.5	4	96.2	4	-1E+10	1	-1E+10	1	-1E+10	1	-1E+10	1	-1E+10	1	-1E+10	1
4901784	172	C	03/20/2020	10:44	-132.755	43.319	0	59.50	0	10.5770	0	34.6920	8	26.613	0	59.018	0	261.5	4	96.2	4	-1E+10	1	-1E+10	1	-1E+10	1	-1E+10	1	-1E+10	1	-1E+10	1
4901784	172	C	03/20/2020	10:44	-132.755	43.319	0	61.20	0	10.5760	0	34.6920	8	26.613	0	60.704	0	261.3	4	96.1	4	-1E+10	1	-1E+10	1	-1E+10	1	-1E+10	1	-1E+10	1	-1E+10	1
4901784	172	C	03/20/2020	10:44	-132.755	43.319	0	63.00	0	10.5760	0	34.6930	8	26.614	0	62.489	0	261.4	4	96.2	4	-1E+10	1	-1E+10	1	-1E+10	1	-1E+10	1	-1E+10	1	-1E+10	1
4901784	172	C	03/20/2020	10:44	-132.755	43.319	0	64.80	0	10.5750	0	34.6930	8	26.614	0	64.274	0	261.2	4	96.1	4	-1E+10	1	-1E+10	1	-1E+10	1	-1E+10	1	-1E+10	1	-1E+10	1
4901784	172	C	03/20/2020	10:44	-132.755	43.319	0	66.60	0	10.5750	0	34.6940	8	26.615	0	66.059	0	261.2	4	96.1	4	-1E+10	1	-1E+10	1	-1E+10	1	-1E+10	1	-1E+10	1	-1E+10	1
4901784	172	C	03/20/2020	10:44	-132.755	43.319	0	68.50	0	10.5750	0	34.6940	8	26.615	0	67.943	0	260.9	4	96.0	4	-1E+10	1	-1E+10	1	-1E+10	1	-1E+10	1	-1E+10	1	-1E+10	1
4901784	172	C	03/20/2020	10:44	-132.755	43.319	0	70.20	0	10.5740	0	34.6950	8	26.616	0	69.629	0	261.2	4	96.1	4	-1E+10	1	-1E+10	1	-1E+10	1	-1E+10	1	-1E+10	1	-1E+10	1
4901784	172	C	03/20/2020	10:44	-132.755	43.319	0	72.00	0	10.5740	0	34.6960	8	26.617	0	71.414	0	261.1	4	96.1	4	-1E+10	1	-1E+10	1	-1E+10	1	-1E+10	1	-1E+10	1	-1E+10	1
4901784	172	C	03/20/2020	10:44	-132.755	43.319	0	73.80	0	10.5740	0	34.6960	8	26.617	0	73.199	0	261.1	4	96.1	4	-1E+10	1	-1E+10	1	-1E+10	1	-1E+10	1	-1E+10	1	-1E+10	1
4901784	172	C	03/20/2020	10:44	-132.755	43.319	0	75.60	0	10.5730	0	34.6970	8	26.618	0	74.984	0	261.0	4	96.0	4	-1E+10	1	-1E+10	1	-1E+10	1	-1E+10	1	-1E+10	1	-1E+10	1
4901784	172	C	03/20/2020	10:44	-132.755	43.319	0	77.40	0	10.5740	0	34.6980	8	26.619	0	76.769	0	261.1	4	96.0	4	-1E+10	1	-1E+10	1	-1E+10	1	-1E+10	1	-1E+10	1	-1E+10	1
4901784	172	C	03/20/2020	10:44	-132.755	43.319	0	79.20	0	10.5750	0	34.6980	8	26.618	0	78.554	0	260.8	4	95.9	4	-1E+10	1	-1E+10	1	-1E+10	1	-1E+10	1	-1E+10	1	-1E+10	1
4901784	172	C	03/20/2020	10:44	-132.755	43.319	0	81.00	0	10.5750	0	34.6990	8	26.619	0	80.339	0	260.9	4	96.0	4	-1E+10	1	-1E+10	1	-1E+10	1	-1E+10	1	-1E+10	1	-1E+10	1
4901784	172	C	03/20/2020	10:44	-132.755	43.319	0	82.90	0	10.5760	0	34.7000	8	26.620	0	82.223	0	260.9	4	96.0	4	-1E+10	1	-1E+10	1	-1E+10	1	-1E+10	1	-1E+10	1	-1E+10	1
4901784	172	C	03/20/2020	10:44	-132.755	43.319	0	84.70	0	10.5750	0	34.7010	8	26.621	0	84.008	0	260.7	4	95.9	4	-1E+10	1	-1E+10	1	-1E+10	1	-1E+10	1	-1E+10	1	-1E+10	1
4901784	172	C	03/20/2020	10:44	-132.755	43.319	0	86.60	0	10.5740	0	34.7010	8	26.621	0	85.892	0	260.8	4	95.9	4	-1E+10	1	-1E+10	1	-1E+10	1	-1E+10	1	-1E+10	1	-1E+10	1
4901784	172	C	03/20/2020	10:44	-132.755	43.319	0	88.40	0	10.5750	0	34.7020	8	26.622	0	87.677	0	260.4	4	95.8	4	-1E+10	1	-1E+10	1	-1E+10	1	-1E+10	1	-1E+10	1	-1E+10	1
4901784	172	C	03/20/2020	10:44	-132.755	43.319	0	90.30	0	10.5870	0	34.7040	8	26.621	0	89.561	0	260.2	4	95.8	4	-1E+10	1	-1E+10	1	-1E+10	1	-1E+10	1	-1E+10	1	-1E+10	1
4901784	172	C	03/20/2020	10:44	-132.755	43.319	0	92.20	0	10.5850	0	34.7050	8	26.622	0	91.445	0	260.0	4	95.7	4	-1E+10	1	-1E+10	1	-1E+10	1	-1E+10	1	-1E+10	1	-1E+10	1
4901784	172	C	03/20/2020	10:44	-132.755	43.319	0	94.00	0	10.5900	0	34.7070	8	26.623	0	93.230	0	259.7	4	95.6	4	-1E+10	1	-1E+10	1	-1E+10	1	-1E+10	1	-1E+10	1	-1E+10	1
4901784	172	C	03/20/2020	10:44	-132.755	43.319	0	95.90	0	10.5850	0	34.7060	8	26.623	0	95.114	0	259.4	4	95.5	4	-1E+10	1	-1E+10	1	-1E+10	1	-1E+10	1	-1E+10	1	-1E+10	1
4901784	172	C	03/20/2020	10:44	-132.755	43.319	0	97.70	0	10.5800	0	34.7050	8	26.623	0	96.899	0	259.3	4	95.4	4	-1E+10	1	-1E+10	1	-1E+10	1	-1E+10	1	-1E+10	1	-1E+10	1
4901784	172	C	03/20/2020	10:44	-132.755	43.319	0	99.50	0	10.5730	0	34.7070	8	26.626	0	98.684	0	258.5	4	95.1	4	-1E+10	1	-1E+10	1	-1E+10	1	-1E+10	1	-1E+10	1	-1E+10	1
4901784	172	C	03/20/2020	10:44	-132.755	43.319	0	102.30	0	10.5760	0	34.7060	8	26.625	0	101.460	0	257.8	4	94.8	4	-1E+10	1	-1E+10	1	-1E+10	1	-1E+10	1	-1E+10	1	-1E+10	1
4901784	172	C	03/20/2020	10:44	-132.755	43.319	0	105.00	0	10.5750	0	34.7060	8	26.625	0	104.137	0	256.3	4	94.3	4	-1E+10	1	-1E+10	1	-1E+10	1	-1E+10	1	-1E+10	1	-1E+10	1
4901784	172	C	03/20/2020	10:44	-132.755	43.319	0	106.80	0	10.5740	0	34.7040	8	26.624	0	105.922	0	254.8	4	93.7	4	-1E+10	1	-1E+10	1	-1E+10	1	-1E+10	1	-1E+10	1	-1E+10	1
4901784	172	C	03/20/2020	10:44	-132.755	43.319	0	109.70	0	10.5660	0	34.6980	8	26.621	0	108.797	0	251.3	4	92.4	4	-1E+10	1	-1E+10	1	-1E+10	1	-1E+10	1	-1E+10	1	-1E+10	1
4901784	172	C	03/20/2020	10:44	-132.755	43.319	0	112.90	0	10.4620	0	34.7020	8	26.642	0	111.970	0	243.2	4	89.2	4	-1E+10	1	-1E+10	1	-1E+10	1	-1E+10	1	-1E+10	1	-1E+10	1
4901784	172	C	03/20/2020	10:44	-132.755	43.319	0	115.10	0	10.2820	0	34.7330	8	26.698	0	114.152	0	236.5	4	86.5	4	-1E+10	1	-1E+10	1	-1E+10	1	-1E+10	1	-1E+10	1	-1E+10	1
4901784	172	C	03/20/2020	10:44	-132.755	43.319	0	117.20	0	9.8360	0	34.8170	8	26.840	0	116.234	0	232.7	4	84.3	4	-1E+10	1	-1E+10	1	-1E+10	1	-1E+10	1	-1E+10	1	-1E+10	1
4901784	172	C	03/20/2020	10:44	-132.755	43.319	0	120.20	0	9.4920	0	34.8690	8	26.938	0	119.208	0	229.8	4	82.7	4	-1E+10	1	-1E+10	1	-1E+10	1	-1E+10	1	-1E+10	1	-1E+10	1
4901784	172	C	03/20/2020	10:44	-132.755	43.319	0	122.40	0	9.2300	0	34.9210	8	27.022	0	121.389	0	227.9	4	81.6	4	-1E+10	1	-1E+10	1	-1E+10	1	-1E+10	1	-1E+10	1	-1E+10	1
4901784	172	C	03/20/2020	10:44	-132.755	43.319	0	124.90	0	8.9750	0	34.9610	8	27.094	0	123.868	0	226.1	4	80.5	4	-1E+10	1	-1E+10	1	-1E+10	1	-1E+10	1	-1E+10	1	-1E+10	1
4901784	172	C	03/20/2020	10:44	-132.755	43.319	0	127.40	0	8.7260	0	35.0300	8	27.188	0	126.346	0	224.6	4	79.6	4	-1E+10	1	-1E+10	1	-1E+10	1	-1E+10	1	-1E+10	1	-1E+10	1
4901784	172	C	03/20/2020	10:44	-132.755	43.319	0	129.90	0	8.6290	0	35.1150	8	27.270	0	128.825	0	223.0	4	78.9	4	-1E+10	1	-1E+10	1	-1E+10	1	-1E+10	1	-1E+10	1	-1E+10	1
4901784	172	C	03/20/2020	10:44	-132.755	43.319	0	132.50	0	8.6530	0	35.1980	8	27.331	0	131.403	0	220.7	4	78.2	4	-1E+10	1	-1E+10	1	-1E+10	1	-1E+10	1	-1E+10	1	-1E+10	1
4901784	172	C	03/20/2020	10:44	-132.755	43.319	0	135.10	0	8.5910	0	35.2340	8	27.369	0	133.980	0	219.8	4	77.7	4	-1E+10	1	-1E+10	1	-1E+10	1	-1E+10	1	-1E+10	1	-1E+10	1
4901784	172	C	03/20/2020	10:44	-132.755	43.319	0	137.60	0	8.5300	0	35.2660	8	27.404	0	136.459	0	218.9	4	77.4	4	-1E+10	1	-1E+10	1	-1E+10	1	-1E+10	1	-1E+10	1	-1E+10	1
4901784	172	C	03/20/2020	10:44	-132.755	43.319	0	140.20	0	8.4970	0	35.2860	8	27.425	0	139.036	0	217.7	4	76.9	4	-1E+10	1	-1E+10	1	-1E+10	1	-1E+10	1	-1E+10	1	-1E+10	1
4901784	172	C	03/20/2020	10:44	-132.755	43.319	0	142.90	0	8.4440	0	35.3420	8	27.477	0	141.713	0	216.4	4	76.4	4	-1E+10	1	-1E+10	1	-1E+10	1	-1E+10	1	-1E+10	1	-1E+10	1
4901784	172	C	03/20/2020	10:44	-132.755	43.319	0	144.70	0	8.4280	0	35.3500	8	27.486	0	143.497	0	215.5	4	76.0	4	-1E+10	1	-1E+10	1	-1E+10	1	-1E+10	1	-1E+10	1	-1E+10	1
4901784	172	C	03/20/2020	10:44	-132.755	43.319	0	147.50	0	8.3630	0	35.3980	8	27.534	0	146.273	0	213.9	4	75.4	4	-1E+10	1	-1E+10	1	-1E+10	1	-1E+10	1	-1E+10	1	-1E+10	1
4901784	172	C	03/20/2020	10:44	-132.755	43.319	0	149.60	0	8.2600	0	35.4880	8	27.620	0	148.355	0	212.9	4	74.9	4	-1E+10	1	-1E+10	1	-1E+10	1	-1E+10	1	-1E+10	1	-1E+10	1
4901784	172	C	03/20/2020	10:44	-132.755	43.319	0	152.50	0	8.1880	0	35.5460	8	27.677	0	151.230	0	212.1	4	74.5	4	-1E+10	1	-1E+10	1	-1E+10	1	-1E+10	1	-1E+10	1	-1E+10	1
4901784	172	C	03/20/2020	10:44	-132.755	43.319	0	154.80	0	8.1620	0	35.5660	8	27.697	0	153.510	0	211.6	4	74.3	4	-1E+10	1	-1E+10	1	-1E+10	1	-1E+10	1	-1E+10	1	-1E+10	1
4901784	172	C	03/20/2020	10:44	-132.755	43.319	0	157.20	0	8.1420	0	35.5840	8	27.714	0	155.889	0	210.9	4	74.0	4	-1E+10	1	-1E+10	1	-1E+10	1	-1E+10	1	-1E+10	1	-1E+10	1
4901784	172	C	03/20/2020	10:44	-132.755	43.319	0	160.20	0	8.1250	0	35.6140	8	27.740	0	158.863	0	209.5	4	73.6	4	-1E+10	1	-1E+10	1	-1E+10	1	-1E+10	1	-1E+10	1	-1E+10	1
4901784	172	C	03/20/2020	10:44	-132.755	43.319	0	162.60	0	8.1010	0	35.6420	8	27.766	0	161.242	0	208.8	4	73.3	4	-1E+10	1	-1E+10	1	-1E+10	1	-1E+10	1	-1E+10	1	-1E+10	1
4901784	172	C	03/20/2020	10:44	-132.755	43.319	0	165.00	0	8.0850	0	35.6570	8	27.780	0	163.621	0	207.4	4	72.8	4	-1E+10	1	-1E+10	1	-1E+10	1	-1E+10	1	-1E+10	1	-1E+10	1
4901784	172	C	03/20/2020	10:44	-132.755	43.319	0	167.40	0	8.0640	0	35.7070	8	27.823	0	166.000	0	206.1	4	72.3	4	-1E+10	1	-1E+10	1	-1E+10	1	-1E+10	1	-1E+10	1	-1E+10	1
4901784	172	C	03/20/2020	10:44	-132.755	43.319	0	169.90	0	8.0280	0	35.7640	8	27.873	0	168.478	0	204.8	4	71.8	4	-1E+10	1	-1E+10	1	-1E+10	1	-1E+10	1	-1E+10	1	-1E+10	1
4901784	172	C	03/20/2020	10:44	-132.755	43.319	0	172.50	0	7.9720	0	35.7960	8	27.907	0	171.055	0	204.0	4	71.5	4	-1E+10	1	-1E+10	1	-1E+10	1	-1E+10	1	-1E+10	1	-1E+10	1
4901784	172	C	03/20/2020	10:44	-132.755	43.319	0	174.90	0	7.9370	0	35.8160	8	27.928	0	173.434	0	203.2	4	71.1	4	-1E+10	1	-1E+10	1	-1E+10	1	-1E+10	1	-1E+10	1	-1E+10	1
4901784	172	C	03/20/2020	10:44	-132.755	43.319	0	177.80	0	7.9300	0	35.8320	8	27.941	0	176.308	0	201.3	4	70.5	4	-1E+10	1	-1E+10	1	-1E+10	1	-1E+10	1	-1E+10	1	-1E+10	1
4901784	172	C	03/20/2020	10:44	-132.755	43.319	0	180.20	0	7.9900	0	35.8770	8	27.968	0	178.687	0	199.2	4	69.9	4	-1E+10	1	-1E+10	1	-1E+10	1	-1E+10	1	-1E+10	1	-1E+10	1
4901784	172	C	03/20/2020	10:44	-132.755	43.319	0	182.40	0	8.0050	0	35.9020	8	27.985	0	180.868	0	197.8	4	69.4	4	-1E+10	1	-1E+10	1	-1E+10	1	-1E+10	1	-1E+10	1	-1E+10	1
4901784	172	C	03/20/2020	10:44	-132.755	43.319	0	184.60	0	7.9730	0	35.9490	8	28.027	0	183.048	0	197.2	4	69.2	4	-1E+10	1	-1E+10	1	-1E+10	1	-1E+10	1	-1E+10	1	-1E+10	1
4901784	172	C	03/20/2020	10:44	-132.755	43.319	0	187.70	0	7.9130	0	35.9620	8	28.046	0	186.121	0	196.8	4	68.9	4	-1E+10	1	-1E+10	1	-1E+10	1	-1E+10	1	-1E+10	1	-1E+10	1
4901784	172	C	03/20/2020	10:44	-132.755	43.319	0	190.00	0	7.8510	0	36.0020	8	28.087	0	188.400	0	196.4	4	68.7	4	-1E+10	1	-1E+10	1	-1E+10	1	-1E+10	1	-1E+10	1	-1E+10	1
4901784	172	C	03/20/2020	10:44	-132.755	43.319	0	192.40	0	7.8510	0	36.0020	8	28.087	0	190.779	0	195.9	4	68.6	4	-1E+10	1	-1E+10	1	-1E+10	1	-1E+10	1	-1E+10	1	-1E+10	1
4901784	172	C	03/20/2020	10:44	-132.755	43.319	0	194.90	0	7.8500	0	36.0040	8	28.089	0	193.257	0	195.2	4	68.3	4	-1E+10	1	-1E+10	1	-1E+10	1	-1E+10	1	-1E+10	1	-1E+10	1
4901784	172	C	03/20/2020	10:44	-132.755	43.319	0	197.40	0	7.8770	0	36.0210	8	28.098	0	195.734	0	193.9	4	67.9	4	-1E+10	1	-1E+10	1	-1E+10	1	-1E+10	1	-1E+10	1	-1E+10	1
4901784	172	C	03/20/2020	10:44	-132.755	43.319	0	199.80	0	7.9070	0	36.0340	8	28.104	0	198.113	0	193.0	4	67.6	4	-1E+10	1	-1E+10	1	-1E+10	1	-1E+10	1	-1E+10	1	-1E+10	1
4901784	172	C	03/20/2020	10:44	-132.755	43.319	0	202.30	0	7.8580	0	36.0600	8	28.132	0	200.591	0	192.6	4	67.4	4	-1E+10	1	-1E+10	1	-1E+10	1	-1E+10	1	-1E+10	1	-1E+10	1
4901784	172	C	03/20/2020	10:44	-132.755	43.319	0	204.80	0	7.8400	0	36.0600	8	28.135	0	203.068	0	191.9	4	67.2	4	-1E+10	1	-1E+10	1	-1E+10	1	-1E+10	1	-1E+10	1	-1E+10	1
4901784	172	C	03/20/2020	10:44	-132.755	43.319	0	207.30	0	7.8320	0	36.0650	8	28.140	0	205.546	0	190.3	4	66.6	4	-1E+10	1	-1E+10	1	-1E+10	1	-1E+10	1	-1E+10	1	-1E+10	1
4901784	172	C	03/20/2020	10:44	-132.755	43.319	0	209.70	0	7.8430	0	36.0940	8	28.161	0	207.924	0	187.9	4	65.8	4	-1E+10	1	-1E+10	1	-1E+10	1	-1E+10	1	-1E+10	1	-1E+10	1
4901784	172	C	03/20/2020	10:44	-132.755	43.319	0	212.30	0	7.8820	0	36.1220	8	28.177	0	210.501	0	185.5	4	65.0	4	-1E+10	1	-1E+10	1	-1E+10	1	-1E+10	1	-1E+10	1	-1E+10	1
4901784	172	C	03/20/2020	10:44	-132.755	43.319	0	215.00	0	7.9540	0	36.1530	8	28.191	0	213.177	0	183.0	4	64.3	4	-1E+10	1	-1E+10	1	-1E+10	1	-1E+10	1	-1E+10	1	-1E+10	1
4901784	172	C	03/20/2020	10:44	-132.755	43.319	0	217.60	0	7.9400	0	36.1750	8	28.210	0	215.753	0	181.2	4	63.6	4	-1E+10	1	-1E+10	1	-1E+10	1	-1E+10	1	-1E+10	1	-1E+10	1
4901784	172	C	03/20/2020	10:44	-132.755	43.319	0	220.20	0	7.9400	0	36.1790	8	28.213	0	218.330	0	179.5	4	63.0	4	-1E+10	1	-1E+10	1	-1E+10	1	-1E+10	1	-1E+10	1	-1E+10	1
4901784	172	C	03/20/2020	10:44	-132.755	43.319	0	222.80	0	7.9380	0	36.1830	8	28.217	0	220.907	0	177.2	4	62.2	4	-1E+10	1	-1E+10	1	-1E+10	1	-1E+10	1	-1E+10	1	-1E+10	1
4901784	172	C	03/20/2020	10:44	-132.755	43.319	0	225.50	0	7.9420	0	36.1990	8	28.229	0	223.582	0	174.2	4	61.2	4	-1E+10	1	-1E+10	1	-1E+10	1	-1E+10	1	-1E+10	1	-1E+10	1
4901784	172	C	03/20/2020	10:44	-132.755	43.319	0	227.20	0	7.9330	0	36.2140	8	28.242	0	225.267	0	172.6	4	60.6	4	-1E+10	1	-1E+10	1	-1E+10	1	-1E+10	1	-1E+10	1	-1E+10	1
4901784	172	C	03/20/2020	10:44	-132.755	43.319	0	229.90	0	7.9240	0	36.2320	8	28.258	0	227.942	0	171.4	4	60.2	4	-1E+10	1	-1E+10	1	-1E+10	1	-1E+10	1	-1E+10	1	-1E+10	1
4901784	172	C	03/20/2020	10:44	-132.755	43.319	0	232.70	0	7.9210	0	36.2360	8	28.261	0	230.717	0	170.6	4	59.9	4	-1E+10	1	-1E+10	1	-1E+10	1	-1E+10	1	-1E+10	1	-1E+10	1
4901784	172	C	03/20/2020	10:44	-132.755	43.319	0	235.30	0	7.9180	0	36.2420	8	28.266	0	233.293	0	169.3	4	59.4	4	-1E+10	1	-1E+10	1	-1E+10	1	-1E+10	1	-1E+10	1	-1E+10	1
4901784	172	C	03/20/2020	10:44	-132.755	43.319	0	238.10	0	7.9130	0	36.2440	8	28.269	0	236.068	0	167.3	4	58.7	4	-1E+10	1	-1E+10	1	-1E+10	1	-1E+10	1	-1E+10	1	-1E+10	1
4901784	172	C	03/20/2020	10:44	-132.755	43.319	0	239.90	0	7.8910	0	36.2530	8	28.279	0	237.851	0	165.9	4	58.2	4	-1E+10	1	-1E+10	1	-1E+10	1	-1E+10	1	-1E+10	1	-1E+10	1
4901784	172	C	03/20/2020	10:44	-132.755	43.319	0	242.60	0	7.8610	0	36.2630	8	28.292	0	240.527	0	164.7	4	57.8	4	-1E+10	1	-1E+10	1	-1E+10	1	-1E+10	1	-1E+10	1	-1E+10	1
4901784	172	C	03/20/2020	10:44	-132.755	43.319	0	245.40	0	7.8230	0	36.2720	8	28.305	0	243.301	0	164.1	4	57.5	4	-1E+10	1	-1E+10	1	-1E+10	1	-1E+10	1	-1E+10	1	-1E+10	1
4901784	172	C	03/20/2020	10:44	-132.755	43.319	0	247.30	0	7.8180	0	36.2730	8	28.306	0	245.184	0	163.8	4	57.4	4	-1E+10	1	-1E+10	1	-1E+10	1	-1E+10	1	-1E+10	1	-1E+10	1
4901784	172	C	03/20/2020	10:44	-132.755	43.319	0	250.10	0	7.8090	0	36.2740	8	28.308	0	247.958	0	163.2	4	57.2	4	-1E+10	1	-1E+10	1	-1E+10	1	-1E+10	1	-1E+10	1	-1E+10	1
4901784	172	C	03/20/2020	10:44	-132.755	43.319	0	252.90	0	7.7990	0	36.2730	8	28.309	0	250.732	0	162.5	4	56.9	4	-1E+10	1	-1E+10	1	-1E+10	1	-1E+10	1	-1E+10	1	-1E+10	1
4901784	172	C	03/20/2020	10:44	-132.755	43.319	0	254.80	0	7.7610	0	36.2800	8	28.320	0	252.615	0	161.9	4	56.7	4	-1E+10	1	-1E+10	1	-1E+10	1	-1E+10	1	-1E+10	1	-1E+10	1
4901784	172	C	03/20/2020	10:44	-132.755	43.319	0	257.60	0	7.7420	0	36.2780	8	28.322	0	255.389	0	161.4	4	56.4	4	-1E+10	1	-1E+10	1	-1E+10	1	-1E+10	1	-1E+10	1	-1E+10	1
4901784	172	C	03/20/2020	10:44	-132.755	43.319	0	260.40	0	7.6850	0	36.2800	8	28.332	0	258.164	0	160.8	4	56.2	4	-1E+10	1	-1E+10	1	-1E+10	1	-1E+10	1	-1E+10	1	-1E+10	1
4901784	172	C	03/20/2020	10:44	-132.755	43.319	0	262.20	0	7.6130	0	36.2860	8	28.347	0	259.947	0	160.5	4	56.0	4	-1E+10	1	-1E+10	1	-1E+10	1	-1E+10	1	-1E+10	1	-1E+10	1
4901784	172	C	03/20/2020	10:44	-132.755	43.319	0	265.00	0	7.5940	0	36.2870	8	28.351	0	262.721	0	159.9	4	55.7	4	-1E+10	1	-1E+10	1	-1E+10	1	-1E+10	1	-1E+10	1	-1E+10	1
4901784	172	C	03/20/2020	10:44	-132.755	43.319	0	267.70	0	7.5840	0	36.2860	8	28.352	0	265.396	0	159.2	4	55.5	4	-1E+10	1	-1E+10	1	-1E+10	1	-1E+10	1	-1E+10	1	-1E+10	1
4901784	172	C	03/20/2020	10:44	-132.755	43.319	0	269.50	0	7.5730	0	36.2860	8	28.353	0	267.180	0	158.5	4	55.2	4	-1E+10	1	-1E+10	1	-1E+10	1	-1E+10	1	-1E+10	1	-1E+10	1
4901784	172	C	03/20/2020	10:44	-132.755	43.319	0	272.30	0	7.5350	0	36.2850	8	28.358	0	269.954	0	157.5	4	54.8	4	-1E+10	1	-1E+10	1	-1E+10	1	-1E+10	1	-1E+10	1	-1E+10	1
4901784	172	C	03/20/2020	10:44	-132.755	43.319	0	275.00	0	7.4740	0	36.2860	8	28.368	0	272.629	0	156.3	4	54.4	4	-1E+10	1	-1E+10	1	-1E+10	1	-1E+10	1	-1E+10	1	-1E+10	1
4901784	172	C	03/20/2020	10:44	-132.755	43.319	0	277.70	0	7.4100	0	36.2850	8	28.377	0	275.303	0	155.1	4	53.9	4	-1E+10	1	-1E+10	1	-1E+10	1	-1E+10	1	-1E+10	1	-1E+10	1
4901784	172	C	03/20/2020	10:44	-132.755	43.319	0	280.40	0	7.3310	0	36.2860	8	28.389	0	277.978	0	153.9	4	53.3	4	-1E+10	1	-1E+10	1	-1E+10	1	-1E+10	1	-1E+10	1	-1E+10	1
4901784	172	C	03/20/2020	10:44	-132.755	43.319	0	282.20	0	7.2900	0	36.2900	8	28.398	0	279.762	0	153.0	4	53.0	4	-1E+10	1	-1E+10	1	-1E+10	1	-1E+10	1	-1E+10	1	-1E+10	1
4901784	172	C	03/20/2020	10:44	-132.755	43.319	0	284.90	0	7.2640	0	36.2900	8	28.402	0	282.436	0	151.7	4	52.5	4	-1E+10	1	-1E+10	1	-1E+10	1	-1E+10	1	-1E+10	1	-1E+10	1
4901784	172	C	03/20/2020	10:44	-132.755	43.319	0	287.60	0	7.2400	0	36.2920	8	28.407	0	285.111	0	150.2	4	52.0	4	-1E+10	1	-1E+10	1	-1E+10	1	-1E+10	1	-1E+10	1	-1E+10	1
4901784	172	C	03/20/2020	10:44	-132.755	43.319	0	290.30	0	7.2400	0	36.2910	8	28.406	0	287.786	0	148.9	4	51.5	4	-1E+10	1	-1E+10	1	-1E+10	1	-1E+10	1	-1E+10	1	-1E+10	1
4901784	172	C	03/20/2020	10:44	-132.755	43.319	0	293.00	0	7.2090	0	36.2900	8	28.410	0	290.461	0	147.2	4	50.9	4	-1E+10	1	-1E+10	1	-1E+10	1	-1E+10	1	-1E+10	1	-1E+10	1
4901784	172	C	03/20/2020	10:44	-132.755	43.319	0	294.80	0	7.1890	0	36.2900	8	28.413	0	292.244	0	145.8	4	50.4	4	-1E+10	1	-1E+10	1	-1E+10	1	-1E+10	1	-1E+10	1	-1E+10	1
4901784	172	C	03/20/2020	10:44	-132.755	43.319	0	297.40	0	7.1190	0	36.2940	8	28.426	0	294.819	0	144.3	4	49.8	4	-1E+10	1	-1E+10	1	-1E+10	1	-1E+10	1	-1E+10	1	-1E+10	1
4901784	172	C	03/20/2020	10:44	-132.755	43.319	0	300.10	0	7.0960	0	36.2930	8	28.429	0	297.494	0	143.4	4	49.4	4	-1E+10	1	-1E+10	1	-1E+10	1	-1E+10	1	-1E+10	1	-1E+10	1
4901784	172	C	03/20/2020	10:44	-132.755	43.319	0	302.80	0	7.0460	0	36.2940	8	28.437	0	300.169	0	142.4	4	49.0	4	-1E+10	1	-1E+10	1	-1E+10	1	-1E+10	1	-1E+10	1	-1E+10	1
4901784	172	C	03/20/2020	10:44	-132.755	43.319	0	305.50	0	6.9800	0	36.2930	8	28.445	0	302.843	0	141.6	4	48.7	4	-1E+10	1	-1E+10	1	-1E+10	1	-1E+10	1	-1E+10	1	-1E+10	1
4901784	172	C	03/20/2020	10:44	-132.755	43.319	0	307.30	0	6.9580	0	36.2940	8	28.449	0	304.626	0	140.9	4	48.4	4	-1E+10	1	-1E+10	1	-1E+10	1	-1E+10	1	-1E+10	1	-1E+10	1
4901784	172	C	03/20/2020	10:44	-132.755	43.319	0	310.10	0	6.9180	0	36.2950	8	28.456	0	307.400	0	140.4	4	48.2	4	-1E+10	1	-1E+10	1	-1E+10	1	-1E+10	1	-1E+10	1	-1E+10	1
4901784	172	C	03/20/2020	10:44	-132.755	43.319	0	312.70	0	6.8860	0	36.2960	8	28.461	0	309.975	0	139.7	4	47.9	4	-1E+10	1	-1E+10	1	-1E+10	1	-1E+10	1	-1E+10	1	-1E+10	1
4901784	172	C	03/20/2020	10:44	-132.755	43.319	0	315.40	0	6.8730	0	36.3000	8	28.466	0	312.650	0	138.8	4	47.6	4	-1E+10	1	-1E+10	1	-1E+10	1	-1E+10	1	-1E+10	1	-1E+10	1
4901784	172	C	03/20/2020	10:44	-132.755	43.319	0	318.00	0	6.8530	0	36.2990	8	28.468	0	315.225	0	137.6	4	47.2	4	-1E+10	1	-1E+10	1	-1E+10	1	-1E+10	1	-1E+10	1	-1E+10	1
4901784	172	C	03/20/2020	10:44	-132.755	43.319	0	319.80	0	6.8250	0	36.2990	8	28.472	0	317.008	0	136.4	4	46.8	4	-1E+10	1	-1E+10	1	-1E+10	1	-1E+10	1	-1E+10	1	-1E+10	1
4901784	172	C	03/20/2020	10:44	-132.755	43.319	0	322.30	0	6.7750	0	36.3020	8	28.481	0	319.484	0	134.4	4	46.0	4	-1E+10	1	-1E+10	1	-1E+10	1	-1E+10	1	-1E+10	1	-1E+10	1
4901784	172	C	03/20/2020	10:44	-132.755	43.319	0	325.00	0	6.7320	0	36.3040	8	28.489	0	322.158	0	132.5	4	45.3	4	-1E+10	1	-1E+10	1	-1E+10	1	-1E+10	1	-1E+10	1	-1E+10	1
4901784	172	C	03/20/2020	10:44	-132.755	43.319	0	327.70	0	6.6830	0	36.3060	8	28.497	0	324.833	0	129.7	4	44.3	4	-1E+10	1	-1E+10	1	-1E+10	1	-1E+10	1	-1E+10	1	-1E+10	1
4901784	172	C	03/20/2020	10:44	-132.755	43.319	0	330.30	0	6.6530	0	36.3100	8	28.505	0	327.408	0	127.5	4	43.5	4	-1E+10	1	-1E+10	1	-1E+10	1	-1E+10	1	-1E+10	1	-1E+10	1
4901784	172	C	03/20/2020	10:44	-132.755	43.319	0	332.80	0	6.6470	0	36.3090	8	28.505	0	329.884	0	126.6	4	43.2	4	-1E+10	1	-1E+10	1	-1E+10	1	-1E+10	1	-1E+10	1	-1E+10	1
4901784	172	C	03/20/2020	10:44	-132.755	43.319	0	335.50	0	6.6030	0	36.3100	8	28.512	0	332.558	0	125.5	4	42.8	4	-1E+10	1	-1E+10	1	-1E+10	1	-1E+10	1	-1E+10	1	-1E+10	1
4901784	172	C	03/20/2020	10:44	-132.755	43.319	0	337.20	0	6.5630	0	36.3110	8	28.518	0	334.242	0	124.9	4	42.6	4	-1E+10	1	-1E+10	1	-1E+10	1	-1E+10	1	-1E+10	1	-1E+10	1
4901784	172	C	03/20/2020	10:44	-132.755	43.319	0	339.90	0	6.5180	0	36.3110	8	28.524	0	336.916	0	124.3	4	42.3	4	-1E+10	1	-1E+10	1	-1E+10	1	-1E+10	1	-1E+10	1	-1E+10	1
4901784	172	C	03/20/2020	10:44	-132.755	43.319	0	342.50	0	6.4880	0	36.3100	8	28.528	0	339.491	0	123.8	4	42.1	4	-1E+10	1	-1E+10	1	-1E+10	1	-1E+10	1	-1E+10	1	-1E+10	1
4901784	172	C	03/20/2020	10:44	-132.755	43.319	0	345.10	0	6.4330	0	36.3100	8	28.535	0	342.066	0	123.4	4	41.9	4	-1E+10	1	-1E+10	1	-1E+10	1	-1E+10	1	-1E+10	1	-1E+10	1
4901784	172	C	03/20/2020	10:44	-132.755	43.319	0	347.80	0	6.4000	0	36.3080	8	28.538	0	344.740	0	122.6	4	41.6	4	-1E+10	1	-1E+10	1	-1E+10	1	-1E+10	1	-1E+10	1	-1E+10	1
4901784	172	C	03/20/2020	10:44	-132.755	43.319	0	349.50	0	6.4010	0	36.3040	8	28.535	0	346.424	0	122.1	4	41.4	4	-1E+10	1	-1E+10	1	-1E+10	1	-1E+10	1	-1E+10	1	-1E+10	1
4901784	172	C	03/20/2020	10:44	-132.755	43.319	0	352.10	0	6.3010	0	36.3020	8	28.547	0	348.999	0	120.6	4	40.8	4	-1E+10	1	-1E+10	1	-1E+10	1	-1E+10	1	-1E+10	1	-1E+10	1
4901784	172	C	03/20/2020	10:44	-132.755	43.319	0	354.70	0	6.2600	0	36.3050	8	28.555	0	351.574	0	118.5	4	40.1	4	-1E+10	1	-1E+10	1	-1E+10	1	-1E+10	1	-1E+10	1	-1E+10	1
4901784	172	C	03/20/2020	10:44	-132.755	43.319	0	357.30	0	6.2030	0	36.3020	8	28.560	0	354.148	0	116.6	4	39.4	4	-1E+10	1	-1E+10	1	-1E+10	1	-1E+10	1	-1E+10	1	-1E+10	1
4901784	172	C	03/20/2020	10:44	-132.755	43.319	0	360.00	0	6.1510	0	36.3020	8	28.567	0	356.822	0	114.5	4	38.6	4	-1E+10	1	-1E+10	1	-1E+10	1	-1E+10	1	-1E+10	1	-1E+10	1
4901784	172	C	03/20/2020	10:44	-132.755	43.319	0	362.60	0	6.0900	0	36.3060	8	28.578	0	359.397	0	112.3	4	37.9	4	-1E+10	1	-1E+10	1	-1E+10	1	-1E+10	1	-1E+10	1	-1E+10	1
4901784	172	C	03/20/2020	10:44	-132.755	43.319	0	365.30	0	6.0060	0	36.3080	8	28.591	0	362.071	0	110.8	4	37.3	4	-1E+10	1	-1E+10	1	-1E+10	1	-1E+10	1	-1E+10	1	-1E+10	1
4901784	172	C	03/20/2020	10:44	-132.755	43.319	0	367.00	0	5.9900	0	36.3070	8	28.592	0	363.754	0	110.0	4	37.0	4	-1E+10	1	-1E+10	1	-1E+10	1	-1E+10	1	-1E+10	1	-1E+10	1
4901784	172	C	03/20/2020	10:44	-132.755	43.319	0	369.60	0	5.9640	0	36.3100	8	28.598	0	366.329	0	108.6	4	36.5	4	-1E+10	1	-1E+10	1	-1E+10	1	-1E+10	1	-1E+10	1	-1E+10	1
4901784	172	C	03/20/2020	10:44	-132.755	43.319	0	372.30	0	5.9310	0	36.3110	8	28.603	0	369.003	0	107.3	4	36.0	4	-1E+10	1	-1E+10	1	-1E+10	1	-1E+10	1	-1E+10	1	-1E+10	1
4901784	172	C	03/20/2020	10:44	-132.755	43.319	0	375.00	0	5.9070	0	36.3120	8	28.607	0	371.677	0	106.0	4	35.6	4	-1E+10	1	-1E+10	1	-1E+10	1	-1E+10	1	-1E+10	1	-1E+10	1
4901784	172	C	03/20/2020	10:44	-132.755	43.319	0	377.60	0	5.8540	0	36.3120	8	28.614	0	374.251	0	104.8	4	35.1	4	-1E+10	1	-1E+10	1	-1E+10	1	-1E+10	1	-1E+10	1	-1E+10	1
4901784	172	C	03/20/2020	10:44	-132.755	43.319	0	380.20	0	5.8280	0	36.3110	8	28.616	0	376.826	0	103.3	4	34.6	4	-1E+10	1	-1E+10	1	-1E+10	1	-1E+10	1	-1E+10	1	-1E+10	1
4901784	172	C	03/20/2020	10:44	-132.755	43.319	0	382.90	0	5.7900	0	36.3120	8	28.622	0	379.499	0	101.8	4	34.1	4	-1E+10	1	-1E+10	1	-1E+10	1	-1E+10	1	-1E+10	1	-1E+10	1
4901784	172	C	03/20/2020	10:44	-132.755	43.319	0	384.70	0	5.7410	0	36.3110	8	28.628	0	381.282	0	100.6	4	33.6	4	-1E+10	1	-1E+10	1	-1E+10	1	-1E+10	1	-1E+10	1	-1E+10	1
4901784	172	C	03/20/2020	10:44	-132.755	43.319	0	387.40	0	5.6970	0	36.3110	8	28.633	0	383.955	0	98.9	4	33.0	4	-1E+10	1	-1E+10	1	-1E+10	1	-1E+10	1	-1E+10	1	-1E+10	1
4901784	172	C	03/20/2020	10:44	-132.755	43.319	0	390.10	0	5.6040	0	36.3220	8	28.654	0	386.629	0	97.3	4	32.4	4	-1E+10	1	-1E+10	1	-1E+10	1	-1E+10	1	-1E+10	1	-1E+10	1
4901784	172	C	03/20/2020	10:44	-132.755	43.319	0	392.80	0	5.5690	0	36.3200	8	28.657	0	389.302	0	96.5	4	32.1	4	-1E+10	1	-1E+10	1	-1E+10	1	-1E+10	1	-1E+10	1	-1E+10	1
4901784	172	C	03/20/2020	10:44	-132.755	43.319	0	395.60	0	5.5650	0	36.3170	8	28.655	0	392.074	0	95.4	4	31.8	4	-1E+10	1	-1E+10	1	-1E+10	1	-1E+10	1	-1E+10	1	-1E+10	1
4901784	172	C	03/20/2020	10:44	-132.755	43.319	0	397.40	0	5.5370	0	36.3170	8	28.658	0	393.857	0	94.3	4	31.4	4	-1E+10	1	-1E+10	1	-1E+10	1	-1E+10	1	-1E+10	1	-1E+10	1
4901784	172	C	03/20/2020	10:44	-132.755	43.319	0	399.80	0	5.4750	0	36.3240	8	28.672	0	396.233	0	93.5	4	31.1	4	-1E+10	1	-1E+10	1	-1E+10	1	-1E+10	1	-1E+10	1	-1E+10	1
4901784	172	C	03/20/2020	10:44	-132.755	43.319	0	402.40	0	5.4500	0	36.3240	8	28.675	0	398.807	0	92.4	4	30.7	4	-1E+10	1	-1E+10	1	-1E+10	1	-1E+10	1	-1E+10	1	-1E+10	1
4901784	172	C	03/20/2020	10:44	-132.755	43.319	0	404.80	0	5.4350	0	36.3240	8	28.677	0	401.184	0	91.2	4	30.3	4	-1E+10	1	-1E+10	1	-1E+10	1	-1E+10	1	-1E+10	1	-1E+10	1
4901784	172	C	03/20/2020	10:44	-132.755	43.319	0	407.20	0	5.4010	0	36.3240	8	28.681	0	403.560	0	89.9	4	29.8	4	-1E+10	1	-1E+10	1	-1E+10	1	-1E+10	1	-1E+10	1	-1E+10	1
4901784	172	C	03/20/2020	10:44	-132.755	43.319	0	410.30	0	5.3400	0	36.3260	8	28.690	0	406.629	0	88.0	4	29.2	4	-1E+10	1	-1E+10	1	-1E+10	1	-1E+10	1	-1E+10	1	-1E+10	1
4901784	172	C	03/20/2020	10:44	-132.755	43.319	0	412.70	0	5.2980	0	36.3290	8	28.698	0	409.005	0	86.9	4	28.8	4	-1E+10	1	-1E+10	1	-1E+10	1	-1E+10	1	-1E+10	1	-1E+10	1
4901784	172	C	03/20/2020	10:44	-132.755	43.319	0	415.10	0	5.2670	0	36.3300	8	28.702	0	411.381	0	86.0	4	28.4	4	-1E+10	1	-1E+10	1	-1E+10	1	-1E+10	1	-1E+10	1	-1E+10	1
4901784	172	C	03/20/2020	10:44	-132.755	43.319	0	417.50	0	5.2280	0	36.3320	8	28.709	0	413.757	0	85.2	4	28.2	4	-1E+10	1	-1E+10	1	-1E+10	1	-1E+10	1	-1E+10	1	-1E+10	1
4901784	172	C	03/20/2020	10:44	-132.755	43.319	0	419.90	0	5.2120	0	36.3330	8	28.711	0	416.134	0	84.5	4	27.9	4	-1E+10	1	-1E+10	1	-1E+10	1	-1E+10	1	-1E+10	1	-1E+10	1
4901784	172	C	03/20/2020	10:44	-132.755	43.319	0	422.30	0	5.1950	0	36.3330	8	28.714	0	418.510	0	83.4	4	27.5	4	-1E+10	1	-1E+10	1	-1E+10	1	-1E+10	1	-1E+10	1	-1E+10	1
4901784	172	C	03/20/2020	10:44	-132.755	43.319	0	424.70	0	5.1520	0	36.3360	8	28.721	0	420.886	0	82.3	4	27.1	4	-1E+10	1	-1E+10	1	-1E+10	1	-1E+10	1	-1E+10	1	-1E+10	1
4901784	172	C	03/20/2020	10:44	-132.755	43.319	0	427.20	0	5.1260	0	36.3370	8	28.725	0	423.361	0	81.5	4	26.9	4	-1E+10	1	-1E+10	1	-1E+10	1	-1E+10	1	-1E+10	1	-1E+10	1
4901784	172	C	03/20/2020	10:44	-132.755	43.319	0	429.80	0	5.1030	0	36.3380	8	28.729	0	425.935	0	80.7	4	26.6	4	-1E+10	1	-1E+10	1	-1E+10	1	-1E+10	1	-1E+10	1	-1E+10	1
4901784	172	C	03/20/2020	10:44	-132.755	43.319	0	432.30	0	5.0510	0	36.3430	8	28.739	0	428.410	0	79.8	4	26.3	4	-1E+10	1	-1E+10	1	-1E+10	1	-1E+10	1	-1E+10	1	-1E+10	1
4901784	172	C	03/20/2020	10:44	-132.755	43.319	0	434.80	0	5.0350	0	36.3430	8	28.741	0	430.884	0	78.9	4	26.0	4	-1E+10	1	-1E+10	1	-1E+10	1	-1E+10	1	-1E+10	1	-1E+10	1
4901784	172	C	03/20/2020	10:44	-132.755	43.319	0	437.40	0	5.0110	0	36.3450	8	28.745	0	433.458	0	78.0	4	25.7	4	-1E+10	1	-1E+10	1	-1E+10	1	-1E+10	1	-1E+10	1	-1E+10	1
4901784	172	C	03/20/2020	10:44	-132.755	43.319	0	440.00	0	4.9890	0	36.3470	8	28.750	0	436.032	0	77.1	4	25.3	4	-1E+10	1	-1E+10	1	-1E+10	1	-1E+10	1	-1E+10	1	-1E+10	1
4901784	172	C	03/20/2020	10:44	-132.755	43.319	0	442.60	0	4.9680	0	36.3490	8	28.754	0	438.606	0	76.3	4	25.1	4	-1E+10	1	-1E+10	1	-1E+10	1	-1E+10	1	-1E+10	1	-1E+10	1
4901784	172	C	03/20/2020	10:44	-132.755	43.319	0	445.30	0	4.9610	0	36.3490	8	28.755	0	441.279	0	75.4	4	24.7	4	-1E+10	1	-1E+10	1	-1E+10	1	-1E+10	1	-1E+10	1	-1E+10	1
4901784	172	C	03/20/2020	10:44	-132.755	43.319	0	447.90	0	4.9400	0	36.3510	8	28.759	0	443.852	0	74.3	4	24.4	4	-1E+10	1	-1E+10	1	-1E+10	1	-1E+10	1	-1E+10	1	-1E+10	1
4901784	172	C	03/20/2020	10:44	-132.755	43.319	0	449.70	0	4.9250	0	36.3530	8	28.762	0	445.634	0	73.6	4	24.2	4	-1E+10	1	-1E+10	1	-1E+10	1	-1E+10	1	-1E+10	1	-1E+10	1
4901784	172	C	03/20/2020	10:44	-132.755	43.319	0	452.30	0	4.9110	0	36.3560	8	28.766	0	448.208	0	72.8	4	23.9	4	-1E+10	1	-1E+10	1	-1E+10	1	-1E+10	1	-1E+10	1	-1E+10	1
4901784	172	C	03/20/2020	10:44	-132.755	43.319	0	455.00	0	4.8890	0	36.3580	8	28.770	0	450.881	0	71.9	4	23.6	4	-1E+10	1	-1E+10	1	-1E+10	1	-1E+10	1	-1E+10	1	-1E+10	1
4901784	172	C	03/20/2020	10:44	-132.755	43.319	0	457.80	0	4.8750	0	36.3600	8	28.774	0	453.652	0	70.9	4	23.2	4	-1E+10	1	-1E+10	1	-1E+10	1	-1E+10	1	-1E+10	1	-1E+10	1
4901784	172	C	03/20/2020	10:44	-132.755	43.319	0	460.40	0	4.8540	0	36.3610	8	28.777	0	456.226	0	69.9	4	22.9	4	-1E+10	1	-1E+10	1	-1E+10	1	-1E+10	1	-1E+10	1	-1E+10	1
4901784	172	C	03/20/2020	10:44	-132.755	43.319	0	462.30	0	4.8450	0	36.3630	8	28.780	0	458.106	0	69.1	4	22.6	4	-1E+10	1	-1E+10	1	-1E+10	1	-1E+10	1	-1E+10	1	-1E+10	1
4901784	172	C	03/20/2020	10:44	-132.755	43.319	0	465.00	0	4.8330	0	36.3650	8	28.783	0	460.779	0	67.6	4	22.1	4	-1E+10	1	-1E+10	1	-1E+10	1	-1E+10	1	-1E+10	1	-1E+10	1
4901784	172	C	03/20/2020	10:44	-132.755	43.319	0	467.90	0	4.7980	0	36.3730	8	28.793	0	463.649	0	66.4	4	21.7	4	-1E+10	1	-1E+10	1	-1E+10	1	-1E+10	1	-1E+10	1	-1E+10	1
4901784	172	C	03/20/2020	10:44	-132.755	43.319	0	469.80	0	4.7890	0	36.3750	8	28.796	0	465.530	0	65.9	4	21.6	4	-1E+10	1	-1E+10	1	-1E+10	1	-1E+10	1	-1E+10	1	-1E+10	1
4901784	172	C	03/20/2020	10:44	-132.755	43.319	0	472.60	0	4.7790	0	36.3780	8	28.799	0	468.301	0	65.3	4	21.4	4	-1E+10	1	-1E+10	1	-1E+10	1	-1E+10	1	-1E+10	1	-1E+10	1
4901784	172	C	03/20/2020	10:44	-132.755	43.319	0	475.50	0	4.7760	0	36.3790	8	28.801	0	471.172	0	64.7	4	21.1	4	-1E+10	1	-1E+10	1	-1E+10	1	-1E+10	1	-1E+10	1	-1E+10	1
4901784	172	C	03/20/2020	10:44	-132.755	43.319	0	477.40	0	4.7670	0	36.3820	8	28.804	0	473.052	0	64.3	4	21.0	4	-1E+10	1	-1E+10	1	-1E+10	1	-1E+10	1	-1E+10	1	-1E+10	1
4901784	172	C	03/20/2020	10:44	-132.755	43.319	0	480.30	0	4.7640	0	36.3830	8	28.805	0	475.923	0	63.7	4	20.8	4	-1E+10	1	-1E+10	1	-1E+10	1	-1E+10	1	-1E+10	1	-1E+10	1
4901784	172	C	03/20/2020	10:44	-132.755	43.319	0	483.40	0	4.7530	0	36.3850	8	28.808	0	478.991	0	62.9	4	20.6	4	-1E+10	1	-1E+10	1	-1E+10	1	-1E+10	1	-1E+10	1	-1E+10	1
4901784	172	C	03/20/2020	10:44	-132.755	43.319	0	484.80	0	4.7490	0	36.3870	8	28.810	0	480.376	0	62.4	4	20.4	4	-1E+10	1	-1E+10	1	-1E+10	1	-1E+10	1	-1E+10	1	-1E+10	1
4901784	172	C	03/20/2020	10:44	-132.755	43.319	0	487.20	0	4.7440	0	36.3910	8	28.814	0	482.752	0	61.5	4	20.1	4	-1E+10	1	-1E+10	1	-1E+10	1	-1E+10	1	-1E+10	1	-1E+10	1
4901784	172	C	03/20/2020	10:44	-132.755	43.319	0	489.70	0	4.7600	0	36.3950	8	28.815	0	485.226	0	60.5	4	19.8	4	-1E+10	1	-1E+10	1	-1E+10	1	-1E+10	1	-1E+10	1	-1E+10	1
4901784	172	C	03/20/2020	10:44	-132.755	43.319	0	492.10	0	4.7670	0	36.4000	8	28.818	0	487.601	0	59.9	4	19.6	4	-1E+10	1	-1E+10	1	-1E+10	1	-1E+10	1	-1E+10	1	-1E+10	1
4901784	172	C	03/20/2020	10:44	-132.755	43.319	0	494.60	0	4.7620	0	36.4010	8	28.820	0	490.075	0	59.4	4	19.4	4	-1E+10	1	-1E+10	1	-1E+10	1	-1E+10	1	-1E+10	1	-1E+10	1
4901784	172	C	03/20/2020	10:44	-132.755	43.319	0	497.10	0	4.7540	0	36.4020	8	28.822	0	492.550	0	58.9	4	19.2	4	-1E+10	1	-1E+10	1	-1E+10	1	-1E+10	1	-1E+10	1	-1E+10	1
4901784	172	C	03/20/2020	10:44	-132.755	43.319	0	499.70	0	4.7520	0	36.4040	8	28.823	0	495.123	0	58.1	4	19.0	4	-1E+10	1	-1E+10	1	-1E+10	1	-1E+10	1	-1E+10	1	-1E+10	1
4901784	172	C	03/20/2020	10:44	-132.755	43.319	0	505.60	0	4.7390	0	36.4100	8	28.830	0	500.962	0	55.5	4	18.1	4	-1E+10	1	-1E+10	1	-1E+10	1	-1E+10	1	-1E+10	1	-1E+10	1
4901784	172	C	03/20/2020	10:44	-132.755	43.319	0	510.70	0	4.7340	0	36.4210	8	28.839	0	506.009	0	52.1	4	17.0	4	-1E+10	1	-1E+10	1	-1E+10	1	-1E+10	1	-1E+10	1	-1E+10	1
4901784	172	C	03/20/2020	10:44	-132.755	43.319	0	515.00	0	4.7520	0	36.4340	8	28.847	0	510.264	0	49.5	4	16.2	4	-1E+10	1	-1E+10	1	-1E+10	1	-1E+10	1	-1E+10	1	-1E+10	1
4901784	172	C	03/20/2020	10:44	-132.755	43.319	0	519.40	0	4.7460	0	36.4440	8	28.856	0	514.618	0	47.7	4	15.6	4	-1E+10	1	-1E+10	1	-1E+10	1	-1E+10	1	-1E+10	1	-1E+10	1
4901784	172	C	03/20/2020	10:44	-132.755	43.319	0	524.70	0	4.7500	0	36.4510	8	28.861	0	519.862	0	46.2	4	15.1	4	-1E+10	1	-1E+10	1	-1E+10	1	-1E+10	1	-1E+10	1	-1E+10	1
4901784	172	C	03/20/2020	10:44	-132.755	43.319	0	530.00	0	4.7490	0	36.4570	8	28.866	0	525.107	0	45.1	4	14.7	4	-1E+10	1	-1E+10	1	-1E+10	1	-1E+10	1	-1E+10	1	-1E+10	1
4901784	172	C	03/20/2020	10:44	-132.755	43.319	0	535.40	0	4.7350	0	36.4580	8	28.869	0	530.450	0	44.4	4	14.5	4	-1E+10	1	-1E+10	1	-1E+10	1	-1E+10	1	-1E+10	1	-1E+10	1
4901784	172	C	03/20/2020	10:44	-132.755	43.319	0	539.90	0	4.6910	0	36.4600	8	28.875	0	534.903	0	43.5	4	14.2	4	-1E+10	1	-1E+10	1	-1E+10	1	-1E+10	1	-1E+10	1	-1E+10	1
4901784	172	C	03/20/2020	10:44	-132.755	43.319	0	544.40	0	4.6650	0	36.4660	8	28.883	0	539.355	0	42.2	4	13.8	4	-1E+10	1	-1E+10	1	-1E+10	1	-1E+10	1	-1E+10	1	-1E+10	1
4901784	172	C	03/20/2020	10:44	-132.755	43.319	0	549.70	0	4.6390	0	36.4720	8	28.891	0	544.599	0	40.9	4	13.3	4	-1E+10	1	-1E+10	1	-1E+10	1	-1E+10	1	-1E+10	1	-1E+10	1
4901784	172	C	03/20/2020	10:44	-132.755	43.319	0	555.10	0	4.6260	0	36.4780	8	28.897	0	549.942	0	39.0	4	12.7	4	-1E+10	1	-1E+10	1	-1E+10	1	-1E+10	1	-1E+10	1	-1E+10	1
4901784	172	C	03/20/2020	10:44	-132.755	43.319	0	560.40	0	4.6210	0	36.4900	8	28.908	0	555.186	0	36.2	4	11.8	4	-1E+10	1	-1E+10	1	-1E+10	1	-1E+10	1	-1E+10	1	-1E+10	1
4901784	172	C	03/20/2020	10:44	-132.755	43.319	0	565.70	0	4.6180	0	36.5030	8	28.918	0	560.429	0	34.6	4	11.3	4	-1E+10	1	-1E+10	1	-1E+10	1	-1E+10	1	-1E+10	1	-1E+10	1
4901784	172	C	03/20/2020	10:44	-132.755	43.319	0	570.10	0	4.6150	0	36.5080	8	28.923	0	564.782	0	33.9	4	11.1	4	-1E+10	1	-1E+10	1	-1E+10	1	-1E+10	1	-1E+10	1	-1E+10	1
4901784	172	C	03/20/2020	10:44	-132.755	43.319	0	574.60	0	4.6120	0	36.5100	8	28.925	0	569.234	0	33.3	4	10.9	4	-1E+10	1	-1E+10	1	-1E+10	1	-1E+10	1	-1E+10	1	-1E+10	1
4901784	172	C	03/20/2020	10:44	-132.755	43.319	0	580.20	0	4.6020	0	36.5160	8	28.931	0	574.774	0	32.5	4	10.6	4	-1E+10	1	-1E+10	1	-1E+10	1	-1E+10	1	-1E+10	1	-1E+10	1
4901784	172	C	03/20/2020	10:44	-132.755	43.319	0	585.70	0	4.5960	0	36.5200	8	28.935	0	580.215	0	31.9	4	10.4	4	-1E+10	1	-1E+10	1	-1E+10	1	-1E+10	1	-1E+10	1	-1E+10	1
4901784	172	C	03/20/2020	10:44	-132.755	43.319	0	590.20	0	4.5950	0	36.5210	8	28.935	0	584.666	0	31.3	4	10.2	4	-1E+10	1	-1E+10	1	-1E+10	1	-1E+10	1	-1E+10	1	-1E+10	1
4901784	172	C	03/20/2020	10:44	-132.755	43.319	0	594.80	0	4.5860	0	36.5260	8	28.941	0	589.217	0	30.7	4	10.0	4	-1E+10	1	-1E+10	1	-1E+10	1	-1E+10	1	-1E+10	1	-1E+10	1
4901784	172	C	03/20/2020	10:44	-132.755	43.319	0	600.30	0	4.5780	0	36.5300	8	28.945	0	594.657	0	30.1	4	9.8	4	-1E+10	1	-1E+10	1	-1E+10	1	-1E+10	1	-1E+10	1	-1E+10	1
4901784	172	C	03/20/2020	10:44	-132.755	43.319	0	604.90	0	4.5710	0	36.5310	8	28.946	0	599.208	0	29.4	4	9.6	4	-1E+10	1	-1E+10	1	-1E+10	1	-1E+10	1	-1E+10	1	-1E+10	1
4901784	172	C	03/20/2020	10:44	-132.755	43.319	0	609.40	0	4.5520	0	36.5350	8	28.952	0	603.659	0	28.7	4	9.3	4	-1E+10	1	-1E+10	1	-1E+10	1	-1E+10	1	-1E+10	1	-1E+10	1
4901784	172	C	03/20/2020	10:44	-132.755	43.319	0	614.90	0	4.5130	0	36.5420	8	28.962	0	609.099	0	27.8	4	9.0	4	-1E+10	1	-1E+10	1	-1E+10	1	-1E+10	1	-1E+10	1	-1E+10	1
4901784	172	C	03/20/2020	10:44	-132.755	43.319	0	620.50	0	4.4970	0	36.5480	8	28.968	0	614.638	0	27.2	4	8.8	4	-1E+10	1	-1E+10	1	-1E+10	1	-1E+10	1	-1E+10	1	-1E+10	1
4901784	172	C	03/20/2020	10:44	-132.755	43.319	0	625.20	0	4.4860	0	36.5500	8	28.971	0	619.286	0	26.9	4	8.7	4	-1E+10	1	-1E+10	1	-1E+10	1	-1E+10	1	-1E+10	1	-1E+10	1
4901784	172	C	03/20/2020	10:44	-132.755	43.319	0	629.70	0	4.4810	0	36.5500	8	28.972	0	623.737	0	26.3	4	8.5	4	-1E+10	1	-1E+10	1	-1E+10	1	-1E+10	1	-1E+10	1	-1E+10	1
4901784	172	C	03/20/2020	10:44	-132.755	43.319	0	635.00	0	4.4600	0	36.5570	8	28.980	0	628.979	0	25.0	4	8.1	4	-1E+10	1	-1E+10	1	-1E+10	1	-1E+10	1	-1E+10	1	-1E+10	1
4901784	172	C	03/20/2020	10:44	-132.755	43.319	0	640.50	0	4.4380	0	36.5670	8	28.990	0	634.418	0	23.7	4	7.7	4	-1E+10	1	-1E+10	1	-1E+10	1	-1E+10	1	-1E+10	1	-1E+10	1
4901784	172	C	03/20/2020	10:44	-132.755	43.319	0	644.90	0	4.4130	0	36.5760	8	29.000	0	638.770	0	22.9	4	7.4	4	-1E+10	1	-1E+10	1	-1E+10	1	-1E+10	1	-1E+10	1	-1E+10	1
4901784	172	C	03/20/2020	10:44	-132.755	43.319	0	649.40	0	4.4000	0	36.5810	8	29.006	0	643.220	0	22.5	4	7.3	4	-1E+10	1	-1E+10	1	-1E+10	1	-1E+10	1	-1E+10	1	-1E+10	1
4901784	172	C	03/20/2020	10:44	-132.755	43.319	0	654.80	0	4.3960	0	36.5820	8	29.007	0	648.560	0	22.2	4	7.2	4	-1E+10	1	-1E+10	1	-1E+10	1	-1E+10	1	-1E+10	1	-1E+10	1
4901784	172	C	03/20/2020	10:44	-132.755	43.319	0	660.10	0	4.3900	0	36.5850	8	29.010	0	653.801	0	21.5	4	7.0	4	-1E+10	1	-1E+10	1	-1E+10	1	-1E+10	1	-1E+10	1	-1E+10	1
4901784	172	C	03/20/2020	10:44	-132.755	43.319	0	665.40	0	4.3790	0	36.5910	8	29.016	0	659.042	0	20.2	4	6.5	4	-1E+10	1	-1E+10	1	-1E+10	1	-1E+10	1	-1E+10	1	-1E+10	1
4901784	172	C	03/20/2020	10:44	-132.755	43.319	0	669.90	0	4.3410	0	36.6040	8	29.031	0	663.492	0	19.1	4	6.2	4	-1E+10	1	-1E+10	1	-1E+10	1	-1E+10	1	-1E+10	1	-1E+10	1
4901784	172	C	03/20/2020	10:44	-132.755	43.319	0	674.40	0	4.3270	0	36.6100	8	29.037	0	667.942	0	18.6	4	6.0	4	-1E+10	1	-1E+10	1	-1E+10	1	-1E+10	1	-1E+10	1	-1E+10	1
4901784	172	C	03/20/2020	10:44	-132.755	43.319	0	679.80	0	4.3140	0	36.6190	8	29.046	0	673.282	0	17.9	4	5.8	4	-1E+10	1	-1E+10	1	-1E+10	1	-1E+10	1	-1E+10	1	-1E+10	1
4901784	172	C	03/20/2020	10:44	-132.755	43.319	0	685.20	0	4.2960	0	36.6250	8	29.053	0	678.621	0	17.4	4	5.6	4	-1E+10	1	-1E+10	1	-1E+10	1	-1E+10	1	-1E+10	1	-1E+10	1
4901784	172	C	03/20/2020	10:44	-132.755	43.319	0	690.60	0	4.2820	0	36.6310	8	29.059	0	683.960	0	17.0	4	5.5	4	-1E+10	1	-1E+10	1	-1E+10	1	-1E+10	1	-1E+10	1	-1E+10	1
4901784	172	C	03/20/2020	10:44	-132.755	43.319	0	695.10	0	4.2760	0	36.6340	8	29.062	0	688.410	0	16.7	4	5.4	4	-1E+10	1	-1E+10	1	-1E+10	1	-1E+10	1	-1E+10	1	-1E+10	1
4901784	172	C	03/20/2020	10:44	-132.755	43.319	0	699.60	0	4.2680	0	36.6380	8	29.067	0	692.859	0	16.5	4	5.3	4	-1E+10	1	-1E+10	1	-1E+10	1	-1E+10	1	-1E+10	1	-1E+10	1
4901784	172	C	03/20/2020	10:44	-132.755	43.319	0	705.00	0	4.2580	0	36.6410	8	29.070	0	698.198	0	16.2	4	5.2	4	-1E+10	1	-1E+10	1	-1E+10	1	-1E+10	1	-1E+10	1	-1E+10	1
4901784	172	C	03/20/2020	10:44	-132.755	43.319	0	710.50	0	4.2470	0	36.6450	8	29.075	0	703.635	0	15.9	4	5.1	4	-1E+10	1	-1E+10	1	-1E+10	1	-1E+10	1	-1E+10	1	-1E+10	1
4901784	172	C	03/20/2020	10:44	-132.755	43.319	0	715.00	0	4.2360	0	36.6490	8	29.079	0	708.084	0	15.5	4	5.0	4	-1E+10	1	-1E+10	1	-1E+10	1	-1E+10	1	-1E+10	1	-1E+10	1
4901784	172	C	03/20/2020	10:44	-132.755	43.319	0	719.50	0	4.2240	0	36.6530	8	29.084	0	712.533	0	15.2	4	4.9	4	-1E+10	1	-1E+10	1	-1E+10	1	-1E+10	1	-1E+10	1	-1E+10	1
4901784	172	C	03/20/2020	10:44	-132.755	43.319	0	724.90	0	4.1970	0	36.6600	8	29.092	0	717.872	0	14.9	4	4.8	4	-1E+10	1	-1E+10	1	-1E+10	1	-1E+10	1	-1E+10	1	-1E+10	1
4901784	172	C	03/20/2020	10:44	-132.755	43.319	0	730.40	0	4.1810	0	36.6630	8	29.096	0	723.309	0	14.6	4	4.7	4	-1E+10	1	-1E+10	1	-1E+10	1	-1E+10	1	-1E+10	1	-1E+10	1
4901784	172	C	03/20/2020	10:44	-132.755	43.319	0	734.90	0	4.1620	0	36.6660	8	29.101	0	727.757	0	14.4	4	4.6	4	-1E+10	1	-1E+10	1	-1E+10	1	-1E+10	1	-1E+10	1	-1E+10	1
4901784	172	C	03/20/2020	10:44	-132.755	43.319	0	739.50	0	4.1340	0	36.6740	8	29.110	0	732.304	0	14.0	4	4.5	4	-1E+10	1	-1E+10	1	-1E+10	1	-1E+10	1	-1E+10	1	-1E+10	1
4901784	172	C	03/20/2020	10:44	-132.755	43.319	0	745.00	0	4.1120	0	36.6800	8	29.118	0	737.741	0	13.8	4	4.4	4	-1E+10	1	-1E+10	1	-1E+10	1	-1E+10	1	-1E+10	1	-1E+10	1
4901784	172	C	03/20/2020	10:44	-132.755	43.319	0	749.50	0	4.0890	0	36.6830	8	29.123	0	742.189	0	13.6	4	4.4	4	-1E+10	1	-1E+10	1	-1E+10	1	-1E+10	1	-1E+10	1	-1E+10	1
4901784	172	C	03/20/2020	10:44	-132.755	43.319	0	754.20	0	4.0680	0	36.6870	8	29.128	0	746.835	0	13.5	4	4.3	4	-1E+10	1	-1E+10	1	-1E+10	1	-1E+10	1	-1E+10	1	-1E+10	1
4901784	172	C	03/20/2020	10:44	-132.755	43.319	0	759.50	0	4.0550	0	36.6910	8	29.133	0	752.074	0	13.3	4	4.3	4	-1E+10	1	-1E+10	1	-1E+10	1	-1E+10	1	-1E+10	1	-1E+10	1
4901784	172	C	03/20/2020	10:44	-132.755	43.319	0	764.30	0	4.0420	0	36.6940	8	29.137	0	756.818	0	13.1	4	4.2	4	-1E+10	1	-1E+10	1	-1E+10	1	-1E+10	1	-1E+10	1	-1E+10	1
4901784	172	C	03/20/2020	10:44	-132.755	43.319	0	769.90	0	4.0350	0	36.6980	8	29.141	0	762.353	0	12.9	4	4.1	4	-1E+10	1	-1E+10	1	-1E+10	1	-1E+10	1	-1E+10	1	-1E+10	1
4901784	172	C	03/20/2020	10:44	-132.755	43.319	0	775.60	0	4.0250	0	36.7060	8	29.148	0	767.987	0	12.6	4	4.0	4	-1E+10	1	-1E+10	1	-1E+10	1	-1E+10	1	-1E+10	1	-1E+10	1
4901784	172	C	03/20/2020	10:44	-132.755	43.319	0	780.60	0	4.0120	0	36.7080	8	29.151	0	772.928	0	12.4	4	4.0	4	-1E+10	1	-1E+10	1	-1E+10	1	-1E+10	1	-1E+10	1	-1E+10	1
4901784	172	C	03/20/2020	10:44	-132.755	43.319	0	785.70	0	3.9780	0	36.7130	8	29.159	0	777.969	0	12.3	4	4.0	4	-1E+10	1	-1E+10	1	-1E+10	1	-1E+10	1	-1E+10	1	-1E+10	1
4901784	172	C	03/20/2020	10:44	-132.755	43.319	0	790.70	0	3.9710	0	36.7180	8	29.164	0	782.910	0	12.1	4	3.9	4	-1E+10	1	-1E+10	1	-1E+10	1	-1E+10	1	-1E+10	1	-1E+10	1
4901784	172	C	03/20/2020	10:44	-132.755	43.319	0	795.60	0	3.9570	0	36.7250	8	29.171	0	787.753	0	11.9	4	3.8	4	-1E+10	1	-1E+10	1	-1E+10	1	-1E+10	1	-1E+10	1	-1E+10	1
4901784	172	C	03/20/2020	10:44	-132.755	43.319	0	800.70	0	3.9520	0	36.7290	8	29.175	0	792.793	0	11.7	4	3.8	4	-1E+10	1	-1E+10	1	-1E+10	1	-1E+10	1	-1E+10	1	-1E+10	1
4901784	172	C	03/20/2020	10:44	-132.755	43.319	0	805.00	0	3.9490	0	36.7330	8	29.178	0	797.042	0	11.6	4	3.7	4	-1E+10	1	-1E+10	1	-1E+10	1	-1E+10	1	-1E+10	1	-1E+10	1
4901784	172	C	03/20/2020	10:44	-132.755	43.319	0	809.30	0	3.9380	0	36.7370	8	29.183	0	801.291	0	11.5	4	3.7	4	-1E+10	1	-1E+10	1	-1E+10	1	-1E+10	1	-1E+10	1	-1E+10	1
4901784	172	C	03/20/2020	10:44	-132.755	43.319	0	814.60	0	3.9210	0	36.7400	8	29.187	0	806.529	0	11.4	4	3.7	4	-1E+10	1	-1E+10	1	-1E+10	1	-1E+10	1	-1E+10	1	-1E+10	1
4901784	172	C	03/20/2020	10:44	-132.755	43.319	0	819.90	0	3.9090	0	36.7430	8	29.191	0	811.766	0	11.3	4	3.6	4	-1E+10	1	-1E+10	1	-1E+10	1	-1E+10	1	-1E+10	1	-1E+10	1
4901784	172	C	03/20/2020	10:44	-132.755	43.319	0	825.30	0	3.8990	0	36.7470	8	29.195	0	817.102	0	11.2	4	3.6	4	-1E+10	1	-1E+10	1	-1E+10	1	-1E+10	1	-1E+10	1	-1E+10	1
4901784	172	C	03/20/2020	10:44	-132.755	43.319	0	830.70	0	3.8890	0	36.7510	8	29.199	0	822.437	0	11.1	4	3.6	4	-1E+10	1	-1E+10	1	-1E+10	1	-1E+10	1	-1E+10	1	-1E+10	1
4901784	172	C	03/20/2020	10:44	-132.755	43.319	0	835.20	0	3.8840	0	36.7520	8	29.201	0	826.884	0	11.0	4	3.5	4	-1E+10	1	-1E+10	1	-1E+10	1	-1E+10	1	-1E+10	1	-1E+10	1
4901784	172	C	03/20/2020	10:44	-132.755	43.319	0	839.70	0	3.8650	0	36.7570	8	29.207	0	831.330	0	10.9	4	3.5	4	-1E+10	1	-1E+10	1	-1E+10	1	-1E+10	1	-1E+10	1	-1E+10	1
4901784	172	C	03/20/2020	10:44	-132.755	43.319	0	845.20	0	3.8450	0	36.7630	8	29.214	0	836.764	0	10.8	4	3.5	4	-1E+10	1	-1E+10	1	-1E+10	1	-1E+10	1	-1E+10	1	-1E+10	1
4901784	172	C	03/20/2020	10:44	-132.755	43.319	0	849.90	0	3.8340	0	36.7670	8	29.218	0	841.408	0	10.7	4	3.4	4	-1E+10	1	-1E+10	1	-1E+10	1	-1E+10	1	-1E+10	1	-1E+10	1
4901784	172	C	03/20/2020	10:44	-132.755	43.319	0	855.20	0	3.8250	0	36.7700	8	29.221	0	846.644	0	10.7	4	3.4	4	-1E+10	1	-1E+10	1	-1E+10	1	-1E+10	1	-1E+10	1	-1E+10	1
4901784	172	C	03/20/2020	10:44	-132.755	43.319	0	860.30	0	3.8200	0	36.7720	8	29.223	0	851.683	0	10.6	4	3.4	4	-1E+10	1	-1E+10	1	-1E+10	1	-1E+10	1	-1E+10	1	-1E+10	1
4901784	172	C	03/20/2020	10:44	-132.755	43.319	0	865.10	0	3.8110	0	36.7750	8	29.227	0	856.425	0	10.5	4	3.4	4	-1E+10	1	-1E+10	1	-1E+10	1	-1E+10	1	-1E+10	1	-1E+10	1
4901784	172	C	03/20/2020	10:44	-132.755	43.319	0	870.00	0	3.7930	0	36.7800	8	29.233	0	861.266	0	10.5	4	3.4	4	-1E+10	1	-1E+10	1	-1E+10	1	-1E+10	1	-1E+10	1	-1E+10	1
4901784	172	C	03/20/2020	10:44	-132.755	43.319	0	875.00	0	3.7780	0	36.7840	8	29.238	0	866.205	0	10.4	4	3.3	4	-1E+10	1	-1E+10	1	-1E+10	1	-1E+10	1	-1E+10	1	-1E+10	1
4901784	172	C	03/20/2020	10:44	-132.755	43.319	0	880.10	0	3.7560	0	36.7890	8	29.244	0	871.243	0	10.4	4	3.3	4	-1E+10	1	-1E+10	1	-1E+10	1	-1E+10	1	-1E+10	1	-1E+10	1
4901784	172	C	03/20/2020	10:44	-132.755	43.319	0	885.00	0	3.7370	0	36.7940	8	29.250	0	876.084	0	10.4	4	3.3	4	-1E+10	1	-1E+10	1	-1E+10	1	-1E+10	1	-1E+10	1	-1E+10	1
4901784	172	C	03/20/2020	10:44	-132.755	43.319	0	890.00	0	3.7270	0	36.7970	8	29.254	0	881.023	0	10.3	4	3.3	4	-1E+10	1	-1E+10	1	-1E+10	1	-1E+10	1	-1E+10	1	-1E+10	1
4901784	172	C	03/20/2020	10:44	-132.755	43.319	0	895.00	0	3.7150	0	36.8000	8	29.257	0	885.962	0	10.3	4	3.3	4	-1E+10	1	-1E+10	1	-1E+10	1	-1E+10	1	-1E+10	1	-1E+10	1
4901784	172	C	03/20/2020	10:44	-132.755	43.319	0	900.10	0	3.7040	0	36.8030	8	29.261	0	890.999	0	10.3	4	3.3	4	-1E+10	1	-1E+10	1	-1E+10	1	-1E+10	1	-1E+10	1	-1E+10	1
4901784	172	C	03/20/2020	10:44	-132.755	43.319	0	905.20	0	3.6890	0	36.8090	8	29.267	0	896.037	0	10.2	4	3.3	4	-1E+10	1	-1E+10	1	-1E+10	1	-1E+10	1	-1E+10	1	-1E+10	1
4901784	172	C	03/20/2020	10:44	-132.755	43.319	0	910.30	0	3.6740	0	36.8130	8	29.272	0	901.074	0	10.2	4	3.3	4	-1E+10	1	-1E+10	1	-1E+10	1	-1E+10	1	-1E+10	1	-1E+10	1
4901784	172	C	03/20/2020	10:44	-132.755	43.319	0	915.50	0	3.6650	0	36.8160	8	29.275	0	906.210	0	10.2	4	3.3	4	-1E+10	1	-1E+10	1	-1E+10	1	-1E+10	1	-1E+10	1	-1E+10	1
4901784	172	C	03/20/2020	10:44	-132.755	43.319	0	920.70	0	3.6590	0	36.8180	8	29.278	0	911.346	0	10.2	4	3.3	4	-1E+10	1	-1E+10	1	-1E+10	1	-1E+10	1	-1E+10	1	-1E+10	1
4901784	172	C	03/20/2020	10:44	-132.755	43.319	0	925.00	0	3.6550	0	36.8190	8	29.279	0	915.593	0	10.2	4	3.3	4	-1E+10	1	-1E+10	1	-1E+10	1	-1E+10	1	-1E+10	1	-1E+10	1
4901784	172	C	03/20/2020	10:44	-132.755	43.319	0	929.30	0	3.6430	0	36.8220	8	29.283	0	919.840	0	10.2	4	3.2	4	-1E+10	1	-1E+10	1	-1E+10	1	-1E+10	1	-1E+10	1	-1E+10	1
4901784	172	C	03/20/2020	10:44	-132.755	43.319	0	934.60	0	3.6320	0	36.8270	8	29.288	0	925.074	0	10.2	4	3.2	4	-1E+10	1	-1E+10	1	-1E+10	1	-1E+10	1	-1E+10	1	-1E+10	1
4901784	172	C	03/20/2020	10:44	-132.755	43.319	0	940.00	0	3.6220	0	36.8310	8	29.292	0	930.407	0	10.2	4	3.2	4	-1E+10	1	-1E+10	1	-1E+10	1	-1E+10	1	-1E+10	1	-1E+10	1
4901784	172	C	03/20/2020	10:44	-132.755	43.319	0	945.30	0	3.6080	0	36.8360	8	29.298	0	935.641	0	10.2	4	3.2	4	-1E+10	1	-1E+10	1	-1E+10	1	-1E+10	1	-1E+10	1	-1E+10	1
4901784	172	C	03/20/2020	10:44	-132.755	43.319	0	950.60	0	3.5910	0	36.8390	8	29.302	0	940.875	0	10.2	4	3.2	4	-1E+10	1	-1E+10	1	-1E+10	1	-1E+10	1	-1E+10	1	-1E+10	1
4901784	172	C	03/20/2020	10:44	-132.755	43.319	0	955.10	0	3.5890	0	36.8420	8	29.304	0	945.319	0	10.2	4	3.2	4	-1E+10	1	-1E+10	1	-1E+10	1	-1E+10	1	-1E+10	1	-1E+10	1
4901784	172	C	03/20/2020	10:44	-132.755	43.319	0	959.50	0	3.5850	0	36.8450	8	29.307	0	949.664	0	10.2	4	3.3	4	-1E+10	1	-1E+10	1	-1E+10	1	-1E+10	1	-1E+10	1	-1E+10	1
4901784	172	C	03/20/2020	10:44	-132.755	43.319	0	964.90	0	3.5700	0	36.8500	8	29.313	0	954.996	0	10.2	4	3.3	4	-1E+10	1	-1E+10	1	-1E+10	1	-1E+10	1	-1E+10	1	-1E+10	1
4901784	172	C	03/20/2020	10:44	-132.755	43.319	0	970.30	0	3.5530	0	36.8510	8	29.315	0	960.329	0	10.2	4	3.3	4	-1E+10	1	-1E+10	1	-1E+10	1	-1E+10	1	-1E+10	1	-1E+10	1
4901784	172	C	03/20/2020	10:44	-132.755	43.319	0	975.70	0	3.5390	0	36.8530	8	29.318	0	965.661	0	10.3	4	3.3	4	-1E+10	1	-1E+10	1	-1E+10	1	-1E+10	1	-1E+10	1	-1E+10	1
4901784	172	C	03/20/2020	10:44	-132.755	43.319	0	980.20	0	3.5270	0	36.8550	8	29.321	0	970.104	0	10.3	4	3.3	4	-1E+10	1	-1E+10	1	-1E+10	1	-1E+10	1	-1E+10	1	-1E+10	1
4901784	172	C	03/20/2020	10:44	-132.755	43.319	0	984.80	0	3.5200	0	36.8580	8	29.324	0	974.646	0	10.3	4	3.3	4	-1E+10	1	-1E+10	1	-1E+10	1	-1E+10	1	-1E+10	1	-1E+10	1
4901784	172	C	03/20/2020	10:44	-132.755	43.319	0	990.30	0	3.5160	0	36.8600	8	29.327	0	980.076	0	10.3	4	3.3	4	-1E+10	1	-1E+10	1	-1E+10	1	-1E+10	1	-1E+10	1	-1E+10	1
4901784	172	C	03/20/2020	10:44	-132.755	43.319	0	994.90	0	3.5050	0	36.8640	8	29.331	0	984.618	0	10.4	4	3.3	4	-1E+10	1	-1E+10	1	-1E+10	1	-1E+10	1	-1E+10	1	-1E+10	1
4901784	172	C	03/20/2020	10:44	-132.755	43.319	0	999.40	0	3.4860	0	36.8650	8	29.334	0	989.061	0	10.4	4	3.3	4	-1E+10	1	-1E+10	1	-1E+10	1	-1E+10	1	-1E+10	1	-1E+10	1
4901784	172	C	03/20/2020	10:44	-132.755	43.319	0	1004.90	0	3.4690	0	36.8690	8	29.339	0	994.491	0	10.4	4	3.3	4	-1E+10	1	-1E+10	1	-1E+10	1	-1E+10	1	-1E+10	1	-1E+10	1
4901784	172	C	03/20/2020	10:44	-132.755	43.319	0	1010.50	0	3.4580	0	36.8720	8	29.342	0	1000.020	0	10.5	4	3.3	4	-1E+10	1	-1E+10	1	-1E+10	1	-1E+10	1	-1E+10	1	-1E+10	1
4901784	172	C	03/20/2020	10:44	-132.755	43.319	0	1015.10	0	3.4490	0	36.8750	8	29.346	0	1004.561	0	10.5	4	3.3	4	-1E+10	1	-1E+10	1	-1E+10	1	-1E+10	1	-1E+10	1	-1E+10	1
4901784	172	C	03/20/2020	10:44	-132.755	43.319	0	1019.70	0	3.4390	0	36.8780	8	29.349	0	1009.102	0	10.6	4	3.4	4	-1E+10	1	-1E+10	1	-1E+10	1	-1E+10	1	-1E+10	1	-1E+10	1
4901784	172	C	03/20/2020	10:44	-132.755	43.319	0	1025.10	0	3.4250	0	36.8820	8	29.354	0	1014.433	0	10.6	4	3.4	4	-1E+10	1	-1E+10	1	-1E+10	1	-1E+10	1	-1E+10	1	-1E+10	1
4901784	172	C	03/20/2020	10:44	-132.755	43.319	0	1029.30	0	3.4220	0	36.8840	8	29.356	0	1018.579	0	10.7	4	3.4	4	-1E+10	1	-1E+10	1	-1E+10	1	-1E+10	1	-1E+10	1	-1E+10	1
4901784	172	C	03/20/2020	10:44	-132.755	43.319	0	1035.00	0	3.4120	0	36.8880	8	29.360	0	1024.206	0	10.8	4	3.4	4	-1E+10	1	-1E+10	1	-1E+10	1	-1E+10	1	-1E+10	1	-1E+10	1
4901784	172	C	03/20/2020	10:44	-132.755	43.319	0	1040.50	0	3.4060	0	36.8900	8	29.362	0	1029.635	0	10.8	4	3.4	4	-1E+10	1	-1E+10	1	-1E+10	1	-1E+10	1	-1E+10	1	-1E+10	1
4901784	172	C	03/20/2020	10:44	-132.755	43.319	0	1045.40	0	3.3920	0	36.8940	8	29.367	0	1034.472	0	10.9	4	3.5	4	-1E+10	1	-1E+10	1	-1E+10	1	-1E+10	1	-1E+10	1	-1E+10	1
4901784	172	C	03/20/2020	10:44	-132.755	43.319	0	1050.30	0	3.3840	0	36.8960	8	29.369	0	1039.308	0	11.0	4	3.5	4	-1E+10	1	-1E+10	1	-1E+10	1	-1E+10	1	-1E+10	1	-1E+10	1
4901784	172	C	03/20/2020	10:44	-132.755	43.319	0	1055.30	0	3.3740	0	36.8980	8	29.372	0	1044.244	0	11.1	4	3.5	4	-1E+10	1	-1E+10	1	-1E+10	1	-1E+10	1	-1E+10	1	-1E+10	1
4901784	172	C	03/20/2020	10:44	-132.755	43.319	0	1060.40	0	3.3600	0	36.9020	8	29.377	0	1049.277	0	11.2	4	3.5	4	-1E+10	1	-1E+10	1	-1E+10	1	-1E+10	1	-1E+10	1	-1E+10	1
4901784	172	C	03/20/2020	10:44	-132.755	43.319	0	1065.40	0	3.3460	0	36.9060	8	29.381	0	1054.212	0	11.3	4	3.6	4	-1E+10	1	-1E+10	1	-1E+10	1	-1E+10	1	-1E+10	1	-1E+10	1
4901784	172	C	03/20/2020	10:44	-132.755	43.319	0	1070.40	0	3.3300	0	36.9110	8	29.387	0	1059.147	0	11.4	4	3.6	4	-1E+10	1	-1E+10	1	-1E+10	1	-1E+10	1	-1E+10	1	-1E+10	1
4901784	172	C	03/20/2020	10:44	-132.755	43.319	0	1075.60	0	3.3190	0	36.9130	8	29.390	0	1064.279	0	11.5	4	3.7	4	-1E+10	1	-1E+10	1	-1E+10	1	-1E+10	1	-1E+10	1	-1E+10	1
4901784	172	C	03/20/2020	10:44	-132.755	43.319	0	1080.70	0	3.3040	0	36.9170	8	29.394	0	1069.313	0	11.6	4	3.7	4	-1E+10	1	-1E+10	1	-1E+10	1	-1E+10	1	-1E+10	1	-1E+10	1
4901784	172	C	03/20/2020	10:44	-132.755	43.319	0	1085.00	0	3.2970	0	36.9180	8	29.396	0	1073.556	0	11.7	4	3.7	4	-1E+10	1	-1E+10	1	-1E+10	1	-1E+10	1	-1E+10	1	-1E+10	1
4901784	172	C	03/20/2020	10:44	-132.755	43.319	0	1089.40	0	3.2840	0	36.9210	8	29.400	0	1077.899	0	11.8	4	3.7	4	-1E+10	1	-1E+10	1	-1E+10	1	-1E+10	1	-1E+10	1	-1E+10	1
4901784	172	C	03/20/2020	10:44	-132.755	43.319	0	1095.30	0	3.2710	0	36.9250	8	29.404	0	1083.721	0	12.0	4	3.8	4	-1E+10	1	-1E+10	1	-1E+10	1	-1E+10	1	-1E+10	1	-1E+10	1
4901784	172	C	03/20/2020	10:44	-132.755	43.319	0	1099.90	0	3.2680	0	36.9250	8	29.404	0	1088.261	0	12.0	4	3.8	4	-1E+10	1	-1E+10	1	-1E+10	1	-1E+10	1	-1E+10	1	-1E+10	1
4901784	172	C	03/20/2020	10:44	-132.755	43.319	0	1105.00	0	3.2600	0	36.9270	8	29.407	0	1093.293	0	12.1	4	3.8	4	-1E+10	1	-1E+10	1	-1E+10	1	-1E+10	1	-1E+10	1	-1E+10	1
4901784	172	C	03/20/2020	10:44	-132.755	43.319	0	1110.20	0	3.2400	0	36.9310	8	29.412	0	1098.425	0	12.3	4	3.9	4	-1E+10	1	-1E+10	1	-1E+10	1	-1E+10	1	-1E+10	1	-1E+10	1
4901784	172	C	03/20/2020	10:44	-132.755	43.319	0	1115.20	0	3.2240	0	36.9340	8	29.416	0	1103.358	0	12.4	4	3.9	4	-1E+10	1	-1E+10	1	-1E+10	1	-1E+10	1	-1E+10	1	-1E+10	1
4901784	172	C	03/20/2020	10:44	-132.755	43.319	0	1120.20	0	3.2120	0	36.9370	8	29.420	0	1108.292	0	12.5	4	4.0	4	-1E+10	1	-1E+10	1	-1E+10	1	-1E+10	1	-1E+10	1	-1E+10	1
4901784	172	C	03/20/2020	10:44	-132.755	43.319	0	1125.30	0	3.2030	0	36.9390	8	29.422	0	1113.325	0	12.6	4	4.0	4	-1E+10	1	-1E+10	1	-1E+10	1	-1E+10	1	-1E+10	1	-1E+10	1
4901784	172	C	03/20/2020	10:44	-132.755	43.319	0	1130.40	0	3.1950	0	36.9410	8	29.425	0	1118.357	0	12.7	4	4.0	4	-1E+10	1	-1E+10	1	-1E+10	1	-1E+10	1	-1E+10	1	-1E+10	1
4901784	172	C	03/20/2020	10:44	-132.755	43.319	0	1135.60	0	3.1850	0	36.9440	8	29.428	0	1123.487	0	12.8	4	4.0	4	-1E+10	1	-1E+10	1	-1E+10	1	-1E+10	1	-1E+10	1	-1E+10	1
4901784	172	C	03/20/2020	10:44	-132.755	43.319	0	1140.00	0	3.1800	0	36.9450	8	29.429	0	1127.829	0	12.9	4	4.1	4	-1E+10	1	-1E+10	1	-1E+10	1	-1E+10	1	-1E+10	1	-1E+10	1
4901784	172	C	03/20/2020	10:44	-132.755	43.319	0	1144.40	0	3.1710	0	36.9470	8	29.432	0	1132.170	0	13.0	4	4.1	4	-1E+10	1	-1E+10	1	-1E+10	1	-1E+10	1	-1E+10	1	-1E+10	1
4901784	172	C	03/20/2020	10:44	-132.755	43.319	0	1149.60	0	3.1610	0	36.9480	8	29.434	0	1137.300	0	13.1	4	4.1	4	-1E+10	1	-1E+10	1	-1E+10	1	-1E+10	1	-1E+10	1	-1E+10	1
4901784	172	C	03/20/2020	10:44	-132.755	43.319	0	1154.90	0	3.1490	0	36.9510	8	29.437	0	1142.529	0	13.2	4	4.2	4	-1E+10	1	-1E+10	1	-1E+10	1	-1E+10	1	-1E+10	1	-1E+10	1
4901784	172	C	03/20/2020	10:44	-132.755	43.319	0	1160.30	0	3.1400	0	36.9530	8	29.440	0	1147.856	0	13.3	4	4.2	4	-1E+10	1	-1E+10	1	-1E+10	1	-1E+10	1	-1E+10	1	-1E+10	1
4901784	172	C	03/20/2020	10:44	-132.755	43.319	0	1164.80	0	3.1370	0	36.9550	8	29.442	0	1152.296	0	13.4	4	4.2	4	-1E+10	1	-1E+10	1	-1E+10	1	-1E+10	1	-1E+10	1	-1E+10	1
4901784	172	C	03/20/2020	10:44	-132.755	43.319	0	1169.30	0	3.1320	0	36.9560	8	29.443	0	1156.735	0	13.4	4	4.2	4	-1E+10	1	-1E+10	1	-1E+10	1	-1E+10	1	-1E+10	1	-1E+10	1
4901784	172	C	03/20/2020	10:44	-132.755	43.319	0	1174.70	0	3.1220	0	36.9570	8	29.445	0	1162.062	0	13.6	4	4.3	4	-1E+10	1	-1E+10	1	-1E+10	1	-1E+10	1	-1E+10	1	-1E+10	1
4901784	172	C	03/20/2020	10:44	-132.755	43.319	0	1180.20	0	3.1140	0	36.9590	8	29.447	0	1167.488	0	13.6	4	4.3	4	-1E+10	1	-1E+10	1	-1E+10	1	-1E+10	1	-1E+10	1	-1E+10	1
4901784	172	C	03/20/2020	10:44	-132.755	43.319	0	1184.80	0	3.1100	0	36.9600	8	29.449	0	1172.025	0	13.7	4	4.3	4	-1E+10	1	-1E+10	1	-1E+10	1	-1E+10	1	-1E+10	1	-1E+10	1
4901784	172	C	03/20/2020	10:44	-132.755	43.319	0	1189.50	0	3.1070	0	36.9610	8	29.450	0	1176.662	0	13.8	4	4.3	4	-1E+10	1	-1E+10	1	-1E+10	1	-1E+10	1	-1E+10	1	-1E+10	1
4901784	172	C	03/20/2020	10:44	-132.755	43.319	0	1195.00	0	3.1000	0	36.9620	8	29.451	0	1182.087	0	13.9	4	4.4	4	-1E+10	1	-1E+10	1	-1E+10	1	-1E+10	1	-1E+10	1	-1E+10	1
4901784	172	C	03/20/2020	10:44	-132.755	43.319	0	1200.60	0	3.0810	0	36.9650	8	29.456	0	1187.610	0	14.1	4	4.4	4	-1E+10	1	-1E+10	1	-1E+10	1	-1E+10	1	-1E+10	1	-1E+10	1
4901784	172	C	03/20/2020	10:44	-132.755	43.319	0	1205.30	0	3.0720	0	36.9670	8	29.458	0	1192.246	0	14.2	4	4.5	4	-1E+10	1	-1E+10	1	-1E+10	1	-1E+10	1	-1E+10	1	-1E+10	1
4901784	172	C	03/20/2020	10:44	-132.755	43.319	0	1209.90	0	3.0630	0	36.9680	8	29.460	0	1196.783	0	14.3	4	4.5	4	-1E+10	1	-1E+10	1	-1E+10	1	-1E+10	1	-1E+10	1	-1E+10	1
4901784	172	C	03/20/2020	10:44	-132.755	43.319	0	1215.50	0	3.0430	0	36.9720	8	29.465	0	1202.307	0	14.5	4	4.6	4	-1E+10	1	-1E+10	1	-1E+10	1	-1E+10	1	-1E+10	1	-1E+10	1
4901784	172	C	03/20/2020	10:44	-132.755	43.319	0	1220.30	0	3.0380	0	36.9720	8	29.466	0	1207.041	0	14.7	4	4.6	4	-1E+10	1	-1E+10	1	-1E+10	1	-1E+10	1	-1E+10	1	-1E+10	1
4901784	172	C	03/20/2020	10:44	-132.755	43.319	0	1225.10	0	3.0230	0	36.9750	8	29.469	0	1211.775	0	14.8	4	4.7	4	-1E+10	1	-1E+10	1	-1E+10	1	-1E+10	1	-1E+10	1	-1E+10	1
4901784	172	C	03/20/2020	10:44	-132.755	43.319	0	1229.90	0	3.0110	0	36.9770	8	29.472	0	1216.509	0	15.0	4	4.7	4	-1E+10	1	-1E+10	1	-1E+10	1	-1E+10	1	-1E+10	1	-1E+10	1
4901784	172	C	03/20/2020	10:44	-132.755	43.319	0	1234.50	0	3.0020	0	36.9790	8	29.475	0	1221.045	0	15.1	4	4.7	4	-1E+10	1	-1E+10	1	-1E+10	1	-1E+10	1	-1E+10	1	-1E+10	1
4901784	172	C	03/20/2020	10:44	-132.755	43.319	0	1239.80	0	2.9930	0	36.9810	8	29.477	0	1226.272	0	15.2	4	4.8	4	-1E+10	1	-1E+10	1	-1E+10	1	-1E+10	1	-1E+10	1	-1E+10	1
4901784	172	C	03/20/2020	10:44	-132.755	43.319	0	1245.00	0	2.9880	0	36.9820	8	29.479	0	1231.400	0	15.3	4	4.8	4	-1E+10	1	-1E+10	1	-1E+10	1	-1E+10	1	-1E+10	1	-1E+10	1
4901784	172	C	03/20/2020	10:44	-132.755	43.319	0	1250.20	0	2.9840	0	36.9830	8	29.480	0	1236.528	0	15.3	4	4.8	4	-1E+10	1	-1E+10	1	-1E+10	1	-1E+10	1	-1E+10	1	-1E+10	1
4901784	172	C	03/20/2020	10:44	-132.755	43.319	0	1255.40	0	2.9790	0	36.9840	8	29.481	0	1241.656	0	15.5	4	4.9	4	-1E+10	1	-1E+10	1	-1E+10	1	-1E+10	1	-1E+10	1	-1E+10	1
4901784	172	C	03/20/2020	10:44	-132.755	43.319	0	1260.70	0	2.9710	0	36.9850	8	29.483	0	1246.882	0	15.7	4	4.9	4	-1E+10	1	-1E+10	1	-1E+10	1	-1E+10	1	-1E+10	1	-1E+10	1
4901784	172	C	03/20/2020	10:44	-132.755	43.319	0	1265.00	0	2.9620	0	36.9880	8	29.486	0	1251.122	0	15.8	4	5.0	4	-1E+10	1	-1E+10	1	-1E+10	1	-1E+10	1	-1E+10	1	-1E+10	1
4901784	172	C	03/20/2020	10:44	-132.755	43.319	0	1269.40	0	2.9460	0	36.9900	8	29.489	0	1255.461	0	16.0	4	5.0	4	-1E+10	1	-1E+10	1	-1E+10	1	-1E+10	1	-1E+10	1	-1E+10	1
4901784	172	C	03/20/2020	10:44	-132.755	43.319	0	1274.70	0	2.9360	0	36.9920	8	29.492	0	1260.687	0	16.2	4	5.1	4	-1E+10	1	-1E+10	1	-1E+10	1	-1E+10	1	-1E+10	1	-1E+10	1
4901784	172	C	03/20/2020	10:44	-132.755	43.319	0	1280.00	0	2.9230	0	36.9940	8	29.495	0	1265.913	0	16.4	4	5.1	4	-1E+10	1	-1E+10	1	-1E+10	1	-1E+10	1	-1E+10	1	-1E+10	1
4901784	172	C	03/20/2020	10:44	-132.755	43.319	0	1285.40	0	2.9110	0	36.9970	8	29.498	0	1271.237	0	16.5	4	5.2	4	-1E+10	1	-1E+10	1	-1E+10	1	-1E+10	1	-1E+10	1	-1E+10	1
4901784	172	C	03/20/2020	10:44	-132.755	43.319	0	1289.80	0	2.9070	0	36.9970	8	29.499	0	1275.575	0	16.6	4	5.2	4	-1E+10	1	-1E+10	1	-1E+10	1	-1E+10	1	-1E+10	1	-1E+10	1
4901784	172	C	03/20/2020	10:44	-132.755	43.319	0	1294.30	0	2.8990	0	36.9990	8	29.501	0	1280.012	0	16.8	4	5.3	4	-1E+10	1	-1E+10	1	-1E+10	1	-1E+10	1	-1E+10	1	-1E+10	1
4901784	172	C	03/20/2020	10:44	-132.755	43.319	0	1299.60	0	2.8920	0	37.0010	8	29.503	0	1285.237	0	17.0	4	5.3	4	-1E+10	1	-1E+10	1	-1E+10	1	-1E+10	1	-1E+10	1	-1E+10	1
4901784	172	C	03/20/2020	10:44	-132.755	43.319	0	1304.80	0	2.8790	0	37.0040	8	29.507	0	1290.364	0	17.1	4	5.4	4	-1E+10	1	-1E+10	1	-1E+10	1	-1E+10	1	-1E+10	1	-1E+10	1
4901784	172	C	03/20/2020	10:44	-132.755	43.319	0	1310.20	0	2.8710	0	37.0060	8	29.509	0	1295.687	0	17.3	4	5.4	4	-1E+10	1	-1E+10	1	-1E+10	1	-1E+10	1	-1E+10	1	-1E+10	1
4901784	172	C	03/20/2020	10:44	-132.755	43.319	0	1315.50	0	2.8620	0	37.0070	8	29.511	0	1300.912	0	17.5	4	5.5	4	-1E+10	1	-1E+10	1	-1E+10	1	-1E+10	1	-1E+10	1	-1E+10	1
4901784	172	C	03/20/2020	10:44	-132.755	43.319	0	1320.00	0	2.8570	0	37.0090	8	29.513	0	1305.349	0	17.6	4	5.5	4	-1E+10	1	-1E+10	1	-1E+10	1	-1E+10	1	-1E+10	1	-1E+10	1
4901784	172	C	03/20/2020	10:44	-132.755	43.319	0	1324.50	0	2.8530	0	37.0090	8	29.514	0	1309.785	0	17.7	4	5.6	4	-1E+10	1	-1E+10	1	-1E+10	1	-1E+10	1	-1E+10	1	-1E+10	1
4901784	172	C	03/20/2020	10:44	-132.755	43.319	0	1329.90	0	2.8430	0	37.0090	8	29.515	0	1315.108	0	18.0	4	5.6	4	-1E+10	1	-1E+10	1	-1E+10	1	-1E+10	1	-1E+10	1	-1E+10	1
4901784	172	C	03/20/2020	10:44	-132.755	43.319	0	1335.40	0	2.8340	0	37.0090	8	29.516	0	1320.529	0	18.1	4	5.7	4	-1E+10	1	-1E+10	1	-1E+10	1	-1E+10	1	-1E+10	1	-1E+10	1
4901784	172	C	03/20/2020	10:44	-132.755	43.319	0	1339.90	0	2.8290	0	37.0100	8	29.517	0	1324.965	0	18.3	4	5.7	4	-1E+10	1	-1E+10	1	-1E+10	1	-1E+10	1	-1E+10	1	-1E+10	1
4901784	172	C	03/20/2020	10:44	-132.755	43.319	0	1344.40	0	2.8210	0	37.0110	8	29.518	0	1329.401	0	18.5	4	5.8	4	-1E+10	1	-1E+10	1	-1E+10	1	-1E+10	1	-1E+10	1	-1E+10	1
4901784	172	C	03/20/2020	10:44	-132.755	43.319	0	1349.90	0	2.8140	0	37.0130	8	29.521	0	1334.822	0	18.6	4	5.8	4	-1E+10	1	-1E+10	1	-1E+10	1	-1E+10	1	-1E+10	1	-1E+10	1
4901784	172	C	03/20/2020	10:44	-132.755	43.319	0	1355.40	0	2.8010	0	37.0150	8	29.524	0	1340.243	0	18.9	4	5.9	4	-1E+10	1	-1E+10	1	-1E+10	1	-1E+10	1	-1E+10	1	-1E+10	1
4901784	172	C	03/20/2020	10:44	-132.755	43.319	0	1359.90	0	2.7960	0	37.0160	8	29.525	0	1344.678	0	19.0	4	5.9	4	-1E+10	1	-1E+10	1	-1E+10	1	-1E+10	1	-1E+10	1	-1E+10	1
4901784	172	C	03/20/2020	10:44	-132.755	43.319	0	1364.50	0	2.7920	0	37.0170	8	29.526	0	1349.212	0	19.1	4	6.0	4	-1E+10	1	-1E+10	1	-1E+10	1	-1E+10	1	-1E+10	1	-1E+10	1
4901784	172	C	03/20/2020	10:44	-132.755	43.319	0	1370.00	0	2.7830	0	37.0180	8	29.528	0	1354.633	0	19.3	4	6.0	4	-1E+10	1	-1E+10	1	-1E+10	1	-1E+10	1	-1E+10	1	-1E+10	1
4901784	172	C	03/20/2020	10:44	-132.755	43.319	0	1375.40	0	2.7780	0	37.0190	8	29.529	0	1359.955	0	19.5	4	6.1	4	-1E+10	1	-1E+10	1	-1E+10	1	-1E+10	1	-1E+10	1	-1E+10	1
4901784	172	C	03/20/2020	10:44	-132.755	43.319	0	1379.90	0	2.7710	0	37.0210	8	29.531	0	1364.390	0	19.7	4	6.2	4	-1E+10	1	-1E+10	1	-1E+10	1	-1E+10	1	-1E+10	1	-1E+10	1
4901784	172	C	03/20/2020	10:44	-132.755	43.319	0	1384.40	0	2.7610	0	37.0220	8	29.533	0	1368.825	0	19.9	4	6.2	4	-1E+10	1	-1E+10	1	-1E+10	1	-1E+10	1	-1E+10	1	-1E+10	1
4901784	172	C	03/20/2020	10:44	-132.755	43.319	0	1389.80	0	2.7480	0	37.0240	8	29.536	0	1374.146	0	20.2	4	6.3	4	-1E+10	1	-1E+10	1	-1E+10	1	-1E+10	1	-1E+10	1	-1E+10	1
4901784	172	C	03/20/2020	10:44	-132.755	43.319	0	1395.30	0	2.7410	0	37.0260	8	29.538	0	1379.567	0	20.4	4	6.4	4	-1E+10	1	-1E+10	1	-1E+10	1	-1E+10	1	-1E+10	1	-1E+10	1
4901784	172	C	03/20/2020	10:44	-132.755	43.319	0	1399.80	0	2.7340	0	37.0270	8	29.540	0	1384.001	0	20.6	4	6.4	4	-1E+10	1	-1E+10	1	-1E+10	1	-1E+10	1	-1E+10	1	-1E+10	1
4901784	172	C	03/20/2020	10:44	-132.755	43.319	0	1404.40	0	2.7230	0	37.0300	8	29.543	0	1388.534	0	20.8	4	6.5	4	-1E+10	1	-1E+10	1	-1E+10	1	-1E+10	1	-1E+10	1	-1E+10	1
4901784	172	C	03/20/2020	10:44	-132.755	43.319	0	1409.90	0	2.7170	0	37.0310	8	29.545	0	1393.954	0	21.0	4	6.6	4	-1E+10	1	-1E+10	1	-1E+10	1	-1E+10	1	-1E+10	1	-1E+10	1
4901784	172	C	03/20/2020	10:44	-132.755	43.319	0	1415.40	0	2.7120	0	37.0310	8	29.545	0	1399.373	0	21.2	4	6.6	4	-1E+10	1	-1E+10	1	-1E+10	1	-1E+10	1	-1E+10	1	-1E+10	1
4901784	172	C	03/20/2020	10:44	-132.755	43.319	0	1419.90	0	2.7030	0	37.0330	8	29.548	0	1403.807	0	21.5	4	6.7	4	-1E+10	1	-1E+10	1	-1E+10	1	-1E+10	1	-1E+10	1	-1E+10	1
4901784	172	C	03/20/2020	10:44	-132.755	43.319	0	1424.50	0	2.6920	0	37.0350	8	29.550	0	1408.340	0	21.8	4	6.8	4	-1E+10	1	-1E+10	1	-1E+10	1	-1E+10	1	-1E+10	1	-1E+10	1
4901784	172	C	03/20/2020	10:44	-132.755	43.319	0	1430.10	0	2.6780	0	37.0380	8	29.554	0	1413.858	0	22.1	4	6.9	4	-1E+10	1	-1E+10	1	-1E+10	1	-1E+10	1	-1E+10	1	-1E+10	1
4901784	172	C	03/20/2020	10:44	-132.755	43.319	0	1434.80	0	2.6720	0	37.0390	8	29.555	0	1418.488	0	22.3	4	7.0	4	-1E+10	1	-1E+10	1	-1E+10	1	-1E+10	1	-1E+10	1	-1E+10	1
4901784	172	C	03/20/2020	10:44	-132.755	43.319	0	1439.70	0	2.6630	0	37.0400	8	29.557	0	1423.316	0	22.5	4	7.0	4	-1E+10	1	-1E+10	1	-1E+10	1	-1E+10	1	-1E+10	1	-1E+10	1
4901784	172	C	03/20/2020	10:44	-132.755	43.319	0	1444.80	0	2.6530	0	37.0420	8	29.560	0	1428.341	0	22.9	4	7.1	4	-1E+10	1	-1E+10	1	-1E+10	1	-1E+10	1	-1E+10	1	-1E+10	1
4901784	172	C	03/20/2020	10:44	-132.755	43.319	0	1449.70	0	2.6400	0	37.0440	8	29.563	0	1433.168	0	23.2	4	7.2	4	-1E+10	1	-1E+10	1	-1E+10	1	-1E+10	1	-1E+10	1	-1E+10	1
4901784	172	C	03/20/2020	10:44	-132.755	43.319	0	1454.70	0	2.6290	0	37.0460	8	29.565	0	1438.094	0	23.5	4	7.3	4	-1E+10	1	-1E+10	1	-1E+10	1	-1E+10	1	-1E+10	1	-1E+10	1
4901784	172	C	03/20/2020	10:44	-132.755	43.319	0	1459.60	0	2.6200	0	37.0480	8	29.568	0	1442.922	0	23.7	4	7.4	4	-1E+10	1	-1E+10	1	-1E+10	1	-1E+10	1	-1E+10	1	-1E+10	1
4901784	172	C	03/20/2020	10:44	-132.755	43.319	0	1464.60	0	2.6130	0	37.0490	8	29.569	0	1447.847	0	23.9	4	7.4	4	-1E+10	1	-1E+10	1	-1E+10	1	-1E+10	1	-1E+10	1	-1E+10	1
4901784	172	C	03/20/2020	10:44	-132.755	43.319	0	1469.50	0	2.6100	0	37.0500	8	29.570	0	1452.675	0	24.0	4	7.5	4	-1E+10	1	-1E+10	1	-1E+10	1	-1E+10	1	-1E+10	1	-1E+10	1
4901784	172	C	03/20/2020	10:44	-132.755	43.319	0	1474.50	0	2.6050	0	37.0510	8	29.572	0	1457.600	0	24.2	4	7.6	4	-1E+10	1	-1E+10	1	-1E+10	1	-1E+10	1	-1E+10	1	-1E+10	1
4901784	172	C	03/20/2020	10:44	-132.755	43.319	0	1479.50	0	2.5970	0	37.0520	8	29.573	0	1462.526	0	24.6	4	7.7	4	-1E+10	1	-1E+10	1	-1E+10	1	-1E+10	1	-1E+10	1	-1E+10	1
4901784	172	C	03/20/2020	10:44	-132.755	43.319	0	1484.50	0	2.5860	0	37.0540	8	29.576	0	1467.451	0	24.9	4	7.8	4	-1E+10	1	-1E+10	1	-1E+10	1	-1E+10	1	-1E+10	1	-1E+10	1
4901784	172	C	03/20/2020	10:44	-132.755	43.319	0	1489.60	0	2.5770	0	37.0550	8	29.577	0	1472.474	0	25.3	4	7.9	4	-1E+10	1	-1E+10	1	-1E+10	1	-1E+10	1	-1E+10	1	-1E+10	1
4901784	172	C	03/20/2020	10:44	-132.755	43.319	0	1494.60	0	2.5650	0	37.0570	8	29.580	0	1477.400	0	25.8	4	8.0	4	-1E+10	1	-1E+10	1	-1E+10	1	-1E+10	1	-1E+10	1	-1E+10	1
4901784	172	C	03/20/2020	10:44	-132.755	43.319	0	1499.60	0	2.5520	0	37.0600	8	29.584	0	1482.324	0	26.1	4	8.1	4	-1E+10	1	-1E+10	1	-1E+10	1	-1E+10	1	-1E+10	1	-1E+10	1
4901784	172	C	03/20/2020	10:44	-132.755	43.319	0	1504.60	0	2.5460	0	37.0610	8	29.585	0	1487.249	0	26.3	4	8.2	4	-1E+10	1	-1E+10	1	-1E+10	1	-1E+10	1	-1E+10	1	-1E+10	1
4901784	172	C	03/20/2020	10:44	-132.755	43.319	0	1509.60	0	2.5400	0	37.0620	8	29.587	0	1492.174	0	26.6	4	8.3	4	-1E+10	1	-1E+10	1	-1E+10	1	-1E+10	1	-1E+10	1	-1E+10	1
4901784	172	C	03/20/2020	10:44	-132.755	43.319	0	1514.70	0	2.5320	0	37.0630	8	29.588	0	1497.197	0	26.9	4	8.4	4	-1E+10	1	-1E+10	1	-1E+10	1	-1E+10	1	-1E+10	1	-1E+10	1
4901784	172	C	03/20/2020	10:44	-132.755	43.319	0	1519.90	0	2.5230	0	37.0650	8	29.591	0	1502.319	0	27.1	4	8.5	4	-1E+10	1	-1E+10	1	-1E+10	1	-1E+10	1	-1E+10	1	-1E+10	1
4901784	172	C	03/20/2020	10:44	-132.755	43.319	0	1525.10	0	2.5180	0	37.0660	8	29.592	0	1507.440	0	27.4	4	8.5	4	-1E+10	1	-1E+10	1	-1E+10	1	-1E+10	1	-1E+10	1	-1E+10	1
4901784	172	C	03/20/2020	10:44	-132.755	43.319	0	1530.20	0	2.5100	0	37.0670	8	29.593	0	1512.462	0	27.6	4	8.6	4	-1E+10	1	-1E+10	1	-1E+10	1	-1E+10	1	-1E+10	1	-1E+10	1
4901784	172	C	03/20/2020	10:44	-132.755	43.319	0	1535.40	0	2.5040	0	37.0690	8	29.596	0	1517.584	0	27.8	4	8.6	4	-1E+10	1	-1E+10	1	-1E+10	1	-1E+10	1	-1E+10	1	-1E+10	1
4901784	172	C	03/20/2020	10:44	-132.755	43.319	0	1540.70	0	2.5000	0	37.0700	8	29.597	0	1522.803	0	28.0	4	8.7	4	-1E+10	1	-1E+10	1	-1E+10	1	-1E+10	1	-1E+10	1	-1E+10	1
4901784	172	C	03/20/2020	10:44	-132.755	43.319	0	1545.00	0	2.4940	0	37.0700	8	29.597	0	1527.038	0	28.2	4	8.8	4	-1E+10	1	-1E+10	1	-1E+10	1	-1E+10	1	-1E+10	1	-1E+10	1
4901784	172	C	03/20/2020	10:44	-132.755	43.319	0	1549.40	0	2.4860	0	37.0730	8	29.601	0	1531.371	0	28.4	4	8.8	4	-1E+10	1	-1E+10	1	-1E+10	1	-1E+10	1	-1E+10	1	-1E+10	1
4901784	172	C	03/20/2020	10:44	-132.755	43.319	0	1554.70	0	2.4790	0	37.0740	8	29.602	0	1536.590	0	28.8	4	8.9	4	-1E+10	1	-1E+10	1	-1E+10	1	-1E+10	1	-1E+10	1	-1E+10	1
4901784	172	C	03/20/2020	10:44	-132.755	43.319	0	1560.00	0	2.4670	0	37.0750	8	29.604	0	1541.809	0	29.2	4	9.1	4	-1E+10	1	-1E+10	1	-1E+10	1	-1E+10	1	-1E+10	1	-1E+10	1
4901784	172	C	03/20/2020	10:44	-132.755	43.319	0	1565.30	0	2.4570	0	37.0770	8	29.606	0	1547.027	0	29.6	4	9.2	4	-1E+10	1	-1E+10	1	-1E+10	1	-1E+10	1	-1E+10	1	-1E+10	1
4901784	172	C	03/20/2020	10:44	-132.755	43.319	0	1569.80	0	2.4490	0	37.0780	8	29.608	0	1551.458	0	30.0	4	9.3	4	-1E+10	1	-1E+10	1	-1E+10	1	-1E+10	1	-1E+10	1	-1E+10	1
4901784	172	C	03/20/2020	10:44	-132.755	43.319	0	1574.40	0	2.4390	0	37.0800	8	29.611	0	1555.988	0	30.4	4	9.4	4	-1E+10	1	-1E+10	1	-1E+10	1	-1E+10	1	-1E+10	1	-1E+10	1
4901784	172	C	03/20/2020	10:44	-132.755	43.319	0	1579.90	0	2.4260	0	37.0820	8	29.613	0	1561.403	0	30.8	4	9.6	4	-1E+10	1	-1E+10	1	-1E+10	1	-1E+10	1	-1E+10	1	-1E+10	1
4901784	172	C	03/20/2020	10:44	-132.755	43.319	0	1585.30	0	2.4150	0	37.0840	8	29.616	0	1566.720	0	31.1	4	9.7	4	-1E+10	1	-1E+10	1	-1E+10	1	-1E+10	1	-1E+10	1	-1E+10	1
4901784	172	C	03/20/2020	10:44	-132.755	43.319	0	1590.70	0	2.4070	0	37.0850	8	29.618	0	1572.037	0	31.6	4	9.8	4	-1E+10	1	-1E+10	1	-1E+10	1	-1E+10	1	-1E+10	1	-1E+10	1
4901784	172	C	03/20/2020	10:44	-132.755	43.319	0	1595.50	0	2.3970	0	37.0870	8	29.620	0	1576.762	0	31.8	4	9.9	4	-1E+10	1	-1E+10	1	-1E+10	1	-1E+10	1	-1E+10	1	-1E+10	1
4901784	172	C	03/20/2020	10:44	-132.755	43.319	0	1600.30	0	2.3930	0	37.0880	8	29.621	0	1581.488	0	32.1	4	9.9	4	-1E+10	1	-1E+10	1	-1E+10	1	-1E+10	1	-1E+10	1	-1E+10	1
4901784	172	C	03/20/2020	10:44	-132.755	43.319	0	1605.10	0	2.3860	0	37.0890	8	29.623	0	1586.214	0	32.3	4	10.0	4	-1E+10	1	-1E+10	1	-1E+10	1	-1E+10	1	-1E+10	1	-1E+10	1
4901784	172	C	03/20/2020	10:44	-132.755	43.319	0	1610.00	0	2.3810	0	37.0900	8	29.624	0	1591.038	0	32.6	4	10.1	4	-1E+10	1	-1E+10	1	-1E+10	1	-1E+10	1	-1E+10	1	-1E+10	1
4901784	172	C	03/20/2020	10:44	-132.755	43.319	0	1614.90	0	2.3750	0	37.0910	8	29.625	0	1595.862	0	32.9	4	10.2	4	-1E+10	1	-1E+10	1	-1E+10	1	-1E+10	1	-1E+10	1	-1E+10	1
4901784	172	C	03/20/2020	10:44	-132.755	43.319	0	1619.80	0	2.3650	0	37.0930	8	29.628	0	1600.685	0	33.2	4	10.3	4	-1E+10	1	-1E+10	1	-1E+10	1	-1E+10	1	-1E+10	1	-1E+10	1
4901784	172	C	03/20/2020	10:44	-132.755	43.319	0	1624.70	0	2.3620	0	37.0940	8	29.629	0	1605.509	0	33.4	4	10.4	4	-1E+10	1	-1E+10	1	-1E+10	1	-1E+10	1	-1E+10	1	-1E+10	1
4901784	172	C	03/20/2020	10:44	-132.755	43.319	0	1629.70	0	2.3570	0	37.0950	8	29.630	0	1610.431	0	33.7	4	10.5	4	-1E+10	1	-1E+10	1	-1E+10	1	-1E+10	1	-1E+10	1	-1E+10	1
4901784	172	C	03/20/2020	10:44	-132.755	43.319	0	1634.70	0	2.3480	0	37.0970	8	29.633	0	1615.353	0	34.1	4	10.6	4	-1E+10	1	-1E+10	1	-1E+10	1	-1E+10	1	-1E+10	1	-1E+10	1
4901784	172	C	03/20/2020	10:44	-132.755	43.319	0	1639.80	0	2.3410	0	37.0970	8	29.633	0	1620.373	0	34.5	4	10.7	4	-1E+10	1	-1E+10	1	-1E+10	1	-1E+10	1	-1E+10	1	-1E+10	1
4901784	172	C	03/20/2020	10:44	-132.755	43.319	0	1644.80	0	2.3300	0	37.0990	8	29.636	0	1625.294	0	34.9	4	10.8	4	-1E+10	1	-1E+10	1	-1E+10	1	-1E+10	1	-1E+10	1	-1E+10	1
4901784	172	C	03/20/2020	10:44	-132.755	43.319	0	1649.80	0	2.3220	0	37.1010	8	29.638	0	1630.216	0	35.3	4	10.9	4	-1E+10	1	-1E+10	1	-1E+10	1	-1E+10	1	-1E+10	1	-1E+10	1
4901784	172	C	03/20/2020	10:44	-132.755	43.319	0	1654.90	0	2.3130	0	37.1030	8	29.641	0	1635.236	0	35.6	4	11.0	4	-1E+10	1	-1E+10	1	-1E+10	1	-1E+10	1	-1E+10	1	-1E+10	1
4901784	172	C	03/20/2020	10:44	-132.755	43.319	0	1660.00	0	2.3060	0	37.1040	8	29.642	0	1640.255	0	35.9	4	11.1	4	-1E+10	1	-1E+10	1	-1E+10	1	-1E+10	1	-1E+10	1	-1E+10	1
4901784	172	C	03/20/2020	10:44	-132.755	43.319	0	1665.20	0	2.3010	0	37.1050	8	29.643	0	1645.373	0	36.2	4	11.2	4	-1E+10	1	-1E+10	1	-1E+10	1	-1E+10	1	-1E+10	1	-1E+10	1
4901784	172	C	03/20/2020	10:44	-132.755	43.319	0	1670.50	0	2.2950	0	37.1060	8	29.645	0	1650.590	0	36.4	4	11.3	4	-1E+10	1	-1E+10	1	-1E+10	1	-1E+10	1	-1E+10	1	-1E+10	1
4901784	172	C	03/20/2020	10:44	-132.755	43.319	0	1675.70	0	2.2900	0	37.1070	8	29.646	0	1655.707	0	36.8	4	11.4	4	-1E+10	1	-1E+10	1	-1E+10	1	-1E+10	1	-1E+10	1	-1E+10	1
4901784	172	C	03/20/2020	10:44	-132.755	43.319	0	1680.00	0	2.2820	0	37.1080	8	29.648	0	1659.939	0	37.1	4	11.5	4	-1E+10	1	-1E+10	1	-1E+10	1	-1E+10	1	-1E+10	1	-1E+10	1
4901784	172	C	03/20/2020	10:44	-132.755	43.319	0	1684.40	0	2.2730	0	37.1100	8	29.650	0	1664.269	0	37.5	4	11.6	4	-1E+10	1	-1E+10	1	-1E+10	1	-1E+10	1	-1E+10	1	-1E+10	1
4901784	172	C	03/20/2020	10:44	-132.755	43.319	0	1689.70	0	2.2660	0	37.1110	8	29.652	0	1669.485	0	37.8	4	11.7	4	-1E+10	1	-1E+10	1	-1E+10	1	-1E+10	1	-1E+10	1	-1E+10	1
4901784	172	C	03/20/2020	10:44	-132.755	43.319	0	1695.00	0	2.2580	0	37.1120	8	29.653	0	1674.701	0	38.2	4	11.8	4	-1E+10	1	-1E+10	1	-1E+10	1	-1E+10	1	-1E+10	1	-1E+10	1
4901784	172	C	03/20/2020	10:44	-132.755	43.319	0	1700.40	0	2.2510	0	37.1140	8	29.655	0	1680.015	0	38.6	4	11.9	4	-1E+10	1	-1E+10	1	-1E+10	1	-1E+10	1	-1E+10	1	-1E+10	1
4901784	172	C	03/20/2020	10:44	-132.755	43.319	0	1704.80	0	2.2450	0	37.1150	8	29.657	0	1684.345	0	38.9	4	12.0	4	-1E+10	1	-1E+10	1	-1E+10	1	-1E+10	1	-1E+10	1	-1E+10	1
4901784	172	C	03/20/2020	10:44	-132.755	43.319	0	1709.30	0	2.2390	0	37.1160	8	29.658	0	1688.773	0	39.2	4	12.1	4	-1E+10	1	-1E+10	1	-1E+10	1	-1E+10	1	-1E+10	1	-1E+10	1
4901784	172	C	03/20/2020	10:44	-132.755	43.319	0	1714.70	0	2.2280	0	37.1180	8	29.661	0	1694.086	0	39.7	4	12.3	4	-1E+10	1	-1E+10	1	-1E+10	1	-1E+10	1	-1E+10	1	-1E+10	1
4901784	172	C	03/20/2020	10:44	-132.755	43.319	0	1720.20	0	2.2190	0	37.1200	8	29.663	0	1699.498	0	40.1	4	12.4	4	-1E+10	1	-1E+10	1	-1E+10	1	-1E+10	1	-1E+10	1	-1E+10	1
4901784	172	C	03/20/2020	10:44	-132.755	43.319	0	1725.70	0	2.2150	0	37.1200	8	29.663	0	1704.910	0	40.5	4	12.5	4	-1E+10	1	-1E+10	1	-1E+10	1	-1E+10	1	-1E+10	1	-1E+10	1
4901784	172	C	03/20/2020	10:44	-132.755	43.319	0	1730.20	0	2.2080	0	37.1210	8	29.665	0	1709.337	0	40.9	4	12.6	4	-1E+10	1	-1E+10	1	-1E+10	1	-1E+10	1	-1E+10	1	-1E+10	1
4901784	172	C	03/20/2020	10:44	-132.755	43.319	0	1734.80	0	2.1980	0	37.1230	8	29.667	0	1713.863	0	41.3	4	12.8	4	-1E+10	1	-1E+10	1	-1E+10	1	-1E+10	1	-1E+10	1	-1E+10	1
4901784	172	C	03/20/2020	10:44	-132.755	43.319	0	1740.20	0	2.1900	0	37.1250	8	29.670	0	1719.176	0	41.8	4	12.9	4	-1E+10	1	-1E+10	1	-1E+10	1	-1E+10	1	-1E+10	1	-1E+10	1
4901784	172	C	03/20/2020	10:44	-132.755	43.319	0	1745.60	0	2.1770	0	37.1270	8	29.672	0	1724.489	0	42.3	4	13.1	4	-1E+10	1	-1E+10	1	-1E+10	1	-1E+10	1	-1E+10	1	-1E+10	1
4901784	172	C	03/20/2020	10:44	-132.755	43.319	0	1750.40	0	2.1700	0	37.1280	8	29.674	0	1729.212	0	42.7	4	13.2	4	-1E+10	1	-1E+10	1	-1E+10	1	-1E+10	1	-1E+10	1	-1E+10	1
4901784	172	C	03/20/2020	10:44	-132.755	43.319	0	1755.20	0	2.1640	0	37.1290	8	29.675	0	1733.934	0	43.0	4	13.3	4	-1E+10	1	-1E+10	1	-1E+10	1	-1E+10	1	-1E+10	1	-1E+10	1
4901784	172	C	03/20/2020	10:44	-132.755	43.319	0	1760.10	0	2.1570	0	37.1310	8	29.677	0	1738.754	0	43.4	4	13.4	4	-1E+10	1	-1E+10	1	-1E+10	1	-1E+10	1	-1E+10	1	-1E+10	1
4901784	172	C	03/20/2020	10:44	-132.755	43.319	0	1765.10	0	2.1500	0	37.1320	8	29.679	0	1743.673	0	43.7	4	13.5	4	-1E+10	1	-1E+10	1	-1E+10	1	-1E+10	1	-1E+10	1	-1E+10	1
4901784	172	C	03/20/2020	10:44	-132.755	43.319	0	1770.10	0	2.1450	0	37.1330	8	29.680	0	1748.592	0	44.1	4	13.6	4	-1E+10	1	-1E+10	1	-1E+10	1	-1E+10	1	-1E+10	1	-1E+10	1
4901784	172	C	03/20/2020	10:44	-132.755	43.319	0	1775.10	0	2.1380	0	37.1340	8	29.682	0	1753.511	0	44.5	4	13.7	4	-1E+10	1	-1E+10	1	-1E+10	1	-1E+10	1	-1E+10	1	-1E+10	1
4901784	172	C	03/20/2020	10:44	-132.755	43.319	0	1780.10	0	2.1320	0	37.1360	8	29.684	0	1758.429	0	44.8	4	13.8	4	-1E+10	1	-1E+10	1	-1E+10	1	-1E+10	1	-1E+10	1	-1E+10	1
4901784	172	C	03/20/2020	10:44	-132.755	43.319	0	1785.20	0	2.1260	0	37.1370	8	29.685	0	1763.446	0	45.2	4	13.9	4	-1E+10	1	-1E+10	1	-1E+10	1	-1E+10	1	-1E+10	1	-1E+10	1
4901784	172	C	03/20/2020	10:44	-132.755	43.319	0	1790.20	0	2.1190	0	37.1380	8	29.687	0	1768.364	0	45.5	4	14.0	4	-1E+10	1	-1E+10	1	-1E+10	1	-1E+10	1	-1E+10	1	-1E+10	1
4901784	172	C	03/20/2020	10:44	-132.755	43.319	0	1795.30	0	2.1160	0	37.1390	8	29.688	0	1773.381	0	45.8	4	14.1	4	-1E+10	1	-1E+10	1	-1E+10	1	-1E+10	1	-1E+10	1	-1E+10	1
4901784	172	C	03/20/2020	10:44	-132.755	43.319	0	1800.40	0	2.1100	0	37.1400	8	29.689	0	1778.397	0	46.2	4	14.2	4	-1E+10	1	-1E+10	1	-1E+10	1	-1E+10	1	-1E+10	1	-1E+10	1
4901784	172	C	03/20/2020	10:44	-132.755	43.319	0	1805.50	0	2.1030	0	37.1410	8	29.690	0	1783.413	0	46.6	4	14.4	4	-1E+10	1	-1E+10	1	-1E+10	1	-1E+10	1	-1E+10	1	-1E+10	1
4901784	172	C	03/20/2020	10:44	-132.755	43.319	0	1810.60	0	2.0940	0	37.1430	8	29.693	0	1788.430	0	47.0	4	14.5	4	-1E+10	1	-1E+10	1	-1E+10	1	-1E+10	1	-1E+10	1	-1E+10	1
4901784	172	C	03/20/2020	10:44	-132.755	43.319	0	1815.70	0	2.0900	0	37.1440	8	29.694	0	1793.446	0	47.3	4	14.6	4	-1E+10	1	-1E+10	1	-1E+10	1	-1E+10	1	-1E+10	1	-1E+10	1
4901784	172	C	03/20/2020	10:44	-132.755	43.319	0	1820.00	0	2.0850	0	37.1450	8	29.695	0	1797.675	0	47.6	4	14.7	4	-1E+10	1	-1E+10	1	-1E+10	1	-1E+10	1	-1E+10	1	-1E+10	1
4901784	172	C	03/20/2020	10:44	-132.755	43.319	0	1824.40	0	2.0780	0	37.1470	8	29.698	0	1802.002	0	47.9	4	14.8	4	-1E+10	1	-1E+10	1	-1E+10	1	-1E+10	1	-1E+10	1	-1E+10	1
4901784	172	C	03/20/2020	10:44	-132.755	43.319	0	1829.60	0	2.0750	0	37.1470	8	29.698	0	1807.116	0	48.2	4	14.8	4	-1E+10	1	-1E+10	1	-1E+10	1	-1E+10	1	-1E+10	1	-1E+10	1
4901784	172	C	03/20/2020	10:44	-132.755	43.319	0	1834.80	0	2.0690	0	37.1490	8	29.700	0	1812.230	0	48.5	4	14.9	4	-1E+10	1	-1E+10	1	-1E+10	1	-1E+10	1	-1E+10	1	-1E+10	1
4901784	172	C	03/20/2020	10:44	-132.755	43.319	0	1840.10	0	2.0680	0	37.1490	8	29.700	0	1817.442	0	48.7	4	15.0	4	-1E+10	1	-1E+10	1	-1E+10	1	-1E+10	1	-1E+10	1	-1E+10	1
4901784	172	C	03/20/2020	10:44	-132.755	43.319	0	1845.30	0	2.0630	0	37.1490	8	29.701	0	1822.556	0	49.2	4	15.2	4	-1E+10	1	-1E+10	1	-1E+10	1	-1E+10	1	-1E+10	1	-1E+10	1
4901784	172	C	03/20/2020	10:44	-132.755	43.319	0	1850.50	0	2.0510	0	37.1520	8	29.704	0	1827.670	0	49.8	4	15.3	4	-1E+10	1	-1E+10	1	-1E+10	1	-1E+10	1	-1E+10	1	-1E+10	1
4901784	172	C	03/20/2020	10:44	-132.755	43.319	0	1854.90	0	2.0450	0	37.1530	8	29.705	0	1831.996	0	50.1	4	15.4	4	-1E+10	1	-1E+10	1	-1E+10	1	-1E+10	1	-1E+10	1	-1E+10	1
4901784	172	C	03/20/2020	10:44	-132.755	43.319	0	1859.40	0	2.0410	0	37.1530	8	29.706	0	1836.421	0	50.4	4	15.5	4	-1E+10	1	-1E+10	1	-1E+10	1	-1E+10	1	-1E+10	1	-1E+10	1
4901784	172	C	03/20/2020	10:44	-132.755	43.319	0	1864.70	0	2.0340	0	37.1550	8	29.708	0	1841.633	0	50.8	4	15.6	4	-1E+10	1	-1E+10	1	-1E+10	1	-1E+10	1	-1E+10	1	-1E+10	1
4901784	172	C	03/20/2020	10:44	-132.755	43.319	0	1870.10	0	2.0290	0	37.1560	8	29.709	0	1846.943	0	51.2	4	15.8	4	-1E+10	1	-1E+10	1	-1E+10	1	-1E+10	1	-1E+10	1	-1E+10	1
4901784	172	C	03/20/2020	10:44	-132.755	43.319	0	1875.50	0	2.0230	0	37.1570	8	29.711	0	1852.252	0	51.5	4	15.9	4	-1E+10	1	-1E+10	1	-1E+10	1	-1E+10	1	-1E+10	1	-1E+10	1
4901784	172	C	03/20/2020	10:44	-132.755	43.319	0	1880.00	0	2.0190	0	37.1580	8	29.712	0	1856.677	0	51.8	4	15.9	4	-1E+10	1	-1E+10	1	-1E+10	1	-1E+10	1	-1E+10	1	-1E+10	1
4901784	172	C	03/20/2020	10:44	-132.755	43.319	0	1884.60	0	2.0140	0	37.1590	8	29.713	0	1861.200	0	52.1	4	16.0	4	-1E+10	1	-1E+10	1	-1E+10	1	-1E+10	1	-1E+10	1	-1E+10	1
4901784	172	C	03/20/2020	10:44	-132.755	43.319	0	1890.00	0	2.0090	0	37.1600	8	29.714	0	1866.509	0	52.4	4	16.1	4	-1E+10	1	-1E+10	1	-1E+10	1	-1E+10	1	-1E+10	1	-1E+10	1
4901784	172	C	03/20/2020	10:44	-132.755	43.319	0	1895.40	0	2.0050	0	37.1610	8	29.715	0	1871.818	0	52.7	4	16.2	4	-1E+10	1	-1E+10	1	-1E+10	1	-1E+10	1	-1E+10	1	-1E+10	1
4901784	172	C	03/20/2020	10:44	-132.755	43.319	0	1899.90	0	2.0030	0	37.1620	8	29.716	0	1876.242	0	52.9	4	16.3	4	-1E+10	1	-1E+10	1	-1E+10	1	-1E+10	1	-1E+10	1	-1E+10	1
4901784	172	C	03/20/2020	10:44	-132.755	43.319	0	1904.50	0	2.0000	0	37.1620	8	29.717	0	1880.765	0	53.1	4	16.3	4	-1E+10	1	-1E+10	1	-1E+10	1	-1E+10	1	-1E+10	1	-1E+10	1
4901784	172	C	03/20/2020	10:44	-132.755	43.319	0	1910.10	0	1.9950	0	37.1630	8	29.718	0	1886.270	0	53.5	4	16.5	4	-1E+10	1	-1E+10	1	-1E+10	1	-1E+10	1	-1E+10	1	-1E+10	1
4901784	172	C	03/20/2020	10:44	-132.755	43.319	0	1914.70	0	1.9910	0	37.1640	8	29.719	0	1890.792	0	53.8	4	16.5	4	-1E+10	1	-1E+10	1	-1E+10	1	-1E+10	1	-1E+10	1	-1E+10	1
4901784	172	C	03/20/2020	10:44	-132.755	43.319	0	1919.40	0	1.9870	0	37.1650	8	29.720	0	1895.413	0	54.0	4	16.6	4	-1E+10	1	-1E+10	1	-1E+10	1	-1E+10	1	-1E+10	1	-1E+10	1
4901784	172	C	03/20/2020	10:44	-132.755	43.319	0	1924.90	0	1.9850	0	37.1650	8	29.721	0	1900.819	0	54.2	4	16.7	4	-1E+10	1	-1E+10	1	-1E+10	1	-1E+10	1	-1E+10	1	-1E+10	1
4901784	172	C	03/20/2020	10:44	-132.755	43.319	0	1930.40	0	1.9820	0	37.1660	8	29.722	0	1906.226	0	54.4	4	16.7	4	-1E+10	1	-1E+10	1	-1E+10	1	-1E+10	1	-1E+10	1	-1E+10	1
4901784	172	C	03/20/2020	10:44	-132.755	43.319	0	1935.10	0	1.9790	0	37.1670	8	29.723	0	1910.846	0	54.6	4	16.8	4	-1E+10	1	-1E+10	1	-1E+10	1	-1E+10	1	-1E+10	1	-1E+10	1
4901784	172	C	03/20/2020	10:44	-132.755	43.319	0	1939.70	0	1.9770	0	37.1670	8	29.723	0	1915.368	0	54.7	4	16.8	4	-1E+10	1	-1E+10	1	-1E+10	1	-1E+10	1	-1E+10	1	-1E+10	1
4901784	172	C	03/20/2020	10:44	-132.755	43.319	0	1945.30	0	1.9750	0	37.1680	8	29.724	0	1920.872	0	55.0	4	16.9	4	-1E+10	1	-1E+10	1	-1E+10	1	-1E+10	1	-1E+10	1	-1E+10	1
4901784	172	C	03/20/2020	10:44	-132.755	43.319	0	1950.20	0	1.9730	0	37.1680	8	29.724	0	1925.688	0	55.2	4	17.0	4	-1E+10	1	-1E+10	1	-1E+10	1	-1E+10	1	-1E+10	1	-1E+10	1
4901784	172	C	03/20/2020	10:44	-132.755	43.319	0	1954.90	0	1.9690	0	37.1690	8	29.725	0	1930.308	0	55.5	4	17.1	4	-1E+10	1	-1E+10	1	-1E+10	1	-1E+10	1	-1E+10	1	-1E+10	1
4901784	172	C	03/20/2020	10:44	-132.755	43.319	0	1959.80	0	1.9640	0	37.1700	8	29.727	0	1935.124	0	55.9	4	17.2	4	-1E+10	1	-1E+10	1	-1E+10	1	-1E+10	1	-1E+10	1	-1E+10	1
4901784	172	C	03/20/2020	10:44	-132.755	43.319	0	1964.80	0	1.9600	0	37.1710	8	29.728	0	1940.039	0	56.1	4	17.2	4	-1E+10	1	-1E+10	1	-1E+10	1	-1E+10	1	-1E+10	1	-1E+10	1
4901784	172	C	03/20/2020	10:44	-132.755	43.319	0	1969.80	0	1.9580	0	37.1720	8	29.729	0	1944.953	0	56.4	4	17.3	4	-1E+10	1	-1E+10	1	-1E+10	1	-1E+10	1	-1E+10	1	-1E+10	1
4901784	172	C	03/20/2020	10:44	-132.755	43.319	0	1974.90	0	1.9530	0	37.1730	8	29.730	0	1949.965	0	56.7	4	17.4	4	-1E+10	1	-1E+10	1	-1E+10	1	-1E+10	1	-1E+10	1	-1E+10	1
4901784	172	C	03/20/2020	10:44	-132.755	43.319	0	1980.00	0	1.9490	0	37.1730	8	29.730	0	1954.977	0	56.9	4	17.5	4	-1E+10	1	-1E+10	1	-1E+10	1	-1E+10	1	-1E+10	1	-1E+10	1
4901784	172	C	03/20/2020	10:44	-132.755	43.319	0	1985.20	0	1.9460	0	37.1740	8	29.731	0	1960.088	0	57.2	4	17.6	4	-1E+10	1	-1E+10	1	-1E+10	1	-1E+10	1	-1E+10	1	-1E+10	1
4901784	172	C	03/20/2020	10:44	-132.755	43.319	0	1990.30	0	1.9420	0	37.1750	8	29.733	0	1965.100	0	57.5	4	17.7	4	-1E+10	1	-1E+10	1	-1E+10	1	-1E+10	1	-1E+10	1	-1E+10	1
4901784	172	C	03/20/2020	10:44	-132.755	43.319	0	1995.60	0	1.9390	0	37.1760	8	29.734	0	1970.308	0	57.7	4	17.7	4	-1E+10	1	-1E+10	1	-1E+10	1	-1E+10	1	-1E+10	1	-1E+10	1
4901784	172	C	03/20/2020	10:44	-132.755	43.319	0	2000.40	0	1.9370	0	37.1760	8	29.734	0	1975.025	0	57.9	4	17.8	4	-1E+10	1	-1E+10	1	-1E+10	1	-1E+10	1	-1E+10	1	-1E+10	1
4901784	172	C	03/20/2020	10:44	-132.755	43.319	0	2005.10	0	1.9340	0	37.1770	8	29.735	0	1979.644	0	58.2	4	17.9	4	-1E+10	1	-1E+10	1	-1E+10	1	-1E+10	1	-1E+10	1	-1E+10	1
4901784	172	C	03/20/2020	10:44	-132.755	43.319	0	2010.60	0	1.9290	0	37.1780	8	29.736	0	1985.048	0	58.4	4	17.9	4	-1E+10	1	-1E+10	1	-1E+10	1	-1E+10	1	-1E+10	1	-1E+10	1
4901784	172	C	03/20/2020	10:44	-132.755	43.319	0	2015.20	0	1.9280	0	37.1780	8	29.736	0	1989.568	0	58.5	4	18.0	4	-1E+10	1	-1E+10	1	-1E+10	1	-1E+10	1	-1E+10	1	-1E+10	1
4901784	172	C	03/20/2020	10:44	-132.755	43.319	0	2020.40	0	1.9250	0	37.1790	8	29.737	0	1994.678	0	58.5	4	18.0	4	-1E+10	1	-1E+10	1	-1E+10	1	-1E+10	1	-1E+10	1	-1E+10	1
4901784	172	C	03/20/2020	10:44	-132.755	43.319	0																										
4901784	173	C	03/30/2020	10:44	-132.714	43.353	0	1.90	0	10.3520	0	34.6770	8	26.639	0	1.885	0	264.4	4	96.8	4	-1E+10	1	-1E+10	1	-1E+10	1	-1E+10	1	-1E+10	1	-1E+10	1
4901784	173	C	03/30/2020	10:44	-132.714	43.353	0	3.60	0	10.3520	0	34.6770	8	26.640	0	3.571	0	264.2	4	96.7	4	-1E+10	1	-1E+10	1	-1E+10	1	-1E+10	1	-1E+10	1	-1E+10	1
4901784	173	C	03/30/2020	10:44	-132.714	43.353	0	5.70	0	10.3530	0	34.6780	8	26.640	0	5.655	0	264.2	4	96.7	4	-1E+10	1	-1E+10	1	-1E+10	1	-1E+10	1	-1E+10	1	-1E+10	1
4901784	173	C	03/30/2020	10:44	-132.714	43.353	0	7.70	0	10.3520	0	34.6790	8	26.641	0	7.639	0	264.1	4	96.7	4	-1E+10	1	-1E+10	1	-1E+10	1	-1E+10	1	-1E+10	1	-1E+10	1
4901784	173	C	03/30/2020	10:44	-132.714	43.353	0	9.70	0	10.3550	0	34.6780	8	26.640	0	9.622	0	264.2	4	96.7	4	-1E+10	1	-1E+10	1	-1E+10	1	-1E+10	1	-1E+10	1	-1E+10	1
4901784	173	C	03/30/2020	10:44	-132.714	43.353	0	11.70	0	10.3550	0	34.6790	8	26.641	0	11.606	0	264.2	4	96.7	4	-1E+10	1	-1E+10	1	-1E+10	1	-1E+10	1	-1E+10	1	-1E+10	1
4901784	173	C	03/30/2020	10:44	-132.714	43.353	0	13.70	0	10.3560	0	34.6800	8	26.641	0	13.590	0	264.4	4	96.8	4	-1E+10	1	-1E+10	1	-1E+10	1	-1E+10	1	-1E+10	1	-1E+10	1
4901784	173	C	03/30/2020	10:44	-132.714	43.353	0	15.80	0	10.3550	0	34.6810	8	26.642	0	15.674	0	264.1	4	96.7	4	-1E+10	1	-1E+10	1	-1E+10	1	-1E+10	1	-1E+10	1	-1E+10	1
4901784	173	C	03/30/2020	10:44	-132.714	43.353	0	17.80	0	10.3540	0	34.6810	8	26.643	0	17.657	0	264.0	4	96.6	4	-1E+10	1	-1E+10	1	-1E+10	1	-1E+10	1	-1E+10	1	-1E+10	1
4901784	173	C	03/30/2020	10:44	-132.714	43.353	0	19.80	0	10.3590	0	34.6820	8	26.643	0	19.641	0	263.9	4	96.6	4	-1E+10	1	-1E+10	1	-1E+10	1	-1E+10	1	-1E+10	1	-1E+10	1
4901784	173	C	03/30/2020	10:44	-132.714	43.353	0	21.60	0	10.3590	0	34.6820	8	26.643	0	21.427	0	263.9	4	96.6	4	-1E+10	1	-1E+10	1	-1E+10	1	-1E+10	1	-1E+10	1	-1E+10	1
4901784	173	C	03/30/2020	10:44	-132.714	43.353	0	23.50	0	10.3600	0	34.6830	8	26.643	0	23.311	0	264.1	4	96.7	4	-1E+10	1	-1E+10	1	-1E+10	1	-1E+10	1	-1E+10	1	-1E+10	1
4901784	173	C	03/30/2020	10:44	-132.714	43.353	0	25.50	0	10.3600	0	34.6830	8	26.643	0	25.295	0	264.0	4	96.7	4	-1E+10	1	-1E+10	1	-1E+10	1	-1E+10	1	-1E+10	1	-1E+10	1
4901784	173	C	03/30/2020	10:44	-132.714	43.353	0	27.40	0	10.3570	0	34.6840	8	26.645	0	27.180	0	263.9	4	96.6	4	-1E+10	1	-1E+10	1	-1E+10	1	-1E+10	1	-1E+10	1	-1E+10	1
4901784	173	C	03/30/2020	10:44	-132.714	43.353	0	29.30	0	10.3570	0	34.6840	8	26.645	0	29.065	0	263.9	4	96.6	4	-1E+10	1	-1E+10	1	-1E+10	1	-1E+10	1	-1E+10	1	-1E+10	1
4901784	173	C	03/30/2020	10:44	-132.714	43.353	0	31.30	0	10.3570	0	34.6850	8	26.645	0	31.048	0	264.0	4	96.7	4	-1E+10	1	-1E+10	1	-1E+10	1	-1E+10	1	-1E+10	1	-1E+10	1
4901784	173	C	03/30/2020	10:44	-132.714	43.353	0	33.30	0	10.3580	0	34.6860	8	26.646	0	33.032	0	264.0	4	96.7	4	-1E+10	1	-1E+10	1	-1E+10	1	-1E+10	1	-1E+10	1	-1E+10	1
4901784	173	C	03/30/2020	10:44	-132.714	43.353	0	35.40	0	10.3560	0	34.6860	8	26.647	0	35.115	0	264.0	4	96.7	4	-1E+10	1	-1E+10	1	-1E+10	1	-1E+10	1	-1E+10	1	-1E+10	1
4901784	173	C	03/30/2020	10:44	-132.714	43.353	0	37.40	0	10.3560	0	34.6860	8	26.647	0	37.099	0	264.0	4	96.7	4	-1E+10	1	-1E+10	1	-1E+10	1	-1E+10	1	-1E+10	1	-1E+10	1
4901784	173	C	03/30/2020	10:44	-132.714	43.353	0	39.50	0	10.3580	0	34.6870	8	26.647	0	39.182	0	264.0	4	96.6	4	-1E+10	1	-1E+10	1	-1E+10	1	-1E+10	1	-1E+10	1	-1E+10	1
4901784	173	C	03/30/2020	10:44	-132.714	43.353	0	41.70	0	10.3580	0	34.6880	8	26.648	0	41.364	0	264.0	4	96.6	4	-1E+10	1	-1E+10	1	-1E+10	1	-1E+10	1	-1E+10	1	-1E+10	1
4901784	173	C	03/30/2020	10:44	-132.714	43.353	0	43.60	0	10.3580	0	34.6880	8	26.648	0	43.248	0	263.7	4	96.6	4	-1E+10	1	-1E+10	1	-1E+10	1	-1E+10	1	-1E+10	1	-1E+10	1
4901784	173	C	03/30/2020	10:44	-132.714	43.353	0	45.40	0	10.3590	0	34.6890	8	26.649	0	45.033	0	263.8	4	96.6	4	-1E+10	1	-1E+10	1	-1E+10	1	-1E+10	1	-1E+10	1	-1E+10	1
4901784	173	C	03/30/2020	10:44	-132.714	43.353	0	47.30	0	10.3590	0	34.6890	8	26.649	0	46.918	0	263.8	4	96.6	4	-1E+10	1	-1E+10	1	-1E+10	1	-1E+10	1	-1E+10	1	-1E+10	1
4901784	173	C	03/30/2020	10:44	-132.714	43.353	0	49.20	0	10.3600	0	34.6900	8	26.649	0	48.802	0	263.8	4	96.6	4	-1E+10	1	-1E+10	1	-1E+10	1	-1E+10	1	-1E+10	1	-1E+10	1
4901784	173	C	03/30/2020	10:44	-132.714	43.353	0	51.20	0	10.3590	0	34.6900	8	26.649	0	50.786	0	263.7	4	96.5	4	-1E+10	1	-1E+10	1	-1E+10	1	-1E+10	1	-1E+10	1	-1E+10	1
4901784	173	C	03/30/2020	10:44	-132.714	43.353	0	53.20	0	10.3570	0	34.6900	8	26.650	0	52.769	0	263.7	4	96.5	4	-1E+10	1	-1E+10	1	-1E+10	1	-1E+10	1	-1E+10	1	-1E+10	1
4901784	173	C	03/30/2020	10:44	-132.714	43.353	0	55.40	0	10.3570	0	34.6900	8	26.650	0	54.951	0	263.5	4	96.5	4	-1E+10	1	-1E+10	1	-1E+10	1	-1E+10	1	-1E+10	1	-1E+10	1
4901784	173	C	03/30/2020	10:44	-132.714	43.353	0	57.70	0	10.3610	0	34.6890	8	26.648	0	57.232	0	263.3	4	96.4	4	-1E+10	1	-1E+10	1	-1E+10	1	-1E+10	1	-1E+10	1	-1E+10	1
4901784	173	C	03/30/2020	10:44	-132.714	43.353	0	59.90	0	10.3390	0	34.6840	8	26.648	0	59.414	0	263.1	4	96.3	4	-1E+10	1	-1E+10	1	-1E+10	1	-1E+10	1	-1E+10	1	-1E+10	1
4901784	173	C	03/30/2020	10:44	-132.714	43.353	0	62.20	0	10.3170	0	34.6830	8	26.651	0	61.695	0	263.3	4	96.3	4	-1E+10	1	-1E+10	1	-1E+10	1	-1E+10	1	-1E+10	1	-1E+10	1
4901784	173	C	03/30/2020	10:44	-132.714	43.353	0	64.40	0	10.2850	0	34.6880	8	26.661	0	63.877	0	263.1	4	96.2	4	-1E+10	1	-1E+10	1	-1E+10	1	-1E+10	1	-1E+10	1	-1E+10	1
4901784	173	C	03/30/2020	10:44	-132.714	43.353	0	66.60	0	10.2640	0	34.6890	8	26.665	0	66.059	0	263.0	4	96.1	4	-1E+10	1	-1E+10	1	-1E+10	1	-1E+10	1	-1E+10	1	-1E+10	1
4901784	173	C	03/30/2020	10:44	-132.714	43.353	0	68.90	0	10.2570	0	34.6850	8	26.664	0	68.340	0	263.2	4	96.1	4	-1E+10	1	-1E+10	1	-1E+10	1	-1E+10	1	-1E+10	1	-1E+10	1
4901784	173	C	03/30/2020	10:44	-132.714	43.353	0	71.10	0	10.2320	0	34.6890	8	26.671	0	70.521	0	263.2	4	96.1	4	-1E+10	1	-1E+10	1	-1E+10	1	-1E+10	1	-1E+10	1	-1E+10	1
4901784	173	C	03/30/2020	10:44	-132.714	43.353	0	73.20	0	10.2470	0	34.6940	8	26.672	0	72.604	0	263.0	4	96.1	4	-1E+10	1	-1E+10	1	-1E+10	1	-1E+10	1	-1E+10	1	-1E+10	1
4901784	173	C	03/30/2020	10:44	-132.714	43.353	0	75.30	0	10.2900	0	34.7060	8	26.674	0	74.686	0	262.3	4	95.9	4	-1E+10	1	-1E+10	1	-1E+10	1	-1E+10	1	-1E+10	1	-1E+10	1
4901784	173	C	03/30/2020	10:44	-132.714	43.353	0	77.50	0	10.2820	0	34.7070	8	26.677	0	76.868	0	262.1	4	95.8	4	-1E+10	1	-1E+10	1	-1E+10	1	-1E+10	1	-1E+10	1	-1E+10	1
4901784	173	C	03/30/2020	10:44	-132.714	43.353	0	79.60	0	10.2630	0	34.7070	8	26.680	0	78.951	0	262.0	4	95.7	4	-1E+10	1	-1E+10	1	-1E+10	1	-1E+10	1	-1E+10	1	-1E+10	1
4901784	173	C	03/30/2020	10:44	-132.714	43.353	0	81.80	0	10.2740	0	34.7090	8	26.680	0	81.132	0	261.5	4	95.6	4	-1E+10	1	-1E+10	1	-1E+10	1	-1E+10	1	-1E+10	1	-1E+10	1
4901784	173	C	03/30/2020	10:44	-132.714	43.353	0	83.90	0	10.2520	0	34.7090	8	26.683	0	83.215	0	261.4	4	95.5	4	-1E+10	1	-1E+10	1	-1E+10	1	-1E+10	1	-1E+10	1	-1E+10	1
4901784	173	C	03/30/2020	10:44	-132.714	43.353	0	86.00	0	10.2520	0	34.7100	8	26.684	0	85.297	0	261.0	4	95.4	4	-1E+10	1	-1E+10	1	-1E+10	1	-1E+10	1	-1E+10	1	-1E+10	1
4901784	173	C	03/30/2020	10:44	-132.714	43.353	0	88.10	0	10.2530	0	34.7100	8	26.684	0	87.379	0	260.6	4	95.2	4	-1E+10	1	-1E+10	1	-1E+10	1	-1E+10	1	-1E+10	1	-1E+10	1
4901784	173	C	03/30/2020	10:44	-132.714	43.353	0	90.10	0	10.2410	0	34.7100	8	26.686	0	89.363	0	260.1	4	95.0	4	-1E+10	1	-1E+10	1	-1E+10	1	-1E+10	1	-1E+10	1	-1E+10	1
4901784	173	C	03/30/2020	10:44	-132.714	43.353	0	92.00	0	10.2310	0	34.7080	8	26.687	0	91.247	0	259.5	4	94.8	4	-1E+10	1	-1E+10	1	-1E+10	1	-1E+10	1	-1E+10	1	-1E+10	1
4901784	173	C	03/30/2020	10:44	-132.714	43.353	0	94.40	0	10.2270	0	34.7070	8	26.686	0	93.627	0	258.5	4	94.4	4	-1E+10	1	-1E+10	1	-1E+10	1	-1E+10	1	-1E+10	1	-1E+10	1
4901784	173	C	03/30/2020	10:44	-132.714	43.353	0	94.90	0	10.2270	0	34.7070	8	26.686	0	94.122	0	258.3	4	94.3	4	-1E+10	1	-1E+10	1	-1E+10	1	-1E+10	1	-1E+10	1	-1E+10	1
4901784	173	C	03/30/2020	10:44	-132.714	43.353	0	96.60	0	10.1900	0	34.7040	8	26.691	0	95.808	0	257.0	4	93.8	4	-1E+10	1	-1E+10	1	-1E+10	1	-1E+10	1	-1E+10	1	-1E+10	1
4901784	173	C	03/30/2020	10:44	-132.714	43.353	0	98.20	0	10.1790	0	34.6990	8	26.689	0	97.394	0	255.7	4	93.3	4	-1E+10	1	-1E+10	1	-1E+10	1	-1E+10	1	-1E+10	1	-1E+10	1
4901784	173	C	03/30/2020	10:44	-132.714	43.353	0	99.80	0	10.1000	0	34.6980	8	26.701	0	98.981	0	253.6	4	92.4	4	-1E+10	1	-1E+10	1	-1E+10	1	-1E+10	1	-1E+10	1	-1E+10	1
4901784	173	C	03/30/2020	10:44	-132.714	43.353	0	102.10	0	10.1000	0	34.7140	8	26.714	0	101.262	0	250.0	4	91.0	4	-1E+10	1	-1E+10	1	-1E+10	1	-1E+10	1	-1E+10	1	-1E+10	1
4901784	173	C	03/30/2020	10:44	-132.714	43.353	0	105.30	0	10.0040	0	34.7350	8	26.747	0	104.434	0	245.7	4	89.3	4	-1E+10	1	-1E+10	1	-1E+10	1	-1E+10	1	-1E+10	1	-1E+10	1
4901784	173	C	03/30/2020	10:44	-132.714	43.353	0	107.70	0	9.7940	0	34.7330	8	26.781	0	106.814	0	243.0	4	87.9	4	-1E+10	1	-1E+10	1	-1E+10	1	-1E+10	1	-1E+10	1	-1E+10	1
4901784	173	C	03/30/2020	10:44	-132.714	43.353	0	110.10	0	9.8250	0	34.7660	8	26.801	0	109.194	0	238.4	4	86.3	4	-1E+10	1	-1E+10	1	-1E+10	1	-1E+10	1	-1E+10	1	-1E+10	1
4901784	173	C	03/30/2020	10:44	-132.714	43.353	0	112.60	0	9.4040	0	34.8070	8	26.904	0	111.672	0	235.9	4	84.7	4	-1E+10	1	-1E+10	1	-1E+10	1	-1E+10	1	-1E+10	1	-1E+10	1
4901784	173	C	03/30/2020	10:44	-132.714	43.353	0	114.70	0	9.2950	0	34.8540	8	26.958	0	113.755	0	233.5	4	83.6	4	-1E+10	1	-1E+10	1	-1E+10	1	-1E+10	1	-1E+10	1	-1E+10	1
4901784	173	C	03/30/2020	10:44	-132.714	43.353	0	117.00	0	9.1750	0	34.9060	8	27.019	0	116.035	0	230.8	4	82.5	4	-1E+10	1	-1E+10	1	-1E+10	1	-1E+10	1	-1E+10	1	-1E+10	1
4901784	173	C	03/30/2020	10:44	-132.714	43.353	0	120.00	0	8.9670	0	34.9700	8	27.102	0	119.009	0	228.5	4	81.3	4	-1E+10	1	-1E+10	1	-1E+10	1	-1E+10	1	-1E+10	1	-1E+10	1
4901784	173	C	03/30/2020	10:44	-132.714	43.353	0	123.00	0	8.8690	0	35.0090	8	27.149	0	121.984	0	226.1	4	80.3	4	-1E+10	1	-1E+10	1	-1E+10	1	-1E+10	1	-1E+10	1	-1E+10	1
4901784	173	C	03/30/2020	10:44	-132.714	43.353	0	125.30	0	8.7170	0	35.0230	8	27.184	0	124.264	0	224.8	4	79.6	4	-1E+10	1	-1E+10	1	-1E+10	1	-1E+10	1	-1E+10	1	-1E+10	1
4901784	173	C	03/30/2020	10:44	-132.714	43.353	0	127.60	0	8.5990	0	35.0650	8	27.235	0	126.544	0	223.2	4	78.9	4	-1E+10	1	-1E+10	1	-1E+10	1	-1E+10	1	-1E+10	1	-1E+10	1
4901784	173	C	03/30/2020	10:44	-132.714	43.353	0	130.00	0	8.5210	0	35.1110	8	27.284	0	128.924	0	221.5	4	78.2	4	-1E+10	1	-1E+10	1	-1E+10	1	-1E+10	1	-1E+10	1	-1E+10	1
4901784	173	C	03/30/2020	10:44	-132.714	43.353	0	132.80	0	8.3800	0	35.2190	8	27.390	0	131.700	0	219.3	4	77.2	4	-1E+10	1	-1E+10	1	-1E+10	1	-1E+10	1	-1E+10	1	-1E+10	1
4901784	173	C	03/30/2020	10:44	-132.714	43.353	0	135.20	0	8.3190	0	35.2590	8	27.431	0	134.079	0	218.2	4	76.7	4	-1E+10	1	-1E+10	1	-1E+10	1	-1E+10	1	-1E+10	1	-1E+10	1
4901784	173	C	03/30/2020	10:44	-132.714	43.353	0	137.30	0	8.2380	0	35.3060	8	27.481	0	136.161	0	216.8	4	76.1	4	-1E+10	1	-1E+10	1	-1E+10	1	-1E+10	1	-1E+10	1	-1E+10	1
4901784	173	C	03/30/2020	10:44	-132.714	43.353	0	140.40	0	8.1440	0	35.3670	8	27.543	0	139.234	0	215.5	4	75.5	4	-1E+10	1	-1E+10	1	-1E+10	1	-1E+10	1	-1E+10	1	-1E+10	1
4901784	173	C	03/30/2020	10:44	-132.714	43.353	0	142.80	0	8.0490	0	35.4560	8	27.627	0	141.613	0	214.3	4	75.0	4	-1E+10	1	-1E+10	1	-1E+10	1	-1E+10	1	-1E+10	1	-1E+10	1
4901784	173	C	03/30/2020	10:44	-132.714	43.353	0	145.10	0	8.0360	0	35.4710	8	27.641	0	143.893	0	213.7	4	74.8	4	-1E+10	1	-1E+10	1	-1E+10	1	-1E+10	1	-1E+10	1	-1E+10	1
4901784	173	C	03/30/2020	10:44	-132.714	43.353	0	147.60	0	8.0070	0	35.5020	8	27.670	0	146.372	0	213.1	4	74.6	4	-1E+10	1	-1E+10	1	-1E+10	1	-1E+10	1	-1E+10	1	-1E+10	1
4901784	173	C	03/30/2020	10:44	-132.714	43.353	0	150.00	0	7.9940	0	35.5130	8	27.680	0	148.751	0	212.1	4	74.2	4	-1E+10	1	-1E+10	1	-1E+10	1	-1E+10	1	-1E+10	1	-1E+10	1
4901784	173	C	03/30/2020	10:44	-132.714	43.353	0	152.50	0	7.9730	0	35.5300	8	27.697	0	151.229	0	211.3	4	73.9	4	-1E+10	1	-1E+10	1	-1E+10	1	-1E+10	1	-1E+10	1	-1E+10	1
4901784	173	C	03/30/2020	10:44	-132.714	43.353	0	155.10	0	7.9190	0	35.5870	8	27.750	0	153.807	0	210.1	4	73.4	4	-1E+10	1	-1E+10	1	-1E+10	1	-1E+10	1	-1E+10	1	-1E+10	1
4901784	173	C	03/30/2020	10:44	-132.714	43.353	0	157.70	0	7.8910	0	35.6170	8	27.778	0	156.384	0	209.0	4	73.0	4	-1E+10	1	-1E+10	1	-1E+10	1	-1E+10	1	-1E+10	1	-1E+10	1
4901784	173	C	03/30/2020	10:44	-132.714	43.353	0	159.50	0	7.8620	0	35.6510	8	27.809	0	158.168	0	208.0	4	72.6	4	-1E+10	1	-1E+10	1	-1E+10	1	-1E+10	1	-1E+10	1	-1E+10	1
4901784	173	C	03/30/2020	10:44	-132.714	43.353	0	162.40	0	7.8140	0	35.7170	8	27.868	0	161.043	0	207.3	4	72.3	4	-1E+10	1	-1E+10	1	-1E+10	1	-1E+10	1	-1E+10	1	-1E+10	1
4901784	173	C	03/30/2020	10:44	-132.714	43.353	0	164.80	0	7.7990	0	35.7410	8	27.889	0	163.422	0	206.7	4	72.1	4	-1E+10	1	-1E+10	1	-1E+10	1	-1E+10	1	-1E+10	1	-1E+10	1
4901784	173	C	03/30/2020	10:44	-132.714	43.353	0	167.20	0	7.7900	0	35.7590	8	27.905	0	165.801	0	206.1	4	71.9	4	-1E+10	1	-1E+10	1	-1E+10	1	-1E+10	1	-1E+10	1	-1E+10	1
4901784	173	C	03/30/2020	10:44	-132.714	43.353	0	169.70	0	7.7810	0	35.7700	8	27.915	0	168.279	0	205.5	4	71.7	4	-1E+10	1	-1E+10	1	-1E+10	1	-1E+10	1	-1E+10	1	-1E+10	1
4901784	173	C	03/30/2020	10:44	-132.714	43.353	0	172.80	0	7.7710	0	35.7910	8	27.933	0	171.352	0	204.5	4	71.3	4	-1E+10	1	-1E+10	1	-1E+10	1	-1E+10	1	-1E+10	1	-1E+10	1
4901784	173	C	03/30/2020	10:44	-132.714	43.353	0	175.10	0	7.7690	0	35.8090	8	27.947	0	173.631	0	203.7	4	71.1	4	-1E+10	1	-1E+10	1	-1E+10	1	-1E+10	1	-1E+10	1	-1E+10	1
4901784	173	C	03/30/2020	10:44	-132.714	43.353	0	177.50	0	7.7700	0	35.8290	8	27.963	0	176.010	0	202.7	4	70.7	4	-1E+10	1	-1E+10	1	-1E+10	1	-1E+10	1	-1E+10	1	-1E+10	1
4901784	173	C	03/30/2020	10:44	-132.714	43.353	0	180.00	0	7.7690	0	35.8470	8	27.977	0	178.488	0	201.6	4	70.4	4	-1E+10	1	-1E+10	1	-1E+10	1	-1E+10	1	-1E+10	1	-1E+10	1
4901784	173	C	03/30/2020	10:44	-132.714	43.353	0	182.40	0	7.7750	0	35.8640	8	27.990	0	180.867	0	200.3	4	69.9	4	-1E+10	1	-1E+10	1	-1E+10	1	-1E+10	1	-1E+10	1	-1E+10	1
4901784	173	C	03/30/2020	10:44	-132.714	43.353	0	184.80	0	7.7750	0	35.8900	8	28.010	0	183.246	0	198.3	4	69.2	4	-1E+10	1	-1E+10	1	-1E+10	1	-1E+10	1	-1E+10	1	-1E+10	1
4901784	173	C	03/30/2020	10:44	-132.714	43.353	0	187.20	0	7.7890	0	35.9420	8	28.049	0	185.624	0	195.9	4	68.4	4	-1E+10	1	-1E+10	1	-1E+10	1	-1E+10	1	-1E+10	1	-1E+10	1
4901784	173	C	03/30/2020	10:44	-132.714	43.353	0	189.60	0	7.8050	0	35.9800	8	28.077	0	188.003	0	192.8	4	67.4	4	-1E+10	1	-1E+10	1	-1E+10	1	-1E+10	1	-1E+10	1	-1E+10	1
4901784	173	C	03/30/2020	10:44	-132.714	43.353	0	192.10	0	7.8490	0	36.0430	8	28.120	0	190.481	0	189.4	4	66.3	4	-1E+10	1	-1E+10	1	-1E+10	1	-1E+10	1	-1E+10	1	-1E+10	1
4901784	173	C	03/30/2020	10:44	-132.714	43.353	0	194.60	0	7.8470	0	36.0950	8	28.161	0	192.959	0	186.4	4	65.3	4	-1E+10	1	-1E+10	1	-1E+10	1	-1E+10	1	-1E+10	1	-1E+10	1
4901784	173	C	03/30/2020	10:44	-132.714	43.353	0	197.20	0	7.9330	0	36.1310	8	28.176	0	195.536	0	184.0	4	64.6	4	-1E+10	1	-1E+10	1	-1E+10	1	-1E+10	1	-1E+10	1	-1E+10	1
4901784	173	C	03/30/2020	10:44	-132.714	43.353	0	199.80	0	7.9950	0	36.1600	8	28.190	0	198.112	0	182.1	4	64.0	4	-1E+10	1	-1E+10	1	-1E+10	1	-1E+10	1	-1E+10	1	-1E+10	1
4901784	173	C	03/30/2020	10:44	-132.714	43.353	0	202.30	0	7.9630	0	36.1850	8	28.214	0	200.590	0	181.6	4	63.8	4	-1E+10	1	-1E+10	1	-1E+10	1	-1E+10	1	-1E+10	1	-1E+10	1
4901784	173	C	03/30/2020	10:44	-132.714	43.353	0	204.80	0	7.9460	0	36.1920	8	28.222	0	203.068	0	180.8	4	63.5	4	-1E+10	1	-1E+10	1	-1E+10	1	-1E+10	1	-1E+10	1	-1E+10	1
4901784	173	C	03/30/2020	10:44	-132.714	43.353	0	207.40	0	7.9360	0	36.1980	8	28.229	0	205.644	0	179.9	4	63.1	4	-1E+10	1	-1E+10	1	-1E+10	1	-1E+10	1	-1E+10	1	-1E+10	1
4901784	173	C	03/30/2020	10:44	-132.714	43.353	0	209.90	0	7.9130	0	36.2060	8	28.238	0	208.122	0	178.9	4	62.8	4	-1E+10	1	-1E+10	1	-1E+10	1	-1E+10	1	-1E+10	1	-1E+10	1
4901784	173	C	03/30/2020	10:44	-132.714	43.353	0	212.40	0	7.9070	0	36.2060	8	28.239	0	210.600	0	177.7	4	62.3	4	-1E+10	1	-1E+10	1	-1E+10	1	-1E+10	1	-1E+10	1	-1E+10	1
4901784	173	C	03/30/2020	10:44	-132.714	43.353	0	214.90	0	7.8790	0	36.2180	8	28.253	0	213.077	0	175.9	4	61.7	4	-1E+10	1	-1E+10	1	-1E+10	1	-1E+10	1	-1E+10	1	-1E+10	1
4901784	173	C	03/30/2020	10:44	-132.714	43.353	0	217.30	0	7.8710	0	36.2290	8	28.263	0	215.455	0	173.8	4	61.0	4	-1E+10	1	-1E+10	1	-1E+10	1	-1E+10	1	-1E+10	1	-1E+10	1
4901784	173	C	03/30/2020	10:44	-132.714	43.353	0	219.70	0	7.8650	0	36.2490	8	28.280	0	217.834	0	171.8	4	60.3	4	-1E+10	1	-1E+10	1	-1E+10	1	-1E+10	1	-1E+10	1	-1E+10	1
4901784	173	C	03/30/2020	10:44	-132.714	43.353	0	222.30	0	7.8390	0	36.2580	8	28.291	0	220.410	0	170.3	4	59.7	4	-1E+10	1	-1E+10	1	-1E+10	1	-1E+10	1	-1E+10	1	-1E+10	1
4901784	173	C	03/30/2020	10:44	-132.714	43.353	0	224.80	0	7.8260	0	36.2610	8	28.295	0	222.888	0	168.9	4	59.2	4	-1E+10	1	-1E+10	1	-1E+10	1	-1E+10	1	-1E+10	1	-1E+10	1
4901784	173	C	03/30/2020	10:44	-132.714	43.353	0	227.30	0	7.8130	0	36.2700	8	28.304	0	225.365	0	167.5	4	58.7	4	-1E+10	1	-1E+10	1	-1E+10	1	-1E+10	1	-1E+10	1	-1E+10	1
4901784	173	C	03/30/2020	10:44	-132.714	43.353	0	229.80	0	7.7920	0	36.2750	8	28.311	0	227.842	0	166.2	4	58.2	4	-1E+10	1	-1E+10	1	-1E+10	1	-1E+10	1	-1E+10	1	-1E+10	1
4901784	173	C	03/30/2020	10:44	-132.714	43.353	0	232.40	0	7.7560	0	36.2790	8	28.320	0	230.419	0	165.4	4	57.9	4	-1E+10	1	-1E+10	1	-1E+10	1	-1E+10	1	-1E+10	1	-1E+10	1
4901784	173	C	03/30/2020	10:44	-132.714	43.353	0	234.90	0	7.7310	0	36.2820	8	28.326	0	232.896	0	164.5	4	57.5	4	-1E+10	1	-1E+10	1	-1E+10	1	-1E+10	1	-1E+10	1	-1E+10	1
4901784	173	C	03/30/2020	10:44	-132.714	43.353	0	237.50	0	7.7190	0	36.2810	8	28.327	0	235.472	0	163.4	4	57.1	4	-1E+10	1	-1E+10	1	-1E+10	1	-1E+10	1	-1E+10	1	-1E+10	1
4901784	173	C	03/30/2020	10:44	-132.714	43.353	0	240.00	0	7.6540	0	36.2860	8	28.341	0	237.950	0	162.6	4	56.8	4	-1E+10	1	-1E+10	1	-1E+10	1	-1E+10	1	-1E+10	1	-1E+10	1
4901784	173	C	03/30/2020	10:44	-132.714	43.353	0	242.60	0	7.6340	0	36.2870	8	28.345	0	240.526	0	161.5	4	56.4	4	-1E+10	1	-1E+10	1	-1E+10	1	-1E+10	1	-1E+10	1	-1E+10	1
4901784	173	C	03/30/2020	10:44	-132.714	43.353	0	245.20	0	7.6110	0	36.2890	8	28.350	0	243.102	0	160.4	4	55.9	4	-1E+10	1	-1E+10	1	-1E+10	1	-1E+10	1	-1E+10	1	-1E+10	1
4901784	173	C	03/30/2020	10:44	-132.714	43.353	0	247.70	0	7.5760	0	36.2890	8	28.355	0	245.579	0	159.3	4	55.5	4	-1E+10	1	-1E+10	1	-1E+10	1	-1E+10	1	-1E+10	1	-1E+10	1
4901784	173	C	03/30/2020	10:44	-132.714	43.353	0	250.30	0	7.5190	0	36.2920	8	28.366	0	248.156	0	158.5	4	55.2	4	-1E+10	1	-1E+10	1	-1E+10	1	-1E+10	1	-1E+10	1	-1E+10	1
4901784	173	C	03/30/2020	10:44	-132.714	43.353	0	252.00	0	7.5000	0	36.2930	8	28.369	0	249.840	0	158.1	4	55.0	4	-1E+10	1	-1E+10	1	-1E+10	1	-1E+10	1	-1E+10	1	-1E+10	1
4901784	173	C	03/30/2020	10:44	-132.714	43.353	0	254.70	0	7.4780	0	36.2930	8	28.373	0	252.515	0	157.3	4	54.7	4	-1E+10	1	-1E+10	1	-1E+10	1	-1E+10	1	-1E+10	1	-1E+10	1
4901784	173	C	03/30/2020	10:44	-132.714	43.353	0	257.40	0	7.4560	0	36.2930	8	28.376	0	255.190	0	156.6	4	54.4	4	-1E+10	1	-1E+10	1	-1E+10	1	-1E+10	1	-1E+10	1	-1E+10	1
4901784	173	C	03/30/2020	10:44	-132.714	43.353	0	260.00	0	7.4250	0	36.2930	8	28.380	0	257.766	0	155.7	4	54.1	4	-1E+10	1	-1E+10	1	-1E+10	1	-1E+10	1	-1E+10	1	-1E+10	1
4901784	173	C	03/30/2020	10:44	-132.714	43.353	0	262.80	0	7.3830	0	36.2940	8	28.387	0	260.541	0	154.8	4	53.7	4	-1E+10	1	-1E+10	1	-1E+10	1	-1E+10	1	-1E+10	1	-1E+10	1
4901784	173	C	03/30/2020	10:44	-132.714	43.353	0	264.60	0	7.3500	0	36.2940	8	28.392	0	262.324	0	154.5	4	53.6	4	-1E+10	1	-1E+10	1	-1E+10	1	-1E+10	1	-1E+10	1	-1E+10	1
4901784	173	C	03/30/2020	10:44	-132.714	43.353	0	267.40	0	7.3090	0	36.2940	8	28.398	0	265.098	0	153.7	4	53.3	4	-1E+10	1	-1E+10	1	-1E+10	1	-1E+10	1	-1E+10	1	-1E+10	1
4901784	173	C	03/30/2020	10:44	-132.714	43.353	0	270.10	0	7.2400	0	36.2960	8	28.410	0	267.773	0	153.0	4	52.9	4	-1E+10	1	-1E+10	1	-1E+10	1	-1E+10	1	-1E+10	1	-1E+10	1
4901784	173	C	03/30/2020	10:44	-132.714	43.353	0	272.00	0	7.2260	0	36.2940	8	28.410	0	269.656	0	152.8	4	52.8	4	-1E+10	1	-1E+10	1	-1E+10	1	-1E+10	1	-1E+10	1	-1E+10	1
4901784	173	C	03/30/2020	10:44	-132.714	43.353	0	274.70	0	7.1820	0	36.2950	8	28.418	0	272.330	0	152.3	4	52.6	4	-1E+10	1	-1E+10	1	-1E+10	1	-1E+10	1	-1E+10	1	-1E+10	1
4901784	173	C	03/30/2020	10:44	-132.714	43.353	0	277.50	0	7.1560	0	36.2960	8	28.422	0	275.104	0	151.9	4	52.5	4	-1E+10	1	-1E+10	1	-1E+10	1	-1E+10	1	-1E+10	1	-1E+10	1
4901784	173	C	03/30/2020	10:44	-132.714	43.353	0	280.30	0	7.1420	0	36.2960	8	28.424	0	277.878	0	151.4	4	52.3	4	-1E+10	1	-1E+10	1	-1E+10	1	-1E+10	1	-1E+10	1	-1E+10	1
4901784	173	C	03/30/2020	10:44	-132.714	43.353	0	283.10	0	7.1250	0	36.2950	8	28.426	0	280.652	0	150.9	4	52.1	4	-1E+10	1	-1E+10	1	-1E+10	1	-1E+10	1	-1E+10	1	-1E+10	1
4901784	173	C	03/30/2020	10:44	-132.714	43.353	0	285.00	0	7.1040	0	36.2970	8	28.430	0	282.535	0	150.5	4	51.9	4	-1E+10	1	-1E+10	1	-1E+10	1	-1E+10	1	-1E+10	1	-1E+10	1
4901784	173	C	03/30/2020	10:44	-132.714	43.353	0	287.70	0	7.0830	0	36.2960	8	28.433	0	285.209	0	149.8	4	51.6	4	-1E+10	1	-1E+10	1	-1E+10	1	-1E+10	1	-1E+10	1	-1E+10	1
4901784	173	C	03/30/2020	10:44	-132.714	43.353	0	290.60	0	7.0480	0	36.2970	8	28.439	0	288.082	0	149.1	4	51.4	4	-1E+10	1	-1E+10	1	-1E+10	1	-1E+10	1	-1E+10	1	-1E+10	1
4901784	173	C	03/30/2020	10:44	-132.714	43.353	0	292.40	0	7.0420	0	36.2950	8	28.438	0	289.865	0	148.6	4	51.2	4	-1E+10	1	-1E+10	1	-1E+10	1	-1E+10	1	-1E+10	1	-1E+10	1
4901784	173	C	03/30/2020	10:44	-132.714	43.353	0	295.20	0	7.0010	0	36.2970	8	28.445	0	292.639	0	147.8	4	50.8	4	-1E+10	1	-1E+10	1	-1E+10	1	-1E+10	1	-1E+10	1	-1E+10	1
4901784	173	C	03/30/2020	10:44	-132.714	43.353	0	298.30	0	6.9690	0	36.3000	8	28.452	0	295.710	0	147.0	4	50.6	4	-1E+10	1	-1E+10	1	-1E+10	1	-1E+10	1	-1E+10	1	-1E+10	1
4901784	173	C	03/30/2020	10:44	-132.714	43.353	0	299.60	0	6.9560	0	36.2990	8	28.453	0	296.998	0	146.7	4	50.4	4	-1E+10	1	-1E+10	1	-1E+10	1	-1E+10	1	-1E+10	1	-1E+10	1
4901784	173	C	03/30/2020	10:44	-132.714	43.353	0	302.70	0	6.9460	0	36.2990	8	28.455	0	300.069	0	145.8	4	50.1	4	-1E+10	1	-1E+10	1	-1E+10	1	-1E+10	1	-1E+10	1	-1E+10	1
4901784	173	C	03/30/2020	10:44	-132.714	43.353	0	305.00	0	6.9370	0	36.2950	8	28.453	0	302.347	0	144.9	4	49.8	4	-1E+10	1	-1E+10	1	-1E+10	1	-1E+10	1	-1E+10	1	-1E+10	1
4901784	173	C	03/30/2020	10:44	-132.714	43.353	0	307.20	0	6.9040	0	36.2970	8	28.459	0	304.526	0	143.5	4	49.3	4	-1E+10	1	-1E+10	1	-1E+10	1	-1E+10	1	-1E+10	1	-1E+10	1
4901784	173	C	03/30/2020	10:44	-132.714	43.353	0	310.30	0	6.8340	0	36.3000	8	28.471	0	307.597	0	141.6	4	48.5	4	-1E+10	1	-1E+10	1	-1E+10	1	-1E+10	1	-1E+10	1	-1E+10	1
4901784	173	C	03/30/2020	10:44	-132.714	43.353	0	312.70	0	6.8100	0	36.2990	8	28.474	0	309.974	0	140.6	4	48.2	4	-1E+10	1	-1E+10	1	-1E+10	1	-1E+10	1	-1E+10	1	-1E+10	1
4901784	173	C	03/30/2020	10:44	-132.714	43.353	0	315.10	0	6.7750	0	36.3020	8	28.481	0	312.352	0	139.1	4	47.6	4	-1E+10	1	-1E+10	1	-1E+10	1	-1E+10	1	-1E+10	1	-1E+10	1
4901784	173	C	03/30/2020	10:44	-132.714	43.353	0	317.40	0	6.7200	0	36.3060	8	28.492	0	314.630	0	137.7	4	47.1	4	-1E+10	1	-1E+10	1	-1E+10	1	-1E+10	1	-1E+10	1	-1E+10	1
4901784	173	C	03/30/2020	10:44	-132.714	43.353	0	319.70	0	6.7040	0	36.3050	8	28.494	0	316.908	0	136.4	4	46.6	4	-1E+10	1	-1E+10	1	-1E+10	1	-1E+10	1	-1E+10	1	-1E+10	1
4901784	173	C	03/30/2020	10:44	-132.714	43.353	0	322.90	0	6.6550	0	36.3070	8	28.502	0	320.077	0	134.0	4	45.8	4	-1E+10	1	-1E+10	1	-1E+10	1	-1E+10	1	-1E+10	1	-1E+10	1
4901784	173	C	03/30/2020	10:44	-132.714	43.353	0	325.30	0	6.6110	0	36.3050	8	28.507	0	322.455	0	132.3	4	45.1	4	-1E+10	1	-1E+10	1	-1E+10	1	-1E+10	1	-1E+10	1	-1E+10	1
4901784	173	C	03/30/2020	10:44	-132.714	43.353	0	327.80	0	6.5450	0	36.3100	8	28.520	0	324.931	0	130.5	4	44.4	4	-1E+10	1	-1E+10	1	-1E+10	1	-1E+10	1	-1E+10	1	-1E+10	1
4901784	173	C	03/30/2020	10:44	-132.714	43.353	0	330.30	0	6.5030	0	36.3110	8	28.526	0	327.407	0	129.3	4	44.0	4	-1E+10	1	-1E+10	1	-1E+10	1	-1E+10	1	-1E+10	1	-1E+10	1
4901784	173	C	03/30/2020	10:44	-132.714	43.353	0	332.90	0	6.4870	0	36.3120	8	28.529	0	329.982	0	128.0	4	43.5	4	-1E+10	1	-1E+10	1	-1E+10	1	-1E+10	1	-1E+10	1	-1E+10	1
4901784	173	C	03/30/2020	10:44	-132.714	43.353	0	335.40	0	6.4770	0	36.3120	8	28.531	0	332.458	0	126.5	4	43.0	4	-1E+10	1	-1E+10	1	-1E+10	1	-1E+10	1	-1E+10	1	-1E+10	1
4901784	173	C	03/30/2020	10:44	-132.714	43.353	0	337.10	0	6.4640	0	36.3130	8	28.533	0	334.142	0	125.2	4	42.6	4	-1E+10	1	-1E+10	1	-1E+10	1	-1E+10	1	-1E+10	1	-1E+10	1
4901784	173	C	03/30/2020	10:44	-132.714	43.353	0	339.60	0	6.4500	0	36.3120	8	28.534	0	336.618	0	122.7	4	41.7	4	-1E+10	1	-1E+10	1	-1E+10	1	-1E+10	1	-1E+10	1	-1E+10	1
4901784	173	C	03/30/2020	10:44	-132.714	43.353	0	342.20	0	6.4220	0	36.3140	8	28.540	0	339.193	0	119.9	4	40.7	4	-1E+10	1	-1E+10	1	-1E+10	1	-1E+10	1	-1E+10	1	-1E+10	1
4901784	173	C	03/30/2020	10:44	-132.714	43.353	0	344.90	0	6.3640	0	36.3170	8	28.550	0	341.867	0	117.4	4	39.8	4	-1E+10	1	-1E+10	1	-1E+10	1	-1E+10	1	-1E+10	1	-1E+10	1
4901784	173	C	03/30/2020	10:44	-132.714	43.353	0	347.50	0	6.2760	0	36.3220	8	28.566	0	344.442	0	115.8	4	39.2	4	-1E+10	1	-1E+10	1	-1E+10	1	-1E+10	1	-1E+10	1	-1E+10	1
4901784	173	C	03/30/2020	10:44	-132.714	43.353	0	350.10	0	6.2590	0	36.3220	8	28.568	0	347.017	0	114.5	4	38.7	4	-1E+10	1	-1E+10	1	-1E+10	1	-1E+10	1	-1E+10	1	-1E+10	1
4901784	173	C	03/30/2020	10:44	-132.714	43.353	0	352.70	0	6.2390	0	36.3210	8	28.570	0	349.592	0	112.6	4	38.1	4	-1E+10	1	-1E+10	1	-1E+10	1	-1E+10	1	-1E+10	1	-1E+10	1
4901784	173	C	03/30/2020	10:44	-132.714	43.353	0	354.50	0	6.1890	0	36.3250	8	28.580	0	351.374	0	111.5	4	37.7	4	-1E+10	1	-1E+10	1	-1E+10	1	-1E+10	1	-1E+10	1	-1E+10	1
4901784	173	C	03/30/2020	10:44	-132.714	43.353	0	357.20	0	6.1850	0	36.3270	8	28.582	0	354.048	0	110.2	4	37.2	4	-1E+10	1	-1E+10	1	-1E+10	1	-1E+10	1	-1E+10	1	-1E+10	1
4901784	173	C	03/30/2020	10:44	-132.714	43.353	0	359.80	0	6.1800	0	36.3280	8	28.583	0	356.623	0	109.6	4	37.0	4	-1E+10	1	-1E+10	1	-1E+10	1	-1E+10	1	-1E+10	1	-1E+10	1
4901784	173	C	03/30/2020	10:44	-132.714	43.353	0	362.50	0	6.1270	0	36.3280	8	28.591	0	359.297	0	109.8	4	37.0	4	-1E+10	1	-1E+10	1	-1E+10	1	-1E+10	1	-1E+10	1	-1E+10	1
4901784	173	C	03/30/2020	10:44	-132.714	43.353	0	365.10	0	6.0630	0	36.3230	8	28.595	0	361.872	0	109.9	4	37.0	4	-1E+10	1	-1E+10	1	-1E+10	1	-1E+10	1	-1E+10	1	-1E+10	1
4901784	173	C	03/30/2020	10:44	-132.714	43.353	0	367.80	0	6.0410	0	36.3230	8	28.598	0	364.545	0	108.7	4	36.6	4	-1E+10	1	-1E+10	1	-1E+10	1	-1E+10	1	-1E+10	1	-1E+10	1
4901784	173	C	03/30/2020	10:44	-132.714	43.353	0	370.40	0	6.0230	0	36.3220	8	28.600	0	367.120	0	106.9	4	36.0	4	-1E+10	1	-1E+10	1	-1E+10	1	-1E+10	1	-1E+10	1	-1E+10	1
4901784	173	C	03/30/2020	10:44	-132.714	43.353	0	372.20	0	5.9830	0	36.3210	8	28.604	0	368.903	0	105.5	4	35.5	4	-1E+10	1	-1E+10	1	-1E+10	1	-1E+10	1	-1E+10	1	-1E+10	1
4901784	173	C	03/30/2020	10:44	-132.714	43.353	0	375.00	0	5.9470	0	36.3270	8	28.613	0	371.675	0	103.8	4	34.9	4	-1E+10	1	-1E+10	1	-1E+10	1	-1E+10	1	-1E+10	1	-1E+10	1
4901784	173	C	03/30/2020	10:44	-132.714	43.353	0	377.70	0	5.9010	0	36.3260	8	28.619	0	374.349	0	103.1	4	34.6	4	-1E+10	1	-1E+10	1	-1E+10	1	-1E+10	1	-1E+10	1	-1E+10	1
4901784	173	C	03/30/2020	10:44	-132.714	43.353	0	379.50	0	5.8820	0	36.3260	8	28.621	0	376.131	0	102.2	4	34.3	4	-1E+10	1	-1E+10	1	-1E+10	1	-1E+10	1	-1E+10	1	-1E+10	1
4901784	173	C	03/30/2020	10:44	-132.714	43.353	0	382.30	0	5.8320	0	36.3270	8	28.628	0	378.904	0	101.0	4	33.8	4	-1E+10	1	-1E+10	1	-1E+10	1	-1E+10	1	-1E+10	1	-1E+10	1
4901784	173	C	03/30/2020	10:44	-132.714	43.353	0	385.00	0	5.7860	0	36.3280	8	28.635	0	381.577	0	99.9	4	33.4	4	-1E+10	1	-1E+10	1	-1E+10	1	-1E+10	1	-1E+10	1	-1E+10	1
4901784	173	C	03/30/2020	10:44	-132.714	43.353	0	387.80	0	5.7490	0	36.3290	8	28.641	0	384.350	0	98.7	4	33.0	4	-1E+10	1	-1E+10	1	-1E+10	1	-1E+10	1	-1E+10	1	-1E+10	1
4901784	173	C	03/30/2020	10:44	-132.714	43.353	0	390.60	0	5.7220	0	36.3290	8	28.644	0	387.122	0	97.5	4	32.6	4	-1E+10	1	-1E+10	1	-1E+10	1	-1E+10	1	-1E+10	1	-1E+10	1
4901784	173	C	03/30/2020	10:44	-132.714	43.353	0	392.40	0	5.7040	0	36.3300	8	28.647	0	388.905	0	96.6	4	32.3	4	-1E+10	1	-1E+10	1	-1E+10	1	-1E+10	1	-1E+10	1	-1E+10	1
4901784	173	C	03/30/2020	10:44	-132.714	43.353	0	395.20	0	5.6480	0	36.3310	8	28.655	0	391.677	0	95.4	4	31.8	4	-1E+10	1	-1E+10	1	-1E+10	1	-1E+10	1	-1E+10	1	-1E+10	1
4901784	173	C	03/30/2020	10:44	-132.714	43.353	0	397.90	0	5.5900	0	36.3360	8	28.667	0	394.351	0	94.9	4	31.6	4	-1E+10	1	-1E+10	1	-1E+10	1	-1E+10	1	-1E+10	1	-1E+10	1
4901784	173	C	03/30/2020	10:44	-132.714	43.353	0	399.70	0	5.5760	0	36.3360	8	28.668	0	396.133	0	94.6	4	31.5	4	-1E+10	1	-1E+10	1	-1E+10	1	-1E+10	1	-1E+10	1	-1E+10	1
4901784	173	C	03/30/2020	10:44	-132.714	43.353	0	402.40	0	5.5720	0	36.3360	8	28.669	0	398.806	0	94.2	4	31.4	4	-1E+10	1	-1E+10	1	-1E+10	1	-1E+10	1	-1E+10	1	-1E+10	1
4901784	173	C	03/30/2020	10:44	-132.714	43.353	0	405.10	0	5.5480	0	36.3360	8	28.672	0	401.479	0	93.9	4	31.3	4	-1E+10	1	-1E+10	1	-1E+10	1	-1E+10	1	-1E+10	1	-1E+10	1
4901784	173	C	03/30/2020	10:44	-132.714	43.353	0	407.00	0	5.5380	0	36.3350	8	28.673	0	403.361	0	93.7	4	31.2	4	-1E+10	1	-1E+10	1	-1E+10	1	-1E+10	1	-1E+10	1	-1E+10	1
4901784	173	C	03/30/2020	10:44	-132.714	43.353	0	409.70	0	5.5110	0	36.3350	8	28.676	0	406.034	0	93.3	4	31.0	4	-1E+10	1	-1E+10	1	-1E+10	1	-1E+10	1	-1E+10	1	-1E+10	1
4901784	173	C	03/30/2020	10:44	-132.714	43.353	0	412.40	0	5.4740	0	36.3360	8	28.681	0	408.707	0	92.9	4	30.9	4	-1E+10	1	-1E+10	1	-1E+10	1	-1E+10	1	-1E+10	1	-1E+10	1
4901784	173	C	03/30/2020	10:44	-132.714	43.353	0	415.10	0	5.4350	0	36.3360	8	28.686	0	411.380	0	92.3	4	30.6	4	-1E+10	1	-1E+10	1	-1E+10	1	-1E+10	1	-1E+10	1	-1E+10	1
4901784	173	C	03/30/2020	10:44	-132.714	43.353	0	417.80	0	5.4090	0	36.3390	8	28.692	0	414.053	0	91.6	4	30.4	4	-1E+10	1	-1E+10	1	-1E+10	1	-1E+10	1	-1E+10	1	-1E+10	1
4901784	173	C	03/30/2020	10:44	-132.714	43.353	0	419.70	0	5.4050	0	36.3390	8	28.692	0	415.934	0	91.3	4	30.3	4	-1E+10	1	-1E+10	1	-1E+10	1	-1E+10	1	-1E+10	1	-1E+10	1
4901784	173	C	03/30/2020	10:44	-132.714	43.353	0	422.40	0	5.3980	0	36.3390	8	28.693	0	418.607	0	90.8	4	30.1	4	-1E+10	1	-1E+10	1	-1E+10	1	-1E+10	1	-1E+10	1	-1E+10	1
4901784	173	C	03/30/2020	10:44	-132.714	43.353	0	425.10	0	5.3870	0	36.3390	8	28.695	0	421.280	0	90.2	4	29.9	4	-1E+10	1	-1E+10	1	-1E+10	1	-1E+10	1	-1E+10	1	-1E+10	1
4901784	173	C	03/30/2020	10:44	-132.714	43.353	0	427.00	0	5.3600	0	36.3420	8	28.700	0	423.161	0	89.8	4	29.8	4	-1E+10	1	-1E+10	1	-1E+10	1	-1E+10	1	-1E+10	1	-1E+10	1
4901784	173	C	03/30/2020	10:44	-132.714	43.353	0	429.70	0	5.3510	0	36.3400	8	28.700	0	425.834	0	89.2	4	29.5	4	-1E+10	1	-1E+10	1	-1E+10	1	-1E+10	1	-1E+10	1	-1E+10	1
4901784	173	C	03/30/2020	10:44	-132.714	43.353	0	432.40	0	5.3170	0	36.3420	8	28.706	0	428.507	0	88.5	4	29.3	4	-1E+10	1	-1E+10	1	-1E+10	1	-1E+10	1	-1E+10	1	-1E+10	1
4901784	173	C	03/30/2020	10:44	-132.714	43.353	0	435.00	0	5.2970	0	36.3420	8	28.708	0	431.081	0	87.9	4	29.1	4	-1E+10	1	-1E+10	1	-1E+10	1	-1E+10	1	-1E+10	1	-1E+10	1
4901784	173	C	03/30/2020	10:44	-132.714	43.353	0	437.70	0	5.2640	0	36.3440	8	28.714	0	433.754	0	87.2	4	28.8	4	-1E+10	1	-1E+10	1	-1E+10	1	-1E+10	1	-1E+10	1	-1E+10	1
4901784	173	C	03/30/2020	10:44	-132.714	43.353	0	439.50	0	5.2450	0	36.3460	8	28.718	0	435.536	0	86.8	4	28.7	4	-1E+10	1	-1E+10	1	-1E+10	1	-1E+10	1	-1E+10	1	-1E+10	1
4901784	173	C	03/30/2020	10:44	-132.714	43.353	0	442.20	0	5.2210	0	36.3460	8	28.721	0	438.209	0	86.2	4	28.5	4	-1E+10	1	-1E+10	1	-1E+10	1	-1E+10	1	-1E+10	1	-1E+10	1
4901784	173	C	03/30/2020	10:44	-132.714	43.353	0	445.00	0	5.2100	0	36.3460	8	28.722	0	440.980	0	85.4	4	28.2	4	-1E+10	1	-1E+10	1	-1E+10	1	-1E+10	1	-1E+10	1	-1E+10	1
4901784	173	C	03/30/2020	10:44	-132.714	43.353	0	447.80	0	5.1930	0	36.3460	8	28.724	0	443.752	0	84.4	4	27.9	4	-1E+10	1	-1E+10	1	-1E+10	1	-1E+10	1	-1E+10	1	-1E+10	1
4901784	173	C	03/30/2020	10:44	-132.714	43.353	0	450.60	0	5.1640	0	36.3480	8	28.729	0	446.524	0	83.1	4	27.4	4	-1E+10	1	-1E+10	1	-1E+10	1	-1E+10	1	-1E+10	1	-1E+10	1
4901784	173	C	03/30/2020	10:44	-132.714	43.353	0	452.40	0	5.1420	0	36.3480	8	28.732	0	448.306	0	82.0	4	27.1	4	-1E+10	1	-1E+10	1	-1E+10	1	-1E+10	1	-1E+10	1	-1E+10	1
4901784	173	C	03/30/2020	10:44	-132.714	43.353	0	455.10	0	5.1130	0	36.3490	8	28.736	0	450.978	0	80.2	4	26.4	4	-1E+10	1	-1E+10	1	-1E+10	1	-1E+10	1	-1E+10	1	-1E+10	1
4901784	173	C	03/30/2020	10:44	-132.714	43.353	0	457.80	0	5.0650	0	36.3520	8	28.745	0	453.651	0	78.1	4	25.7	4	-1E+10	1	-1E+10	1	-1E+10	1	-1E+10	1	-1E+10	1	-1E+10	1
4901784	173	C	03/30/2020	10:44	-132.714	43.353	0	459.60	0	5.0420	0	36.3530	8	28.748	0	455.432	0	76.7	4	25.2	4	-1E+10	1	-1E+10	1	-1E+10	1	-1E+10	1	-1E+10	1	-1E+10	1
4901784	173	C	03/30/2020	10:44	-132.714	43.353	0	462.30	0	4.9940	0	36.3580	8	28.758	0	458.105	0	74.7	4	24.5	4	-1E+10	1	-1E+10	1	-1E+10	1	-1E+10	1	-1E+10	1	-1E+10	1
4901784	173	C	03/30/2020	10:44	-132.714	43.353	0	465.10	0	4.9460	0	36.3650	8	28.769	0	460.877	0	73.1	4	24.0	4	-1E+10	1	-1E+10	1	-1E+10	1	-1E+10	1	-1E+10	1	-1E+10	1
4901784	173	C	03/30/2020	10:44	-132.714	43.353	0	467.80	0	4.9220	0	36.3680	8	28.775	0	463.549	0	72.1	4	23.6	4	-1E+10	1	-1E+10	1	-1E+10	1	-1E+10	1	-1E+10	1	-1E+10	1
4901784	173	C	03/30/2020	10:44	-132.714	43.353	0	470.50	0	4.9010	0	36.3710	8	28.779	0	466.221	0	71.0	4	23.3	4	-1E+10	1	-1E+10	1	-1E+10	1	-1E+10	1	-1E+10	1	-1E+10	1
4901784	173	C	03/30/2020	10:44	-132.714	43.353	0	472.30	0	4.8930	0	36.3720	8	28.781	0	468.003	0	70.4	4	23.1	4	-1E+10	1	-1E+10	1	-1E+10	1	-1E+10	1	-1E+10	1	-1E+10	1
4901784	173	C	03/30/2020	10:44	-132.714	43.353	0	475.00	0	4.8780	0	36.3740	8	28.785	0	470.675	0	69.3	4	22.7	4	-1E+10	1	-1E+10	1	-1E+10	1	-1E+10	1	-1E+10	1	-1E+10	1
4901784	173	C	03/30/2020	10:44	-132.714	43.353	0	477.70	0	4.8490	0	36.3800	8	28.793	0	473.348	0	68.4	4	22.4	4	-1E+10	1	-1E+10	1	-1E+10	1	-1E+10	1	-1E+10	1	-1E+10	1
4901784	173	C	03/30/2020	10:44	-132.714	43.353	0	480.40	0	4.8420	0	36.3790	8	28.793	0	476.020	0	67.8	4	22.2	4	-1E+10	1	-1E+10	1	-1E+10	1	-1E+10	1	-1E+10	1	-1E+10	1
4901784	173	C	03/30/2020	10:44	-132.714	43.353	0	483.00	0	4.8200	0	36.3820	8	28.798	0	478.593	0	66.9	4	21.9	4	-1E+10	1	-1E+10	1	-1E+10	1	-1E+10	1	-1E+10	1	-1E+10	1
4901784	173	C	03/30/2020	10:44	-132.714	43.353	0	484.80	0	4.8080	0	36.3830	8	28.800	0	480.375	0	66.3	4	21.7	4	-1E+10	1	-1E+10	1	-1E+10	1	-1E+10	1	-1E+10	1	-1E+10	1
4901784	173	C	03/30/2020	10:44	-132.714	43.353	0	487.50	0	4.7900	0	36.3850	8	28.804	0	483.047	0	65.0	4	21.3	4	-1E+10	1	-1E+10	1	-1E+10	1	-1E+10	1	-1E+10	1	-1E+10	1
4901784	173	C	03/30/2020	10:44	-132.714	43.353	0	490.30	0	4.7670	0	36.3880	8	28.809	0	485.818	0	63.6	4	20.8	4	-1E+10	1	-1E+10	1	-1E+10	1	-1E+10	1	-1E+10	1	-1E+10	1
4901784	173	C	03/30/2020	10:44	-132.714	43.353	0	492.10	0	4.7590	0	36.3930	8	28.814	0	487.600	0	62.5	4	20.4	4	-1E+10	1	-1E+10	1	-1E+10	1	-1E+10	1	-1E+10	1	-1E+10	1
4901784	173	C	03/30/2020	10:44	-132.714	43.353	0	494.80	0	4.7470	0	36.3990	8	28.820	0	490.272	0	61.2	4	20.0	4	-1E+10	1	-1E+10	1	-1E+10	1	-1E+10	1	-1E+10	1	-1E+10	1
4901784	173	C	03/30/2020	10:44	-132.714	43.353	0	497.50	0	4.7250	0	36.4050	8	28.827	0	492.944	0	60.0	4	19.6	4	-1E+10	1	-1E+10	1	-1E+10	1	-1E+10	1	-1E+10	1	-1E+10	1
4901784	173	C	03/30/2020	10:44	-132.714	43.353	0	500.10	0	4.7210	0	36.4070	8	28.829	0	495.517	0	59.2	4	19.3	4	-1E+10	1	-1E+10	1	-1E+10	1	-1E+10	1	-1E+10	1	-1E+10	1
4901784	173	C	03/30/2020	10:44	-132.714	43.353	0	504.50	0	4.6980	0	36.4110	8	28.835	0	499.871	0	57.6	4	18.8	4	-1E+10	1	-1E+10	1	-1E+10	1	-1E+10	1	-1E+10	1	-1E+10	1
4901784	173	C	03/30/2020	10:44	-132.714	43.353	0	509.80	0	4.6750	0	36.4200	8	28.845	0	505.116	0	54.9	4	17.9	4	-1E+10	1	-1E+10	1	-1E+10	1	-1E+10	1	-1E+10	1	-1E+10	1
4901784	173	C	03/30/2020	10:44	-132.714	43.353	0	515.20	0	4.6550	0	36.4310	8	28.856	0	510.460	0	52.4	4	17.1	4	-1E+10	1	-1E+10	1	-1E+10	1	-1E+10	1	-1E+10	1	-1E+10	1
4901784	173	C	03/30/2020	10:44	-132.714	43.353	0	520.40	0	4.6360	0	36.4400	8	28.866	0	515.606	0	50.6	4	16.5	4	-1E+10	1	-1E+10	1	-1E+10	1	-1E+10	1	-1E+10	1	-1E+10	1
4901784	173	C	03/30/2020	10:44	-132.714	43.353	0	524.90	0	4.6320	0	36.4450	8	28.870	0	520.059	0	49.2	4	16.0	4	-1E+10	1	-1E+10	1	-1E+10	1	-1E+10	1	-1E+10	1	-1E+10	1
4901784	173	C	03/30/2020	10:44	-132.714	43.353	0	529.30	0	4.6290	0	36.4490	8	28.874	0	524.413	0	47.7	4	15.5	4	-1E+10	1	-1E+10	1	-1E+10	1	-1E+10	1	-1E+10	1	-1E+10	1
4901784	173	C	03/30/2020	10:44	-132.714	43.353	0	534.70	0	4.6140	0	36.4580	8	28.883	0	529.756	0	45.8	4	14.9	4	-1E+10	1	-1E+10	1	-1E+10	1	-1E+10	1	-1E+10	1	-1E+10	1
4901784	173	C	03/30/2020	10:44	-132.714	43.353	0	540.10	0	4.6010	0	36.4660	8	28.891	0	535.099	0	44.4	4	14.5	4	-1E+10	1	-1E+10	1	-1E+10	1	-1E+10	1	-1E+10	1	-1E+10	1
4901784	173	C	03/30/2020	10:44	-132.714	43.353	0	545.40	0	4.5940	0	36.4710	8	28.895	0	540.343	0	43.0	4	14.0	4	-1E+10	1	-1E+10	1	-1E+10	1	-1E+10	1	-1E+10	1	-1E+10	1
4901784	173	C	03/30/2020	10:44	-132.714	43.353	0	549.90	0	4.5840	0	36.4750	8	28.900	0	544.795	0	41.4	4	13.5	4	-1E+10	1	-1E+10	1	-1E+10	1	-1E+10	1	-1E+10	1	-1E+10	1
4901784	173	C	03/30/2020	10:44	-132.714	43.353	0	554.40	0	4.5850	0	36.4850	8	28.908	0	549.248	0	39.6	4	12.9	4	-1E+10	1	-1E+10	1	-1E+10	1	-1E+10	1	-1E+10	1	-1E+10	1
4901784	173	C	03/30/2020	10:44	-132.714	43.353	0	559.60	0	4.5520	0	36.4940	8	28.919	0	554.392	0	38.2	4	12.4	4	-1E+10	1	-1E+10	1	-1E+10	1	-1E+10	1	-1E+10	1	-1E+10	1
4901784	173	C	03/30/2020	10:44	-132.714	43.353	0	565.00	0	4.5290	0	36.4990	8	28.925	0	559.735	0	36.9	4	12.0	4	-1E+10	1	-1E+10	1	-1E+10	1	-1E+10	1	-1E+10	1	-1E+10	1
4901784	173	C	03/30/2020	10:44	-132.714	43.353	0	570.40	0	4.5100	0	36.5070	8	28.934	0	565.077	0	35.6	4	11.6	4	-1E+10	1	-1E+10	1	-1E+10	1	-1E+10	1	-1E+10	1	-1E+10	1
4901784	173	C	03/30/2020	10:44	-132.714	43.353	0	575.00	0	4.5050	0	36.5100	8	28.937	0	569.628	0	34.4	4	11.2	4	-1E+10	1	-1E+10	1	-1E+10	1	-1E+10	1	-1E+10	1	-1E+10	1
4901784	173	C	03/30/2020	10:44	-132.714	43.353	0	579.60	0	4.4980	0	36.5200	8	28.946	0	574.179	0	33.2	4	10.8	4	-1E+10	1	-1E+10	1	-1E+10	1	-1E+10	1	-1E+10	1	-1E+10	1
4901784	173	C	03/30/2020	10:44	-132.714	43.353	0	584.90	0	4.4930	0	36.5260	8	28.951	0	579.422	0	32.3	4	10.5	4	-1E+10	1	-1E+10	1	-1E+10	1	-1E+10	1	-1E+10	1	-1E+10	1
4901784	173	C	03/30/2020	10:44	-132.714	43.353	0	589.90	0	4.4880	0	36.5300	8	28.955	0	584.368	0	31.2	4	10.1	4	-1E+10	1	-1E+10	1	-1E+10	1	-1E+10	1	-1E+10	1	-1E+10	1
4901784	173	C	03/30/2020	10:44	-132.714	43.353	0	595.50	0	4.4880	0	36.5360	8	28.960	0	589.907	0	29.7	4	9.7	4	-1E+10	1	-1E+10	1	-1E+10	1	-1E+10	1	-1E+10	1	-1E+10	1
4901784	173	C	03/30/2020	10:44	-132.714	43.353	0	600.40	0	4.4660	0	36.5450	8	28.969	0	594.754	0	28.4	4	9.2	4	-1E+10	1	-1E+10	1	-1E+10	1	-1E+10	1	-1E+10	1	-1E+10	1
4901784	173	C	03/30/2020	10:44	-132.714	43.353	0	605.40	0	4.4610	0	36.5520	8	28.976	0	599.700	0	27.1	4	8.8	4	-1E+10	1	-1E+10	1	-1E+10	1	-1E+10	1	-1E+10	1	-1E+10	1
4901784	173	C	03/30/2020	10:44	-132.714	43.353	0	610.30	0	4.4580	0	36.5590	8	28.982	0	604.547	0	25.8	4	8.4	4	-1E+10	1	-1E+10	1	-1E+10	1	-1E+10	1	-1E+10	1	-1E+10	1
4901784	173	C	03/30/2020	10:44	-132.714	43.353	0	615.20	0	4.4470	0	36.5690	8	28.991	0	609.394	0	24.7	4	8.0	4	-1E+10	1	-1E+10	1	-1E+10	1	-1E+10	1	-1E+10	1	-1E+10	1
4901784	173	C	03/30/2020	10:44	-132.714	43.353	0	620.20	0	4.4390	0	36.5750	8	28.997	0	614.339	0	23.7	4	7.7	4	-1E+10	1	-1E+10	1	-1E+10	1	-1E+10	1	-1E+10	1	-1E+10	1
4901784	173	C	03/30/2020	10:44	-132.714	43.353	0	625.30	0	4.4300	0	36.5810	8	29.002	0	619.383	0	22.8	4	7.4	4	-1E+10	1	-1E+10	1	-1E+10	1	-1E+10	1	-1E+10	1	-1E+10	1
4901784	173	C	03/30/2020	10:44	-132.714	43.353	0	630.40	0	4.4070	0	36.5880	8	29.011	0	624.427	0	21.8	4	7.1	4	-1E+10	1	-1E+10	1	-1E+10	1	-1E+10	1	-1E+10	1	-1E+10	1
4901784	173	C	03/30/2020	10:44	-132.714	43.353	0	635.60	0	4.3800	0	36.5970	8	29.021	0	629.570	0	21.1	4	6.8	4	-1E+10	1	-1E+10	1	-1E+10	1	-1E+10	1	-1E+10	1	-1E+10	1
4901784	173	C	03/30/2020	10:44	-132.714	43.353	0	640.00	0	4.3740	0	36.6000	8	29.024	0	633.922	0	20.8	4	6.7	4	-1E+10	1	-1E+10	1	-1E+10	1	-1E+10	1	-1E+10	1	-1E+10	1
4901784	173	C	03/30/2020	10:44	-132.714	43.353	0	644.60	0	4.3650	0	36.6030	8	29.027	0	638.471	0	20.4	4	6.6	4	-1E+10	1	-1E+10	1	-1E+10	1	-1E+10	1	-1E+10	1	-1E+10	1
4901784	173	C	03/30/2020	10:44	-132.714	43.353	0	649.90	0	4.3530	0	36.6060	8	29.031	0	643.712	0	19.9	4	6.5	4	-1E+10	1	-1E+10	1	-1E+10	1	-1E+10	1	-1E+10	1	-1E+10	1
4901784	173	C	03/30/2020	10:44	-132.714	43.353	0	655.40	0	4.3240	0	36.6130	8	29.040	0	649.152	0	19.3	4	6.3	4	-1E+10	1	-1E+10	1	-1E+10	1	-1E+10	1	-1E+10	1	-1E+10	1
4901784	173	C	03/30/2020	10:44	-132.714	43.353	0	659.60	0	4.3050	0	36.6170	8	29.045	0	653.305	0	18.9	4	6.1	4	-1E+10	1	-1E+10	1	-1E+10	1	-1E+10	1	-1E+10	1	-1E+10	1
4901784	173	C	03/30/2020	10:44	-132.714	43.353	0	664.40	0	4.2920	0	36.6210	8	29.050	0	658.052	0	18.5	4	6.0	4	-1E+10	1	-1E+10	1	-1E+10	1	-1E+10	1	-1E+10	1	-1E+10	1
4901784	173	C	03/30/2020	10:44	-132.714	43.353	0	670.00	0	4.2790	0	36.6270	8	29.056	0	663.589	0	17.9	4	5.8	4	-1E+10	1	-1E+10	1	-1E+10	1	-1E+10	1	-1E+10	1	-1E+10	1
4901784	173	C	03/30/2020	10:44	-132.714	43.353	0	675.80	0	4.2630	0	36.6350	8	29.065	0	669.324	0	17.2	4	5.6	4	-1E+10	1	-1E+10	1	-1E+10	1	-1E+10	1	-1E+10	1	-1E+10	1
4901784	173	C	03/30/2020	10:44	-132.714	43.353	0	680.80	0	4.2520	0	36.6410	8	29.071	0	674.268	0	16.8	4	5.4	4	-1E+10	1	-1E+10	1	-1E+10	1	-1E+10	1	-1E+10	1	-1E+10	1
4901784	173	C	03/30/2020	10:44	-132.714	43.353	0	685.80	0	4.2360	0	36.6460	8	29.076	0	679.212	0	16.5	4	5.3	4	-1E+10	1	-1E+10	1	-1E+10	1	-1E+10	1	-1E+10	1	-1E+10	1
4901784	173	C	03/30/2020	10:44	-132.714	43.353	0	690.80	0	4.2270	0	36.6510	8	29.081	0	684.156	0	16.2	4	5.2	4	-1E+10	1	-1E+10	1	-1E+10	1	-1E+10	1	-1E+10	1	-1E+10	1
4901784	173	C	03/30/2020	10:44	-132.714	43.353	0	695.00	0	4.2220	0	36.6530	8	29.084	0	688.309	0	15.9	4	5.1	4	-1E+10	1	-1E+10	1	-1E+10	1	-1E+10	1	-1E+10	1	-1E+10	1
4901784	173	C	03/30/2020	10:44	-132.714	43.353	0	699.30	0	4.2090	0	36.6570	8	29.088	0	692.560	0	15.6	4	5.0	4	-1E+10	1	-1E+10	1	-1E+10	1	-1E+10	1	-1E+10	1	-1E+10	1
4901784	173	C	03/30/2020	10:44	-132.714	43.353	0	704.50	0	4.1840	0	36.6630	8	29.096	0	697.701	0	15.2	4	4.9	4	-1E+10	1	-1E+10	1	-1E+10	1	-1E+10	1	-1E+10	1	-1E+10	1
4901784	173	C	03/30/2020	10:44	-132.714	43.353	0	709.70	0	4.1650	0	36.6700	8	29.104	0	702.842	0	14.7	4	4.8	4	-1E+10	1	-1E+10	1	-1E+10	1	-1E+10	1	-1E+10	1	-1E+10	1
4901784	173	C	03/30/2020	10:44	-132.714	43.353	0	714.90	0	4.1590	0	36.6730	8	29.107	0	707.983	0	14.4	4	4.7	4	-1E+10	1	-1E+10	1	-1E+10	1	-1E+10	1	-1E+10	1	-1E+10	1
4901784	173	C	03/30/2020	10:44	-132.714	43.353	0	720.30	0	4.1330	0	36.6820	8	29.117	0	713.322	0	14.0	4	4.5	4	-1E+10	1	-1E+10	1	-1E+10	1	-1E+10	1	-1E+10	1	-1E+10	1
4901784	173	C	03/30/2020	10:44	-132.714	43.353	0	725.70	0	4.1230	0	36.6880	8	29.123	0	718.660	0	13.7	4	4.4	4	-1E+10	1	-1E+10	1	-1E+10	1	-1E+10	1	-1E+10	1	-1E+10	1
4901784	173	C	03/30/2020	10:44	-132.714	43.353	0	730.20	0	4.1160	0	36.6910	8	29.126	0	723.109	0	13.6	4	4.4	4	-1E+10	1	-1E+10	1	-1E+10	1	-1E+10	1	-1E+10	1	-1E+10	1
4901784	173	C	03/30/2020	10:44	-132.714	43.353	0	734.70	0	4.1100	0	36.6950	8	29.130	0	727.557	0	13.3	4	4.3	4	-1E+10	1	-1E+10	1	-1E+10	1	-1E+10	1	-1E+10	1	-1E+10	1
4901784	173	C	03/30/2020	10:44	-132.714	43.353	0	740.20	0	4.0900	0	36.7010	8	29.137	0	732.994	0	13.1	4	4.2	4	-1E+10	1	-1E+10	1	-1E+10	1	-1E+10	1	-1E+10	1	-1E+10	1
4901784	173	C	03/30/2020	10:44	-132.714	43.353	0	744.80	0	4.0760	0	36.7050	8	29.142	0	737.541	0	12.9	4	4.2	4	-1E+10	1	-1E+10	1	-1E+10	1	-1E+10	1	-1E+10	1	-1E+10	1
4901784	173	C	03/30/2020	10:44	-132.714	43.353	0	749.40	0	4.0650	0	36.7090	8	29.146	0	742.088	0	12.8	4	4.1	4	-1E+10	1	-1E+10	1	-1E+10	1	-1E+10	1	-1E+10	1	-1E+10	1
4901784	173	C	03/30/2020	10:44	-132.714	43.353	0	755.00	0	4.0520	0	36.7130	8	29.151	0	747.623	0	12.6	4	4.0	4	-1E+10	1	-1E+10	1	-1E+10	1	-1E+10	1	-1E+10	1	-1E+10	1
4901784	173	C	03/30/2020	10:44	-132.714	43.353	0	760.60	0	4.0390	0	36.7170	8	29.155	0	753.159	0	12.4	4	4.0	4	-1E+10	1	-1E+10	1	-1E+10	1	-1E+10	1	-1E+10	1	-1E+10	1
4901784	173	C	03/30/2020	10:44	-132.714	43.353	0	765.20	0	4.0360	0	36.7180	8	29.156	0	757.705	0	12.3	4	4.0	4	-1E+10	1	-1E+10	1	-1E+10	1	-1E+10	1	-1E+10	1	-1E+10	1
4901784	173	C	03/30/2020	10:44	-132.714	43.353	0	769.90	0	4.0250	0	36.7220	8	29.161	0	762.351	0	12.1	4	3.9	4	-1E+10	1	-1E+10	1	-1E+10	1	-1E+10	1	-1E+10	1	-1E+10	1
4901784	173	C	03/30/2020	10:44	-132.714	43.353	0	775.50	0	4.0060	0	36.7290	8	29.169	0	767.885	0	11.9	4	3.8	4	-1E+10	1	-1E+10	1	-1E+10	1	-1E+10	1	-1E+10	1	-1E+10	1
4901784	173	C	03/30/2020	10:44	-132.714	43.353	0	780.20	0	3.9920	0	36.7330	8	29.173	0	772.531	0	11.8	4	3.8	4	-1E+10	1	-1E+10	1	-1E+10	1	-1E+10	1	-1E+10	1	-1E+10	1
4901784	173	C	03/30/2020	10:44	-132.714	43.353	0	784.90	0	3.9830	0	36.7360	8	29.177	0	777.176	0	11.7	4	3.8	4	-1E+10	1	-1E+10	1	-1E+10	1	-1E+10	1	-1E+10	1	-1E+10	1
4901784	173	C	03/30/2020	10:44	-132.714	43.353	0	790.50	0	3.9690	0	36.7400	8	29.181	0	782.710	0	11.6	4	3.7	4	-1E+10	1	-1E+10	1	-1E+10	1	-1E+10	1	-1E+10	1	-1E+10	1
4901784	173	C	03/30/2020	10:44	-132.714	43.353	0	795.10	0	3.9570	0	36.7440	8	29.186	0	787.256	0	11.6	4	3.7	4	-1E+10	1	-1E+10	1	-1E+10	1	-1E+10	1	-1E+10	1	-1E+10	1
4901784	173	C	03/30/2020	10:44	-132.714	43.353	0	799.70	0	3.9550	0	36.7440	8	29.186	0	791.802	0	11.5	4	3.7	4	-1E+10	1	-1E+10	1	-1E+10	1	-1E+10	1	-1E+10	1	-1E+10	1
4901784	173	C	03/30/2020	10:44	-132.714	43.353	0	805.40	0	3.9370	0	36.7490	8	29.192	0	797.435	0	11.4	4	3.7	4	-1E+10	1	-1E+10	1	-1E+10	1	-1E+10	1	-1E+10	1	-1E+10	1
4901784	173	C	03/30/2020	10:44	-132.714	43.353	0	810.20	0	3.9250	0	36.7520	8	29.196	0	802.178	0	11.3	4	3.6	4	-1E+10	1	-1E+10	1	-1E+10	1	-1E+10	1	-1E+10	1	-1E+10	1
4901784	173	C	03/30/2020	10:44	-132.714	43.353	0	815.00	0	3.9170	0	36.7540	8	29.198	0	806.921	0	11.2	4	3.6	4	-1E+10	1	-1E+10	1	-1E+10	1	-1E+10	1	-1E+10	1	-1E+10	1
4901784	173	C	03/30/2020	10:44	-132.714	43.353	0	819.70	0	3.9040	0	36.7580	8	29.203	0	811.566	0	11.2	4	3.6	4	-1E+10	1	-1E+10	1	-1E+10	1	-1E+10	1	-1E+10	1	-1E+10	1
4901784	173	C	03/30/2020	10:44	-132.714	43.353	0	824.40	0	3.8960	0	36.7600	8	29.205	0	816.210	0	11.1	4	3.6	4	-1E+10	1	-1E+10	1	-1E+10	1	-1E+10	1	-1E+10	1	-1E+10	1
4901784	173	C	03/30/2020	10:44	-132.714	43.353	0	830.10	0	3.8800	0	36.7650	8	29.211	0	821.842	0	11.0	4	3.5	4	-1E+10	1	-1E+10	1	-1E+10	1	-1E+10	1	-1E+10	1	-1E+10	1
4901784	173	C	03/30/2020	10:44	-132.714	43.353	0	834.90	0	3.8690	0	36.7690	8	29.216	0	826.585	0	10.9	4	3.5	4	-1E+10	1	-1E+10	1	-1E+10	1	-1E+10	1	-1E+10	1	-1E+10	1
4901784	173	C	03/30/2020	10:44	-132.714	43.353	0	839.60	0	3.8630	0	36.7710	8	29.218	0	831.229	0	10.9	4	3.5	4	-1E+10	1	-1E+10	1	-1E+10	1	-1E+10	1	-1E+10	1	-1E+10	1
4901784	173	C	03/30/2020	10:44	-132.714	43.353	0	845.20	0	3.8500	0	36.7740	8	29.222	0	836.762	0	10.8	4	3.5	4	-1E+10	1	-1E+10	1	-1E+10	1	-1E+10	1	-1E+10	1	-1E+10	1
4901784	173	C	03/30/2020	10:44	-132.714	43.353	0	849.90	0	3.8330	0	36.7780	8	29.227	0	841.405	0	10.7	4	3.4	4	-1E+10	1	-1E+10	1	-1E+10	1	-1E+10	1	-1E+10	1	-1E+10	1
4901784	173	C	03/30/2020	10:44	-132.714	43.353	0	854.70	0	3.8190	0	36.7820	8	29.232	0	846.148	0	10.6	4	3.4	4	-1E+10	1	-1E+10	1	-1E+10	1	-1E+10	1	-1E+10	1	-1E+10	1
4901784	173	C	03/30/2020	10:44	-132.714	43.353	0	860.40	0	3.8090	0	36.7850	8	29.235	0	851.779	0	10.5	4	3.4	4	-1E+10	1	-1E+10	1	-1E+10	1	-1E+10	1	-1E+10	1	-1E+10	1
4901784	173	C	03/30/2020	10:44	-132.714	43.353	0	865.20	0	3.7920	0	36.7910	8	29.242	0	856.521	0	10.4	4	3.3	4	-1E+10	1	-1E+10	1	-1E+10	1	-1E+10	1	-1E+10	1	-1E+10	1
4901784	173	C	03/30/2020	10:44	-132.714	43.353	0	870.10	0	3.7810	0	36.7950	8	29.246	0	861.362	0	10.4	4	3.3	4	-1E+10	1	-1E+10	1	-1E+10	1	-1E+10	1	-1E+10	1	-1E+10	1
4901784	173	C	03/30/2020	10:44	-132.714	43.353	0	874.90	0	3.7680	0	36.7990	8	29.251	0	866.104	0	10.3	4	3.3	4	-1E+10	1	-1E+10	1	-1E+10	1	-1E+10	1	-1E+10	1	-1E+10	1
4901784	173	C	03/30/2020	10:44	-132.714	43.353	0	879.50	0	3.7510	0	36.8050	8	29.257	0	870.648	0	10.2	4	3.3	4	-1E+10	1	-1E+10	1	-1E+10	1	-1E+10	1	-1E+10	1	-1E+10	1
4901784	173	C	03/30/2020	10:44	-132.714	43.353	0	885.40	0	3.7370	0	36.8080	8	29.261	0	876.476	0	10.2	4	3.3	4	-1E+10	1	-1E+10	1	-1E+10	1	-1E+10	1	-1E+10	1	-1E+10	1
4901784	173	C	03/30/2020	10:44	-132.714	43.353	0	889.60	0	3.7170	0	36.8130	8	29.267	0	880.625	0	10.2	4	3.3	4	-1E+10	1	-1E+10	1	-1E+10	1	-1E+10	1	-1E+10	1	-1E+10	1
4901784	173	C	03/30/2020	10:44	-132.714	43.353	0	894.50	0	3.7050	0	36.8160	8	29.271	0	885.465	0	10.2	4	3.3	4	-1E+10	1	-1E+10	1	-1E+10	1	-1E+10	1	-1E+10	1	-1E+10	1
4901784	173	C	03/30/2020	10:44	-132.714	43.353	0	899.50	0	3.6840	0	36.8210	8	29.277	0	890.404	0	10.2	4	3.3	4	-1E+10	1	-1E+10	1	-1E+10	1	-1E+10	1	-1E+10	1	-1E+10	1
4901784	173	C	03/30/2020	10:44	-132.714	43.353	0	904.30	0	3.6680	0	36.8250	8	29.282	0	895.145	0	10.2	4	3.3	4	-1E+10	1	-1E+10	1	-1E+10	1	-1E+10	1	-1E+10	1	-1E+10	1
4901784	173	C	03/30/2020	10:44	-132.714	43.353	0	909.90	0	3.6560	0	36.8290	8	29.287	0	900.676	0	10.2	4	3.3	4	-1E+10	1	-1E+10	1	-1E+10	1	-1E+10	1	-1E+10	1	-1E+10	1
4901784	173	C	03/30/2020	10:44	-132.714	43.353	0	915.60	0	3.6420	0	36.8340	8	29.292	0	906.306	0	10.2	4	3.2	4	-1E+10	1	-1E+10	1	-1E+10	1	-1E+10	1	-1E+10	1	-1E+10	1
4901784	173	C	03/30/2020	10:44	-132.714	43.353	0	920.50	0	3.6320	0	36.8380	8	29.296	0	911.146	0	10.1	4	3.2	4	-1E+10	1	-1E+10	1	-1E+10	1	-1E+10	1	-1E+10	1	-1E+10	1
4901784	173	C	03/30/2020	10:44	-132.714	43.353	0	925.40	0	3.6210	0	36.8420	8	29.301	0	915.985	0	10.1	4	3.2	4	-1E+10	1	-1E+10	1	-1E+10	1	-1E+10	1	-1E+10	1	-1E+10	1
4901784	173	C	03/30/2020	10:44	-132.714	43.353	0	930.30	0	3.6120	0	36.8460	8	29.305	0	920.825	0	10.1	4	3.2	4	-1E+10	1	-1E+10	1	-1E+10	1	-1E+10	1	-1E+10	1	-1E+10	1
4901784	173	C	03/30/2020	10:44	-132.714	43.353	0	935.40	0	3.6000	0	36.8500	8	29.309	0	925.862	0	10.1	4	3.2	4	-1E+10	1	-1E+10	1	-1E+10	1	-1E+10	1	-1E+10	1	-1E+10	1
4901784	173	C	03/30/2020	10:44	-132.714	43.353	0	940.30	0	3.5910	0	36.8530	8	29.313	0	930.701	0	10.2	4	3.2	4	-1E+10	1	-1E+10	1	-1E+10	1	-1E+10	1	-1E+10	1	-1E+10	1
4901784	173	C	03/30/2020	10:44	-132.714	43.353	0	945.40	0	3.5840	0	36.8560	8	29.316	0	935.737	0	10.2	4	3.2	4	-1E+10	1	-1E+10	1	-1E+10	1	-1E+10	1	-1E+10	1	-1E+10	1
4901784	173	C	03/30/2020	10:44	-132.714	43.353	0	950.30	0	3.5750	0	36.8580	8	29.319	0	940.576	0	10.2	4	3.2	4	-1E+10	1	-1E+10	1	-1E+10	1	-1E+10	1	-1E+10	1	-1E+10	1
4901784	173	C	03/30/2020	10:44	-132.714	43.353	0	955.30	0	3.5670	0	36.8610	8	29.322	0	945.514	0	10.2	4	3.2	4	-1E+10	1	-1E+10	1	-1E+10	1	-1E+10	1	-1E+10	1	-1E+10	1
4901784	173	C	03/30/2020	10:44	-132.714	43.353	0	960.40	0	3.5660	0	36.8620	8	29.323	0	950.550	0	10.2	4	3.2	4	-1E+10	1	-1E+10	1	-1E+10	1	-1E+10	1	-1E+10	1	-1E+10	1
4901784	173	C	03/30/2020	10:44	-132.714	43.353	0	965.40	0	3.5610	0	36.8630	8	29.324	0	955.487	0	10.2	4	3.3	4	-1E+10	1	-1E+10	1	-1E+10	1	-1E+10	1	-1E+10	1	-1E+10	1
4901784	173	C	03/30/2020	10:44	-132.714	43.353	0	970.50	0	3.5460	0	36.8680	8	29.330	0	960.523	0	10.3	4	3.3	4	-1E+10	1	-1E+10	1	-1E+10	1	-1E+10	1	-1E+10	1	-1E+10	1
4901784	173	C	03/30/2020	10:44	-132.714	43.353	0	975.60	0	3.5330	0	36.8710	8	29.333	0	965.559	0	10.3	4	3.3	4	-1E+10	1	-1E+10	1	-1E+10	1	-1E+10	1	-1E+10	1	-1E+10	1
4901784	173	C	03/30/2020	10:44	-132.714	43.353	0	979.90	0	3.5250	0	36.8730	8	29.336	0	969.805	0	10.3	4	3.3	4	-1E+10	1	-1E+10	1	-1E+10	1	-1E+10	1	-1E+10	1	-1E+10	1
4901784	173	C	03/30/2020	10:44	-132.714	43.353	0	984.20	0	3.5140	0	36.8760	8	29.339	0	974.050	0	10.4	4	3.3	4	-1E+10	1	-1E+10	1	-1E+10	1	-1E+10	1	-1E+10	1	-1E+10	1
4901784	173	C	03/30/2020	10:44	-132.714	43.353	0	989.40	0	3.4990	0	36.8800	8	29.344	0	979.185	0	10.4	4	3.3	4	-1E+10	1	-1E+10	1	-1E+10	1	-1E+10	1	-1E+10	1	-1E+10	1
4901784	173	C	03/30/2020	10:44	-132.714	43.353	0	994.50	0	3.4830	0	36.8830	8	29.348	0	984.220	0	10.5	4	3.3	4	-1E+10	1	-1E+10	1	-1E+10	1	-1E+10	1	-1E+10	1	-1E+10	1
4901784	173	C	03/30/2020	10:44	-132.714	43.353	0	999.80	0	3.4650	0	36.8870	8	29.353	0	989.453	0	10.6	4	3.4	4	-1E+10	1	-1E+10	1	-1E+10	1	-1E+10	1	-1E+10	1	-1E+10	1
4901784	173	C	03/30/2020	10:44	-132.714	43.353	0	1005.00	0	3.4590	0	36.8890	8	29.356	0	994.587	0	10.6	4	3.4	4	-1E+10	1	-1E+10	1	-1E+10	1	-1E+10	1	-1E+10	1	-1E+10	1
4901784	173	C	03/30/2020	10:44	-132.714	43.353	0	1010.50	0	3.4440	0	36.8930	8	29.360	0	1000.016	0	10.7	4	3.4	4	-1E+10	1	-1E+10	1	-1E+10	1	-1E+10	1	-1E+10	1	-1E+10	1
4901784	173	C	03/30/2020	10:44	-132.714	43.353	0	1015.00	0	3.4280	0	36.8970	8	29.365	0	1004.459	0	10.8	4	3.4	4	-1E+10	1	-1E+10	1	-1E+10	1	-1E+10	1	-1E+10	1	-1E+10	1
4901784	173	C	03/30/2020	10:44	-132.714	43.353	0	1019.70	0	3.4210	0	36.8990	8	29.368	0	1009.099	0	10.9	4	3.4	4	-1E+10	1	-1E+10	1	-1E+10	1	-1E+10	1	-1E+10	1	-1E+10	1
4901784	173	C	03/30/2020	10:44	-132.714	43.353	0	1025.10	0	3.4020	0	36.9040	8	29.374	0	1014.430	0	10.9	4	3.5	4	-1E+10	1	-1E+10	1	-1E+10	1	-1E+10	1	-1E+10	1	-1E+10	1
4901784	173	C	03/30/2020	10:44	-132.714	43.353	0	1030.20	0	3.3910	0	36.9060	8	29.376	0	1019.464	0	11.0	4	3.5	4	-1E+10	1	-1E+10	1	-1E+10	1	-1E+10	1	-1E+10	1	-1E+10	1
4901784	173	C	03/30/2020	10:44	-132.714	43.353	0	1034.30	0	3.3800	0	36.9090	8	29.380	0	1023.512	0	11.1	4	3.5	4	-1E+10	1	-1E+10	1	-1E+10	1	-1E+10	1	-1E+10	1	-1E+10	1
4901784	173	C	03/30/2020	10:44	-132.714	43.353	0	1039.90	0	3.3720	0	36.9110	8	29.382	0	1029.039	0	11.1	4	3.5	4	-1E+10	1	-1E+10	1	-1E+10	1	-1E+10	1	-1E+10	1	-1E+10	1
4901784	173	C	03/30/2020	10:44	-132.714	43.353	0	1045.50	0	3.3530	0	36.9160	8	29.388	0	1034.567	0	11.2	4	3.6	4	-1E+10	1	-1E+10	1	-1E+10	1	-1E+10	1	-1E+10	1	-1E+10	1
4901784	173	C	03/30/2020	10:44	-132.714	43.353	0	1050.30	0	3.3510	0	36.9160	8	29.389	0	1039.305	0	11.3	4	3.6	4	-1E+10	1	-1E+10	1	-1E+10	1	-1E+10	1	-1E+10	1	-1E+10	1
4901784	173	C	03/30/2020	10:44	-132.714	43.353	0	1055.20	0	3.3410	0	36.9190	8	29.392	0	1044.141	0	11.3	4	3.6	4	-1E+10	1	-1E+10	1	-1E+10	1	-1E+10	1	-1E+10	1	-1E+10	1
4901784	173	C	03/30/2020	10:44	-132.714	43.353	0	1060.20	0	3.3310	0	36.9220	8	29.395	0	1049.077	0	11.4	4	3.6	4	-1E+10	1	-1E+10	1	-1E+10	1	-1E+10	1	-1E+10	1	-1E+10	1
4901784	173	C	03/30/2020	10:44	-132.714	43.353	0	1065.20	0	3.3180	0	36.9250	8	29.399	0	1054.012	0	11.5	4	3.6	4	-1E+10	1	-1E+10	1	-1E+10	1	-1E+10	1	-1E+10	1	-1E+10	1
4901784	173	C	03/30/2020	10:44	-132.714	43.353	0	1070.20	0	3.3140	0	36.9260	8	29.400	0	1058.946	0	11.5	4	3.7	4	-1E+10	1	-1E+10	1	-1E+10	1	-1E+10	1	-1E+10	1	-1E+10	1
4901784	173	C	03/30/2020	10:44	-132.714	43.353	0	1075.30	0	3.3080	0	36.9270	8	29.402	0	1063.980	0	11.6	4	3.7	4	-1E+10	1	-1E+10	1	-1E+10	1	-1E+10	1	-1E+10	1	-1E+10	1
4901784	173	C	03/30/2020	10:44	-132.714	43.353	0	1080.50	0	3.2980	0	36.9300	8	29.405	0	1069.112	0	11.7	4	3.7	4	-1E+10	1	-1E+10	1	-1E+10	1	-1E+10	1	-1E+10	1	-1E+10	1
4901784	173	C	03/30/2020	10:44	-132.714	43.353	0	1085.70	0	3.2870	0	36.9320	8	29.408	0	1074.244	0	11.8	4	3.7	4	-1E+10	1	-1E+10	1	-1E+10	1	-1E+10	1	-1E+10	1	-1E+10	1
4901784	173	C	03/30/2020	10:44	-132.714	43.353	0	1090.00	0	3.2780	0	36.9340	8	29.411	0	1078.487	0	11.9	4	3.8	4	-1E+10	1	-1E+10	1	-1E+10	1	-1E+10	1	-1E+10	1	-1E+10	1
4901784	173	C	03/30/2020	10:44	-132.714	43.353	0	1094.30	0	3.2690	0	36.9360	8	29.413	0	1082.731	0	12.0	4	3.8	4	-1E+10	1	-1E+10	1	-1E+10	1	-1E+10	1	-1E+10	1	-1E+10	1
4901784	173	C	03/30/2020	10:44	-132.714	43.353	0	1099.50	0	3.2580	0	36.9390	8	29.417	0	1087.862	0	12.1	4	3.8	4	-1E+10	1	-1E+10	1	-1E+10	1	-1E+10	1	-1E+10	1	-1E+10	1
4901784	173	C	03/30/2020	10:44	-132.714	43.353	0	1104.80	0	3.2450	0	36.9420	8	29.420	0	1093.093	0	12.2	4	3.8	4	-1E+10	1	-1E+10	1	-1E+10	1	-1E+10	1	-1E+10	1	-1E+10	1
4901784	173	C	03/30/2020	10:44	-132.714	43.353	0	1110.10	0	3.2400	0	36.9440	8	29.422	0	1098.322	0	12.2	4	3.9	4	-1E+10	1	-1E+10	1	-1E+10	1	-1E+10	1	-1E+10	1	-1E+10	1
4901784	173	C	03/30/2020	10:44	-132.714	43.353	0	1115.60	0	3.2360	0	36.9450	8	29.424	0	1103.750	0	12.3	4	3.9	4	-1E+10	1	-1E+10	1	-1E+10	1	-1E+10	1	-1E+10	1	-1E+10	1
4901784	173	C	03/30/2020	10:44	-132.714	43.353	0	1120.10	0	3.2270	0	36.9470	8	29.426	0	1108.190	0	12.4	4	3.9	4	-1E+10	1	-1E+10	1	-1E+10	1	-1E+10	1	-1E+10	1	-1E+10	1
4901784	173	C	03/30/2020	10:44	-132.714	43.353	0	1124.60	0	3.2220	0	36.9480	8	29.428	0	1112.630	0	12.4	4	3.9	4	-1E+10	1	-1E+10	1	-1E+10	1	-1E+10	1	-1E+10	1	-1E+10	1
4901784	173	C	03/30/2020	10:44	-132.714	43.353	0	1130.00	0	3.2150	0	36.9500	8	29.430	0	1117.958	0	12.5	4	4.0	4	-1E+10	1	-1E+10	1	-1E+10	1	-1E+10	1	-1E+10	1	-1E+10	1
4901784	173	C	03/30/2020	10:44	-132.714	43.353	0	1135.40	0	3.2050	0	36.9520	8	29.433	0	1123.286	0	12.7	4	4.0	4	-1E+10	1	-1E+10	1	-1E+10	1	-1E+10	1	-1E+10	1	-1E+10	1
4901784	173	C	03/30/2020	10:44	-132.714	43.353	0	1140.00	0	3.1950	0	36.9530	8	29.434	0	1127.825	0	12.8	4	4.1	4	-1E+10	1	-1E+10	1	-1E+10	1	-1E+10	1	-1E+10	1	-1E+10	1
4901784	173	C	03/30/2020	10:44	-132.714	43.353	0	1144.70	0	3.1710	0	36.9590	8	29.442	0	1132.462	0	13.0	4	4.1	4	-1E+10	1	-1E+10	1	-1E+10	1	-1E+10	1	-1E+10	1	-1E+10	1
4901784	173	C	03/30/2020	10:44	-132.714	43.353	0	1150.40	0	3.1600	0	36.9610	8	29.444	0	1138.086	0	13.1	4	4.1	4	-1E+10	1	-1E+10	1	-1E+10	1	-1E+10	1	-1E+10	1	-1E+10	1
4901784	173	C	03/30/2020	10:44	-132.714	43.353	0	1155.80	0	3.1510	0	36.9630	8	29.447	0	1143.413	0	13.2	4	4.2	4	-1E+10	1	-1E+10	1	-1E+10	1	-1E+10	1	-1E+10	1	-1E+10	1
4901784	173	C	03/30/2020	10:44	-132.714	43.353	0	1160.20	0	3.1470	0	36.9640	8	29.448	0	1147.754	0	13.2	4	4.2	4	-1E+10	1	-1E+10	1	-1E+10	1	-1E+10	1	-1E+10	1	-1E+10	1
4901784	173	C	03/30/2020	10:44	-132.714	43.353	0	1165.10	0	3.1420	0	36.9650	8	29.449	0	1152.588	0	13.3	4	4.2	4	-1E+10	1	-1E+10	1	-1E+10	1	-1E+10	1	-1E+10	1	-1E+10	1
4901784	173	C	03/30/2020	10:44	-132.714	43.353	0	1170.10	0	3.1310	0	36.9670	8	29.452	0	1157.521	0	13.5	4	4.3	4	-1E+10	1	-1E+10	1	-1E+10	1	-1E+10	1	-1E+10	1	-1E+10	1
4901784	173	C	03/30/2020	10:44	-132.714	43.353	0	1175.10	0	3.1190	0	36.9700	8	29.456	0	1162.453	0	13.6	4	4.3	4	-1E+10	1	-1E+10	1	-1E+10	1	-1E+10	1	-1E+10	1	-1E+10	1
4901784	173	C	03/30/2020	10:44	-132.714	43.353	0	1180.20	0	3.1090	0	36.9720	8	29.458	0	1167.484	0	13.7	4	4.3	4	-1E+10	1	-1E+10	1	-1E+10	1	-1E+10	1	-1E+10	1	-1E+10	1
4901784	173	C	03/30/2020	10:44	-132.714	43.353	0	1185.30	0	3.1010	0	36.9730	8	29.460	0	1172.515	0	13.9	4	4.4	4	-1E+10	1	-1E+10	1	-1E+10	1	-1E+10	1	-1E+10	1	-1E+10	1
4901784	173	C	03/30/2020	10:44	-132.714	43.353	0	1190.50	0	3.0880	0	36.9760	8	29.464	0	1177.644	0	14.0	4	4.4	4	-1E+10	1	-1E+10	1	-1E+10	1	-1E+10	1	-1E+10	1	-1E+10	1
4901784	173	C	03/30/2020	10:44	-132.714	43.353	0	1195.70	0	3.0770	0	36.9750	8	29.464	0	1182.773	0	14.2	4	4.5	4	-1E+10	1	-1E+10	1	-1E+10	1	-1E+10	1	-1E+10	1	-1E+10	1
4901784	173	C	03/30/2020	10:44	-132.714	43.353	0	1200.00	0	3.0660	0	36.9760	8	29.466	0	1187.015	0	14.3	4	4.5	4	-1E+10	1	-1E+10	1	-1E+10	1	-1E+10	1	-1E+10	1	-1E+10	1
4901784	173	C	03/30/2020	10:44	-132.714	43.353	0	1204.40	0	3.0640	0	36.9760	8	29.466	0	1191.355	0	14.3	4	4.5	4	-1E+10	1	-1E+10	1	-1E+10	1	-1E+10	1	-1E+10	1	-1E+10	1
4901784	173	C	03/30/2020	10:44	-132.714	43.353	0	1209.60	0	3.0560	0	36.9770	8	29.468	0	1196.484	0	14.4	4	4.5	4	-1E+10	1	-1E+10	1	-1E+10	1	-1E+10	1	-1E+10	1	-1E+10	1
4901784	173	C	03/30/2020	10:44	-132.714	43.353	0	1214.90	0	3.0450	0	36.9790	8	29.470	0	1201.711	0	14.6	4	4.6	4	-1E+10	1	-1E+10	1	-1E+10	1	-1E+10	1	-1E+10	1	-1E+10	1
4901784	173	C	03/30/2020	10:44	-132.714	43.353	0	1220.10	0	3.0320	0	36.9810	8	29.473	0	1206.840	0	14.7	4	4.6	4	-1E+10	1	-1E+10	1	-1E+10	1	-1E+10	1	-1E+10	1	-1E+10	1
4901784	173	C	03/30/2020	10:44	-132.714	43.353	0	1225.40	0	3.0170	0	36.9840	8	29.477	0	1212.067	0	14.9	4	4.7	4	-1E+10	1	-1E+10	1	-1E+10	1	-1E+10	1	-1E+10	1	-1E+10	1
4901784	173	C	03/30/2020	10:44	-132.714	43.353	0	1230.70	0	3.0080	0	36.9860	8	29.480	0	1217.294	0	15.0	4	4.7	4	-1E+10	1	-1E+10	1	-1E+10	1	-1E+10	1	-1E+10	1	-1E+10	1
4901784	173	C	03/30/2020	10:44	-132.714	43.353	0	1235.20	0	2.9990	0	36.9870	8	29.481	0	1221.732	0	15.2	4	4.8	4	-1E+10	1	-1E+10	1	-1E+10	1	-1E+10	1	-1E+10	1	-1E+10	1
4901784	173	C	03/30/2020	10:44	-132.714	43.353	0	1239.70	0	2.9910	0	36.9890	8	29.484	0	1226.170	0	15.3	4	4.8	4	-1E+10	1	-1E+10	1	-1E+10	1	-1E+10	1	-1E+10	1	-1E+10	1
4901784	173	C	03/30/2020	10:44	-132.714	43.353	0	1245.00	0	2.9730	0	36.9920	8	29.488	0	1231.396	0	15.6	4	4.9	4	-1E+10	1	-1E+10	1	-1E+10	1	-1E+10	1	-1E+10	1	-1E+10	1
4901784	173	C	03/30/2020	10:44	-132.714	43.353	0	1250.40	0	2.9650	0	36.9930	8	29.490	0	1236.721	0	15.7	4	4.9	4	-1E+10	1	-1E+10	1	-1E+10	1	-1E+10	1	-1E+10	1	-1E+10	1
4901784	173	C	03/30/2020	10:44	-132.714	43.353	0	1254.90	0	2.9570	0	36.9950	8	29.492	0	1241.159	0	15.9	4	5.0	4	-1E+10	1	-1E+10	1	-1E+10	1	-1E+10	1	-1E+10	1	-1E+10	1
4901784	173	C	03/30/2020	10:44	-132.714	43.353	0	1259.40	0	2.9400	0	36.9980	8	29.496	0	1245.596	0	16.0	4	5.0	4	-1E+10	1	-1E+10	1	-1E+10	1	-1E+10	1	-1E+10	1	-1E+10	1
4901784	173	C	03/30/2020	10:44	-132.714	43.353	0	1265.00	0	2.9360	0	36.9990	8	29.497	0	1251.118	0	16.1	4	5.1	4	-1E+10	1	-1E+10	1	-1E+10	1	-1E+10	1	-1E+10	1	-1E+10	1
4901784	173	C	03/30/2020	10:44	-132.714	43.353	0	1270.50	0	2.9350	0	36.9990	8	29.497	0	1256.542	0	16.1	4	5.1	4	-1E+10	1	-1E+10	1	-1E+10	1	-1E+10	1	-1E+10	1	-1E+10	1
4901784	173	C	03/30/2020	10:44	-132.714	43.353	0	1275.20	0	2.9290	0	37.0010	8	29.500	0	1261.176	0	16.2	4	5.1	4	-1E+10	1	-1E+10	1	-1E+10	1	-1E+10	1	-1E+10	1	-1E+10	1
4901784	173	C	03/30/2020	10:44	-132.714	43.353	0	1279.80	0	2.9240	0	37.0020	8	29.501	0	1265.712	0	16.3	4	5.1	4	-1E+10	1	-1E+10	1	-1E+10	1	-1E+10	1	-1E+10	1	-1E+10	1
4901784	173	C	03/30/2020	10:44	-132.714	43.353	0	1285.40	0	2.9220	0	37.0020	8	29.501	0	1271.233	0	16.3	4	5.1	4	-1E+10	1	-1E+10	1	-1E+10	1	-1E+10	1	-1E+10	1	-1E+10	1
4901784	173	C	03/30/2020	10:44	-132.714	43.353	0	1290.00	0	2.9190	0	37.0030	8	29.502	0	1275.768	0	16.4	4	5.2	4	-1E+10	1	-1E+10	1	-1E+10	1	-1E+10	1	-1E+10	1	-1E+10	1
4901784	173	C	03/30/2020	10:44	-132.714	43.353	0	1294.70	0	2.9080	0	37.0050	8	29.505	0	1280.402	0	16.6	4	5.2	4	-1E+10	1	-1E+10	1	-1E+10	1	-1E+10	1	-1E+10	1	-1E+10	1
4901784	173	C	03/30/2020	10:44	-132.714	43.353	0	1300.20	0	2.9000	0	37.0070	8	29.507	0	1285.825	0	16.7	4	5.3	4	-1E+10	1	-1E+10	1	-1E+10	1	-1E+10	1	-1E+10	1	-1E+10	1
4901784	173	C	03/30/2020	10:44	-132.714	43.353	0	1304.80	0	2.9000	0	37.0090	8	29.509	0	1290.360	0	16.8	4	5.3	4	-1E+10	1	-1E+10	1	-1E+10	1	-1E+10	1	-1E+10	1	-1E+10	1
4901784	173	C	03/30/2020	10:44	-132.714	43.353	0	1309.50	0	2.8930	0	37.0100	8	29.511	0	1294.993	0	16.9	4	5.3	4	-1E+10	1	-1E+10	1	-1E+10	1	-1E+10	1	-1E+10	1	-1E+10	1
4901784	173	C	03/30/2020	10:44	-132.714	43.353	0	1315.00	0	2.8850	0	37.0110	8	29.512	0	1300.415	0	17.1	4	5.4	4	-1E+10	1	-1E+10	1	-1E+10	1	-1E+10	1	-1E+10	1	-1E+10	1
4901784	173	C	03/30/2020	10:44	-132.714	43.353	0	1320.50	0	2.8760	0	37.0130	8	29.515	0	1305.837	0	17.2	4	5.4	4	-1E+10	1	-1E+10	1	-1E+10	1	-1E+10	1	-1E+10	1	-1E+10	1
4901784	173	C	03/30/2020	10:44	-132.714	43.353	0	1325.10	0	2.8700	0	37.0140	8	29.516	0	1310.372	0	17.3	4	5.4	4	-1E+10	1	-1E+10	1	-1E+10	1	-1E+10	1	-1E+10	1	-1E+10	1
4901784	173	C	03/30/2020	10:44	-132.714	43.353	0	1329.70	0	2.8650	0	37.0160	8	29.518	0	1314.906	0	17.4	4	5.5	4	-1E+10	1	-1E+10	1	-1E+10	1	-1E+10	1	-1E+10	1	-1E+10	1
4901784	173	C	03/30/2020	10:44	-132.714	43.353	0	1335.40	0	2.8610	0	37.0160	8	29.519	0	1320.525	0	17.5	4	5.5	4	-1E+10	1	-1E+10	1	-1E+10	1	-1E+10	1	-1E+10	1	-1E+10	1
4901784	173	C	03/30/2020	10:44	-132.714	43.353	0	1340.20	0	2.8580	0	37.0170	8	29.520	0	1325.257	0	17.7	4	5.5	4	-1E+10	1	-1E+10	1	-1E+10	1	-1E+10	1	-1E+10	1	-1E+10	1
4901784	173	C	03/30/2020	10:44	-132.714	43.353	0	1344.90	0	2.8520	0	37.0190	8	29.522	0	1329.889	0	17.8	4	5.6	4	-1E+10	1	-1E+10	1	-1E+10	1	-1E+10	1	-1E+10	1	-1E+10	1
4901784	173	C	03/30/2020	10:44	-132.714	43.353	0	1349.90	0	2.8430	0	37.0210	8	29.524	0	1334.818	0	18.0	4	5.6	4	-1E+10	1	-1E+10	1	-1E+10	1	-1E+10	1	-1E+10	1	-1E+10	1
4901784	173	C	03/30/2020	10:44	-132.714	43.353	0	1355.10	0	2.8330	0	37.0230	8	29.527	0	1339.943	0	18.2	4	5.7	4	-1E+10	1	-1E+10	1	-1E+10	1	-1E+10	1	-1E+10	1	-1E+10	1
4901784	173	C	03/30/2020	10:44	-132.714	43.353	0	1360.30	0	2.8250	0	37.0250	8	29.529	0	1345.069	0	18.4	4	5.8	4	-1E+10	1	-1E+10	1	-1E+10	1	-1E+10	1	-1E+10	1	-1E+10	1
4901784	173	C	03/30/2020	10:44	-132.714	43.353	0	1365.40	0	2.8190	0	37.0260	8	29.531	0	1350.095	0	18.5	4	5.8	4	-1E+10	1	-1E+10	1	-1E+10	1	-1E+10	1	-1E+10	1	-1E+10	1
4901784	173	C	03/30/2020	10:44	-132.714	43.353	0	1370.50	0	2.8130	0	37.0270	8	29.532	0	1355.121	0	18.7	4	5.9	4	-1E+10	1	-1E+10	1	-1E+10	1	-1E+10	1	-1E+10	1	-1E+10	1
4901784	173	C	03/30/2020	10:44	-132.714	43.353	0	1374.60	0	2.8040	0	37.0280	8	29.534	0	1359.162	0	18.9	4	5.9	4	-1E+10	1	-1E+10	1	-1E+10	1	-1E+10	1	-1E+10	1	-1E+10	1
4901784	173	C	03/30/2020	10:44	-132.714	43.353	0	1379.80	0	2.7920	0	37.0310	8	29.537	0	1364.287	0	19.2	4	6.0	4	-1E+10	1	-1E+10	1	-1E+10	1	-1E+10	1	-1E+10	1	-1E+10	1
4901784	173	C	03/30/2020	10:44	-132.714	43.353	0	1384.90	0	2.7790	0	37.0330	8	29.540	0	1369.313	0	19.4	4	6.1	4	-1E+10	1	-1E+10	1	-1E+10	1	-1E+10	1	-1E+10	1	-1E+10	1
4901784	173	C	03/30/2020	10:44	-132.714	43.353	0	1390.00	0	2.7730	0	37.0340	8	29.542	0	1374.339	0	19.5	4	6.1	4	-1E+10	1	-1E+10	1	-1E+10	1	-1E+10	1	-1E+10	1	-1E+10	1
4901784	173	C	03/30/2020	10:44	-132.714	43.353	0	1395.20	0	2.7690	0	37.0350	8	29.543	0	1379.464	0	19.7	4	6.2	4	-1E+10	1	-1E+10	1	-1E+10	1	-1E+10	1	-1E+10	1	-1E+10	1
4901784	173	C	03/30/2020	10:44	-132.714	43.353	0	1400.30	0	2.7610	0	37.0370	8	29.545	0	1384.489	0	19.8	4	6.2	4	-1E+10	1	-1E+10	1	-1E+10	1	-1E+10	1	-1E+10	1	-1E+10	1
4901784	173	C	03/30/2020	10:44	-132.714	43.353	0	1405.40	0	2.7570	0	37.0380	8	29.547	0	1389.515	0	20.0	4	6.3	4	-1E+10	1	-1E+10	1	-1E+10	1	-1E+10	1	-1E+10	1	-1E+10	1
4901784	173	C	03/30/2020	10:44	-132.714	43.353	0	1410.50	0	2.7480	0	37.0390	8	29.548	0	1394.541	0	20.3	4	6.3	4	-1E+10	1	-1E+10	1	-1E+10	1	-1E+10	1	-1E+10	1	-1E+10	1
4901784	173	C	03/30/2020	10:44	-132.714	43.353	0	1415.50	0	2.7390	0	37.0400	8	29.550	0	1399.467	0	20.5	4	6.4	4	-1E+10	1	-1E+10	1	-1E+10	1	-1E+10	1	-1E+10	1	-1E+10	1
4901784	173	C	03/30/2020	10:44	-132.714	43.353	0	1419.60	0	2.7270	0	37.0420	8	29.553	0	1403.507	0	20.8	4	6.5	4	-1E+10	1	-1E+10	1	-1E+10	1	-1E+10	1	-1E+10	1	-1E+10	1
4901784	173	C	03/30/2020	10:44	-132.714	43.353	0	1424.70	0	2.7150	0	37.0450	8	29.556	0	1408.532	0	21.0	4	6.6	4	-1E+10	1	-1E+10	1	-1E+10	1	-1E+10	1	-1E+10	1	-1E+10	1
4901784	173	C	03/30/2020	10:44	-132.714	43.353	0	1429.90	0	2.7090	0	37.0460	8	29.558	0	1413.656	0	21.2	4	6.6	4	-1E+10	1	-1E+10	1	-1E+10	1	-1E+10	1	-1E+10	1	-1E+10	1
4901784	173	C	03/30/2020	10:44	-132.714	43.353	0	1435.00	0	2.6950	0	37.0480	8	29.561	0	1418.681	0	21.5	4	6.7	4	-1E+10	1	-1E+10	1	-1E+10	1	-1E+10	1	-1E+10	1	-1E+10	1
4901784	173	C	03/30/2020	10:44	-132.714	43.353	0	1440.10	0	2.6830	0	37.0500	8	29.563	0	1423.706	0	21.9	4	6.8	4	-1E+10	1	-1E+10	1	-1E+10	1	-1E+10	1	-1E+10	1	-1E+10	1
4901784	173	C	03/30/2020	10:44	-132.714	43.353	0	1445.10	0	2.6710	0	37.0520	8	29.566	0	1428.632	0	22.1	4	6.9	4	-1E+10	1	-1E+10	1	-1E+10	1	-1E+10	1	-1E+10	1	-1E+10	1
4901784	173	C	03/30/2020	10:44	-132.714	43.353	0	1450.30	0	2.6630	0	37.0530	8	29.568	0	1433.755	0	22.4	4	7.0	4	-1E+10	1	-1E+10	1	-1E+10	1	-1E+10	1	-1E+10	1	-1E+10	1
4901784	173	C	03/30/2020	10:44	-132.714	43.353	0	1455.40	0	2.6510	0	37.0550	8	29.570	0	1438.780	0	22.7	4	7.1	4	-1E+10	1	-1E+10	1	-1E+10	1	-1E+10	1	-1E+10	1	-1E+10	1
4901784	173	C	03/30/2020	10:44	-132.714	43.353	0	1460.60	0	2.6460	0	37.0570	8	29.572	0	1443.902	0	23.0	4	7.2	4	-1E+10	1	-1E+10	1	-1E+10	1	-1E+10	1	-1E+10	1	-1E+10	1
4901784	173	C	03/30/2020	10:44	-132.714	43.353	0	1464.70	0	2.6390	0	37.0580	8	29.574	0	1447.941	0	23.2	4	7.2	4	-1E+10	1	-1E+10	1	-1E+10	1	-1E+10	1	-1E+10	1	-1E+10	1
4901784	173	C	03/30/2020	10:44	-132.714	43.353	0	1469.70	0	2.6270	0	37.0590	8	29.576	0	1452.867	0	23.6	4	7.4	4	-1E+10	1	-1E+10	1	-1E+10	1	-1E+10	1	-1E+10	1	-1E+10	1
4901784	173	C	03/30/2020	10:44	-132.714	43.353	0	1474.80	0	2.6170	0	37.0620	8	29.579	0	1457.891	0	23.9	4	7.5	4	-1E+10	1	-1E+10	1	-1E+10	1	-1E+10	1	-1E+10	1	-1E+10	1
4901784	173	C	03/30/2020	10:44	-132.714	43.353	0	1479.80	0	2.6090	0	37.0630	8	29.581	0	1462.816	0	24.3	4	7.6	4	-1E+10	1	-1E+10	1	-1E+10	1	-1E+10	1	-1E+10	1	-1E+10	1
4901784	173	C	03/30/2020	10:44	-132.714	43.353	0	1484.90	0	2.5980	0	37.0650	8	29.583	0	1467.840	0	24.6	4	7.7	4	-1E+10	1	-1E+10	1	-1E+10	1	-1E+10	1	-1E+10	1	-1E+10	1
4901784	173	C	03/30/2020	10:44	-132.714	43.353	0	1489.90	0	2.5900	0	37.0660	8	29.585	0	1472.765	0	24.9	4	7.8	4	-1E+10	1	-1E+10	1	-1E+10	1	-1E+10	1	-1E+10	1	-1E+10	1
4901784	173	C	03/30/2020	10:44	-132.714	43.353	0	1495.50	0	2.5840	0	37.0680	8	29.587	0	1478.281	0	25.1	4	7.8	4	-1E+10	1	-1E+10	1	-1E+10	1	-1E+10	1	-1E+10	1	-1E+10	1
4901784	173	C	03/30/2020	10:44	-132.714	43.353	0	1499.60	0	2.5800	0	37.0680	8	29.588	0	1482.320	0	25.5	4	7.9	4	-1E+10	1	-1E+10	1	-1E+10	1	-1E+10	1	-1E+10	1	-1E+10	1
4901784	173	C	03/30/2020	10:44	-132.714	43.353	0	1504.50	0	2.5590	0	37.0720	8	29.593	0	1487.146	0	25.9	4	8.1	4	-1E+10	1	-1E+10	1	-1E+10	1	-1E+10	1	-1E+10	1	-1E+10	1
4901784	173	C	03/30/2020	10:44	-132.714	43.353	0	1509.40	0	2.5500	0	37.0730	8	29.594	0	1491.972	0	26.2	4	8.2	4	-1E+10	1	-1E+10	1	-1E+10	1	-1E+10	1	-1E+10	1	-1E+10	1
4901784	173	C	03/30/2020	10:44	-132.714	43.353	0	1515.00	0	2.5430	0	37.0750	8	29.597	0	1497.488	0	26.5	4	8.3	4	-1E+10	1	-1E+10	1	-1E+10	1	-1E+10	1	-1E+10	1	-1E+10	1
4901784	173	C	03/30/2020	10:44	-132.714	43.353	0	1520.70	0	2.5330	0	37.0800	8	29.602	0	1503.102	0	26.8	4	8.4	4	-1E+10	1	-1E+10	1	-1E+10	1	-1E+10	1	-1E+10	1	-1E+10	1
4901784	173	C	03/30/2020	10:44	-132.714	43.353	0	1525.60	0	2.5260	0	37.0830	8	29.605	0	1507.927	0	27.2	4	8.5	4	-1E+10	1	-1E+10	1	-1E+10	1	-1E+10	1	-1E+10	1	-1E+10	1
4901784	173	C	03/30/2020	10:44	-132.714	43.353	0	1530.60	0	2.5120	0	37.0860	8	29.608	0	1512.852	0	27.6	4	8.6	4	-1E+10	1	-1E+10	1	-1E+10	1	-1E+10	1	-1E+10	1	-1E+10	1
4901784	173	C	03/30/2020	10:44	-132.714	43.353	0	1535.50	0	2.5050	0	37.0870	8	29.610	0	1517.677	0	27.8	4	8.7	4	-1E+10	1	-1E+10	1	-1E+10	1	-1E+10	1	-1E+10	1	-1E+10	1
4901784	173	C	03/30/2020	10:44	-132.714	43.353	0	1540.40	0	2.4970	0	37.0880	8	29.611	0	1522.503	0	28.0	4	8.7	4	-1E+10	1	-1E+10	1	-1E+10	1	-1E+10	1	-1E+10	1	-1E+10	1
4901784	173	C	03/30/2020	10:44	-132.714	43.353	0	1545.40	0	2.4940	0	37.0890	8	29.613	0	1527.427	0	28.2	4	8.8	4	-1E+10	1	-1E+10	1	-1E+10	1	-1E+10	1	-1E+10	1	-1E+10	1
4901784	173	C	03/30/2020	10:44	-132.714	43.353	0	1550.40	0	2.4890	0	37.0900	8	29.614	0	1532.350	0	28.4	4	8.9	4	-1E+10	1	-1E+10	1	-1E+10	1	-1E+10	1	-1E+10	1	-1E+10	1
4901784	173	C	03/30/2020	10:44	-132.714	43.353	0	1555.40	0	2.4810	0	37.0910	8	29.615	0	1537.274	0	28.8	4	9.0	4	-1E+10	1	-1E+10	1	-1E+10	1	-1E+10	1	-1E+10	1	-1E+10	1
4901784	173	C	03/30/2020	10:44	-132.714	43.353	0	1560.40	0	2.4710	0	37.0940	8	29.619	0	1542.198	0	29.2	4	9.1	4	-1E+10	1	-1E+10	1	-1E+10	1	-1E+10	1	-1E+10	1	-1E+10	1
4901784	173	C	03/30/2020	10:44	-132.714	43.353	0	1565.40	0	2.4650	0	37.0940	8	29.619	0	1547.121	0	29.5	4	9.2	4	-1E+10	1	-1E+10	1	-1E+10	1	-1E+10	1	-1E+10	1	-1E+10	1
4901784	173	C	03/30/2020	10:44	-132.714	43.353	0	1570.50	0	2.4540	0	37.0970	8	29.623	0	1552.143	0	30.0	4	9.3	4	-1E+10	1	-1E+10	1	-1E+10	1	-1E+10	1	-1E+10	1	-1E+10	1
4901784	173	C	03/30/2020	10:44	-132.714	43.353	0	1575.60	0	2.4430	0	37.0990	8	29.625	0	1557.164	0	30.2	4	9.4	4	-1E+10	1	-1E+10	1	-1E+10	1	-1E+10	1	-1E+10	1	-1E+10	1
4901784	173	C	03/30/2020	10:44	-132.714	43.353	0	1580.70	0	2.4340	0	37.1000	8	29.627	0	1562.186	0	30.4	4	9.5	4	-1E+10	1	-1E+10	1	-1E+10	1	-1E+10	1	-1E+10	1	-1E+10	1
4901784	173	C	03/30/2020	10:44	-132.714	43.353	0	1584.90	0	2.4300	0	37.1010	8	29.628	0	1566.321	0	30.6	4	9.5	4	-1E+10	1	-1E+10	1	-1E+10	1	-1E+10	1	-1E+10	1	-1E+10	1
4901784	173	C	03/30/2020	10:44	-132.714	43.353	0	1589.30	0	2.4260	0	37.1010	8	29.629	0	1570.653	0	30.8	4	9.6	4	-1E+10	1	-1E+10	1	-1E+10	1	-1E+10	1	-1E+10	1	-1E+10	1
4901784	173	C	03/30/2020	10:44	-132.714	43.353	0	1594.50	0	2.4200	0	37.1020	8	29.630	0	1575.773	0	31.1	4	9.7	4	-1E+10	1	-1E+10	1	-1E+10	1	-1E+10	1	-1E+10	1	-1E+10	1
4901784	173	C	03/30/2020	10:44	-132.714	43.353	0	1599.70	0	2.4080	0	37.1050	8	29.634	0	1580.892	0	31.4	4	9.7	4	-1E+10	1	-1E+10	1	-1E+10	1	-1E+10	1	-1E+10	1	-1E+10	1
4901784	173	C	03/30/2020	10:44	-132.714	43.353	0	1604.90	0	2.4060	0	37.1050	8	29.634	0	1586.012	0	31.6	4	9.8	4	-1E+10	1	-1E+10	1	-1E+10	1	-1E+10	1	-1E+10	1	-1E+10	1
4901784	173	C	03/30/2020	10:44	-132.714	43.353	0	1610.10	0	2.3960	0	37.1070	8	29.636	0	1591.131	0	31.9	4	9.9	4	-1E+10	1	-1E+10	1	-1E+10	1	-1E+10	1	-1E+10	1	-1E+10	1
4901784	173	C	03/30/2020	10:44	-132.714	43.353	0	1615.30	0	2.3900	0	37.1080	8	29.638	0	1596.250	0	32.1	4	10.0	4	-1E+10	1	-1E+10	1	-1E+10	1	-1E+10	1	-1E+10	1	-1E+10	1
4901784	173	C	03/30/2020	10:44	-132.714	43.353	0	1620.60	0	2.3860	0	37.1090	8	29.639	0	1601.468	0	32.4	4	10.0	4	-1E+10	1	-1E+10	1	-1E+10	1	-1E+10	1	-1E+10	1	-1E+10	1
4901784	173	C	03/30/2020	10:44	-132.714	43.353	0	1625.10	0	2.3820	0	37.1100	8	29.640	0	1605.897	0	32.5	4	10.1	4	-1E+10	1	-1E+10	1	-1E+10	1	-1E+10	1	-1E+10	1	-1E+10	1
4901784	173	C	03/30/2020	10:44	-132.714	43.353	0	1629.90	0	2.3780	0	37.1110	8	29.641	0	1610.623	0	32.8	4	10.2	4	-1E+10	1	-1E+10	1	-1E+10	1	-1E+10	1	-1E+10	1	-1E+10	1
4901784	173	C	03/30/2020	10:44	-132.714	43.353	0	1635.00	0	2.3700	0	37.1120	8	29.643	0	1615.643	0	33.2	4	10.3	4	-1E+10	1	-1E+10	1	-1E+10	1	-1E+10	1	-1E+10	1	-1E+10	1
4901784	173	C	03/30/2020	10:44	-132.714	43.353	0	1639.80	0	2.3620	0	37.1130	8	29.644	0	1620.368	0	33.5	4	10.4	4	-1E+10	1	-1E+10	1	-1E+10	1	-1E+10	1	-1E+10	1	-1E+10	1
4901784	173	C	03/30/2020	10:44	-132.714	43.353	0	1644.70	0	2.3540	0	37.1150	8	29.647	0	1625.191	0	33.9	4	10.5	4	-1E+10	1	-1E+10	1	-1E+10	1	-1E+10	1	-1E+10	1	-1E+10	1
4901784	173	C	03/30/2020	10:44	-132.714	43.353	0	1649.50	0	2.3440	0	37.1170	8	29.649	0	1629.915	0	34.3	4	10.6	4	-1E+10	1	-1E+10	1	-1E+10	1	-1E+10	1	-1E+10	1	-1E+10	1
4901784	173	C	03/30/2020	10:44	-132.714	43.353	0	1654.50	0	2.3370	0	37.1180	8	29.651	0	1634.837	0	34.6	4	10.7	4	-1E+10	1	-1E+10	1	-1E+10	1	-1E+10	1	-1E+10	1	-1E+10	1
4901784	173	C	03/30/2020	10:44	-132.714	43.353	0	1659.50	0	2.3290	0	37.1190	8	29.652	0	1639.758	0	35.0	4	10.8	4	-1E+10	1	-1E+10	1	-1E+10	1	-1E+10	1	-1E+10	1	-1E+10	1
4901784	173	C	03/30/2020	10:44	-132.714	43.353	0	1664.60	0	2.3220	0	37.1210	8	29.654	0	1644.778	0	35.3	4	10.9	4	-1E+10	1	-1E+10	1	-1E+10	1	-1E+10	1	-1E+10	1	-1E+10	1
4901784	173	C	03/30/2020	10:44	-132.714	43.353	0	1669.70	0	2.3140	0	37.1220	8	29.656	0	1649.797	0	35.6	4	11.0	4	-1E+10	1	-1E+10	1	-1E+10	1	-1E+10	1	-1E+10	1	-1E+10	1
4901784	173	C	03/30/2020	10:44	-132.714	43.353	0	1674.90	0	2.3090	0	37.1240	8	29.658	0	1654.915	0	35.8	4	11.1	4	-1E+10	1	-1E+10	1	-1E+10	1	-1E+10	1	-1E+10	1	-1E+10	1
4901784	173	C	03/30/2020	10:44	-132.714	43.353	0	1680.10	0	2.3050	0	37.1240	8	29.658	0	1660.032	0	36.1	4	11.2	4	-1E+10	1	-1E+10	1	-1E+10	1	-1E+10	1	-1E+10	1	-1E+10	1
4901784	173	C	03/30/2020	10:44	-132.714	43.353	0	1685.30	0	2.3000	0	37.1250	8	29.660	0	1665.150	0	36.3	4	11.2	4	-1E+10	1	-1E+10	1	-1E+10	1	-1E+10	1	-1E+10	1	-1E+10	1
4901784	173	C	03/30/2020	10:44	-132.714	43.353	0	1690.60	0	2.2970	0	37.1260	8	29.661	0	1670.366	0	36.5	4	11.3	4	-1E+10	1	-1E+10	1	-1E+10	1	-1E+10	1	-1E+10	1	-1E+10	1
4901784	173	C	03/30/2020	10:44	-132.714	43.353	0	1695.00	0	2.2940	0	37.1270	8	29.662	0	1674.696	0	36.7	4	11.4	4	-1E+10	1	-1E+10	1	-1E+10	1	-1E+10	1	-1E+10	1	-1E+10	1
4901784	173	C	03/30/2020	10:44	-132.714	43.353	0	1699.40	0	2.2870	0	37.1280	8	29.663	0	1679.025	0	37.1	4	11.5	4	-1E+10	1	-1E+10	1	-1E+10	1	-1E+10	1	-1E+10	1	-1E+10	1
4901784	173	C	03/30/2020	10:44	-132.714	43.353	0	1704.70	0	2.2770	0	37.1300	8	29.666	0	1684.241	0	37.5	4	11.6	4	-1E+10	1	-1E+10	1	-1E+10	1	-1E+10	1	-1E+10	1	-1E+10	1
4901784	173	C	03/30/2020	10:44	-132.714	43.353	0	1710.00	0	2.2720	0	37.1310	8	29.667	0	1689.456	0	37.8	4	11.7	4	-1E+10	1	-1E+10	1	-1E+10	1	-1E+10	1	-1E+10	1	-1E+10	1
4901784	173	C	03/30/2020	10:44	-132.714	43.353	0	1715.40	0	2.2630	0	37.1320	8	29.669	0	1694.770	0	38.3	4	11.9	4	-1E+10	1	-1E+10	1	-1E+10	1	-1E+10	1	-1E+10	1	-1E+10	1
4901784	173	C	03/30/2020	10:44	-132.714	43.353	0	1719.90	0	2.2560	0	37.1330	8	29.670	0	1699.198	0	38.7	4	12.0	4	-1E+10	1	-1E+10	1	-1E+10	1	-1E+10	1	-1E+10	1	-1E+10	1
4901784	173	C	03/30/2020	10:44	-132.714	43.353	0	1724.30	0	2.2460	0	37.1310	8	29.670	0	1703.527	0	39.2	4	12.1	4	-1E+10	1	-1E+10	1	-1E+10	1	-1E+10	1	-1E+10	1	-1E+10	1
4901784	173	C	03/30/2020	10:44	-132.714	43.353	0	1729.50	0	2.2320	0	37.1330	8	29.672	0	1708.643	0	39.7	4	12.3	4	-1E+10	1	-1E+10	1	-1E+10	1	-1E+10	1	-1E+10	1	-1E+10	1
4901784	173	C	03/30/2020	10:44	-132.714	43.353	0	1735.00	0	2.2220	0	37.1340	8	29.674	0	1714.055	0	40.3	4	12.5	4	-1E+10	1	-1E+10	1	-1E+10	1	-1E+10	1	-1E+10	1	-1E+10	1
4901784	173	C	03/30/2020	10:44	-132.714	43.353	0	1740.70	0	2.2090	0	37.1360	8	29.677	0	1719.663	0	40.9	4	12.6	4	-1E+10	1	-1E+10	1	-1E+10	1	-1E+10	1	-1E+10	1	-1E+10	1
4901784	173	C	03/30/2020	10:44	-132.714	43.353	0	1745.50	0	2.2030	0	37.1370	8	29.678	0	1724.385	0	41.3	4	12.8	4	-1E+10	1	-1E+10	1	-1E+10	1	-1E+10	1	-1E+10	1	-1E+10	1
4901784	173	C	03/30/2020	10:44	-132.714	43.353	0	1750.40	0	2.1920	0	37.1390	8	29.681	0	1729.206	0	41.7	4	12.9	4	-1E+10	1	-1E+10	1	-1E+10	1	-1E+10	1	-1E+10	1	-1E+10	1
4901784	173	C	03/30/2020	10:44	-132.714	43.353	0	1755.30	0	2.1870	0	37.1400	8	29.682	0	1734.027	0	42.0	4	13.0	4	-1E+10	1	-1E+10	1	-1E+10	1	-1E+10	1	-1E+10	1	-1E+10	1
4901784	173	C	03/30/2020	10:44	-132.714	43.353	0	1760.30	0	2.1830	0	37.1410	8	29.683	0	1738.946	0	42.4	4	13.1	4	-1E+10	1	-1E+10	1	-1E+10	1	-1E+10	1	-1E+10	1	-1E+10	1
4901784	173	C	03/30/2020	10:44	-132.714	43.353	0	1765.30	0	2.1710	0	37.1430	8	29.686	0	1743.865	0	42.9	4	13.2	4	-1E+10	1	-1E+10	1	-1E+10	1	-1E+10	1	-1E+10	1	-1E+10	1
4901784	173	C	03/30/2020	10:44	-132.714	43.353	0	1770.30	0	2.1650	0	37.1440	8	29.687	0	1748.783	0	43.3	4	13.4	4	-1E+10	1	-1E+10	1	-1E+10	1	-1E+10	1	-1E+10	1	-1E+10	1
4901784	173	C	03/30/2020	10:44	-132.714	43.353	0	1775.40	0	2.1560	0	37.1460	8	29.690	0	1753.800	0	43.7	4	13.5	4	-1E+10	1	-1E+10	1	-1E+10	1	-1E+10	1	-1E+10	1	-1E+10	1
4901784	173	C	03/30/2020	10:44	-132.714	43.353	0	1780.50	0	2.1490	0	37.1470	8	29.691	0	1758.817	0	44.0	4	13.6	4	-1E+10	1	-1E+10	1	-1E+10	1	-1E+10	1	-1E+10	1	-1E+10	1
4901784	173	C	03/30/2020	10:44	-132.714	43.353	0	1785.70	0	2.1450	0	37.1480	8	29.692	0	1763.932	0	44.4	4	13.7	4	-1E+10	1	-1E+10	1	-1E+10	1	-1E+10	1	-1E+10	1	-1E+10	1
4901784	173	C	03/30/2020	10:44	-132.714	43.353	0	1790.00	0	2.1370	0	37.1490	8	29.694	0	1768.162	0	44.8	4	13.8	4	-1E+10	1	-1E+10	1	-1E+10	1	-1E+10	1	-1E+10	1	-1E+10	1
4901784	173	C	03/30/2020	10:44	-132.714	43.353	0	1794.40	0	2.1290	0	37.1510	8	29.696	0	1772.490	0	45.2	4	13.9	4	-1E+10	1	-1E+10	1	-1E+10	1	-1E+10	1	-1E+10	1	-1E+10	1
4901784	173	C	03/30/2020	10:44	-132.714	43.353	0	1799.60	0	2.1220	0	37.1520	8	29.698	0	1777.605	0	45.5	4	14.0	4	-1E+10	1	-1E+10	1	-1E+10	1	-1E+10	1	-1E+10	1	-1E+10	1
4901784	173	C	03/30/2020	10:44	-132.714	43.353	0	1804.90	0	2.1170	0	37.1530	8	29.699	0	1782.818	0	45.9	4	14.2	4	-1E+10	1	-1E+10	1	-1E+10	1	-1E+10	1	-1E+10	1	-1E+10	1
4901784	173	C	03/30/2020	10:44	-132.714	43.353	0	1810.20	0	2.1090	0	37.1550	8	29.701	0	1788.030	0	46.4	4	14.3	4	-1E+10	1	-1E+10	1	-1E+10	1	-1E+10	1	-1E+10	1	-1E+10	1
4901784	173	C	03/30/2020	10:44	-132.714	43.353	0	1815.50	0	2.0980	0	37.1570	8	29.704	0	1793.243	0	46.9	4	14.5	4	-1E+10	1	-1E+10	1	-1E+10	1	-1E+10	1	-1E+10	1	-1E+10	1
4901784	173	C	03/30/2020	10:44	-132.714	43.353	0	1820.00	0	2.0960	0	37.1580	8	29.705	0	1797.669	0	47.0	4	14.5	4	-1E+10	1	-1E+10	1	-1E+10	1	-1E+10	1	-1E+10	1	-1E+10	1
4901784	173	C	03/30/2020	10:44	-132.714	43.353	0	1824.50	0	2.0910	0	37.1580	8	29.705	0	1802.095	0	47.4	4	14.6	4	-1E+10	1	-1E+10	1	-1E+10	1	-1E+10	1	-1E+10	1	-1E+10	1
4901784	173	C	03/30/2020	10:44	-132.714	43.353	0	1830.00	0	2.0840	0	37.1600	8	29.708	0	1807.504	0	47.7	4	14.7	4	-1E+10	1	-1E+10	1	-1E+10	1	-1E+10	1	-1E+10	1	-1E+10	1
4901784	173	C	03/30/2020	10:44	-132.714	43.353	0	1835.00	0	2.0800	0	37.1610	8	29.709	0	1812.421	0	48.0	4	14.8	4	-1E+10	1	-1E+10	1	-1E+10	1	-1E+10	1	-1E+10	1	-1E+10	1
4901784	173	C	03/30/2020	10:44	-132.714	43.353	0	1840.00	0	2.0750	0	37.1620	8	29.710	0	1817.338	0	48.4	4	14.9	4	-1E+10	1	-1E+10	1	-1E+10	1	-1E+10	1	-1E+10	1	-1E+10	1
4901784	173	C	03/30/2020	10:44	-132.714	43.353	0	1845.50	0	2.0690	0	37.1630	8	29.711	0	1822.747	0	48.7	4	15.0	4	-1E+10	1	-1E+10	1	-1E+10	1	-1E+10	1	-1E+10	1	-1E+10	1
4901784	173	C	03/30/2020	10:44	-132.714	43.353	0	1850.30	0	2.0620	0	37.1640	8	29.713	0	1827.467	0	49.0	4	15.1	4	-1E+10	1	-1E+10	1	-1E+10	1	-1E+10	1	-1E+10	1	-1E+10	1
4901784	173	C	03/30/2020	10:44	-132.714	43.353	0	1855.10	0	2.0570	0	37.1650	8	29.714	0	1832.187	0	49.3	4	15.2	4	-1E+10	1	-1E+10	1	-1E+10	1	-1E+10	1	-1E+10	1	-1E+10	1
4901784	173	C	03/30/2020	10:44	-132.714	43.353	0	1860.00	0	2.0530	0	37.1660	8	29.715	0	1837.006	0	49.5	4	15.3	4	-1E+10	1	-1E+10	1	-1E+10	1	-1E+10	1	-1E+10	1	-1E+10	1
4901784	173	C	03/30/2020	10:44	-132.714	43.353	0	1864.90	0	2.0500	0	37.1670	8	29.716	0	1841.824	0	49.7	4	15.3	4	-1E+10	1	-1E+10	1	-1E+10	1	-1E+10	1	-1E+10	1	-1E+10	1
4901784	173	C	03/30/2020	10:44	-132.714	43.353	0	1869.90	0	2.0470	0	37.1680	8	29.717	0	1846.740	0	50.0	4	15.4	4	-1E+10	1	-1E+10	1	-1E+10	1	-1E+10	1	-1E+10	1	-1E+10	1
4901784	173	C	03/30/2020	10:44	-132.714	43.353	0	1875.00	0	2.0430	0	37.1680	8	29.718	0	1851.755	0	50.3	4	15.5	4	-1E+10	1	-1E+10	1	-1E+10	1	-1E+10	1	-1E+10	1	-1E+10	1
4901784	173	C	03/30/2020	10:44	-132.714	43.353	0	1880.00	0	2.0390	0	37.1700	8	29.720	0	1856.671	0	50.6	4	15.6	4	-1E+10	1	-1E+10	1	-1E+10	1	-1E+10	1	-1E+10	1	-1E+10	1
4901784	173	C	03/30/2020	10:44	-132.714	43.353	0	1885.20	0	2.0350	0	37.1710	8	29.721	0	1861.784	0	50.8	4	15.6	4	-1E+10	1	-1E+10	1	-1E+10	1	-1E+10	1	-1E+10	1	-1E+10	1
4901784	173	C	03/30/2020	10:44	-132.714	43.353	0	1890.30	0	2.0320	0	37.1710	8	29.721	0	1866.798	0	51.0	4	15.7	4	-1E+10	1	-1E+10	1	-1E+10	1	-1E+10	1	-1E+10	1	-1E+10	1
4901784	173	C	03/30/2020	10:44	-132.714	43.353	0	1895.50	0	2.0280	0	37.1720	8	29.722	0	1871.911	0	51.2	4	15.8	4	-1E+10	1	-1E+10	1	-1E+10	1	-1E+10	1	-1E+10	1	-1E+10	1
4901784	173	C	03/30/2020	10:44	-132.714	43.353	0	1899.90	0	2.0270	0	37.1730	8	29.723	0	1876.236	0	51.4	4	15.8	4	-1E+10	1	-1E+10	1	-1E+10	1	-1E+10	1	-1E+10	1	-1E+10	1
4901784	173	C	03/30/2020	10:44	-132.714	43.353	0	1904.40	0	2.0230	0	37.1740	8	29.724	0	1880.660	0	51.7	4	15.9	4	-1E+10	1	-1E+10	1	-1E+10	1	-1E+10	1	-1E+10	1	-1E+10	1
4901784	173	C	03/30/2020	10:44	-132.714	43.353	0	1909.70	0	2.0190	0	37.1740	8	29.725	0	1885.871	0	52.0	4	16.0	4	-1E+10	1	-1E+10	1	-1E+10	1	-1E+10	1	-1E+10	1	-1E+10	1
4901784	173	C	03/30/2020	10:44	-132.714	43.353	0	1915.10	0	2.0150	0	37.1750	8	29.726	0	1891.180	0	52.3	4	16.1	4	-1E+10	1	-1E+10	1	-1E+10	1	-1E+10	1	-1E+10	1	-1E+10	1
4901784	173	C	03/30/2020	10:44	-132.714	43.353	0	1920.60	0	2.0110	0	37.1760	8	29.727	0	1896.586	0	52.6	4	16.2	4	-1E+10	1	-1E+10	1	-1E+10	1	-1E+10	1	-1E+10	1	-1E+10	1
4901784	173	C	03/30/2020	10:44	-132.714	43.353	0	1925.10	0	2.0070	0	37.1770	8	29.728	0	1901.010	0	52.9	4	16.3	4	-1E+10	1	-1E+10	1	-1E+10	1	-1E+10	1	-1E+10	1	-1E+10	1
4901784	173	C	03/30/2020	10:44	-132.714	43.353	0	1929.60	0	2.0020	0	37.1780	8	29.730	0	1905.434	0	53.1	4	16.3	4	-1E+10	1	-1E+10	1	-1E+10	1	-1E+10	1	-1E+10	1	-1E+10	1
4901784	173	C	03/30/2020	10:44	-132.714	43.353	0	1935.10	0	1.9980	0	37.1790	8	29.731	0	1910.840	0	53.4	4	16.4	4	-1E+10	1	-1E+10	1	-1E+10	1	-1E+10	1	-1E+10	1	-1E+10	1
4901784	173	C	03/30/2020	10:44	-132.714	43.353	0	1940.60	0	1.9960	0	37.1790	8	29.731	0	1916.246	0	53.7	4	16.5	4	-1E+10	1	-1E+10	1	-1E+10	1	-1E+10	1	-1E+10	1	-1E+10	1
4901784	173	C	03/30/2020	10:44	-132.714	43.353	0	1945.20	0	1.9910	0	37.1810	8	29.733	0	1920.768	0	54.0	4	16.6	4	-1E+10	1	-1E+10	1	-1E+10	1	-1E+10	1	-1E+10	1	-1E+10	1
4901784	173	C	03/30/2020	10:44	-132.714	43.353	0	1949.70	0	1.9880	0	37.1810	8	29.733	0	1925.191	0	54.2	4	16.7	4	-1E+10	1	-1E+10	1	-1E+10	1	-1E+10	1	-1E+10	1	-1E+10	1
4901784	173	C	03/30/2020	10:44	-132.714	43.353	0	1955.20	0	1.9850	0	37.1820	8	29.734	0	1930.597	0	54.4	4	16.7	4	-1E+10	1	-1E+10	1	-1E+10	1	-1E+10	1	-1E+10	1	-1E+10	1
4901784	173	C	03/30/2020	10:44	-132.714	43.353	0	1959.80	0	1.9830	0	37.1820	8	29.735	0	1935.118	0	54.6	4	16.8	4	-1E+10	1	-1E+10	1	-1E+10	1	-1E+10	1	-1E+10	1	-1E+10	1
4901784	173	C	03/30/2020	10:44	-132.714	43.353	0	1964.50	0	1.9800	0	37.1830	8	29.736	0	1939.738	0	54.9	4	16.9	4	-1E+10	1	-1E+10	1	-1E+10	1	-1E+10	1	-1E+10	1	-1E+10	1
4901784	173	C	03/30/2020	10:44	-132.714	43.353	0	1970.00	0	1.9750	0	37.1840	8	29.737	0	1945.143	0	55.3	4	17.0	4	-1E+10	1	-1E+10	1	-1E+10	1	-1E+10	1	-1E+10	1	-1E+10	1
4901784	173	C	03/30/2020	10:44	-132.714	43.353	0	1975.50	0	1.9720	0	37.1850	8	29.738	0	1950.549	0	55.5	4	17.1	4	-1E+10	1	-1E+10	1	-1E+10	1	-1E+10	1	-1E+10	1	-1E+10	1
4901784	173	C	03/30/2020	10:44	-132.714	43.353	0	1980.20	0	1.9680	0	37.1860	8	29.739	0	1955.168	0	55.8	4	17.1	4	-1E+10	1	-1E+10	1	-1E+10	1	-1E+10	1	-1E+10	1	-1E+10	1
4901784	173	C	03/30/2020	10:44	-132.714	43.353	0	1984.90	0	1.9640	0	37.1860	8	29.740	0	1959.787	0	56.0	4	17.2	4	-1E+10	1	-1E+10	1	-1E+10	1	-1E+10	1	-1E+10	1	-1E+10	1
4901784	173	C	03/30/2020	10:44	-132.714	43.353	0	1990.50	0	1.9620	0	37.1870	8	29.741	0	1965.290	0	56.2	4	17.3	4	-1E+10	1	-1E+10	1	-1E+10	1	-1E+10	1	-1E+10	1	-1E+10	1
4901784	173	C	03/30/2020	10:44	-132.714	43.353	0	1995.30	0	1.9600	0	37.1870	8	29.741	0	1970.007	0	56.4	4	17.3	4	-1E+10	1	-1E+10	1	-1E+10	1	-1E+10	1	-1E+10	1	-1E+10	1
4901784	173	C	03/30/2020	10:44	-132.714	43.353	0	1999.90	0	1.9570	0	37.1880	8	29.742	0	1974.527	0	56.6	4	17.4	4	-1E+10	1	-1E+10	1	-1E+10	1	-1E+10	1	-1E+10	1	-1E+10	1
4901784	173	C	03/30/2020	10:44	-132.714	43.353	0	2005.00	0	1.9530	0	37.1890	8	29.743	0	1979.539	0	56.8	4	17.5	4	-1E+10	1	-1E+10	1	-1E+10	1	-1E+10	1	-1E+10	1	-1E+10	1
4901784	173	C	03/30/2020	10:44	-132.714	43.353	0	2010.10	0	1.9500	0	37.1900	8	29.744	0	1984.551	0	57.1	4	17.5	4	-1E+10	1	-1E+10	1	-1E+10	1	-1E+10	1	-1E+10	1	-1E+10	1
4901784	173	C	03/30/2020	10:44	-132.714	43.353	0	2015.30	0	1.9480	0	37.1900	8	29.744	0	1989.660	0	57.0	4	17.5	4	-1E+10	1	-1E+10	1	-1E+10	1	-1E+10	1	-1E+10	1	-1E+10	1
4901784	173	C	03/30/2020	10:44	-132.714	43.353	0	2018.50	0	1.9480	0	37.1910	8	29.745	0	1992.805	0	55.6	4	17.1	4	-1E+10	1	-1E+10	1	-1E+10	1	-1E+10	1	-1E+10	1	-1E+10	1
4901784	173	C	03/30/2020	10:44	-132.714	43.353	0																										
4901784	174	C	04/09/2020	10:44	-132.565	43.380	0	1.90	0	10.8180	0	34.7580	8	26.620	0	1.885	0	261.8	4	96.8	4	-1E+10	1	-1E+10	1	-1E+10	1	-1E+10	1	-1E+10	1	-1E+10	1
4901784	174	C	04/09/2020	10:44	-132.565	43.380	0	3.30	0	10.8190	0	34.7580	8	26.620	0	3.274	0	261.8	4	96.9	4	-1E+10	1	-1E+10	1	-1E+10	1	-1E+10	1	-1E+10	1	-1E+10	1
4901784	174	C	04/09/2020	10:44	-132.565	43.380	0	4.70	0	10.8210	0	34.7590	8	26.621	0	4.662	0	261.7	4	96.8	4	-1E+10	1	-1E+10	1	-1E+10	1	-1E+10	1	-1E+10	1	-1E+10	1
4901784	174	C	04/09/2020	10:44	-132.565	43.380	0	6.20	0	10.8210	0	34.7590	8	26.621	0	6.150	0	261.6	4	96.8	4	-1E+10	1	-1E+10	1	-1E+10	1	-1E+10	1	-1E+10	1	-1E+10	1
4901784	174	C	04/09/2020	10:44	-132.565	43.380	0	7.80	0	10.8210	0	34.7590	8	26.621	0	7.738	0	261.8	4	96.8	4	-1E+10	1	-1E+10	1	-1E+10	1	-1E+10	1	-1E+10	1	-1E+10	1
4901784	174	C	04/09/2020	10:44	-132.565	43.380	0	9.40	0	10.8230	0	34.7590	8	26.620	0	9.325	0	261.5	4	96.8	4	-1E+10	1	-1E+10	1	-1E+10	1	-1E+10	1	-1E+10	1	-1E+10	1
4901784	174	C	04/09/2020	10:44	-132.565	43.380	0	11.10	0	10.8080	0	34.7620	8	26.625	0	11.011	0	261.4	4	96.7	4	-1E+10	1	-1E+10	1	-1E+10	1	-1E+10	1	-1E+10	1	-1E+10	1
4901784	174	C	04/09/2020	10:44	-132.565	43.380	0	12.80	0	10.7880	0	34.7640	8	26.631	0	12.698	0	261.4	4	96.6	4	-1E+10	1	-1E+10	1	-1E+10	1	-1E+10	1	-1E+10	1	-1E+10	1
4901784	174	C	04/09/2020	10:44	-132.565	43.380	0	14.60	0	10.7880	0	34.7650	8	26.631	0	14.483	0	261.5	4	96.7	4	-1E+10	1	-1E+10	1	-1E+10	1	-1E+10	1	-1E+10	1	-1E+10	1
4901784	174	C	04/09/2020	10:44	-132.565	43.380	0	16.30	0	10.7870	0	34.7660	8	26.632	0	16.169	0	261.6	4	96.7	4	-1E+10	1	-1E+10	1	-1E+10	1	-1E+10	1	-1E+10	1	-1E+10	1
4901784	174	C	04/09/2020	10:44	-132.565	43.380	0	18.00	0	10.7870	0	34.7660	8	26.632	0	17.856	0	261.4	4	96.6	4	-1E+10	1	-1E+10	1	-1E+10	1	-1E+10	1	-1E+10	1	-1E+10	1
4901784	174	C	04/09/2020	10:44	-132.565	43.380	0	19.80	0	10.7850	0	34.7660	8	26.633	0	19.641	0	261.4	4	96.6	4	-1E+10	1	-1E+10	1	-1E+10	1	-1E+10	1	-1E+10	1	-1E+10	1
4901784	174	C	04/09/2020	10:44	-132.565	43.380	0	21.50	0	10.7820	0	34.7660	8	26.633	0	21.328	0	261.2	4	96.6	4	-1E+10	1	-1E+10	1	-1E+10	1	-1E+10	1	-1E+10	1	-1E+10	1
4901784	174	C	04/09/2020	10:44	-132.565	43.380	0	23.30	0	10.7780	0	34.7660	8	26.634	0	23.113	0	261.3	4	96.6	4	-1E+10	1	-1E+10	1	-1E+10	1	-1E+10	1	-1E+10	1	-1E+10	1
4901784	174	C	04/09/2020	10:44	-132.565	43.380	0	25.00	0	10.7770	0	34.7670	8	26.635	0	24.799	0	261.3	4	96.6	4	-1E+10	1	-1E+10	1	-1E+10	1	-1E+10	1	-1E+10	1	-1E+10	1
4901784	174	C	04/09/2020	10:44	-132.565	43.380	0	26.70	0	10.7750	0	34.7670	8	26.636	0	26.486	0	261.1	4	96.5	4	-1E+10	1	-1E+10	1	-1E+10	1	-1E+10	1	-1E+10	1	-1E+10	1
4901784	174	C	04/09/2020	10:44	-132.565	43.380	0	28.50	0	10.7690	0	34.7680	8	26.637	0	28.271	0	261.0	4	96.5	4	-1E+10	1	-1E+10	1	-1E+10	1	-1E+10	1	-1E+10	1	-1E+10	1
4901784	174	C	04/09/2020	10:44	-132.565	43.380	0	30.20	0	10.7680	0	34.7680	8	26.638	0	29.957	0	261.0	4	96.5	4	-1E+10	1	-1E+10	1	-1E+10	1	-1E+10	1	-1E+10	1	-1E+10	1
4901784	174	C	04/09/2020	10:44	-132.565	43.380	0	32.00	0	10.7650	0	34.7680	8	26.638	0	31.743	0	261.0	4	96.5	4	-1E+10	1	-1E+10	1	-1E+10	1	-1E+10	1	-1E+10	1	-1E+10	1
4901784	174	C	04/09/2020	10:44	-132.565	43.380	0	33.70	0	10.7630	0	34.7690	8	26.639	0	33.429	0	260.9	4	96.4	4	-1E+10	1	-1E+10	1	-1E+10	1	-1E+10	1	-1E+10	1	-1E+10	1
4901784	174	C	04/09/2020	10:44	-132.565	43.380	0	35.50	0	10.7620	0	34.7690	8	26.640	0	35.214	0	260.9	4	96.4	4	-1E+10	1	-1E+10	1	-1E+10	1	-1E+10	1	-1E+10	1	-1E+10	1
4901784	174	C	04/09/2020	10:44	-132.565	43.380	0	37.20	0	10.7600	0	34.7690	8	26.640	0	36.900	0	260.7	4	96.3	4	-1E+10	1	-1E+10	1	-1E+10	1	-1E+10	1	-1E+10	1	-1E+10	1
4901784	174	C	04/09/2020	10:44	-132.565	43.380	0	38.90	0	10.7540	0	34.7690	8	26.641	0	38.586	0	260.7	4	96.3	4	-1E+10	1	-1E+10	1	-1E+10	1	-1E+10	1	-1E+10	1	-1E+10	1
4901784	174	C	04/09/2020	10:44	-132.565	43.380	0	40.70	0	10.7490	0	34.7690	8	26.642	0	40.372	0	260.5	4	96.2	4	-1E+10	1	-1E+10	1	-1E+10	1	-1E+10	1	-1E+10	1	-1E+10	1
4901784	174	C	04/09/2020	10:44	-132.565	43.380	0	42.40	0	10.7450	0	34.7690	8	26.643	0	42.058	0	260.7	4	96.3	4	-1E+10	1	-1E+10	1	-1E+10	1	-1E+10	1	-1E+10	1	-1E+10	1
4901784	174	C	04/09/2020	10:44	-132.565	43.380	0	44.10	0	10.7430	0	34.7690	8	26.643	0	43.744	0	260.5	4	96.2	4	-1E+10	1	-1E+10	1	-1E+10	1	-1E+10	1	-1E+10	1	-1E+10	1
4901784	174	C	04/09/2020	10:44	-132.565	43.380	0	45.90	0	10.7400	0	34.7690	8	26.644	0	45.529	0	260.4	4	96.2	4	-1E+10	1	-1E+10	1	-1E+10	1	-1E+10	1	-1E+10	1	-1E+10	1
4901784	174	C	04/09/2020	10:44	-132.565	43.380	0	47.60	0	10.7330	0	34.7690	8	26.645	0	47.215	0	260.4	4	96.2	4	-1E+10	1	-1E+10	1	-1E+10	1	-1E+10	1	-1E+10	1	-1E+10	1
4901784	174	C	04/09/2020	10:44	-132.565	43.380	0	49.40	0	10.7310	0	34.7690	8	26.645	0	49.000	0	260.4	4	96.2	4	-1E+10	1	-1E+10	1	-1E+10	1	-1E+10	1	-1E+10	1	-1E+10	1
4901784	174	C	04/09/2020	10:44	-132.565	43.380	0	51.10	0	10.7300	0	34.7690	8	26.646	0	50.687	0	260.3	4	96.1	4	-1E+10	1	-1E+10	1	-1E+10	1	-1E+10	1	-1E+10	1	-1E+10	1
4901784	174	C	04/09/2020	10:44	-132.565	43.380	0	52.80	0	10.7280	0	34.7680	8	26.645	0	52.373	0	260.1	4	96.1	4	-1E+10	1	-1E+10	1	-1E+10	1	-1E+10	1	-1E+10	1	-1E+10	1
4901784	174	C	04/09/2020	10:44	-132.565	43.380	0	54.50	0	10.7250	0	34.7660	8	26.644	0	54.059	0	260.0	4	96.0	4	-1E+10	1	-1E+10	1	-1E+10	1	-1E+10	1	-1E+10	1	-1E+10	1
4901784	174	C	04/09/2020	10:44	-132.565	43.380	0	56.20	0	10.7120	0	34.7630	8	26.644	0	55.745	0	260.0	4	96.0	4	-1E+10	1	-1E+10	1	-1E+10	1	-1E+10	1	-1E+10	1	-1E+10	1
4901784	174	C	04/09/2020	10:44	-132.565	43.380	0	57.90	0	10.6570	0	34.7560	8	26.649	0	57.431	0	260.2	4	95.9	4	-1E+10	1	-1E+10	1	-1E+10	1	-1E+10	1	-1E+10	1	-1E+10	1
4901784	174	C	04/09/2020	10:44	-132.565	43.380	0	59.60	0	10.5970	0	34.7490	8	26.654	0	59.117	0	260.6	4	96.0	4	-1E+10	1	-1E+10	1	-1E+10	1	-1E+10	1	-1E+10	1	-1E+10	1
4901784	174	C	04/09/2020	10:44	-132.565	43.380	0	61.30	0	10.5320	0	34.7430	8	26.661	0	60.802	0	260.8	4	95.9	4	-1E+10	1	-1E+10	1	-1E+10	1	-1E+10	1	-1E+10	1	-1E+10	1
4901784	174	C	04/09/2020	10:44	-132.565	43.380	0	63.00	0	10.5110	0	34.7410	8	26.663	0	62.488	0	261.0	4	95.9	4	-1E+10	1	-1E+10	1	-1E+10	1	-1E+10	1	-1E+10	1	-1E+10	1
4901784	174	C	04/09/2020	10:44	-132.565	43.380	0	64.70	0	10.4960	0	34.7390	8	26.664	0	64.174	0	261.0	4	95.9	4	-1E+10	1	-1E+10	1	-1E+10	1	-1E+10	1	-1E+10	1	-1E+10	1
4901784	174	C	04/09/2020	10:44	-132.565	43.380	0	66.40	0	10.4550	0	34.7370	8	26.670	0	65.860	0	261.1	4	95.8	4	-1E+10	1	-1E+10	1	-1E+10	1	-1E+10	1	-1E+10	1	-1E+10	1
4901784	174	C	04/09/2020	10:44	-132.565	43.380	0	68.10	0	10.4380	0	34.7340	8	26.670	0	67.546	0	261.1	4	95.8	4	-1E+10	1	-1E+10	1	-1E+10	1	-1E+10	1	-1E+10	1	-1E+10	1
4901784	174	C	04/09/2020	10:44	-132.565	43.380	0	69.80	0	10.4230	0	34.7330	8	26.672	0	69.232	0	261.2	4	95.8	4	-1E+10	1	-1E+10	1	-1E+10	1	-1E+10	1	-1E+10	1	-1E+10	1
4901784	174	C	04/09/2020	10:44	-132.565	43.380	0	71.60	0	10.4200	0	34.7340	8	26.674	0	71.017	0	261.2	4	95.8	4	-1E+10	1	-1E+10	1	-1E+10	1	-1E+10	1	-1E+10	1	-1E+10	1
4901784	174	C	04/09/2020	10:44	-132.565	43.380	0	73.40	0	10.4160	0	34.7340	8	26.674	0	72.802	0	261.3	4	95.8	4	-1E+10	1	-1E+10	1	-1E+10	1	-1E+10	1	-1E+10	1	-1E+10	1
4901784	174	C	04/09/2020	10:44	-132.565	43.380	0	75.10	0	10.4110	0	34.7340	8	26.675	0	74.488	0	261.5	4	95.9	4	-1E+10	1	-1E+10	1	-1E+10	1	-1E+10	1	-1E+10	1	-1E+10	1
4901784	174	C	04/09/2020	10:44	-132.565	43.380	0	76.80	0	10.4060	0	34.7360	8	26.678	0	76.174	0	261.6	4	95.9	4	-1E+10	1	-1E+10	1	-1E+10	1	-1E+10	1	-1E+10	1	-1E+10	1
4901784	174	C	04/09/2020	10:44	-132.565	43.380	0	78.60	0	10.4050	0	34.7400	8	26.681	0	77.959	0	262.0	4	96.1	4	-1E+10	1	-1E+10	1	-1E+10	1	-1E+10	1	-1E+10	1	-1E+10	1
4901784	174	C	04/09/2020	10:44	-132.565	43.380	0	80.30	0	10.3740	0	34.7380	8	26.685	0	79.645	0	262.2	4	96.1	4	-1E+10	1	-1E+10	1	-1E+10	1	-1E+10	1	-1E+10	1	-1E+10	1
4901784	174	C	04/09/2020	10:44	-132.565	43.380	0	82.00	0	10.3480	0	34.7370	8	26.689	0	81.330	0	262.1	4	96.0	4	-1E+10	1	-1E+10	1	-1E+10	1	-1E+10	1	-1E+10	1	-1E+10	1
4901784	174	C	04/09/2020	10:44	-132.565	43.380	0	83.70	0	10.3470	0	34.7370	8	26.689	0	83.016	0	262.0	4	95.9	4	-1E+10	1	-1E+10	1	-1E+10	1	-1E+10	1	-1E+10	1	-1E+10	1
4901784	174	C	04/09/2020	10:44	-132.565	43.380	0	85.40	0	10.3480	0	34.7380	8	26.689	0	84.702	0	261.7	4	95.8	4	-1E+10	1	-1E+10	1	-1E+10	1	-1E+10	1	-1E+10	1	-1E+10	1
4901784	174	C	04/09/2020	10:44	-132.565	43.380	0	87.10	0	10.3370	0	34.7380	8	26.691	0	86.388	0	261.6	4	95.8	4	-1E+10	1	-1E+10	1	-1E+10	1	-1E+10	1	-1E+10	1	-1E+10	1
4901784	174	C	04/09/2020	10:44	-132.565	43.380	0	88.80	0	10.3130	0	34.7380	8	26.696	0	88.073	0	261.4	4	95.7	4	-1E+10	1	-1E+10	1	-1E+10	1	-1E+10	1	-1E+10	1	-1E+10	1
4901784	174	C	04/09/2020	10:44	-132.565	43.380	0	90.40	0	10.2980	0	34.7390	8	26.699	0	89.660	0	261.4	4	95.6	4	-1E+10	1	-1E+10	1	-1E+10	1	-1E+10	1	-1E+10	1	-1E+10	1
4901784	174	C	04/09/2020	10:44	-132.565	43.380	0	92.10	0	10.2900	0	34.7390	8	26.700	0	91.346	0	261.3	4	95.6	4	-1E+10	1	-1E+10	1	-1E+10	1	-1E+10	1	-1E+10	1	-1E+10	1
4901784	174	C	04/09/2020	10:44	-132.565	43.380	0	93.80	0	10.2750	0	34.7400	8	26.704	0	93.031	0	261.3	4	95.5	4	-1E+10	1	-1E+10	1	-1E+10	1	-1E+10	1	-1E+10	1	-1E+10	1
4901784	174	C	04/09/2020	10:44	-132.565	43.380	0	95.40	0	10.2530	0	34.7420	8	26.709	0	94.618	0	261.4	4	95.5	4	-1E+10	1	-1E+10	1	-1E+10	1	-1E+10	1	-1E+10	1	-1E+10	1
4901784	174	C	04/09/2020	10:44	-132.565	43.380	0	97.10	0	10.2480	0	34.7420	8	26.710	0	96.304	0	261.4	4	95.5	4	-1E+10	1	-1E+10	1	-1E+10	1	-1E+10	1	-1E+10	1	-1E+10	1
4901784	174	C	04/09/2020	10:44	-132.565	43.380	0	98.70	0	10.2320	0	34.7410	8	26.712	0	97.890	0	261.6	4	95.5	4	-1E+10	1	-1E+10	1	-1E+10	1	-1E+10	1	-1E+10	1	-1E+10	1
4901784	174	C	04/09/2020	10:44	-132.565	43.380	0	100.40	0	10.2070	0	34.7390	8	26.715	0	99.576	0	261.5	4	95.5	4	-1E+10	1	-1E+10	1	-1E+10	1	-1E+10	1	-1E+10	1	-1E+10	1
4901784	174	C	04/09/2020	10:44	-132.565	43.380	0	102.90	0	10.2100	0	34.7390	8	26.715	0	102.055	0	261.3	4	95.4	4	-1E+10	1	-1E+10	1	-1E+10	1	-1E+10	1	-1E+10	1	-1E+10	1
4901784	174	C	04/09/2020	10:44	-132.565	43.380	0	105.30	0	10.1990	0	34.7400	8	26.717	0	104.434	0	260.7	4	95.2	4	-1E+10	1	-1E+10	1	-1E+10	1	-1E+10	1	-1E+10	1	-1E+10	1
4901784	174	C	04/09/2020	10:44	-132.565	43.380	0	107.80	0	10.1900	0	34.7420	8	26.720	0	106.913	0	259.7	4	94.8	4	-1E+10	1	-1E+10	1	-1E+10	1	-1E+10	1	-1E+10	1	-1E+10	1
4901784	174	C	04/09/2020	10:44	-132.565	43.380	0	110.30	0	10.1820	0	34.7420	8	26.722	0	109.392	0	258.7	4	94.4	4	-1E+10	1	-1E+10	1	-1E+10	1	-1E+10	1	-1E+10	1	-1E+10	1
4901784	174	C	04/09/2020	10:44	-132.565	43.380	0	112.80	0	10.1560	0	34.7460	8	26.730	0	111.871	0	256.8	4	93.7	4	-1E+10	1	-1E+10	1	-1E+10	1	-1E+10	1	-1E+10	1	-1E+10	1
4901784	174	C	04/09/2020	10:44	-132.565	43.380	0	115.40	0	10.1240	0	34.7640	8	26.749	0	114.448	0	254.7	4	92.9	4	-1E+10	1	-1E+10	1	-1E+10	1	-1E+10	1	-1E+10	1	-1E+10	1
4901784	174	C	04/09/2020	10:44	-132.565	43.380	0	117.90	0	10.1010	0	34.7800	8	26.766	0	116.927	0	253.2	4	92.3	4	-1E+10	1	-1E+10	1	-1E+10	1	-1E+10	1	-1E+10	1	-1E+10	1
4901784	174	C	04/09/2020	10:44	-132.565	43.380	0	120.40	0	10.0690	0	34.7920	8	26.781	0	119.406	0	252.3	4	91.9	4	-1E+10	1	-1E+10	1	-1E+10	1	-1E+10	1	-1E+10	1	-1E+10	1
4901784	174	C	04/09/2020	10:44	-132.565	43.380	0	122.10	0	10.0630	0	34.7940	8	26.783	0	121.091	0	251.4	4	91.5	4	-1E+10	1	-1E+10	1	-1E+10	1	-1E+10	1	-1E+10	1	-1E+10	1
4901784	174	C	04/09/2020	10:44	-132.565	43.380	0	124.60	0	10.0430	0	34.7980	8	26.790	0	123.570	0	249.4	4	90.8	4	-1E+10	1	-1E+10	1	-1E+10	1	-1E+10	1	-1E+10	1	-1E+10	1
4901784	174	C	04/09/2020	10:44	-132.565	43.380	0	127.70	0	10.0090	0	34.8210	8	26.814	0	126.643	0	245.8	4	89.4	4	-1E+10	1	-1E+10	1	-1E+10	1	-1E+10	1	-1E+10	1	-1E+10	1
4901784	174	C	04/09/2020	10:44	-132.565	43.380	0	130.20	0	9.9880	0	34.8160	8	26.813	0	129.122	0	242.1	4	88.0	4	-1E+10	1	-1E+10	1	-1E+10	1	-1E+10	1	-1E+10	1	-1E+10	1
4901784	174	C	04/09/2020	10:44	-132.565	43.380	0	132.90	0	9.9250	0	34.8320	8	26.837	0	131.798	0	235.8	4	85.6	4	-1E+10	1	-1E+10	1	-1E+10	1	-1E+10	1	-1E+10	1	-1E+10	1
4901784	174	C	04/09/2020	10:44	-132.565	43.380	0	135.00	0	9.6310	0	34.9200	8	26.955	0	133.880	0	231.2	4	83.5	4	-1E+10	1	-1E+10	1	-1E+10	1	-1E+10	1	-1E+10	1	-1E+10	1
4901784	174	C	04/09/2020	10:44	-132.565	43.380	0	137.20	0	9.5320	0	34.9440	8	26.990	0	136.061	0	228.8	4	82.4	4	-1E+10	1	-1E+10	1	-1E+10	1	-1E+10	1	-1E+10	1	-1E+10	1
4901784	174	C	04/09/2020	10:44	-132.565	43.380	0	140.30	0	9.3270	0	35.0030	8	27.070	0	139.135	0	225.4	4	80.9	4	-1E+10	1	-1E+10	1	-1E+10	1	-1E+10	1	-1E+10	1	-1E+10	1
4901784	174	C	04/09/2020	10:44	-132.565	43.380	0	142.70	0	9.1840	0	35.0440	8	27.126	0	141.514	0	223.6	4	80.0	4	-1E+10	1	-1E+10	1	-1E+10	1	-1E+10	1	-1E+10	1	-1E+10	1
4901784	174	C	04/09/2020	10:44	-132.565	43.380	0	145.30	0	8.9920	0	35.1200	8	27.216	0	144.091	0	222.4	4	79.3	4	-1E+10	1	-1E+10	1	-1E+10	1	-1E+10	1	-1E+10	1	-1E+10	1
4901784	174	C	04/09/2020	10:44	-132.565	43.380	0	147.90	0	8.8980	0	35.1410	8	27.248	0	146.669	0	221.3	4	78.8	4	-1E+10	1	-1E+10	1	-1E+10	1	-1E+10	1	-1E+10	1	-1E+10	1
4901784	174	C	04/09/2020	10:44	-132.565	43.380	0	150.40	0	8.7060	0	35.1970	8	27.322	0	149.147	0	220.2	4	78.1	4	-1E+10	1	-1E+10	1	-1E+10	1	-1E+10	1	-1E+10	1	-1E+10	1
4901784	174	C	04/09/2020	10:44	-132.565	43.380	0	152.90	0	8.6230	0	35.2500	8	27.377	0	151.625	0	218.8	4	77.4	4	-1E+10	1	-1E+10	1	-1E+10	1	-1E+10	1	-1E+10	1	-1E+10	1
4901784	174	C	04/09/2020	10:44	-132.565	43.380	0	154.50	0	8.5970	0	35.2990	8	27.420	0	153.211	0	217.9	4	77.1	4	-1E+10	1	-1E+10	1	-1E+10	1	-1E+10	1	-1E+10	1	-1E+10	1
4901784	174	C	04/09/2020	10:44	-132.565	43.380	0	157.30	0	8.5690	0	35.3170	8	27.438	0	155.987	0	216.7	4	76.7	4	-1E+10	1	-1E+10	1	-1E+10	1	-1E+10	1	-1E+10	1	-1E+10	1
4901784	174	C	04/09/2020	10:44	-132.565	43.380	0	159.90	0	8.4530	0	35.3780	8	27.504	0	158.564	0	215.5	4	76.1	4	-1E+10	1	-1E+10	1	-1E+10	1	-1E+10	1	-1E+10	1	-1E+10	1
4901784	174	C	04/09/2020	10:44	-132.565	43.380	0	162.30	0	8.3960	0	35.3900	8	27.523	0	160.943	0	215.1	4	75.8	4	-1E+10	1	-1E+10	1	-1E+10	1	-1E+10	1	-1E+10	1	-1E+10	1
4901784	174	C	04/09/2020	10:44	-132.565	43.380	0	164.90	0	8.2940	0	35.4240	8	27.565	0	163.521	0	214.0	4	75.3	4	-1E+10	1	-1E+10	1	-1E+10	1	-1E+10	1	-1E+10	1	-1E+10	1
4901784	174	C	04/09/2020	10:44	-132.565	43.380	0	167.90	0	8.2220	0	35.4500	8	27.597	0	166.494	0	212.2	4	74.6	4	-1E+10	1	-1E+10	1	-1E+10	1	-1E+10	1	-1E+10	1	-1E+10	1
4901784	174	C	04/09/2020	10:44	-132.565	43.380	0	170.10	0	8.1290	0	35.5040	8	27.653	0	168.675	0	210.4	4	73.8	4	-1E+10	1	-1E+10	1	-1E+10	1	-1E+10	1	-1E+10	1	-1E+10	1
4901784	174	C	04/09/2020	10:44	-132.565	43.380	0	172.50	0	8.0160	0	35.6300	8	27.769	0	171.054	0	209.0	4	73.2	4	-1E+10	1	-1E+10	1	-1E+10	1	-1E+10	1	-1E+10	1	-1E+10	1
4901784	174	C	04/09/2020	10:44	-132.565	43.380	0	175.00	0	7.9710	0	35.6910	8	27.824	0	173.532	0	208.5	4	73.0	4	-1E+10	1	-1E+10	1	-1E+10	1	-1E+10	1	-1E+10	1	-1E+10	1
4901784	174	C	04/09/2020	10:44	-132.565	43.380	0	177.50	0	7.9660	0	35.6980	8	27.831	0	176.010	0	207.6	4	72.7	4	-1E+10	1	-1E+10	1	-1E+10	1	-1E+10	1	-1E+10	1	-1E+10	1
4901784	174	C	04/09/2020	10:44	-132.565	43.380	0	179.90	0	7.9560	0	35.7060	8	27.838	0	178.389	0	206.4	4	72.2	4	-1E+10	1	-1E+10	1	-1E+10	1	-1E+10	1	-1E+10	1	-1E+10	1
4901784	174	C	04/09/2020	10:44	-132.565	43.380	0	182.50	0	7.9360	0	35.7740	8	27.895	0	180.966	0	204.8	4	71.7	4	-1E+10	1	-1E+10	1	-1E+10	1	-1E+10	1	-1E+10	1	-1E+10	1
4901784	174	C	04/09/2020	10:44	-132.565	43.380	0	185.00	0	7.9240	0	35.8100	8	27.925	0	183.444	0	203.6	4	71.3	4	-1E+10	1	-1E+10	1	-1E+10	1	-1E+10	1	-1E+10	1	-1E+10	1
4901784	174	C	04/09/2020	10:44	-132.565	43.380	0	187.60	0	7.9040	0	35.8380	8	27.950	0	186.020	0	202.2	4	70.7	4	-1E+10	1	-1E+10	1	-1E+10	1	-1E+10	1	-1E+10	1	-1E+10	1
4901784	174	C	04/09/2020	10:44	-132.565	43.380	0	190.20	0	7.8940	0	35.9090	8	28.007	0	188.597	0	200.6	4	70.2	4	-1E+10	1	-1E+10	1	-1E+10	1	-1E+10	1	-1E+10	1	-1E+10	1
4901784	174	C	04/09/2020	10:44	-132.565	43.380	0	192.50	0	7.8890	0	35.9400	8	28.033	0	190.877	0	199.6	4	69.9	4	-1E+10	1	-1E+10	1	-1E+10	1	-1E+10	1	-1E+10	1	-1E+10	1
4901784	174	C	04/09/2020	10:44	-132.565	43.380	0	195.00	0	7.8340	0	35.9660	8	28.061	0	193.355	0	198.4	4	69.4	4	-1E+10	1	-1E+10	1	-1E+10	1	-1E+10	1	-1E+10	1	-1E+10	1
4901784	174	C	04/09/2020	10:44	-132.565	43.380	0	197.90	0	7.8250	0	36.0020	8	28.091	0	196.229	0	196.9	4	68.9	4	-1E+10	1	-1E+10	1	-1E+10	1	-1E+10	1	-1E+10	1	-1E+10	1
4901784	174	C	04/09/2020	10:44	-132.565	43.380	0	200.20	0	7.8430	0	36.0310	8	28.111	0	198.508	0	195.4	4	68.4	4	-1E+10	1	-1E+10	1	-1E+10	1	-1E+10	1	-1E+10	1	-1E+10	1
4901784	174	C	04/09/2020	10:44	-132.565	43.380	0	202.50	0	7.8390	0	36.0600	8	28.135	0	200.788	0	193.8	4	67.8	4	-1E+10	1	-1E+10	1	-1E+10	1	-1E+10	1	-1E+10	1	-1E+10	1
4901784	174	C	04/09/2020	10:44	-132.565	43.380	0	204.80	0	7.8370	0	36.0740	8	28.146	0	203.067	0	192.2	4	67.3	4	-1E+10	1	-1E+10	1	-1E+10	1	-1E+10	1	-1E+10	1	-1E+10	1
4901784	174	C	04/09/2020	10:44	-132.565	43.380	0	207.20	0	7.8340	0	36.1000	8	28.167	0	205.446	0	189.9	4	66.5	4	-1E+10	1	-1E+10	1	-1E+10	1	-1E+10	1	-1E+10	1	-1E+10	1
4901784	174	C	04/09/2020	10:44	-132.565	43.380	0	210.30	0	7.8510	0	36.1460	8	28.201	0	208.518	0	186.8	4	65.5	4	-1E+10	1	-1E+10	1	-1E+10	1	-1E+10	1	-1E+10	1	-1E+10	1
4901784	174	C	04/09/2020	10:44	-132.565	43.380	0	212.70	0	7.8660	0	36.1710	8	28.218	0	210.896	0	184.7	4	64.7	4	-1E+10	1	-1E+10	1	-1E+10	1	-1E+10	1	-1E+10	1	-1E+10	1
4901784	174	C	04/09/2020	10:44	-132.565	43.380	0	215.10	0	7.8730	0	36.1900	8	28.232	0	213.275	0	182.2	4	63.9	4	-1E+10	1	-1E+10	1	-1E+10	1	-1E+10	1	-1E+10	1	-1E+10	1
4901784	174	C	04/09/2020	10:44	-132.565	43.380	0	217.60	0	7.8540	0	36.2060	8	28.247	0	215.752	0	179.6	4	62.9	4	-1E+10	1	-1E+10	1	-1E+10	1	-1E+10	1	-1E+10	1	-1E+10	1
4901784	174	C	04/09/2020	10:44	-132.565	43.380	0	220.20	0	7.8510	0	36.2250	8	28.263	0	218.329	0	176.7	4	61.9	4	-1E+10	1	-1E+10	1	-1E+10	1	-1E+10	1	-1E+10	1	-1E+10	1
4901784	174	C	04/09/2020	10:44	-132.565	43.380	0	222.70	0	7.8520	0	36.2430	8	28.277	0	220.806	0	174.0	4	61.0	4	-1E+10	1	-1E+10	1	-1E+10	1	-1E+10	1	-1E+10	1	-1E+10	1
4901784	174	C	04/09/2020	10:44	-132.565	43.380	0	225.20	0	7.8450	0	36.2690	8	28.299	0	223.284	0	171.3	4	60.0	4	-1E+10	1	-1E+10	1	-1E+10	1	-1E+10	1	-1E+10	1	-1E+10	1
4901784	174	C	04/09/2020	10:44	-132.565	43.380	0	227.70	0	7.8350	0	36.2840	8	28.312	0	225.761	0	169.0	4	59.3	4	-1E+10	1	-1E+10	1	-1E+10	1	-1E+10	1	-1E+10	1	-1E+10	1
4901784	174	C	04/09/2020	10:44	-132.565	43.380	0	230.30	0	7.8090	0	36.2970	8	28.326	0	228.337	0	167.0	4	58.5	4	-1E+10	1	-1E+10	1	-1E+10	1	-1E+10	1	-1E+10	1	-1E+10	1
4901784	174	C	04/09/2020	10:44	-132.565	43.380	0	232.80	0	7.7710	0	36.3080	8	28.340	0	230.815	0	165.1	4	57.8	4	-1E+10	1	-1E+10	1	-1E+10	1	-1E+10	1	-1E+10	1	-1E+10	1
4901784	174	C	04/09/2020	10:44	-132.565	43.380	0	234.50	0	7.7430	0	36.3150	8	28.350	0	232.499	0	164.2	4	57.5	4	-1E+10	1	-1E+10	1	-1E+10	1	-1E+10	1	-1E+10	1	-1E+10	1
4901784	174	C	04/09/2020	10:44	-132.565	43.380	0	237.20	0	7.7090	0	36.3180	8	28.358	0	235.175	0	162.8	4	56.9	4	-1E+10	1	-1E+10	1	-1E+10	1	-1E+10	1	-1E+10	1	-1E+10	1
4901784	174	C	04/09/2020	10:44	-132.565	43.380	0	239.70	0	7.6730	0	36.3200	8	28.365	0	237.652	0	161.4	4	56.4	4	-1E+10	1	-1E+10	1	-1E+10	1	-1E+10	1	-1E+10	1	-1E+10	1
4901784	174	C	04/09/2020	10:44	-132.565	43.380	0	242.40	0	7.5970	0	36.3260	8	28.381	0	240.327	0	160.1	4	55.8	4	-1E+10	1	-1E+10	1	-1E+10	1	-1E+10	1	-1E+10	1	-1E+10	1
4901784	174	C	04/09/2020	10:44	-132.565	43.380	0	245.10	0	7.5460	0	36.3290	8	28.391	0	243.003	0	158.9	4	55.4	4	-1E+10	1	-1E+10	1	-1E+10	1	-1E+10	1	-1E+10	1	-1E+10	1
4901784	174	C	04/09/2020	10:44	-132.565	43.380	0	247.70	0	7.5000	0	36.3290	8	28.398	0	245.579	0	158.1	4	55.0	4	-1E+10	1	-1E+10	1	-1E+10	1	-1E+10	1	-1E+10	1	-1E+10	1
4901784	174	C	04/09/2020	10:44	-132.565	43.380	0	250.40	0	7.4590	0	36.3300	8	28.404	0	248.254	0	156.8	4	54.5	4	-1E+10	1	-1E+10	1	-1E+10	1	-1E+10	1	-1E+10	1	-1E+10	1
4901784	174	C	04/09/2020	10:44	-132.565	43.380	0	252.10	0	7.4070	0	36.3300	8	28.412	0	249.938	0	156.4	4	54.3	4	-1E+10	1	-1E+10	1	-1E+10	1	-1E+10	1	-1E+10	1	-1E+10	1
4901784	174	C	04/09/2020	10:44	-132.565	43.380	0	254.70	0	7.3680	0	36.3290	8	28.417	0	252.515	0	155.2	4	53.8	4	-1E+10	1	-1E+10	1	-1E+10	1	-1E+10	1	-1E+10	1	-1E+10	1
4901784	174	C	04/09/2020	10:44	-132.565	43.380	0	257.40	0	7.3140	0	36.3300	8	28.426	0	255.190	0	154.0	4	53.4	4	-1E+10	1	-1E+10	1	-1E+10	1	-1E+10	1	-1E+10	1	-1E+10	1
4901784	174	C	04/09/2020	10:44	-132.565	43.380	0	260.00	0	7.2560	0	36.3290	8	28.433	0	257.766	0	152.9	4	52.9	4	-1E+10	1	-1E+10	1	-1E+10	1	-1E+10	1	-1E+10	1	-1E+10	1
4901784	174	C	04/09/2020	10:44	-132.565	43.380	0	262.60	0	7.1710	0	36.3320	8	28.448	0	260.342	0	151.8	4	52.4	4	-1E+10	1	-1E+10	1	-1E+10	1	-1E+10	1	-1E+10	1	-1E+10	1
4901784	174	C	04/09/2020	10:44	-132.565	43.380	0	265.30	0	7.1490	0	36.3310	8	28.451	0	263.017	0	150.5	4	52.0	4	-1E+10	1	-1E+10	1	-1E+10	1	-1E+10	1	-1E+10	1	-1E+10	1
4901784	174	C	04/09/2020	10:44	-132.565	43.380	0	268.00	0	7.1100	0	36.3300	8	28.455	0	265.692	0	149.1	4	51.4	4	-1E+10	1	-1E+10	1	-1E+10	1	-1E+10	1	-1E+10	1	-1E+10	1
4901784	174	C	04/09/2020	10:44	-132.565	43.380	0	269.80	0	7.0700	0	36.3310	8	28.462	0	267.475	0	148.1	4	51.0	4	-1E+10	1	-1E+10	1	-1E+10	1	-1E+10	1	-1E+10	1	-1E+10	1
4901784	174	C	04/09/2020	10:44	-132.565	43.380	0	272.50	0	7.0170	0	36.3310	8	28.470	0	270.150	0	146.3	4	50.4	4	-1E+10	1	-1E+10	1	-1E+10	1	-1E+10	1	-1E+10	1	-1E+10	1
4901784	174	C	04/09/2020	10:44	-132.565	43.380	0	275.20	0	6.9510	0	36.3310	8	28.479	0	272.825	0	144.6	4	49.7	4	-1E+10	1	-1E+10	1	-1E+10	1	-1E+10	1	-1E+10	1	-1E+10	1
4901784	174	C	04/09/2020	10:44	-132.565	43.380	0	277.10	0	6.9140	0	36.3320	8	28.485	0	274.708	0	143.6	4	49.3	4	-1E+10	1	-1E+10	1	-1E+10	1	-1E+10	1	-1E+10	1	-1E+10	1
4901784	174	C	04/09/2020	10:44	-132.565	43.380	0	279.80	0	6.8480	0	36.3330	8	28.495	0	277.382	0	142.3	4	48.8	4	-1E+10	1	-1E+10	1	-1E+10	1	-1E+10	1	-1E+10	1	-1E+10	1
4901784	174	C	04/09/2020	10:44	-132.565	43.380	0	282.60	0	6.7900	0	36.3360	8	28.506	0	280.156	0	141.6	4	48.5	4	-1E+10	1	-1E+10	1	-1E+10	1	-1E+10	1	-1E+10	1	-1E+10	1
4901784	174	C	04/09/2020	10:44	-132.565	43.380	0	284.50	0	6.7890	0	36.3360	8	28.506	0	282.039	0	141.0	4	48.3	4	-1E+10	1	-1E+10	1	-1E+10	1	-1E+10	1	-1E+10	1	-1E+10	1
4901784	174	C	04/09/2020	10:44	-132.565	43.380	0	287.40	0	6.7770	0	36.3360	8	28.507	0	284.911	0	139.6	4	47.8	4	-1E+10	1	-1E+10	1	-1E+10	1	-1E+10	1	-1E+10	1	-1E+10	1
4901784	174	C	04/09/2020	10:44	-132.565	43.380	0	290.20	0	6.7110	0	36.3400	8	28.520	0	287.685	0	137.8	4	47.1	4	-1E+10	1	-1E+10	1	-1E+10	1	-1E+10	1	-1E+10	1	-1E+10	1
4901784	174	C	04/09/2020	10:44	-132.565	43.380	0	292.00	0	6.7050	0	36.3390	8	28.520	0	289.468	0	136.7	4	46.7	4	-1E+10	1	-1E+10	1	-1E+10	1	-1E+10	1	-1E+10	1	-1E+10	1
4901784	174	C	04/09/2020	10:44	-132.565	43.380	0	294.80	0	6.6490	0	36.3420	8	28.530	0	292.242	0	134.9	4	46.1	4	-1E+10	1	-1E+10	1	-1E+10	1	-1E+10	1	-1E+10	1	-1E+10	1
4901784	174	C	04/09/2020	10:44	-132.565	43.380	0	297.70	0	6.6090	0	36.3460	8	28.539	0	295.115	0	133.5	4	45.5	4	-1E+10	1	-1E+10	1	-1E+10	1	-1E+10	1	-1E+10	1	-1E+10	1
4901784	174	C	04/09/2020	10:44	-132.565	43.380	0	299.60	0	6.5920	0	36.3470	8	28.542	0	296.997	0	132.6	4	45.2	4	-1E+10	1	-1E+10	1	-1E+10	1	-1E+10	1	-1E+10	1	-1E+10	1
4901784	174	C	04/09/2020	10:44	-132.565	43.380	0	302.40	0	6.5810	0	36.3460	8	28.543	0	299.771	0	131.0	4	44.7	4	-1E+10	1	-1E+10	1	-1E+10	1	-1E+10	1	-1E+10	1	-1E+10	1
4901784	174	C	04/09/2020	10:44	-132.565	43.380	0	305.20	0	6.5630	0	36.3460	8	28.545	0	302.544	0	129.0	4	43.9	4	-1E+10	1	-1E+10	1	-1E+10	1	-1E+10	1	-1E+10	1	-1E+10	1
4901784	174	C	04/09/2020	10:44	-132.565	43.380	0	307.00	0	6.5330	0	36.3480	8	28.551	0	304.327	0	127.4	4	43.4	4	-1E+10	1	-1E+10	1	-1E+10	1	-1E+10	1	-1E+10	1	-1E+10	1
4901784	174	C	04/09/2020	10:44	-132.565	43.380	0	309.80	0	6.5050	0	36.3480	8	28.555	0	307.101	0	125.0	4	42.6	4	-1E+10	1	-1E+10	1	-1E+10	1	-1E+10	1	-1E+10	1	-1E+10	1
4901784	174	C	04/09/2020	10:44	-132.565	43.380	0	312.70	0	6.4410	0	36.3550	8	28.569	0	309.974	0	123.0	4	41.8	4	-1E+10	1	-1E+10	1	-1E+10	1	-1E+10	1	-1E+10	1	-1E+10	1
4901784	174	C	04/09/2020	10:44	-132.565	43.380	0	314.60	0	6.4280	0	36.3520	8	28.569	0	311.855	0	122.2	4	41.5	4	-1E+10	1	-1E+10	1	-1E+10	1	-1E+10	1	-1E+10	1	-1E+10	1
4901784	174	C	04/09/2020	10:44	-132.565	43.380	0	317.50	0	6.3810	0	36.3530	8	28.576	0	314.728	0	120.6	4	40.9	4	-1E+10	1	-1E+10	1	-1E+10	1	-1E+10	1	-1E+10	1	-1E+10	1
4901784	174	C	04/09/2020	10:44	-132.565	43.380	0	320.40	0	6.3210	0	36.3560	8	28.586	0	317.600	0	119.5	4	40.5	4	-1E+10	1	-1E+10	1	-1E+10	1	-1E+10	1	-1E+10	1	-1E+10	1
4901784	174	C	04/09/2020	10:44	-132.565	43.380	0	322.30	0	6.2990	0	36.3570	8	28.590	0	319.482	0	119.0	4	40.3	4	-1E+10	1	-1E+10	1	-1E+10	1	-1E+10	1	-1E+10	1	-1E+10	1
4901784	174	C	04/09/2020	10:44	-132.565	43.380	0	325.20	0	6.2880	0	36.3560	8	28.591	0	322.355	0	117.8	4	39.9	4	-1E+10	1	-1E+10	1	-1E+10	1	-1E+10	1	-1E+10	1	-1E+10	1
4901784	174	C	04/09/2020	10:44	-132.565	43.380	0	328.10	0	6.2430	0	36.3590	8	28.599	0	325.227	0	116.5	4	39.4	4	-1E+10	1	-1E+10	1	-1E+10	1	-1E+10	1	-1E+10	1	-1E+10	1
4901784	174	C	04/09/2020	10:44	-132.565	43.380	0	330.00	0	6.2070	0	36.3590	8	28.604	0	327.109	0	116.2	4	39.3	4	-1E+10	1	-1E+10	1	-1E+10	1	-1E+10	1	-1E+10	1	-1E+10	1
4901784	174	C	04/09/2020	10:44	-132.565	43.380	0	332.00	0	6.2010	0	36.3560	8	28.602	0	329.090	0	115.7	4	39.1	4	-1E+10	1	-1E+10	1	-1E+10	1	-1E+10	1	-1E+10	1	-1E+10	1
4901784	174	C	04/09/2020	10:44	-132.565	43.380	0	334.90	0	6.1650	0	36.3550	8	28.606	0	331.962	0	114.2	4	38.6	4	-1E+10	1	-1E+10	1	-1E+10	1	-1E+10	1	-1E+10	1	-1E+10	1
4901784	174	C	04/09/2020	10:44	-132.565	43.380	0	337.70	0	6.0970	0	36.3580	8	28.618	0	334.735	0	112.5	4	37.9	4	-1E+10	1	-1E+10	1	-1E+10	1	-1E+10	1	-1E+10	1	-1E+10	1
4901784	174	C	04/09/2020	10:44	-132.565	43.380	0	339.70	0	6.0780	0	36.3590	8	28.621	0	336.716	0	111.7	4	37.6	4	-1E+10	1	-1E+10	1	-1E+10	1	-1E+10	1	-1E+10	1	-1E+10	1
4901784	174	C	04/09/2020	10:44	-132.565	43.380	0	342.60	0	6.0710	0	36.3560	8	28.620	0	339.588	0	110.1	4	37.1	4	-1E+10	1	-1E+10	1	-1E+10	1	-1E+10	1	-1E+10	1	-1E+10	1
4901784	174	C	04/09/2020	10:44	-132.565	43.380	0	345.60	0	5.9950	0	36.3580	8	28.631	0	342.559	0	108.0	4	36.3	4	-1E+10	1	-1E+10	1	-1E+10	1	-1E+10	1	-1E+10	1	-1E+10	1
4901784	174	C	04/09/2020	10:44	-132.565	43.380	0	347.60	0	5.9550	0	36.3600	8	28.638	0	344.540	0	107.1	4	36.0	4	-1E+10	1	-1E+10	1	-1E+10	1	-1E+10	1	-1E+10	1	-1E+10	1
4901784	174	C	04/09/2020	10:44	-132.565	43.380	0	349.60	0	5.9180	0	36.3600	8	28.643	0	346.521	0	106.3	4	35.7	4	-1E+10	1	-1E+10	1	-1E+10	1	-1E+10	1	-1E+10	1	-1E+10	1
4901784	174	C	04/09/2020	10:44	-132.565	43.380	0	352.60	0	5.8890	0	36.3600	8	28.647	0	349.492	0	105.0	4	35.2	4	-1E+10	1	-1E+10	1	-1E+10	1	-1E+10	1	-1E+10	1	-1E+10	1
4901784	174	C	04/09/2020	10:44	-132.565	43.380	0	355.50	0	5.8540	0	36.3600	8	28.651	0	352.364	0	103.5	4	34.7	4	-1E+10	1	-1E+10	1	-1E+10	1	-1E+10	1	-1E+10	1	-1E+10	1
4901784	174	C	04/09/2020	10:44	-132.565	43.380	0	357.40	0	5.7940	0	36.3630	8	28.662	0	354.246	0	102.7	4	34.4	4	-1E+10	1	-1E+10	1	-1E+10	1	-1E+10	1	-1E+10	1	-1E+10	1
4901784	174	C	04/09/2020	10:44	-132.565	43.380	0	359.40	0	5.7830	0	36.3630	8	28.663	0	356.226	0	101.9	4	34.1	4	-1E+10	1	-1E+10	1	-1E+10	1	-1E+10	1	-1E+10	1	-1E+10	1
4901784	174	C	04/09/2020	10:44	-132.565	43.380	0	362.20	0	5.7700	0	36.3610	8	28.663	0	358.999	0	100.4	4	33.6	4	-1E+10	1	-1E+10	1	-1E+10	1	-1E+10	1	-1E+10	1	-1E+10	1
4901784	174	C	04/09/2020	10:44	-132.565	43.380	0	365.10	0	5.7310	0	36.3620	8	28.669	0	361.871	0	98.5	4	32.9	4	-1E+10	1	-1E+10	1	-1E+10	1	-1E+10	1	-1E+10	1	-1E+10	1
4901784	174	C	04/09/2020	10:44	-132.565	43.380	0	367.00	0	5.6710	0	36.3660	8	28.680	0	363.752	0	97.3	4	32.5	4	-1E+10	1	-1E+10	1	-1E+10	1	-1E+10	1	-1E+10	1	-1E+10	1
4901784	174	C	04/09/2020	10:44	-132.565	43.380	0	369.80	0	5.6480	0	36.3680	8	28.684	0	366.525	0	96.1	4	32.1	4	-1E+10	1	-1E+10	1	-1E+10	1	-1E+10	1	-1E+10	1	-1E+10	1
4901784	174	C	04/09/2020	10:44	-132.565	43.380	0	372.70	0	5.6220	0	36.3660	8	28.686	0	369.397	0	94.7	4	31.6	4	-1E+10	1	-1E+10	1	-1E+10	1	-1E+10	1	-1E+10	1	-1E+10	1
4901784	174	C	04/09/2020	10:44	-132.565	43.380	0	374.70	0	5.5730	0	36.3680	8	28.694	0	371.377	0	93.8	4	31.2	4	-1E+10	1	-1E+10	1	-1E+10	1	-1E+10	1	-1E+10	1	-1E+10	1
4901784	174	C	04/09/2020	10:44	-132.565	43.380	0	377.60	0	5.5400	0	36.3720	8	28.701	0	374.249	0	92.3	4	30.7	4	-1E+10	1	-1E+10	1	-1E+10	1	-1E+10	1	-1E+10	1	-1E+10	1
4901784	174	C	04/09/2020	10:44	-132.565	43.380	0	380.50	0	5.5000	0	36.3730	8	28.707	0	377.121	0	91.3	4	30.4	4	-1E+10	1	-1E+10	1	-1E+10	1	-1E+10	1	-1E+10	1	-1E+10	1
4901784	174	C	04/09/2020	10:44	-132.565	43.380	0	382.50	0	5.4750	0	36.3730	8	28.710	0	379.101	0	90.7	4	30.1	4	-1E+10	1	-1E+10	1	-1E+10	1	-1E+10	1	-1E+10	1	-1E+10	1
4901784	174	C	04/09/2020	10:44	-132.565	43.380	0	384.40	0	5.4290	0	36.3750	8	28.718	0	380.982	0	90.1	4	29.9	4	-1E+10	1	-1E+10	1	-1E+10	1	-1E+10	1	-1E+10	1	-1E+10	1
4901784	174	C	04/09/2020	10:44	-132.565	43.380	0	387.40	0	5.3800	0	36.3770	8	28.725	0	383.953	0	89.6	4	29.7	4	-1E+10	1	-1E+10	1	-1E+10	1	-1E+10	1	-1E+10	1	-1E+10	1
4901784	174	C	04/09/2020	10:44	-132.565	43.380	0	390.30	0	5.3580	0	36.3750	8	28.726	0	386.824	0	88.9	4	29.5	4	-1E+10	1	-1E+10	1	-1E+10	1	-1E+10	1	-1E+10	1	-1E+10	1
4901784	174	C	04/09/2020	10:44	-132.565	43.380	0	392.30	0	5.3350	0	36.3780	8	28.732	0	388.805	0	88.4	4	29.3	4	-1E+10	1	-1E+10	1	-1E+10	1	-1E+10	1	-1E+10	1	-1E+10	1
4901784	174	C	04/09/2020	10:44	-132.565	43.380	0	395.20	0	5.3030	0	36.3780	8	28.736	0	391.676	0	87.6	4	29.0	4	-1E+10	1	-1E+10	1	-1E+10	1	-1E+10	1	-1E+10	1	-1E+10	1
4901784	174	C	04/09/2020	10:44	-132.565	43.380	0	398.20	0	5.2860	0	36.3770	8	28.737	0	394.647	0	86.8	4	28.7	4	-1E+10	1	-1E+10	1	-1E+10	1	-1E+10	1	-1E+10	1	-1E+10	1
4901784	174	C	04/09/2020	10:44	-132.565	43.380	0	400.70	0	5.2420	0	36.3800	8	28.745	0	397.122	0	86.1	4	28.5	4	-1E+10	1	-1E+10	1	-1E+10	1	-1E+10	1	-1E+10	1	-1E+10	1
4901784	174	C	04/09/2020	10:44	-132.565	43.380	0	402.60	0	5.2070	0	36.3830	8	28.752	0	399.003	0	85.6	4	28.3	4	-1E+10	1	-1E+10	1	-1E+10	1	-1E+10	1	-1E+10	1	-1E+10	1
4901784	174	C	04/09/2020	10:44	-132.565	43.380	0	405.10	0	5.2020	0	36.3830	8	28.752	0	401.478	0	85.0	4	28.1	4	-1E+10	1	-1E+10	1	-1E+10	1	-1E+10	1	-1E+10	1	-1E+10	1
4901784	174	C	04/09/2020	10:44	-132.565	43.380	0	407.40	0	5.1910	0	36.3840	8	28.754	0	403.756	0	84.3	4	27.8	4	-1E+10	1	-1E+10	1	-1E+10	1	-1E+10	1	-1E+10	1	-1E+10	1
4901784	174	C	04/09/2020	10:44	-132.565	43.380	0	409.90	0	5.1790	0	36.3850	8	28.757	0	406.231	0	83.6	4	27.6	4	-1E+10	1	-1E+10	1	-1E+10	1	-1E+10	1	-1E+10	1	-1E+10	1
4901784	174	C	04/09/2020	10:44	-132.565	43.380	0	412.30	0	5.1710	0	36.3850	8	28.758	0	408.607	0	82.8	4	27.3	4	-1E+10	1	-1E+10	1	-1E+10	1	-1E+10	1	-1E+10	1	-1E+10	1
4901784	174	C	04/09/2020	10:44	-132.565	43.380	0	414.70	0	5.1450	0	36.3860	8	28.762	0	410.983	0	81.7	4	26.9	4	-1E+10	1	-1E+10	1	-1E+10	1	-1E+10	1	-1E+10	1	-1E+10	1
4901784	174	C	04/09/2020	10:44	-132.565	43.380	0	417.30	0	5.0960	0	36.3900	8	28.771	0	413.557	0	80.7	4	26.6	4	-1E+10	1	-1E+10	1	-1E+10	1	-1E+10	1	-1E+10	1	-1E+10	1
4901784	174	C	04/09/2020	10:44	-132.565	43.380	0	419.80	0	5.0890	0	36.3900	8	28.772	0	416.032	0	79.9	4	26.3	4	-1E+10	1	-1E+10	1	-1E+10	1	-1E+10	1	-1E+10	1	-1E+10	1
4901784	174	C	04/09/2020	10:44	-132.565	43.380	0	422.20	0	5.0590	0	36.3920	8	28.777	0	418.408	0	78.9	4	26.0	4	-1E+10	1	-1E+10	1	-1E+10	1	-1E+10	1	-1E+10	1	-1E+10	1
4901784	174	C	04/09/2020	10:44	-132.565	43.380	0	424.70	0	5.0320	0	36.3940	8	28.782	0	420.883	0	77.9	4	25.6	4	-1E+10	1	-1E+10	1	-1E+10	1	-1E+10	1	-1E+10	1	-1E+10	1
4901784	174	C	04/09/2020	10:44	-132.565	43.380	0	427.20	0	4.9980	0	36.3970	8	28.788	0	423.358	0	77.0	4	25.3	4	-1E+10	1	-1E+10	1	-1E+10	1	-1E+10	1	-1E+10	1	-1E+10	1
4901784	174	C	04/09/2020	10:44	-132.565	43.380	0	429.70	0	4.9860	0	36.3970	8	28.790	0	425.833	0	75.9	4	25.0	4	-1E+10	1	-1E+10	1	-1E+10	1	-1E+10	1	-1E+10	1	-1E+10	1
4901784	174	C	04/09/2020	10:44	-132.565	43.380	0	432.20	0	4.9510	0	36.3990	8	28.795	0	428.308	0	74.6	4	24.5	4	-1E+10	1	-1E+10	1	-1E+10	1	-1E+10	1	-1E+10	1	-1E+10	1
4901784	174	C	04/09/2020	10:44	-132.565	43.380	0	434.80	0	4.9250	0	36.4020	8	28.801	0	430.882	0	73.5	4	24.1	4	-1E+10	1	-1E+10	1	-1E+10	1	-1E+10	1	-1E+10	1	-1E+10	1
4901784	174	C	04/09/2020	10:44	-132.565	43.380	0	437.30	0	4.9030	0	36.4060	8	28.807	0	433.357	0	72.4	4	23.7	4	-1E+10	1	-1E+10	1	-1E+10	1	-1E+10	1	-1E+10	1	-1E+10	1
4901784	174	C	04/09/2020	10:44	-132.565	43.380	0	439.90	0	4.8830	0	36.4070	8	28.810	0	435.931	0	71.3	4	23.4	4	-1E+10	1	-1E+10	1	-1E+10	1	-1E+10	1	-1E+10	1	-1E+10	1
4901784	174	C	04/09/2020	10:44	-132.565	43.380	0	442.40	0	4.8490	0	36.4120	8	28.818	0	438.406	0	70.3	4	23.0	4	-1E+10	1	-1E+10	1	-1E+10	1	-1E+10	1	-1E+10	1	-1E+10	1
4901784	174	C	04/09/2020	10:44	-132.565	43.380	0	445.00	0	4.8360	0	36.4150	8	28.822	0	440.979	0	69.6	4	22.8	4	-1E+10	1	-1E+10	1	-1E+10	1	-1E+10	1	-1E+10	1	-1E+10	1
4901784	174	C	04/09/2020	10:44	-132.565	43.380	0	447.60	0	4.8360	0	36.4150	8	28.822	0	443.553	0	68.9	4	22.6	4	-1E+10	1	-1E+10	1	-1E+10	1	-1E+10	1	-1E+10	1	-1E+10	1
4901784	174	C	04/09/2020	10:44	-132.565	43.380	0	450.20	0	4.8310	0	36.4150	8	28.822	0	446.127	0	67.8	4	22.2	4	-1E+10	1	-1E+10	1	-1E+10	1	-1E+10	1	-1E+10	1	-1E+10	1
4901784	174	C	04/09/2020	10:44	-132.565	43.380	0	452.70	0	4.8120	0	36.4190	8	28.828	0	448.601	0	66.5	4	21.8	4	-1E+10	1	-1E+10	1	-1E+10	1	-1E+10	1	-1E+10	1	-1E+10	1
4901784	174	C	04/09/2020	10:44	-132.565	43.380	0	454.50	0	4.7880	0	36.4260	8	28.836	0	450.383	0	65.9	4	21.5	4	-1E+10	1	-1E+10	1	-1E+10	1	-1E+10	1	-1E+10	1	-1E+10	1
4901784	174	C	04/09/2020	10:44	-132.565	43.380	0	457.20	0	4.7820	0	36.4280	8	28.839	0	453.056	0	65.3	4	21.4	4	-1E+10	1	-1E+10	1	-1E+10	1	-1E+10	1	-1E+10	1	-1E+10	1
4901784	174	C	04/09/2020	10:44	-132.565	43.380	0	459.80	0	4.7780	0	36.4300	8	28.841	0	455.629	0	64.8	4	21.2	4	-1E+10	1	-1E+10	1	-1E+10	1	-1E+10	1	-1E+10	1	-1E+10	1
4901784	174	C	04/09/2020	10:44	-132.565	43.380	0	462.60	0	4.7790	0	36.4310	8	28.841	0	458.401	0	64.0	4	20.9	4	-1E+10	1	-1E+10	1	-1E+10	1	-1E+10	1	-1E+10	1	-1E+10	1
4901784	174	C	04/09/2020	10:44	-132.565	43.380	0	465.30	0	4.7760	0	36.4330	8	28.843	0	461.073	0	63.1	4	20.6	4	-1E+10	1	-1E+10	1	-1E+10	1	-1E+10	1	-1E+10	1	-1E+10	1
4901784	174	C	04/09/2020	10:44	-132.565	43.380	0	467.10	0	4.7770	0	36.4330	8	28.843	0	462.855	0	62.4	4	20.4	4	-1E+10	1	-1E+10	1	-1E+10	1	-1E+10	1	-1E+10	1	-1E+10	1
4901784	174	C	04/09/2020	10:44	-132.565	43.380	0	469.90	0	4.7660	0	36.4370	8	28.848	0	465.626	0	61.1	4	20.0	4	-1E+10	1	-1E+10	1	-1E+10	1	-1E+10	1	-1E+10	1	-1E+10	1
4901784	174	C	04/09/2020	10:44	-132.565	43.380	0	472.60	0	4.7470	0	36.4420	8	28.854	0	468.299	0	59.8	4	19.5	4	-1E+10	1	-1E+10	1	-1E+10	1	-1E+10	1	-1E+10	1	-1E+10	1
4901784	174	C	04/09/2020	10:44	-132.565	43.380	0	474.50	0	4.7360	0	36.4460	8	28.858	0	470.179	0	59.0	4	19.3	4	-1E+10	1	-1E+10	1	-1E+10	1	-1E+10	1	-1E+10	1	-1E+10	1
4901784	174	C	04/09/2020	10:44	-132.565	43.380	0	477.20	0	4.7270	0	36.4490	8	28.862	0	472.852	0	58.0	4	18.9	4	-1E+10	1	-1E+10	1	-1E+10	1	-1E+10	1	-1E+10	1	-1E+10	1
4901784	174	C	04/09/2020	10:44	-132.565	43.380	0	480.00	0	4.7140	0	36.4530	8	28.867	0	475.623	0	56.8	4	18.6	4	-1E+10	1	-1E+10	1	-1E+10	1	-1E+10	1	-1E+10	1	-1E+10	1
4901784	174	C	04/09/2020	10:44	-132.565	43.380	0	481.80	0	4.7020	0	36.4570	8	28.871	0	477.405	0	56.1	4	18.3	4	-1E+10	1	-1E+10	1	-1E+10	1	-1E+10	1	-1E+10	1	-1E+10	1
4901784	174	C	04/09/2020	10:44	-132.565	43.380	0	484.80	0	4.6980	0	36.4590	8	28.873	0	480.374	0	55.1	4	18.0	4	-1E+10	1	-1E+10	1	-1E+10	1	-1E+10	1	-1E+10	1	-1E+10	1
4901784	174	C	04/09/2020	10:44	-132.565	43.380	0	487.60	0	4.6860	0	36.4660	8	28.880	0	483.145	0	53.8	4	17.6	4	-1E+10	1	-1E+10	1	-1E+10	1	-1E+10	1	-1E+10	1	-1E+10	1
4901784	174	C	04/09/2020	10:44	-132.565	43.380	0	489.90	0	4.6710	0	36.4700	8	28.885	0	485.421	0	53.1	4	17.3	4	-1E+10	1	-1E+10	1	-1E+10	1	-1E+10	1	-1E+10	1	-1E+10	1
4901784	174	C	04/09/2020	10:44	-132.565	43.380	0	492.30	0	4.6640	0	36.4720	8	28.888	0	487.796	0	52.4	4	17.1	4	-1E+10	1	-1E+10	1	-1E+10	1	-1E+10	1	-1E+10	1	-1E+10	1
4901784	174	C	04/09/2020	10:44	-132.565	43.380	0	494.70	0	4.6550	0	36.4760	8	28.892	0	490.172	0	51.8	4	16.9	4	-1E+10	1	-1E+10	1	-1E+10	1	-1E+10	1	-1E+10	1	-1E+10	1
4901784	174	C	04/09/2020	10:44	-132.565	43.380	0	497.80	0	4.6500	0	36.4790	8	28.895	0	493.240	0	51.3	4	16.7	4	-1E+10	1	-1E+10	1	-1E+10	1	-1E+10	1	-1E+10	1	-1E+10	1
4901784	174	C	04/09/2020	10:44	-132.565	43.380	0	500.20	0	4.6460	0	36.4820	8	28.898	0	495.615	0	50.9	4	16.6	4	-1E+10	1	-1E+10	1	-1E+10	1	-1E+10	1	-1E+10	1	-1E+10	1
4901784	174	C	04/09/2020	10:44	-132.565	43.380	0	505.00	0	4.6450	0	36.4830	8	28.899	0	500.365	0	50.1	4	16.3	4	-1E+10	1	-1E+10	1	-1E+10	1	-1E+10	1	-1E+10	1	-1E+10	1
4901784	174	C	04/09/2020	10:44	-132.565	43.380	0	509.80	0	4.6380	0	36.4870	8	28.903	0	505.115	0	48.8	4	15.9	4	-1E+10	1	-1E+10	1	-1E+10	1	-1E+10	1	-1E+10	1	-1E+10	1
4901784	174	C	04/09/2020	10:44	-132.565	43.380	0	514.70	0	4.6270	0	36.4920	8	28.908	0	509.964	0	46.8	4	15.3	4	-1E+10	1	-1E+10	1	-1E+10	1	-1E+10	1	-1E+10	1	-1E+10	1
4901784	174	C	04/09/2020	10:44	-132.565	43.380	0	519.70	0	4.6090	0	36.5000	8	28.917	0	514.912	0	44.9	4	14.6	4	-1E+10	1	-1E+10	1	-1E+10	1	-1E+10	1	-1E+10	1	-1E+10	1
4901784	174	C	04/09/2020	10:44	-132.565	43.380	0	524.60	0	4.5920	0	36.5090	8	28.926	0	519.761	0	43.3	4	14.1	4	-1E+10	1	-1E+10	1	-1E+10	1	-1E+10	1	-1E+10	1	-1E+10	1
4901784	174	C	04/09/2020	10:44	-132.565	43.380	0	529.70	0	4.5810	0	36.5140	8	28.931	0	524.807	0	41.9	4	13.7	4	-1E+10	1	-1E+10	1	-1E+10	1	-1E+10	1	-1E+10	1	-1E+10	1
4901784	174	C	04/09/2020	10:44	-132.565	43.380	0	534.80	0	4.5650	0	36.5210	8	28.938	0	529.853	0	40.1	4	13.1	4	-1E+10	1	-1E+10	1	-1E+10	1	-1E+10	1	-1E+10	1	-1E+10	1
4901784	174	C	04/09/2020	10:44	-132.565	43.380	0	539.80	0	4.5450	0	36.5290	8	28.947	0	534.801	0	38.2	4	12.4	4	-1E+10	1	-1E+10	1	-1E+10	1	-1E+10	1	-1E+10	1	-1E+10	1
4901784	174	C	04/09/2020	10:44	-132.565	43.380	0	544.80	0	4.5180	0	36.5400	8	28.959	0	539.748	0	36.4	4	11.8	4	-1E+10	1	-1E+10	1	-1E+10	1	-1E+10	1	-1E+10	1	-1E+10	1
4901784	174	C	04/09/2020	10:44	-132.565	43.380	0	549.90	0	4.5020	0	36.5470	8	28.966	0	544.794	0	35.2	4	11.4	4	-1E+10	1	-1E+10	1	-1E+10	1	-1E+10	1	-1E+10	1	-1E+10	1
4901784	174	C	04/09/2020	10:44	-132.565	43.380	0	555.00	0	4.4840	0	36.5550	8	28.975	0	549.840	0	33.9	4	11.0	4	-1E+10	1	-1E+10	1	-1E+10	1	-1E+10	1	-1E+10	1	-1E+10	1
4901784	174	C	04/09/2020	10:44	-132.565	43.380	0	560.20	0	4.4740	0	36.5600	8	28.980	0	554.985	0	33.0	4	10.7	4	-1E+10	1	-1E+10	1	-1E+10	1	-1E+10	1	-1E+10	1	-1E+10	1
4901784	174	C	04/09/2020	10:44	-132.565	43.380	0	565.40	0	4.4670	0	36.5640	8	28.984	0	560.129	0	31.9	4	10.4	4	-1E+10	1	-1E+10	1	-1E+10	1	-1E+10	1	-1E+10	1	-1E+10	1
4901784	174	C	04/09/2020	10:44	-132.565	43.380	0	570.60	0	4.4580	0	36.5700	8	28.990	0	565.274	0	30.6	4	9.9	4	-1E+10	1	-1E+10	1	-1E+10	1	-1E+10	1	-1E+10	1	-1E+10	1
4901784	174	C	04/09/2020	10:44	-132.565	43.380	0	575.00	0	4.4470	0	36.5770	8	28.997	0	569.627	0	29.5	4	9.6	4	-1E+10	1	-1E+10	1	-1E+10	1	-1E+10	1	-1E+10	1	-1E+10	1
4901784	174	C	04/09/2020	10:44	-132.565	43.380	0	579.50	0	4.4450	0	36.5840	8	29.003	0	574.078	0	28.1	4	9.1	4	-1E+10	1	-1E+10	1	-1E+10	1	-1E+10	1	-1E+10	1	-1E+10	1
4901784	174	C	04/09/2020	10:44	-132.565	43.380	0	584.80	0	4.4400	0	36.5940	8	29.011	0	579.321	0	26.6	4	8.6	4	-1E+10	1	-1E+10	1	-1E+10	1	-1E+10	1	-1E+10	1	-1E+10	1
4901784	174	C	04/09/2020	10:44	-132.565	43.380	0	590.00	0	4.4330	0	36.6030	8	29.019	0	584.465	0	25.6	4	8.3	4	-1E+10	1	-1E+10	1	-1E+10	1	-1E+10	1	-1E+10	1	-1E+10	1
4901784	174	C	04/09/2020	10:44	-132.565	43.380	0	595.30	0	4.4240	0	36.6070	8	29.023	0	589.708	0	25.2	4	8.2	4	-1E+10	1	-1E+10	1	-1E+10	1	-1E+10	1	-1E+10	1	-1E+10	1
4901784	174	C	04/09/2020	10:44	-132.565	43.380	0	600.60	0	4.4230	0	36.6090	8	29.025	0	594.951	0	24.6	4	8.0	4	-1E+10	1	-1E+10	1	-1E+10	1	-1E+10	1	-1E+10	1	-1E+10	1
4901784	174	C	04/09/2020	10:44	-132.565	43.380	0	605.10	0	4.4210	0	36.6130	8	29.029	0	599.402	0	23.9	4	7.8	4	-1E+10	1	-1E+10	1	-1E+10	1	-1E+10	1	-1E+10	1	-1E+10	1
4901784	174	C	04/09/2020	10:44	-132.565	43.380	0	609.60	0	4.4130	0	36.6180	8	29.034	0	603.853	0	23.2	4	7.6	4	-1E+10	1	-1E+10	1	-1E+10	1	-1E+10	1	-1E+10	1	-1E+10	1
4901784	174	C	04/09/2020	10:44	-132.565	43.380	0	614.90	0	4.3920	0	36.6240	8	29.041	0	609.095	0	22.5	4	7.3	4	-1E+10	1	-1E+10	1	-1E+10	1	-1E+10	1	-1E+10	1	-1E+10	1
4901784	174	C	04/09/2020	10:44	-132.565	43.380	0	620.40	0	4.3670	0	36.6290	8	29.048	0	614.535	0	21.9	4	7.1	4	-1E+10	1	-1E+10	1	-1E+10	1	-1E+10	1	-1E+10	1	-1E+10	1
4901784	174	C	04/09/2020	10:44	-132.565	43.380	0	625.00	0	4.3570	0	36.6340	8	29.053	0	619.085	0	21.5	4	7.0	4	-1E+10	1	-1E+10	1	-1E+10	1	-1E+10	1	-1E+10	1	-1E+10	1
4901784	174	C	04/09/2020	10:44	-132.565	43.380	0	629.50	0	4.3560	0	36.6370	8	29.055	0	623.536	0	21.1	4	6.8	4	-1E+10	1	-1E+10	1	-1E+10	1	-1E+10	1	-1E+10	1	-1E+10	1
4901784	174	C	04/09/2020	10:44	-132.565	43.380	0	635.00	0	4.3490	0	36.6400	8	29.059	0	628.975	0	20.6	4	6.7	4	-1E+10	1	-1E+10	1	-1E+10	1	-1E+10	1	-1E+10	1	-1E+10	1
4901784	174	C	04/09/2020	10:44	-132.565	43.380	0	640.50	0	4.3230	0	36.6470	8	29.067	0	634.415	0	20.0	4	6.5	4	-1E+10	1	-1E+10	1	-1E+10	1	-1E+10	1	-1E+10	1	-1E+10	1
4901784	174	C	04/09/2020	10:44	-132.565	43.380	0	645.00	0	4.3100	0	36.6510	8	29.072	0	638.865	0	19.7	4	6.4	4	-1E+10	1	-1E+10	1	-1E+10	1	-1E+10	1	-1E+10	1	-1E+10	1
4901784	174	C	04/09/2020	10:44	-132.565	43.380	0	649.70	0	4.3010	0	36.6530	8	29.074	0	643.513	0	19.3	4	6.3	4	-1E+10	1	-1E+10	1	-1E+10	1	-1E+10	1	-1E+10	1	-1E+10	1
4901784	174	C	04/09/2020	10:44	-132.565	43.380	0	655.30	0	4.2850	0	36.6590	8	29.081	0	649.051	0	18.8	4	6.1	4	-1E+10	1	-1E+10	1	-1E+10	1	-1E+10	1	-1E+10	1	-1E+10	1
4901784	174	C	04/09/2020	10:44	-132.565	43.380	0	660.00	0	4.2760	0	36.6620	8	29.084	0	653.699	0	18.4	4	6.0	4	-1E+10	1	-1E+10	1	-1E+10	1	-1E+10	1	-1E+10	1	-1E+10	1
4901784	174	C	04/09/2020	10:44	-132.565	43.380	0	664.60	0	4.2600	0	36.6670	8	29.090	0	658.248	0	18.0	4	5.8	4	-1E+10	1	-1E+10	1	-1E+10	1	-1E+10	1	-1E+10	1	-1E+10	1
4901784	174	C	04/09/2020	10:44	-132.565	43.380	0	670.30	0	4.2430	0	36.6730	8	29.097	0	663.884	0	17.7	4	5.7	4	-1E+10	1	-1E+10	1	-1E+10	1	-1E+10	1	-1E+10	1	-1E+10	1
4901784	174	C	04/09/2020	10:44	-132.565	43.380	0	675.10	0	4.2290	0	36.6780	8	29.103	0	668.630	0	17.4	4	5.6	4	-1E+10	1	-1E+10	1	-1E+10	1	-1E+10	1	-1E+10	1	-1E+10	1
4901784	174	C	04/09/2020	10:44	-132.565	43.380	0	679.80	0	4.2230	0	36.6800	8	29.105	0	673.278	0	17.2	4	5.6	4	-1E+10	1	-1E+10	1	-1E+10	1	-1E+10	1	-1E+10	1	-1E+10	1
4901784	174	C	04/09/2020	10:44	-132.565	43.380	0	685.50	0	4.2140	0	36.6830	8	29.108	0	678.914	0	16.9	4	5.5	4	-1E+10	1	-1E+10	1	-1E+10	1	-1E+10	1	-1E+10	1	-1E+10	1
4901784	174	C	04/09/2020	10:44	-132.565	43.380	0	690.30	0	4.2070	0	36.6860	8	29.111	0	683.660	0	16.7	4	5.4	4	-1E+10	1	-1E+10	1	-1E+10	1	-1E+10	1	-1E+10	1	-1E+10	1
4901784	174	C	04/09/2020	10:44	-132.565	43.380	0	694.80	0	4.1920	0	36.6900	8	29.116	0	688.109	0	16.3	4	5.3	4	-1E+10	1	-1E+10	1	-1E+10	1	-1E+10	1	-1E+10	1	-1E+10	1
4901784	174	C	04/09/2020	10:44	-132.565	43.380	0	699.30	0	4.1780	0	36.6940	8	29.121	0	692.558	0	16.0	4	5.2	4	-1E+10	1	-1E+10	1	-1E+10	1	-1E+10	1	-1E+10	1	-1E+10	1
4901784	174	C	04/09/2020	10:44	-132.565	43.380	0	705.00	0	4.1620	0	36.7000	8	29.128	0	698.194	0	15.6	4	5.0	4	-1E+10	1	-1E+10	1	-1E+10	1	-1E+10	1	-1E+10	1	-1E+10	1
4901784	174	C	04/09/2020	10:44	-132.565	43.380	0	710.70	0	4.1440	0	36.7070	8	29.135	0	703.829	0	15.1	4	4.9	4	-1E+10	1	-1E+10	1	-1E+10	1	-1E+10	1	-1E+10	1	-1E+10	1
4901784	174	C	04/09/2020	10:44	-132.565	43.380	0	715.60	0	4.1280	0	36.7130	8	29.142	0	708.674	0	14.7	4	4.7	4	-1E+10	1	-1E+10	1	-1E+10	1	-1E+10	1	-1E+10	1	-1E+10	1
4901784	174	C	04/09/2020	10:44	-132.565	43.380	0	720.60	0	4.1110	0	36.7200	8	29.149	0	713.617	0	14.3	4	4.6	4	-1E+10	1	-1E+10	1	-1E+10	1	-1E+10	1	-1E+10	1	-1E+10	1
4901784	174	C	04/09/2020	10:44	-132.565	43.380	0	725.60	0	4.1000	0	36.7270	8	29.156	0	718.560	0	13.8	4	4.5	4	-1E+10	1	-1E+10	1	-1E+10	1	-1E+10	1	-1E+10	1	-1E+10	1
4901784	174	C	04/09/2020	10:44	-132.565	43.380	0	730.50	0	4.0910	0	36.7320	8	29.161	0	723.404	0	13.5	4	4.4	4	-1E+10	1	-1E+10	1	-1E+10	1	-1E+10	1	-1E+10	1	-1E+10	1
4901784	174	C	04/09/2020	10:44	-132.565	43.380	0	735.50	0	4.0840	0	36.7390	8	29.168	0	728.346	0	13.2	4	4.3	4	-1E+10	1	-1E+10	1	-1E+10	1	-1E+10	1	-1E+10	1	-1E+10	1
4901784	174	C	04/09/2020	10:44	-132.565	43.380	0	740.40	0	4.0740	0	36.7440	8	29.173	0	733.190	0	12.9	4	4.2	4	-1E+10	1	-1E+10	1	-1E+10	1	-1E+10	1	-1E+10	1	-1E+10	1
4901784	174	C	04/09/2020	10:44	-132.565	43.380	0	745.50	0	4.0560	0	36.7500	8	29.180	0	738.231	0	12.7	4	4.1	4	-1E+10	1	-1E+10	1	-1E+10	1	-1E+10	1	-1E+10	1	-1E+10	1
4901784	174	C	04/09/2020	10:44	-132.565	43.380	0	750.50	0	4.0420	0	36.7530	8	29.183	0	743.174	0	12.6	4	4.1	4	-1E+10	1	-1E+10	1	-1E+10	1	-1E+10	1	-1E+10	1	-1E+10	1
4901784	174	C	04/09/2020	10:44	-132.565	43.380	0	755.60	0	4.0330	0	36.7590	8	29.189	0	748.215	0	12.4	4	4.0	4	-1E+10	1	-1E+10	1	-1E+10	1	-1E+10	1	-1E+10	1	-1E+10	1
4901784	174	C	04/09/2020	10:44	-132.565	43.380	0	760.70	0	4.0260	0	36.7620	8	29.192	0	753.256	0	12.2	4	3.9	4	-1E+10	1	-1E+10	1	-1E+10	1	-1E+10	1	-1E+10	1	-1E+10	1
4901784	174	C	04/09/2020	10:44	-132.565	43.380	0	765.00	0	4.0160	0	36.7650	8	29.196	0	757.506	0	12.1	4	3.9	4	-1E+10	1	-1E+10	1	-1E+10	1	-1E+10	1	-1E+10	1	-1E+10	1
4901784	174	C	04/09/2020	10:44	-132.565	43.380	0	769.30	0	4.0000	0	36.7710	8	29.203	0	761.756	0	11.9	4	3.8	4	-1E+10	1	-1E+10	1	-1E+10	1	-1E+10	1	-1E+10	1	-1E+10	1
4901784	174	C	04/09/2020	10:44	-132.565	43.380	0	774.40	0	3.9900	0	36.7740	8	29.206	0	766.796	0	11.8	4	3.8	4	-1E+10	1	-1E+10	1	-1E+10	1	-1E+10	1	-1E+10	1	-1E+10	1
4901784	174	C	04/09/2020	10:44	-132.565	43.380	0	779.50	0	3.9750	0	36.7790	8	29.212	0	771.837	0	11.7	4	3.8	4	-1E+10	1	-1E+10	1	-1E+10	1	-1E+10	1	-1E+10	1	-1E+10	1
4901784	174	C	04/09/2020	10:44	-132.565	43.380	0	784.70	0	3.9640	0	36.7830	8	29.216	0	776.976	0	11.6	4	3.7	4	-1E+10	1	-1E+10	1	-1E+10	1	-1E+10	1	-1E+10	1	-1E+10	1
4901784	174	C	04/09/2020	10:44	-132.565	43.380	0	790.00	0	3.9560	0	36.7850	8	29.219	0	782.214	0	11.5	4	3.7	4	-1E+10	1	-1E+10	1	-1E+10	1	-1E+10	1	-1E+10	1	-1E+10	1
4901784	174	C	04/09/2020	10:44	-132.565	43.380	0	795.30	0	3.9390	0	36.7890	8	29.224	0	787.452	0	11.4	4	3.7	4	-1E+10	1	-1E+10	1	-1E+10	1	-1E+10	1	-1E+10	1	-1E+10	1
4901784	174	C	04/09/2020	10:44	-132.565	43.380	0	800.60	0	3.9220	0	36.7940	8	29.230	0	792.689	0	11.3	4	3.6	4	-1E+10	1	-1E+10	1	-1E+10	1	-1E+10	1	-1E+10	1	-1E+10	1
4901784	174	C	04/09/2020	10:44	-132.565	43.380	0	804.90	0	3.9170	0	36.7950	8	29.231	0	796.939	0	11.2	4	3.6	4	-1E+10	1	-1E+10	1	-1E+10	1	-1E+10	1	-1E+10	1	-1E+10	1
4901784	174	C	04/09/2020	10:44	-132.565	43.380	0	809.30	0	3.9030	0	36.8000	8	29.236	0	801.287	0	11.1	4	3.6	4	-1E+10	1	-1E+10	1	-1E+10	1	-1E+10	1	-1E+10	1	-1E+10	1
4901784	174	C	04/09/2020	10:44	-132.565	43.380	0	814.50	0	3.8950	0	36.8020	8	29.239	0	806.425	0	11.1	4	3.6	4	-1E+10	1	-1E+10	1	-1E+10	1	-1E+10	1	-1E+10	1	-1E+10	1
4901784	174	C	04/09/2020	10:44	-132.565	43.380	0	819.70	0	3.8880	0	36.8040	8	29.241	0	811.564	0	11.0	4	3.5	4	-1E+10	1	-1E+10	1	-1E+10	1	-1E+10	1	-1E+10	1	-1E+10	1
4901784	174	C	04/09/2020	10:44	-132.565	43.380	0	824.90	0	3.8770	0	36.8080	8	29.246	0	816.702	0	10.9	4	3.5	4	-1E+10	1	-1E+10	1	-1E+10	1	-1E+10	1	-1E+10	1	-1E+10	1
4901784	174	C	04/09/2020	10:44	-132.565	43.380	0	830.20	0	3.8640	0	36.8110	8	29.250	0	821.939	0	10.8	4	3.5	4	-1E+10	1	-1E+10	1	-1E+10	1	-1E+10	1	-1E+10	1	-1E+10	1
4901784	174	C	04/09/2020	10:44	-132.565	43.380	0	835.50	0	3.8440	0	36.8180	8	29.257	0	827.176	0	10.7	4	3.4	4	-1E+10	1	-1E+10	1	-1E+10	1	-1E+10	1	-1E+10	1	-1E+10	1
4901784	174	C	04/09/2020	10:44	-132.565	43.380	0	840.70	0	3.8310	0	36.8220	8	29.262	0	832.313	0	10.6	4	3.4	4	-1E+10	1	-1E+10	1	-1E+10	1	-1E+10	1	-1E+10	1	-1E+10	1
4901784	174	C	04/09/2020	10:44	-132.565	43.380	0	845.10	0	3.8250	0	36.8250	8	29.265	0	836.661	0	10.5	4	3.4	4	-1E+10	1	-1E+10	1	-1E+10	1	-1E+10	1	-1E+10	1	-1E+10	1
4901784	174	C	04/09/2020	10:44	-132.565	43.380	0	849.50	0	3.8140	0	36.8290	8	29.269	0	841.008	0	10.5	4	3.4	4	-1E+10	1	-1E+10	1	-1E+10	1	-1E+10	1	-1E+10	1	-1E+10	1
4901784	174	C	04/09/2020	10:44	-132.565	43.380	0	854.80	0	3.7990	0	36.8330	8	29.274	0	846.244	0	10.4	4	3.3	4	-1E+10	1	-1E+10	1	-1E+10	1	-1E+10	1	-1E+10	1	-1E+10	1
4901784	174	C	04/09/2020	10:44	-132.565	43.380	0	860.20	0	3.7880	0	36.8350	8	29.277	0	851.579	0	10.4	4	3.3	4	-1E+10	1	-1E+10	1	-1E+10	1	-1E+10	1	-1E+10	1	-1E+10	1
4901784	174	C	04/09/2020	10:44	-132.565	43.380	0	865.60	0	3.7680	0	36.8420	8	29.285	0	856.914	0	10.3	4	3.3	4	-1E+10	1	-1E+10	1	-1E+10	1	-1E+10	1	-1E+10	1	-1E+10	1
4901784	174	C	04/09/2020	10:44	-132.565	43.380	0	870.10	0	3.7570	0	36.8460	8	29.289	0	861.360	0	10.2	4	3.3	4	-1E+10	1	-1E+10	1	-1E+10	1	-1E+10	1	-1E+10	1	-1E+10	1
4901784	174	C	04/09/2020	10:44	-132.565	43.380	0	874.60	0	3.7500	0	36.8480	8	29.292	0	865.805	0	10.2	4	3.3	4	-1E+10	1	-1E+10	1	-1E+10	1	-1E+10	1	-1E+10	1	-1E+10	1
4901784	174	C	04/09/2020	10:44	-132.565	43.380	0	880.00	0	3.7400	0	36.8520	8	29.296	0	871.140	0	10.2	4	3.3	4	-1E+10	1	-1E+10	1	-1E+10	1	-1E+10	1	-1E+10	1	-1E+10	1
4901784	174	C	04/09/2020	10:44	-132.565	43.380	0	885.40	0	3.7340	0	36.8540	8	29.298	0	876.474	0	10.2	4	3.3	4	-1E+10	1	-1E+10	1	-1E+10	1	-1E+10	1	-1E+10	1	-1E+10	1
4901784	174	C	04/09/2020	10:44	-132.565	43.380	0	890.00	0	3.7280	0	36.8560	8	29.300	0	881.018	0	10.1	4	3.2	4	-1E+10	1	-1E+10	1	-1E+10	1	-1E+10	1	-1E+10	1	-1E+10	1
4901784	174	C	04/09/2020	10:44	-132.565	43.380	0	894.60	0	3.7160	0	36.8590	8	29.304	0	885.562	0	10.1	4	3.2	4	-1E+10	1	-1E+10	1	-1E+10	1	-1E+10	1	-1E+10	1	-1E+10	1
4901784	174	C	04/09/2020	10:44	-132.565	43.380	0	900.10	0	3.6980	0	36.8640	8	29.310	0	890.994	0	10.1	4	3.2	4	-1E+10	1	-1E+10	1	-1E+10	1	-1E+10	1	-1E+10	1	-1E+10	1
4901784	174	C	04/09/2020	10:44	-132.565	43.380	0	904.80	0	3.6770	0	36.8700	8	29.317	0	895.637	0	10.1	4	3.2	4	-1E+10	1	-1E+10	1	-1E+10	1	-1E+10	1	-1E+10	1	-1E+10	1
4901784	174	C	04/09/2020	10:44	-132.565	43.380	0	910.00	0	3.6650	0	36.8740	8	29.322	0	900.773	0	10.0	4	3.2	4	-1E+10	1	-1E+10	1	-1E+10	1	-1E+10	1	-1E+10	1	-1E+10	1
4901784	174	C	04/09/2020	10:44	-132.565	43.380	0	915.50	0	3.6530	0	36.8770	8	29.325	0	906.205	0	10.0	4	3.2	4	-1E+10	1	-1E+10	1	-1E+10	1	-1E+10	1	-1E+10	1	-1E+10	1
4901784	174	C	04/09/2020	10:44	-132.565	43.380	0	920.40	0	3.6420	0	36.8800	8	29.329	0	911.045	0	10.0	4	3.2	4	-1E+10	1	-1E+10	1	-1E+10	1	-1E+10	1	-1E+10	1	-1E+10	1
4901784	174	C	04/09/2020	10:44	-132.565	43.380	0	925.30	0	3.6340	0	36.8820	8	29.331	0	915.884	0	10.0	4	3.2	4	-1E+10	1	-1E+10	1	-1E+10	1	-1E+10	1	-1E+10	1	-1E+10	1
4901784	174	C	04/09/2020	10:44	-132.565	43.380	0	930.20	0	3.6210	0	36.8860	8	29.336	0	920.724	0	10.0	4	3.2	4	-1E+10	1	-1E+10	1	-1E+10	1	-1E+10	1	-1E+10	1	-1E+10	1
4901784	174	C	04/09/2020	10:44	-132.565	43.380	0	935.10	0	3.6150	0	36.8870	8	29.337	0	925.563	0	10.1	4	3.2	4	-1E+10	1	-1E+10	1	-1E+10	1	-1E+10	1	-1E+10	1	-1E+10	1
4901784	174	C	04/09/2020	10:44	-132.565	43.380	0	940.20	0	3.5990	0	36.8920	8	29.343	0	930.600	0	10.1	4	3.2	4	-1E+10	1	-1E+10	1	-1E+10	1	-1E+10	1	-1E+10	1	-1E+10	1
4901784	174	C	04/09/2020	10:44	-132.565	43.380	0	945.20	0	3.5870	0	36.8960	8	29.348	0	935.537	0	10.1	4	3.2	4	-1E+10	1	-1E+10	1	-1E+10	1	-1E+10	1	-1E+10	1	-1E+10	1
4901784	174	C	04/09/2020	10:44	-132.565	43.380	0	950.20	0	3.5760	0	36.8990	8	29.351	0	940.475	0	10.1	4	3.2	4	-1E+10	1	-1E+10	1	-1E+10	1	-1E+10	1	-1E+10	1	-1E+10	1
4901784	174	C	04/09/2020	10:44	-132.565	43.380	0	955.30	0	3.5680	0	36.9010	8	29.354	0	945.511	0	10.1	4	3.2	4	-1E+10	1	-1E+10	1	-1E+10	1	-1E+10	1	-1E+10	1	-1E+10	1
4901784	174	C	04/09/2020	10:44	-132.565	43.380	0	960.50	0	3.5540	0	36.9050	8	29.358	0	950.646	0	10.1	4	3.2	4	-1E+10	1	-1E+10	1	-1E+10	1	-1E+10	1	-1E+10	1	-1E+10	1
4901784	174	C	04/09/2020	10:44	-132.565	43.380	0	965.70	0	3.5360	0	36.9100	8	29.364	0	955.781	0	10.2	4	3.2	4	-1E+10	1	-1E+10	1	-1E+10	1	-1E+10	1	-1E+10	1	-1E+10	1
4901784	174	C	04/09/2020	10:44	-132.565	43.380	0	970.00	0	3.5300	0	36.9120	8	29.366	0	960.027	0	10.2	4	3.3	4	-1E+10	1	-1E+10	1	-1E+10	1	-1E+10	1	-1E+10	1	-1E+10	1
4901784	174	C	04/09/2020	10:44	-132.565	43.380	0	974.40	0	3.5250	0	36.9130	8	29.368	0	964.372	0	10.2	4	3.3	4	-1E+10	1	-1E+10	1	-1E+10	1	-1E+10	1	-1E+10	1	-1E+10	1
4901784	174	C	04/09/2020	10:44	-132.565	43.380	0	979.70	0	3.5120	0	36.9170	8	29.372	0	969.605	0	10.3	4	3.3	4	-1E+10	1	-1E+10	1	-1E+10	1	-1E+10	1	-1E+10	1	-1E+10	1
4901784	174	C	04/09/2020	10:44	-132.565	43.380	0	985.10	0	3.5030	0	36.9200	8	29.376	0	974.937	0	10.4	4	3.3	4	-1E+10	1	-1E+10	1	-1E+10	1	-1E+10	1	-1E+10	1	-1E+10	1
4901784	174	C	04/09/2020	10:44	-132.565	43.380	0	990.50	0	3.4920	0	36.9240	8	29.380	0	980.268	0	10.4	4	3.3	4	-1E+10	1	-1E+10	1	-1E+10	1	-1E+10	1	-1E+10	1	-1E+10	1
4901784	174	C	04/09/2020	10:44	-132.565	43.380	0	995.00	0	3.4820	0	36.9270	8	29.384	0	984.711	0	10.5	4	3.3	4	-1E+10	1	-1E+10	1	-1E+10	1	-1E+10	1	-1E+10	1	-1E+10	1
4901784	174	C	04/09/2020	10:44	-132.565	43.380	0	999.60	0	3.4740	0	36.9280	8	29.385	0	989.253	0	10.5	4	3.3	4	-1E+10	1	-1E+10	1	-1E+10	1	-1E+10	1	-1E+10	1	-1E+10	1
4901784	174	C	04/09/2020	10:44	-132.565	43.380	0	1005.20	0	3.4680	0	36.9310	8	29.388	0	994.782	0	10.6	4	3.4	4	-1E+10	1	-1E+10	1	-1E+10	1	-1E+10	1	-1E+10	1	-1E+10	1
4901784	174	C	04/09/2020	10:44	-132.565	43.380	0	1009.80	0	3.4610	0	36.9320	8	29.390	0	999.323	0	10.6	4	3.4	4	-1E+10	1	-1E+10	1	-1E+10	1	-1E+10	1	-1E+10	1	-1E+10	1
4901784	174	C	04/09/2020	10:44	-132.565	43.380	0	1014.50	0	3.4450	0	36.9360	8	29.395	0	1003.963	0	10.7	4	3.4	4	-1E+10	1	-1E+10	1	-1E+10	1	-1E+10	1	-1E+10	1	-1E+10	1
4901784	174	C	04/09/2020	10:44	-132.565	43.380	0	1020.10	0	3.4290	0	36.9400	8	29.400	0	1009.491	0	10.7	4	3.4	4	-1E+10	1	-1E+10	1	-1E+10	1	-1E+10	1	-1E+10	1	-1E+10	1
4901784	174	C	04/09/2020	10:44	-132.565	43.380	0	1024.70	0	3.4210	0	36.9420	8	29.402	0	1014.032	0	10.8	4	3.4	4	-1E+10	1	-1E+10	1	-1E+10	1	-1E+10	1	-1E+10	1	-1E+10	1
4901784	174	C	04/09/2020	10:44	-132.565	43.380	0	1029.70	0	3.4120	0	36.9440	8	29.405	0	1018.968	0	10.8	4	3.4	4	-1E+10	1	-1E+10	1	-1E+10	1	-1E+10	1	-1E+10	1	-1E+10	1
4901784	174	C	04/09/2020	10:44	-132.565	43.380	0	1034.90	0	3.4030	0	36.9470	8	29.408	0	1024.101	0	10.9	4	3.5	4	-1E+10	1	-1E+10	1	-1E+10	1	-1E+10	1	-1E+10	1	-1E+10	1
4901784	174	C	04/09/2020	10:44	-132.565	43.380	0	1039.80	0	3.3950	0	36.9490	8	29.410	0	1028.938	0	10.9	4	3.5	4	-1E+10	1	-1E+10	1	-1E+10	1	-1E+10	1	-1E+10	1	-1E+10	1
4901784	174	C	04/09/2020	10:44	-132.565	43.380	0	1044.80	0	3.3860	0	36.9510	8	29.413	0	1033.874	0	11.0	4	3.5	4	-1E+10	1	-1E+10	1	-1E+10	1	-1E+10	1	-1E+10	1	-1E+10	1
4901784	174	C	04/09/2020	10:44	-132.565	43.380	0	1049.70	0	3.3790	0	36.9530	8	29.415	0	1038.710	0	11.1	4	3.5	4	-1E+10	1	-1E+10	1	-1E+10	1	-1E+10	1	-1E+10	1	-1E+10	1
4901784	174	C	04/09/2020	10:44	-132.565	43.380	0	1054.80	0	3.3710	0	36.9560	8	29.418	0	1043.744	0	11.2	4	3.5	4	-1E+10	1	-1E+10	1	-1E+10	1	-1E+10	1	-1E+10	1	-1E+10	1
4901784	174	C	04/09/2020	10:44	-132.565	43.380	0	1059.80	0	3.3590	0	36.9580	8	29.421	0	1048.679	0	11.3	4	3.6	4	-1E+10	1	-1E+10	1	-1E+10	1	-1E+10	1	-1E+10	1	-1E+10	1
4901784	174	C	04/09/2020	10:44	-132.565	43.380	0	1064.90	0	3.3410	0	36.9620	8	29.426	0	1053.713	0	11.4	4	3.6	4	-1E+10	1	-1E+10	1	-1E+10	1	-1E+10	1	-1E+10	1	-1E+10	1
4901784	174	C	04/09/2020	10:44	-132.565	43.380	0	1070.10	0	3.3230	0	36.9660	8	29.431	0	1058.845	0	11.5	4	3.7	4	-1E+10	1	-1E+10	1	-1E+10	1	-1E+10	1	-1E+10	1	-1E+10	1
4901784	174	C	04/09/2020	10:44	-132.565	43.380	0	1075.30	0	3.3040	0	36.9700	8	29.437	0	1063.977	0	11.6	4	3.7	4	-1E+10	1	-1E+10	1	-1E+10	1	-1E+10	1	-1E+10	1	-1E+10	1
4901784	174	C	04/09/2020	10:44	-132.565	43.380	0	1080.50	0	3.2930	0	36.9730	8	29.440	0	1069.109	0	11.7	4	3.7	4	-1E+10	1	-1E+10	1	-1E+10	1	-1E+10	1	-1E+10	1	-1E+10	1
4901784	174	C	04/09/2020	10:44	-132.565	43.380	0	1084.90	0	3.2890	0	36.9740	8	29.441	0	1073.452	0	11.8	4	3.7	4	-1E+10	1	-1E+10	1	-1E+10	1	-1E+10	1	-1E+10	1	-1E+10	1
4901784	174	C	04/09/2020	10:44	-132.565	43.380	0	1089.40	0	3.2810	0	36.9760	8	29.444	0	1077.893	0	11.8	4	3.7	4	-1E+10	1	-1E+10	1	-1E+10	1	-1E+10	1	-1E+10	1	-1E+10	1
4901784	174	C	04/09/2020	10:44	-132.565	43.380	0	1094.70	0	3.2710	0	36.9780	8	29.446	0	1083.123	0	11.9	4	3.8	4	-1E+10	1	-1E+10	1	-1E+10	1	-1E+10	1	-1E+10	1	-1E+10	1
4901784	174	C	04/09/2020	10:44	-132.565	43.380	0	1100.30	0	3.2600	0	36.9810	8	29.450	0	1088.649	0	12.0	4	3.8	4	-1E+10	1	-1E+10	1	-1E+10	1	-1E+10	1	-1E+10	1	-1E+10	1
4901784	174	C	04/09/2020	10:44	-132.565	43.380	0	1104.90	0	3.2540	0	36.9820	8	29.451	0	1093.189	0	12.1	4	3.8	4	-1E+10	1	-1E+10	1	-1E+10	1	-1E+10	1	-1E+10	1	-1E+10	1
4901784	174	C	04/09/2020	10:44	-132.565	43.380	0	1110.40	0	3.2370	0	36.9860	8	29.456	0	1098.616	0	12.3	4	3.9	4	-1E+10	1	-1E+10	1	-1E+10	1	-1E+10	1	-1E+10	1	-1E+10	1
4901784	174	C	04/09/2020	10:44	-132.565	43.380	0	1115.00	0	3.2260	0	36.9880	8	29.459	0	1103.155	0	12.3	4	3.9	4	-1E+10	1	-1E+10	1	-1E+10	1	-1E+10	1	-1E+10	1	-1E+10	1
4901784	174	C	04/09/2020	10:44	-132.565	43.380	0	1119.90	0	3.2200	0	36.9900	8	29.461	0	1107.990	0	12.4	4	3.9	4	-1E+10	1	-1E+10	1	-1E+10	1	-1E+10	1	-1E+10	1	-1E+10	1
4901784	174	C	04/09/2020	10:44	-132.565	43.380	0	1125.00	0	3.2100	0	36.9920	8	29.464	0	1113.022	0	12.5	4	4.0	4	-1E+10	1	-1E+10	1	-1E+10	1	-1E+10	1	-1E+10	1	-1E+10	1
4901784	174	C	04/09/2020	10:44	-132.565	43.380	0	1130.20	0	3.2010	0	36.9940	8	29.466	0	1118.153	0	12.6	4	4.0	4	-1E+10	1	-1E+10	1	-1E+10	1	-1E+10	1	-1E+10	1	-1E+10	1
4901784	174	C	04/09/2020	10:44	-132.565	43.380	0	1135.40	0	3.1920	0	36.9970	8	29.470	0	1123.284	0	12.7	4	4.0	4	-1E+10	1	-1E+10	1	-1E+10	1	-1E+10	1	-1E+10	1	-1E+10	1
4901784	174	C	04/09/2020	10:44	-132.565	43.380	0	1139.90	0	3.1890	0	36.9980	8	29.471	0	1127.724	0	12.7	4	4.0	4	-1E+10	1	-1E+10	1	-1E+10	1	-1E+10	1	-1E+10	1	-1E+10	1
4901784	174	C	04/09/2020	10:44	-132.565	43.380	0	1144.30	0	3.1820	0	36.9990	8	29.472	0	1132.065	0	12.8	4	4.1	4	-1E+10	1	-1E+10	1	-1E+10	1	-1E+10	1	-1E+10	1	-1E+10	1
4901784	174	C	04/09/2020	10:44	-132.565	43.380	0	1149.50	0	3.1730	0	37.0010	8	29.475	0	1137.195	0	12.9	4	4.1	4	-1E+10	1	-1E+10	1	-1E+10	1	-1E+10	1	-1E+10	1	-1E+10	1
4901784	174	C	04/09/2020	10:44	-132.565	43.380	0	1154.90	0	3.1660	0	37.0020	8	29.476	0	1142.523	0	13.0	4	4.1	4	-1E+10	1	-1E+10	1	-1E+10	1	-1E+10	1	-1E+10	1	-1E+10	1
4901784	174	C	04/09/2020	10:44	-132.565	43.380	0	1160.20	0	3.1550	0	37.0050	8	29.480	0	1147.751	0	13.1	4	4.2	4	-1E+10	1	-1E+10	1	-1E+10	1	-1E+10	1	-1E+10	1	-1E+10	1
4901784	174	C	04/09/2020	10:44	-132.565	43.380	0	1165.60	0	3.1440	0	37.0070	8	29.483	0	1153.079	0	13.3	4	4.2	4	-1E+10	1	-1E+10	1	-1E+10	1	-1E+10	1	-1E+10	1	-1E+10	1
4901784	174	C	04/09/2020	10:44	-132.565	43.380	0	1170.10	0	3.1290	0	37.0100	8	29.487	0	1157.518	0	13.4	4	4.2	4	-1E+10	1	-1E+10	1	-1E+10	1	-1E+10	1	-1E+10	1	-1E+10	1
4901784	174	C	04/09/2020	10:44	-132.565	43.380	0	1174.60	0	3.1220	0	37.0120	8	29.489	0	1161.957	0	13.5	4	4.3	4	-1E+10	1	-1E+10	1	-1E+10	1	-1E+10	1	-1E+10	1	-1E+10	1
4901784	174	C	04/09/2020	10:44	-132.565	43.380	0	1180.00	0	3.1130	0	37.0140	8	29.491	0	1167.284	0	13.7	4	4.3	4	-1E+10	1	-1E+10	1	-1E+10	1	-1E+10	1	-1E+10	1	-1E+10	1
4901784	174	C	04/09/2020	10:44	-132.565	43.380	0	1185.40	0	3.1020	0	37.0150	8	29.493	0	1172.611	0	13.8	4	4.4	4	-1E+10	1	-1E+10	1	-1E+10	1	-1E+10	1	-1E+10	1	-1E+10	1
4901784	174	C	04/09/2020	10:44	-132.565	43.380	0	1189.90	0	3.0850	0	37.0200	8	29.499	0	1177.050	0	14.0	4	4.4	4	-1E+10	1	-1E+10	1	-1E+10	1	-1E+10	1	-1E+10	1	-1E+10	1
4901784	174	C	04/09/2020	10:44	-132.565	43.380	0	1194.50	0	3.0800	0	37.0200	8	29.500	0	1181.587	0	14.1	4	4.4	4	-1E+10	1	-1E+10	1	-1E+10	1	-1E+10	1	-1E+10	1	-1E+10	1
4901784	174	C	04/09/2020	10:44	-132.565	43.380	0	1200.00	0	3.0710	0	37.0220	8	29.502	0	1187.012	0	14.2	4	4.5	4	-1E+10	1	-1E+10	1	-1E+10	1	-1E+10	1	-1E+10	1	-1E+10	1
4901784	174	C	04/09/2020	10:44	-132.565	43.380	0	1205.50	0	3.0550	0	37.0250	8	29.506	0	1192.437	0	14.4	4	4.5	4	-1E+10	1	-1E+10	1	-1E+10	1	-1E+10	1	-1E+10	1	-1E+10	1
4901784	174	C	04/09/2020	10:44	-132.565	43.380	0	1210.10	0	3.0460	0	37.0270	8	29.509	0	1196.974	0	14.5	4	4.6	4	-1E+10	1	-1E+10	1	-1E+10	1	-1E+10	1	-1E+10	1	-1E+10	1
4901784	174	C	04/09/2020	10:44	-132.565	43.380	0	1214.70	0	3.0350	0	37.0290	8	29.511	0	1201.511	0	14.7	4	4.6	4	-1E+10	1	-1E+10	1	-1E+10	1	-1E+10	1	-1E+10	1	-1E+10	1
4901784	174	C	04/09/2020	10:44	-132.565	43.380	0	1220.20	0	3.0240	0	37.0310	8	29.514	0	1206.935	0	14.8	4	4.7	4	-1E+10	1	-1E+10	1	-1E+10	1	-1E+10	1	-1E+10	1	-1E+10	1
4901784	174	C	04/09/2020	10:44	-132.565	43.380	0	1224.90	0	3.0180	0	37.0320	8	29.515	0	1211.571	0	14.9	4	4.7	4	-1E+10	1	-1E+10	1	-1E+10	1	-1E+10	1	-1E+10	1	-1E+10	1
4901784	174	C	04/09/2020	10:44	-132.565	43.380	0	1229.60	0	3.0050	0	37.0340	8	29.518	0	1216.206	0	15.0	4	4.7	4	-1E+10	1	-1E+10	1	-1E+10	1	-1E+10	1	-1E+10	1	-1E+10	1
4901784	174	C	04/09/2020	10:44	-132.565	43.380	0	1235.20	0	3.0000	0	37.0330	8	29.518	0	1221.729	0	15.1	4	4.8	4	-1E+10	1	-1E+10	1	-1E+10	1	-1E+10	1	-1E+10	1	-1E+10	1
4901784	174	C	04/09/2020	10:44	-132.565	43.380	0	1239.80	0	2.9920	0	37.0320	8	29.518	0	1226.265	0	15.3	4	4.8	4	-1E+10	1	-1E+10	1	-1E+10	1	-1E+10	1	-1E+10	1	-1E+10	1
4901784	174	C	04/09/2020	10:44	-132.565	43.380	0	1244.60	0	2.9810	0	37.0340	8	29.521	0	1230.999	0	15.4	4	4.9	4	-1E+10	1	-1E+10	1	-1E+10	1	-1E+10	1	-1E+10	1	-1E+10	1
4901784	174	C	04/09/2020	10:44	-132.565	43.380	0	1249.80	0	2.9710	0	37.0350	8	29.523	0	1236.127	0	15.6	4	4.9	4	-1E+10	1	-1E+10	1	-1E+10	1	-1E+10	1	-1E+10	1	-1E+10	1
4901784	174	C	04/09/2020	10:44	-132.565	43.380	0	1255.00	0	2.9530	0	37.0390	8	29.528	0	1241.255	0	15.8	4	5.0	4	-1E+10	1	-1E+10	1	-1E+10	1	-1E+10	1	-1E+10	1	-1E+10	1
4901784	174	C	04/09/2020	10:44	-132.565	43.380	0	1260.20	0	2.9480	0	37.0400	8	29.529	0	1246.382	0	15.9	4	5.0	4	-1E+10	1	-1E+10	1	-1E+10	1	-1E+10	1	-1E+10	1	-1E+10	1
4901784	174	C	04/09/2020	10:44	-132.565	43.380	0	1265.40	0	2.9380	0	37.0420	8	29.532	0	1251.510	0	16.0	4	5.0	4	-1E+10	1	-1E+10	1	-1E+10	1	-1E+10	1	-1E+10	1	-1E+10	1
4901784	174	C	04/09/2020	10:44	-132.565	43.380	0	1270.60	0	2.9340	0	37.0430	8	29.533	0	1256.637	0	16.1	4	5.1	4	-1E+10	1	-1E+10	1	-1E+10	1	-1E+10	1	-1E+10	1	-1E+10	1
4901784	174	C	04/09/2020	10:44	-132.565	43.380	0	1274.90	0	2.9290	0	37.0440	8	29.534	0	1260.877	0	16.3	4	5.1	4	-1E+10	1	-1E+10	1	-1E+10	1	-1E+10	1	-1E+10	1	-1E+10	1
4901784	174	C	04/09/2020	10:44	-132.565	43.380	0	1279.20	0	2.9200	0	37.0460	8	29.537	0	1265.117	0	16.4	4	5.2	4	-1E+10	1	-1E+10	1	-1E+10	1	-1E+10	1	-1E+10	1	-1E+10	1
4901784	174	C	04/09/2020	10:44	-132.565	43.380	0	1284.40	0	2.9130	0	37.0470	8	29.538	0	1270.244	0	16.6	4	5.2	4	-1E+10	1	-1E+10	1	-1E+10	1	-1E+10	1	-1E+10	1	-1E+10	1
4901784	174	C	04/09/2020	10:44	-132.565	43.380	0	1289.60	0	2.9040	0	37.0500	8	29.541	0	1275.371	0	16.8	4	5.3	4	-1E+10	1	-1E+10	1	-1E+10	1	-1E+10	1	-1E+10	1	-1E+10	1
4901784	174	C	04/09/2020	10:44	-132.565	43.380	0	1294.90	0	2.8950	0	37.0520	8	29.544	0	1280.596	0	17.0	4	5.3	4	-1E+10	1	-1E+10	1	-1E+10	1	-1E+10	1	-1E+10	1	-1E+10	1
4901784	174	C	04/09/2020	10:44	-132.565	43.380	0	1300.20	0	2.8780	0	37.0550	8	29.548	0	1285.821	0	17.3	4	5.4	4	-1E+10	1	-1E+10	1	-1E+10	1	-1E+10	1	-1E+10	1	-1E+10	1
4901784	174	C	04/09/2020	10:44	-132.565	43.380	0	1305.40	0	2.8660	0	37.0570	8	29.551	0	1290.948	0	17.5	4	5.5	4	-1E+10	1	-1E+10	1	-1E+10	1	-1E+10	1	-1E+10	1	-1E+10	1
4901784	174	C	04/09/2020	10:44	-132.565	43.380	0	1309.80	0	2.8580	0	37.0590	8	29.553	0	1295.286	0	17.6	4	5.5	4	-1E+10	1	-1E+10	1	-1E+10	1	-1E+10	1	-1E+10	1	-1E+10	1
4901784	174	C	04/09/2020	10:44	-132.565	43.380	0	1314.30	0	2.8470	0	37.0610	8	29.556	0	1299.722	0	17.8	4	5.6	4	-1E+10	1	-1E+10	1	-1E+10	1	-1E+10	1	-1E+10	1	-1E+10	1
4901784	174	C	04/09/2020	10:44	-132.565	43.380	0	1319.60	0	2.8390	0	37.0630	8	29.558	0	1304.947	0	18.0	4	5.6	4	-1E+10	1	-1E+10	1	-1E+10	1	-1E+10	1	-1E+10	1	-1E+10	1
4901784	174	C	04/09/2020	10:44	-132.565	43.380	0	1324.90	0	2.8320	0	37.0640	8	29.560	0	1310.172	0	18.2	4	5.7	4	-1E+10	1	-1E+10	1	-1E+10	1	-1E+10	1	-1E+10	1	-1E+10	1
4901784	174	C	04/09/2020	10:44	-132.565	43.380	0	1330.30	0	2.8170	0	37.0670	8	29.564	0	1315.495	0	18.5	4	5.8	4	-1E+10	1	-1E+10	1	-1E+10	1	-1E+10	1	-1E+10	1	-1E+10	1
4901784	174	C	04/09/2020	10:44	-132.565	43.380	0	1334.80	0	2.8130	0	37.0670	8	29.564	0	1319.931	0	18.7	4	5.9	4	-1E+10	1	-1E+10	1	-1E+10	1	-1E+10	1	-1E+10	1	-1E+10	1
4901784	174	C	04/09/2020	10:44	-132.565	43.380	0	1339.40	0	2.7970	0	37.0700	8	29.568	0	1324.465	0	18.9	4	5.9	4	-1E+10	1	-1E+10	1	-1E+10	1	-1E+10	1	-1E+10	1	-1E+10	1
4901784	174	C	04/09/2020	10:44	-132.565	43.380	0	1344.80	0	2.7890	0	37.0720	8	29.570	0	1329.788	0	19.2	4	6.0	4	-1E+10	1	-1E+10	1	-1E+10	1	-1E+10	1	-1E+10	1	-1E+10	1
4901784	174	C	04/09/2020	10:44	-132.565	43.380	0	1350.20	0	2.7770	0	37.0740	8	29.573	0	1335.110	0	19.4	4	6.1	4	-1E+10	1	-1E+10	1	-1E+10	1	-1E+10	1	-1E+10	1	-1E+10	1
4901784	174	C	04/09/2020	10:44	-132.565	43.380	0	1355.70	0	2.7720	0	37.0750	8	29.574	0	1340.531	0	19.6	4	6.1	4	-1E+10	1	-1E+10	1	-1E+10	1	-1E+10	1	-1E+10	1	-1E+10	1
4901784	174	C	04/09/2020	10:44	-132.565	43.380	0	1360.20	0	2.7650	0	37.0760	8	29.576	0	1344.967	0	19.8	4	6.2	4	-1E+10	1	-1E+10	1	-1E+10	1	-1E+10	1	-1E+10	1	-1E+10	1
4901784	174	C	04/09/2020	10:44	-132.565	43.380	0	1364.70	0	2.7540	0	37.0780	8	29.579	0	1349.402	0	20.0	4	6.3	4	-1E+10	1	-1E+10	1	-1E+10	1	-1E+10	1	-1E+10	1	-1E+10	1
4901784	174	C	04/09/2020	10:44	-132.565	43.380	0	1370.20	0	2.7470	0	37.0790	8	29.580	0	1354.822	0	20.3	4	6.3	4	-1E+10	1	-1E+10	1	-1E+10	1	-1E+10	1	-1E+10	1	-1E+10	1
4901784	174	C	04/09/2020	10:44	-132.565	43.380	0	1374.90	0	2.7340	0	37.0820	8	29.584	0	1359.455	0	20.5	4	6.4	4	-1E+10	1	-1E+10	1	-1E+10	1	-1E+10	1	-1E+10	1	-1E+10	1
4901784	174	C	04/09/2020	10:44	-132.565	43.380	0	1379.90	0	2.7270	0	37.0830	8	29.585	0	1364.382	0	20.7	4	6.5	4	-1E+10	1	-1E+10	1	-1E+10	1	-1E+10	1	-1E+10	1	-1E+10	1
4901784	174	C	04/09/2020	10:44	-132.565	43.380	0	1385.00	0	2.7190	0	37.0850	8	29.588	0	1369.408	0	20.9	4	6.5	4	-1E+10	1	-1E+10	1	-1E+10	1	-1E+10	1	-1E+10	1	-1E+10	1
4901784	174	C	04/09/2020	10:44	-132.565	43.380	0	1389.80	0	2.7140	0	37.0860	8	29.589	0	1374.139	0	21.0	4	6.6	4	-1E+10	1	-1E+10	1	-1E+10	1	-1E+10	1	-1E+10	1	-1E+10	1
4901784	174	C	04/09/2020	10:44	-132.565	43.380	0	1394.60	0	2.7080	0	37.0880	8	29.591	0	1378.869	0	21.2	4	6.6	4	-1E+10	1	-1E+10	1	-1E+10	1	-1E+10	1	-1E+10	1	-1E+10	1
4901784	174	C	04/09/2020	10:44	-132.565	43.380	0	1399.40	0	2.7040	0	37.0880	8	29.591	0	1383.599	0	21.3	4	6.7	4	-1E+10	1	-1E+10	1	-1E+10	1	-1E+10	1	-1E+10	1	-1E+10	1
4901784	174	C	04/09/2020	10:44	-132.565	43.380	0	1404.20	0	2.6900	0	37.0910	8	29.595	0	1388.329	0	21.7	4	6.8	4	-1E+10	1	-1E+10	1	-1E+10	1	-1E+10	1	-1E+10	1	-1E+10	1
4901784	174	C	04/09/2020	10:44	-132.565	43.380	0	1410.00	0	2.6770	0	37.0930	8	29.598	0	1394.044	0	22.1	4	6.9	4	-1E+10	1	-1E+10	1	-1E+10	1	-1E+10	1	-1E+10	1	-1E+10	1
4901784	174	C	04/09/2020	10:44	-132.565	43.380	0	1415.70	0	2.6650	0	37.0950	8	29.601	0	1399.661	0	22.4	4	7.0	4	-1E+10	1	-1E+10	1	-1E+10	1	-1E+10	1	-1E+10	1	-1E+10	1
4901784	174	C	04/09/2020	10:44	-132.565	43.380	0	1420.70	0	2.6550	0	37.0970	8	29.603	0	1404.588	0	22.8	4	7.1	4	-1E+10	1	-1E+10	1	-1E+10	1	-1E+10	1	-1E+10	1	-1E+10	1
4901784	174	C	04/09/2020	10:44	-132.565	43.380	0	1425.60	0	2.6450	0	37.0980	8	29.605	0	1409.416	0	23.1	4	7.2	4	-1E+10	1	-1E+10	1	-1E+10	1	-1E+10	1	-1E+10	1	-1E+10	1
4901784	174	C	04/09/2020	10:44	-132.565	43.380	0	1430.60	0	2.6320	0	37.1010	8	29.609	0	1414.342	0	23.4	4	7.3	4	-1E+10	1	-1E+10	1	-1E+10	1	-1E+10	1	-1E+10	1	-1E+10	1
4901784	174	C	04/09/2020	10:44	-132.565	43.380	0	1435.70	0	2.6270	0	37.1020	8	29.610	0	1419.367	0	23.6	4	7.4	4	-1E+10	1	-1E+10	1	-1E+10	1	-1E+10	1	-1E+10	1	-1E+10	1
4901784	174	C	04/09/2020	10:44	-132.565	43.380	0	1440.80	0	2.6160	0	37.1040	8	29.613	0	1424.392	0	24.0	4	7.5	4	-1E+10	1	-1E+10	1	-1E+10	1	-1E+10	1	-1E+10	1	-1E+10	1
4901784	174	C	04/09/2020	10:44	-132.565	43.380	0	1445.80	0	2.6050	0	37.1060	8	29.615	0	1429.318	0	24.2	4	7.6	4	-1E+10	1	-1E+10	1	-1E+10	1	-1E+10	1	-1E+10	1	-1E+10	1
4901784	174	C	04/09/2020	10:44	-132.565	43.380	0	1450.10	0	2.6010	0	37.1070	8	29.617	0	1433.555	0	24.4	4	7.6	4	-1E+10	1	-1E+10	1	-1E+10	1	-1E+10	1	-1E+10	1	-1E+10	1
4901784	174	C	04/09/2020	10:44	-132.565	43.380	0	1454.30	0	2.5930	0	37.1080	8	29.618	0	1437.692	0	24.6	4	7.7	4	-1E+10	1	-1E+10	1	-1E+10	1	-1E+10	1	-1E+10	1	-1E+10	1
4901784	174	C	04/09/2020	10:44	-132.565	43.380	0	1459.50	0	2.5860	0	37.1100	8	29.620	0	1442.815	0	24.9	4	7.8	4	-1E+10	1	-1E+10	1	-1E+10	1	-1E+10	1	-1E+10	1	-1E+10	1
4901784	174	C	04/09/2020	10:44	-132.565	43.380	0	1464.60	0	2.5780	0	37.1120	8	29.623	0	1447.839	0	25.1	4	7.8	4	-1E+10	1	-1E+10	1	-1E+10	1	-1E+10	1	-1E+10	1	-1E+10	1
4901784	174	C	04/09/2020	10:44	-132.565	43.380	0	1469.70	0	2.5760	0	37.1120	8	29.623	0	1452.864	0	25.2	4	7.9	4	-1E+10	1	-1E+10	1	-1E+10	1	-1E+10	1	-1E+10	1	-1E+10	1
4901784	174	C	04/09/2020	10:44	-132.565	43.380	0	1474.90	0	2.5710	0	37.1130	8	29.624	0	1457.986	0	25.5	4	8.0	4	-1E+10	1	-1E+10	1	-1E+10	1	-1E+10	1	-1E+10	1	-1E+10	1
4901784	174	C	04/09/2020	10:44	-132.565	43.380	0	1480.30	0	2.5630	0	37.1150	8	29.627	0	1463.305	0	25.8	4	8.0	4	-1E+10	1	-1E+10	1	-1E+10	1	-1E+10	1	-1E+10	1	-1E+10	1
4901784	174	C	04/09/2020	10:44	-132.565	43.380	0	1485.50	0	2.5560	0	37.1160	8	29.628	0	1468.428	0	26.1	4	8.1	4	-1E+10	1	-1E+10	1	-1E+10	1	-1E+10	1	-1E+10	1	-1E+10	1
4901784	174	C	04/09/2020	10:44	-132.565	43.380	0	1490.00	0	2.5480	0	37.1180	8	29.631	0	1472.860	0	26.3	4	8.2	4	-1E+10	1	-1E+10	1	-1E+10	1	-1E+10	1	-1E+10	1	-1E+10	1
4901784	174	C	04/09/2020	10:44	-132.565	43.380	0	1494.40	0	2.5410	0	37.1190	8	29.632	0	1477.194	0	26.5	4	8.3	4	-1E+10	1	-1E+10	1	-1E+10	1	-1E+10	1	-1E+10	1	-1E+10	1
4901784	174	C	04/09/2020	10:44	-132.565	43.380	0	1499.80	0	2.5350	0	37.1200	8	29.633	0	1482.513	0	26.7	4	8.3	4	-1E+10	1	-1E+10	1	-1E+10	1	-1E+10	1	-1E+10	1	-1E+10	1
4901784	174	C	04/09/2020	10:44	-132.565	43.380	0	1505.20	0	2.5280	0	37.1220	8	29.636	0	1487.832	0	26.9	4	8.4	4	-1E+10	1	-1E+10	1	-1E+10	1	-1E+10	1	-1E+10	1	-1E+10	1
4901784	174	C	04/09/2020	10:44	-132.565	43.380	0	1510.50	0	2.5200	0	37.1230	8	29.637	0	1493.052	0	27.2	4	8.5	4	-1E+10	1	-1E+10	1	-1E+10	1	-1E+10	1	-1E+10	1	-1E+10	1
4901784	174	C	04/09/2020	10:44	-132.565	43.380	0	1515.00	0	2.5150	0	37.1250	8	29.639	0	1497.484	0	27.4	4	8.5	4	-1E+10	1	-1E+10	1	-1E+10	1	-1E+10	1	-1E+10	1	-1E+10	1
4901784	174	C	04/09/2020	10:44	-132.565	43.380	0	1519.50	0	2.5130	0	37.1250	8	29.640	0	1501.916	0	27.6	4	8.6	4	-1E+10	1	-1E+10	1	-1E+10	1	-1E+10	1	-1E+10	1	-1E+10	1
4901784	174	C	04/09/2020	10:44	-132.565	43.380	0	1525.00	0	2.5070	0	37.1260	8	29.641	0	1507.333	0	28.0	4	8.7	4	-1E+10	1	-1E+10	1	-1E+10	1	-1E+10	1	-1E+10	1	-1E+10	1
4901784	174	C	04/09/2020	10:44	-132.565	43.380	0	1530.40	0	2.4940	0	37.1290	8	29.645	0	1512.651	0	28.4	4	8.8	4	-1E+10	1	-1E+10	1	-1E+10	1	-1E+10	1	-1E+10	1	-1E+10	1
4901784	174	C	04/09/2020	10:44	-132.565	43.380	0	1534.90	0	2.4850	0	37.1350	8	29.650	0	1517.083	0	28.6	4	8.9	4	-1E+10	1	-1E+10	1	-1E+10	1	-1E+10	1	-1E+10	1	-1E+10	1
4901784	174	C	04/09/2020	10:44	-132.565	43.380	0	1539.40	0	2.4760	0	37.1360	8	29.652	0	1521.514	0	28.8	4	9.0	4	-1E+10	1	-1E+10	1	-1E+10	1	-1E+10	1	-1E+10	1	-1E+10	1
4901784	174	C	04/09/2020	10:44	-132.565	43.380	0	1544.90	0	2.4690	0	37.1380	8	29.654	0	1526.931	0	29.1	4	9.1	4	-1E+10	1	-1E+10	1	-1E+10	1	-1E+10	1	-1E+10	1	-1E+10	1
4901784	174	C	04/09/2020	10:44	-132.565	43.380	0	1550.40	0	2.4600	0	37.1390	8	29.656	0	1532.347	0	29.5	4	9.2	4	-1E+10	1	-1E+10	1	-1E+10	1	-1E+10	1	-1E+10	1	-1E+10	1
4901784	174	C	04/09/2020	10:44	-132.565	43.380	0	1555.10	0	2.4550	0	37.1400	8	29.657	0	1536.975	0	29.7	4	9.3	4	-1E+10	1	-1E+10	1	-1E+10	1	-1E+10	1	-1E+10	1	-1E+10	1
4901784	174	C	04/09/2020	10:44	-132.565	43.380	0	1559.70	0	2.4430	0	37.1420	8	29.660	0	1541.504	0	30.1	4	9.4	4	-1E+10	1	-1E+10	1	-1E+10	1	-1E+10	1	-1E+10	1	-1E+10	1
4901784	174	C	04/09/2020	10:44	-132.565	43.380	0	1565.30	0	2.4340	0	37.1440	8	29.662	0	1547.019	0	30.4	4	9.5	4	-1E+10	1	-1E+10	1	-1E+10	1	-1E+10	1	-1E+10	1	-1E+10	1
4901784	174	C	04/09/2020	10:44	-132.565	43.380	0	1569.90	0	2.4270	0	37.1450	8	29.664	0	1551.548	0	30.7	4	9.5	4	-1E+10	1	-1E+10	1	-1E+10	1	-1E+10	1	-1E+10	1	-1E+10	1
4901784	174	C	04/09/2020	10:44	-132.565	43.380	0	1574.60	0	2.4200	0	37.1460	8	29.665	0	1556.176	0	30.9	4	9.6	4	-1E+10	1	-1E+10	1	-1E+10	1	-1E+10	1	-1E+10	1	-1E+10	1
4901784	174	C	04/09/2020	10:44	-132.565	43.380	0	1580.10	0	2.4130	0	37.1480	8	29.667	0	1561.591	0	31.1	4	9.7	4	-1E+10	1	-1E+10	1	-1E+10	1	-1E+10	1	-1E+10	1	-1E+10	1
4901784	174	C	04/09/2020	10:44	-132.565	43.380	0	1585.50	0	2.4090	0	37.1490	8	29.669	0	1566.908	0	31.3	4	9.7	4	-1E+10	1	-1E+10	1	-1E+10	1	-1E+10	1	-1E+10	1	-1E+10	1
4901784	174	C	04/09/2020	10:44	-132.565	43.380	0	1590.40	0	2.4040	0	37.1500	8	29.670	0	1571.732	0	31.5	4	9.8	4	-1E+10	1	-1E+10	1	-1E+10	1	-1E+10	1	-1E+10	1	-1E+10	1
4901784	174	C	04/09/2020	10:44	-132.565	43.380	0	1595.30	0	2.4020	0	37.1510	8	29.671	0	1576.557	0	31.7	4	9.8	4	-1E+10	1	-1E+10	1	-1E+10	1	-1E+10	1	-1E+10	1	-1E+10	1
4901784	174	C	04/09/2020	10:44	-132.565	43.380	0	1600.30	0	2.3980	0	37.1510	8	29.671	0	1581.479	0	32.1	4	10.0	4	-1E+10	1	-1E+10	1	-1E+10	1	-1E+10	1	-1E+10	1	-1E+10	1
4901784	174	C	04/09/2020	10:44	-132.565	43.380	0	1605.30	0	2.3840	0	37.1530	8	29.674	0	1586.402	0	32.6	4	10.1	4	-1E+10	1	-1E+10	1	-1E+10	1	-1E+10	1	-1E+10	1	-1E+10	1
4901784	174	C	04/09/2020	10:44	-132.565	43.380	0	1610.40	0	2.3730	0	37.1550	8	29.677	0	1591.423	0	33.0	4	10.3	4	-1E+10	1	-1E+10	1	-1E+10	1	-1E+10	1	-1E+10	1	-1E+10	1
4901784	174	C	04/09/2020	10:44	-132.565	43.380	0	1615.60	0	2.3610	0	37.1570	8	29.679	0	1596.542	0	33.5	4	10.4	4	-1E+10	1	-1E+10	1	-1E+10	1	-1E+10	1	-1E+10	1	-1E+10	1
4901784	174	C	04/09/2020	10:44	-132.565	43.380	0	1620.70	0	2.3520	0	37.1590	8	29.682	0	1601.562	0	33.9	4	10.5	4	-1E+10	1	-1E+10	1	-1E+10	1	-1E+10	1	-1E+10	1	-1E+10	1
4901784	174	C	04/09/2020	10:44	-132.565	43.380	0	1625.10	0	2.3450	0	37.1600	8	29.683	0	1605.894	0	34.2	4	10.6	4	-1E+10	1	-1E+10	1	-1E+10	1	-1E+10	1	-1E+10	1	-1E+10	1
4901784	174	C	04/09/2020	10:44	-132.565	43.380	0	1629.50	0	2.3380	0	37.1610	8	29.685	0	1610.225	0	34.5	4	10.7	4	-1E+10	1	-1E+10	1	-1E+10	1	-1E+10	1	-1E+10	1	-1E+10	1
4901784	174	C	04/09/2020	10:44	-132.565	43.380	0	1634.70	0	2.3290	0	37.1630	8	29.687	0	1615.344	0	34.8	4	10.8	4	-1E+10	1	-1E+10	1	-1E+10	1	-1E+10	1	-1E+10	1	-1E+10	1
4901784	174	C	04/09/2020	10:44	-132.565	43.380	0	1639.90	0	2.3240	0	37.1640	8	29.689	0	1620.462	0	35.2	4	10.9	4	-1E+10	1	-1E+10	1	-1E+10	1	-1E+10	1	-1E+10	1	-1E+10	1
4901784	174	C	04/09/2020	10:44	-132.565	43.380	0	1645.20	0	2.3160	0	37.1660	8	29.691	0	1625.679	0	35.6	4	11.0	4	-1E+10	1	-1E+10	1	-1E+10	1	-1E+10	1	-1E+10	1	-1E+10	1
4901784	174	C	04/09/2020	10:44	-132.565	43.380	0	1650.50	0	2.3030	0	37.1680	8	29.694	0	1630.896	0	36.1	4	11.2	4	-1E+10	1	-1E+10	1	-1E+10	1	-1E+10	1	-1E+10	1	-1E+10	1
4901784	174	C	04/09/2020	10:44	-132.565	43.380	0	1654.90	0	2.2980	0	37.1690	8	29.695	0	1635.227	0	36.3	4	11.2	4	-1E+10	1	-1E+10	1	-1E+10	1	-1E+10	1	-1E+10	1	-1E+10	1
4901784	174	C	04/09/2020	10:44	-132.565	43.380	0	1659.40	0	2.2950	0	37.1700	8	29.696	0	1639.656	0	36.5	4	11.3	4	-1E+10	1	-1E+10	1	-1E+10	1	-1E+10	1	-1E+10	1	-1E+10	1
4901784	174	C	04/09/2020	10:44	-132.565	43.380	0	1664.70	0	2.2910	0	37.1710	8	29.697	0	1644.872	0	36.9	4	11.4	4	-1E+10	1	-1E+10	1	-1E+10	1	-1E+10	1	-1E+10	1	-1E+10	1
4901784	174	C	04/09/2020	10:44	-132.565	43.380	0	1670.00	0	2.2790	0	37.1720	8	29.699	0	1650.088	0	37.5	4	11.6	4	-1E+10	1	-1E+10	1	-1E+10	1	-1E+10	1	-1E+10	1	-1E+10	1
4901784	174	C	04/09/2020	10:44	-132.565	43.380	0	1675.40	0	2.2670	0	37.1750	8	29.703	0	1655.403	0	38.0	4	11.8	4	-1E+10	1	-1E+10	1	-1E+10	1	-1E+10	1	-1E+10	1	-1E+10	1
4901784	174	C	04/09/2020	10:44	-132.565	43.380	0	1680.70	0	2.2560	0	37.1770	8	29.705	0	1660.619	0	38.4	4	11.9	4	-1E+10	1	-1E+10	1	-1E+10	1	-1E+10	1	-1E+10	1	-1E+10	1
4901784	174	C	04/09/2020	10:44	-132.565	43.380	0	1685.10	0	2.2490	0	37.1780	8	29.707	0	1664.949	0	38.8	4	12.0	4	-1E+10	1	-1E+10	1	-1E+10	1	-1E+10	1	-1E+10	1	-1E+10	1
4901784	174	C	04/09/2020	10:44	-132.565	43.380	0	1689.50	0	2.2410	0	37.1790	8	29.708	0	1669.279	0	39.1	4	12.1	4	-1E+10	1	-1E+10	1	-1E+10	1	-1E+10	1	-1E+10	1	-1E+10	1
4901784	174	C	04/09/2020	10:44	-132.565	43.380	0	1694.80	0	2.2330	0	37.1810	8	29.711	0	1674.495	0	39.5	4	12.2	4	-1E+10	1	-1E+10	1	-1E+10	1	-1E+10	1	-1E+10	1	-1E+10	1
4901784	174	C	04/09/2020	10:44	-132.565	43.380	0	1700.10	0	2.2270	0	37.1820	8	29.712	0	1679.710	0	39.9	4	12.4	4	-1E+10	1	-1E+10	1	-1E+10	1	-1E+10	1	-1E+10	1	-1E+10	1
4901784	174	C	04/09/2020	10:44	-132.565	43.380	0	1705.50	0	2.2150	0	37.1840	8	29.715	0	1685.024	0	40.4	4	12.5	4	-1E+10	1	-1E+10	1	-1E+10	1	-1E+10	1	-1E+10	1	-1E+10	1
4901784	174	C	04/09/2020	10:44	-132.565	43.380	0	1710.00	0	2.2110	0	37.1850	8	29.716	0	1689.452	0	40.8	4	12.6	4	-1E+10	1	-1E+10	1	-1E+10	1	-1E+10	1	-1E+10	1	-1E+10	1
4901784	174	C	04/09/2020	10:44	-132.565	43.380	0	1714.50	0	2.2030	0	37.1860	8	29.717	0	1693.880	0	41.3	4	12.8	4	-1E+10	1	-1E+10	1	-1E+10	1	-1E+10	1	-1E+10	1	-1E+10	1
4901784	174	C	04/09/2020	10:44	-132.565	43.380	0	1720.00	0	2.1880	0	37.1890	8	29.721	0	1699.292	0	42.0	4	13.0	4	-1E+10	1	-1E+10	1	-1E+10	1	-1E+10	1	-1E+10	1	-1E+10	1
4901784	174	C	04/09/2020	10:44	-132.565	43.380	0	1725.10	0	2.1770	0	37.1910	8	29.724	0	1704.310	0	42.5	4	13.1	4	-1E+10	1	-1E+10	1	-1E+10	1	-1E+10	1	-1E+10	1	-1E+10	1
4901784	174	C	04/09/2020	10:44	-132.565	43.380	0	1730.10	0	2.1660	0	37.1920	8	29.725	0	1709.230	0	43.2	4	13.3	4	-1E+10	1	-1E+10	1	-1E+10	1	-1E+10	1	-1E+10	1	-1E+10	1
4901784	174	C	04/09/2020	10:44	-132.565	43.380	0	1735.60	0	2.1500	0	37.1950	8	29.729	0	1714.641	0	43.9	4	13.5	4	-1E+10	1	-1E+10	1	-1E+10	1	-1E+10	1	-1E+10	1	-1E+10	1
4901784	174	C	04/09/2020	10:44	-132.565	43.380	0	1740.40	0	2.1420	0	37.1970	8	29.732	0	1719.364	0	44.3	4	13.7	4	-1E+10	1	-1E+10	1	-1E+10	1	-1E+10	1	-1E+10	1	-1E+10	1
4901784	174	C	04/09/2020	10:44	-132.565	43.380	0	1745.20	0	2.1340	0	37.1980	8	29.733	0	1724.086	0	44.7	4	13.8	4	-1E+10	1	-1E+10	1	-1E+10	1	-1E+10	1	-1E+10	1	-1E+10	1
4901784	174	C	04/09/2020	10:44	-132.565	43.380	0	1750.10	0	2.1250	0	37.2000	8	29.736	0	1728.907	0	45.2	4	14.0	4	-1E+10	1	-1E+10	1	-1E+10	1	-1E+10	1	-1E+10	1	-1E+10	1
4901784	174	C	04/09/2020	10:44	-132.565	43.380	0	1755.00	0	2.1140	0	37.2020	8	29.738	0	1733.728	0	45.7	4	14.1	4	-1E+10	1	-1E+10	1	-1E+10	1	-1E+10	1	-1E+10	1	-1E+10	1
4901784	174	C	04/09/2020	10:44	-132.565	43.380	0	1759.90	0	2.1080	0	37.2030	8	29.739	0	1738.548	0	46.1	4	14.2	4	-1E+10	1	-1E+10	1	-1E+10	1	-1E+10	1	-1E+10	1	-1E+10	1
4901784	174	C	04/09/2020	10:44	-132.565	43.380	0	1764.90	0	2.1020	0	37.2050	8	29.742	0	1743.467	0	46.3	4	14.3	4	-1E+10	1	-1E+10	1	-1E+10	1	-1E+10	1	-1E+10	1	-1E+10	1
4901784	174	C	04/09/2020	10:44	-132.565	43.380	0	1769.90	0	2.1010	0	37.2050	8	29.742	0	1748.386	0	46.4	4	14.3	4	-1E+10	1	-1E+10	1	-1E+10	1	-1E+10	1	-1E+10	1	-1E+10	1
4901784	174	C	04/09/2020	10:44	-132.565	43.380	0	1774.90	0	2.1000	0	37.2060	8	29.743	0	1753.304	0	46.5	4	14.3	4	-1E+10	1	-1E+10	1	-1E+10	1	-1E+10	1	-1E+10	1	-1E+10	1
4901784	174	C	04/09/2020	10:44	-132.565	43.380	0	1780.00	0	2.0960	0	37.2060	8	29.743	0	1758.321	0	46.9	4	14.5	4	-1E+10	1	-1E+10	1	-1E+10	1	-1E+10	1	-1E+10	1	-1E+10	1
4901784	174	C	04/09/2020	10:44	-132.565	43.380	0	1785.10	0	2.0890	0	37.2080	8	29.745	0	1763.338	0	47.3	4	14.6	4	-1E+10	1	-1E+10	1	-1E+10	1	-1E+10	1	-1E+10	1	-1E+10	1
4901784	174	C	04/09/2020	10:44	-132.565	43.380	0	1790.10	0	2.0830	0	37.2090	8	29.747	0	1768.256	0	47.6	4	14.7	4	-1E+10	1	-1E+10	1	-1E+10	1	-1E+10	1	-1E+10	1	-1E+10	1
4901784	174	C	04/09/2020	10:44	-132.565	43.380	0	1795.20	0	2.0770	0	37.2110	8	29.749	0	1773.272	0	47.9	4	14.8	4	-1E+10	1	-1E+10	1	-1E+10	1	-1E+10	1	-1E+10	1	-1E+10	1
4901784	174	C	04/09/2020	10:44	-132.565	43.380	0	1800.30	0	2.0740	0	37.2110	8	29.749	0	1778.289	0	48.1	4	14.8	4	-1E+10	1	-1E+10	1	-1E+10	1	-1E+10	1	-1E+10	1	-1E+10	1
4901784	174	C	04/09/2020	10:44	-132.565	43.380	0	1805.50	0	2.0680	0	37.2120	8	29.750	0	1783.403	0	48.5	4	15.0	4	-1E+10	1	-1E+10	1	-1E+10	1	-1E+10	1	-1E+10	1	-1E+10	1
4901784	174	C	04/09/2020	10:44	-132.565	43.380	0	1810.60	0	2.0630	0	37.2140	8	29.752	0	1788.420	0	48.8	4	15.0	4	-1E+10	1	-1E+10	1	-1E+10	1	-1E+10	1	-1E+10	1	-1E+10	1
4901784	174	C	04/09/2020	10:44	-132.565	43.380	0	1815.00	0	2.0590	0	37.2150	8	29.754	0	1792.747	0	49.1	4	15.1	4	-1E+10	1	-1E+10	1	-1E+10	1	-1E+10	1	-1E+10	1	-1E+10	1
4901784	174	C	04/09/2020	10:44	-132.565	43.380	0	1819.40	0	2.0540	0	37.2160	8	29.755	0	1797.075	0	49.4	4	15.2	4	-1E+10	1	-1E+10	1	-1E+10	1	-1E+10	1	-1E+10	1	-1E+10	1
4901784	174	C	04/09/2020	10:44	-132.565	43.380	0	1824.60	0	2.0480	0	37.2170	8	29.756	0	1802.189	0	49.6	4	15.3	4	-1E+10	1	-1E+10	1	-1E+10	1	-1E+10	1	-1E+10	1	-1E+10	1
4901784	174	C	04/09/2020	10:44	-132.565	43.380	0	1829.90	0	2.0450	0	37.2180	8	29.757	0	1807.401	0	49.9	4	15.4	4	-1E+10	1	-1E+10	1	-1E+10	1	-1E+10	1	-1E+10	1	-1E+10	1
4901784	174	C	04/09/2020	10:44	-132.565	43.380	0	1835.20	0	2.0410	0	37.2190	8	29.759	0	1812.613	0	50.3	4	15.5	4	-1E+10	1	-1E+10	1	-1E+10	1	-1E+10	1	-1E+10	1	-1E+10	1
4901784	174	C	04/09/2020	10:44	-132.565	43.380	0	1840.40	0	2.0340	0	37.2200	8	29.760	0	1817.727	0	50.7	4	15.6	4	-1E+10	1	-1E+10	1	-1E+10	1	-1E+10	1	-1E+10	1	-1E+10	1
4901784	174	C	04/09/2020	10:44	-132.565	43.380	0	1845.70	0	2.0290	0	37.2210	8	29.761	0	1822.939	0	51.0	4	15.7	4	-1E+10	1	-1E+10	1	-1E+10	1	-1E+10	1	-1E+10	1	-1E+10	1
4901784	174	C	04/09/2020	10:44	-132.565	43.380	0	1850.10	0	2.0260	0	37.2220	8	29.762	0	1827.266	0	51.1	4	15.7	4	-1E+10	1	-1E+10	1	-1E+10	1	-1E+10	1	-1E+10	1	-1E+10	1
4901784	174	C	04/09/2020	10:44	-132.565	43.380	0	1854.50	0	2.0240	0	37.2230	8	29.763	0	1831.593	0	51.3	4	15.8	4	-1E+10	1	-1E+10	1	-1E+10	1	-1E+10	1	-1E+10	1	-1E+10	1
4901784	174	C	04/09/2020	10:44	-132.565	43.380	0	1859.80	0	2.0220	0	37.2230	8	29.764	0	1836.804	0	51.7	4	15.9	4	-1E+10	1	-1E+10	1	-1E+10	1	-1E+10	1	-1E+10	1	-1E+10	1
4901784	174	C	04/09/2020	10:44	-132.565	43.380	0	1865.10	0	2.0130	0	37.2250	8	29.766	0	1842.016	0	52.1	4	16.0	4	-1E+10	1	-1E+10	1	-1E+10	1	-1E+10	1	-1E+10	1	-1E+10	1
4901784	174	C	04/09/2020	10:44	-132.565	43.380	0	1870.40	0	2.0080	0	37.2260	8	29.767	0	1847.227	0	52.5	4	16.2	4	-1E+10	1	-1E+10	1	-1E+10	1	-1E+10	1	-1E+10	1	-1E+10	1
4901784	174	C	04/09/2020	10:44	-132.565	43.380	0	1874.90	0	2.0030	0	37.2280	8	29.769	0	1851.652	0	52.8	4	16.2	4	-1E+10	1	-1E+10	1	-1E+10	1	-1E+10	1	-1E+10	1	-1E+10	1
4901784	174	C	04/09/2020	10:44	-132.565	43.380	0	1879.40	0	1.9990	0	37.2280	8	29.770	0	1856.077	0	53.0	4	16.3	4	-1E+10	1	-1E+10	1	-1E+10	1	-1E+10	1	-1E+10	1	-1E+10	1
4901784	174	C	04/09/2020	10:44	-132.565	43.380	0	1884.90	0	1.9960	0	37.2290	8	29.771	0	1861.484	0	53.3	4	16.4	4	-1E+10	1	-1E+10	1	-1E+10	1	-1E+10	1	-1E+10	1	-1E+10	1
4901784	174	C	04/09/2020	10:44	-132.565	43.380	0	1890.40	0	1.9910	0	37.2300	8	29.772	0	1866.892	0	53.7	4	16.5	4	-1E+10	1	-1E+10	1	-1E+10	1	-1E+10	1	-1E+10	1	-1E+10	1
4901784	174	C	04/09/2020	10:44	-132.565	43.380	0	1894.90	0	1.9860	0	37.2310	8	29.773	0	1871.316	0	54.0	4	16.6	4	-1E+10	1	-1E+10	1	-1E+10	1	-1E+10	1	-1E+10	1	-1E+10	1
4901784	174	C	04/09/2020	10:44	-132.565	43.380	0	1899.50	0	1.9820	0	37.2320	8	29.774	0	1875.839	0	54.3	4	16.7	4	-1E+10	1	-1E+10	1	-1E+10	1	-1E+10	1	-1E+10	1	-1E+10	1
4901784	174	C	04/09/2020	10:44	-132.565	43.380	0	1905.00	0	1.9780	0	37.2320	8	29.775	0	1881.246	0	54.6	4	16.8	4	-1E+10	1	-1E+10	1	-1E+10	1	-1E+10	1	-1E+10	1	-1E+10	1
4901784	174	C	04/09/2020	10:44	-132.565	43.380	0	1910.50	0	1.9740	0	37.2320	8	29.775	0	1886.653	0	54.9	4	16.9	4	-1E+10	1	-1E+10	1	-1E+10	1	-1E+10	1	-1E+10	1	-1E+10	1
4901784	174	C	04/09/2020	10:44	-132.565	43.380	0	1914.60	0	1.9720	0	37.2310	8	29.775	0	1890.683	0	55.1	4	16.9	4	-1E+10	1	-1E+10	1	-1E+10	1	-1E+10	1	-1E+10	1	-1E+10	1
4901784	174	C	04/09/2020	10:44	-132.565	43.380	0	1919.50	0	1.9680	0	37.2310	8	29.775	0	1895.500	0	55.4	4	17.0	4	-1E+10	1	-1E+10	1	-1E+10	1	-1E+10	1	-1E+10	1	-1E+10	1
4901784	174	C	04/09/2020	10:44	-132.565	43.380	0	1924.40	0	1.9660	0	37.2310	8	29.775	0	1900.317	0	55.6	4	17.1	4	-1E+10	1	-1E+10	1	-1E+10	1	-1E+10	1	-1E+10	1	-1E+10	1
4901784	174	C	04/09/2020	10:44	-132.565	43.380	0	1929.30	0	1.9620	0	37.2320	8	29.776	0	1905.134	0	55.9	4	17.2	4	-1E+10	1	-1E+10	1	-1E+10	1	-1E+10	1	-1E+10	1	-1E+10	1
4901784	174	C	04/09/2020	10:44	-132.565	43.380	0	1934.30	0	1.9550	0	37.2340	8	29.779	0	1910.049	0	56.2	4	17.3	4	-1E+10	1	-1E+10	1	-1E+10	1	-1E+10	1	-1E+10	1	-1E+10	1
4901784	174	C	04/09/2020	10:44	-132.565	43.380	0	1939.30	0	1.9550	0	37.2340	8	29.779	0	1914.964	0	56.3	4	17.3	4	-1E+10	1	-1E+10	1	-1E+10	1	-1E+10	1	-1E+10	1	-1E+10	1
4901784	174	C	04/09/2020	10:44	-132.565	43.380	0	1944.20	0	1.9530	0	37.2340	8	29.779	0	1919.780	0	56.4	4	17.3	4	-1E+10	1	-1E+10	1	-1E+10	1	-1E+10	1	-1E+10	1	-1E+10	1
4901784	174	C	04/09/2020	10:44	-132.565	43.380	0	1949.20	0	1.9510	0	37.2350	8	29.780	0	1924.695	0	56.6	4	17.4	4	-1E+10	1	-1E+10	1	-1E+10	1	-1E+10	1	-1E+10	1	-1E+10	1
4901784	174	C	04/09/2020	10:44	-132.565	43.380	0	1954.30	0	1.9490	0	37.2360	8	29.781	0	1929.708	0	56.8	4	17.5	4	-1E+10	1	-1E+10	1	-1E+10	1	-1E+10	1	-1E+10	1	-1E+10	1
4901784	174	C	04/09/2020	10:44	-132.565	43.380	0	1959.30	0	1.9480	0	37.2360	8	29.781	0	1934.622	0	57.0	4	17.5	4	-1E+10	1	-1E+10	1	-1E+10	1	-1E+10	1	-1E+10	1	-1E+10	1
4901784	174	C	04/09/2020	10:44	-132.565	43.380	0	1964.40	0	1.9460	0	37.2370	8	29.782	0	1939.635	0	57.3	4	17.6	4	-1E+10	1	-1E+10	1	-1E+10	1	-1E+10	1	-1E+10	1	-1E+10	1
4901784	174	C	04/09/2020	10:44	-132.565	43.380	0	1969.40	0	1.9460	0	37.2380	8	29.783	0	1944.549	0	57.7	4	17.7	4	-1E+10	1	-1E+10	1	-1E+10	1	-1E+10	1	-1E+10	1	-1E+10	1
4901784	174	C	04/09/2020	10:44	-132.565	43.380	0	1974.60	0	1.9450	0	37.2380	8	29.783	0	1949.659	0	58.0	4	17.8	4	-1E+10	1	-1E+10	1	-1E+10	1	-1E+10	1	-1E+10	1	-1E+10	1
4901784	174	C	04/09/2020	10:44	-132.565	43.380	0	1979.70	0	1.9410	0	37.2390	8	29.784	0	1954.672	0	58.3	4	17.9	4	-1E+10	1	-1E+10	1	-1E+10	1	-1E+10	1	-1E+10	1	-1E+10	1
4901784	174	C	04/09/2020	10:44	-132.565	43.380	0	1984.80	0	1.9360	0	37.2400	8	29.785	0	1959.684	0	58.6	4	18.0	4	-1E+10	1	-1E+10	1	-1E+10	1	-1E+10	1	-1E+10	1	-1E+10	1
4901784	174	C	04/09/2020	10:44	-132.565	43.380	0	1989.90	0	1.9330	0	37.2410	8	29.786	0	1964.696	0	58.9	4	18.1	4	-1E+10	1	-1E+10	1	-1E+10	1	-1E+10	1	-1E+10	1	-1E+10	1
4901784	174	C	04/09/2020	10:44	-132.565	43.380	0	1995.00	0	1.9300	0	37.2410	8	29.787	0	1969.707	0	59.1	4	18.2	4	-1E+10	1	-1E+10	1	-1E+10	1	-1E+10	1	-1E+10	1	-1E+10	1
4901784	174	C	04/09/2020	10:44	-132.565	43.380	0	2000.20	0	1.9240	0	37.2420	8	29.788	0	1974.817	0	59.5	4	18.3	4	-1E+10	1	-1E+10	1	-1E+10	1	-1E+10	1	-1E+10	1	-1E+10	1
4901784	174	C	04/09/2020	10:44	-132.565	43.380	0	2005.30	0	1.9200	0	37.2430	8	29.789	0	1979.829	0	59.6	4	18.3	4	-1E+10	1	-1E+10	1	-1E+10	1	-1E+10	1	-1E+10	1	-1E+10	1
4901784	174	C	04/09/2020	10:44	-132.565	43.380	0	2010.50	0	1.9200	0	37.2440	8	29.790	0	1984.939	0	59.7	4	18.3	4	-1E+10	1	-1E+10	1	-1E+10	1	-1E+10	1	-1E+10	1	-1E+10	1
4901784	174	C	04/09/2020	10:44	-132.565	43.380	0	2014.90	0	1.9190	0	37.2440	8	29.790	0	1989.262	0	59.9	4	18.4	4	-1E+10	1	-1E+10	1	-1E+10	1	-1E+10	1	-1E+10	1	-1E+10	1
4901784	174	C	04/09/2020	10:44	-132.565	43.380	0	2019.80	0	1.9170	0	37.2450	8	29.791	0	1994.077	0	60.1	4	18.4	4	-1E+10	1	-1E+10	1	-1E+10	1	-1E+10	1	-1E+10	1	-1E+10	1
4901784	174	C	04/09/2020	10:44	-132.565	43.380	0																										
4901784	175	C	04/19/2020	10:45	-132.508	43.394	0	2.30	0	11.4990	0	34.8490	8	26.567	0	2.282	0	262.3	4	98.5	4	-1E+10	1	-1E+10	1	-1E+10	1	-1E+10	1	-1E+10	1	-1E+10	1
4901784	175	C	04/19/2020	10:45	-132.508	43.394	0	4.40	0	11.4890	0	34.8480	8	26.568	0	4.365	0	262.2	4	98.4	4	-1E+10	1	-1E+10	1	-1E+10	1	-1E+10	1	-1E+10	1	-1E+10	1
4901784	175	C	04/19/2020	10:45	-132.508	43.394	0	4.90	0	11.4870	0	34.8500	8	26.570	0	4.861	0	262.2	4	98.4	4	-1E+10	1	-1E+10	1	-1E+10	1	-1E+10	1	-1E+10	1	-1E+10	1
4901784	175	C	04/19/2020	10:45	-132.508	43.394	0	6.60	0	11.4840	0	34.8470	8	26.568	0	6.547	0	262.1	4	98.4	4	-1E+10	1	-1E+10	1	-1E+10	1	-1E+10	1	-1E+10	1	-1E+10	1
4901784	175	C	04/19/2020	10:45	-132.508	43.394	0	8.20	0	11.4860	0	34.8460	8	26.567	0	8.134	0	262.2	4	98.4	4	-1E+10	1	-1E+10	1	-1E+10	1	-1E+10	1	-1E+10	1	-1E+10	1
4901784	175	C	04/19/2020	10:45	-132.508	43.394	0	9.80	0	11.4490	0	34.8470	8	26.575	0	9.722	0	262.2	4	98.4	4	-1E+10	1	-1E+10	1	-1E+10	1	-1E+10	1	-1E+10	1	-1E+10	1
4901784	175	C	04/19/2020	10:45	-132.508	43.394	0	11.40	0	11.4440	0	34.8460	8	26.575	0	11.309	0	262.0	4	98.3	4	-1E+10	1	-1E+10	1	-1E+10	1	-1E+10	1	-1E+10	1	-1E+10	1
4901784	175	C	04/19/2020	10:45	-132.508	43.394	0	13.10	0	11.4350	0	34.8440	8	26.575	0	12.995	0	261.9	4	98.2	4	-1E+10	1	-1E+10	1	-1E+10	1	-1E+10	1	-1E+10	1	-1E+10	1
4901784	175	C	04/19/2020	10:45	-132.508	43.394	0	14.60	0	11.4230	0	34.8390	8	26.573	0	14.483	0	261.9	4	98.2	4	-1E+10	1	-1E+10	1	-1E+10	1	-1E+10	1	-1E+10	1	-1E+10	1
4901784	175	C	04/19/2020	10:45	-132.508	43.394	0	16.30	0	11.3400	0	34.8320	8	26.583	0	16.169	0	262.0	4	98.0	4	-1E+10	1	-1E+10	1	-1E+10	1	-1E+10	1	-1E+10	1	-1E+10	1
4901784	175	C	04/19/2020	10:45	-132.508	43.394	0	17.90	0	11.1110	0	34.8420	8	26.633	0	17.757	0	262.7	4	97.8	4	-1E+10	1	-1E+10	1	-1E+10	1	-1E+10	1	-1E+10	1	-1E+10	1
4901784	175	C	04/19/2020	10:45	-132.508	43.394	0	19.50	0	11.0370	0	34.8410	8	26.646	0	19.344	0	263.0	4	97.8	4	-1E+10	1	-1E+10	1	-1E+10	1	-1E+10	1	-1E+10	1	-1E+10	1
4901784	175	C	04/19/2020	10:45	-132.508	43.394	0	21.20	0	10.9750	0	34.8420	8	26.658	0	21.030	0	263.2	4	97.7	4	-1E+10	1	-1E+10	1	-1E+10	1	-1E+10	1	-1E+10	1	-1E+10	1
4901784	175	C	04/19/2020	10:45	-132.508	43.394	0	23.00	0	10.9360	0	34.8430	8	26.666	0	22.815	0	263.2	4	97.7	4	-1E+10	1	-1E+10	1	-1E+10	1	-1E+10	1	-1E+10	1	-1E+10	1
4901784	175	C	04/19/2020	10:45	-132.508	43.394	0	24.70	0	10.9240	0	34.8440	8	26.669	0	24.502	0	263.0	4	97.6	4	-1E+10	1	-1E+10	1	-1E+10	1	-1E+10	1	-1E+10	1	-1E+10	1
4901784	175	C	04/19/2020	10:45	-132.508	43.394	0	26.50	0	10.9160	0	34.8430	8	26.670	0	26.287	0	263.2	4	97.6	4	-1E+10	1	-1E+10	1	-1E+10	1	-1E+10	1	-1E+10	1	-1E+10	1
4901784	175	C	04/19/2020	10:45	-132.508	43.394	0	28.20	0	10.9060	0	34.8440	8	26.672	0	27.973	0	262.9	4	97.5	4	-1E+10	1	-1E+10	1	-1E+10	1	-1E+10	1	-1E+10	1	-1E+10	1
4901784	175	C	04/19/2020	10:45	-132.508	43.394	0	30.00	0	10.8850	0	34.8430	8	26.675	0	29.759	0	262.8	4	97.4	4	-1E+10	1	-1E+10	1	-1E+10	1	-1E+10	1	-1E+10	1	-1E+10	1
4901784	175	C	04/19/2020	10:45	-132.508	43.394	0	31.70	0	10.8460	0	34.8400	8	26.680	0	31.445	0	263.0	4	97.4	4	-1E+10	1	-1E+10	1	-1E+10	1	-1E+10	1	-1E+10	1	-1E+10	1
4901784	175	C	04/19/2020	10:45	-132.508	43.394	0	33.50	0	10.8350	0	34.8400	8	26.682	0	33.230	0	263.0	4	97.4	4	-1E+10	1	-1E+10	1	-1E+10	1	-1E+10	1	-1E+10	1	-1E+10	1
4901784	175	C	04/19/2020	10:45	-132.508	43.394	0	35.40	0	10.8090	0	34.8360	8	26.683	0	35.115	0	263.1	4	97.4	4	-1E+10	1	-1E+10	1	-1E+10	1	-1E+10	1	-1E+10	1	-1E+10	1
4901784	175	C	04/19/2020	10:45	-132.508	43.394	0	37.10	0	10.7710	0	34.8340	8	26.689	0	36.801	0	263.0	4	97.3	4	-1E+10	1	-1E+10	1	-1E+10	1	-1E+10	1	-1E+10	1	-1E+10	1
4901784	175	C	04/19/2020	10:45	-132.508	43.394	0	38.80	0	10.7650	0	34.8330	8	26.689	0	38.487	0	262.9	4	97.2	4	-1E+10	1	-1E+10	1	-1E+10	1	-1E+10	1	-1E+10	1	-1E+10	1
4901784	175	C	04/19/2020	10:45	-132.508	43.394	0	40.60	0	10.7560	0	34.8330	8	26.691	0	40.272	0	262.9	4	97.2	4	-1E+10	1	-1E+10	1	-1E+10	1	-1E+10	1	-1E+10	1	-1E+10	1
4901784	175	C	04/19/2020	10:45	-132.508	43.394	0	42.30	0	10.7510	0	34.8350	8	26.693	0	41.959	0	262.9	4	97.2	4	-1E+10	1	-1E+10	1	-1E+10	1	-1E+10	1	-1E+10	1	-1E+10	1
4901784	175	C	04/19/2020	10:45	-132.508	43.394	0	44.10	0	10.7850	0	34.8420	8	26.693	0	43.744	0	262.5	4	97.1	4	-1E+10	1	-1E+10	1	-1E+10	1	-1E+10	1	-1E+10	1	-1E+10	1
4901784	175	C	04/19/2020	10:45	-132.508	43.394	0	45.80	0	10.7670	0	34.8400	8	26.694	0	45.430	0	262.5	4	97.1	4	-1E+10	1	-1E+10	1	-1E+10	1	-1E+10	1	-1E+10	1	-1E+10	1
4901784	175	C	04/19/2020	10:45	-132.508	43.394	0	47.60	0	10.7260	0	34.8350	8	26.698	0	47.215	0	262.6	4	97.0	4	-1E+10	1	-1E+10	1	-1E+10	1	-1E+10	1	-1E+10	1	-1E+10	1
4901784	175	C	04/19/2020	10:45	-132.508	43.394	0	49.30	0	10.7090	0	34.8340	8	26.700	0	48.901	0	262.5	4	96.9	4	-1E+10	1	-1E+10	1	-1E+10	1	-1E+10	1	-1E+10	1	-1E+10	1
4901784	175	C	04/19/2020	10:45	-132.508	43.394	0	51.10	0	10.7000	0	34.8360	8	26.703	0	50.686	0	262.2	4	96.8	4	-1E+10	1	-1E+10	1	-1E+10	1	-1E+10	1	-1E+10	1	-1E+10	1
4901784	175	C	04/19/2020	10:45	-132.508	43.394	0	52.80	0	10.7010	0	34.8390	8	26.705	0	52.372	0	262.1	4	96.8	4	-1E+10	1	-1E+10	1	-1E+10	1	-1E+10	1	-1E+10	1	-1E+10	1
4901784	175	C	04/19/2020	10:45	-132.508	43.394	0	54.50	0	10.6980	0	34.8390	8	26.706	0	54.058	0	261.8	4	96.7	4	-1E+10	1	-1E+10	1	-1E+10	1	-1E+10	1	-1E+10	1	-1E+10	1
4901784	175	C	04/19/2020	10:45	-132.508	43.394	0	56.30	0	10.6850	0	34.8380	8	26.708	0	55.844	0	261.7	4	96.6	4	-1E+10	1	-1E+10	1	-1E+10	1	-1E+10	1	-1E+10	1	-1E+10	1
4901784	175	C	04/19/2020	10:45	-132.508	43.394	0	58.00	0	10.6710	0	34.8370	8	26.709	0	57.530	0	261.7	4	96.6	4	-1E+10	1	-1E+10	1	-1E+10	1	-1E+10	1	-1E+10	1	-1E+10	1
4901784	175	C	04/19/2020	10:45	-132.508	43.394	0	59.80	0	10.6450	0	34.8310	8	26.709	0	59.315	0	261.6	4	96.5	4	-1E+10	1	-1E+10	1	-1E+10	1	-1E+10	1	-1E+10	1	-1E+10	1
4901784	175	C	04/19/2020	10:45	-132.508	43.394	0	61.50	0	10.6110	0	34.8250	8	26.711	0	61.001	0	261.6	4	96.4	4	-1E+10	1	-1E+10	1	-1E+10	1	-1E+10	1	-1E+10	1	-1E+10	1
4901784	175	C	04/19/2020	10:45	-132.508	43.394	0	63.30	0	10.5310	0	34.8170	8	26.719	0	62.786	0	262.0	4	96.4	4	-1E+10	1	-1E+10	1	-1E+10	1	-1E+10	1	-1E+10	1	-1E+10	1
4901784	175	C	04/19/2020	10:45	-132.508	43.394	0	65.00	0	10.5450	0	34.8230	8	26.721	0	64.472	0	262.0	4	96.4	4	-1E+10	1	-1E+10	1	-1E+10	1	-1E+10	1	-1E+10	1	-1E+10	1
4901784	175	C	04/19/2020	10:45	-132.508	43.394	0	66.80	0	10.5430	0	34.8230	8	26.721	0	66.257	0	261.8	4	96.3	4	-1E+10	1	-1E+10	1	-1E+10	1	-1E+10	1	-1E+10	1	-1E+10	1
4901784	175	C	04/19/2020	10:45	-132.508	43.394	0	68.50	0	10.5360	0	34.8190	8	26.719	0	67.943	0	261.9	4	96.3	4	-1E+10	1	-1E+10	1	-1E+10	1	-1E+10	1	-1E+10	1	-1E+10	1
4901784	175	C	04/19/2020	10:45	-132.508	43.394	0	70.20	0	10.4790	0	34.8170	8	26.728	0	69.629	0	262.4	4	96.4	4	-1E+10	1	-1E+10	1	-1E+10	1	-1E+10	1	-1E+10	1	-1E+10	1
4901784	175	C	04/19/2020	10:45	-132.508	43.394	0	72.00	0	10.4530	0	34.8150	8	26.731	0	71.414	0	262.7	4	96.5	4	-1E+10	1	-1E+10	1	-1E+10	1	-1E+10	1	-1E+10	1	-1E+10	1
4901784	175	C	04/19/2020	10:45	-132.508	43.394	0	73.80	0	10.4420	0	34.8120	8	26.731	0	73.199	0	262.8	4	96.5	4	-1E+10	1	-1E+10	1	-1E+10	1	-1E+10	1	-1E+10	1	-1E+10	1
4901784	175	C	04/19/2020	10:45	-132.508	43.394	0	75.40	0	10.4320	0	34.8110	8	26.732	0	74.785	0	262.9	4	96.5	4	-1E+10	1	-1E+10	1	-1E+10	1	-1E+10	1	-1E+10	1	-1E+10	1
4901784	175	C	04/19/2020	10:45	-132.508	43.394	0	77.20	0	10.4160	0	34.8100	8	26.734	0	76.570	0	262.8	4	96.4	4	-1E+10	1	-1E+10	1	-1E+10	1	-1E+10	1	-1E+10	1	-1E+10	1
4901784	175	C	04/19/2020	10:45	-132.508	43.394	0	79.00	0	10.4040	0	34.8090	8	26.735	0	78.355	0	262.9	4	96.4	4	-1E+10	1	-1E+10	1	-1E+10	1	-1E+10	1	-1E+10	1	-1E+10	1
4901784	175	C	04/19/2020	10:45	-132.508	43.394	0	80.70	0	10.3830	0	34.8090	8	26.739	0	80.041	0	262.8	4	96.4	4	-1E+10	1	-1E+10	1	-1E+10	1	-1E+10	1	-1E+10	1	-1E+10	1
4901784	175	C	04/19/2020	10:45	-132.508	43.394	0	82.50	0	10.3720	0	34.8070	8	26.739	0	81.826	0	262.5	4	96.2	4	-1E+10	1	-1E+10	1	-1E+10	1	-1E+10	1	-1E+10	1	-1E+10	1
4901784	175	C	04/19/2020	10:45	-132.508	43.394	0	84.30	0	10.3560	0	34.8060	8	26.741	0	83.611	0	262.6	4	96.2	4	-1E+10	1	-1E+10	1	-1E+10	1	-1E+10	1	-1E+10	1	-1E+10	1
4901784	175	C	04/19/2020	10:45	-132.508	43.394	0	86.10	0	10.3360	0	34.8050	8	26.744	0	85.396	0	262.3	4	96.1	4	-1E+10	1	-1E+10	1	-1E+10	1	-1E+10	1	-1E+10	1	-1E+10	1
4901784	175	C	04/19/2020	10:45	-132.508	43.394	0	87.80	0	10.3160	0	34.8050	8	26.747	0	87.082	0	262.2	4	96.0	4	-1E+10	1	-1E+10	1	-1E+10	1	-1E+10	1	-1E+10	1	-1E+10	1
4901784	175	C	04/19/2020	10:45	-132.508	43.394	0	89.60	0	10.2930	0	34.8050	8	26.751	0	88.867	0	262.0	4	95.9	4	-1E+10	1	-1E+10	1	-1E+10	1	-1E+10	1	-1E+10	1	-1E+10	1
4901784	175	C	04/19/2020	10:45	-132.508	43.394	0	91.30	0	10.2760	0	34.8050	8	26.754	0	90.552	0	261.9	4	95.8	4	-1E+10	1	-1E+10	1	-1E+10	1	-1E+10	1	-1E+10	1	-1E+10	1
4901784	175	C	04/19/2020	10:45	-132.508	43.394	0	93.10	0	10.2540	0	34.8050	8	26.758	0	92.337	0	261.7	4	95.7	4	-1E+10	1	-1E+10	1	-1E+10	1	-1E+10	1	-1E+10	1	-1E+10	1
4901784	175	C	04/19/2020	10:45	-132.508	43.394	0	94.80	0	10.2390	0	34.8050	8	26.761	0	94.023	0	261.6	4	95.6	4	-1E+10	1	-1E+10	1	-1E+10	1	-1E+10	1	-1E+10	1	-1E+10	1
4901784	175	C	04/19/2020	10:45	-132.508	43.394	0	96.60	0	10.2340	0	34.8060	8	26.763	0	95.808	0	261.6	4	95.6	4	-1E+10	1	-1E+10	1	-1E+10	1	-1E+10	1	-1E+10	1	-1E+10	1
4901784	175	C	04/19/2020	10:45	-132.508	43.394	0	98.40	0	10.2270	0	34.8060	8	26.764	0	97.592	0	261.4	4	95.5	4	-1E+10	1	-1E+10	1	-1E+10	1	-1E+10	1	-1E+10	1	-1E+10	1
4901784	175	C	04/19/2020	10:45	-132.508	43.394	0	100.20	0	10.2210	0	34.8070	8	26.766	0	99.377	0	261.2	4	95.4	4	-1E+10	1	-1E+10	1	-1E+10	1	-1E+10	1	-1E+10	1	-1E+10	1
4901784	175	C	04/19/2020	10:45	-132.508	43.394	0	102.00	0	10.2170	0	34.8070	8	26.766	0	101.162	0	260.9	4	95.3	4	-1E+10	1	-1E+10	1	-1E+10	1	-1E+10	1	-1E+10	1	-1E+10	1
4901784	175	C	04/19/2020	10:45	-132.508	43.394	0	104.70	0	10.2160	0	34.8090	8	26.768	0	103.839	0	260.6	4	95.2	4	-1E+10	1	-1E+10	1	-1E+10	1	-1E+10	1	-1E+10	1	-1E+10	1
4901784	175	C	04/19/2020	10:45	-132.508	43.394	0	107.40	0	10.2090	0	34.8090	8	26.769	0	106.516	0	260.1	4	95.0	4	-1E+10	1	-1E+10	1	-1E+10	1	-1E+10	1	-1E+10	1	-1E+10	1
4901784	175	C	04/19/2020	10:45	-132.508	43.394	0	110.00	0	10.1990	0	34.8090	8	26.771	0	109.094	0	259.4	4	94.8	4	-1E+10	1	-1E+10	1	-1E+10	1	-1E+10	1	-1E+10	1	-1E+10	1
4901784	175	C	04/19/2020	10:45	-132.508	43.394	0	112.80	0	10.1640	0	34.8080	8	26.777	0	111.870	0	258.6	4	94.4	4	-1E+10	1	-1E+10	1	-1E+10	1	-1E+10	1	-1E+10	1	-1E+10	1
4901784	175	C	04/19/2020	10:45	-132.508	43.394	0	114.50	0	10.1580	0	34.8070	8	26.777	0	113.556	0	258.2	4	94.2	4	-1E+10	1	-1E+10	1	-1E+10	1	-1E+10	1	-1E+10	1	-1E+10	1
4901784	175	C	04/19/2020	10:45	-132.508	43.394	0	117.20	0	10.1370	0	34.8050	8	26.779	0	116.233	0	256.5	4	93.5	4	-1E+10	1	-1E+10	1	-1E+10	1	-1E+10	1	-1E+10	1	-1E+10	1
4901784	175	C	04/19/2020	10:45	-132.508	43.394	0	119.90	0	10.1160	0	34.8010	8	26.779	0	118.910	0	253.9	4	92.6	4	-1E+10	1	-1E+10	1	-1E+10	1	-1E+10	1	-1E+10	1	-1E+10	1
4901784	175	C	04/19/2020	10:45	-132.508	43.394	0	122.50	0	10.0790	0	34.7980	8	26.784	0	121.488	0	249.8	4	91.0	4	-1E+10	1	-1E+10	1	-1E+10	1	-1E+10	1	-1E+10	1	-1E+10	1
4901784	175	C	04/19/2020	10:45	-132.508	43.394	0	125.10	0	10.0340	0	34.7970	8	26.791	0	124.065	0	243.6	4	88.6	4	-1E+10	1	-1E+10	1	-1E+10	1	-1E+10	1	-1E+10	1	-1E+10	1
4901784	175	C	04/19/2020	10:45	-132.508	43.394	0	127.00	0	10.0950	0	34.8840	8	26.848	0	125.949	0	237.8	4	86.7	4	-1E+10	1	-1E+10	1	-1E+10	1	-1E+10	1	-1E+10	1	-1E+10	1
4901784	175	C	04/19/2020	10:45	-132.508	43.394	0	129.90	0	9.8750	0	34.9290	8	26.921	0	128.824	0	233.1	4	84.6	4	-1E+10	1	-1E+10	1	-1E+10	1	-1E+10	1	-1E+10	1	-1E+10	1
4901784	175	C	04/19/2020	10:45	-132.508	43.394	0	132.30	0	9.6360	0	34.9840	8	27.004	0	131.203	0	230.6	4	83.3	4	-1E+10	1	-1E+10	1	-1E+10	1	-1E+10	1	-1E+10	1	-1E+10	1
4901784	175	C	04/19/2020	10:45	-132.508	43.394	0	135.40	0	9.4680	0	35.0190	8	27.059	0	134.277	0	227.5	4	81.9	4	-1E+10	1	-1E+10	1	-1E+10	1	-1E+10	1	-1E+10	1	-1E+10	1
4901784	175	C	04/19/2020	10:45	-132.508	43.394	0	137.80	0	9.1670	0	35.0770	8	27.154	0	136.656	0	225.5	4	80.7	4	-1E+10	1	-1E+10	1	-1E+10	1	-1E+10	1	-1E+10	1	-1E+10	1
4901784	175	C	04/19/2020	10:45	-132.508	43.394	0	140.10	0	9.1120	0	35.0840	8	27.169	0	138.936	0	223.0	4	79.7	4	-1E+10	1	-1E+10	1	-1E+10	1	-1E+10	1	-1E+10	1	-1E+10	1
4901784	175	C	04/19/2020	10:45	-132.508	43.394	0	142.50	0	8.7740	0	35.2090	8	27.321	0	141.315	0	221.0	4	78.5	4	-1E+10	1	-1E+10	1	-1E+10	1	-1E+10	1	-1E+10	1	-1E+10	1
4901784	175	C	04/19/2020	10:45	-132.508	43.394	0	144.80	0	8.6930	0	35.2400	8	27.358	0	143.596	0	219.3	4	77.8	4	-1E+10	1	-1E+10	1	-1E+10	1	-1E+10	1	-1E+10	1	-1E+10	1
4901784	175	C	04/19/2020	10:45	-132.508	43.394	0	147.20	0	8.5380	0	35.3090	8	27.437	0	145.975	0	217.8	4	77.0	4	-1E+10	1	-1E+10	1	-1E+10	1	-1E+10	1	-1E+10	1	-1E+10	1
4901784	175	C	04/19/2020	10:45	-132.508	43.394	0	150.20	0	8.4510	0	35.3680	8	27.497	0	148.949	0	215.4	4	76.0	4	-1E+10	1	-1E+10	1	-1E+10	1	-1E+10	1	-1E+10	1	-1E+10	1
4901784	175	C	04/19/2020	10:45	-132.508	43.394	0	152.40	0	8.3770	0	35.4750	8	27.592	0	151.130	0	213.0	4	75.1	4	-1E+10	1	-1E+10	1	-1E+10	1	-1E+10	1	-1E+10	1	-1E+10	1
4901784	175	C	04/19/2020	10:45	-132.508	43.394	0	154.50	0	8.3580	0	35.5120	8	27.624	0	153.211	0	211.2	4	74.5	4	-1E+10	1	-1E+10	1	-1E+10	1	-1E+10	1	-1E+10	1	-1E+10	1
4901784	175	C	04/19/2020	10:45	-132.508	43.394	0	157.40	0	8.2460	0	35.6170	8	27.724	0	156.086	0	208.4	4	73.4	4	-1E+10	1	-1E+10	1	-1E+10	1	-1E+10	1	-1E+10	1	-1E+10	1
4901784	175	C	04/19/2020	10:45	-132.508	43.394	0	160.40	0	8.1460	0	35.7180	8	27.819	0	159.060	0	206.1	4	72.4	4	-1E+10	1	-1E+10	1	-1E+10	1	-1E+10	1	-1E+10	1	-1E+10	1
4901784	175	C	04/19/2020	10:45	-132.508	43.394	0	162.70	0	8.1570	0	35.7510	8	27.843	0	161.340	0	203.8	4	71.7	4	-1E+10	1	-1E+10	1	-1E+10	1	-1E+10	1	-1E+10	1	-1E+10	1
4901784	175	C	04/19/2020	10:45	-132.508	43.394	0	165.20	0	8.1280	0	35.7960	8	27.883	0	163.818	0	201.8	4	71.0	4	-1E+10	1	-1E+10	1	-1E+10	1	-1E+10	1	-1E+10	1	-1E+10	1
4901784	175	C	04/19/2020	10:45	-132.508	43.394	0	167.70	0	8.1210	0	35.8480	8	27.925	0	166.296	0	199.6	4	70.2	4	-1E+10	1	-1E+10	1	-1E+10	1	-1E+10	1	-1E+10	1	-1E+10	1
4901784	175	C	04/19/2020	10:45	-132.508	43.394	0	170.20	0	8.1230	0	35.8640	8	27.937	0	168.774	0	197.5	4	69.4	4	-1E+10	1	-1E+10	1	-1E+10	1	-1E+10	1	-1E+10	1	-1E+10	1
4901784	175	C	04/19/2020	10:45	-132.508	43.394	0	172.80	0	8.1680	0	35.9000	8	27.958	0	171.351	0	195.0	4	68.7	4	-1E+10	1	-1E+10	1	-1E+10	1	-1E+10	1	-1E+10	1	-1E+10	1
4901784	175	C	04/19/2020	10:45	-132.508	43.394	0	174.60	0	8.1580	0	35.9240	8	27.979	0	173.135	0	193.8	4	68.2	4	-1E+10	1	-1E+10	1	-1E+10	1	-1E+10	1	-1E+10	1	-1E+10	1
4901784	175	C	04/19/2020	10:45	-132.508	43.394	0	177.20	0	8.1320	0	35.9720	8	28.021	0	175.712	0	192.4	4	67.7	4	-1E+10	1	-1E+10	1	-1E+10	1	-1E+10	1	-1E+10	1	-1E+10	1
4901784	175	C	04/19/2020	10:45	-132.508	43.394	0	180.30	0	8.1150	0	36.0050	8	28.049	0	178.785	0	190.7	4	67.1	4	-1E+10	1	-1E+10	1	-1E+10	1	-1E+10	1	-1E+10	1	-1E+10	1
4901784	175	C	04/19/2020	10:45	-132.508	43.394	0	183.00	0	8.1100	0	36.0330	8	28.072	0	181.461	0	188.7	4	66.4	4	-1E+10	1	-1E+10	1	-1E+10	1	-1E+10	1	-1E+10	1	-1E+10	1
4901784	175	C	04/19/2020	10:45	-132.508	43.394	0	185.20	0	8.1010	0	36.0740	8	28.106	0	183.641	0	186.8	4	65.8	4	-1E+10	1	-1E+10	1	-1E+10	1	-1E+10	1	-1E+10	1	-1E+10	1
4901784	175	C	04/19/2020	10:45	-132.508	43.394	0	187.50	0	8.0880	0	36.1060	8	28.133	0	185.921	0	185.2	4	65.2	4	-1E+10	1	-1E+10	1	-1E+10	1	-1E+10	1	-1E+10	1	-1E+10	1
4901784	175	C	04/19/2020	10:45	-132.508	43.394	0	189.80	0	8.0770	0	36.1350	8	28.157	0	188.201	0	183.4	4	64.6	4	-1E+10	1	-1E+10	1	-1E+10	1	-1E+10	1	-1E+10	1	-1E+10	1
4901784	175	C	04/19/2020	10:45	-132.508	43.394	0	192.30	0	8.0590	0	36.1770	8	28.193	0	190.678	0	181.3	4	63.8	4	-1E+10	1	-1E+10	1	-1E+10	1	-1E+10	1	-1E+10	1	-1E+10	1
4901784	175	C	04/19/2020	10:45	-132.508	43.394	0	194.80	0	8.0590	0	36.2010	8	28.212	0	193.156	0	178.5	4	62.8	4	-1E+10	1	-1E+10	1	-1E+10	1	-1E+10	1	-1E+10	1	-1E+10	1
4901784	175	C	04/19/2020	10:45	-132.508	43.394	0	197.30	0	8.0740	0	36.2350	8	28.236	0	195.634	0	176.2	4	62.1	4	-1E+10	1	-1E+10	1	-1E+10	1	-1E+10	1	-1E+10	1	-1E+10	1
4901784	175	C	04/19/2020	10:45	-132.508	43.394	0	199.90	0	8.0670	0	36.2510	8	28.250	0	198.211	0	175.1	4	61.7	4	-1E+10	1	-1E+10	1	-1E+10	1	-1E+10	1	-1E+10	1	-1E+10	1
4901784	175	C	04/19/2020	10:45	-132.508	43.394	0	202.40	0	8.0630	0	36.2580	8	28.256	0	200.688	0	174.0	4	61.3	4	-1E+10	1	-1E+10	1	-1E+10	1	-1E+10	1	-1E+10	1	-1E+10	1
4901784	175	C	04/19/2020	10:45	-132.508	43.394	0	205.00	0	8.0560	0	36.2750	8	28.271	0	203.265	0	172.7	4	60.8	4	-1E+10	1	-1E+10	1	-1E+10	1	-1E+10	1	-1E+10	1	-1E+10	1
4901784	175	C	04/19/2020	10:45	-132.508	43.394	0	207.50	0	8.0520	0	36.2840	8	28.279	0	205.743	0	171.2	4	60.3	4	-1E+10	1	-1E+10	1	-1E+10	1	-1E+10	1	-1E+10	1	-1E+10	1
4901784	175	C	04/19/2020	10:45	-132.508	43.394	0	210.10	0	8.0420	0	36.2980	8	28.291	0	208.319	0	169.5	4	59.7	4	-1E+10	1	-1E+10	1	-1E+10	1	-1E+10	1	-1E+10	1	-1E+10	1
4901784	175	C	04/19/2020	10:45	-132.508	43.394	0	212.80	0	8.0420	0	36.3130	8	28.303	0	210.995	0	167.7	4	59.1	4	-1E+10	1	-1E+10	1	-1E+10	1	-1E+10	1	-1E+10	1	-1E+10	1
4901784	175	C	04/19/2020	10:45	-132.508	43.394	0	215.50	0	8.0430	0	36.3250	8	28.312	0	213.671	0	166.2	4	58.6	4	-1E+10	1	-1E+10	1	-1E+10	1	-1E+10	1	-1E+10	1	-1E+10	1
4901784	175	C	04/19/2020	10:45	-132.508	43.394	0	217.30	0	8.0400	0	36.3300	8	28.317	0	215.455	0	165.6	4	58.3	4	-1E+10	1	-1E+10	1	-1E+10	1	-1E+10	1	-1E+10	1	-1E+10	1
4901784	175	C	04/19/2020	10:45	-132.508	43.394	0	219.90	0	8.0240	0	36.3380	8	28.325	0	218.031	0	164.4	4	57.9	4	-1E+10	1	-1E+10	1	-1E+10	1	-1E+10	1	-1E+10	1	-1E+10	1
4901784	175	C	04/19/2020	10:45	-132.508	43.394	0	222.50	0	7.9790	0	36.3540	8	28.345	0	220.608	0	163.0	4	57.3	4	-1E+10	1	-1E+10	1	-1E+10	1	-1E+10	1	-1E+10	1	-1E+10	1
4901784	175	C	04/19/2020	10:45	-132.508	43.394	0	225.20	0	7.9560	0	36.3650	8	28.357	0	223.283	0	161.5	4	56.8	4	-1E+10	1	-1E+10	1	-1E+10	1	-1E+10	1	-1E+10	1	-1E+10	1
4901784	175	C	04/19/2020	10:45	-132.508	43.394	0	227.80	0	7.9330	0	36.3710	8	28.365	0	225.860	0	160.3	4	56.4	4	-1E+10	1	-1E+10	1	-1E+10	1	-1E+10	1	-1E+10	1	-1E+10	1
4901784	175	C	04/19/2020	10:45	-132.508	43.394	0	229.60	0	7.9270	0	36.3720	8	28.367	0	227.643	0	159.5	4	56.1	4	-1E+10	1	-1E+10	1	-1E+10	1	-1E+10	1	-1E+10	1	-1E+10	1
4901784	175	C	04/19/2020	10:45	-132.508	43.394	0	232.20	0	7.9220	0	36.3730	8	28.369	0	230.220	0	157.9	4	55.5	4	-1E+10	1	-1E+10	1	-1E+10	1	-1E+10	1	-1E+10	1	-1E+10	1
4901784	175	C	04/19/2020	10:45	-132.508	43.394	0	234.90	0	7.8930	0	36.3810	8	28.379	0	232.895	0	156.0	4	54.8	4	-1E+10	1	-1E+10	1	-1E+10	1	-1E+10	1	-1E+10	1	-1E+10	1
4901784	175	C	04/19/2020	10:45	-132.508	43.394	0	237.60	0	7.8570	0	36.3850	8	28.388	0	235.571	0	155.0	4	54.4	4	-1E+10	1	-1E+10	1	-1E+10	1	-1E+10	1	-1E+10	1	-1E+10	1
4901784	175	C	04/19/2020	10:45	-132.508	43.394	0	240.20	0	7.8440	0	36.3860	8	28.391	0	238.147	0	154.1	4	54.1	4	-1E+10	1	-1E+10	1	-1E+10	1	-1E+10	1	-1E+10	1	-1E+10	1
4901784	175	C	04/19/2020	10:45	-132.508	43.394	0	242.00	0	7.8310	0	36.3850	8	28.392	0	239.931	0	153.5	4	53.9	4	-1E+10	1	-1E+10	1	-1E+10	1	-1E+10	1	-1E+10	1	-1E+10	1
4901784	175	C	04/19/2020	10:45	-132.508	43.394	0	244.80	0	7.7890	0	36.3880	8	28.401	0	242.705	0	152.3	4	53.4	4	-1E+10	1	-1E+10	1	-1E+10	1	-1E+10	1	-1E+10	1	-1E+10	1
4901784	175	C	04/19/2020	10:45	-132.508	43.394	0	247.50	0	7.7260	0	36.3950	8	28.416	0	245.380	0	151.0	4	52.9	4	-1E+10	1	-1E+10	1	-1E+10	1	-1E+10	1	-1E+10	1	-1E+10	1
4901784	175	C	04/19/2020	10:45	-132.508	43.394	0	249.40	0	7.7150	0	36.3950	8	28.418	0	247.263	0	150.4	4	52.6	4	-1E+10	1	-1E+10	1	-1E+10	1	-1E+10	1	-1E+10	1	-1E+10	1
4901784	175	C	04/19/2020	10:45	-132.508	43.394	0	252.20	0	7.6750	0	36.3980	8	28.426	0	250.037	0	149.6	4	52.3	4	-1E+10	1	-1E+10	1	-1E+10	1	-1E+10	1	-1E+10	1	-1E+10	1
4901784	175	C	04/19/2020	10:45	-132.508	43.394	0	255.00	0	7.6420	0	36.3990	8	28.432	0	252.811	0	149.2	4	52.1	4	-1E+10	1	-1E+10	1	-1E+10	1	-1E+10	1	-1E+10	1	-1E+10	1
4901784	175	C	04/19/2020	10:45	-132.508	43.394	0	256.90	0	7.6290	0	36.3990	8	28.434	0	254.694	0	148.9	4	52.0	4	-1E+10	1	-1E+10	1	-1E+10	1	-1E+10	1	-1E+10	1	-1E+10	1
4901784	175	C	04/19/2020	10:45	-132.508	43.394	0	259.70	0	7.6130	0	36.3990	8	28.436	0	257.468	0	148.5	4	51.8	4	-1E+10	1	-1E+10	1	-1E+10	1	-1E+10	1	-1E+10	1	-1E+10	1
4901784	175	C	04/19/2020	10:45	-132.508	43.394	0	262.50	0	7.5900	0	36.3970	8	28.438	0	260.242	0	148.0	4	51.7	4	-1E+10	1	-1E+10	1	-1E+10	1	-1E+10	1	-1E+10	1	-1E+10	1
4901784	175	C	04/19/2020	10:45	-132.508	43.394	0	264.90	0	7.5480	0	36.3990	8	28.446	0	262.620	0	147.6	4	51.5	4	-1E+10	1	-1E+10	1	-1E+10	1	-1E+10	1	-1E+10	1	-1E+10	1
4901784	175	C	04/19/2020	10:45	-132.508	43.394	0	267.50	0	7.5290	0	36.3990	8	28.449	0	265.196	0	147.1	4	51.2	4	-1E+10	1	-1E+10	1	-1E+10	1	-1E+10	1	-1E+10	1	-1E+10	1
4901784	175	C	04/19/2020	10:45	-132.508	43.394	0	269.90	0	7.5060	0	36.3980	8	28.451	0	267.574	0	146.4	4	51.0	4	-1E+10	1	-1E+10	1	-1E+10	1	-1E+10	1	-1E+10	1	-1E+10	1
4901784	175	C	04/19/2020	10:45	-132.508	43.394	0	272.20	0	7.4430	0	36.4000	8	28.462	0	269.853	0	145.1	4	50.5	4	-1E+10	1	-1E+10	1	-1E+10	1	-1E+10	1	-1E+10	1	-1E+10	1
4901784	175	C	04/19/2020	10:45	-132.508	43.394	0	274.70	0	7.3960	0	36.4020	8	28.471	0	272.329	0	144.1	4	50.0	4	-1E+10	1	-1E+10	1	-1E+10	1	-1E+10	1	-1E+10	1	-1E+10	1
4901784	175	C	04/19/2020	10:45	-132.508	43.394	0	277.10	0	7.3730	0	36.4020	8	28.474	0	274.707	0	143.1	4	49.7	4	-1E+10	1	-1E+10	1	-1E+10	1	-1E+10	1	-1E+10	1	-1E+10	1
4901784	175	C	04/19/2020	10:45	-132.508	43.394	0	280.40	0	7.3340	0	36.4030	8	28.481	0	277.976	0	141.6	4	49.1	4	-1E+10	1	-1E+10	1	-1E+10	1	-1E+10	1	-1E+10	1	-1E+10	1
4901784	175	C	04/19/2020	10:45	-132.508	43.394	0	282.80	0	7.3120	0	36.4010	8	28.482	0	280.354	0	140.3	4	48.7	4	-1E+10	1	-1E+10	1	-1E+10	1	-1E+10	1	-1E+10	1	-1E+10	1
4901784	175	C	04/19/2020	10:45	-132.508	43.394	0	285.20	0	7.2650	0	36.4030	8	28.491	0	282.732	0	139.1	4	48.2	4	-1E+10	1	-1E+10	1	-1E+10	1	-1E+10	1	-1E+10	1	-1E+10	1
4901784	175	C	04/19/2020	10:45	-132.508	43.394	0	287.60	0	7.2240	0	36.4040	8	28.498	0	285.109	0	138.0	4	47.8	4	-1E+10	1	-1E+10	1	-1E+10	1	-1E+10	1	-1E+10	1	-1E+10	1
4901784	175	C	04/19/2020	10:45	-132.508	43.394	0	290.10	0	7.1980	0	36.4050	8	28.502	0	287.586	0	137.3	4	47.5	4	-1E+10	1	-1E+10	1	-1E+10	1	-1E+10	1	-1E+10	1	-1E+10	1
4901784	175	C	04/19/2020	10:45	-132.508	43.394	0	292.50	0	7.1890	0	36.4050	8	28.503	0	289.963	0	136.5	4	47.2	4	-1E+10	1	-1E+10	1	-1E+10	1	-1E+10	1	-1E+10	1	-1E+10	1
4901784	175	C	04/19/2020	10:45	-132.508	43.394	0	294.90	0	7.1770	0	36.4040	8	28.504	0	292.341	0	135.1	4	46.7	4	-1E+10	1	-1E+10	1	-1E+10	1	-1E+10	1	-1E+10	1	-1E+10	1
4901784	175	C	04/19/2020	10:45	-132.508	43.394	0	297.50	0	7.1670	0	36.4000	8	28.503	0	294.916	0	133.1	4	46.0	4	-1E+10	1	-1E+10	1	-1E+10	1	-1E+10	1	-1E+10	1	-1E+10	1
4901784	175	C	04/19/2020	10:45	-132.508	43.394	0	299.90	0	7.0790	0	36.4050	8	28.519	0	297.294	0	131.1	4	45.2	4	-1E+10	1	-1E+10	1	-1E+10	1	-1E+10	1	-1E+10	1	-1E+10	1
4901784	175	C	04/19/2020	10:45	-132.508	43.394	0	302.40	0	7.0200	0	36.4090	8	28.531	0	299.770	0	130.4	4	44.9	4	-1E+10	1	-1E+10	1	-1E+10	1	-1E+10	1	-1E+10	1	-1E+10	1
4901784	175	C	04/19/2020	10:45	-132.508	43.394	0	304.80	0	7.0060	0	36.4070	8	28.531	0	302.148	0	129.4	4	44.6	4	-1E+10	1	-1E+10	1	-1E+10	1	-1E+10	1	-1E+10	1	-1E+10	1
4901784	175	C	04/19/2020	10:45	-132.508	43.394	0	307.30	0	6.9900	0	36.4050	8	28.532	0	304.624	0	127.9	4	44.0	4	-1E+10	1	-1E+10	1	-1E+10	1	-1E+10	1	-1E+10	1	-1E+10	1
4901784	175	C	04/19/2020	10:45	-132.508	43.394	0	309.80	0	6.9320	0	36.4080	8	28.543	0	307.101	0	126.2	4	43.4	4	-1E+10	1	-1E+10	1	-1E+10	1	-1E+10	1	-1E+10	1	-1E+10	1
4901784	175	C	04/19/2020	10:45	-132.508	43.394	0	312.30	0	6.8950	0	36.4090	8	28.549	0	309.577	0	124.4	4	42.7	4	-1E+10	1	-1E+10	1	-1E+10	1	-1E+10	1	-1E+10	1	-1E+10	1
4901784	175	C	04/19/2020	10:45	-132.508	43.394	0	314.90	0	6.8620	0	36.4110	8	28.555	0	312.152	0	122.5	4	42.0	4	-1E+10	1	-1E+10	1	-1E+10	1	-1E+10	1	-1E+10	1	-1E+10	1
4901784	175	C	04/19/2020	10:45	-132.508	43.394	0	317.40	0	6.8480	0	36.4110	8	28.557	0	314.629	0	120.2	4	41.3	4	-1E+10	1	-1E+10	1	-1E+10	1	-1E+10	1	-1E+10	1	-1E+10	1
4901784	175	C	04/19/2020	10:45	-132.508	43.394	0	319.90	0	6.8060	0	36.4160	8	28.567	0	317.105	0	118.6	4	40.6	4	-1E+10	1	-1E+10	1	-1E+10	1	-1E+10	1	-1E+10	1	-1E+10	1
4901784	175	C	04/19/2020	10:45	-132.508	43.394	0	322.30	0	6.7830	0	36.4160	8	28.570	0	319.482	0	118.1	4	40.5	4	-1E+10	1	-1E+10	1	-1E+10	1	-1E+10	1	-1E+10	1	-1E+10	1
4901784	175	C	04/19/2020	10:45	-132.508	43.394	0	324.90	0	6.7540	0	36.4160	8	28.574	0	322.057	0	117.5	4	40.2	4	-1E+10	1	-1E+10	1	-1E+10	1	-1E+10	1	-1E+10	1	-1E+10	1
4901784	175	C	04/19/2020	10:45	-132.508	43.394	0	327.40	0	6.7110	0	36.4160	8	28.580	0	324.533	0	118.1	4	40.4	4	-1E+10	1	-1E+10	1	-1E+10	1	-1E+10	1	-1E+10	1	-1E+10	1
4901784	175	C	04/19/2020	10:45	-132.508	43.394	0	329.90	0	6.6600	0	36.4150	8	28.587	0	327.010	0	118.3	4	40.4	4	-1E+10	1	-1E+10	1	-1E+10	1	-1E+10	1	-1E+10	1	-1E+10	1
4901784	175	C	04/19/2020	10:45	-132.508	43.394	0	332.40	0	6.6180	0	36.4150	8	28.593	0	329.486	0	118.2	4	40.3	4	-1E+10	1	-1E+10	1	-1E+10	1	-1E+10	1	-1E+10	1	-1E+10	1
4901784	175	C	04/19/2020	10:45	-132.508	43.394	0	335.00	0	6.6100	0	36.4170	8	28.595	0	332.061	0	117.4	4	40.1	4	-1E+10	1	-1E+10	1	-1E+10	1	-1E+10	1	-1E+10	1	-1E+10	1
4901784	175	C	04/19/2020	10:45	-132.508	43.394	0	337.50	0	6.5730	0	36.4180	8	28.601	0	334.537	0	116.5	4	39.7	4	-1E+10	1	-1E+10	1	-1E+10	1	-1E+10	1	-1E+10	1	-1E+10	1
4901784	175	C	04/19/2020	10:45	-132.508	43.394	0	340.10	0	6.5650	0	36.4180	8	28.602	0	337.112	0	115.6	4	39.4	4	-1E+10	1	-1E+10	1	-1E+10	1	-1E+10	1	-1E+10	1	-1E+10	1
4901784	175	C	04/19/2020	10:45	-132.508	43.394	0	342.60	0	6.5470	0	36.4170	8	28.604	0	339.588	0	114.2	4	38.9	4	-1E+10	1	-1E+10	1	-1E+10	1	-1E+10	1	-1E+10	1	-1E+10	1
4901784	175	C	04/19/2020	10:45	-132.508	43.394	0	345.20	0	6.5240	0	36.4190	8	28.609	0	342.163	0	111.9	4	38.1	4	-1E+10	1	-1E+10	1	-1E+10	1	-1E+10	1	-1E+10	1	-1E+10	1
4901784	175	C	04/19/2020	10:45	-132.508	43.394	0	347.80	0	6.5000	0	36.4210	8	28.614	0	344.738	0	108.8	4	37.0	4	-1E+10	1	-1E+10	1	-1E+10	1	-1E+10	1	-1E+10	1	-1E+10	1
4901784	175	C	04/19/2020	10:45	-132.508	43.394	0	349.50	0	6.5050	0	36.4240	8	28.615	0	346.421	0	106.3	4	36.2	4	-1E+10	1	-1E+10	1	-1E+10	1	-1E+10	1	-1E+10	1	-1E+10	1
4901784	175	C	04/19/2020	10:45	-132.508	43.394	0	352.20	0	6.4820	0	36.4260	8	28.620	0	349.095	0	105.2	4	35.8	4	-1E+10	1	-1E+10	1	-1E+10	1	-1E+10	1	-1E+10	1	-1E+10	1
4901784	175	C	04/19/2020	10:45	-132.508	43.394	0	354.80	0	6.4470	0	36.4280	8	28.627	0	351.670	0	103.9	4	35.3	4	-1E+10	1	-1E+10	1	-1E+10	1	-1E+10	1	-1E+10	1	-1E+10	1
4901784	175	C	04/19/2020	10:45	-132.508	43.394	0	357.40	0	6.4140	0	36.4300	8	28.633	0	354.245	0	103.0	4	35.0	4	-1E+10	1	-1E+10	1	-1E+10	1	-1E+10	1	-1E+10	1	-1E+10	1
4901784	175	C	04/19/2020	10:45	-132.508	43.394	0	359.90	0	6.3900	0	36.4310	8	28.637	0	356.721	0	102.2	4	34.7	4	-1E+10	1	-1E+10	1	-1E+10	1	-1E+10	1	-1E+10	1	-1E+10	1
4901784	175	C	04/19/2020	10:45	-132.508	43.394	0	362.50	0	6.3730	0	36.4300	8	28.638	0	359.296	0	101.3	4	34.4	4	-1E+10	1	-1E+10	1	-1E+10	1	-1E+10	1	-1E+10	1	-1E+10	1
4901784	175	C	04/19/2020	10:45	-132.508	43.394	0	365.20	0	6.3540	0	36.4310	8	28.642	0	361.969	0	100.1	4	34.0	4	-1E+10	1	-1E+10	1	-1E+10	1	-1E+10	1	-1E+10	1	-1E+10	1
4901784	175	C	04/19/2020	10:45	-132.508	43.394	0	367.70	0	6.3140	0	36.4320	8	28.648	0	364.445	0	99.7	4	33.8	4	-1E+10	1	-1E+10	1	-1E+10	1	-1E+10	1	-1E+10	1	-1E+10	1
4901784	175	C	04/19/2020	10:45	-132.508	43.394	0	370.20	0	6.2900	0	36.4310	8	28.650	0	366.921	0	99.4	4	33.7	4	-1E+10	1	-1E+10	1	-1E+10	1	-1E+10	1	-1E+10	1	-1E+10	1
4901784	175	C	04/19/2020	10:45	-132.508	43.394	0	372.70	0	6.2670	0	36.4310	8	28.653	0	369.396	0	99.3	4	33.6	4	-1E+10	1	-1E+10	1	-1E+10	1	-1E+10	1	-1E+10	1	-1E+10	1
4901784	175	C	04/19/2020	10:45	-132.508	43.394	0	375.30	0	6.1920	0	36.4320	8	28.664	0	371.971	0	98.8	4	33.4	4	-1E+10	1	-1E+10	1	-1E+10	1	-1E+10	1	-1E+10	1	-1E+10	1
4901784	175	C	04/19/2020	10:45	-132.508	43.394	0	377.80	0	6.1720	0	36.4340	8	28.669	0	374.447	0	97.5	4	33.0	4	-1E+10	1	-1E+10	1	-1E+10	1	-1E+10	1	-1E+10	1	-1E+10	1
4901784	175	C	04/19/2020	10:45	-132.508	43.394	0	380.30	0	6.1440	0	36.4340	8	28.672	0	376.922	0	96.4	4	32.5	4	-1E+10	1	-1E+10	1	-1E+10	1	-1E+10	1	-1E+10	1	-1E+10	1
4901784	175	C	04/19/2020	10:45	-132.508	43.394	0	382.90	0	6.1370	0	36.4340	8	28.673	0	379.497	0	94.8	4	32.0	4	-1E+10	1	-1E+10	1	-1E+10	1	-1E+10	1	-1E+10	1	-1E+10	1
4901784	175	C	04/19/2020	10:45	-132.508	43.394	0	385.40	0	6.1100	0	36.4360	8	28.678	0	381.972	0	92.8	4	31.3	4	-1E+10	1	-1E+10	1	-1E+10	1	-1E+10	1	-1E+10	1	-1E+10	1
4901784	175	C	04/19/2020	10:45	-132.508	43.394	0	387.90	0	6.0880	0	36.4400	8	28.685	0	384.448	0	90.7	4	30.6	4	-1E+10	1	-1E+10	1	-1E+10	1	-1E+10	1	-1E+10	1	-1E+10	1
4901784	175	C	04/19/2020	10:45	-132.508	43.394	0	390.40	0	6.0520	0	36.4410	8	28.690	0	386.923	0	89.9	4	30.3	4	-1E+10	1	-1E+10	1	-1E+10	1	-1E+10	1	-1E+10	1	-1E+10	1
4901784	175	C	04/19/2020	10:45	-132.508	43.394	0	392.10	0	6.0300	0	36.4410	8	28.693	0	388.606	0	89.5	4	30.1	4	-1E+10	1	-1E+10	1	-1E+10	1	-1E+10	1	-1E+10	1	-1E+10	1
4901784	175	C	04/19/2020	10:45	-132.508	43.394	0	394.70	0	6.0050	0	36.4410	8	28.696	0	391.181	0	88.6	4	29.8	4	-1E+10	1	-1E+10	1	-1E+10	1	-1E+10	1	-1E+10	1	-1E+10	1
4901784	175	C	04/19/2020	10:45	-132.508	43.394	0	397.30	0	5.9800	0	36.4400	8	28.699	0	393.755	0	87.6	4	29.5	4	-1E+10	1	-1E+10	1	-1E+10	1	-1E+10	1	-1E+10	1	-1E+10	1
4901784	175	C	04/19/2020	10:45	-132.508	43.394	0	399.90	0	5.9470	0	36.4390	8	28.702	0	396.329	0	86.1	4	28.9	4	-1E+10	1	-1E+10	1	-1E+10	1	-1E+10	1	-1E+10	1	-1E+10	1
4901784	175	C	04/19/2020	10:45	-132.508	43.394	0	402.60	0	5.8820	0	36.4420	8	28.713	0	399.003	0	84.7	4	28.4	4	-1E+10	1	-1E+10	1	-1E+10	1	-1E+10	1	-1E+10	1	-1E+10	1
4901784	175	C	04/19/2020	10:45	-132.508	43.394	0	405.20	0	5.8310	0	36.4450	8	28.722	0	401.577	0	83.8	4	28.1	4	-1E+10	1	-1E+10	1	-1E+10	1	-1E+10	1	-1E+10	1	-1E+10	1
4901784	175	C	04/19/2020	10:45	-132.508	43.394	0	407.80	0	5.7890	0	36.4440	8	28.727	0	404.151	0	83.2	4	27.9	4	-1E+10	1	-1E+10	1	-1E+10	1	-1E+10	1	-1E+10	1	-1E+10	1
4901784	175	C	04/19/2020	10:45	-132.508	43.394	0	409.50	0	5.7650	0	36.4440	8	28.730	0	405.834	0	82.6	4	27.7	4	-1E+10	1	-1E+10	1	-1E+10	1	-1E+10	1	-1E+10	1	-1E+10	1
4901784	175	C	04/19/2020	10:45	-132.508	43.394	0	412.20	0	5.7240	0	36.4470	8	28.738	0	408.507	0	81.6	4	27.3	4	-1E+10	1	-1E+10	1	-1E+10	1	-1E+10	1	-1E+10	1	-1E+10	1
4901784	175	C	04/19/2020	10:45	-132.508	43.394	0	414.80	0	5.6940	0	36.4490	8	28.743	0	411.081	0	80.7	4	27.0	4	-1E+10	1	-1E+10	1	-1E+10	1	-1E+10	1	-1E+10	1	-1E+10	1
4901784	175	C	04/19/2020	10:45	-132.508	43.394	0	417.40	0	5.6600	0	36.4510	8	28.749	0	413.656	0	80.1	4	26.8	4	-1E+10	1	-1E+10	1	-1E+10	1	-1E+10	1	-1E+10	1	-1E+10	1
4901784	175	C	04/19/2020	10:45	-132.508	43.394	0	420.00	0	5.6250	0	36.4510	8	28.754	0	416.230	0	79.6	4	26.6	4	-1E+10	1	-1E+10	1	-1E+10	1	-1E+10	1	-1E+10	1	-1E+10	1
4901784	175	C	04/19/2020	10:45	-132.508	43.394	0	422.60	0	5.6030	0	36.4500	8	28.756	0	418.804	0	78.3	4	26.1	4	-1E+10	1	-1E+10	1	-1E+10	1	-1E+10	1	-1E+10	1	-1E+10	1
4901784	175	C	04/19/2020	10:45	-132.508	43.394	0	425.20	0	5.5680	0	36.4520	8	28.762	0	421.378	0	76.4	4	25.5	4	-1E+10	1	-1E+10	1	-1E+10	1	-1E+10	1	-1E+10	1	-1E+10	1
4901784	175	C	04/19/2020	10:45	-132.508	43.394	0	427.80	0	5.5500	0	36.4560	8	28.767	0	423.952	0	74.0	4	24.6	4	-1E+10	1	-1E+10	1	-1E+10	1	-1E+10	1	-1E+10	1	-1E+10	1
4901784	175	C	04/19/2020	10:45	-132.508	43.394	0	430.30	0	5.5180	0	36.4660	8	28.779	0	426.427	0	71.8	4	23.9	4	-1E+10	1	-1E+10	1	-1E+10	1	-1E+10	1	-1E+10	1	-1E+10	1
4901784	175	C	04/19/2020	10:45	-132.508	43.394	0	432.10	0	5.5200	0	36.4690	8	28.781	0	428.209	0	71.1	4	23.7	4	-1E+10	1	-1E+10	1	-1E+10	1	-1E+10	1	-1E+10	1	-1E+10	1
4901784	175	C	04/19/2020	10:45	-132.508	43.394	0	434.60	0	5.5070	0	36.4700	8	28.784	0	430.683	0	70.4	4	23.4	4	-1E+10	1	-1E+10	1	-1E+10	1	-1E+10	1	-1E+10	1	-1E+10	1
4901784	175	C	04/19/2020	10:45	-132.508	43.394	0	437.10	0	5.4860	0	36.4720	8	28.788	0	433.158	0	69.9	4	23.3	4	-1E+10	1	-1E+10	1	-1E+10	1	-1E+10	1	-1E+10	1	-1E+10	1
4901784	175	C	04/19/2020	10:45	-132.508	43.394	0	439.70	0	5.4540	0	36.4730	8	28.793	0	435.732	0	69.7	4	23.2	4	-1E+10	1	-1E+10	1	-1E+10	1	-1E+10	1	-1E+10	1	-1E+10	1
4901784	175	C	04/19/2020	10:45	-132.508	43.394	0	442.30	0	5.3810	0	36.4740	8	28.803	0	438.306	0	68.8	4	22.8	4	-1E+10	1	-1E+10	1	-1E+10	1	-1E+10	1	-1E+10	1	-1E+10	1
4901784	175	C	04/19/2020	10:45	-132.508	43.394	0	444.80	0	5.4400	0	36.4810	8	28.801	0	440.781	0	67.6	4	22.5	4	-1E+10	1	-1E+10	1	-1E+10	1	-1E+10	1	-1E+10	1	-1E+10	1
4901784	175	C	04/19/2020	10:45	-132.508	43.394	0	447.40	0	5.4250	0	36.4830	8	28.804	0	443.354	0	67.8	4	22.5	4	-1E+10	1	-1E+10	1	-1E+10	1	-1E+10	1	-1E+10	1	-1E+10	1
4901784	175	C	04/19/2020	10:45	-132.508	43.394	0	450.00	0	5.4030	0	36.4810	8	28.806	0	445.928	0	69.1	4	23.0	4	-1E+10	1	-1E+10	1	-1E+10	1	-1E+10	1	-1E+10	1	-1E+10	1
4901784	175	C	04/19/2020	10:45	-132.508	43.394	0	452.60	0	5.3560	0	36.4760	8	28.807	0	448.502	0	71.4	4	23.7	4	-1E+10	1	-1E+10	1	-1E+10	1	-1E+10	1	-1E+10	1	-1E+10	1
4901784	175	C	04/19/2020	10:45	-132.508	43.394	0	455.20	0	5.2510	0	36.4690	8	28.815	0	451.075	0	74.1	4	24.5	4	-1E+10	1	-1E+10	1	-1E+10	1	-1E+10	1	-1E+10	1	-1E+10	1
4901784	175	C	04/19/2020	10:45	-132.508	43.394	0	457.80	0	5.1450	0	36.4560	8	28.818	0	453.649	0	75.8	4	25.0	4	-1E+10	1	-1E+10	1	-1E+10	1	-1E+10	1	-1E+10	1	-1E+10	1
4901784	175	C	04/19/2020	10:45	-132.508	43.394	0	460.30	0	5.0980	0	36.4540	8	28.822	0	456.124	0	76.3	4	25.2	4	-1E+10	1	-1E+10	1	-1E+10	1	-1E+10	1	-1E+10	1	-1E+10	1
4901784	175	C	04/19/2020	10:45	-132.508	43.394	0	462.80	0	5.0430	0	36.4520	8	28.827	0	458.598	0	76.3	4	25.1	4	-1E+10	1	-1E+10	1	-1E+10	1	-1E+10	1	-1E+10	1	-1E+10	1
4901784	175	C	04/19/2020	10:45	-132.508	43.394	0	465.40	0	5.0140	0	36.4540	8	28.832	0	461.172	0	75.5	4	24.8	4	-1E+10	1	-1E+10	1	-1E+10	1	-1E+10	1	-1E+10	1	-1E+10	1
4901784	175	C	04/19/2020	10:45	-132.508	43.394	0	467.90	0	4.9880	0	36.4560	8	28.837	0	463.646	0	75.1	4	24.7	4	-1E+10	1	-1E+10	1	-1E+10	1	-1E+10	1	-1E+10	1	-1E+10	1
4901784	175	C	04/19/2020	10:45	-132.508	43.394	0	469.60	0	4.9860	0	36.4560	8	28.837	0	465.329	0	74.8	4	24.6	4	-1E+10	1	-1E+10	1	-1E+10	1	-1E+10	1	-1E+10	1	-1E+10	1
4901784	175	C	04/19/2020	10:45	-132.508	43.394	0	472.10	0	4.9790	0	36.4550	8	28.837	0	467.803	0	74.4	4	24.5	4	-1E+10	1	-1E+10	1	-1E+10	1	-1E+10	1	-1E+10	1	-1E+10	1
4901784	175	C	04/19/2020	10:45	-132.508	43.394	0	474.60	0	4.9530	0	36.4550	8	28.840	0	470.278	0	73.8	4	24.2	4	-1E+10	1	-1E+10	1	-1E+10	1	-1E+10	1	-1E+10	1	-1E+10	1
4901784	175	C	04/19/2020	10:45	-132.508	43.394	0	477.20	0	4.9240	0	36.4570	8	28.845	0	472.851	0	72.9	4	23.9	4	-1E+10	1	-1E+10	1	-1E+10	1	-1E+10	1	-1E+10	1	-1E+10	1
4901784	175	C	04/19/2020	10:45	-132.508	43.394	0	479.80	0	4.9060	0	36.4580	8	28.848	0	475.424	0	72.0	4	23.6	4	-1E+10	1	-1E+10	1	-1E+10	1	-1E+10	1	-1E+10	1	-1E+10	1
4901784	175	C	04/19/2020	10:45	-132.508	43.394	0	482.40	0	4.8980	0	36.4600	8	28.851	0	477.998	0	70.7	4	23.2	4	-1E+10	1	-1E+10	1	-1E+10	1	-1E+10	1	-1E+10	1	-1E+10	1
4901784	175	C	04/19/2020	10:45	-132.508	43.394	0	485.00	0	4.8800	0	36.4620	8	28.854	0	480.571	0	69.4	4	22.8	4	-1E+10	1	-1E+10	1	-1E+10	1	-1E+10	1	-1E+10	1	-1E+10	1
4901784	175	C	04/19/2020	10:45	-132.508	43.394	0	487.60	0	4.8530	0	36.4680	8	28.862	0	483.144	0	68.2	4	22.4	4	-1E+10	1	-1E+10	1	-1E+10	1	-1E+10	1	-1E+10	1	-1E+10	1
4901784	175	C	04/19/2020	10:45	-132.508	43.394	0	490.10	0	4.8440	0	36.4710	8	28.866	0	485.618	0	67.4	4	22.1	4	-1E+10	1	-1E+10	1	-1E+10	1	-1E+10	1	-1E+10	1	-1E+10	1
4901784	175	C	04/19/2020	10:45	-132.508	43.394	0	492.80	0	4.8210	0	36.4720	8	28.869	0	488.291	0	66.9	4	21.9	4	-1E+10	1	-1E+10	1	-1E+10	1	-1E+10	1	-1E+10	1	-1E+10	1
4901784	175	C	04/19/2020	10:45	-132.508	43.394	0	495.40	0	4.7910	0	36.4730	8	28.874	0	490.864	0	66.4	4	21.7	4	-1E+10	1	-1E+10	1	-1E+10	1	-1E+10	1	-1E+10	1	-1E+10	1
4901784	175	C	04/19/2020	10:45	-132.508	43.394	0	497.10	0	4.7820	0	36.4750	8	28.876	0	492.546	0	65.9	4	21.6	4	-1E+10	1	-1E+10	1	-1E+10	1	-1E+10	1	-1E+10	1	-1E+10	1
4901784	175	C	04/19/2020	10:45	-132.508	43.394	0	499.80	0	4.7730	0	36.4760	8	28.878	0	495.218	0	65.1	4	21.3	4	-1E+10	1	-1E+10	1	-1E+10	1	-1E+10	1	-1E+10	1	-1E+10	1
4901784	175	C	04/19/2020	10:45	-132.508	43.394	0	505.20	0	4.7520	0	36.4790	8	28.883	0	500.562	0	63.5	4	20.8	4	-1E+10	1	-1E+10	1	-1E+10	1	-1E+10	1	-1E+10	1	-1E+10	1
4901784	175	C	04/19/2020	10:45	-132.508	43.394	0	510.10	0	4.7190	0	36.4850	8	28.892	0	505.411	0	61.4	4	20.1	4	-1E+10	1	-1E+10	1	-1E+10	1	-1E+10	1	-1E+10	1	-1E+10	1
4901784	175	C	04/19/2020	10:45	-132.508	43.394	0	515.20	0	4.6780	0	36.4940	8	28.904	0	510.458	0	59.0	4	19.3	4	-1E+10	1	-1E+10	1	-1E+10	1	-1E+10	1	-1E+10	1	-1E+10	1
4901784	175	C	04/19/2020	10:45	-132.508	43.394	0	519.90	0	4.6590	0	36.5030	8	28.913	0	515.109	0	56.6	4	18.5	4	-1E+10	1	-1E+10	1	-1E+10	1	-1E+10	1	-1E+10	1	-1E+10	1
4901784	175	C	04/19/2020	10:45	-132.508	43.394	0	524.60	0	4.6430	0	36.5120	8	28.922	0	519.760	0	54.6	4	17.8	4	-1E+10	1	-1E+10	1	-1E+10	1	-1E+10	1	-1E+10	1	-1E+10	1
4901784	175	C	04/19/2020	10:45	-132.508	43.394	0	529.40	0	4.6310	0	36.5180	8	28.928	0	524.510	0	53.0	4	17.3	4	-1E+10	1	-1E+10	1	-1E+10	1	-1E+10	1	-1E+10	1	-1E+10	1
4901784	175	C	04/19/2020	10:45	-132.508	43.394	0	534.30	0	4.6130	0	36.5240	8	28.935	0	529.358	0	51.8	4	16.9	4	-1E+10	1	-1E+10	1	-1E+10	1	-1E+10	1	-1E+10	1	-1E+10	1
4901784	175	C	04/19/2020	10:45	-132.508	43.394	0	539.20	0	4.5990	0	36.5300	8	28.942	0	534.206	0	50.4	4	16.4	4	-1E+10	1	-1E+10	1	-1E+10	1	-1E+10	1	-1E+10	1	-1E+10	1
4901784	175	C	04/19/2020	10:45	-132.508	43.394	0	544.30	0	4.5800	0	36.5350	8	28.948	0	539.253	0	49.3	4	16.1	4	-1E+10	1	-1E+10	1	-1E+10	1	-1E+10	1	-1E+10	1	-1E+10	1
4901784	175	C	04/19/2020	10:45	-132.508	43.394	0	549.40	0	4.5730	0	36.5390	8	28.952	0	544.299	0	47.9	4	15.6	4	-1E+10	1	-1E+10	1	-1E+10	1	-1E+10	1	-1E+10	1	-1E+10	1
4901784	175	C	04/19/2020	10:45	-132.508	43.394	0	554.50	0	4.5720	0	36.5440	8	28.956	0	549.344	0	46.6	4	15.2	4	-1E+10	1	-1E+10	1	-1E+10	1	-1E+10	1	-1E+10	1	-1E+10	1
4901784	175	C	04/19/2020	10:45	-132.508	43.394	0	559.50	0	4.5270	0	36.5490	8	28.965	0	554.291	0	45.6	4	14.9	4	-1E+10	1	-1E+10	1	-1E+10	1	-1E+10	1	-1E+10	1	-1E+10	1
4901784	175	C	04/19/2020	10:45	-132.508	43.394	0	564.80	0	4.4890	0	36.5540	8	28.974	0	559.535	0	44.1	4	14.3	4	-1E+10	1	-1E+10	1	-1E+10	1	-1E+10	1	-1E+10	1	-1E+10	1
4901784	175	C	04/19/2020	10:45	-132.508	43.394	0	569.90	0	4.4970	0	36.5640	8	28.981	0	564.580	0	41.8	4	13.6	4	-1E+10	1	-1E+10	1	-1E+10	1	-1E+10	1	-1E+10	1	-1E+10	1
4901784	175	C	04/19/2020	10:45	-132.508	43.394	0	575.10	0	4.5060	0	36.5720	8	28.986	0	569.725	0	39.9	4	13.0	4	-1E+10	1	-1E+10	1	-1E+10	1	-1E+10	1	-1E+10	1	-1E+10	1
4901784	175	C	04/19/2020	10:45	-132.508	43.394	0	580.30	0	4.5000	0	36.5790	8	28.992	0	574.869	0	38.2	4	12.4	4	-1E+10	1	-1E+10	1	-1E+10	1	-1E+10	1	-1E+10	1	-1E+10	1
4901784	175	C	04/19/2020	10:45	-132.508	43.394	0	585.60	0	4.4830	0	36.5880	8	29.002	0	580.112	0	36.5	4	11.9	4	-1E+10	1	-1E+10	1	-1E+10	1	-1E+10	1	-1E+10	1	-1E+10	1
4901784	175	C	04/19/2020	10:45	-132.508	43.394	0	590.00	0	4.4760	0	36.5960	8	29.009	0	584.465	0	35.3	4	11.5	4	-1E+10	1	-1E+10	1	-1E+10	1	-1E+10	1	-1E+10	1	-1E+10	1
4901784	175	C	04/19/2020	10:45	-132.508	43.394	0	594.50	0	4.4730	0	36.5980	8	29.011	0	588.916	0	34.4	4	11.2	4	-1E+10	1	-1E+10	1	-1E+10	1	-1E+10	1	-1E+10	1	-1E+10	1
4901784	175	C	04/19/2020	10:45	-132.508	43.394	0	599.90	0	4.4600	0	36.6060	8	29.019	0	594.258	0	32.7	4	10.6	4	-1E+10	1	-1E+10	1	-1E+10	1	-1E+10	1	-1E+10	1	-1E+10	1
4901784	175	C	04/19/2020	10:45	-132.508	43.394	0	605.40	0	4.4520	0	36.6140	8	29.026	0	599.698	0	31.5	4	10.2	4	-1E+10	1	-1E+10	1	-1E+10	1	-1E+10	1	-1E+10	1	-1E+10	1
4901784	175	C	04/19/2020	10:45	-132.508	43.394	0	610.00	0	4.4370	0	36.6200	8	29.032	0	604.248	0	30.6	4	10.0	4	-1E+10	1	-1E+10	1	-1E+10	1	-1E+10	1	-1E+10	1	-1E+10	1
4901784	175	C	04/19/2020	10:45	-132.508	43.394	0	614.60	0	4.4290	0	36.6230	8	29.036	0	608.798	0	29.8	4	9.7	4	-1E+10	1	-1E+10	1	-1E+10	1	-1E+10	1	-1E+10	1	-1E+10	1
4901784	175	C	04/19/2020	10:45	-132.508	43.394	0	620.10	0	4.4210	0	36.6290	8	29.042	0	614.238	0	28.5	4	9.3	4	-1E+10	1	-1E+10	1	-1E+10	1	-1E+10	1	-1E+10	1	-1E+10	1
4901784	175	C	04/19/2020	10:45	-132.508	43.394	0	625.60	0	4.4130	0	36.6360	8	29.048	0	619.678	0	27.0	4	8.8	4	-1E+10	1	-1E+10	1	-1E+10	1	-1E+10	1	-1E+10	1	-1E+10	1
4901784	175	C	04/19/2020	10:45	-132.508	43.394	0	630.30	0	4.3990	0	36.6440	8	29.056	0	624.326	0	26.0	4	8.5	4	-1E+10	1	-1E+10	1	-1E+10	1	-1E+10	1	-1E+10	1	-1E+10	1
4901784	175	C	04/19/2020	10:45	-132.508	43.394	0	635.00	0	4.3940	0	36.6510	8	29.062	0	628.974	0	25.0	4	8.1	4	-1E+10	1	-1E+10	1	-1E+10	1	-1E+10	1	-1E+10	1	-1E+10	1
4901784	175	C	04/19/2020	10:45	-132.508	43.394	0	640.60	0	4.3850	0	36.6570	8	29.068	0	634.513	0	24.4	4	7.9	4	-1E+10	1	-1E+10	1	-1E+10	1	-1E+10	1	-1E+10	1	-1E+10	1
4901784	175	C	04/19/2020	10:45	-132.508	43.394	0	645.20	0	4.3860	0	36.6600	8	29.070	0	639.062	0	23.7	4	7.7	4	-1E+10	1	-1E+10	1	-1E+10	1	-1E+10	1	-1E+10	1	-1E+10	1
4901784	175	C	04/19/2020	10:45	-132.508	43.394	0	649.80	0	4.3720	0	36.6650	8	29.076	0	643.611	0	23.0	4	7.5	4	-1E+10	1	-1E+10	1	-1E+10	1	-1E+10	1	-1E+10	1	-1E+10	1
4901784	175	C	04/19/2020	10:45	-132.508	43.394	0	655.30	0	4.3550	0	36.6710	8	29.083	0	649.050	0	22.1	4	7.2	4	-1E+10	1	-1E+10	1	-1E+10	1	-1E+10	1	-1E+10	1	-1E+10	1
4901784	175	C	04/19/2020	10:45	-132.508	43.394	0	659.90	0	4.3460	0	36.6760	8	29.088	0	653.599	0	21.3	4	6.9	4	-1E+10	1	-1E+10	1	-1E+10	1	-1E+10	1	-1E+10	1	-1E+10	1
4901784	175	C	04/19/2020	10:45	-132.508	43.394	0	664.60	0	4.3400	0	36.6850	8	29.096	0	658.247	0	20.3	4	6.6	4	-1E+10	1	-1E+10	1	-1E+10	1	-1E+10	1	-1E+10	1	-1E+10	1
4901784	175	C	04/19/2020	10:45	-132.508	43.394	0	670.20	0	4.3250	0	36.6930	8	29.104	0	663.784	0	19.6	4	6.4	4	-1E+10	1	-1E+10	1	-1E+10	1	-1E+10	1	-1E+10	1	-1E+10	1
4901784	175	C	04/19/2020	10:45	-132.508	43.394	0	674.90	0	4.3110	0	36.6980	8	29.109	0	668.432	0	19.1	4	6.2	4	-1E+10	1	-1E+10	1	-1E+10	1	-1E+10	1	-1E+10	1	-1E+10	1
4901784	175	C	04/19/2020	10:45	-132.508	43.394	0	679.70	0	4.2930	0	36.7020	8	29.115	0	673.178	0	18.5	4	6.0	4	-1E+10	1	-1E+10	1	-1E+10	1	-1E+10	1	-1E+10	1	-1E+10	1
4901784	175	C	04/19/2020	10:45	-132.508	43.394	0	685.30	0	4.2620	0	36.7110	8	29.125	0	678.715	0	17.8	4	5.8	4	-1E+10	1	-1E+10	1	-1E+10	1	-1E+10	1	-1E+10	1	-1E+10	1
4901784	175	C	04/19/2020	10:45	-132.508	43.394	0	690.00	0	4.2430	0	36.7170	8	29.132	0	683.362	0	17.5	4	5.7	4	-1E+10	1	-1E+10	1	-1E+10	1	-1E+10	1	-1E+10	1	-1E+10	1
4901784	175	C	04/19/2020	10:45	-132.508	43.394	0	694.70	0	4.2350	0	36.7190	8	29.135	0	688.009	0	17.2	4	5.6	4	-1E+10	1	-1E+10	1	-1E+10	1	-1E+10	1	-1E+10	1	-1E+10	1
4901784	175	C	04/19/2020	10:45	-132.508	43.394	0	700.40	0	4.2200	0	36.7240	8	29.140	0	693.645	0	16.5	4	5.4	4	-1E+10	1	-1E+10	1	-1E+10	1	-1E+10	1	-1E+10	1	-1E+10	1
4901784	175	C	04/19/2020	10:45	-132.508	43.394	0	705.10	0	4.1970	0	36.7330	8	29.150	0	698.292	0	16.0	4	5.2	4	-1E+10	1	-1E+10	1	-1E+10	1	-1E+10	1	-1E+10	1	-1E+10	1
4901784	175	C	04/19/2020	10:45	-132.508	43.394	0	709.80	0	4.1850	0	36.7400	8	29.157	0	702.939	0	15.6	4	5.0	4	-1E+10	1	-1E+10	1	-1E+10	1	-1E+10	1	-1E+10	1	-1E+10	1
4901784	175	C	04/19/2020	10:45	-132.508	43.394	0	715.40	0	4.1660	0	36.7450	8	29.163	0	708.475	0	15.2	4	4.9	4	-1E+10	1	-1E+10	1	-1E+10	1	-1E+10	1	-1E+10	1	-1E+10	1
4901784	175	C	04/19/2020	10:45	-132.508	43.394	0	720.10	0	4.1480	0	36.7490	8	29.168	0	713.121	0	14.9	4	4.8	4	-1E+10	1	-1E+10	1	-1E+10	1	-1E+10	1	-1E+10	1	-1E+10	1
4901784	175	C	04/19/2020	10:45	-132.508	43.394	0	724.80	0	4.1390	0	36.7540	8	29.173	0	717.768	0	14.6	4	4.7	4	-1E+10	1	-1E+10	1	-1E+10	1	-1E+10	1	-1E+10	1	-1E+10	1
4901784	175	C	04/19/2020	10:45	-132.508	43.394	0	730.40	0	4.1370	0	36.7600	8	29.178	0	723.304	0	14.0	4	4.5	4	-1E+10	1	-1E+10	1	-1E+10	1	-1E+10	1	-1E+10	1	-1E+10	1
4901784	175	C	04/19/2020	10:45	-132.508	43.394	0	735.90	0	4.1190	0	36.7690	8	29.188	0	728.741	0	13.6	4	4.4	4	-1E+10	1	-1E+10	1	-1E+10	1	-1E+10	1	-1E+10	1	-1E+10	1
4901784	175	C	04/19/2020	10:45	-132.508	43.394	0	740.40	0	4.1000	0	36.7760	8	29.195	0	733.189	0	13.4	4	4.3	4	-1E+10	1	-1E+10	1	-1E+10	1	-1E+10	1	-1E+10	1	-1E+10	1
4901784	175	C	04/19/2020	10:45	-132.508	43.394	0	745.20	0	4.0930	0	36.7790	8	29.199	0	737.934	0	13.2	4	4.3	4	-1E+10	1	-1E+10	1	-1E+10	1	-1E+10	1	-1E+10	1	-1E+10	1
4901784	175	C	04/19/2020	10:45	-132.508	43.394	0	750.10	0	4.0810	0	36.7830	8	29.203	0	742.777	0	13.1	4	4.2	4	-1E+10	1	-1E+10	1	-1E+10	1	-1E+10	1	-1E+10	1	-1E+10	1
4901784	175	C	04/19/2020	10:45	-132.508	43.394	0	755.00	0	4.0670	0	36.7860	8	29.207	0	747.621	0	12.9	4	4.2	4	-1E+10	1	-1E+10	1	-1E+10	1	-1E+10	1	-1E+10	1	-1E+10	1
4901784	175	C	04/19/2020	10:45	-132.508	43.394	0	760.00	0	4.0610	0	36.7920	8	29.213	0	752.563	0	12.7	4	4.1	4	-1E+10	1	-1E+10	1	-1E+10	1	-1E+10	1	-1E+10	1	-1E+10	1
4901784	175	C	04/19/2020	10:45	-132.508	43.394	0	765.00	0	4.0550	0	36.7930	8	29.214	0	757.505	0	12.6	4	4.1	4	-1E+10	1	-1E+10	1	-1E+10	1	-1E+10	1	-1E+10	1	-1E+10	1
4901784	175	C	04/19/2020	10:45	-132.508	43.394	0	769.90	0	4.0420	0	36.7970	8	29.219	0	762.348	0	12.4	4	4.0	4	-1E+10	1	-1E+10	1	-1E+10	1	-1E+10	1	-1E+10	1	-1E+10	1
4901784	175	C	04/19/2020	10:45	-132.508	43.394	0	774.90	0	4.0300	0	36.8020	8	29.224	0	767.290	0	12.2	4	3.9	4	-1E+10	1	-1E+10	1	-1E+10	1	-1E+10	1	-1E+10	1	-1E+10	1
4901784	175	C	04/19/2020	10:45	-132.508	43.394	0	779.80	0	4.0200	0	36.8060	8	29.228	0	772.132	0	12.1	4	3.9	4	-1E+10	1	-1E+10	1	-1E+10	1	-1E+10	1	-1E+10	1	-1E+10	1
4901784	175	C	04/19/2020	10:45	-132.508	43.394	0	784.70	0	4.0130	0	36.8080	8	29.231	0	776.975	0	12.0	4	3.9	4	-1E+10	1	-1E+10	1	-1E+10	1	-1E+10	1	-1E+10	1	-1E+10	1
4901784	175	C	04/19/2020	10:45	-132.508	43.394	0	789.60	0	4.0040	0	36.8120	8	29.235	0	781.818	0	11.9	4	3.8	4	-1E+10	1	-1E+10	1	-1E+10	1	-1E+10	1	-1E+10	1	-1E+10	1
4901784	175	C	04/19/2020	10:45	-132.508	43.394	0	794.60	0	3.9930	0	36.8150	8	29.239	0	786.759	0	11.7	4	3.8	4	-1E+10	1	-1E+10	1	-1E+10	1	-1E+10	1	-1E+10	1	-1E+10	1
4901784	175	C	04/19/2020	10:45	-132.508	43.394	0	799.60	0	3.9820	0	36.8190	8	29.243	0	791.700	0	11.6	4	3.7	4	-1E+10	1	-1E+10	1	-1E+10	1	-1E+10	1	-1E+10	1	-1E+10	1
4901784	175	C	04/19/2020	10:45	-132.508	43.394	0	804.60	0	3.9710	0	36.8220	8	29.247	0	796.641	0	11.5	4	3.7	4	-1E+10	1	-1E+10	1	-1E+10	1	-1E+10	1	-1E+10	1	-1E+10	1
4901784	175	C	04/19/2020	10:45	-132.508	43.394	0	809.60	0	3.9500	0	36.8260	8	29.252	0	801.582	0	11.4	4	3.7	4	-1E+10	1	-1E+10	1	-1E+10	1	-1E+10	1	-1E+10	1	-1E+10	1
4901784	175	C	04/19/2020	10:45	-132.508	43.394	0	814.70	0	3.9340	0	36.8310	8	29.258	0	806.622	0	11.2	4	3.6	4	-1E+10	1	-1E+10	1	-1E+10	1	-1E+10	1	-1E+10	1	-1E+10	1
4901784	175	C	04/19/2020	10:45	-132.508	43.394	0	819.90	0	3.9230	0	36.8340	8	29.262	0	811.760	0	11.1	4	3.6	4	-1E+10	1	-1E+10	1	-1E+10	1	-1E+10	1	-1E+10	1	-1E+10	1
4901784	175	C	04/19/2020	10:45	-132.508	43.394	0	825.00	0	3.8980	0	36.8430	8	29.271	0	816.800	0	10.9	4	3.5	4	-1E+10	1	-1E+10	1	-1E+10	1	-1E+10	1	-1E+10	1	-1E+10	1
4901784	175	C	04/19/2020	10:45	-132.508	43.394	0	830.10	0	3.8810	0	36.8470	8	29.276	0	821.839	0	10.8	4	3.5	4	-1E+10	1	-1E+10	1	-1E+10	1	-1E+10	1	-1E+10	1	-1E+10	1
4901784	175	C	04/19/2020	10:45	-132.508	43.394	0	835.30	0	3.8660	0	36.8510	8	29.281	0	826.977	0	10.7	4	3.4	4	-1E+10	1	-1E+10	1	-1E+10	1	-1E+10	1	-1E+10	1	-1E+10	1
4901784	175	C	04/19/2020	10:45	-132.508	43.394	0	840.50	0	3.8540	0	36.8540	8	29.285	0	832.115	0	10.7	4	3.4	4	-1E+10	1	-1E+10	1	-1E+10	1	-1E+10	1	-1E+10	1	-1E+10	1
4901784	175	C	04/19/2020	10:45	-132.508	43.394	0	845.70	0	3.8350	0	36.8590	8	29.291	0	837.252	0	10.6	4	3.4	4	-1E+10	1	-1E+10	1	-1E+10	1	-1E+10	1	-1E+10	1	-1E+10	1
4901784	175	C	04/19/2020	10:45	-132.508	43.394	0	850.10	0	3.8250	0	36.8610	8	29.294	0	841.600	0	10.5	4	3.4	4	-1E+10	1	-1E+10	1	-1E+10	1	-1E+10	1	-1E+10	1	-1E+10	1
4901784	175	C	04/19/2020	10:45	-132.508	43.394	0	854.50	0	3.8130	0	36.8650	8	29.298	0	845.947	0	10.5	4	3.4	4	-1E+10	1	-1E+10	1	-1E+10	1	-1E+10	1	-1E+10	1	-1E+10	1
4901784	175	C	04/19/2020	10:45	-132.508	43.394	0	859.80	0	3.7990	0	36.8690	8	29.303	0	851.183	0	10.4	4	3.3	4	-1E+10	1	-1E+10	1	-1E+10	1	-1E+10	1	-1E+10	1	-1E+10	1
4901784	175	C	04/19/2020	10:45	-132.508	43.394	0	865.10	0	3.7780	0	36.8760	8	29.311	0	856.419	0	10.3	4	3.3	4	-1E+10	1	-1E+10	1	-1E+10	1	-1E+10	1	-1E+10	1	-1E+10	1
4901784	175	C	04/19/2020	10:45	-132.508	43.394	0	870.40	0	3.7690	0	36.8790	8	29.314	0	861.655	0	10.3	4	3.3	4	-1E+10	1	-1E+10	1	-1E+10	1	-1E+10	1	-1E+10	1	-1E+10	1
4901784	175	C	04/19/2020	10:45	-132.508	43.394	0	874.90	0	3.7660	0	36.8800	8	29.315	0	866.100	0	10.3	4	3.3	4	-1E+10	1	-1E+10	1	-1E+10	1	-1E+10	1	-1E+10	1	-1E+10	1
4901784	175	C	04/19/2020	10:45	-132.508	43.394	0	879.40	0	3.7570	0	36.8820	8	29.318	0	870.546	0	10.2	4	3.3	4	-1E+10	1	-1E+10	1	-1E+10	1	-1E+10	1	-1E+10	1	-1E+10	1
4901784	175	C	04/19/2020	10:45	-132.508	43.394	0	885.00	0	3.7410	0	36.8860	8	29.323	0	876.078	0	10.2	4	3.3	4	-1E+10	1	-1E+10	1	-1E+10	1	-1E+10	1	-1E+10	1	-1E+10	1
4901784	175	C	04/19/2020	10:45	-132.508	43.394	0	890.30	0	3.7320	0	36.8890	8	29.326	0	881.313	0	10.2	4	3.3	4	-1E+10	1	-1E+10	1	-1E+10	1	-1E+10	1	-1E+10	1	-1E+10	1
4901784	175	C	04/19/2020	10:45	-132.508	43.394	0	894.50	0	3.7290	0	36.8900	8	29.327	0	885.462	0	10.2	4	3.3	4	-1E+10	1	-1E+10	1	-1E+10	1	-1E+10	1	-1E+10	1	-1E+10	1
4901784	175	C	04/19/2020	10:45	-132.508	43.394	0	900.10	0	3.7190	0	36.8930	8	29.331	0	890.993	0	10.2	4	3.3	4	-1E+10	1	-1E+10	1	-1E+10	1	-1E+10	1	-1E+10	1	-1E+10	1
4901784	175	C	04/19/2020	10:45	-132.508	43.394	0	905.70	0	3.7060	0	36.8960	8	29.335	0	896.525	0	10.1	4	3.2	4	-1E+10	1	-1E+10	1	-1E+10	1	-1E+10	1	-1E+10	1	-1E+10	1
4901784	175	C	04/19/2020	10:45	-132.508	43.394	0	910.60	0	3.7000	0	36.8980	8	29.337	0	901.364	0	10.1	4	3.2	4	-1E+10	1	-1E+10	1	-1E+10	1	-1E+10	1	-1E+10	1	-1E+10	1
4901784	175	C	04/19/2020	10:45	-132.508	43.394	0	915.40	0	3.6900	0	36.9020	8	29.341	0	906.105	0	10.1	4	3.2	4	-1E+10	1	-1E+10	1	-1E+10	1	-1E+10	1	-1E+10	1	-1E+10	1
4901784	175	C	04/19/2020	10:45	-132.508	43.394	0	920.40	0	3.6810	0	36.9050	8	29.345	0	911.044	0	10.1	4	3.2	4	-1E+10	1	-1E+10	1	-1E+10	1	-1E+10	1	-1E+10	1	-1E+10	1
4901784	175	C	04/19/2020	10:45	-132.508	43.394	0	925.40	0	3.6690	0	36.9080	8	29.348	0	915.982	0	10.1	4	3.2	4	-1E+10	1	-1E+10	1	-1E+10	1	-1E+10	1	-1E+10	1	-1E+10	1
4901784	175	C	04/19/2020	10:45	-132.508	43.394	0	930.40	0	3.6620	0	36.9100	8	29.351	0	920.920	0	10.1	4	3.2	4	-1E+10	1	-1E+10	1	-1E+10	1	-1E+10	1	-1E+10	1	-1E+10	1
4901784	175	C	04/19/2020	10:45	-132.508	43.394	0	935.40	0	3.6480	0	36.9130	8	29.355	0	925.858	0	10.1	4	3.2	4	-1E+10	1	-1E+10	1	-1E+10	1	-1E+10	1	-1E+10	1	-1E+10	1
4901784	175	C	04/19/2020	10:45	-132.508	43.394	0	940.40	0	3.6390	0	36.9160	8	29.358	0	930.796	0	10.1	4	3.2	4	-1E+10	1	-1E+10	1	-1E+10	1	-1E+10	1	-1E+10	1	-1E+10	1
4901784	175	C	04/19/2020	10:45	-132.508	43.394	0	945.40	0	3.6220	0	36.9210	8	29.364	0	935.734	0	10.1	4	3.2	4	-1E+10	1	-1E+10	1	-1E+10	1	-1E+10	1	-1E+10	1	-1E+10	1
4901784	175	C	04/19/2020	10:45	-132.508	43.394	0	950.60	0	3.6140	0	36.9230	8	29.366	0	940.869	0	10.1	4	3.2	4	-1E+10	1	-1E+10	1	-1E+10	1	-1E+10	1	-1E+10	1	-1E+10	1
4901784	175	C	04/19/2020	10:45	-132.508	43.394	0	955.00	0	3.6090	0	36.9250	8	29.368	0	945.214	0	10.1	4	3.2	4	-1E+10	1	-1E+10	1	-1E+10	1	-1E+10	1	-1E+10	1	-1E+10	1
4901784	175	C	04/19/2020	10:45	-132.508	43.394	0	959.30	0	3.6030	0	36.9270	8	29.371	0	949.460	0	10.1	4	3.2	4	-1E+10	1	-1E+10	1	-1E+10	1	-1E+10	1	-1E+10	1	-1E+10	1
4901784	175	C	04/19/2020	10:45	-132.508	43.394	0	964.60	0	3.5950	0	36.9290	8	29.373	0	954.694	0	10.1	4	3.2	4	-1E+10	1	-1E+10	1	-1E+10	1	-1E+10	1	-1E+10	1	-1E+10	1
4901784	175	C	04/19/2020	10:45	-132.508	43.394	0	970.10	0	3.5880	0	36.9310	8	29.376	0	960.124	0	10.1	4	3.2	4	-1E+10	1	-1E+10	1	-1E+10	1	-1E+10	1	-1E+10	1	-1E+10	1
4901784	175	C	04/19/2020	10:45	-132.508	43.394	0	975.50	0	3.5800	0	36.9340	8	29.379	0	965.457	0	10.1	4	3.2	4	-1E+10	1	-1E+10	1	-1E+10	1	-1E+10	1	-1E+10	1	-1E+10	1
4901784	175	C	04/19/2020	10:45	-132.508	43.394	0	980.10	0	3.5720	0	36.9360	8	29.381	0	969.999	0	10.1	4	3.2	4	-1E+10	1	-1E+10	1	-1E+10	1	-1E+10	1	-1E+10	1	-1E+10	1
4901784	175	C	04/19/2020	10:45	-132.508	43.394	0	984.60	0	3.5620	0	36.9390	8	29.385	0	974.442	0	10.1	4	3.2	4	-1E+10	1	-1E+10	1	-1E+10	1	-1E+10	1	-1E+10	1	-1E+10	1
4901784	175	C	04/19/2020	10:45	-132.508	43.394	0	990.10	0	3.5560	0	36.9410	8	29.387	0	979.872	0	10.2	4	3.2	4	-1E+10	1	-1E+10	1	-1E+10	1	-1E+10	1	-1E+10	1	-1E+10	1
4901784	175	C	04/19/2020	10:45	-132.508	43.394	0	994.70	0	3.5480	0	36.9430	8	29.390	0	984.414	0	10.2	4	3.2	4	-1E+10	1	-1E+10	1	-1E+10	1	-1E+10	1	-1E+10	1	-1E+10	1
4901784	175	C	04/19/2020	10:45	-132.508	43.394	0	999.50	0	3.5430	0	36.9450	8	29.392	0	989.153	0	10.2	4	3.2	4	-1E+10	1	-1E+10	1	-1E+10	1	-1E+10	1	-1E+10	1	-1E+10	1
4901784	175	C	04/19/2020	10:45	-132.508	43.394	0	1004.90	0	3.5330	0	36.9470	8	29.394	0	994.484	0	10.2	4	3.3	4	-1E+10	1	-1E+10	1	-1E+10	1	-1E+10	1	-1E+10	1	-1E+10	1
4901784	175	C	04/19/2020	10:45	-132.508	43.394	0	1010.00	0	3.5260	0	36.9500	8	29.397	0	999.519	0	10.3	4	3.3	4	-1E+10	1	-1E+10	1	-1E+10	1	-1E+10	1	-1E+10	1	-1E+10	1
4901784	175	C	04/19/2020	10:45	-132.508	43.394	0	1015.70	0	3.5130	0	36.9540	8	29.402	0	1005.146	0	10.3	4	3.3	4	-1E+10	1	-1E+10	1	-1E+10	1	-1E+10	1	-1E+10	1	-1E+10	1
4901784	175	C	04/19/2020	10:45	-132.508	43.394	0	1020.60	0	3.5040	0	36.9560	8	29.405	0	1009.984	0	10.4	4	3.3	4	-1E+10	1	-1E+10	1	-1E+10	1	-1E+10	1	-1E+10	1	-1E+10	1
4901784	175	C	04/19/2020	10:45	-132.508	43.394	0	1025.50	0	3.4970	0	36.9580	8	29.407	0	1014.821	0	10.4	4	3.3	4	-1E+10	1	-1E+10	1	-1E+10	1	-1E+10	1	-1E+10	1	-1E+10	1
4901784	175	C	04/19/2020	10:45	-132.508	43.394	0	1030.40	0	3.4820	0	36.9620	8	29.412	0	1019.658	0	10.4	4	3.3	4	-1E+10	1	-1E+10	1	-1E+10	1	-1E+10	1	-1E+10	1	-1E+10	1
4901784	175	C	04/19/2020	10:45	-132.508	43.394	0	1035.40	0	3.4720	0	36.9640	8	29.414	0	1024.593	0	10.5	4	3.3	4	-1E+10	1	-1E+10	1	-1E+10	1	-1E+10	1	-1E+10	1	-1E+10	1
4901784	175	C	04/19/2020	10:45	-132.508	43.394	0	1040.50	0	3.4630	0	36.9660	8	29.417	0	1029.628	0	10.6	4	3.4	4	-1E+10	1	-1E+10	1	-1E+10	1	-1E+10	1	-1E+10	1	-1E+10	1
4901784	175	C	04/19/2020	10:45	-132.508	43.394	0	1045.50	0	3.4490	0	36.9700	8	29.422	0	1034.563	0	10.6	4	3.4	4	-1E+10	1	-1E+10	1	-1E+10	1	-1E+10	1	-1E+10	1	-1E+10	1
4901784	175	C	04/19/2020	10:45	-132.508	43.394	0	1050.60	0	3.4350	0	36.9730	8	29.426	0	1039.597	0	10.7	4	3.4	4	-1E+10	1	-1E+10	1	-1E+10	1	-1E+10	1	-1E+10	1	-1E+10	1
4901784	175	C	04/19/2020	10:45	-132.508	43.394	0	1054.90	0	3.4240	0	36.9760	8	29.429	0	1043.841	0	10.7	4	3.4	4	-1E+10	1	-1E+10	1	-1E+10	1	-1E+10	1	-1E+10	1	-1E+10	1
4901784	175	C	04/19/2020	10:45	-132.508	43.394	0	1059.30	0	3.4150	0	36.9780	8	29.432	0	1048.184	0	10.8	4	3.4	4	-1E+10	1	-1E+10	1	-1E+10	1	-1E+10	1	-1E+10	1	-1E+10	1
4901784	175	C	04/19/2020	10:45	-132.508	43.394	0	1064.40	0	3.4050	0	36.9800	8	29.434	0	1053.218	0	10.9	4	3.5	4	-1E+10	1	-1E+10	1	-1E+10	1	-1E+10	1	-1E+10	1	-1E+10	1
4901784	175	C	04/19/2020	10:45	-132.508	43.394	0	1069.70	0	3.3910	0	36.9840	8	29.439	0	1058.449	0	11.0	4	3.5	4	-1E+10	1	-1E+10	1	-1E+10	1	-1E+10	1	-1E+10	1	-1E+10	1
4901784	175	C	04/19/2020	10:45	-132.508	43.394	0	1075.00	0	3.3760	0	36.9870	8	29.443	0	1063.680	0	11.1	4	3.5	4	-1E+10	1	-1E+10	1	-1E+10	1	-1E+10	1	-1E+10	1	-1E+10	1
4901784	175	C	04/19/2020	10:45	-132.508	43.394	0	1080.30	0	3.3540	0	36.9920	8	29.449	0	1068.911	0	11.2	4	3.6	4	-1E+10	1	-1E+10	1	-1E+10	1	-1E+10	1	-1E+10	1	-1E+10	1
4901784	175	C	04/19/2020	10:45	-132.508	43.394	0	1085.70	0	3.3440	0	36.9950	8	29.453	0	1074.240	0	11.3	4	3.6	4	-1E+10	1	-1E+10	1	-1E+10	1	-1E+10	1	-1E+10	1	-1E+10	1
4901784	175	C	04/19/2020	10:45	-132.508	43.394	0	1090.10	0	3.3360	0	36.9970	8	29.455	0	1078.582	0	11.4	4	3.6	4	-1E+10	1	-1E+10	1	-1E+10	1	-1E+10	1	-1E+10	1	-1E+10	1
4901784	175	C	04/19/2020	10:45	-132.508	43.394	0	1094.50	0	3.3290	0	36.9980	8	29.457	0	1082.924	0	11.4	4	3.6	4	-1E+10	1	-1E+10	1	-1E+10	1	-1E+10	1	-1E+10	1	-1E+10	1
4901784	175	C	04/19/2020	10:45	-132.508	43.394	0	1099.80	0	3.3170	0	37.0010	8	29.460	0	1088.154	0	11.5	4	3.7	4	-1E+10	1	-1E+10	1	-1E+10	1	-1E+10	1	-1E+10	1	-1E+10	1
4901784	175	C	04/19/2020	10:45	-132.508	43.394	0	1105.10	0	3.3120	0	37.0020	8	29.462	0	1093.384	0	11.6	4	3.7	4	-1E+10	1	-1E+10	1	-1E+10	1	-1E+10	1	-1E+10	1	-1E+10	1
4901784	175	C	04/19/2020	10:45	-132.508	43.394	0	1110.40	0	3.3010	0	37.0040	8	29.464	0	1098.614	0	11.7	4	3.7	4	-1E+10	1	-1E+10	1	-1E+10	1	-1E+10	1	-1E+10	1	-1E+10	1
4901784	175	C	04/19/2020	10:45	-132.508	43.394	0	1114.80	0	3.2940	0	37.0060	8	29.467	0	1102.956	0	11.8	4	3.7	4	-1E+10	1	-1E+10	1	-1E+10	1	-1E+10	1	-1E+10	1	-1E+10	1
4901784	175	C	04/19/2020	10:45	-132.508	43.394	0	1119.40	0	3.2830	0	37.0080	8	29.469	0	1107.495	0	11.9	4	3.8	4	-1E+10	1	-1E+10	1	-1E+10	1	-1E+10	1	-1E+10	1	-1E+10	1
4901784	175	C	04/19/2020	10:45	-132.508	43.394	0	1124.70	0	3.2650	0	37.0120	8	29.474	0	1112.725	0	12.0	4	3.8	4	-1E+10	1	-1E+10	1	-1E+10	1	-1E+10	1	-1E+10	1	-1E+10	1
4901784	175	C	04/19/2020	10:45	-132.508	43.394	0	1130.10	0	3.2510	0	37.0150	8	29.478	0	1118.053	0	12.1	4	3.8	4	-1E+10	1	-1E+10	1	-1E+10	1	-1E+10	1	-1E+10	1	-1E+10	1
4901784	175	C	04/19/2020	10:45	-132.508	43.394	0	1135.40	0	3.2410	0	37.0170	8	29.481	0	1123.282	0	12.2	4	3.9	4	-1E+10	1	-1E+10	1	-1E+10	1	-1E+10	1	-1E+10	1	-1E+10	1
4901784	175	C	04/19/2020	10:45	-132.508	43.394	0	1139.90	0	3.2370	0	37.0180	8	29.482	0	1127.722	0	12.3	4	3.9	4	-1E+10	1	-1E+10	1	-1E+10	1	-1E+10	1	-1E+10	1	-1E+10	1
4901784	175	C	04/19/2020	10:45	-132.508	43.394	0	1144.40	0	3.2290	0	37.0190	8	29.484	0	1132.162	0	12.4	4	3.9	4	-1E+10	1	-1E+10	1	-1E+10	1	-1E+10	1	-1E+10	1	-1E+10	1
4901784	175	C	04/19/2020	10:45	-132.508	43.394	0	1149.90	0	3.2160	0	37.0220	8	29.487	0	1137.588	0	12.5	4	3.9	4	-1E+10	1	-1E+10	1	-1E+10	1	-1E+10	1	-1E+10	1	-1E+10	1
4901784	175	C	04/19/2020	10:45	-132.508	43.394	0	1155.40	0	3.2110	0	37.0230	8	29.489	0	1143.014	0	12.5	4	4.0	4	-1E+10	1	-1E+10	1	-1E+10	1	-1E+10	1	-1E+10	1	-1E+10	1
4901784	175	C	04/19/2020	10:45	-132.508	43.394	0	1159.90	0	3.2000	0	37.0250	8	29.492	0	1147.454	0	12.6	4	4.0	4	-1E+10	1	-1E+10	1	-1E+10	1	-1E+10	1	-1E+10	1	-1E+10	1
4901784	175	C	04/19/2020	10:45	-132.508	43.394	0	1164.50	0	3.1910	0	37.0270	8	29.494	0	1151.992	0	12.8	4	4.0	4	-1E+10	1	-1E+10	1	-1E+10	1	-1E+10	1	-1E+10	1	-1E+10	1
4901784	175	C	04/19/2020	10:45	-132.508	43.394	0	1170.00	0	3.1800	0	37.0290	8	29.497	0	1157.418	0	12.9	4	4.1	4	-1E+10	1	-1E+10	1	-1E+10	1	-1E+10	1	-1E+10	1	-1E+10	1
4901784	175	C	04/19/2020	10:45	-132.508	43.394	0	1175.50	0	3.1670	0	37.0320	8	29.501	0	1162.843	0	13.0	4	4.1	4	-1E+10	1	-1E+10	1	-1E+10	1	-1E+10	1	-1E+10	1	-1E+10	1
4901784	175	C	04/19/2020	10:45	-132.508	43.394	0	1180.20	0	3.1640	0	37.0330	8	29.502	0	1167.480	0	13.1	4	4.1	4	-1E+10	1	-1E+10	1	-1E+10	1	-1E+10	1	-1E+10	1	-1E+10	1
4901784	175	C	04/19/2020	10:45	-132.508	43.394	0	1184.70	0	3.1530	0	37.0350	8	29.504	0	1171.919	0	13.2	4	4.2	4	-1E+10	1	-1E+10	1	-1E+10	1	-1E+10	1	-1E+10	1	-1E+10	1
4901784	175	C	04/19/2020	10:45	-132.508	43.394	0	1190.10	0	3.1420	0	37.0370	8	29.507	0	1177.245	0	13.3	4	4.2	4	-1E+10	1	-1E+10	1	-1E+10	1	-1E+10	1	-1E+10	1	-1E+10	1
4901784	175	C	04/19/2020	10:45	-132.508	43.394	0	1195.50	0	3.1320	0	37.0390	8	29.510	0	1182.572	0	13.4	4	4.2	4	-1E+10	1	-1E+10	1	-1E+10	1	-1E+10	1	-1E+10	1	-1E+10	1
4901784	175	C	04/19/2020	10:45	-132.508	43.394	0	1200.10	0	3.1290	0	37.0400	8	29.511	0	1187.109	0	13.5	4	4.3	4	-1E+10	1	-1E+10	1	-1E+10	1	-1E+10	1	-1E+10	1	-1E+10	1
4901784	175	C	04/19/2020	10:45	-132.508	43.394	0	1204.60	0	3.1180	0	37.0410	8	29.513	0	1191.548	0	13.6	4	4.3	4	-1E+10	1	-1E+10	1	-1E+10	1	-1E+10	1	-1E+10	1	-1E+10	1
4901784	175	C	04/19/2020	10:45	-132.508	43.394	0	1210.00	0	3.1040	0	37.0440	8	29.517	0	1196.874	0	13.8	4	4.3	4	-1E+10	1	-1E+10	1	-1E+10	1	-1E+10	1	-1E+10	1	-1E+10	1
4901784	175	C	04/19/2020	10:45	-132.508	43.394	0	1215.50	0	3.0940	0	37.0460	8	29.519	0	1202.298	0	13.9	4	4.4	4	-1E+10	1	-1E+10	1	-1E+10	1	-1E+10	1	-1E+10	1	-1E+10	1
4901784	175	C	04/19/2020	10:45	-132.508	43.394	0	1220.10	0	3.0890	0	37.0470	8	29.521	0	1206.835	0	13.9	4	4.4	4	-1E+10	1	-1E+10	1	-1E+10	1	-1E+10	1	-1E+10	1	-1E+10	1
4901784	175	C	04/19/2020	10:45	-132.508	43.394	0	1224.80	0	3.0850	0	37.0480	8	29.522	0	1211.471	0	14.0	4	4.4	4	-1E+10	1	-1E+10	1	-1E+10	1	-1E+10	1	-1E+10	1	-1E+10	1
4901784	175	C	04/19/2020	10:45	-132.508	43.394	0	1230.30	0	3.0740	0	37.0500	8	29.524	0	1216.895	0	14.1	4	4.4	4	-1E+10	1	-1E+10	1	-1E+10	1	-1E+10	1	-1E+10	1	-1E+10	1
4901784	175	C	04/19/2020	10:45	-132.508	43.394	0	1235.70	0	3.0720	0	37.0500	8	29.525	0	1222.220	0	14.1	4	4.5	4	-1E+10	1	-1E+10	1	-1E+10	1	-1E+10	1	-1E+10	1	-1E+10	1
4901784	175	C	04/19/2020	10:45	-132.508	43.394	0	1240.50	0	3.0650	0	37.0520	8	29.527	0	1226.954	0	14.3	4	4.5	4	-1E+10	1	-1E+10	1	-1E+10	1	-1E+10	1	-1E+10	1	-1E+10	1
4901784	175	C	04/19/2020	10:45	-132.508	43.394	0	1245.30	0	3.0560	0	37.0530	8	29.529	0	1231.688	0	14.4	4	4.5	4	-1E+10	1	-1E+10	1	-1E+10	1	-1E+10	1	-1E+10	1	-1E+10	1
4901784	175	C	04/19/2020	10:45	-132.508	43.394	0	1250.20	0	3.0500	0	37.0550	8	29.531	0	1236.520	0	14.5	4	4.6	4	-1E+10	1	-1E+10	1	-1E+10	1	-1E+10	1	-1E+10	1	-1E+10	1
4901784	175	C	04/19/2020	10:45	-132.508	43.394	0	1255.10	0	3.0360	0	37.0570	8	29.534	0	1241.351	0	14.7	4	4.6	4	-1E+10	1	-1E+10	1	-1E+10	1	-1E+10	1	-1E+10	1	-1E+10	1
4901784	175	C	04/19/2020	10:45	-132.508	43.394	0	1260.00	0	3.0250	0	37.0590	8	29.537	0	1246.183	0	14.8	4	4.7	4	-1E+10	1	-1E+10	1	-1E+10	1	-1E+10	1	-1E+10	1	-1E+10	1
4901784	175	C	04/19/2020	10:45	-132.508	43.394	0	1264.90	0	3.0130	0	37.0610	8	29.539	0	1251.015	0	15.0	4	4.7	4	-1E+10	1	-1E+10	1	-1E+10	1	-1E+10	1	-1E+10	1	-1E+10	1
4901784	175	C	04/19/2020	10:45	-132.508	43.394	0	1269.70	0	3.0010	0	37.0640	8	29.543	0	1255.748	0	15.1	4	4.8	4	-1E+10	1	-1E+10	1	-1E+10	1	-1E+10	1	-1E+10	1	-1E+10	1
4901784	175	C	04/19/2020	10:45	-132.508	43.394	0	1274.70	0	2.9930	0	37.0650	8	29.545	0	1260.678	0	15.2	4	4.8	4	-1E+10	1	-1E+10	1	-1E+10	1	-1E+10	1	-1E+10	1	-1E+10	1
4901784	175	C	04/19/2020	10:45	-132.508	43.394	0	1279.70	0	2.9910	0	37.0650	8	29.545	0	1265.608	0	15.4	4	4.8	4	-1E+10	1	-1E+10	1	-1E+10	1	-1E+10	1	-1E+10	1	-1E+10	1
4901784	175	C	04/19/2020	10:45	-132.508	43.394	0	1284.70	0	2.9790	0	37.0680	8	29.549	0	1270.538	0	15.5	4	4.9	4	-1E+10	1	-1E+10	1	-1E+10	1	-1E+10	1	-1E+10	1	-1E+10	1
4901784	175	C	04/19/2020	10:45	-132.508	43.394	0	1289.80	0	2.9680	0	37.0700	8	29.551	0	1275.566	0	15.7	4	4.9	4	-1E+10	1	-1E+10	1	-1E+10	1	-1E+10	1	-1E+10	1	-1E+10	1
4901784	175	C	04/19/2020	10:45	-132.508	43.394	0	1294.80	0	2.9570	0	37.0710	8	29.553	0	1280.496	0	15.9	4	5.0	4	-1E+10	1	-1E+10	1	-1E+10	1	-1E+10	1	-1E+10	1	-1E+10	1
4901784	175	C	04/19/2020	10:45	-132.508	43.394	0	1299.90	0	2.9470	0	37.0730	8	29.556	0	1285.524	0	16.1	4	5.1	4	-1E+10	1	-1E+10	1	-1E+10	1	-1E+10	1	-1E+10	1	-1E+10	1
4901784	175	C	04/19/2020	10:45	-132.508	43.394	0	1305.00	0	2.9330	0	37.0750	8	29.559	0	1290.552	0	16.2	4	5.1	4	-1E+10	1	-1E+10	1	-1E+10	1	-1E+10	1	-1E+10	1	-1E+10	1
4901784	175	C	04/19/2020	10:45	-132.508	43.394	0	1310.10	0	2.9250	0	37.0760	8	29.560	0	1295.580	0	16.4	4	5.2	4	-1E+10	1	-1E+10	1	-1E+10	1	-1E+10	1	-1E+10	1	-1E+10	1
4901784	175	C	04/19/2020	10:45	-132.508	43.394	0	1315.10	0	2.9190	0	37.0770	8	29.562	0	1300.509	0	16.6	4	5.2	4	-1E+10	1	-1E+10	1	-1E+10	1	-1E+10	1	-1E+10	1	-1E+10	1
4901784	175	C	04/19/2020	10:45	-132.508	43.394	0	1320.20	0	2.9020	0	37.0800	8	29.566	0	1305.537	0	16.8	4	5.3	4	-1E+10	1	-1E+10	1	-1E+10	1	-1E+10	1	-1E+10	1	-1E+10	1
4901784	175	C	04/19/2020	10:45	-132.508	43.394	0	1325.30	0	2.8930	0	37.0820	8	29.568	0	1310.564	0	17.0	4	5.3	4	-1E+10	1	-1E+10	1	-1E+10	1	-1E+10	1	-1E+10	1	-1E+10	1
4901784	175	C	04/19/2020	10:45	-132.508	43.394	0	1330.40	0	2.8840	0	37.0830	8	29.570	0	1315.592	0	17.1	4	5.4	4	-1E+10	1	-1E+10	1	-1E+10	1	-1E+10	1	-1E+10	1	-1E+10	1
4901784	175	C	04/19/2020	10:45	-132.508	43.394	0	1335.50	0	2.8750	0	37.0850	8	29.572	0	1320.619	0	17.3	4	5.4	4	-1E+10	1	-1E+10	1	-1E+10	1	-1E+10	1	-1E+10	1	-1E+10	1
4901784	175	C	04/19/2020	10:45	-132.508	43.394	0	1340.60	0	2.8620	0	37.0870	8	29.575	0	1325.646	0	17.6	4	5.5	4	-1E+10	1	-1E+10	1	-1E+10	1	-1E+10	1	-1E+10	1	-1E+10	1
4901784	175	C	04/19/2020	10:45	-132.508	43.394	0	1345.00	0	2.8520	0	37.0890	8	29.578	0	1329.983	0	17.8	4	5.6	4	-1E+10	1	-1E+10	1	-1E+10	1	-1E+10	1	-1E+10	1	-1E+10	1
4901784	175	C	04/19/2020	10:45	-132.508	43.394	0	1349.30	0	2.8470	0	37.0900	8	29.579	0	1334.221	0	17.9	4	5.6	4	-1E+10	1	-1E+10	1	-1E+10	1	-1E+10	1	-1E+10	1	-1E+10	1
4901784	175	C	04/19/2020	10:45	-132.508	43.394	0	1354.40	0	2.8360	0	37.0920	8	29.582	0	1339.248	0	18.2	4	5.7	4	-1E+10	1	-1E+10	1	-1E+10	1	-1E+10	1	-1E+10	1	-1E+10	1
4901784	175	C	04/19/2020	10:45	-132.508	43.394	0	1359.90	0	2.8240	0	37.0940	8	29.585	0	1344.669	0	18.4	4	5.8	4	-1E+10	1	-1E+10	1	-1E+10	1	-1E+10	1	-1E+10	1	-1E+10	1
4901784	175	C	04/19/2020	10:45	-132.508	43.394	0	1365.20	0	2.8160	0	37.0960	8	29.587	0	1349.893	0	18.6	4	5.8	4	-1E+10	1	-1E+10	1	-1E+10	1	-1E+10	1	-1E+10	1	-1E+10	1
4901784	175	C	04/19/2020	10:45	-132.508	43.394	0	1370.60	0	2.8100	0	37.0970	8	29.589	0	1355.215	0	18.7	4	5.9	4	-1E+10	1	-1E+10	1	-1E+10	1	-1E+10	1	-1E+10	1	-1E+10	1
4901784	175	C	04/19/2020	10:45	-132.508	43.394	0	1375.10	0	2.8030	0	37.0980	8	29.590	0	1359.650	0	18.9	4	5.9	4	-1E+10	1	-1E+10	1	-1E+10	1	-1E+10	1	-1E+10	1	-1E+10	1
4901784	175	C	04/19/2020	10:45	-132.508	43.394	0	1380.10	0	2.7960	0	37.1000	8	29.592	0	1364.578	0	19.0	4	6.0	4	-1E+10	1	-1E+10	1	-1E+10	1	-1E+10	1	-1E+10	1	-1E+10	1
4901784	175	C	04/19/2020	10:45	-132.508	43.394	0	1385.00	0	2.7890	0	37.1010	8	29.594	0	1369.407	0	19.3	4	6.0	4	-1E+10	1	-1E+10	1	-1E+10	1	-1E+10	1	-1E+10	1	-1E+10	1
4901784	175	C	04/19/2020	10:45	-132.508	43.394	0	1390.00	0	2.7750	0	37.1040	8	29.598	0	1374.334	0	19.5	4	6.1	4	-1E+10	1	-1E+10	1	-1E+10	1	-1E+10	1	-1E+10	1	-1E+10	1
4901784	175	C	04/19/2020	10:45	-132.508	43.394	0	1395.20	0	2.7710	0	37.1050	8	29.599	0	1379.458	0	19.5	4	6.1	4	-1E+10	1	-1E+10	1	-1E+10	1	-1E+10	1	-1E+10	1	-1E+10	1
4901784	175	C	04/19/2020	10:45	-132.508	43.394	0	1400.30	0	2.7700	0	37.1050	8	29.599	0	1384.484	0	19.6	4	6.1	4	-1E+10	1	-1E+10	1	-1E+10	1	-1E+10	1	-1E+10	1	-1E+10	1
4901784	175	C	04/19/2020	10:45	-132.508	43.394	0	1405.40	0	2.7670	0	37.1060	8	29.600	0	1389.510	0	19.8	4	6.2	4	-1E+10	1	-1E+10	1	-1E+10	1	-1E+10	1	-1E+10	1	-1E+10	1
4901784	175	C	04/19/2020	10:45	-132.508	43.394	0	1410.50	0	2.7560	0	37.1070	8	29.602	0	1394.535	0	20.0	4	6.3	4	-1E+10	1	-1E+10	1	-1E+10	1	-1E+10	1	-1E+10	1	-1E+10	1
4901784	175	C	04/19/2020	10:45	-132.508	43.394	0	1415.70	0	2.7480	0	37.1090	8	29.604	0	1399.659	0	20.3	4	6.3	4	-1E+10	1	-1E+10	1	-1E+10	1	-1E+10	1	-1E+10	1	-1E+10	1
4901784	175	C	04/19/2020	10:45	-132.508	43.394	0	1420.00	0	2.7410	0	37.1110	8	29.607	0	1403.896	0	20.5	4	6.4	4	-1E+10	1	-1E+10	1	-1E+10	1	-1E+10	1	-1E+10	1	-1E+10	1
4901784	175	C	04/19/2020	10:45	-132.508	43.394	0	1424.40	0	2.7330	0	37.1110	8	29.607	0	1408.232	0	20.7	4	6.5	4	-1E+10	1	-1E+10	1	-1E+10	1	-1E+10	1	-1E+10	1	-1E+10	1
4901784	175	C	04/19/2020	10:45	-132.508	43.394	0	1429.70	0	2.7220	0	37.1130	8	29.610	0	1413.454	0	21.1	4	6.6	4	-1E+10	1	-1E+10	1	-1E+10	1	-1E+10	1	-1E+10	1	-1E+10	1
4901784	175	C	04/19/2020	10:45	-132.508	43.394	0	1434.90	0	2.7100	0	37.1160	8	29.614	0	1418.577	0	21.5	4	6.7	4	-1E+10	1	-1E+10	1	-1E+10	1	-1E+10	1	-1E+10	1	-1E+10	1
4901784	175	C	04/19/2020	10:45	-132.508	43.394	0	1440.20	0	2.6970	0	37.1180	8	29.616	0	1423.799	0	21.8	4	6.8	4	-1E+10	1	-1E+10	1	-1E+10	1	-1E+10	1	-1E+10	1	-1E+10	1
4901784	175	C	04/19/2020	10:45	-132.508	43.394	0	1445.50	0	2.6850	0	37.1200	8	29.619	0	1429.021	0	22.2	4	6.9	4	-1E+10	1	-1E+10	1	-1E+10	1	-1E+10	1	-1E+10	1	-1E+10	1
4901784	175	C	04/19/2020	10:45	-132.508	43.394	0	1449.90	0	2.6740	0	37.1220	8	29.622	0	1433.356	0	22.5	4	7.0	4	-1E+10	1	-1E+10	1	-1E+10	1	-1E+10	1	-1E+10	1	-1E+10	1
4901784	175	C	04/19/2020	10:45	-132.508	43.394	0	1454.30	0	2.6630	0	37.1230	8	29.624	0	1437.690	0	22.7	4	7.1	4	-1E+10	1	-1E+10	1	-1E+10	1	-1E+10	1	-1E+10	1	-1E+10	1
4901784	175	C	04/19/2020	10:45	-132.508	43.394	0	1459.60	0	2.6490	0	37.1250	8	29.627	0	1442.912	0	23.1	4	7.2	4	-1E+10	1	-1E+10	1	-1E+10	1	-1E+10	1	-1E+10	1	-1E+10	1
4901784	175	C	04/19/2020	10:45	-132.508	43.394	0	1465.10	0	2.6310	0	37.1280	8	29.631	0	1448.330	0	23.6	4	7.4	4	-1E+10	1	-1E+10	1	-1E+10	1	-1E+10	1	-1E+10	1	-1E+10	1
4901784	175	C	04/19/2020	10:45	-132.508	43.394	0	1470.50	0	2.6210	0	37.1300	8	29.633	0	1453.650	0	23.8	4	7.4	4	-1E+10	1	-1E+10	1	-1E+10	1	-1E+10	1	-1E+10	1	-1E+10	1
4901784	175	C	04/19/2020	10:45	-132.508	43.394	0	1475.00	0	2.6150	0	37.1310	8	29.635	0	1458.083	0	24.0	4	7.5	4	-1E+10	1	-1E+10	1	-1E+10	1	-1E+10	1	-1E+10	1	-1E+10	1
4901784	175	C	04/19/2020	10:45	-132.508	43.394	0	1479.60	0	2.6070	0	37.1320	8	29.636	0	1462.614	0	24.3	4	7.6	4	-1E+10	1	-1E+10	1	-1E+10	1	-1E+10	1	-1E+10	1	-1E+10	1
4901784	175	C	04/19/2020	10:45	-132.508	43.394	0	1485.10	0	2.5930	0	37.1340	8	29.639	0	1468.032	0	24.7	4	7.7	4	-1E+10	1	-1E+10	1	-1E+10	1	-1E+10	1	-1E+10	1	-1E+10	1
4901784	175	C	04/19/2020	10:45	-132.508	43.394	0	1490.30	0	2.5840	0	37.1360	8	29.642	0	1473.154	0	25.0	4	7.8	4	-1E+10	1	-1E+10	1	-1E+10	1	-1E+10	1	-1E+10	1	-1E+10	1
4901784	175	C	04/19/2020	10:45	-132.508	43.394	0	1495.40	0	2.5790	0	37.1370	8	29.643	0	1478.177	0	25.1	4	7.8	4	-1E+10	1	-1E+10	1	-1E+10	1	-1E+10	1	-1E+10	1	-1E+10	1
4901784	175	C	04/19/2020	10:45	-132.508	43.394	0	1500.50	0	2.5720	0	37.1380	8	29.644	0	1483.201	0	25.5	4	7.9	4	-1E+10	1	-1E+10	1	-1E+10	1	-1E+10	1	-1E+10	1	-1E+10	1
4901784	175	C	04/19/2020	10:45	-132.508	43.394	0	1505.60	0	2.5640	0	37.1390	8	29.646	0	1488.224	0	25.8	4	8.0	4	-1E+10	1	-1E+10	1	-1E+10	1	-1E+10	1	-1E+10	1	-1E+10	1
4901784	175	C	04/19/2020	10:45	-132.508	43.394	0	1510.70	0	2.5520	0	37.1410	8	29.649	0	1493.247	0	26.2	4	8.2	4	-1E+10	1	-1E+10	1	-1E+10	1	-1E+10	1	-1E+10	1	-1E+10	1
4901784	175	C	04/19/2020	10:45	-132.508	43.394	0	1515.00	0	2.5430	0	37.1430	8	29.651	0	1497.482	0	26.5	4	8.3	4	-1E+10	1	-1E+10	1	-1E+10	1	-1E+10	1	-1E+10	1	-1E+10	1
4901784	175	C	04/19/2020	10:45	-132.508	43.394	0	1519.30	0	2.5340	0	37.1440	8	29.653	0	1501.717	0	26.8	4	8.3	4	-1E+10	1	-1E+10	1	-1E+10	1	-1E+10	1	-1E+10	1	-1E+10	1
4901784	175	C	04/19/2020	10:45	-132.508	43.394	0	1524.50	0	2.5240	0	37.1450	8	29.655	0	1506.838	0	27.2	4	8.5	4	-1E+10	1	-1E+10	1	-1E+10	1	-1E+10	1	-1E+10	1	-1E+10	1
4901784	175	C	04/19/2020	10:45	-132.508	43.394	0	1529.80	0	2.5110	0	37.1480	8	29.658	0	1512.058	0	27.5	4	8.6	4	-1E+10	1	-1E+10	1	-1E+10	1	-1E+10	1	-1E+10	1	-1E+10	1
4901784	175	C	04/19/2020	10:45	-132.508	43.394	0	1535.00	0	2.5030	0	37.1490	8	29.660	0	1517.179	0	27.8	4	8.7	4	-1E+10	1	-1E+10	1	-1E+10	1	-1E+10	1	-1E+10	1	-1E+10	1
4901784	175	C	04/19/2020	10:45	-132.508	43.394	0	1540.30	0	2.4970	0	37.1500	8	29.661	0	1522.399	0	28.1	4	8.7	4	-1E+10	1	-1E+10	1	-1E+10	1	-1E+10	1	-1E+10	1	-1E+10	1
4901784	175	C	04/19/2020	10:45	-132.508	43.394	0	1545.70	0	2.4890	0	37.1510	8	29.663	0	1527.716	0	28.4	4	8.8	4	-1E+10	1	-1E+10	1	-1E+10	1	-1E+10	1	-1E+10	1	-1E+10	1
4901784	175	C	04/19/2020	10:45	-132.508	43.394	0	1550.20	0	2.4820	0	37.1530	8	29.665	0	1532.148	0	28.7	4	8.9	4	-1E+10	1	-1E+10	1	-1E+10	1	-1E+10	1	-1E+10	1	-1E+10	1
4901784	175	C	04/19/2020	10:45	-132.508	43.394	0	1554.60	0	2.4730	0	37.1540	8	29.667	0	1536.480	0	28.9	4	9.0	4	-1E+10	1	-1E+10	1	-1E+10	1	-1E+10	1	-1E+10	1	-1E+10	1
4901784	175	C	04/19/2020	10:45	-132.508	43.394	0	1560.10	0	2.4660	0	37.1550	8	29.668	0	1541.896	0	29.2	4	9.1	4	-1E+10	1	-1E+10	1	-1E+10	1	-1E+10	1	-1E+10	1	-1E+10	1
4901784	175	C	04/19/2020	10:45	-132.508	43.394	0	1565.60	0	2.4560	0	37.1570	8	29.671	0	1547.312	0	29.6	4	9.2	4	-1E+10	1	-1E+10	1	-1E+10	1	-1E+10	1	-1E+10	1	-1E+10	1
4901784	175	C	04/19/2020	10:45	-132.508	43.394	0	1570.20	0	2.4480	0	37.1590	8	29.673	0	1551.841	0	29.9	4	9.3	4	-1E+10	1	-1E+10	1	-1E+10	1	-1E+10	1	-1E+10	1	-1E+10	1
4901784	175	C	04/19/2020	10:45	-132.508	43.394	0	1574.80	0	2.4410	0	37.1590	8	29.674	0	1556.371	0	30.2	4	9.4	4	-1E+10	1	-1E+10	1	-1E+10	1	-1E+10	1	-1E+10	1	-1E+10	1
4901784	175	C	04/19/2020	10:45	-132.508	43.394	0	1580.10	0	2.4340	0	37.1610	8	29.676	0	1561.589	0	30.4	4	9.5	4	-1E+10	1	-1E+10	1	-1E+10	1	-1E+10	1	-1E+10	1	-1E+10	1
4901784	175	C	04/19/2020	10:45	-132.508	43.394	0	1585.40	0	2.4280	0	37.1620	8	29.677	0	1566.808	0	30.7	4	9.5	4	-1E+10	1	-1E+10	1	-1E+10	1	-1E+10	1	-1E+10	1	-1E+10	1
4901784	175	C	04/19/2020	10:45	-132.508	43.394	0	1590.20	0	2.4200	0	37.1630	8	29.679	0	1571.533	0	31.0	4	9.6	4	-1E+10	1	-1E+10	1	-1E+10	1	-1E+10	1	-1E+10	1	-1E+10	1
4901784	175	C	04/19/2020	10:45	-132.508	43.394	0	1595.10	0	2.4080	0	37.1650	8	29.682	0	1576.358	0	31.3	4	9.7	4	-1E+10	1	-1E+10	1	-1E+10	1	-1E+10	1	-1E+10	1	-1E+10	1
4901784	175	C	04/19/2020	10:45	-132.508	43.394	0	1600.00	0	2.3990	0	37.1660	8	29.683	0	1581.182	0	31.6	4	9.8	4	-1E+10	1	-1E+10	1	-1E+10	1	-1E+10	1	-1E+10	1	-1E+10	1
4901784	175	C	04/19/2020	10:45	-132.508	43.394	0	1604.80	0	2.3940	0	37.1670	8	29.684	0	1585.907	0	31.9	4	9.9	4	-1E+10	1	-1E+10	1	-1E+10	1	-1E+10	1	-1E+10	1	-1E+10	1
4901784	175	C	04/19/2020	10:45	-132.508	43.394	0	1609.80	0	2.3840	0	37.1680	8	29.686	0	1590.830	0	32.3	4	10.0	4	-1E+10	1	-1E+10	1	-1E+10	1	-1E+10	1	-1E+10	1	-1E+10	1
4901784	175	C	04/19/2020	10:45	-132.508	43.394	0	1614.70	0	2.3750	0	37.1700	8	29.689	0	1595.654	0	32.7	4	10.1	4	-1E+10	1	-1E+10	1	-1E+10	1	-1E+10	1	-1E+10	1	-1E+10	1
4901784	175	C	04/19/2020	10:45	-132.508	43.394	0	1619.70	0	2.3690	0	37.1710	8	29.690	0	1600.576	0	32.9	4	10.2	4	-1E+10	1	-1E+10	1	-1E+10	1	-1E+10	1	-1E+10	1	-1E+10	1
4901784	175	C	04/19/2020	10:45	-132.508	43.394	0	1624.70	0	2.3620	0	37.1730	8	29.692	0	1605.498	0	33.2	4	10.3	4	-1E+10	1	-1E+10	1	-1E+10	1	-1E+10	1	-1E+10	1	-1E+10	1
4901784	175	C	04/19/2020	10:45	-132.508	43.394	0	1629.80	0	2.3510	0	37.1740	8	29.694	0	1610.518	0	33.6	4	10.4	4	-1E+10	1	-1E+10	1	-1E+10	1	-1E+10	1	-1E+10	1	-1E+10	1
4901784	175	C	04/19/2020	10:45	-132.508	43.394	0	1635.00	0	2.3420	0	37.1760	8	29.697	0	1615.637	0	33.9	4	10.5	4	-1E+10	1	-1E+10	1	-1E+10	1	-1E+10	1	-1E+10	1	-1E+10	1
4901784	175	C	04/19/2020	10:45	-132.508	43.394	0	1640.10	0	2.3380	0	37.1770	8	29.698	0	1620.657	0	34.0	4	10.6	4	-1E+10	1	-1E+10	1	-1E+10	1	-1E+10	1	-1E+10	1	-1E+10	1
4901784	175	C	04/19/2020	10:45	-132.508	43.394	0	1645.20	0	2.3370	0	37.1770	8	29.698	0	1625.677	0	34.2	4	10.6	4	-1E+10	1	-1E+10	1	-1E+10	1	-1E+10	1	-1E+10	1	-1E+10	1
4901784	175	C	04/19/2020	10:45	-132.508	43.394	0	1650.30	0	2.3310	0	37.1780	8	29.699	0	1630.697	0	34.6	4	10.7	4	-1E+10	1	-1E+10	1	-1E+10	1	-1E+10	1	-1E+10	1	-1E+10	1
4901784	175	C	04/19/2020	10:45	-132.508	43.394	0	1655.50	0	2.3240	0	37.1790	8	29.701	0	1635.815	0	34.9	4	10.8	4	-1E+10	1	-1E+10	1	-1E+10	1	-1E+10	1	-1E+10	1	-1E+10	1
4901784	175	C	04/19/2020	10:45	-132.508	43.394	0	1660.70	0	2.3200	0	37.1800	8	29.702	0	1640.933	0	35.2	4	10.9	4	-1E+10	1	-1E+10	1	-1E+10	1	-1E+10	1	-1E+10	1	-1E+10	1
4901784	175	C	04/19/2020	10:45	-132.508	43.394	0	1665.00	0	2.3130	0	37.1810	8	29.703	0	1645.165	0	35.5	4	11.0	4	-1E+10	1	-1E+10	1	-1E+10	1	-1E+10	1	-1E+10	1	-1E+10	1
4901784	175	C	04/19/2020	10:45	-132.508	43.394	0	1669.40	0	2.3020	0	37.1830	8	29.706	0	1649.496	0	35.9	4	11.1	4	-1E+10	1	-1E+10	1	-1E+10	1	-1E+10	1	-1E+10	1	-1E+10	1
4901784	175	C	04/19/2020	10:45	-132.508	43.394	0	1674.70	0	2.2940	0	37.1840	8	29.707	0	1654.712	0	36.2	4	11.2	4	-1E+10	1	-1E+10	1	-1E+10	1	-1E+10	1	-1E+10	1	-1E+10	1
4901784	175	C	04/19/2020	10:45	-132.508	43.394	0	1679.90	0	2.2850	0	37.1860	8	29.710	0	1659.829	0	36.6	4	11.3	4	-1E+10	1	-1E+10	1	-1E+10	1	-1E+10	1	-1E+10	1	-1E+10	1
4901784	175	C	04/19/2020	10:45	-132.508	43.394	0	1685.20	0	2.2820	0	37.1870	8	29.711	0	1665.045	0	36.8	4	11.4	4	-1E+10	1	-1E+10	1	-1E+10	1	-1E+10	1	-1E+10	1	-1E+10	1
4901784	175	C	04/19/2020	10:45	-132.508	43.394	0	1690.60	0	2.2760	0	37.1880	8	29.712	0	1670.359	0	37.2	4	11.5	4	-1E+10	1	-1E+10	1	-1E+10	1	-1E+10	1	-1E+10	1	-1E+10	1
4901784	175	C	04/19/2020	10:45	-132.508	43.394	0	1695.00	0	2.2710	0	37.1890	8	29.714	0	1674.689	0	37.4	4	11.6	4	-1E+10	1	-1E+10	1	-1E+10	1	-1E+10	1	-1E+10	1	-1E+10	1
4901784	175	C	04/19/2020	10:45	-132.508	43.394	0	1699.50	0	2.2650	0	37.1890	8	29.714	0	1679.117	0	37.7	4	11.7	4	-1E+10	1	-1E+10	1	-1E+10	1	-1E+10	1	-1E+10	1	-1E+10	1
4901784	175	C	04/19/2020	10:45	-132.508	43.394	0	1705.00	0	2.2570	0	37.1900	8	29.716	0	1684.530	0	38.2	4	11.8	4	-1E+10	1	-1E+10	1	-1E+10	1	-1E+10	1	-1E+10	1	-1E+10	1
4901784	175	C	04/19/2020	10:45	-132.508	43.394	0	1710.50	0	2.2470	0	37.1930	8	29.719	0	1689.942	0	38.6	4	12.0	4	-1E+10	1	-1E+10	1	-1E+10	1	-1E+10	1	-1E+10	1	-1E+10	1
4901784	175	C	04/19/2020	10:45	-132.508	43.394	0	1715.00	0	2.2420	0	37.1930	8	29.720	0	1694.370	0	38.9	4	12.1	4	-1E+10	1	-1E+10	1	-1E+10	1	-1E+10	1	-1E+10	1	-1E+10	1
4901784	175	C	04/19/2020	10:45	-132.508	43.394	0	1719.60	0	2.2350	0	37.1940	8	29.721	0	1698.896	0	39.4	4	12.2	4	-1E+10	1	-1E+10	1	-1E+10	1	-1E+10	1	-1E+10	1	-1E+10	1
4901784	175	C	04/19/2020	10:45	-132.508	43.394	0	1725.10	0	2.2240	0	37.1960	8	29.724	0	1704.308	0	39.9	4	12.3	4	-1E+10	1	-1E+10	1	-1E+10	1	-1E+10	1	-1E+10	1	-1E+10	1
4901784	175	C	04/19/2020	10:45	-132.508	43.394	0	1730.50	0	2.2130	0	37.1980	8	29.726	0	1709.621	0	40.4	4	12.5	4	-1E+10	1	-1E+10	1	-1E+10	1	-1E+10	1	-1E+10	1	-1E+10	1
4901784	175	C	04/19/2020	10:45	-132.508	43.394	0	1735.40	0	2.2070	0	37.1990	8	29.728	0	1714.442	0	40.8	4	12.6	4	-1E+10	1	-1E+10	1	-1E+10	1	-1E+10	1	-1E+10	1	-1E+10	1
4901784	175	C	04/19/2020	10:45	-132.508	43.394	0	1740.30	0	2.1970	0	37.2000	8	29.729	0	1719.263	0	41.3	4	12.8	4	-1E+10	1	-1E+10	1	-1E+10	1	-1E+10	1	-1E+10	1	-1E+10	1
4901784	175	C	04/19/2020	10:45	-132.508	43.394	0	1745.30	0	2.1890	0	37.2020	8	29.732	0	1724.182	0	41.7	4	12.9	4	-1E+10	1	-1E+10	1	-1E+10	1	-1E+10	1	-1E+10	1	-1E+10	1
4901784	175	C	04/19/2020	10:45	-132.508	43.394	0	1750.20	0	2.1800	0	37.2030	8	29.733	0	1729.003	0	42.2	4	13.1	4	-1E+10	1	-1E+10	1	-1E+10	1	-1E+10	1	-1E+10	1	-1E+10	1
4901784	175	C	04/19/2020	10:45	-132.508	43.394	0	1755.20	0	2.1710	0	37.2050	8	29.736	0	1733.922	0	42.6	4	13.2	4	-1E+10	1	-1E+10	1	-1E+10	1	-1E+10	1	-1E+10	1	-1E+10	1
4901784	175	C	04/19/2020	10:45	-132.508	43.394	0	1760.10	0	2.1640	0	37.2060	8	29.737	0	1738.742	0	43.0	4	13.3	4	-1E+10	1	-1E+10	1	-1E+10	1	-1E+10	1	-1E+10	1	-1E+10	1
4901784	175	C	04/19/2020	10:45	-132.508	43.394	0	1765.10	0	2.1570	0	37.2080	8	29.739	0	1743.661	0	43.3	4	13.4	4	-1E+10	1	-1E+10	1	-1E+10	1	-1E+10	1	-1E+10	1	-1E+10	1
4901784	175	C	04/19/2020	10:45	-132.508	43.394	0	1770.20	0	2.1530	0	37.2080	8	29.740	0	1748.678	0	43.6	4	13.5	4	-1E+10	1	-1E+10	1	-1E+10	1	-1E+10	1	-1E+10	1	-1E+10	1
4901784	175	C	04/19/2020	10:45	-132.508	43.394	0	1775.30	0	2.1470	0	37.2100	8	29.742	0	1753.695	0	44.0	4	13.6	4	-1E+10	1	-1E+10	1	-1E+10	1	-1E+10	1	-1E+10	1	-1E+10	1
4901784	175	C	04/19/2020	10:45	-132.508	43.394	0	1780.40	0	2.1410	0	37.2110	8	29.743	0	1758.712	0	44.4	4	13.7	4	-1E+10	1	-1E+10	1	-1E+10	1	-1E+10	1	-1E+10	1	-1E+10	1
4901784	175	C	04/19/2020	10:45	-132.508	43.394	0	1785.60	0	2.1330	0	37.2120	8	29.745	0	1763.827	0	44.8	4	13.8	4	-1E+10	1	-1E+10	1	-1E+10	1	-1E+10	1	-1E+10	1	-1E+10	1
4901784	175	C	04/19/2020	10:45	-132.508	43.394	0	1790.70	0	2.1280	0	37.2130	8	29.746	0	1768.844	0	45.1	4	13.9	4	-1E+10	1	-1E+10	1	-1E+10	1	-1E+10	1	-1E+10	1	-1E+10	1
4901784	175	C	04/19/2020	10:45	-132.508	43.394	0	1795.10	0	2.1220	0	37.2140	8	29.747	0	1773.172	0	45.3	4	14.0	4	-1E+10	1	-1E+10	1	-1E+10	1	-1E+10	1	-1E+10	1	-1E+10	1
4901784	175	C	04/19/2020	10:45	-132.508	43.394	0	1799.40	0	2.1190	0	37.2150	8	29.748	0	1777.401	0	45.6	4	14.1	4	-1E+10	1	-1E+10	1	-1E+10	1	-1E+10	1	-1E+10	1	-1E+10	1
4901784	175	C	04/19/2020	10:45	-132.508	43.394	0	1804.70	0	2.1130	0	37.2160	8	29.750	0	1782.614	0	45.9	4	14.2	4	-1E+10	1	-1E+10	1	-1E+10	1	-1E+10	1	-1E+10	1	-1E+10	1
4901784	175	C	04/19/2020	10:45	-132.508	43.394	0	1810.00	0	2.1080	0	37.2170	8	29.751	0	1787.827	0	46.2	4	14.3	4	-1E+10	1	-1E+10	1	-1E+10	1	-1E+10	1	-1E+10	1	-1E+10	1
4901784	175	C	04/19/2020	10:45	-132.508	43.394	0	1815.30	0	2.1040	0	37.2180	8	29.752	0	1793.040	0	46.5	4	14.3	4	-1E+10	1	-1E+10	1	-1E+10	1	-1E+10	1	-1E+10	1	-1E+10	1
4901784	175	C	04/19/2020	10:45	-132.508	43.394	0	1819.80	0	2.1010	0	37.2190	8	29.753	0	1797.466	0	46.7	4	14.4	4	-1E+10	1	-1E+10	1	-1E+10	1	-1E+10	1	-1E+10	1	-1E+10	1
4901784	175	C	04/19/2020	10:45	-132.508	43.394	0	1824.30	0	2.0950	0	37.2200	8	29.755	0	1801.891	0	46.9	4	14.5	4	-1E+10	1	-1E+10	1	-1E+10	1	-1E+10	1	-1E+10	1	-1E+10	1
4901784	175	C	04/19/2020	10:45	-132.508	43.394	0	1829.70	0	2.0940	0	37.2190	8	29.754	0	1807.202	0	47.2	4	14.6	4	-1E+10	1	-1E+10	1	-1E+10	1	-1E+10	1	-1E+10	1	-1E+10	1
4901784	175	C	04/19/2020	10:45	-132.508	43.394	0	1835.10	0	2.0850	0	37.2210	8	29.756	0	1812.513	0	47.7	4	14.7	4	-1E+10	1	-1E+10	1	-1E+10	1	-1E+10	1	-1E+10	1	-1E+10	1
4901784	175	C	04/19/2020	10:45	-132.508	43.394	0	1840.50	0	2.0780	0	37.2220	8	29.758	0	1817.823	0	48.0	4	14.8	4	-1E+10	1	-1E+10	1	-1E+10	1	-1E+10	1	-1E+10	1	-1E+10	1
4901784	175	C	04/19/2020	10:45	-132.508	43.394	0	1845.00	0	2.0750	0	37.2230	8	29.759	0	1822.248	0	48.3	4	14.9	4	-1E+10	1	-1E+10	1	-1E+10	1	-1E+10	1	-1E+10	1	-1E+10	1
4901784	175	C	04/19/2020	10:45	-132.508	43.394	0	1849.40	0	2.0690	0	37.2240	8	29.760	0	1826.575	0	48.6	4	15.0	4	-1E+10	1	-1E+10	1	-1E+10	1	-1E+10	1	-1E+10	1	-1E+10	1
4901784	175	C	04/19/2020	10:45	-132.508	43.394	0	1854.90	0	2.0640	0	37.2250	8	29.762	0	1831.984	0	49.0	4	15.1	4	-1E+10	1	-1E+10	1	-1E+10	1	-1E+10	1	-1E+10	1	-1E+10	1
4901784	175	C	04/19/2020	10:45	-132.508	43.394	0	1860.40	0	2.0570	0	37.2260	8	29.763	0	1837.392	0	49.3	4	15.2	4	-1E+10	1	-1E+10	1	-1E+10	1	-1E+10	1	-1E+10	1	-1E+10	1
4901784	175	C	04/19/2020	10:45	-132.508	43.394	0	1865.00	0	2.0540	0	37.2270	8	29.764	0	1841.915	0	49.5	4	15.3	4	-1E+10	1	-1E+10	1	-1E+10	1	-1E+10	1	-1E+10	1	-1E+10	1
4901784	175	C	04/19/2020	10:45	-132.508	43.394	0	1869.80	0	2.0500	0	37.2280	8	29.765	0	1846.635	0	49.8	4	15.3	4	-1E+10	1	-1E+10	1	-1E+10	1	-1E+10	1	-1E+10	1	-1E+10	1
4901784	175	C	04/19/2020	10:45	-132.508	43.394	0	1874.90	0	2.0450	0	37.2290	8	29.767	0	1851.650	0	50.1	4	15.4	4	-1E+10	1	-1E+10	1	-1E+10	1	-1E+10	1	-1E+10	1	-1E+10	1
4901784	175	C	04/19/2020	10:45	-132.508	43.394	0	1879.70	0	2.0420	0	37.2300	8	29.768	0	1856.369	0	50.2	4	15.5	4	-1E+10	1	-1E+10	1	-1E+10	1	-1E+10	1	-1E+10	1	-1E+10	1
4901784	175	C	04/19/2020	10:45	-132.508	43.394	0	1884.50	0	2.0400	0	37.2300	8	29.768	0	1861.088	0	50.5	4	15.5	4	-1E+10	1	-1E+10	1	-1E+10	1	-1E+10	1	-1E+10	1	-1E+10	1
4901784	175	C	04/19/2020	10:45	-132.508	43.394	0	1889.40	0	2.0370	0	37.2310	8	29.769	0	1865.906	0	50.8	4	15.6	4	-1E+10	1	-1E+10	1	-1E+10	1	-1E+10	1	-1E+10	1	-1E+10	1
4901784	175	C	04/19/2020	10:45	-132.508	43.394	0	1895.00	0	2.0320	0	37.2320	8	29.770	0	1871.412	0	51.1	4	15.7	4	-1E+10	1	-1E+10	1	-1E+10	1	-1E+10	1	-1E+10	1	-1E+10	1
4901784	175	C	04/19/2020	10:45	-132.508	43.394	0	1900.80	0	2.0250	0	37.2330	8	29.772	0	1877.114	0	51.5	4	15.9	4	-1E+10	1	-1E+10	1	-1E+10	1	-1E+10	1	-1E+10	1	-1E+10	1
4901784	175	C	04/19/2020	10:45	-132.508	43.394	0	1905.70	0	2.0200	0	37.2340	8	29.773	0	1881.931	0	51.8	4	16.0	4	-1E+10	1	-1E+10	1	-1E+10	1	-1E+10	1	-1E+10	1	-1E+10	1
4901784	175	C	04/19/2020	10:45	-132.508	43.394	0	1910.60	0	2.0170	0	37.2340	8	29.773	0	1886.749	0	52.1	4	16.0	4	-1E+10	1	-1E+10	1	-1E+10	1	-1E+10	1	-1E+10	1	-1E+10	1
4901784	175	C	04/19/2020	10:45	-132.508	43.394	0	1915.60	0	2.0120	0	37.2350	8	29.774	0	1891.664	0	52.4	4	16.1	4	-1E+10	1	-1E+10	1	-1E+10	1	-1E+10	1	-1E+10	1	-1E+10	1
4901784	175	C	04/19/2020	10:45	-132.508	43.394	0	1920.50	0	2.0090	0	37.2360	8	29.775	0	1896.481	0	52.6	4	16.2	4	-1E+10	1	-1E+10	1	-1E+10	1	-1E+10	1	-1E+10	1	-1E+10	1
4901784	175	C	04/19/2020	10:45	-132.508	43.394	0	1925.60	0	2.0050	0	37.2370	8	29.777	0	1901.494	0	52.9	4	16.3	4	-1E+10	1	-1E+10	1	-1E+10	1	-1E+10	1	-1E+10	1	-1E+10	1
4901784	175	C	04/19/2020	10:45	-132.508	43.394	0	1930.60	0	2.0020	0	37.2370	8	29.777	0	1906.409	0	53.1	4	16.3	4	-1E+10	1	-1E+10	1	-1E+10	1	-1E+10	1	-1E+10	1	-1E+10	1
4901784	175	C	04/19/2020	10:45	-132.508	43.394	0	1935.60	0	1.9970	0	37.2390	8	29.779	0	1911.324	0	53.4	4	16.4	4	-1E+10	1	-1E+10	1	-1E+10	1	-1E+10	1	-1E+10	1	-1E+10	1
4901784	175	C	04/19/2020	10:45	-132.508	43.394	0	1940.60	0	1.9940	0	37.2390	8	29.779	0	1916.239	0	53.7	4	16.5	4	-1E+10	1	-1E+10	1	-1E+10	1	-1E+10	1	-1E+10	1	-1E+10	1
4901784	175	C	04/19/2020	10:45	-132.508	43.394	0	1945.60	0	1.9920	0	37.2390	8	29.780	0	1921.154	0	54.0	4	16.6	4	-1E+10	1	-1E+10	1	-1E+10	1	-1E+10	1	-1E+10	1	-1E+10	1
4901784	175	C	04/19/2020	10:45	-132.508	43.394	0	1950.70	0	1.9840	0	37.2410	8	29.782	0	1926.167	0	54.4	4	16.7	4	-1E+10	1	-1E+10	1	-1E+10	1	-1E+10	1	-1E+10	1	-1E+10	1
4901784	175	C	04/19/2020	10:45	-132.508	43.394	0	1955.70	0	1.9820	0	37.2420	8	29.783	0	1931.081	0	54.7	4	16.8	4	-1E+10	1	-1E+10	1	-1E+10	1	-1E+10	1	-1E+10	1	-1E+10	1
4901784	175	C	04/19/2020	10:45	-132.508	43.394	0	1960.00	0	1.9780	0	37.2430	8	29.784	0	1935.307	0	55.0	4	16.9	4	-1E+10	1	-1E+10	1	-1E+10	1	-1E+10	1	-1E+10	1	-1E+10	1
4901784	175	C	04/19/2020	10:45	-132.508	43.394	0	1964.20	0	1.9760	0	37.2430	8	29.784	0	1939.435	0	55.2	4	17.0	4	-1E+10	1	-1E+10	1	-1E+10	1	-1E+10	1	-1E+10	1	-1E+10	1
4901784	175	C	04/19/2020	10:45	-132.508	43.394	0	1969.30	0	1.9710	0	37.2440	8	29.785	0	1944.448	0	55.5	4	17.1	4	-1E+10	1	-1E+10	1	-1E+10	1	-1E+10	1	-1E+10	1	-1E+10	1
4901784	175	C	04/19/2020	10:45	-132.508	43.394	0	1974.40	0	1.9670	0	37.2450	8	29.787	0	1949.460	0	55.8	4	17.1	4	-1E+10	1	-1E+10	1	-1E+10	1	-1E+10	1	-1E+10	1	-1E+10	1
4901784	175	C	04/19/2020	10:45	-132.508	43.394	0	1979.50	0	1.9640	0	37.2450	8	29.787	0	1954.472	0	56.1	4	17.2	4	-1E+10	1	-1E+10	1	-1E+10	1	-1E+10	1	-1E+10	1	-1E+10	1
4901784	175	C	04/19/2020	10:45	-132.508	43.394	0	1984.70	0	1.9590	0	37.2460	8	29.788	0	1959.583	0	56.4	4	17.3	4	-1E+10	1	-1E+10	1	-1E+10	1	-1E+10	1	-1E+10	1	-1E+10	1
4901784	175	C	04/19/2020	10:45	-132.508	43.394	0	1989.90	0	1.9560	0	37.2460	8	29.788	0	1964.693	0	56.6	4	17.4	4	-1E+10	1	-1E+10	1	-1E+10	1	-1E+10	1	-1E+10	1	-1E+10	1
4901784	175	C	04/19/2020	10:45	-132.508	43.394	0	1995.00	0	1.9520	0	37.2480	8	29.790	0	1969.705	0	56.9	4	17.5	4	-1E+10	1	-1E+10	1	-1E+10	1	-1E+10	1	-1E+10	1	-1E+10	1
4901784	175	C	04/19/2020	10:45	-132.508	43.394	0	2000.50	0	1.9480	0	37.2490	8	29.792	0	1975.110	0	57.1	4	17.6	4	-1E+10	1	-1E+10	1	-1E+10	1	-1E+10	1	-1E+10	1	-1E+10	1
4901784	175	C	04/19/2020	10:45	-132.508	43.394	0	2005.30	0	1.9450	0	37.2490	8	29.792	0	1979.826	0	57.4	4	17.6	4	-1E+10	1	-1E+10	1	-1E+10	1	-1E+10	1	-1E+10	1	-1E+10	1
4901784	175	C	04/19/2020	10:45	-132.508	43.394	0	2010.00	0	1.9420	0	37.2500	8	29.793	0	1984.445	0	57.6	4	17.7	4	-1E+10	1	-1E+10	1	-1E+10	1	-1E+10	1	-1E+10	1	-1E+10	1
4901784	175	C	04/19/2020	10:45	-132.508	43.394	0	2014.60	0	1.9390	0	37.2510	8	29.794	0	1988.965	0	57.7	4	17.7	4	-1E+10	1	-1E+10	1	-1E+10	1	-1E+10	1	-1E+10	1	-1E+10	1
4901784	175	C	04/19/2020	10:45	-132.508	43.394	0	2021.00	0	1.9360	0	37.2510	8	29.794	0	1995.254	0	56.9	4	17.5	4	-1E+10	1	-1E+10	1	-1E+10	1	-1E+10	1	-1E+10	1	-1E+10	1
4901784	175	C	04/19/2020	10:45	-132.508	43.394	0																										
4901784	176	C	04/29/2020	10:48	-132.404	43.404	0	3.30	0	12.1150	0	34.7910	8	26.405	0	3.274	0	261.8	4	99.5	4	-1E+10	1	-1E+10	1	-1E+10	1	-1E+10	1	-1E+10	1	-1E+10	1
4901784	176	C	04/29/2020	10:48	-132.404	43.404	0	4.80	0	12.0880	0	34.7960	8	26.414	0	4.762	0	262.2	4	99.6	4	-1E+10	1	-1E+10	1	-1E+10	1	-1E+10	1	-1E+10	1	-1E+10	1
4901784	176	C	04/29/2020	10:48	-132.404	43.404	0	7.20	0	11.9620	0	34.8230	8	26.460	0	7.142	0	262.6	4	99.5	4	-1E+10	1	-1E+10	1	-1E+10	1	-1E+10	1	-1E+10	1	-1E+10	1
4901784	176	C	04/29/2020	10:48	-132.404	43.404	0	9.00	0	11.9390	0	34.8230	8	26.464	0	8.928	0	262.8	4	99.6	4	-1E+10	1	-1E+10	1	-1E+10	1	-1E+10	1	-1E+10	1	-1E+10	1
4901784	176	C	04/29/2020	10:48	-132.404	43.404	0	10.60	0	11.9250	0	34.8210	8	26.465	0	10.515	0	263.0	4	99.6	4	-1E+10	1	-1E+10	1	-1E+10	1	-1E+10	1	-1E+10	1	-1E+10	1
4901784	176	C	04/29/2020	10:48	-132.404	43.404	0	12.20	0	11.9050	0	34.8190	8	26.467	0	12.102	0	262.9	4	99.5	4	-1E+10	1	-1E+10	1	-1E+10	1	-1E+10	1	-1E+10	1	-1E+10	1
4901784	176	C	04/29/2020	10:48	-132.404	43.404	0	13.70	0	11.8910	0	34.8180	8	26.469	0	13.590	0	262.8	4	99.5	4	-1E+10	1	-1E+10	1	-1E+10	1	-1E+10	1	-1E+10	1	-1E+10	1
4901784	176	C	04/29/2020	10:48	-132.404	43.404	0	15.30	0	11.8240	0	34.8140	8	26.479	0	15.177	0	263.3	4	99.5	4	-1E+10	1	-1E+10	1	-1E+10	1	-1E+10	1	-1E+10	1	-1E+10	1
4901784	176	C	04/29/2020	10:48	-132.404	43.404	0	16.90	0	11.7080	0	34.8170	8	26.503	0	16.765	0	263.7	4	99.4	4	-1E+10	1	-1E+10	1	-1E+10	1	-1E+10	1	-1E+10	1	-1E+10	1
4901784	176	C	04/29/2020	10:48	-132.404	43.404	0	18.50	0	11.6600	0	34.8160	8	26.512	0	18.352	0	263.6	4	99.3	4	-1E+10	1	-1E+10	1	-1E+10	1	-1E+10	1	-1E+10	1	-1E+10	1
4901784	176	C	04/29/2020	10:48	-132.404	43.404	0	20.10	0	11.6200	0	34.8140	8	26.517	0	19.939	0	263.7	4	99.2	4	-1E+10	1	-1E+10	1	-1E+10	1	-1E+10	1	-1E+10	1	-1E+10	1
4901784	176	C	04/29/2020	10:48	-132.404	43.404	0	21.70	0	11.6130	0	34.8120	8	26.517	0	21.526	0	263.3	4	99.1	4	-1E+10	1	-1E+10	1	-1E+10	1	-1E+10	1	-1E+10	1	-1E+10	1
4901784	176	C	04/29/2020	10:48	-132.404	43.404	0	23.30	0	11.6050	0	34.8070	8	26.515	0	23.113	0	262.8	4	98.9	4	-1E+10	1	-1E+10	1	-1E+10	1	-1E+10	1	-1E+10	1	-1E+10	1
4901784	176	C	04/29/2020	10:48	-132.404	43.404	0	24.80	0	11.5640	0	34.8050	8	26.521	0	24.601	0	262.7	4	98.8	4	-1E+10	1	-1E+10	1	-1E+10	1	-1E+10	1	-1E+10	1	-1E+10	1
4901784	176	C	04/29/2020	10:48	-132.404	43.404	0	26.40	0	11.4470	0	34.8160	8	26.551	0	26.188	0	262.8	4	98.6	4	-1E+10	1	-1E+10	1	-1E+10	1	-1E+10	1	-1E+10	1	-1E+10	1
4901784	176	C	04/29/2020	10:48	-132.404	43.404	0	28.00	0	11.3260	0	34.8140	8	26.572	0	27.775	0	262.9	4	98.4	4	-1E+10	1	-1E+10	1	-1E+10	1	-1E+10	1	-1E+10	1	-1E+10	1
4901784	176	C	04/29/2020	10:48	-132.404	43.404	0	29.70	0	11.1020	0	34.8380	8	26.632	0	29.461	0	262.8	4	97.9	4	-1E+10	1	-1E+10	1	-1E+10	1	-1E+10	1	-1E+10	1	-1E+10	1
4901784	176	C	04/29/2020	10:48	-132.404	43.404	0	31.60	0	10.7530	0	34.8520	8	26.706	0	31.346	0	263.5	4	97.4	4	-1E+10	1	-1E+10	1	-1E+10	1	-1E+10	1	-1E+10	1	-1E+10	1
4901784	176	C	04/29/2020	10:48	-132.404	43.404	0	33.30	0	10.7060	0	34.8520	8	26.714	0	33.032	0	263.3	4	97.2	4	-1E+10	1	-1E+10	1	-1E+10	1	-1E+10	1	-1E+10	1	-1E+10	1
4901784	176	C	04/29/2020	10:48	-132.404	43.404	0	35.10	0	10.6330	0	34.8500	8	26.726	0	34.817	0	263.0	4	97.0	4	-1E+10	1	-1E+10	1	-1E+10	1	-1E+10	1	-1E+10	1	-1E+10	1
4901784	176	C	04/29/2020	10:48	-132.404	43.404	0	36.90	0	10.5940	0	34.8490	8	26.732	0	36.603	0	263.1	4	96.9	4	-1E+10	1	-1E+10	1	-1E+10	1	-1E+10	1	-1E+10	1	-1E+10	1
4901784	176	C	04/29/2020	10:48	-132.404	43.404	0	38.70	0	10.5750	0	34.8470	8	26.734	0	38.388	0	262.9	4	96.8	4	-1E+10	1	-1E+10	1	-1E+10	1	-1E+10	1	-1E+10	1	-1E+10	1
4901784	176	C	04/29/2020	10:48	-132.404	43.404	0	40.50	0	10.5390	0	34.8490	8	26.742	0	40.173	0	262.8	4	96.7	4	-1E+10	1	-1E+10	1	-1E+10	1	-1E+10	1	-1E+10	1	-1E+10	1
4901784	176	C	04/29/2020	10:48	-132.404	43.404	0	42.30	0	10.4900	0	34.8460	8	26.748	0	41.959	0	262.9	4	96.6	4	-1E+10	1	-1E+10	1	-1E+10	1	-1E+10	1	-1E+10	1	-1E+10	1
4901784	176	C	04/29/2020	10:48	-132.404	43.404	0	44.20	0	10.4580	0	34.8460	8	26.754	0	43.843	0	262.7	4	96.5	4	-1E+10	1	-1E+10	1	-1E+10	1	-1E+10	1	-1E+10	1	-1E+10	1
4901784	176	C	04/29/2020	10:48	-132.404	43.404	0	46.00	0	10.4610	0	34.8530	8	26.759	0	45.628	0	262.6	4	96.5	4	-1E+10	1	-1E+10	1	-1E+10	1	-1E+10	1	-1E+10	1	-1E+10	1
4901784	176	C	04/29/2020	10:48	-132.404	43.404	0	47.80	0	10.4420	0	34.8530	8	26.762	0	47.413	0	262.6	4	96.4	4	-1E+10	1	-1E+10	1	-1E+10	1	-1E+10	1	-1E+10	1	-1E+10	1
4901784	176	C	04/29/2020	10:48	-132.404	43.404	0	49.60	0	10.4300	0	34.8520	8	26.763	0	49.199	0	262.9	4	96.5	4	-1E+10	1	-1E+10	1	-1E+10	1	-1E+10	1	-1E+10	1	-1E+10	1
4901784	176	C	04/29/2020	10:48	-132.404	43.404	0	51.40	0	10.4460	0	34.8590	8	26.766	0	50.984	0	262.5	4	96.4	4	-1E+10	1	-1E+10	1	-1E+10	1	-1E+10	1	-1E+10	1	-1E+10	1
4901784	176	C	04/29/2020	10:48	-132.404	43.404	0	53.30	0	10.4370	0	34.8620	8	26.770	0	52.868	0	262.2	4	96.3	4	-1E+10	1	-1E+10	1	-1E+10	1	-1E+10	1	-1E+10	1	-1E+10	1
4901784	176	C	04/29/2020	10:48	-132.404	43.404	0	55.10	0	10.4150	0	34.8610	8	26.773	0	54.653	0	262.1	4	96.2	4	-1E+10	1	-1E+10	1	-1E+10	1	-1E+10	1	-1E+10	1	-1E+10	1
4901784	176	C	04/29/2020	10:48	-132.404	43.404	0	57.00	0	10.4100	0	34.8620	8	26.775	0	56.538	0	261.8	4	96.1	4	-1E+10	1	-1E+10	1	-1E+10	1	-1E+10	1	-1E+10	1	-1E+10	1
4901784	176	C	04/29/2020	10:48	-132.404	43.404	0	58.80	0	10.4320	0	34.8670	8	26.775	0	58.323	0	261.5	4	96.0	4	-1E+10	1	-1E+10	1	-1E+10	1	-1E+10	1	-1E+10	1	-1E+10	1
4901784	176	C	04/29/2020	10:48	-132.404	43.404	0	60.60	0	10.4660	0	34.8790	8	26.778	0	60.108	0	260.7	4	95.8	4	-1E+10	1	-1E+10	1	-1E+10	1	-1E+10	1	-1E+10	1	-1E+10	1
4901784	176	C	04/29/2020	10:48	-132.404	43.404	0	62.40	0	10.4910	0	34.8850	8	26.779	0	61.893	0	260.4	4	95.8	4	-1E+10	1	-1E+10	1	-1E+10	1	-1E+10	1	-1E+10	1	-1E+10	1
4901784	176	C	04/29/2020	10:48	-132.404	43.404	0	64.30	0	10.5070	0	34.8900	8	26.780	0	63.778	0	260.1	4	95.7	4	-1E+10	1	-1E+10	1	-1E+10	1	-1E+10	1	-1E+10	1	-1E+10	1
4901784	176	C	04/29/2020	10:48	-132.404	43.404	0	66.10	0	10.5270	0	34.8940	8	26.779	0	65.563	0	259.8	4	95.6	4	-1E+10	1	-1E+10	1	-1E+10	1	-1E+10	1	-1E+10	1	-1E+10	1
4901784	176	C	04/29/2020	10:48	-132.404	43.404	0	68.00	0	10.5260	0	34.8930	8	26.779	0	67.447	0	259.8	4	95.6	4	-1E+10	1	-1E+10	1	-1E+10	1	-1E+10	1	-1E+10	1	-1E+10	1
4901784	176	C	04/29/2020	10:48	-132.404	43.404	0	69.80	0	10.4930	0	34.8890	8	26.782	0	69.232	0	259.9	4	95.6	4	-1E+10	1	-1E+10	1	-1E+10	1	-1E+10	1	-1E+10	1	-1E+10	1
4901784	176	C	04/29/2020	10:48	-132.404	43.404	0	71.60	0	10.4580	0	34.8840	8	26.784	0	71.017	0	260.0	4	95.5	4	-1E+10	1	-1E+10	1	-1E+10	1	-1E+10	1	-1E+10	1	-1E+10	1
4901784	176	C	04/29/2020	10:48	-132.404	43.404	0	73.40	0	10.4460	0	34.8820	8	26.784	0	72.802	0	260.0	4	95.5	4	-1E+10	1	-1E+10	1	-1E+10	1	-1E+10	1	-1E+10	1	-1E+10	1
4901784	176	C	04/29/2020	10:48	-132.404	43.404	0	75.30	0	10.4270	0	34.8800	8	26.786	0	74.686	0	259.9	4	95.4	4	-1E+10	1	-1E+10	1	-1E+10	1	-1E+10	1	-1E+10	1	-1E+10	1
4901784	176	C	04/29/2020	10:48	-132.404	43.404	0	77.10	0	10.4200	0	34.8790	8	26.787	0	76.471	0	259.8	4	95.4	4	-1E+10	1	-1E+10	1	-1E+10	1	-1E+10	1	-1E+10	1	-1E+10	1
4901784	176	C	04/29/2020	10:48	-132.404	43.404	0	79.00	0	10.4360	0	34.8830	8	26.787	0	78.355	0	259.4	4	95.3	4	-1E+10	1	-1E+10	1	-1E+10	1	-1E+10	1	-1E+10	1	-1E+10	1
4901784	176	C	04/29/2020	10:48	-132.404	43.404	0	80.80	0	10.4270	0	34.8810	8	26.787	0	80.140	0	259.5	4	95.3	4	-1E+10	1	-1E+10	1	-1E+10	1	-1E+10	1	-1E+10	1	-1E+10	1
4901784	176	C	04/29/2020	10:48	-132.404	43.404	0	82.80	0	10.3980	0	34.8760	8	26.788	0	82.123	0	259.8	4	95.3	4	-1E+10	1	-1E+10	1	-1E+10	1	-1E+10	1	-1E+10	1	-1E+10	1
4901784	176	C	04/29/2020	10:48	-132.404	43.404	0	84.60	0	10.2950	0	34.8660	8	26.799	0	83.908	0	260.5	4	95.4	4	-1E+10	1	-1E+10	1	-1E+10	1	-1E+10	1	-1E+10	1	-1E+10	1
4901784	176	C	04/29/2020	10:48	-132.404	43.404	0	86.50	0	10.2680	0	34.8620	8	26.800	0	85.792	0	260.4	4	95.3	4	-1E+10	1	-1E+10	1	-1E+10	1	-1E+10	1	-1E+10	1	-1E+10	1
4901784	176	C	04/29/2020	10:48	-132.404	43.404	0	88.30	0	10.2240	0	34.8570	8	26.804	0	87.577	0	260.7	4	95.3	4	-1E+10	1	-1E+10	1	-1E+10	1	-1E+10	1	-1E+10	1	-1E+10	1
4901784	176	C	04/29/2020	10:48	-132.404	43.404	0	90.20	0	10.1890	0	34.8550	8	26.808	0	89.461	0	260.7	4	95.2	4	-1E+10	1	-1E+10	1	-1E+10	1	-1E+10	1	-1E+10	1	-1E+10	1
4901784	176	C	04/29/2020	10:48	-132.404	43.404	0	92.10	0	10.1680	0	34.8520	8	26.810	0	91.345	0	260.7	4	95.2	4	-1E+10	1	-1E+10	1	-1E+10	1	-1E+10	1	-1E+10	1	-1E+10	1
4901784	176	C	04/29/2020	10:48	-132.404	43.404	0	93.90	0	10.1640	0	34.8520	8	26.811	0	93.130	0	260.3	4	95.0	4	-1E+10	1	-1E+10	1	-1E+10	1	-1E+10	1	-1E+10	1	-1E+10	1
4901784	176	C	04/29/2020	10:48	-132.404	43.404	0	95.70	0	10.1530	0	34.8520	8	26.812	0	94.915	0	260.1	4	94.9	4	-1E+10	1	-1E+10	1	-1E+10	1	-1E+10	1	-1E+10	1	-1E+10	1
4901784	176	C	04/29/2020	10:48	-132.404	43.404	0	97.60	0	10.1500	0	34.8540	8	26.815	0	96.799	0	259.7	4	94.8	4	-1E+10	1	-1E+10	1	-1E+10	1	-1E+10	1	-1E+10	1	-1E+10	1
4901784	176	C	04/29/2020	10:48	-132.404	43.404	0	99.50	0	10.1510	0	34.8550	8	26.815	0	98.683	0	258.8	4	94.4	4	-1E+10	1	-1E+10	1	-1E+10	1	-1E+10	1	-1E+10	1	-1E+10	1
4901784	176	C	04/29/2020	10:48	-132.404	43.404	0	102.30	0	10.1420	0	34.8570	8	26.818	0	101.459	0	257.5	4	94.0	4	-1E+10	1	-1E+10	1	-1E+10	1	-1E+10	1	-1E+10	1	-1E+10	1
4901784	176	C	04/29/2020	10:48	-132.404	43.404	0	105.10	0	10.1290	0	34.8570	8	26.821	0	104.236	0	255.8	4	93.3	4	-1E+10	1	-1E+10	1	-1E+10	1	-1E+10	1	-1E+10	1	-1E+10	1
4901784	176	C	04/29/2020	10:48	-132.404	43.404	0	107.00	0	10.1090	0	34.8600	8	26.827	0	106.120	0	254.1	4	92.6	4	-1E+10	1	-1E+10	1	-1E+10	1	-1E+10	1	-1E+10	1	-1E+10	1
4901784	176	C	04/29/2020	10:48	-132.404	43.404	0	109.80	0	10.0920	0	34.8670	8	26.835	0	108.896	0	251.2	4	91.6	4	-1E+10	1	-1E+10	1	-1E+10	1	-1E+10	1	-1E+10	1	-1E+10	1
4901784	176	C	04/29/2020	10:48	-132.404	43.404	0	112.60	0	10.0390	0	34.8920	8	26.864	0	111.672	0	247.9	4	90.3	4	-1E+10	1	-1E+10	1	-1E+10	1	-1E+10	1	-1E+10	1	-1E+10	1
4901784	176	C	04/29/2020	10:48	-132.404	43.404	0	115.00	0	10.0170	0	34.9360	8	26.902	0	114.052	0	244.9	4	89.2	4	-1E+10	1	-1E+10	1	-1E+10	1	-1E+10	1	-1E+10	1	-1E+10	1
4901784	176	C	04/29/2020	10:48	-132.404	43.404	0	117.50	0	9.9710	0	34.9510	8	26.921	0	116.530	0	242.3	4	88.2	4	-1E+10	1	-1E+10	1	-1E+10	1	-1E+10	1	-1E+10	1	-1E+10	1
4901784	176	C	04/29/2020	10:48	-132.404	43.404	0	119.90	0	9.9600	0	34.9580	8	26.929	0	118.910	0	239.3	4	87.0	4	-1E+10	1	-1E+10	1	-1E+10	1	-1E+10	1	-1E+10	1	-1E+10	1
4901784	176	C	04/29/2020	10:48	-132.404	43.404	0	122.20	0	9.9710	0	35.0050	8	26.964	0	121.190	0	235.0	4	85.5	4	-1E+10	1	-1E+10	1	-1E+10	1	-1E+10	1	-1E+10	1	-1E+10	1
4901784	176	C	04/29/2020	10:48	-132.404	43.404	0	125.30	0	9.8740	0	35.0530	8	27.018	0	124.263	0	231.0	4	83.9	4	-1E+10	1	-1E+10	1	-1E+10	1	-1E+10	1	-1E+10	1	-1E+10	1
4901784	176	C	04/29/2020	10:48	-132.404	43.404	0	127.70	0	9.8490	0	35.0580	8	27.026	0	126.643	0	228.3	4	82.9	4	-1E+10	1	-1E+10	1	-1E+10	1	-1E+10	1	-1E+10	1	-1E+10	1
4901784	176	C	04/29/2020	10:48	-132.404	43.404	0	130.10	0	9.6440	0	35.0890	8	27.085	0	129.022	0	225.6	4	81.6	4	-1E+10	1	-1E+10	1	-1E+10	1	-1E+10	1	-1E+10	1	-1E+10	1
4901784	176	C	04/29/2020	10:48	-132.404	43.404	0	132.50	0	9.6270	0	35.1050	8	27.100	0	131.402	0	221.8	4	80.2	4	-1E+10	1	-1E+10	1	-1E+10	1	-1E+10	1	-1E+10	1	-1E+10	1
4901784	176	C	04/29/2020	10:48	-132.404	43.404	0	135.00	0	9.4020	0	35.1710	8	27.189	0	133.880	0	218.6	4	78.7	4	-1E+10	1	-1E+10	1	-1E+10	1	-1E+10	1	-1E+10	1	-1E+10	1
4901784	176	C	04/29/2020	10:48	-132.404	43.404	0	137.70	0	9.1740	0	35.2690	8	27.303	0	136.557	0	216.5	4	77.6	4	-1E+10	1	-1E+10	1	-1E+10	1	-1E+10	1	-1E+10	1	-1E+10	1
4901784	176	C	04/29/2020	10:48	-132.404	43.404	0	140.20	0	9.0650	0	35.2990	8	27.345	0	139.035	0	215.9	4	77.2	4	-1E+10	1	-1E+10	1	-1E+10	1	-1E+10	1	-1E+10	1	-1E+10	1
4901784	176	C	04/29/2020	10:48	-132.404	43.404	0	142.60	0	8.9700	0	35.3230	8	27.379	0	141.414	0	214.9	4	76.7	4	-1E+10	1	-1E+10	1	-1E+10	1	-1E+10	1	-1E+10	1	-1E+10	1
4901784	176	C	04/29/2020	10:48	-132.404	43.404	0	144.60	0	8.9470	0	35.3370	8	27.394	0	143.397	0	213.2	4	76.1	4	-1E+10	1	-1E+10	1	-1E+10	1	-1E+10	1	-1E+10	1	-1E+10	1
4901784	176	C	04/29/2020	10:48	-132.404	43.404	0	146.90	0	8.9090	0	35.3900	8	27.441	0	145.677	0	210.6	4	75.1	4	-1E+10	1	-1E+10	1	-1E+10	1	-1E+10	1	-1E+10	1	-1E+10	1
4901784	176	C	04/29/2020	10:48	-132.404	43.404	0	149.60	0	8.8510	0	35.4280	8	27.480	0	148.354	0	209.0	4	74.5	4	-1E+10	1	-1E+10	1	-1E+10	1	-1E+10	1	-1E+10	1	-1E+10	1
4901784	176	C	04/29/2020	10:48	-132.404	43.404	0	152.40	0	8.6880	0	35.5300	8	27.586	0	151.129	0	207.4	4	73.7	4	-1E+10	1	-1E+10	1	-1E+10	1	-1E+10	1	-1E+10	1	-1E+10	1
4901784	176	C	04/29/2020	10:48	-132.404	43.404	0	155.30	0	8.6360	0	35.5670	8	27.624	0	154.004	0	205.4	4	72.9	4	-1E+10	1	-1E+10	1	-1E+10	1	-1E+10	1	-1E+10	1	-1E+10	1
4901784	176	C	04/29/2020	10:48	-132.404	43.404	0	157.60	0	8.5800	0	35.6090	8	27.666	0	156.284	0	203.2	4	72.0	4	-1E+10	1	-1E+10	1	-1E+10	1	-1E+10	1	-1E+10	1	-1E+10	1
4901784	176	C	04/29/2020	10:48	-132.404	43.404	0	160.10	0	8.5080	0	35.6870	8	27.738	0	158.762	0	201.1	4	71.3	4	-1E+10	1	-1E+10	1	-1E+10	1	-1E+10	1	-1E+10	1	-1E+10	1
4901784	176	C	04/29/2020	10:48	-132.404	43.404	0	162.70	0	8.4750	0	35.7370	8	27.783	0	161.339	0	199.0	4	70.5	4	-1E+10	1	-1E+10	1	-1E+10	1	-1E+10	1	-1E+10	1	-1E+10	1
4901784	176	C	04/29/2020	10:48	-132.404	43.404	0	165.20	0	8.4520	0	35.7580	8	27.803	0	163.818	0	196.6	4	69.6	4	-1E+10	1	-1E+10	1	-1E+10	1	-1E+10	1	-1E+10	1	-1E+10	1
4901784	176	C	04/29/2020	10:48	-132.404	43.404	0	167.70	0	8.4430	0	35.7840	8	27.825	0	166.296	0	193.8	4	68.6	4	-1E+10	1	-1E+10	1	-1E+10	1	-1E+10	1	-1E+10	1	-1E+10	1
4901784	176	C	04/29/2020	10:48	-132.404	43.404	0	170.30	0	8.3930	0	35.8570	8	27.890	0	168.873	0	190.5	4	67.4	4	-1E+10	1	-1E+10	1	-1E+10	1	-1E+10	1	-1E+10	1	-1E+10	1
4901784	176	C	04/29/2020	10:48	-132.404	43.404	0	172.90	0	8.3820	0	35.9170	8	27.939	0	171.450	0	187.6	4	66.4	4	-1E+10	1	-1E+10	1	-1E+10	1	-1E+10	1	-1E+10	1	-1E+10	1
4901784	176	C	04/29/2020	10:48	-132.404	43.404	0	174.70	0	8.3530	0	35.9920	8	28.002	0	173.234	0	186.7	4	66.1	4	-1E+10	1	-1E+10	1	-1E+10	1	-1E+10	1	-1E+10	1	-1E+10	1
4901784	176	C	04/29/2020	10:48	-132.404	43.404	0	177.30	0	8.2670	0	36.0200	8	28.037	0	175.811	0	188.0	4	66.4	4	-1E+10	1	-1E+10	1	-1E+10	1	-1E+10	1	-1E+10	1	-1E+10	1
4901784	176	C	04/29/2020	10:48	-132.404	43.404	0	180.00	0	8.1800	0	36.0510	8	28.075	0	178.487	0	187.7	4	66.2	4	-1E+10	1	-1E+10	1	-1E+10	1	-1E+10	1	-1E+10	1	-1E+10	1
4901784	176	C	04/29/2020	10:48	-132.404	43.404	0	182.70	0	8.1720	0	36.0670	8	28.089	0	181.163	0	185.3	4	65.3	4	-1E+10	1	-1E+10	1	-1E+10	1	-1E+10	1	-1E+10	1	-1E+10	1
4901784	176	C	04/29/2020	10:48	-132.404	43.404	0	184.90	0	8.1460	0	36.1140	8	28.130	0	183.344	0	182.2	4	64.2	4	-1E+10	1	-1E+10	1	-1E+10	1	-1E+10	1	-1E+10	1	-1E+10	1
4901784	176	C	04/29/2020	10:48	-132.404	43.404	0	187.30	0	8.1260	0	36.1500	8	28.161	0	185.723	0	178.8	4	63.0	4	-1E+10	1	-1E+10	1	-1E+10	1	-1E+10	1	-1E+10	1	-1E+10	1
4901784	176	C	04/29/2020	10:48	-132.404	43.404	0	189.70	0	8.1260	0	36.1620	8	28.171	0	188.101	0	173.6	4	61.2	4	-1E+10	1	-1E+10	1	-1E+10	1	-1E+10	1	-1E+10	1	-1E+10	1
4901784	176	C	04/29/2020	10:48	-132.404	43.404	0	192.80	0	8.1950	0	36.1980	8	28.189	0	191.174	0	164.3	4	58.0	4	-1E+10	1	-1E+10	1	-1E+10	1	-1E+10	1	-1E+10	1	-1E+10	1
4901784	176	C	04/29/2020	10:48	-132.404	43.404	0	195.20	0	8.2500	0	36.2500	8	28.221	0	193.552	0	159.3	4	56.3	4	-1E+10	1	-1E+10	1	-1E+10	1	-1E+10	1	-1E+10	1	-1E+10	1
4901784	176	C	04/29/2020	10:48	-132.404	43.404	0	197.50	0	8.2790	0	36.2570	8	28.222	0	195.832	0	158.2	4	56.0	4	-1E+10	1	-1E+10	1	-1E+10	1	-1E+10	1	-1E+10	1	-1E+10	1
4901784	176	C	04/29/2020	10:48	-132.404	43.404	0	199.80	0	8.2660	0	36.2720	8	28.236	0	198.111	0	158.9	4	56.2	4	-1E+10	1	-1E+10	1	-1E+10	1	-1E+10	1	-1E+10	1	-1E+10	1
4901784	176	C	04/29/2020	10:48	-132.404	43.404	0	202.20	0	8.2350	0	36.2940	8	28.258	0	200.490	0	161.1	4	57.0	4	-1E+10	1	-1E+10	1	-1E+10	1	-1E+10	1	-1E+10	1	-1E+10	1
4901784	176	C	04/29/2020	10:48	-132.404	43.404	0	205.40	0	8.1230	0	36.3220	8	28.297	0	203.661	0	163.9	4	57.8	4	-1E+10	1	-1E+10	1	-1E+10	1	-1E+10	1	-1E+10	1	-1E+10	1
4901784	176	C	04/29/2020	10:48	-132.404	43.404	0	207.90	0	8.0970	0	36.3340	8	28.311	0	206.139	0	162.7	4	57.4	4	-1E+10	1	-1E+10	1	-1E+10	1	-1E+10	1	-1E+10	1	-1E+10	1
4901784	176	C	04/29/2020	10:48	-132.404	43.404	0	209.60	0	8.1040	0	36.3440	8	28.318	0	207.824	0	160.9	4	56.8	4	-1E+10	1	-1E+10	1	-1E+10	1	-1E+10	1	-1E+10	1	-1E+10	1
4901784	176	C	04/29/2020	10:48	-132.404	43.404	0	212.10	0	8.0910	0	36.3640	8	28.335	0	210.301	0	163.1	4	57.5	4	-1E+10	1	-1E+10	1	-1E+10	1	-1E+10	1	-1E+10	1	-1E+10	1
4901784	176	C	04/29/2020	10:48	-132.404	43.404	0	214.60	0	8.0220	0	36.3690	8	28.350	0	212.779	0	163.9	4	57.7	4	-1E+10	1	-1E+10	1	-1E+10	1	-1E+10	1	-1E+10	1	-1E+10	1
4901784	176	C	04/29/2020	10:48	-132.404	43.404	0	217.10	0	8.0160	0	36.3760	8	28.356	0	215.256	0	161.2	4	56.8	4	-1E+10	1	-1E+10	1	-1E+10	1	-1E+10	1	-1E+10	1	-1E+10	1
4901784	176	C	04/29/2020	10:48	-132.404	43.404	0	219.60	0	7.9990	0	36.3920	8	28.372	0	217.734	0	158.0	4	55.6	4	-1E+10	1	-1E+10	1	-1E+10	1	-1E+10	1	-1E+10	1	-1E+10	1
4901784	176	C	04/29/2020	10:48	-132.404	43.404	0	222.10	0	7.9980	0	36.3930	8	28.373	0	220.211	0	154.8	4	54.5	4	-1E+10	1	-1E+10	1	-1E+10	1	-1E+10	1	-1E+10	1	-1E+10	1
4901784	176	C	04/29/2020	10:48	-132.404	43.404	0	224.70	0	7.9860	0	36.4060	8	28.385	0	222.788	0	151.1	4	53.2	4	-1E+10	1	-1E+10	1	-1E+10	1	-1E+10	1	-1E+10	1	-1E+10	1
4901784	176	C	04/29/2020	10:48	-132.404	43.404	0	227.40	0	7.9680	0	36.4130	8	28.393	0	225.463	0	149.0	4	52.4	4	-1E+10	1	-1E+10	1	-1E+10	1	-1E+10	1	-1E+10	1	-1E+10	1
4901784	176	C	04/29/2020	10:48	-132.404	43.404	0	230.00	0	7.9350	0	36.4190	8	28.403	0	228.040	0	147.3	4	51.8	4	-1E+10	1	-1E+10	1	-1E+10	1	-1E+10	1	-1E+10	1	-1E+10	1
4901784	176	C	04/29/2020	10:48	-132.404	43.404	0	232.60	0	7.8840	0	36.4270	8	28.417	0	230.616	0	144.8	4	50.9	4	-1E+10	1	-1E+10	1	-1E+10	1	-1E+10	1	-1E+10	1	-1E+10	1
4901784	176	C	04/29/2020	10:48	-132.404	43.404	0	235.20	0	7.8500	0	36.4320	8	28.426	0	233.192	0	143.9	4	50.5	4	-1E+10	1	-1E+10	1	-1E+10	1	-1E+10	1	-1E+10	1	-1E+10	1
4901784	176	C	04/29/2020	10:48	-132.404	43.404	0	237.00	0	7.8190	0	36.4340	8	28.432	0	234.976	0	143.7	4	50.4	4	-1E+10	1	-1E+10	1	-1E+10	1	-1E+10	1	-1E+10	1	-1E+10	1
4901784	176	C	04/29/2020	10:48	-132.404	43.404	0	239.70	0	7.7810	0	36.4350	8	28.439	0	237.651	0	143.6	4	50.3	4	-1E+10	1	-1E+10	1	-1E+10	1	-1E+10	1	-1E+10	1	-1E+10	1
4901784	176	C	04/29/2020	10:48	-132.404	43.404	0	242.30	0	7.7480	0	36.4370	8	28.446	0	240.228	0	142.9	4	50.1	4	-1E+10	1	-1E+10	1	-1E+10	1	-1E+10	1	-1E+10	1	-1E+10	1
4901784	176	C	04/29/2020	10:48	-132.404	43.404	0	245.00	0	7.6880	0	36.4390	8	28.456	0	242.903	0	142.2	4	49.7	4	-1E+10	1	-1E+10	1	-1E+10	1	-1E+10	1	-1E+10	1	-1E+10	1
4901784	176	C	04/29/2020	10:48	-132.404	43.404	0	247.60	0	7.6240	0	36.4440	8	28.470	0	245.479	0	141.0	4	49.3	4	-1E+10	1	-1E+10	1	-1E+10	1	-1E+10	1	-1E+10	1	-1E+10	1
4901784	176	C	04/29/2020	10:48	-132.404	43.404	0	250.40	0	7.6120	0	36.4430	8	28.471	0	248.253	0	139.7	4	48.8	4	-1E+10	1	-1E+10	1	-1E+10	1	-1E+10	1	-1E+10	1	-1E+10	1
4901784	176	C	04/29/2020	10:48	-132.404	43.404	0	253.00	0	7.6000	0	36.4400	8	28.470	0	250.830	0	138.2	4	48.2	4	-1E+10	1	-1E+10	1	-1E+10	1	-1E+10	1	-1E+10	1	-1E+10	1
4901784	176	C	04/29/2020	10:48	-132.404	43.404	0	254.80	0	7.5450	0	36.4420	8	28.480	0	252.613	0	136.6	4	47.6	4	-1E+10	1	-1E+10	1	-1E+10	1	-1E+10	1	-1E+10	1	-1E+10	1
4901784	176	C	04/29/2020	10:48	-132.404	43.404	0	257.60	0	7.4920	0	36.4430	8	28.489	0	255.387	0	132.7	4	46.2	4	-1E+10	1	-1E+10	1	-1E+10	1	-1E+10	1	-1E+10	1	-1E+10	1
4901784	176	C	04/29/2020	10:48	-132.404	43.404	0	260.50	0	7.4560	0	36.4460	8	28.496	0	258.261	0	130.2	4	45.3	4	-1E+10	1	-1E+10	1	-1E+10	1	-1E+10	1	-1E+10	1	-1E+10	1
4901784	176	C	04/29/2020	10:48	-132.404	43.404	0	262.40	0	7.4160	0	36.4470	8	28.503	0	260.143	0	128.5	4	44.7	4	-1E+10	1	-1E+10	1	-1E+10	1	-1E+10	1	-1E+10	1	-1E+10	1
4901784	176	C	04/29/2020	10:48	-132.404	43.404	0	265.20	0	7.3660	0	36.4480	8	28.511	0	262.917	0	127.5	4	44.3	4	-1E+10	1	-1E+10	1	-1E+10	1	-1E+10	1	-1E+10	1	-1E+10	1
4901784	176	C	04/29/2020	10:48	-132.404	43.404	0	268.10	0	7.2930	0	36.4520	8	28.525	0	265.790	0	126.9	4	44.0	4	-1E+10	1	-1E+10	1	-1E+10	1	-1E+10	1	-1E+10	1	-1E+10	1
4901784	176	C	04/29/2020	10:48	-132.404	43.404	0	270.00	0	7.2450	0	36.4490	8	28.530	0	267.673	0	126.4	4	43.8	4	-1E+10	1	-1E+10	1	-1E+10	1	-1E+10	1	-1E+10	1	-1E+10	1
4901784	176	C	04/29/2020	10:48	-132.404	43.404	0	272.00	0	7.2210	0	36.4540	8	28.537	0	269.654	0	125.7	4	43.5	4	-1E+10	1	-1E+10	1	-1E+10	1	-1E+10	1	-1E+10	1	-1E+10	1
4901784	176	C	04/29/2020	10:48	-132.404	43.404	0	275.00	0	7.2070	0	36.4530	8	28.538	0	272.626	0	125.4	4	43.4	4	-1E+10	1	-1E+10	1	-1E+10	1	-1E+10	1	-1E+10	1	-1E+10	1
4901784	176	C	04/29/2020	10:48	-132.404	43.404	0	277.90	0	7.1890	0	36.4490	8	28.538	0	275.499	0	125.1	4	43.3	4	-1E+10	1	-1E+10	1	-1E+10	1	-1E+10	1	-1E+10	1	-1E+10	1
4901784	176	C	04/29/2020	10:48	-132.404	43.404	0	279.80	0	7.1630	0	36.4530	8	28.545	0	277.382	0	124.6	4	43.1	4	-1E+10	1	-1E+10	1	-1E+10	1	-1E+10	1	-1E+10	1	-1E+10	1
4901784	176	C	04/29/2020	10:48	-132.404	43.404	0	282.60	0	7.1410	0	36.4510	8	28.547	0	280.156	0	124.4	4	43.0	4	-1E+10	1	-1E+10	1	-1E+10	1	-1E+10	1	-1E+10	1	-1E+10	1
4901784	176	C	04/29/2020	10:48	-132.404	43.404	0	285.50	0	7.1260	0	36.4480	8	28.546	0	283.029	0	124.1	4	42.9	4	-1E+10	1	-1E+10	1	-1E+10	1	-1E+10	1	-1E+10	1	-1E+10	1
4901784	176	C	04/29/2020	10:48	-132.404	43.404	0	287.30	0	7.0410	0	36.4500	8	28.560	0	284.812	0	124.3	4	42.9	4	-1E+10	1	-1E+10	1	-1E+10	1	-1E+10	1	-1E+10	1	-1E+10	1
4901784	176	C	04/29/2020	10:48	-132.404	43.404	0	289.90	0	7.0130	0	36.4480	8	28.563	0	287.387	0	124.0	4	42.7	4	-1E+10	1	-1E+10	1	-1E+10	1	-1E+10	1	-1E+10	1	-1E+10	1
4901784	176	C	04/29/2020	10:48	-132.404	43.404	0	292.60	0	6.9420	0	36.4490	8	28.573	0	290.062	0	122.8	4	42.2	4	-1E+10	1	-1E+10	1	-1E+10	1	-1E+10	1	-1E+10	1	-1E+10	1
4901784	176	C	04/29/2020	10:48	-132.404	43.404	0	295.00	0	6.9260	0	36.4490	8	28.576	0	292.440	0	121.8	4	41.9	4	-1E+10	1	-1E+10	1	-1E+10	1	-1E+10	1	-1E+10	1	-1E+10	1
4901784	176	C	04/29/2020	10:48	-132.404	43.404	0	297.40	0	6.8500	0	36.4490	8	28.587	0	294.817	0	122.3	4	42.0	4	-1E+10	1	-1E+10	1	-1E+10	1	-1E+10	1	-1E+10	1	-1E+10	1
4901784	176	C	04/29/2020	10:48	-132.404	43.404	0	299.80	0	6.8090	0	36.4490	8	28.592	0	297.195	0	121.4	4	41.6	4	-1E+10	1	-1E+10	1	-1E+10	1	-1E+10	1	-1E+10	1	-1E+10	1
4901784	176	C	04/29/2020	10:48	-132.404	43.404	0	302.30	0	6.7560	0	36.4530	8	28.603	0	299.671	0	120.2	4	41.2	4	-1E+10	1	-1E+10	1	-1E+10	1	-1E+10	1	-1E+10	1	-1E+10	1
4901784	176	C	04/29/2020	10:48	-132.404	43.404	0	304.80	0	6.7430	0	36.4530	8	28.605	0	302.147	0	119.5	4	40.9	4	-1E+10	1	-1E+10	1	-1E+10	1	-1E+10	1	-1E+10	1	-1E+10	1
4901784	176	C	04/29/2020	10:48	-132.404	43.404	0	307.30	0	6.7370	0	36.4540	8	28.606	0	304.624	0	118.4	4	40.5	4	-1E+10	1	-1E+10	1	-1E+10	1	-1E+10	1	-1E+10	1	-1E+10	1
4901784	176	C	04/29/2020	10:48	-132.404	43.404	0	309.80	0	6.7320	0	36.4560	8	28.609	0	307.100	0	117.2	4	40.1	4	-1E+10	1	-1E+10	1	-1E+10	1	-1E+10	1	-1E+10	1	-1E+10	1
4901784	176	C	04/29/2020	10:48	-132.404	43.404	0	312.40	0	6.7290	0	36.4560	8	28.609	0	309.676	0	116.6	4	39.9	4	-1E+10	1	-1E+10	1	-1E+10	1	-1E+10	1	-1E+10	1	-1E+10	1
4901784	176	C	04/29/2020	10:48	-132.404	43.404	0	314.90	0	6.7210	0	36.4560	8	28.610	0	312.152	0	116.3	4	39.8	4	-1E+10	1	-1E+10	1	-1E+10	1	-1E+10	1	-1E+10	1	-1E+10	1
4901784	176	C	04/29/2020	10:48	-132.404	43.404	0	317.50	0	6.7080	0	36.4530	8	28.610	0	314.727	0	116.2	4	39.7	4	-1E+10	1	-1E+10	1	-1E+10	1	-1E+10	1	-1E+10	1	-1E+10	1
4901784	176	C	04/29/2020	10:48	-132.404	43.404	0	320.00	0	6.6270	0	36.4540	8	28.622	0	317.204	0	116.1	4	39.7	4	-1E+10	1	-1E+10	1	-1E+10	1	-1E+10	1	-1E+10	1	-1E+10	1
4901784	176	C	04/29/2020	10:48	-132.404	43.404	0	322.50	0	6.6010	0	36.4550	8	28.626	0	319.680	0	115.4	4	39.4	4	-1E+10	1	-1E+10	1	-1E+10	1	-1E+10	1	-1E+10	1	-1E+10	1
4901784	176	C	04/29/2020	10:48	-132.404	43.404	0	325.00	0	6.5960	0	36.4540	8	28.626	0	322.156	0	114.6	4	39.1	4	-1E+10	1	-1E+10	1	-1E+10	1	-1E+10	1	-1E+10	1	-1E+10	1
4901784	176	C	04/29/2020	10:48	-132.404	43.404	0	327.60	0	6.5760	0	36.4540	8	28.629	0	324.731	0	113.7	4	38.8	4	-1E+10	1	-1E+10	1	-1E+10	1	-1E+10	1	-1E+10	1	-1E+10	1
4901784	176	C	04/29/2020	10:48	-132.404	43.404	0	330.10	0	6.5570	0	36.4540	8	28.632	0	327.207	0	112.9	4	38.5	4	-1E+10	1	-1E+10	1	-1E+10	1	-1E+10	1	-1E+10	1	-1E+10	1
4901784	176	C	04/29/2020	10:48	-132.404	43.404	0	332.50	0	6.5190	0	36.4550	8	28.638	0	329.584	0	111.8	4	38.1	4	-1E+10	1	-1E+10	1	-1E+10	1	-1E+10	1	-1E+10	1	-1E+10	1
4901784	176	C	04/29/2020	10:48	-132.404	43.404	0	335.00	0	6.4750	0	36.4540	8	28.643	0	332.060	0	110.9	4	37.7	4	-1E+10	1	-1E+10	1	-1E+10	1	-1E+10	1	-1E+10	1	-1E+10	1
4901784	176	C	04/29/2020	10:48	-132.404	43.404	0	337.50	0	6.4300	0	36.4530	8	28.648	0	334.536	0	109.6	4	37.2	4	-1E+10	1	-1E+10	1	-1E+10	1	-1E+10	1	-1E+10	1	-1E+10	1
4901784	176	C	04/29/2020	10:48	-132.404	43.404	0	340.00	0	6.3730	0	36.4570	8	28.659	0	337.012	0	107.8	4	36.6	4	-1E+10	1	-1E+10	1	-1E+10	1	-1E+10	1	-1E+10	1	-1E+10	1
4901784	176	C	04/29/2020	10:48	-132.404	43.404	0	342.50	0	6.3620	0	36.4560	8	28.660	0	339.488	0	106.5	4	36.1	4	-1E+10	1	-1E+10	1	-1E+10	1	-1E+10	1	-1E+10	1	-1E+10	1
4901784	176	C	04/29/2020	10:48	-132.404	43.404	0	345.00	0	6.3420	0	36.4530	8	28.660	0	341.964	0	104.7	4	35.5	4	-1E+10	1	-1E+10	1	-1E+10	1	-1E+10	1	-1E+10	1	-1E+10	1
4901784	176	C	04/29/2020	10:48	-132.404	43.404	0	347.60	0	6.2690	0	36.4590	8	28.675	0	344.539	0	103.0	4	34.9	4	-1E+10	1	-1E+10	1	-1E+10	1	-1E+10	1	-1E+10	1	-1E+10	1
4901784	176	C	04/29/2020	10:48	-132.404	43.404	0	350.10	0	6.2210	0	36.4610	8	28.683	0	347.015	0	101.9	4	34.5	4	-1E+10	1	-1E+10	1	-1E+10	1	-1E+10	1	-1E+10	1	-1E+10	1
4901784	176	C	04/29/2020	10:48	-132.404	43.404	0	352.70	0	6.1890	0	36.4620	8	28.688	0	349.590	0	100.7	4	34.0	4	-1E+10	1	-1E+10	1	-1E+10	1	-1E+10	1	-1E+10	1	-1E+10	1
4901784	176	C	04/29/2020	10:48	-132.404	43.404	0	355.20	0	6.1890	0	36.4640	8	28.690	0	352.066	0	99.9	4	33.8	4	-1E+10	1	-1E+10	1	-1E+10	1	-1E+10	1	-1E+10	1	-1E+10	1
4901784	176	C	04/29/2020	10:48	-132.404	43.404	0	357.80	0	6.1900	0	36.4630	8	28.689	0	354.641	0	99.4	4	33.6	4	-1E+10	1	-1E+10	1	-1E+10	1	-1E+10	1	-1E+10	1	-1E+10	1
4901784	176	C	04/29/2020	10:48	-132.404	43.404	0	360.30	0	6.1570	0	36.4660	8	28.696	0	357.117	0	98.8	4	33.4	4	-1E+10	1	-1E+10	1	-1E+10	1	-1E+10	1	-1E+10	1	-1E+10	1
4901784	176	C	04/29/2020	10:48	-132.404	43.404	0	362.80	0	6.1380	0	36.4600	8	28.693	0	359.592	0	98.0	4	33.1	4	-1E+10	1	-1E+10	1	-1E+10	1	-1E+10	1	-1E+10	1	-1E+10	1
4901784	176	C	04/29/2020	10:48	-132.404	43.404	0	365.40	0	6.0690	0	36.4610	8	28.703	0	362.167	0	96.5	4	32.5	4	-1E+10	1	-1E+10	1	-1E+10	1	-1E+10	1	-1E+10	1	-1E+10	1
4901784	176	C	04/29/2020	10:48	-132.404	43.404	0	367.10	0	6.0580	0	36.4620	8	28.706	0	363.851	0	95.3	4	32.1	4	-1E+10	1	-1E+10	1	-1E+10	1	-1E+10	1	-1E+10	1	-1E+10	1
4901784	176	C	04/29/2020	10:48	-132.404	43.404	0	369.70	0	6.0190	0	36.4650	8	28.713	0	366.425	0	93.7	4	31.6	4	-1E+10	1	-1E+10	1	-1E+10	1	-1E+10	1	-1E+10	1	-1E+10	1
4901784	176	C	04/29/2020	10:48	-132.404	43.404	0	372.30	0	5.9870	0	36.4670	8	28.719	0	369.000	0	92.6	4	31.2	4	-1E+10	1	-1E+10	1	-1E+10	1	-1E+10	1	-1E+10	1	-1E+10	1
4901784	176	C	04/29/2020	10:48	-132.404	43.404	0	374.80	0	5.9810	0	36.4690	8	28.721	0	371.476	0	91.8	4	30.9	4	-1E+10	1	-1E+10	1	-1E+10	1	-1E+10	1	-1E+10	1	-1E+10	1
4901784	176	C	04/29/2020	10:48	-132.404	43.404	0	377.30	0	5.9240	0	36.4720	8	28.731	0	373.951	0	91.5	4	30.8	4	-1E+10	1	-1E+10	1	-1E+10	1	-1E+10	1	-1E+10	1	-1E+10	1
4901784	176	C	04/29/2020	10:48	-132.404	43.404	0	379.90	0	5.9070	0	36.4710	8	28.733	0	376.526	0	91.0	4	30.6	4	-1E+10	1	-1E+10	1	-1E+10	1	-1E+10	1	-1E+10	1	-1E+10	1
4901784	176	C	04/29/2020	10:48	-132.404	43.404	0	382.40	0	5.8920	0	36.4710	8	28.735	0	379.001	0	89.9	4	30.2	4	-1E+10	1	-1E+10	1	-1E+10	1	-1E+10	1	-1E+10	1	-1E+10	1
4901784	176	C	04/29/2020	10:48	-132.404	43.404	0	384.90	0	5.8710	0	36.4750	8	28.741	0	381.477	0	89.1	4	29.9	4	-1E+10	1	-1E+10	1	-1E+10	1	-1E+10	1	-1E+10	1	-1E+10	1
4901784	176	C	04/29/2020	10:48	-132.404	43.404	0	387.50	0	5.8610	0	36.4740	8	28.741	0	384.051	0	89.0	4	29.9	4	-1E+10	1	-1E+10	1	-1E+10	1	-1E+10	1	-1E+10	1	-1E+10	1
4901784	176	C	04/29/2020	10:48	-132.404	43.404	0	390.10	0	5.8230	0	36.4750	8	28.747	0	386.626	0	89.0	4	29.8	4	-1E+10	1	-1E+10	1	-1E+10	1	-1E+10	1	-1E+10	1	-1E+10	1
4901784	176	C	04/29/2020	10:48	-132.404	43.404	0	392.70	0	5.8090	0	36.4750	8	28.749	0	389.200	0	88.7	4	29.7	4	-1E+10	1	-1E+10	1	-1E+10	1	-1E+10	1	-1E+10	1	-1E+10	1
4901784	176	C	04/29/2020	10:48	-132.404	43.404	0	395.30	0	5.7670	0	36.4740	8	28.753	0	391.774	0	87.9	4	29.5	4	-1E+10	1	-1E+10	1	-1E+10	1	-1E+10	1	-1E+10	1	-1E+10	1
4901784	176	C	04/29/2020	10:48	-132.404	43.404	0	397.90	0	5.7710	0	36.4780	8	28.756	0	394.349	0	86.0	4	28.8	4	-1E+10	1	-1E+10	1	-1E+10	1	-1E+10	1	-1E+10	1	-1E+10	1
4901784	176	C	04/29/2020	10:48	-132.404	43.404	0	399.70	0	5.7720	0	36.4790	8	28.757	0	396.131	0	85.3	4	28.6	4	-1E+10	1	-1E+10	1	-1E+10	1	-1E+10	1	-1E+10	1	-1E+10	1
4901784	176	C	04/29/2020	10:48	-132.404	43.404	0	402.50	0	5.7620	0	36.4790	8	28.758	0	398.903	0	84.4	4	28.3	4	-1E+10	1	-1E+10	1	-1E+10	1	-1E+10	1	-1E+10	1	-1E+10	1
4901784	176	C	04/29/2020	10:48	-132.404	43.404	0	405.20	0	5.7600	0	36.4790	8	28.758	0	401.576	0	83.3	4	27.9	4	-1E+10	1	-1E+10	1	-1E+10	1	-1E+10	1	-1E+10	1	-1E+10	1
4901784	176	C	04/29/2020	10:48	-132.404	43.404	0	407.00	0	5.7270	0	36.4800	8	28.763	0	403.359	0	82.5	4	27.6	4	-1E+10	1	-1E+10	1	-1E+10	1	-1E+10	1	-1E+10	1	-1E+10	1
4901784	176	C	04/29/2020	10:48	-132.404	43.404	0	409.90	0	5.7020	0	36.4810	8	28.767	0	406.230	0	81.2	4	27.2	4	-1E+10	1	-1E+10	1	-1E+10	1	-1E+10	1	-1E+10	1	-1E+10	1
4901784	176	C	04/29/2020	10:48	-132.404	43.404	0	412.60	0	5.6860	0	36.4790	8	28.768	0	408.903	0	79.9	4	26.7	4	-1E+10	1	-1E+10	1	-1E+10	1	-1E+10	1	-1E+10	1	-1E+10	1
4901784	176	C	04/29/2020	10:48	-132.404	43.404	0	415.30	0	5.6430	0	36.4810	8	28.775	0	411.576	0	78.0	4	26.0	4	-1E+10	1	-1E+10	1	-1E+10	1	-1E+10	1	-1E+10	1	-1E+10	1
4901784	176	C	04/29/2020	10:48	-132.404	43.404	0	418.00	0	5.5790	0	36.4870	8	28.788	0	414.249	0	76.0	4	25.3	4	-1E+10	1	-1E+10	1	-1E+10	1	-1E+10	1	-1E+10	1	-1E+10	1
4901784	176	C	04/29/2020	10:48	-132.404	43.404	0	419.90	0	5.5380	0	36.4950	8	28.799	0	416.130	0	74.8	4	24.9	4	-1E+10	1	-1E+10	1	-1E+10	1	-1E+10	1	-1E+10	1	-1E+10	1
4901784	176	C	04/29/2020	10:48	-132.404	43.404	0	422.70	0	5.5300	0	36.4930	8	28.799	0	418.902	0	73.7	4	24.5	4	-1E+10	1	-1E+10	1	-1E+10	1	-1E+10	1	-1E+10	1	-1E+10	1
4901784	176	C	04/29/2020	10:48	-132.404	43.404	0	425.50	0	5.4940	0	36.4970	8	28.807	0	421.674	0	72.3	4	24.1	4	-1E+10	1	-1E+10	1	-1E+10	1	-1E+10	1	-1E+10	1	-1E+10	1
4901784	176	C	04/29/2020	10:48	-132.404	43.404	0	427.40	0	5.4770	0	36.4980	8	28.810	0	423.555	0	71.5	4	23.8	4	-1E+10	1	-1E+10	1	-1E+10	1	-1E+10	1	-1E+10	1	-1E+10	1
4901784	176	C	04/29/2020	10:48	-132.404	43.404	0	430.10	0	5.4590	0	36.5000	8	28.813	0	426.228	0	69.8	4	23.2	4	-1E+10	1	-1E+10	1	-1E+10	1	-1E+10	1	-1E+10	1	-1E+10	1
4901784	176	C	04/29/2020	10:48	-132.404	43.404	0	432.90	0	5.4420	0	36.5090	8	28.823	0	429.000	0	68.2	4	22.7	4	-1E+10	1	-1E+10	1	-1E+10	1	-1E+10	1	-1E+10	1	-1E+10	1
4901784	176	C	04/29/2020	10:48	-132.404	43.404	0	434.80	0	5.4200	0	36.5090	8	28.825	0	430.881	0	67.7	4	22.5	4	-1E+10	1	-1E+10	1	-1E+10	1	-1E+10	1	-1E+10	1	-1E+10	1
4901784	176	C	04/29/2020	10:48	-132.404	43.404	0	437.50	0	5.3890	0	36.5120	8	28.832	0	433.554	0	67.0	4	22.3	4	-1E+10	1	-1E+10	1	-1E+10	1	-1E+10	1	-1E+10	1	-1E+10	1
4901784	176	C	04/29/2020	10:48	-132.404	43.404	0	440.20	0	5.3520	0	36.5150	8	28.839	0	436.227	0	66.4	4	22.0	4	-1E+10	1	-1E+10	1	-1E+10	1	-1E+10	1	-1E+10	1	-1E+10	1
4901784	176	C	04/29/2020	10:48	-132.404	43.404	0	442.10	0	5.3300	0	36.5170	8	28.843	0	438.108	0	66.1	4	21.9	4	-1E+10	1	-1E+10	1	-1E+10	1	-1E+10	1	-1E+10	1	-1E+10	1
4901784	176	C	04/29/2020	10:48	-132.404	43.404	0	444.90	0	5.3240	0	36.5180	8	28.845	0	440.879	0	65.6	4	21.7	4	-1E+10	1	-1E+10	1	-1E+10	1	-1E+10	1	-1E+10	1	-1E+10	1
4901784	176	C	04/29/2020	10:48	-132.404	43.404	0	447.70	0	5.3080	0	36.5190	8	28.847	0	443.651	0	65.0	4	21.5	4	-1E+10	1	-1E+10	1	-1E+10	1	-1E+10	1	-1E+10	1	-1E+10	1
4901784	176	C	04/29/2020	10:48	-132.404	43.404	0	449.50	0	5.2920	0	36.5200	8	28.850	0	445.433	0	64.6	4	21.4	4	-1E+10	1	-1E+10	1	-1E+10	1	-1E+10	1	-1E+10	1	-1E+10	1
4901784	176	C	04/29/2020	10:48	-132.404	43.404	0	452.30	0	5.2700	0	36.5210	8	28.854	0	448.204	0	63.9	4	21.2	4	-1E+10	1	-1E+10	1	-1E+10	1	-1E+10	1	-1E+10	1	-1E+10	1
4901784	176	C	04/29/2020	10:48	-132.404	43.404	0	455.20	0	5.2400	0	36.5210	8	28.857	0	451.075	0	63.4	4	21.0	4	-1E+10	1	-1E+10	1	-1E+10	1	-1E+10	1	-1E+10	1	-1E+10	1
4901784	176	C	04/29/2020	10:48	-132.404	43.404	0	457.00	0	5.1960	0	36.5240	8	28.865	0	452.857	0	62.7	4	20.7	4	-1E+10	1	-1E+10	1	-1E+10	1	-1E+10	1	-1E+10	1	-1E+10	1
4901784	176	C	04/29/2020	10:48	-132.404	43.404	0	459.80	0	5.1970	0	36.5290	8	28.869	0	455.628	0	62.2	4	20.6	4	-1E+10	1	-1E+10	1	-1E+10	1	-1E+10	1	-1E+10	1	-1E+10	1
4901784	176	C	04/29/2020	10:48	-132.404	43.404	0	462.60	0	5.1530	0	36.5280	8	28.874	0	458.400	0	61.9	4	20.5	4	-1E+10	1	-1E+10	1	-1E+10	1	-1E+10	1	-1E+10	1	-1E+10	1
4901784	176	C	04/29/2020	10:48	-132.404	43.404	0	464.40	0	5.1480	0	36.5290	8	28.875	0	460.181	0	61.4	4	20.3	4	-1E+10	1	-1E+10	1	-1E+10	1	-1E+10	1	-1E+10	1	-1E+10	1
4901784	176	C	04/29/2020	10:48	-132.404	43.404	0	467.20	0	5.1440	0	36.5300	8	28.876	0	462.953	0	60.5	4	20.0	4	-1E+10	1	-1E+10	1	-1E+10	1	-1E+10	1	-1E+10	1	-1E+10	1
4901784	176	C	04/29/2020	10:48	-132.404	43.404	0	470.00	0	5.1390	0	36.5300	8	28.877	0	465.724	0	59.4	4	19.6	4	-1E+10	1	-1E+10	1	-1E+10	1	-1E+10	1	-1E+10	1	-1E+10	1
4901784	176	C	04/29/2020	10:48	-132.404	43.404	0	472.80	0	5.1150	0	36.5350	8	28.884	0	468.496	0	58.0	4	19.1	4	-1E+10	1	-1E+10	1	-1E+10	1	-1E+10	1	-1E+10	1	-1E+10	1
4901784	176	C	04/29/2020	10:48	-132.404	43.404	0	475.50	0	5.0990	0	36.5400	8	28.890	0	471.168	0	56.6	4	18.7	4	-1E+10	1	-1E+10	1	-1E+10	1	-1E+10	1	-1E+10	1	-1E+10	1
4901784	176	C	04/29/2020	10:48	-132.404	43.404	0	477.40	0	5.0760	0	36.5450	8	28.897	0	473.049	0	55.9	4	18.4	4	-1E+10	1	-1E+10	1	-1E+10	1	-1E+10	1	-1E+10	1	-1E+10	1
4901784	176	C	04/29/2020	10:48	-132.404	43.404	0	480.20	0	5.0550	0	36.5510	8	28.904	0	475.820	0	55.0	4	18.1	4	-1E+10	1	-1E+10	1	-1E+10	1	-1E+10	1	-1E+10	1	-1E+10	1
4901784	176	C	04/29/2020	10:48	-132.404	43.404	0	483.00	0	5.0390	0	36.5550	8	28.909	0	478.591	0	54.4	4	17.9	4	-1E+10	1	-1E+10	1	-1E+10	1	-1E+10	1	-1E+10	1	-1E+10	1
4901784	176	C	04/29/2020	10:48	-132.404	43.404	0	484.90	0	5.0380	0	36.5570	8	28.911	0	480.472	0	54.1	4	17.8	4	-1E+10	1	-1E+10	1	-1E+10	1	-1E+10	1	-1E+10	1	-1E+10	1
4901784	176	C	04/29/2020	10:48	-132.404	43.404	0	487.70	0	5.0450	0	36.5590	8	28.912	0	483.243	0	53.6	4	17.6	4	-1E+10	1	-1E+10	1	-1E+10	1	-1E+10	1	-1E+10	1	-1E+10	1
4901784	176	C	04/29/2020	10:48	-132.404	43.404	0	490.50	0	5.0470	0	36.5580	8	28.911	0	486.014	0	53.1	4	17.5	4	-1E+10	1	-1E+10	1	-1E+10	1	-1E+10	1	-1E+10	1	-1E+10	1
4901784	176	C	04/29/2020	10:48	-132.404	43.404	0	492.50	0	5.0450	0	36.5590	8	28.912	0	487.993	0	52.7	4	17.4	4	-1E+10	1	-1E+10	1	-1E+10	1	-1E+10	1	-1E+10	1	-1E+10	1
4901784	176	C	04/29/2020	10:48	-132.404	43.404	0	494.30	0	5.0420	0	36.5600	8	28.913	0	489.775	0	52.3	4	17.2	4	-1E+10	1	-1E+10	1	-1E+10	1	-1E+10	1	-1E+10	1	-1E+10	1
4901784	176	C	04/29/2020	10:48	-132.404	43.404	0	497.20	0	5.0170	0	36.5650	8	28.920	0	492.645	0	51.9	4	17.1	4	-1E+10	1	-1E+10	1	-1E+10	1	-1E+10	1	-1E+10	1	-1E+10	1
4901784	176	C	04/29/2020	10:48	-132.404	43.404	0	500.00	0	4.9840	0	36.5670	8	28.925	0	495.416	0	52.0	4	17.1	4	-1E+10	1	-1E+10	1	-1E+10	1	-1E+10	1	-1E+10	1	-1E+10	1
4901784	176	C	04/29/2020	10:48	-132.404	43.404	0	505.60	0	4.9370	0	36.5630	8	28.928	0	500.958	0	52.6	4	17.3	4	-1E+10	1	-1E+10	1	-1E+10	1	-1E+10	1	-1E+10	1	-1E+10	1
4901784	176	C	04/29/2020	10:48	-132.404	43.404	0	510.30	0	4.8920	0	36.5600	8	28.931	0	505.609	0	53.3	4	17.5	4	-1E+10	1	-1E+10	1	-1E+10	1	-1E+10	1	-1E+10	1	-1E+10	1
4901784	176	C	04/29/2020	10:48	-132.404	43.404	0	515.00	0	4.8160	0	36.5540	8	28.935	0	510.260	0	54.0	4	17.7	4	-1E+10	1	-1E+10	1	-1E+10	1	-1E+10	1	-1E+10	1	-1E+10	1
4901784	176	C	04/29/2020	10:48	-132.404	43.404	0	520.60	0	4.7380	0	36.5530	8	28.944	0	515.801	0	53.7	4	17.6	4	-1E+10	1	-1E+10	1	-1E+10	1	-1E+10	1	-1E+10	1	-1E+10	1
4901784	176	C	04/29/2020	10:48	-132.404	43.404	0	525.40	0	4.7350	0	36.5550	8	28.946	0	520.551	0	53.1	4	17.4	4	-1E+10	1	-1E+10	1	-1E+10	1	-1E+10	1	-1E+10	1	-1E+10	1
4901784	176	C	04/29/2020	10:48	-132.404	43.404	0	530.10	0	4.6600	0	36.5530	8	28.953	0	525.202	0	52.2	4	17.0	4	-1E+10	1	-1E+10	1	-1E+10	1	-1E+10	1	-1E+10	1	-1E+10	1
4901784	176	C	04/29/2020	10:48	-132.404	43.404	0	534.80	0	4.6460	0	36.5640	8	28.963	0	529.852	0	49.9	4	16.3	4	-1E+10	1	-1E+10	1	-1E+10	1	-1E+10	1	-1E+10	1	-1E+10	1
4901784	176	C	04/29/2020	10:48	-132.404	43.404	0	539.60	0	4.6930	0	36.5660	8	28.959	0	534.602	0	47.1	4	15.4	4	-1E+10	1	-1E+10	1	-1E+10	1	-1E+10	1	-1E+10	1	-1E+10	1
4901784	176	C	04/29/2020	10:48	-132.404	43.404	0	545.40	0	4.6690	0	36.5830	8	28.976	0	540.340	0	44.8	4	14.6	4	-1E+10	1	-1E+10	1	-1E+10	1	-1E+10	1	-1E+10	1	-1E+10	1
4901784	176	C	04/29/2020	10:48	-132.404	43.404	0	550.20	0	4.6560	0	36.5950	8	28.987	0	545.090	0	42.5	4	13.9	4	-1E+10	1	-1E+10	1	-1E+10	1	-1E+10	1	-1E+10	1	-1E+10	1
4901784	176	C	04/29/2020	10:48	-132.404	43.404	0	555.00	0	4.7100	0	36.6020	8	28.986	0	549.839	0	41.5	4	13.6	4	-1E+10	1	-1E+10	1	-1E+10	1	-1E+10	1	-1E+10	1	-1E+10	1
4901784	176	C	04/29/2020	10:48	-132.404	43.404	0	559.80	0	4.6630	0	36.6030	8	28.993	0	554.588	0	41.1	4	13.4	4	-1E+10	1	-1E+10	1	-1E+10	1	-1E+10	1	-1E+10	1	-1E+10	1
4901784	176	C	04/29/2020	10:48	-132.404	43.404	0	564.60	0	4.6500	0	36.6030	8	28.994	0	559.336	0	40.6	4	13.3	4	-1E+10	1	-1E+10	1	-1E+10	1	-1E+10	1	-1E+10	1	-1E+10	1
4901784	176	C	04/29/2020	10:48	-132.404	43.404	0	570.00	0	4.5490	0	36.6010	8	29.004	0	564.679	0	40.0	4	13.0	4	-1E+10	1	-1E+10	1	-1E+10	1	-1E+10	1	-1E+10	1	-1E+10	1
4901784	176	C	04/29/2020	10:48	-132.404	43.404	0	574.30	0	4.5220	0	36.6110	8	29.015	0	568.933	0	38.2	4	12.4	4	-1E+10	1	-1E+10	1	-1E+10	1	-1E+10	1	-1E+10	1	-1E+10	1
4901784	176	C	04/29/2020	10:48	-132.404	43.404	0	580.00	0	4.5170	0	36.6210	8	29.024	0	574.572	0	36.2	4	11.8	4	-1E+10	1	-1E+10	1	-1E+10	1	-1E+10	1	-1E+10	1	-1E+10	1
4901784	176	C	04/29/2020	10:48	-132.404	43.404	0	585.70	0	4.5020	0	36.6290	8	29.032	0	580.210	0	34.6	4	11.2	4	-1E+10	1	-1E+10	1	-1E+10	1	-1E+10	1	-1E+10	1	-1E+10	1
4901784	176	C	04/29/2020	10:48	-132.404	43.404	0	590.50	0	4.4820	0	36.6360	8	29.040	0	584.959	0	33.2	4	10.8	4	-1E+10	1	-1E+10	1	-1E+10	1	-1E+10	1	-1E+10	1	-1E+10	1
4901784	176	C	04/29/2020	10:48	-132.404	43.404	0	595.50	0	4.4720	0	36.6420	8	29.046	0	589.905	0	32.0	4	10.4	4	-1E+10	1	-1E+10	1	-1E+10	1	-1E+10	1	-1E+10	1	-1E+10	1
4901784	176	C	04/29/2020	10:48	-132.404	43.404	0	600.60	0	4.4590	0	36.6480	8	29.052	0	594.949	0	30.6	4	10.0	4	-1E+10	1	-1E+10	1	-1E+10	1	-1E+10	1	-1E+10	1	-1E+10	1
4901784	176	C	04/29/2020	10:48	-132.404	43.404	0	605.60	0	4.4400	0	36.6570	8	29.061	0	599.895	0	29.5	4	9.6	4	-1E+10	1	-1E+10	1	-1E+10	1	-1E+10	1	-1E+10	1	-1E+10	1
4901784	176	C	04/29/2020	10:48	-132.404	43.404	0	609.90	0	4.4320	0	36.6610	8	29.066	0	604.148	0	28.9	4	9.4	4	-1E+10	1	-1E+10	1	-1E+10	1	-1E+10	1	-1E+10	1	-1E+10	1
4901784	176	C	04/29/2020	10:48	-132.404	43.404	0	614.30	0	4.4250	0	36.6650	8	29.070	0	608.501	0	28.2	4	9.2	4	-1E+10	1	-1E+10	1	-1E+10	1	-1E+10	1	-1E+10	1	-1E+10	1
4901784	176	C	04/29/2020	10:48	-132.404	43.404	0	619.40	0	4.4140	0	36.6680	8	29.073	0	613.545	0	27.3	4	8.9	4	-1E+10	1	-1E+10	1	-1E+10	1	-1E+10	1	-1E+10	1	-1E+10	1
4901784	176	C	04/29/2020	10:48	-132.404	43.404	0	624.70	0	4.4040	0	36.6740	8	29.079	0	618.787	0	26.2	4	8.5	4	-1E+10	1	-1E+10	1	-1E+10	1	-1E+10	1	-1E+10	1	-1E+10	1
4901784	176	C	04/29/2020	10:48	-132.404	43.404	0	630.00	0	4.3940	0	36.6810	8	29.086	0	624.029	0	25.0	4	8.1	4	-1E+10	1	-1E+10	1	-1E+10	1	-1E+10	1	-1E+10	1	-1E+10	1
4901784	176	C	04/29/2020	10:48	-132.404	43.404	0	635.30	0	4.3810	0	36.6890	8	29.094	0	629.271	0	23.9	4	7.8	4	-1E+10	1	-1E+10	1	-1E+10	1	-1E+10	1	-1E+10	1	-1E+10	1
4901784	176	C	04/29/2020	10:48	-132.404	43.404	0	639.80	0	4.3680	0	36.6960	8	29.101	0	633.721	0	23.1	4	7.5	4	-1E+10	1	-1E+10	1	-1E+10	1	-1E+10	1	-1E+10	1	-1E+10	1
4901784	176	C	04/29/2020	10:48	-132.404	43.404	0	644.30	0	4.3570	0	36.7010	8	29.106	0	638.171	0	22.6	4	7.3	4	-1E+10	1	-1E+10	1	-1E+10	1	-1E+10	1	-1E+10	1	-1E+10	1
4901784	176	C	04/29/2020	10:48	-132.404	43.404	0	649.60	0	4.3450	0	36.7050	8	29.111	0	643.413	0	21.9	4	7.1	4	-1E+10	1	-1E+10	1	-1E+10	1	-1E+10	1	-1E+10	1	-1E+10	1
4901784	176	C	04/29/2020	10:48	-132.404	43.404	0	655.00	0	4.3320	0	36.7100	8	29.116	0	648.753	0	21.3	4	6.9	4	-1E+10	1	-1E+10	1	-1E+10	1	-1E+10	1	-1E+10	1	-1E+10	1
4901784	176	C	04/29/2020	10:48	-132.404	43.404	0	660.30	0	4.3160	0	36.7150	8	29.122	0	653.994	0	20.9	4	6.8	4	-1E+10	1	-1E+10	1	-1E+10	1	-1E+10	1	-1E+10	1	-1E+10	1
4901784	176	C	04/29/2020	10:48	-132.404	43.404	0	664.80	0	4.3100	0	36.7170	8	29.124	0	658.444	0	20.4	4	6.6	4	-1E+10	1	-1E+10	1	-1E+10	1	-1E+10	1	-1E+10	1	-1E+10	1
4901784	176	C	04/29/2020	10:48	-132.404	43.404	0	669.40	0	4.2970	0	36.7220	8	29.130	0	662.993	0	19.9	4	6.4	4	-1E+10	1	-1E+10	1	-1E+10	1	-1E+10	1	-1E+10	1	-1E+10	1
4901784	176	C	04/29/2020	10:48	-132.404	43.404	0	674.90	0	4.2790	0	36.7290	8	29.138	0	668.431	0	19.2	4	6.2	4	-1E+10	1	-1E+10	1	-1E+10	1	-1E+10	1	-1E+10	1	-1E+10	1
4901784	176	C	04/29/2020	10:48	-132.404	43.404	0	680.30	0	4.2700	0	36.7340	8	29.143	0	673.771	0	18.8	4	6.1	4	-1E+10	1	-1E+10	1	-1E+10	1	-1E+10	1	-1E+10	1	-1E+10	1
4901784	176	C	04/29/2020	10:48	-132.404	43.404	0	685.50	0	4.2560	0	36.7390	8	29.148	0	678.912	0	18.4	4	5.9	4	-1E+10	1	-1E+10	1	-1E+10	1	-1E+10	1	-1E+10	1	-1E+10	1
4901784	176	C	04/29/2020	10:48	-132.404	43.404	0	689.60	0	4.2490	0	36.7420	8	29.151	0	682.966	0	18.0	4	5.8	4	-1E+10	1	-1E+10	1	-1E+10	1	-1E+10	1	-1E+10	1	-1E+10	1
4901784	176	C	04/29/2020	10:48	-132.404	43.404	0	695.00	0	4.2290	0	36.7470	8	29.158	0	688.305	0	17.5	4	5.7	4	-1E+10	1	-1E+10	1	-1E+10	1	-1E+10	1	-1E+10	1	-1E+10	1
4901784	176	C	04/29/2020	10:48	-132.404	43.404	0	700.40	0	4.2080	0	36.7540	8	29.166	0	693.644	0	17.0	4	5.5	4	-1E+10	1	-1E+10	1	-1E+10	1	-1E+10	1	-1E+10	1	-1E+10	1
4901784	176	C	04/29/2020	10:48	-132.404	43.404	0	705.20	0	4.1960	0	36.7580	8	29.170	0	698.390	0	16.7	4	5.4	4	-1E+10	1	-1E+10	1	-1E+10	1	-1E+10	1	-1E+10	1	-1E+10	1
4901784	176	C	04/29/2020	10:48	-132.404	43.404	0	710.00	0	4.1890	0	36.7610	8	29.173	0	703.136	0	16.4	4	5.3	4	-1E+10	1	-1E+10	1	-1E+10	1	-1E+10	1	-1E+10	1	-1E+10	1
4901784	176	C	04/29/2020	10:48	-132.404	43.404	0	715.00	0	4.1960	0	36.7680	8	29.178	0	708.079	0	15.9	4	5.1	4	-1E+10	1	-1E+10	1	-1E+10	1	-1E+10	1	-1E+10	1	-1E+10	1
4901784	176	C	04/29/2020	10:48	-132.404	43.404	0	719.90	0	4.1880	0	36.7730	8	29.183	0	712.923	0	15.6	4	5.0	4	-1E+10	1	-1E+10	1	-1E+10	1	-1E+10	1	-1E+10	1	-1E+10	1
4901784	176	C	04/29/2020	10:48	-132.404	43.404	0	724.90	0	4.1770	0	36.7770	8	29.188	0	717.866	0	15.2	4	4.9	4	-1E+10	1	-1E+10	1	-1E+10	1	-1E+10	1	-1E+10	1	-1E+10	1
4901784	176	C	04/29/2020	10:48	-132.404	43.404	0	730.00	0	4.1600	0	36.7830	8	29.194	0	722.908	0	15.0	4	4.8	4	-1E+10	1	-1E+10	1	-1E+10	1	-1E+10	1	-1E+10	1	-1E+10	1
4901784	176	C	04/29/2020	10:48	-132.404	43.404	0	735.00	0	4.1530	0	36.7860	8	29.197	0	727.850	0	14.8	4	4.8	4	-1E+10	1	-1E+10	1	-1E+10	1	-1E+10	1	-1E+10	1	-1E+10	1
4901784	176	C	04/29/2020	10:48	-132.404	43.404	0	740.00	0	4.1430	0	36.7890	8	29.201	0	732.793	0	14.5	4	4.7	4	-1E+10	1	-1E+10	1	-1E+10	1	-1E+10	1	-1E+10	1	-1E+10	1
4901784	176	C	04/29/2020	10:48	-132.404	43.404	0	745.20	0	4.1300	0	36.7940	8	29.206	0	737.933	0	14.2	4	4.6	4	-1E+10	1	-1E+10	1	-1E+10	1	-1E+10	1	-1E+10	1	-1E+10	1
4901784	176	C	04/29/2020	10:48	-132.404	43.404	0	750.30	0	4.1150	0	36.7990	8	29.212	0	742.974	0	13.9	4	4.5	4	-1E+10	1	-1E+10	1	-1E+10	1	-1E+10	1	-1E+10	1	-1E+10	1
4901784	176	C	04/29/2020	10:48	-132.404	43.404	0	755.40	0	4.0960	0	36.8040	8	29.218	0	748.015	0	13.6	4	4.4	4	-1E+10	1	-1E+10	1	-1E+10	1	-1E+10	1	-1E+10	1	-1E+10	1
4901784	176	C	04/29/2020	10:48	-132.404	43.404	0	760.50	0	4.0800	0	36.8090	8	29.224	0	753.056	0	13.3	4	4.3	4	-1E+10	1	-1E+10	1	-1E+10	1	-1E+10	1	-1E+10	1	-1E+10	1
4901784	176	C	04/29/2020	10:48	-132.404	43.404	0	765.00	0	4.0620	0	36.8160	8	29.232	0	757.504	0	13.1	4	4.2	4	-1E+10	1	-1E+10	1	-1E+10	1	-1E+10	1	-1E+10	1	-1E+10	1
4901784	176	C	04/29/2020	10:48	-132.404	43.404	0	769.40	0	4.0610	0	36.8190	8	29.234	0	761.853	0	12.9	4	4.2	4	-1E+10	1	-1E+10	1	-1E+10	1	-1E+10	1	-1E+10	1	-1E+10	1
4901784	176	C	04/29/2020	10:48	-132.404	43.404	0	774.60	0	4.0580	0	36.8220	8	29.237	0	766.992	0	12.7	4	4.1	4	-1E+10	1	-1E+10	1	-1E+10	1	-1E+10	1	-1E+10	1	-1E+10	1
4901784	176	C	04/29/2020	10:48	-132.404	43.404	0	780.00	0	4.0500	0	36.8260	8	29.241	0	772.329	0	12.5	4	4.0	4	-1E+10	1	-1E+10	1	-1E+10	1	-1E+10	1	-1E+10	1	-1E+10	1
4901784	176	C	04/29/2020	10:48	-132.404	43.404	0	785.40	0	4.0410	0	36.8310	8	29.246	0	777.666	0	12.3	4	4.0	4	-1E+10	1	-1E+10	1	-1E+10	1	-1E+10	1	-1E+10	1	-1E+10	1
4901784	176	C	04/29/2020	10:48	-132.404	43.404	0	789.90	0	4.0340	0	36.8330	8	29.248	0	782.114	0	12.2	4	3.9	4	-1E+10	1	-1E+10	1	-1E+10	1	-1E+10	1	-1E+10	1	-1E+10	1
4901784	176	C	04/29/2020	10:48	-132.404	43.404	0	794.40	0	4.0200	0	36.8380	8	29.254	0	786.561	0	12.1	4	3.9	4	-1E+10	1	-1E+10	1	-1E+10	1	-1E+10	1	-1E+10	1	-1E+10	1
4901784	176	C	04/29/2020	10:48	-132.404	43.404	0	799.90	0	4.0110	0	36.8400	8	29.257	0	791.996	0	12.0	4	3.9	4	-1E+10	1	-1E+10	1	-1E+10	1	-1E+10	1	-1E+10	1	-1E+10	1
4901784	176	C	04/29/2020	10:48	-132.404	43.404	0	805.40	0	4.0020	0	36.8430	8	29.260	0	797.431	0	11.9	4	3.8	4	-1E+10	1	-1E+10	1	-1E+10	1	-1E+10	1	-1E+10	1	-1E+10	1
4901784	176	C	04/29/2020	10:48	-132.404	43.404	0	810.00	0	3.9870	0	36.8470	8	29.265	0	801.977	0	11.7	4	3.8	4	-1E+10	1	-1E+10	1	-1E+10	1	-1E+10	1	-1E+10	1	-1E+10	1
4901784	176	C	04/29/2020	10:48	-132.404	43.404	0	814.70	0	3.9780	0	36.8500	8	29.268	0	806.621	0	11.6	4	3.7	4	-1E+10	1	-1E+10	1	-1E+10	1	-1E+10	1	-1E+10	1	-1E+10	1
4901784	176	C	04/29/2020	10:48	-132.404	43.404	0	820.30	0	3.9660	0	36.8540	8	29.273	0	812.155	0	11.5	4	3.7	4	-1E+10	1	-1E+10	1	-1E+10	1	-1E+10	1	-1E+10	1	-1E+10	1
4901784	176	C	04/29/2020	10:48	-132.404	43.404	0	824.90	0	3.9530	0	36.8570	8	29.277	0	816.700	0	11.4	4	3.7	4	-1E+10	1	-1E+10	1	-1E+10	1	-1E+10	1	-1E+10	1	-1E+10	1
4901784	176	C	04/29/2020	10:48	-132.404	43.404	0	830.30	0	3.9410	0	36.8610	8	29.281	0	822.036	0	11.3	4	3.6	4	-1E+10	1	-1E+10	1	-1E+10	1	-1E+10	1	-1E+10	1	-1E+10	1
4901784	176	C	04/29/2020	10:48	-132.404	43.404	0	835.20	0	3.9290	0	36.8650	8	29.286	0	826.877	0	11.2	4	3.6	4	-1E+10	1	-1E+10	1	-1E+10	1	-1E+10	1	-1E+10	1	-1E+10	1
4901784	176	C	04/29/2020	10:48	-132.404	43.404	0	840.00	0	3.9130	0	36.8700	8	29.291	0	831.620	0	11.1	4	3.6	4	-1E+10	1	-1E+10	1	-1E+10	1	-1E+10	1	-1E+10	1	-1E+10	1
4901784	176	C	04/29/2020	10:48	-132.404	43.404	0	844.80	0	3.9050	0	36.8720	8	29.294	0	836.362	0	11.0	4	3.5	4	-1E+10	1	-1E+10	1	-1E+10	1	-1E+10	1	-1E+10	1	-1E+10	1
4901784	176	C	04/29/2020	10:48	-132.404	43.404	0	849.60	0	3.8920	0	36.8760	8	29.299	0	841.105	0	10.9	4	3.5	4	-1E+10	1	-1E+10	1	-1E+10	1	-1E+10	1	-1E+10	1	-1E+10	1
4901784	176	C	04/29/2020	10:48	-132.404	43.404	0	854.50	0	3.8790	0	36.8800	8	29.303	0	845.946	0	10.8	4	3.5	4	-1E+10	1	-1E+10	1	-1E+10	1	-1E+10	1	-1E+10	1	-1E+10	1
4901784	176	C	04/29/2020	10:48	-132.404	43.404	0	859.40	0	3.8680	0	36.8820	8	29.306	0	850.787	0	10.8	4	3.5	4	-1E+10	1	-1E+10	1	-1E+10	1	-1E+10	1	-1E+10	1	-1E+10	1
4901784	176	C	04/29/2020	10:48	-132.404	43.404	0	864.30	0	3.8590	0	36.8840	8	29.309	0	855.628	0	10.7	4	3.4	4	-1E+10	1	-1E+10	1	-1E+10	1	-1E+10	1	-1E+10	1	-1E+10	1
4901784	176	C	04/29/2020	10:48	-132.404	43.404	0	869.30	0	3.8440	0	36.8890	8	29.314	0	860.567	0	10.6	4	3.4	4	-1E+10	1	-1E+10	1	-1E+10	1	-1E+10	1	-1E+10	1	-1E+10	1
4901784	176	C	04/29/2020	10:48	-132.404	43.404	0	874.20	0	3.8280	0	36.8940	8	29.320	0	865.408	0	10.5	4	3.4	4	-1E+10	1	-1E+10	1	-1E+10	1	-1E+10	1	-1E+10	1	-1E+10	1
4901784	176	C	04/29/2020	10:48	-132.404	43.404	0	879.30	0	3.8170	0	36.8970	8	29.324	0	870.446	0	10.5	4	3.4	4	-1E+10	1	-1E+10	1	-1E+10	1	-1E+10	1	-1E+10	1	-1E+10	1
4901784	176	C	04/29/2020	10:48	-132.404	43.404	0	884.30	0	3.8110	0	36.8990	8	29.326	0	875.385	0	10.4	4	3.3	4	-1E+10	1	-1E+10	1	-1E+10	1	-1E+10	1	-1E+10	1	-1E+10	1
4901784	176	C	04/29/2020	10:48	-132.404	43.404	0	889.30	0	3.8020	0	36.9020	8	29.329	0	880.324	0	10.4	4	3.3	4	-1E+10	1	-1E+10	1	-1E+10	1	-1E+10	1	-1E+10	1	-1E+10	1
4901784	176	C	04/29/2020	10:48	-132.404	43.404	0	894.40	0	3.7880	0	36.9060	8	29.334	0	885.362	0	10.3	4	3.3	4	-1E+10	1	-1E+10	1	-1E+10	1	-1E+10	1	-1E+10	1	-1E+10	1
4901784	176	C	04/29/2020	10:48	-132.404	43.404	0	899.40	0	3.7740	0	36.9100	8	29.339	0	890.301	0	10.3	4	3.3	4	-1E+10	1	-1E+10	1	-1E+10	1	-1E+10	1	-1E+10	1	-1E+10	1
4901784	176	C	04/29/2020	10:48	-132.404	43.404	0	904.50	0	3.7660	0	36.9120	8	29.341	0	895.338	0	10.2	4	3.3	4	-1E+10	1	-1E+10	1	-1E+10	1	-1E+10	1	-1E+10	1	-1E+10	1
4901784	176	C	04/29/2020	10:48	-132.404	43.404	0	909.50	0	3.7530	0	36.9160	8	29.346	0	900.277	0	10.2	4	3.3	4	-1E+10	1	-1E+10	1	-1E+10	1	-1E+10	1	-1E+10	1	-1E+10	1
4901784	176	C	04/29/2020	10:48	-132.404	43.404	0	914.60	0	3.7430	0	36.9180	8	29.349	0	905.314	0	10.2	4	3.3	4	-1E+10	1	-1E+10	1	-1E+10	1	-1E+10	1	-1E+10	1	-1E+10	1
4901784	176	C	04/29/2020	10:48	-132.404	43.404	0	919.70	0	3.7330	0	36.9220	8	29.353	0	910.351	0	10.1	4	3.2	4	-1E+10	1	-1E+10	1	-1E+10	1	-1E+10	1	-1E+10	1	-1E+10	1
4901784	176	C	04/29/2020	10:48	-132.404	43.404	0	924.80	0	3.7210	0	36.9240	8	29.356	0	915.388	0	10.1	4	3.2	4	-1E+10	1	-1E+10	1	-1E+10	1	-1E+10	1	-1E+10	1	-1E+10	1
4901784	176	C	04/29/2020	10:48	-132.404	43.404	0	929.90	0	3.7000	0	36.9300	8	29.363	0	920.425	0	10.1	4	3.2	4	-1E+10	1	-1E+10	1	-1E+10	1	-1E+10	1	-1E+10	1	-1E+10	1
4901784	176	C	04/29/2020	10:48	-132.404	43.404	0	935.10	0	3.6830	0	36.9350	8	29.369	0	925.561	0	10.1	4	3.2	4	-1E+10	1	-1E+10	1	-1E+10	1	-1E+10	1	-1E+10	1	-1E+10	1
4901784	176	C	04/29/2020	10:48	-132.404	43.404	0	940.30	0	3.6730	0	36.9370	8	29.371	0	930.696	0	10.1	4	3.2	4	-1E+10	1	-1E+10	1	-1E+10	1	-1E+10	1	-1E+10	1	-1E+10	1
4901784	176	C	04/29/2020	10:48	-132.404	43.404	0	945.50	0	3.6600	0	36.9400	8	29.375	0	935.832	0	10.0	4	3.2	4	-1E+10	1	-1E+10	1	-1E+10	1	-1E+10	1	-1E+10	1	-1E+10	1
4901784	176	C	04/29/2020	10:48	-132.404	43.404	0	950.00	0	3.6410	0	36.9460	8	29.382	0	940.275	0	10.0	4	3.2	4	-1E+10	1	-1E+10	1	-1E+10	1	-1E+10	1	-1E+10	1	-1E+10	1
4901784	176	C	04/29/2020	10:48	-132.404	43.404	0	954.40	0	3.6360	0	36.9470	8	29.383	0	944.620	0	10.0	4	3.2	4	-1E+10	1	-1E+10	1	-1E+10	1	-1E+10	1	-1E+10	1	-1E+10	1
4901784	176	C	04/29/2020	10:48	-132.404	43.404	0	959.70	0	3.6230	0	36.9500	8	29.387	0	949.854	0	10.0	4	3.2	4	-1E+10	1	-1E+10	1	-1E+10	1	-1E+10	1	-1E+10	1	-1E+10	1
4901784	176	C	04/29/2020	10:48	-132.404	43.404	0	965.00	0	3.6070	0	36.9550	8	29.393	0	955.088	0	10.0	4	3.2	4	-1E+10	1	-1E+10	1	-1E+10	1	-1E+10	1	-1E+10	1	-1E+10	1
4901784	176	C	04/29/2020	10:48	-132.404	43.404	0	970.40	0	3.5950	0	36.9570	8	29.396	0	960.420	0	10.1	4	3.2	4	-1E+10	1	-1E+10	1	-1E+10	1	-1E+10	1	-1E+10	1	-1E+10	1
4901784	176	C	04/29/2020	10:48	-132.404	43.404	0	975.60	0	3.5840	0	36.9610	8	29.400	0	965.554	0	10.1	4	3.2	4	-1E+10	1	-1E+10	1	-1E+10	1	-1E+10	1	-1E+10	1	-1E+10	1
4901784	176	C	04/29/2020	10:48	-132.404	43.404	0	980.10	0	3.5720	0	36.9640	8	29.404	0	969.998	0	10.1	4	3.2	4	-1E+10	1	-1E+10	1	-1E+10	1	-1E+10	1	-1E+10	1	-1E+10	1
4901784	176	C	04/29/2020	10:48	-132.404	43.404	0	984.60	0	3.5590	0	36.9670	8	29.407	0	974.441	0	10.1	4	3.2	4	-1E+10	1	-1E+10	1	-1E+10	1	-1E+10	1	-1E+10	1	-1E+10	1
4901784	176	C	04/29/2020	10:48	-132.404	43.404	0	990.00	0	3.5430	0	36.9700	8	29.412	0	979.772	0	10.2	4	3.3	4	-1E+10	1	-1E+10	1	-1E+10	1	-1E+10	1	-1E+10	1	-1E+10	1
4901784	176	C	04/29/2020	10:48	-132.404	43.404	0	995.40	0	3.5240	0	36.9760	8	29.418	0	985.104	0	10.3	4	3.3	4	-1E+10	1	-1E+10	1	-1E+10	1	-1E+10	1	-1E+10	1	-1E+10	1
4901784	176	C	04/29/2020	10:48	-132.404	43.404	0	999.90	0	3.5100	0	36.9800	8	29.423	0	989.547	0	10.3	4	3.3	4	-1E+10	1	-1E+10	1	-1E+10	1	-1E+10	1	-1E+10	1	-1E+10	1
4901784	176	C	04/29/2020	10:48	-132.404	43.404	0	1004.50	0	3.4930	0	36.9840	8	29.428	0	994.088	0	10.4	4	3.3	4	-1E+10	1	-1E+10	1	-1E+10	1	-1E+10	1	-1E+10	1	-1E+10	1
4901784	176	C	04/29/2020	10:48	-132.404	43.404	0	1010.00	0	3.4770	0	36.9880	8	29.433	0	999.518	0	10.5	4	3.3	4	-1E+10	1	-1E+10	1	-1E+10	1	-1E+10	1	-1E+10	1	-1E+10	1
4901784	176	C	04/29/2020	10:48	-132.404	43.404	0	1015.60	0	3.4700	0	36.9900	8	29.435	0	1005.047	0	10.5	4	3.3	4	-1E+10	1	-1E+10	1	-1E+10	1	-1E+10	1	-1E+10	1	-1E+10	1
4901784	176	C	04/29/2020	10:48	-132.404	43.404	0	1020.30	0	3.4640	0	36.9910	8	29.437	0	1009.686	0	10.5	4	3.4	4	-1E+10	1	-1E+10	1	-1E+10	1	-1E+10	1	-1E+10	1	-1E+10	1
4901784	176	C	04/29/2020	10:48	-132.404	43.404	0	1024.90	0	3.4520	0	36.9940	8	29.440	0	1014.228	0	10.6	4	3.4	4	-1E+10	1	-1E+10	1	-1E+10	1	-1E+10	1	-1E+10	1	-1E+10	1
4901784	176	C	04/29/2020	10:48	-132.404	43.404	0	1030.40	0	3.4410	0	36.9970	8	29.444	0	1019.657	0	10.6	4	3.4	4	-1E+10	1	-1E+10	1	-1E+10	1	-1E+10	1	-1E+10	1	-1E+10	1
4901784	176	C	04/29/2020	10:48	-132.404	43.404	0	1035.70	0	3.4350	0	36.9990	8	29.446	0	1024.889	0	10.7	4	3.4	4	-1E+10	1	-1E+10	1	-1E+10	1	-1E+10	1	-1E+10	1	-1E+10	1
4901784	176	C	04/29/2020	10:48	-132.404	43.404	0	1040.50	0	3.4270	0	37.0020	8	29.449	0	1029.627	0	10.8	4	3.4	4	-1E+10	1	-1E+10	1	-1E+10	1	-1E+10	1	-1E+10	1	-1E+10	1
4901784	176	C	04/29/2020	10:48	-132.404	43.404	0	1045.30	0	3.4150	0	37.0040	8	29.452	0	1034.365	0	10.8	4	3.4	4	-1E+10	1	-1E+10	1	-1E+10	1	-1E+10	1	-1E+10	1	-1E+10	1
4901784	176	C	04/29/2020	10:48	-132.404	43.404	0	1050.20	0	3.4070	0	37.0060	8	29.455	0	1039.201	0	10.9	4	3.5	4	-1E+10	1	-1E+10	1	-1E+10	1	-1E+10	1	-1E+10	1	-1E+10	1
4901784	176	C	04/29/2020	10:48	-132.404	43.404	0	1055.10	0	3.3960	0	37.0080	8	29.457	0	1044.038	0	11.0	4	3.5	4	-1E+10	1	-1E+10	1	-1E+10	1	-1E+10	1	-1E+10	1	-1E+10	1
4901784	176	C	04/29/2020	10:48	-132.404	43.404	0	1059.90	0	3.3760	0	37.0130	8	29.464	0	1048.776	0	11.1	4	3.5	4	-1E+10	1	-1E+10	1	-1E+10	1	-1E+10	1	-1E+10	1	-1E+10	1
4901784	176	C	04/29/2020	10:48	-132.404	43.404	0	1064.80	0	3.3650	0	37.0160	8	29.467	0	1053.612	0	11.2	4	3.6	4	-1E+10	1	-1E+10	1	-1E+10	1	-1E+10	1	-1E+10	1	-1E+10	1
4901784	176	C	04/29/2020	10:48	-132.404	43.404	0	1069.70	0	3.3510	0	37.0190	8	29.471	0	1058.448	0	11.3	4	3.6	4	-1E+10	1	-1E+10	1	-1E+10	1	-1E+10	1	-1E+10	1	-1E+10	1
4901784	176	C	04/29/2020	10:48	-132.404	43.404	0	1074.70	0	3.3400	0	37.0210	8	29.474	0	1063.383	0	11.4	4	3.6	4	-1E+10	1	-1E+10	1	-1E+10	1	-1E+10	1	-1E+10	1	-1E+10	1
4901784	176	C	04/29/2020	10:48	-132.404	43.404	0	1079.70	0	3.3250	0	37.0240	8	29.478	0	1068.317	0	11.5	4	3.7	4	-1E+10	1	-1E+10	1	-1E+10	1	-1E+10	1	-1E+10	1	-1E+10	1
4901784	176	C	04/29/2020	10:48	-132.404	43.404	0	1084.70	0	3.3110	0	37.0270	8	29.481	0	1073.252	0	11.6	4	3.7	4	-1E+10	1	-1E+10	1	-1E+10	1	-1E+10	1	-1E+10	1	-1E+10	1
4901784	176	C	04/29/2020	10:48	-132.404	43.404	0	1089.60	0	3.3000	0	37.0290	8	29.484	0	1078.088	0	11.7	4	3.7	4	-1E+10	1	-1E+10	1	-1E+10	1	-1E+10	1	-1E+10	1	-1E+10	1
4901784	176	C	04/29/2020	10:48	-132.404	43.404	0	1094.50	0	3.2860	0	37.0320	8	29.488	0	1082.923	0	11.8	4	3.7	4	-1E+10	1	-1E+10	1	-1E+10	1	-1E+10	1	-1E+10	1	-1E+10	1
4901784	176	C	04/29/2020	10:48	-132.404	43.404	0	1099.60	0	3.2770	0	37.0340	8	29.491	0	1087.956	0	11.9	4	3.8	4	-1E+10	1	-1E+10	1	-1E+10	1	-1E+10	1	-1E+10	1	-1E+10	1
4901784	176	C	04/29/2020	10:48	-132.404	43.404	0	1104.60	0	3.2660	0	37.0360	8	29.493	0	1092.890	0	12.0	4	3.8	4	-1E+10	1	-1E+10	1	-1E+10	1	-1E+10	1	-1E+10	1	-1E+10	1
4901784	176	C	04/29/2020	10:48	-132.404	43.404	0	1109.90	0	3.2520	0	37.0390	8	29.497	0	1098.120	0	12.1	4	3.8	4	-1E+10	1	-1E+10	1	-1E+10	1	-1E+10	1	-1E+10	1	-1E+10	1
4901784	176	C	04/29/2020	10:48	-132.404	43.404	0	1115.30	0	3.2430	0	37.0410	8	29.500	0	1103.449	0	12.2	4	3.9	4	-1E+10	1	-1E+10	1	-1E+10	1	-1E+10	1	-1E+10	1	-1E+10	1
4901784	176	C	04/29/2020	10:48	-132.404	43.404	0	1120.40	0	3.2270	0	37.0440	8	29.504	0	1108.481	0	12.3	4	3.9	4	-1E+10	1	-1E+10	1	-1E+10	1	-1E+10	1	-1E+10	1	-1E+10	1
4901784	176	C	04/29/2020	10:48	-132.404	43.404	0	1125.50	0	3.2200	0	37.0450	8	29.505	0	1113.513	0	12.4	4	3.9	4	-1E+10	1	-1E+10	1	-1E+10	1	-1E+10	1	-1E+10	1	-1E+10	1
4901784	176	C	04/29/2020	10:48	-132.404	43.404	0	1130.30	0	3.2110	0	37.0470	8	29.508	0	1118.249	0	12.5	4	3.9	4	-1E+10	1	-1E+10	1	-1E+10	1	-1E+10	1	-1E+10	1	-1E+10	1
4901784	176	C	04/29/2020	10:48	-132.404	43.404	0	1135.10	0	3.2010	0	37.0490	8	29.510	0	1122.985	0	12.6	4	4.0	4	-1E+10	1	-1E+10	1	-1E+10	1	-1E+10	1	-1E+10	1	-1E+10	1
4901784	176	C	04/29/2020	10:48	-132.404	43.404	0	1140.00	0	3.1890	0	37.0520	8	29.514	0	1127.820	0	12.7	4	4.0	4	-1E+10	1	-1E+10	1	-1E+10	1	-1E+10	1	-1E+10	1	-1E+10	1
4901784	176	C	04/29/2020	10:48	-132.404	43.404	0	1145.00	0	3.1820	0	37.0540	8	29.516	0	1132.753	0	12.8	4	4.1	4	-1E+10	1	-1E+10	1	-1E+10	1	-1E+10	1	-1E+10	1	-1E+10	1
4901784	176	C	04/29/2020	10:48	-132.404	43.404	0	1150.10	0	3.1730	0	37.0560	8	29.519	0	1137.784	0	13.0	4	4.1	4	-1E+10	1	-1E+10	1	-1E+10	1	-1E+10	1	-1E+10	1	-1E+10	1
4901784	176	C	04/29/2020	10:48	-132.404	43.404	0	1155.20	0	3.1630	0	37.0580	8	29.522	0	1142.816	0	13.1	4	4.1	4	-1E+10	1	-1E+10	1	-1E+10	1	-1E+10	1	-1E+10	1	-1E+10	1
4901784	176	C	04/29/2020	10:48	-132.404	43.404	0	1160.40	0	3.1520	0	37.0600	8	29.524	0	1147.946	0	13.3	4	4.2	4	-1E+10	1	-1E+10	1	-1E+10	1	-1E+10	1	-1E+10	1	-1E+10	1
4901784	176	C	04/29/2020	10:48	-132.404	43.404	0	1165.60	0	3.1380	0	37.0630	8	29.528	0	1153.076	0	13.4	4	4.2	4	-1E+10	1	-1E+10	1	-1E+10	1	-1E+10	1	-1E+10	1	-1E+10	1
4901784	176	C	04/29/2020	10:48	-132.404	43.404	0	1169.90	0	3.1310	0	37.0650	8	29.530	0	1157.318	0	13.6	4	4.3	4	-1E+10	1	-1E+10	1	-1E+10	1	-1E+10	1	-1E+10	1	-1E+10	1
4901784	176	C	04/29/2020	10:48	-132.404	43.404	0	1174.20	0	3.1220	0	37.0660	8	29.532	0	1161.560	0	13.6	4	4.3	4	-1E+10	1	-1E+10	1	-1E+10	1	-1E+10	1	-1E+10	1	-1E+10	1
4901784	176	C	04/29/2020	10:48	-132.404	43.404	0	1179.40	0	3.1170	0	37.0680	8	29.534	0	1166.689	0	13.8	4	4.4	4	-1E+10	1	-1E+10	1	-1E+10	1	-1E+10	1	-1E+10	1	-1E+10	1
4901784	176	C	04/29/2020	10:48	-132.404	43.404	0	1184.60	0	3.1120	0	37.0700	8	29.536	0	1171.819	0	14.0	4	4.4	4	-1E+10	1	-1E+10	1	-1E+10	1	-1E+10	1	-1E+10	1	-1E+10	1
4901784	176	C	04/29/2020	10:48	-132.404	43.404	0	1190.00	0	3.0930	0	37.0720	8	29.540	0	1177.146	0	14.0	4	4.4	4	-1E+10	1	-1E+10	1	-1E+10	1	-1E+10	1	-1E+10	1	-1E+10	1
4901784	176	C	04/29/2020	10:48	-132.404	43.404	0	1195.30	0	3.0830	0	37.0730	8	29.542	0	1182.373	0	14.0	4	4.4	4	-1E+10	1	-1E+10	1	-1E+10	1	-1E+10	1	-1E+10	1	-1E+10	1
4901784	176	C	04/29/2020	10:48	-132.404	43.404	0	1200.60	0	3.0810	0	37.0740	8	29.543	0	1187.601	0	14.2	4	4.5	4	-1E+10	1	-1E+10	1	-1E+10	1	-1E+10	1	-1E+10	1	-1E+10	1
4901784	176	C	04/29/2020	10:48	-132.404	43.404	0	1205.10	0	3.0760	0	37.0750	8	29.544	0	1192.040	0	14.3	4	4.5	4	-1E+10	1	-1E+10	1	-1E+10	1	-1E+10	1	-1E+10	1	-1E+10	1
4901784	176	C	04/29/2020	10:48	-132.404	43.404	0	1209.60	0	3.0620	0	37.0760	8	29.546	0	1196.478	0	14.4	4	4.5	4	-1E+10	1	-1E+10	1	-1E+10	1	-1E+10	1	-1E+10	1	-1E+10	1
4901784	176	C	04/29/2020	10:48	-132.404	43.404	0	1215.10	0	3.0430	0	37.0800	8	29.551	0	1201.903	0	14.7	4	4.6	4	-1E+10	1	-1E+10	1	-1E+10	1	-1E+10	1	-1E+10	1	-1E+10	1
4901784	176	C	04/29/2020	10:48	-132.404	43.404	0	1219.70	0	3.0320	0	37.0820	8	29.554	0	1206.440	0	14.8	4	4.7	4	-1E+10	1	-1E+10	1	-1E+10	1	-1E+10	1	-1E+10	1	-1E+10	1
4901784	176	C	04/29/2020	10:48	-132.404	43.404	0	1224.40	0	3.0270	0	37.0830	8	29.555	0	1211.075	0	14.9	4	4.7	4	-1E+10	1	-1E+10	1	-1E+10	1	-1E+10	1	-1E+10	1	-1E+10	1
4901784	176	C	04/29/2020	10:48	-132.404	43.404	0	1229.80	0	3.0170	0	37.0850	8	29.558	0	1216.401	0	15.1	4	4.8	4	-1E+10	1	-1E+10	1	-1E+10	1	-1E+10	1	-1E+10	1	-1E+10	1
4901784	176	C	04/29/2020	10:48	-132.404	43.404	0	1235.00	0	3.0060	0	37.0870	8	29.561	0	1221.529	0	15.2	4	4.8	4	-1E+10	1	-1E+10	1	-1E+10	1	-1E+10	1	-1E+10	1	-1E+10	1
4901784	176	C	04/29/2020	10:48	-132.404	43.404	0	1240.10	0	2.9940	0	37.0880	8	29.563	0	1226.558	0	15.4	4	4.8	4	-1E+10	1	-1E+10	1	-1E+10	1	-1E+10	1	-1E+10	1	-1E+10	1
4901784	176	C	04/29/2020	10:48	-132.404	43.404	0	1245.30	0	2.9830	0	37.0900	8	29.565	0	1231.686	0	15.5	4	4.9	4	-1E+10	1	-1E+10	1	-1E+10	1	-1E+10	1	-1E+10	1	-1E+10	1
4901784	176	C	04/29/2020	10:48	-132.404	43.404	0	1250.60	0	2.9700	0	37.0910	8	29.568	0	1236.913	0	15.8	4	5.0	4	-1E+10	1	-1E+10	1	-1E+10	1	-1E+10	1	-1E+10	1	-1E+10	1
4901784	176	C	04/29/2020	10:48	-132.404	43.404	0	1255.00	0	2.9530	0	37.0940	8	29.572	0	1241.252	0	16.0	4	5.0	4	-1E+10	1	-1E+10	1	-1E+10	1	-1E+10	1	-1E+10	1	-1E+10	1
4901784	176	C	04/29/2020	10:48	-132.404	43.404	0	1259.50	0	2.9450	0	37.0960	8	29.574	0	1245.689	0	16.1	4	5.1	4	-1E+10	1	-1E+10	1	-1E+10	1	-1E+10	1	-1E+10	1	-1E+10	1
4901784	176	C	04/29/2020	10:48	-132.404	43.404	0	1264.80	0	2.9420	0	37.0960	8	29.574	0	1250.915	0	16.4	4	5.1	4	-1E+10	1	-1E+10	1	-1E+10	1	-1E+10	1	-1E+10	1	-1E+10	1
4901784	176	C	04/29/2020	10:48	-132.404	43.404	0	1270.00	0	2.9190	0	37.1010	8	29.581	0	1256.043	0	16.7	4	5.3	4	-1E+10	1	-1E+10	1	-1E+10	1	-1E+10	1	-1E+10	1	-1E+10	1
4901784	176	C	04/29/2020	10:48	-132.404	43.404	0	1275.30	0	2.9060	0	37.1030	8	29.583	0	1261.269	0	16.8	4	5.3	4	-1E+10	1	-1E+10	1	-1E+10	1	-1E+10	1	-1E+10	1	-1E+10	1
4901784	176	C	04/29/2020	10:48	-132.404	43.404	0	1279.80	0	2.9020	0	37.1040	8	29.585	0	1265.706	0	16.9	4	5.3	4	-1E+10	1	-1E+10	1	-1E+10	1	-1E+10	1	-1E+10	1	-1E+10	1
4901784	176	C	04/29/2020	10:48	-132.404	43.404	0	1284.30	0	2.8980	0	37.1040	8	29.585	0	1270.142	0	17.1	4	5.4	4	-1E+10	1	-1E+10	1	-1E+10	1	-1E+10	1	-1E+10	1	-1E+10	1
4901784	176	C	04/29/2020	10:48	-132.404	43.404	0	1289.60	0	2.8860	0	37.1060	8	29.588	0	1275.368	0	17.3	4	5.4	4	-1E+10	1	-1E+10	1	-1E+10	1	-1E+10	1	-1E+10	1	-1E+10	1
4901784	176	C	04/29/2020	10:48	-132.404	43.404	0	1295.10	0	2.8700	0	37.1090	8	29.592	0	1280.791	0	17.6	4	5.5	4	-1E+10	1	-1E+10	1	-1E+10	1	-1E+10	1	-1E+10	1	-1E+10	1
4901784	176	C	04/29/2020	10:48	-132.404	43.404	0	1300.50	0	2.8620	0	37.1110	8	29.594	0	1286.114	0	17.8	4	5.6	4	-1E+10	1	-1E+10	1	-1E+10	1	-1E+10	1	-1E+10	1	-1E+10	1
4901784	176	C	04/29/2020	10:48	-132.404	43.404	0	1305.00	0	2.8590	0	37.1120	8	29.595	0	1290.551	0	17.9	4	5.6	4	-1E+10	1	-1E+10	1	-1E+10	1	-1E+10	1	-1E+10	1	-1E+10	1
4901784	176	C	04/29/2020	10:48	-132.404	43.404	0	1309.60	0	2.8530	0	37.1130	8	29.597	0	1295.086	0	18.1	4	5.7	4	-1E+10	1	-1E+10	1	-1E+10	1	-1E+10	1	-1E+10	1	-1E+10	1
4901784	176	C	04/29/2020	10:48	-132.404	43.404	0	1315.00	0	2.8450	0	37.1140	8	29.598	0	1300.409	0	18.2	4	5.7	4	-1E+10	1	-1E+10	1	-1E+10	1	-1E+10	1	-1E+10	1	-1E+10	1
4901784	176	C	04/29/2020	10:48	-132.404	43.404	0	1320.50	0	2.8380	0	37.1150	8	29.600	0	1305.831	0	18.5	4	5.8	4	-1E+10	1	-1E+10	1	-1E+10	1	-1E+10	1	-1E+10	1	-1E+10	1
4901784	176	C	04/29/2020	10:48	-132.404	43.404	0	1325.10	0	2.8250	0	37.1180	8	29.604	0	1310.366	0	18.7	4	5.9	4	-1E+10	1	-1E+10	1	-1E+10	1	-1E+10	1	-1E+10	1	-1E+10	1
4901784	176	C	04/29/2020	10:48	-132.404	43.404	0	1329.70	0	2.8180	0	37.1180	8	29.604	0	1314.900	0	18.9	4	5.9	4	-1E+10	1	-1E+10	1	-1E+10	1	-1E+10	1	-1E+10	1	-1E+10	1
4901784	176	C	04/29/2020	10:48	-132.404	43.404	0	1335.30	0	2.8100	0	37.1200	8	29.607	0	1320.421	0	19.1	4	6.0	4	-1E+10	1	-1E+10	1	-1E+10	1	-1E+10	1	-1E+10	1	-1E+10	1
4901784	176	C	04/29/2020	10:48	-132.404	43.404	0	1340.00	0	2.8050	0	37.1210	8	29.608	0	1325.053	0	19.2	4	6.0	4	-1E+10	1	-1E+10	1	-1E+10	1	-1E+10	1	-1E+10	1	-1E+10	1
4901784	176	C	04/29/2020	10:48	-132.404	43.404	0	1344.80	0	2.7900	0	37.1220	8	29.610	0	1329.785	0	19.4	4	6.1	4	-1E+10	1	-1E+10	1	-1E+10	1	-1E+10	1	-1E+10	1	-1E+10	1
4901784	176	C	04/29/2020	10:48	-132.404	43.404	0	1350.40	0	2.7770	0	37.1240	8	29.613	0	1335.304	0	19.6	4	6.2	4	-1E+10	1	-1E+10	1	-1E+10	1	-1E+10	1	-1E+10	1	-1E+10	1
4901784	176	C	04/29/2020	10:48	-132.404	43.404	0	1355.10	0	2.7700	0	37.1260	8	29.615	0	1339.937	0	19.8	4	6.2	4	-1E+10	1	-1E+10	1	-1E+10	1	-1E+10	1	-1E+10	1	-1E+10	1
4901784	176	C	04/29/2020	10:48	-132.404	43.404	0	1359.80	0	2.7630	0	37.1270	8	29.617	0	1344.569	0	19.9	4	6.2	4	-1E+10	1	-1E+10	1	-1E+10	1	-1E+10	1	-1E+10	1	-1E+10	1
4901784	176	C	04/29/2020	10:48	-132.404	43.404	0	1364.60	0	2.7600	0	37.1280	8	29.618	0	1349.300	0	20.0	4	6.3	4	-1E+10	1	-1E+10	1	-1E+10	1	-1E+10	1	-1E+10	1	-1E+10	1
4901784	176	C	04/29/2020	10:48	-132.404	43.404	0	1370.00	0	2.7560	0	37.1290	8	29.619	0	1354.622	0	20.3	4	6.3	4	-1E+10	1	-1E+10	1	-1E+10	1	-1E+10	1	-1E+10	1	-1E+10	1
4901784	176	C	04/29/2020	10:48	-132.404	43.404	0	1375.60	0	2.7480	0	37.1300	8	29.621	0	1360.141	0	20.6	4	6.4	4	-1E+10	1	-1E+10	1	-1E+10	1	-1E+10	1	-1E+10	1	-1E+10	1
4901784	176	C	04/29/2020	10:48	-132.404	43.404	0	1380.50	0	2.7340	0	37.1330	8	29.625	0	1364.971	0	20.8	4	6.5	4	-1E+10	1	-1E+10	1	-1E+10	1	-1E+10	1	-1E+10	1	-1E+10	1
4901784	176	C	04/29/2020	10:48	-132.404	43.404	0	1385.30	0	2.7270	0	37.1340	8	29.626	0	1369.701	0	21.0	4	6.6	4	-1E+10	1	-1E+10	1	-1E+10	1	-1E+10	1	-1E+10	1	-1E+10	1
4901784	176	C	04/29/2020	10:48	-132.404	43.404	0	1390.20	0	2.7220	0	37.1350	8	29.627	0	1374.530	0	21.2	4	6.6	4	-1E+10	1	-1E+10	1	-1E+10	1	-1E+10	1	-1E+10	1	-1E+10	1
4901784	176	C	04/29/2020	10:48	-132.404	43.404	0	1395.10	0	2.7120	0	37.1370	8	29.630	0	1379.359	0	21.5	4	6.7	4	-1E+10	1	-1E+10	1	-1E+10	1	-1E+10	1	-1E+10	1	-1E+10	1
4901784	176	C	04/29/2020	10:48	-132.404	43.404	0	1400.10	0	2.7060	0	37.1380	8	29.631	0	1384.286	0	21.7	4	6.8	4	-1E+10	1	-1E+10	1	-1E+10	1	-1E+10	1	-1E+10	1	-1E+10	1
4901784	176	C	04/29/2020	10:48	-132.404	43.404	0	1405.10	0	2.6960	0	37.1400	8	29.634	0	1389.213	0	22.0	4	6.9	4	-1E+10	1	-1E+10	1	-1E+10	1	-1E+10	1	-1E+10	1	-1E+10	1
4901784	176	C	04/29/2020	10:48	-132.404	43.404	0	1410.20	0	2.6860	0	37.1410	8	29.636	0	1394.238	0	22.3	4	7.0	4	-1E+10	1	-1E+10	1	-1E+10	1	-1E+10	1	-1E+10	1	-1E+10	1
4901784	176	C	04/29/2020	10:48	-132.404	43.404	0	1415.30	0	2.6720	0	37.1440	8	29.639	0	1399.264	0	22.6	4	7.1	4	-1E+10	1	-1E+10	1	-1E+10	1	-1E+10	1	-1E+10	1	-1E+10	1
4901784	176	C	04/29/2020	10:48	-132.404	43.404	0	1420.40	0	2.6670	0	37.1440	8	29.640	0	1404.289	0	22.8	4	7.1	4	-1E+10	1	-1E+10	1	-1E+10	1	-1E+10	1	-1E+10	1	-1E+10	1
4901784	176	C	04/29/2020	10:48	-132.404	43.404	0	1425.50	0	2.6530	0	37.1460	8	29.643	0	1409.314	0	23.2	4	7.2	4	-1E+10	1	-1E+10	1	-1E+10	1	-1E+10	1	-1E+10	1	-1E+10	1
4901784	176	C	04/29/2020	10:48	-132.404	43.404	0	1429.90	0	2.6440	0	37.1480	8	29.645	0	1413.649	0	23.4	4	7.3	4	-1E+10	1	-1E+10	1	-1E+10	1	-1E+10	1	-1E+10	1	-1E+10	1
4901784	176	C	04/29/2020	10:48	-132.404	43.404	0	1434.30	0	2.6370	0	37.1490	8	29.647	0	1417.985	0	23.7	4	7.4	4	-1E+10	1	-1E+10	1	-1E+10	1	-1E+10	1	-1E+10	1	-1E+10	1
4901784	176	C	04/29/2020	10:48	-132.404	43.404	0	1439.60	0	2.6280	0	37.1500	8	29.648	0	1423.206	0	23.9	4	7.5	4	-1E+10	1	-1E+10	1	-1E+10	1	-1E+10	1	-1E+10	1	-1E+10	1
4901784	176	C	04/29/2020	10:48	-132.404	43.404	0	1444.90	0	2.6170	0	37.1520	8	29.651	0	1428.428	0	24.3	4	7.6	4	-1E+10	1	-1E+10	1	-1E+10	1	-1E+10	1	-1E+10	1	-1E+10	1
4901784	176	C	04/29/2020	10:48	-132.404	43.404	0	1450.20	0	2.6100	0	37.1540	8	29.653	0	1433.650	0	24.6	4	7.7	4	-1E+10	1	-1E+10	1	-1E+10	1	-1E+10	1	-1E+10	1	-1E+10	1
4901784	176	C	04/29/2020	10:48	-132.404	43.404	0	1455.60	0	2.6000	0	37.1550	8	29.655	0	1438.970	0	25.0	4	7.8	4	-1E+10	1	-1E+10	1	-1E+10	1	-1E+10	1	-1E+10	1	-1E+10	1
4901784	176	C	04/29/2020	10:48	-132.404	43.404	0	1460.00	0	2.5910	0	37.1570	8	29.658	0	1443.305	0	25.3	4	7.9	4	-1E+10	1	-1E+10	1	-1E+10	1	-1E+10	1	-1E+10	1	-1E+10	1
4901784	176	C	04/29/2020	10:48	-132.404	43.404	0	1464.60	0	2.5800	0	37.1580	8	29.659	0	1447.836	0	25.6	4	8.0	4	-1E+10	1	-1E+10	1	-1E+10	1	-1E+10	1	-1E+10	1	-1E+10	1
4901784	176	C	04/29/2020	10:48	-132.404	43.404	0	1470.10	0	2.5710	0	37.1600	8	29.662	0	1453.254	0	25.8	4	8.1	4	-1E+10	1	-1E+10	1	-1E+10	1	-1E+10	1	-1E+10	1	-1E+10	1
4901784	176	C	04/29/2020	10:48	-132.404	43.404	0	1475.50	0	2.5660	0	37.1600	8	29.662	0	1458.574	0	26.1	4	8.1	4	-1E+10	1	-1E+10	1	-1E+10	1	-1E+10	1	-1E+10	1	-1E+10	1
4901784	176	C	04/29/2020	10:48	-132.404	43.404	0	1480.10	0	2.5570	0	37.1620	8	29.665	0	1463.105	0	26.3	4	8.2	4	-1E+10	1	-1E+10	1	-1E+10	1	-1E+10	1	-1E+10	1	-1E+10	1
4901784	176	C	04/29/2020	10:48	-132.404	43.404	0	1484.70	0	2.5460	0	37.1640	8	29.667	0	1467.636	0	26.5	4	8.3	4	-1E+10	1	-1E+10	1	-1E+10	1	-1E+10	1	-1E+10	1	-1E+10	1
4901784	176	C	04/29/2020	10:48	-132.404	43.404	0	1490.10	0	2.5420	0	37.1650	8	29.669	0	1472.955	0	26.7	4	8.3	4	-1E+10	1	-1E+10	1	-1E+10	1	-1E+10	1	-1E+10	1	-1E+10	1
4901784	176	C	04/29/2020	10:48	-132.404	43.404	0	1495.50	0	2.5390	0	37.1650	8	29.669	0	1478.274	0	26.8	4	8.4	4	-1E+10	1	-1E+10	1	-1E+10	1	-1E+10	1	-1E+10	1	-1E+10	1
4901784	176	C	04/29/2020	10:48	-132.404	43.404	0	1500.40	0	2.5360	0	37.1650	8	29.669	0	1483.101	0	27.0	4	8.4	4	-1E+10	1	-1E+10	1	-1E+10	1	-1E+10	1	-1E+10	1	-1E+10	1
4901784	176	C	04/29/2020	10:48	-132.404	43.404	0	1505.30	0	2.5250	0	37.1670	8	29.672	0	1487.927	0	27.3	4	8.5	4	-1E+10	1	-1E+10	1	-1E+10	1	-1E+10	1	-1E+10	1	-1E+10	1
4901784	176	C	04/29/2020	10:48	-132.404	43.404	0	1510.20	0	2.5160	0	37.1680	8	29.674	0	1492.753	0	27.6	4	8.6	4	-1E+10	1	-1E+10	1	-1E+10	1	-1E+10	1	-1E+10	1	-1E+10	1
4901784	176	C	04/29/2020	10:48	-132.404	43.404	0	1515.10	0	2.5040	0	37.1700	8	29.676	0	1497.579	0	27.9	4	8.7	4	-1E+10	1	-1E+10	1	-1E+10	1	-1E+10	1	-1E+10	1	-1E+10	1
4901784	176	C	04/29/2020	10:48	-132.404	43.404	0	1520.10	0	2.5000	0	37.1710	8	29.678	0	1502.504	0	28.1	4	8.8	4	-1E+10	1	-1E+10	1	-1E+10	1	-1E+10	1	-1E+10	1	-1E+10	1
4901784	176	C	04/29/2020	10:48	-132.404	43.404	0	1525.00	0	2.4970	0	37.1720	8	29.679	0	1507.330	0	28.3	4	8.8	4	-1E+10	1	-1E+10	1	-1E+10	1	-1E+10	1	-1E+10	1	-1E+10	1
4901784	176	C	04/29/2020	10:48	-132.404	43.404	0	1530.00	0	2.4900	0	37.1730	8	29.680	0	1512.254	0	28.6	4	8.9	4	-1E+10	1	-1E+10	1	-1E+10	1	-1E+10	1	-1E+10	1	-1E+10	1
4901784	176	C	04/29/2020	10:48	-132.404	43.404	0	1535.00	0	2.4830	0	37.1740	8	29.682	0	1517.178	0	28.8	4	9.0	4	-1E+10	1	-1E+10	1	-1E+10	1	-1E+10	1	-1E+10	1	-1E+10	1
4901784	176	C	04/29/2020	10:48	-132.404	43.404	0	1540.00	0	2.4790	0	37.1740	8	29.682	0	1522.102	0	29.0	4	9.0	4	-1E+10	1	-1E+10	1	-1E+10	1	-1E+10	1	-1E+10	1	-1E+10	1
4901784	176	C	04/29/2020	10:48	-132.404	43.404	0	1545.10	0	2.4750	0	37.1750	8	29.683	0	1527.124	0	29.2	4	9.1	4	-1E+10	1	-1E+10	1	-1E+10	1	-1E+10	1	-1E+10	1	-1E+10	1
4901784	176	C	04/29/2020	10:48	-132.404	43.404	0	1550.20	0	2.4600	0	37.1770	8	29.686	0	1532.146	0	29.6	4	9.2	4	-1E+10	1	-1E+10	1	-1E+10	1	-1E+10	1	-1E+10	1	-1E+10	1
4901784	176	C	04/29/2020	10:48	-132.404	43.404	0	1555.30	0	2.4530	0	37.1780	8	29.688	0	1537.168	0	29.8	4	9.3	4	-1E+10	1	-1E+10	1	-1E+10	1	-1E+10	1	-1E+10	1	-1E+10	1
4901784	176	C	04/29/2020	10:48	-132.404	43.404	0	1560.50	0	2.4460	0	37.1790	8	29.689	0	1542.289	0	30.1	4	9.4	4	-1E+10	1	-1E+10	1	-1E+10	1	-1E+10	1	-1E+10	1	-1E+10	1
4901784	176	C	04/29/2020	10:48	-132.404	43.404	0	1565.70	0	2.4360	0	37.1810	8	29.692	0	1547.409	0	30.4	4	9.5	4	-1E+10	1	-1E+10	1	-1E+10	1	-1E+10	1	-1E+10	1	-1E+10	1
4901784	176	C	04/29/2020	10:48	-132.404	43.404	0	1570.00	0	2.4280	0	37.1820	8	29.693	0	1551.643	0	30.7	4	9.5	4	-1E+10	1	-1E+10	1	-1E+10	1	-1E+10	1	-1E+10	1	-1E+10	1
4901784	176	C	04/29/2020	10:48	-132.404	43.404	0	1574.30	0	2.4230	0	37.1820	8	29.694	0	1555.877	0	30.9	4	9.6	4	-1E+10	1	-1E+10	1	-1E+10	1	-1E+10	1	-1E+10	1	-1E+10	1
4901784	176	C	04/29/2020	10:48	-132.404	43.404	0	1579.40	0	2.4150	0	37.1840	8	29.696	0	1560.899	0	31.3	4	9.7	4	-1E+10	1	-1E+10	1	-1E+10	1	-1E+10	1	-1E+10	1	-1E+10	1
4901784	176	C	04/29/2020	10:48	-132.404	43.404	0	1584.60	0	2.4110	0	37.1850	8	29.697	0	1566.018	0	31.6	4	9.8	4	-1E+10	1	-1E+10	1	-1E+10	1	-1E+10	1	-1E+10	1	-1E+10	1
4901784	176	C	04/29/2020	10:48	-132.404	43.404	0	1589.70	0	2.4010	0	37.1870	8	29.700	0	1571.040	0	31.9	4	9.9	4	-1E+10	1	-1E+10	1	-1E+10	1	-1E+10	1	-1E+10	1	-1E+10	1
4901784	176	C	04/29/2020	10:48	-132.404	43.404	0	1594.80	0	2.3940	0	37.1880	8	29.701	0	1576.061	0	32.2	4	10.0	4	-1E+10	1	-1E+10	1	-1E+10	1	-1E+10	1	-1E+10	1	-1E+10	1
4901784	176	C	04/29/2020	10:48	-132.404	43.404	0	1599.90	0	2.3890	0	37.1880	8	29.702	0	1581.082	0	32.6	4	10.1	4	-1E+10	1	-1E+10	1	-1E+10	1	-1E+10	1	-1E+10	1	-1E+10	1
4901784	176	C	04/29/2020	10:48	-132.404	43.404	0	1605.10	0	2.3770	0	37.1900	8	29.704	0	1586.201	0	33.0	4	10.3	4	-1E+10	1	-1E+10	1	-1E+10	1	-1E+10	1	-1E+10	1	-1E+10	1
4901784	176	C	04/29/2020	10:48	-132.404	43.404	0	1610.30	0	2.3690	0	37.1920	8	29.707	0	1591.321	0	33.4	4	10.4	4	-1E+10	1	-1E+10	1	-1E+10	1	-1E+10	1	-1E+10	1	-1E+10	1
4901784	176	C	04/29/2020	10:48	-132.404	43.404	0	1615.60	0	2.3620	0	37.1920	8	29.707	0	1596.538	0	33.8	4	10.5	4	-1E+10	1	-1E+10	1	-1E+10	1	-1E+10	1	-1E+10	1	-1E+10	1
4901784	176	C	04/29/2020	10:48	-132.404	43.404	0	1619.90	0	2.3520	0	37.1940	8	29.710	0	1600.771	0	34.0	4	10.6	4	-1E+10	1	-1E+10	1	-1E+10	1	-1E+10	1	-1E+10	1	-1E+10	1
4901784	176	C	04/29/2020	10:48	-132.404	43.404	0	1624.20	0	2.3470	0	37.1950	8	29.711	0	1605.004	0	34.3	4	10.6	4	-1E+10	1	-1E+10	1	-1E+10	1	-1E+10	1	-1E+10	1	-1E+10	1
4901784	176	C	04/29/2020	10:48	-132.404	43.404	0	1629.50	0	2.3390	0	37.1960	8	29.713	0	1610.221	0	34.6	4	10.7	4	-1E+10	1	-1E+10	1	-1E+10	1	-1E+10	1	-1E+10	1	-1E+10	1
4901784	176	C	04/29/2020	10:48	-132.404	43.404	0	1634.70	0	2.3300	0	37.1970	8	29.714	0	1615.340	0	35.1	4	10.9	4	-1E+10	1	-1E+10	1	-1E+10	1	-1E+10	1	-1E+10	1	-1E+10	1
4901784	176	C	04/29/2020	10:48	-132.404	43.404	0	1640.00	0	2.3220	0	37.1990	8	29.717	0	1620.557	0	35.5	4	11.0	4	-1E+10	1	-1E+10	1	-1E+10	1	-1E+10	1	-1E+10	1	-1E+10	1
4901784	176	C	04/29/2020	10:48	-132.404	43.404	0	1645.20	0	2.3140	0	37.2000	8	29.718	0	1625.675	0	35.9	4	11.1	4	-1E+10	1	-1E+10	1	-1E+10	1	-1E+10	1	-1E+10	1	-1E+10	1
4901784	176	C	04/29/2020	10:48	-132.404	43.404	0	1650.50	0	2.3110	0	37.2020	8	29.720	0	1630.892	0	36.3	4	11.2	4	-1E+10	1	-1E+10	1	-1E+10	1	-1E+10	1	-1E+10	1	-1E+10	1
4901784	176	C	04/29/2020	10:48	-132.404	43.404	0	1654.90	0	2.3070	0	37.2040	8	29.722	0	1635.223	0	36.6	4	11.3	4	-1E+10	1	-1E+10	1	-1E+10	1	-1E+10	1	-1E+10	1	-1E+10	1
4901784	176	C	04/29/2020	10:48	-132.404	43.404	0	1659.30	0	2.3000	0	37.2040	8	29.723	0	1639.553	0	36.7	4	11.4	4	-1E+10	1	-1E+10	1	-1E+10	1	-1E+10	1	-1E+10	1	-1E+10	1
4901784	176	C	04/29/2020	10:48	-132.404	43.404	0	1664.50	0	2.2950	0	37.2040	8	29.723	0	1644.671	0	36.9	4	11.4	4	-1E+10	1	-1E+10	1	-1E+10	1	-1E+10	1	-1E+10	1	-1E+10	1
4901784	176	C	04/29/2020	10:48	-132.404	43.404	0	1669.80	0	2.2910	0	37.2050	8	29.725	0	1649.888	0	37.4	4	11.6	4	-1E+10	1	-1E+10	1	-1E+10	1	-1E+10	1	-1E+10	1	-1E+10	1
4901784	176	C	04/29/2020	10:48	-132.404	43.404	0	1675.20	0	2.2840	0	37.2070	8	29.727	0	1655.202	0	37.8	4	11.7	4	-1E+10	1	-1E+10	1	-1E+10	1	-1E+10	1	-1E+10	1	-1E+10	1
4901784	176	C	04/29/2020	10:48	-132.404	43.404	0	1680.60	0	2.2760	0	37.2080	8	29.728	0	1660.517	0	38.2	4	11.8	4	-1E+10	1	-1E+10	1	-1E+10	1	-1E+10	1	-1E+10	1	-1E+10	1
4901784	176	C	04/29/2020	10:48	-132.404	43.404	0	1685.00	0	2.2690	0	37.2090	8	29.730	0	1664.847	0	38.4	4	11.9	4	-1E+10	1	-1E+10	1	-1E+10	1	-1E+10	1	-1E+10	1	-1E+10	1
4901784	176	C	04/29/2020	10:48	-132.404	43.404	0	1689.50	0	2.2630	0	37.2100	8	29.731	0	1669.275	0	38.7	4	12.0	4	-1E+10	1	-1E+10	1	-1E+10	1	-1E+10	1	-1E+10	1	-1E+10	1
4901784	176	C	04/29/2020	10:48	-132.404	43.404	0	1694.90	0	2.2540	0	37.2110	8	29.733	0	1674.589	0	39.1	4	12.1	4	-1E+10	1	-1E+10	1	-1E+10	1	-1E+10	1	-1E+10	1	-1E+10	1
4901784	176	C	04/29/2020	10:48	-132.404	43.404	0	1700.30	0	2.2430	0	37.2130	8	29.735	0	1679.903	0	39.5	4	12.2	4	-1E+10	1	-1E+10	1	-1E+10	1	-1E+10	1	-1E+10	1	-1E+10	1
4901784	176	C	04/29/2020	10:48	-132.404	43.404	0	1705.70	0	2.2400	0	37.2140	8	29.736	0	1685.217	0	39.7	4	12.3	4	-1E+10	1	-1E+10	1	-1E+10	1	-1E+10	1	-1E+10	1	-1E+10	1
4901784	176	C	04/29/2020	10:48	-132.404	43.404	0	1710.20	0	2.2370	0	37.2140	8	29.737	0	1689.645	0	39.9	4	12.3	4	-1E+10	1	-1E+10	1	-1E+10	1	-1E+10	1	-1E+10	1	-1E+10	1
4901784	176	C	04/29/2020	10:48	-132.404	43.404	0	1714.70	0	2.2310	0	37.2150	8	29.738	0	1694.073	0	40.1	4	12.4	4	-1E+10	1	-1E+10	1	-1E+10	1	-1E+10	1	-1E+10	1	-1E+10	1
4901784	176	C	04/29/2020	10:48	-132.404	43.404	0	1720.20	0	2.2290	0	37.2160	8	29.739	0	1699.485	0	40.4	4	12.5	4	-1E+10	1	-1E+10	1	-1E+10	1	-1E+10	1	-1E+10	1	-1E+10	1
4901784	176	C	04/29/2020	10:48	-132.404	43.404	0	1724.70	0	2.2210	0	37.2170	8	29.741	0	1703.912	0	40.8	4	12.6	4	-1E+10	1	-1E+10	1	-1E+10	1	-1E+10	1	-1E+10	1	-1E+10	1
4901784	176	C	04/29/2020	10:48	-132.404	43.404	0	1729.30	0	2.2140	0	37.2180	8	29.742	0	1708.439	0	41.1	4	12.7	4	-1E+10	1	-1E+10	1	-1E+10	1	-1E+10	1	-1E+10	1	-1E+10	1
4901784	176	C	04/29/2020	10:48	-132.404	43.404	0	1734.80	0	2.2090	0	37.2190	8	29.743	0	1713.850	0	41.4	4	12.8	4	-1E+10	1	-1E+10	1	-1E+10	1	-1E+10	1	-1E+10	1	-1E+10	1
4901784	176	C	04/29/2020	10:48	-132.404	43.404	0	1740.30	0	2.2050	0	37.2200	8	29.745	0	1719.261	0	41.8	4	12.9	4	-1E+10	1	-1E+10	1	-1E+10	1	-1E+10	1	-1E+10	1	-1E+10	1
4901784	176	C	04/29/2020	10:48	-132.404	43.404	0	1744.80	0	2.1950	0	37.2210	8	29.746	0	1723.689	0	42.2	4	13.1	4	-1E+10	1	-1E+10	1	-1E+10	1	-1E+10	1	-1E+10	1	-1E+10	1
4901784	176	C	04/29/2020	10:48	-132.404	43.404	0	1749.70	0	2.1880	0	37.2230	8	29.749	0	1728.509	0	42.5	4	13.1	4	-1E+10	1	-1E+10	1	-1E+10	1	-1E+10	1	-1E+10	1	-1E+10	1
4901784	176	C	04/29/2020	10:48	-132.404	43.404	0	1755.00	0	2.1840	0	37.2230	8	29.749	0	1733.724	0	42.7	4	13.2	4	-1E+10	1	-1E+10	1	-1E+10	1	-1E+10	1	-1E+10	1	-1E+10	1
4901784	176	C	04/29/2020	10:48	-132.404	43.404	0	1759.80	0	2.1780	0	37.2240	8	29.750	0	1738.446	0	43.1	4	13.3	4	-1E+10	1	-1E+10	1	-1E+10	1	-1E+10	1	-1E+10	1	-1E+10	1
4901784	176	C	04/29/2020	10:48	-132.404	43.404	0	1764.70	0	2.1690	0	37.2250	8	29.752	0	1743.266	0	43.4	4	13.4	4	-1E+10	1	-1E+10	1	-1E+10	1	-1E+10	1	-1E+10	1	-1E+10	1
4901784	176	C	04/29/2020	10:48	-132.404	43.404	0	1769.60	0	2.1590	0	37.2260	8	29.754	0	1748.086	0	43.7	4	13.5	4	-1E+10	1	-1E+10	1	-1E+10	1	-1E+10	1	-1E+10	1	-1E+10	1
4901784	176	C	04/29/2020	10:48	-132.404	43.404	0	1774.50	0	2.1490	0	37.2270	8	29.755	0	1752.907	0	44.0	4	13.6	4	-1E+10	1	-1E+10	1	-1E+10	1	-1E+10	1	-1E+10	1	-1E+10	1
4901784	176	C	04/29/2020	10:48	-132.404	43.404	0	1779.60	0	2.1430	0	37.2280	8	29.757	0	1757.924	0	44.3	4	13.7	4	-1E+10	1	-1E+10	1	-1E+10	1	-1E+10	1	-1E+10	1	-1E+10	1
4901784	176	C	04/29/2020	10:48	-132.404	43.404	0	1784.60	0	2.1400	0	37.2280	8	29.757	0	1762.842	0	44.5	4	13.8	4	-1E+10	1	-1E+10	1	-1E+10	1	-1E+10	1	-1E+10	1	-1E+10	1
4901784	176	C	04/29/2020	10:48	-132.404	43.404	0	1789.70	0	2.1340	0	37.2300	8	29.759	0	1767.858	0	44.8	4	13.8	4	-1E+10	1	-1E+10	1	-1E+10	1	-1E+10	1	-1E+10	1	-1E+10	1
4901784	176	C	04/29/2020	10:48	-132.404	43.404	0	1794.80	0	2.1280	0	37.2300	8	29.760	0	1772.875	0	45.2	4	13.9	4	-1E+10	1	-1E+10	1	-1E+10	1	-1E+10	1	-1E+10	1	-1E+10	1
4901784	176	C	04/29/2020	10:48	-132.404	43.404	0	1799.80	0	2.1220	0	37.2310	8	29.761	0	1777.793	0	45.5	4	14.0	4	-1E+10	1	-1E+10	1	-1E+10	1	-1E+10	1	-1E+10	1	-1E+10	1
4901784	176	C	04/29/2020	10:48	-132.404	43.404	0	1804.80	0	2.1170	0	37.2330	8	29.763	0	1782.711	0	45.9	4	14.2	4	-1E+10	1	-1E+10	1	-1E+10	1	-1E+10	1	-1E+10	1	-1E+10	1
4901784	176	C	04/29/2020	10:48	-132.404	43.404	0	1809.90	0	2.1100	0	37.2340	8	29.765	0	1787.727	0	46.2	4	14.3	4	-1E+10	1	-1E+10	1	-1E+10	1	-1E+10	1	-1E+10	1	-1E+10	1
4901784	176	C	04/29/2020	10:48	-132.404	43.404	0	1815.00	0	2.1070	0	37.2350	8	29.766	0	1792.743	0	46.4	4	14.3	4	-1E+10	1	-1E+10	1	-1E+10	1	-1E+10	1	-1E+10	1	-1E+10	1
4901784	176	C	04/29/2020	10:48	-132.404	43.404	0	1820.10	0	2.1040	0	37.2350	8	29.766	0	1797.759	0	46.6	4	14.4	4	-1E+10	1	-1E+10	1	-1E+10	1	-1E+10	1	-1E+10	1	-1E+10	1
4901784	176	C	04/29/2020	10:48	-132.404	43.404	0	1825.30	0	2.1010	0	37.2360	8	29.767	0	1802.873	0	46.8	4	14.4	4	-1E+10	1	-1E+10	1	-1E+10	1	-1E+10	1	-1E+10	1	-1E+10	1
4901784	176	C	04/29/2020	10:48	-132.404	43.404	0	1830.40	0	2.0950	0	37.2370	8	29.768	0	1807.889	0	47.1	4	14.5	4	-1E+10	1	-1E+10	1	-1E+10	1	-1E+10	1	-1E+10	1	-1E+10	1
4901784	176	C	04/29/2020	10:48	-132.404	43.404	0	1835.60	0	2.0900	0	37.2380	8	29.770	0	1813.003	0	47.4	4	14.6	4	-1E+10	1	-1E+10	1	-1E+10	1	-1E+10	1	-1E+10	1	-1E+10	1
4901784	176	C	04/29/2020	10:48	-132.404	43.404	0	1839.90	0	2.0880	0	37.2380	8	29.770	0	1817.231	0	47.6	4	14.7	4	-1E+10	1	-1E+10	1	-1E+10	1	-1E+10	1	-1E+10	1	-1E+10	1
4901784	176	C	04/29/2020	10:48	-132.404	43.404	0	1844.20	0	2.0850	0	37.2390	8	29.771	0	1821.460	0	47.9	4	14.8	4	-1E+10	1	-1E+10	1	-1E+10	1	-1E+10	1	-1E+10	1	-1E+10	1
4901784	176	C	04/29/2020	10:48	-132.404	43.404	0	1849.50	0	2.0820	0	37.2400	8	29.772	0	1826.672	0	48.2	4	14.9	4	-1E+10	1	-1E+10	1	-1E+10	1	-1E+10	1	-1E+10	1	-1E+10	1
4901784	176	C	04/29/2020	10:48	-132.404	43.404	0	1854.70	0	2.0790	0	37.2410	8	29.773	0	1831.785	0	48.4	4	14.9	4	-1E+10	1	-1E+10	1	-1E+10	1	-1E+10	1	-1E+10	1	-1E+10	1
4901784	176	C	04/29/2020	10:48	-132.404	43.404	0	1859.90	0	2.0710	0	37.2410	8	29.774	0	1836.899	0	48.8	4	15.0	4	-1E+10	1	-1E+10	1	-1E+10	1	-1E+10	1	-1E+10	1	-1E+10	1
4901784	176	C	04/29/2020	10:48	-132.404	43.404	0	1865.20	0	2.0610	0	37.2420	8	29.776	0	1842.110	0	49.2	4	15.2	4	-1E+10	1	-1E+10	1	-1E+10	1	-1E+10	1	-1E+10	1	-1E+10	1
4901784	176	C	04/29/2020	10:48	-132.404	43.404	0	1870.60	0	2.0530	0	37.2430	8	29.777	0	1847.420	0	49.6	4	15.3	4	-1E+10	1	-1E+10	1	-1E+10	1	-1E+10	1	-1E+10	1	-1E+10	1
4901784	176	C	04/29/2020	10:48	-132.404	43.404	0	1875.00	0	2.0500	0	37.2440	8	29.778	0	1851.746	0	49.9	4	15.4	4	-1E+10	1	-1E+10	1	-1E+10	1	-1E+10	1	-1E+10	1	-1E+10	1
4901784	176	C	04/29/2020	10:48	-132.404	43.404	0	1879.50	0	2.0440	0	37.2450	8	29.779	0	1856.171	0	50.3	4	15.5	4	-1E+10	1	-1E+10	1	-1E+10	1	-1E+10	1	-1E+10	1	-1E+10	1
4901784	176	C	04/29/2020	10:48	-132.404	43.404	0	1885.00	0	2.0400	0	37.2460	8	29.781	0	1861.578	0	50.5	4	15.6	4	-1E+10	1	-1E+10	1	-1E+10	1	-1E+10	1	-1E+10	1	-1E+10	1
4901784	176	C	04/29/2020	10:48	-132.404	43.404	0	1890.50	0	2.0320	0	37.2470	8	29.782	0	1866.986	0	50.8	4	15.6	4	-1E+10	1	-1E+10	1	-1E+10	1	-1E+10	1	-1E+10	1	-1E+10	1
4901784	176	C	04/29/2020	10:48	-132.404	43.404	0	1895.10	0	2.0290	0	37.2480	8	29.783	0	1871.508	0	51.0	4	15.7	4	-1E+10	1	-1E+10	1	-1E+10	1	-1E+10	1	-1E+10	1	-1E+10	1
4901784	176	C	04/29/2020	10:48	-132.404	43.404	0	1899.80	0	2.0270	0	37.2480	8	29.783	0	1876.129	0	51.2	4	15.8	4	-1E+10	1	-1E+10	1	-1E+10	1	-1E+10	1	-1E+10	1	-1E+10	1
4901784	176	C	04/29/2020	10:48	-132.404	43.404	0	1904.90	0	2.0240	0	37.2490	8	29.785	0	1881.143	0	51.5	4	15.8	4	-1E+10	1	-1E+10	1	-1E+10	1	-1E+10	1	-1E+10	1	-1E+10	1
4901784	176	C	04/29/2020	10:48	-132.404	43.404	0	1910.00	0	2.0210	0	37.2500	8	29.786	0	1886.157	0	51.9	4	16.0	4	-1E+10	1	-1E+10	1	-1E+10	1	-1E+10	1	-1E+10	1	-1E+10	1
4901784	176	C	04/29/2020	10:48	-132.404	43.404	0	1915.70	0	2.0150	0	37.2510	8	29.787	0	1891.760	0	52.3	4	16.1	4	-1E+10	1	-1E+10	1	-1E+10	1	-1E+10	1	-1E+10	1	-1E+10	1
4901784	176	C	04/29/2020	10:48	-132.404	43.404	0	1920.60	0	2.0090	0	37.2520	8	29.788	0	1896.577	0	52.6	4	16.2	4	-1E+10	1	-1E+10	1	-1E+10	1	-1E+10	1	-1E+10	1	-1E+10	1
4901784	176	C	04/29/2020	10:48	-132.404	43.404	0	1925.60	0	2.0050	0	37.2530	8	29.790	0	1901.493	0	52.7	4	16.2	4	-1E+10	1	-1E+10	1	-1E+10	1	-1E+10	1	-1E+10	1	-1E+10	1
4901784	176	C	04/29/2020	10:48	-132.404	43.404	0	1930.60	0	2.0010	0	37.2530	8	29.790	0	1906.408	0	52.9	4	16.3	4	-1E+10	1	-1E+10	1	-1E+10	1	-1E+10	1	-1E+10	1	-1E+10	1
4901784	176	C	04/29/2020	10:48	-132.404	43.404	0	1935.60	0	1.9980	0	37.2530	8	29.790	0	1911.323	0	53.2	4	16.4	4	-1E+10	1	-1E+10	1	-1E+10	1	-1E+10	1	-1E+10	1	-1E+10	1
4901784	176	C	04/29/2020	10:48	-132.404	43.404	0	1940.70	0	1.9930	0	37.2540	8	29.791	0	1916.336	0	53.4	4	16.4	4	-1E+10	1	-1E+10	1	-1E+10	1	-1E+10	1	-1E+10	1	-1E+10	1
4901784	176	C	04/29/2020	10:48	-132.404	43.404	0	1945.70	0	1.9900	0	37.2550	8	29.793	0	1921.250	0	53.7	4	16.5	4	-1E+10	1	-1E+10	1	-1E+10	1	-1E+10	1	-1E+10	1	-1E+10	1
4901784	176	C	04/29/2020	10:48	-132.404	43.404	0	1949.90	0	1.9880	0	37.2560	8	29.794	0	1925.379	0	54.0	4	16.6	4	-1E+10	1	-1E+10	1	-1E+10	1	-1E+10	1	-1E+10	1	-1E+10	1
4901784	176	C	04/29/2020	10:48	-132.404	43.404	0	1954.20	0	1.9830	0	37.2560	8	29.794	0	1929.605	0	54.3	4	16.7	4	-1E+10	1	-1E+10	1	-1E+10	1	-1E+10	1	-1E+10	1	-1E+10	1
4901784	176	C	04/29/2020	10:48	-132.404	43.404	0	1959.30	0	1.9790	0	37.2570	8	29.795	0	1934.618	0	54.6	4	16.8	4	-1E+10	1	-1E+10	1	-1E+10	1	-1E+10	1	-1E+10	1	-1E+10	1
4901784	176	C	04/29/2020	10:48	-132.404	43.404	0	1964.50	0	1.9800	0	37.2580	8	29.796	0	1939.729	0	55.0	4	16.9	4	-1E+10	1	-1E+10	1	-1E+10	1	-1E+10	1	-1E+10	1	-1E+10	1
4901784	176	C	04/29/2020	10:48	-132.404	43.404	0	1969.70	0	1.9770	0	37.2590	8	29.797	0	1944.839	0	55.2	4	17.0	4	-1E+10	1	-1E+10	1	-1E+10	1	-1E+10	1	-1E+10	1	-1E+10	1
4901784	176	C	04/29/2020	10:48	-132.404	43.404	0	1974.80	0	1.9700	0	37.2590	8	29.798	0	1949.852	0	55.5	4	17.1	4	-1E+10	1	-1E+10	1	-1E+10	1	-1E+10	1	-1E+10	1	-1E+10	1
4901784	176	C	04/29/2020	10:48	-132.404	43.404	0	1980.00	0	1.9670	0	37.2600	8	29.799	0	1954.962	0	55.7	4	17.1	4	-1E+10	1	-1E+10	1	-1E+10	1	-1E+10	1	-1E+10	1	-1E+10	1
4901784	176	C	04/29/2020	10:48	-132.404	43.404	0	1985.30	0	1.9650	0	37.2600	8	29.799	0	1960.171	0	55.8	4	17.2	4	-1E+10	1	-1E+10	1	-1E+10	1	-1E+10	1	-1E+10	1	-1E+10	1
4901784	176	C	04/29/2020	10:48	-132.404	43.404	0	1990.50	0	1.9610	0	37.2610	8	29.800	0	1965.281	0	56.1	4	17.3	4	-1E+10	1	-1E+10	1	-1E+10	1	-1E+10	1	-1E+10	1	-1E+10	1
4901784	176	C	04/29/2020	10:48	-132.404	43.404	0	1994.90	0	1.9590	0	37.2620	8	29.801	0	1969.605	0	56.3	4	17.3	4	-1E+10	1	-1E+10	1	-1E+10	1	-1E+10	1	-1E+10	1	-1E+10	1
4901784	176	C	04/29/2020	10:48	-132.404	43.404	0	1999.20	0	1.9560	0	37.2620	8	29.801	0	1973.830	0	56.5	4	17.4	4	-1E+10	1	-1E+10	1	-1E+10	1	-1E+10	1	-1E+10	1	-1E+10	1
4901784	176	C	04/29/2020	10:48	-132.404	43.404	0	2005.10	0	1.9530	0	37.2630	8	29.802	0	1979.628	0	56.7	4	17.4	4	-1E+10	1	-1E+10	1	-1E+10	1	-1E+10	1	-1E+10	1	-1E+10	1
4901784	176	C	04/29/2020	10:48	-132.404	43.404	0	2009.80	0	1.9500	0	37.2640	8	29.804	0	1984.247	0	56.9	4	17.5	4	-1E+10	1	-1E+10	1	-1E+10	1	-1E+10	1	-1E+10	1	-1E+10	1
4901784	176	C	04/29/2020	10:48	-132.404	43.404	0	2015.00	0	1.9480	0	37.2640	8	29.804	0	1989.356	0	57.1	4	17.6	4	-1E+10	1	-1E+10	1	-1E+10	1	-1E+10	1	-1E+10	1	-1E+10	1
4901784	176	C	04/29/2020	10:48	-132.404	43.404	0	2019.60	0	1.9450	0	37.2650	8	29.805	0	1993.876	0	55.9	4	17.2	4	-1E+10	1	-1E+10	1	-1E+10	1	-1E+10	1	-1E+10	1	-1E+10	1
4901784	176	C	04/29/2020	10:48	-132.404	43.404	0																										
4901784	177	C	05/09/2020	10:39	-132.343	43.372	0	2.50	0	12.3610	0	34.8650	8	26.415	0	2.480	0	259.0	4	99.0	4	-1E+10	1	-1E+10	1	-1E+10	1	-1E+10	1	-1E+10	1	-1E+10	1
4901784	177	C	05/09/2020	10:39	-132.343	43.372	0	3.50	0	12.3610	0	34.8660	8	26.416	0	3.472	0	259.0	4	99.0	4	-1E+10	1	-1E+10	1	-1E+10	1	-1E+10	1	-1E+10	1	-1E+10	1
4901784	177	C	05/09/2020	10:39	-132.343	43.372	0	4.90	0	12.3670	0	34.8650	8	26.414	0	4.861	0	258.9	4	99.0	4	-1E+10	1	-1E+10	1	-1E+10	1	-1E+10	1	-1E+10	1	-1E+10	1
4901784	177	C	05/09/2020	10:39	-132.343	43.372	0	6.30	0	12.3670	0	34.8670	8	26.416	0	6.250	0	258.9	4	99.0	4	-1E+10	1	-1E+10	1	-1E+10	1	-1E+10	1	-1E+10	1	-1E+10	1
4901784	177	C	05/09/2020	10:39	-132.343	43.372	0	7.70	0	12.3650	0	34.8670	8	26.416	0	7.639	0	258.9	4	99.0	4	-1E+10	1	-1E+10	1	-1E+10	1	-1E+10	1	-1E+10	1	-1E+10	1
4901784	177	C	05/09/2020	10:39	-132.343	43.372	0	9.10	0	12.3660	0	34.8660	8	26.415	0	9.027	0	258.7	4	98.9	4	-1E+10	1	-1E+10	1	-1E+10	1	-1E+10	1	-1E+10	1	-1E+10	1
4901784	177	C	05/09/2020	10:39	-132.343	43.372	0	10.60	0	12.3580	0	34.8680	8	26.418	0	10.515	0	258.6	4	98.9	4	-1E+10	1	-1E+10	1	-1E+10	1	-1E+10	1	-1E+10	1	-1E+10	1
4901784	177	C	05/09/2020	10:39	-132.343	43.372	0	12.10	0	12.3570	0	34.8680	8	26.419	0	12.003	0	258.5	4	98.8	4	-1E+10	1	-1E+10	1	-1E+10	1	-1E+10	1	-1E+10	1	-1E+10	1
4901784	177	C	05/09/2020	10:39	-132.343	43.372	0	13.50	0	12.3290	0	34.8710	8	26.426	0	13.392	0	258.5	4	98.8	4	-1E+10	1	-1E+10	1	-1E+10	1	-1E+10	1	-1E+10	1	-1E+10	1
4901784	177	C	05/09/2020	10:39	-132.343	43.372	0	15.10	0	12.3320	0	34.8690	8	26.424	0	14.979	0	258.4	4	98.7	4	-1E+10	1	-1E+10	1	-1E+10	1	-1E+10	1	-1E+10	1	-1E+10	1
4901784	177	C	05/09/2020	10:39	-132.343	43.372	0	16.70	0	12.2580	0	34.8770	8	26.445	0	16.566	0	258.6	4	98.7	4	-1E+10	1	-1E+10	1	-1E+10	1	-1E+10	1	-1E+10	1	-1E+10	1
4901784	177	C	05/09/2020	10:39	-132.343	43.372	0	18.30	0	12.2440	0	34.8770	8	26.448	0	18.153	0	258.5	4	98.6	4	-1E+10	1	-1E+10	1	-1E+10	1	-1E+10	1	-1E+10	1	-1E+10	1
4901784	177	C	05/09/2020	10:39	-132.343	43.372	0	20.00	0	12.2190	0	34.8790	8	26.454	0	19.840	0	258.7	4	98.6	4	-1E+10	1	-1E+10	1	-1E+10	1	-1E+10	1	-1E+10	1	-1E+10	1
4901784	177	C	05/09/2020	10:39	-132.343	43.372	0	21.70	0	12.2070	0	34.8790	8	26.456	0	21.526	0	258.8	4	98.6	4	-1E+10	1	-1E+10	1	-1E+10	1	-1E+10	1	-1E+10	1	-1E+10	1
4901784	177	C	05/09/2020	10:39	-132.343	43.372	0	23.40	0	12.1990	0	34.8780	8	26.457	0	23.212	0	258.8	4	98.6	4	-1E+10	1	-1E+10	1	-1E+10	1	-1E+10	1	-1E+10	1	-1E+10	1
4901784	177	C	05/09/2020	10:39	-132.343	43.372	0	25.10	0	12.1830	0	34.8780	8	26.460	0	24.898	0	258.7	4	98.6	4	-1E+10	1	-1E+10	1	-1E+10	1	-1E+10	1	-1E+10	1	-1E+10	1
4901784	177	C	05/09/2020	10:39	-132.343	43.372	0	26.80	0	12.1710	0	34.8770	8	26.462	0	26.585	0	258.8	4	98.6	4	-1E+10	1	-1E+10	1	-1E+10	1	-1E+10	1	-1E+10	1	-1E+10	1
4901784	177	C	05/09/2020	10:39	-132.343	43.372	0	28.50	0	12.1560	0	34.8750	8	26.463	0	28.271	0	258.6	4	98.5	4	-1E+10	1	-1E+10	1	-1E+10	1	-1E+10	1	-1E+10	1	-1E+10	1
4901784	177	C	05/09/2020	10:39	-132.343	43.372	0	30.10	0	12.1290	0	34.8740	8	26.468	0	29.858	0	258.6	4	98.4	4	-1E+10	1	-1E+10	1	-1E+10	1	-1E+10	1	-1E+10	1	-1E+10	1
4901784	177	C	05/09/2020	10:39	-132.343	43.372	0	31.70	0	12.0750	0	34.8780	8	26.481	0	31.445	0	258.7	4	98.4	4	-1E+10	1	-1E+10	1	-1E+10	1	-1E+10	1	-1E+10	1	-1E+10	1
4901784	177	C	05/09/2020	10:39	-132.343	43.372	0	33.40	0	12.0650	0	34.8440	8	26.457	0	33.131	0	259.0	4	98.4	4	-1E+10	1	-1E+10	1	-1E+10	1	-1E+10	1	-1E+10	1	-1E+10	1
4901784	177	C	05/09/2020	10:39	-132.343	43.372	0	35.10	0	12.0560	0	34.8700	8	26.479	0	34.817	0	259.1	4	98.4	4	-1E+10	1	-1E+10	1	-1E+10	1	-1E+10	1	-1E+10	1	-1E+10	1
4901784	177	C	05/09/2020	10:39	-132.343	43.372	0	36.70	0	12.0160	0	34.8650	8	26.483	0	36.404	0	259.1	4	98.3	4	-1E+10	1	-1E+10	1	-1E+10	1	-1E+10	1	-1E+10	1	-1E+10	1
4901784	177	C	05/09/2020	10:39	-132.343	43.372	0	38.20	0	11.8750	0	34.8650	8	26.510	0	37.892	0	260.0	4	98.4	4	-1E+10	1	-1E+10	1	-1E+10	1	-1E+10	1	-1E+10	1	-1E+10	1
4901784	177	C	05/09/2020	10:39	-132.343	43.372	0	39.80	0	11.5740	0	34.8880	8	26.584	0	39.479	0	261.1	4	98.2	4	-1E+10	1	-1E+10	1	-1E+10	1	-1E+10	1	-1E+10	1	-1E+10	1
4901784	177	C	05/09/2020	10:39	-132.343	43.372	0	41.40	0	11.4150	0	34.8930	8	26.618	0	41.066	0	262.1	4	98.3	4	-1E+10	1	-1E+10	1	-1E+10	1	-1E+10	1	-1E+10	1	-1E+10	1
4901784	177	C	05/09/2020	10:39	-132.343	43.372	0	43.00	0	11.3010	0	34.9090	8	26.651	0	42.653	0	261.9	4	98.0	4	-1E+10	1	-1E+10	1	-1E+10	1	-1E+10	1	-1E+10	1	-1E+10	1
4901784	177	C	05/09/2020	10:39	-132.343	43.372	0	44.70	0	11.2080	0	34.9060	8	26.666	0	44.339	0	262.2	4	97.9	4	-1E+10	1	-1E+10	1	-1E+10	1	-1E+10	1	-1E+10	1	-1E+10	1
4901784	177	C	05/09/2020	10:39	-132.343	43.372	0	46.30	0	11.1740	0	34.9010	8	26.668	0	45.926	0	262.1	4	97.8	4	-1E+10	1	-1E+10	1	-1E+10	1	-1E+10	1	-1E+10	1	-1E+10	1
4901784	177	C	05/09/2020	10:39	-132.343	43.372	0	48.00	0	11.1270	0	34.8960	8	26.673	0	47.612	0	261.5	4	97.5	4	-1E+10	1	-1E+10	1	-1E+10	1	-1E+10	1	-1E+10	1	-1E+10	1
4901784	177	C	05/09/2020	10:39	-132.343	43.372	0	49.70	0	10.9130	0	34.9100	8	26.723	0	49.298	0	262.3	4	97.3	4	-1E+10	1	-1E+10	1	-1E+10	1	-1E+10	1	-1E+10	1	-1E+10	1
4901784	177	C	05/09/2020	10:39	-132.343	43.372	0	51.40	0	10.9050	0	34.9050	8	26.720	0	50.984	0	261.7	4	97.1	4	-1E+10	1	-1E+10	1	-1E+10	1	-1E+10	1	-1E+10	1	-1E+10	1
4901784	177	C	05/09/2020	10:39	-132.343	43.372	0	53.00	0	10.7280	0	34.9100	8	26.756	0	52.571	0	261.5	4	96.7	4	-1E+10	1	-1E+10	1	-1E+10	1	-1E+10	1	-1E+10	1	-1E+10	1
4901784	177	C	05/09/2020	10:39	-132.343	43.372	0	54.80	0	10.6770	0	34.9060	8	26.762	0	54.356	0	261.8	4	96.7	4	-1E+10	1	-1E+10	1	-1E+10	1	-1E+10	1	-1E+10	1	-1E+10	1
4901784	177	C	05/09/2020	10:39	-132.343	43.372	0	56.40	0	10.6650	0	34.9040	8	26.763	0	55.943	0	261.7	4	96.6	4	-1E+10	1	-1E+10	1	-1E+10	1	-1E+10	1	-1E+10	1	-1E+10	1
4901784	177	C	05/09/2020	10:39	-132.343	43.372	0	58.20	0	10.6570	0	34.9040	8	26.764	0	57.728	0	261.7	4	96.6	4	-1E+10	1	-1E+10	1	-1E+10	1	-1E+10	1	-1E+10	1	-1E+10	1
4901784	177	C	05/09/2020	10:39	-132.343	43.372	0	59.90	0	10.6440	0	34.9040	8	26.766	0	59.414	0	261.5	4	96.5	4	-1E+10	1	-1E+10	1	-1E+10	1	-1E+10	1	-1E+10	1	-1E+10	1
4901784	177	C	05/09/2020	10:39	-132.343	43.372	0	61.70	0	10.6390	0	34.9030	8	26.767	0	61.199	0	261.6	4	96.5	4	-1E+10	1	-1E+10	1	-1E+10	1	-1E+10	1	-1E+10	1	-1E+10	1
4901784	177	C	05/09/2020	10:39	-132.343	43.372	0	63.50	0	10.6540	0	34.9040	8	26.765	0	62.984	0	261.5	4	96.5	4	-1E+10	1	-1E+10	1	-1E+10	1	-1E+10	1	-1E+10	1	-1E+10	1
4901784	177	C	05/09/2020	10:39	-132.343	43.372	0	65.30	0	10.6360	0	34.9070	8	26.770	0	64.769	0	260.9	4	96.2	4	-1E+10	1	-1E+10	1	-1E+10	1	-1E+10	1	-1E+10	1	-1E+10	1
4901784	177	C	05/09/2020	10:39	-132.343	43.372	0	67.10	0	10.5560	0	34.9000	8	26.779	0	66.554	0	260.6	4	96.0	4	-1E+10	1	-1E+10	1	-1E+10	1	-1E+10	1	-1E+10	1	-1E+10	1
4901784	177	C	05/09/2020	10:39	-132.343	43.372	0	68.90	0	10.5190	0	34.8930	8	26.780	0	68.340	0	260.8	4	96.0	4	-1E+10	1	-1E+10	1	-1E+10	1	-1E+10	1	-1E+10	1	-1E+10	1
4901784	177	C	05/09/2020	10:39	-132.343	43.372	0	70.60	0	10.4860	0	34.8920	8	26.785	0	70.025	0	260.6	4	95.8	4	-1E+10	1	-1E+10	1	-1E+10	1	-1E+10	1	-1E+10	1	-1E+10	1
4901784	177	C	05/09/2020	10:39	-132.343	43.372	0	72.40	0	10.4060	0	34.8850	8	26.794	0	71.810	0	260.9	4	95.8	4	-1E+10	1	-1E+10	1	-1E+10	1	-1E+10	1	-1E+10	1	-1E+10	1
4901784	177	C	05/09/2020	10:39	-132.343	43.372	0	74.20	0	10.3540	0	34.8760	8	26.796	0	73.596	0	260.9	4	95.6	4	-1E+10	1	-1E+10	1	-1E+10	1	-1E+10	1	-1E+10	1	-1E+10	1
4901784	177	C	05/09/2020	10:39	-132.343	43.372	0	76.00	0	10.3210	0	34.8700	8	26.797	0	75.381	0	260.9	4	95.6	4	-1E+10	1	-1E+10	1	-1E+10	1	-1E+10	1	-1E+10	1	-1E+10	1
4901784	177	C	05/09/2020	10:39	-132.343	43.372	0	77.80	0	10.2700	0	34.8690	8	26.805	0	77.166	0	260.7	4	95.4	4	-1E+10	1	-1E+10	1	-1E+10	1	-1E+10	1	-1E+10	1	-1E+10	1
4901784	177	C	05/09/2020	10:39	-132.343	43.372	0	79.60	0	10.2480	0	34.8700	8	26.810	0	78.950	0	260.6	4	95.3	4	-1E+10	1	-1E+10	1	-1E+10	1	-1E+10	1	-1E+10	1	-1E+10	1
4901784	177	C	05/09/2020	10:39	-132.343	43.372	0	81.40	0	10.2230	0	34.8670	8	26.812	0	80.735	0	260.4	4	95.2	4	-1E+10	1	-1E+10	1	-1E+10	1	-1E+10	1	-1E+10	1	-1E+10	1
4901784	177	C	05/09/2020	10:39	-132.343	43.372	0	83.20	0	10.2040	0	34.8660	8	26.814	0	82.520	0	260.3	4	95.1	4	-1E+10	1	-1E+10	1	-1E+10	1	-1E+10	1	-1E+10	1	-1E+10	1
4901784	177	C	05/09/2020	10:39	-132.343	43.372	0	85.00	0	10.1890	0	34.8670	8	26.818	0	84.305	0	260.0	4	95.0	4	-1E+10	1	-1E+10	1	-1E+10	1	-1E+10	1	-1E+10	1	-1E+10	1
4901784	177	C	05/09/2020	10:39	-132.343	43.372	0	86.80	0	10.1590	0	34.8660	8	26.822	0	86.090	0	260.1	4	94.9	4	-1E+10	1	-1E+10	1	-1E+10	1	-1E+10	1	-1E+10	1	-1E+10	1
4901784	177	C	05/09/2020	10:39	-132.343	43.372	0	88.60	0	10.1540	0	34.8650	8	26.822	0	87.875	0	259.8	4	94.8	4	-1E+10	1	-1E+10	1	-1E+10	1	-1E+10	1	-1E+10	1	-1E+10	1
4901784	177	C	05/09/2020	10:39	-132.343	43.372	0	90.50	0	10.1520	0	34.8640	8	26.822	0	89.759	0	259.8	4	94.8	4	-1E+10	1	-1E+10	1	-1E+10	1	-1E+10	1	-1E+10	1	-1E+10	1
4901784	177	C	05/09/2020	10:39	-132.343	43.372	0	92.30	0	10.1370	0	34.8620	8	26.823	0	91.544	0	259.7	4	94.7	4	-1E+10	1	-1E+10	1	-1E+10	1	-1E+10	1	-1E+10	1	-1E+10	1
4901784	177	C	05/09/2020	10:39	-132.343	43.372	0	94.00	0	10.0790	0	34.8620	8	26.833	0	93.230	0	259.9	4	94.7	4	-1E+10	1	-1E+10	1	-1E+10	1	-1E+10	1	-1E+10	1	-1E+10	1
4901784	177	C	05/09/2020	10:39	-132.343	43.372	0	95.80	0	10.0480	0	34.8620	8	26.838	0	95.015	0	259.7	4	94.6	4	-1E+10	1	-1E+10	1	-1E+10	1	-1E+10	1	-1E+10	1	-1E+10	1
4901784	177	C	05/09/2020	10:39	-132.343	43.372	0	97.60	0	10.0210	0	34.8570	8	26.839	0	96.799	0	259.7	4	94.5	4	-1E+10	1	-1E+10	1	-1E+10	1	-1E+10	1	-1E+10	1	-1E+10	1
4901784	177	C	05/09/2020	10:39	-132.343	43.372	0	99.40	0	9.9710	0	34.8550	8	26.846	0	98.584	0	259.8	4	94.5	4	-1E+10	1	-1E+10	1	-1E+10	1	-1E+10	1	-1E+10	1	-1E+10	1
4901784	177	C	05/09/2020	10:39	-132.343	43.372	0	103.00	0	9.8720	0	34.8520	8	26.861	0	102.154	0	259.8	4	94.3	4	-1E+10	1	-1E+10	1	-1E+10	1	-1E+10	1	-1E+10	1	-1E+10	1
4901784	177	C	05/09/2020	10:39	-132.343	43.372	0	104.70	0	9.8370	0	34.8490	8	26.864	0	103.839	0	259.5	4	94.1	4	-1E+10	1	-1E+10	1	-1E+10	1	-1E+10	1	-1E+10	1	-1E+10	1
4901784	177	C	05/09/2020	10:39	-132.343	43.372	0	107.50	0	9.7600	0	34.8460	8	26.875	0	106.616	0	258.7	4	93.6	4	-1E+10	1	-1E+10	1	-1E+10	1	-1E+10	1	-1E+10	1	-1E+10	1
4901784	177	C	05/09/2020	10:39	-132.343	43.372	0	110.30	0	9.6680	0	34.8390	8	26.885	0	109.392	0	257.3	4	92.9	4	-1E+10	1	-1E+10	1	-1E+10	1	-1E+10	1	-1E+10	1	-1E+10	1
4901784	177	C	05/09/2020	10:39	-132.343	43.372	0	112.20	0	9.5790	0	34.8380	8	26.899	0	111.276	0	255.6	4	92.1	4	-1E+10	1	-1E+10	1	-1E+10	1	-1E+10	1	-1E+10	1	-1E+10	1
4901784	177	C	05/09/2020	10:39	-132.343	43.372	0	115.00	0	9.4980	0	34.8430	8	26.916	0	114.052	0	251.3	4	90.4	4	-1E+10	1	-1E+10	1	-1E+10	1	-1E+10	1	-1E+10	1	-1E+10	1
4901784	177	C	05/09/2020	10:39	-132.343	43.372	0	117.40	0	9.4530	0	34.9250	8	26.988	0	116.431	0	246.1	4	88.5	4	-1E+10	1	-1E+10	1	-1E+10	1	-1E+10	1	-1E+10	1	-1E+10	1
4901784	177	C	05/09/2020	10:39	-132.343	43.372	0	120.50	0	9.4240	0	34.9850	8	27.040	0	119.505	0	243.8	4	87.7	4	-1E+10	1	-1E+10	1	-1E+10	1	-1E+10	1	-1E+10	1	-1E+10	1
4901784	177	C	05/09/2020	10:39	-132.343	43.372	0	122.80	0	9.4110	0	34.9900	8	27.046	0	121.785	0	242.9	4	87.3	4	-1E+10	1	-1E+10	1	-1E+10	1	-1E+10	1	-1E+10	1	-1E+10	1
4901784	177	C	05/09/2020	10:39	-132.343	43.372	0	125.10	0	9.4100	0	34.9900	8	27.046	0	124.066	0	241.4	4	86.8	4	-1E+10	1	-1E+10	1	-1E+10	1	-1E+10	1	-1E+10	1	-1E+10	1
4901784	177	C	05/09/2020	10:39	-132.343	43.372	0	127.30	0	9.4010	0	34.9890	8	27.047	0	126.247	0	239.1	4	85.9	4	-1E+10	1	-1E+10	1	-1E+10	1	-1E+10	1	-1E+10	1	-1E+10	1
4901784	177	C	05/09/2020	10:39	-132.343	43.372	0	129.60	0	9.3870	0	34.9960	8	27.055	0	128.527	0	235.4	4	84.6	4	-1E+10	1	-1E+10	1	-1E+10	1	-1E+10	1	-1E+10	1	-1E+10	1
4901784	177	C	05/09/2020	10:39	-132.343	43.372	0	132.60	0	9.3110	0	35.0400	8	27.102	0	131.501	0	227.9	4	81.8	4	-1E+10	1	-1E+10	1	-1E+10	1	-1E+10	1	-1E+10	1	-1E+10	1
4901784	177	C	05/09/2020	10:39	-132.343	43.372	0	135.00	0	9.1660	0	35.1510	8	27.212	0	133.880	0	222.7	4	79.7	4	-1E+10	1	-1E+10	1	-1E+10	1	-1E+10	1	-1E+10	1	-1E+10	1
4901784	177	C	05/09/2020	10:39	-132.343	43.372	0	137.50	0	9.0450	0	35.2490	8	27.309	0	136.359	0	218.8	4	78.2	4	-1E+10	1	-1E+10	1	-1E+10	1	-1E+10	1	-1E+10	1	-1E+10	1
4901784	177	C	05/09/2020	10:39	-132.343	43.372	0	140.20	0	8.8160	0	35.4110	8	27.473	0	139.036	0	215.9	4	76.8	4	-1E+10	1	-1E+10	1	-1E+10	1	-1E+10	1	-1E+10	1	-1E+10	1
4901784	177	C	05/09/2020	10:39	-132.343	43.372	0	142.70	0	8.6920	0	35.4780	8	27.545	0	141.514	0	215.4	4	76.5	4	-1E+10	1	-1E+10	1	-1E+10	1	-1E+10	1	-1E+10	1	-1E+10	1
4901784	177	C	05/09/2020	10:39	-132.343	43.372	0	145.80	0	8.6220	0	35.5100	8	27.581	0	144.587	0	214.0	4	75.9	4	-1E+10	1	-1E+10	1	-1E+10	1	-1E+10	1	-1E+10	1	-1E+10	1
4901784	177	C	05/09/2020	10:39	-132.343	43.372	0	147.40	0	8.6030	0	35.5170	8	27.590	0	146.173	0	213.0	4	75.5	4	-1E+10	1	-1E+10	1	-1E+10	1	-1E+10	1	-1E+10	1	-1E+10	1
4901784	177	C	05/09/2020	10:39	-132.343	43.372	0	149.70	0	8.5060	0	35.5740	8	27.650	0	148.453	0	211.7	4	74.9	4	-1E+10	1	-1E+10	1	-1E+10	1	-1E+10	1	-1E+10	1	-1E+10	1
4901784	177	C	05/09/2020	10:39	-132.343	43.372	0	152.70	0	8.4280	0	35.6220	8	27.699	0	151.427	0	209.9	4	74.2	4	-1E+10	1	-1E+10	1	-1E+10	1	-1E+10	1	-1E+10	1	-1E+10	1
4901784	177	C	05/09/2020	10:39	-132.343	43.372	0	155.00	0	8.3320	0	35.6910	8	27.769	0	153.707	0	208.4	4	73.5	4	-1E+10	1	-1E+10	1	-1E+10	1	-1E+10	1	-1E+10	1	-1E+10	1
4901784	177	C	05/09/2020	10:39	-132.343	43.372	0	157.30	0	8.3140	0	35.7060	8	27.783	0	155.987	0	206.7	4	72.9	4	-1E+10	1	-1E+10	1	-1E+10	1	-1E+10	1	-1E+10	1	-1E+10	1
4901784	177	C	05/09/2020	10:39	-132.343	43.372	0	159.60	0	8.2470	0	35.7670	8	27.842	0	158.267	0	204.2	4	72.0	4	-1E+10	1	-1E+10	1	-1E+10	1	-1E+10	1	-1E+10	1	-1E+10	1
4901784	177	C	05/09/2020	10:39	-132.343	43.372	0	162.10	0	8.1740	0	35.8040	8	27.882	0	160.745	0	202.0	4	71.1	4	-1E+10	1	-1E+10	1	-1E+10	1	-1E+10	1	-1E+10	1	-1E+10	1
4901784	177	C	05/09/2020	10:39	-132.343	43.372	0	164.70	0	8.1240	0	35.8470	8	27.923	0	163.322	0	198.1	4	69.7	4	-1E+10	1	-1E+10	1	-1E+10	1	-1E+10	1	-1E+10	1	-1E+10	1
4901784	177	C	05/09/2020	10:39	-132.343	43.372	0	167.20	0	8.2410	0	35.9210	8	27.964	0	165.801	0	192.7	4	68.0	4	-1E+10	1	-1E+10	1	-1E+10	1	-1E+10	1	-1E+10	1	-1E+10	1
4901784	177	C	05/09/2020	10:39	-132.343	43.372	0	169.80	0	8.3010	0	35.9900	8	28.008	0	168.378	0	190.9	4	67.5	4	-1E+10	1	-1E+10	1	-1E+10	1	-1E+10	1	-1E+10	1	-1E+10	1
4901784	177	C	05/09/2020	10:39	-132.343	43.372	0	172.50	0	8.0790	0	36.0280	8	28.073	0	171.054	0	192.0	4	67.5	4	-1E+10	1	-1E+10	1	-1E+10	1	-1E+10	1	-1E+10	1	-1E+10	1
4901784	177	C	05/09/2020	10:39	-132.343	43.372	0	175.80	0	8.0330	0	36.0540	8	28.100	0	174.325	0	186.8	4	65.7	4	-1E+10	1	-1E+10	1	-1E+10	1	-1E+10	1	-1E+10	1	-1E+10	1
4901784	177	C	05/09/2020	10:39	-132.343	43.372	0	177.70	0	8.1680	0	36.0810	8	28.101	0	176.208	0	181.1	4	63.9	4	-1E+10	1	-1E+10	1	-1E+10	1	-1E+10	1	-1E+10	1	-1E+10	1
4901784	177	C	05/09/2020	10:39	-132.343	43.372	0	180.20	0	8.2320	0	36.1220	8	28.123	0	178.686	0	177.5	4	62.7	4	-1E+10	1	-1E+10	1	-1E+10	1	-1E+10	1	-1E+10	1	-1E+10	1
4901784	177	C	05/09/2020	10:39	-132.343	43.372	0	182.60	0	8.2280	0	36.1360	8	28.135	0	181.065	0	175.4	4	62.0	4	-1E+10	1	-1E+10	1	-1E+10	1	-1E+10	1	-1E+10	1	-1E+10	1
4901784	177	C	05/09/2020	10:39	-132.343	43.372	0	185.00	0	8.2270	0	36.1560	8	28.151	0	183.444	0	172.4	4	60.9	4	-1E+10	1	-1E+10	1	-1E+10	1	-1E+10	1	-1E+10	1	-1E+10	1
4901784	177	C	05/09/2020	10:39	-132.343	43.372	0	187.40	0	8.2330	0	36.1920	8	28.178	0	185.822	0	168.9	4	59.7	4	-1E+10	1	-1E+10	1	-1E+10	1	-1E+10	1	-1E+10	1	-1E+10	1
4901784	177	C	05/09/2020	10:39	-132.343	43.372	0	190.00	0	8.2320	0	36.2280	8	28.206	0	188.399	0	165.8	4	58.6	4	-1E+10	1	-1E+10	1	-1E+10	1	-1E+10	1	-1E+10	1	-1E+10	1
4901784	177	C	05/09/2020	10:39	-132.343	43.372	0	192.50	0	8.2240	0	36.2450	8	28.221	0	190.877	0	163.6	4	57.8	4	-1E+10	1	-1E+10	1	-1E+10	1	-1E+10	1	-1E+10	1	-1E+10	1
4901784	177	C	05/09/2020	10:39	-132.343	43.372	0	195.00	0	8.1970	0	36.2840	8	28.256	0	193.355	0	162.7	4	57.5	4	-1E+10	1	-1E+10	1	-1E+10	1	-1E+10	1	-1E+10	1	-1E+10	1
4901784	177	C	05/09/2020	10:39	-132.343	43.372	0	197.60	0	8.1690	0	36.3050	8	28.277	0	195.932	0	162.2	4	57.3	4	-1E+10	1	-1E+10	1	-1E+10	1	-1E+10	1	-1E+10	1	-1E+10	1
4901784	177	C	05/09/2020	10:39	-132.343	43.372	0	200.10	0	8.1650	0	36.3230	8	28.292	0	198.409	0	161.3	4	57.0	4	-1E+10	1	-1E+10	1	-1E+10	1	-1E+10	1	-1E+10	1	-1E+10	1
4901784	177	C	05/09/2020	10:39	-132.343	43.372	0	202.60	0	8.1640	0	36.3270	8	28.295	0	200.887	0	160.7	4	56.8	4	-1E+10	1	-1E+10	1	-1E+10	1	-1E+10	1	-1E+10	1	-1E+10	1
4901784	177	C	05/09/2020	10:39	-132.343	43.372	0	205.10	0	8.1510	0	36.3340	8	28.303	0	203.365	0	159.8	4	56.4	4	-1E+10	1	-1E+10	1	-1E+10	1	-1E+10	1	-1E+10	1	-1E+10	1
4901784	177	C	05/09/2020	10:39	-132.343	43.372	0	207.80	0	8.1430	0	36.3480	8	28.315	0	206.040	0	158.3	4	55.9	4	-1E+10	1	-1E+10	1	-1E+10	1	-1E+10	1	-1E+10	1	-1E+10	1
4901784	177	C	05/09/2020	10:39	-132.343	43.372	0	210.30	0	8.1090	0	36.3730	8	28.340	0	208.518	0	156.7	4	55.3	4	-1E+10	1	-1E+10	1	-1E+10	1	-1E+10	1	-1E+10	1	-1E+10	1
4901784	177	C	05/09/2020	10:39	-132.343	43.372	0	213.00	0	8.0930	0	36.3860	8	28.352	0	211.194	0	154.8	4	54.6	4	-1E+10	1	-1E+10	1	-1E+10	1	-1E+10	1	-1E+10	1	-1E+10	1
4901784	177	C	05/09/2020	10:39	-132.343	43.372	0	214.70	0	8.0700	0	36.3980	8	28.365	0	212.878	0	153.4	4	54.1	4	-1E+10	1	-1E+10	1	-1E+10	1	-1E+10	1	-1E+10	1	-1E+10	1
4901784	177	C	05/09/2020	10:39	-132.343	43.372	0	217.30	0	8.0270	0	36.4180	8	28.388	0	215.455	0	151.8	4	53.5	4	-1E+10	1	-1E+10	1	-1E+10	1	-1E+10	1	-1E+10	1	-1E+10	1
4901784	177	C	05/09/2020	10:39	-132.343	43.372	0	220.00	0	7.9930	0	36.4290	8	28.402	0	218.131	0	149.7	4	52.7	4	-1E+10	1	-1E+10	1	-1E+10	1	-1E+10	1	-1E+10	1	-1E+10	1
4901784	177	C	05/09/2020	10:39	-132.343	43.372	0	222.70	0	7.9650	0	36.4390	8	28.414	0	220.806	0	148.3	4	52.2	4	-1E+10	1	-1E+10	1	-1E+10	1	-1E+10	1	-1E+10	1	-1E+10	1
4901784	177	C	05/09/2020	10:39	-132.343	43.372	0	225.30	0	7.9330	0	36.4440	8	28.423	0	223.383	0	147.5	4	51.9	4	-1E+10	1	-1E+10	1	-1E+10	1	-1E+10	1	-1E+10	1	-1E+10	1
4901784	177	C	05/09/2020	10:39	-132.343	43.372	0	227.10	0	7.9200	0	36.4450	8	28.426	0	225.167	0	146.5	4	51.5	4	-1E+10	1	-1E+10	1	-1E+10	1	-1E+10	1	-1E+10	1	-1E+10	1
4901784	177	C	05/09/2020	10:39	-132.343	43.372	0	229.80	0	7.8790	0	36.4530	8	28.438	0	227.842	0	144.6	4	50.8	4	-1E+10	1	-1E+10	1	-1E+10	1	-1E+10	1	-1E+10	1	-1E+10	1
4901784	177	C	05/09/2020	10:39	-132.343	43.372	0	232.50	0	7.8570	0	36.4540	8	28.442	0	230.518	0	142.7	4	50.1	4	-1E+10	1	-1E+10	1	-1E+10	1	-1E+10	1	-1E+10	1	-1E+10	1
4901784	177	C	05/09/2020	10:39	-132.343	43.372	0	235.10	0	7.8170	0	36.4530	8	28.448	0	233.094	0	141.3	4	49.6	4	-1E+10	1	-1E+10	1	-1E+10	1	-1E+10	1	-1E+10	1	-1E+10	1
4901784	177	C	05/09/2020	10:39	-132.343	43.372	0	237.70	0	7.7740	0	36.4600	8	28.460	0	235.670	0	140.3	4	49.2	4	-1E+10	1	-1E+10	1	-1E+10	1	-1E+10	1	-1E+10	1	-1E+10	1
4901784	177	C	05/09/2020	10:39	-132.343	43.372	0	240.20	0	7.7220	0	36.4630	8	28.470	0	238.147	0	139.5	4	48.8	4	-1E+10	1	-1E+10	1	-1E+10	1	-1E+10	1	-1E+10	1	-1E+10	1
4901784	177	C	05/09/2020	10:39	-132.343	43.372	0	242.80	0	7.6680	0	36.4660	8	28.480	0	240.724	0	138.5	4	48.4	4	-1E+10	1	-1E+10	1	-1E+10	1	-1E+10	1	-1E+10	1	-1E+10	1
4901784	177	C	05/09/2020	10:39	-132.343	43.372	0	244.50	0	7.6530	0	36.4650	8	28.482	0	242.408	0	137.9	4	48.2	4	-1E+10	1	-1E+10	1	-1E+10	1	-1E+10	1	-1E+10	1	-1E+10	1
4901784	177	C	05/09/2020	10:39	-132.343	43.372	0	247.20	0	7.6010	0	36.4680	8	28.492	0	245.084	0	136.6	4	47.7	4	-1E+10	1	-1E+10	1	-1E+10	1	-1E+10	1	-1E+10	1	-1E+10	1
4901784	177	C	05/09/2020	10:39	-132.343	43.372	0	249.80	0	7.5680	0	36.4680	8	28.497	0	247.660	0	135.6	4	47.3	4	-1E+10	1	-1E+10	1	-1E+10	1	-1E+10	1	-1E+10	1	-1E+10	1
4901784	177	C	05/09/2020	10:39	-132.343	43.372	0	252.30	0	7.5220	0	36.4690	8	28.505	0	250.137	0	135.0	4	47.0	4	-1E+10	1	-1E+10	1	-1E+10	1	-1E+10	1	-1E+10	1	-1E+10	1
4901784	177	C	05/09/2020	10:39	-132.343	43.372	0	254.90	0	7.5100	0	36.4660	8	28.504	0	252.713	0	133.9	4	46.6	4	-1E+10	1	-1E+10	1	-1E+10	1	-1E+10	1	-1E+10	1	-1E+10	1
4901784	177	C	05/09/2020	10:39	-132.343	43.372	0	257.40	0	7.4400	0	36.4690	8	28.517	0	255.190	0	132.2	4	46.0	4	-1E+10	1	-1E+10	1	-1E+10	1	-1E+10	1	-1E+10	1	-1E+10	1
4901784	177	C	05/09/2020	10:39	-132.343	43.372	0	260.00	0	7.3780	0	36.4690	8	28.526	0	257.766	0	130.1	4	45.2	4	-1E+10	1	-1E+10	1	-1E+10	1	-1E+10	1	-1E+10	1	-1E+10	1
4901784	177	C	05/09/2020	10:39	-132.343	43.372	0	262.70	0	7.3190	0	36.4700	8	28.535	0	260.441	0	127.6	4	44.3	4	-1E+10	1	-1E+10	1	-1E+10	1	-1E+10	1	-1E+10	1	-1E+10	1
4901784	177	C	05/09/2020	10:39	-132.343	43.372	0	265.30	0	7.2580	0	36.4730	8	28.547	0	263.017	0	126.1	4	43.7	4	-1E+10	1	-1E+10	1	-1E+10	1	-1E+10	1	-1E+10	1	-1E+10	1
4901784	177	C	05/09/2020	10:39	-132.343	43.372	0	267.10	0	7.2160	0	36.4730	8	28.553	0	264.800	0	125.3	4	43.4	4	-1E+10	1	-1E+10	1	-1E+10	1	-1E+10	1	-1E+10	1	-1E+10	1
4901784	177	C	05/09/2020	10:39	-132.343	43.372	0	269.70	0	7.1660	0	36.4740	8	28.561	0	267.376	0	123.6	4	42.8	4	-1E+10	1	-1E+10	1	-1E+10	1	-1E+10	1	-1E+10	1	-1E+10	1
4901784	177	C	05/09/2020	10:39	-132.343	43.372	0	272.30	0	7.1160	0	36.4760	8	28.570	0	269.952	0	122.5	4	42.3	4	-1E+10	1	-1E+10	1	-1E+10	1	-1E+10	1	-1E+10	1	-1E+10	1
4901784	177	C	05/09/2020	10:39	-132.343	43.372	0	274.90	0	7.0640	0	36.4780	8	28.579	0	272.528	0	121.3	4	41.9	4	-1E+10	1	-1E+10	1	-1E+10	1	-1E+10	1	-1E+10	1	-1E+10	1
4901784	177	C	05/09/2020	10:39	-132.343	43.372	0	277.60	0	7.0240	0	36.4770	8	28.584	0	275.203	0	120.3	4	41.5	4	-1E+10	1	-1E+10	1	-1E+10	1	-1E+10	1	-1E+10	1	-1E+10	1
4901784	177	C	05/09/2020	10:39	-132.343	43.372	0	280.20	0	6.9930	0	36.4790	8	28.590	0	277.779	0	119.4	4	41.1	4	-1E+10	1	-1E+10	1	-1E+10	1	-1E+10	1	-1E+10	1	-1E+10	1
4901784	177	C	05/09/2020	10:39	-132.343	43.372	0	282.90	0	6.9740	0	36.4780	8	28.592	0	280.454	0	118.7	4	40.9	4	-1E+10	1	-1E+10	1	-1E+10	1	-1E+10	1	-1E+10	1	-1E+10	1
4901784	177	C	05/09/2020	10:39	-132.343	43.372	0	284.80	0	6.9600	0	36.4770	8	28.593	0	282.336	0	117.9	4	40.6	4	-1E+10	1	-1E+10	1	-1E+10	1	-1E+10	1	-1E+10	1	-1E+10	1
4901784	177	C	05/09/2020	10:39	-132.343	43.372	0	287.50	0	6.9260	0	36.4790	8	28.599	0	285.011	0	116.4	4	40.0	4	-1E+10	1	-1E+10	1	-1E+10	1	-1E+10	1	-1E+10	1	-1E+10	1
4901784	177	C	05/09/2020	10:39	-132.343	43.372	0	290.10	0	6.8790	0	36.4810	8	28.608	0	287.586	0	115.0	4	39.5	4	-1E+10	1	-1E+10	1	-1E+10	1	-1E+10	1	-1E+10	1	-1E+10	1
4901784	177	C	05/09/2020	10:39	-132.343	43.372	0	292.00	0	6.8560	0	36.4830	8	28.612	0	289.469	0	114.1	4	39.2	4	-1E+10	1	-1E+10	1	-1E+10	1	-1E+10	1	-1E+10	1	-1E+10	1
4901784	177	C	05/09/2020	10:39	-132.343	43.372	0	294.70	0	6.8310	0	36.4840	8	28.617	0	292.143	0	112.6	4	38.6	4	-1E+10	1	-1E+10	1	-1E+10	1	-1E+10	1	-1E+10	1	-1E+10	1
4901784	177	C	05/09/2020	10:39	-132.343	43.372	0	297.50	0	6.8400	0	36.4880	8	28.619	0	294.917	0	110.5	4	37.9	4	-1E+10	1	-1E+10	1	-1E+10	1	-1E+10	1	-1E+10	1	-1E+10	1
4901784	177	C	05/09/2020	10:39	-132.343	43.372	0	299.30	0	6.8350	0	36.4890	8	28.620	0	296.700	0	110.0	4	37.8	4	-1E+10	1	-1E+10	1	-1E+10	1	-1E+10	1	-1E+10	1	-1E+10	1
4901784	177	C	05/09/2020	10:39	-132.343	43.372	0	302.20	0	6.8060	0	36.4880	8	28.624	0	299.573	0	109.9	4	37.7	4	-1E+10	1	-1E+10	1	-1E+10	1	-1E+10	1	-1E+10	1	-1E+10	1
4901784	177	C	05/09/2020	10:39	-132.343	43.372	0	304.90	0	6.7650	0	36.4850	8	28.627	0	302.247	0	110.6	4	37.9	4	-1E+10	1	-1E+10	1	-1E+10	1	-1E+10	1	-1E+10	1	-1E+10	1
4901784	177	C	05/09/2020	10:39	-132.343	43.372	0	307.20	0	6.6480	0	36.4830	8	28.642	0	304.526	0	112.4	4	38.4	4	-1E+10	1	-1E+10	1	-1E+10	1	-1E+10	1	-1E+10	1	-1E+10	1
4901784	177	C	05/09/2020	10:39	-132.343	43.372	0	310.30	0	6.5730	0	36.4820	8	28.651	0	307.596	0	112.6	4	38.4	4	-1E+10	1	-1E+10	1	-1E+10	1	-1E+10	1	-1E+10	1	-1E+10	1
4901784	177	C	05/09/2020	10:39	-132.343	43.372	0	312.60	0	6.5520	0	36.4820	8	28.654	0	309.875	0	112.4	4	38.3	4	-1E+10	1	-1E+10	1	-1E+10	1	-1E+10	1	-1E+10	1	-1E+10	1
4901784	177	C	05/09/2020	10:39	-132.343	43.372	0	314.90	0	6.5420	0	36.4830	8	28.656	0	312.153	0	111.7	4	38.1	4	-1E+10	1	-1E+10	1	-1E+10	1	-1E+10	1	-1E+10	1	-1E+10	1
4901784	177	C	05/09/2020	10:39	-132.343	43.372	0	317.30	0	6.5400	0	36.4820	8	28.656	0	314.530	0	110.8	4	37.8	4	-1E+10	1	-1E+10	1	-1E+10	1	-1E+10	1	-1E+10	1	-1E+10	1
4901784	177	C	05/09/2020	10:39	-132.343	43.372	0	319.60	0	6.5290	0	36.4810	8	28.657	0	316.808	0	109.1	4	37.2	4	-1E+10	1	-1E+10	1	-1E+10	1	-1E+10	1	-1E+10	1	-1E+10	1
4901784	177	C	05/09/2020	10:39	-132.343	43.372	0	322.80	0	6.4870	0	36.4830	8	28.664	0	319.978	0	106.6	4	36.3	4	-1E+10	1	-1E+10	1	-1E+10	1	-1E+10	1	-1E+10	1	-1E+10	1
4901784	177	C	05/09/2020	10:39	-132.343	43.372	0	325.20	0	6.4560	0	36.4820	8	28.668	0	322.355	0	105.3	4	35.8	4	-1E+10	1	-1E+10	1	-1E+10	1	-1E+10	1	-1E+10	1	-1E+10	1
4901784	177	C	05/09/2020	10:39	-132.343	43.372	0	327.70	0	6.3900	0	36.4870	8	28.681	0	324.831	0	103.6	4	35.2	4	-1E+10	1	-1E+10	1	-1E+10	1	-1E+10	1	-1E+10	1	-1E+10	1
4901784	177	C	05/09/2020	10:39	-132.343	43.372	0	330.20	0	6.3770	0	36.4880	8	28.683	0	327.307	0	101.9	4	34.6	4	-1E+10	1	-1E+10	1	-1E+10	1	-1E+10	1	-1E+10	1	-1E+10	1
4901784	177	C	05/09/2020	10:39	-132.343	43.372	0	332.60	0	6.3710	0	36.4890	8	28.685	0	329.684	0	99.4	4	33.8	4	-1E+10	1	-1E+10	1	-1E+10	1	-1E+10	1	-1E+10	1	-1E+10	1
4901784	177	C	05/09/2020	10:39	-132.343	43.372	0	335.00	0	6.3610	0	36.4940	8	28.690	0	332.061	0	96.6	4	32.8	4	-1E+10	1	-1E+10	1	-1E+10	1	-1E+10	1	-1E+10	1	-1E+10	1
4901784	177	C	05/09/2020	10:39	-132.343	43.372	0	337.50	0	6.3360	0	36.4950	8	28.694	0	334.537	0	94.9	4	32.2	4	-1E+10	1	-1E+10	1	-1E+10	1	-1E+10	1	-1E+10	1	-1E+10	1
4901784	177	C	05/09/2020	10:39	-132.343	43.372	0	340.00	0	6.2980	0	36.4990	8	28.703	0	337.013	0	92.6	4	31.4	4	-1E+10	1	-1E+10	1	-1E+10	1	-1E+10	1	-1E+10	1	-1E+10	1
4901784	177	C	05/09/2020	10:39	-132.343	43.372	0	342.50	0	6.2940	0	36.5040	8	28.707	0	339.489	0	91.1	4	30.9	4	-1E+10	1	-1E+10	1	-1E+10	1	-1E+10	1	-1E+10	1	-1E+10	1
4901784	177	C	05/09/2020	10:39	-132.343	43.372	0	345.00	0	6.2750	0	36.5030	8	28.709	0	341.965	0	90.1	4	30.6	4	-1E+10	1	-1E+10	1	-1E+10	1	-1E+10	1	-1E+10	1	-1E+10	1
4901784	177	C	05/09/2020	10:39	-132.343	43.372	0	347.60	0	6.2380	0	36.5050	8	28.715	0	344.540	0	89.0	4	30.1	4	-1E+10	1	-1E+10	1	-1E+10	1	-1E+10	1	-1E+10	1	-1E+10	1
4901784	177	C	05/09/2020	10:39	-132.343	43.372	0	350.20	0	6.1950	0	36.5060	8	28.722	0	347.115	0	88.0	4	29.8	4	-1E+10	1	-1E+10	1	-1E+10	1	-1E+10	1	-1E+10	1	-1E+10	1
4901784	177	C	05/09/2020	10:39	-132.343	43.372	0	352.70	0	6.1610	0	36.5040	8	28.725	0	349.591	0	87.0	4	29.4	4	-1E+10	1	-1E+10	1	-1E+10	1	-1E+10	1	-1E+10	1	-1E+10	1
4901784	177	C	05/09/2020	10:39	-132.343	43.372	0	355.30	0	6.1010	0	36.5080	8	28.736	0	352.166	0	85.6	4	28.9	4	-1E+10	1	-1E+10	1	-1E+10	1	-1E+10	1	-1E+10	1	-1E+10	1
4901784	177	C	05/09/2020	10:39	-132.343	43.372	0	357.90	0	6.0640	0	36.5100	8	28.743	0	354.741	0	84.4	4	28.5	4	-1E+10	1	-1E+10	1	-1E+10	1	-1E+10	1	-1E+10	1	-1E+10	1
4901784	177	C	05/09/2020	10:39	-132.343	43.372	0	360.50	0	6.0460	0	36.5110	8	28.746	0	357.316	0	82.5	4	27.8	4	-1E+10	1	-1E+10	1	-1E+10	1	-1E+10	1	-1E+10	1	-1E+10	1
4901784	177	C	05/09/2020	10:39	-132.343	43.372	0	362.10	0	6.0500	0	36.5170	8	28.750	0	358.900	0	81.6	4	27.5	4	-1E+10	1	-1E+10	1	-1E+10	1	-1E+10	1	-1E+10	1	-1E+10	1
4901784	177	C	05/09/2020	10:39	-132.343	43.372	0	364.80	0	6.0340	0	36.5180	8	28.753	0	361.574	0	80.5	4	27.1	4	-1E+10	1	-1E+10	1	-1E+10	1	-1E+10	1	-1E+10	1	-1E+10	1
4901784	177	C	05/09/2020	10:39	-132.343	43.372	0	367.40	0	5.9900	0	36.5190	8	28.760	0	364.149	0	79.3	4	26.7	4	-1E+10	1	-1E+10	1	-1E+10	1	-1E+10	1	-1E+10	1	-1E+10	1
4901784	177	C	05/09/2020	10:39	-132.343	43.372	0	370.10	0	5.9790	0	36.5220	8	28.764	0	366.822	0	78.0	4	26.3	4	-1E+10	1	-1E+10	1	-1E+10	1	-1E+10	1	-1E+10	1	-1E+10	1
4901784	177	C	05/09/2020	10:39	-132.343	43.372	0	372.70	0	5.9660	0	36.5230	8	28.766	0	369.397	0	76.8	4	25.8	4	-1E+10	1	-1E+10	1	-1E+10	1	-1E+10	1	-1E+10	1	-1E+10	1
4901784	177	C	05/09/2020	10:39	-132.343	43.372	0	374.60	0	5.9470	0	36.5250	8	28.770	0	371.279	0	76.1	4	25.6	4	-1E+10	1	-1E+10	1	-1E+10	1	-1E+10	1	-1E+10	1	-1E+10	1
4901784	177	C	05/09/2020	10:39	-132.343	43.372	0	377.20	0	5.9230	0	36.5250	8	28.773	0	373.853	0	75.3	4	25.3	4	-1E+10	1	-1E+10	1	-1E+10	1	-1E+10	1	-1E+10	1	-1E+10	1
4901784	177	C	05/09/2020	10:39	-132.343	43.372	0	379.90	0	5.8740	0	36.5280	8	28.782	0	376.527	0	74.9	4	25.2	4	-1E+10	1	-1E+10	1	-1E+10	1	-1E+10	1	-1E+10	1	-1E+10	1
4901784	177	C	05/09/2020	10:39	-132.343	43.372	0	382.60	0	5.8020	0	36.5250	8	28.789	0	379.200	0	74.3	4	24.9	4	-1E+10	1	-1E+10	1	-1E+10	1	-1E+10	1	-1E+10	1	-1E+10	1
4901784	177	C	05/09/2020	10:39	-132.343	43.372	0	385.30	0	5.7930	0	36.5290	8	28.793	0	381.874	0	72.7	4	24.4	4	-1E+10	1	-1E+10	1	-1E+10	1	-1E+10	1	-1E+10	1	-1E+10	1
4901784	177	C	05/09/2020	10:39	-132.343	43.372	0	387.10	0	5.8160	0	36.5340	8	28.794	0	383.656	0	71.9	4	24.1	4	-1E+10	1	-1E+10	1	-1E+10	1	-1E+10	1	-1E+10	1	-1E+10	1
4901784	177	C	05/09/2020	10:39	-132.343	43.372	0	389.80	0	5.7880	0	36.5330	8	28.797	0	386.330	0	71.9	4	24.1	4	-1E+10	1	-1E+10	1	-1E+10	1	-1E+10	1	-1E+10	1	-1E+10	1
4901784	177	C	05/09/2020	10:39	-132.343	43.372	0	392.50	0	5.7410	0	36.5290	8	28.800	0	389.003	0	72.2	4	24.2	4	-1E+10	1	-1E+10	1	-1E+10	1	-1E+10	1	-1E+10	1	-1E+10	1
4901784	177	C	05/09/2020	10:39	-132.343	43.372	0	395.20	0	5.6110	0	36.5220	8	28.811	0	391.676	0	71.6	4	23.9	4	-1E+10	1	-1E+10	1	-1E+10	1	-1E+10	1	-1E+10	1	-1E+10	1
4901784	177	C	05/09/2020	10:39	-132.343	43.372	0	398.00	0	5.5810	0	36.5290	8	28.821	0	394.449	0	69.1	4	23.0	4	-1E+10	1	-1E+10	1	-1E+10	1	-1E+10	1	-1E+10	1	-1E+10	1
4901784	177	C	05/09/2020	10:39	-132.343	43.372	0	399.70	0	5.6390	0	36.5430	8	28.824	0	396.132	0	67.3	4	22.5	4	-1E+10	1	-1E+10	1	-1E+10	1	-1E+10	1	-1E+10	1	-1E+10	1
4901784	177	C	05/09/2020	10:39	-132.343	43.372	0	402.50	0	5.6430	0	36.5440	8	28.825	0	398.904	0	66.7	4	22.3	4	-1E+10	1	-1E+10	1	-1E+10	1	-1E+10	1	-1E+10	1	-1E+10	1
4901784	177	C	05/09/2020	10:39	-132.343	43.372	0	405.20	0	5.6260	0	36.5440	8	28.827	0	401.578	0	66.6	4	22.2	4	-1E+10	1	-1E+10	1	-1E+10	1	-1E+10	1	-1E+10	1	-1E+10	1
4901784	177	C	05/09/2020	10:39	-132.343	43.372	0	406.90	0	5.5970	0	36.5420	8	28.829	0	403.261	0	66.7	4	22.3	4	-1E+10	1	-1E+10	1	-1E+10	1	-1E+10	1	-1E+10	1	-1E+10	1
4901784	177	C	05/09/2020	10:39	-132.343	43.372	0	409.70	0	5.5000	0	36.5420	8	28.841	0	406.033	0	66.4	4	22.1	4	-1E+10	1	-1E+10	1	-1E+10	1	-1E+10	1	-1E+10	1	-1E+10	1
4901784	177	C	05/09/2020	10:39	-132.343	43.372	0	412.40	0	5.4610	0	36.5400	8	28.845	0	408.706	0	65.2	4	21.7	4	-1E+10	1	-1E+10	1	-1E+10	1	-1E+10	1	-1E+10	1	-1E+10	1
4901784	177	C	05/09/2020	10:39	-132.343	43.372	0	415.10	0	5.4610	0	36.5470	8	28.850	0	411.379	0	63.9	4	21.2	4	-1E+10	1	-1E+10	1	-1E+10	1	-1E+10	1	-1E+10	1	-1E+10	1
4901784	177	C	05/09/2020	10:39	-132.343	43.372	0	417.90	0	5.4690	0	36.5510	8	28.852	0	414.151	0	63.2	4	21.0	4	-1E+10	1	-1E+10	1	-1E+10	1	-1E+10	1	-1E+10	1	-1E+10	1
4901784	177	C	05/09/2020	10:39	-132.343	43.372	0	419.60	0	5.4410	0	36.5520	8	28.857	0	415.835	0	62.8	4	20.9	4	-1E+10	1	-1E+10	1	-1E+10	1	-1E+10	1	-1E+10	1	-1E+10	1
4901784	177	C	05/09/2020	10:39	-132.343	43.372	0	422.40	0	5.4190	0	36.5530	8	28.860	0	418.607	0	62.6	4	20.8	4	-1E+10	1	-1E+10	1	-1E+10	1	-1E+10	1	-1E+10	1	-1E+10	1
4901784	177	C	05/09/2020	10:39	-132.343	43.372	0	425.20	0	5.3730	0	36.5530	8	28.866	0	421.379	0	62.2	4	20.7	4	-1E+10	1	-1E+10	1	-1E+10	1	-1E+10	1	-1E+10	1	-1E+10	1
4901784	177	C	05/09/2020	10:39	-132.343	43.372	0	427.00	0	5.3620	0	36.5540	8	28.868	0	423.161	0	61.8	4	20.5	4	-1E+10	1	-1E+10	1	-1E+10	1	-1E+10	1	-1E+10	1	-1E+10	1
4901784	177	C	05/09/2020	10:39	-132.343	43.372	0	429.70	0	5.3510	0	36.5550	8	28.870	0	425.834	0	61.3	4	20.3	4	-1E+10	1	-1E+10	1	-1E+10	1	-1E+10	1	-1E+10	1	-1E+10	1
4901784	177	C	05/09/2020	10:39	-132.343	43.372	0	432.40	0	5.3100	0	36.5560	8	28.876	0	428.506	0	60.5	4	20.1	4	-1E+10	1	-1E+10	1	-1E+10	1	-1E+10	1	-1E+10	1	-1E+10	1
4901784	177	C	05/09/2020	10:39	-132.343	43.372	0	435.20	0	5.3200	0	36.5590	8	28.878	0	431.278	0	59.5	4	19.7	4	-1E+10	1	-1E+10	1	-1E+10	1	-1E+10	1	-1E+10	1	-1E+10	1
4901784	177	C	05/09/2020	10:39	-132.343	43.372	0	437.90	0	5.3080	0	36.5650	8	28.884	0	433.951	0	58.4	4	19.4	4	-1E+10	1	-1E+10	1	-1E+10	1	-1E+10	1	-1E+10	1	-1E+10	1
4901784	177	C	05/09/2020	10:39	-132.343	43.372	0	439.80	0	5.3000	0	36.5670	8	28.886	0	435.832	0	57.8	4	19.2	4	-1E+10	1	-1E+10	1	-1E+10	1	-1E+10	1	-1E+10	1	-1E+10	1
4901784	177	C	05/09/2020	10:39	-132.343	43.372	0	442.50	0	5.3010	0	36.5700	8	28.889	0	438.505	0	57.0	4	18.9	4	-1E+10	1	-1E+10	1	-1E+10	1	-1E+10	1	-1E+10	1	-1E+10	1
4901784	177	C	05/09/2020	10:39	-132.343	43.372	0	445.30	0	5.2940	0	36.5710	8	28.890	0	441.277	0	56.1	4	18.6	4	-1E+10	1	-1E+10	1	-1E+10	1	-1E+10	1	-1E+10	1	-1E+10	1
4901784	177	C	05/09/2020	10:39	-132.343	43.372	0	447.20	0	5.2790	0	36.5750	8	28.895	0	443.157	0	55.4	4	18.4	4	-1E+10	1	-1E+10	1	-1E+10	1	-1E+10	1	-1E+10	1	-1E+10	1
4901784	177	C	05/09/2020	10:39	-132.343	43.372	0	449.90	0	5.2770	0	36.5780	8	28.898	0	445.830	0	54.5	4	18.1	4	-1E+10	1	-1E+10	1	-1E+10	1	-1E+10	1	-1E+10	1	-1E+10	1
4901784	177	C	05/09/2020	10:39	-132.343	43.372	0	452.70	0	5.2610	0	36.5830	8	28.904	0	448.602	0	53.7	4	17.8	4	-1E+10	1	-1E+10	1	-1E+10	1	-1E+10	1	-1E+10	1	-1E+10	1
4901784	177	C	05/09/2020	10:39	-132.343	43.372	0	454.60	0	5.2590	0	36.5850	8	28.906	0	450.482	0	53.1	4	17.6	4	-1E+10	1	-1E+10	1	-1E+10	1	-1E+10	1	-1E+10	1	-1E+10	1
4901784	177	C	05/09/2020	10:39	-132.343	43.372	0	457.50	0	5.2430	0	36.5890	8	28.911	0	453.353	0	52.5	4	17.4	4	-1E+10	1	-1E+10	1	-1E+10	1	-1E+10	1	-1E+10	1	-1E+10	1
4901784	177	C	05/09/2020	10:39	-132.343	43.372	0	460.20	0	5.2330	0	36.5910	8	28.914	0	456.026	0	52.0	4	17.2	4	-1E+10	1	-1E+10	1	-1E+10	1	-1E+10	1	-1E+10	1	-1E+10	1
4901784	177	C	05/09/2020	10:39	-132.343	43.372	0	462.10	0	5.2290	0	36.5890	8	28.913	0	457.906	0	51.7	4	17.1	4	-1E+10	1	-1E+10	1	-1E+10	1	-1E+10	1	-1E+10	1	-1E+10	1
4901784	177	C	05/09/2020	10:39	-132.343	43.372	0	464.90	0	5.2020	0	36.5910	8	28.918	0	460.678	0	51.2	4	16.9	4	-1E+10	1	-1E+10	1	-1E+10	1	-1E+10	1	-1E+10	1	-1E+10	1
4901784	177	C	05/09/2020	10:39	-132.343	43.372	0	467.70	0	5.1810	0	36.5920	8	28.921	0	463.449	0	50.5	4	16.7	4	-1E+10	1	-1E+10	1	-1E+10	1	-1E+10	1	-1E+10	1	-1E+10	1
4901784	177	C	05/09/2020	10:39	-132.343	43.372	0	469.60	0	5.1520	0	36.5960	8	28.928	0	465.330	0	50.2	4	16.6	4	-1E+10	1	-1E+10	1	-1E+10	1	-1E+10	1	-1E+10	1	-1E+10	1
4901784	177	C	05/09/2020	10:39	-132.343	43.372	0	472.40	0	5.1160	0	36.5970	8	28.933	0	468.101	0	49.9	4	16.5	4	-1E+10	1	-1E+10	1	-1E+10	1	-1E+10	1	-1E+10	1	-1E+10	1
4901784	177	C	05/09/2020	10:39	-132.343	43.372	0	475.30	0	5.0930	0	36.6000	8	28.938	0	470.971	0	49.6	4	16.4	4	-1E+10	1	-1E+10	1	-1E+10	1	-1E+10	1	-1E+10	1	-1E+10	1
4901784	177	C	05/09/2020	10:39	-132.343	43.372	0	477.10	0	5.0810	0	36.6000	8	28.940	0	472.753	0	49.5	4	16.3	4	-1E+10	1	-1E+10	1	-1E+10	1	-1E+10	1	-1E+10	1	-1E+10	1
4901784	177	C	05/09/2020	10:39	-132.343	43.372	0	480.00	0	5.0550	0	36.5990	8	28.942	0	475.623	0	49.3	4	16.3	4	-1E+10	1	-1E+10	1	-1E+10	1	-1E+10	1	-1E+10	1	-1E+10	1
4901784	177	C	05/09/2020	10:39	-132.343	43.372	0	482.80	0	5.0390	0	36.5970	8	28.942	0	478.395	0	49.0	4	16.2	4	-1E+10	1	-1E+10	1	-1E+10	1	-1E+10	1	-1E+10	1	-1E+10	1
4901784	177	C	05/09/2020	10:39	-132.343	43.372	0	484.70	0	4.9980	0	36.6000	8	28.950	0	480.275	0	48.8	4	16.1	4	-1E+10	1	-1E+10	1	-1E+10	1	-1E+10	1	-1E+10	1	-1E+10	1
4901784	177	C	05/09/2020	10:39	-132.343	43.372	0	487.50	0	4.9810	0	36.6000	8	28.952	0	483.046	0	48.3	4	15.9	4	-1E+10	1	-1E+10	1	-1E+10	1	-1E+10	1	-1E+10	1	-1E+10	1
4901784	177	C	05/09/2020	10:39	-132.343	43.372	0	490.30	0	4.9630	0	36.6000	8	28.954	0	485.817	0	47.7	4	15.7	4	-1E+10	1	-1E+10	1	-1E+10	1	-1E+10	1	-1E+10	1	-1E+10	1
4901784	177	C	05/09/2020	10:39	-132.343	43.372	0	492.70	0	4.9340	0	36.6060	8	28.962	0	488.193	0	47.0	4	15.4	4	-1E+10	1	-1E+10	1	-1E+10	1	-1E+10	1	-1E+10	1	-1E+10	1
4901784	177	C	05/09/2020	10:39	-132.343	43.372	0	494.70	0	4.9300	0	36.6070	8	28.964	0	490.172	0	46.4	4	15.3	4	-1E+10	1	-1E+10	1	-1E+10	1	-1E+10	1	-1E+10	1	-1E+10	1
4901784	177	C	05/09/2020	10:39	-132.343	43.372	0	497.10	0	4.9250	0	36.6110	8	28.967	0	492.547	0	45.6	4	15.0	4	-1E+10	1	-1E+10	1	-1E+10	1	-1E+10	1	-1E+10	1	-1E+10	1
4901784	177	C	05/09/2020	10:39	-132.343	43.372	0	500.40	0	4.9120	0	36.6150	8	28.972	0	495.813	0	44.7	4	14.7	4	-1E+10	1	-1E+10	1	-1E+10	1	-1E+10	1	-1E+10	1	-1E+10	1
4901784	177	C	05/09/2020	10:39	-132.343	43.372	0	504.50	0	4.9120	0	36.6200	8	28.976	0	499.870	0	43.4	4	14.3	4	-1E+10	1	-1E+10	1	-1E+10	1	-1E+10	1	-1E+10	1	-1E+10	1
4901784	177	C	05/09/2020	10:39	-132.343	43.372	0	509.40	0	4.9120	0	36.6270	8	28.982	0	504.720	0	41.8	4	13.7	4	-1E+10	1	-1E+10	1	-1E+10	1	-1E+10	1	-1E+10	1	-1E+10	1
4901784	177	C	05/09/2020	10:39	-132.343	43.372	0	514.40	0	4.8980	0	36.6320	8	28.987	0	509.667	0	40.7	4	13.4	4	-1E+10	1	-1E+10	1	-1E+10	1	-1E+10	1	-1E+10	1	-1E+10	1
4901784	177	C	05/09/2020	10:39	-132.343	43.372	0	519.40	0	4.8800	0	36.6380	8	28.994	0	514.615	0	39.7	4	13.0	4	-1E+10	1	-1E+10	1	-1E+10	1	-1E+10	1	-1E+10	1	-1E+10	1
4901784	177	C	05/09/2020	10:39	-132.343	43.372	0	524.20	0	4.8490	0	36.6410	8	29.001	0	519.365	0	38.8	4	12.7	4	-1E+10	1	-1E+10	1	-1E+10	1	-1E+10	1	-1E+10	1	-1E+10	1
4901784	177	C	05/09/2020	10:39	-132.343	43.372	0	530.00	0	4.8270	0	36.6470	8	29.008	0	525.104	0	37.6	4	12.3	4	-1E+10	1	-1E+10	1	-1E+10	1	-1E+10	1	-1E+10	1	-1E+10	1
4901784	177	C	05/09/2020	10:39	-132.343	43.372	0	535.70	0	4.7980	0	36.6520	8	29.015	0	530.744	0	36.6	4	12.0	4	-1E+10	1	-1E+10	1	-1E+10	1	-1E+10	1	-1E+10	1	-1E+10	1
4901784	177	C	05/09/2020	10:39	-132.343	43.372	0	540.60	0	4.7740	0	36.6550	8	29.021	0	535.593	0	35.4	4	11.6	4	-1E+10	1	-1E+10	1	-1E+10	1	-1E+10	1	-1E+10	1	-1E+10	1
4901784	177	C	05/09/2020	10:39	-132.343	43.372	0	545.60	0	4.7650	0	36.6640	8	29.029	0	540.540	0	34.3	4	11.2	4	-1E+10	1	-1E+10	1	-1E+10	1	-1E+10	1	-1E+10	1	-1E+10	1
4901784	177	C	05/09/2020	10:39	-132.343	43.372	0	549.90	0	4.7540	0	36.6670	8	29.033	0	544.794	0	33.8	4	11.1	4	-1E+10	1	-1E+10	1	-1E+10	1	-1E+10	1	-1E+10	1	-1E+10	1
4901784	177	C	05/09/2020	10:39	-132.343	43.372	0	554.20	0	4.7340	0	36.6690	8	29.037	0	549.049	0	33.1	4	10.8	4	-1E+10	1	-1E+10	1	-1E+10	1	-1E+10	1	-1E+10	1	-1E+10	1
4901784	177	C	05/09/2020	10:39	-132.343	43.372	0	559.30	0	4.7070	0	36.6720	8	29.042	0	554.095	0	32.3	4	10.6	4	-1E+10	1	-1E+10	1	-1E+10	1	-1E+10	1	-1E+10	1	-1E+10	1
4901784	177	C	05/09/2020	10:39	-132.343	43.372	0	564.50	0	4.6850	0	36.6770	8	29.049	0	559.239	0	31.6	4	10.3	4	-1E+10	1	-1E+10	1	-1E+10	1	-1E+10	1	-1E+10	1	-1E+10	1
4901784	177	C	05/09/2020	10:39	-132.343	43.372	0	569.80	0	4.6610	0	36.6800	8	29.054	0	564.483	0	31.0	4	10.1	4	-1E+10	1	-1E+10	1	-1E+10	1	-1E+10	1	-1E+10	1	-1E+10	1
4901784	177	C	05/09/2020	10:39	-132.343	43.372	0	575.10	0	4.6130	0	36.6800	8	29.060	0	569.726	0	30.5	4	10.0	4	-1E+10	1	-1E+10	1	-1E+10	1	-1E+10	1	-1E+10	1	-1E+10	1
4901784	177	C	05/09/2020	10:39	-132.343	43.372	0	580.40	0	4.5650	0	36.6810	8	29.066	0	574.969	0	29.7	4	9.7	4	-1E+10	1	-1E+10	1	-1E+10	1	-1E+10	1	-1E+10	1	-1E+10	1
4901784	177	C	05/09/2020	10:39	-132.343	43.372	0	584.90	0	4.5480	0	36.6850	8	29.071	0	579.421	0	28.8	4	9.4	4	-1E+10	1	-1E+10	1	-1E+10	1	-1E+10	1	-1E+10	1	-1E+10	1
4901784	177	C	05/09/2020	10:39	-132.343	43.372	0	589.30	0	4.5210	0	36.6910	8	29.079	0	583.773	0	27.9	4	9.1	4	-1E+10	1	-1E+10	1	-1E+10	1	-1E+10	1	-1E+10	1	-1E+10	1
4901784	177	C	05/09/2020	10:39	-132.343	43.372	0	594.60	0	4.4950	0	36.6950	8	29.085	0	589.016	0	27.2	4	8.9	4	-1E+10	1	-1E+10	1	-1E+10	1	-1E+10	1	-1E+10	1	-1E+10	1
4901784	177	C	05/09/2020	10:39	-132.343	43.372	0	600.10	0	4.4620	0	36.6990	8	29.092	0	594.457	0	26.3	4	8.6	4	-1E+10	1	-1E+10	1	-1E+10	1	-1E+10	1	-1E+10	1	-1E+10	1
4901784	177	C	05/09/2020	10:39	-132.343	43.372	0	605.50	0	4.4220	0	36.7050	8	29.102	0	599.798	0	25.5	4	8.3	4	-1E+10	1	-1E+10	1	-1E+10	1	-1E+10	1	-1E+10	1	-1E+10	1
4901784	177	C	05/09/2020	10:39	-132.343	43.372	0	610.20	0	4.4050	0	36.7080	8	29.106	0	604.447	0	25.0	4	8.1	4	-1E+10	1	-1E+10	1	-1E+10	1	-1E+10	1	-1E+10	1	-1E+10	1
4901784	177	C	05/09/2020	10:39	-132.343	43.372	0	614.90	0	4.3910	0	36.7110	8	29.110	0	609.096	0	24.1	4	7.8	4	-1E+10	1	-1E+10	1	-1E+10	1	-1E+10	1	-1E+10	1	-1E+10	1
4901784	177	C	05/09/2020	10:39	-132.343	43.372	0	619.60	0	4.3700	0	36.7190	8	29.119	0	613.744	0	23.2	4	7.5	4	-1E+10	1	-1E+10	1	-1E+10	1	-1E+10	1	-1E+10	1	-1E+10	1
4901784	177	C	05/09/2020	10:39	-132.343	43.372	0	624.40	0	4.3570	0	36.7240	8	29.124	0	618.492	0	22.6	4	7.3	4	-1E+10	1	-1E+10	1	-1E+10	1	-1E+10	1	-1E+10	1	-1E+10	1
4901784	177	C	05/09/2020	10:39	-132.343	43.372	0	630.20	0	4.3480	0	36.7280	8	29.129	0	624.228	0	21.8	4	7.1	4	-1E+10	1	-1E+10	1	-1E+10	1	-1E+10	1	-1E+10	1	-1E+10	1
4901784	177	C	05/09/2020	10:39	-132.343	43.372	0	634.90	0	4.3380	0	36.7310	8	29.132	0	628.877	0	21.1	4	6.8	4	-1E+10	1	-1E+10	1	-1E+10	1	-1E+10	1	-1E+10	1	-1E+10	1
4901784	177	C	05/09/2020	10:39	-132.343	43.372	0	639.80	0	4.3210	0	36.7390	8	29.140	0	633.723	0	20.2	4	6.5	4	-1E+10	1	-1E+10	1	-1E+10	1	-1E+10	1	-1E+10	1	-1E+10	1
4901784	177	C	05/09/2020	10:39	-132.343	43.372	0	645.60	0	4.2970	0	36.7510	8	29.153	0	639.459	0	19.4	4	6.3	4	-1E+10	1	-1E+10	1	-1E+10	1	-1E+10	1	-1E+10	1	-1E+10	1
4901784	177	C	05/09/2020	10:39	-132.343	43.372	0	651.00	0	4.2830	0	36.7570	8	29.159	0	644.799	0	19.1	4	6.2	4	-1E+10	1	-1E+10	1	-1E+10	1	-1E+10	1	-1E+10	1	-1E+10	1
4901784	177	C	05/09/2020	10:39	-132.343	43.372	0	655.30	0	4.2790	0	36.7590	8	29.161	0	649.051	0	18.9	4	6.1	4	-1E+10	1	-1E+10	1	-1E+10	1	-1E+10	1	-1E+10	1	-1E+10	1
4901784	177	C	05/09/2020	10:39	-132.343	43.372	0	660.20	0	4.2750	0	36.7600	8	29.163	0	653.897	0	18.7	4	6.1	4	-1E+10	1	-1E+10	1	-1E+10	1	-1E+10	1	-1E+10	1	-1E+10	1
4901784	177	C	05/09/2020	10:39	-132.343	43.372	0	665.10	0	4.2700	0	36.7620	8	29.165	0	658.743	0	18.4	4	6.0	4	-1E+10	1	-1E+10	1	-1E+10	1	-1E+10	1	-1E+10	1	-1E+10	1
4901784	177	C	05/09/2020	10:39	-132.343	43.372	0	670.10	0	4.2580	0	36.7660	8	29.169	0	663.687	0	18.0	4	5.8	4	-1E+10	1	-1E+10	1	-1E+10	1	-1E+10	1	-1E+10	1	-1E+10	1
4901784	177	C	05/09/2020	10:39	-132.343	43.372	0	675.00	0	4.2420	0	36.7700	8	29.174	0	668.532	0	17.7	4	5.7	4	-1E+10	1	-1E+10	1	-1E+10	1	-1E+10	1	-1E+10	1	-1E+10	1
4901784	177	C	05/09/2020	10:39	-132.343	43.372	0	680.00	0	4.2400	0	36.7750	8	29.179	0	673.476	0	17.3	4	5.6	4	-1E+10	1	-1E+10	1	-1E+10	1	-1E+10	1	-1E+10	1	-1E+10	1
4901784	177	C	05/09/2020	10:39	-132.343	43.372	0	685.10	0	4.2330	0	36.7790	8	29.183	0	678.519	0	17.0	4	5.5	4	-1E+10	1	-1E+10	1	-1E+10	1	-1E+10	1	-1E+10	1	-1E+10	1
4901784	177	C	05/09/2020	10:39	-132.343	43.372	0	690.20	0	4.2190	0	36.7830	8	29.187	0	683.562	0	16.6	4	5.4	4	-1E+10	1	-1E+10	1	-1E+10	1	-1E+10	1	-1E+10	1	-1E+10	1
4901784	177	C	05/09/2020	10:39	-132.343	43.372	0	695.20	0	4.2100	0	36.7870	8	29.192	0	688.505	0	16.4	4	5.3	4	-1E+10	1	-1E+10	1	-1E+10	1	-1E+10	1	-1E+10	1	-1E+10	1
4901784	177	C	05/09/2020	10:39	-132.343	43.372	0	700.30	0	4.2010	0	36.7890	8	29.194	0	693.548	0	16.1	4	5.2	4	-1E+10	1	-1E+10	1	-1E+10	1	-1E+10	1	-1E+10	1	-1E+10	1
4901784	177	C	05/09/2020	10:39	-132.343	43.372	0	705.50	0	4.1870	0	36.7950	8	29.201	0	698.689	0	15.7	4	5.1	4	-1E+10	1	-1E+10	1	-1E+10	1	-1E+10	1	-1E+10	1	-1E+10	1
4901784	177	C	05/09/2020	10:39	-132.343	43.372	0	710.70	0	4.1720	0	36.8000	8	29.206	0	703.830	0	15.3	4	5.0	4	-1E+10	1	-1E+10	1	-1E+10	1	-1E+10	1	-1E+10	1	-1E+10	1
4901784	177	C	05/09/2020	10:39	-132.343	43.372	0	715.10	0	4.1590	0	36.8040	8	29.211	0	708.180	0	15.0	4	4.8	4	-1E+10	1	-1E+10	1	-1E+10	1	-1E+10	1	-1E+10	1	-1E+10	1
4901784	177	C	05/09/2020	10:39	-132.343	43.372	0	719.50	0	4.1420	0	36.8100	8	29.218	0	712.530	0	14.8	4	4.8	4	-1E+10	1	-1E+10	1	-1E+10	1	-1E+10	1	-1E+10	1	-1E+10	1
4901784	177	C	05/09/2020	10:39	-132.343	43.372	0	724.90	0	4.1330	0	36.8140	8	29.222	0	717.868	0	14.5	4	4.7	4	-1E+10	1	-1E+10	1	-1E+10	1	-1E+10	1	-1E+10	1	-1E+10	1
4901784	177	C	05/09/2020	10:39	-132.343	43.372	0	730.20	0	4.1250	0	36.8170	8	29.225	0	723.107	0	14.3	4	4.6	4	-1E+10	1	-1E+10	1	-1E+10	1	-1E+10	1	-1E+10	1	-1E+10	1
4901784	177	C	05/09/2020	10:39	-132.343	43.372	0	735.50	0	4.1150	0	36.8210	8	29.230	0	728.347	0	14.1	4	4.6	4	-1E+10	1	-1E+10	1	-1E+10	1	-1E+10	1	-1E+10	1	-1E+10	1
4901784	177	C	05/09/2020	10:39	-132.343	43.372	0	740.00	0	4.1110	0	36.8230	8	29.232	0	732.795	0	13.9	4	4.5	4	-1E+10	1	-1E+10	1	-1E+10	1	-1E+10	1	-1E+10	1	-1E+10	1
4901784	177	C	05/09/2020	10:39	-132.343	43.372	0	744.50	0	4.1000	0	36.8270	8	29.236	0	737.243	0	13.8	4	4.4	4	-1E+10	1	-1E+10	1	-1E+10	1	-1E+10	1	-1E+10	1	-1E+10	1
4901784	177	C	05/09/2020	10:39	-132.343	43.372	0	750.00	0	4.0890	0	36.8300	8	29.240	0	742.680	0	13.5	4	4.4	4	-1E+10	1	-1E+10	1	-1E+10	1	-1E+10	1	-1E+10	1	-1E+10	1
4901784	177	C	05/09/2020	10:39	-132.343	43.372	0	755.40	0	4.0760	0	36.8350	8	29.245	0	748.018	0	13.3	4	4.3	4	-1E+10	1	-1E+10	1	-1E+10	1	-1E+10	1	-1E+10	1	-1E+10	1
4901784	177	C	05/09/2020	10:39	-132.343	43.372	0	760.00	0	4.0720	0	36.8390	8	29.249	0	752.564	0	13.1	4	4.2	4	-1E+10	1	-1E+10	1	-1E+10	1	-1E+10	1	-1E+10	1	-1E+10	1
4901784	177	C	05/09/2020	10:39	-132.343	43.372	0	764.50	0	4.0630	0	36.8410	8	29.251	0	757.012	0	12.9	4	4.2	4	-1E+10	1	-1E+10	1	-1E+10	1	-1E+10	1	-1E+10	1	-1E+10	1
4901784	177	C	05/09/2020	10:39	-132.343	43.372	0	769.90	0	4.0510	0	36.8460	8	29.257	0	762.349	0	12.7	4	4.1	4	-1E+10	1	-1E+10	1	-1E+10	1	-1E+10	1	-1E+10	1	-1E+10	1
4901784	177	C	05/09/2020	10:39	-132.343	43.372	0	775.50	0	4.0360	0	36.8510	8	29.262	0	767.884	0	12.6	4	4.1	4	-1E+10	1	-1E+10	1	-1E+10	1	-1E+10	1	-1E+10	1	-1E+10	1
4901784	177	C	05/09/2020	10:39	-132.343	43.372	0	780.00	0	4.0230	0	36.8540	8	29.266	0	772.332	0	12.4	4	4.0	4	-1E+10	1	-1E+10	1	-1E+10	1	-1E+10	1	-1E+10	1	-1E+10	1
4901784	177	C	05/09/2020	10:39	-132.343	43.372	0	784.70	0	4.0140	0	36.8560	8	29.269	0	776.977	0	12.3	4	3.9	4	-1E+10	1	-1E+10	1	-1E+10	1	-1E+10	1	-1E+10	1	-1E+10	1
4901784	177	C	05/09/2020	10:39	-132.343	43.372	0	790.30	0	4.0010	0	36.8630	8	29.276	0	782.511	0	12.0	4	3.9	4	-1E+10	1	-1E+10	1	-1E+10	1	-1E+10	1	-1E+10	1	-1E+10	1
4901784	177	C	05/09/2020	10:39	-132.343	43.372	0	795.00	0	3.9930	0	36.8680	8	29.281	0	787.156	0	11.8	4	3.8	4	-1E+10	1	-1E+10	1	-1E+10	1	-1E+10	1	-1E+10	1	-1E+10	1
4901784	177	C	05/09/2020	10:39	-132.343	43.372	0	799.70	0	3.9850	0	36.8700	8	29.283	0	791.801	0	11.7	4	3.8	4	-1E+10	1	-1E+10	1	-1E+10	1	-1E+10	1	-1E+10	1	-1E+10	1
4901784	177	C	05/09/2020	10:39	-132.343	43.372	0	805.40	0	3.9710	0	36.8750	8	29.289	0	797.433	0	11.6	4	3.7	4	-1E+10	1	-1E+10	1	-1E+10	1	-1E+10	1	-1E+10	1	-1E+10	1
4901784	177	C	05/09/2020	10:39	-132.343	43.372	0	810.20	0	3.9580	0	36.8790	8	29.294	0	802.177	0	11.5	4	3.7	4	-1E+10	1	-1E+10	1	-1E+10	1	-1E+10	1	-1E+10	1	-1E+10	1
4901784	177	C	05/09/2020	10:39	-132.343	43.372	0	815.00	0	3.9410	0	36.8830	8	29.299	0	806.920	0	11.4	4	3.7	4	-1E+10	1	-1E+10	1	-1E+10	1	-1E+10	1	-1E+10	1	-1E+10	1
4901784	177	C	05/09/2020	10:39	-132.343	43.372	0	819.80	0	3.9360	0	36.8840	8	29.300	0	811.663	0	11.3	4	3.6	4	-1E+10	1	-1E+10	1	-1E+10	1	-1E+10	1	-1E+10	1	-1E+10	1
4901784	177	C	05/09/2020	10:39	-132.343	43.372	0	824.50	0	3.9250	0	36.8860	8	29.303	0	816.307	0	11.2	4	3.6	4	-1E+10	1	-1E+10	1	-1E+10	1	-1E+10	1	-1E+10	1	-1E+10	1
4901784	177	C	05/09/2020	10:39	-132.343	43.372	0	830.40	0	3.9040	0	36.8910	8	29.309	0	822.137	0	11.1	4	3.6	4	-1E+10	1	-1E+10	1	-1E+10	1	-1E+10	1	-1E+10	1	-1E+10	1
4901784	177	C	05/09/2020	10:39	-132.343	43.372	0	835.10	0	3.8890	0	36.8960	8	29.315	0	826.781	0	11.0	4	3.5	4	-1E+10	1	-1E+10	1	-1E+10	1	-1E+10	1	-1E+10	1	-1E+10	1
4901784	177	C	05/09/2020	10:39	-132.343	43.372	0	840.00	0	3.8800	0	36.8990	8	29.318	0	831.622	0	10.9	4	3.5	4	-1E+10	1	-1E+10	1	-1E+10	1	-1E+10	1	-1E+10	1	-1E+10	1
4901784	177	C	05/09/2020	10:39	-132.343	43.372	0	844.80	0	3.8720	0	36.9020	8	29.321	0	836.365	0	10.8	4	3.5	4	-1E+10	1	-1E+10	1	-1E+10	1	-1E+10	1	-1E+10	1	-1E+10	1
4901784	177	C	05/09/2020	10:39	-132.343	43.372	0	849.60	0	3.8600	0	36.9050	8	29.325	0	841.107	0	10.7	4	3.5	4	-1E+10	1	-1E+10	1	-1E+10	1	-1E+10	1	-1E+10	1	-1E+10	1
4901784	177	C	05/09/2020	10:39	-132.343	43.372	0	854.40	0	3.8520	0	36.9080	8	29.328	0	845.850	0	10.7	4	3.4	4	-1E+10	1	-1E+10	1	-1E+10	1	-1E+10	1	-1E+10	1	-1E+10	1
4901784	177	C	05/09/2020	10:39	-132.343	43.372	0	859.10	0	3.8370	0	36.9130	8	29.334	0	850.493	0	10.6	4	3.4	4	-1E+10	1	-1E+10	1	-1E+10	1	-1E+10	1	-1E+10	1	-1E+10	1
4901784	177	C	05/09/2020	10:39	-132.343	43.372	0	864.50	0	3.8140	0	36.9190	8	29.341	0	855.828	0	10.5	4	3.4	4	-1E+10	1	-1E+10	1	-1E+10	1	-1E+10	1	-1E+10	1	-1E+10	1
4901784	177	C	05/09/2020	10:39	-132.343	43.372	0	869.40	0	3.8050	0	36.9220	8	29.345	0	860.669	0	10.4	4	3.4	4	-1E+10	1	-1E+10	1	-1E+10	1	-1E+10	1	-1E+10	1	-1E+10	1
4901784	177	C	05/09/2020	10:39	-132.343	43.372	0	874.40	0	3.8020	0	36.9240	8	29.347	0	865.608	0	10.4	4	3.3	4	-1E+10	1	-1E+10	1	-1E+10	1	-1E+10	1	-1E+10	1	-1E+10	1
4901784	177	C	05/09/2020	10:39	-132.343	43.372	0	879.30	0	3.7930	0	36.9270	8	29.350	0	870.449	0	10.3	4	3.3	4	-1E+10	1	-1E+10	1	-1E+10	1	-1E+10	1	-1E+10	1	-1E+10	1
4901784	177	C	05/09/2020	10:39	-132.343	43.372	0	884.40	0	3.7760	0	36.9310	8	29.355	0	875.487	0	10.3	4	3.3	4	-1E+10	1	-1E+10	1	-1E+10	1	-1E+10	1	-1E+10	1	-1E+10	1
4901784	177	C	05/09/2020	10:39	-132.343	43.372	0	889.30	0	3.7680	0	36.9330	8	29.358	0	880.327	0	10.3	4	3.3	4	-1E+10	1	-1E+10	1	-1E+10	1	-1E+10	1	-1E+10	1	-1E+10	1
4901784	177	C	05/09/2020	10:39	-132.343	43.372	0	894.40	0	3.7570	0	36.9370	8	29.362	0	885.365	0	10.2	4	3.3	4	-1E+10	1	-1E+10	1	-1E+10	1	-1E+10	1	-1E+10	1	-1E+10	1
4901784	177	C	05/09/2020	10:39	-132.343	43.372	0	899.40	0	3.7490	0	36.9400	8	29.365	0	890.304	0	10.2	4	3.3	4	-1E+10	1	-1E+10	1	-1E+10	1	-1E+10	1	-1E+10	1	-1E+10	1
4901784	177	C	05/09/2020	10:39	-132.343	43.372	0	904.40	0	3.7400	0	36.9430	8	29.369	0	895.242	0	10.1	4	3.2	4	-1E+10	1	-1E+10	1	-1E+10	1	-1E+10	1	-1E+10	1	-1E+10	1
4901784	177	C	05/09/2020	10:39	-132.343	43.372	0	909.30	0	3.7330	0	36.9450	8	29.371	0	900.082	0	10.1	4	3.2	4	-1E+10	1	-1E+10	1	-1E+10	1	-1E+10	1	-1E+10	1	-1E+10	1
4901784	177	C	05/09/2020	10:39	-132.343	43.372	0	914.40	0	3.7160	0	36.9490	8	29.376	0	905.119	0	10.1	4	3.2	4	-1E+10	1	-1E+10	1	-1E+10	1	-1E+10	1	-1E+10	1	-1E+10	1
4901784	177	C	05/09/2020	10:39	-132.343	43.372	0	919.50	0	3.7000	0	36.9530	8	29.381	0	910.157	0	10.1	4	3.2	4	-1E+10	1	-1E+10	1	-1E+10	1	-1E+10	1	-1E+10	1	-1E+10	1
4901784	177	C	05/09/2020	10:39	-132.343	43.372	0	924.70	0	3.6910	0	36.9560	8	29.384	0	915.292	0	10.1	4	3.2	4	-1E+10	1	-1E+10	1	-1E+10	1	-1E+10	1	-1E+10	1	-1E+10	1
4901784	177	C	05/09/2020	10:39	-132.343	43.372	0	929.90	0	3.6830	0	36.9580	8	29.387	0	920.428	0	10.0	4	3.2	4	-1E+10	1	-1E+10	1	-1E+10	1	-1E+10	1	-1E+10	1	-1E+10	1
4901784	177	C	05/09/2020	10:39	-132.343	43.372	0	935.00	0	3.6710	0	36.9610	8	29.391	0	925.465	0	10.0	4	3.2	4	-1E+10	1	-1E+10	1	-1E+10	1	-1E+10	1	-1E+10	1	-1E+10	1
4901784	177	C	05/09/2020	10:39	-132.343	43.372	0	940.20	0	3.6540	0	36.9650	8	29.396	0	930.600	0	10.0	4	3.2	4	-1E+10	1	-1E+10	1	-1E+10	1	-1E+10	1	-1E+10	1	-1E+10	1
4901784	177	C	05/09/2020	10:39	-132.343	43.372	0	945.50	0	3.6430	0	36.9680	8	29.399	0	935.834	0	10.0	4	3.2	4	-1E+10	1	-1E+10	1	-1E+10	1	-1E+10	1	-1E+10	1	-1E+10	1
4901784	177	C	05/09/2020	10:39	-132.343	43.372	0	950.70	0	3.6330	0	36.9710	8	29.403	0	940.969	0	10.0	4	3.2	4	-1E+10	1	-1E+10	1	-1E+10	1	-1E+10	1	-1E+10	1	-1E+10	1
4901784	177	C	05/09/2020	10:39	-132.343	43.372	0	955.00	0	3.6250	0	36.9730	8	29.405	0	945.216	0	10.0	4	3.2	4	-1E+10	1	-1E+10	1	-1E+10	1	-1E+10	1	-1E+10	1	-1E+10	1
4901784	177	C	05/09/2020	10:39	-132.343	43.372	0	959.20	0	3.6130	0	36.9760	8	29.409	0	949.363	0	10.0	4	3.2	4	-1E+10	1	-1E+10	1	-1E+10	1	-1E+10	1	-1E+10	1	-1E+10	1
4901784	177	C	05/09/2020	10:39	-132.343	43.372	0	964.50	0	3.5960	0	36.9800	8	29.414	0	954.597	0	10.0	4	3.2	4	-1E+10	1	-1E+10	1	-1E+10	1	-1E+10	1	-1E+10	1	-1E+10	1
4901784	177	C	05/09/2020	10:39	-132.343	43.372	0	969.90	0	3.5830	0	36.9840	8	29.418	0	959.929	0	10.1	4	3.2	4	-1E+10	1	-1E+10	1	-1E+10	1	-1E+10	1	-1E+10	1	-1E+10	1
4901784	177	C	05/09/2020	10:39	-132.343	43.372	0	975.20	0	3.5740	0	36.9870	8	29.422	0	965.162	0	10.1	4	3.2	4	-1E+10	1	-1E+10	1	-1E+10	1	-1E+10	1	-1E+10	1	-1E+10	1
4901784	177	C	05/09/2020	10:39	-132.343	43.372	0	980.50	0	3.5700	0	36.9880	8	29.423	0	970.395	0	10.1	4	3.2	4	-1E+10	1	-1E+10	1	-1E+10	1	-1E+10	1	-1E+10	1	-1E+10	1
4901784	177	C	05/09/2020	10:39	-132.343	43.372	0	984.90	0	3.5610	0	36.9900	8	29.426	0	974.740	0	10.1	4	3.2	4	-1E+10	1	-1E+10	1	-1E+10	1	-1E+10	1	-1E+10	1	-1E+10	1
4901784	177	C	05/09/2020	10:39	-132.343	43.372	0	989.50	0	3.5510	0	36.9930	8	29.429	0	979.282	0	10.2	4	3.2	4	-1E+10	1	-1E+10	1	-1E+10	1	-1E+10	1	-1E+10	1	-1E+10	1
4901784	177	C	05/09/2020	10:39	-132.343	43.372	0	995.00	0	3.5390	0	36.9960	8	29.433	0	984.712	0	10.2	4	3.2	4	-1E+10	1	-1E+10	1	-1E+10	1	-1E+10	1	-1E+10	1	-1E+10	1
4901784	177	C	05/09/2020	10:39	-132.343	43.372	0	1000.50	0	3.5270	0	37.0000	8	29.437	0	990.142	0	10.2	4	3.3	4	-1E+10	1	-1E+10	1	-1E+10	1	-1E+10	1	-1E+10	1	-1E+10	1
4901784	177	C	05/09/2020	10:39	-132.343	43.372	0	1005.10	0	3.5200	0	37.0020	8	29.440	0	994.684	0	10.2	4	3.3	4	-1E+10	1	-1E+10	1	-1E+10	1	-1E+10	1	-1E+10	1	-1E+10	1
4901784	177	C	05/09/2020	10:39	-132.343	43.372	0	1009.80	0	3.5120	0	37.0030	8	29.441	0	999.324	0	10.3	4	3.3	4	-1E+10	1	-1E+10	1	-1E+10	1	-1E+10	1	-1E+10	1	-1E+10	1
4901784	177	C	05/09/2020	10:39	-132.343	43.372	0	1015.20	0	3.5050	0	37.0060	8	29.444	0	1004.655	0	10.3	4	3.3	4	-1E+10	1	-1E+10	1	-1E+10	1	-1E+10	1	-1E+10	1	-1E+10	1
4901784	177	C	05/09/2020	10:39	-132.343	43.372	0	1020.60	0	3.4930	0	37.0090	8	29.448	0	1009.986	0	10.4	4	3.3	4	-1E+10	1	-1E+10	1	-1E+10	1	-1E+10	1	-1E+10	1	-1E+10	1
4901784	177	C	05/09/2020	10:39	-132.343	43.372	0	1025.50	0	3.4860	0	37.0110	8	29.450	0	1014.823	0	10.4	4	3.3	4	-1E+10	1	-1E+10	1	-1E+10	1	-1E+10	1	-1E+10	1	-1E+10	1
4901784	177	C	05/09/2020	10:39	-132.343	43.372	0	1030.30	0	3.4750	0	37.0130	8	29.453	0	1019.561	0	10.5	4	3.3	4	-1E+10	1	-1E+10	1	-1E+10	1	-1E+10	1	-1E+10	1	-1E+10	1
4901784	177	C	05/09/2020	10:39	-132.343	43.372	0	1035.20	0	3.4560	0	37.0180	8	29.459	0	1024.398	0	10.6	4	3.4	4	-1E+10	1	-1E+10	1	-1E+10	1	-1E+10	1	-1E+10	1	-1E+10	1
4901784	177	C	05/09/2020	10:39	-132.343	43.372	0	1040.20	0	3.4440	0	37.0210	8	29.463	0	1029.334	0	10.6	4	3.4	4	-1E+10	1	-1E+10	1	-1E+10	1	-1E+10	1	-1E+10	1	-1E+10	1
4901784	177	C	05/09/2020	10:39	-132.343	43.372	0	1045.20	0	3.4330	0	37.0240	8	29.466	0	1034.269	0	10.7	4	3.4	4	-1E+10	1	-1E+10	1	-1E+10	1	-1E+10	1	-1E+10	1	-1E+10	1
4901784	177	C	05/09/2020	10:39	-132.343	43.372	0	1050.30	0	3.4270	0	37.0250	8	29.468	0	1039.303	0	10.7	4	3.4	4	-1E+10	1	-1E+10	1	-1E+10	1	-1E+10	1	-1E+10	1	-1E+10	1
4901784	177	C	05/09/2020	10:39	-132.343	43.372	0	1055.40	0	3.4170	0	37.0280	8	29.471	0	1044.337	0	10.9	4	3.5	4	-1E+10	1	-1E+10	1	-1E+10	1	-1E+10	1	-1E+10	1	-1E+10	1
4901784	177	C	05/09/2020	10:39	-132.343	43.372	0	1060.40	0	3.4030	0	37.0320	8	29.476	0	1049.272	0	11.0	4	3.5	4	-1E+10	1	-1E+10	1	-1E+10	1	-1E+10	1	-1E+10	1	-1E+10	1
4901784	177	C	05/09/2020	10:39	-132.343	43.372	0	1065.40	0	3.3930	0	37.0350	8	29.479	0	1054.207	0	11.0	4	3.5	4	-1E+10	1	-1E+10	1	-1E+10	1	-1E+10	1	-1E+10	1	-1E+10	1
4901784	177	C	05/09/2020	10:39	-132.343	43.372	0	1070.50	0	3.3790	0	37.0390	8	29.484	0	1059.241	0	11.1	4	3.5	4	-1E+10	1	-1E+10	1	-1E+10	1	-1E+10	1	-1E+10	1	-1E+10	1
4901784	177	C	05/09/2020	10:39	-132.343	43.372	0	1074.90	0	3.3670	0	37.0420	8	29.488	0	1063.583	0	11.2	4	3.6	4	-1E+10	1	-1E+10	1	-1E+10	1	-1E+10	1	-1E+10	1	-1E+10	1
4901784	177	C	05/09/2020	10:39	-132.343	43.372	0	1079.40	0	3.3570	0	37.0430	8	29.490	0	1068.024	0	11.3	4	3.6	4	-1E+10	1	-1E+10	1	-1E+10	1	-1E+10	1	-1E+10	1	-1E+10	1
4901784	177	C	05/09/2020	10:39	-132.343	43.372	0	1084.90	0	3.3410	0	37.0450	8	29.493	0	1073.452	0	11.4	4	3.6	4	-1E+10	1	-1E+10	1	-1E+10	1	-1E+10	1	-1E+10	1	-1E+10	1
4901784	177	C	05/09/2020	10:39	-132.343	43.372	0	1090.60	0	3.3270	0	37.0480	8	29.497	0	1079.078	0	11.5	4	3.6	4	-1E+10	1	-1E+10	1	-1E+10	1	-1E+10	1	-1E+10	1	-1E+10	1
4901784	177	C	05/09/2020	10:39	-132.343	43.372	0	1095.40	0	3.3090	0	37.0520	8	29.502	0	1083.815	0	11.6	4	3.7	4	-1E+10	1	-1E+10	1	-1E+10	1	-1E+10	1	-1E+10	1	-1E+10	1
4901784	177	C	05/09/2020	10:39	-132.343	43.372	0	1100.20	0	3.2990	0	37.0540	8	29.504	0	1088.551	0	11.7	4	3.7	4	-1E+10	1	-1E+10	1	-1E+10	1	-1E+10	1	-1E+10	1	-1E+10	1
4901784	177	C	05/09/2020	10:39	-132.343	43.372	0	1105.00	0	3.2920	0	37.0550	8	29.506	0	1093.288	0	11.7	4	3.7	4	-1E+10	1	-1E+10	1	-1E+10	1	-1E+10	1	-1E+10	1	-1E+10	1
4901784	177	C	05/09/2020	10:39	-132.343	43.372	0	1109.90	0	3.2810	0	37.0570	8	29.509	0	1098.123	0	11.9	4	3.8	4	-1E+10	1	-1E+10	1	-1E+10	1	-1E+10	1	-1E+10	1	-1E+10	1
4901784	177	C	05/09/2020	10:39	-132.343	43.372	0	1114.80	0	3.2690	0	37.0600	8	29.512	0	1102.958	0	12.0	4	3.8	4	-1E+10	1	-1E+10	1	-1E+10	1	-1E+10	1	-1E+10	1	-1E+10	1
4901784	177	C	05/09/2020	10:39	-132.343	43.372	0	1119.70	0	3.2540	0	37.0630	8	29.516	0	1107.793	0	12.1	4	3.8	4	-1E+10	1	-1E+10	1	-1E+10	1	-1E+10	1	-1E+10	1	-1E+10	1
4901784	177	C	05/09/2020	10:39	-132.343	43.372	0	1124.60	0	3.2410	0	37.0650	8	29.519	0	1112.628	0	12.2	4	3.9	4	-1E+10	1	-1E+10	1	-1E+10	1	-1E+10	1	-1E+10	1	-1E+10	1
4901784	177	C	05/09/2020	10:39	-132.343	43.372	0	1129.60	0	3.2370	0	37.0670	8	29.521	0	1117.562	0	12.3	4	3.9	4	-1E+10	1	-1E+10	1	-1E+10	1	-1E+10	1	-1E+10	1	-1E+10	1
4901784	177	C	05/09/2020	10:39	-132.343	43.372	0	1134.60	0	3.2300	0	37.0700	8	29.524	0	1122.495	0	12.5	4	4.0	4	-1E+10	1	-1E+10	1	-1E+10	1	-1E+10	1	-1E+10	1	-1E+10	1
4901784	177	C	05/09/2020	10:39	-132.343	43.372	0	1139.60	0	3.2230	0	37.0720	8	29.527	0	1127.428	0	12.7	4	4.0	4	-1E+10	1	-1E+10	1	-1E+10	1	-1E+10	1	-1E+10	1	-1E+10	1
4901784	177	C	05/09/2020	10:39	-132.343	43.372	0	1144.60	0	3.2090	0	37.0750	8	29.530	0	1132.361	0	12.7	4	4.0	4	-1E+10	1	-1E+10	1	-1E+10	1	-1E+10	1	-1E+10	1	-1E+10	1
4901784	177	C	05/09/2020	10:39	-132.343	43.372	0	1149.70	0	3.2050	0	37.0760	8	29.532	0	1137.393	0	12.8	4	4.1	4	-1E+10	1	-1E+10	1	-1E+10	1	-1E+10	1	-1E+10	1	-1E+10	1
4901784	177	C	05/09/2020	10:39	-132.343	43.372	0	1154.70	0	3.1990	0	37.0770	8	29.533	0	1142.326	0	12.9	4	4.1	4	-1E+10	1	-1E+10	1	-1E+10	1	-1E+10	1	-1E+10	1	-1E+10	1
4901784	177	C	05/09/2020	10:39	-132.343	43.372	0	1159.80	0	3.1850	0	37.0780	8	29.535	0	1147.358	0	13.1	4	4.1	4	-1E+10	1	-1E+10	1	-1E+10	1	-1E+10	1	-1E+10	1	-1E+10	1
4901784	177	C	05/09/2020	10:39	-132.343	43.372	0	1164.90	0	3.1640	0	37.0830	8	29.542	0	1152.389	0	13.2	4	4.2	4	-1E+10	1	-1E+10	1	-1E+10	1	-1E+10	1	-1E+10	1	-1E+10	1
4901784	177	C	05/09/2020	10:39	-132.343	43.372	0	1169.90	0	3.1620	0	37.0840	8	29.543	0	1157.321	0	13.4	4	4.2	4	-1E+10	1	-1E+10	1	-1E+10	1	-1E+10	1	-1E+10	1	-1E+10	1
4901784	177	C	05/09/2020	10:39	-132.343	43.372	0	1175.00	0	3.1600	0	37.0860	8	29.544	0	1162.352	0	13.5	4	4.3	4	-1E+10	1	-1E+10	1	-1E+10	1	-1E+10	1	-1E+10	1	-1E+10	1
4901784	177	C	05/09/2020	10:39	-132.343	43.372	0	1180.10	0	3.1480	0	37.0870	8	29.546	0	1167.383	0	13.6	4	4.3	4	-1E+10	1	-1E+10	1	-1E+10	1	-1E+10	1	-1E+10	1	-1E+10	1
4901784	177	C	05/09/2020	10:39	-132.343	43.372	0	1185.10	0	3.1300	0	37.0890	8	29.550	0	1172.316	0	13.7	4	4.3	4	-1E+10	1	-1E+10	1	-1E+10	1	-1E+10	1	-1E+10	1	-1E+10	1
4901784	177	C	05/09/2020	10:39	-132.343	43.372	0	1190.20	0	3.1230	0	37.0910	8	29.552	0	1177.346	0	13.8	4	4.4	4	-1E+10	1	-1E+10	1	-1E+10	1	-1E+10	1	-1E+10	1	-1E+10	1
4901784	177	C	05/09/2020	10:39	-132.343	43.372	0	1195.30	0	3.1190	0	37.0920	8	29.553	0	1182.377	0	14.0	4	4.4	4	-1E+10	1	-1E+10	1	-1E+10	1	-1E+10	1	-1E+10	1	-1E+10	1
4901784	177	C	05/09/2020	10:39	-132.343	43.372	0	1199.50	0	3.1140	0	37.0940	8	29.556	0	1186.520	0	14.2	4	4.5	4	-1E+10	1	-1E+10	1	-1E+10	1	-1E+10	1	-1E+10	1	-1E+10	1
4901784	177	C	05/09/2020	10:39	-132.343	43.372	0	1204.60	0	3.1000	0	37.0970	8	29.559	0	1191.550	0	14.4	4	4.5	4	-1E+10	1	-1E+10	1	-1E+10	1	-1E+10	1	-1E+10	1	-1E+10	1
4901784	177	C	05/09/2020	10:39	-132.343	43.372	0	1209.70	0	3.0870	0	37.1000	8	29.563	0	1196.580	0	14.5	4	4.6	4	-1E+10	1	-1E+10	1	-1E+10	1	-1E+10	1	-1E+10	1	-1E+10	1
4901784	177	C	05/09/2020	10:39	-132.343	43.372	0	1214.80	0	3.0800	0	37.1010	8	29.565	0	1201.610	0	14.6	4	4.6	4	-1E+10	1	-1E+10	1	-1E+10	1	-1E+10	1	-1E+10	1	-1E+10	1
4901784	177	C	05/09/2020	10:39	-132.343	43.372	0	1219.70	0	3.0720	0	37.1020	8	29.566	0	1206.443	0	14.8	4	4.7	4	-1E+10	1	-1E+10	1	-1E+10	1	-1E+10	1	-1E+10	1	-1E+10	1
4901784	177	C	05/09/2020	10:39	-132.343	43.372	0	1224.50	0	3.0600	0	37.1040	8	29.569	0	1211.177	0	14.8	4	4.7	4	-1E+10	1	-1E+10	1	-1E+10	1	-1E+10	1	-1E+10	1	-1E+10	1
4901784	177	C	05/09/2020	10:39	-132.343	43.372	0	1230.00	0	3.0510	0	37.1050	8	29.571	0	1216.601	0	14.9	4	4.7	4	-1E+10	1	-1E+10	1	-1E+10	1	-1E+10	1	-1E+10	1	-1E+10	1
4901784	177	C	05/09/2020	10:39	-132.343	43.372	0	1235.40	0	3.0420	0	37.1060	8	29.572	0	1221.927	0	15.2	4	4.8	4	-1E+10	1	-1E+10	1	-1E+10	1	-1E+10	1	-1E+10	1	-1E+10	1
4901784	177	C	05/09/2020	10:39	-132.343	43.372	0	1240.30	0	3.0290	0	37.1090	8	29.576	0	1226.759	0	15.5	4	4.9	4	-1E+10	1	-1E+10	1	-1E+10	1	-1E+10	1	-1E+10	1	-1E+10	1
4901784	177	C	05/09/2020	10:39	-132.343	43.372	0	1245.20	0	3.0130	0	37.1110	8	29.579	0	1231.591	0	15.7	4	5.0	4	-1E+10	1	-1E+10	1	-1E+10	1	-1E+10	1	-1E+10	1	-1E+10	1
4901784	177	C	05/09/2020	10:39	-132.343	43.372	0	1250.10	0	2.9970	0	37.1140	8	29.583	0	1236.423	0	15.9	4	5.0	4	-1E+10	1	-1E+10	1	-1E+10	1	-1E+10	1	-1E+10	1	-1E+10	1
4901784	177	C	05/09/2020	10:39	-132.343	43.372	0	1255.10	0	2.9780	0	37.1160	8	29.587	0	1241.354	0	16.1	4	5.1	4	-1E+10	1	-1E+10	1	-1E+10	1	-1E+10	1	-1E+10	1	-1E+10	1
4901784	177	C	05/09/2020	10:39	-132.343	43.372	0	1260.10	0	2.9650	0	37.1180	8	29.590	0	1246.284	0	16.3	4	5.1	4	-1E+10	1	-1E+10	1	-1E+10	1	-1E+10	1	-1E+10	1	-1E+10	1
4901784	177	C	05/09/2020	10:39	-132.343	43.372	0	1265.10	0	2.9550	0	37.1200	8	29.592	0	1251.215	0	16.5	4	5.2	4	-1E+10	1	-1E+10	1	-1E+10	1	-1E+10	1	-1E+10	1	-1E+10	1
4901784	177	C	05/09/2020	10:39	-132.343	43.372	0	1270.10	0	2.9480	0	37.1220	8	29.595	0	1256.145	0	16.7	4	5.2	4	-1E+10	1	-1E+10	1	-1E+10	1	-1E+10	1	-1E+10	1	-1E+10	1
4901784	177	C	05/09/2020	10:39	-132.343	43.372	0	1275.10	0	2.9350	0	37.1240	8	29.597	0	1261.075	0	16.9	4	5.3	4	-1E+10	1	-1E+10	1	-1E+10	1	-1E+10	1	-1E+10	1	-1E+10	1
4901784	177	C	05/09/2020	10:39	-132.343	43.372	0	1280.10	0	2.9190	0	37.1250	8	29.600	0	1266.005	0	17.0	4	5.3	4	-1E+10	1	-1E+10	1	-1E+10	1	-1E+10	1	-1E+10	1	-1E+10	1
4901784	177	C	05/09/2020	10:39	-132.343	43.372	0	1285.10	0	2.9060	0	37.1270	8	29.603	0	1270.935	0	17.2	4	5.4	4	-1E+10	1	-1E+10	1	-1E+10	1	-1E+10	1	-1E+10	1	-1E+10	1
4901784	177	C	05/09/2020	10:39	-132.343	43.372	0	1290.20	0	2.8950	0	37.1290	8	29.605	0	1275.963	0	17.4	4	5.5	4	-1E+10	1	-1E+10	1	-1E+10	1	-1E+10	1	-1E+10	1	-1E+10	1
4901784	177	C	05/09/2020	10:39	-132.343	43.372	0	1295.30	0	2.8820	0	37.1310	8	29.608	0	1280.991	0	17.6	4	5.5	4	-1E+10	1	-1E+10	1	-1E+10	1	-1E+10	1	-1E+10	1	-1E+10	1
4901784	177	C	05/09/2020	10:39	-132.343	43.372	0	1300.50	0	2.8780	0	37.1320	8	29.610	0	1286.118	0	17.8	4	5.6	4	-1E+10	1	-1E+10	1	-1E+10	1	-1E+10	1	-1E+10	1	-1E+10	1
4901784	177	C	05/09/2020	10:39	-132.343	43.372	0	1305.60	0	2.8720	0	37.1340	8	29.612	0	1291.146	0	17.9	4	5.6	4	-1E+10	1	-1E+10	1	-1E+10	1	-1E+10	1	-1E+10	1	-1E+10	1
4901784	177	C	05/09/2020	10:39	-132.343	43.372	0	1309.90	0	2.8640	0	37.1340	8	29.613	0	1295.385	0	18.0	4	5.7	4	-1E+10	1	-1E+10	1	-1E+10	1	-1E+10	1	-1E+10	1	-1E+10	1
4901784	177	C	05/09/2020	10:39	-132.343	43.372	0	1314.20	0	2.8550	0	37.1350	8	29.614	0	1299.624	0	18.3	4	5.7	4	-1E+10	1	-1E+10	1	-1E+10	1	-1E+10	1	-1E+10	1	-1E+10	1
4901784	177	C	05/09/2020	10:39	-132.343	43.372	0	1319.40	0	2.8430	0	37.1370	8	29.617	0	1304.751	0	18.6	4	5.8	4	-1E+10	1	-1E+10	1	-1E+10	1	-1E+10	1	-1E+10	1	-1E+10	1
4901784	177	C	05/09/2020	10:39	-132.343	43.372	0	1324.70	0	2.8310	0	37.1400	8	29.621	0	1309.975	0	18.9	4	5.9	4	-1E+10	1	-1E+10	1	-1E+10	1	-1E+10	1	-1E+10	1	-1E+10	1
4901784	177	C	05/09/2020	10:39	-132.343	43.372	0	1329.90	0	2.8280	0	37.1420	8	29.622	0	1315.101	0	19.3	4	6.0	4	-1E+10	1	-1E+10	1	-1E+10	1	-1E+10	1	-1E+10	1	-1E+10	1
4901784	177	C	05/09/2020	10:39	-132.343	43.372	0	1335.10	0	2.8240	0	37.1440	8	29.625	0	1320.227	0	19.7	4	6.2	4	-1E+10	1	-1E+10	1	-1E+10	1	-1E+10	1	-1E+10	1	-1E+10	1
4901784	177	C	05/09/2020	10:39	-132.343	43.372	0	1340.40	0	2.8130	0	37.1460	8	29.627	0	1325.451	0	20.1	4	6.3	4	-1E+10	1	-1E+10	1	-1E+10	1	-1E+10	1	-1E+10	1	-1E+10	1
4901784	177	C	05/09/2020	10:39	-132.343	43.372	0	1345.70	0	2.8040	0	37.1480	8	29.630	0	1330.676	0	20.4	4	6.4	4	-1E+10	1	-1E+10	1	-1E+10	1	-1E+10	1	-1E+10	1	-1E+10	1
4901784	177	C	05/09/2020	10:39	-132.343	43.372	0	1350.10	0	2.7940	0	37.1500	8	29.632	0	1335.013	0	20.6	4	6.5	4	-1E+10	1	-1E+10	1	-1E+10	1	-1E+10	1	-1E+10	1	-1E+10	1
4901784	177	C	05/09/2020	10:39	-132.343	43.372	0	1354.60	0	2.7840	0	37.1520	8	29.635	0	1339.448	0	20.8	4	6.5	4	-1E+10	1	-1E+10	1	-1E+10	1	-1E+10	1	-1E+10	1	-1E+10	1
4901784	177	C	05/09/2020	10:39	-132.343	43.372	0	1359.90	0	2.7760	0	37.1530	8	29.636	0	1344.672	0	21.0	4	6.6	4	-1E+10	1	-1E+10	1	-1E+10	1	-1E+10	1	-1E+10	1	-1E+10	1
4901784	177	C	05/09/2020	10:39	-132.343	43.372	0	1365.30	0	2.7630	0	37.1540	8	29.638	0	1349.994	0	21.2	4	6.6	4	-1E+10	1	-1E+10	1	-1E+10	1	-1E+10	1	-1E+10	1	-1E+10	1
4901784	177	C	05/09/2020	10:39	-132.343	43.372	0	1369.80	0	2.7520	0	37.1550	8	29.640	0	1354.429	0	21.4	4	6.7	4	-1E+10	1	-1E+10	1	-1E+10	1	-1E+10	1	-1E+10	1	-1E+10	1
4901784	177	C	05/09/2020	10:39	-132.343	43.372	0	1374.40	0	2.7380	0	37.1570	8	29.643	0	1358.963	0	21.5	4	6.7	4	-1E+10	1	-1E+10	1	-1E+10	1	-1E+10	1	-1E+10	1	-1E+10	1
4901784	177	C	05/09/2020	10:39	-132.343	43.372	0	1379.80	0	2.7280	0	37.1590	8	29.646	0	1364.285	0	21.7	4	6.8	4	-1E+10	1	-1E+10	1	-1E+10	1	-1E+10	1	-1E+10	1	-1E+10	1
4901784	177	C	05/09/2020	10:39	-132.343	43.372	0	1385.40	0	2.7170	0	37.1590	8	29.647	0	1369.804	0	21.8	4	6.8	4	-1E+10	1	-1E+10	1	-1E+10	1	-1E+10	1	-1E+10	1	-1E+10	1
4901784	177	C	05/09/2020	10:39	-132.343	43.372	0	1389.90	0	2.7130	0	37.1600	8	29.648	0	1374.238	0	22.0	4	6.9	4	-1E+10	1	-1E+10	1	-1E+10	1	-1E+10	1	-1E+10	1	-1E+10	1
4901784	177	C	05/09/2020	10:39	-132.343	43.372	0	1394.80	0	2.7020	0	37.1620	8	29.651	0	1379.067	0	22.2	4	7.0	4	-1E+10	1	-1E+10	1	-1E+10	1	-1E+10	1	-1E+10	1	-1E+10	1
4901784	177	C	05/09/2020	10:39	-132.343	43.372	0	1399.90	0	2.6940	0	37.1620	8	29.652	0	1384.093	0	22.5	4	7.0	4	-1E+10	1	-1E+10	1	-1E+10	1	-1E+10	1	-1E+10	1	-1E+10	1
4901784	177	C	05/09/2020	10:39	-132.343	43.372	0	1404.70	0	2.6780	0	37.1650	8	29.656	0	1388.823	0	22.7	4	7.1	4	-1E+10	1	-1E+10	1	-1E+10	1	-1E+10	1	-1E+10	1	-1E+10	1
4901784	177	C	05/09/2020	10:39	-132.343	43.372	0	1409.50	0	2.6670	0	37.1650	8	29.657	0	1393.553	0	22.9	4	7.2	4	-1E+10	1	-1E+10	1	-1E+10	1	-1E+10	1	-1E+10	1	-1E+10	1
4901784	177	C	05/09/2020	10:39	-132.343	43.372	0	1414.40	0	2.6530	0	37.1680	8	29.660	0	1398.381	0	23.2	4	7.3	4	-1E+10	1	-1E+10	1	-1E+10	1	-1E+10	1	-1E+10	1	-1E+10	1
4901784	177	C	05/09/2020	10:39	-132.343	43.372	0	1420.00	0	2.6430	0	37.1700	8	29.663	0	1403.899	0	23.5	4	7.4	4	-1E+10	1	-1E+10	1	-1E+10	1	-1E+10	1	-1E+10	1	-1E+10	1
4901784	177	C	05/09/2020	10:39	-132.343	43.372	0	1425.70	0	2.6340	0	37.1710	8	29.665	0	1409.515	0	23.8	4	7.4	4	-1E+10	1	-1E+10	1	-1E+10	1	-1E+10	1	-1E+10	1	-1E+10	1
4901784	177	C	05/09/2020	10:39	-132.343	43.372	0	1430.70	0	2.6270	0	37.1710	8	29.665	0	1414.442	0	24.0	4	7.5	4	-1E+10	1	-1E+10	1	-1E+10	1	-1E+10	1	-1E+10	1	-1E+10	1
4901784	177	C	05/09/2020	10:39	-132.343	43.372	0	1435.70	0	2.6150	0	37.1730	8	29.668	0	1419.368	0	24.4	4	7.6	4	-1E+10	1	-1E+10	1	-1E+10	1	-1E+10	1	-1E+10	1	-1E+10	1
4901784	177	C	05/09/2020	10:39	-132.343	43.372	0	1440.70	0	2.6030	0	37.1750	8	29.671	0	1424.294	0	24.8	4	7.7	4	-1E+10	1	-1E+10	1	-1E+10	1	-1E+10	1	-1E+10	1	-1E+10	1
4901784	177	C	05/09/2020	10:39	-132.343	43.372	0	1445.00	0	2.5940	0	37.1770	8	29.673	0	1428.531	0	25.0	4	7.8	4	-1E+10	1	-1E+10	1	-1E+10	1	-1E+10	1	-1E+10	1	-1E+10	1
4901784	177	C	05/09/2020	10:39	-132.343	43.372	0	1449.20	0	2.5880	0	37.1770	8	29.674	0	1432.669	0	25.4	4	7.9	4	-1E+10	1	-1E+10	1	-1E+10	1	-1E+10	1	-1E+10	1	-1E+10	1
4901784	177	C	05/09/2020	10:39	-132.343	43.372	0	1454.30	0	2.5710	0	37.1800	8	29.678	0	1437.693	0	25.9	4	8.1	4	-1E+10	1	-1E+10	1	-1E+10	1	-1E+10	1	-1E+10	1	-1E+10	1
4901784	177	C	05/09/2020	10:39	-132.343	43.372	0	1459.50	0	2.5570	0	37.1830	8	29.682	0	1442.816	0	26.2	4	8.2	4	-1E+10	1	-1E+10	1	-1E+10	1	-1E+10	1	-1E+10	1	-1E+10	1
4901784	177	C	05/09/2020	10:39	-132.343	43.372	0	1464.70	0	2.5530	0	37.1830	8	29.682	0	1447.939	0	26.3	4	8.2	4	-1E+10	1	-1E+10	1	-1E+10	1	-1E+10	1	-1E+10	1	-1E+10	1
4901784	177	C	05/09/2020	10:39	-132.343	43.372	0	1470.10	0	2.5460	0	37.1840	8	29.683	0	1453.259	0	26.5	4	8.3	4	-1E+10	1	-1E+10	1	-1E+10	1	-1E+10	1	-1E+10	1	-1E+10	1
4901784	177	C	05/09/2020	10:39	-132.343	43.372	0	1475.40	0	2.5410	0	37.1850	8	29.685	0	1458.480	0	26.8	4	8.4	4	-1E+10	1	-1E+10	1	-1E+10	1	-1E+10	1	-1E+10	1	-1E+10	1
4901784	177	C	05/09/2020	10:39	-132.343	43.372	0	1479.90	0	2.5360	0	37.1860	8	29.686	0	1462.912	0	27.1	4	8.4	4	-1E+10	1	-1E+10	1	-1E+10	1	-1E+10	1	-1E+10	1	-1E+10	1
4901784	177	C	05/09/2020	10:39	-132.343	43.372	0	1484.40	0	2.5270	0	37.1870	8	29.688	0	1467.345	0	27.4	4	8.5	4	-1E+10	1	-1E+10	1	-1E+10	1	-1E+10	1	-1E+10	1	-1E+10	1
4901784	177	C	05/09/2020	10:39	-132.343	43.372	0	1490.00	0	2.5170	0	37.1880	8	29.689	0	1472.861	0	27.7	4	8.6	4	-1E+10	1	-1E+10	1	-1E+10	1	-1E+10	1	-1E+10	1	-1E+10	1
4901784	177	C	05/09/2020	10:39	-132.343	43.372	0	1495.50	0	2.5040	0	37.1910	8	29.693	0	1478.279	0	28.0	4	8.7	4	-1E+10	1	-1E+10	1	-1E+10	1	-1E+10	1	-1E+10	1	-1E+10	1
4901784	177	C	05/09/2020	10:39	-132.343	43.372	0	1500.10	0	2.4990	0	37.1920	8	29.694	0	1482.810	0	28.3	4	8.8	4	-1E+10	1	-1E+10	1	-1E+10	1	-1E+10	1	-1E+10	1	-1E+10	1
4901784	177	C	05/09/2020	10:39	-132.343	43.372	0	1504.70	0	2.4920	0	37.1920	8	29.695	0	1487.340	0	28.5	4	8.9	4	-1E+10	1	-1E+10	1	-1E+10	1	-1E+10	1	-1E+10	1	-1E+10	1
4901784	177	C	05/09/2020	10:39	-132.343	43.372	0	1510.20	0	2.4820	0	37.1940	8	29.698	0	1492.758	0	28.8	4	9.0	4	-1E+10	1	-1E+10	1	-1E+10	1	-1E+10	1	-1E+10	1	-1E+10	1
4901784	177	C	05/09/2020	10:39	-132.343	43.372	0	1515.50	0	2.4780	0	37.1950	8	29.699	0	1497.978	0	29.0	4	9.0	4	-1E+10	1	-1E+10	1	-1E+10	1	-1E+10	1	-1E+10	1	-1E+10	1
4901784	177	C	05/09/2020	10:39	-132.343	43.372	0	1520.50	0	2.4740	0	37.1960	8	29.700	0	1502.902	0	29.4	4	9.1	4	-1E+10	1	-1E+10	1	-1E+10	1	-1E+10	1	-1E+10	1	-1E+10	1
4901784	177	C	05/09/2020	10:39	-132.343	43.372	0	1525.50	0	2.4670	0	37.1970	8	29.701	0	1507.826	0	29.8	4	9.3	4	-1E+10	1	-1E+10	1	-1E+10	1	-1E+10	1	-1E+10	1	-1E+10	1
4901784	177	C	05/09/2020	10:39	-132.343	43.372	0	1530.60	0	2.4570	0	37.1990	8	29.704	0	1512.849	0	30.2	4	9.4	4	-1E+10	1	-1E+10	1	-1E+10	1	-1E+10	1	-1E+10	1	-1E+10	1
4901784	177	C	05/09/2020	10:39	-132.343	43.372	0	1535.60	0	2.4470	0	37.2000	8	29.706	0	1517.773	0	30.6	4	9.5	4	-1E+10	1	-1E+10	1	-1E+10	1	-1E+10	1	-1E+10	1	-1E+10	1
4901784	177	C	05/09/2020	10:39	-132.343	43.372	0	1540.70	0	2.4390	0	37.2020	8	29.708	0	1522.795	0	30.8	4	9.6	4	-1E+10	1	-1E+10	1	-1E+10	1	-1E+10	1	-1E+10	1	-1E+10	1
4901784	177	C	05/09/2020	10:39	-132.343	43.372	0	1545.00	0	2.4380	0	37.2020	8	29.708	0	1527.030	0	31.0	4	9.6	4	-1E+10	1	-1E+10	1	-1E+10	1	-1E+10	1	-1E+10	1	-1E+10	1
4901784	177	C	05/09/2020	10:39	-132.343	43.372	0	1549.30	0	2.4310	0	37.2030	8	29.710	0	1531.265	0	31.2	4	9.7	4	-1E+10	1	-1E+10	1	-1E+10	1	-1E+10	1	-1E+10	1	-1E+10	1
4901784	177	C	05/09/2020	10:39	-132.343	43.372	0	1554.50	0	2.4190	0	37.2050	8	29.712	0	1536.385	0	31.5	4	9.8	4	-1E+10	1	-1E+10	1	-1E+10	1	-1E+10	1	-1E+10	1	-1E+10	1
4901784	177	C	05/09/2020	10:39	-132.343	43.372	0	1559.70	0	2.4150	0	37.2050	8	29.713	0	1541.505	0	31.8	4	9.9	4	-1E+10	1	-1E+10	1	-1E+10	1	-1E+10	1	-1E+10	1	-1E+10	1
4901784	177	C	05/09/2020	10:39	-132.343	43.372	0	1565.00	0	2.4070	0	37.2070	8	29.715	0	1546.724	0	32.1	4	10.0	4	-1E+10	1	-1E+10	1	-1E+10	1	-1E+10	1	-1E+10	1	-1E+10	1
4901784	177	C	05/09/2020	10:39	-132.343	43.372	0	1570.40	0	2.3980	0	37.2080	8	29.717	0	1552.042	0	32.4	4	10.1	4	-1E+10	1	-1E+10	1	-1E+10	1	-1E+10	1	-1E+10	1	-1E+10	1
4901784	177	C	05/09/2020	10:39	-132.343	43.372	0	1574.90	0	2.3940	0	37.2090	8	29.718	0	1556.472	0	32.6	4	10.1	4	-1E+10	1	-1E+10	1	-1E+10	1	-1E+10	1	-1E+10	1	-1E+10	1
4901784	177	C	05/09/2020	10:39	-132.343	43.372	0	1579.40	0	2.3870	0	37.2100	8	29.719	0	1560.903	0	32.9	4	10.2	4	-1E+10	1	-1E+10	1	-1E+10	1	-1E+10	1	-1E+10	1	-1E+10	1
4901784	177	C	05/09/2020	10:39	-132.343	43.372	0	1584.80	0	2.3790	0	37.2120	8	29.722	0	1566.220	0	33.3	4	10.4	4	-1E+10	1	-1E+10	1	-1E+10	1	-1E+10	1	-1E+10	1	-1E+10	1
4901784	177	C	05/09/2020	10:39	-132.343	43.372	0	1590.20	0	2.3740	0	37.2130	8	29.723	0	1571.537	0	33.6	4	10.4	4	-1E+10	1	-1E+10	1	-1E+10	1	-1E+10	1	-1E+10	1	-1E+10	1
4901784	177	C	05/09/2020	10:39	-132.343	43.372	0	1594.80	0	2.3700	0	37.2140	8	29.724	0	1576.066	0	33.8	4	10.5	4	-1E+10	1	-1E+10	1	-1E+10	1	-1E+10	1	-1E+10	1	-1E+10	1
4901784	177	C	05/09/2020	10:39	-132.343	43.372	0	1599.40	0	2.3660	0	37.2140	8	29.725	0	1580.594	0	33.9	4	10.5	4	-1E+10	1	-1E+10	1	-1E+10	1	-1E+10	1	-1E+10	1	-1E+10	1
4901784	177	C	05/09/2020	10:39	-132.343	43.372	0	1605.00	0	2.3600	0	37.2150	8	29.726	0	1586.107	0	34.2	4	10.6	4	-1E+10	1	-1E+10	1	-1E+10	1	-1E+10	1	-1E+10	1	-1E+10	1
4901784	177	C	05/09/2020	10:39	-132.343	43.372	0	1610.60	0	2.3550	0	37.2160	8	29.727	0	1591.620	0	34.5	4	10.7	4	-1E+10	1	-1E+10	1	-1E+10	1	-1E+10	1	-1E+10	1	-1E+10	1
4901784	177	C	05/09/2020	10:39	-132.343	43.372	0	1615.40	0	2.3470	0	37.2170	8	29.729	0	1596.346	0	34.8	4	10.8	4	-1E+10	1	-1E+10	1	-1E+10	1	-1E+10	1	-1E+10	1	-1E+10	1
4901784	177	C	05/09/2020	10:39	-132.343	43.372	0	1619.80	0	2.3390	0	37.2180	8	29.730	0	1600.677	0	34.9	4	10.8	4	-1E+10	1	-1E+10	1	-1E+10	1	-1E+10	1	-1E+10	1	-1E+10	1
4901784	177	C	05/09/2020	10:39	-132.343	43.372	0	1624.70	0	2.3350	0	37.2190	8	29.732	0	1605.501	0	35.0	4	10.9	4	-1E+10	1	-1E+10	1	-1E+10	1	-1E+10	1	-1E+10	1	-1E+10	1
4901784	177	C	05/09/2020	10:39	-132.343	43.372	0	1629.60	0	2.3320	0	37.2190	8	29.732	0	1610.324	0	35.2	4	10.9	4	-1E+10	1	-1E+10	1	-1E+10	1	-1E+10	1	-1E+10	1	-1E+10	1
4901784	177	C	05/09/2020	10:39	-132.343	43.372	0	1634.60	0	2.3280	0	37.2200	8	29.733	0	1615.246	0	35.3	4	11.0	4	-1E+10	1	-1E+10	1	-1E+10	1	-1E+10	1	-1E+10	1	-1E+10	1
4901784	177	C	05/09/2020	10:39	-132.343	43.372	0	1639.50	0	2.3270	0	37.2210	8	29.734	0	1620.069	0	35.5	4	11.0	4	-1E+10	1	-1E+10	1	-1E+10	1	-1E+10	1	-1E+10	1	-1E+10	1
4901784	177	C	05/09/2020	10:39	-132.343	43.372	0	1644.40	0	2.3240	0	37.2210	8	29.734	0	1624.893	0	35.8	4	11.1	4	-1E+10	1	-1E+10	1	-1E+10	1	-1E+10	1	-1E+10	1	-1E+10	1
4901784	177	C	05/09/2020	10:39	-132.343	43.372	0	1649.40	0	2.3180	0	37.2220	8	29.736	0	1629.814	0	36.1	4	11.2	4	-1E+10	1	-1E+10	1	-1E+10	1	-1E+10	1	-1E+10	1	-1E+10	1
4901784	177	C	05/09/2020	10:39	-132.343	43.372	0	1654.40	0	2.3080	0	37.2230	8	29.737	0	1634.735	0	36.6	4	11.3	4	-1E+10	1	-1E+10	1	-1E+10	1	-1E+10	1	-1E+10	1	-1E+10	1
4901784	177	C	05/09/2020	10:39	-132.343	43.372	0	1659.40	0	2.3000	0	37.2250	8	29.740	0	1639.657	0	36.9	4	11.5	4	-1E+10	1	-1E+10	1	-1E+10	1	-1E+10	1	-1E+10	1	-1E+10	1
4901784	177	C	05/09/2020	10:39	-132.343	43.372	0	1664.30	0	2.2900	0	37.2260	8	29.741	0	1644.479	0	37.3	4	11.6	4	-1E+10	1	-1E+10	1	-1E+10	1	-1E+10	1	-1E+10	1	-1E+10	1
4901784	177	C	05/09/2020	10:39	-132.343	43.372	0	1669.30	0	2.2870	0	37.2270	8	29.743	0	1649.400	0	37.5	4	11.6	4	-1E+10	1	-1E+10	1	-1E+10	1	-1E+10	1	-1E+10	1	-1E+10	1
4901784	177	C	05/09/2020	10:39	-132.343	43.372	0	1674.40	0	2.2810	0	37.2280	8	29.744	0	1654.420	0	37.8	4	11.7	4	-1E+10	1	-1E+10	1	-1E+10	1	-1E+10	1	-1E+10	1	-1E+10	1
4901784	177	C	05/09/2020	10:39	-132.343	43.372	0	1679.50	0	2.2750	0	37.2290	8	29.745	0	1659.439	0	38.1	4	11.8	4	-1E+10	1	-1E+10	1	-1E+10	1	-1E+10	1	-1E+10	1	-1E+10	1
4901784	177	C	05/09/2020	10:39	-132.343	43.372	0	1684.60	0	2.2680	0	37.2300	8	29.747	0	1664.458	0	38.3	4	11.9	4	-1E+10	1	-1E+10	1	-1E+10	1	-1E+10	1	-1E+10	1	-1E+10	1
4901784	177	C	05/09/2020	10:39	-132.343	43.372	0	1689.70	0	2.2640	0	37.2300	8	29.747	0	1669.477	0	38.6	4	11.9	4	-1E+10	1	-1E+10	1	-1E+10	1	-1E+10	1	-1E+10	1	-1E+10	1
4901784	177	C	05/09/2020	10:39	-132.343	43.372	0	1694.80	0	2.2600	0	37.2310	8	29.748	0	1674.496	0	38.8	4	12.0	4	-1E+10	1	-1E+10	1	-1E+10	1	-1E+10	1	-1E+10	1	-1E+10	1
4901784	177	C	05/09/2020	10:39	-132.343	43.372	0	1699.90	0	2.2530	0	37.2320	8	29.750	0	1679.514	0	39.2	4	12.1	4	-1E+10	1	-1E+10	1	-1E+10	1	-1E+10	1	-1E+10	1	-1E+10	1
4901784	177	C	05/09/2020	10:39	-132.343	43.372	0	1705.10	0	2.2450	0	37.2330	8	29.751	0	1684.631	0	39.6	4	12.2	4	-1E+10	1	-1E+10	1	-1E+10	1	-1E+10	1	-1E+10	1	-1E+10	1
4901784	177	C	05/09/2020	10:39	-132.343	43.372	0	1710.30	0	2.2350	0	37.2350	8	29.754	0	1689.748	0	40.0	4	12.4	4	-1E+10	1	-1E+10	1	-1E+10	1	-1E+10	1	-1E+10	1	-1E+10	1
4901784	177	C	05/09/2020	10:39	-132.343	43.372	0	1715.60	0	2.2290	0	37.2360	8	29.755	0	1694.963	0	40.4	4	12.5	4	-1E+10	1	-1E+10	1	-1E+10	1	-1E+10	1	-1E+10	1	-1E+10	1
4901784	177	C	05/09/2020	10:39	-132.343	43.372	0	1720.00	0	2.2230	0	37.2370	8	29.757	0	1699.293	0	40.7	4	12.6	4	-1E+10	1	-1E+10	1	-1E+10	1	-1E+10	1	-1E+10	1	-1E+10	1
4901784	177	C	05/09/2020	10:39	-132.343	43.372	0	1724.40	0	2.2170	0	37.2380	8	29.758	0	1703.622	0	40.9	4	12.6	4	-1E+10	1	-1E+10	1	-1E+10	1	-1E+10	1	-1E+10	1	-1E+10	1
4901784	177	C	05/09/2020	10:39	-132.343	43.372	0	1729.80	0	2.2140	0	37.2390	8	29.759	0	1708.936	0	41.0	4	12.7	4	-1E+10	1	-1E+10	1	-1E+10	1	-1E+10	1	-1E+10	1	-1E+10	1
4901784	177	C	05/09/2020	10:39	-132.343	43.372	0	1735.20	0	2.2120	0	37.2390	8	29.759	0	1714.248	0	41.3	4	12.8	4	-1E+10	1	-1E+10	1	-1E+10	1	-1E+10	1	-1E+10	1	-1E+10	1
4901784	177	C	05/09/2020	10:39	-132.343	43.372	0	1740.60	0	2.2060	0	37.2400	8	29.761	0	1719.561	0	41.6	4	12.9	4	-1E+10	1	-1E+10	1	-1E+10	1	-1E+10	1	-1E+10	1	-1E+10	1
4901784	177	C	05/09/2020	10:39	-132.343	43.372	0	1745.10	0	2.1980	0	37.2420	8	29.763	0	1723.989	0	41.8	4	12.9	4	-1E+10	1	-1E+10	1	-1E+10	1	-1E+10	1	-1E+10	1	-1E+10	1
4901784	177	C	05/09/2020	10:39	-132.343	43.372	0	1749.60	0	2.1950	0	37.2420	8	29.763	0	1728.416	0	41.9	4	13.0	4	-1E+10	1	-1E+10	1	-1E+10	1	-1E+10	1	-1E+10	1	-1E+10	1
4901784	177	C	05/09/2020	10:39	-132.343	43.372	0	1755.00	0	2.1920	0	37.2430	8	29.764	0	1733.729	0	42.1	4	13.0	4	-1E+10	1	-1E+10	1	-1E+10	1	-1E+10	1	-1E+10	1	-1E+10	1
4901784	177	C	05/09/2020	10:39	-132.343	43.372	0	1760.50	0	2.1900	0	37.2430	8	29.764	0	1739.139	0	42.3	4	13.1	4	-1E+10	1	-1E+10	1	-1E+10	1	-1E+10	1	-1E+10	1	-1E+10	1
4901784	177	C	05/09/2020	10:39	-132.343	43.372	0	1765.10	0	2.1850	0	37.2430	8	29.765	0	1743.665	0	42.6	4	13.2	4	-1E+10	1	-1E+10	1	-1E+10	1	-1E+10	1	-1E+10	1	-1E+10	1
4901784	177	C	05/09/2020	10:39	-132.343	43.372	0	1769.70	0	2.1750	0	37.2440	8	29.767	0	1748.190	0	42.9	4	13.3	4	-1E+10	1	-1E+10	1	-1E+10	1	-1E+10	1	-1E+10	1	-1E+10	1
4901784	177	C	05/09/2020	10:39	-132.343	43.372	0	1775.30	0	2.1660	0	37.2450	8	29.768	0	1753.699	0	43.4	4	13.4	4	-1E+10	1	-1E+10	1	-1E+10	1	-1E+10	1	-1E+10	1	-1E+10	1
4901784	177	C	05/09/2020	10:39	-132.343	43.372	0	1780.00	0	2.1550	0	37.2470	8	29.771	0	1758.322	0	43.7	4	13.5	4	-1E+10	1	-1E+10	1	-1E+10	1	-1E+10	1	-1E+10	1	-1E+10	1
4901784	177	C	05/09/2020	10:39	-132.343	43.372	0	1784.60	0	2.1490	0	37.2470	8	29.771	0	1762.847	0	43.8	4	13.5	4	-1E+10	1	-1E+10	1	-1E+10	1	-1E+10	1	-1E+10	1	-1E+10	1
4901784	177	C	05/09/2020	10:39	-132.343	43.372	0	1790.20	0	2.1460	0	37.2480	8	29.773	0	1768.355	0	44.1	4	13.6	4	-1E+10	1	-1E+10	1	-1E+10	1	-1E+10	1	-1E+10	1	-1E+10	1
4901784	177	C	05/09/2020	10:39	-132.343	43.372	0	1794.90	0	2.1440	0	37.2490	8	29.774	0	1772.979	0	44.3	4	13.7	4	-1E+10	1	-1E+10	1	-1E+10	1	-1E+10	1	-1E+10	1	-1E+10	1
4901784	177	C	05/09/2020	10:39	-132.343	43.372	0	1799.70	0	2.1380	0	37.2490	8	29.774	0	1777.700	0	44.7	4	13.8	4	-1E+10	1	-1E+10	1	-1E+10	1	-1E+10	1	-1E+10	1	-1E+10	1
4901784	177	C	05/09/2020	10:39	-132.343	43.372	0	1805.30	0	2.1300	0	37.2500	8	29.776	0	1783.208	0	45.1	4	13.9	4	-1E+10	1	-1E+10	1	-1E+10	1	-1E+10	1	-1E+10	1	-1E+10	1
4901784	177	C	05/09/2020	10:39	-132.343	43.372	0	1810.00	0	2.1250	0	37.2520	8	29.778	0	1787.831	0	45.4	4	14.0	4	-1E+10	1	-1E+10	1	-1E+10	1	-1E+10	1	-1E+10	1	-1E+10	1
4901784	177	C	05/09/2020	10:39	-132.343	43.372	0	1814.60	0	2.1180	0	37.2530	8	29.779	0	1792.355	0	45.7	4	14.1	4	-1E+10	1	-1E+10	1	-1E+10	1	-1E+10	1	-1E+10	1	-1E+10	1
4901784	177	C	05/09/2020	10:39	-132.343	43.372	0	1820.20	0	2.1150	0	37.2530	8	29.779	0	1797.863	0	45.9	4	14.2	4	-1E+10	1	-1E+10	1	-1E+10	1	-1E+10	1	-1E+10	1	-1E+10	1
4901784	177	C	05/09/2020	10:39	-132.343	43.372	0	1824.80	0	2.1120	0	37.2540	8	29.781	0	1802.387	0	46.2	4	14.2	4	-1E+10	1	-1E+10	1	-1E+10	1	-1E+10	1	-1E+10	1	-1E+10	1
4901784	177	C	05/09/2020	10:39	-132.343	43.372	0	1829.60	0	2.1070	0	37.2540	8	29.781	0	1807.107	0	46.5	4	14.4	4	-1E+10	1	-1E+10	1	-1E+10	1	-1E+10	1	-1E+10	1	-1E+10	1
4901784	177	C	05/09/2020	10:39	-132.343	43.372	0	1835.20	0	2.0960	0	37.2560	8	29.784	0	1812.614	0	47.0	4	14.5	4	-1E+10	1	-1E+10	1	-1E+10	1	-1E+10	1	-1E+10	1	-1E+10	1
4901784	177	C	05/09/2020	10:39	-132.343	43.372	0	1839.90	0	2.0850	0	37.2580	8	29.786	0	1817.237	0	47.4	4	14.6	4	-1E+10	1	-1E+10	1	-1E+10	1	-1E+10	1	-1E+10	1	-1E+10	1
4901784	177	C	05/09/2020	10:39	-132.343	43.372	0	1844.60	0	2.0800	0	37.2590	8	29.787	0	1821.859	0	47.6	4	14.7	4	-1E+10	1	-1E+10	1	-1E+10	1	-1E+10	1	-1E+10	1	-1E+10	1
4901784	177	C	05/09/2020	10:39	-132.343	43.372	0	1850.10	0	2.0780	0	37.2590	8	29.788	0	1827.267	0	47.8	4	14.7	4	-1E+10	1	-1E+10	1	-1E+10	1	-1E+10	1	-1E+10	1	-1E+10	1
4901784	177	C	05/09/2020	10:39	-132.343	43.372	0	1855.60	0	2.0760	0	37.2590	8	29.788	0	1832.676	0	48.1	4	14.8	4	-1E+10	1	-1E+10	1	-1E+10	1	-1E+10	1	-1E+10	1	-1E+10	1
4901784	177	C	05/09/2020	10:39	-132.343	43.372	0	1860.50	0	2.0720	0	37.2600	8	29.789	0	1837.494	0	48.6	4	15.0	4	-1E+10	1	-1E+10	1	-1E+10	1	-1E+10	1	-1E+10	1	-1E+10	1
4901784	177	C	05/09/2020	10:39	-132.343	43.372	0	1865.40	0	2.0610	0	37.2620	8	29.792	0	1842.312	0	49.1	4	15.1	4	-1E+10	1	-1E+10	1	-1E+10	1	-1E+10	1	-1E+10	1	-1E+10	1
4901784	177	C	05/09/2020	10:39	-132.343	43.372	0	1870.40	0	2.0570	0	37.2630	8	29.793	0	1847.229	0	49.4	4	15.2	4	-1E+10	1	-1E+10	1	-1E+10	1	-1E+10	1	-1E+10	1	-1E+10	1
4901784	177	C	05/09/2020	10:39	-132.343	43.372	0	1875.40	0	2.0510	0	37.2640	8	29.794	0	1852.145	0	49.8	4	15.3	4	-1E+10	1	-1E+10	1	-1E+10	1	-1E+10	1	-1E+10	1	-1E+10	1
4901784	177	C	05/09/2020	10:39	-132.343	43.372	0	1880.40	0	2.0450	0	37.2650	8	29.795	0	1857.061	0	50.2	4	15.5	4	-1E+10	1	-1E+10	1	-1E+10	1	-1E+10	1	-1E+10	1	-1E+10	1
4901784	177	C	05/09/2020	10:39	-132.343	43.372	0	1885.50	0	2.0420	0	37.2660	8	29.797	0	1862.075	0	50.5	4	15.6	4	-1E+10	1	-1E+10	1	-1E+10	1	-1E+10	1	-1E+10	1	-1E+10	1
4901784	177	C	05/09/2020	10:39	-132.343	43.372	0	1890.60	0	2.0380	0	37.2670	8	29.798	0	1867.090	0	50.8	4	15.7	4	-1E+10	1	-1E+10	1	-1E+10	1	-1E+10	1	-1E+10	1	-1E+10	1
4901784	177	C	05/09/2020	10:39	-132.343	43.372	0	1895.70	0	2.0320	0	37.2680	8	29.799	0	1872.104	0	51.1	4	15.8	4	-1E+10	1	-1E+10	1	-1E+10	1	-1E+10	1	-1E+10	1	-1E+10	1
4901784	177	C	05/09/2020	10:39	-132.343	43.372	0	1900.00	0	2.0270	0	37.2680	8	29.800	0	1876.331	0	51.5	4	15.8	4	-1E+10	1	-1E+10	1	-1E+10	1	-1E+10	1	-1E+10	1	-1E+10	1
4901784	177	C	05/09/2020	10:39	-132.343	43.372	0	1904.30	0	2.0210	0	37.2690	8	29.801	0	1880.559	0	51.8	4	15.9	4	-1E+10	1	-1E+10	1	-1E+10	1	-1E+10	1	-1E+10	1	-1E+10	1
4901784	177	C	05/09/2020	10:39	-132.343	43.372	0	1909.50	0	2.0180	0	37.2700	8	29.802	0	1885.671	0	52.1	4	16.0	4	-1E+10	1	-1E+10	1	-1E+10	1	-1E+10	1	-1E+10	1	-1E+10	1
4901784	177	C	05/09/2020	10:39	-132.343	43.372	0	1914.70	0	2.0120	0	37.2710	8	29.803	0	1890.783	0	52.5	4	16.2	4	-1E+10	1	-1E+10	1	-1E+10	1	-1E+10	1	-1E+10	1	-1E+10	1
4901784	177	C	05/09/2020	10:39	-132.343	43.372	0	1919.90	0	2.0080	0	37.2720	8	29.804	0	1895.895	0	52.9	4	16.3	4	-1E+10	1	-1E+10	1	-1E+10	1	-1E+10	1	-1E+10	1	-1E+10	1
4901784	177	C	05/09/2020	10:39	-132.343	43.372	0	1925.10	0	2.0040	0	37.2730	8	29.806	0	1901.007	0	53.2	4	16.4	4	-1E+10	1	-1E+10	1	-1E+10	1	-1E+10	1	-1E+10	1	-1E+10	1
4901784	177	C	05/09/2020	10:39	-132.343	43.372	0	1930.40	0	2.0000	0	37.2740	8	29.807	0	1906.217	0	53.4	4	16.4	4	-1E+10	1	-1E+10	1	-1E+10	1	-1E+10	1	-1E+10	1	-1E+10	1
4901784	177	C	05/09/2020	10:39	-132.343	43.372	0	1935.60	0	1.9960	0	37.2740	8	29.807	0	1911.328	0	53.6	4	16.5	4	-1E+10	1	-1E+10	1	-1E+10	1	-1E+10	1	-1E+10	1	-1E+10	1
4901784	177	C	05/09/2020	10:39	-132.343	43.372	0	1940.00	0	1.9920	0	37.2750	8	29.808	0	1915.653	0	53.9	4	16.6	4	-1E+10	1	-1E+10	1	-1E+10	1	-1E+10	1	-1E+10	1	-1E+10	1
4901784	177	C	05/09/2020	10:39	-132.343	43.372	0	1944.30	0	1.9890	0	37.2750	8	29.809	0	1919.880	0	54.1	4	16.6	4	-1E+10	1	-1E+10	1	-1E+10	1	-1E+10	1	-1E+10	1	-1E+10	1
4901784	177	C	05/09/2020	10:39	-132.343	43.372	0	1949.60	0	1.9840	0	37.2760	8	29.810	0	1925.089	0	54.3	4	16.7	4	-1E+10	1	-1E+10	1	-1E+10	1	-1E+10	1	-1E+10	1	-1E+10	1
4901784	177	C	05/09/2020	10:39	-132.343	43.372	0	1954.90	0	1.9820	0	37.2770	8	29.811	0	1930.299	0	54.6	4	16.8	4	-1E+10	1	-1E+10	1	-1E+10	1	-1E+10	1	-1E+10	1	-1E+10	1
4901784	177	C	05/09/2020	10:39	-132.343	43.372	0	1960.20	0	1.9790	0	37.2780	8	29.812	0	1935.508	0	54.8	4	16.9	4	-1E+10	1	-1E+10	1	-1E+10	1	-1E+10	1	-1E+10	1	-1E+10	1
4901784	177	C	05/09/2020	10:39	-132.343	43.372	0	1965.60	0	1.9760	0	37.2780	8	29.812	0	1940.815	0	55.1	4	17.0	4	-1E+10	1	-1E+10	1	-1E+10	1	-1E+10	1	-1E+10	1	-1E+10	1
4901784	177	C	05/09/2020	10:39	-132.343	43.372	0	1970.00	0	1.9720	0	37.2790	8	29.813	0	1945.140	0	55.4	4	17.0	4	-1E+10	1	-1E+10	1	-1E+10	1	-1E+10	1	-1E+10	1	-1E+10	1
4901784	177	C	05/09/2020	10:39	-132.343	43.372	0	1974.50	0	1.9700	0	37.2790	8	29.814	0	1949.562	0	55.6	4	17.1	4	-1E+10	1	-1E+10	1	-1E+10	1	-1E+10	1	-1E+10	1	-1E+10	1
4901784	177	C	05/09/2020	10:39	-132.343	43.372	0	1979.90	0	1.9680	0	37.2800	8	29.815	0	1954.869	0	55.9	4	17.2	4	-1E+10	1	-1E+10	1	-1E+10	1	-1E+10	1	-1E+10	1	-1E+10	1
4901784	177	C	05/09/2020	10:39	-132.343	43.372	0	1985.10	0	1.9610	0	37.2810	8	29.816	0	1959.980	0	56.1	4	17.3	4	-1E+10	1	-1E+10	1	-1E+10	1	-1E+10	1	-1E+10	1	-1E+10	1
4901784	177	C	05/09/2020	10:39	-132.343	43.372	0	1990.30	0	1.9590	0	37.2810	8	29.816	0	1965.090	0	56.3	4	17.3	4	-1E+10	1	-1E+10	1	-1E+10	1	-1E+10	1	-1E+10	1	-1E+10	1
4901784	177	C	05/09/2020	10:39	-132.343	43.372	0	1994.70	0	1.9550	0	37.2820	8	29.817	0	1969.414	0	56.5	4	17.4	4	-1E+10	1	-1E+10	1	-1E+10	1	-1E+10	1	-1E+10	1	-1E+10	1
4901784	177	C	05/09/2020	10:39	-132.343	43.372	0	1999.90	0	1.9530	0	37.2830	8	29.818	0	1974.524	0	56.7	4	17.4	4	-1E+10	1	-1E+10	1	-1E+10	1	-1E+10	1	-1E+10	1	-1E+10	1
4901784	177	C	05/09/2020	10:39	-132.343	43.372	0	2005.30	0	1.9490	0	37.2840	8	29.820	0	1979.830	0	56.6	4	17.4	4	-1E+10	1	-1E+10	1	-1E+10	1	-1E+10	1	-1E+10	1	-1E+10	1
4901784	177	C	05/09/2020	10:39	-132.343	43.372	0																										
4901784	178	C	05/19/2020	10:44	-132.304	43.297	0	3.30	0	12.6740	0	34.9150	8	26.393	0	3.274	0	251.8	4	96.9	4	-1E+10	1	-1E+10	1	-1E+10	1	-1E+10	1	-1E+10	1	-1E+10	1
4901784	178	C	05/19/2020	10:44	-132.304	43.297	0	5.00	0	12.6710	0	34.9170	8	26.395	0	4.960	0	251.7	4	96.9	4	-1E+10	1	-1E+10	1	-1E+10	1	-1E+10	1	-1E+10	1	-1E+10	1
4901784	178	C	05/19/2020	10:44	-132.304	43.297	0	6.60	0	12.6750	0	34.9170	8	26.394	0	6.547	0	251.8	4	96.9	4	-1E+10	1	-1E+10	1	-1E+10	1	-1E+10	1	-1E+10	1	-1E+10	1
4901784	178	C	05/19/2020	10:44	-132.304	43.297	0	8.40	0	12.6750	0	34.9170	8	26.394	0	8.333	0	251.6	4	96.9	4	-1E+10	1	-1E+10	1	-1E+10	1	-1E+10	1	-1E+10	1	-1E+10	1
4901784	178	C	05/19/2020	10:44	-132.304	43.297	0	10.20	0	12.6760	0	34.9180	8	26.395	0	10.119	0	251.7	4	96.9	4	-1E+10	1	-1E+10	1	-1E+10	1	-1E+10	1	-1E+10	1	-1E+10	1
4901784	178	C	05/19/2020	10:44	-132.304	43.297	0	12.00	0	12.6760	0	34.9180	8	26.395	0	11.904	0	251.6	4	96.9	4	-1E+10	1	-1E+10	1	-1E+10	1	-1E+10	1	-1E+10	1	-1E+10	1
4901784	178	C	05/19/2020	10:44	-132.304	43.297	0	13.80	0	12.6760	0	34.9190	8	26.396	0	13.690	0	251.6	4	96.8	4	-1E+10	1	-1E+10	1	-1E+10	1	-1E+10	1	-1E+10	1	-1E+10	1
4901784	178	C	05/19/2020	10:44	-132.304	43.297	0	15.70	0	12.6770	0	34.9180	8	26.395	0	15.574	0	251.5	4	96.8	4	-1E+10	1	-1E+10	1	-1E+10	1	-1E+10	1	-1E+10	1	-1E+10	1
4901784	178	C	05/19/2020	10:44	-132.304	43.297	0	17.60	0	12.6770	0	34.9180	8	26.395	0	17.459	0	251.5	4	96.8	4	-1E+10	1	-1E+10	1	-1E+10	1	-1E+10	1	-1E+10	1	-1E+10	1
4901784	178	C	05/19/2020	10:44	-132.304	43.297	0	19.40	0	12.6700	0	34.9180	8	26.396	0	19.245	0	251.5	4	96.8	4	-1E+10	1	-1E+10	1	-1E+10	1	-1E+10	1	-1E+10	1	-1E+10	1
4901784	178	C	05/19/2020	10:44	-132.304	43.297	0	21.30	0	12.6520	0	34.9150	8	26.398	0	21.129	0	251.5	4	96.8	4	-1E+10	1	-1E+10	1	-1E+10	1	-1E+10	1	-1E+10	1	-1E+10	1
4901784	178	C	05/19/2020	10:44	-132.304	43.297	0	23.20	0	12.6140	0	34.9140	8	26.404	0	23.014	0	252.0	4	96.9	4	-1E+10	1	-1E+10	1	-1E+10	1	-1E+10	1	-1E+10	1	-1E+10	1
4901784	178	C	05/19/2020	10:44	-132.304	43.297	0	25.10	0	12.5740	0	34.9140	8	26.412	0	24.899	0	252.2	4	96.9	4	-1E+10	1	-1E+10	1	-1E+10	1	-1E+10	1	-1E+10	1	-1E+10	1
4901784	178	C	05/19/2020	10:44	-132.304	43.297	0	26.90	0	12.5260	0	34.9160	8	26.423	0	26.684	0	252.7	4	97.0	4	-1E+10	1	-1E+10	1	-1E+10	1	-1E+10	1	-1E+10	1	-1E+10	1
4901784	178	C	05/19/2020	10:44	-132.304	43.297	0	28.70	0	12.4770	0	34.9170	8	26.434	0	28.470	0	253.0	4	97.0	4	-1E+10	1	-1E+10	1	-1E+10	1	-1E+10	1	-1E+10	1	-1E+10	1
4901784	178	C	05/19/2020	10:44	-132.304	43.297	0	30.60	0	12.4010	0	34.9220	8	26.452	0	30.354	0	253.5	4	97.1	4	-1E+10	1	-1E+10	1	-1E+10	1	-1E+10	1	-1E+10	1	-1E+10	1
4901784	178	C	05/19/2020	10:44	-132.304	43.297	0	32.50	0	12.3480	0	34.9290	8	26.468	0	32.239	0	253.9	4	97.1	4	-1E+10	1	-1E+10	1	-1E+10	1	-1E+10	1	-1E+10	1	-1E+10	1
4901784	178	C	05/19/2020	10:44	-132.304	43.297	0	34.40	0	12.3470	0	34.9290	8	26.468	0	34.123	0	253.9	4	97.1	4	-1E+10	1	-1E+10	1	-1E+10	1	-1E+10	1	-1E+10	1	-1E+10	1
4901784	178	C	05/19/2020	10:44	-132.304	43.297	0	36.40	0	12.3460	0	34.9290	8	26.469	0	36.107	0	254.0	4	97.1	4	-1E+10	1	-1E+10	1	-1E+10	1	-1E+10	1	-1E+10	1	-1E+10	1
4901784	178	C	05/19/2020	10:44	-132.304	43.297	0	38.30	0	12.3450	0	34.9280	8	26.468	0	37.992	0	253.8	4	97.0	4	-1E+10	1	-1E+10	1	-1E+10	1	-1E+10	1	-1E+10	1	-1E+10	1
4901784	178	C	05/19/2020	10:44	-132.304	43.297	0	40.50	0	12.3180	0	34.9280	8	26.474	0	40.174	0	254.3	4	97.2	4	-1E+10	1	-1E+10	1	-1E+10	1	-1E+10	1	-1E+10	1	-1E+10	1
4901784	178	C	05/19/2020	10:44	-132.304	43.297	0	41.00	0	12.3100	0	34.9280	8	26.475	0	40.670	0	254.2	4	97.1	4	-1E+10	1	-1E+10	1	-1E+10	1	-1E+10	1	-1E+10	1	-1E+10	1
4901784	178	C	05/19/2020	10:44	-132.304	43.297	0	42.70	0	12.2990	0	34.9260	8	26.476	0	42.356	0	254.7	4	97.3	4	-1E+10	1	-1E+10	1	-1E+10	1	-1E+10	1	-1E+10	1	-1E+10	1
4901784	178	C	05/19/2020	10:44	-132.304	43.297	0	44.20	0	12.2720	0	34.9210	8	26.477	0	43.843	0	254.9	4	97.3	4	-1E+10	1	-1E+10	1	-1E+10	1	-1E+10	1	-1E+10	1	-1E+10	1
4901784	178	C	05/19/2020	10:44	-132.304	43.297	0	45.80	0	12.2090	0	34.9150	8	26.485	0	45.430	0	255.8	4	97.5	4	-1E+10	1	-1E+10	1	-1E+10	1	-1E+10	1	-1E+10	1	-1E+10	1
4901784	178	C	05/19/2020	10:44	-132.304	43.297	0	47.40	0	12.0040	0	34.9270	8	26.533	0	47.017	0	256.8	4	97.5	4	-1E+10	1	-1E+10	1	-1E+10	1	-1E+10	1	-1E+10	1	-1E+10	1
4901784	178	C	05/19/2020	10:44	-132.304	43.297	0	48.90	0	11.7740	0	34.9430	8	26.590	0	48.505	0	258.1	4	97.5	4	-1E+10	1	-1E+10	1	-1E+10	1	-1E+10	1	-1E+10	1	-1E+10	1
4901784	178	C	05/19/2020	10:44	-132.304	43.297	0	50.50	0	11.6330	0	34.9520	8	26.623	0	50.092	0	258.3	4	97.3	4	-1E+10	1	-1E+10	1	-1E+10	1	-1E+10	1	-1E+10	1	-1E+10	1
4901784	178	C	05/19/2020	10:44	-132.304	43.297	0	52.00	0	11.5550	0	34.9590	8	26.643	0	51.579	0	258.4	4	97.2	4	-1E+10	1	-1E+10	1	-1E+10	1	-1E+10	1	-1E+10	1	-1E+10	1
4901784	178	C	05/19/2020	10:44	-132.304	43.297	0	53.60	0	11.4760	0	34.9590	8	26.658	0	53.166	0	258.4	4	97.1	4	-1E+10	1	-1E+10	1	-1E+10	1	-1E+10	1	-1E+10	1	-1E+10	1
4901784	178	C	05/19/2020	10:44	-132.304	43.297	0	55.20	0	11.3200	0	34.9760	8	26.700	0	54.753	0	258.5	4	96.8	4	-1E+10	1	-1E+10	1	-1E+10	1	-1E+10	1	-1E+10	1	-1E+10	1
4901784	178	C	05/19/2020	10:44	-132.304	43.297	0	56.90	0	11.2090	0	34.9820	8	26.725	0	56.439	0	258.9	4	96.7	4	-1E+10	1	-1E+10	1	-1E+10	1	-1E+10	1	-1E+10	1	-1E+10	1
4901784	178	C	05/19/2020	10:44	-132.304	43.297	0	58.60	0	11.1940	0	34.9820	8	26.728	0	58.125	0	258.6	4	96.6	4	-1E+10	1	-1E+10	1	-1E+10	1	-1E+10	1	-1E+10	1	-1E+10	1
4901784	178	C	05/19/2020	10:44	-132.304	43.297	0	60.20	0	11.1690	0	34.9840	8	26.734	0	59.712	0	258.3	4	96.4	4	-1E+10	1	-1E+10	1	-1E+10	1	-1E+10	1	-1E+10	1	-1E+10	1
4901784	178	C	05/19/2020	10:44	-132.304	43.297	0	61.90	0	11.0900	0	34.9870	8	26.751	0	61.398	0	258.0	4	96.1	4	-1E+10	1	-1E+10	1	-1E+10	1	-1E+10	1	-1E+10	1	-1E+10	1
4901784	178	C	05/19/2020	10:44	-132.304	43.297	0	63.60	0	11.0770	0	34.9850	8	26.752	0	63.084	0	258.3	4	96.2	4	-1E+10	1	-1E+10	1	-1E+10	1	-1E+10	1	-1E+10	1	-1E+10	1
4901784	178	C	05/19/2020	10:44	-132.304	43.297	0	65.30	0	11.0330	0	34.9870	8	26.761	0	64.770	0	258.6	4	96.3	4	-1E+10	1	-1E+10	1	-1E+10	1	-1E+10	1	-1E+10	1	-1E+10	1
4901784	178	C	05/19/2020	10:44	-132.304	43.297	0	67.00	0	10.9920	0	34.9860	8	26.768	0	66.456	0	258.9	4	96.3	4	-1E+10	1	-1E+10	1	-1E+10	1	-1E+10	1	-1E+10	1	-1E+10	1
4901784	178	C	05/19/2020	10:44	-132.304	43.297	0	68.70	0	10.9900	0	34.9850	8	26.768	0	68.142	0	258.9	4	96.3	4	-1E+10	1	-1E+10	1	-1E+10	1	-1E+10	1	-1E+10	1	-1E+10	1
4901784	178	C	05/19/2020	10:44	-132.304	43.297	0	70.40	0	10.9880	0	34.9830	8	26.767	0	69.828	0	258.8	4	96.2	4	-1E+10	1	-1E+10	1	-1E+10	1	-1E+10	1	-1E+10	1	-1E+10	1
4901784	178	C	05/19/2020	10:44	-132.304	43.297	0	72.10	0	10.9500	0	34.9810	8	26.772	0	71.513	0	258.7	4	96.1	4	-1E+10	1	-1E+10	1	-1E+10	1	-1E+10	1	-1E+10	1	-1E+10	1
4901784	178	C	05/19/2020	10:44	-132.304	43.297	0	73.80	0	10.8700	0	34.9800	8	26.786	0	73.199	0	259.2	4	96.1	4	-1E+10	1	-1E+10	1	-1E+10	1	-1E+10	1	-1E+10	1	-1E+10	1
4901784	178	C	05/19/2020	10:44	-132.304	43.297	0	75.40	0	10.8410	0	34.9770	8	26.788	0	74.786	0	259.5	4	96.2	4	-1E+10	1	-1E+10	1	-1E+10	1	-1E+10	1	-1E+10	1	-1E+10	1
4901784	178	C	05/19/2020	10:44	-132.304	43.297	0	77.20	0	10.8090	0	34.9660	8	26.786	0	76.571	0	259.5	4	96.1	4	-1E+10	1	-1E+10	1	-1E+10	1	-1E+10	1	-1E+10	1	-1E+10	1
4901784	178	C	05/19/2020	10:44	-132.304	43.297	0	78.80	0	10.7830	0	34.9760	8	26.798	0	78.158	0	260.0	4	96.3	4	-1E+10	1	-1E+10	1	-1E+10	1	-1E+10	1	-1E+10	1	-1E+10	1
4901784	178	C	05/19/2020	10:44	-132.304	43.297	0	80.50	0	10.7890	0	34.9770	8	26.798	0	79.844	0	259.6	4	96.1	4	-1E+10	1	-1E+10	1	-1E+10	1	-1E+10	1	-1E+10	1	-1E+10	1
4901784	178	C	05/19/2020	10:44	-132.304	43.297	0	82.30	0	10.7950	0	34.9840	8	26.802	0	81.628	0	259.4	4	96.1	4	-1E+10	1	-1E+10	1	-1E+10	1	-1E+10	1	-1E+10	1	-1E+10	1
4901784	178	C	05/19/2020	10:44	-132.304	43.297	0	84.10	0	10.6740	0	34.9790	8	26.820	0	83.413	0	259.7	4	95.9	4	-1E+10	1	-1E+10	1	-1E+10	1	-1E+10	1	-1E+10	1	-1E+10	1
4901784	178	C	05/19/2020	10:44	-132.304	43.297	0	85.80	0	10.6490	0	34.9810	8	26.826	0	85.099	0	259.3	4	95.7	4	-1E+10	1	-1E+10	1	-1E+10	1	-1E+10	1	-1E+10	1	-1E+10	1
4901784	178	C	05/19/2020	10:44	-132.304	43.297	0	87.50	0	10.6240	0	34.9780	8	26.828	0	86.785	0	259.1	4	95.6	4	-1E+10	1	-1E+10	1	-1E+10	1	-1E+10	1	-1E+10	1	-1E+10	1
4901784	178	C	05/19/2020	10:44	-132.304	43.297	0	89.30	0	10.6160	0	34.9780	8	26.830	0	88.570	0	258.8	4	95.5	4	-1E+10	1	-1E+10	1	-1E+10	1	-1E+10	1	-1E+10	1	-1E+10	1
4901784	178	C	05/19/2020	10:44	-132.304	43.297	0	91.00	0	10.5880	0	34.9740	8	26.832	0	90.256	0	258.6	4	95.3	4	-1E+10	1	-1E+10	1	-1E+10	1	-1E+10	1	-1E+10	1	-1E+10	1
4901784	178	C	05/19/2020	10:44	-132.304	43.297	0	92.80	0	10.5700	0	34.9670	8	26.829	0	92.040	0	258.3	4	95.2	4	-1E+10	1	-1E+10	1	-1E+10	1	-1E+10	1	-1E+10	1	-1E+10	1
4901784	178	C	05/19/2020	10:44	-132.304	43.297	0	94.50	0	10.4650	0	34.9550	8	26.839	0	93.726	0	258.1	4	94.9	4	-1E+10	1	-1E+10	1	-1E+10	1	-1E+10	1	-1E+10	1	-1E+10	1
4901784	178	C	05/19/2020	10:44	-132.304	43.297	0	96.30	0	10.3720	0	34.9510	8	26.852	0	95.511	0	258.1	4	94.7	4	-1E+10	1	-1E+10	1	-1E+10	1	-1E+10	1	-1E+10	1	-1E+10	1
4901784	178	C	05/19/2020	10:44	-132.304	43.297	0	98.00	0	10.2810	0	34.9410	8	26.860	0	97.197	0	258.3	4	94.6	4	-1E+10	1	-1E+10	1	-1E+10	1	-1E+10	1	-1E+10	1	-1E+10	1
4901784	178	C	05/19/2020	10:44	-132.304	43.297	0	99.80	0	10.2750	0	34.9460	8	26.865	0	98.981	0	258.0	4	94.5	4	-1E+10	1	-1E+10	1	-1E+10	1	-1E+10	1	-1E+10	1	-1E+10	1
4901784	178	C	05/19/2020	10:44	-132.304	43.297	0	102.50	0	10.2190	0	34.9440	8	26.873	0	101.659	0	257.4	4	94.1	4	-1E+10	1	-1E+10	1	-1E+10	1	-1E+10	1	-1E+10	1	-1E+10	1
4901784	178	C	05/19/2020	10:44	-132.304	43.297	0	105.20	0	10.1820	0	34.9440	8	26.879	0	104.336	0	256.7	4	93.8	4	-1E+10	1	-1E+10	1	-1E+10	1	-1E+10	1	-1E+10	1	-1E+10	1
4901784	178	C	05/19/2020	10:44	-132.304	43.297	0	107.80	0	10.1920	0	34.9500	8	26.882	0	106.914	0	255.4	4	93.3	4	-1E+10	1	-1E+10	1	-1E+10	1	-1E+10	1	-1E+10	1	-1E+10	1
4901784	178	C	05/19/2020	10:44	-132.304	43.297	0	110.50	0	10.2350	0	34.9660	8	26.888	0	109.591	0	253.4	4	92.7	4	-1E+10	1	-1E+10	1	-1E+10	1	-1E+10	1	-1E+10	1	-1E+10	1
4901784	178	C	05/19/2020	10:44	-132.304	43.297	0	112.30	0	10.2220	0	34.9700	8	26.893	0	111.376	0	252.7	4	92.4	4	-1E+10	1	-1E+10	1	-1E+10	1	-1E+10	1	-1E+10	1	-1E+10	1
4901784	178	C	05/19/2020	10:44	-132.304	43.297	0	114.90	0	10.2070	0	34.9680	8	26.894	0	113.953	0	251.5	4	92.0	4	-1E+10	1	-1E+10	1	-1E+10	1	-1E+10	1	-1E+10	1	-1E+10	1
4901784	178	C	05/19/2020	10:44	-132.304	43.297	0	117.60	0	10.1270	0	34.9740	8	26.913	0	116.630	0	250.0	4	91.3	4	-1E+10	1	-1E+10	1	-1E+10	1	-1E+10	1	-1E+10	1	-1E+10	1
4901784	178	C	05/19/2020	10:44	-132.304	43.297	0	120.30	0	10.0250	0	34.9740	8	26.930	0	119.307	0	248.7	4	90.6	4	-1E+10	1	-1E+10	1	-1E+10	1	-1E+10	1	-1E+10	1	-1E+10	1
4901784	178	C	05/19/2020	10:44	-132.304	43.297	0	123.30	0	10.0580	0	34.9980	8	26.943	0	122.282	0	246.0	4	89.7	4	-1E+10	1	-1E+10	1	-1E+10	1	-1E+10	1	-1E+10	1	-1E+10	1
4901784	178	C	05/19/2020	10:44	-132.304	43.297	0	124.60	0	10.0690	0	35.0030	8	26.945	0	123.571	0	244.7	4	89.3	4	-1E+10	1	-1E+10	1	-1E+10	1	-1E+10	1	-1E+10	1	-1E+10	1
4901784	178	C	05/19/2020	10:44	-132.304	43.297	0	127.70	0	9.9140	0	35.0030	8	26.972	0	126.644	0	241.9	4	87.9	4	-1E+10	1	-1E+10	1	-1E+10	1	-1E+10	1	-1E+10	1	-1E+10	1
4901784	178	C	05/19/2020	10:44	-132.304	43.297	0	129.90	0	9.7440	0	35.0230	8	27.016	0	128.825	0	238.9	4	86.5	4	-1E+10	1	-1E+10	1	-1E+10	1	-1E+10	1	-1E+10	1	-1E+10	1
4901784	178	C	05/19/2020	10:44	-132.304	43.297	0	132.20	0	9.6430	0	35.0660	8	27.067	0	131.105	0	236.2	4	85.4	4	-1E+10	1	-1E+10	1	-1E+10	1	-1E+10	1	-1E+10	1	-1E+10	1
4901784	178	C	05/19/2020	10:44	-132.304	43.297	0	135.30	0	9.5460	0	35.1190	8	27.125	0	134.179	0	232.7	4	84.0	4	-1E+10	1	-1E+10	1	-1E+10	1	-1E+10	1	-1E+10	1	-1E+10	1
4901784	178	C	05/19/2020	10:44	-132.304	43.297	0	137.70	0	9.4870	0	35.1550	8	27.163	0	136.558	0	229.8	4	82.9	4	-1E+10	1	-1E+10	1	-1E+10	1	-1E+10	1	-1E+10	1	-1E+10	1
4901784	178	C	05/19/2020	10:44	-132.304	43.297	0	140.00	0	9.3970	0	35.1950	8	27.209	0	138.838	0	227.1	4	81.7	4	-1E+10	1	-1E+10	1	-1E+10	1	-1E+10	1	-1E+10	1	-1E+10	1
4901784	178	C	05/19/2020	10:44	-132.304	43.297	0	142.80	0	9.3240	0	35.2250	8	27.245	0	141.614	0	223.5	4	80.4	4	-1E+10	1	-1E+10	1	-1E+10	1	-1E+10	1	-1E+10	1	-1E+10	1
4901784	178	C	05/19/2020	10:44	-132.304	43.297	0	144.90	0	9.1110	0	35.3100	8	27.346	0	143.696	0	220.8	4	79.0	4	-1E+10	1	-1E+10	1	-1E+10	1	-1E+10	1	-1E+10	1	-1E+10	1
4901784	178	C	05/19/2020	10:44	-132.304	43.297	0	147.40	0	8.9320	0	35.3790	8	27.429	0	146.174	0	217.4	4	77.5	4	-1E+10	1	-1E+10	1	-1E+10	1	-1E+10	1	-1E+10	1	-1E+10	1
4901784	178	C	05/19/2020	10:44	-132.304	43.297	0	150.20	0	8.7220	0	35.4460	8	27.515	0	148.950	0	214.7	4	76.3	4	-1E+10	1	-1E+10	1	-1E+10	1	-1E+10	1	-1E+10	1	-1E+10	1
4901784	178	C	05/19/2020	10:44	-132.304	43.297	0	152.40	0	8.6160	0	35.4950	8	27.570	0	151.131	0	212.7	4	75.4	4	-1E+10	1	-1E+10	1	-1E+10	1	-1E+10	1	-1E+10	1	-1E+10	1
4901784	178	C	05/19/2020	10:44	-132.304	43.297	0	154.70	0	8.3870	0	35.5640	8	27.660	0	153.411	0	211.6	4	74.7	4	-1E+10	1	-1E+10	1	-1E+10	1	-1E+10	1	-1E+10	1	-1E+10	1
4901784	178	C	05/19/2020	10:44	-132.304	43.297	0	157.80	0	8.1630	0	35.6580	8	27.769	0	156.484	0	210.1	4	73.8	4	-1E+10	1	-1E+10	1	-1E+10	1	-1E+10	1	-1E+10	1	-1E+10	1
4901784	178	C	05/19/2020	10:44	-132.304	43.297	0	160.30	0	8.0930	0	35.7190	8	27.827	0	158.962	0	209.2	4	73.5	4	-1E+10	1	-1E+10	1	-1E+10	1	-1E+10	1	-1E+10	1	-1E+10	1
4901784	178	C	05/19/2020	10:44	-132.304	43.297	0	162.80	0	8.0950	0	35.8050	8	27.895	0	161.440	0	208.0	4	73.1	4	-1E+10	1	-1E+10	1	-1E+10	1	-1E+10	1	-1E+10	1	-1E+10	1
4901784	178	C	05/19/2020	10:44	-132.304	43.297	0	165.30	0	8.0870	0	35.8240	8	27.911	0	163.918	0	206.9	4	72.7	4	-1E+10	1	-1E+10	1	-1E+10	1	-1E+10	1	-1E+10	1	-1E+10	1
4901784	178	C	05/19/2020	10:44	-132.304	43.297	0	167.70	0	8.0690	0	35.8790	8	27.957	0	166.297	0	204.9	4	72.0	4	-1E+10	1	-1E+10	1	-1E+10	1	-1E+10	1	-1E+10	1	-1E+10	1
4901784	178	C	05/19/2020	10:44	-132.304	43.297	0	170.20	0	7.9760	0	35.9570	8	28.032	0	168.775	0	203.1	4	71.3	4	-1E+10	1	-1E+10	1	-1E+10	1	-1E+10	1	-1E+10	1	-1E+10	1
4901784	178	C	05/19/2020	10:44	-132.304	43.297	0	172.70	0	7.9400	0	35.9930	8	28.066	0	171.253	0	201.5	4	70.6	4	-1E+10	1	-1E+10	1	-1E+10	1	-1E+10	1	-1E+10	1	-1E+10	1
4901784	178	C	05/19/2020	10:44	-132.304	43.297	0	175.30	0	7.9450	0	36.0120	8	28.080	0	173.831	0	198.4	4	69.6	4	-1E+10	1	-1E+10	1	-1E+10	1	-1E+10	1	-1E+10	1	-1E+10	1
4901784	178	C	05/19/2020	10:44	-132.304	43.297	0	177.00	0	7.9660	0	36.0440	8	28.102	0	175.516	0	196.0	4	68.8	4	-1E+10	1	-1E+10	1	-1E+10	1	-1E+10	1	-1E+10	1	-1E+10	1
4901784	178	C	05/19/2020	10:44	-132.304	43.297	0	179.70	0	8.0050	0	36.1230	8	28.159	0	178.192	0	192.6	4	67.7	4	-1E+10	1	-1E+10	1	-1E+10	1	-1E+10	1	-1E+10	1	-1E+10	1
4901784	178	C	05/19/2020	10:44	-132.304	43.297	0	182.40	0	7.9530	0	36.1570	8	28.193	0	180.868	0	189.9	4	66.7	4	-1E+10	1	-1E+10	1	-1E+10	1	-1E+10	1	-1E+10	1	-1E+10	1
4901784	178	C	05/19/2020	10:44	-132.304	43.297	0	185.10	0	7.9550	0	36.2270	8	28.248	0	183.544	0	185.3	4	65.1	4	-1E+10	1	-1E+10	1	-1E+10	1	-1E+10	1	-1E+10	1	-1E+10	1
4901784	178	C	05/19/2020	10:44	-132.304	43.297	0	187.80	0	8.0230	0	36.2860	8	28.284	0	186.220	0	181.7	4	64.0	4	-1E+10	1	-1E+10	1	-1E+10	1	-1E+10	1	-1E+10	1	-1E+10	1
4901784	178	C	05/19/2020	10:44	-132.304	43.297	0	189.70	0	8.0260	0	36.2960	8	28.292	0	188.103	0	180.3	4	63.5	4	-1E+10	1	-1E+10	1	-1E+10	1	-1E+10	1	-1E+10	1	-1E+10	1
4901784	178	C	05/19/2020	10:44	-132.304	43.297	0	192.40	0	8.0370	0	36.3160	8	28.306	0	190.779	0	178.0	4	62.7	4	-1E+10	1	-1E+10	1	-1E+10	1	-1E+10	1	-1E+10	1	-1E+10	1
4901784	178	C	05/19/2020	10:44	-132.304	43.297	0	195.30	0	8.0380	0	36.3340	8	28.320	0	193.654	0	175.6	4	61.8	4	-1E+10	1	-1E+10	1	-1E+10	1	-1E+10	1	-1E+10	1	-1E+10	1
4901784	178	C	05/19/2020	10:44	-132.304	43.297	0	197.30	0	8.0380	0	36.3520	8	28.334	0	195.636	0	173.9	4	61.3	4	-1E+10	1	-1E+10	1	-1E+10	1	-1E+10	1	-1E+10	1	-1E+10	1
4901784	178	C	05/19/2020	10:44	-132.304	43.297	0	200.30	0	8.0390	0	36.3820	8	28.357	0	198.609	0	172.0	4	60.6	4	-1E+10	1	-1E+10	1	-1E+10	1	-1E+10	1	-1E+10	1	-1E+10	1
4901784	178	C	05/19/2020	10:44	-132.304	43.297	0	203.40	0	8.0400	0	36.4000	8	28.371	0	201.681	0	170.7	4	60.2	4	-1E+10	1	-1E+10	1	-1E+10	1	-1E+10	1	-1E+10	1	-1E+10	1
4901784	178	C	05/19/2020	10:44	-132.304	43.297	0	204.80	0	8.0410	0	36.4000	8	28.371	0	203.069	0	170.2	4	60.0	4	-1E+10	1	-1E+10	1	-1E+10	1	-1E+10	1	-1E+10	1	-1E+10	1
4901784	178	C	05/19/2020	10:44	-132.304	43.297	0	207.30	0	8.0410	0	36.4010	8	28.372	0	205.546	0	169.3	4	59.7	4	-1E+10	1	-1E+10	1	-1E+10	1	-1E+10	1	-1E+10	1	-1E+10	1
4901784	178	C	05/19/2020	10:44	-132.304	43.297	0	209.70	0	8.0370	0	36.4080	8	28.378	0	207.925	0	167.9	4	59.2	4	-1E+10	1	-1E+10	1	-1E+10	1	-1E+10	1	-1E+10	1	-1E+10	1
4901784	178	C	05/19/2020	10:44	-132.304	43.297	0	212.20	0	8.0310	0	36.4160	8	28.386	0	210.402	0	166.4	4	58.7	4	-1E+10	1	-1E+10	1	-1E+10	1	-1E+10	1	-1E+10	1	-1E+10	1
4901784	178	C	05/19/2020	10:44	-132.304	43.297	0	214.70	0	8.0270	0	36.4230	8	28.392	0	212.880	0	164.4	4	57.9	4	-1E+10	1	-1E+10	1	-1E+10	1	-1E+10	1	-1E+10	1	-1E+10	1
4901784	178	C	05/19/2020	10:44	-132.304	43.297	0	217.10	0	8.0110	0	36.4390	8	28.407	0	215.258	0	162.4	4	57.2	4	-1E+10	1	-1E+10	1	-1E+10	1	-1E+10	1	-1E+10	1	-1E+10	1
4901784	178	C	05/19/2020	10:44	-132.304	43.297	0	219.60	0	7.9950	0	36.4520	8	28.420	0	217.736	0	160.3	4	56.5	4	-1E+10	1	-1E+10	1	-1E+10	1	-1E+10	1	-1E+10	1	-1E+10	1
4901784	178	C	05/19/2020	10:44	-132.304	43.297	0	222.20	0	7.9700	0	36.4640	8	28.433	0	220.312	0	158.4	4	55.8	4	-1E+10	1	-1E+10	1	-1E+10	1	-1E+10	1	-1E+10	1	-1E+10	1
4901784	178	C	05/19/2020	10:44	-132.304	43.297	0	224.70	0	7.9520	0	36.4740	8	28.443	0	222.790	0	156.8	4	55.2	4	-1E+10	1	-1E+10	1	-1E+10	1	-1E+10	1	-1E+10	1	-1E+10	1
4901784	178	C	05/19/2020	10:44	-132.304	43.297	0	227.20	0	7.9370	0	36.4780	8	28.449	0	225.267	0	155.2	4	54.6	4	-1E+10	1	-1E+10	1	-1E+10	1	-1E+10	1	-1E+10	1	-1E+10	1
4901784	178	C	05/19/2020	10:44	-132.304	43.297	0	229.70	0	7.9010	0	36.4830	8	28.458	0	227.745	0	153.8	4	54.1	4	-1E+10	1	-1E+10	1	-1E+10	1	-1E+10	1	-1E+10	1	-1E+10	1
4901784	178	C	05/19/2020	10:44	-132.304	43.297	0	232.20	0	7.8770	0	36.4870	8	28.465	0	230.222	0	152.1	4	53.4	4	-1E+10	1	-1E+10	1	-1E+10	1	-1E+10	1	-1E+10	1	-1E+10	1
4901784	178	C	05/19/2020	10:44	-132.304	43.297	0	234.80	0	7.8360	0	36.4920	8	28.475	0	232.798	0	150.7	4	52.9	4	-1E+10	1	-1E+10	1	-1E+10	1	-1E+10	1	-1E+10	1	-1E+10	1
4901784	178	C	05/19/2020	10:44	-132.304	43.297	0	237.40	0	7.8060	0	36.4950	8	28.482	0	235.375	0	149.5	4	52.5	4	-1E+10	1	-1E+10	1	-1E+10	1	-1E+10	1	-1E+10	1	-1E+10	1
4901784	178	C	05/19/2020	10:44	-132.304	43.297	0	239.90	0	7.7810	0	36.4970	8	28.488	0	237.852	0	148.1	4	51.9	4	-1E+10	1	-1E+10	1	-1E+10	1	-1E+10	1	-1E+10	1	-1E+10	1
4901784	178	C	05/19/2020	10:44	-132.304	43.297	0	242.40	0	7.7290	0	36.5010	8	28.499	0	240.329	0	146.7	4	51.4	4	-1E+10	1	-1E+10	1	-1E+10	1	-1E+10	1	-1E+10	1	-1E+10	1
4901784	178	C	05/19/2020	10:44	-132.304	43.297	0	245.00	0	7.6990	0	36.5030	8	28.505	0	242.905	0	144.9	4	50.7	4	-1E+10	1	-1E+10	1	-1E+10	1	-1E+10	1	-1E+10	1	-1E+10	1
4901784	178	C	05/19/2020	10:44	-132.304	43.297	0	247.50	0	7.6710	0	36.5020	8	28.508	0	245.382	0	142.8	4	50.0	4	-1E+10	1	-1E+10	1	-1E+10	1	-1E+10	1	-1E+10	1	-1E+10	1
4901784	178	C	05/19/2020	10:44	-132.304	43.297	0	250.10	0	7.6010	0	36.5090	8	28.524	0	247.959	0	140.5	4	49.1	4	-1E+10	1	-1E+10	1	-1E+10	1	-1E+10	1	-1E+10	1	-1E+10	1
4901784	178	C	05/19/2020	10:44	-132.304	43.297	0	252.80	0	7.5410	0	36.5140	8	28.537	0	250.634	0	139.2	4	48.6	4	-1E+10	1	-1E+10	1	-1E+10	1	-1E+10	1	-1E+10	1	-1E+10	1
4901784	178	C	05/19/2020	10:44	-132.304	43.297	0	254.50	0	7.5300	0	36.5150	8	28.540	0	252.318	0	138.8	4	48.4	4	-1E+10	1	-1E+10	1	-1E+10	1	-1E+10	1	-1E+10	1	-1E+10	1
4901784	178	C	05/19/2020	10:44	-132.304	43.297	0	257.20	0	7.5150	0	36.5140	8	28.541	0	254.994	0	138.1	4	48.1	4	-1E+10	1	-1E+10	1	-1E+10	1	-1E+10	1	-1E+10	1	-1E+10	1
4901784	178	C	05/19/2020	10:44	-132.304	43.297	0	259.80	0	7.4980	0	36.5130	8	28.543	0	257.570	0	136.9	4	47.7	4	-1E+10	1	-1E+10	1	-1E+10	1	-1E+10	1	-1E+10	1	-1E+10	1
4901784	178	C	05/19/2020	10:44	-132.304	43.297	0	262.50	0	7.4520	0	36.5140	8	28.551	0	260.245	0	135.1	4	47.0	4	-1E+10	1	-1E+10	1	-1E+10	1	-1E+10	1	-1E+10	1	-1E+10	1
4901784	178	C	05/19/2020	10:44	-132.304	43.297	0	265.20	0	7.4000	0	36.5160	8	28.560	0	262.920	0	133.0	4	46.3	4	-1E+10	1	-1E+10	1	-1E+10	1	-1E+10	1	-1E+10	1	-1E+10	1
4901784	178	C	05/19/2020	10:44	-132.304	43.297	0	267.10	0	7.3760	0	36.5170	8	28.564	0	264.802	0	131.9	4	45.8	4	-1E+10	1	-1E+10	1	-1E+10	1	-1E+10	1	-1E+10	1	-1E+10	1
4901784	178	C	05/19/2020	10:44	-132.304	43.297	0	269.80	0	7.3330	0	36.5190	8	28.572	0	267.477	0	131.2	4	45.6	4	-1E+10	1	-1E+10	1	-1E+10	1	-1E+10	1	-1E+10	1	-1E+10	1
4901784	178	C	05/19/2020	10:44	-132.304	43.297	0	272.50	0	7.2900	0	36.5190	8	28.578	0	270.152	0	130.8	4	45.4	4	-1E+10	1	-1E+10	1	-1E+10	1	-1E+10	1	-1E+10	1	-1E+10	1
4901784	178	C	05/19/2020	10:44	-132.304	43.297	0	275.30	0	7.2580	0	36.5180	8	28.582	0	272.926	0	129.9	4	45.0	4	-1E+10	1	-1E+10	1	-1E+10	1	-1E+10	1	-1E+10	1	-1E+10	1
4901784	178	C	05/19/2020	10:44	-132.304	43.297	0	278.00	0	7.2240	0	36.5170	8	28.586	0	275.601	0	128.5	4	44.5	4	-1E+10	1	-1E+10	1	-1E+10	1	-1E+10	1	-1E+10	1	-1E+10	1
4901784	178	C	05/19/2020	10:44	-132.304	43.297	0	279.80	0	7.1670	0	36.5140	8	28.592	0	277.384	0	127.0	4	43.9	4	-1E+10	1	-1E+10	1	-1E+10	1	-1E+10	1	-1E+10	1	-1E+10	1
4901784	178	C	05/19/2020	10:44	-132.304	43.297	0	282.60	0	7.1040	0	36.5180	8	28.605	0	280.158	0	122.7	4	42.4	4	-1E+10	1	-1E+10	1	-1E+10	1	-1E+10	1	-1E+10	1	-1E+10	1
4901784	178	C	05/19/2020	10:44	-132.304	43.297	0	285.40	0	7.0490	0	36.5200	8	28.614	0	282.932	0	119.0	4	41.1	4	-1E+10	1	-1E+10	1	-1E+10	1	-1E+10	1	-1E+10	1	-1E+10	1
4901784	178	C	05/19/2020	10:44	-132.304	43.297	0	287.20	0	7.0080	0	36.5250	8	28.624	0	284.716	0	117.6	4	40.5	4	-1E+10	1	-1E+10	1	-1E+10	1	-1E+10	1	-1E+10	1	-1E+10	1
4901784	178	C	05/19/2020	10:44	-132.304	43.297	0	290.00	0	6.9590	0	36.5250	8	28.631	0	287.489	0	115.7	4	39.8	4	-1E+10	1	-1E+10	1	-1E+10	1	-1E+10	1	-1E+10	1	-1E+10	1
4901784	178	C	05/19/2020	10:44	-132.304	43.297	0	292.80	0	6.9130	0	36.5270	8	28.639	0	290.263	0	113.6	4	39.1	4	-1E+10	1	-1E+10	1	-1E+10	1	-1E+10	1	-1E+10	1	-1E+10	1
4901784	178	C	05/19/2020	10:44	-132.304	43.297	0	294.70	0	6.8920	0	36.5260	8	28.641	0	292.145	0	112.2	4	38.6	4	-1E+10	1	-1E+10	1	-1E+10	1	-1E+10	1	-1E+10	1	-1E+10	1
4901784	178	C	05/19/2020	10:44	-132.304	43.297	0	297.50	0	6.8300	0	36.5300	8	28.653	0	294.919	0	110.1	4	37.8	4	-1E+10	1	-1E+10	1	-1E+10	1	-1E+10	1	-1E+10	1	-1E+10	1
4901784	178	C	05/19/2020	10:44	-132.304	43.297	0	300.20	0	6.7920	0	36.5320	8	28.660	0	297.594	0	108.6	4	37.3	4	-1E+10	1	-1E+10	1	-1E+10	1	-1E+10	1	-1E+10	1	-1E+10	1
4901784	178	C	05/19/2020	10:44	-132.304	43.297	0	302.00	0	6.7720	0	36.5330	8	28.664	0	299.377	0	107.7	4	36.9	4	-1E+10	1	-1E+10	1	-1E+10	1	-1E+10	1	-1E+10	1	-1E+10	1
4901784	178	C	05/19/2020	10:44	-132.304	43.297	0	304.80	0	6.7420	0	36.5320	8	28.667	0	302.150	0	106.5	4	36.5	4	-1E+10	1	-1E+10	1	-1E+10	1	-1E+10	1	-1E+10	1	-1E+10	1
4901784	178	C	05/19/2020	10:44	-132.304	43.297	0	307.60	0	6.6820	0	36.5340	8	28.677	0	304.924	0	105.5	4	36.1	4	-1E+10	1	-1E+10	1	-1E+10	1	-1E+10	1	-1E+10	1	-1E+10	1
4901784	178	C	05/19/2020	10:44	-132.304	43.297	0	309.40	0	6.6690	0	36.5330	8	28.678	0	306.707	0	105.0	4	35.9	4	-1E+10	1	-1E+10	1	-1E+10	1	-1E+10	1	-1E+10	1	-1E+10	1
4901784	178	C	05/19/2020	10:44	-132.304	43.297	0	312.20	0	6.6370	0	36.5310	8	28.681	0	309.481	0	104.2	4	35.6	4	-1E+10	1	-1E+10	1	-1E+10	1	-1E+10	1	-1E+10	1	-1E+10	1
4901784	178	C	05/19/2020	10:44	-132.304	43.297	0	315.00	0	6.5740	0	36.5320	8	28.691	0	312.254	0	103.1	4	35.2	4	-1E+10	1	-1E+10	1	-1E+10	1	-1E+10	1	-1E+10	1	-1E+10	1
4901784	178	C	05/19/2020	10:44	-132.304	43.297	0	316.90	0	6.5360	0	36.5320	8	28.696	0	314.136	0	102.0	4	34.8	4	-1E+10	1	-1E+10	1	-1E+10	1	-1E+10	1	-1E+10	1	-1E+10	1
4901784	178	C	05/19/2020	10:44	-132.304	43.297	0	319.70	0	6.4910	0	36.5360	8	28.705	0	316.910	0	100.0	4	34.1	4	-1E+10	1	-1E+10	1	-1E+10	1	-1E+10	1	-1E+10	1	-1E+10	1
4901784	178	C	05/19/2020	10:44	-132.304	43.297	0	322.50	0	6.4430	0	36.5370	8	28.713	0	319.683	0	98.4	4	33.5	4	-1E+10	1	-1E+10	1	-1E+10	1	-1E+10	1	-1E+10	1	-1E+10	1
4901784	178	C	05/19/2020	10:44	-132.304	43.297	0	324.40	0	6.4220	0	36.5390	8	28.717	0	321.565	0	97.3	4	33.1	4	-1E+10	1	-1E+10	1	-1E+10	1	-1E+10	1	-1E+10	1	-1E+10	1
4901784	178	C	05/19/2020	10:44	-132.304	43.297	0	327.30	0	6.4150	0	36.5400	8	28.719	0	324.437	0	95.5	4	32.5	4	-1E+10	1	-1E+10	1	-1E+10	1	-1E+10	1	-1E+10	1	-1E+10	1
4901784	178	C	05/19/2020	10:44	-132.304	43.297	0	330.10	0	6.3680	0	36.5430	8	28.728	0	327.211	0	94.0	4	31.9	4	-1E+10	1	-1E+10	1	-1E+10	1	-1E+10	1	-1E+10	1	-1E+10	1
4901784	178	C	05/19/2020	10:44	-132.304	43.297	0	331.90	0	6.3480	0	36.5420	8	28.730	0	328.993	0	93.0	4	31.6	4	-1E+10	1	-1E+10	1	-1E+10	1	-1E+10	1	-1E+10	1	-1E+10	1
4901784	178	C	05/19/2020	10:44	-132.304	43.297	0	334.90	0	6.3220	0	36.5470	8	28.737	0	331.965	0	91.7	4	31.1	4	-1E+10	1	-1E+10	1	-1E+10	1	-1E+10	1	-1E+10	1	-1E+10	1
4901784	178	C	05/19/2020	10:44	-132.304	43.297	0	337.70	0	6.2830	0	36.5480	8	28.743	0	334.738	0	91.2	4	30.9	4	-1E+10	1	-1E+10	1	-1E+10	1	-1E+10	1	-1E+10	1	-1E+10	1
4901784	178	C	05/19/2020	10:44	-132.304	43.297	0	339.70	0	6.2570	0	36.5470	8	28.746	0	336.719	0	91.0	4	30.8	4	-1E+10	1	-1E+10	1	-1E+10	1	-1E+10	1	-1E+10	1	-1E+10	1
4901784	178	C	05/19/2020	10:44	-132.304	43.297	0	342.60	0	6.2240	0	36.5460	8	28.750	0	339.591	0	90.4	4	30.6	4	-1E+10	1	-1E+10	1	-1E+10	1	-1E+10	1	-1E+10	1	-1E+10	1
4901784	178	C	05/19/2020	10:44	-132.304	43.297	0	345.50	0	6.1760	0	36.5460	8	28.756	0	342.463	0	89.8	4	30.4	4	-1E+10	1	-1E+10	1	-1E+10	1	-1E+10	1	-1E+10	1	-1E+10	1
4901784	178	C	05/19/2020	10:44	-132.304	43.297	0	347.50	0	6.1320	0	36.5460	8	28.762	0	344.444	0	89.1	4	30.1	4	-1E+10	1	-1E+10	1	-1E+10	1	-1E+10	1	-1E+10	1	-1E+10	1
4901784	178	C	05/19/2020	10:44	-132.304	43.297	0	349.40	0	6.0960	0	36.5490	8	28.769	0	346.325	0	88.3	4	29.8	4	-1E+10	1	-1E+10	1	-1E+10	1	-1E+10	1	-1E+10	1	-1E+10	1
4901784	178	C	05/19/2020	10:44	-132.304	43.297	0	352.20	0	6.0850	0	36.5500	8	28.772	0	349.098	0	87.3	4	29.5	4	-1E+10	1	-1E+10	1	-1E+10	1	-1E+10	1	-1E+10	1	-1E+10	1
4901784	178	C	05/19/2020	10:44	-132.304	43.297	0	355.70	0	5.9970	0	36.5490	8	28.782	0	352.565	0	86.5	4	29.1	4	-1E+10	1	-1E+10	1	-1E+10	1	-1E+10	1	-1E+10	1	-1E+10	1
4901784	178	C	05/19/2020	10:44	-132.304	43.297	0	357.60	0	6.0030	0	36.5490	8	28.782	0	354.446	0	85.0	4	28.6	4	-1E+10	1	-1E+10	1	-1E+10	1	-1E+10	1	-1E+10	1	-1E+10	1
4901784	178	C	05/19/2020	10:44	-132.304	43.297	0	360.00	0	6.0110	0	36.5560	8	28.786	0	356.823	0	83.3	4	28.1	4	-1E+10	1	-1E+10	1	-1E+10	1	-1E+10	1	-1E+10	1	-1E+10	1
4901784	178	C	05/19/2020	10:44	-132.304	43.297	0	362.40	0	6.0110	0	36.5580	8	28.788	0	359.200	0	82.0	4	27.6	4	-1E+10	1	-1E+10	1	-1E+10	1	-1E+10	1	-1E+10	1	-1E+10	1
4901784	178	C	05/19/2020	10:44	-132.304	43.297	0	364.80	0	6.0050	0	36.5610	8	28.791	0	361.577	0	81.0	4	27.3	4	-1E+10	1	-1E+10	1	-1E+10	1	-1E+10	1	-1E+10	1	-1E+10	1
4901784	178	C	05/19/2020	10:44	-132.304	43.297	0	367.30	0	6.0000	0	36.5610	8	28.792	0	364.052	0	80.4	4	27.1	4	-1E+10	1	-1E+10	1	-1E+10	1	-1E+10	1	-1E+10	1	-1E+10	1
4901784	178	C	05/19/2020	10:44	-132.304	43.297	0	369.70	0	5.9620	0	36.5600	8	28.796	0	366.429	0	80.4	4	27.0	4	-1E+10	1	-1E+10	1	-1E+10	1	-1E+10	1	-1E+10	1	-1E+10	1
4901784	178	C	05/19/2020	10:44	-132.304	43.297	0	372.10	0	5.9280	0	36.5590	8	28.800	0	368.806	0	80.1	4	26.9	4	-1E+10	1	-1E+10	1	-1E+10	1	-1E+10	1	-1E+10	1	-1E+10	1
4901784	178	C	05/19/2020	10:44	-132.304	43.297	0	374.60	0	5.8750	0	36.5590	8	28.806	0	371.281	0	79.1	4	26.6	4	-1E+10	1	-1E+10	1	-1E+10	1	-1E+10	1	-1E+10	1	-1E+10	1
4901784	178	C	05/19/2020	10:44	-132.304	43.297	0	377.70	0	5.8220	0	36.5600	8	28.814	0	374.351	0	77.9	4	26.1	4	-1E+10	1	-1E+10	1	-1E+10	1	-1E+10	1	-1E+10	1	-1E+10	1
4901784	178	C	05/19/2020	10:44	-132.304	43.297	0	380.10	0	5.7530	0	36.5660	8	28.828	0	376.727	0	77.4	4	25.9	4	-1E+10	1	-1E+10	1	-1E+10	1	-1E+10	1	-1E+10	1	-1E+10	1
4901784	178	C	05/19/2020	10:44	-132.304	43.297	0	382.50	0	5.7080	0	36.5650	8	28.833	0	379.104	0	77.1	4	25.8	4	-1E+10	1	-1E+10	1	-1E+10	1	-1E+10	1	-1E+10	1	-1E+10	1
4901784	178	C	05/19/2020	10:44	-132.304	43.297	0	385.00	0	5.6900	0	36.5650	8	28.835	0	381.579	0	76.6	4	25.6	4	-1E+10	1	-1E+10	1	-1E+10	1	-1E+10	1	-1E+10	1	-1E+10	1
4901784	178	C	05/19/2020	10:44	-132.304	43.297	0	387.50	0	5.6610	0	36.5680	8	28.841	0	384.055	0	76.0	4	25.4	4	-1E+10	1	-1E+10	1	-1E+10	1	-1E+10	1	-1E+10	1	-1E+10	1
4901784	178	C	05/19/2020	10:44	-132.304	43.297	0	389.90	0	5.6350	0	36.5690	8	28.845	0	386.431	0	75.6	4	25.3	4	-1E+10	1	-1E+10	1	-1E+10	1	-1E+10	1	-1E+10	1	-1E+10	1
4901784	178	C	05/19/2020	10:44	-132.304	43.297	0	392.50	0	5.6390	0	36.5700	8	28.846	0	389.006	0	75.0	4	25.1	4	-1E+10	1	-1E+10	1	-1E+10	1	-1E+10	1	-1E+10	1	-1E+10	1
4901784	178	C	05/19/2020	10:44	-132.304	43.297	0	395.00	0	5.6390	0	36.5700	8	28.846	0	391.481	0	74.2	4	24.8	4	-1E+10	1	-1E+10	1	-1E+10	1	-1E+10	1	-1E+10	1	-1E+10	1
4901784	178	C	05/19/2020	10:44	-132.304	43.297	0	397.50	0	5.6280	0	36.5710	8	28.848	0	393.957	0	73.1	4	24.4	4	-1E+10	1	-1E+10	1	-1E+10	1	-1E+10	1	-1E+10	1	-1E+10	1
4901784	178	C	05/19/2020	10:44	-132.304	43.297	0	400.00	0	5.5870	0	36.5730	8	28.855	0	396.432	0	72.1	4	24.1	4	-1E+10	1	-1E+10	1	-1E+10	1	-1E+10	1	-1E+10	1	-1E+10	1
4901784	178	C	05/19/2020	10:44	-132.304	43.297	0	402.50	0	5.5910	0	36.5780	8	28.858	0	398.907	0	71.4	4	23.8	4	-1E+10	1	-1E+10	1	-1E+10	1	-1E+10	1	-1E+10	1	-1E+10	1
4901784	178	C	05/19/2020	10:44	-132.304	43.297	0	405.00	0	5.5780	0	36.5780	8	28.860	0	401.382	0	70.7	4	23.6	4	-1E+10	1	-1E+10	1	-1E+10	1	-1E+10	1	-1E+10	1	-1E+10	1
4901784	178	C	05/19/2020	10:44	-132.304	43.297	0	407.50	0	5.5610	0	36.5820	8	28.865	0	403.858	0	69.7	4	23.2	4	-1E+10	1	-1E+10	1	-1E+10	1	-1E+10	1	-1E+10	1	-1E+10	1
4901784	178	C	05/19/2020	10:44	-132.304	43.297	0	410.00	0	5.5420	0	36.5830	8	28.869	0	406.333	0	69.2	4	23.1	4	-1E+10	1	-1E+10	1	-1E+10	1	-1E+10	1	-1E+10	1	-1E+10	1
4901784	178	C	05/19/2020	10:44	-132.304	43.297	0	412.60	0	5.5440	0	36.5820	8	28.868	0	408.907	0	68.7	4	22.9	4	-1E+10	1	-1E+10	1	-1E+10	1	-1E+10	1	-1E+10	1	-1E+10	1
4901784	178	C	05/19/2020	10:44	-132.304	43.297	0	415.10	0	5.5200	0	36.5810	8	28.870	0	411.382	0	68.1	4	22.7	4	-1E+10	1	-1E+10	1	-1E+10	1	-1E+10	1	-1E+10	1	-1E+10	1
4901784	178	C	05/19/2020	10:44	-132.304	43.297	0	417.60	0	5.4650	0	36.5820	8	28.878	0	413.857	0	67.3	4	22.4	4	-1E+10	1	-1E+10	1	-1E+10	1	-1E+10	1	-1E+10	1	-1E+10	1
4901784	178	C	05/19/2020	10:44	-132.304	43.297	0	420.20	0	5.4430	0	36.5870	8	28.884	0	416.431	0	66.3	4	22.0	4	-1E+10	1	-1E+10	1	-1E+10	1	-1E+10	1	-1E+10	1	-1E+10	1
4901784	178	C	05/19/2020	10:44	-132.304	43.297	0	422.80	0	5.4420	0	36.5890	8	28.886	0	419.005	0	65.4	4	21.8	4	-1E+10	1	-1E+10	1	-1E+10	1	-1E+10	1	-1E+10	1	-1E+10	1
4901784	178	C	05/19/2020	10:44	-132.304	43.297	0	425.30	0	5.4050	0	36.5920	8	28.893	0	421.480	0	64.5	4	21.5	4	-1E+10	1	-1E+10	1	-1E+10	1	-1E+10	1	-1E+10	1	-1E+10	1
4901784	178	C	05/19/2020	10:44	-132.304	43.297	0	427.10	0	5.3810	0	36.5930	8	28.897	0	423.262	0	63.7	4	21.2	4	-1E+10	1	-1E+10	1	-1E+10	1	-1E+10	1	-1E+10	1	-1E+10	1
4901784	178	C	05/19/2020	10:44	-132.304	43.297	0	429.60	0	5.3880	0	36.5970	8	28.899	0	425.737	0	62.1	4	20.6	4	-1E+10	1	-1E+10	1	-1E+10	1	-1E+10	1	-1E+10	1	-1E+10	1
4901784	178	C	05/19/2020	10:44	-132.304	43.297	0	432.20	0	5.3840	0	36.6000	8	28.902	0	428.311	0	60.4	4	20.1	4	-1E+10	1	-1E+10	1	-1E+10	1	-1E+10	1	-1E+10	1	-1E+10	1
4901784	178	C	05/19/2020	10:44	-132.304	43.297	0	434.80	0	5.3800	0	36.6050	8	28.907	0	430.885	0	58.7	4	19.5	4	-1E+10	1	-1E+10	1	-1E+10	1	-1E+10	1	-1E+10	1	-1E+10	1
4901784	178	C	05/19/2020	10:44	-132.304	43.297	0	437.30	0	5.3640	0	36.6130	8	28.915	0	433.360	0	57.2	4	19.0	4	-1E+10	1	-1E+10	1	-1E+10	1	-1E+10	1	-1E+10	1	-1E+10	1
4901784	178	C	05/19/2020	10:44	-132.304	43.297	0	439.80	0	5.3240	0	36.6140	8	28.921	0	435.835	0	56.2	4	18.6	4	-1E+10	1	-1E+10	1	-1E+10	1	-1E+10	1	-1E+10	1	-1E+10	1
4901784	178	C	05/19/2020	10:44	-132.304	43.297	0	442.40	0	5.3100	0	36.6200	8	28.927	0	438.409	0	54.7	4	18.2	4	-1E+10	1	-1E+10	1	-1E+10	1	-1E+10	1	-1E+10	1	-1E+10	1
4901784	178	C	05/19/2020	10:44	-132.304	43.297	0	445.10	0	5.2820	0	36.6250	8	28.935	0	441.082	0	54.1	4	17.9	4	-1E+10	1	-1E+10	1	-1E+10	1	-1E+10	1	-1E+10	1	-1E+10	1
4901784	178	C	05/19/2020	10:44	-132.304	43.297	0	447.70	0	5.2700	0	36.6260	8	28.937	0	443.655	0	53.6	4	17.7	4	-1E+10	1	-1E+10	1	-1E+10	1	-1E+10	1	-1E+10	1	-1E+10	1
4901784	178	C	05/19/2020	10:44	-132.304	43.297	0	449.60	0	5.2610	0	36.6260	8	28.938	0	445.536	0	53.2	4	17.6	4	-1E+10	1	-1E+10	1	-1E+10	1	-1E+10	1	-1E+10	1	-1E+10	1
4901784	178	C	05/19/2020	10:44	-132.304	43.297	0	452.20	0	5.2480	0	36.6290	8	28.942	0	448.110	0	52.8	4	17.5	4	-1E+10	1	-1E+10	1	-1E+10	1	-1E+10	1	-1E+10	1	-1E+10	1
4901784	178	C	05/19/2020	10:44	-132.304	43.297	0	454.90	0	5.2230	0	36.6300	8	28.946	0	450.783	0	52.7	4	17.4	4	-1E+10	1	-1E+10	1	-1E+10	1	-1E+10	1	-1E+10	1	-1E+10	1
4901784	178	C	05/19/2020	10:44	-132.304	43.297	0	457.60	0	5.1990	0	36.6300	8	28.949	0	453.455	0	52.5	4	17.4	4	-1E+10	1	-1E+10	1	-1E+10	1	-1E+10	1	-1E+10	1	-1E+10	1
4901784	178	C	05/19/2020	10:44	-132.304	43.297	0	460.30	0	5.1630	0	36.6300	8	28.953	0	456.128	0	52.5	4	17.4	4	-1E+10	1	-1E+10	1	-1E+10	1	-1E+10	1	-1E+10	1	-1E+10	1
4901784	178	C	05/19/2020	10:44	-132.304	43.297	0	462.10	0	5.1210	0	36.6290	8	28.958	0	457.909	0	52.3	4	17.3	4	-1E+10	1	-1E+10	1	-1E+10	1	-1E+10	1	-1E+10	1	-1E+10	1
4901784	178	C	05/19/2020	10:44	-132.304	43.297	0	464.90	0	5.1240	0	36.6330	8	28.961	0	460.681	0	51.9	4	17.1	4	-1E+10	1	-1E+10	1	-1E+10	1	-1E+10	1	-1E+10	1	-1E+10	1
4901784	178	C	05/19/2020	10:44	-132.304	43.297	0	467.60	0	5.1160	0	36.6330	8	28.962	0	463.353	0	51.5	4	17.0	4	-1E+10	1	-1E+10	1	-1E+10	1	-1E+10	1	-1E+10	1	-1E+10	1
4901784	178	C	05/19/2020	10:44	-132.304	43.297	0	470.30	0	5.0710	0	36.6330	8	28.967	0	466.026	0	51.1	4	16.9	4	-1E+10	1	-1E+10	1	-1E+10	1	-1E+10	1	-1E+10	1	-1E+10	1
4901784	178	C	05/19/2020	10:44	-132.304	43.297	0	473.00	0	5.0560	0	36.6370	8	28.972	0	468.698	0	50.4	4	16.6	4	-1E+10	1	-1E+10	1	-1E+10	1	-1E+10	1	-1E+10	1	-1E+10	1
4901784	178	C	05/19/2020	10:44	-132.304	43.297	0	474.80	0	5.0610	0	36.6410	8	28.975	0	470.480	0	49.9	4	16.4	4	-1E+10	1	-1E+10	1	-1E+10	1	-1E+10	1	-1E+10	1	-1E+10	1
4901784	178	C	05/19/2020	10:44	-132.304	43.297	0	477.50	0	5.0800	0	36.6430	8	28.974	0	473.152	0	49.8	4	16.4	4	-1E+10	1	-1E+10	1	-1E+10	1	-1E+10	1	-1E+10	1	-1E+10	1
4901784	178	C	05/19/2020	10:44	-132.304	43.297	0	480.30	0	5.0320	0	36.6380	8	28.976	0	475.924	0	50.0	4	16.5	4	-1E+10	1	-1E+10	1	-1E+10	1	-1E+10	1	-1E+10	1	-1E+10	1
4901784	178	C	05/19/2020	10:44	-132.304	43.297	0	482.10	0	4.9980	0	36.6380	8	28.980	0	477.705	0	49.7	4	16.4	4	-1E+10	1	-1E+10	1	-1E+10	1	-1E+10	1	-1E+10	1	-1E+10	1
4901784	178	C	05/19/2020	10:44	-132.304	43.297	0	484.90	0	4.9820	0	36.6390	8	28.983	0	480.476	0	48.8	4	16.1	4	-1E+10	1	-1E+10	1	-1E+10	1	-1E+10	1	-1E+10	1	-1E+10	1
4901784	178	C	05/19/2020	10:44	-132.304	43.297	0	487.60	0	4.9690	0	36.6400	8	28.985	0	483.149	0	47.5	4	15.6	4	-1E+10	1	-1E+10	1	-1E+10	1	-1E+10	1	-1E+10	1	-1E+10	1
4901784	178	C	05/19/2020	10:44	-132.304	43.297	0	489.40	0	5.0060	0	36.6530	8	28.991	0	484.930	0	46.7	4	15.4	4	-1E+10	1	-1E+10	1	-1E+10	1	-1E+10	1	-1E+10	1	-1E+10	1
4901784	178	C	05/19/2020	10:44	-132.304	43.297	0	492.30	0	5.0040	0	36.6530	8	28.991	0	487.800	0	46.2	4	15.2	4	-1E+10	1	-1E+10	1	-1E+10	1	-1E+10	1	-1E+10	1	-1E+10	1
4901784	178	C	05/19/2020	10:44	-132.304	43.297	0	495.00	0	4.9930	0	36.6540	8	28.993	0	490.472	0	45.8	4	15.1	4	-1E+10	1	-1E+10	1	-1E+10	1	-1E+10	1	-1E+10	1	-1E+10	1
4901784	178	C	05/19/2020	10:44	-132.304	43.297	0	497.00	0	4.9720	0	36.6550	8	28.997	0	492.452	0	45.5	4	15.0	4	-1E+10	1	-1E+10	1	-1E+10	1	-1E+10	1	-1E+10	1	-1E+10	1
4901784	178	C	05/19/2020	10:44	-132.304	43.297	0	499.80	0	4.9610	0	36.6590	8	29.001	0	495.223	0	44.8	4	14.8	4	-1E+10	1	-1E+10	1	-1E+10	1	-1E+10	1	-1E+10	1	-1E+10	1
4901784	178	C	05/19/2020	10:44	-132.304	43.297	0	504.50	0	4.9440	0	36.6620	8	29.006	0	499.874	0	43.9	4	14.4	4	-1E+10	1	-1E+10	1	-1E+10	1	-1E+10	1	-1E+10	1	-1E+10	1
4901784	178	C	05/19/2020	10:44	-132.304	43.297	0	510.00	0	4.9220	0	36.6690	8	29.014	0	505.317	0	41.9	4	13.8	4	-1E+10	1	-1E+10	1	-1E+10	1	-1E+10	1	-1E+10	1	-1E+10	1
4901784	178	C	05/19/2020	10:44	-132.304	43.297	0	515.60	0	4.9430	0	36.6790	8	29.019	0	510.858	0	40.2	4	13.2	4	-1E+10	1	-1E+10	1	-1E+10	1	-1E+10	1	-1E+10	1	-1E+10	1
4901784	178	C	05/19/2020	10:44	-132.304	43.297	0	520.30	0	4.9200	0	36.6830	8	29.025	0	515.509	0	39.8	4	13.1	4	-1E+10	1	-1E+10	1	-1E+10	1	-1E+10	1	-1E+10	1	-1E+10	1
4901784	178	C	05/19/2020	10:44	-132.304	43.297	0	525.10	0	4.9000	0	36.6830	8	29.028	0	520.259	0	39.3	4	12.9	4	-1E+10	1	-1E+10	1	-1E+10	1	-1E+10	1	-1E+10	1	-1E+10	1
4901784	178	C	05/19/2020	10:44	-132.304	43.297	0	530.50	0	4.8590	0	36.6870	8	29.036	0	525.603	0	38.3	4	12.6	4	-1E+10	1	-1E+10	1	-1E+10	1	-1E+10	1	-1E+10	1	-1E+10	1
4901784	178	C	05/19/2020	10:44	-132.304	43.297	0	535.40	0	4.8130	0	36.6910	8	29.045	0	530.451	0	37.4	4	12.3	4	-1E+10	1	-1E+10	1	-1E+10	1	-1E+10	1	-1E+10	1	-1E+10	1
4901784	178	C	05/19/2020	10:44	-132.304	43.297	0	540.40	0	4.8020	0	36.6970	8	29.051	0	535.399	0	35.8	4	11.7	4	-1E+10	1	-1E+10	1	-1E+10	1	-1E+10	1	-1E+10	1	-1E+10	1
4901784	178	C	05/19/2020	10:44	-132.304	43.297	0	545.60	0	4.7880	0	36.7020	8	29.056	0	540.544	0	34.8	4	11.4	4	-1E+10	1	-1E+10	1	-1E+10	1	-1E+10	1	-1E+10	1	-1E+10	1
4901784	178	C	05/19/2020	10:44	-132.304	43.297	0	550.70	0	4.7670	0	36.7080	8	29.064	0	545.590	0	33.3	4	10.9	4	-1E+10	1	-1E+10	1	-1E+10	1	-1E+10	1	-1E+10	1	-1E+10	1
4901784	178	C	05/19/2020	10:44	-132.304	43.297	0	555.00	0	4.7830	0	36.7160	8	29.068	0	549.844	0	32.0	4	10.5	4	-1E+10	1	-1E+10	1	-1E+10	1	-1E+10	1	-1E+10	1	-1E+10	1
4901784	178	C	05/19/2020	10:44	-132.304	43.297	0	559.30	0	4.7610	0	36.7240	8	29.077	0	554.098	0	31.2	4	10.2	4	-1E+10	1	-1E+10	1	-1E+10	1	-1E+10	1	-1E+10	1	-1E+10	1
4901784	178	C	05/19/2020	10:44	-132.304	43.297	0	564.50	0	4.7620	0	36.7280	8	29.080	0	559.243	0	30.6	4	10.0	4	-1E+10	1	-1E+10	1	-1E+10	1	-1E+10	1	-1E+10	1	-1E+10	1
4901784	178	C	05/19/2020	10:44	-132.304	43.297	0	569.70	0	4.7510	0	36.7270	8	29.081	0	564.388	0	30.2	4	9.9	4	-1E+10	1	-1E+10	1	-1E+10	1	-1E+10	1	-1E+10	1	-1E+10	1
4901784	178	C	05/19/2020	10:44	-132.304	43.297	0	575.00	0	4.6970	0	36.7300	8	29.090	0	569.631	0	29.6	4	9.7	4	-1E+10	1	-1E+10	1	-1E+10	1	-1E+10	1	-1E+10	1	-1E+10	1
4901784	178	C	05/19/2020	10:44	-132.304	43.297	0	580.20	0	4.6590	0	36.7370	8	29.100	0	574.775	0	28.5	4	9.3	4	-1E+10	1	-1E+10	1	-1E+10	1	-1E+10	1	-1E+10	1	-1E+10	1
4901784	178	C	05/19/2020	10:44	-132.304	43.297	0	585.50	0	4.6480	0	36.7430	8	29.106	0	580.018	0	27.6	4	9.0	4	-1E+10	1	-1E+10	1	-1E+10	1	-1E+10	1	-1E+10	1	-1E+10	1
4901784	178	C	05/19/2020	10:44	-132.304	43.297	0	589.90	0	4.6410	0	36.7470	8	29.110	0	584.371	0	27.0	4	8.8	4	-1E+10	1	-1E+10	1	-1E+10	1	-1E+10	1	-1E+10	1	-1E+10	1
4901784	178	C	05/19/2020	10:44	-132.304	43.297	0	594.40	0	4.6170	0	36.7500	8	29.115	0	588.822	0	26.5	4	8.7	4	-1E+10	1	-1E+10	1	-1E+10	1	-1E+10	1	-1E+10	1	-1E+10	1
4901784	178	C	05/19/2020	10:44	-132.304	43.297	0	599.70	0	4.6020	0	36.7550	8	29.121	0	594.065	0	25.9	4	8.5	4	-1E+10	1	-1E+10	1	-1E+10	1	-1E+10	1	-1E+10	1	-1E+10	1
4901784	178	C	05/19/2020	10:44	-132.304	43.297	0	605.10	0	4.5940	0	36.7570	8	29.123	0	599.407	0	25.6	4	8.3	4	-1E+10	1	-1E+10	1	-1E+10	1	-1E+10	1	-1E+10	1	-1E+10	1
4901784	178	C	05/19/2020	10:44	-132.304	43.297	0	610.60	0	4.5530	0	36.7590	8	29.130	0	604.847	0	25.0	4	8.2	4	-1E+10	1	-1E+10	1	-1E+10	1	-1E+10	1	-1E+10	1	-1E+10	1
4901784	178	C	05/19/2020	10:44	-132.304	43.297	0	615.20	0	4.5470	0	36.7630	8	29.134	0	609.397	0	24.2	4	7.9	4	-1E+10	1	-1E+10	1	-1E+10	1	-1E+10	1	-1E+10	1	-1E+10	1
4901784	178	C	05/19/2020	10:44	-132.304	43.297	0	619.80	0	4.5550	0	36.7700	8	29.138	0	613.947	0	23.4	4	7.6	4	-1E+10	1	-1E+10	1	-1E+10	1	-1E+10	1	-1E+10	1	-1E+10	1
4901784	178	C	05/19/2020	10:44	-132.304	43.297	0	625.40	0	4.5330	0	36.7740	8	29.144	0	619.485	0	22.7	4	7.4	4	-1E+10	1	-1E+10	1	-1E+10	1	-1E+10	1	-1E+10	1	-1E+10	1
4901784	178	C	05/19/2020	10:44	-132.304	43.297	0	630.00	0	4.5050	0	36.7800	8	29.152	0	624.035	0	22.2	4	7.2	4	-1E+10	1	-1E+10	1	-1E+10	1	-1E+10	1	-1E+10	1	-1E+10	1
4901784	178	C	05/19/2020	10:44	-132.304	43.297	0	634.70	0	4.4930	0	36.7820	8	29.155	0	628.683	0	21.8	4	7.1	4	-1E+10	1	-1E+10	1	-1E+10	1	-1E+10	1	-1E+10	1	-1E+10	1
4901784	178	C	05/19/2020	10:44	-132.304	43.297	0	640.30	0	4.4700	0	36.7860	8	29.161	0	634.222	0	21.3	4	6.9	4	-1E+10	1	-1E+10	1	-1E+10	1	-1E+10	1	-1E+10	1	-1E+10	1
4901784	178	C	05/19/2020	10:44	-132.304	43.297	0	645.10	0	4.4440	0	36.7900	8	29.167	0	638.969	0	20.8	4	6.8	4	-1E+10	1	-1E+10	1	-1E+10	1	-1E+10	1	-1E+10	1	-1E+10	1
4901784	178	C	05/19/2020	10:44	-132.304	43.297	0	649.90	0	4.4290	0	36.7930	8	29.171	0	643.716	0	20.4	4	6.6	4	-1E+10	1	-1E+10	1	-1E+10	1	-1E+10	1	-1E+10	1	-1E+10	1
4901784	178	C	05/19/2020	10:44	-132.304	43.297	0	654.70	0	4.4120	0	36.7970	8	29.176	0	648.463	0	20.0	4	6.5	4	-1E+10	1	-1E+10	1	-1E+10	1	-1E+10	1	-1E+10	1	-1E+10	1
4901784	178	C	05/19/2020	10:44	-132.304	43.297	0	659.50	0	4.3890	0	36.8010	8	29.182	0	653.209	0	19.5	4	6.3	4	-1E+10	1	-1E+10	1	-1E+10	1	-1E+10	1	-1E+10	1	-1E+10	1
4901784	178	C	05/19/2020	10:44	-132.304	43.297	0	665.30	0	4.3840	0	36.8060	8	29.187	0	658.945	0	18.9	4	6.1	4	-1E+10	1	-1E+10	1	-1E+10	1	-1E+10	1	-1E+10	1	-1E+10	1
4901784	178	C	05/19/2020	10:44	-132.304	43.297	0	670.10	0	4.3640	0	36.8110	8	29.193	0	663.691	0	18.3	4	6.0	4	-1E+10	1	-1E+10	1	-1E+10	1	-1E+10	1	-1E+10	1	-1E+10	1
4901784	178	C	05/19/2020	10:44	-132.304	43.297	0	674.90	0	4.3400	0	36.8160	8	29.200	0	668.438	0	18.1	4	5.9	4	-1E+10	1	-1E+10	1	-1E+10	1	-1E+10	1	-1E+10	1	-1E+10	1
4901784	178	C	05/19/2020	10:44	-132.304	43.297	0	680.60	0	4.3120	0	36.8160	8	29.203	0	674.074	0	17.9	4	5.8	4	-1E+10	1	-1E+10	1	-1E+10	1	-1E+10	1	-1E+10	1	-1E+10	1
4901784	178	C	05/19/2020	10:44	-132.304	43.297	0	686.00	0	4.2730	0	36.8170	8	29.208	0	679.413	0	17.6	4	5.7	4	-1E+10	1	-1E+10	1	-1E+10	1	-1E+10	1	-1E+10	1	-1E+10	1
4901784	178	C	05/19/2020	10:44	-132.304	43.297	0	690.50	0	4.2500	0	36.8200	8	29.213	0	683.863	0	17.3	4	5.6	4	-1E+10	1	-1E+10	1	-1E+10	1	-1E+10	1	-1E+10	1	-1E+10	1
4901784	178	C	05/19/2020	10:44	-132.304	43.297	0	695.40	0	4.2330	0	36.8230	8	29.218	0	688.708	0	17.0	4	5.5	4	-1E+10	1	-1E+10	1	-1E+10	1	-1E+10	1	-1E+10	1	-1E+10	1
4901784	178	C	05/19/2020	10:44	-132.304	43.297	0	700.20	0	4.2210	0	36.8280	8	29.223	0	693.454	0	16.6	4	5.4	4	-1E+10	1	-1E+10	1	-1E+10	1	-1E+10	1	-1E+10	1	-1E+10	1
4901784	178	C	05/19/2020	10:44	-132.304	43.297	0	705.00	0	4.2140	0	36.8330	8	29.228	0	698.199	0	16.2	4	5.3	4	-1E+10	1	-1E+10	1	-1E+10	1	-1E+10	1	-1E+10	1	-1E+10	1
4901784	178	C	05/19/2020	10:44	-132.304	43.297	0	709.80	0	4.1890	0	36.8370	8	29.234	0	702.945	0	15.9	4	5.1	4	-1E+10	1	-1E+10	1	-1E+10	1	-1E+10	1	-1E+10	1	-1E+10	1
4901784	178	C	05/19/2020	10:44	-132.304	43.297	0	714.70	0	4.1780	0	36.8410	8	29.238	0	707.789	0	15.6	4	5.0	4	-1E+10	1	-1E+10	1	-1E+10	1	-1E+10	1	-1E+10	1	-1E+10	1
4901784	178	C	05/19/2020	10:44	-132.304	43.297	0	719.70	0	4.1600	0	36.8460	8	29.244	0	712.732	0	15.3	4	5.0	4	-1E+10	1	-1E+10	1	-1E+10	1	-1E+10	1	-1E+10	1	-1E+10	1
4901784	178	C	05/19/2020	10:44	-132.304	43.297	0	724.60	0	4.1480	0	36.8500	8	29.249	0	717.576	0	15.1	4	4.9	4	-1E+10	1	-1E+10	1	-1E+10	1	-1E+10	1	-1E+10	1	-1E+10	1
4901784	178	C	05/19/2020	10:44	-132.304	43.297	0	729.50	0	4.1390	0	36.8540	8	29.253	0	722.420	0	14.7	4	4.8	4	-1E+10	1	-1E+10	1	-1E+10	1	-1E+10	1	-1E+10	1	-1E+10	1
4901784	178	C	05/19/2020	10:44	-132.304	43.297	0	734.40	0	4.1240	0	36.8600	8	29.260	0	727.264	0	14.5	4	4.7	4	-1E+10	1	-1E+10	1	-1E+10	1	-1E+10	1	-1E+10	1	-1E+10	1
4901784	178	C	05/19/2020	10:44	-132.304	43.297	0	739.30	0	4.1150	0	36.8630	8	29.263	0	732.108	0	14.3	4	4.6	4	-1E+10	1	-1E+10	1	-1E+10	1	-1E+10	1	-1E+10	1	-1E+10	1
4901784	178	C	05/19/2020	10:44	-132.304	43.297	0	744.30	0	4.1040	0	36.8650	8	29.266	0	737.051	0	14.0	4	4.5	4	-1E+10	1	-1E+10	1	-1E+10	1	-1E+10	1	-1E+10	1	-1E+10	1
4901784	178	C	05/19/2020	10:44	-132.304	43.297	0	749.30	0	4.0830	0	36.8730	8	29.275	0	741.993	0	13.6	4	4.4	4	-1E+10	1	-1E+10	1	-1E+10	1	-1E+10	1	-1E+10	1	-1E+10	1
4901784	178	C	05/19/2020	10:44	-132.304	43.297	0	754.40	0	4.0720	0	36.8790	8	29.281	0	747.034	0	13.5	4	4.3	4	-1E+10	1	-1E+10	1	-1E+10	1	-1E+10	1	-1E+10	1	-1E+10	1
4901784	178	C	05/19/2020	10:44	-132.304	43.297	0	759.40	0	4.0670	0	36.8820	8	29.284	0	751.976	0	13.3	4	4.3	4	-1E+10	1	-1E+10	1	-1E+10	1	-1E+10	1	-1E+10	1	-1E+10	1
4901784	178	C	05/19/2020	10:44	-132.304	43.297	0	764.40	0	4.0540	0	36.8860	8	29.288	0	756.919	0	13.1	4	4.2	4	-1E+10	1	-1E+10	1	-1E+10	1	-1E+10	1	-1E+10	1	-1E+10	1
4901784	178	C	05/19/2020	10:44	-132.304	43.297	0	769.40	0	4.0480	0	36.8890	8	29.291	0	761.860	0	12.9	4	4.2	4	-1E+10	1	-1E+10	1	-1E+10	1	-1E+10	1	-1E+10	1	-1E+10	1
4901784	178	C	05/19/2020	10:44	-132.304	43.297	0	774.50	0	4.0390	0	36.8940	8	29.296	0	766.901	0	12.7	4	4.1	4	-1E+10	1	-1E+10	1	-1E+10	1	-1E+10	1	-1E+10	1	-1E+10	1
4901784	178	C	05/19/2020	10:44	-132.304	43.297	0	779.60	0	4.0300	0	36.8980	8	29.301	0	771.942	0	12.5	4	4.0	4	-1E+10	1	-1E+10	1	-1E+10	1	-1E+10	1	-1E+10	1	-1E+10	1
4901784	178	C	05/19/2020	10:44	-132.304	43.297	0	784.70	0	4.0240	0	36.9010	8	29.304	0	776.982	0	12.3	4	4.0	4	-1E+10	1	-1E+10	1	-1E+10	1	-1E+10	1	-1E+10	1	-1E+10	1
4901784	178	C	05/19/2020	10:44	-132.304	43.297	0	789.90	0	4.0110	0	36.9070	8	29.310	0	782.121	0	12.1	4	3.9	4	-1E+10	1	-1E+10	1	-1E+10	1	-1E+10	1	-1E+10	1	-1E+10	1
4901784	178	C	05/19/2020	10:44	-132.304	43.297	0	795.00	0	4.0040	0	36.9100	8	29.313	0	787.161	0	11.9	4	3.8	4	-1E+10	1	-1E+10	1	-1E+10	1	-1E+10	1	-1E+10	1	-1E+10	1
4901784	178	C	05/19/2020	10:44	-132.304	43.297	0	800.20	0	3.9830	0	36.9160	8	29.320	0	792.300	0	11.7	4	3.8	4	-1E+10	1	-1E+10	1	-1E+10	1	-1E+10	1	-1E+10	1	-1E+10	1
4901784	178	C	05/19/2020	10:44	-132.304	43.297	0	805.50	0	3.9650	0	36.9220	8	29.327	0	797.538	0	11.5	4	3.7	4	-1E+10	1	-1E+10	1	-1E+10	1	-1E+10	1	-1E+10	1	-1E+10	1
4901784	178	C	05/19/2020	10:44	-132.304	43.297	0	809.90	0	3.9530	0	36.9250	8	29.331	0	801.886	0	11.4	4	3.7	4	-1E+10	1	-1E+10	1	-1E+10	1	-1E+10	1	-1E+10	1	-1E+10	1
4901784	178	C	05/19/2020	10:44	-132.304	43.297	0	814.30	0	3.9430	0	36.9280	8	29.334	0	806.234	0	11.3	4	3.6	4	-1E+10	1	-1E+10	1	-1E+10	1	-1E+10	1	-1E+10	1	-1E+10	1
4901784	178	C	05/19/2020	10:44	-132.304	43.297	0	819.70	0	3.9320	0	36.9310	8	29.338	0	811.570	0	11.2	4	3.6	4	-1E+10	1	-1E+10	1	-1E+10	1	-1E+10	1	-1E+10	1	-1E+10	1
4901784	178	C	05/19/2020	10:44	-132.304	43.297	0	825.20	0	3.9210	0	36.9340	8	29.341	0	817.005	0	11.1	4	3.6	4	-1E+10	1	-1E+10	1	-1E+10	1	-1E+10	1	-1E+10	1	-1E+10	1
4901784	178	C	05/19/2020	10:44	-132.304	43.297	0	829.80	0	3.9050	0	36.9390	8	29.347	0	821.550	0	11.0	4	3.5	4	-1E+10	1	-1E+10	1	-1E+10	1	-1E+10	1	-1E+10	1	-1E+10	1
4901784	178	C	05/19/2020	10:44	-132.304	43.297	0	834.90	0	3.8940	0	36.9420	8	29.351	0	826.589	0	10.9	4	3.5	4	-1E+10	1	-1E+10	1	-1E+10	1	-1E+10	1	-1E+10	1	-1E+10	1
4901784	178	C	05/19/2020	10:44	-132.304	43.297	0	840.40	0	3.8810	0	36.9460	8	29.355	0	832.023	0	10.8	4	3.5	4	-1E+10	1	-1E+10	1	-1E+10	1	-1E+10	1	-1E+10	1	-1E+10	1
4901784	178	C	05/19/2020	10:44	-132.304	43.297	0	845.10	0	3.8620	0	36.9500	8	29.361	0	836.667	0	10.7	4	3.4	4	-1E+10	1	-1E+10	1	-1E+10	1	-1E+10	1	-1E+10	1	-1E+10	1
4901784	178	C	05/19/2020	10:44	-132.304	43.297	0	849.90	0	3.8500	0	36.9540	8	29.365	0	841.410	0	10.6	4	3.4	4	-1E+10	1	-1E+10	1	-1E+10	1	-1E+10	1	-1E+10	1	-1E+10	1
4901784	178	C	05/19/2020	10:44	-132.304	43.297	0	854.80	0	3.8310	0	36.9590	8	29.371	0	846.251	0	10.5	4	3.4	4	-1E+10	1	-1E+10	1	-1E+10	1	-1E+10	1	-1E+10	1	-1E+10	1
4901784	178	C	05/19/2020	10:44	-132.304	43.297	0	859.70	0	3.8220	0	36.9610	8	29.374	0	851.092	0	10.5	4	3.4	4	-1E+10	1	-1E+10	1	-1E+10	1	-1E+10	1	-1E+10	1	-1E+10	1
4901784	178	C	05/19/2020	10:44	-132.304	43.297	0	864.60	0	3.8060	0	36.9660	8	29.380	0	855.933	0	10.4	4	3.3	4	-1E+10	1	-1E+10	1	-1E+10	1	-1E+10	1	-1E+10	1	-1E+10	1
4901784	178	C	05/19/2020	10:44	-132.304	43.297	0	869.60	0	3.7960	0	36.9690	8	29.383	0	860.872	0	10.4	4	3.3	4	-1E+10	1	-1E+10	1	-1E+10	1	-1E+10	1	-1E+10	1	-1E+10	1
4901784	178	C	05/19/2020	10:44	-132.304	43.297	0	874.70	0	3.7820	0	36.9730	8	29.388	0	865.910	0	10.3	4	3.3	4	-1E+10	1	-1E+10	1	-1E+10	1	-1E+10	1	-1E+10	1	-1E+10	1
4901784	178	C	05/19/2020	10:44	-132.304	43.297	0	879.80	0	3.7680	0	36.9770	8	29.393	0	870.949	0	10.2	4	3.3	4	-1E+10	1	-1E+10	1	-1E+10	1	-1E+10	1	-1E+10	1	-1E+10	1
4901784	178	C	05/19/2020	10:44	-132.304	43.297	0	884.80	0	3.7540	0	36.9810	8	29.397	0	875.888	0	10.2	4	3.3	4	-1E+10	1	-1E+10	1	-1E+10	1	-1E+10	1	-1E+10	1	-1E+10	1
4901784	178	C	05/19/2020	10:44	-132.304	43.297	0	889.90	0	3.7450	0	36.9840	8	29.401	0	880.926	0	10.1	4	3.3	4	-1E+10	1	-1E+10	1	-1E+10	1	-1E+10	1	-1E+10	1	-1E+10	1
4901784	178	C	05/19/2020	10:44	-132.304	43.297	0	895.10	0	3.7300	0	36.9880	8	29.406	0	886.062	0	10.1	4	3.2	4	-1E+10	1	-1E+10	1	-1E+10	1	-1E+10	1	-1E+10	1	-1E+10	1
4901784	178	C	05/19/2020	10:44	-132.304	43.297	0	900.30	0	3.7130	0	36.9930	8	29.411	0	891.199	0	10.1	4	3.2	4	-1E+10	1	-1E+10	1	-1E+10	1	-1E+10	1	-1E+10	1	-1E+10	1
4901784	178	C	05/19/2020	10:44	-132.304	43.297	0	905.50	0	3.6990	0	36.9960	8	29.415	0	896.335	0	10.0	4	3.2	4	-1E+10	1	-1E+10	1	-1E+10	1	-1E+10	1	-1E+10	1	-1E+10	1
4901784	178	C	05/19/2020	10:44	-132.304	43.297	0	909.80	0	3.6820	0	37.0010	8	29.421	0	900.582	0	10.0	4	3.2	4	-1E+10	1	-1E+10	1	-1E+10	1	-1E+10	1	-1E+10	1	-1E+10	1
4901784	178	C	05/19/2020	10:44	-132.304	43.297	0	914.30	0	3.6740	0	37.0020	8	29.423	0	905.027	0	10.0	4	3.2	4	-1E+10	1	-1E+10	1	-1E+10	1	-1E+10	1	-1E+10	1	-1E+10	1
4901784	178	C	05/19/2020	10:44	-132.304	43.297	0	919.50	0	3.6580	0	37.0070	8	29.428	0	910.163	0	10.0	4	3.2	4	-1E+10	1	-1E+10	1	-1E+10	1	-1E+10	1	-1E+10	1	-1E+10	1
4901784	178	C	05/19/2020	10:44	-132.304	43.297	0	924.80	0	3.6420	0	37.0100	8	29.433	0	915.397	0	10.0	4	3.2	4	-1E+10	1	-1E+10	1	-1E+10	1	-1E+10	1	-1E+10	1	-1E+10	1
4901784	178	C	05/19/2020	10:44	-132.304	43.297	0	930.20	0	3.6260	0	37.0150	8	29.438	0	920.731	0	10.0	4	3.2	4	-1E+10	1	-1E+10	1	-1E+10	1	-1E+10	1	-1E+10	1	-1E+10	1
4901784	178	C	05/19/2020	10:44	-132.304	43.297	0	935.50	0	3.6120	0	37.0190	8	29.443	0	925.965	0	10.0	4	3.2	4	-1E+10	1	-1E+10	1	-1E+10	1	-1E+10	1	-1E+10	1	-1E+10	1
4901784	178	C	05/19/2020	10:44	-132.304	43.297	0	940.00	0	3.6040	0	37.0210	8	29.445	0	930.409	0	10.0	4	3.2	4	-1E+10	1	-1E+10	1	-1E+10	1	-1E+10	1	-1E+10	1	-1E+10	1
4901784	178	C	05/19/2020	10:44	-132.304	43.297	0	944.40	0	3.5940	0	37.0240	8	29.449	0	934.754	0	10.0	4	3.2	4	-1E+10	1	-1E+10	1	-1E+10	1	-1E+10	1	-1E+10	1	-1E+10	1
4901784	178	C	05/19/2020	10:44	-132.304	43.297	0	949.70	0	3.5860	0	37.0260	8	29.451	0	939.988	0	10.0	4	3.2	4	-1E+10	1	-1E+10	1	-1E+10	1	-1E+10	1	-1E+10	1	-1E+10	1
4901784	178	C	05/19/2020	10:44	-132.304	43.297	0	955.10	0	3.5780	0	37.0280	8	29.454	0	945.321	0	10.1	4	3.2	4	-1E+10	1	-1E+10	1	-1E+10	1	-1E+10	1	-1E+10	1	-1E+10	1
4901784	178	C	05/19/2020	10:44	-132.304	43.297	0	960.40	0	3.5700	0	37.0310	8	29.457	0	950.555	0	10.1	4	3.2	4	-1E+10	1	-1E+10	1	-1E+10	1	-1E+10	1	-1E+10	1	-1E+10	1
4901784	178	C	05/19/2020	10:44	-132.304	43.297	0	964.90	0	3.5610	0	37.0330	8	29.460	0	954.998	0	10.1	4	3.2	4	-1E+10	1	-1E+10	1	-1E+10	1	-1E+10	1	-1E+10	1	-1E+10	1
4901784	178	C	05/19/2020	10:44	-132.304	43.297	0	969.40	0	3.5500	0	37.0350	8	29.462	0	959.442	0	10.1	4	3.2	4	-1E+10	1	-1E+10	1	-1E+10	1	-1E+10	1	-1E+10	1	-1E+10	1
4901784	178	C	05/19/2020	10:44	-132.304	43.297	0	974.90	0	3.5370	0	37.0390	8	29.467	0	964.873	0	10.2	4	3.2	4	-1E+10	1	-1E+10	1	-1E+10	1	-1E+10	1	-1E+10	1	-1E+10	1
4901784	178	C	05/19/2020	10:44	-132.304	43.297	0	980.40	0	3.5250	0	37.0420	8	29.471	0	970.303	0	10.2	4	3.3	4	-1E+10	1	-1E+10	1	-1E+10	1	-1E+10	1	-1E+10	1	-1E+10	1
4901784	178	C	05/19/2020	10:44	-132.304	43.297	0	984.90	0	3.5130	0	37.0460	8	29.475	0	974.747	0	10.3	4	3.3	4	-1E+10	1	-1E+10	1	-1E+10	1	-1E+10	1	-1E+10	1	-1E+10	1
4901784	178	C	05/19/2020	10:44	-132.304	43.297	0	989.50	0	3.5060	0	37.0470	8	29.477	0	979.288	0	10.3	4	3.3	4	-1E+10	1	-1E+10	1	-1E+10	1	-1E+10	1	-1E+10	1	-1E+10	1
4901784	178	C	05/19/2020	10:44	-132.304	43.297	0	995.00	0	3.4900	0	37.0520	8	29.482	0	984.719	0	10.4	4	3.3	4	-1E+10	1	-1E+10	1	-1E+10	1	-1E+10	1	-1E+10	1	-1E+10	1
4901784	178	C	05/19/2020	10:44	-132.304	43.297	0	1000.50	0	3.4820	0	37.0540	8	29.485	0	990.149	0	10.4	4	3.3	4	-1E+10	1	-1E+10	1	-1E+10	1	-1E+10	1	-1E+10	1	-1E+10	1
4901784	178	C	05/19/2020	10:44	-132.304	43.297	0	1005.20	0	3.4770	0	37.0560	8	29.487	0	994.789	0	10.5	4	3.3	4	-1E+10	1	-1E+10	1	-1E+10	1	-1E+10	1	-1E+10	1	-1E+10	1
4901784	178	C	05/19/2020	10:44	-132.304	43.297	0	1009.80	0	3.4680	0	37.0590	8	29.490	0	999.331	0	10.5	4	3.4	4	-1E+10	1	-1E+10	1	-1E+10	1	-1E+10	1	-1E+10	1	-1E+10	1
4901784	178	C	05/19/2020	10:44	-132.304	43.297	0	1015.30	0	3.4590	0	37.0610	8	29.493	0	1004.760	0	10.6	4	3.4	4	-1E+10	1	-1E+10	1	-1E+10	1	-1E+10	1	-1E+10	1	-1E+10	1
4901784	178	C	05/19/2020	10:44	-132.304	43.297	0	1019.90	0	3.4500	0	37.0640	8	29.496	0	1009.302	0	10.7	4	3.4	4	-1E+10	1	-1E+10	1	-1E+10	1	-1E+10	1	-1E+10	1	-1E+10	1
4901784	178	C	05/19/2020	10:44	-132.304	43.297	0	1024.50	0	3.4340	0	37.0670	8	29.500	0	1013.843	0	10.7	4	3.4	4	-1E+10	1	-1E+10	1	-1E+10	1	-1E+10	1	-1E+10	1	-1E+10	1
4901784	178	C	05/19/2020	10:44	-132.304	43.297	0	1029.90	0	3.4150	0	37.0700	8	29.505	0	1019.173	0	10.8	4	3.4	4	-1E+10	1	-1E+10	1	-1E+10	1	-1E+10	1	-1E+10	1	-1E+10	1
4901784	178	C	05/19/2020	10:44	-132.304	43.297	0	1035.50	0	3.4060	0	37.0740	8	29.509	0	1024.701	0	10.9	4	3.5	4	-1E+10	1	-1E+10	1	-1E+10	1	-1E+10	1	-1E+10	1	-1E+10	1
4901784	178	C	05/19/2020	10:44	-132.304	43.297	0	1040.20	0	3.4020	0	37.0750	8	29.510	0	1029.341	0	10.9	4	3.5	4	-1E+10	1	-1E+10	1	-1E+10	1	-1E+10	1	-1E+10	1	-1E+10	1
4901784	178	C	05/19/2020	10:44	-132.304	43.297	0	1044.80	0	3.3920	0	37.0780	8	29.514	0	1033.881	0	11.0	4	3.5	4	-1E+10	1	-1E+10	1	-1E+10	1	-1E+10	1	-1E+10	1	-1E+10	1
4901784	178	C	05/19/2020	10:44	-132.304	43.297	0	1049.60	0	3.3770	0	37.0810	8	29.518	0	1038.619	0	11.1	4	3.5	4	-1E+10	1	-1E+10	1	-1E+10	1	-1E+10	1	-1E+10	1	-1E+10	1
4901784	178	C	05/19/2020	10:44	-132.304	43.297	0	1054.50	0	3.3660	0	37.0830	8	29.520	0	1043.456	0	11.2	4	3.6	4	-1E+10	1	-1E+10	1	-1E+10	1	-1E+10	1	-1E+10	1	-1E+10	1
4901784	178	C	05/19/2020	10:44	-132.304	43.297	0	1060.30	0	3.3530	0	37.0860	8	29.524	0	1049.181	0	11.3	4	3.6	4	-1E+10	1	-1E+10	1	-1E+10	1	-1E+10	1	-1E+10	1	-1E+10	1
4901784	178	C	05/19/2020	10:44	-132.304	43.297	0	1064.50	0	3.3450	0	37.0880	8	29.527	0	1053.326	0	11.3	4	3.6	4	-1E+10	1	-1E+10	1	-1E+10	1	-1E+10	1	-1E+10	1	-1E+10	1
4901784	178	C	05/19/2020	10:44	-132.304	43.297	0	1069.50	0	3.3360	0	37.0900	8	29.529	0	1058.261	0	11.4	4	3.6	4	-1E+10	1	-1E+10	1	-1E+10	1	-1E+10	1	-1E+10	1	-1E+10	1
4901784	178	C	05/19/2020	10:44	-132.304	43.297	0	1074.50	0	3.3250	0	37.0930	8	29.533	0	1063.196	0	11.5	4	3.6	4	-1E+10	1	-1E+10	1	-1E+10	1	-1E+10	1	-1E+10	1	-1E+10	1
4901784	178	C	05/19/2020	10:44	-132.304	43.297	0	1079.50	0	3.3170	0	37.0940	8	29.534	0	1068.130	0	11.6	4	3.7	4	-1E+10	1	-1E+10	1	-1E+10	1	-1E+10	1	-1E+10	1	-1E+10	1
4901784	178	C	05/19/2020	10:44	-132.304	43.297	0	1084.70	0	3.3090	0	37.0960	8	29.537	0	1073.262	0	11.7	4	3.7	4	-1E+10	1	-1E+10	1	-1E+10	1	-1E+10	1	-1E+10	1	-1E+10	1
4901784	178	C	05/19/2020	10:44	-132.304	43.297	0	1089.80	0	3.2990	0	37.0980	8	29.539	0	1078.296	0	11.7	4	3.7	4	-1E+10	1	-1E+10	1	-1E+10	1	-1E+10	1	-1E+10	1	-1E+10	1
4901784	178	C	05/19/2020	10:44	-132.304	43.297	0	1095.00	0	3.2880	0	37.1010	8	29.543	0	1083.427	0	11.9	4	3.8	4	-1E+10	1	-1E+10	1	-1E+10	1	-1E+10	1	-1E+10	1	-1E+10	1
4901784	178	C	05/19/2020	10:44	-132.304	43.297	0	1100.20	0	3.2760	0	37.1030	8	29.546	0	1088.559	0	11.9	4	3.8	4	-1E+10	1	-1E+10	1	-1E+10	1	-1E+10	1	-1E+10	1	-1E+10	1
4901784	178	C	05/19/2020	10:44	-132.304	43.297	0	1105.40	0	3.2670	0	37.1050	8	29.548	0	1093.690	0	12.0	4	3.8	4	-1E+10	1	-1E+10	1	-1E+10	1	-1E+10	1	-1E+10	1	-1E+10	1
4901784	178	C	05/19/2020	10:44	-132.304	43.297	0	1110.60	0	3.2600	0	37.1060	8	29.550	0	1098.822	0	12.1	4	3.8	4	-1E+10	1	-1E+10	1	-1E+10	1	-1E+10	1	-1E+10	1	-1E+10	1
4901784	178	C	05/19/2020	10:44	-132.304	43.297	0	1115.00	0	3.2550	0	37.1080	8	29.552	0	1103.163	0	12.2	4	3.9	4	-1E+10	1	-1E+10	1	-1E+10	1	-1E+10	1	-1E+10	1	-1E+10	1
4901784	178	C	05/19/2020	10:44	-132.304	43.297	0	1119.40	0	3.2490	0	37.1090	8	29.553	0	1107.505	0	12.2	4	3.9	4	-1E+10	1	-1E+10	1	-1E+10	1	-1E+10	1	-1E+10	1	-1E+10	1
4901784	178	C	05/19/2020	10:44	-132.304	43.297	0	1124.90	0	3.2370	0	37.1120	8	29.557	0	1112.932	0	12.4	4	3.9	4	-1E+10	1	-1E+10	1	-1E+10	1	-1E+10	1	-1E+10	1	-1E+10	1
4901784	178	C	05/19/2020	10:44	-132.304	43.297	0	1129.90	0	3.2320	0	37.1140	8	29.559	0	1117.866	0	12.5	4	4.0	4	-1E+10	1	-1E+10	1	-1E+10	1	-1E+10	1	-1E+10	1	-1E+10	1
4901784	178	C	05/19/2020	10:44	-132.304	43.297	0	1134.80	0	3.2230	0	37.1170	8	29.563	0	1122.700	0	12.6	4	4.0	4	-1E+10	1	-1E+10	1	-1E+10	1	-1E+10	1	-1E+10	1	-1E+10	1
4901784	178	C	05/19/2020	10:44	-132.304	43.297	0	1139.80	0	3.2180	0	37.1180	8	29.564	0	1127.634	0	12.7	4	4.0	4	-1E+10	1	-1E+10	1	-1E+10	1	-1E+10	1	-1E+10	1	-1E+10	1
4901784	178	C	05/19/2020	10:44	-132.304	43.297	0	1144.70	0	3.2100	0	37.1200	8	29.566	0	1132.468	0	12.8	4	4.1	4	-1E+10	1	-1E+10	1	-1E+10	1	-1E+10	1	-1E+10	1	-1E+10	1
4901784	178	C	05/19/2020	10:44	-132.304	43.297	0	1149.60	0	3.2060	0	37.1210	8	29.568	0	1137.302	0	12.9	4	4.1	4	-1E+10	1	-1E+10	1	-1E+10	1	-1E+10	1	-1E+10	1	-1E+10	1
4901784	178	C	05/19/2020	10:44	-132.304	43.297	0	1154.70	0	3.1960	0	37.1230	8	29.570	0	1142.334	0	13.0	4	4.1	4	-1E+10	1	-1E+10	1	-1E+10	1	-1E+10	1	-1E+10	1	-1E+10	1
4901784	178	C	05/19/2020	10:44	-132.304	43.297	0	1159.70	0	3.1870	0	37.1240	8	29.572	0	1147.267	0	13.1	4	4.1	4	-1E+10	1	-1E+10	1	-1E+10	1	-1E+10	1	-1E+10	1	-1E+10	1
4901784	178	C	05/19/2020	10:44	-132.304	43.297	0	1164.80	0	3.1770	0	37.1260	8	29.575	0	1152.298	0	13.3	4	4.2	4	-1E+10	1	-1E+10	1	-1E+10	1	-1E+10	1	-1E+10	1	-1E+10	1
4901784	178	C	05/19/2020	10:44	-132.304	43.297	0	1170.00	0	3.1670	0	37.1280	8	29.577	0	1157.428	0	13.4	4	4.2	4	-1E+10	1	-1E+10	1	-1E+10	1	-1E+10	1	-1E+10	1	-1E+10	1
4901784	178	C	05/19/2020	10:44	-132.304	43.297	0	1175.20	0	3.1560	0	37.1300	8	29.580	0	1162.558	0	13.6	4	4.3	4	-1E+10	1	-1E+10	1	-1E+10	1	-1E+10	1	-1E+10	1	-1E+10	1
4901784	178	C	05/19/2020	10:44	-132.304	43.297	0	1180.30	0	3.1460	0	37.1330	8	29.583	0	1167.589	0	13.7	4	4.3	4	-1E+10	1	-1E+10	1	-1E+10	1	-1E+10	1	-1E+10	1	-1E+10	1
4901784	178	C	05/19/2020	10:44	-132.304	43.297	0	1185.50	0	3.1260	0	37.1350	8	29.587	0	1172.718	0	13.9	4	4.4	4	-1E+10	1	-1E+10	1	-1E+10	1	-1E+10	1	-1E+10	1	-1E+10	1
4901784	178	C	05/19/2020	10:44	-132.304	43.297	0	1189.90	0	3.1130	0	37.1370	8	29.590	0	1177.059	0	14.0	4	4.4	4	-1E+10	1	-1E+10	1	-1E+10	1	-1E+10	1	-1E+10	1	-1E+10	1
4901784	178	C	05/19/2020	10:44	-132.304	43.297	0	1194.30	0	3.1010	0	37.1390	8	29.593	0	1181.399	0	14.2	4	4.5	4	-1E+10	1	-1E+10	1	-1E+10	1	-1E+10	1	-1E+10	1	-1E+10	1
4901784	178	C	05/19/2020	10:44	-132.304	43.297	0	1199.70	0	3.0830	0	37.1420	8	29.597	0	1186.725	0	14.4	4	4.5	4	-1E+10	1	-1E+10	1	-1E+10	1	-1E+10	1	-1E+10	1	-1E+10	1
4901784	178	C	05/19/2020	10:44	-132.304	43.297	0	1205.00	0	3.0740	0	37.1440	8	29.599	0	1191.953	0	14.6	4	4.6	4	-1E+10	1	-1E+10	1	-1E+10	1	-1E+10	1	-1E+10	1	-1E+10	1
4901784	178	C	05/19/2020	10:44	-132.304	43.297	0	1210.40	0	3.0600	0	37.1480	8	29.604	0	1197.279	0	14.8	4	4.7	4	-1E+10	1	-1E+10	1	-1E+10	1	-1E+10	1	-1E+10	1	-1E+10	1
4901784	178	C	05/19/2020	10:44	-132.304	43.297	0	1214.90	0	3.0580	0	37.1480	8	29.604	0	1201.717	0	14.9	4	4.7	4	-1E+10	1	-1E+10	1	-1E+10	1	-1E+10	1	-1E+10	1	-1E+10	1
4901784	178	C	05/19/2020	10:44	-132.304	43.297	0	1219.50	0	3.0530	0	37.1490	8	29.606	0	1206.254	0	15.0	4	4.7	4	-1E+10	1	-1E+10	1	-1E+10	1	-1E+10	1	-1E+10	1	-1E+10	1
4901784	178	C	05/19/2020	10:44	-132.304	43.297	0	1225.00	0	3.0450	0	37.1510	8	29.608	0	1211.679	0	15.1	4	4.8	4	-1E+10	1	-1E+10	1	-1E+10	1	-1E+10	1	-1E+10	1	-1E+10	1
4901784	178	C	05/19/2020	10:44	-132.304	43.297	0	1230.50	0	3.0320	0	37.1520	8	29.610	0	1217.103	0	15.3	4	4.8	4	-1E+10	1	-1E+10	1	-1E+10	1	-1E+10	1	-1E+10	1	-1E+10	1
4901784	178	C	05/19/2020	10:44	-132.304	43.297	0	1235.10	0	3.0200	0	37.1540	8	29.613	0	1221.639	0	15.5	4	4.9	4	-1E+10	1	-1E+10	1	-1E+10	1	-1E+10	1	-1E+10	1	-1E+10	1
4901784	178	C	05/19/2020	10:44	-132.304	43.297	0	1239.60	0	3.0100	0	37.1560	8	29.616	0	1226.077	0	15.7	4	4.9	4	-1E+10	1	-1E+10	1	-1E+10	1	-1E+10	1	-1E+10	1	-1E+10	1
4901784	178	C	05/19/2020	10:44	-132.304	43.297	0	1245.10	0	2.9970	0	37.1590	8	29.619	0	1231.501	0	15.9	4	5.0	4	-1E+10	1	-1E+10	1	-1E+10	1	-1E+10	1	-1E+10	1	-1E+10	1
4901784	178	C	05/19/2020	10:44	-132.304	43.297	0	1250.40	0	2.9900	0	37.1600	8	29.621	0	1236.728	0	16.0	4	5.0	4	-1E+10	1	-1E+10	1	-1E+10	1	-1E+10	1	-1E+10	1	-1E+10	1
4901784	178	C	05/19/2020	10:44	-132.304	43.297	0	1255.60	0	2.9860	0	37.1600	8	29.621	0	1241.856	0	16.1	4	5.1	4	-1E+10	1	-1E+10	1	-1E+10	1	-1E+10	1	-1E+10	1	-1E+10	1
4901784	178	C	05/19/2020	10:44	-132.304	43.297	0	1260.60	0	2.9710	0	37.1630	8	29.625	0	1246.786	0	16.4	4	5.2	4	-1E+10	1	-1E+10	1	-1E+10	1	-1E+10	1	-1E+10	1	-1E+10	1
4901784	178	C	05/19/2020	10:44	-132.304	43.297	0	1265.70	0	2.9600	0	37.1650	8	29.628	0	1251.815	0	16.5	4	5.2	4	-1E+10	1	-1E+10	1	-1E+10	1	-1E+10	1	-1E+10	1	-1E+10	1
4901784	178	C	05/19/2020	10:44	-132.304	43.297	0	1270.00	0	2.9490	0	37.1660	8	29.630	0	1256.055	0	16.6	4	5.2	4	-1E+10	1	-1E+10	1	-1E+10	1	-1E+10	1	-1E+10	1	-1E+10	1
4901784	178	C	05/19/2020	10:44	-132.304	43.297	0	1274.30	0	2.9460	0	37.1680	8	29.632	0	1260.295	0	16.8	4	5.3	4	-1E+10	1	-1E+10	1	-1E+10	1	-1E+10	1	-1E+10	1	-1E+10	1
4901784	178	C	05/19/2020	10:44	-132.304	43.297	0	1279.40	0	2.9300	0	37.1680	8	29.633	0	1265.324	0	16.8	4	5.3	4	-1E+10	1	-1E+10	1	-1E+10	1	-1E+10	1	-1E+10	1	-1E+10	1
4901784	178	C	05/19/2020	10:44	-132.304	43.297	0	1284.60	0	2.9240	0	37.1700	8	29.635	0	1270.451	0	17.1	4	5.4	4	-1E+10	1	-1E+10	1	-1E+10	1	-1E+10	1	-1E+10	1	-1E+10	1
4901784	178	C	05/19/2020	10:44	-132.304	43.297	0	1289.70	0	2.9150	0	37.1730	8	29.639	0	1275.479	0	17.5	4	5.5	4	-1E+10	1	-1E+10	1	-1E+10	1	-1E+10	1	-1E+10	1	-1E+10	1
4901784	178	C	05/19/2020	10:44	-132.304	43.297	0	1294.80	0	2.9060	0	37.1750	8	29.641	0	1280.507	0	17.8	4	5.6	4	-1E+10	1	-1E+10	1	-1E+10	1	-1E+10	1	-1E+10	1	-1E+10	1
4901784	178	C	05/19/2020	10:44	-132.304	43.297	0	1300.00	0	2.8970	0	37.1770	8	29.644	0	1285.634	0	18.0	4	5.6	4	-1E+10	1	-1E+10	1	-1E+10	1	-1E+10	1	-1E+10	1	-1E+10	1
4901784	178	C	05/19/2020	10:44	-132.304	43.297	0	1305.20	0	2.8860	0	37.1780	8	29.646	0	1290.761	0	18.1	4	5.7	4	-1E+10	1	-1E+10	1	-1E+10	1	-1E+10	1	-1E+10	1	-1E+10	1
4901784	178	C	05/19/2020	10:44	-132.304	43.297	0	1310.40	0	2.8750	0	37.1800	8	29.648	0	1295.887	0	18.2	4	5.7	4	-1E+10	1	-1E+10	1	-1E+10	1	-1E+10	1	-1E+10	1	-1E+10	1
4901784	178	C	05/19/2020	10:44	-132.304	43.297	0	1315.60	0	2.8700	0	37.1800	8	29.649	0	1301.014	0	18.3	4	5.8	4	-1E+10	1	-1E+10	1	-1E+10	1	-1E+10	1	-1E+10	1	-1E+10	1
4901784	178	C	05/19/2020	10:44	-132.304	43.297	0	1319.90	0	2.8620	0	37.1820	8	29.651	0	1305.253	0	18.6	4	5.8	4	-1E+10	1	-1E+10	1	-1E+10	1	-1E+10	1	-1E+10	1	-1E+10	1
4901784	178	C	05/19/2020	10:44	-132.304	43.297	0	1324.30	0	2.8590	0	37.1830	8	29.652	0	1309.590	0	18.8	4	5.9	4	-1E+10	1	-1E+10	1	-1E+10	1	-1E+10	1	-1E+10	1	-1E+10	1
4901784	178	C	05/19/2020	10:44	-132.304	43.297	0	1329.60	0	2.8480	0	37.1860	8	29.656	0	1314.815	0	19.1	4	6.0	4	-1E+10	1	-1E+10	1	-1E+10	1	-1E+10	1	-1E+10	1	-1E+10	1
4901784	178	C	05/19/2020	10:44	-132.304	43.297	0	1334.80	0	2.8360	0	37.1870	8	29.658	0	1319.941	0	19.4	4	6.1	4	-1E+10	1	-1E+10	1	-1E+10	1	-1E+10	1	-1E+10	1	-1E+10	1
4901784	178	C	05/19/2020	10:44	-132.304	43.297	0	1340.10	0	2.8230	0	37.1890	8	29.661	0	1325.165	0	19.4	4	6.1	4	-1E+10	1	-1E+10	1	-1E+10	1	-1E+10	1	-1E+10	1	-1E+10	1
4901784	178	C	05/19/2020	10:44	-132.304	43.297	0	1345.40	0	2.8170	0	37.1890	8	29.661	0	1330.389	0	19.5	4	6.1	4	-1E+10	1	-1E+10	1	-1E+10	1	-1E+10	1	-1E+10	1	-1E+10	1
4901784	178	C	05/19/2020	10:44	-132.304	43.297	0	1350.70	0	2.7900	0	37.1900	8	29.665	0	1335.613	0	19.5	4	6.1	4	-1E+10	1	-1E+10	1	-1E+10	1	-1E+10	1	-1E+10	1	-1E+10	1
4901784	178	C	05/19/2020	10:44	-132.304	43.297	0	1355.10	0	2.7770	0	37.1920	8	29.668	0	1339.950	0	19.8	4	6.2	4	-1E+10	1	-1E+10	1	-1E+10	1	-1E+10	1	-1E+10	1	-1E+10	1
4901784	178	C	05/19/2020	10:44	-132.304	43.297	0	1359.60	0	2.7720	0	37.1940	8	29.670	0	1344.385	0	20.3	4	6.4	4	-1E+10	1	-1E+10	1	-1E+10	1	-1E+10	1	-1E+10	1	-1E+10	1
4901784	178	C	05/19/2020	10:44	-132.304	43.297	0	1364.90	0	2.7760	0	37.1970	8	29.672	0	1349.609	0	20.7	4	6.5	4	-1E+10	1	-1E+10	1	-1E+10	1	-1E+10	1	-1E+10	1	-1E+10	1
4901784	178	C	05/19/2020	10:44	-132.304	43.297	0	1370.30	0	2.7660	0	37.1980	8	29.673	0	1354.931	0	21.0	4	6.6	4	-1E+10	1	-1E+10	1	-1E+10	1	-1E+10	1	-1E+10	1	-1E+10	1
4901784	178	C	05/19/2020	10:44	-132.304	43.297	0	1375.70	0	2.7520	0	37.2000	8	29.676	0	1360.253	0	21.3	4	6.7	4	-1E+10	1	-1E+10	1	-1E+10	1	-1E+10	1	-1E+10	1	-1E+10	1
4901784	178	C	05/19/2020	10:44	-132.304	43.297	0	1380.10	0	2.7420	0	37.2020	8	29.679	0	1364.590	0	21.5	4	6.7	4	-1E+10	1	-1E+10	1	-1E+10	1	-1E+10	1	-1E+10	1	-1E+10	1
4901784	178	C	05/19/2020	10:44	-132.304	43.297	0	1384.60	0	2.7330	0	37.2030	8	29.681	0	1369.025	0	21.6	4	6.8	4	-1E+10	1	-1E+10	1	-1E+10	1	-1E+10	1	-1E+10	1	-1E+10	1
4901784	178	C	05/19/2020	10:44	-132.304	43.297	0	1390.00	0	2.7280	0	37.2040	8	29.682	0	1374.346	0	21.9	4	6.9	4	-1E+10	1	-1E+10	1	-1E+10	1	-1E+10	1	-1E+10	1	-1E+10	1
4901784	178	C	05/19/2020	10:44	-132.304	43.297	0	1395.40	0	2.7160	0	37.2060	8	29.685	0	1379.668	0	22.2	4	6.9	4	-1E+10	1	-1E+10	1	-1E+10	1	-1E+10	1	-1E+10	1	-1E+10	1
4901784	178	C	05/19/2020	10:44	-132.304	43.297	0	1400.60	0	2.7090	0	37.2060	8	29.685	0	1384.792	0	22.4	4	7.0	4	-1E+10	1	-1E+10	1	-1E+10	1	-1E+10	1	-1E+10	1	-1E+10	1
4901784	178	C	05/19/2020	10:44	-132.304	43.297	0	1405.10	0	2.6920	0	37.2080	8	29.689	0	1389.227	0	22.6	4	7.1	4	-1E+10	1	-1E+10	1	-1E+10	1	-1E+10	1	-1E+10	1	-1E+10	1
4901784	178	C	05/19/2020	10:44	-132.304	43.297	0	1409.60	0	2.6820	0	37.2090	8	29.690	0	1393.661	0	22.8	4	7.1	4	-1E+10	1	-1E+10	1	-1E+10	1	-1E+10	1	-1E+10	1	-1E+10	1
4901784	178	C	05/19/2020	10:44	-132.304	43.297	0	1415.00	0	2.6680	0	37.2110	8	29.693	0	1398.982	0	23.1	4	7.2	4	-1E+10	1	-1E+10	1	-1E+10	1	-1E+10	1	-1E+10	1	-1E+10	1
4901784	178	C	05/19/2020	10:44	-132.304	43.297	0	1420.40	0	2.6570	0	37.2130	8	29.696	0	1404.303	0	23.3	4	7.3	4	-1E+10	1	-1E+10	1	-1E+10	1	-1E+10	1	-1E+10	1	-1E+10	1
4901784	178	C	05/19/2020	10:44	-132.304	43.297	0	1425.00	0	2.6530	0	37.2140	8	29.697	0	1408.835	0	23.6	4	7.4	4	-1E+10	1	-1E+10	1	-1E+10	1	-1E+10	1	-1E+10	1	-1E+10	1
4901784	178	C	05/19/2020	10:44	-132.304	43.297	0	1429.80	0	2.6450	0	37.2160	8	29.700	0	1413.565	0	23.9	4	7.5	4	-1E+10	1	-1E+10	1	-1E+10	1	-1E+10	1	-1E+10	1	-1E+10	1
4901784	178	C	05/19/2020	10:44	-132.304	43.297	0	1434.90	0	2.6400	0	37.2170	8	29.701	0	1418.590	0	24.2	4	7.6	4	-1E+10	1	-1E+10	1	-1E+10	1	-1E+10	1	-1E+10	1	-1E+10	1
4901784	178	C	05/19/2020	10:44	-132.304	43.297	0	1439.70	0	2.6330	0	37.2190	8	29.703	0	1423.319	0	24.5	4	7.7	4	-1E+10	1	-1E+10	1	-1E+10	1	-1E+10	1	-1E+10	1	-1E+10	1
4901784	178	C	05/19/2020	10:44	-132.304	43.297	0	1444.50	0	2.6280	0	37.2200	8	29.705	0	1428.048	0	24.7	4	7.7	4	-1E+10	1	-1E+10	1	-1E+10	1	-1E+10	1	-1E+10	1	-1E+10	1
4901784	178	C	05/19/2020	10:44	-132.304	43.297	0	1449.40	0	2.6220	0	37.2210	8	29.706	0	1432.876	0	25.0	4	7.8	4	-1E+10	1	-1E+10	1	-1E+10	1	-1E+10	1	-1E+10	1	-1E+10	1
4901784	178	C	05/19/2020	10:44	-132.304	43.297	0	1454.40	0	2.6150	0	37.2220	8	29.707	0	1437.802	0	25.2	4	7.9	4	-1E+10	1	-1E+10	1	-1E+10	1	-1E+10	1	-1E+10	1	-1E+10	1
4901784	178	C	05/19/2020	10:44	-132.304	43.297	0	1459.30	0	2.6040	0	37.2230	8	29.709	0	1442.629	0	25.4	4	7.9	4	-1E+10	1	-1E+10	1	-1E+10	1	-1E+10	1	-1E+10	1	-1E+10	1
4901784	178	C	05/19/2020	10:44	-132.304	43.297	0	1464.30	0	2.6020	0	37.2240	8	29.710	0	1447.555	0	25.6	4	8.0	4	-1E+10	1	-1E+10	1	-1E+10	1	-1E+10	1	-1E+10	1	-1E+10	1
4901784	178	C	05/19/2020	10:44	-132.304	43.297	0	1469.30	0	2.5890	0	37.2260	8	29.713	0	1452.481	0	25.9	4	8.1	4	-1E+10	1	-1E+10	1	-1E+10	1	-1E+10	1	-1E+10	1	-1E+10	1
4901784	178	C	05/19/2020	10:44	-132.304	43.297	0	1474.40	0	2.5830	0	37.2270	8	29.714	0	1457.505	0	26.1	4	8.1	4	-1E+10	1	-1E+10	1	-1E+10	1	-1E+10	1	-1E+10	1	-1E+10	1
4901784	178	C	05/19/2020	10:44	-132.304	43.297	0	1479.50	0	2.5740	0	37.2270	8	29.715	0	1462.528	0	26.3	4	8.2	4	-1E+10	1	-1E+10	1	-1E+10	1	-1E+10	1	-1E+10	1	-1E+10	1
4901784	178	C	05/19/2020	10:44	-132.304	43.297	0	1484.70	0	2.5600	0	37.2290	8	29.718	0	1467.651	0	26.6	4	8.3	4	-1E+10	1	-1E+10	1	-1E+10	1	-1E+10	1	-1E+10	1	-1E+10	1
4901784	178	C	05/19/2020	10:44	-132.304	43.297	0	1489.90	0	2.5500	0	37.2310	8	29.721	0	1472.773	0	27.0	4	8.4	4	-1E+10	1	-1E+10	1	-1E+10	1	-1E+10	1	-1E+10	1	-1E+10	1
4901784	178	C	05/19/2020	10:44	-132.304	43.297	0	1495.10	0	2.5450	0	37.2320	8	29.722	0	1477.895	0	27.4	4	8.5	4	-1E+10	1	-1E+10	1	-1E+10	1	-1E+10	1	-1E+10	1	-1E+10	1
4901784	178	C	05/19/2020	10:44	-132.304	43.297	0	1500.50	0	2.5330	0	37.2340	8	29.725	0	1483.214	0	27.9	4	8.7	4	-1E+10	1	-1E+10	1	-1E+10	1	-1E+10	1	-1E+10	1	-1E+10	1
4901784	178	C	05/19/2020	10:44	-132.304	43.297	0	1505.00	0	2.5230	0	37.2360	8	29.727	0	1487.646	0	28.2	4	8.8	4	-1E+10	1	-1E+10	1	-1E+10	1	-1E+10	1	-1E+10	1	-1E+10	1
4901784	178	C	05/19/2020	10:44	-132.304	43.297	0	1509.40	0	2.5160	0	37.2360	8	29.728	0	1491.980	0	28.5	4	8.9	4	-1E+10	1	-1E+10	1	-1E+10	1	-1E+10	1	-1E+10	1	-1E+10	1
4901784	178	C	05/19/2020	10:44	-132.304	43.297	0	1514.70	0	2.5050	0	37.2380	8	29.731	0	1497.200	0	28.9	4	9.0	4	-1E+10	1	-1E+10	1	-1E+10	1	-1E+10	1	-1E+10	1	-1E+10	1
4901784	178	C	05/19/2020	10:44	-132.304	43.297	0	1520.10	0	2.4980	0	37.2390	8	29.732	0	1502.518	0	29.2	4	9.1	4	-1E+10	1	-1E+10	1	-1E+10	1	-1E+10	1	-1E+10	1	-1E+10	1
4901784	178	C	05/19/2020	10:44	-132.304	43.297	0	1525.40	0	2.4850	0	37.2410	8	29.735	0	1507.738	0	29.6	4	9.2	4	-1E+10	1	-1E+10	1	-1E+10	1	-1E+10	1	-1E+10	1	-1E+10	1
4901784	178	C	05/19/2020	10:44	-132.304	43.297	0	1530.00	0	2.4750	0	37.2430	8	29.738	0	1512.269	0	29.8	4	9.3	4	-1E+10	1	-1E+10	1	-1E+10	1	-1E+10	1	-1E+10	1	-1E+10	1
4901784	178	C	05/19/2020	10:44	-132.304	43.297	0	1534.70	0	2.4720	0	37.2430	8	29.738	0	1516.897	0	29.9	4	9.3	4	-1E+10	1	-1E+10	1	-1E+10	1	-1E+10	1	-1E+10	1	-1E+10	1
4901784	178	C	05/19/2020	10:44	-132.304	43.297	0	1540.20	0	2.4620	0	37.2440	8	29.740	0	1522.314	0	30.2	4	9.4	4	-1E+10	1	-1E+10	1	-1E+10	1	-1E+10	1	-1E+10	1	-1E+10	1
4901784	178	C	05/19/2020	10:44	-132.304	43.297	0	1544.80	0	2.4560	0	37.2450	8	29.741	0	1526.844	0	30.4	4	9.5	4	-1E+10	1	-1E+10	1	-1E+10	1	-1E+10	1	-1E+10	1	-1E+10	1
4901784	178	C	05/19/2020	10:44	-132.304	43.297	0	1549.40	0	2.4490	0	37.2460	8	29.742	0	1531.374	0	30.7	4	9.6	4	-1E+10	1	-1E+10	1	-1E+10	1	-1E+10	1	-1E+10	1	-1E+10	1
4901784	178	C	05/19/2020	10:44	-132.304	43.297	0	1555.00	0	2.4410	0	37.2480	8	29.745	0	1536.888	0	31.1	4	9.7	4	-1E+10	1	-1E+10	1	-1E+10	1	-1E+10	1	-1E+10	1	-1E+10	1
4901784	178	C	05/19/2020	10:44	-132.304	43.297	0	1559.70	0	2.4380	0	37.2480	8	29.745	0	1541.516	0	31.3	4	9.7	4	-1E+10	1	-1E+10	1	-1E+10	1	-1E+10	1	-1E+10	1	-1E+10	1
4901784	178	C	05/19/2020	10:44	-132.304	43.297	0	1564.40	0	2.4290	0	37.2490	8	29.747	0	1546.144	0	31.7	4	9.9	4	-1E+10	1	-1E+10	1	-1E+10	1	-1E+10	1	-1E+10	1	-1E+10	1
4901784	178	C	05/19/2020	10:44	-132.304	43.297	0	1569.90	0	2.4190	0	37.2510	8	29.749	0	1551.560	0	32.2	4	10.0	4	-1E+10	1	-1E+10	1	-1E+10	1	-1E+10	1	-1E+10	1	-1E+10	1
4901784	178	C	05/19/2020	10:44	-132.304	43.297	0	1575.50	0	2.4080	0	37.2530	8	29.752	0	1557.074	0	32.5	4	10.1	4	-1E+10	1	-1E+10	1	-1E+10	1	-1E+10	1	-1E+10	1	-1E+10	1
4901784	178	C	05/19/2020	10:44	-132.304	43.297	0	1579.60	0	2.4020	0	37.2530	8	29.753	0	1561.111	0	32.8	4	10.2	4	-1E+10	1	-1E+10	1	-1E+10	1	-1E+10	1	-1E+10	1	-1E+10	1
4901784	178	C	05/19/2020	10:44	-132.304	43.297	0	1584.60	0	2.3910	0	37.2550	8	29.755	0	1566.034	0	33.2	4	10.3	4	-1E+10	1	-1E+10	1	-1E+10	1	-1E+10	1	-1E+10	1	-1E+10	1
4901784	178	C	05/19/2020	10:44	-132.304	43.297	0	1589.50	0	2.3820	0	37.2570	8	29.758	0	1570.858	0	33.4	4	10.4	4	-1E+10	1	-1E+10	1	-1E+10	1	-1E+10	1	-1E+10	1	-1E+10	1
4901784	178	C	05/19/2020	10:44	-132.304	43.297	0	1594.50	0	2.3770	0	37.2570	8	29.758	0	1575.781	0	33.7	4	10.5	4	-1E+10	1	-1E+10	1	-1E+10	1	-1E+10	1	-1E+10	1	-1E+10	1
4901784	178	C	05/19/2020	10:44	-132.304	43.297	0	1599.40	0	2.3710	0	37.2580	8	29.759	0	1580.605	0	33.9	4	10.5	4	-1E+10	1	-1E+10	1	-1E+10	1	-1E+10	1	-1E+10	1	-1E+10	1
4901784	178	C	05/19/2020	10:44	-132.304	43.297	0	1604.40	0	2.3650	0	37.2590	8	29.761	0	1585.528	0	34.1	4	10.6	4	-1E+10	1	-1E+10	1	-1E+10	1	-1E+10	1	-1E+10	1	-1E+10	1
4901784	178	C	05/19/2020	10:44	-132.304	43.297	0	1609.40	0	2.3590	0	37.2600	8	29.762	0	1590.450	0	34.4	4	10.7	4	-1E+10	1	-1E+10	1	-1E+10	1	-1E+10	1	-1E+10	1	-1E+10	1
4901784	178	C	05/19/2020	10:44	-132.304	43.297	0	1614.40	0	2.3540	0	37.2610	8	29.763	0	1595.372	0	34.6	4	10.8	4	-1E+10	1	-1E+10	1	-1E+10	1	-1E+10	1	-1E+10	1	-1E+10	1
4901784	178	C	05/19/2020	10:44	-132.304	43.297	0	1619.60	0	2.3490	0	37.2620	8	29.765	0	1600.492	0	34.9	4	10.8	4	-1E+10	1	-1E+10	1	-1E+10	1	-1E+10	1	-1E+10	1	-1E+10	1
4901784	178	C	05/19/2020	10:44	-132.304	43.297	0	1624.70	0	2.3440	0	37.2620	8	29.765	0	1605.512	0	35.1	4	10.9	4	-1E+10	1	-1E+10	1	-1E+10	1	-1E+10	1	-1E+10	1	-1E+10	1
4901784	178	C	05/19/2020	10:44	-132.304	43.297	0	1629.90	0	2.3370	0	37.2630	8	29.767	0	1610.631	0	35.4	4	11.0	4	-1E+10	1	-1E+10	1	-1E+10	1	-1E+10	1	-1E+10	1	-1E+10	1
4901784	178	C	05/19/2020	10:44	-132.304	43.297	0	1635.00	0	2.3280	0	37.2650	8	29.769	0	1615.651	0	35.8	4	11.1	4	-1E+10	1	-1E+10	1	-1E+10	1	-1E+10	1	-1E+10	1	-1E+10	1
4901784	178	C	05/19/2020	10:44	-132.304	43.297	0	1640.20	0	2.3230	0	37.2660	8	29.770	0	1620.770	0	36.0	4	11.2	4	-1E+10	1	-1E+10	1	-1E+10	1	-1E+10	1	-1E+10	1	-1E+10	1
4901784	178	C	05/19/2020	10:44	-132.304	43.297	0	1645.40	0	2.3190	0	37.2670	8	29.772	0	1625.888	0	36.1	4	11.2	4	-1E+10	1	-1E+10	1	-1E+10	1	-1E+10	1	-1E+10	1	-1E+10	1
4901784	178	C	05/19/2020	10:44	-132.304	43.297	0	1649.80	0	2.3120	0	37.2670	8	29.772	0	1630.219	0	36.3	4	11.3	4	-1E+10	1	-1E+10	1	-1E+10	1	-1E+10	1	-1E+10	1	-1E+10	1
4901784	178	C	05/19/2020	10:44	-132.304	43.297	0	1654.30	0	2.3040	0	37.2680	8	29.774	0	1634.648	0	36.7	4	11.4	4	-1E+10	1	-1E+10	1	-1E+10	1	-1E+10	1	-1E+10	1	-1E+10	1
4901784	178	C	05/19/2020	10:44	-132.304	43.297	0	1659.60	0	2.2860	0	37.2700	8	29.777	0	1639.865	0	37.2	4	11.5	4	-1E+10	1	-1E+10	1	-1E+10	1	-1E+10	1	-1E+10	1	-1E+10	1
4901784	178	C	05/19/2020	10:44	-132.304	43.297	0	1665.00	0	2.2770	0	37.2720	8	29.779	0	1645.180	0	37.6	4	11.7	4	-1E+10	1	-1E+10	1	-1E+10	1	-1E+10	1	-1E+10	1	-1E+10	1
4901784	178	C	05/19/2020	10:44	-132.304	43.297	0	1670.30	0	2.2730	0	37.2730	8	29.781	0	1650.396	0	38.2	4	11.9	4	-1E+10	1	-1E+10	1	-1E+10	1	-1E+10	1	-1E+10	1	-1E+10	1
4901784	178	C	05/19/2020	10:44	-132.304	43.297	0	1675.60	0	2.2610	0	37.2750	8	29.783	0	1655.612	0	38.8	4	12.0	4	-1E+10	1	-1E+10	1	-1E+10	1	-1E+10	1	-1E+10	1	-1E+10	1
4901784	178	C	05/19/2020	10:44	-132.304	43.297	0	1680.10	0	2.2510	0	37.2760	8	29.785	0	1660.041	0	39.1	4	12.1	4	-1E+10	1	-1E+10	1	-1E+10	1	-1E+10	1	-1E+10	1	-1E+10	1
4901784	178	C	05/19/2020	10:44	-132.304	43.297	0	1684.60	0	2.2420	0	37.2770	8	29.787	0	1664.469	0	39.4	4	12.2	4	-1E+10	1	-1E+10	1	-1E+10	1	-1E+10	1	-1E+10	1	-1E+10	1
4901784	178	C	05/19/2020	10:44	-132.304	43.297	0	1690.00	0	2.2330	0	37.2780	8	29.788	0	1669.784	0	39.8	4	12.3	4	-1E+10	1	-1E+10	1	-1E+10	1	-1E+10	1	-1E+10	1	-1E+10	1
4901784	178	C	05/19/2020	10:44	-132.304	43.297	0	1695.40	0	2.2290	0	37.2800	8	29.790	0	1675.098	0	40.2	4	12.5	4	-1E+10	1	-1E+10	1	-1E+10	1	-1E+10	1	-1E+10	1	-1E+10	1
4901784	178	C	05/19/2020	10:44	-132.304	43.297	0	1699.90	0	2.2230	0	37.2810	8	29.792	0	1679.526	0	40.4	4	12.5	4	-1E+10	1	-1E+10	1	-1E+10	1	-1E+10	1	-1E+10	1	-1E+10	1
4901784	178	C	05/19/2020	10:44	-132.304	43.297	0	1704.40	0	2.2180	0	37.2820	8	29.793	0	1683.954	0	40.5	4	12.5	4	-1E+10	1	-1E+10	1	-1E+10	1	-1E+10	1	-1E+10	1	-1E+10	1
4901784	178	C	05/19/2020	10:44	-132.304	43.297	0	1709.90	0	2.2130	0	37.2820	8	29.793	0	1689.366	0	40.7	4	12.6	4	-1E+10	1	-1E+10	1	-1E+10	1	-1E+10	1	-1E+10	1	-1E+10	1
4901784	178	C	05/19/2020	10:44	-132.304	43.297	0	1715.40	0	2.2110	0	37.2820	8	29.794	0	1694.778	0	40.9	4	12.7	4	-1E+10	1	-1E+10	1	-1E+10	1	-1E+10	1	-1E+10	1	-1E+10	1
4901784	178	C	05/19/2020	10:44	-132.304	43.297	0	1720.00	0	2.2070	0	37.2820	8	29.794	0	1699.305	0	41.3	4	12.8	4	-1E+10	1	-1E+10	1	-1E+10	1	-1E+10	1	-1E+10	1	-1E+10	1
4901784	178	C	05/19/2020	10:44	-132.304	43.297	0	1724.60	0	2.1940	0	37.2840	8	29.797	0	1703.831	0	41.7	4	12.9	4	-1E+10	1	-1E+10	1	-1E+10	1	-1E+10	1	-1E+10	1	-1E+10	1
4901784	178	C	05/19/2020	10:44	-132.304	43.297	0	1730.20	0	2.1830	0	37.2860	8	29.799	0	1709.341	0	42.2	4	13.0	4	-1E+10	1	-1E+10	1	-1E+10	1	-1E+10	1	-1E+10	1	-1E+10	1
4901784	178	C	05/19/2020	10:44	-132.304	43.297	0	1735.30	0	2.1740	0	37.2870	8	29.801	0	1714.359	0	42.6	4	13.2	4	-1E+10	1	-1E+10	1	-1E+10	1	-1E+10	1	-1E+10	1	-1E+10	1
4901784	178	C	05/19/2020	10:44	-132.304	43.297	0	1739.50	0	2.1680	0	37.2880	8	29.802	0	1718.491	0	42.9	4	13.3	4	-1E+10	1	-1E+10	1	-1E+10	1	-1E+10	1	-1E+10	1	-1E+10	1
4901784	178	C	05/19/2020	10:44	-132.304	43.297	0	1745.00	0	2.1600	0	37.2900	8	29.805	0	1723.902	0	43.2	4	13.3	4	-1E+10	1	-1E+10	1	-1E+10	1	-1E+10	1	-1E+10	1	-1E+10	1
4901784	178	C	05/19/2020	10:44	-132.304	43.297	0	1750.60	0	2.1560	0	37.2900	8	29.805	0	1729.412	0	43.5	4	13.4	4	-1E+10	1	-1E+10	1	-1E+10	1	-1E+10	1	-1E+10	1	-1E+10	1
4901784	178	C	05/19/2020	10:44	-132.304	43.297	0	1755.40	0	2.1490	0	37.2910	8	29.806	0	1734.134	0	44.0	4	13.6	4	-1E+10	1	-1E+10	1	-1E+10	1	-1E+10	1	-1E+10	1	-1E+10	1
4901784	178	C	05/19/2020	10:44	-132.304	43.297	0	1760.30	0	2.1400	0	37.2930	8	29.809	0	1738.955	0	44.4	4	13.7	4	-1E+10	1	-1E+10	1	-1E+10	1	-1E+10	1	-1E+10	1	-1E+10	1
4901784	178	C	05/19/2020	10:44	-132.304	43.297	0	1765.10	0	2.1350	0	37.2940	8	29.810	0	1743.677	0	44.8	4	13.8	4	-1E+10	1	-1E+10	1	-1E+10	1	-1E+10	1	-1E+10	1	-1E+10	1
4901784	178	C	05/19/2020	10:44	-132.304	43.297	0	1770.00	0	2.1270	0	37.2950	8	29.812	0	1748.497	0	45.2	4	14.0	4	-1E+10	1	-1E+10	1	-1E+10	1	-1E+10	1	-1E+10	1	-1E+10	1
4901784	178	C	05/19/2020	10:44	-132.304	43.297	0	1775.00	0	2.1200	0	37.2960	8	29.813	0	1753.416	0	45.5	4	14.1	4	-1E+10	1	-1E+10	1	-1E+10	1	-1E+10	1	-1E+10	1	-1E+10	1
4901784	178	C	05/19/2020	10:44	-132.304	43.297	0	1780.00	0	2.1150	0	37.2970	8	29.814	0	1758.334	0	45.9	4	14.2	4	-1E+10	1	-1E+10	1	-1E+10	1	-1E+10	1	-1E+10	1	-1E+10	1
4901784	178	C	05/19/2020	10:44	-132.304	43.297	0	1785.00	0	2.1130	0	37.2980	8	29.815	0	1763.253	0	46.2	4	14.3	4	-1E+10	1	-1E+10	1	-1E+10	1	-1E+10	1	-1E+10	1	-1E+10	1
4901784	178	C	05/19/2020	10:44	-132.304	43.297	0	1790.10	0	2.1060	0	37.2990	8	29.817	0	1768.269	0	46.7	4	14.4	4	-1E+10	1	-1E+10	1	-1E+10	1	-1E+10	1	-1E+10	1	-1E+10	1
4901784	178	C	05/19/2020	10:44	-132.304	43.297	0	1795.10	0	2.0990	0	37.3010	8	29.819	0	1773.188	0	47.1	4	14.5	4	-1E+10	1	-1E+10	1	-1E+10	1	-1E+10	1	-1E+10	1	-1E+10	1
4901784	178	C	05/19/2020	10:44	-132.304	43.297	0	1800.20	0	2.0920	0	37.3020	8	29.821	0	1778.204	0	47.4	4	14.6	4	-1E+10	1	-1E+10	1	-1E+10	1	-1E+10	1	-1E+10	1	-1E+10	1
4901784	178	C	05/19/2020	10:44	-132.304	43.297	0	1805.20	0	2.0860	0	37.3030	8	29.822	0	1783.122	0	47.7	4	14.7	4	-1E+10	1	-1E+10	1	-1E+10	1	-1E+10	1	-1E+10	1	-1E+10	1
4901784	178	C	05/19/2020	10:44	-132.304	43.297	0	1810.40	0	2.0840	0	37.3040	8	29.823	0	1788.236	0	47.9	4	14.8	4	-1E+10	1	-1E+10	1	-1E+10	1	-1E+10	1	-1E+10	1	-1E+10	1
4901784	178	C	05/19/2020	10:44	-132.304	43.297	0	1815.40	0	2.0820	0	37.3040	8	29.823	0	1793.154	0	48.1	4	14.8	4	-1E+10	1	-1E+10	1	-1E+10	1	-1E+10	1	-1E+10	1	-1E+10	1
4901784	178	C	05/19/2020	10:44	-132.304	43.297	0	1820.50	0	2.0790	0	37.3040	8	29.823	0	1798.170	0	48.3	4	14.9	4	-1E+10	1	-1E+10	1	-1E+10	1	-1E+10	1	-1E+10	1	-1E+10	1
4901784	178	C	05/19/2020	10:44	-132.304	43.297	0	1825.60	0	2.0770	0	37.3050	8	29.824	0	1803.186	0	48.6	4	15.0	4	-1E+10	1	-1E+10	1	-1E+10	1	-1E+10	1	-1E+10	1	-1E+10	1
4901784	178	C	05/19/2020	10:44	-132.304	43.297	0	1830.70	0	2.0690	0	37.3060	8	29.826	0	1808.202	0	49.0	4	15.1	4	-1E+10	1	-1E+10	1	-1E+10	1	-1E+10	1	-1E+10	1	-1E+10	1
4901784	178	C	05/19/2020	10:44	-132.304	43.297	0	1834.90	0	2.0630	0	37.3070	8	29.827	0	1812.332	0	49.2	4	15.2	4	-1E+10	1	-1E+10	1	-1E+10	1	-1E+10	1	-1E+10	1	-1E+10	1
4901784	178	C	05/19/2020	10:44	-132.304	43.297	0	1839.20	0	2.0610	0	37.3080	8	29.828	0	1816.561	0	49.5	4	15.3	4	-1E+10	1	-1E+10	1	-1E+10	1	-1E+10	1	-1E+10	1	-1E+10	1
4901784	178	C	05/19/2020	10:44	-132.304	43.297	0	1844.40	0	2.0540	0	37.3090	8	29.830	0	1821.675	0	49.9	4	15.4	4	-1E+10	1	-1E+10	1	-1E+10	1	-1E+10	1	-1E+10	1	-1E+10	1
4901784	178	C	05/19/2020	10:44	-132.304	43.297	0	1849.50	0	2.0490	0	37.3100	8	29.831	0	1826.690	0	50.2	4	15.5	4	-1E+10	1	-1E+10	1	-1E+10	1	-1E+10	1	-1E+10	1	-1E+10	1
4901784	178	C	05/19/2020	10:44	-132.304	43.297	0	1854.80	0	2.0440	0	37.3110	8	29.832	0	1831.902	0	50.5	4	15.6	4	-1E+10	1	-1E+10	1	-1E+10	1	-1E+10	1	-1E+10	1	-1E+10	1
4901784	178	C	05/19/2020	10:44	-132.304	43.297	0	1860.00	0	2.0410	0	37.3120	8	29.833	0	1837.015	0	50.9	4	15.7	4	-1E+10	1	-1E+10	1	-1E+10	1	-1E+10	1	-1E+10	1	-1E+10	1
4901784	178	C	05/19/2020	10:44	-132.304	43.297	0	1865.20	0	2.0370	0	37.3130	8	29.835	0	1842.128	0	51.1	4	15.8	4	-1E+10	1	-1E+10	1	-1E+10	1	-1E+10	1	-1E+10	1	-1E+10	1
4901784	178	C	05/19/2020	10:44	-132.304	43.297	0	1870.50	0	2.0320	0	37.3140	8	29.836	0	1847.340	0	51.3	4	15.8	4	-1E+10	1	-1E+10	1	-1E+10	1	-1E+10	1	-1E+10	1	-1E+10	1
4901784	178	C	05/19/2020	10:44	-132.304	43.297	0	1874.90	0	2.0280	0	37.3150	8	29.837	0	1851.666	0	51.5	4	15.9	4	-1E+10	1	-1E+10	1	-1E+10	1	-1E+10	1	-1E+10	1	-1E+10	1
4901784	178	C	05/19/2020	10:44	-132.304	43.297	0	1879.30	0	2.0240	0	37.3140	8	29.837	0	1855.992	0	51.7	4	15.9	4	-1E+10	1	-1E+10	1	-1E+10	1	-1E+10	1	-1E+10	1	-1E+10	1
4901784	178	C	05/19/2020	10:44	-132.304	43.297	0	1884.60	0	2.0200	0	37.3150	8	29.838	0	1861.203	0	52.1	4	16.0	4	-1E+10	1	-1E+10	1	-1E+10	1	-1E+10	1	-1E+10	1	-1E+10	1
4901784	178	C	05/19/2020	10:44	-132.304	43.297	0	1889.90	0	2.0130	0	37.3160	8	29.839	0	1866.414	0	52.6	4	16.2	4	-1E+10	1	-1E+10	1	-1E+10	1	-1E+10	1	-1E+10	1	-1E+10	1
4901784	178	C	05/19/2020	10:44	-132.304	43.297	0	1895.30	0	2.0090	0	37.3170	8	29.840	0	1871.724	0	53.0	4	16.3	4	-1E+10	1	-1E+10	1	-1E+10	1	-1E+10	1	-1E+10	1	-1E+10	1
4901784	178	C	05/19/2020	10:44	-132.304	43.297	0	1900.60	0	2.0020	0	37.3190	8	29.843	0	1876.934	0	53.5	4	16.5	4	-1E+10	1	-1E+10	1	-1E+10	1	-1E+10	1	-1E+10	1	-1E+10	1
4901784	178	C	05/19/2020	10:44	-132.304	43.297	0	1905.20	0	1.9980	0	37.3210	8	29.845	0	1881.457	0	53.7	4	16.5	4	-1E+10	1	-1E+10	1	-1E+10	1	-1E+10	1	-1E+10	1	-1E+10	1
4901784	178	C	05/19/2020	10:44	-132.304	43.297	0	1909.90	0	1.9960	0	37.3210	8	29.845	0	1886.077	0	53.8	4	16.6	4	-1E+10	1	-1E+10	1	-1E+10	1	-1E+10	1	-1E+10	1	-1E+10	1
4901784	178	C	05/19/2020	10:44	-132.304	43.297	0	1915.00	0	1.9910	0	37.3210	8	29.845	0	1891.091	0	53.9	4	16.6	4	-1E+10	1	-1E+10	1	-1E+10	1	-1E+10	1	-1E+10	1	-1E+10	1
4901784	178	C	05/19/2020	10:44	-132.304	43.297	0	1919.90	0	1.9870	0	37.3210	8	29.846	0	1895.908	0	54.0	4	16.6	4	-1E+10	1	-1E+10	1	-1E+10	1	-1E+10	1	-1E+10	1	-1E+10	1
4901784	178	C	05/19/2020	10:44	-132.304	43.297	0	1924.60	0	1.9840	0	37.3220	8	29.847	0	1900.528	0	54.3	4	16.7	4	-1E+10	1	-1E+10	1	-1E+10	1	-1E+10	1	-1E+10	1	-1E+10	1
4901784	178	C	05/19/2020	10:44	-132.304	43.297	0	1929.40	0	1.9790	0	37.3220	8	29.847	0	1905.247	0	54.5	4	16.8	4	-1E+10	1	-1E+10	1	-1E+10	1	-1E+10	1	-1E+10	1	-1E+10	1
4901784	178	C	05/19/2020	10:44	-132.304	43.297	0	1934.30	0	1.9770	0	37.3230	8	29.848	0	1910.064	0	54.7	4	16.8	4	-1E+10	1	-1E+10	1	-1E+10	1	-1E+10	1	-1E+10	1	-1E+10	1
4901784	178	C	05/19/2020	10:44	-132.304	43.297	0	1939.20	0	1.9720	0	37.3230	8	29.849	0	1914.880	0	55.0	4	16.9	4	-1E+10	1	-1E+10	1	-1E+10	1	-1E+10	1	-1E+10	1	-1E+10	1
4901784	178	C	05/19/2020	10:44	-132.304	43.297	0	1945.00	0	1.9670	0	37.3240	8	29.850	0	1920.581	0	55.4	4	17.0	4	-1E+10	1	-1E+10	1	-1E+10	1	-1E+10	1	-1E+10	1	-1E+10	1
4901784	178	C	05/19/2020	10:44	-132.304	43.297	0	1950.70	0	1.9630	0	37.3250	8	29.851	0	1926.184	0	55.7	4	17.1	4	-1E+10	1	-1E+10	1	-1E+10	1	-1E+10	1	-1E+10	1	-1E+10	1
4901784	178	C	05/19/2020	10:44	-132.304	43.297	0	1955.60	0	1.9580	0	37.3260	8	29.852	0	1931.000	0	56.0	4	17.2	4	-1E+10	1	-1E+10	1	-1E+10	1	-1E+10	1	-1E+10	1	-1E+10	1
4901784	178	C	05/19/2020	10:44	-132.304	43.297	0	1960.60	0	1.9530	0	37.3270	8	29.854	0	1935.914	0	56.4	4	17.4	4	-1E+10	1	-1E+10	1	-1E+10	1	-1E+10	1	-1E+10	1	-1E+10	1
4901784	178	C	05/19/2020	10:44	-132.304	43.297	0	1965.50	0	1.9490	0	37.3280	8	29.855	0	1940.730	0	56.7	4	17.4	4	-1E+10	1	-1E+10	1	-1E+10	1	-1E+10	1	-1E+10	1	-1E+10	1
4901784	178	C	05/19/2020	10:44	-132.304	43.297	0	1970.60	0	1.9460	0	37.3280	8	29.855	0	1945.743	0	56.9	4	17.5	4	-1E+10	1	-1E+10	1	-1E+10	1	-1E+10	1	-1E+10	1	-1E+10	1
4901784	178	C	05/19/2020	10:44	-132.304	43.297	0	1975.60	0	1.9430	0	37.3290	8	29.856	0	1950.657	0	57.2	4	17.6	4	-1E+10	1	-1E+10	1	-1E+10	1	-1E+10	1	-1E+10	1	-1E+10	1
4901784	178	C	05/19/2020	10:44	-132.304	43.297	0	1980.70	0	1.9400	0	37.3300	8	29.857	0	1955.669	0	57.5	4	17.7	4	-1E+10	1	-1E+10	1	-1E+10	1	-1E+10	1	-1E+10	1	-1E+10	1
4901784	178	C	05/19/2020	10:44	-132.304	43.297	0	1985.00	0	1.9360	0	37.3300	8	29.858	0	1959.895	0	57.8	4	17.8	4	-1E+10	1	-1E+10	1	-1E+10	1	-1E+10	1	-1E+10	1	-1E+10	1
4901784	178	C	05/19/2020	10:44	-132.304	43.297	0	1989.30	0	1.9340	0	37.3310	8	29.859	0	1964.121	0	58.0	4	17.8	4	-1E+10	1	-1E+10	1	-1E+10	1	-1E+10	1	-1E+10	1	-1E+10	1
4901784	178	C	05/19/2020	10:44	-132.304	43.297	0	1994.50	0	1.9300	0	37.3320	8	29.860	0	1969.231	0	58.3	4	17.9	4	-1E+10	1	-1E+10	1	-1E+10	1	-1E+10	1	-1E+10	1	-1E+10	1
4901784	178	C	05/19/2020	10:44	-132.304	43.297	0	1999.70	0	1.9280	0	37.3320	8	29.860	0	1974.341	0	58.5	4	18.0	4	-1E+10	1	-1E+10	1	-1E+10	1	-1E+10	1	-1E+10	1	-1E+10	1
4901784	178	C	05/19/2020	10:44	-132.304	43.297	0	2004.90	0	1.9220	0	37.3330	8	29.861	0	1979.451	0	58.8	4	18.1	4	-1E+10	1	-1E+10	1	-1E+10	1	-1E+10	1	-1E+10	1	-1E+10	1
4901784	178	C	05/19/2020	10:44	-132.304	43.297	0	2010.40	0	1.9180	0	37.3340	8	29.862	0	1984.856	0	59.0	4	18.1	4	-1E+10	1	-1E+10	1	-1E+10	1	-1E+10	1	-1E+10	1	-1E+10	1
4901784	178	C	05/19/2020	10:44	-132.304	43.297	0	2015.30	0	1.9170	0	37.3340	8	29.863	0	1989.671	0	59.2	4	18.2	4	-1E+10	1	-1E+10	1	-1E+10	1	-1E+10	1	-1E+10	1	-1E+10	1
4901784	178	C	05/19/2020	10:44	-132.304	43.297	0	2020.00	0	1.9140	0	37.3350	8	29.864	0	1994.289	0	59.4	4	18.3	4	-1E+10	1	-1E+10	1	-1E+10	1	-1E+10	1	-1E+10	1	-1E+10	1
4901784	178	C	05/19/2020	10:44	-132.304	43.297	0																										
4901784	179	C	05/29/2020	10:49	-132.240	43.186	0	2.70	0	13.9300	0	34.8690	8	26.101	0	2.679	0	249.3	4	98.4	4	-1E+10	1	-1E+10	1	-1E+10	1	-1E+10	1	-1E+10	1	-1E+10	1
4901784	179	C	05/29/2020	10:49	-132.240	43.186	0	4.30	0	13.9280	0	34.8630	8	26.097	0	4.266	0	249.2	4	98.4	4	-1E+10	1	-1E+10	1	-1E+10	1	-1E+10	1	-1E+10	1	-1E+10	1
4901784	179	C	05/29/2020	10:49	-132.240	43.186	0	5.90	0	13.8740	0	34.8600	8	26.106	0	5.853	0	249.6	4	98.4	4	-1E+10	1	-1E+10	1	-1E+10	1	-1E+10	1	-1E+10	1	-1E+10	1
4901784	179	C	05/29/2020	10:49	-132.240	43.186	0	7.40	0	13.8120	0	34.8610	8	26.120	0	7.341	0	249.9	4	98.4	4	-1E+10	1	-1E+10	1	-1E+10	1	-1E+10	1	-1E+10	1	-1E+10	1
4901784	179	C	05/29/2020	10:49	-132.240	43.186	0	9.00	0	13.7040	0	34.8610	8	26.142	0	8.928	0	250.4	4	98.4	4	-1E+10	1	-1E+10	1	-1E+10	1	-1E+10	1	-1E+10	1	-1E+10	1
4901784	179	C	05/29/2020	10:49	-132.240	43.186	0	10.70	0	13.5490	0	34.8680	8	26.180	0	10.615	0	251.3	4	98.4	4	-1E+10	1	-1E+10	1	-1E+10	1	-1E+10	1	-1E+10	1	-1E+10	1
4901784	179	C	05/29/2020	10:49	-132.240	43.186	0	12.40	0	13.3300	0	34.8830	8	26.236	0	12.301	0	251.9	4	98.2	4	-1E+10	1	-1E+10	1	-1E+10	1	-1E+10	1	-1E+10	1	-1E+10	1
4901784	179	C	05/29/2020	10:49	-132.240	43.186	0	14.00	0	13.3250	0	34.8760	8	26.232	0	13.888	0	252.3	4	98.4	4	-1E+10	1	-1E+10	1	-1E+10	1	-1E+10	1	-1E+10	1	-1E+10	1
4901784	179	C	05/29/2020	10:49	-132.240	43.186	0	15.70	0	13.2370	0	34.8910	8	26.262	0	15.575	0	252.4	4	98.2	4	-1E+10	1	-1E+10	1	-1E+10	1	-1E+10	1	-1E+10	1	-1E+10	1
4901784	179	C	05/29/2020	10:49	-132.240	43.186	0	17.50	0	13.0000	0	34.8860	8	26.306	0	17.360	0	253.9	4	98.4	4	-1E+10	1	-1E+10	1	-1E+10	1	-1E+10	1	-1E+10	1	-1E+10	1
4901784	179	C	05/29/2020	10:49	-132.240	43.186	0	19.40	0	12.9260	0	34.8890	8	26.323	0	19.245	0	254.1	4	98.3	4	-1E+10	1	-1E+10	1	-1E+10	1	-1E+10	1	-1E+10	1	-1E+10	1
4901784	179	C	05/29/2020	10:49	-132.240	43.186	0	21.20	0	12.8700	0	34.8890	8	26.334	0	21.030	0	254.3	4	98.3	4	-1E+10	1	-1E+10	1	-1E+10	1	-1E+10	1	-1E+10	1	-1E+10	1
4901784	179	C	05/29/2020	10:49	-132.240	43.186	0	23.00	0	12.8560	0	34.8890	8	26.337	0	22.816	0	254.4	4	98.3	4	-1E+10	1	-1E+10	1	-1E+10	1	-1E+10	1	-1E+10	1	-1E+10	1
4901784	179	C	05/29/2020	10:49	-132.240	43.186	0	24.80	0	12.8390	0	34.8870	8	26.339	0	24.601	0	254.2	4	98.2	4	-1E+10	1	-1E+10	1	-1E+10	1	-1E+10	1	-1E+10	1	-1E+10	1
4901784	179	C	05/29/2020	10:49	-132.240	43.186	0	26.70	0	12.8190	0	34.8730	8	26.332	0	26.486	0	254.2	4	98.1	4	-1E+10	1	-1E+10	1	-1E+10	1	-1E+10	1	-1E+10	1	-1E+10	1
4901784	179	C	05/29/2020	10:49	-132.240	43.186	0	28.50	0	12.7590	0	34.8990	8	26.364	0	28.271	0	254.4	4	98.1	4	-1E+10	1	-1E+10	1	-1E+10	1	-1E+10	1	-1E+10	1	-1E+10	1
4901784	179	C	05/29/2020	10:49	-132.240	43.186	0	30.30	0	12.7420	0	34.9030	8	26.371	0	30.057	0	254.3	4	98.0	4	-1E+10	1	-1E+10	1	-1E+10	1	-1E+10	1	-1E+10	1	-1E+10	1
4901784	179	C	05/29/2020	10:49	-132.240	43.186	0	32.20	0	12.6420	0	34.9220	8	26.405	0	31.941	0	254.7	4	98.0	4	-1E+10	1	-1E+10	1	-1E+10	1	-1E+10	1	-1E+10	1	-1E+10	1
4901784	179	C	05/29/2020	10:49	-132.240	43.186	0	34.10	0	12.5260	0	34.9330	8	26.437	0	33.826	0	255.2	4	97.9	4	-1E+10	1	-1E+10	1	-1E+10	1	-1E+10	1	-1E+10	1	-1E+10	1
4901784	179	C	05/29/2020	10:49	-132.240	43.186	0	36.00	0	12.5040	0	34.9290	8	26.438	0	35.711	0	255.5	4	98.0	4	-1E+10	1	-1E+10	1	-1E+10	1	-1E+10	1	-1E+10	1	-1E+10	1
4901784	179	C	05/29/2020	10:49	-132.240	43.186	0	38.00	0	12.4260	0	34.9320	8	26.456	0	37.694	0	255.9	4	98.0	4	-1E+10	1	-1E+10	1	-1E+10	1	-1E+10	1	-1E+10	1	-1E+10	1
4901784	179	C	05/29/2020	10:49	-132.240	43.186	0	39.90	0	12.3640	0	34.9280	8	26.465	0	39.579	0	256.3	4	98.0	4	-1E+10	1	-1E+10	1	-1E+10	1	-1E+10	1	-1E+10	1	-1E+10	1
4901784	179	C	05/29/2020	10:49	-132.240	43.186	0	41.70	0	12.3280	0	34.9260	8	26.470	0	41.364	0	256.8	4	98.1	4	-1E+10	1	-1E+10	1	-1E+10	1	-1E+10	1	-1E+10	1	-1E+10	1
4901784	179	C	05/29/2020	10:49	-132.240	43.186	0	44.20	0	12.2880	0	34.9270	8	26.479	0	43.844	0	256.9	4	98.1	4	-1E+10	1	-1E+10	1	-1E+10	1	-1E+10	1	-1E+10	1	-1E+10	1
4901784	179	C	05/29/2020	10:49	-132.240	43.186	0	46.20	0	12.2110	0	34.9330	8	26.498	0	45.828	0	257.5	4	98.2	4	-1E+10	1	-1E+10	1	-1E+10	1	-1E+10	1	-1E+10	1	-1E+10	1
4901784	179	C	05/29/2020	10:49	-132.240	43.186	0	47.70	0	12.1660	0	34.9330	8	26.507	0	47.315	0	257.9	4	98.3	4	-1E+10	1	-1E+10	1	-1E+10	1	-1E+10	1	-1E+10	1	-1E+10	1
4901784	179	C	05/29/2020	10:49	-132.240	43.186	0	49.20	0	12.1210	0	34.9350	8	26.517	0	48.803	0	258.3	4	98.3	4	-1E+10	1	-1E+10	1	-1E+10	1	-1E+10	1	-1E+10	1	-1E+10	1
4901784	179	C	05/29/2020	10:49	-132.240	43.186	0	50.70	0	12.0790	0	34.9340	8	26.525	0	50.291	0	258.6	4	98.4	4	-1E+10	1	-1E+10	1	-1E+10	1	-1E+10	1	-1E+10	1	-1E+10	1
4901784	179	C	05/29/2020	10:49	-132.240	43.186	0	52.30	0	12.0670	0	34.9310	8	26.525	0	51.878	0	258.9	4	98.4	4	-1E+10	1	-1E+10	1	-1E+10	1	-1E+10	1	-1E+10	1	-1E+10	1
4901784	179	C	05/29/2020	10:49	-132.240	43.186	0	53.80	0	12.0320	0	34.9300	8	26.531	0	53.365	0	259.3	4	98.5	4	-1E+10	1	-1E+10	1	-1E+10	1	-1E+10	1	-1E+10	1	-1E+10	1
4901784	179	C	05/29/2020	10:49	-132.240	43.186	0	55.40	0	11.9660	0	34.9270	8	26.541	0	54.952	0	259.7	4	98.5	4	-1E+10	1	-1E+10	1	-1E+10	1	-1E+10	1	-1E+10	1	-1E+10	1
4901784	179	C	05/29/2020	10:49	-132.240	43.186	0	57.10	0	11.8530	0	34.9420	8	26.574	0	56.638	0	260.6	4	98.6	4	-1E+10	1	-1E+10	1	-1E+10	1	-1E+10	1	-1E+10	1	-1E+10	1
4901784	179	C	05/29/2020	10:49	-132.240	43.186	0	58.70	0	11.7120	0	34.9380	8	26.598	0	58.225	0	261.4	4	98.7	4	-1E+10	1	-1E+10	1	-1E+10	1	-1E+10	1	-1E+10	1	-1E+10	1
4901784	179	C	05/29/2020	10:49	-132.240	43.186	0	60.30	0	11.6380	0	34.9380	8	26.612	0	59.812	0	261.8	4	98.7	4	-1E+10	1	-1E+10	1	-1E+10	1	-1E+10	1	-1E+10	1	-1E+10	1
4901784	179	C	05/29/2020	10:49	-132.240	43.186	0	62.00	0	11.5690	0	34.9260	8	26.615	0	61.498	0	262.4	4	98.7	4	-1E+10	1	-1E+10	1	-1E+10	1	-1E+10	1	-1E+10	1	-1E+10	1
4901784	179	C	05/29/2020	10:49	-132.240	43.186	0	63.60	0	11.4180	0	34.9370	8	26.652	0	63.085	0	262.9	4	98.6	4	-1E+10	1	-1E+10	1	-1E+10	1	-1E+10	1	-1E+10	1	-1E+10	1
4901784	179	C	05/29/2020	10:49	-132.240	43.186	0	65.20	0	11.2690	0	34.9400	8	26.682	0	64.671	0	263.4	4	98.5	4	-1E+10	1	-1E+10	1	-1E+10	1	-1E+10	1	-1E+10	1	-1E+10	1
4901784	179	C	05/29/2020	10:49	-132.240	43.186	0	66.90	0	11.1550	0	34.9400	8	26.703	0	66.357	0	263.7	4	98.4	4	-1E+10	1	-1E+10	1	-1E+10	1	-1E+10	1	-1E+10	1	-1E+10	1
4901784	179	C	05/29/2020	10:49	-132.240	43.186	0	68.60	0	11.0530	0	34.9410	8	26.722	0	68.043	0	263.7	4	98.2	4	-1E+10	1	-1E+10	1	-1E+10	1	-1E+10	1	-1E+10	1	-1E+10	1
4901784	179	C	05/29/2020	10:49	-132.240	43.186	0	70.30	0	10.9160	0	34.9500	8	26.754	0	69.729	0	263.5	4	97.8	4	-1E+10	1	-1E+10	1	-1E+10	1	-1E+10	1	-1E+10	1	-1E+10	1
4901784	179	C	05/29/2020	10:49	-132.240	43.186	0	72.00	0	10.8610	0	34.9530	8	26.766	0	71.415	0	263.3	4	97.6	4	-1E+10	1	-1E+10	1	-1E+10	1	-1E+10	1	-1E+10	1	-1E+10	1
4901784	179	C	05/29/2020	10:49	-132.240	43.186	0	73.80	0	10.7950	0	34.9580	8	26.782	0	73.200	0	263.0	4	97.4	4	-1E+10	1	-1E+10	1	-1E+10	1	-1E+10	1	-1E+10	1	-1E+10	1
4901784	179	C	05/29/2020	10:49	-132.240	43.186	0	75.50	0	10.7570	0	34.9620	8	26.792	0	74.886	0	261.9	4	96.9	4	-1E+10	1	-1E+10	1	-1E+10	1	-1E+10	1	-1E+10	1	-1E+10	1
4901784	179	C	05/29/2020	10:49	-132.240	43.186	0	77.40	0	10.7000	0	34.9660	8	26.805	0	76.770	0	261.2	4	96.5	4	-1E+10	1	-1E+10	1	-1E+10	1	-1E+10	1	-1E+10	1	-1E+10	1
4901784	179	C	05/29/2020	10:49	-132.240	43.186	0	79.10	0	10.5650	0	34.9600	8	26.824	0	78.456	0	261.4	4	96.3	4	-1E+10	1	-1E+10	1	-1E+10	1	-1E+10	1	-1E+10	1	-1E+10	1
4901784	179	C	05/29/2020	10:49	-132.240	43.186	0	81.00	0	10.5180	0	34.9640	8	26.836	0	80.340	0	261.0	4	96.1	4	-1E+10	1	-1E+10	1	-1E+10	1	-1E+10	1	-1E+10	1	-1E+10	1
4901784	179	C	05/29/2020	10:49	-132.240	43.186	0	82.80	0	10.3860	0	34.9560	8	26.853	0	82.125	0	261.2	4	95.9	4	-1E+10	1	-1E+10	1	-1E+10	1	-1E+10	1	-1E+10	1	-1E+10	1
4901784	179	C	05/29/2020	10:49	-132.240	43.186	0	84.60	0	10.2580	0	34.9460	8	26.867	0	83.910	0	261.7	4	95.8	4	-1E+10	1	-1E+10	1	-1E+10	1	-1E+10	1	-1E+10	1	-1E+10	1
4901784	179	C	05/29/2020	10:49	-132.240	43.186	0	86.50	0	10.2430	0	34.9460	8	26.870	0	85.794	0	261.2	4	95.6	4	-1E+10	1	-1E+10	1	-1E+10	1	-1E+10	1	-1E+10	1	-1E+10	1
4901784	179	C	05/29/2020	10:49	-132.240	43.186	0	88.20	0	10.2200	0	34.9460	8	26.874	0	87.480	0	261.2	4	95.5	4	-1E+10	1	-1E+10	1	-1E+10	1	-1E+10	1	-1E+10	1	-1E+10	1
4901784	179	C	05/29/2020	10:49	-132.240	43.186	0	90.00	0	10.1870	0	34.9460	8	26.880	0	89.265	0	260.7	4	95.3	4	-1E+10	1	-1E+10	1	-1E+10	1	-1E+10	1	-1E+10	1	-1E+10	1
4901784	179	C	05/29/2020	10:49	-132.240	43.186	0	91.70	0	10.1620	0	34.9430	8	26.882	0	90.951	0	260.6	4	95.2	4	-1E+10	1	-1E+10	1	-1E+10	1	-1E+10	1	-1E+10	1	-1E+10	1
4901784	179	C	05/29/2020	10:49	-132.240	43.186	0	93.50	0	10.1420	0	34.9410	8	26.884	0	92.736	0	260.3	4	95.1	4	-1E+10	1	-1E+10	1	-1E+10	1	-1E+10	1	-1E+10	1	-1E+10	1
4901784	179	C	05/29/2020	10:49	-132.240	43.186	0	95.30	0	10.1070	0	34.9370	8	26.887	0	94.520	0	260.2	4	94.9	4	-1E+10	1	-1E+10	1	-1E+10	1	-1E+10	1	-1E+10	1	-1E+10	1
4901784	179	C	05/29/2020	10:49	-132.240	43.186	0	97.10	0	10.0510	0	34.9400	8	26.899	0	96.305	0	259.5	4	94.6	4	-1E+10	1	-1E+10	1	-1E+10	1	-1E+10	1	-1E+10	1	-1E+10	1
4901784	179	C	05/29/2020	10:49	-132.240	43.186	0	98.90	0	10.0160	0	34.9280	8	26.895	0	98.090	0	259.4	4	94.4	4	-1E+10	1	-1E+10	1	-1E+10	1	-1E+10	1	-1E+10	1	-1E+10	1
4901784	179	C	05/29/2020	10:49	-132.240	43.186	0	102.60	0	9.9030	0	34.9230	8	26.911	0	101.759	0	258.4	4	93.9	4	-1E+10	1	-1E+10	1	-1E+10	1	-1E+10	1	-1E+10	1	-1E+10	1
4901784	179	C	05/29/2020	10:49	-132.240	43.186	0	104.30	0	9.8630	0	34.9300	8	26.923	0	103.445	0	257.8	4	93.6	4	-1E+10	1	-1E+10	1	-1E+10	1	-1E+10	1	-1E+10	1	-1E+10	1
4901784	179	C	05/29/2020	10:49	-132.240	43.186	0	107.30	0	9.8210	0	34.9310	8	26.931	0	106.419	0	255.6	4	92.7	4	-1E+10	1	-1E+10	1	-1E+10	1	-1E+10	1	-1E+10	1	-1E+10	1
4901784	179	C	05/29/2020	10:49	-132.240	43.186	0	110.00	0	9.8660	0	34.9510	8	26.939	0	109.096	0	252.5	4	91.7	4	-1E+10	1	-1E+10	1	-1E+10	1	-1E+10	1	-1E+10	1	-1E+10	1
4901784	179	C	05/29/2020	10:49	-132.240	43.186	0	112.30	0	9.7990	0	34.9590	8	26.957	0	111.377	0	250.5	4	90.8	4	-1E+10	1	-1E+10	1	-1E+10	1	-1E+10	1	-1E+10	1	-1E+10	1
4901784	179	C	05/29/2020	10:49	-132.240	43.186	0	115.20	0	9.7720	0	34.9770	8	26.975	0	114.252	0	247.1	4	89.5	4	-1E+10	1	-1E+10	1	-1E+10	1	-1E+10	1	-1E+10	1	-1E+10	1
4901784	179	C	05/29/2020	10:49	-132.240	43.186	0	117.40	0	9.7170	0	35.0060	8	27.007	0	116.433	0	244.7	4	88.6	4	-1E+10	1	-1E+10	1	-1E+10	1	-1E+10	1	-1E+10	1	-1E+10	1
4901784	179	C	05/29/2020	10:49	-132.240	43.186	0	119.80	0	9.5930	0	35.0170	8	27.037	0	118.813	0	242.9	4	87.7	4	-1E+10	1	-1E+10	1	-1E+10	1	-1E+10	1	-1E+10	1	-1E+10	1
4901784	179	C	05/29/2020	10:49	-132.240	43.186	0	122.80	0	9.4990	0	35.0490	8	27.078	0	121.787	0	238.7	4	86.0	4	-1E+10	1	-1E+10	1	-1E+10	1	-1E+10	1	-1E+10	1	-1E+10	1
4901784	179	C	05/29/2020	10:49	-132.240	43.186	0	125.10	0	9.4930	0	35.0710	8	27.096	0	124.068	0	234.7	4	84.6	4	-1E+10	1	-1E+10	1	-1E+10	1	-1E+10	1	-1E+10	1	-1E+10	1
4901784	179	C	05/29/2020	10:49	-132.240	43.186	0	127.50	0	9.4020	0	35.1410	8	27.166	0	126.447	0	231.3	4	83.2	4	-1E+10	1	-1E+10	1	-1E+10	1	-1E+10	1	-1E+10	1	-1E+10	1
4901784	179	C	05/29/2020	10:49	-132.240	43.186	0	129.90	0	9.3940	0	35.1700	8	27.190	0	128.827	0	228.5	4	82.2	4	-1E+10	1	-1E+10	1	-1E+10	1	-1E+10	1	-1E+10	1	-1E+10	1
4901784	179	C	05/29/2020	10:49	-132.240	43.186	0	132.40	0	9.3110	0	35.2260	8	27.247	0	131.305	0	226.0	4	81.2	4	-1E+10	1	-1E+10	1	-1E+10	1	-1E+10	1	-1E+10	1	-1E+10	1
4901784	179	C	05/29/2020	10:49	-132.240	43.186	0	135.00	0	9.2690	0	35.2550	8	27.277	0	133.883	0	223.9	4	80.4	4	-1E+10	1	-1E+10	1	-1E+10	1	-1E+10	1	-1E+10	1	-1E+10	1
4901784	179	C	05/29/2020	10:49	-132.240	43.186	0	137.40	0	9.2380	0	35.2640	8	27.289	0	136.262	0	221.4	4	79.4	4	-1E+10	1	-1E+10	1	-1E+10	1	-1E+10	1	-1E+10	1	-1E+10	1
4901784	179	C	05/29/2020	10:49	-132.240	43.186	0	139.90	0	9.1860	0	35.3220	8	27.343	0	138.741	0	218.0	4	78.2	4	-1E+10	1	-1E+10	1	-1E+10	1	-1E+10	1	-1E+10	1	-1E+10	1
4901784	179	C	05/29/2020	10:49	-132.240	43.186	0	142.50	0	9.0110	0	35.3800	8	27.417	0	141.318	0	216.5	4	77.4	4	-1E+10	1	-1E+10	1	-1E+10	1	-1E+10	1	-1E+10	1	-1E+10	1
4901784	179	C	05/29/2020	10:49	-132.240	43.186	0	145.50	0	8.7920	0	35.4720	8	27.524	0	144.292	0	214.3	4	76.3	4	-1E+10	1	-1E+10	1	-1E+10	1	-1E+10	1	-1E+10	1	-1E+10	1
4901784	179	C	05/29/2020	10:49	-132.240	43.186	0	147.30	0	8.6910	0	35.5140	8	27.573	0	146.077	0	213.1	4	75.7	4	-1E+10	1	-1E+10	1	-1E+10	1	-1E+10	1	-1E+10	1	-1E+10	1
4901784	179	C	05/29/2020	10:49	-132.240	43.186	0	149.60	0	8.4900	0	35.6100	8	27.680	0	148.357	0	212.4	4	75.2	4	-1E+10	1	-1E+10	1	-1E+10	1	-1E+10	1	-1E+10	1	-1E+10	1
4901784	179	C	05/29/2020	10:49	-132.240	43.186	0	152.60	0	8.4360	0	35.6390	8	27.712	0	151.331	0	211.6	4	74.8	4	-1E+10	1	-1E+10	1	-1E+10	1	-1E+10	1	-1E+10	1	-1E+10	1
4901784	179	C	05/29/2020	10:49	-132.240	43.186	0	154.90	0	8.4260	0	35.6410	8	27.715	0	153.611	0	210.5	4	74.4	4	-1E+10	1	-1E+10	1	-1E+10	1	-1E+10	1	-1E+10	1	-1E+10	1
4901784	179	C	05/29/2020	10:49	-132.240	43.186	0	157.00	0	8.3500	0	35.7010	8	27.774	0	155.692	0	209.0	4	73.8	4	-1E+10	1	-1E+10	1	-1E+10	1	-1E+10	1	-1E+10	1	-1E+10	1
4901784	179	C	05/29/2020	10:49	-132.240	43.186	0	160.20	0	8.2230	0	35.8240	8	27.890	0	158.865	0	207.7	4	73.2	4	-1E+10	1	-1E+10	1	-1E+10	1	-1E+10	1	-1E+10	1	-1E+10	1
4901784	179	C	05/29/2020	10:49	-132.240	43.186	0	162.70	0	8.1750	0	35.8650	8	27.930	0	161.343	0	206.7	4	72.8	4	-1E+10	1	-1E+10	1	-1E+10	1	-1E+10	1	-1E+10	1	-1E+10	1
4901784	179	C	05/29/2020	10:49	-132.240	43.186	0	165.20	0	8.0990	0	35.9050	8	27.973	0	163.821	0	205.9	4	72.4	4	-1E+10	1	-1E+10	1	-1E+10	1	-1E+10	1	-1E+10	1	-1E+10	1
4901784	179	C	05/29/2020	10:49	-132.240	43.186	0	167.70	0	8.1180	0	35.9470	8	28.003	0	166.299	0	204.9	4	72.1	4	-1E+10	1	-1E+10	1	-1E+10	1	-1E+10	1	-1E+10	1	-1E+10	1
4901784	179	C	05/29/2020	10:49	-132.240	43.186	0	170.30	0	8.1320	0	35.9990	8	28.042	0	168.876	0	203.9	4	71.8	4	-1E+10	1	-1E+10	1	-1E+10	1	-1E+10	1	-1E+10	1	-1E+10	1
4901784	179	C	05/29/2020	10:49	-132.240	43.186	0	172.90	0	8.0280	0	36.0510	8	28.098	0	171.453	0	203.3	4	71.4	4	-1E+10	1	-1E+10	1	-1E+10	1	-1E+10	1	-1E+10	1	-1E+10	1
4901784	179	C	05/29/2020	10:49	-132.240	43.186	0	174.60	0	8.0190	0	36.0990	8	28.138	0	173.138	0	202.7	4	71.3	4	-1E+10	1	-1E+10	1	-1E+10	1	-1E+10	1	-1E+10	1	-1E+10	1
4901784	179	C	05/29/2020	10:49	-132.240	43.186	0	177.40	0	8.0980	0	36.1410	8	28.159	0	175.914	0	201.6	4	71.0	4	-1E+10	1	-1E+10	1	-1E+10	1	-1E+10	1	-1E+10	1	-1E+10	1
4901784	179	C	05/29/2020	10:49	-132.240	43.186	0	180.10	0	8.0680	0	36.1780	8	28.192	0	178.590	0	200.6	4	70.6	4	-1E+10	1	-1E+10	1	-1E+10	1	-1E+10	1	-1E+10	1	-1E+10	1
4901784	179	C	05/29/2020	10:49	-132.240	43.186	0	182.70	0	8.0450	0	36.2090	8	28.220	0	181.167	0	199.1	4	70.1	4	-1E+10	1	-1E+10	1	-1E+10	1	-1E+10	1	-1E+10	1	-1E+10	1
4901784	179	C	05/29/2020	10:49	-132.240	43.186	0	185.90	0	8.0020	0	36.2660	8	28.272	0	184.339	0	197.4	4	69.4	4	-1E+10	1	-1E+10	1	-1E+10	1	-1E+10	1	-1E+10	1	-1E+10	1
4901784	179	C	05/29/2020	10:49	-132.240	43.186	0	187.70	0	7.9870	0	36.2900	8	28.293	0	186.123	0	196.3	4	69.0	4	-1E+10	1	-1E+10	1	-1E+10	1	-1E+10	1	-1E+10	1	-1E+10	1
4901784	179	C	05/29/2020	10:49	-132.240	43.186	0	190.00	0	7.9930	0	36.3190	8	28.315	0	188.403	0	194.6	4	68.5	4	-1E+10	1	-1E+10	1	-1E+10	1	-1E+10	1	-1E+10	1	-1E+10	1
4901784	179	C	05/29/2020	10:49	-132.240	43.186	0	192.40	0	7.9900	0	36.3280	8	28.322	0	190.781	0	192.5	4	67.7	4	-1E+10	1	-1E+10	1	-1E+10	1	-1E+10	1	-1E+10	1	-1E+10	1
4901784	179	C	05/29/2020	10:49	-132.240	43.186	0	194.90	0	7.9360	0	36.3620	8	28.357	0	193.259	0	190.3	4	66.9	4	-1E+10	1	-1E+10	1	-1E+10	1	-1E+10	1	-1E+10	1	-1E+10	1
4901784	179	C	05/29/2020	10:49	-132.240	43.186	0	197.30	0	7.9030	0	36.3810	8	28.377	0	195.638	0	188.5	4	66.2	4	-1E+10	1	-1E+10	1	-1E+10	1	-1E+10	1	-1E+10	1	-1E+10	1
4901784	179	C	05/29/2020	10:49	-132.240	43.186	0	199.80	0	7.9010	0	36.4030	8	28.395	0	198.115	0	187.0	4	65.7	4	-1E+10	1	-1E+10	1	-1E+10	1	-1E+10	1	-1E+10	1	-1E+10	1
4901784	179	C	05/29/2020	10:49	-132.240	43.186	0	202.20	0	7.8990	0	36.4110	8	28.402	0	200.494	0	185.7	4	65.2	4	-1E+10	1	-1E+10	1	-1E+10	1	-1E+10	1	-1E+10	1	-1E+10	1
4901784	179	C	05/29/2020	10:49	-132.240	43.186	0	204.70	0	7.8950	0	36.4150	8	28.405	0	202.972	0	184.3	4	64.7	4	-1E+10	1	-1E+10	1	-1E+10	1	-1E+10	1	-1E+10	1	-1E+10	1
4901784	179	C	05/29/2020	10:49	-132.240	43.186	0	207.90	0	7.8860	0	36.4230	8	28.413	0	206.143	0	181.7	4	63.8	4	-1E+10	1	-1E+10	1	-1E+10	1	-1E+10	1	-1E+10	1	-1E+10	1
4901784	179	C	05/29/2020	10:49	-132.240	43.186	0	210.40	0	7.8730	0	36.4350	8	28.425	0	208.621	0	179.6	4	63.1	4	-1E+10	1	-1E+10	1	-1E+10	1	-1E+10	1	-1E+10	1	-1E+10	1
4901784	179	C	05/29/2020	10:49	-132.240	43.186	0	212.80	0	7.8670	0	36.4390	8	28.429	0	210.999	0	177.0	4	62.2	4	-1E+10	1	-1E+10	1	-1E+10	1	-1E+10	1	-1E+10	1	-1E+10	1
4901784	179	C	05/29/2020	10:49	-132.240	43.186	0	215.30	0	7.8510	0	36.4480	8	28.438	0	213.477	0	173.8	4	61.0	4	-1E+10	1	-1E+10	1	-1E+10	1	-1E+10	1	-1E+10	1	-1E+10	1
4901784	179	C	05/29/2020	10:49	-132.240	43.186	0	217.80	0	7.8280	0	36.4650	8	28.455	0	215.954	0	170.3	4	59.8	4	-1E+10	1	-1E+10	1	-1E+10	1	-1E+10	1	-1E+10	1	-1E+10	1
4901784	179	C	05/29/2020	10:49	-132.240	43.186	0	220.40	0	7.8040	0	36.4910	8	28.479	0	218.531	0	167.6	4	58.8	4	-1E+10	1	-1E+10	1	-1E+10	1	-1E+10	1	-1E+10	1	-1E+10	1
4901784	179	C	05/29/2020	10:49	-132.240	43.186	0	222.20	0	7.8050	0	36.4940	8	28.481	0	220.315	0	166.6	4	58.5	4	-1E+10	1	-1E+10	1	-1E+10	1	-1E+10	1	-1E+10	1	-1E+10	1
4901784	179	C	05/29/2020	10:49	-132.240	43.186	0	224.90	0	7.8050	0	36.4980	8	28.485	0	222.990	0	165.0	4	57.9	4	-1E+10	1	-1E+10	1	-1E+10	1	-1E+10	1	-1E+10	1	-1E+10	1
4901784	179	C	05/29/2020	10:49	-132.240	43.186	0	227.60	0	7.7900	0	36.5090	8	28.496	0	225.666	0	163.5	4	57.4	4	-1E+10	1	-1E+10	1	-1E+10	1	-1E+10	1	-1E+10	1	-1E+10	1
4901784	179	C	05/29/2020	10:49	-132.240	43.186	0	230.30	0	7.7740	0	36.5140	8	28.502	0	228.341	0	162.7	4	57.0	4	-1E+10	1	-1E+10	1	-1E+10	1	-1E+10	1	-1E+10	1	-1E+10	1
4901784	179	C	05/29/2020	10:49	-132.240	43.186	0	233.00	0	7.7580	0	36.5150	8	28.505	0	231.017	0	162.1	4	56.8	4	-1E+10	1	-1E+10	1	-1E+10	1	-1E+10	1	-1E+10	1	-1E+10	1
4901784	179	C	05/29/2020	10:49	-132.240	43.186	0	234.90	0	7.7440	0	36.5160	8	28.508	0	232.900	0	161.8	4	56.7	4	-1E+10	1	-1E+10	1	-1E+10	1	-1E+10	1	-1E+10	1	-1E+10	1
4901784	179	C	05/29/2020	10:49	-132.240	43.186	0	237.60	0	7.7240	0	36.5160	8	28.511	0	235.575	0	161.1	4	56.4	4	-1E+10	1	-1E+10	1	-1E+10	1	-1E+10	1	-1E+10	1	-1E+10	1
4901784	179	C	05/29/2020	10:49	-132.240	43.186	0	240.40	0	7.6820	0	36.5180	8	28.519	0	238.350	0	160.4	4	56.1	4	-1E+10	1	-1E+10	1	-1E+10	1	-1E+10	1	-1E+10	1	-1E+10	1
4901784	179	C	05/29/2020	10:49	-132.240	43.186	0	242.20	0	7.6490	0	36.5210	8	28.527	0	240.133	0	159.9	4	55.9	4	-1E+10	1	-1E+10	1	-1E+10	1	-1E+10	1	-1E+10	1	-1E+10	1
4901784	179	C	05/29/2020	10:49	-132.240	43.186	0	245.10	0	7.6210	0	36.5220	8	28.532	0	243.007	0	159.3	4	55.7	4	-1E+10	1	-1E+10	1	-1E+10	1	-1E+10	1	-1E+10	1	-1E+10	1
4901784	179	C	05/29/2020	10:49	-132.240	43.186	0	248.10	0	7.5910	0	36.5220	8	28.536	0	245.980	0	158.6	4	55.4	4	-1E+10	1	-1E+10	1	-1E+10	1	-1E+10	1	-1E+10	1	-1E+10	1
4901784	179	C	05/29/2020	10:49	-132.240	43.186	0	250.00	0	7.5470	0	36.5240	8	28.544	0	247.862	0	158.2	4	55.2	4	-1E+10	1	-1E+10	1	-1E+10	1	-1E+10	1	-1E+10	1	-1E+10	1
4901784	179	C	05/29/2020	10:49	-132.240	43.186	0	252.00	0	7.5240	0	36.5260	8	28.549	0	249.844	0	157.8	4	55.0	4	-1E+10	1	-1E+10	1	-1E+10	1	-1E+10	1	-1E+10	1	-1E+10	1
4901784	179	C	05/29/2020	10:49	-132.240	43.186	0	254.90	0	7.4770	0	36.5240	8	28.555	0	252.717	0	157.0	4	54.7	4	-1E+10	1	-1E+10	1	-1E+10	1	-1E+10	1	-1E+10	1	-1E+10	1
4901784	179	C	05/29/2020	10:49	-132.240	43.186	0	257.90	0	7.4540	0	36.5210	8	28.556	0	255.690	0	156.3	4	54.4	4	-1E+10	1	-1E+10	1	-1E+10	1	-1E+10	1	-1E+10	1	-1E+10	1
4901784	179	C	05/29/2020	10:49	-132.240	43.186	0	259.80	0	7.4150	0	36.5200	8	28.561	0	257.572	0	155.7	4	54.1	4	-1E+10	1	-1E+10	1	-1E+10	1	-1E+10	1	-1E+10	1	-1E+10	1
4901784	179	C	05/29/2020	10:49	-132.240	43.186	0	262.70	0	7.3430	0	36.5220	8	28.573	0	260.446	0	154.9	4	53.8	4	-1E+10	1	-1E+10	1	-1E+10	1	-1E+10	1	-1E+10	1	-1E+10	1
4901784	179	C	05/29/2020	10:49	-132.240	43.186	0	265.60	0	7.2990	0	36.5230	8	28.580	0	263.319	0	154.3	4	53.5	4	-1E+10	1	-1E+10	1	-1E+10	1	-1E+10	1	-1E+10	1	-1E+10	1
4901784	179	C	05/29/2020	10:49	-132.240	43.186	0	267.50	0	7.2930	0	36.5200	8	28.579	0	265.201	0	153.5	4	53.2	4	-1E+10	1	-1E+10	1	-1E+10	1	-1E+10	1	-1E+10	1	-1E+10	1
4901784	179	C	05/29/2020	10:49	-132.240	43.186	0	269.50	0	7.2290	0	36.5270	8	28.594	0	267.183	0	152.7	4	52.9	4	-1E+10	1	-1E+10	1	-1E+10	1	-1E+10	1	-1E+10	1	-1E+10	1
4901784	179	C	05/29/2020	10:49	-132.240	43.186	0	272.40	0	7.1730	0	36.5190	8	28.595	0	270.056	0	151.7	4	52.5	4	-1E+10	1	-1E+10	1	-1E+10	1	-1E+10	1	-1E+10	1	-1E+10	1
4901784	179	C	05/29/2020	10:49	-132.240	43.186	0	275.30	0	7.1000	0	36.5210	8	28.607	0	272.929	0	150.7	4	52.1	4	-1E+10	1	-1E+10	1	-1E+10	1	-1E+10	1	-1E+10	1	-1E+10	1
4901784	179	C	05/29/2020	10:49	-132.240	43.186	0	277.30	0	7.0830	0	36.5210	8	28.610	0	274.911	0	150.1	4	51.8	4	-1E+10	1	-1E+10	1	-1E+10	1	-1E+10	1	-1E+10	1	-1E+10	1
4901784	179	C	05/29/2020	10:49	-132.240	43.186	0	280.20	0	7.0650	0	36.5180	8	28.610	0	277.784	0	149.1	4	51.5	4	-1E+10	1	-1E+10	1	-1E+10	1	-1E+10	1	-1E+10	1	-1E+10	1
4901784	179	C	05/29/2020	10:49	-132.240	43.186	0	283.10	0	7.0120	0	36.5180	8	28.618	0	280.657	0	147.6	4	50.9	4	-1E+10	1	-1E+10	1	-1E+10	1	-1E+10	1	-1E+10	1	-1E+10	1
4901784	179	C	05/29/2020	10:49	-132.240	43.186	0	285.00	0	6.9660	0	36.5180	8	28.624	0	282.539	0	146.7	4	50.5	4	-1E+10	1	-1E+10	1	-1E+10	1	-1E+10	1	-1E+10	1	-1E+10	1
4901784	179	C	05/29/2020	10:49	-132.240	43.186	0	287.80	0	6.9070	0	36.5210	8	28.635	0	285.313	0	145.8	4	50.1	4	-1E+10	1	-1E+10	1	-1E+10	1	-1E+10	1	-1E+10	1	-1E+10	1
4901784	179	C	05/29/2020	10:49	-132.240	43.186	0	290.70	0	6.8920	0	36.5210	8	28.637	0	288.186	0	144.7	4	49.8	4	-1E+10	1	-1E+10	1	-1E+10	1	-1E+10	1	-1E+10	1	-1E+10	1
4901784	179	C	05/29/2020	10:49	-132.240	43.186	0	292.50	0	6.8780	0	36.5200	8	28.639	0	289.969	0	143.7	4	49.4	4	-1E+10	1	-1E+10	1	-1E+10	1	-1E+10	1	-1E+10	1	-1E+10	1
4901784	179	C	05/29/2020	10:49	-132.240	43.186	0	295.30	0	6.8380	0	36.5230	8	28.647	0	292.743	0	142.2	4	48.8	4	-1E+10	1	-1E+10	1	-1E+10	1	-1E+10	1	-1E+10	1	-1E+10	1
4901784	179	C	05/29/2020	10:49	-132.240	43.186	0	298.20	0	6.7830	0	36.5210	8	28.653	0	295.616	0	140.6	4	48.2	4	-1E+10	1	-1E+10	1	-1E+10	1	-1E+10	1	-1E+10	1	-1E+10	1
4901784	179	C	05/29/2020	10:49	-132.240	43.186	0	300.00	0	6.7530	0	36.5170	8	28.654	0	297.399	0	139.7	4	47.9	4	-1E+10	1	-1E+10	1	-1E+10	1	-1E+10	1	-1E+10	1	-1E+10	1
4901784	179	C	05/29/2020	10:49	-132.240	43.186	0	302.00	0	6.7230	0	36.5230	8	28.663	0	299.380	0	139.0	4	47.6	4	-1E+10	1	-1E+10	1	-1E+10	1	-1E+10	1	-1E+10	1	-1E+10	1
4901784	179	C	05/29/2020	10:49	-132.240	43.186	0	304.80	0	6.6930	0	36.5230	8	28.667	0	302.154	0	137.5	4	47.1	4	-1E+10	1	-1E+10	1	-1E+10	1	-1E+10	1	-1E+10	1	-1E+10	1
4901784	179	C	05/29/2020	10:49	-132.240	43.186	0	307.70	0	6.6670	0	36.5230	8	28.671	0	305.026	0	135.8	4	46.5	4	-1E+10	1	-1E+10	1	-1E+10	1	-1E+10	1	-1E+10	1	-1E+10	1
4901784	179	C	05/29/2020	10:49	-132.240	43.186	0	309.60	0	6.6410	0	36.5220	8	28.674	0	306.908	0	134.5	4	46.0	4	-1E+10	1	-1E+10	1	-1E+10	1	-1E+10	1	-1E+10	1	-1E+10	1
4901784	179	C	05/29/2020	10:49	-132.240	43.186	0	312.40	0	6.5980	0	36.5220	8	28.679	0	309.682	0	132.4	4	45.2	4	-1E+10	1	-1E+10	1	-1E+10	1	-1E+10	1	-1E+10	1	-1E+10	1
4901784	179	C	05/29/2020	10:49	-132.240	43.186	0	315.20	0	6.5450	0	36.5220	8	28.687	0	312.455	0	130.2	4	44.4	4	-1E+10	1	-1E+10	1	-1E+10	1	-1E+10	1	-1E+10	1	-1E+10	1
4901784	179	C	05/29/2020	10:49	-132.240	43.186	0	317.10	0	6.5080	0	36.5240	8	28.694	0	314.337	0	128.7	4	43.8	4	-1E+10	1	-1E+10	1	-1E+10	1	-1E+10	1	-1E+10	1	-1E+10	1
4901784	179	C	05/29/2020	10:49	-132.240	43.186	0	320.00	0	6.4550	0	36.5250	8	28.702	0	317.210	0	126.3	4	43.0	4	-1E+10	1	-1E+10	1	-1E+10	1	-1E+10	1	-1E+10	1	-1E+10	1
4901784	179	C	05/29/2020	10:49	-132.240	43.186	0	322.80	0	6.4190	0	36.5240	8	28.706	0	319.983	0	123.7	4	42.1	4	-1E+10	1	-1E+10	1	-1E+10	1	-1E+10	1	-1E+10	1	-1E+10	1
4901784	179	C	05/29/2020	10:49	-132.240	43.186	0	324.70	0	6.3760	0	36.5280	8	28.715	0	321.865	0	121.7	4	41.4	4	-1E+10	1	-1E+10	1	-1E+10	1	-1E+10	1	-1E+10	1	-1E+10	1
4901784	179	C	05/29/2020	10:49	-132.240	43.186	0	327.50	0	6.3230	0	36.5290	8	28.723	0	324.639	0	118.9	4	40.4	4	-1E+10	1	-1E+10	1	-1E+10	1	-1E+10	1	-1E+10	1	-1E+10	1
4901784	179	C	05/29/2020	10:49	-132.240	43.186	0	330.30	0	6.2710	0	36.5310	8	28.731	0	327.412	0	116.3	4	39.4	4	-1E+10	1	-1E+10	1	-1E+10	1	-1E+10	1	-1E+10	1	-1E+10	1
4901784	179	C	05/29/2020	10:49	-132.240	43.186	0	332.20	0	6.2440	0	36.5320	8	28.736	0	329.294	0	114.8	4	38.9	4	-1E+10	1	-1E+10	1	-1E+10	1	-1E+10	1	-1E+10	1	-1E+10	1
4901784	179	C	05/29/2020	10:49	-132.240	43.186	0	335.00	0	6.1800	0	36.5380	8	28.749	0	332.067	0	112.9	4	38.2	4	-1E+10	1	-1E+10	1	-1E+10	1	-1E+10	1	-1E+10	1	-1E+10	1
4901784	179	C	05/29/2020	10:49	-132.240	43.186	0	337.90	0	6.1730	0	36.5390	8	28.751	0	334.939	0	110.8	4	37.5	4	-1E+10	1	-1E+10	1	-1E+10	1	-1E+10	1	-1E+10	1	-1E+10	1
4901784	179	C	05/29/2020	10:49	-132.240	43.186	0	339.70	0	6.1710	0	36.5380	8	28.750	0	336.722	0	109.3	4	37.0	4	-1E+10	1	-1E+10	1	-1E+10	1	-1E+10	1	-1E+10	1	-1E+10	1
4901784	179	C	05/29/2020	10:49	-132.240	43.186	0	342.60	0	6.1540	0	36.5400	8	28.754	0	339.594	0	106.1	4	35.9	4	-1E+10	1	-1E+10	1	-1E+10	1	-1E+10	1	-1E+10	1	-1E+10	1
4901784	179	C	05/29/2020	10:49	-132.240	43.186	0	345.40	0	6.1210	0	36.5440	8	28.762	0	342.367	0	103.2	4	34.9	4	-1E+10	1	-1E+10	1	-1E+10	1	-1E+10	1	-1E+10	1	-1E+10	1
4901784	179	C	05/29/2020	10:49	-132.240	43.186	0	347.30	0	6.0880	0	36.5480	8	28.769	0	344.249	0	101.9	4	34.4	4	-1E+10	1	-1E+10	1	-1E+10	1	-1E+10	1	-1E+10	1	-1E+10	1
4901784	179	C	05/29/2020	10:49	-132.240	43.186	0	349.20	0	6.0780	0	36.5490	8	28.772	0	346.131	0	101.2	4	34.2	4	-1E+10	1	-1E+10	1	-1E+10	1	-1E+10	1	-1E+10	1	-1E+10	1
4901784	179	C	05/29/2020	10:49	-132.240	43.186	0	352.30	0	6.0500	0	36.5500	8	28.776	0	349.201	0	100.0	4	33.7	4	-1E+10	1	-1E+10	1	-1E+10	1	-1E+10	1	-1E+10	1	-1E+10	1
4901784	179	C	05/29/2020	10:49	-132.240	43.186	0	355.20	0	6.0160	0	36.5530	8	28.783	0	352.073	0	98.5	4	33.2	4	-1E+10	1	-1E+10	1	-1E+10	1	-1E+10	1	-1E+10	1	-1E+10	1
4901784	179	C	05/29/2020	10:49	-132.240	43.186	0	357.60	0	6.0000	0	36.5520	8	28.784	0	354.450	0	97.6	4	32.9	4	-1E+10	1	-1E+10	1	-1E+10	1	-1E+10	1	-1E+10	1	-1E+10	1
4901784	179	C	05/29/2020	10:49	-132.240	43.186	0	360.10	0	5.9900	0	36.5500	8	28.784	0	356.926	0	96.7	4	32.6	4	-1E+10	1	-1E+10	1	-1E+10	1	-1E+10	1	-1E+10	1	-1E+10	1
4901784	179	C	05/29/2020	10:49	-132.240	43.186	0	362.50	0	5.9430	0	36.5510	8	28.791	0	359.303	0	96.3	4	32.4	4	-1E+10	1	-1E+10	1	-1E+10	1	-1E+10	1	-1E+10	1	-1E+10	1
4901784	179	C	05/29/2020	10:49	-132.240	43.186	0	365.00	0	5.8980	0	36.5500	8	28.796	0	361.778	0	96.3	4	32.4	4	-1E+10	1	-1E+10	1	-1E+10	1	-1E+10	1	-1E+10	1	-1E+10	1
4901784	179	C	05/29/2020	10:49	-132.240	43.186	0	367.40	0	5.8110	0	36.5490	8	28.807	0	364.155	0	96.0	4	32.2	4	-1E+10	1	-1E+10	1	-1E+10	1	-1E+10	1	-1E+10	1	-1E+10	1
4901784	179	C	05/29/2020	10:49	-132.240	43.186	0	369.90	0	5.7570	0	36.5520	8	28.816	0	366.631	0	94.6	4	31.7	4	-1E+10	1	-1E+10	1	-1E+10	1	-1E+10	1	-1E+10	1	-1E+10	1
4901784	179	C	05/29/2020	10:49	-132.240	43.186	0	372.40	0	5.7290	0	36.5530	8	28.821	0	369.106	0	93.7	4	31.4	4	-1E+10	1	-1E+10	1	-1E+10	1	-1E+10	1	-1E+10	1	-1E+10	1
4901784	179	C	05/29/2020	10:49	-132.240	43.186	0	374.90	0	5.7030	0	36.5530	8	28.824	0	371.582	0	93.3	4	31.2	4	-1E+10	1	-1E+10	1	-1E+10	1	-1E+10	1	-1E+10	1	-1E+10	1
4901784	179	C	05/29/2020	10:49	-132.240	43.186	0	377.40	0	5.7010	0	36.5520	8	28.823	0	374.058	0	92.3	4	30.9	4	-1E+10	1	-1E+10	1	-1E+10	1	-1E+10	1	-1E+10	1	-1E+10	1
4901784	179	C	05/29/2020	10:49	-132.240	43.186	0	379.80	0	5.6850	0	36.5500	8	28.824	0	376.434	0	91.1	4	30.5	4	-1E+10	1	-1E+10	1	-1E+10	1	-1E+10	1	-1E+10	1	-1E+10	1
4901784	179	C	05/29/2020	10:49	-132.240	43.186	0	382.20	0	5.6060	0	36.5550	8	28.838	0	378.811	0	89.1	4	29.8	4	-1E+10	1	-1E+10	1	-1E+10	1	-1E+10	1	-1E+10	1	-1E+10	1
4901784	179	C	05/29/2020	10:49	-132.240	43.186	0	384.60	0	5.5980	0	36.5570	8	28.841	0	381.187	0	87.0	4	29.0	4	-1E+10	1	-1E+10	1	-1E+10	1	-1E+10	1	-1E+10	1	-1E+10	1
4901784	179	C	05/29/2020	10:49	-132.240	43.186	0	387.10	0	5.5690	0	36.5630	8	28.849	0	383.663	0	85.7	4	28.6	4	-1E+10	1	-1E+10	1	-1E+10	1	-1E+10	1	-1E+10	1	-1E+10	1
4901784	179	C	05/29/2020	10:49	-132.240	43.186	0	389.60	0	5.5420	0	36.5640	8	28.853	0	386.138	0	85.1	4	28.4	4	-1E+10	1	-1E+10	1	-1E+10	1	-1E+10	1	-1E+10	1	-1E+10	1
4901784	179	C	05/29/2020	10:49	-132.240	43.186	0	392.10	0	5.5280	0	36.5650	8	28.856	0	388.614	0	84.6	4	28.2	4	-1E+10	1	-1E+10	1	-1E+10	1	-1E+10	1	-1E+10	1	-1E+10	1
4901784	179	C	05/29/2020	10:49	-132.240	43.186	0	394.60	0	5.4950	0	36.5660	8	28.861	0	391.089	0	84.6	4	28.2	4	-1E+10	1	-1E+10	1	-1E+10	1	-1E+10	1	-1E+10	1	-1E+10	1
4901784	179	C	05/29/2020	10:49	-132.240	43.186	0	397.20	0	5.4550	0	36.5640	8	28.864	0	393.664	0	83.9	4	27.9	4	-1E+10	1	-1E+10	1	-1E+10	1	-1E+10	1	-1E+10	1	-1E+10	1
4901784	179	C	05/29/2020	10:49	-132.240	43.186	0	399.80	0	5.4350	0	36.5660	8	28.868	0	396.238	0	82.4	4	27.4	4	-1E+10	1	-1E+10	1	-1E+10	1	-1E+10	1	-1E+10	1	-1E+10	1
4901784	179	C	05/29/2020	10:49	-132.240	43.186	0	402.40	0	5.4310	0	36.5720	8	28.874	0	398.812	0	81.0	4	26.9	4	-1E+10	1	-1E+10	1	-1E+10	1	-1E+10	1	-1E+10	1	-1E+10	1
4901784	179	C	05/29/2020	10:49	-132.240	43.186	0	404.90	0	5.4280	0	36.5730	8	28.875	0	401.288	0	79.9	4	26.6	4	-1E+10	1	-1E+10	1	-1E+10	1	-1E+10	1	-1E+10	1	-1E+10	1
4901784	179	C	05/29/2020	10:49	-132.240	43.186	0	407.60	0	5.4440	0	36.5770	8	28.876	0	403.961	0	78.7	4	26.2	4	-1E+10	1	-1E+10	1	-1E+10	1	-1E+10	1	-1E+10	1	-1E+10	1
4901784	179	C	05/29/2020	10:49	-132.240	43.186	0	410.10	0	5.4510	0	36.5770	8	28.875	0	406.436	0	77.9	4	25.9	4	-1E+10	1	-1E+10	1	-1E+10	1	-1E+10	1	-1E+10	1	-1E+10	1
4901784	179	C	05/29/2020	10:49	-132.240	43.186	0	412.80	0	5.4240	0	36.5780	8	28.879	0	409.109	0	77.2	4	25.7	4	-1E+10	1	-1E+10	1	-1E+10	1	-1E+10	1	-1E+10	1	-1E+10	1
4901784	179	C	05/29/2020	10:49	-132.240	43.186	0	415.40	0	5.3880	0	36.5800	8	28.886	0	411.683	0	77.0	4	25.6	4	-1E+10	1	-1E+10	1	-1E+10	1	-1E+10	1	-1E+10	1	-1E+10	1
4901784	179	C	05/29/2020	10:49	-132.240	43.186	0	417.20	0	5.3670	0	36.5800	8	28.888	0	413.466	0	76.8	4	25.5	4	-1E+10	1	-1E+10	1	-1E+10	1	-1E+10	1	-1E+10	1	-1E+10	1
4901784	179	C	05/29/2020	10:49	-132.240	43.186	0	419.90	0	5.3480	0	36.5780	8	28.889	0	416.139	0	76.6	4	25.4	4	-1E+10	1	-1E+10	1	-1E+10	1	-1E+10	1	-1E+10	1	-1E+10	1
4901784	179	C	05/29/2020	10:49	-132.240	43.186	0	422.50	0	5.2890	0	36.5790	8	28.897	0	418.713	0	76.1	4	25.2	4	-1E+10	1	-1E+10	1	-1E+10	1	-1E+10	1	-1E+10	1	-1E+10	1
4901784	179	C	05/29/2020	10:49	-132.240	43.186	0	425.20	0	5.2790	0	36.5800	8	28.899	0	421.386	0	75.6	4	25.1	4	-1E+10	1	-1E+10	1	-1E+10	1	-1E+10	1	-1E+10	1	-1E+10	1
4901784	179	C	05/29/2020	10:49	-132.240	43.186	0	427.90	0	5.2430	0	36.5780	8	28.902	0	424.059	0	75.6	4	25.0	4	-1E+10	1	-1E+10	1	-1E+10	1	-1E+10	1	-1E+10	1	-1E+10	1
4901784	179	C	05/29/2020	10:49	-132.240	43.186	0	429.60	0	5.2060	0	36.5760	8	28.905	0	425.742	0	75.5	4	25.0	4	-1E+10	1	-1E+10	1	-1E+10	1	-1E+10	1	-1E+10	1	-1E+10	1
4901784	179	C	05/29/2020	10:49	-132.240	43.186	0	432.40	0	5.1470	0	36.5780	8	28.914	0	428.514	0	74.8	4	24.7	4	-1E+10	1	-1E+10	1	-1E+10	1	-1E+10	1	-1E+10	1	-1E+10	1
4901784	179	C	05/29/2020	10:49	-132.240	43.186	0	435.10	0	5.0990	0	36.5800	8	28.921	0	431.187	0	73.4	4	24.2	4	-1E+10	1	-1E+10	1	-1E+10	1	-1E+10	1	-1E+10	1	-1E+10	1
4901784	179	C	05/29/2020	10:49	-132.240	43.186	0	436.90	0	5.1010	0	36.5820	8	28.923	0	432.969	0	72.6	4	23.9	4	-1E+10	1	-1E+10	1	-1E+10	1	-1E+10	1	-1E+10	1	-1E+10	1
4901784	179	C	05/29/2020	10:49	-132.240	43.186	0	439.70	0	5.0760	0	36.5880	8	28.930	0	435.741	0	71.2	4	23.5	4	-1E+10	1	-1E+10	1	-1E+10	1	-1E+10	1	-1E+10	1	-1E+10	1
4901784	179	C	05/29/2020	10:49	-132.240	43.186	0	442.40	0	5.0720	0	36.5920	8	28.934	0	438.413	0	69.9	4	23.0	4	-1E+10	1	-1E+10	1	-1E+10	1	-1E+10	1	-1E+10	1	-1E+10	1
4901784	179	C	05/29/2020	10:49	-132.240	43.186	0	445.20	0	5.0730	0	36.5950	8	28.936	0	441.185	0	68.7	4	22.7	4	-1E+10	1	-1E+10	1	-1E+10	1	-1E+10	1	-1E+10	1	-1E+10	1
4901784	179	C	05/29/2020	10:49	-132.240	43.186	0	448.00	0	5.0780	0	36.5980	8	28.938	0	443.957	0	67.8	4	22.4	4	-1E+10	1	-1E+10	1	-1E+10	1	-1E+10	1	-1E+10	1	-1E+10	1
4901784	179	C	05/29/2020	10:49	-132.240	43.186	0	449.90	0	5.0910	0	36.5990	8	28.937	0	445.838	0	67.3	4	22.2	4	-1E+10	1	-1E+10	1	-1E+10	1	-1E+10	1	-1E+10	1	-1E+10	1
4901784	179	C	05/29/2020	10:49	-132.240	43.186	0	452.70	0	5.0310	0	36.6020	8	28.947	0	448.609	0	67.1	4	22.1	4	-1E+10	1	-1E+10	1	-1E+10	1	-1E+10	1	-1E+10	1	-1E+10	1
4901784	179	C	05/29/2020	10:49	-132.240	43.186	0	455.60	0	4.9410	0	36.5940	8	28.952	0	451.480	0	65.8	4	21.6	4	-1E+10	1	-1E+10	1	-1E+10	1	-1E+10	1	-1E+10	1	-1E+10	1
4901784	179	C	05/29/2020	10:49	-132.240	43.186	0	457.50	0	4.9710	0	36.6040	8	28.956	0	453.361	0	64.4	4	21.2	4	-1E+10	1	-1E+10	1	-1E+10	1	-1E+10	1	-1E+10	1	-1E+10	1
4901784	179	C	05/29/2020	10:49	-132.240	43.186	0	459.40	0	4.9340	0	36.6040	8	28.960	0	455.242	0	63.6	4	20.9	4	-1E+10	1	-1E+10	1	-1E+10	1	-1E+10	1	-1E+10	1	-1E+10	1
4901784	179	C	05/29/2020	10:49	-132.240	43.186	0	462.30	0	4.9400	0	36.6130	8	28.967	0	458.112	0	62.0	4	20.4	4	-1E+10	1	-1E+10	1	-1E+10	1	-1E+10	1	-1E+10	1	-1E+10	1
4901784	179	C	05/29/2020	10:49	-132.240	43.186	0	465.20	0	4.9380	0	36.6180	8	28.971	0	460.983	0	60.9	4	20.0	4	-1E+10	1	-1E+10	1	-1E+10	1	-1E+10	1	-1E+10	1	-1E+10	1
4901784	179	C	05/29/2020	10:49	-132.240	43.186	0	467.60	0	4.9380	0	36.6190	8	28.972	0	463.358	0	60.4	4	19.8	4	-1E+10	1	-1E+10	1	-1E+10	1	-1E+10	1	-1E+10	1	-1E+10	1
4901784	179	C	05/29/2020	10:49	-132.240	43.186	0	470.40	0	4.9080	0	36.6240	8	28.979	0	466.130	0	59.6	4	19.6	4	-1E+10	1	-1E+10	1	-1E+10	1	-1E+10	1	-1E+10	1	-1E+10	1
4901784	179	C	05/29/2020	10:49	-132.240	43.186	0	472.80	0	4.9050	0	36.6240	8	28.980	0	468.505	0	58.8	4	19.3	4	-1E+10	1	-1E+10	1	-1E+10	1	-1E+10	1	-1E+10	1	-1E+10	1
4901784	179	C	05/29/2020	10:49	-132.240	43.186	0	475.30	0	4.9030	0	36.6290	8	28.984	0	470.980	0	58.1	4	19.1	4	-1E+10	1	-1E+10	1	-1E+10	1	-1E+10	1	-1E+10	1	-1E+10	1
4901784	179	C	05/29/2020	10:49	-132.240	43.186	0	477.70	0	4.8880	0	36.6310	8	28.987	0	473.355	0	57.6	4	18.9	4	-1E+10	1	-1E+10	1	-1E+10	1	-1E+10	1	-1E+10	1	-1E+10	1
4901784	179	C	05/29/2020	10:49	-132.240	43.186	0	480.20	0	4.8790	0	36.6300	8	28.988	0	475.829	0	57.1	4	18.7	4	-1E+10	1	-1E+10	1	-1E+10	1	-1E+10	1	-1E+10	1	-1E+10	1
4901784	179	C	05/29/2020	10:49	-132.240	43.186	0	482.80	0	4.8580	0	36.6340	8	28.993	0	478.403	0	56.2	4	18.4	4	-1E+10	1	-1E+10	1	-1E+10	1	-1E+10	1	-1E+10	1	-1E+10	1
4901784	179	C	05/29/2020	10:49	-132.240	43.186	0	485.30	0	4.8590	0	36.6360	8	28.995	0	480.877	0	55.6	4	18.2	4	-1E+10	1	-1E+10	1	-1E+10	1	-1E+10	1	-1E+10	1	-1E+10	1
4901784	179	C	05/29/2020	10:49	-132.240	43.186	0	487.80	0	4.8330	0	36.6380	8	29.000	0	483.351	0	55.0	4	18.0	4	-1E+10	1	-1E+10	1	-1E+10	1	-1E+10	1	-1E+10	1	-1E+10	1
4901784	179	C	05/29/2020	10:49	-132.240	43.186	0	490.30	0	4.8170	0	36.6420	8	29.005	0	485.826	0	54.6	4	17.9	4	-1E+10	1	-1E+10	1	-1E+10	1	-1E+10	1	-1E+10	1	-1E+10	1
4901784	179	C	05/29/2020	10:49	-132.240	43.186	0	492.80	0	4.8020	0	36.6410	8	29.006	0	488.300	0	54.4	4	17.8	4	-1E+10	1	-1E+10	1	-1E+10	1	-1E+10	1	-1E+10	1	-1E+10	1
4901784	179	C	05/29/2020	10:49	-132.240	43.186	0	495.30	0	4.7860	0	36.6430	8	29.009	0	490.774	0	53.9	4	17.7	4	-1E+10	1	-1E+10	1	-1E+10	1	-1E+10	1	-1E+10	1	-1E+10	1
4901784	179	C	05/29/2020	10:49	-132.240	43.186	0	497.80	0	4.7730	0	36.6440	8	29.012	0	493.248	0	53.2	4	17.4	4	-1E+10	1	-1E+10	1	-1E+10	1	-1E+10	1	-1E+10	1	-1E+10	1
4901784	179	C	05/29/2020	10:49	-132.240	43.186	0	500.40	0	4.7740	0	36.6470	8	29.014	0	495.821	0	52.5	4	17.2	4	-1E+10	1	-1E+10	1	-1E+10	1	-1E+10	1	-1E+10	1	-1E+10	1
4901784	179	C	05/29/2020	10:49	-132.240	43.186	0	504.60	0	4.7600	0	36.6510	8	29.019	0	499.978	0	51.6	4	16.9	4	-1E+10	1	-1E+10	1	-1E+10	1	-1E+10	1	-1E+10	1	-1E+10	1
4901784	179	C	05/29/2020	10:49	-132.240	43.186	0	509.90	0	4.7390	0	36.6540	8	29.024	0	505.223	0	50.4	4	16.5	4	-1E+10	1	-1E+10	1	-1E+10	1	-1E+10	1	-1E+10	1	-1E+10	1
4901784	179	C	05/29/2020	10:49	-132.240	43.186	0	515.20	0	4.7060	0	36.6610	8	29.033	0	510.468	0	49.0	4	16.0	4	-1E+10	1	-1E+10	1	-1E+10	1	-1E+10	1	-1E+10	1	-1E+10	1
4901784	179	C	05/29/2020	10:49	-132.240	43.186	0	520.40	0	4.6910	0	36.6650	8	29.038	0	515.614	0	48.1	4	15.7	4	-1E+10	1	-1E+10	1	-1E+10	1	-1E+10	1	-1E+10	1	-1E+10	1
4901784	179	C	05/29/2020	10:49	-132.240	43.186	0	524.90	0	4.6710	0	36.6670	8	29.042	0	520.067	0	46.9	4	15.3	4	-1E+10	1	-1E+10	1	-1E+10	1	-1E+10	1	-1E+10	1	-1E+10	1
4901784	179	C	05/29/2020	10:49	-132.240	43.186	0	529.40	0	4.6810	0	36.6730	8	29.046	0	524.520	0	45.0	4	14.7	4	-1E+10	1	-1E+10	1	-1E+10	1	-1E+10	1	-1E+10	1	-1E+10	1
4901784	179	C	05/29/2020	10:49	-132.240	43.186	0	534.90	0	4.6580	0	36.6830	8	29.056	0	529.962	0	43.6	4	14.2	4	-1E+10	1	-1E+10	1	-1E+10	1	-1E+10	1	-1E+10	1	-1E+10	1
4901784	179	C	05/29/2020	10:49	-132.240	43.186	0	540.40	0	4.6530	0	36.6880	8	29.061	0	535.404	0	42.3	4	13.8	4	-1E+10	1	-1E+10	1	-1E+10	1	-1E+10	1	-1E+10	1	-1E+10	1
4901784	179	C	05/29/2020	10:49	-132.240	43.186	0	544.90	0	4.6520	0	36.6930	8	29.065	0	539.857	0	40.8	4	13.3	4	-1E+10	1	-1E+10	1	-1E+10	1	-1E+10	1	-1E+10	1	-1E+10	1
4901784	179	C	05/29/2020	10:49	-132.240	43.186	0	549.40	0	4.6510	0	36.7000	8	29.071	0	544.309	0	39.5	4	12.9	4	-1E+10	1	-1E+10	1	-1E+10	1	-1E+10	1	-1E+10	1	-1E+10	1
4901784	179	C	05/29/2020	10:49	-132.240	43.186	0	555.00	0	4.6530	0	36.7050	8	29.075	0	549.850	0	38.0	4	12.4	4	-1E+10	1	-1E+10	1	-1E+10	1	-1E+10	1	-1E+10	1	-1E+10	1
4901784	179	C	05/29/2020	10:49	-132.240	43.186	0	560.60	0	4.6310	0	36.7130	8	29.084	0	555.390	0	36.8	4	12.0	4	-1E+10	1	-1E+10	1	-1E+10	1	-1E+10	1	-1E+10	1	-1E+10	1
4901784	179	C	05/29/2020	10:49	-132.240	43.186	0	565.20	0	4.6170	0	36.7180	8	29.089	0	559.941	0	35.9	4	11.7	4	-1E+10	1	-1E+10	1	-1E+10	1	-1E+10	1	-1E+10	1	-1E+10	1
4901784	179	C	05/29/2020	10:49	-132.240	43.186	0	569.80	0	4.6080	0	36.7230	8	29.094	0	564.492	0	35.0	4	11.4	4	-1E+10	1	-1E+10	1	-1E+10	1	-1E+10	1	-1E+10	1	-1E+10	1
4901784	179	C	05/29/2020	10:49	-132.240	43.186	0	575.30	0	4.6100	0	36.7280	8	29.098	0	569.934	0	33.7	4	11.0	4	-1E+10	1	-1E+10	1	-1E+10	1	-1E+10	1	-1E+10	1	-1E+10	1
4901784	179	C	05/29/2020	10:49	-132.240	43.186	0	580.00	0	4.6060	0	36.7330	8	29.103	0	574.583	0	32.5	4	10.6	4	-1E+10	1	-1E+10	1	-1E+10	1	-1E+10	1	-1E+10	1	-1E+10	1
4901784	179	C	05/29/2020	10:49	-132.240	43.186	0	584.70	0	4.6030	0	36.7430	8	29.111	0	579.233	0	30.9	4	10.1	4	-1E+10	1	-1E+10	1	-1E+10	1	-1E+10	1	-1E+10	1	-1E+10	1
4901784	179	C	05/29/2020	10:49	-132.240	43.186	0	590.30	0	4.6190	0	36.7530	8	29.117	0	584.773	0	29.9	4	9.8	4	-1E+10	1	-1E+10	1	-1E+10	1	-1E+10	1	-1E+10	1	-1E+10	1
4901784	179	C	05/29/2020	10:49	-132.240	43.186	0	594.90	0	4.5930	0	36.7530	8	29.120	0	589.323	0	29.4	4	9.6	4	-1E+10	1	-1E+10	1	-1E+10	1	-1E+10	1	-1E+10	1	-1E+10	1
4901784	179	C	05/29/2020	10:49	-132.240	43.186	0	599.60	0	4.5770	0	36.7590	8	29.127	0	593.972	0	28.3	4	9.2	4	-1E+10	1	-1E+10	1	-1E+10	1	-1E+10	1	-1E+10	1	-1E+10	1
4901784	179	C	05/29/2020	10:49	-132.240	43.186	0	605.00	0	4.6070	0	36.7690	8	29.131	0	599.314	0	27.3	4	8.9	4	-1E+10	1	-1E+10	1	-1E+10	1	-1E+10	1	-1E+10	1	-1E+10	1
4901784	179	C	05/29/2020	10:49	-132.240	43.186	0	610.50	0	4.6000	0	36.7720	8	29.135	0	604.754	0	26.7	4	8.7	4	-1E+10	1	-1E+10	1	-1E+10	1	-1E+10	1	-1E+10	1	-1E+10	1
4901784	179	C	05/29/2020	10:49	-132.240	43.186	0	615.20	0	4.5770	0	36.7730	8	29.138	0	609.403	0	26.4	4	8.6	4	-1E+10	1	-1E+10	1	-1E+10	1	-1E+10	1	-1E+10	1	-1E+10	1
4901784	179	C	05/29/2020	10:49	-132.240	43.186	0	619.80	0	4.5260	0	36.7750	8	29.146	0	613.953	0	25.7	4	8.4	4	-1E+10	1	-1E+10	1	-1E+10	1	-1E+10	1	-1E+10	1	-1E+10	1
4901784	179	C	05/29/2020	10:49	-132.240	43.186	0	625.30	0	4.5550	0	36.7850	8	29.150	0	619.393	0	24.6	4	8.0	4	-1E+10	1	-1E+10	1	-1E+10	1	-1E+10	1	-1E+10	1	-1E+10	1
4901784	179	C	05/29/2020	10:49	-132.240	43.186	0	629.90	0	4.5470	0	36.7880	8	29.154	0	623.942	0	24.1	4	7.9	4	-1E+10	1	-1E+10	1	-1E+10	1	-1E+10	1	-1E+10	1	-1E+10	1
4901784	179	C	05/29/2020	10:49	-132.240	43.186	0	634.40	0	4.5230	0	36.7910	8	29.159	0	628.393	0	23.4	4	7.6	4	-1E+10	1	-1E+10	1	-1E+10	1	-1E+10	1	-1E+10	1	-1E+10	1
4901784	179	C	05/29/2020	10:49	-132.240	43.186	0	639.80	0	4.4980	0	36.7980	8	29.167	0	633.734	0	22.6	4	7.4	4	-1E+10	1	-1E+10	1	-1E+10	1	-1E+10	1	-1E+10	1	-1E+10	1
4901784	179	C	05/29/2020	10:49	-132.240	43.186	0	645.30	0	4.4710	0	36.8050	8	29.176	0	639.173	0	21.9	4	7.1	4	-1E+10	1	-1E+10	1	-1E+10	1	-1E+10	1	-1E+10	1	-1E+10	1
4901784	179	C	05/29/2020	10:49	-132.240	43.186	0	650.60	0	4.4490	0	36.8080	8	29.181	0	644.415	0	21.4	4	7.0	4	-1E+10	1	-1E+10	1	-1E+10	1	-1E+10	1	-1E+10	1	-1E+10	1
4901784	179	C	05/29/2020	10:49	-132.240	43.186	0	655.10	0	4.4220	0	36.8120	8	29.187	0	648.865	0	20.8	4	6.8	4	-1E+10	1	-1E+10	1	-1E+10	1	-1E+10	1	-1E+10	1	-1E+10	1
4901784	179	C	05/29/2020	10:49	-132.240	43.186	0	659.50	0	4.4200	0	36.8170	8	29.192	0	653.216	0	20.1	4	6.5	4	-1E+10	1	-1E+10	1	-1E+10	1	-1E+10	1	-1E+10	1	-1E+10	1
4901784	179	C	05/29/2020	10:49	-132.240	43.186	0	664.90	0	4.4090	0	36.8240	8	29.198	0	658.556	0	19.5	4	6.3	4	-1E+10	1	-1E+10	1	-1E+10	1	-1E+10	1	-1E+10	1	-1E+10	1
4901784	179	C	05/29/2020	10:49	-132.240	43.186	0	670.30	0	4.3940	0	36.8280	8	29.203	0	663.896	0	19.0	4	6.2	4	-1E+10	1	-1E+10	1	-1E+10	1	-1E+10	1	-1E+10	1	-1E+10	1
4901784	179	C	05/29/2020	10:49	-132.240	43.186	0	675.50	0	4.3630	0	36.8320	8	29.210	0	669.038	0	18.5	4	6.0	4	-1E+10	1	-1E+10	1	-1E+10	1	-1E+10	1	-1E+10	1	-1E+10	1
4901784	179	C	05/29/2020	10:49	-132.240	43.186	0	680.00	0	4.3330	0	36.8390	8	29.219	0	673.488	0	18.1	4	5.9	4	-1E+10	1	-1E+10	1	-1E+10	1	-1E+10	1	-1E+10	1	-1E+10	1
4901784	179	C	05/29/2020	10:49	-132.240	43.186	0	684.40	0	4.3230	0	36.8410	8	29.222	0	677.838	0	17.9	4	5.8	4	-1E+10	1	-1E+10	1	-1E+10	1	-1E+10	1	-1E+10	1	-1E+10	1
4901784	179	C	05/29/2020	10:49	-132.240	43.186	0	689.90	0	4.3220	0	36.8430	8	29.224	0	683.277	0	17.6	4	5.7	4	-1E+10	1	-1E+10	1	-1E+10	1	-1E+10	1	-1E+10	1	-1E+10	1
4901784	179	C	05/29/2020	10:49	-132.240	43.186	0	695.30	0	4.3050	0	36.8460	8	29.228	0	688.616	0	17.2	4	5.6	4	-1E+10	1	-1E+10	1	-1E+10	1	-1E+10	1	-1E+10	1	-1E+10	1
4901784	179	C	05/29/2020	10:49	-132.240	43.186	0	700.60	0	4.2660	0	36.8490	8	29.235	0	693.856	0	16.8	4	5.4	4	-1E+10	1	-1E+10	1	-1E+10	1	-1E+10	1	-1E+10	1	-1E+10	1
4901784	179	C	05/29/2020	10:49	-132.240	43.186	0	705.10	0	4.2350	0	36.8510	8	29.240	0	698.305	0	16.5	4	5.3	4	-1E+10	1	-1E+10	1	-1E+10	1	-1E+10	1	-1E+10	1	-1E+10	1
4901784	179	C	05/29/2020	10:49	-132.240	43.186	0	709.60	0	4.2060	0	36.8560	8	29.247	0	702.754	0	16.1	4	5.2	4	-1E+10	1	-1E+10	1	-1E+10	1	-1E+10	1	-1E+10	1	-1E+10	1
4901784	179	C	05/29/2020	10:49	-132.240	43.186	0	715.00	0	4.1890	0	36.8600	8	29.252	0	708.093	0	15.7	4	5.1	4	-1E+10	1	-1E+10	1	-1E+10	1	-1E+10	1	-1E+10	1	-1E+10	1
4901784	179	C	05/29/2020	10:49	-132.240	43.186	0	720.50	0	4.1700	0	36.8670	8	29.260	0	713.530	0	15.2	4	4.9	4	-1E+10	1	-1E+10	1	-1E+10	1	-1E+10	1	-1E+10	1	-1E+10	1
4901784	179	C	05/29/2020	10:49	-132.240	43.186	0	725.10	0	4.1590	0	36.8720	8	29.265	0	718.078	0	15.0	4	4.8	4	-1E+10	1	-1E+10	1	-1E+10	1	-1E+10	1	-1E+10	1	-1E+10	1
4901784	179	C	05/29/2020	10:49	-132.240	43.186	0	729.60	0	4.1480	0	36.8760	8	29.270	0	722.527	0	14.7	4	4.8	4	-1E+10	1	-1E+10	1	-1E+10	1	-1E+10	1	-1E+10	1	-1E+10	1
4901784	179	C	05/29/2020	10:49	-132.240	43.186	0	735.10	0	4.1330	0	36.8810	8	29.275	0	727.964	0	14.4	4	4.7	4	-1E+10	1	-1E+10	1	-1E+10	1	-1E+10	1	-1E+10	1	-1E+10	1
4901784	179	C	05/29/2020	10:49	-132.240	43.186	0	740.60	0	4.1250	0	36.8850	8	29.279	0	733.401	0	14.2	4	4.6	4	-1E+10	1	-1E+10	1	-1E+10	1	-1E+10	1	-1E+10	1	-1E+10	1
4901784	179	C	05/29/2020	10:49	-132.240	43.186	0	745.20	0	4.1150	0	36.8890	8	29.284	0	737.948	0	14.0	4	4.5	4	-1E+10	1	-1E+10	1	-1E+10	1	-1E+10	1	-1E+10	1	-1E+10	1
4901784	179	C	05/29/2020	10:49	-132.240	43.186	0	749.90	0	4.1060	0	36.8930	8	29.288	0	742.594	0	13.8	4	4.5	4	-1E+10	1	-1E+10	1	-1E+10	1	-1E+10	1	-1E+10	1	-1E+10	1
4901784	179	C	05/29/2020	10:49	-132.240	43.186	0	755.40	0	4.1000	0	36.8940	8	29.289	0	748.030	0	13.7	4	4.4	4	-1E+10	1	-1E+10	1	-1E+10	1	-1E+10	1	-1E+10	1	-1E+10	1
4901784	179	C	05/29/2020	10:49	-132.240	43.186	0	760.30	0	4.0910	0	36.8970	8	29.293	0	752.874	0	13.5	4	4.3	4	-1E+10	1	-1E+10	1	-1E+10	1	-1E+10	1	-1E+10	1	-1E+10	1
4901784	179	C	05/29/2020	10:49	-132.240	43.186	0	764.80	0	4.0790	0	36.9010	8	29.297	0	757.322	0	13.1	4	4.2	4	-1E+10	1	-1E+10	1	-1E+10	1	-1E+10	1	-1E+10	1	-1E+10	1
4901784	179	C	05/29/2020	10:49	-132.240	43.186	0	769.70	0	4.0540	0	36.9100	8	29.307	0	762.165	0	12.8	4	4.1	4	-1E+10	1	-1E+10	1	-1E+10	1	-1E+10	1	-1E+10	1	-1E+10	1
4901784	179	C	05/29/2020	10:49	-132.240	43.186	0	774.60	0	4.0400	0	36.9140	8	29.312	0	767.008	0	12.7	4	4.1	4	-1E+10	1	-1E+10	1	-1E+10	1	-1E+10	1	-1E+10	1	-1E+10	1
4901784	179	C	05/29/2020	10:49	-132.240	43.186	0	779.50	0	4.0200	0	36.9180	8	29.318	0	771.851	0	12.6	4	4.0	4	-1E+10	1	-1E+10	1	-1E+10	1	-1E+10	1	-1E+10	1	-1E+10	1
4901784	179	C	05/29/2020	10:49	-132.240	43.186	0	784.40	0	4.0030	0	36.9210	8	29.322	0	776.694	0	12.5	4	4.0	4	-1E+10	1	-1E+10	1	-1E+10	1	-1E+10	1	-1E+10	1	-1E+10	1
4901784	179	C	05/29/2020	10:49	-132.240	43.186	0	789.30	0	3.9990	0	36.9230	8	29.324	0	781.536	0	12.4	4	4.0	4	-1E+10	1	-1E+10	1	-1E+10	1	-1E+10	1	-1E+10	1	-1E+10	1
4901784	179	C	05/29/2020	10:49	-132.240	43.186	0	794.20	0	3.9890	0	36.9250	8	29.327	0	786.379	0	12.3	4	4.0	4	-1E+10	1	-1E+10	1	-1E+10	1	-1E+10	1	-1E+10	1	-1E+10	1
4901784	179	C	05/29/2020	10:49	-132.240	43.186	0	799.20	0	3.9810	0	36.9280	8	29.330	0	791.320	0	12.1	4	3.9	4	-1E+10	1	-1E+10	1	-1E+10	1	-1E+10	1	-1E+10	1	-1E+10	1
4901784	179	C	05/29/2020	10:49	-132.240	43.186	0	804.30	0	3.9680	0	36.9350	8	29.337	0	796.360	0	11.9	4	3.8	4	-1E+10	1	-1E+10	1	-1E+10	1	-1E+10	1	-1E+10	1	-1E+10	1
4901784	179	C	05/29/2020	10:49	-132.240	43.186	0	809.40	0	3.9620	0	36.9380	8	29.340	0	801.400	0	11.8	4	3.8	4	-1E+10	1	-1E+10	1	-1E+10	1	-1E+10	1	-1E+10	1	-1E+10	1
4901784	179	C	05/29/2020	10:49	-132.240	43.186	0	814.50	0	3.9510	0	36.9410	8	29.344	0	806.440	0	11.6	4	3.7	4	-1E+10	1	-1E+10	1	-1E+10	1	-1E+10	1	-1E+10	1	-1E+10	1
4901784	179	C	05/29/2020	10:49	-132.240	43.186	0	819.80	0	3.9370	0	36.9470	8	29.350	0	811.677	0	11.5	4	3.7	4	-1E+10	1	-1E+10	1	-1E+10	1	-1E+10	1	-1E+10	1	-1E+10	1
4901784	179	C	05/29/2020	10:49	-132.240	43.186	0	825.10	0	3.9240	0	36.9520	8	29.355	0	816.914	0	11.3	4	3.6	4	-1E+10	1	-1E+10	1	-1E+10	1	-1E+10	1	-1E+10	1	-1E+10	1
4901784	179	C	05/29/2020	10:49	-132.240	43.186	0	830.40	0	3.9140	0	36.9560	8	29.360	0	822.151	0	11.2	4	3.6	4	-1E+10	1	-1E+10	1	-1E+10	1	-1E+10	1	-1E+10	1	-1E+10	1
4901784	179	C	05/29/2020	10:49	-132.240	43.186	0	834.80	0	3.9050	0	36.9590	8	29.363	0	826.499	0	11.1	4	3.6	4	-1E+10	1	-1E+10	1	-1E+10	1	-1E+10	1	-1E+10	1	-1E+10	1
4901784	179	C	05/29/2020	10:49	-132.240	43.186	0	840.00	0	3.8940	0	36.9620	8	29.367	0	831.637	0	11.0	4	3.5	4	-1E+10	1	-1E+10	1	-1E+10	1	-1E+10	1	-1E+10	1	-1E+10	1
4901784	179	C	05/29/2020	10:49	-132.240	43.186	0	844.80	0	3.8700	0	36.9650	8	29.372	0	836.379	0	10.9	4	3.5	4	-1E+10	1	-1E+10	1	-1E+10	1	-1E+10	1	-1E+10	1	-1E+10	1
4901784	179	C	05/29/2020	10:49	-132.240	43.186	0	849.40	0	3.8500	0	36.9710	8	29.379	0	840.924	0	10.8	4	3.5	4	-1E+10	1	-1E+10	1	-1E+10	1	-1E+10	1	-1E+10	1	-1E+10	1
4901784	179	C	05/29/2020	10:49	-132.240	43.186	0	854.80	0	3.8320	0	36.9740	8	29.383	0	846.259	0	10.8	4	3.5	4	-1E+10	1	-1E+10	1	-1E+10	1	-1E+10	1	-1E+10	1	-1E+10	1
4901784	179	C	05/29/2020	10:49	-132.240	43.186	0	860.40	0	3.8260	0	36.9790	8	29.388	0	851.792	0	10.7	4	3.4	4	-1E+10	1	-1E+10	1	-1E+10	1	-1E+10	1	-1E+10	1	-1E+10	1
4901784	179	C	05/29/2020	10:49	-132.240	43.186	0	865.20	0	3.8330	0	36.9830	8	29.390	0	856.534	0	10.5	4	3.4	4	-1E+10	1	-1E+10	1	-1E+10	1	-1E+10	1	-1E+10	1	-1E+10	1
4901784	179	C	05/29/2020	10:49	-132.240	43.186	0	870.10	0	3.8400	0	36.9890	8	29.394	0	861.375	0	10.5	4	3.4	4	-1E+10	1	-1E+10	1	-1E+10	1	-1E+10	1	-1E+10	1	-1E+10	1
4901784	179	C	05/29/2020	10:49	-132.240	43.186	0	875.00	0	3.8360	0	36.9910	8	29.396	0	866.216	0	10.4	4	3.3	4	-1E+10	1	-1E+10	1	-1E+10	1	-1E+10	1	-1E+10	1	-1E+10	1
4901784	179	C	05/29/2020	10:49	-132.240	43.186	0	880.00	0	3.8300	0	36.9940	8	29.400	0	871.155	0	10.4	4	3.3	4	-1E+10	1	-1E+10	1	-1E+10	1	-1E+10	1	-1E+10	1	-1E+10	1
4901784	179	C	05/29/2020	10:49	-132.240	43.186	0	885.00	0	3.8240	0	36.9960	8	29.402	0	876.094	0	10.3	4	3.3	4	-1E+10	1	-1E+10	1	-1E+10	1	-1E+10	1	-1E+10	1	-1E+10	1
4901784	179	C	05/29/2020	10:49	-132.240	43.186	0	890.00	0	3.7990	0	36.9970	8	29.405	0	881.034	0	10.3	4	3.3	4	-1E+10	1	-1E+10	1	-1E+10	1	-1E+10	1	-1E+10	1	-1E+10	1
4901784	179	C	05/29/2020	10:49	-132.240	43.186	0	894.90	0	3.8010	0	37.0000	8	29.408	0	885.874	0	10.3	4	3.3	4	-1E+10	1	-1E+10	1	-1E+10	1	-1E+10	1	-1E+10	1	-1E+10	1
4901784	179	C	05/29/2020	10:49	-132.240	43.186	0	900.00	0	3.7980	0	37.0020	8	29.410	0	890.911	0	10.2	4	3.3	4	-1E+10	1	-1E+10	1	-1E+10	1	-1E+10	1	-1E+10	1	-1E+10	1
4901784	179	C	05/29/2020	10:49	-132.240	43.186	0	905.10	0	3.7880	0	37.0070	8	29.415	0	895.949	0	10.2	4	3.3	4	-1E+10	1	-1E+10	1	-1E+10	1	-1E+10	1	-1E+10	1	-1E+10	1
4901784	179	C	05/29/2020	10:49	-132.240	43.186	0	910.10	0	3.7750	0	37.0100	8	29.418	0	900.888	0	10.1	4	3.2	4	-1E+10	1	-1E+10	1	-1E+10	1	-1E+10	1	-1E+10	1	-1E+10	1
4901784	179	C	05/29/2020	10:49	-132.240	43.186	0	915.20	0	3.7570	0	37.0110	8	29.421	0	905.925	0	10.1	4	3.2	4	-1E+10	1	-1E+10	1	-1E+10	1	-1E+10	1	-1E+10	1	-1E+10	1
4901784	179	C	05/29/2020	10:49	-132.240	43.186	0	920.30	0	3.7180	0	37.0150	8	29.429	0	910.962	0	10.1	4	3.2	4	-1E+10	1	-1E+10	1	-1E+10	1	-1E+10	1	-1E+10	1	-1E+10	1
4901784	179	C	05/29/2020	10:49	-132.240	43.186	0	925.30	0	3.7190	0	37.0210	8	29.433	0	915.901	0	10.0	4	3.2	4	-1E+10	1	-1E+10	1	-1E+10	1	-1E+10	1	-1E+10	1	-1E+10	1
4901784	179	C	05/29/2020	10:49	-132.240	43.186	0	930.40	0	3.7150	0	37.0250	8	29.437	0	920.938	0	10.0	4	3.2	4	-1E+10	1	-1E+10	1	-1E+10	1	-1E+10	1	-1E+10	1	-1E+10	1
4901784	179	C	05/29/2020	10:49	-132.240	43.186	0	935.60	0	3.6910	0	37.0280	8	29.442	0	926.073	0	10.0	4	3.2	4	-1E+10	1	-1E+10	1	-1E+10	1	-1E+10	1	-1E+10	1	-1E+10	1
4901784	179	C	05/29/2020	10:49	-132.240	43.186	0	940.70	0	3.6740	0	37.0290	8	29.445	0	931.110	0	10.0	4	3.2	4	-1E+10	1	-1E+10	1	-1E+10	1	-1E+10	1	-1E+10	1	-1E+10	1
4901784	179	C	05/29/2020	10:49	-132.240	43.186	0	945.00	0	3.6580	0	37.0330	8	29.449	0	935.357	0	10.0	4	3.2	4	-1E+10	1	-1E+10	1	-1E+10	1	-1E+10	1	-1E+10	1	-1E+10	1
4901784	179	C	05/29/2020	10:49	-132.240	43.186	0	949.30	0	3.6510	0	37.0340	8	29.451	0	939.603	0	10.0	4	3.2	4	-1E+10	1	-1E+10	1	-1E+10	1	-1E+10	1	-1E+10	1	-1E+10	1
4901784	179	C	05/29/2020	10:49	-132.240	43.186	0	954.50	0	3.6310	0	37.0390	8	29.457	0	944.738	0	10.0	4	3.2	4	-1E+10	1	-1E+10	1	-1E+10	1	-1E+10	1	-1E+10	1	-1E+10	1
4901784	179	C	05/29/2020	10:49	-132.240	43.186	0	959.80	0	3.6340	0	37.0440	8	29.461	0	949.972	0	10.0	4	3.2	4	-1E+10	1	-1E+10	1	-1E+10	1	-1E+10	1	-1E+10	1	-1E+10	1
4901784	179	C	05/29/2020	10:49	-132.240	43.186	0	965.00	0	3.6290	0	37.0460	8	29.463	0	955.107	0	10.0	4	3.2	4	-1E+10	1	-1E+10	1	-1E+10	1	-1E+10	1	-1E+10	1	-1E+10	1
4901784	179	C	05/29/2020	10:49	-132.240	43.186	0	970.20	0	3.6130	0	37.0500	8	29.468	0	960.242	0	10.1	4	3.2	4	-1E+10	1	-1E+10	1	-1E+10	1	-1E+10	1	-1E+10	1	-1E+10	1
4901784	179	C	05/29/2020	10:49	-132.240	43.186	0	975.40	0	3.6050	0	37.0530	8	29.471	0	965.376	0	10.1	4	3.2	4	-1E+10	1	-1E+10	1	-1E+10	1	-1E+10	1	-1E+10	1	-1E+10	1
4901784	179	C	05/29/2020	10:49	-132.240	43.186	0	980.70	0	3.5900	0	37.0560	8	29.475	0	970.610	0	10.1	4	3.2	4	-1E+10	1	-1E+10	1	-1E+10	1	-1E+10	1	-1E+10	1	-1E+10	1
4901784	179	C	05/29/2020	10:49	-132.240	43.186	0	985.10	0	3.5690	0	37.0580	8	29.479	0	974.954	0	10.1	4	3.2	4	-1E+10	1	-1E+10	1	-1E+10	1	-1E+10	1	-1E+10	1	-1E+10	1
4901784	179	C	05/29/2020	10:49	-132.240	43.186	0	989.60	0	3.5580	0	37.0610	8	29.483	0	979.397	0	10.2	4	3.2	4	-1E+10	1	-1E+10	1	-1E+10	1	-1E+10	1	-1E+10	1	-1E+10	1
4901784	179	C	05/29/2020	10:49	-132.240	43.186	0	994.90	0	3.5410	0	37.0650	8	29.488	0	984.630	0	10.2	4	3.3	4	-1E+10	1	-1E+10	1	-1E+10	1	-1E+10	1	-1E+10	1	-1E+10	1
4901784	179	C	05/29/2020	10:49	-132.240	43.186	0	1000.30	0	3.5310	0	37.0680	8	29.491	0	989.962	0	10.2	4	3.3	4	-1E+10	1	-1E+10	1	-1E+10	1	-1E+10	1	-1E+10	1	-1E+10	1
4901784	179	C	05/29/2020	10:49	-132.240	43.186	0	1004.90	0	3.5280	0	37.0710	8	29.494	0	994.503	0	10.3	4	3.3	4	-1E+10	1	-1E+10	1	-1E+10	1	-1E+10	1	-1E+10	1	-1E+10	1
4901784	179	C	05/29/2020	10:49	-132.240	43.186	0	1009.40	0	3.5250	0	37.0720	8	29.495	0	998.946	0	10.3	4	3.3	4	-1E+10	1	-1E+10	1	-1E+10	1	-1E+10	1	-1E+10	1	-1E+10	1
4901784	179	C	05/29/2020	10:49	-132.240	43.186	0	1014.90	0	3.5220	0	37.0730	8	29.496	0	1004.376	0	10.3	4	3.3	4	-1E+10	1	-1E+10	1	-1E+10	1	-1E+10	1	-1E+10	1	-1E+10	1
4901784	179	C	05/29/2020	10:49	-132.240	43.186	0	1020.40	0	3.5100	0	37.0750	8	29.499	0	1009.805	0	10.3	4	3.3	4	-1E+10	1	-1E+10	1	-1E+10	1	-1E+10	1	-1E+10	1	-1E+10	1
4901784	179	C	05/29/2020	10:49	-132.240	43.186	0	1025.10	0	3.5030	0	37.0770	8	29.501	0	1014.445	0	10.4	4	3.3	4	-1E+10	1	-1E+10	1	-1E+10	1	-1E+10	1	-1E+10	1	-1E+10	1
4901784	179	C	05/29/2020	10:49	-132.240	43.186	0	1029.70	0	3.4950	0	37.0790	8	29.504	0	1018.986	0	10.4	4	3.3	4	-1E+10	1	-1E+10	1	-1E+10	1	-1E+10	1	-1E+10	1	-1E+10	1
4901784	179	C	05/29/2020	10:49	-132.240	43.186	0	1035.30	0	3.4840	0	37.0830	8	29.508	0	1024.514	0	10.5	4	3.3	4	-1E+10	1	-1E+10	1	-1E+10	1	-1E+10	1	-1E+10	1	-1E+10	1
4901784	179	C	05/29/2020	10:49	-132.240	43.186	0	1040.00	0	3.4780	0	37.0840	8	29.510	0	1029.154	0	10.5	4	3.4	4	-1E+10	1	-1E+10	1	-1E+10	1	-1E+10	1	-1E+10	1	-1E+10	1
4901784	179	C	05/29/2020	10:49	-132.240	43.186	0	1044.70	0	3.4710	0	37.0850	8	29.511	0	1033.793	0	10.6	4	3.4	4	-1E+10	1	-1E+10	1	-1E+10	1	-1E+10	1	-1E+10	1	-1E+10	1
4901784	179	C	05/29/2020	10:49	-132.240	43.186	0	1050.40	0	3.4550	0	37.0880	8	29.515	0	1039.420	0	10.7	4	3.4	4	-1E+10	1	-1E+10	1	-1E+10	1	-1E+10	1	-1E+10	1	-1E+10	1
4901784	179	C	05/29/2020	10:49	-132.240	43.186	0	1055.10	0	3.4360	0	37.0930	8	29.521	0	1044.059	0	10.7	4	3.4	4	-1E+10	1	-1E+10	1	-1E+10	1	-1E+10	1	-1E+10	1	-1E+10	1
4901784	179	C	05/29/2020	10:49	-132.240	43.186	0	1059.80	0	3.4270	0	37.0940	8	29.523	0	1048.698	0	10.8	4	3.4	4	-1E+10	1	-1E+10	1	-1E+10	1	-1E+10	1	-1E+10	1	-1E+10	1
4901784	179	C	05/29/2020	10:49	-132.240	43.186	0	1065.50	0	3.4100	0	37.0960	8	29.526	0	1054.324	0	10.8	4	3.4	4	-1E+10	1	-1E+10	1	-1E+10	1	-1E+10	1	-1E+10	1	-1E+10	1
4901784	179	C	05/29/2020	10:49	-132.240	43.186	0	1070.20	0	3.3900	0	37.1000	8	29.532	0	1058.963	0	10.9	4	3.5	4	-1E+10	1	-1E+10	1	-1E+10	1	-1E+10	1	-1E+10	1	-1E+10	1
4901784	179	C	05/29/2020	10:49	-132.240	43.186	0	1074.90	0	3.3870	0	37.1010	8	29.533	0	1063.601	0	10.9	4	3.5	4	-1E+10	1	-1E+10	1	-1E+10	1	-1E+10	1	-1E+10	1	-1E+10	1
4901784	179	C	05/29/2020	10:49	-132.240	43.186	0	1079.70	0	3.3860	0	37.1010	8	29.533	0	1068.339	0	10.9	4	3.5	4	-1E+10	1	-1E+10	1	-1E+10	1	-1E+10	1	-1E+10	1	-1E+10	1
4901784	179	C	05/29/2020	10:49	-132.240	43.186	0	1084.30	0	3.3790	0	37.1020	8	29.534	0	1072.879	0	11.0	4	3.5	4	-1E+10	1	-1E+10	1	-1E+10	1	-1E+10	1	-1E+10	1	-1E+10	1
4901784	179	C	05/29/2020	10:49	-132.240	43.186	0	1089.60	0	3.3590	0	37.1060	8	29.540	0	1078.109	0	11.1	4	3.5	4	-1E+10	1	-1E+10	1	-1E+10	1	-1E+10	1	-1E+10	1	-1E+10	1
4901784	179	C	05/29/2020	10:49	-132.240	43.186	0	1094.50	0	3.3510	0	37.1080	8	29.542	0	1082.945	0	11.2	4	3.5	4	-1E+10	1	-1E+10	1	-1E+10	1	-1E+10	1	-1E+10	1	-1E+10	1
4901784	179	C	05/29/2020	10:49	-132.240	43.186	0	1099.40	0	3.3410	0	37.1100	8	29.545	0	1087.781	0	11.2	4	3.6	4	-1E+10	1	-1E+10	1	-1E+10	1	-1E+10	1	-1E+10	1	-1E+10	1
4901784	179	C	05/29/2020	10:49	-132.240	43.186	0	1104.40	0	3.3260	0	37.1130	8	29.549	0	1092.715	0	11.3	4	3.6	4	-1E+10	1	-1E+10	1	-1E+10	1	-1E+10	1	-1E+10	1	-1E+10	1
4901784	179	C	05/29/2020	10:49	-132.240	43.186	0	1109.30	0	3.3160	0	37.1160	8	29.552	0	1097.550	0	11.4	4	3.6	4	-1E+10	1	-1E+10	1	-1E+10	1	-1E+10	1	-1E+10	1	-1E+10	1
4901784	179	C	05/29/2020	10:49	-132.240	43.186	0	1114.20	0	3.3060	0	37.1180	8	29.555	0	1102.385	0	11.5	4	3.7	4	-1E+10	1	-1E+10	1	-1E+10	1	-1E+10	1	-1E+10	1	-1E+10	1
4901784	179	C	05/29/2020	10:49	-132.240	43.186	0	1119.90	0	3.2910	0	37.1210	8	29.559	0	1108.010	0	11.7	4	3.7	4	-1E+10	1	-1E+10	1	-1E+10	1	-1E+10	1	-1E+10	1	-1E+10	1
4901784	179	C	05/29/2020	10:49	-132.240	43.186	0	1125.70	0	3.2780	0	37.1240	8	29.563	0	1113.733	0	11.8	4	3.7	4	-1E+10	1	-1E+10	1	-1E+10	1	-1E+10	1	-1E+10	1	-1E+10	1
4901784	179	C	05/29/2020	10:49	-132.240	43.186	0	1130.70	0	3.2620	0	37.1280	8	29.567	0	1118.666	0	12.0	4	3.8	4	-1E+10	1	-1E+10	1	-1E+10	1	-1E+10	1	-1E+10	1	-1E+10	1
4901784	179	C	05/29/2020	10:49	-132.240	43.186	0	1135.70	0	3.2540	0	37.1300	8	29.570	0	1123.600	0	12.1	4	3.8	4	-1E+10	1	-1E+10	1	-1E+10	1	-1E+10	1	-1E+10	1	-1E+10	1
4901784	179	C	05/29/2020	10:49	-132.240	43.186	0	1140.00	0	3.2450	0	37.1320	8	29.572	0	1127.842	0	12.2	4	3.9	4	-1E+10	1	-1E+10	1	-1E+10	1	-1E+10	1	-1E+10	1	-1E+10	1
4901784	179	C	05/29/2020	10:49	-132.240	43.186	0	1144.50	0	3.2380	0	37.1340	8	29.575	0	1132.282	0	12.3	4	3.9	4	-1E+10	1	-1E+10	1	-1E+10	1	-1E+10	1	-1E+10	1	-1E+10	1
4901784	179	C	05/29/2020	10:49	-132.240	43.186	0	1150.00	0	3.2270	0	37.1370	8	29.578	0	1137.709	0	12.5	4	4.0	4	-1E+10	1	-1E+10	1	-1E+10	1	-1E+10	1	-1E+10	1	-1E+10	1
4901784	179	C	05/29/2020	10:49	-132.240	43.186	0	1155.50	0	3.2230	0	37.1380	8	29.580	0	1143.135	0	12.6	4	4.0	4	-1E+10	1	-1E+10	1	-1E+10	1	-1E+10	1	-1E+10	1	-1E+10	1
4901784	179	C	05/29/2020	10:49	-132.240	43.186	0	1160.00	0	3.2100	0	37.1400	8	29.582	0	1147.575	0	12.8	4	4.0	4	-1E+10	1	-1E+10	1	-1E+10	1	-1E+10	1	-1E+10	1	-1E+10	1
4901784	179	C	05/29/2020	10:49	-132.240	43.186	0	1164.70	0	3.1860	0	37.1440	8	29.588	0	1152.211	0	12.9	4	4.1	4	-1E+10	1	-1E+10	1	-1E+10	1	-1E+10	1	-1E+10	1	-1E+10	1
4901784	179	C	05/29/2020	10:49	-132.240	43.186	0	1170.30	0	3.1730	0	37.1460	8	29.591	0	1157.736	0	13.0	4	4.1	4	-1E+10	1	-1E+10	1	-1E+10	1	-1E+10	1	-1E+10	1	-1E+10	1
4901784	179	C	05/29/2020	10:49	-132.240	43.186	0	1175.40	0	3.1620	0	37.1480	8	29.594	0	1162.767	0	13.1	4	4.1	4	-1E+10	1	-1E+10	1	-1E+10	1	-1E+10	1	-1E+10	1	-1E+10	1
4901784	179	C	05/29/2020	10:49	-132.240	43.186	0	1180.10	0	3.1570	0	37.1490	8	29.595	0	1167.403	0	13.1	4	4.1	4	-1E+10	1	-1E+10	1	-1E+10	1	-1E+10	1	-1E+10	1	-1E+10	1
4901784	179	C	05/29/2020	10:49	-132.240	43.186	0	1185.70	0	3.1500	0	37.1500	8	29.597	0	1172.927	0	13.2	4	4.2	4	-1E+10	1	-1E+10	1	-1E+10	1	-1E+10	1	-1E+10	1	-1E+10	1
4901784	179	C	05/29/2020	10:49	-132.240	43.186	0	1190.60	0	3.1360	0	37.1530	8	29.600	0	1177.761	0	13.4	4	4.2	4	-1E+10	1	-1E+10	1	-1E+10	1	-1E+10	1	-1E+10	1	-1E+10	1
4901784	179	C	05/29/2020	10:49	-132.240	43.186	0	1195.50	0	3.1250	0	37.1550	8	29.603	0	1182.594	0	13.5	4	4.3	4	-1E+10	1	-1E+10	1	-1E+10	1	-1E+10	1	-1E+10	1	-1E+10	1
4901784	179	C	05/29/2020	10:49	-132.240	43.186	0	1200.40	0	3.1210	0	37.1560	8	29.604	0	1187.428	0	13.5	4	4.3	4	-1E+10	1	-1E+10	1	-1E+10	1	-1E+10	1	-1E+10	1	-1E+10	1
4901784	179	C	05/29/2020	10:49	-132.240	43.186	0	1205.40	0	3.1100	0	37.1570	8	29.606	0	1192.360	0	13.7	4	4.3	4	-1E+10	1	-1E+10	1	-1E+10	1	-1E+10	1	-1E+10	1	-1E+10	1
4901784	179	C	05/29/2020	10:49	-132.240	43.186	0	1210.20	0	3.0980	0	37.1590	8	29.609	0	1197.094	0	13.8	4	4.4	4	-1E+10	1	-1E+10	1	-1E+10	1	-1E+10	1	-1E+10	1	-1E+10	1
4901784	179	C	05/29/2020	10:49	-132.240	43.186	0	1215.10	0	3.0880	0	37.1620	8	29.613	0	1201.927	0	14.0	4	4.4	4	-1E+10	1	-1E+10	1	-1E+10	1	-1E+10	1	-1E+10	1	-1E+10	1
4901784	179	C	05/29/2020	10:49	-132.240	43.186	0	1220.10	0	3.0800	0	37.1630	8	29.614	0	1206.858	0	14.1	4	4.5	4	-1E+10	1	-1E+10	1	-1E+10	1	-1E+10	1	-1E+10	1	-1E+10	1
4901784	179	C	05/29/2020	10:49	-132.240	43.186	0	1225.10	0	3.0660	0	37.1650	8	29.617	0	1211.790	0	14.3	4	4.5	4	-1E+10	1	-1E+10	1	-1E+10	1	-1E+10	1	-1E+10	1	-1E+10	1
4901784	179	C	05/29/2020	10:49	-132.240	43.186	0	1230.20	0	3.0510	0	37.1680	8	29.621	0	1216.819	0	14.5	4	4.6	4	-1E+10	1	-1E+10	1	-1E+10	1	-1E+10	1	-1E+10	1	-1E+10	1
4901784	179	C	05/29/2020	10:49	-132.240	43.186	0	1235.30	0	3.0350	0	37.1700	8	29.624	0	1221.849	0	14.7	4	4.6	4	-1E+10	1	-1E+10	1	-1E+10	1	-1E+10	1	-1E+10	1	-1E+10	1
4901784	179	C	05/29/2020	10:49	-132.240	43.186	0	1240.50	0	3.0260	0	37.1720	8	29.627	0	1226.977	0	14.8	4	4.7	4	-1E+10	1	-1E+10	1	-1E+10	1	-1E+10	1	-1E+10	1	-1E+10	1
4901784	179	C	05/29/2020	10:49	-132.240	43.186	0	1245.70	0	3.0170	0	37.1730	8	29.628	0	1232.106	0	14.9	4	4.7	4	-1E+10	1	-1E+10	1	-1E+10	1	-1E+10	1	-1E+10	1	-1E+10	1
4901784	179	C	05/29/2020	10:49	-132.240	43.186	0	1250.00	0	3.0060	0	37.1750	8	29.631	0	1236.346	0	15.1	4	4.7	4	-1E+10	1	-1E+10	1	-1E+10	1	-1E+10	1	-1E+10	1	-1E+10	1
4901784	179	C	05/29/2020	10:49	-132.240	43.186	0	1255.00	0	2.9970	0	37.1760	8	29.633	0	1241.277	0	15.2	4	4.8	4	-1E+10	1	-1E+10	1	-1E+10	1	-1E+10	1	-1E+10	1	-1E+10	1
4901784	179	C	05/29/2020	10:49	-132.240	43.186	0	1260.60	0	2.9870	0	37.1780	8	29.636	0	1246.799	0	15.4	4	4.8	4	-1E+10	1	-1E+10	1	-1E+10	1	-1E+10	1	-1E+10	1	-1E+10	1
4901784	179	C	05/29/2020	10:49	-132.240	43.186	0	1265.40	0	2.9780	0	37.1800	8	29.638	0	1251.532	0	15.5	4	4.9	4	-1E+10	1	-1E+10	1	-1E+10	1	-1E+10	1	-1E+10	1	-1E+10	1
4901784	179	C	05/29/2020	10:49	-132.240	43.186	0	1270.30	0	2.9650	0	37.1820	8	29.641	0	1256.364	0	15.7	4	5.0	4	-1E+10	1	-1E+10	1	-1E+10	1	-1E+10	1	-1E+10	1	-1E+10	1
4901784	179	C	05/29/2020	10:49	-132.240	43.186	0	1275.20	0	2.9570	0	37.1840	8	29.643	0	1261.195	0	15.8	4	5.0	4	-1E+10	1	-1E+10	1	-1E+10	1	-1E+10	1	-1E+10	1	-1E+10	1
4901784	179	C	05/29/2020	10:49	-132.240	43.186	0	1280.10	0	2.9480	0	37.1850	8	29.645	0	1266.027	0	16.0	4	5.0	4	-1E+10	1	-1E+10	1	-1E+10	1	-1E+10	1	-1E+10	1	-1E+10	1
4901784	179	C	05/29/2020	10:49	-132.240	43.186	0	1285.10	0	2.9390	0	37.1870	8	29.648	0	1270.957	0	16.1	4	5.1	4	-1E+10	1	-1E+10	1	-1E+10	1	-1E+10	1	-1E+10	1	-1E+10	1
4901784	179	C	05/29/2020	10:49	-132.240	43.186	0	1290.10	0	2.9320	0	37.1880	8	29.649	0	1275.887	0	16.3	4	5.1	4	-1E+10	1	-1E+10	1	-1E+10	1	-1E+10	1	-1E+10	1	-1E+10	1
4901784	179	C	05/29/2020	10:49	-132.240	43.186	0	1295.10	0	2.9280	0	37.1890	8	29.650	0	1280.816	0	16.4	4	5.2	4	-1E+10	1	-1E+10	1	-1E+10	1	-1E+10	1	-1E+10	1	-1E+10	1
4901784	179	C	05/29/2020	10:49	-132.240	43.186	0	1300.10	0	2.9180	0	37.1900	8	29.652	0	1285.746	0	16.6	4	5.2	4	-1E+10	1	-1E+10	1	-1E+10	1	-1E+10	1	-1E+10	1	-1E+10	1
4901784	179	C	05/29/2020	10:49	-132.240	43.186	0	1305.20	0	2.9050	0	37.1920	8	29.655	0	1290.774	0	16.9	4	5.3	4	-1E+10	1	-1E+10	1	-1E+10	1	-1E+10	1	-1E+10	1	-1E+10	1
4901784	179	C	05/29/2020	10:49	-132.240	43.186	0	1310.40	0	2.8840	0	37.1950	8	29.659	0	1295.900	0	17.2	4	5.4	4	-1E+10	1	-1E+10	1	-1E+10	1	-1E+10	1	-1E+10	1	-1E+10	1
4901784	179	C	05/29/2020	10:49	-132.240	43.186	0	1315.50	0	2.8740	0	37.1970	8	29.662	0	1300.928	0	17.4	4	5.5	4	-1E+10	1	-1E+10	1	-1E+10	1	-1E+10	1	-1E+10	1	-1E+10	1
4901784	179	C	05/29/2020	10:49	-132.240	43.186	0	1319.90	0	2.8660	0	37.1990	8	29.664	0	1305.266	0	17.6	4	5.5	4	-1E+10	1	-1E+10	1	-1E+10	1	-1E+10	1	-1E+10	1	-1E+10	1
4901784	179	C	05/29/2020	10:49	-132.240	43.186	0	1324.30	0	2.8600	0	37.1990	8	29.665	0	1309.604	0	17.7	4	5.6	4	-1E+10	1	-1E+10	1	-1E+10	1	-1E+10	1	-1E+10	1	-1E+10	1
4901784	179	C	05/29/2020	10:49	-132.240	43.186	0	1329.60	0	2.8490	0	37.2010	8	29.668	0	1314.828	0	18.0	4	5.7	4	-1E+10	1	-1E+10	1	-1E+10	1	-1E+10	1	-1E+10	1	-1E+10	1
4901784	179	C	05/29/2020	10:49	-132.240	43.186	0	1335.00	0	2.8340	0	37.2040	8	29.672	0	1320.151	0	18.3	4	5.7	4	-1E+10	1	-1E+10	1	-1E+10	1	-1E+10	1	-1E+10	1	-1E+10	1
4901784	179	C	05/29/2020	10:49	-132.240	43.186	0	1340.30	0	2.8250	0	37.2050	8	29.673	0	1325.376	0	18.4	4	5.8	4	-1E+10	1	-1E+10	1	-1E+10	1	-1E+10	1	-1E+10	1	-1E+10	1
4901784	179	C	05/29/2020	10:49	-132.240	43.186	0	1345.70	0	2.8170	0	37.2070	8	29.676	0	1330.698	0	18.6	4	5.8	4	-1E+10	1	-1E+10	1	-1E+10	1	-1E+10	1	-1E+10	1	-1E+10	1
4901784	179	C	05/29/2020	10:49	-132.240	43.186	0	1350.20	0	2.8160	0	37.2070	8	29.676	0	1335.134	0	18.7	4	5.9	4	-1E+10	1	-1E+10	1	-1E+10	1	-1E+10	1	-1E+10	1	-1E+10	1
4901784	179	C	05/29/2020	10:49	-132.240	43.186	0	1354.60	0	2.8080	0	37.2080	8	29.677	0	1339.471	0	18.9	4	5.9	4	-1E+10	1	-1E+10	1	-1E+10	1	-1E+10	1	-1E+10	1	-1E+10	1
4901784	179	C	05/29/2020	10:49	-132.240	43.186	0	1360.00	0	2.7930	0	37.2110	8	29.681	0	1344.793	0	19.2	4	6.0	4	-1E+10	1	-1E+10	1	-1E+10	1	-1E+10	1	-1E+10	1	-1E+10	1
4901784	179	C	05/29/2020	10:49	-132.240	43.186	0	1365.50	0	2.7850	0	37.2120	8	29.683	0	1350.214	0	19.3	4	6.1	4	-1E+10	1	-1E+10	1	-1E+10	1	-1E+10	1	-1E+10	1	-1E+10	1
4901784	179	C	05/29/2020	10:49	-132.240	43.186	0	1370.10	0	2.7790	0	37.2130	8	29.684	0	1354.748	0	19.5	4	6.1	4	-1E+10	1	-1E+10	1	-1E+10	1	-1E+10	1	-1E+10	1	-1E+10	1
4901784	179	C	05/29/2020	10:49	-132.240	43.186	0	1374.70	0	2.7740	0	37.2140	8	29.686	0	1359.282	0	19.7	4	6.2	4	-1E+10	1	-1E+10	1	-1E+10	1	-1E+10	1	-1E+10	1	-1E+10	1
4901784	179	C	05/29/2020	10:49	-132.240	43.186	0	1380.40	0	2.7630	0	37.2160	8	29.688	0	1364.899	0	19.9	4	6.2	4	-1E+10	1	-1E+10	1	-1E+10	1	-1E+10	1	-1E+10	1	-1E+10	1
4901784	179	C	05/29/2020	10:49	-132.240	43.186	0	1385.00	0	2.7570	0	37.2170	8	29.690	0	1369.433	0	20.0	4	6.3	4	-1E+10	1	-1E+10	1	-1E+10	1	-1E+10	1	-1E+10	1	-1E+10	1
4901784	179	C	05/29/2020	10:49	-132.240	43.186	0	1390.10	0	2.7470	0	37.2180	8	29.691	0	1374.459	0	20.3	4	6.4	4	-1E+10	1	-1E+10	1	-1E+10	1	-1E+10	1	-1E+10	1	-1E+10	1
4901784	179	C	05/29/2020	10:49	-132.240	43.186	0	1395.20	0	2.7390	0	37.2200	8	29.694	0	1379.485	0	20.5	4	6.4	4	-1E+10	1	-1E+10	1	-1E+10	1	-1E+10	1	-1E+10	1	-1E+10	1
4901784	179	C	05/29/2020	10:49	-132.240	43.186	0	1399.90	0	2.7310	0	37.2210	8	29.695	0	1384.117	0	20.7	4	6.5	4	-1E+10	1	-1E+10	1	-1E+10	1	-1E+10	1	-1E+10	1	-1E+10	1
4901784	179	C	05/29/2020	10:49	-132.240	43.186	0	1404.80	0	2.7220	0	37.2220	8	29.697	0	1388.945	0	20.9	4	6.6	4	-1E+10	1	-1E+10	1	-1E+10	1	-1E+10	1	-1E+10	1	-1E+10	1
4901784	179	C	05/29/2020	10:49	-132.240	43.186	0	1409.70	0	2.7140	0	37.2230	8	29.699	0	1393.774	0	21.2	4	6.6	4	-1E+10	1	-1E+10	1	-1E+10	1	-1E+10	1	-1E+10	1	-1E+10	1
4901784	179	C	05/29/2020	10:49	-132.240	43.186	0	1414.60	0	2.7020	0	37.2260	8	29.702	0	1398.602	0	21.4	4	6.7	4	-1E+10	1	-1E+10	1	-1E+10	1	-1E+10	1	-1E+10	1	-1E+10	1
4901784	179	C	05/29/2020	10:49	-132.240	43.186	0	1419.60	0	2.6940	0	37.2270	8	29.704	0	1403.529	0	21.6	4	6.8	4	-1E+10	1	-1E+10	1	-1E+10	1	-1E+10	1	-1E+10	1	-1E+10	1
4901784	179	C	05/29/2020	10:49	-132.240	43.186	0	1424.60	0	2.6840	0	37.2280	8	29.706	0	1408.456	0	21.9	4	6.9	4	-1E+10	1	-1E+10	1	-1E+10	1	-1E+10	1	-1E+10	1	-1E+10	1
4901784	179	C	05/29/2020	10:49	-132.240	43.186	0	1429.60	0	2.6700	0	37.2300	8	29.709	0	1413.382	0	22.3	4	7.0	4	-1E+10	1	-1E+10	1	-1E+10	1	-1E+10	1	-1E+10	1	-1E+10	1
4901784	179	C	05/29/2020	10:49	-132.240	43.186	0	1434.70	0	2.6620	0	37.2320	8	29.711	0	1418.407	0	22.5	4	7.0	4	-1E+10	1	-1E+10	1	-1E+10	1	-1E+10	1	-1E+10	1	-1E+10	1
4901784	179	C	05/29/2020	10:49	-132.240	43.186	0	1439.70	0	2.6520	0	37.2340	8	29.713	0	1423.334	0	22.7	4	7.1	4	-1E+10	1	-1E+10	1	-1E+10	1	-1E+10	1	-1E+10	1	-1E+10	1
4901784	179	C	05/29/2020	10:49	-132.240	43.186	0	1444.80	0	2.6450	0	37.2350	8	29.715	0	1428.358	0	22.9	4	7.2	4	-1E+10	1	-1E+10	1	-1E+10	1	-1E+10	1	-1E+10	1	-1E+10	1
4901784	179	C	05/29/2020	10:49	-132.240	43.186	0	1449.80	0	2.6400	0	37.2360	8	29.716	0	1433.285	0	23.1	4	7.2	4	-1E+10	1	-1E+10	1	-1E+10	1	-1E+10	1	-1E+10	1	-1E+10	1
4901784	179	C	05/29/2020	10:49	-132.240	43.186	0	1454.90	0	2.6350	0	37.2370	8	29.718	0	1438.309	0	23.3	4	7.3	4	-1E+10	1	-1E+10	1	-1E+10	1	-1E+10	1	-1E+10	1	-1E+10	1
4901784	179	C	05/29/2020	10:49	-132.240	43.186	0	1460.00	0	2.6250	0	37.2380	8	29.719	0	1443.334	0	23.7	4	7.4	4	-1E+10	1	-1E+10	1	-1E+10	1	-1E+10	1	-1E+10	1	-1E+10	1
4901784	179	C	05/29/2020	10:49	-132.240	43.186	0	1465.10	0	2.6170	0	37.2400	8	29.722	0	1448.358	0	23.9	4	7.5	4	-1E+10	1	-1E+10	1	-1E+10	1	-1E+10	1	-1E+10	1	-1E+10	1
4901784	179	C	05/29/2020	10:49	-132.240	43.186	0	1470.40	0	2.6080	0	37.2410	8	29.723	0	1453.579	0	24.2	4	7.6	4	-1E+10	1	-1E+10	1	-1E+10	1	-1E+10	1	-1E+10	1	-1E+10	1
4901784	179	C	05/29/2020	10:49	-132.240	43.186	0	1475.60	0	2.5980	0	37.2420	8	29.725	0	1458.702	0	24.5	4	7.7	4	-1E+10	1	-1E+10	1	-1E+10	1	-1E+10	1	-1E+10	1	-1E+10	1
4901784	179	C	05/29/2020	10:49	-132.240	43.186	0	1479.90	0	2.5880	0	37.2440	8	29.728	0	1462.937	0	24.8	4	7.7	4	-1E+10	1	-1E+10	1	-1E+10	1	-1E+10	1	-1E+10	1	-1E+10	1
4901784	179	C	05/29/2020	10:49	-132.240	43.186	0	1484.30	0	2.5820	0	37.2450	8	29.729	0	1467.272	0	25.1	4	7.8	4	-1E+10	1	-1E+10	1	-1E+10	1	-1E+10	1	-1E+10	1	-1E+10	1
4901784	179	C	05/29/2020	10:49	-132.240	43.186	0	1489.60	0	2.5720	0	37.2470	8	29.732	0	1472.492	0	25.4	4	7.9	4	-1E+10	1	-1E+10	1	-1E+10	1	-1E+10	1	-1E+10	1	-1E+10	1
4901784	179	C	05/29/2020	10:49	-132.240	43.186	0	1494.90	0	2.5610	0	37.2480	8	29.733	0	1477.713	0	25.7	4	8.0	4	-1E+10	1	-1E+10	1	-1E+10	1	-1E+10	1	-1E+10	1	-1E+10	1
4901784	179	C	05/29/2020	10:49	-132.240	43.186	0	1500.20	0	2.5510	0	37.2500	8	29.736	0	1482.934	0	26.1	4	8.1	4	-1E+10	1	-1E+10	1	-1E+10	1	-1E+10	1	-1E+10	1	-1E+10	1
4901784	179	C	05/29/2020	10:49	-132.240	43.186	0	1505.50	0	2.5430	0	37.2510	8	29.738	0	1488.154	0	26.3	4	8.2	4	-1E+10	1	-1E+10	1	-1E+10	1	-1E+10	1	-1E+10	1	-1E+10	1
4901784	179	C	05/29/2020	10:49	-132.240	43.186	0	1510.00	0	2.5350	0	37.2520	8	29.739	0	1492.586	0	26.6	4	8.3	4	-1E+10	1	-1E+10	1	-1E+10	1	-1E+10	1	-1E+10	1	-1E+10	1
4901784	179	C	05/29/2020	10:49	-132.240	43.186	0	1514.50	0	2.5270	0	37.2540	8	29.742	0	1497.018	0	26.9	4	8.4	4	-1E+10	1	-1E+10	1	-1E+10	1	-1E+10	1	-1E+10	1	-1E+10	1
4901784	179	C	05/29/2020	10:49	-132.240	43.186	0	1519.90	0	2.5200	0	37.2550	8	29.743	0	1502.337	0	27.2	4	8.5	4	-1E+10	1	-1E+10	1	-1E+10	1	-1E+10	1	-1E+10	1	-1E+10	1
4901784	179	C	05/29/2020	10:49	-132.240	43.186	0	1525.30	0	2.5120	0	37.2570	8	29.745	0	1507.655	0	27.4	4	8.5	4	-1E+10	1	-1E+10	1	-1E+10	1	-1E+10	1	-1E+10	1	-1E+10	1
4901784	179	C	05/29/2020	10:49	-132.240	43.186	0	1529.80	0	2.5110	0	37.2570	8	29.746	0	1512.087	0	27.7	4	8.6	4	-1E+10	1	-1E+10	1	-1E+10	1	-1E+10	1	-1E+10	1	-1E+10	1
4901784	179	C	05/29/2020	10:49	-132.240	43.186	0	1534.40	0	2.5000	0	37.2580	8	29.747	0	1516.617	0	28.0	4	8.7	4	-1E+10	1	-1E+10	1	-1E+10	1	-1E+10	1	-1E+10	1	-1E+10	1
4901784	179	C	05/29/2020	10:49	-132.240	43.186	0	1539.80	0	2.4880	0	37.2600	8	29.750	0	1521.935	0	28.5	4	8.9	4	-1E+10	1	-1E+10	1	-1E+10	1	-1E+10	1	-1E+10	1	-1E+10	1
4901784	179	C	05/29/2020	10:49	-132.240	43.186	0	1545.20	0	2.4720	0	37.2620	8	29.753	0	1527.253	0	29.0	4	9.0	4	-1E+10	1	-1E+10	1	-1E+10	1	-1E+10	1	-1E+10	1	-1E+10	1
4901784	179	C	05/29/2020	10:49	-132.240	43.186	0	1550.60	0	2.4630	0	37.2630	8	29.755	0	1532.571	0	29.4	4	9.2	4	-1E+10	1	-1E+10	1	-1E+10	1	-1E+10	1	-1E+10	1	-1E+10	1
4901784	179	C	05/29/2020	10:49	-132.240	43.186	0	1555.00	0	2.4550	0	37.2650	8	29.757	0	1536.904	0	29.8	4	9.3	4	-1E+10	1	-1E+10	1	-1E+10	1	-1E+10	1	-1E+10	1	-1E+10	1
4901784	179	C	05/29/2020	10:49	-132.240	43.186	0	1559.50	0	2.4440	0	37.2670	8	29.760	0	1541.335	0	30.1	4	9.4	4	-1E+10	1	-1E+10	1	-1E+10	1	-1E+10	1	-1E+10	1	-1E+10	1
4901784	179	C	05/29/2020	10:49	-132.240	43.186	0	1565.00	0	2.4350	0	37.2680	8	29.761	0	1546.751	0	30.4	4	9.5	4	-1E+10	1	-1E+10	1	-1E+10	1	-1E+10	1	-1E+10	1	-1E+10	1
4901784	179	C	05/29/2020	10:49	-132.240	43.186	0	1570.40	0	2.4240	0	37.2690	8	29.763	0	1552.068	0	30.8	4	9.6	4	-1E+10	1	-1E+10	1	-1E+10	1	-1E+10	1	-1E+10	1	-1E+10	1
4901784	179	C	05/29/2020	10:49	-132.240	43.186	0	1574.90	0	2.4140	0	37.2710	8	29.766	0	1556.499	0	31.2	4	9.7	4	-1E+10	1	-1E+10	1	-1E+10	1	-1E+10	1	-1E+10	1	-1E+10	1
4901784	179	C	05/29/2020	10:49	-132.240	43.186	0	1579.80	0	2.4060	0	37.2720	8	29.767	0	1561.324	0	31.5	4	9.8	4	-1E+10	1	-1E+10	1	-1E+10	1	-1E+10	1	-1E+10	1	-1E+10	1
4901784	179	C	05/29/2020	10:49	-132.240	43.186	0	1584.90	0	2.3980	0	37.2730	8	29.769	0	1566.345	0	31.9	4	9.9	4	-1E+10	1	-1E+10	1	-1E+10	1	-1E+10	1	-1E+10	1	-1E+10	1
4901784	179	C	05/29/2020	10:49	-132.240	43.186	0	1589.70	0	2.3870	0	37.2750	8	29.772	0	1571.071	0	32.3	4	10.0	4	-1E+10	1	-1E+10	1	-1E+10	1	-1E+10	1	-1E+10	1	-1E+10	1
4901784	179	C	05/29/2020	10:49	-132.240	43.186	0	1594.50	0	2.3740	0	37.2770	8	29.774	0	1575.797	0	32.6	4	10.1	4	-1E+10	1	-1E+10	1	-1E+10	1	-1E+10	1	-1E+10	1	-1E+10	1
4901784	179	C	05/29/2020	10:49	-132.240	43.186	0	1599.40	0	2.3700	0	37.2770	8	29.775	0	1580.621	0	32.9	4	10.2	4	-1E+10	1	-1E+10	1	-1E+10	1	-1E+10	1	-1E+10	1	-1E+10	1
4901784	179	C	05/29/2020	10:49	-132.240	43.186	0	1604.20	0	2.3620	0	37.2790	8	29.777	0	1585.347	0	33.2	4	10.3	4	-1E+10	1	-1E+10	1	-1E+10	1	-1E+10	1	-1E+10	1	-1E+10	1
4901784	179	C	05/29/2020	10:49	-132.240	43.186	0	1610.00	0	2.3530	0	37.2810	8	29.780	0	1591.057	0	33.5	4	10.4	4	-1E+10	1	-1E+10	1	-1E+10	1	-1E+10	1	-1E+10	1	-1E+10	1
4901784	179	C	05/29/2020	10:49	-132.240	43.186	0	1615.70	0	2.3490	0	37.2810	8	29.780	0	1596.669	0	33.7	4	10.5	4	-1E+10	1	-1E+10	1	-1E+10	1	-1E+10	1	-1E+10	1	-1E+10	1
4901784	179	C	05/29/2020	10:49	-132.240	43.186	0	1620.70	0	2.3450	0	37.2820	8	29.781	0	1601.591	0	34.0	4	10.6	4	-1E+10	1	-1E+10	1	-1E+10	1	-1E+10	1	-1E+10	1	-1E+10	1
4901784	179	C	05/29/2020	10:49	-132.240	43.186	0	1625.70	0	2.3370	0	37.2830	8	29.783	0	1606.513	0	34.4	4	10.7	4	-1E+10	1	-1E+10	1	-1E+10	1	-1E+10	1	-1E+10	1	-1E+10	1
4901784	179	C	05/29/2020	10:49	-132.240	43.186	0	1630.70	0	2.3270	0	37.2840	8	29.784	0	1611.435	0	34.8	4	10.8	4	-1E+10	1	-1E+10	1	-1E+10	1	-1E+10	1	-1E+10	1	-1E+10	1
4901784	179	C	05/29/2020	10:49	-132.240	43.186	0	1635.70	0	2.3170	0	37.2860	8	29.787	0	1616.357	0	35.2	4	10.9	4	-1E+10	1	-1E+10	1	-1E+10	1	-1E+10	1	-1E+10	1	-1E+10	1
4901784	179	C	05/29/2020	10:49	-132.240	43.186	0	1640.00	0	2.3130	0	37.2880	8	29.789	0	1620.589	0	35.4	4	11.0	4	-1E+10	1	-1E+10	1	-1E+10	1	-1E+10	1	-1E+10	1	-1E+10	1
4901784	179	C	05/29/2020	10:49	-132.240	43.186	0	1644.20	0	2.3090	0	37.2880	8	29.789	0	1624.724	0	35.7	4	11.1	4	-1E+10	1	-1E+10	1	-1E+10	1	-1E+10	1	-1E+10	1	-1E+10	1
4901784	179	C	05/29/2020	10:49	-132.240	43.186	0	1649.30	0	2.2990	0	37.2900	8	29.792	0	1629.744	0	36.1	4	11.2	4	-1E+10	1	-1E+10	1	-1E+10	1	-1E+10	1	-1E+10	1	-1E+10	1
4901784	179	C	05/29/2020	10:49	-132.240	43.186	0	1654.50	0	2.2910	0	37.2910	8	29.793	0	1634.862	0	36.4	4	11.3	4	-1E+10	1	-1E+10	1	-1E+10	1	-1E+10	1	-1E+10	1	-1E+10	1
4901784	179	C	05/29/2020	10:49	-132.240	43.186	0	1659.70	0	2.2840	0	37.2920	8	29.795	0	1639.980	0	36.8	4	11.4	4	-1E+10	1	-1E+10	1	-1E+10	1	-1E+10	1	-1E+10	1	-1E+10	1
4901784	179	C	05/29/2020	10:49	-132.240	43.186	0	1664.80	0	2.2770	0	37.2930	8	29.796	0	1645.000	0	37.2	4	11.5	4	-1E+10	1	-1E+10	1	-1E+10	1	-1E+10	1	-1E+10	1	-1E+10	1
4901784	179	C	05/29/2020	10:49	-132.240	43.186	0	1670.00	0	2.2690	0	37.2940	8	29.798	0	1650.118	0	37.6	4	11.6	4	-1E+10	1	-1E+10	1	-1E+10	1	-1E+10	1	-1E+10	1	-1E+10	1
4901784	179	C	05/29/2020	10:49	-132.240	43.186	0	1675.20	0	2.2590	0	37.2960	8	29.800	0	1655.235	0	38.0	4	11.8	4	-1E+10	1	-1E+10	1	-1E+10	1	-1E+10	1	-1E+10	1	-1E+10	1
4901784	179	C	05/29/2020	10:49	-132.240	43.186	0	1680.40	0	2.2500	0	37.2970	8	29.802	0	1660.353	0	38.4	4	11.9	4	-1E+10	1	-1E+10	1	-1E+10	1	-1E+10	1	-1E+10	1	-1E+10	1
4901784	179	C	05/29/2020	10:49	-132.240	43.186	0	1685.70	0	2.2420	0	37.2990	8	29.804	0	1665.569	0	38.8	4	12.0	4	-1E+10	1	-1E+10	1	-1E+10	1	-1E+10	1	-1E+10	1	-1E+10	1
4901784	179	C	05/29/2020	10:49	-132.240	43.186	0	1690.10	0	2.2420	0	37.3010	8	29.806	0	1669.899	0	39.1	4	12.1	4	-1E+10	1	-1E+10	1	-1E+10	1	-1E+10	1	-1E+10	1	-1E+10	1
4901784	179	C	05/29/2020	10:49	-132.240	43.186	0	1694.60	0	2.2380	0	37.3020	8	29.807	0	1674.328	0	39.4	4	12.2	4	-1E+10	1	-1E+10	1	-1E+10	1	-1E+10	1	-1E+10	1	-1E+10	1
4901784	179	C	05/29/2020	10:49	-132.240	43.186	0	1699.90	0	2.2320	0	37.3030	8	29.809	0	1679.543	0	39.8	4	12.3	4	-1E+10	1	-1E+10	1	-1E+10	1	-1E+10	1	-1E+10	1	-1E+10	1
4901784	179	C	05/29/2020	10:49	-132.240	43.186	0	1705.40	0	2.2240	0	37.3040	8	29.810	0	1684.956	0	40.2	4	12.4	4	-1E+10	1	-1E+10	1	-1E+10	1	-1E+10	1	-1E+10	1	-1E+10	1
4901784	179	C	05/29/2020	10:49	-132.240	43.186	0	1709.90	0	2.2170	0	37.3050	8	29.811	0	1689.384	0	40.5	4	12.5	4	-1E+10	1	-1E+10	1	-1E+10	1	-1E+10	1	-1E+10	1	-1E+10	1
4901784	179	C	05/29/2020	10:49	-132.240	43.186	0	1714.20	0	2.2100	0	37.3070	8	29.814	0	1693.615	0	40.9	4	12.6	4	-1E+10	1	-1E+10	1	-1E+10	1	-1E+10	1	-1E+10	1	-1E+10	1
4901784	179	C	05/29/2020	10:49	-132.240	43.186	0	1719.50	0	2.2000	0	37.3080	8	29.815	0	1698.830	0	41.3	4	12.8	4	-1E+10	1	-1E+10	1	-1E+10	1	-1E+10	1	-1E+10	1	-1E+10	1
4901784	179	C	05/29/2020	10:49	-132.240	43.186	0	1725.00	0	2.1940	0	37.3090	8	29.817	0	1704.242	0	41.5	4	12.9	4	-1E+10	1	-1E+10	1	-1E+10	1	-1E+10	1	-1E+10	1	-1E+10	1
4901784	179	C	05/29/2020	10:49	-132.240	43.186	0	1730.70	0	2.1910	0	37.3100	8	29.818	0	1709.850	0	41.9	4	12.9	4	-1E+10	1	-1E+10	1	-1E+10	1	-1E+10	1	-1E+10	1	-1E+10	1
4901784	179	C	05/29/2020	10:49	-132.240	43.186	0	1735.50	0	2.1870	0	37.3110	8	29.819	0	1714.573	0	42.3	4	13.1	4	-1E+10	1	-1E+10	1	-1E+10	1	-1E+10	1	-1E+10	1	-1E+10	1
4901784	179	C	05/29/2020	10:49	-132.240	43.186	0	1740.50	0	2.1800	0	37.3120	8	29.821	0	1719.493	0	42.7	4	13.2	4	-1E+10	1	-1E+10	1	-1E+10	1	-1E+10	1	-1E+10	1	-1E+10	1
4901784	179	C	05/29/2020	10:49	-132.240	43.186	0	1745.40	0	2.1740	0	37.3130	8	29.822	0	1724.314	0	43.0	4	13.3	4	-1E+10	1	-1E+10	1	-1E+10	1	-1E+10	1	-1E+10	1	-1E+10	1
4901784	179	C	05/29/2020	10:49	-132.240	43.186	0	1750.40	0	2.1670	0	37.3140	8	29.823	0	1729.233	0	43.4	4	13.4	4	-1E+10	1	-1E+10	1	-1E+10	1	-1E+10	1	-1E+10	1	-1E+10	1
4901784	179	C	05/29/2020	10:49	-132.240	43.186	0	1755.50	0	2.1610	0	37.3150	8	29.825	0	1734.250	0	43.7	4	13.5	4	-1E+10	1	-1E+10	1	-1E+10	1	-1E+10	1	-1E+10	1	-1E+10	1
4901784	179	C	05/29/2020	10:49	-132.240	43.186	0	1760.50	0	2.1510	0	37.3160	8	29.826	0	1739.169	0	44.0	4	13.6	4	-1E+10	1	-1E+10	1	-1E+10	1	-1E+10	1	-1E+10	1	-1E+10	1
4901784	179	C	05/29/2020	10:49	-132.240	43.186	0	1765.60	0	2.1460	0	37.3170	8	29.828	0	1744.187	0	44.4	4	13.7	4	-1E+10	1	-1E+10	1	-1E+10	1	-1E+10	1	-1E+10	1	-1E+10	1
4901784	179	C	05/29/2020	10:49	-132.240	43.186	0	1770.70	0	2.1390	0	37.3180	8	29.829	0	1749.204	0	44.8	4	13.8	4	-1E+10	1	-1E+10	1	-1E+10	1	-1E+10	1	-1E+10	1	-1E+10	1
4901784	179	C	05/29/2020	10:49	-132.240	43.186	0	1774.90	0	2.1350	0	37.3190	8	29.830	0	1753.335	0	45.1	4	13.9	4	-1E+10	1	-1E+10	1	-1E+10	1	-1E+10	1	-1E+10	1	-1E+10	1
4901784	179	C	05/29/2020	10:49	-132.240	43.186	0	1779.20	0	2.1320	0	37.3200	8	29.831	0	1757.565	0	45.3	4	14.0	4	-1E+10	1	-1E+10	1	-1E+10	1	-1E+10	1	-1E+10	1	-1E+10	1
4901784	179	C	05/29/2020	10:49	-132.240	43.186	0	1784.40	0	2.1270	0	37.3200	8	29.832	0	1762.681	0	45.7	4	14.1	4	-1E+10	1	-1E+10	1	-1E+10	1	-1E+10	1	-1E+10	1	-1E+10	1
4901784	179	C	05/29/2020	10:49	-132.240	43.186	0	1789.50	0	2.1150	0	37.3220	8	29.835	0	1767.697	0	46.0	4	14.2	4	-1E+10	1	-1E+10	1	-1E+10	1	-1E+10	1	-1E+10	1	-1E+10	1
4901784	179	C	05/29/2020	10:49	-132.240	43.186	0	1794.70	0	2.1110	0	37.3220	8	29.835	0	1772.812	0	46.3	4	14.3	4	-1E+10	1	-1E+10	1	-1E+10	1	-1E+10	1	-1E+10	1	-1E+10	1
4901784	179	C	05/29/2020	10:49	-132.240	43.186	0	1799.90	0	2.1030	0	37.3230	8	29.836	0	1777.927	0	46.6	4	14.4	4	-1E+10	1	-1E+10	1	-1E+10	1	-1E+10	1	-1E+10	1	-1E+10	1
4901784	179	C	05/29/2020	10:49	-132.240	43.186	0	1805.10	0	2.1010	0	37.3230	8	29.837	0	1783.042	0	46.9	4	14.5	4	-1E+10	1	-1E+10	1	-1E+10	1	-1E+10	1	-1E+10	1	-1E+10	1
4901784	179	C	05/29/2020	10:49	-132.240	43.186	0	1810.40	0	2.0960	0	37.3240	8	29.838	0	1788.255	0	47.3	4	14.6	4	-1E+10	1	-1E+10	1	-1E+10	1	-1E+10	1	-1E+10	1	-1E+10	1
4901784	179	C	05/29/2020	10:49	-132.240	43.186	0	1815.60	0	2.0910	0	37.3260	8	29.840	0	1793.369	0	47.7	4	14.7	4	-1E+10	1	-1E+10	1	-1E+10	1	-1E+10	1	-1E+10	1	-1E+10	1
4901784	179	C	05/29/2020	10:49	-132.240	43.186	0	1820.00	0	2.0880	0	37.3270	8	29.841	0	1797.697	0	47.8	4	14.8	4	-1E+10	1	-1E+10	1	-1E+10	1	-1E+10	1	-1E+10	1	-1E+10	1
4901784	179	C	05/29/2020	10:49	-132.240	43.186	0	1824.30	0	2.0830	0	37.3270	8	29.842	0	1801.926	0	48.0	4	14.8	4	-1E+10	1	-1E+10	1	-1E+10	1	-1E+10	1	-1E+10	1	-1E+10	1
4901784	179	C	05/29/2020	10:49	-132.240	43.186	0	1829.50	0	2.0770	0	37.3270	8	29.842	0	1807.040	0	48.3	4	14.9	4	-1E+10	1	-1E+10	1	-1E+10	1	-1E+10	1	-1E+10	1	-1E+10	1
4901784	179	C	05/29/2020	10:49	-132.240	43.186	0	1834.80	0	2.0670	0	37.3290	8	29.845	0	1812.252	0	48.6	4	15.0	4	-1E+10	1	-1E+10	1	-1E+10	1	-1E+10	1	-1E+10	1	-1E+10	1
4901784	179	C	05/29/2020	10:49	-132.240	43.186	0	1840.10	0	2.0630	0	37.3290	8	29.845	0	1817.464	0	49.0	4	15.1	4	-1E+10	1	-1E+10	1	-1E+10	1	-1E+10	1	-1E+10	1	-1E+10	1
4901784	179	C	05/29/2020	10:49	-132.240	43.186	0	1845.50	0	2.0590	0	37.3300	8	29.846	0	1822.775	0	49.3	4	15.2	4	-1E+10	1	-1E+10	1	-1E+10	1	-1E+10	1	-1E+10	1	-1E+10	1
4901784	179	C	05/29/2020	10:49	-132.240	43.186	0	1850.00	0	2.0570	0	37.3310	8	29.847	0	1827.200	0	49.7	4	15.3	4	-1E+10	1	-1E+10	1	-1E+10	1	-1E+10	1	-1E+10	1	-1E+10	1
4901784	179	C	05/29/2020	10:49	-132.240	43.186	0	1854.50	0	2.0510	0	37.3320	8	29.849	0	1831.625	0	50.2	4	15.5	4	-1E+10	1	-1E+10	1	-1E+10	1	-1E+10	1	-1E+10	1	-1E+10	1
4901784	179	C	05/29/2020	10:49	-132.240	43.186	0	1860.00	0	2.0440	0	37.3340	8	29.851	0	1837.034	0	50.5	4	15.6	4	-1E+10	1	-1E+10	1	-1E+10	1	-1E+10	1	-1E+10	1	-1E+10	1
4901784	179	C	05/29/2020	10:49	-132.240	43.186	0	1865.50	0	2.0390	0	37.3340	8	29.851	0	1842.442	0	50.7	4	15.6	4	-1E+10	1	-1E+10	1	-1E+10	1	-1E+10	1	-1E+10	1	-1E+10	1
4901784	179	C	05/29/2020	10:49	-132.240	43.186	0	1869.50	0	2.0340	0	37.3350	8	29.852	0	1846.375	0	51.0	4	15.7	4	-1E+10	1	-1E+10	1	-1E+10	1	-1E+10	1	-1E+10	1	-1E+10	1
4901784	179	C	05/29/2020	10:49	-132.240	43.186	0	1874.40	0	2.0290	0	37.3360	8	29.854	0	1851.193	0	51.3	4	15.8	4	-1E+10	1	-1E+10	1	-1E+10	1	-1E+10	1	-1E+10	1	-1E+10	1
4901784	179	C	05/29/2020	10:49	-132.240	43.186	0	1879.30	0	2.0220	0	37.3370	8	29.855	0	1856.011	0	51.6	4	15.9	4	-1E+10	1	-1E+10	1	-1E+10	1	-1E+10	1	-1E+10	1	-1E+10	1
4901784	179	C	05/29/2020	10:49	-132.240	43.186	0	1884.90	0	2.0180	0	37.3380	8	29.856	0	1861.517	0	51.9	4	16.0	4	-1E+10	1	-1E+10	1	-1E+10	1	-1E+10	1	-1E+10	1	-1E+10	1
4901784	179	C	05/29/2020	10:49	-132.240	43.186	0	1890.70	0	2.0130	0	37.3390	8	29.858	0	1867.220	0	52.2	4	16.1	4	-1E+10	1	-1E+10	1	-1E+10	1	-1E+10	1	-1E+10	1	-1E+10	1
4901784	179	C	05/29/2020	10:49	-132.240	43.186	0	1895.60	0	2.0080	0	37.3390	8	29.858	0	1872.038	0	52.4	4	16.2	4	-1E+10	1	-1E+10	1	-1E+10	1	-1E+10	1	-1E+10	1	-1E+10	1
4901784	179	C	05/29/2020	10:49	-132.240	43.186	0	1900.50	0	2.0040	0	37.3400	8	29.859	0	1876.855	0	52.7	4	16.2	4	-1E+10	1	-1E+10	1	-1E+10	1	-1E+10	1	-1E+10	1	-1E+10	1
4901784	179	C	05/29/2020	10:49	-132.240	43.186	0	1905.50	0	2.0010	0	37.3410	8	29.860	0	1881.771	0	53.0	4	16.3	4	-1E+10	1	-1E+10	1	-1E+10	1	-1E+10	1	-1E+10	1	-1E+10	1
4901784	179	C	05/29/2020	10:49	-132.240	43.186	0	1910.40	0	1.9970	0	37.3420	8	29.862	0	1886.588	0	53.1	4	16.4	4	-1E+10	1	-1E+10	1	-1E+10	1	-1E+10	1	-1E+10	1	-1E+10	1
4901784	179	C	05/29/2020	10:49	-132.240	43.186	0	1915.30	0	1.9960	0	37.3420	8	29.862	0	1891.405	0	53.3	4	16.4	4	-1E+10	1	-1E+10	1	-1E+10	1	-1E+10	1	-1E+10	1	-1E+10	1
4901784	179	C	05/29/2020	10:49	-132.240	43.186	0	1920.30	0	1.9940	0	37.3420	8	29.862	0	1896.321	0	53.5	4	16.5	4	-1E+10	1	-1E+10	1	-1E+10	1	-1E+10	1	-1E+10	1	-1E+10	1
4901784	179	C	05/29/2020	10:49	-132.240	43.186	0	1925.30	0	1.9900	0	37.3440	8	29.864	0	1901.236	0	53.7	4	16.5	4	-1E+10	1	-1E+10	1	-1E+10	1	-1E+10	1	-1E+10	1	-1E+10	1
4901784	179	C	05/29/2020	10:49	-132.240	43.186	0	1930.30	0	1.9880	0	37.3440	8	29.864	0	1906.151	0	53.8	4	16.6	4	-1E+10	1	-1E+10	1	-1E+10	1	-1E+10	1	-1E+10	1	-1E+10	1
4901784	179	C	05/29/2020	10:49	-132.240	43.186	0	1935.30	0	1.9870	0	37.3440	8	29.864	0	1911.066	0	54.0	4	16.6	4	-1E+10	1	-1E+10	1	-1E+10	1	-1E+10	1	-1E+10	1	-1E+10	1
4901784	179	C	05/29/2020	10:49	-132.240	43.186	0	1940.30	0	1.9840	0	37.3450	8	29.865	0	1915.981	0	54.2	4	16.7	4	-1E+10	1	-1E+10	1	-1E+10	1	-1E+10	1	-1E+10	1	-1E+10	1
4901784	179	C	05/29/2020	10:49	-132.240	43.186	0	1945.40	0	1.9820	0	37.3450	8	29.865	0	1920.994	0	54.4	4	16.8	4	-1E+10	1	-1E+10	1	-1E+10	1	-1E+10	1	-1E+10	1	-1E+10	1
4901784	179	C	05/29/2020	10:49	-132.240	43.186	0	1950.50	0	1.9800	0	37.3460	8	29.866	0	1926.007	0	54.7	4	16.8	4	-1E+10	1	-1E+10	1	-1E+10	1	-1E+10	1	-1E+10	1	-1E+10	1
4901784	179	C	05/29/2020	10:49	-132.240	43.186	0	1955.50	0	1.9740	0	37.3460	8	29.867	0	1930.922	0	55.1	4	17.0	4	-1E+10	1	-1E+10	1	-1E+10	1	-1E+10	1	-1E+10	1	-1E+10	1
4901784	179	C	05/29/2020	10:49	-132.240	43.186	0	1960.70	0	1.9690	0	37.3480	8	29.869	0	1936.033	0	55.5	4	17.1	4	-1E+10	1	-1E+10	1	-1E+10	1	-1E+10	1	-1E+10	1	-1E+10	1
4901784	179	C	05/29/2020	10:49	-132.240	43.186	0	1965.80	0	1.9640	0	37.3480	8	29.870	0	1941.045	0	55.7	4	17.2	4	-1E+10	1	-1E+10	1	-1E+10	1	-1E+10	1	-1E+10	1	-1E+10	1
4901784	179	C	05/29/2020	10:49	-132.240	43.186	0	1970.10	0	1.9610	0	37.3490	8	29.871	0	1945.271	0	56.0	4	17.2	4	-1E+10	1	-1E+10	1	-1E+10	1	-1E+10	1	-1E+10	1	-1E+10	1
4901784	179	C	05/29/2020	10:49	-132.240	43.186	0	1974.40	0	1.9580	0	37.3500	8	29.872	0	1949.498	0	56.3	4	17.3	4	-1E+10	1	-1E+10	1	-1E+10	1	-1E+10	1	-1E+10	1	-1E+10	1
4901784	179	C	05/29/2020	10:49	-132.240	43.186	0	1979.50	0	1.9530	0	37.3510	8	29.873	0	1954.510	0	56.6	4	17.4	4	-1E+10	1	-1E+10	1	-1E+10	1	-1E+10	1	-1E+10	1	-1E+10	1
4901784	179	C	05/29/2020	10:49	-132.240	43.186	0	1984.60	0	1.9490	0	37.3510	8	29.873	0	1959.522	0	56.9	4	17.5	4	-1E+10	1	-1E+10	1	-1E+10	1	-1E+10	1	-1E+10	1	-1E+10	1
4901784	179	C	05/29/2020	10:49	-132.240	43.186	0	1989.80	0	1.9460	0	37.3520	8	29.874	0	1964.632	0	57.2	4	17.6	4	-1E+10	1	-1E+10	1	-1E+10	1	-1E+10	1	-1E+10	1	-1E+10	1
4901784	179	C	05/29/2020	10:49	-132.240	43.186	0	1995.00	0	1.9410	0	37.3530	8	29.876	0	1969.743	0	57.6	4	17.7	4	-1E+10	1	-1E+10	1	-1E+10	1	-1E+10	1	-1E+10	1	-1E+10	1
4901784	179	C	05/29/2020	10:49	-132.240	43.186	0	2000.20	0	1.9370	0	37.3540	8	29.877	0	1974.853	0	57.8	4	17.8	4	-1E+10	1	-1E+10	1	-1E+10	1	-1E+10	1	-1E+10	1	-1E+10	1
4901784	179	C	05/29/2020	10:49	-132.240	43.186	0	2005.40	0	1.9340	0	37.3540	8	29.877	0	1979.963	0	58.0	4	17.8	4	-1E+10	1	-1E+10	1	-1E+10	1	-1E+10	1	-1E+10	1	-1E+10	1
4901784	179	C	05/29/2020	10:49	-132.240	43.186	0	2009.90	0	1.9310	0	37.3550	8	29.878	0	1984.385	0	58.2	4	17.9	4	-1E+10	1	-1E+10	1	-1E+10	1	-1E+10	1	-1E+10	1	-1E+10	1
4901784	179	C	05/29/2020	10:49	-132.240	43.186	0	2014.80	0	1.9280	0	37.3550	8	29.878	0	1989.200	0	58.4	4	17.9	4	-1E+10	1	-1E+10	1	-1E+10	1	-1E+10	1	-1E+10	1	-1E+10	1
4901784	179	C	05/29/2020	10:49	-132.240	43.186	0	2019.70	0	1.9270	0	37.3560	8	29.879	0	1994.014	0	58.5	4	18.0	4	-1E+10	1	-1E+10	1	-1E+10	1	-1E+10	1	-1E+10	1	-1E+10	1
4901784	179	C	05/29/2020	10:49	-132.240	43.186	0																										
4901784	180	C	06/08/2020	10:49	-132.222	43.063	0	3.20	0	13.7210	0	34.8610	8	26.139	0	3.175	0	250.7	4	98.5	4	-1E+10	1	-1E+10	1	-1E+10	1	-1E+10	1	-1E+10	1	-1E+10	1
4901784	180	C	06/08/2020	10:49	-132.222	43.063	0	4.90	0	13.7230	0	34.8630	8	26.140	0	4.861	0	250.6	4	98.5	4	-1E+10	1	-1E+10	1	-1E+10	1	-1E+10	1	-1E+10	1	-1E+10	1
4901784	180	C	06/08/2020	10:49	-132.222	43.063	0	6.80	0	13.7220	0	34.8630	8	26.140	0	6.746	0	250.7	4	98.5	4	-1E+10	1	-1E+10	1	-1E+10	1	-1E+10	1	-1E+10	1	-1E+10	1
4901784	180	C	06/08/2020	10:49	-132.222	43.063	0	8.60	0	13.7050	0	34.8640	8	26.145	0	8.532	0	250.7	4	98.5	4	-1E+10	1	-1E+10	1	-1E+10	1	-1E+10	1	-1E+10	1	-1E+10	1
4901784	180	C	06/08/2020	10:49	-132.222	43.063	0	10.50	0	13.7020	0	34.8630	8	26.144	0	10.416	0	250.6	4	98.4	4	-1E+10	1	-1E+10	1	-1E+10	1	-1E+10	1	-1E+10	1	-1E+10	1
4901784	180	C	06/08/2020	10:49	-132.222	43.063	0	12.30	0	13.7020	0	34.8630	8	26.145	0	12.202	0	250.9	4	98.6	4	-1E+10	1	-1E+10	1	-1E+10	1	-1E+10	1	-1E+10	1	-1E+10	1
4901784	180	C	06/08/2020	10:49	-132.222	43.063	0	14.40	0	13.6920	0	34.8590	8	26.144	0	14.285	0	250.6	4	98.4	4	-1E+10	1	-1E+10	1	-1E+10	1	-1E+10	1	-1E+10	1	-1E+10	1
4901784	180	C	06/08/2020	10:49	-132.222	43.063	0	14.90	0	13.6850	0	34.8590	8	26.145	0	14.781	0	250.7	4	98.5	4	-1E+10	1	-1E+10	1	-1E+10	1	-1E+10	1	-1E+10	1	-1E+10	1
4901784	180	C	06/08/2020	10:49	-132.222	43.063	0	16.40	0	13.6760	0	34.8600	8	26.148	0	16.269	0	250.7	4	98.5	4	-1E+10	1	-1E+10	1	-1E+10	1	-1E+10	1	-1E+10	1	-1E+10	1
4901784	180	C	06/08/2020	10:49	-132.222	43.063	0	17.90	0	13.6600	0	34.8600	8	26.151	0	17.757	0	250.8	4	98.5	4	-1E+10	1	-1E+10	1	-1E+10	1	-1E+10	1	-1E+10	1	-1E+10	1
4901784	180	C	06/08/2020	10:49	-132.222	43.063	0	19.40	0	13.5880	0	34.8550	8	26.162	0	19.245	0	251.3	4	98.5	4	-1E+10	1	-1E+10	1	-1E+10	1	-1E+10	1	-1E+10	1	-1E+10	1
4901784	180	C	06/08/2020	10:49	-132.222	43.063	0	20.90	0	13.5670	0	34.8450	8	26.159	0	20.733	0	251.9	4	98.7	4	-1E+10	1	-1E+10	1	-1E+10	1	-1E+10	1	-1E+10	1	-1E+10	1
4901784	180	C	06/08/2020	10:49	-132.222	43.063	0	22.30	0	13.5560	0	34.8360	8	26.154	0	22.122	0	252.1	4	98.7	4	-1E+10	1	-1E+10	1	-1E+10	1	-1E+10	1	-1E+10	1	-1E+10	1
4901784	180	C	06/08/2020	10:49	-132.222	43.063	0	23.70	0	13.2790	0	34.8650	8	26.233	0	23.510	0	254.0	4	98.9	4	-1E+10	1	-1E+10	1	-1E+10	1	-1E+10	1	-1E+10	1	-1E+10	1
4901784	180	C	06/08/2020	10:49	-132.222	43.063	0	25.20	0	13.1910	0	34.8580	8	26.246	0	24.998	0	255.0	4	99.2	4	-1E+10	1	-1E+10	1	-1E+10	1	-1E+10	1	-1E+10	1	-1E+10	1
4901784	180	C	06/08/2020	10:49	-132.222	43.063	0	26.70	0	13.0200	0	34.8590	8	26.281	0	26.486	0	256.5	4	99.4	4	-1E+10	1	-1E+10	1	-1E+10	1	-1E+10	1	-1E+10	1	-1E+10	1
4901784	180	C	06/08/2020	10:49	-132.222	43.063	0	28.40	0	12.3730	0	34.9120	8	26.450	0	28.173	0	259.7	4	99.3	4	-1E+10	1	-1E+10	1	-1E+10	1	-1E+10	1	-1E+10	1	-1E+10	1
4901784	180	C	06/08/2020	10:49	-132.222	43.063	0	30.20	0	12.2080	0	34.9200	8	26.488	0	29.958	0	261.3	4	99.6	4	-1E+10	1	-1E+10	1	-1E+10	1	-1E+10	1	-1E+10	1	-1E+10	1
4901784	180	C	06/08/2020	10:49	-132.222	43.063	0	31.90	0	12.1780	0	34.9190	8	26.493	0	31.644	0	261.5	4	99.7	4	-1E+10	1	-1E+10	1	-1E+10	1	-1E+10	1	-1E+10	1	-1E+10	1
4901784	180	C	06/08/2020	10:49	-132.222	43.063	0	33.70	0	12.1500	0	34.9160	8	26.496	0	33.430	0	261.7	4	99.7	4	-1E+10	1	-1E+10	1	-1E+10	1	-1E+10	1	-1E+10	1	-1E+10	1
4901784	180	C	06/08/2020	10:49	-132.222	43.063	0	35.50	0	12.0210	0	34.9140	8	26.520	0	35.215	0	262.5	4	99.7	4	-1E+10	1	-1E+10	1	-1E+10	1	-1E+10	1	-1E+10	1	-1E+10	1
4901784	180	C	06/08/2020	10:49	-132.222	43.063	0	37.20	0	11.9550	0	34.9150	8	26.533	0	36.901	0	262.8	4	99.7	4	-1E+10	1	-1E+10	1	-1E+10	1	-1E+10	1	-1E+10	1	-1E+10	1
4901784	180	C	06/08/2020	10:49	-132.222	43.063	0	38.90	0	11.9310	0	34.9160	8	26.539	0	38.587	0	262.7	4	99.6	4	-1E+10	1	-1E+10	1	-1E+10	1	-1E+10	1	-1E+10	1	-1E+10	1
4901784	180	C	06/08/2020	10:49	-132.222	43.063	0	40.60	0	11.9140	0	34.9150	8	26.541	0	40.274	0	262.5	4	99.5	4	-1E+10	1	-1E+10	1	-1E+10	1	-1E+10	1	-1E+10	1	-1E+10	1
4901784	180	C	06/08/2020	10:49	-132.222	43.063	0	42.30	0	11.8930	0	34.9160	8	26.546	0	41.960	0	262.3	4	99.4	4	-1E+10	1	-1E+10	1	-1E+10	1	-1E+10	1	-1E+10	1	-1E+10	1
4901784	180	C	06/08/2020	10:49	-132.222	43.063	0	44.00	0	11.8420	0	34.9180	8	26.557	0	43.646	0	262.0	4	99.1	4	-1E+10	1	-1E+10	1	-1E+10	1	-1E+10	1	-1E+10	1	-1E+10	1
4901784	180	C	06/08/2020	10:49	-132.222	43.063	0	45.70	0	11.7950	0	34.9240	8	26.571	0	45.332	0	262.0	4	99.0	4	-1E+10	1	-1E+10	1	-1E+10	1	-1E+10	1	-1E+10	1	-1E+10	1
4901784	180	C	06/08/2020	10:49	-132.222	43.063	0	47.40	0	11.7830	0	34.9440	8	26.589	0	47.018	0	261.9	4	99.0	4	-1E+10	1	-1E+10	1	-1E+10	1	-1E+10	1	-1E+10	1	-1E+10	1
4901784	180	C	06/08/2020	10:49	-132.222	43.063	0	49.10	0	11.7380	0	34.9430	8	26.596	0	48.704	0	261.7	4	98.8	4	-1E+10	1	-1E+10	1	-1E+10	1	-1E+10	1	-1E+10	1	-1E+10	1
4901784	180	C	06/08/2020	10:49	-132.222	43.063	0	50.80	0	11.5470	0	34.9490	8	26.637	0	50.390	0	262.4	4	98.7	4	-1E+10	1	-1E+10	1	-1E+10	1	-1E+10	1	-1E+10	1	-1E+10	1
4901784	180	C	06/08/2020	10:49	-132.222	43.063	0	52.50	0	11.4470	0	34.9590	8	26.663	0	52.077	0	262.9	4	98.7	4	-1E+10	1	-1E+10	1	-1E+10	1	-1E+10	1	-1E+10	1	-1E+10	1
4901784	180	C	06/08/2020	10:49	-132.222	43.063	0	54.40	0	11.2950	0	34.9670	8	26.698	0	53.961	0	263.5	4	98.6	4	-1E+10	1	-1E+10	1	-1E+10	1	-1E+10	1	-1E+10	1	-1E+10	1
4901784	180	C	06/08/2020	10:49	-132.222	43.063	0	56.20	0	11.1810	0	34.9730	8	26.723	0	55.746	0	263.7	4	98.5	4	-1E+10	1	-1E+10	1	-1E+10	1	-1E+10	1	-1E+10	1	-1E+10	1
4901784	180	C	06/08/2020	10:49	-132.222	43.063	0	58.10	0	11.1420	0	34.9830	8	26.738	0	57.631	0	263.8	4	98.4	4	-1E+10	1	-1E+10	1	-1E+10	1	-1E+10	1	-1E+10	1	-1E+10	1
4901784	180	C	06/08/2020	10:49	-132.222	43.063	0	59.90	0	11.0670	0	34.9800	8	26.750	0	59.416	0	263.9	4	98.3	4	-1E+10	1	-1E+10	1	-1E+10	1	-1E+10	1	-1E+10	1	-1E+10	1
4901784	180	C	06/08/2020	10:49	-132.222	43.063	0	61.80	0	11.0720	0	34.9780	8	26.747	0	61.300	0	263.4	4	98.1	4	-1E+10	1	-1E+10	1	-1E+10	1	-1E+10	1	-1E+10	1	-1E+10	1
4901784	180	C	06/08/2020	10:49	-132.222	43.063	0	63.70	0	10.9540	0	34.9830	8	26.773	0	63.184	0	263.3	4	97.8	4	-1E+10	1	-1E+10	1	-1E+10	1	-1E+10	1	-1E+10	1	-1E+10	1
4901784	180	C	06/08/2020	10:49	-132.222	43.063	0	65.60	0	10.8110	0	34.9680	8	26.787	0	65.069	0	263.7	4	97.7	4	-1E+10	1	-1E+10	1	-1E+10	1	-1E+10	1	-1E+10	1	-1E+10	1
4901784	180	C	06/08/2020	10:49	-132.222	43.063	0	67.50	0	10.7770	0	34.9760	8	26.799	0	66.953	0	263.2	4	97.4	4	-1E+10	1	-1E+10	1	-1E+10	1	-1E+10	1	-1E+10	1	-1E+10	1
4901784	180	C	06/08/2020	10:49	-132.222	43.063	0	69.40	0	10.7010	0	34.9730	8	26.810	0	68.837	0	263.4	4	97.3	4	-1E+10	1	-1E+10	1	-1E+10	1	-1E+10	1	-1E+10	1	-1E+10	1
4901784	180	C	06/08/2020	10:49	-132.222	43.063	0	71.30	0	10.6730	0	34.9720	8	26.815	0	70.722	0	262.9	4	97.1	4	-1E+10	1	-1E+10	1	-1E+10	1	-1E+10	1	-1E+10	1	-1E+10	1
4901784	180	C	06/08/2020	10:49	-132.222	43.063	0	73.20	0	10.6090	0	34.9730	8	26.827	0	72.606	0	262.7	4	96.9	4	-1E+10	1	-1E+10	1	-1E+10	1	-1E+10	1	-1E+10	1	-1E+10	1
4901784	180	C	06/08/2020	10:49	-132.222	43.063	0	75.10	0	10.5310	0	34.9700	8	26.838	0	74.490	0	262.6	4	96.7	4	-1E+10	1	-1E+10	1	-1E+10	1	-1E+10	1	-1E+10	1	-1E+10	1
4901784	180	C	06/08/2020	10:49	-132.222	43.063	0	77.00	0	10.4960	0	34.9750	8	26.848	0	76.374	0	262.2	4	96.5	4	-1E+10	1	-1E+10	1	-1E+10	1	-1E+10	1	-1E+10	1	-1E+10	1
4901784	180	C	06/08/2020	10:49	-132.222	43.063	0	78.80	0	10.4690	0	34.9740	8	26.852	0	78.159	0	261.8	4	96.3	4	-1E+10	1	-1E+10	1	-1E+10	1	-1E+10	1	-1E+10	1	-1E+10	1
4901784	180	C	06/08/2020	10:49	-132.222	43.063	0	80.60	0	10.4480	0	34.9730	8	26.855	0	79.944	0	261.2	4	96.0	4	-1E+10	1	-1E+10	1	-1E+10	1	-1E+10	1	-1E+10	1	-1E+10	1
4901784	180	C	06/08/2020	10:49	-132.222	43.063	0	82.60	0	10.4170	0	34.9740	8	26.862	0	81.928	0	260.6	4	95.7	4	-1E+10	1	-1E+10	1	-1E+10	1	-1E+10	1	-1E+10	1	-1E+10	1
4901784	180	C	06/08/2020	10:49	-132.222	43.063	0	84.30	0	10.3860	0	34.9730	8	26.866	0	83.614	0	260.2	4	95.5	4	-1E+10	1	-1E+10	1	-1E+10	1	-1E+10	1	-1E+10	1	-1E+10	1
4901784	180	C	06/08/2020	10:49	-132.222	43.063	0	86.20	0	10.3240	0	34.9730	8	26.877	0	85.498	0	259.9	4	95.3	4	-1E+10	1	-1E+10	1	-1E+10	1	-1E+10	1	-1E+10	1	-1E+10	1
4901784	180	C	06/08/2020	10:49	-132.222	43.063	0	88.00	0	10.2680	0	34.9700	8	26.885	0	87.283	0	259.6	4	95.1	4	-1E+10	1	-1E+10	1	-1E+10	1	-1E+10	1	-1E+10	1	-1E+10	1
4901784	180	C	06/08/2020	10:49	-132.222	43.063	0	89.80	0	10.2530	0	34.9680	8	26.886	0	89.068	0	259.2	4	94.9	4	-1E+10	1	-1E+10	1	-1E+10	1	-1E+10	1	-1E+10	1	-1E+10	1
4901784	180	C	06/08/2020	10:49	-132.222	43.063	0	91.70	0	10.1410	0	34.9660	8	26.903	0	90.952	0	258.9	4	94.5	4	-1E+10	1	-1E+10	1	-1E+10	1	-1E+10	1	-1E+10	1	-1E+10	1
4901784	180	C	06/08/2020	10:49	-132.222	43.063	0	93.40	0	10.1080	0	34.9650	8	26.908	0	92.637	0	258.5	4	94.3	4	-1E+10	1	-1E+10	1	-1E+10	1	-1E+10	1	-1E+10	1	-1E+10	1
4901784	180	C	06/08/2020	10:49	-132.222	43.063	0	95.30	0	10.1020	0	34.9650	8	26.909	0	94.521	0	257.8	4	94.1	4	-1E+10	1	-1E+10	1	-1E+10	1	-1E+10	1	-1E+10	1	-1E+10	1
4901784	180	C	06/08/2020	10:49	-132.222	43.063	0	97.00	0	10.0920	0	34.9650	8	26.911	0	96.207	0	256.9	4	93.7	4	-1E+10	1	-1E+10	1	-1E+10	1	-1E+10	1	-1E+10	1	-1E+10	1
4901784	180	C	06/08/2020	10:49	-132.222	43.063	0	98.80	0	10.0360	0	34.9660	8	26.922	0	97.992	0	255.8	4	93.2	4	-1E+10	1	-1E+10	1	-1E+10	1	-1E+10	1	-1E+10	1	-1E+10	1
4901784	180	C	06/08/2020	10:49	-132.222	43.063	0	102.40	0	10.0040	0	34.9840	8	26.941	0	101.562	0	253.8	4	92.4	4	-1E+10	1	-1E+10	1	-1E+10	1	-1E+10	1	-1E+10	1	-1E+10	1
4901784	180	C	06/08/2020	10:49	-132.222	43.063	0	105.00	0	9.9170	0	34.9780	8	26.951	0	104.140	0	252.1	4	91.6	4	-1E+10	1	-1E+10	1	-1E+10	1	-1E+10	1	-1E+10	1	-1E+10	1
4901784	180	C	06/08/2020	10:49	-132.222	43.063	0	107.60	0	9.8760	0	34.9920	8	26.969	0	106.718	0	249.2	4	90.5	4	-1E+10	1	-1E+10	1	-1E+10	1	-1E+10	1	-1E+10	1	-1E+10	1
4901784	180	C	06/08/2020	10:49	-132.222	43.063	0	109.80	0	9.8470	0	35.0060	8	26.985	0	108.899	0	246.4	4	89.4	4	-1E+10	1	-1E+10	1	-1E+10	1	-1E+10	1	-1E+10	1	-1E+10	1
4901784	180	C	06/08/2020	10:49	-132.222	43.063	0	112.10	0	9.7980	0	35.0370	8	27.018	0	111.180	0	243.3	4	88.2	4	-1E+10	1	-1E+10	1	-1E+10	1	-1E+10	1	-1E+10	1	-1E+10	1
4901784	180	C	06/08/2020	10:49	-132.222	43.063	0	114.90	0	9.6090	0	35.0600	8	27.068	0	113.956	0	241.0	4	87.1	4	-1E+10	1	-1E+10	1	-1E+10	1	-1E+10	1	-1E+10	1	-1E+10	1
4901784	180	C	06/08/2020	10:49	-132.222	43.063	0	117.70	0	9.4550	0	35.0600	8	27.093	0	116.732	0	238.3	4	85.8	4	-1E+10	1	-1E+10	1	-1E+10	1	-1E+10	1	-1E+10	1	-1E+10	1
4901784	180	C	06/08/2020	10:49	-132.222	43.063	0	120.00	0	9.3880	0	35.0710	8	27.113	0	119.013	0	234.8	4	84.4	4	-1E+10	1	-1E+10	1	-1E+10	1	-1E+10	1	-1E+10	1	-1E+10	1
4901784	180	C	06/08/2020	10:49	-132.222	43.063	0	122.40	0	9.2040	0	35.1690	8	27.220	0	121.392	0	232.0	4	83.1	4	-1E+10	1	-1E+10	1	-1E+10	1	-1E+10	1	-1E+10	1	-1E+10	1
4901784	180	C	06/08/2020	10:49	-132.222	43.063	0	124.80	0	9.1820	0	35.1900	8	27.240	0	123.772	0	229.6	4	82.2	4	-1E+10	1	-1E+10	1	-1E+10	1	-1E+10	1	-1E+10	1	-1E+10	1
4901784	180	C	06/08/2020	10:49	-132.222	43.063	0	127.10	0	9.0900	0	35.2500	8	27.302	0	126.052	0	226.9	4	81.2	4	-1E+10	1	-1E+10	1	-1E+10	1	-1E+10	1	-1E+10	1	-1E+10	1
4901784	180	C	06/08/2020	10:49	-132.222	43.063	0	130.40	0	9.0110	0	35.2980	8	27.352	0	129.324	0	224.3	4	80.1	4	-1E+10	1	-1E+10	1	-1E+10	1	-1E+10	1	-1E+10	1	-1E+10	1
4901784	180	C	06/08/2020	10:49	-132.222	43.063	0	132.90	0	8.9610	0	35.3220	8	27.379	0	131.802	0	222.1	4	79.3	4	-1E+10	1	-1E+10	1	-1E+10	1	-1E+10	1	-1E+10	1	-1E+10	1
4901784	180	C	06/08/2020	10:49	-132.222	43.063	0	134.70	0	8.9110	0	35.3700	8	27.425	0	133.587	0	220.8	4	78.8	4	-1E+10	1	-1E+10	1	-1E+10	1	-1E+10	1	-1E+10	1	-1E+10	1
4901784	180	C	06/08/2020	10:49	-132.222	43.063	0	137.40	0	8.8650	0	35.3960	8	27.453	0	136.264	0	219.0	4	78.0	4	-1E+10	1	-1E+10	1	-1E+10	1	-1E+10	1	-1E+10	1	-1E+10	1
4901784	180	C	06/08/2020	10:49	-132.222	43.063	0	139.60	0	8.7760	0	35.4330	8	27.496	0	138.445	0	217.2	4	77.3	4	-1E+10	1	-1E+10	1	-1E+10	1	-1E+10	1	-1E+10	1	-1E+10	1
4901784	180	C	06/08/2020	10:49	-132.222	43.063	0	142.60	0	8.6140	0	35.5230	8	27.592	0	141.419	0	214.9	4	76.2	4	-1E+10	1	-1E+10	1	-1E+10	1	-1E+10	1	-1E+10	1	-1E+10	1
4901784	180	C	06/08/2020	10:49	-132.222	43.063	0	144.90	0	8.4980	0	35.6160	8	27.684	0	143.699	0	214.1	4	75.8	4	-1E+10	1	-1E+10	1	-1E+10	1	-1E+10	1	-1E+10	1	-1E+10	1
4901784	180	C	06/08/2020	10:49	-132.222	43.063	0	147.10	0	8.4600	0	35.6470	8	27.714	0	145.880	0	213.4	4	75.5	4	-1E+10	1	-1E+10	1	-1E+10	1	-1E+10	1	-1E+10	1	-1E+10	1
4901784	180	C	06/08/2020	10:49	-132.222	43.063	0	150.10	0	8.4190	0	35.6830	8	27.749	0	148.854	0	212.4	4	75.1	4	-1E+10	1	-1E+10	1	-1E+10	1	-1E+10	1	-1E+10	1	-1E+10	1
4901784	180	C	06/08/2020	10:49	-132.222	43.063	0	152.40	0	8.3940	0	35.6960	8	27.763	0	151.134	0	211.7	4	74.8	4	-1E+10	1	-1E+10	1	-1E+10	1	-1E+10	1	-1E+10	1	-1E+10	1
4901784	180	C	06/08/2020	10:49	-132.222	43.063	0	154.60	0	8.3640	0	35.7150	8	27.782	0	153.315	0	210.9	4	74.5	4	-1E+10	1	-1E+10	1	-1E+10	1	-1E+10	1	-1E+10	1	-1E+10	1
4901784	180	C	06/08/2020	10:49	-132.222	43.063	0	157.70	0	8.3180	0	35.7450	8	27.813	0	156.388	0	209.2	4	73.8	4	-1E+10	1	-1E+10	1	-1E+10	1	-1E+10	1	-1E+10	1	-1E+10	1
4901784	180	C	06/08/2020	10:49	-132.222	43.063	0	160.30	0	8.2210	0	35.8120	8	27.881	0	158.965	0	208.2	4	73.3	4	-1E+10	1	-1E+10	1	-1E+10	1	-1E+10	1	-1E+10	1	-1E+10	1
4901784	180	C	06/08/2020	10:49	-132.222	43.063	0	162.80	0	8.1850	0	35.8280	8	27.899	0	161.444	0	207.1	4	72.9	4	-1E+10	1	-1E+10	1	-1E+10	1	-1E+10	1	-1E+10	1	-1E+10	1
4901784	180	C	06/08/2020	10:49	-132.222	43.063	0	165.40	0	8.0890	0	35.9010	8	27.971	0	164.021	0	206.0	4	72.4	4	-1E+10	1	-1E+10	1	-1E+10	1	-1E+10	1	-1E+10	1	-1E+10	1
4901784	180	C	06/08/2020	10:49	-132.222	43.063	0	167.20	0	8.0720	0	35.9370	8	28.002	0	165.805	0	205.5	4	72.2	4	-1E+10	1	-1E+10	1	-1E+10	1	-1E+10	1	-1E+10	1	-1E+10	1
4901784	180	C	06/08/2020	10:49	-132.222	43.063	0	169.90	0	8.0840	0	35.9840	8	28.037	0	168.482	0	204.4	4	71.9	4	-1E+10	1	-1E+10	1	-1E+10	1	-1E+10	1	-1E+10	1	-1E+10	1
4901784	180	C	06/08/2020	10:49	-132.222	43.063	0	172.40	0	8.0760	0	36.0340	8	28.078	0	170.960	0	203.2	4	71.5	4	-1E+10	1	-1E+10	1	-1E+10	1	-1E+10	1	-1E+10	1	-1E+10	1
4901784	180	C	06/08/2020	10:49	-132.222	43.063	0	175.00	0	8.0270	0	36.0730	8	28.116	0	173.537	0	202.4	4	71.1	4	-1E+10	1	-1E+10	1	-1E+10	1	-1E+10	1	-1E+10	1	-1E+10	1
4901784	180	C	06/08/2020	10:49	-132.222	43.063	0	177.70	0	8.0040	0	36.0920	8	28.134	0	176.213	0	201.6	4	70.8	4	-1E+10	1	-1E+10	1	-1E+10	1	-1E+10	1	-1E+10	1	-1E+10	1
4901784	180	C	06/08/2020	10:49	-132.222	43.063	0	180.30	0	7.9820	0	36.1070	8	28.150	0	178.790	0	201.2	4	70.7	4	-1E+10	1	-1E+10	1	-1E+10	1	-1E+10	1	-1E+10	1	-1E+10	1
4901784	180	C	06/08/2020	10:49	-132.222	43.063	0	182.90	0	7.9180	0	36.1470	8	28.191	0	181.367	0	201.1	4	70.5	4	-1E+10	1	-1E+10	1	-1E+10	1	-1E+10	1	-1E+10	1	-1E+10	1
4901784	180	C	06/08/2020	10:49	-132.222	43.063	0	184.60	0	7.9090	0	36.1560	8	28.199	0	183.052	0	200.8	4	70.4	4	-1E+10	1	-1E+10	1	-1E+10	1	-1E+10	1	-1E+10	1	-1E+10	1
4901784	180	C	06/08/2020	10:49	-132.222	43.063	0	187.50	0	7.8800	0	36.1930	8	28.233	0	185.927	0	200.4	4	70.3	4	-1E+10	1	-1E+10	1	-1E+10	1	-1E+10	1	-1E+10	1	-1E+10	1
4901784	180	C	06/08/2020	10:49	-132.222	43.063	0	190.00	0	7.8720	0	36.2050	8	28.244	0	188.405	0	199.9	4	70.1	4	-1E+10	1	-1E+10	1	-1E+10	1	-1E+10	1	-1E+10	1	-1E+10	1
4901784	180	C	06/08/2020	10:49	-132.222	43.063	0	192.30	0	7.8640	0	36.2230	8	28.259	0	190.684	0	198.8	4	69.7	4	-1E+10	1	-1E+10	1	-1E+10	1	-1E+10	1	-1E+10	1	-1E+10	1
4901784	180	C	06/08/2020	10:49	-132.222	43.063	0	194.60	0	7.8700	0	36.2330	8	28.266	0	192.964	0	197.7	4	69.3	4	-1E+10	1	-1E+10	1	-1E+10	1	-1E+10	1	-1E+10	1	-1E+10	1
4901784	180	C	06/08/2020	10:49	-132.222	43.063	0	197.70	0	7.8660	0	36.2580	8	28.286	0	196.036	0	196.7	4	69.0	4	-1E+10	1	-1E+10	1	-1E+10	1	-1E+10	1	-1E+10	1	-1E+10	1
4901784	180	C	06/08/2020	10:49	-132.222	43.063	0	200.00	0	7.8560	0	36.2870	8	28.311	0	198.316	0	195.5	4	68.6	4	-1E+10	1	-1E+10	1	-1E+10	1	-1E+10	1	-1E+10	1	-1E+10	1
4901784	180	C	06/08/2020	10:49	-132.222	43.063	0	202.40	0	7.8550	0	36.3090	8	28.328	0	200.695	0	194.3	4	68.2	4	-1E+10	1	-1E+10	1	-1E+10	1	-1E+10	1	-1E+10	1	-1E+10	1
4901784	180	C	06/08/2020	10:49	-132.222	43.063	0	204.70	0	7.8600	0	36.3230	8	28.338	0	202.974	0	193.0	4	67.7	4	-1E+10	1	-1E+10	1	-1E+10	1	-1E+10	1	-1E+10	1	-1E+10	1
4901784	180	C	06/08/2020	10:49	-132.222	43.063	0	207.20	0	7.8390	0	36.3490	8	28.362	0	205.452	0	191.2	4	67.1	4	-1E+10	1	-1E+10	1	-1E+10	1	-1E+10	1	-1E+10	1	-1E+10	1
4901784	180	C	06/08/2020	10:49	-132.222	43.063	0	209.70	0	7.8350	0	36.3790	8	28.386	0	207.929	0	189.0	4	66.3	4	-1E+10	1	-1E+10	1	-1E+10	1	-1E+10	1	-1E+10	1	-1E+10	1
4901784	180	C	06/08/2020	10:49	-132.222	43.063	0	212.10	0	7.8390	0	36.4010	8	28.403	0	210.308	0	187.2	4	65.7	4	-1E+10	1	-1E+10	1	-1E+10	1	-1E+10	1	-1E+10	1	-1E+10	1
4901784	180	C	06/08/2020	10:49	-132.222	43.063	0	215.40	0	7.8510	0	36.4250	8	28.420	0	213.578	0	184.7	4	64.8	4	-1E+10	1	-1E+10	1	-1E+10	1	-1E+10	1	-1E+10	1	-1E+10	1
4901784	180	C	06/08/2020	10:49	-132.222	43.063	0	217.90	0	7.8670	0	36.4390	8	28.429	0	216.056	0	182.7	4	64.2	4	-1E+10	1	-1E+10	1	-1E+10	1	-1E+10	1	-1E+10	1	-1E+10	1
4901784	180	C	06/08/2020	10:49	-132.222	43.063	0	219.60	0	7.8830	0	36.4500	8	28.435	0	217.741	0	181.2	4	63.7	4	-1E+10	1	-1E+10	1	-1E+10	1	-1E+10	1	-1E+10	1	-1E+10	1
4901784	180	C	06/08/2020	10:49	-132.222	43.063	0	222.10	0	7.8760	0	36.4740	8	28.455	0	220.218	0	179.1	4	62.9	4	-1E+10	1	-1E+10	1	-1E+10	1	-1E+10	1	-1E+10	1	-1E+10	1
4901784	180	C	06/08/2020	10:49	-132.222	43.063	0	224.60	0	7.8530	0	36.4830	8	28.466	0	222.696	0	178.0	4	62.5	4	-1E+10	1	-1E+10	1	-1E+10	1	-1E+10	1	-1E+10	1	-1E+10	1
4901784	180	C	06/08/2020	10:49	-132.222	43.063	0	227.20	0	7.8460	0	36.4840	8	28.467	0	225.272	0	176.9	4	62.1	4	-1E+10	1	-1E+10	1	-1E+10	1	-1E+10	1	-1E+10	1	-1E+10	1
4901784	180	C	06/08/2020	10:49	-132.222	43.063	0	229.80	0	7.8320	0	36.4860	8	28.471	0	227.849	0	175.5	4	61.6	4	-1E+10	1	-1E+10	1	-1E+10	1	-1E+10	1	-1E+10	1	-1E+10	1
4901784	180	C	06/08/2020	10:49	-132.222	43.063	0	232.40	0	7.8090	0	36.4900	8	28.478	0	230.425	0	173.6	4	60.9	4	-1E+10	1	-1E+10	1	-1E+10	1	-1E+10	1	-1E+10	1	-1E+10	1
4901784	180	C	06/08/2020	10:49	-132.222	43.063	0	234.90	0	7.7940	0	36.5010	8	28.489	0	232.902	0	171.5	4	60.2	4	-1E+10	1	-1E+10	1	-1E+10	1	-1E+10	1	-1E+10	1	-1E+10	1
4901784	180	C	06/08/2020	10:49	-132.222	43.063	0	237.50	0	7.7890	0	36.5090	8	28.496	0	235.479	0	169.6	4	59.5	4	-1E+10	1	-1E+10	1	-1E+10	1	-1E+10	1	-1E+10	1	-1E+10	1
4901784	180	C	06/08/2020	10:49	-132.222	43.063	0	240.20	0	7.7960	0	36.5180	8	28.502	0	238.154	0	167.4	4	58.7	4	-1E+10	1	-1E+10	1	-1E+10	1	-1E+10	1	-1E+10	1	-1E+10	1
4901784	180	C	06/08/2020	10:49	-132.222	43.063	0	242.90	0	7.7930	0	36.5230	8	28.506	0	240.830	0	166.2	4	58.3	4	-1E+10	1	-1E+10	1	-1E+10	1	-1E+10	1	-1E+10	1	-1E+10	1
4901784	180	C	06/08/2020	10:49	-132.222	43.063	0	245.60	0	7.7840	0	36.5280	8	28.512	0	243.505	0	165.0	4	57.9	4	-1E+10	1	-1E+10	1	-1E+10	1	-1E+10	1	-1E+10	1	-1E+10	1
4901784	180	C	06/08/2020	10:49	-132.222	43.063	0	247.30	0	7.7740	0	36.5310	8	28.516	0	245.190	0	164.4	4	57.7	4	-1E+10	1	-1E+10	1	-1E+10	1	-1E+10	1	-1E+10	1	-1E+10	1
4901784	180	C	06/08/2020	10:49	-132.222	43.063	0	250.00	0	7.7470	0	36.5330	8	28.521	0	247.865	0	163.6	4	57.3	4	-1E+10	1	-1E+10	1	-1E+10	1	-1E+10	1	-1E+10	1	-1E+10	1
4901784	180	C	06/08/2020	10:49	-132.222	43.063	0	252.70	0	7.6900	0	36.5330	8	28.530	0	250.540	0	162.4	4	56.9	4	-1E+10	1	-1E+10	1	-1E+10	1	-1E+10	1	-1E+10	1	-1E+10	1
4901784	180	C	06/08/2020	10:49	-132.222	43.063	0	255.30	0	7.6430	0	36.5360	8	28.539	0	253.116	0	160.3	4	56.0	4	-1E+10	1	-1E+10	1	-1E+10	1	-1E+10	1	-1E+10	1	-1E+10	1
4901784	180	C	06/08/2020	10:49	-132.222	43.063	0	258.10	0	7.5930	0	36.5410	8	28.551	0	255.891	0	158.6	4	55.4	4	-1E+10	1	-1E+10	1	-1E+10	1	-1E+10	1	-1E+10	1	-1E+10	1
4901784	180	C	06/08/2020	10:49	-132.222	43.063	0	259.90	0	7.5210	0	36.5440	8	28.564	0	257.674	0	158.0	4	55.1	4	-1E+10	1	-1E+10	1	-1E+10	1	-1E+10	1	-1E+10	1	-1E+10	1
4901784	180	C	06/08/2020	10:49	-132.222	43.063	0	262.70	0	7.4880	0	36.5490	8	28.573	0	260.448	0	157.1	4	54.8	4	-1E+10	1	-1E+10	1	-1E+10	1	-1E+10	1	-1E+10	1	-1E+10	1
4901784	180	C	06/08/2020	10:49	-132.222	43.063	0	265.40	0	7.4660	0	36.5490	8	28.576	0	263.124	0	156.4	4	54.5	4	-1E+10	1	-1E+10	1	-1E+10	1	-1E+10	1	-1E+10	1	-1E+10	1
4901784	180	C	06/08/2020	10:49	-132.222	43.063	0	267.30	0	7.4580	0	36.5480	8	28.577	0	265.006	0	156.0	4	54.3	4	-1E+10	1	-1E+10	1	-1E+10	1	-1E+10	1	-1E+10	1	-1E+10	1
4901784	180	C	06/08/2020	10:49	-132.222	43.063	0	270.10	0	7.4050	0	36.5490	8	28.585	0	267.780	0	154.8	4	53.9	4	-1E+10	1	-1E+10	1	-1E+10	1	-1E+10	1	-1E+10	1	-1E+10	1
4901784	180	C	06/08/2020	10:49	-132.222	43.063	0	272.90	0	7.3380	0	36.5500	8	28.596	0	270.554	0	154.0	4	53.5	4	-1E+10	1	-1E+10	1	-1E+10	1	-1E+10	1	-1E+10	1	-1E+10	1
4901784	180	C	06/08/2020	10:49	-132.222	43.063	0	274.70	0	7.3170	0	36.5510	8	28.600	0	272.338	0	153.5	4	53.3	4	-1E+10	1	-1E+10	1	-1E+10	1	-1E+10	1	-1E+10	1	-1E+10	1
4901784	180	C	06/08/2020	10:49	-132.222	43.063	0	277.50	0	7.2920	0	36.5510	8	28.603	0	275.112	0	152.5	4	52.9	4	-1E+10	1	-1E+10	1	-1E+10	1	-1E+10	1	-1E+10	1	-1E+10	1
4901784	180	C	06/08/2020	10:49	-132.222	43.063	0	280.30	0	7.2500	0	36.5520	8	28.610	0	277.886	0	151.5	4	52.5	4	-1E+10	1	-1E+10	1	-1E+10	1	-1E+10	1	-1E+10	1	-1E+10	1
4901784	180	C	06/08/2020	10:49	-132.222	43.063	0	282.20	0	7.2280	0	36.5510	8	28.613	0	279.768	0	150.9	4	52.3	4	-1E+10	1	-1E+10	1	-1E+10	1	-1E+10	1	-1E+10	1	-1E+10	1
4901784	180	C	06/08/2020	10:49	-132.222	43.063	0	285.00	0	7.2080	0	36.5500	8	28.615	0	282.542	0	149.7	4	51.8	4	-1E+10	1	-1E+10	1	-1E+10	1	-1E+10	1	-1E+10	1	-1E+10	1
4901784	180	C	06/08/2020	10:49	-132.222	43.063	0	287.90	0	7.1620	0	36.5490	8	28.621	0	285.415	0	148.5	4	51.4	4	-1E+10	1	-1E+10	1	-1E+10	1	-1E+10	1	-1E+10	1	-1E+10	1
4901784	180	C	06/08/2020	10:49	-132.222	43.063	0	289.80	0	7.1370	0	36.5470	8	28.623	0	287.297	0	147.7	4	51.1	4	-1E+10	1	-1E+10	1	-1E+10	1	-1E+10	1	-1E+10	1	-1E+10	1
4901784	180	C	06/08/2020	10:49	-132.222	43.063	0	292.70	0	7.0640	0	36.5480	8	28.634	0	290.170	0	146.6	4	50.6	4	-1E+10	1	-1E+10	1	-1E+10	1	-1E+10	1	-1E+10	1	-1E+10	1
4901784	180	C	06/08/2020	10:49	-132.222	43.063	0	295.60	0	7.0150	0	36.5480	8	28.641	0	293.043	0	145.3	4	50.1	4	-1E+10	1	-1E+10	1	-1E+10	1	-1E+10	1	-1E+10	1	-1E+10	1
4901784	180	C	06/08/2020	10:49	-132.222	43.063	0	297.40	0	6.9900	0	36.5460	8	28.643	0	294.826	0	144.4	4	49.7	4	-1E+10	1	-1E+10	1	-1E+10	1	-1E+10	1	-1E+10	1	-1E+10	1
4901784	180	C	06/08/2020	10:49	-132.222	43.063	0	299.40	0	6.9380	0	36.5460	8	28.651	0	296.808	0	143.4	4	49.4	4	-1E+10	1	-1E+10	1	-1E+10	1	-1E+10	1	-1E+10	1	-1E+10	1
4901784	180	C	06/08/2020	10:49	-132.222	43.063	0	302.20	0	6.8460	0	36.5510	8	28.668	0	299.581	0	142.5	4	48.9	4	-1E+10	1	-1E+10	1	-1E+10	1	-1E+10	1	-1E+10	1	-1E+10	1
4901784	180	C	06/08/2020	10:49	-132.222	43.063	0	305.70	0	6.8030	0	36.5490	8	28.672	0	303.048	0	141.8	4	48.7	4	-1E+10	1	-1E+10	1	-1E+10	1	-1E+10	1	-1E+10	1	-1E+10	1
4901784	180	C	06/08/2020	10:49	-132.222	43.063	0	307.60	0	6.7990	0	36.5480	8	28.672	0	304.931	0	141.1	4	48.4	4	-1E+10	1	-1E+10	1	-1E+10	1	-1E+10	1	-1E+10	1	-1E+10	1
4901784	180	C	06/08/2020	10:49	-132.222	43.063	0	310.10	0	6.7710	0	36.5450	8	28.674	0	307.407	0	140.0	4	48.0	4	-1E+10	1	-1E+10	1	-1E+10	1	-1E+10	1	-1E+10	1	-1E+10	1
4901784	180	C	06/08/2020	10:49	-132.222	43.063	0	312.50	0	6.7320	0	36.5430	8	28.677	0	309.784	0	138.5	4	47.4	4	-1E+10	1	-1E+10	1	-1E+10	1	-1E+10	1	-1E+10	1	-1E+10	1
4901784	180	C	06/08/2020	10:49	-132.222	43.063	0	315.00	0	6.6620	0	36.5440	8	28.688	0	312.261	0	136.7	4	46.7	4	-1E+10	1	-1E+10	1	-1E+10	1	-1E+10	1	-1E+10	1	-1E+10	1
4901784	180	C	06/08/2020	10:49	-132.222	43.063	0	317.40	0	6.5930	0	36.5460	8	28.699	0	314.638	0	135.2	4	46.2	4	-1E+10	1	-1E+10	1	-1E+10	1	-1E+10	1	-1E+10	1	-1E+10	1
4901784	180	C	06/08/2020	10:49	-132.222	43.063	0	319.90	0	6.5600	0	36.5460	8	28.704	0	317.114	0	133.7	4	45.6	4	-1E+10	1	-1E+10	1	-1E+10	1	-1E+10	1	-1E+10	1	-1E+10	1
4901784	180	C	06/08/2020	10:49	-132.222	43.063	0	322.30	0	6.5150	0	36.5500	8	28.713	0	319.492	0	132.3	4	45.1	4	-1E+10	1	-1E+10	1	-1E+10	1	-1E+10	1	-1E+10	1	-1E+10	1
4901784	180	C	06/08/2020	10:49	-132.222	43.063	0	324.80	0	6.4850	0	36.5490	8	28.717	0	321.968	0	130.9	4	44.6	4	-1E+10	1	-1E+10	1	-1E+10	1	-1E+10	1	-1E+10	1	-1E+10	1
4901784	180	C	06/08/2020	10:49	-132.222	43.063	0	327.20	0	6.4550	0	36.5510	8	28.722	0	324.345	0	129.6	4	44.1	4	-1E+10	1	-1E+10	1	-1E+10	1	-1E+10	1	-1E+10	1	-1E+10	1
4901784	180	C	06/08/2020	10:49	-132.222	43.063	0	329.70	0	6.4370	0	36.5500	8	28.724	0	326.821	0	128.2	4	43.6	4	-1E+10	1	-1E+10	1	-1E+10	1	-1E+10	1	-1E+10	1	-1E+10	1
4901784	180	C	06/08/2020	10:49	-132.222	43.063	0	332.10	0	6.4250	0	36.5480	8	28.724	0	329.199	0	126.4	4	43.0	4	-1E+10	1	-1E+10	1	-1E+10	1	-1E+10	1	-1E+10	1	-1E+10	1
4901784	180	C	06/08/2020	10:49	-132.222	43.063	0	334.60	0	6.3590	0	36.5490	8	28.734	0	331.675	0	124.1	4	42.2	4	-1E+10	1	-1E+10	1	-1E+10	1	-1E+10	1	-1E+10	1	-1E+10	1
4901784	180	C	06/08/2020	10:49	-132.222	43.063	0	337.10	0	6.2810	0	36.5540	8	28.748	0	334.151	0	122.1	4	41.4	4	-1E+10	1	-1E+10	1	-1E+10	1	-1E+10	1	-1E+10	1	-1E+10	1
4901784	180	C	06/08/2020	10:49	-132.222	43.063	0	339.70	0	6.2490	0	36.5570	8	28.755	0	336.726	0	120.9	4	41.0	4	-1E+10	1	-1E+10	1	-1E+10	1	-1E+10	1	-1E+10	1	-1E+10	1
4901784	180	C	06/08/2020	10:49	-132.222	43.063	0	342.10	0	6.2250	0	36.5590	8	28.760	0	339.103	0	119.7	4	40.5	4	-1E+10	1	-1E+10	1	-1E+10	1	-1E+10	1	-1E+10	1	-1E+10	1
4901784	180	C	06/08/2020	10:49	-132.222	43.063	0	344.70	0	6.2100	0	36.5590	8	28.762	0	341.678	0	118.7	4	40.2	4	-1E+10	1	-1E+10	1	-1E+10	1	-1E+10	1	-1E+10	1	-1E+10	1
4901784	180	C	06/08/2020	10:49	-132.222	43.063	0	347.20	0	6.1990	0	36.5580	8	28.763	0	344.154	0	117.3	4	39.7	4	-1E+10	1	-1E+10	1	-1E+10	1	-1E+10	1	-1E+10	1	-1E+10	1
4901784	180	C	06/08/2020	10:49	-132.222	43.063	0	349.80	0	6.1740	0	36.5600	8	28.768	0	346.729	0	115.4	4	39.0	4	-1E+10	1	-1E+10	1	-1E+10	1	-1E+10	1	-1E+10	1	-1E+10	1
4901784	180	C	06/08/2020	10:49	-132.222	43.063	0	352.30	0	6.1400	0	36.5630	8	28.774	0	349.205	0	113.7	4	38.4	4	-1E+10	1	-1E+10	1	-1E+10	1	-1E+10	1	-1E+10	1	-1E+10	1
4901784	180	C	06/08/2020	10:49	-132.222	43.063	0	354.80	0	6.1230	0	36.5630	8	28.777	0	351.681	0	112.6	4	38.0	4	-1E+10	1	-1E+10	1	-1E+10	1	-1E+10	1	-1E+10	1	-1E+10	1
4901784	180	C	06/08/2020	10:49	-132.222	43.063	0	357.40	0	6.0960	0	36.5630	8	28.780	0	354.256	0	111.5	4	37.7	4	-1E+10	1	-1E+10	1	-1E+10	1	-1E+10	1	-1E+10	1	-1E+10	1
4901784	180	C	06/08/2020	10:49	-132.222	43.063	0	359.90	0	6.0680	0	36.5630	8	28.784	0	356.732	0	110.2	4	37.2	4	-1E+10	1	-1E+10	1	-1E+10	1	-1E+10	1	-1E+10	1	-1E+10	1
4901784	180	C	06/08/2020	10:49	-132.222	43.063	0	362.50	0	6.0220	0	36.5650	8	28.792	0	359.307	0	109.3	4	36.8	4	-1E+10	1	-1E+10	1	-1E+10	1	-1E+10	1	-1E+10	1	-1E+10	1
4901784	180	C	06/08/2020	10:49	-132.222	43.063	0	365.10	0	5.9850	0	36.5650	8	28.797	0	361.881	0	108.7	4	36.6	4	-1E+10	1	-1E+10	1	-1E+10	1	-1E+10	1	-1E+10	1	-1E+10	1
4901784	180	C	06/08/2020	10:49	-132.222	43.063	0	367.70	0	5.9570	0	36.5660	8	28.801	0	364.456	0	107.9	4	36.3	4	-1E+10	1	-1E+10	1	-1E+10	1	-1E+10	1	-1E+10	1	-1E+10	1
4901784	180	C	06/08/2020	10:49	-132.222	43.063	0	370.30	0	5.9270	0	36.5640	8	28.804	0	367.031	0	106.8	4	35.9	4	-1E+10	1	-1E+10	1	-1E+10	1	-1E+10	1	-1E+10	1	-1E+10	1
4901784	180	C	06/08/2020	10:49	-132.222	43.063	0	372.90	0	5.8930	0	36.5660	8	28.810	0	369.606	0	105.5	4	35.4	4	-1E+10	1	-1E+10	1	-1E+10	1	-1E+10	1	-1E+10	1	-1E+10	1
4901784	180	C	06/08/2020	10:49	-132.222	43.063	0	374.50	0	5.8800	0	36.5680	8	28.813	0	371.190	0	104.2	4	35.0	4	-1E+10	1	-1E+10	1	-1E+10	1	-1E+10	1	-1E+10	1	-1E+10	1
4901784	180	C	06/08/2020	10:49	-132.222	43.063	0	377.10	0	5.8560	0	36.5670	8	28.815	0	373.765	0	103.0	4	34.6	4	-1E+10	1	-1E+10	1	-1E+10	1	-1E+10	1	-1E+10	1	-1E+10	1
4901784	180	C	06/08/2020	10:49	-132.222	43.063	0	379.70	0	5.8250	0	36.5650	8	28.818	0	376.339	0	101.4	4	34.0	4	-1E+10	1	-1E+10	1	-1E+10	1	-1E+10	1	-1E+10	1	-1E+10	1
4901784	180	C	06/08/2020	10:49	-132.222	43.063	0	382.30	0	5.7710	0	36.5690	8	28.828	0	378.914	0	99.5	4	33.4	4	-1E+10	1	-1E+10	1	-1E+10	1	-1E+10	1	-1E+10	1	-1E+10	1
4901784	180	C	06/08/2020	10:49	-132.222	43.063	0	385.00	0	5.7210	0	36.5720	8	28.837	0	381.588	0	97.8	4	32.7	4	-1E+10	1	-1E+10	1	-1E+10	1	-1E+10	1	-1E+10	1	-1E+10	1
4901784	180	C	06/08/2020	10:49	-132.222	43.063	0	387.50	0	5.6880	0	36.5730	8	28.842	0	384.063	0	96.1	4	32.2	4	-1E+10	1	-1E+10	1	-1E+10	1	-1E+10	1	-1E+10	1	-1E+10	1
4901784	180	C	06/08/2020	10:49	-132.222	43.063	0	390.10	0	5.6590	0	36.5750	8	28.847	0	386.638	0	94.4	4	31.6	4	-1E+10	1	-1E+10	1	-1E+10	1	-1E+10	1	-1E+10	1	-1E+10	1
4901784	180	C	06/08/2020	10:49	-132.222	43.063	0	392.80	0	5.6310	0	36.5780	8	28.853	0	389.311	0	93.3	4	31.2	4	-1E+10	1	-1E+10	1	-1E+10	1	-1E+10	1	-1E+10	1	-1E+10	1
4901784	180	C	06/08/2020	10:49	-132.222	43.063	0	395.50	0	5.6080	0	36.5780	8	28.856	0	391.985	0	92.3	4	30.8	4	-1E+10	1	-1E+10	1	-1E+10	1	-1E+10	1	-1E+10	1	-1E+10	1
4901784	180	C	06/08/2020	10:49	-132.222	43.063	0	397.20	0	5.6020	0	36.5780	8	28.857	0	393.668	0	91.2	4	30.5	4	-1E+10	1	-1E+10	1	-1E+10	1	-1E+10	1	-1E+10	1	-1E+10	1
4901784	180	C	06/08/2020	10:49	-132.222	43.063	0	399.80	0	5.5920	0	36.5820	8	28.861	0	396.242	0	89.6	4	29.9	4	-1E+10	1	-1E+10	1	-1E+10	1	-1E+10	1	-1E+10	1	-1E+10	1
4901784	180	C	06/08/2020	10:49	-132.222	43.063	0	402.50	0	5.5840	0	36.5820	8	28.862	0	398.916	0	88.3	4	29.5	4	-1E+10	1	-1E+10	1	-1E+10	1	-1E+10	1	-1E+10	1	-1E+10	1
4901784	180	C	06/08/2020	10:49	-132.222	43.063	0	405.10	0	5.5490	0	36.5830	8	28.868	0	401.490	0	87.0	4	29.0	4	-1E+10	1	-1E+10	1	-1E+10	1	-1E+10	1	-1E+10	1	-1E+10	1
4901784	180	C	06/08/2020	10:49	-132.222	43.063	0	407.60	0	5.5030	0	36.5830	8	28.873	0	403.965	0	85.5	4	28.5	4	-1E+10	1	-1E+10	1	-1E+10	1	-1E+10	1	-1E+10	1	-1E+10	1
4901784	180	C	06/08/2020	10:49	-132.222	43.063	0	410.30	0	5.4600	0	36.5880	8	28.883	0	406.639	0	84.3	4	28.1	4	-1E+10	1	-1E+10	1	-1E+10	1	-1E+10	1	-1E+10	1	-1E+10	1
4901784	180	C	06/08/2020	10:49	-132.222	43.063	0	412.90	0	5.4260	0	36.5920	8	28.890	0	409.213	0	83.4	4	27.7	4	-1E+10	1	-1E+10	1	-1E+10	1	-1E+10	1	-1E+10	1	-1E+10	1
4901784	180	C	06/08/2020	10:49	-132.222	43.063	0	414.70	0	5.4050	0	36.5940	8	28.895	0	410.995	0	83.1	4	27.6	4	-1E+10	1	-1E+10	1	-1E+10	1	-1E+10	1	-1E+10	1	-1E+10	1
4901784	180	C	06/08/2020	10:49	-132.222	43.063	0	417.30	0	5.4040	0	36.5940	8	28.895	0	413.569	0	82.4	4	27.4	4	-1E+10	1	-1E+10	1	-1E+10	1	-1E+10	1	-1E+10	1	-1E+10	1
4901784	180	C	06/08/2020	10:49	-132.222	43.063	0	419.90	0	5.4000	0	36.5940	8	28.895	0	416.143	0	81.6	4	27.1	4	-1E+10	1	-1E+10	1	-1E+10	1	-1E+10	1	-1E+10	1	-1E+10	1
4901784	180	C	06/08/2020	10:49	-132.222	43.063	0	422.50	0	5.3910	0	36.5950	8	28.897	0	418.717	0	80.5	4	26.7	4	-1E+10	1	-1E+10	1	-1E+10	1	-1E+10	1	-1E+10	1	-1E+10	1
4901784	180	C	06/08/2020	10:49	-132.222	43.063	0	425.00	0	5.3740	0	36.5960	8	28.900	0	421.193	0	79.3	4	26.4	4	-1E+10	1	-1E+10	1	-1E+10	1	-1E+10	1	-1E+10	1	-1E+10	1
4901784	180	C	06/08/2020	10:49	-132.222	43.063	0	427.70	0	5.3370	0	36.5990	8	28.907	0	423.866	0	78.3	4	26.0	4	-1E+10	1	-1E+10	1	-1E+10	1	-1E+10	1	-1E+10	1	-1E+10	1
4901784	180	C	06/08/2020	10:49	-132.222	43.063	0	430.30	0	5.3110	0	36.6000	8	28.911	0	426.440	0	77.5	4	25.7	4	-1E+10	1	-1E+10	1	-1E+10	1	-1E+10	1	-1E+10	1	-1E+10	1
4901784	180	C	06/08/2020	10:49	-132.222	43.063	0	432.00	0	5.2780	0	36.6000	8	28.915	0	428.123	0	77.1	4	25.6	4	-1E+10	1	-1E+10	1	-1E+10	1	-1E+10	1	-1E+10	1	-1E+10	1
4901784	180	C	06/08/2020	10:49	-132.222	43.063	0	434.70	0	5.2500	0	36.6040	8	28.922	0	430.796	0	76.5	4	25.3	4	-1E+10	1	-1E+10	1	-1E+10	1	-1E+10	1	-1E+10	1	-1E+10	1
4901784	180	C	06/08/2020	10:49	-132.222	43.063	0	437.40	0	5.2010	0	36.6040	8	28.928	0	433.469	0	76.1	4	25.2	4	-1E+10	1	-1E+10	1	-1E+10	1	-1E+10	1	-1E+10	1	-1E+10	1
4901784	180	C	06/08/2020	10:49	-132.222	43.063	0	440.10	0	5.1840	0	36.6040	8	28.930	0	436.141	0	75.2	4	24.9	4	-1E+10	1	-1E+10	1	-1E+10	1	-1E+10	1	-1E+10	1	-1E+10	1
4901784	180	C	06/08/2020	10:49	-132.222	43.063	0	442.60	0	5.1800	0	36.6070	8	28.933	0	438.616	0	74.1	4	24.5	4	-1E+10	1	-1E+10	1	-1E+10	1	-1E+10	1	-1E+10	1	-1E+10	1
4901784	180	C	06/08/2020	10:49	-132.222	43.063	0	445.20	0	5.1660	0	36.6080	8	28.935	0	441.190	0	73.1	4	24.2	4	-1E+10	1	-1E+10	1	-1E+10	1	-1E+10	1	-1E+10	1	-1E+10	1
4901784	180	C	06/08/2020	10:49	-132.222	43.063	0	447.80	0	5.1490	0	36.6090	8	28.938	0	443.764	0	71.9	4	23.7	4	-1E+10	1	-1E+10	1	-1E+10	1	-1E+10	1	-1E+10	1	-1E+10	1
4901784	180	C	06/08/2020	10:49	-132.222	43.063	0	449.60	0	5.1210	0	36.6130	8	28.945	0	445.546	0	71.1	4	23.5	4	-1E+10	1	-1E+10	1	-1E+10	1	-1E+10	1	-1E+10	1	-1E+10	1
4901784	180	C	06/08/2020	10:49	-132.222	43.063	0	452.20	0	5.0790	0	36.6160	8	28.952	0	448.120	0	70.4	4	23.2	4	-1E+10	1	-1E+10	1	-1E+10	1	-1E+10	1	-1E+10	1	-1E+10	1
4901784	180	C	06/08/2020	10:49	-132.222	43.063	0	454.70	0	5.0470	0	36.6180	8	28.958	0	450.594	0	69.8	4	23.0	4	-1E+10	1	-1E+10	1	-1E+10	1	-1E+10	1	-1E+10	1	-1E+10	1
4901784	180	C	06/08/2020	10:49	-132.222	43.063	0	457.40	0	5.0200	0	36.6180	8	28.961	0	453.267	0	69.2	4	22.8	4	-1E+10	1	-1E+10	1	-1E+10	1	-1E+10	1	-1E+10	1	-1E+10	1
4901784	180	C	06/08/2020	10:49	-132.222	43.063	0	460.10	0	5.0000	0	36.6200	8	28.965	0	455.940	0	68.3	4	22.5	4	-1E+10	1	-1E+10	1	-1E+10	1	-1E+10	1	-1E+10	1	-1E+10	1
4901784	180	C	06/08/2020	10:49	-132.222	43.063	0	462.80	0	4.9880	0	36.6230	8	28.969	0	458.612	0	67.6	4	22.2	4	-1E+10	1	-1E+10	1	-1E+10	1	-1E+10	1	-1E+10	1	-1E+10	1
4901784	180	C	06/08/2020	10:49	-132.222	43.063	0	465.30	0	4.9760	0	36.6230	8	28.971	0	461.087	0	66.9	4	22.0	4	-1E+10	1	-1E+10	1	-1E+10	1	-1E+10	1	-1E+10	1	-1E+10	1
4901784	180	C	06/08/2020	10:49	-132.222	43.063	0	467.00	0	4.9690	0	36.6240	8	28.972	0	462.769	0	66.3	4	21.8	4	-1E+10	1	-1E+10	1	-1E+10	1	-1E+10	1	-1E+10	1	-1E+10	1
4901784	180	C	06/08/2020	10:49	-132.222	43.063	0	469.60	0	4.9360	0	36.6290	8	28.980	0	465.343	0	65.4	4	21.5	4	-1E+10	1	-1E+10	1	-1E+10	1	-1E+10	1	-1E+10	1	-1E+10	1
4901784	180	C	06/08/2020	10:49	-132.222	43.063	0	472.20	0	4.9330	0	36.6300	8	28.981	0	467.917	0	64.6	4	21.2	4	-1E+10	1	-1E+10	1	-1E+10	1	-1E+10	1	-1E+10	1	-1E+10	1
4901784	180	C	06/08/2020	10:49	-132.222	43.063	0	474.90	0	4.9160	0	36.6320	8	28.985	0	470.589	0	63.5	4	20.9	4	-1E+10	1	-1E+10	1	-1E+10	1	-1E+10	1	-1E+10	1	-1E+10	1
4901784	180	C	06/08/2020	10:49	-132.222	43.063	0	477.50	0	4.9010	0	36.6330	8	28.988	0	473.162	0	62.1	4	20.4	4	-1E+10	1	-1E+10	1	-1E+10	1	-1E+10	1	-1E+10	1	-1E+10	1
4901784	180	C	06/08/2020	10:49	-132.222	43.063	0	480.10	0	4.8740	0	36.6390	8	28.996	0	475.736	0	60.7	4	19.9	4	-1E+10	1	-1E+10	1	-1E+10	1	-1E+10	1	-1E+10	1	-1E+10	1
4901784	180	C	06/08/2020	10:49	-132.222	43.063	0	482.70	0	4.8590	0	36.6430	8	29.001	0	478.309	0	59.5	4	19.5	4	-1E+10	1	-1E+10	1	-1E+10	1	-1E+10	1	-1E+10	1	-1E+10	1
4901784	180	C	06/08/2020	10:49	-132.222	43.063	0	485.40	0	4.8420	0	36.6460	8	29.005	0	480.982	0	58.2	4	19.1	4	-1E+10	1	-1E+10	1	-1E+10	1	-1E+10	1	-1E+10	1	-1E+10	1
4901784	180	C	06/08/2020	10:49	-132.222	43.063	0	488.00	0	4.8190	0	36.6490	8	29.010	0	483.555	0	56.5	4	18.5	4	-1E+10	1	-1E+10	1	-1E+10	1	-1E+10	1	-1E+10	1	-1E+10	1
4901784	180	C	06/08/2020	10:49	-132.222	43.063	0	489.80	0	4.8000	0	36.6580	8	29.019	0	485.336	0	55.5	4	18.2	4	-1E+10	1	-1E+10	1	-1E+10	1	-1E+10	1	-1E+10	1	-1E+10	1
4901784	180	C	06/08/2020	10:49	-132.222	43.063	0	492.40	0	4.7960	0	36.6590	8	29.021	0	487.910	0	54.3	4	17.8	4	-1E+10	1	-1E+10	1	-1E+10	1	-1E+10	1	-1E+10	1	-1E+10	1
4901784	180	C	06/08/2020	10:49	-132.222	43.063	0	495.10	0	4.7910	0	36.6620	8	29.024	0	490.582	0	52.7	4	17.3	4	-1E+10	1	-1E+10	1	-1E+10	1	-1E+10	1	-1E+10	1	-1E+10	1
4901784	180	C	06/08/2020	10:49	-132.222	43.063	0	497.70	0	4.7650	0	36.6720	8	29.035	0	493.155	0	50.9	4	16.7	4	-1E+10	1	-1E+10	1	-1E+10	1	-1E+10	1	-1E+10	1	-1E+10	1
4901784	180	C	06/08/2020	10:49	-132.222	43.063	0	500.40	0	4.7930	0	36.6740	8	29.033	0	495.827	0	49.2	4	16.1	4	-1E+10	1	-1E+10	1	-1E+10	1	-1E+10	1	-1E+10	1	-1E+10	1
4901784	180	C	06/08/2020	10:49	-132.222	43.063	0	504.90	0	4.7860	0	36.6890	8	29.046	0	500.281	0	47.7	4	15.6	4	-1E+10	1	-1E+10	1	-1E+10	1	-1E+10	1	-1E+10	1	-1E+10	1
4901784	180	C	06/08/2020	10:49	-132.222	43.063	0	509.30	0	4.7710	0	36.6940	8	29.052	0	504.635	0	46.3	4	15.2	4	-1E+10	1	-1E+10	1	-1E+10	1	-1E+10	1	-1E+10	1	-1E+10	1
4901784	180	C	06/08/2020	10:49	-132.222	43.063	0	514.80	0	4.7480	0	36.6980	8	29.058	0	510.078	0	44.6	4	14.6	4	-1E+10	1	-1E+10	1	-1E+10	1	-1E+10	1	-1E+10	1	-1E+10	1
4901784	180	C	06/08/2020	10:49	-132.222	43.063	0	520.20	0	4.7220	0	36.7080	8	29.069	0	515.422	0	42.9	4	14.0	4	-1E+10	1	-1E+10	1	-1E+10	1	-1E+10	1	-1E+10	1	-1E+10	1
4901784	180	C	06/08/2020	10:49	-132.222	43.063	0	525.60	0	4.7020	0	36.7130	8	29.075	0	520.765	0	41.5	4	13.6	4	-1E+10	1	-1E+10	1	-1E+10	1	-1E+10	1	-1E+10	1	-1E+10	1
4901784	180	C	06/08/2020	10:49	-132.222	43.063	0	530.20	0	4.6830	0	36.7190	8	29.082	0	525.317	0	40.4	4	13.2	4	-1E+10	1	-1E+10	1	-1E+10	1	-1E+10	1	-1E+10	1	-1E+10	1
4901784	180	C	06/08/2020	10:49	-132.222	43.063	0	534.80	0	4.6630	0	36.7250	8	29.089	0	529.869	0	39.2	4	12.8	4	-1E+10	1	-1E+10	1	-1E+10	1	-1E+10	1	-1E+10	1	-1E+10	1
4901784	180	C	06/08/2020	10:49	-132.222	43.063	0	540.20	0	4.6680	0	36.7300	8	29.093	0	535.212	0	37.9	4	12.4	4	-1E+10	1	-1E+10	1	-1E+10	1	-1E+10	1	-1E+10	1	-1E+10	1
4901784	180	C	06/08/2020	10:49	-132.222	43.063	0	545.40	0	4.6670	0	36.7370	8	29.098	0	540.357	0	36.5	4	11.9	4	-1E+10	1	-1E+10	1	-1E+10	1	-1E+10	1	-1E+10	1	-1E+10	1
4901784	180	C	06/08/2020	10:49	-132.222	43.063	0	549.60	0	4.6390	0	36.7430	8	29.106	0	544.513	0	35.5	4	11.6	4	-1E+10	1	-1E+10	1	-1E+10	1	-1E+10	1	-1E+10	1	-1E+10	1
4901784	180	C	06/08/2020	10:49	-132.222	43.063	0	555.10	0	4.6120	0	36.7490	8	29.114	0	549.955	0	33.8	4	11.0	4	-1E+10	1	-1E+10	1	-1E+10	1	-1E+10	1	-1E+10	1	-1E+10	1
4901784	180	C	06/08/2020	10:49	-132.222	43.063	0	560.70	0	4.6120	0	36.7600	8	29.123	0	555.496	0	31.4	4	10.3	4	-1E+10	1	-1E+10	1	-1E+10	1	-1E+10	1	-1E+10	1	-1E+10	1
4901784	180	C	06/08/2020	10:49	-132.222	43.063	0	565.50	0	4.6620	0	36.7750	8	29.129	0	560.244	0	29.6	4	9.7	4	-1E+10	1	-1E+10	1	-1E+10	1	-1E+10	1	-1E+10	1	-1E+10	1
4901784	180	C	06/08/2020	10:49	-132.222	43.063	0	570.30	0	4.6450	0	36.7810	8	29.136	0	564.993	0	28.4	4	9.3	4	-1E+10	1	-1E+10	1	-1E+10	1	-1E+10	1	-1E+10	1	-1E+10	1
4901784	180	C	06/08/2020	10:49	-132.222	43.063	0	575.30	0	4.6300	0	36.7890	8	29.144	0	569.940	0	27.1	4	8.9	4	-1E+10	1	-1E+10	1	-1E+10	1	-1E+10	1	-1E+10	1	-1E+10	1
4901784	180	C	06/08/2020	10:49	-132.222	43.063	0	580.20	0	4.6110	0	36.7960	8	29.152	0	574.788	0	26.2	4	8.6	4	-1E+10	1	-1E+10	1	-1E+10	1	-1E+10	1	-1E+10	1	-1E+10	1
4901784	180	C	06/08/2020	10:49	-132.222	43.063	0	585.30	0	4.5830	0	36.8010	8	29.159	0	579.833	0	25.6	4	8.4	4	-1E+10	1	-1E+10	1	-1E+10	1	-1E+10	1	-1E+10	1	-1E+10	1
4901784	180	C	06/08/2020	10:49	-132.222	43.063	0	590.30	0	4.5540	0	36.8010	8	29.163	0	584.779	0	25.2	4	8.2	4	-1E+10	1	-1E+10	1	-1E+10	1	-1E+10	1	-1E+10	1	-1E+10	1
4901784	180	C	06/08/2020	10:49	-132.222	43.063	0	595.30	0	4.5170	0	36.8070	8	29.172	0	589.725	0	24.3	4	7.9	4	-1E+10	1	-1E+10	1	-1E+10	1	-1E+10	1	-1E+10	1	-1E+10	1
4901784	180	C	06/08/2020	10:49	-132.222	43.063	0	600.50	0	4.5070	0	36.8120	8	29.177	0	594.869	0	23.6	4	7.7	4	-1E+10	1	-1E+10	1	-1E+10	1	-1E+10	1	-1E+10	1	-1E+10	1
4901784	180	C	06/08/2020	10:49	-132.222	43.063	0	605.70	0	4.4760	0	36.8160	8	29.184	0	600.013	0	22.9	4	7.5	4	-1E+10	1	-1E+10	1	-1E+10	1	-1E+10	1	-1E+10	1	-1E+10	1
4901784	180	C	06/08/2020	10:49	-132.222	43.063	0	610.10	0	4.4370	0	36.8210	8	29.192	0	604.365	0	22.4	4	7.3	4	-1E+10	1	-1E+10	1	-1E+10	1	-1E+10	1	-1E+10	1	-1E+10	1
4901784	180	C	06/08/2020	10:49	-132.222	43.063	0	614.50	0	4.4160	0	36.8240	8	29.197	0	608.717	0	22.0	4	7.2	4	-1E+10	1	-1E+10	1	-1E+10	1	-1E+10	1	-1E+10	1	-1E+10	1
4901784	180	C	06/08/2020	10:49	-132.222	43.063	0	619.80	0	4.3960	0	36.8290	8	29.203	0	613.960	0	21.5	4	7.0	4	-1E+10	1	-1E+10	1	-1E+10	1	-1E+10	1	-1E+10	1	-1E+10	1
4901784	180	C	06/08/2020	10:49	-132.222	43.063	0	625.10	0	4.3790	0	36.8310	8	29.207	0	619.202	0	21.1	4	6.9	4	-1E+10	1	-1E+10	1	-1E+10	1	-1E+10	1	-1E+10	1	-1E+10	1
4901784	180	C	06/08/2020	10:49	-132.222	43.063	0	630.50	0	4.3610	0	36.8340	8	29.211	0	624.543	0	20.6	4	6.7	4	-1E+10	1	-1E+10	1	-1E+10	1	-1E+10	1	-1E+10	1	-1E+10	1
4901784	180	C	06/08/2020	10:49	-132.222	43.063	0	635.10	0	4.3390	0	36.8380	8	29.217	0	629.092	0	20.2	4	6.6	4	-1E+10	1	-1E+10	1	-1E+10	1	-1E+10	1	-1E+10	1	-1E+10	1
4901784	180	C	06/08/2020	10:49	-132.222	43.063	0	639.70	0	4.3260	0	36.8420	8	29.222	0	633.642	0	19.7	4	6.4	4	-1E+10	1	-1E+10	1	-1E+10	1	-1E+10	1	-1E+10	1	-1E+10	1
4901784	180	C	06/08/2020	10:49	-132.222	43.063	0	644.90	0	4.3150	0	36.8480	8	29.228	0	638.785	0	19.3	4	6.3	4	-1E+10	1	-1E+10	1	-1E+10	1	-1E+10	1	-1E+10	1	-1E+10	1
4901784	180	C	06/08/2020	10:49	-132.222	43.063	0	649.50	0	4.3080	0	36.8510	8	29.231	0	643.334	0	18.8	4	6.1	4	-1E+10	1	-1E+10	1	-1E+10	1	-1E+10	1	-1E+10	1	-1E+10	1
4901784	180	C	06/08/2020	10:49	-132.222	43.063	0	654.30	0	4.3060	0	36.8580	8	29.237	0	648.081	0	18.2	4	5.9	4	-1E+10	1	-1E+10	1	-1E+10	1	-1E+10	1	-1E+10	1	-1E+10	1
4901784	180	C	06/08/2020	10:49	-132.222	43.063	0	659.20	0	4.3050	0	36.8640	8	29.242	0	652.927	0	17.6	4	5.7	4	-1E+10	1	-1E+10	1	-1E+10	1	-1E+10	1	-1E+10	1	-1E+10	1
4901784	180	C	06/08/2020	10:49	-132.222	43.063	0	664.20	0	4.2970	0	36.8680	8	29.246	0	657.871	0	17.1	4	5.6	4	-1E+10	1	-1E+10	1	-1E+10	1	-1E+10	1	-1E+10	1	-1E+10	1
4901784	180	C	06/08/2020	10:49	-132.222	43.063	0	670.00	0	4.2670	0	36.8740	8	29.254	0	663.607	0	16.6	4	5.4	4	-1E+10	1	-1E+10	1	-1E+10	1	-1E+10	1	-1E+10	1	-1E+10	1
4901784	180	C	06/08/2020	10:49	-132.222	43.063	0	675.70	0	4.2210	0	36.8800	8	29.264	0	669.243	0	16.1	4	5.2	4	-1E+10	1	-1E+10	1	-1E+10	1	-1E+10	1	-1E+10	1	-1E+10	1
4901784	180	C	06/08/2020	10:49	-132.222	43.063	0	680.70	0	4.1980	0	36.8850	8	29.271	0	674.187	0	15.9	4	5.1	4	-1E+10	1	-1E+10	1	-1E+10	1	-1E+10	1	-1E+10	1	-1E+10	1
4901784	180	C	06/08/2020	10:49	-132.222	43.063	0	684.90	0	4.1870	0	36.8880	8	29.274	0	678.340	0	15.7	4	5.1	4	-1E+10	1	-1E+10	1	-1E+10	1	-1E+10	1	-1E+10	1	-1E+10	1
4901784	180	C	06/08/2020	10:49	-132.222	43.063	0	689.20	0	4.1800	0	36.8880	8	29.275	0	682.592	0	15.6	4	5.0	4	-1E+10	1	-1E+10	1	-1E+10	1	-1E+10	1	-1E+10	1	-1E+10	1
4901784	180	C	06/08/2020	10:49	-132.222	43.063	0	694.30	0	4.1730	0	36.8890	8	29.277	0	687.635	0	15.2	4	4.9	4	-1E+10	1	-1E+10	1	-1E+10	1	-1E+10	1	-1E+10	1	-1E+10	1
4901784	180	C	06/08/2020	10:49	-132.222	43.063	0	699.30	0	4.1560	0	36.8960	8	29.284	0	692.579	0	14.8	4	4.8	4	-1E+10	1	-1E+10	1	-1E+10	1	-1E+10	1	-1E+10	1	-1E+10	1
4901784	180	C	06/08/2020	10:49	-132.222	43.063	0	704.30	0	4.1430	0	36.9010	8	29.290	0	697.522	0	14.5	4	4.7	4	-1E+10	1	-1E+10	1	-1E+10	1	-1E+10	1	-1E+10	1	-1E+10	1
4901784	180	C	06/08/2020	10:49	-132.222	43.063	0	709.50	0	4.1240	0	36.9070	8	29.297	0	702.663	0	14.2	4	4.6	4	-1E+10	1	-1E+10	1	-1E+10	1	-1E+10	1	-1E+10	1	-1E+10	1
4901784	180	C	06/08/2020	10:49	-132.222	43.063	0	714.80	0	4.1060	0	36.9120	8	29.303	0	707.903	0	13.9	4	4.5	4	-1E+10	1	-1E+10	1	-1E+10	1	-1E+10	1	-1E+10	1	-1E+10	1
4901784	180	C	06/08/2020	10:49	-132.222	43.063	0	719.90	0	4.0910	0	36.9170	8	29.308	0	712.945	0	13.7	4	4.4	4	-1E+10	1	-1E+10	1	-1E+10	1	-1E+10	1	-1E+10	1	-1E+10	1
4901784	180	C	06/08/2020	10:49	-132.222	43.063	0	725.00	0	4.0820	0	36.9210	8	29.313	0	717.987	0	13.4	4	4.3	4	-1E+10	1	-1E+10	1	-1E+10	1	-1E+10	1	-1E+10	1	-1E+10	1
4901784	180	C	06/08/2020	10:49	-132.222	43.063	0	730.20	0	4.0720	0	36.9260	8	29.318	0	723.128	0	13.2	4	4.2	4	-1E+10	1	-1E+10	1	-1E+10	1	-1E+10	1	-1E+10	1	-1E+10	1
4901784	180	C	06/08/2020	10:49	-132.222	43.063	0	735.30	0	4.0580	0	36.9310	8	29.323	0	728.170	0	12.9	4	4.2	4	-1E+10	1	-1E+10	1	-1E+10	1	-1E+10	1	-1E+10	1	-1E+10	1
4901784	180	C	06/08/2020	10:49	-132.222	43.063	0	740.60	0	4.0400	0	36.9360	8	29.329	0	733.409	0	12.8	4	4.1	4	-1E+10	1	-1E+10	1	-1E+10	1	-1E+10	1	-1E+10	1	-1E+10	1
4901784	180	C	06/08/2020	10:49	-132.222	43.063	0	745.00	0	4.0290	0	36.9380	8	29.332	0	737.759	0	12.7	4	4.1	4	-1E+10	1	-1E+10	1	-1E+10	1	-1E+10	1	-1E+10	1	-1E+10	1
4901784	180	C	06/08/2020	10:49	-132.222	43.063	0	749.40	0	4.0170	0	36.9400	8	29.335	0	742.108	0	12.6	4	4.1	4	-1E+10	1	-1E+10	1	-1E+10	1	-1E+10	1	-1E+10	1	-1E+10	1
4901784	180	C	06/08/2020	10:49	-132.222	43.063	0	754.80	0	4.0070	0	36.9440	8	29.339	0	747.446	0	12.4	4	4.0	4	-1E+10	1	-1E+10	1	-1E+10	1	-1E+10	1	-1E+10	1	-1E+10	1
4901784	180	C	06/08/2020	10:49	-132.222	43.063	0	760.10	0	3.9980	0	36.9460	8	29.342	0	752.685	0	12.3	4	4.0	4	-1E+10	1	-1E+10	1	-1E+10	1	-1E+10	1	-1E+10	1	-1E+10	1
4901784	180	C	06/08/2020	10:49	-132.222	43.063	0	765.40	0	3.9860	0	36.9510	8	29.347	0	757.923	0	12.1	4	3.9	4	-1E+10	1	-1E+10	1	-1E+10	1	-1E+10	1	-1E+10	1	-1E+10	1
4901784	180	C	06/08/2020	10:49	-132.222	43.063	0	770.70	0	3.9780	0	36.9540	8	29.351	0	763.162	0	12.0	4	3.9	4	-1E+10	1	-1E+10	1	-1E+10	1	-1E+10	1	-1E+10	1	-1E+10	1
4901784	180	C	06/08/2020	10:49	-132.222	43.063	0	775.10	0	3.9680	0	36.9570	8	29.354	0	767.511	0	11.9	4	3.8	4	-1E+10	1	-1E+10	1	-1E+10	1	-1E+10	1	-1E+10	1	-1E+10	1
4901784	180	C	06/08/2020	10:49	-132.222	43.063	0	779.60	0	3.9560	0	36.9610	8	29.359	0	771.958	0	11.8	4	3.8	4	-1E+10	1	-1E+10	1	-1E+10	1	-1E+10	1	-1E+10	1	-1E+10	1
4901784	180	C	06/08/2020	10:49	-132.222	43.063	0	785.00	0	3.9490	0	36.9640	8	29.362	0	777.295	0	11.6	4	3.7	4	-1E+10	1	-1E+10	1	-1E+10	1	-1E+10	1	-1E+10	1	-1E+10	1
4901784	180	C	06/08/2020	10:49	-132.222	43.063	0	790.40	0	3.9410	0	36.9690	8	29.367	0	782.632	0	11.5	4	3.7	4	-1E+10	1	-1E+10	1	-1E+10	1	-1E+10	1	-1E+10	1	-1E+10	1
4901784	180	C	06/08/2020	10:49	-132.222	43.063	0	794.90	0	3.9400	0	36.9720	8	29.369	0	787.079	0	11.4	4	3.7	4	-1E+10	1	-1E+10	1	-1E+10	1	-1E+10	1	-1E+10	1	-1E+10	1
4901784	180	C	06/08/2020	10:49	-132.222	43.063	0	799.50	0	3.9350	0	36.9740	8	29.372	0	791.625	0	11.3	4	3.6	4	-1E+10	1	-1E+10	1	-1E+10	1	-1E+10	1	-1E+10	1	-1E+10	1
4901784	180	C	06/08/2020	10:49	-132.222	43.063	0	804.90	0	3.9250	0	36.9790	8	29.377	0	796.962	0	11.1	4	3.6	4	-1E+10	1	-1E+10	1	-1E+10	1	-1E+10	1	-1E+10	1	-1E+10	1
4901784	180	C	06/08/2020	10:49	-132.222	43.063	0	810.30	0	3.9100	0	36.9830	8	29.382	0	802.298	0	11.0	4	3.5	4	-1E+10	1	-1E+10	1	-1E+10	1	-1E+10	1	-1E+10	1	-1E+10	1
4901784	180	C	06/08/2020	10:49	-132.222	43.063	0	814.90	0	3.9010	0	36.9860	8	29.385	0	806.844	0	10.9	4	3.5	4	-1E+10	1	-1E+10	1	-1E+10	1	-1E+10	1	-1E+10	1	-1E+10	1
4901784	180	C	06/08/2020	10:49	-132.222	43.063	0	819.40	0	3.8870	0	36.9900	8	29.390	0	811.291	0	10.9	4	3.5	4	-1E+10	1	-1E+10	1	-1E+10	1	-1E+10	1	-1E+10	1	-1E+10	1
4901784	180	C	06/08/2020	10:49	-132.222	43.063	0	824.80	0	3.8670	0	36.9940	8	29.395	0	816.627	0	10.8	4	3.5	4	-1E+10	1	-1E+10	1	-1E+10	1	-1E+10	1	-1E+10	1	-1E+10	1
4901784	180	C	06/08/2020	10:49	-132.222	43.063	0	830.20	0	3.8580	0	36.9970	8	29.398	0	821.963	0	10.7	4	3.4	4	-1E+10	1	-1E+10	1	-1E+10	1	-1E+10	1	-1E+10	1	-1E+10	1
4901784	180	C	06/08/2020	10:49	-132.222	43.063	0	835.50	0	3.8500	0	37.0010	8	29.403	0	827.200	0	10.6	4	3.4	4	-1E+10	1	-1E+10	1	-1E+10	1	-1E+10	1	-1E+10	1	-1E+10	1
4901784	180	C	06/08/2020	10:49	-132.222	43.063	0	840.00	0	3.8430	0	37.0030	8	29.405	0	831.646	0	10.5	4	3.4	4	-1E+10	1	-1E+10	1	-1E+10	1	-1E+10	1	-1E+10	1	-1E+10	1
4901784	180	C	06/08/2020	10:49	-132.222	43.063	0	844.40	0	3.8290	0	37.0060	8	29.409	0	835.993	0	10.5	4	3.4	4	-1E+10	1	-1E+10	1	-1E+10	1	-1E+10	1	-1E+10	1	-1E+10	1
4901784	180	C	06/08/2020	10:49	-132.222	43.063	0	849.80	0	3.8080	0	37.0120	8	29.416	0	841.329	0	10.4	4	3.3	4	-1E+10	1	-1E+10	1	-1E+10	1	-1E+10	1	-1E+10	1	-1E+10	1
4901784	180	C	06/08/2020	10:49	-132.222	43.063	0	855.10	0	3.8030	0	37.0140	8	29.418	0	846.565	0	10.4	4	3.3	4	-1E+10	1	-1E+10	1	-1E+10	1	-1E+10	1	-1E+10	1	-1E+10	1
4901784	180	C	06/08/2020	10:49	-132.222	43.063	0	860.50	0	3.7940	0	37.0170	8	29.422	0	851.900	0	10.3	4	3.3	4	-1E+10	1	-1E+10	1	-1E+10	1	-1E+10	1	-1E+10	1	-1E+10	1
4901784	180	C	06/08/2020	10:49	-132.222	43.063	0	865.00	0	3.7830	0	37.0200	8	29.425	0	856.346	0	10.3	4	3.3	4	-1E+10	1	-1E+10	1	-1E+10	1	-1E+10	1	-1E+10	1	-1E+10	1
4901784	180	C	06/08/2020	10:49	-132.222	43.063	0	869.50	0	3.7680	0	37.0240	8	29.430	0	860.792	0	10.2	4	3.3	4	-1E+10	1	-1E+10	1	-1E+10	1	-1E+10	1	-1E+10	1	-1E+10	1
4901784	180	C	06/08/2020	10:49	-132.222	43.063	0	875.10	0	3.7630	0	37.0250	8	29.431	0	866.324	0	10.2	4	3.3	4	-1E+10	1	-1E+10	1	-1E+10	1	-1E+10	1	-1E+10	1	-1E+10	1
4901784	180	C	06/08/2020	10:49	-132.222	43.063	0	880.60	0	3.7520	0	37.0290	8	29.436	0	871.758	0	10.1	4	3.3	4	-1E+10	1	-1E+10	1	-1E+10	1	-1E+10	1	-1E+10	1	-1E+10	1
4901784	180	C	06/08/2020	10:49	-132.222	43.063	0	885.10	0	3.7370	0	37.0330	8	29.441	0	876.203	0	10.1	4	3.2	4	-1E+10	1	-1E+10	1	-1E+10	1	-1E+10	1	-1E+10	1	-1E+10	1
4901784	180	C	06/08/2020	10:49	-132.222	43.063	0	890.10	0	3.7200	0	37.0370	8	29.446	0	881.142	0	10.1	4	3.2	4	-1E+10	1	-1E+10	1	-1E+10	1	-1E+10	1	-1E+10	1	-1E+10	1
4901784	180	C	06/08/2020	10:49	-132.222	43.063	0	895.20	0	3.7110	0	37.0400	8	29.449	0	886.180	0	10.0	4	3.2	4	-1E+10	1	-1E+10	1	-1E+10	1	-1E+10	1	-1E+10	1	-1E+10	1
4901784	180	C	06/08/2020	10:49	-132.222	43.063	0	900.00	0	3.7030	0	37.0430	8	29.452	0	890.922	0	10.0	4	3.2	4	-1E+10	1	-1E+10	1	-1E+10	1	-1E+10	1	-1E+10	1	-1E+10	1
4901784	180	C	06/08/2020	10:49	-132.222	43.063	0	904.80	0	3.6890	0	37.0460	8	29.456	0	895.663	0	10.0	4	3.2	4	-1E+10	1	-1E+10	1	-1E+10	1	-1E+10	1	-1E+10	1	-1E+10	1
4901784	180	C	06/08/2020	10:49	-132.222	43.063	0	909.60	0	3.6810	0	37.0490	8	29.459	0	900.404	0	10.0	4	3.2	4	-1E+10	1	-1E+10	1	-1E+10	1	-1E+10	1	-1E+10	1	-1E+10	1
4901784	180	C	06/08/2020	10:49	-132.222	43.063	0	914.50	0	3.6700	0	37.0510	8	29.462	0	905.244	0	10.0	4	3.2	4	-1E+10	1	-1E+10	1	-1E+10	1	-1E+10	1	-1E+10	1	-1E+10	1
4901784	180	C	06/08/2020	10:49	-132.222	43.063	0	919.40	0	3.6600	0	37.0540	8	29.466	0	910.084	0	10.0	4	3.2	4	-1E+10	1	-1E+10	1	-1E+10	1	-1E+10	1	-1E+10	1	-1E+10	1
4901784	180	C	06/08/2020	10:49	-132.222	43.063	0	924.40	0	3.6500	0	37.0560	8	29.468	0	915.022	0	10.0	4	3.2	4	-1E+10	1	-1E+10	1	-1E+10	1	-1E+10	1	-1E+10	1	-1E+10	1
4901784	180	C	06/08/2020	10:49	-132.222	43.063	0	929.40	0	3.6350	0	37.0600	8	29.473	0	919.960	0	10.0	4	3.2	4	-1E+10	1	-1E+10	1	-1E+10	1	-1E+10	1	-1E+10	1	-1E+10	1
4901784	180	C	06/08/2020	10:49	-132.222	43.063	0	934.40	0	3.6190	0	37.0640	8	29.478	0	924.899	0	10.0	4	3.2	4	-1E+10	1	-1E+10	1	-1E+10	1	-1E+10	1	-1E+10	1	-1E+10	1
4901784	180	C	06/08/2020	10:49	-132.222	43.063	0	939.50	0	3.6060	0	37.0670	8	29.482	0	929.935	0	10.0	4	3.2	4	-1E+10	1	-1E+10	1	-1E+10	1	-1E+10	1	-1E+10	1	-1E+10	1
4901784	180	C	06/08/2020	10:49	-132.222	43.063	0	944.70	0	3.5940	0	37.0700	8	29.486	0	935.071	0	10.0	4	3.2	4	-1E+10	1	-1E+10	1	-1E+10	1	-1E+10	1	-1E+10	1	-1E+10	1
4901784	180	C	06/08/2020	10:49	-132.222	43.063	0	949.90	0	3.5840	0	37.0740	8	29.490	0	940.206	0	10.1	4	3.2	4	-1E+10	1	-1E+10	1	-1E+10	1	-1E+10	1	-1E+10	1	-1E+10	1
4901784	180	C	06/08/2020	10:49	-132.222	43.063	0	955.00	0	3.5760	0	37.0770	8	29.493	0	945.243	0	10.1	4	3.2	4	-1E+10	1	-1E+10	1	-1E+10	1	-1E+10	1	-1E+10	1	-1E+10	1
4901784	180	C	06/08/2020	10:49	-132.222	43.063	0	960.30	0	3.5590	0	37.0810	8	29.498	0	950.476	0	10.1	4	3.2	4	-1E+10	1	-1E+10	1	-1E+10	1	-1E+10	1	-1E+10	1	-1E+10	1
4901784	180	C	06/08/2020	10:49	-132.222	43.063	0	965.50	0	3.5410	0	37.0840	8	29.502	0	955.611	0	10.2	4	3.2	4	-1E+10	1	-1E+10	1	-1E+10	1	-1E+10	1	-1E+10	1	-1E+10	1
4901784	180	C	06/08/2020	10:49	-132.222	43.063	0	970.00	0	3.5240	0	37.0890	8	29.508	0	960.055	0	10.2	4	3.3	4	-1E+10	1	-1E+10	1	-1E+10	1	-1E+10	1	-1E+10	1	-1E+10	1
4901784	180	C	06/08/2020	10:49	-132.222	43.063	0	974.40	0	3.5150	0	37.0910	8	29.511	0	964.400	0	10.2	4	3.3	4	-1E+10	1	-1E+10	1	-1E+10	1	-1E+10	1	-1E+10	1	-1E+10	1
4901784	180	C	06/08/2020	10:49	-132.222	43.063	0	979.80	0	3.5050	0	37.0940	8	29.514	0	969.732	0	10.3	4	3.3	4	-1E+10	1	-1E+10	1	-1E+10	1	-1E+10	1	-1E+10	1	-1E+10	1
4901784	180	C	06/08/2020	10:49	-132.222	43.063	0	985.40	0	3.4950	0	37.0970	8	29.518	0	975.261	0	10.3	4	3.3	4	-1E+10	1	-1E+10	1	-1E+10	1	-1E+10	1	-1E+10	1	-1E+10	1
4901784	180	C	06/08/2020	10:49	-132.222	43.063	0	989.90	0	3.4880	0	37.0990	8	29.520	0	979.704	0	10.4	4	3.3	4	-1E+10	1	-1E+10	1	-1E+10	1	-1E+10	1	-1E+10	1	-1E+10	1
4901784	180	C	06/08/2020	10:49	-132.222	43.063	0	994.40	0	3.4780	0	37.1020	8	29.524	0	984.148	0	10.4	4	3.3	4	-1E+10	1	-1E+10	1	-1E+10	1	-1E+10	1	-1E+10	1	-1E+10	1
4901784	180	C	06/08/2020	10:49	-132.222	43.063	0	999.60	0	3.4700	0	37.1040	8	29.526	0	989.282	0	10.5	4	3.3	4	-1E+10	1	-1E+10	1	-1E+10	1	-1E+10	1	-1E+10	1	-1E+10	1
4901784	180	C	06/08/2020	10:49	-132.222	43.063	0	1004.50	0	3.4610	0	37.1070	8	29.529	0	994.119	0	10.5	4	3.4	4	-1E+10	1	-1E+10	1	-1E+10	1	-1E+10	1	-1E+10	1	-1E+10	1
4901784	180	C	06/08/2020	10:49	-132.222	43.063	0	1009.40	0	3.4510	0	37.1090	8	29.532	0	998.957	0	10.6	4	3.4	4	-1E+10	1	-1E+10	1	-1E+10	1	-1E+10	1	-1E+10	1	-1E+10	1
4901784	180	C	06/08/2020	10:49	-132.222	43.063	0	1015.00	0	3.4390	0	37.1130	8	29.537	0	1004.486	0	10.7	4	3.4	4	-1E+10	1	-1E+10	1	-1E+10	1	-1E+10	1	-1E+10	1	-1E+10	1
4901784	180	C	06/08/2020	10:49	-132.222	43.063	0	1020.70	0	3.4280	0	37.1160	8	29.540	0	1010.113	0	10.7	4	3.4	4	-1E+10	1	-1E+10	1	-1E+10	1	-1E+10	1	-1E+10	1	-1E+10	1
4901784	180	C	06/08/2020	10:49	-132.222	43.063	0	1025.60	0	3.4200	0	37.1190	8	29.543	0	1014.950	0	10.8	4	3.4	4	-1E+10	1	-1E+10	1	-1E+10	1	-1E+10	1	-1E+10	1	-1E+10	1
4901784	180	C	06/08/2020	10:49	-132.222	43.063	0	1030.40	0	3.4130	0	37.1200	8	29.545	0	1019.689	0	10.8	4	3.5	4	-1E+10	1	-1E+10	1	-1E+10	1	-1E+10	1	-1E+10	1	-1E+10	1
4901784	180	C	06/08/2020	10:49	-132.222	43.063	0	1035.40	0	3.4020	0	37.1230	8	29.548	0	1024.625	0	10.9	4	3.5	4	-1E+10	1	-1E+10	1	-1E+10	1	-1E+10	1	-1E+10	1	-1E+10	1
4901784	180	C	06/08/2020	10:49	-132.222	43.063	0	1040.30	0	3.3920	0	37.1250	8	29.551	0	1029.462	0	11.0	4	3.5	4	-1E+10	1	-1E+10	1	-1E+10	1	-1E+10	1	-1E+10	1	-1E+10	1
4901784	180	C	06/08/2020	10:49	-132.222	43.063	0	1045.30	0	3.3850	0	37.1270	8	29.553	0	1034.397	0	11.0	4	3.5	4	-1E+10	1	-1E+10	1	-1E+10	1	-1E+10	1	-1E+10	1	-1E+10	1
4901784	180	C	06/08/2020	10:49	-132.222	43.063	0	1050.40	0	3.3760	0	37.1280	8	29.555	0	1039.431	0	11.1	4	3.5	4	-1E+10	1	-1E+10	1	-1E+10	1	-1E+10	1	-1E+10	1	-1E+10	1
4901784	180	C	06/08/2020	10:49	-132.222	43.063	0	1055.60	0	3.3580	0	37.1320	8	29.560	0	1044.564	0	11.2	4	3.6	4	-1E+10	1	-1E+10	1	-1E+10	1	-1E+10	1	-1E+10	1	-1E+10	1
4901784	180	C	06/08/2020	10:49	-132.222	43.063	0	1060.70	0	3.3480	0	37.1350	8	29.564	0	1049.598	0	11.3	4	3.6	4	-1E+10	1	-1E+10	1	-1E+10	1	-1E+10	1	-1E+10	1	-1E+10	1
4901784	180	C	06/08/2020	10:49	-132.222	43.063	0	1065.00	0	3.3420	0	37.1360	8	29.565	0	1053.842	0	11.3	4	3.6	4	-1E+10	1	-1E+10	1	-1E+10	1	-1E+10	1	-1E+10	1	-1E+10	1
4901784	180	C	06/08/2020	10:49	-132.222	43.063	0	1069.40	0	3.3330	0	37.1370	8	29.567	0	1058.185	0	11.4	4	3.6	4	-1E+10	1	-1E+10	1	-1E+10	1	-1E+10	1	-1E+10	1	-1E+10	1
4901784	180	C	06/08/2020	10:49	-132.222	43.063	0	1074.50	0	3.3180	0	37.1400	8	29.571	0	1063.219	0	11.5	4	3.7	4	-1E+10	1	-1E+10	1	-1E+10	1	-1E+10	1	-1E+10	1	-1E+10	1
4901784	180	C	06/08/2020	10:49	-132.222	43.063	0	1079.80	0	3.3040	0	37.1430	8	29.575	0	1068.450	0	11.6	4	3.7	4	-1E+10	1	-1E+10	1	-1E+10	1	-1E+10	1	-1E+10	1	-1E+10	1
4901784	180	C	06/08/2020	10:49	-132.222	43.063	0	1085.00	0	3.2910	0	37.1460	8	29.579	0	1073.582	0	11.7	4	3.7	4	-1E+10	1	-1E+10	1	-1E+10	1	-1E+10	1	-1E+10	1	-1E+10	1
4901784	180	C	06/08/2020	10:49	-132.222	43.063	0	1090.30	0	3.2810	0	37.1480	8	29.581	0	1078.812	0	11.8	4	3.7	4	-1E+10	1	-1E+10	1	-1E+10	1	-1E+10	1	-1E+10	1	-1E+10	1
4901784	180	C	06/08/2020	10:49	-132.222	43.063	0	1095.50	0	3.2740	0	37.1500	8	29.584	0	1083.944	0	11.9	4	3.8	4	-1E+10	1	-1E+10	1	-1E+10	1	-1E+10	1	-1E+10	1	-1E+10	1
4901784	180	C	06/08/2020	10:49	-132.222	43.063	0	1100.40	0	3.2670	0	37.1510	8	29.585	0	1088.780	0	12.0	4	3.8	4	-1E+10	1	-1E+10	1	-1E+10	1	-1E+10	1	-1E+10	1	-1E+10	1
4901784	180	C	06/08/2020	10:49	-132.222	43.063	0	1105.00	0	3.2550	0	37.1540	8	29.589	0	1093.319	0	12.0	4	3.8	4	-1E+10	1	-1E+10	1	-1E+10	1	-1E+10	1	-1E+10	1	-1E+10	1
4901784	180	C	06/08/2020	10:49	-132.222	43.063	0	1109.60	0	3.2490	0	37.1550	8	29.590	0	1097.858	0	12.1	4	3.8	4	-1E+10	1	-1E+10	1	-1E+10	1	-1E+10	1	-1E+10	1	-1E+10	1
4901784	180	C	06/08/2020	10:49	-132.222	43.063	0	1114.50	0	3.2450	0	37.1570	8	29.592	0	1102.694	0	12.2	4	3.9	4	-1E+10	1	-1E+10	1	-1E+10	1	-1E+10	1	-1E+10	1	-1E+10	1
4901784	180	C	06/08/2020	10:49	-132.222	43.063	0	1119.40	0	3.2400	0	37.1590	8	29.594	0	1107.529	0	12.3	4	3.9	4	-1E+10	1	-1E+10	1	-1E+10	1	-1E+10	1	-1E+10	1	-1E+10	1
4901784	180	C	06/08/2020	10:49	-132.222	43.063	0	1124.50	0	3.2280	0	37.1610	8	29.597	0	1112.561	0	12.4	4	3.9	4	-1E+10	1	-1E+10	1	-1E+10	1	-1E+10	1	-1E+10	1	-1E+10	1
4901784	180	C	06/08/2020	10:49	-132.222	43.063	0	1129.70	0	3.2190	0	37.1630	8	29.600	0	1117.692	0	12.5	4	4.0	4	-1E+10	1	-1E+10	1	-1E+10	1	-1E+10	1	-1E+10	1	-1E+10	1
4901784	180	C	06/08/2020	10:49	-132.222	43.063	0	1134.80	0	3.2130	0	37.1650	8	29.602	0	1122.724	0	12.6	4	4.0	4	-1E+10	1	-1E+10	1	-1E+10	1	-1E+10	1	-1E+10	1	-1E+10	1
4901784	180	C	06/08/2020	10:49	-132.222	43.063	0	1140.00	0	3.2040	0	37.1660	8	29.604	0	1127.855	0	12.7	4	4.0	4	-1E+10	1	-1E+10	1	-1E+10	1	-1E+10	1	-1E+10	1	-1E+10	1
4901784	180	C	06/08/2020	10:49	-132.222	43.063	0	1145.30	0	3.1950	0	37.1680	8	29.606	0	1133.084	0	12.8	4	4.1	4	-1E+10	1	-1E+10	1	-1E+10	1	-1E+10	1	-1E+10	1	-1E+10	1
4901784	180	C	06/08/2020	10:49	-132.222	43.063	0	1150.50	0	3.1790	0	37.1710	8	29.610	0	1138.215	0	12.9	4	4.1	4	-1E+10	1	-1E+10	1	-1E+10	1	-1E+10	1	-1E+10	1	-1E+10	1
4901784	180	C	06/08/2020	10:49	-132.222	43.063	0	1155.60	0	3.1710	0	37.1720	8	29.612	0	1143.246	0	13.0	4	4.1	4	-1E+10	1	-1E+10	1	-1E+10	1	-1E+10	1	-1E+10	1	-1E+10	1
4901784	180	C	06/08/2020	10:49	-132.222	43.063	0	1160.10	0	3.1670	0	37.1730	8	29.613	0	1147.686	0	13.0	4	4.1	4	-1E+10	1	-1E+10	1	-1E+10	1	-1E+10	1	-1E+10	1	-1E+10	1
4901784	180	C	06/08/2020	10:49	-132.222	43.063	0	1164.40	0	3.1580	0	37.1740	8	29.615	0	1151.928	0	13.1	4	4.2	4	-1E+10	1	-1E+10	1	-1E+10	1	-1E+10	1	-1E+10	1	-1E+10	1
4901784	180	C	06/08/2020	10:49	-132.222	43.063	0	1169.80	0	3.1510	0	37.1760	8	29.617	0	1157.256	0	13.2	4	4.2	4	-1E+10	1	-1E+10	1	-1E+10	1	-1E+10	1	-1E+10	1	-1E+10	1
4901784	180	C	06/08/2020	10:49	-132.222	43.063	0	1175.20	0	3.1420	0	37.1780	8	29.620	0	1162.583	0	13.4	4	4.2	4	-1E+10	1	-1E+10	1	-1E+10	1	-1E+10	1	-1E+10	1	-1E+10	1
4901784	180	C	06/08/2020	10:49	-132.222	43.063	0	1180.50	0	3.1360	0	37.1790	8	29.621	0	1167.811	0	13.4	4	4.2	4	-1E+10	1	-1E+10	1	-1E+10	1	-1E+10	1	-1E+10	1	-1E+10	1
4901784	180	C	06/08/2020	10:49	-132.222	43.063	0	1185.00	0	3.1280	0	37.1810	8	29.624	0	1172.250	0	13.5	4	4.3	4	-1E+10	1	-1E+10	1	-1E+10	1	-1E+10	1	-1E+10	1	-1E+10	1
4901784	180	C	06/08/2020	10:49	-132.222	43.063	0	1189.40	0	3.1220	0	37.1820	8	29.625	0	1176.591	0	13.6	4	4.3	4	-1E+10	1	-1E+10	1	-1E+10	1	-1E+10	1	-1E+10	1	-1E+10	1
4901784	180	C	06/08/2020	10:49	-132.222	43.063	0	1194.70	0	3.1070	0	37.1840	8	29.628	0	1181.819	0	13.7	4	4.3	4	-1E+10	1	-1E+10	1	-1E+10	1	-1E+10	1	-1E+10	1	-1E+10	1
4901784	180	C	06/08/2020	10:49	-132.222	43.063	0	1200.10	0	3.0970	0	37.1860	8	29.631	0	1187.145	0	13.9	4	4.4	4	-1E+10	1	-1E+10	1	-1E+10	1	-1E+10	1	-1E+10	1	-1E+10	1
4901784	180	C	06/08/2020	10:49	-132.222	43.063	0	1205.50	0	3.0870	0	37.1870	8	29.633	0	1192.472	0	14.1	4	4.4	4	-1E+10	1	-1E+10	1	-1E+10	1	-1E+10	1	-1E+10	1	-1E+10	1
4901784	180	C	06/08/2020	10:49	-132.222	43.063	0	1210.00	0	3.0780	0	37.1900	8	29.636	0	1196.910	0	14.2	4	4.5	4	-1E+10	1	-1E+10	1	-1E+10	1	-1E+10	1	-1E+10	1	-1E+10	1
4901784	180	C	06/08/2020	10:49	-132.222	43.063	0	1214.50	0	3.0690	0	37.1910	8	29.638	0	1201.349	0	14.3	4	4.5	4	-1E+10	1	-1E+10	1	-1E+10	1	-1E+10	1	-1E+10	1	-1E+10	1
4901784	180	C	06/08/2020	10:49	-132.222	43.063	0	1219.90	0	3.0600	0	37.1930	8	29.640	0	1206.675	0	14.4	4	4.6	4	-1E+10	1	-1E+10	1	-1E+10	1	-1E+10	1	-1E+10	1	-1E+10	1
4901784	180	C	06/08/2020	10:49	-132.222	43.063	0	1225.30	0	3.0550	0	37.1940	8	29.641	0	1212.001	0	14.6	4	4.6	4	-1E+10	1	-1E+10	1	-1E+10	1	-1E+10	1	-1E+10	1	-1E+10	1
4901784	180	C	06/08/2020	10:49	-132.222	43.063	0	1230.50	0	3.0420	0	37.1960	8	29.644	0	1217.129	0	14.8	4	4.7	4	-1E+10	1	-1E+10	1	-1E+10	1	-1E+10	1	-1E+10	1	-1E+10	1
4901784	180	C	06/08/2020	10:49	-132.222	43.063	0	1234.80	0	3.0350	0	37.1980	8	29.647	0	1221.370	0	14.9	4	4.7	4	-1E+10	1	-1E+10	1	-1E+10	1	-1E+10	1	-1E+10	1	-1E+10	1
4901784	180	C	06/08/2020	10:49	-132.222	43.063	0	1239.30	0	3.0260	0	37.1990	8	29.648	0	1225.808	0	15.0	4	4.7	4	-1E+10	1	-1E+10	1	-1E+10	1	-1E+10	1	-1E+10	1	-1E+10	1
4901784	180	C	06/08/2020	10:49	-132.222	43.063	0	1244.30	0	3.0160	0	37.2000	8	29.650	0	1230.739	0	15.2	4	4.8	4	-1E+10	1	-1E+10	1	-1E+10	1	-1E+10	1	-1E+10	1	-1E+10	1
4901784	180	C	06/08/2020	10:49	-132.222	43.063	0	1249.20	0	3.0020	0	37.2030	8	29.654	0	1235.571	0	15.3	4	4.8	4	-1E+10	1	-1E+10	1	-1E+10	1	-1E+10	1	-1E+10	1	-1E+10	1
4901784	180	C	06/08/2020	10:49	-132.222	43.063	0	1254.20	0	2.9840	0	37.2050	8	29.657	0	1240.502	0	15.5	4	4.9	4	-1E+10	1	-1E+10	1	-1E+10	1	-1E+10	1	-1E+10	1	-1E+10	1
4901784	180	C	06/08/2020	10:49	-132.222	43.063	0	1260.00	0	2.9730	0	37.2070	8	29.660	0	1246.221	0	15.6	4	4.9	4	-1E+10	1	-1E+10	1	-1E+10	1	-1E+10	1	-1E+10	1	-1E+10	1
4901784	180	C	06/08/2020	10:49	-132.222	43.063	0	1265.00	0	2.9630	0	37.2090	8	29.663	0	1251.152	0	15.8	4	5.0	4	-1E+10	1	-1E+10	1	-1E+10	1	-1E+10	1	-1E+10	1	-1E+10	1
4901784	180	C	06/08/2020	10:49	-132.222	43.063	0	1269.20	0	2.9580	0	37.2100	8	29.664	0	1255.293	0	15.9	4	5.0	4	-1E+10	1	-1E+10	1	-1E+10	1	-1E+10	1	-1E+10	1	-1E+10	1
4901784	180	C	06/08/2020	10:49	-132.222	43.063	0	1274.20	0	2.9500	0	37.2110	8	29.666	0	1260.223	0	16.0	4	5.1	4	-1E+10	1	-1E+10	1	-1E+10	1	-1E+10	1	-1E+10	1	-1E+10	1
4901784	180	C	06/08/2020	10:49	-132.222	43.063	0	1279.30	0	2.9370	0	37.2130	8	29.668	0	1265.252	0	16.2	4	5.1	4	-1E+10	1	-1E+10	1	-1E+10	1	-1E+10	1	-1E+10	1	-1E+10	1
4901784	180	C	06/08/2020	10:49	-132.222	43.063	0	1284.30	0	2.9270	0	37.2150	8	29.671	0	1270.182	0	16.4	4	5.2	4	-1E+10	1	-1E+10	1	-1E+10	1	-1E+10	1	-1E+10	1	-1E+10	1
4901784	180	C	06/08/2020	10:49	-132.222	43.063	0	1289.30	0	2.9180	0	37.2160	8	29.673	0	1275.112	0	16.5	4	5.2	4	-1E+10	1	-1E+10	1	-1E+10	1	-1E+10	1	-1E+10	1	-1E+10	1
4901784	180	C	06/08/2020	10:49	-132.222	43.063	0	1294.30	0	2.9120	0	37.2180	8	29.675	0	1280.042	0	16.7	4	5.3	4	-1E+10	1	-1E+10	1	-1E+10	1	-1E+10	1	-1E+10	1	-1E+10	1
4901784	180	C	06/08/2020	10:49	-132.222	43.063	0	1299.20	0	2.9050	0	37.2190	8	29.677	0	1284.873	0	16.9	4	5.3	4	-1E+10	1	-1E+10	1	-1E+10	1	-1E+10	1	-1E+10	1	-1E+10	1
4901784	180	C	06/08/2020	10:49	-132.222	43.063	0	1305.00	0	2.8910	0	37.2210	8	29.680	0	1290.591	0	17.1	4	5.4	4	-1E+10	1	-1E+10	1	-1E+10	1	-1E+10	1	-1E+10	1	-1E+10	1
4901784	180	C	06/08/2020	10:49	-132.222	43.063	0	1310.00	0	2.8820	0	37.2230	8	29.682	0	1295.521	0	17.2	4	5.4	4	-1E+10	1	-1E+10	1	-1E+10	1	-1E+10	1	-1E+10	1	-1E+10	1
4901784	180	C	06/08/2020	10:49	-132.222	43.063	0	1314.20	0	2.8770	0	37.2230	8	29.683	0	1299.661	0	17.4	4	5.5	4	-1E+10	1	-1E+10	1	-1E+10	1	-1E+10	1	-1E+10	1	-1E+10	1
4901784	180	C	06/08/2020	10:49	-132.222	43.063	0	1319.30	0	2.8690	0	37.2250	8	29.685	0	1304.689	0	17.5	4	5.5	4	-1E+10	1	-1E+10	1	-1E+10	1	-1E+10	1	-1E+10	1	-1E+10	1
4901784	180	C	06/08/2020	10:49	-132.222	43.063	0	1324.30	0	2.8630	0	37.2260	8	29.686	0	1309.618	0	17.6	4	5.5	4	-1E+10	1	-1E+10	1	-1E+10	1	-1E+10	1	-1E+10	1	-1E+10	1
4901784	180	C	06/08/2020	10:49	-132.222	43.063	0	1329.40	0	2.8550	0	37.2270	8	29.688	0	1314.646	0	17.8	4	5.6	4	-1E+10	1	-1E+10	1	-1E+10	1	-1E+10	1	-1E+10	1	-1E+10	1
4901784	180	C	06/08/2020	10:49	-132.222	43.063	0	1334.40	0	2.8470	0	37.2280	8	29.690	0	1319.575	0	18.0	4	5.7	4	-1E+10	1	-1E+10	1	-1E+10	1	-1E+10	1	-1E+10	1	-1E+10	1
4901784	180	C	06/08/2020	10:49	-132.222	43.063	0	1339.50	0	2.8350	0	37.2300	8	29.692	0	1324.602	0	18.2	4	5.7	4	-1E+10	1	-1E+10	1	-1E+10	1	-1E+10	1	-1E+10	1	-1E+10	1
4901784	180	C	06/08/2020	10:49	-132.222	43.063	0	1344.70	0	2.8240	0	37.2320	8	29.695	0	1329.728	0	18.5	4	5.8	4	-1E+10	1	-1E+10	1	-1E+10	1	-1E+10	1	-1E+10	1	-1E+10	1
4901784	180	C	06/08/2020	10:49	-132.222	43.063	0	1349.90	0	2.8110	0	37.2340	8	29.698	0	1334.853	0	18.7	4	5.9	4	-1E+10	1	-1E+10	1	-1E+10	1	-1E+10	1	-1E+10	1	-1E+10	1
4901784	180	C	06/08/2020	10:49	-132.222	43.063	0	1355.00	0	2.8030	0	37.2360	8	29.700	0	1339.880	0	18.9	4	5.9	4	-1E+10	1	-1E+10	1	-1E+10	1	-1E+10	1	-1E+10	1	-1E+10	1
4901784	180	C	06/08/2020	10:49	-132.222	43.063	0	1360.20	0	2.7960	0	37.2370	8	29.702	0	1345.006	0	19.0	4	6.0	4	-1E+10	1	-1E+10	1	-1E+10	1	-1E+10	1	-1E+10	1	-1E+10	1
4901784	180	C	06/08/2020	10:49	-132.222	43.063	0	1365.40	0	2.7900	0	37.2380	8	29.703	0	1350.131	0	19.2	4	6.0	4	-1E+10	1	-1E+10	1	-1E+10	1	-1E+10	1	-1E+10	1	-1E+10	1
4901784	180	C	06/08/2020	10:49	-132.222	43.063	0	1370.50	0	2.7810	0	37.2400	8	29.706	0	1355.158	0	19.4	4	6.1	4	-1E+10	1	-1E+10	1	-1E+10	1	-1E+10	1	-1E+10	1	-1E+10	1
4901784	180	C	06/08/2020	10:49	-132.222	43.063	0	1375.70	0	2.7750	0	37.2400	8	29.706	0	1360.283	0	19.7	4	6.2	4	-1E+10	1	-1E+10	1	-1E+10	1	-1E+10	1	-1E+10	1	-1E+10	1
4901784	180	C	06/08/2020	10:49	-132.222	43.063	0	1380.00	0	2.7660	0	37.2420	8	29.709	0	1364.521	0	20.0	4	6.3	4	-1E+10	1	-1E+10	1	-1E+10	1	-1E+10	1	-1E+10	1	-1E+10	1
4901784	180	C	06/08/2020	10:49	-132.222	43.063	0	1384.30	0	2.7540	0	37.2430	8	29.711	0	1368.758	0	20.3	4	6.4	4	-1E+10	1	-1E+10	1	-1E+10	1	-1E+10	1	-1E+10	1	-1E+10	1
4901784	180	C	06/08/2020	10:49	-132.222	43.063	0	1389.50	0	2.7380	0	37.2460	8	29.715	0	1373.883	0	20.8	4	6.5	4	-1E+10	1	-1E+10	1	-1E+10	1	-1E+10	1	-1E+10	1	-1E+10	1
4901784	180	C	06/08/2020	10:49	-132.222	43.063	0	1394.80	0	2.7220	0	37.2480	8	29.718	0	1379.106	0	21.2	4	6.6	4	-1E+10	1	-1E+10	1	-1E+10	1	-1E+10	1	-1E+10	1	-1E+10	1
4901784	180	C	06/08/2020	10:49	-132.222	43.063	0	1400.00	0	2.7030	0	37.2520	8	29.723	0	1384.231	0	21.6	4	6.8	4	-1E+10	1	-1E+10	1	-1E+10	1	-1E+10	1	-1E+10	1	-1E+10	1
4901784	180	C	06/08/2020	10:49	-132.222	43.063	0	1405.30	0	2.6860	0	37.2540	8	29.726	0	1389.454	0	21.9	4	6.9	4	-1E+10	1	-1E+10	1	-1E+10	1	-1E+10	1	-1E+10	1	-1E+10	1
4901784	180	C	06/08/2020	10:49	-132.222	43.063	0	1410.50	0	2.6780	0	37.2560	8	29.728	0	1394.578	0	22.1	4	6.9	4	-1E+10	1	-1E+10	1	-1E+10	1	-1E+10	1	-1E+10	1	-1E+10	1
4901784	180	C	06/08/2020	10:49	-132.222	43.063	0	1415.00	0	2.6760	0	37.2560	8	29.729	0	1399.012	0	22.3	4	7.0	4	-1E+10	1	-1E+10	1	-1E+10	1	-1E+10	1	-1E+10	1	-1E+10	1
4901784	180	C	06/08/2020	10:49	-132.222	43.063	0	1419.50	0	2.6700	0	37.2570	8	29.730	0	1403.446	0	22.5	4	7.1	4	-1E+10	1	-1E+10	1	-1E+10	1	-1E+10	1	-1E+10	1	-1E+10	1
4901784	180	C	06/08/2020	10:49	-132.222	43.063	0	1424.90	0	2.6530	0	37.2590	8	29.733	0	1408.767	0	22.9	4	7.2	4	-1E+10	1	-1E+10	1	-1E+10	1	-1E+10	1	-1E+10	1	-1E+10	1
4901784	180	C	06/08/2020	10:49	-132.222	43.063	0	1430.40	0	2.6450	0	37.2610	8	29.736	0	1414.186	0	23.1	4	7.2	4	-1E+10	1	-1E+10	1	-1E+10	1	-1E+10	1	-1E+10	1	-1E+10	1
4901784	180	C	06/08/2020	10:49	-132.222	43.063	0	1435.10	0	2.6380	0	37.2620	8	29.737	0	1418.817	0	23.3	4	7.3	4	-1E+10	1	-1E+10	1	-1E+10	1	-1E+10	1	-1E+10	1	-1E+10	1
4901784	180	C	06/08/2020	10:49	-132.222	43.063	0	1439.70	0	2.6310	0	37.2630	8	29.739	0	1423.350	0	23.6	4	7.4	4	-1E+10	1	-1E+10	1	-1E+10	1	-1E+10	1	-1E+10	1	-1E+10	1
4901784	180	C	06/08/2020	10:49	-132.222	43.063	0	1445.20	0	2.6190	0	37.2650	8	29.741	0	1428.769	0	23.8	4	7.4	4	-1E+10	1	-1E+10	1	-1E+10	1	-1E+10	1	-1E+10	1	-1E+10	1
4901784	180	C	06/08/2020	10:49	-132.222	43.063	0	1449.70	0	2.6140	0	37.2660	8	29.743	0	1433.202	0	24.0	4	7.5	4	-1E+10	1	-1E+10	1	-1E+10	1	-1E+10	1	-1E+10	1	-1E+10	1
4901784	180	C	06/08/2020	10:49	-132.222	43.063	0	1454.30	0	2.6090	0	37.2670	8	29.744	0	1437.734	0	24.2	4	7.6	4	-1E+10	1	-1E+10	1	-1E+10	1	-1E+10	1	-1E+10	1	-1E+10	1
4901784	180	C	06/08/2020	10:49	-132.222	43.063	0	1459.90	0	2.6000	0	37.2680	8	29.746	0	1443.251	0	24.5	4	7.7	4	-1E+10	1	-1E+10	1	-1E+10	1	-1E+10	1	-1E+10	1	-1E+10	1
4901784	180	C	06/08/2020	10:49	-132.222	43.063	0	1465.40	0	2.5910	0	37.2700	8	29.748	0	1448.670	0	24.8	4	7.8	4	-1E+10	1	-1E+10	1	-1E+10	1	-1E+10	1	-1E+10	1	-1E+10	1
4901784	180	C	06/08/2020	10:49	-132.222	43.063	0	1469.50	0	2.5850	0	37.2720	8	29.750	0	1452.709	0	25.0	4	7.8	4	-1E+10	1	-1E+10	1	-1E+10	1	-1E+10	1	-1E+10	1	-1E+10	1
4901784	180	C	06/08/2020	10:49	-132.222	43.063	0	1474.50	0	2.5800	0	37.2720	8	29.751	0	1457.634	0	25.3	4	7.9	4	-1E+10	1	-1E+10	1	-1E+10	1	-1E+10	1	-1E+10	1	-1E+10	1
4901784	180	C	06/08/2020	10:49	-132.222	43.063	0	1479.50	0	2.5700	0	37.2730	8	29.753	0	1462.560	0	25.6	4	8.0	4	-1E+10	1	-1E+10	1	-1E+10	1	-1E+10	1	-1E+10	1	-1E+10	1
4901784	180	C	06/08/2020	10:49	-132.222	43.063	0	1484.50	0	2.5620	0	37.2740	8	29.754	0	1467.485	0	25.8	4	8.1	4	-1E+10	1	-1E+10	1	-1E+10	1	-1E+10	1	-1E+10	1	-1E+10	1
4901784	180	C	06/08/2020	10:49	-132.222	43.063	0	1489.50	0	2.5500	0	37.2760	8	29.757	0	1472.411	0	26.2	4	8.2	4	-1E+10	1	-1E+10	1	-1E+10	1	-1E+10	1	-1E+10	1	-1E+10	1
4901784	180	C	06/08/2020	10:49	-132.222	43.063	0	1494.70	0	2.5400	0	37.2770	8	29.759	0	1477.533	0	26.5	4	8.3	4	-1E+10	1	-1E+10	1	-1E+10	1	-1E+10	1	-1E+10	1	-1E+10	1
4901784	180	C	06/08/2020	10:49	-132.222	43.063	0	1499.90	0	2.5320	0	37.2790	8	29.761	0	1482.655	0	26.8	4	8.3	4	-1E+10	1	-1E+10	1	-1E+10	1	-1E+10	1	-1E+10	1	-1E+10	1
4901784	180	C	06/08/2020	10:49	-132.222	43.063	0	1505.10	0	2.5210	0	37.2800	8	29.763	0	1487.777	0	27.1	4	8.5	4	-1E+10	1	-1E+10	1	-1E+10	1	-1E+10	1	-1E+10	1	-1E+10	1
4901784	180	C	06/08/2020	10:49	-132.222	43.063	0	1510.40	0	2.5100	0	37.2820	8	29.765	0	1492.997	0	27.4	4	8.6	4	-1E+10	1	-1E+10	1	-1E+10	1	-1E+10	1	-1E+10	1	-1E+10	1
4901784	180	C	06/08/2020	10:49	-132.222	43.063	0	1515.70	0	2.5020	0	37.2830	8	29.767	0	1498.217	0	27.7	4	8.6	4	-1E+10	1	-1E+10	1	-1E+10	1	-1E+10	1	-1E+10	1	-1E+10	1
4901784	180	C	06/08/2020	10:49	-132.222	43.063	0	1520.20	0	2.4940	0	37.2850	8	29.769	0	1502.649	0	28.0	4	8.7	4	-1E+10	1	-1E+10	1	-1E+10	1	-1E+10	1	-1E+10	1	-1E+10	1
4901784	180	C	06/08/2020	10:49	-132.222	43.063	0	1524.70	0	2.4910	0	37.2860	8	29.771	0	1507.081	0	28.1	4	8.8	4	-1E+10	1	-1E+10	1	-1E+10	1	-1E+10	1	-1E+10	1	-1E+10	1
4901784	180	C	06/08/2020	10:49	-132.222	43.063	0	1530.10	0	2.4870	0	37.2860	8	29.771	0	1512.400	0	28.4	4	8.9	4	-1E+10	1	-1E+10	1	-1E+10	1	-1E+10	1	-1E+10	1	-1E+10	1
4901784	180	C	06/08/2020	10:49	-132.222	43.063	0	1535.50	0	2.4750	0	37.2880	8	29.774	0	1517.718	0	28.8	4	9.0	4	-1E+10	1	-1E+10	1	-1E+10	1	-1E+10	1	-1E+10	1	-1E+10	1
4901784	180	C	06/08/2020	10:49	-132.222	43.063	0	1540.20	0	2.4710	0	37.2880	8	29.774	0	1522.346	0	29.0	4	9.0	4	-1E+10	1	-1E+10	1	-1E+10	1	-1E+10	1	-1E+10	1	-1E+10	1
4901784	180	C	06/08/2020	10:49	-132.222	43.063	0	1544.80	0	2.4630	0	37.2890	8	29.776	0	1526.877	0	29.4	4	9.1	4	-1E+10	1	-1E+10	1	-1E+10	1	-1E+10	1	-1E+10	1	-1E+10	1
4901784	180	C	06/08/2020	10:49	-132.222	43.063	0	1550.40	0	2.4480	0	37.2920	8	29.779	0	1532.391	0	29.8	4	9.3	4	-1E+10	1	-1E+10	1	-1E+10	1	-1E+10	1	-1E+10	1	-1E+10	1
4901784	180	C	06/08/2020	10:49	-132.222	43.063	0	1554.50	0	2.4410	0	37.2930	8	29.781	0	1536.429	0	30.0	4	9.3	4	-1E+10	1	-1E+10	1	-1E+10	1	-1E+10	1	-1E+10	1	-1E+10	1
4901784	180	C	06/08/2020	10:49	-132.222	43.063	0	1559.40	0	2.4350	0	37.2940	8	29.782	0	1541.254	0	30.3	4	9.4	4	-1E+10	1	-1E+10	1	-1E+10	1	-1E+10	1	-1E+10	1	-1E+10	1
4901784	180	C	06/08/2020	10:49	-132.222	43.063	0	1564.40	0	2.4300	0	37.2950	8	29.784	0	1546.178	0	30.6	4	9.5	4	-1E+10	1	-1E+10	1	-1E+10	1	-1E+10	1	-1E+10	1	-1E+10	1
4901784	180	C	06/08/2020	10:49	-132.222	43.063	0	1569.30	0	2.4210	0	37.2960	8	29.785	0	1551.003	0	30.9	4	9.6	4	-1E+10	1	-1E+10	1	-1E+10	1	-1E+10	1	-1E+10	1	-1E+10	1
4901784	180	C	06/08/2020	10:49	-132.222	43.063	0	1574.30	0	2.4120	0	37.2980	8	29.788	0	1555.926	0	31.2	4	9.7	4	-1E+10	1	-1E+10	1	-1E+10	1	-1E+10	1	-1E+10	1	-1E+10	1
4901784	180	C	06/08/2020	10:49	-132.222	43.063	0	1579.30	0	2.4030	0	37.3000	8	29.790	0	1560.849	0	31.4	4	9.8	4	-1E+10	1	-1E+10	1	-1E+10	1	-1E+10	1	-1E+10	1	-1E+10	1
4901784	180	C	06/08/2020	10:49	-132.222	43.063	0	1584.40	0	2.4010	0	37.3000	8	29.790	0	1565.871	0	31.6	4	9.8	4	-1E+10	1	-1E+10	1	-1E+10	1	-1E+10	1	-1E+10	1	-1E+10	1
4901784	180	C	06/08/2020	10:49	-132.222	43.063	0	1589.50	0	2.3990	0	37.3000	8	29.791	0	1570.892	0	31.8	4	9.9	4	-1E+10	1	-1E+10	1	-1E+10	1	-1E+10	1	-1E+10	1	-1E+10	1
4901784	180	C	06/08/2020	10:49	-132.222	43.063	0	1594.60	0	2.3930	0	37.3010	8	29.792	0	1575.913	0	32.1	4	10.0	4	-1E+10	1	-1E+10	1	-1E+10	1	-1E+10	1	-1E+10	1	-1E+10	1
4901784	180	C	06/08/2020	10:49	-132.222	43.063	0	1599.70	0	2.3850	0	37.3020	8	29.793	0	1580.935	0	32.4	4	10.1	4	-1E+10	1	-1E+10	1	-1E+10	1	-1E+10	1	-1E+10	1	-1E+10	1
4901784	180	C	06/08/2020	10:49	-132.222	43.063	0	1604.90	0	2.3750	0	37.3040	8	29.796	0	1586.054	0	32.8	4	10.2	4	-1E+10	1	-1E+10	1	-1E+10	1	-1E+10	1	-1E+10	1	-1E+10	1
4901784	180	C	06/08/2020	10:49	-132.222	43.063	0	1610.10	0	2.3670	0	37.3050	8	29.798	0	1591.174	0	33.1	4	10.3	4	-1E+10	1	-1E+10	1	-1E+10	1	-1E+10	1	-1E+10	1	-1E+10	1
4901784	180	C	06/08/2020	10:49	-132.222	43.063	0	1615.40	0	2.3600	0	37.3060	8	29.799	0	1596.391	0	33.5	4	10.4	4	-1E+10	1	-1E+10	1	-1E+10	1	-1E+10	1	-1E+10	1	-1E+10	1
4901784	180	C	06/08/2020	10:49	-132.222	43.063	0	1620.70	0	2.3500	0	37.3080	8	29.802	0	1601.609	0	33.9	4	10.5	4	-1E+10	1	-1E+10	1	-1E+10	1	-1E+10	1	-1E+10	1	-1E+10	1
4901784	180	C	06/08/2020	10:49	-132.222	43.063	0	1625.10	0	2.3430	0	37.3090	8	29.803	0	1605.940	0	34.1	4	10.6	4	-1E+10	1	-1E+10	1	-1E+10	1	-1E+10	1	-1E+10	1	-1E+10	1
4901784	180	C	06/08/2020	10:49	-132.222	43.063	0	1629.60	0	2.3390	0	37.3100	8	29.804	0	1610.370	0	34.4	4	10.7	4	-1E+10	1	-1E+10	1	-1E+10	1	-1E+10	1	-1E+10	1	-1E+10	1
4901784	180	C	06/08/2020	10:49	-132.222	43.063	0	1634.90	0	2.3330	0	37.3100	8	29.805	0	1615.587	0	34.7	4	10.8	4	-1E+10	1	-1E+10	1	-1E+10	1	-1E+10	1	-1E+10	1	-1E+10	1
4901784	180	C	06/08/2020	10:49	-132.222	43.063	0	1640.30	0	2.3260	0	37.3120	8	29.807	0	1620.903	0	35.0	4	10.9	4	-1E+10	1	-1E+10	1	-1E+10	1	-1E+10	1	-1E+10	1	-1E+10	1
4901784	180	C	06/08/2020	10:49	-132.222	43.063	0	1645.60	0	2.3170	0	37.3130	8	29.809	0	1626.120	0	35.4	4	11.0	4	-1E+10	1	-1E+10	1	-1E+10	1	-1E+10	1	-1E+10	1	-1E+10	1
4901784	180	C	06/08/2020	10:49	-132.222	43.063	0	1650.10	0	2.3130	0	37.3140	8	29.810	0	1630.549	0	35.7	4	11.1	4	-1E+10	1	-1E+10	1	-1E+10	1	-1E+10	1	-1E+10	1	-1E+10	1
4901784	180	C	06/08/2020	10:49	-132.222	43.063	0	1654.60	0	2.3060	0	37.3150	8	29.811	0	1634.979	0	36.0	4	11.2	4	-1E+10	1	-1E+10	1	-1E+10	1	-1E+10	1	-1E+10	1	-1E+10	1
4901784	180	C	06/08/2020	10:49	-132.222	43.063	0	1660.10	0	2.2970	0	37.3160	8	29.813	0	1640.392	0	36.5	4	11.3	4	-1E+10	1	-1E+10	1	-1E+10	1	-1E+10	1	-1E+10	1	-1E+10	1
4901784	180	C	06/08/2020	10:49	-132.222	43.063	0	1665.60	0	2.2860	0	37.3180	8	29.816	0	1645.806	0	37.0	4	11.5	4	-1E+10	1	-1E+10	1	-1E+10	1	-1E+10	1	-1E+10	1	-1E+10	1
4901784	180	C	06/08/2020	10:49	-132.222	43.063	0	1670.10	0	2.2800	0	37.3190	8	29.817	0	1650.235	0	37.3	4	11.6	4	-1E+10	1	-1E+10	1	-1E+10	1	-1E+10	1	-1E+10	1	-1E+10	1
4901784	180	C	06/08/2020	10:49	-132.222	43.063	0	1674.80	0	2.2710	0	37.3210	8	29.819	0	1654.860	0	37.7	4	11.7	4	-1E+10	1	-1E+10	1	-1E+10	1	-1E+10	1	-1E+10	1	-1E+10	1
4901784	180	C	06/08/2020	10:49	-132.222	43.063	0	1680.40	0	2.2620	0	37.3220	8	29.821	0	1660.372	0	38.1	4	11.8	4	-1E+10	1	-1E+10	1	-1E+10	1	-1E+10	1	-1E+10	1	-1E+10	1
4901784	180	C	06/08/2020	10:49	-132.222	43.063	0	1685.00	0	2.2540	0	37.3230	8	29.823	0	1664.899	0	38.5	4	11.9	4	-1E+10	1	-1E+10	1	-1E+10	1	-1E+10	1	-1E+10	1	-1E+10	1
4901784	180	C	06/08/2020	10:49	-132.222	43.063	0	1689.70	0	2.2460	0	37.3240	8	29.824	0	1669.524	0	38.9	4	12.0	4	-1E+10	1	-1E+10	1	-1E+10	1	-1E+10	1	-1E+10	1	-1E+10	1
4901784	180	C	06/08/2020	10:49	-132.222	43.063	0	1695.30	0	2.2400	0	37.3250	8	29.825	0	1675.035	0	39.4	4	12.2	4	-1E+10	1	-1E+10	1	-1E+10	1	-1E+10	1	-1E+10	1	-1E+10	1
4901784	180	C	06/08/2020	10:49	-132.222	43.063	0	1700.00	0	2.2290	0	37.3270	8	29.828	0	1679.661	0	39.8	4	12.3	4	-1E+10	1	-1E+10	1	-1E+10	1	-1E+10	1	-1E+10	1	-1E+10	1
4901784	180	C	06/08/2020	10:49	-132.222	43.063	0	1704.70	0	2.2190	0	37.3280	8	29.830	0	1684.286	0	40.2	4	12.5	4	-1E+10	1	-1E+10	1	-1E+10	1	-1E+10	1	-1E+10	1	-1E+10	1
4901784	180	C	06/08/2020	10:49	-132.222	43.063	0	1710.40	0	2.2100	0	37.3300	8	29.832	0	1689.895	0	40.7	4	12.6	4	-1E+10	1	-1E+10	1	-1E+10	1	-1E+10	1	-1E+10	1	-1E+10	1
4901784	180	C	06/08/2020	10:49	-132.222	43.063	0	1714.60	0	2.2040	0	37.3310	8	29.834	0	1694.028	0	41.0	4	12.7	4	-1E+10	1	-1E+10	1	-1E+10	1	-1E+10	1	-1E+10	1	-1E+10	1
4901784	180	C	06/08/2020	10:49	-132.222	43.063	0	1719.50	0	2.1950	0	37.3330	8	29.836	0	1698.849	0	41.5	4	12.8	4	-1E+10	1	-1E+10	1	-1E+10	1	-1E+10	1	-1E+10	1	-1E+10	1
4901784	180	C	06/08/2020	10:49	-132.222	43.063	0	1724.40	0	2.1870	0	37.3340	8	29.837	0	1703.671	0	41.9	4	13.0	4	-1E+10	1	-1E+10	1	-1E+10	1	-1E+10	1	-1E+10	1	-1E+10	1
4901784	180	C	06/08/2020	10:49	-132.222	43.063	0	1729.40	0	2.1800	0	37.3350	8	29.839	0	1708.591	0	42.3	4	13.1	4	-1E+10	1	-1E+10	1	-1E+10	1	-1E+10	1	-1E+10	1	-1E+10	1
4901784	180	C	06/08/2020	10:49	-132.222	43.063	0	1734.40	0	2.1710	0	37.3370	8	29.841	0	1713.510	0	42.7	4	13.2	4	-1E+10	1	-1E+10	1	-1E+10	1	-1E+10	1	-1E+10	1	-1E+10	1
4901784	180	C	06/08/2020	10:49	-132.222	43.063	0	1739.50	0	2.1620	0	37.3380	8	29.843	0	1718.528	0	43.1	4	13.3	4	-1E+10	1	-1E+10	1	-1E+10	1	-1E+10	1	-1E+10	1	-1E+10	1
4901784	180	C	06/08/2020	10:49	-132.222	43.063	0	1744.60	0	2.1570	0	37.3390	8	29.844	0	1723.546	0	43.3	4	13.4	4	-1E+10	1	-1E+10	1	-1E+10	1	-1E+10	1	-1E+10	1	-1E+10	1
4901784	180	C	06/08/2020	10:49	-132.222	43.063	0	1749.60	0	2.1520	0	37.3400	8	29.846	0	1728.465	0	43.6	4	13.5	4	-1E+10	1	-1E+10	1	-1E+10	1	-1E+10	1	-1E+10	1	-1E+10	1
4901784	180	C	06/08/2020	10:49	-132.222	43.063	0	1754.70	0	2.1470	0	37.3410	8	29.847	0	1733.483	0	43.8	4	13.6	4	-1E+10	1	-1E+10	1	-1E+10	1	-1E+10	1	-1E+10	1	-1E+10	1
4901784	180	C	06/08/2020	10:49	-132.222	43.063	0	1759.70	0	2.1430	0	37.3420	8	29.848	0	1738.402	0	44.0	4	13.6	4	-1E+10	1	-1E+10	1	-1E+10	1	-1E+10	1	-1E+10	1	-1E+10	1
4901784	180	C	06/08/2020	10:49	-132.222	43.063	0	1764.80	0	2.1410	0	37.3420	8	29.848	0	1743.419	0	44.2	4	13.7	4	-1E+10	1	-1E+10	1	-1E+10	1	-1E+10	1	-1E+10	1	-1E+10	1
4901784	180	C	06/08/2020	10:49	-132.222	43.063	0	1769.90	0	2.1370	0	37.3430	8	29.849	0	1748.437	0	44.5	4	13.8	4	-1E+10	1	-1E+10	1	-1E+10	1	-1E+10	1	-1E+10	1	-1E+10	1
4901784	180	C	06/08/2020	10:49	-132.222	43.063	0	1775.00	0	2.1310	0	37.3440	8	29.851	0	1753.454	0	44.8	4	13.8	4	-1E+10	1	-1E+10	1	-1E+10	1	-1E+10	1	-1E+10	1	-1E+10	1
4901784	180	C	06/08/2020	10:49	-132.222	43.063	0	1780.10	0	2.1260	0	37.3450	8	29.852	0	1758.471	0	45.1	4	13.9	4	-1E+10	1	-1E+10	1	-1E+10	1	-1E+10	1	-1E+10	1	-1E+10	1
4901784	180	C	06/08/2020	10:49	-132.222	43.063	0	1785.20	0	2.1220	0	37.3460	8	29.853	0	1763.487	0	45.3	4	14.0	4	-1E+10	1	-1E+10	1	-1E+10	1	-1E+10	1	-1E+10	1	-1E+10	1
4901784	180	C	06/08/2020	10:49	-132.222	43.063	0	1790.30	0	2.1180	0	37.3460	8	29.854	0	1768.504	0	45.6	4	14.1	4	-1E+10	1	-1E+10	1	-1E+10	1	-1E+10	1	-1E+10	1	-1E+10	1
4901784	180	C	06/08/2020	10:49	-132.222	43.063	0	1795.50	0	2.1120	0	37.3470	8	29.855	0	1773.619	0	45.9	4	14.2	4	-1E+10	1	-1E+10	1	-1E+10	1	-1E+10	1	-1E+10	1	-1E+10	1
4901784	180	C	06/08/2020	10:49	-132.222	43.063	0	1799.90	0	2.1100	0	37.3480	8	29.856	0	1777.947	0	46.1	4	14.2	4	-1E+10	1	-1E+10	1	-1E+10	1	-1E+10	1	-1E+10	1	-1E+10	1
4901784	180	C	06/08/2020	10:49	-132.222	43.063	0	1804.30	0	2.1040	0	37.3490	8	29.857	0	1782.275	0	46.4	4	14.3	4	-1E+10	1	-1E+10	1	-1E+10	1	-1E+10	1	-1E+10	1	-1E+10	1
4901784	180	C	06/08/2020	10:49	-132.222	43.063	0	1809.60	0	2.1000	0	37.3500	8	29.858	0	1787.488	0	46.7	4	14.4	4	-1E+10	1	-1E+10	1	-1E+10	1	-1E+10	1	-1E+10	1	-1E+10	1
4901784	180	C	06/08/2020	10:49	-132.222	43.063	0	1815.00	0	2.0920	0	37.3510	8	29.860	0	1792.799	0	47.1	4	14.5	4	-1E+10	1	-1E+10	1	-1E+10	1	-1E+10	1	-1E+10	1	-1E+10	1
4901784	180	C	06/08/2020	10:49	-132.222	43.063	0	1820.40	0	2.0890	0	37.3520	8	29.861	0	1798.110	0	47.4	4	14.6	4	-1E+10	1	-1E+10	1	-1E+10	1	-1E+10	1	-1E+10	1	-1E+10	1
4901784	180	C	06/08/2020	10:49	-132.222	43.063	0	1825.70	0	2.0840	0	37.3530	8	29.862	0	1803.323	0	47.7	4	14.7	4	-1E+10	1	-1E+10	1	-1E+10	1	-1E+10	1	-1E+10	1	-1E+10	1
4901784	180	C	06/08/2020	10:49	-132.222	43.063	0	1830.20	0	2.0770	0	37.3540	8	29.864	0	1807.749	0	48.1	4	14.9	4	-1E+10	1	-1E+10	1	-1E+10	1	-1E+10	1	-1E+10	1	-1E+10	1
4901784	180	C	06/08/2020	10:49	-132.222	43.063	0	1834.80	0	2.0700	0	37.3550	8	29.865	0	1812.273	0	48.4	4	14.9	4	-1E+10	1	-1E+10	1	-1E+10	1	-1E+10	1	-1E+10	1	-1E+10	1
4901784	180	C	06/08/2020	10:49	-132.222	43.063	0	1840.10	0	2.0650	0	37.3560	8	29.866	0	1817.485	0	48.8	4	15.1	4	-1E+10	1	-1E+10	1	-1E+10	1	-1E+10	1	-1E+10	1	-1E+10	1
4901784	180	C	06/08/2020	10:49	-132.222	43.063	0	1845.50	0	2.0580	0	37.3570	8	29.868	0	1822.796	0	49.2	4	15.2	4	-1E+10	1	-1E+10	1	-1E+10	1	-1E+10	1	-1E+10	1	-1E+10	1
4901784	180	C	06/08/2020	10:49	-132.222	43.063	0	1850.00	0	2.0550	0	37.3580	8	29.869	0	1827.221	0	49.4	4	15.2	4	-1E+10	1	-1E+10	1	-1E+10	1	-1E+10	1	-1E+10	1	-1E+10	1
4901784	180	C	06/08/2020	10:49	-132.222	43.063	0	1854.60	0	2.0510	0	37.3590	8	29.870	0	1831.744	0	49.7	4	15.3	4	-1E+10	1	-1E+10	1	-1E+10	1	-1E+10	1	-1E+10	1	-1E+10	1
4901784	180	C	06/08/2020	10:49	-132.222	43.063	0	1860.00	0	2.0440	0	37.3600	8	29.872	0	1837.055	0	50.1	4	15.4	4	-1E+10	1	-1E+10	1	-1E+10	1	-1E+10	1	-1E+10	1	-1E+10	1
4901784	180	C	06/08/2020	10:49	-132.222	43.063	0	1865.40	0	2.0400	0	37.3610	8	29.873	0	1842.365	0	50.4	4	15.6	4	-1E+10	1	-1E+10	1	-1E+10	1	-1E+10	1	-1E+10	1	-1E+10	1
4901784	180	C	06/08/2020	10:49	-132.222	43.063	0	1870.00	0	2.0360	0	37.3620	8	29.874	0	1846.888	0	50.7	4	15.6	4	-1E+10	1	-1E+10	1	-1E+10	1	-1E+10	1	-1E+10	1	-1E+10	1
4901784	180	C	06/08/2020	10:49	-132.222	43.063	0	1874.50	0	2.0320	0	37.3620	8	29.874	0	1851.313	0	51.0	4	15.7	4	-1E+10	1	-1E+10	1	-1E+10	1	-1E+10	1	-1E+10	1	-1E+10	1
4901784	180	C	06/08/2020	10:49	-132.222	43.063	0	1880.00	0	2.0250	0	37.3630	8	29.876	0	1856.721	0	51.5	4	15.9	4	-1E+10	1	-1E+10	1	-1E+10	1	-1E+10	1	-1E+10	1	-1E+10	1
4901784	180	C	06/08/2020	10:49	-132.222	43.063	0	1885.40	0	2.0190	0	37.3650	8	29.878	0	1862.030	0	51.8	4	16.0	4	-1E+10	1	-1E+10	1	-1E+10	1	-1E+10	1	-1E+10	1	-1E+10	1
4901784	180	C	06/08/2020	10:49	-132.222	43.063	0	1890.00	0	2.0160	0	37.3650	8	29.878	0	1866.553	0	52.0	4	16.0	4	-1E+10	1	-1E+10	1	-1E+10	1	-1E+10	1	-1E+10	1	-1E+10	1
4901784	180	C	06/08/2020	10:49	-132.222	43.063	0	1894.60	0	2.0130	0	37.3660	8	29.879	0	1871.076	0	52.3	4	16.1	4	-1E+10	1	-1E+10	1	-1E+10	1	-1E+10	1	-1E+10	1	-1E+10	1
4901784	180	C	06/08/2020	10:49	-132.222	43.063	0	1900.20	0	2.0070	0	37.3670	8	29.881	0	1876.581	0	52.7	4	16.2	4	-1E+10	1	-1E+10	1	-1E+10	1	-1E+10	1	-1E+10	1	-1E+10	1
4901784	180	C	06/08/2020	10:49	-132.222	43.063	0	1904.80	0	2.0020	0	37.3680	8	29.882	0	1881.104	0	53.0	4	16.3	4	-1E+10	1	-1E+10	1	-1E+10	1	-1E+10	1	-1E+10	1	-1E+10	1
4901784	180	C	06/08/2020	10:49	-132.222	43.063	0	1909.40	0	1.9990	0	37.3690	8	29.883	0	1885.626	0	53.1	4	16.4	4	-1E+10	1	-1E+10	1	-1E+10	1	-1E+10	1	-1E+10	1	-1E+10	1
4901784	180	C	06/08/2020	10:49	-132.222	43.063	0	1915.00	0	1.9960	0	37.3690	8	29.883	0	1891.132	0	53.4	4	16.4	4	-1E+10	1	-1E+10	1	-1E+10	1	-1E+10	1	-1E+10	1	-1E+10	1
4901784	180	C	06/08/2020	10:49	-132.222	43.063	0	1920.50	0	1.9940	0	37.3700	8	29.884	0	1896.539	0	53.6	4	16.5	4	-1E+10	1	-1E+10	1	-1E+10	1	-1E+10	1	-1E+10	1	-1E+10	1
4901784	180	C	06/08/2020	10:49	-132.222	43.063	0	1925.30	0	1.9910	0	37.3700	8	29.885	0	1901.257	0	53.8	4	16.6	4	-1E+10	1	-1E+10	1	-1E+10	1	-1E+10	1	-1E+10	1	-1E+10	1
4901784	180	C	06/08/2020	10:49	-132.222	43.063	0	1929.90	0	1.9880	0	37.3710	8	29.886	0	1905.779	0	54.0	4	16.6	4	-1E+10	1	-1E+10	1	-1E+10	1	-1E+10	1	-1E+10	1	-1E+10	1
4901784	180	C	06/08/2020	10:49	-132.222	43.063	0	1934.80	0	1.9860	0	37.3710	8	29.886	0	1910.596	0	54.2	4	16.7	4	-1E+10	1	-1E+10	1	-1E+10	1	-1E+10	1	-1E+10	1	-1E+10	1
4901784	180	C	06/08/2020	10:49	-132.222	43.063	0	1939.80	0	1.9820	0	37.3720	8	29.887	0	1915.511	0	54.4	4	16.8	4	-1E+10	1	-1E+10	1	-1E+10	1	-1E+10	1	-1E+10	1	-1E+10	1
4901784	180	C	06/08/2020	10:49	-132.222	43.063	0	1944.70	0	1.9800	0	37.3730	8	29.888	0	1920.328	0	54.6	4	16.8	4	-1E+10	1	-1E+10	1	-1E+10	1	-1E+10	1	-1E+10	1	-1E+10	1
4901784	180	C	06/08/2020	10:49	-132.222	43.063	0	1949.80	0	1.9780	0	37.3730	8	29.888	0	1925.341	0	54.9	4	16.9	4	-1E+10	1	-1E+10	1	-1E+10	1	-1E+10	1	-1E+10	1	-1E+10	1
4901784	180	C	06/08/2020	10:49	-132.222	43.063	0	1954.80	0	1.9740	0	37.3740	8	29.889	0	1930.255	0	55.2	4	17.0	4	-1E+10	1	-1E+10	1	-1E+10	1	-1E+10	1	-1E+10	1	-1E+10	1
4901784	180	C	06/08/2020	10:49	-132.222	43.063	0	1959.80	0	1.9700	0	37.3750	8	29.891	0	1935.170	0	55.5	4	17.1	4	-1E+10	1	-1E+10	1	-1E+10	1	-1E+10	1	-1E+10	1	-1E+10	1
4901784	180	C	06/08/2020	10:49	-132.222	43.063	0	1964.90	0	1.9650	0	37.3760	8	29.892	0	1940.183	0	55.7	4	17.2	4	-1E+10	1	-1E+10	1	-1E+10	1	-1E+10	1	-1E+10	1	-1E+10	1
4901784	180	C	06/08/2020	10:49	-132.222	43.063	0	1970.10	0	1.9640	0	37.3760	8	29.892	0	1945.293	0	55.9	4	17.2	4	-1E+10	1	-1E+10	1	-1E+10	1	-1E+10	1	-1E+10	1	-1E+10	1
4901784	180	C	06/08/2020	10:49	-132.222	43.063	0	1975.20	0	1.9630	0	37.3770	8	29.893	0	1950.306	0	56.2	4	17.3	4	-1E+10	1	-1E+10	1	-1E+10	1	-1E+10	1	-1E+10	1	-1E+10	1
4901784	180	C	06/08/2020	10:49	-132.222	43.063	0	1980.30	0	1.9610	0	37.3770	8	29.893	0	1955.318	0	56.4	4	17.4	4	-1E+10	1	-1E+10	1	-1E+10	1	-1E+10	1	-1E+10	1	-1E+10	1
4901784	180	C	06/08/2020	10:49	-132.222	43.063	0	1985.50	0	1.9570	0	37.3780	8	29.894	0	1960.429	0	56.7	4	17.5	4	-1E+10	1	-1E+10	1	-1E+10	1	-1E+10	1	-1E+10	1	-1E+10	1
4901784	180	C	06/08/2020	10:49	-132.222	43.063	0	1990.70	0	1.9540	0	37.3790	8	29.895	0	1965.539	0	57.0	4	17.5	4	-1E+10	1	-1E+10	1	-1E+10	1	-1E+10	1	-1E+10	1	-1E+10	1
4901784	180	C	06/08/2020	10:49	-132.222	43.063	0	1995.10	0	1.9520	0	37.3790	8	29.896	0	1969.863	0	57.2	4	17.6	4	-1E+10	1	-1E+10	1	-1E+10	1	-1E+10	1	-1E+10	1	-1E+10	1
4901784	180	C	06/08/2020	10:49	-132.222	43.063	0	1999.40	0	1.9500	0	37.3800	8	29.897	0	1974.089	0	57.5	4	17.7	4	-1E+10	1	-1E+10	1	-1E+10	1	-1E+10	1	-1E+10	1	-1E+10	1
4901784	180	C	06/08/2020	10:49	-132.222	43.063	0	2005.30	0	1.9460	0	37.3810	8	29.898	0	1979.887	0	57.7	4	17.8	4	-1E+10	1	-1E+10	1	-1E+10	1	-1E+10	1	-1E+10	1	-1E+10	1
4901784	180	C	06/08/2020	10:49	-132.222	43.063	0	2010.10	0	1.9420	0	37.3810	8	29.898	0	1984.604	0	57.9	4	17.8	4	-1E+10	1	-1E+10	1	-1E+10	1	-1E+10	1	-1E+10	1	-1E+10	1
4901784	180	C	06/08/2020	10:49	-132.222	43.063	0	2015.20	0	1.9400	0	37.3820	8	29.899	0	1989.615	0	58.2	4	17.9	4	-1E+10	1	-1E+10	1	-1E+10	1	-1E+10	1	-1E+10	1	-1E+10	1
4901784	180	C	06/08/2020	10:49	-132.222	43.063	0	2019.80	0	1.9370	0	37.3830	8	29.900	0	1994.135	0	58.4	4	18.0	4	-1E+10	1	-1E+10	1	-1E+10	1	-1E+10	1	-1E+10	1	-1E+10	1
4901784	180	C	06/08/2020	10:49	-132.222	43.063	0																										
4901784	181	C	06/18/2020	10:46	-132.150	42.971	0	2.10	0	14.2940	0	34.8260	8	25.991	0	2.083	0	249.8	4	99.3	4	-1E+10	1	-1E+10	1	-1E+10	1	-1E+10	1	-1E+10	1	-1E+10	1
4901784	181	C	06/18/2020	10:46	-132.150	42.971	0	3.90	0	14.2950	0	34.8190	8	25.986	0	3.869	0	249.6	4	99.2	4	-1E+10	1	-1E+10	1	-1E+10	1	-1E+10	1	-1E+10	1	-1E+10	1
4901784	181	C	06/18/2020	10:46	-132.150	42.971	0	5.80	0	14.0630	0	34.8410	8	26.052	0	5.754	0	249.5	4	98.7	4	-1E+10	1	-1E+10	1	-1E+10	1	-1E+10	1	-1E+10	1	-1E+10	1
4901784	181	C	06/18/2020	10:46	-132.150	42.971	0	7.80	0	13.8610	0	34.8400	8	26.094	0	7.738	0	251.4	4	99.1	4	-1E+10	1	-1E+10	1	-1E+10	1	-1E+10	1	-1E+10	1	-1E+10	1
4901784	181	C	06/18/2020	10:46	-132.150	42.971	0	9.90	0	13.8490	0	34.8420	8	26.098	0	9.821	0	251.4	4	99.0	4	-1E+10	1	-1E+10	1	-1E+10	1	-1E+10	1	-1E+10	1	-1E+10	1
4901784	181	C	06/18/2020	10:46	-132.150	42.971	0	11.90	0	13.8380	0	34.8420	8	26.100	0	11.805	0	251.2	4	99.0	4	-1E+10	1	-1E+10	1	-1E+10	1	-1E+10	1	-1E+10	1	-1E+10	1
4901784	181	C	06/18/2020	10:46	-132.150	42.971	0	13.90	0	13.8280	0	34.8430	8	26.103	0	13.789	0	251.1	4	98.9	4	-1E+10	1	-1E+10	1	-1E+10	1	-1E+10	1	-1E+10	1	-1E+10	1
4901784	181	C	06/18/2020	10:46	-132.150	42.971	0	15.90	0	13.8220	0	34.8440	8	26.105	0	15.773	0	251.0	4	98.8	4	-1E+10	1	-1E+10	1	-1E+10	1	-1E+10	1	-1E+10	1	-1E+10	1
4901784	181	C	06/18/2020	10:46	-132.150	42.971	0	18.30	0	13.8140	0	34.8430	8	26.106	0	18.154	0	251.2	4	98.9	4	-1E+10	1	-1E+10	1	-1E+10	1	-1E+10	1	-1E+10	1	-1E+10	1
4901784	181	C	06/18/2020	10:46	-132.150	42.971	0	18.90	0	13.8130	0	34.8440	8	26.107	0	18.749	0	250.9	4	98.8	4	-1E+10	1	-1E+10	1	-1E+10	1	-1E+10	1	-1E+10	1	-1E+10	1
4901784	181	C	06/18/2020	10:46	-132.150	42.971	0	20.70	0	13.8060	0	34.8440	8	26.108	0	20.535	0	251.0	4	98.8	4	-1E+10	1	-1E+10	1	-1E+10	1	-1E+10	1	-1E+10	1	-1E+10	1
4901784	181	C	06/18/2020	10:46	-132.150	42.971	0	22.30	0	13.8030	0	34.8430	8	26.108	0	22.122	0	251.0	4	98.8	4	-1E+10	1	-1E+10	1	-1E+10	1	-1E+10	1	-1E+10	1	-1E+10	1
4901784	181	C	06/18/2020	10:46	-132.150	42.971	0	24.00	0	13.7980	0	34.8430	8	26.109	0	23.808	0	251.1	4	98.8	4	-1E+10	1	-1E+10	1	-1E+10	1	-1E+10	1	-1E+10	1	-1E+10	1
4901784	181	C	06/18/2020	10:46	-132.150	42.971	0	25.70	0	13.7950	0	34.8410	8	26.109	0	25.495	0	251.0	4	98.8	4	-1E+10	1	-1E+10	1	-1E+10	1	-1E+10	1	-1E+10	1	-1E+10	1
4901784	181	C	06/18/2020	10:46	-132.150	42.971	0	27.40	0	13.7900	0	34.8380	8	26.107	0	27.181	0	251.3	4	98.9	4	-1E+10	1	-1E+10	1	-1E+10	1	-1E+10	1	-1E+10	1	-1E+10	1
4901784	181	C	06/18/2020	10:46	-132.150	42.971	0	29.20	0	13.7860	0	34.8310	8	26.103	0	28.966	0	251.6	4	99.0	4	-1E+10	1	-1E+10	1	-1E+10	1	-1E+10	1	-1E+10	1	-1E+10	1
4901784	181	C	06/18/2020	10:46	-132.150	42.971	0	29.60	0	13.7850	0	34.8280	8	26.101	0	29.363	0	251.6	4	99.0	4	-1E+10	1	-1E+10	1	-1E+10	1	-1E+10	1	-1E+10	1	-1E+10	1
4901784	181	C	06/18/2020	10:46	-132.150	42.971	0	30.80	0	13.7790	0	34.8180	8	26.094	0	30.553	0	252.2	4	99.2	4	-1E+10	1	-1E+10	1	-1E+10	1	-1E+10	1	-1E+10	1	-1E+10	1
4901784	181	C	06/18/2020	10:46	-132.150	42.971	0	32.00	0	13.7380	0	34.8010	8	26.090	0	31.744	0	253.1	4	99.5	4	-1E+10	1	-1E+10	1	-1E+10	1	-1E+10	1	-1E+10	1	-1E+10	1
4901784	181	C	06/18/2020	10:46	-132.150	42.971	0	33.20	0	13.3850	0	34.8130	8	26.172	0	32.934	0	255.2	4	99.6	4	-1E+10	1	-1E+10	1	-1E+10	1	-1E+10	1	-1E+10	1	-1E+10	1
4901784	181	C	06/18/2020	10:46	-132.150	42.971	0	34.50	0	13.1780	0	34.8070	8	26.209	0	34.223	0	257.5	4	100.1	4	-1E+10	1	-1E+10	1	-1E+10	1	-1E+10	1	-1E+10	1	-1E+10	1
4901784	181	C	06/18/2020	10:46	-132.150	42.971	0	35.80	0	12.7390	0	34.8110	8	26.300	0	35.513	0	260.9	4	100.5	4	-1E+10	1	-1E+10	1	-1E+10	1	-1E+10	1	-1E+10	1	-1E+10	1
4901784	181	C	06/18/2020	10:46	-132.150	42.971	0	37.20	0	12.2450	0	34.8240	8	26.407	0	36.902	0	263.5	4	100.5	4	-1E+10	1	-1E+10	1	-1E+10	1	-1E+10	1	-1E+10	1	-1E+10	1
4901784	181	C	06/18/2020	10:46	-132.150	42.971	0	38.60	0	11.7910	0	34.8550	8	26.518	0	38.290	0	266.5	4	100.7	4	-1E+10	1	-1E+10	1	-1E+10	1	-1E+10	1	-1E+10	1	-1E+10	1
4901784	181	C	06/18/2020	10:46	-132.150	42.971	0	40.20	0	11.5430	0	34.8710	8	26.577	0	39.877	0	268.1	4	100.8	4	-1E+10	1	-1E+10	1	-1E+10	1	-1E+10	1	-1E+10	1	-1E+10	1
4901784	181	C	06/18/2020	10:46	-132.150	42.971	0	41.60	0	11.4860	0	34.8660	8	26.583	0	41.266	0	268.0	4	100.6	4	-1E+10	1	-1E+10	1	-1E+10	1	-1E+10	1	-1E+10	1	-1E+10	1
4901784	181	C	06/18/2020	10:46	-132.150	42.971	0	43.20	0	11.3620	0	34.8650	8	26.606	0	42.853	0	268.4	4	100.5	4	-1E+10	1	-1E+10	1	-1E+10	1	-1E+10	1	-1E+10	1	-1E+10	1
4901784	181	C	06/18/2020	10:46	-132.150	42.971	0	44.70	0	11.1350	0	34.8680	8	26.650	0	44.341	0	268.9	4	100.2	4	-1E+10	1	-1E+10	1	-1E+10	1	-1E+10	1	-1E+10	1	-1E+10	1
4901784	181	C	06/18/2020	10:46	-132.150	42.971	0	46.30	0	10.8510	0	34.8930	8	26.721	0	45.928	0	269.4	4	99.8	4	-1E+10	1	-1E+10	1	-1E+10	1	-1E+10	1	-1E+10	1	-1E+10	1
4901784	181	C	06/18/2020	10:46	-132.150	42.971	0	47.90	0	10.6890	0	34.9000	8	26.755	0	47.515	0	269.4	4	99.5	4	-1E+10	1	-1E+10	1	-1E+10	1	-1E+10	1	-1E+10	1	-1E+10	1
4901784	181	C	06/18/2020	10:46	-132.150	42.971	0	49.50	0	10.6250	0	34.9000	8	26.766	0	49.101	0	269.4	4	99.3	4	-1E+10	1	-1E+10	1	-1E+10	1	-1E+10	1	-1E+10	1	-1E+10	1
4901784	181	C	06/18/2020	10:46	-132.150	42.971	0	51.20	0	10.5380	0	34.9010	8	26.783	0	50.788	0	269.1	4	99.0	4	-1E+10	1	-1E+10	1	-1E+10	1	-1E+10	1	-1E+10	1	-1E+10	1
4901784	181	C	06/18/2020	10:46	-132.150	42.971	0	52.80	0	10.4910	0	34.8980	8	26.789	0	52.375	0	268.5	4	98.7	4	-1E+10	1	-1E+10	1	-1E+10	1	-1E+10	1	-1E+10	1	-1E+10	1
4901784	181	C	06/18/2020	10:46	-132.150	42.971	0	54.40	0	10.3430	0	34.9100	8	26.824	0	53.961	0	268.0	4	98.3	4	-1E+10	1	-1E+10	1	-1E+10	1	-1E+10	1	-1E+10	1	-1E+10	1
4901784	181	C	06/18/2020	10:46	-132.150	42.971	0	56.20	0	10.2590	0	34.9150	8	26.843	0	55.747	0	267.7	4	98.0	4	-1E+10	1	-1E+10	1	-1E+10	1	-1E+10	1	-1E+10	1	-1E+10	1
4901784	181	C	06/18/2020	10:46	-132.150	42.971	0	58.00	0	10.2060	0	34.9190	8	26.855	0	57.532	0	267.3	4	97.7	4	-1E+10	1	-1E+10	1	-1E+10	1	-1E+10	1	-1E+10	1	-1E+10	1
4901784	181	C	06/18/2020	10:46	-132.150	42.971	0	59.80	0	10.1660	0	34.9190	8	26.862	0	59.317	0	266.9	4	97.5	4	-1E+10	1	-1E+10	1	-1E+10	1	-1E+10	1	-1E+10	1	-1E+10	1
4901784	181	C	06/18/2020	10:46	-132.150	42.971	0	61.50	0	10.0650	0	34.9320	8	26.889	0	61.003	0	266.6	4	97.2	4	-1E+10	1	-1E+10	1	-1E+10	1	-1E+10	1	-1E+10	1	-1E+10	1
4901784	181	C	06/18/2020	10:46	-132.150	42.971	0	63.30	0	10.0480	0	34.9330	8	26.893	0	62.788	0	266.4	4	97.1	4	-1E+10	1	-1E+10	1	-1E+10	1	-1E+10	1	-1E+10	1	-1E+10	1
4901784	181	C	06/18/2020	10:46	-132.150	42.971	0	65.10	0	10.0420	0	34.9320	8	26.893	0	64.573	0	266.1	4	96.9	4	-1E+10	1	-1E+10	1	-1E+10	1	-1E+10	1	-1E+10	1	-1E+10	1
4901784	181	C	06/18/2020	10:46	-132.150	42.971	0	66.90	0	10.0270	0	34.9330	8	26.897	0	66.359	0	265.8	4	96.8	4	-1E+10	1	-1E+10	1	-1E+10	1	-1E+10	1	-1E+10	1	-1E+10	1
4901784	181	C	06/18/2020	10:46	-132.150	42.971	0	68.60	0	10.0170	0	34.9310	8	26.897	0	68.045	0	265.6	4	96.7	4	-1E+10	1	-1E+10	1	-1E+10	1	-1E+10	1	-1E+10	1	-1E+10	1
4901784	181	C	06/18/2020	10:46	-132.150	42.971	0	70.30	0	9.9820	0	34.9310	8	26.903	0	69.731	0	265.0	4	96.4	4	-1E+10	1	-1E+10	1	-1E+10	1	-1E+10	1	-1E+10	1	-1E+10	1
4901784	181	C	06/18/2020	10:46	-132.150	42.971	0	72.10	0	9.9480	0	34.9310	8	26.909	0	71.516	0	264.9	4	96.3	4	-1E+10	1	-1E+10	1	-1E+10	1	-1E+10	1	-1E+10	1	-1E+10	1
4901784	181	C	06/18/2020	10:46	-132.150	42.971	0	73.80	0	9.9080	0	34.9320	8	26.916	0	73.202	0	264.9	4	96.2	4	-1E+10	1	-1E+10	1	-1E+10	1	-1E+10	1	-1E+10	1	-1E+10	1
4901784	181	C	06/18/2020	10:46	-132.150	42.971	0	75.60	0	9.8980	0	34.9300	8	26.917	0	74.987	0	264.6	4	96.1	4	-1E+10	1	-1E+10	1	-1E+10	1	-1E+10	1	-1E+10	1	-1E+10	1
4901784	181	C	06/18/2020	10:46	-132.150	42.971	0	77.30	0	9.8920	0	34.9290	8	26.917	0	76.673	0	264.5	4	96.1	4	-1E+10	1	-1E+10	1	-1E+10	1	-1E+10	1	-1E+10	1	-1E+10	1
4901784	181	C	06/18/2020	10:46	-132.150	42.971	0	79.00	0	9.8770	0	34.9280	8	26.919	0	78.358	0	264.2	4	95.9	4	-1E+10	1	-1E+10	1	-1E+10	1	-1E+10	1	-1E+10	1	-1E+10	1
4901784	181	C	06/18/2020	10:46	-132.150	42.971	0	80.70	0	9.8480	0	34.9240	8	26.921	0	80.044	0	264.0	4	95.8	4	-1E+10	1	-1E+10	1	-1E+10	1	-1E+10	1	-1E+10	1	-1E+10	1
4901784	181	C	06/18/2020	10:46	-132.150	42.971	0	82.40	0	9.8080	0	34.9220	8	26.926	0	81.730	0	263.8	4	95.6	4	-1E+10	1	-1E+10	1	-1E+10	1	-1E+10	1	-1E+10	1	-1E+10	1
4901784	181	C	06/18/2020	10:46	-132.150	42.971	0	84.10	0	9.7340	0	34.9230	8	26.939	0	83.416	0	263.4	4	95.3	4	-1E+10	1	-1E+10	1	-1E+10	1	-1E+10	1	-1E+10	1	-1E+10	1
4901784	181	C	06/18/2020	10:46	-132.150	42.971	0	85.90	0	9.6780	0	34.9250	8	26.950	0	85.201	0	263.1	4	95.1	4	-1E+10	1	-1E+10	1	-1E+10	1	-1E+10	1	-1E+10	1	-1E+10	1
4901784	181	C	06/18/2020	10:46	-132.150	42.971	0	87.60	0	9.6030	0	34.9230	8	26.961	0	86.887	0	262.7	4	94.8	4	-1E+10	1	-1E+10	1	-1E+10	1	-1E+10	1	-1E+10	1	-1E+10	1
4901784	181	C	06/18/2020	10:46	-132.150	42.971	0	89.40	0	9.5420	0	34.9210	8	26.970	0	88.672	0	262.3	4	94.5	4	-1E+10	1	-1E+10	1	-1E+10	1	-1E+10	1	-1E+10	1	-1E+10	1
4901784	181	C	06/18/2020	10:46	-132.150	42.971	0	91.20	0	9.5040	0	34.9180	8	26.974	0	90.457	0	262.1	4	94.4	4	-1E+10	1	-1E+10	1	-1E+10	1	-1E+10	1	-1E+10	1	-1E+10	1
4901784	181	C	06/18/2020	10:46	-132.150	42.971	0	92.90	0	9.4770	0	34.9160	8	26.977	0	92.142	0	262.1	4	94.3	4	-1E+10	1	-1E+10	1	-1E+10	1	-1E+10	1	-1E+10	1	-1E+10	1
4901784	181	C	06/18/2020	10:46	-132.150	42.971	0	94.60	0	9.4530	0	34.9160	8	26.981	0	93.828	0	261.9	4	94.2	4	-1E+10	1	-1E+10	1	-1E+10	1	-1E+10	1	-1E+10	1	-1E+10	1
4901784	181	C	06/18/2020	10:46	-132.150	42.971	0	96.40	0	9.4290	0	34.9150	8	26.984	0	95.613	0	261.8	4	94.1	4	-1E+10	1	-1E+10	1	-1E+10	1	-1E+10	1	-1E+10	1	-1E+10	1
4901784	181	C	06/18/2020	10:46	-132.150	42.971	0	98.20	0	9.3940	0	34.9150	8	26.990	0	97.398	0	261.7	4	94.0	4	-1E+10	1	-1E+10	1	-1E+10	1	-1E+10	1	-1E+10	1	-1E+10	1
4901784	181	C	06/18/2020	10:46	-132.150	42.971	0	100.00	0	9.3530	0	34.9140	8	26.996	0	99.183	0	261.8	4	93.9	4	-1E+10	1	-1E+10	1	-1E+10	1	-1E+10	1	-1E+10	1	-1E+10	1
4901784	181	C	06/18/2020	10:46	-132.150	42.971	0	102.60	0	9.2990	0	34.9120	8	27.003	0	101.761	0	261.6	4	93.8	4	-1E+10	1	-1E+10	1	-1E+10	1	-1E+10	1	-1E+10	1	-1E+10	1
4901784	181	C	06/18/2020	10:46	-132.150	42.971	0	105.20	0	9.2080	0	34.9140	8	27.019	0	104.339	0	261.7	4	93.6	4	-1E+10	1	-1E+10	1	-1E+10	1	-1E+10	1	-1E+10	1	-1E+10	1
4901784	181	C	06/18/2020	10:46	-132.150	42.971	0	107.10	0	9.1650	0	34.9140	8	27.026	0	106.223	0	261.6	4	93.5	4	-1E+10	1	-1E+10	1	-1E+10	1	-1E+10	1	-1E+10	1	-1E+10	1
4901784	181	C	06/18/2020	10:46	-132.150	42.971	0	109.80	0	9.0970	0	34.9110	8	27.035	0	108.900	0	261.3	4	93.3	4	-1E+10	1	-1E+10	1	-1E+10	1	-1E+10	1	-1E+10	1	-1E+10	1
4901784	181	C	06/18/2020	10:46	-132.150	42.971	0	112.40	0	9.0020	0	34.9120	8	27.051	0	111.478	0	260.3	4	92.7	4	-1E+10	1	-1E+10	1	-1E+10	1	-1E+10	1	-1E+10	1	-1E+10	1
4901784	181	C	06/18/2020	10:46	-132.150	42.971	0	115.10	0	8.9340	0	34.9160	8	27.065	0	114.155	0	258.8	4	92.0	4	-1E+10	1	-1E+10	1	-1E+10	1	-1E+10	1	-1E+10	1	-1E+10	1
4901784	181	C	06/18/2020	10:46	-132.150	42.971	0	117.70	0	8.8400	0	34.9250	8	27.087	0	116.733	0	257.5	4	91.4	4	-1E+10	1	-1E+10	1	-1E+10	1	-1E+10	1	-1E+10	1	-1E+10	1
4901784	181	C	06/18/2020	10:46	-132.150	42.971	0	119.60	0	8.8140	0	34.9250	8	27.092	0	118.617	0	255.9	4	90.8	4	-1E+10	1	-1E+10	1	-1E+10	1	-1E+10	1	-1E+10	1	-1E+10	1
4901784	181	C	06/18/2020	10:46	-132.150	42.971	0	122.30	0	8.7010	0	34.9470	8	27.127	0	121.294	0	252.9	4	89.5	4	-1E+10	1	-1E+10	1	-1E+10	1	-1E+10	1	-1E+10	1	-1E+10	1
4901784	181	C	06/18/2020	10:46	-132.150	42.971	0	125.00	0	8.6320	0	34.9640	8	27.151	0	123.971	0	248.8	4	87.9	4	-1E+10	1	-1E+10	1	-1E+10	1	-1E+10	1	-1E+10	1	-1E+10	1
4901784	181	C	06/18/2020	10:46	-132.150	42.971	0	127.70	0	8.5890	0	35.0100	8	27.194	0	126.648	0	244.0	4	86.2	4	-1E+10	1	-1E+10	1	-1E+10	1	-1E+10	1	-1E+10	1	-1E+10	1
4901784	181	C	06/18/2020	10:46	-132.150	42.971	0	130.90	0	8.6350	0	35.0810	8	27.242	0	129.821	0	237.1	4	83.9	4	-1E+10	1	-1E+10	1	-1E+10	1	-1E+10	1	-1E+10	1	-1E+10	1
4901784	181	C	06/18/2020	10:46	-132.150	42.971	0	132.70	0	8.6130	0	35.1240	8	27.279	0	131.605	0	233.4	4	82.6	4	-1E+10	1	-1E+10	1	-1E+10	1	-1E+10	1	-1E+10	1	-1E+10	1
4901784	181	C	06/18/2020	10:46	-132.150	42.971	0	134.90	0	8.6070	0	35.1330	8	27.288	0	133.786	0	228.2	4	80.7	4	-1E+10	1	-1E+10	1	-1E+10	1	-1E+10	1	-1E+10	1	-1E+10	1
4901784	181	C	06/18/2020	10:46	-132.150	42.971	0	137.80	0	8.4810	0	35.2500	8	27.399	0	136.661	0	220.3	4	77.8	4	-1E+10	1	-1E+10	1	-1E+10	1	-1E+10	1	-1E+10	1	-1E+10	1
4901784	181	C	06/18/2020	10:46	-132.150	42.971	0	140.60	0	8.3830	0	35.3700	8	27.508	0	139.437	0	215.4	4	75.9	4	-1E+10	1	-1E+10	1	-1E+10	1	-1E+10	1	-1E+10	1	-1E+10	1
4901784	181	C	06/18/2020	10:46	-132.150	42.971	0	142.80	0	8.4060	0	35.4280	8	27.550	0	141.618	0	212.0	4	74.8	4	-1E+10	1	-1E+10	1	-1E+10	1	-1E+10	1	-1E+10	1	-1E+10	1
4901784	181	C	06/18/2020	10:46	-132.150	42.971	0	145.40	0	8.3090	0	35.4930	8	27.617	0	144.196	0	209.1	4	73.6	4	-1E+10	1	-1E+10	1	-1E+10	1	-1E+10	1	-1E+10	1	-1E+10	1
4901784	181	C	06/18/2020	10:46	-132.150	42.971	0	147.50	0	8.1830	0	35.5610	8	27.689	0	146.278	0	207.2	4	72.8	4	-1E+10	1	-1E+10	1	-1E+10	1	-1E+10	1	-1E+10	1	-1E+10	1
4901784	181	C	06/18/2020	10:46	-132.150	42.971	0	149.80	0	8.1120	0	35.6420	8	27.764	0	148.558	0	205.2	4	72.0	4	-1E+10	1	-1E+10	1	-1E+10	1	-1E+10	1	-1E+10	1	-1E+10	1
4901784	181	C	06/18/2020	10:46	-132.150	42.971	0	152.80	0	8.0420	0	35.6890	8	27.812	0	151.532	0	203.6	4	71.4	4	-1E+10	1	-1E+10	1	-1E+10	1	-1E+10	1	-1E+10	1	-1E+10	1
4901784	181	C	06/18/2020	10:46	-132.150	42.971	0	155.00	0	7.9550	0	35.7330	8	27.859	0	153.713	0	201.9	4	70.7	4	-1E+10	1	-1E+10	1	-1E+10	1	-1E+10	1	-1E+10	1	-1E+10	1
4901784	181	C	06/18/2020	10:46	-132.150	42.971	0	157.30	0	7.8930	0	35.7720	8	27.899	0	155.993	0	200.1	4	70.0	4	-1E+10	1	-1E+10	1	-1E+10	1	-1E+10	1	-1E+10	1	-1E+10	1
4901784	181	C	06/18/2020	10:46	-132.150	42.971	0	159.70	0	7.8510	0	35.8010	8	27.929	0	158.372	0	197.8	4	69.1	4	-1E+10	1	-1E+10	1	-1E+10	1	-1E+10	1	-1E+10	1	-1E+10	1
4901784	181	C	06/18/2020	10:46	-132.150	42.971	0	162.20	0	7.7630	0	35.9130	8	28.030	0	160.850	0	195.4	4	68.2	4	-1E+10	1	-1E+10	1	-1E+10	1	-1E+10	1	-1E+10	1	-1E+10	1
4901784	181	C	06/18/2020	10:46	-132.150	42.971	0	164.70	0	7.7320	0	35.9800	8	28.087	0	163.328	0	193.9	4	67.6	4	-1E+10	1	-1E+10	1	-1E+10	1	-1E+10	1	-1E+10	1	-1E+10	1
4901784	181	C	06/18/2020	10:46	-132.150	42.971	0	167.30	0	7.7270	0	36.0070	8	28.109	0	165.906	0	192.1	4	67.1	4	-1E+10	1	-1E+10	1	-1E+10	1	-1E+10	1	-1E+10	1	-1E+10	1
4901784	181	C	06/18/2020	10:46	-132.150	42.971	0	169.80	0	7.7270	0	36.0250	8	28.123	0	168.384	0	190.1	4	66.3	4	-1E+10	1	-1E+10	1	-1E+10	1	-1E+10	1	-1E+10	1	-1E+10	1
4901784	181	C	06/18/2020	10:46	-132.150	42.971	0	172.30	0	7.7140	0	36.0630	8	28.155	0	170.862	0	187.4	4	65.4	4	-1E+10	1	-1E+10	1	-1E+10	1	-1E+10	1	-1E+10	1	-1E+10	1
4901784	181	C	06/18/2020	10:46	-132.150	42.971	0	174.80	0	7.6920	0	36.0960	8	28.185	0	173.340	0	184.5	4	64.4	4	-1E+10	1	-1E+10	1	-1E+10	1	-1E+10	1	-1E+10	1	-1E+10	1
4901784	181	C	06/18/2020	10:46	-132.150	42.971	0	177.60	0	7.6990	0	36.1590	8	28.233	0	176.116	0	181.3	4	63.3	4	-1E+10	1	-1E+10	1	-1E+10	1	-1E+10	1	-1E+10	1	-1E+10	1
4901784	181	C	06/18/2020	10:46	-132.150	42.971	0	179.90	0	7.7090	0	36.1930	8	28.258	0	178.395	0	178.4	4	62.3	4	-1E+10	1	-1E+10	1	-1E+10	1	-1E+10	1	-1E+10	1	-1E+10	1
4901784	181	C	06/18/2020	10:46	-132.150	42.971	0	183.00	0	7.7280	0	36.2540	8	28.304	0	181.468	0	173.7	4	60.7	4	-1E+10	1	-1E+10	1	-1E+10	1	-1E+10	1	-1E+10	1	-1E+10	1
4901784	181	C	06/18/2020	10:46	-132.150	42.971	0	185.30	0	7.7540	0	36.3010	8	28.337	0	183.748	0	170.3	4	59.6	4	-1E+10	1	-1E+10	1	-1E+10	1	-1E+10	1	-1E+10	1	-1E+10	1
4901784	181	C	06/18/2020	10:46	-132.150	42.971	0	187.70	0	7.7580	0	36.3310	8	28.360	0	186.127	0	166.3	4	58.2	4	-1E+10	1	-1E+10	1	-1E+10	1	-1E+10	1	-1E+10	1	-1E+10	1
4901784	181	C	06/18/2020	10:46	-132.150	42.971	0	190.20	0	7.7610	0	36.3660	8	28.387	0	188.604	0	162.4	4	56.9	4	-1E+10	1	-1E+10	1	-1E+10	1	-1E+10	1	-1E+10	1	-1E+10	1
4901784	181	C	06/18/2020	10:46	-132.150	42.971	0	192.70	0	7.7680	0	36.3810	8	28.398	0	191.082	0	157.5	4	55.2	4	-1E+10	1	-1E+10	1	-1E+10	1	-1E+10	1	-1E+10	1	-1E+10	1
4901784	181	C	06/18/2020	10:46	-132.150	42.971	0	195.20	0	7.7730	0	36.3990	8	28.411	0	193.560	0	150.9	4	52.9	4	-1E+10	1	-1E+10	1	-1E+10	1	-1E+10	1	-1E+10	1	-1E+10	1
4901784	181	C	06/18/2020	10:46	-132.150	42.971	0	197.60	0	7.8250	0	36.4410	8	28.436	0	195.939	0	142.2	4	49.9	4	-1E+10	1	-1E+10	1	-1E+10	1	-1E+10	1	-1E+10	1	-1E+10	1
4901784	181	C	06/18/2020	10:46	-132.150	42.971	0	200.10	0	7.8820	0	36.4790	8	28.458	0	198.417	0	136.4	4	47.9	4	-1E+10	1	-1E+10	1	-1E+10	1	-1E+10	1	-1E+10	1	-1E+10	1
4901784	181	C	06/18/2020	10:46	-132.150	42.971	0	202.60	0	7.9040	0	36.4870	8	28.461	0	200.894	0	134.1	4	47.1	4	-1E+10	1	-1E+10	1	-1E+10	1	-1E+10	1	-1E+10	1	-1E+10	1
4901784	181	C	06/18/2020	10:46	-132.150	42.971	0	205.20	0	7.8710	0	36.5050	8	28.480	0	203.471	0	133.3	4	46.8	4	-1E+10	1	-1E+10	1	-1E+10	1	-1E+10	1	-1E+10	1	-1E+10	1
4901784	181	C	06/18/2020	10:46	-132.150	42.971	0	207.70	0	7.8330	0	36.5130	8	28.492	0	205.949	0	132.6	4	46.6	4	-1E+10	1	-1E+10	1	-1E+10	1	-1E+10	1	-1E+10	1	-1E+10	1
4901784	181	C	06/18/2020	10:46	-132.150	42.971	0	210.30	0	7.8240	0	36.5150	8	28.495	0	208.526	0	131.4	4	46.1	4	-1E+10	1	-1E+10	1	-1E+10	1	-1E+10	1	-1E+10	1	-1E+10	1
4901784	181	C	06/18/2020	10:46	-132.150	42.971	0	212.80	0	7.7940	0	36.5230	8	28.506	0	211.003	0	130.1	4	45.7	4	-1E+10	1	-1E+10	1	-1E+10	1	-1E+10	1	-1E+10	1	-1E+10	1
4901784	181	C	06/18/2020	10:46	-132.150	42.971	0	215.30	0	7.7880	0	36.5300	8	28.512	0	213.481	0	129.3	4	45.4	4	-1E+10	1	-1E+10	1	-1E+10	1	-1E+10	1	-1E+10	1	-1E+10	1
4901784	181	C	06/18/2020	10:46	-132.150	42.971	0	217.70	0	7.7490	0	36.5330	8	28.521	0	215.859	0	129.2	4	45.3	4	-1E+10	1	-1E+10	1	-1E+10	1	-1E+10	1	-1E+10	1	-1E+10	1
4901784	181	C	06/18/2020	10:46	-132.150	42.971	0	220.30	0	7.7170	0	36.5370	8	28.529	0	218.436	0	128.5	4	45.0	4	-1E+10	1	-1E+10	1	-1E+10	1	-1E+10	1	-1E+10	1	-1E+10	1
4901784	181	C	06/18/2020	10:46	-132.150	42.971	0	222.90	0	7.6610	0	36.5410	8	28.540	0	221.013	0	127.0	4	44.4	4	-1E+10	1	-1E+10	1	-1E+10	1	-1E+10	1	-1E+10	1	-1E+10	1
4901784	181	C	06/18/2020	10:46	-132.150	42.971	0	225.50	0	7.6170	0	36.5450	8	28.550	0	223.589	0	126.4	4	44.2	4	-1E+10	1	-1E+10	1	-1E+10	1	-1E+10	1	-1E+10	1	-1E+10	1
4901784	181	C	06/18/2020	10:46	-132.150	42.971	0	227.20	0	7.6150	0	36.5430	8	28.549	0	225.274	0	126.5	4	44.2	4	-1E+10	1	-1E+10	1	-1E+10	1	-1E+10	1	-1E+10	1	-1E+10	1
4901784	181	C	06/18/2020	10:46	-132.150	42.971	0	229.80	0	7.5740	0	36.5450	8	28.556	0	227.850	0	126.9	4	44.3	4	-1E+10	1	-1E+10	1	-1E+10	1	-1E+10	1	-1E+10	1	-1E+10	1
4901784	181	C	06/18/2020	10:46	-132.150	42.971	0	232.40	0	7.4970	0	36.5540	8	28.575	0	230.427	0	127.7	4	44.5	4	-1E+10	1	-1E+10	1	-1E+10	1	-1E+10	1	-1E+10	1	-1E+10	1
4901784	181	C	06/18/2020	10:46	-132.150	42.971	0	235.10	0	7.4470	0	36.5540	8	28.582	0	233.103	0	127.1	4	44.2	4	-1E+10	1	-1E+10	1	-1E+10	1	-1E+10	1	-1E+10	1	-1E+10	1
4901784	181	C	06/18/2020	10:46	-132.150	42.971	0	237.80	0	7.4190	0	36.5560	8	28.588	0	235.778	0	125.8	4	43.8	4	-1E+10	1	-1E+10	1	-1E+10	1	-1E+10	1	-1E+10	1	-1E+10	1
4901784	181	C	06/18/2020	10:46	-132.150	42.971	0	239.50	0	7.4180	0	36.5540	8	28.587	0	237.463	0	124.6	4	43.4	4	-1E+10	1	-1E+10	1	-1E+10	1	-1E+10	1	-1E+10	1	-1E+10	1
4901784	181	C	06/18/2020	10:46	-132.150	42.971	0	242.10	0	7.3770	0	36.5540	8	28.593	0	240.039	0	122.4	4	42.6	4	-1E+10	1	-1E+10	1	-1E+10	1	-1E+10	1	-1E+10	1	-1E+10	1
4901784	181	C	06/18/2020	10:46	-132.150	42.971	0	244.80	0	7.3020	0	36.5580	8	28.607	0	242.714	0	121.1	4	42.0	4	-1E+10	1	-1E+10	1	-1E+10	1	-1E+10	1	-1E+10	1	-1E+10	1
4901784	181	C	06/18/2020	10:46	-132.150	42.971	0	247.40	0	7.2700	0	36.5600	8	28.613	0	245.291	0	119.3	4	41.4	4	-1E+10	1	-1E+10	1	-1E+10	1	-1E+10	1	-1E+10	1	-1E+10	1
4901784	181	C	06/18/2020	10:46	-132.150	42.971	0	250.10	0	7.2540	0	36.5600	8	28.616	0	247.966	0	117.3	4	40.7	4	-1E+10	1	-1E+10	1	-1E+10	1	-1E+10	1	-1E+10	1	-1E+10	1
4901784	181	C	06/18/2020	10:46	-132.150	42.971	0	252.70	0	7.2160	0	36.5640	8	28.624	0	250.542	0	116.4	4	40.3	4	-1E+10	1	-1E+10	1	-1E+10	1	-1E+10	1	-1E+10	1	-1E+10	1
4901784	181	C	06/18/2020	10:46	-132.150	42.971	0	255.30	0	7.1880	0	36.5630	8	28.628	0	253.119	0	115.6	4	40.0	4	-1E+10	1	-1E+10	1	-1E+10	1	-1E+10	1	-1E+10	1	-1E+10	1
4901784	181	C	06/18/2020	10:46	-132.150	42.971	0	257.80	0	7.1450	0	36.5650	8	28.635	0	255.596	0	115.2	4	39.8	4	-1E+10	1	-1E+10	1	-1E+10	1	-1E+10	1	-1E+10	1	-1E+10	1
4901784	181	C	06/18/2020	10:46	-132.150	42.971	0	260.40	0	7.1170	0	36.5690	8	28.643	0	258.172	0	115.2	4	39.8	4	-1E+10	1	-1E+10	1	-1E+10	1	-1E+10	1	-1E+10	1	-1E+10	1
4901784	181	C	06/18/2020	10:46	-132.150	42.971	0	262.20	0	7.1080	0	36.5700	8	28.645	0	259.955	0	115.0	4	39.7	4	-1E+10	1	-1E+10	1	-1E+10	1	-1E+10	1	-1E+10	1	-1E+10	1
4901784	181	C	06/18/2020	10:46	-132.150	42.971	0	264.80	0	7.0990	0	36.5690	8	28.645	0	262.531	0	114.6	4	39.6	4	-1E+10	1	-1E+10	1	-1E+10	1	-1E+10	1	-1E+10	1	-1E+10	1
4901784	181	C	06/18/2020	10:46	-132.150	42.971	0	267.40	0	7.0830	0	36.5680	8	28.647	0	265.107	0	114.3	4	39.5	4	-1E+10	1	-1E+10	1	-1E+10	1	-1E+10	1	-1E+10	1	-1E+10	1
4901784	181	C	06/18/2020	10:46	-132.150	42.971	0	270.00	0	7.0450	0	36.5670	8	28.652	0	267.683	0	113.4	4	39.1	4	-1E+10	1	-1E+10	1	-1E+10	1	-1E+10	1	-1E+10	1	-1E+10	1
4901784	181	C	06/18/2020	10:46	-132.150	42.971	0	272.60	0	7.0080	0	36.5660	8	28.656	0	270.259	0	111.4	4	38.4	4	-1E+10	1	-1E+10	1	-1E+10	1	-1E+10	1	-1E+10	1	-1E+10	1
4901784	181	C	06/18/2020	10:46	-132.150	42.971	0	275.30	0	6.9650	0	36.5700	8	28.665	0	272.934	0	109.1	4	37.6	4	-1E+10	1	-1E+10	1	-1E+10	1	-1E+10	1	-1E+10	1	-1E+10	1
4901784	181	C	06/18/2020	10:46	-132.150	42.971	0	277.90	0	6.9180	0	36.5710	8	28.673	0	275.510	0	108.6	4	37.4	4	-1E+10	1	-1E+10	1	-1E+10	1	-1E+10	1	-1E+10	1	-1E+10	1
4901784	181	C	06/18/2020	10:46	-132.150	42.971	0	279.60	0	6.9050	0	36.5700	8	28.674	0	277.195	0	108.1	4	37.2	4	-1E+10	1	-1E+10	1	-1E+10	1	-1E+10	1	-1E+10	1	-1E+10	1
4901784	181	C	06/18/2020	10:46	-132.150	42.971	0	282.30	0	6.8490	0	36.5740	8	28.685	0	279.870	0	108.3	4	37.2	4	-1E+10	1	-1E+10	1	-1E+10	1	-1E+10	1	-1E+10	1	-1E+10	1
4901784	181	C	06/18/2020	10:46	-132.150	42.971	0	284.90	0	6.8060	0	36.5710	8	28.689	0	282.445	0	109.5	4	37.6	4	-1E+10	1	-1E+10	1	-1E+10	1	-1E+10	1	-1E+10	1	-1E+10	1
4901784	181	C	06/18/2020	10:46	-132.150	42.971	0	287.60	0	6.7420	0	36.5700	8	28.697	0	285.120	0	110.3	4	37.8	4	-1E+10	1	-1E+10	1	-1E+10	1	-1E+10	1	-1E+10	1	-1E+10	1
4901784	181	C	06/18/2020	10:46	-132.150	42.971	0	290.30	0	6.6920	0	36.5680	8	28.702	0	287.795	0	110.3	4	37.8	4	-1E+10	1	-1E+10	1	-1E+10	1	-1E+10	1	-1E+10	1	-1E+10	1
4901784	181	C	06/18/2020	10:46	-132.150	42.971	0	292.10	0	6.6760	0	36.5690	8	28.706	0	289.578	0	109.4	4	37.4	4	-1E+10	1	-1E+10	1	-1E+10	1	-1E+10	1	-1E+10	1	-1E+10	1
4901784	181	C	06/18/2020	10:46	-132.150	42.971	0	294.80	0	6.6510	0	36.5690	8	28.709	0	292.253	0	108.0	4	36.9	4	-1E+10	1	-1E+10	1	-1E+10	1	-1E+10	1	-1E+10	1	-1E+10	1
4901784	181	C	06/18/2020	10:46	-132.150	42.971	0	297.40	0	6.6200	0	36.5680	8	28.713	0	294.829	0	105.9	4	36.2	4	-1E+10	1	-1E+10	1	-1E+10	1	-1E+10	1	-1E+10	1	-1E+10	1
4901784	181	C	06/18/2020	10:46	-132.150	42.971	0	300.00	0	6.6000	0	36.5700	8	28.717	0	297.405	0	103.3	4	35.3	4	-1E+10	1	-1E+10	1	-1E+10	1	-1E+10	1	-1E+10	1	-1E+10	1
4901784	181	C	06/18/2020	10:46	-132.150	42.971	0	302.70	0	6.5410	0	36.5730	8	28.727	0	300.079	0	102.4	4	34.9	4	-1E+10	1	-1E+10	1	-1E+10	1	-1E+10	1	-1E+10	1	-1E+10	1
4901784	181	C	06/18/2020	10:46	-132.150	42.971	0	305.30	0	6.4770	0	36.5740	8	28.737	0	302.655	0	102.8	4	35.0	4	-1E+10	1	-1E+10	1	-1E+10	1	-1E+10	1	-1E+10	1	-1E+10	1
4901784	181	C	06/18/2020	10:46	-132.150	42.971	0	307.90	0	6.4200	0	36.5740	8	28.745	0	305.230	0	102.6	4	34.9	4	-1E+10	1	-1E+10	1	-1E+10	1	-1E+10	1	-1E+10	1	-1E+10	1
4901784	181	C	06/18/2020	10:46	-132.150	42.971	0	309.60	0	6.3960	0	36.5750	8	28.749	0	306.914	0	102.4	4	34.8	4	-1E+10	1	-1E+10	1	-1E+10	1	-1E+10	1	-1E+10	1	-1E+10	1
4901784	181	C	06/18/2020	10:46	-132.150	42.971	0	312.40	0	6.3650	0	36.5750	8	28.753	0	309.688	0	102.3	4	34.8	4	-1E+10	1	-1E+10	1	-1E+10	1	-1E+10	1	-1E+10	1	-1E+10	1
4901784	181	C	06/18/2020	10:46	-132.150	42.971	0	315.10	0	6.3440	0	36.5730	8	28.755	0	312.363	0	101.8	4	34.6	4	-1E+10	1	-1E+10	1	-1E+10	1	-1E+10	1	-1E+10	1	-1E+10	1
4901784	181	C	06/18/2020	10:46	-132.150	42.971	0	317.80	0	6.2930	0	36.5730	8	28.761	0	315.037	0	100.9	4	34.2	4	-1E+10	1	-1E+10	1	-1E+10	1	-1E+10	1	-1E+10	1	-1E+10	1
4901784	181	C	06/18/2020	10:46	-132.150	42.971	0	320.60	0	6.2540	0	36.5740	8	28.768	0	317.811	0	100.1	4	33.9	4	-1E+10	1	-1E+10	1	-1E+10	1	-1E+10	1	-1E+10	1	-1E+10	1
4901784	181	C	06/18/2020	10:46	-132.150	42.971	0	322.40	0	6.2430	0	36.5720	8	28.767	0	319.593	0	99.6	4	33.7	4	-1E+10	1	-1E+10	1	-1E+10	1	-1E+10	1	-1E+10	1	-1E+10	1
4901784	181	C	06/18/2020	10:46	-132.150	42.971	0	325.20	0	6.1770	0	36.5730	8	28.777	0	322.367	0	98.0	4	33.1	4	-1E+10	1	-1E+10	1	-1E+10	1	-1E+10	1	-1E+10	1	-1E+10	1
4901784	181	C	06/18/2020	10:46	-132.150	42.971	0	328.00	0	6.1290	0	36.5740	8	28.784	0	325.140	0	94.6	4	32.0	4	-1E+10	1	-1E+10	1	-1E+10	1	-1E+10	1	-1E+10	1	-1E+10	1
4901784	181	C	06/18/2020	10:46	-132.150	42.971	0	329.80	0	6.0740	0	36.5780	8	28.795	0	326.923	0	91.6	4	30.9	4	-1E+10	1	-1E+10	1	-1E+10	1	-1E+10	1	-1E+10	1	-1E+10	1
4901784	181	C	06/18/2020	10:46	-132.150	42.971	0	332.70	0	6.0940	0	36.5870	8	28.799	0	329.796	0	87.8	4	29.7	4	-1E+10	1	-1E+10	1	-1E+10	1	-1E+10	1	-1E+10	1	-1E+10	1
4901784	181	C	06/18/2020	10:46	-132.150	42.971	0	335.80	0	6.0460	0	36.5910	8	28.809	0	332.866	0	85.9	4	29.0	4	-1E+10	1	-1E+10	1	-1E+10	1	-1E+10	1	-1E+10	1	-1E+10	1
4901784	181	C	06/18/2020	10:46	-132.150	42.971	0	337.10	0	6.0560	0	36.5960	8	28.812	0	334.154	0	84.8	4	28.6	4	-1E+10	1	-1E+10	1	-1E+10	1	-1E+10	1	-1E+10	1	-1E+10	1
4901784	181	C	06/18/2020	10:46	-132.150	42.971	0	340.30	0	6.0210	0	36.5970	8	28.817	0	337.323	0	84.7	4	28.6	4	-1E+10	1	-1E+10	1	-1E+10	1	-1E+10	1	-1E+10	1	-1E+10	1
4901784	181	C	06/18/2020	10:46	-132.150	42.971	0	342.70	0	6.0050	0	36.5980	8	28.820	0	339.700	0	84.2	4	28.4	4	-1E+10	1	-1E+10	1	-1E+10	1	-1E+10	1	-1E+10	1	-1E+10	1
4901784	181	C	06/18/2020	10:46	-132.150	42.971	0	345.10	0	5.9770	0	36.5970	8	28.823	0	342.077	0	83.6	4	28.1	4	-1E+10	1	-1E+10	1	-1E+10	1	-1E+10	1	-1E+10	1	-1E+10	1
4901784	181	C	06/18/2020	10:46	-132.150	42.971	0	347.50	0	5.9530	0	36.5980	8	28.827	0	344.454	0	82.3	4	27.7	4	-1E+10	1	-1E+10	1	-1E+10	1	-1E+10	1	-1E+10	1	-1E+10	1
4901784	181	C	06/18/2020	10:46	-132.150	42.971	0	349.80	0	5.9470	0	36.6080	8	28.836	0	346.732	0	80.4	4	27.1	4	-1E+10	1	-1E+10	1	-1E+10	1	-1E+10	1	-1E+10	1	-1E+10	1
4901784	181	C	06/18/2020	10:46	-132.150	42.971	0	352.20	0	5.9580	0	36.6150	8	28.840	0	349.109	0	79.0	4	26.6	4	-1E+10	1	-1E+10	1	-1E+10	1	-1E+10	1	-1E+10	1	-1E+10	1
4901784	181	C	06/18/2020	10:46	-132.150	42.971	0	354.60	0	5.9290	0	36.6150	8	28.843	0	351.486	0	78.3	4	26.4	4	-1E+10	1	-1E+10	1	-1E+10	1	-1E+10	1	-1E+10	1	-1E+10	1
4901784	181	C	06/18/2020	10:46	-132.150	42.971	0	357.80	0	5.9060	0	36.6180	8	28.849	0	354.655	0	76.6	4	25.8	4	-1E+10	1	-1E+10	1	-1E+10	1	-1E+10	1	-1E+10	1	-1E+10	1
4901784	181	C	06/18/2020	10:46	-132.150	42.971	0	360.20	0	5.9010	0	36.6210	8	28.852	0	357.032	0	75.4	4	25.4	4	-1E+10	1	-1E+10	1	-1E+10	1	-1E+10	1	-1E+10	1	-1E+10	1
4901784	181	C	06/18/2020	10:46	-132.150	42.971	0	362.60	0	5.8940	0	36.6220	8	28.854	0	359.409	0	74.5	4	25.1	4	-1E+10	1	-1E+10	1	-1E+10	1	-1E+10	1	-1E+10	1	-1E+10	1
4901784	181	C	06/18/2020	10:46	-132.150	42.971	0	365.10	0	5.8730	0	36.6210	8	28.856	0	361.884	0	74.1	4	24.9	4	-1E+10	1	-1E+10	1	-1E+10	1	-1E+10	1	-1E+10	1	-1E+10	1
4901784	181	C	06/18/2020	10:46	-132.150	42.971	0	367.60	0	5.8220	0	36.6200	8	28.862	0	364.360	0	73.9	4	24.8	4	-1E+10	1	-1E+10	1	-1E+10	1	-1E+10	1	-1E+10	1	-1E+10	1
4901784	181	C	06/18/2020	10:46	-132.150	42.971	0	370.10	0	5.7860	0	36.6210	8	28.867	0	366.836	0	73.6	4	24.7	4	-1E+10	1	-1E+10	1	-1E+10	1	-1E+10	1	-1E+10	1	-1E+10	1
4901784	181	C	06/18/2020	10:46	-132.150	42.971	0	372.70	0	5.6990	0	36.6200	8	28.877	0	369.411	0	73.7	4	24.7	4	-1E+10	1	-1E+10	1	-1E+10	1	-1E+10	1	-1E+10	1	-1E+10	1
4901784	181	C	06/18/2020	10:46	-132.150	42.971	0	375.20	0	5.6850	0	36.6230	8	28.882	0	371.886	0	73.1	4	24.4	4	-1E+10	1	-1E+10	1	-1E+10	1	-1E+10	1	-1E+10	1	-1E+10	1
4901784	181	C	06/18/2020	10:46	-132.150	42.971	0	377.80	0	5.6600	0	36.6250	8	28.886	0	374.461	0	73.1	4	24.5	4	-1E+10	1	-1E+10	1	-1E+10	1	-1E+10	1	-1E+10	1	-1E+10	1
4901784	181	C	06/18/2020	10:46	-132.150	42.971	0	380.20	0	5.6080	0	36.6190	8	28.888	0	376.838	0	73.6	4	24.6	4	-1E+10	1	-1E+10	1	-1E+10	1	-1E+10	1	-1E+10	1	-1E+10	1
4901784	181	C	06/18/2020	10:46	-132.150	42.971	0	382.90	0	5.5560	0	36.6190	8	28.895	0	379.511	0	73.7	4	24.6	4	-1E+10	1	-1E+10	1	-1E+10	1	-1E+10	1	-1E+10	1	-1E+10	1
4901784	181	C	06/18/2020	10:46	-132.150	42.971	0	385.40	0	5.5340	0	36.6190	8	28.898	0	381.987	0	74.0	4	24.7	4	-1E+10	1	-1E+10	1	-1E+10	1	-1E+10	1	-1E+10	1	-1E+10	1
4901784	181	C	06/18/2020	10:46	-132.150	42.971	0	387.20	0	5.5030	0	36.6150	8	28.899	0	383.769	0	74.3	4	24.8	4	-1E+10	1	-1E+10	1	-1E+10	1	-1E+10	1	-1E+10	1	-1E+10	1
4901784	181	C	06/18/2020	10:46	-132.150	42.971	0	389.70	0	5.4550	0	36.6140	8	28.904	0	386.245	0	74.5	4	24.8	4	-1E+10	1	-1E+10	1	-1E+10	1	-1E+10	1	-1E+10	1	-1E+10	1
4901784	181	C	06/18/2020	10:46	-132.150	42.971	0	392.20	0	5.4190	0	36.6130	8	28.908	0	388.720	0	74.6	4	24.8	4	-1E+10	1	-1E+10	1	-1E+10	1	-1E+10	1	-1E+10	1	-1E+10	1
4901784	181	C	06/18/2020	10:46	-132.150	42.971	0	394.90	0	5.3570	0	36.6130	8	28.915	0	391.394	0	74.5	4	24.7	4	-1E+10	1	-1E+10	1	-1E+10	1	-1E+10	1	-1E+10	1	-1E+10	1
4901784	181	C	06/18/2020	10:46	-132.150	42.971	0	397.50	0	5.3230	0	36.6130	8	28.920	0	393.968	0	73.8	4	24.5	4	-1E+10	1	-1E+10	1	-1E+10	1	-1E+10	1	-1E+10	1	-1E+10	1
4901784	181	C	06/18/2020	10:46	-132.150	42.971	0	400.10	0	5.3250	0	36.6140	8	28.920	0	396.543	0	72.2	4	24.0	4	-1E+10	1	-1E+10	1	-1E+10	1	-1E+10	1	-1E+10	1	-1E+10	1
4901784	181	C	06/18/2020	10:46	-132.150	42.971	0	402.70	0	5.3590	0	36.6220	8	28.922	0	399.117	0	70.2	4	23.3	4	-1E+10	1	-1E+10	1	-1E+10	1	-1E+10	1	-1E+10	1	-1E+10	1
4901784	181	C	06/18/2020	10:46	-132.150	42.971	0	405.30	0	5.3570	0	36.6250	8	28.925	0	401.692	0	68.8	4	22.8	4	-1E+10	1	-1E+10	1	-1E+10	1	-1E+10	1	-1E+10	1	-1E+10	1
4901784	181	C	06/18/2020	10:46	-132.150	42.971	0	407.80	0	5.3610	0	36.6360	8	28.933	0	404.167	0	67.4	4	22.4	4	-1E+10	1	-1E+10	1	-1E+10	1	-1E+10	1	-1E+10	1	-1E+10	1
4901784	181	C	06/18/2020	10:46	-132.150	42.971	0	410.40	0	5.3910	0	36.6390	8	28.932	0	406.741	0	67.6	4	22.5	4	-1E+10	1	-1E+10	1	-1E+10	1	-1E+10	1	-1E+10	1	-1E+10	1
4901784	181	C	06/18/2020	10:46	-132.150	42.971	0	412.90	0	5.3940	0	36.6330	8	28.927	0	409.216	0	69.0	4	22.9	4	-1E+10	1	-1E+10	1	-1E+10	1	-1E+10	1	-1E+10	1	-1E+10	1
4901784	181	C	06/18/2020	10:46	-132.150	42.971	0	414.60	0	5.3270	0	36.6240	8	28.928	0	410.900	0	70.5	4	23.4	4	-1E+10	1	-1E+10	1	-1E+10	1	-1E+10	1	-1E+10	1	-1E+10	1
4901784	181	C	06/18/2020	10:46	-132.150	42.971	0	417.20	0	5.2230	0	36.6160	8	28.934	0	413.474	0	71.8	4	23.8	4	-1E+10	1	-1E+10	1	-1E+10	1	-1E+10	1	-1E+10	1	-1E+10	1
4901784	181	C	06/18/2020	10:46	-132.150	42.971	0	419.80	0	5.0600	0	36.6110	8	28.950	0	416.048	0	71.9	4	23.7	4	-1E+10	1	-1E+10	1	-1E+10	1	-1E+10	1	-1E+10	1	-1E+10	1
4901784	181	C	06/18/2020	10:46	-132.150	42.971	0	422.50	0	5.0350	0	36.6150	8	28.957	0	418.721	0	70.0	4	23.1	4	-1E+10	1	-1E+10	1	-1E+10	1	-1E+10	1	-1E+10	1	-1E+10	1
4901784	181	C	06/18/2020	10:46	-132.150	42.971	0	425.20	0	5.0470	0	36.6200	8	28.959	0	421.394	0	68.0	4	22.4	4	-1E+10	1	-1E+10	1	-1E+10	1	-1E+10	1	-1E+10	1	-1E+10	1
4901784	181	C	06/18/2020	10:46	-132.150	42.971	0	427.80	0	5.0200	0	36.6290	8	28.970	0	423.968	0	65.4	4	21.6	4	-1E+10	1	-1E+10	1	-1E+10	1	-1E+10	1	-1E+10	1	-1E+10	1
4901784	181	C	06/18/2020	10:46	-132.150	42.971	0	430.50	0	5.0010	0	36.6390	8	28.980	0	426.641	0	63.1	4	20.8	4	-1E+10	1	-1E+10	1	-1E+10	1	-1E+10	1	-1E+10	1	-1E+10	1
4901784	181	C	06/18/2020	10:46	-132.150	42.971	0	432.30	0	5.0500	0	36.6430	8	28.977	0	428.423	0	61.8	4	20.4	4	-1E+10	1	-1E+10	1	-1E+10	1	-1E+10	1	-1E+10	1	-1E+10	1
4901784	181	C	06/18/2020	10:46	-132.150	42.971	0	435.00	0	5.0230	0	36.6490	8	28.985	0	431.096	0	60.0	4	19.8	4	-1E+10	1	-1E+10	1	-1E+10	1	-1E+10	1	-1E+10	1	-1E+10	1
4901784	181	C	06/18/2020	10:46	-132.150	42.971	0	437.70	0	5.0440	0	36.6560	8	28.988	0	433.769	0	57.3	4	18.9	4	-1E+10	1	-1E+10	1	-1E+10	1	-1E+10	1	-1E+10	1	-1E+10	1
4901784	181	C	06/18/2020	10:46	-132.150	42.971	0	439.60	0	5.1260	0	36.6660	8	28.986	0	435.650	0	55.5	4	18.3	4	-1E+10	1	-1E+10	1	-1E+10	1	-1E+10	1	-1E+10	1	-1E+10	1
4901784	181	C	06/18/2020	10:46	-132.150	42.971	0	442.30	0	5.1410	0	36.6720	8	28.989	0	438.323	0	55.0	4	18.2	4	-1E+10	1	-1E+10	1	-1E+10	1	-1E+10	1	-1E+10	1	-1E+10	1
4901784	181	C	06/18/2020	10:46	-132.150	42.971	0	444.90	0	5.1220	0	36.6700	8	28.990	0	440.897	0	54.4	4	18.0	4	-1E+10	1	-1E+10	1	-1E+10	1	-1E+10	1	-1E+10	1	-1E+10	1
4901784	181	C	06/18/2020	10:46	-132.150	42.971	0	447.60	0	5.1120	0	36.6760	8	28.996	0	443.570	0	53.6	4	17.7	4	-1E+10	1	-1E+10	1	-1E+10	1	-1E+10	1	-1E+10	1	-1E+10	1
4901784	181	C	06/18/2020	10:46	-132.150	42.971	0	450.30	0	5.0940	0	36.6770	8	28.999	0	446.242	0	53.4	4	17.6	4	-1E+10	1	-1E+10	1	-1E+10	1	-1E+10	1	-1E+10	1	-1E+10	1
4901784	181	C	06/18/2020	10:46	-132.150	42.971	0	452.20	0	5.0630	0	36.6760	8	29.002	0	448.123	0	53.5	4	17.6	4	-1E+10	1	-1E+10	1	-1E+10	1	-1E+10	1	-1E+10	1	-1E+10	1
4901784	181	C	06/18/2020	10:46	-132.150	42.971	0	454.90	0	5.0230	0	36.6780	8	29.008	0	450.796	0	53.5	4	17.6	4	-1E+10	1	-1E+10	1	-1E+10	1	-1E+10	1	-1E+10	1	-1E+10	1
4901784	181	C	06/18/2020	10:46	-132.150	42.971	0	457.60	0	5.0190	0	36.6770	8	29.008	0	453.469	0	53.5	4	17.6	4	-1E+10	1	-1E+10	1	-1E+10	1	-1E+10	1	-1E+10	1	-1E+10	1
4901784	181	C	06/18/2020	10:46	-132.150	42.971	0	460.30	0	5.0030	0	36.6760	8	29.009	0	456.141	0	53.5	4	17.6	4	-1E+10	1	-1E+10	1	-1E+10	1	-1E+10	1	-1E+10	1	-1E+10	1
4901784	181	C	06/18/2020	10:46	-132.150	42.971	0	463.00	0	4.9710	0	36.6770	8	29.014	0	458.814	0	53.3	4	17.5	4	-1E+10	1	-1E+10	1	-1E+10	1	-1E+10	1	-1E+10	1	-1E+10	1
4901784	181	C	06/18/2020	10:46	-132.150	42.971	0	464.90	0	4.9620	0	36.6760	8	29.014	0	460.695	0	53.1	4	17.5	4	-1E+10	1	-1E+10	1	-1E+10	1	-1E+10	1	-1E+10	1	-1E+10	1
4901784	181	C	06/18/2020	10:46	-132.150	42.971	0	467.60	0	4.9050	0	36.6770	8	29.022	0	463.367	0	52.8	4	17.4	4	-1E+10	1	-1E+10	1	-1E+10	1	-1E+10	1	-1E+10	1	-1E+10	1
4901784	181	C	06/18/2020	10:46	-132.150	42.971	0	470.30	0	4.8870	0	36.6800	8	29.026	0	466.040	0	52.2	4	17.1	4	-1E+10	1	-1E+10	1	-1E+10	1	-1E+10	1	-1E+10	1	-1E+10	1
4901784	181	C	06/18/2020	10:46	-132.150	42.971	0	472.20	0	4.8890	0	36.6810	8	29.027	0	467.921	0	51.6	4	17.0	4	-1E+10	1	-1E+10	1	-1E+10	1	-1E+10	1	-1E+10	1	-1E+10	1
4901784	181	C	06/18/2020	10:46	-132.150	42.971	0	474.90	0	4.8760	0	36.6840	8	29.031	0	470.593	0	50.6	4	16.6	4	-1E+10	1	-1E+10	1	-1E+10	1	-1E+10	1	-1E+10	1	-1E+10	1
4901784	181	C	06/18/2020	10:46	-132.150	42.971	0	477.70	0	4.8860	0	36.6890	8	29.034	0	473.364	0	49.6	4	16.3	4	-1E+10	1	-1E+10	1	-1E+10	1	-1E+10	1	-1E+10	1	-1E+10	1
4901784	181	C	06/18/2020	10:46	-132.150	42.971	0	479.60	0	4.8770	0	36.6900	8	29.036	0	475.245	0	49.1	4	16.1	4	-1E+10	1	-1E+10	1	-1E+10	1	-1E+10	1	-1E+10	1	-1E+10	1
4901784	181	C	06/18/2020	10:46	-132.150	42.971	0	482.30	0	4.8560	0	36.6940	8	29.041	0	477.917	0	47.8	4	15.7	4	-1E+10	1	-1E+10	1	-1E+10	1	-1E+10	1	-1E+10	1	-1E+10	1
4901784	181	C	06/18/2020	10:46	-132.150	42.971	0	485.20	0	4.9320	0	36.7070	8	29.043	0	480.788	0	45.6	4	15.0	4	-1E+10	1	-1E+10	1	-1E+10	1	-1E+10	1	-1E+10	1	-1E+10	1
4901784	181	C	06/18/2020	10:46	-132.150	42.971	0	487.00	0	4.9440	0	36.7110	8	29.044	0	482.569	0	45.2	4	14.9	4	-1E+10	1	-1E+10	1	-1E+10	1	-1E+10	1	-1E+10	1	-1E+10	1
4901784	181	C	06/18/2020	10:46	-132.150	42.971	0	489.80	0	4.9510	0	36.7120	8	29.044	0	485.340	0	45.0	4	14.8	4	-1E+10	1	-1E+10	1	-1E+10	1	-1E+10	1	-1E+10	1	-1E+10	1
4901784	181	C	06/18/2020	10:46	-132.150	42.971	0	492.50	0	4.9500	0	36.7070	8	29.041	0	488.013	0	45.2	4	14.9	4	-1E+10	1	-1E+10	1	-1E+10	1	-1E+10	1	-1E+10	1	-1E+10	1
4901784	181	C	06/18/2020	10:46	-132.150	42.971	0	494.40	0	4.8780	0	36.7100	8	29.052	0	489.893	0	45.4	4	14.9	4	-1E+10	1	-1E+10	1	-1E+10	1	-1E+10	1	-1E+10	1	-1E+10	1
4901784	181	C	06/18/2020	10:46	-132.150	42.971	0	497.20	0	4.8300	0	36.7100	8	29.057	0	492.664	0	45.5	4	14.9	4	-1E+10	1	-1E+10	1	-1E+10	1	-1E+10	1	-1E+10	1	-1E+10	1
4901784	181	C	06/18/2020	10:46	-132.150	42.971	0	500.10	0	4.8130	0	36.7080	8	29.058	0	495.534	0	45.5	4	14.9	4	-1E+10	1	-1E+10	1	-1E+10	1	-1E+10	1	-1E+10	1	-1E+10	1
4901784	181	C	06/18/2020	10:46	-132.150	42.971	0	504.80	0	4.7690	0	36.7080	8	29.063	0	500.186	0	44.4	4	14.6	4	-1E+10	1	-1E+10	1	-1E+10	1	-1E+10	1	-1E+10	1	-1E+10	1
4901784	181	C	06/18/2020	10:46	-132.150	42.971	0	509.50	0	4.7590	0	36.7190	8	29.073	0	504.837	0	42.8	4	14.0	4	-1E+10	1	-1E+10	1	-1E+10	1	-1E+10	1	-1E+10	1	-1E+10	1
4901784	181	C	06/18/2020	10:46	-132.150	42.971	0	515.00	0	4.7140	0	36.7220	8	29.081	0	510.280	0	41.9	4	13.7	4	-1E+10	1	-1E+10	1	-1E+10	1	-1E+10	1	-1E+10	1	-1E+10	1
4901784	181	C	06/18/2020	10:46	-132.150	42.971	0	519.30	0	4.7220	0	36.7280	8	29.085	0	514.535	0	40.5	4	13.3	4	-1E+10	1	-1E+10	1	-1E+10	1	-1E+10	1	-1E+10	1	-1E+10	1
4901784	181	C	06/18/2020	10:46	-132.150	42.971	0	525.00	0	4.7090	0	36.7340	8	29.091	0	520.176	0	39.0	4	12.8	4	-1E+10	1	-1E+10	1	-1E+10	1	-1E+10	1	-1E+10	1	-1E+10	1
4901784	181	C	06/18/2020	10:46	-132.150	42.971	0	530.50	0	4.6720	0	36.7430	8	29.102	0	525.618	0	37.1	4	12.1	4	-1E+10	1	-1E+10	1	-1E+10	1	-1E+10	1	-1E+10	1	-1E+10	1
4901784	181	C	06/18/2020	10:46	-132.150	42.971	0	535.40	0	4.6880	0	36.7530	8	29.109	0	530.467	0	35.2	4	11.5	4	-1E+10	1	-1E+10	1	-1E+10	1	-1E+10	1	-1E+10	1	-1E+10	1
4901784	181	C	06/18/2020	10:46	-132.150	42.971	0	540.30	0	4.7240	0	36.7640	8	29.113	0	535.316	0	33.3	4	10.9	4	-1E+10	1	-1E+10	1	-1E+10	1	-1E+10	1	-1E+10	1	-1E+10	1
4901784	181	C	06/18/2020	10:46	-132.150	42.971	0	545.30	0	4.7310	0	36.7680	8	29.116	0	540.263	0	32.7	4	10.7	4	-1E+10	1	-1E+10	1	-1E+10	1	-1E+10	1	-1E+10	1	-1E+10	1
4901784	181	C	06/18/2020	10:46	-132.150	42.971	0	550.20	0	4.7130	0	36.7690	8	29.118	0	545.111	0	32.3	4	10.6	4	-1E+10	1	-1E+10	1	-1E+10	1	-1E+10	1	-1E+10	1	-1E+10	1
4901784	181	C	06/18/2020	10:46	-132.150	42.971	0	555.20	0	4.6660	0	36.7710	8	29.126	0	550.059	0	31.8	4	10.4	4	-1E+10	1	-1E+10	1	-1E+10	1	-1E+10	1	-1E+10	1	-1E+10	1
4901784	181	C	06/18/2020	10:46	-132.150	42.971	0	560.20	0	4.7000	0	36.7830	8	29.131	0	555.006	0	29.6	4	9.7	4	-1E+10	1	-1E+10	1	-1E+10	1	-1E+10	1	-1E+10	1	-1E+10	1
4901784	181	C	06/18/2020	10:46	-132.150	42.971	0	565.40	0	4.7040	0	36.7900	8	29.136	0	560.150	0	28.4	4	9.3	4	-1E+10	1	-1E+10	1	-1E+10	1	-1E+10	1	-1E+10	1	-1E+10	1
4901784	181	C	06/18/2020	10:46	-132.150	42.971	0	570.60	0	4.6870	0	36.7940	8	29.142	0	565.295	0	27.7	4	9.1	4	-1E+10	1	-1E+10	1	-1E+10	1	-1E+10	1	-1E+10	1	-1E+10	1
4901784	181	C	06/18/2020	10:46	-132.150	42.971	0	575.00	0	4.6410	0	36.7970	8	29.149	0	569.648	0	27.4	4	8.9	4	-1E+10	1	-1E+10	1	-1E+10	1	-1E+10	1	-1E+10	1	-1E+10	1
4901784	181	C	06/18/2020	10:46	-132.150	42.971	0	579.20	0	4.6440	0	36.7990	8	29.151	0	573.803	0	26.9	4	8.8	4	-1E+10	1	-1E+10	1	-1E+10	1	-1E+10	1	-1E+10	1	-1E+10	1
4901784	181	C	06/18/2020	10:46	-132.150	42.971	0	584.30	0	4.6040	0	36.8010	8	29.157	0	578.849	0	26.6	4	8.7	4	-1E+10	1	-1E+10	1	-1E+10	1	-1E+10	1	-1E+10	1	-1E+10	1
4901784	181	C	06/18/2020	10:46	-132.150	42.971	0	589.50	0	4.5560	0	36.8020	8	29.163	0	583.993	0	26.3	4	8.6	4	-1E+10	1	-1E+10	1	-1E+10	1	-1E+10	1	-1E+10	1	-1E+10	1
4901784	181	C	06/18/2020	10:46	-132.150	42.971	0	594.70	0	4.5230	0	36.8060	8	29.170	0	589.137	0	25.7	4	8.4	4	-1E+10	1	-1E+10	1	-1E+10	1	-1E+10	1	-1E+10	1	-1E+10	1
4901784	181	C	06/18/2020	10:46	-132.150	42.971	0	599.90	0	4.5010	0	36.8100	8	29.176	0	594.281	0	25.1	4	8.2	4	-1E+10	1	-1E+10	1	-1E+10	1	-1E+10	1	-1E+10	1	-1E+10	1
4901784	181	C	06/18/2020	10:46	-132.150	42.971	0	605.20	0	4.4920	0	36.8140	8	29.180	0	599.523	0	24.3	4	7.9	4	-1E+10	1	-1E+10	1	-1E+10	1	-1E+10	1	-1E+10	1	-1E+10	1
4901784	181	C	06/18/2020	10:46	-132.150	42.971	0	610.40	0	4.4870	0	36.8210	8	29.187	0	604.667	0	23.4	4	7.6	4	-1E+10	1	-1E+10	1	-1E+10	1	-1E+10	1	-1E+10	1	-1E+10	1
4901784	181	C	06/18/2020	10:46	-132.150	42.971	0	615.60	0	4.4530	0	36.8220	8	29.191	0	609.811	0	22.8	4	7.4	4	-1E+10	1	-1E+10	1	-1E+10	1	-1E+10	1	-1E+10	1	-1E+10	1
4901784	181	C	06/18/2020	10:46	-132.150	42.971	0	620.70	0	4.4190	0	36.8290	8	29.201	0	614.855	0	22.2	4	7.2	4	-1E+10	1	-1E+10	1	-1E+10	1	-1E+10	1	-1E+10	1	-1E+10	1
4901784	181	C	06/18/2020	10:46	-132.150	42.971	0	625.00	0	4.3850	0	36.8340	8	29.209	0	619.108	0	21.6	4	7.0	4	-1E+10	1	-1E+10	1	-1E+10	1	-1E+10	1	-1E+10	1	-1E+10	1
4901784	181	C	06/18/2020	10:46	-132.150	42.971	0	629.30	0	4.3950	0	36.8400	8	29.212	0	623.361	0	20.9	4	6.8	4	-1E+10	1	-1E+10	1	-1E+10	1	-1E+10	1	-1E+10	1	-1E+10	1
4901784	181	C	06/18/2020	10:46	-132.150	42.971	0	634.40	0	4.4050	0	36.8500	8	29.219	0	628.406	0	19.9	4	6.5	4	-1E+10	1	-1E+10	1	-1E+10	1	-1E+10	1	-1E+10	1	-1E+10	1
4901784	181	C	06/18/2020	10:46	-132.150	42.971	0	639.60	0	4.4010	0	36.8560	8	29.225	0	633.548	0	19.5	4	6.3	4	-1E+10	1	-1E+10	1	-1E+10	1	-1E+10	1	-1E+10	1	-1E+10	1
4901784	181	C	06/18/2020	10:46	-132.150	42.971	0	644.70	0	4.3870	0	36.8590	8	29.229	0	638.592	0	19.2	4	6.2	4	-1E+10	1	-1E+10	1	-1E+10	1	-1E+10	1	-1E+10	1	-1E+10	1
4901784	181	C	06/18/2020	10:46	-132.150	42.971	0	650.00	0	4.3820	0	36.8620	8	29.232	0	643.834	0	18.7	4	6.1	4	-1E+10	1	-1E+10	1	-1E+10	1	-1E+10	1	-1E+10	1	-1E+10	1
4901784	181	C	06/18/2020	10:46	-132.150	42.971	0	655.20	0	4.3730	0	36.8670	8	29.237	0	648.977	0	18.3	4	6.0	4	-1E+10	1	-1E+10	1	-1E+10	1	-1E+10	1	-1E+10	1	-1E+10	1
4901784	181	C	06/18/2020	10:46	-132.150	42.971	0	660.50	0	4.3670	0	36.8680	8	29.238	0	654.218	0	18.1	4	5.9	4	-1E+10	1	-1E+10	1	-1E+10	1	-1E+10	1	-1E+10	1	-1E+10	1
4901784	181	C	06/18/2020	10:46	-132.150	42.971	0	664.90	0	4.3070	0	36.8670	8	29.244	0	658.569	0	18.0	4	5.9	4	-1E+10	1	-1E+10	1	-1E+10	1	-1E+10	1	-1E+10	1	-1E+10	1
4901784	181	C	06/18/2020	10:46	-132.150	42.971	0	669.30	0	4.2670	0	36.8710	8	29.252	0	662.920	0	17.6	4	5.7	4	-1E+10	1	-1E+10	1	-1E+10	1	-1E+10	1	-1E+10	1	-1E+10	1
4901784	181	C	06/18/2020	10:46	-132.150	42.971	0	674.50	0	4.2510	0	36.8770	8	29.258	0	668.062	0	17.2	4	5.6	4	-1E+10	1	-1E+10	1	-1E+10	1	-1E+10	1	-1E+10	1	-1E+10	1
4901784	181	C	06/18/2020	10:46	-132.150	42.971	0	679.70	0	4.2380	0	36.8820	8	29.264	0	673.204	0	16.8	4	5.4	4	-1E+10	1	-1E+10	1	-1E+10	1	-1E+10	1	-1E+10	1	-1E+10	1
4901784	181	C	06/18/2020	10:46	-132.150	42.971	0	685.00	0	4.2270	0	36.8870	8	29.269	0	678.445	0	16.5	4	5.3	4	-1E+10	1	-1E+10	1	-1E+10	1	-1E+10	1	-1E+10	1	-1E+10	1
4901784	181	C	06/18/2020	10:46	-132.150	42.971	0	690.20	0	4.2220	0	36.8890	8	29.271	0	683.587	0	16.1	4	5.2	4	-1E+10	1	-1E+10	1	-1E+10	1	-1E+10	1	-1E+10	1	-1E+10	1
4901784	181	C	06/18/2020	10:46	-132.150	42.971	0	695.50	0	4.2050	0	36.8960	8	29.279	0	688.827	0	15.7	4	5.1	4	-1E+10	1	-1E+10	1	-1E+10	1	-1E+10	1	-1E+10	1	-1E+10	1
4901784	181	C	06/18/2020	10:46	-132.150	42.971	0	700.00	0	4.1950	0	36.8990	8	29.282	0	693.277	0	15.5	4	5.0	4	-1E+10	1	-1E+10	1	-1E+10	1	-1E+10	1	-1E+10	1	-1E+10	1
4901784	181	C	06/18/2020	10:46	-132.150	42.971	0	704.50	0	4.1850	0	36.9020	8	29.286	0	697.726	0	15.2	4	4.9	4	-1E+10	1	-1E+10	1	-1E+10	1	-1E+10	1	-1E+10	1	-1E+10	1
4901784	181	C	06/18/2020	10:46	-132.150	42.971	0	709.80	0	4.1670	0	36.9080	8	29.293	0	702.966	0	14.8	4	4.8	4	-1E+10	1	-1E+10	1	-1E+10	1	-1E+10	1	-1E+10	1	-1E+10	1
4901784	181	C	06/18/2020	10:46	-132.150	42.971	0	715.20	0	4.1470	0	36.9140	8	29.300	0	708.305	0	14.4	4	4.7	4	-1E+10	1	-1E+10	1	-1E+10	1	-1E+10	1	-1E+10	1	-1E+10	1
4901784	181	C	06/18/2020	10:46	-132.150	42.971	0	720.60	0	4.1250	0	36.9210	8	29.308	0	713.643	0	14.2	4	4.6	4	-1E+10	1	-1E+10	1	-1E+10	1	-1E+10	1	-1E+10	1	-1E+10	1
4901784	181	C	06/18/2020	10:46	-132.150	42.971	0	725.00	0	4.1160	0	36.9240	8	29.311	0	717.993	0	14.0	4	4.5	4	-1E+10	1	-1E+10	1	-1E+10	1	-1E+10	1	-1E+10	1	-1E+10	1
4901784	181	C	06/18/2020	10:46	-132.150	42.971	0	729.60	0	4.1100	0	36.9260	8	29.314	0	722.541	0	13.9	4	4.5	4	-1E+10	1	-1E+10	1	-1E+10	1	-1E+10	1	-1E+10	1	-1E+10	1
4901784	181	C	06/18/2020	10:46	-132.150	42.971	0	735.10	0	4.1000	0	36.9290	8	29.317	0	727.978	0	13.7	4	4.4	4	-1E+10	1	-1E+10	1	-1E+10	1	-1E+10	1	-1E+10	1	-1E+10	1
4901784	181	C	06/18/2020	10:46	-132.150	42.971	0	739.80	0	4.0920	0	36.9310	8	29.320	0	732.624	0	13.5	4	4.4	4	-1E+10	1	-1E+10	1	-1E+10	1	-1E+10	1	-1E+10	1	-1E+10	1
4901784	181	C	06/18/2020	10:46	-132.150	42.971	0	744.50	0	4.0780	0	36.9350	8	29.324	0	737.271	0	13.3	4	4.3	4	-1E+10	1	-1E+10	1	-1E+10	1	-1E+10	1	-1E+10	1	-1E+10	1
4901784	181	C	06/18/2020	10:46	-132.150	42.971	0	750.30	0	4.0570	0	36.9420	8	29.332	0	743.004	0	13.1	4	4.2	4	-1E+10	1	-1E+10	1	-1E+10	1	-1E+10	1	-1E+10	1	-1E+10	1
4901784	181	C	06/18/2020	10:46	-132.150	42.971	0	755.70	0	4.0460	0	36.9450	8	29.336	0	748.342	0	12.9	4	4.2	4	-1E+10	1	-1E+10	1	-1E+10	1	-1E+10	1	-1E+10	1	-1E+10	1
4901784	181	C	06/18/2020	10:46	-132.150	42.971	0	760.20	0	4.0290	0	36.9500	8	29.342	0	752.790	0	12.6	4	4.1	4	-1E+10	1	-1E+10	1	-1E+10	1	-1E+10	1	-1E+10	1	-1E+10	1
4901784	181	C	06/18/2020	10:46	-132.150	42.971	0	765.20	0	4.0130	0	36.9560	8	29.348	0	757.732	0	12.4	4	4.0	4	-1E+10	1	-1E+10	1	-1E+10	1	-1E+10	1	-1E+10	1	-1E+10	1
4901784	181	C	06/18/2020	10:46	-132.150	42.971	0	770.10	0	4.0040	0	36.9590	8	29.352	0	762.575	0	12.3	4	4.0	4	-1E+10	1	-1E+10	1	-1E+10	1	-1E+10	1	-1E+10	1	-1E+10	1
4901784	181	C	06/18/2020	10:46	-132.150	42.971	0	775.10	0	3.9950	0	36.9630	8	29.356	0	767.517	0	12.1	4	3.9	4	-1E+10	1	-1E+10	1	-1E+10	1	-1E+10	1	-1E+10	1	-1E+10	1
4901784	181	C	06/18/2020	10:46	-132.150	42.971	0	780.20	0	3.9850	0	36.9670	8	29.360	0	772.558	0	11.9	4	3.9	4	-1E+10	1	-1E+10	1	-1E+10	1	-1E+10	1	-1E+10	1	-1E+10	1
4901784	181	C	06/18/2020	10:46	-132.150	42.971	0	785.30	0	3.9690	0	36.9720	8	29.366	0	777.598	0	11.8	4	3.8	4	-1E+10	1	-1E+10	1	-1E+10	1	-1E+10	1	-1E+10	1	-1E+10	1
4901784	181	C	06/18/2020	10:46	-132.150	42.971	0	790.40	0	3.9540	0	36.9770	8	29.372	0	782.639	0	11.6	4	3.7	4	-1E+10	1	-1E+10	1	-1E+10	1	-1E+10	1	-1E+10	1	-1E+10	1
4901784	181	C	06/18/2020	10:46	-132.150	42.971	0	795.70	0	3.9390	0	36.9810	8	29.377	0	787.877	0	11.5	4	3.7	4	-1E+10	1	-1E+10	1	-1E+10	1	-1E+10	1	-1E+10	1	-1E+10	1
4901784	181	C	06/18/2020	10:46	-132.150	42.971	0	800.00	0	3.9320	0	36.9840	8	29.380	0	792.126	0	11.5	4	3.7	4	-1E+10	1	-1E+10	1	-1E+10	1	-1E+10	1	-1E+10	1	-1E+10	1
4901784	181	C	06/18/2020	10:46	-132.150	42.971	0	804.40	0	3.9270	0	36.9850	8	29.381	0	796.475	0	11.4	4	3.7	4	-1E+10	1	-1E+10	1	-1E+10	1	-1E+10	1	-1E+10	1	-1E+10	1
4901784	181	C	06/18/2020	10:46	-132.150	42.971	0	809.60	0	3.9140	0	36.9890	8	29.386	0	801.613	0	11.2	4	3.6	4	-1E+10	1	-1E+10	1	-1E+10	1	-1E+10	1	-1E+10	1	-1E+10	1
4901784	181	C	06/18/2020	10:46	-132.150	42.971	0	814.80	0	3.9050	0	36.9940	8	29.391	0	806.752	0	11.1	4	3.6	4	-1E+10	1	-1E+10	1	-1E+10	1	-1E+10	1	-1E+10	1	-1E+10	1
4901784	181	C	06/18/2020	10:46	-132.150	42.971	0	820.10	0	3.8920	0	37.0000	8	29.397	0	811.989	0	10.9	4	3.5	4	-1E+10	1	-1E+10	1	-1E+10	1	-1E+10	1	-1E+10	1	-1E+10	1
4901784	181	C	06/18/2020	10:46	-132.150	42.971	0	825.30	0	3.8860	0	37.0050	8	29.402	0	817.128	0	10.8	4	3.5	4	-1E+10	1	-1E+10	1	-1E+10	1	-1E+10	1	-1E+10	1	-1E+10	1
4901784	181	C	06/18/2020	10:46	-132.150	42.971	0	830.60	0	3.8740	0	37.0110	8	29.408	0	822.365	0	10.7	4	3.5	4	-1E+10	1	-1E+10	1	-1E+10	1	-1E+10	1	-1E+10	1	-1E+10	1
4901784	181	C	06/18/2020	10:46	-132.150	42.971	0	834.90	0	3.8680	0	37.0120	8	29.409	0	826.614	0	10.7	4	3.4	4	-1E+10	1	-1E+10	1	-1E+10	1	-1E+10	1	-1E+10	1	-1E+10	1
4901784	181	C	06/18/2020	10:46	-132.150	42.971	0	839.40	0	3.8650	0	37.0130	8	29.411	0	831.060	0	10.6	4	3.4	4	-1E+10	1	-1E+10	1	-1E+10	1	-1E+10	1	-1E+10	1	-1E+10	1
4901784	181	C	06/18/2020	10:46	-132.150	42.971	0	844.80	0	3.8550	0	37.0170	8	29.415	0	836.396	0	10.6	4	3.4	4	-1E+10	1	-1E+10	1	-1E+10	1	-1E+10	1	-1E+10	1	-1E+10	1
4901784	181	C	06/18/2020	10:46	-132.150	42.971	0	850.20	0	3.8470	0	37.0210	8	29.419	0	841.731	0	10.4	4	3.4	4	-1E+10	1	-1E+10	1	-1E+10	1	-1E+10	1	-1E+10	1	-1E+10	1
4901784	181	C	06/18/2020	10:46	-132.150	42.971	0	854.80	0	3.8320	0	37.0260	8	29.425	0	846.276	0	10.4	4	3.3	4	-1E+10	1	-1E+10	1	-1E+10	1	-1E+10	1	-1E+10	1	-1E+10	1
4901784	181	C	06/18/2020	10:46	-132.150	42.971	0	859.40	0	3.8160	0	37.0310	8	29.430	0	850.821	0	10.3	4	3.3	4	-1E+10	1	-1E+10	1	-1E+10	1	-1E+10	1	-1E+10	1	-1E+10	1
4901784	181	C	06/18/2020	10:46	-132.150	42.971	0	865.00	0	3.7980	0	37.0370	8	29.437	0	856.354	0	10.2	4	3.3	4	-1E+10	1	-1E+10	1	-1E+10	1	-1E+10	1	-1E+10	1	-1E+10	1
4901784	181	C	06/18/2020	10:46	-132.150	42.971	0	869.60	0	3.7850	0	37.0420	8	29.443	0	860.898	0	10.1	4	3.3	4	-1E+10	1	-1E+10	1	-1E+10	1	-1E+10	1	-1E+10	1	-1E+10	1
4901784	181	C	06/18/2020	10:46	-132.150	42.971	0	874.20	0	3.7780	0	37.0430	8	29.444	0	865.443	0	10.1	4	3.2	4	-1E+10	1	-1E+10	1	-1E+10	1	-1E+10	1	-1E+10	1	-1E+10	1
4901784	181	C	06/18/2020	10:46	-132.150	42.971	0	879.50	0	3.7590	0	37.0480	8	29.450	0	870.678	0	10.1	4	3.2	4	-1E+10	1	-1E+10	1	-1E+10	1	-1E+10	1	-1E+10	1	-1E+10	1
4901784	181	C	06/18/2020	10:46	-132.150	42.971	0	884.30	0	3.7440	0	37.0520	8	29.455	0	875.420	0	10.0	4	3.2	4	-1E+10	1	-1E+10	1	-1E+10	1	-1E+10	1	-1E+10	1	-1E+10	1
4901784	181	C	06/18/2020	10:46	-132.150	42.971	0	889.90	0	3.7190	0	37.0580	8	29.462	0	880.952	0	10.0	4	3.2	4	-1E+10	1	-1E+10	1	-1E+10	1	-1E+10	1	-1E+10	1	-1E+10	1
4901784	181	C	06/18/2020	10:46	-132.150	42.971	0	895.60	0	3.7020	0	37.0610	8	29.467	0	886.583	0	10.0	4	3.2	4	-1E+10	1	-1E+10	1	-1E+10	1	-1E+10	1	-1E+10	1	-1E+10	1
4901784	181	C	06/18/2020	10:46	-132.150	42.971	0	900.60	0	3.6720	0	37.0630	8	29.471	0	891.522	0	10.0	4	3.2	4	-1E+10	1	-1E+10	1	-1E+10	1	-1E+10	1	-1E+10	1	-1E+10	1
4901784	181	C	06/18/2020	10:46	-132.150	42.971	0	905.40	0	3.6510	0	37.0670	8	29.477	0	896.263	0	10.0	4	3.2	4	-1E+10	1	-1E+10	1	-1E+10	1	-1E+10	1	-1E+10	1	-1E+10	1
4901784	181	C	06/18/2020	10:46	-132.150	42.971	0	910.40	0	3.6370	0	37.0710	8	29.482	0	901.202	0	10.0	4	3.2	4	-1E+10	1	-1E+10	1	-1E+10	1	-1E+10	1	-1E+10	1	-1E+10	1
4901784	181	C	06/18/2020	10:46	-132.150	42.971	0	915.20	0	3.6300	0	37.0740	8	29.485	0	905.943	0	10.0	4	3.2	4	-1E+10	1	-1E+10	1	-1E+10	1	-1E+10	1	-1E+10	1	-1E+10	1
4901784	181	C	06/18/2020	10:46	-132.150	42.971	0	919.40	0	3.6330	0	37.0770	8	29.487	0	910.091	0	10.0	4	3.2	4	-1E+10	1	-1E+10	1	-1E+10	1	-1E+10	1	-1E+10	1	-1E+10	1
4901784	181	C	06/18/2020	10:46	-132.150	42.971	0	924.70	0	3.6020	0	37.0790	8	29.492	0	915.326	0	10.0	4	3.2	4	-1E+10	1	-1E+10	1	-1E+10	1	-1E+10	1	-1E+10	1	-1E+10	1
4901784	181	C	06/18/2020	10:46	-132.150	42.971	0	930.10	0	3.5910	0	37.0820	8	29.495	0	920.660	0	10.0	4	3.2	4	-1E+10	1	-1E+10	1	-1E+10	1	-1E+10	1	-1E+10	1	-1E+10	1
4901784	181	C	06/18/2020	10:46	-132.150	42.971	0	934.50	0	3.5790	0	37.0860	8	29.500	0	925.005	0	10.1	4	3.2	4	-1E+10	1	-1E+10	1	-1E+10	1	-1E+10	1	-1E+10	1	-1E+10	1
4901784	181	C	06/18/2020	10:46	-132.150	42.971	0	940.00	0	3.5710	0	37.0900	8	29.504	0	930.437	0	10.1	4	3.2	4	-1E+10	1	-1E+10	1	-1E+10	1	-1E+10	1	-1E+10	1	-1E+10	1
4901784	181	C	06/18/2020	10:46	-132.150	42.971	0	945.30	0	3.5620	0	37.0920	8	29.507	0	935.671	0	10.1	4	3.2	4	-1E+10	1	-1E+10	1	-1E+10	1	-1E+10	1	-1E+10	1	-1E+10	1
4901784	181	C	06/18/2020	10:46	-132.150	42.971	0	949.70	0	3.5550	0	37.0930	8	29.508	0	940.017	0	10.1	4	3.2	4	-1E+10	1	-1E+10	1	-1E+10	1	-1E+10	1	-1E+10	1	-1E+10	1
4901784	181	C	06/18/2020	10:46	-132.150	42.971	0	955.20	0	3.5460	0	37.0970	8	29.512	0	945.448	0	10.2	4	3.2	4	-1E+10	1	-1E+10	1	-1E+10	1	-1E+10	1	-1E+10	1	-1E+10	1
4901784	181	C	06/18/2020	10:46	-132.150	42.971	0	960.60	0	3.5200	0	37.1010	8	29.518	0	950.781	0	10.2	4	3.3	4	-1E+10	1	-1E+10	1	-1E+10	1	-1E+10	1	-1E+10	1	-1E+10	1
4901784	181	C	06/18/2020	10:46	-132.150	42.971	0	965.00	0	3.5130	0	37.1030	8	29.521	0	955.126	0	10.3	4	3.3	4	-1E+10	1	-1E+10	1	-1E+10	1	-1E+10	1	-1E+10	1	-1E+10	1
4901784	181	C	06/18/2020	10:46	-132.150	42.971	0	970.20	0	3.5020	0	37.1060	8	29.524	0	960.261	0	10.3	4	3.3	4	-1E+10	1	-1E+10	1	-1E+10	1	-1E+10	1	-1E+10	1	-1E+10	1
4901784	181	C	06/18/2020	10:46	-132.150	42.971	0	975.50	0	3.4910	0	37.1090	8	29.528	0	965.494	0	10.4	4	3.3	4	-1E+10	1	-1E+10	1	-1E+10	1	-1E+10	1	-1E+10	1	-1E+10	1
4901784	181	C	06/18/2020	10:46	-132.150	42.971	0	979.80	0	3.4820	0	37.1110	8	29.530	0	969.740	0	10.4	4	3.3	4	-1E+10	1	-1E+10	1	-1E+10	1	-1E+10	1	-1E+10	1	-1E+10	1
4901784	181	C	06/18/2020	10:46	-132.150	42.971	0	984.20	0	3.4720	0	37.1140	8	29.534	0	974.085	0	10.5	4	3.3	4	-1E+10	1	-1E+10	1	-1E+10	1	-1E+10	1	-1E+10	1	-1E+10	1
4901784	181	C	06/18/2020	10:46	-132.150	42.971	0	989.70	0	3.4570	0	37.1170	8	29.538	0	979.515	0	10.6	4	3.4	4	-1E+10	1	-1E+10	1	-1E+10	1	-1E+10	1	-1E+10	1	-1E+10	1
4901784	181	C	06/18/2020	10:46	-132.150	42.971	0	995.30	0	3.4370	0	37.1230	8	29.545	0	985.045	0	10.7	4	3.4	4	-1E+10	1	-1E+10	1	-1E+10	1	-1E+10	1	-1E+10	1	-1E+10	1
4901784	181	C	06/18/2020	10:46	-132.150	42.971	0	999.60	0	3.4240	0	37.1260	8	29.548	0	989.290	0	10.7	4	3.4	4	-1E+10	1	-1E+10	1	-1E+10	1	-1E+10	1	-1E+10	1	-1E+10	1
4901784	181	C	06/18/2020	10:46	-132.150	42.971	0	1004.10	0	3.4100	0	37.1290	8	29.552	0	993.733	0	10.8	4	3.4	4	-1E+10	1	-1E+10	1	-1E+10	1	-1E+10	1	-1E+10	1	-1E+10	1
4901784	181	C	06/18/2020	10:46	-132.150	42.971	0	1010.00	0	3.4010	0	37.1300	8	29.554	0	999.558	0	10.9	4	3.5	4	-1E+10	1	-1E+10	1	-1E+10	1	-1E+10	1	-1E+10	1	-1E+10	1
4901784	181	C	06/18/2020	10:46	-132.150	42.971	0	1016.00	0	3.3960	0	37.1320	8	29.556	0	1005.482	0	10.9	4	3.5	4	-1E+10	1	-1E+10	1	-1E+10	1	-1E+10	1	-1E+10	1	-1E+10	1
4901784	181	C	06/18/2020	10:46	-132.150	42.971	0	1020.80	0	3.3860	0	37.1340	8	29.559	0	1010.220	0	11.0	4	3.5	4	-1E+10	1	-1E+10	1	-1E+10	1	-1E+10	1	-1E+10	1	-1E+10	1
4901784	181	C	06/18/2020	10:46	-132.150	42.971	0	1025.50	0	3.3720	0	37.1380	8	29.563	0	1014.860	0	11.0	4	3.5	4	-1E+10	1	-1E+10	1	-1E+10	1	-1E+10	1	-1E+10	1	-1E+10	1
4901784	181	C	06/18/2020	10:46	-132.150	42.971	0	1030.40	0	3.3650	0	37.1390	8	29.565	0	1019.698	0	11.1	4	3.5	4	-1E+10	1	-1E+10	1	-1E+10	1	-1E+10	1	-1E+10	1	-1E+10	1
4901784	181	C	06/18/2020	10:46	-132.150	42.971	0	1035.40	0	3.3590	0	37.1410	8	29.567	0	1024.633	0	11.2	4	3.5	4	-1E+10	1	-1E+10	1	-1E+10	1	-1E+10	1	-1E+10	1	-1E+10	1
4901784	181	C	06/18/2020	10:46	-132.150	42.971	0	1040.50	0	3.3510	0	37.1420	8	29.569	0	1029.668	0	11.2	4	3.6	4	-1E+10	1	-1E+10	1	-1E+10	1	-1E+10	1	-1E+10	1	-1E+10	1
4901784	181	C	06/18/2020	10:46	-132.150	42.971	0	1045.70	0	3.3430	0	37.1430	8	29.571	0	1034.801	0	11.3	4	3.6	4	-1E+10	1	-1E+10	1	-1E+10	1	-1E+10	1	-1E+10	1	-1E+10	1
4901784	181	C	06/18/2020	10:46	-132.150	42.971	0	1050.40	0	3.3330	0	37.1460	8	29.574	0	1039.440	0	11.3	4	3.6	4	-1E+10	1	-1E+10	1	-1E+10	1	-1E+10	1	-1E+10	1	-1E+10	1
4901784	181	C	06/18/2020	10:46	-132.150	42.971	0	1054.80	0	3.3260	0	37.1480	8	29.576	0	1043.783	0	11.4	4	3.6	4	-1E+10	1	-1E+10	1	-1E+10	1	-1E+10	1	-1E+10	1	-1E+10	1
4901784	181	C	06/18/2020	10:46	-132.150	42.971	0	1059.50	0	3.3180	0	37.1500	8	29.579	0	1048.423	0	11.4	4	3.6	4	-1E+10	1	-1E+10	1	-1E+10	1	-1E+10	1	-1E+10	1	-1E+10	1
4901784	181	C	06/18/2020	10:46	-132.150	42.971	0	1065.20	0	3.3120	0	37.1510	8	29.580	0	1054.049	0	11.5	4	3.7	4	-1E+10	1	-1E+10	1	-1E+10	1	-1E+10	1	-1E+10	1	-1E+10	1
4901784	181	C	06/18/2020	10:46	-132.150	42.971	0	1070.70	0	3.3020	0	37.1530	8	29.583	0	1059.477	0	11.6	4	3.7	4	-1E+10	1	-1E+10	1	-1E+10	1	-1E+10	1	-1E+10	1	-1E+10	1
4901784	181	C	06/18/2020	10:46	-132.150	42.971	0	1075.10	0	3.2980	0	37.1540	8	29.584	0	1063.820	0	11.6	4	3.7	4	-1E+10	1	-1E+10	1	-1E+10	1	-1E+10	1	-1E+10	1	-1E+10	1
4901784	181	C	06/18/2020	10:46	-132.150	42.971	0	1079.80	0	3.2880	0	37.1560	8	29.587	0	1068.459	0	11.7	4	3.7	4	-1E+10	1	-1E+10	1	-1E+10	1	-1E+10	1	-1E+10	1	-1E+10	1
4901784	181	C	06/18/2020	10:46	-132.150	42.971	0	1085.50	0	3.2800	0	37.1580	8	29.589	0	1074.084	0	11.8	4	3.7	4	-1E+10	1	-1E+10	1	-1E+10	1	-1E+10	1	-1E+10	1	-1E+10	1
4901784	181	C	06/18/2020	10:46	-132.150	42.971	0	1090.20	0	3.2730	0	37.1600	8	29.592	0	1078.723	0	11.9	4	3.8	4	-1E+10	1	-1E+10	1	-1E+10	1	-1E+10	1	-1E+10	1	-1E+10	1
4901784	181	C	06/18/2020	10:46	-132.150	42.971	0	1094.80	0	3.2610	0	37.1620	8	29.594	0	1083.262	0	12.0	4	3.8	4	-1E+10	1	-1E+10	1	-1E+10	1	-1E+10	1	-1E+10	1	-1E+10	1
4901784	181	C	06/18/2020	10:46	-132.150	42.971	0	1100.30	0	3.2540	0	37.1630	8	29.596	0	1088.690	0	12.1	4	3.8	4	-1E+10	1	-1E+10	1	-1E+10	1	-1E+10	1	-1E+10	1	-1E+10	1
4901784	181	C	06/18/2020	10:46	-132.150	42.971	0	1104.90	0	3.2440	0	37.1660	8	29.599	0	1093.230	0	12.2	4	3.9	4	-1E+10	1	-1E+10	1	-1E+10	1	-1E+10	1	-1E+10	1	-1E+10	1
4901784	181	C	06/18/2020	10:46	-132.150	42.971	0	1109.60	0	3.2380	0	37.1670	8	29.601	0	1097.868	0	12.2	4	3.9	4	-1E+10	1	-1E+10	1	-1E+10	1	-1E+10	1	-1E+10	1	-1E+10	1
4901784	181	C	06/18/2020	10:46	-132.150	42.971	0	1115.40	0	3.2290	0	37.1690	8	29.603	0	1103.591	0	12.4	4	3.9	4	-1E+10	1	-1E+10	1	-1E+10	1	-1E+10	1	-1E+10	1	-1E+10	1
4901784	181	C	06/18/2020	10:46	-132.150	42.971	0	1120.50	0	3.2190	0	37.1710	8	29.606	0	1108.624	0	12.5	4	3.9	4	-1E+10	1	-1E+10	1	-1E+10	1	-1E+10	1	-1E+10	1	-1E+10	1
4901784	181	C	06/18/2020	10:46	-132.150	42.971	0	1124.80	0	3.2140	0	37.1720	8	29.607	0	1112.867	0	12.5	4	4.0	4	-1E+10	1	-1E+10	1	-1E+10	1	-1E+10	1	-1E+10	1	-1E+10	1
4901784	181	C	06/18/2020	10:46	-132.150	42.971	0	1130.10	0	3.2010	0	37.1740	8	29.610	0	1118.096	0	12.7	4	4.0	4	-1E+10	1	-1E+10	1	-1E+10	1	-1E+10	1	-1E+10	1	-1E+10	1
4901784	181	C	06/18/2020	10:46	-132.150	42.971	0	1135.40	0	3.1880	0	37.1770	8	29.614	0	1123.326	0	12.8	4	4.1	4	-1E+10	1	-1E+10	1	-1E+10	1	-1E+10	1	-1E+10	1	-1E+10	1
4901784	181	C	06/18/2020	10:46	-132.150	42.971	0	1139.50	0	3.1790	0	37.1790	8	29.617	0	1127.371	0	12.9	4	4.1	4	-1E+10	1	-1E+10	1	-1E+10	1	-1E+10	1	-1E+10	1	-1E+10	1
4901784	181	C	06/18/2020	10:46	-132.150	42.971	0	1144.40	0	3.1710	0	37.1800	8	29.618	0	1132.206	0	13.0	4	4.1	4	-1E+10	1	-1E+10	1	-1E+10	1	-1E+10	1	-1E+10	1	-1E+10	1
4901784	181	C	06/18/2020	10:46	-132.150	42.971	0	1150.30	0	3.1590	0	37.1830	8	29.622	0	1138.027	0	13.1	4	4.1	4	-1E+10	1	-1E+10	1	-1E+10	1	-1E+10	1	-1E+10	1	-1E+10	1
4901784	181	C	06/18/2020	10:46	-132.150	42.971	0	1155.10	0	3.1540	0	37.1840	8	29.623	0	1142.763	0	13.2	4	4.2	4	-1E+10	1	-1E+10	1	-1E+10	1	-1E+10	1	-1E+10	1	-1E+10	1
4901784	181	C	06/18/2020	10:46	-132.150	42.971	0	1160.40	0	3.1400	0	37.1860	8	29.626	0	1147.992	0	13.4	4	4.2	4	-1E+10	1	-1E+10	1	-1E+10	1	-1E+10	1	-1E+10	1	-1E+10	1
4901784	181	C	06/18/2020	10:46	-132.150	42.971	0	1164.90	0	3.1250	0	37.1890	8	29.630	0	1152.431	0	13.5	4	4.3	4	-1E+10	1	-1E+10	1	-1E+10	1	-1E+10	1	-1E+10	1	-1E+10	1
4901784	181	C	06/18/2020	10:46	-132.150	42.971	0	1169.60	0	3.1160	0	37.1910	8	29.633	0	1157.068	0	13.6	4	4.3	4	-1E+10	1	-1E+10	1	-1E+10	1	-1E+10	1	-1E+10	1	-1E+10	1
4901784	181	C	06/18/2020	10:46	-132.150	42.971	0	1175.10	0	3.1040	0	37.1920	8	29.635	0	1162.494	0	13.7	4	4.3	4	-1E+10	1	-1E+10	1	-1E+10	1	-1E+10	1	-1E+10	1	-1E+10	1
4901784	181	C	06/18/2020	10:46	-132.150	42.971	0	1180.20	0	3.0970	0	37.1940	8	29.637	0	1167.525	0	13.8	4	4.4	4	-1E+10	1	-1E+10	1	-1E+10	1	-1E+10	1	-1E+10	1	-1E+10	1
4901784	181	C	06/18/2020	10:46	-132.150	42.971	0	1184.70	0	3.0870	0	37.1950	8	29.639	0	1171.964	0	14.0	4	4.4	4	-1E+10	1	-1E+10	1	-1E+10	1	-1E+10	1	-1E+10	1	-1E+10	1
4901784	181	C	06/18/2020	10:46	-132.150	42.971	0	1189.40	0	3.0780	0	37.1970	8	29.641	0	1176.601	0	14.1	4	4.5	4	-1E+10	1	-1E+10	1	-1E+10	1	-1E+10	1	-1E+10	1	-1E+10	1
4901784	181	C	06/18/2020	10:46	-132.150	42.971	0	1195.00	0	3.0660	0	37.1990	8	29.644	0	1182.125	0	14.3	4	4.5	4	-1E+10	1	-1E+10	1	-1E+10	1	-1E+10	1	-1E+10	1	-1E+10	1
4901784	181	C	06/18/2020	10:46	-132.150	42.971	0	1200.50	0	3.0510	0	37.2020	8	29.648	0	1187.550	0	14.5	4	4.6	4	-1E+10	1	-1E+10	1	-1E+10	1	-1E+10	1	-1E+10	1	-1E+10	1
4901784	181	C	06/18/2020	10:46	-132.150	42.971	0	1205.10	0	3.0410	0	37.2030	8	29.650	0	1192.087	0	14.6	4	4.6	4	-1E+10	1	-1E+10	1	-1E+10	1	-1E+10	1	-1E+10	1	-1E+10	1
4901784	181	C	06/18/2020	10:46	-132.150	42.971	0	1209.70	0	3.0320	0	37.2050	8	29.652	0	1196.624	0	14.7	4	4.6	4	-1E+10	1	-1E+10	1	-1E+10	1	-1E+10	1	-1E+10	1	-1E+10	1
4901784	181	C	06/18/2020	10:46	-132.150	42.971	0	1215.30	0	3.0240	0	37.2060	8	29.654	0	1202.148	0	14.8	4	4.7	4	-1E+10	1	-1E+10	1	-1E+10	1	-1E+10	1	-1E+10	1	-1E+10	1
4901784	181	C	06/18/2020	10:46	-132.150	42.971	0	1219.90	0	3.0130	0	37.2080	8	29.657	0	1206.685	0	15.0	4	4.7	4	-1E+10	1	-1E+10	1	-1E+10	1	-1E+10	1	-1E+10	1	-1E+10	1
4901784	181	C	06/18/2020	10:46	-132.150	42.971	0	1224.60	0	3.0040	0	37.2090	8	29.658	0	1211.321	0	15.1	4	4.8	4	-1E+10	1	-1E+10	1	-1E+10	1	-1E+10	1	-1E+10	1	-1E+10	1
4901784	181	C	06/18/2020	10:46	-132.150	42.971	0	1230.30	0	2.9910	0	37.2120	8	29.662	0	1216.942	0	15.2	4	4.8	4	-1E+10	1	-1E+10	1	-1E+10	1	-1E+10	1	-1E+10	1	-1E+10	1
4901784	181	C	06/18/2020	10:46	-132.150	42.971	0	1235.00	0	2.9900	0	37.2120	8	29.662	0	1221.578	0	15.3	4	4.8	4	-1E+10	1	-1E+10	1	-1E+10	1	-1E+10	1	-1E+10	1	-1E+10	1
4901784	181	C	06/18/2020	10:46	-132.150	42.971	0	1239.80	0	2.9790	0	37.2140	8	29.665	0	1226.311	0	15.5	4	4.9	4	-1E+10	1	-1E+10	1	-1E+10	1	-1E+10	1	-1E+10	1	-1E+10	1
4901784	181	C	06/18/2020	10:46	-132.150	42.971	0	1245.30	0	2.9700	0	37.2150	8	29.667	0	1231.736	0	15.7	4	4.9	4	-1E+10	1	-1E+10	1	-1E+10	1	-1E+10	1	-1E+10	1	-1E+10	1
4901784	181	C	06/18/2020	10:46	-132.150	42.971	0	1250.60	0	2.9570	0	37.2170	8	29.670	0	1236.962	0	15.9	4	5.0	4	-1E+10	1	-1E+10	1	-1E+10	1	-1E+10	1	-1E+10	1	-1E+10	1
4901784	181	C	06/18/2020	10:46	-132.150	42.971	0	1255.00	0	2.9450	0	37.2190	8	29.672	0	1241.301	0	16.1	4	5.1	4	-1E+10	1	-1E+10	1	-1E+10	1	-1E+10	1	-1E+10	1	-1E+10	1
4901784	181	C	06/18/2020	10:46	-132.150	42.971	0	1259.40	0	2.9350	0	37.2210	8	29.675	0	1245.640	0	16.2	4	5.1	4	-1E+10	1	-1E+10	1	-1E+10	1	-1E+10	1	-1E+10	1	-1E+10	1
4901784	181	C	06/18/2020	10:46	-132.150	42.971	0	1264.60	0	2.9240	0	37.2230	8	29.678	0	1250.768	0	16.4	4	5.2	4	-1E+10	1	-1E+10	1	-1E+10	1	-1E+10	1	-1E+10	1	-1E+10	1
4901784	181	C	06/18/2020	10:46	-132.150	42.971	0	1270.00	0	2.9150	0	37.2250	8	29.680	0	1256.093	0	16.6	4	5.2	4	-1E+10	1	-1E+10	1	-1E+10	1	-1E+10	1	-1E+10	1	-1E+10	1
4901784	181	C	06/18/2020	10:46	-132.150	42.971	0	1275.40	0	2.9070	0	37.2260	8	29.682	0	1261.418	0	16.8	4	5.3	4	-1E+10	1	-1E+10	1	-1E+10	1	-1E+10	1	-1E+10	1	-1E+10	1
4901784	181	C	06/18/2020	10:46	-132.150	42.971	0	1279.80	0	2.8980	0	37.2270	8	29.683	0	1265.756	0	17.0	4	5.3	4	-1E+10	1	-1E+10	1	-1E+10	1	-1E+10	1	-1E+10	1	-1E+10	1
4901784	181	C	06/18/2020	10:46	-132.150	42.971	0	1284.30	0	2.8840	0	37.2290	8	29.686	0	1270.193	0	17.2	4	5.4	4	-1E+10	1	-1E+10	1	-1E+10	1	-1E+10	1	-1E+10	1	-1E+10	1
4901784	181	C	06/18/2020	10:46	-132.150	42.971	0	1289.80	0	2.8720	0	37.2310	8	29.689	0	1275.616	0	17.5	4	5.5	4	-1E+10	1	-1E+10	1	-1E+10	1	-1E+10	1	-1E+10	1	-1E+10	1
4901784	181	C	06/18/2020	10:46	-132.150	42.971	0	1295.20	0	2.8570	0	37.2340	8	29.693	0	1280.940	0	17.7	4	5.6	4	-1E+10	1	-1E+10	1	-1E+10	1	-1E+10	1	-1E+10	1	-1E+10	1
4901784	181	C	06/18/2020	10:46	-132.150	42.971	0	1300.60	0	2.8450	0	37.2360	8	29.696	0	1286.264	0	18.0	4	5.7	4	-1E+10	1	-1E+10	1	-1E+10	1	-1E+10	1	-1E+10	1	-1E+10	1
4901784	181	C	06/18/2020	10:46	-132.150	42.971	0	1305.20	0	2.8320	0	37.2380	8	29.699	0	1290.799	0	18.3	4	5.7	4	-1E+10	1	-1E+10	1	-1E+10	1	-1E+10	1	-1E+10	1	-1E+10	1
4901784	181	C	06/18/2020	10:46	-132.150	42.971	0	1309.90	0	2.8240	0	37.2390	8	29.700	0	1295.433	0	18.5	4	5.8	4	-1E+10	1	-1E+10	1	-1E+10	1	-1E+10	1	-1E+10	1	-1E+10	1
4901784	181	C	06/18/2020	10:46	-132.150	42.971	0	1315.30	0	2.8080	0	37.2410	8	29.703	0	1300.757	0	18.9	4	5.9	4	-1E+10	1	-1E+10	1	-1E+10	1	-1E+10	1	-1E+10	1	-1E+10	1
4901784	181	C	06/18/2020	10:46	-132.150	42.971	0	1319.90	0	2.7870	0	37.2450	8	29.709	0	1305.292	0	19.3	4	6.0	4	-1E+10	1	-1E+10	1	-1E+10	1	-1E+10	1	-1E+10	1	-1E+10	1
4901784	181	C	06/18/2020	10:46	-132.150	42.971	0	1324.60	0	2.7800	0	37.2460	8	29.710	0	1309.925	0	19.5	4	6.1	4	-1E+10	1	-1E+10	1	-1E+10	1	-1E+10	1	-1E+10	1	-1E+10	1
4901784	181	C	06/18/2020	10:46	-132.150	42.971	0	1330.20	0	2.7660	0	37.2480	8	29.713	0	1315.446	0	19.8	4	6.2	4	-1E+10	1	-1E+10	1	-1E+10	1	-1E+10	1	-1E+10	1	-1E+10	1
4901784	181	C	06/18/2020	10:46	-132.150	42.971	0	1334.90	0	2.7530	0	37.2500	8	29.716	0	1320.079	0	20.1	4	6.3	4	-1E+10	1	-1E+10	1	-1E+10	1	-1E+10	1	-1E+10	1	-1E+10	1
4901784	181	C	06/18/2020	10:46	-132.150	42.971	0	1339.50	0	2.7430	0	37.2520	8	29.719	0	1324.613	0	20.3	4	6.4	4	-1E+10	1	-1E+10	1	-1E+10	1	-1E+10	1	-1E+10	1	-1E+10	1
4901784	181	C	06/18/2020	10:46	-132.150	42.971	0	1345.10	0	2.7330	0	37.2540	8	29.721	0	1330.133	0	20.6	4	6.4	4	-1E+10	1	-1E+10	1	-1E+10	1	-1E+10	1	-1E+10	1	-1E+10	1
4901784	181	C	06/18/2020	10:46	-132.150	42.971	0	1349.70	0	2.7250	0	37.2560	8	29.724	0	1334.668	0	20.7	4	6.5	4	-1E+10	1	-1E+10	1	-1E+10	1	-1E+10	1	-1E+10	1	-1E+10	1
4901784	181	C	06/18/2020	10:46	-132.150	42.971	0	1354.50	0	2.7210	0	37.2560	8	29.724	0	1339.399	0	20.9	4	6.6	4	-1E+10	1	-1E+10	1	-1E+10	1	-1E+10	1	-1E+10	1	-1E+10	1
4901784	181	C	06/18/2020	10:46	-132.150	42.971	0	1360.10	0	2.7120	0	37.2570	8	29.726	0	1344.919	0	21.2	4	6.6	4	-1E+10	1	-1E+10	1	-1E+10	1	-1E+10	1	-1E+10	1	-1E+10	1
4901784	181	C	06/18/2020	10:46	-132.150	42.971	0	1364.80	0	2.7030	0	37.2590	8	29.728	0	1349.551	0	21.4	4	6.7	4	-1E+10	1	-1E+10	1	-1E+10	1	-1E+10	1	-1E+10	1	-1E+10	1
4901784	181	C	06/18/2020	10:46	-132.150	42.971	0	1369.60	0	2.6960	0	37.2600	8	29.730	0	1354.282	0	21.7	4	6.8	4	-1E+10	1	-1E+10	1	-1E+10	1	-1E+10	1	-1E+10	1	-1E+10	1
4901784	181	C	06/18/2020	10:46	-132.150	42.971	0	1375.20	0	2.6830	0	37.2620	8	29.732	0	1359.801	0	21.9	4	6.9	4	-1E+10	1	-1E+10	1	-1E+10	1	-1E+10	1	-1E+10	1	-1E+10	1
4901784	181	C	06/18/2020	10:46	-132.150	42.971	0	1380.20	0	2.6760	0	37.2630	8	29.734	0	1364.729	0	22.2	4	7.0	4	-1E+10	1	-1E+10	1	-1E+10	1	-1E+10	1	-1E+10	1	-1E+10	1
4901784	181	C	06/18/2020	10:46	-132.150	42.971	0	1385.00	0	2.6660	0	37.2650	8	29.737	0	1369.460	0	22.5	4	7.1	4	-1E+10	1	-1E+10	1	-1E+10	1	-1E+10	1	-1E+10	1	-1E+10	1
4901784	181	C	06/18/2020	10:46	-132.150	42.971	0	1389.80	0	2.6570	0	37.2670	8	29.739	0	1374.191	0	22.9	4	7.1	4	-1E+10	1	-1E+10	1	-1E+10	1	-1E+10	1	-1E+10	1	-1E+10	1
4901784	181	C	06/18/2020	10:46	-132.150	42.971	0	1394.90	0	2.6460	0	37.2680	8	29.741	0	1379.217	0	23.1	4	7.2	4	-1E+10	1	-1E+10	1	-1E+10	1	-1E+10	1	-1E+10	1	-1E+10	1
4901784	181	C	06/18/2020	10:46	-132.150	42.971	0	1400.20	0	2.6360	0	37.2710	8	29.744	0	1384.440	0	23.4	4	7.3	4	-1E+10	1	-1E+10	1	-1E+10	1	-1E+10	1	-1E+10	1	-1E+10	1
4901784	181	C	06/18/2020	10:46	-132.150	42.971	0	1405.40	0	2.6260	0	37.2720	8	29.746	0	1389.564	0	23.7	4	7.4	4	-1E+10	1	-1E+10	1	-1E+10	1	-1E+10	1	-1E+10	1	-1E+10	1
4901784	181	C	06/18/2020	10:46	-132.150	42.971	0	1409.80	0	2.6210	0	37.2730	8	29.747	0	1393.900	0	23.9	4	7.5	4	-1E+10	1	-1E+10	1	-1E+10	1	-1E+10	1	-1E+10	1	-1E+10	1
4901784	181	C	06/18/2020	10:46	-132.150	42.971	0	1414.30	0	2.6130	0	37.2750	8	29.750	0	1398.334	0	24.1	4	7.5	4	-1E+10	1	-1E+10	1	-1E+10	1	-1E+10	1	-1E+10	1	-1E+10	1
4901784	181	C	06/18/2020	10:46	-132.150	42.971	0	1419.70	0	2.6090	0	37.2750	8	29.750	0	1403.655	0	24.2	4	7.6	4	-1E+10	1	-1E+10	1	-1E+10	1	-1E+10	1	-1E+10	1	-1E+10	1
4901784	181	C	06/18/2020	10:46	-132.150	42.971	0	1425.20	0	2.6000	0	37.2760	8	29.752	0	1409.075	0	24.4	4	7.6	4	-1E+10	1	-1E+10	1	-1E+10	1	-1E+10	1	-1E+10	1	-1E+10	1
4901784	181	C	06/18/2020	10:46	-132.150	42.971	0	1429.80	0	2.5950	0	37.2780	8	29.754	0	1413.607	0	24.6	4	7.7	4	-1E+10	1	-1E+10	1	-1E+10	1	-1E+10	1	-1E+10	1	-1E+10	1
4901784	181	C	06/18/2020	10:46	-132.150	42.971	0	1434.70	0	2.5900	0	37.2780	8	29.754	0	1418.435	0	24.9	4	7.8	4	-1E+10	1	-1E+10	1	-1E+10	1	-1E+10	1	-1E+10	1	-1E+10	1
4901784	181	C	06/18/2020	10:46	-132.150	42.971	0	1440.20	0	2.5750	0	37.2800	8	29.757	0	1423.854	0	25.3	4	7.9	4	-1E+10	1	-1E+10	1	-1E+10	1	-1E+10	1	-1E+10	1	-1E+10	1
4901784	181	C	06/18/2020	10:46	-132.150	42.971	0	1445.10	0	2.5660	0	37.2820	8	29.760	0	1428.682	0	25.6	4	8.0	4	-1E+10	1	-1E+10	1	-1E+10	1	-1E+10	1	-1E+10	1	-1E+10	1
4901784	181	C	06/18/2020	10:46	-132.150	42.971	0	1450.10	0	2.5550	0	37.2830	8	29.762	0	1433.608	0	25.9	4	8.1	4	-1E+10	1	-1E+10	1	-1E+10	1	-1E+10	1	-1E+10	1	-1E+10	1
4901784	181	C	06/18/2020	10:46	-132.150	42.971	0	1455.00	0	2.5470	0	37.2850	8	29.764	0	1438.436	0	26.2	4	8.2	4	-1E+10	1	-1E+10	1	-1E+10	1	-1E+10	1	-1E+10	1	-1E+10	1
4901784	181	C	06/18/2020	10:46	-132.150	42.971	0	1459.90	0	2.5420	0	37.2860	8	29.765	0	1443.264	0	26.4	4	8.2	4	-1E+10	1	-1E+10	1	-1E+10	1	-1E+10	1	-1E+10	1	-1E+10	1
4901784	181	C	06/18/2020	10:46	-132.150	42.971	0	1464.70	0	2.5340	0	37.2870	8	29.767	0	1447.992	0	26.6	4	8.3	4	-1E+10	1	-1E+10	1	-1E+10	1	-1E+10	1	-1E+10	1	-1E+10	1
4901784	181	C	06/18/2020	10:46	-132.150	42.971	0	1469.70	0	2.5270	0	37.2890	8	29.769	0	1452.918	0	26.9	4	8.4	4	-1E+10	1	-1E+10	1	-1E+10	1	-1E+10	1	-1E+10	1	-1E+10	1
4901784	181	C	06/18/2020	10:46	-132.150	42.971	0	1474.70	0	2.5180	0	37.2900	8	29.771	0	1457.844	0	27.1	4	8.5	4	-1E+10	1	-1E+10	1	-1E+10	1	-1E+10	1	-1E+10	1	-1E+10	1
4901784	181	C	06/18/2020	10:46	-132.150	42.971	0	1479.60	0	2.5110	0	37.2910	8	29.772	0	1462.671	0	27.4	4	8.5	4	-1E+10	1	-1E+10	1	-1E+10	1	-1E+10	1	-1E+10	1	-1E+10	1
4901784	181	C	06/18/2020	10:46	-132.150	42.971	0	1484.70	0	2.5040	0	37.2930	8	29.775	0	1467.695	0	27.7	4	8.6	4	-1E+10	1	-1E+10	1	-1E+10	1	-1E+10	1	-1E+10	1	-1E+10	1
4901784	181	C	06/18/2020	10:46	-132.150	42.971	0	1489.80	0	2.4960	0	37.2950	8	29.777	0	1472.719	0	27.9	4	8.7	4	-1E+10	1	-1E+10	1	-1E+10	1	-1E+10	1	-1E+10	1	-1E+10	1
4901784	181	C	06/18/2020	10:46	-132.150	42.971	0	1495.00	0	2.4930	0	37.2950	8	29.777	0	1477.841	0	28.1	4	8.7	4	-1E+10	1	-1E+10	1	-1E+10	1	-1E+10	1	-1E+10	1	-1E+10	1
4901784	181	C	06/18/2020	10:46	-132.150	42.971	0	1500.30	0	2.4860	0	37.2960	8	29.779	0	1483.062	0	28.3	4	8.8	4	-1E+10	1	-1E+10	1	-1E+10	1	-1E+10	1	-1E+10	1	-1E+10	1
4901784	181	C	06/18/2020	10:46	-132.150	42.971	0	1505.60	0	2.4820	0	37.2970	8	29.780	0	1488.282	0	28.5	4	8.9	4	-1E+10	1	-1E+10	1	-1E+10	1	-1E+10	1	-1E+10	1	-1E+10	1
4901784	181	C	06/18/2020	10:46	-132.150	42.971	0	1510.10	0	2.4760	0	37.2990	8	29.782	0	1492.714	0	28.7	4	9.0	4	-1E+10	1	-1E+10	1	-1E+10	1	-1E+10	1	-1E+10	1	-1E+10	1
4901784	181	C	06/18/2020	10:46	-132.150	42.971	0	1514.30	0	2.4740	0	37.2990	8	29.782	0	1496.851	0	28.9	4	9.0	4	-1E+10	1	-1E+10	1	-1E+10	1	-1E+10	1	-1E+10	1	-1E+10	1
4901784	181	C	06/18/2020	10:46	-132.150	42.971	0	1519.70	0	2.4680	0	37.2990	8	29.783	0	1502.170	0	29.3	4	9.1	4	-1E+10	1	-1E+10	1	-1E+10	1	-1E+10	1	-1E+10	1	-1E+10	1
4901784	181	C	06/18/2020	10:46	-132.150	42.971	0	1525.20	0	2.4540	0	37.3010	8	29.786	0	1507.587	0	29.7	4	9.2	4	-1E+10	1	-1E+10	1	-1E+10	1	-1E+10	1	-1E+10	1	-1E+10	1
4901784	181	C	06/18/2020	10:46	-132.150	42.971	0	1530.70	0	2.4430	0	37.3030	8	29.789	0	1513.003	0	30.2	4	9.4	4	-1E+10	1	-1E+10	1	-1E+10	1	-1E+10	1	-1E+10	1	-1E+10	1
4901784	181	C	06/18/2020	10:46	-132.150	42.971	0	1535.30	0	2.4300	0	37.3050	8	29.791	0	1517.534	0	30.5	4	9.5	4	-1E+10	1	-1E+10	1	-1E+10	1	-1E+10	1	-1E+10	1	-1E+10	1
4901784	181	C	06/18/2020	10:46	-132.150	42.971	0	1539.80	0	2.4270	0	37.3060	8	29.792	0	1521.966	0	30.7	4	9.6	4	-1E+10	1	-1E+10	1	-1E+10	1	-1E+10	1	-1E+10	1	-1E+10	1
4901784	181	C	06/18/2020	10:46	-132.150	42.971	0	1544.60	0	2.4200	0	37.3070	8	29.794	0	1526.693	0	31.1	4	9.7	4	-1E+10	1	-1E+10	1	-1E+10	1	-1E+10	1	-1E+10	1	-1E+10	1
4901784	181	C	06/18/2020	10:46	-132.150	42.971	0	1549.40	0	2.4090	0	37.3080	8	29.796	0	1531.420	0	31.6	4	9.8	4	-1E+10	1	-1E+10	1	-1E+10	1	-1E+10	1	-1E+10	1	-1E+10	1
4901784	181	C	06/18/2020	10:46	-132.150	42.971	0	1554.30	0	2.3940	0	37.3100	8	29.799	0	1536.245	0	32.0	4	9.9	4	-1E+10	1	-1E+10	1	-1E+10	1	-1E+10	1	-1E+10	1	-1E+10	1
4901784	181	C	06/18/2020	10:46	-132.150	42.971	0	1560.00	0	2.3840	0	37.3120	8	29.801	0	1541.858	0	32.4	4	10.1	4	-1E+10	1	-1E+10	1	-1E+10	1	-1E+10	1	-1E+10	1	-1E+10	1
4901784	181	C	06/18/2020	10:46	-132.150	42.971	0	1565.80	0	2.3770	0	37.3130	8	29.803	0	1547.569	0	32.7	4	10.2	4	-1E+10	1	-1E+10	1	-1E+10	1	-1E+10	1	-1E+10	1	-1E+10	1
4901784	181	C	06/18/2020	10:46	-132.150	42.971	0	1570.70	0	2.3710	0	37.3140	8	29.804	0	1552.394	0	32.9	4	10.2	4	-1E+10	1	-1E+10	1	-1E+10	1	-1E+10	1	-1E+10	1	-1E+10	1
4901784	181	C	06/18/2020	10:46	-132.150	42.971	0	1575.00	0	2.3660	0	37.3150	8	29.805	0	1556.628	0	33.2	4	10.3	4	-1E+10	1	-1E+10	1	-1E+10	1	-1E+10	1	-1E+10	1	-1E+10	1
4901784	181	C	06/18/2020	10:46	-132.150	42.971	0	1580.00	0	2.3600	0	37.3160	8	29.807	0	1561.552	0	33.5	4	10.4	4	-1E+10	1	-1E+10	1	-1E+10	1	-1E+10	1	-1E+10	1	-1E+10	1
4901784	181	C	06/18/2020	10:46	-132.150	42.971	0	1585.00	0	2.3530	0	37.3180	8	29.809	0	1566.475	0	33.9	4	10.5	4	-1E+10	1	-1E+10	1	-1E+10	1	-1E+10	1	-1E+10	1	-1E+10	1
4901784	181	C	06/18/2020	10:46	-132.150	42.971	0	1589.20	0	2.3450	0	37.3190	8	29.811	0	1570.610	0	34.2	4	10.6	4	-1E+10	1	-1E+10	1	-1E+10	1	-1E+10	1	-1E+10	1	-1E+10	1
4901784	181	C	06/18/2020	10:46	-132.150	42.971	0	1594.30	0	2.3370	0	37.3210	8	29.813	0	1575.632	0	34.7	4	10.8	4	-1E+10	1	-1E+10	1	-1E+10	1	-1E+10	1	-1E+10	1	-1E+10	1
4901784	181	C	06/18/2020	10:46	-132.150	42.971	0	1599.40	0	2.3320	0	37.3220	8	29.814	0	1580.653	0	35.0	4	10.9	4	-1E+10	1	-1E+10	1	-1E+10	1	-1E+10	1	-1E+10	1	-1E+10	1
4901784	181	C	06/18/2020	10:46	-132.150	42.971	0	1604.60	0	2.3240	0	37.3230	8	29.816	0	1585.772	0	35.4	4	11.0	4	-1E+10	1	-1E+10	1	-1E+10	1	-1E+10	1	-1E+10	1	-1E+10	1
4901784	181	C	06/18/2020	10:46	-132.150	42.971	0	1609.80	0	2.3140	0	37.3240	8	29.817	0	1590.892	0	35.8	4	11.1	4	-1E+10	1	-1E+10	1	-1E+10	1	-1E+10	1	-1E+10	1	-1E+10	1
4901784	181	C	06/18/2020	10:46	-132.150	42.971	0	1615.20	0	2.3020	0	37.3270	8	29.821	0	1596.208	0	36.2	4	11.2	4	-1E+10	1	-1E+10	1	-1E+10	1	-1E+10	1	-1E+10	1	-1E+10	1
4901784	181	C	06/18/2020	10:46	-132.150	42.971	0	1620.50	0	2.2960	0	37.3280	8	29.822	0	1601.426	0	36.6	4	11.3	4	-1E+10	1	-1E+10	1	-1E+10	1	-1E+10	1	-1E+10	1	-1E+10	1
4901784	181	C	06/18/2020	10:46	-132.150	42.971	0	1625.00	0	2.2900	0	37.3290	8	29.824	0	1605.856	0	36.8	4	11.4	4	-1E+10	1	-1E+10	1	-1E+10	1	-1E+10	1	-1E+10	1	-1E+10	1
4901784	181	C	06/18/2020	10:46	-132.150	42.971	0	1629.50	0	2.2840	0	37.3300	8	29.825	0	1610.286	0	37.1	4	11.5	4	-1E+10	1	-1E+10	1	-1E+10	1	-1E+10	1	-1E+10	1	-1E+10	1
4901784	181	C	06/18/2020	10:46	-132.150	42.971	0	1634.90	0	2.2770	0	37.3310	8	29.827	0	1615.601	0	37.5	4	11.6	4	-1E+10	1	-1E+10	1	-1E+10	1	-1E+10	1	-1E+10	1	-1E+10	1
4901784	181	C	06/18/2020	10:46	-132.150	42.971	0	1640.40	0	2.2700	0	37.3320	8	29.828	0	1621.015	0	37.8	4	11.7	4	-1E+10	1	-1E+10	1	-1E+10	1	-1E+10	1	-1E+10	1	-1E+10	1
4901784	181	C	06/18/2020	10:46	-132.150	42.971	0	1644.90	0	2.2620	0	37.3340	8	29.830	0	1625.445	0	38.2	4	11.8	4	-1E+10	1	-1E+10	1	-1E+10	1	-1E+10	1	-1E+10	1	-1E+10	1
4901784	181	C	06/18/2020	10:46	-132.150	42.971	0	1649.40	0	2.2560	0	37.3340	8	29.831	0	1629.874	0	38.5	4	11.9	4	-1E+10	1	-1E+10	1	-1E+10	1	-1E+10	1	-1E+10	1	-1E+10	1
4901784	181	C	06/18/2020	10:46	-132.150	42.971	0	1654.90	0	2.2490	0	37.3350	8	29.832	0	1635.288	0	38.9	4	12.0	4	-1E+10	1	-1E+10	1	-1E+10	1	-1E+10	1	-1E+10	1	-1E+10	1
4901784	181	C	06/18/2020	10:46	-132.150	42.971	0	1660.40	0	2.2410	0	37.3370	8	29.835	0	1640.702	0	39.3	4	12.2	4	-1E+10	1	-1E+10	1	-1E+10	1	-1E+10	1	-1E+10	1	-1E+10	1
4901784	181	C	06/18/2020	10:46	-132.150	42.971	0	1665.10	0	2.2330	0	37.3390	8	29.837	0	1645.328	0	39.5	4	12.2	4	-1E+10	1	-1E+10	1	-1E+10	1	-1E+10	1	-1E+10	1	-1E+10	1
4901784	181	C	06/18/2020	10:46	-132.150	42.971	0	1669.90	0	2.2300	0	37.3390	8	29.837	0	1650.052	0	39.6	4	12.3	4	-1E+10	1	-1E+10	1	-1E+10	1	-1E+10	1	-1E+10	1	-1E+10	1
4901784	181	C	06/18/2020	10:46	-132.150	42.971	0	1675.20	0	2.2290	0	37.3390	8	29.837	0	1655.268	0	39.8	4	12.3	4	-1E+10	1	-1E+10	1	-1E+10	1	-1E+10	1	-1E+10	1	-1E+10	1
4901784	181	C	06/18/2020	10:46	-132.150	42.971	0	1679.90	0	2.2250	0	37.3400	8	29.839	0	1659.894	0	40.1	4	12.4	4	-1E+10	1	-1E+10	1	-1E+10	1	-1E+10	1	-1E+10	1	-1E+10	1
4901784	181	C	06/18/2020	10:46	-132.150	42.971	0	1684.80	0	2.2170	0	37.3410	8	29.840	0	1664.716	0	40.6	4	12.6	4	-1E+10	1	-1E+10	1	-1E+10	1	-1E+10	1	-1E+10	1	-1E+10	1
4901784	181	C	06/18/2020	10:46	-132.150	42.971	0	1689.60	0	2.2070	0	37.3420	8	29.842	0	1669.440	0	41.0	4	12.7	4	-1E+10	1	-1E+10	1	-1E+10	1	-1E+10	1	-1E+10	1	-1E+10	1
4901784	181	C	06/18/2020	10:46	-132.150	42.971	0	1694.50	0	2.1990	0	37.3440	8	29.844	0	1674.262	0	41.4	4	12.8	4	-1E+10	1	-1E+10	1	-1E+10	1	-1E+10	1	-1E+10	1	-1E+10	1
4901784	181	C	06/18/2020	10:46	-132.150	42.971	0	1699.40	0	2.1910	0	37.3450	8	29.846	0	1679.085	0	41.7	4	12.9	4	-1E+10	1	-1E+10	1	-1E+10	1	-1E+10	1	-1E+10	1	-1E+10	1
4901784	181	C	06/18/2020	10:46	-132.150	42.971	0	1704.30	0	2.1860	0	37.3460	8	29.847	0	1683.907	0	41.9	4	13.0	4	-1E+10	1	-1E+10	1	-1E+10	1	-1E+10	1	-1E+10	1	-1E+10	1
4901784	181	C	06/18/2020	10:46	-132.150	42.971	0	1709.30	0	2.1820	0	37.3470	8	29.848	0	1688.827	0	42.1	4	13.0	4	-1E+10	1	-1E+10	1	-1E+10	1	-1E+10	1	-1E+10	1	-1E+10	1
4901784	181	C	06/18/2020	10:46	-132.150	42.971	0	1714.30	0	2.1790	0	37.3480	8	29.849	0	1693.747	0	42.3	4	13.1	4	-1E+10	1	-1E+10	1	-1E+10	1	-1E+10	1	-1E+10	1	-1E+10	1
4901784	181	C	06/18/2020	10:46	-132.150	42.971	0	1719.30	0	2.1750	0	37.3480	8	29.850	0	1698.667	0	42.6	4	13.2	4	-1E+10	1	-1E+10	1	-1E+10	1	-1E+10	1	-1E+10	1	-1E+10	1
4901784	181	C	06/18/2020	10:46	-132.150	42.971	0	1724.40	0	2.1700	0	37.3490	8	29.851	0	1703.685	0	43.0	4	13.3	4	-1E+10	1	-1E+10	1	-1E+10	1	-1E+10	1	-1E+10	1	-1E+10	1
4901784	181	C	06/18/2020	10:46	-132.150	42.971	0	1729.50	0	2.1650	0	37.3500	8	29.852	0	1708.703	0	43.7	4	13.5	4	-1E+10	1	-1E+10	1	-1E+10	1	-1E+10	1	-1E+10	1	-1E+10	1
4901784	181	C	06/18/2020	10:46	-132.150	42.971	0	1734.60	0	2.1550	0	37.3530	8	29.856	0	1713.722	0	44.3	4	13.7	4	-1E+10	1	-1E+10	1	-1E+10	1	-1E+10	1	-1E+10	1	-1E+10	1
4901784	181	C	06/18/2020	10:46	-132.150	42.971	0	1739.70	0	2.1500	0	37.3540	8	29.857	0	1718.740	0	44.7	4	13.8	4	-1E+10	1	-1E+10	1	-1E+10	1	-1E+10	1	-1E+10	1	-1E+10	1
4901784	181	C	06/18/2020	10:46	-132.150	42.971	0	1744.90	0	2.1420	0	37.3550	8	29.858	0	1723.856	0	45.1	4	13.9	4	-1E+10	1	-1E+10	1	-1E+10	1	-1E+10	1	-1E+10	1	-1E+10	1
4901784	181	C	06/18/2020	10:46	-132.150	42.971	0	1750.00	0	2.1350	0	37.3560	8	29.860	0	1728.874	0	45.5	4	14.1	4	-1E+10	1	-1E+10	1	-1E+10	1	-1E+10	1	-1E+10	1	-1E+10	1
4901784	181	C	06/18/2020	10:46	-132.150	42.971	0	1755.20	0	2.1290	0	37.3570	8	29.861	0	1733.989	0	45.8	4	14.1	4	-1E+10	1	-1E+10	1	-1E+10	1	-1E+10	1	-1E+10	1	-1E+10	1
4901784	181	C	06/18/2020	10:46	-132.150	42.971	0	1760.40	0	2.1240	0	37.3590	8	29.863	0	1739.105	0	46.1	4	14.2	4	-1E+10	1	-1E+10	1	-1E+10	1	-1E+10	1	-1E+10	1	-1E+10	1
4901784	181	C	06/18/2020	10:46	-132.150	42.971	0	1765.70	0	2.1200	0	37.3590	8	29.864	0	1744.319	0	46.3	4	14.3	4	-1E+10	1	-1E+10	1	-1E+10	1	-1E+10	1	-1E+10	1	-1E+10	1
4901784	181	C	06/18/2020	10:46	-132.150	42.971	0	1770.00	0	2.1170	0	37.3600	8	29.865	0	1748.550	0	46.5	4	14.4	4	-1E+10	1	-1E+10	1	-1E+10	1	-1E+10	1	-1E+10	1	-1E+10	1
4901784	181	C	06/18/2020	10:46	-132.150	42.971	0	1774.60	0	2.1150	0	37.3600	8	29.865	0	1753.075	0	46.7	4	14.4	4	-1E+10	1	-1E+10	1	-1E+10	1	-1E+10	1	-1E+10	1	-1E+10	1
4901784	181	C	06/18/2020	10:46	-132.150	42.971	0	1779.90	0	2.1100	0	37.3610	8	29.866	0	1758.289	0	47.0	4	14.5	4	-1E+10	1	-1E+10	1	-1E+10	1	-1E+10	1	-1E+10	1	-1E+10	1
4901784	181	C	06/18/2020	10:46	-132.150	42.971	0	1785.40	0	2.1050	0	37.3620	8	29.867	0	1763.699	0	47.3	4	14.6	4	-1E+10	1	-1E+10	1	-1E+10	1	-1E+10	1	-1E+10	1	-1E+10	1
4901784	181	C	06/18/2020	10:46	-132.150	42.971	0	1789.90	0	2.1020	0	37.3630	8	29.869	0	1768.126	0	47.5	4	14.7	4	-1E+10	1	-1E+10	1	-1E+10	1	-1E+10	1	-1E+10	1	-1E+10	1
4901784	181	C	06/18/2020	10:46	-132.150	42.971	0	1794.40	0	2.1000	0	37.3630	8	29.869	0	1772.552	0	47.7	4	14.7	4	-1E+10	1	-1E+10	1	-1E+10	1	-1E+10	1	-1E+10	1	-1E+10	1
4901784	181	C	06/18/2020	10:46	-132.150	42.971	0	1799.80	0	2.0950	0	37.3640	8	29.870	0	1777.864	0	48.0	4	14.8	4	-1E+10	1	-1E+10	1	-1E+10	1	-1E+10	1	-1E+10	1	-1E+10	1
4901784	181	C	06/18/2020	10:46	-132.150	42.971	0	1805.20	0	2.0900	0	37.3650	8	29.871	0	1783.175	0	48.4	4	15.0	4	-1E+10	1	-1E+10	1	-1E+10	1	-1E+10	1	-1E+10	1	-1E+10	1
4901784	181	C	06/18/2020	10:46	-132.150	42.971	0	1810.70	0	2.0830	0	37.3660	8	29.873	0	1788.585	0	48.9	4	15.1	4	-1E+10	1	-1E+10	1	-1E+10	1	-1E+10	1	-1E+10	1	-1E+10	1
4901784	181	C	06/18/2020	10:46	-132.150	42.971	0	1815.30	0	2.0770	0	37.3680	8	29.875	0	1793.110	0	49.2	4	15.2	4	-1E+10	1	-1E+10	1	-1E+10	1	-1E+10	1	-1E+10	1	-1E+10	1
4901784	181	C	06/18/2020	10:46	-132.150	42.971	0	1819.80	0	2.0740	0	37.3680	8	29.875	0	1797.536	0	49.4	4	15.2	4	-1E+10	1	-1E+10	1	-1E+10	1	-1E+10	1	-1E+10	1	-1E+10	1
4901784	181	C	06/18/2020	10:46	-132.150	42.971	0	1825.40	0	2.0720	0	37.3680	8	29.875	0	1803.043	0	49.6	4	15.3	4	-1E+10	1	-1E+10	1	-1E+10	1	-1E+10	1	-1E+10	1	-1E+10	1
4901784	181	C	06/18/2020	10:46	-132.150	42.971	0	1830.00	0	2.0700	0	37.3690	8	29.876	0	1807.567	0	49.9	4	15.4	4	-1E+10	1	-1E+10	1	-1E+10	1	-1E+10	1	-1E+10	1	-1E+10	1
4901784	181	C	06/18/2020	10:46	-132.150	42.971	0	1834.60	0	2.0630	0	37.3700	8	29.878	0	1812.091	0	50.2	4	15.5	4	-1E+10	1	-1E+10	1	-1E+10	1	-1E+10	1	-1E+10	1	-1E+10	1
4901784	181	C	06/18/2020	10:46	-132.150	42.971	0	1840.10	0	2.0580	0	37.3710	8	29.879	0	1817.500	0	50.6	4	15.6	4	-1E+10	1	-1E+10	1	-1E+10	1	-1E+10	1	-1E+10	1	-1E+10	1
4901784	181	C	06/18/2020	10:46	-132.150	42.971	0	1844.80	0	2.0530	0	37.3720	8	29.880	0	1822.123	0	51.0	4	15.7	4	-1E+10	1	-1E+10	1	-1E+10	1	-1E+10	1	-1E+10	1	-1E+10	1
4901784	181	C	06/18/2020	10:46	-132.150	42.971	0	1849.20	0	2.0480	0	37.3730	8	29.882	0	1826.450	0	51.3	4	15.8	4	-1E+10	1	-1E+10	1	-1E+10	1	-1E+10	1	-1E+10	1	-1E+10	1
4901784	181	C	06/18/2020	10:46	-132.150	42.971	0	1854.50	0	2.0420	0	37.3740	8	29.883	0	1831.662	0	51.7	4	15.9	4	-1E+10	1	-1E+10	1	-1E+10	1	-1E+10	1	-1E+10	1	-1E+10	1
4901784	181	C	06/18/2020	10:46	-132.150	42.971	0	1859.30	0	2.0370	0	37.3750	8	29.884	0	1836.382	0	52.1	4	16.1	4	-1E+10	1	-1E+10	1	-1E+10	1	-1E+10	1	-1E+10	1	-1E+10	1
4901784	181	C	06/18/2020	10:46	-132.150	42.971	0	1865.00	0	2.0290	0	37.3760	8	29.886	0	1841.987	0	52.6	4	16.2	4	-1E+10	1	-1E+10	1	-1E+10	1	-1E+10	1	-1E+10	1	-1E+10	1
4901784	181	C	06/18/2020	10:46	-132.150	42.971	0	1870.80	0	2.0240	0	37.3770	8	29.887	0	1847.690	0	52.9	4	16.3	4	-1E+10	1	-1E+10	1	-1E+10	1	-1E+10	1	-1E+10	1	-1E+10	1
4901784	181	C	06/18/2020	10:46	-132.150	42.971	0	1875.80	0	2.0220	0	37.3770	8	29.887	0	1852.607	0	53.1	4	16.4	4	-1E+10	1	-1E+10	1	-1E+10	1	-1E+10	1	-1E+10	1	-1E+10	1
4901784	181	C	06/18/2020	10:46	-132.150	42.971	0	1880.80	0	2.0150	0	37.3790	8	29.889	0	1857.523	0	53.4	4	16.5	4	-1E+10	1	-1E+10	1	-1E+10	1	-1E+10	1	-1E+10	1	-1E+10	1
4901784	181	C	06/18/2020	10:46	-132.150	42.971	0	1885.70	0	2.0120	0	37.3790	8	29.890	0	1862.341	0	53.6	4	16.5	4	-1E+10	1	-1E+10	1	-1E+10	1	-1E+10	1	-1E+10	1	-1E+10	1
4901784	181	C	06/18/2020	10:46	-132.150	42.971	0	1890.70	0	2.0110	0	37.3800	8	29.891	0	1867.257	0	53.6	4	16.5	4	-1E+10	1	-1E+10	1	-1E+10	1	-1E+10	1	-1E+10	1	-1E+10	1
4901784	181	C	06/18/2020	10:46	-132.150	42.971	0	1895.80	0	2.0110	0	37.3800	8	29.891	0	1872.271	0	53.7	4	16.6	4	-1E+10	1	-1E+10	1	-1E+10	1	-1E+10	1	-1E+10	1	-1E+10	1
4901784	181	C	06/18/2020	10:46	-132.150	42.971	0	1900.00	0	2.0110	0	37.3800	8	29.891	0	1876.401	0	53.9	4	16.6	4	-1E+10	1	-1E+10	1	-1E+10	1	-1E+10	1	-1E+10	1	-1E+10	1
4901784	181	C	06/18/2020	10:46	-132.150	42.971	0	1904.20	0	2.0080	0	37.3800	8	29.891	0	1880.530	0	54.1	4	16.7	4	-1E+10	1	-1E+10	1	-1E+10	1	-1E+10	1	-1E+10	1	-1E+10	1
4901784	181	C	06/18/2020	10:46	-132.150	42.971	0	1909.20	0	2.0040	0	37.3810	8	29.892	0	1885.446	0	54.5	4	16.8	4	-1E+10	1	-1E+10	1	-1E+10	1	-1E+10	1	-1E+10	1	-1E+10	1
4901784	181	C	06/18/2020	10:46	-132.150	42.971	0	1914.30	0	1.9990	0	37.3820	8	29.893	0	1890.460	0	54.8	4	16.9	4	-1E+10	1	-1E+10	1	-1E+10	1	-1E+10	1	-1E+10	1	-1E+10	1
4901784	181	C	06/18/2020	10:46	-132.150	42.971	0	1919.40	0	1.9950	0	37.3830	8	29.895	0	1895.473	0	55.1	4	17.0	4	-1E+10	1	-1E+10	1	-1E+10	1	-1E+10	1	-1E+10	1	-1E+10	1
4901784	181	C	06/18/2020	10:46	-132.150	42.971	0	1924.40	0	1.9890	0	37.3840	8	29.896	0	1900.389	0	55.5	4	17.1	4	-1E+10	1	-1E+10	1	-1E+10	1	-1E+10	1	-1E+10	1	-1E+10	1
4901784	181	C	06/18/2020	10:46	-132.150	42.971	0	1929.40	0	1.9840	0	37.3850	8	29.897	0	1905.304	0	55.8	4	17.2	4	-1E+10	1	-1E+10	1	-1E+10	1	-1E+10	1	-1E+10	1	-1E+10	1
4901784	181	C	06/18/2020	10:46	-132.150	42.971	0	1934.50	0	1.9810	0	37.3850	8	29.898	0	1910.317	0	56.0	4	17.2	4	-1E+10	1	-1E+10	1	-1E+10	1	-1E+10	1	-1E+10	1	-1E+10	1
4901784	181	C	06/18/2020	10:46	-132.150	42.971	0	1939.60	0	1.9770	0	37.3860	8	29.899	0	1915.331	0	56.4	4	17.4	4	-1E+10	1	-1E+10	1	-1E+10	1	-1E+10	1	-1E+10	1	-1E+10	1
4901784	181	C	06/18/2020	10:46	-132.150	42.971	0	1944.80	0	1.9720	0	37.3870	8	29.900	0	1920.442	0	56.9	4	17.5	4	-1E+10	1	-1E+10	1	-1E+10	1	-1E+10	1	-1E+10	1	-1E+10	1
4901784	181	C	06/18/2020	10:46	-132.150	42.971	0	1949.90	0	1.9640	0	37.3880	8	29.902	0	1925.455	0	57.3	4	17.6	4	-1E+10	1	-1E+10	1	-1E+10	1	-1E+10	1	-1E+10	1	-1E+10	1
4901784	181	C	06/18/2020	10:46	-132.150	42.971	0	1955.00	0	1.9600	0	37.3890	8	29.903	0	1930.468	0	57.6	4	17.7	4	-1E+10	1	-1E+10	1	-1E+10	1	-1E+10	1	-1E+10	1	-1E+10	1
4901784	181	C	06/18/2020	10:46	-132.150	42.971	0	1960.20	0	1.9520	0	37.3900	8	29.904	0	1935.579	0	58.0	4	17.9	4	-1E+10	1	-1E+10	1	-1E+10	1	-1E+10	1	-1E+10	1	-1E+10	1
4901784	181	C	06/18/2020	10:46	-132.150	42.971	0	1965.40	0	1.9490	0	37.3910	8	29.905	0	1940.691	0	58.3	4	17.9	4	-1E+10	1	-1E+10	1	-1E+10	1	-1E+10	1	-1E+10	1	-1E+10	1
4901784	181	C	06/18/2020	10:46	-132.150	42.971	0	1970.50	0	1.9430	0	37.3910	8	29.906	0	1945.703	0	58.6	4	18.0	4	-1E+10	1	-1E+10	1	-1E+10	1	-1E+10	1	-1E+10	1	-1E+10	1
4901784	181	C	06/18/2020	10:46	-132.150	42.971	0	1975.70	0	1.9400	0	37.3920	8	29.907	0	1950.814	0	58.9	4	18.1	4	-1E+10	1	-1E+10	1	-1E+10	1	-1E+10	1	-1E+10	1	-1E+10	1
4901784	181	C	06/18/2020	10:46	-132.150	42.971	0	1980.00	0	1.9350	0	37.3930	8	29.908	0	1955.040	0	59.1	4	18.2	4	-1E+10	1	-1E+10	1	-1E+10	1	-1E+10	1	-1E+10	1	-1E+10	1
4901784	181	C	06/18/2020	10:46	-132.150	42.971	0	1984.40	0	1.9330	0	37.3930	8	29.908	0	1959.364	0	59.2	4	18.2	4	-1E+10	1	-1E+10	1	-1E+10	1	-1E+10	1	-1E+10	1	-1E+10	1
4901784	181	C	06/18/2020	10:46	-132.150	42.971	0	1989.60	0	1.9300	0	37.3940	8	29.909	0	1964.475	0	59.5	4	18.3	4	-1E+10	1	-1E+10	1	-1E+10	1	-1E+10	1	-1E+10	1	-1E+10	1
4901784	181	C	06/18/2020	10:46	-132.150	42.971	0	1994.90	0	1.9240	0	37.3950	8	29.911	0	1969.683	0	59.8	4	18.4	4	-1E+10	1	-1E+10	1	-1E+10	1	-1E+10	1	-1E+10	1	-1E+10	1
4901784	181	C	06/18/2020	10:46	-132.150	42.971	0	2000.40	0	1.9220	0	37.3950	8	29.911	0	1975.088	0	59.9	4	18.4	4	-1E+10	1	-1E+10	1	-1E+10	1	-1E+10	1	-1E+10	1	-1E+10	1
4901784	181	C	06/18/2020	10:46	-132.150	42.971	0	2005.40	0	1.9200	0	37.3950	8	29.911	0	1980.002	0	60.2	4	18.5	4	-1E+10	1	-1E+10	1	-1E+10	1	-1E+10	1	-1E+10	1	-1E+10	1
4901784	181	C	06/18/2020	10:46	-132.150	42.971	0	2010.00	0	1.9150	0	37.3960	8	29.912	0	1984.522	0	60.5	4	18.6	4	-1E+10	1	-1E+10	1	-1E+10	1	-1E+10	1	-1E+10	1	-1E+10	1
4901784	181	C	06/18/2020	10:46	-132.150	42.971	0	2014.60	0	1.9110	0	37.3970	8	29.914	0	1989.042	0	60.8	4	18.7	4	-1E+10	1	-1E+10	1	-1E+10	1	-1E+10	1	-1E+10	1	-1E+10	1
4901784	181	C	06/18/2020	10:46	-132.150	42.971	0	2019.90	0	1.9070	0	37.3970	8	29.914	0	1994.250	0	61.1	4	18.8	4	-1E+10	1	-1E+10	1	-1E+10	1	-1E+10	1	-1E+10	1	-1E+10	1
4901784	181	C	06/18/2020	10:46	-132.150	42.971	0																										
4901784	182	C	06/28/2020	10:43	-132.174	42.914	0	2.10	0	15.7470	0	34.9870	8	25.796	0	2.083	0	238.9	4	97.8	4	-1E+10	1	-1E+10	1	-1E+10	1	-1E+10	1	-1E+10	1	-1E+10	1
4901784	182	C	06/28/2020	10:43	-132.174	42.914	0	3.40	0	15.7450	0	34.9880	8	25.797	0	3.373	0	238.8	4	97.8	4	-1E+10	1	-1E+10	1	-1E+10	1	-1E+10	1	-1E+10	1	-1E+10	1
4901784	182	C	06/28/2020	10:43	-132.174	42.914	0	5.00	0	15.7480	0	34.9880	8	25.797	0	4.960	0	238.6	4	97.7	4	-1E+10	1	-1E+10	1	-1E+10	1	-1E+10	1	-1E+10	1	-1E+10	1
4901784	182	C	06/28/2020	10:43	-132.174	42.914	0	6.60	0	15.7460	0	34.9890	8	25.798	0	6.548	0	238.6	4	97.7	4	-1E+10	1	-1E+10	1	-1E+10	1	-1E+10	1	-1E+10	1	-1E+10	1
4901784	182	C	06/28/2020	10:43	-132.174	42.914	0	8.30	0	15.7520	0	34.9910	8	25.798	0	8.234	0	238.6	4	97.7	4	-1E+10	1	-1E+10	1	-1E+10	1	-1E+10	1	-1E+10	1	-1E+10	1
4901784	182	C	06/28/2020	10:43	-132.174	42.914	0	10.10	0	15.7540	0	34.9910	8	25.798	0	10.020	0	238.4	4	97.6	4	-1E+10	1	-1E+10	1	-1E+10	1	-1E+10	1	-1E+10	1	-1E+10	1
4901784	182	C	06/28/2020	10:43	-132.174	42.914	0	11.90	0	15.7510	0	34.9920	8	25.799	0	11.805	0	238.4	4	97.6	4	-1E+10	1	-1E+10	1	-1E+10	1	-1E+10	1	-1E+10	1	-1E+10	1
4901784	182	C	06/28/2020	10:43	-132.174	42.914	0	13.90	0	15.7530	0	34.9920	8	25.799	0	13.789	0	238.2	4	97.6	4	-1E+10	1	-1E+10	1	-1E+10	1	-1E+10	1	-1E+10	1	-1E+10	1
4901784	182	C	06/28/2020	10:43	-132.174	42.914	0	16.20	0	15.7520	0	34.9930	8	25.800	0	16.071	0	238.2	4	97.6	4	-1E+10	1	-1E+10	1	-1E+10	1	-1E+10	1	-1E+10	1	-1E+10	1
4901784	182	C	06/28/2020	10:43	-132.174	42.914	0	16.80	0	15.7530	0	34.9930	8	25.800	0	16.666	0	238.0	4	97.4	4	-1E+10	1	-1E+10	1	-1E+10	1	-1E+10	1	-1E+10	1	-1E+10	1
4901784	182	C	06/28/2020	10:43	-132.174	42.914	0	18.50	0	15.7560	0	34.9930	8	25.799	0	18.353	0	238.1	4	97.5	4	-1E+10	1	-1E+10	1	-1E+10	1	-1E+10	1	-1E+10	1	-1E+10	1
4901784	182	C	06/28/2020	10:43	-132.174	42.914	0	20.20	0	15.7560	0	34.9920	8	25.799	0	20.039	0	238.1	4	97.5	4	-1E+10	1	-1E+10	1	-1E+10	1	-1E+10	1	-1E+10	1	-1E+10	1
4901784	182	C	06/28/2020	10:43	-132.174	42.914	0	21.80	0	15.7490	0	34.9900	8	25.799	0	21.626	0	238.0	4	97.5	4	-1E+10	1	-1E+10	1	-1E+10	1	-1E+10	1	-1E+10	1	-1E+10	1
4901784	182	C	06/28/2020	10:43	-132.174	42.914	0	23.50	0	15.7550	0	34.9880	8	25.796	0	23.312	0	238.1	4	97.5	4	-1E+10	1	-1E+10	1	-1E+10	1	-1E+10	1	-1E+10	1	-1E+10	1
4901784	182	C	06/28/2020	10:43	-132.174	42.914	0	25.10	0	15.7530	0	34.9830	8	25.793	0	24.900	0	238.4	4	97.6	4	-1E+10	1	-1E+10	1	-1E+10	1	-1E+10	1	-1E+10	1	-1E+10	1
4901784	182	C	06/28/2020	10:43	-132.174	42.914	0	26.60	0	15.7020	0	34.9810	8	25.803	0	26.387	0	238.6	4	97.6	4	-1E+10	1	-1E+10	1	-1E+10	1	-1E+10	1	-1E+10	1	-1E+10	1
4901784	182	C	06/28/2020	10:43	-132.174	42.914	0	28.30	0	15.5930	0	34.9780	8	25.825	0	28.074	0	239.5	4	97.8	4	-1E+10	1	-1E+10	1	-1E+10	1	-1E+10	1	-1E+10	1	-1E+10	1
4901784	182	C	06/28/2020	10:43	-132.174	42.914	0	30.10	0	15.3900	0	34.9580	8	25.855	0	29.859	0	240.2	4	97.7	4	-1E+10	1	-1E+10	1	-1E+10	1	-1E+10	1	-1E+10	1	-1E+10	1
4901784	182	C	06/28/2020	10:43	-132.174	42.914	0	31.90	0	14.9620	0	34.9840	8	25.970	0	31.645	0	242.9	4	97.9	4	-1E+10	1	-1E+10	1	-1E+10	1	-1E+10	1	-1E+10	1	-1E+10	1
4901784	182	C	06/28/2020	10:43	-132.174	42.914	0	33.60	0	14.9200	0	34.9860	8	25.981	0	33.331	0	243.2	4	98.0	4	-1E+10	1	-1E+10	1	-1E+10	1	-1E+10	1	-1E+10	1	-1E+10	1
4901784	182	C	06/28/2020	10:43	-132.174	42.914	0	35.20	0	14.8970	0	34.9800	8	25.981	0	34.918	0	243.4	4	98.0	4	-1E+10	1	-1E+10	1	-1E+10	1	-1E+10	1	-1E+10	1	-1E+10	1
4901784	182	C	06/28/2020	10:43	-132.174	42.914	0	37.30	0	14.8640	0	34.9710	8	25.981	0	37.001	0	244.2	4	98.3	4	-1E+10	1	-1E+10	1	-1E+10	1	-1E+10	1	-1E+10	1	-1E+10	1
4901784	182	C	06/28/2020	10:43	-132.174	42.914	0	38.80	0	14.7790	0	34.9810	8	26.008	0	38.489	0	245.4	4	98.6	4	-1E+10	1	-1E+10	1	-1E+10	1	-1E+10	1	-1E+10	1	-1E+10	1
4901784	182	C	06/28/2020	10:43	-132.174	42.914	0	40.10	0	14.7510	0	34.9750	8	26.009	0	39.778	0	246.8	4	99.1	4	-1E+10	1	-1E+10	1	-1E+10	1	-1E+10	1	-1E+10	1	-1E+10	1
4901784	182	C	06/28/2020	10:43	-132.174	42.914	0	41.30	0	14.6760	0	34.9760	8	26.026	0	40.969	0	248.4	4	99.6	4	-1E+10	1	-1E+10	1	-1E+10	1	-1E+10	1	-1E+10	1	-1E+10	1
4901784	182	C	06/28/2020	10:43	-132.174	42.914	0	42.50	0	14.6130	0	34.9670	8	26.033	0	42.159	0	250.9	4	100.5	4	-1E+10	1	-1E+10	1	-1E+10	1	-1E+10	1	-1E+10	1	-1E+10	1
4901784	182	C	06/28/2020	10:43	-132.174	42.914	0	43.80	0	14.3090	0	34.9640	8	26.096	0	43.448	0	254.5	4	101.3	4	-1E+10	1	-1E+10	1	-1E+10	1	-1E+10	1	-1E+10	1	-1E+10	1
4901784	182	C	06/28/2020	10:43	-132.174	42.914	0	45.20	0	13.5900	0	35.0140	8	26.285	0	44.837	0	259.3	4	101.8	4	-1E+10	1	-1E+10	1	-1E+10	1	-1E+10	1	-1E+10	1	-1E+10	1
4901784	182	C	06/28/2020	10:43	-132.174	42.914	0	46.70	0	12.8300	0	35.0760	8	26.488	0	46.325	0	264.4	4	102.2	4	-1E+10	1	-1E+10	1	-1E+10	1	-1E+10	1	-1E+10	1	-1E+10	1
4901784	182	C	06/28/2020	10:43	-132.174	42.914	0	48.30	0	12.6330	0	35.0890	8	26.537	0	47.912	0	266.2	4	102.5	4	-1E+10	1	-1E+10	1	-1E+10	1	-1E+10	1	-1E+10	1	-1E+10	1
4901784	182	C	06/28/2020	10:43	-132.174	42.914	0	49.90	0	12.5260	0	35.0860	8	26.556	0	49.498	0	266.5	4	102.4	4	-1E+10	1	-1E+10	1	-1E+10	1	-1E+10	1	-1E+10	1	-1E+10	1
4901784	182	C	06/28/2020	10:43	-132.174	42.914	0	51.60	0	12.0780	0	35.1120	8	26.663	0	51.185	0	268.6	4	102.3	4	-1E+10	1	-1E+10	1	-1E+10	1	-1E+10	1	-1E+10	1	-1E+10	1
4901784	182	C	06/28/2020	10:43	-132.174	42.914	0	53.30	0	12.0210	0	35.1090	8	26.672	0	52.871	0	267.9	4	101.9	4	-1E+10	1	-1E+10	1	-1E+10	1	-1E+10	1	-1E+10	1	-1E+10	1
4901784	182	C	06/28/2020	10:43	-132.174	42.914	0	54.90	0	11.7880	0	35.1110	8	26.718	0	54.458	0	267.6	4	101.3	4	-1E+10	1	-1E+10	1	-1E+10	1	-1E+10	1	-1E+10	1	-1E+10	1
4901784	182	C	06/28/2020	10:43	-132.174	42.914	0	56.70	0	11.6340	0	35.1140	8	26.749	0	56.243	0	266.6	4	100.6	4	-1E+10	1	-1E+10	1	-1E+10	1	-1E+10	1	-1E+10	1	-1E+10	1
4901784	182	C	06/28/2020	10:43	-132.174	42.914	0	58.40	0	11.3740	0	35.1440	8	26.821	0	57.929	0	265.6	4	99.7	4	-1E+10	1	-1E+10	1	-1E+10	1	-1E+10	1	-1E+10	1	-1E+10	1
4901784	182	C	06/28/2020	10:43	-132.174	42.914	0	60.10	0	11.1530	0	35.1420	8	26.860	0	59.615	0	264.1	4	98.7	4	-1E+10	1	-1E+10	1	-1E+10	1	-1E+10	1	-1E+10	1	-1E+10	1
4901784	182	C	06/28/2020	10:43	-132.174	42.914	0	61.90	0	11.0140	0	35.1500	8	26.892	0	61.400	0	262.1	4	97.6	4	-1E+10	1	-1E+10	1	-1E+10	1	-1E+10	1	-1E+10	1	-1E+10	1
4901784	182	C	06/28/2020	10:43	-132.174	42.914	0	63.60	0	10.8480	0	35.1500	8	26.922	0	63.086	0	260.8	4	96.8	4	-1E+10	1	-1E+10	1	-1E+10	1	-1E+10	1	-1E+10	1	-1E+10	1
4901784	182	C	06/28/2020	10:43	-132.174	42.914	0	65.30	0	10.8040	0	35.1630	8	26.940	0	64.772	0	259.0	4	96.1	4	-1E+10	1	-1E+10	1	-1E+10	1	-1E+10	1	-1E+10	1	-1E+10	1
4901784	182	C	06/28/2020	10:43	-132.174	42.914	0	67.00	0	10.7930	0	35.1920	8	26.964	0	66.458	0	256.4	4	95.1	4	-1E+10	1	-1E+10	1	-1E+10	1	-1E+10	1	-1E+10	1	-1E+10	1
4901784	182	C	06/28/2020	10:43	-132.174	42.914	0	68.70	0	10.7890	0	35.1960	8	26.968	0	68.144	0	254.3	4	94.3	4	-1E+10	1	-1E+10	1	-1E+10	1	-1E+10	1	-1E+10	1	-1E+10	1
4901784	182	C	06/28/2020	10:43	-132.174	42.914	0	70.50	0	10.7880	0	35.2010	8	26.972	0	69.929	0	251.2	4	93.1	4	-1E+10	1	-1E+10	1	-1E+10	1	-1E+10	1	-1E+10	1	-1E+10	1
4901784	182	C	06/28/2020	10:43	-132.174	42.914	0	72.30	0	10.7450	0	35.2080	8	26.986	0	71.714	0	247.1	4	91.6	4	-1E+10	1	-1E+10	1	-1E+10	1	-1E+10	1	-1E+10	1	-1E+10	1
4901784	182	C	06/28/2020	10:43	-132.174	42.914	0	74.10	0	10.6570	0	35.2250	8	27.015	0	73.499	0	243.4	4	90.0	4	-1E+10	1	-1E+10	1	-1E+10	1	-1E+10	1	-1E+10	1	-1E+10	1
4901784	182	C	06/28/2020	10:43	-132.174	42.914	0	75.90	0	10.6040	0	35.2290	8	27.027	0	75.285	0	240.2	4	88.7	4	-1E+10	1	-1E+10	1	-1E+10	1	-1E+10	1	-1E+10	1	-1E+10	1
4901784	182	C	06/28/2020	10:43	-132.174	42.914	0	77.60	0	10.5630	0	35.2440	8	27.046	0	76.970	0	236.9	4	87.5	4	-1E+10	1	-1E+10	1	-1E+10	1	-1E+10	1	-1E+10	1	-1E+10	1
4901784	182	C	06/28/2020	10:43	-132.174	42.914	0	79.30	0	10.5150	0	35.2530	8	27.062	0	78.656	0	233.5	4	86.1	4	-1E+10	1	-1E+10	1	-1E+10	1	-1E+10	1	-1E+10	1	-1E+10	1
4901784	182	C	06/28/2020	10:43	-132.174	42.914	0	81.10	0	10.4390	0	35.2760	8	27.093	0	80.441	0	230.0	4	84.7	4	-1E+10	1	-1E+10	1	-1E+10	1	-1E+10	1	-1E+10	1	-1E+10	1
4901784	182	C	06/28/2020	10:43	-132.174	42.914	0	82.80	0	10.4300	0	35.2930	8	27.108	0	82.127	0	226.8	4	83.5	4	-1E+10	1	-1E+10	1	-1E+10	1	-1E+10	1	-1E+10	1	-1E+10	1
4901784	182	C	06/28/2020	10:43	-132.174	42.914	0	84.50	0	10.3320	0	35.3160	8	27.143	0	83.813	0	223.9	4	82.3	4	-1E+10	1	-1E+10	1	-1E+10	1	-1E+10	1	-1E+10	1	-1E+10	1
4901784	182	C	06/28/2020	10:43	-132.174	42.914	0	86.90	0	10.1900	0	35.3510	8	27.195	0	86.193	0	221.3	4	81.1	4	-1E+10	1	-1E+10	1	-1E+10	1	-1E+10	1	-1E+10	1	-1E+10	1
4901784	182	C	06/28/2020	10:43	-132.174	42.914	0	88.70	0	10.1670	0	35.3660	8	27.211	0	87.978	0	218.4	4	80.0	4	-1E+10	1	-1E+10	1	-1E+10	1	-1E+10	1	-1E+10	1	-1E+10	1
4901784	182	C	06/28/2020	10:43	-132.174	42.914	0	90.10	0	10.1230	0	35.4040	8	27.249	0	89.366	0	215.5	4	78.9	4	-1E+10	1	-1E+10	1	-1E+10	1	-1E+10	1	-1E+10	1	-1E+10	1
4901784	182	C	06/28/2020	10:43	-132.174	42.914	0	91.70	0	10.1050	0	35.4020	8	27.250	0	90.953	0	212.8	4	77.9	4	-1E+10	1	-1E+10	1	-1E+10	1	-1E+10	1	-1E+10	1	-1E+10	1
4901784	182	C	06/28/2020	10:43	-132.174	42.914	0	93.20	0	9.9890	0	35.4450	8	27.304	0	92.440	0	209.2	4	76.4	4	-1E+10	1	-1E+10	1	-1E+10	1	-1E+10	1	-1E+10	1	-1E+10	1
4901784	182	C	06/28/2020	10:43	-132.174	42.914	0	94.70	0	9.9110	0	35.4770	8	27.342	0	93.928	0	206.4	4	75.3	4	-1E+10	1	-1E+10	1	-1E+10	1	-1E+10	1	-1E+10	1	-1E+10	1
4901784	182	C	06/28/2020	10:43	-132.174	42.914	0	96.30	0	9.8220	0	35.5080	8	27.382	0	95.514	0	203.6	4	74.1	4	-1E+10	1	-1E+10	1	-1E+10	1	-1E+10	1	-1E+10	1	-1E+10	1
4901784	182	C	06/28/2020	10:43	-132.174	42.914	0	97.90	0	9.6940	0	35.5120	8	27.407	0	97.101	0	201.4	4	73.1	4	-1E+10	1	-1E+10	1	-1E+10	1	-1E+10	1	-1E+10	1	-1E+10	1
4901784	182	C	06/28/2020	10:43	-132.174	42.914	0	99.50	0	9.4820	0	35.5460	8	27.469	0	98.688	0	199.5	4	72.1	4	-1E+10	1	-1E+10	1	-1E+10	1	-1E+10	1	-1E+10	1	-1E+10	1
4901784	182	C	06/28/2020	10:43	-132.174	42.914	0	102.80	0	9.4370	0	35.6060	8	27.523	0	101.960	0	195.0	4	70.5	4	-1E+10	1	-1E+10	1	-1E+10	1	-1E+10	1	-1E+10	1	-1E+10	1
4901784	182	C	06/28/2020	10:43	-132.174	42.914	0	105.30	0	9.4600	0	35.6350	8	27.542	0	104.439	0	191.2	4	69.1	4	-1E+10	1	-1E+10	1	-1E+10	1	-1E+10	1	-1E+10	1	-1E+10	1
4901784	182	C	06/28/2020	10:43	-132.174	42.914	0	107.90	0	9.4050	0	35.6780	8	27.585	0	107.017	0	187.0	4	67.5	4	-1E+10	1	-1E+10	1	-1E+10	1	-1E+10	1	-1E+10	1	-1E+10	1
4901784	182	C	06/28/2020	10:43	-132.174	42.914	0	109.60	0	9.3590	0	35.7170	8	27.623	0	108.702	0	184.3	4	66.5	4	-1E+10	1	-1E+10	1	-1E+10	1	-1E+10	1	-1E+10	1	-1E+10	1
4901784	182	C	06/28/2020	10:43	-132.174	42.914	0	112.20	0	9.2420	0	35.7760	8	27.689	0	111.280	0	181.5	4	65.4	4	-1E+10	1	-1E+10	1	-1E+10	1	-1E+10	1	-1E+10	1	-1E+10	1
4901784	182	C	06/28/2020	10:43	-132.174	42.914	0	114.80	0	9.1890	0	35.7990	8	27.716	0	113.858	0	178.8	4	64.3	4	-1E+10	1	-1E+10	1	-1E+10	1	-1E+10	1	-1E+10	1	-1E+10	1
4901784	182	C	06/28/2020	10:43	-132.174	42.914	0	117.10	0	9.0870	0	35.8340	8	27.760	0	116.139	0	176.4	4	63.4	4	-1E+10	1	-1E+10	1	-1E+10	1	-1E+10	1	-1E+10	1	-1E+10	1
4901784	182	C	06/28/2020	10:43	-132.174	42.914	0	119.50	0	9.0430	0	35.8700	8	27.795	0	118.518	0	173.1	4	62.1	4	-1E+10	1	-1E+10	1	-1E+10	1	-1E+10	1	-1E+10	1	-1E+10	1
4901784	182	C	06/28/2020	10:43	-132.174	42.914	0	122.40	0	8.9850	0	35.9190	8	27.843	0	121.394	0	169.1	4	60.6	4	-1E+10	1	-1E+10	1	-1E+10	1	-1E+10	1	-1E+10	1	-1E+10	1
4901784	182	C	06/28/2020	10:43	-132.174	42.914	0	125.30	0	8.8660	0	35.9850	8	27.914	0	124.269	0	166.5	4	59.6	4	-1E+10	1	-1E+10	1	-1E+10	1	-1E+10	1	-1E+10	1	-1E+10	1
4901784	182	C	06/28/2020	10:43	-132.174	42.914	0	127.60	0	8.7640	0	36.0080	8	27.949	0	126.549	0	165.2	4	59.0	4	-1E+10	1	-1E+10	1	-1E+10	1	-1E+10	1	-1E+10	1	-1E+10	1
4901784	182	C	06/28/2020	10:43	-132.174	42.914	0	129.80	0	8.7000	0	36.0250	8	27.972	0	128.731	0	163.2	4	58.2	4	-1E+10	1	-1E+10	1	-1E+10	1	-1E+10	1	-1E+10	1	-1E+10	1
4901784	182	C	06/28/2020	10:43	-132.174	42.914	0	132.90	0	8.5900	0	36.0690	8	28.024	0	131.804	0	159.6	4	56.8	4	-1E+10	1	-1E+10	1	-1E+10	1	-1E+10	1	-1E+10	1	-1E+10	1
4901784	182	C	06/28/2020	10:43	-132.174	42.914	0	135.40	0	8.5510	0	36.0970	8	28.053	0	134.283	0	156.1	4	55.5	4	-1E+10	1	-1E+10	1	-1E+10	1	-1E+10	1	-1E+10	1	-1E+10	1
4901784	182	C	06/28/2020	10:43	-132.174	42.914	0	137.10	0	8.5510	0	36.1360	8	28.083	0	135.968	0	153.0	4	54.4	4	-1E+10	1	-1E+10	1	-1E+10	1	-1E+10	1	-1E+10	1	-1E+10	1
4901784	182	C	06/28/2020	10:43	-132.174	42.914	0	139.70	0	8.5430	0	36.1780	8	28.118	0	138.546	0	149.7	4	53.3	4	-1E+10	1	-1E+10	1	-1E+10	1	-1E+10	1	-1E+10	1	-1E+10	1
4901784	182	C	06/28/2020	10:43	-132.174	42.914	0	142.40	0	8.5240	0	36.2050	8	28.142	0	141.223	0	146.7	4	52.2	4	-1E+10	1	-1E+10	1	-1E+10	1	-1E+10	1	-1E+10	1	-1E+10	1
4901784	182	C	06/28/2020	10:43	-132.174	42.914	0	144.90	0	8.5240	0	36.2350	8	28.165	0	143.701	0	142.8	4	50.8	4	-1E+10	1	-1E+10	1	-1E+10	1	-1E+10	1	-1E+10	1	-1E+10	1
4901784	182	C	06/28/2020	10:43	-132.174	42.914	0	147.50	0	8.5340	0	36.2680	8	28.190	0	146.279	0	139.3	4	49.6	4	-1E+10	1	-1E+10	1	-1E+10	1	-1E+10	1	-1E+10	1	-1E+10	1
4901784	182	C	06/28/2020	10:43	-132.174	42.914	0	150.20	0	8.5510	0	36.3000	8	28.212	0	148.955	0	136.1	4	48.5	4	-1E+10	1	-1E+10	1	-1E+10	1	-1E+10	1	-1E+10	1	-1E+10	1
4901784	182	C	06/28/2020	10:43	-132.174	42.914	0	152.90	0	8.5410	0	36.3300	8	28.237	0	151.632	0	134.3	4	47.8	4	-1E+10	1	-1E+10	1	-1E+10	1	-1E+10	1	-1E+10	1	-1E+10	1
4901784	182	C	06/28/2020	10:43	-132.174	42.914	0	154.80	0	8.5350	0	36.3350	8	28.242	0	153.515	0	133.4	4	47.5	4	-1E+10	1	-1E+10	1	-1E+10	1	-1E+10	1	-1E+10	1	-1E+10	1
4901784	182	C	06/28/2020	10:43	-132.174	42.914	0	157.50	0	8.4970	0	36.3570	8	28.266	0	156.192	0	132.0	4	47.0	4	-1E+10	1	-1E+10	1	-1E+10	1	-1E+10	1	-1E+10	1	-1E+10	1
4901784	182	C	06/28/2020	10:43	-132.174	42.914	0	160.20	0	8.4450	0	36.3830	8	28.294	0	158.869	0	130.6	4	46.4	4	-1E+10	1	-1E+10	1	-1E+10	1	-1E+10	1	-1E+10	1	-1E+10	1
4901784	182	C	06/28/2020	10:43	-132.174	42.914	0	162.00	0	8.4370	0	36.3910	8	28.302	0	160.653	0	129.4	4	46.0	4	-1E+10	1	-1E+10	1	-1E+10	1	-1E+10	1	-1E+10	1	-1E+10	1
4901784	182	C	06/28/2020	10:43	-132.174	42.914	0	164.70	0	8.4260	0	36.4070	8	28.316	0	163.329	0	127.9	4	45.5	4	-1E+10	1	-1E+10	1	-1E+10	1	-1E+10	1	-1E+10	1	-1E+10	1
4901784	182	C	06/28/2020	10:43	-132.174	42.914	0	167.50	0	8.3970	0	36.4220	8	28.333	0	166.105	0	126.6	4	45.0	4	-1E+10	1	-1E+10	1	-1E+10	1	-1E+10	1	-1E+10	1	-1E+10	1
4901784	182	C	06/28/2020	10:43	-132.174	42.914	0	170.10	0	8.3520	0	36.4510	8	28.363	0	168.682	0	125.9	4	44.7	4	-1E+10	1	-1E+10	1	-1E+10	1	-1E+10	1	-1E+10	1	-1E+10	1
4901784	182	C	06/28/2020	10:43	-132.174	42.914	0	172.90	0	8.3190	0	36.4660	8	28.380	0	171.458	0	126.7	4	44.9	4	-1E+10	1	-1E+10	1	-1E+10	1	-1E+10	1	-1E+10	1	-1E+10	1
4901784	182	C	06/28/2020	10:43	-132.174	42.914	0	174.70	0	8.3170	0	36.4670	8	28.381	0	173.242	0	127.5	4	45.2	4	-1E+10	1	-1E+10	1	-1E+10	1	-1E+10	1	-1E+10	1	-1E+10	1
4901784	182	C	06/28/2020	10:43	-132.174	42.914	0	177.60	0	8.3030	0	36.4650	8	28.381	0	176.116	0	129.5	4	45.9	4	-1E+10	1	-1E+10	1	-1E+10	1	-1E+10	1	-1E+10	1	-1E+10	1
4901784	182	C	06/28/2020	10:43	-132.174	42.914	0	180.30	0	8.2420	0	36.4730	8	28.397	0	178.793	0	131.7	4	46.6	4	-1E+10	1	-1E+10	1	-1E+10	1	-1E+10	1	-1E+10	1	-1E+10	1
4901784	182	C	06/28/2020	10:43	-132.174	42.914	0	182.30	0	8.1790	0	36.4790	8	28.412	0	180.775	0	132.2	4	46.8	4	-1E+10	1	-1E+10	1	-1E+10	1	-1E+10	1	-1E+10	1	-1E+10	1
4901784	182	C	06/28/2020	10:43	-132.174	42.914	0	185.10	0	8.1410	0	36.4880	8	28.425	0	183.551	0	130.5	4	46.1	4	-1E+10	1	-1E+10	1	-1E+10	1	-1E+10	1	-1E+10	1	-1E+10	1
4901784	182	C	06/28/2020	10:43	-132.174	42.914	0	187.90	0	8.1150	0	36.4940	8	28.434	0	186.326	0	127.9	4	45.2	4	-1E+10	1	-1E+10	1	-1E+10	1	-1E+10	1	-1E+10	1	-1E+10	1
4901784	182	C	06/28/2020	10:43	-132.174	42.914	0	190.50	0	8.1200	0	36.5230	8	28.456	0	188.903	0	125.0	4	44.2	4	-1E+10	1	-1E+10	1	-1E+10	1	-1E+10	1	-1E+10	1	-1E+10	1
4901784	182	C	06/28/2020	10:43	-132.174	42.914	0	192.50	0	8.0970	0	36.5340	8	28.468	0	190.885	0	123.0	4	43.4	4	-1E+10	1	-1E+10	1	-1E+10	1	-1E+10	1	-1E+10	1	-1E+10	1
4901784	182	C	06/28/2020	10:43	-132.174	42.914	0	195.00	0	8.0690	0	36.5410	8	28.478	0	193.363	0	121.3	4	42.8	4	-1E+10	1	-1E+10	1	-1E+10	1	-1E+10	1	-1E+10	1	-1E+10	1
4901784	182	C	06/28/2020	10:43	-132.174	42.914	0	197.40	0	8.0390	0	36.5470	8	28.487	0	195.742	0	123.8	4	43.7	4	-1E+10	1	-1E+10	1	-1E+10	1	-1E+10	1	-1E+10	1	-1E+10	1
4901784	182	C	06/28/2020	10:43	-132.174	42.914	0	199.80	0	7.9930	0	36.5580	8	28.503	0	198.120	0	126.6	4	44.6	4	-1E+10	1	-1E+10	1	-1E+10	1	-1E+10	1	-1E+10	1	-1E+10	1
4901784	182	C	06/28/2020	10:43	-132.174	42.914	0	202.30	0	7.9640	0	36.5630	8	28.511	0	200.598	0	127.9	4	45.1	4	-1E+10	1	-1E+10	1	-1E+10	1	-1E+10	1	-1E+10	1	-1E+10	1
4901784	182	C	06/28/2020	10:43	-132.174	42.914	0	204.80	0	7.9340	0	36.5680	8	28.520	0	203.076	0	128.7	4	45.3	4	-1E+10	1	-1E+10	1	-1E+10	1	-1E+10	1	-1E+10	1	-1E+10	1
4901784	182	C	06/28/2020	10:43	-132.174	42.914	0	207.40	0	7.9220	0	36.5690	8	28.522	0	205.653	0	129.1	4	45.4	4	-1E+10	1	-1E+10	1	-1E+10	1	-1E+10	1	-1E+10	1	-1E+10	1
4901784	182	C	06/28/2020	10:43	-132.174	42.914	0	210.00	0	7.8810	0	36.5750	8	28.533	0	208.230	0	129.8	4	45.6	4	-1E+10	1	-1E+10	1	-1E+10	1	-1E+10	1	-1E+10	1	-1E+10	1
4901784	182	C	06/28/2020	10:43	-132.174	42.914	0	212.60	0	7.8510	0	36.5790	8	28.541	0	210.806	0	130.1	4	45.7	4	-1E+10	1	-1E+10	1	-1E+10	1	-1E+10	1	-1E+10	1	-1E+10	1
4901784	182	C	06/28/2020	10:43	-132.174	42.914	0	215.20	0	7.8160	0	36.5830	8	28.550	0	213.383	0	130.0	4	45.7	4	-1E+10	1	-1E+10	1	-1E+10	1	-1E+10	1	-1E+10	1	-1E+10	1
4901784	182	C	06/28/2020	10:43	-132.174	42.914	0	217.70	0	7.7920	0	36.5840	8	28.554	0	215.861	0	129.2	4	45.4	4	-1E+10	1	-1E+10	1	-1E+10	1	-1E+10	1	-1E+10	1	-1E+10	1
4901784	182	C	06/28/2020	10:43	-132.174	42.914	0	220.30	0	7.7590	0	36.5860	8	28.561	0	218.437	0	127.6	4	44.8	4	-1E+10	1	-1E+10	1	-1E+10	1	-1E+10	1	-1E+10	1	-1E+10	1
4901784	182	C	06/28/2020	10:43	-132.174	42.914	0	222.90	0	7.7300	0	36.5880	8	28.567	0	221.014	0	124.9	4	43.8	4	-1E+10	1	-1E+10	1	-1E+10	1	-1E+10	1	-1E+10	1	-1E+10	1
4901784	182	C	06/28/2020	10:43	-132.174	42.914	0	224.70	0	7.7120	0	36.5890	8	28.570	0	222.798	0	124.0	4	43.5	4	-1E+10	1	-1E+10	1	-1E+10	1	-1E+10	1	-1E+10	1	-1E+10	1
4901784	182	C	06/28/2020	10:43	-132.174	42.914	0	227.40	0	7.6380	0	36.5950	8	28.586	0	225.473	0	122.9	4	43.0	4	-1E+10	1	-1E+10	1	-1E+10	1	-1E+10	1	-1E+10	1	-1E+10	1
4901784	182	C	06/28/2020	10:43	-132.174	42.914	0	230.00	0	7.6060	0	36.5970	8	28.593	0	228.050	0	121.5	4	42.5	4	-1E+10	1	-1E+10	1	-1E+10	1	-1E+10	1	-1E+10	1	-1E+10	1
4901784	182	C	06/28/2020	10:43	-132.174	42.914	0	232.70	0	7.5620	0	36.5990	8	28.601	0	230.725	0	120.7	4	42.2	4	-1E+10	1	-1E+10	1	-1E+10	1	-1E+10	1	-1E+10	1	-1E+10	1
4901784	182	C	06/28/2020	10:43	-132.174	42.914	0	235.30	0	7.4880	0	36.6000	8	28.613	0	233.302	0	120.8	4	42.1	4	-1E+10	1	-1E+10	1	-1E+10	1	-1E+10	1	-1E+10	1	-1E+10	1
4901784	182	C	06/28/2020	10:43	-132.174	42.914	0	237.20	0	7.4650	0	36.5980	8	28.614	0	235.185	0	120.4	4	42.0	4	-1E+10	1	-1E+10	1	-1E+10	1	-1E+10	1	-1E+10	1	-1E+10	1
4901784	182	C	06/28/2020	10:43	-132.174	42.914	0	239.90	0	7.4510	0	36.5980	8	28.617	0	237.860	0	119.3	4	41.6	4	-1E+10	1	-1E+10	1	-1E+10	1	-1E+10	1	-1E+10	1	-1E+10	1
4901784	182	C	06/28/2020	10:43	-132.174	42.914	0	242.70	0	7.3980	0	36.5990	8	28.625	0	240.635	0	118.0	4	41.1	4	-1E+10	1	-1E+10	1	-1E+10	1	-1E+10	1	-1E+10	1	-1E+10	1
4901784	182	C	06/28/2020	10:43	-132.174	42.914	0	244.40	0	7.3920	0	36.5950	8	28.623	0	242.319	0	116.9	4	40.7	4	-1E+10	1	-1E+10	1	-1E+10	1	-1E+10	1	-1E+10	1	-1E+10	1
4901784	182	C	06/28/2020	10:43	-132.174	42.914	0	247.20	0	7.2910	0	36.5980	8	28.640	0	245.094	0	115.4	4	40.1	4	-1E+10	1	-1E+10	1	-1E+10	1	-1E+10	1	-1E+10	1	-1E+10	1
4901784	182	C	06/28/2020	10:43	-132.174	42.914	0	249.90	0	7.2160	0	36.6000	8	28.653	0	247.769	0	114.0	4	39.5	4	-1E+10	1	-1E+10	1	-1E+10	1	-1E+10	1	-1E+10	1	-1E+10	1
4901784	182	C	06/28/2020	10:43	-132.174	42.914	0	252.60	0	7.1800	0	36.6020	8	28.659	0	250.445	0	113.2	4	39.2	4	-1E+10	1	-1E+10	1	-1E+10	1	-1E+10	1	-1E+10	1	-1E+10	1
4901784	182	C	06/28/2020	10:43	-132.174	42.914	0	255.30	0	7.1530	0	36.6030	8	28.664	0	253.120	0	112.2	4	38.8	4	-1E+10	1	-1E+10	1	-1E+10	1	-1E+10	1	-1E+10	1	-1E+10	1
4901784	182	C	06/28/2020	10:43	-132.174	42.914	0	257.20	0	7.1320	0	36.6030	8	28.667	0	255.003	0	111.7	4	38.6	4	-1E+10	1	-1E+10	1	-1E+10	1	-1E+10	1	-1E+10	1	-1E+10	1
4901784	182	C	06/28/2020	10:43	-132.174	42.914	0	259.90	0	7.1070	0	36.6050	8	28.672	0	257.678	0	111.0	4	38.4	4	-1E+10	1	-1E+10	1	-1E+10	1	-1E+10	1	-1E+10	1	-1E+10	1
4901784	182	C	06/28/2020	10:43	-132.174	42.914	0	262.80	0	7.0880	0	36.6050	8	28.675	0	260.551	0	109.9	4	38.0	4	-1E+10	1	-1E+10	1	-1E+10	1	-1E+10	1	-1E+10	1	-1E+10	1
4901784	182	C	06/28/2020	10:43	-132.174	42.914	0	264.60	0	7.0710	0	36.6050	8	28.678	0	262.335	0	109.8	4	37.9	4	-1E+10	1	-1E+10	1	-1E+10	1	-1E+10	1	-1E+10	1	-1E+10	1
4901784	182	C	06/28/2020	10:43	-132.174	42.914	0	267.40	0	7.0440	0	36.6070	8	28.683	0	265.109	0	109.4	4	37.8	4	-1E+10	1	-1E+10	1	-1E+10	1	-1E+10	1	-1E+10	1	-1E+10	1
4901784	182	C	06/28/2020	10:43	-132.174	42.914	0	270.20	0	7.0070	0	36.6080	8	28.689	0	267.883	0	107.8	4	37.2	4	-1E+10	1	-1E+10	1	-1E+10	1	-1E+10	1	-1E+10	1	-1E+10	1
4901784	182	C	06/28/2020	10:43	-132.174	42.914	0	272.00	0	6.9880	0	36.6060	8	28.690	0	269.666	0	106.5	4	36.7	4	-1E+10	1	-1E+10	1	-1E+10	1	-1E+10	1	-1E+10	1	-1E+10	1
4901784	182	C	06/28/2020	10:43	-132.174	42.914	0	274.80	0	6.9290	0	36.6060	8	28.699	0	272.441	0	104.0	4	35.8	4	-1E+10	1	-1E+10	1	-1E+10	1	-1E+10	1	-1E+10	1	-1E+10	1
4901784	182	C	06/28/2020	10:43	-132.174	42.914	0	277.50	0	6.8750	0	36.6100	8	28.710	0	275.116	0	103.1	4	35.4	4	-1E+10	1	-1E+10	1	-1E+10	1	-1E+10	1	-1E+10	1	-1E+10	1
4901784	182	C	06/28/2020	10:43	-132.174	42.914	0	280.30	0	6.8470	0	36.6090	8	28.713	0	277.890	0	102.3	4	35.2	4	-1E+10	1	-1E+10	1	-1E+10	1	-1E+10	1	-1E+10	1	-1E+10	1
4901784	182	C	06/28/2020	10:43	-132.174	42.914	0	283.00	0	6.8160	0	36.6090	8	28.717	0	280.565	0	101.6	4	34.9	4	-1E+10	1	-1E+10	1	-1E+10	1	-1E+10	1	-1E+10	1	-1E+10	1
4901784	182	C	06/28/2020	10:43	-132.174	42.914	0	284.90	0	6.7750	0	36.6110	8	28.725	0	282.447	0	101.1	4	34.7	4	-1E+10	1	-1E+10	1	-1E+10	1	-1E+10	1	-1E+10	1	-1E+10	1
4901784	182	C	06/28/2020	10:43	-132.174	42.914	0	287.70	0	6.7320	0	36.6100	8	28.730	0	285.221	0	100.3	4	34.4	4	-1E+10	1	-1E+10	1	-1E+10	1	-1E+10	1	-1E+10	1	-1E+10	1
4901784	182	C	06/28/2020	10:43	-132.174	42.914	0	290.60	0	6.6870	0	36.6090	8	28.736	0	288.094	0	99.1	4	33.9	4	-1E+10	1	-1E+10	1	-1E+10	1	-1E+10	1	-1E+10	1	-1E+10	1
4901784	182	C	06/28/2020	10:43	-132.174	42.914	0	292.50	0	6.6260	0	36.6140	8	28.748	0	289.976	0	98.2	4	33.6	4	-1E+10	1	-1E+10	1	-1E+10	1	-1E+10	1	-1E+10	1	-1E+10	1
4901784	182	C	06/28/2020	10:43	-132.174	42.914	0	295.30	0	6.5920	0	36.6140	8	28.753	0	292.750	0	96.8	4	33.1	4	-1E+10	1	-1E+10	1	-1E+10	1	-1E+10	1	-1E+10	1	-1E+10	1
4901784	182	C	06/28/2020	10:43	-132.174	42.914	0	298.20	0	6.5640	0	36.6180	8	28.760	0	295.623	0	95.4	4	32.6	4	-1E+10	1	-1E+10	1	-1E+10	1	-1E+10	1	-1E+10	1	-1E+10	1
4901784	182	C	06/28/2020	10:43	-132.174	42.914	0	300.00	0	6.5360	0	36.6180	8	28.764	0	297.406	0	95.0	4	32.4	4	-1E+10	1	-1E+10	1	-1E+10	1	-1E+10	1	-1E+10	1	-1E+10	1
4901784	182	C	06/28/2020	10:43	-132.174	42.914	0	301.90	0	6.5350	0	36.6180	8	28.764	0	299.288	0	94.2	4	32.2	4	-1E+10	1	-1E+10	1	-1E+10	1	-1E+10	1	-1E+10	1	-1E+10	1
4901784	182	C	06/28/2020	10:43	-132.174	42.914	0	304.70	0	6.4960	0	36.6190	8	28.770	0	302.062	0	93.5	4	31.9	4	-1E+10	1	-1E+10	1	-1E+10	1	-1E+10	1	-1E+10	1	-1E+10	1
4901784	182	C	06/28/2020	10:43	-132.174	42.914	0	307.50	0	6.4730	0	36.6190	8	28.773	0	304.836	0	92.5	4	31.5	4	-1E+10	1	-1E+10	1	-1E+10	1	-1E+10	1	-1E+10	1	-1E+10	1
4901784	182	C	06/28/2020	10:43	-132.174	42.914	0	309.40	0	6.4770	0	36.6200	8	28.773	0	306.718	0	92.2	4	31.4	4	-1E+10	1	-1E+10	1	-1E+10	1	-1E+10	1	-1E+10	1	-1E+10	1
4901784	182	C	06/28/2020	10:43	-132.174	42.914	0	312.30	0	6.3860	0	36.6180	8	28.784	0	309.591	0	92.2	4	31.3	4	-1E+10	1	-1E+10	1	-1E+10	1	-1E+10	1	-1E+10	1	-1E+10	1
4901784	182	C	06/28/2020	10:43	-132.174	42.914	0	315.10	0	6.3550	0	36.6210	8	28.791	0	312.364	0	90.8	4	30.9	4	-1E+10	1	-1E+10	1	-1E+10	1	-1E+10	1	-1E+10	1	-1E+10	1
4901784	182	C	06/28/2020	10:43	-132.174	42.914	0	317.00	0	6.3660	0	36.6240	8	28.792	0	314.246	0	89.8	4	30.5	4	-1E+10	1	-1E+10	1	-1E+10	1	-1E+10	1	-1E+10	1	-1E+10	1
4901784	182	C	06/28/2020	10:43	-132.174	42.914	0	319.80	0	6.3530	0	36.6240	8	28.794	0	317.020	0	89.2	4	30.3	4	-1E+10	1	-1E+10	1	-1E+10	1	-1E+10	1	-1E+10	1	-1E+10	1
4901784	182	C	06/28/2020	10:43	-132.174	42.914	0	322.70	0	6.3330	0	36.6260	8	28.798	0	319.892	0	89.0	4	30.2	4	-1E+10	1	-1E+10	1	-1E+10	1	-1E+10	1	-1E+10	1	-1E+10	1
4901784	182	C	06/28/2020	10:43	-132.174	42.914	0	324.60	0	6.3210	0	36.6270	8	28.800	0	321.774	0	89.4	4	30.4	4	-1E+10	1	-1E+10	1	-1E+10	1	-1E+10	1	-1E+10	1	-1E+10	1
4901784	182	C	06/28/2020	10:43	-132.174	42.914	0	327.40	0	6.2830	0	36.6270	8	28.806	0	324.548	0	91.0	4	30.9	4	-1E+10	1	-1E+10	1	-1E+10	1	-1E+10	1	-1E+10	1	-1E+10	1
4901784	182	C	06/28/2020	10:43	-132.174	42.914	0	330.30	0	6.2420	0	36.6200	8	28.806	0	327.420	0	92.7	4	31.4	4	-1E+10	1	-1E+10	1	-1E+10	1	-1E+10	1	-1E+10	1	-1E+10	1
4901784	182	C	06/28/2020	10:43	-132.174	42.914	0	332.10	0	6.2300	0	36.6130	8	28.802	0	329.203	0	93.5	4	31.7	4	-1E+10	1	-1E+10	1	-1E+10	1	-1E+10	1	-1E+10	1	-1E+10	1
4901784	182	C	06/28/2020	10:43	-132.174	42.914	0	334.90	0	6.1030	0	36.6130	8	28.819	0	331.976	0	92.4	4	31.2	4	-1E+10	1	-1E+10	1	-1E+10	1	-1E+10	1	-1E+10	1	-1E+10	1
4901784	182	C	06/28/2020	10:43	-132.174	42.914	0	337.70	0	6.1240	0	36.6170	8	28.819	0	334.750	0	88.6	4	30.0	4	-1E+10	1	-1E+10	1	-1E+10	1	-1E+10	1	-1E+10	1	-1E+10	1
4901784	182	C	06/28/2020	10:43	-132.174	42.914	0	339.50	0	6.0740	0	36.6170	8	28.826	0	336.532	0	87.5	4	29.6	4	-1E+10	1	-1E+10	1	-1E+10	1	-1E+10	1	-1E+10	1	-1E+10	1
4901784	182	C	06/28/2020	10:43	-132.174	42.914	0	342.30	0	6.0530	0	36.6230	8	28.833	0	339.306	0	85.0	4	28.7	4	-1E+10	1	-1E+10	1	-1E+10	1	-1E+10	1	-1E+10	1	-1E+10	1
4901784	182	C	06/28/2020	10:43	-132.174	42.914	0	345.10	0	6.0510	0	36.6240	8	28.834	0	342.079	0	82.6	4	27.9	4	-1E+10	1	-1E+10	1	-1E+10	1	-1E+10	1	-1E+10	1	-1E+10	1
4901784	182	C	06/28/2020	10:43	-132.174	42.914	0	347.00	0	6.0160	0	36.6280	8	28.842	0	343.961	0	81.2	4	27.4	4	-1E+10	1	-1E+10	1	-1E+10	1	-1E+10	1	-1E+10	1	-1E+10	1
4901784	182	C	06/28/2020	10:43	-132.174	42.914	0	349.80	0	5.9990	0	36.6310	8	28.847	0	346.734	0	79.2	4	26.7	4	-1E+10	1	-1E+10	1	-1E+10	1	-1E+10	1	-1E+10	1	-1E+10	1
4901784	182	C	06/28/2020	10:43	-132.174	42.914	0	352.60	0	5.9450	0	36.6350	8	28.857	0	349.507	0	77.9	4	26.2	4	-1E+10	1	-1E+10	1	-1E+10	1	-1E+10	1	-1E+10	1	-1E+10	1
4901784	182	C	06/28/2020	10:43	-132.174	42.914	0	354.50	0	5.9350	0	36.6400	8	28.862	0	351.389	0	77.1	4	25.9	4	-1E+10	1	-1E+10	1	-1E+10	1	-1E+10	1	-1E+10	1	-1E+10	1
4901784	182	C	06/28/2020	10:43	-132.174	42.914	0	357.30	0	5.9120	0	36.6400	8	28.866	0	354.162	0	76.7	4	25.8	4	-1E+10	1	-1E+10	1	-1E+10	1	-1E+10	1	-1E+10	1	-1E+10	1
4901784	182	C	06/28/2020	10:43	-132.174	42.914	0	360.10	0	5.8750	0	36.6400	8	28.870	0	356.935	0	76.2	4	25.6	4	-1E+10	1	-1E+10	1	-1E+10	1	-1E+10	1	-1E+10	1	-1E+10	1
4901784	182	C	06/28/2020	10:43	-132.174	42.914	0	362.00	0	5.8710	0	36.6410	8	28.872	0	358.816	0	75.6	4	25.4	4	-1E+10	1	-1E+10	1	-1E+10	1	-1E+10	1	-1E+10	1	-1E+10	1
4901784	182	C	06/28/2020	10:43	-132.174	42.914	0	364.90	0	5.8450	0	36.6400	8	28.874	0	361.688	0	74.8	4	25.1	4	-1E+10	1	-1E+10	1	-1E+10	1	-1E+10	1	-1E+10	1	-1E+10	1
4901784	182	C	06/28/2020	10:43	-132.174	42.914	0	367.70	0	5.7790	0	36.6400	8	28.883	0	364.461	0	73.4	4	24.6	4	-1E+10	1	-1E+10	1	-1E+10	1	-1E+10	1	-1E+10	1	-1E+10	1
4901784	182	C	06/28/2020	10:43	-132.174	42.914	0	369.50	0	5.7700	0	36.6420	8	28.886	0	366.244	0	71.5	4	24.0	4	-1E+10	1	-1E+10	1	-1E+10	1	-1E+10	1	-1E+10	1	-1E+10	1
4901784	182	C	06/28/2020	10:43	-132.174	42.914	0	372.30	0	5.7660	0	36.6480	8	28.891	0	369.017	0	69.1	4	23.2	4	-1E+10	1	-1E+10	1	-1E+10	1	-1E+10	1	-1E+10	1	-1E+10	1
4901784	182	C	06/28/2020	10:43	-132.174	42.914	0	375.10	0	5.7660	0	36.6520	8	28.894	0	371.789	0	67.5	4	22.6	4	-1E+10	1	-1E+10	1	-1E+10	1	-1E+10	1	-1E+10	1	-1E+10	1
4901784	182	C	06/28/2020	10:43	-132.174	42.914	0	377.00	0	5.7360	0	36.6540	8	28.900	0	373.671	0	66.6	4	22.3	4	-1E+10	1	-1E+10	1	-1E+10	1	-1E+10	1	-1E+10	1	-1E+10	1
4901784	182	C	06/28/2020	10:43	-132.174	42.914	0	379.80	0	5.6990	0	36.6560	8	28.906	0	376.444	0	65.3	4	21.9	4	-1E+10	1	-1E+10	1	-1E+10	1	-1E+10	1	-1E+10	1	-1E+10	1
4901784	182	C	06/28/2020	10:43	-132.174	42.914	0	382.60	0	5.6490	0	36.6600	8	28.916	0	379.216	0	64.0	4	21.4	4	-1E+10	1	-1E+10	1	-1E+10	1	-1E+10	1	-1E+10	1	-1E+10	1
4901784	182	C	06/28/2020	10:43	-132.174	42.914	0	384.40	0	5.6350	0	36.6640	8	28.921	0	380.999	0	63.2	4	21.1	4	-1E+10	1	-1E+10	1	-1E+10	1	-1E+10	1	-1E+10	1	-1E+10	1
4901784	182	C	06/28/2020	10:43	-132.174	42.914	0	387.30	0	5.6050	0	36.6650	8	28.925	0	383.870	0	62.1	4	20.8	4	-1E+10	1	-1E+10	1	-1E+10	1	-1E+10	1	-1E+10	1	-1E+10	1
4901784	182	C	06/28/2020	10:43	-132.174	42.914	0	390.10	0	5.5710	0	36.6700	8	28.934	0	386.643	0	61.1	4	20.4	4	-1E+10	1	-1E+10	1	-1E+10	1	-1E+10	1	-1E+10	1	-1E+10	1
4901784	182	C	06/28/2020	10:43	-132.174	42.914	0	392.00	0	5.5630	0	36.6700	8	28.935	0	388.524	0	60.5	4	20.2	4	-1E+10	1	-1E+10	1	-1E+10	1	-1E+10	1	-1E+10	1	-1E+10	1
4901784	182	C	06/28/2020	10:43	-132.174	42.914	0	394.80	0	5.5450	0	36.6760	8	28.942	0	391.297	0	59.5	4	19.9	4	-1E+10	1	-1E+10	1	-1E+10	1	-1E+10	1	-1E+10	1	-1E+10	1
4901784	182	C	06/28/2020	10:43	-132.174	42.914	0	397.50	0	5.5340	0	36.6780	8	28.945	0	393.970	0	58.5	4	19.5	4	-1E+10	1	-1E+10	1	-1E+10	1	-1E+10	1	-1E+10	1	-1E+10	1
4901784	182	C	06/28/2020	10:43	-132.174	42.914	0	400.00	0	5.5200	0	36.6830	8	28.950	0	396.446	0	57.8	4	19.3	4	-1E+10	1	-1E+10	1	-1E+10	1	-1E+10	1	-1E+10	1	-1E+10	1
4901784	182	C	06/28/2020	10:43	-132.174	42.914	0	402.70	0	5.5050	0	36.6860	8	28.955	0	399.119	0	57.2	4	19.1	4	-1E+10	1	-1E+10	1	-1E+10	1	-1E+10	1	-1E+10	1	-1E+10	1
4901784	182	C	06/28/2020	10:43	-132.174	42.914	0	405.10	0	5.4990	0	36.6870	8	28.956	0	401.496	0	56.7	4	18.9	4	-1E+10	1	-1E+10	1	-1E+10	1	-1E+10	1	-1E+10	1	-1E+10	1
4901784	182	C	06/28/2020	10:43	-132.174	42.914	0	407.50	0	5.4890	0	36.6880	8	28.958	0	403.872	0	56.2	4	18.7	4	-1E+10	1	-1E+10	1	-1E+10	1	-1E+10	1	-1E+10	1	-1E+10	1
4901784	182	C	06/28/2020	10:43	-132.174	42.914	0	409.90	0	5.4760	0	36.6880	8	28.960	0	406.248	0	55.9	4	18.6	4	-1E+10	1	-1E+10	1	-1E+10	1	-1E+10	1	-1E+10	1	-1E+10	1
4901784	182	C	06/28/2020	10:43	-132.174	42.914	0	412.40	0	5.4280	0	36.6900	8	28.968	0	408.723	0	55.6	4	18.5	4	-1E+10	1	-1E+10	1	-1E+10	1	-1E+10	1	-1E+10	1	-1E+10	1
4901784	182	C	06/28/2020	10:43	-132.174	42.914	0	414.80	0	5.3980	0	36.6890	8	28.971	0	411.100	0	55.0	4	18.3	4	-1E+10	1	-1E+10	1	-1E+10	1	-1E+10	1	-1E+10	1	-1E+10	1
4901784	182	C	06/28/2020	10:43	-132.174	42.914	0	417.20	0	5.3890	0	36.6940	8	28.976	0	413.476	0	54.2	4	18.0	4	-1E+10	1	-1E+10	1	-1E+10	1	-1E+10	1	-1E+10	1	-1E+10	1
4901784	182	C	06/28/2020	10:43	-132.174	42.914	0	419.70	0	5.3990	0	36.6990	8	28.979	0	415.951	0	53.6	4	17.8	4	-1E+10	1	-1E+10	1	-1E+10	1	-1E+10	1	-1E+10	1	-1E+10	1
4901784	182	C	06/28/2020	10:43	-132.174	42.914	0	422.10	0	5.3630	0	36.6980	8	28.982	0	418.327	0	53.7	4	17.9	4	-1E+10	1	-1E+10	1	-1E+10	1	-1E+10	1	-1E+10	1	-1E+10	1
4901784	182	C	06/28/2020	10:43	-132.174	42.914	0	425.40	0	5.3320	0	36.6970	8	28.985	0	421.594	0	53.3	4	17.7	4	-1E+10	1	-1E+10	1	-1E+10	1	-1E+10	1	-1E+10	1	-1E+10	1
4901784	182	C	06/28/2020	10:43	-132.174	42.914	0	427.80	0	5.3040	0	36.6990	8	28.990	0	423.970	0	52.8	4	17.5	4	-1E+10	1	-1E+10	1	-1E+10	1	-1E+10	1	-1E+10	1	-1E+10	1
4901784	182	C	06/28/2020	10:43	-132.174	42.914	0	430.30	0	5.3040	0	36.7010	8	28.992	0	426.445	0	52.0	4	17.3	4	-1E+10	1	-1E+10	1	-1E+10	1	-1E+10	1	-1E+10	1	-1E+10	1
4901784	182	C	06/28/2020	10:43	-132.174	42.914	0	432.80	0	5.2870	0	36.7070	8	28.999	0	428.920	0	51.3	4	17.0	4	-1E+10	1	-1E+10	1	-1E+10	1	-1E+10	1	-1E+10	1	-1E+10	1
4901784	182	C	06/28/2020	10:43	-132.174	42.914	0	435.30	0	5.2800	0	36.7060	8	28.999	0	431.395	0	50.8	4	16.8	4	-1E+10	1	-1E+10	1	-1E+10	1	-1E+10	1	-1E+10	1	-1E+10	1
4901784	182	C	06/28/2020	10:43	-132.174	42.914	0	437.70	0	5.2680	0	36.7070	8	29.001	0	433.771	0	50.0	4	16.6	4	-1E+10	1	-1E+10	1	-1E+10	1	-1E+10	1	-1E+10	1	-1E+10	1
4901784	182	C	06/28/2020	10:43	-132.174	42.914	0	440.20	0	5.2510	0	36.7110	8	29.007	0	436.246	0	49.0	4	16.2	4	-1E+10	1	-1E+10	1	-1E+10	1	-1E+10	1	-1E+10	1	-1E+10	1
4901784	182	C	06/28/2020	10:43	-132.174	42.914	0	442.80	0	5.2420	0	36.7170	8	29.013	0	438.820	0	48.1	4	16.0	4	-1E+10	1	-1E+10	1	-1E+10	1	-1E+10	1	-1E+10	1	-1E+10	1
4901784	182	C	06/28/2020	10:43	-132.174	42.914	0	445.30	0	5.2270	0	36.7200	8	29.017	0	441.295	0	47.6	4	15.8	4	-1E+10	1	-1E+10	1	-1E+10	1	-1E+10	1	-1E+10	1	-1E+10	1
4901784	182	C	06/28/2020	10:43	-132.174	42.914	0	447.90	0	5.2230	0	36.7220	8	29.019	0	443.869	0	47.1	4	15.6	4	-1E+10	1	-1E+10	1	-1E+10	1	-1E+10	1	-1E+10	1	-1E+10	1
4901784	182	C	06/28/2020	10:43	-132.174	42.914	0	449.60	0	5.2180	0	36.7210	8	29.019	0	445.552	0	46.8	4	15.5	4	-1E+10	1	-1E+10	1	-1E+10	1	-1E+10	1	-1E+10	1	-1E+10	1
4901784	182	C	06/28/2020	10:43	-132.174	42.914	0	452.20	0	5.1970	0	36.7240	8	29.024	0	448.126	0	46.3	4	15.3	4	-1E+10	1	-1E+10	1	-1E+10	1	-1E+10	1	-1E+10	1	-1E+10	1
4901784	182	C	06/28/2020	10:43	-132.174	42.914	0	454.80	0	5.1640	0	36.7270	8	29.030	0	450.699	0	45.8	4	15.2	4	-1E+10	1	-1E+10	1	-1E+10	1	-1E+10	1	-1E+10	1	-1E+10	1
4901784	182	C	06/28/2020	10:43	-132.174	42.914	0	457.50	0	5.1450	0	36.7300	8	29.035	0	453.372	0	45.2	4	14.9	4	-1E+10	1	-1E+10	1	-1E+10	1	-1E+10	1	-1E+10	1	-1E+10	1
4901784	182	C	06/28/2020	10:43	-132.174	42.914	0	460.10	0	5.1350	0	36.7320	8	29.038	0	455.946	0	44.4	4	14.7	4	-1E+10	1	-1E+10	1	-1E+10	1	-1E+10	1	-1E+10	1	-1E+10	1
4901784	182	C	06/28/2020	10:43	-132.174	42.914	0	462.80	0	5.1430	0	36.7360	8	29.040	0	458.618	0	43.2	4	14.3	4	-1E+10	1	-1E+10	1	-1E+10	1	-1E+10	1	-1E+10	1	-1E+10	1
4901784	182	C	06/28/2020	10:43	-132.174	42.914	0	465.50	0	5.1640	0	36.7420	8	29.042	0	461.291	0	42.4	4	14.0	4	-1E+10	1	-1E+10	1	-1E+10	1	-1E+10	1	-1E+10	1	-1E+10	1
4901784	182	C	06/28/2020	10:43	-132.174	42.914	0	467.30	0	5.1440	0	36.7460	8	29.048	0	463.073	0	42.4	4	14.0	4	-1E+10	1	-1E+10	1	-1E+10	1	-1E+10	1	-1E+10	1	-1E+10	1
4901784	182	C	06/28/2020	10:43	-132.174	42.914	0	469.90	0	5.1090	0	36.7440	8	29.051	0	465.646	0	42.4	4	14.0	4	-1E+10	1	-1E+10	1	-1E+10	1	-1E+10	1	-1E+10	1	-1E+10	1
4901784	182	C	06/28/2020	10:43	-132.174	42.914	0	472.60	0	5.0990	0	36.7430	8	29.051	0	468.319	0	42.3	4	14.0	4	-1E+10	1	-1E+10	1	-1E+10	1	-1E+10	1	-1E+10	1	-1E+10	1
4901784	182	C	06/28/2020	10:43	-132.174	42.914	0	475.20	0	5.0600	0	36.7440	8	29.057	0	470.892	0	41.8	4	13.8	4	-1E+10	1	-1E+10	1	-1E+10	1	-1E+10	1	-1E+10	1	-1E+10	1
4901784	182	C	06/28/2020	10:43	-132.174	42.914	0	477.80	0	5.0460	0	36.7480	8	29.061	0	473.466	0	40.9	4	13.5	4	-1E+10	1	-1E+10	1	-1E+10	1	-1E+10	1	-1E+10	1	-1E+10	1
4901784	182	C	06/28/2020	10:43	-132.174	42.914	0	479.60	0	5.0470	0	36.7500	8	29.063	0	475.247	0	40.1	4	13.2	4	-1E+10	1	-1E+10	1	-1E+10	1	-1E+10	1	-1E+10	1	-1E+10	1
4901784	182	C	06/28/2020	10:43	-132.174	42.914	0	482.40	0	5.0740	0	36.7550	8	29.064	0	478.019	0	39.2	4	12.9	4	-1E+10	1	-1E+10	1	-1E+10	1	-1E+10	1	-1E+10	1	-1E+10	1
4901784	182	C	06/28/2020	10:43	-132.174	42.914	0	485.00	0	5.0840	0	36.7570	8	29.064	0	480.592	0	38.6	4	12.7	4	-1E+10	1	-1E+10	1	-1E+10	1	-1E+10	1	-1E+10	1	-1E+10	1
4901784	182	C	06/28/2020	10:43	-132.174	42.914	0	487.80	0	5.0480	0	36.7610	8	29.072	0	483.363	0	38.2	4	12.6	4	-1E+10	1	-1E+10	1	-1E+10	1	-1E+10	1	-1E+10	1	-1E+10	1
4901784	182	C	06/28/2020	10:43	-132.174	42.914	0	490.50	0	5.0250	0	36.7620	8	29.075	0	486.036	0	37.9	4	12.5	4	-1E+10	1	-1E+10	1	-1E+10	1	-1E+10	1	-1E+10	1	-1E+10	1
4901784	182	C	06/28/2020	10:43	-132.174	42.914	0	492.40	0	5.0280	0	36.7640	8	29.076	0	487.916	0	37.6	4	12.4	4	-1E+10	1	-1E+10	1	-1E+10	1	-1E+10	1	-1E+10	1	-1E+10	1
4901784	182	C	06/28/2020	10:43	-132.174	42.914	0	495.10	0	5.0320	0	36.7650	8	29.077	0	490.589	0	37.2	4	12.3	4	-1E+10	1	-1E+10	1	-1E+10	1	-1E+10	1	-1E+10	1	-1E+10	1
4901784	182	C	06/28/2020	10:43	-132.174	42.914	0	498.00	0	5.0120	0	36.7640	8	29.078	0	493.459	0	37.0	4	12.2	4	-1E+10	1	-1E+10	1	-1E+10	1	-1E+10	1	-1E+10	1	-1E+10	1
4901784	182	C	06/28/2020	10:43	-132.174	42.914	0	499.80	0	4.9800	0	36.7670	8	29.085	0	495.240	0	36.8	4	12.1	4	-1E+10	1	-1E+10	1	-1E+10	1	-1E+10	1	-1E+10	1	-1E+10	1
4901784	182	C	06/28/2020	10:43	-132.174	42.914	0	505.40	0	4.9490	0	36.7700	8	29.091	0	500.782	0	35.4	4	11.6	4	-1E+10	1	-1E+10	1	-1E+10	1	-1E+10	1	-1E+10	1	-1E+10	1
4901784	182	C	06/28/2020	10:43	-132.174	42.914	0	510.00	0	4.9540	0	36.7770	8	29.096	0	505.335	0	33.4	4	11.0	4	-1E+10	1	-1E+10	1	-1E+10	1	-1E+10	1	-1E+10	1	-1E+10	1
4901784	182	C	06/28/2020	10:43	-132.174	42.914	0	515.00	0	4.9320	0	36.7900	8	29.109	0	510.283	0	32.0	4	10.5	4	-1E+10	1	-1E+10	1	-1E+10	1	-1E+10	1	-1E+10	1	-1E+10	1
4901784	182	C	06/28/2020	10:43	-132.174	42.914	0	520.10	0	4.9100	0	36.7930	8	29.114	0	515.330	0	31.4	4	10.3	4	-1E+10	1	-1E+10	1	-1E+10	1	-1E+10	1	-1E+10	1	-1E+10	1
4901784	182	C	06/28/2020	10:43	-132.174	42.914	0	524.80	0	4.8630	0	36.7980	8	29.124	0	519.981	0	30.6	4	10.1	4	-1E+10	1	-1E+10	1	-1E+10	1	-1E+10	1	-1E+10	1	-1E+10	1
4901784	182	C	06/28/2020	10:43	-132.174	42.914	0	529.70	0	4.8300	0	36.8000	8	29.129	0	524.830	0	30.4	4	10.0	4	-1E+10	1	-1E+10	1	-1E+10	1	-1E+10	1	-1E+10	1	-1E+10	1
4901784	182	C	06/28/2020	10:43	-132.174	42.914	0	534.50	0	4.7480	0	36.8020	8	29.140	0	529.579	0	30.0	4	9.8	4	-1E+10	1	-1E+10	1	-1E+10	1	-1E+10	1	-1E+10	1	-1E+10	1
4901784	182	C	06/28/2020	10:43	-132.174	42.914	0	539.50	0	4.7470	0	36.8090	8	29.146	0	534.527	0	29.0	4	9.5	4	-1E+10	1	-1E+10	1	-1E+10	1	-1E+10	1	-1E+10	1	-1E+10	1
4901784	182	C	06/28/2020	10:43	-132.174	42.914	0	544.40	0	4.7110	0	36.8130	8	29.154	0	539.375	0	28.3	4	9.3	4	-1E+10	1	-1E+10	1	-1E+10	1	-1E+10	1	-1E+10	1	-1E+10	1
4901784	182	C	06/28/2020	10:43	-132.174	42.914	0	549.50	0	4.6920	0	36.8190	8	29.161	0	544.422	0	27.0	4	8.8	4	-1E+10	1	-1E+10	1	-1E+10	1	-1E+10	1	-1E+10	1	-1E+10	1
4901784	182	C	06/28/2020	10:43	-132.174	42.914	0	554.40	0	4.6980	0	36.8290	8	29.168	0	549.270	0	25.3	4	8.3	4	-1E+10	1	-1E+10	1	-1E+10	1	-1E+10	1	-1E+10	1	-1E+10	1
4901784	182	C	06/28/2020	10:43	-132.174	42.914	0	559.40	0	4.7080	0	36.8390	8	29.175	0	554.217	0	24.1	4	7.9	4	-1E+10	1	-1E+10	1	-1E+10	1	-1E+10	1	-1E+10	1	-1E+10	1
4901784	182	C	06/28/2020	10:43	-132.174	42.914	0	564.50	0	4.6890	0	36.8430	8	29.180	0	559.263	0	23.6	4	7.7	4	-1E+10	1	-1E+10	1	-1E+10	1	-1E+10	1	-1E+10	1	-1E+10	1
4901784	182	C	06/28/2020	10:43	-132.174	42.914	0	569.60	0	4.6680	0	36.8470	8	29.186	0	564.309	0	23.1	4	7.6	4	-1E+10	1	-1E+10	1	-1E+10	1	-1E+10	1	-1E+10	1	-1E+10	1
4901784	182	C	06/28/2020	10:43	-132.174	42.914	0	574.70	0	4.6540	0	36.8520	8	29.192	0	569.354	0	22.5	4	7.4	4	-1E+10	1	-1E+10	1	-1E+10	1	-1E+10	1	-1E+10	1	-1E+10	1
4901784	182	C	06/28/2020	10:43	-132.174	42.914	0	579.80	0	4.6350	0	36.8570	8	29.198	0	574.400	0	22.0	4	7.2	4	-1E+10	1	-1E+10	1	-1E+10	1	-1E+10	1	-1E+10	1	-1E+10	1
4901784	182	C	06/28/2020	10:43	-132.174	42.914	0	584.90	0	4.6260	0	36.8610	8	29.202	0	579.445	0	21.5	4	7.0	4	-1E+10	1	-1E+10	1	-1E+10	1	-1E+10	1	-1E+10	1	-1E+10	1
4901784	182	C	06/28/2020	10:43	-132.174	42.914	0	590.00	0	4.6070	0	36.8640	8	29.207	0	584.490	0	20.9	4	6.8	4	-1E+10	1	-1E+10	1	-1E+10	1	-1E+10	1	-1E+10	1	-1E+10	1
4901784	182	C	06/28/2020	10:43	-132.174	42.914	0	595.20	0	4.5680	0	36.8710	8	29.217	0	589.635	0	20.4	4	6.7	4	-1E+10	1	-1E+10	1	-1E+10	1	-1E+10	1	-1E+10	1	-1E+10	1
4901784	182	C	06/28/2020	10:43	-132.174	42.914	0	600.50	0	4.5510	0	36.8750	8	29.222	0	594.877	0	20.1	4	6.5	4	-1E+10	1	-1E+10	1	-1E+10	1	-1E+10	1	-1E+10	1	-1E+10	1
4901784	182	C	06/28/2020	10:43	-132.174	42.914	0	605.00	0	4.5650	0	36.8790	8	29.224	0	599.329	0	19.7	4	6.4	4	-1E+10	1	-1E+10	1	-1E+10	1	-1E+10	1	-1E+10	1	-1E+10	1
4901784	182	C	06/28/2020	10:43	-132.174	42.914	0	609.40	0	4.5520	0	36.8780	8	29.224	0	603.681	0	19.9	4	6.5	4	-1E+10	1	-1E+10	1	-1E+10	1	-1E+10	1	-1E+10	1	-1E+10	1
4901784	182	C	06/28/2020	10:43	-132.174	42.914	0	614.70	0	4.4510	0	36.8760	8	29.234	0	608.924	0	20.1	4	6.5	4	-1E+10	1	-1E+10	1	-1E+10	1	-1E+10	1	-1E+10	1	-1E+10	1
4901784	182	C	06/28/2020	10:43	-132.174	42.914	0	620.10	0	4.4350	0	36.8810	8	29.240	0	614.265	0	19.5	4	6.4	4	-1E+10	1	-1E+10	1	-1E+10	1	-1E+10	1	-1E+10	1	-1E+10	1
4901784	182	C	06/28/2020	10:43	-132.174	42.914	0	625.50	0	4.3950	0	36.8850	8	29.248	0	619.606	0	19.1	4	6.2	4	-1E+10	1	-1E+10	1	-1E+10	1	-1E+10	1	-1E+10	1	-1E+10	1
4901784	182	C	06/28/2020	10:43	-132.174	42.914	0	630.10	0	4.3710	0	36.8890	8	29.254	0	624.156	0	18.8	4	6.1	4	-1E+10	1	-1E+10	1	-1E+10	1	-1E+10	1	-1E+10	1	-1E+10	1
4901784	182	C	06/28/2020	10:43	-132.174	42.914	0	634.70	0	4.3430	0	36.8920	8	29.260	0	628.706	0	18.4	4	6.0	4	-1E+10	1	-1E+10	1	-1E+10	1	-1E+10	1	-1E+10	1	-1E+10	1
4901784	182	C	06/28/2020	10:43	-132.174	42.914	0	640.10	0	4.3110	0	36.8950	8	29.266	0	634.046	0	18.0	4	5.8	4	-1E+10	1	-1E+10	1	-1E+10	1	-1E+10	1	-1E+10	1	-1E+10	1
4901784	182	C	06/28/2020	10:43	-132.174	42.914	0	645.60	0	4.2770	0	36.9020	8	29.275	0	639.486	0	17.4	4	5.6	4	-1E+10	1	-1E+10	1	-1E+10	1	-1E+10	1	-1E+10	1	-1E+10	1
4901784	182	C	06/28/2020	10:43	-132.174	42.914	0	650.20	0	4.2600	0	36.9080	8	29.282	0	644.035	0	17.1	4	5.5	4	-1E+10	1	-1E+10	1	-1E+10	1	-1E+10	1	-1E+10	1	-1E+10	1
4901784	182	C	06/28/2020	10:43	-132.174	42.914	0	654.90	0	4.2490	0	36.9110	8	29.286	0	648.683	0	16.8	4	5.5	4	-1E+10	1	-1E+10	1	-1E+10	1	-1E+10	1	-1E+10	1	-1E+10	1
4901784	182	C	06/28/2020	10:43	-132.174	42.914	0	660.40	0	4.2370	0	36.9150	8	29.290	0	654.122	0	16.5	4	5.3	4	-1E+10	1	-1E+10	1	-1E+10	1	-1E+10	1	-1E+10	1	-1E+10	1
4901784	182	C	06/28/2020	10:43	-132.174	42.914	0	665.10	0	4.2270	0	36.9190	8	29.294	0	658.770	0	16.2	4	5.2	4	-1E+10	1	-1E+10	1	-1E+10	1	-1E+10	1	-1E+10	1	-1E+10	1
4901784	182	C	06/28/2020	10:43	-132.174	42.914	0	670.50	0	4.2070	0	36.9250	8	29.302	0	664.110	0	15.8	4	5.1	4	-1E+10	1	-1E+10	1	-1E+10	1	-1E+10	1	-1E+10	1	-1E+10	1
4901784	182	C	06/28/2020	10:43	-132.174	42.914	0	675.70	0	4.1930	0	36.9300	8	29.307	0	669.252	0	15.5	4	5.0	4	-1E+10	1	-1E+10	1	-1E+10	1	-1E+10	1	-1E+10	1	-1E+10	1
4901784	182	C	06/28/2020	10:43	-132.174	42.914	0	680.40	0	4.1850	0	36.9330	8	29.310	0	673.900	0	15.3	4	4.9	4	-1E+10	1	-1E+10	1	-1E+10	1	-1E+10	1	-1E+10	1	-1E+10	1
4901784	182	C	06/28/2020	10:43	-132.174	42.914	0	685.10	0	4.1710	0	36.9380	8	29.316	0	678.547	0	15.1	4	4.9	4	-1E+10	1	-1E+10	1	-1E+10	1	-1E+10	1	-1E+10	1	-1E+10	1
4901784	182	C	06/28/2020	10:43	-132.174	42.914	0	689.90	0	4.1630	0	36.9390	8	29.318	0	683.294	0	14.9	4	4.8	4	-1E+10	1	-1E+10	1	-1E+10	1	-1E+10	1	-1E+10	1	-1E+10	1
4901784	182	C	06/28/2020	10:43	-132.174	42.914	0	694.80	0	4.1500	0	36.9430	8	29.322	0	688.139	0	14.5	4	4.7	4	-1E+10	1	-1E+10	1	-1E+10	1	-1E+10	1	-1E+10	1	-1E+10	1
4901784	182	C	06/28/2020	10:43	-132.174	42.914	0	699.70	0	4.1300	0	36.9500	8	29.330	0	692.984	0	14.2	4	4.6	4	-1E+10	1	-1E+10	1	-1E+10	1	-1E+10	1	-1E+10	1	-1E+10	1
4901784	182	C	06/28/2020	10:43	-132.174	42.914	0	704.70	0	4.1180	0	36.9550	8	29.336	0	697.927	0	14.0	4	4.5	4	-1E+10	1	-1E+10	1	-1E+10	1	-1E+10	1	-1E+10	1	-1E+10	1
4901784	182	C	06/28/2020	10:43	-132.174	42.914	0	709.80	0	4.1100	0	36.9570	8	29.338	0	702.970	0	13.8	4	4.5	4	-1E+10	1	-1E+10	1	-1E+10	1	-1E+10	1	-1E+10	1	-1E+10	1
4901784	182	C	06/28/2020	10:43	-132.174	42.914	0	714.80	0	4.1000	0	36.9610	8	29.342	0	707.913	0	13.6	4	4.4	4	-1E+10	1	-1E+10	1	-1E+10	1	-1E+10	1	-1E+10	1	-1E+10	1
4901784	182	C	06/28/2020	10:43	-132.174	42.914	0	719.90	0	4.0880	0	36.9650	8	29.347	0	712.955	0	13.4	4	4.3	4	-1E+10	1	-1E+10	1	-1E+10	1	-1E+10	1	-1E+10	1	-1E+10	1
4901784	182	C	06/28/2020	10:43	-132.174	42.914	0	725.00	0	4.0720	0	36.9690	8	29.352	0	717.997	0	13.1	4	4.2	4	-1E+10	1	-1E+10	1	-1E+10	1	-1E+10	1	-1E+10	1	-1E+10	1
4901784	182	C	06/28/2020	10:43	-132.174	42.914	0	730.20	0	4.0490	0	36.9760	8	29.360	0	723.138	0	12.8	4	4.1	4	-1E+10	1	-1E+10	1	-1E+10	1	-1E+10	1	-1E+10	1	-1E+10	1
4901784	182	C	06/28/2020	10:43	-132.174	42.914	0	735.50	0	4.0370	0	36.9800	8	29.365	0	728.377	0	12.6	4	4.1	4	-1E+10	1	-1E+10	1	-1E+10	1	-1E+10	1	-1E+10	1	-1E+10	1
4901784	182	C	06/28/2020	10:43	-132.174	42.914	0	740.70	0	4.0160	0	36.9860	8	29.372	0	733.518	0	12.4	4	4.0	4	-1E+10	1	-1E+10	1	-1E+10	1	-1E+10	1	-1E+10	1	-1E+10	1
4901784	182	C	06/28/2020	10:43	-132.174	42.914	0	745.10	0	4.0080	0	36.9900	8	29.376	0	737.867	0	12.2	4	3.9	4	-1E+10	1	-1E+10	1	-1E+10	1	-1E+10	1	-1E+10	1	-1E+10	1
4901784	182	C	06/28/2020	10:43	-132.174	42.914	0	749.50	0	3.9980	0	36.9940	8	29.380	0	742.217	0	12.1	4	3.9	4	-1E+10	1	-1E+10	1	-1E+10	1	-1E+10	1	-1E+10	1	-1E+10	1
4901784	182	C	06/28/2020	10:43	-132.174	42.914	0	754.90	0	3.9880	0	36.9980	8	29.385	0	747.555	0	12.0	4	3.9	4	-1E+10	1	-1E+10	1	-1E+10	1	-1E+10	1	-1E+10	1	-1E+10	1
4901784	182	C	06/28/2020	10:43	-132.174	42.914	0	760.20	0	3.9780	0	37.0000	8	29.387	0	752.794	0	11.9	4	3.8	4	-1E+10	1	-1E+10	1	-1E+10	1	-1E+10	1	-1E+10	1	-1E+10	1
4901784	182	C	06/28/2020	10:43	-132.174	42.914	0	765.50	0	3.9630	0	37.0030	8	29.391	0	758.032	0	11.7	4	3.8	4	-1E+10	1	-1E+10	1	-1E+10	1	-1E+10	1	-1E+10	1	-1E+10	1
4901784	182	C	06/28/2020	10:43	-132.174	42.914	0	769.90	0	3.9510	0	37.0070	8	29.396	0	762.382	0	11.6	4	3.7	4	-1E+10	1	-1E+10	1	-1E+10	1	-1E+10	1	-1E+10	1	-1E+10	1
4901784	182	C	06/28/2020	10:43	-132.174	42.914	0	774.40	0	3.9490	0	37.0090	8	29.398	0	766.829	0	11.5	4	3.7	4	-1E+10	1	-1E+10	1	-1E+10	1	-1E+10	1	-1E+10	1	-1E+10	1
4901784	182	C	06/28/2020	10:43	-132.174	42.914	0	779.70	0	3.9390	0	37.0140	8	29.403	0	772.068	0	11.3	4	3.7	4	-1E+10	1	-1E+10	1	-1E+10	1	-1E+10	1	-1E+10	1	-1E+10	1
4901784	182	C	06/28/2020	10:43	-132.174	42.914	0	785.00	0	3.9210	0	37.0190	8	29.409	0	777.306	0	11.2	4	3.6	4	-1E+10	1	-1E+10	1	-1E+10	1	-1E+10	1	-1E+10	1	-1E+10	1
4901784	182	C	06/28/2020	10:43	-132.174	42.914	0	790.30	0	3.9030	0	37.0220	8	29.413	0	782.544	0	11.1	4	3.6	4	-1E+10	1	-1E+10	1	-1E+10	1	-1E+10	1	-1E+10	1	-1E+10	1
4901784	182	C	06/28/2020	10:43	-132.174	42.914	0	795.50	0	3.8800	0	37.0280	8	29.421	0	787.683	0	11.0	4	3.5	4	-1E+10	1	-1E+10	1	-1E+10	1	-1E+10	1	-1E+10	1	-1E+10	1
4901784	182	C	06/28/2020	10:43	-132.174	42.914	0	799.90	0	3.8690	0	37.0320	8	29.425	0	792.032	0	10.9	4	3.5	4	-1E+10	1	-1E+10	1	-1E+10	1	-1E+10	1	-1E+10	1	-1E+10	1
4901784	182	C	06/28/2020	10:43	-132.174	42.914	0	804.40	0	3.8590	0	37.0340	8	29.428	0	796.479	0	10.8	4	3.5	4	-1E+10	1	-1E+10	1	-1E+10	1	-1E+10	1	-1E+10	1	-1E+10	1
4901784	182	C	06/28/2020	10:43	-132.174	42.914	0	809.80	0	3.8420	0	37.0390	8	29.434	0	801.815	0	10.7	4	3.4	4	-1E+10	1	-1E+10	1	-1E+10	1	-1E+10	1	-1E+10	1	-1E+10	1
4901784	182	C	06/28/2020	10:43	-132.174	42.914	0	815.20	0	3.8320	0	37.0430	8	29.438	0	807.152	0	10.6	4	3.4	4	-1E+10	1	-1E+10	1	-1E+10	1	-1E+10	1	-1E+10	1	-1E+10	1
4901784	182	C	06/28/2020	10:43	-132.174	42.914	0	820.60	0	3.8210	0	37.0460	8	29.441	0	812.488	0	10.6	4	3.4	4	-1E+10	1	-1E+10	1	-1E+10	1	-1E+10	1	-1E+10	1	-1E+10	1
4901784	182	C	06/28/2020	10:43	-132.174	42.914	0	825.10	0	3.8160	0	37.0480	8	29.444	0	816.935	0	10.5	4	3.4	4	-1E+10	1	-1E+10	1	-1E+10	1	-1E+10	1	-1E+10	1	-1E+10	1
4901784	182	C	06/28/2020	10:43	-132.174	42.914	0	829.60	0	3.8040	0	37.0540	8	29.450	0	821.381	0	10.4	4	3.4	4	-1E+10	1	-1E+10	1	-1E+10	1	-1E+10	1	-1E+10	1	-1E+10	1
4901784	182	C	06/28/2020	10:43	-132.174	42.914	0	835.00	0	3.8040	0	37.0580	8	29.453	0	826.717	0	10.4	4	3.3	4	-1E+10	1	-1E+10	1	-1E+10	1	-1E+10	1	-1E+10	1	-1E+10	1
4901784	182	C	06/28/2020	10:43	-132.174	42.914	0	840.50	0	3.7930	0	37.0590	8	29.455	0	832.151	0	10.3	4	3.3	4	-1E+10	1	-1E+10	1	-1E+10	1	-1E+10	1	-1E+10	1	-1E+10	1
4901784	182	C	06/28/2020	10:43	-132.174	42.914	0	845.10	0	3.7750	0	37.0620	8	29.459	0	836.697	0	10.3	4	3.3	4	-1E+10	1	-1E+10	1	-1E+10	1	-1E+10	1	-1E+10	1	-1E+10	1
4901784	182	C	06/28/2020	10:43	-132.174	42.914	0	849.70	0	3.7660	0	37.0660	8	29.464	0	841.242	0	10.2	4	3.3	4	-1E+10	1	-1E+10	1	-1E+10	1	-1E+10	1	-1E+10	1	-1E+10	1
4901784	182	C	06/28/2020	10:43	-132.174	42.914	0	855.30	0	3.7750	0	37.0700	8	29.466	0	846.775	0	10.2	4	3.3	4	-1E+10	1	-1E+10	1	-1E+10	1	-1E+10	1	-1E+10	1	-1E+10	1
4901784	182	C	06/28/2020	10:43	-132.174	42.914	0	859.90	0	3.7710	0	37.0710	8	29.467	0	851.319	0	10.1	4	3.2	4	-1E+10	1	-1E+10	1	-1E+10	1	-1E+10	1	-1E+10	1	-1E+10	1
4901784	182	C	06/28/2020	10:43	-132.174	42.914	0	864.60	0	3.7620	0	37.0750	8	29.471	0	855.963	0	10.1	4	3.2	4	-1E+10	1	-1E+10	1	-1E+10	1	-1E+10	1	-1E+10	1	-1E+10	1
4901784	182	C	06/28/2020	10:43	-132.174	42.914	0	870.10	0	3.7480	0	37.0790	8	29.476	0	861.396	0	10.1	4	3.2	4	-1E+10	1	-1E+10	1	-1E+10	1	-1E+10	1	-1E+10	1	-1E+10	1
4901784	182	C	06/28/2020	10:43	-132.174	42.914	0	874.80	0	3.7350	0	37.0830	8	29.481	0	866.040	0	10.0	4	3.2	4	-1E+10	1	-1E+10	1	-1E+10	1	-1E+10	1	-1E+10	1	-1E+10	1
4901784	182	C	06/28/2020	10:43	-132.174	42.914	0	879.50	0	3.7180	0	37.0870	8	29.486	0	870.683	0	10.0	4	3.2	4	-1E+10	1	-1E+10	1	-1E+10	1	-1E+10	1	-1E+10	1	-1E+10	1
4901784	182	C	06/28/2020	10:43	-132.174	42.914	0	885.10	0	3.7000	0	37.0920	8	29.492	0	876.215	0	10.0	4	3.2	4	-1E+10	1	-1E+10	1	-1E+10	1	-1E+10	1	-1E+10	1	-1E+10	1
4901784	182	C	06/28/2020	10:43	-132.174	42.914	0	890.50	0	3.6880	0	37.0950	8	29.495	0	881.549	0	10.0	4	3.2	4	-1E+10	1	-1E+10	1	-1E+10	1	-1E+10	1	-1E+10	1	-1E+10	1
4901784	182	C	06/28/2020	10:43	-132.174	42.914	0	895.40	0	3.6810	0	37.0970	8	29.498	0	886.390	0	10.0	4	3.2	4	-1E+10	1	-1E+10	1	-1E+10	1	-1E+10	1	-1E+10	1	-1E+10	1
4901784	182	C	06/28/2020	10:43	-132.174	42.914	0	900.30	0	3.6690	0	37.1000	8	29.501	0	891.230	0	10.0	4	3.2	4	-1E+10	1	-1E+10	1	-1E+10	1	-1E+10	1	-1E+10	1	-1E+10	1
4901784	182	C	06/28/2020	10:43	-132.174	42.914	0	905.20	0	3.6540	0	37.1040	8	29.506	0	896.070	0	10.0	4	3.2	4	-1E+10	1	-1E+10	1	-1E+10	1	-1E+10	1	-1E+10	1	-1E+10	1
4901784	182	C	06/28/2020	10:43	-132.174	42.914	0	910.20	0	3.6370	0	37.1080	8	29.511	0	901.009	0	10.0	4	3.2	4	-1E+10	1	-1E+10	1	-1E+10	1	-1E+10	1	-1E+10	1	-1E+10	1
4901784	182	C	06/28/2020	10:43	-132.174	42.914	0	915.20	0	3.6300	0	37.1090	8	29.513	0	905.948	0	10.0	4	3.2	4	-1E+10	1	-1E+10	1	-1E+10	1	-1E+10	1	-1E+10	1	-1E+10	1
4901784	182	C	06/28/2020	10:43	-132.174	42.914	0	920.20	0	3.6190	0	37.1110	8	29.516	0	910.886	0	10.0	4	3.2	4	-1E+10	1	-1E+10	1	-1E+10	1	-1E+10	1	-1E+10	1	-1E+10	1
4901784	182	C	06/28/2020	10:43	-132.174	42.914	0	925.20	0	3.6040	0	37.1130	8	29.519	0	915.825	0	10.0	4	3.2	4	-1E+10	1	-1E+10	1	-1E+10	1	-1E+10	1	-1E+10	1	-1E+10	1
4901784	182	C	06/28/2020	10:43	-132.174	42.914	0	930.20	0	3.5930	0	37.1150	8	29.522	0	920.763	0	10.0	4	3.2	4	-1E+10	1	-1E+10	1	-1E+10	1	-1E+10	1	-1E+10	1	-1E+10	1
4901784	182	C	06/28/2020	10:43	-132.174	42.914	0	935.10	0	3.5830	0	37.1180	8	29.525	0	925.603	0	10.1	4	3.2	4	-1E+10	1	-1E+10	1	-1E+10	1	-1E+10	1	-1E+10	1	-1E+10	1
4901784	182	C	06/28/2020	10:43	-132.174	42.914	0	940.10	0	3.5780	0	37.1200	8	29.527	0	930.541	0	10.1	4	3.2	4	-1E+10	1	-1E+10	1	-1E+10	1	-1E+10	1	-1E+10	1	-1E+10	1
4901784	182	C	06/28/2020	10:43	-132.174	42.914	0	945.10	0	3.5710	0	37.1230	8	29.530	0	935.479	0	10.1	4	3.2	4	-1E+10	1	-1E+10	1	-1E+10	1	-1E+10	1	-1E+10	1	-1E+10	1
4901784	182	C	06/28/2020	10:43	-132.174	42.914	0	950.10	0	3.5410	0	37.1290	8	29.538	0	940.417	0	10.2	4	3.2	4	-1E+10	1	-1E+10	1	-1E+10	1	-1E+10	1	-1E+10	1	-1E+10	1
4901784	182	C	06/28/2020	10:43	-132.174	42.914	0	955.20	0	3.5340	0	37.1320	8	29.541	0	945.453	0	10.2	4	3.3	4	-1E+10	1	-1E+10	1	-1E+10	1	-1E+10	1	-1E+10	1	-1E+10	1
4901784	182	C	06/28/2020	10:43	-132.174	42.914	0	960.40	0	3.5260	0	37.1340	8	29.544	0	950.588	0	10.2	4	3.3	4	-1E+10	1	-1E+10	1	-1E+10	1	-1E+10	1	-1E+10	1	-1E+10	1
4901784	182	C	06/28/2020	10:43	-132.174	42.914	0	965.50	0	3.5120	0	37.1370	8	29.548	0	955.625	0	10.3	4	3.3	4	-1E+10	1	-1E+10	1	-1E+10	1	-1E+10	1	-1E+10	1	-1E+10	1
4901784	182	C	06/28/2020	10:43	-132.174	42.914	0	970.60	0	3.4970	0	37.1400	8	29.552	0	960.661	0	10.4	4	3.3	4	-1E+10	1	-1E+10	1	-1E+10	1	-1E+10	1	-1E+10	1	-1E+10	1
4901784	182	C	06/28/2020	10:43	-132.174	42.914	0	974.90	0	3.4810	0	37.1440	8	29.557	0	964.907	0	10.4	4	3.3	4	-1E+10	1	-1E+10	1	-1E+10	1	-1E+10	1	-1E+10	1	-1E+10	1
4901784	182	C	06/28/2020	10:43	-132.174	42.914	0	979.20	0	3.4690	0	37.1470	8	29.560	0	969.153	0	10.5	4	3.3	4	-1E+10	1	-1E+10	1	-1E+10	1	-1E+10	1	-1E+10	1	-1E+10	1
4901784	182	C	06/28/2020	10:43	-132.174	42.914	0	984.30	0	3.4550	0	37.1500	8	29.564	0	974.189	0	10.5	4	3.4	4	-1E+10	1	-1E+10	1	-1E+10	1	-1E+10	1	-1E+10	1	-1E+10	1
4901784	182	C	06/28/2020	10:43	-132.174	42.914	0	989.50	0	3.4430	0	37.1530	8	29.568	0	979.323	0	10.6	4	3.4	4	-1E+10	1	-1E+10	1	-1E+10	1	-1E+10	1	-1E+10	1	-1E+10	1
4901784	182	C	06/28/2020	10:43	-132.174	42.914	0	994.60	0	3.4350	0	37.1550	8	29.570	0	984.359	0	10.7	4	3.4	4	-1E+10	1	-1E+10	1	-1E+10	1	-1E+10	1	-1E+10	1	-1E+10	1
4901784	182	C	06/28/2020	10:43	-132.174	42.914	0	999.80	0	3.4230	0	37.1580	8	29.574	0	989.493	0	10.7	4	3.4	4	-1E+10	1	-1E+10	1	-1E+10	1	-1E+10	1	-1E+10	1	-1E+10	1
4901784	182	C	06/28/2020	10:43	-132.174	42.914	0	1005.00	0	3.4170	0	37.1590	8	29.575	0	994.627	0	10.8	4	3.4	4	-1E+10	1	-1E+10	1	-1E+10	1	-1E+10	1	-1E+10	1	-1E+10	1
4901784	182	C	06/28/2020	10:43	-132.174	42.914	0	1010.30	0	3.3970	0	37.1640	8	29.582	0	999.859	0	10.9	4	3.5	4	-1E+10	1	-1E+10	1	-1E+10	1	-1E+10	1	-1E+10	1	-1E+10	1
4901784	182	C	06/28/2020	10:43	-132.174	42.914	0	1015.50	0	3.3880	0	37.1660	8	29.584	0	1004.993	0	11.0	4	3.5	4	-1E+10	1	-1E+10	1	-1E+10	1	-1E+10	1	-1E+10	1	-1E+10	1
4901784	182	C	06/28/2020	10:43	-132.174	42.914	0	1020.70	0	3.3740	0	37.1690	8	29.588	0	1010.127	0	11.1	4	3.5	4	-1E+10	1	-1E+10	1	-1E+10	1	-1E+10	1	-1E+10	1	-1E+10	1
4901784	182	C	06/28/2020	10:43	-132.174	42.914	0	1025.00	0	3.3600	0	37.1730	8	29.593	0	1014.372	0	11.1	4	3.5	4	-1E+10	1	-1E+10	1	-1E+10	1	-1E+10	1	-1E+10	1	-1E+10	1
4901784	182	C	06/28/2020	10:43	-132.174	42.914	0	1029.30	0	3.3540	0	37.1730	8	29.593	0	1018.617	0	11.2	4	3.6	4	-1E+10	1	-1E+10	1	-1E+10	1	-1E+10	1	-1E+10	1	-1E+10	1
4901784	182	C	06/28/2020	10:43	-132.174	42.914	0	1034.60	0	3.3440	0	37.1750	8	29.596	0	1023.849	0	11.2	4	3.6	4	-1E+10	1	-1E+10	1	-1E+10	1	-1E+10	1	-1E+10	1	-1E+10	1
4901784	182	C	06/28/2020	10:43	-132.174	42.914	0	1039.80	0	3.3350	0	37.1770	8	29.598	0	1028.982	0	11.3	4	3.6	4	-1E+10	1	-1E+10	1	-1E+10	1	-1E+10	1	-1E+10	1	-1E+10	1
4901784	182	C	06/28/2020	10:43	-132.174	42.914	0	1045.20	0	3.3240	0	37.1800	8	29.602	0	1034.313	0	11.4	4	3.6	4	-1E+10	1	-1E+10	1	-1E+10	1	-1E+10	1	-1E+10	1	-1E+10	1
4901784	182	C	06/28/2020	10:43	-132.174	42.914	0	1050.50	0	3.3090	0	37.1830	8	29.606	0	1039.544	0	11.5	4	3.7	4	-1E+10	1	-1E+10	1	-1E+10	1	-1E+10	1	-1E+10	1	-1E+10	1
4901784	182	C	06/28/2020	10:43	-132.174	42.914	0	1055.00	0	3.3010	0	37.1840	8	29.608	0	1043.986	0	11.6	4	3.7	4	-1E+10	1	-1E+10	1	-1E+10	1	-1E+10	1	-1E+10	1	-1E+10	1
4901784	182	C	06/28/2020	10:43	-132.174	42.914	0	1059.60	0	3.2900	0	37.1870	8	29.611	0	1048.527	0	11.7	4	3.7	4	-1E+10	1	-1E+10	1	-1E+10	1	-1E+10	1	-1E+10	1	-1E+10	1
4901784	182	C	06/28/2020	10:43	-132.174	42.914	0	1065.00	0	3.2820	0	37.1890	8	29.614	0	1053.857	0	11.9	4	3.8	4	-1E+10	1	-1E+10	1	-1E+10	1	-1E+10	1	-1E+10	1	-1E+10	1
4901784	182	C	06/28/2020	10:43	-132.174	42.914	0	1070.50	0	3.2710	0	37.1920	8	29.617	0	1059.285	0	12.0	4	3.8	4	-1E+10	1	-1E+10	1	-1E+10	1	-1E+10	1	-1E+10	1	-1E+10	1
4901784	182	C	06/28/2020	10:43	-132.174	42.914	0	1075.10	0	3.2580	0	37.1940	8	29.620	0	1063.825	0	12.1	4	3.8	4	-1E+10	1	-1E+10	1	-1E+10	1	-1E+10	1	-1E+10	1	-1E+10	1
4901784	182	C	06/28/2020	10:43	-132.174	42.914	0	1080.00	0	3.2490	0	37.1970	8	29.623	0	1068.662	0	12.2	4	3.9	4	-1E+10	1	-1E+10	1	-1E+10	1	-1E+10	1	-1E+10	1	-1E+10	1
4901784	182	C	06/28/2020	10:43	-132.174	42.914	0	1085.10	0	3.2460	0	37.1990	8	29.625	0	1073.695	0	12.3	4	3.9	4	-1E+10	1	-1E+10	1	-1E+10	1	-1E+10	1	-1E+10	1	-1E+10	1
4901784	182	C	06/28/2020	10:43	-132.174	42.914	0	1089.90	0	3.2380	0	37.1990	8	29.626	0	1078.432	0	12.3	4	3.9	4	-1E+10	1	-1E+10	1	-1E+10	1	-1E+10	1	-1E+10	1	-1E+10	1
4901784	182	C	06/28/2020	10:43	-132.174	42.914	0	1094.70	0	3.2290	0	37.2010	8	29.629	0	1083.169	0	12.4	4	3.9	4	-1E+10	1	-1E+10	1	-1E+10	1	-1E+10	1	-1E+10	1	-1E+10	1
4901784	182	C	06/28/2020	10:43	-132.174	42.914	0	1099.50	0	3.2200	0	37.2030	8	29.631	0	1087.906	0	12.5	4	4.0	4	-1E+10	1	-1E+10	1	-1E+10	1	-1E+10	1	-1E+10	1	-1E+10	1
4901784	182	C	06/28/2020	10:43	-132.174	42.914	0	1104.40	0	3.2100	0	37.2040	8	29.633	0	1092.742	0	12.6	4	4.0	4	-1E+10	1	-1E+10	1	-1E+10	1	-1E+10	1	-1E+10	1	-1E+10	1
4901784	182	C	06/28/2020	10:43	-132.174	42.914	0	1109.30	0	3.1990	0	37.2060	8	29.636	0	1097.578	0	12.7	4	4.0	4	-1E+10	1	-1E+10	1	-1E+10	1	-1E+10	1	-1E+10	1	-1E+10	1
4901784	182	C	06/28/2020	10:43	-132.174	42.914	0	1114.30	0	3.1870	0	37.2090	8	29.639	0	1102.512	0	12.8	4	4.1	4	-1E+10	1	-1E+10	1	-1E+10	1	-1E+10	1	-1E+10	1	-1E+10	1
4901784	182	C	06/28/2020	10:43	-132.174	42.914	0	1119.30	0	3.1800	0	37.2100	8	29.641	0	1107.445	0	13.0	4	4.1	4	-1E+10	1	-1E+10	1	-1E+10	1	-1E+10	1	-1E+10	1	-1E+10	1
4901784	182	C	06/28/2020	10:43	-132.174	42.914	0	1124.30	0	3.1650	0	37.2130	8	29.645	0	1112.379	0	13.1	4	4.2	4	-1E+10	1	-1E+10	1	-1E+10	1	-1E+10	1	-1E+10	1	-1E+10	1
4901784	182	C	06/28/2020	10:43	-132.174	42.914	0	1129.50	0	3.1510	0	37.2160	8	29.649	0	1117.510	0	13.3	4	4.2	4	-1E+10	1	-1E+10	1	-1E+10	1	-1E+10	1	-1E+10	1	-1E+10	1
4901784	182	C	06/28/2020	10:43	-132.174	42.914	0	1134.60	0	3.1360	0	37.2170	8	29.651	0	1122.542	0	13.4	4	4.3	4	-1E+10	1	-1E+10	1	-1E+10	1	-1E+10	1	-1E+10	1	-1E+10	1
4901784	182	C	06/28/2020	10:43	-132.174	42.914	0	1139.90	0	3.1190	0	37.2210	8	29.656	0	1127.772	0	13.6	4	4.3	4	-1E+10	1	-1E+10	1	-1E+10	1	-1E+10	1	-1E+10	1	-1E+10	1
4901784	182	C	06/28/2020	10:43	-132.174	42.914	0	1145.20	0	3.1110	0	37.2220	8	29.658	0	1133.001	0	13.8	4	4.3	4	-1E+10	1	-1E+10	1	-1E+10	1	-1E+10	1	-1E+10	1	-1E+10	1
4901784	182	C	06/28/2020	10:43	-132.174	42.914	0	1150.50	0	3.0980	0	37.2250	8	29.661	0	1138.230	0	13.9	4	4.4	4	-1E+10	1	-1E+10	1	-1E+10	1	-1E+10	1	-1E+10	1	-1E+10	1
4901784	182	C	06/28/2020	10:43	-132.174	42.914	0	1154.90	0	3.0870	0	37.2270	8	29.664	0	1142.572	0	14.0	4	4.4	4	-1E+10	1	-1E+10	1	-1E+10	1	-1E+10	1	-1E+10	1	-1E+10	1
4901784	182	C	06/28/2020	10:43	-132.174	42.914	0	1159.40	0	3.0820	0	37.2280	8	29.665	0	1147.011	0	14.1	4	4.5	4	-1E+10	1	-1E+10	1	-1E+10	1	-1E+10	1	-1E+10	1	-1E+10	1
4901784	182	C	06/28/2020	10:43	-132.174	42.914	0	1164.70	0	3.0760	0	37.2290	8	29.667	0	1152.240	0	14.3	4	4.5	4	-1E+10	1	-1E+10	1	-1E+10	1	-1E+10	1	-1E+10	1	-1E+10	1
4901784	182	C	06/28/2020	10:43	-132.174	42.914	0	1170.20	0	3.0580	0	37.2320	8	29.671	0	1157.666	0	14.5	4	4.6	4	-1E+10	1	-1E+10	1	-1E+10	1	-1E+10	1	-1E+10	1	-1E+10	1
4901784	182	C	06/28/2020	10:43	-132.174	42.914	0	1175.60	0	3.0450	0	37.2340	8	29.674	0	1162.993	0	14.6	4	4.6	4	-1E+10	1	-1E+10	1	-1E+10	1	-1E+10	1	-1E+10	1	-1E+10	1
4901784	182	C	06/28/2020	10:43	-132.174	42.914	0	1180.20	0	3.0400	0	37.2360	8	29.676	0	1167.531	0	14.8	4	4.7	4	-1E+10	1	-1E+10	1	-1E+10	1	-1E+10	1	-1E+10	1	-1E+10	1
4901784	182	C	06/28/2020	10:43	-132.174	42.914	0	1184.70	0	3.0380	0	37.2370	8	29.677	0	1171.970	0	14.9	4	4.7	4	-1E+10	1	-1E+10	1	-1E+10	1	-1E+10	1	-1E+10	1	-1E+10	1
4901784	182	C	06/28/2020	10:43	-132.174	42.914	0	1190.30	0	3.0300	0	37.2380	8	29.679	0	1177.495	0	15.0	4	4.7	4	-1E+10	1	-1E+10	1	-1E+10	1	-1E+10	1	-1E+10	1	-1E+10	1
4901784	182	C	06/28/2020	10:43	-132.174	42.914	0	1195.00	0	3.0100	0	37.2410	8	29.683	0	1182.131	0	15.2	4	4.8	4	-1E+10	1	-1E+10	1	-1E+10	1	-1E+10	1	-1E+10	1	-1E+10	1
4901784	182	C	06/28/2020	10:43	-132.174	42.914	0	1199.70	0	3.0040	0	37.2430	8	29.685	0	1186.767	0	15.3	4	4.8	4	-1E+10	1	-1E+10	1	-1E+10	1	-1E+10	1	-1E+10	1	-1E+10	1
4901784	182	C	06/28/2020	10:43	-132.174	42.914	0	1205.10	0	2.9980	0	37.2440	8	29.687	0	1192.093	0	15.4	4	4.9	4	-1E+10	1	-1E+10	1	-1E+10	1	-1E+10	1	-1E+10	1	-1E+10	1
4901784	182	C	06/28/2020	10:43	-132.174	42.914	0	1209.30	0	2.9900	0	37.2450	8	29.688	0	1196.236	0	15.5	4	4.9	4	-1E+10	1	-1E+10	1	-1E+10	1	-1E+10	1	-1E+10	1	-1E+10	1
4901784	182	C	06/28/2020	10:43	-132.174	42.914	0	1215.00	0	2.9780	0	37.2470	8	29.691	0	1201.858	0	15.6	4	4.9	4	-1E+10	1	-1E+10	1	-1E+10	1	-1E+10	1	-1E+10	1	-1E+10	1
4901784	182	C	06/28/2020	10:43	-132.174	42.914	0	1220.60	0	2.9730	0	37.2480	8	29.693	0	1207.382	0	15.7	4	5.0	4	-1E+10	1	-1E+10	1	-1E+10	1	-1E+10	1	-1E+10	1	-1E+10	1
4901784	182	C	06/28/2020	10:43	-132.174	42.914	0	1225.50	0	2.9690	0	37.2490	8	29.694	0	1212.215	0	15.8	4	5.0	4	-1E+10	1	-1E+10	1	-1E+10	1	-1E+10	1	-1E+10	1	-1E+10	1
4901784	182	C	06/28/2020	10:43	-132.174	42.914	0	1230.50	0	2.9600	0	37.2500	8	29.695	0	1217.146	0	15.9	4	5.0	4	-1E+10	1	-1E+10	1	-1E+10	1	-1E+10	1	-1E+10	1	-1E+10	1
4901784	182	C	06/28/2020	10:43	-132.174	42.914	0	1235.60	0	2.9530	0	37.2510	8	29.697	0	1222.176	0	16.0	4	5.1	4	-1E+10	1	-1E+10	1	-1E+10	1	-1E+10	1	-1E+10	1	-1E+10	1
4901784	182	C	06/28/2020	10:43	-132.174	42.914	0	1240.70	0	2.9460	0	37.2520	8	29.698	0	1227.205	0	16.2	4	5.1	4	-1E+10	1	-1E+10	1	-1E+10	1	-1E+10	1	-1E+10	1	-1E+10	1
4901784	182	C	06/28/2020	10:43	-132.174	42.914	0	1245.80	0	2.9350	0	37.2540	8	29.701	0	1232.235	0	16.4	4	5.1	4	-1E+10	1	-1E+10	1	-1E+10	1	-1E+10	1	-1E+10	1	-1E+10	1
4901784	182	C	06/28/2020	10:43	-132.174	42.914	0	1250.00	0	2.9280	0	37.2560	8	29.704	0	1236.377	0	16.5	4	5.2	4	-1E+10	1	-1E+10	1	-1E+10	1	-1E+10	1	-1E+10	1	-1E+10	1
4901784	182	C	06/28/2020	10:43	-132.174	42.914	0	1254.20	0	2.9200	0	37.2570	8	29.705	0	1240.519	0	16.7	4	5.3	4	-1E+10	1	-1E+10	1	-1E+10	1	-1E+10	1	-1E+10	1	-1E+10	1
4901784	182	C	06/28/2020	10:43	-132.174	42.914	0	1259.30	0	2.9150	0	37.2590	8	29.707	0	1245.548	0	16.9	4	5.3	4	-1E+10	1	-1E+10	1	-1E+10	1	-1E+10	1	-1E+10	1	-1E+10	1
4901784	182	C	06/28/2020	10:43	-132.174	42.914	0	1264.50	0	2.9040	0	37.2610	8	29.710	0	1250.676	0	17.1	4	5.4	4	-1E+10	1	-1E+10	1	-1E+10	1	-1E+10	1	-1E+10	1	-1E+10	1
4901784	182	C	06/28/2020	10:43	-132.174	42.914	0	1269.60	0	2.9020	0	37.2630	8	29.712	0	1255.705	0	17.5	4	5.5	4	-1E+10	1	-1E+10	1	-1E+10	1	-1E+10	1	-1E+10	1	-1E+10	1
4901784	182	C	06/28/2020	10:43	-132.174	42.914	0	1274.80	0	2.8940	0	37.2650	8	29.714	0	1260.832	0	17.7	4	5.6	4	-1E+10	1	-1E+10	1	-1E+10	1	-1E+10	1	-1E+10	1	-1E+10	1
4901784	182	C	06/28/2020	10:43	-132.174	42.914	0	1280.00	0	2.8870	0	37.2670	8	29.716	0	1265.960	0	17.9	4	5.6	4	-1E+10	1	-1E+10	1	-1E+10	1	-1E+10	1	-1E+10	1	-1E+10	1
4901784	182	C	06/28/2020	10:43	-132.174	42.914	0	1285.10	0	2.8850	0	37.2680	8	29.718	0	1270.988	0	18.1	4	5.7	4	-1E+10	1	-1E+10	1	-1E+10	1	-1E+10	1	-1E+10	1	-1E+10	1
4901784	182	C	06/28/2020	10:43	-132.174	42.914	0	1290.30	0	2.8750	0	37.2700	8	29.720	0	1276.116	0	18.3	4	5.7	4	-1E+10	1	-1E+10	1	-1E+10	1	-1E+10	1	-1E+10	1	-1E+10	1
4901784	182	C	06/28/2020	10:43	-132.174	42.914	0	1295.40	0	2.8650	0	37.2720	8	29.723	0	1281.144	0	18.4	4	5.8	4	-1E+10	1	-1E+10	1	-1E+10	1	-1E+10	1	-1E+10	1	-1E+10	1
4901784	182	C	06/28/2020	10:43	-132.174	42.914	0	1300.60	0	2.8620	0	37.2720	8	29.723	0	1286.271	0	18.5	4	5.8	4	-1E+10	1	-1E+10	1	-1E+10	1	-1E+10	1	-1E+10	1	-1E+10	1
4901784	182	C	06/28/2020	10:43	-132.174	42.914	0	1305.00	0	2.8550	0	37.2740	8	29.725	0	1290.609	0	18.6	4	5.9	4	-1E+10	1	-1E+10	1	-1E+10	1	-1E+10	1	-1E+10	1	-1E+10	1
4901784	182	C	06/28/2020	10:43	-132.174	42.914	0	1309.30	0	2.8520	0	37.2740	8	29.726	0	1294.848	0	18.8	4	5.9	4	-1E+10	1	-1E+10	1	-1E+10	1	-1E+10	1	-1E+10	1	-1E+10	1
4901784	182	C	06/28/2020	10:43	-132.174	42.914	0	1314.60	0	2.8430	0	37.2760	8	29.728	0	1300.074	0	18.9	4	5.9	4	-1E+10	1	-1E+10	1	-1E+10	1	-1E+10	1	-1E+10	1	-1E+10	1
4901784	182	C	06/28/2020	10:43	-132.174	42.914	0	1319.80	0	2.8380	0	37.2770	8	29.729	0	1305.200	0	19.1	4	6.0	4	-1E+10	1	-1E+10	1	-1E+10	1	-1E+10	1	-1E+10	1	-1E+10	1
4901784	182	C	06/28/2020	10:43	-132.174	42.914	0	1325.10	0	2.8300	0	37.2780	8	29.731	0	1310.425	0	19.4	4	6.1	4	-1E+10	1	-1E+10	1	-1E+10	1	-1E+10	1	-1E+10	1	-1E+10	1
4901784	182	C	06/28/2020	10:43	-132.174	42.914	0	1330.30	0	2.8160	0	37.2800	8	29.734	0	1315.551	0	19.7	4	6.2	4	-1E+10	1	-1E+10	1	-1E+10	1	-1E+10	1	-1E+10	1	-1E+10	1
4901784	182	C	06/28/2020	10:43	-132.174	42.914	0	1335.60	0	2.8030	0	37.2830	8	29.738	0	1320.776	0	19.9	4	6.2	4	-1E+10	1	-1E+10	1	-1E+10	1	-1E+10	1	-1E+10	1	-1E+10	1
4901784	182	C	06/28/2020	10:43	-132.174	42.914	0	1340.20	0	2.7960	0	37.2840	8	29.739	0	1325.310	0	19.9	4	6.3	4	-1E+10	1	-1E+10	1	-1E+10	1	-1E+10	1	-1E+10	1	-1E+10	1
4901784	182	C	06/28/2020	10:43	-132.174	42.914	0	1345.10	0	2.7860	0	37.2850	8	29.741	0	1330.140	0	20.0	4	6.3	4	-1E+10	1	-1E+10	1	-1E+10	1	-1E+10	1	-1E+10	1	-1E+10	1
4901784	182	C	06/28/2020	10:43	-132.174	42.914	0	1350.50	0	2.7810	0	37.2850	8	29.742	0	1335.463	0	20.2	4	6.3	4	-1E+10	1	-1E+10	1	-1E+10	1	-1E+10	1	-1E+10	1	-1E+10	1
4901784	182	C	06/28/2020	10:43	-132.174	42.914	0	1355.20	0	2.7760	0	37.2860	8	29.743	0	1340.096	0	20.5	4	6.4	4	-1E+10	1	-1E+10	1	-1E+10	1	-1E+10	1	-1E+10	1	-1E+10	1
4901784	182	C	06/28/2020	10:43	-132.174	42.914	0	1359.80	0	2.7620	0	37.2890	8	29.747	0	1344.630	0	20.7	4	6.5	4	-1E+10	1	-1E+10	1	-1E+10	1	-1E+10	1	-1E+10	1	-1E+10	1
4901784	182	C	06/28/2020	10:43	-132.174	42.914	0	1364.90	0	2.7560	0	37.2900	8	29.748	0	1349.657	0	20.9	4	6.5	4	-1E+10	1	-1E+10	1	-1E+10	1	-1E+10	1	-1E+10	1	-1E+10	1
4901784	182	C	06/28/2020	10:43	-132.174	42.914	0	1370.00	0	2.7470	0	37.2920	8	29.750	0	1354.683	0	21.1	4	6.6	4	-1E+10	1	-1E+10	1	-1E+10	1	-1E+10	1	-1E+10	1	-1E+10	1
4901784	182	C	06/28/2020	10:43	-132.174	42.914	0	1375.00	0	2.7410	0	37.2930	8	29.752	0	1359.611	0	21.2	4	6.7	4	-1E+10	1	-1E+10	1	-1E+10	1	-1E+10	1	-1E+10	1	-1E+10	1
4901784	182	C	06/28/2020	10:43	-132.174	42.914	0	1380.10	0	2.7340	0	37.2940	8	29.753	0	1364.638	0	21.4	4	6.7	4	-1E+10	1	-1E+10	1	-1E+10	1	-1E+10	1	-1E+10	1	-1E+10	1
4901784	182	C	06/28/2020	10:43	-132.174	42.914	0	1385.20	0	2.7270	0	37.2950	8	29.755	0	1369.664	0	21.6	4	6.8	4	-1E+10	1	-1E+10	1	-1E+10	1	-1E+10	1	-1E+10	1	-1E+10	1
4901784	182	C	06/28/2020	10:43	-132.174	42.914	0	1390.40	0	2.7220	0	37.2960	8	29.756	0	1374.789	0	21.7	4	6.8	4	-1E+10	1	-1E+10	1	-1E+10	1	-1E+10	1	-1E+10	1	-1E+10	1
4901784	182	C	06/28/2020	10:43	-132.174	42.914	0	1395.60	0	2.7160	0	37.2970	8	29.758	0	1379.914	0	21.9	4	6.9	4	-1E+10	1	-1E+10	1	-1E+10	1	-1E+10	1	-1E+10	1	-1E+10	1
4901784	182	C	06/28/2020	10:43	-132.174	42.914	0	1400.00	0	2.7070	0	37.2980	8	29.759	0	1384.250	0	22.2	4	6.9	4	-1E+10	1	-1E+10	1	-1E+10	1	-1E+10	1	-1E+10	1	-1E+10	1
4901784	182	C	06/28/2020	10:43	-132.174	42.914	0	1404.40	0	2.6900	0	37.2990	8	29.762	0	1388.586	0	22.5	4	7.0	4	-1E+10	1	-1E+10	1	-1E+10	1	-1E+10	1	-1E+10	1	-1E+10	1
4901784	182	C	06/28/2020	10:43	-132.174	42.914	0	1409.60	0	2.6730	0	37.3020	8	29.766	0	1393.710	0	22.9	4	7.2	4	-1E+10	1	-1E+10	1	-1E+10	1	-1E+10	1	-1E+10	1	-1E+10	1
4901784	182	C	06/28/2020	10:43	-132.174	42.914	0	1414.80	0	2.6640	0	37.3040	8	29.768	0	1398.834	0	23.2	4	7.2	4	-1E+10	1	-1E+10	1	-1E+10	1	-1E+10	1	-1E+10	1	-1E+10	1
4901784	182	C	06/28/2020	10:43	-132.174	42.914	0	1420.10	0	2.6590	0	37.3050	8	29.770	0	1404.057	0	23.4	4	7.3	4	-1E+10	1	-1E+10	1	-1E+10	1	-1E+10	1	-1E+10	1	-1E+10	1
4901784	182	C	06/28/2020	10:43	-132.174	42.914	0	1425.50	0	2.6470	0	37.3070	8	29.772	0	1409.378	0	23.7	4	7.4	4	-1E+10	1	-1E+10	1	-1E+10	1	-1E+10	1	-1E+10	1	-1E+10	1
4901784	182	C	06/28/2020	10:43	-132.174	42.914	0	1430.00	0	2.6390	0	37.3080	8	29.774	0	1413.812	0	24.0	4	7.5	4	-1E+10	1	-1E+10	1	-1E+10	1	-1E+10	1	-1E+10	1	-1E+10	1
4901784	182	C	06/28/2020	10:43	-132.174	42.914	0	1434.50	0	2.6270	0	37.3100	8	29.777	0	1418.246	0	24.3	4	7.6	4	-1E+10	1	-1E+10	1	-1E+10	1	-1E+10	1	-1E+10	1	-1E+10	1
4901784	182	C	06/28/2020	10:43	-132.174	42.914	0	1440.00	0	2.6180	0	37.3120	8	29.779	0	1423.665	0	24.6	4	7.7	4	-1E+10	1	-1E+10	1	-1E+10	1	-1E+10	1	-1E+10	1	-1E+10	1
4901784	182	C	06/28/2020	10:43	-132.174	42.914	0	1445.40	0	2.6080	0	37.3140	8	29.782	0	1428.985	0	24.9	4	7.8	4	-1E+10	1	-1E+10	1	-1E+10	1	-1E+10	1	-1E+10	1	-1E+10	1
4901784	182	C	06/28/2020	10:43	-132.174	42.914	0	1450.10	0	2.6010	0	37.3150	8	29.783	0	1433.616	0	25.0	4	7.8	4	-1E+10	1	-1E+10	1	-1E+10	1	-1E+10	1	-1E+10	1	-1E+10	1
4901784	182	C	06/28/2020	10:43	-132.174	42.914	0	1454.70	0	2.5970	0	37.3160	8	29.784	0	1438.148	0	25.2	4	7.9	4	-1E+10	1	-1E+10	1	-1E+10	1	-1E+10	1	-1E+10	1	-1E+10	1
4901784	182	C	06/28/2020	10:43	-132.174	42.914	0	1460.30	0	2.5890	0	37.3170	8	29.786	0	1443.665	0	25.4	4	7.9	4	-1E+10	1	-1E+10	1	-1E+10	1	-1E+10	1	-1E+10	1	-1E+10	1
4901784	182	C	06/28/2020	10:43	-132.174	42.914	0	1464.90	0	2.5820	0	37.3180	8	29.787	0	1448.197	0	25.6	4	8.0	4	-1E+10	1	-1E+10	1	-1E+10	1	-1E+10	1	-1E+10	1	-1E+10	1
4901784	182	C	06/28/2020	10:43	-132.174	42.914	0	1469.50	0	2.5760	0	37.3190	8	29.789	0	1452.729	0	25.8	4	8.0	4	-1E+10	1	-1E+10	1	-1E+10	1	-1E+10	1	-1E+10	1	-1E+10	1
4901784	182	C	06/28/2020	10:43	-132.174	42.914	0	1475.10	0	2.5730	0	37.3200	8	29.790	0	1458.246	0	25.9	4	8.1	4	-1E+10	1	-1E+10	1	-1E+10	1	-1E+10	1	-1E+10	1	-1E+10	1
4901784	182	C	06/28/2020	10:43	-132.174	42.914	0	1479.80	0	2.5700	0	37.3200	8	29.790	0	1462.876	0	26.1	4	8.2	4	-1E+10	1	-1E+10	1	-1E+10	1	-1E+10	1	-1E+10	1	-1E+10	1
4901784	182	C	06/28/2020	10:43	-132.174	42.914	0	1484.40	0	2.5600	0	37.3210	8	29.792	0	1467.407	0	26.4	4	8.2	4	-1E+10	1	-1E+10	1	-1E+10	1	-1E+10	1	-1E+10	1	-1E+10	1
4901784	182	C	06/28/2020	10:43	-132.174	42.914	0	1489.70	0	2.5510	0	37.3230	8	29.794	0	1472.628	0	26.8	4	8.4	4	-1E+10	1	-1E+10	1	-1E+10	1	-1E+10	1	-1E+10	1	-1E+10	1
4901784	182	C	06/28/2020	10:43	-132.174	42.914	0	1494.90	0	2.5360	0	37.3250	8	29.797	0	1477.750	0	27.1	4	8.5	4	-1E+10	1	-1E+10	1	-1E+10	1	-1E+10	1	-1E+10	1	-1E+10	1
4901784	182	C	06/28/2020	10:43	-132.174	42.914	0	1500.10	0	2.5260	0	37.3260	8	29.799	0	1482.872	0	27.5	4	8.6	4	-1E+10	1	-1E+10	1	-1E+10	1	-1E+10	1	-1E+10	1	-1E+10	1
4901784	182	C	06/28/2020	10:43	-132.174	42.914	0	1505.40	0	2.5170	0	37.3270	8	29.801	0	1488.093	0	27.7	4	8.7	4	-1E+10	1	-1E+10	1	-1E+10	1	-1E+10	1	-1E+10	1	-1E+10	1
4901784	182	C	06/28/2020	10:43	-132.174	42.914	0	1510.70	0	2.5090	0	37.3290	8	29.803	0	1493.313	0	28.0	4	8.7	4	-1E+10	1	-1E+10	1	-1E+10	1	-1E+10	1	-1E+10	1	-1E+10	1
4901784	182	C	06/28/2020	10:43	-132.174	42.914	0	1515.20	0	2.5020	0	37.3300	8	29.805	0	1497.745	0	28.3	4	8.8	4	-1E+10	1	-1E+10	1	-1E+10	1	-1E+10	1	-1E+10	1	-1E+10	1
4901784	182	C	06/28/2020	10:43	-132.174	42.914	0	1519.50	0	2.4940	0	37.3310	8	29.806	0	1501.981	0	28.6	4	8.9	4	-1E+10	1	-1E+10	1	-1E+10	1	-1E+10	1	-1E+10	1	-1E+10	1
4901784	182	C	06/28/2020	10:43	-132.174	42.914	0	1524.90	0	2.4860	0	37.3320	8	29.808	0	1507.299	0	29.0	4	9.0	4	-1E+10	1	-1E+10	1	-1E+10	1	-1E+10	1	-1E+10	1	-1E+10	1
4901784	182	C	06/28/2020	10:43	-132.174	42.914	0	1530.20	0	2.4730	0	37.3340	8	29.811	0	1512.519	0	29.4	4	9.2	4	-1E+10	1	-1E+10	1	-1E+10	1	-1E+10	1	-1E+10	1	-1E+10	1
4901784	182	C	06/28/2020	10:43	-132.174	42.914	0	1535.60	0	2.4620	0	37.3360	8	29.813	0	1517.837	0	29.7	4	9.3	4	-1E+10	1	-1E+10	1	-1E+10	1	-1E+10	1	-1E+10	1	-1E+10	1
4901784	182	C	06/28/2020	10:43	-132.174	42.914	0	1540.10	0	2.4580	0	37.3370	8	29.814	0	1522.269	0	30.0	4	9.4	4	-1E+10	1	-1E+10	1	-1E+10	1	-1E+10	1	-1E+10	1	-1E+10	1
4901784	182	C	06/28/2020	10:43	-132.174	42.914	0	1544.60	0	2.4500	0	37.3380	8	29.816	0	1526.701	0	30.5	4	9.5	4	-1E+10	1	-1E+10	1	-1E+10	1	-1E+10	1	-1E+10	1	-1E+10	1
4901784	182	C	06/28/2020	10:43	-132.174	42.914	0	1550.10	0	2.4350	0	37.3410	8	29.820	0	1532.117	0	30.9	4	9.6	4	-1E+10	1	-1E+10	1	-1E+10	1	-1E+10	1	-1E+10	1	-1E+10	1
4901784	182	C	06/28/2020	10:43	-132.174	42.914	0	1555.50	0	2.4270	0	37.3410	8	29.821	0	1537.435	0	31.2	4	9.7	4	-1E+10	1	-1E+10	1	-1E+10	1	-1E+10	1	-1E+10	1	-1E+10	1
4901784	182	C	06/28/2020	10:43	-132.174	42.914	0	1560.20	0	2.4190	0	37.3430	8	29.823	0	1542.063	0	31.5	4	9.8	4	-1E+10	1	-1E+10	1	-1E+10	1	-1E+10	1	-1E+10	1	-1E+10	1
4901784	182	C	06/28/2020	10:43	-132.174	42.914	0	1564.70	0	2.4090	0	37.3440	8	29.825	0	1546.494	0	31.9	4	9.9	4	-1E+10	1	-1E+10	1	-1E+10	1	-1E+10	1	-1E+10	1	-1E+10	1
4901784	182	C	06/28/2020	10:43	-132.174	42.914	0	1570.30	0	2.4010	0	37.3450	8	29.826	0	1552.009	0	32.2	4	10.0	4	-1E+10	1	-1E+10	1	-1E+10	1	-1E+10	1	-1E+10	1	-1E+10	1
4901784	182	C	06/28/2020	10:43	-132.174	42.914	0	1574.80	0	2.3900	0	37.3470	8	29.829	0	1556.440	0	32.7	4	10.2	4	-1E+10	1	-1E+10	1	-1E+10	1	-1E+10	1	-1E+10	1	-1E+10	1
4901784	182	C	06/28/2020	10:43	-132.174	42.914	0	1579.50	0	2.3790	0	37.3480	8	29.831	0	1561.067	0	33.0	4	10.3	4	-1E+10	1	-1E+10	1	-1E+10	1	-1E+10	1	-1E+10	1	-1E+10	1
4901784	182	C	06/28/2020	10:43	-132.174	42.914	0	1585.20	0	2.3700	0	37.3500	8	29.833	0	1566.680	0	33.5	4	10.4	4	-1E+10	1	-1E+10	1	-1E+10	1	-1E+10	1	-1E+10	1	-1E+10	1
4901784	182	C	06/28/2020	10:43	-132.174	42.914	0	1589.90	0	2.3610	0	37.3510	8	29.835	0	1571.308	0	33.9	4	10.5	4	-1E+10	1	-1E+10	1	-1E+10	1	-1E+10	1	-1E+10	1	-1E+10	1
4901784	182	C	06/28/2020	10:43	-132.174	42.914	0	1594.60	0	2.3530	0	37.3530	8	29.837	0	1575.935	0	34.2	4	10.6	4	-1E+10	1	-1E+10	1	-1E+10	1	-1E+10	1	-1E+10	1	-1E+10	1
4901784	182	C	06/28/2020	10:43	-132.174	42.914	0	1600.30	0	2.3450	0	37.3540	8	29.839	0	1581.547	0	34.5	4	10.7	4	-1E+10	1	-1E+10	1	-1E+10	1	-1E+10	1	-1E+10	1	-1E+10	1
4901784	182	C	06/28/2020	10:43	-132.174	42.914	0	1605.00	0	2.3370	0	37.3550	8	29.840	0	1586.174	0	34.9	4	10.8	4	-1E+10	1	-1E+10	1	-1E+10	1	-1E+10	1	-1E+10	1	-1E+10	1
4901784	182	C	06/28/2020	10:43	-132.174	42.914	0	1609.70	0	2.3290	0	37.3570	8	29.843	0	1590.802	0	35.1	4	10.9	4	-1E+10	1	-1E+10	1	-1E+10	1	-1E+10	1	-1E+10	1	-1E+10	1
4901784	182	C	06/28/2020	10:43	-132.174	42.914	0	1615.30	0	2.3220	0	37.3580	8	29.844	0	1596.315	0	35.5	4	11.0	4	-1E+10	1	-1E+10	1	-1E+10	1	-1E+10	1	-1E+10	1	-1E+10	1
4901784	182	C	06/28/2020	10:43	-132.174	42.914	0	1619.50	0	2.3170	0	37.3590	8	29.845	0	1600.450	0	35.7	4	11.1	4	-1E+10	1	-1E+10	1	-1E+10	1	-1E+10	1	-1E+10	1	-1E+10	1
4901784	182	C	06/28/2020	10:43	-132.174	42.914	0	1624.50	0	2.3120	0	37.3600	8	29.847	0	1605.372	0	36.0	4	11.2	4	-1E+10	1	-1E+10	1	-1E+10	1	-1E+10	1	-1E+10	1	-1E+10	1
4901784	182	C	06/28/2020	10:43	-132.174	42.914	0	1629.40	0	2.3060	0	37.3610	8	29.848	0	1610.195	0	36.3	4	11.3	4	-1E+10	1	-1E+10	1	-1E+10	1	-1E+10	1	-1E+10	1	-1E+10	1
4901784	182	C	06/28/2020	10:43	-132.174	42.914	0	1634.40	0	2.3010	0	37.3620	8	29.849	0	1615.117	0	36.5	4	11.3	4	-1E+10	1	-1E+10	1	-1E+10	1	-1E+10	1	-1E+10	1	-1E+10	1
4901784	182	C	06/28/2020	10:43	-132.174	42.914	0	1639.40	0	2.2930	0	37.3630	8	29.851	0	1620.039	0	36.9	4	11.4	4	-1E+10	1	-1E+10	1	-1E+10	1	-1E+10	1	-1E+10	1	-1E+10	1
4901784	182	C	06/28/2020	10:43	-132.174	42.914	0	1644.40	0	2.2870	0	37.3640	8	29.852	0	1624.961	0	37.2	4	11.5	4	-1E+10	1	-1E+10	1	-1E+10	1	-1E+10	1	-1E+10	1	-1E+10	1
4901784	182	C	06/28/2020	10:43	-132.174	42.914	0	1649.30	0	2.2810	0	37.3650	8	29.854	0	1629.784	0	37.5	4	11.6	4	-1E+10	1	-1E+10	1	-1E+10	1	-1E+10	1	-1E+10	1	-1E+10	1
4901784	182	C	06/28/2020	10:43	-132.174	42.914	0	1654.30	0	2.2720	0	37.3660	8	29.855	0	1634.706	0	37.9	4	11.8	4	-1E+10	1	-1E+10	1	-1E+10	1	-1E+10	1	-1E+10	1	-1E+10	1
4901784	182	C	06/28/2020	10:43	-132.174	42.914	0	1659.40	0	2.2650	0	37.3680	8	29.857	0	1639.726	0	38.2	4	11.8	4	-1E+10	1	-1E+10	1	-1E+10	1	-1E+10	1	-1E+10	1	-1E+10	1
4901784	182	C	06/28/2020	10:43	-132.174	42.914	0	1664.40	0	2.2620	0	37.3680	8	29.858	0	1644.647	0	38.5	4	11.9	4	-1E+10	1	-1E+10	1	-1E+10	1	-1E+10	1	-1E+10	1	-1E+10	1
4901784	182	C	06/28/2020	10:43	-132.174	42.914	0	1669.50	0	2.2530	0	37.3700	8	29.860	0	1649.667	0	38.9	4	12.1	4	-1E+10	1	-1E+10	1	-1E+10	1	-1E+10	1	-1E+10	1	-1E+10	1
4901784	182	C	06/28/2020	10:43	-132.174	42.914	0	1674.60	0	2.2440	0	37.3710	8	29.862	0	1654.686	0	39.4	4	12.2	4	-1E+10	1	-1E+10	1	-1E+10	1	-1E+10	1	-1E+10	1	-1E+10	1
4901784	182	C	06/28/2020	10:43	-132.174	42.914	0	1679.70	0	2.2380	0	37.3720	8	29.863	0	1659.706	0	39.7	4	12.3	4	-1E+10	1	-1E+10	1	-1E+10	1	-1E+10	1	-1E+10	1	-1E+10	1
4901784	182	C	06/28/2020	10:43	-132.174	42.914	0	1684.90	0	2.2270	0	37.3740	8	29.866	0	1664.823	0	40.2	4	12.5	4	-1E+10	1	-1E+10	1	-1E+10	1	-1E+10	1	-1E+10	1	-1E+10	1
4901784	182	C	06/28/2020	10:43	-132.174	42.914	0	1690.10	0	2.2160	0	37.3760	8	29.868	0	1669.941	0	40.7	4	12.6	4	-1E+10	1	-1E+10	1	-1E+10	1	-1E+10	1	-1E+10	1	-1E+10	1
4901784	182	C	06/28/2020	10:43	-132.174	42.914	0	1695.40	0	2.2110	0	37.3760	8	29.869	0	1675.157	0	41.0	4	12.7	4	-1E+10	1	-1E+10	1	-1E+10	1	-1E+10	1	-1E+10	1	-1E+10	1
4901784	182	C	06/28/2020	10:43	-132.174	42.914	0	1700.60	0	2.2060	0	37.3770	8	29.870	0	1680.274	0	41.3	4	12.8	4	-1E+10	1	-1E+10	1	-1E+10	1	-1E+10	1	-1E+10	1	-1E+10	1
4901784	182	C	06/28/2020	10:43	-132.174	42.914	0	1704.90	0	2.2030	0	37.3780	8	29.871	0	1684.506	0	41.7	4	12.9	4	-1E+10	1	-1E+10	1	-1E+10	1	-1E+10	1	-1E+10	1	-1E+10	1
4901784	182	C	06/28/2020	10:43	-132.174	42.914	0	1709.30	0	2.1920	0	37.3800	8	29.874	0	1688.836	0	42.2	4	13.0	4	-1E+10	1	-1E+10	1	-1E+10	1	-1E+10	1	-1E+10	1	-1E+10	1
4901784	182	C	06/28/2020	10:43	-132.174	42.914	0	1714.60	0	2.1830	0	37.3810	8	29.875	0	1694.051	0	42.5	4	13.2	4	-1E+10	1	-1E+10	1	-1E+10	1	-1E+10	1	-1E+10	1	-1E+10	1
4901784	182	C	06/28/2020	10:43	-132.174	42.914	0	1720.00	0	2.1780	0	37.3820	8	29.877	0	1699.365	0	42.8	4	13.2	4	-1E+10	1	-1E+10	1	-1E+10	1	-1E+10	1	-1E+10	1	-1E+10	1
4901784	182	C	06/28/2020	10:43	-132.174	42.914	0	1725.40	0	2.1720	0	37.3830	8	29.878	0	1704.678	0	43.1	4	13.3	4	-1E+10	1	-1E+10	1	-1E+10	1	-1E+10	1	-1E+10	1	-1E+10	1
4901784	182	C	06/28/2020	10:43	-132.174	42.914	0	1730.00	0	2.1680	0	37.3840	8	29.879	0	1709.204	0	43.4	4	13.4	4	-1E+10	1	-1E+10	1	-1E+10	1	-1E+10	1	-1E+10	1	-1E+10	1
4901784	182	C	06/28/2020	10:43	-132.174	42.914	0	1734.50	0	2.1640	0	37.3850	8	29.880	0	1713.632	0	43.7	4	13.5	4	-1E+10	1	-1E+10	1	-1E+10	1	-1E+10	1	-1E+10	1	-1E+10	1
4901784	182	C	06/28/2020	10:43	-132.174	42.914	0	1739.90	0	2.1590	0	37.3860	8	29.882	0	1718.945	0	44.0	4	13.6	4	-1E+10	1	-1E+10	1	-1E+10	1	-1E+10	1	-1E+10	1	-1E+10	1
4901784	182	C	06/28/2020	10:43	-132.174	42.914	0	1745.40	0	2.1520	0	37.3870	8	29.883	0	1724.357	0	44.3	4	13.7	4	-1E+10	1	-1E+10	1	-1E+10	1	-1E+10	1	-1E+10	1	-1E+10	1
4901784	182	C	06/28/2020	10:43	-132.174	42.914	0	1750.00	0	2.1500	0	37.3870	8	29.883	0	1728.883	0	44.5	4	13.8	4	-1E+10	1	-1E+10	1	-1E+10	1	-1E+10	1	-1E+10	1	-1E+10	1
4901784	182	C	06/28/2020	10:43	-132.174	42.914	0	1754.40	0	2.1450	0	37.3880	8	29.885	0	1733.212	0	44.8	4	13.9	4	-1E+10	1	-1E+10	1	-1E+10	1	-1E+10	1	-1E+10	1	-1E+10	1
4901784	182	C	06/28/2020	10:43	-132.174	42.914	0	1759.80	0	2.1390	0	37.3890	8	29.886	0	1738.524	0	45.2	4	14.0	4	-1E+10	1	-1E+10	1	-1E+10	1	-1E+10	1	-1E+10	1	-1E+10	1
4901784	182	C	06/28/2020	10:43	-132.174	42.914	0	1765.30	0	2.1340	0	37.3900	8	29.887	0	1743.935	0	45.6	4	14.1	4	-1E+10	1	-1E+10	1	-1E+10	1	-1E+10	1	-1E+10	1	-1E+10	1
4901784	182	C	06/28/2020	10:43	-132.174	42.914	0	1769.90	0	2.1310	0	37.3910	8	29.888	0	1748.461	0	46.0	4	14.2	4	-1E+10	1	-1E+10	1	-1E+10	1	-1E+10	1	-1E+10	1	-1E+10	1
4901784	182	C	06/28/2020	10:43	-132.174	42.914	0	1774.80	0	2.1220	0	37.3930	8	29.891	0	1753.281	0	46.5	4	14.4	4	-1E+10	1	-1E+10	1	-1E+10	1	-1E+10	1	-1E+10	1	-1E+10	1
4901784	182	C	06/28/2020	10:43	-132.174	42.914	0	1780.00	0	2.1110	0	37.3950	8	29.893	0	1758.396	0	46.9	4	14.5	4	-1E+10	1	-1E+10	1	-1E+10	1	-1E+10	1	-1E+10	1	-1E+10	1
4901784	182	C	06/28/2020	10:43	-132.174	42.914	0	1784.80	0	2.1070	0	37.3960	8	29.895	0	1763.118	0	47.1	4	14.6	4	-1E+10	1	-1E+10	1	-1E+10	1	-1E+10	1	-1E+10	1	-1E+10	1
4901784	182	C	06/28/2020	10:43	-132.174	42.914	0	1789.80	0	2.1040	0	37.3960	8	29.895	0	1768.037	0	47.4	4	14.6	4	-1E+10	1	-1E+10	1	-1E+10	1	-1E+10	1	-1E+10	1	-1E+10	1
4901784	182	C	06/28/2020	10:43	-132.174	42.914	0	1794.70	0	2.1020	0	37.3970	8	29.896	0	1772.857	0	47.5	4	14.7	4	-1E+10	1	-1E+10	1	-1E+10	1	-1E+10	1	-1E+10	1	-1E+10	1
4901784	182	C	06/28/2020	10:43	-132.174	42.914	0	1799.70	0	2.0990	0	37.3970	8	29.896	0	1777.775	0	47.7	4	14.7	4	-1E+10	1	-1E+10	1	-1E+10	1	-1E+10	1	-1E+10	1	-1E+10	1
4901784	182	C	06/28/2020	10:43	-132.174	42.914	0	1804.60	0	2.0970	0	37.3980	8	29.897	0	1782.595	0	47.9	4	14.8	4	-1E+10	1	-1E+10	1	-1E+10	1	-1E+10	1	-1E+10	1	-1E+10	1
4901784	182	C	06/28/2020	10:43	-132.174	42.914	0	1809.60	0	2.0930	0	37.3980	8	29.898	0	1787.513	0	48.1	4	14.9	4	-1E+10	1	-1E+10	1	-1E+10	1	-1E+10	1	-1E+10	1	-1E+10	1
4901784	182	C	06/28/2020	10:43	-132.174	42.914	0	1814.60	0	2.0890	0	37.3990	8	29.899	0	1792.430	0	48.4	4	15.0	4	-1E+10	1	-1E+10	1	-1E+10	1	-1E+10	1	-1E+10	1	-1E+10	1
4901784	182	C	06/28/2020	10:43	-132.174	42.914	0	1819.60	0	2.0850	0	37.4000	8	29.900	0	1797.348	0	48.8	4	15.1	4	-1E+10	1	-1E+10	1	-1E+10	1	-1E+10	1	-1E+10	1	-1E+10	1
4901784	182	C	06/28/2020	10:43	-132.174	42.914	0	1824.70	0	2.0800	0	37.4010	8	29.901	0	1802.364	0	49.2	4	15.2	4	-1E+10	1	-1E+10	1	-1E+10	1	-1E+10	1	-1E+10	1	-1E+10	1
4901784	182	C	06/28/2020	10:43	-132.174	42.914	0	1829.70	0	2.0740	0	37.4020	8	29.903	0	1807.282	0	49.5	4	15.3	4	-1E+10	1	-1E+10	1	-1E+10	1	-1E+10	1	-1E+10	1	-1E+10	1
4901784	182	C	06/28/2020	10:43	-132.174	42.914	0	1834.70	0	2.0690	0	37.4030	8	29.904	0	1812.199	0	49.9	4	15.4	4	-1E+10	1	-1E+10	1	-1E+10	1	-1E+10	1	-1E+10	1	-1E+10	1
4901784	182	C	06/28/2020	10:43	-132.174	42.914	0	1839.80	0	2.0630	0	37.4040	8	29.905	0	1817.215	0	50.3	4	15.5	4	-1E+10	1	-1E+10	1	-1E+10	1	-1E+10	1	-1E+10	1	-1E+10	1
4901784	182	C	06/28/2020	10:43	-132.174	42.914	0	1844.90	0	2.0580	0	37.4050	8	29.906	0	1822.231	0	50.7	4	15.6	4	-1E+10	1	-1E+10	1	-1E+10	1	-1E+10	1	-1E+10	1	-1E+10	1
4901784	182	C	06/28/2020	10:43	-132.174	42.914	0	1850.00	0	2.0520	0	37.4060	8	29.908	0	1827.246	0	51.2	4	15.8	4	-1E+10	1	-1E+10	1	-1E+10	1	-1E+10	1	-1E+10	1	-1E+10	1
4901784	182	C	06/28/2020	10:43	-132.174	42.914	0	1855.20	0	2.0430	0	37.4080	8	29.910	0	1832.360	0	51.9	4	16.0	4	-1E+10	1	-1E+10	1	-1E+10	1	-1E+10	1	-1E+10	1	-1E+10	1
4901784	182	C	06/28/2020	10:43	-132.174	42.914	0	1860.30	0	2.0400	0	37.4090	8	29.911	0	1837.375	0	52.2	4	16.1	4	-1E+10	1	-1E+10	1	-1E+10	1	-1E+10	1	-1E+10	1	-1E+10	1
4901784	182	C	06/28/2020	10:43	-132.174	42.914	0	1865.40	0	2.0360	0	37.4100	8	29.912	0	1842.390	0	52.6	4	16.2	4	-1E+10	1	-1E+10	1	-1E+10	1	-1E+10	1	-1E+10	1	-1E+10	1
4901784	182	C	06/28/2020	10:43	-132.174	42.914	0	1870.60	0	2.0320	0	37.4110	8	29.914	0	1847.503	0	53.0	4	16.3	4	-1E+10	1	-1E+10	1	-1E+10	1	-1E+10	1	-1E+10	1	-1E+10	1
4901784	182	C	06/28/2020	10:43	-132.174	42.914	0	1874.90	0	2.0300	0	37.4110	8	29.914	0	1851.731	0	53.2	4	16.4	4	-1E+10	1	-1E+10	1	-1E+10	1	-1E+10	1	-1E+10	1	-1E+10	1
4901784	182	C	06/28/2020	10:43	-132.174	42.914	0	1879.30	0	2.0270	0	37.4120	8	29.915	0	1856.058	0	53.5	4	16.5	4	-1E+10	1	-1E+10	1	-1E+10	1	-1E+10	1	-1E+10	1	-1E+10	1
4901784	182	C	06/28/2020	10:43	-132.174	42.914	0	1884.50	0	2.0220	0	37.4130	8	29.916	0	1861.171	0	53.9	4	16.6	4	-1E+10	1	-1E+10	1	-1E+10	1	-1E+10	1	-1E+10	1	-1E+10	1
4901784	182	C	06/28/2020	10:43	-132.174	42.914	0	1889.80	0	2.0170	0	37.4140	8	29.917	0	1866.382	0	54.3	4	16.7	4	-1E+10	1	-1E+10	1	-1E+10	1	-1E+10	1	-1E+10	1	-1E+10	1
4901784	182	C	06/28/2020	10:43	-132.174	42.914	0	1895.10	0	2.0100	0	37.4150	8	29.919	0	1871.593	0	54.5	4	16.8	4	-1E+10	1	-1E+10	1	-1E+10	1	-1E+10	1	-1E+10	1	-1E+10	1
4901784	182	C	06/28/2020	10:43	-132.174	42.914	0	1900.50	0	2.0060	0	37.4150	8	29.919	0	1876.902	0	54.8	4	16.9	4	-1E+10	1	-1E+10	1	-1E+10	1	-1E+10	1	-1E+10	1	-1E+10	1
4901784	182	C	06/28/2020	10:43	-132.174	42.914	0	1904.90	0	2.0020	0	37.4170	8	29.921	0	1881.228	0	55.1	4	17.0	4	-1E+10	1	-1E+10	1	-1E+10	1	-1E+10	1	-1E+10	1	-1E+10	1
4901784	182	C	06/28/2020	10:43	-132.174	42.914	0	1909.40	0	1.9990	0	37.4160	8	29.921	0	1885.652	0	55.4	4	17.1	4	-1E+10	1	-1E+10	1	-1E+10	1	-1E+10	1	-1E+10	1	-1E+10	1
4901784	182	C	06/28/2020	10:43	-132.174	42.914	0	1914.80	0	1.9940	0	37.4170	8	29.922	0	1890.961	0	55.7	4	17.2	4	-1E+10	1	-1E+10	1	-1E+10	1	-1E+10	1	-1E+10	1	-1E+10	1
4901784	182	C	06/28/2020	10:43	-132.174	42.914	0	1920.30	0	1.9910	0	37.4180	8	29.923	0	1896.368	0	56.1	4	17.3	4	-1E+10	1	-1E+10	1	-1E+10	1	-1E+10	1	-1E+10	1	-1E+10	1
4901784	182	C	06/28/2020	10:43	-132.174	42.914	0	1924.80	0	1.9850	0	37.4190	8	29.924	0	1900.792	0	56.4	4	17.4	4	-1E+10	1	-1E+10	1	-1E+10	1	-1E+10	1	-1E+10	1	-1E+10	1
4901784	182	C	06/28/2020	10:43	-132.174	42.914	0	1929.60	0	1.9830	0	37.4200	8	29.925	0	1905.511	0	56.7	4	17.5	4	-1E+10	1	-1E+10	1	-1E+10	1	-1E+10	1	-1E+10	1	-1E+10	1
4901784	182	C	06/28/2020	10:43	-132.174	42.914	0	1934.80	0	1.9770	0	37.4210	8	29.927	0	1910.622	0	57.1	4	17.6	4	-1E+10	1	-1E+10	1	-1E+10	1	-1E+10	1	-1E+10	1	-1E+10	1
4901784	182	C	06/28/2020	10:43	-132.174	42.914	0	1939.60	0	1.9750	0	37.4220	8	29.928	0	1915.341	0	57.3	4	17.6	4	-1E+10	1	-1E+10	1	-1E+10	1	-1E+10	1	-1E+10	1	-1E+10	1
4901784	182	C	06/28/2020	10:43	-132.174	42.914	0	1944.50	0	1.9730	0	37.4220	8	29.928	0	1920.157	0	57.3	4	17.7	4	-1E+10	1	-1E+10	1	-1E+10	1	-1E+10	1	-1E+10	1	-1E+10	1
4901784	182	C	06/28/2020	10:43	-132.174	42.914	0	1949.30	0	1.9650	0	37.4220	8	29.929	0	1924.876	0	57.4	4	17.7	4	-1E+10	1	-1E+10	1	-1E+10	1	-1E+10	1	-1E+10	1	-1E+10	1
4901784	182	C	06/28/2020	10:43	-132.174	42.914	0	1955.00	0	1.9600	0	37.4220	8	29.929	0	1930.478	0	57.6	4	17.7	4	-1E+10	1	-1E+10	1	-1E+10	1	-1E+10	1	-1E+10	1	-1E+10	1
4901784	182	C	06/28/2020	10:43	-132.174	42.914	0	1960.80	0	1.9550	0	37.4230	8	29.930	0	1936.179	0	57.9	4	17.8	4	-1E+10	1	-1E+10	1	-1E+10	1	-1E+10	1	-1E+10	1	-1E+10	1
4901784	182	C	06/28/2020	10:43	-132.174	42.914	0	1965.70	0	1.9510	0	37.4240	8	29.932	0	1940.995	0	58.1	4	17.9	4	-1E+10	1	-1E+10	1	-1E+10	1	-1E+10	1	-1E+10	1	-1E+10	1
4901784	182	C	06/28/2020	10:43	-132.174	42.914	0	1970.70	0	1.9470	0	37.4240	8	29.932	0	1945.910	0	58.5	4	18.0	4	-1E+10	1	-1E+10	1	-1E+10	1	-1E+10	1	-1E+10	1	-1E+10	1
4901784	182	C	06/28/2020	10:43	-132.174	42.914	0	1975.60	0	1.9430	0	37.4250	8	29.933	0	1950.726	0	58.8	4	18.1	4	-1E+10	1	-1E+10	1	-1E+10	1	-1E+10	1	-1E+10	1	-1E+10	1
4901784	182	C	06/28/2020	10:43	-132.174	42.914	0	1980.70	0	1.9380	0	37.4260	8	29.934	0	1955.738	0	59.1	4	18.2	4	-1E+10	1	-1E+10	1	-1E+10	1	-1E+10	1	-1E+10	1	-1E+10	1
4901784	182	C	06/28/2020	10:43	-132.174	42.914	0	1985.70	0	1.9340	0	37.4270	8	29.936	0	1960.652	0	59.3	4	18.2	4	-1E+10	1	-1E+10	1	-1E+10	1	-1E+10	1	-1E+10	1	-1E+10	1
4901784	182	C	06/28/2020	10:43	-132.174	42.914	0	1990.00	0	1.9310	0	37.4270	8	29.936	0	1964.878	0	59.4	4	18.3	4	-1E+10	1	-1E+10	1	-1E+10	1	-1E+10	1	-1E+10	1	-1E+10	1
4901784	182	C	06/28/2020	10:43	-132.174	42.914	0	1994.30	0	1.9280	0	37.4280	8	29.937	0	1969.104	0	59.6	4	18.3	4	-1E+10	1	-1E+10	1	-1E+10	1	-1E+10	1	-1E+10	1	-1E+10	1
4901784	182	C	06/28/2020	10:43	-132.174	42.914	0	1999.40	0	1.9270	0	37.4280	8	29.937	0	1974.116	0	59.7	4	18.4	4	-1E+10	1	-1E+10	1	-1E+10	1	-1E+10	1	-1E+10	1	-1E+10	1
4901784	182	C	06/28/2020	10:43	-132.174	42.914	0	2004.60	0	1.9250	0	37.4290	8	29.938	0	1979.226	0	60.1	4	18.5	4	-1E+10	1	-1E+10	1	-1E+10	1	-1E+10	1	-1E+10	1	-1E+10	1
4901784	182	C	06/28/2020	10:43	-132.174	42.914	0	2010.10	0	1.9250	0	37.4290	8	29.938	0	1984.631	0	60.3	4	18.5	4	-1E+10	1	-1E+10	1	-1E+10	1	-1E+10	1	-1E+10	1	-1E+10	1
4901784	182	C	06/28/2020	10:43	-132.174	42.914	0	2015.00	0	1.9240	0	37.4300	8	29.939	0	1989.446	0	60.6	4	18.6	4	-1E+10	1	-1E+10	1	-1E+10	1	-1E+10	1	-1E+10	1	-1E+10	1
4901784	182	C	06/28/2020	10:43	-132.174	42.914	0	2019.80	0	1.9210	0	37.4300	8	29.939	0	1994.163	0	60.8	4	18.7	4	-1E+10	1	-1E+10	1	-1E+10	1	-1E+10	1	-1E+10	1	-1E+10	1
4901784	182	C	06/28/2020	10:43	-132.174	42.914	0																										
4901784	183	C	07/08/2020	10:46	-132.225	42.913	0	3.20	0	16.0610	0	35.0620	8	25.782	0	3.175	0	236.6	4	97.5	4	-1E+10	1	-1E+10	1	-1E+10	1	-1E+10	1	-1E+10	1	-1E+10	1
4901784	183	C	07/08/2020	10:46	-132.225	42.913	0	4.90	0	16.0620	0	35.0620	8	25.782	0	4.861	0	236.6	4	97.5	4	-1E+10	1	-1E+10	1	-1E+10	1	-1E+10	1	-1E+10	1	-1E+10	1
4901784	183	C	07/08/2020	10:46	-132.225	42.913	0	6.60	0	16.0630	0	35.0620	8	25.782	0	6.548	0	236.7	4	97.6	4	-1E+10	1	-1E+10	1	-1E+10	1	-1E+10	1	-1E+10	1	-1E+10	1
4901784	183	C	07/08/2020	10:46	-132.225	42.913	0	8.30	0	16.0620	0	35.0610	8	25.782	0	8.234	0	236.5	4	97.5	4	-1E+10	1	-1E+10	1	-1E+10	1	-1E+10	1	-1E+10	1	-1E+10	1
4901784	183	C	07/08/2020	10:46	-132.225	42.913	0	10.10	0	16.0630	0	35.0590	8	25.780	0	10.020	0	236.3	4	97.4	4	-1E+10	1	-1E+10	1	-1E+10	1	-1E+10	1	-1E+10	1	-1E+10	1
4901784	183	C	07/08/2020	10:46	-132.225	42.913	0	11.80	0	16.0250	0	35.0610	8	25.790	0	11.706	0	236.3	4	97.3	4	-1E+10	1	-1E+10	1	-1E+10	1	-1E+10	1	-1E+10	1	-1E+10	1
4901784	183	C	07/08/2020	10:46	-132.225	42.913	0	13.50	0	15.8730	0	35.0690	8	25.831	0	13.393	0	236.9	4	97.3	4	-1E+10	1	-1E+10	1	-1E+10	1	-1E+10	1	-1E+10	1	-1E+10	1
4901784	183	C	07/08/2020	10:46	-132.225	42.913	0	15.30	0	15.8500	0	35.0700	8	25.837	0	15.178	0	236.8	4	97.2	4	-1E+10	1	-1E+10	1	-1E+10	1	-1E+10	1	-1E+10	1	-1E+10	1
4901784	183	C	07/08/2020	10:46	-132.225	42.913	0	17.10	0	15.8120	0	35.0700	8	25.846	0	16.964	0	236.9	4	97.2	4	-1E+10	1	-1E+10	1	-1E+10	1	-1E+10	1	-1E+10	1	-1E+10	1
4901784	183	C	07/08/2020	10:46	-132.225	42.913	0	18.80	0	15.7690	0	35.0710	8	25.856	0	18.650	0	236.9	4	97.1	4	-1E+10	1	-1E+10	1	-1E+10	1	-1E+10	1	-1E+10	1	-1E+10	1
4901784	183	C	07/08/2020	10:46	-132.225	42.913	0	20.60	0	15.7220	0	35.0750	8	25.870	0	20.436	0	237.0	4	97.0	4	-1E+10	1	-1E+10	1	-1E+10	1	-1E+10	1	-1E+10	1	-1E+10	1
4901784	183	C	07/08/2020	10:46	-132.225	42.913	0	22.50	0	15.7080	0	35.0740	8	25.873	0	22.320	0	237.1	4	97.1	4	-1E+10	1	-1E+10	1	-1E+10	1	-1E+10	1	-1E+10	1	-1E+10	1
4901784	183	C	07/08/2020	10:46	-132.225	42.913	0	24.30	0	15.6860	0	35.0770	8	25.880	0	24.106	0	237.1	4	97.0	4	-1E+10	1	-1E+10	1	-1E+10	1	-1E+10	1	-1E+10	1	-1E+10	1
4901784	183	C	07/08/2020	10:46	-132.225	42.913	0	26.20	0	15.6690	0	35.0760	8	25.883	0	25.991	0	236.9	4	96.9	4	-1E+10	1	-1E+10	1	-1E+10	1	-1E+10	1	-1E+10	1	-1E+10	1
4901784	183	C	07/08/2020	10:46	-132.225	42.913	0	28.00	0	15.6620	0	35.0760	8	25.885	0	27.776	0	237.1	4	97.0	4	-1E+10	1	-1E+10	1	-1E+10	1	-1E+10	1	-1E+10	1	-1E+10	1
4901784	183	C	07/08/2020	10:46	-132.225	42.913	0	29.80	0	15.6570	0	35.0760	8	25.886	0	29.562	0	237.1	4	97.0	4	-1E+10	1	-1E+10	1	-1E+10	1	-1E+10	1	-1E+10	1	-1E+10	1
4901784	183	C	07/08/2020	10:46	-132.225	42.913	0	31.60	0	15.6520	0	35.0760	8	25.887	0	31.347	0	237.2	4	97.0	4	-1E+10	1	-1E+10	1	-1E+10	1	-1E+10	1	-1E+10	1	-1E+10	1
4901784	183	C	07/08/2020	10:46	-132.225	42.913	0	33.40	0	15.6510	0	35.0770	8	25.888	0	33.133	0	237.5	4	97.1	4	-1E+10	1	-1E+10	1	-1E+10	1	-1E+10	1	-1E+10	1	-1E+10	1
4901784	183	C	07/08/2020	10:46	-132.225	42.913	0	35.20	0	15.6490	0	35.0770	8	25.889	0	34.918	0	237.8	4	97.2	4	-1E+10	1	-1E+10	1	-1E+10	1	-1E+10	1	-1E+10	1	-1E+10	1
4901784	183	C	07/08/2020	10:46	-132.225	42.913	0	37.20	0	15.6380	0	35.0740	8	25.889	0	36.902	0	238.4	4	97.5	4	-1E+10	1	-1E+10	1	-1E+10	1	-1E+10	1	-1E+10	1	-1E+10	1
4901784	183	C	07/08/2020	10:46	-132.225	42.913	0	37.70	0	15.6370	0	35.0720	8	25.888	0	37.398	0	238.9	4	97.7	4	-1E+10	1	-1E+10	1	-1E+10	1	-1E+10	1	-1E+10	1	-1E+10	1
4901784	183	C	07/08/2020	10:46	-132.225	42.913	0	39.20	0	15.6280	0	35.0630	8	25.883	0	38.886	0	240.1	4	98.1	4	-1E+10	1	-1E+10	1	-1E+10	1	-1E+10	1	-1E+10	1	-1E+10	1
4901784	183	C	07/08/2020	10:46	-132.225	42.913	0	40.50	0	15.6170	0	35.0500	8	25.875	0	40.175	0	241.7	4	98.7	4	-1E+10	1	-1E+10	1	-1E+10	1	-1E+10	1	-1E+10	1	-1E+10	1
4901784	183	C	07/08/2020	10:46	-132.225	42.913	0	41.90	0	15.5260	0	35.0250	8	25.877	0	41.564	0	244.4	4	99.7	4	-1E+10	1	-1E+10	1	-1E+10	1	-1E+10	1	-1E+10	1	-1E+10	1
4901784	183	C	07/08/2020	10:46	-132.225	42.913	0	43.30	0	15.0980	0	35.0140	8	25.963	0	42.952	0	248.8	4	100.6	4	-1E+10	1	-1E+10	1	-1E+10	1	-1E+10	1	-1E+10	1	-1E+10	1
4901784	183	C	07/08/2020	10:46	-132.225	42.913	0	44.80	0	14.8230	0	34.9880	8	26.004	0	44.440	0	252.5	4	101.5	4	-1E+10	1	-1E+10	1	-1E+10	1	-1E+10	1	-1E+10	1	-1E+10	1
4901784	183	C	07/08/2020	10:46	-132.225	42.913	0	46.20	0	14.1680	0	34.9800	8	26.138	0	45.829	0	257.4	4	102.2	4	-1E+10	1	-1E+10	1	-1E+10	1	-1E+10	1	-1E+10	1	-1E+10	1
4901784	183	C	07/08/2020	10:46	-132.225	42.913	0	47.60	0	13.8450	0	35.0140	8	26.233	0	47.217	0	260.4	4	102.7	4	-1E+10	1	-1E+10	1	-1E+10	1	-1E+10	1	-1E+10	1	-1E+10	1
4901784	183	C	07/08/2020	10:46	-132.225	42.913	0	49.20	0	13.6090	0	35.0580	8	26.316	0	48.804	0	262.2	4	103.0	4	-1E+10	1	-1E+10	1	-1E+10	1	-1E+10	1	-1E+10	1	-1E+10	1
4901784	183	C	07/08/2020	10:46	-132.225	42.913	0	50.80	0	13.2930	0	35.0530	8	26.377	0	50.391	0	264.9	4	103.4	4	-1E+10	1	-1E+10	1	-1E+10	1	-1E+10	1	-1E+10	1	-1E+10	1
4901784	183	C	07/08/2020	10:46	-132.225	42.913	0	52.60	0	12.5610	0	35.0770	8	26.542	0	52.176	0	267.7	4	102.9	4	-1E+10	1	-1E+10	1	-1E+10	1	-1E+10	1	-1E+10	1	-1E+10	1
4901784	183	C	07/08/2020	10:46	-132.225	42.913	0	54.30	0	12.1680	0	35.0730	8	26.615	0	53.863	0	271.5	4	103.5	4	-1E+10	1	-1E+10	1	-1E+10	1	-1E+10	1	-1E+10	1	-1E+10	1
4901784	183	C	07/08/2020	10:46	-132.225	42.913	0	56.30	0	11.6830	0	35.1020	8	26.730	0	55.846	0	272.7	4	103.0	4	-1E+10	1	-1E+10	1	-1E+10	1	-1E+10	1	-1E+10	1	-1E+10	1
4901784	183	C	07/08/2020	10:46	-132.225	42.913	0	56.80	0	11.6170	0	35.0990	8	26.741	0	56.342	0	274.0	4	103.3	4	-1E+10	1	-1E+10	1	-1E+10	1	-1E+10	1	-1E+10	1	-1E+10	1
4901784	183	C	07/08/2020	10:46	-132.225	42.913	0	58.30	0	11.3210	0	35.1190	8	26.811	0	57.830	0	274.5	4	102.9	4	-1E+10	1	-1E+10	1	-1E+10	1	-1E+10	1	-1E+10	1	-1E+10	1
4901784	183	C	07/08/2020	10:46	-132.225	42.913	0	59.70	0	11.3350	0	35.1330	8	26.820	0	59.218	0	273.4	4	102.5	4	-1E+10	1	-1E+10	1	-1E+10	1	-1E+10	1	-1E+10	1	-1E+10	1
4901784	183	C	07/08/2020	10:46	-132.225	42.913	0	61.10	0	11.3550	0	35.1340	8	26.817	0	60.607	0	271.2	4	101.7	4	-1E+10	1	-1E+10	1	-1E+10	1	-1E+10	1	-1E+10	1	-1E+10	1
4901784	183	C	07/08/2020	10:46	-132.225	42.913	0	62.60	0	11.3340	0	35.1390	8	26.825	0	62.094	0	268.7	4	100.8	4	-1E+10	1	-1E+10	1	-1E+10	1	-1E+10	1	-1E+10	1	-1E+10	1
4901784	183	C	07/08/2020	10:46	-132.225	42.913	0	64.00	0	11.0650	0	35.1550	8	26.886	0	63.483	0	266.8	4	99.5	4	-1E+10	1	-1E+10	1	-1E+10	1	-1E+10	1	-1E+10	1	-1E+10	1
4901784	183	C	07/08/2020	10:46	-132.225	42.913	0	65.50	0	10.9980	0	35.1470	8	26.892	0	64.971	0	264.3	4	98.4	4	-1E+10	1	-1E+10	1	-1E+10	1	-1E+10	1	-1E+10	1	-1E+10	1
4901784	183	C	07/08/2020	10:46	-132.225	42.913	0	67.10	0	10.9220	0	35.1610	8	26.917	0	66.557	0	261.1	4	97.1	4	-1E+10	1	-1E+10	1	-1E+10	1	-1E+10	1	-1E+10	1	-1E+10	1
4901784	183	C	07/08/2020	10:46	-132.225	42.913	0	68.70	0	10.8120	0	35.1710	8	26.945	0	68.144	0	258.2	4	95.8	4	-1E+10	1	-1E+10	1	-1E+10	1	-1E+10	1	-1E+10	1	-1E+10	1
4901784	183	C	07/08/2020	10:46	-132.225	42.913	0	70.30	0	10.7630	0	35.1700	8	26.953	0	69.731	0	254.5	4	94.3	4	-1E+10	1	-1E+10	1	-1E+10	1	-1E+10	1	-1E+10	1	-1E+10	1
4901784	183	C	07/08/2020	10:46	-132.225	42.913	0	71.90	0	10.6160	0	35.2040	8	27.006	0	71.318	0	251.6	4	93.0	4	-1E+10	1	-1E+10	1	-1E+10	1	-1E+10	1	-1E+10	1	-1E+10	1
4901784	183	C	07/08/2020	10:46	-132.225	42.913	0	73.50	0	10.5480	0	35.2340	8	27.041	0	72.904	0	248.6	4	91.7	4	-1E+10	1	-1E+10	1	-1E+10	1	-1E+10	1	-1E+10	1	-1E+10	1
4901784	183	C	07/08/2020	10:46	-132.225	42.913	0	75.10	0	10.5280	0	35.2400	8	27.049	0	74.491	0	246.6	4	91.0	4	-1E+10	1	-1E+10	1	-1E+10	1	-1E+10	1	-1E+10	1	-1E+10	1
4901784	183	C	07/08/2020	10:46	-132.225	42.913	0	76.80	0	10.5170	0	35.2440	8	27.054	0	76.177	0	243.7	4	89.9	4	-1E+10	1	-1E+10	1	-1E+10	1	-1E+10	1	-1E+10	1	-1E+10	1
4901784	183	C	07/08/2020	10:46	-132.225	42.913	0	78.30	0	10.5020	0	35.2560	8	27.066	0	77.665	0	241.3	4	89.0	4	-1E+10	1	-1E+10	1	-1E+10	1	-1E+10	1	-1E+10	1	-1E+10	1
4901784	183	C	07/08/2020	10:46	-132.225	42.913	0	80.00	0	10.4460	0	35.2690	8	27.087	0	79.350	0	238.5	4	87.9	4	-1E+10	1	-1E+10	1	-1E+10	1	-1E+10	1	-1E+10	1	-1E+10	1
4901784	183	C	07/08/2020	10:46	-132.225	42.913	0	81.60	0	10.3880	0	35.2770	8	27.103	0	80.937	0	236.4	4	87.0	4	-1E+10	1	-1E+10	1	-1E+10	1	-1E+10	1	-1E+10	1	-1E+10	1
4901784	183	C	07/08/2020	10:46	-132.225	42.913	0	83.30	0	10.3580	0	35.2800	8	27.111	0	82.623	0	234.1	4	86.1	4	-1E+10	1	-1E+10	1	-1E+10	1	-1E+10	1	-1E+10	1	-1E+10	1
4901784	183	C	07/08/2020	10:46	-132.225	42.913	0	85.10	0	10.3030	0	35.2940	8	27.131	0	84.408	0	231.2	4	84.9	4	-1E+10	1	-1E+10	1	-1E+10	1	-1E+10	1	-1E+10	1	-1E+10	1
4901784	183	C	07/08/2020	10:46	-132.225	42.913	0	86.80	0	10.2670	0	35.3050	8	27.146	0	86.094	0	228.6	4	83.9	4	-1E+10	1	-1E+10	1	-1E+10	1	-1E+10	1	-1E+10	1	-1E+10	1
4901784	183	C	07/08/2020	10:46	-132.225	42.913	0	88.60	0	10.2190	0	35.3190	8	27.166	0	87.879	0	225.9	4	82.8	4	-1E+10	1	-1E+10	1	-1E+10	1	-1E+10	1	-1E+10	1	-1E+10	1
4901784	183	C	07/08/2020	10:46	-132.225	42.913	0	90.30	0	10.1710	0	35.3330	8	27.185	0	89.565	0	222.5	4	81.5	4	-1E+10	1	-1E+10	1	-1E+10	1	-1E+10	1	-1E+10	1	-1E+10	1
4901784	183	C	07/08/2020	10:46	-132.225	42.913	0	92.00	0	10.0260	0	35.3770	8	27.244	0	91.250	0	220.3	4	80.5	4	-1E+10	1	-1E+10	1	-1E+10	1	-1E+10	1	-1E+10	1	-1E+10	1
4901784	183	C	07/08/2020	10:46	-132.225	42.913	0	93.70	0	10.0250	0	35.3840	8	27.250	0	92.936	0	218.0	4	79.6	4	-1E+10	1	-1E+10	1	-1E+10	1	-1E+10	1	-1E+10	1	-1E+10	1
4901784	183	C	07/08/2020	10:46	-132.225	42.913	0	95.90	0	9.7980	0	35.4300	8	27.325	0	95.118	0	215.0	4	78.2	4	-1E+10	1	-1E+10	1	-1E+10	1	-1E+10	1	-1E+10	1	-1E+10	1
4901784	183	C	07/08/2020	10:46	-132.225	42.913	0	97.70	0	9.6730	0	35.4350	8	27.350	0	96.903	0	213.1	4	77.3	4	-1E+10	1	-1E+10	1	-1E+10	1	-1E+10	1	-1E+10	1	-1E+10	1
4901784	183	C	07/08/2020	10:46	-132.225	42.913	0	99.10	0	9.6160	0	35.4480	8	27.370	0	98.291	0	210.9	4	76.4	4	-1E+10	1	-1E+10	1	-1E+10	1	-1E+10	1	-1E+10	1	-1E+10	1
4901784	183	C	07/08/2020	10:46	-132.225	42.913	0	102.80	0	9.3750	0	35.5210	8	27.467	0	101.960	0	205.2	4	74.0	4	-1E+10	1	-1E+10	1	-1E+10	1	-1E+10	1	-1E+10	1	-1E+10	1
4901784	183	C	07/08/2020	10:46	-132.225	42.913	0	105.00	0	9.3250	0	35.5520	8	27.500	0	104.141	0	202.2	4	72.9	4	-1E+10	1	-1E+10	1	-1E+10	1	-1E+10	1	-1E+10	1	-1E+10	1
4901784	183	C	07/08/2020	10:46	-132.225	42.913	0	107.30	0	9.2720	0	35.5820	8	27.532	0	106.422	0	198.3	4	71.4	4	-1E+10	1	-1E+10	1	-1E+10	1	-1E+10	1	-1E+10	1	-1E+10	1
4901784	183	C	07/08/2020	10:46	-132.225	42.913	0	109.70	0	9.2040	0	35.6240	8	27.576	0	108.802	0	194.6	4	70.0	4	-1E+10	1	-1E+10	1	-1E+10	1	-1E+10	1	-1E+10	1	-1E+10	1
4901784	183	C	07/08/2020	10:46	-132.225	42.913	0	112.10	0	9.1240	0	35.6640	8	27.621	0	111.181	0	190.6	4	68.4	4	-1E+10	1	-1E+10	1	-1E+10	1	-1E+10	1	-1E+10	1	-1E+10	1
4901784	183	C	07/08/2020	10:46	-132.225	42.913	0	115.30	0	9.0140	0	35.7420	8	27.700	0	114.354	0	185.4	4	66.5	4	-1E+10	1	-1E+10	1	-1E+10	1	-1E+10	1	-1E+10	1	-1E+10	1
4901784	183	C	07/08/2020	10:46	-132.225	42.913	0	117.80	0	8.9110	0	35.7920	8	27.756	0	116.833	0	181.9	4	65.0	4	-1E+10	1	-1E+10	1	-1E+10	1	-1E+10	1	-1E+10	1	-1E+10	1
4901784	183	C	07/08/2020	10:46	-132.225	42.913	0	120.30	0	8.8330	0	35.8480	8	27.812	0	119.312	0	178.5	4	63.8	4	-1E+10	1	-1E+10	1	-1E+10	1	-1E+10	1	-1E+10	1	-1E+10	1
4901784	183	C	07/08/2020	10:46	-132.225	42.913	0	122.80	0	8.8280	0	35.8690	8	27.829	0	121.790	0	174.9	4	62.5	4	-1E+10	1	-1E+10	1	-1E+10	1	-1E+10	1	-1E+10	1	-1E+10	1
4901784	183	C	07/08/2020	10:46	-132.225	42.913	0	124.60	0	8.7450	0	35.8910	8	27.860	0	123.575	0	172.2	4	61.4	4	-1E+10	1	-1E+10	1	-1E+10	1	-1E+10	1	-1E+10	1	-1E+10	1
4901784	183	C	07/08/2020	10:46	-132.225	42.913	0	127.30	0	8.6550	0	35.9720	8	27.938	0	126.252	0	168.5	4	60.0	4	-1E+10	1	-1E+10	1	-1E+10	1	-1E+10	1	-1E+10	1	-1E+10	1
4901784	183	C	07/08/2020	10:46	-132.225	42.913	0	130.00	0	8.6370	0	35.9990	8	27.962	0	128.929	0	164.0	4	58.4	4	-1E+10	1	-1E+10	1	-1E+10	1	-1E+10	1	-1E+10	1	-1E+10	1
4901784	183	C	07/08/2020	10:46	-132.225	42.913	0	132.60	0	8.6060	0	36.0770	8	28.028	0	131.507	0	159.6	4	56.8	4	-1E+10	1	-1E+10	1	-1E+10	1	-1E+10	1	-1E+10	1	-1E+10	1
4901784	183	C	07/08/2020	10:46	-132.225	42.913	0	135.20	0	8.5990	0	36.1220	8	28.065	0	134.084	0	155.6	4	55.4	4	-1E+10	1	-1E+10	1	-1E+10	1	-1E+10	1	-1E+10	1	-1E+10	1
4901784	183	C	07/08/2020	10:46	-132.225	42.913	0	137.90	0	8.5830	0	36.1820	8	28.114	0	136.761	0	152.6	4	54.4	4	-1E+10	1	-1E+10	1	-1E+10	1	-1E+10	1	-1E+10	1	-1E+10	1
4901784	183	C	07/08/2020	10:46	-132.225	42.913	0	140.60	0	8.5760	0	36.2090	8	28.137	0	139.438	0	150.3	4	53.5	4	-1E+10	1	-1E+10	1	-1E+10	1	-1E+10	1	-1E+10	1	-1E+10	1
4901784	183	C	07/08/2020	10:46	-132.225	42.913	0	142.40	0	8.5670	0	36.2230	8	28.149	0	141.223	0	148.6	4	52.9	4	-1E+10	1	-1E+10	1	-1E+10	1	-1E+10	1	-1E+10	1	-1E+10	1
4901784	183	C	07/08/2020	10:46	-132.225	42.913	0	144.30	0	8.5580	0	36.2370	8	28.162	0	143.106	0	146.9	4	52.3	4	-1E+10	1	-1E+10	1	-1E+10	1	-1E+10	1	-1E+10	1	-1E+10	1
4901784	183	C	07/08/2020	10:46	-132.225	42.913	0	147.40	0	8.5430	0	36.2590	8	28.181	0	146.179	0	142.9	4	50.9	4	-1E+10	1	-1E+10	1	-1E+10	1	-1E+10	1	-1E+10	1	-1E+10	1
4901784	183	C	07/08/2020	10:46	-132.225	42.913	0	150.20	0	8.5590	0	36.3230	8	28.229	0	148.955	0	138.5	4	49.3	4	-1E+10	1	-1E+10	1	-1E+10	1	-1E+10	1	-1E+10	1	-1E+10	1
4901784	183	C	07/08/2020	10:46	-132.225	42.913	0	152.60	0	8.5500	0	36.3320	8	28.238	0	151.334	0	136.6	4	48.7	4	-1E+10	1	-1E+10	1	-1E+10	1	-1E+10	1	-1E+10	1	-1E+10	1
4901784	183	C	07/08/2020	10:46	-132.225	42.913	0	155.10	0	8.5000	0	36.3650	8	28.271	0	153.813	0	134.4	4	47.9	4	-1E+10	1	-1E+10	1	-1E+10	1	-1E+10	1	-1E+10	1	-1E+10	1
4901784	183	C	07/08/2020	10:46	-132.225	42.913	0	157.50	0	8.4450	0	36.4010	8	28.308	0	156.192	0	133.2	4	47.4	4	-1E+10	1	-1E+10	1	-1E+10	1	-1E+10	1	-1E+10	1	-1E+10	1
4901784	183	C	07/08/2020	10:46	-132.225	42.913	0	160.10	0	8.3970	0	36.4110	8	28.324	0	158.769	0	132.6	4	47.1	4	-1E+10	1	-1E+10	1	-1E+10	1	-1E+10	1	-1E+10	1	-1E+10	1
4901784	183	C	07/08/2020	10:46	-132.225	42.913	0	162.70	0	8.3310	0	36.4320	8	28.351	0	161.347	0	131.7	4	46.7	4	-1E+10	1	-1E+10	1	-1E+10	1	-1E+10	1	-1E+10	1	-1E+10	1
4901784	183	C	07/08/2020	10:46	-132.225	42.913	0	165.30	0	8.3220	0	36.4410	8	28.359	0	163.924	0	130.7	4	46.4	4	-1E+10	1	-1E+10	1	-1E+10	1	-1E+10	1	-1E+10	1	-1E+10	1
4901784	183	C	07/08/2020	10:46	-132.225	42.913	0	167.80	0	8.2780	0	36.4550	8	28.377	0	166.402	0	129.6	4	45.9	4	-1E+10	1	-1E+10	1	-1E+10	1	-1E+10	1	-1E+10	1	-1E+10	1
4901784	183	C	07/08/2020	10:46	-132.225	42.913	0	170.40	0	8.2480	0	36.4660	8	28.391	0	168.980	0	127.9	4	45.3	4	-1E+10	1	-1E+10	1	-1E+10	1	-1E+10	1	-1E+10	1	-1E+10	1
4901784	183	C	07/08/2020	10:46	-132.225	42.913	0	172.20	0	8.2240	0	36.4740	8	28.401	0	170.764	0	126.4	4	44.7	4	-1E+10	1	-1E+10	1	-1E+10	1	-1E+10	1	-1E+10	1	-1E+10	1
4901784	183	C	07/08/2020	10:46	-132.225	42.913	0	174.80	0	8.1750	0	36.5060	8	28.433	0	173.341	0	123.5	4	43.7	4	-1E+10	1	-1E+10	1	-1E+10	1	-1E+10	1	-1E+10	1	-1E+10	1
4901784	183	C	07/08/2020	10:46	-132.225	42.913	0	177.50	0	8.1270	0	36.5360	8	28.465	0	176.017	0	121.5	4	42.9	4	-1E+10	1	-1E+10	1	-1E+10	1	-1E+10	1	-1E+10	1	-1E+10	1
4901784	183	C	07/08/2020	10:46	-132.225	42.913	0	180.10	0	8.1140	0	36.5560	8	28.482	0	178.595	0	119.3	4	42.2	4	-1E+10	1	-1E+10	1	-1E+10	1	-1E+10	1	-1E+10	1	-1E+10	1
4901784	183	C	07/08/2020	10:46	-132.225	42.913	0	182.80	0	8.0870	0	36.5710	8	28.498	0	181.271	0	119.1	4	42.1	4	-1E+10	1	-1E+10	1	-1E+10	1	-1E+10	1	-1E+10	1	-1E+10	1
4901784	183	C	07/08/2020	10:46	-132.225	42.913	0	184.60	0	8.0670	0	36.5760	8	28.505	0	183.055	0	119.3	4	42.1	4	-1E+10	1	-1E+10	1	-1E+10	1	-1E+10	1	-1E+10	1	-1E+10	1
4901784	183	C	07/08/2020	10:46	-132.225	42.913	0	187.40	0	8.0270	0	36.5850	8	28.519	0	185.830	0	120.1	4	42.4	4	-1E+10	1	-1E+10	1	-1E+10	1	-1E+10	1	-1E+10	1	-1E+10	1
4901784	183	C	07/08/2020	10:46	-132.225	42.913	0	190.10	0	7.9750	0	36.5950	8	28.535	0	188.506	0	120.9	4	42.6	4	-1E+10	1	-1E+10	1	-1E+10	1	-1E+10	1	-1E+10	1	-1E+10	1
4901784	183	C	07/08/2020	10:46	-132.225	42.913	0	192.80	0	7.9420	0	36.6010	8	28.544	0	191.182	0	121.4	4	42.8	4	-1E+10	1	-1E+10	1	-1E+10	1	-1E+10	1	-1E+10	1	-1E+10	1
4901784	183	C	07/08/2020	10:46	-132.225	42.913	0	195.60	0	7.9040	0	36.6080	8	28.556	0	193.958	0	122.5	4	43.1	4	-1E+10	1	-1E+10	1	-1E+10	1	-1E+10	1	-1E+10	1	-1E+10	1
4901784	183	C	07/08/2020	10:46	-132.225	42.913	0	197.40	0	7.8580	0	36.6140	8	28.567	0	195.742	0	123.9	4	43.6	4	-1E+10	1	-1E+10	1	-1E+10	1	-1E+10	1	-1E+10	1	-1E+10	1
4901784	183	C	07/08/2020	10:46	-132.225	42.913	0	200.30	0	7.8410	0	36.6150	8	28.571	0	198.616	0	125.8	4	44.2	4	-1E+10	1	-1E+10	1	-1E+10	1	-1E+10	1	-1E+10	1	-1E+10	1
4901784	183	C	07/08/2020	10:46	-132.225	42.913	0	203.10	0	7.8060	0	36.6180	8	28.579	0	201.391	0	128.0	4	45.0	4	-1E+10	1	-1E+10	1	-1E+10	1	-1E+10	1	-1E+10	1	-1E+10	1
4901784	183	C	07/08/2020	10:46	-132.225	42.913	0	205.00	0	7.7750	0	36.6220	8	28.586	0	203.274	0	128.7	4	45.2	4	-1E+10	1	-1E+10	1	-1E+10	1	-1E+10	1	-1E+10	1	-1E+10	1
4901784	183	C	07/08/2020	10:46	-132.225	42.913	0	206.90	0	7.7700	0	36.6200	8	28.586	0	205.157	0	128.3	4	45.0	4	-1E+10	1	-1E+10	1	-1E+10	1	-1E+10	1	-1E+10	1	-1E+10	1
4901784	183	C	07/08/2020	10:46	-132.225	42.913	0	209.80	0	7.7560	0	36.6190	8	28.587	0	208.031	0	126.5	4	44.4	4	-1E+10	1	-1E+10	1	-1E+10	1	-1E+10	1	-1E+10	1	-1E+10	1
4901784	183	C	07/08/2020	10:46	-132.225	42.913	0	212.60	0	7.7110	0	36.6240	8	28.598	0	210.806	0	124.0	4	43.5	4	-1E+10	1	-1E+10	1	-1E+10	1	-1E+10	1	-1E+10	1	-1E+10	1
4901784	183	C	07/08/2020	10:46	-132.225	42.913	0	214.60	0	7.6800	0	36.6270	8	28.605	0	212.788	0	124.3	4	43.5	4	-1E+10	1	-1E+10	1	-1E+10	1	-1E+10	1	-1E+10	1	-1E+10	1
4901784	183	C	07/08/2020	10:46	-132.225	42.913	0	217.50	0	7.6450	0	36.6270	8	28.610	0	215.662	0	123.7	4	43.3	4	-1E+10	1	-1E+10	1	-1E+10	1	-1E+10	1	-1E+10	1	-1E+10	1
4901784	183	C	07/08/2020	10:46	-132.225	42.913	0	220.40	0	7.6080	0	36.6280	8	28.617	0	218.536	0	121.5	4	42.5	4	-1E+10	1	-1E+10	1	-1E+10	1	-1E+10	1	-1E+10	1	-1E+10	1
4901784	183	C	07/08/2020	10:46	-132.225	42.913	0	222.30	0	7.5790	0	36.6300	8	28.622	0	220.419	0	121.1	4	42.3	4	-1E+10	1	-1E+10	1	-1E+10	1	-1E+10	1	-1E+10	1	-1E+10	1
4901784	183	C	07/08/2020	10:46	-132.225	42.913	0	225.00	0	7.5010	0	36.6330	8	28.636	0	223.095	0	121.6	4	42.4	4	-1E+10	1	-1E+10	1	-1E+10	1	-1E+10	1	-1E+10	1	-1E+10	1
4901784	183	C	07/08/2020	10:46	-132.225	42.913	0	227.80	0	7.4770	0	36.6350	8	28.642	0	225.870	0	121.3	4	42.3	4	-1E+10	1	-1E+10	1	-1E+10	1	-1E+10	1	-1E+10	1	-1E+10	1
4901784	183	C	07/08/2020	10:46	-132.225	42.913	0	229.60	0	7.4710	0	36.6320	8	28.640	0	227.654	0	121.3	4	42.3	4	-1E+10	1	-1E+10	1	-1E+10	1	-1E+10	1	-1E+10	1	-1E+10	1
4901784	183	C	07/08/2020	10:46	-132.225	42.913	0	232.50	0	7.4040	0	36.6380	8	28.655	0	230.527	0	120.5	4	41.9	4	-1E+10	1	-1E+10	1	-1E+10	1	-1E+10	1	-1E+10	1	-1E+10	1
4901784	183	C	07/08/2020	10:46	-132.225	42.913	0	235.20	0	7.3850	0	36.6380	8	28.658	0	233.203	0	120.0	4	41.8	4	-1E+10	1	-1E+10	1	-1E+10	1	-1E+10	1	-1E+10	1	-1E+10	1
4901784	183	C	07/08/2020	10:46	-132.225	42.913	0	237.10	0	7.3530	0	36.6390	8	28.663	0	235.086	0	119.6	4	41.6	4	-1E+10	1	-1E+10	1	-1E+10	1	-1E+10	1	-1E+10	1	-1E+10	1
4901784	183	C	07/08/2020	10:46	-132.225	42.913	0	240.00	0	7.3400	0	36.6400	8	28.666	0	237.959	0	118.5	4	41.2	4	-1E+10	1	-1E+10	1	-1E+10	1	-1E+10	1	-1E+10	1	-1E+10	1
4901784	183	C	07/08/2020	10:46	-132.225	42.913	0	242.90	0	7.3310	0	36.6380	8	28.666	0	240.833	0	116.9	4	40.6	4	-1E+10	1	-1E+10	1	-1E+10	1	-1E+10	1	-1E+10	1	-1E+10	1
4901784	183	C	07/08/2020	10:46	-132.225	42.913	0	244.80	0	7.3010	0	36.6420	8	28.673	0	242.716	0	115.7	4	40.2	4	-1E+10	1	-1E+10	1	-1E+10	1	-1E+10	1	-1E+10	1	-1E+10	1
4901784	183	C	07/08/2020	10:46	-132.225	42.913	0	247.80	0	7.2830	0	36.6420	8	28.676	0	245.688	0	115.0	4	39.9	4	-1E+10	1	-1E+10	1	-1E+10	1	-1E+10	1	-1E+10	1	-1E+10	1
4901784	183	C	07/08/2020	10:46	-132.225	42.913	0	250.70	0	7.2570	0	36.6400	8	28.678	0	248.562	0	115.3	4	40.0	4	-1E+10	1	-1E+10	1	-1E+10	1	-1E+10	1	-1E+10	1	-1E+10	1
4901784	183	C	07/08/2020	10:46	-132.225	42.913	0	252.60	0	7.2100	0	36.6380	8	28.684	0	250.445	0	115.3	4	40.0	4	-1E+10	1	-1E+10	1	-1E+10	1	-1E+10	1	-1E+10	1	-1E+10	1
4901784	183	C	07/08/2020	10:46	-132.225	42.913	0	254.60	0	7.1760	0	36.6390	8	28.689	0	252.426	0	115.0	4	39.8	4	-1E+10	1	-1E+10	1	-1E+10	1	-1E+10	1	-1E+10	1	-1E+10	1
4901784	183	C	07/08/2020	10:46	-132.225	42.913	0	257.50	0	7.1200	0	36.6370	8	28.696	0	255.300	0	113.8	4	39.4	4	-1E+10	1	-1E+10	1	-1E+10	1	-1E+10	1	-1E+10	1	-1E+10	1
4901784	183	C	07/08/2020	10:46	-132.225	42.913	0	260.40	0	7.0420	0	36.6400	8	28.709	0	258.173	0	112.7	4	38.9	4	-1E+10	1	-1E+10	1	-1E+10	1	-1E+10	1	-1E+10	1	-1E+10	1
4901784	183	C	07/08/2020	10:46	-132.225	42.913	0	262.40	0	7.0190	0	36.6400	8	28.713	0	260.155	0	112.1	4	38.7	4	-1E+10	1	-1E+10	1	-1E+10	1	-1E+10	1	-1E+10	1	-1E+10	1
4901784	183	C	07/08/2020	10:46	-132.225	42.913	0	264.30	0	6.9920	0	36.6400	8	28.717	0	262.037	0	111.2	4	38.3	4	-1E+10	1	-1E+10	1	-1E+10	1	-1E+10	1	-1E+10	1	-1E+10	1
4901784	183	C	07/08/2020	10:46	-132.225	42.913	0	267.30	0	6.9200	0	36.6420	8	28.728	0	265.010	0	110.0	4	37.9	4	-1E+10	1	-1E+10	1	-1E+10	1	-1E+10	1	-1E+10	1	-1E+10	1
4901784	183	C	07/08/2020	10:46	-132.225	42.913	0	270.20	0	6.8510	0	36.6450	8	28.741	0	267.883	0	108.4	4	37.2	4	-1E+10	1	-1E+10	1	-1E+10	1	-1E+10	1	-1E+10	1	-1E+10	1
4901784	183	C	07/08/2020	10:46	-132.225	42.913	0	272.10	0	6.8300	0	36.6470	8	28.745	0	269.766	0	107.2	4	36.8	4	-1E+10	1	-1E+10	1	-1E+10	1	-1E+10	1	-1E+10	1	-1E+10	1
4901784	183	C	07/08/2020	10:46	-132.225	42.913	0	275.00	0	6.8040	0	36.6490	8	28.751	0	272.639	0	105.5	4	36.2	4	-1E+10	1	-1E+10	1	-1E+10	1	-1E+10	1	-1E+10	1	-1E+10	1
4901784	183	C	07/08/2020	10:46	-132.225	42.913	0	277.80	0	6.7830	0	36.6490	8	28.754	0	275.413	0	103.5	4	35.5	4	-1E+10	1	-1E+10	1	-1E+10	1	-1E+10	1	-1E+10	1	-1E+10	1
4901784	183	C	07/08/2020	10:46	-132.225	42.913	0	279.80	0	6.7580	0	36.6490	8	28.757	0	277.394	0	102.1	4	35.0	4	-1E+10	1	-1E+10	1	-1E+10	1	-1E+10	1	-1E+10	1	-1E+10	1
4901784	183	C	07/08/2020	10:46	-132.225	42.913	0	282.70	0	6.7320	0	36.6510	8	28.762	0	280.267	0	100.0	4	34.3	4	-1E+10	1	-1E+10	1	-1E+10	1	-1E+10	1	-1E+10	1	-1E+10	1
4901784	183	C	07/08/2020	10:46	-132.225	42.913	0	285.50	0	6.7040	0	36.6520	8	28.767	0	283.041	0	98.5	4	33.8	4	-1E+10	1	-1E+10	1	-1E+10	1	-1E+10	1	-1E+10	1	-1E+10	1
4901784	183	C	07/08/2020	10:46	-132.225	42.913	0	287.40	0	6.6840	0	36.6540	8	28.771	0	284.924	0	97.9	4	33.5	4	-1E+10	1	-1E+10	1	-1E+10	1	-1E+10	1	-1E+10	1	-1E+10	1
4901784	183	C	07/08/2020	10:46	-132.225	42.913	0	289.30	0	6.6720	0	36.6540	8	28.773	0	286.806	0	97.3	4	33.3	4	-1E+10	1	-1E+10	1	-1E+10	1	-1E+10	1	-1E+10	1	-1E+10	1
4901784	183	C	07/08/2020	10:46	-132.225	42.913	0	292.30	0	6.6520	0	36.6530	8	28.775	0	289.778	0	96.0	4	32.9	4	-1E+10	1	-1E+10	1	-1E+10	1	-1E+10	1	-1E+10	1	-1E+10	1
4901784	183	C	07/08/2020	10:46	-132.225	42.913	0	295.30	0	6.6090	0	36.6570	8	28.784	0	292.750	0	94.3	4	32.2	4	-1E+10	1	-1E+10	1	-1E+10	1	-1E+10	1	-1E+10	1	-1E+10	1
4901784	183	C	07/08/2020	10:46	-132.225	42.913	0	297.70	0	6.5920	0	36.6580	8	28.788	0	295.128	0	93.2	4	31.9	4	-1E+10	1	-1E+10	1	-1E+10	1	-1E+10	1	-1E+10	1	-1E+10	1
4901784	183	C	07/08/2020	10:46	-132.225	42.913	0	300.00	0	6.5740	0	36.6580	8	28.790	0	297.406	0	92.4	4	31.6	4	-1E+10	1	-1E+10	1	-1E+10	1	-1E+10	1	-1E+10	1	-1E+10	1
4901784	183	C	07/08/2020	10:46	-132.225	42.913	0	302.40	0	6.5490	0	36.6590	8	28.794	0	299.784	0	91.4	4	31.2	4	-1E+10	1	-1E+10	1	-1E+10	1	-1E+10	1	-1E+10	1	-1E+10	1
4901784	183	C	07/08/2020	10:46	-132.225	42.913	0	304.80	0	6.5210	0	36.6600	8	28.799	0	302.161	0	90.5	4	30.9	4	-1E+10	1	-1E+10	1	-1E+10	1	-1E+10	1	-1E+10	1	-1E+10	1
4901784	183	C	07/08/2020	10:46	-132.225	42.913	0	307.20	0	6.4930	0	36.6620	8	28.804	0	304.539	0	89.2	4	30.4	4	-1E+10	1	-1E+10	1	-1E+10	1	-1E+10	1	-1E+10	1	-1E+10	1
4901784	183	C	07/08/2020	10:46	-132.225	42.913	0	310.40	0	6.4430	0	36.6660	8	28.814	0	307.708	0	87.8	4	29.9	4	-1E+10	1	-1E+10	1	-1E+10	1	-1E+10	1	-1E+10	1	-1E+10	1
4901784	183	C	07/08/2020	10:46	-132.225	42.913	0	312.80	0	6.4310	0	36.6660	8	28.816	0	310.086	0	86.7	4	29.5	4	-1E+10	1	-1E+10	1	-1E+10	1	-1E+10	1	-1E+10	1	-1E+10	1
4901784	183	C	07/08/2020	10:46	-132.225	42.913	0	315.20	0	6.4080	0	36.6670	8	28.820	0	312.463	0	85.4	4	29.1	4	-1E+10	1	-1E+10	1	-1E+10	1	-1E+10	1	-1E+10	1	-1E+10	1
4901784	183	C	07/08/2020	10:46	-132.225	42.913	0	317.60	0	6.3890	0	36.6670	8	28.823	0	314.841	0	84.1	4	28.6	4	-1E+10	1	-1E+10	1	-1E+10	1	-1E+10	1	-1E+10	1	-1E+10	1
4901784	183	C	07/08/2020	10:46	-132.225	42.913	0	320.10	0	6.3390	0	36.6690	8	28.831	0	317.317	0	83.0	4	28.2	4	-1E+10	1	-1E+10	1	-1E+10	1	-1E+10	1	-1E+10	1	-1E+10	1
4901784	183	C	07/08/2020	10:46	-132.225	42.913	0	322.60	0	6.3010	0	36.6710	8	28.838	0	319.793	0	82.1	4	27.9	4	-1E+10	1	-1E+10	1	-1E+10	1	-1E+10	1	-1E+10	1	-1E+10	1
4901784	183	C	07/08/2020	10:46	-132.225	42.913	0	325.00	0	6.2800	0	36.6710	8	28.841	0	322.171	0	81.1	4	27.5	4	-1E+10	1	-1E+10	1	-1E+10	1	-1E+10	1	-1E+10	1	-1E+10	1
4901784	183	C	07/08/2020	10:46	-132.225	42.913	0	327.40	0	6.2540	0	36.6750	8	28.847	0	324.548	0	80.2	4	27.2	4	-1E+10	1	-1E+10	1	-1E+10	1	-1E+10	1	-1E+10	1	-1E+10	1
4901784	183	C	07/08/2020	10:46	-132.225	42.913	0	329.90	0	6.2300	0	36.6750	8	28.851	0	327.024	0	79.4	4	26.9	4	-1E+10	1	-1E+10	1	-1E+10	1	-1E+10	1	-1E+10	1	-1E+10	1
4901784	183	C	07/08/2020	10:46	-132.225	42.913	0	332.50	0	6.1890	0	36.6750	8	28.856	0	329.599	0	78.5	4	26.6	4	-1E+10	1	-1E+10	1	-1E+10	1	-1E+10	1	-1E+10	1	-1E+10	1
4901784	183	C	07/08/2020	10:46	-132.225	42.913	0	335.00	0	6.1690	0	36.6750	8	28.859	0	332.075	0	77.3	4	26.2	4	-1E+10	1	-1E+10	1	-1E+10	1	-1E+10	1	-1E+10	1	-1E+10	1
4901784	183	C	07/08/2020	10:46	-132.225	42.913	0	337.50	0	6.1330	0	36.6770	8	28.865	0	334.552	0	75.7	4	25.6	4	-1E+10	1	-1E+10	1	-1E+10	1	-1E+10	1	-1E+10	1	-1E+10	1
4901784	183	C	07/08/2020	10:46	-132.225	42.913	0	340.10	0	6.1020	0	36.6790	8	28.871	0	337.127	0	74.2	4	25.1	4	-1E+10	1	-1E+10	1	-1E+10	1	-1E+10	1	-1E+10	1	-1E+10	1
4901784	183	C	07/08/2020	10:46	-132.225	42.913	0	342.60	0	6.0670	0	36.6830	8	28.879	0	339.603	0	72.9	4	24.6	4	-1E+10	1	-1E+10	1	-1E+10	1	-1E+10	1	-1E+10	1	-1E+10	1
4901784	183	C	07/08/2020	10:46	-132.225	42.913	0	345.20	0	6.0400	0	36.6860	8	28.885	0	342.178	0	72.0	4	24.3	4	-1E+10	1	-1E+10	1	-1E+10	1	-1E+10	1	-1E+10	1	-1E+10	1
4901784	183	C	07/08/2020	10:46	-132.225	42.913	0	347.70	0	6.0230	0	36.6860	8	28.887	0	344.654	0	70.9	4	23.9	4	-1E+10	1	-1E+10	1	-1E+10	1	-1E+10	1	-1E+10	1	-1E+10	1
4901784	183	C	07/08/2020	10:46	-132.225	42.913	0	350.20	0	5.9940	0	36.6870	8	28.892	0	347.130	0	69.7	4	23.5	4	-1E+10	1	-1E+10	1	-1E+10	1	-1E+10	1	-1E+10	1	-1E+10	1
4901784	183	C	07/08/2020	10:46	-132.225	42.913	0	352.80	0	5.9490	0	36.6900	8	28.900	0	349.705	0	68.5	4	23.1	4	-1E+10	1	-1E+10	1	-1E+10	1	-1E+10	1	-1E+10	1	-1E+10	1
4901784	183	C	07/08/2020	10:46	-132.225	42.913	0	355.40	0	5.9110	0	36.6940	8	28.908	0	352.280	0	67.6	4	22.7	4	-1E+10	1	-1E+10	1	-1E+10	1	-1E+10	1	-1E+10	1	-1E+10	1
4901784	183	C	07/08/2020	10:46	-132.225	42.913	0	358.00	0	5.8830	0	36.6960	8	28.914	0	354.855	0	66.8	4	22.5	4	-1E+10	1	-1E+10	1	-1E+10	1	-1E+10	1	-1E+10	1	-1E+10	1
4901784	183	C	07/08/2020	10:46	-132.225	42.913	0	359.70	0	5.8760	0	36.6970	8	28.915	0	356.539	0	66.1	4	22.2	4	-1E+10	1	-1E+10	1	-1E+10	1	-1E+10	1	-1E+10	1	-1E+10	1
4901784	183	C	07/08/2020	10:46	-132.225	42.913	0	362.30	0	5.8670	0	36.6980	8	28.917	0	359.113	0	65.1	4	21.9	4	-1E+10	1	-1E+10	1	-1E+10	1	-1E+10	1	-1E+10	1	-1E+10	1
4901784	183	C	07/08/2020	10:46	-132.225	42.913	0	364.90	0	5.8520	0	36.6990	8	28.920	0	361.688	0	63.9	4	21.5	4	-1E+10	1	-1E+10	1	-1E+10	1	-1E+10	1	-1E+10	1	-1E+10	1
4901784	183	C	07/08/2020	10:46	-132.225	42.913	0	367.50	0	5.8100	0	36.7050	8	28.930	0	364.263	0	62.6	4	21.0	4	-1E+10	1	-1E+10	1	-1E+10	1	-1E+10	1	-1E+10	1	-1E+10	1
4901784	183	C	07/08/2020	10:46	-132.225	42.913	0	370.10	0	5.7950	0	36.7090	8	28.936	0	366.838	0	61.6	4	20.7	4	-1E+10	1	-1E+10	1	-1E+10	1	-1E+10	1	-1E+10	1	-1E+10	1
4901784	183	C	07/08/2020	10:46	-132.225	42.913	0	372.70	0	5.7920	0	36.7110	8	28.938	0	369.413	0	60.8	4	20.4	4	-1E+10	1	-1E+10	1	-1E+10	1	-1E+10	1	-1E+10	1	-1E+10	1
4901784	183	C	07/08/2020	10:46	-132.225	42.913	0	375.40	0	5.7790	0	36.7110	8	28.939	0	372.086	0	59.9	4	20.1	4	-1E+10	1	-1E+10	1	-1E+10	1	-1E+10	1	-1E+10	1	-1E+10	1
4901784	183	C	07/08/2020	10:46	-132.225	42.913	0	377.10	0	5.7590	0	36.7140	8	28.944	0	373.770	0	59.4	4	19.9	4	-1E+10	1	-1E+10	1	-1E+10	1	-1E+10	1	-1E+10	1	-1E+10	1
4901784	183	C	07/08/2020	10:46	-132.225	42.913	0	379.80	0	5.7410	0	36.7150	8	28.947	0	376.444	0	58.6	4	19.6	4	-1E+10	1	-1E+10	1	-1E+10	1	-1E+10	1	-1E+10	1	-1E+10	1
4901784	183	C	07/08/2020	10:46	-132.225	42.913	0	382.50	0	5.7150	0	36.7180	8	28.953	0	379.117	0	57.7	4	19.3	4	-1E+10	1	-1E+10	1	-1E+10	1	-1E+10	1	-1E+10	1	-1E+10	1
4901784	183	C	07/08/2020	10:46	-132.225	42.913	0	385.20	0	5.6840	0	36.7220	8	28.960	0	381.791	0	57.1	4	19.1	4	-1E+10	1	-1E+10	1	-1E+10	1	-1E+10	1	-1E+10	1	-1E+10	1
4901784	183	C	07/08/2020	10:46	-132.225	42.913	0	387.90	0	5.6780	0	36.7210	8	28.960	0	384.465	0	56.5	4	18.9	4	-1E+10	1	-1E+10	1	-1E+10	1	-1E+10	1	-1E+10	1	-1E+10	1
4901784	183	C	07/08/2020	10:46	-132.225	42.913	0	389.60	0	5.6500	0	36.7230	8	28.965	0	386.148	0	55.9	4	18.7	4	-1E+10	1	-1E+10	1	-1E+10	1	-1E+10	1	-1E+10	1	-1E+10	1
4901784	183	C	07/08/2020	10:46	-132.225	42.913	0	392.30	0	5.6400	0	36.7250	8	28.968	0	388.821	0	55.1	4	18.4	4	-1E+10	1	-1E+10	1	-1E+10	1	-1E+10	1	-1E+10	1	-1E+10	1
4901784	183	C	07/08/2020	10:46	-132.225	42.913	0	395.00	0	5.6130	0	36.7280	8	28.974	0	391.495	0	54.4	4	18.2	4	-1E+10	1	-1E+10	1	-1E+10	1	-1E+10	1	-1E+10	1	-1E+10	1
4901784	183	C	07/08/2020	10:46	-132.225	42.913	0	397.70	0	5.5880	0	36.7290	8	28.978	0	394.168	0	53.9	4	18.0	4	-1E+10	1	-1E+10	1	-1E+10	1	-1E+10	1	-1E+10	1	-1E+10	1
4901784	183	C	07/08/2020	10:46	-132.225	42.913	0	400.60	0	5.5630	0	36.7320	8	28.984	0	397.040	0	53.4	4	17.8	4	-1E+10	1	-1E+10	1	-1E+10	1	-1E+10	1	-1E+10	1	-1E+10	1
4901784	183	C	07/08/2020	10:46	-132.225	42.913	0	402.40	0	5.5490	0	36.7330	8	28.986	0	398.822	0	53.1	4	17.7	4	-1E+10	1	-1E+10	1	-1E+10	1	-1E+10	1	-1E+10	1	-1E+10	1
4901784	183	C	07/08/2020	10:46	-132.225	42.913	0	405.20	0	5.5130	0	36.7340	8	28.992	0	401.595	0	52.9	4	17.6	4	-1E+10	1	-1E+10	1	-1E+10	1	-1E+10	1	-1E+10	1	-1E+10	1
4901784	183	C	07/08/2020	10:46	-132.225	42.913	0	408.00	0	5.4820	0	36.7340	8	28.996	0	404.367	0	52.5	4	17.5	4	-1E+10	1	-1E+10	1	-1E+10	1	-1E+10	1	-1E+10	1	-1E+10	1
4901784	183	C	07/08/2020	10:46	-132.225	42.913	0	409.80	0	5.4710	0	36.7330	8	28.996	0	406.149	0	52.2	4	17.4	4	-1E+10	1	-1E+10	1	-1E+10	1	-1E+10	1	-1E+10	1	-1E+10	1
4901784	183	C	07/08/2020	10:46	-132.225	42.913	0	412.70	0	5.4520	0	36.7370	8	29.002	0	409.021	0	51.5	4	17.1	4	-1E+10	1	-1E+10	1	-1E+10	1	-1E+10	1	-1E+10	1	-1E+10	1
4901784	183	C	07/08/2020	10:46	-132.225	42.913	0	415.80	0	5.4420	0	36.7390	8	29.005	0	412.090	0	50.7	4	16.9	4	-1E+10	1	-1E+10	1	-1E+10	1	-1E+10	1	-1E+10	1	-1E+10	1
4901784	183	C	07/08/2020	10:46	-132.225	42.913	0	417.10	0	5.4230	0	36.7410	8	29.009	0	413.377	0	50.3	4	16.8	4	-1E+10	1	-1E+10	1	-1E+10	1	-1E+10	1	-1E+10	1	-1E+10	1
4901784	183	C	07/08/2020	10:46	-132.225	42.913	0	420.20	0	5.3970	0	36.7440	8	29.014	0	416.446	0	49.6	4	16.5	4	-1E+10	1	-1E+10	1	-1E+10	1	-1E+10	1	-1E+10	1	-1E+10	1
4901784	183	C	07/08/2020	10:46	-132.225	42.913	0	422.50	0	5.3880	0	36.7460	8	29.017	0	418.723	0	48.9	4	16.3	4	-1E+10	1	-1E+10	1	-1E+10	1	-1E+10	1	-1E+10	1	-1E+10	1
4901784	183	C	07/08/2020	10:46	-132.225	42.913	0	424.90	0	5.3780	0	36.7480	8	29.020	0	421.099	0	48.2	4	16.0	4	-1E+10	1	-1E+10	1	-1E+10	1	-1E+10	1	-1E+10	1	-1E+10	1
4901784	183	C	07/08/2020	10:46	-132.225	42.913	0	427.20	0	5.3420	0	36.7520	8	29.028	0	423.376	0	47.6	4	15.8	4	-1E+10	1	-1E+10	1	-1E+10	1	-1E+10	1	-1E+10	1	-1E+10	1
4901784	183	C	07/08/2020	10:46	-132.225	42.913	0	429.60	0	5.3260	0	36.7520	8	29.030	0	425.753	0	46.7	4	15.5	4	-1E+10	1	-1E+10	1	-1E+10	1	-1E+10	1	-1E+10	1	-1E+10	1
4901784	183	C	07/08/2020	10:46	-132.225	42.913	0	432.80	0	5.2940	0	36.7590	8	29.039	0	428.921	0	45.7	4	15.2	4	-1E+10	1	-1E+10	1	-1E+10	1	-1E+10	1	-1E+10	1	-1E+10	1
4901784	183	C	07/08/2020	10:46	-132.225	42.913	0	435.20	0	5.2770	0	36.7620	8	29.044	0	431.297	0	45.0	4	14.9	4	-1E+10	1	-1E+10	1	-1E+10	1	-1E+10	1	-1E+10	1	-1E+10	1
4901784	183	C	07/08/2020	10:46	-132.225	42.913	0	437.60	0	5.2700	0	36.7630	8	29.046	0	433.673	0	44.4	4	14.7	4	-1E+10	1	-1E+10	1	-1E+10	1	-1E+10	1	-1E+10	1	-1E+10	1
4901784	183	C	07/08/2020	10:46	-132.225	42.913	0	440.10	0	5.2540	0	36.7670	8	29.051	0	436.147	0	43.8	4	14.5	4	-1E+10	1	-1E+10	1	-1E+10	1	-1E+10	1	-1E+10	1	-1E+10	1
4901784	183	C	07/08/2020	10:46	-132.225	42.913	0	442.50	0	5.2400	0	36.7700	8	29.055	0	438.523	0	43.3	4	14.4	4	-1E+10	1	-1E+10	1	-1E+10	1	-1E+10	1	-1E+10	1	-1E+10	1
4901784	183	C	07/08/2020	10:46	-132.225	42.913	0	445.00	0	5.2300	0	36.7720	8	29.058	0	440.998	0	42.9	4	14.2	4	-1E+10	1	-1E+10	1	-1E+10	1	-1E+10	1	-1E+10	1	-1E+10	1
4901784	183	C	07/08/2020	10:46	-132.225	42.913	0	447.50	0	5.2220	0	36.7740	8	29.060	0	443.473	0	42.5	4	14.1	4	-1E+10	1	-1E+10	1	-1E+10	1	-1E+10	1	-1E+10	1	-1E+10	1
4901784	183	C	07/08/2020	10:46	-132.225	42.913	0	449.90	0	5.2110	0	36.7760	8	29.063	0	445.849	0	42.1	4	14.0	4	-1E+10	1	-1E+10	1	-1E+10	1	-1E+10	1	-1E+10	1	-1E+10	1
4901784	183	C	07/08/2020	10:46	-132.225	42.913	0	452.50	0	5.2040	0	36.7770	8	29.065	0	448.423	0	41.8	4	13.8	4	-1E+10	1	-1E+10	1	-1E+10	1	-1E+10	1	-1E+10	1	-1E+10	1
4901784	183	C	07/08/2020	10:46	-132.225	42.913	0	455.00	0	5.1970	0	36.7780	8	29.067	0	450.897	0	41.4	4	13.7	4	-1E+10	1	-1E+10	1	-1E+10	1	-1E+10	1	-1E+10	1	-1E+10	1
4901784	183	C	07/08/2020	10:46	-132.225	42.913	0	457.60	0	5.1860	0	36.7800	8	29.070	0	453.471	0	41.0	4	13.6	4	-1E+10	1	-1E+10	1	-1E+10	1	-1E+10	1	-1E+10	1	-1E+10	1
4901784	183	C	07/08/2020	10:46	-132.225	42.913	0	460.10	0	5.1720	0	36.7820	8	29.073	0	455.946	0	40.6	4	13.4	4	-1E+10	1	-1E+10	1	-1E+10	1	-1E+10	1	-1E+10	1	-1E+10	1
4901784	183	C	07/08/2020	10:46	-132.225	42.913	0	462.70	0	5.1610	0	36.7840	8	29.076	0	458.520	0	40.2	4	13.3	4	-1E+10	1	-1E+10	1	-1E+10	1	-1E+10	1	-1E+10	1	-1E+10	1
4901784	183	C	07/08/2020	10:46	-132.225	42.913	0	465.20	0	5.1460	0	36.7860	8	29.079	0	460.994	0	39.8	4	13.2	4	-1E+10	1	-1E+10	1	-1E+10	1	-1E+10	1	-1E+10	1	-1E+10	1
4901784	183	C	07/08/2020	10:46	-132.225	42.913	0	467.70	0	5.1290	0	36.7880	8	29.083	0	463.469	0	39.5	4	13.1	4	-1E+10	1	-1E+10	1	-1E+10	1	-1E+10	1	-1E+10	1	-1E+10	1
4901784	183	C	07/08/2020	10:46	-132.225	42.913	0	470.30	0	5.1070	0	36.7880	8	29.086	0	466.042	0	39.2	4	13.0	4	-1E+10	1	-1E+10	1	-1E+10	1	-1E+10	1	-1E+10	1	-1E+10	1
4901784	183	C	07/08/2020	10:46	-132.225	42.913	0	472.80	0	5.0820	0	36.7910	8	29.091	0	468.517	0	38.7	4	12.8	4	-1E+10	1	-1E+10	1	-1E+10	1	-1E+10	1	-1E+10	1	-1E+10	1
4901784	183	C	07/08/2020	10:46	-132.225	42.913	0	475.30	0	5.0720	0	36.7920	8	29.093	0	470.991	0	38.0	4	12.6	4	-1E+10	1	-1E+10	1	-1E+10	1	-1E+10	1	-1E+10	1	-1E+10	1
4901784	183	C	07/08/2020	10:46	-132.225	42.913	0	477.10	0	5.0600	0	36.7950	8	29.097	0	472.773	0	37.5	4	12.4	4	-1E+10	1	-1E+10	1	-1E+10	1	-1E+10	1	-1E+10	1	-1E+10	1
4901784	183	C	07/08/2020	10:46	-132.225	42.913	0	479.70	0	5.0490	0	36.7990	8	29.102	0	475.346	0	36.6	4	12.1	4	-1E+10	1	-1E+10	1	-1E+10	1	-1E+10	1	-1E+10	1	-1E+10	1
4901784	183	C	07/08/2020	10:46	-132.225	42.913	0	482.30	0	5.0430	0	36.8040	8	29.106	0	477.920	0	35.9	4	11.9	4	-1E+10	1	-1E+10	1	-1E+10	1	-1E+10	1	-1E+10	1	-1E+10	1
4901784	183	C	07/08/2020	10:46	-132.225	42.913	0	484.90	0	5.0240	0	36.8070	8	29.111	0	480.493	0	35.4	4	11.7	4	-1E+10	1	-1E+10	1	-1E+10	1	-1E+10	1	-1E+10	1	-1E+10	1
4901784	183	C	07/08/2020	10:46	-132.225	42.913	0	487.60	0	5.0100	0	36.8130	8	29.117	0	483.166	0	34.8	4	11.5	4	-1E+10	1	-1E+10	1	-1E+10	1	-1E+10	1	-1E+10	1	-1E+10	1
4901784	183	C	07/08/2020	10:46	-132.225	42.913	0	490.20	0	5.0090	0	36.8140	8	29.118	0	485.739	0	34.6	4	11.4	4	-1E+10	1	-1E+10	1	-1E+10	1	-1E+10	1	-1E+10	1	-1E+10	1
4901784	183	C	07/08/2020	10:46	-132.225	42.913	0	492.80	0	5.0030	0	36.8140	8	29.119	0	488.312	0	34.4	4	11.3	4	-1E+10	1	-1E+10	1	-1E+10	1	-1E+10	1	-1E+10	1	-1E+10	1
4901784	183	C	07/08/2020	10:46	-132.225	42.913	0	495.30	0	4.9850	0	36.8160	8	29.123	0	490.786	0	34.1	4	11.3	4	-1E+10	1	-1E+10	1	-1E+10	1	-1E+10	1	-1E+10	1	-1E+10	1
4901784	183	C	07/08/2020	10:46	-132.225	42.913	0	497.90	0	4.9710	0	36.8180	8	29.126	0	493.360	0	33.9	4	11.2	4	-1E+10	1	-1E+10	1	-1E+10	1	-1E+10	1	-1E+10	1	-1E+10	1
4901784	183	C	07/08/2020	10:46	-132.225	42.913	0	499.60	0	4.9680	0	36.8180	8	29.127	0	495.042	0	33.8	4	11.1	4	-1E+10	1	-1E+10	1	-1E+10	1	-1E+10	1	-1E+10	1	-1E+10	1
4901784	183	C	07/08/2020	10:46	-132.225	42.913	0	504.80	0	4.9560	0	36.8200	8	29.130	0	500.188	0	33.3	4	11.0	4	-1E+10	1	-1E+10	1	-1E+10	1	-1E+10	1	-1E+10	1	-1E+10	1
4901784	183	C	07/08/2020	10:46	-132.225	42.913	0	509.90	0	4.9210	0	36.8230	8	29.136	0	505.236	0	32.9	4	10.8	4	-1E+10	1	-1E+10	1	-1E+10	1	-1E+10	1	-1E+10	1	-1E+10	1
4901784	183	C	07/08/2020	10:46	-132.225	42.913	0	515.10	0	4.8810	0	36.8250	8	29.143	0	510.382	0	32.5	4	10.7	4	-1E+10	1	-1E+10	1	-1E+10	1	-1E+10	1	-1E+10	1	-1E+10	1
4901784	183	C	07/08/2020	10:46	-132.225	42.913	0	520.30	0	4.8630	0	36.8270	8	29.147	0	515.528	0	31.9	4	10.5	4	-1E+10	1	-1E+10	1	-1E+10	1	-1E+10	1	-1E+10	1	-1E+10	1
4901784	183	C	07/08/2020	10:46	-132.225	42.913	0	525.40	0	4.8350	0	36.8320	8	29.154	0	520.575	0	30.9	4	10.1	4	-1E+10	1	-1E+10	1	-1E+10	1	-1E+10	1	-1E+10	1	-1E+10	1
4901784	183	C	07/08/2020	10:46	-132.225	42.913	0	530.60	0	4.8180	0	36.8370	8	29.160	0	525.720	0	29.6	4	9.7	4	-1E+10	1	-1E+10	1	-1E+10	1	-1E+10	1	-1E+10	1	-1E+10	1
4901784	183	C	07/08/2020	10:46	-132.225	42.913	0	535.00	0	4.7990	0	36.8440	8	29.168	0	530.074	0	28.7	4	9.4	4	-1E+10	1	-1E+10	1	-1E+10	1	-1E+10	1	-1E+10	1	-1E+10	1
4901784	183	C	07/08/2020	10:46	-132.225	42.913	0	539.30	0	4.7880	0	36.8480	8	29.172	0	534.329	0	27.7	4	9.1	4	-1E+10	1	-1E+10	1	-1E+10	1	-1E+10	1	-1E+10	1	-1E+10	1
4901784	183	C	07/08/2020	10:46	-132.225	42.913	0	544.60	0	4.7590	0	36.8570	8	29.183	0	539.573	0	26.3	4	8.6	4	-1E+10	1	-1E+10	1	-1E+10	1	-1E+10	1	-1E+10	1	-1E+10	1
4901784	183	C	07/08/2020	10:46	-132.225	42.913	0	549.90	0	4.7350	0	36.8650	8	29.192	0	544.817	0	25.3	4	8.3	4	-1E+10	1	-1E+10	1	-1E+10	1	-1E+10	1	-1E+10	1	-1E+10	1
4901784	183	C	07/08/2020	10:46	-132.225	42.913	0	555.20	0	4.7150	0	36.8730	8	29.201	0	550.061	0	24.4	4	8.0	4	-1E+10	1	-1E+10	1	-1E+10	1	-1E+10	1	-1E+10	1	-1E+10	1
4901784	183	C	07/08/2020	10:46	-132.225	42.913	0	560.50	0	4.6870	0	36.8760	8	29.207	0	555.305	0	23.9	4	7.8	4	-1E+10	1	-1E+10	1	-1E+10	1	-1E+10	1	-1E+10	1	-1E+10	1
4901784	183	C	07/08/2020	10:46	-132.225	42.913	0	565.00	0	4.6500	0	36.8780	8	29.213	0	559.758	0	23.5	4	7.7	4	-1E+10	1	-1E+10	1	-1E+10	1	-1E+10	1	-1E+10	1	-1E+10	1
4901784	183	C	07/08/2020	10:46	-132.225	42.913	0	569.30	0	4.6460	0	36.8850	8	29.219	0	564.012	0	22.4	4	7.3	4	-1E+10	1	-1E+10	1	-1E+10	1	-1E+10	1	-1E+10	1	-1E+10	1
4901784	183	C	07/08/2020	10:46	-132.225	42.913	0	574.70	0	4.6290	0	36.8950	8	29.229	0	569.354	0	21.5	4	7.0	4	-1E+10	1	-1E+10	1	-1E+10	1	-1E+10	1	-1E+10	1	-1E+10	1
4901784	183	C	07/08/2020	10:46	-132.225	42.913	0	580.00	0	4.6300	0	36.9000	8	29.233	0	574.598	0	20.7	4	6.8	4	-1E+10	1	-1E+10	1	-1E+10	1	-1E+10	1	-1E+10	1	-1E+10	1
4901784	183	C	07/08/2020	10:46	-132.225	42.913	0	585.30	0	4.6390	0	36.9070	8	29.237	0	579.841	0	20.1	4	6.6	4	-1E+10	1	-1E+10	1	-1E+10	1	-1E+10	1	-1E+10	1	-1E+10	1
4901784	183	C	07/08/2020	10:46	-132.225	42.913	0	589.90	0	4.6310	0	36.9090	8	29.240	0	584.392	0	19.9	4	6.5	4	-1E+10	1	-1E+10	1	-1E+10	1	-1E+10	1	-1E+10	1	-1E+10	1
4901784	183	C	07/08/2020	10:46	-132.225	42.913	0	594.40	0	4.6070	0	36.9110	8	29.244	0	588.843	0	19.8	4	6.5	4	-1E+10	1	-1E+10	1	-1E+10	1	-1E+10	1	-1E+10	1	-1E+10	1
4901784	183	C	07/08/2020	10:46	-132.225	42.913	0	600.00	0	4.5790	0	36.9120	8	29.248	0	594.383	0	19.7	4	6.4	4	-1E+10	1	-1E+10	1	-1E+10	1	-1E+10	1	-1E+10	1	-1E+10	1
4901784	183	C	07/08/2020	10:46	-132.225	42.913	0	605.50	0	4.5240	0	36.9130	8	29.255	0	599.823	0	19.5	4	6.4	4	-1E+10	1	-1E+10	1	-1E+10	1	-1E+10	1	-1E+10	1	-1E+10	1
4901784	183	C	07/08/2020	10:46	-132.225	42.913	0	610.00	0	4.5100	0	36.9180	8	29.261	0	604.275	0	19.0	4	6.2	4	-1E+10	1	-1E+10	1	-1E+10	1	-1E+10	1	-1E+10	1	-1E+10	1
4901784	183	C	07/08/2020	10:46	-132.225	42.913	0	614.70	0	4.5050	0	36.9230	8	29.266	0	608.924	0	18.5	4	6.0	4	-1E+10	1	-1E+10	1	-1E+10	1	-1E+10	1	-1E+10	1	-1E+10	1
4901784	183	C	07/08/2020	10:46	-132.225	42.913	0	620.50	0	4.4970	0	36.9260	8	29.269	0	614.661	0	18.1	4	5.9	4	-1E+10	1	-1E+10	1	-1E+10	1	-1E+10	1	-1E+10	1	-1E+10	1
4901784	183	C	07/08/2020	10:46	-132.225	42.913	0	625.10	0	4.4600	0	36.9290	8	29.276	0	619.210	0	17.7	4	5.8	4	-1E+10	1	-1E+10	1	-1E+10	1	-1E+10	1	-1E+10	1	-1E+10	1
4901784	183	C	07/08/2020	10:46	-132.225	42.913	0	629.90	0	4.4340	0	36.9350	8	29.283	0	623.958	0	17.1	4	5.6	4	-1E+10	1	-1E+10	1	-1E+10	1	-1E+10	1	-1E+10	1	-1E+10	1
4901784	183	C	07/08/2020	10:46	-132.225	42.913	0	635.60	0	4.4490	0	36.9460	8	29.291	0	629.596	0	16.4	4	5.4	4	-1E+10	1	-1E+10	1	-1E+10	1	-1E+10	1	-1E+10	1	-1E+10	1
4901784	183	C	07/08/2020	10:46	-132.225	42.913	0	640.40	0	4.4380	0	36.9490	8	29.294	0	634.343	0	16.4	4	5.3	4	-1E+10	1	-1E+10	1	-1E+10	1	-1E+10	1	-1E+10	1	-1E+10	1
4901784	183	C	07/08/2020	10:46	-132.225	42.913	0	645.30	0	4.4110	0	36.9480	8	29.297	0	639.189	0	16.4	4	5.4	4	-1E+10	1	-1E+10	1	-1E+10	1	-1E+10	1	-1E+10	1	-1E+10	1
4901784	183	C	07/08/2020	10:46	-132.225	42.913	0	649.70	0	4.3710	0	36.9480	8	29.301	0	643.541	0	16.4	4	5.3	4	-1E+10	1	-1E+10	1	-1E+10	1	-1E+10	1	-1E+10	1	-1E+10	1
4901784	183	C	07/08/2020	10:46	-132.225	42.913	0	654.50	0	4.3590	0	36.9530	8	29.307	0	648.288	0	16.0	4	5.2	4	-1E+10	1	-1E+10	1	-1E+10	1	-1E+10	1	-1E+10	1	-1E+10	1
4901784	183	C	07/08/2020	10:46	-132.225	42.913	0	659.40	0	4.3360	0	36.9590	8	29.314	0	653.134	0	15.7	4	5.1	4	-1E+10	1	-1E+10	1	-1E+10	1	-1E+10	1	-1E+10	1	-1E+10	1
4901784	183	C	07/08/2020	10:46	-132.225	42.913	0	664.40	0	4.2940	0	36.9610	8	29.320	0	658.078	0	15.5	4	5.0	4	-1E+10	1	-1E+10	1	-1E+10	1	-1E+10	1	-1E+10	1	-1E+10	1
4901784	183	C	07/08/2020	10:46	-132.225	42.913	0	669.30	0	4.3200	0	36.9680	8	29.323	0	662.924	0	14.9	4	4.8	4	-1E+10	1	-1E+10	1	-1E+10	1	-1E+10	1	-1E+10	1	-1E+10	1
4901784	183	C	07/08/2020	10:46	-132.225	42.913	0	674.20	0	4.3020	0	36.9720	8	29.328	0	667.769	0	14.7	4	4.8	4	-1E+10	1	-1E+10	1	-1E+10	1	-1E+10	1	-1E+10	1	-1E+10	1
4901784	183	C	07/08/2020	10:46	-132.225	42.913	0	679.30	0	4.2790	0	36.9770	8	29.335	0	672.812	0	14.4	4	4.7	4	-1E+10	1	-1E+10	1	-1E+10	1	-1E+10	1	-1E+10	1	-1E+10	1
4901784	183	C	07/08/2020	10:46	-132.225	42.913	0	684.30	0	4.2860	0	36.9830	8	29.339	0	677.756	0	14.1	4	4.6	4	-1E+10	1	-1E+10	1	-1E+10	1	-1E+10	1	-1E+10	1	-1E+10	1
4901784	183	C	07/08/2020	10:46	-132.225	42.913	0	689.30	0	4.2680	0	36.9840	8	29.342	0	682.700	0	14.0	4	4.5	4	-1E+10	1	-1E+10	1	-1E+10	1	-1E+10	1	-1E+10	1	-1E+10	1
4901784	183	C	07/08/2020	10:46	-132.225	42.913	0	694.30	0	4.2480	0	36.9860	8	29.346	0	687.644	0	13.9	4	4.5	4	-1E+10	1	-1E+10	1	-1E+10	1	-1E+10	1	-1E+10	1	-1E+10	1
4901784	183	C	07/08/2020	10:46	-132.225	42.913	0	699.40	0	4.2100	0	36.9870	8	29.351	0	692.687	0	13.8	4	4.5	4	-1E+10	1	-1E+10	1	-1E+10	1	-1E+10	1	-1E+10	1	-1E+10	1
4901784	183	C	07/08/2020	10:46	-132.225	42.913	0	704.50	0	4.1960	0	36.9930	8	29.357	0	697.730	0	13.6	4	4.4	4	-1E+10	1	-1E+10	1	-1E+10	1	-1E+10	1	-1E+10	1	-1E+10	1
4901784	183	C	07/08/2020	10:46	-132.225	42.913	0	709.70	0	4.1820	0	36.9970	8	29.362	0	702.871	0	13.5	4	4.4	4	-1E+10	1	-1E+10	1	-1E+10	1	-1E+10	1	-1E+10	1	-1E+10	1
4901784	183	C	07/08/2020	10:46	-132.225	42.913	0	714.90	0	4.1690	0	36.9980	8	29.364	0	708.012	0	13.4	4	4.3	4	-1E+10	1	-1E+10	1	-1E+10	1	-1E+10	1	-1E+10	1	-1E+10	1
4901784	183	C	07/08/2020	10:46	-132.225	42.913	0	720.10	0	4.1450	0	37.0010	8	29.369	0	713.153	0	13.3	4	4.3	4	-1E+10	1	-1E+10	1	-1E+10	1	-1E+10	1	-1E+10	1	-1E+10	1
4901784	183	C	07/08/2020	10:46	-132.225	42.913	0	725.50	0	4.1340	0	37.0030	8	29.372	0	718.492	0	13.2	4	4.3	4	-1E+10	1	-1E+10	1	-1E+10	1	-1E+10	1	-1E+10	1	-1E+10	1
4901784	183	C	07/08/2020	10:46	-132.225	42.913	0	729.90	0	4.1220	0	37.0050	8	29.375	0	722.841	0	13.1	4	4.2	4	-1E+10	1	-1E+10	1	-1E+10	1	-1E+10	1	-1E+10	1	-1E+10	1
4901784	183	C	07/08/2020	10:46	-132.225	42.913	0	734.50	0	4.1070	0	37.0080	8	29.379	0	727.389	0	12.9	4	4.2	4	-1E+10	1	-1E+10	1	-1E+10	1	-1E+10	1	-1E+10	1	-1E+10	1
4901784	183	C	07/08/2020	10:46	-132.225	42.913	0	740.00	0	4.0910	0	37.0090	8	29.382	0	732.826	0	12.8	4	4.1	4	-1E+10	1	-1E+10	1	-1E+10	1	-1E+10	1	-1E+10	1	-1E+10	1
4901784	183	C	07/08/2020	10:46	-132.225	42.913	0	745.50	0	4.0710	0	37.0130	8	29.387	0	738.263	0	12.6	4	4.1	4	-1E+10	1	-1E+10	1	-1E+10	1	-1E+10	1	-1E+10	1	-1E+10	1
4901784	183	C	07/08/2020	10:46	-132.225	42.913	0	750.20	0	4.0590	0	37.0170	8	29.392	0	742.909	0	12.5	4	4.0	4	-1E+10	1	-1E+10	1	-1E+10	1	-1E+10	1	-1E+10	1	-1E+10	1
4901784	183	C	07/08/2020	10:46	-132.225	42.913	0	754.80	0	4.0430	0	37.0210	8	29.397	0	747.456	0	12.4	4	4.0	4	-1E+10	1	-1E+10	1	-1E+10	1	-1E+10	1	-1E+10	1	-1E+10	1
4901784	183	C	07/08/2020	10:46	-132.225	42.913	0	760.40	0	4.0450	0	37.0240	8	29.399	0	752.992	0	12.3	4	4.0	4	-1E+10	1	-1E+10	1	-1E+10	1	-1E+10	1	-1E+10	1	-1E+10	1
4901784	183	C	07/08/2020	10:46	-132.225	42.913	0	765.00	0	4.0320	0	37.0270	8	29.403	0	757.538	0	12.2	4	3.9	4	-1E+10	1	-1E+10	1	-1E+10	1	-1E+10	1	-1E+10	1	-1E+10	1
4901784	183	C	07/08/2020	10:46	-132.225	42.913	0	769.70	0	4.0100	0	37.0280	8	29.406	0	762.184	0	12.1	4	3.9	4	-1E+10	1	-1E+10	1	-1E+10	1	-1E+10	1	-1E+10	1	-1E+10	1
4901784	183	C	07/08/2020	10:46	-132.225	42.913	0	775.30	0	3.9880	0	37.0340	8	29.413	0	767.719	0	11.9	4	3.8	4	-1E+10	1	-1E+10	1	-1E+10	1	-1E+10	1	-1E+10	1	-1E+10	1
4901784	183	C	07/08/2020	10:46	-132.225	42.913	0	780.70	0	3.9760	0	37.0390	8	29.419	0	773.056	0	11.7	4	3.8	4	-1E+10	1	-1E+10	1	-1E+10	1	-1E+10	1	-1E+10	1	-1E+10	1
4901784	183	C	07/08/2020	10:46	-132.225	42.913	0	785.50	0	3.9750	0	37.0440	8	29.423	0	777.800	0	11.6	4	3.7	4	-1E+10	1	-1E+10	1	-1E+10	1	-1E+10	1	-1E+10	1	-1E+10	1
4901784	183	C	07/08/2020	10:46	-132.225	42.913	0	790.50	0	3.9710	0	37.0460	8	29.425	0	782.742	0	11.5	4	3.7	4	-1E+10	1	-1E+10	1	-1E+10	1	-1E+10	1	-1E+10	1	-1E+10	1
4901784	183	C	07/08/2020	10:46	-132.225	42.913	0	795.40	0	3.9570	0	37.0500	8	29.430	0	787.585	0	11.3	4	3.6	4	-1E+10	1	-1E+10	1	-1E+10	1	-1E+10	1	-1E+10	1	-1E+10	1
4901784	183	C	07/08/2020	10:46	-132.225	42.913	0	800.40	0	3.9480	0	37.0590	8	29.438	0	792.526	0	11.1	4	3.6	4	-1E+10	1	-1E+10	1	-1E+10	1	-1E+10	1	-1E+10	1	-1E+10	1
4901784	183	C	07/08/2020	10:46	-132.225	42.913	0	805.40	0	3.9320	0	37.0630	8	29.443	0	797.467	0	11.0	4	3.6	4	-1E+10	1	-1E+10	1	-1E+10	1	-1E+10	1	-1E+10	1	-1E+10	1
4901784	183	C	07/08/2020	10:46	-132.225	42.913	0	810.40	0	3.9250	0	37.0640	8	29.444	0	802.408	0	11.0	4	3.5	4	-1E+10	1	-1E+10	1	-1E+10	1	-1E+10	1	-1E+10	1	-1E+10	1
4901784	183	C	07/08/2020	10:46	-132.225	42.913	0	815.50	0	3.9110	0	37.0650	8	29.447	0	807.448	0	10.9	4	3.5	4	-1E+10	1	-1E+10	1	-1E+10	1	-1E+10	1	-1E+10	1	-1E+10	1
4901784	183	C	07/08/2020	10:46	-132.225	42.913	0	820.60	0	3.8900	0	37.0700	8	29.453	0	812.488	0	10.8	4	3.5	4	-1E+10	1	-1E+10	1	-1E+10	1	-1E+10	1	-1E+10	1	-1E+10	1
4901784	183	C	07/08/2020	10:46	-132.225	42.913	0	825.70	0	3.8730	0	37.0750	8	29.459	0	817.528	0	10.7	4	3.4	4	-1E+10	1	-1E+10	1	-1E+10	1	-1E+10	1	-1E+10	1	-1E+10	1
4901784	183	C	07/08/2020	10:46	-132.225	42.913	0	830.00	0	3.8600	0	37.0790	8	29.464	0	821.776	0	10.7	4	3.4	4	-1E+10	1	-1E+10	1	-1E+10	1	-1E+10	1	-1E+10	1	-1E+10	1
4901784	183	C	07/08/2020	10:46	-132.225	42.913	0	834.30	0	3.8500	0	37.0800	8	29.466	0	826.025	0	10.6	4	3.4	4	-1E+10	1	-1E+10	1	-1E+10	1	-1E+10	1	-1E+10	1	-1E+10	1
4901784	183	C	07/08/2020	10:46	-132.225	42.913	0	839.40	0	3.8310	0	37.0830	8	29.470	0	831.065	0	10.5	4	3.4	4	-1E+10	1	-1E+10	1	-1E+10	1	-1E+10	1	-1E+10	1	-1E+10	1
4901784	183	C	07/08/2020	10:46	-132.225	42.913	0	844.50	0	3.8250	0	37.0880	8	29.475	0	836.104	0	10.4	4	3.4	4	-1E+10	1	-1E+10	1	-1E+10	1	-1E+10	1	-1E+10	1	-1E+10	1
4901784	183	C	07/08/2020	10:46	-132.225	42.913	0	849.80	0	3.8190	0	37.0910	8	29.478	0	841.340	0	10.4	4	3.3	4	-1E+10	1	-1E+10	1	-1E+10	1	-1E+10	1	-1E+10	1	-1E+10	1
4901784	183	C	07/08/2020	10:46	-132.225	42.913	0	855.00	0	3.8000	0	37.0960	8	29.484	0	846.478	0	10.3	4	3.3	4	-1E+10	1	-1E+10	1	-1E+10	1	-1E+10	1	-1E+10	1	-1E+10	1
4901784	183	C	07/08/2020	10:46	-132.225	42.913	0	860.40	0	3.7900	0	37.0980	8	29.487	0	851.813	0	10.3	4	3.3	4	-1E+10	1	-1E+10	1	-1E+10	1	-1E+10	1	-1E+10	1	-1E+10	1
4901784	183	C	07/08/2020	10:46	-132.225	42.913	0	865.60	0	3.7770	0	37.1010	8	29.490	0	856.951	0	10.2	4	3.3	4	-1E+10	1	-1E+10	1	-1E+10	1	-1E+10	1	-1E+10	1	-1E+10	1
4901784	183	C	07/08/2020	10:46	-132.225	42.913	0	870.10	0	3.7650	0	37.1040	8	29.494	0	861.397	0	10.2	4	3.3	4	-1E+10	1	-1E+10	1	-1E+10	1	-1E+10	1	-1E+10	1	-1E+10	1
4901784	183	C	07/08/2020	10:46	-132.225	42.913	0	874.60	0	3.7560	0	37.1080	8	29.498	0	865.842	0	10.1	4	3.3	4	-1E+10	1	-1E+10	1	-1E+10	1	-1E+10	1	-1E+10	1	-1E+10	1
4901784	183	C	07/08/2020	10:46	-132.225	42.913	0	879.90	0	3.7450	0	37.1100	8	29.501	0	871.078	0	10.1	4	3.2	4	-1E+10	1	-1E+10	1	-1E+10	1	-1E+10	1	-1E+10	1	-1E+10	1
4901784	183	C	07/08/2020	10:46	-132.225	42.913	0	885.20	0	3.7260	0	37.1150	8	29.507	0	876.314	0	10.1	4	3.2	4	-1E+10	1	-1E+10	1	-1E+10	1	-1E+10	1	-1E+10	1	-1E+10	1
4901784	183	C	07/08/2020	10:46	-132.225	42.913	0	890.60	0	3.7160	0	37.1180	8	29.511	0	881.648	0	10.1	4	3.2	4	-1E+10	1	-1E+10	1	-1E+10	1	-1E+10	1	-1E+10	1	-1E+10	1
4901784	183	C	07/08/2020	10:46	-132.225	42.913	0	895.10	0	3.7110	0	37.1210	8	29.514	0	886.094	0	10.0	4	3.2	4	-1E+10	1	-1E+10	1	-1E+10	1	-1E+10	1	-1E+10	1	-1E+10	1
4901784	183	C	07/08/2020	10:46	-132.225	42.913	0	899.60	0	3.7050	0	37.1230	8	29.516	0	890.539	0	10.0	4	3.2	4	-1E+10	1	-1E+10	1	-1E+10	1	-1E+10	1	-1E+10	1	-1E+10	1
4901784	183	C	07/08/2020	10:46	-132.225	42.913	0	904.90	0	3.6890	0	37.1270	8	29.521	0	895.774	0	10.0	4	3.2	4	-1E+10	1	-1E+10	1	-1E+10	1	-1E+10	1	-1E+10	1	-1E+10	1
4901784	183	C	07/08/2020	10:46	-132.225	42.913	0	910.40	0	3.6780	0	37.1290	8	29.524	0	901.207	0	10.0	4	3.2	4	-1E+10	1	-1E+10	1	-1E+10	1	-1E+10	1	-1E+10	1	-1E+10	1
4901784	183	C	07/08/2020	10:46	-132.225	42.913	0	914.80	0	3.6720	0	37.1330	8	29.527	0	905.553	0	10.0	4	3.2	4	-1E+10	1	-1E+10	1	-1E+10	1	-1E+10	1	-1E+10	1	-1E+10	1
4901784	183	C	07/08/2020	10:46	-132.225	42.913	0	919.30	0	3.6650	0	37.1350	8	29.530	0	909.997	0	10.0	4	3.2	4	-1E+10	1	-1E+10	1	-1E+10	1	-1E+10	1	-1E+10	1	-1E+10	1
4901784	183	C	07/08/2020	10:46	-132.225	42.913	0	924.70	0	3.6560	0	37.1400	8	29.535	0	915.331	0	10.0	4	3.2	4	-1E+10	1	-1E+10	1	-1E+10	1	-1E+10	1	-1E+10	1	-1E+10	1
4901784	183	C	07/08/2020	10:46	-132.225	42.913	0	930.10	0	3.6410	0	37.1430	8	29.539	0	920.664	0	10.0	4	3.2	4	-1E+10	1	-1E+10	1	-1E+10	1	-1E+10	1	-1E+10	1	-1E+10	1
4901784	183	C	07/08/2020	10:46	-132.225	42.913	0	935.50	0	3.6220	0	37.1460	8	29.543	0	925.998	0	10.0	4	3.2	4	-1E+10	1	-1E+10	1	-1E+10	1	-1E+10	1	-1E+10	1	-1E+10	1
4901784	183	C	07/08/2020	10:46	-132.225	42.913	0	940.10	0	3.6080	0	37.1500	8	29.548	0	930.541	0	10.0	4	3.2	4	-1E+10	1	-1E+10	1	-1E+10	1	-1E+10	1	-1E+10	1	-1E+10	1
4901784	183	C	07/08/2020	10:46	-132.225	42.913	0	944.60	0	3.5910	0	37.1540	8	29.553	0	934.985	0	10.1	4	3.2	4	-1E+10	1	-1E+10	1	-1E+10	1	-1E+10	1	-1E+10	1	-1E+10	1
4901784	183	C	07/08/2020	10:46	-132.225	42.913	0	949.90	0	3.5760	0	37.1570	8	29.557	0	940.219	0	10.1	4	3.2	4	-1E+10	1	-1E+10	1	-1E+10	1	-1E+10	1	-1E+10	1	-1E+10	1
4901784	183	C	07/08/2020	10:46	-132.225	42.913	0	955.40	0	3.5580	0	37.1620	8	29.563	0	945.651	0	10.1	4	3.2	4	-1E+10	1	-1E+10	1	-1E+10	1	-1E+10	1	-1E+10	1	-1E+10	1
4901784	183	C	07/08/2020	10:46	-132.225	42.913	0	960.70	0	3.5510	0	37.1630	8	29.564	0	950.885	0	10.1	4	3.2	4	-1E+10	1	-1E+10	1	-1E+10	1	-1E+10	1	-1E+10	1	-1E+10	1
4901784	183	C	07/08/2020	10:46	-132.225	42.913	0	965.20	0	3.5450	0	37.1640	8	29.566	0	955.328	0	10.1	4	3.2	4	-1E+10	1	-1E+10	1	-1E+10	1	-1E+10	1	-1E+10	1	-1E+10	1
4901784	183	C	07/08/2020	10:46	-132.225	42.913	0	969.70	0	3.5380	0	37.1670	8	29.569	0	959.772	0	10.2	4	3.3	4	-1E+10	1	-1E+10	1	-1E+10	1	-1E+10	1	-1E+10	1	-1E+10	1
4901784	183	C	07/08/2020	10:46	-132.225	42.913	0	975.20	0	3.5320	0	37.1680	8	29.571	0	965.203	0	10.2	4	3.3	4	-1E+10	1	-1E+10	1	-1E+10	1	-1E+10	1	-1E+10	1	-1E+10	1
4901784	183	C	07/08/2020	10:46	-132.225	42.913	0	979.80	0	3.5140	0	37.1720	8	29.576	0	969.745	0	10.3	4	3.3	4	-1E+10	1	-1E+10	1	-1E+10	1	-1E+10	1	-1E+10	1	-1E+10	1
4901784	183	C	07/08/2020	10:46	-132.225	42.913	0	984.40	0	3.5010	0	37.1760	8	29.580	0	974.287	0	10.3	4	3.3	4	-1E+10	1	-1E+10	1	-1E+10	1	-1E+10	1	-1E+10	1	-1E+10	1
4901784	183	C	07/08/2020	10:46	-132.225	42.913	0	990.00	0	3.4950	0	37.1770	8	29.582	0	979.817	0	10.4	4	3.3	4	-1E+10	1	-1E+10	1	-1E+10	1	-1E+10	1	-1E+10	1	-1E+10	1
4901784	183	C	07/08/2020	10:46	-132.225	42.913	0	995.50	0	3.4830	0	37.1800	8	29.585	0	985.247	0	10.4	4	3.3	4	-1E+10	1	-1E+10	1	-1E+10	1	-1E+10	1	-1E+10	1	-1E+10	1
4901784	183	C	07/08/2020	10:46	-132.225	42.913	0	1000.10	0	3.4730	0	37.1830	8	29.589	0	989.789	0	10.5	4	3.3	4	-1E+10	1	-1E+10	1	-1E+10	1	-1E+10	1	-1E+10	1	-1E+10	1
4901784	183	C	07/08/2020	10:46	-132.225	42.913	0	1004.70	0	3.4590	0	37.1860	8	29.593	0	994.331	0	10.6	4	3.4	4	-1E+10	1	-1E+10	1	-1E+10	1	-1E+10	1	-1E+10	1	-1E+10	1
4901784	183	C	07/08/2020	10:46	-132.225	42.913	0	1010.20	0	3.4460	0	37.1890	8	29.596	0	999.761	0	10.6	4	3.4	4	-1E+10	1	-1E+10	1	-1E+10	1	-1E+10	1	-1E+10	1	-1E+10	1
4901784	183	C	07/08/2020	10:46	-132.225	42.913	0	1014.70	0	3.4330	0	37.1920	8	29.600	0	1004.204	0	10.7	4	3.4	4	-1E+10	1	-1E+10	1	-1E+10	1	-1E+10	1	-1E+10	1	-1E+10	1
4901784	183	C	07/08/2020	10:46	-132.225	42.913	0	1019.20	0	3.4170	0	37.1950	8	29.604	0	1008.646	0	10.8	4	3.4	4	-1E+10	1	-1E+10	1	-1E+10	1	-1E+10	1	-1E+10	1	-1E+10	1
4901784	183	C	07/08/2020	10:46	-132.225	42.913	0	1024.50	0	3.4080	0	37.1970	8	29.607	0	1013.878	0	10.8	4	3.5	4	-1E+10	1	-1E+10	1	-1E+10	1	-1E+10	1	-1E+10	1	-1E+10	1
4901784	183	C	07/08/2020	10:46	-132.225	42.913	0	1030.00	0	3.3920	0	37.2010	8	29.612	0	1019.308	0	10.9	4	3.5	4	-1E+10	1	-1E+10	1	-1E+10	1	-1E+10	1	-1E+10	1	-1E+10	1
4901784	183	C	07/08/2020	10:46	-132.225	42.913	0	1035.70	0	3.3770	0	37.2040	8	29.616	0	1024.935	0	11.0	4	3.5	4	-1E+10	1	-1E+10	1	-1E+10	1	-1E+10	1	-1E+10	1	-1E+10	1
4901784	183	C	07/08/2020	10:46	-132.225	42.913	0	1040.50	0	3.3620	0	37.2080	8	29.620	0	1029.673	0	11.1	4	3.5	4	-1E+10	1	-1E+10	1	-1E+10	1	-1E+10	1	-1E+10	1	-1E+10	1
4901784	183	C	07/08/2020	10:46	-132.225	42.913	0	1045.40	0	3.3530	0	37.2090	8	29.622	0	1034.510	0	11.2	4	3.6	4	-1E+10	1	-1E+10	1	-1E+10	1	-1E+10	1	-1E+10	1	-1E+10	1
4901784	183	C	07/08/2020	10:46	-132.225	42.913	0	1050.40	0	3.3420	0	37.2120	8	29.626	0	1039.446	0	11.3	4	3.6	4	-1E+10	1	-1E+10	1	-1E+10	1	-1E+10	1	-1E+10	1	-1E+10	1
4901784	183	C	07/08/2020	10:46	-132.225	42.913	0	1055.30	0	3.3310	0	37.2140	8	29.629	0	1044.283	0	11.3	4	3.6	4	-1E+10	1	-1E+10	1	-1E+10	1	-1E+10	1	-1E+10	1	-1E+10	1
4901784	183	C	07/08/2020	10:46	-132.225	42.913	0	1060.50	0	3.3220	0	37.2170	8	29.632	0	1049.415	0	11.4	4	3.6	4	-1E+10	1	-1E+10	1	-1E+10	1	-1E+10	1	-1E+10	1	-1E+10	1
4901784	183	C	07/08/2020	10:46	-132.225	42.913	0	1065.60	0	3.3150	0	37.2190	8	29.634	0	1054.449	0	11.5	4	3.7	4	-1E+10	1	-1E+10	1	-1E+10	1	-1E+10	1	-1E+10	1	-1E+10	1
4901784	183	C	07/08/2020	10:46	-132.225	42.913	0	1069.90	0	3.3130	0	37.2190	8	29.634	0	1058.693	0	11.5	4	3.7	4	-1E+10	1	-1E+10	1	-1E+10	1	-1E+10	1	-1E+10	1	-1E+10	1
4901784	183	C	07/08/2020	10:46	-132.225	42.913	0	1074.20	0	3.3080	0	37.2200	8	29.636	0	1062.937	0	11.7	4	3.7	4	-1E+10	1	-1E+10	1	-1E+10	1	-1E+10	1	-1E+10	1	-1E+10	1
4901784	183	C	07/08/2020	10:46	-132.225	42.913	0	1079.50	0	3.2970	0	37.2230	8	29.639	0	1068.168	0	11.8	4	3.8	4	-1E+10	1	-1E+10	1	-1E+10	1	-1E+10	1	-1E+10	1	-1E+10	1
4901784	183	C	07/08/2020	10:46	-132.225	42.913	0	1084.80	0	3.2930	0	37.2270	8	29.643	0	1073.399	0	12.0	4	3.8	4	-1E+10	1	-1E+10	1	-1E+10	1	-1E+10	1	-1E+10	1	-1E+10	1
4901784	183	C	07/08/2020	10:46	-132.225	42.913	0	1090.20	0	3.2890	0	37.2280	8	29.644	0	1078.728	0	12.1	4	3.9	4	-1E+10	1	-1E+10	1	-1E+10	1	-1E+10	1	-1E+10	1	-1E+10	1
4901784	183	C	07/08/2020	10:46	-132.225	42.913	0	1095.50	0	3.2780	0	37.2310	8	29.648	0	1083.959	0	12.3	4	3.9	4	-1E+10	1	-1E+10	1	-1E+10	1	-1E+10	1	-1E+10	1	-1E+10	1
4901784	183	C	07/08/2020	10:46	-132.225	42.913	0	1100.00	0	3.2690	0	37.2330	8	29.650	0	1088.400	0	12.3	4	3.9	4	-1E+10	1	-1E+10	1	-1E+10	1	-1E+10	1	-1E+10	1	-1E+10	1
4901784	183	C	07/08/2020	10:46	-132.225	42.913	0	1104.40	0	3.2580	0	37.2350	8	29.653	0	1092.742	0	12.4	4	3.9	4	-1E+10	1	-1E+10	1	-1E+10	1	-1E+10	1	-1E+10	1	-1E+10	1
4901784	183	C	07/08/2020	10:46	-132.225	42.913	0	1109.80	0	3.2380	0	37.2360	8	29.656	0	1098.071	0	12.4	4	3.9	4	-1E+10	1	-1E+10	1	-1E+10	1	-1E+10	1	-1E+10	1	-1E+10	1
4901784	183	C	07/08/2020	10:46	-132.225	42.913	0	1115.20	0	3.2150	0	37.2390	8	29.661	0	1103.400	0	12.5	4	4.0	4	-1E+10	1	-1E+10	1	-1E+10	1	-1E+10	1	-1E+10	1	-1E+10	1
4901784	183	C	07/08/2020	10:46	-132.225	42.913	0	1120.30	0	3.1980	0	37.2420	8	29.665	0	1108.432	0	12.7	4	4.0	4	-1E+10	1	-1E+10	1	-1E+10	1	-1E+10	1	-1E+10	1	-1E+10	1
4901784	183	C	07/08/2020	10:46	-132.225	42.913	0	1124.40	0	3.1930	0	37.2430	8	29.666	0	1112.478	0	12.7	4	4.0	4	-1E+10	1	-1E+10	1	-1E+10	1	-1E+10	1	-1E+10	1	-1E+10	1
4901784	183	C	07/08/2020	10:46	-132.225	42.913	0	1129.90	0	3.1840	0	37.2450	8	29.669	0	1117.905	0	12.8	4	4.1	4	-1E+10	1	-1E+10	1	-1E+10	1	-1E+10	1	-1E+10	1	-1E+10	1
4901784	183	C	07/08/2020	10:46	-132.225	42.913	0	1135.60	0	3.1740	0	37.2470	8	29.671	0	1123.529	0	13.0	4	4.1	4	-1E+10	1	-1E+10	1	-1E+10	1	-1E+10	1	-1E+10	1	-1E+10	1
4901784	183	C	07/08/2020	10:46	-132.225	42.913	0	1140.40	0	3.1610	0	37.2490	8	29.674	0	1128.265	0	13.2	4	4.2	4	-1E+10	1	-1E+10	1	-1E+10	1	-1E+10	1	-1E+10	1	-1E+10	1
4901784	183	C	07/08/2020	10:46	-132.225	42.913	0	1145.20	0	3.1460	0	37.2520	8	29.678	0	1133.001	0	13.4	4	4.2	4	-1E+10	1	-1E+10	1	-1E+10	1	-1E+10	1	-1E+10	1	-1E+10	1
4901784	183	C	07/08/2020	10:46	-132.225	42.913	0	1150.10	0	3.1340	0	37.2550	8	29.682	0	1137.836	0	13.6	4	4.3	4	-1E+10	1	-1E+10	1	-1E+10	1	-1E+10	1	-1E+10	1	-1E+10	1
4901784	183	C	07/08/2020	10:46	-132.225	42.913	0	1155.00	0	3.1230	0	37.2570	8	29.685	0	1142.670	0	13.7	4	4.3	4	-1E+10	1	-1E+10	1	-1E+10	1	-1E+10	1	-1E+10	1	-1E+10	1
4901784	183	C	07/08/2020	10:46	-132.225	42.913	0	1160.00	0	3.1130	0	37.2590	8	29.687	0	1147.603	0	13.8	4	4.4	4	-1E+10	1	-1E+10	1	-1E+10	1	-1E+10	1	-1E+10	1	-1E+10	1
4901784	183	C	07/08/2020	10:46	-132.225	42.913	0	1165.00	0	3.1020	0	37.2610	8	29.690	0	1152.536	0	14.0	4	4.4	4	-1E+10	1	-1E+10	1	-1E+10	1	-1E+10	1	-1E+10	1	-1E+10	1
4901784	183	C	07/08/2020	10:46	-132.225	42.913	0	1170.20	0	3.0960	0	37.2620	8	29.691	0	1157.666	0	14.1	4	4.5	4	-1E+10	1	-1E+10	1	-1E+10	1	-1E+10	1	-1E+10	1	-1E+10	1
4901784	183	C	07/08/2020	10:46	-132.225	42.913	0	1175.20	0	3.0820	0	37.2650	8	29.695	0	1162.599	0	14.3	4	4.5	4	-1E+10	1	-1E+10	1	-1E+10	1	-1E+10	1	-1E+10	1	-1E+10	1
4901784	183	C	07/08/2020	10:46	-132.225	42.913	0	1180.40	0	3.0680	0	37.2670	8	29.698	0	1167.729	0	14.5	4	4.6	4	-1E+10	1	-1E+10	1	-1E+10	1	-1E+10	1	-1E+10	1	-1E+10	1
4901784	183	C	07/08/2020	10:46	-132.225	42.913	0	1185.60	0	3.0560	0	37.2690	8	29.701	0	1172.858	0	14.7	4	4.6	4	-1E+10	1	-1E+10	1	-1E+10	1	-1E+10	1	-1E+10	1	-1E+10	1
4901784	183	C	07/08/2020	10:46	-132.225	42.913	0	1189.90	0	3.0460	0	37.2720	8	29.704	0	1177.100	0	14.9	4	4.7	4	-1E+10	1	-1E+10	1	-1E+10	1	-1E+10	1	-1E+10	1	-1E+10	1
4901784	183	C	07/08/2020	10:46	-132.225	42.913	0	1194.20	0	3.0360	0	37.2730	8	29.706	0	1181.342	0	15.0	4	4.8	4	-1E+10	1	-1E+10	1	-1E+10	1	-1E+10	1	-1E+10	1	-1E+10	1
4901784	183	C	07/08/2020	10:46	-132.225	42.913	0	1200.10	0	3.0250	0	37.2760	8	29.710	0	1187.162	0	15.3	4	4.8	4	-1E+10	1	-1E+10	1	-1E+10	1	-1E+10	1	-1E+10	1	-1E+10	1
4901784	183	C	07/08/2020	10:46	-132.225	42.913	0	1204.70	0	3.0200	0	37.2780	8	29.712	0	1191.699	0	15.4	4	4.9	4	-1E+10	1	-1E+10	1	-1E+10	1	-1E+10	1	-1E+10	1	-1E+10	1
4901784	183	C	07/08/2020	10:46	-132.225	42.913	0	1210.00	0	3.0090	0	37.2790	8	29.714	0	1196.927	0	15.6	4	4.9	4	-1E+10	1	-1E+10	1	-1E+10	1	-1E+10	1	-1E+10	1	-1E+10	1
4901784	183	C	07/08/2020	10:46	-132.225	42.913	0	1215.60	0	2.9940	0	37.2820	8	29.718	0	1202.450	0	15.9	4	5.0	4	-1E+10	1	-1E+10	1	-1E+10	1	-1E+10	1	-1E+10	1	-1E+10	1
4901784	183	C	07/08/2020	10:46	-132.225	42.913	0	1220.60	0	2.9800	0	37.2840	8	29.721	0	1207.382	0	16.0	4	5.1	4	-1E+10	1	-1E+10	1	-1E+10	1	-1E+10	1	-1E+10	1	-1E+10	1
4901784	183	C	07/08/2020	10:46	-132.225	42.913	0	1225.50	0	2.9690	0	37.2860	8	29.723	0	1212.215	0	16.2	4	5.1	4	-1E+10	1	-1E+10	1	-1E+10	1	-1E+10	1	-1E+10	1	-1E+10	1
4901784	183	C	07/08/2020	10:46	-132.225	42.913	0	1230.30	0	2.9580	0	37.2880	8	29.726	0	1216.949	0	16.4	4	5.2	4	-1E+10	1	-1E+10	1	-1E+10	1	-1E+10	1	-1E+10	1	-1E+10	1
4901784	183	C	07/08/2020	10:46	-132.225	42.913	0	1235.20	0	2.9460	0	37.2900	8	29.729	0	1221.781	0	16.5	4	5.2	4	-1E+10	1	-1E+10	1	-1E+10	1	-1E+10	1	-1E+10	1	-1E+10	1
4901784	183	C	07/08/2020	10:46	-132.225	42.913	0	1240.20	0	2.9360	0	37.2910	8	29.731	0	1226.712	0	16.6	4	5.2	4	-1E+10	1	-1E+10	1	-1E+10	1	-1E+10	1	-1E+10	1	-1E+10	1
4901784	183	C	07/08/2020	10:46	-132.225	42.913	0	1245.10	0	2.9280	0	37.2920	8	29.732	0	1231.545	0	16.8	4	5.3	4	-1E+10	1	-1E+10	1	-1E+10	1	-1E+10	1	-1E+10	1	-1E+10	1
4901784	183	C	07/08/2020	10:46	-132.225	42.913	0	1250.10	0	2.9180	0	37.2940	8	29.735	0	1236.476	0	17.0	4	5.4	4	-1E+10	1	-1E+10	1	-1E+10	1	-1E+10	1	-1E+10	1	-1E+10	1
4901784	183	C	07/08/2020	10:46	-132.225	42.913	0	1255.10	0	2.9070	0	37.2950	8	29.737	0	1241.406	0	17.2	4	5.4	4	-1E+10	1	-1E+10	1	-1E+10	1	-1E+10	1	-1E+10	1	-1E+10	1
4901784	183	C	07/08/2020	10:46	-132.225	42.913	0	1260.20	0	2.8920	0	37.2980	8	29.741	0	1246.436	0	17.4	4	5.5	4	-1E+10	1	-1E+10	1	-1E+10	1	-1E+10	1	-1E+10	1	-1E+10	1
4901784	183	C	07/08/2020	10:46	-132.225	42.913	0	1265.40	0	2.8830	0	37.3000	8	29.743	0	1251.563	0	17.5	4	5.5	4	-1E+10	1	-1E+10	1	-1E+10	1	-1E+10	1	-1E+10	1	-1E+10	1
4901784	183	C	07/08/2020	10:46	-132.225	42.913	0	1270.60	0	2.8780	0	37.3010	8	29.744	0	1256.691	0	17.7	4	5.6	4	-1E+10	1	-1E+10	1	-1E+10	1	-1E+10	1	-1E+10	1	-1E+10	1
4901784	183	C	07/08/2020	10:46	-132.225	42.913	0	1274.90	0	2.8710	0	37.3030	8	29.747	0	1260.931	0	17.9	4	5.6	4	-1E+10	1	-1E+10	1	-1E+10	1	-1E+10	1	-1E+10	1	-1E+10	1
4901784	183	C	07/08/2020	10:46	-132.225	42.913	0	1279.30	0	2.8670	0	37.3040	8	29.748	0	1265.270	0	18.0	4	5.7	4	-1E+10	1	-1E+10	1	-1E+10	1	-1E+10	1	-1E+10	1	-1E+10	1
4901784	183	C	07/08/2020	10:46	-132.225	42.913	0	1284.60	0	2.8620	0	37.3050	8	29.749	0	1270.496	0	18.1	4	5.7	4	-1E+10	1	-1E+10	1	-1E+10	1	-1E+10	1	-1E+10	1	-1E+10	1
4901784	183	C	07/08/2020	10:46	-132.225	42.913	0	1289.80	0	2.8550	0	37.3050	8	29.750	0	1275.623	0	18.3	4	5.7	4	-1E+10	1	-1E+10	1	-1E+10	1	-1E+10	1	-1E+10	1	-1E+10	1
4901784	183	C	07/08/2020	10:46	-132.225	42.913	0	1295.10	0	2.8450	0	37.3070	8	29.753	0	1280.848	0	18.5	4	5.8	4	-1E+10	1	-1E+10	1	-1E+10	1	-1E+10	1	-1E+10	1	-1E+10	1
4901784	183	C	07/08/2020	10:46	-132.225	42.913	0	1300.30	0	2.8330	0	37.3090	8	29.755	0	1285.975	0	18.7	4	5.9	4	-1E+10	1	-1E+10	1	-1E+10	1	-1E+10	1	-1E+10	1	-1E+10	1
4901784	183	C	07/08/2020	10:46	-132.225	42.913	0	1305.50	0	2.8230	0	37.3100	8	29.757	0	1291.102	0	18.9	4	5.9	4	-1E+10	1	-1E+10	1	-1E+10	1	-1E+10	1	-1E+10	1	-1E+10	1
4901784	183	C	07/08/2020	10:46	-132.225	42.913	0	1310.00	0	2.8110	0	37.3120	8	29.760	0	1295.539	0	19.1	4	6.0	4	-1E+10	1	-1E+10	1	-1E+10	1	-1E+10	1	-1E+10	1	-1E+10	1
4901784	183	C	07/08/2020	10:46	-132.225	42.913	0	1314.40	0	2.8000	0	37.3140	8	29.763	0	1299.877	0	19.4	4	6.1	4	-1E+10	1	-1E+10	1	-1E+10	1	-1E+10	1	-1E+10	1	-1E+10	1
4901784	183	C	07/08/2020	10:46	-132.225	42.913	0	1319.60	0	2.7900	0	37.3160	8	29.765	0	1305.003	0	19.6	4	6.1	4	-1E+10	1	-1E+10	1	-1E+10	1	-1E+10	1	-1E+10	1	-1E+10	1
4901784	183	C	07/08/2020	10:46	-132.225	42.913	0	1325.00	0	2.7810	0	37.3170	8	29.767	0	1310.326	0	19.8	4	6.2	4	-1E+10	1	-1E+10	1	-1E+10	1	-1E+10	1	-1E+10	1	-1E+10	1
4901784	183	C	07/08/2020	10:46	-132.225	42.913	0	1330.40	0	2.7640	0	37.3190	8	29.770	0	1315.650	0	20.1	4	6.3	4	-1E+10	1	-1E+10	1	-1E+10	1	-1E+10	1	-1E+10	1	-1E+10	1
4901784	183	C	07/08/2020	10:46	-132.225	42.913	0	1334.80	0	2.7520	0	37.3210	8	29.773	0	1319.987	0	20.3	4	6.4	4	-1E+10	1	-1E+10	1	-1E+10	1	-1E+10	1	-1E+10	1	-1E+10	1
4901784	183	C	07/08/2020	10:46	-132.225	42.913	0	1339.20	0	2.7450	0	37.3210	8	29.774	0	1324.325	0	20.6	4	6.4	4	-1E+10	1	-1E+10	1	-1E+10	1	-1E+10	1	-1E+10	1	-1E+10	1
4901784	183	C	07/08/2020	10:46	-132.225	42.913	0	1345.00	0	2.7310	0	37.3240	8	29.777	0	1330.042	0	20.9	4	6.6	4	-1E+10	1	-1E+10	1	-1E+10	1	-1E+10	1	-1E+10	1	-1E+10	1
4901784	183	C	07/08/2020	10:46	-132.225	42.913	0	1350.80	0	2.7120	0	37.3250	8	29.780	0	1335.759	0	21.3	4	6.7	4	-1E+10	1	-1E+10	1	-1E+10	1	-1E+10	1	-1E+10	1	-1E+10	1
4901784	183	C	07/08/2020	10:46	-132.225	42.913	0	1355.70	0	2.6990	0	37.3270	8	29.783	0	1340.589	0	21.5	4	6.7	4	-1E+10	1	-1E+10	1	-1E+10	1	-1E+10	1	-1E+10	1	-1E+10	1
4901784	183	C	07/08/2020	10:46	-132.225	42.913	0	1360.00	0	2.6910	0	37.3280	8	29.784	0	1344.827	0	21.7	4	6.8	4	-1E+10	1	-1E+10	1	-1E+10	1	-1E+10	1	-1E+10	1	-1E+10	1
4901784	183	C	07/08/2020	10:46	-132.225	42.913	0	1364.20	0	2.6830	0	37.3300	8	29.787	0	1348.967	0	21.9	4	6.8	4	-1E+10	1	-1E+10	1	-1E+10	1	-1E+10	1	-1E+10	1	-1E+10	1
4901784	183	C	07/08/2020	10:46	-132.225	42.913	0	1369.30	0	2.6800	0	37.3310	8	29.788	0	1353.994	0	22.0	4	6.9	4	-1E+10	1	-1E+10	1	-1E+10	1	-1E+10	1	-1E+10	1	-1E+10	1
4901784	183	C	07/08/2020	10:46	-132.225	42.913	0	1374.50	0	2.6730	0	37.3320	8	29.789	0	1359.119	0	22.2	4	7.0	4	-1E+10	1	-1E+10	1	-1E+10	1	-1E+10	1	-1E+10	1	-1E+10	1
4901784	183	C	07/08/2020	10:46	-132.225	42.913	0	1379.60	0	2.6670	0	37.3330	8	29.791	0	1364.145	0	22.4	4	7.0	4	-1E+10	1	-1E+10	1	-1E+10	1	-1E+10	1	-1E+10	1	-1E+10	1
4901784	183	C	07/08/2020	10:46	-132.225	42.913	0	1384.70	0	2.6620	0	37.3340	8	29.792	0	1369.171	0	22.6	4	7.1	4	-1E+10	1	-1E+10	1	-1E+10	1	-1E+10	1	-1E+10	1	-1E+10	1
4901784	183	C	07/08/2020	10:46	-132.225	42.913	0	1389.90	0	2.6530	0	37.3350	8	29.794	0	1374.296	0	22.9	4	7.2	4	-1E+10	1	-1E+10	1	-1E+10	1	-1E+10	1	-1E+10	1	-1E+10	1
4901784	183	C	07/08/2020	10:46	-132.225	42.913	0	1395.00	0	2.6450	0	37.3360	8	29.795	0	1379.322	0	23.2	4	7.3	4	-1E+10	1	-1E+10	1	-1E+10	1	-1E+10	1	-1E+10	1	-1E+10	1
4901784	183	C	07/08/2020	10:46	-132.225	42.913	0	1400.10	0	2.6270	0	37.3390	8	29.800	0	1384.348	0	23.6	4	7.4	4	-1E+10	1	-1E+10	1	-1E+10	1	-1E+10	1	-1E+10	1	-1E+10	1
4901784	183	C	07/08/2020	10:46	-132.225	42.913	0	1405.30	0	2.6180	0	37.3410	8	29.802	0	1389.473	0	23.8	4	7.4	4	-1E+10	1	-1E+10	1	-1E+10	1	-1E+10	1	-1E+10	1	-1E+10	1
4901784	183	C	07/08/2020	10:46	-132.225	42.913	0	1410.40	0	2.6100	0	37.3420	8	29.804	0	1394.498	0	24.0	4	7.5	4	-1E+10	1	-1E+10	1	-1E+10	1	-1E+10	1	-1E+10	1	-1E+10	1
4901784	183	C	07/08/2020	10:46	-132.225	42.913	0	1415.60	0	2.6020	0	37.3430	8	29.805	0	1399.623	0	24.3	4	7.6	4	-1E+10	1	-1E+10	1	-1E+10	1	-1E+10	1	-1E+10	1	-1E+10	1
4901784	183	C	07/08/2020	10:46	-132.225	42.913	0	1420.00	0	2.6000	0	37.3440	8	29.806	0	1403.958	0	24.4	4	7.6	4	-1E+10	1	-1E+10	1	-1E+10	1	-1E+10	1	-1E+10	1	-1E+10	1
4901784	183	C	07/08/2020	10:46	-132.225	42.913	0	1424.40	0	2.5920	0	37.3450	8	29.808	0	1408.294	0	24.7	4	7.7	4	-1E+10	1	-1E+10	1	-1E+10	1	-1E+10	1	-1E+10	1	-1E+10	1
4901784	183	C	07/08/2020	10:46	-132.225	42.913	0	1429.80	0	2.5840	0	37.3460	8	29.809	0	1413.615	0	24.9	4	7.8	4	-1E+10	1	-1E+10	1	-1E+10	1	-1E+10	1	-1E+10	1	-1E+10	1
4901784	183	C	07/08/2020	10:46	-132.225	42.913	0	1435.10	0	2.5750	0	37.3480	8	29.812	0	1418.837	0	25.2	4	7.9	4	-1E+10	1	-1E+10	1	-1E+10	1	-1E+10	1	-1E+10	1	-1E+10	1
4901784	183	C	07/08/2020	10:46	-132.225	42.913	0	1440.50	0	2.5640	0	37.3490	8	29.814	0	1424.158	0	25.4	4	7.9	4	-1E+10	1	-1E+10	1	-1E+10	1	-1E+10	1	-1E+10	1	-1E+10	1
4901784	183	C	07/08/2020	10:46	-132.225	42.913	0	1444.90	0	2.5590	0	37.3500	8	29.815	0	1428.493	0	25.6	4	8.0	4	-1E+10	1	-1E+10	1	-1E+10	1	-1E+10	1	-1E+10	1	-1E+10	1
4901784	183	C	07/08/2020	10:46	-132.225	42.913	0	1449.40	0	2.5560	0	37.3510	8	29.816	0	1432.926	0	25.8	4	8.0	4	-1E+10	1	-1E+10	1	-1E+10	1	-1E+10	1	-1E+10	1	-1E+10	1
4901784	183	C	07/08/2020	10:46	-132.225	42.913	0	1454.60	0	2.5460	0	37.3520	8	29.818	0	1438.050	0	26.1	4	8.2	4	-1E+10	1	-1E+10	1	-1E+10	1	-1E+10	1	-1E+10	1	-1E+10	1
4901784	183	C	07/08/2020	10:46	-132.225	42.913	0	1459.40	0	2.5330	0	37.3550	8	29.821	0	1442.779	0	26.4	4	8.2	4	-1E+10	1	-1E+10	1	-1E+10	1	-1E+10	1	-1E+10	1	-1E+10	1
4901784	183	C	07/08/2020	10:46	-132.225	42.913	0	1465.00	0	2.5300	0	37.3560	8	29.823	0	1448.296	0	26.6	4	8.3	4	-1E+10	1	-1E+10	1	-1E+10	1	-1E+10	1	-1E+10	1	-1E+10	1
4901784	183	C	07/08/2020	10:46	-132.225	42.913	0	1470.60	0	2.5210	0	37.3570	8	29.824	0	1453.813	0	27.0	4	8.4	4	-1E+10	1	-1E+10	1	-1E+10	1	-1E+10	1	-1E+10	1	-1E+10	1
4901784	183	C	07/08/2020	10:46	-132.225	42.913	0	1475.40	0	2.5100	0	37.3590	8	29.827	0	1458.541	0	27.2	4	8.5	4	-1E+10	1	-1E+10	1	-1E+10	1	-1E+10	1	-1E+10	1	-1E+10	1
4901784	183	C	07/08/2020	10:46	-132.225	42.913	0	1480.30	0	2.5090	0	37.3590	8	29.827	0	1463.368	0	27.4	4	8.5	4	-1E+10	1	-1E+10	1	-1E+10	1	-1E+10	1	-1E+10	1	-1E+10	1
4901784	183	C	07/08/2020	10:46	-132.225	42.913	0	1485.30	0	2.5030	0	37.3600	8	29.828	0	1468.294	0	27.7	4	8.6	4	-1E+10	1	-1E+10	1	-1E+10	1	-1E+10	1	-1E+10	1	-1E+10	1
4901784	183	C	07/08/2020	10:46	-132.225	42.913	0	1490.30	0	2.4970	0	37.3610	8	29.830	0	1473.219	0	28.0	4	8.7	4	-1E+10	1	-1E+10	1	-1E+10	1	-1E+10	1	-1E+10	1	-1E+10	1
4901784	183	C	07/08/2020	10:46	-132.225	42.913	0	1495.30	0	2.4860	0	37.3630	8	29.832	0	1478.144	0	28.3	4	8.8	4	-1E+10	1	-1E+10	1	-1E+10	1	-1E+10	1	-1E+10	1	-1E+10	1
4901784	183	C	07/08/2020	10:46	-132.225	42.913	0	1500.40	0	2.4780	0	37.3640	8	29.834	0	1483.168	0	28.5	4	8.9	4	-1E+10	1	-1E+10	1	-1E+10	1	-1E+10	1	-1E+10	1	-1E+10	1
4901784	183	C	07/08/2020	10:46	-132.225	42.913	0	1505.50	0	2.4700	0	37.3650	8	29.836	0	1488.191	0	28.7	4	8.9	4	-1E+10	1	-1E+10	1	-1E+10	1	-1E+10	1	-1E+10	1	-1E+10	1
4901784	183	C	07/08/2020	10:46	-132.225	42.913	0	1510.70	0	2.4660	0	37.3660	8	29.837	0	1493.313	0	28.9	4	9.0	4	-1E+10	1	-1E+10	1	-1E+10	1	-1E+10	1	-1E+10	1	-1E+10	1
4901784	183	C	07/08/2020	10:46	-132.225	42.913	0	1515.80	0	2.4580	0	37.3670	8	29.838	0	1498.336	0	29.2	4	9.1	4	-1E+10	1	-1E+10	1	-1E+10	1	-1E+10	1	-1E+10	1	-1E+10	1
4901784	183	C	07/08/2020	10:46	-132.225	42.913	0	1520.00	0	2.4500	0	37.3690	8	29.841	0	1502.473	0	29.5	4	9.2	4	-1E+10	1	-1E+10	1	-1E+10	1	-1E+10	1	-1E+10	1	-1E+10	1
4901784	183	C	07/08/2020	10:46	-132.225	42.913	0	1524.30	0	2.4450	0	37.3700	8	29.842	0	1506.708	0	29.7	4	9.3	4	-1E+10	1	-1E+10	1	-1E+10	1	-1E+10	1	-1E+10	1	-1E+10	1
4901784	183	C	07/08/2020	10:46	-132.225	42.913	0	1529.40	0	2.4380	0	37.3710	8	29.843	0	1511.731	0	30.0	4	9.4	4	-1E+10	1	-1E+10	1	-1E+10	1	-1E+10	1	-1E+10	1	-1E+10	1
4901784	183	C	07/08/2020	10:46	-132.225	42.913	0	1534.60	0	2.4310	0	37.3720	8	29.845	0	1516.852	0	30.3	4	9.4	4	-1E+10	1	-1E+10	1	-1E+10	1	-1E+10	1	-1E+10	1	-1E+10	1
4901784	183	C	07/08/2020	10:46	-132.225	42.913	0	1539.80	0	2.4280	0	37.3730	8	29.846	0	1521.974	0	30.6	4	9.5	4	-1E+10	1	-1E+10	1	-1E+10	1	-1E+10	1	-1E+10	1	-1E+10	1
4901784	183	C	07/08/2020	10:46	-132.225	42.913	0	1545.10	0	2.4180	0	37.3750	8	29.849	0	1527.193	0	31.0	4	9.6	4	-1E+10	1	-1E+10	1	-1E+10	1	-1E+10	1	-1E+10	1	-1E+10	1
4901784	183	C	07/08/2020	10:46	-132.225	42.913	0	1550.40	0	2.4150	0	37.3760	8	29.850	0	1532.413	0	31.3	4	9.7	4	-1E+10	1	-1E+10	1	-1E+10	1	-1E+10	1	-1E+10	1	-1E+10	1
4901784	183	C	07/08/2020	10:46	-132.225	42.913	0	1555.70	0	2.4080	0	37.3780	8	29.852	0	1537.632	0	31.7	4	9.9	4	-1E+10	1	-1E+10	1	-1E+10	1	-1E+10	1	-1E+10	1	-1E+10	1
4901784	183	C	07/08/2020	10:46	-132.225	42.913	0	1560.10	0	2.3990	0	37.3800	8	29.854	0	1541.965	0	32.0	4	9.9	4	-1E+10	1	-1E+10	1	-1E+10	1	-1E+10	1	-1E+10	1	-1E+10	1
4901784	183	C	07/08/2020	10:46	-132.225	42.913	0	1564.60	0	2.3940	0	37.3800	8	29.855	0	1546.396	0	32.3	4	10.0	4	-1E+10	1	-1E+10	1	-1E+10	1	-1E+10	1	-1E+10	1	-1E+10	1
4901784	183	C	07/08/2020	10:46	-132.225	42.913	0	1569.90	0	2.3860	0	37.3820	8	29.857	0	1551.615	0	32.6	4	10.1	4	-1E+10	1	-1E+10	1	-1E+10	1	-1E+10	1	-1E+10	1	-1E+10	1
4901784	183	C	07/08/2020	10:46	-132.225	42.913	0	1575.30	0	2.3770	0	37.3830	8	29.859	0	1556.932	0	33.0	4	10.3	4	-1E+10	1	-1E+10	1	-1E+10	1	-1E+10	1	-1E+10	1	-1E+10	1
4901784	183	C	07/08/2020	10:46	-132.225	42.913	0	1580.40	0	2.3670	0	37.3850	8	29.861	0	1561.954	0	33.3	4	10.4	4	-1E+10	1	-1E+10	1	-1E+10	1	-1E+10	1	-1E+10	1	-1E+10	1
4901784	183	C	07/08/2020	10:46	-132.225	42.913	0	1584.60	0	2.3620	0	37.3860	8	29.863	0	1566.089	0	33.5	4	10.4	4	-1E+10	1	-1E+10	1	-1E+10	1	-1E+10	1	-1E+10	1	-1E+10	1
4901784	183	C	07/08/2020	10:46	-132.225	42.913	0	1590.10	0	2.3540	0	37.3870	8	29.864	0	1571.505	0	33.8	4	10.5	4	-1E+10	1	-1E+10	1	-1E+10	1	-1E+10	1	-1E+10	1	-1E+10	1
4901784	183	C	07/08/2020	10:46	-132.225	42.913	0	1595.70	0	2.3490	0	37.3880	8	29.866	0	1577.018	0	34.1	4	10.6	4	-1E+10	1	-1E+10	1	-1E+10	1	-1E+10	1	-1E+10	1	-1E+10	1
4901784	183	C	07/08/2020	10:46	-132.225	42.913	0	1600.50	0	2.3420	0	37.3890	8	29.867	0	1581.744	0	34.4	4	10.7	4	-1E+10	1	-1E+10	1	-1E+10	1	-1E+10	1	-1E+10	1	-1E+10	1
4901784	183	C	07/08/2020	10:46	-132.225	42.913	0	1605.40	0	2.3370	0	37.3900	8	29.868	0	1586.568	0	34.6	4	10.7	4	-1E+10	1	-1E+10	1	-1E+10	1	-1E+10	1	-1E+10	1	-1E+10	1
4901784	183	C	07/08/2020	10:46	-132.225	42.913	0	1610.20	0	2.3320	0	37.3910	8	29.870	0	1591.294	0	34.8	4	10.8	4	-1E+10	1	-1E+10	1	-1E+10	1	-1E+10	1	-1E+10	1	-1E+10	1
4901784	183	C	07/08/2020	10:46	-132.225	42.913	0	1615.10	0	2.3250	0	37.3920	8	29.871	0	1596.118	0	35.2	4	10.9	4	-1E+10	1	-1E+10	1	-1E+10	1	-1E+10	1	-1E+10	1	-1E+10	1
4901784	183	C	07/08/2020	10:46	-132.225	42.913	0	1620.00	0	2.3190	0	37.3930	8	29.872	0	1600.942	0	35.4	4	11.0	4	-1E+10	1	-1E+10	1	-1E+10	1	-1E+10	1	-1E+10	1	-1E+10	1
4901784	183	C	07/08/2020	10:46	-132.225	42.913	0	1624.90	0	2.3120	0	37.3950	8	29.875	0	1605.766	0	35.7	4	11.1	4	-1E+10	1	-1E+10	1	-1E+10	1	-1E+10	1	-1E+10	1	-1E+10	1
4901784	183	C	07/08/2020	10:46	-132.225	42.913	0	1629.90	0	2.3080	0	37.3950	8	29.875	0	1610.688	0	36.0	4	11.2	4	-1E+10	1	-1E+10	1	-1E+10	1	-1E+10	1	-1E+10	1	-1E+10	1
4901784	183	C	07/08/2020	10:46	-132.225	42.913	0	1635.00	0	2.3020	0	37.3960	8	29.876	0	1615.708	0	36.3	4	11.3	4	-1E+10	1	-1E+10	1	-1E+10	1	-1E+10	1	-1E+10	1	-1E+10	1
4901784	183	C	07/08/2020	10:46	-132.225	42.913	0	1640.00	0	2.2950	0	37.3970	8	29.878	0	1620.630	0	36.6	4	11.4	4	-1E+10	1	-1E+10	1	-1E+10	1	-1E+10	1	-1E+10	1	-1E+10	1
4901784	183	C	07/08/2020	10:46	-132.225	42.913	0	1645.10	0	2.2860	0	37.3990	8	29.880	0	1625.650	0	36.9	4	11.4	4	-1E+10	1	-1E+10	1	-1E+10	1	-1E+10	1	-1E+10	1	-1E+10	1
4901784	183	C	07/08/2020	10:46	-132.225	42.913	0	1650.20	0	2.2830	0	37.3990	8	29.881	0	1630.670	0	37.1	4	11.5	4	-1E+10	1	-1E+10	1	-1E+10	1	-1E+10	1	-1E+10	1	-1E+10	1
4901784	183	C	07/08/2020	10:46	-132.225	42.913	0	1655.30	0	2.2770	0	37.4000	8	29.882	0	1635.690	0	37.4	4	11.6	4	-1E+10	1	-1E+10	1	-1E+10	1	-1E+10	1	-1E+10	1	-1E+10	1
4901784	183	C	07/08/2020	10:46	-132.225	42.913	0	1660.40	0	2.2710	0	37.4020	8	29.884	0	1640.710	0	37.6	4	11.7	4	-1E+10	1	-1E+10	1	-1E+10	1	-1E+10	1	-1E+10	1	-1E+10	1
4901784	183	C	07/08/2020	10:46	-132.225	42.913	0	1665.50	0	2.2670	0	37.4030	8	29.885	0	1645.730	0	37.9	4	11.7	4	-1E+10	1	-1E+10	1	-1E+10	1	-1E+10	1	-1E+10	1	-1E+10	1
4901784	183	C	07/08/2020	10:46	-132.225	42.913	0	1670.60	0	2.2630	0	37.4040	8	29.887	0	1650.750	0	38.1	4	11.8	4	-1E+10	1	-1E+10	1	-1E+10	1	-1E+10	1	-1E+10	1	-1E+10	1
4901784	183	C	07/08/2020	10:46	-132.225	42.913	0	1675.80	0	2.2600	0	37.4040	8	29.887	0	1655.868	0	38.4	4	11.9	4	-1E+10	1	-1E+10	1	-1E+10	1	-1E+10	1	-1E+10	1	-1E+10	1
4901784	183	C	07/08/2020	10:46	-132.225	42.913	0	1680.10	0	2.2550	0	37.4050	8	29.888	0	1660.099	0	38.6	4	12.0	4	-1E+10	1	-1E+10	1	-1E+10	1	-1E+10	1	-1E+10	1	-1E+10	1
4901784	183	C	07/08/2020	10:46	-132.225	42.913	0	1684.40	0	2.2520	0	37.4060	8	29.889	0	1664.331	0	38.8	4	12.0	4	-1E+10	1	-1E+10	1	-1E+10	1	-1E+10	1	-1E+10	1	-1E+10	1
4901784	183	C	07/08/2020	10:46	-132.225	42.913	0	1689.50	0	2.2460	0	37.4060	8	29.890	0	1669.351	0	39.0	4	12.1	4	-1E+10	1	-1E+10	1	-1E+10	1	-1E+10	1	-1E+10	1	-1E+10	1
4901784	183	C	07/08/2020	10:46	-132.225	42.913	0	1694.60	0	2.2380	0	37.4070	8	29.891	0	1674.370	0	39.3	4	12.2	4	-1E+10	1	-1E+10	1	-1E+10	1	-1E+10	1	-1E+10	1	-1E+10	1
4901784	183	C	07/08/2020	10:46	-132.225	42.913	0	1699.80	0	2.2310	0	37.4090	8	29.894	0	1679.487	0	39.6	4	12.3	4	-1E+10	1	-1E+10	1	-1E+10	1	-1E+10	1	-1E+10	1	-1E+10	1
4901784	183	C	07/08/2020	10:46	-132.225	42.913	0	1705.00	0	2.2270	0	37.4090	8	29.894	0	1684.604	0	40.0	4	12.4	4	-1E+10	1	-1E+10	1	-1E+10	1	-1E+10	1	-1E+10	1	-1E+10	1
4901784	183	C	07/08/2020	10:46	-132.225	42.913	0	1710.20	0	2.2200	0	37.4110	8	29.896	0	1689.721	0	40.4	4	12.5	4	-1E+10	1	-1E+10	1	-1E+10	1	-1E+10	1	-1E+10	1	-1E+10	1
4901784	183	C	07/08/2020	10:46	-132.225	42.913	0	1715.40	0	2.2110	0	37.4120	8	29.898	0	1694.838	0	40.8	4	12.6	4	-1E+10	1	-1E+10	1	-1E+10	1	-1E+10	1	-1E+10	1	-1E+10	1
4901784	183	C	07/08/2020	10:46	-132.225	42.913	0	1720.60	0	2.2070	0	37.4130	8	29.899	0	1699.955	0	41.1	4	12.7	4	-1E+10	1	-1E+10	1	-1E+10	1	-1E+10	1	-1E+10	1	-1E+10	1
4901784	183	C	07/08/2020	10:46	-132.225	42.913	0	1725.00	0	2.1990	0	37.4150	8	29.901	0	1704.285	0	41.5	4	12.8	4	-1E+10	1	-1E+10	1	-1E+10	1	-1E+10	1	-1E+10	1	-1E+10	1
4901784	183	C	07/08/2020	10:46	-132.225	42.913	0	1729.30	0	2.1940	0	37.4150	8	29.902	0	1708.516	0	41.8	4	12.9	4	-1E+10	1	-1E+10	1	-1E+10	1	-1E+10	1	-1E+10	1	-1E+10	1
4901784	183	C	07/08/2020	10:46	-132.225	42.913	0	1734.60	0	2.1880	0	37.4160	8	29.903	0	1713.731	0	42.2	4	13.1	4	-1E+10	1	-1E+10	1	-1E+10	1	-1E+10	1	-1E+10	1	-1E+10	1
4901784	183	C	07/08/2020	10:46	-132.225	42.913	0	1739.90	0	2.1790	0	37.4180	8	29.906	0	1718.945	0	42.6	4	13.2	4	-1E+10	1	-1E+10	1	-1E+10	1	-1E+10	1	-1E+10	1	-1E+10	1
4901784	183	C	07/08/2020	10:46	-132.225	42.913	0	1745.10	0	2.1720	0	37.4190	8	29.907	0	1724.062	0	42.9	4	13.3	4	-1E+10	1	-1E+10	1	-1E+10	1	-1E+10	1	-1E+10	1	-1E+10	1
4901784	183	C	07/08/2020	10:46	-132.225	42.913	0	1750.40	0	2.1690	0	37.4200	8	29.908	0	1729.276	0	43.1	4	13.3	4	-1E+10	1	-1E+10	1	-1E+10	1	-1E+10	1	-1E+10	1	-1E+10	1
4901784	183	C	07/08/2020	10:46	-132.225	42.913	0	1754.90	0	2.1660	0	37.4200	8	29.909	0	1733.704	0	43.4	4	13.4	4	-1E+10	1	-1E+10	1	-1E+10	1	-1E+10	1	-1E+10	1	-1E+10	1
4901784	183	C	07/08/2020	10:46	-132.225	42.913	0	1759.40	0	2.1610	0	37.4210	8	29.910	0	1738.131	0	43.7	4	13.5	4	-1E+10	1	-1E+10	1	-1E+10	1	-1E+10	1	-1E+10	1	-1E+10	1
4901784	183	C	07/08/2020	10:46	-132.225	42.913	0	1764.70	0	2.1570	0	37.4220	8	29.911	0	1743.345	0	44.0	4	13.6	4	-1E+10	1	-1E+10	1	-1E+10	1	-1E+10	1	-1E+10	1	-1E+10	1
4901784	183	C	07/08/2020	10:46	-132.225	42.913	0	1770.10	0	2.1540	0	37.4230	8	29.912	0	1748.657	0	44.3	4	13.7	4	-1E+10	1	-1E+10	1	-1E+10	1	-1E+10	1	-1E+10	1	-1E+10	1
4901784	183	C	07/08/2020	10:46	-132.225	42.913	0	1775.50	0	2.1480	0	37.4240	8	29.913	0	1753.970	0	44.7	4	13.8	4	-1E+10	1	-1E+10	1	-1E+10	1	-1E+10	1	-1E+10	1	-1E+10	1
4901784	183	C	07/08/2020	10:46	-132.225	42.913	0	1780.00	0	2.1420	0	37.4260	8	29.916	0	1758.396	0	45.0	4	13.9	4	-1E+10	1	-1E+10	1	-1E+10	1	-1E+10	1	-1E+10	1	-1E+10	1
4901784	183	C	07/08/2020	10:46	-132.225	42.913	0	1784.60	0	2.1400	0	37.4260	8	29.916	0	1762.922	0	45.3	4	14.0	4	-1E+10	1	-1E+10	1	-1E+10	1	-1E+10	1	-1E+10	1	-1E+10	1
4901784	183	C	07/08/2020	10:46	-132.225	42.913	0	1790.00	0	2.1330	0	37.4270	8	29.917	0	1768.234	0	45.7	4	14.1	4	-1E+10	1	-1E+10	1	-1E+10	1	-1E+10	1	-1E+10	1	-1E+10	1
4901784	183	C	07/08/2020	10:46	-132.225	42.913	0	1795.40	0	2.1260	0	37.4280	8	29.919	0	1773.545	0	46.2	4	14.3	4	-1E+10	1	-1E+10	1	-1E+10	1	-1E+10	1	-1E+10	1	-1E+10	1
4901784	183	C	07/08/2020	10:46	-132.225	42.913	0	1800.70	0	2.1190	0	37.4290	8	29.920	0	1778.759	0	46.5	4	14.4	4	-1E+10	1	-1E+10	1	-1E+10	1	-1E+10	1	-1E+10	1	-1E+10	1
4901784	183	C	07/08/2020	10:46	-132.225	42.913	0	1805.20	0	2.1140	0	37.4310	8	29.922	0	1783.185	0	46.8	4	14.5	4	-1E+10	1	-1E+10	1	-1E+10	1	-1E+10	1	-1E+10	1	-1E+10	1
4901784	183	C	07/08/2020	10:46	-132.225	42.913	0	1809.70	0	2.1090	0	37.4310	8	29.923	0	1787.611	0	47.1	4	14.6	4	-1E+10	1	-1E+10	1	-1E+10	1	-1E+10	1	-1E+10	1	-1E+10	1
4901784	183	C	07/08/2020	10:46	-132.225	42.913	0	1815.30	0	2.1050	0	37.4320	8	29.924	0	1793.119	0	47.4	4	14.6	4	-1E+10	1	-1E+10	1	-1E+10	1	-1E+10	1	-1E+10	1	-1E+10	1
4901784	183	C	07/08/2020	10:46	-132.225	42.913	0	1819.80	0	2.1030	0	37.4330	8	29.925	0	1797.545	0	47.6	4	14.7	4	-1E+10	1	-1E+10	1	-1E+10	1	-1E+10	1	-1E+10	1	-1E+10	1
4901784	183	C	07/08/2020	10:46	-132.225	42.913	0	1824.40	0	2.0970	0	37.4340	8	29.926	0	1802.069	0	48.0	4	14.8	4	-1E+10	1	-1E+10	1	-1E+10	1	-1E+10	1	-1E+10	1	-1E+10	1
4901784	183	C	07/08/2020	10:46	-132.225	42.913	0	1829.90	0	2.0900	0	37.4350	8	29.928	0	1807.479	0	48.4	4	14.9	4	-1E+10	1	-1E+10	1	-1E+10	1	-1E+10	1	-1E+10	1	-1E+10	1
4901784	183	C	07/08/2020	10:46	-132.225	42.913	0	1835.40	0	2.0860	0	37.4360	8	29.929	0	1812.888	0	48.6	4	15.0	4	-1E+10	1	-1E+10	1	-1E+10	1	-1E+10	1	-1E+10	1	-1E+10	1
4901784	183	C	07/08/2020	10:46	-132.225	42.913	0	1840.00	0	2.0860	0	37.4360	8	29.929	0	1817.412	0	48.8	4	15.1	4	-1E+10	1	-1E+10	1	-1E+10	1	-1E+10	1	-1E+10	1	-1E+10	1
4901784	183	C	07/08/2020	10:46	-132.225	42.913	0	1844.60	0	2.0810	0	37.4370	8	29.930	0	1821.936	0	49.2	4	15.2	4	-1E+10	1	-1E+10	1	-1E+10	1	-1E+10	1	-1E+10	1	-1E+10	1
4901784	183	C	07/08/2020	10:46	-132.225	42.913	0	1850.10	0	2.0740	0	37.4380	8	29.932	0	1827.344	0	49.7	4	15.4	4	-1E+10	1	-1E+10	1	-1E+10	1	-1E+10	1	-1E+10	1	-1E+10	1
4901784	183	C	07/08/2020	10:46	-132.225	42.913	0	1854.70	0	2.0660	0	37.4400	8	29.934	0	1831.868	0	50.1	4	15.5	4	-1E+10	1	-1E+10	1	-1E+10	1	-1E+10	1	-1E+10	1	-1E+10	1
4901784	183	C	07/08/2020	10:46	-132.225	42.913	0	1859.40	0	2.0630	0	37.4400	8	29.934	0	1836.490	0	50.4	4	15.5	4	-1E+10	1	-1E+10	1	-1E+10	1	-1E+10	1	-1E+10	1	-1E+10	1
4901784	183	C	07/08/2020	10:46	-132.225	42.913	0	1865.00	0	2.0570	0	37.4410	8	29.936	0	1841.997	0	50.7	4	15.6	4	-1E+10	1	-1E+10	1	-1E+10	1	-1E+10	1	-1E+10	1	-1E+10	1
4901784	183	C	07/08/2020	10:46	-132.225	42.913	0	1870.60	0	2.0540	0	37.4420	8	29.937	0	1847.503	0	51.0	4	15.7	4	-1E+10	1	-1E+10	1	-1E+10	1	-1E+10	1	-1E+10	1	-1E+10	1
4901784	183	C	07/08/2020	10:46	-132.225	42.913	0	1875.30	0	2.0510	0	37.4430	8	29.938	0	1852.125	0	51.2	4	15.8	4	-1E+10	1	-1E+10	1	-1E+10	1	-1E+10	1	-1E+10	1	-1E+10	1
4901784	183	C	07/08/2020	10:46	-132.225	42.913	0	1879.90	0	2.0470	0	37.4430	8	29.938	0	1856.648	0	51.5	4	15.9	4	-1E+10	1	-1E+10	1	-1E+10	1	-1E+10	1	-1E+10	1	-1E+10	1
4901784	183	C	07/08/2020	10:46	-132.225	42.913	0	1884.80	0	2.0440	0	37.4440	8	29.939	0	1861.466	0	51.8	4	16.0	4	-1E+10	1	-1E+10	1	-1E+10	1	-1E+10	1	-1E+10	1	-1E+10	1
4901784	183	C	07/08/2020	10:46	-132.225	42.913	0	1889.80	0	2.0380	0	37.4450	8	29.941	0	1866.382	0	52.1	4	16.1	4	-1E+10	1	-1E+10	1	-1E+10	1	-1E+10	1	-1E+10	1	-1E+10	1
4901784	183	C	07/08/2020	10:46	-132.225	42.913	0	1894.80	0	2.0330	0	37.4460	8	29.942	0	1871.298	0	52.5	4	16.2	4	-1E+10	1	-1E+10	1	-1E+10	1	-1E+10	1	-1E+10	1	-1E+10	1
4901784	183	C	07/08/2020	10:46	-132.225	42.913	0	1899.90	0	2.0280	0	37.4460	8	29.942	0	1876.312	0	53.0	4	16.4	4	-1E+10	1	-1E+10	1	-1E+10	1	-1E+10	1	-1E+10	1	-1E+10	1
4901784	183	C	07/08/2020	10:46	-132.225	42.913	0	1905.00	0	2.0190	0	37.4480	8	29.945	0	1881.326	0	53.6	4	16.5	4	-1E+10	1	-1E+10	1	-1E+10	1	-1E+10	1	-1E+10	1	-1E+10	1
4901784	183	C	07/08/2020	10:46	-132.225	42.913	0	1910.10	0	2.0100	0	37.4500	8	29.947	0	1886.340	0	54.1	4	16.7	4	-1E+10	1	-1E+10	1	-1E+10	1	-1E+10	1	-1E+10	1	-1E+10	1
4901784	183	C	07/08/2020	10:46	-132.225	42.913	0	1915.30	0	2.0060	0	37.4500	8	29.947	0	1891.453	0	54.4	4	16.8	4	-1E+10	1	-1E+10	1	-1E+10	1	-1E+10	1	-1E+10	1	-1E+10	1
4901784	183	C	07/08/2020	10:46	-132.225	42.913	0	1920.40	0	2.0000	0	37.4510	8	29.949	0	1896.467	0	54.7	4	16.9	4	-1E+10	1	-1E+10	1	-1E+10	1	-1E+10	1	-1E+10	1	-1E+10	1
4901784	183	C	07/08/2020	10:46	-132.225	42.913	0	1925.70	0	1.9940	0	37.4520	8	29.950	0	1901.677	0	54.9	4	16.9	4	-1E+10	1	-1E+10	1	-1E+10	1	-1E+10	1	-1E+10	1	-1E+10	1
4901784	183	C	07/08/2020	10:46	-132.225	42.913	0	1930.00	0	1.9910	0	37.4530	8	29.951	0	1905.904	0	55.0	4	17.0	4	-1E+10	1	-1E+10	1	-1E+10	1	-1E+10	1	-1E+10	1	-1E+10	1
4901784	183	C	07/08/2020	10:46	-132.225	42.913	0	1934.50	0	1.9860	0	37.4530	8	29.952	0	1910.328	0	55.1	4	17.0	4	-1E+10	1	-1E+10	1	-1E+10	1	-1E+10	1	-1E+10	1	-1E+10	1
4901784	183	C	07/08/2020	10:46	-132.225	42.913	0	1939.80	0	1.9820	0	37.4540	8	29.953	0	1915.538	0	55.4	4	17.1	4	-1E+10	1	-1E+10	1	-1E+10	1	-1E+10	1	-1E+10	1	-1E+10	1
4901784	183	C	07/08/2020	10:46	-132.225	42.913	0	1945.10	0	1.9810	0	37.4540	8	29.953	0	1920.747	0	55.6	4	17.1	4	-1E+10	1	-1E+10	1	-1E+10	1	-1E+10	1	-1E+10	1	-1E+10	1
4901784	183	C	07/08/2020	10:46	-132.225	42.913	0	1950.60	0	1.9800	0	37.4540	8	29.953	0	1926.154	0	55.9	4	17.2	4	-1E+10	1	-1E+10	1	-1E+10	1	-1E+10	1	-1E+10	1	-1E+10	1
4901784	183	C	07/08/2020	10:46	-132.225	42.913	0	1955.00	0	1.9750	0	37.4550	8	29.954	0	1930.479	0	56.3	4	17.3	4	-1E+10	1	-1E+10	1	-1E+10	1	-1E+10	1	-1E+10	1	-1E+10	1
4901784	183	C	07/08/2020	10:46	-132.225	42.913	0	1959.50	0	1.9670	0	37.4560	8	29.956	0	1934.902	0	56.5	4	17.4	4	-1E+10	1	-1E+10	1	-1E+10	1	-1E+10	1	-1E+10	1	-1E+10	1
4901784	183	C	07/08/2020	10:46	-132.225	42.913	0	1965.00	0	1.9600	0	37.4570	8	29.957	0	1940.308	0	56.8	4	17.5	4	-1E+10	1	-1E+10	1	-1E+10	1	-1E+10	1	-1E+10	1	-1E+10	1
4901784	183	C	07/08/2020	10:46	-132.225	42.913	0	1970.30	0	1.9560	0	37.4580	8	29.959	0	1945.517	0	57.1	4	17.6	4	-1E+10	1	-1E+10	1	-1E+10	1	-1E+10	1	-1E+10	1	-1E+10	1
4901784	183	C	07/08/2020	10:46	-132.225	42.913	0	1975.60	0	1.9540	0	37.4580	8	29.959	0	1950.726	0	57.4	4	17.7	4	-1E+10	1	-1E+10	1	-1E+10	1	-1E+10	1	-1E+10	1	-1E+10	1
4901784	183	C	07/08/2020	10:46	-132.225	42.913	0	1980.40	0	1.9500	0	37.4590	8	29.960	0	1955.443	0	57.6	4	17.7	4	-1E+10	1	-1E+10	1	-1E+10	1	-1E+10	1	-1E+10	1	-1E+10	1
4901784	183	C	07/08/2020	10:46	-132.225	42.913	0	1985.20	0	1.9480	0	37.4590	8	29.960	0	1960.161	0	57.9	4	17.8	4	-1E+10	1	-1E+10	1	-1E+10	1	-1E+10	1	-1E+10	1	-1E+10	1
4901784	183	C	07/08/2020	10:46	-132.225	42.913	0	1990.10	0	1.9460	0	37.4600	8	29.961	0	1964.976	0	58.2	4	17.9	4	-1E+10	1	-1E+10	1	-1E+10	1	-1E+10	1	-1E+10	1	-1E+10	1
4901784	183	C	07/08/2020	10:46	-132.225	42.913	0	1994.90	0	1.9440	0	37.4610	8	29.962	0	1969.694	0	58.4	4	18.0	4	-1E+10	1	-1E+10	1	-1E+10	1	-1E+10	1	-1E+10	1	-1E+10	1
4901784	183	C	07/08/2020	10:46	-132.225	42.913	0	1999.80	0	1.9420	0	37.4620	8	29.963	0	1974.509	0	58.6	4	18.0	4	-1E+10	1	-1E+10	1	-1E+10	1	-1E+10	1	-1E+10	1	-1E+10	1
4901784	183	C	07/08/2020	10:46	-132.225	42.913	0	2004.70	0	1.9410	0	37.4620	8	29.963	0	1979.324	0	58.8	4	18.1	4	-1E+10	1	-1E+10	1	-1E+10	1	-1E+10	1	-1E+10	1	-1E+10	1
4901784	183	C	07/08/2020	10:46	-132.225	42.913	0	2009.60	0	1.9390	0	37.4620	8	29.963	0	1984.140	0	59.1	4	18.2	4	-1E+10	1	-1E+10	1	-1E+10	1	-1E+10	1	-1E+10	1	-1E+10	1
4901784	183	C	07/08/2020	10:46	-132.225	42.913	0	2014.50	0	1.9340	0	37.4630	8	29.965	0	1988.955	0	59.4	4	18.3	4	-1E+10	1	-1E+10	1	-1E+10	1	-1E+10	1	-1E+10	1	-1E+10	1
4901784	183	C	07/08/2020	10:46	-132.225	42.913	0	2019.50	0	1.9310	0	37.4640	8	29.966	0	1993.868	0	59.7	4	18.4	4	-1E+10	1	-1E+10	1	-1E+10	1	-1E+10	1	-1E+10	1	-1E+10	1
4901784	183	C	07/08/2020	10:46	-132.225	42.913	0																										
4901784	184	C	07/18/2020	10:44	-132.292	42.899	0	2.50	0	16.9950	0	35.0710	8	25.571	0	2.480	0	233.0	4	97.8	4	-1E+10	1	-1E+10	1	-1E+10	1	-1E+10	1	-1E+10	1	-1E+10	1
4901784	184	C	07/18/2020	10:44	-132.292	42.899	0	3.60	0	16.9950	0	35.0720	8	25.572	0	3.571	0	232.9	4	97.7	4	-1E+10	1	-1E+10	1	-1E+10	1	-1E+10	1	-1E+10	1	-1E+10	1
4901784	184	C	07/18/2020	10:44	-132.292	42.899	0	4.80	0	16.9970	0	35.0720	8	25.571	0	4.762	0	232.6	4	97.6	4	-1E+10	1	-1E+10	1	-1E+10	1	-1E+10	1	-1E+10	1	-1E+10	1
4901784	184	C	07/18/2020	10:44	-132.292	42.899	0	6.20	0	16.9970	0	35.0730	8	25.572	0	6.151	0	232.5	4	97.6	4	-1E+10	1	-1E+10	1	-1E+10	1	-1E+10	1	-1E+10	1	-1E+10	1
4901784	184	C	07/18/2020	10:44	-132.292	42.899	0	7.70	0	16.9950	0	35.0740	8	25.574	0	7.639	0	232.3	4	97.5	4	-1E+10	1	-1E+10	1	-1E+10	1	-1E+10	1	-1E+10	1	-1E+10	1
4901784	184	C	07/18/2020	10:44	-132.292	42.899	0	9.20	0	16.9970	0	35.0740	8	25.573	0	9.127	0	232.2	4	97.4	4	-1E+10	1	-1E+10	1	-1E+10	1	-1E+10	1	-1E+10	1	-1E+10	1
4901784	184	C	07/18/2020	10:44	-132.292	42.899	0	11.00	0	16.9980	0	35.0730	8	25.572	0	10.913	0	232.1	4	97.4	4	-1E+10	1	-1E+10	1	-1E+10	1	-1E+10	1	-1E+10	1	-1E+10	1
4901784	184	C	07/18/2020	10:44	-132.292	42.899	0	12.80	0	16.9980	0	35.0720	8	25.571	0	12.698	0	231.9	4	97.3	4	-1E+10	1	-1E+10	1	-1E+10	1	-1E+10	1	-1E+10	1	-1E+10	1
4901784	184	C	07/18/2020	10:44	-132.292	42.899	0	14.50	0	16.9990	0	35.0700	8	25.570	0	14.385	0	232.1	4	97.4	4	-1E+10	1	-1E+10	1	-1E+10	1	-1E+10	1	-1E+10	1	-1E+10	1
4901784	184	C	07/18/2020	10:44	-132.292	42.899	0	16.20	0	16.9980	0	35.0670	8	25.568	0	16.071	0	232.1	4	97.4	4	-1E+10	1	-1E+10	1	-1E+10	1	-1E+10	1	-1E+10	1	-1E+10	1
4901784	184	C	07/18/2020	10:44	-132.292	42.899	0	18.00	0	17.0000	0	35.0610	8	25.563	0	17.857	0	232.3	4	97.5	4	-1E+10	1	-1E+10	1	-1E+10	1	-1E+10	1	-1E+10	1	-1E+10	1
4901784	184	C	07/18/2020	10:44	-132.292	42.899	0	19.70	0	16.9970	0	35.0510	8	25.556	0	19.543	0	232.5	4	97.6	4	-1E+10	1	-1E+10	1	-1E+10	1	-1E+10	1	-1E+10	1	-1E+10	1
4901784	184	C	07/18/2020	10:44	-132.292	42.899	0	21.40	0	16.9740	0	35.0300	8	25.545	0	21.229	0	233.5	4	97.9	4	-1E+10	1	-1E+10	1	-1E+10	1	-1E+10	1	-1E+10	1	-1E+10	1
4901784	184	C	07/18/2020	10:44	-132.292	42.899	0	23.00	0	16.9800	0	35.0020	8	25.522	0	22.816	0	234.4	4	98.3	4	-1E+10	1	-1E+10	1	-1E+10	1	-1E+10	1	-1E+10	1	-1E+10	1
4901784	184	C	07/18/2020	10:44	-132.292	42.899	0	24.60	0	16.4650	0	34.9260	8	25.585	0	24.404	0	235.7	4	97.8	4	-1E+10	1	-1E+10	1	-1E+10	1	-1E+10	1	-1E+10	1	-1E+10	1
4901784	184	C	07/18/2020	10:44	-132.292	42.899	0	26.90	0	14.9740	0	34.8940	8	25.898	0	26.685	0	244.8	4	98.7	4	-1E+10	1	-1E+10	1	-1E+10	1	-1E+10	1	-1E+10	1	-1E+10	1
4901784	184	C	07/18/2020	10:44	-132.292	42.899	0	28.80	0	14.7680	0	34.8860	8	25.936	0	28.570	0	246.8	4	99.1	4	-1E+10	1	-1E+10	1	-1E+10	1	-1E+10	1	-1E+10	1	-1E+10	1
4901784	184	C	07/18/2020	10:44	-132.292	42.899	0	30.30	0	14.6980	0	34.8880	8	25.953	0	30.058	0	248.0	4	99.4	4	-1E+10	1	-1E+10	1	-1E+10	1	-1E+10	1	-1E+10	1	-1E+10	1
4901784	184	C	07/18/2020	10:44	-132.292	42.899	0	31.70	0	14.5630	0	34.8850	8	25.980	0	31.446	0	249.7	4	99.8	4	-1E+10	1	-1E+10	1	-1E+10	1	-1E+10	1	-1E+10	1	-1E+10	1
4901784	184	C	07/18/2020	10:44	-132.292	42.899	0	33.20	0	14.2750	0	34.8840	8	26.041	0	32.934	0	252.7	4	100.5	4	-1E+10	1	-1E+10	1	-1E+10	1	-1E+10	1	-1E+10	1	-1E+10	1
4901784	184	C	07/18/2020	10:44	-132.292	42.899	0	34.70	0	13.9760	0	34.8960	8	26.114	0	34.422	0	256.3	4	101.3	4	-1E+10	1	-1E+10	1	-1E+10	1	-1E+10	1	-1E+10	1	-1E+10	1
4901784	184	C	07/18/2020	10:44	-132.292	42.899	0	36.20	0	13.9580	0	34.8860	8	26.110	0	35.910	0	257.8	4	101.8	4	-1E+10	1	-1E+10	1	-1E+10	1	-1E+10	1	-1E+10	1	-1E+10	1
4901784	184	C	07/18/2020	10:44	-132.292	42.899	0	37.70	0	13.9170	0	34.8700	8	26.106	0	37.398	0	260.2	4	102.7	4	-1E+10	1	-1E+10	1	-1E+10	1	-1E+10	1	-1E+10	1	-1E+10	1
4901784	184	C	07/18/2020	10:44	-132.292	42.899	0	39.20	0	13.6240	0	34.8750	8	26.171	0	38.886	0	263.6	4	103.4	4	-1E+10	1	-1E+10	1	-1E+10	1	-1E+10	1	-1E+10	1	-1E+10	1
4901784	184	C	07/18/2020	10:44	-132.292	42.899	0	40.70	0	13.3530	0	34.8600	8	26.215	0	40.373	0	267.4	4	104.3	4	-1E+10	1	-1E+10	1	-1E+10	1	-1E+10	1	-1E+10	1	-1E+10	1
4901784	184	C	07/18/2020	10:44	-132.292	42.899	0	42.30	0	12.6580	0	34.8990	8	26.384	0	41.960	0	271.7	4	104.5	4	-1E+10	1	-1E+10	1	-1E+10	1	-1E+10	1	-1E+10	1	-1E+10	1
4901784	184	C	07/18/2020	10:44	-132.292	42.899	0	44.10	0	12.3320	0	34.9540	8	26.491	0	43.746	0	274.6	4	105.0	4	-1E+10	1	-1E+10	1	-1E+10	1	-1E+10	1	-1E+10	1	-1E+10	1
4901784	184	C	07/18/2020	10:44	-132.292	42.899	0	46.20	0	12.2080	0	35.0370	8	26.580	0	45.829	0	273.8	4	104.5	4	-1E+10	1	-1E+10	1	-1E+10	1	-1E+10	1	-1E+10	1	-1E+10	1
4901784	184	C	07/18/2020	10:44	-132.292	42.899	0	46.60	0	12.1090	0	35.0370	8	26.599	0	46.225	0	275.2	4	104.8	4	-1E+10	1	-1E+10	1	-1E+10	1	-1E+10	1	-1E+10	1	-1E+10	1
4901784	184	C	07/18/2020	10:44	-132.292	42.899	0	48.10	0	11.8840	0	35.0160	8	26.625	0	47.713	0	276.0	4	104.6	4	-1E+10	1	-1E+10	1	-1E+10	1	-1E+10	1	-1E+10	1	-1E+10	1
4901784	184	C	07/18/2020	10:44	-132.292	42.899	0	49.60	0	11.5990	0	35.0360	8	26.695	0	49.201	0	277.2	4	104.5	4	-1E+10	1	-1E+10	1	-1E+10	1	-1E+10	1	-1E+10	1	-1E+10	1
4901784	184	C	07/18/2020	10:44	-132.292	42.899	0	51.10	0	11.5740	0	35.0990	8	26.748	0	50.689	0	275.2	4	103.7	4	-1E+10	1	-1E+10	1	-1E+10	1	-1E+10	1	-1E+10	1	-1E+10	1
4901784	184	C	07/18/2020	10:44	-132.292	42.899	0	52.60	0	11.5050	0	35.0910	8	26.755	0	52.176	0	275.4	4	103.6	4	-1E+10	1	-1E+10	1	-1E+10	1	-1E+10	1	-1E+10	1	-1E+10	1
4901784	184	C	07/18/2020	10:44	-132.292	42.899	0	54.20	0	11.5180	0	35.0870	8	26.750	0	53.763	0	274.3	4	103.2	4	-1E+10	1	-1E+10	1	-1E+10	1	-1E+10	1	-1E+10	1	-1E+10	1
4901784	184	C	07/18/2020	10:44	-132.292	42.899	0	55.80	0	11.3440	0	35.1160	8	26.805	0	55.350	0	273.1	4	102.4	4	-1E+10	1	-1E+10	1	-1E+10	1	-1E+10	1	-1E+10	1	-1E+10	1
4901784	184	C	07/18/2020	10:44	-132.292	42.899	0	57.50	0	11.1440	0	35.0980	8	26.827	0	57.036	0	273.2	4	102.0	4	-1E+10	1	-1E+10	1	-1E+10	1	-1E+10	1	-1E+10	1	-1E+10	1
4901784	184	C	07/18/2020	10:44	-132.292	42.899	0	59.10	0	11.0580	0	35.0980	8	26.843	0	58.623	0	271.3	4	101.1	4	-1E+10	1	-1E+10	1	-1E+10	1	-1E+10	1	-1E+10	1	-1E+10	1
4901784	184	C	07/18/2020	10:44	-132.292	42.899	0	60.80	0	10.9060	0	35.1200	8	26.888	0	60.309	0	269.3	4	100.1	4	-1E+10	1	-1E+10	1	-1E+10	1	-1E+10	1	-1E+10	1	-1E+10	1
4901784	184	C	07/18/2020	10:44	-132.292	42.899	0	62.40	0	10.8450	0	35.1250	8	26.903	0	61.896	0	267.7	4	99.4	4	-1E+10	1	-1E+10	1	-1E+10	1	-1E+10	1	-1E+10	1	-1E+10	1
4901784	184	C	07/18/2020	10:44	-132.292	42.899	0	64.10	0	10.7350	0	35.1170	8	26.916	0	63.582	0	265.7	4	98.4	4	-1E+10	1	-1E+10	1	-1E+10	1	-1E+10	1	-1E+10	1	-1E+10	1
4901784	184	C	07/18/2020	10:44	-132.292	42.899	0	65.80	0	10.5350	0	35.1250	8	26.958	0	65.268	0	264.5	4	97.5	4	-1E+10	1	-1E+10	1	-1E+10	1	-1E+10	1	-1E+10	1	-1E+10	1
4901784	184	C	07/18/2020	10:44	-132.292	42.899	0	67.60	0	10.5420	0	35.1270	8	26.959	0	67.053	0	263.4	4	97.1	4	-1E+10	1	-1E+10	1	-1E+10	1	-1E+10	1	-1E+10	1	-1E+10	1
4901784	184	C	07/18/2020	10:44	-132.292	42.899	0	69.30	0	10.4780	0	35.1290	8	26.971	0	68.739	0	262.3	4	96.6	4	-1E+10	1	-1E+10	1	-1E+10	1	-1E+10	1	-1E+10	1	-1E+10	1
4901784	184	C	07/18/2020	10:44	-132.292	42.899	0	71.20	0	10.4010	0	35.1300	8	26.986	0	70.624	0	261.1	4	96.0	4	-1E+10	1	-1E+10	1	-1E+10	1	-1E+10	1	-1E+10	1	-1E+10	1
4901784	184	C	07/18/2020	10:44	-132.292	42.899	0	73.00	0	10.4320	0	35.1390	8	26.987	0	72.409	0	259.8	4	95.6	4	-1E+10	1	-1E+10	1	-1E+10	1	-1E+10	1	-1E+10	1	-1E+10	1
4901784	184	C	07/18/2020	10:44	-132.292	42.899	0	74.70	0	10.4660	0	35.1460	8	26.987	0	74.095	0	257.9	4	95.0	4	-1E+10	1	-1E+10	1	-1E+10	1	-1E+10	1	-1E+10	1	-1E+10	1
4901784	184	C	07/18/2020	10:44	-132.292	42.899	0	76.40	0	10.4380	0	35.1580	8	27.001	0	75.780	0	256.0	4	94.2	4	-1E+10	1	-1E+10	1	-1E+10	1	-1E+10	1	-1E+10	1	-1E+10	1
4901784	184	C	07/18/2020	10:44	-132.292	42.899	0	78.20	0	10.3580	0	35.1620	8	27.018	0	77.566	0	254.5	4	93.5	4	-1E+10	1	-1E+10	1	-1E+10	1	-1E+10	1	-1E+10	1	-1E+10	1
4901784	184	C	07/18/2020	10:44	-132.292	42.899	0	80.00	0	10.3460	0	35.1660	8	27.024	0	79.351	0	252.9	4	92.9	4	-1E+10	1	-1E+10	1	-1E+10	1	-1E+10	1	-1E+10	1	-1E+10	1
4901784	184	C	07/18/2020	10:44	-132.292	42.899	0	81.80	0	10.3370	0	35.1790	8	27.035	0	81.136	0	251.2	4	92.3	4	-1E+10	1	-1E+10	1	-1E+10	1	-1E+10	1	-1E+10	1	-1E+10	1
4901784	184	C	07/18/2020	10:44	-132.292	42.899	0	83.50	0	10.3370	0	35.1830	8	27.039	0	82.821	0	249.4	4	91.6	4	-1E+10	1	-1E+10	1	-1E+10	1	-1E+10	1	-1E+10	1	-1E+10	1
4901784	184	C	07/18/2020	10:44	-132.292	42.899	0	85.30	0	10.3270	0	35.1900	8	27.046	0	84.606	0	247.5	4	90.9	4	-1E+10	1	-1E+10	1	-1E+10	1	-1E+10	1	-1E+10	1	-1E+10	1
4901784	184	C	07/18/2020	10:44	-132.292	42.899	0	87.00	0	10.3360	0	35.2030	8	27.055	0	86.292	0	245.4	4	90.1	4	-1E+10	1	-1E+10	1	-1E+10	1	-1E+10	1	-1E+10	1	-1E+10	1
4901784	184	C	07/18/2020	10:44	-132.292	42.899	0	88.70	0	10.3060	0	35.2130	8	27.068	0	87.978	0	242.4	4	89.0	4	-1E+10	1	-1E+10	1	-1E+10	1	-1E+10	1	-1E+10	1	-1E+10	1
4901784	184	C	07/18/2020	10:44	-132.292	42.899	0	90.50	0	10.2590	0	35.2250	8	27.085	0	89.763	0	239.9	4	88.0	4	-1E+10	1	-1E+10	1	-1E+10	1	-1E+10	1	-1E+10	1	-1E+10	1
4901784	184	C	07/18/2020	10:44	-132.292	42.899	0	92.30	0	10.2670	0	35.2390	8	27.095	0	91.548	0	237.5	4	87.1	4	-1E+10	1	-1E+10	1	-1E+10	1	-1E+10	1	-1E+10	1	-1E+10	1
4901784	184	C	07/18/2020	10:44	-132.292	42.899	0	94.00	0	10.2330	0	35.2490	8	27.109	0	93.234	0	234.4	4	85.9	4	-1E+10	1	-1E+10	1	-1E+10	1	-1E+10	1	-1E+10	1	-1E+10	1
4901784	184	C	07/18/2020	10:44	-132.292	42.899	0	95.80	0	10.1660	0	35.2660	8	27.133	0	95.019	0	231.5	4	84.8	4	-1E+10	1	-1E+10	1	-1E+10	1	-1E+10	1	-1E+10	1	-1E+10	1
4901784	184	C	07/18/2020	10:44	-132.292	42.899	0	97.50	0	10.0860	0	35.2910	8	27.167	0	96.704	0	228.3	4	83.5	4	-1E+10	1	-1E+10	1	-1E+10	1	-1E+10	1	-1E+10	1	-1E+10	1
4901784	184	C	07/18/2020	10:44	-132.292	42.899	0	99.20	0	9.8980	0	35.2990	8	27.205	0	98.390	0	225.9	4	82.3	4	-1E+10	1	-1E+10	1	-1E+10	1	-1E+10	1	-1E+10	1	-1E+10	1
4901784	184	C	07/18/2020	10:44	-132.292	42.899	0	102.60	0	9.8260	0	35.3780	8	27.279	0	101.762	0	219.7	4	79.9	4	-1E+10	1	-1E+10	1	-1E+10	1	-1E+10	1	-1E+10	1	-1E+10	1
4901784	184	C	07/18/2020	10:44	-132.292	42.899	0	105.20	0	9.7710	0	35.4100	8	27.314	0	104.340	0	215.5	4	78.3	4	-1E+10	1	-1E+10	1	-1E+10	1	-1E+10	1	-1E+10	1	-1E+10	1
4901784	184	C	07/18/2020	10:44	-132.292	42.899	0	107.90	0	9.6600	0	35.4620	8	27.373	0	107.017	0	211.2	4	76.6	4	-1E+10	1	-1E+10	1	-1E+10	1	-1E+10	1	-1E+10	1	-1E+10	1
4901784	184	C	07/18/2020	10:44	-132.292	42.899	0	109.60	0	9.5780	0	35.4970	8	27.415	0	108.703	0	208.9	4	75.7	4	-1E+10	1	-1E+10	1	-1E+10	1	-1E+10	1	-1E+10	1	-1E+10	1
4901784	184	C	07/18/2020	10:44	-132.292	42.899	0	112.20	0	9.4770	0	35.5390	8	27.464	0	111.281	0	206.1	4	74.5	4	-1E+10	1	-1E+10	1	-1E+10	1	-1E+10	1	-1E+10	1	-1E+10	1
4901784	184	C	07/18/2020	10:44	-132.292	42.899	0	114.90	0	9.4150	0	35.5590	8	27.490	0	113.958	0	203.0	4	73.3	4	-1E+10	1	-1E+10	1	-1E+10	1	-1E+10	1	-1E+10	1	-1E+10	1
4901784	184	C	07/18/2020	10:44	-132.292	42.899	0	117.60	0	9.3130	0	35.6000	8	27.539	0	116.635	0	199.3	4	71.8	4	-1E+10	1	-1E+10	1	-1E+10	1	-1E+10	1	-1E+10	1	-1E+10	1
4901784	184	C	07/18/2020	10:44	-132.292	42.899	0	120.00	0	9.1870	0	35.6650	8	27.611	0	119.014	0	196.9	4	70.8	4	-1E+10	1	-1E+10	1	-1E+10	1	-1E+10	1	-1E+10	1	-1E+10	1
4901784	184	C	07/18/2020	10:44	-132.292	42.899	0	122.20	0	9.1600	0	35.6710	8	27.620	0	121.196	0	195.3	4	70.2	4	-1E+10	1	-1E+10	1	-1E+10	1	-1E+10	1	-1E+10	1	-1E+10	1
4901784	184	C	07/18/2020	10:44	-132.292	42.899	0	124.60	0	9.0770	0	35.6940	8	27.652	0	123.575	0	192.7	4	69.1	4	-1E+10	1	-1E+10	1	-1E+10	1	-1E+10	1	-1E+10	1	-1E+10	1
4901784	184	C	07/18/2020	10:44	-132.292	42.899	0	127.70	0	8.9400	0	35.7390	8	27.709	0	126.649	0	189.2	4	67.7	4	-1E+10	1	-1E+10	1	-1E+10	1	-1E+10	1	-1E+10	1	-1E+10	1
4901784	184	C	07/18/2020	10:44	-132.292	42.899	0	129.60	0	8.8530	0	35.7730	8	27.750	0	128.533	0	186.7	4	66.7	4	-1E+10	1	-1E+10	1	-1E+10	1	-1E+10	1	-1E+10	1	-1E+10	1
4901784	184	C	07/18/2020	10:44	-132.292	42.899	0	132.10	0	8.8020	0	35.8310	8	27.804	0	131.011	0	182.9	4	65.3	4	-1E+10	1	-1E+10	1	-1E+10	1	-1E+10	1	-1E+10	1	-1E+10	1
4901784	184	C	07/18/2020	10:44	-132.292	42.899	0	134.70	0	8.7830	0	35.8880	8	27.852	0	133.589	0	179.7	4	64.1	4	-1E+10	1	-1E+10	1	-1E+10	1	-1E+10	1	-1E+10	1	-1E+10	1
4901784	184	C	07/18/2020	10:44	-132.292	42.899	0	137.40	0	8.8490	0	35.9270	8	27.872	0	136.266	0	178.4	4	63.8	4	-1E+10	1	-1E+10	1	-1E+10	1	-1E+10	1	-1E+10	1	-1E+10	1
4901784	184	C	07/18/2020	10:44	-132.292	42.899	0	140.40	0	8.7190	0	35.9740	8	27.929	0	139.240	0	180.3	4	64.3	4	-1E+10	1	-1E+10	1	-1E+10	1	-1E+10	1	-1E+10	1	-1E+10	1
4901784	184	C	07/18/2020	10:44	-132.292	42.899	0	142.80	0	8.4120	0	35.9620	8	27.969	0	141.619	0	183.2	4	64.9	4	-1E+10	1	-1E+10	1	-1E+10	1	-1E+10	1	-1E+10	1	-1E+10	1
4901784	184	C	07/18/2020	10:44	-132.292	42.899	0	145.20	0	8.2210	0	35.9810	8	28.013	0	143.999	0	182.3	4	64.3	4	-1E+10	1	-1E+10	1	-1E+10	1	-1E+10	1	-1E+10	1	-1E+10	1
4901784	184	C	07/18/2020	10:44	-132.292	42.899	0	147.70	0	8.0330	0	36.0210	8	28.074	0	146.477	0	179.5	4	63.1	4	-1E+10	1	-1E+10	1	-1E+10	1	-1E+10	1	-1E+10	1	-1E+10	1
4901784	184	C	07/18/2020	10:44	-132.292	42.899	0	150.10	0	7.9970	0	36.0640	8	28.113	0	148.856	0	174.1	4	61.2	4	-1E+10	1	-1E+10	1	-1E+10	1	-1E+10	1	-1E+10	1	-1E+10	1
4901784	184	C	07/18/2020	10:44	-132.292	42.899	0	152.60	0	8.0160	0	36.0970	8	28.136	0	151.335	0	166.7	4	58.6	4	-1E+10	1	-1E+10	1	-1E+10	1	-1E+10	1	-1E+10	1	-1E+10	1
4901784	184	C	07/18/2020	10:44	-132.292	42.899	0	154.40	0	8.0620	0	36.1230	8	28.150	0	153.119	0	160.3	4	56.4	4	-1E+10	1	-1E+10	1	-1E+10	1	-1E+10	1	-1E+10	1	-1E+10	1
4901784	184	C	07/18/2020	10:44	-132.292	42.899	0	157.40	0	8.2200	0	36.2580	8	28.231	0	156.093	0	147.9	4	52.3	4	-1E+10	1	-1E+10	1	-1E+10	1	-1E+10	1	-1E+10	1	-1E+10	1
4901784	184	C	07/18/2020	10:44	-132.292	42.899	0	160.20	0	8.3530	0	36.3480	8	28.281	0	158.869	0	140.2	4	49.7	4	-1E+10	1	-1E+10	1	-1E+10	1	-1E+10	1	-1E+10	1	-1E+10	1
4901784	184	C	07/18/2020	10:44	-132.292	42.899	0	162.60	0	8.4270	0	36.3880	8	28.301	0	161.248	0	137.0	4	48.7	4	-1E+10	1	-1E+10	1	-1E+10	1	-1E+10	1	-1E+10	1	-1E+10	1
4901784	184	C	07/18/2020	10:44	-132.292	42.899	0	165.00	0	8.3940	0	36.4150	8	28.328	0	163.627	0	135.6	4	48.2	4	-1E+10	1	-1E+10	1	-1E+10	1	-1E+10	1	-1E+10	1	-1E+10	1
4901784	184	C	07/18/2020	10:44	-132.292	42.899	0	167.40	0	8.3880	0	36.4260	8	28.337	0	166.006	0	133.8	4	47.5	4	-1E+10	1	-1E+10	1	-1E+10	1	-1E+10	1	-1E+10	1	-1E+10	1
4901784	184	C	07/18/2020	10:44	-132.292	42.899	0	169.80	0	8.3800	0	36.4370	8	28.347	0	168.385	0	131.9	4	46.9	4	-1E+10	1	-1E+10	1	-1E+10	1	-1E+10	1	-1E+10	1	-1E+10	1
4901784	184	C	07/18/2020	10:44	-132.292	42.899	0	172.30	0	8.3230	0	36.4800	8	28.390	0	170.863	0	131.1	4	46.5	4	-1E+10	1	-1E+10	1	-1E+10	1	-1E+10	1	-1E+10	1	-1E+10	1
4901784	184	C	07/18/2020	10:44	-132.292	42.899	0	174.80	0	8.3040	0	36.4920	8	28.402	0	173.341	0	130.7	4	46.4	4	-1E+10	1	-1E+10	1	-1E+10	1	-1E+10	1	-1E+10	1	-1E+10	1
4901784	184	C	07/18/2020	10:44	-132.292	42.899	0	177.40	0	8.2790	0	36.5010	8	28.413	0	175.918	0	130.7	4	46.3	4	-1E+10	1	-1E+10	1	-1E+10	1	-1E+10	1	-1E+10	1	-1E+10	1
4901784	184	C	07/18/2020	10:44	-132.292	42.899	0	179.90	0	8.2390	0	36.5130	8	28.429	0	178.397	0	130.2	4	46.1	4	-1E+10	1	-1E+10	1	-1E+10	1	-1E+10	1	-1E+10	1	-1E+10	1
4901784	184	C	07/18/2020	10:44	-132.292	42.899	0	182.50	0	8.2180	0	36.5300	8	28.446	0	180.974	0	128.7	4	45.6	4	-1E+10	1	-1E+10	1	-1E+10	1	-1E+10	1	-1E+10	1	-1E+10	1
4901784	184	C	07/18/2020	10:44	-132.292	42.899	0	185.10	0	8.2080	0	36.5520	8	28.465	0	183.551	0	127.6	4	45.2	4	-1E+10	1	-1E+10	1	-1E+10	1	-1E+10	1	-1E+10	1	-1E+10	1
4901784	184	C	07/18/2020	10:44	-132.292	42.899	0	187.60	0	8.1420	0	36.5620	8	28.483	0	186.029	0	129.6	4	45.8	4	-1E+10	1	-1E+10	1	-1E+10	1	-1E+10	1	-1E+10	1	-1E+10	1
4901784	184	C	07/18/2020	10:44	-132.292	42.899	0	190.20	0	8.0970	0	36.5730	8	28.498	0	188.606	0	129.6	4	45.8	4	-1E+10	1	-1E+10	1	-1E+10	1	-1E+10	1	-1E+10	1	-1E+10	1
4901784	184	C	07/18/2020	10:44	-132.292	42.899	0	192.70	0	8.0860	0	36.5800	8	28.506	0	191.084	0	128.7	4	45.5	4	-1E+10	1	-1E+10	1	-1E+10	1	-1E+10	1	-1E+10	1	-1E+10	1
4901784	184	C	07/18/2020	10:44	-132.292	42.899	0	195.30	0	8.0530	0	36.5910	8	28.519	0	193.661	0	127.6	4	45.0	4	-1E+10	1	-1E+10	1	-1E+10	1	-1E+10	1	-1E+10	1	-1E+10	1
4901784	184	C	07/18/2020	10:44	-132.292	42.899	0	197.90	0	8.0380	0	36.5990	8	28.528	0	196.238	0	127.7	4	45.1	4	-1E+10	1	-1E+10	1	-1E+10	1	-1E+10	1	-1E+10	1	-1E+10	1
4901784	184	C	07/18/2020	10:44	-132.292	42.899	0	200.40	0	7.9760	0	36.6120	8	28.548	0	198.715	0	128.7	4	45.4	4	-1E+10	1	-1E+10	1	-1E+10	1	-1E+10	1	-1E+10	1	-1E+10	1
4901784	184	C	07/18/2020	10:44	-132.292	42.899	0	202.20	0	7.9490	0	36.6170	8	28.556	0	200.499	0	128.2	4	45.2	4	-1E+10	1	-1E+10	1	-1E+10	1	-1E+10	1	-1E+10	1	-1E+10	1
4901784	184	C	07/18/2020	10:44	-132.292	42.899	0	204.70	0	7.9440	0	36.6190	8	28.558	0	202.977	0	127.3	4	44.8	4	-1E+10	1	-1E+10	1	-1E+10	1	-1E+10	1	-1E+10	1	-1E+10	1
4901784	184	C	07/18/2020	10:44	-132.292	42.899	0	207.30	0	7.9360	0	36.6190	8	28.560	0	205.554	0	126.7	4	44.6	4	-1E+10	1	-1E+10	1	-1E+10	1	-1E+10	1	-1E+10	1	-1E+10	1
4901784	184	C	07/18/2020	10:44	-132.292	42.899	0	209.80	0	7.9140	0	36.6220	8	28.565	0	208.032	0	126.2	4	44.4	4	-1E+10	1	-1E+10	1	-1E+10	1	-1E+10	1	-1E+10	1	-1E+10	1
4901784	184	C	07/18/2020	10:44	-132.292	42.899	0	212.40	0	7.8660	0	36.6280	8	28.577	0	210.608	0	126.5	4	44.5	4	-1E+10	1	-1E+10	1	-1E+10	1	-1E+10	1	-1E+10	1	-1E+10	1
4901784	184	C	07/18/2020	10:44	-132.292	42.899	0	215.00	0	7.7930	0	36.6370	8	28.596	0	213.185	0	127.2	4	44.6	4	-1E+10	1	-1E+10	1	-1E+10	1	-1E+10	1	-1E+10	1	-1E+10	1
4901784	184	C	07/18/2020	10:44	-132.292	42.899	0	217.60	0	7.7680	0	36.6370	8	28.600	0	215.762	0	127.5	4	44.7	4	-1E+10	1	-1E+10	1	-1E+10	1	-1E+10	1	-1E+10	1	-1E+10	1
4901784	184	C	07/18/2020	10:44	-132.292	42.899	0	220.20	0	7.7320	0	36.6390	8	28.607	0	218.338	0	127.9	4	44.8	4	-1E+10	1	-1E+10	1	-1E+10	1	-1E+10	1	-1E+10	1	-1E+10	1
4901784	184	C	07/18/2020	10:44	-132.292	42.899	0	222.80	0	7.6660	0	36.6440	8	28.620	0	220.915	0	128.6	4	45.0	4	-1E+10	1	-1E+10	1	-1E+10	1	-1E+10	1	-1E+10	1	-1E+10	1
4901784	184	C	07/18/2020	10:44	-132.292	42.899	0	225.30	0	7.6220	0	36.6470	8	28.629	0	223.393	0	128.5	4	45.0	4	-1E+10	1	-1E+10	1	-1E+10	1	-1E+10	1	-1E+10	1	-1E+10	1
4901784	184	C	07/18/2020	10:44	-132.292	42.899	0	227.80	0	7.6100	0	36.6460	8	28.631	0	225.870	0	128.3	4	44.9	4	-1E+10	1	-1E+10	1	-1E+10	1	-1E+10	1	-1E+10	1	-1E+10	1
4901784	184	C	07/18/2020	10:44	-132.292	42.899	0	230.30	0	7.5830	0	36.6460	8	28.635	0	228.347	0	127.7	4	44.6	4	-1E+10	1	-1E+10	1	-1E+10	1	-1E+10	1	-1E+10	1	-1E+10	1
4901784	184	C	07/18/2020	10:44	-132.292	42.899	0	232.80	0	7.5410	0	36.6460	8	28.641	0	230.825	0	126.7	4	44.2	4	-1E+10	1	-1E+10	1	-1E+10	1	-1E+10	1	-1E+10	1	-1E+10	1
4901784	184	C	07/18/2020	10:44	-132.292	42.899	0	235.30	0	7.4780	0	36.6510	8	28.654	0	233.302	0	125.4	4	43.7	4	-1E+10	1	-1E+10	1	-1E+10	1	-1E+10	1	-1E+10	1	-1E+10	1
4901784	184	C	07/18/2020	10:44	-132.292	42.899	0	237.90	0	7.4610	0	36.6480	8	28.654	0	235.879	0	123.7	4	43.1	4	-1E+10	1	-1E+10	1	-1E+10	1	-1E+10	1	-1E+10	1	-1E+10	1
4901784	184	C	07/18/2020	10:44	-132.292	42.899	0	239.60	0	7.4180	0	36.6510	8	28.663	0	237.563	0	122.2	4	42.5	4	-1E+10	1	-1E+10	1	-1E+10	1	-1E+10	1	-1E+10	1	-1E+10	1
4901784	184	C	07/18/2020	10:44	-132.292	42.899	0	242.10	0	7.3570	0	36.6550	8	28.675	0	240.041	0	120.3	4	41.8	4	-1E+10	1	-1E+10	1	-1E+10	1	-1E+10	1	-1E+10	1	-1E+10	1
4901784	184	C	07/18/2020	10:44	-132.292	42.899	0	244.70	0	7.3020	0	36.6590	8	28.687	0	242.617	0	120.0	4	41.7	4	-1E+10	1	-1E+10	1	-1E+10	1	-1E+10	1	-1E+10	1	-1E+10	1
4901784	184	C	07/18/2020	10:44	-132.292	42.899	0	247.20	0	7.2700	0	36.6570	8	28.690	0	245.094	0	119.8	4	41.6	4	-1E+10	1	-1E+10	1	-1E+10	1	-1E+10	1	-1E+10	1	-1E+10	1
4901784	184	C	07/18/2020	10:44	-132.292	42.899	0	249.70	0	7.2260	0	36.6600	8	28.698	0	247.571	0	118.4	4	41.1	4	-1E+10	1	-1E+10	1	-1E+10	1	-1E+10	1	-1E+10	1	-1E+10	1
4901784	184	C	07/18/2020	10:44	-132.292	42.899	0	252.20	0	7.2110	0	36.6610	8	28.701	0	250.049	0	117.5	4	40.7	4	-1E+10	1	-1E+10	1	-1E+10	1	-1E+10	1	-1E+10	1	-1E+10	1
4901784	184	C	07/18/2020	10:44	-132.292	42.899	0	254.80	0	7.2040	0	36.6610	8	28.703	0	252.625	0	116.4	4	40.3	4	-1E+10	1	-1E+10	1	-1E+10	1	-1E+10	1	-1E+10	1	-1E+10	1
4901784	184	C	07/18/2020	10:44	-132.292	42.899	0	257.40	0	7.1690	0	36.6620	8	28.708	0	255.201	0	114.8	4	39.7	4	-1E+10	1	-1E+10	1	-1E+10	1	-1E+10	1	-1E+10	1	-1E+10	1
4901784	184	C	07/18/2020	10:44	-132.292	42.899	0	260.00	0	7.1470	0	36.6630	8	28.712	0	257.777	0	113.0	4	39.1	4	-1E+10	1	-1E+10	1	-1E+10	1	-1E+10	1	-1E+10	1	-1E+10	1
4901784	184	C	07/18/2020	10:44	-132.292	42.899	0	262.60	0	7.1190	0	36.6650	8	28.718	0	260.353	0	111.5	4	38.6	4	-1E+10	1	-1E+10	1	-1E+10	1	-1E+10	1	-1E+10	1	-1E+10	1
4901784	184	C	07/18/2020	10:44	-132.292	42.899	0	265.20	0	7.1020	0	36.6650	8	28.721	0	262.929	0	110.3	4	38.1	4	-1E+10	1	-1E+10	1	-1E+10	1	-1E+10	1	-1E+10	1	-1E+10	1
4901784	184	C	07/18/2020	10:44	-132.292	42.899	0	267.80	0	7.0510	0	36.6680	8	28.730	0	265.505	0	109.1	4	37.7	4	-1E+10	1	-1E+10	1	-1E+10	1	-1E+10	1	-1E+10	1	-1E+10	1
4901784	184	C	07/18/2020	10:44	-132.292	42.899	0	270.30	0	7.0050	0	36.6700	8	28.739	0	267.982	0	108.2	4	37.3	4	-1E+10	1	-1E+10	1	-1E+10	1	-1E+10	1	-1E+10	1	-1E+10	1
4901784	184	C	07/18/2020	10:44	-132.292	42.899	0	272.80	0	6.9950	0	36.6700	8	28.740	0	270.459	0	107.4	4	37.1	4	-1E+10	1	-1E+10	1	-1E+10	1	-1E+10	1	-1E+10	1	-1E+10	1
4901784	184	C	07/18/2020	10:44	-132.292	42.899	0	275.30	0	6.9660	0	36.6690	8	28.743	0	272.936	0	106.3	4	36.7	4	-1E+10	1	-1E+10	1	-1E+10	1	-1E+10	1	-1E+10	1	-1E+10	1
4901784	184	C	07/18/2020	10:44	-132.292	42.899	0	277.80	0	6.9320	0	36.6700	8	28.749	0	275.413	0	105.3	4	36.3	4	-1E+10	1	-1E+10	1	-1E+10	1	-1E+10	1	-1E+10	1	-1E+10	1
4901784	184	C	07/18/2020	10:44	-132.292	42.899	0	280.30	0	6.9170	0	36.6680	8	28.750	0	277.890	0	104.0	4	35.8	4	-1E+10	1	-1E+10	1	-1E+10	1	-1E+10	1	-1E+10	1	-1E+10	1
4901784	184	C	07/18/2020	10:44	-132.292	42.899	0	282.70	0	6.8420	0	36.6730	8	28.764	0	280.268	0	102.7	4	35.3	4	-1E+10	1	-1E+10	1	-1E+10	1	-1E+10	1	-1E+10	1	-1E+10	1
4901784	184	C	07/18/2020	10:44	-132.292	42.899	0	285.20	0	6.8080	0	36.6730	8	28.769	0	282.745	0	102.0	4	35.0	4	-1E+10	1	-1E+10	1	-1E+10	1	-1E+10	1	-1E+10	1	-1E+10	1
4901784	184	C	07/18/2020	10:44	-132.292	42.899	0	287.80	0	6.7960	0	36.6730	8	28.771	0	285.320	0	101.3	4	34.8	4	-1E+10	1	-1E+10	1	-1E+10	1	-1E+10	1	-1E+10	1	-1E+10	1
4901784	184	C	07/18/2020	10:44	-132.292	42.899	0	290.30	0	6.7800	0	36.6720	8	28.772	0	287.797	0	100.5	4	34.5	4	-1E+10	1	-1E+10	1	-1E+10	1	-1E+10	1	-1E+10	1	-1E+10	1
4901784	184	C	07/18/2020	10:44	-132.292	42.899	0	292.90	0	6.7390	0	36.6740	8	28.780	0	290.373	0	99.6	4	34.2	4	-1E+10	1	-1E+10	1	-1E+10	1	-1E+10	1	-1E+10	1	-1E+10	1
4901784	184	C	07/18/2020	10:44	-132.292	42.899	0	295.40	0	6.6920	0	36.6760	8	28.788	0	292.850	0	98.9	4	33.9	4	-1E+10	1	-1E+10	1	-1E+10	1	-1E+10	1	-1E+10	1	-1E+10	1
4901784	184	C	07/18/2020	10:44	-132.292	42.899	0	297.10	0	6.6880	0	36.6760	8	28.788	0	294.534	0	98.4	4	33.7	4	-1E+10	1	-1E+10	1	-1E+10	1	-1E+10	1	-1E+10	1	-1E+10	1
4901784	184	C	07/18/2020	10:44	-132.292	42.899	0	299.70	0	6.6730	0	36.6750	8	28.790	0	297.109	0	97.3	4	33.3	4	-1E+10	1	-1E+10	1	-1E+10	1	-1E+10	1	-1E+10	1	-1E+10	1
4901784	184	C	07/18/2020	10:44	-132.292	42.899	0	302.20	0	6.6270	0	36.6780	8	28.799	0	299.586	0	96.3	4	32.9	4	-1E+10	1	-1E+10	1	-1E+10	1	-1E+10	1	-1E+10	1	-1E+10	1
4901784	184	C	07/18/2020	10:44	-132.292	42.899	0	304.70	0	6.6100	0	36.6800	8	28.802	0	302.062	0	94.8	4	32.4	4	-1E+10	1	-1E+10	1	-1E+10	1	-1E+10	1	-1E+10	1	-1E+10	1
4901784	184	C	07/18/2020	10:44	-132.292	42.899	0	307.30	0	6.6050	0	36.6820	8	28.805	0	304.638	0	93.8	4	32.1	4	-1E+10	1	-1E+10	1	-1E+10	1	-1E+10	1	-1E+10	1	-1E+10	1
4901784	184	C	07/18/2020	10:44	-132.292	42.899	0	309.90	0	6.5550	0	36.6830	8	28.813	0	307.214	0	93.1	4	31.8	4	-1E+10	1	-1E+10	1	-1E+10	1	-1E+10	1	-1E+10	1	-1E+10	1
4901784	184	C	07/18/2020	10:44	-132.292	42.899	0	312.50	0	6.5150	0	36.6840	8	28.819	0	309.789	0	91.7	4	31.3	4	-1E+10	1	-1E+10	1	-1E+10	1	-1E+10	1	-1E+10	1	-1E+10	1
4901784	184	C	07/18/2020	10:44	-132.292	42.899	0	315.00	0	6.4850	0	36.6890	8	28.827	0	312.266	0	89.9	4	30.7	4	-1E+10	1	-1E+10	1	-1E+10	1	-1E+10	1	-1E+10	1	-1E+10	1
4901784	184	C	07/18/2020	10:44	-132.292	42.899	0	317.70	0	6.4640	0	36.6900	8	28.831	0	314.940	0	88.4	4	30.1	4	-1E+10	1	-1E+10	1	-1E+10	1	-1E+10	1	-1E+10	1	-1E+10	1
4901784	184	C	07/18/2020	10:44	-132.292	42.899	0	320.20	0	6.4470	0	36.6940	8	28.836	0	317.416	0	86.4	4	29.4	4	-1E+10	1	-1E+10	1	-1E+10	1	-1E+10	1	-1E+10	1	-1E+10	1
4901784	184	C	07/18/2020	10:44	-132.292	42.899	0	322.70	0	6.4520	0	36.7010	8	28.841	0	319.893	0	84.3	4	28.7	4	-1E+10	1	-1E+10	1	-1E+10	1	-1E+10	1	-1E+10	1	-1E+10	1
4901784	184	C	07/18/2020	10:44	-132.292	42.899	0	325.40	0	6.4610	0	36.7020	8	28.841	0	322.567	0	83.8	4	28.6	4	-1E+10	1	-1E+10	1	-1E+10	1	-1E+10	1	-1E+10	1	-1E+10	1
4901784	184	C	07/18/2020	10:44	-132.292	42.899	0	327.90	0	6.4240	0	36.7020	8	28.846	0	325.043	0	83.8	4	28.5	4	-1E+10	1	-1E+10	1	-1E+10	1	-1E+10	1	-1E+10	1	-1E+10	1
4901784	184	C	07/18/2020	10:44	-132.292	42.899	0	329.70	0	6.4130	0	36.7000	8	28.846	0	326.826	0	83.8	4	28.5	4	-1E+10	1	-1E+10	1	-1E+10	1	-1E+10	1	-1E+10	1	-1E+10	1
4901784	184	C	07/18/2020	10:44	-132.292	42.899	0	332.30	0	6.3880	0	36.6990	8	28.848	0	329.402	0	83.7	4	28.5	4	-1E+10	1	-1E+10	1	-1E+10	1	-1E+10	1	-1E+10	1	-1E+10	1
4901784	184	C	07/18/2020	10:44	-132.292	42.899	0	335.00	0	6.3390	0	36.6980	8	28.854	0	332.076	0	83.5	4	28.4	4	-1E+10	1	-1E+10	1	-1E+10	1	-1E+10	1	-1E+10	1	-1E+10	1
4901784	184	C	07/18/2020	10:44	-132.292	42.899	0	337.60	0	6.3000	0	36.6960	8	28.858	0	334.651	0	83.2	4	28.2	4	-1E+10	1	-1E+10	1	-1E+10	1	-1E+10	1	-1E+10	1	-1E+10	1
4901784	184	C	07/18/2020	10:44	-132.292	42.899	0	340.30	0	6.2600	0	36.6950	8	28.863	0	337.325	0	82.5	4	28.0	4	-1E+10	1	-1E+10	1	-1E+10	1	-1E+10	1	-1E+10	1	-1E+10	1
4901784	184	C	07/18/2020	10:44	-132.292	42.899	0	342.00	0	6.2460	0	36.6920	8	28.862	0	339.009	0	81.8	4	27.7	4	-1E+10	1	-1E+10	1	-1E+10	1	-1E+10	1	-1E+10	1	-1E+10	1
4901784	184	C	07/18/2020	10:44	-132.292	42.899	0	344.70	0	6.1570	0	36.6920	8	28.874	0	341.683	0	80.0	4	27.1	4	-1E+10	1	-1E+10	1	-1E+10	1	-1E+10	1	-1E+10	1	-1E+10	1
4901784	184	C	07/18/2020	10:44	-132.292	42.899	0	347.40	0	6.0800	0	36.6960	8	28.888	0	344.357	0	78.0	4	26.3	4	-1E+10	1	-1E+10	1	-1E+10	1	-1E+10	1	-1E+10	1	-1E+10	1
4901784	184	C	07/18/2020	10:44	-132.292	42.899	0	350.00	0	6.0290	0	36.7000	8	28.898	0	346.932	0	76.5	4	25.8	4	-1E+10	1	-1E+10	1	-1E+10	1	-1E+10	1	-1E+10	1	-1E+10	1
4901784	184	C	07/18/2020	10:44	-132.292	42.899	0	352.70	0	6.0070	0	36.7010	8	28.901	0	349.606	0	75.1	4	25.3	4	-1E+10	1	-1E+10	1	-1E+10	1	-1E+10	1	-1E+10	1	-1E+10	1
4901784	184	C	07/18/2020	10:44	-132.292	42.899	0	355.30	0	5.9740	0	36.7040	8	28.908	0	352.181	0	73.6	4	24.8	4	-1E+10	1	-1E+10	1	-1E+10	1	-1E+10	1	-1E+10	1	-1E+10	1
4901784	184	C	07/18/2020	10:44	-132.292	42.899	0	358.00	0	5.9560	0	36.7060	8	28.912	0	354.855	0	72.7	4	24.5	4	-1E+10	1	-1E+10	1	-1E+10	1	-1E+10	1	-1E+10	1	-1E+10	1
4901784	184	C	07/18/2020	10:44	-132.292	42.899	0	359.80	0	5.9220	0	36.7070	8	28.917	0	356.638	0	72.2	4	24.3	4	-1E+10	1	-1E+10	1	-1E+10	1	-1E+10	1	-1E+10	1	-1E+10	1
4901784	184	C	07/18/2020	10:44	-132.292	42.899	0	362.50	0	5.9110	0	36.7070	8	28.919	0	359.312	0	71.5	4	24.1	4	-1E+10	1	-1E+10	1	-1E+10	1	-1E+10	1	-1E+10	1	-1E+10	1
4901784	184	C	07/18/2020	10:44	-132.292	42.899	0	365.20	0	5.8860	0	36.7050	8	28.920	0	361.986	0	71.2	4	23.9	4	-1E+10	1	-1E+10	1	-1E+10	1	-1E+10	1	-1E+10	1	-1E+10	1
4901784	184	C	07/18/2020	10:44	-132.292	42.899	0	367.00	0	5.7880	0	36.7090	8	28.936	0	363.768	0	70.9	4	23.8	4	-1E+10	1	-1E+10	1	-1E+10	1	-1E+10	1	-1E+10	1	-1E+10	1
4901784	184	C	07/18/2020	10:44	-132.292	42.899	0	369.90	0	5.7450	0	36.7100	8	28.943	0	366.640	0	70.3	4	23.6	4	-1E+10	1	-1E+10	1	-1E+10	1	-1E+10	1	-1E+10	1	-1E+10	1
4901784	184	C	07/18/2020	10:44	-132.292	42.899	0	373.20	0	5.7080	0	36.7110	8	28.948	0	369.908	0	69.1	4	23.1	4	-1E+10	1	-1E+10	1	-1E+10	1	-1E+10	1	-1E+10	1	-1E+10	1
4901784	184	C	07/18/2020	10:44	-132.292	42.899	0	375.10	0	5.6850	0	36.7130	8	28.953	0	371.790	0	68.0	4	22.8	4	-1E+10	1	-1E+10	1	-1E+10	1	-1E+10	1	-1E+10	1	-1E+10	1
4901784	184	C	07/18/2020	10:44	-132.292	42.899	0	377.40	0	5.6640	0	36.7160	8	28.958	0	374.068	0	66.5	4	22.3	4	-1E+10	1	-1E+10	1	-1E+10	1	-1E+10	1	-1E+10	1	-1E+10	1
4901784	184	C	07/18/2020	10:44	-132.292	42.899	0	379.80	0	5.6470	0	36.7210	8	28.964	0	376.444	0	64.9	4	21.7	4	-1E+10	1	-1E+10	1	-1E+10	1	-1E+10	1	-1E+10	1	-1E+10	1
4901784	184	C	07/18/2020	10:44	-132.292	42.899	0	382.10	0	5.6400	0	36.7230	8	28.967	0	378.722	0	63.9	4	21.4	4	-1E+10	1	-1E+10	1	-1E+10	1	-1E+10	1	-1E+10	1	-1E+10	1
4901784	184	C	07/18/2020	10:44	-132.292	42.899	0	385.20	0	5.6120	0	36.7260	8	28.973	0	381.792	0	62.8	4	21.0	4	-1E+10	1	-1E+10	1	-1E+10	1	-1E+10	1	-1E+10	1	-1E+10	1
4901784	184	C	07/18/2020	10:44	-132.292	42.899	0	387.60	0	5.5720	0	36.7300	8	28.981	0	384.168	0	62.1	4	20.7	4	-1E+10	1	-1E+10	1	-1E+10	1	-1E+10	1	-1E+10	1	-1E+10	1
4901784	184	C	07/18/2020	10:44	-132.292	42.899	0	390.00	0	5.5710	0	36.7310	8	28.982	0	386.545	0	61.2	4	20.4	4	-1E+10	1	-1E+10	1	-1E+10	1	-1E+10	1	-1E+10	1	-1E+10	1
4901784	184	C	07/18/2020	10:44	-132.292	42.899	0	392.40	0	5.5650	0	36.7320	8	28.983	0	388.921	0	60.0	4	20.0	4	-1E+10	1	-1E+10	1	-1E+10	1	-1E+10	1	-1E+10	1	-1E+10	1
4901784	184	C	07/18/2020	10:44	-132.292	42.899	0	394.90	0	5.5590	0	36.7360	8	28.987	0	391.397	0	58.8	4	19.6	4	-1E+10	1	-1E+10	1	-1E+10	1	-1E+10	1	-1E+10	1	-1E+10	1
4901784	184	C	07/18/2020	10:44	-132.292	42.899	0	397.40	0	5.5520	0	36.7360	8	28.988	0	393.872	0	58.0	4	19.4	4	-1E+10	1	-1E+10	1	-1E+10	1	-1E+10	1	-1E+10	1	-1E+10	1
4901784	184	C	07/18/2020	10:44	-132.292	42.899	0	399.80	0	5.5420	0	36.7370	8	28.990	0	396.248	0	56.9	4	19.0	4	-1E+10	1	-1E+10	1	-1E+10	1	-1E+10	1	-1E+10	1	-1E+10	1
4901784	184	C	07/18/2020	10:44	-132.292	42.899	0	402.30	0	5.5180	0	36.7370	8	28.994	0	398.724	0	55.7	4	18.6	4	-1E+10	1	-1E+10	1	-1E+10	1	-1E+10	1	-1E+10	1	-1E+10	1
4901784	184	C	07/18/2020	10:44	-132.292	42.899	0	404.80	0	5.4610	0	36.7430	8	29.005	0	401.199	0	54.4	4	18.1	4	-1E+10	1	-1E+10	1	-1E+10	1	-1E+10	1	-1E+10	1	-1E+10	1
4901784	184	C	07/18/2020	10:44	-132.292	42.899	0	407.40	0	5.4360	0	36.7480	8	29.013	0	403.773	0	53.4	4	17.8	4	-1E+10	1	-1E+10	1	-1E+10	1	-1E+10	1	-1E+10	1	-1E+10	1
4901784	184	C	07/18/2020	10:44	-132.292	42.899	0	409.80	0	5.4120	0	36.7520	8	29.019	0	406.150	0	52.6	4	17.5	4	-1E+10	1	-1E+10	1	-1E+10	1	-1E+10	1	-1E+10	1	-1E+10	1
4901784	184	C	07/18/2020	10:44	-132.292	42.899	0	412.40	0	5.3890	0	36.7550	8	29.024	0	408.724	0	51.9	4	17.3	4	-1E+10	1	-1E+10	1	-1E+10	1	-1E+10	1	-1E+10	1	-1E+10	1
4901784	184	C	07/18/2020	10:44	-132.292	42.899	0	415.00	0	5.3690	0	36.7580	8	29.029	0	411.298	0	51.1	4	17.0	4	-1E+10	1	-1E+10	1	-1E+10	1	-1E+10	1	-1E+10	1	-1E+10	1
4901784	184	C	07/18/2020	10:44	-132.292	42.899	0	417.60	0	5.3550	0	36.7590	8	29.032	0	413.872	0	50.2	4	16.7	4	-1E+10	1	-1E+10	1	-1E+10	1	-1E+10	1	-1E+10	1	-1E+10	1
4901784	184	C	07/18/2020	10:44	-132.292	42.899	0	420.20	0	5.3430	0	36.7640	8	29.037	0	416.447	0	49.0	4	16.3	4	-1E+10	1	-1E+10	1	-1E+10	1	-1E+10	1	-1E+10	1	-1E+10	1
4901784	184	C	07/18/2020	10:44	-132.292	42.899	0	422.80	0	5.3320	0	36.7690	8	29.042	0	419.021	0	48.0	4	16.0	4	-1E+10	1	-1E+10	1	-1E+10	1	-1E+10	1	-1E+10	1	-1E+10	1
4901784	184	C	07/18/2020	10:44	-132.292	42.899	0	424.60	0	5.3300	0	36.7720	8	29.045	0	420.803	0	47.5	4	15.8	4	-1E+10	1	-1E+10	1	-1E+10	1	-1E+10	1	-1E+10	1	-1E+10	1
4901784	184	C	07/18/2020	10:44	-132.292	42.899	0	427.20	0	5.3240	0	36.7740	8	29.047	0	423.377	0	46.8	4	15.6	4	-1E+10	1	-1E+10	1	-1E+10	1	-1E+10	1	-1E+10	1	-1E+10	1
4901784	184	C	07/18/2020	10:44	-132.292	42.899	0	429.80	0	5.3100	0	36.7770	8	29.052	0	425.951	0	46.1	4	15.3	4	-1E+10	1	-1E+10	1	-1E+10	1	-1E+10	1	-1E+10	1	-1E+10	1
4901784	184	C	07/18/2020	10:44	-132.292	42.899	0	432.40	0	5.2910	0	36.7800	8	29.056	0	428.525	0	45.4	4	15.1	4	-1E+10	1	-1E+10	1	-1E+10	1	-1E+10	1	-1E+10	1	-1E+10	1
4901784	184	C	07/18/2020	10:44	-132.292	42.899	0	435.10	0	5.2660	0	36.7820	8	29.061	0	431.198	0	44.8	4	14.9	4	-1E+10	1	-1E+10	1	-1E+10	1	-1E+10	1	-1E+10	1	-1E+10	1
4901784	184	C	07/18/2020	10:44	-132.292	42.899	0	437.70	0	5.2520	0	36.7860	8	29.066	0	433.772	0	44.2	4	14.6	4	-1E+10	1	-1E+10	1	-1E+10	1	-1E+10	1	-1E+10	1	-1E+10	1
4901784	184	C	07/18/2020	10:44	-132.292	42.899	0	440.40	0	5.2430	0	36.7890	8	29.070	0	436.445	0	43.7	4	14.5	4	-1E+10	1	-1E+10	1	-1E+10	1	-1E+10	1	-1E+10	1	-1E+10	1
4901784	184	C	07/18/2020	10:44	-132.292	42.899	0	442.20	0	5.2360	0	36.7900	8	29.071	0	438.227	0	43.4	4	14.4	4	-1E+10	1	-1E+10	1	-1E+10	1	-1E+10	1	-1E+10	1	-1E+10	1
4901784	184	C	07/18/2020	10:44	-132.292	42.899	0	444.90	0	5.2180	0	36.7920	8	29.075	0	440.900	0	42.9	4	14.2	4	-1E+10	1	-1E+10	1	-1E+10	1	-1E+10	1	-1E+10	1	-1E+10	1
4901784	184	C	07/18/2020	10:44	-132.292	42.899	0	447.70	0	5.2040	0	36.7930	8	29.078	0	443.672	0	42.4	4	14.0	4	-1E+10	1	-1E+10	1	-1E+10	1	-1E+10	1	-1E+10	1	-1E+10	1
4901784	184	C	07/18/2020	10:44	-132.292	42.899	0	449.50	0	5.1920	0	36.7950	8	29.081	0	445.454	0	42.0	4	13.9	4	-1E+10	1	-1E+10	1	-1E+10	1	-1E+10	1	-1E+10	1	-1E+10	1
4901784	184	C	07/18/2020	10:44	-132.292	42.899	0	452.30	0	5.1690	0	36.7990	8	29.087	0	448.225	0	41.5	4	13.7	4	-1E+10	1	-1E+10	1	-1E+10	1	-1E+10	1	-1E+10	1	-1E+10	1
4901784	184	C	07/18/2020	10:44	-132.292	42.899	0	455.00	0	5.1600	0	36.8010	8	29.089	0	450.898	0	41.0	4	13.6	4	-1E+10	1	-1E+10	1	-1E+10	1	-1E+10	1	-1E+10	1	-1E+10	1
4901784	184	C	07/18/2020	10:44	-132.292	42.899	0	457.80	0	5.1480	0	36.8020	8	29.092	0	453.670	0	40.5	4	13.4	4	-1E+10	1	-1E+10	1	-1E+10	1	-1E+10	1	-1E+10	1	-1E+10	1
4901784	184	C	07/18/2020	10:44	-132.292	42.899	0	460.50	0	5.1330	0	36.8040	8	29.095	0	456.342	0	40.0	4	13.2	4	-1E+10	1	-1E+10	1	-1E+10	1	-1E+10	1	-1E+10	1	-1E+10	1
4901784	184	C	07/18/2020	10:44	-132.292	42.899	0	462.40	0	5.1210	0	36.8070	8	29.099	0	458.223	0	39.6	4	13.1	4	-1E+10	1	-1E+10	1	-1E+10	1	-1E+10	1	-1E+10	1	-1E+10	1
4901784	184	C	07/18/2020	10:44	-132.292	42.899	0	465.20	0	5.1070	0	36.8100	8	29.103	0	460.995	0	39.1	4	12.9	4	-1E+10	1	-1E+10	1	-1E+10	1	-1E+10	1	-1E+10	1	-1E+10	1
4901784	184	C	07/18/2020	10:44	-132.292	42.899	0	468.00	0	5.0950	0	36.8130	8	29.107	0	463.766	0	38.7	4	12.8	4	-1E+10	1	-1E+10	1	-1E+10	1	-1E+10	1	-1E+10	1	-1E+10	1
4901784	184	C	07/18/2020	10:44	-132.292	42.899	0	469.90	0	5.0930	0	36.8140	8	29.108	0	465.647	0	38.5	4	12.7	4	-1E+10	1	-1E+10	1	-1E+10	1	-1E+10	1	-1E+10	1	-1E+10	1
4901784	184	C	07/18/2020	10:44	-132.292	42.899	0	472.80	0	5.0870	0	36.8150	8	29.110	0	468.517	0	37.9	4	12.5	4	-1E+10	1	-1E+10	1	-1E+10	1	-1E+10	1	-1E+10	1	-1E+10	1
4901784	184	C	07/18/2020	10:44	-132.292	42.899	0	475.60	0	5.0730	0	36.8180	8	29.114	0	471.289	0	37.3	4	12.3	4	-1E+10	1	-1E+10	1	-1E+10	1	-1E+10	1	-1E+10	1	-1E+10	1
4901784	184	C	07/18/2020	10:44	-132.292	42.899	0	478.00	0	5.0620	0	36.8200	8	29.117	0	473.664	0	36.8	4	12.2	4	-1E+10	1	-1E+10	1	-1E+10	1	-1E+10	1	-1E+10	1	-1E+10	1
4901784	184	C	07/18/2020	10:44	-132.292	42.899	0	479.90	0	5.0530	0	36.8230	8	29.120	0	475.545	0	36.4	4	12.0	4	-1E+10	1	-1E+10	1	-1E+10	1	-1E+10	1	-1E+10	1	-1E+10	1
4901784	184	C	07/18/2020	10:44	-132.292	42.899	0	482.20	0	5.0440	0	36.8250	8	29.123	0	477.822	0	35.9	4	11.9	4	-1E+10	1	-1E+10	1	-1E+10	1	-1E+10	1	-1E+10	1	-1E+10	1
4901784	184	C	07/18/2020	10:44	-132.292	42.899	0	485.40	0	5.0310	0	36.8280	8	29.127	0	480.989	0	35.3	4	11.6	4	-1E+10	1	-1E+10	1	-1E+10	1	-1E+10	1	-1E+10	1	-1E+10	1
4901784	184	C	07/18/2020	10:44	-132.292	42.899	0	487.80	0	5.0200	0	36.8310	8	29.131	0	483.364	0	34.9	4	11.5	4	-1E+10	1	-1E+10	1	-1E+10	1	-1E+10	1	-1E+10	1	-1E+10	1
4901784	184	C	07/18/2020	10:44	-132.292	42.899	0	490.20	0	5.0100	0	36.8330	8	29.133	0	485.740	0	34.4	4	11.4	4	-1E+10	1	-1E+10	1	-1E+10	1	-1E+10	1	-1E+10	1	-1E+10	1
4901784	184	C	07/18/2020	10:44	-132.292	42.899	0	492.60	0	4.9990	0	36.8360	8	29.137	0	488.115	0	34.1	4	11.2	4	-1E+10	1	-1E+10	1	-1E+10	1	-1E+10	1	-1E+10	1	-1E+10	1
4901784	184	C	07/18/2020	10:44	-132.292	42.899	0	495.10	0	4.9920	0	36.8370	8	29.139	0	490.589	0	33.8	4	11.1	4	-1E+10	1	-1E+10	1	-1E+10	1	-1E+10	1	-1E+10	1	-1E+10	1
4901784	184	C	07/18/2020	10:44	-132.292	42.899	0	497.50	0	4.9830	0	36.8390	8	29.141	0	492.964	0	33.4	4	11.0	4	-1E+10	1	-1E+10	1	-1E+10	1	-1E+10	1	-1E+10	1	-1E+10	1
4901784	184	C	07/18/2020	10:44	-132.292	42.899	0	500.00	0	4.9730	0	36.8420	8	29.145	0	495.439	0	33.1	4	10.9	4	-1E+10	1	-1E+10	1	-1E+10	1	-1E+10	1	-1E+10	1	-1E+10	1
4901784	184	C	07/18/2020	10:44	-132.292	42.899	0	505.70	0	4.9550	0	36.8460	8	29.150	0	501.080	0	32.5	4	10.7	4	-1E+10	1	-1E+10	1	-1E+10	1	-1E+10	1	-1E+10	1	-1E+10	1
4901784	184	C	07/18/2020	10:44	-132.292	42.899	0	510.70	0	4.9460	0	36.8480	8	29.153	0	506.028	0	31.9	4	10.5	4	-1E+10	1	-1E+10	1	-1E+10	1	-1E+10	1	-1E+10	1	-1E+10	1
4901784	184	C	07/18/2020	10:44	-132.292	42.899	0	515.70	0	4.9260	0	36.8510	8	29.158	0	510.976	0	31.0	4	10.2	4	-1E+10	1	-1E+10	1	-1E+10	1	-1E+10	1	-1E+10	1	-1E+10	1
4901784	184	C	07/18/2020	10:44	-132.292	42.899	0	519.90	0	4.8960	0	36.8580	8	29.167	0	515.133	0	30.5	4	10.0	4	-1E+10	1	-1E+10	1	-1E+10	1	-1E+10	1	-1E+10	1	-1E+10	1
4901784	184	C	07/18/2020	10:44	-132.292	42.899	0	524.20	0	4.8900	0	36.8590	8	29.169	0	519.388	0	30.1	4	9.9	4	-1E+10	1	-1E+10	1	-1E+10	1	-1E+10	1	-1E+10	1	-1E+10	1
4901784	184	C	07/18/2020	10:44	-132.292	42.899	0	529.30	0	4.8770	0	36.8620	8	29.173	0	524.434	0	29.6	4	9.8	4	-1E+10	1	-1E+10	1	-1E+10	1	-1E+10	1	-1E+10	1	-1E+10	1
4901784	184	C	07/18/2020	10:44	-132.292	42.899	0	534.50	0	4.8670	0	36.8620	8	29.174	0	529.580	0	28.9	4	9.5	4	-1E+10	1	-1E+10	1	-1E+10	1	-1E+10	1	-1E+10	1	-1E+10	1
4901784	184	C	07/18/2020	10:44	-132.292	42.899	0	539.80	0	4.8350	0	36.8690	8	29.183	0	534.824	0	27.9	4	9.2	4	-1E+10	1	-1E+10	1	-1E+10	1	-1E+10	1	-1E+10	1	-1E+10	1
4901784	184	C	07/18/2020	10:44	-132.292	42.899	0	545.10	0	4.8080	0	36.8770	8	29.193	0	540.069	0	27.2	4	8.9	4	-1E+10	1	-1E+10	1	-1E+10	1	-1E+10	1	-1E+10	1	-1E+10	1
4901784	184	C	07/18/2020	10:44	-132.292	42.899	0	550.50	0	4.8030	0	36.8780	8	29.194	0	545.412	0	26.7	4	8.8	4	-1E+10	1	-1E+10	1	-1E+10	1	-1E+10	1	-1E+10	1	-1E+10	1
4901784	184	C	07/18/2020	10:44	-132.292	42.899	0	555.00	0	4.7910	0	36.8820	8	29.199	0	549.864	0	26.0	4	8.5	4	-1E+10	1	-1E+10	1	-1E+10	1	-1E+10	1	-1E+10	1	-1E+10	1
4901784	184	C	07/18/2020	10:44	-132.292	42.899	0	559.40	0	4.7790	0	36.8870	8	29.205	0	554.218	0	25.2	4	8.3	4	-1E+10	1	-1E+10	1	-1E+10	1	-1E+10	1	-1E+10	1	-1E+10	1
4901784	184	C	07/18/2020	10:44	-132.292	42.899	0	564.90	0	4.7560	0	36.8930	8	29.212	0	559.659	0	24.4	4	8.0	4	-1E+10	1	-1E+10	1	-1E+10	1	-1E+10	1	-1E+10	1	-1E+10	1
4901784	184	C	07/18/2020	10:44	-132.292	42.899	0	570.30	0	4.7380	0	36.8980	8	29.218	0	565.002	0	23.6	4	7.7	4	-1E+10	1	-1E+10	1	-1E+10	1	-1E+10	1	-1E+10	1	-1E+10	1
4901784	184	C	07/18/2020	10:44	-132.292	42.899	0	575.00	0	4.7260	0	36.9010	8	29.222	0	569.652	0	22.7	4	7.4	4	-1E+10	1	-1E+10	1	-1E+10	1	-1E+10	1	-1E+10	1	-1E+10	1
4901784	184	C	07/18/2020	10:44	-132.292	42.899	0	579.60	0	4.7030	0	36.9100	8	29.232	0	574.203	0	21.7	4	7.1	4	-1E+10	1	-1E+10	1	-1E+10	1	-1E+10	1	-1E+10	1	-1E+10	1
4901784	184	C	07/18/2020	10:44	-132.292	42.899	0	585.30	0	4.6750	0	36.9200	8	29.243	0	579.842	0	20.9	4	6.8	4	-1E+10	1	-1E+10	1	-1E+10	1	-1E+10	1	-1E+10	1	-1E+10	1
4901784	184	C	07/18/2020	10:44	-132.292	42.899	0	589.90	0	4.6580	0	36.9260	8	29.250	0	584.392	0	20.5	4	6.7	4	-1E+10	1	-1E+10	1	-1E+10	1	-1E+10	1	-1E+10	1	-1E+10	1
4901784	184	C	07/18/2020	10:44	-132.292	42.899	0	594.60	0	4.6560	0	36.9280	8	29.252	0	589.042	0	20.2	4	6.6	4	-1E+10	1	-1E+10	1	-1E+10	1	-1E+10	1	-1E+10	1	-1E+10	1
4901784	184	C	07/18/2020	10:44	-132.292	42.899	0	600.20	0	4.6500	0	36.9310	8	29.255	0	594.581	0	19.6	4	6.4	4	-1E+10	1	-1E+10	1	-1E+10	1	-1E+10	1	-1E+10	1	-1E+10	1
4901784	184	C	07/18/2020	10:44	-132.292	42.899	0	604.80	0	4.6420	0	36.9350	8	29.259	0	599.132	0	19.2	4	6.3	4	-1E+10	1	-1E+10	1	-1E+10	1	-1E+10	1	-1E+10	1	-1E+10	1
4901784	184	C	07/18/2020	10:44	-132.292	42.899	0	609.50	0	4.6310	0	36.9390	8	29.264	0	603.781	0	18.7	4	6.1	4	-1E+10	1	-1E+10	1	-1E+10	1	-1E+10	1	-1E+10	1	-1E+10	1
4901784	184	C	07/18/2020	10:44	-132.292	42.899	0	615.10	0	4.6160	0	36.9450	8	29.270	0	609.320	0	18.2	4	5.9	4	-1E+10	1	-1E+10	1	-1E+10	1	-1E+10	1	-1E+10	1	-1E+10	1
4901784	184	C	07/18/2020	10:44	-132.292	42.899	0	619.80	0	4.6040	0	36.9480	8	29.274	0	613.969	0	17.7	4	5.8	4	-1E+10	1	-1E+10	1	-1E+10	1	-1E+10	1	-1E+10	1	-1E+10	1
4901784	184	C	07/18/2020	10:44	-132.292	42.899	0	624.50	0	4.5820	0	36.9530	8	29.281	0	618.618	0	17.2	4	5.6	4	-1E+10	1	-1E+10	1	-1E+10	1	-1E+10	1	-1E+10	1	-1E+10	1
4901784	184	C	07/18/2020	10:44	-132.292	42.899	0	630.00	0	4.5540	0	36.9610	8	29.290	0	624.058	0	16.7	4	5.5	4	-1E+10	1	-1E+10	1	-1E+10	1	-1E+10	1	-1E+10	1	-1E+10	1
4901784	184	C	07/18/2020	10:44	-132.292	42.899	0	635.40	0	4.5370	0	36.9650	8	29.296	0	629.399	0	16.4	4	5.4	4	-1E+10	1	-1E+10	1	-1E+10	1	-1E+10	1	-1E+10	1	-1E+10	1
4901784	184	C	07/18/2020	10:44	-132.292	42.899	0	639.90	0	4.5240	0	36.9700	8	29.301	0	633.849	0	16.2	4	5.3	4	-1E+10	1	-1E+10	1	-1E+10	1	-1E+10	1	-1E+10	1	-1E+10	1
4901784	184	C	07/18/2020	10:44	-132.292	42.899	0	644.50	0	4.5200	0	36.9710	8	29.302	0	638.399	0	16.0	4	5.2	4	-1E+10	1	-1E+10	1	-1E+10	1	-1E+10	1	-1E+10	1	-1E+10	1
4901784	184	C	07/18/2020	10:44	-132.292	42.899	0	649.90	0	4.5080	0	36.9740	8	29.306	0	643.739	0	15.7	4	5.1	4	-1E+10	1	-1E+10	1	-1E+10	1	-1E+10	1	-1E+10	1	-1E+10	1
4901784	184	C	07/18/2020	10:44	-132.292	42.899	0	655.30	0	4.4980	0	36.9790	8	29.311	0	649.080	0	15.3	4	5.0	4	-1E+10	1	-1E+10	1	-1E+10	1	-1E+10	1	-1E+10	1	-1E+10	1
4901784	184	C	07/18/2020	10:44	-132.292	42.899	0	660.70	0	4.4790	0	36.9830	8	29.317	0	654.420	0	15.0	4	4.9	4	-1E+10	1	-1E+10	1	-1E+10	1	-1E+10	1	-1E+10	1	-1E+10	1
4901784	184	C	07/18/2020	10:44	-132.292	42.899	0	665.10	0	4.4520	0	36.9860	8	29.322	0	658.771	0	14.7	4	4.8	4	-1E+10	1	-1E+10	1	-1E+10	1	-1E+10	1	-1E+10	1	-1E+10	1
4901784	184	C	07/18/2020	10:44	-132.292	42.899	0	669.70	0	4.4190	0	36.9900	8	29.329	0	663.320	0	14.5	4	4.7	4	-1E+10	1	-1E+10	1	-1E+10	1	-1E+10	1	-1E+10	1	-1E+10	1
4901784	184	C	07/18/2020	10:44	-132.292	42.899	0	675.20	0	4.3820	0	36.9970	8	29.339	0	668.759	0	14.1	4	4.6	4	-1E+10	1	-1E+10	1	-1E+10	1	-1E+10	1	-1E+10	1	-1E+10	1
4901784	184	C	07/18/2020	10:44	-132.292	42.899	0	680.60	0	4.3490	0	37.0020	8	29.347	0	674.099	0	13.8	4	4.5	4	-1E+10	1	-1E+10	1	-1E+10	1	-1E+10	1	-1E+10	1	-1E+10	1
4901784	184	C	07/18/2020	10:44	-132.292	42.899	0	685.10	0	4.3190	0	37.0070	8	29.354	0	678.548	0	13.7	4	4.5	4	-1E+10	1	-1E+10	1	-1E+10	1	-1E+10	1	-1E+10	1	-1E+10	1
4901784	184	C	07/18/2020	10:44	-132.292	42.899	0	689.60	0	4.2780	0	37.0080	8	29.360	0	682.998	0	13.7	4	4.5	4	-1E+10	1	-1E+10	1	-1E+10	1	-1E+10	1	-1E+10	1	-1E+10	1
4901784	184	C	07/18/2020	10:44	-132.292	42.899	0	695.00	0	4.2450	0	37.0110	8	29.366	0	688.337	0	13.6	4	4.4	4	-1E+10	1	-1E+10	1	-1E+10	1	-1E+10	1	-1E+10	1	-1E+10	1
4901784	184	C	07/18/2020	10:44	-132.292	42.899	0	700.30	0	4.2270	0	37.0150	8	29.371	0	693.578	0	13.4	4	4.3	4	-1E+10	1	-1E+10	1	-1E+10	1	-1E+10	1	-1E+10	1	-1E+10	1
4901784	184	C	07/18/2020	10:44	-132.292	42.899	0	704.80	0	4.2270	0	37.0190	8	29.374	0	698.027	0	13.2	4	4.3	4	-1E+10	1	-1E+10	1	-1E+10	1	-1E+10	1	-1E+10	1	-1E+10	1
4901784	184	C	07/18/2020	10:44	-132.292	42.899	0	709.30	0	4.2080	0	37.0210	8	29.378	0	702.476	0	13.1	4	4.2	4	-1E+10	1	-1E+10	1	-1E+10	1	-1E+10	1	-1E+10	1	-1E+10	1
4901784	184	C	07/18/2020	10:44	-132.292	42.899	0	714.70	0	4.2190	0	37.0260	8	29.381	0	707.815	0	12.9	4	4.2	4	-1E+10	1	-1E+10	1	-1E+10	1	-1E+10	1	-1E+10	1	-1E+10	1
4901784	184	C	07/18/2020	10:44	-132.292	42.899	0	720.10	0	4.1830	0	37.0240	8	29.383	0	713.154	0	13.0	4	4.2	4	-1E+10	1	-1E+10	1	-1E+10	1	-1E+10	1	-1E+10	1	-1E+10	1
4901784	184	C	07/18/2020	10:44	-132.292	42.899	0	725.50	0	4.1230	0	37.0260	8	29.392	0	718.493	0	12.9	4	4.2	4	-1E+10	1	-1E+10	1	-1E+10	1	-1E+10	1	-1E+10	1	-1E+10	1
4901784	184	C	07/18/2020	10:44	-132.292	42.899	0	729.90	0	4.1100	0	37.0290	8	29.396	0	722.842	0	12.8	4	4.1	4	-1E+10	1	-1E+10	1	-1E+10	1	-1E+10	1	-1E+10	1	-1E+10	1
4901784	184	C	07/18/2020	10:44	-132.292	42.899	0	734.50	0	4.0920	0	37.0300	8	29.398	0	727.390	0	12.7	4	4.1	4	-1E+10	1	-1E+10	1	-1E+10	1	-1E+10	1	-1E+10	1	-1E+10	1
4901784	184	C	07/18/2020	10:44	-132.292	42.899	0	740.00	0	4.0660	0	37.0360	8	29.406	0	732.827	0	12.6	4	4.1	4	-1E+10	1	-1E+10	1	-1E+10	1	-1E+10	1	-1E+10	1	-1E+10	1
4901784	184	C	07/18/2020	10:44	-132.292	42.899	0	745.50	0	4.0560	0	37.0400	8	29.410	0	738.264	0	12.4	4	4.0	4	-1E+10	1	-1E+10	1	-1E+10	1	-1E+10	1	-1E+10	1	-1E+10	1
4901784	184	C	07/18/2020	10:44	-132.292	42.899	0	750.10	0	4.0510	0	37.0420	8	29.413	0	742.811	0	12.3	4	4.0	4	-1E+10	1	-1E+10	1	-1E+10	1	-1E+10	1	-1E+10	1	-1E+10	1
4901784	184	C	07/18/2020	10:44	-132.292	42.899	0	754.70	0	4.0440	0	37.0450	8	29.416	0	747.358	0	12.1	4	3.9	4	-1E+10	1	-1E+10	1	-1E+10	1	-1E+10	1	-1E+10	1	-1E+10	1
4901784	184	C	07/18/2020	10:44	-132.292	42.899	0	760.30	0	4.0070	0	37.0520	8	29.426	0	752.894	0	11.9	4	3.8	4	-1E+10	1	-1E+10	1	-1E+10	1	-1E+10	1	-1E+10	1	-1E+10	1
4901784	184	C	07/18/2020	10:44	-132.292	42.899	0	764.90	0	3.9830	0	37.0580	8	29.433	0	757.441	0	11.7	4	3.8	4	-1E+10	1	-1E+10	1	-1E+10	1	-1E+10	1	-1E+10	1	-1E+10	1
4901784	184	C	07/18/2020	10:44	-132.292	42.899	0	769.60	0	3.9720	0	37.0630	8	29.438	0	762.086	0	11.6	4	3.7	4	-1E+10	1	-1E+10	1	-1E+10	1	-1E+10	1	-1E+10	1	-1E+10	1
4901784	184	C	07/18/2020	10:44	-132.292	42.899	0	775.20	0	3.9610	0	37.0670	8	29.443	0	767.621	0	11.4	4	3.7	4	-1E+10	1	-1E+10	1	-1E+10	1	-1E+10	1	-1E+10	1	-1E+10	1
4901784	184	C	07/18/2020	10:44	-132.292	42.899	0	779.80	0	3.9600	0	37.0710	8	29.446	0	772.168	0	11.2	4	3.6	4	-1E+10	1	-1E+10	1	-1E+10	1	-1E+10	1	-1E+10	1	-1E+10	1
4901784	184	C	07/18/2020	10:44	-132.292	42.899	0	784.50	0	3.9470	0	37.0750	8	29.451	0	776.813	0	11.2	4	3.6	4	-1E+10	1	-1E+10	1	-1E+10	1	-1E+10	1	-1E+10	1	-1E+10	1
4901784	184	C	07/18/2020	10:44	-132.292	42.899	0	789.80	0	3.9250	0	37.0780	8	29.455	0	782.051	0	11.1	4	3.6	4	-1E+10	1	-1E+10	1	-1E+10	1	-1E+10	1	-1E+10	1	-1E+10	1
4901784	184	C	07/18/2020	10:44	-132.292	42.899	0	795.00	0	3.8990	0	37.0800	8	29.460	0	787.190	0	11.0	4	3.6	4	-1E+10	1	-1E+10	1	-1E+10	1	-1E+10	1	-1E+10	1	-1E+10	1
4901784	184	C	07/18/2020	10:44	-132.292	42.899	0	800.60	0	3.8800	0	37.0850	8	29.466	0	792.725	0	10.9	4	3.5	4	-1E+10	1	-1E+10	1	-1E+10	1	-1E+10	1	-1E+10	1	-1E+10	1
4901784	184	C	07/18/2020	10:44	-132.292	42.899	0	805.50	0	3.8700	0	37.0880	8	29.470	0	797.567	0	10.9	4	3.5	4	-1E+10	1	-1E+10	1	-1E+10	1	-1E+10	1	-1E+10	1	-1E+10	1
4901784	184	C	07/18/2020	10:44	-132.292	42.899	0	810.30	0	3.8600	0	37.0910	8	29.473	0	802.311	0	10.8	4	3.5	4	-1E+10	1	-1E+10	1	-1E+10	1	-1E+10	1	-1E+10	1	-1E+10	1
4901784	184	C	07/18/2020	10:44	-132.292	42.899	0	815.20	0	3.8500	0	37.0940	8	29.477	0	807.153	0	10.7	4	3.4	4	-1E+10	1	-1E+10	1	-1E+10	1	-1E+10	1	-1E+10	1	-1E+10	1
4901784	184	C	07/18/2020	10:44	-132.292	42.899	0	820.20	0	3.8380	0	37.1020	8	29.484	0	812.094	0	10.5	4	3.4	4	-1E+10	1	-1E+10	1	-1E+10	1	-1E+10	1	-1E+10	1	-1E+10	1
4901784	184	C	07/18/2020	10:44	-132.292	42.899	0	825.30	0	3.8280	0	37.1070	8	29.489	0	817.133	0	10.4	4	3.4	4	-1E+10	1	-1E+10	1	-1E+10	1	-1E+10	1	-1E+10	1	-1E+10	1
4901784	184	C	07/18/2020	10:44	-132.292	42.899	0	830.30	0	3.8110	0	37.1110	8	29.494	0	822.074	0	10.4	4	3.3	4	-1E+10	1	-1E+10	1	-1E+10	1	-1E+10	1	-1E+10	1	-1E+10	1
4901784	184	C	07/18/2020	10:44	-132.292	42.899	0	835.40	0	3.7940	0	37.1150	8	29.499	0	827.113	0	10.3	4	3.3	4	-1E+10	1	-1E+10	1	-1E+10	1	-1E+10	1	-1E+10	1	-1E+10	1
4901784	184	C	07/18/2020	10:44	-132.292	42.899	0	840.60	0	3.7790	0	37.1190	8	29.504	0	832.251	0	10.2	4	3.3	4	-1E+10	1	-1E+10	1	-1E+10	1	-1E+10	1	-1E+10	1	-1E+10	1
4901784	184	C	07/18/2020	10:44	-132.292	42.899	0	844.90	0	3.7710	0	37.1230	8	29.508	0	836.500	0	10.2	4	3.3	4	-1E+10	1	-1E+10	1	-1E+10	1	-1E+10	1	-1E+10	1	-1E+10	1
4901784	184	C	07/18/2020	10:44	-132.292	42.899	0	849.30	0	3.7630	0	37.1250	8	29.511	0	840.848	0	10.2	4	3.3	4	-1E+10	1	-1E+10	1	-1E+10	1	-1E+10	1	-1E+10	1	-1E+10	1
4901784	184	C	07/18/2020	10:44	-132.292	42.899	0	854.60	0	3.7520	0	37.1270	8	29.514	0	846.084	0	10.1	4	3.3	4	-1E+10	1	-1E+10	1	-1E+10	1	-1E+10	1	-1E+10	1	-1E+10	1
4901784	184	C	07/18/2020	10:44	-132.292	42.899	0	860.60	0	3.7360	0	37.1330	8	29.520	0	852.012	0	10.1	4	3.2	4	-1E+10	1	-1E+10	1	-1E+10	1	-1E+10	1	-1E+10	1	-1E+10	1
4901784	184	C	07/18/2020	10:44	-132.292	42.899	0	865.50	0	3.7280	0	37.1350	8	29.523	0	856.853	0	10.1	4	3.2	4	-1E+10	1	-1E+10	1	-1E+10	1	-1E+10	1	-1E+10	1	-1E+10	1
4901784	184	C	07/18/2020	10:44	-132.292	42.899	0	870.20	0	3.7170	0	37.1380	8	29.526	0	861.497	0	10.0	4	3.2	4	-1E+10	1	-1E+10	1	-1E+10	1	-1E+10	1	-1E+10	1	-1E+10	1
4901784	184	C	07/18/2020	10:44	-132.292	42.899	0	875.00	0	3.7060	0	37.1410	8	29.530	0	866.239	0	10.0	4	3.2	4	-1E+10	1	-1E+10	1	-1E+10	1	-1E+10	1	-1E+10	1	-1E+10	1
4901784	184	C	07/18/2020	10:44	-132.292	42.899	0	879.70	0	3.6960	0	37.1440	8	29.533	0	870.882	0	10.0	4	3.2	4	-1E+10	1	-1E+10	1	-1E+10	1	-1E+10	1	-1E+10	1	-1E+10	1
4901784	184	C	07/18/2020	10:44	-132.292	42.899	0	884.50	0	3.6860	0	37.1470	8	29.537	0	875.624	0	10.0	4	3.2	4	-1E+10	1	-1E+10	1	-1E+10	1	-1E+10	1	-1E+10	1	-1E+10	1
4901784	184	C	07/18/2020	10:44	-132.292	42.899	0	889.30	0	3.6750	0	37.1510	8	29.541	0	880.365	0	10.0	4	3.2	4	-1E+10	1	-1E+10	1	-1E+10	1	-1E+10	1	-1E+10	1	-1E+10	1
4901784	184	C	07/18/2020	10:44	-132.292	42.899	0	894.30	0	3.6620	0	37.1540	8	29.545	0	885.304	0	10.0	4	3.2	4	-1E+10	1	-1E+10	1	-1E+10	1	-1E+10	1	-1E+10	1	-1E+10	1
4901784	184	C	07/18/2020	10:44	-132.292	42.899	0	899.20	0	3.6530	0	37.1560	8	29.548	0	890.145	0	10.0	4	3.2	4	-1E+10	1	-1E+10	1	-1E+10	1	-1E+10	1	-1E+10	1	-1E+10	1
4901784	184	C	07/18/2020	10:44	-132.292	42.899	0	904.20	0	3.6420	0	37.1600	8	29.552	0	895.084	0	10.0	4	3.2	4	-1E+10	1	-1E+10	1	-1E+10	1	-1E+10	1	-1E+10	1	-1E+10	1
4901784	184	C	07/18/2020	10:44	-132.292	42.899	0	909.30	0	3.6350	0	37.1620	8	29.554	0	900.121	0	10.0	4	3.2	4	-1E+10	1	-1E+10	1	-1E+10	1	-1E+10	1	-1E+10	1	-1E+10	1
4901784	184	C	07/18/2020	10:44	-132.292	42.899	0	914.40	0	3.6290	0	37.1650	8	29.557	0	905.159	0	10.0	4	3.2	4	-1E+10	1	-1E+10	1	-1E+10	1	-1E+10	1	-1E+10	1	-1E+10	1
4901784	184	C	07/18/2020	10:44	-132.292	42.899	0	919.50	0	3.6140	0	37.1690	8	29.562	0	910.196	0	10.0	4	3.2	4	-1E+10	1	-1E+10	1	-1E+10	1	-1E+10	1	-1E+10	1	-1E+10	1
4901784	184	C	07/18/2020	10:44	-132.292	42.899	0	924.60	0	3.6070	0	37.1700	8	29.564	0	915.233	0	10.0	4	3.2	4	-1E+10	1	-1E+10	1	-1E+10	1	-1E+10	1	-1E+10	1	-1E+10	1
4901784	184	C	07/18/2020	10:44	-132.292	42.899	0	929.70	0	3.5990	0	37.1720	8	29.566	0	920.271	0	10.0	4	3.2	4	-1E+10	1	-1E+10	1	-1E+10	1	-1E+10	1	-1E+10	1	-1E+10	1
4901784	184	C	07/18/2020	10:44	-132.292	42.899	0	935.00	0	3.5870	0	37.1750	8	29.570	0	925.505	0	10.0	4	3.2	4	-1E+10	1	-1E+10	1	-1E+10	1	-1E+10	1	-1E+10	1	-1E+10	1
4901784	184	C	07/18/2020	10:44	-132.292	42.899	0	940.30	0	3.5790	0	37.1770	8	29.573	0	930.740	0	10.0	4	3.2	4	-1E+10	1	-1E+10	1	-1E+10	1	-1E+10	1	-1E+10	1	-1E+10	1
4901784	184	C	07/18/2020	10:44	-132.292	42.899	0	945.70	0	3.5730	0	37.1790	8	29.575	0	936.073	0	10.1	4	3.2	4	-1E+10	1	-1E+10	1	-1E+10	1	-1E+10	1	-1E+10	1	-1E+10	1
4901784	184	C	07/18/2020	10:44	-132.292	42.899	0	950.20	0	3.5640	0	37.1810	8	29.577	0	940.517	0	10.1	4	3.2	4	-1E+10	1	-1E+10	1	-1E+10	1	-1E+10	1	-1E+10	1	-1E+10	1
4901784	184	C	07/18/2020	10:44	-132.292	42.899	0	954.70	0	3.5540	0	37.1840	8	29.581	0	944.961	0	10.1	4	3.2	4	-1E+10	1	-1E+10	1	-1E+10	1	-1E+10	1	-1E+10	1	-1E+10	1
4901784	184	C	07/18/2020	10:44	-132.292	42.899	0	960.10	0	3.5390	0	37.1870	8	29.585	0	950.293	0	10.2	4	3.3	4	-1E+10	1	-1E+10	1	-1E+10	1	-1E+10	1	-1E+10	1	-1E+10	1
4901784	184	C	07/18/2020	10:44	-132.292	42.899	0	964.70	0	3.5220	0	37.1910	8	29.590	0	954.836	0	10.2	4	3.3	4	-1E+10	1	-1E+10	1	-1E+10	1	-1E+10	1	-1E+10	1	-1E+10	1
4901784	184	C	07/18/2020	10:44	-132.292	42.899	0	969.30	0	3.5100	0	37.1940	8	29.594	0	959.378	0	10.3	4	3.3	4	-1E+10	1	-1E+10	1	-1E+10	1	-1E+10	1	-1E+10	1	-1E+10	1
4901784	184	C	07/18/2020	10:44	-132.292	42.899	0	974.80	0	3.4970	0	37.1970	8	29.597	0	964.809	0	10.3	4	3.3	4	-1E+10	1	-1E+10	1	-1E+10	1	-1E+10	1	-1E+10	1	-1E+10	1
4901784	184	C	07/18/2020	10:44	-132.292	42.899	0	980.40	0	3.4850	0	37.2000	8	29.601	0	970.339	0	10.4	4	3.3	4	-1E+10	1	-1E+10	1	-1E+10	1	-1E+10	1	-1E+10	1	-1E+10	1
4901784	184	C	07/18/2020	10:44	-132.292	42.899	0	985.00	0	3.4800	0	37.2020	8	29.603	0	974.881	0	10.4	4	3.3	4	-1E+10	1	-1E+10	1	-1E+10	1	-1E+10	1	-1E+10	1	-1E+10	1
4901784	184	C	07/18/2020	10:44	-132.292	42.899	0	989.70	0	3.4740	0	37.2030	8	29.605	0	979.522	0	10.4	4	3.3	4	-1E+10	1	-1E+10	1	-1E+10	1	-1E+10	1	-1E+10	1	-1E+10	1
4901784	184	C	07/18/2020	10:44	-132.292	42.899	0	995.30	0	3.4610	0	37.2060	8	29.608	0	985.051	0	10.5	4	3.4	4	-1E+10	1	-1E+10	1	-1E+10	1	-1E+10	1	-1E+10	1	-1E+10	1
4901784	184	C	07/18/2020	10:44	-132.292	42.899	0	1000.10	0	3.4460	0	37.2110	8	29.614	0	989.790	0	10.6	4	3.4	4	-1E+10	1	-1E+10	1	-1E+10	1	-1E+10	1	-1E+10	1	-1E+10	1
4901784	184	C	07/18/2020	10:44	-132.292	42.899	0	1004.80	0	3.4370	0	37.2120	8	29.616	0	994.431	0	10.6	4	3.4	4	-1E+10	1	-1E+10	1	-1E+10	1	-1E+10	1	-1E+10	1	-1E+10	1
4901784	184	C	07/18/2020	10:44	-132.292	42.899	0	1010.40	0	3.4220	0	37.2150	8	29.620	0	999.960	0	10.7	4	3.4	4	-1E+10	1	-1E+10	1	-1E+10	1	-1E+10	1	-1E+10	1	-1E+10	1
4901784	184	C	07/18/2020	10:44	-132.292	42.899	0	1015.20	0	3.4120	0	37.2180	8	29.623	0	1004.698	0	10.8	4	3.4	4	-1E+10	1	-1E+10	1	-1E+10	1	-1E+10	1	-1E+10	1	-1E+10	1
4901784	184	C	07/18/2020	10:44	-132.292	42.899	0	1019.90	0	3.3990	0	37.2210	8	29.627	0	1009.339	0	10.9	4	3.5	4	-1E+10	1	-1E+10	1	-1E+10	1	-1E+10	1	-1E+10	1	-1E+10	1
4901784	184	C	07/18/2020	10:44	-132.292	42.899	0	1025.60	0	3.3880	0	37.2230	8	29.630	0	1014.966	0	10.9	4	3.5	4	-1E+10	1	-1E+10	1	-1E+10	1	-1E+10	1	-1E+10	1	-1E+10	1
4901784	184	C	07/18/2020	10:44	-132.292	42.899	0	1030.90	0	3.3820	0	37.2250	8	29.632	0	1020.198	0	11.0	4	3.5	4	-1E+10	1	-1E+10	1	-1E+10	1	-1E+10	1	-1E+10	1	-1E+10	1
4901784	184	C	07/18/2020	10:44	-132.292	42.899	0	1035.20	0	3.3730	0	37.2270	8	29.634	0	1024.443	0	11.0	4	3.5	4	-1E+10	1	-1E+10	1	-1E+10	1	-1E+10	1	-1E+10	1	-1E+10	1
4901784	184	C	07/18/2020	10:44	-132.292	42.899	0	1040.10	0	3.3600	0	37.2290	8	29.637	0	1029.280	0	11.2	4	3.5	4	-1E+10	1	-1E+10	1	-1E+10	1	-1E+10	1	-1E+10	1	-1E+10	1
4901784	184	C	07/18/2020	10:44	-132.292	42.899	0	1045.00	0	3.3450	0	37.2330	8	29.642	0	1034.117	0	11.3	4	3.6	4	-1E+10	1	-1E+10	1	-1E+10	1	-1E+10	1	-1E+10	1	-1E+10	1
4901784	184	C	07/18/2020	10:44	-132.292	42.899	0	1049.90	0	3.3330	0	37.2360	8	29.646	0	1038.954	0	11.3	4	3.6	4	-1E+10	1	-1E+10	1	-1E+10	1	-1E+10	1	-1E+10	1	-1E+10	1
4901784	184	C	07/18/2020	10:44	-132.292	42.899	0	1054.80	0	3.3300	0	37.2370	8	29.647	0	1043.790	0	11.4	4	3.6	4	-1E+10	1	-1E+10	1	-1E+10	1	-1E+10	1	-1E+10	1	-1E+10	1
4901784	184	C	07/18/2020	10:44	-132.292	42.899	0	1059.80	0	3.3200	0	37.2390	8	29.650	0	1048.726	0	11.4	4	3.6	4	-1E+10	1	-1E+10	1	-1E+10	1	-1E+10	1	-1E+10	1	-1E+10	1
4901784	184	C	07/18/2020	10:44	-132.292	42.899	0	1064.90	0	3.3110	0	37.2410	8	29.652	0	1053.760	0	11.5	4	3.7	4	-1E+10	1	-1E+10	1	-1E+10	1	-1E+10	1	-1E+10	1	-1E+10	1
4901784	184	C	07/18/2020	10:44	-132.292	42.899	0	1069.80	0	3.3040	0	37.2420	8	29.654	0	1058.596	0	11.6	4	3.7	4	-1E+10	1	-1E+10	1	-1E+10	1	-1E+10	1	-1E+10	1	-1E+10	1
4901784	184	C	07/18/2020	10:44	-132.292	42.899	0	1074.80	0	3.2960	0	37.2440	8	29.656	0	1063.531	0	11.7	4	3.7	4	-1E+10	1	-1E+10	1	-1E+10	1	-1E+10	1	-1E+10	1	-1E+10	1
4901784	184	C	07/18/2020	10:44	-132.292	42.899	0	1079.80	0	3.2850	0	37.2470	8	29.660	0	1068.466	0	11.8	4	3.8	4	-1E+10	1	-1E+10	1	-1E+10	1	-1E+10	1	-1E+10	1	-1E+10	1
4901784	184	C	07/18/2020	10:44	-132.292	42.899	0	1084.70	0	3.2760	0	37.2480	8	29.661	0	1073.302	0	11.9	4	3.8	4	-1E+10	1	-1E+10	1	-1E+10	1	-1E+10	1	-1E+10	1	-1E+10	1
4901784	184	C	07/18/2020	10:44	-132.292	42.899	0	1089.80	0	3.2610	0	37.2510	8	29.665	0	1078.335	0	12.0	4	3.8	4	-1E+10	1	-1E+10	1	-1E+10	1	-1E+10	1	-1E+10	1	-1E+10	1
4901784	184	C	07/18/2020	10:44	-132.292	42.899	0	1094.80	0	3.2480	0	37.2540	8	29.669	0	1083.270	0	12.2	4	3.9	4	-1E+10	1	-1E+10	1	-1E+10	1	-1E+10	1	-1E+10	1	-1E+10	1
4901784	184	C	07/18/2020	10:44	-132.292	42.899	0	1099.80	0	3.2330	0	37.2570	8	29.673	0	1088.204	0	12.3	4	3.9	4	-1E+10	1	-1E+10	1	-1E+10	1	-1E+10	1	-1E+10	1	-1E+10	1
4901784	184	C	07/18/2020	10:44	-132.292	42.899	0	1104.80	0	3.2230	0	37.2600	8	29.677	0	1093.138	0	12.4	4	3.9	4	-1E+10	1	-1E+10	1	-1E+10	1	-1E+10	1	-1E+10	1	-1E+10	1
4901784	184	C	07/18/2020	10:44	-132.292	42.899	0	1109.90	0	3.2180	0	37.2600	8	29.677	0	1098.171	0	12.5	4	4.0	4	-1E+10	1	-1E+10	1	-1E+10	1	-1E+10	1	-1E+10	1	-1E+10	1
4901784	184	C	07/18/2020	10:44	-132.292	42.899	0	1115.00	0	3.2050	0	37.2630	8	29.681	0	1103.204	0	12.7	4	4.0	4	-1E+10	1	-1E+10	1	-1E+10	1	-1E+10	1	-1E+10	1	-1E+10	1
4901784	184	C	07/18/2020	10:44	-132.292	42.899	0	1120.20	0	3.1920	0	37.2660	8	29.685	0	1108.335	0	12.8	4	4.1	4	-1E+10	1	-1E+10	1	-1E+10	1	-1E+10	1	-1E+10	1	-1E+10	1
4901784	184	C	07/18/2020	10:44	-132.292	42.899	0	1125.30	0	3.1800	0	37.2680	8	29.687	0	1113.368	0	13.0	4	4.1	4	-1E+10	1	-1E+10	1	-1E+10	1	-1E+10	1	-1E+10	1	-1E+10	1
4901784	184	C	07/18/2020	10:44	-132.292	42.899	0	1129.80	0	3.1720	0	37.2700	8	29.690	0	1117.808	0	13.1	4	4.1	4	-1E+10	1	-1E+10	1	-1E+10	1	-1E+10	1	-1E+10	1	-1E+10	1
4901784	184	C	07/18/2020	10:44	-132.292	42.899	0	1134.40	0	3.1660	0	37.2710	8	29.691	0	1122.347	0	13.1	4	4.2	4	-1E+10	1	-1E+10	1	-1E+10	1	-1E+10	1	-1E+10	1	-1E+10	1
4901784	184	C	07/18/2020	10:44	-132.292	42.899	0	1140.00	0	3.1580	0	37.2730	8	29.694	0	1127.872	0	13.3	4	4.2	4	-1E+10	1	-1E+10	1	-1E+10	1	-1E+10	1	-1E+10	1	-1E+10	1
4901784	184	C	07/18/2020	10:44	-132.292	42.899	0	1145.60	0	3.1420	0	37.2760	8	29.698	0	1133.398	0	13.5	4	4.3	4	-1E+10	1	-1E+10	1	-1E+10	1	-1E+10	1	-1E+10	1	-1E+10	1
4901784	184	C	07/18/2020	10:44	-132.292	42.899	0	1150.30	0	3.1320	0	37.2780	8	29.700	0	1138.035	0	13.6	4	4.3	4	-1E+10	1	-1E+10	1	-1E+10	1	-1E+10	1	-1E+10	1	-1E+10	1
4901784	184	C	07/18/2020	10:44	-132.292	42.899	0	1155.00	0	3.1230	0	37.2800	8	29.703	0	1142.672	0	13.7	4	4.3	4	-1E+10	1	-1E+10	1	-1E+10	1	-1E+10	1	-1E+10	1	-1E+10	1
4901784	184	C	07/18/2020	10:44	-132.292	42.899	0	1159.70	0	3.1150	0	37.2810	8	29.705	0	1147.309	0	13.9	4	4.4	4	-1E+10	1	-1E+10	1	-1E+10	1	-1E+10	1	-1E+10	1	-1E+10	1
4901784	184	C	07/18/2020	10:44	-132.292	42.899	0	1164.40	0	3.1060	0	37.2830	8	29.707	0	1151.946	0	14.0	4	4.4	4	-1E+10	1	-1E+10	1	-1E+10	1	-1E+10	1	-1E+10	1	-1E+10	1
4901784	184	C	07/18/2020	10:44	-132.292	42.899	0	1170.20	0	3.0920	0	37.2860	8	29.711	0	1157.668	0	14.2	4	4.5	4	-1E+10	1	-1E+10	1	-1E+10	1	-1E+10	1	-1E+10	1	-1E+10	1
4901784	184	C	07/18/2020	10:44	-132.292	42.899	0	1174.90	0	3.0820	0	37.2880	8	29.713	0	1162.304	0	14.3	4	4.5	4	-1E+10	1	-1E+10	1	-1E+10	1	-1E+10	1	-1E+10	1	-1E+10	1
4901784	184	C	07/18/2020	10:44	-132.292	42.899	0	1179.20	0	3.0750	0	37.2890	8	29.715	0	1166.546	0	14.5	4	4.6	4	-1E+10	1	-1E+10	1	-1E+10	1	-1E+10	1	-1E+10	1	-1E+10	1
4901784	184	C	07/18/2020	10:44	-132.292	42.899	0	1184.50	0	3.0620	0	37.2920	8	29.719	0	1171.775	0	14.7	4	4.6	4	-1E+10	1	-1E+10	1	-1E+10	1	-1E+10	1	-1E+10	1	-1E+10	1
4901784	184	C	07/18/2020	10:44	-132.292	42.899	0	1189.40	0	3.0500	0	37.2930	8	29.721	0	1176.608	0	14.8	4	4.7	4	-1E+10	1	-1E+10	1	-1E+10	1	-1E+10	1	-1E+10	1	-1E+10	1
4901784	184	C	07/18/2020	10:44	-132.292	42.899	0	1194.40	0	3.0400	0	37.2960	8	29.724	0	1181.541	0	15.0	4	4.8	4	-1E+10	1	-1E+10	1	-1E+10	1	-1E+10	1	-1E+10	1	-1E+10	1
4901784	184	C	07/18/2020	10:44	-132.292	42.899	0	1199.30	0	3.0370	0	37.2980	8	29.726	0	1186.374	0	15.2	4	4.8	4	-1E+10	1	-1E+10	1	-1E+10	1	-1E+10	1	-1E+10	1	-1E+10	1
4901784	184	C	07/18/2020	10:44	-132.292	42.899	0	1204.30	0	3.0260	0	37.3000	8	29.729	0	1191.306	0	15.3	4	4.8	4	-1E+10	1	-1E+10	1	-1E+10	1	-1E+10	1	-1E+10	1	-1E+10	1
4901784	184	C	07/18/2020	10:44	-132.292	42.899	0	1209.30	0	3.0200	0	37.3010	8	29.730	0	1196.238	0	15.3	4	4.8	4	-1E+10	1	-1E+10	1	-1E+10	1	-1E+10	1	-1E+10	1	-1E+10	1
4901784	184	C	07/18/2020	10:44	-132.292	42.899	0	1214.40	0	3.0170	0	37.3010	8	29.731	0	1201.268	0	15.4	4	4.9	4	-1E+10	1	-1E+10	1	-1E+10	1	-1E+10	1	-1E+10	1	-1E+10	1
4901784	184	C	07/18/2020	10:44	-132.292	42.899	0	1219.50	0	3.0100	0	37.3030	8	29.733	0	1206.298	0	15.6	4	4.9	4	-1E+10	1	-1E+10	1	-1E+10	1	-1E+10	1	-1E+10	1	-1E+10	1
4901784	184	C	07/18/2020	10:44	-132.292	42.899	0	1224.60	0	3.0030	0	37.3040	8	29.734	0	1211.329	0	15.7	4	5.0	4	-1E+10	1	-1E+10	1	-1E+10	1	-1E+10	1	-1E+10	1	-1E+10	1
4901784	184	C	07/18/2020	10:44	-132.292	42.899	0	1229.80	0	2.9930	0	37.3060	8	29.737	0	1216.457	0	15.9	4	5.0	4	-1E+10	1	-1E+10	1	-1E+10	1	-1E+10	1	-1E+10	1	-1E+10	1
4901784	184	C	07/18/2020	10:44	-132.292	42.899	0	1234.90	0	2.9860	0	37.3070	8	29.739	0	1221.487	0	16.0	4	5.1	4	-1E+10	1	-1E+10	1	-1E+10	1	-1E+10	1	-1E+10	1	-1E+10	1
4901784	184	C	07/18/2020	10:44	-132.292	42.899	0	1240.20	0	2.9780	0	37.3090	8	29.741	0	1226.714	0	16.1	4	5.1	4	-1E+10	1	-1E+10	1	-1E+10	1	-1E+10	1	-1E+10	1	-1E+10	1
4901784	184	C	07/18/2020	10:44	-132.292	42.899	0	1245.30	0	2.9670	0	37.3110	8	29.744	0	1231.744	0	16.3	4	5.1	4	-1E+10	1	-1E+10	1	-1E+10	1	-1E+10	1	-1E+10	1	-1E+10	1
4901784	184	C	07/18/2020	10:44	-132.292	42.899	0	1250.10	0	2.9600	0	37.3120	8	29.745	0	1236.477	0	16.4	4	5.2	4	-1E+10	1	-1E+10	1	-1E+10	1	-1E+10	1	-1E+10	1	-1E+10	1
4901784	184	C	07/18/2020	10:44	-132.292	42.899	0	1254.90	0	2.9540	0	37.3130	8	29.747	0	1241.211	0	16.5	4	5.2	4	-1E+10	1	-1E+10	1	-1E+10	1	-1E+10	1	-1E+10	1	-1E+10	1
4901784	184	C	07/18/2020	10:44	-132.292	42.899	0	1259.80	0	2.9490	0	37.3140	8	29.748	0	1246.043	0	16.6	4	5.2	4	-1E+10	1	-1E+10	1	-1E+10	1	-1E+10	1	-1E+10	1	-1E+10	1
4901784	184	C	07/18/2020	10:44	-132.292	42.899	0	1264.70	0	2.9390	0	37.3160	8	29.751	0	1250.875	0	16.7	4	5.3	4	-1E+10	1	-1E+10	1	-1E+10	1	-1E+10	1	-1E+10	1	-1E+10	1
4901784	184	C	07/18/2020	10:44	-132.292	42.899	0	1269.70	0	2.9290	0	37.3170	8	29.752	0	1255.805	0	16.9	4	5.3	4	-1E+10	1	-1E+10	1	-1E+10	1	-1E+10	1	-1E+10	1	-1E+10	1
4901784	184	C	07/18/2020	10:44	-132.292	42.899	0	1274.60	0	2.9180	0	37.3170	8	29.753	0	1260.637	0	17.0	4	5.4	4	-1E+10	1	-1E+10	1	-1E+10	1	-1E+10	1	-1E+10	1	-1E+10	1
4901784	184	C	07/18/2020	10:44	-132.292	42.899	0	1279.60	0	2.8990	0	37.3210	8	29.759	0	1265.567	0	17.2	4	5.4	4	-1E+10	1	-1E+10	1	-1E+10	1	-1E+10	1	-1E+10	1	-1E+10	1
4901784	184	C	07/18/2020	10:44	-132.292	42.899	0	1284.60	0	2.8910	0	37.3220	8	29.760	0	1270.497	0	17.5	4	5.5	4	-1E+10	1	-1E+10	1	-1E+10	1	-1E+10	1	-1E+10	1	-1E+10	1
4901784	184	C	07/18/2020	10:44	-132.292	42.899	0	1289.70	0	2.8840	0	37.3240	8	29.762	0	1275.526	0	17.7	4	5.6	4	-1E+10	1	-1E+10	1	-1E+10	1	-1E+10	1	-1E+10	1	-1E+10	1
4901784	184	C	07/18/2020	10:44	-132.292	42.899	0	1294.90	0	2.8790	0	37.3250	8	29.764	0	1280.653	0	17.9	4	5.6	4	-1E+10	1	-1E+10	1	-1E+10	1	-1E+10	1	-1E+10	1	-1E+10	1
4901784	184	C	07/18/2020	10:44	-132.292	42.899	0	1300.00	0	2.8680	0	37.3270	8	29.766	0	1285.681	0	18.1	4	5.7	4	-1E+10	1	-1E+10	1	-1E+10	1	-1E+10	1	-1E+10	1	-1E+10	1
4901784	184	C	07/18/2020	10:44	-132.292	42.899	0	1305.10	0	2.8600	0	37.3290	8	29.769	0	1290.709	0	18.2	4	5.7	4	-1E+10	1	-1E+10	1	-1E+10	1	-1E+10	1	-1E+10	1	-1E+10	1
4901784	184	C	07/18/2020	10:44	-132.292	42.899	0	1310.40	0	2.8510	0	37.3300	8	29.771	0	1295.935	0	18.3	4	5.7	4	-1E+10	1	-1E+10	1	-1E+10	1	-1E+10	1	-1E+10	1	-1E+10	1
4901784	184	C	07/18/2020	10:44	-132.292	42.899	0	1314.80	0	2.8470	0	37.3310	8	29.772	0	1300.273	0	18.4	4	5.8	4	-1E+10	1	-1E+10	1	-1E+10	1	-1E+10	1	-1E+10	1	-1E+10	1
4901784	184	C	07/18/2020	10:44	-132.292	42.899	0	1319.30	0	2.8420	0	37.3320	8	29.773	0	1304.709	0	18.5	4	5.8	4	-1E+10	1	-1E+10	1	-1E+10	1	-1E+10	1	-1E+10	1	-1E+10	1
4901784	184	C	07/18/2020	10:44	-132.292	42.899	0	1324.50	0	2.8340	0	37.3330	8	29.775	0	1309.835	0	18.7	4	5.9	4	-1E+10	1	-1E+10	1	-1E+10	1	-1E+10	1	-1E+10	1	-1E+10	1
4901784	184	C	07/18/2020	10:44	-132.292	42.899	0	1329.90	0	2.8290	0	37.3340	8	29.776	0	1315.159	0	18.8	4	5.9	4	-1E+10	1	-1E+10	1	-1E+10	1	-1E+10	1	-1E+10	1	-1E+10	1
4901784	184	C	07/18/2020	10:44	-132.292	42.899	0	1335.30	0	2.8230	0	37.3350	8	29.777	0	1320.482	0	19.0	4	6.0	4	-1E+10	1	-1E+10	1	-1E+10	1	-1E+10	1	-1E+10	1	-1E+10	1
4901784	184	C	07/18/2020	10:44	-132.292	42.899	0	1339.80	0	2.8170	0	37.3370	8	29.780	0	1324.918	0	19.1	4	6.0	4	-1E+10	1	-1E+10	1	-1E+10	1	-1E+10	1	-1E+10	1	-1E+10	1
4901784	184	C	07/18/2020	10:44	-132.292	42.899	0	1344.40	0	2.8150	0	37.3370	8	29.780	0	1329.452	0	19.3	4	6.1	4	-1E+10	1	-1E+10	1	-1E+10	1	-1E+10	1	-1E+10	1	-1E+10	1
4901784	184	C	07/18/2020	10:44	-132.292	42.899	0	1350.40	0	2.7980	0	37.3400	8	29.784	0	1335.367	0	19.6	4	6.2	4	-1E+10	1	-1E+10	1	-1E+10	1	-1E+10	1	-1E+10	1	-1E+10	1
4901784	184	C	07/18/2020	10:44	-132.292	42.899	0	1355.40	0	2.7890	0	37.3410	8	29.786	0	1340.295	0	19.8	4	6.2	4	-1E+10	1	-1E+10	1	-1E+10	1	-1E+10	1	-1E+10	1	-1E+10	1
4901784	184	C	07/18/2020	10:44	-132.292	42.899	0	1360.10	0	2.7810	0	37.3430	8	29.788	0	1344.928	0	20.0	4	6.3	4	-1E+10	1	-1E+10	1	-1E+10	1	-1E+10	1	-1E+10	1	-1E+10	1
4901784	184	C	07/18/2020	10:44	-132.292	42.899	0	1364.90	0	2.7720	0	37.3440	8	29.790	0	1349.659	0	20.2	4	6.3	4	-1E+10	1	-1E+10	1	-1E+10	1	-1E+10	1	-1E+10	1	-1E+10	1
4901784	184	C	07/18/2020	10:44	-132.292	42.899	0	1369.60	0	2.7640	0	37.3460	8	29.792	0	1354.291	0	20.4	4	6.4	4	-1E+10	1	-1E+10	1	-1E+10	1	-1E+10	1	-1E+10	1	-1E+10	1
4901784	184	C	07/18/2020	10:44	-132.292	42.899	0	1374.40	0	2.7580	0	37.3470	8	29.794	0	1359.022	0	20.6	4	6.5	4	-1E+10	1	-1E+10	1	-1E+10	1	-1E+10	1	-1E+10	1	-1E+10	1
4901784	184	C	07/18/2020	10:44	-132.292	42.899	0	1379.30	0	2.7470	0	37.3480	8	29.795	0	1363.851	0	20.9	4	6.6	4	-1E+10	1	-1E+10	1	-1E+10	1	-1E+10	1	-1E+10	1	-1E+10	1
4901784	184	C	07/18/2020	10:44	-132.292	42.899	0	1384.20	0	2.7320	0	37.3510	8	29.799	0	1368.681	0	21.2	4	6.7	4	-1E+10	1	-1E+10	1	-1E+10	1	-1E+10	1	-1E+10	1	-1E+10	1
4901784	184	C	07/18/2020	10:44	-132.292	42.899	0	1389.20	0	2.7230	0	37.3520	8	29.801	0	1373.608	0	21.4	4	6.7	4	-1E+10	1	-1E+10	1	-1E+10	1	-1E+10	1	-1E+10	1	-1E+10	1
4901784	184	C	07/18/2020	10:44	-132.292	42.899	0	1394.30	0	2.7160	0	37.3540	8	29.803	0	1378.634	0	21.6	4	6.8	4	-1E+10	1	-1E+10	1	-1E+10	1	-1E+10	1	-1E+10	1	-1E+10	1
4901784	184	C	07/18/2020	10:44	-132.292	42.899	0	1399.30	0	2.7110	0	37.3540	8	29.804	0	1383.562	0	21.8	4	6.8	4	-1E+10	1	-1E+10	1	-1E+10	1	-1E+10	1	-1E+10	1	-1E+10	1
4901784	184	C	07/18/2020	10:44	-132.292	42.899	0	1404.40	0	2.6990	0	37.3560	8	29.806	0	1388.588	0	22.0	4	6.9	4	-1E+10	1	-1E+10	1	-1E+10	1	-1E+10	1	-1E+10	1	-1E+10	1
4901784	184	C	07/18/2020	10:44	-132.292	42.899	0	1409.40	0	2.6910	0	37.3570	8	29.808	0	1393.515	0	22.2	4	7.0	4	-1E+10	1	-1E+10	1	-1E+10	1	-1E+10	1	-1E+10	1	-1E+10	1
4901784	184	C	07/18/2020	10:44	-132.292	42.899	0	1414.50	0	2.6850	0	37.3580	8	29.809	0	1398.540	0	22.4	4	7.0	4	-1E+10	1	-1E+10	1	-1E+10	1	-1E+10	1	-1E+10	1	-1E+10	1
4901784	184	C	07/18/2020	10:44	-132.292	42.899	0	1419.70	0	2.6720	0	37.3600	8	29.812	0	1403.664	0	22.7	4	7.1	4	-1E+10	1	-1E+10	1	-1E+10	1	-1E+10	1	-1E+10	1	-1E+10	1
4901784	184	C	07/18/2020	10:44	-132.292	42.899	0	1424.80	0	2.6620	0	37.3620	8	29.815	0	1408.690	0	23.0	4	7.2	4	-1E+10	1	-1E+10	1	-1E+10	1	-1E+10	1	-1E+10	1	-1E+10	1
4901784	184	C	07/18/2020	10:44	-132.292	42.899	0	1430.00	0	2.6540	0	37.3630	8	29.816	0	1413.814	0	23.2	4	7.3	4	-1E+10	1	-1E+10	1	-1E+10	1	-1E+10	1	-1E+10	1	-1E+10	1
4901784	184	C	07/18/2020	10:44	-132.292	42.899	0	1435.10	0	2.6450	0	37.3650	8	29.819	0	1418.839	0	23.5	4	7.3	4	-1E+10	1	-1E+10	1	-1E+10	1	-1E+10	1	-1E+10	1	-1E+10	1
4901784	184	C	07/18/2020	10:44	-132.292	42.899	0	1440.30	0	2.6390	0	37.3660	8	29.820	0	1423.962	0	23.7	4	7.4	4	-1E+10	1	-1E+10	1	-1E+10	1	-1E+10	1	-1E+10	1	-1E+10	1
4901784	184	C	07/18/2020	10:44	-132.292	42.899	0	1445.60	0	2.6310	0	37.3670	8	29.822	0	1429.184	0	24.0	4	7.5	4	-1E+10	1	-1E+10	1	-1E+10	1	-1E+10	1	-1E+10	1	-1E+10	1
4901784	184	C	07/18/2020	10:44	-132.292	42.899	0	1449.90	0	2.6200	0	37.3690	8	29.825	0	1433.421	0	24.3	4	7.6	4	-1E+10	1	-1E+10	1	-1E+10	1	-1E+10	1	-1E+10	1	-1E+10	1
4901784	184	C	07/18/2020	10:44	-132.292	42.899	0	1454.30	0	2.6100	0	37.3700	8	29.826	0	1437.756	0	24.6	4	7.7	4	-1E+10	1	-1E+10	1	-1E+10	1	-1E+10	1	-1E+10	1	-1E+10	1
4901784	184	C	07/18/2020	10:44	-132.292	42.899	0	1459.60	0	2.5970	0	37.3720	8	29.829	0	1442.978	0	25.0	4	7.8	4	-1E+10	1	-1E+10	1	-1E+10	1	-1E+10	1	-1E+10	1	-1E+10	1
4901784	184	C	07/18/2020	10:44	-132.292	42.899	0	1464.90	0	2.5840	0	37.3740	8	29.832	0	1448.199	0	25.3	4	7.9	4	-1E+10	1	-1E+10	1	-1E+10	1	-1E+10	1	-1E+10	1	-1E+10	1
4901784	184	C	07/18/2020	10:44	-132.292	42.899	0	1470.20	0	2.5770	0	37.3750	8	29.834	0	1453.420	0	25.6	4	8.0	4	-1E+10	1	-1E+10	1	-1E+10	1	-1E+10	1	-1E+10	1	-1E+10	1
4901784	184	C	07/18/2020	10:44	-132.292	42.899	0	1475.50	0	2.5620	0	37.3770	8	29.837	0	1458.642	0	26.0	4	8.1	4	-1E+10	1	-1E+10	1	-1E+10	1	-1E+10	1	-1E+10	1	-1E+10	1
4901784	184	C	07/18/2020	10:44	-132.292	42.899	0	1479.90	0	2.5520	0	37.3790	8	29.839	0	1462.976	0	26.3	4	8.2	4	-1E+10	1	-1E+10	1	-1E+10	1	-1E+10	1	-1E+10	1	-1E+10	1
4901784	184	C	07/18/2020	10:44	-132.292	42.899	0	1484.40	0	2.5420	0	37.3800	8	29.841	0	1467.409	0	26.5	4	8.3	4	-1E+10	1	-1E+10	1	-1E+10	1	-1E+10	1	-1E+10	1	-1E+10	1
4901784	184	C	07/18/2020	10:44	-132.292	42.899	0	1489.70	0	2.5330	0	37.3810	8	29.843	0	1472.630	0	26.8	4	8.4	4	-1E+10	1	-1E+10	1	-1E+10	1	-1E+10	1	-1E+10	1	-1E+10	1
4901784	184	C	07/18/2020	10:44	-132.292	42.899	0	1495.10	0	2.5250	0	37.3830	8	29.845	0	1477.949	0	27.1	4	8.5	4	-1E+10	1	-1E+10	1	-1E+10	1	-1E+10	1	-1E+10	1	-1E+10	1
4901784	184	C	07/18/2020	10:44	-132.292	42.899	0	1500.40	0	2.5180	0	37.3840	8	29.846	0	1483.170	0	27.4	4	8.5	4	-1E+10	1	-1E+10	1	-1E+10	1	-1E+10	1	-1E+10	1	-1E+10	1
4901784	184	C	07/18/2020	10:44	-132.292	42.899	0	1505.00	0	2.5090	0	37.3850	8	29.848	0	1487.701	0	27.6	4	8.6	4	-1E+10	1	-1E+10	1	-1E+10	1	-1E+10	1	-1E+10	1	-1E+10	1
4901784	184	C	07/18/2020	10:44	-132.292	42.899	0	1509.40	0	2.5060	0	37.3860	8	29.849	0	1492.035	0	27.7	4	8.6	4	-1E+10	1	-1E+10	1	-1E+10	1	-1E+10	1	-1E+10	1	-1E+10	1
4901784	184	C	07/18/2020	10:44	-132.292	42.899	0	1514.80	0	2.5000	0	37.3870	8	29.851	0	1497.354	0	28.0	4	8.7	4	-1E+10	1	-1E+10	1	-1E+10	1	-1E+10	1	-1E+10	1	-1E+10	1
4901784	184	C	07/18/2020	10:44	-132.292	42.899	0	1520.10	0	2.4920	0	37.3880	8	29.852	0	1502.574	0	28.3	4	8.8	4	-1E+10	1	-1E+10	1	-1E+10	1	-1E+10	1	-1E+10	1	-1E+10	1
4901784	184	C	07/18/2020	10:44	-132.292	42.899	0	1525.50	0	2.4870	0	37.3900	8	29.854	0	1507.892	0	28.4	4	8.9	4	-1E+10	1	-1E+10	1	-1E+10	1	-1E+10	1	-1E+10	1	-1E+10	1
4901784	184	C	07/18/2020	10:44	-132.292	42.899	0	1530.10	0	2.4820	0	37.3900	8	29.855	0	1512.423	0	28.6	4	8.9	4	-1E+10	1	-1E+10	1	-1E+10	1	-1E+10	1	-1E+10	1	-1E+10	1
4901784	184	C	07/18/2020	10:44	-132.292	42.899	0	1534.60	0	2.4760	0	37.3910	8	29.856	0	1516.854	0	28.9	4	9.0	4	-1E+10	1	-1E+10	1	-1E+10	1	-1E+10	1	-1E+10	1	-1E+10	1
4901784	184	C	07/18/2020	10:44	-132.292	42.899	0	1540.00	0	2.4680	0	37.3920	8	29.858	0	1522.173	0	29.2	4	9.1	4	-1E+10	1	-1E+10	1	-1E+10	1	-1E+10	1	-1E+10	1	-1E+10	1
4901784	184	C	07/18/2020	10:44	-132.292	42.899	0	1545.40	0	2.4590	0	37.3940	8	29.860	0	1527.491	0	29.5	4	9.2	4	-1E+10	1	-1E+10	1	-1E+10	1	-1E+10	1	-1E+10	1	-1E+10	1
4901784	184	C	07/18/2020	10:44	-132.292	42.899	0	1549.90	0	2.4510	0	37.3950	8	29.862	0	1531.922	0	29.8	4	9.3	4	-1E+10	1	-1E+10	1	-1E+10	1	-1E+10	1	-1E+10	1	-1E+10	1
4901784	184	C	07/18/2020	10:44	-132.292	42.899	0	1554.40	0	2.4450	0	37.3960	8	29.863	0	1536.354	0	30.1	4	9.4	4	-1E+10	1	-1E+10	1	-1E+10	1	-1E+10	1	-1E+10	1	-1E+10	1
4901784	184	C	07/18/2020	10:44	-132.292	42.899	0	1559.70	0	2.4360	0	37.3970	8	29.865	0	1541.573	0	30.5	4	9.5	4	-1E+10	1	-1E+10	1	-1E+10	1	-1E+10	1	-1E+10	1	-1E+10	1
4901784	184	C	07/18/2020	10:44	-132.292	42.899	0	1565.10	0	2.4230	0	37.3990	8	29.868	0	1546.890	0	31.0	4	9.6	4	-1E+10	1	-1E+10	1	-1E+10	1	-1E+10	1	-1E+10	1	-1E+10	1
4901784	184	C	07/18/2020	10:44	-132.292	42.899	0	1570.40	0	2.4090	0	37.4010	8	29.870	0	1552.109	0	31.4	4	9.8	4	-1E+10	1	-1E+10	1	-1E+10	1	-1E+10	1	-1E+10	1	-1E+10	1
4901784	184	C	07/18/2020	10:44	-132.292	42.899	0	1574.80	0	2.4040	0	37.4020	8	29.872	0	1556.442	0	31.7	4	9.9	4	-1E+10	1	-1E+10	1	-1E+10	1	-1E+10	1	-1E+10	1	-1E+10	1
4901784	184	C	07/18/2020	10:44	-132.292	42.899	0	1579.30	0	2.3930	0	37.4030	8	29.874	0	1560.873	0	32.1	4	10.0	4	-1E+10	1	-1E+10	1	-1E+10	1	-1E+10	1	-1E+10	1	-1E+10	1
4901784	184	C	07/18/2020	10:44	-132.292	42.899	0	1584.70	0	2.3830	0	37.4050	8	29.876	0	1566.190	0	32.5	4	10.1	4	-1E+10	1	-1E+10	1	-1E+10	1	-1E+10	1	-1E+10	1	-1E+10	1
4901784	184	C	07/18/2020	10:44	-132.292	42.899	0	1590.10	0	2.3720	0	37.4070	8	29.879	0	1571.507	0	32.8	4	10.2	4	-1E+10	1	-1E+10	1	-1E+10	1	-1E+10	1	-1E+10	1	-1E+10	1
4901784	184	C	07/18/2020	10:44	-132.292	42.899	0	1595.50	0	2.3680	0	37.4070	8	29.879	0	1576.823	0	33.1	4	10.3	4	-1E+10	1	-1E+10	1	-1E+10	1	-1E+10	1	-1E+10	1	-1E+10	1
4901784	184	C	07/18/2020	10:44	-132.292	42.899	0	1600.00	0	2.3580	0	37.4090	8	29.882	0	1581.254	0	33.6	4	10.4	4	-1E+10	1	-1E+10	1	-1E+10	1	-1E+10	1	-1E+10	1	-1E+10	1
4901784	184	C	07/18/2020	10:44	-132.292	42.899	0	1604.50	0	2.3500	0	37.4100	8	29.883	0	1585.684	0	33.9	4	10.5	4	-1E+10	1	-1E+10	1	-1E+10	1	-1E+10	1	-1E+10	1	-1E+10	1
4901784	184	C	07/18/2020	10:44	-132.292	42.899	0	1609.90	0	2.3400	0	37.4120	8	29.886	0	1591.001	0	34.5	4	10.7	4	-1E+10	1	-1E+10	1	-1E+10	1	-1E+10	1	-1E+10	1	-1E+10	1
4901784	184	C	07/18/2020	10:44	-132.292	42.899	0	1615.30	0	2.3300	0	37.4130	8	29.887	0	1596.317	0	34.9	4	10.8	4	-1E+10	1	-1E+10	1	-1E+10	1	-1E+10	1	-1E+10	1	-1E+10	1
4901784	184	C	07/18/2020	10:44	-132.292	42.899	0	1619.80	0	2.3220	0	37.4150	8	29.890	0	1600.747	0	35.3	4	11.0	4	-1E+10	1	-1E+10	1	-1E+10	1	-1E+10	1	-1E+10	1	-1E+10	1
4901784	184	C	07/18/2020	10:44	-132.292	42.899	0	1624.40	0	2.3110	0	37.4160	8	29.892	0	1605.276	0	35.7	4	11.1	4	-1E+10	1	-1E+10	1	-1E+10	1	-1E+10	1	-1E+10	1	-1E+10	1
4901784	184	C	07/18/2020	10:44	-132.292	42.899	0	1629.90	0	2.3030	0	37.4170	8	29.893	0	1610.690	0	36.0	4	11.2	4	-1E+10	1	-1E+10	1	-1E+10	1	-1E+10	1	-1E+10	1	-1E+10	1
4901784	184	C	07/18/2020	10:44	-132.292	42.899	0	1635.40	0	2.2980	0	37.4180	8	29.894	0	1616.104	0	36.3	4	11.3	4	-1E+10	1	-1E+10	1	-1E+10	1	-1E+10	1	-1E+10	1	-1E+10	1
4901784	184	C	07/18/2020	10:44	-132.292	42.899	0	1639.90	0	2.2900	0	37.4200	8	29.897	0	1620.534	0	36.6	4	11.4	4	-1E+10	1	-1E+10	1	-1E+10	1	-1E+10	1	-1E+10	1	-1E+10	1
4901784	184	C	07/18/2020	10:44	-132.292	42.899	0	1645.20	0	2.2840	0	37.4210	8	29.898	0	1625.751	0	36.9	4	11.5	4	-1E+10	1	-1E+10	1	-1E+10	1	-1E+10	1	-1E+10	1	-1E+10	1
4901784	184	C	07/18/2020	10:44	-132.292	42.899	0	1650.20	0	2.2760	0	37.4220	8	29.900	0	1630.673	0	37.3	4	11.6	4	-1E+10	1	-1E+10	1	-1E+10	1	-1E+10	1	-1E+10	1	-1E+10	1
4901784	184	C	07/18/2020	10:44	-132.292	42.899	0	1655.10	0	2.2700	0	37.4230	8	29.901	0	1635.496	0	37.6	4	11.7	4	-1E+10	1	-1E+10	1	-1E+10	1	-1E+10	1	-1E+10	1	-1E+10	1
4901784	184	C	07/18/2020	10:44	-132.292	42.899	0	1660.00	0	2.2650	0	37.4230	8	29.902	0	1640.319	0	38.0	4	11.8	4	-1E+10	1	-1E+10	1	-1E+10	1	-1E+10	1	-1E+10	1	-1E+10	1
4901784	184	C	07/18/2020	10:44	-132.292	42.899	0	1664.90	0	2.2530	0	37.4250	8	29.904	0	1645.142	0	38.6	4	12.0	4	-1E+10	1	-1E+10	1	-1E+10	1	-1E+10	1	-1E+10	1	-1E+10	1
4901784	184	C	07/18/2020	10:44	-132.292	42.899	0	1669.80	0	2.2420	0	37.4270	8	29.907	0	1649.964	0	39.0	4	12.1	4	-1E+10	1	-1E+10	1	-1E+10	1	-1E+10	1	-1E+10	1	-1E+10	1
4901784	184	C	07/18/2020	10:44	-132.292	42.899	0	1674.70	0	2.2320	0	37.4290	8	29.909	0	1654.787	0	39.4	4	12.2	4	-1E+10	1	-1E+10	1	-1E+10	1	-1E+10	1	-1E+10	1	-1E+10	1
4901784	184	C	07/18/2020	10:44	-132.292	42.899	0	1679.70	0	2.2270	0	37.4300	8	29.911	0	1659.708	0	39.6	4	12.3	4	-1E+10	1	-1E+10	1	-1E+10	1	-1E+10	1	-1E+10	1	-1E+10	1
4901784	184	C	07/18/2020	10:44	-132.292	42.899	0	1684.70	0	2.2210	0	37.4310	8	29.912	0	1664.629	0	40.0	4	12.4	4	-1E+10	1	-1E+10	1	-1E+10	1	-1E+10	1	-1E+10	1	-1E+10	1
4901784	184	C	07/18/2020	10:44	-132.292	42.899	0	1689.70	0	2.2120	0	37.4320	8	29.914	0	1669.550	0	40.5	4	12.5	4	-1E+10	1	-1E+10	1	-1E+10	1	-1E+10	1	-1E+10	1	-1E+10	1
4901784	184	C	07/18/2020	10:44	-132.292	42.899	0	1694.80	0	2.2040	0	37.4340	8	29.916	0	1674.569	0	40.9	4	12.7	4	-1E+10	1	-1E+10	1	-1E+10	1	-1E+10	1	-1E+10	1	-1E+10	1
4901784	184	C	07/18/2020	10:44	-132.292	42.899	0	1699.90	0	2.1970	0	37.4350	8	29.917	0	1679.588	0	41.2	4	12.8	4	-1E+10	1	-1E+10	1	-1E+10	1	-1E+10	1	-1E+10	1	-1E+10	1
4901784	184	C	07/18/2020	10:44	-132.292	42.899	0	1704.90	0	2.1910	0	37.4370	8	29.920	0	1684.508	0	41.5	4	12.8	4	-1E+10	1	-1E+10	1	-1E+10	1	-1E+10	1	-1E+10	1	-1E+10	1
4901784	184	C	07/18/2020	10:44	-132.292	42.899	0	1710.10	0	2.1880	0	37.4370	8	29.920	0	1689.625	0	41.7	4	12.9	4	-1E+10	1	-1E+10	1	-1E+10	1	-1E+10	1	-1E+10	1	-1E+10	1
4901784	184	C	07/18/2020	10:44	-132.292	42.899	0	1715.20	0	2.1850	0	37.4380	8	29.921	0	1694.644	0	42.1	4	13.0	4	-1E+10	1	-1E+10	1	-1E+10	1	-1E+10	1	-1E+10	1	-1E+10	1
4901784	184	C	07/18/2020	10:44	-132.292	42.899	0	1720.40	0	2.1770	0	37.4400	8	29.923	0	1699.761	0	42.5	4	13.1	4	-1E+10	1	-1E+10	1	-1E+10	1	-1E+10	1	-1E+10	1	-1E+10	1
4901784	184	C	07/18/2020	10:44	-132.292	42.899	0	1725.60	0	2.1710	0	37.4400	8	29.924	0	1704.877	0	42.9	4	13.3	4	-1E+10	1	-1E+10	1	-1E+10	1	-1E+10	1	-1E+10	1	-1E+10	1
4901784	184	C	07/18/2020	10:44	-132.292	42.899	0	1730.00	0	2.1630	0	37.4420	8	29.926	0	1709.207	0	43.2	4	13.4	4	-1E+10	1	-1E+10	1	-1E+10	1	-1E+10	1	-1E+10	1	-1E+10	1
4901784	184	C	07/18/2020	10:44	-132.292	42.899	0	1734.30	0	2.1570	0	37.4430	8	29.928	0	1713.438	0	43.6	4	13.5	4	-1E+10	1	-1E+10	1	-1E+10	1	-1E+10	1	-1E+10	1	-1E+10	1
4901784	184	C	07/18/2020	10:44	-132.292	42.899	0	1739.60	0	2.1520	0	37.4440	8	29.929	0	1718.653	0	43.8	4	13.6	4	-1E+10	1	-1E+10	1	-1E+10	1	-1E+10	1	-1E+10	1	-1E+10	1
4901784	184	C	07/18/2020	10:44	-132.292	42.899	0	1744.90	0	2.1470	0	37.4450	8	29.930	0	1723.867	0	44.0	4	13.6	4	-1E+10	1	-1E+10	1	-1E+10	1	-1E+10	1	-1E+10	1	-1E+10	1
4901784	184	C	07/18/2020	10:44	-132.292	42.899	0	1750.20	0	2.1440	0	37.4450	8	29.930	0	1729.082	0	44.3	4	13.7	4	-1E+10	1	-1E+10	1	-1E+10	1	-1E+10	1	-1E+10	1	-1E+10	1
4901784	184	C	07/18/2020	10:44	-132.292	42.899	0	1755.60	0	2.1400	0	37.4460	8	29.932	0	1734.395	0	44.6	4	13.8	4	-1E+10	1	-1E+10	1	-1E+10	1	-1E+10	1	-1E+10	1	-1E+10	1
4901784	184	C	07/18/2020	10:44	-132.292	42.899	0	1760.10	0	2.1340	0	37.4470	8	29.933	0	1738.822	0	44.9	4	13.9	4	-1E+10	1	-1E+10	1	-1E+10	1	-1E+10	1	-1E+10	1	-1E+10	1
4901784	184	C	07/18/2020	10:44	-132.292	42.899	0	1764.60	0	2.1300	0	37.4480	8	29.934	0	1743.249	0	45.2	4	14.0	4	-1E+10	1	-1E+10	1	-1E+10	1	-1E+10	1	-1E+10	1	-1E+10	1
4901784	184	C	07/18/2020	10:44	-132.292	42.899	0	1770.10	0	2.1240	0	37.4490	8	29.936	0	1748.660	0	45.6	4	14.1	4	-1E+10	1	-1E+10	1	-1E+10	1	-1E+10	1	-1E+10	1	-1E+10	1
4901784	184	C	07/18/2020	10:44	-132.292	42.899	0	1775.60	0	2.1170	0	37.4510	8	29.938	0	1754.070	0	46.1	4	14.3	4	-1E+10	1	-1E+10	1	-1E+10	1	-1E+10	1	-1E+10	1	-1E+10	1
4901784	184	C	07/18/2020	10:44	-132.292	42.899	0	1780.20	0	2.1110	0	37.4520	8	29.939	0	1758.596	0	46.5	4	14.4	4	-1E+10	1	-1E+10	1	-1E+10	1	-1E+10	1	-1E+10	1	-1E+10	1
4901784	184	C	07/18/2020	10:44	-132.292	42.899	0	1784.80	0	2.1080	0	37.4530	8	29.940	0	1763.121	0	46.9	4	14.5	4	-1E+10	1	-1E+10	1	-1E+10	1	-1E+10	1	-1E+10	1	-1E+10	1
4901784	184	C	07/18/2020	10:44	-132.292	42.899	0	1790.50	0	2.1080	0	37.4550	8	29.942	0	1768.728	0	47.5	4	14.7	4	-1E+10	1	-1E+10	1	-1E+10	1	-1E+10	1	-1E+10	1	-1E+10	1
4901784	184	C	07/18/2020	10:44	-132.292	42.899	0	1794.60	0	2.1070	0	37.4560	8	29.943	0	1772.761	0	47.9	4	14.8	4	-1E+10	1	-1E+10	1	-1E+10	1	-1E+10	1	-1E+10	1	-1E+10	1
4901784	184	C	07/18/2020	10:44	-132.292	42.899	0	1799.50	0	2.1030	0	37.4570	8	29.944	0	1777.581	0	48.2	4	14.9	4	-1E+10	1	-1E+10	1	-1E+10	1	-1E+10	1	-1E+10	1	-1E+10	1
4901784	184	C	07/18/2020	10:44	-132.292	42.899	0	1804.50	0	2.1000	0	37.4580	8	29.945	0	1782.499	0	48.5	4	15.0	4	-1E+10	1	-1E+10	1	-1E+10	1	-1E+10	1	-1E+10	1	-1E+10	1
4901784	184	C	07/18/2020	10:44	-132.292	42.899	0	1809.40	0	2.0920	0	37.4590	8	29.947	0	1787.318	0	48.9	4	15.1	4	-1E+10	1	-1E+10	1	-1E+10	1	-1E+10	1	-1E+10	1	-1E+10	1
4901784	184	C	07/18/2020	10:44	-132.292	42.899	0	1814.40	0	2.0840	0	37.4600	8	29.948	0	1792.236	0	49.2	4	15.2	4	-1E+10	1	-1E+10	1	-1E+10	1	-1E+10	1	-1E+10	1	-1E+10	1
4901784	184	C	07/18/2020	10:44	-132.292	42.899	0	1819.30	0	2.0820	0	37.4610	8	29.949	0	1797.056	0	49.5	4	15.3	4	-1E+10	1	-1E+10	1	-1E+10	1	-1E+10	1	-1E+10	1	-1E+10	1
4901784	184	C	07/18/2020	10:44	-132.292	42.899	0	1824.30	0	2.0750	0	37.4620	8	29.951	0	1801.973	0	49.7	4	15.4	4	-1E+10	1	-1E+10	1	-1E+10	1	-1E+10	1	-1E+10	1	-1E+10	1
4901784	184	C	07/18/2020	10:44	-132.292	42.899	0	1829.30	0	2.0670	0	37.4620	8	29.951	0	1806.891	0	50.1	4	15.5	4	-1E+10	1	-1E+10	1	-1E+10	1	-1E+10	1	-1E+10	1	-1E+10	1
4901784	184	C	07/18/2020	10:44	-132.292	42.899	0	1834.40	0	2.0580	0	37.4630	8	29.953	0	1811.907	0	50.4	4	15.6	4	-1E+10	1	-1E+10	1	-1E+10	1	-1E+10	1	-1E+10	1	-1E+10	1
4901784	184	C	07/18/2020	10:44	-132.292	42.899	0	1839.50	0	2.0500	0	37.4640	8	29.954	0	1816.922	0	50.7	4	15.6	4	-1E+10	1	-1E+10	1	-1E+10	1	-1E+10	1	-1E+10	1	-1E+10	1
4901784	184	C	07/18/2020	10:44	-132.292	42.899	0	1844.60	0	2.0450	0	37.4640	8	29.955	0	1821.938	0	50.9	4	15.7	4	-1E+10	1	-1E+10	1	-1E+10	1	-1E+10	1	-1E+10	1	-1E+10	1
4901784	184	C	07/18/2020	10:44	-132.292	42.899	0	1849.80	0	2.0380	0	37.4650	8	29.956	0	1827.052	0	51.3	4	15.8	4	-1E+10	1	-1E+10	1	-1E+10	1	-1E+10	1	-1E+10	1	-1E+10	1
4901784	184	C	07/18/2020	10:44	-132.292	42.899	0	1855.10	0	2.0280	0	37.4670	8	29.959	0	1832.264	0	51.8	4	16.0	4	-1E+10	1	-1E+10	1	-1E+10	1	-1E+10	1	-1E+10	1	-1E+10	1
4901784	184	C	07/18/2020	10:44	-132.292	42.899	0	1860.30	0	2.0280	0	37.4680	8	29.960	0	1837.377	0	52.3	4	16.1	4	-1E+10	1	-1E+10	1	-1E+10	1	-1E+10	1	-1E+10	1	-1E+10	1
4901784	184	C	07/18/2020	10:44	-132.292	42.899	0	1865.70	0	2.0230	0	37.4700	8	29.962	0	1842.687	0	52.7	4	16.2	4	-1E+10	1	-1E+10	1	-1E+10	1	-1E+10	1	-1E+10	1	-1E+10	1
4901784	184	C	07/18/2020	10:44	-132.292	42.899	0	1870.20	0	2.0180	0	37.4700	8	29.962	0	1847.112	0	52.9	4	16.3	4	-1E+10	1	-1E+10	1	-1E+10	1	-1E+10	1	-1E+10	1	-1E+10	1
4901784	184	C	07/18/2020	10:44	-132.292	42.899	0	1874.60	0	2.0150	0	37.4710	8	29.963	0	1851.439	0	53.1	4	16.4	4	-1E+10	1	-1E+10	1	-1E+10	1	-1E+10	1	-1E+10	1	-1E+10	1
4901784	184	C	07/18/2020	10:44	-132.292	42.899	0	1880.00	0	2.0070	0	37.4710	8	29.964	0	1856.749	0	53.4	4	16.5	4	-1E+10	1	-1E+10	1	-1E+10	1	-1E+10	1	-1E+10	1	-1E+10	1
4901784	184	C	07/18/2020	10:44	-132.292	42.899	0	1885.40	0	2.0030	0	37.4720	8	29.965	0	1862.058	0	53.8	4	16.6	4	-1E+10	1	-1E+10	1	-1E+10	1	-1E+10	1	-1E+10	1	-1E+10	1
4901784	184	C	07/18/2020	10:44	-132.292	42.899	0	1890.00	0	1.9960	0	37.4730	8	29.967	0	1866.581	0	54.2	4	16.7	4	-1E+10	1	-1E+10	1	-1E+10	1	-1E+10	1	-1E+10	1	-1E+10	1
4901784	184	C	07/18/2020	10:44	-132.292	42.899	0	1895.20	0	1.9910	0	37.4740	8	29.968	0	1871.694	0	54.5	4	16.8	4	-1E+10	1	-1E+10	1	-1E+10	1	-1E+10	1	-1E+10	1	-1E+10	1
4901784	184	C	07/18/2020	10:44	-132.292	42.899	0	1900.30	0	1.9860	0	37.4750	8	29.969	0	1876.708	0	54.8	4	16.9	4	-1E+10	1	-1E+10	1	-1E+10	1	-1E+10	1	-1E+10	1	-1E+10	1
4901784	184	C	07/18/2020	10:44	-132.292	42.899	0	1905.30	0	1.9820	0	37.4760	8	29.970	0	1881.624	0	55.1	4	17.0	4	-1E+10	1	-1E+10	1	-1E+10	1	-1E+10	1	-1E+10	1	-1E+10	1
4901784	184	C	07/18/2020	10:44	-132.292	42.899	0	1910.20	0	1.9790	0	37.4770	8	29.971	0	1886.441	0	55.3	4	17.0	4	-1E+10	1	-1E+10	1	-1E+10	1	-1E+10	1	-1E+10	1	-1E+10	1
4901784	184	C	07/18/2020	10:44	-132.292	42.899	0	1915.10	0	1.9780	0	37.4770	8	29.972	0	1891.259	0	55.6	4	17.1	4	-1E+10	1	-1E+10	1	-1E+10	1	-1E+10	1	-1E+10	1	-1E+10	1
4901784	184	C	07/18/2020	10:44	-132.292	42.899	0	1920.10	0	1.9760	0	37.4780	8	29.973	0	1896.174	0	55.8	4	17.2	4	-1E+10	1	-1E+10	1	-1E+10	1	-1E+10	1	-1E+10	1	-1E+10	1
4901784	184	C	07/18/2020	10:44	-132.292	42.899	0	1925.10	0	1.9710	0	37.4790	8	29.974	0	1901.089	0	56.1	4	17.3	4	-1E+10	1	-1E+10	1	-1E+10	1	-1E+10	1	-1E+10	1	-1E+10	1
4901784	184	C	07/18/2020	10:44	-132.292	42.899	0	1930.20	0	1.9670	0	37.4790	8	29.974	0	1906.103	0	56.4	4	17.4	4	-1E+10	1	-1E+10	1	-1E+10	1	-1E+10	1	-1E+10	1	-1E+10	1
4901784	184	C	07/18/2020	10:44	-132.292	42.899	0	1935.30	0	1.9610	0	37.4800	8	29.976	0	1911.117	0	56.7	4	17.5	4	-1E+10	1	-1E+10	1	-1E+10	1	-1E+10	1	-1E+10	1	-1E+10	1
4901784	184	C	07/18/2020	10:44	-132.292	42.899	0	1940.40	0	1.9570	0	37.4810	8	29.977	0	1916.130	0	57.0	4	17.6	4	-1E+10	1	-1E+10	1	-1E+10	1	-1E+10	1	-1E+10	1	-1E+10	1
4901784	184	C	07/18/2020	10:44	-132.292	42.899	0	1945.60	0	1.9510	0	37.4820	8	29.978	0	1921.241	0	57.4	4	17.7	4	-1E+10	1	-1E+10	1	-1E+10	1	-1E+10	1	-1E+10	1	-1E+10	1
4901784	184	C	07/18/2020	10:44	-132.292	42.899	0	1949.90	0	1.9470	0	37.4830	8	29.979	0	1925.468	0	57.6	4	17.7	4	-1E+10	1	-1E+10	1	-1E+10	1	-1E+10	1	-1E+10	1	-1E+10	1
4901784	184	C	07/18/2020	10:44	-132.292	42.899	0	1954.30	0	1.9450	0	37.4830	8	29.979	0	1929.793	0	57.9	4	17.8	4	-1E+10	1	-1E+10	1	-1E+10	1	-1E+10	1	-1E+10	1	-1E+10	1
4901784	184	C	07/18/2020	10:44	-132.292	42.899	0	1959.60	0	1.9410	0	37.4830	8	29.980	0	1935.003	0	58.4	4	18.0	4	-1E+10	1	-1E+10	1	-1E+10	1	-1E+10	1	-1E+10	1	-1E+10	1
4901784	184	C	07/18/2020	10:44	-132.292	42.899	0	1964.80	0	1.9380	0	37.4850	8	29.982	0	1940.114	0	58.8	4	18.1	4	-1E+10	1	-1E+10	1	-1E+10	1	-1E+10	1	-1E+10	1	-1E+10	1
4901784	184	C	07/18/2020	10:44	-132.292	42.899	0	1970.10	0	1.9380	0	37.4860	8	29.983	0	1945.323	0	59.2	4	18.2	4	-1E+10	1	-1E+10	1	-1E+10	1	-1E+10	1	-1E+10	1	-1E+10	1
4901784	184	C	07/18/2020	10:44	-132.292	42.899	0	1975.40	0	1.9370	0	37.4870	8	29.983	0	1950.532	0	59.7	4	18.4	4	-1E+10	1	-1E+10	1	-1E+10	1	-1E+10	1	-1E+10	1	-1E+10	1
4901784	184	C	07/18/2020	10:44	-132.292	42.899	0	1979.90	0	1.9360	0	37.4870	8	29.984	0	1954.955	0	59.9	4	18.4	4	-1E+10	1	-1E+10	1	-1E+10	1	-1E+10	1	-1E+10	1	-1E+10	1
4901784	184	C	07/18/2020	10:44	-132.292	42.899	0	1984.40	0	1.9330	0	37.4880	8	29.985	0	1959.377	0	60.1	4	18.5	4	-1E+10	1	-1E+10	1	-1E+10	1	-1E+10	1	-1E+10	1	-1E+10	1
4901784	184	C	07/18/2020	10:44	-132.292	42.899	0	1990.00	0	1.9300	0	37.4880	8	29.985	0	1964.881	0	60.4	4	18.6	4	-1E+10	1	-1E+10	1	-1E+10	1	-1E+10	1	-1E+10	1	-1E+10	1
4901784	184	C	07/18/2020	10:44	-132.292	42.899	0	1995.00	0	1.9250	0	37.4900	8	29.987	0	1969.795	0	60.7	4	18.7	4	-1E+10	1	-1E+10	1	-1E+10	1	-1E+10	1	-1E+10	1	-1E+10	1
4901784	184	C	07/18/2020	10:44	-132.292	42.899	0	1999.70	0	1.9230	0	37.4900	8	29.987	0	1974.413	0	60.8	4	18.7	4	-1E+10	1	-1E+10	1	-1E+10	1	-1E+10	1	-1E+10	1	-1E+10	1
4901784	184	C	07/18/2020	10:44	-132.292	42.899	0	2004.50	0	1.9210	0	37.4900	8	29.987	0	1979.131	0	61.1	4	18.8	4	-1E+10	1	-1E+10	1	-1E+10	1	-1E+10	1	-1E+10	1	-1E+10	1
4901784	184	C	07/18/2020	10:44	-132.292	42.899	0	2010.10	0	1.9160	0	37.4910	8	29.989	0	1984.634	0	61.4	4	18.9	4	-1E+10	1	-1E+10	1	-1E+10	1	-1E+10	1	-1E+10	1	-1E+10	1
4901784	184	C	07/18/2020	10:44	-132.292	42.899	0	2015.70	0	1.9130	0	37.4920	8	29.990	0	1990.136	0	61.7	4	19.0	4	-1E+10	1	-1E+10	1	-1E+10	1	-1E+10	1	-1E+10	1	-1E+10	1
4901784	184	C	07/18/2020	10:44	-132.292	42.899	0	2020.40	0	1.9090	0	37.4920	8	29.990	0	1994.755	0	61.9	4	19.0	4	-1E+10	1	-1E+10	1	-1E+10	1	-1E+10	1	-1E+10	1	-1E+10	1
4901784	184	C	07/18/2020	10:44	-132.292	42.899	0																										
4901784	185	C	07/28/2020	10:46	-132.356	42.917	0	2.20	0	17.7320	0	35.1330	8	25.441	0	2.183	0	228.3	4	97.2	4	-1E+10	1	-1E+10	1	-1E+10	1	-1E+10	1	-1E+10	1	-1E+10	1
4901784	185	C	07/28/2020	10:46	-132.356	42.917	0	3.80	0	17.7340	0	35.1320	8	25.440	0	3.770	0	228.2	4	97.1	4	-1E+10	1	-1E+10	1	-1E+10	1	-1E+10	1	-1E+10	1	-1E+10	1
4901784	185	C	07/28/2020	10:46	-132.356	42.917	0	5.50	0	17.7330	0	35.1320	8	25.440	0	5.456	0	228.3	4	97.2	4	-1E+10	1	-1E+10	1	-1E+10	1	-1E+10	1	-1E+10	1	-1E+10	1
4901784	185	C	07/28/2020	10:46	-132.356	42.917	0	7.30	0	17.7310	0	35.1290	8	25.438	0	7.242	0	228.2	4	97.1	4	-1E+10	1	-1E+10	1	-1E+10	1	-1E+10	1	-1E+10	1	-1E+10	1
4901784	185	C	07/28/2020	10:46	-132.356	42.917	0	9.00	0	17.7120	0	35.1290	8	25.443	0	8.928	0	228.3	4	97.1	4	-1E+10	1	-1E+10	1	-1E+10	1	-1E+10	1	-1E+10	1	-1E+10	1
4901784	185	C	07/28/2020	10:46	-132.356	42.917	0	11.00	0	17.5660	0	35.1330	8	25.482	0	10.913	0	228.7	4	97.0	4	-1E+10	1	-1E+10	1	-1E+10	1	-1E+10	1	-1E+10	1	-1E+10	1
4901784	185	C	07/28/2020	10:46	-132.356	42.917	0	11.60	0	17.5530	0	35.1310	8	25.483	0	11.508	0	228.9	4	97.1	4	-1E+10	1	-1E+10	1	-1E+10	1	-1E+10	1	-1E+10	1	-1E+10	1
4901784	185	C	07/28/2020	10:46	-132.356	42.917	0	13.10	0	17.5460	0	35.1270	8	25.482	0	12.996	0	229.1	4	97.2	4	-1E+10	1	-1E+10	1	-1E+10	1	-1E+10	1	-1E+10	1	-1E+10	1
4901784	185	C	07/28/2020	10:46	-132.356	42.917	0	14.60	0	17.5320	0	35.1220	8	25.482	0	14.484	0	229.4	4	97.3	4	-1E+10	1	-1E+10	1	-1E+10	1	-1E+10	1	-1E+10	1	-1E+10	1
4901784	185	C	07/28/2020	10:46	-132.356	42.917	0	16.10	0	17.4860	0	35.1180	8	25.490	0	15.972	0	230.0	4	97.4	4	-1E+10	1	-1E+10	1	-1E+10	1	-1E+10	1	-1E+10	1	-1E+10	1
4901784	185	C	07/28/2020	10:46	-132.356	42.917	0	17.60	0	17.3990	0	35.1100	8	25.505	0	17.460	0	230.8	4	97.6	4	-1E+10	1	-1E+10	1	-1E+10	1	-1E+10	1	-1E+10	1	-1E+10	1
4901784	185	C	07/28/2020	10:46	-132.356	42.917	0	19.10	0	17.1960	0	35.1020	8	25.547	0	18.948	0	232.3	4	97.9	4	-1E+10	1	-1E+10	1	-1E+10	1	-1E+10	1	-1E+10	1	-1E+10	1
4901784	185	C	07/28/2020	10:46	-132.356	42.917	0	20.60	0	16.7960	0	35.0870	8	25.631	0	20.436	0	234.9	4	98.2	4	-1E+10	1	-1E+10	1	-1E+10	1	-1E+10	1	-1E+10	1	-1E+10	1
4901784	185	C	07/28/2020	10:46	-132.356	42.917	0	22.10	0	16.4690	0	35.0740	8	25.698	0	21.924	0	237.5	4	98.7	4	-1E+10	1	-1E+10	1	-1E+10	1	-1E+10	1	-1E+10	1	-1E+10	1
4901784	185	C	07/28/2020	10:46	-132.356	42.917	0	23.70	0	16.3110	0	35.0460	8	25.713	0	23.511	0	238.7	4	98.9	4	-1E+10	1	-1E+10	1	-1E+10	1	-1E+10	1	-1E+10	1	-1E+10	1
4901784	185	C	07/28/2020	10:46	-132.356	42.917	0	25.30	0	15.9230	0	35.0130	8	25.777	0	25.098	0	241.0	4	99.1	4	-1E+10	1	-1E+10	1	-1E+10	1	-1E+10	1	-1E+10	1	-1E+10	1
4901784	185	C	07/28/2020	10:46	-132.356	42.917	0	26.90	0	15.4390	0	34.9690	8	25.852	0	26.685	0	243.4	4	99.1	4	-1E+10	1	-1E+10	1	-1E+10	1	-1E+10	1	-1E+10	1	-1E+10	1
4901784	185	C	07/28/2020	10:46	-132.356	42.917	0	28.60	0	15.2260	0	34.9560	8	25.890	0	28.371	0	244.8	4	99.2	4	-1E+10	1	-1E+10	1	-1E+10	1	-1E+10	1	-1E+10	1	-1E+10	1
4901784	185	C	07/28/2020	10:46	-132.356	42.917	0	30.30	0	15.0130	0	34.9510	8	25.933	0	30.058	0	246.3	4	99.4	4	-1E+10	1	-1E+10	1	-1E+10	1	-1E+10	1	-1E+10	1	-1E+10	1
4901784	185	C	07/28/2020	10:46	-132.356	42.917	0	32.00	0	14.8700	0	34.9510	8	25.964	0	31.744	0	247.8	4	99.7	4	-1E+10	1	-1E+10	1	-1E+10	1	-1E+10	1	-1E+10	1	-1E+10	1
4901784	185	C	07/28/2020	10:46	-132.356	42.917	0	33.60	0	14.8310	0	34.9460	8	25.969	0	33.331	0	248.7	4	100.0	4	-1E+10	1	-1E+10	1	-1E+10	1	-1E+10	1	-1E+10	1	-1E+10	1
4901784	185	C	07/28/2020	10:46	-132.356	42.917	0	35.30	0	14.7560	0	34.9460	8	25.986	0	35.017	0	250.1	4	100.4	4	-1E+10	1	-1E+10	1	-1E+10	1	-1E+10	1	-1E+10	1	-1E+10	1
4901784	185	C	07/28/2020	10:46	-132.356	42.917	0	37.00	0	14.5620	0	34.9610	8	26.039	0	36.703	0	252.8	4	101.1	4	-1E+10	1	-1E+10	1	-1E+10	1	-1E+10	1	-1E+10	1	-1E+10	1
4901784	185	C	07/28/2020	10:46	-132.356	42.917	0	38.70	0	14.6000	0	35.0210	8	26.077	0	38.390	0	254.4	4	101.9	4	-1E+10	1	-1E+10	1	-1E+10	1	-1E+10	1	-1E+10	1	-1E+10	1
4901784	185	C	07/28/2020	10:46	-132.356	42.917	0	41.10	0	13.8500	0	35.1650	8	26.348	0	40.770	0	258.7	4	102.2	4	-1E+10	1	-1E+10	1	-1E+10	1	-1E+10	1	-1E+10	1	-1E+10	1
4901784	185	C	07/28/2020	10:46	-132.356	42.917	0	42.80	0	13.6960	0	35.1520	8	26.370	0	42.456	0	261.1	4	102.8	4	-1E+10	1	-1E+10	1	-1E+10	1	-1E+10	1	-1E+10	1	-1E+10	1
4901784	185	C	07/28/2020	10:46	-132.356	42.917	0	44.40	0	13.4430	0	35.1510	8	26.422	0	44.043	0	262.8	4	102.9	4	-1E+10	1	-1E+10	1	-1E+10	1	-1E+10	1	-1E+10	1	-1E+10	1
4901784	185	C	07/28/2020	10:46	-132.356	42.917	0	45.80	0	13.3360	0	35.1400	8	26.435	0	45.432	0	264.1	4	103.2	4	-1E+10	1	-1E+10	1	-1E+10	1	-1E+10	1	-1E+10	1	-1E+10	1
4901784	185	C	07/28/2020	10:46	-132.356	42.917	0	47.30	0	13.0860	0	35.1090	8	26.462	0	46.920	0	266.3	4	103.5	4	-1E+10	1	-1E+10	1	-1E+10	1	-1E+10	1	-1E+10	1	-1E+10	1
4901784	185	C	07/28/2020	10:46	-132.356	42.917	0	48.90	0	12.7470	0	35.1020	8	26.524	0	48.507	0	268.8	4	103.7	4	-1E+10	1	-1E+10	1	-1E+10	1	-1E+10	1	-1E+10	1	-1E+10	1
4901784	185	C	07/28/2020	10:46	-132.356	42.917	0	50.40	0	12.3820	0	35.1070	8	26.600	0	49.994	0	271.0	4	103.8	4	-1E+10	1	-1E+10	1	-1E+10	1	-1E+10	1	-1E+10	1	-1E+10	1
4901784	185	C	07/28/2020	10:46	-132.356	42.917	0	52.10	0	12.2630	0	35.1240	8	26.637	0	51.680	0	271.9	4	103.9	4	-1E+10	1	-1E+10	1	-1E+10	1	-1E+10	1	-1E+10	1	-1E+10	1
4901784	185	C	07/28/2020	10:46	-132.356	42.917	0	53.70	0	12.0710	0	35.1610	8	26.702	0	53.267	0	272.6	4	103.8	4	-1E+10	1	-1E+10	1	-1E+10	1	-1E+10	1	-1E+10	1	-1E+10	1
4901784	185	C	07/28/2020	10:46	-132.356	42.917	0	55.40	0	11.8870	0	35.1740	8	26.748	0	54.953	0	272.3	4	103.3	4	-1E+10	1	-1E+10	1	-1E+10	1	-1E+10	1	-1E+10	1	-1E+10	1
4901784	185	C	07/28/2020	10:46	-132.356	42.917	0	57.10	0	11.7880	0	35.1870	8	26.777	0	56.640	0	271.4	4	102.8	4	-1E+10	1	-1E+10	1	-1E+10	1	-1E+10	1	-1E+10	1	-1E+10	1
4901784	185	C	07/28/2020	10:46	-132.356	42.917	0	58.70	0	11.4810	0	35.2270	8	26.866	0	58.226	0	271.8	4	102.3	4	-1E+10	1	-1E+10	1	-1E+10	1	-1E+10	1	-1E+10	1	-1E+10	1
4901784	185	C	07/28/2020	10:46	-132.356	42.917	0	60.40	0	11.4640	0	35.2220	8	26.865	0	59.912	0	270.1	4	101.6	4	-1E+10	1	-1E+10	1	-1E+10	1	-1E+10	1	-1E+10	1	-1E+10	1
4901784	185	C	07/28/2020	10:46	-132.356	42.917	0	62.10	0	11.4000	0	35.2190	8	26.875	0	61.598	0	268.1	4	100.7	4	-1E+10	1	-1E+10	1	-1E+10	1	-1E+10	1	-1E+10	1	-1E+10	1
4901784	185	C	07/28/2020	10:46	-132.356	42.917	0	63.80	0	11.2400	0	35.2220	8	26.907	0	63.284	0	265.5	4	99.4	4	-1E+10	1	-1E+10	1	-1E+10	1	-1E+10	1	-1E+10	1	-1E+10	1
4901784	185	C	07/28/2020	10:46	-132.356	42.917	0	65.60	0	10.9730	0	35.2510	8	26.978	0	65.070	0	263.3	4	98.1	4	-1E+10	1	-1E+10	1	-1E+10	1	-1E+10	1	-1E+10	1	-1E+10	1
4901784	185	C	07/28/2020	10:46	-132.356	42.917	0	67.40	0	10.8670	0	35.2570	8	27.002	0	66.855	0	260.9	4	97.0	4	-1E+10	1	-1E+10	1	-1E+10	1	-1E+10	1	-1E+10	1	-1E+10	1
4901784	185	C	07/28/2020	10:46	-132.356	42.917	0	69.20	0	10.8000	0	35.2680	8	27.023	0	68.640	0	258.2	4	95.8	4	-1E+10	1	-1E+10	1	-1E+10	1	-1E+10	1	-1E+10	1	-1E+10	1
4901784	185	C	07/28/2020	10:46	-132.356	42.917	0	71.00	0	10.7460	0	35.2750	8	27.038	0	70.425	0	255.3	4	94.7	4	-1E+10	1	-1E+10	1	-1E+10	1	-1E+10	1	-1E+10	1	-1E+10	1
4901784	185	C	07/28/2020	10:46	-132.356	42.917	0	72.70	0	10.7120	0	35.2800	8	27.048	0	72.111	0	252.3	4	93.5	4	-1E+10	1	-1E+10	1	-1E+10	1	-1E+10	1	-1E+10	1	-1E+10	1
4901784	185	C	07/28/2020	10:46	-132.356	42.917	0	74.40	0	10.5640	0	35.3070	8	27.095	0	73.797	0	249.4	4	92.1	4	-1E+10	1	-1E+10	1	-1E+10	1	-1E+10	1	-1E+10	1	-1E+10	1
4901784	185	C	07/28/2020	10:46	-132.356	42.917	0	76.10	0	10.4860	0	35.3260	8	27.124	0	75.483	0	248.2	4	91.5	4	-1E+10	1	-1E+10	1	-1E+10	1	-1E+10	1	-1E+10	1	-1E+10	1
4901784	185	C	07/28/2020	10:46	-132.356	42.917	0	77.80	0	10.4640	0	35.3280	8	27.129	0	77.169	0	247.2	4	91.1	4	-1E+10	1	-1E+10	1	-1E+10	1	-1E+10	1	-1E+10	1	-1E+10	1
4901784	185	C	07/28/2020	10:46	-132.356	42.917	0	79.60	0	10.4550	0	35.3280	8	27.131	0	78.954	0	245.7	4	90.6	4	-1E+10	1	-1E+10	1	-1E+10	1	-1E+10	1	-1E+10	1	-1E+10	1
4901784	185	C	07/28/2020	10:46	-132.356	42.917	0	81.80	0	10.4550	0	35.3250	8	27.129	0	81.136	0	243.2	4	89.6	4	-1E+10	1	-1E+10	1	-1E+10	1	-1E+10	1	-1E+10	1	-1E+10	1
4901784	185	C	07/28/2020	10:46	-132.356	42.917	0	83.50	0	10.4530	0	35.3190	8	27.124	0	82.821	0	239.8	4	88.4	4	-1E+10	1	-1E+10	1	-1E+10	1	-1E+10	1	-1E+10	1	-1E+10	1
4901784	185	C	07/28/2020	10:46	-132.356	42.917	0	85.00	0	10.3320	0	35.3510	8	27.171	0	84.309	0	236.2	4	86.9	4	-1E+10	1	-1E+10	1	-1E+10	1	-1E+10	1	-1E+10	1	-1E+10	1
4901784	185	C	07/28/2020	10:46	-132.356	42.917	0	86.50	0	10.3080	0	35.3600	8	27.182	0	85.796	0	233.5	4	85.8	4	-1E+10	1	-1E+10	1	-1E+10	1	-1E+10	1	-1E+10	1	-1E+10	1
4901784	185	C	07/28/2020	10:46	-132.356	42.917	0	88.00	0	10.1680	0	35.3730	8	27.217	0	87.284	0	231.0	4	84.7	4	-1E+10	1	-1E+10	1	-1E+10	1	-1E+10	1	-1E+10	1	-1E+10	1
4901784	185	C	07/28/2020	10:46	-132.356	42.917	0	89.40	0	10.0340	0	35.3910	8	27.254	0	88.672	0	229.4	4	83.8	4	-1E+10	1	-1E+10	1	-1E+10	1	-1E+10	1	-1E+10	1	-1E+10	1
4901784	185	C	07/28/2020	10:46	-132.356	42.917	0	90.90	0	10.0090	0	35.3960	8	27.262	0	90.160	0	227.7	4	83.2	4	-1E+10	1	-1E+10	1	-1E+10	1	-1E+10	1	-1E+10	1	-1E+10	1
4901784	185	C	07/28/2020	10:46	-132.356	42.917	0	92.40	0	10.0010	0	35.4130	8	27.277	0	91.647	0	225.6	4	82.4	4	-1E+10	1	-1E+10	1	-1E+10	1	-1E+10	1	-1E+10	1	-1E+10	1
4901784	185	C	07/28/2020	10:46	-132.356	42.917	0	93.90	0	9.9730	0	35.4330	8	27.297	0	93.134	0	223.6	4	81.6	4	-1E+10	1	-1E+10	1	-1E+10	1	-1E+10	1	-1E+10	1	-1E+10	1
4901784	185	C	07/28/2020	10:46	-132.356	42.917	0	95.40	0	9.9670	0	35.4360	8	27.301	0	94.622	0	221.4	4	80.8	4	-1E+10	1	-1E+10	1	-1E+10	1	-1E+10	1	-1E+10	1	-1E+10	1
4901784	185	C	07/28/2020	10:46	-132.356	42.917	0	97.00	0	9.9480	0	35.4460	8	27.312	0	96.208	0	218.8	4	79.8	4	-1E+10	1	-1E+10	1	-1E+10	1	-1E+10	1	-1E+10	1	-1E+10	1
4901784	185	C	07/28/2020	10:46	-132.356	42.917	0	98.70	0	9.9330	0	35.4570	8	27.323	0	97.894	0	216.1	4	78.8	4	-1E+10	1	-1E+10	1	-1E+10	1	-1E+10	1	-1E+10	1	-1E+10	1
4901784	185	C	07/28/2020	10:46	-132.356	42.917	0	100.30	0	9.8730	0	35.4720	8	27.345	0	99.481	0	212.8	4	77.5	4	-1E+10	1	-1E+10	1	-1E+10	1	-1E+10	1	-1E+10	1	-1E+10	1
4901784	185	C	07/28/2020	10:46	-132.356	42.917	0	102.80	0	9.6420	0	35.5670	8	27.458	0	101.960	0	209.5	4	76.0	4	-1E+10	1	-1E+10	1	-1E+10	1	-1E+10	1	-1E+10	1	-1E+10	1
4901784	185	C	07/28/2020	10:46	-132.356	42.917	0	105.30	0	9.5340	0	35.5920	8	27.496	0	104.439	0	208.0	4	75.3	4	-1E+10	1	-1E+10	1	-1E+10	1	-1E+10	1	-1E+10	1	-1E+10	1
4901784	185	C	07/28/2020	10:46	-132.356	42.917	0	107.10	0	9.4780	0	35.5910	8	27.505	0	106.223	0	206.9	4	74.8	4	-1E+10	1	-1E+10	1	-1E+10	1	-1E+10	1	-1E+10	1	-1E+10	1
4901784	185	C	07/28/2020	10:46	-132.356	42.917	0	109.70	0	9.3960	0	35.6020	8	27.527	0	108.802	0	204.7	4	73.9	4	-1E+10	1	-1E+10	1	-1E+10	1	-1E+10	1	-1E+10	1	-1E+10	1
4901784	185	C	07/28/2020	10:46	-132.356	42.917	0	112.40	0	9.3050	0	35.6240	8	27.559	0	111.479	0	202.6	4	73.0	4	-1E+10	1	-1E+10	1	-1E+10	1	-1E+10	1	-1E+10	1	-1E+10	1
4901784	185	C	07/28/2020	10:46	-132.356	42.917	0	115.00	0	9.0880	0	35.6720	8	27.633	0	114.057	0	201.5	4	72.3	4	-1E+10	1	-1E+10	1	-1E+10	1	-1E+10	1	-1E+10	1	-1E+10	1
4901784	185	C	07/28/2020	10:46	-132.356	42.917	0	117.70	0	8.6100	0	35.6800	8	27.716	0	116.734	0	202.9	4	72.1	4	-1E+10	1	-1E+10	1	-1E+10	1	-1E+10	1	-1E+10	1	-1E+10	1
4901784	185	C	07/28/2020	10:46	-132.356	42.917	0	119.50	0	8.5760	0	35.7170	8	27.750	0	118.518	0	201.5	4	71.5	4	-1E+10	1	-1E+10	1	-1E+10	1	-1E+10	1	-1E+10	1	-1E+10	1
4901784	185	C	07/28/2020	10:46	-132.356	42.917	0	122.30	0	8.4920	0	35.7500	8	27.789	0	121.295	0	200.1	4	70.9	4	-1E+10	1	-1E+10	1	-1E+10	1	-1E+10	1	-1E+10	1	-1E+10	1
4901784	185	C	07/28/2020	10:46	-132.356	42.917	0	125.00	0	8.4050	0	35.7810	8	27.827	0	123.972	0	199.4	4	70.5	4	-1E+10	1	-1E+10	1	-1E+10	1	-1E+10	1	-1E+10	1	-1E+10	1
4901784	185	C	07/28/2020	10:46	-132.356	42.917	0	127.10	0	8.3300	0	35.7940	8	27.849	0	126.054	0	198.6	4	70.2	4	-1E+10	1	-1E+10	1	-1E+10	1	-1E+10	1	-1E+10	1	-1E+10	1
4901784	185	C	07/28/2020	10:46	-132.356	42.917	0	130.00	0	8.2130	0	35.8100	8	27.880	0	128.929	0	197.3	4	69.5	4	-1E+10	1	-1E+10	1	-1E+10	1	-1E+10	1	-1E+10	1	-1E+10	1
4901784	185	C	07/28/2020	10:46	-132.356	42.917	0	132.20	0	8.1710	0	35.8100	8	27.887	0	131.110	0	195.2	4	68.7	4	-1E+10	1	-1E+10	1	-1E+10	1	-1E+10	1	-1E+10	1	-1E+10	1
4901784	185	C	07/28/2020	10:46	-132.356	42.917	0	134.70	0	7.9900	0	35.8620	8	27.955	0	133.589	0	191.2	4	67.0	4	-1E+10	1	-1E+10	1	-1E+10	1	-1E+10	1	-1E+10	1	-1E+10	1
4901784	185	C	07/28/2020	10:46	-132.356	42.917	0	137.90	0	7.9490	0	35.9560	8	28.035	0	136.761	0	184.2	4	64.6	4	-1E+10	1	-1E+10	1	-1E+10	1	-1E+10	1	-1E+10	1	-1E+10	1
4901784	185	C	07/28/2020	10:46	-132.356	42.917	0	140.30	0	8.0330	0	36.0480	8	28.095	0	139.141	0	177.4	4	62.3	4	-1E+10	1	-1E+10	1	-1E+10	1	-1E+10	1	-1E+10	1	-1E+10	1
4901784	185	C	07/28/2020	10:46	-132.356	42.917	0	142.80	0	8.1640	0	36.1120	8	28.125	0	141.619	0	171.1	4	60.3	4	-1E+10	1	-1E+10	1	-1E+10	1	-1E+10	1	-1E+10	1	-1E+10	1
4901784	185	C	07/28/2020	10:46	-132.356	42.917	0	145.40	0	8.2140	0	36.1390	8	28.139	0	144.197	0	165.7	4	58.5	4	-1E+10	1	-1E+10	1	-1E+10	1	-1E+10	1	-1E+10	1	-1E+10	1
4901784	185	C	07/28/2020	10:46	-132.356	42.917	0	147.10	0	8.2540	0	36.1580	8	28.147	0	145.882	0	161.1	4	57.0	4	-1E+10	1	-1E+10	1	-1E+10	1	-1E+10	1	-1E+10	1	-1E+10	1
4901784	185	C	07/28/2020	10:46	-132.356	42.917	0	149.80	0	8.3590	0	36.2040	8	28.167	0	148.559	0	153.4	4	54.4	4	-1E+10	1	-1E+10	1	-1E+10	1	-1E+10	1	-1E+10	1	-1E+10	1
4901784	185	C	07/28/2020	10:46	-132.356	42.917	0	152.60	0	8.5090	0	36.2900	8	28.211	0	151.334	0	146.6	4	52.2	4	-1E+10	1	-1E+10	1	-1E+10	1	-1E+10	1	-1E+10	1	-1E+10	1
4901784	185	C	07/28/2020	10:46	-132.356	42.917	0	155.30	0	8.5230	0	36.3200	8	28.232	0	154.011	0	143.0	4	50.9	4	-1E+10	1	-1E+10	1	-1E+10	1	-1E+10	1	-1E+10	1	-1E+10	1
4901784	185	C	07/28/2020	10:46	-132.356	42.917	0	158.00	0	8.5300	0	36.3530	8	28.257	0	156.688	0	139.6	4	49.7	4	-1E+10	1	-1E+10	1	-1E+10	1	-1E+10	1	-1E+10	1	-1E+10	1
4901784	185	C	07/28/2020	10:46	-132.356	42.917	0	159.70	0	8.5330	0	36.3810	8	28.279	0	158.373	0	137.6	4	49.0	4	-1E+10	1	-1E+10	1	-1E+10	1	-1E+10	1	-1E+10	1	-1E+10	1
4901784	185	C	07/28/2020	10:46	-132.356	42.917	0	162.40	0	8.5220	0	36.4190	8	28.310	0	161.049	0	136.0	4	48.4	4	-1E+10	1	-1E+10	1	-1E+10	1	-1E+10	1	-1E+10	1	-1E+10	1
4901784	185	C	07/28/2020	10:46	-132.356	42.917	0	165.10	0	8.5170	0	36.4280	8	28.318	0	163.726	0	135.0	4	48.1	4	-1E+10	1	-1E+10	1	-1E+10	1	-1E+10	1	-1E+10	1	-1E+10	1
4901784	185	C	07/28/2020	10:46	-132.356	42.917	0	167.00	0	8.5060	0	36.4350	8	28.326	0	165.609	0	134.3	4	47.8	4	-1E+10	1	-1E+10	1	-1E+10	1	-1E+10	1	-1E+10	1	-1E+10	1
4901784	185	C	07/28/2020	10:46	-132.356	42.917	0	169.80	0	8.4900	0	36.4420	8	28.334	0	168.385	0	133.0	4	47.4	4	-1E+10	1	-1E+10	1	-1E+10	1	-1E+10	1	-1E+10	1	-1E+10	1
4901784	185	C	07/28/2020	10:46	-132.356	42.917	0	172.70	0	8.4700	0	36.4610	8	28.352	0	171.259	0	131.4	4	46.8	4	-1E+10	1	-1E+10	1	-1E+10	1	-1E+10	1	-1E+10	1	-1E+10	1
4901784	185	C	07/28/2020	10:46	-132.356	42.917	0	174.60	0	8.4390	0	36.4820	8	28.373	0	173.143	0	130.8	4	46.5	4	-1E+10	1	-1E+10	1	-1E+10	1	-1E+10	1	-1E+10	1	-1E+10	1
4901784	185	C	07/28/2020	10:46	-132.356	42.917	0	177.40	0	8.4080	0	36.4990	8	28.392	0	175.918	0	130.2	4	46.3	4	-1E+10	1	-1E+10	1	-1E+10	1	-1E+10	1	-1E+10	1	-1E+10	1
4901784	185	C	07/28/2020	10:46	-132.356	42.917	0	180.20	0	8.3670	0	36.5190	8	28.414	0	178.694	0	129.9	4	46.2	4	-1E+10	1	-1E+10	1	-1E+10	1	-1E+10	1	-1E+10	1	-1E+10	1
4901784	185	C	07/28/2020	10:46	-132.356	42.917	0	182.00	0	8.3550	0	36.5230	8	28.419	0	180.478	0	130.1	4	46.2	4	-1E+10	1	-1E+10	1	-1E+10	1	-1E+10	1	-1E+10	1	-1E+10	1
4901784	185	C	07/28/2020	10:46	-132.356	42.917	0	184.80	0	8.3290	0	36.5320	8	28.430	0	183.253	0	130.3	4	46.3	4	-1E+10	1	-1E+10	1	-1E+10	1	-1E+10	1	-1E+10	1	-1E+10	1
4901784	185	C	07/28/2020	10:46	-132.356	42.917	0	187.60	0	8.2210	0	36.5630	8	28.471	0	186.028	0	131.1	4	46.4	4	-1E+10	1	-1E+10	1	-1E+10	1	-1E+10	1	-1E+10	1	-1E+10	1
4901784	185	C	07/28/2020	10:46	-132.356	42.917	0	189.40	0	8.2070	0	36.5850	8	28.491	0	187.812	0	129.9	4	46.0	4	-1E+10	1	-1E+10	1	-1E+10	1	-1E+10	1	-1E+10	1	-1E+10	1
4901784	185	C	07/28/2020	10:46	-132.356	42.917	0	192.40	0	8.1550	0	36.5980	8	28.509	0	190.786	0	129.6	4	45.9	4	-1E+10	1	-1E+10	1	-1E+10	1	-1E+10	1	-1E+10	1	-1E+10	1
4901784	185	C	07/28/2020	10:46	-132.356	42.917	0	195.20	0	8.1230	0	36.6160	8	28.528	0	193.561	0	128.8	4	45.5	4	-1E+10	1	-1E+10	1	-1E+10	1	-1E+10	1	-1E+10	1	-1E+10	1
4901784	185	C	07/28/2020	10:46	-132.356	42.917	0	197.10	0	8.1030	0	36.6270	8	28.540	0	195.444	0	128.9	4	45.6	4	-1E+10	1	-1E+10	1	-1E+10	1	-1E+10	1	-1E+10	1	-1E+10	1
4901784	185	C	07/28/2020	10:46	-132.356	42.917	0	200.00	0	8.0760	0	36.6310	8	28.547	0	198.319	0	129.5	4	45.8	4	-1E+10	1	-1E+10	1	-1E+10	1	-1E+10	1	-1E+10	1	-1E+10	1
4901784	185	C	07/28/2020	10:46	-132.356	42.917	0	202.70	0	8.0300	0	36.6430	8	28.564	0	200.995	0	129.3	4	45.6	4	-1E+10	1	-1E+10	1	-1E+10	1	-1E+10	1	-1E+10	1	-1E+10	1
4901784	185	C	07/28/2020	10:46	-132.356	42.917	0	204.50	0	8.0070	0	36.6520	8	28.575	0	202.779	0	129.4	4	45.7	4	-1E+10	1	-1E+10	1	-1E+10	1	-1E+10	1	-1E+10	1	-1E+10	1
4901784	185	C	07/28/2020	10:46	-132.356	42.917	0	207.50	0	7.9780	0	36.6560	8	28.582	0	205.752	0	129.2	4	45.6	4	-1E+10	1	-1E+10	1	-1E+10	1	-1E+10	1	-1E+10	1	-1E+10	1
4901784	185	C	07/28/2020	10:46	-132.356	42.917	0	210.40	0	7.9360	0	36.6660	8	28.597	0	208.626	0	127.9	4	45.1	4	-1E+10	1	-1E+10	1	-1E+10	1	-1E+10	1	-1E+10	1	-1E+10	1
4901784	185	C	07/28/2020	10:46	-132.356	42.917	0	212.70	0	7.9130	0	36.6670	8	28.601	0	210.905	0	126.3	4	44.5	4	-1E+10	1	-1E+10	1	-1E+10	1	-1E+10	1	-1E+10	1	-1E+10	1
4901784	185	C	07/28/2020	10:46	-132.356	42.917	0	215.10	0	7.8390	0	36.6820	8	28.624	0	213.284	0	125.4	4	44.1	4	-1E+10	1	-1E+10	1	-1E+10	1	-1E+10	1	-1E+10	1	-1E+10	1
4901784	185	C	07/28/2020	10:46	-132.356	42.917	0	217.60	0	7.8300	0	36.6810	8	28.625	0	215.761	0	125.0	4	43.9	4	-1E+10	1	-1E+10	1	-1E+10	1	-1E+10	1	-1E+10	1	-1E+10	1
4901784	185	C	07/28/2020	10:46	-132.356	42.917	0	220.00	0	7.8250	0	36.6790	8	28.624	0	218.140	0	124.5	4	43.8	4	-1E+10	1	-1E+10	1	-1E+10	1	-1E+10	1	-1E+10	1	-1E+10	1
4901784	185	C	07/28/2020	10:46	-132.356	42.917	0	222.50	0	7.7500	0	36.6880	8	28.642	0	220.617	0	123.9	4	43.5	4	-1E+10	1	-1E+10	1	-1E+10	1	-1E+10	1	-1E+10	1	-1E+10	1
4901784	185	C	07/28/2020	10:46	-132.356	42.917	0	225.00	0	7.7060	0	36.6920	8	28.652	0	223.095	0	123.0	4	43.1	4	-1E+10	1	-1E+10	1	-1E+10	1	-1E+10	1	-1E+10	1	-1E+10	1
4901784	185	C	07/28/2020	10:46	-132.356	42.917	0	227.40	0	7.6840	0	36.6920	8	28.656	0	225.473	0	122.7	4	43.0	4	-1E+10	1	-1E+10	1	-1E+10	1	-1E+10	1	-1E+10	1	-1E+10	1
4901784	185	C	07/28/2020	10:46	-132.356	42.917	0	229.90	0	7.6550	0	36.6920	8	28.660	0	227.951	0	121.0	4	42.4	4	-1E+10	1	-1E+10	1	-1E+10	1	-1E+10	1	-1E+10	1	-1E+10	1
4901784	185	C	07/28/2020	10:46	-132.356	42.917	0	232.40	0	7.5880	0	36.6920	8	28.670	0	230.428	0	117.8	4	41.2	4	-1E+10	1	-1E+10	1	-1E+10	1	-1E+10	1	-1E+10	1	-1E+10	1
4901784	185	C	07/28/2020	10:46	-132.356	42.917	0	234.90	0	7.5220	0	36.6960	8	28.683	0	232.906	0	116.2	4	40.6	4	-1E+10	1	-1E+10	1	-1E+10	1	-1E+10	1	-1E+10	1	-1E+10	1
4901784	185	C	07/28/2020	10:46	-132.356	42.917	0	237.40	0	7.4570	0	36.7010	8	28.697	0	235.383	0	115.8	4	40.4	4	-1E+10	1	-1E+10	1	-1E+10	1	-1E+10	1	-1E+10	1	-1E+10	1
4901784	185	C	07/28/2020	10:46	-132.356	42.917	0	239.90	0	7.4320	0	36.7000	8	28.700	0	237.860	0	115.0	4	40.1	4	-1E+10	1	-1E+10	1	-1E+10	1	-1E+10	1	-1E+10	1	-1E+10	1
4901784	185	C	07/28/2020	10:46	-132.356	42.917	0	242.50	0	7.4120	0	36.6960	8	28.700	0	240.437	0	113.9	4	39.7	4	-1E+10	1	-1E+10	1	-1E+10	1	-1E+10	1	-1E+10	1	-1E+10	1
4901784	185	C	07/28/2020	10:46	-132.356	42.917	0	245.00	0	7.3300	0	36.7010	8	28.716	0	242.914	0	112.2	4	39.0	4	-1E+10	1	-1E+10	1	-1E+10	1	-1E+10	1	-1E+10	1	-1E+10	1
4901784	185	C	07/28/2020	10:46	-132.356	42.917	0	247.60	0	7.2730	0	36.7030	8	28.725	0	245.490	0	110.9	4	38.5	4	-1E+10	1	-1E+10	1	-1E+10	1	-1E+10	1	-1E+10	1	-1E+10	1
4901784	185	C	07/28/2020	10:46	-132.356	42.917	0	250.20	0	7.2320	0	36.7050	8	28.733	0	248.066	0	109.6	4	38.0	4	-1E+10	1	-1E+10	1	-1E+10	1	-1E+10	1	-1E+10	1	-1E+10	1
4901784	185	C	07/28/2020	10:46	-132.356	42.917	0	252.80	0	7.1850	0	36.7070	8	28.742	0	250.643	0	108.2	4	37.5	4	-1E+10	1	-1E+10	1	-1E+10	1	-1E+10	1	-1E+10	1	-1E+10	1
4901784	185	C	07/28/2020	10:46	-132.356	42.917	0	255.50	0	7.1320	0	36.7080	8	28.750	0	253.318	0	107.1	4	37.1	4	-1E+10	1	-1E+10	1	-1E+10	1	-1E+10	1	-1E+10	1	-1E+10	1
4901784	185	C	07/28/2020	10:46	-132.356	42.917	0	257.30	0	7.1090	0	36.7130	8	28.757	0	255.102	0	106.2	4	36.8	4	-1E+10	1	-1E+10	1	-1E+10	1	-1E+10	1	-1E+10	1	-1E+10	1
4901784	185	C	07/28/2020	10:46	-132.356	42.917	0	260.00	0	7.0750	0	36.7190	8	28.767	0	257.777	0	105.1	4	36.3	4	-1E+10	1	-1E+10	1	-1E+10	1	-1E+10	1	-1E+10	1	-1E+10	1
4901784	185	C	07/28/2020	10:46	-132.356	42.917	0	262.70	0	7.0360	0	36.7200	8	28.773	0	260.452	0	104.0	4	35.9	4	-1E+10	1	-1E+10	1	-1E+10	1	-1E+10	1	-1E+10	1	-1E+10	1
4901784	185	C	07/28/2020	10:46	-132.356	42.917	0	264.60	0	7.0290	0	36.7200	8	28.774	0	262.335	0	102.9	4	35.5	4	-1E+10	1	-1E+10	1	-1E+10	1	-1E+10	1	-1E+10	1	-1E+10	1
4901784	185	C	07/28/2020	10:46	-132.356	42.917	0	267.30	0	7.0030	0	36.7220	8	28.780	0	265.010	0	101.4	4	35.0	4	-1E+10	1	-1E+10	1	-1E+10	1	-1E+10	1	-1E+10	1	-1E+10	1
4901784	185	C	07/28/2020	10:46	-132.356	42.917	0	269.90	0	6.9610	0	36.7220	8	28.786	0	267.586	0	100.6	4	34.7	4	-1E+10	1	-1E+10	1	-1E+10	1	-1E+10	1	-1E+10	1	-1E+10	1
4901784	185	C	07/28/2020	10:46	-132.356	42.917	0	272.70	0	6.9040	0	36.7220	8	28.794	0	270.360	0	99.6	4	34.3	4	-1E+10	1	-1E+10	1	-1E+10	1	-1E+10	1	-1E+10	1	-1E+10	1
4901784	185	C	07/28/2020	10:46	-132.356	42.917	0	275.30	0	6.8410	0	36.7240	8	28.804	0	272.936	0	98.2	4	33.8	4	-1E+10	1	-1E+10	1	-1E+10	1	-1E+10	1	-1E+10	1	-1E+10	1
4901784	185	C	07/28/2020	10:46	-132.356	42.917	0	277.20	0	6.7840	0	36.7280	8	28.816	0	274.818	0	97.2	4	33.4	4	-1E+10	1	-1E+10	1	-1E+10	1	-1E+10	1	-1E+10	1	-1E+10	1
4901784	185	C	07/28/2020	10:46	-132.356	42.917	0	280.00	0	6.7600	0	36.7260	8	28.818	0	277.592	0	95.9	4	32.9	4	-1E+10	1	-1E+10	1	-1E+10	1	-1E+10	1	-1E+10	1	-1E+10	1
4901784	185	C	07/28/2020	10:46	-132.356	42.917	0	282.90	0	6.7370	0	36.7250	8	28.820	0	280.465	0	94.7	4	32.5	4	-1E+10	1	-1E+10	1	-1E+10	1	-1E+10	1	-1E+10	1	-1E+10	1
4901784	185	C	07/28/2020	10:46	-132.356	42.917	0	284.70	0	6.6850	0	36.7300	8	28.831	0	282.249	0	93.4	4	32.0	4	-1E+10	1	-1E+10	1	-1E+10	1	-1E+10	1	-1E+10	1	-1E+10	1
4901784	185	C	07/28/2020	10:46	-132.356	42.917	0	287.40	0	6.6570	0	36.7320	8	28.837	0	284.924	0	91.2	4	31.3	4	-1E+10	1	-1E+10	1	-1E+10	1	-1E+10	1	-1E+10	1	-1E+10	1
4901784	185	C	07/28/2020	10:46	-132.356	42.917	0	290.10	0	6.6330	0	36.7340	8	28.842	0	287.598	0	89.2	4	30.5	4	-1E+10	1	-1E+10	1	-1E+10	1	-1E+10	1	-1E+10	1	-1E+10	1
4901784	185	C	07/28/2020	10:46	-132.356	42.917	0	292.00	0	6.5910	0	36.7360	8	28.849	0	289.481	0	87.9	4	30.1	4	-1E+10	1	-1E+10	1	-1E+10	1	-1E+10	1	-1E+10	1	-1E+10	1
4901784	185	C	07/28/2020	10:46	-132.356	42.917	0	294.80	0	6.5450	0	36.7410	8	28.860	0	292.255	0	86.0	4	29.4	4	-1E+10	1	-1E+10	1	-1E+10	1	-1E+10	1	-1E+10	1	-1E+10	1
4901784	185	C	07/28/2020	10:46	-132.356	42.917	0	297.60	0	6.5120	0	36.7470	8	28.869	0	295.028	0	84.7	4	28.9	4	-1E+10	1	-1E+10	1	-1E+10	1	-1E+10	1	-1E+10	1	-1E+10	1
4901784	185	C	07/28/2020	10:46	-132.356	42.917	0	299.50	0	6.5070	0	36.7460	8	28.869	0	296.911	0	84.1	4	28.7	4	-1E+10	1	-1E+10	1	-1E+10	1	-1E+10	1	-1E+10	1	-1E+10	1
4901784	185	C	07/28/2020	10:46	-132.356	42.917	0	302.20	0	6.4820	0	36.7480	8	28.874	0	299.585	0	82.9	4	28.3	4	-1E+10	1	-1E+10	1	-1E+10	1	-1E+10	1	-1E+10	1	-1E+10	1
4901784	185	C	07/28/2020	10:46	-132.356	42.917	0	305.10	0	6.4580	0	36.7490	8	28.878	0	302.458	0	81.8	4	27.9	4	-1E+10	1	-1E+10	1	-1E+10	1	-1E+10	1	-1E+10	1	-1E+10	1
4901784	185	C	07/28/2020	10:46	-132.356	42.917	0	306.90	0	6.4300	0	36.7510	8	28.883	0	304.241	0	80.8	4	27.5	4	-1E+10	1	-1E+10	1	-1E+10	1	-1E+10	1	-1E+10	1	-1E+10	1
4901784	185	C	07/28/2020	10:46	-132.356	42.917	0	309.70	0	6.4100	0	36.7540	8	28.889	0	307.015	0	79.6	4	27.1	4	-1E+10	1	-1E+10	1	-1E+10	1	-1E+10	1	-1E+10	1	-1E+10	1
4901784	185	C	07/28/2020	10:46	-132.356	42.917	0	312.40	0	6.3850	0	36.7510	8	28.890	0	309.690	0	78.3	4	26.7	4	-1E+10	1	-1E+10	1	-1E+10	1	-1E+10	1	-1E+10	1	-1E+10	1
4901784	185	C	07/28/2020	10:46	-132.356	42.917	0	315.30	0	6.3610	0	36.7500	8	28.892	0	312.562	0	76.8	4	26.1	4	-1E+10	1	-1E+10	1	-1E+10	1	-1E+10	1	-1E+10	1	-1E+10	1
4901784	185	C	07/28/2020	10:46	-132.356	42.917	0	318.00	0	6.3210	0	36.7540	8	28.901	0	315.237	0	75.3	4	25.6	4	-1E+10	1	-1E+10	1	-1E+10	1	-1E+10	1	-1E+10	1	-1E+10	1
4901784	185	C	07/28/2020	10:46	-132.356	42.917	0	319.90	0	6.2920	0	36.7540	8	28.905	0	317.119	0	74.5	4	25.3	4	-1E+10	1	-1E+10	1	-1E+10	1	-1E+10	1	-1E+10	1	-1E+10	1
4901784	185	C	07/28/2020	10:46	-132.356	42.917	0	322.70	0	6.2340	0	36.7570	8	28.915	0	319.892	0	73.8	4	25.0	4	-1E+10	1	-1E+10	1	-1E+10	1	-1E+10	1	-1E+10	1	-1E+10	1
4901784	185	C	07/28/2020	10:46	-132.356	42.917	0	325.50	0	6.1580	0	36.7550	8	28.924	0	322.666	0	73.7	4	25.0	4	-1E+10	1	-1E+10	1	-1E+10	1	-1E+10	1	-1E+10	1	-1E+10	1
4901784	185	C	07/28/2020	10:46	-132.356	42.917	0	327.30	0	6.0980	0	36.7540	8	28.931	0	324.449	0	73.2	4	24.8	4	-1E+10	1	-1E+10	1	-1E+10	1	-1E+10	1	-1E+10	1	-1E+10	1
4901784	185	C	07/28/2020	10:46	-132.356	42.917	0	330.00	0	6.0560	0	36.7540	8	28.936	0	327.123	0	71.1	4	24.0	4	-1E+10	1	-1E+10	1	-1E+10	1	-1E+10	1	-1E+10	1	-1E+10	1
4901784	185	C	07/28/2020	10:46	-132.356	42.917	0	332.80	0	6.0370	0	36.7600	8	28.944	0	329.896	0	69.1	4	23.3	4	-1E+10	1	-1E+10	1	-1E+10	1	-1E+10	1	-1E+10	1	-1E+10	1
4901784	185	C	07/28/2020	10:46	-132.356	42.917	0	334.70	0	6.0470	0	36.7660	8	28.947	0	331.778	0	67.9	4	23.0	4	-1E+10	1	-1E+10	1	-1E+10	1	-1E+10	1	-1E+10	1	-1E+10	1
4901784	185	C	07/28/2020	10:46	-132.356	42.917	0	337.40	0	6.0410	0	36.7660	8	28.948	0	334.452	0	66.9	4	22.6	4	-1E+10	1	-1E+10	1	-1E+10	1	-1E+10	1	-1E+10	1	-1E+10	1
4901784	185	C	07/28/2020	10:46	-132.356	42.917	0	340.10	0	6.0140	0	36.7710	8	28.956	0	337.127	0	65.9	4	22.2	4	-1E+10	1	-1E+10	1	-1E+10	1	-1E+10	1	-1E+10	1	-1E+10	1
4901784	185	C	07/28/2020	10:46	-132.356	42.917	0	342.10	0	6.0080	0	36.7710	8	28.956	0	339.108	0	65.3	4	22.0	4	-1E+10	1	-1E+10	1	-1E+10	1	-1E+10	1	-1E+10	1	-1E+10	1
4901784	185	C	07/28/2020	10:46	-132.356	42.917	0	344.90	0	5.9760	0	36.7720	8	28.961	0	341.881	0	64.4	4	21.7	4	-1E+10	1	-1E+10	1	-1E+10	1	-1E+10	1	-1E+10	1	-1E+10	1
4901784	185	C	07/28/2020	10:46	-132.356	42.917	0	347.70	0	5.9230	0	36.7760	8	28.972	0	344.654	0	63.6	4	21.4	4	-1E+10	1	-1E+10	1	-1E+10	1	-1E+10	1	-1E+10	1	-1E+10	1
4901784	185	C	07/28/2020	10:46	-132.356	42.917	0	349.50	0	5.9010	0	36.7750	8	28.974	0	346.437	0	63.3	4	21.3	4	-1E+10	1	-1E+10	1	-1E+10	1	-1E+10	1	-1E+10	1	-1E+10	1
4901784	185	C	07/28/2020	10:46	-132.356	42.917	0	352.40	0	5.8670	0	36.7740	8	28.977	0	349.309	0	62.8	4	21.1	4	-1E+10	1	-1E+10	1	-1E+10	1	-1E+10	1	-1E+10	1	-1E+10	1
4901784	185	C	07/28/2020	10:46	-132.356	42.917	0	355.20	0	5.7540	0	36.7730	8	28.991	0	352.082	0	62.3	4	20.9	4	-1E+10	1	-1E+10	1	-1E+10	1	-1E+10	1	-1E+10	1	-1E+10	1
4901784	185	C	07/28/2020	10:46	-132.356	42.917	0	357.10	0	5.7420	0	36.7780	8	28.997	0	353.964	0	61.3	4	20.6	4	-1E+10	1	-1E+10	1	-1E+10	1	-1E+10	1	-1E+10	1	-1E+10	1
4901784	185	C	07/28/2020	10:46	-132.356	42.917	0	359.90	0	5.7940	0	36.7850	8	28.996	0	356.737	0	60.2	4	20.2	4	-1E+10	1	-1E+10	1	-1E+10	1	-1E+10	1	-1E+10	1	-1E+10	1
4901784	185	C	07/28/2020	10:46	-132.356	42.917	0	362.60	0	5.7010	0	36.7780	8	29.002	0	359.410	0	60.1	4	20.1	4	-1E+10	1	-1E+10	1	-1E+10	1	-1E+10	1	-1E+10	1	-1E+10	1
4901784	185	C	07/28/2020	10:46	-132.356	42.917	0	364.60	0	5.6730	0	36.7750	8	29.003	0	361.391	0	59.3	4	19.9	4	-1E+10	1	-1E+10	1	-1E+10	1	-1E+10	1	-1E+10	1	-1E+10	1
4901784	185	C	07/28/2020	10:46	-132.356	42.917	0	367.60	0	5.6950	0	36.7870	8	29.010	0	364.362	0	58.5	4	19.6	4	-1E+10	1	-1E+10	1	-1E+10	1	-1E+10	1	-1E+10	1	-1E+10	1
4901784	185	C	07/28/2020	10:46	-132.356	42.917	0	370.10	0	5.6860	0	36.7880	8	29.012	0	366.838	0	58.3	4	19.5	4	-1E+10	1	-1E+10	1	-1E+10	1	-1E+10	1	-1E+10	1	-1E+10	1
4901784	185	C	07/28/2020	10:46	-132.356	42.917	0	372.60	0	5.6540	0	36.7830	8	29.012	0	369.314	0	58.6	4	19.6	4	-1E+10	1	-1E+10	1	-1E+10	1	-1E+10	1	-1E+10	1	-1E+10	1
4901784	185	C	07/28/2020	10:46	-132.356	42.917	0	374.90	0	5.5700	0	36.7820	8	29.022	0	371.591	0	58.8	4	19.6	4	-1E+10	1	-1E+10	1	-1E+10	1	-1E+10	1	-1E+10	1	-1E+10	1
4901784	185	C	07/28/2020	10:46	-132.356	42.917	0	377.30	0	5.5030	0	36.7810	8	29.030	0	373.968	0	58.6	4	19.6	4	-1E+10	1	-1E+10	1	-1E+10	1	-1E+10	1	-1E+10	1	-1E+10	1
4901784	185	C	07/28/2020	10:46	-132.356	42.917	0	379.70	0	5.4840	0	36.7820	8	29.033	0	376.345	0	58.1	4	19.4	4	-1E+10	1	-1E+10	1	-1E+10	1	-1E+10	1	-1E+10	1	-1E+10	1
4901784	185	C	07/28/2020	10:46	-132.356	42.917	0	382.10	0	5.4850	0	36.7870	8	29.037	0	378.721	0	57.9	4	19.3	4	-1E+10	1	-1E+10	1	-1E+10	1	-1E+10	1	-1E+10	1	-1E+10	1
4901784	185	C	07/28/2020	10:46	-132.356	42.917	0	384.60	0	5.4470	0	36.7860	8	29.041	0	381.197	0	58.1	4	19.3	4	-1E+10	1	-1E+10	1	-1E+10	1	-1E+10	1	-1E+10	1	-1E+10	1
4901784	185	C	07/28/2020	10:46	-132.356	42.917	0	387.80	0	5.4020	0	36.7840	8	29.045	0	384.365	0	57.5	4	19.1	4	-1E+10	1	-1E+10	1	-1E+10	1	-1E+10	1	-1E+10	1	-1E+10	1
4901784	185	C	07/28/2020	10:46	-132.356	42.917	0	390.20	0	5.3760	0	36.7850	8	29.049	0	386.742	0	56.7	4	18.9	4	-1E+10	1	-1E+10	1	-1E+10	1	-1E+10	1	-1E+10	1	-1E+10	1
4901784	185	C	07/28/2020	10:46	-132.356	42.917	0	392.60	0	5.3730	0	36.7900	8	29.054	0	389.118	0	55.1	4	18.3	4	-1E+10	1	-1E+10	1	-1E+10	1	-1E+10	1	-1E+10	1	-1E+10	1
4901784	185	C	07/28/2020	10:46	-132.356	42.917	0	395.00	0	5.3910	0	36.7960	8	29.056	0	391.495	0	54.2	4	18.0	4	-1E+10	1	-1E+10	1	-1E+10	1	-1E+10	1	-1E+10	1	-1E+10	1
4901784	185	C	07/28/2020	10:46	-132.356	42.917	0	397.50	0	5.3670	0	36.7990	8	29.062	0	393.970	0	54.2	4	18.0	4	-1E+10	1	-1E+10	1	-1E+10	1	-1E+10	1	-1E+10	1	-1E+10	1
4901784	185	C	07/28/2020	10:46	-132.356	42.917	0	400.00	0	5.3510	0	36.7980	8	29.063	0	396.446	0	54.5	4	18.1	4	-1E+10	1	-1E+10	1	-1E+10	1	-1E+10	1	-1E+10	1	-1E+10	1
4901784	185	C	07/28/2020	10:46	-132.356	42.917	0	402.50	0	5.3220	0	36.7950	8	29.064	0	398.921	0	55.2	4	18.3	4	-1E+10	1	-1E+10	1	-1E+10	1	-1E+10	1	-1E+10	1	-1E+10	1
4901784	185	C	07/28/2020	10:46	-132.356	42.917	0	404.90	0	5.2620	0	36.7920	8	29.069	0	401.297	0	55.5	4	18.4	4	-1E+10	1	-1E+10	1	-1E+10	1	-1E+10	1	-1E+10	1	-1E+10	1
4901784	185	C	07/28/2020	10:46	-132.356	42.917	0	407.60	0	5.2210	0	36.7940	8	29.076	0	403.971	0	55.4	4	18.4	4	-1E+10	1	-1E+10	1	-1E+10	1	-1E+10	1	-1E+10	1	-1E+10	1
4901784	185	C	07/28/2020	10:46	-132.356	42.917	0	410.10	0	5.2110	0	36.7950	8	29.078	0	406.446	0	54.8	4	18.1	4	-1E+10	1	-1E+10	1	-1E+10	1	-1E+10	1	-1E+10	1	-1E+10	1
4901784	185	C	07/28/2020	10:46	-132.356	42.917	0	412.70	0	5.2170	0	36.8000	8	29.081	0	409.020	0	54.4	4	18.0	4	-1E+10	1	-1E+10	1	-1E+10	1	-1E+10	1	-1E+10	1	-1E+10	1
4901784	185	C	07/28/2020	10:46	-132.356	42.917	0	415.20	0	5.1880	0	36.7990	8	29.084	0	411.496	0	54.6	4	18.1	4	-1E+10	1	-1E+10	1	-1E+10	1	-1E+10	1	-1E+10	1	-1E+10	1
4901784	185	C	07/28/2020	10:46	-132.356	42.917	0	417.80	0	5.1630	0	36.7980	8	29.086	0	414.070	0	54.7	4	18.1	4	-1E+10	1	-1E+10	1	-1E+10	1	-1E+10	1	-1E+10	1	-1E+10	1
4901784	185	C	07/28/2020	10:46	-132.356	42.917	0	420.40	0	5.1300	0	36.7990	8	29.091	0	416.644	0	54.4	4	18.0	4	-1E+10	1	-1E+10	1	-1E+10	1	-1E+10	1	-1E+10	1	-1E+10	1
4901784	185	C	07/28/2020	10:46	-132.356	42.917	0	422.10	0	5.1210	0	36.8000	8	29.093	0	418.327	0	54.1	4	17.9	4	-1E+10	1	-1E+10	1	-1E+10	1	-1E+10	1	-1E+10	1	-1E+10	1
4901784	185	C	07/28/2020	10:46	-132.356	42.917	0	424.80	0	5.1150	0	36.8020	8	29.095	0	421.000	0	53.6	4	17.7	4	-1E+10	1	-1E+10	1	-1E+10	1	-1E+10	1	-1E+10	1	-1E+10	1
4901784	185	C	07/28/2020	10:46	-132.356	42.917	0	427.40	0	5.1140	0	36.8030	8	29.096	0	423.574	0	52.9	4	17.5	4	-1E+10	1	-1E+10	1	-1E+10	1	-1E+10	1	-1E+10	1	-1E+10	1
4901784	185	C	07/28/2020	10:46	-132.356	42.917	0	430.00	0	5.1130	0	36.8070	8	29.100	0	426.148	0	52.1	4	17.2	4	-1E+10	1	-1E+10	1	-1E+10	1	-1E+10	1	-1E+10	1	-1E+10	1
4901784	185	C	07/28/2020	10:46	-132.356	42.917	0	432.70	0	5.1070	0	36.8080	8	29.101	0	428.821	0	51.4	4	17.0	4	-1E+10	1	-1E+10	1	-1E+10	1	-1E+10	1	-1E+10	1	-1E+10	1
4901784	185	C	07/28/2020	10:46	-132.356	42.917	0	435.30	0	5.0960	0	36.8100	8	29.104	0	431.395	0	49.9	4	16.5	4	-1E+10	1	-1E+10	1	-1E+10	1	-1E+10	1	-1E+10	1	-1E+10	1
4901784	185	C	07/28/2020	10:46	-132.356	42.917	0	437.90	0	5.1140	0	36.8150	8	29.106	0	433.969	0	47.8	4	15.8	4	-1E+10	1	-1E+10	1	-1E+10	1	-1E+10	1	-1E+10	1	-1E+10	1
4901784	185	C	07/28/2020	10:46	-132.356	42.917	0	439.70	0	5.1350	0	36.8250	8	29.111	0	435.751	0	46.9	4	15.5	4	-1E+10	1	-1E+10	1	-1E+10	1	-1E+10	1	-1E+10	1	-1E+10	1
4901784	185	C	07/28/2020	10:46	-132.356	42.917	0	442.40	0	5.1380	0	36.8270	8	29.113	0	438.424	0	46.1	4	15.3	4	-1E+10	1	-1E+10	1	-1E+10	1	-1E+10	1	-1E+10	1	-1E+10	1
4901784	185	C	07/28/2020	10:46	-132.356	42.917	0	445.00	0	5.1360	0	36.8280	8	29.114	0	440.998	0	45.1	4	14.9	4	-1E+10	1	-1E+10	1	-1E+10	1	-1E+10	1	-1E+10	1	-1E+10	1
4901784	185	C	07/28/2020	10:46	-132.356	42.917	0	447.70	0	5.1320	0	36.8310	8	29.117	0	443.671	0	43.9	4	14.5	4	-1E+10	1	-1E+10	1	-1E+10	1	-1E+10	1	-1E+10	1	-1E+10	1
4901784	185	C	07/28/2020	10:46	-132.356	42.917	0	450.30	0	5.1260	0	36.8360	8	29.121	0	446.245	0	42.6	4	14.1	4	-1E+10	1	-1E+10	1	-1E+10	1	-1E+10	1	-1E+10	1	-1E+10	1
4901784	185	C	07/28/2020	10:46	-132.356	42.917	0	452.10	0	5.1190	0	36.8410	8	29.126	0	448.027	0	41.7	4	13.8	4	-1E+10	1	-1E+10	1	-1E+10	1	-1E+10	1	-1E+10	1	-1E+10	1
4901784	185	C	07/28/2020	10:46	-132.356	42.917	0	454.60	0	5.1230	0	36.8450	8	29.129	0	450.501	0	40.8	4	13.5	4	-1E+10	1	-1E+10	1	-1E+10	1	-1E+10	1	-1E+10	1	-1E+10	1
4901784	185	C	07/28/2020	10:46	-132.356	42.917	0	457.30	0	5.1080	0	36.8470	8	29.132	0	453.174	0	40.2	4	13.3	4	-1E+10	1	-1E+10	1	-1E+10	1	-1E+10	1	-1E+10	1	-1E+10	1
4901784	185	C	07/28/2020	10:46	-132.356	42.917	0	459.90	0	5.0960	0	36.8500	8	29.136	0	455.748	0	39.4	4	13.0	4	-1E+10	1	-1E+10	1	-1E+10	1	-1E+10	1	-1E+10	1	-1E+10	1
4901784	185	C	07/28/2020	10:46	-132.356	42.917	0	462.50	0	5.0830	0	36.8560	8	29.142	0	458.321	0	39.0	4	12.9	4	-1E+10	1	-1E+10	1	-1E+10	1	-1E+10	1	-1E+10	1	-1E+10	1
4901784	185	C	07/28/2020	10:46	-132.356	42.917	0	465.20	0	5.0730	0	36.8570	8	29.145	0	460.994	0	38.6	4	12.7	4	-1E+10	1	-1E+10	1	-1E+10	1	-1E+10	1	-1E+10	1	-1E+10	1
4901784	185	C	07/28/2020	10:46	-132.356	42.917	0	467.90	0	5.0680	0	36.8580	8	29.146	0	463.667	0	38.1	4	12.6	4	-1E+10	1	-1E+10	1	-1E+10	1	-1E+10	1	-1E+10	1	-1E+10	1
4901784	185	C	07/28/2020	10:46	-132.356	42.917	0	469.60	0	5.0630	0	36.8590	8	29.147	0	465.349	0	37.8	4	12.5	4	-1E+10	1	-1E+10	1	-1E+10	1	-1E+10	1	-1E+10	1	-1E+10	1
4901784	185	C	07/28/2020	10:46	-132.356	42.917	0	472.30	0	5.0460	0	36.8620	8	29.152	0	468.022	0	37.3	4	12.3	4	-1E+10	1	-1E+10	1	-1E+10	1	-1E+10	1	-1E+10	1	-1E+10	1
4901784	185	C	07/28/2020	10:46	-132.356	42.917	0	475.00	0	5.0290	0	36.8650	8	29.156	0	470.694	0	36.9	4	12.2	4	-1E+10	1	-1E+10	1	-1E+10	1	-1E+10	1	-1E+10	1	-1E+10	1
4901784	185	C	07/28/2020	10:46	-132.356	42.917	0	477.80	0	5.0230	0	36.8650	8	29.157	0	473.466	0	36.3	4	12.0	4	-1E+10	1	-1E+10	1	-1E+10	1	-1E+10	1	-1E+10	1	-1E+10	1
4901784	185	C	07/28/2020	10:46	-132.356	42.917	0	480.50	0	5.0050	0	36.8660	8	29.160	0	476.138	0	35.7	4	11.8	4	-1E+10	1	-1E+10	1	-1E+10	1	-1E+10	1	-1E+10	1	-1E+10	1
4901784	185	C	07/28/2020	10:46	-132.356	42.917	0	482.30	0	4.9790	0	36.8700	8	29.166	0	477.920	0	35.1	4	11.6	4	-1E+10	1	-1E+10	1	-1E+10	1	-1E+10	1	-1E+10	1	-1E+10	1
4901784	185	C	07/28/2020	10:46	-132.356	42.917	0	485.00	0	4.9630	0	36.8760	8	29.173	0	480.592	0	34.3	4	11.3	4	-1E+10	1	-1E+10	1	-1E+10	1	-1E+10	1	-1E+10	1	-1E+10	1
4901784	185	C	07/28/2020	10:46	-132.356	42.917	0	487.70	0	4.9690	0	36.8810	8	29.176	0	483.264	0	33.5	4	11.0	4	-1E+10	1	-1E+10	1	-1E+10	1	-1E+10	1	-1E+10	1	-1E+10	1
4901784	185	C	07/28/2020	10:46	-132.356	42.917	0	489.60	0	4.9600	0	36.8830	8	29.179	0	485.145	0	33.1	4	10.9	4	-1E+10	1	-1E+10	1	-1E+10	1	-1E+10	1	-1E+10	1	-1E+10	1
4901784	185	C	07/28/2020	10:46	-132.356	42.917	0	492.50	0	4.9610	0	36.8870	8	29.182	0	488.015	0	32.6	4	10.7	4	-1E+10	1	-1E+10	1	-1E+10	1	-1E+10	1	-1E+10	1	-1E+10	1
4901784	185	C	07/28/2020	10:46	-132.356	42.917	0	495.00	0	4.9560	0	36.8900	8	29.185	0	490.489	0	32.2	4	10.6	4	-1E+10	1	-1E+10	1	-1E+10	1	-1E+10	1	-1E+10	1	-1E+10	1
4901784	185	C	07/28/2020	10:46	-132.356	42.917	0	497.40	0	4.9440	0	36.8920	8	29.188	0	492.865	0	31.8	4	10.5	4	-1E+10	1	-1E+10	1	-1E+10	1	-1E+10	1	-1E+10	1	-1E+10	1
4901784	185	C	07/28/2020	10:46	-132.356	42.917	0	499.80	0	4.9350	0	36.8950	8	29.192	0	495.240	0	31.5	4	10.4	4	-1E+10	1	-1E+10	1	-1E+10	1	-1E+10	1	-1E+10	1	-1E+10	1
4901784	185	C	07/28/2020	10:46	-132.356	42.917	0	505.50	0	4.9200	0	36.8980	8	29.196	0	500.881	0	31.0	4	10.2	4	-1E+10	1	-1E+10	1	-1E+10	1	-1E+10	1	-1E+10	1	-1E+10	1
4901784	185	C	07/28/2020	10:46	-132.356	42.917	0	510.40	0	4.9090	0	36.9000	8	29.199	0	505.730	0	30.5	4	10.0	4	-1E+10	1	-1E+10	1	-1E+10	1	-1E+10	1	-1E+10	1	-1E+10	1
4901784	185	C	07/28/2020	10:46	-132.356	42.917	0	515.30	0	4.8930	0	36.9040	8	29.204	0	510.579	0	29.9	4	9.8	4	-1E+10	1	-1E+10	1	-1E+10	1	-1E+10	1	-1E+10	1	-1E+10	1
4901784	185	C	07/28/2020	10:46	-132.356	42.917	0	520.30	0	4.8810	0	36.9060	8	29.207	0	515.527	0	29.3	4	9.6	4	-1E+10	1	-1E+10	1	-1E+10	1	-1E+10	1	-1E+10	1	-1E+10	1
4901784	185	C	07/28/2020	10:46	-132.356	42.917	0	525.40	0	4.8640	0	36.9110	8	29.213	0	520.574	0	28.6	4	9.4	4	-1E+10	1	-1E+10	1	-1E+10	1	-1E+10	1	-1E+10	1	-1E+10	1
4901784	185	C	07/28/2020	10:46	-132.356	42.917	0	530.50	0	4.8480	0	36.9140	8	29.218	0	525.621	0	27.8	4	9.1	4	-1E+10	1	-1E+10	1	-1E+10	1	-1E+10	1	-1E+10	1	-1E+10	1
4901784	185	C	07/28/2020	10:46	-132.356	42.917	0	534.80	0	4.8290	0	36.9190	8	29.224	0	529.876	0	26.9	4	8.9	4	-1E+10	1	-1E+10	1	-1E+10	1	-1E+10	1	-1E+10	1	-1E+10	1
4901784	185	C	07/28/2020	10:46	-132.356	42.917	0	539.30	0	4.8000	0	36.9250	8	29.232	0	534.329	0	26.3	4	8.6	4	-1E+10	1	-1E+10	1	-1E+10	1	-1E+10	1	-1E+10	1	-1E+10	1
4901784	185	C	07/28/2020	10:46	-132.356	42.917	0	544.50	0	4.7810	0	36.9300	8	29.238	0	539.474	0	25.8	4	8.5	4	-1E+10	1	-1E+10	1	-1E+10	1	-1E+10	1	-1E+10	1	-1E+10	1
4901784	185	C	07/28/2020	10:46	-132.356	42.917	0	549.80	0	4.7630	0	36.9340	8	29.244	0	544.718	0	25.2	4	8.3	4	-1E+10	1	-1E+10	1	-1E+10	1	-1E+10	1	-1E+10	1	-1E+10	1
4901784	185	C	07/28/2020	10:46	-132.356	42.917	0	555.10	0	4.7480	0	36.9390	8	29.249	0	549.962	0	24.7	4	8.1	4	-1E+10	1	-1E+10	1	-1E+10	1	-1E+10	1	-1E+10	1	-1E+10	1
4901784	185	C	07/28/2020	10:46	-132.356	42.917	0	560.50	0	4.7380	0	36.9410	8	29.252	0	555.305	0	24.3	4	8.0	4	-1E+10	1	-1E+10	1	-1E+10	1	-1E+10	1	-1E+10	1	-1E+10	1
4901784	185	C	07/28/2020	10:46	-132.356	42.917	0	565.00	0	4.7310	0	36.9480	8	29.259	0	559.757	0	23.9	4	7.8	4	-1E+10	1	-1E+10	1	-1E+10	1	-1E+10	1	-1E+10	1	-1E+10	1
4901784	185	C	07/28/2020	10:46	-132.356	42.917	0	569.50	0	4.7240	0	36.9510	8	29.262	0	564.209	0	23.4	4	7.7	4	-1E+10	1	-1E+10	1	-1E+10	1	-1E+10	1	-1E+10	1	-1E+10	1
4901784	185	C	07/28/2020	10:46	-132.356	42.917	0	574.80	0	4.7110	0	36.9560	8	29.268	0	569.453	0	22.8	4	7.5	4	-1E+10	1	-1E+10	1	-1E+10	1	-1E+10	1	-1E+10	1	-1E+10	1
4901784	185	C	07/28/2020	10:46	-132.356	42.917	0	580.20	0	4.7010	0	36.9600	8	29.272	0	574.795	0	22.2	4	7.3	4	-1E+10	1	-1E+10	1	-1E+10	1	-1E+10	1	-1E+10	1	-1E+10	1
4901784	185	C	07/28/2020	10:46	-132.356	42.917	0	585.50	0	4.6880	0	36.9650	8	29.278	0	580.039	0	21.4	4	7.0	4	-1E+10	1	-1E+10	1	-1E+10	1	-1E+10	1	-1E+10	1	-1E+10	1
4901784	185	C	07/28/2020	10:46	-132.356	42.917	0	590.00	0	4.6750	0	36.9700	8	29.283	0	584.490	0	20.8	4	6.8	4	-1E+10	1	-1E+10	1	-1E+10	1	-1E+10	1	-1E+10	1	-1E+10	1
4901784	185	C	07/28/2020	10:46	-132.356	42.917	0	594.50	0	4.6590	0	36.9750	8	29.289	0	588.942	0	20.2	4	6.6	4	-1E+10	1	-1E+10	1	-1E+10	1	-1E+10	1	-1E+10	1	-1E+10	1
4901784	185	C	07/28/2020	10:46	-132.356	42.917	0	600.00	0	4.6450	0	36.9800	8	29.295	0	594.383	0	19.5	4	6.4	4	-1E+10	1	-1E+10	1	-1E+10	1	-1E+10	1	-1E+10	1	-1E+10	1
4901784	185	C	07/28/2020	10:46	-132.356	42.917	0	605.50	0	4.6220	0	36.9880	8	29.304	0	599.823	0	18.7	4	6.1	4	-1E+10	1	-1E+10	1	-1E+10	1	-1E+10	1	-1E+10	1	-1E+10	1
4901784	185	C	07/28/2020	10:46	-132.356	42.917	0	610.10	0	4.6110	0	36.9930	8	29.309	0	604.373	0	18.2	4	6.0	4	-1E+10	1	-1E+10	1	-1E+10	1	-1E+10	1	-1E+10	1	-1E+10	1
4901784	185	C	07/28/2020	10:46	-132.356	42.917	0	614.70	0	4.5990	0	36.9980	8	29.314	0	608.924	0	17.7	4	5.8	4	-1E+10	1	-1E+10	1	-1E+10	1	-1E+10	1	-1E+10	1	-1E+10	1
4901784	185	C	07/28/2020	10:46	-132.356	42.917	0	620.30	0	4.5810	0	37.0040	8	29.321	0	614.463	0	17.2	4	5.6	4	-1E+10	1	-1E+10	1	-1E+10	1	-1E+10	1	-1E+10	1	-1E+10	1
4901784	185	C	07/28/2020	10:46	-132.356	42.917	0	625.00	0	4.5690	0	37.0090	8	29.327	0	619.111	0	16.8	4	5.5	4	-1E+10	1	-1E+10	1	-1E+10	1	-1E+10	1	-1E+10	1	-1E+10	1
4901784	185	C	07/28/2020	10:46	-132.356	42.917	0	629.70	0	4.5550	0	37.0130	8	29.332	0	623.760	0	16.4	4	5.4	4	-1E+10	1	-1E+10	1	-1E+10	1	-1E+10	1	-1E+10	1	-1E+10	1
4901784	185	C	07/28/2020	10:46	-132.356	42.917	0	635.50	0	4.5320	0	37.0190	8	29.339	0	629.497	0	16.0	4	5.2	4	-1E+10	1	-1E+10	1	-1E+10	1	-1E+10	1	-1E+10	1	-1E+10	1
4901784	185	C	07/28/2020	10:46	-132.356	42.917	0	640.20	0	4.5190	0	37.0230	8	29.344	0	634.145	0	15.8	4	5.2	4	-1E+10	1	-1E+10	1	-1E+10	1	-1E+10	1	-1E+10	1	-1E+10	1
4901784	185	C	07/28/2020	10:46	-132.356	42.917	0	645.00	0	4.5060	0	37.0260	8	29.348	0	638.892	0	15.6	4	5.1	4	-1E+10	1	-1E+10	1	-1E+10	1	-1E+10	1	-1E+10	1	-1E+10	1
4901784	185	C	07/28/2020	10:46	-132.356	42.917	0	650.40	0	4.4890	0	37.0290	8	29.352	0	644.233	0	15.3	4	5.0	4	-1E+10	1	-1E+10	1	-1E+10	1	-1E+10	1	-1E+10	1	-1E+10	1
4901784	185	C	07/28/2020	10:46	-132.356	42.917	0	655.30	0	4.4640	0	37.0340	8	29.359	0	649.079	0	15.0	4	4.9	4	-1E+10	1	-1E+10	1	-1E+10	1	-1E+10	1	-1E+10	1	-1E+10	1
4901784	185	C	07/28/2020	10:46	-132.356	42.917	0	660.20	0	4.4370	0	37.0380	8	29.365	0	653.925	0	14.7	4	4.8	4	-1E+10	1	-1E+10	1	-1E+10	1	-1E+10	1	-1E+10	1	-1E+10	1
4901784	185	C	07/28/2020	10:46	-132.356	42.917	0	665.30	0	4.4300	0	37.0430	8	29.370	0	658.968	0	14.5	4	4.7	4	-1E+10	1	-1E+10	1	-1E+10	1	-1E+10	1	-1E+10	1	-1E+10	1
4901784	185	C	07/28/2020	10:46	-132.356	42.917	0	670.30	0	4.4120	0	37.0470	8	29.375	0	663.912	0	14.3	4	4.7	4	-1E+10	1	-1E+10	1	-1E+10	1	-1E+10	1	-1E+10	1	-1E+10	1
4901784	185	C	07/28/2020	10:46	-132.356	42.917	0	675.30	0	4.4040	0	37.0470	8	29.376	0	668.857	0	14.3	4	4.6	4	-1E+10	1	-1E+10	1	-1E+10	1	-1E+10	1	-1E+10	1	-1E+10	1
4901784	185	C	07/28/2020	10:46	-132.356	42.917	0	680.30	0	4.3810	0	37.0490	8	29.381	0	673.801	0	14.1	4	4.6	4	-1E+10	1	-1E+10	1	-1E+10	1	-1E+10	1	-1E+10	1	-1E+10	1
4901784	185	C	07/28/2020	10:46	-132.356	42.917	0	685.40	0	4.3600	0	37.0530	8	29.386	0	678.844	0	14.0	4	4.5	4	-1E+10	1	-1E+10	1	-1E+10	1	-1E+10	1	-1E+10	1	-1E+10	1
4901784	185	C	07/28/2020	10:46	-132.356	42.917	0	690.40	0	4.3550	0	37.0560	8	29.389	0	683.788	0	13.7	4	4.5	4	-1E+10	1	-1E+10	1	-1E+10	1	-1E+10	1	-1E+10	1	-1E+10	1
4901784	185	C	07/28/2020	10:46	-132.356	42.917	0	695.50	0	4.3420	0	37.0590	8	29.393	0	688.831	0	13.6	4	4.4	4	-1E+10	1	-1E+10	1	-1E+10	1	-1E+10	1	-1E+10	1	-1E+10	1
4901784	185	C	07/28/2020	10:46	-132.356	42.917	0	700.60	0	4.3180	0	37.0620	8	29.398	0	693.873	0	13.5	4	4.4	4	-1E+10	1	-1E+10	1	-1E+10	1	-1E+10	1	-1E+10	1	-1E+10	1
4901784	185	C	07/28/2020	10:46	-132.356	42.917	0	705.70	0	4.2950	0	37.0650	8	29.403	0	698.916	0	13.4	4	4.3	4	-1E+10	1	-1E+10	1	-1E+10	1	-1E+10	1	-1E+10	1	-1E+10	1
4901784	185	C	07/28/2020	10:46	-132.356	42.917	0	710.70	0	4.2710	0	37.0680	8	29.409	0	703.859	0	13.3	4	4.3	4	-1E+10	1	-1E+10	1	-1E+10	1	-1E+10	1	-1E+10	1	-1E+10	1
4901784	185	C	07/28/2020	10:46	-132.356	42.917	0	715.70	0	4.2520	0	37.0700	8	29.412	0	708.803	0	13.2	4	4.3	4	-1E+10	1	-1E+10	1	-1E+10	1	-1E+10	1	-1E+10	1	-1E+10	1
4901784	185	C	07/28/2020	10:46	-132.356	42.917	0	720.60	0	4.2440	0	37.0720	8	29.415	0	713.647	0	13.1	4	4.2	4	-1E+10	1	-1E+10	1	-1E+10	1	-1E+10	1	-1E+10	1	-1E+10	1
4901784	185	C	07/28/2020	10:46	-132.356	42.917	0	725.50	0	4.2240	0	37.0740	8	29.419	0	718.491	0	13.0	4	4.2	4	-1E+10	1	-1E+10	1	-1E+10	1	-1E+10	1	-1E+10	1	-1E+10	1
4901784	185	C	07/28/2020	10:46	-132.356	42.917	0	730.60	0	4.2140	0	37.0770	8	29.422	0	723.533	0	12.9	4	4.2	4	-1E+10	1	-1E+10	1	-1E+10	1	-1E+10	1	-1E+10	1	-1E+10	1
4901784	185	C	07/28/2020	10:46	-132.356	42.917	0	735.60	0	4.1920	0	37.0790	8	29.426	0	728.476	0	12.8	4	4.1	4	-1E+10	1	-1E+10	1	-1E+10	1	-1E+10	1	-1E+10	1	-1E+10	1
4901784	185	C	07/28/2020	10:46	-132.356	42.917	0	740.60	0	4.1680	0	37.0800	8	29.430	0	733.419	0	12.6	4	4.1	4	-1E+10	1	-1E+10	1	-1E+10	1	-1E+10	1	-1E+10	1	-1E+10	1
4901784	185	C	07/28/2020	10:46	-132.356	42.917	0	745.70	0	4.1290	0	37.0850	8	29.438	0	738.460	0	12.5	4	4.0	4	-1E+10	1	-1E+10	1	-1E+10	1	-1E+10	1	-1E+10	1	-1E+10	1
4901784	185	C	07/28/2020	10:46	-132.356	42.917	0	750.00	0	4.1340	0	37.0910	8	29.443	0	742.711	0	12.1	4	3.9	4	-1E+10	1	-1E+10	1	-1E+10	1	-1E+10	1	-1E+10	1	-1E+10	1
4901784	185	C	07/28/2020	10:46	-132.356	42.917	0	754.30	0	4.1470	0	37.1000	8	29.448	0	746.962	0	11.9	4	3.8	4	-1E+10	1	-1E+10	1	-1E+10	1	-1E+10	1	-1E+10	1	-1E+10	1
4901784	185	C	07/28/2020	10:46	-132.356	42.917	0	759.40	0	4.1310	0	37.1020	8	29.452	0	752.003	0	11.8	4	3.8	4	-1E+10	1	-1E+10	1	-1E+10	1	-1E+10	1	-1E+10	1	-1E+10	1
4901784	185	C	07/28/2020	10:46	-132.356	42.917	0	764.50	0	4.0730	0	37.1040	8	29.460	0	757.044	0	11.8	4	3.8	4	-1E+10	1	-1E+10	1	-1E+10	1	-1E+10	1	-1E+10	1	-1E+10	1
4901784	185	C	07/28/2020	10:46	-132.356	42.917	0	769.60	0	4.0530	0	37.1060	8	29.464	0	762.085	0	11.7	4	3.8	4	-1E+10	1	-1E+10	1	-1E+10	1	-1E+10	1	-1E+10	1	-1E+10	1
4901784	185	C	07/28/2020	10:46	-132.356	42.917	0	774.70	0	4.0310	0	37.1120	8	29.471	0	767.126	0	11.6	4	3.8	4	-1E+10	1	-1E+10	1	-1E+10	1	-1E+10	1	-1E+10	1	-1E+10	1
4901784	185	C	07/28/2020	10:46	-132.356	42.917	0	779.80	0	4.0170	0	37.1140	8	29.474	0	772.166	0	11.5	4	3.7	4	-1E+10	1	-1E+10	1	-1E+10	1	-1E+10	1	-1E+10	1	-1E+10	1
4901784	185	C	07/28/2020	10:46	-132.356	42.917	0	784.90	0	4.0050	0	37.1170	8	29.478	0	777.207	0	11.5	4	3.7	4	-1E+10	1	-1E+10	1	-1E+10	1	-1E+10	1	-1E+10	1	-1E+10	1
4901784	185	C	07/28/2020	10:46	-132.356	42.917	0	790.00	0	3.9990	0	37.1190	8	29.480	0	782.247	0	11.4	4	3.7	4	-1E+10	1	-1E+10	1	-1E+10	1	-1E+10	1	-1E+10	1	-1E+10	1
4901784	185	C	07/28/2020	10:46	-132.356	42.917	0	795.10	0	3.9910	0	37.1210	8	29.483	0	787.288	0	11.3	4	3.7	4	-1E+10	1	-1E+10	1	-1E+10	1	-1E+10	1	-1E+10	1	-1E+10	1
4901784	185	C	07/28/2020	10:46	-132.356	42.917	0	800.10	0	3.9780	0	37.1240	8	29.486	0	792.229	0	11.2	4	3.6	4	-1E+10	1	-1E+10	1	-1E+10	1	-1E+10	1	-1E+10	1	-1E+10	1
4901784	185	C	07/28/2020	10:46	-132.356	42.917	0	805.20	0	3.9560	0	37.1270	8	29.491	0	797.269	0	11.1	4	3.6	4	-1E+10	1	-1E+10	1	-1E+10	1	-1E+10	1	-1E+10	1	-1E+10	1
4901784	185	C	07/28/2020	10:46	-132.356	42.917	0	810.30	0	3.9220	0	37.1320	8	29.499	0	802.309	0	11.1	4	3.6	4	-1E+10	1	-1E+10	1	-1E+10	1	-1E+10	1	-1E+10	1	-1E+10	1
4901784	185	C	07/28/2020	10:46	-132.356	42.917	0	815.40	0	3.8990	0	37.1360	8	29.505	0	807.349	0	11.0	4	3.5	4	-1E+10	1	-1E+10	1	-1E+10	1	-1E+10	1	-1E+10	1	-1E+10	1
4901784	185	C	07/28/2020	10:46	-132.356	42.917	0	820.50	0	3.8810	0	37.1400	8	29.510	0	812.389	0	10.8	4	3.5	4	-1E+10	1	-1E+10	1	-1E+10	1	-1E+10	1	-1E+10	1	-1E+10	1
4901784	185	C	07/28/2020	10:46	-132.356	42.917	0	825.60	0	3.8630	0	37.1440	8	29.515	0	817.428	0	10.8	4	3.5	4	-1E+10	1	-1E+10	1	-1E+10	1	-1E+10	1	-1E+10	1	-1E+10	1
4901784	185	C	07/28/2020	10:46	-132.356	42.917	0	830.00	0	3.8560	0	37.1470	8	29.518	0	821.776	0	10.7	4	3.4	4	-1E+10	1	-1E+10	1	-1E+10	1	-1E+10	1	-1E+10	1	-1E+10	1
4901784	185	C	07/28/2020	10:46	-132.356	42.917	0	834.30	0	3.8520	0	37.1500	8	29.521	0	826.025	0	10.6	4	3.4	4	-1E+10	1	-1E+10	1	-1E+10	1	-1E+10	1	-1E+10	1	-1E+10	1
4901784	185	C	07/28/2020	10:46	-132.356	42.917	0	839.60	0	3.8340	0	37.1560	8	29.528	0	831.262	0	10.5	4	3.4	4	-1E+10	1	-1E+10	1	-1E+10	1	-1E+10	1	-1E+10	1	-1E+10	1
4901784	185	C	07/28/2020	10:46	-132.356	42.917	0	844.80	0	3.8220	0	37.1600	8	29.532	0	836.400	0	10.4	4	3.4	4	-1E+10	1	-1E+10	1	-1E+10	1	-1E+10	1	-1E+10	1	-1E+10	1
4901784	185	C	07/28/2020	10:46	-132.356	42.917	0	850.00	0	3.8100	0	37.1630	8	29.536	0	841.538	0	10.4	4	3.3	4	-1E+10	1	-1E+10	1	-1E+10	1	-1E+10	1	-1E+10	1	-1E+10	1
4901784	185	C	07/28/2020	10:46	-132.356	42.917	0	855.30	0	3.7960	0	37.1660	8	29.540	0	846.774	0	10.3	4	3.3	4	-1E+10	1	-1E+10	1	-1E+10	1	-1E+10	1	-1E+10	1	-1E+10	1
4901784	185	C	07/28/2020	10:46	-132.356	42.917	0	860.60	0	3.7810	0	37.1700	8	29.545	0	852.011	0	10.2	4	3.3	4	-1E+10	1	-1E+10	1	-1E+10	1	-1E+10	1	-1E+10	1	-1E+10	1
4901784	185	C	07/28/2020	10:46	-132.356	42.917	0	865.00	0	3.7640	0	37.1760	8	29.552	0	856.358	0	10.2	4	3.3	4	-1E+10	1	-1E+10	1	-1E+10	1	-1E+10	1	-1E+10	1	-1E+10	1
4901784	185	C	07/28/2020	10:46	-132.356	42.917	0	869.40	0	3.7510	0	37.1800	8	29.556	0	860.705	0	10.1	4	3.3	4	-1E+10	1	-1E+10	1	-1E+10	1	-1E+10	1	-1E+10	1	-1E+10	1
4901784	185	C	07/28/2020	10:46	-132.356	42.917	0	874.70	0	3.7440	0	37.1820	8	29.559	0	865.941	0	10.1	4	3.2	4	-1E+10	1	-1E+10	1	-1E+10	1	-1E+10	1	-1E+10	1	-1E+10	1
4901784	185	C	07/28/2020	10:46	-132.356	42.917	0	880.10	0	3.7300	0	37.1870	8	29.564	0	871.275	0	10.0	4	3.2	4	-1E+10	1	-1E+10	1	-1E+10	1	-1E+10	1	-1E+10	1	-1E+10	1
4901784	185	C	07/28/2020	10:46	-132.356	42.917	0	885.50	0	3.7180	0	37.1900	8	29.568	0	876.610	0	10.0	4	3.2	4	-1E+10	1	-1E+10	1	-1E+10	1	-1E+10	1	-1E+10	1	-1E+10	1
4901784	185	C	07/28/2020	10:46	-132.356	42.917	0	890.10	0	3.7090	0	37.1930	8	29.571	0	881.154	0	10.0	4	3.2	4	-1E+10	1	-1E+10	1	-1E+10	1	-1E+10	1	-1E+10	1	-1E+10	1
4901784	185	C	07/28/2020	10:46	-132.356	42.917	0	894.70	0	3.6900	0	37.1980	8	29.577	0	885.698	0	10.0	4	3.2	4	-1E+10	1	-1E+10	1	-1E+10	1	-1E+10	1	-1E+10	1	-1E+10	1
4901784	185	C	07/28/2020	10:46	-132.356	42.917	0	900.00	0	3.6760	0	37.2010	8	29.581	0	890.934	0	10.0	4	3.2	4	-1E+10	1	-1E+10	1	-1E+10	1	-1E+10	1	-1E+10	1	-1E+10	1
4901784	185	C	07/28/2020	10:46	-132.356	42.917	0	905.00	0	3.6650	0	37.2040	8	29.585	0	895.872	0	9.9	4	3.2	4	-1E+10	1	-1E+10	1	-1E+10	1	-1E+10	1	-1E+10	1	-1E+10	1
4901784	185	C	07/28/2020	10:46	-132.356	42.917	0	910.70	0	3.6530	0	37.2080	8	29.589	0	901.503	0	9.9	4	3.2	4	-1E+10	1	-1E+10	1	-1E+10	1	-1E+10	1	-1E+10	1	-1E+10	1
4901784	185	C	07/28/2020	10:46	-132.356	42.917	0	915.70	0	3.6420	0	37.2100	8	29.592	0	906.441	0	9.9	4	3.2	4	-1E+10	1	-1E+10	1	-1E+10	1	-1E+10	1	-1E+10	1	-1E+10	1
4901784	185	C	07/28/2020	10:46	-132.356	42.917	0	920.60	0	3.6350	0	37.2130	8	29.595	0	911.281	0	10.0	4	3.2	4	-1E+10	1	-1E+10	1	-1E+10	1	-1E+10	1	-1E+10	1	-1E+10	1
4901784	185	C	07/28/2020	10:46	-132.356	42.917	0	925.50	0	3.6270	0	37.2150	8	29.598	0	916.121	0	10.0	4	3.2	4	-1E+10	1	-1E+10	1	-1E+10	1	-1E+10	1	-1E+10	1	-1E+10	1
4901784	185	C	07/28/2020	10:46	-132.356	42.917	0	930.50	0	3.6130	0	37.2180	8	29.602	0	921.059	0	10.0	4	3.2	4	-1E+10	1	-1E+10	1	-1E+10	1	-1E+10	1	-1E+10	1	-1E+10	1
4901784	185	C	07/28/2020	10:46	-132.356	42.917	0	935.60	0	3.6050	0	37.2210	8	29.605	0	926.096	0	10.0	4	3.2	4	-1E+10	1	-1E+10	1	-1E+10	1	-1E+10	1	-1E+10	1	-1E+10	1
4901784	185	C	07/28/2020	10:46	-132.356	42.917	0	940.60	0	3.5990	0	37.2230	8	29.607	0	931.034	0	10.0	4	3.2	4	-1E+10	1	-1E+10	1	-1E+10	1	-1E+10	1	-1E+10	1	-1E+10	1
4901784	185	C	07/28/2020	10:46	-132.356	42.917	0	944.90	0	3.5830	0	37.2270	8	29.612	0	935.281	0	10.0	4	3.2	4	-1E+10	1	-1E+10	1	-1E+10	1	-1E+10	1	-1E+10	1	-1E+10	1
4901784	185	C	07/28/2020	10:46	-132.356	42.917	0	949.20	0	3.5720	0	37.2290	8	29.615	0	939.528	0	10.0	4	3.2	4	-1E+10	1	-1E+10	1	-1E+10	1	-1E+10	1	-1E+10	1	-1E+10	1
4901784	185	C	07/28/2020	10:46	-132.356	42.917	0	954.40	0	3.5590	0	37.2320	8	29.619	0	944.663	0	10.1	4	3.2	4	-1E+10	1	-1E+10	1	-1E+10	1	-1E+10	1	-1E+10	1	-1E+10	1
4901784	185	C	07/28/2020	10:46	-132.356	42.917	0	959.60	0	3.5480	0	37.2350	8	29.622	0	949.798	0	10.1	4	3.2	4	-1E+10	1	-1E+10	1	-1E+10	1	-1E+10	1	-1E+10	1	-1E+10	1
4901784	185	C	07/28/2020	10:46	-132.356	42.917	0	964.90	0	3.5410	0	37.2380	8	29.625	0	955.032	0	10.1	4	3.2	4	-1E+10	1	-1E+10	1	-1E+10	1	-1E+10	1	-1E+10	1	-1E+10	1
4901784	185	C	07/28/2020	10:46	-132.356	42.917	0	970.10	0	3.5300	0	37.2410	8	29.629	0	960.167	0	10.2	4	3.2	4	-1E+10	1	-1E+10	1	-1E+10	1	-1E+10	1	-1E+10	1	-1E+10	1
4901784	185	C	07/28/2020	10:46	-132.356	42.917	0	975.40	0	3.5190	0	37.2430	8	29.632	0	965.400	0	10.2	4	3.3	4	-1E+10	1	-1E+10	1	-1E+10	1	-1E+10	1	-1E+10	1	-1E+10	1
4901784	185	C	07/28/2020	10:46	-132.356	42.917	0	980.00	0	3.5130	0	37.2450	8	29.634	0	969.942	0	10.2	4	3.3	4	-1E+10	1	-1E+10	1	-1E+10	1	-1E+10	1	-1E+10	1	-1E+10	1
4901784	185	C	07/28/2020	10:46	-132.356	42.917	0	984.40	0	3.5000	0	37.2480	8	29.638	0	974.287	0	10.3	4	3.3	4	-1E+10	1	-1E+10	1	-1E+10	1	-1E+10	1	-1E+10	1	-1E+10	1
4901784	185	C	07/28/2020	10:46	-132.356	42.917	0	989.90	0	3.4880	0	37.2510	8	29.641	0	979.718	0	10.3	4	3.3	4	-1E+10	1	-1E+10	1	-1E+10	1	-1E+10	1	-1E+10	1	-1E+10	1
4901784	185	C	07/28/2020	10:46	-132.356	42.917	0	995.30	0	3.4720	0	37.2550	8	29.646	0	985.049	0	10.4	4	3.3	4	-1E+10	1	-1E+10	1	-1E+10	1	-1E+10	1	-1E+10	1	-1E+10	1
4901784	185	C	07/28/2020	10:46	-132.356	42.917	0	999.90	0	3.4680	0	37.2560	8	29.648	0	989.591	0	10.5	4	3.3	4	-1E+10	1	-1E+10	1	-1E+10	1	-1E+10	1	-1E+10	1	-1E+10	1
4901784	185	C	07/28/2020	10:46	-132.356	42.917	0	1004.90	0	3.4520	0	37.2600	8	29.652	0	994.528	0	10.5	4	3.4	4	-1E+10	1	-1E+10	1	-1E+10	1	-1E+10	1	-1E+10	1	-1E+10	1
4901784	185	C	07/28/2020	10:46	-132.356	42.917	0	1010.00	0	3.4400	0	37.2630	8	29.656	0	999.563	0	10.6	4	3.4	4	-1E+10	1	-1E+10	1	-1E+10	1	-1E+10	1	-1E+10	1	-1E+10	1
4901784	185	C	07/28/2020	10:46	-132.356	42.917	0	1014.80	0	3.4300	0	37.2660	8	29.660	0	1004.302	0	10.7	4	3.4	4	-1E+10	1	-1E+10	1	-1E+10	1	-1E+10	1	-1E+10	1	-1E+10	1
4901784	185	C	07/28/2020	10:46	-132.356	42.917	0	1019.60	0	3.4180	0	37.2680	8	29.662	0	1009.041	0	10.7	4	3.4	4	-1E+10	1	-1E+10	1	-1E+10	1	-1E+10	1	-1E+10	1	-1E+10	1
4901784	185	C	07/28/2020	10:46	-132.356	42.917	0	1024.50	0	3.4050	0	37.2710	8	29.666	0	1013.878	0	10.8	4	3.4	4	-1E+10	1	-1E+10	1	-1E+10	1	-1E+10	1	-1E+10	1	-1E+10	1
4901784	185	C	07/28/2020	10:46	-132.356	42.917	0	1029.40	0	3.3900	0	37.2750	8	29.671	0	1018.715	0	10.9	4	3.5	4	-1E+10	1	-1E+10	1	-1E+10	1	-1E+10	1	-1E+10	1	-1E+10	1
4901784	185	C	07/28/2020	10:46	-132.356	42.917	0	1034.30	0	3.3880	0	37.2750	8	29.671	0	1023.553	0	10.9	4	3.5	4	-1E+10	1	-1E+10	1	-1E+10	1	-1E+10	1	-1E+10	1	-1E+10	1
4901784	185	C	07/28/2020	10:46	-132.356	42.917	0	1039.30	0	3.3780	0	37.2770	8	29.674	0	1028.488	0	11.0	4	3.5	4	-1E+10	1	-1E+10	1	-1E+10	1	-1E+10	1	-1E+10	1	-1E+10	1
4901784	185	C	07/28/2020	10:46	-132.356	42.917	0	1044.40	0	3.3560	0	37.2820	8	29.680	0	1033.523	0	11.2	4	3.6	4	-1E+10	1	-1E+10	1	-1E+10	1	-1E+10	1	-1E+10	1	-1E+10	1
4901784	185	C	07/28/2020	10:46	-132.356	42.917	0	1049.50	0	3.3410	0	37.2860	8	29.685	0	1038.557	0	11.3	4	3.6	4	-1E+10	1	-1E+10	1	-1E+10	1	-1E+10	1	-1E+10	1	-1E+10	1
4901784	185	C	07/28/2020	10:46	-132.356	42.917	0	1054.60	0	3.3340	0	37.2870	8	29.687	0	1043.591	0	11.3	4	3.6	4	-1E+10	1	-1E+10	1	-1E+10	1	-1E+10	1	-1E+10	1	-1E+10	1
4901784	185	C	07/28/2020	10:46	-132.356	42.917	0	1059.90	0	3.3220	0	37.2900	8	29.690	0	1048.823	0	11.5	4	3.6	4	-1E+10	1	-1E+10	1	-1E+10	1	-1E+10	1	-1E+10	1	-1E+10	1
4901784	185	C	07/28/2020	10:46	-132.356	42.917	0	1065.10	0	3.3040	0	37.2940	8	29.695	0	1053.955	0	11.6	4	3.7	4	-1E+10	1	-1E+10	1	-1E+10	1	-1E+10	1	-1E+10	1	-1E+10	1
4901784	185	C	07/28/2020	10:46	-132.356	42.917	0	1070.30	0	3.2980	0	37.2950	8	29.697	0	1059.088	0	11.6	4	3.7	4	-1E+10	1	-1E+10	1	-1E+10	1	-1E+10	1	-1E+10	1	-1E+10	1
4901784	185	C	07/28/2020	10:46	-132.356	42.917	0	1075.60	0	3.2870	0	37.2970	8	29.699	0	1064.319	0	11.8	4	3.7	4	-1E+10	1	-1E+10	1	-1E+10	1	-1E+10	1	-1E+10	1	-1E+10	1
4901784	185	C	07/28/2020	10:46	-132.356	42.917	0	1080.10	0	3.2780	0	37.2990	8	29.702	0	1068.760	0	11.9	4	3.8	4	-1E+10	1	-1E+10	1	-1E+10	1	-1E+10	1	-1E+10	1	-1E+10	1
4901784	185	C	07/28/2020	10:46	-132.356	42.917	0	1084.60	0	3.2650	0	37.3020	8	29.706	0	1073.201	0	12.0	4	3.8	4	-1E+10	1	-1E+10	1	-1E+10	1	-1E+10	1	-1E+10	1	-1E+10	1
4901784	185	C	07/28/2020	10:46	-132.356	42.917	0	1090.10	0	3.2580	0	37.3040	8	29.708	0	1078.629	0	12.1	4	3.8	4	-1E+10	1	-1E+10	1	-1E+10	1	-1E+10	1	-1E+10	1	-1E+10	1
4901784	185	C	07/28/2020	10:46	-132.356	42.917	0	1094.60	0	3.2450	0	37.3060	8	29.711	0	1083.070	0	12.2	4	3.9	4	-1E+10	1	-1E+10	1	-1E+10	1	-1E+10	1	-1E+10	1	-1E+10	1
4901784	185	C	07/28/2020	10:46	-132.356	42.917	0	1099.60	0	3.2310	0	37.3090	8	29.715	0	1088.005	0	12.4	4	3.9	4	-1E+10	1	-1E+10	1	-1E+10	1	-1E+10	1	-1E+10	1	-1E+10	1
4901784	185	C	07/28/2020	10:46	-132.356	42.917	0	1104.60	0	3.2180	0	37.3120	8	29.719	0	1092.939	0	12.5	4	4.0	4	-1E+10	1	-1E+10	1	-1E+10	1	-1E+10	1	-1E+10	1	-1E+10	1
4901784	185	C	07/28/2020	10:46	-132.356	42.917	0	1109.50	0	3.2070	0	37.3140	8	29.721	0	1097.775	0	12.6	4	4.0	4	-1E+10	1	-1E+10	1	-1E+10	1	-1E+10	1	-1E+10	1	-1E+10	1
4901784	185	C	07/28/2020	10:46	-132.356	42.917	0	1115.40	0	3.1990	0	37.3160	8	29.724	0	1103.597	0	12.8	4	4.1	4	-1E+10	1	-1E+10	1	-1E+10	1	-1E+10	1	-1E+10	1	-1E+10	1
4901784	185	C	07/28/2020	10:46	-132.356	42.917	0	1120.30	0	3.1870	0	37.3180	8	29.727	0	1108.432	0	13.0	4	4.1	4	-1E+10	1	-1E+10	1	-1E+10	1	-1E+10	1	-1E+10	1	-1E+10	1
4901784	185	C	07/28/2020	10:46	-132.356	42.917	0	1125.30	0	3.1760	0	37.3210	8	29.730	0	1113.366	0	13.1	4	4.1	4	-1E+10	1	-1E+10	1	-1E+10	1	-1E+10	1	-1E+10	1	-1E+10	1
4901784	185	C	07/28/2020	10:46	-132.356	42.917	0	1130.20	0	3.1630	0	37.3220	8	29.732	0	1118.201	0	13.2	4	4.2	4	-1E+10	1	-1E+10	1	-1E+10	1	-1E+10	1	-1E+10	1	-1E+10	1
4901784	185	C	07/28/2020	10:46	-132.356	42.917	0	1135.10	0	3.1460	0	37.3260	8	29.737	0	1123.036	0	13.4	4	4.2	4	-1E+10	1	-1E+10	1	-1E+10	1	-1E+10	1	-1E+10	1	-1E+10	1
4901784	185	C	07/28/2020	10:46	-132.356	42.917	0	1140.10	0	3.1390	0	37.3270	8	29.739	0	1127.969	0	13.5	4	4.3	4	-1E+10	1	-1E+10	1	-1E+10	1	-1E+10	1	-1E+10	1	-1E+10	1
4901784	185	C	07/28/2020	10:46	-132.356	42.917	0	1145.10	0	3.1250	0	37.3300	8	29.743	0	1132.902	0	13.7	4	4.3	4	-1E+10	1	-1E+10	1	-1E+10	1	-1E+10	1	-1E+10	1	-1E+10	1
4901784	185	C	07/28/2020	10:46	-132.356	42.917	0	1150.10	0	3.1170	0	37.3310	8	29.744	0	1137.836	0	13.8	4	4.4	4	-1E+10	1	-1E+10	1	-1E+10	1	-1E+10	1	-1E+10	1	-1E+10	1
4901784	185	C	07/28/2020	10:46	-132.356	42.917	0	1155.10	0	3.1020	0	37.3350	8	29.749	0	1142.769	0	14.0	4	4.4	4	-1E+10	1	-1E+10	1	-1E+10	1	-1E+10	1	-1E+10	1	-1E+10	1
4901784	185	C	07/28/2020	10:46	-132.356	42.917	0	1160.20	0	3.0950	0	37.3370	8	29.751	0	1147.800	0	14.1	4	4.5	4	-1E+10	1	-1E+10	1	-1E+10	1	-1E+10	1	-1E+10	1	-1E+10	1
4901784	185	C	07/28/2020	10:46	-132.356	42.917	0	1165.30	0	3.0940	0	37.3380	8	29.752	0	1152.832	0	14.2	4	4.5	4	-1E+10	1	-1E+10	1	-1E+10	1	-1E+10	1	-1E+10	1	-1E+10	1
4901784	185	C	07/28/2020	10:46	-132.356	42.917	0	1170.40	0	3.0910	0	37.3390	8	29.753	0	1157.863	0	14.3	4	4.5	4	-1E+10	1	-1E+10	1	-1E+10	1	-1E+10	1	-1E+10	1	-1E+10	1
4901784	185	C	07/28/2020	10:46	-132.356	42.917	0	1174.40	0	3.0790	0	37.3400	8	29.755	0	1161.809	0	14.4	4	4.6	4	-1E+10	1	-1E+10	1	-1E+10	1	-1E+10	1	-1E+10	1	-1E+10	1
4901784	185	C	07/28/2020	10:46	-132.356	42.917	0	1179.50	0	3.0710	0	37.3410	8	29.757	0	1166.840	0	14.5	4	4.6	4	-1E+10	1	-1E+10	1	-1E+10	1	-1E+10	1	-1E+10	1	-1E+10	1
4901784	185	C	07/28/2020	10:46	-132.356	42.917	0	1184.60	0	3.0570	0	37.3430	8	29.760	0	1171.871	0	14.8	4	4.7	4	-1E+10	1	-1E+10	1	-1E+10	1	-1E+10	1	-1E+10	1	-1E+10	1
4901784	185	C	07/28/2020	10:46	-132.356	42.917	0	1189.60	0	3.0440	0	37.3450	8	29.763	0	1176.804	0	14.9	4	4.7	4	-1E+10	1	-1E+10	1	-1E+10	1	-1E+10	1	-1E+10	1	-1E+10	1
4901784	185	C	07/28/2020	10:46	-132.356	42.917	0	1194.60	0	3.0280	0	37.3480	8	29.767	0	1181.736	0	15.1	4	4.8	4	-1E+10	1	-1E+10	1	-1E+10	1	-1E+10	1	-1E+10	1	-1E+10	1
4901784	185	C	07/28/2020	10:46	-132.356	42.917	0	1199.70	0	3.0160	0	37.3500	8	29.770	0	1186.767	0	15.3	4	4.8	4	-1E+10	1	-1E+10	1	-1E+10	1	-1E+10	1	-1E+10	1	-1E+10	1
4901784	185	C	07/28/2020	10:46	-132.356	42.917	0	1204.80	0	3.0060	0	37.3510	8	29.772	0	1191.797	0	15.4	4	4.9	4	-1E+10	1	-1E+10	1	-1E+10	1	-1E+10	1	-1E+10	1	-1E+10	1
4901784	185	C	07/28/2020	10:46	-132.356	42.917	0	1209.80	0	2.9940	0	37.3540	8	29.775	0	1196.729	0	15.6	4	4.9	4	-1E+10	1	-1E+10	1	-1E+10	1	-1E+10	1	-1E+10	1	-1E+10	1
4901784	185	C	07/28/2020	10:46	-132.356	42.917	0	1214.90	0	2.9810	0	37.3560	8	29.778	0	1201.759	0	15.7	4	5.0	4	-1E+10	1	-1E+10	1	-1E+10	1	-1E+10	1	-1E+10	1	-1E+10	1
4901784	185	C	07/28/2020	10:46	-132.356	42.917	0	1220.00	0	2.9770	0	37.3570	8	29.779	0	1206.790	0	15.8	4	5.0	4	-1E+10	1	-1E+10	1	-1E+10	1	-1E+10	1	-1E+10	1	-1E+10	1
4901784	185	C	07/28/2020	10:46	-132.356	42.917	0	1225.10	0	2.9710	0	37.3580	8	29.781	0	1211.820	0	15.9	4	5.0	4	-1E+10	1	-1E+10	1	-1E+10	1	-1E+10	1	-1E+10	1	-1E+10	1
4901784	185	C	07/28/2020	10:46	-132.356	42.917	0	1230.10	0	2.9630	0	37.3590	8	29.782	0	1216.751	0	16.0	4	5.1	4	-1E+10	1	-1E+10	1	-1E+10	1	-1E+10	1	-1E+10	1	-1E+10	1
4901784	185	C	07/28/2020	10:46	-132.356	42.917	0	1234.80	0	2.9560	0	37.3600	8	29.784	0	1221.386	0	16.2	4	5.1	4	-1E+10	1	-1E+10	1	-1E+10	1	-1E+10	1	-1E+10	1	-1E+10	1
4901784	185	C	07/28/2020	10:46	-132.356	42.917	0	1239.40	0	2.9510	0	37.3620	8	29.786	0	1225.923	0	16.3	4	5.1	4	-1E+10	1	-1E+10	1	-1E+10	1	-1E+10	1	-1E+10	1	-1E+10	1
4901784	185	C	07/28/2020	10:46	-132.356	42.917	0	1245.00	0	2.9450	0	37.3630	8	29.787	0	1231.446	0	16.5	4	5.2	4	-1E+10	1	-1E+10	1	-1E+10	1	-1E+10	1	-1E+10	1	-1E+10	1
4901784	185	C	07/28/2020	10:46	-132.356	42.917	0	1249.70	0	2.9380	0	37.3650	8	29.790	0	1236.081	0	16.6	4	5.2	4	-1E+10	1	-1E+10	1	-1E+10	1	-1E+10	1	-1E+10	1	-1E+10	1
4901784	185	C	07/28/2020	10:46	-132.356	42.917	0	1254.20	0	2.9320	0	37.3660	8	29.791	0	1240.518	0	16.8	4	5.3	4	-1E+10	1	-1E+10	1	-1E+10	1	-1E+10	1	-1E+10	1	-1E+10	1
4901784	185	C	07/28/2020	10:46	-132.356	42.917	0	1259.70	0	2.9200	0	37.3680	8	29.794	0	1245.942	0	16.9	4	5.3	4	-1E+10	1	-1E+10	1	-1E+10	1	-1E+10	1	-1E+10	1	-1E+10	1
4901784	185	C	07/28/2020	10:46	-132.356	42.917	0	1264.50	0	2.9140	0	37.3700	8	29.796	0	1250.676	0	17.0	4	5.4	4	-1E+10	1	-1E+10	1	-1E+10	1	-1E+10	1	-1E+10	1	-1E+10	1
4901784	185	C	07/28/2020	10:46	-132.356	42.917	0	1269.40	0	2.9080	0	37.3710	8	29.798	0	1255.507	0	17.1	4	5.4	4	-1E+10	1	-1E+10	1	-1E+10	1	-1E+10	1	-1E+10	1	-1E+10	1
4901784	185	C	07/28/2020	10:46	-132.356	42.917	0	1274.30	0	2.9040	0	37.3710	8	29.798	0	1260.339	0	17.2	4	5.4	4	-1E+10	1	-1E+10	1	-1E+10	1	-1E+10	1	-1E+10	1	-1E+10	1
4901784	185	C	07/28/2020	10:46	-132.356	42.917	0	1279.30	0	2.8950	0	37.3730	8	29.801	0	1265.269	0	17.4	4	5.5	4	-1E+10	1	-1E+10	1	-1E+10	1	-1E+10	1	-1E+10	1	-1E+10	1
4901784	185	C	07/28/2020	10:46	-132.356	42.917	0	1284.30	0	2.8900	0	37.3740	8	29.802	0	1270.199	0	17.6	4	5.5	4	-1E+10	1	-1E+10	1	-1E+10	1	-1E+10	1	-1E+10	1	-1E+10	1
4901784	185	C	07/28/2020	10:46	-132.356	42.917	0	1289.20	0	2.8840	0	37.3750	8	29.803	0	1275.031	0	17.7	4	5.6	4	-1E+10	1	-1E+10	1	-1E+10	1	-1E+10	1	-1E+10	1	-1E+10	1
4901784	185	C	07/28/2020	10:46	-132.356	42.917	0	1295.00	0	2.8690	0	37.3770	8	29.806	0	1280.749	0	18.0	4	5.7	4	-1E+10	1	-1E+10	1	-1E+10	1	-1E+10	1	-1E+10	1	-1E+10	1
4901784	185	C	07/28/2020	10:46	-132.356	42.917	0	1300.70	0	2.8550	0	37.3800	8	29.810	0	1286.369	0	18.3	4	5.7	4	-1E+10	1	-1E+10	1	-1E+10	1	-1E+10	1	-1E+10	1	-1E+10	1
4901784	185	C	07/28/2020	10:46	-132.356	42.917	0	1305.70	0	2.8450	0	37.3820	8	29.813	0	1291.299	0	18.4	4	5.8	4	-1E+10	1	-1E+10	1	-1E+10	1	-1E+10	1	-1E+10	1	-1E+10	1
4901784	185	C	07/28/2020	10:46	-132.356	42.917	0	1310.80	0	2.8390	0	37.3830	8	29.814	0	1296.327	0	18.6	4	5.9	4	-1E+10	1	-1E+10	1	-1E+10	1	-1E+10	1	-1E+10	1	-1E+10	1
4901784	185	C	07/28/2020	10:46	-132.356	42.917	0	1315.00	0	2.8320	0	37.3840	8	29.816	0	1300.468	0	18.8	4	5.9	4	-1E+10	1	-1E+10	1	-1E+10	1	-1E+10	1	-1E+10	1	-1E+10	1
4901784	185	C	07/28/2020	10:46	-132.356	42.917	0	1319.20	0	2.8220	0	37.3860	8	29.818	0	1304.608	0	19.0	4	6.0	4	-1E+10	1	-1E+10	1	-1E+10	1	-1E+10	1	-1E+10	1	-1E+10	1
4901784	185	C	07/28/2020	10:46	-132.356	42.917	0	1324.30	0	2.8110	0	37.3880	8	29.821	0	1309.636	0	19.3	4	6.1	4	-1E+10	1	-1E+10	1	-1E+10	1	-1E+10	1	-1E+10	1	-1E+10	1
4901784	185	C	07/28/2020	10:46	-132.356	42.917	0	1329.40	0	2.8060	0	37.3890	8	29.822	0	1314.664	0	19.5	4	6.1	4	-1E+10	1	-1E+10	1	-1E+10	1	-1E+10	1	-1E+10	1	-1E+10	1
4901784	185	C	07/28/2020	10:46	-132.356	42.917	0	1334.60	0	2.7960	0	37.3910	8	29.825	0	1319.790	0	19.9	4	6.3	4	-1E+10	1	-1E+10	1	-1E+10	1	-1E+10	1	-1E+10	1	-1E+10	1
4901784	185	C	07/28/2020	10:46	-132.356	42.917	0	1339.70	0	2.7830	0	37.3940	8	29.828	0	1324.817	0	20.3	4	6.4	4	-1E+10	1	-1E+10	1	-1E+10	1	-1E+10	1	-1E+10	1	-1E+10	1
4901784	185	C	07/28/2020	10:46	-132.356	42.917	0	1344.90	0	2.7820	0	37.3950	8	29.829	0	1329.943	0	20.5	4	6.4	4	-1E+10	1	-1E+10	1	-1E+10	1	-1E+10	1	-1E+10	1	-1E+10	1
4901784	185	C	07/28/2020	10:46	-132.356	42.917	0	1350.20	0	2.7660	0	37.3970	8	29.833	0	1335.167	0	20.6	4	6.5	4	-1E+10	1	-1E+10	1	-1E+10	1	-1E+10	1	-1E+10	1	-1E+10	1
4901784	185	C	07/28/2020	10:46	-132.356	42.917	0	1355.40	0	2.7540	0	37.3970	8	29.834	0	1340.293	0	20.7	4	6.5	4	-1E+10	1	-1E+10	1	-1E+10	1	-1E+10	1	-1E+10	1	-1E+10	1
4901784	185	C	07/28/2020	10:46	-132.356	42.917	0	1360.60	0	2.7500	0	37.3980	8	29.835	0	1345.418	0	20.9	4	6.6	4	-1E+10	1	-1E+10	1	-1E+10	1	-1E+10	1	-1E+10	1	-1E+10	1
4901784	185	C	07/28/2020	10:46	-132.356	42.917	0	1365.70	0	2.7380	0	37.3990	8	29.837	0	1350.445	0	21.2	4	6.7	4	-1E+10	1	-1E+10	1	-1E+10	1	-1E+10	1	-1E+10	1	-1E+10	1
4901784	185	C	07/28/2020	10:46	-132.356	42.917	0	1370.00	0	2.7240	0	37.4020	8	29.841	0	1354.683	0	21.6	4	6.8	4	-1E+10	1	-1E+10	1	-1E+10	1	-1E+10	1	-1E+10	1	-1E+10	1
4901784	185	C	07/28/2020	10:46	-132.356	42.917	0	1374.40	0	2.7170	0	37.4030	8	29.842	0	1359.020	0	21.9	4	6.9	4	-1E+10	1	-1E+10	1	-1E+10	1	-1E+10	1	-1E+10	1	-1E+10	1
4901784	185	C	07/28/2020	10:46	-132.356	42.917	0	1379.60	0	2.7120	0	37.4060	8	29.845	0	1364.145	0	22.4	4	7.0	4	-1E+10	1	-1E+10	1	-1E+10	1	-1E+10	1	-1E+10	1	-1E+10	1
4901784	185	C	07/28/2020	10:46	-132.356	42.917	0	1384.80	0	2.7080	0	37.4080	8	29.847	0	1369.270	0	22.7	4	7.1	4	-1E+10	1	-1E+10	1	-1E+10	1	-1E+10	1	-1E+10	1	-1E+10	1
4901784	185	C	07/28/2020	10:46	-132.356	42.917	0	1390.10	0	2.6900	0	37.4090	8	29.850	0	1374.493	0	23.0	4	7.2	4	-1E+10	1	-1E+10	1	-1E+10	1	-1E+10	1	-1E+10	1	-1E+10	1
4901784	185	C	07/28/2020	10:46	-132.356	42.917	0	1395.40	0	2.6910	0	37.4120	8	29.852	0	1379.716	0	23.5	4	7.4	4	-1E+10	1	-1E+10	1	-1E+10	1	-1E+10	1	-1E+10	1	-1E+10	1
4901784	185	C	07/28/2020	10:46	-132.356	42.917	0	1400.70	0	2.6820	0	37.4130	8	29.854	0	1384.939	0	23.6	4	7.4	4	-1E+10	1	-1E+10	1	-1E+10	1	-1E+10	1	-1E+10	1	-1E+10	1
4901784	185	C	07/28/2020	10:46	-132.356	42.917	0	1405.10	0	2.6660	0	37.4140	8	29.856	0	1389.275	0	23.7	4	7.4	4	-1E+10	1	-1E+10	1	-1E+10	1	-1E+10	1	-1E+10	1	-1E+10	1
4901784	185	C	07/28/2020	10:46	-132.356	42.917	0	1409.50	0	2.6490	0	37.4150	8	29.858	0	1393.611	0	23.8	4	7.5	4	-1E+10	1	-1E+10	1	-1E+10	1	-1E+10	1	-1E+10	1	-1E+10	1
4901784	185	C	07/28/2020	10:46	-132.356	42.917	0	1414.70	0	2.6410	0	37.4170	8	29.861	0	1398.735	0	24.2	4	7.6	4	-1E+10	1	-1E+10	1	-1E+10	1	-1E+10	1	-1E+10	1	-1E+10	1
4901784	185	C	07/28/2020	10:46	-132.356	42.917	0	1420.00	0	2.6380	0	37.4180	8	29.862	0	1403.958	0	24.5	4	7.7	4	-1E+10	1	-1E+10	1	-1E+10	1	-1E+10	1	-1E+10	1	-1E+10	1
4901784	185	C	07/28/2020	10:46	-132.356	42.917	0	1425.40	0	2.6170	0	37.4190	8	29.865	0	1409.279	0	24.5	4	7.7	4	-1E+10	1	-1E+10	1	-1E+10	1	-1E+10	1	-1E+10	1	-1E+10	1
4901784	185	C	07/28/2020	10:46	-132.356	42.917	0	1430.70	0	2.6030	0	37.4210	8	29.868	0	1414.501	0	24.8	4	7.8	4	-1E+10	1	-1E+10	1	-1E+10	1	-1E+10	1	-1E+10	1	-1E+10	1
4901784	185	C	07/28/2020	10:46	-132.356	42.917	0	1435.20	0	2.5910	0	37.4220	8	29.870	0	1418.935	0	25.1	4	7.8	4	-1E+10	1	-1E+10	1	-1E+10	1	-1E+10	1	-1E+10	1	-1E+10	1
4901784	185	C	07/28/2020	10:46	-132.356	42.917	0	1439.60	0	2.5820	0	37.4240	8	29.872	0	1423.270	0	25.3	4	7.9	4	-1E+10	1	-1E+10	1	-1E+10	1	-1E+10	1	-1E+10	1	-1E+10	1
4901784	185	C	07/28/2020	10:46	-132.356	42.917	0	1444.80	0	2.5730	0	37.4250	8	29.874	0	1428.394	0	25.5	4	8.0	4	-1E+10	1	-1E+10	1	-1E+10	1	-1E+10	1	-1E+10	1	-1E+10	1
4901784	185	C	07/28/2020	10:46	-132.356	42.917	0	1449.50	0	2.5640	0	37.4260	8	29.875	0	1433.024	0	25.8	4	8.1	4	-1E+10	1	-1E+10	1	-1E+10	1	-1E+10	1	-1E+10	1	-1E+10	1
4901784	185	C	07/28/2020	10:46	-132.356	42.917	0	1455.00	0	2.5550	0	37.4280	8	29.878	0	1438.443	0	26.1	4	8.2	4	-1E+10	1	-1E+10	1	-1E+10	1	-1E+10	1	-1E+10	1	-1E+10	1
4901784	185	C	07/28/2020	10:46	-132.356	42.917	0	1460.60	0	2.5470	0	37.4290	8	29.879	0	1443.960	0	26.5	4	8.3	4	-1E+10	1	-1E+10	1	-1E+10	1	-1E+10	1	-1E+10	1	-1E+10	1
4901784	185	C	07/28/2020	10:46	-132.356	42.917	0	1465.40	0	2.5390	0	37.4310	8	29.882	0	1448.689	0	26.9	4	8.4	4	-1E+10	1	-1E+10	1	-1E+10	1	-1E+10	1	-1E+10	1	-1E+10	1
4901784	185	C	07/28/2020	10:46	-132.356	42.917	0	1470.40	0	2.5320	0	37.4330	8	29.884	0	1453.615	0	27.3	4	8.5	4	-1E+10	1	-1E+10	1	-1E+10	1	-1E+10	1	-1E+10	1	-1E+10	1
4901784	185	C	07/28/2020	10:46	-132.356	42.917	0	1475.30	0	2.5180	0	37.4340	8	29.886	0	1458.442	0	27.5	4	8.6	4	-1E+10	1	-1E+10	1	-1E+10	1	-1E+10	1	-1E+10	1	-1E+10	1
4901784	185	C	07/28/2020	10:46	-132.356	42.917	0	1480.40	0	2.5080	0	37.4360	8	29.889	0	1463.466	0	27.6	4	8.6	4	-1E+10	1	-1E+10	1	-1E+10	1	-1E+10	1	-1E+10	1	-1E+10	1
4901784	185	C	07/28/2020	10:46	-132.356	42.917	0	1485.40	0	2.5040	0	37.4360	8	29.889	0	1468.392	0	27.9	4	8.7	4	-1E+10	1	-1E+10	1	-1E+10	1	-1E+10	1	-1E+10	1	-1E+10	1
4901784	185	C	07/28/2020	10:46	-132.356	42.917	0	1490.40	0	2.4980	0	37.4370	8	29.891	0	1473.317	0	28.3	4	8.8	4	-1E+10	1	-1E+10	1	-1E+10	1	-1E+10	1	-1E+10	1	-1E+10	1
4901784	185	C	07/28/2020	10:46	-132.356	42.917	0	1495.40	0	2.4880	0	37.4390	8	29.893	0	1478.242	0	28.7	4	9.0	4	-1E+10	1	-1E+10	1	-1E+10	1	-1E+10	1	-1E+10	1	-1E+10	1
4901784	185	C	07/28/2020	10:46	-132.356	42.917	0	1500.40	0	2.4750	0	37.4410	8	29.896	0	1483.167	0	29.1	4	9.1	4	-1E+10	1	-1E+10	1	-1E+10	1	-1E+10	1	-1E+10	1	-1E+10	1
4901784	185	C	07/28/2020	10:46	-132.356	42.917	0	1505.50	0	2.4640	0	37.4430	8	29.899	0	1488.191	0	29.4	4	9.2	4	-1E+10	1	-1E+10	1	-1E+10	1	-1E+10	1	-1E+10	1	-1E+10	1
4901784	185	C	07/28/2020	10:46	-132.356	42.917	0	1510.60	0	2.4610	0	37.4440	8	29.900	0	1493.214	0	29.5	4	9.2	4	-1E+10	1	-1E+10	1	-1E+10	1	-1E+10	1	-1E+10	1	-1E+10	1
4901784	185	C	07/28/2020	10:46	-132.356	42.917	0	1515.70	0	2.4520	0	37.4440	8	29.901	0	1498.237	0	29.7	4	9.3	4	-1E+10	1	-1E+10	1	-1E+10	1	-1E+10	1	-1E+10	1	-1E+10	1
4901784	185	C	07/28/2020	10:46	-132.356	42.917	0	1520.80	0	2.4460	0	37.4450	8	29.902	0	1503.261	0	30.1	4	9.4	4	-1E+10	1	-1E+10	1	-1E+10	1	-1E+10	1	-1E+10	1	-1E+10	1
4901784	185	C	07/28/2020	10:46	-132.356	42.917	0	1525.10	0	2.4390	0	37.4460	8	29.903	0	1507.496	0	30.4	4	9.5	4	-1E+10	1	-1E+10	1	-1E+10	1	-1E+10	1	-1E+10	1	-1E+10	1
4901784	185	C	07/28/2020	10:46	-132.356	42.917	0	1529.40	0	2.4290	0	37.4480	8	29.906	0	1511.731	0	30.8	4	9.6	4	-1E+10	1	-1E+10	1	-1E+10	1	-1E+10	1	-1E+10	1	-1E+10	1
4901784	185	C	07/28/2020	10:46	-132.356	42.917	0	1534.60	0	2.4220	0	37.4500	8	29.908	0	1516.852	0	31.1	4	9.7	4	-1E+10	1	-1E+10	1	-1E+10	1	-1E+10	1	-1E+10	1	-1E+10	1
4901784	185	C	07/28/2020	10:46	-132.356	42.917	0	1539.90	0	2.4100	0	37.4510	8	29.910	0	1522.072	0	31.4	4	9.8	4	-1E+10	1	-1E+10	1	-1E+10	1	-1E+10	1	-1E+10	1	-1E+10	1
4901784	185	C	07/28/2020	10:46	-132.356	42.917	0	1545.20	0	2.4020	0	37.4530	8	29.913	0	1527.291	0	31.5	4	9.8	4	-1E+10	1	-1E+10	1	-1E+10	1	-1E+10	1	-1E+10	1	-1E+10	1
4901784	185	C	07/28/2020	10:46	-132.356	42.917	0	1550.50	0	2.3970	0	37.4530	8	29.913	0	1532.510	0	31.7	4	9.9	4	-1E+10	1	-1E+10	1	-1E+10	1	-1E+10	1	-1E+10	1	-1E+10	1
4901784	185	C	07/28/2020	10:46	-132.356	42.917	0	1555.00	0	2.3930	0	37.4530	8	29.913	0	1536.942	0	32.0	4	10.0	4	-1E+10	1	-1E+10	1	-1E+10	1	-1E+10	1	-1E+10	1	-1E+10	1
4901784	185	C	07/28/2020	10:46	-132.356	42.917	0	1559.40	0	2.3860	0	37.4550	8	29.916	0	1541.275	0	32.3	4	10.1	4	-1E+10	1	-1E+10	1	-1E+10	1	-1E+10	1	-1E+10	1	-1E+10	1
4901784	185	C	07/28/2020	10:46	-132.356	42.917	0	1564.80	0	2.3790	0	37.4560	8	29.917	0	1546.592	0	32.7	4	10.2	4	-1E+10	1	-1E+10	1	-1E+10	1	-1E+10	1	-1E+10	1	-1E+10	1
4901784	185	C	07/28/2020	10:46	-132.356	42.917	0	1570.30	0	2.3720	0	37.4580	8	29.919	0	1552.008	0	33.0	4	10.3	4	-1E+10	1	-1E+10	1	-1E+10	1	-1E+10	1	-1E+10	1	-1E+10	1
4901784	185	C	07/28/2020	10:46	-132.356	42.917	0	1574.80	0	2.3660	0	37.4580	8	29.920	0	1556.439	0	33.3	4	10.3	4	-1E+10	1	-1E+10	1	-1E+10	1	-1E+10	1	-1E+10	1	-1E+10	1
4901784	185	C	07/28/2020	10:46	-132.356	42.917	0	1579.40	0	2.3560	0	37.4600	8	29.923	0	1560.969	0	33.7	4	10.5	4	-1E+10	1	-1E+10	1	-1E+10	1	-1E+10	1	-1E+10	1	-1E+10	1
4901784	185	C	07/28/2020	10:46	-132.356	42.917	0	1584.90	0	2.3480	0	37.4620	8	29.925	0	1566.384	0	34.2	4	10.6	4	-1E+10	1	-1E+10	1	-1E+10	1	-1E+10	1	-1E+10	1	-1E+10	1
4901784	185	C	07/28/2020	10:46	-132.356	42.917	0	1590.40	0	2.3450	0	37.4640	8	29.927	0	1571.799	0	34.7	4	10.8	4	-1E+10	1	-1E+10	1	-1E+10	1	-1E+10	1	-1E+10	1	-1E+10	1
4901784	185	C	07/28/2020	10:46	-132.356	42.917	0	1595.00	0	2.3450	0	37.4650	8	29.928	0	1576.328	0	35.1	4	10.9	4	-1E+10	1	-1E+10	1	-1E+10	1	-1E+10	1	-1E+10	1	-1E+10	1
4901784	185	C	07/28/2020	10:46	-132.356	42.917	0	1599.60	0	2.3440	0	37.4670	8	29.929	0	1580.857	0	35.6	4	11.1	4	-1E+10	1	-1E+10	1	-1E+10	1	-1E+10	1	-1E+10	1	-1E+10	1
4901784	185	C	07/28/2020	10:46	-132.356	42.917	0	1605.00	0	2.3410	0	37.4680	8	29.930	0	1586.174	0	35.6	4	11.1	4	-1E+10	1	-1E+10	1	-1E+10	1	-1E+10	1	-1E+10	1	-1E+10	1
4901784	185	C	07/28/2020	10:46	-132.356	42.917	0	1610.50	0	2.3390	0	37.4680	8	29.931	0	1591.589	0	35.8	4	11.1	4	-1E+10	1	-1E+10	1	-1E+10	1	-1E+10	1	-1E+10	1	-1E+10	1
4901784	185	C	07/28/2020	10:46	-132.356	42.917	0	1615.40	0	2.3290	0	37.4680	8	29.932	0	1596.413	0	35.8	4	11.1	4	-1E+10	1	-1E+10	1	-1E+10	1	-1E+10	1	-1E+10	1	-1E+10	1
4901784	185	C	07/28/2020	10:46	-132.356	42.917	0	1620.40	0	2.3040	0	37.4680	8	29.934	0	1601.335	0	35.9	4	11.2	4	-1E+10	1	-1E+10	1	-1E+10	1	-1E+10	1	-1E+10	1	-1E+10	1
4901784	185	C	07/28/2020	10:46	-132.356	42.917	0	1625.30	0	2.2950	0	37.4700	8	29.936	0	1606.159	0	36.2	4	11.2	4	-1E+10	1	-1E+10	1	-1E+10	1	-1E+10	1	-1E+10	1	-1E+10	1
4901784	185	C	07/28/2020	10:46	-132.356	42.917	0	1630.30	0	2.2870	0	37.4710	8	29.938	0	1611.081	0	36.5	4	11.3	4	-1E+10	1	-1E+10	1	-1E+10	1	-1E+10	1	-1E+10	1	-1E+10	1
4901784	185	C	07/28/2020	10:46	-132.356	42.917	0	1635.30	0	2.2820	0	37.4720	8	29.939	0	1616.003	0	37.0	4	11.5	4	-1E+10	1	-1E+10	1	-1E+10	1	-1E+10	1	-1E+10	1	-1E+10	1
4901784	185	C	07/28/2020	10:46	-132.356	42.917	0	1640.50	0	2.2750	0	37.4730	8	29.941	0	1621.122	0	37.4	4	11.6	4	-1E+10	1	-1E+10	1	-1E+10	1	-1E+10	1	-1E+10	1	-1E+10	1
4901784	185	C	07/28/2020	10:46	-132.356	42.917	0	1645.60	0	2.2650	0	37.4740	8	29.942	0	1626.142	0	37.9	4	11.8	4	-1E+10	1	-1E+10	1	-1E+10	1	-1E+10	1	-1E+10	1	-1E+10	1
4901784	185	C	07/28/2020	10:46	-132.356	42.917	0	1650.70	0	2.2600	0	37.4760	8	29.944	0	1631.162	0	38.5	4	11.9	4	-1E+10	1	-1E+10	1	-1E+10	1	-1E+10	1	-1E+10	1	-1E+10	1
4901784	185	C	07/28/2020	10:46	-132.356	42.917	0	1655.80	0	2.2450	0	37.4790	8	29.948	0	1636.182	0	38.8	4	12.0	4	-1E+10	1	-1E+10	1	-1E+10	1	-1E+10	1	-1E+10	1	-1E+10	1
4901784	185	C	07/28/2020	10:46	-132.356	42.917	0	1660.00	0	2.2470	0	37.4790	8	29.948	0	1640.316	0	39.1	4	12.1	4	-1E+10	1	-1E+10	1	-1E+10	1	-1E+10	1	-1E+10	1	-1E+10	1
4901784	185	C	07/28/2020	10:46	-132.356	42.917	0	1664.30	0	2.2460	0	37.4800	8	29.949	0	1644.548	0	39.3	4	12.2	4	-1E+10	1	-1E+10	1	-1E+10	1	-1E+10	1	-1E+10	1	-1E+10	1
4901784	185	C	07/28/2020	10:46	-132.356	42.917	0	1669.50	0	2.2390	0	37.4800	8	29.950	0	1649.666	0	39.4	4	12.2	4	-1E+10	1	-1E+10	1	-1E+10	1	-1E+10	1	-1E+10	1	-1E+10	1
4901784	185	C	07/28/2020	10:46	-132.356	42.917	0	1674.60	0	2.2290	0	37.4810	8	29.951	0	1654.686	0	39.7	4	12.3	4	-1E+10	1	-1E+10	1	-1E+10	1	-1E+10	1	-1E+10	1	-1E+10	1
4901784	185	C	07/28/2020	10:46	-132.356	42.917	0	1679.70	0	2.2250	0	37.4830	8	29.953	0	1659.705	0	40.1	4	12.4	4	-1E+10	1	-1E+10	1	-1E+10	1	-1E+10	1	-1E+10	1	-1E+10	1
4901784	185	C	07/28/2020	10:46	-132.356	42.917	0	1685.00	0	2.2260	0	37.4840	8	29.954	0	1664.921	0	40.8	4	12.6	4	-1E+10	1	-1E+10	1	-1E+10	1	-1E+10	1	-1E+10	1	-1E+10	1
4901784	185	C	07/28/2020	10:46	-132.356	42.917	0	1690.20	0	2.2190	0	37.4850	8	29.956	0	1670.039	0	41.1	4	12.7	4	-1E+10	1	-1E+10	1	-1E+10	1	-1E+10	1	-1E+10	1	-1E+10	1
4901784	185	C	07/28/2020	10:46	-132.356	42.917	0	1695.50	0	2.2110	0	37.4870	8	29.958	0	1675.255	0	41.8	4	13.0	4	-1E+10	1	-1E+10	1	-1E+10	1	-1E+10	1	-1E+10	1	-1E+10	1
4901784	185	C	07/28/2020	10:46	-132.356	42.917	0	1699.90	0	2.2030	0	37.4880	8	29.959	0	1679.585	0	42.2	4	13.1	4	-1E+10	1	-1E+10	1	-1E+10	1	-1E+10	1	-1E+10	1	-1E+10	1
4901784	185	C	07/28/2020	10:46	-132.356	42.917	0	1704.30	0	2.1880	0	37.4900	8	29.962	0	1683.915	0	42.7	4	13.2	4	-1E+10	1	-1E+10	1	-1E+10	1	-1E+10	1	-1E+10	1	-1E+10	1
4901784	185	C	07/28/2020	10:46	-132.356	42.917	0	1709.70	0	2.1820	0	37.4920	8	29.965	0	1689.229	0	43.2	4	13.4	4	-1E+10	1	-1E+10	1	-1E+10	1	-1E+10	1	-1E+10	1	-1E+10	1
4901784	185	C	07/28/2020	10:46	-132.356	42.917	0	1715.70	0	2.1760	0	37.4940	8	29.967	0	1695.133	0	43.7	4	13.5	4	-1E+10	1	-1E+10	1	-1E+10	1	-1E+10	1	-1E+10	1	-1E+10	1
4901784	185	C	07/28/2020	10:46	-132.356	42.917	0	1720.60	0	2.1690	0	37.4950	8	29.968	0	1699.955	0	44.2	4	13.7	4	-1E+10	1	-1E+10	1	-1E+10	1	-1E+10	1	-1E+10	1	-1E+10	1
4901784	185	C	07/28/2020	10:46	-132.356	42.917	0	1725.40	0	2.1560	0	37.4970	8	29.971	0	1704.678	0	44.6	4	13.8	4	-1E+10	1	-1E+10	1	-1E+10	1	-1E+10	1	-1E+10	1	-1E+10	1
4901784	185	C	07/28/2020	10:46	-132.356	42.917	0	1730.10	0	2.1540	0	37.4970	8	29.971	0	1709.302	0	44.8	4	13.9	4	-1E+10	1	-1E+10	1	-1E+10	1	-1E+10	1	-1E+10	1	-1E+10	1
4901784	185	C	07/28/2020	10:46	-132.356	42.917	0	1734.90	0	2.1470	0	37.4990	8	29.973	0	1714.025	0	45.1	4	13.9	4	-1E+10	1	-1E+10	1	-1E+10	1	-1E+10	1	-1E+10	1	-1E+10	1
4901784	185	C	07/28/2020	10:46	-132.356	42.917	0	1739.80	0	2.1430	0	37.4990	8	29.974	0	1718.847	0	45.3	4	14.0	4	-1E+10	1	-1E+10	1	-1E+10	1	-1E+10	1	-1E+10	1	-1E+10	1
4901784	185	C	07/28/2020	10:46	-132.356	42.917	0	1744.60	0	2.1390	0	37.5000	8	29.975	0	1723.569	0	45.5	4	14.1	4	-1E+10	1	-1E+10	1	-1E+10	1	-1E+10	1	-1E+10	1	-1E+10	1
4901784	185	C	07/28/2020	10:46	-132.356	42.917	0	1749.60	0	2.1350	0	37.5010	8	29.976	0	1728.489	0	45.8	4	14.2	4	-1E+10	1	-1E+10	1	-1E+10	1	-1E+10	1	-1E+10	1	-1E+10	1
4901784	185	C	07/28/2020	10:46	-132.356	42.917	0	1754.50	0	2.1270	0	37.5020	8	29.978	0	1733.309	0	46.1	4	14.3	4	-1E+10	1	-1E+10	1	-1E+10	1	-1E+10	1	-1E+10	1	-1E+10	1
4901784	185	C	07/28/2020	10:46	-132.356	42.917	0	1759.60	0	2.1240	0	37.5030	8	29.979	0	1738.327	0	46.3	4	14.3	4	-1E+10	1	-1E+10	1	-1E+10	1	-1E+10	1	-1E+10	1	-1E+10	1
4901784	185	C	07/28/2020	10:46	-132.356	42.917	0	1764.70	0	2.1230	0	37.5030	8	29.979	0	1743.344	0	46.6	4	14.4	4	-1E+10	1	-1E+10	1	-1E+10	1	-1E+10	1	-1E+10	1	-1E+10	1
4901784	185	C	07/28/2020	10:46	-132.356	42.917	0	1769.80	0	2.1140	0	37.5040	8	29.981	0	1748.362	0	47.2	4	14.6	4	-1E+10	1	-1E+10	1	-1E+10	1	-1E+10	1	-1E+10	1	-1E+10	1
4901784	185	C	07/28/2020	10:46	-132.356	42.917	0	1774.90	0	2.1060	0	37.5060	8	29.983	0	1753.379	0	47.6	4	14.7	4	-1E+10	1	-1E+10	1	-1E+10	1	-1E+10	1	-1E+10	1	-1E+10	1
4901784	185	C	07/28/2020	10:46	-132.356	42.917	0	1780.10	0	2.0980	0	37.5070	8	29.984	0	1758.494	0	48.0	4	14.8	4	-1E+10	1	-1E+10	1	-1E+10	1	-1E+10	1	-1E+10	1	-1E+10	1
4901784	185	C	07/28/2020	10:46	-132.356	42.917	0	1785.30	0	2.0940	0	37.5080	8	29.986	0	1763.610	0	48.3	4	14.9	4	-1E+10	1	-1E+10	1	-1E+10	1	-1E+10	1	-1E+10	1	-1E+10	1
4901784	185	C	07/28/2020	10:46	-132.356	42.917	0	1790.60	0	2.0930	0	37.5090	8	29.986	0	1768.823	0	48.5	4	15.0	4	-1E+10	1	-1E+10	1	-1E+10	1	-1E+10	1	-1E+10	1	-1E+10	1
4901784	185	C	07/28/2020	10:46	-132.356	42.917	0	1795.10	0	2.0900	0	37.5100	8	29.988	0	1773.250	0	48.7	4	15.0	4	-1E+10	1	-1E+10	1	-1E+10	1	-1E+10	1	-1E+10	1	-1E+10	1
4901784	185	C	07/28/2020	10:46	-132.356	42.917	0	1799.40	0	2.0880	0	37.5100	8	29.988	0	1777.479	0	48.8	4	15.1	4	-1E+10	1	-1E+10	1	-1E+10	1	-1E+10	1	-1E+10	1	-1E+10	1
4901784	185	C	07/28/2020	10:46	-132.356	42.917	0	1804.50	0	2.0860	0	37.5110	8	29.989	0	1782.496	0	49.0	4	15.2	4	-1E+10	1	-1E+10	1	-1E+10	1	-1E+10	1	-1E+10	1	-1E+10	1
4901784	185	C	07/28/2020	10:46	-132.356	42.917	0	1810.00	0	2.0820	0	37.5110	8	29.989	0	1787.906	0	49.3	4	15.2	4	-1E+10	1	-1E+10	1	-1E+10	1	-1E+10	1	-1E+10	1	-1E+10	1
4901784	185	C	07/28/2020	10:46	-132.356	42.917	0	1815.60	0	2.0780	0	37.5120	8	29.990	0	1793.414	0	49.5	4	15.3	4	-1E+10	1	-1E+10	1	-1E+10	1	-1E+10	1	-1E+10	1	-1E+10	1
4901784	185	C	07/28/2020	10:46	-132.356	42.917	0	1820.50	0	2.0730	0	37.5130	8	29.992	0	1798.233	0	49.7	4	15.3	4	-1E+10	1	-1E+10	1	-1E+10	1	-1E+10	1	-1E+10	1	-1E+10	1
4901784	185	C	07/28/2020	10:46	-132.356	42.917	0	1825.30	0	2.0720	0	37.5140	8	29.993	0	1802.954	0	49.8	4	15.4	4	-1E+10	1	-1E+10	1	-1E+10	1	-1E+10	1	-1E+10	1	-1E+10	1
4901784	185	C	07/28/2020	10:46	-132.356	42.917	0	1830.30	0	2.0700	0	37.5140	8	29.993	0	1807.872	0	49.9	4	15.4	4	-1E+10	1	-1E+10	1	-1E+10	1	-1E+10	1	-1E+10	1	-1E+10	1
4901784	185	C	07/28/2020	10:46	-132.356	42.917	0	1835.20	0	2.0670	0	37.5130	8	29.992	0	1812.691	0	49.9	4	15.4	4	-1E+10	1	-1E+10	1	-1E+10	1	-1E+10	1	-1E+10	1	-1E+10	1
4901784	185	C	07/28/2020	10:46	-132.356	42.917	0	1840.20	0	2.0590	0	37.5130	8	29.993	0	1817.608	0	50.0	4	15.4	4	-1E+10	1	-1E+10	1	-1E+10	1	-1E+10	1	-1E+10	1	-1E+10	1
4901784	185	C	07/28/2020	10:46	-132.356	42.917	0	1845.20	0	2.0560	0	37.5140	8	29.994	0	1822.525	0	50.3	4	15.5	4	-1E+10	1	-1E+10	1	-1E+10	1	-1E+10	1	-1E+10	1	-1E+10	1
4901784	185	C	07/28/2020	10:46	-132.356	42.917	0	1850.40	0	2.0520	0	37.5160	8	29.996	0	1827.639	0	50.7	4	15.6	4	-1E+10	1	-1E+10	1	-1E+10	1	-1E+10	1	-1E+10	1	-1E+10	1
4901784	185	C	07/28/2020	10:46	-132.356	42.917	0	1855.60	0	2.0480	0	37.5160	8	29.996	0	1832.752	0	50.9	4	15.7	4	-1E+10	1	-1E+10	1	-1E+10	1	-1E+10	1	-1E+10	1	-1E+10	1
4901784	185	C	07/28/2020	10:46	-132.356	42.917	0	1860.70	0	2.0460	0	37.5170	8	29.997	0	1837.768	0	51.0	4	15.8	4	-1E+10	1	-1E+10	1	-1E+10	1	-1E+10	1	-1E+10	1	-1E+10	1
4901784	185	C	07/28/2020	10:46	-132.356	42.917	0	1865.80	0	2.0460	0	37.5170	8	29.997	0	1842.783	0	51.3	4	15.8	4	-1E+10	1	-1E+10	1	-1E+10	1	-1E+10	1	-1E+10	1	-1E+10	1
4901784	185	C	07/28/2020	10:46	-132.356	42.917	0	1870.00	0	2.0450	0	37.5180	8	29.998	0	1846.913	0	51.5	4	15.9	4	-1E+10	1	-1E+10	1	-1E+10	1	-1E+10	1	-1E+10	1	-1E+10	1
4901784	185	C	07/28/2020	10:46	-132.356	42.917	0	1874.30	0	2.0390	0	37.5180	8	29.999	0	1851.141	0	51.7	4	16.0	4	-1E+10	1	-1E+10	1	-1E+10	1	-1E+10	1	-1E+10	1	-1E+10	1
4901784	185	C	07/28/2020	10:46	-132.356	42.917	0	1879.50	0	2.0320	0	37.5190	8	30.000	0	1856.254	0	52.0	4	16.1	4	-1E+10	1	-1E+10	1	-1E+10	1	-1E+10	1	-1E+10	1	-1E+10	1
4901784	185	C	07/28/2020	10:46	-132.356	42.917	0	1884.60	0	2.0300	0	37.5210	8	30.002	0	1861.269	0	52.5	4	16.2	4	-1E+10	1	-1E+10	1	-1E+10	1	-1E+10	1	-1E+10	1	-1E+10	1
4901784	185	C	07/28/2020	10:46	-132.356	42.917	0	1889.90	0	2.0270	0	37.5210	8	30.003	0	1866.480	0	52.7	4	16.3	4	-1E+10	1	-1E+10	1	-1E+10	1	-1E+10	1	-1E+10	1	-1E+10	1
4901784	185	C	07/28/2020	10:46	-132.356	42.917	0	1895.20	0	2.0230	0	37.5220	8	30.004	0	1871.691	0	52.9	4	16.3	4	-1E+10	1	-1E+10	1	-1E+10	1	-1E+10	1	-1E+10	1	-1E+10	1
4901784	185	C	07/28/2020	10:46	-132.356	42.917	0	1900.50	0	2.0220	0	37.5230	8	30.005	0	1876.902	0	53.2	4	16.4	4	-1E+10	1	-1E+10	1	-1E+10	1	-1E+10	1	-1E+10	1	-1E+10	1
4901784	185	C	07/28/2020	10:46	-132.356	42.917	0	1904.90	0	2.0190	0	37.5230	8	30.005	0	1881.228	0	53.4	4	16.5	4	-1E+10	1	-1E+10	1	-1E+10	1	-1E+10	1	-1E+10	1	-1E+10	1
4901784	185	C	07/28/2020	10:46	-132.356	42.917	0	1909.30	0	2.0150	0	37.5240	8	30.006	0	1885.553	0	53.6	4	16.5	4	-1E+10	1	-1E+10	1	-1E+10	1	-1E+10	1	-1E+10	1	-1E+10	1
4901784	185	C	07/28/2020	10:46	-132.356	42.917	0	1914.70	0	2.0110	0	37.5240	8	30.006	0	1890.862	0	53.9	4	16.6	4	-1E+10	1	-1E+10	1	-1E+10	1	-1E+10	1	-1E+10	1	-1E+10	1
4901784	185	C	07/28/2020	10:46	-132.356	42.917	0	1920.00	0	2.0040	0	37.5250	8	30.008	0	1896.073	0	54.3	4	16.7	4	-1E+10	1	-1E+10	1	-1E+10	1	-1E+10	1	-1E+10	1	-1E+10	1
4901784	185	C	07/28/2020	10:46	-132.356	42.917	0	1925.50	0	1.9970	0	37.5260	8	30.009	0	1901.480	0	54.6	4	16.8	4	-1E+10	1	-1E+10	1	-1E+10	1	-1E+10	1	-1E+10	1	-1E+10	1
4901784	185	C	07/28/2020	10:46	-132.356	42.917	0	1930.00	0	1.9930	0	37.5270	8	30.011	0	1905.903	0	55.0	4	17.0	4	-1E+10	1	-1E+10	1	-1E+10	1	-1E+10	1	-1E+10	1	-1E+10	1
4901784	185	C	07/28/2020	10:46	-132.356	42.917	0	1934.50	0	1.9870	0	37.5280	8	30.012	0	1910.327	0	55.5	4	17.1	4	-1E+10	1	-1E+10	1	-1E+10	1	-1E+10	1	-1E+10	1	-1E+10	1
4901784	185	C	07/28/2020	10:46	-132.356	42.917	0	1939.90	0	1.9860	0	37.5290	8	30.013	0	1915.635	0	55.7	4	17.2	4	-1E+10	1	-1E+10	1	-1E+10	1	-1E+10	1	-1E+10	1	-1E+10	1
4901784	185	C	07/28/2020	10:46	-132.356	42.917	0	1945.30	0	1.9850	0	37.5290	8	30.013	0	1920.943	0	55.8	4	17.2	4	-1E+10	1	-1E+10	1	-1E+10	1	-1E+10	1	-1E+10	1	-1E+10	1
4901784	185	C	07/28/2020	10:46	-132.356	42.917	0	1949.80	0	1.9840	0	37.5300	8	30.014	0	1925.367	0	56.1	4	17.3	4	-1E+10	1	-1E+10	1	-1E+10	1	-1E+10	1	-1E+10	1	-1E+10	1
4901784	185	C	07/28/2020	10:46	-132.356	42.917	0	1954.10	0	1.9810	0	37.5300	8	30.014	0	1929.593	0	56.4	4	17.4	4	-1E+10	1	-1E+10	1	-1E+10	1	-1E+10	1	-1E+10	1	-1E+10	1
4901784	185	C	07/28/2020	10:46	-132.356	42.917	0	1959.40	0	1.9740	0	37.5310	8	30.016	0	1934.803	0	56.9	4	17.5	4	-1E+10	1	-1E+10	1	-1E+10	1	-1E+10	1	-1E+10	1	-1E+10	1
4901784	185	C	07/28/2020	10:46	-132.356	42.917	0	1964.90	0	1.9670	0	37.5320	8	30.017	0	1940.209	0	57.4	4	17.7	4	-1E+10	1	-1E+10	1	-1E+10	1	-1E+10	1	-1E+10	1	-1E+10	1
4901784	185	C	07/28/2020	10:46	-132.356	42.917	0	1970.50	0	1.9600	0	37.5340	8	30.019	0	1945.713	0	57.8	4	17.8	4	-1E+10	1	-1E+10	1	-1E+10	1	-1E+10	1	-1E+10	1	-1E+10	1
4901784	185	C	07/28/2020	10:46	-132.356	42.917	0	1975.40	0	1.9550	0	37.5350	8	30.020	0	1950.529	0	58.2	4	17.9	4	-1E+10	1	-1E+10	1	-1E+10	1	-1E+10	1	-1E+10	1	-1E+10	1
4901784	185	C	07/28/2020	10:46	-132.356	42.917	0	1980.30	0	1.9520	0	37.5350	8	30.021	0	1955.345	0	58.5	4	18.0	4	-1E+10	1	-1E+10	1	-1E+10	1	-1E+10	1	-1E+10	1	-1E+10	1
4901784	185	C	07/28/2020	10:46	-132.356	42.917	0	1985.30	0	1.9490	0	37.5360	8	30.022	0	1960.259	0	58.8	4	18.1	4	-1E+10	1	-1E+10	1	-1E+10	1	-1E+10	1	-1E+10	1	-1E+10	1
4901784	185	C	07/28/2020	10:46	-132.356	42.917	0	1990.80	0	1.9440	0	37.5370	8	30.023	0	1965.664	0	59.1	4	18.2	4	-1E+10	1	-1E+10	1	-1E+10	1	-1E+10	1	-1E+10	1	-1E+10	1
4901784	185	C	07/28/2020	10:46	-132.356	42.917	0	1995.20	0	1.9410	0	37.5370	8	30.023	0	1969.988	0	59.3	4	18.3	4	-1E+10	1	-1E+10	1	-1E+10	1	-1E+10	1	-1E+10	1	-1E+10	1
4901784	185	C	07/28/2020	10:46	-132.356	42.917	0	2000.10	0	1.9390	0	37.5380	8	30.024	0	1974.803	0	59.4	4	18.3	4	-1E+10	1	-1E+10	1	-1E+10	1	-1E+10	1	-1E+10	1	-1E+10	1
4901784	185	C	07/28/2020	10:46	-132.356	42.917	0	2005.20	0	1.9380	0	37.5380	8	30.025	0	1979.815	0	57.8	4	17.8	4	-1E+10	1	-1E+10	1	-1E+10	1	-1E+10	1	-1E+10	1	-1E+10	1
4901784	185	C	07/28/2020	10:46	-132.356	42.917	0																										
4901784	186	C	08/07/2020	10:49	-132.421	43.001	0	2.50	0	18.6400	0	34.6900	8	24.877	0	2.480	0	225.0	4	97.1	4	-1E+10	1	-1E+10	1	-1E+10	1	-1E+10	1	-1E+10	1	-1E+10	1
4901784	186	C	08/07/2020	10:49	-132.421	43.001	0	4.10	0	18.6370	0	34.6900	8	24.877	0	4.067	0	224.7	4	97.0	4	-1E+10	1	-1E+10	1	-1E+10	1	-1E+10	1	-1E+10	1	-1E+10	1
4901784	186	C	08/07/2020	10:49	-132.421	43.001	0	5.80	0	18.6370	0	34.6890	8	24.877	0	5.754	0	224.7	4	97.0	4	-1E+10	1	-1E+10	1	-1E+10	1	-1E+10	1	-1E+10	1	-1E+10	1
4901784	186	C	08/07/2020	10:49	-132.421	43.001	0	7.60	0	18.6380	0	34.6900	8	24.877	0	7.540	0	224.5	4	96.9	4	-1E+10	1	-1E+10	1	-1E+10	1	-1E+10	1	-1E+10	1	-1E+10	1
4901784	186	C	08/07/2020	10:49	-132.421	43.001	0	9.30	0	18.6350	0	34.6890	8	24.877	0	9.226	0	224.3	4	96.8	4	-1E+10	1	-1E+10	1	-1E+10	1	-1E+10	1	-1E+10	1	-1E+10	1
4901784	186	C	08/07/2020	10:49	-132.421	43.001	0	11.10	0	18.6350	0	34.6880	8	24.877	0	11.012	0	224.4	4	96.8	4	-1E+10	1	-1E+10	1	-1E+10	1	-1E+10	1	-1E+10	1	-1E+10	1
4901784	186	C	08/07/2020	10:49	-132.421	43.001	0	12.80	0	18.6190	0	34.6880	8	24.881	0	12.698	0	224.4	4	96.8	4	-1E+10	1	-1E+10	1	-1E+10	1	-1E+10	1	-1E+10	1	-1E+10	1
4901784	186	C	08/07/2020	10:49	-132.421	43.001	0	14.90	0	18.6180	0	34.6840	8	24.878	0	14.781	0	224.4	4	96.8	4	-1E+10	1	-1E+10	1	-1E+10	1	-1E+10	1	-1E+10	1	-1E+10	1
4901784	186	C	08/07/2020	10:49	-132.421	43.001	0	16.50	0	18.5880	0	34.6830	8	24.885	0	16.368	0	224.5	4	96.8	4	-1E+10	1	-1E+10	1	-1E+10	1	-1E+10	1	-1E+10	1	-1E+10	1
4901784	186	C	08/07/2020	10:49	-132.421	43.001	0	17.80	0	18.5560	0	34.6750	8	24.887	0	17.658	0	225.1	4	97.0	4	-1E+10	1	-1E+10	1	-1E+10	1	-1E+10	1	-1E+10	1	-1E+10	1
4901784	186	C	08/07/2020	10:49	-132.421	43.001	0	19.10	0	18.4970	0	34.6650	8	24.894	0	18.948	0	225.6	4	97.1	4	-1E+10	1	-1E+10	1	-1E+10	1	-1E+10	1	-1E+10	1	-1E+10	1
4901784	186	C	08/07/2020	10:49	-132.421	43.001	0	20.40	0	18.1990	0	34.6820	8	24.981	0	20.237	0	227.2	4	97.3	4	-1E+10	1	-1E+10	1	-1E+10	1	-1E+10	1	-1E+10	1	-1E+10	1
4901784	186	C	08/07/2020	10:49	-132.421	43.001	0	21.80	0	17.9750	0	34.6830	8	25.037	0	21.626	0	228.5	4	97.4	4	-1E+10	1	-1E+10	1	-1E+10	1	-1E+10	1	-1E+10	1	-1E+10	1
4901784	186	C	08/07/2020	10:49	-132.421	43.001	0	23.20	0	17.9260	0	34.6810	8	25.048	0	23.015	0	228.9	4	97.5	4	-1E+10	1	-1E+10	1	-1E+10	1	-1E+10	1	-1E+10	1	-1E+10	1
4901784	186	C	08/07/2020	10:49	-132.421	43.001	0	24.70	0	17.8520	0	34.6790	8	25.065	0	24.503	0	229.4	4	97.6	4	-1E+10	1	-1E+10	1	-1E+10	1	-1E+10	1	-1E+10	1	-1E+10	1
4901784	186	C	08/07/2020	10:49	-132.421	43.001	0	26.10	0	17.7580	0	34.6750	8	25.085	0	25.891	0	230.2	4	97.7	4	-1E+10	1	-1E+10	1	-1E+10	1	-1E+10	1	-1E+10	1	-1E+10	1
4901784	186	C	08/07/2020	10:49	-132.421	43.001	0	27.60	0	17.3770	0	34.7030	8	25.198	0	27.379	0	231.6	4	97.6	4	-1E+10	1	-1E+10	1	-1E+10	1	-1E+10	1	-1E+10	1	-1E+10	1
4901784	186	C	08/07/2020	10:49	-132.421	43.001	0	29.20	0	17.2050	0	34.7090	8	25.244	0	28.966	0	233.2	4	98.0	4	-1E+10	1	-1E+10	1	-1E+10	1	-1E+10	1	-1E+10	1	-1E+10	1
4901784	186	C	08/07/2020	10:49	-132.421	43.001	0	30.70	0	17.1220	0	34.7110	8	25.266	0	30.454	0	233.7	4	98.1	4	-1E+10	1	-1E+10	1	-1E+10	1	-1E+10	1	-1E+10	1	-1E+10	1
4901784	186	C	08/07/2020	10:49	-132.421	43.001	0	32.30	0	17.0930	0	34.7050	8	25.268	0	32.041	0	234.1	4	98.2	4	-1E+10	1	-1E+10	1	-1E+10	1	-1E+10	1	-1E+10	1	-1E+10	1
4901784	186	C	08/07/2020	10:49	-132.421	43.001	0	33.80	0	16.9840	0	34.7050	8	25.294	0	33.529	0	234.6	4	98.2	4	-1E+10	1	-1E+10	1	-1E+10	1	-1E+10	1	-1E+10	1	-1E+10	1
4901784	186	C	08/07/2020	10:49	-132.421	43.001	0	35.40	0	16.6980	0	34.7220	8	25.374	0	35.116	0	236.1	4	98.3	4	-1E+10	1	-1E+10	1	-1E+10	1	-1E+10	1	-1E+10	1	-1E+10	1
4901784	186	C	08/07/2020	10:49	-132.421	43.001	0	37.00	0	16.4220	0	34.7440	8	25.456	0	36.703	0	237.6	4	98.4	4	-1E+10	1	-1E+10	1	-1E+10	1	-1E+10	1	-1E+10	1	-1E+10	1
4901784	186	C	08/07/2020	10:49	-132.421	43.001	0	38.80	0	16.2100	0	34.7620	8	25.519	0	38.489	0	238.4	4	98.3	4	-1E+10	1	-1E+10	1	-1E+10	1	-1E+10	1	-1E+10	1	-1E+10	1
4901784	186	C	08/07/2020	10:49	-132.421	43.001	0	40.40	0	16.0780	0	34.7640	8	25.551	0	40.076	0	239.4	4	98.5	4	-1E+10	1	-1E+10	1	-1E+10	1	-1E+10	1	-1E+10	1	-1E+10	1
4901784	186	C	08/07/2020	10:49	-132.421	43.001	0	42.20	0	16.0180	0	34.7560	8	25.558	0	41.861	0	240.5	4	98.8	4	-1E+10	1	-1E+10	1	-1E+10	1	-1E+10	1	-1E+10	1	-1E+10	1
4901784	186	C	08/07/2020	10:49	-132.421	43.001	0	42.70	0	16.0180	0	34.7520	8	25.555	0	42.357	0	241.1	4	99.1	4	-1E+10	1	-1E+10	1	-1E+10	1	-1E+10	1	-1E+10	1	-1E+10	1
4901784	186	C	08/07/2020	10:49	-132.421	43.001	0	44.00	0	16.0090	0	34.7370	8	25.546	0	43.646	0	242.1	4	99.5	4	-1E+10	1	-1E+10	1	-1E+10	1	-1E+10	1	-1E+10	1	-1E+10	1
4901784	186	C	08/07/2020	10:49	-132.421	43.001	0	45.30	0	15.8360	0	34.7220	8	25.574	0	44.936	0	244.4	4	100.1	4	-1E+10	1	-1E+10	1	-1E+10	1	-1E+10	1	-1E+10	1	-1E+10	1
4901784	186	C	08/07/2020	10:49	-132.421	43.001	0	46.60	0	15.7110	0	34.7010	8	25.586	0	46.225	0	247.4	4	101.0	4	-1E+10	1	-1E+10	1	-1E+10	1	-1E+10	1	-1E+10	1	-1E+10	1
4901784	186	C	08/07/2020	10:49	-132.421	43.001	0	48.00	0	15.3560	0	34.6700	8	25.641	0	47.614	0	251.7	4	102.1	4	-1E+10	1	-1E+10	1	-1E+10	1	-1E+10	1	-1E+10	1	-1E+10	1
4901784	186	C	08/07/2020	10:49	-132.421	43.001	0	49.50	0	14.1940	0	34.6990	8	25.916	0	49.101	0	259.6	4	102.9	4	-1E+10	1	-1E+10	1	-1E+10	1	-1E+10	1	-1E+10	1	-1E+10	1
4901784	186	C	08/07/2020	10:49	-132.421	43.001	0	51.10	0	13.7340	0	34.6990	8	26.012	0	50.688	0	264.0	4	103.7	4	-1E+10	1	-1E+10	1	-1E+10	1	-1E+10	1	-1E+10	1	-1E+10	1
4901784	186	C	08/07/2020	10:49	-132.421	43.001	0	52.50	0	13.1180	0	34.7190	8	26.154	0	52.077	0	267.5	4	103.8	4	-1E+10	1	-1E+10	1	-1E+10	1	-1E+10	1	-1E+10	1	-1E+10	1
4901784	186	C	08/07/2020	10:49	-132.421	43.001	0	54.00	0	12.7970	0	34.7220	8	26.220	0	53.565	0	270.0	4	104.0	4	-1E+10	1	-1E+10	1	-1E+10	1	-1E+10	1	-1E+10	1	-1E+10	1
4901784	186	C	08/07/2020	10:49	-132.421	43.001	0	55.60	0	12.6870	0	34.7170	8	26.238	0	55.151	0	270.1	4	103.9	4	-1E+10	1	-1E+10	1	-1E+10	1	-1E+10	1	-1E+10	1	-1E+10	1
4901784	186	C	08/07/2020	10:49	-132.421	43.001	0	57.10	0	12.5860	0	34.6930	8	26.239	0	56.639	0	270.3	4	103.7	4	-1E+10	1	-1E+10	1	-1E+10	1	-1E+10	1	-1E+10	1	-1E+10	1
4901784	186	C	08/07/2020	10:49	-132.421	43.001	0	58.60	0	12.1300	0	34.7080	8	26.339	0	58.127	0	270.6	4	102.9	4	-1E+10	1	-1E+10	1	-1E+10	1	-1E+10	1	-1E+10	1	-1E+10	1
4901784	186	C	08/07/2020	10:49	-132.421	43.001	0	60.30	0	11.2910	0	34.7660	8	26.542	0	59.813	0	272.8	4	101.9	4	-1E+10	1	-1E+10	1	-1E+10	1	-1E+10	1	-1E+10	1	-1E+10	1
4901784	186	C	08/07/2020	10:49	-132.421	43.001	0	62.00	0	11.1680	0	34.7430	8	26.547	0	61.499	0	271.5	4	101.2	4	-1E+10	1	-1E+10	1	-1E+10	1	-1E+10	1	-1E+10	1	-1E+10	1
4901784	186	C	08/07/2020	10:49	-132.421	43.001	0	63.80	0	10.8240	0	34.7580	8	26.621	0	63.284	0	269.2	4	99.6	4	-1E+10	1	-1E+10	1	-1E+10	1	-1E+10	1	-1E+10	1	-1E+10	1
4901784	186	C	08/07/2020	10:49	-132.421	43.001	0	65.50	0	10.6280	0	34.7620	8	26.659	0	64.970	0	267.6	4	98.6	4	-1E+10	1	-1E+10	1	-1E+10	1	-1E+10	1	-1E+10	1	-1E+10	1
4901784	186	C	08/07/2020	10:49	-132.421	43.001	0	67.30	0	10.5650	0	34.7590	8	26.667	0	66.755	0	265.7	4	97.8	4	-1E+10	1	-1E+10	1	-1E+10	1	-1E+10	1	-1E+10	1	-1E+10	1
4901784	186	C	08/07/2020	10:49	-132.421	43.001	0	69.10	0	10.5520	0	34.7710	8	26.679	0	68.540	0	262.7	4	96.6	4	-1E+10	1	-1E+10	1	-1E+10	1	-1E+10	1	-1E+10	1	-1E+10	1
4901784	186	C	08/07/2020	10:49	-132.421	43.001	0	71.20	0	10.5130	0	34.7990	8	26.708	0	70.623	0	260.0	4	95.6	4	-1E+10	1	-1E+10	1	-1E+10	1	-1E+10	1	-1E+10	1	-1E+10	1
4901784	186	C	08/07/2020	10:49	-132.421	43.001	0	71.60	0	10.5130	0	34.8000	8	26.709	0	71.020	0	259.1	4	95.3	4	-1E+10	1	-1E+10	1	-1E+10	1	-1E+10	1	-1E+10	1	-1E+10	1
4901784	186	C	08/07/2020	10:49	-132.421	43.001	0	73.20	0	10.5100	0	34.8060	8	26.714	0	72.606	0	256.3	4	94.2	4	-1E+10	1	-1E+10	1	-1E+10	1	-1E+10	1	-1E+10	1	-1E+10	1
4901784	186	C	08/07/2020	10:49	-132.421	43.001	0	74.70	0	10.5460	0	34.8190	8	26.718	0	74.094	0	252.7	4	93.0	4	-1E+10	1	-1E+10	1	-1E+10	1	-1E+10	1	-1E+10	1	-1E+10	1
4901784	186	C	08/07/2020	10:49	-132.421	43.001	0	76.20	0	10.5800	0	34.8420	8	26.730	0	75.581	0	248.5	4	91.5	4	-1E+10	1	-1E+10	1	-1E+10	1	-1E+10	1	-1E+10	1	-1E+10	1
4901784	186	C	08/07/2020	10:49	-132.421	43.001	0	77.70	0	10.4720	0	34.8570	8	26.760	0	77.069	0	244.8	4	90.0	4	-1E+10	1	-1E+10	1	-1E+10	1	-1E+10	1	-1E+10	1	-1E+10	1
4901784	186	C	08/07/2020	10:49	-132.421	43.001	0	79.30	0	10.4260	0	34.8500	8	26.763	0	78.656	0	241.2	4	88.6	4	-1E+10	1	-1E+10	1	-1E+10	1	-1E+10	1	-1E+10	1	-1E+10	1
4901784	186	C	08/07/2020	10:49	-132.421	43.001	0	80.90	0	10.2540	0	34.8800	8	26.817	0	80.242	0	238.7	4	87.3	4	-1E+10	1	-1E+10	1	-1E+10	1	-1E+10	1	-1E+10	1	-1E+10	1
4901784	186	C	08/07/2020	10:49	-132.421	43.001	0	82.40	0	10.2170	0	34.8830	8	26.825	0	81.730	0	235.8	4	86.2	4	-1E+10	1	-1E+10	1	-1E+10	1	-1E+10	1	-1E+10	1	-1E+10	1
4901784	186	C	08/07/2020	10:49	-132.421	43.001	0	84.00	0	10.1060	0	34.8970	8	26.855	0	83.317	0	233.0	4	85.0	4	-1E+10	1	-1E+10	1	-1E+10	1	-1E+10	1	-1E+10	1	-1E+10	1
4901784	186	C	08/07/2020	10:49	-132.421	43.001	0	85.50	0	10.0850	0	34.9280	8	26.883	0	84.804	0	230.1	4	83.9	4	-1E+10	1	-1E+10	1	-1E+10	1	-1E+10	1	-1E+10	1	-1E+10	1
4901784	186	C	08/07/2020	10:49	-132.421	43.001	0	87.10	0	10.0000	0	34.9350	8	26.903	0	86.391	0	227.6	4	82.8	4	-1E+10	1	-1E+10	1	-1E+10	1	-1E+10	1	-1E+10	1	-1E+10	1
4901784	186	C	08/07/2020	10:49	-132.421	43.001	0	88.80	0	9.9270	0	34.9600	8	26.935	0	88.076	0	225.0	4	81.8	4	-1E+10	1	-1E+10	1	-1E+10	1	-1E+10	1	-1E+10	1	-1E+10	1
4901784	186	C	08/07/2020	10:49	-132.421	43.001	0	90.40	0	9.8490	0	34.9920	8	26.974	0	89.663	0	222.2	4	80.7	4	-1E+10	1	-1E+10	1	-1E+10	1	-1E+10	1	-1E+10	1	-1E+10	1
4901784	186	C	08/07/2020	10:49	-132.421	43.001	0	92.10	0	9.7630	0	35.0180	8	27.009	0	91.349	0	220.2	4	79.8	4	-1E+10	1	-1E+10	1	-1E+10	1	-1E+10	1	-1E+10	1	-1E+10	1
4901784	186	C	08/07/2020	10:49	-132.421	43.001	0	93.80	0	9.7750	0	35.0220	8	27.010	0	93.035	0	218.1	4	79.1	4	-1E+10	1	-1E+10	1	-1E+10	1	-1E+10	1	-1E+10	1	-1E+10	1
4901784	186	C	08/07/2020	10:49	-132.421	43.001	0	95.60	0	9.7750	0	35.0240	8	27.011	0	94.819	0	215.0	4	77.9	4	-1E+10	1	-1E+10	1	-1E+10	1	-1E+10	1	-1E+10	1	-1E+10	1
4901784	186	C	08/07/2020	10:49	-132.421	43.001	0	97.30	0	9.7190	0	35.0500	8	27.041	0	96.505	0	210.9	4	76.4	4	-1E+10	1	-1E+10	1	-1E+10	1	-1E+10	1	-1E+10	1	-1E+10	1
4901784	186	C	08/07/2020	10:49	-132.421	43.001	0	98.90	0	9.6300	0	35.0920	8	27.089	0	98.092	0	207.7	4	75.1	4	-1E+10	1	-1E+10	1	-1E+10	1	-1E+10	1	-1E+10	1	-1E+10	1
4901784	186	C	08/07/2020	10:49	-132.421	43.001	0	102.70	0	9.4770	0	35.2190	8	27.214	0	101.860	0	198.9	4	71.7	4	-1E+10	1	-1E+10	1	-1E+10	1	-1E+10	1	-1E+10	1	-1E+10	1
4901784	186	C	08/07/2020	10:49	-132.421	43.001	0	105.00	0	9.3870	0	35.2500	8	27.253	0	104.140	0	195.2	4	70.3	4	-1E+10	1	-1E+10	1	-1E+10	1	-1E+10	1	-1E+10	1	-1E+10	1
4901784	186	C	08/07/2020	10:49	-132.421	43.001	0	107.40	0	9.2310	0	35.2910	8	27.311	0	106.520	0	191.9	4	68.9	4	-1E+10	1	-1E+10	1	-1E+10	1	-1E+10	1	-1E+10	1	-1E+10	1
4901784	186	C	08/07/2020	10:49	-132.421	43.001	0	109.80	0	9.1130	0	35.3400	8	27.369	0	108.900	0	188.3	4	67.4	4	-1E+10	1	-1E+10	1	-1E+10	1	-1E+10	1	-1E+10	1	-1E+10	1
4901784	186	C	08/07/2020	10:49	-132.421	43.001	0	112.30	0	9.0860	0	35.3550	8	27.385	0	111.379	0	183.5	4	65.7	4	-1E+10	1	-1E+10	1	-1E+10	1	-1E+10	1	-1E+10	1	-1E+10	1
4901784	186	C	08/07/2020	10:49	-132.421	43.001	0	114.80	0	8.9550	0	35.4470	8	27.478	0	113.857	0	178.5	4	63.7	4	-1E+10	1	-1E+10	1	-1E+10	1	-1E+10	1	-1E+10	1	-1E+10	1
4901784	186	C	08/07/2020	10:49	-132.421	43.001	0	117.40	0	8.8810	0	35.5110	8	27.540	0	116.435	0	174.5	4	62.2	4	-1E+10	1	-1E+10	1	-1E+10	1	-1E+10	1	-1E+10	1	-1E+10	1
4901784	186	C	08/07/2020	10:49	-132.421	43.001	0	120.30	0	8.8330	0	35.5750	8	27.598	0	119.311	0	170.2	4	60.7	4	-1E+10	1	-1E+10	1	-1E+10	1	-1E+10	1	-1E+10	1	-1E+10	1
4901784	186	C	08/07/2020	10:49	-132.421	43.001	0	123.10	0	8.8180	0	35.6150	8	27.632	0	122.087	0	166.9	4	59.5	4	-1E+10	1	-1E+10	1	-1E+10	1	-1E+10	1	-1E+10	1	-1E+10	1
4901784	186	C	08/07/2020	10:49	-132.421	43.001	0	125.00	0	8.8120	0	35.6290	8	27.644	0	123.971	0	164.7	4	58.7	4	-1E+10	1	-1E+10	1	-1E+10	1	-1E+10	1	-1E+10	1	-1E+10	1
4901784	186	C	08/07/2020	10:49	-132.421	43.001	0	127.80	0	8.7920	0	35.6660	8	27.676	0	126.747	0	160.8	4	57.3	4	-1E+10	1	-1E+10	1	-1E+10	1	-1E+10	1	-1E+10	1	-1E+10	1
4901784	186	C	08/07/2020	10:49	-132.421	43.001	0	130.60	0	8.7360	0	35.7210	8	27.728	0	129.523	0	157.5	4	56.1	4	-1E+10	1	-1E+10	1	-1E+10	1	-1E+10	1	-1E+10	1	-1E+10	1
4901784	186	C	08/07/2020	10:49	-132.421	43.001	0	132.50	0	8.6990	0	35.7380	8	27.747	0	131.406	0	155.0	4	55.1	4	-1E+10	1	-1E+10	1	-1E+10	1	-1E+10	1	-1E+10	1	-1E+10	1
4901784	186	C	08/07/2020	10:49	-132.421	43.001	0	135.30	0	8.6770	0	35.7820	8	27.786	0	134.182	0	151.0	4	53.7	4	-1E+10	1	-1E+10	1	-1E+10	1	-1E+10	1	-1E+10	1	-1E+10	1
4901784	186	C	08/07/2020	10:49	-132.421	43.001	0	138.20	0	8.6630	0	35.8190	8	27.817	0	137.058	0	146.7	4	52.2	4	-1E+10	1	-1E+10	1	-1E+10	1	-1E+10	1	-1E+10	1	-1E+10	1
4901784	186	C	08/07/2020	10:49	-132.421	43.001	0	140.00	0	8.6570	0	35.8560	8	27.847	0	138.842	0	144.4	4	51.4	4	-1E+10	1	-1E+10	1	-1E+10	1	-1E+10	1	-1E+10	1	-1E+10	1
4901784	186	C	08/07/2020	10:49	-132.421	43.001	0	141.90	0	8.6140	0	35.8940	8	27.883	0	140.726	0	142.8	4	50.8	4	-1E+10	1	-1E+10	1	-1E+10	1	-1E+10	1	-1E+10	1	-1E+10	1
4901784	186	C	08/07/2020	10:49	-132.421	43.001	0	144.80	0	8.5820	0	35.9170	8	27.907	0	143.601	0	140.8	4	50.0	4	-1E+10	1	-1E+10	1	-1E+10	1	-1E+10	1	-1E+10	1	-1E+10	1
4901784	186	C	08/07/2020	10:49	-132.421	43.001	0	147.60	0	8.5670	0	35.9380	8	27.926	0	146.377	0	138.7	4	49.3	4	-1E+10	1	-1E+10	1	-1E+10	1	-1E+10	1	-1E+10	1	-1E+10	1
4901784	186	C	08/07/2020	10:49	-132.421	43.001	0	149.50	0	8.5520	0	35.9450	8	27.933	0	148.260	0	137.4	4	48.8	4	-1E+10	1	-1E+10	1	-1E+10	1	-1E+10	1	-1E+10	1	-1E+10	1
4901784	186	C	08/07/2020	10:49	-132.421	43.001	0	152.30	0	8.4960	0	35.9810	8	27.971	0	151.036	0	135.8	4	48.2	4	-1E+10	1	-1E+10	1	-1E+10	1	-1E+10	1	-1E+10	1	-1E+10	1
4901784	186	C	08/07/2020	10:49	-132.421	43.001	0	155.20	0	8.4550	0	36.0000	8	27.992	0	153.911	0	134.0	4	47.5	4	-1E+10	1	-1E+10	1	-1E+10	1	-1E+10	1	-1E+10	1	-1E+10	1
4901784	186	C	08/07/2020	10:49	-132.421	43.001	0	157.10	0	8.4240	0	36.0170	8	28.010	0	155.794	0	132.7	4	47.0	4	-1E+10	1	-1E+10	1	-1E+10	1	-1E+10	1	-1E+10	1	-1E+10	1
4901784	186	C	08/07/2020	10:49	-132.421	43.001	0	159.90	0	8.4280	0	36.0390	8	28.027	0	158.570	0	131.1	4	46.5	4	-1E+10	1	-1E+10	1	-1E+10	1	-1E+10	1	-1E+10	1	-1E+10	1
4901784	186	C	08/07/2020	10:49	-132.421	43.001	0	162.80	0	8.4030	0	36.0600	8	28.047	0	161.445	0	130.3	4	46.2	4	-1E+10	1	-1E+10	1	-1E+10	1	-1E+10	1	-1E+10	1	-1E+10	1
4901784	186	C	08/07/2020	10:49	-132.421	43.001	0	164.60	0	8.3720	0	36.0690	8	28.059	0	163.229	0	130.4	4	46.2	4	-1E+10	1	-1E+10	1	-1E+10	1	-1E+10	1	-1E+10	1	-1E+10	1
4901784	186	C	08/07/2020	10:49	-132.421	43.001	0	167.00	0	8.3570	0	36.0710	8	28.063	0	165.608	0	130.4	4	46.2	4	-1E+10	1	-1E+10	1	-1E+10	1	-1E+10	1	-1E+10	1	-1E+10	1
4901784	186	C	08/07/2020	10:49	-132.421	43.001	0	169.60	0	8.3240	0	36.0770	8	28.073	0	168.185	0	130.2	4	46.1	4	-1E+10	1	-1E+10	1	-1E+10	1	-1E+10	1	-1E+10	1	-1E+10	1
4901784	186	C	08/07/2020	10:49	-132.421	43.001	0	172.70	0	8.2580	0	36.0920	8	28.095	0	171.258	0	128.8	4	45.5	4	-1E+10	1	-1E+10	1	-1E+10	1	-1E+10	1	-1E+10	1	-1E+10	1
4901784	186	C	08/07/2020	10:49	-132.421	43.001	0	175.10	0	8.2210	0	36.1220	8	28.125	0	173.637	0	127.2	4	44.9	4	-1E+10	1	-1E+10	1	-1E+10	1	-1E+10	1	-1E+10	1	-1E+10	1
4901784	186	C	08/07/2020	10:49	-132.421	43.001	0	177.50	0	8.1960	0	36.1390	8	28.142	0	176.016	0	126.8	4	44.8	4	-1E+10	1	-1E+10	1	-1E+10	1	-1E+10	1	-1E+10	1	-1E+10	1
4901784	186	C	08/07/2020	10:49	-132.421	43.001	0	180.00	0	8.1360	0	36.1550	8	28.164	0	178.494	0	127.1	4	44.8	4	-1E+10	1	-1E+10	1	-1E+10	1	-1E+10	1	-1E+10	1	-1E+10	1
4901784	186	C	08/07/2020	10:49	-132.421	43.001	0	182.40	0	8.1010	0	36.1620	8	28.175	0	180.873	0	127.5	4	44.9	4	-1E+10	1	-1E+10	1	-1E+10	1	-1E+10	1	-1E+10	1	-1E+10	1
4901784	186	C	08/07/2020	10:49	-132.421	43.001	0	184.80	0	8.0450	0	36.1710	8	28.190	0	183.252	0	127.5	4	44.9	4	-1E+10	1	-1E+10	1	-1E+10	1	-1E+10	1	-1E+10	1	-1E+10	1
4901784	186	C	08/07/2020	10:49	-132.421	43.001	0	187.20	0	8.0160	0	36.1800	8	28.202	0	185.630	0	126.9	4	44.6	4	-1E+10	1	-1E+10	1	-1E+10	1	-1E+10	1	-1E+10	1	-1E+10	1
4901784	186	C	08/07/2020	10:49	-132.421	43.001	0	190.40	0	7.9650	0	36.1970	8	28.223	0	188.802	0	126.1	4	44.3	4	-1E+10	1	-1E+10	1	-1E+10	1	-1E+10	1	-1E+10	1	-1E+10	1
4901784	186	C	08/07/2020	10:49	-132.421	43.001	0	192.80	0	7.9470	0	36.2000	8	28.228	0	191.181	0	125.5	4	44.1	4	-1E+10	1	-1E+10	1	-1E+10	1	-1E+10	1	-1E+10	1	-1E+10	1
4901784	186	C	08/07/2020	10:49	-132.421	43.001	0	195.30	0	7.9280	0	36.2040	8	28.234	0	193.659	0	124.6	4	43.7	4	-1E+10	1	-1E+10	1	-1E+10	1	-1E+10	1	-1E+10	1	-1E+10	1
4901784	186	C	08/07/2020	10:49	-132.421	43.001	0	197.90	0	7.8760	0	36.2210	8	28.256	0	196.236	0	123.6	4	43.4	4	-1E+10	1	-1E+10	1	-1E+10	1	-1E+10	1	-1E+10	1	-1E+10	1
4901784	186	C	08/07/2020	10:49	-132.421	43.001	0	199.70	0	7.8610	0	36.2230	8	28.260	0	198.020	0	123.4	4	43.3	4	-1E+10	1	-1E+10	1	-1E+10	1	-1E+10	1	-1E+10	1	-1E+10	1
4901784	186	C	08/07/2020	10:49	-132.421	43.001	0	202.30	0	7.8440	0	36.2260	8	28.264	0	200.597	0	123.0	4	43.1	4	-1E+10	1	-1E+10	1	-1E+10	1	-1E+10	1	-1E+10	1	-1E+10	1
4901784	186	C	08/07/2020	10:49	-132.421	43.001	0	204.90	0	7.8420	0	36.2270	8	28.266	0	203.173	0	122.4	4	42.9	4	-1E+10	1	-1E+10	1	-1E+10	1	-1E+10	1	-1E+10	1	-1E+10	1
4901784	186	C	08/07/2020	10:49	-132.421	43.001	0	207.60	0	7.8090	0	36.2330	8	28.275	0	205.849	0	121.8	4	42.7	4	-1E+10	1	-1E+10	1	-1E+10	1	-1E+10	1	-1E+10	1	-1E+10	1
4901784	186	C	08/07/2020	10:49	-132.421	43.001	0	210.20	0	7.7880	0	36.2350	8	28.280	0	208.426	0	121.4	4	42.5	4	-1E+10	1	-1E+10	1	-1E+10	1	-1E+10	1	-1E+10	1	-1E+10	1
4901784	186	C	08/07/2020	10:49	-132.421	43.001	0	212.80	0	7.7760	0	36.2360	8	28.283	0	211.003	0	120.8	4	42.3	4	-1E+10	1	-1E+10	1	-1E+10	1	-1E+10	1	-1E+10	1	-1E+10	1
4901784	186	C	08/07/2020	10:49	-132.421	43.001	0	215.50	0	7.7620	0	36.2360	8	28.285	0	213.679	0	119.9	4	41.9	4	-1E+10	1	-1E+10	1	-1E+10	1	-1E+10	1	-1E+10	1	-1E+10	1
4901784	186	C	08/07/2020	10:49	-132.421	43.001	0	217.30	0	7.7340	0	36.2410	8	28.293	0	215.462	0	118.9	4	41.6	4	-1E+10	1	-1E+10	1	-1E+10	1	-1E+10	1	-1E+10	1	-1E+10	1
4901784	186	C	08/07/2020	10:49	-132.421	43.001	0	219.90	0	7.7110	0	36.2460	8	28.300	0	218.039	0	117.1	4	40.9	4	-1E+10	1	-1E+10	1	-1E+10	1	-1E+10	1	-1E+10	1	-1E+10	1
4901784	186	C	08/07/2020	10:49	-132.421	43.001	0	222.70	0	7.6950	0	36.2470	8	28.304	0	220.814	0	114.9	4	40.1	4	-1E+10	1	-1E+10	1	-1E+10	1	-1E+10	1	-1E+10	1	-1E+10	1
4901784	186	C	08/07/2020	10:49	-132.421	43.001	0	225.30	0	7.6840	0	36.2500	8	28.308	0	223.390	0	111.3	4	38.9	4	-1E+10	1	-1E+10	1	-1E+10	1	-1E+10	1	-1E+10	1	-1E+10	1
4901784	186	C	08/07/2020	10:49	-132.421	43.001	0	228.00	0	7.6780	0	36.2560	8	28.313	0	226.066	0	108.1	4	37.8	4	-1E+10	1	-1E+10	1	-1E+10	1	-1E+10	1	-1E+10	1	-1E+10	1
4901784	186	C	08/07/2020	10:49	-132.421	43.001	0	229.90	0	7.6450	0	36.2560	8	28.318	0	227.949	0	107.2	4	37.4	4	-1E+10	1	-1E+10	1	-1E+10	1	-1E+10	1	-1E+10	1	-1E+10	1
4901784	186	C	08/07/2020	10:49	-132.421	43.001	0	232.70	0	7.6040	0	36.2630	8	28.330	0	230.724	0	104.2	4	36.3	4	-1E+10	1	-1E+10	1	-1E+10	1	-1E+10	1	-1E+10	1	-1E+10	1
4901784	186	C	08/07/2020	10:49	-132.421	43.001	0	235.60	0	7.5640	0	36.2690	8	28.341	0	233.597	0	102.6	4	35.7	4	-1E+10	1	-1E+10	1	-1E+10	1	-1E+10	1	-1E+10	1	-1E+10	1
4901784	186	C	08/07/2020	10:49	-132.421	43.001	0	237.50	0	7.5580	0	36.2680	8	28.341	0	235.480	0	102.0	4	35.5	4	-1E+10	1	-1E+10	1	-1E+10	1	-1E+10	1	-1E+10	1	-1E+10	1
4901784	186	C	08/07/2020	10:49	-132.421	43.001	0	239.40	0	7.5310	0	36.2710	8	28.347	0	237.363	0	101.4	4	35.3	4	-1E+10	1	-1E+10	1	-1E+10	1	-1E+10	1	-1E+10	1	-1E+10	1
4901784	186	C	08/07/2020	10:49	-132.421	43.001	0	242.30	0	7.5100	0	36.2730	8	28.352	0	240.237	0	100.4	4	34.9	4	-1E+10	1	-1E+10	1	-1E+10	1	-1E+10	1	-1E+10	1	-1E+10	1
4901784	186	C	08/07/2020	10:49	-132.421	43.001	0	245.10	0	7.4890	0	36.2750	8	28.357	0	243.011	0	99.4	4	34.6	4	-1E+10	1	-1E+10	1	-1E+10	1	-1E+10	1	-1E+10	1	-1E+10	1
4901784	186	C	08/07/2020	10:49	-132.421	43.001	0	246.90	0	7.4680	0	36.2770	8	28.361	0	244.795	0	98.8	4	34.3	4	-1E+10	1	-1E+10	1	-1E+10	1	-1E+10	1	-1E+10	1	-1E+10	1
4901784	186	C	08/07/2020	10:49	-132.421	43.001	0	249.90	0	7.4310	0	36.2810	8	28.370	0	247.767	0	98.1	4	34.1	4	-1E+10	1	-1E+10	1	-1E+10	1	-1E+10	1	-1E+10	1	-1E+10	1
4901784	186	C	08/07/2020	10:49	-132.421	43.001	0	252.30	0	7.4190	0	36.2820	8	28.373	0	250.145	0	97.5	4	33.9	4	-1E+10	1	-1E+10	1	-1E+10	1	-1E+10	1	-1E+10	1	-1E+10	1
4901784	186	C	08/07/2020	10:49	-132.421	43.001	0	254.70	0	7.4160	0	36.2810	8	28.372	0	252.523	0	96.6	4	33.5	4	-1E+10	1	-1E+10	1	-1E+10	1	-1E+10	1	-1E+10	1	-1E+10	1
4901784	186	C	08/07/2020	10:49	-132.421	43.001	0	257.10	0	7.3890	0	36.2830	8	28.378	0	254.901	0	95.3	4	33.1	4	-1E+10	1	-1E+10	1	-1E+10	1	-1E+10	1	-1E+10	1	-1E+10	1
4901784	186	C	08/07/2020	10:49	-132.421	43.001	0	260.10	0	7.3470	0	36.2870	8	28.387	0	257.874	0	94.3	4	32.7	4	-1E+10	1	-1E+10	1	-1E+10	1	-1E+10	1	-1E+10	1	-1E+10	1
4901784	186	C	08/07/2020	10:49	-132.421	43.001	0	262.50	0	7.3200	0	36.2890	8	28.393	0	260.252	0	93.6	4	32.4	4	-1E+10	1	-1E+10	1	-1E+10	1	-1E+10	1	-1E+10	1	-1E+10	1
4901784	186	C	08/07/2020	10:49	-132.421	43.001	0	264.90	0	7.2760	0	36.2910	8	28.401	0	262.630	0	92.8	4	32.1	4	-1E+10	1	-1E+10	1	-1E+10	1	-1E+10	1	-1E+10	1	-1E+10	1
4901784	186	C	08/07/2020	10:49	-132.421	43.001	0	267.30	0	7.2420	0	36.2920	8	28.406	0	265.008	0	92.0	4	31.8	4	-1E+10	1	-1E+10	1	-1E+10	1	-1E+10	1	-1E+10	1	-1E+10	1
4901784	186	C	08/07/2020	10:49	-132.421	43.001	0	269.70	0	7.2150	0	36.2940	8	28.412	0	267.386	0	90.8	4	31.4	4	-1E+10	1	-1E+10	1	-1E+10	1	-1E+10	1	-1E+10	1	-1E+10	1
4901784	186	C	08/07/2020	10:49	-132.421	43.001	0	272.90	0	7.1780	0	36.2970	8	28.420	0	270.556	0	89.2	4	30.8	4	-1E+10	1	-1E+10	1	-1E+10	1	-1E+10	1	-1E+10	1	-1E+10	1
4901784	186	C	08/07/2020	10:49	-132.421	43.001	0	275.30	0	7.1560	0	36.2980	8	28.424	0	272.934	0	87.9	4	30.3	4	-1E+10	1	-1E+10	1	-1E+10	1	-1E+10	1	-1E+10	1	-1E+10	1
4901784	186	C	08/07/2020	10:49	-132.421	43.001	0	277.80	0	7.1370	0	36.3000	8	28.428	0	275.411	0	86.4	4	29.8	4	-1E+10	1	-1E+10	1	-1E+10	1	-1E+10	1	-1E+10	1	-1E+10	1
4901784	186	C	08/07/2020	10:49	-132.421	43.001	0	280.20	0	7.1010	0	36.3030	8	28.436	0	277.788	0	85.0	4	29.3	4	-1E+10	1	-1E+10	1	-1E+10	1	-1E+10	1	-1E+10	1	-1E+10	1
4901784	186	C	08/07/2020	10:49	-132.421	43.001	0	282.60	0	7.0490	0	36.3080	8	28.447	0	280.166	0	83.7	4	28.8	4	-1E+10	1	-1E+10	1	-1E+10	1	-1E+10	1	-1E+10	1	-1E+10	1
4901784	186	C	08/07/2020	10:49	-132.421	43.001	0	285.00	0	7.0040	0	36.3110	8	28.456	0	282.544	0	82.7	4	28.5	4	-1E+10	1	-1E+10	1	-1E+10	1	-1E+10	1	-1E+10	1	-1E+10	1
4901784	186	C	08/07/2020	10:49	-132.421	43.001	0	287.50	0	6.9860	0	36.3130	8	28.460	0	285.020	0	81.7	4	28.1	4	-1E+10	1	-1E+10	1	-1E+10	1	-1E+10	1	-1E+10	1	-1E+10	1
4901784	186	C	08/07/2020	10:49	-132.421	43.001	0	289.90	0	6.9600	0	36.3150	8	28.465	0	287.398	0	80.8	4	27.8	4	-1E+10	1	-1E+10	1	-1E+10	1	-1E+10	1	-1E+10	1	-1E+10	1
4901784	186	C	08/07/2020	10:49	-132.421	43.001	0	292.40	0	6.9210	0	36.3170	8	28.472	0	289.875	0	79.9	4	27.4	4	-1E+10	1	-1E+10	1	-1E+10	1	-1E+10	1	-1E+10	1	-1E+10	1
4901784	186	C	08/07/2020	10:49	-132.421	43.001	0	294.90	0	6.8960	0	36.3190	8	28.477	0	292.351	0	78.9	4	27.1	4	-1E+10	1	-1E+10	1	-1E+10	1	-1E+10	1	-1E+10	1	-1E+10	1
4901784	186	C	08/07/2020	10:49	-132.421	43.001	0	297.40	0	6.8670	0	36.3210	8	28.483	0	294.828	0	77.8	4	26.7	4	-1E+10	1	-1E+10	1	-1E+10	1	-1E+10	1	-1E+10	1	-1E+10	1
4901784	186	C	08/07/2020	10:49	-132.421	43.001	0	299.90	0	6.8260	0	36.3230	8	28.491	0	297.305	0	76.8	4	26.3	4	-1E+10	1	-1E+10	1	-1E+10	1	-1E+10	1	-1E+10	1	-1E+10	1
4901784	186	C	08/07/2020	10:49	-132.421	43.001	0	302.40	0	6.7980	0	36.3270	8	28.498	0	299.781	0	75.9	4	26.0	4	-1E+10	1	-1E+10	1	-1E+10	1	-1E+10	1	-1E+10	1	-1E+10	1
4901784	186	C	08/07/2020	10:49	-132.421	43.001	0	305.00	0	6.7650	0	36.3260	8	28.502	0	302.357	0	75.4	4	25.8	4	-1E+10	1	-1E+10	1	-1E+10	1	-1E+10	1	-1E+10	1	-1E+10	1
4901784	186	C	08/07/2020	10:49	-132.421	43.001	0	307.50	0	6.7160	0	36.3320	8	28.513	0	304.833	0	74.7	4	25.5	4	-1E+10	1	-1E+10	1	-1E+10	1	-1E+10	1	-1E+10	1	-1E+10	1
4901784	186	C	08/07/2020	10:49	-132.421	43.001	0	310.20	0	6.7120	0	36.3320	8	28.514	0	307.508	0	74.1	4	25.3	4	-1E+10	1	-1E+10	1	-1E+10	1	-1E+10	1	-1E+10	1	-1E+10	1
4901784	186	C	08/07/2020	10:49	-132.421	43.001	0	312.80	0	6.6990	0	36.3330	8	28.516	0	310.083	0	73.1	4	25.0	4	-1E+10	1	-1E+10	1	-1E+10	1	-1E+10	1	-1E+10	1	-1E+10	1
4901784	186	C	08/07/2020	10:49	-132.421	43.001	0	315.40	0	6.6920	0	36.3350	8	28.519	0	312.659	0	72.2	4	24.7	4	-1E+10	1	-1E+10	1	-1E+10	1	-1E+10	1	-1E+10	1	-1E+10	1
4901784	186	C	08/07/2020	10:49	-132.421	43.001	0	317.10	0	6.6780	0	36.3370	8	28.522	0	314.343	0	71.7	4	24.5	4	-1E+10	1	-1E+10	1	-1E+10	1	-1E+10	1	-1E+10	1	-1E+10	1
4901784	186	C	08/07/2020	10:49	-132.421	43.001	0	319.60	0	6.6630	0	36.3380	8	28.525	0	316.819	0	70.8	4	24.2	4	-1E+10	1	-1E+10	1	-1E+10	1	-1E+10	1	-1E+10	1	-1E+10	1
4901784	186	C	08/07/2020	10:49	-132.421	43.001	0	322.20	0	6.6470	0	36.3370	8	28.527	0	319.394	0	69.8	4	23.8	4	-1E+10	1	-1E+10	1	-1E+10	1	-1E+10	1	-1E+10	1	-1E+10	1
4901784	186	C	08/07/2020	10:49	-132.421	43.001	0	324.80	0	6.6040	0	36.3410	8	28.536	0	321.970	0	68.7	4	23.4	4	-1E+10	1	-1E+10	1	-1E+10	1	-1E+10	1	-1E+10	1	-1E+10	1
4901784	186	C	08/07/2020	10:49	-132.421	43.001	0	327.50	0	6.5660	0	36.3440	8	28.544	0	324.644	0	67.5	4	23.0	4	-1E+10	1	-1E+10	1	-1E+10	1	-1E+10	1	-1E+10	1	-1E+10	1
4901784	186	C	08/07/2020	10:49	-132.421	43.001	0	330.20	0	6.5480	0	36.3460	8	28.548	0	327.319	0	66.4	4	22.6	4	-1E+10	1	-1E+10	1	-1E+10	1	-1E+10	1	-1E+10	1	-1E+10	1
4901784	186	C	08/07/2020	10:49	-132.421	43.001	0	332.80	0	6.5230	0	36.3480	8	28.553	0	329.894	0	65.2	4	22.2	4	-1E+10	1	-1E+10	1	-1E+10	1	-1E+10	1	-1E+10	1	-1E+10	1
4901784	186	C	08/07/2020	10:49	-132.421	43.001	0	335.40	0	6.4780	0	36.3510	8	28.561	0	332.469	0	64.1	4	21.8	4	-1E+10	1	-1E+10	1	-1E+10	1	-1E+10	1	-1E+10	1	-1E+10	1
4901784	186	C	08/07/2020	10:49	-132.421	43.001	0	338.00	0	6.4370	0	36.3560	8	28.571	0	335.044	0	63.2	4	21.5	4	-1E+10	1	-1E+10	1	-1E+10	1	-1E+10	1	-1E+10	1	-1E+10	1
4901784	186	C	08/07/2020	10:49	-132.421	43.001	0	339.80	0	6.4230	0	36.3560	8	28.573	0	336.827	0	62.7	4	21.3	4	-1E+10	1	-1E+10	1	-1E+10	1	-1E+10	1	-1E+10	1	-1E+10	1
4901784	186	C	08/07/2020	10:49	-132.421	43.001	0	342.40	0	6.4100	0	36.3560	8	28.574	0	339.402	0	61.7	4	21.0	4	-1E+10	1	-1E+10	1	-1E+10	1	-1E+10	1	-1E+10	1	-1E+10	1
4901784	186	C	08/07/2020	10:49	-132.421	43.001	0	345.00	0	6.3810	0	36.3600	8	28.582	0	341.977	0	60.6	4	20.6	4	-1E+10	1	-1E+10	1	-1E+10	1	-1E+10	1	-1E+10	1	-1E+10	1
4901784	186	C	08/07/2020	10:49	-132.421	43.001	0	347.60	0	6.3760	0	36.3600	8	28.582	0	344.552	0	59.4	4	20.2	4	-1E+10	1	-1E+10	1	-1E+10	1	-1E+10	1	-1E+10	1	-1E+10	1
4901784	186	C	08/07/2020	10:49	-132.421	43.001	0	350.30	0	6.3230	0	36.3610	8	28.590	0	347.226	0	58.2	4	19.7	4	-1E+10	1	-1E+10	1	-1E+10	1	-1E+10	1	-1E+10	1	-1E+10	1
4901784	186	C	08/07/2020	10:49	-132.421	43.001	0	352.10	0	6.2810	0	36.3660	8	28.600	0	349.009	0	57.3	4	19.4	4	-1E+10	1	-1E+10	1	-1E+10	1	-1E+10	1	-1E+10	1	-1E+10	1
4901784	186	C	08/07/2020	10:49	-132.421	43.001	0	354.80	0	6.2770	0	36.3710	8	28.604	0	351.683	0	56.3	4	19.1	4	-1E+10	1	-1E+10	1	-1E+10	1	-1E+10	1	-1E+10	1	-1E+10	1
4901784	186	C	08/07/2020	10:49	-132.421	43.001	0	357.40	0	6.2590	0	36.3730	8	28.608	0	354.258	0	55.5	4	18.8	4	-1E+10	1	-1E+10	1	-1E+10	1	-1E+10	1	-1E+10	1	-1E+10	1
4901784	186	C	08/07/2020	10:49	-132.421	43.001	0	360.10	0	6.2400	0	36.3740	8	28.612	0	356.932	0	54.7	4	18.5	4	-1E+10	1	-1E+10	1	-1E+10	1	-1E+10	1	-1E+10	1	-1E+10	1
4901784	186	C	08/07/2020	10:49	-132.421	43.001	0	362.80	0	6.2220	0	36.3730	8	28.613	0	359.606	0	53.6	4	18.1	4	-1E+10	1	-1E+10	1	-1E+10	1	-1E+10	1	-1E+10	1	-1E+10	1
4901784	186	C	08/07/2020	10:49	-132.421	43.001	0	364.50	0	6.1820	0	36.3760	8	28.621	0	361.289	0	53.0	4	17.9	4	-1E+10	1	-1E+10	1	-1E+10	1	-1E+10	1	-1E+10	1	-1E+10	1
4901784	186	C	08/07/2020	10:49	-132.421	43.001	0	367.20	0	6.1270	0	36.3790	8	28.631	0	363.963	0	52.2	4	17.6	4	-1E+10	1	-1E+10	1	-1E+10	1	-1E+10	1	-1E+10	1	-1E+10	1
4901784	186	C	08/07/2020	10:49	-132.421	43.001	0	369.90	0	6.1060	0	36.3770	8	28.632	0	366.637	0	51.5	4	17.4	4	-1E+10	1	-1E+10	1	-1E+10	1	-1E+10	1	-1E+10	1	-1E+10	1
4901784	186	C	08/07/2020	10:49	-132.421	43.001	0	372.50	0	6.0360	0	36.3800	8	28.644	0	369.212	0	50.9	4	17.1	4	-1E+10	1	-1E+10	1	-1E+10	1	-1E+10	1	-1E+10	1	-1E+10	1
4901784	186	C	08/07/2020	10:49	-132.421	43.001	0	375.20	0	6.0260	0	36.3790	8	28.644	0	371.885	0	50.3	4	16.9	4	-1E+10	1	-1E+10	1	-1E+10	1	-1E+10	1	-1E+10	1	-1E+10	1
4901784	186	C	08/07/2020	10:49	-132.421	43.001	0	377.80	0	5.9640	0	36.3810	8	28.654	0	374.460	0	49.7	4	16.7	4	-1E+10	1	-1E+10	1	-1E+10	1	-1E+10	1	-1E+10	1	-1E+10	1
4901784	186	C	08/07/2020	10:49	-132.421	43.001	0	380.50	0	5.9340	0	36.3820	8	28.659	0	377.134	0	48.9	4	16.4	4	-1E+10	1	-1E+10	1	-1E+10	1	-1E+10	1	-1E+10	1	-1E+10	1
4901784	186	C	08/07/2020	10:49	-132.421	43.001	0	382.30	0	5.9220	0	36.3840	8	28.662	0	378.916	0	48.3	4	16.2	4	-1E+10	1	-1E+10	1	-1E+10	1	-1E+10	1	-1E+10	1	-1E+10	1
4901784	186	C	08/07/2020	10:49	-132.421	43.001	0	384.90	0	5.8680	0	36.3840	8	28.669	0	381.491	0	47.8	4	16.0	4	-1E+10	1	-1E+10	1	-1E+10	1	-1E+10	1	-1E+10	1	-1E+10	1
4901784	186	C	08/07/2020	10:49	-132.421	43.001	0	387.60	0	5.7820	0	36.3870	8	28.682	0	384.164	0	47.4	4	15.9	4	-1E+10	1	-1E+10	1	-1E+10	1	-1E+10	1	-1E+10	1	-1E+10	1
4901784	186	C	08/07/2020	10:49	-132.421	43.001	0	390.30	0	5.7640	0	36.3890	8	28.686	0	386.838	0	47.0	4	15.7	4	-1E+10	1	-1E+10	1	-1E+10	1	-1E+10	1	-1E+10	1	-1E+10	1
4901784	186	C	08/07/2020	10:49	-132.421	43.001	0	392.90	0	5.7570	0	36.3880	8	28.687	0	389.412	0	46.5	4	15.6	4	-1E+10	1	-1E+10	1	-1E+10	1	-1E+10	1	-1E+10	1	-1E+10	1
4901784	186	C	08/07/2020	10:49	-132.421	43.001	0	394.70	0	5.7300	0	36.3930	8	28.694	0	391.195	0	46.3	4	15.5	4	-1E+10	1	-1E+10	1	-1E+10	1	-1E+10	1	-1E+10	1	-1E+10	1
4901784	186	C	08/07/2020	10:49	-132.421	43.001	0	397.30	0	5.7160	0	36.3930	8	28.696	0	393.769	0	46.2	4	15.4	4	-1E+10	1	-1E+10	1	-1E+10	1	-1E+10	1	-1E+10	1	-1E+10	1
4901784	186	C	08/07/2020	10:49	-132.421	43.001	0	399.90	0	5.6800	0	36.3920	8	28.700	0	396.344	0	46.1	4	15.4	4	-1E+10	1	-1E+10	1	-1E+10	1	-1E+10	1	-1E+10	1	-1E+10	1
4901784	186	C	08/07/2020	10:49	-132.421	43.001	0	402.50	0	5.6570	0	36.3920	8	28.703	0	398.918	0	45.9	4	15.3	4	-1E+10	1	-1E+10	1	-1E+10	1	-1E+10	1	-1E+10	1	-1E+10	1
4901784	186	C	08/07/2020	10:49	-132.421	43.001	0	405.10	0	5.6360	0	36.3920	8	28.705	0	401.492	0	45.7	4	15.2	4	-1E+10	1	-1E+10	1	-1E+10	1	-1E+10	1	-1E+10	1	-1E+10	1
4901784	186	C	08/07/2020	10:49	-132.421	43.001	0	407.70	0	5.6190	0	36.3930	8	28.708	0	404.067	0	45.7	4	15.2	4	-1E+10	1	-1E+10	1	-1E+10	1	-1E+10	1	-1E+10	1	-1E+10	1
4901784	186	C	08/07/2020	10:49	-132.421	43.001	0	410.30	0	5.5880	0	36.3930	8	28.712	0	406.641	0	45.8	4	15.3	4	-1E+10	1	-1E+10	1	-1E+10	1	-1E+10	1	-1E+10	1	-1E+10	1
4901784	186	C	08/07/2020	10:49	-132.421	43.001	0	412.10	0	5.5900	0	36.3920	8	28.711	0	408.423	0	46.0	4	15.3	4	-1E+10	1	-1E+10	1	-1E+10	1	-1E+10	1	-1E+10	1	-1E+10	1
4901784	186	C	08/07/2020	10:49	-132.421	43.001	0	414.70	0	5.5590	0	36.3870	8	28.711	0	410.997	0	46.6	4	15.5	4	-1E+10	1	-1E+10	1	-1E+10	1	-1E+10	1	-1E+10	1	-1E+10	1
4901784	186	C	08/07/2020	10:49	-132.421	43.001	0	417.40	0	5.4760	0	36.3790	8	28.715	0	413.671	0	47.3	4	15.7	4	-1E+10	1	-1E+10	1	-1E+10	1	-1E+10	1	-1E+10	1	-1E+10	1
4901784	186	C	08/07/2020	10:49	-132.421	43.001	0	420.00	0	5.4030	0	36.3780	8	28.724	0	416.245	0	47.0	4	15.6	4	-1E+10	1	-1E+10	1	-1E+10	1	-1E+10	1	-1E+10	1	-1E+10	1
4901784	186	C	08/07/2020	10:49	-132.421	43.001	0	422.80	0	5.3590	0	36.3800	8	28.731	0	419.017	0	46.2	4	15.3	4	-1E+10	1	-1E+10	1	-1E+10	1	-1E+10	1	-1E+10	1	-1E+10	1
4901784	186	C	08/07/2020	10:49	-132.421	43.001	0	424.50	0	5.3260	0	36.3810	8	28.736	0	420.700	0	45.5	4	15.1	4	-1E+10	1	-1E+10	1	-1E+10	1	-1E+10	1	-1E+10	1	-1E+10	1
4901784	186	C	08/07/2020	10:49	-132.421	43.001	0	427.20	0	5.3400	0	36.3900	8	28.741	0	423.373	0	44.1	4	14.6	4	-1E+10	1	-1E+10	1	-1E+10	1	-1E+10	1	-1E+10	1	-1E+10	1
4901784	186	C	08/07/2020	10:49	-132.421	43.001	0	429.90	0	5.3300	0	36.3960	8	28.747	0	426.046	0	43.0	4	14.3	4	-1E+10	1	-1E+10	1	-1E+10	1	-1E+10	1	-1E+10	1	-1E+10	1
4901784	186	C	08/07/2020	10:49	-132.421	43.001	0	432.60	0	5.3400	0	36.4010	8	28.750	0	428.719	0	41.9	4	13.9	4	-1E+10	1	-1E+10	1	-1E+10	1	-1E+10	1	-1E+10	1	-1E+10	1
4901784	186	C	08/07/2020	10:49	-132.421	43.001	0	435.30	0	5.3530	0	36.4060	8	28.752	0	431.392	0	41.1	4	13.6	4	-1E+10	1	-1E+10	1	-1E+10	1	-1E+10	1	-1E+10	1	-1E+10	1
4901784	186	C	08/07/2020	10:49	-132.421	43.001	0	437.10	0	5.3620	0	36.4090	8	28.753	0	433.174	0	40.5	4	13.4	4	-1E+10	1	-1E+10	1	-1E+10	1	-1E+10	1	-1E+10	1	-1E+10	1
4901784	186	C	08/07/2020	10:49	-132.421	43.001	0	439.80	0	5.3780	0	36.4140	8	28.755	0	435.847	0	40.0	4	13.3	4	-1E+10	1	-1E+10	1	-1E+10	1	-1E+10	1	-1E+10	1	-1E+10	1
4901784	186	C	08/07/2020	10:49	-132.421	43.001	0	442.60	0	5.3810	0	36.4150	8	28.756	0	438.619	0	39.8	4	13.2	4	-1E+10	1	-1E+10	1	-1E+10	1	-1E+10	1	-1E+10	1	-1E+10	1
4901784	186	C	08/07/2020	10:49	-132.421	43.001	0	445.30	0	5.3590	0	36.4120	8	28.756	0	441.292	0	40.0	4	13.3	4	-1E+10	1	-1E+10	1	-1E+10	1	-1E+10	1	-1E+10	1	-1E+10	1
4901784	186	C	08/07/2020	10:49	-132.421	43.001	0	448.00	0	5.3010	0	36.4120	8	28.763	0	443.964	0	40.2	4	13.3	4	-1E+10	1	-1E+10	1	-1E+10	1	-1E+10	1	-1E+10	1	-1E+10	1
4901784	186	C	08/07/2020	10:49	-132.421	43.001	0	449.90	0	5.2450	0	36.4100	8	28.769	0	445.845	0	40.3	4	13.3	4	-1E+10	1	-1E+10	1	-1E+10	1	-1E+10	1	-1E+10	1	-1E+10	1
4901784	186	C	08/07/2020	10:49	-132.421	43.001	0	452.60	0	5.2410	0	36.4090	8	28.769	0	448.518	0	40.0	4	13.2	4	-1E+10	1	-1E+10	1	-1E+10	1	-1E+10	1	-1E+10	1	-1E+10	1
4901784	186	C	08/07/2020	10:49	-132.421	43.001	0	455.40	0	5.2410	0	36.4140	8	28.772	0	451.290	0	39.7	4	13.1	4	-1E+10	1	-1E+10	1	-1E+10	1	-1E+10	1	-1E+10	1	-1E+10	1
4901784	186	C	08/07/2020	10:49	-132.421	43.001	0	457.20	0	5.2200	0	36.4130	8	28.774	0	453.072	0	39.7	4	13.1	4	-1E+10	1	-1E+10	1	-1E+10	1	-1E+10	1	-1E+10	1	-1E+10	1
4901784	186	C	08/07/2020	10:49	-132.421	43.001	0	460.00	0	5.1940	0	36.4090	8	28.774	0	455.843	0	39.8	4	13.2	4	-1E+10	1	-1E+10	1	-1E+10	1	-1E+10	1	-1E+10	1	-1E+10	1
4901784	186	C	08/07/2020	10:49	-132.421	43.001	0	462.80	0	5.1440	0	36.4040	8	28.776	0	458.615	0	40.0	4	13.2	4	-1E+10	1	-1E+10	1	-1E+10	1	-1E+10	1	-1E+10	1	-1E+10	1
4901784	186	C	08/07/2020	10:49	-132.421	43.001	0	464.60	0	5.0470	0	36.4010	8	28.786	0	460.397	0	39.7	4	13.1	4	-1E+10	1	-1E+10	1	-1E+10	1	-1E+10	1	-1E+10	1	-1E+10	1
4901784	186	C	08/07/2020	10:49	-132.421	43.001	0	467.50	0	5.0290	0	36.4050	8	28.791	0	463.267	0	38.3	4	12.6	4	-1E+10	1	-1E+10	1	-1E+10	1	-1E+10	1	-1E+10	1	-1E+10	1
4901784	186	C	08/07/2020	10:49	-132.421	43.001	0	470.90	0	5.0160	0	36.4130	8	28.799	0	466.632	0	37.2	4	12.2	4	-1E+10	1	-1E+10	1	-1E+10	1	-1E+10	1	-1E+10	1	-1E+10	1
4901784	186	C	08/07/2020	10:49	-132.421	43.001	0	472.70	0	5.0110	0	36.4170	8	28.803	0	468.414	0	36.6	4	12.0	4	-1E+10	1	-1E+10	1	-1E+10	1	-1E+10	1	-1E+10	1	-1E+10	1
4901784	186	C	08/07/2020	10:49	-132.421	43.001	0	475.10	0	5.0010	0	36.4190	8	28.806	0	470.790	0	36.1	4	11.9	4	-1E+10	1	-1E+10	1	-1E+10	1	-1E+10	1	-1E+10	1	-1E+10	1
4901784	186	C	08/07/2020	10:49	-132.421	43.001	0	477.50	0	4.9940	0	36.4200	8	28.807	0	473.165	0	35.5	4	11.7	4	-1E+10	1	-1E+10	1	-1E+10	1	-1E+10	1	-1E+10	1	-1E+10	1
4901784	186	C	08/07/2020	10:49	-132.421	43.001	0	479.90	0	4.9840	0	36.4240	8	28.812	0	475.541	0	34.9	4	11.5	4	-1E+10	1	-1E+10	1	-1E+10	1	-1E+10	1	-1E+10	1	-1E+10	1
4901784	186	C	08/07/2020	10:49	-132.421	43.001	0	482.30	0	4.9840	0	36.4260	8	28.813	0	477.916	0	34.2	4	11.2	4	-1E+10	1	-1E+10	1	-1E+10	1	-1E+10	1	-1E+10	1	-1E+10	1
4901784	186	C	08/07/2020	10:49	-132.421	43.001	0	484.70	0	4.9760	0	36.4300	8	28.818	0	480.291	0	33.5	4	11.0	4	-1E+10	1	-1E+10	1	-1E+10	1	-1E+10	1	-1E+10	1	-1E+10	1
4901784	186	C	08/07/2020	10:49	-132.421	43.001	0	487.20	0	4.9580	0	36.4340	8	28.823	0	482.766	0	32.9	4	10.8	4	-1E+10	1	-1E+10	1	-1E+10	1	-1E+10	1	-1E+10	1	-1E+10	1
4901784	186	C	08/07/2020	10:49	-132.421	43.001	0	489.70	0	4.9540	0	36.4360	8	28.825	0	485.240	0	32.4	4	10.6	4	-1E+10	1	-1E+10	1	-1E+10	1	-1E+10	1	-1E+10	1	-1E+10	1
4901784	186	C	08/07/2020	10:49	-132.421	43.001	0	492.20	0	4.9470	0	36.4390	8	28.828	0	487.714	0	31.9	4	10.5	4	-1E+10	1	-1E+10	1	-1E+10	1	-1E+10	1	-1E+10	1	-1E+10	1
4901784	186	C	08/07/2020	10:49	-132.421	43.001	0	494.70	0	4.9320	0	36.4430	8	28.833	0	490.189	0	31.5	4	10.3	4	-1E+10	1	-1E+10	1	-1E+10	1	-1E+10	1	-1E+10	1	-1E+10	1
4901784	186	C	08/07/2020	10:49	-132.421	43.001	0	497.30	0	4.9230	0	36.4440	8	28.835	0	492.762	0	31.2	4	10.2	4	-1E+10	1	-1E+10	1	-1E+10	1	-1E+10	1	-1E+10	1	-1E+10	1
4901784	186	C	08/07/2020	10:49	-132.421	43.001	0	499.80	0	4.9140	0	36.4450	8	28.837	0	495.236	0	30.7	4	10.1	4	-1E+10	1	-1E+10	1	-1E+10	1	-1E+10	1	-1E+10	1	-1E+10	1
4901784	186	C	08/07/2020	10:49	-132.421	43.001	0	505.00	0	4.8880	0	36.4520	8	28.846	0	500.382	0	29.8	4	9.8	4	-1E+10	1	-1E+10	1	-1E+10	1	-1E+10	1	-1E+10	1	-1E+10	1
4901784	186	C	08/07/2020	10:49	-132.421	43.001	0	509.20	0	4.8780	0	36.4540	8	28.848	0	504.539	0	29.4	4	9.6	4	-1E+10	1	-1E+10	1	-1E+10	1	-1E+10	1	-1E+10	1	-1E+10	1
4901784	186	C	08/07/2020	10:49	-132.421	43.001	0	514.30	0	4.8560	0	36.4590	8	28.855	0	509.586	0	28.8	4	9.4	4	-1E+10	1	-1E+10	1	-1E+10	1	-1E+10	1	-1E+10	1	-1E+10	1
4901784	186	C	08/07/2020	10:49	-132.421	43.001	0	519.50	0	4.8210	0	36.4600	8	28.860	0	514.732	0	28.2	4	9.2	4	-1E+10	1	-1E+10	1	-1E+10	1	-1E+10	1	-1E+10	1	-1E+10	1
4901784	186	C	08/07/2020	10:49	-132.421	43.001	0	524.70	0	4.8000	0	36.4680	8	28.869	0	519.878	0	27.3	4	9.0	4	-1E+10	1	-1E+10	1	-1E+10	1	-1E+10	1	-1E+10	1	-1E+10	1
4901784	186	C	08/07/2020	10:49	-132.421	43.001	0	530.10	0	4.7920	0	36.4700	8	28.872	0	525.221	0	26.8	4	8.8	4	-1E+10	1	-1E+10	1	-1E+10	1	-1E+10	1	-1E+10	1	-1E+10	1
4901784	186	C	08/07/2020	10:49	-132.421	43.001	0	535.50	0	4.7820	0	36.4740	8	28.876	0	530.565	0	26.3	4	8.6	4	-1E+10	1	-1E+10	1	-1E+10	1	-1E+10	1	-1E+10	1	-1E+10	1
4901784	186	C	08/07/2020	10:49	-132.421	43.001	0	540.00	0	4.7720	0	36.4760	8	28.879	0	535.017	0	25.8	4	8.4	4	-1E+10	1	-1E+10	1	-1E+10	1	-1E+10	1	-1E+10	1	-1E+10	1
4901784	186	C	08/07/2020	10:49	-132.421	43.001	0	544.50	0	4.7610	0	36.4790	8	28.882	0	539.470	0	25.1	4	8.2	4	-1E+10	1	-1E+10	1	-1E+10	1	-1E+10	1	-1E+10	1	-1E+10	1
4901784	186	C	08/07/2020	10:49	-132.421	43.001	0	549.90	0	4.7370	0	36.4840	8	28.889	0	544.813	0	24.0	4	7.8	4	-1E+10	1	-1E+10	1	-1E+10	1	-1E+10	1	-1E+10	1	-1E+10	1
4901784	186	C	08/07/2020	10:49	-132.421	43.001	0	555.40	0	4.7050	0	36.4930	8	28.900	0	550.255	0	22.9	4	7.5	4	-1E+10	1	-1E+10	1	-1E+10	1	-1E+10	1	-1E+10	1	-1E+10	1
4901784	186	C	08/07/2020	10:49	-132.421	43.001	0	560.00	0	4.6950	0	36.5010	8	28.908	0	554.806	0	22.0	4	7.2	4	-1E+10	1	-1E+10	1	-1E+10	1	-1E+10	1	-1E+10	1	-1E+10	1
4901784	186	C	08/07/2020	10:49	-132.421	43.001	0	564.70	0	4.6820	0	36.5050	8	28.912	0	559.456	0	21.3	4	7.0	4	-1E+10	1	-1E+10	1	-1E+10	1	-1E+10	1	-1E+10	1	-1E+10	1
4901784	186	C	08/07/2020	10:49	-132.421	43.001	0	570.30	0	4.6650	0	36.5120	8	28.920	0	564.997	0	20.5	4	6.7	4	-1E+10	1	-1E+10	1	-1E+10	1	-1E+10	1	-1E+10	1	-1E+10	1
4901784	186	C	08/07/2020	10:49	-132.421	43.001	0	574.90	0	4.6520	0	36.5170	8	28.926	0	569.548	0	20.0	4	6.5	4	-1E+10	1	-1E+10	1	-1E+10	1	-1E+10	1	-1E+10	1	-1E+10	1
4901784	186	C	08/07/2020	10:49	-132.421	43.001	0	579.70	0	4.6380	0	36.5220	8	28.931	0	574.296	0	19.3	4	6.3	4	-1E+10	1	-1E+10	1	-1E+10	1	-1E+10	1	-1E+10	1	-1E+10	1
4901784	186	C	08/07/2020	10:49	-132.421	43.001	0	584.40	0	4.6200	0	36.5290	8	28.939	0	578.946	0	18.9	4	6.2	4	-1E+10	1	-1E+10	1	-1E+10	1	-1E+10	1	-1E+10	1	-1E+10	1
4901784	186	C	08/07/2020	10:49	-132.421	43.001	0	589.20	0	4.6110	0	36.5320	8	28.942	0	583.694	0	18.5	4	6.0	4	-1E+10	1	-1E+10	1	-1E+10	1	-1E+10	1	-1E+10	1	-1E+10	1
4901784	186	C	08/07/2020	10:49	-132.421	43.001	0	594.60	0	4.5970	0	36.5370	8	28.948	0	589.036	0	18.0	4	5.9	4	-1E+10	1	-1E+10	1	-1E+10	1	-1E+10	1	-1E+10	1	-1E+10	1
4901784	186	C	08/07/2020	10:49	-132.421	43.001	0	599.50	0	4.5830	0	36.5410	8	28.953	0	593.883	0	17.6	4	5.7	4	-1E+10	1	-1E+10	1	-1E+10	1	-1E+10	1	-1E+10	1	-1E+10	1
4901784	186	C	08/07/2020	10:49	-132.421	43.001	0	604.40	0	4.5720	0	36.5450	8	28.957	0	598.730	0	17.3	4	5.6	4	-1E+10	1	-1E+10	1	-1E+10	1	-1E+10	1	-1E+10	1	-1E+10	1
4901784	186	C	08/07/2020	10:49	-132.421	43.001	0	609.40	0	4.5650	0	36.5480	8	28.961	0	603.676	0	17.0	4	5.5	4	-1E+10	1	-1E+10	1	-1E+10	1	-1E+10	1	-1E+10	1	-1E+10	1
4901784	186	C	08/07/2020	10:49	-132.421	43.001	0	614.30	0	4.5550	0	36.5510	8	28.964	0	608.523	0	16.6	4	5.4	4	-1E+10	1	-1E+10	1	-1E+10	1	-1E+10	1	-1E+10	1	-1E+10	1
4901784	186	C	08/07/2020	10:49	-132.421	43.001	0	619.30	0	4.5380	0	36.5560	8	28.970	0	613.469	0	16.3	4	5.3	4	-1E+10	1	-1E+10	1	-1E+10	1	-1E+10	1	-1E+10	1	-1E+10	1
4901784	186	C	08/07/2020	10:49	-132.421	43.001	0	624.30	0	4.5210	0	36.5600	8	28.975	0	618.414	0	15.9	4	5.2	4	-1E+10	1	-1E+10	1	-1E+10	1	-1E+10	1	-1E+10	1	-1E+10	1
4901784	186	C	08/07/2020	10:49	-132.421	43.001	0	629.40	0	4.5020	0	36.5640	8	28.981	0	623.459	0	15.6	4	5.1	4	-1E+10	1	-1E+10	1	-1E+10	1	-1E+10	1	-1E+10	1	-1E+10	1
4901784	186	C	08/07/2020	10:49	-132.421	43.001	0	634.50	0	4.4780	0	36.5690	8	28.987	0	628.503	0	15.3	4	5.0	4	-1E+10	1	-1E+10	1	-1E+10	1	-1E+10	1	-1E+10	1	-1E+10	1
4901784	186	C	08/07/2020	10:49	-132.421	43.001	0	639.60	0	4.4620	0	36.5730	8	28.993	0	633.547	0	15.1	4	4.9	4	-1E+10	1	-1E+10	1	-1E+10	1	-1E+10	1	-1E+10	1	-1E+10	1
4901784	186	C	08/07/2020	10:49	-132.421	43.001	0	644.90	0	4.4490	0	36.5750	8	28.996	0	638.788	0	15.0	4	4.9	4	-1E+10	1	-1E+10	1	-1E+10	1	-1E+10	1	-1E+10	1	-1E+10	1
4901784	186	C	08/07/2020	10:49	-132.421	43.001	0	650.10	0	4.4380	0	36.5780	8	28.999	0	643.931	0	14.8	4	4.8	4	-1E+10	1	-1E+10	1	-1E+10	1	-1E+10	1	-1E+10	1	-1E+10	1
4901784	186	C	08/07/2020	10:49	-132.421	43.001	0	655.40	0	4.4230	0	36.5810	8	29.003	0	649.173	0	14.6	4	4.7	4	-1E+10	1	-1E+10	1	-1E+10	1	-1E+10	1	-1E+10	1	-1E+10	1
4901784	186	C	08/07/2020	10:49	-132.421	43.001	0	659.90	0	4.4190	0	36.5830	8	29.006	0	653.623	0	14.5	4	4.7	4	-1E+10	1	-1E+10	1	-1E+10	1	-1E+10	1	-1E+10	1	-1E+10	1
4901784	186	C	08/07/2020	10:49	-132.421	43.001	0	664.40	0	4.4120	0	36.5840	8	29.007	0	658.073	0	14.3	4	4.7	4	-1E+10	1	-1E+10	1	-1E+10	1	-1E+10	1	-1E+10	1	-1E+10	1
4901784	186	C	08/07/2020	10:49	-132.421	43.001	0	669.80	0	4.3910	0	36.5870	8	29.012	0	663.413	0	14.1	4	4.6	4	-1E+10	1	-1E+10	1	-1E+10	1	-1E+10	1	-1E+10	1	-1E+10	1
4901784	186	C	08/07/2020	10:49	-132.421	43.001	0	675.10	0	4.3680	0	36.5920	8	29.019	0	668.654	0	13.9	4	4.5	4	-1E+10	1	-1E+10	1	-1E+10	1	-1E+10	1	-1E+10	1	-1E+10	1
4901784	186	C	08/07/2020	10:49	-132.421	43.001	0	680.50	0	4.3490	0	36.5940	8	29.022	0	673.994	0	13.7	4	4.4	4	-1E+10	1	-1E+10	1	-1E+10	1	-1E+10	1	-1E+10	1	-1E+10	1
4901784	186	C	08/07/2020	10:49	-132.421	43.001	0	684.90	0	4.3250	0	36.5980	8	29.028	0	678.344	0	13.5	4	4.4	4	-1E+10	1	-1E+10	1	-1E+10	1	-1E+10	1	-1E+10	1	-1E+10	1
4901784	186	C	08/07/2020	10:49	-132.421	43.001	0	689.40	0	4.3020	0	36.6020	8	29.034	0	682.794	0	13.3	4	4.3	4	-1E+10	1	-1E+10	1	-1E+10	1	-1E+10	1	-1E+10	1	-1E+10	1
4901784	186	C	08/07/2020	10:49	-132.421	43.001	0	694.70	0	4.2710	0	36.6060	8	29.041	0	688.034	0	13.3	4	4.3	4	-1E+10	1	-1E+10	1	-1E+10	1	-1E+10	1	-1E+10	1	-1E+10	1
4901784	186	C	08/07/2020	10:49	-132.421	43.001	0	700.10	0	4.2500	0	36.6050	8	29.042	0	693.374	0	13.3	4	4.3	4	-1E+10	1	-1E+10	1	-1E+10	1	-1E+10	1	-1E+10	1	-1E+10	1
4901784	186	C	08/07/2020	10:49	-132.421	43.001	0	705.40	0	4.2340	0	36.6080	8	29.047	0	698.614	0	13.2	4	4.3	4	-1E+10	1	-1E+10	1	-1E+10	1	-1E+10	1	-1E+10	1	-1E+10	1
4901784	186	C	08/07/2020	10:49	-132.421	43.001	0	709.90	0	4.2100	0	36.6100	8	29.051	0	703.063	0	13.1	4	4.2	4	-1E+10	1	-1E+10	1	-1E+10	1	-1E+10	1	-1E+10	1	-1E+10	1
4901784	186	C	08/07/2020	10:49	-132.421	43.001	0	714.30	0	4.1880	0	36.6120	8	29.055	0	707.413	0	13.0	4	4.2	4	-1E+10	1	-1E+10	1	-1E+10	1	-1E+10	1	-1E+10	1	-1E+10	1
4901784	186	C	08/07/2020	10:49	-132.421	43.001	0	719.70	0	4.1770	0	36.6150	8	29.059	0	712.752	0	13.0	4	4.2	4	-1E+10	1	-1E+10	1	-1E+10	1	-1E+10	1	-1E+10	1	-1E+10	1
4901784	186	C	08/07/2020	10:49	-132.421	43.001	0	725.10	0	4.1730	0	36.6150	8	29.059	0	718.090	0	12.9	4	4.2	4	-1E+10	1	-1E+10	1	-1E+10	1	-1E+10	1	-1E+10	1	-1E+10	1
4901784	186	C	08/07/2020	10:49	-132.421	43.001	0	730.40	0	4.1610	0	36.6160	8	29.061	0	723.330	0	12.8	4	4.1	4	-1E+10	1	-1E+10	1	-1E+10	1	-1E+10	1	-1E+10	1	-1E+10	1
4901784	186	C	08/07/2020	10:49	-132.421	43.001	0	734.90	0	4.1420	0	36.6180	8	29.065	0	727.779	0	12.8	4	4.1	4	-1E+10	1	-1E+10	1	-1E+10	1	-1E+10	1	-1E+10	1	-1E+10	1
4901784	186	C	08/07/2020	10:49	-132.421	43.001	0	739.30	0	4.1310	0	36.6210	8	29.069	0	732.128	0	12.7	4	4.1	4	-1E+10	1	-1E+10	1	-1E+10	1	-1E+10	1	-1E+10	1	-1E+10	1
4901784	186	C	08/07/2020	10:49	-132.421	43.001	0	744.60	0	4.1240	0	36.6210	8	29.069	0	737.367	0	12.6	4	4.1	4	-1E+10	1	-1E+10	1	-1E+10	1	-1E+10	1	-1E+10	1	-1E+10	1
4901784	186	C	08/07/2020	10:49	-132.421	43.001	0	749.90	0	4.1020	0	36.6240	8	29.074	0	742.606	0	12.5	4	4.0	4	-1E+10	1	-1E+10	1	-1E+10	1	-1E+10	1	-1E+10	1	-1E+10	1
4901784	186	C	08/07/2020	10:49	-132.421	43.001	0	755.10	0	4.0790	0	36.6280	8	29.080	0	747.747	0	12.4	4	4.0	4	-1E+10	1	-1E+10	1	-1E+10	1	-1E+10	1	-1E+10	1	-1E+10	1
4901784	186	C	08/07/2020	10:49	-132.421	43.001	0	760.40	0	4.0660	0	36.6320	8	29.085	0	752.985	0	12.2	4	3.9	4	-1E+10	1	-1E+10	1	-1E+10	1	-1E+10	1	-1E+10	1	-1E+10	1
4901784	186	C	08/07/2020	10:49	-132.421	43.001	0	765.70	0	4.0570	0	36.6380	8	29.090	0	758.224	0	12.0	4	3.9	4	-1E+10	1	-1E+10	1	-1E+10	1	-1E+10	1	-1E+10	1	-1E+10	1
4901784	186	C	08/07/2020	10:49	-132.421	43.001	0	770.00	0	4.0510	0	36.6400	8	29.093	0	762.474	0	11.9	4	3.8	4	-1E+10	1	-1E+10	1	-1E+10	1	-1E+10	1	-1E+10	1	-1E+10	1
4901784	186	C	08/07/2020	10:49	-132.421	43.001	0	774.30	0	4.0370	0	36.6420	8	29.096	0	766.724	0	11.9	4	3.8	4	-1E+10	1	-1E+10	1	-1E+10	1	-1E+10	1	-1E+10	1	-1E+10	1
4901784	186	C	08/07/2020	10:49	-132.421	43.001	0	779.50	0	4.0110	0	36.6440	8	29.100	0	771.864	0	11.7	4	3.8	4	-1E+10	1	-1E+10	1	-1E+10	1	-1E+10	1	-1E+10	1	-1E+10	1
4901784	186	C	08/07/2020	10:49	-132.421	43.001	0	784.70	0	3.9960	0	36.6490	8	29.106	0	777.003	0	11.5	4	3.7	4	-1E+10	1	-1E+10	1	-1E+10	1	-1E+10	1	-1E+10	1	-1E+10	1
4901784	186	C	08/07/2020	10:49	-132.421	43.001	0	789.90	0	3.9830	0	36.6550	8	29.112	0	782.143	0	11.4	4	3.7	4	-1E+10	1	-1E+10	1	-1E+10	1	-1E+10	1	-1E+10	1	-1E+10	1
4901784	186	C	08/07/2020	10:49	-132.421	43.001	0	795.10	0	3.9580	0	36.6600	8	29.119	0	787.282	0	11.3	4	3.6	4	-1E+10	1	-1E+10	1	-1E+10	1	-1E+10	1	-1E+10	1	-1E+10	1
4901784	186	C	08/07/2020	10:49	-132.421	43.001	0	800.20	0	3.9410	0	36.6640	8	29.124	0	792.322	0	11.2	4	3.6	4	-1E+10	1	-1E+10	1	-1E+10	1	-1E+10	1	-1E+10	1	-1E+10	1
4901784	186	C	08/07/2020	10:49	-132.421	43.001	0	805.40	0	3.9270	0	36.6660	8	29.127	0	797.461	0	11.1	4	3.6	4	-1E+10	1	-1E+10	1	-1E+10	1	-1E+10	1	-1E+10	1	-1E+10	1
4901784	186	C	08/07/2020	10:49	-132.421	43.001	0	810.60	0	3.9000	0	36.6710	8	29.134	0	802.599	0	10.9	4	3.5	4	-1E+10	1	-1E+10	1	-1E+10	1	-1E+10	1	-1E+10	1	-1E+10	1
4901784	186	C	08/07/2020	10:49	-132.421	43.001	0	815.00	0	3.8840	0	36.6750	8	29.139	0	806.948	0	10.8	4	3.5	4	-1E+10	1	-1E+10	1	-1E+10	1	-1E+10	1	-1E+10	1	-1E+10	1
4901784	186	C	08/07/2020	10:49	-132.421	43.001	0	819.40	0	3.8700	0	36.6800	8	29.144	0	811.296	0	10.8	4	3.5	4	-1E+10	1	-1E+10	1	-1E+10	1	-1E+10	1	-1E+10	1	-1E+10	1
4901784	186	C	08/07/2020	10:49	-132.421	43.001	0	824.70	0	3.8590	0	36.6830	8	29.148	0	816.533	0	10.7	4	3.4	4	-1E+10	1	-1E+10	1	-1E+10	1	-1E+10	1	-1E+10	1	-1E+10	1
4901784	186	C	08/07/2020	10:49	-132.421	43.001	0	830.00	0	3.8520	0	36.6850	8	29.150	0	821.770	0	10.7	4	3.4	4	-1E+10	1	-1E+10	1	-1E+10	1	-1E+10	1	-1E+10	1	-1E+10	1
4901784	186	C	08/07/2020	10:49	-132.421	43.001	0	835.30	0	3.8450	0	36.6890	8	29.154	0	827.007	0	10.6	4	3.4	4	-1E+10	1	-1E+10	1	-1E+10	1	-1E+10	1	-1E+10	1	-1E+10	1
4901784	186	C	08/07/2020	10:49	-132.421	43.001	0	840.70	0	3.8380	0	36.6900	8	29.156	0	832.342	0	10.5	4	3.4	4	-1E+10	1	-1E+10	1	-1E+10	1	-1E+10	1	-1E+10	1	-1E+10	1
4901784	186	C	08/07/2020	10:49	-132.421	43.001	0	845.10	0	3.8270	0	36.6930	8	29.160	0	836.690	0	10.5	4	3.4	4	-1E+10	1	-1E+10	1	-1E+10	1	-1E+10	1	-1E+10	1	-1E+10	1
4901784	186	C	08/07/2020	10:49	-132.421	43.001	0	849.60	0	3.8190	0	36.6950	8	29.162	0	841.136	0	10.4	4	3.3	4	-1E+10	1	-1E+10	1	-1E+10	1	-1E+10	1	-1E+10	1	-1E+10	1
4901784	186	C	08/07/2020	10:49	-132.421	43.001	0	854.90	0	3.8030	0	36.6990	8	29.167	0	846.373	0	10.4	4	3.3	4	-1E+10	1	-1E+10	1	-1E+10	1	-1E+10	1	-1E+10	1	-1E+10	1
4901784	186	C	08/07/2020	10:49	-132.421	43.001	0	860.40	0	3.7910	0	36.7030	8	29.172	0	851.807	0	10.3	4	3.3	4	-1E+10	1	-1E+10	1	-1E+10	1	-1E+10	1	-1E+10	1	-1E+10	1
4901784	186	C	08/07/2020	10:49	-132.421	43.001	0	865.00	0	3.7820	0	36.7060	8	29.175	0	856.351	0	10.3	4	3.3	4	-1E+10	1	-1E+10	1	-1E+10	1	-1E+10	1	-1E+10	1	-1E+10	1
4901784	186	C	08/07/2020	10:49	-132.421	43.001	0	870.40	0	3.7790	0	36.7070	8	29.176	0	861.686	0	10.3	4	3.3	4	-1E+10	1	-1E+10	1	-1E+10	1	-1E+10	1	-1E+10	1	-1E+10	1
4901784	186	C	08/07/2020	10:49	-132.421	43.001	0	875.50	0	3.7700	0	36.7090	8	29.179	0	866.724	0	10.2	4	3.3	4	-1E+10	1	-1E+10	1	-1E+10	1	-1E+10	1	-1E+10	1	-1E+10	1
4901784	186	C	08/07/2020	10:49	-132.421	43.001	0	880.20	0	3.7590	0	36.7130	8	29.183	0	871.368	0	10.1	4	3.2	4	-1E+10	1	-1E+10	1	-1E+10	1	-1E+10	1	-1E+10	1	-1E+10	1
4901784	186	C	08/07/2020	10:49	-132.421	43.001	0	884.90	0	3.7470	0	36.7170	8	29.188	0	876.011	0	10.1	4	3.2	4	-1E+10	1	-1E+10	1	-1E+10	1	-1E+10	1	-1E+10	1	-1E+10	1
4901784	186	C	08/07/2020	10:49	-132.421	43.001	0	889.70	0	3.7360	0	36.7190	8	29.190	0	880.752	0	10.1	4	3.2	4	-1E+10	1	-1E+10	1	-1E+10	1	-1E+10	1	-1E+10	1	-1E+10	1
4901784	186	C	08/07/2020	10:49	-132.421	43.001	0	894.60	0	3.7270	0	36.7220	8	29.194	0	885.593	0	10.0	4	3.2	4	-1E+10	1	-1E+10	1	-1E+10	1	-1E+10	1	-1E+10	1	-1E+10	1
4901784	186	C	08/07/2020	10:49	-132.421	43.001	0	899.50	0	3.7060	0	36.7270	8	29.200	0	890.433	0	10.0	4	3.2	4	-1E+10	1	-1E+10	1	-1E+10	1	-1E+10	1	-1E+10	1	-1E+10	1
4901784	186	C	08/07/2020	10:49	-132.421	43.001	0	904.50	0	3.6910	0	36.7310	8	29.205	0	895.372	0	10.0	4	3.2	4	-1E+10	1	-1E+10	1	-1E+10	1	-1E+10	1	-1E+10	1	-1E+10	1
4901784	186	C	08/07/2020	10:49	-132.421	43.001	0	909.50	0	3.6720	0	36.7360	8	29.211	0	900.310	0	10.0	4	3.2	4	-1E+10	1	-1E+10	1	-1E+10	1	-1E+10	1	-1E+10	1	-1E+10	1
4901784	186	C	08/07/2020	10:49	-132.421	43.001	0	914.50	0	3.6600	0	36.7400	8	29.215	0	905.249	0	10.0	4	3.2	4	-1E+10	1	-1E+10	1	-1E+10	1	-1E+10	1	-1E+10	1	-1E+10	1
4901784	186	C	08/07/2020	10:49	-132.421	43.001	0	919.40	0	3.6510	0	36.7420	8	29.218	0	910.089	0	10.0	4	3.2	4	-1E+10	1	-1E+10	1	-1E+10	1	-1E+10	1	-1E+10	1	-1E+10	1
4901784	186	C	08/07/2020	10:49	-132.421	43.001	0	924.50	0	3.6380	0	36.7440	8	29.221	0	915.126	0	10.0	4	3.2	4	-1E+10	1	-1E+10	1	-1E+10	1	-1E+10	1	-1E+10	1	-1E+10	1
4901784	186	C	08/07/2020	10:49	-132.421	43.001	0	929.60	0	3.6250	0	36.7470	8	29.225	0	920.163	0	10.0	4	3.2	4	-1E+10	1	-1E+10	1	-1E+10	1	-1E+10	1	-1E+10	1	-1E+10	1
4901784	186	C	08/07/2020	10:49	-132.421	43.001	0	934.80	0	3.6120	0	36.7510	8	29.229	0	925.299	0	10.0	4	3.2	4	-1E+10	1	-1E+10	1	-1E+10	1	-1E+10	1	-1E+10	1	-1E+10	1
4901784	186	C	08/07/2020	10:49	-132.421	43.001	0	939.90	0	3.5970	0	36.7550	8	29.234	0	930.336	0	10.0	4	3.2	4	-1E+10	1	-1E+10	1	-1E+10	1	-1E+10	1	-1E+10	1	-1E+10	1
4901784	186	C	08/07/2020	10:49	-132.421	43.001	0	945.10	0	3.5870	0	36.7590	8	29.238	0	935.471	0	10.0	4	3.2	4	-1E+10	1	-1E+10	1	-1E+10	1	-1E+10	1	-1E+10	1	-1E+10	1
4901784	186	C	08/07/2020	10:49	-132.421	43.001	0	950.30	0	3.5770	0	36.7630	8	29.243	0	940.607	0	10.1	4	3.2	4	-1E+10	1	-1E+10	1	-1E+10	1	-1E+10	1	-1E+10	1	-1E+10	1
4901784	186	C	08/07/2020	10:49	-132.421	43.001	0	955.50	0	3.5640	0	36.7720	8	29.251	0	945.742	0	10.1	4	3.2	4	-1E+10	1	-1E+10	1	-1E+10	1	-1E+10	1	-1E+10	1	-1E+10	1
4901784	186	C	08/07/2020	10:49	-132.421	43.001	0	959.80	0	3.5520	0	36.7750	8	29.255	0	949.988	0	10.1	4	3.2	4	-1E+10	1	-1E+10	1	-1E+10	1	-1E+10	1	-1E+10	1	-1E+10	1
4901784	186	C	08/07/2020	10:49	-132.421	43.001	0	964.30	0	3.5430	0	36.7770	8	29.257	0	954.432	0	10.2	4	3.2	4	-1E+10	1	-1E+10	1	-1E+10	1	-1E+10	1	-1E+10	1	-1E+10	1
4901784	186	C	08/07/2020	10:49	-132.421	43.001	0	969.60	0	3.5280	0	36.7810	8	29.262	0	959.666	0	10.2	4	3.2	4	-1E+10	1	-1E+10	1	-1E+10	1	-1E+10	1	-1E+10	1	-1E+10	1
4901784	186	C	08/07/2020	10:49	-132.421	43.001	0	975.00	0	3.5140	0	36.7840	8	29.266	0	964.998	0	10.3	4	3.3	4	-1E+10	1	-1E+10	1	-1E+10	1	-1E+10	1	-1E+10	1	-1E+10	1
4901784	186	C	08/07/2020	10:49	-132.421	43.001	0	980.40	0	3.5010	0	36.7870	8	29.270	0	970.330	0	10.3	4	3.3	4	-1E+10	1	-1E+10	1	-1E+10	1	-1E+10	1	-1E+10	1	-1E+10	1
4901784	186	C	08/07/2020	10:49	-132.421	43.001	0	985.00	0	3.4880	0	36.7910	8	29.274	0	974.872	0	10.3	4	3.3	4	-1E+10	1	-1E+10	1	-1E+10	1	-1E+10	1	-1E+10	1	-1E+10	1
4901784	186	C	08/07/2020	10:49	-132.421	43.001	0	989.90	0	3.4840	0	36.7920	8	29.276	0	979.710	0	10.4	4	3.3	4	-1E+10	1	-1E+10	1	-1E+10	1	-1E+10	1	-1E+10	1	-1E+10	1
4901784	186	C	08/07/2020	10:49	-132.421	43.001	0	995.30	0	3.4750	0	36.7940	8	29.278	0	985.042	0	10.4	4	3.3	4	-1E+10	1	-1E+10	1	-1E+10	1	-1E+10	1	-1E+10	1	-1E+10	1
4901784	186	C	08/07/2020	10:49	-132.421	43.001	0	1000.10	0	3.4680	0	36.7960	8	29.280	0	989.781	0	10.5	4	3.3	4	-1E+10	1	-1E+10	1	-1E+10	1	-1E+10	1	-1E+10	1	-1E+10	1
4901784	186	C	08/07/2020	10:49	-132.421	43.001	0	1004.90	0	3.4590	0	36.7990	8	29.284	0	994.520	0	10.5	4	3.3	4	-1E+10	1	-1E+10	1	-1E+10	1	-1E+10	1	-1E+10	1	-1E+10	1
4901784	186	C	08/07/2020	10:49	-132.421	43.001	0	1009.80	0	3.4510	0	36.8010	8	29.286	0	999.358	0	10.6	4	3.4	4	-1E+10	1	-1E+10	1	-1E+10	1	-1E+10	1	-1E+10	1	-1E+10	1
4901784	186	C	08/07/2020	10:49	-132.421	43.001	0	1014.70	0	3.4390	0	36.8030	8	29.289	0	1004.195	0	10.7	4	3.4	4	-1E+10	1	-1E+10	1	-1E+10	1	-1E+10	1	-1E+10	1	-1E+10	1
4901784	186	C	08/07/2020	10:49	-132.421	43.001	0	1019.60	0	3.4270	0	36.8060	8	29.293	0	1009.033	0	10.7	4	3.4	4	-1E+10	1	-1E+10	1	-1E+10	1	-1E+10	1	-1E+10	1	-1E+10	1
4901784	186	C	08/07/2020	10:49	-132.421	43.001	0	1024.60	0	3.4170	0	36.8090	8	29.296	0	1013.969	0	10.8	4	3.4	4	-1E+10	1	-1E+10	1	-1E+10	1	-1E+10	1	-1E+10	1	-1E+10	1
4901784	186	C	08/07/2020	10:49	-132.421	43.001	0	1029.60	0	3.4040	0	36.8120	8	29.300	0	1018.905	0	10.9	4	3.5	4	-1E+10	1	-1E+10	1	-1E+10	1	-1E+10	1	-1E+10	1	-1E+10	1
4901784	186	C	08/07/2020	10:49	-132.421	43.001	0	1034.60	0	3.3950	0	36.8140	8	29.303	0	1023.841	0	11.0	4	3.5	4	-1E+10	1	-1E+10	1	-1E+10	1	-1E+10	1	-1E+10	1	-1E+10	1
4901784	186	C	08/07/2020	10:49	-132.421	43.001	0	1039.70	0	3.3850	0	36.8170	8	29.306	0	1028.875	0	11.1	4	3.5	4	-1E+10	1	-1E+10	1	-1E+10	1	-1E+10	1	-1E+10	1	-1E+10	1
4901784	186	C	08/07/2020	10:49	-132.421	43.001	0	1044.80	0	3.3690	0	36.8210	8	29.311	0	1033.910	0	11.3	4	3.6	4	-1E+10	1	-1E+10	1	-1E+10	1	-1E+10	1	-1E+10	1	-1E+10	1
4901784	186	C	08/07/2020	10:49	-132.421	43.001	0	1049.90	0	3.3590	0	36.8240	8	29.314	0	1038.944	0	11.4	4	3.6	4	-1E+10	1	-1E+10	1	-1E+10	1	-1E+10	1	-1E+10	1	-1E+10	1
4901784	186	C	08/07/2020	10:49	-132.421	43.001	0	1055.10	0	3.3480	0	36.8270	8	29.318	0	1044.077	0	11.5	4	3.6	4	-1E+10	1	-1E+10	1	-1E+10	1	-1E+10	1	-1E+10	1	-1E+10	1
4901784	186	C	08/07/2020	10:49	-132.421	43.001	0	1060.30	0	3.3400	0	36.8290	8	29.320	0	1049.209	0	11.6	4	3.7	4	-1E+10	1	-1E+10	1	-1E+10	1	-1E+10	1	-1E+10	1	-1E+10	1
4901784	186	C	08/07/2020	10:49	-132.421	43.001	0	1065.40	0	3.3260	0	36.8310	8	29.323	0	1054.243	0	11.6	4	3.7	4	-1E+10	1	-1E+10	1	-1E+10	1	-1E+10	1	-1E+10	1	-1E+10	1
4901784	186	C	08/07/2020	10:49	-132.421	43.001	0	1070.60	0	3.3140	0	36.8330	8	29.326	0	1059.376	0	11.7	4	3.7	4	-1E+10	1	-1E+10	1	-1E+10	1	-1E+10	1	-1E+10	1	-1E+10	1
4901784	186	C	08/07/2020	10:49	-132.421	43.001	0	1075.00	0	3.3060	0	36.8340	8	29.328	0	1063.718	0	11.7	4	3.7	4	-1E+10	1	-1E+10	1	-1E+10	1	-1E+10	1	-1E+10	1	-1E+10	1
4901784	186	C	08/07/2020	10:49	-132.421	43.001	0	1079.30	0	3.2970	0	36.8350	8	29.329	0	1067.962	0	11.8	4	3.7	4	-1E+10	1	-1E+10	1	-1E+10	1	-1E+10	1	-1E+10	1	-1E+10	1
4901784	186	C	08/07/2020	10:49	-132.421	43.001	0	1084.60	0	3.2860	0	36.8380	8	29.333	0	1073.193	0	11.9	4	3.8	4	-1E+10	1	-1E+10	1	-1E+10	1	-1E+10	1	-1E+10	1	-1E+10	1
4901784	186	C	08/07/2020	10:49	-132.421	43.001	0	1090.00	0	3.2790	0	36.8380	8	29.334	0	1078.522	0	12.0	4	3.8	4	-1E+10	1	-1E+10	1	-1E+10	1	-1E+10	1	-1E+10	1	-1E+10	1
4901784	186	C	08/07/2020	10:49	-132.421	43.001	0	1094.80	0	3.2630	0	36.8420	8	29.339	0	1083.259	0	12.1	4	3.8	4	-1E+10	1	-1E+10	1	-1E+10	1	-1E+10	1	-1E+10	1	-1E+10	1
4901784	186	C	08/07/2020	10:49	-132.421	43.001	0	1099.70	0	3.2560	0	36.8440	8	29.341	0	1088.095	0	12.2	4	3.9	4	-1E+10	1	-1E+10	1	-1E+10	1	-1E+10	1	-1E+10	1	-1E+10	1
4901784	186	C	08/07/2020	10:49	-132.421	43.001	0	1104.70	0	3.2470	0	36.8460	8	29.343	0	1093.029	0	12.3	4	3.9	4	-1E+10	1	-1E+10	1	-1E+10	1	-1E+10	1	-1E+10	1	-1E+10	1
4901784	186	C	08/07/2020	10:49	-132.421	43.001	0	1109.50	0	3.2420	0	36.8470	8	29.345	0	1097.766	0	12.4	4	3.9	4	-1E+10	1	-1E+10	1	-1E+10	1	-1E+10	1	-1E+10	1	-1E+10	1
4901784	186	C	08/07/2020	10:49	-132.421	43.001	0	1115.50	0	3.2350	0	36.8490	8	29.347	0	1103.687	0	12.5	4	3.9	4	-1E+10	1	-1E+10	1	-1E+10	1	-1E+10	1	-1E+10	1	-1E+10	1
4901784	186	C	08/07/2020	10:49	-132.421	43.001	0	1120.40	0	3.2270	0	36.8500	8	29.349	0	1108.522	0	12.6	4	4.0	4	-1E+10	1	-1E+10	1	-1E+10	1	-1E+10	1	-1E+10	1	-1E+10	1
4901784	186	C	08/07/2020	10:49	-132.421	43.001	0	1125.40	0	3.2170	0	36.8520	8	29.351	0	1113.456	0	12.7	4	4.0	4	-1E+10	1	-1E+10	1	-1E+10	1	-1E+10	1	-1E+10	1	-1E+10	1
4901784	186	C	08/07/2020	10:49	-132.421	43.001	0	1130.30	0	3.2080	0	36.8540	8	29.354	0	1118.291	0	12.9	4	4.1	4	-1E+10	1	-1E+10	1	-1E+10	1	-1E+10	1	-1E+10	1	-1E+10	1
4901784	186	C	08/07/2020	10:49	-132.421	43.001	0	1135.20	0	3.1970	0	36.8570	8	29.357	0	1123.126	0	13.0	4	4.1	4	-1E+10	1	-1E+10	1	-1E+10	1	-1E+10	1	-1E+10	1	-1E+10	1
4901784	186	C	08/07/2020	10:49	-132.421	43.001	0	1140.20	0	3.1860	0	36.8590	8	29.360	0	1128.059	0	13.1	4	4.2	4	-1E+10	1	-1E+10	1	-1E+10	1	-1E+10	1	-1E+10	1	-1E+10	1
4901784	186	C	08/07/2020	10:49	-132.421	43.001	0	1145.10	0	3.1750	0	36.8610	8	29.363	0	1132.894	0	13.2	4	4.2	4	-1E+10	1	-1E+10	1	-1E+10	1	-1E+10	1	-1E+10	1	-1E+10	1
4901784	186	C	08/07/2020	10:49	-132.421	43.001	0	1150.10	0	3.1680	0	36.8620	8	29.364	0	1137.827	0	13.4	4	4.2	4	-1E+10	1	-1E+10	1	-1E+10	1	-1E+10	1	-1E+10	1	-1E+10	1
4901784	186	C	08/07/2020	10:49	-132.421	43.001	0	1155.00	0	3.1550	0	36.8650	8	29.368	0	1142.661	0	13.5	4	4.2	4	-1E+10	1	-1E+10	1	-1E+10	1	-1E+10	1	-1E+10	1	-1E+10	1
4901784	186	C	08/07/2020	10:49	-132.421	43.001	0	1160.00	0	3.1510	0	36.8650	8	29.369	0	1147.594	0	13.5	4	4.3	4	-1E+10	1	-1E+10	1	-1E+10	1	-1E+10	1	-1E+10	1	-1E+10	1
4901784	186	C	08/07/2020	10:49	-132.421	43.001	0	1165.00	0	3.1400	0	36.8680	8	29.372	0	1152.527	0	13.7	4	4.3	4	-1E+10	1	-1E+10	1	-1E+10	1	-1E+10	1	-1E+10	1	-1E+10	1
4901784	186	C	08/07/2020	10:49	-132.421	43.001	0	1169.90	0	3.1300	0	36.8690	8	29.374	0	1157.361	0	13.8	4	4.4	4	-1E+10	1	-1E+10	1	-1E+10	1	-1E+10	1	-1E+10	1	-1E+10	1
4901784	186	C	08/07/2020	10:49	-132.421	43.001	0	1175.00	0	3.1230	0	36.8700	8	29.375	0	1162.392	0	14.0	4	4.4	4	-1E+10	1	-1E+10	1	-1E+10	1	-1E+10	1	-1E+10	1	-1E+10	1
4901784	186	C	08/07/2020	10:49	-132.421	43.001	0	1180.00	0	3.1110	0	36.8730	8	29.379	0	1167.325	0	14.2	4	4.5	4	-1E+10	1	-1E+10	1	-1E+10	1	-1E+10	1	-1E+10	1	-1E+10	1
4901784	186	C	08/07/2020	10:49	-132.421	43.001	0	1185.10	0	3.0970	0	36.8760	8	29.383	0	1172.356	0	14.3	4	4.5	4	-1E+10	1	-1E+10	1	-1E+10	1	-1E+10	1	-1E+10	1	-1E+10	1
4901784	186	C	08/07/2020	10:49	-132.421	43.001	0	1190.20	0	3.0880	0	36.8780	8	29.385	0	1177.387	0	14.4	4	4.6	4	-1E+10	1	-1E+10	1	-1E+10	1	-1E+10	1	-1E+10	1	-1E+10	1
4901784	186	C	08/07/2020	10:49	-132.421	43.001	0	1195.30	0	3.0830	0	36.8790	8	29.387	0	1182.417	0	14.5	4	4.6	4	-1E+10	1	-1E+10	1	-1E+10	1	-1E+10	1	-1E+10	1	-1E+10	1
4901784	186	C	08/07/2020	10:49	-132.421	43.001	0	1200.30	0	3.0750	0	36.8800	8	29.388	0	1187.349	0	14.7	4	4.6	4	-1E+10	1	-1E+10	1	-1E+10	1	-1E+10	1	-1E+10	1	-1E+10	1
4901784	186	C	08/07/2020	10:49	-132.421	43.001	0	1205.40	0	3.0700	0	36.8810	8	29.390	0	1192.380	0	14.8	4	4.7	4	-1E+10	1	-1E+10	1	-1E+10	1	-1E+10	1	-1E+10	1	-1E+10	1
4901784	186	C	08/07/2020	10:49	-132.421	43.001	0	1210.40	0	3.0570	0	36.8830	8	29.392	0	1197.312	0	14.9	4	4.7	4	-1E+10	1	-1E+10	1	-1E+10	1	-1E+10	1	-1E+10	1	-1E+10	1
4901784	186	C	08/07/2020	10:49	-132.421	43.001	0	1214.50	0	3.0480	0	36.8840	8	29.394	0	1201.356	0	15.0	4	4.7	4	-1E+10	1	-1E+10	1	-1E+10	1	-1E+10	1	-1E+10	1	-1E+10	1
4901784	186	C	08/07/2020	10:49	-132.421	43.001	0	1219.50	0	3.0390	0	36.8850	8	29.396	0	1206.287	0	15.1	4	4.8	4	-1E+10	1	-1E+10	1	-1E+10	1	-1E+10	1	-1E+10	1	-1E+10	1
4901784	186	C	08/07/2020	10:49	-132.421	43.001	0	1225.40	0	3.0280	0	36.8880	8	29.399	0	1212.106	0	15.3	4	4.8	4	-1E+10	1	-1E+10	1	-1E+10	1	-1E+10	1	-1E+10	1	-1E+10	1
4901784	186	C	08/07/2020	10:49	-132.421	43.001	0	1230.00	0	3.0240	0	36.8890	8	29.401	0	1216.643	0	15.5	4	4.9	4	-1E+10	1	-1E+10	1	-1E+10	1	-1E+10	1	-1E+10	1	-1E+10	1
4901784	186	C	08/07/2020	10:49	-132.421	43.001	0	1234.50	0	3.0120	0	36.8910	8	29.403	0	1221.081	0	15.6	4	4.9	4	-1E+10	1	-1E+10	1	-1E+10	1	-1E+10	1	-1E+10	1	-1E+10	1
4901784	186	C	08/07/2020	10:49	-132.421	43.001	0	1239.90	0	3.0040	0	36.8920	8	29.405	0	1226.407	0	15.7	4	5.0	4	-1E+10	1	-1E+10	1	-1E+10	1	-1E+10	1	-1E+10	1	-1E+10	1
4901784	186	C	08/07/2020	10:49	-132.421	43.001	0	1245.30	0	2.9960	0	36.8930	8	29.407	0	1231.732	0	15.9	4	5.0	4	-1E+10	1	-1E+10	1	-1E+10	1	-1E+10	1	-1E+10	1	-1E+10	1
4901784	186	C	08/07/2020	10:49	-132.421	43.001	0	1249.90	0	2.9890	0	36.8940	8	29.408	0	1236.269	0	16.1	4	5.1	4	-1E+10	1	-1E+10	1	-1E+10	1	-1E+10	1	-1E+10	1	-1E+10	1
4901784	186	C	08/07/2020	10:49	-132.421	43.001	0	1254.40	0	2.9750	0	36.8960	8	29.411	0	1240.706	0	16.3	4	5.1	4	-1E+10	1	-1E+10	1	-1E+10	1	-1E+10	1	-1E+10	1	-1E+10	1
4901784	186	C	08/07/2020	10:49	-132.421	43.001	0	1260.10	0	2.9540	0	36.9000	8	29.416	0	1246.327	0	16.5	4	5.2	4	-1E+10	1	-1E+10	1	-1E+10	1	-1E+10	1	-1E+10	1	-1E+10	1
4901784	186	C	08/07/2020	10:49	-132.421	43.001	0	1265.20	0	2.9460	0	36.9010	8	29.418	0	1251.356	0	16.7	4	5.2	4	-1E+10	1	-1E+10	1	-1E+10	1	-1E+10	1	-1E+10	1	-1E+10	1
4901784	186	C	08/07/2020	10:49	-132.421	43.001	0	1269.90	0	2.9390	0	36.9020	8	29.420	0	1255.991	0	16.9	4	5.3	4	-1E+10	1	-1E+10	1	-1E+10	1	-1E+10	1	-1E+10	1	-1E+10	1
4901784	186	C	08/07/2020	10:49	-132.421	43.001	0	1274.70	0	2.9210	0	36.9040	8	29.423	0	1260.724	0	17.2	4	5.4	4	-1E+10	1	-1E+10	1	-1E+10	1	-1E+10	1	-1E+10	1	-1E+10	1
4901784	186	C	08/07/2020	10:49	-132.421	43.001	0	1279.50	0	2.9050	0	36.9070	8	29.427	0	1265.457	0	17.4	4	5.5	4	-1E+10	1	-1E+10	1	-1E+10	1	-1E+10	1	-1E+10	1	-1E+10	1
4901784	186	C	08/07/2020	10:49	-132.421	43.001	0	1284.30	0	2.8890	0	36.9100	8	29.431	0	1270.190	0	17.7	4	5.5	4	-1E+10	1	-1E+10	1	-1E+10	1	-1E+10	1	-1E+10	1	-1E+10	1
4901784	186	C	08/07/2020	10:49	-132.421	43.001	0	1290.00	0	2.8800	0	36.9110	8	29.432	0	1275.810	0	17.9	4	5.6	4	-1E+10	1	-1E+10	1	-1E+10	1	-1E+10	1	-1E+10	1	-1E+10	1
4901784	186	C	08/07/2020	10:49	-132.421	43.001	0	1295.70	0	2.8650	0	36.9140	8	29.436	0	1281.430	0	18.1	4	5.7	4	-1E+10	1	-1E+10	1	-1E+10	1	-1E+10	1	-1E+10	1	-1E+10	1
4901784	186	C	08/07/2020	10:49	-132.421	43.001	0	1300.60	0	2.8600	0	36.9150	8	29.438	0	1286.261	0	18.2	4	5.7	4	-1E+10	1	-1E+10	1	-1E+10	1	-1E+10	1	-1E+10	1	-1E+10	1
4901784	186	C	08/07/2020	10:49	-132.421	43.001	0	1305.60	0	2.8560	0	36.9160	8	29.439	0	1291.190	0	18.3	4	5.7	4	-1E+10	1	-1E+10	1	-1E+10	1	-1E+10	1	-1E+10	1	-1E+10	1
4901784	186	C	08/07/2020	10:49	-132.421	43.001	0	1310.60	0	2.8500	0	36.9170	8	29.440	0	1296.120	0	18.5	4	5.8	4	-1E+10	1	-1E+10	1	-1E+10	1	-1E+10	1	-1E+10	1	-1E+10	1
4901784	186	C	08/07/2020	10:49	-132.421	43.001	0	1315.70	0	2.8450	0	36.9170	8	29.441	0	1301.148	0	18.6	4	5.8	4	-1E+10	1	-1E+10	1	-1E+10	1	-1E+10	1	-1E+10	1	-1E+10	1
4901784	186	C	08/07/2020	10:49	-132.421	43.001	0	1320.00	0	2.8360	0	36.9190	8	29.443	0	1305.387	0	18.8	4	5.9	4	-1E+10	1	-1E+10	1	-1E+10	1	-1E+10	1	-1E+10	1	-1E+10	1
4901784	186	C	08/07/2020	10:49	-132.421	43.001	0	1324.30	0	2.8310	0	36.9200	8	29.445	0	1309.626	0	18.9	4	5.9	4	-1E+10	1	-1E+10	1	-1E+10	1	-1E+10	1	-1E+10	1	-1E+10	1
4901784	186	C	08/07/2020	10:49	-132.421	43.001	0	1329.30	0	2.8260	0	36.9210	8	29.446	0	1314.555	0	19.1	4	6.0	4	-1E+10	1	-1E+10	1	-1E+10	1	-1E+10	1	-1E+10	1	-1E+10	1
4901784	186	C	08/07/2020	10:49	-132.421	43.001	0	1334.50	0	2.8120	0	36.9230	8	29.449	0	1319.681	0	19.4	4	6.1	4	-1E+10	1	-1E+10	1	-1E+10	1	-1E+10	1	-1E+10	1	-1E+10	1
4901784	186	C	08/07/2020	10:49	-132.421	43.001	0	1339.70	0	2.7960	0	36.9250	8	29.452	0	1324.807	0	19.7	4	6.2	4	-1E+10	1	-1E+10	1	-1E+10	1	-1E+10	1	-1E+10	1	-1E+10	1
4901784	186	C	08/07/2020	10:49	-132.421	43.001	0	1345.10	0	2.7880	0	36.9270	8	29.454	0	1330.130	0	19.9	4	6.2	4	-1E+10	1	-1E+10	1	-1E+10	1	-1E+10	1	-1E+10	1	-1E+10	1
4901784	186	C	08/07/2020	10:49	-132.421	43.001	0	1350.40	0	2.7810	0	36.9280	8	29.456	0	1335.354	0	20.0	4	6.3	4	-1E+10	1	-1E+10	1	-1E+10	1	-1E+10	1	-1E+10	1	-1E+10	1
4901784	186	C	08/07/2020	10:49	-132.421	43.001	0	1355.70	0	2.7730	0	36.9300	8	29.458	0	1340.578	0	20.2	4	6.3	4	-1E+10	1	-1E+10	1	-1E+10	1	-1E+10	1	-1E+10	1	-1E+10	1
4901784	186	C	08/07/2020	10:49	-132.421	43.001	0	1360.10	0	2.7700	0	36.9300	8	29.459	0	1344.915	0	20.3	4	6.4	4	-1E+10	1	-1E+10	1	-1E+10	1	-1E+10	1	-1E+10	1	-1E+10	1
4901784	186	C	08/07/2020	10:49	-132.421	43.001	0	1364.60	0	2.7630	0	36.9310	8	29.460	0	1349.350	0	20.5	4	6.4	4	-1E+10	1	-1E+10	1	-1E+10	1	-1E+10	1	-1E+10	1	-1E+10	1
4901784	186	C	08/07/2020	10:49	-132.421	43.001	0	1370.70	0	2.7490	0	36.9330	8	29.463	0	1355.363	0	20.8	4	6.5	4	-1E+10	1	-1E+10	1	-1E+10	1	-1E+10	1	-1E+10	1	-1E+10	1
4901784	186	C	08/07/2020	10:49	-132.421	43.001	0	1375.60	0	2.7390	0	36.9340	8	29.465	0	1360.192	0	21.0	4	6.6	4	-1E+10	1	-1E+10	1	-1E+10	1	-1E+10	1	-1E+10	1	-1E+10	1
4901784	186	C	08/07/2020	10:49	-132.421	43.001	0	1380.30	0	2.7330	0	36.9350	8	29.466	0	1364.824	0	21.2	4	6.6	4	-1E+10	1	-1E+10	1	-1E+10	1	-1E+10	1	-1E+10	1	-1E+10	1
4901784	186	C	08/07/2020	10:49	-132.421	43.001	0	1385.10	0	2.7220	0	36.9370	8	29.469	0	1369.555	0	21.4	4	6.7	4	-1E+10	1	-1E+10	1	-1E+10	1	-1E+10	1	-1E+10	1	-1E+10	1
4901784	186	C	08/07/2020	10:49	-132.421	43.001	0	1389.80	0	2.7120	0	36.9390	8	29.471	0	1374.187	0	21.5	4	6.7	4	-1E+10	1	-1E+10	1	-1E+10	1	-1E+10	1	-1E+10	1	-1E+10	1
4901784	186	C	08/07/2020	10:49	-132.421	43.001	0	1394.60	0	2.7120	0	36.9390	8	29.471	0	1378.917	0	21.6	4	6.8	4	-1E+10	1	-1E+10	1	-1E+10	1	-1E+10	1	-1E+10	1	-1E+10	1
4901784	186	C	08/07/2020	10:49	-132.421	43.001	0	1399.40	0	2.7090	0	36.9390	8	29.472	0	1383.647	0	21.8	4	6.8	4	-1E+10	1	-1E+10	1	-1E+10	1	-1E+10	1	-1E+10	1	-1E+10	1
4901784	186	C	08/07/2020	10:49	-132.421	43.001	0	1404.40	0	2.7000	0	36.9400	8	29.473	0	1388.575	0	22.0	4	6.9	4	-1E+10	1	-1E+10	1	-1E+10	1	-1E+10	1	-1E+10	1	-1E+10	1
4901784	186	C	08/07/2020	10:49	-132.421	43.001	0	1409.50	0	2.6900	0	36.9420	8	29.476	0	1393.600	0	22.2	4	6.9	4	-1E+10	1	-1E+10	1	-1E+10	1	-1E+10	1	-1E+10	1	-1E+10	1
4901784	186	C	08/07/2020	10:49	-132.421	43.001	0	1414.60	0	2.6820	0	36.9430	8	29.478	0	1398.626	0	22.4	4	7.0	4	-1E+10	1	-1E+10	1	-1E+10	1	-1E+10	1	-1E+10	1	-1E+10	1
4901784	186	C	08/07/2020	10:49	-132.421	43.001	0	1419.70	0	2.6760	0	36.9440	8	29.479	0	1403.651	0	22.6	4	7.1	4	-1E+10	1	-1E+10	1	-1E+10	1	-1E+10	1	-1E+10	1	-1E+10	1
4901784	186	C	08/07/2020	10:49	-132.421	43.001	0	1424.80	0	2.6680	0	36.9460	8	29.481	0	1408.677	0	22.8	4	7.1	4	-1E+10	1	-1E+10	1	-1E+10	1	-1E+10	1	-1E+10	1	-1E+10	1
4901784	186	C	08/07/2020	10:49	-132.421	43.001	0	1430.00	0	2.6620	0	36.9460	8	29.482	0	1413.800	0	23.0	4	7.2	4	-1E+10	1	-1E+10	1	-1E+10	1	-1E+10	1	-1E+10	1	-1E+10	1
4901784	186	C	08/07/2020	10:49	-132.421	43.001	0	1435.20	0	2.6530	0	36.9480	8	29.484	0	1418.924	0	23.2	4	7.3	4	-1E+10	1	-1E+10	1	-1E+10	1	-1E+10	1	-1E+10	1	-1E+10	1
4901784	186	C	08/07/2020	10:49	-132.421	43.001	0	1440.40	0	2.6480	0	36.9490	8	29.486	0	1424.048	0	23.4	4	7.3	4	-1E+10	1	-1E+10	1	-1E+10	1	-1E+10	1	-1E+10	1	-1E+10	1
4901784	186	C	08/07/2020	10:49	-132.421	43.001	0	1445.60	0	2.6410	0	36.9500	8	29.487	0	1429.171	0	23.7	4	7.4	4	-1E+10	1	-1E+10	1	-1E+10	1	-1E+10	1	-1E+10	1	-1E+10	1
4901784	186	C	08/07/2020	10:49	-132.421	43.001	0	1450.00	0	2.6320	0	36.9520	8	29.490	0	1433.506	0	24.0	4	7.5	4	-1E+10	1	-1E+10	1	-1E+10	1	-1E+10	1	-1E+10	1	-1E+10	1
4901784	186	C	08/07/2020	10:49	-132.421	43.001	0	1454.40	0	2.6240	0	36.9530	8	29.491	0	1437.841	0	24.3	4	7.6	4	-1E+10	1	-1E+10	1	-1E+10	1	-1E+10	1	-1E+10	1	-1E+10	1
4901784	186	C	08/07/2020	10:49	-132.421	43.001	0	1459.50	0	2.6110	0	36.9550	8	29.494	0	1442.866	0	24.6	4	7.7	4	-1E+10	1	-1E+10	1	-1E+10	1	-1E+10	1	-1E+10	1	-1E+10	1
4901784	186	C	08/07/2020	10:49	-132.421	43.001	0	1464.60	0	2.6040	0	36.9560	8	29.495	0	1447.890	0	24.9	4	7.8	4	-1E+10	1	-1E+10	1	-1E+10	1	-1E+10	1	-1E+10	1	-1E+10	1
4901784	186	C	08/07/2020	10:49	-132.421	43.001	0	1469.90	0	2.5950	0	36.9580	8	29.498	0	1453.111	0	25.2	4	7.8	4	-1E+10	1	-1E+10	1	-1E+10	1	-1E+10	1	-1E+10	1	-1E+10	1
4901784	186	C	08/07/2020	10:49	-132.421	43.001	0	1475.10	0	2.5880	0	36.9590	8	29.499	0	1458.234	0	25.5	4	7.9	4	-1E+10	1	-1E+10	1	-1E+10	1	-1E+10	1	-1E+10	1	-1E+10	1
4901784	186	C	08/07/2020	10:49	-132.421	43.001	0	1480.30	0	2.5800	0	36.9600	8	29.501	0	1463.357	0	25.8	4	8.0	4	-1E+10	1	-1E+10	1	-1E+10	1	-1E+10	1	-1E+10	1	-1E+10	1
4901784	186	C	08/07/2020	10:49	-132.421	43.001	0	1485.60	0	2.5640	0	36.9620	8	29.504	0	1468.577	0	26.2	4	8.2	4	-1E+10	1	-1E+10	1	-1E+10	1	-1E+10	1	-1E+10	1	-1E+10	1
4901784	186	C	08/07/2020	10:49	-132.421	43.001	0	1490.00	0	2.5520	0	36.9640	8	29.507	0	1472.912	0	26.5	4	8.2	4	-1E+10	1	-1E+10	1	-1E+10	1	-1E+10	1	-1E+10	1	-1E+10	1
4901784	186	C	08/07/2020	10:49	-132.421	43.001	0	1494.40	0	2.5460	0	36.9650	8	29.508	0	1477.246	0	26.7	4	8.3	4	-1E+10	1	-1E+10	1	-1E+10	1	-1E+10	1	-1E+10	1	-1E+10	1
4901784	186	C	08/07/2020	10:49	-132.421	43.001	0	1499.70	0	2.5380	0	36.9660	8	29.510	0	1482.466	0	26.9	4	8.4	4	-1E+10	1	-1E+10	1	-1E+10	1	-1E+10	1	-1E+10	1	-1E+10	1
4901784	186	C	08/07/2020	10:49	-132.421	43.001	0	1504.90	0	2.5320	0	36.9670	8	29.511	0	1487.588	0	27.1	4	8.4	4	-1E+10	1	-1E+10	1	-1E+10	1	-1E+10	1	-1E+10	1	-1E+10	1
4901784	186	C	08/07/2020	10:49	-132.421	43.001	0	1510.20	0	2.5280	0	36.9670	8	29.512	0	1492.809	0	27.3	4	8.5	4	-1E+10	1	-1E+10	1	-1E+10	1	-1E+10	1	-1E+10	1	-1E+10	1
4901784	186	C	08/07/2020	10:49	-132.421	43.001	0	1515.50	0	2.5190	0	36.9690	8	29.514	0	1498.029	0	27.6	4	8.6	4	-1E+10	1	-1E+10	1	-1E+10	1	-1E+10	1	-1E+10	1	-1E+10	1
4901784	186	C	08/07/2020	10:49	-132.421	43.001	0	1520.70	0	2.5090	0	36.9700	8	29.516	0	1503.150	0	27.9	4	8.7	4	-1E+10	1	-1E+10	1	-1E+10	1	-1E+10	1	-1E+10	1	-1E+10	1
4901784	186	C	08/07/2020	10:49	-132.421	43.001	0	1525.10	0	2.5020	0	36.9710	8	29.517	0	1507.484	0	28.2	4	8.8	4	-1E+10	1	-1E+10	1	-1E+10	1	-1E+10	1	-1E+10	1	-1E+10	1
4901784	186	C	08/07/2020	10:49	-132.421	43.001	0	1529.50	0	2.4970	0	36.9720	8	29.518	0	1511.817	0	28.4	4	8.8	4	-1E+10	1	-1E+10	1	-1E+10	1	-1E+10	1	-1E+10	1	-1E+10	1
4901784	186	C	08/07/2020	10:49	-132.421	43.001	0	1534.90	0	2.4850	0	36.9740	8	29.521	0	1517.136	0	28.8	4	8.9	4	-1E+10	1	-1E+10	1	-1E+10	1	-1E+10	1	-1E+10	1	-1E+10	1
4901784	186	C	08/07/2020	10:49	-132.421	43.001	0	1540.30	0	2.4780	0	36.9750	8	29.523	0	1522.454	0	29.0	4	9.0	4	-1E+10	1	-1E+10	1	-1E+10	1	-1E+10	1	-1E+10	1	-1E+10	1
4901784	186	C	08/07/2020	10:49	-132.421	43.001	0	1545.60	0	2.4730	0	36.9760	8	29.524	0	1527.673	0	29.3	4	9.1	4	-1E+10	1	-1E+10	1	-1E+10	1	-1E+10	1	-1E+10	1	-1E+10	1
4901784	186	C	08/07/2020	10:49	-132.421	43.001	0	1550.10	0	2.4660	0	36.9770	8	29.525	0	1532.105	0	29.6	4	9.2	4	-1E+10	1	-1E+10	1	-1E+10	1	-1E+10	1	-1E+10	1	-1E+10	1
4901784	186	C	08/07/2020	10:49	-132.421	43.001	0	1554.60	0	2.4530	0	36.9790	8	29.528	0	1536.536	0	29.9	4	9.3	4	-1E+10	1	-1E+10	1	-1E+10	1	-1E+10	1	-1E+10	1	-1E+10	1
4901784	186	C	08/07/2020	10:49	-132.421	43.001	0	1559.90	0	2.4480	0	36.9790	8	29.529	0	1541.755	0	30.1	4	9.4	4	-1E+10	1	-1E+10	1	-1E+10	1	-1E+10	1	-1E+10	1	-1E+10	1
4901784	186	C	08/07/2020	10:49	-132.421	43.001	0	1565.30	0	2.4440	0	36.9810	8	29.531	0	1547.073	0	30.6	4	9.5	4	-1E+10	1	-1E+10	1	-1E+10	1	-1E+10	1	-1E+10	1	-1E+10	1
4901784	186	C	08/07/2020	10:49	-132.421	43.001	0	1570.70	0	2.4400	0	36.9820	8	29.532	0	1552.390	0	31.1	4	9.7	4	-1E+10	1	-1E+10	1	-1E+10	1	-1E+10	1	-1E+10	1	-1E+10	1
4901784	186	C	08/07/2020	10:49	-132.421	43.001	0	1575.10	0	2.4360	0	36.9830	8	29.533	0	1556.723	0	31.4	4	9.7	4	-1E+10	1	-1E+10	1	-1E+10	1	-1E+10	1	-1E+10	1	-1E+10	1
4901784	186	C	08/07/2020	10:49	-132.421	43.001	0	1579.70	0	2.4200	0	36.9840	8	29.535	0	1561.252	0	31.6	4	9.8	4	-1E+10	1	-1E+10	1	-1E+10	1	-1E+10	1	-1E+10	1	-1E+10	1
4901784	186	C	08/07/2020	10:49	-132.421	43.001	0	1585.10	0	2.4060	0	36.9860	8	29.538	0	1566.569	0	31.9	4	9.9	4	-1E+10	1	-1E+10	1	-1E+10	1	-1E+10	1	-1E+10	1	-1E+10	1
4901784	186	C	08/07/2020	10:49	-132.421	43.001	0	1590.60	0	2.3950	0	36.9870	8	29.540	0	1571.984	0	32.2	4	10.0	4	-1E+10	1	-1E+10	1	-1E+10	1	-1E+10	1	-1E+10	1	-1E+10	1
4901784	186	C	08/07/2020	10:49	-132.421	43.001	0	1595.10	0	2.3910	0	36.9880	8	29.541	0	1576.415	0	32.7	4	10.1	4	-1E+10	1	-1E+10	1	-1E+10	1	-1E+10	1	-1E+10	1	-1E+10	1
4901784	186	C	08/07/2020	10:49	-132.421	43.001	0	1600.40	0	2.3810	0	36.9900	8	29.544	0	1581.633	0	33.0	4	10.2	4	-1E+10	1	-1E+10	1	-1E+10	1	-1E+10	1	-1E+10	1	-1E+10	1
4901784	186	C	08/07/2020	10:49	-132.421	43.001	0	1605.50	0	2.3710	0	36.9910	8	29.545	0	1586.654	0	33.3	4	10.3	4	-1E+10	1	-1E+10	1	-1E+10	1	-1E+10	1	-1E+10	1	-1E+10	1
4901784	186	C	08/07/2020	10:49	-132.421	43.001	0	1610.30	0	2.3580	0	36.9930	8	29.548	0	1591.380	0	33.8	4	10.5	4	-1E+10	1	-1E+10	1	-1E+10	1	-1E+10	1	-1E+10	1	-1E+10	1
4901784	186	C	08/07/2020	10:49	-132.421	43.001	0	1615.10	0	2.3470	0	36.9950	8	29.551	0	1596.105	0	34.2	4	10.6	4	-1E+10	1	-1E+10	1	-1E+10	1	-1E+10	1	-1E+10	1	-1E+10	1
4901784	186	C	08/07/2020	10:49	-132.421	43.001	0	1620.00	0	2.3420	0	36.9960	8	29.552	0	1600.929	0	34.4	4	10.7	4	-1E+10	1	-1E+10	1	-1E+10	1	-1E+10	1	-1E+10	1	-1E+10	1
4901784	186	C	08/07/2020	10:49	-132.421	43.001	0	1624.80	0	2.3370	0	36.9960	8	29.553	0	1605.654	0	34.8	4	10.8	4	-1E+10	1	-1E+10	1	-1E+10	1	-1E+10	1	-1E+10	1	-1E+10	1
4901784	186	C	08/07/2020	10:49	-132.421	43.001	0	1629.60	0	2.3290	0	36.9970	8	29.554	0	1610.379	0	35.3	4	10.9	4	-1E+10	1	-1E+10	1	-1E+10	1	-1E+10	1	-1E+10	1	-1E+10	1
4901784	186	C	08/07/2020	10:49	-132.421	43.001	0	1634.50	0	2.3110	0	37.0000	8	29.558	0	1615.203	0	36.0	4	11.1	4	-1E+10	1	-1E+10	1	-1E+10	1	-1E+10	1	-1E+10	1	-1E+10	1
4901784	186	C	08/07/2020	10:49	-132.421	43.001	0	1639.40	0	2.2960	0	37.0020	8	29.561	0	1620.026	0	36.5	4	11.3	4	-1E+10	1	-1E+10	1	-1E+10	1	-1E+10	1	-1E+10	1	-1E+10	1
4901784	186	C	08/07/2020	10:49	-132.421	43.001	0	1644.30	0	2.2870	0	37.0040	8	29.564	0	1624.850	0	36.8	4	11.4	4	-1E+10	1	-1E+10	1	-1E+10	1	-1E+10	1	-1E+10	1	-1E+10	1
4901784	186	C	08/07/2020	10:49	-132.421	43.001	0	1649.30	0	2.2820	0	37.0050	8	29.565	0	1629.771	0	37.2	4	11.5	4	-1E+10	1	-1E+10	1	-1E+10	1	-1E+10	1	-1E+10	1	-1E+10	1
4901784	186	C	08/07/2020	10:49	-132.421	43.001	0	1654.40	0	2.2730	0	37.0060	8	29.566	0	1634.791	0	37.7	4	11.7	4	-1E+10	1	-1E+10	1	-1E+10	1	-1E+10	1	-1E+10	1	-1E+10	1
4901784	186	C	08/07/2020	10:49	-132.421	43.001	0	1659.50	0	2.2630	0	37.0080	8	29.569	0	1639.811	0	38.1	4	11.8	4	-1E+10	1	-1E+10	1	-1E+10	1	-1E+10	1	-1E+10	1	-1E+10	1
4901784	186	C	08/07/2020	10:49	-132.421	43.001	0	1664.60	0	2.2540	0	37.0090	8	29.571	0	1644.831	0	38.4	4	11.9	4	-1E+10	1	-1E+10	1	-1E+10	1	-1E+10	1	-1E+10	1	-1E+10	1
4901784	186	C	08/07/2020	10:49	-132.421	43.001	0	1669.70	0	2.2490	0	37.0100	8	29.572	0	1649.850	0	38.8	4	12.0	4	-1E+10	1	-1E+10	1	-1E+10	1	-1E+10	1	-1E+10	1	-1E+10	1
4901784	186	C	08/07/2020	10:49	-132.421	43.001	0	1674.70	0	2.2430	0	37.0110	8	29.573	0	1654.771	0	39.1	4	12.1	4	-1E+10	1	-1E+10	1	-1E+10	1	-1E+10	1	-1E+10	1	-1E+10	1
4901784	186	C	08/07/2020	10:49	-132.421	43.001	0	1679.80	0	2.2370	0	37.0120	8	29.575	0	1659.791	0	39.6	4	12.2	4	-1E+10	1	-1E+10	1	-1E+10	1	-1E+10	1	-1E+10	1	-1E+10	1
4901784	186	C	08/07/2020	10:49	-132.421	43.001	0	1685.00	0	2.2250	0	37.0140	8	29.577	0	1664.909	0	40.0	4	12.4	4	-1E+10	1	-1E+10	1	-1E+10	1	-1E+10	1	-1E+10	1	-1E+10	1
4901784	186	C	08/07/2020	10:49	-132.421	43.001	0	1690.10	0	2.2170	0	37.0150	8	29.579	0	1669.928	0	40.4	4	12.5	4	-1E+10	1	-1E+10	1	-1E+10	1	-1E+10	1	-1E+10	1	-1E+10	1
4901784	186	C	08/07/2020	10:49	-132.421	43.001	0	1695.30	0	2.2130	0	37.0160	8	29.580	0	1675.045	0	40.7	4	12.6	4	-1E+10	1	-1E+10	1	-1E+10	1	-1E+10	1	-1E+10	1	-1E+10	1
4901784	186	C	08/07/2020	10:49	-132.421	43.001	0	1700.50	0	2.2050	0	37.0170	8	29.581	0	1680.162	0	41.1	4	12.7	4	-1E+10	1	-1E+10	1	-1E+10	1	-1E+10	1	-1E+10	1	-1E+10	1
4901784	186	C	08/07/2020	10:49	-132.421	43.001	0	1704.90	0	2.2000	0	37.0180	8	29.583	0	1684.492	0	41.4	4	12.8	4	-1E+10	1	-1E+10	1	-1E+10	1	-1E+10	1	-1E+10	1	-1E+10	1
4901784	186	C	08/07/2020	10:49	-132.421	43.001	0	1709.30	0	2.1960	0	37.0190	8	29.584	0	1688.822	0	41.7	4	12.9	4	-1E+10	1	-1E+10	1	-1E+10	1	-1E+10	1	-1E+10	1	-1E+10	1
4901784	186	C	08/07/2020	10:49	-132.421	43.001	0	1714.60	0	2.1890	0	37.0200	8	29.585	0	1694.037	0	42.1	4	13.0	4	-1E+10	1	-1E+10	1	-1E+10	1	-1E+10	1	-1E+10	1	-1E+10	1
4901784	186	C	08/07/2020	10:49	-132.421	43.001	0	1720.00	0	2.1830	0	37.0220	8	29.588	0	1699.351	0	42.6	4	13.1	4	-1E+10	1	-1E+10	1	-1E+10	1	-1E+10	1	-1E+10	1	-1E+10	1
4901784	186	C	08/07/2020	10:49	-132.421	43.001	0	1725.40	0	2.1790	0	37.0230	8	29.589	0	1704.665	0	42.9	4	13.3	4	-1E+10	1	-1E+10	1	-1E+10	1	-1E+10	1	-1E+10	1	-1E+10	1
4901784	186	C	08/07/2020	10:49	-132.421	43.001	0	1730.00	0	2.1680	0	37.0240	8	29.591	0	1709.191	0	43.2	4	13.3	4	-1E+10	1	-1E+10	1	-1E+10	1	-1E+10	1	-1E+10	1	-1E+10	1
4901784	186	C	08/07/2020	10:49	-132.421	43.001	0	1734.70	0	2.1620	0	37.0260	8	29.593	0	1713.815	0	43.4	4	13.4	4	-1E+10	1	-1E+10	1	-1E+10	1	-1E+10	1	-1E+10	1	-1E+10	1
4901784	186	C	08/07/2020	10:49	-132.421	43.001	0	1740.20	0	2.1590	0	37.0260	8	29.593	0	1719.227	0	43.5	4	13.4	4	-1E+10	1	-1E+10	1	-1E+10	1	-1E+10	1	-1E+10	1	-1E+10	1
4901784	186	C	08/07/2020	10:49	-132.421	43.001	0	1745.60	0	2.1570	0	37.0270	8	29.594	0	1724.540	0	43.7	4	13.5	4	-1E+10	1	-1E+10	1	-1E+10	1	-1E+10	1	-1E+10	1	-1E+10	1
4901784	186	C	08/07/2020	10:49	-132.421	43.001	0	1750.20	0	2.1550	0	37.0270	8	29.594	0	1729.065	0	43.9	4	13.5	4	-1E+10	1	-1E+10	1	-1E+10	1	-1E+10	1	-1E+10	1	-1E+10	1
4901784	186	C	08/07/2020	10:49	-132.421	43.001	0	1754.80	0	2.1520	0	37.0270	8	29.594	0	1733.591	0	44.2	4	13.6	4	-1E+10	1	-1E+10	1	-1E+10	1	-1E+10	1	-1E+10	1	-1E+10	1
4901784	186	C	08/07/2020	10:49	-132.421	43.001	0	1760.40	0	2.1460	0	37.0280	8	29.596	0	1739.101	0	44.5	4	13.7	4	-1E+10	1	-1E+10	1	-1E+10	1	-1E+10	1	-1E+10	1	-1E+10	1
4901784	186	C	08/07/2020	10:49	-132.421	43.001	0	1765.00	0	2.1420	0	37.0290	8	29.597	0	1743.626	0	44.7	4	13.8	4	-1E+10	1	-1E+10	1	-1E+10	1	-1E+10	1	-1E+10	1	-1E+10	1
4901784	186	C	08/07/2020	10:49	-132.421	43.001	0	1769.70	0	2.1390	0	37.0300	8	29.598	0	1748.250	0	44.9	4	13.9	4	-1E+10	1	-1E+10	1	-1E+10	1	-1E+10	1	-1E+10	1	-1E+10	1
4901784	186	C	08/07/2020	10:49	-132.421	43.001	0	1775.40	0	2.1340	0	37.0310	8	29.599	0	1753.857	0	45.3	4	14.0	4	-1E+10	1	-1E+10	1	-1E+10	1	-1E+10	1	-1E+10	1	-1E+10	1
4901784	186	C	08/07/2020	10:49	-132.421	43.001	0	1780.20	0	2.1300	0	37.0310	8	29.600	0	1758.579	0	45.6	4	14.0	4	-1E+10	1	-1E+10	1	-1E+10	1	-1E+10	1	-1E+10	1	-1E+10	1
4901784	186	C	08/07/2020	10:49	-132.421	43.001	0	1784.80	0	2.1240	0	37.0330	8	29.602	0	1763.104	0	45.9	4	14.1	4	-1E+10	1	-1E+10	1	-1E+10	1	-1E+10	1	-1E+10	1	-1E+10	1
4901784	186	C	08/07/2020	10:49	-132.421	43.001	0	1789.70	0	2.1180	0	37.0340	8	29.603	0	1767.924	0	46.3	4	14.3	4	-1E+10	1	-1E+10	1	-1E+10	1	-1E+10	1	-1E+10	1	-1E+10	1
4901784	186	C	08/07/2020	10:49	-132.421	43.001	0	1794.70	0	2.1110	0	37.0350	8	29.605	0	1772.842	0	46.5	4	14.3	4	-1E+10	1	-1E+10	1	-1E+10	1	-1E+10	1	-1E+10	1	-1E+10	1
4901784	186	C	08/07/2020	10:49	-132.421	43.001	0	1799.80	0	2.1100	0	37.0350	8	29.605	0	1777.859	0	46.7	4	14.4	4	-1E+10	1	-1E+10	1	-1E+10	1	-1E+10	1	-1E+10	1	-1E+10	1
4901784	186	C	08/07/2020	10:49	-132.421	43.001	0	1804.90	0	2.1050	0	37.0360	8	29.606	0	1782.875	0	47.1	4	14.5	4	-1E+10	1	-1E+10	1	-1E+10	1	-1E+10	1	-1E+10	1	-1E+10	1
4901784	186	C	08/07/2020	10:49	-132.421	43.001	0	1810.00	0	2.1000	0	37.0370	8	29.607	0	1787.892	0	47.5	4	14.6	4	-1E+10	1	-1E+10	1	-1E+10	1	-1E+10	1	-1E+10	1	-1E+10	1
4901784	186	C	08/07/2020	10:49	-132.421	43.001	0	1815.20	0	2.0940	0	37.0380	8	29.609	0	1793.006	0	47.8	4	14.7	4	-1E+10	1	-1E+10	1	-1E+10	1	-1E+10	1	-1E+10	1	-1E+10	1
4901784	186	C	08/07/2020	10:49	-132.421	43.001	0	1820.40	0	2.0910	0	37.0390	8	29.610	0	1798.121	0	48.2	4	14.9	4	-1E+10	1	-1E+10	1	-1E+10	1	-1E+10	1	-1E+10	1	-1E+10	1
4901784	186	C	08/07/2020	10:49	-132.421	43.001	0	1825.60	0	2.0870	0	37.0400	8	29.611	0	1803.235	0	48.8	4	15.0	4	-1E+10	1	-1E+10	1	-1E+10	1	-1E+10	1	-1E+10	1	-1E+10	1
4901784	186	C	08/07/2020	10:49	-132.421	43.001	0	1830.00	0	2.0770	0	37.0420	8	29.613	0	1807.562	0	49.2	4	15.2	4	-1E+10	1	-1E+10	1	-1E+10	1	-1E+10	1	-1E+10	1	-1E+10	1
4901784	186	C	08/07/2020	10:49	-132.421	43.001	0	1834.40	0	2.0760	0	37.0420	8	29.614	0	1811.890	0	49.4	4	15.2	4	-1E+10	1	-1E+10	1	-1E+10	1	-1E+10	1	-1E+10	1	-1E+10	1
4901784	186	C	08/07/2020	10:49	-132.421	43.001	0	1839.70	0	2.0740	0	37.0420	8	29.614	0	1817.102	0	49.7	4	15.3	4	-1E+10	1	-1E+10	1	-1E+10	1	-1E+10	1	-1E+10	1	-1E+10	1
4901784	186	C	08/07/2020	10:49	-132.421	43.001	0	1845.10	0	2.0660	0	37.0440	8	29.616	0	1822.413	0	50.1	4	15.4	4	-1E+10	1	-1E+10	1	-1E+10	1	-1E+10	1	-1E+10	1	-1E+10	1
4901784	186	C	08/07/2020	10:49	-132.421	43.001	0	1850.40	0	2.0580	0	37.0450	8	29.618	0	1827.625	0	50.5	4	15.5	4	-1E+10	1	-1E+10	1	-1E+10	1	-1E+10	1	-1E+10	1	-1E+10	1
4901784	186	C	08/07/2020	10:49	-132.421	43.001	0	1854.90	0	2.0550	0	37.0460	8	29.619	0	1832.050	0	50.9	4	15.6	4	-1E+10	1	-1E+10	1	-1E+10	1	-1E+10	1	-1E+10	1	-1E+10	1
4901784	186	C	08/07/2020	10:49	-132.421	43.001	0	1859.50	0	2.0490	0	37.0470	8	29.620	0	1836.573	0	51.2	4	15.7	4	-1E+10	1	-1E+10	1	-1E+10	1	-1E+10	1	-1E+10	1	-1E+10	1
4901784	186	C	08/07/2020	10:49	-132.421	43.001	0	1864.90	0	2.0420	0	37.0480	8	29.621	0	1841.883	0	51.4	4	15.8	4	-1E+10	1	-1E+10	1	-1E+10	1	-1E+10	1	-1E+10	1	-1E+10	1
4901784	186	C	08/07/2020	10:49	-132.421	43.001	0	1870.40	0	2.0400	0	37.0480	8	29.622	0	1847.292	0	51.7	4	15.9	4	-1E+10	1	-1E+10	1	-1E+10	1	-1E+10	1	-1E+10	1	-1E+10	1
4901784	186	C	08/07/2020	10:49	-132.421	43.001	0	1874.90	0	2.0370	0	37.0490	8	29.623	0	1851.717	0	52.1	4	16.0	4	-1E+10	1	-1E+10	1	-1E+10	1	-1E+10	1	-1E+10	1	-1E+10	1
4901784	186	C	08/07/2020	10:49	-132.421	43.001	0	1879.50	0	2.0300	0	37.0500	8	29.624	0	1856.240	0	52.6	4	16.2	4	-1E+10	1	-1E+10	1	-1E+10	1	-1E+10	1	-1E+10	1	-1E+10	1
4901784	186	C	08/07/2020	10:49	-132.421	43.001	0	1885.10	0	2.0220	0	37.0520	8	29.626	0	1861.746	0	53.1	4	16.3	4	-1E+10	1	-1E+10	1	-1E+10	1	-1E+10	1	-1E+10	1	-1E+10	1
4901784	186	C	08/07/2020	10:49	-132.421	43.001	0	1889.80	0	2.0160	0	37.0530	8	29.628	0	1866.367	0	53.3	4	16.4	4	-1E+10	1	-1E+10	1	-1E+10	1	-1E+10	1	-1E+10	1	-1E+10	1
4901784	186	C	08/07/2020	10:49	-132.421	43.001	0	1895.10	0	2.0120	0	37.0530	8	29.628	0	1871.578	0	53.6	4	16.5	4	-1E+10	1	-1E+10	1	-1E+10	1	-1E+10	1	-1E+10	1	-1E+10	1
4901784	186	C	08/07/2020	10:49	-132.421	43.001	0	1900.30	0	2.0060	0	37.0540	8	29.630	0	1876.691	0	53.9	4	16.6	4	-1E+10	1	-1E+10	1	-1E+10	1	-1E+10	1	-1E+10	1	-1E+10	1
4901784	186	C	08/07/2020	10:49	-132.421	43.001	0	1905.20	0	2.0050	0	37.0550	8	29.630	0	1881.508	0	54.1	4	16.6	4	-1E+10	1	-1E+10	1	-1E+10	1	-1E+10	1	-1E+10	1	-1E+10	1
4901784	186	C	08/07/2020	10:49	-132.421	43.001	0	1910.10	0	2.0030	0	37.0550	8	29.631	0	1886.325	0	54.4	4	16.7	4	-1E+10	1	-1E+10	1	-1E+10	1	-1E+10	1	-1E+10	1	-1E+10	1
4901784	186	C	08/07/2020	10:49	-132.421	43.001	0	1915.00	0	2.0010	0	37.0560	8	29.632	0	1891.143	0	54.7	4	16.8	4	-1E+10	1	-1E+10	1	-1E+10	1	-1E+10	1	-1E+10	1	-1E+10	1
4901784	186	C	08/07/2020	10:49	-132.421	43.001	0	1920.00	0	1.9970	0	37.0570	8	29.633	0	1896.058	0	55.1	4	16.9	4	-1E+10	1	-1E+10	1	-1E+10	1	-1E+10	1	-1E+10	1	-1E+10	1
4901784	186	C	08/07/2020	10:49	-132.421	43.001	0	1925.00	0	1.9940	0	37.0580	8	29.634	0	1900.973	0	55.3	4	17.0	4	-1E+10	1	-1E+10	1	-1E+10	1	-1E+10	1	-1E+10	1	-1E+10	1
4901784	186	C	08/07/2020	10:49	-132.421	43.001	0	1930.00	0	1.9930	0	37.0580	8	29.634	0	1905.889	0	55.5	4	17.0	4	-1E+10	1	-1E+10	1	-1E+10	1	-1E+10	1	-1E+10	1	-1E+10	1
4901784	186	C	08/07/2020	10:49	-132.421	43.001	0	1935.10	0	1.9900	0	37.0580	8	29.634	0	1910.902	0	55.5	4	17.1	4	-1E+10	1	-1E+10	1	-1E+10	1	-1E+10	1	-1E+10	1	-1E+10	1
4901784	186	C	08/07/2020	10:49	-132.421	43.001	0	1940.20	0	1.9850	0	37.0590	8	29.636	0	1915.915	0	55.7	4	17.1	4	-1E+10	1	-1E+10	1	-1E+10	1	-1E+10	1	-1E+10	1	-1E+10	1
4901784	186	C	08/07/2020	10:49	-132.421	43.001	0	1945.30	0	1.9810	0	37.0600	8	29.637	0	1920.929	0	56.1	4	17.2	4	-1E+10	1	-1E+10	1	-1E+10	1	-1E+10	1	-1E+10	1	-1E+10	1
4901784	186	C	08/07/2020	10:49	-132.421	43.001	0	1950.40	0	1.9760	0	37.0610	8	29.638	0	1925.942	0	56.5	4	17.4	4	-1E+10	1	-1E+10	1	-1E+10	1	-1E+10	1	-1E+10	1	-1E+10	1
4901784	186	C	08/07/2020	10:49	-132.421	43.001	0	1955.50	0	1.9720	0	37.0620	8	29.639	0	1930.954	0	56.9	4	17.5	4	-1E+10	1	-1E+10	1	-1E+10	1	-1E+10	1	-1E+10	1	-1E+10	1
4901784	186	C	08/07/2020	10:49	-132.421	43.001	0	1960.60	0	1.9700	0	37.0620	8	29.639	0	1935.967	0	57.2	4	17.6	4	-1E+10	1	-1E+10	1	-1E+10	1	-1E+10	1	-1E+10	1	-1E+10	1
4901784	186	C	08/07/2020	10:49	-132.421	43.001	0	1965.00	0	1.9650	0	37.0630	8	29.641	0	1940.292	0	57.5	4	17.7	4	-1E+10	1	-1E+10	1	-1E+10	1	-1E+10	1	-1E+10	1	-1E+10	1
4901784	186	C	08/07/2020	10:49	-132.421	43.001	0	1969.30	0	1.9630	0	37.0640	8	29.642	0	1944.518	0	57.7	4	17.7	4	-1E+10	1	-1E+10	1	-1E+10	1	-1E+10	1	-1E+10	1	-1E+10	1
4901784	186	C	08/07/2020	10:49	-132.421	43.001	0	1974.50	0	1.9590	0	37.0640	8	29.642	0	1949.629	0	58.1	4	17.8	4	-1E+10	1	-1E+10	1	-1E+10	1	-1E+10	1	-1E+10	1	-1E+10	1
4901784	186	C	08/07/2020	10:49	-132.421	43.001	0	1979.80	0	1.9540	0	37.0660	8	29.644	0	1954.838	0	58.5	4	18.0	4	-1E+10	1	-1E+10	1	-1E+10	1	-1E+10	1	-1E+10	1	-1E+10	1
4901784	186	C	08/07/2020	10:49	-132.421	43.001	0	1985.10	0	1.9520	0	37.0660	8	29.644	0	1960.047	0	58.8	4	18.1	4	-1E+10	1	-1E+10	1	-1E+10	1	-1E+10	1	-1E+10	1	-1E+10	1
4901784	186	C	08/07/2020	10:49	-132.421	43.001	0	1990.20	0	1.9480	0	37.0670	8	29.645	0	1965.059	0	59.1	4	18.1	4	-1E+10	1	-1E+10	1	-1E+10	1	-1E+10	1	-1E+10	1	-1E+10	1
4901784	186	C	08/07/2020	10:49	-132.421	43.001	0	1995.30	0	1.9440	0	37.0670	8	29.646	0	1970.071	0	59.4	4	18.2	4	-1E+10	1	-1E+10	1	-1E+10	1	-1E+10	1	-1E+10	1	-1E+10	1
4901784	186	C	08/07/2020	10:49	-132.421	43.001	0	1999.60	0	1.9400	0	37.0680	8	29.647	0	1974.297	0	59.6	4	18.3	4	-1E+10	1	-1E+10	1	-1E+10	1	-1E+10	1	-1E+10	1	-1E+10	1
4901784	186	C	08/07/2020	10:49	-132.421	43.001	0	2004.90	0	1.9360	0	37.0690	8	29.648	0	1979.505	0	59.8	4	18.3	4	-1E+10	1	-1E+10	1	-1E+10	1	-1E+10	1	-1E+10	1	-1E+10	1
4901784	186	C	08/07/2020	10:49	-132.421	43.001	0	2010.30	0	1.9340	0	37.0700	8	29.649	0	1984.812	0	59.5	4	18.3	4	-1E+10	1	-1E+10	1	-1E+10	1	-1E+10	1	-1E+10	1	-1E+10	1
4901784	186	C	08/07/2020	10:49	-132.421	43.001	0																										
4901784	187	C	08/17/2020	10:48	-132.532	43.156	0	2.50	0	19.4210	0	34.7750	8	24.742	0	2.480	0	221.2	4	96.9	4	-1E+10	1	-1E+10	1	-1E+10	1	-1E+10	1	-1E+10	1	-1E+10	1
4901784	187	C	08/17/2020	10:48	-132.532	43.156	0	4.00	0	19.4230	0	34.7750	8	24.742	0	3.968	0	221.3	4	97.0	4	-1E+10	1	-1E+10	1	-1E+10	1	-1E+10	1	-1E+10	1	-1E+10	1
4901784	187	C	08/17/2020	10:48	-132.532	43.156	0	5.50	0	19.4200	0	34.7740	8	24.742	0	5.456	0	221.0	4	96.8	4	-1E+10	1	-1E+10	1	-1E+10	1	-1E+10	1	-1E+10	1	-1E+10	1
4901784	187	C	08/17/2020	10:48	-132.532	43.156	0	7.00	0	19.4140	0	34.7730	8	24.743	0	6.944	0	221.2	4	96.9	4	-1E+10	1	-1E+10	1	-1E+10	1	-1E+10	1	-1E+10	1	-1E+10	1
4901784	187	C	08/17/2020	10:48	-132.532	43.156	0	8.60	0	19.3840	0	34.7740	8	24.752	0	8.531	0	221.3	4	96.9	4	-1E+10	1	-1E+10	1	-1E+10	1	-1E+10	1	-1E+10	1	-1E+10	1
4901784	187	C	08/17/2020	10:48	-132.532	43.156	0	10.20	0	19.2890	0	34.7730	8	24.775	0	10.119	0	221.8	4	96.9	4	-1E+10	1	-1E+10	1	-1E+10	1	-1E+10	1	-1E+10	1	-1E+10	1
4901784	187	C	08/17/2020	10:48	-132.532	43.156	0	11.80	0	19.2170	0	34.7730	8	24.794	0	11.706	0	222.2	4	97.0	4	-1E+10	1	-1E+10	1	-1E+10	1	-1E+10	1	-1E+10	1	-1E+10	1
4901784	187	C	08/17/2020	10:48	-132.532	43.156	0	13.40	0	19.1380	0	34.7740	8	24.815	0	13.293	0	222.6	4	97.0	4	-1E+10	1	-1E+10	1	-1E+10	1	-1E+10	1	-1E+10	1	-1E+10	1
4901784	187	C	08/17/2020	10:48	-132.532	43.156	0	15.00	0	19.1160	0	34.7690	8	24.817	0	14.880	0	222.9	4	97.1	4	-1E+10	1	-1E+10	1	-1E+10	1	-1E+10	1	-1E+10	1	-1E+10	1
4901784	187	C	08/17/2020	10:48	-132.532	43.156	0	16.50	0	19.0750	0	34.7630	8	24.823	0	16.368	0	223.3	4	97.2	4	-1E+10	1	-1E+10	1	-1E+10	1	-1E+10	1	-1E+10	1	-1E+10	1
4901784	187	C	08/17/2020	10:48	-132.532	43.156	0	18.00	0	19.0450	0	34.7520	8	24.822	0	17.856	0	224.0	4	97.5	4	-1E+10	1	-1E+10	1	-1E+10	1	-1E+10	1	-1E+10	1	-1E+10	1
4901784	187	C	08/17/2020	10:48	-132.532	43.156	0	19.60	0	18.9310	0	34.7390	8	24.841	0	19.443	0	224.7	4	97.6	4	-1E+10	1	-1E+10	1	-1E+10	1	-1E+10	1	-1E+10	1	-1E+10	1
4901784	187	C	08/17/2020	10:48	-132.532	43.156	0	21.30	0	18.5480	0	34.7290	8	24.930	0	21.130	0	227.0	4	97.8	4	-1E+10	1	-1E+10	1	-1E+10	1	-1E+10	1	-1E+10	1	-1E+10	1
4901784	187	C	08/17/2020	10:48	-132.532	43.156	0	23.00	0	18.0520	0	34.7100	8	25.039	0	22.816	0	230.2	4	98.3	4	-1E+10	1	-1E+10	1	-1E+10	1	-1E+10	1	-1E+10	1	-1E+10	1
4901784	187	C	08/17/2020	10:48	-132.532	43.156	0	24.80	0	17.8260	0	34.7040	8	25.090	0	24.601	0	231.2	4	98.3	4	-1E+10	1	-1E+10	1	-1E+10	1	-1E+10	1	-1E+10	1	-1E+10	1
4901784	187	C	08/17/2020	10:48	-132.532	43.156	0	26.60	0	17.3430	0	34.7140	8	25.215	0	26.387	0	233.9	4	98.5	4	-1E+10	1	-1E+10	1	-1E+10	1	-1E+10	1	-1E+10	1	-1E+10	1
4901784	187	C	08/17/2020	10:48	-132.532	43.156	0	28.50	0	17.2880	0	34.7140	8	25.228	0	28.272	0	233.9	4	98.4	4	-1E+10	1	-1E+10	1	-1E+10	1	-1E+10	1	-1E+10	1	-1E+10	1
4901784	187	C	08/17/2020	10:48	-132.532	43.156	0	30.20	0	17.2520	0	34.7160	8	25.238	0	29.958	0	233.9	4	98.4	4	-1E+10	1	-1E+10	1	-1E+10	1	-1E+10	1	-1E+10	1	-1E+10	1
4901784	187	C	08/17/2020	10:48	-132.532	43.156	0	32.00	0	17.2120	0	34.7170	8	25.249	0	31.743	0	234.3	4	98.5	4	-1E+10	1	-1E+10	1	-1E+10	1	-1E+10	1	-1E+10	1	-1E+10	1
4901784	187	C	08/17/2020	10:48	-132.532	43.156	0	34.20	0	17.1750	0	34.7120	8	25.254	0	33.925	0	234.8	4	98.6	4	-1E+10	1	-1E+10	1	-1E+10	1	-1E+10	1	-1E+10	1	-1E+10	1
4901784	187	C	08/17/2020	10:48	-132.532	43.156	0	36.00	0	17.0210	0	34.7050	8	25.285	0	35.711	0	235.8	4	98.7	4	-1E+10	1	-1E+10	1	-1E+10	1	-1E+10	1	-1E+10	1	-1E+10	1
4901784	187	C	08/17/2020	10:48	-132.532	43.156	0	37.40	0	16.9520	0	34.6950	8	25.294	0	37.099	0	236.8	4	99.0	4	-1E+10	1	-1E+10	1	-1E+10	1	-1E+10	1	-1E+10	1	-1E+10	1
4901784	187	C	08/17/2020	10:48	-132.532	43.156	0	38.90	0	16.7500	0	34.6790	8	25.329	0	38.587	0	238.7	4	99.4	4	-1E+10	1	-1E+10	1	-1E+10	1	-1E+10	1	-1E+10	1	-1E+10	1
4901784	187	C	08/17/2020	10:48	-132.532	43.156	0	40.40	0	16.3680	0	34.7050	8	25.438	0	40.075	0	241.8	4	100.0	4	-1E+10	1	-1E+10	1	-1E+10	1	-1E+10	1	-1E+10	1	-1E+10	1
4901784	187	C	08/17/2020	10:48	-132.532	43.156	0	41.90	0	16.0750	0	34.7060	8	25.507	0	41.563	0	244.7	4	100.6	4	-1E+10	1	-1E+10	1	-1E+10	1	-1E+10	1	-1E+10	1	-1E+10	1
4901784	187	C	08/17/2020	10:48	-132.532	43.156	0	43.40	0	15.6330	0	34.7200	8	25.618	0	43.051	0	248.0	4	101.1	4	-1E+10	1	-1E+10	1	-1E+10	1	-1E+10	1	-1E+10	1	-1E+10	1
4901784	187	C	08/17/2020	10:48	-132.532	43.156	0	45.00	0	15.1310	0	34.7350	8	25.741	0	44.637	0	251.7	4	101.7	4	-1E+10	1	-1E+10	1	-1E+10	1	-1E+10	1	-1E+10	1	-1E+10	1
4901784	187	C	08/17/2020	10:48	-132.532	43.156	0	46.60	0	14.8970	0	34.7080	8	25.772	0	46.224	0	255.2	4	102.6	4	-1E+10	1	-1E+10	1	-1E+10	1	-1E+10	1	-1E+10	1	-1E+10	1
4901784	187	C	08/17/2020	10:48	-132.532	43.156	0	48.20	0	14.4650	0	34.7190	8	25.874	0	47.811	0	258.4	4	103.0	4	-1E+10	1	-1E+10	1	-1E+10	1	-1E+10	1	-1E+10	1	-1E+10	1
4901784	187	C	08/17/2020	10:48	-132.532	43.156	0	49.90	0	14.2570	0	34.7070	8	25.909	0	49.497	0	261.5	4	103.8	4	-1E+10	1	-1E+10	1	-1E+10	1	-1E+10	1	-1E+10	1	-1E+10	1
4901784	187	C	08/17/2020	10:48	-132.532	43.156	0	51.50	0	13.9690	0	34.7040	8	25.967	0	51.084	0	263.6	4	104.0	4	-1E+10	1	-1E+10	1	-1E+10	1	-1E+10	1	-1E+10	1	-1E+10	1
4901784	187	C	08/17/2020	10:48	-132.532	43.156	0	53.10	0	13.3130	0	34.7160	8	26.112	0	52.671	0	268.4	4	104.5	4	-1E+10	1	-1E+10	1	-1E+10	1	-1E+10	1	-1E+10	1	-1E+10	1
4901784	187	C	08/17/2020	10:48	-132.532	43.156	0	54.80	0	12.4320	0	34.7690	8	26.328	0	54.357	0	273.0	4	104.5	4	-1E+10	1	-1E+10	1	-1E+10	1	-1E+10	1	-1E+10	1	-1E+10	1
4901784	187	C	08/17/2020	10:48	-132.532	43.156	0	56.60	0	12.3780	0	34.7630	8	26.334	0	56.142	0	273.9	4	104.7	4	-1E+10	1	-1E+10	1	-1E+10	1	-1E+10	1	-1E+10	1	-1E+10	1
4901784	187	C	08/17/2020	10:48	-132.532	43.156	0	58.40	0	12.2910	0	34.7590	8	26.348	0	57.928	0	273.4	4	104.3	4	-1E+10	1	-1E+10	1	-1E+10	1	-1E+10	1	-1E+10	1	-1E+10	1
4901784	187	C	08/17/2020	10:48	-132.532	43.156	0	60.10	0	11.9700	0	34.7590	8	26.410	0	59.614	0	274.0	4	103.9	4	-1E+10	1	-1E+10	1	-1E+10	1	-1E+10	1	-1E+10	1	-1E+10	1
4901784	187	C	08/17/2020	10:48	-132.532	43.156	0	61.80	0	11.7150	0	34.7600	8	26.459	0	61.300	0	274.3	4	103.4	4	-1E+10	1	-1E+10	1	-1E+10	1	-1E+10	1	-1E+10	1	-1E+10	1
4901784	187	C	08/17/2020	10:48	-132.532	43.156	0	63.60	0	11.6020	0	34.7500	8	26.472	0	63.085	0	273.1	4	102.7	4	-1E+10	1	-1E+10	1	-1E+10	1	-1E+10	1	-1E+10	1	-1E+10	1
4901784	187	C	08/17/2020	10:48	-132.532	43.156	0	65.30	0	11.3660	0	34.7570	8	26.521	0	64.771	0	271.3	4	101.5	4	-1E+10	1	-1E+10	1	-1E+10	1	-1E+10	1	-1E+10	1	-1E+10	1
4901784	187	C	08/17/2020	10:48	-132.532	43.156	0	67.00	0	11.1450	0	34.7430	8	26.551	0	66.457	0	270.0	4	100.5	4	-1E+10	1	-1E+10	1	-1E+10	1	-1E+10	1	-1E+10	1	-1E+10	1
4901784	187	C	08/17/2020	10:48	-132.532	43.156	0	68.80	0	10.8510	0	34.7580	8	26.616	0	68.242	0	267.7	4	99.1	4	-1E+10	1	-1E+10	1	-1E+10	1	-1E+10	1	-1E+10	1	-1E+10	1
4901784	187	C	08/17/2020	10:48	-132.532	43.156	0	70.60	0	10.6910	0	34.7550	8	26.642	0	70.027	0	266.0	4	98.1	4	-1E+10	1	-1E+10	1	-1E+10	1	-1E+10	1	-1E+10	1	-1E+10	1
4901784	187	C	08/17/2020	10:48	-132.532	43.156	0	72.40	0	10.5350	0	34.7650	8	26.678	0	71.812	0	263.0	4	96.7	4	-1E+10	1	-1E+10	1	-1E+10	1	-1E+10	1	-1E+10	1	-1E+10	1
4901784	187	C	08/17/2020	10:48	-132.532	43.156	0	74.80	0	10.4770	0	34.7610	8	26.685	0	74.192	0	260.4	4	95.6	4	-1E+10	1	-1E+10	1	-1E+10	1	-1E+10	1	-1E+10	1	-1E+10	1
4901784	187	C	08/17/2020	10:48	-132.532	43.156	0	76.70	0	10.5610	0	34.8090	8	26.707	0	76.076	0	256.0	4	94.2	4	-1E+10	1	-1E+10	1	-1E+10	1	-1E+10	1	-1E+10	1	-1E+10	1
4901784	187	C	08/17/2020	10:48	-132.532	43.156	0	78.30	0	10.2530	0	34.7920	8	26.748	0	77.663	0	254.8	4	93.1	4	-1E+10	1	-1E+10	1	-1E+10	1	-1E+10	1	-1E+10	1	-1E+10	1
4901784	187	C	08/17/2020	10:48	-132.532	43.156	0	79.80	0	10.1960	0	34.7900	8	26.756	0	79.150	0	253.0	4	92.4	4	-1E+10	1	-1E+10	1	-1E+10	1	-1E+10	1	-1E+10	1	-1E+10	1
4901784	187	C	08/17/2020	10:48	-132.532	43.156	0	81.40	0	10.1490	0	34.8040	8	26.775	0	80.737	0	250.3	4	91.3	4	-1E+10	1	-1E+10	1	-1E+10	1	-1E+10	1	-1E+10	1	-1E+10	1
4901784	187	C	08/17/2020	10:48	-132.532	43.156	0	82.90	0	10.1840	0	34.8070	8	26.772	0	82.225	0	247.3	4	90.3	4	-1E+10	1	-1E+10	1	-1E+10	1	-1E+10	1	-1E+10	1	-1E+10	1
4901784	187	C	08/17/2020	10:48	-132.532	43.156	0	84.50	0	10.1750	0	34.8520	8	26.808	0	83.811	0	243.5	4	88.9	4	-1E+10	1	-1E+10	1	-1E+10	1	-1E+10	1	-1E+10	1	-1E+10	1
4901784	187	C	08/17/2020	10:48	-132.532	43.156	0	86.10	0	10.1200	0	34.8660	8	26.829	0	85.398	0	239.9	4	87.5	4	-1E+10	1	-1E+10	1	-1E+10	1	-1E+10	1	-1E+10	1	-1E+10	1
4901784	187	C	08/17/2020	10:48	-132.532	43.156	0	87.70	0	10.0760	0	34.8940	8	26.858	0	86.984	0	236.4	4	86.2	4	-1E+10	1	-1E+10	1	-1E+10	1	-1E+10	1	-1E+10	1	-1E+10	1
4901784	187	C	08/17/2020	10:48	-132.532	43.156	0	89.30	0	10.0560	0	34.9270	8	26.888	0	88.571	0	232.5	4	84.7	4	-1E+10	1	-1E+10	1	-1E+10	1	-1E+10	1	-1E+10	1	-1E+10	1
4901784	187	C	08/17/2020	10:48	-132.532	43.156	0	91.00	0	10.0150	0	34.9480	8	26.911	0	90.257	0	228.8	4	83.3	4	-1E+10	1	-1E+10	1	-1E+10	1	-1E+10	1	-1E+10	1	-1E+10	1
4901784	187	C	08/17/2020	10:48	-132.532	43.156	0	92.80	0	10.0110	0	34.9750	8	26.933	0	92.042	0	224.9	4	81.9	4	-1E+10	1	-1E+10	1	-1E+10	1	-1E+10	1	-1E+10	1	-1E+10	1
4901784	187	C	08/17/2020	10:48	-132.532	43.156	0	95.10	0	9.9320	0	35.0050	8	26.970	0	94.322	0	221.1	4	80.4	4	-1E+10	1	-1E+10	1	-1E+10	1	-1E+10	1	-1E+10	1	-1E+10	1
4901784	187	C	08/17/2020	10:48	-132.532	43.156	0	96.90	0	9.8270	0	35.0430	8	27.017	0	96.107	0	217.2	4	78.8	4	-1E+10	1	-1E+10	1	-1E+10	1	-1E+10	1	-1E+10	1	-1E+10	1
4901784	187	C	08/17/2020	10:48	-132.532	43.156	0	98.30	0	9.7350	0	35.0650	8	27.050	0	97.495	0	214.7	4	77.8	4	-1E+10	1	-1E+10	1	-1E+10	1	-1E+10	1	-1E+10	1	-1E+10	1
4901784	187	C	08/17/2020	10:48	-132.532	43.156	0	99.90	0	9.6550	0	35.0980	8	27.089	0	99.082	0	212.3	4	76.8	4	-1E+10	1	-1E+10	1	-1E+10	1	-1E+10	1	-1E+10	1	-1E+10	1
4901784	187	C	08/17/2020	10:48	-132.532	43.156	0	102.20	0	9.5820	0	35.1290	8	27.126	0	101.363	0	208.5	4	75.3	4	-1E+10	1	-1E+10	1	-1E+10	1	-1E+10	1	-1E+10	1	-1E+10	1
4901784	187	C	08/17/2020	10:48	-132.532	43.156	0	105.20	0	9.5010	0	35.1650	8	27.168	0	104.337	0	202.0	4	72.8	4	-1E+10	1	-1E+10	1	-1E+10	1	-1E+10	1	-1E+10	1	-1E+10	1
4901784	187	C	08/17/2020	10:48	-132.532	43.156	0	107.60	0	9.3520	0	35.2440	8	27.254	0	106.717	0	197.0	4	70.9	4	-1E+10	1	-1E+10	1	-1E+10	1	-1E+10	1	-1E+10	1	-1E+10	1
4901784	187	C	08/17/2020	10:48	-132.532	43.156	0	110.10	0	9.2610	0	35.2890	8	27.304	0	109.196	0	192.5	4	69.1	4	-1E+10	1	-1E+10	1	-1E+10	1	-1E+10	1	-1E+10	1	-1E+10	1
4901784	187	C	08/17/2020	10:48	-132.532	43.156	0	112.60	0	9.1300	0	35.3530	8	27.376	0	111.675	0	187.8	4	67.3	4	-1E+10	1	-1E+10	1	-1E+10	1	-1E+10	1	-1E+10	1	-1E+10	1
4901784	187	C	08/17/2020	10:48	-132.532	43.156	0	115.00	0	8.9330	0	35.4460	8	27.481	0	114.054	0	184.6	4	65.9	4	-1E+10	1	-1E+10	1	-1E+10	1	-1E+10	1	-1E+10	1	-1E+10	1
4901784	187	C	08/17/2020	10:48	-132.532	43.156	0	117.50	0	8.8390	0	35.4780	8	27.521	0	116.533	0	182.2	4	64.9	4	-1E+10	1	-1E+10	1	-1E+10	1	-1E+10	1	-1E+10	1	-1E+10	1
4901784	187	C	08/17/2020	10:48	-132.532	43.156	0	119.90	0	8.7990	0	35.5340	8	27.571	0	118.912	0	179.6	4	64.0	4	-1E+10	1	-1E+10	1	-1E+10	1	-1E+10	1	-1E+10	1	-1E+10	1
4901784	187	C	08/17/2020	10:48	-132.532	43.156	0	122.40	0	8.7100	0	35.5580	8	27.604	0	121.391	0	177.8	4	63.2	4	-1E+10	1	-1E+10	1	-1E+10	1	-1E+10	1	-1E+10	1	-1E+10	1
4901784	187	C	08/17/2020	10:48	-132.532	43.156	0	124.70	0	8.6480	0	35.5910	8	27.640	0	123.671	0	175.8	4	62.4	4	-1E+10	1	-1E+10	1	-1E+10	1	-1E+10	1	-1E+10	1	-1E+10	1
4901784	187	C	08/17/2020	10:48	-132.532	43.156	0	127.10	0	8.5910	0	35.6180	8	27.670	0	126.051	0	173.1	4	61.4	4	-1E+10	1	-1E+10	1	-1E+10	1	-1E+10	1	-1E+10	1	-1E+10	1
4901784	187	C	08/17/2020	10:48	-132.532	43.156	0	130.40	0	8.5140	0	35.6700	8	27.723	0	129.323	0	168.5	4	59.7	4	-1E+10	1	-1E+10	1	-1E+10	1	-1E+10	1	-1E+10	1	-1E+10	1
4901784	187	C	08/17/2020	10:48	-132.532	43.156	0	132.90	0	8.4800	0	35.7230	8	27.770	0	131.801	0	165.2	4	58.5	4	-1E+10	1	-1E+10	1	-1E+10	1	-1E+10	1	-1E+10	1	-1E+10	1
4901784	187	C	08/17/2020	10:48	-132.532	43.156	0	134.50	0	8.4760	0	35.7280	8	27.775	0	133.387	0	163.1	4	57.8	4	-1E+10	1	-1E+10	1	-1E+10	1	-1E+10	1	-1E+10	1	-1E+10	1
4901784	187	C	08/17/2020	10:48	-132.532	43.156	0	137.10	0	8.4550	0	35.7820	8	27.821	0	135.965	0	159.8	4	56.6	4	-1E+10	1	-1E+10	1	-1E+10	1	-1E+10	1	-1E+10	1	-1E+10	1
4901784	187	C	08/17/2020	10:48	-132.532	43.156	0	139.70	0	8.4060	0	35.8070	8	27.848	0	138.543	0	156.6	4	55.4	4	-1E+10	1	-1E+10	1	-1E+10	1	-1E+10	1	-1E+10	1	-1E+10	1
4901784	187	C	08/17/2020	10:48	-132.532	43.156	0	142.20	0	8.4360	0	35.8410	8	27.870	0	141.021	0	153.3	4	54.3	4	-1E+10	1	-1E+10	1	-1E+10	1	-1E+10	1	-1E+10	1	-1E+10	1
4901784	187	C	08/17/2020	10:48	-132.532	43.156	0	144.70	0	8.3830	0	35.8860	8	27.914	0	143.500	0	150.7	4	53.3	4	-1E+10	1	-1E+10	1	-1E+10	1	-1E+10	1	-1E+10	1	-1E+10	1
4901784	187	C	08/17/2020	10:48	-132.532	43.156	0	147.20	0	8.3640	0	35.9090	8	27.935	0	145.978	0	147.6	4	52.2	4	-1E+10	1	-1E+10	1	-1E+10	1	-1E+10	1	-1E+10	1	-1E+10	1
4901784	187	C	08/17/2020	10:48	-132.532	43.156	0	149.60	0	8.3410	0	35.9510	8	27.971	0	148.357	0	144.9	4	51.2	4	-1E+10	1	-1E+10	1	-1E+10	1	-1E+10	1	-1E+10	1	-1E+10	1
4901784	187	C	08/17/2020	10:48	-132.532	43.156	0	152.20	0	8.2880	0	35.9960	8	28.015	0	150.935	0	143.0	4	50.5	4	-1E+10	1	-1E+10	1	-1E+10	1	-1E+10	1	-1E+10	1	-1E+10	1
4901784	187	C	08/17/2020	10:48	-132.532	43.156	0	154.80	0	8.2230	0	36.0220	8	28.045	0	153.512	0	142.3	4	50.2	4	-1E+10	1	-1E+10	1	-1E+10	1	-1E+10	1	-1E+10	1	-1E+10	1
4901784	187	C	08/17/2020	10:48	-132.532	43.156	0	157.50	0	8.1740	0	36.0690	8	28.090	0	156.188	0	140.1	4	49.4	4	-1E+10	1	-1E+10	1	-1E+10	1	-1E+10	1	-1E+10	1	-1E+10	1
4901784	187	C	08/17/2020	10:48	-132.532	43.156	0	160.10	0	8.1540	0	36.0900	8	28.110	0	158.766	0	138.7	4	48.9	4	-1E+10	1	-1E+10	1	-1E+10	1	-1E+10	1	-1E+10	1	-1E+10	1
4901784	187	C	08/17/2020	10:48	-132.532	43.156	0	162.80	0	8.1440	0	36.1070	8	28.125	0	161.442	0	137.1	4	48.3	4	-1E+10	1	-1E+10	1	-1E+10	1	-1E+10	1	-1E+10	1	-1E+10	1
4901784	187	C	08/17/2020	10:48	-132.532	43.156	0	165.40	0	8.1280	0	36.1260	8	28.142	0	164.020	0	135.7	4	47.8	4	-1E+10	1	-1E+10	1	-1E+10	1	-1E+10	1	-1E+10	1	-1E+10	1
4901784	187	C	08/17/2020	10:48	-132.532	43.156	0	167.30	0	8.1090	0	36.1560	8	28.169	0	165.903	0	135.6	4	47.8	4	-1E+10	1	-1E+10	1	-1E+10	1	-1E+10	1	-1E+10	1	-1E+10	1
4901784	187	C	08/17/2020	10:48	-132.532	43.156	0	170.00	0	8.0730	0	36.1670	8	28.183	0	168.579	0	136.3	4	48.0	4	-1E+10	1	-1E+10	1	-1E+10	1	-1E+10	1	-1E+10	1	-1E+10	1
4901784	187	C	08/17/2020	10:48	-132.532	43.156	0	172.70	0	8.0200	0	36.1850	8	28.205	0	171.256	0	136.0	4	47.8	4	-1E+10	1	-1E+10	1	-1E+10	1	-1E+10	1	-1E+10	1	-1E+10	1
4901784	187	C	08/17/2020	10:48	-132.532	43.156	0	174.60	0	8.0020	0	36.1960	8	28.216	0	173.139	0	135.9	4	47.8	4	-1E+10	1	-1E+10	1	-1E+10	1	-1E+10	1	-1E+10	1	-1E+10	1
4901784	187	C	08/17/2020	10:48	-132.532	43.156	0	177.00	0	7.9830	0	36.2020	8	28.224	0	175.518	0	135.6	4	47.7	4	-1E+10	1	-1E+10	1	-1E+10	1	-1E+10	1	-1E+10	1	-1E+10	1
4901784	187	C	08/17/2020	10:48	-132.532	43.156	0	179.70	0	7.9790	0	36.2050	8	28.227	0	178.194	0	134.7	4	47.3	4	-1E+10	1	-1E+10	1	-1E+10	1	-1E+10	1	-1E+10	1	-1E+10	1
4901784	187	C	08/17/2020	10:48	-132.532	43.156	0	182.80	0	7.9640	0	36.2130	8	28.236	0	181.267	0	134.2	4	47.2	4	-1E+10	1	-1E+10	1	-1E+10	1	-1E+10	1	-1E+10	1	-1E+10	1
4901784	187	C	08/17/2020	10:48	-132.532	43.156	0	185.10	0	7.9280	0	36.2190	8	28.246	0	183.546	0	133.3	4	46.8	4	-1E+10	1	-1E+10	1	-1E+10	1	-1E+10	1	-1E+10	1	-1E+10	1
4901784	187	C	08/17/2020	10:48	-132.532	43.156	0	187.50	0	7.8990	0	36.2290	8	28.258	0	185.925	0	131.1	4	46.0	4	-1E+10	1	-1E+10	1	-1E+10	1	-1E+10	1	-1E+10	1	-1E+10	1
4901784	187	C	08/17/2020	10:48	-132.532	43.156	0	189.90	0	7.8880	0	36.2390	8	28.268	0	188.304	0	129.6	4	45.5	4	-1E+10	1	-1E+10	1	-1E+10	1	-1E+10	1	-1E+10	1	-1E+10	1
4901784	187	C	08/17/2020	10:48	-132.532	43.156	0	192.40	0	7.8720	0	36.2420	8	28.273	0	190.782	0	128.5	4	45.1	4	-1E+10	1	-1E+10	1	-1E+10	1	-1E+10	1	-1E+10	1	-1E+10	1
4901784	187	C	08/17/2020	10:48	-132.532	43.156	0	194.90	0	7.8550	0	36.2480	8	28.280	0	193.260	0	127.1	4	44.6	4	-1E+10	1	-1E+10	1	-1E+10	1	-1E+10	1	-1E+10	1	-1E+10	1
4901784	187	C	08/17/2020	10:48	-132.532	43.156	0	197.30	0	7.8250	0	36.2530	8	28.289	0	195.638	0	126.4	4	44.3	4	-1E+10	1	-1E+10	1	-1E+10	1	-1E+10	1	-1E+10	1	-1E+10	1
4901784	187	C	08/17/2020	10:48	-132.532	43.156	0	199.70	0	7.7910	0	36.2580	8	28.298	0	198.017	0	125.8	4	44.0	4	-1E+10	1	-1E+10	1	-1E+10	1	-1E+10	1	-1E+10	1	-1E+10	1
4901784	187	C	08/17/2020	10:48	-132.532	43.156	0	202.20	0	7.7690	0	36.2600	8	28.303	0	200.495	0	124.7	4	43.7	4	-1E+10	1	-1E+10	1	-1E+10	1	-1E+10	1	-1E+10	1	-1E+10	1
4901784	187	C	08/17/2020	10:48	-132.532	43.156	0	204.70	0	7.7330	0	36.2630	8	28.310	0	202.972	0	123.6	4	43.2	4	-1E+10	1	-1E+10	1	-1E+10	1	-1E+10	1	-1E+10	1	-1E+10	1
4901784	187	C	08/17/2020	10:48	-132.532	43.156	0	207.20	0	7.6830	0	36.2690	8	28.323	0	205.450	0	122.3	4	42.7	4	-1E+10	1	-1E+10	1	-1E+10	1	-1E+10	1	-1E+10	1	-1E+10	1
4901784	187	C	08/17/2020	10:48	-132.532	43.156	0	209.80	0	7.6250	0	36.2740	8	28.335	0	208.027	0	121.6	4	42.4	4	-1E+10	1	-1E+10	1	-1E+10	1	-1E+10	1	-1E+10	1	-1E+10	1
4901784	187	C	08/17/2020	10:48	-132.532	43.156	0	212.30	0	7.5810	0	36.2790	8	28.346	0	210.504	0	120.7	4	42.1	4	-1E+10	1	-1E+10	1	-1E+10	1	-1E+10	1	-1E+10	1	-1E+10	1
4901784	187	C	08/17/2020	10:48	-132.532	43.156	0	214.90	0	7.5580	0	36.2850	8	28.354	0	213.081	0	119.8	4	41.7	4	-1E+10	1	-1E+10	1	-1E+10	1	-1E+10	1	-1E+10	1	-1E+10	1
4901784	187	C	08/17/2020	10:48	-132.532	43.156	0	217.50	0	7.5280	0	36.2880	8	28.361	0	215.658	0	119.1	4	41.4	4	-1E+10	1	-1E+10	1	-1E+10	1	-1E+10	1	-1E+10	1	-1E+10	1
4901784	187	C	08/17/2020	10:48	-132.532	43.156	0	220.00	0	7.5060	0	36.2870	8	28.363	0	218.135	0	118.2	4	41.1	4	-1E+10	1	-1E+10	1	-1E+10	1	-1E+10	1	-1E+10	1	-1E+10	1
4901784	187	C	08/17/2020	10:48	-132.532	43.156	0	222.70	0	7.4590	0	36.2910	8	28.373	0	220.811	0	117.8	4	40.9	4	-1E+10	1	-1E+10	1	-1E+10	1	-1E+10	1	-1E+10	1	-1E+10	1
4901784	187	C	08/17/2020	10:48	-132.532	43.156	0	225.30	0	7.4310	0	36.2930	8	28.379	0	223.387	0	117.1	4	40.7	4	-1E+10	1	-1E+10	1	-1E+10	1	-1E+10	1	-1E+10	1	-1E+10	1
4901784	187	C	08/17/2020	10:48	-132.532	43.156	0	227.10	0	7.4150	0	36.2900	8	28.379	0	225.171	0	116.8	4	40.6	4	-1E+10	1	-1E+10	1	-1E+10	1	-1E+10	1	-1E+10	1	-1E+10	1
4901784	187	C	08/17/2020	10:48	-132.532	43.156	0	229.70	0	7.3610	0	36.2930	8	28.389	0	227.748	0	115.9	4	40.2	4	-1E+10	1	-1E+10	1	-1E+10	1	-1E+10	1	-1E+10	1	-1E+10	1
4901784	187	C	08/17/2020	10:48	-132.532	43.156	0	232.20	0	7.3290	0	36.2930	8	28.394	0	230.225	0	114.9	4	39.8	4	-1E+10	1	-1E+10	1	-1E+10	1	-1E+10	1	-1E+10	1	-1E+10	1
4901784	187	C	08/17/2020	10:48	-132.532	43.156	0	234.80	0	7.2830	0	36.2930	8	28.401	0	232.801	0	114.1	4	39.5	4	-1E+10	1	-1E+10	1	-1E+10	1	-1E+10	1	-1E+10	1	-1E+10	1
4901784	187	C	08/17/2020	10:48	-132.532	43.156	0	237.50	0	7.2320	0	36.2920	8	28.407	0	235.477	0	113.3	4	39.2	4	-1E+10	1	-1E+10	1	-1E+10	1	-1E+10	1	-1E+10	1	-1E+10	1
4901784	187	C	08/17/2020	10:48	-132.532	43.156	0	240.20	0	7.2060	0	36.2920	8	28.411	0	238.152	0	113.0	4	39.1	4	-1E+10	1	-1E+10	1	-1E+10	1	-1E+10	1	-1E+10	1	-1E+10	1
4901784	187	C	08/17/2020	10:48	-132.532	43.156	0	242.90	0	7.1580	0	36.2920	8	28.418	0	240.828	0	112.7	4	38.9	4	-1E+10	1	-1E+10	1	-1E+10	1	-1E+10	1	-1E+10	1	-1E+10	1
4901784	187	C	08/17/2020	10:48	-132.532	43.156	0	244.60	0	7.1410	0	36.2940	8	28.422	0	242.512	0	112.4	4	38.8	4	-1E+10	1	-1E+10	1	-1E+10	1	-1E+10	1	-1E+10	1	-1E+10	1
4901784	187	C	08/17/2020	10:48	-132.532	43.156	0	247.30	0	7.1100	0	36.2960	8	28.428	0	245.187	0	112.3	4	38.7	4	-1E+10	1	-1E+10	1	-1E+10	1	-1E+10	1	-1E+10	1	-1E+10	1
4901784	187	C	08/17/2020	10:48	-132.532	43.156	0	250.10	0	7.0900	0	36.2970	8	28.432	0	247.962	0	112.1	4	38.6	4	-1E+10	1	-1E+10	1	-1E+10	1	-1E+10	1	-1E+10	1	-1E+10	1
4901784	187	C	08/17/2020	10:48	-132.532	43.156	0	252.80	0	7.0570	0	36.2980	8	28.438	0	250.637	0	111.0	4	38.2	4	-1E+10	1	-1E+10	1	-1E+10	1	-1E+10	1	-1E+10	1	-1E+10	1
4901784	187	C	08/17/2020	10:48	-132.532	43.156	0	255.60	0	7.0210	0	36.2980	8	28.443	0	253.412	0	109.5	4	37.7	4	-1E+10	1	-1E+10	1	-1E+10	1	-1E+10	1	-1E+10	1	-1E+10	1
4901784	187	C	08/17/2020	10:48	-132.532	43.156	0	257.40	0	6.9670	0	36.3010	8	28.453	0	255.195	0	108.8	4	37.4	4	-1E+10	1	-1E+10	1	-1E+10	1	-1E+10	1	-1E+10	1	-1E+10	1
4901784	187	C	08/17/2020	10:48	-132.532	43.156	0	260.20	0	6.9520	0	36.3030	8	28.456	0	257.969	0	107.7	4	37.0	4	-1E+10	1	-1E+10	1	-1E+10	1	-1E+10	1	-1E+10	1	-1E+10	1
4901784	187	C	08/17/2020	10:48	-132.532	43.156	0	263.00	0	6.9050	0	36.3040	8	28.464	0	260.743	0	107.0	4	36.8	4	-1E+10	1	-1E+10	1	-1E+10	1	-1E+10	1	-1E+10	1	-1E+10	1
4901784	187	C	08/17/2020	10:48	-132.532	43.156	0	264.80	0	6.8960	0	36.3040	8	28.465	0	262.527	0	106.4	4	36.5	4	-1E+10	1	-1E+10	1	-1E+10	1	-1E+10	1	-1E+10	1	-1E+10	1
4901784	187	C	08/17/2020	10:48	-132.532	43.156	0	267.60	0	6.8680	0	36.3040	8	28.469	0	265.301	0	105.1	4	36.1	4	-1E+10	1	-1E+10	1	-1E+10	1	-1E+10	1	-1E+10	1	-1E+10	1
4901784	187	C	08/17/2020	10:48	-132.532	43.156	0	270.50	0	6.8430	0	36.3030	8	28.472	0	268.174	0	103.8	4	35.6	4	-1E+10	1	-1E+10	1	-1E+10	1	-1E+10	1	-1E+10	1	-1E+10	1
4901784	187	C	08/17/2020	10:48	-132.532	43.156	0	272.30	0	6.8290	0	36.3020	8	28.473	0	269.958	0	102.8	4	35.2	4	-1E+10	1	-1E+10	1	-1E+10	1	-1E+10	1	-1E+10	1	-1E+10	1
4901784	187	C	08/17/2020	10:48	-132.532	43.156	0	275.10	0	6.7770	0	36.3040	8	28.482	0	272.732	0	101.2	4	34.6	4	-1E+10	1	-1E+10	1	-1E+10	1	-1E+10	1	-1E+10	1	-1E+10	1
4901784	187	C	08/17/2020	10:48	-132.532	43.156	0	277.90	0	6.7380	0	36.3070	8	28.490	0	275.506	0	99.9	4	34.2	4	-1E+10	1	-1E+10	1	-1E+10	1	-1E+10	1	-1E+10	1	-1E+10	1
4901784	187	C	08/17/2020	10:48	-132.532	43.156	0	279.70	0	6.7090	0	36.3050	8	28.492	0	277.289	0	99.3	4	33.9	4	-1E+10	1	-1E+10	1	-1E+10	1	-1E+10	1	-1E+10	1	-1E+10	1
4901784	187	C	08/17/2020	10:48	-132.532	43.156	0	282.50	0	6.6930	0	36.3050	8	28.495	0	280.063	0	98.2	4	33.6	4	-1E+10	1	-1E+10	1	-1E+10	1	-1E+10	1	-1E+10	1	-1E+10	1
4901784	187	C	08/17/2020	10:48	-132.532	43.156	0	285.40	0	6.6840	0	36.3090	8	28.499	0	282.936	0	97.0	4	33.1	4	-1E+10	1	-1E+10	1	-1E+10	1	-1E+10	1	-1E+10	1	-1E+10	1
4901784	187	C	08/17/2020	10:48	-132.532	43.156	0	287.30	0	6.6730	0	36.3090	8	28.501	0	284.818	0	96.0	4	32.8	4	-1E+10	1	-1E+10	1	-1E+10	1	-1E+10	1	-1E+10	1	-1E+10	1
4901784	187	C	08/17/2020	10:48	-132.532	43.156	0	290.10	0	6.6480	0	36.3110	8	28.506	0	287.592	0	94.8	4	32.4	4	-1E+10	1	-1E+10	1	-1E+10	1	-1E+10	1	-1E+10	1	-1E+10	1
4901784	187	C	08/17/2020	10:48	-132.532	43.156	0	293.00	0	6.5980	0	36.3110	8	28.513	0	290.465	0	93.7	4	32.0	4	-1E+10	1	-1E+10	1	-1E+10	1	-1E+10	1	-1E+10	1	-1E+10	1
4901784	187	C	08/17/2020	10:48	-132.532	43.156	0	295.00	0	6.5630	0	36.3170	8	28.522	0	292.446	0	93.0	4	31.7	4	-1E+10	1	-1E+10	1	-1E+10	1	-1E+10	1	-1E+10	1	-1E+10	1
4901784	187	C	08/17/2020	10:48	-132.532	43.156	0	296.90	0	6.5340	0	36.3140	8	28.524	0	294.329	0	92.6	4	31.5	4	-1E+10	1	-1E+10	1	-1E+10	1	-1E+10	1	-1E+10	1	-1E+10	1
4901784	187	C	08/17/2020	10:48	-132.532	43.156	0	299.90	0	6.5280	0	36.3150	8	28.525	0	297.300	0	91.3	4	31.1	4	-1E+10	1	-1E+10	1	-1E+10	1	-1E+10	1	-1E+10	1	-1E+10	1
4901784	187	C	08/17/2020	10:48	-132.532	43.156	0	302.80	0	6.5080	0	36.3170	8	28.530	0	300.173	0	90.0	4	30.6	4	-1E+10	1	-1E+10	1	-1E+10	1	-1E+10	1	-1E+10	1	-1E+10	1
4901784	187	C	08/17/2020	10:48	-132.532	43.156	0	304.70	0	6.4670	0	36.3190	8	28.537	0	302.055	0	89.1	4	30.3	4	-1E+10	1	-1E+10	1	-1E+10	1	-1E+10	1	-1E+10	1	-1E+10	1
4901784	187	C	08/17/2020	10:48	-132.532	43.156	0	307.60	0	6.4220	0	36.3230	8	28.546	0	304.928	0	88.6	4	30.1	4	-1E+10	1	-1E+10	1	-1E+10	1	-1E+10	1	-1E+10	1	-1E+10	1
4901784	187	C	08/17/2020	10:48	-132.532	43.156	0	310.40	0	6.4090	0	36.3220	8	28.547	0	307.702	0	88.2	4	30.0	4	-1E+10	1	-1E+10	1	-1E+10	1	-1E+10	1	-1E+10	1	-1E+10	1
4901784	187	C	08/17/2020	10:48	-132.532	43.156	0	312.40	0	6.4040	0	36.3200	8	28.546	0	309.683	0	87.8	4	29.8	4	-1E+10	1	-1E+10	1	-1E+10	1	-1E+10	1	-1E+10	1	-1E+10	1
4901784	187	C	08/17/2020	10:48	-132.532	43.156	0	314.30	0	6.3700	0	36.3220	8	28.553	0	311.565	0	87.5	4	29.7	4	-1E+10	1	-1E+10	1	-1E+10	1	-1E+10	1	-1E+10	1	-1E+10	1
4901784	187	C	08/17/2020	10:48	-132.532	43.156	0	317.20	0	6.3450	0	36.3190	8	28.554	0	314.437	0	87.2	4	29.6	4	-1E+10	1	-1E+10	1	-1E+10	1	-1E+10	1	-1E+10	1	-1E+10	1
4901784	187	C	08/17/2020	10:48	-132.532	43.156	0	320.00	0	6.3040	0	36.3200	8	28.560	0	317.211	0	86.8	4	29.4	4	-1E+10	1	-1E+10	1	-1E+10	1	-1E+10	1	-1E+10	1	-1E+10	1
4901784	187	C	08/17/2020	10:48	-132.532	43.156	0	322.00	0	6.2490	0	36.3160	8	28.564	0	319.192	0	86.6	4	29.3	4	-1E+10	1	-1E+10	1	-1E+10	1	-1E+10	1	-1E+10	1	-1E+10	1
4901784	187	C	08/17/2020	10:48	-132.532	43.156	0	324.90	0	6.2210	0	36.3160	8	28.568	0	322.064	0	85.2	4	28.8	4	-1E+10	1	-1E+10	1	-1E+10	1	-1E+10	1	-1E+10	1	-1E+10	1
4901784	187	C	08/17/2020	10:48	-132.532	43.156	0	327.70	0	6.2060	0	36.3190	8	28.572	0	324.838	0	83.3	4	28.2	4	-1E+10	1	-1E+10	1	-1E+10	1	-1E+10	1	-1E+10	1	-1E+10	1
4901784	187	C	08/17/2020	10:48	-132.532	43.156	0	329.60	0	6.2230	0	36.3210	8	28.572	0	326.720	0	81.6	4	27.6	4	-1E+10	1	-1E+10	1	-1E+10	1	-1E+10	1	-1E+10	1	-1E+10	1
4901784	187	C	08/17/2020	10:48	-132.532	43.156	0	332.50	0	6.2040	0	36.3270	8	28.579	0	329.592	0	79.8	4	27.0	4	-1E+10	1	-1E+10	1	-1E+10	1	-1E+10	1	-1E+10	1	-1E+10	1
4901784	187	C	08/17/2020	10:48	-132.532	43.156	0	335.30	0	6.1720	0	36.3290	8	28.585	0	332.365	0	78.4	4	26.5	4	-1E+10	1	-1E+10	1	-1E+10	1	-1E+10	1	-1E+10	1	-1E+10	1
4901784	187	C	08/17/2020	10:48	-132.532	43.156	0	337.10	0	6.1590	0	36.3290	8	28.587	0	334.148	0	77.6	4	26.2	4	-1E+10	1	-1E+10	1	-1E+10	1	-1E+10	1	-1E+10	1	-1E+10	1
4901784	187	C	08/17/2020	10:48	-132.532	43.156	0	340.00	0	6.0850	0	36.3310	8	28.598	0	337.020	0	76.5	4	25.8	4	-1E+10	1	-1E+10	1	-1E+10	1	-1E+10	1	-1E+10	1	-1E+10	1
4901784	187	C	08/17/2020	10:48	-132.532	43.156	0	342.80	0	6.0390	0	36.3320	8	28.605	0	339.793	0	75.9	4	25.5	4	-1E+10	1	-1E+10	1	-1E+10	1	-1E+10	1	-1E+10	1	-1E+10	1
4901784	187	C	08/17/2020	10:48	-132.532	43.156	0	344.70	0	6.0110	0	36.3300	8	28.607	0	341.675	0	75.8	4	25.5	4	-1E+10	1	-1E+10	1	-1E+10	1	-1E+10	1	-1E+10	1	-1E+10	1
4901784	187	C	08/17/2020	10:48	-132.532	43.156	0	347.50	0	5.9650	0	36.3300	8	28.613	0	344.448	0	74.8	4	25.1	4	-1E+10	1	-1E+10	1	-1E+10	1	-1E+10	1	-1E+10	1	-1E+10	1
4901784	187	C	08/17/2020	10:48	-132.532	43.156	0	350.30	0	5.9480	0	36.3340	8	28.619	0	347.221	0	73.5	4	24.7	4	-1E+10	1	-1E+10	1	-1E+10	1	-1E+10	1	-1E+10	1	-1E+10	1
4901784	187	C	08/17/2020	10:48	-132.532	43.156	0	352.20	0	5.9490	0	36.3350	8	28.619	0	349.103	0	72.9	4	24.5	4	-1E+10	1	-1E+10	1	-1E+10	1	-1E+10	1	-1E+10	1	-1E+10	1
4901784	187	C	08/17/2020	10:48	-132.532	43.156	0	355.00	0	5.9220	0	36.3360	8	28.624	0	351.876	0	72.0	4	24.2	4	-1E+10	1	-1E+10	1	-1E+10	1	-1E+10	1	-1E+10	1	-1E+10	1
4901784	187	C	08/17/2020	10:48	-132.532	43.156	0	357.80	0	5.8940	0	36.3380	8	28.629	0	354.649	0	71.2	4	23.9	4	-1E+10	1	-1E+10	1	-1E+10	1	-1E+10	1	-1E+10	1	-1E+10	1
4901784	187	C	08/17/2020	10:48	-132.532	43.156	0	359.60	0	5.8700	0	36.3380	8	28.632	0	356.432	0	70.8	4	23.7	4	-1E+10	1	-1E+10	1	-1E+10	1	-1E+10	1	-1E+10	1	-1E+10	1
4901784	187	C	08/17/2020	10:48	-132.532	43.156	0	362.40	0	5.8580	0	36.3390	8	28.634	0	359.204	0	70.0	4	23.5	4	-1E+10	1	-1E+10	1	-1E+10	1	-1E+10	1	-1E+10	1	-1E+10	1
4901784	187	C	08/17/2020	10:48	-132.532	43.156	0	365.20	0	5.8000	0	36.3410	8	28.643	0	361.977	0	69.5	4	23.3	4	-1E+10	1	-1E+10	1	-1E+10	1	-1E+10	1	-1E+10	1	-1E+10	1
4901784	187	C	08/17/2020	10:48	-132.532	43.156	0	367.10	0	5.7830	0	36.3430	8	28.647	0	363.859	0	69.1	4	23.1	4	-1E+10	1	-1E+10	1	-1E+10	1	-1E+10	1	-1E+10	1	-1E+10	1
4901784	187	C	08/17/2020	10:48	-132.532	43.156	0	369.90	0	5.7780	0	36.3430	8	28.648	0	366.632	0	68.5	4	22.9	4	-1E+10	1	-1E+10	1	-1E+10	1	-1E+10	1	-1E+10	1	-1E+10	1
4901784	187	C	08/17/2020	10:48	-132.532	43.156	0	372.60	0	5.7630	0	36.3460	8	28.652	0	369.305	0	67.9	4	22.7	4	-1E+10	1	-1E+10	1	-1E+10	1	-1E+10	1	-1E+10	1	-1E+10	1
4901784	187	C	08/17/2020	10:48	-132.532	43.156	0	374.50	0	5.7400	0	36.3460	8	28.655	0	371.187	0	67.6	4	22.6	4	-1E+10	1	-1E+10	1	-1E+10	1	-1E+10	1	-1E+10	1	-1E+10	1
4901784	187	C	08/17/2020	10:48	-132.532	43.156	0	377.30	0	5.7070	0	36.3480	8	28.661	0	373.960	0	67.2	4	22.4	4	-1E+10	1	-1E+10	1	-1E+10	1	-1E+10	1	-1E+10	1	-1E+10	1
4901784	187	C	08/17/2020	10:48	-132.532	43.156	0	380.00	0	5.6730	0	36.3480	8	28.665	0	376.633	0	66.8	4	22.3	4	-1E+10	1	-1E+10	1	-1E+10	1	-1E+10	1	-1E+10	1	-1E+10	1
4901784	187	C	08/17/2020	10:48	-132.532	43.156	0	381.90	0	5.6560	0	36.3480	8	28.668	0	378.515	0	66.6	4	22.2	4	-1E+10	1	-1E+10	1	-1E+10	1	-1E+10	1	-1E+10	1	-1E+10	1
4901784	187	C	08/17/2020	10:48	-132.532	43.156	0	384.70	0	5.6270	0	36.3490	8	28.672	0	381.287	0	66.0	4	22.0	4	-1E+10	1	-1E+10	1	-1E+10	1	-1E+10	1	-1E+10	1	-1E+10	1
4901784	187	C	08/17/2020	10:48	-132.532	43.156	0	387.50	0	5.6090	0	36.3500	8	28.675	0	384.060	0	65.2	4	21.7	4	-1E+10	1	-1E+10	1	-1E+10	1	-1E+10	1	-1E+10	1	-1E+10	1
4901784	187	C	08/17/2020	10:48	-132.532	43.156	0	390.30	0	5.5780	0	36.3510	8	28.680	0	386.832	0	64.4	4	21.5	4	-1E+10	1	-1E+10	1	-1E+10	1	-1E+10	1	-1E+10	1	-1E+10	1
4901784	187	C	08/17/2020	10:48	-132.532	43.156	0	393.10	0	5.5440	0	36.3530	8	28.686	0	389.605	0	63.3	4	21.1	4	-1E+10	1	-1E+10	1	-1E+10	1	-1E+10	1	-1E+10	1	-1E+10	1
4901784	187	C	08/17/2020	10:48	-132.532	43.156	0	394.90	0	5.5320	0	36.3550	8	28.689	0	391.387	0	62.4	4	20.8	4	-1E+10	1	-1E+10	1	-1E+10	1	-1E+10	1	-1E+10	1	-1E+10	1
4901784	187	C	08/17/2020	10:48	-132.532	43.156	0	397.80	0	5.5230	0	36.3580	8	28.693	0	394.259	0	61.3	4	20.4	4	-1E+10	1	-1E+10	1	-1E+10	1	-1E+10	1	-1E+10	1	-1E+10	1
4901784	187	C	08/17/2020	10:48	-132.532	43.156	0	400.60	0	5.4790	0	36.3590	8	28.699	0	397.031	0	60.4	4	20.1	4	-1E+10	1	-1E+10	1	-1E+10	1	-1E+10	1	-1E+10	1	-1E+10	1
4901784	187	C	08/17/2020	10:48	-132.532	43.156	0	402.50	0	5.4440	0	36.3650	8	28.708	0	398.912	0	59.9	4	19.9	4	-1E+10	1	-1E+10	1	-1E+10	1	-1E+10	1	-1E+10	1	-1E+10	1
4901784	187	C	08/17/2020	10:48	-132.532	43.156	0	404.30	0	5.4270	0	36.3640	8	28.709	0	400.695	0	59.2	4	19.6	4	-1E+10	1	-1E+10	1	-1E+10	1	-1E+10	1	-1E+10	1	-1E+10	1
4901784	187	C	08/17/2020	10:48	-132.532	43.156	0	407.40	0	5.4280	0	36.3680	8	28.712	0	403.764	0	58.0	4	19.3	4	-1E+10	1	-1E+10	1	-1E+10	1	-1E+10	1	-1E+10	1	-1E+10	1
4901784	187	C	08/17/2020	10:48	-132.532	43.156	0	410.20	0	5.4090	0	36.3730	8	28.719	0	406.536	0	57.0	4	18.9	4	-1E+10	1	-1E+10	1	-1E+10	1	-1E+10	1	-1E+10	1	-1E+10	1
4901784	187	C	08/17/2020	10:48	-132.532	43.156	0	412.60	0	5.4040	0	36.3730	8	28.719	0	408.912	0	56.4	4	18.7	4	-1E+10	1	-1E+10	1	-1E+10	1	-1E+10	1	-1E+10	1	-1E+10	1
4901784	187	C	08/17/2020	10:48	-132.532	43.156	0	415.00	0	5.3970	0	36.3760	8	28.723	0	411.289	0	55.5	4	18.4	4	-1E+10	1	-1E+10	1	-1E+10	1	-1E+10	1	-1E+10	1	-1E+10	1
4901784	187	C	08/17/2020	10:48	-132.532	43.156	0	417.40	0	5.3930	0	36.3770	8	28.724	0	413.665	0	54.8	4	18.2	4	-1E+10	1	-1E+10	1	-1E+10	1	-1E+10	1	-1E+10	1	-1E+10	1
4901784	187	C	08/17/2020	10:48	-132.532	43.156	0	419.80	0	5.3720	0	36.3790	8	28.728	0	416.041	0	54.2	4	18.0	4	-1E+10	1	-1E+10	1	-1E+10	1	-1E+10	1	-1E+10	1	-1E+10	1
4901784	187	C	08/17/2020	10:48	-132.532	43.156	0	422.30	0	5.3620	0	36.3810	8	28.731	0	418.516	0	53.4	4	17.7	4	-1E+10	1	-1E+10	1	-1E+10	1	-1E+10	1	-1E+10	1	-1E+10	1
4901784	187	C	08/17/2020	10:48	-132.532	43.156	0	424.80	0	5.3500	0	36.3830	8	28.734	0	420.991	0	52.6	4	17.4	4	-1E+10	1	-1E+10	1	-1E+10	1	-1E+10	1	-1E+10	1	-1E+10	1
4901784	187	C	08/17/2020	10:48	-132.532	43.156	0	427.20	0	5.3420	0	36.3850	8	28.737	0	423.367	0	51.7	4	17.1	4	-1E+10	1	-1E+10	1	-1E+10	1	-1E+10	1	-1E+10	1	-1E+10	1
4901784	187	C	08/17/2020	10:48	-132.532	43.156	0	429.70	0	5.3280	0	36.3870	8	28.740	0	425.842	0	50.9	4	16.9	4	-1E+10	1	-1E+10	1	-1E+10	1	-1E+10	1	-1E+10	1	-1E+10	1
4901784	187	C	08/17/2020	10:48	-132.532	43.156	0	432.20	0	5.3130	0	36.3890	8	28.744	0	428.317	0	49.9	4	16.5	4	-1E+10	1	-1E+10	1	-1E+10	1	-1E+10	1	-1E+10	1	-1E+10	1
4901784	187	C	08/17/2020	10:48	-132.532	43.156	0	434.70	0	5.2970	0	36.3910	8	28.747	0	430.792	0	48.9	4	16.2	4	-1E+10	1	-1E+10	1	-1E+10	1	-1E+10	1	-1E+10	1	-1E+10	1
4901784	187	C	08/17/2020	10:48	-132.532	43.156	0	437.30	0	5.2500	0	36.3980	8	28.759	0	433.366	0	48.0	4	15.9	4	-1E+10	1	-1E+10	1	-1E+10	1	-1E+10	1	-1E+10	1	-1E+10	1
4901784	187	C	08/17/2020	10:48	-132.532	43.156	0	439.90	0	5.2340	0	36.3980	8	28.760	0	435.940	0	47.0	4	15.5	4	-1E+10	1	-1E+10	1	-1E+10	1	-1E+10	1	-1E+10	1	-1E+10	1
4901784	187	C	08/17/2020	10:48	-132.532	43.156	0	442.40	0	5.2180	0	36.4060	8	28.769	0	438.415	0	45.5	4	15.0	4	-1E+10	1	-1E+10	1	-1E+10	1	-1E+10	1	-1E+10	1	-1E+10	1
4901784	187	C	08/17/2020	10:48	-132.532	43.156	0	445.00	0	5.2280	0	36.4110	8	28.772	0	440.988	0	44.6	4	14.7	4	-1E+10	1	-1E+10	1	-1E+10	1	-1E+10	1	-1E+10	1	-1E+10	1
4901784	187	C	08/17/2020	10:48	-132.532	43.156	0	447.50	0	5.2140	0	36.4140	8	28.776	0	443.463	0	44.0	4	14.5	4	-1E+10	1	-1E+10	1	-1E+10	1	-1E+10	1	-1E+10	1	-1E+10	1
4901784	187	C	08/17/2020	10:48	-132.532	43.156	0	450.00	0	5.1950	0	36.4170	8	28.780	0	445.938	0	43.5	4	14.4	4	-1E+10	1	-1E+10	1	-1E+10	1	-1E+10	1	-1E+10	1	-1E+10	1
4901784	187	C	08/17/2020	10:48	-132.532	43.156	0	452.60	0	5.1880	0	36.4200	8	28.784	0	448.512	0	43.1	4	14.2	4	-1E+10	1	-1E+10	1	-1E+10	1	-1E+10	1	-1E+10	1	-1E+10	1
4901784	187	C	08/17/2020	10:48	-132.532	43.156	0	455.10	0	5.1770	0	36.4220	8	28.787	0	450.986	0	42.8	4	14.1	4	-1E+10	1	-1E+10	1	-1E+10	1	-1E+10	1	-1E+10	1	-1E+10	1
4901784	187	C	08/17/2020	10:48	-132.532	43.156	0	457.80	0	5.1720	0	36.4220	8	28.787	0	453.659	0	42.6	4	14.1	4	-1E+10	1	-1E+10	1	-1E+10	1	-1E+10	1	-1E+10	1	-1E+10	1
4901784	187	C	08/17/2020	10:48	-132.532	43.156	0	460.40	0	5.1690	0	36.4220	8	28.788	0	456.233	0	42.4	4	14.0	4	-1E+10	1	-1E+10	1	-1E+10	1	-1E+10	1	-1E+10	1	-1E+10	1
4901784	187	C	08/17/2020	10:48	-132.532	43.156	0	462.20	0	5.1210	0	36.4230	8	28.794	0	458.014	0	42.3	4	13.9	4	-1E+10	1	-1E+10	1	-1E+10	1	-1E+10	1	-1E+10	1	-1E+10	1
4901784	187	C	08/17/2020	10:48	-132.532	43.156	0	464.90	0	5.1190	0	36.4250	8	28.796	0	460.687	0	41.6	4	13.7	4	-1E+10	1	-1E+10	1	-1E+10	1	-1E+10	1	-1E+10	1	-1E+10	1
4901784	187	C	08/17/2020	10:48	-132.532	43.156	0	467.50	0	5.1190	0	36.4250	8	28.796	0	463.260	0	40.9	4	13.5	4	-1E+10	1	-1E+10	1	-1E+10	1	-1E+10	1	-1E+10	1	-1E+10	1
4901784	187	C	08/17/2020	10:48	-132.532	43.156	0	470.20	0	5.1050	0	36.4300	8	28.802	0	465.933	0	40.1	4	13.2	4	-1E+10	1	-1E+10	1	-1E+10	1	-1E+10	1	-1E+10	1	-1E+10	1
4901784	187	C	08/17/2020	10:48	-132.532	43.156	0	472.90	0	5.1040	0	36.4320	8	28.804	0	468.605	0	39.4	4	13.0	4	-1E+10	1	-1E+10	1	-1E+10	1	-1E+10	1	-1E+10	1	-1E+10	1
4901784	187	C	08/17/2020	10:48	-132.532	43.156	0	474.80	0	5.1040	0	36.4350	8	28.806	0	470.486	0	38.9	4	12.8	4	-1E+10	1	-1E+10	1	-1E+10	1	-1E+10	1	-1E+10	1	-1E+10	1
4901784	187	C	08/17/2020	10:48	-132.532	43.156	0	477.50	0	5.0790	0	36.4390	8	28.812	0	473.158	0	38.4	4	12.6	4	-1E+10	1	-1E+10	1	-1E+10	1	-1E+10	1	-1E+10	1	-1E+10	1
4901784	187	C	08/17/2020	10:48	-132.532	43.156	0	480.20	0	5.0600	0	36.4410	8	28.816	0	475.831	0	37.8	4	12.5	4	-1E+10	1	-1E+10	1	-1E+10	1	-1E+10	1	-1E+10	1	-1E+10	1
4901784	187	C	08/17/2020	10:48	-132.532	43.156	0	482.10	0	5.0600	0	36.4440	8	28.819	0	477.711	0	37.5	4	12.4	4	-1E+10	1	-1E+10	1	-1E+10	1	-1E+10	1	-1E+10	1	-1E+10	1
4901784	187	C	08/17/2020	10:48	-132.532	43.156	0	484.80	0	5.0540	0	36.4450	8	28.820	0	480.384	0	37.1	4	12.2	4	-1E+10	1	-1E+10	1	-1E+10	1	-1E+10	1	-1E+10	1	-1E+10	1
4901784	187	C	08/17/2020	10:48	-132.532	43.156	0	487.60	0	5.0360	0	36.4500	8	28.826	0	483.155	0	36.7	4	12.1	4	-1E+10	1	-1E+10	1	-1E+10	1	-1E+10	1	-1E+10	1	-1E+10	1
4901784	187	C	08/17/2020	10:48	-132.532	43.156	0	489.50	0	5.0310	0	36.4500	8	28.827	0	485.035	0	36.5	4	12.0	4	-1E+10	1	-1E+10	1	-1E+10	1	-1E+10	1	-1E+10	1	-1E+10	1
4901784	187	C	08/17/2020	10:48	-132.532	43.156	0	492.30	0	5.0290	0	36.4510	8	28.828	0	487.806	0	36.2	4	11.9	4	-1E+10	1	-1E+10	1	-1E+10	1	-1E+10	1	-1E+10	1	-1E+10	1
4901784	187	C	08/17/2020	10:48	-132.532	43.156	0	495.10	0	5.0290	0	36.4510	8	28.828	0	490.578	0	35.8	4	11.8	4	-1E+10	1	-1E+10	1	-1E+10	1	-1E+10	1	-1E+10	1	-1E+10	1
4901784	187	C	08/17/2020	10:48	-132.532	43.156	0	497.00	0	5.0220	0	36.4530	8	28.830	0	492.458	0	35.5	4	11.7	4	-1E+10	1	-1E+10	1	-1E+10	1	-1E+10	1	-1E+10	1	-1E+10	1
4901784	187	C	08/17/2020	10:48	-132.532	43.156	0	499.80	0	5.0130	0	36.4540	8	28.832	0	495.229	0	35.1	4	11.6	4	-1E+10	1	-1E+10	1	-1E+10	1	-1E+10	1	-1E+10	1	-1E+10	1
4901784	187	C	08/17/2020	10:48	-132.532	43.156	0	504.50	0	4.9670	0	36.4580	8	28.841	0	499.880	0	34.4	4	11.3	4	-1E+10	1	-1E+10	1	-1E+10	1	-1E+10	1	-1E+10	1	-1E+10	1
4901784	187	C	08/17/2020	10:48	-132.532	43.156	0	509.30	0	4.9480	0	36.4640	8	28.848	0	504.631	0	33.7	4	11.1	4	-1E+10	1	-1E+10	1	-1E+10	1	-1E+10	1	-1E+10	1	-1E+10	1
4901784	187	C	08/17/2020	10:48	-132.532	43.156	0	514.20	0	4.9360	0	36.4660	8	28.851	0	509.480	0	33.2	4	10.9	4	-1E+10	1	-1E+10	1	-1E+10	1	-1E+10	1	-1E+10	1	-1E+10	1
4901784	187	C	08/17/2020	10:48	-132.532	43.156	0	519.50	0	4.9200	0	36.4710	8	28.857	0	514.725	0	32.1	4	10.5	4	-1E+10	1	-1E+10	1	-1E+10	1	-1E+10	1	-1E+10	1	-1E+10	1
4901784	187	C	08/17/2020	10:48	-132.532	43.156	0	524.30	0	4.9100	0	36.4750	8	28.862	0	519.474	0	31.3	4	10.3	4	-1E+10	1	-1E+10	1	-1E+10	1	-1E+10	1	-1E+10	1	-1E+10	1
4901784	187	C	08/17/2020	10:48	-132.532	43.156	0	529.30	0	4.8900	0	36.4780	8	28.866	0	524.422	0	30.2	4	9.9	4	-1E+10	1	-1E+10	1	-1E+10	1	-1E+10	1	-1E+10	1	-1E+10	1
4901784	187	C	08/17/2020	10:48	-132.532	43.156	0	534.30	0	4.8560	0	36.4860	8	28.877	0	529.370	0	29.0	4	9.5	4	-1E+10	1	-1E+10	1	-1E+10	1	-1E+10	1	-1E+10	1	-1E+10	1
4901784	187	C	08/17/2020	10:48	-132.532	43.156	0	539.40	0	4.8280	0	36.4930	8	28.886	0	534.416	0	27.9	4	9.1	4	-1E+10	1	-1E+10	1	-1E+10	1	-1E+10	1	-1E+10	1	-1E+10	1
4901784	187	C	08/17/2020	10:48	-132.532	43.156	0	544.40	0	4.8040	0	36.4990	8	28.893	0	539.363	0	26.9	4	8.8	4	-1E+10	1	-1E+10	1	-1E+10	1	-1E+10	1	-1E+10	1	-1E+10	1
4901784	187	C	08/17/2020	10:48	-132.532	43.156	0	549.40	0	4.7840	0	36.5050	8	28.900	0	544.311	0	25.9	4	8.5	4	-1E+10	1	-1E+10	1	-1E+10	1	-1E+10	1	-1E+10	1	-1E+10	1
4901784	187	C	08/17/2020	10:48	-132.532	43.156	0	554.40	0	4.7610	0	36.5120	8	28.909	0	549.258	0	25.2	4	8.3	4	-1E+10	1	-1E+10	1	-1E+10	1	-1E+10	1	-1E+10	1	-1E+10	1
4901784	187	C	08/17/2020	10:48	-132.532	43.156	0	559.50	0	4.7500	0	36.5150	8	28.912	0	554.304	0	24.6	4	8.1	4	-1E+10	1	-1E+10	1	-1E+10	1	-1E+10	1	-1E+10	1	-1E+10	1
4901784	187	C	08/17/2020	10:48	-132.532	43.156	0	564.60	0	4.7350	0	36.5190	8	28.917	0	559.349	0	23.9	4	7.8	4	-1E+10	1	-1E+10	1	-1E+10	1	-1E+10	1	-1E+10	1	-1E+10	1
4901784	187	C	08/17/2020	10:48	-132.532	43.156	0	569.70	0	4.7160	0	36.5250	8	28.924	0	564.395	0	23.1	4	7.6	4	-1E+10	1	-1E+10	1	-1E+10	1	-1E+10	1	-1E+10	1	-1E+10	1
4901784	187	C	08/17/2020	10:48	-132.532	43.156	0	574.80	0	4.7010	0	36.5310	8	28.931	0	569.440	0	22.4	4	7.3	4	-1E+10	1	-1E+10	1	-1E+10	1	-1E+10	1	-1E+10	1	-1E+10	1
4901784	187	C	08/17/2020	10:48	-132.532	43.156	0	579.90	0	4.6900	0	36.5340	8	28.935	0	574.486	0	21.8	4	7.1	4	-1E+10	1	-1E+10	1	-1E+10	1	-1E+10	1	-1E+10	1	-1E+10	1
4901784	187	C	08/17/2020	10:48	-132.532	43.156	0	585.10	0	4.6800	0	36.5400	8	28.941	0	579.630	0	21.1	4	6.9	4	-1E+10	1	-1E+10	1	-1E+10	1	-1E+10	1	-1E+10	1	-1E+10	1
4901784	187	C	08/17/2020	10:48	-132.532	43.156	0	590.20	0	4.6690	0	36.5420	8	28.944	0	584.675	0	20.5	4	6.7	4	-1E+10	1	-1E+10	1	-1E+10	1	-1E+10	1	-1E+10	1	-1E+10	1
4901784	187	C	08/17/2020	10:48	-132.532	43.156	0	595.40	0	4.6310	0	36.5520	8	28.956	0	589.819	0	19.6	4	6.4	4	-1E+10	1	-1E+10	1	-1E+10	1	-1E+10	1	-1E+10	1	-1E+10	1
4901784	187	C	08/17/2020	10:48	-132.532	43.156	0	600.60	0	4.6160	0	36.5570	8	28.962	0	594.963	0	19.1	4	6.2	4	-1E+10	1	-1E+10	1	-1E+10	1	-1E+10	1	-1E+10	1	-1E+10	1
4901784	187	C	08/17/2020	10:48	-132.532	43.156	0	605.00	0	4.6030	0	36.5620	8	28.967	0	599.315	0	18.8	4	6.1	4	-1E+10	1	-1E+10	1	-1E+10	1	-1E+10	1	-1E+10	1	-1E+10	1
4901784	187	C	08/17/2020	10:48	-132.532	43.156	0	609.30	0	4.6000	0	36.5630	8	28.968	0	603.569	0	18.5	4	6.0	4	-1E+10	1	-1E+10	1	-1E+10	1	-1E+10	1	-1E+10	1	-1E+10	1
4901784	187	C	08/17/2020	10:48	-132.532	43.156	0	614.40	0	4.5880	0	36.5670	8	28.973	0	608.613	0	17.9	4	5.8	4	-1E+10	1	-1E+10	1	-1E+10	1	-1E+10	1	-1E+10	1	-1E+10	1
4901784	187	C	08/17/2020	10:48	-132.532	43.156	0	619.60	0	4.5600	0	36.5730	8	28.981	0	613.757	0	17.4	4	5.7	4	-1E+10	1	-1E+10	1	-1E+10	1	-1E+10	1	-1E+10	1	-1E+10	1
4901784	187	C	08/17/2020	10:48	-132.532	43.156	0	624.70	0	4.5380	0	36.5790	8	28.988	0	618.801	0	17.1	4	5.6	4	-1E+10	1	-1E+10	1	-1E+10	1	-1E+10	1	-1E+10	1	-1E+10	1
4901784	187	C	08/17/2020	10:48	-132.532	43.156	0	629.80	0	4.5150	0	36.5810	8	28.993	0	623.845	0	17.0	4	5.5	4	-1E+10	1	-1E+10	1	-1E+10	1	-1E+10	1	-1E+10	1	-1E+10	1
4901784	187	C	08/17/2020	10:48	-132.532	43.156	0	634.90	0	4.4810	0	36.5840	8	28.999	0	628.889	0	16.8	4	5.5	4	-1E+10	1	-1E+10	1	-1E+10	1	-1E+10	1	-1E+10	1	-1E+10	1
4901784	187	C	08/17/2020	10:48	-132.532	43.156	0	639.90	0	4.4670	0	36.5850	8	29.001	0	633.834	0	16.6	4	5.4	4	-1E+10	1	-1E+10	1	-1E+10	1	-1E+10	1	-1E+10	1	-1E+10	1
4901784	187	C	08/17/2020	10:48	-132.532	43.156	0	645.00	0	4.4120	0	36.5890	8	29.011	0	638.878	0	16.4	4	5.3	4	-1E+10	1	-1E+10	1	-1E+10	1	-1E+10	1	-1E+10	1	-1E+10	1
4901784	187	C	08/17/2020	10:48	-132.532	43.156	0	650.10	0	4.4070	0	36.5920	8	29.014	0	643.922	0	16.0	4	5.2	4	-1E+10	1	-1E+10	1	-1E+10	1	-1E+10	1	-1E+10	1	-1E+10	1
4901784	187	C	08/17/2020	10:48	-132.532	43.156	0	655.20	0	4.4070	0	36.5970	8	29.018	0	648.966	0	15.6	4	5.1	4	-1E+10	1	-1E+10	1	-1E+10	1	-1E+10	1	-1E+10	1	-1E+10	1
4901784	187	C	08/17/2020	10:48	-132.532	43.156	0	660.20	0	4.3700	0	36.6010	8	29.025	0	653.910	0	15.4	4	5.0	4	-1E+10	1	-1E+10	1	-1E+10	1	-1E+10	1	-1E+10	1	-1E+10	1
4901784	187	C	08/17/2020	10:48	-132.532	43.156	0	665.10	0	4.3520	0	36.6040	8	29.030	0	658.756	0	15.3	4	4.9	4	-1E+10	1	-1E+10	1	-1E+10	1	-1E+10	1	-1E+10	1	-1E+10	1
4901784	187	C	08/17/2020	10:48	-132.532	43.156	0	670.10	0	4.3220	0	36.6060	8	29.035	0	663.700	0	15.0	4	4.9	4	-1E+10	1	-1E+10	1	-1E+10	1	-1E+10	1	-1E+10	1	-1E+10	1
4901784	187	C	08/17/2020	10:48	-132.532	43.156	0	675.10	0	4.3000	0	36.6110	8	29.041	0	668.644	0	14.7	4	4.8	4	-1E+10	1	-1E+10	1	-1E+10	1	-1E+10	1	-1E+10	1	-1E+10	1
4901784	187	C	08/17/2020	10:48	-132.532	43.156	0	680.10	0	4.2850	0	36.6160	8	29.047	0	673.588	0	14.5	4	4.7	4	-1E+10	1	-1E+10	1	-1E+10	1	-1E+10	1	-1E+10	1	-1E+10	1
4901784	187	C	08/17/2020	10:48	-132.532	43.156	0	685.10	0	4.2730	0	36.6170	8	29.049	0	678.532	0	14.3	4	4.6	4	-1E+10	1	-1E+10	1	-1E+10	1	-1E+10	1	-1E+10	1	-1E+10	1
4901784	187	C	08/17/2020	10:48	-132.532	43.156	0	690.00	0	4.2530	0	36.6200	8	29.054	0	683.377	0	14.1	4	4.6	4	-1E+10	1	-1E+10	1	-1E+10	1	-1E+10	1	-1E+10	1	-1E+10	1
4901784	187	C	08/17/2020	10:48	-132.532	43.156	0	695.00	0	4.2380	0	36.6240	8	29.059	0	688.321	0	13.8	4	4.5	4	-1E+10	1	-1E+10	1	-1E+10	1	-1E+10	1	-1E+10	1	-1E+10	1
4901784	187	C	08/17/2020	10:48	-132.532	43.156	0	699.90	0	4.2020	0	36.6300	8	29.068	0	693.166	0	13.5	4	4.4	4	-1E+10	1	-1E+10	1	-1E+10	1	-1E+10	1	-1E+10	1	-1E+10	1
4901784	187	C	08/17/2020	10:48	-132.532	43.156	0	704.80	0	4.1790	0	36.6330	8	29.073	0	698.011	0	13.4	4	4.3	4	-1E+10	1	-1E+10	1	-1E+10	1	-1E+10	1	-1E+10	1	-1E+10	1
4901784	187	C	08/17/2020	10:48	-132.532	43.156	0	709.90	0	4.1460	0	36.6390	8	29.081	0	703.053	0	13.2	4	4.3	4	-1E+10	1	-1E+10	1	-1E+10	1	-1E+10	1	-1E+10	1	-1E+10	1
4901784	187	C	08/17/2020	10:48	-132.532	43.156	0	714.90	0	4.1360	0	36.6420	8	29.085	0	707.996	0	13.0	4	4.2	4	-1E+10	1	-1E+10	1	-1E+10	1	-1E+10	1	-1E+10	1	-1E+10	1
4901784	187	C	08/17/2020	10:48	-132.532	43.156	0	720.00	0	4.1110	0	36.6450	8	29.090	0	713.038	0	12.9	4	4.1	4	-1E+10	1	-1E+10	1	-1E+10	1	-1E+10	1	-1E+10	1	-1E+10	1
4901784	187	C	08/17/2020	10:48	-132.532	43.156	0	725.10	0	4.0940	0	36.6500	8	29.096	0	718.080	0	12.7	4	4.1	4	-1E+10	1	-1E+10	1	-1E+10	1	-1E+10	1	-1E+10	1	-1E+10	1
4901784	187	C	08/17/2020	10:48	-132.532	43.156	0	730.20	0	4.0800	0	36.6540	8	29.100	0	723.122	0	12.5	4	4.0	4	-1E+10	1	-1E+10	1	-1E+10	1	-1E+10	1	-1E+10	1	-1E+10	1
4901784	187	C	08/17/2020	10:48	-132.532	43.156	0	735.30	0	4.0610	0	36.6590	8	29.106	0	728.164	0	12.3	4	4.0	4	-1E+10	1	-1E+10	1	-1E+10	1	-1E+10	1	-1E+10	1	-1E+10	1
4901784	187	C	08/17/2020	10:48	-132.532	43.156	0	740.40	0	4.0480	0	36.6640	8	29.112	0	733.205	0	12.2	4	3.9	4	-1E+10	1	-1E+10	1	-1E+10	1	-1E+10	1	-1E+10	1	-1E+10	1
4901784	187	C	08/17/2020	10:48	-132.532	43.156	0	745.50	0	4.0370	0	36.6670	8	29.115	0	738.247	0	12.0	4	3.9	4	-1E+10	1	-1E+10	1	-1E+10	1	-1E+10	1	-1E+10	1	-1E+10	1
4901784	187	C	08/17/2020	10:48	-132.532	43.156	0	750.70	0	4.0170	0	36.6740	8	29.123	0	743.387	0	11.8	4	3.8	4	-1E+10	1	-1E+10	1	-1E+10	1	-1E+10	1	-1E+10	1	-1E+10	1
4901784	187	C	08/17/2020	10:48	-132.532	43.156	0	755.10	0	4.0070	0	36.6770	8	29.127	0	747.736	0	11.7	4	3.8	4	-1E+10	1	-1E+10	1	-1E+10	1	-1E+10	1	-1E+10	1	-1E+10	1
4901784	187	C	08/17/2020	10:48	-132.532	43.156	0	759.50	0	4.0000	0	36.6790	8	29.129	0	752.085	0	11.6	4	3.7	4	-1E+10	1	-1E+10	1	-1E+10	1	-1E+10	1	-1E+10	1	-1E+10	1
4901784	187	C	08/17/2020	10:48	-132.532	43.156	0	765.60	0	3.9890	0	36.6820	8	29.133	0	758.114	0	11.5	4	3.7	4	-1E+10	1	-1E+10	1	-1E+10	1	-1E+10	1	-1E+10	1	-1E+10	1
4901784	187	C	08/17/2020	10:48	-132.532	43.156	0	770.60	0	3.9780	0	36.6870	8	29.138	0	763.056	0	11.4	4	3.7	4	-1E+10	1	-1E+10	1	-1E+10	1	-1E+10	1	-1E+10	1	-1E+10	1
4901784	187	C	08/17/2020	10:48	-132.532	43.156	0	775.30	0	3.9720	0	36.6890	8	29.140	0	767.702	0	11.3	4	3.6	4	-1E+10	1	-1E+10	1	-1E+10	1	-1E+10	1	-1E+10	1	-1E+10	1
4901784	187	C	08/17/2020	10:48	-132.532	43.156	0	780.10	0	3.9580	0	36.6920	8	29.144	0	772.446	0	11.2	4	3.6	4	-1E+10	1	-1E+10	1	-1E+10	1	-1E+10	1	-1E+10	1	-1E+10	1
4901784	187	C	08/17/2020	10:48	-132.532	43.156	0	785.00	0	3.9480	0	36.6930	8	29.146	0	777.289	0	11.1	4	3.6	4	-1E+10	1	-1E+10	1	-1E+10	1	-1E+10	1	-1E+10	1	-1E+10	1
4901784	187	C	08/17/2020	10:48	-132.532	43.156	0	789.80	0	3.9230	0	36.6980	8	29.153	0	782.033	0	11.0	4	3.5	4	-1E+10	1	-1E+10	1	-1E+10	1	-1E+10	1	-1E+10	1	-1E+10	1
4901784	187	C	08/17/2020	10:48	-132.532	43.156	0	794.70	0	3.9030	0	36.7020	8	29.158	0	786.875	0	11.0	4	3.5	4	-1E+10	1	-1E+10	1	-1E+10	1	-1E+10	1	-1E+10	1	-1E+10	1
4901784	187	C	08/17/2020	10:48	-132.532	43.156	0	799.70	0	3.8890	0	36.7050	8	29.162	0	791.816	0	10.9	4	3.5	4	-1E+10	1	-1E+10	1	-1E+10	1	-1E+10	1	-1E+10	1	-1E+10	1
4901784	187	C	08/17/2020	10:48	-132.532	43.156	0	804.70	0	3.8830	0	36.7090	8	29.166	0	796.758	0	10.8	4	3.5	4	-1E+10	1	-1E+10	1	-1E+10	1	-1E+10	1	-1E+10	1	-1E+10	1
4901784	187	C	08/17/2020	10:48	-132.532	43.156	0	809.80	0	3.8710	0	36.7120	8	29.170	0	801.797	0	10.7	4	3.4	4	-1E+10	1	-1E+10	1	-1E+10	1	-1E+10	1	-1E+10	1	-1E+10	1
4901784	187	C	08/17/2020	10:48	-132.532	43.156	0	814.80	0	3.8550	0	36.7150	8	29.174	0	806.738	0	10.6	4	3.4	4	-1E+10	1	-1E+10	1	-1E+10	1	-1E+10	1	-1E+10	1	-1E+10	1
4901784	187	C	08/17/2020	10:48	-132.532	43.156	0	819.90	0	3.8400	0	36.7190	8	29.179	0	811.778	0	10.5	4	3.4	4	-1E+10	1	-1E+10	1	-1E+10	1	-1E+10	1	-1E+10	1	-1E+10	1
4901784	187	C	08/17/2020	10:48	-132.532	43.156	0	825.00	0	3.8230	0	36.7230	8	29.184	0	816.818	0	10.5	4	3.4	4	-1E+10	1	-1E+10	1	-1E+10	1	-1E+10	1	-1E+10	1	-1E+10	1
4901784	187	C	08/17/2020	10:48	-132.532	43.156	0	830.30	0	3.8120	0	36.7260	8	29.187	0	822.055	0	10.4	4	3.3	4	-1E+10	1	-1E+10	1	-1E+10	1	-1E+10	1	-1E+10	1	-1E+10	1
4901784	187	C	08/17/2020	10:48	-132.532	43.156	0	835.60	0	3.8010	0	36.7290	8	29.191	0	827.291	0	10.4	4	3.3	4	-1E+10	1	-1E+10	1	-1E+10	1	-1E+10	1	-1E+10	1	-1E+10	1
4901784	187	C	08/17/2020	10:48	-132.532	43.156	0	840.10	0	3.7930	0	36.7320	8	29.194	0	831.738	0	10.3	4	3.3	4	-1E+10	1	-1E+10	1	-1E+10	1	-1E+10	1	-1E+10	1	-1E+10	1
4901784	187	C	08/17/2020	10:48	-132.532	43.156	0	844.60	0	3.7840	0	36.7350	8	29.198	0	836.184	0	10.3	4	3.3	4	-1E+10	1	-1E+10	1	-1E+10	1	-1E+10	1	-1E+10	1	-1E+10	1
4901784	187	C	08/17/2020	10:48	-132.532	43.156	0	849.90	0	3.7760	0	36.7370	8	29.200	0	841.421	0	10.2	4	3.3	4	-1E+10	1	-1E+10	1	-1E+10	1	-1E+10	1	-1E+10	1	-1E+10	1
4901784	187	C	08/17/2020	10:48	-132.532	43.156	0	855.40	0	3.7650	0	36.7400	8	29.204	0	846.855	0	10.2	4	3.3	4	-1E+10	1	-1E+10	1	-1E+10	1	-1E+10	1	-1E+10	1	-1E+10	1
4901784	187	C	08/17/2020	10:48	-132.532	43.156	0	860.00	0	3.7580	0	36.7420	8	29.206	0	851.399	0	10.2	4	3.3	4	-1E+10	1	-1E+10	1	-1E+10	1	-1E+10	1	-1E+10	1	-1E+10	1
4901784	187	C	08/17/2020	10:48	-132.532	43.156	0	864.50	0	3.7460	0	36.7450	8	29.210	0	855.845	0	10.1	4	3.2	4	-1E+10	1	-1E+10	1	-1E+10	1	-1E+10	1	-1E+10	1	-1E+10	1
4901784	187	C	08/17/2020	10:48	-132.532	43.156	0	870.00	0	3.7360	0	36.7480	8	29.213	0	861.279	0	10.1	4	3.2	4	-1E+10	1	-1E+10	1	-1E+10	1	-1E+10	1	-1E+10	1	-1E+10	1
4901784	187	C	08/17/2020	10:48	-132.532	43.156	0	875.60	0	3.7190	0	36.7530	8	29.219	0	866.811	0	10.0	4	3.2	4	-1E+10	1	-1E+10	1	-1E+10	1	-1E+10	1	-1E+10	1	-1E+10	1
4901784	187	C	08/17/2020	10:48	-132.532	43.156	0	880.20	0	3.7060	0	36.7560	8	29.223	0	871.355	0	10.0	4	3.2	4	-1E+10	1	-1E+10	1	-1E+10	1	-1E+10	1	-1E+10	1	-1E+10	1
4901784	187	C	08/17/2020	10:48	-132.532	43.156	0	884.80	0	3.6930	0	36.7610	8	29.228	0	875.899	0	10.0	4	3.2	4	-1E+10	1	-1E+10	1	-1E+10	1	-1E+10	1	-1E+10	1	-1E+10	1
4901784	187	C	08/17/2020	10:48	-132.532	43.156	0	889.50	0	3.6850	0	36.7640	8	29.232	0	880.542	0	10.0	4	3.2	4	-1E+10	1	-1E+10	1	-1E+10	1	-1E+10	1	-1E+10	1	-1E+10	1
4901784	187	C	08/17/2020	10:48	-132.532	43.156	0	894.00	0	3.6750	0	36.7660	8	29.234	0	884.987	0	10.0	4	3.2	4	-1E+10	1	-1E+10	1	-1E+10	1	-1E+10	1	-1E+10	1	-1E+10	1
4901784	187	C	08/17/2020	10:48	-132.532	43.156	0	899.40	0	3.6600	0	36.7700	8	29.239	0	890.321	0	10.0	4	3.2	4	-1E+10	1	-1E+10	1	-1E+10	1	-1E+10	1	-1E+10	1	-1E+10	1
4901784	187	C	08/17/2020	10:48	-132.532	43.156	0	905.10	0	3.6540	0	36.7720	8	29.241	0	895.952	0	10.0	4	3.2	4	-1E+10	1	-1E+10	1	-1E+10	1	-1E+10	1	-1E+10	1	-1E+10	1
4901784	187	C	08/17/2020	10:48	-132.532	43.156	0	910.80	0	3.6430	0	36.7740	8	29.244	0	901.582	0	10.0	4	3.2	4	-1E+10	1	-1E+10	1	-1E+10	1	-1E+10	1	-1E+10	1	-1E+10	1
4901784	187	C	08/17/2020	10:48	-132.532	43.156	0	915.00	0	3.6260	0	36.7780	8	29.249	0	905.730	0	10.0	4	3.2	4	-1E+10	1	-1E+10	1	-1E+10	1	-1E+10	1	-1E+10	1	-1E+10	1
4901784	187	C	08/17/2020	10:48	-132.532	43.156	0	919.20	0	3.6140	0	36.7800	8	29.252	0	909.878	0	10.0	4	3.2	4	-1E+10	1	-1E+10	1	-1E+10	1	-1E+10	1	-1E+10	1	-1E+10	1
4901784	187	C	08/17/2020	10:48	-132.532	43.156	0	924.30	0	3.6040	0	36.7840	8	29.256	0	914.916	0	10.0	4	3.2	4	-1E+10	1	-1E+10	1	-1E+10	1	-1E+10	1	-1E+10	1	-1E+10	1
4901784	187	C	08/17/2020	10:48	-132.532	43.156	0	929.40	0	3.5910	0	36.7880	8	29.261	0	919.953	0	10.0	4	3.2	4	-1E+10	1	-1E+10	1	-1E+10	1	-1E+10	1	-1E+10	1	-1E+10	1
4901784	187	C	08/17/2020	10:48	-132.532	43.156	0	934.60	0	3.5840	0	36.7890	8	29.262	0	925.088	0	10.1	4	3.2	4	-1E+10	1	-1E+10	1	-1E+10	1	-1E+10	1	-1E+10	1	-1E+10	1
4901784	187	C	08/17/2020	10:48	-132.532	43.156	0	939.80	0	3.5710	0	36.7930	8	29.267	0	930.224	0	10.1	4	3.2	4	-1E+10	1	-1E+10	1	-1E+10	1	-1E+10	1	-1E+10	1	-1E+10	1
4901784	187	C	08/17/2020	10:48	-132.532	43.156	0	945.00	0	3.5570	0	36.7960	8	29.271	0	935.359	0	10.1	4	3.2	4	-1E+10	1	-1E+10	1	-1E+10	1	-1E+10	1	-1E+10	1	-1E+10	1
4901784	187	C	08/17/2020	10:48	-132.532	43.156	0	950.40	0	3.5430	0	36.8000	8	29.276	0	940.692	0	10.2	4	3.2	4	-1E+10	1	-1E+10	1	-1E+10	1	-1E+10	1	-1E+10	1	-1E+10	1
4901784	187	C	08/17/2020	10:48	-132.532	43.156	0	954.80	0	3.5340	0	36.8030	8	29.279	0	945.037	0	10.2	4	3.3	4	-1E+10	1	-1E+10	1	-1E+10	1	-1E+10	1	-1E+10	1	-1E+10	1
4901784	187	C	08/17/2020	10:48	-132.532	43.156	0	959.20	0	3.5180	0	36.8060	8	29.283	0	949.382	0	10.2	4	3.3	4	-1E+10	1	-1E+10	1	-1E+10	1	-1E+10	1	-1E+10	1	-1E+10	1
4901784	187	C	08/17/2020	10:48	-132.532	43.156	0	964.60	0	3.5050	0	36.8090	8	29.287	0	954.715	0	10.3	4	3.3	4	-1E+10	1	-1E+10	1	-1E+10	1	-1E+10	1	-1E+10	1	-1E+10	1
4901784	187	C	08/17/2020	10:48	-132.532	43.156	0	969.90	0	3.5000	0	36.8110	8	29.289	0	959.948	0	10.3	4	3.3	4	-1E+10	1	-1E+10	1	-1E+10	1	-1E+10	1	-1E+10	1	-1E+10	1
4901784	187	C	08/17/2020	10:48	-132.532	43.156	0	975.20	0	3.4940	0	36.8120	8	29.290	0	965.182	0	10.4	4	3.3	4	-1E+10	1	-1E+10	1	-1E+10	1	-1E+10	1	-1E+10	1	-1E+10	1
4901784	187	C	08/17/2020	10:48	-132.532	43.156	0	980.60	0	3.4850	0	36.8150	8	29.294	0	970.513	0	10.4	4	3.3	4	-1E+10	1	-1E+10	1	-1E+10	1	-1E+10	1	-1E+10	1	-1E+10	1
4901784	187	C	08/17/2020	10:48	-132.532	43.156	0	985.00	0	3.4740	0	36.8170	8	29.296	0	974.858	0	10.5	4	3.3	4	-1E+10	1	-1E+10	1	-1E+10	1	-1E+10	1	-1E+10	1	-1E+10	1
4901784	187	C	08/17/2020	10:48	-132.532	43.156	0	989.50	0	3.4660	0	36.8190	8	29.299	0	979.301	0	10.5	4	3.3	4	-1E+10	1	-1E+10	1	-1E+10	1	-1E+10	1	-1E+10	1	-1E+10	1
4901784	187	C	08/17/2020	10:48	-132.532	43.156	0	994.90	0	3.4560	0	36.8210	8	29.302	0	984.633	0	10.6	4	3.4	4	-1E+10	1	-1E+10	1	-1E+10	1	-1E+10	1	-1E+10	1	-1E+10	1
4901784	187	C	08/17/2020	10:48	-132.532	43.156	0	1000.40	0	3.4400	0	36.8240	8	29.306	0	990.063	0	10.6	4	3.4	4	-1E+10	1	-1E+10	1	-1E+10	1	-1E+10	1	-1E+10	1	-1E+10	1
4901784	187	C	08/17/2020	10:48	-132.532	43.156	0	1005.00	0	3.4300	0	36.8270	8	29.309	0	994.605	0	10.7	4	3.4	4	-1E+10	1	-1E+10	1	-1E+10	1	-1E+10	1	-1E+10	1	-1E+10	1
4901784	187	C	08/17/2020	10:48	-132.532	43.156	0	1009.70	0	3.4220	0	36.8290	8	29.312	0	999.245	0	10.8	4	3.4	4	-1E+10	1	-1E+10	1	-1E+10	1	-1E+10	1	-1E+10	1	-1E+10	1
4901784	187	C	08/17/2020	10:48	-132.532	43.156	0	1015.30	0	3.4140	0	36.8320	8	29.315	0	1004.773	0	10.9	4	3.5	4	-1E+10	1	-1E+10	1	-1E+10	1	-1E+10	1	-1E+10	1	-1E+10	1
4901784	187	C	08/17/2020	10:48	-132.532	43.156	0	1020.00	0	3.4000	0	36.8360	8	29.319	0	1009.413	0	11.0	4	3.5	4	-1E+10	1	-1E+10	1	-1E+10	1	-1E+10	1	-1E+10	1	-1E+10	1
4901784	187	C	08/17/2020	10:48	-132.532	43.156	0	1024.70	0	3.3910	0	36.8380	8	29.322	0	1014.053	0	11.1	4	3.5	4	-1E+10	1	-1E+10	1	-1E+10	1	-1E+10	1	-1E+10	1	-1E+10	1
4901784	187	C	08/17/2020	10:48	-132.532	43.156	0	1030.40	0	3.3780	0	36.8410	8	29.326	0	1019.680	0	11.2	4	3.6	4	-1E+10	1	-1E+10	1	-1E+10	1	-1E+10	1	-1E+10	1	-1E+10	1
4901784	187	C	08/17/2020	10:48	-132.532	43.156	0	1035.20	0	3.3620	0	36.8440	8	29.330	0	1024.418	0	11.3	4	3.6	4	-1E+10	1	-1E+10	1	-1E+10	1	-1E+10	1	-1E+10	1	-1E+10	1
4901784	187	C	08/17/2020	10:48	-132.532	43.156	0	1040.00	0	3.3520	0	36.8460	8	29.332	0	1029.157	0	11.4	4	3.6	4	-1E+10	1	-1E+10	1	-1E+10	1	-1E+10	1	-1E+10	1	-1E+10	1
4901784	187	C	08/17/2020	10:48	-132.532	43.156	0	1044.70	0	3.3400	0	36.8490	8	29.336	0	1033.796	0	11.5	4	3.6	4	-1E+10	1	-1E+10	1	-1E+10	1	-1E+10	1	-1E+10	1	-1E+10	1
4901784	187	C	08/17/2020	10:48	-132.532	43.156	0	1049.50	0	3.3270	0	36.8520	8	29.340	0	1038.534	0	11.6	4	3.7	4	-1E+10	1	-1E+10	1	-1E+10	1	-1E+10	1	-1E+10	1	-1E+10	1
4901784	187	C	08/17/2020	10:48	-132.532	43.156	0	1055.10	0	3.3170	0	36.8530	8	29.342	0	1044.062	0	11.6	4	3.7	4	-1E+10	1	-1E+10	1	-1E+10	1	-1E+10	1	-1E+10	1	-1E+10	1
4901784	187	C	08/17/2020	10:48	-132.532	43.156	0	1060.50	0	3.3050	0	36.8550	8	29.344	0	1049.392	0	11.7	4	3.7	4	-1E+10	1	-1E+10	1	-1E+10	1	-1E+10	1	-1E+10	1	-1E+10	1
4901784	187	C	08/17/2020	10:48	-132.532	43.156	0	1065.50	0	3.2980	0	36.8560	8	29.346	0	1054.327	0	11.8	4	3.7	4	-1E+10	1	-1E+10	1	-1E+10	1	-1E+10	1	-1E+10	1	-1E+10	1
4901784	187	C	08/17/2020	10:48	-132.532	43.156	0	1070.40	0	3.2830	0	36.8600	8	29.351	0	1059.163	0	11.9	4	3.8	4	-1E+10	1	-1E+10	1	-1E+10	1	-1E+10	1	-1E+10	1	-1E+10	1
4901784	187	C	08/17/2020	10:48	-132.532	43.156	0	1075.50	0	3.2750	0	36.8610	8	29.352	0	1064.197	0	12.0	4	3.8	4	-1E+10	1	-1E+10	1	-1E+10	1	-1E+10	1	-1E+10	1	-1E+10	1
4901784	187	C	08/17/2020	10:48	-132.532	43.156	0	1080.50	0	3.2660	0	36.8630	8	29.355	0	1069.131	0	12.1	4	3.8	4	-1E+10	1	-1E+10	1	-1E+10	1	-1E+10	1	-1E+10	1	-1E+10	1
4901784	187	C	08/17/2020	10:48	-132.532	43.156	0	1085.40	0	3.2570	0	36.8650	8	29.357	0	1073.967	0	12.2	4	3.9	4	-1E+10	1	-1E+10	1	-1E+10	1	-1E+10	1	-1E+10	1	-1E+10	1
4901784	187	C	08/17/2020	10:48	-132.532	43.156	0	1090.40	0	3.2500	0	36.8670	8	29.360	0	1078.902	0	12.2	4	3.9	4	-1E+10	1	-1E+10	1	-1E+10	1	-1E+10	1	-1E+10	1	-1E+10	1
4901784	187	C	08/17/2020	10:48	-132.532	43.156	0	1095.40	0	3.2460	0	36.8680	8	29.361	0	1083.836	0	12.3	4	3.9	4	-1E+10	1	-1E+10	1	-1E+10	1	-1E+10	1	-1E+10	1	-1E+10	1
4901784	187	C	08/17/2020	10:48	-132.532	43.156	0	1100.40	0	3.2410	0	36.8690	8	29.362	0	1088.770	0	12.4	4	3.9	4	-1E+10	1	-1E+10	1	-1E+10	1	-1E+10	1	-1E+10	1	-1E+10	1
4901784	187	C	08/17/2020	10:48	-132.532	43.156	0	1105.40	0	3.2330	0	36.8700	8	29.364	0	1093.705	0	12.5	4	3.9	4	-1E+10	1	-1E+10	1	-1E+10	1	-1E+10	1	-1E+10	1	-1E+10	1
4901784	187	C	08/17/2020	10:48	-132.532	43.156	0	1110.50	0	3.2250	0	36.8720	8	29.366	0	1098.737	0	12.6	4	4.0	4	-1E+10	1	-1E+10	1	-1E+10	1	-1E+10	1	-1E+10	1	-1E+10	1
4901784	187	C	08/17/2020	10:48	-132.532	43.156	0	1115.80	0	3.2100	0	36.8750	8	29.370	0	1103.967	0	12.7	4	4.0	4	-1E+10	1	-1E+10	1	-1E+10	1	-1E+10	1	-1E+10	1	-1E+10	1
4901784	187	C	08/17/2020	10:48	-132.532	43.156	0	1120.10	0	3.2050	0	36.8760	8	29.372	0	1108.210	0	12.8	4	4.1	4	-1E+10	1	-1E+10	1	-1E+10	1	-1E+10	1	-1E+10	1	-1E+10	1
4901784	187	C	08/17/2020	10:48	-132.532	43.156	0	1124.70	0	3.1960	0	36.8780	8	29.374	0	1112.749	0	13.0	4	4.1	4	-1E+10	1	-1E+10	1	-1E+10	1	-1E+10	1	-1E+10	1	-1E+10	1
4901784	187	C	08/17/2020	10:48	-132.532	43.156	0	1130.20	0	3.1800	0	36.8810	8	29.378	0	1118.176	0	13.1	4	4.1	4	-1E+10	1	-1E+10	1	-1E+10	1	-1E+10	1	-1E+10	1	-1E+10	1
4901784	187	C	08/17/2020	10:48	-132.532	43.156	0	1134.80	0	3.1770	0	36.8820	8	29.379	0	1122.715	0	13.2	4	4.2	4	-1E+10	1	-1E+10	1	-1E+10	1	-1E+10	1	-1E+10	1	-1E+10	1
4901784	187	C	08/17/2020	10:48	-132.532	43.156	0	1139.40	0	3.1690	0	36.8840	8	29.382	0	1127.254	0	13.3	4	4.2	4	-1E+10	1	-1E+10	1	-1E+10	1	-1E+10	1	-1E+10	1	-1E+10	1
4901784	187	C	08/17/2020	10:48	-132.532	43.156	0	1145.00	0	3.1610	0	36.8850	8	29.383	0	1132.779	0	13.4	4	4.2	4	-1E+10	1	-1E+10	1	-1E+10	1	-1E+10	1	-1E+10	1	-1E+10	1
4901784	187	C	08/17/2020	10:48	-132.532	43.156	0	1150.60	0	3.1470	0	36.8860	8	29.386	0	1138.304	0	13.5	4	4.3	4	-1E+10	1	-1E+10	1	-1E+10	1	-1E+10	1	-1E+10	1	-1E+10	1
4901784	187	C	08/17/2020	10:48	-132.532	43.156	0	1155.20	0	3.1360	0	36.8880	8	29.388	0	1142.842	0	13.7	4	4.3	4	-1E+10	1	-1E+10	1	-1E+10	1	-1E+10	1	-1E+10	1	-1E+10	1
4901784	187	C	08/17/2020	10:48	-132.532	43.156	0	1159.80	0	3.1220	0	36.8910	8	29.392	0	1147.380	0	13.8	4	4.4	4	-1E+10	1	-1E+10	1	-1E+10	1	-1E+10	1	-1E+10	1	-1E+10	1
4901784	187	C	08/17/2020	10:48	-132.532	43.156	0	1165.40	0	3.1130	0	36.8930	8	29.395	0	1152.905	0	14.0	4	4.4	4	-1E+10	1	-1E+10	1	-1E+10	1	-1E+10	1	-1E+10	1	-1E+10	1
4901784	187	C	08/17/2020	10:48	-132.532	43.156	0	1170.10	0	3.1020	0	36.8960	8	29.398	0	1157.542	0	14.2	4	4.5	4	-1E+10	1	-1E+10	1	-1E+10	1	-1E+10	1	-1E+10	1	-1E+10	1
4901784	187	C	08/17/2020	10:48	-132.532	43.156	0	1174.70	0	3.0910	0	36.8970	8	29.400	0	1162.080	0	14.3	4	4.5	4	-1E+10	1	-1E+10	1	-1E+10	1	-1E+10	1	-1E+10	1	-1E+10	1
4901784	187	C	08/17/2020	10:48	-132.532	43.156	0	1180.20	0	3.0780	0	36.9000	8	29.404	0	1167.505	0	14.5	4	4.6	4	-1E+10	1	-1E+10	1	-1E+10	1	-1E+10	1	-1E+10	1	-1E+10	1
4901784	187	C	08/17/2020	10:48	-132.532	43.156	0	1184.90	0	3.0700	0	36.9010	8	29.405	0	1172.142	0	14.6	4	4.6	4	-1E+10	1	-1E+10	1	-1E+10	1	-1E+10	1	-1E+10	1	-1E+10	1
4901784	187	C	08/17/2020	10:48	-132.532	43.156	0	1189.50	0	3.0590	0	36.9020	8	29.407	0	1176.679	0	14.8	4	4.6	4	-1E+10	1	-1E+10	1	-1E+10	1	-1E+10	1	-1E+10	1	-1E+10	1
4901784	187	C	08/17/2020	10:48	-132.532	43.156	0	1195.00	0	3.0420	0	36.9060	8	29.412	0	1182.105	0	14.9	4	4.7	4	-1E+10	1	-1E+10	1	-1E+10	1	-1E+10	1	-1E+10	1	-1E+10	1
4901784	187	C	08/17/2020	10:48	-132.532	43.156	0	1199.70	0	3.0380	0	36.9060	8	29.413	0	1186.741	0	15.0	4	4.7	4	-1E+10	1	-1E+10	1	-1E+10	1	-1E+10	1	-1E+10	1	-1E+10	1
4901784	187	C	08/17/2020	10:48	-132.532	43.156	0	1204.40	0	3.0250	0	36.9080	8	29.416	0	1191.377	0	15.2	4	4.8	4	-1E+10	1	-1E+10	1	-1E+10	1	-1E+10	1	-1E+10	1	-1E+10	1
4901784	187	C	08/17/2020	10:48	-132.532	43.156	0	1210.00	0	3.0150	0	36.9100	8	29.418	0	1196.900	0	15.4	4	4.9	4	-1E+10	1	-1E+10	1	-1E+10	1	-1E+10	1	-1E+10	1	-1E+10	1
4901784	187	C	08/17/2020	10:48	-132.532	43.156	0	1214.70	0	3.0080	0	36.9120	8	29.420	0	1201.536	0	15.6	4	4.9	4	-1E+10	1	-1E+10	1	-1E+10	1	-1E+10	1	-1E+10	1	-1E+10	1
4901784	187	C	08/17/2020	10:48	-132.532	43.156	0	1219.40	0	2.9990	0	36.9140	8	29.423	0	1206.171	0	15.8	4	5.0	4	-1E+10	1	-1E+10	1	-1E+10	1	-1E+10	1	-1E+10	1	-1E+10	1
4901784	187	C	08/17/2020	10:48	-132.532	43.156	0	1225.00	0	2.9890	0	36.9160	8	29.426	0	1211.694	0	15.9	4	5.0	4	-1E+10	1	-1E+10	1	-1E+10	1	-1E+10	1	-1E+10	1	-1E+10	1
4901784	187	C	08/17/2020	10:48	-132.532	43.156	0	1229.70	0	2.9800	0	36.9170	8	29.427	0	1216.330	0	16.0	4	5.0	4	-1E+10	1	-1E+10	1	-1E+10	1	-1E+10	1	-1E+10	1	-1E+10	1
4901784	187	C	08/17/2020	10:48	-132.532	43.156	0	1234.40	0	2.9760	0	36.9180	8	29.428	0	1220.965	0	16.2	4	5.1	4	-1E+10	1	-1E+10	1	-1E+10	1	-1E+10	1	-1E+10	1	-1E+10	1
4901784	187	C	08/17/2020	10:48	-132.532	43.156	0	1240.10	0	2.9670	0	36.9200	8	29.431	0	1226.586	0	16.5	4	5.2	4	-1E+10	1	-1E+10	1	-1E+10	1	-1E+10	1	-1E+10	1	-1E+10	1
4901784	187	C	08/17/2020	10:48	-132.532	43.156	0	1244.90	0	2.9580	0	36.9220	8	29.433	0	1231.320	0	16.8	4	5.3	4	-1E+10	1	-1E+10	1	-1E+10	1	-1E+10	1	-1E+10	1	-1E+10	1
4901784	187	C	08/17/2020	10:48	-132.532	43.156	0	1249.60	0	2.9450	0	36.9240	8	29.436	0	1235.955	0	17.0	4	5.3	4	-1E+10	1	-1E+10	1	-1E+10	1	-1E+10	1	-1E+10	1	-1E+10	1
4901784	187	C	08/17/2020	10:48	-132.532	43.156	0	1255.00	0	2.9370	0	36.9260	8	29.439	0	1241.280	0	17.2	4	5.4	4	-1E+10	1	-1E+10	1	-1E+10	1	-1E+10	1	-1E+10	1	-1E+10	1
4901784	187	C	08/17/2020	10:48	-132.532	43.156	0	1260.40	0	2.9210	0	36.9280	8	29.442	0	1246.605	0	17.4	4	5.5	4	-1E+10	1	-1E+10	1	-1E+10	1	-1E+10	1	-1E+10	1	-1E+10	1
4901784	187	C	08/17/2020	10:48	-132.532	43.156	0	1264.90	0	2.9090	0	36.9300	8	29.445	0	1251.043	0	17.4	4	5.5	4	-1E+10	1	-1E+10	1	-1E+10	1	-1E+10	1	-1E+10	1	-1E+10	1
4901784	187	C	08/17/2020	10:48	-132.532	43.156	0	1269.40	0	2.9010	0	36.9310	8	29.446	0	1255.480	0	17.6	4	5.5	4	-1E+10	1	-1E+10	1	-1E+10	1	-1E+10	1	-1E+10	1	-1E+10	1
4901784	187	C	08/17/2020	10:48	-132.532	43.156	0	1275.00	0	2.8930	0	36.9320	8	29.448	0	1261.002	0	17.8	4	5.6	4	-1E+10	1	-1E+10	1	-1E+10	1	-1E+10	1	-1E+10	1	-1E+10	1
4901784	187	C	08/17/2020	10:48	-132.532	43.156	0	1280.10	0	2.8820	0	36.9340	8	29.451	0	1266.030	0	18.0	4	5.6	4	-1E+10	1	-1E+10	1	-1E+10	1	-1E+10	1	-1E+10	1	-1E+10	1
4901784	187	C	08/17/2020	10:48	-132.532	43.156	0	1284.40	0	2.8740	0	36.9350	8	29.452	0	1270.270	0	18.1	4	5.7	4	-1E+10	1	-1E+10	1	-1E+10	1	-1E+10	1	-1E+10	1	-1E+10	1
4901784	187	C	08/17/2020	10:48	-132.532	43.156	0	1289.20	0	2.8660	0	36.9360	8	29.454	0	1275.003	0	18.3	4	5.8	4	-1E+10	1	-1E+10	1	-1E+10	1	-1E+10	1	-1E+10	1	-1E+10	1
4901784	187	C	08/17/2020	10:48	-132.532	43.156	0	1295.00	0	2.8500	0	36.9390	8	29.458	0	1280.721	0	18.6	4	5.8	4	-1E+10	1	-1E+10	1	-1E+10	1	-1E+10	1	-1E+10	1	-1E+10	1
4901784	187	C	08/17/2020	10:48	-132.532	43.156	0	1300.70	0	2.8380	0	36.9410	8	29.461	0	1286.341	0	18.8	4	5.9	4	-1E+10	1	-1E+10	1	-1E+10	1	-1E+10	1	-1E+10	1	-1E+10	1
4901784	187	C	08/17/2020	10:48	-132.532	43.156	0	1305.70	0	2.8330	0	36.9410	8	29.461	0	1291.270	0	19.0	4	6.0	4	-1E+10	1	-1E+10	1	-1E+10	1	-1E+10	1	-1E+10	1	-1E+10	1
4901784	187	C	08/17/2020	10:48	-132.532	43.156	0	1309.90	0	2.8210	0	36.9430	8	29.464	0	1295.411	0	19.2	4	6.0	4	-1E+10	1	-1E+10	1	-1E+10	1	-1E+10	1	-1E+10	1	-1E+10	1
4901784	187	C	08/17/2020	10:48	-132.532	43.156	0	1314.20	0	2.8110	0	36.9440	8	29.466	0	1299.650	0	19.5	4	6.1	4	-1E+10	1	-1E+10	1	-1E+10	1	-1E+10	1	-1E+10	1	-1E+10	1
4901784	187	C	08/17/2020	10:48	-132.532	43.156	0	1319.30	0	2.7950	0	36.9470	8	29.469	0	1304.678	0	19.7	4	6.2	4	-1E+10	1	-1E+10	1	-1E+10	1	-1E+10	1	-1E+10	1	-1E+10	1
4901784	187	C	08/17/2020	10:48	-132.532	43.156	0	1324.50	0	2.7880	0	36.9480	8	29.471	0	1309.804	0	20.0	4	6.3	4	-1E+10	1	-1E+10	1	-1E+10	1	-1E+10	1	-1E+10	1	-1E+10	1
4901784	187	C	08/17/2020	10:48	-132.532	43.156	0	1329.70	0	2.7740	0	36.9500	8	29.474	0	1314.930	0	20.3	4	6.3	4	-1E+10	1	-1E+10	1	-1E+10	1	-1E+10	1	-1E+10	1	-1E+10	1
4901784	187	C	08/17/2020	10:48	-132.532	43.156	0	1335.00	0	2.7620	0	36.9520	8	29.477	0	1320.155	0	20.5	4	6.4	4	-1E+10	1	-1E+10	1	-1E+10	1	-1E+10	1	-1E+10	1	-1E+10	1
4901784	187	C	08/17/2020	10:48	-132.532	43.156	0	1340.20	0	2.7520	0	36.9540	8	29.479	0	1325.281	0	20.7	4	6.5	4	-1E+10	1	-1E+10	1	-1E+10	1	-1E+10	1	-1E+10	1	-1E+10	1
4901784	187	C	08/17/2020	10:48	-132.532	43.156	0	1345.40	0	2.7410	0	36.9550	8	29.481	0	1330.407	0	21.0	4	6.6	4	-1E+10	1	-1E+10	1	-1E+10	1	-1E+10	1	-1E+10	1	-1E+10	1
4901784	187	C	08/17/2020	10:48	-132.532	43.156	0	1349.90	0	2.7360	0	36.9560	8	29.482	0	1334.842	0	21.2	4	6.6	4	-1E+10	1	-1E+10	1	-1E+10	1	-1E+10	1	-1E+10	1	-1E+10	1
4901784	187	C	08/17/2020	10:48	-132.532	43.156	0	1354.40	0	2.7290	0	36.9570	8	29.484	0	1339.278	0	21.4	4	6.7	4	-1E+10	1	-1E+10	1	-1E+10	1	-1E+10	1	-1E+10	1	-1E+10	1
4901784	187	C	08/17/2020	10:48	-132.532	43.156	0	1359.80	0	2.7160	0	36.9590	8	29.487	0	1344.600	0	21.6	4	6.7	4	-1E+10	1	-1E+10	1	-1E+10	1	-1E+10	1	-1E+10	1	-1E+10	1
4901784	187	C	08/17/2020	10:48	-132.532	43.156	0	1365.20	0	2.7080	0	36.9600	8	29.488	0	1349.922	0	21.7	4	6.8	4	-1E+10	1	-1E+10	1	-1E+10	1	-1E+10	1	-1E+10	1	-1E+10	1
4901784	187	C	08/17/2020	10:48	-132.532	43.156	0	1369.80	0	2.7030	0	36.9610	8	29.490	0	1354.456	0	21.9	4	6.8	4	-1E+10	1	-1E+10	1	-1E+10	1	-1E+10	1	-1E+10	1	-1E+10	1
4901784	187	C	08/17/2020	10:48	-132.532	43.156	0	1374.40	0	2.6940	0	36.9620	8	29.491	0	1358.990	0	22.1	4	6.9	4	-1E+10	1	-1E+10	1	-1E+10	1	-1E+10	1	-1E+10	1	-1E+10	1
4901784	187	C	08/17/2020	10:48	-132.532	43.156	0	1380.00	0	2.6860	0	36.9630	8	29.493	0	1364.509	0	22.3	4	7.0	4	-1E+10	1	-1E+10	1	-1E+10	1	-1E+10	1	-1E+10	1	-1E+10	1
4901784	187	C	08/17/2020	10:48	-132.532	43.156	0	1385.60	0	2.6760	0	36.9650	8	29.495	0	1370.028	0	22.6	4	7.1	4	-1E+10	1	-1E+10	1	-1E+10	1	-1E+10	1	-1E+10	1	-1E+10	1
4901784	187	C	08/17/2020	10:48	-132.532	43.156	0	1390.20	0	2.6690	0	36.9660	8	29.497	0	1374.561	0	22.8	4	7.1	4	-1E+10	1	-1E+10	1	-1E+10	1	-1E+10	1	-1E+10	1	-1E+10	1
4901784	187	C	08/17/2020	10:48	-132.532	43.156	0	1394.90	0	2.6640	0	36.9670	8	29.498	0	1379.193	0	23.0	4	7.2	4	-1E+10	1	-1E+10	1	-1E+10	1	-1E+10	1	-1E+10	1	-1E+10	1
4901784	187	C	08/17/2020	10:48	-132.532	43.156	0	1399.60	0	2.6580	0	36.9690	8	29.500	0	1383.825	0	23.2	4	7.2	4	-1E+10	1	-1E+10	1	-1E+10	1	-1E+10	1	-1E+10	1	-1E+10	1
4901784	187	C	08/17/2020	10:48	-132.532	43.156	0	1404.40	0	2.6490	0	36.9690	8	29.501	0	1388.555	0	23.3	4	7.3	4	-1E+10	1	-1E+10	1	-1E+10	1	-1E+10	1	-1E+10	1	-1E+10	1
4901784	187	C	08/17/2020	10:48	-132.532	43.156	0	1410.00	0	2.6420	0	36.9710	8	29.504	0	1394.073	0	23.5	4	7.3	4	-1E+10	1	-1E+10	1	-1E+10	1	-1E+10	1	-1E+10	1	-1E+10	1
4901784	187	C	08/17/2020	10:48	-132.532	43.156	0	1415.50	0	2.6370	0	36.9710	8	29.504	0	1399.493	0	23.7	4	7.4	4	-1E+10	1	-1E+10	1	-1E+10	1	-1E+10	1	-1E+10	1	-1E+10	1
4901784	187	C	08/17/2020	10:48	-132.532	43.156	0	1420.50	0	2.6290	0	36.9730	8	29.506	0	1404.420	0	24.1	4	7.5	4	-1E+10	1	-1E+10	1	-1E+10	1	-1E+10	1	-1E+10	1	-1E+10	1
4901784	187	C	08/17/2020	10:48	-132.532	43.156	0	1425.40	0	2.6170	0	36.9750	8	29.509	0	1409.248	0	24.4	4	7.6	4	-1E+10	1	-1E+10	1	-1E+10	1	-1E+10	1	-1E+10	1	-1E+10	1
4901784	187	C	08/17/2020	10:48	-132.532	43.156	0	1430.40	0	2.6070	0	36.9770	8	29.512	0	1414.174	0	24.7	4	7.7	4	-1E+10	1	-1E+10	1	-1E+10	1	-1E+10	1	-1E+10	1	-1E+10	1
4901784	187	C	08/17/2020	10:48	-132.532	43.156	0	1435.50	0	2.6000	0	36.9780	8	29.513	0	1419.199	0	24.9	4	7.8	4	-1E+10	1	-1E+10	1	-1E+10	1	-1E+10	1	-1E+10	1	-1E+10	1
4901784	187	C	08/17/2020	10:48	-132.532	43.156	0	1440.50	0	2.5910	0	36.9790	8	29.515	0	1424.126	0	25.2	4	7.9	4	-1E+10	1	-1E+10	1	-1E+10	1	-1E+10	1	-1E+10	1	-1E+10	1
4901784	187	C	08/17/2020	10:48	-132.532	43.156	0	1445.50	0	2.5830	0	36.9800	8	29.516	0	1429.052	0	25.5	4	7.9	4	-1E+10	1	-1E+10	1	-1E+10	1	-1E+10	1	-1E+10	1	-1E+10	1
4901784	187	C	08/17/2020	10:48	-132.532	43.156	0	1450.70	0	2.5760	0	36.9810	8	29.518	0	1434.175	0	25.7	4	8.0	4	-1E+10	1	-1E+10	1	-1E+10	1	-1E+10	1	-1E+10	1	-1E+10	1
4901784	187	C	08/17/2020	10:48	-132.532	43.156	0	1455.00	0	2.5680	0	36.9820	8	29.519	0	1438.412	0	26.0	4	8.1	4	-1E+10	1	-1E+10	1	-1E+10	1	-1E+10	1	-1E+10	1	-1E+10	1
4901784	187	C	08/17/2020	10:48	-132.532	43.156	0	1459.30	0	2.5590	0	36.9840	8	29.522	0	1442.648	0	26.3	4	8.2	4	-1E+10	1	-1E+10	1	-1E+10	1	-1E+10	1	-1E+10	1	-1E+10	1
4901784	187	C	08/17/2020	10:48	-132.532	43.156	0	1464.40	0	2.5520	0	36.9850	8	29.523	0	1447.672	0	26.5	4	8.3	4	-1E+10	1	-1E+10	1	-1E+10	1	-1E+10	1	-1E+10	1	-1E+10	1
4901784	187	C	08/17/2020	10:48	-132.532	43.156	0	1469.60	0	2.5440	0	36.9870	8	29.526	0	1452.795	0	26.7	4	8.3	4	-1E+10	1	-1E+10	1	-1E+10	1	-1E+10	1	-1E+10	1	-1E+10	1
4901784	187	C	08/17/2020	10:48	-132.532	43.156	0	1474.80	0	2.5390	0	36.9870	8	29.526	0	1457.918	0	26.9	4	8.4	4	-1E+10	1	-1E+10	1	-1E+10	1	-1E+10	1	-1E+10	1	-1E+10	1
4901784	187	C	08/17/2020	10:48	-132.532	43.156	0	1480.00	0	2.5310	0	36.9880	8	29.528	0	1463.040	0	27.2	4	8.5	4	-1E+10	1	-1E+10	1	-1E+10	1	-1E+10	1	-1E+10	1	-1E+10	1
4901784	187	C	08/17/2020	10:48	-132.532	43.156	0	1485.30	0	2.5220	0	36.9900	8	29.530	0	1468.261	0	27.5	4	8.5	4	-1E+10	1	-1E+10	1	-1E+10	1	-1E+10	1	-1E+10	1	-1E+10	1
4901784	187	C	08/17/2020	10:48	-132.532	43.156	0	1490.50	0	2.5150	0	36.9910	8	29.532	0	1473.383	0	27.7	4	8.6	4	-1E+10	1	-1E+10	1	-1E+10	1	-1E+10	1	-1E+10	1	-1E+10	1
4901784	187	C	08/17/2020	10:48	-132.532	43.156	0	1495.00	0	2.5100	0	36.9920	8	29.533	0	1477.816	0	28.0	4	8.7	4	-1E+10	1	-1E+10	1	-1E+10	1	-1E+10	1	-1E+10	1	-1E+10	1
4901784	187	C	08/17/2020	10:48	-132.532	43.156	0	1499.40	0	2.5010	0	36.9930	8	29.535	0	1482.150	0	28.3	4	8.8	4	-1E+10	1	-1E+10	1	-1E+10	1	-1E+10	1	-1E+10	1	-1E+10	1
4901784	187	C	08/17/2020	10:48	-132.532	43.156	0	1504.80	0	2.4920	0	36.9940	8	29.536	0	1487.469	0	28.6	4	8.9	4	-1E+10	1	-1E+10	1	-1E+10	1	-1E+10	1	-1E+10	1	-1E+10	1
4901784	187	C	08/17/2020	10:48	-132.532	43.156	0	1510.10	0	2.4840	0	36.9950	8	29.538	0	1492.689	0	28.9	4	9.0	4	-1E+10	1	-1E+10	1	-1E+10	1	-1E+10	1	-1E+10	1	-1E+10	1
4901784	187	C	08/17/2020	10:48	-132.532	43.156	0	1515.50	0	2.4740	0	36.9970	8	29.540	0	1498.008	0	29.3	4	9.1	4	-1E+10	1	-1E+10	1	-1E+10	1	-1E+10	1	-1E+10	1	-1E+10	1
4901784	187	C	08/17/2020	10:48	-132.532	43.156	0	1519.90	0	2.4660	0	36.9990	8	29.543	0	1502.341	0	29.5	4	9.2	4	-1E+10	1	-1E+10	1	-1E+10	1	-1E+10	1	-1E+10	1	-1E+10	1
4901784	187	C	08/17/2020	10:48	-132.532	43.156	0	1524.40	0	2.4590	0	37.0000	8	29.544	0	1506.773	0	29.8	4	9.2	4	-1E+10	1	-1E+10	1	-1E+10	1	-1E+10	1	-1E+10	1	-1E+10	1
4901784	187	C	08/17/2020	10:48	-132.532	43.156	0	1529.90	0	2.4510	0	37.0010	8	29.546	0	1512.190	0	30.0	4	9.3	4	-1E+10	1	-1E+10	1	-1E+10	1	-1E+10	1	-1E+10	1	-1E+10	1
4901784	187	C	08/17/2020	10:48	-132.532	43.156	0	1535.40	0	2.4440	0	37.0010	8	29.546	0	1517.606	0	30.3	4	9.4	4	-1E+10	1	-1E+10	1	-1E+10	1	-1E+10	1	-1E+10	1	-1E+10	1
4901784	187	C	08/17/2020	10:48	-132.532	43.156	0	1540.00	0	2.4360	0	37.0030	8	29.549	0	1522.137	0	30.6	4	9.5	4	-1E+10	1	-1E+10	1	-1E+10	1	-1E+10	1	-1E+10	1	-1E+10	1
4901784	187	C	08/17/2020	10:48	-132.532	43.156	0	1544.60	0	2.4270	0	37.0040	8	29.550	0	1526.667	0	31.0	4	9.6	4	-1E+10	1	-1E+10	1	-1E+10	1	-1E+10	1	-1E+10	1	-1E+10	1
4901784	187	C	08/17/2020	10:48	-132.532	43.156	0	1550.10	0	2.4180	0	37.0060	8	29.553	0	1532.083	0	31.3	4	9.7	4	-1E+10	1	-1E+10	1	-1E+10	1	-1E+10	1	-1E+10	1	-1E+10	1
4901784	187	C	08/17/2020	10:48	-132.532	43.156	0	1555.60	0	2.4080	0	37.0070	8	29.555	0	1537.499	0	31.6	4	9.8	4	-1E+10	1	-1E+10	1	-1E+10	1	-1E+10	1	-1E+10	1	-1E+10	1
4901784	187	C	08/17/2020	10:48	-132.532	43.156	0	1560.30	0	2.4000	0	37.0080	8	29.556	0	1542.127	0	31.9	4	9.9	4	-1E+10	1	-1E+10	1	-1E+10	1	-1E+10	1	-1E+10	1	-1E+10	1
4901784	187	C	08/17/2020	10:48	-132.532	43.156	0	1564.90	0	2.3950	0	37.0090	8	29.557	0	1546.657	0	32.2	4	10.0	4	-1E+10	1	-1E+10	1	-1E+10	1	-1E+10	1	-1E+10	1	-1E+10	1
4901784	187	C	08/17/2020	10:48	-132.532	43.156	0	1570.50	0	2.3840	0	37.0100	8	29.559	0	1552.171	0	32.6	4	10.1	4	-1E+10	1	-1E+10	1	-1E+10	1	-1E+10	1	-1E+10	1	-1E+10	1
4901784	187	C	08/17/2020	10:48	-132.532	43.156	0	1575.20	0	2.3800	0	37.0110	8	29.560	0	1556.799	0	32.8	4	10.2	4	-1E+10	1	-1E+10	1	-1E+10	1	-1E+10	1	-1E+10	1	-1E+10	1
4901784	187	C	08/17/2020	10:48	-132.532	43.156	0	1579.90	0	2.3750	0	37.0120	8	29.562	0	1561.427	0	33.1	4	10.3	4	-1E+10	1	-1E+10	1	-1E+10	1	-1E+10	1	-1E+10	1	-1E+10	1
4901784	187	C	08/17/2020	10:48	-132.532	43.156	0	1585.50	0	2.3640	0	37.0140	8	29.564	0	1566.940	0	33.4	4	10.4	4	-1E+10	1	-1E+10	1	-1E+10	1	-1E+10	1	-1E+10	1	-1E+10	1
4901784	187	C	08/17/2020	10:48	-132.532	43.156	0	1590.30	0	2.3610	0	37.0150	8	29.565	0	1571.666	0	33.6	4	10.4	4	-1E+10	1	-1E+10	1	-1E+10	1	-1E+10	1	-1E+10	1	-1E+10	1
4901784	187	C	08/17/2020	10:48	-132.532	43.156	0	1594.90	0	2.3570	0	37.0160	8	29.567	0	1576.195	0	33.8	4	10.5	4	-1E+10	1	-1E+10	1	-1E+10	1	-1E+10	1	-1E+10	1	-1E+10	1
4901784	187	C	08/17/2020	10:48	-132.532	43.156	0	1599.80	0	2.3510	0	37.0170	8	29.568	0	1581.020	0	34.1	4	10.6	4	-1E+10	1	-1E+10	1	-1E+10	1	-1E+10	1	-1E+10	1	-1E+10	1
4901784	187	C	08/17/2020	10:48	-132.532	43.156	0	1604.70	0	2.3440	0	37.0180	8	29.569	0	1585.844	0	34.3	4	10.6	4	-1E+10	1	-1E+10	1	-1E+10	1	-1E+10	1	-1E+10	1	-1E+10	1
4901784	187	C	08/17/2020	10:48	-132.532	43.156	0	1609.70	0	2.3370	0	37.0190	8	29.571	0	1590.766	0	34.6	4	10.7	4	-1E+10	1	-1E+10	1	-1E+10	1	-1E+10	1	-1E+10	1	-1E+10	1
4901784	187	C	08/17/2020	10:48	-132.532	43.156	0	1614.70	0	2.3300	0	37.0200	8	29.572	0	1595.689	0	34.9	4	10.8	4	-1E+10	1	-1E+10	1	-1E+10	1	-1E+10	1	-1E+10	1	-1E+10	1
4901784	187	C	08/17/2020	10:48	-132.532	43.156	0	1619.70	0	2.3270	0	37.0210	8	29.574	0	1600.611	0	35.1	4	10.9	4	-1E+10	1	-1E+10	1	-1E+10	1	-1E+10	1	-1E+10	1	-1E+10	1
4901784	187	C	08/17/2020	10:48	-132.532	43.156	0	1624.70	0	2.3220	0	37.0210	8	29.574	0	1605.533	0	35.3	4	10.9	4	-1E+10	1	-1E+10	1	-1E+10	1	-1E+10	1	-1E+10	1	-1E+10	1
4901784	187	C	08/17/2020	10:48	-132.532	43.156	0	1629.70	0	2.3150	0	37.0220	8	29.575	0	1610.455	0	35.6	4	11.0	4	-1E+10	1	-1E+10	1	-1E+10	1	-1E+10	1	-1E+10	1	-1E+10	1
4901784	187	C	08/17/2020	10:48	-132.532	43.156	0	1634.70	0	2.3080	0	37.0240	8	29.578	0	1615.377	0	35.9	4	11.1	4	-1E+10	1	-1E+10	1	-1E+10	1	-1E+10	1	-1E+10	1	-1E+10	1
4901784	187	C	08/17/2020	10:48	-132.532	43.156	0	1639.80	0	2.3060	0	37.0240	8	29.578	0	1620.397	0	36.1	4	11.2	4	-1E+10	1	-1E+10	1	-1E+10	1	-1E+10	1	-1E+10	1	-1E+10	1
4901784	187	C	08/17/2020	10:48	-132.532	43.156	0	1644.70	0	2.3010	0	37.0250	8	29.579	0	1625.220	0	36.3	4	11.2	4	-1E+10	1	-1E+10	1	-1E+10	1	-1E+10	1	-1E+10	1	-1E+10	1
4901784	187	C	08/17/2020	10:48	-132.532	43.156	0	1649.80	0	2.2920	0	37.0260	8	29.581	0	1630.240	0	36.7	4	11.4	4	-1E+10	1	-1E+10	1	-1E+10	1	-1E+10	1	-1E+10	1	-1E+10	1
4901784	187	C	08/17/2020	10:48	-132.532	43.156	0	1654.80	0	2.2870	0	37.0270	8	29.582	0	1635.162	0	36.9	4	11.4	4	-1E+10	1	-1E+10	1	-1E+10	1	-1E+10	1	-1E+10	1	-1E+10	1
4901784	187	C	08/17/2020	10:48	-132.532	43.156	0	1659.90	0	2.2830	0	37.0280	8	29.583	0	1640.182	0	37.2	4	11.5	4	-1E+10	1	-1E+10	1	-1E+10	1	-1E+10	1	-1E+10	1	-1E+10	1
4901784	187	C	08/17/2020	10:48	-132.532	43.156	0	1665.00	0	2.2780	0	37.0300	8	29.585	0	1645.201	0	37.4	4	11.6	4	-1E+10	1	-1E+10	1	-1E+10	1	-1E+10	1	-1E+10	1	-1E+10	1
4901784	187	C	08/17/2020	10:48	-132.532	43.156	0	1670.10	0	2.2730	0	37.0300	8	29.586	0	1650.221	0	37.6	4	11.6	4	-1E+10	1	-1E+10	1	-1E+10	1	-1E+10	1	-1E+10	1	-1E+10	1
4901784	187	C	08/17/2020	10:48	-132.532	43.156	0	1675.30	0	2.2710	0	37.0310	8	29.587	0	1655.339	0	37.8	4	11.7	4	-1E+10	1	-1E+10	1	-1E+10	1	-1E+10	1	-1E+10	1	-1E+10	1
4901784	187	C	08/17/2020	10:48	-132.532	43.156	0	1680.50	0	2.2700	0	37.0310	8	29.587	0	1660.456	0	38.0	4	11.8	4	-1E+10	1	-1E+10	1	-1E+10	1	-1E+10	1	-1E+10	1	-1E+10	1
4901784	187	C	08/17/2020	10:48	-132.532	43.156	0	1685.70	0	2.2630	0	37.0320	8	29.588	0	1665.574	0	38.4	4	11.9	4	-1E+10	1	-1E+10	1	-1E+10	1	-1E+10	1	-1E+10	1	-1E+10	1
4901784	187	C	08/17/2020	10:48	-132.532	43.156	0	1690.10	0	2.2560	0	37.0340	8	29.591	0	1669.904	0	38.7	4	12.0	4	-1E+10	1	-1E+10	1	-1E+10	1	-1E+10	1	-1E+10	1	-1E+10	1
4901784	187	C	08/17/2020	10:48	-132.532	43.156	0	1694.50	0	2.2510	0	37.0340	8	29.591	0	1674.234	0	38.9	4	12.0	4	-1E+10	1	-1E+10	1	-1E+10	1	-1E+10	1	-1E+10	1	-1E+10	1
4901784	187	C	08/17/2020	10:48	-132.532	43.156	0	1699.80	0	2.2440	0	37.0350	8	29.593	0	1679.450	0	39.3	4	12.1	4	-1E+10	1	-1E+10	1	-1E+10	1	-1E+10	1	-1E+10	1	-1E+10	1
4901784	187	C	08/17/2020	10:48	-132.532	43.156	0	1705.10	0	2.2360	0	37.0360	8	29.594	0	1684.665	0	39.8	4	12.3	4	-1E+10	1	-1E+10	1	-1E+10	1	-1E+10	1	-1E+10	1	-1E+10	1
4901784	187	C	08/17/2020	10:48	-132.532	43.156	0	1710.50	0	2.2250	0	37.0380	8	29.597	0	1689.979	0	40.1	4	12.4	4	-1E+10	1	-1E+10	1	-1E+10	1	-1E+10	1	-1E+10	1	-1E+10	1
4901784	187	C	08/17/2020	10:48	-132.532	43.156	0	1715.00	0	2.2190	0	37.0390	8	29.598	0	1694.407	0	40.4	4	12.5	4	-1E+10	1	-1E+10	1	-1E+10	1	-1E+10	1	-1E+10	1	-1E+10	1
4901784	187	C	08/17/2020	10:48	-132.532	43.156	0	1719.40	0	2.2160	0	37.0400	8	29.599	0	1698.736	0	40.6	4	12.5	4	-1E+10	1	-1E+10	1	-1E+10	1	-1E+10	1	-1E+10	1	-1E+10	1
4901784	187	C	08/17/2020	10:48	-132.532	43.156	0	1724.70	0	2.2110	0	37.0400	8	29.600	0	1703.951	0	40.9	4	12.6	4	-1E+10	1	-1E+10	1	-1E+10	1	-1E+10	1	-1E+10	1	-1E+10	1
4901784	187	C	08/17/2020	10:48	-132.532	43.156	0	1730.10	0	2.2040	0	37.0420	8	29.602	0	1709.265	0	41.4	4	12.8	4	-1E+10	1	-1E+10	1	-1E+10	1	-1E+10	1	-1E+10	1	-1E+10	1
4901784	187	C	08/17/2020	10:48	-132.532	43.156	0	1735.50	0	2.1950	0	37.0430	8	29.603	0	1714.578	0	41.8	4	12.9	4	-1E+10	1	-1E+10	1	-1E+10	1	-1E+10	1	-1E+10	1	-1E+10	1
4901784	187	C	08/17/2020	10:48	-132.532	43.156	0	1739.90	0	2.1890	0	37.0450	8	29.606	0	1718.907	0	42.2	4	13.0	4	-1E+10	1	-1E+10	1	-1E+10	1	-1E+10	1	-1E+10	1	-1E+10	1
4901784	187	C	08/17/2020	10:48	-132.532	43.156	0	1744.50	0	2.1850	0	37.0450	8	29.606	0	1723.433	0	42.5	4	13.1	4	-1E+10	1	-1E+10	1	-1E+10	1	-1E+10	1	-1E+10	1	-1E+10	1
4901784	187	C	08/17/2020	10:48	-132.532	43.156	0	1749.90	0	2.1820	0	37.0460	8	29.607	0	1728.746	0	42.8	4	13.2	4	-1E+10	1	-1E+10	1	-1E+10	1	-1E+10	1	-1E+10	1	-1E+10	1
4901784	187	C	08/17/2020	10:48	-132.532	43.156	0	1755.40	0	2.1710	0	37.0480	8	29.610	0	1734.157	0	43.4	4	13.4	4	-1E+10	1	-1E+10	1	-1E+10	1	-1E+10	1	-1E+10	1	-1E+10	1
4901784	187	C	08/17/2020	10:48	-132.532	43.156	0	1760.00	0	2.1640	0	37.0490	8	29.611	0	1738.682	0	43.9	4	13.5	4	-1E+10	1	-1E+10	1	-1E+10	1	-1E+10	1	-1E+10	1	-1E+10	1
4901784	187	C	08/17/2020	10:48	-132.532	43.156	0	1765.20	0	2.1550	0	37.0500	8	29.613	0	1743.798	0	44.4	4	13.7	4	-1E+10	1	-1E+10	1	-1E+10	1	-1E+10	1	-1E+10	1	-1E+10	1
4901784	187	C	08/17/2020	10:48	-132.532	43.156	0	1770.20	0	2.1450	0	37.0520	8	29.615	0	1748.717	0	44.9	4	13.8	4	-1E+10	1	-1E+10	1	-1E+10	1	-1E+10	1	-1E+10	1	-1E+10	1
4901784	187	C	08/17/2020	10:48	-132.532	43.156	0	1775.00	0	2.1370	0	37.0530	8	29.617	0	1753.439	0	45.3	4	14.0	4	-1E+10	1	-1E+10	1	-1E+10	1	-1E+10	1	-1E+10	1	-1E+10	1
4901784	187	C	08/17/2020	10:48	-132.532	43.156	0	1779.80	0	2.1280	0	37.0550	8	29.619	0	1758.161	0	45.7	4	14.1	4	-1E+10	1	-1E+10	1	-1E+10	1	-1E+10	1	-1E+10	1	-1E+10	1
4901784	187	C	08/17/2020	10:48	-132.532	43.156	0	1784.70	0	2.1230	0	37.0560	8	29.620	0	1762.981	0	46.0	4	14.2	4	-1E+10	1	-1E+10	1	-1E+10	1	-1E+10	1	-1E+10	1	-1E+10	1
4901784	187	C	08/17/2020	10:48	-132.532	43.156	0	1789.70	0	2.1160	0	37.0560	8	29.621	0	1767.899	0	46.4	4	14.3	4	-1E+10	1	-1E+10	1	-1E+10	1	-1E+10	1	-1E+10	1	-1E+10	1
4901784	187	C	08/17/2020	10:48	-132.532	43.156	0	1794.60	0	2.1100	0	37.0580	8	29.623	0	1772.719	0	46.7	4	14.4	4	-1E+10	1	-1E+10	1	-1E+10	1	-1E+10	1	-1E+10	1	-1E+10	1
4901784	187	C	08/17/2020	10:48	-132.532	43.156	0	1799.60	0	2.1080	0	37.0590	8	29.624	0	1777.637	0	46.8	4	14.4	4	-1E+10	1	-1E+10	1	-1E+10	1	-1E+10	1	-1E+10	1	-1E+10	1
4901784	187	C	08/17/2020	10:48	-132.532	43.156	0	1804.70	0	2.1060	0	37.0590	8	29.624	0	1782.653	0	47.1	4	14.5	4	-1E+10	1	-1E+10	1	-1E+10	1	-1E+10	1	-1E+10	1	-1E+10	1
4901784	187	C	08/17/2020	10:48	-132.532	43.156	0	1809.80	0	2.1020	0	37.0600	8	29.626	0	1787.670	0	47.4	4	14.6	4	-1E+10	1	-1E+10	1	-1E+10	1	-1E+10	1	-1E+10	1	-1E+10	1
4901784	187	C	08/17/2020	10:48	-132.532	43.156	0	1814.90	0	2.0980	0	37.0600	8	29.626	0	1792.686	0	47.6	4	14.7	4	-1E+10	1	-1E+10	1	-1E+10	1	-1E+10	1	-1E+10	1	-1E+10	1
4901784	187	C	08/17/2020	10:48	-132.532	43.156	0	1820.00	0	2.0940	0	37.0620	8	29.628	0	1797.702	0	48.0	4	14.8	4	-1E+10	1	-1E+10	1	-1E+10	1	-1E+10	1	-1E+10	1	-1E+10	1
4901784	187	C	08/17/2020	10:48	-132.532	43.156	0	1825.20	0	2.0900	0	37.0620	8	29.628	0	1802.816	0	48.2	4	14.8	4	-1E+10	1	-1E+10	1	-1E+10	1	-1E+10	1	-1E+10	1	-1E+10	1
4901784	187	C	08/17/2020	10:48	-132.532	43.156	0	1830.50	0	2.0880	0	37.0630	8	29.629	0	1808.028	0	48.4	4	14.9	4	-1E+10	1	-1E+10	1	-1E+10	1	-1E+10	1	-1E+10	1	-1E+10	1
4901784	187	C	08/17/2020	10:48	-132.532	43.156	0	1834.90	0	2.0860	0	37.0630	8	29.630	0	1812.356	0	48.7	4	15.0	4	-1E+10	1	-1E+10	1	-1E+10	1	-1E+10	1	-1E+10	1	-1E+10	1
4901784	187	C	08/17/2020	10:48	-132.532	43.156	0	1839.30	0	2.0780	0	37.0640	8	29.631	0	1816.683	0	49.1	4	15.1	4	-1E+10	1	-1E+10	1	-1E+10	1	-1E+10	1	-1E+10	1	-1E+10	1
4901784	187	C	08/17/2020	10:48	-132.532	43.156	0	1844.50	0	2.0720	0	37.0660	8	29.633	0	1821.797	0	49.6	4	15.3	4	-1E+10	1	-1E+10	1	-1E+10	1	-1E+10	1	-1E+10	1	-1E+10	1
4901784	187	C	08/17/2020	10:48	-132.532	43.156	0	1849.80	0	2.0720	0	37.0670	8	29.634	0	1827.009	0	50.1	4	15.4	4	-1E+10	1	-1E+10	1	-1E+10	1	-1E+10	1	-1E+10	1	-1E+10	1
4901784	187	C	08/17/2020	10:48	-132.532	43.156	0	1855.20	0	2.0690	0	37.0680	8	29.635	0	1832.319	0	50.5	4	15.5	4	-1E+10	1	-1E+10	1	-1E+10	1	-1E+10	1	-1E+10	1	-1E+10	1
4901784	187	C	08/17/2020	10:48	-132.532	43.156	0	1860.70	0	2.0600	0	37.0690	8	29.637	0	1837.727	0	51.0	4	15.7	4	-1E+10	1	-1E+10	1	-1E+10	1	-1E+10	1	-1E+10	1	-1E+10	1
4901784	187	C	08/17/2020	10:48	-132.532	43.156	0	1865.20	0	2.0480	0	37.0700	8	29.639	0	1842.152	0	51.2	4	15.8	4	-1E+10	1	-1E+10	1	-1E+10	1	-1E+10	1	-1E+10	1	-1E+10	1
4901784	187	C	08/17/2020	10:48	-132.532	43.156	0	1870.00	0	2.0420	0	37.0710	8	29.640	0	1846.872	0	51.5	4	15.8	4	-1E+10	1	-1E+10	1	-1E+10	1	-1E+10	1	-1E+10	1	-1E+10	1
4901784	187	C	08/17/2020	10:48	-132.532	43.156	0	1875.10	0	2.0370	0	37.0720	8	29.641	0	1851.887	0	51.8	4	15.9	4	-1E+10	1	-1E+10	1	-1E+10	1	-1E+10	1	-1E+10	1	-1E+10	1
4901784	187	C	08/17/2020	10:48	-132.532	43.156	0	1879.80	0	2.0340	0	37.0730	8	29.642	0	1856.508	0	52.0	4	16.0	4	-1E+10	1	-1E+10	1	-1E+10	1	-1E+10	1	-1E+10	1	-1E+10	1
4901784	187	C	08/17/2020	10:48	-132.532	43.156	0	1884.60	0	2.0310	0	37.0730	8	29.643	0	1861.228	0	52.2	4	16.1	4	-1E+10	1	-1E+10	1	-1E+10	1	-1E+10	1	-1E+10	1	-1E+10	1
4901784	187	C	08/17/2020	10:48	-132.532	43.156	0	1889.40	0	2.0290	0	37.0740	8	29.644	0	1865.947	0	52.4	4	16.1	4	-1E+10	1	-1E+10	1	-1E+10	1	-1E+10	1	-1E+10	1	-1E+10	1
4901784	187	C	08/17/2020	10:48	-132.532	43.156	0	1894.30	0	2.0270	0	37.0740	8	29.644	0	1870.765	0	52.6	4	16.2	4	-1E+10	1	-1E+10	1	-1E+10	1	-1E+10	1	-1E+10	1	-1E+10	1
4901784	187	C	08/17/2020	10:48	-132.532	43.156	0	1900.00	0	2.0240	0	37.0750	8	29.645	0	1876.369	0	52.8	4	16.2	4	-1E+10	1	-1E+10	1	-1E+10	1	-1E+10	1	-1E+10	1	-1E+10	1
4901784	187	C	08/17/2020	10:48	-132.532	43.156	0	1905.70	0	2.0220	0	37.0760	8	29.646	0	1881.973	0	53.1	4	16.3	4	-1E+10	1	-1E+10	1	-1E+10	1	-1E+10	1	-1E+10	1	-1E+10	1
4901784	187	C	08/17/2020	10:48	-132.532	43.156	0	1910.70	0	2.0200	0	37.0760	8	29.646	0	1886.888	0	53.4	4	16.4	4	-1E+10	1	-1E+10	1	-1E+10	1	-1E+10	1	-1E+10	1	-1E+10	1
4901784	187	C	08/17/2020	10:48	-132.532	43.156	0	1915.70	0	2.0160	0	37.0770	8	29.647	0	1891.804	0	53.7	4	16.5	4	-1E+10	1	-1E+10	1	-1E+10	1	-1E+10	1	-1E+10	1	-1E+10	1
4901784	187	C	08/17/2020	10:48	-132.532	43.156	0	1920.80	0	2.0140	0	37.0780	8	29.648	0	1896.817	0	53.9	4	16.6	4	-1E+10	1	-1E+10	1	-1E+10	1	-1E+10	1	-1E+10	1	-1E+10	1
4901784	187	C	08/17/2020	10:48	-132.532	43.156	0	1925.00	0	2.0120	0	37.0780	8	29.648	0	1900.946	0	54.2	4	16.6	4	-1E+10	1	-1E+10	1	-1E+10	1	-1E+10	1	-1E+10	1	-1E+10	1
4901784	187	C	08/17/2020	10:48	-132.532	43.156	0	1929.20	0	2.0090	0	37.0790	8	29.650	0	1905.075	0	54.4	4	16.7	4	-1E+10	1	-1E+10	1	-1E+10	1	-1E+10	1	-1E+10	1	-1E+10	1
4901784	187	C	08/17/2020	10:48	-132.532	43.156	0	1934.30	0	2.0020	0	37.0800	8	29.651	0	1910.088	0	54.8	4	16.8	4	-1E+10	1	-1E+10	1	-1E+10	1	-1E+10	1	-1E+10	1	-1E+10	1
4901784	187	C	08/17/2020	10:48	-132.532	43.156	0	1939.50	0	1.9990	0	37.0800	8	29.651	0	1915.200	0	55.2	4	17.0	4	-1E+10	1	-1E+10	1	-1E+10	1	-1E+10	1	-1E+10	1	-1E+10	1
4901784	187	C	08/17/2020	10:48	-132.532	43.156	0	1944.60	0	1.9940	0	37.0820	8	29.653	0	1920.213	0	55.7	4	17.1	4	-1E+10	1	-1E+10	1	-1E+10	1	-1E+10	1	-1E+10	1	-1E+10	1
4901784	187	C	08/17/2020	10:48	-132.532	43.156	0	1949.80	0	1.9900	0	37.0830	8	29.654	0	1925.324	0	56.1	4	17.2	4	-1E+10	1	-1E+10	1	-1E+10	1	-1E+10	1	-1E+10	1	-1E+10	1
4901784	187	C	08/17/2020	10:48	-132.532	43.156	0	1955.00	0	1.9830	0	37.0840	8	29.656	0	1930.435	0	56.3	4	17.3	4	-1E+10	1	-1E+10	1	-1E+10	1	-1E+10	1	-1E+10	1	-1E+10	1
4901784	187	C	08/17/2020	10:48	-132.532	43.156	0	1960.30	0	1.9810	0	37.0840	8	29.656	0	1935.645	0	56.4	4	17.3	4	-1E+10	1	-1E+10	1	-1E+10	1	-1E+10	1	-1E+10	1	-1E+10	1
4901784	187	C	08/17/2020	10:48	-132.532	43.156	0	1965.60	0	1.9770	0	37.0850	8	29.657	0	1940.854	0	56.6	4	17.4	4	-1E+10	1	-1E+10	1	-1E+10	1	-1E+10	1	-1E+10	1	-1E+10	1
4901784	187	C	08/17/2020	10:48	-132.532	43.156	0	1970.10	0	1.9730	0	37.0860	8	29.658	0	1945.277	0	56.7	4	17.4	4	-1E+10	1	-1E+10	1	-1E+10	1	-1E+10	1	-1E+10	1	-1E+10	1
4901784	187	C	08/17/2020	10:48	-132.532	43.156	0	1974.50	0	1.9720	0	37.0860	8	29.659	0	1949.601	0	56.8	4	17.5	4	-1E+10	1	-1E+10	1	-1E+10	1	-1E+10	1	-1E+10	1	-1E+10	1
4901784	187	C	08/17/2020	10:48	-132.532	43.156	0	1979.90	0	1.9690	0	37.0860	8	29.659	0	1954.908	0	57.1	4	17.5	4	-1E+10	1	-1E+10	1	-1E+10	1	-1E+10	1	-1E+10	1	-1E+10	1
4901784	187	C	08/17/2020	10:48	-132.532	43.156	0	1985.30	0	1.9670	0	37.0870	8	29.660	0	1960.215	0	57.3	4	17.6	4	-1E+10	1	-1E+10	1	-1E+10	1	-1E+10	1	-1E+10	1	-1E+10	1
4901784	187	C	08/17/2020	10:48	-132.532	43.156	0	1989.80	0	1.9650	0	37.0870	8	29.660	0	1964.638	0	57.5	4	17.7	4	-1E+10	1	-1E+10	1	-1E+10	1	-1E+10	1	-1E+10	1	-1E+10	1
4901784	187	C	08/17/2020	10:48	-132.532	43.156	0	1994.40	0	1.9630	0	37.0870	8	29.660	0	1969.158	0	57.8	4	17.7	4	-1E+10	1	-1E+10	1	-1E+10	1	-1E+10	1	-1E+10	1	-1E+10	1
4901784	187	C	08/17/2020	10:48	-132.532	43.156	0	1999.90	0	1.9600	0	37.0880	8	29.661	0	1974.563	0	58.0	4	17.8	4	-1E+10	1	-1E+10	1	-1E+10	1	-1E+10	1	-1E+10	1	-1E+10	1
4901784	187	C	08/17/2020	10:48	-132.532	43.156	0	2005.20	0	1.9580	0	37.0890	8	29.662	0	1979.772	0	58.3	4	17.9	4	-1E+10	1	-1E+10	1	-1E+10	1	-1E+10	1	-1E+10	1	-1E+10	1
4901784	187	C	08/17/2020	10:48	-132.532	43.156	0	2010.50	0	1.9530	0	37.0900	8	29.664	0	1984.980	0	58.6	4	18.0	4	-1E+10	1	-1E+10	1	-1E+10	1	-1E+10	1	-1E+10	1	-1E+10	1
4901784	187	C	08/17/2020	10:48	-132.532	43.156	0	2015.30	0	1.9500	0	37.0900	8	29.664	0	1989.696	0	58.9	4	18.1	4	-1E+10	1	-1E+10	1	-1E+10	1	-1E+10	1	-1E+10	1	-1E+10	1
4901784	187	C	08/17/2020	10:48	-132.532	43.156	0	2020.10	0	1.9440	0	37.0920	8	29.666	0	1994.413	0	59.3	4	18.2	4	-1E+10	1	-1E+10	1	-1E+10	1	-1E+10	1	-1E+10	1	-1E+10	1
4901784	187	C	08/17/2020	10:48	-132.532	43.156	0																										
4901784	188	C	08/27/2020	10:42	-132.701	43.274	0	2.10	0	19.9220	0	35.1530	8	24.900	0	2.083	0	219.7	4	97.4	4	-1E+10	1	-1E+10	1	-1E+10	1	-1E+10	1	-1E+10	1	-1E+10	1
4901784	188	C	08/27/2020	10:42	-132.701	43.274	0	3.60	0	19.9270	0	35.1510	8	24.898	0	3.571	0	219.9	4	97.5	4	-1E+10	1	-1E+10	1	-1E+10	1	-1E+10	1	-1E+10	1	-1E+10	1
4901784	188	C	08/27/2020	10:42	-132.701	43.274	0	5.20	0	19.8750	0	35.1420	8	24.904	0	5.159	0	219.9	4	97.4	4	-1E+10	1	-1E+10	1	-1E+10	1	-1E+10	1	-1E+10	1	-1E+10	1
4901784	188	C	08/27/2020	10:42	-132.701	43.274	0	6.80	0	19.6710	0	35.1390	8	24.956	0	6.746	0	220.6	4	97.3	4	-1E+10	1	-1E+10	1	-1E+10	1	-1E+10	1	-1E+10	1	-1E+10	1
4901784	188	C	08/27/2020	10:42	-132.701	43.274	0	8.60	0	19.6460	0	35.1400	8	24.963	0	8.531	0	220.7	4	97.3	4	-1E+10	1	-1E+10	1	-1E+10	1	-1E+10	1	-1E+10	1	-1E+10	1
4901784	188	C	08/27/2020	10:42	-132.701	43.274	0	10.20	0	19.6210	0	35.1400	8	24.970	0	10.119	0	220.5	4	97.2	4	-1E+10	1	-1E+10	1	-1E+10	1	-1E+10	1	-1E+10	1	-1E+10	1
4901784	188	C	08/27/2020	10:42	-132.701	43.274	0	11.80	0	19.6090	0	35.1400	8	24.973	0	11.706	0	220.6	4	97.2	4	-1E+10	1	-1E+10	1	-1E+10	1	-1E+10	1	-1E+10	1	-1E+10	1
4901784	188	C	08/27/2020	10:42	-132.701	43.274	0	13.50	0	19.5800	0	35.1390	8	24.980	0	13.392	0	220.7	4	97.2	4	-1E+10	1	-1E+10	1	-1E+10	1	-1E+10	1	-1E+10	1	-1E+10	1
4901784	188	C	08/27/2020	10:42	-132.701	43.274	0	15.20	0	19.5380	0	35.1350	8	24.988	0	15.078	0	221.0	4	97.2	4	-1E+10	1	-1E+10	1	-1E+10	1	-1E+10	1	-1E+10	1	-1E+10	1
4901784	188	C	08/27/2020	10:42	-132.701	43.274	0	16.90	0	19.4960	0	35.1330	8	24.997	0	16.765	0	221.2	4	97.3	4	-1E+10	1	-1E+10	1	-1E+10	1	-1E+10	1	-1E+10	1	-1E+10	1
4901784	188	C	08/27/2020	10:42	-132.701	43.274	0	18.60	0	19.4600	0	35.1340	8	25.007	0	18.451	0	221.5	4	97.3	4	-1E+10	1	-1E+10	1	-1E+10	1	-1E+10	1	-1E+10	1	-1E+10	1
4901784	188	C	08/27/2020	10:42	-132.701	43.274	0	20.30	0	19.4030	0	35.1260	8	25.016	0	20.137	0	221.8	4	97.4	4	-1E+10	1	-1E+10	1	-1E+10	1	-1E+10	1	-1E+10	1	-1E+10	1
4901784	188	C	08/27/2020	10:42	-132.701	43.274	0	22.00	0	19.4010	0	35.1230	8	25.014	0	21.824	0	222.2	4	97.5	4	-1E+10	1	-1E+10	1	-1E+10	1	-1E+10	1	-1E+10	1	-1E+10	1
4901784	188	C	08/27/2020	10:42	-132.701	43.274	0	23.70	0	19.3920	0	35.1160	8	25.011	0	23.510	0	222.5	4	97.6	4	-1E+10	1	-1E+10	1	-1E+10	1	-1E+10	1	-1E+10	1	-1E+10	1
4901784	188	C	08/27/2020	10:42	-132.701	43.274	0	25.50	0	19.3610	0	35.1210	8	25.023	0	25.295	0	223.5	4	98.1	4	-1E+10	1	-1E+10	1	-1E+10	1	-1E+10	1	-1E+10	1	-1E+10	1
4901784	188	C	08/27/2020	10:42	-132.701	43.274	0	27.40	0	18.9990	0	35.1790	8	25.161	0	27.180	0	225.4	4	98.2	4	-1E+10	1	-1E+10	1	-1E+10	1	-1E+10	1	-1E+10	1	-1E+10	1
4901784	188	C	08/27/2020	10:42	-132.701	43.274	0	29.40	0	18.7400	0	35.2570	8	25.286	0	29.164	0	227.2	4	98.6	4	-1E+10	1	-1E+10	1	-1E+10	1	-1E+10	1	-1E+10	1	-1E+10	1
4901784	188	C	08/27/2020	10:42	-132.701	43.274	0	29.80	0	18.6810	0	35.2580	8	25.302	0	29.561	0	227.6	4	98.7	4	-1E+10	1	-1E+10	1	-1E+10	1	-1E+10	1	-1E+10	1	-1E+10	1
4901784	188	C	08/27/2020	10:42	-132.701	43.274	0	31.40	0	18.4130	0	35.2760	8	25.383	0	31.148	0	229.1	4	98.8	4	-1E+10	1	-1E+10	1	-1E+10	1	-1E+10	1	-1E+10	1	-1E+10	1
4901784	188	C	08/27/2020	10:42	-132.701	43.274	0	32.90	0	18.1270	0	35.2990	8	25.472	0	32.636	0	230.5	4	98.9	4	-1E+10	1	-1E+10	1	-1E+10	1	-1E+10	1	-1E+10	1	-1E+10	1
4901784	188	C	08/27/2020	10:42	-132.701	43.274	0	34.40	0	17.9920	0	35.2970	8	25.504	0	34.123	0	231.1	4	99.0	4	-1E+10	1	-1E+10	1	-1E+10	1	-1E+10	1	-1E+10	1	-1E+10	1
4901784	188	C	08/27/2020	10:42	-132.701	43.274	0	36.00	0	17.8560	0	35.3110	8	25.548	0	35.710	0	231.5	4	98.9	4	-1E+10	1	-1E+10	1	-1E+10	1	-1E+10	1	-1E+10	1	-1E+10	1
4901784	188	C	08/27/2020	10:42	-132.701	43.274	0	37.50	0	17.7800	0	35.3290	8	25.581	0	37.198	0	231.6	4	98.8	4	-1E+10	1	-1E+10	1	-1E+10	1	-1E+10	1	-1E+10	1	-1E+10	1
4901784	188	C	08/27/2020	10:42	-132.701	43.274	0	39.00	0	17.7500	0	35.3300	8	25.589	0	38.686	0	231.9	4	98.9	4	-1E+10	1	-1E+10	1	-1E+10	1	-1E+10	1	-1E+10	1	-1E+10	1
4901784	188	C	08/27/2020	10:42	-132.701	43.274	0	40.50	0	17.5930	0	35.3390	8	25.634	0	40.174	0	232.7	4	98.9	4	-1E+10	1	-1E+10	1	-1E+10	1	-1E+10	1	-1E+10	1	-1E+10	1
4901784	188	C	08/27/2020	10:42	-132.701	43.274	0	42.10	0	17.2800	0	35.3400	8	25.711	0	41.761	0	233.6	4	98.7	4	-1E+10	1	-1E+10	1	-1E+10	1	-1E+10	1	-1E+10	1	-1E+10	1
4901784	188	C	08/27/2020	10:42	-132.701	43.274	0	43.50	0	17.2280	0	35.3290	8	25.715	0	43.149	0	234.4	4	99.0	4	-1E+10	1	-1E+10	1	-1E+10	1	-1E+10	1	-1E+10	1	-1E+10	1
4901784	188	C	08/27/2020	10:42	-132.701	43.274	0	45.10	0	17.1690	0	35.3150	8	25.718	0	44.736	0	234.8	4	99.0	4	-1E+10	1	-1E+10	1	-1E+10	1	-1E+10	1	-1E+10	1	-1E+10	1
4901784	188	C	08/27/2020	10:42	-132.701	43.274	0	46.60	0	16.8930	0	35.3260	8	25.793	0	46.224	0	236.3	4	99.1	4	-1E+10	1	-1E+10	1	-1E+10	1	-1E+10	1	-1E+10	1	-1E+10	1
4901784	188	C	08/27/2020	10:42	-132.701	43.274	0	48.40	0	16.7890	0	35.3230	8	25.815	0	48.009	0	237.0	4	99.2	4	-1E+10	1	-1E+10	1	-1E+10	1	-1E+10	1	-1E+10	1	-1E+10	1
4901784	188	C	08/27/2020	10:42	-132.701	43.274	0	48.80	0	16.7680	0	35.3230	8	25.820	0	48.406	0	237.4	4	99.3	4	-1E+10	1	-1E+10	1	-1E+10	1	-1E+10	1	-1E+10	1	-1E+10	1
4901784	188	C	08/27/2020	10:42	-132.701	43.274	0	50.10	0	16.5790	0	35.3390	8	25.877	0	49.695	0	238.5	4	99.5	4	-1E+10	1	-1E+10	1	-1E+10	1	-1E+10	1	-1E+10	1	-1E+10	1
4901784	188	C	08/27/2020	10:42	-132.701	43.274	0	51.30	0	16.5230	0	35.3350	8	25.887	0	50.885	0	239.0	4	99.6	4	-1E+10	1	-1E+10	1	-1E+10	1	-1E+10	1	-1E+10	1	-1E+10	1
4901784	188	C	08/27/2020	10:42	-132.701	43.274	0	52.50	0	16.3880	0	35.3310	8	25.915	0	52.076	0	240.5	4	99.9	4	-1E+10	1	-1E+10	1	-1E+10	1	-1E+10	1	-1E+10	1	-1E+10	1
4901784	188	C	08/27/2020	10:42	-132.701	43.274	0	53.80	0	16.2690	0	35.3280	8	25.941	0	53.365	0	242.3	4	100.4	4	-1E+10	1	-1E+10	1	-1E+10	1	-1E+10	1	-1E+10	1	-1E+10	1
4901784	188	C	08/27/2020	10:42	-132.701	43.274	0	55.00	0	15.9290	0	35.3410	8	26.029	0	54.555	0	244.9	4	100.9	4	-1E+10	1	-1E+10	1	-1E+10	1	-1E+10	1	-1E+10	1	-1E+10	1
4901784	188	C	08/27/2020	10:42	-132.701	43.274	0	56.30	0	15.7810	0	35.3440	8	26.065	0	55.844	0	247.1	4	101.5	4	-1E+10	1	-1E+10	1	-1E+10	1	-1E+10	1	-1E+10	1	-1E+10	1
4901784	188	C	08/27/2020	10:42	-132.701	43.274	0	57.60	0	15.4440	0	35.3410	8	26.139	0	57.134	0	249.7	4	101.9	4	-1E+10	1	-1E+10	1	-1E+10	1	-1E+10	1	-1E+10	1	-1E+10	1
4901784	188	C	08/27/2020	10:42	-132.701	43.274	0	58.90	0	15.0540	0	35.3480	8	26.231	0	58.423	0	252.4	4	102.2	4	-1E+10	1	-1E+10	1	-1E+10	1	-1E+10	1	-1E+10	1	-1E+10	1
4901784	188	C	08/27/2020	10:42	-132.701	43.274	0	60.30	0	14.6310	0	35.3090	8	26.294	0	59.811	0	256.7	4	103.0	4	-1E+10	1	-1E+10	1	-1E+10	1	-1E+10	1	-1E+10	1	-1E+10	1
4901784	188	C	08/27/2020	10:42	-132.701	43.274	0	61.90	0	13.8410	0	35.3630	8	26.504	0	61.398	0	260.4	4	102.9	4	-1E+10	1	-1E+10	1	-1E+10	1	-1E+10	1	-1E+10	1	-1E+10	1
4901784	188	C	08/27/2020	10:42	-132.701	43.274	0	63.50	0	13.4340	0	35.4080	8	26.623	0	62.985	0	262.4	4	102.9	4	-1E+10	1	-1E+10	1	-1E+10	1	-1E+10	1	-1E+10	1	-1E+10	1
4901784	188	C	08/27/2020	10:42	-132.701	43.274	0	65.80	0	13.2170	0	35.4060	8	26.666	0	65.266	0	262.3	4	102.4	4	-1E+10	1	-1E+10	1	-1E+10	1	-1E+10	1	-1E+10	1	-1E+10	1
4901784	188	C	08/27/2020	10:42	-132.701	43.274	0	67.50	0	12.5730	0	35.4920	8	26.862	0	66.952	0	264.0	4	101.8	4	-1E+10	1	-1E+10	1	-1E+10	1	-1E+10	1	-1E+10	1	-1E+10	1
4901784	188	C	08/27/2020	10:42	-132.701	43.274	0	69.10	0	12.5020	0	35.4980	8	26.881	0	68.539	0	263.1	4	101.3	4	-1E+10	1	-1E+10	1	-1E+10	1	-1E+10	1	-1E+10	1	-1E+10	1
4901784	188	C	08/27/2020	10:42	-132.701	43.274	0	70.60	0	12.4220	0	35.5120	8	26.907	0	70.026	0	262.1	4	100.8	4	-1E+10	1	-1E+10	1	-1E+10	1	-1E+10	1	-1E+10	1	-1E+10	1
4901784	188	C	08/27/2020	10:42	-132.701	43.274	0	72.10	0	12.3580	0	35.5180	8	26.925	0	71.514	0	260.1	4	99.9	4	-1E+10	1	-1E+10	1	-1E+10	1	-1E+10	1	-1E+10	1	-1E+10	1
4901784	188	C	08/27/2020	10:42	-132.701	43.274	0	73.50	0	12.2670	0	35.5180	8	26.942	0	72.902	0	258.4	4	99.1	4	-1E+10	1	-1E+10	1	-1E+10	1	-1E+10	1	-1E+10	1	-1E+10	1
4901784	188	C	08/27/2020	10:42	-132.701	43.274	0	75.00	0	12.1920	0	35.5290	8	26.966	0	74.390	0	255.6	4	97.9	4	-1E+10	1	-1E+10	1	-1E+10	1	-1E+10	1	-1E+10	1	-1E+10	1
4901784	188	C	08/27/2020	10:42	-132.701	43.274	0	76.50	0	12.0410	0	35.5410	8	27.004	0	75.877	0	252.9	4	96.5	4	-1E+10	1	-1E+10	1	-1E+10	1	-1E+10	1	-1E+10	1	-1E+10	1
4901784	188	C	08/27/2020	10:42	-132.701	43.274	0	78.10	0	11.9430	0	35.5370	8	27.020	0	77.464	0	249.8	4	95.1	4	-1E+10	1	-1E+10	1	-1E+10	1	-1E+10	1	-1E+10	1	-1E+10	1
4901784	188	C	08/27/2020	10:42	-132.701	43.274	0	79.80	0	11.6900	0	35.5910	8	27.110	0	79.150	0	247.1	4	93.6	4	-1E+10	1	-1E+10	1	-1E+10	1	-1E+10	1	-1E+10	1	-1E+10	1
4901784	188	C	08/27/2020	10:42	-132.701	43.274	0	81.50	0	11.5380	0	35.6230	8	27.164	0	80.835	0	244.7	4	92.5	4	-1E+10	1	-1E+10	1	-1E+10	1	-1E+10	1	-1E+10	1	-1E+10	1
4901784	188	C	08/27/2020	10:42	-132.701	43.274	0	83.00	0	11.4030	0	35.6120	8	27.180	0	82.323	0	242.0	4	91.2	4	-1E+10	1	-1E+10	1	-1E+10	1	-1E+10	1	-1E+10	1	-1E+10	1
4901784	188	C	08/27/2020	10:42	-132.701	43.274	0	84.70	0	11.3640	0	35.6110	8	27.187	0	84.009	0	238.4	4	89.8	4	-1E+10	1	-1E+10	1	-1E+10	1	-1E+10	1	-1E+10	1	-1E+10	1
4901784	188	C	08/27/2020	10:42	-132.701	43.274	0	86.30	0	11.3820	0	35.6190	8	27.190	0	85.595	0	233.6	4	88.0	4	-1E+10	1	-1E+10	1	-1E+10	1	-1E+10	1	-1E+10	1	-1E+10	1
4901784	188	C	08/27/2020	10:42	-132.701	43.274	0	87.80	0	11.2870	0	35.6640	8	27.243	0	87.083	0	227.4	4	85.5	4	-1E+10	1	-1E+10	1	-1E+10	1	-1E+10	1	-1E+10	1	-1E+10	1
4901784	188	C	08/27/2020	10:42	-132.701	43.274	0	89.30	0	10.8080	0	35.6950	8	27.354	0	88.570	0	224.7	4	83.7	4	-1E+10	1	-1E+10	1	-1E+10	1	-1E+10	1	-1E+10	1	-1E+10	1
4901784	188	C	08/27/2020	10:42	-132.701	43.274	0	90.80	0	10.7160	0	35.6850	8	27.363	0	90.057	0	220.9	4	82.1	4	-1E+10	1	-1E+10	1	-1E+10	1	-1E+10	1	-1E+10	1	-1E+10	1
4901784	188	C	08/27/2020	10:42	-132.701	43.274	0	92.40	0	10.5680	0	35.6900	8	27.394	0	91.644	0	215.5	4	79.8	4	-1E+10	1	-1E+10	1	-1E+10	1	-1E+10	1	-1E+10	1	-1E+10	1
4901784	188	C	08/27/2020	10:42	-132.701	43.274	0	94.10	0	10.1410	0	35.7590	8	27.523	0	93.330	0	211.6	4	77.7	4	-1E+10	1	-1E+10	1	-1E+10	1	-1E+10	1	-1E+10	1	-1E+10	1
4901784	188	C	08/27/2020	10:42	-132.701	43.274	0	95.80	0	10.0190	0	35.7640	8	27.548	0	95.015	0	209.5	4	76.7	4	-1E+10	1	-1E+10	1	-1E+10	1	-1E+10	1	-1E+10	1	-1E+10	1
4901784	188	C	08/27/2020	10:42	-132.701	43.274	0	97.50	0	9.9260	0	35.7670	8	27.566	0	96.701	0	206.5	4	75.5	4	-1E+10	1	-1E+10	1	-1E+10	1	-1E+10	1	-1E+10	1	-1E+10	1
4901784	188	C	08/27/2020	10:42	-132.701	43.274	0	99.10	0	9.8100	0	35.8080	8	27.618	0	98.288	0	203.6	4	74.3	4	-1E+10	1	-1E+10	1	-1E+10	1	-1E+10	1	-1E+10	1	-1E+10	1
4901784	188	C	08/27/2020	10:42	-132.701	43.274	0	102.60	0	9.6900	0	35.8750	8	27.691	0	101.758	0	199.5	4	72.6	4	-1E+10	1	-1E+10	1	-1E+10	1	-1E+10	1	-1E+10	1	-1E+10	1
4901784	188	C	08/27/2020	10:42	-132.701	43.274	0	105.00	0	9.6130	0	35.8870	8	27.714	0	104.138	0	196.1	4	71.3	4	-1E+10	1	-1E+10	1	-1E+10	1	-1E+10	1	-1E+10	1	-1E+10	1
4901784	188	C	08/27/2020	10:42	-132.701	43.274	0	107.50	0	9.5070	0	35.9050	8	27.746	0	106.617	0	192.7	4	69.9	4	-1E+10	1	-1E+10	1	-1E+10	1	-1E+10	1	-1E+10	1	-1E+10	1
4901784	188	C	08/27/2020	10:42	-132.701	43.274	0	110.10	0	9.2730	0	35.9310	8	27.805	0	109.195	0	190.1	4	68.6	4	-1E+10	1	-1E+10	1	-1E+10	1	-1E+10	1	-1E+10	1	-1E+10	1
4901784	188	C	08/27/2020	10:42	-132.701	43.274	0	112.70	0	9.0980	0	35.9330	8	27.836	0	111.772	0	187.3	4	67.3	4	-1E+10	1	-1E+10	1	-1E+10	1	-1E+10	1	-1E+10	1	-1E+10	1
4901784	188	C	08/27/2020	10:42	-132.701	43.274	0	115.00	0	8.9510	0	35.9670	8	27.886	0	114.053	0	184.8	4	66.2	4	-1E+10	1	-1E+10	1	-1E+10	1	-1E+10	1	-1E+10	1	-1E+10	1
4901784	188	C	08/27/2020	10:42	-132.701	43.274	0	117.60	0	8.8150	0	36.0270	8	27.955	0	116.631	0	181.4	4	64.8	4	-1E+10	1	-1E+10	1	-1E+10	1	-1E+10	1	-1E+10	1	-1E+10	1
4901784	188	C	08/27/2020	10:42	-132.701	43.274	0	119.90	0	8.7710	0	36.0420	8	27.974	0	118.911	0	177.7	4	63.5	4	-1E+10	1	-1E+10	1	-1E+10	1	-1E+10	1	-1E+10	1	-1E+10	1
4901784	188	C	08/27/2020	10:42	-132.701	43.274	0	122.10	0	8.6750	0	36.0930	8	28.030	0	121.092	0	172.7	4	61.6	4	-1E+10	1	-1E+10	1	-1E+10	1	-1E+10	1	-1E+10	1	-1E+10	1
4901784	188	C	08/27/2020	10:42	-132.701	43.274	0	124.70	0	8.6090	0	36.1670	8	28.098	0	123.670	0	166.9	4	59.5	4	-1E+10	1	-1E+10	1	-1E+10	1	-1E+10	1	-1E+10	1	-1E+10	1
4901784	188	C	08/27/2020	10:42	-132.701	43.274	0	127.20	0	8.5190	0	36.2470	8	28.175	0	126.149	0	160.7	4	57.2	4	-1E+10	1	-1E+10	1	-1E+10	1	-1E+10	1	-1E+10	1	-1E+10	1
4901784	188	C	08/27/2020	10:42	-132.701	43.274	0	129.80	0	8.5630	0	36.3560	8	28.254	0	128.726	0	153.3	4	54.7	4	-1E+10	1	-1E+10	1	-1E+10	1	-1E+10	1	-1E+10	1	-1E+10	1
4901784	188	C	08/27/2020	10:42	-132.701	43.274	0	132.40	0	8.5540	0	36.4100	8	28.298	0	131.304	0	149.0	4	53.1	4	-1E+10	1	-1E+10	1	-1E+10	1	-1E+10	1	-1E+10	1	-1E+10	1
4901784	188	C	08/27/2020	10:42	-132.701	43.274	0	135.10	0	8.5790	0	36.4580	8	28.331	0	133.981	0	146.8	4	52.4	4	-1E+10	1	-1E+10	1	-1E+10	1	-1E+10	1	-1E+10	1	-1E+10	1
4901784	188	C	08/27/2020	10:42	-132.701	43.274	0	137.70	0	8.5460	0	36.4730	8	28.349	0	136.558	0	147.3	4	52.5	4	-1E+10	1	-1E+10	1	-1E+10	1	-1E+10	1	-1E+10	1	-1E+10	1
4901784	188	C	08/27/2020	10:42	-132.701	43.274	0	140.40	0	8.4060	0	36.4850	8	28.380	0	139.235	0	147.8	4	52.6	4	-1E+10	1	-1E+10	1	-1E+10	1	-1E+10	1	-1E+10	1	-1E+10	1
4901784	188	C	08/27/2020	10:42	-132.701	43.274	0	142.30	0	8.4560	0	36.4880	8	28.375	0	141.119	0	146.7	4	52.2	4	-1E+10	1	-1E+10	1	-1E+10	1	-1E+10	1	-1E+10	1	-1E+10	1
4901784	188	C	08/27/2020	10:42	-132.701	43.274	0	145.10	0	8.1870	0	36.5010	8	28.427	0	143.895	0	144.0	4	51.0	4	-1E+10	1	-1E+10	1	-1E+10	1	-1E+10	1	-1E+10	1	-1E+10	1
4901784	188	C	08/27/2020	10:42	-132.701	43.274	0	148.00	0	8.3270	0	36.5460	8	28.441	0	146.769	0	138.2	4	49.1	4	-1E+10	1	-1E+10	1	-1E+10	1	-1E+10	1	-1E+10	1	-1E+10	1
4901784	188	C	08/27/2020	10:42	-132.701	43.274	0	149.80	0	8.3560	0	36.5650	8	28.451	0	148.554	0	135.6	4	48.2	4	-1E+10	1	-1E+10	1	-1E+10	1	-1E+10	1	-1E+10	1	-1E+10	1
4901784	188	C	08/27/2020	10:42	-132.701	43.274	0	152.60	0	8.3830	0	36.6010	8	28.475	0	151.329	0	131.9	4	46.9	4	-1E+10	1	-1E+10	1	-1E+10	1	-1E+10	1	-1E+10	1	-1E+10	1
4901784	188	C	08/27/2020	10:42	-132.701	43.274	0	155.40	0	8.4630	0	36.6280	8	28.484	0	154.105	0	129.3	4	46.1	4	-1E+10	1	-1E+10	1	-1E+10	1	-1E+10	1	-1E+10	1	-1E+10	1
4901784	188	C	08/27/2020	10:42	-132.701	43.274	0	157.80	0	8.4590	0	36.6310	8	28.487	0	156.484	0	128.3	4	45.7	4	-1E+10	1	-1E+10	1	-1E+10	1	-1E+10	1	-1E+10	1	-1E+10	1
4901784	188	C	08/27/2020	10:42	-132.701	43.274	0	159.70	0	8.4290	0	36.6580	8	28.513	0	158.368	0	127.3	4	45.3	4	-1E+10	1	-1E+10	1	-1E+10	1	-1E+10	1	-1E+10	1	-1E+10	1
4901784	188	C	08/27/2020	10:42	-132.701	43.274	0	162.10	0	8.4080	0	36.6690	8	28.525	0	160.747	0	127.1	4	45.2	4	-1E+10	1	-1E+10	1	-1E+10	1	-1E+10	1	-1E+10	1	-1E+10	1
4901784	188	C	08/27/2020	10:42	-132.701	43.274	0	165.20	0	8.3990	0	36.6840	8	28.538	0	163.820	0	127.9	4	45.5	4	-1E+10	1	-1E+10	1	-1E+10	1	-1E+10	1	-1E+10	1	-1E+10	1
4901784	188	C	08/27/2020	10:42	-132.701	43.274	0	167.50	0	8.3450	0	36.6840	8	28.547	0	166.099	0	129.2	4	46.0	4	-1E+10	1	-1E+10	1	-1E+10	1	-1E+10	1	-1E+10	1	-1E+10	1
4901784	188	C	08/27/2020	10:42	-132.701	43.274	0	169.90	0	8.2140	0	36.6900	8	28.572	0	168.478	0	130.4	4	46.2	4	-1E+10	1	-1E+10	1	-1E+10	1	-1E+10	1	-1E+10	1	-1E+10	1
4901784	188	C	08/27/2020	10:42	-132.701	43.274	0	172.20	0	8.1320	0	36.7070	8	28.598	0	170.758	0	129.3	4	45.8	4	-1E+10	1	-1E+10	1	-1E+10	1	-1E+10	1	-1E+10	1	-1E+10	1
4901784	188	C	08/27/2020	10:42	-132.701	43.274	0	174.70	0	8.1450	0	36.7250	8	28.610	0	173.236	0	128.8	4	45.6	4	-1E+10	1	-1E+10	1	-1E+10	1	-1E+10	1	-1E+10	1	-1E+10	1
4901784	188	C	08/27/2020	10:42	-132.701	43.274	0	177.90	0	8.1300	0	36.7400	8	28.624	0	176.408	0	128.9	4	45.6	4	-1E+10	1	-1E+10	1	-1E+10	1	-1E+10	1	-1E+10	1	-1E+10	1
4901784	188	C	08/27/2020	10:42	-132.701	43.274	0	180.30	0	8.1160	0	36.7420	8	28.628	0	178.787	0	130.1	4	46.0	4	-1E+10	1	-1E+10	1	-1E+10	1	-1E+10	1	-1E+10	1	-1E+10	1
4901784	188	C	08/27/2020	10:42	-132.701	43.274	0	182.80	0	8.0270	0	36.7400	8	28.640	0	181.265	0	131.3	4	46.4	4	-1E+10	1	-1E+10	1	-1E+10	1	-1E+10	1	-1E+10	1	-1E+10	1
4901784	188	C	08/27/2020	10:42	-132.701	43.274	0	185.40	0	7.9750	0	36.7540	8	28.659	0	183.842	0	131.0	4	46.2	4	-1E+10	1	-1E+10	1	-1E+10	1	-1E+10	1	-1E+10	1	-1E+10	1
4901784	188	C	08/27/2020	10:42	-132.701	43.274	0	187.10	0	7.9640	0	36.7590	8	28.665	0	185.527	0	130.4	4	46.0	4	-1E+10	1	-1E+10	1	-1E+10	1	-1E+10	1	-1E+10	1	-1E+10	1
4901784	188	C	08/27/2020	10:42	-132.701	43.274	0	189.70	0	7.9380	0	36.7590	8	28.669	0	188.104	0	129.5	4	45.7	4	-1E+10	1	-1E+10	1	-1E+10	1	-1E+10	1	-1E+10	1	-1E+10	1
4901784	188	C	08/27/2020	10:42	-132.701	43.274	0	192.20	0	7.9190	0	36.7600	8	28.673	0	190.581	0	129.1	4	45.5	4	-1E+10	1	-1E+10	1	-1E+10	1	-1E+10	1	-1E+10	1	-1E+10	1
4901784	188	C	08/27/2020	10:42	-132.701	43.274	0	194.80	0	7.8590	0	36.7780	8	28.696	0	193.158	0	129.2	4	45.5	4	-1E+10	1	-1E+10	1	-1E+10	1	-1E+10	1	-1E+10	1	-1E+10	1
4901784	188	C	08/27/2020	10:42	-132.701	43.274	0	197.40	0	7.8370	0	36.7830	8	28.704	0	195.735	0	129.6	4	45.6	4	-1E+10	1	-1E+10	1	-1E+10	1	-1E+10	1	-1E+10	1	-1E+10	1
4901784	188	C	08/27/2020	10:42	-132.701	43.274	0	200.00	0	7.8270	0	36.7850	8	28.707	0	198.312	0	129.2	4	45.4	4	-1E+10	1	-1E+10	1	-1E+10	1	-1E+10	1	-1E+10	1	-1E+10	1
4901784	188	C	08/27/2020	10:42	-132.701	43.274	0	202.60	0	7.7980	0	36.7890	8	28.714	0	200.889	0	128.8	4	45.3	4	-1E+10	1	-1E+10	1	-1E+10	1	-1E+10	1	-1E+10	1	-1E+10	1
4901784	188	C	08/27/2020	10:42	-132.701	43.274	0	205.30	0	7.7700	0	36.7940	8	28.723	0	203.565	0	128.5	4	45.1	4	-1E+10	1	-1E+10	1	-1E+10	1	-1E+10	1	-1E+10	1	-1E+10	1
4901784	188	C	08/27/2020	10:42	-132.701	43.274	0	207.80	0	7.7340	0	36.8000	8	28.733	0	206.042	0	127.6	4	44.8	4	-1E+10	1	-1E+10	1	-1E+10	1	-1E+10	1	-1E+10	1	-1E+10	1
4901784	188	C	08/27/2020	10:42	-132.701	43.274	0	209.60	0	7.6900	0	36.8060	8	28.744	0	207.826	0	126.6	4	44.4	4	-1E+10	1	-1E+10	1	-1E+10	1	-1E+10	1	-1E+10	1	-1E+10	1
4901784	188	C	08/27/2020	10:42	-132.701	43.274	0	212.30	0	7.6730	0	36.8070	8	28.748	0	210.502	0	125.5	4	44.0	4	-1E+10	1	-1E+10	1	-1E+10	1	-1E+10	1	-1E+10	1	-1E+10	1
4901784	188	C	08/27/2020	10:42	-132.701	43.274	0	214.90	0	7.6340	0	36.8130	8	28.758	0	213.079	0	124.4	4	43.6	4	-1E+10	1	-1E+10	1	-1E+10	1	-1E+10	1	-1E+10	1	-1E+10	1
4901784	188	C	08/27/2020	10:42	-132.701	43.274	0	217.60	0	7.6060	0	36.8150	8	28.764	0	215.754	0	122.9	4	43.0	4	-1E+10	1	-1E+10	1	-1E+10	1	-1E+10	1	-1E+10	1	-1E+10	1
4901784	188	C	08/27/2020	10:42	-132.701	43.274	0	220.20	0	7.5780	0	36.8180	8	28.771	0	218.331	0	120.5	4	42.2	4	-1E+10	1	-1E+10	1	-1E+10	1	-1E+10	1	-1E+10	1	-1E+10	1
4901784	188	C	08/27/2020	10:42	-132.701	43.274	0	222.10	0	7.5760	0	36.8240	8	28.776	0	220.214	0	118.4	4	41.4	4	-1E+10	1	-1E+10	1	-1E+10	1	-1E+10	1	-1E+10	1	-1E+10	1
4901784	188	C	08/27/2020	10:42	-132.701	43.274	0	224.90	0	7.5700	0	36.8280	8	28.780	0	222.988	0	117.2	4	41.0	4	-1E+10	1	-1E+10	1	-1E+10	1	-1E+10	1	-1E+10	1	-1E+10	1
4901784	188	C	08/27/2020	10:42	-132.701	43.274	0	227.60	0	7.5560	0	36.8300	8	28.783	0	225.664	0	115.7	4	40.5	4	-1E+10	1	-1E+10	1	-1E+10	1	-1E+10	1	-1E+10	1	-1E+10	1
4901784	188	C	08/27/2020	10:42	-132.701	43.274	0	230.30	0	7.5410	0	36.8310	8	28.787	0	228.340	0	114.8	4	40.1	4	-1E+10	1	-1E+10	1	-1E+10	1	-1E+10	1	-1E+10	1	-1E+10	1
4901784	188	C	08/27/2020	10:42	-132.701	43.274	0	233.10	0	7.4880	0	36.8310	8	28.794	0	231.114	0	113.2	4	39.5	4	-1E+10	1	-1E+10	1	-1E+10	1	-1E+10	1	-1E+10	1	-1E+10	1
4901784	188	C	08/27/2020	10:42	-132.701	43.274	0	234.90	0	7.4920	0	36.8320	8	28.795	0	232.898	0	110.9	4	38.7	4	-1E+10	1	-1E+10	1	-1E+10	1	-1E+10	1	-1E+10	1	-1E+10	1
4901784	188	C	08/27/2020	10:42	-132.701	43.274	0	237.70	0	7.4540	0	36.8390	8	28.806	0	235.672	0	108.5	4	37.9	4	-1E+10	1	-1E+10	1	-1E+10	1	-1E+10	1	-1E+10	1	-1E+10	1
4901784	188	C	08/27/2020	10:42	-132.701	43.274	0	240.50	0	7.4120	0	36.8420	8	28.814	0	238.447	0	106.4	4	37.1	4	-1E+10	1	-1E+10	1	-1E+10	1	-1E+10	1	-1E+10	1	-1E+10	1
4901784	188	C	08/27/2020	10:42	-132.701	43.274	0	242.40	0	7.4090	0	36.8470	8	28.819	0	240.330	0	104.8	4	36.5	4	-1E+10	1	-1E+10	1	-1E+10	1	-1E+10	1	-1E+10	1	-1E+10	1
4901784	188	C	08/27/2020	10:42	-132.701	43.274	0	245.20	0	7.3850	0	36.8470	8	28.822	0	243.104	0	104.7	4	36.5	4	-1E+10	1	-1E+10	1	-1E+10	1	-1E+10	1	-1E+10	1	-1E+10	1
4901784	188	C	08/27/2020	10:42	-132.701	43.274	0	248.10	0	7.3050	0	36.8460	8	28.833	0	245.978	0	104.2	4	36.3	4	-1E+10	1	-1E+10	1	-1E+10	1	-1E+10	1	-1E+10	1	-1E+10	1
4901784	188	C	08/27/2020	10:42	-132.701	43.274	0	249.90	0	7.3030	0	36.8460	8	28.834	0	247.761	0	103.0	4	35.8	4	-1E+10	1	-1E+10	1	-1E+10	1	-1E+10	1	-1E+10	1	-1E+10	1
4901784	188	C	08/27/2020	10:42	-132.701	43.274	0	252.80	0	7.2930	0	36.8500	8	28.838	0	250.634	0	100.9	4	35.1	4	-1E+10	1	-1E+10	1	-1E+10	1	-1E+10	1	-1E+10	1	-1E+10	1
4901784	188	C	08/27/2020	10:42	-132.701	43.274	0	255.60	0	7.2760	0	36.8500	8	28.841	0	253.409	0	100.5	4	34.9	4	-1E+10	1	-1E+10	1	-1E+10	1	-1E+10	1	-1E+10	1	-1E+10	1
4901784	188	C	08/27/2020	10:42	-132.701	43.274	0	257.50	0	7.2680	0	36.8480	8	28.841	0	255.291	0	101.0	4	35.1	4	-1E+10	1	-1E+10	1	-1E+10	1	-1E+10	1	-1E+10	1	-1E+10	1
4901784	188	C	08/27/2020	10:42	-132.701	43.274	0	259.40	0	7.2470	0	36.8430	8	28.840	0	257.174	0	101.9	4	35.4	4	-1E+10	1	-1E+10	1	-1E+10	1	-1E+10	1	-1E+10	1	-1E+10	1
4901784	188	C	08/27/2020	10:42	-132.701	43.274	0	262.30	0	7.0910	0	36.8430	8	28.862	0	260.047	0	102.0	4	35.3	4	-1E+10	1	-1E+10	1	-1E+10	1	-1E+10	1	-1E+10	1	-1E+10	1
4901784	188	C	08/27/2020	10:42	-132.701	43.274	0	265.20	0	7.0580	0	36.8390	8	28.864	0	262.920	0	97.1	4	33.6	4	-1E+10	1	-1E+10	1	-1E+10	1	-1E+10	1	-1E+10	1	-1E+10	1
4901784	188	C	08/27/2020	10:42	-132.701	43.274	0	267.10	0	7.0790	0	36.8530	8	28.872	0	264.803	0	95.8	4	33.2	4	-1E+10	1	-1E+10	1	-1E+10	1	-1E+10	1	-1E+10	1	-1E+10	1
4901784	188	C	08/27/2020	10:42	-132.701	43.274	0	269.90	0	7.0340	0	36.8560	8	28.881	0	267.577	0	96.1	4	33.2	4	-1E+10	1	-1E+10	1	-1E+10	1	-1E+10	1	-1E+10	1	-1E+10	1
4901784	188	C	08/27/2020	10:42	-132.701	43.274	0	272.80	0	7.0190	0	36.8560	8	28.883	0	270.450	0	97.2	4	33.6	4	-1E+10	1	-1E+10	1	-1E+10	1	-1E+10	1	-1E+10	1	-1E+10	1
4901784	188	C	08/27/2020	10:42	-132.701	43.274	0	274.60	0	6.9830	0	36.8530	8	28.886	0	272.233	0	98.9	4	34.1	4	-1E+10	1	-1E+10	1	-1E+10	1	-1E+10	1	-1E+10	1	-1E+10	1
4901784	188	C	08/27/2020	10:42	-132.701	43.274	0	277.40	0	6.8840	0	36.8480	8	28.896	0	275.007	0	100.7	4	34.7	4	-1E+10	1	-1E+10	1	-1E+10	1	-1E+10	1	-1E+10	1	-1E+10	1
4901784	188	C	08/27/2020	10:42	-132.701	43.274	0	280.30	0	6.8220	0	36.8470	8	28.904	0	277.880	0	101.6	4	35.0	4	-1E+10	1	-1E+10	1	-1E+10	1	-1E+10	1	-1E+10	1	-1E+10	1
4901784	188	C	08/27/2020	10:42	-132.701	43.274	0	282.20	0	6.7940	0	36.8440	8	28.906	0	279.763	0	101.8	4	35.0	4	-1E+10	1	-1E+10	1	-1E+10	1	-1E+10	1	-1E+10	1	-1E+10	1
4901784	188	C	08/27/2020	10:42	-132.701	43.274	0	285.00	0	6.7840	0	36.8440	8	28.907	0	282.537	0	101.4	4	34.8	4	-1E+10	1	-1E+10	1	-1E+10	1	-1E+10	1	-1E+10	1	-1E+10	1
4901784	188	C	08/27/2020	10:42	-132.701	43.274	0	287.80	0	6.7690	0	36.8390	8	28.906	0	285.311	0	101.0	4	34.7	4	-1E+10	1	-1E+10	1	-1E+10	1	-1E+10	1	-1E+10	1	-1E+10	1
4901784	188	C	08/27/2020	10:42	-132.701	43.274	0	289.60	0	6.6930	0	36.8400	8	28.917	0	287.094	0	100.9	4	34.6	4	-1E+10	1	-1E+10	1	-1E+10	1	-1E+10	1	-1E+10	1	-1E+10	1
4901784	188	C	08/27/2020	10:42	-132.701	43.274	0	292.50	0	6.6600	0	36.8390	8	28.921	0	289.967	0	100.5	4	34.4	4	-1E+10	1	-1E+10	1	-1E+10	1	-1E+10	1	-1E+10	1	-1E+10	1
4901784	188	C	08/27/2020	10:42	-132.701	43.274	0	295.30	0	6.6380	0	36.8380	8	28.923	0	292.740	0	99.5	4	34.1	4	-1E+10	1	-1E+10	1	-1E+10	1	-1E+10	1	-1E+10	1	-1E+10	1
4901784	188	C	08/27/2020	10:42	-132.701	43.274	0	297.20	0	6.6310	0	36.8350	8	28.922	0	294.623	0	98.8	4	33.8	4	-1E+10	1	-1E+10	1	-1E+10	1	-1E+10	1	-1E+10	1	-1E+10	1
4901784	188	C	08/27/2020	10:42	-132.701	43.274	0	300.10	0	6.5690	0	36.8350	8	28.931	0	297.495	0	97.8	4	33.5	4	-1E+10	1	-1E+10	1	-1E+10	1	-1E+10	1	-1E+10	1	-1E+10	1
4901784	188	C	08/27/2020	10:42	-132.701	43.274	0	302.90	0	6.5300	0	36.8350	8	28.936	0	300.269	0	97.1	4	33.2	4	-1E+10	1	-1E+10	1	-1E+10	1	-1E+10	1	-1E+10	1	-1E+10	1
4901784	188	C	08/27/2020	10:42	-132.701	43.274	0	304.80	0	6.5240	0	36.8300	8	28.933	0	302.151	0	96.6	4	33.0	4	-1E+10	1	-1E+10	1	-1E+10	1	-1E+10	1	-1E+10	1	-1E+10	1
4901784	188	C	08/27/2020	10:42	-132.701	43.274	0	306.70	0	6.5040	0	36.8280	8	28.934	0	304.033	0	95.9	4	32.8	4	-1E+10	1	-1E+10	1	-1E+10	1	-1E+10	1	-1E+10	1	-1E+10	1
4901784	188	C	08/27/2020	10:42	-132.701	43.274	0	309.80	0	6.4530	0	36.8250	8	28.939	0	307.104	0	95.1	4	32.4	4	-1E+10	1	-1E+10	1	-1E+10	1	-1E+10	1	-1E+10	1	-1E+10	1
4901784	188	C	08/27/2020	10:42	-132.701	43.274	0	312.60	0	6.3920	0	36.8270	8	28.949	0	309.877	0	94.7	4	32.2	4	-1E+10	1	-1E+10	1	-1E+10	1	-1E+10	1	-1E+10	1	-1E+10	1
4901784	188	C	08/27/2020	10:42	-132.701	43.274	0	315.00	0	6.3670	0	36.8170	8	28.944	0	312.255	0	94.7	4	32.2	4	-1E+10	1	-1E+10	1	-1E+10	1	-1E+10	1	-1E+10	1	-1E+10	1
4901784	188	C	08/27/2020	10:42	-132.701	43.274	0	317.30	0	6.3540	8	36.7890	8	28.924	0	314.533	0	94.5	4	32.2	4	-1E+10	1	-1E+10	1	-1E+10	1	-1E+10	1	-1E+10	1	-1E+10	1
4901784	188	C	08/27/2020	10:42	-132.701	43.274	0	319.70	0	6.3010	8	36.7340	8	28.888	0	316.910	0	94.3	4	32.0	4	-1E+10	1	-1E+10	1	-1E+10	1	-1E+10	1	-1E+10	1	-1E+10	1
4901784	188	C	08/27/2020	10:42	-132.701	43.274	0	322.10	0	6.2390	8	36.6650	8	28.842	0	319.287	0	93.9	4	31.8	4	-1E+10	1	-1E+10	1	-1E+10	1	-1E+10	1	-1E+10	1	-1E+10	1
4901784	188	C	08/27/2020	10:42	-132.701	43.274	0	324.60	0	6.2170	8	36.6010	8	28.794	0	321.764	0	92.8	4	31.4	4	-1E+10	1	-1E+10	1	-1E+10	1	-1E+10	1	-1E+10	1	-1E+10	1
4901784	188	C	08/27/2020	10:42	-132.701	43.274	0	327.80	0	6.1900	8	36.5310	8	28.742	0	324.933	0	91.8	4	31.0	4	-1E+10	1	-1E+10	1	-1E+10	1	-1E+10	1	-1E+10	1	-1E+10	1
4901784	188	C	08/27/2020	10:42	-132.701	43.274	0	330.30	0	6.1520	0	36.5150	8	28.735	0	327.409	0	91.4	4	30.9	4	-1E+10	1	-1E+10	1	-1E+10	1	-1E+10	1	-1E+10	1	-1E+10	1
4901784	188	C	08/27/2020	10:42	-132.701	43.274	0	332.70	0	6.1380	0	36.4960	8	28.722	0	329.786	0	91.1	4	30.8	4	-1E+10	1	-1E+10	1	-1E+10	1	-1E+10	1	-1E+10	1	-1E+10	1
4901784	188	C	08/27/2020	10:42	-132.701	43.274	0	335.20	0	6.1330	0	36.4980	8	28.724	0	332.263	0	90.8	4	30.7	4	-1E+10	1	-1E+10	1	-1E+10	1	-1E+10	1	-1E+10	1	-1E+10	1
4901784	188	C	08/27/2020	10:42	-132.701	43.274	0	337.80	0	6.1130	0	36.5040	8	28.731	0	334.838	0	90.4	4	30.5	4	-1E+10	1	-1E+10	1	-1E+10	1	-1E+10	1	-1E+10	1	-1E+10	1
4901784	188	C	08/27/2020	10:42	-132.701	43.274	0	340.30	0	6.0920	0	36.4970	8	28.729	0	337.314	0	90.2	4	30.4	4	-1E+10	1	-1E+10	1	-1E+10	1	-1E+10	1	-1E+10	1	-1E+10	1
4901784	188	C	08/27/2020	10:42	-132.701	43.274	0	342.80	0	6.0820	0	36.4800	8	28.716	0	339.790	0	90.0	4	30.4	4	-1E+10	1	-1E+10	1	-1E+10	1	-1E+10	1	-1E+10	1	-1E+10	1
4901784	188	C	08/27/2020	10:42	-132.701	43.274	0	345.40	0	6.0570	0	36.4600	8	28.704	0	342.365	0	89.7	4	30.2	4	-1E+10	1	-1E+10	1	-1E+10	1	-1E+10	1	-1E+10	1	-1E+10	1
4901784	188	C	08/27/2020	10:42	-132.701	43.274	0	347.10	0	6.0390	0	36.4780	8	28.721	0	344.048	0	89.4	4	30.1	4	-1E+10	1	-1E+10	1	-1E+10	1	-1E+10	1	-1E+10	1	-1E+10	1
4901784	188	C	08/27/2020	10:42	-132.701	43.274	0	349.60	0	6.0080	0	36.4680	8	28.717	0	346.524	0	89.0	4	30.0	4	-1E+10	1	-1E+10	1	-1E+10	1	-1E+10	1	-1E+10	1	-1E+10	1
4901784	188	C	08/27/2020	10:42	-132.701	43.274	0	352.20	0	5.9830	0	36.4480	8	28.704	0	349.099	0	89.0	4	29.9	4	-1E+10	1	-1E+10	1	-1E+10	1	-1E+10	1	-1E+10	1	-1E+10	1
4901784	188	C	08/27/2020	10:42	-132.701	43.274	0	354.80	0	5.9550	0	36.4430	8	28.704	0	351.674	0	88.9	4	29.9	4	-1E+10	1	-1E+10	1	-1E+10	1	-1E+10	1	-1E+10	1	-1E+10	1
4901784	188	C	08/27/2020	10:42	-132.701	43.274	0	357.30	0	5.9350	0	36.4400	8	28.704	0	354.150	0	88.4	4	29.7	4	-1E+10	1	-1E+10	1	-1E+10	1	-1E+10	1	-1E+10	1	-1E+10	1
4901784	188	C	08/27/2020	10:42	-132.701	43.274	0	360.00	0	5.8980	0	36.4220	8	28.695	0	356.824	0	88.1	4	29.6	4	-1E+10	1	-1E+10	1	-1E+10	1	-1E+10	1	-1E+10	1	-1E+10	1
4901784	188	C	08/27/2020	10:42	-132.701	43.274	0	362.50	0	5.8470	0	36.4230	8	28.702	0	359.300	0	87.2	4	29.2	4	-1E+10	1	-1E+10	1	-1E+10	1	-1E+10	1	-1E+10	1	-1E+10	1
4901784	188	C	08/27/2020	10:42	-132.701	43.274	0	365.10	0	5.8230	0	36.4160	8	28.700	0	361.874	0	86.0	4	28.8	4	-1E+10	1	-1E+10	1	-1E+10	1	-1E+10	1	-1E+10	1	-1E+10	1
4901784	188	C	08/27/2020	10:42	-132.701	43.274	0	367.70	0	5.7880	0	36.4110	8	28.700	0	364.449	0	84.9	4	28.4	4	-1E+10	1	-1E+10	1	-1E+10	1	-1E+10	1	-1E+10	1	-1E+10	1
4901784	188	C	08/27/2020	10:42	-132.701	43.274	0	370.40	0	5.7480	0	36.4150	8	28.709	0	367.123	0	84.0	4	28.1	4	-1E+10	1	-1E+10	1	-1E+10	1	-1E+10	1	-1E+10	1	-1E+10	1
4901784	188	C	08/27/2020	10:42	-132.701	43.274	0	372.90	0	5.6960	0	36.4100	8	28.712	0	369.599	0	83.2	4	27.8	4	-1E+10	1	-1E+10	1	-1E+10	1	-1E+10	1	-1E+10	1	-1E+10	1
4901784	188	C	08/27/2020	10:42	-132.701	43.274	0	374.70	0	5.6760	0	36.3980	8	28.705	0	371.381	0	82.6	4	27.6	4	-1E+10	1	-1E+10	1	-1E+10	1	-1E+10	1	-1E+10	1	-1E+10	1
4901784	188	C	08/27/2020	10:42	-132.701	43.274	0	377.40	0	5.6350	0	36.4010	8	28.712	0	374.055	0	81.7	4	27.3	4	-1E+10	1	-1E+10	1	-1E+10	1	-1E+10	1	-1E+10	1	-1E+10	1
4901784	188	C	08/27/2020	10:42	-132.701	43.274	0	380.10	0	5.5990	0	36.4060	8	28.721	0	376.728	0	80.8	4	26.9	4	-1E+10	1	-1E+10	1	-1E+10	1	-1E+10	1	-1E+10	1	-1E+10	1
4901784	188	C	08/27/2020	10:42	-132.701	43.274	0	382.70	0	5.5700	0	36.4070	8	28.725	0	379.303	0	80.8	4	26.9	4	-1E+10	1	-1E+10	1	-1E+10	1	-1E+10	1	-1E+10	1	-1E+10	1
4901784	188	C	08/27/2020	10:42	-132.701	43.274	0	385.40	0	5.5100	0	36.4000	8	28.727	0	381.976	0	80.7	4	26.9	4	-1E+10	1	-1E+10	1	-1E+10	1	-1E+10	1	-1E+10	1	-1E+10	1
4901784	188	C	08/27/2020	10:42	-132.701	43.274	0	387.20	0	5.4940	0	36.4120	8	28.739	0	383.759	0	80.3	4	26.7	4	-1E+10	1	-1E+10	1	-1E+10	1	-1E+10	1	-1E+10	1	-1E+10	1
4901784	188	C	08/27/2020	10:42	-132.701	43.274	0	389.90	0	5.4450	0	36.3930	8	28.730	0	386.432	0	79.5	4	26.4	4	-1E+10	1	-1E+10	1	-1E+10	1	-1E+10	1	-1E+10	1	-1E+10	1
4901784	188	C	08/27/2020	10:42	-132.701	43.274	0	392.60	0	5.4230	0	36.3880	8	28.729	0	389.106	0	78.9	4	26.2	4	-1E+10	1	-1E+10	1	-1E+10	1	-1E+10	1	-1E+10	1	-1E+10	1
4901784	188	C	08/27/2020	10:42	-132.701	43.274	0	395.30	0	5.3530	0	36.3870	8	28.737	0	391.779	0	78.1	4	25.9	4	-1E+10	1	-1E+10	1	-1E+10	1	-1E+10	1	-1E+10	1	-1E+10	1
4901784	188	C	08/27/2020	10:42	-132.701	43.274	0	398.10	0	5.3320	0	36.3850	8	28.738	0	394.551	0	77.1	4	25.5	4	-1E+10	1	-1E+10	1	-1E+10	1	-1E+10	1	-1E+10	1	-1E+10	1
4901784	188	C	08/27/2020	10:42	-132.701	43.274	0	399.90	0	5.3280	0	36.3920	8	28.744	0	396.334	0	76.2	4	25.3	4	-1E+10	1	-1E+10	1	-1E+10	1	-1E+10	1	-1E+10	1	-1E+10	1
4901784	188	C	08/27/2020	10:42	-132.701	43.274	0	402.60	0	5.3280	0	36.3820	8	28.736	0	399.007	0	75.4	4	25.0	4	-1E+10	1	-1E+10	1	-1E+10	1	-1E+10	1	-1E+10	1	-1E+10	1
4901784	188	C	08/27/2020	10:42	-132.701	43.274	0	405.30	0	5.2750	0	36.3870	8	28.746	0	401.680	0	74.8	4	24.7	4	-1E+10	1	-1E+10	1	-1E+10	1	-1E+10	1	-1E+10	1	-1E+10	1
4901784	188	C	08/27/2020	10:42	-132.701	43.274	0	407.10	0	5.2380	0	36.3800	8	28.745	0	403.462	0	74.1	4	24.5	4	-1E+10	1	-1E+10	1	-1E+10	1	-1E+10	1	-1E+10	1	-1E+10	1
4901784	188	C	08/27/2020	10:42	-132.701	43.274	0	409.90	0	5.2070	0	36.3840	8	28.752	0	406.235	0	73.2	4	24.2	4	-1E+10	1	-1E+10	1	-1E+10	1	-1E+10	1	-1E+10	1	-1E+10	1
4901784	188	C	08/27/2020	10:42	-132.701	43.274	0	412.70	0	5.1950	0	36.3780	8	28.749	0	409.007	0	72.1	4	23.8	4	-1E+10	1	-1E+10	1	-1E+10	1	-1E+10	1	-1E+10	1	-1E+10	1
4901784	188	C	08/27/2020	10:42	-132.701	43.274	0	414.50	0	5.1680	0	36.3850	8	28.758	0	410.789	0	71.2	4	23.5	4	-1E+10	1	-1E+10	1	-1E+10	1	-1E+10	1	-1E+10	1	-1E+10	1
4901784	188	C	08/27/2020	10:42	-132.701	43.274	0	417.30	0	5.1540	0	36.3900	8	28.764	0	413.561	0	69.8	4	23.0	4	-1E+10	1	-1E+10	1	-1E+10	1	-1E+10	1	-1E+10	1	-1E+10	1
4901784	188	C	08/27/2020	10:42	-132.701	43.274	0	420.10	0	5.2050	0	36.3900	8	28.757	0	416.333	0	68.2	4	22.5	4	-1E+10	1	-1E+10	1	-1E+10	1	-1E+10	1	-1E+10	1	-1E+10	1
4901784	188	C	08/27/2020	10:42	-132.701	43.274	0	422.80	0	5.1400	0	36.3890	8	28.765	0	419.006	0	67.7	4	22.3	4	-1E+10	1	-1E+10	1	-1E+10	1	-1E+10	1	-1E+10	1	-1E+10	1
4901784	188	C	08/27/2020	10:42	-132.701	43.274	0	425.60	0	5.1220	0	36.3900	8	28.768	0	421.778	0	66.6	4	21.9	4	-1E+10	1	-1E+10	1	-1E+10	1	-1E+10	1	-1E+10	1	-1E+10	1
4901784	188	C	08/27/2020	10:42	-132.701	43.274	0	427.40	0	5.1230	0	36.3960	8	28.772	0	423.560	0	65.9	4	21.7	4	-1E+10	1	-1E+10	1	-1E+10	1	-1E+10	1	-1E+10	1	-1E+10	1
4901784	188	C	08/27/2020	10:42	-132.701	43.274	0	430.20	0	5.0960	0	36.3950	8	28.775	0	426.332	0	65.0	4	21.4	4	-1E+10	1	-1E+10	1	-1E+10	1	-1E+10	1	-1E+10	1	-1E+10	1
4901784	188	C	08/27/2020	10:42	-132.701	43.274	0	432.90	0	5.0450	0	36.3990	8	28.784	0	429.005	0	64.2	4	21.1	4	-1E+10	1	-1E+10	1	-1E+10	1	-1E+10	1	-1E+10	1	-1E+10	1
4901784	188	C	08/27/2020	10:42	-132.701	43.274	0	434.80	0	5.0370	0	36.4010	8	28.787	0	430.886	0	63.2	4	20.8	4	-1E+10	1	-1E+10	1	-1E+10	1	-1E+10	1	-1E+10	1	-1E+10	1
4901784	188	C	08/27/2020	10:42	-132.701	43.274	0	437.60	0	5.0350	0	36.4040	8	28.789	0	433.658	0	60.9	4	20.1	4	-1E+10	1	-1E+10	1	-1E+10	1	-1E+10	1	-1E+10	1	-1E+10	1
4901784	188	C	08/27/2020	10:42	-132.701	43.274	0	440.50	0	5.0360	0	36.4070	8	28.792	0	436.529	0	57.8	4	19.0	4	-1E+10	1	-1E+10	1	-1E+10	1	-1E+10	1	-1E+10	1	-1E+10	1
4901784	188	C	08/27/2020	10:42	-132.701	43.274	0	442.40	0	5.0780	0	36.4180	8	28.795	0	438.410	0	55.7	4	18.4	4	-1E+10	1	-1E+10	1	-1E+10	1	-1E+10	1	-1E+10	1	-1E+10	1
4901784	188	C	08/27/2020	10:42	-132.701	43.274	0	445.20	0	5.1040	0	36.4250	8	28.798	0	441.182	0	52.2	4	17.2	4	-1E+10	1	-1E+10	1	-1E+10	1	-1E+10	1	-1E+10	1	-1E+10	1
4901784	188	C	08/27/2020	10:42	-132.701	43.274	0	448.10	0	5.1560	0	36.4400	8	28.803	0	444.052	0	48.8	4	16.1	4	-1E+10	1	-1E+10	1	-1E+10	1	-1E+10	1	-1E+10	1	-1E+10	1
4901784	188	C	08/27/2020	10:42	-132.701	43.274	0	450.00	0	5.1900	0	36.4480	8	28.806	0	445.933	0	47.6	4	15.7	4	-1E+10	1	-1E+10	1	-1E+10	1	-1E+10	1	-1E+10	1	-1E+10	1
4901784	188	C	08/27/2020	10:42	-132.701	43.274	0	451.90	0	5.2120	0	36.4520	8	28.806	0	447.814	0	46.8	4	15.5	4	-1E+10	1	-1E+10	1	-1E+10	1	-1E+10	1	-1E+10	1	-1E+10	1
4901784	188	C	08/27/2020	10:42	-132.701	43.274	0	454.80	0	5.2170	0	36.4550	8	28.808	0	450.685	0	46.0	4	15.2	4	-1E+10	1	-1E+10	1	-1E+10	1	-1E+10	1	-1E+10	1	-1E+10	1
4901784	188	C	08/27/2020	10:42	-132.701	43.274	0	457.70	0	5.1960	0	36.4560	8	28.811	0	453.555	0	45.3	4	15.0	4	-1E+10	1	-1E+10	1	-1E+10	1	-1E+10	1	-1E+10	1	-1E+10	1
4901784	188	C	08/27/2020	10:42	-132.701	43.274	0	459.60	0	5.1680	0	36.4520	8	28.812	0	455.436	0	44.6	4	14.7	4	-1E+10	1	-1E+10	1	-1E+10	1	-1E+10	1	-1E+10	1	-1E+10	1
4901784	188	C	08/27/2020	10:42	-132.701	43.274	0	462.50	0	5.1630	0	36.4610	8	28.819	0	458.306	0	43.6	4	14.4	4	-1E+10	1	-1E+10	1	-1E+10	1	-1E+10	1	-1E+10	1	-1E+10	1
4901784	188	C	08/27/2020	10:42	-132.701	43.274	0	465.30	0	5.1640	0	36.4640	8	28.822	0	461.078	0	43.0	4	14.2	4	-1E+10	1	-1E+10	1	-1E+10	1	-1E+10	1	-1E+10	1	-1E+10	1
4901784	188	C	08/27/2020	10:42	-132.701	43.274	0	467.30	0	5.1460	0	36.4640	8	28.824	0	463.057	0	42.9	4	14.2	4	-1E+10	1	-1E+10	1	-1E+10	1	-1E+10	1	-1E+10	1	-1E+10	1
4901784	188	C	08/27/2020	10:42	-132.701	43.274	0	469.70	0	5.1180	0	36.4650	8	28.828	0	465.433	0	42.8	4	14.1	4	-1E+10	1	-1E+10	1	-1E+10	1	-1E+10	1	-1E+10	1	-1E+10	1
4901784	188	C	08/27/2020	10:42	-132.701	43.274	0	472.50	0	5.0990	0	36.4670	8	28.832	0	468.204	0	42.5	4	14.0	4	-1E+10	1	-1E+10	1	-1E+10	1	-1E+10	1	-1E+10	1	-1E+10	1
4901784	188	C	08/27/2020	10:42	-132.701	43.274	0	474.90	0	5.0760	0	36.4680	8	28.836	0	470.580	0	42.2	4	13.9	4	-1E+10	1	-1E+10	1	-1E+10	1	-1E+10	1	-1E+10	1	-1E+10	1
4901784	188	C	08/27/2020	10:42	-132.701	43.274	0	477.40	0	5.0610	0	36.4710	8	28.840	0	473.054	0	41.9	4	13.8	4	-1E+10	1	-1E+10	1	-1E+10	1	-1E+10	1	-1E+10	1	-1E+10	1
4901784	188	C	08/27/2020	10:42	-132.701	43.274	0	479.80	0	5.0480	0	36.4710	8	28.841	0	475.430	0	41.7	4	13.7	4	-1E+10	1	-1E+10	1	-1E+10	1	-1E+10	1	-1E+10	1	-1E+10	1
4901784	188	C	08/27/2020	10:42	-132.701	43.274	0	482.30	0	5.0410	0	36.4710	8	28.842	0	477.904	0	41.4	4	13.6	4	-1E+10	1	-1E+10	1	-1E+10	1	-1E+10	1	-1E+10	1	-1E+10	1
4901784	188	C	08/27/2020	10:42	-132.701	43.274	0	484.80	0	5.0330	0	36.4730	8	28.845	0	480.378	0	41.1	4	13.5	4	-1E+10	1	-1E+10	1	-1E+10	1	-1E+10	1	-1E+10	1	-1E+10	1
4901784	188	C	08/27/2020	10:42	-132.701	43.274	0	487.30	0	5.0280	0	36.4740	8	28.846	0	482.853	0	40.9	4	13.5	4	-1E+10	1	-1E+10	1	-1E+10	1	-1E+10	1	-1E+10	1	-1E+10	1
4901784	188	C	08/27/2020	10:42	-132.701	43.274	0	489.80	0	5.0190	0	36.4750	8	28.848	0	485.327	0	40.8	4	13.4	4	-1E+10	1	-1E+10	1	-1E+10	1	-1E+10	1	-1E+10	1	-1E+10	1
4901784	188	C	08/27/2020	10:42	-132.701	43.274	0	492.30	0	5.0110	0	36.4740	8	28.848	0	487.801	0	40.8	4	13.4	4	-1E+10	1	-1E+10	1	-1E+10	1	-1E+10	1	-1E+10	1	-1E+10	1
4901784	188	C	08/27/2020	10:42	-132.701	43.274	0	494.80	0	4.9870	0	36.4710	8	28.849	0	490.275	0	40.9	4	13.4	4	-1E+10	1	-1E+10	1	-1E+10	1	-1E+10	1	-1E+10	1	-1E+10	1
4901784	188	C	08/27/2020	10:42	-132.701	43.274	0	497.30	0	4.9380	0	36.4710	8	28.855	0	492.750	0	40.4	4	13.3	4	-1E+10	1	-1E+10	1	-1E+10	1	-1E+10	1	-1E+10	1	-1E+10	1
4901784	188	C	08/27/2020	10:42	-132.701	43.274	0	499.90	0	4.9470	0	36.4750	8	28.857	0	495.323	0	39.1	4	12.9	4	-1E+10	1	-1E+10	1	-1E+10	1	-1E+10	1	-1E+10	1	-1E+10	1
4901784	188	C	08/27/2020	10:42	-132.701	43.274	0	505.00	0	4.9540	0	36.4820	8	28.862	0	500.370	0	38.1	4	12.5	4	-1E+10	1	-1E+10	1	-1E+10	1	-1E+10	1	-1E+10	1	-1E+10	1
4901784	188	C	08/27/2020	10:42	-132.701	43.274	0	510.10	0	4.9100	0	36.4890	8	28.872	0	505.417	0	37.0	4	12.1	4	-1E+10	1	-1E+10	1	-1E+10	1	-1E+10	1	-1E+10	1	-1E+10	1
4901784	188	C	08/27/2020	10:42	-132.701	43.274	0	515.10	0	4.9090	0	36.4930	8	28.876	0	510.365	0	35.4	4	11.6	4	-1E+10	1	-1E+10	1	-1E+10	1	-1E+10	1	-1E+10	1	-1E+10	1
4901784	188	C	08/27/2020	10:42	-132.701	43.274	0	520.20	0	4.9170	0	36.5040	8	28.884	0	515.412	0	33.8	4	11.1	4	-1E+10	1	-1E+10	1	-1E+10	1	-1E+10	1	-1E+10	1	-1E+10	1
4901784	188	C	08/27/2020	10:42	-132.701	43.274	0	525.40	0	4.8950	0	36.5070	8	28.889	0	520.557	0	33.3	4	10.9	4	-1E+10	1	-1E+10	1	-1E+10	1	-1E+10	1	-1E+10	1	-1E+10	1
4901784	188	C	08/27/2020	10:42	-132.701	43.274	0	530.40	0	4.8140	0	36.5060	8	28.898	0	525.505	0	33.6	4	11.0	4	-1E+10	1	-1E+10	1	-1E+10	1	-1E+10	1	-1E+10	1	-1E+10	1
4901784	188	C	08/27/2020	10:42	-132.701	43.274	0	535.40	0	4.7240	0	36.5090	8	28.910	0	530.452	0	32.5	4	10.6	4	-1E+10	1	-1E+10	1	-1E+10	1	-1E+10	1	-1E+10	1	-1E+10	1
4901784	188	C	08/27/2020	10:42	-132.701	43.274	0	540.40	0	4.7460	0	36.5210	8	28.918	0	535.400	0	30.1	4	9.8	4	-1E+10	1	-1E+10	1	-1E+10	1	-1E+10	1	-1E+10	1	-1E+10	1
4901784	188	C	08/27/2020	10:42	-132.701	43.274	0	545.50	0	4.7920	0	36.5350	8	28.923	0	540.446	0	28.2	4	9.2	4	-1E+10	1	-1E+10	1	-1E+10	1	-1E+10	1	-1E+10	1	-1E+10	1
4901784	188	C	08/27/2020	10:42	-132.701	43.274	0	550.60	0	4.7310	0	36.5370	8	28.932	0	545.492	0	27.5	4	9.0	4	-1E+10	1	-1E+10	1	-1E+10	1	-1E+10	1	-1E+10	1	-1E+10	1
4901784	188	C	08/27/2020	10:42	-132.701	43.274	0	555.80	0	4.7700	0	36.5470	8	28.936	0	550.637	0	26.0	4	8.5	4	-1E+10	1	-1E+10	1	-1E+10	1	-1E+10	1	-1E+10	1	-1E+10	1
4901784	188	C	08/27/2020	10:42	-132.701	43.274	0	560.10	0	4.7730	0	36.5500	8	28.938	0	554.891	0	26.0	4	8.5	4	-1E+10	1	-1E+10	1	-1E+10	1	-1E+10	1	-1E+10	1	-1E+10	1
4901784	188	C	08/27/2020	10:42	-132.701	43.274	0	564.30	0	4.6850	0	36.5460	8	28.945	0	559.046	0	26.5	4	8.6	4	-1E+10	1	-1E+10	1	-1E+10	1	-1E+10	1	-1E+10	1	-1E+10	1
4901784	188	C	08/27/2020	10:42	-132.701	43.274	0	569.30	0	4.6350	0	36.5470	8	28.951	0	563.993	0	26.0	4	8.5	4	-1E+10	1	-1E+10	1	-1E+10	1	-1E+10	1	-1E+10	1	-1E+10	1
4901784	188	C	08/27/2020	10:42	-132.701	43.274	0	574.50	0	4.5700	0	36.5500	8	28.961	0	569.138	0	25.8	4	8.4	4	-1E+10	1	-1E+10	1	-1E+10	1	-1E+10	1	-1E+10	1	-1E+10	1
4901784	188	C	08/27/2020	10:42	-132.701	43.274	0	579.70	0	4.5460	0	36.5510	8	28.965	0	574.282	0	25.4	4	8.3	4	-1E+10	1	-1E+10	1	-1E+10	1	-1E+10	1	-1E+10	1	-1E+10	1
4901784	188	C	08/27/2020	10:42	-132.701	43.274	0	585.00	0	4.5320	0	36.5520	8	28.967	0	579.525	0	24.7	4	8.0	4	-1E+10	1	-1E+10	1	-1E+10	1	-1E+10	1	-1E+10	1	-1E+10	1
4901784	188	C	08/27/2020	10:42	-132.701	43.274	0	590.40	0	4.5100	0	36.5580	8	28.975	0	584.867	0	23.8	4	7.7	4	-1E+10	1	-1E+10	1	-1E+10	1	-1E+10	1	-1E+10	1	-1E+10	1
4901784	188	C	08/27/2020	10:42	-132.701	43.274	0	594.90	0	4.4890	0	36.5640	8	28.982	0	589.318	0	23.0	4	7.5	4	-1E+10	1	-1E+10	1	-1E+10	1	-1E+10	1	-1E+10	1	-1E+10	1
4901784	188	C	08/27/2020	10:42	-132.701	43.274	0	599.40	0	4.4700	0	36.5700	8	28.989	0	593.770	0	22.3	4	7.3	4	-1E+10	1	-1E+10	1	-1E+10	1	-1E+10	1	-1E+10	1	-1E+10	1
4901784	188	C	08/27/2020	10:42	-132.701	43.274	0	604.80	0	4.4670	0	36.5770	8	28.995	0	599.111	0	21.4	4	7.0	4	-1E+10	1	-1E+10	1	-1E+10	1	-1E+10	1	-1E+10	1	-1E+10	1
4901784	188	C	08/27/2020	10:42	-132.701	43.274	0	610.20	0	4.4820	0	36.5820	8	28.997	0	604.452	0	20.7	4	6.7	4	-1E+10	1	-1E+10	1	-1E+10	1	-1E+10	1	-1E+10	1	-1E+10	1
4901784	188	C	08/27/2020	10:42	-132.701	43.274	0	615.50	0	4.4390	0	36.5860	8	29.005	0	609.695	0	20.0	4	6.5	4	-1E+10	1	-1E+10	1	-1E+10	1	-1E+10	1	-1E+10	1	-1E+10	1
4901784	188	C	08/27/2020	10:42	-132.701	43.274	0	620.00	0	4.4200	0	36.5950	8	29.015	0	614.146	0	19.1	4	6.2	4	-1E+10	1	-1E+10	1	-1E+10	1	-1E+10	1	-1E+10	1	-1E+10	1
4901784	188	C	08/27/2020	10:42	-132.701	43.274	0	624.40	0	4.4170	0	36.5990	8	29.018	0	618.498	0	18.3	4	5.9	4	-1E+10	1	-1E+10	1	-1E+10	1	-1E+10	1	-1E+10	1	-1E+10	1
4901784	188	C	08/27/2020	10:42	-132.701	43.274	0	629.90	0	4.4410	0	36.6110	8	29.025	0	623.937	0	17.3	4	5.6	4	-1E+10	1	-1E+10	1	-1E+10	1	-1E+10	1	-1E+10	1	-1E+10	1
4901784	188	C	08/27/2020	10:42	-132.701	43.274	0	635.30	0	4.4280	0	36.6150	8	29.030	0	629.278	0	16.9	4	5.5	4	-1E+10	1	-1E+10	1	-1E+10	1	-1E+10	1	-1E+10	1	-1E+10	1
4901784	188	C	08/27/2020	10:42	-132.701	43.274	0	640.60	0	4.4150	0	36.6190	8	29.034	0	634.520	0	16.6	4	5.4	4	-1E+10	1	-1E+10	1	-1E+10	1	-1E+10	1	-1E+10	1	-1E+10	1
4901784	188	C	08/27/2020	10:42	-132.701	43.274	0	645.20	0	4.3700	0	36.6210	8	29.041	0	639.069	0	16.3	4	5.3	4	-1E+10	1	-1E+10	1	-1E+10	1	-1E+10	1	-1E+10	1	-1E+10	1
4901784	188	C	08/27/2020	10:42	-132.701	43.274	0	649.70	0	4.3410	0	36.6270	8	29.049	0	643.519	0	16.0	4	5.2	4	-1E+10	1	-1E+10	1	-1E+10	1	-1E+10	1	-1E+10	1	-1E+10	1
4901784	188	C	08/27/2020	10:42	-132.701	43.274	0	655.20	0	4.3340	0	36.6320	8	29.054	0	648.959	0	15.6	4	5.1	4	-1E+10	1	-1E+10	1	-1E+10	1	-1E+10	1	-1E+10	1	-1E+10	1
4901784	188	C	08/27/2020	10:42	-132.701	43.274	0	659.80	0	4.3410	0	36.6350	8	29.056	0	653.507	0	15.2	4	4.9	4	-1E+10	1	-1E+10	1	-1E+10	1	-1E+10	1	-1E+10	1	-1E+10	1
4901784	188	C	08/27/2020	10:42	-132.701	43.274	0	664.40	0	4.3220	0	36.6410	8	29.063	0	658.056	0	14.8	4	4.8	4	-1E+10	1	-1E+10	1	-1E+10	1	-1E+10	1	-1E+10	1	-1E+10	1
4901784	188	C	08/27/2020	10:42	-132.701	43.274	0	669.90	0	4.3220	0	36.6470	8	29.067	0	663.495	0	14.5	4	4.7	4	-1E+10	1	-1E+10	1	-1E+10	1	-1E+10	1	-1E+10	1	-1E+10	1
4901784	188	C	08/27/2020	10:42	-132.701	43.274	0	675.40	0	4.2910	0	36.6500	8	29.073	0	668.934	0	14.3	4	4.6	4	-1E+10	1	-1E+10	1	-1E+10	1	-1E+10	1	-1E+10	1	-1E+10	1
4901784	188	C	08/27/2020	10:42	-132.701	43.274	0	680.30	0	4.2780	0	36.6530	8	29.077	0	673.779	0	14.1	4	4.6	4	-1E+10	1	-1E+10	1	-1E+10	1	-1E+10	1	-1E+10	1	-1E+10	1
4901784	188	C	08/27/2020	10:42	-132.701	43.274	0	684.80	0	4.2490	0	36.6560	8	29.083	0	678.228	0	14.0	4	4.5	4	-1E+10	1	-1E+10	1	-1E+10	1	-1E+10	1	-1E+10	1	-1E+10	1
4901784	188	C	08/27/2020	10:42	-132.701	43.274	0	689.60	0	4.2190	0	36.6580	8	29.088	0	682.974	0	13.9	4	4.5	4	-1E+10	1	-1E+10	1	-1E+10	1	-1E+10	1	-1E+10	1	-1E+10	1
4901784	188	C	08/27/2020	10:42	-132.701	43.274	0	694.50	0	4.2160	0	36.6610	8	29.091	0	687.819	0	13.6	4	4.4	4	-1E+10	1	-1E+10	1	-1E+10	1	-1E+10	1	-1E+10	1	-1E+10	1
4901784	188	C	08/27/2020	10:42	-132.701	43.274	0	699.50	0	4.2120	0	36.6650	8	29.094	0	692.763	0	13.5	4	4.4	4	-1E+10	1	-1E+10	1	-1E+10	1	-1E+10	1	-1E+10	1	-1E+10	1
4901784	188	C	08/27/2020	10:42	-132.701	43.274	0	704.50	0	4.1900	0	36.6650	8	29.097	0	697.706	0	13.5	4	4.4	4	-1E+10	1	-1E+10	1	-1E+10	1	-1E+10	1	-1E+10	1	-1E+10	1
4901784	188	C	08/27/2020	10:42	-132.701	43.274	0	709.50	0	4.1580	0	36.6690	8	29.104	0	702.650	0	13.3	4	4.3	4	-1E+10	1	-1E+10	1	-1E+10	1	-1E+10	1	-1E+10	1	-1E+10	1
4901784	188	C	08/27/2020	10:42	-132.701	43.274	0	714.60	0	4.1520	0	36.6720	8	29.107	0	707.692	0	13.2	4	4.3	4	-1E+10	1	-1E+10	1	-1E+10	1	-1E+10	1	-1E+10	1	-1E+10	1
4901784	188	C	08/27/2020	10:42	-132.701	43.274	0	719.70	0	4.1240	0	36.6760	8	29.113	0	712.734	0	13.1	4	4.2	4	-1E+10	1	-1E+10	1	-1E+10	1	-1E+10	1	-1E+10	1	-1E+10	1
4901784	188	C	08/27/2020	10:42	-132.701	43.274	0	724.70	0	4.1080	0	36.6800	8	29.118	0	717.677	0	13.0	4	4.2	4	-1E+10	1	-1E+10	1	-1E+10	1	-1E+10	1	-1E+10	1	-1E+10	1
4901784	188	C	08/27/2020	10:42	-132.701	43.274	0	729.90	0	4.1060	0	36.6810	8	29.119	0	722.817	0	12.9	4	4.2	4	-1E+10	1	-1E+10	1	-1E+10	1	-1E+10	1	-1E+10	1	-1E+10	1
4901784	188	C	08/27/2020	10:42	-132.701	43.274	0	735.20	0	4.1070	0	36.6830	8	29.121	0	728.057	0	12.8	4	4.1	4	-1E+10	1	-1E+10	1	-1E+10	1	-1E+10	1	-1E+10	1	-1E+10	1
4901784	188	C	08/27/2020	10:42	-132.701	43.274	0	740.50	0	4.1000	0	36.6840	8	29.122	0	733.296	0	12.7	4	4.1	4	-1E+10	1	-1E+10	1	-1E+10	1	-1E+10	1	-1E+10	1	-1E+10	1
4901784	188	C	08/27/2020	10:42	-132.701	43.274	0	744.90	0	4.0800	0	36.6890	8	29.128	0	737.645	0	12.6	4	4.1	4	-1E+10	1	-1E+10	1	-1E+10	1	-1E+10	1	-1E+10	1	-1E+10	1
4901784	188	C	08/27/2020	10:42	-132.701	43.274	0	749.30	0	4.0710	0	36.6890	8	29.129	0	741.995	0	12.5	4	4.0	4	-1E+10	1	-1E+10	1	-1E+10	1	-1E+10	1	-1E+10	1	-1E+10	1
4901784	188	C	08/27/2020	10:42	-132.701	43.274	0	754.70	0	4.0500	0	36.6920	8	29.134	0	747.332	0	12.4	4	4.0	4	-1E+10	1	-1E+10	1	-1E+10	1	-1E+10	1	-1E+10	1	-1E+10	1
4901784	188	C	08/27/2020	10:42	-132.701	43.274	0	760.10	0	4.0330	0	36.6960	8	29.139	0	752.670	0	12.3	4	4.0	4	-1E+10	1	-1E+10	1	-1E+10	1	-1E+10	1	-1E+10	1	-1E+10	1
4901784	188	C	08/27/2020	10:42	-132.701	43.274	0	765.50	0	4.0160	0	36.7000	8	29.144	0	758.007	0	12.1	4	3.9	4	-1E+10	1	-1E+10	1	-1E+10	1	-1E+10	1	-1E+10	1	-1E+10	1
4901784	188	C	08/27/2020	10:42	-132.701	43.274	0	770.10	0	4.0020	0	36.7030	8	29.148	0	762.554	0	12.0	4	3.9	4	-1E+10	1	-1E+10	1	-1E+10	1	-1E+10	1	-1E+10	1	-1E+10	1
4901784	188	C	08/27/2020	10:42	-132.701	43.274	0	774.60	0	3.9960	0	36.7050	8	29.150	0	767.002	0	11.9	4	3.8	4	-1E+10	1	-1E+10	1	-1E+10	1	-1E+10	1	-1E+10	1	-1E+10	1
4901784	188	C	08/27/2020	10:42	-132.701	43.274	0	780.20	0	3.9870	0	36.7090	8	29.155	0	772.536	0	11.7	4	3.8	4	-1E+10	1	-1E+10	1	-1E+10	1	-1E+10	1	-1E+10	1	-1E+10	1
4901784	188	C	08/27/2020	10:42	-132.701	43.274	0	784.80	0	3.9800	0	36.7130	8	29.159	0	777.083	0	11.6	4	3.7	4	-1E+10	1	-1E+10	1	-1E+10	1	-1E+10	1	-1E+10	1	-1E+10	1
4901784	188	C	08/27/2020	10:42	-132.701	43.274	0	789.40	0	3.9770	0	36.7170	8	29.162	0	781.629	0	11.4	4	3.7	4	-1E+10	1	-1E+10	1	-1E+10	1	-1E+10	1	-1E+10	1	-1E+10	1
4901784	188	C	08/27/2020	10:42	-132.701	43.274	0	795.00	0	3.9550	0	36.7220	8	29.169	0	787.163	0	11.3	4	3.6	4	-1E+10	1	-1E+10	1	-1E+10	1	-1E+10	1	-1E+10	1	-1E+10	1
4901784	188	C	08/27/2020	10:42	-132.701	43.274	0	800.60	0	3.9430	0	36.7260	8	29.173	0	792.697	0	11.1	4	3.6	4	-1E+10	1	-1E+10	1	-1E+10	1	-1E+10	1	-1E+10	1	-1E+10	1
4901784	188	C	08/27/2020	10:42	-132.701	43.274	0	805.90	0	3.9320	0	36.7300	8	29.178	0	797.935	0	11.0	4	3.5	4	-1E+10	1	-1E+10	1	-1E+10	1	-1E+10	1	-1E+10	1	-1E+10	1
4901784	188	C	08/27/2020	10:42	-132.701	43.274	0	810.20	0	3.9200	0	36.7340	8	29.182	0	802.184	0	10.9	4	3.5	4	-1E+10	1	-1E+10	1	-1E+10	1	-1E+10	1	-1E+10	1	-1E+10	1
4901784	188	C	08/27/2020	10:42	-132.701	43.274	0	815.10	0	3.9200	0	36.7380	8	29.185	0	807.026	0	10.8	4	3.5	4	-1E+10	1	-1E+10	1	-1E+10	1	-1E+10	1	-1E+10	1	-1E+10	1
4901784	188	C	08/27/2020	10:42	-132.701	43.274	0	820.00	0	3.9150	0	36.7420	8	29.189	0	811.868	0	10.7	4	3.4	4	-1E+10	1	-1E+10	1	-1E+10	1	-1E+10	1	-1E+10	1	-1E+10	1
4901784	188	C	08/27/2020	10:42	-132.701	43.274	0	824.90	0	3.9020	0	36.7440	8	29.192	0	816.710	0	10.6	4	3.4	4	-1E+10	1	-1E+10	1	-1E+10	1	-1E+10	1	-1E+10	1	-1E+10	1
4901784	188	C	08/27/2020	10:42	-132.701	43.274	0	829.80	0	3.8820	0	36.7490	8	29.198	0	821.552	0	10.6	4	3.4	4	-1E+10	1	-1E+10	1	-1E+10	1	-1E+10	1	-1E+10	1	-1E+10	1
4901784	188	C	08/27/2020	10:42	-132.701	43.274	0	834.70	0	3.8510	0	36.7520	8	29.204	0	826.393	0	10.5	4	3.4	4	-1E+10	1	-1E+10	1	-1E+10	1	-1E+10	1	-1E+10	1	-1E+10	1
4901784	188	C	08/27/2020	10:42	-132.701	43.274	0	839.60	0	3.8340	0	36.7550	8	29.208	0	831.235	0	10.5	4	3.4	4	-1E+10	1	-1E+10	1	-1E+10	1	-1E+10	1	-1E+10	1	-1E+10	1
4901784	188	C	08/27/2020	10:42	-132.701	43.274	0	844.60	0	3.8220	0	36.7580	8	29.212	0	836.175	0	10.5	4	3.4	4	-1E+10	1	-1E+10	1	-1E+10	1	-1E+10	1	-1E+10	1	-1E+10	1
4901784	188	C	08/27/2020	10:42	-132.701	43.274	0	849.70	0	3.8080	0	36.7610	8	29.216	0	841.214	0	10.4	4	3.3	4	-1E+10	1	-1E+10	1	-1E+10	1	-1E+10	1	-1E+10	1	-1E+10	1
4901784	188	C	08/27/2020	10:42	-132.701	43.274	0	854.70	0	3.8000	0	36.7630	8	29.218	0	846.154	0	10.3	4	3.3	4	-1E+10	1	-1E+10	1	-1E+10	1	-1E+10	1	-1E+10	1	-1E+10	1
4901784	188	C	08/27/2020	10:42	-132.701	43.274	0	859.70	0	3.7900	0	36.7670	8	29.223	0	851.094	0	10.3	4	3.3	4	-1E+10	1	-1E+10	1	-1E+10	1	-1E+10	1	-1E+10	1	-1E+10	1
4901784	188	C	08/27/2020	10:42	-132.701	43.274	0	864.70	0	3.7810	0	36.7690	8	29.225	0	856.033	0	10.3	4	3.3	4	-1E+10	1	-1E+10	1	-1E+10	1	-1E+10	1	-1E+10	1	-1E+10	1
4901784	188	C	08/27/2020	10:42	-132.701	43.274	0	869.80	0	3.7730	0	36.7720	8	29.229	0	861.072	0	10.2	4	3.3	4	-1E+10	1	-1E+10	1	-1E+10	1	-1E+10	1	-1E+10	1	-1E+10	1
4901784	188	C	08/27/2020	10:42	-132.701	43.274	0	874.90	0	3.7700	0	36.7750	8	29.231	0	866.110	0	10.1	4	3.2	4	-1E+10	1	-1E+10	1	-1E+10	1	-1E+10	1	-1E+10	1	-1E+10	1
4901784	188	C	08/27/2020	10:42	-132.701	43.274	0	880.00	0	3.7620	0	36.7780	8	29.235	0	871.148	0	10.1	4	3.2	4	-1E+10	1	-1E+10	1	-1E+10	1	-1E+10	1	-1E+10	1	-1E+10	1
4901784	188	C	08/27/2020	10:42	-132.701	43.274	0	885.20	0	3.7480	0	36.7820	8	29.239	0	876.285	0	10.1	4	3.2	4	-1E+10	1	-1E+10	1	-1E+10	1	-1E+10	1	-1E+10	1	-1E+10	1
4901784	188	C	08/27/2020	10:42	-132.701	43.274	0	890.30	0	3.7380	0	36.7850	8	29.243	0	881.323	0	10.0	4	3.2	4	-1E+10	1	-1E+10	1	-1E+10	1	-1E+10	1	-1E+10	1	-1E+10	1
4901784	188	C	08/27/2020	10:42	-132.701	43.274	0	895.40	0	3.7230	0	36.7870	8	29.246	0	886.361	0	10.0	4	3.2	4	-1E+10	1	-1E+10	1	-1E+10	1	-1E+10	1	-1E+10	1	-1E+10	1
4901784	188	C	08/27/2020	10:42	-132.701	43.274	0	900.60	0	3.7040	0	36.7920	8	29.252	0	891.497	0	10.0	4	3.2	4	-1E+10	1	-1E+10	1	-1E+10	1	-1E+10	1	-1E+10	1	-1E+10	1
4901784	188	C	08/27/2020	10:42	-132.701	43.274	0	905.00	0	3.6970	0	36.7930	8	29.254	0	895.843	0	10.0	4	3.2	4	-1E+10	1	-1E+10	1	-1E+10	1	-1E+10	1	-1E+10	1	-1E+10	1
4901784	188	C	08/27/2020	10:42	-132.701	43.274	0	909.40	0	3.6930	0	36.7950	8	29.256	0	900.189	0	10.0	4	3.2	4	-1E+10	1	-1E+10	1	-1E+10	1	-1E+10	1	-1E+10	1	-1E+10	1
4901784	188	C	08/27/2020	10:42	-132.701	43.274	0	914.70	0	3.6840	0	36.7970	8	29.258	0	905.424	0	10.0	4	3.2	4	-1E+10	1	-1E+10	1	-1E+10	1	-1E+10	1	-1E+10	1	-1E+10	1
4901784	188	C	08/27/2020	10:42	-132.701	43.274	0	920.00	0	3.6720	0	36.8010	8	29.263	0	910.659	0	10.0	4	3.2	4	-1E+10	1	-1E+10	1	-1E+10	1	-1E+10	1	-1E+10	1	-1E+10	1
4901784	188	C	08/27/2020	10:42	-132.701	43.274	0	925.20	0	3.6640	0	36.8030	8	29.265	0	915.795	0	10.0	4	3.2	4	-1E+10	1	-1E+10	1	-1E+10	1	-1E+10	1	-1E+10	1	-1E+10	1
4901784	188	C	08/27/2020	10:42	-132.701	43.274	0	930.50	0	3.6530	0	36.8060	8	29.269	0	921.029	0	10.0	4	3.2	4	-1E+10	1	-1E+10	1	-1E+10	1	-1E+10	1	-1E+10	1	-1E+10	1
4901784	188	C	08/27/2020	10:42	-132.701	43.274	0	935.00	0	3.6420	0	36.8090	8	29.272	0	925.473	0	10.0	4	3.2	4	-1E+10	1	-1E+10	1	-1E+10	1	-1E+10	1	-1E+10	1	-1E+10	1
4901784	188	C	08/27/2020	10:42	-132.701	43.274	0	939.60	0	3.6290	0	36.8120	8	29.276	0	930.016	0	10.0	4	3.2	4	-1E+10	1	-1E+10	1	-1E+10	1	-1E+10	1	-1E+10	1	-1E+10	1
4901784	188	C	08/27/2020	10:42	-132.701	43.274	0	944.90	0	3.6200	0	36.8150	8	29.280	0	935.250	0	10.0	4	3.2	4	-1E+10	1	-1E+10	1	-1E+10	1	-1E+10	1	-1E+10	1	-1E+10	1
4901784	188	C	08/27/2020	10:42	-132.701	43.274	0	950.30	0	3.6030	0	36.8190	8	29.285	0	940.583	0	10.0	4	3.2	4	-1E+10	1	-1E+10	1	-1E+10	1	-1E+10	1	-1E+10	1	-1E+10	1
4901784	188	C	08/27/2020	10:42	-132.701	43.274	0	954.80	0	3.5900	0	36.8230	8	29.289	0	945.027	0	10.0	4	3.2	4	-1E+10	1	-1E+10	1	-1E+10	1	-1E+10	1	-1E+10	1	-1E+10	1
4901784	188	C	08/27/2020	10:42	-132.701	43.274	0	959.40	0	3.5780	0	36.8250	8	29.292	0	949.569	0	10.0	4	3.2	4	-1E+10	1	-1E+10	1	-1E+10	1	-1E+10	1	-1E+10	1	-1E+10	1
4901784	188	C	08/27/2020	10:42	-132.701	43.274	0	964.90	0	3.5640	0	36.8280	8	29.296	0	955.000	0	10.1	4	3.2	4	-1E+10	1	-1E+10	1	-1E+10	1	-1E+10	1	-1E+10	1	-1E+10	1
4901784	188	C	08/27/2020	10:42	-132.701	43.274	0	970.40	0	3.5580	0	36.8290	8	29.297	0	960.431	0	10.1	4	3.2	4	-1E+10	1	-1E+10	1	-1E+10	1	-1E+10	1	-1E+10	1	-1E+10	1
4901784	188	C	08/27/2020	10:42	-132.701	43.274	0	975.00	0	3.5510	0	36.8310	8	29.300	0	964.974	0	10.1	4	3.2	4	-1E+10	1	-1E+10	1	-1E+10	1	-1E+10	1	-1E+10	1	-1E+10	1
4901784	188	C	08/27/2020	10:42	-132.701	43.274	0	979.60	0	3.5380	0	36.8340	8	29.303	0	969.516	0	10.1	4	3.2	4	-1E+10	1	-1E+10	1	-1E+10	1	-1E+10	1	-1E+10	1	-1E+10	1
4901784	188	C	08/27/2020	10:42	-132.701	43.274	0	985.10	0	3.5290	0	36.8370	8	29.307	0	974.946	0	10.2	4	3.2	4	-1E+10	1	-1E+10	1	-1E+10	1	-1E+10	1	-1E+10	1	-1E+10	1
4901784	188	C	08/27/2020	10:42	-132.701	43.274	0	990.60	0	3.5170	0	36.8400	8	29.310	0	980.377	0	10.2	4	3.3	4	-1E+10	1	-1E+10	1	-1E+10	1	-1E+10	1	-1E+10	1	-1E+10	1
4901784	188	C	08/27/2020	10:42	-132.701	43.274	0	995.40	0	3.5050	0	36.8430	8	29.314	0	985.116	0	10.3	4	3.3	4	-1E+10	1	-1E+10	1	-1E+10	1	-1E+10	1	-1E+10	1	-1E+10	1
4901784	188	C	08/27/2020	10:42	-132.701	43.274	0	999.80	0	3.4990	0	36.8440	8	29.316	0	989.460	0	10.3	4	3.3	4	-1E+10	1	-1E+10	1	-1E+10	1	-1E+10	1	-1E+10	1	-1E+10	1
4901784	188	C	08/27/2020	10:42	-132.701	43.274	0	1004.60	0	3.4820	0	36.8490	8	29.321	0	994.199	0	10.4	4	3.3	4	-1E+10	1	-1E+10	1	-1E+10	1	-1E+10	1	-1E+10	1	-1E+10	1
4901784	188	C	08/27/2020	10:42	-132.701	43.274	0	1009.40	0	3.4710	0	36.8520	8	29.325	0	998.938	0	10.4	4	3.3	4	-1E+10	1	-1E+10	1	-1E+10	1	-1E+10	1	-1E+10	1	-1E+10	1
4901784	188	C	08/27/2020	10:42	-132.701	43.274	0	1015.00	0	3.4650	0	36.8530	8	29.326	0	1004.466	0	10.5	4	3.3	4	-1E+10	1	-1E+10	1	-1E+10	1	-1E+10	1	-1E+10	1	-1E+10	1
4901784	188	C	08/27/2020	10:42	-132.701	43.274	0	1020.70	0	3.4510	0	36.8560	8	29.330	0	1010.093	0	10.6	4	3.4	4	-1E+10	1	-1E+10	1	-1E+10	1	-1E+10	1	-1E+10	1	-1E+10	1
4901784	188	C	08/27/2020	10:42	-132.701	43.274	0	1025.70	0	3.4410	0	36.8590	8	29.334	0	1015.029	0	10.7	4	3.4	4	-1E+10	1	-1E+10	1	-1E+10	1	-1E+10	1	-1E+10	1	-1E+10	1
4901784	188	C	08/27/2020	10:42	-132.701	43.274	0	1030.60	0	3.4310	0	36.8610	8	29.336	0	1019.867	0	10.7	4	3.4	4	-1E+10	1	-1E+10	1	-1E+10	1	-1E+10	1	-1E+10	1	-1E+10	1
4901784	188	C	08/27/2020	10:42	-132.701	43.274	0	1035.50	0	3.4160	0	36.8650	8	29.341	0	1024.704	0	10.9	4	3.5	4	-1E+10	1	-1E+10	1	-1E+10	1	-1E+10	1	-1E+10	1	-1E+10	1
4901784	188	C	08/27/2020	10:42	-132.701	43.274	0	1040.60	0	3.4010	0	36.8690	8	29.346	0	1029.738	0	11.0	4	3.5	4	-1E+10	1	-1E+10	1	-1E+10	1	-1E+10	1	-1E+10	1	-1E+10	1
4901784	188	C	08/27/2020	10:42	-132.701	43.274	0	1045.60	0	3.3870	0	36.8720	8	29.350	0	1034.673	0	11.1	4	3.5	4	-1E+10	1	-1E+10	1	-1E+10	1	-1E+10	1	-1E+10	1	-1E+10	1
4901784	188	C	08/27/2020	10:42	-132.701	43.274	0	1050.80	0	3.3790	0	36.8740	8	29.352	0	1039.806	0	11.1	4	3.5	4	-1E+10	1	-1E+10	1	-1E+10	1	-1E+10	1	-1E+10	1	-1E+10	1
4901784	188	C	08/27/2020	10:42	-132.701	43.274	0	1055.00	0	3.3690	0	36.8750	8	29.354	0	1043.952	0	11.2	4	3.5	4	-1E+10	1	-1E+10	1	-1E+10	1	-1E+10	1	-1E+10	1	-1E+10	1
4901784	188	C	08/27/2020	10:42	-132.701	43.274	0	1059.30	0	3.3530	0	36.8780	8	29.358	0	1048.196	0	11.3	4	3.6	4	-1E+10	1	-1E+10	1	-1E+10	1	-1E+10	1	-1E+10	1	-1E+10	1
4901784	188	C	08/27/2020	10:42	-132.701	43.274	0	1064.50	0	3.3430	0	36.8800	8	29.361	0	1053.328	0	11.3	4	3.6	4	-1E+10	1	-1E+10	1	-1E+10	1	-1E+10	1	-1E+10	1	-1E+10	1
4901784	188	C	08/27/2020	10:42	-132.701	43.274	0	1069.70	0	3.3280	0	36.8830	8	29.365	0	1058.461	0	11.4	4	3.6	4	-1E+10	1	-1E+10	1	-1E+10	1	-1E+10	1	-1E+10	1	-1E+10	1
4901784	188	C	08/27/2020	10:42	-132.701	43.274	0	1075.00	0	3.3180	0	36.8850	8	29.367	0	1063.692	0	11.5	4	3.7	4	-1E+10	1	-1E+10	1	-1E+10	1	-1E+10	1	-1E+10	1	-1E+10	1
4901784	188	C	08/27/2020	10:42	-132.701	43.274	0	1080.30	0	3.3140	0	36.8870	8	29.369	0	1068.922	0	11.6	4	3.7	4	-1E+10	1	-1E+10	1	-1E+10	1	-1E+10	1	-1E+10	1	-1E+10	1
4901784	188	C	08/27/2020	10:42	-132.701	43.274	0	1085.50	0	3.3060	0	36.8890	8	29.372	0	1074.054	0	11.7	4	3.7	4	-1E+10	1	-1E+10	1	-1E+10	1	-1E+10	1	-1E+10	1	-1E+10	1
4901784	188	C	08/27/2020	10:42	-132.701	43.274	0	1090.00	0	3.2980	0	36.8910	8	29.374	0	1078.495	0	11.8	4	3.7	4	-1E+10	1	-1E+10	1	-1E+10	1	-1E+10	1	-1E+10	1	-1E+10	1
4901784	188	C	08/27/2020	10:42	-132.701	43.274	0	1094.40	0	3.2880	0	36.8930	8	29.377	0	1082.838	0	11.9	4	3.8	4	-1E+10	1	-1E+10	1	-1E+10	1	-1E+10	1	-1E+10	1	-1E+10	1
4901784	188	C	08/27/2020	10:42	-132.701	43.274	0	1099.80	0	3.2730	0	36.8950	8	29.380	0	1088.166	0	12.1	4	3.8	4	-1E+10	1	-1E+10	1	-1E+10	1	-1E+10	1	-1E+10	1	-1E+10	1
4901784	188	C	08/27/2020	10:42	-132.701	43.274	0	1105.10	0	3.2590	0	36.8990	8	29.385	0	1093.397	0	12.2	4	3.9	4	-1E+10	1	-1E+10	1	-1E+10	1	-1E+10	1	-1E+10	1	-1E+10	1
4901784	188	C	08/27/2020	10:42	-132.701	43.274	0	1110.50	0	3.2530	0	36.9000	8	29.386	0	1098.725	0	12.3	4	3.9	4	-1E+10	1	-1E+10	1	-1E+10	1	-1E+10	1	-1E+10	1	-1E+10	1
4901784	188	C	08/27/2020	10:42	-132.701	43.274	0	1115.00	0	3.2450	0	36.9020	8	29.388	0	1103.166	0	12.4	4	3.9	4	-1E+10	1	-1E+10	1	-1E+10	1	-1E+10	1	-1E+10	1	-1E+10	1
4901784	188	C	08/27/2020	10:42	-132.701	43.274	0	1119.50	0	3.2380	0	36.9030	8	29.390	0	1107.606	0	12.5	4	3.9	4	-1E+10	1	-1E+10	1	-1E+10	1	-1E+10	1	-1E+10	1	-1E+10	1
4901784	188	C	08/27/2020	10:42	-132.701	43.274	0	1125.10	0	3.2260	0	36.9050	8	29.393	0	1113.132	0	12.6	4	4.0	4	-1E+10	1	-1E+10	1	-1E+10	1	-1E+10	1	-1E+10	1	-1E+10	1
4901784	188	C	08/27/2020	10:42	-132.701	43.274	0	1129.70	0	3.2160	0	36.9080	8	29.396	0	1117.671	0	12.7	4	4.0	4	-1E+10	1	-1E+10	1	-1E+10	1	-1E+10	1	-1E+10	1	-1E+10	1
4901784	188	C	08/27/2020	10:42	-132.701	43.274	0	1134.40	0	3.2070	0	36.9090	8	29.398	0	1122.308	0	12.8	4	4.1	4	-1E+10	1	-1E+10	1	-1E+10	1	-1E+10	1	-1E+10	1	-1E+10	1
4901784	188	C	08/27/2020	10:42	-132.701	43.274	0	1140.10	0	3.1920	0	36.9110	8	29.401	0	1127.932	0	13.0	4	4.1	4	-1E+10	1	-1E+10	1	-1E+10	1	-1E+10	1	-1E+10	1	-1E+10	1
4901784	188	C	08/27/2020	10:42	-132.701	43.274	0	1144.80	0	3.1840	0	36.9130	8	29.404	0	1132.569	0	13.1	4	4.1	4	-1E+10	1	-1E+10	1	-1E+10	1	-1E+10	1	-1E+10	1	-1E+10	1
4901784	188	C	08/27/2020	10:42	-132.701	43.274	0	1150.10	0	3.1690	0	36.9160	8	29.407	0	1137.798	0	13.3	4	4.2	4	-1E+10	1	-1E+10	1	-1E+10	1	-1E+10	1	-1E+10	1	-1E+10	1
4901784	188	C	08/27/2020	10:42	-132.701	43.274	0	1155.20	0	3.1580	0	36.9190	8	29.411	0	1142.830	0	13.3	4	4.2	4	-1E+10	1	-1E+10	1	-1E+10	1	-1E+10	1	-1E+10	1	-1E+10	1
4901784	188	C	08/27/2020	10:42	-132.701	43.274	0	1160.00	0	3.1540	0	36.9200	8	29.412	0	1147.565	0	13.4	4	4.2	4	-1E+10	1	-1E+10	1	-1E+10	1	-1E+10	1	-1E+10	1	-1E+10	1
4901784	188	C	08/27/2020	10:42	-132.701	43.274	0	1164.80	0	3.1480	0	36.9210	8	29.414	0	1152.301	0	13.5	4	4.3	4	-1E+10	1	-1E+10	1	-1E+10	1	-1E+10	1	-1E+10	1	-1E+10	1
4901784	188	C	08/27/2020	10:42	-132.701	43.274	0	1169.70	0	3.1390	0	36.9220	8	29.415	0	1157.135	0	13.7	4	4.3	4	-1E+10	1	-1E+10	1	-1E+10	1	-1E+10	1	-1E+10	1	-1E+10	1
4901784	188	C	08/27/2020	10:42	-132.701	43.274	0	1174.70	0	3.1280	0	36.9250	8	29.419	0	1162.067	0	13.8	4	4.4	4	-1E+10	1	-1E+10	1	-1E+10	1	-1E+10	1	-1E+10	1	-1E+10	1
4901784	188	C	08/27/2020	10:42	-132.701	43.274	0	1179.60	0	3.1180	0	36.9270	8	29.421	0	1166.901	0	13.9	4	4.4	4	-1E+10	1	-1E+10	1	-1E+10	1	-1E+10	1	-1E+10	1	-1E+10	1
4901784	188	C	08/27/2020	10:42	-132.701	43.274	0	1184.50	0	3.1140	0	36.9280	8	29.423	0	1171.734	0	14.0	4	4.4	4	-1E+10	1	-1E+10	1	-1E+10	1	-1E+10	1	-1E+10	1	-1E+10	1
4901784	188	C	08/27/2020	10:42	-132.701	43.274	0	1189.50	0	3.1080	0	36.9290	8	29.424	0	1176.667	0	14.1	4	4.5	4	-1E+10	1	-1E+10	1	-1E+10	1	-1E+10	1	-1E+10	1	-1E+10	1
4901784	188	C	08/27/2020	10:42	-132.701	43.274	0	1194.50	0	3.0990	0	36.9300	8	29.426	0	1181.599	0	14.3	4	4.5	4	-1E+10	1	-1E+10	1	-1E+10	1	-1E+10	1	-1E+10	1	-1E+10	1
4901784	188	C	08/27/2020	10:42	-132.701	43.274	0	1199.50	0	3.0930	0	36.9330	8	29.429	0	1186.530	0	14.5	4	4.6	4	-1E+10	1	-1E+10	1	-1E+10	1	-1E+10	1	-1E+10	1	-1E+10	1
4901784	188	C	08/27/2020	10:42	-132.701	43.274	0	1204.50	0	3.0880	0	36.9340	8	29.430	0	1191.462	0	14.6	4	4.6	4	-1E+10	1	-1E+10	1	-1E+10	1	-1E+10	1	-1E+10	1	-1E+10	1
4901784	188	C	08/27/2020	10:42	-132.701	43.274	0	1209.60	0	3.0730	0	36.9360	8	29.433	0	1196.492	0	14.7	4	4.6	4	-1E+10	1	-1E+10	1	-1E+10	1	-1E+10	1	-1E+10	1	-1E+10	1
4901784	188	C	08/27/2020	10:42	-132.701	43.274	0	1214.70	0	3.0640	0	36.9370	8	29.435	0	1201.523	0	14.8	4	4.7	4	-1E+10	1	-1E+10	1	-1E+10	1	-1E+10	1	-1E+10	1	-1E+10	1
4901784	188	C	08/27/2020	10:42	-132.701	43.274	0	1219.80	0	3.0560	0	36.9380	8	29.437	0	1206.553	0	14.9	4	4.7	4	-1E+10	1	-1E+10	1	-1E+10	1	-1E+10	1	-1E+10	1	-1E+10	1
4901784	188	C	08/27/2020	10:42	-132.701	43.274	0	1225.00	0	3.0490	0	36.9400	8	29.439	0	1211.681	0	15.0	4	4.7	4	-1E+10	1	-1E+10	1	-1E+10	1	-1E+10	1	-1E+10	1	-1E+10	1
4901784	188	C	08/27/2020	10:42	-132.701	43.274	0	1230.10	0	3.0440	0	36.9410	8	29.440	0	1216.711	0	15.2	4	4.8	4	-1E+10	1	-1E+10	1	-1E+10	1	-1E+10	1	-1E+10	1	-1E+10	1
4901784	188	C	08/27/2020	10:42	-132.701	43.274	0	1235.30	0	3.0400	0	36.9430	8	29.442	0	1221.839	0	15.4	4	4.9	4	-1E+10	1	-1E+10	1	-1E+10	1	-1E+10	1	-1E+10	1	-1E+10	1
4901784	188	C	08/27/2020	10:42	-132.701	43.274	0	1240.40	0	3.0280	0	36.9450	8	29.445	0	1226.869	0	15.6	4	4.9	4	-1E+10	1	-1E+10	1	-1E+10	1	-1E+10	1	-1E+10	1	-1E+10	1
4901784	188	C	08/27/2020	10:42	-132.701	43.274	0	1245.60	0	3.0130	0	36.9480	8	29.449	0	1231.997	0	15.8	4	5.0	4	-1E+10	1	-1E+10	1	-1E+10	1	-1E+10	1	-1E+10	1	-1E+10	1
4901784	188	C	08/27/2020	10:42	-132.701	43.274	0	1249.90	0	3.0100	0	36.9490	8	29.450	0	1236.237	0	16.0	4	5.0	4	-1E+10	1	-1E+10	1	-1E+10	1	-1E+10	1	-1E+10	1	-1E+10	1
4901784	188	C	08/27/2020	10:42	-132.701	43.274	0	1254.30	0	3.0090	0	36.9500	8	29.451	0	1240.576	0	16.2	4	5.1	4	-1E+10	1	-1E+10	1	-1E+10	1	-1E+10	1	-1E+10	1	-1E+10	1
4901784	188	C	08/27/2020	10:42	-132.701	43.274	0	1259.50	0	3.0060	0	36.9510	8	29.452	0	1245.704	0	16.2	4	5.1	4	-1E+10	1	-1E+10	1	-1E+10	1	-1E+10	1	-1E+10	1	-1E+10	1
4901784	188	C	08/27/2020	10:42	-132.701	43.274	0	1264.80	0	2.9910	0	36.9520	8	29.454	0	1250.930	0	16.4	4	5.1	4	-1E+10	1	-1E+10	1	-1E+10	1	-1E+10	1	-1E+10	1	-1E+10	1
4901784	188	C	08/27/2020	10:42	-132.701	43.274	0	1270.00	0	2.9750	0	36.9550	8	29.458	0	1256.058	0	16.6	4	5.2	4	-1E+10	1	-1E+10	1	-1E+10	1	-1E+10	1	-1E+10	1	-1E+10	1
4901784	188	C	08/27/2020	10:42	-132.701	43.274	0	1275.20	0	2.9720	0	36.9570	8	29.460	0	1261.185	0	16.8	4	5.3	4	-1E+10	1	-1E+10	1	-1E+10	1	-1E+10	1	-1E+10	1	-1E+10	1
4901784	188	C	08/27/2020	10:42	-132.701	43.274	0	1280.60	0	2.9660	0	36.9580	8	29.462	0	1266.510	0	16.9	4	5.3	4	-1E+10	1	-1E+10	1	-1E+10	1	-1E+10	1	-1E+10	1	-1E+10	1
4901784	188	C	08/27/2020	10:42	-132.701	43.274	0	1284.90	0	2.9560	0	36.9590	8	29.464	0	1270.749	0	17.0	4	5.3	4	-1E+10	1	-1E+10	1	-1E+10	1	-1E+10	1	-1E+10	1	-1E+10	1
4901784	188	C	08/27/2020	10:42	-132.701	43.274	0	1289.40	0	2.9480	0	36.9590	8	29.464	0	1275.186	0	17.0	4	5.3	4	-1E+10	1	-1E+10	1	-1E+10	1	-1E+10	1	-1E+10	1	-1E+10	1
4901784	188	C	08/27/2020	10:42	-132.701	43.274	0	1294.70	0	2.9330	0	36.9620	8	29.468	0	1280.412	0	17.3	4	5.4	4	-1E+10	1	-1E+10	1	-1E+10	1	-1E+10	1	-1E+10	1	-1E+10	1
4901784	188	C	08/27/2020	10:42	-132.701	43.274	0	1299.90	0	2.9290	0	36.9630	8	29.469	0	1285.538	0	17.5	4	5.5	4	-1E+10	1	-1E+10	1	-1E+10	1	-1E+10	1	-1E+10	1	-1E+10	1
4901784	188	C	08/27/2020	10:42	-132.701	43.274	0	1305.30	0	2.9140	0	36.9650	8	29.473	0	1290.862	0	17.6	4	5.5	4	-1E+10	1	-1E+10	1	-1E+10	1	-1E+10	1	-1E+10	1	-1E+10	1
4901784	188	C	08/27/2020	10:42	-132.701	43.274	0	1310.50	0	2.9020	0	36.9660	8	29.475	0	1295.989	0	17.7	4	5.6	4	-1E+10	1	-1E+10	1	-1E+10	1	-1E+10	1	-1E+10	1	-1E+10	1
4901784	188	C	08/27/2020	10:42	-132.701	43.274	0	1314.90	0	2.8930	0	36.9680	8	29.477	0	1300.326	0	17.9	4	5.6	4	-1E+10	1	-1E+10	1	-1E+10	1	-1E+10	1	-1E+10	1	-1E+10	1
4901784	188	C	08/27/2020	10:42	-132.701	43.274	0	1319.40	0	2.8860	0	36.9690	8	29.479	0	1304.763	0	18.0	4	5.7	4	-1E+10	1	-1E+10	1	-1E+10	1	-1E+10	1	-1E+10	1	-1E+10	1
4901784	188	C	08/27/2020	10:42	-132.701	43.274	0	1324.70	0	2.8780	0	36.9700	8	29.480	0	1309.987	0	18.2	4	5.7	4	-1E+10	1	-1E+10	1	-1E+10	1	-1E+10	1	-1E+10	1	-1E+10	1
4901784	188	C	08/27/2020	10:42	-132.701	43.274	0	1330.10	0	2.8700	0	36.9720	8	29.483	0	1315.310	0	18.4	4	5.8	4	-1E+10	1	-1E+10	1	-1E+10	1	-1E+10	1	-1E+10	1	-1E+10	1
4901784	188	C	08/27/2020	10:42	-132.701	43.274	0	1335.50	0	2.8610	0	36.9740	8	29.485	0	1320.633	0	18.7	4	5.9	4	-1E+10	1	-1E+10	1	-1E+10	1	-1E+10	1	-1E+10	1	-1E+10	1
4901784	188	C	08/27/2020	10:42	-132.701	43.274	0	1340.10	0	2.8570	0	36.9750	8	29.486	0	1325.168	0	18.8	4	5.9	4	-1E+10	1	-1E+10	1	-1E+10	1	-1E+10	1	-1E+10	1	-1E+10	1
4901784	188	C	08/27/2020	10:42	-132.701	43.274	0	1345.50	0	2.8490	0	36.9760	8	29.488	0	1330.491	0	19.0	4	6.0	4	-1E+10	1	-1E+10	1	-1E+10	1	-1E+10	1	-1E+10	1	-1E+10	1
4901784	188	C	08/27/2020	10:42	-132.701	43.274	0	1350.10	0	2.8400	0	36.9780	8	29.490	0	1335.025	0	19.2	4	6.0	4	-1E+10	1	-1E+10	1	-1E+10	1	-1E+10	1	-1E+10	1	-1E+10	1
4901784	188	C	08/27/2020	10:42	-132.701	43.274	0	1354.90	0	2.8320	0	36.9790	8	29.492	0	1339.756	0	19.3	4	6.1	4	-1E+10	1	-1E+10	1	-1E+10	1	-1E+10	1	-1E+10	1	-1E+10	1
4901784	188	C	08/27/2020	10:42	-132.701	43.274	0	1359.90	0	2.8270	0	36.9810	8	29.494	0	1344.684	0	19.5	4	6.1	4	-1E+10	1	-1E+10	1	-1E+10	1	-1E+10	1	-1E+10	1	-1E+10	1
4901784	188	C	08/27/2020	10:42	-132.701	43.274	0	1364.90	0	2.8240	0	36.9810	8	29.494	0	1349.612	0	19.7	4	6.2	4	-1E+10	1	-1E+10	1	-1E+10	1	-1E+10	1	-1E+10	1	-1E+10	1
4901784	188	C	08/27/2020	10:42	-132.701	43.274	0	1370.10	0	2.8190	0	36.9830	8	29.496	0	1354.737	0	19.9	4	6.2	4	-1E+10	1	-1E+10	1	-1E+10	1	-1E+10	1	-1E+10	1	-1E+10	1
4901784	188	C	08/27/2020	10:42	-132.701	43.274	0	1375.20	0	2.8160	0	36.9840	8	29.498	0	1359.764	0	20.1	4	6.3	4	-1E+10	1	-1E+10	1	-1E+10	1	-1E+10	1	-1E+10	1	-1E+10	1
4901784	188	C	08/27/2020	10:42	-132.701	43.274	0	1380.40	0	2.8070	0	36.9860	8	29.500	0	1364.888	0	20.4	4	6.4	4	-1E+10	1	-1E+10	1	-1E+10	1	-1E+10	1	-1E+10	1	-1E+10	1
4901784	188	C	08/27/2020	10:42	-132.701	43.274	0	1385.60	0	2.7990	0	36.9870	8	29.502	0	1370.013	0	20.5	4	6.4	4	-1E+10	1	-1E+10	1	-1E+10	1	-1E+10	1	-1E+10	1	-1E+10	1
4901784	188	C	08/27/2020	10:42	-132.701	43.274	0	1390.00	0	2.7890	0	36.9880	8	29.503	0	1374.349	0	20.6	4	6.4	4	-1E+10	1	-1E+10	1	-1E+10	1	-1E+10	1	-1E+10	1	-1E+10	1
4901784	188	C	08/27/2020	10:42	-132.701	43.274	0	1394.30	0	2.7770	0	36.9890	8	29.505	0	1378.587	0	20.7	4	6.5	4	-1E+10	1	-1E+10	1	-1E+10	1	-1E+10	1	-1E+10	1	-1E+10	1
4901784	188	C	08/27/2020	10:42	-132.701	43.274	0	1399.50	0	2.7600	0	36.9900	8	29.508	0	1383.711	0	20.8	4	6.5	4	-1E+10	1	-1E+10	1	-1E+10	1	-1E+10	1	-1E+10	1	-1E+10	1
4901784	188	C	08/27/2020	10:42	-132.701	43.274	0	1404.70	0	2.7500	0	36.9910	8	29.510	0	1388.835	0	21.0	4	6.6	4	-1E+10	1	-1E+10	1	-1E+10	1	-1E+10	1	-1E+10	1	-1E+10	1
4901784	188	C	08/27/2020	10:42	-132.701	43.274	0	1409.90	0	2.7420	0	36.9940	8	29.513	0	1393.960	0	21.4	4	6.7	4	-1E+10	1	-1E+10	1	-1E+10	1	-1E+10	1	-1E+10	1	-1E+10	1
4901784	188	C	08/27/2020	10:42	-132.701	43.274	0	1415.10	0	2.7330	0	36.9960	8	29.515	0	1399.083	0	21.7	4	6.8	4	-1E+10	1	-1E+10	1	-1E+10	1	-1E+10	1	-1E+10	1	-1E+10	1
4901784	188	C	08/27/2020	10:42	-132.701	43.274	0	1420.30	0	2.7190	0	36.9980	8	29.518	0	1404.207	0	21.9	4	6.8	4	-1E+10	1	-1E+10	1	-1E+10	1	-1E+10	1	-1E+10	1	-1E+10	1
4901784	188	C	08/27/2020	10:42	-132.701	43.274	0	1425.50	0	2.7080	0	36.9990	8	29.520	0	1409.331	0	22.0	4	6.9	4	-1E+10	1	-1E+10	1	-1E+10	1	-1E+10	1	-1E+10	1	-1E+10	1
4901784	188	C	08/27/2020	10:42	-132.701	43.274	0	1429.90	0	2.6990	0	37.0010	8	29.523	0	1413.666	0	22.3	4	7.0	4	-1E+10	1	-1E+10	1	-1E+10	1	-1E+10	1	-1E+10	1	-1E+10	1
4901784	188	C	08/27/2020	10:42	-132.701	43.274	0	1434.20	0	2.6880	0	37.0030	8	29.525	0	1417.903	0	22.5	4	7.0	4	-1E+10	1	-1E+10	1	-1E+10	1	-1E+10	1	-1E+10	1	-1E+10	1
4901784	188	C	08/27/2020	10:42	-132.701	43.274	0	1439.50	0	2.6760	0	37.0050	8	29.528	0	1423.125	0	22.7	4	7.1	4	-1E+10	1	-1E+10	1	-1E+10	1	-1E+10	1	-1E+10	1	-1E+10	1
4901784	188	C	08/27/2020	10:42	-132.701	43.274	0	1444.90	0	2.6690	0	37.0090	8	29.532	0	1428.445	0	22.9	4	7.2	4	-1E+10	1	-1E+10	1	-1E+10	1	-1E+10	1	-1E+10	1	-1E+10	1
4901784	188	C	08/27/2020	10:42	-132.701	43.274	0	1450.20	0	2.6590	0	37.0100	8	29.534	0	1433.667	0	23.2	4	7.3	4	-1E+10	1	-1E+10	1	-1E+10	1	-1E+10	1	-1E+10	1	-1E+10	1
4901784	188	C	08/27/2020	10:42	-132.701	43.274	0	1455.50	0	2.6470	0	37.0130	8	29.537	0	1438.889	0	23.6	4	7.4	4	-1E+10	1	-1E+10	1	-1E+10	1	-1E+10	1	-1E+10	1	-1E+10	1
4901784	188	C	08/27/2020	10:42	-132.701	43.274	0	1459.90	0	2.6390	0	37.0160	8	29.540	0	1443.223	0	23.9	4	7.5	4	-1E+10	1	-1E+10	1	-1E+10	1	-1E+10	1	-1E+10	1	-1E+10	1
4901784	188	C	08/27/2020	10:42	-132.701	43.274	0	1464.40	0	2.6340	0	37.0200	8	29.544	0	1447.657	0	24.3	4	7.6	4	-1E+10	1	-1E+10	1	-1E+10	1	-1E+10	1	-1E+10	1	-1E+10	1
4901784	188	C	08/27/2020	10:42	-132.701	43.274	0	1469.70	0	2.6260	0	37.0250	8	29.549	0	1452.878	0	25.0	4	7.8	4	-1E+10	1	-1E+10	1	-1E+10	1	-1E+10	1	-1E+10	1	-1E+10	1
4901784	188	C	08/27/2020	10:42	-132.701	43.274	0	1474.90	0	2.6270	0	37.0290	8	29.552	0	1458.000	0	25.3	4	7.9	4	-1E+10	1	-1E+10	1	-1E+10	1	-1E+10	1	-1E+10	1	-1E+10	1
4901784	188	C	08/27/2020	10:42	-132.701	43.274	0	1480.10	0	2.6100	0	37.0300	8	29.554	0	1463.123	0	25.2	4	7.9	4	-1E+10	1	-1E+10	1	-1E+10	1	-1E+10	1	-1E+10	1	-1E+10	1
4901784	188	C	08/27/2020	10:42	-132.701	43.274	0	1484.90	0	2.5970	0	37.0350	8	29.560	0	1467.851	0	25.5	4	8.0	4	-1E+10	1	-1E+10	1	-1E+10	1	-1E+10	1	-1E+10	1	-1E+10	1
4901784	188	C	08/27/2020	10:42	-132.701	43.274	0	1489.80	0	2.5840	0	37.0370	8	29.562	0	1472.678	0	25.8	4	8.0	4	-1E+10	1	-1E+10	1	-1E+10	1	-1E+10	1	-1E+10	1	-1E+10	1
4901784	188	C	08/27/2020	10:42	-132.701	43.274	0	1494.80	0	2.5710	0	37.0440	8	29.569	0	1477.603	0	26.1	4	8.1	4	-1E+10	1	-1E+10	1	-1E+10	1	-1E+10	1	-1E+10	1	-1E+10	1
4901784	188	C	08/27/2020	10:42	-132.701	43.274	0	1499.70	0	2.5610	0	37.0480	8	29.573	0	1482.429	0	26.3	4	8.2	4	-1E+10	1	-1E+10	1	-1E+10	1	-1E+10	1	-1E+10	1	-1E+10	1
4901784	188	C	08/27/2020	10:42	-132.701	43.274	0	1504.70	0	2.5530	0	37.0540	8	29.579	0	1487.354	0	26.7	4	8.3	4	-1E+10	1	-1E+10	1	-1E+10	1	-1E+10	1	-1E+10	1	-1E+10	1
4901784	188	C	08/27/2020	10:42	-132.701	43.274	0	1509.60	0	2.5380	0	37.0620	8	29.587	0	1492.180	0	27.0	4	8.4	4	-1E+10	1	-1E+10	1	-1E+10	1	-1E+10	1	-1E+10	1	-1E+10	1
4901784	188	C	08/27/2020	10:42	-132.701	43.274	0	1514.70	0	2.5310	0	37.0750	8	29.598	0	1497.203	0	27.3	4	8.5	4	-1E+10	1	-1E+10	1	-1E+10	1	-1E+10	1	-1E+10	1	-1E+10	1
4901784	188	C	08/27/2020	10:42	-132.701	43.274	0	1519.70	0	2.5200	0	37.0810	8	29.604	0	1502.128	0	27.7	4	8.6	4	-1E+10	1	-1E+10	1	-1E+10	1	-1E+10	1	-1E+10	1	-1E+10	1
4901784	188	C	08/27/2020	10:42	-132.701	43.274	0	1524.80	0	2.5050	0	37.0950	8	29.616	0	1507.151	0	28.0	4	8.7	4	-1E+10	1	-1E+10	1	-1E+10	1	-1E+10	1	-1E+10	1	-1E+10	1
4901784	188	C	08/27/2020	10:42	-132.701	43.274	0	1529.90	0	2.4960	0	37.0970	8	29.619	0	1512.173	0	28.3	4	8.8	4	-1E+10	1	-1E+10	1	-1E+10	1	-1E+10	1	-1E+10	1	-1E+10	1
4901784	188	C	08/27/2020	10:42	-132.701	43.274	0	1535.10	0	2.4900	0	37.1200	8	29.638	0	1517.294	0	28.5	4	8.9	4	-1E+10	1	-1E+10	1	-1E+10	1	-1E+10	1	-1E+10	1	-1E+10	1
4901784	188	C	08/27/2020	10:42	-132.701	43.274	0	1540.20	0	2.4850	0	37.1240	8	29.641	0	1522.317	0	28.9	4	9.0	4	-1E+10	1	-1E+10	1	-1E+10	1	-1E+10	1	-1E+10	1	-1E+10	1
4901784	188	C	08/27/2020	10:42	-132.701	43.274	0	1545.30	0	2.4750	0	37.1140	8	29.634	0	1527.339	0	29.3	4	9.1	4	-1E+10	1	-1E+10	1	-1E+10	1	-1E+10	1	-1E+10	1	-1E+10	1
4901784	188	C	08/27/2020	10:42	-132.701	43.274	0	1550.50	0	2.4610	0	37.1300	8	29.648	0	1532.460	0	29.9	4	9.3	4	-1E+10	1	-1E+10	1	-1E+10	1	-1E+10	1	-1E+10	1	-1E+10	1
4901784	188	C	08/27/2020	10:42	-132.701	43.274	0	1555.70	0	2.4420	0	37.1370	8	29.656	0	1537.581	0	30.4	4	9.4	4	-1E+10	1	-1E+10	1	-1E+10	1	-1E+10	1	-1E+10	1	-1E+10	1
4901784	188	C	08/27/2020	10:42	-132.701	43.274	0	1560.10	0	2.4300	0	37.1320	8	29.653	0	1541.913	0	30.8	4	9.6	4	-1E+10	1	-1E+10	1	-1E+10	1	-1E+10	1	-1E+10	1	-1E+10	1
4901784	188	C	08/27/2020	10:42	-132.701	43.274	0	1564.50	0	2.4190	0	37.1520	8	29.670	0	1546.246	0	31.2	4	9.7	4	-1E+10	1	-1E+10	1	-1E+10	1	-1E+10	1	-1E+10	1	-1E+10	1
4901784	188	C	08/27/2020	10:42	-132.701	43.274	0	1569.80	0	2.4080	0	37.1540	8	29.673	0	1551.465	0	31.6	4	9.8	4	-1E+10	1	-1E+10	1	-1E+10	1	-1E+10	1	-1E+10	1	-1E+10	1
4901784	188	C	08/27/2020	10:42	-132.701	43.274	0	1575.30	0	2.3990	0	37.1720	8	29.688	0	1556.880	0	32.1	4	10.0	4	-1E+10	1	-1E+10	1	-1E+10	1	-1E+10	1	-1E+10	1	-1E+10	1
4901784	188	C	08/27/2020	10:42	-132.701	43.274	0	1579.80	0	2.3880	0	37.1690	8	29.686	0	1561.311	0	32.5	4	10.1	4	-1E+10	1	-1E+10	1	-1E+10	1	-1E+10	1	-1E+10	1	-1E+10	1
4901784	188	C	08/27/2020	10:42	-132.701	43.274	0	1584.40	0	2.3770	0	37.1570	8	29.678	0	1565.840	0	32.9	4	10.2	4	-1E+10	1	-1E+10	1	-1E+10	1	-1E+10	1	-1E+10	1	-1E+10	1
4901784	188	C	08/27/2020	10:42	-132.701	43.274	0	1590.00	0	2.3660	0	37.1760	8	29.694	0	1571.354	0	33.2	4	10.3	4	-1E+10	1	-1E+10	1	-1E+10	1	-1E+10	1	-1E+10	1	-1E+10	1
4901784	188	C	08/27/2020	10:42	-132.701	43.274	0	1595.10	0	2.3640	0	37.1770	8	29.695	0	1576.375	0	33.4	4	10.4	4	-1E+10	1	-1E+10	1	-1E+10	1	-1E+10	1	-1E+10	1	-1E+10	1
4901784	188	C	08/27/2020	10:42	-132.701	43.274	0	1599.50	0	2.3610	0	37.1660	8	29.687	0	1580.707	0	33.6	4	10.4	4	-1E+10	1	-1E+10	1	-1E+10	1	-1E+10	1	-1E+10	1	-1E+10	1
4901784	188	C	08/27/2020	10:42	-132.701	43.274	0	1604.30	0	2.3550	0	37.1770	8	29.696	0	1585.433	0	33.9	4	10.5	4	-1E+10	1	-1E+10	1	-1E+10	1	-1E+10	1	-1E+10	1	-1E+10	1
4901784	188	C	08/27/2020	10:42	-132.701	43.274	0	1609.90	0	2.3470	0	37.1770	8	29.697	0	1590.946	0	34.2	4	10.6	4	-1E+10	1	-1E+10	1	-1E+10	1	-1E+10	1	-1E+10	1	-1E+10	1
4901784	188	C	08/27/2020	10:42	-132.701	43.274	0	1615.70	0	2.3400	0	37.1700	8	29.692	0	1596.656	0	34.5	4	10.7	4	-1E+10	1	-1E+10	1	-1E+10	1	-1E+10	1	-1E+10	1	-1E+10	1
4901784	188	C	08/27/2020	10:42	-132.701	43.274	0	1620.70	0	2.3320	0	37.1670	8	29.690	0	1601.578	0	34.7	4	10.8	4	-1E+10	1	-1E+10	1	-1E+10	1	-1E+10	1	-1E+10	1	-1E+10	1
4901784	188	C	08/27/2020	10:42	-132.701	43.274	0	1625.60	0	2.3270	0	37.1750	8	29.697	0	1606.401	0	35.0	4	10.8	4	-1E+10	1	-1E+10	1	-1E+10	1	-1E+10	1	-1E+10	1	-1E+10	1
4901784	188	C	08/27/2020	10:42	-132.701	43.274	0	1630.60	0	2.3230	0	37.1660	8	29.690	0	1611.323	0	35.2	4	10.9	4	-1E+10	1	-1E+10	1	-1E+10	1	-1E+10	1	-1E+10	1	-1E+10	1
4901784	188	C	08/27/2020	10:42	-132.701	43.274	0	1635.60	0	2.3170	0	37.1740	8	29.697	0	1616.245	0	35.6	4	11.0	4	-1E+10	1	-1E+10	1	-1E+10	1	-1E+10	1	-1E+10	1	-1E+10	1
4901784	188	C	08/27/2020	10:42	-132.701	43.274	0	1640.60	0	2.3130	0	37.1630	8	29.689	0	1621.167	0	35.9	4	11.1	4	-1E+10	1	-1E+10	1	-1E+10	1	-1E+10	1	-1E+10	1	-1E+10	1
4901784	188	C	08/27/2020	10:42	-132.701	43.274	0	1645.70	0	2.3090	0	37.1580	8	29.685	0	1626.187	0	36.2	4	11.2	4	-1E+10	1	-1E+10	1	-1E+10	1	-1E+10	1	-1E+10	1	-1E+10	1
4901784	188	C	08/27/2020	10:42	-132.701	43.274	0	1650.00	0	2.3060	0	37.1540	8	29.682	0	1630.419	0	36.4	4	11.3	4	-1E+10	1	-1E+10	1	-1E+10	1	-1E+10	1	-1E+10	1	-1E+10	1
4901784	188	C	08/27/2020	10:42	-132.701	43.274	0	1654.30	0	2.2990	0	37.1720	8	29.697	0	1634.652	0	36.6	4	11.3	4	-1E+10	1	-1E+10	1	-1E+10	1	-1E+10	1	-1E+10	1	-1E+10	1
4901784	188	C	08/27/2020	10:42	-132.701	43.274	0	1659.50	0	2.2940	0	37.1850	8	29.708	0	1639.770	0	36.9	4	11.4	4	-1E+10	1	-1E+10	1	-1E+10	1	-1E+10	1	-1E+10	1	-1E+10	1
4901784	188	C	08/27/2020	10:42	-132.701	43.274	0	1664.80	0	2.2890	0	37.2160	8	29.733	0	1644.986	0	37.2	4	11.5	4	-1E+10	1	-1E+10	1	-1E+10	1	-1E+10	1	-1E+10	1	-1E+10	1
4901784	188	C	08/27/2020	10:42	-132.701	43.274	0	1670.00	0	2.2820	0	37.1990	8	29.721	0	1650.104	0	37.4	4	11.6	4	-1E+10	1	-1E+10	1	-1E+10	1	-1E+10	1	-1E+10	1	-1E+10	1
4901784	188	C	08/27/2020	10:42	-132.701	43.274	0	1675.30	0	2.2790	0	37.1810	8	29.706	0	1655.321	0	37.7	4	11.7	4	-1E+10	1	-1E+10	1	-1E+10	1	-1E+10	1	-1E+10	1	-1E+10	1
4901784	188	C	08/27/2020	10:42	-132.701	43.274	0	1680.60	0	2.2740	0	37.1770	8	29.704	0	1660.537	0	38.1	4	11.8	4	-1E+10	1	-1E+10	1	-1E+10	1	-1E+10	1	-1E+10	1	-1E+10	1
4901784	188	C	08/27/2020	10:42	-132.701	43.274	0	1685.10	0	2.2660	0	37.1740	8	29.702	0	1664.965	0	38.5	4	11.9	4	-1E+10	1	-1E+10	1	-1E+10	1	-1E+10	1	-1E+10	1	-1E+10	1
4901784	188	C	08/27/2020	10:42	-132.701	43.274	0	1689.50	0	2.2590	0	37.1870	8	29.713	0	1669.295	0	38.9	4	12.0	4	-1E+10	1	-1E+10	1	-1E+10	1	-1E+10	1	-1E+10	1	-1E+10	1
4901784	188	C	08/27/2020	10:42	-132.701	43.274	0	1694.90	0	2.2530	0	37.1900	8	29.716	0	1674.609	0	39.3	4	12.2	4	-1E+10	1	-1E+10	1	-1E+10	1	-1E+10	1	-1E+10	1	-1E+10	1
4901784	188	C	08/27/2020	10:42	-132.701	43.274	0	1700.30	0	2.2500	0	37.1910	8	29.717	0	1679.923	0	39.8	4	12.3	4	-1E+10	1	-1E+10	1	-1E+10	1	-1E+10	1	-1E+10	1	-1E+10	1
4901784	188	C	08/27/2020	10:42	-132.701	43.274	0	1704.90	0	2.2450	0	37.1800	8	29.709	0	1684.450	0	40.3	4	12.5	4	-1E+10	1	-1E+10	1	-1E+10	1	-1E+10	1	-1E+10	1	-1E+10	1
4901784	188	C	08/27/2020	10:42	-132.701	43.274	0	1709.40	0	2.2420	0	37.1860	8	29.714	0	1688.878	0	40.7	4	12.6	4	-1E+10	1	-1E+10	1	-1E+10	1	-1E+10	1	-1E+10	1	-1E+10	1
4901784	188	C	08/27/2020	10:42	-132.701	43.274	0	1714.90	0	2.2350	0	37.2050	8	29.730	0	1694.290	0	41.0	4	12.7	4	-1E+10	1	-1E+10	1	-1E+10	1	-1E+10	1	-1E+10	1	-1E+10	1
4901784	188	C	08/27/2020	10:42	-132.701	43.274	0	1720.00	0	2.2280	0	37.1980	8	29.725	0	1699.308	0	41.2	4	12.8	4	-1E+10	1	-1E+10	1	-1E+10	1	-1E+10	1	-1E+10	1	-1E+10	1
4901784	188	C	08/27/2020	10:42	-132.701	43.274	0	1725.10	0	2.2220	0	37.1940	8	29.722	0	1704.327	0	41.5	4	12.8	4	-1E+10	1	-1E+10	1	-1E+10	1	-1E+10	1	-1E+10	1	-1E+10	1
4901784	188	C	08/27/2020	10:42	-132.701	43.274	0	1730.70	0	2.2130	0	37.2020	8	29.729	0	1709.837	0	41.8	4	12.9	4	-1E+10	1	-1E+10	1	-1E+10	1	-1E+10	1	-1E+10	1	-1E+10	1
4901784	188	C	08/27/2020	10:42	-132.701	43.274	0	1735.60	0	2.2100	0	37.1930	8	29.722	0	1714.658	0	42.1	4	13.0	4	-1E+10	1	-1E+10	1	-1E+10	1	-1E+10	1	-1E+10	1	-1E+10	1
4901784	188	C	08/27/2020	10:42	-132.701	43.274	0	1740.50	0	2.2040	0	37.2100	8	29.737	0	1719.479	0	42.3	4	13.1	4	-1E+10	1	-1E+10	1	-1E+10	1	-1E+10	1	-1E+10	1	-1E+10	1
4901784	188	C	08/27/2020	10:42	-132.701	43.274	0	1745.40	0	2.2010	0	37.2030	8	29.731	0	1724.300	0	42.6	4	13.2	4	-1E+10	1	-1E+10	1	-1E+10	1	-1E+10	1	-1E+10	1	-1E+10	1
4901784	188	C	08/27/2020	10:42	-132.701	43.274	0	1750.40	0	2.1990	0	37.1810	8	29.714	0	1729.219	0	42.8	4	13.2	4	-1E+10	1	-1E+10	1	-1E+10	1	-1E+10	1	-1E+10	1	-1E+10	1
4901784	188	C	08/27/2020	10:42	-132.701	43.274	0	1755.40	0	2.1960	0	37.1850	8	29.717	0	1734.138	0	43.1	4	13.3	4	-1E+10	1	-1E+10	1	-1E+10	1	-1E+10	1	-1E+10	1	-1E+10	1
4901784	188	C	08/27/2020	10:42	-132.701	43.274	0	1760.40	0	2.1890	0	37.1700	8	29.706	0	1739.057	0	43.4	4	13.4	4	-1E+10	1	-1E+10	1	-1E+10	1	-1E+10	1	-1E+10	1	-1E+10	1
4901784	188	C	08/27/2020	10:42	-132.701	43.274	0	1765.50	0	2.1800	0	37.1780	8	29.713	0	1744.074	0	43.8	4	13.5	4	-1E+10	1	-1E+10	1	-1E+10	1	-1E+10	1	-1E+10	1	-1E+10	1
4901784	188	C	08/27/2020	10:42	-132.701	43.274	0	1770.60	0	2.1720	0	37.1780	8	29.714	0	1749.091	0	44.1	4	13.6	4	-1E+10	1	-1E+10	1	-1E+10	1	-1E+10	1	-1E+10	1	-1E+10	1
4901784	188	C	08/27/2020	10:42	-132.701	43.274	0	1775.70	0	2.1670	0	37.1640	8	29.703	0	1754.108	0	44.5	4	13.7	4	-1E+10	1	-1E+10	1	-1E+10	1	-1E+10	1	-1E+10	1	-1E+10	1
4901784	188	C	08/27/2020	10:42	-132.701	43.274	0	1780.10	0	2.1570	0	37.1830	8	29.719	0	1758.437	0	44.8	4	13.8	4	-1E+10	1	-1E+10	1	-1E+10	1	-1E+10	1	-1E+10	1	-1E+10	1
4901784	188	C	08/27/2020	10:42	-132.701	43.274	0	1784.40	0	2.1530	0	37.1920	8	29.727	0	1762.666	0	45.1	4	13.9	4	-1E+10	1	-1E+10	1	-1E+10	1	-1E+10	1	-1E+10	1	-1E+10	1
4901784	188	C	08/27/2020	10:42	-132.701	43.274	0	1789.60	0	2.1470	0	37.1980	8	29.732	0	1767.781	0	45.5	4	14.1	4	-1E+10	1	-1E+10	1	-1E+10	1	-1E+10	1	-1E+10	1	-1E+10	1
4901784	188	C	08/27/2020	10:42	-132.701	43.274	0	1794.80	0	2.1400	0	37.1990	8	29.734	0	1772.896	0	45.9	4	14.2	4	-1E+10	1	-1E+10	1	-1E+10	1	-1E+10	1	-1E+10	1	-1E+10	1
4901784	188	C	08/27/2020	10:42	-132.701	43.274	0	1800.10	0	2.1320	0	37.1990	8	29.734	0	1778.109	0	46.3	4	14.3	4	-1E+10	1	-1E+10	1	-1E+10	1	-1E+10	1	-1E+10	1	-1E+10	1
4901784	188	C	08/27/2020	10:42	-132.701	43.274	0	1805.30	0	2.1310	0	37.1990	8	29.735	0	1783.224	0	46.6	4	14.4	4	-1E+10	1	-1E+10	1	-1E+10	1	-1E+10	1	-1E+10	1	-1E+10	1
4901784	188	C	08/27/2020	10:42	-132.701	43.274	0	1810.50	0	2.1260	0	37.2010	8	29.737	0	1788.339	0	47.0	4	14.5	4	-1E+10	1	-1E+10	1	-1E+10	1	-1E+10	1	-1E+10	1	-1E+10	1
4901784	188	C	08/27/2020	10:42	-132.701	43.274	0	1814.90	0	2.1200	0	37.2140	8	29.748	0	1792.666	0	47.4	4	14.6	4	-1E+10	1	-1E+10	1	-1E+10	1	-1E+10	1	-1E+10	1	-1E+10	1
4901784	188	C	08/27/2020	10:42	-132.701	43.274	0	1819.30	0	2.1140	0	37.2260	8	29.758	0	1796.994	0	47.8	4	14.7	4	-1E+10	1	-1E+10	1	-1E+10	1	-1E+10	1	-1E+10	1	-1E+10	1
4901784	188	C	08/27/2020	10:42	-132.701	43.274	0	1824.60	0	2.1080	0	37.2410	8	29.770	0	1802.206	0	48.2	4	14.9	4	-1E+10	1	-1E+10	1	-1E+10	1	-1E+10	1	-1E+10	1	-1E+10	1
4901784	188	C	08/27/2020	10:42	-132.701	43.274	0	1829.90	0	2.1010	0	37.2450	8	29.774	0	1807.419	0	48.5	4	15.0	4	-1E+10	1	-1E+10	1	-1E+10	1	-1E+10	1	-1E+10	1	-1E+10	1
4901784	188	C	08/27/2020	10:42	-132.701	43.274	0	1835.30	0	2.0940	0	37.2380	8	29.769	0	1812.729	0	48.8	4	15.1	4	-1E+10	1	-1E+10	1	-1E+10	1	-1E+10	1	-1E+10	1	-1E+10	1
4901784	188	C	08/27/2020	10:42	-132.701	43.274	0	1839.80	0	2.0910	0	37.2440	8	29.774	0	1817.155	0	49.0	4	15.1	4	-1E+10	1	-1E+10	1	-1E+10	1	-1E+10	1	-1E+10	1	-1E+10	1
4901784	188	C	08/27/2020	10:42	-132.701	43.274	0	1844.30	0	2.0840	0	37.2330	8	29.766	0	1821.580	0	49.4	4	15.2	4	-1E+10	1	-1E+10	1	-1E+10	1	-1E+10	1	-1E+10	1	-1E+10	1
4901784	188	C	08/27/2020	10:42	-132.701	43.274	0	1849.80	0	2.0780	0	37.2340	8	29.768	0	1826.989	0	49.7	4	15.3	4	-1E+10	1	-1E+10	1	-1E+10	1	-1E+10	1	-1E+10	1	-1E+10	1
4901784	188	C	08/27/2020	10:42	-132.701	43.274	0	1855.20	0	2.0710	0	37.4020	8	29.903	0	1832.299	0	50.0	4	15.4	4	-1E+10	1	-1E+10	1	-1E+10	1	-1E+10	1	-1E+10	1	-1E+10	1
4901784	188	C	08/27/2020	10:42	-132.701	43.274	0	1860.70	0	2.0660	0	37.5540	8	30.025	0	1837.707	0	50.2	4	15.5	4	-1E+10	1	-1E+10	1	-1E+10	1	-1E+10	1	-1E+10	1	-1E+10	1
4901784	188	C	08/27/2020	10:42	-132.701	43.274	0	1865.30	0	2.0640	0	37.5810	8	30.047	0	1842.231	0	50.4	4	15.6	4	-1E+10	1	-1E+10	1	-1E+10	1	-1E+10	1	-1E+10	1	-1E+10	1
4901784	188	C	08/27/2020	10:42	-132.701	43.274	0	1869.90	0	2.0580	0	37.6010	8	30.064	0	1846.754	0	50.7	4	15.7	4	-1E+10	1	-1E+10	1	-1E+10	1	-1E+10	1	-1E+10	1	-1E+10	1
4901784	188	C	08/27/2020	10:42	-132.701	43.274	0	1875.50	0	2.0560	0	37.6130	8	30.074	0	1852.260	0	50.9	4	15.7	4	-1E+10	1	-1E+10	1	-1E+10	1	-1E+10	1	-1E+10	1	-1E+10	1
4901784	188	C	08/27/2020	10:42	-132.701	43.274	0	1879.60	0	2.0520	0	37.6210	8	30.081	0	1856.291	0	51.1	4	15.8	4	-1E+10	1	-1E+10	1	-1E+10	1	-1E+10	1	-1E+10	1	-1E+10	1
4901784	188	C	08/27/2020	10:42	-132.701	43.274	0	1884.60	0	2.0500	0	37.6250	8	30.084	0	1861.207	0	51.3	4	15.9	4	-1E+10	1	-1E+10	1	-1E+10	1	-1E+10	1	-1E+10	1	-1E+10	1
4901784	188	C	08/27/2020	10:42	-132.701	43.274	0	1889.50	0	2.0460	0	37.6270	8	30.086	0	1866.025	0	51.6	4	16.0	4	-1E+10	1	-1E+10	1	-1E+10	1	-1E+10	1	-1E+10	1	-1E+10	1
4901784	188	C	08/27/2020	10:42	-132.701	43.274	0	1894.50	0	2.0400	0	37.6300	8	30.089	0	1870.941	0	51.9	4	16.0	4	-1E+10	1	-1E+10	1	-1E+10	1	-1E+10	1	-1E+10	1	-1E+10	1
4901784	188	C	08/27/2020	10:42	-132.701	43.274	0	1899.40	0	2.0340	0	37.6320	8	30.091	0	1875.759	0	52.1	4	16.1	4	-1E+10	1	-1E+10	1	-1E+10	1	-1E+10	1	-1E+10	1	-1E+10	1
4901784	188	C	08/27/2020	10:42	-132.701	43.274	0	1904.40	0	2.0280	0	37.6350	8	30.094	0	1880.674	0	52.3	4	16.2	4	-1E+10	1	-1E+10	1	-1E+10	1	-1E+10	1	-1E+10	1	-1E+10	1
4901784	188	C	08/27/2020	10:42	-132.701	43.274	0	1909.30	0	2.0220	0	37.6370	8	30.096	0	1885.492	0	52.7	4	16.3	4	-1E+10	1	-1E+10	1	-1E+10	1	-1E+10	1	-1E+10	1	-1E+10	1
4901784	188	C	08/27/2020	10:42	-132.701	43.274	0	1914.30	0	2.0180	0	37.6390	8	30.098	0	1890.407	0	52.9	4	16.3	4	-1E+10	1	-1E+10	1	-1E+10	1	-1E+10	1	-1E+10	1	-1E+10	1
4901784	188	C	08/27/2020	10:42	-132.701	43.274	0	1919.30	0	2.0150	0	37.6400	8	30.099	0	1895.322	0	53.2	4	16.4	4	-1E+10	1	-1E+10	1	-1E+10	1	-1E+10	1	-1E+10	1	-1E+10	1
4901784	188	C	08/27/2020	10:42	-132.701	43.274	0	1924.30	0	2.0100	0	37.6410	8	30.101	0	1900.238	0	53.5	4	16.5	4	-1E+10	1	-1E+10	1	-1E+10	1	-1E+10	1	-1E+10	1	-1E+10	1
4901784	188	C	08/27/2020	10:42	-132.701	43.274	0	1929.40	0	2.0060	0	37.6430	8	30.103	0	1905.251	0	53.8	4	16.6	4	-1E+10	1	-1E+10	1	-1E+10	1	-1E+10	1	-1E+10	1	-1E+10	1
4901784	188	C	08/27/2020	10:42	-132.701	43.274	0	1934.40	0	2.0000	0	37.6440	8	30.104	0	1910.166	0	54.1	4	16.7	4	-1E+10	1	-1E+10	1	-1E+10	1	-1E+10	1	-1E+10	1	-1E+10	1
4901784	188	C	08/27/2020	10:42	-132.701	43.274	0	1939.50	0	1.9980	0	37.6450	8	30.105	0	1915.179	0	54.3	4	16.8	4	-1E+10	1	-1E+10	1	-1E+10	1	-1E+10	1	-1E+10	1	-1E+10	1
4901784	188	C	08/27/2020	10:42	-132.701	43.274	0	1944.60	0	1.9950	0	37.6460	8	30.106	0	1920.192	0	54.6	4	16.9	4	-1E+10	1	-1E+10	1	-1E+10	1	-1E+10	1	-1E+10	1	-1E+10	1
4901784	188	C	08/27/2020	10:42	-132.701	43.274	0	1949.80	0	1.9920	0	37.6480	8	30.108	0	1925.303	0	55.0	4	17.0	4	-1E+10	1	-1E+10	1	-1E+10	1	-1E+10	1	-1E+10	1	-1E+10	1
4901784	188	C	08/27/2020	10:42	-132.701	43.274	0	1955.00	0	1.9870	0	37.6500	8	30.110	0	1930.415	0	55.3	4	17.1	4	-1E+10	1	-1E+10	1	-1E+10	1	-1E+10	1	-1E+10	1	-1E+10	1
4901784	188	C	08/27/2020	10:42	-132.701	43.274	0	1960.20	0	1.9840	0	37.6510	8	30.111	0	1935.525	0	55.4	4	17.1	4	-1E+10	1	-1E+10	1	-1E+10	1	-1E+10	1	-1E+10	1	-1E+10	1
4901784	188	C	08/27/2020	10:42	-132.701	43.274	0	1965.40	0	1.9800	0	37.6520	8	30.112	0	1940.636	0	55.8	4	17.2	4	-1E+10	1	-1E+10	1	-1E+10	1	-1E+10	1	-1E+10	1	-1E+10	1
4901784	188	C	08/27/2020	10:42	-132.701	43.274	0	1970.60	0	1.9760	0	37.6540	8	30.114	0	1945.747	0	56.1	4	17.3	4	-1E+10	1	-1E+10	1	-1E+10	1	-1E+10	1	-1E+10	1	-1E+10	1
4901784	188	C	08/27/2020	10:42	-132.701	43.274	0	1975.00	0	1.9760	0	37.6550	8	30.115	0	1950.072	0	56.2	4	17.4	4	-1E+10	1	-1E+10	1	-1E+10	1	-1E+10	1	-1E+10	1	-1E+10	1
4901784	188	C	08/27/2020	10:42	-132.701	43.274	0	1979.60	0	1.9720	0	37.6560	8	30.116	0	1954.592	0	56.6	4	17.4	4	-1E+10	1	-1E+10	1	-1E+10	1	-1E+10	1	-1E+10	1	-1E+10	1
4901784	188	C	08/27/2020	10:42	-132.701	43.274	0	1984.50	0	1.9670	0	37.6570	8	30.117	0	1959.408	0	56.9	4	17.5	4	-1E+10	1	-1E+10	1	-1E+10	1	-1E+10	1	-1E+10	1	-1E+10	1
4901784	188	C	08/27/2020	10:42	-132.701	43.274	0	1989.80	0	1.9620	0	37.6580	8	30.119	0	1964.617	0	57.2	4	17.6	4	-1E+10	1	-1E+10	1	-1E+10	1	-1E+10	1	-1E+10	1	-1E+10	1
4901784	188	C	08/27/2020	10:42	-132.701	43.274	0	1995.20	0	1.9570	0	37.6590	8	30.120	0	1969.923	0	57.5	4	17.7	4	-1E+10	1	-1E+10	1	-1E+10	1	-1E+10	1	-1E+10	1	-1E+10	1
4901784	188	C	08/27/2020	10:42	-132.701	43.274	0	1999.60	0	1.9530	0	37.6600	8	30.121	0	1974.247	0	57.7	4	17.8	4	-1E+10	1	-1E+10	1	-1E+10	1	-1E+10	1	-1E+10	1	-1E+10	1
4901784	188	C	08/27/2020	10:42	-132.701	43.274	0	2005.20	0	1.9510	0	37.6610	8	30.122	0	1979.750	0	57.8	4	17.8	4	-1E+10	1	-1E+10	1	-1E+10	1	-1E+10	1	-1E+10	1	-1E+10	1
4901784	188	C	08/27/2020	10:42	-132.701	43.274	0	2010.30	0	1.9480	0	37.6620	8	30.123	0	1984.762	0	57.0	4	17.6	4	-1E+10	1	-1E+10	1	-1E+10	1	-1E+10	1	-1E+10	1	-1E+10	1
4901784	188	C	08/27/2020	10:42	-132.701	43.274	0																										
4901784	189	C	09/06/2020	10:42	-132.925	43.407	0	3.00	0	19.9100	0	34.8540	8	24.675	0	2.976	0	219.2	4	97.0	4	-1E+10	1	-1E+10	1	-1E+10	1	-1E+10	1	-1E+10	1	-1E+10	1
4901784	189	C	09/06/2020	10:42	-132.925	43.407	0	4.40	0	19.9090	0	34.8550	8	24.677	0	4.365	0	219.0	4	96.9	4	-1E+10	1	-1E+10	1	-1E+10	1	-1E+10	1	-1E+10	1	-1E+10	1
4901784	189	C	09/06/2020	10:42	-132.925	43.407	0	6.10	0	19.9140	0	34.8550	8	24.675	0	6.051	0	219.0	4	96.9	4	-1E+10	1	-1E+10	1	-1E+10	1	-1E+10	1	-1E+10	1	-1E+10	1
4901784	189	C	09/06/2020	10:42	-132.925	43.407	0	7.80	0	19.9140	0	34.8570	8	24.677	0	7.738	0	218.8	4	96.8	4	-1E+10	1	-1E+10	1	-1E+10	1	-1E+10	1	-1E+10	1	-1E+10	1
4901784	189	C	09/06/2020	10:42	-132.925	43.407	0	9.60	0	19.9120	0	34.8570	8	24.678	0	9.523	0	218.6	4	96.7	4	-1E+10	1	-1E+10	1	-1E+10	1	-1E+10	1	-1E+10	1	-1E+10	1
4901784	189	C	09/06/2020	10:42	-132.925	43.407	0	11.40	0	19.9170	0	34.8580	8	24.677	0	11.309	0	218.5	4	96.6	4	-1E+10	1	-1E+10	1	-1E+10	1	-1E+10	1	-1E+10	1	-1E+10	1
4901784	189	C	09/06/2020	10:42	-132.925	43.407	0	13.20	0	19.9180	0	34.8580	8	24.677	0	13.094	0	218.4	4	96.6	4	-1E+10	1	-1E+10	1	-1E+10	1	-1E+10	1	-1E+10	1	-1E+10	1
4901784	189	C	09/06/2020	10:42	-132.925	43.407	0	14.90	0	19.9160	0	34.8590	8	24.678	0	14.781	0	218.2	4	96.5	4	-1E+10	1	-1E+10	1	-1E+10	1	-1E+10	1	-1E+10	1	-1E+10	1
4901784	189	C	09/06/2020	10:42	-132.925	43.407	0	16.70	0	19.9160	0	34.8590	8	24.678	0	16.566	0	218.0	4	96.4	4	-1E+10	1	-1E+10	1	-1E+10	1	-1E+10	1	-1E+10	1	-1E+10	1
4901784	189	C	09/06/2020	10:42	-132.925	43.407	0	18.40	0	19.9160	0	34.8600	8	24.679	0	18.253	0	217.9	4	96.4	4	-1E+10	1	-1E+10	1	-1E+10	1	-1E+10	1	-1E+10	1	-1E+10	1
4901784	189	C	09/06/2020	10:42	-132.925	43.407	0	20.00	0	19.9170	0	34.8600	8	24.679	0	19.840	0	217.8	4	96.3	4	-1E+10	1	-1E+10	1	-1E+10	1	-1E+10	1	-1E+10	1	-1E+10	1
4901784	189	C	09/06/2020	10:42	-132.925	43.407	0	21.60	0	19.9170	0	34.8590	8	24.678	0	21.427	0	217.5	4	96.2	4	-1E+10	1	-1E+10	1	-1E+10	1	-1E+10	1	-1E+10	1	-1E+10	1
4901784	189	C	09/06/2020	10:42	-132.925	43.407	0	23.70	0	19.9170	0	34.8580	8	24.678	0	23.510	0	217.6	4	96.3	4	-1E+10	1	-1E+10	1	-1E+10	1	-1E+10	1	-1E+10	1	-1E+10	1
4901784	189	C	09/06/2020	10:42	-132.925	43.407	0	25.40	0	19.9170	0	34.8540	8	24.675	0	25.196	0	217.8	4	96.3	4	-1E+10	1	-1E+10	1	-1E+10	1	-1E+10	1	-1E+10	1	-1E+10	1
4901784	189	C	09/06/2020	10:42	-132.925	43.407	0	26.80	0	19.9170	0	34.8510	8	24.672	0	26.585	0	218.1	4	96.5	4	-1E+10	1	-1E+10	1	-1E+10	1	-1E+10	1	-1E+10	1	-1E+10	1
4901784	189	C	09/06/2020	10:42	-132.925	43.407	0	28.10	0	19.9180	0	34.8430	8	24.666	0	27.874	0	218.4	4	96.6	4	-1E+10	1	-1E+10	1	-1E+10	1	-1E+10	1	-1E+10	1	-1E+10	1
4901784	189	C	09/06/2020	10:42	-132.925	43.407	0	29.60	0	19.9060	0	34.8320	8	24.661	0	29.362	0	219.3	4	96.9	4	-1E+10	1	-1E+10	1	-1E+10	1	-1E+10	1	-1E+10	1	-1E+10	1
4901784	189	C	09/06/2020	10:42	-132.925	43.407	0	31.00	0	19.8960	0	34.8110	8	24.648	0	30.751	0	220.4	4	97.4	4	-1E+10	1	-1E+10	1	-1E+10	1	-1E+10	1	-1E+10	1	-1E+10	1
4901784	189	C	09/06/2020	10:42	-132.925	43.407	0	33.00	0	19.0500	0	34.8140	8	24.869	0	32.734	0	224.4	4	97.7	4	-1E+10	1	-1E+10	1	-1E+10	1	-1E+10	1	-1E+10	1	-1E+10	1
4901784	189	C	09/06/2020	10:42	-132.925	43.407	0	34.60	0	18.4890	0	34.8140	8	25.011	0	34.321	0	228.9	4	98.6	4	-1E+10	1	-1E+10	1	-1E+10	1	-1E+10	1	-1E+10	1	-1E+10	1
4901784	189	C	09/06/2020	10:42	-132.925	43.407	0	36.00	0	18.2550	0	34.8060	8	25.063	0	35.710	0	230.5	4	98.9	4	-1E+10	1	-1E+10	1	-1E+10	1	-1E+10	1	-1E+10	1	-1E+10	1
4901784	189	C	09/06/2020	10:42	-132.925	43.407	0	37.30	0	18.2630	0	34.7920	8	25.050	0	36.999	0	230.6	4	98.9	4	-1E+10	1	-1E+10	1	-1E+10	1	-1E+10	1	-1E+10	1	-1E+10	1
4901784	189	C	09/06/2020	10:42	-132.925	43.407	0	38.60	0	17.8920	0	34.8030	8	25.150	0	38.289	0	232.1	4	98.9	4	-1E+10	1	-1E+10	1	-1E+10	1	-1E+10	1	-1E+10	1	-1E+10	1
4901784	189	C	09/06/2020	10:42	-132.925	43.407	0	39.90	0	17.6010	0	34.8040	8	25.222	0	39.578	0	234.2	4	99.2	4	-1E+10	1	-1E+10	1	-1E+10	1	-1E+10	1	-1E+10	1	-1E+10	1
4901784	189	C	09/06/2020	10:42	-132.925	43.407	0	41.30	0	17.4520	0	34.8080	8	25.261	0	40.967	0	235.5	4	99.5	4	-1E+10	1	-1E+10	1	-1E+10	1	-1E+10	1	-1E+10	1	-1E+10	1
4901784	189	C	09/06/2020	10:42	-132.925	43.407	0	42.60	0	17.3350	0	34.7990	8	25.283	0	42.256	0	236.7	4	99.8	4	-1E+10	1	-1E+10	1	-1E+10	1	-1E+10	1	-1E+10	1	-1E+10	1
4901784	189	C	09/06/2020	10:42	-132.925	43.407	0	44.00	0	17.0350	0	34.7850	8	25.344	0	43.645	0	239.0	4	100.2	4	-1E+10	1	-1E+10	1	-1E+10	1	-1E+10	1	-1E+10	1	-1E+10	1
4901784	189	C	09/06/2020	10:42	-132.925	43.407	0	45.50	0	16.4500	0	34.7590	8	25.461	0	45.132	0	242.6	4	100.5	4	-1E+10	1	-1E+10	1	-1E+10	1	-1E+10	1	-1E+10	1	-1E+10	1
4901784	189	C	09/06/2020	10:42	-132.925	43.407	0	47.10	0	15.7990	0	34.7220	8	25.582	0	46.719	0	247.0	4	101.0	4	-1E+10	1	-1E+10	1	-1E+10	1	-1E+10	1	-1E+10	1	-1E+10	1
4901784	189	C	09/06/2020	10:42	-132.925	43.407	0	48.80	0	15.5000	0	34.7210	8	25.649	0	48.405	0	249.6	4	101.5	4	-1E+10	1	-1E+10	1	-1E+10	1	-1E+10	1	-1E+10	1	-1E+10	1
4901784	189	C	09/06/2020	10:42	-132.925	43.407	0	50.60	0	14.6540	0	34.6860	8	25.808	0	50.190	0	254.4	4	101.7	4	-1E+10	1	-1E+10	1	-1E+10	1	-1E+10	1	-1E+10	1	-1E+10	1
4901784	189	C	09/06/2020	10:42	-132.925	43.407	0	52.40	0	14.4020	0	34.6630	8	25.844	0	51.976	0	256.7	4	102.2	4	-1E+10	1	-1E+10	1	-1E+10	1	-1E+10	1	-1E+10	1	-1E+10	1
4901784	189	C	09/06/2020	10:42	-132.925	43.407	0	54.20	0	13.8650	0	34.6860	8	25.975	0	53.761	0	260.9	4	102.7	4	-1E+10	1	-1E+10	1	-1E+10	1	-1E+10	1	-1E+10	1	-1E+10	1
4901784	189	C	09/06/2020	10:42	-132.925	43.407	0	55.90	0	13.7020	0	34.6700	8	25.996	0	55.447	0	262.9	4	103.1	4	-1E+10	1	-1E+10	1	-1E+10	1	-1E+10	1	-1E+10	1	-1E+10	1
4901784	189	C	09/06/2020	10:42	-132.925	43.407	0	57.70	0	13.4510	0	34.6790	8	26.055	0	57.232	0	264.6	4	103.3	4	-1E+10	1	-1E+10	1	-1E+10	1	-1E+10	1	-1E+10	1	-1E+10	1
4901784	189	C	09/06/2020	10:42	-132.925	43.407	0	59.40	0	13.2120	0	34.6720	8	26.098	0	58.918	0	266.6	4	103.6	4	-1E+10	1	-1E+10	1	-1E+10	1	-1E+10	1	-1E+10	1	-1E+10	1
4901784	189	C	09/06/2020	10:42	-132.925	43.407	0	61.40	0	13.0100	0	34.6740	8	26.141	0	60.901	0	268.1	4	103.7	4	-1E+10	1	-1E+10	1	-1E+10	1	-1E+10	1	-1E+10	1	-1E+10	1
4901784	189	C	09/06/2020	10:42	-132.925	43.407	0	61.80	0	12.8980	0	34.6680	8	26.158	0	61.298	0	268.7	4	103.7	4	-1E+10	1	-1E+10	1	-1E+10	1	-1E+10	1	-1E+10	1	-1E+10	1
4901784	189	C	09/06/2020	10:42	-132.925	43.407	0	63.50	0	12.6070	0	34.6950	8	26.237	0	62.984	0	270.2	4	103.7	4	-1E+10	1	-1E+10	1	-1E+10	1	-1E+10	1	-1E+10	1	-1E+10	1
4901784	189	C	09/06/2020	10:42	-132.925	43.407	0	65.00	0	12.2840	0	34.7000	8	26.304	0	64.472	0	271.3	4	103.4	4	-1E+10	1	-1E+10	1	-1E+10	1	-1E+10	1	-1E+10	1	-1E+10	1
4901784	189	C	09/06/2020	10:42	-132.925	43.407	0	66.60	0	12.2180	0	34.6990	8	26.316	0	66.058	0	270.6	4	103.0	4	-1E+10	1	-1E+10	1	-1E+10	1	-1E+10	1	-1E+10	1	-1E+10	1
4901784	189	C	09/06/2020	10:42	-132.925	43.407	0	68.00	0	12.0230	0	34.7060	8	26.359	0	67.447	0	269.5	4	102.2	4	-1E+10	1	-1E+10	1	-1E+10	1	-1E+10	1	-1E+10	1	-1E+10	1
4901784	189	C	09/06/2020	10:42	-132.925	43.407	0	69.50	0	11.5960	0	34.7160	8	26.447	0	68.934	0	269.6	4	101.3	4	-1E+10	1	-1E+10	1	-1E+10	1	-1E+10	1	-1E+10	1	-1E+10	1
4901784	189	C	09/06/2020	10:42	-132.925	43.407	0	71.00	0	11.4110	0	34.7170	8	26.482	0	70.422	0	267.0	4	100.0	4	-1E+10	1	-1E+10	1	-1E+10	1	-1E+10	1	-1E+10	1	-1E+10	1
4901784	189	C	09/06/2020	10:42	-132.925	43.407	0	72.50	0	11.0800	0	34.7300	8	26.553	0	71.909	0	264.9	4	98.5	4	-1E+10	1	-1E+10	1	-1E+10	1	-1E+10	1	-1E+10	1	-1E+10	1
4901784	189	C	09/06/2020	10:42	-132.925	43.407	0	74.10	0	10.9090	0	34.7380	8	26.590	0	73.496	0	263.8	4	97.8	4	-1E+10	1	-1E+10	1	-1E+10	1	-1E+10	1	-1E+10	1	-1E+10	1
4901784	189	C	09/06/2020	10:42	-132.925	43.407	0	75.70	0	10.7930	0	34.7330	8	26.607	0	75.083	0	262.5	4	97.1	4	-1E+10	1	-1E+10	1	-1E+10	1	-1E+10	1	-1E+10	1	-1E+10	1
4901784	189	C	09/06/2020	10:42	-132.925	43.407	0	77.20	0	10.6320	0	34.7370	8	26.639	0	76.570	0	261.2	4	96.2	4	-1E+10	1	-1E+10	1	-1E+10	1	-1E+10	1	-1E+10	1	-1E+10	1
4901784	189	C	09/06/2020	10:42	-132.925	43.407	0	78.80	0	10.4260	0	34.7380	8	26.676	0	78.157	0	260.5	4	95.6	4	-1E+10	1	-1E+10	1	-1E+10	1	-1E+10	1	-1E+10	1	-1E+10	1
4901784	189	C	09/06/2020	10:42	-132.925	43.407	0	80.40	0	10.3700	0	34.7320	8	26.681	0	79.744	0	259.8	4	95.2	4	-1E+10	1	-1E+10	1	-1E+10	1	-1E+10	1	-1E+10	1	-1E+10	1
4901784	189	C	09/06/2020	10:42	-132.925	43.407	0	82.00	0	10.1820	0	34.7410	8	26.721	0	81.330	0	259.4	4	94.7	4	-1E+10	1	-1E+10	1	-1E+10	1	-1E+10	1	-1E+10	1	-1E+10	1
4901784	189	C	09/06/2020	10:42	-132.925	43.407	0	83.50	0	9.9660	0	34.7700	8	26.780	0	82.818	0	258.8	4	94.0	4	-1E+10	1	-1E+10	1	-1E+10	1	-1E+10	1	-1E+10	1	-1E+10	1
4901784	189	C	09/06/2020	10:42	-132.925	43.407	0	85.10	0	9.9020	0	34.7490	8	26.775	0	84.404	0	259.1	4	94.0	4	-1E+10	1	-1E+10	1	-1E+10	1	-1E+10	1	-1E+10	1	-1E+10	1
4901784	189	C	09/06/2020	10:42	-132.925	43.407	0	86.70	0	9.9030	0	34.7460	8	26.772	0	85.991	0	258.5	4	93.8	4	-1E+10	1	-1E+10	1	-1E+10	1	-1E+10	1	-1E+10	1	-1E+10	1
4901784	189	C	09/06/2020	10:42	-132.925	43.407	0	88.40	0	9.8870	0	34.7360	8	26.767	0	87.677	0	257.9	4	93.5	4	-1E+10	1	-1E+10	1	-1E+10	1	-1E+10	1	-1E+10	1	-1E+10	1
4901784	189	C	09/06/2020	10:42	-132.925	43.407	0	90.10	0	9.8000	0	34.7380	8	26.783	0	89.362	0	257.7	4	93.3	4	-1E+10	1	-1E+10	1	-1E+10	1	-1E+10	1	-1E+10	1	-1E+10	1
4901784	189	C	09/06/2020	10:42	-132.925	43.407	0	91.80	0	9.6830	0	34.7320	8	26.798	0	91.048	0	257.5	4	92.9	4	-1E+10	1	-1E+10	1	-1E+10	1	-1E+10	1	-1E+10	1	-1E+10	1
4901784	189	C	09/06/2020	10:42	-132.925	43.407	0	93.50	0	9.5620	0	34.7330	8	26.819	0	92.734	0	257.1	4	92.6	4	-1E+10	1	-1E+10	1	-1E+10	1	-1E+10	1	-1E+10	1	-1E+10	1
4901784	189	C	09/06/2020	10:42	-132.925	43.407	0	95.20	0	9.4670	0	34.7400	8	26.841	0	94.419	0	256.8	4	92.3	4	-1E+10	1	-1E+10	1	-1E+10	1	-1E+10	1	-1E+10	1	-1E+10	1
4901784	189	C	09/06/2020	10:42	-132.925	43.407	0	96.80	0	9.4350	0	34.7440	8	26.849	0	96.006	0	256.4	4	92.1	4	-1E+10	1	-1E+10	1	-1E+10	1	-1E+10	1	-1E+10	1	-1E+10	1
4901784	189	C	09/06/2020	10:42	-132.925	43.407	0	98.40	0	9.3760	0	34.7380	8	26.854	0	97.592	0	256.6	4	92.0	4	-1E+10	1	-1E+10	1	-1E+10	1	-1E+10	1	-1E+10	1	-1E+10	1
4901784	189	C	09/06/2020	10:42	-132.925	43.407	0	100.20	0	9.3330	0	34.7340	8	26.858	0	99.377	0	256.4	4	91.9	4	-1E+10	1	-1E+10	1	-1E+10	1	-1E+10	1	-1E+10	1	-1E+10	1
4901784	189	C	09/06/2020	10:42	-132.925	43.407	0	102.80	0	9.1850	0	34.7410	8	26.888	0	101.955	0	256.7	4	91.7	4	-1E+10	1	-1E+10	1	-1E+10	1	-1E+10	1	-1E+10	1	-1E+10	1
4901784	189	C	09/06/2020	10:42	-132.925	43.407	0	105.50	0	9.1330	0	34.7470	8	26.901	0	104.632	0	256.2	4	91.4	4	-1E+10	1	-1E+10	1	-1E+10	1	-1E+10	1	-1E+10	1	-1E+10	1
4901784	189	C	09/06/2020	10:42	-132.925	43.407	0	107.30	0	9.0610	0	34.7490	8	26.914	0	106.417	0	255.9	4	91.1	4	-1E+10	1	-1E+10	1	-1E+10	1	-1E+10	1	-1E+10	1	-1E+10	1
4901784	189	C	09/06/2020	10:42	-132.925	43.407	0	110.10	0	8.9610	0	34.7530	8	26.933	0	109.193	0	255.7	4	90.9	4	-1E+10	1	-1E+10	1	-1E+10	1	-1E+10	1	-1E+10	1	-1E+10	1
4901784	189	C	09/06/2020	10:42	-132.925	43.407	0	112.40	0	8.8910	0	34.7550	8	26.946	0	111.474	0	255.3	4	90.6	4	-1E+10	1	-1E+10	1	-1E+10	1	-1E+10	1	-1E+10	1	-1E+10	1
4901784	189	C	09/06/2020	10:42	-132.925	43.407	0	115.50	0	8.8090	0	34.7530	8	26.957	0	114.547	0	253.9	4	89.9	4	-1E+10	1	-1E+10	1	-1E+10	1	-1E+10	1	-1E+10	1	-1E+10	1
4901784	189	C	09/06/2020	10:42	-132.925	43.407	0	117.80	0	8.7450	0	34.7500	8	26.965	0	116.828	0	251.5	4	89.0	4	-1E+10	1	-1E+10	1	-1E+10	1	-1E+10	1	-1E+10	1	-1E+10	1
4901784	189	C	09/06/2020	10:42	-132.925	43.407	0	120.00	0	8.6370	0	34.7660	8	26.995	0	119.009	0	247.8	4	87.4	4	-1E+10	1	-1E+10	1	-1E+10	1	-1E+10	1	-1E+10	1	-1E+10	1
4901784	189	C	09/06/2020	10:42	-132.925	43.407	0	122.20	0	8.4430	0	34.7870	8	27.041	0	121.190	0	242.9	4	85.4	4	-1E+10	1	-1E+10	1	-1E+10	1	-1E+10	1	-1E+10	1	-1E+10	1
4901784	189	C	09/06/2020	10:42	-132.925	43.407	0	124.60	0	8.4450	0	34.9010	8	27.131	0	123.569	0	236.2	4	83.1	4	-1E+10	1	-1E+10	1	-1E+10	1	-1E+10	1	-1E+10	1	-1E+10	1
4901784	189	C	09/06/2020	10:42	-132.925	43.407	0	127.20	0	8.4360	0	34.9360	8	27.159	0	126.147	0	231.3	4	81.4	4	-1E+10	1	-1E+10	1	-1E+10	1	-1E+10	1	-1E+10	1	-1E+10	1
4901784	189	C	09/06/2020	10:42	-132.925	43.407	0	130.00	0	8.5320	0	35.0260	8	27.215	0	128.923	0	225.1	4	79.4	4	-1E+10	1	-1E+10	1	-1E+10	1	-1E+10	1	-1E+10	1	-1E+10	1
4901784	189	C	09/06/2020	10:42	-132.925	43.407	0	132.30	0	8.6600	0	35.1010	8	27.254	0	131.203	0	220.7	4	78.1	4	-1E+10	1	-1E+10	1	-1E+10	1	-1E+10	1	-1E+10	1	-1E+10	1
4901784	189	C	09/06/2020	10:42	-132.925	43.407	0	135.20	0	8.5470	0	35.1500	8	27.310	0	134.078	0	216.6	4	76.5	4	-1E+10	1	-1E+10	1	-1E+10	1	-1E+10	1	-1E+10	1	-1E+10	1
4901784	189	C	09/06/2020	10:42	-132.925	43.407	0	137.40	0	8.4520	0	35.1830	8	27.351	0	136.259	0	213.4	4	75.2	4	-1E+10	1	-1E+10	1	-1E+10	1	-1E+10	1	-1E+10	1	-1E+10	1
4901784	189	C	09/06/2020	10:42	-132.925	43.407	0	139.70	0	8.4260	0	35.2690	8	27.423	0	138.539	0	208.8	4	73.6	4	-1E+10	1	-1E+10	1	-1E+10	1	-1E+10	1	-1E+10	1	-1E+10	1
4901784	189	C	09/06/2020	10:42	-132.925	43.407	0	142.80	0	8.3220	0	35.3460	8	27.499	0	141.613	0	202.3	4	71.2	4	-1E+10	1	-1E+10	1	-1E+10	1	-1E+10	1	-1E+10	1	-1E+10	1
4901784	189	C	09/06/2020	10:42	-132.925	43.407	0	145.10	0	8.2810	0	35.3910	8	27.541	0	143.893	0	195.5	4	68.8	4	-1E+10	1	-1E+10	1	-1E+10	1	-1E+10	1	-1E+10	1	-1E+10	1
4901784	189	C	09/06/2020	10:42	-132.925	43.407	0	147.60	0	8.4540	0	35.4970	8	27.597	0	146.371	0	186.8	4	66.0	4	-1E+10	1	-1E+10	1	-1E+10	1	-1E+10	1	-1E+10	1	-1E+10	1
4901784	189	C	09/06/2020	10:42	-132.925	43.407	0	150.10	0	8.6860	0	35.5470	8	27.600	0	148.849	0	178.3	4	63.3	4	-1E+10	1	-1E+10	1	-1E+10	1	-1E+10	1	-1E+10	1	-1E+10	1
4901784	189	C	09/06/2020	10:42	-132.925	43.407	0	152.70	0	8.6800	0	35.6390	8	27.673	0	151.427	0	170.5	4	60.6	4	-1E+10	1	-1E+10	1	-1E+10	1	-1E+10	1	-1E+10	1	-1E+10	1
4901784	189	C	09/06/2020	10:42	-132.925	43.407	0	155.50	0	8.6290	0	35.7450	8	27.764	0	154.202	0	164.5	4	58.5	4	-1E+10	1	-1E+10	1	-1E+10	1	-1E+10	1	-1E+10	1	-1E+10	1
4901784	189	C	09/06/2020	10:42	-132.925	43.407	0	157.30	0	8.5510	0	35.7920	8	27.814	0	155.987	0	161.4	4	57.3	4	-1E+10	1	-1E+10	1	-1E+10	1	-1E+10	1	-1E+10	1	-1E+10	1
4901784	189	C	09/06/2020	10:42	-132.925	43.407	0	160.00	0	8.5570	0	35.8650	8	27.870	0	158.663	0	157.5	4	55.9	4	-1E+10	1	-1E+10	1	-1E+10	1	-1E+10	1	-1E+10	1	-1E+10	1
4901784	189	C	09/06/2020	10:42	-132.925	43.407	0	162.80	0	8.5640	0	35.8860	8	27.885	0	161.439	0	154.9	4	55.0	4	-1E+10	1	-1E+10	1	-1E+10	1	-1E+10	1	-1E+10	1	-1E+10	1
4901784	189	C	09/06/2020	10:42	-132.925	43.407	0	164.70	0	8.5210	0	35.9370	8	27.932	0	163.322	0	152.7	4	54.2	4	-1E+10	1	-1E+10	1	-1E+10	1	-1E+10	1	-1E+10	1	-1E+10	1
4901784	189	C	09/06/2020	10:42	-132.925	43.407	0	167.50	0	8.4830	0	35.9540	8	27.952	0	166.097	0	150.7	4	53.5	4	-1E+10	1	-1E+10	1	-1E+10	1	-1E+10	1	-1E+10	1	-1E+10	1
4901784	189	C	09/06/2020	10:42	-132.925	43.407	0	170.30	0	8.3950	0	35.9820	8	27.988	0	168.873	0	149.3	4	52.9	4	-1E+10	1	-1E+10	1	-1E+10	1	-1E+10	1	-1E+10	1	-1E+10	1
4901784	189	C	09/06/2020	10:42	-132.925	43.407	0	172.30	0	8.3980	0	35.9980	8	28.000	0	170.855	0	148.2	4	52.5	4	-1E+10	1	-1E+10	1	-1E+10	1	-1E+10	1	-1E+10	1	-1E+10	1
4901784	189	C	09/06/2020	10:42	-132.925	43.407	0	175.00	0	8.3430	0	36.0290	8	28.033	0	173.531	0	146.5	4	51.9	4	-1E+10	1	-1E+10	1	-1E+10	1	-1E+10	1	-1E+10	1	-1E+10	1
4901784	189	C	09/06/2020	10:42	-132.925	43.407	0	177.70	0	8.3140	0	36.0650	8	28.065	0	176.208	0	145.6	4	51.5	4	-1E+10	1	-1E+10	1	-1E+10	1	-1E+10	1	-1E+10	1	-1E+10	1
4901784	189	C	09/06/2020	10:42	-132.925	43.407	0	179.60	0	8.3060	0	36.0670	8	28.068	0	178.091	0	145.5	4	51.5	4	-1E+10	1	-1E+10	1	-1E+10	1	-1E+10	1	-1E+10	1	-1E+10	1
4901784	189	C	09/06/2020	10:42	-132.925	43.407	0	182.60	0	8.1910	0	36.1090	8	28.119	0	181.064	0	145.7	4	51.4	4	-1E+10	1	-1E+10	1	-1E+10	1	-1E+10	1	-1E+10	1	-1E+10	1
4901784	189	C	09/06/2020	10:42	-132.925	43.407	0	185.10	0	8.1680	0	36.1140	8	28.127	0	183.542	0	145.3	4	51.2	4	-1E+10	1	-1E+10	1	-1E+10	1	-1E+10	1	-1E+10	1	-1E+10	1
4901784	189	C	09/06/2020	10:42	-132.925	43.407	0	187.60	0	8.1640	0	36.1220	8	28.134	0	186.020	0	144.2	4	50.9	4	-1E+10	1	-1E+10	1	-1E+10	1	-1E+10	1	-1E+10	1	-1E+10	1
4901784	189	C	09/06/2020	10:42	-132.925	43.407	0	190.00	0	8.1450	0	36.1350	8	28.147	0	188.399	0	143.1	4	50.4	4	-1E+10	1	-1E+10	1	-1E+10	1	-1E+10	1	-1E+10	1	-1E+10	1
4901784	189	C	09/06/2020	10:42	-132.925	43.407	0	192.30	0	8.1320	0	36.1520	8	28.162	0	190.678	0	141.3	4	49.8	4	-1E+10	1	-1E+10	1	-1E+10	1	-1E+10	1	-1E+10	1	-1E+10	1
4901784	189	C	09/06/2020	10:42	-132.925	43.407	0	194.80	0	8.1500	0	36.1650	8	28.170	0	193.156	0	139.8	4	49.3	4	-1E+10	1	-1E+10	1	-1E+10	1	-1E+10	1	-1E+10	1	-1E+10	1
4901784	189	C	09/06/2020	10:42	-132.925	43.407	0	197.20	0	8.1550	0	36.1670	8	28.171	0	195.535	0	139.0	4	49.0	4	-1E+10	1	-1E+10	1	-1E+10	1	-1E+10	1	-1E+10	1	-1E+10	1
4901784	189	C	09/06/2020	10:42	-132.925	43.407	0	199.60	0	8.1020	0	36.1960	8	28.202	0	197.913	0	138.0	4	48.6	4	-1E+10	1	-1E+10	1	-1E+10	1	-1E+10	1	-1E+10	1	-1E+10	1
4901784	189	C	09/06/2020	10:42	-132.925	43.407	0	202.10	0	8.1020	0	36.2260	8	28.225	0	200.391	0	137.1	4	48.3	4	-1E+10	1	-1E+10	1	-1E+10	1	-1E+10	1	-1E+10	1	-1E+10	1
4901784	189	C	09/06/2020	10:42	-132.925	43.407	0	204.60	0	8.0710	0	36.2370	8	28.239	0	202.868	0	138.5	4	48.8	4	-1E+10	1	-1E+10	1	-1E+10	1	-1E+10	1	-1E+10	1	-1E+10	1
4901784	189	C	09/06/2020	10:42	-132.925	43.407	0	207.20	0	8.0180	0	36.2470	8	28.255	0	205.445	0	140.6	4	49.5	4	-1E+10	1	-1E+10	1	-1E+10	1	-1E+10	1	-1E+10	1	-1E+10	1
4901784	189	C	09/06/2020	10:42	-132.925	43.407	0	209.80	0	7.9450	0	36.2620	8	28.278	0	208.022	0	140.2	4	49.3	4	-1E+10	1	-1E+10	1	-1E+10	1	-1E+10	1	-1E+10	1	-1E+10	1
4901784	189	C	09/06/2020	10:42	-132.925	43.407	0	212.40	0	7.9280	0	36.2760	8	28.291	0	210.598	0	138.8	4	48.8	4	-1E+10	1	-1E+10	1	-1E+10	1	-1E+10	1	-1E+10	1	-1E+10	1
4901784	189	C	09/06/2020	10:42	-132.925	43.407	0	215.00	0	7.9230	0	36.2830	8	28.298	0	213.175	0	137.9	4	48.4	4	-1E+10	1	-1E+10	1	-1E+10	1	-1E+10	1	-1E+10	1	-1E+10	1
4901784	189	C	09/06/2020	10:42	-132.925	43.407	0	217.60	0	7.9140	0	36.2860	8	28.301	0	215.752	0	137.5	4	48.3	4	-1E+10	1	-1E+10	1	-1E+10	1	-1E+10	1	-1E+10	1	-1E+10	1
4901784	189	C	09/06/2020	10:42	-132.925	43.407	0	220.30	0	7.8560	0	36.2980	8	28.320	0	218.427	0	136.9	4	48.0	4	-1E+10	1	-1E+10	1	-1E+10	1	-1E+10	1	-1E+10	1	-1E+10	1
4901784	189	C	09/06/2020	10:42	-132.925	43.407	0	222.80	0	7.7800	0	36.3220	8	28.350	0	220.905	0	135.6	4	47.5	4	-1E+10	1	-1E+10	1	-1E+10	1	-1E+10	1	-1E+10	1	-1E+10	1
4901784	189	C	09/06/2020	10:42	-132.925	43.407	0	225.40	0	7.7480	0	36.3250	8	28.357	0	223.481	0	133.5	4	46.7	4	-1E+10	1	-1E+10	1	-1E+10	1	-1E+10	1	-1E+10	1	-1E+10	1
4901784	189	C	09/06/2020	10:42	-132.925	43.407	0	227.90	0	7.6780	0	36.3370	8	28.377	0	225.959	0	132.4	4	46.3	4	-1E+10	1	-1E+10	1	-1E+10	1	-1E+10	1	-1E+10	1	-1E+10	1
4901784	189	C	09/06/2020	10:42	-132.925	43.407	0	229.60	0	7.6730	0	36.3370	8	28.378	0	227.643	0	132.0	4	46.1	4	-1E+10	1	-1E+10	1	-1E+10	1	-1E+10	1	-1E+10	1	-1E+10	1
4901784	189	C	09/06/2020	10:42	-132.925	43.407	0	232.20	0	7.6590	0	36.3390	8	28.382	0	230.220	0	130.7	4	45.6	4	-1E+10	1	-1E+10	1	-1E+10	1	-1E+10	1	-1E+10	1	-1E+10	1
4901784	189	C	09/06/2020	10:42	-132.925	43.407	0	234.90	0	7.6380	0	36.3380	8	28.384	0	232.895	0	129.2	4	45.1	4	-1E+10	1	-1E+10	1	-1E+10	1	-1E+10	1	-1E+10	1	-1E+10	1
4901784	189	C	09/06/2020	10:42	-132.925	43.407	0	237.60	0	7.6000	0	36.3430	8	28.394	0	235.570	0	127.7	4	44.6	4	-1E+10	1	-1E+10	1	-1E+10	1	-1E+10	1	-1E+10	1	-1E+10	1
4901784	189	C	09/06/2020	10:42	-132.925	43.407	0	240.30	0	7.5740	0	36.3420	8	28.397	0	238.246	0	125.9	4	43.9	4	-1E+10	1	-1E+10	1	-1E+10	1	-1E+10	1	-1E+10	1	-1E+10	1
4901784	189	C	09/06/2020	10:42	-132.925	43.407	0	242.10	0	7.5390	0	36.3460	8	28.405	0	240.029	0	124.7	4	43.4	4	-1E+10	1	-1E+10	1	-1E+10	1	-1E+10	1	-1E+10	1	-1E+10	1
4901784	189	C	09/06/2020	10:42	-132.925	43.407	0	244.70	0	7.5030	0	36.3470	8	28.411	0	242.606	0	123.0	4	42.8	4	-1E+10	1	-1E+10	1	-1E+10	1	-1E+10	1	-1E+10	1	-1E+10	1
4901784	189	C	09/06/2020	10:42	-132.925	43.407	0	247.30	0	7.4370	0	36.3520	8	28.425	0	245.182	0	122.2	4	42.5	4	-1E+10	1	-1E+10	1	-1E+10	1	-1E+10	1	-1E+10	1	-1E+10	1
4901784	189	C	09/06/2020	10:42	-132.925	43.407	0	250.00	0	7.4110	0	36.3540	8	28.430	0	247.857	0	121.5	4	42.2	4	-1E+10	1	-1E+10	1	-1E+10	1	-1E+10	1	-1E+10	1	-1E+10	1
4901784	189	C	09/06/2020	10:42	-132.925	43.407	0	252.70	0	7.3930	0	36.3520	8	28.432	0	250.532	0	120.9	4	42.0	4	-1E+10	1	-1E+10	1	-1E+10	1	-1E+10	1	-1E+10	1	-1E+10	1
4901784	189	C	09/06/2020	10:42	-132.925	43.407	0	254.40	0	7.3720	0	36.3530	8	28.435	0	252.217	0	120.2	4	41.7	4	-1E+10	1	-1E+10	1	-1E+10	1	-1E+10	1	-1E+10	1	-1E+10	1
4901784	189	C	09/06/2020	10:42	-132.925	43.407	0	257.20	0	7.3320	0	36.3520	8	28.440	0	254.991	0	119.1	4	41.3	4	-1E+10	1	-1E+10	1	-1E+10	1	-1E+10	1	-1E+10	1	-1E+10	1
4901784	189	C	09/06/2020	10:42	-132.925	43.407	0	259.90	0	7.2810	0	36.3540	8	28.450	0	257.666	0	117.5	4	40.7	4	-1E+10	1	-1E+10	1	-1E+10	1	-1E+10	1	-1E+10	1	-1E+10	1
4901784	189	C	09/06/2020	10:42	-132.925	43.407	0	262.50	0	7.2130	0	36.3570	8	28.462	0	260.242	0	116.2	4	40.2	4	-1E+10	1	-1E+10	1	-1E+10	1	-1E+10	1	-1E+10	1	-1E+10	1
4901784	189	C	09/06/2020	10:42	-132.925	43.407	0	265.20	0	7.1550	0	36.3590	8	28.472	0	262.917	0	115.1	4	39.8	4	-1E+10	1	-1E+10	1	-1E+10	1	-1E+10	1	-1E+10	1	-1E+10	1
4901784	189	C	09/06/2020	10:42	-132.925	43.407	0	267.00	0	7.1120	0	36.3620	8	28.480	0	264.700	0	114.5	4	39.5	4	-1E+10	1	-1E+10	1	-1E+10	1	-1E+10	1	-1E+10	1	-1E+10	1
4901784	189	C	09/06/2020	10:42	-132.925	43.407	0	269.70	0	7.0870	0	36.3630	8	28.485	0	267.376	0	113.6	4	39.2	4	-1E+10	1	-1E+10	1	-1E+10	1	-1E+10	1	-1E+10	1	-1E+10	1
4901784	189	C	09/06/2020	10:42	-132.925	43.407	0	272.50	0	7.0540	0	36.3620	8	28.489	0	270.150	0	112.9	4	38.9	4	-1E+10	1	-1E+10	1	-1E+10	1	-1E+10	1	-1E+10	1	-1E+10	1
4901784	189	C	09/06/2020	10:42	-132.925	43.407	0	275.20	0	6.9910	0	36.3660	8	28.501	0	272.824	0	111.9	4	38.5	4	-1E+10	1	-1E+10	1	-1E+10	1	-1E+10	1	-1E+10	1	-1E+10	1
4901784	189	C	09/06/2020	10:42	-132.925	43.407	0	278.00	0	6.9530	0	36.3660	8	28.506	0	275.598	0	111.1	4	38.2	4	-1E+10	1	-1E+10	1	-1E+10	1	-1E+10	1	-1E+10	1	-1E+10	1
4901784	189	C	09/06/2020	10:42	-132.925	43.407	0	279.80	0	6.9190	0	36.3670	8	28.512	0	277.382	0	110.7	4	38.0	4	-1E+10	1	-1E+10	1	-1E+10	1	-1E+10	1	-1E+10	1	-1E+10	1
4901784	189	C	09/06/2020	10:42	-132.925	43.407	0	282.60	0	6.8940	0	36.3690	8	28.517	0	280.156	0	109.9	4	37.7	4	-1E+10	1	-1E+10	1	-1E+10	1	-1E+10	1	-1E+10	1	-1E+10	1
4901784	189	C	09/06/2020	10:42	-132.925	43.407	0	285.40	0	6.8510	0	36.3670	8	28.522	0	282.929	0	109.5	4	37.6	4	-1E+10	1	-1E+10	1	-1E+10	1	-1E+10	1	-1E+10	1	-1E+10	1
4901784	189	C	09/06/2020	10:42	-132.925	43.407	0	287.20	0	6.8300	0	36.3670	8	28.525	0	284.713	0	109.3	4	37.5	4	-1E+10	1	-1E+10	1	-1E+10	1	-1E+10	1	-1E+10	1	-1E+10	1
4901784	189	C	09/06/2020	10:42	-132.925	43.407	0	290.00	0	6.7950	0	36.3680	8	28.530	0	287.486	0	109.3	4	37.5	4	-1E+10	1	-1E+10	1	-1E+10	1	-1E+10	1	-1E+10	1	-1E+10	1
4901784	189	C	09/06/2020	10:42	-132.925	43.407	0	292.80	0	6.7650	0	36.3660	8	28.533	0	290.260	0	109.5	4	37.5	4	-1E+10	1	-1E+10	1	-1E+10	1	-1E+10	1	-1E+10	1	-1E+10	1
4901784	189	C	09/06/2020	10:42	-132.925	43.407	0	294.70	0	6.7280	0	36.3690	8	28.540	0	292.142	0	109.8	4	37.5	4	-1E+10	1	-1E+10	1	-1E+10	1	-1E+10	1	-1E+10	1	-1E+10	1
4901784	189	C	09/06/2020	10:42	-132.925	43.407	0	297.50	0	6.6980	0	36.3670	8	28.543	0	294.916	0	110.4	4	37.8	4	-1E+10	1	-1E+10	1	-1E+10	1	-1E+10	1	-1E+10	1	-1E+10	1
4901784	189	C	09/06/2020	10:42	-132.925	43.407	0	300.80	0	6.6540	0	36.3630	8	28.546	0	298.185	0	111.0	4	37.9	4	-1E+10	1	-1E+10	1	-1E+10	1	-1E+10	1	-1E+10	1	-1E+10	1
4901784	189	C	09/06/2020	10:42	-132.925	43.407	0	302.70	0	6.6100	0	36.3610	8	28.551	0	300.067	0	110.3	4	37.6	4	-1E+10	1	-1E+10	1	-1E+10	1	-1E+10	1	-1E+10	1	-1E+10	1
4901784	189	C	09/06/2020	10:42	-132.925	43.407	0	305.00	0	6.5580	0	36.3620	8	28.559	0	302.345	0	107.7	4	36.7	4	-1E+10	1	-1E+10	1	-1E+10	1	-1E+10	1	-1E+10	1	-1E+10	1
4901784	189	C	09/06/2020	10:42	-132.925	43.407	0	307.30	0	6.5300	0	36.3640	8	28.564	0	304.624	0	105.2	4	35.8	4	-1E+10	1	-1E+10	1	-1E+10	1	-1E+10	1	-1E+10	1	-1E+10	1
4901784	189	C	09/06/2020	10:42	-132.925	43.407	0	309.70	0	6.4970	0	36.3660	8	28.570	0	307.001	0	103.0	4	35.0	4	-1E+10	1	-1E+10	1	-1E+10	1	-1E+10	1	-1E+10	1	-1E+10	1
4901784	189	C	09/06/2020	10:42	-132.925	43.407	0	312.90	0	6.4670	0	36.3690	8	28.577	0	310.171	0	99.7	4	33.9	4	-1E+10	1	-1E+10	1	-1E+10	1	-1E+10	1	-1E+10	1	-1E+10	1
4901784	189	C	09/06/2020	10:42	-132.925	43.407	0	315.40	0	6.4280	0	36.3700	8	28.583	0	312.647	0	98.6	4	33.5	4	-1E+10	1	-1E+10	1	-1E+10	1	-1E+10	1	-1E+10	1	-1E+10	1
4901784	189	C	09/06/2020	10:42	-132.925	43.407	0	317.80	0	6.3840	0	36.3720	8	28.590	0	315.024	0	97.4	4	33.1	4	-1E+10	1	-1E+10	1	-1E+10	1	-1E+10	1	-1E+10	1	-1E+10	1
4901784	189	C	09/06/2020	10:42	-132.925	43.407	0	320.30	0	6.3450	0	36.3730	8	28.596	0	317.501	0	95.6	4	32.4	4	-1E+10	1	-1E+10	1	-1E+10	1	-1E+10	1	-1E+10	1	-1E+10	1
4901784	189	C	09/06/2020	10:42	-132.925	43.407	0	322.80	0	6.3090	0	36.3750	8	28.603	0	319.977	0	94.5	4	32.0	4	-1E+10	1	-1E+10	1	-1E+10	1	-1E+10	1	-1E+10	1	-1E+10	1
4901784	189	C	09/06/2020	10:42	-132.925	43.407	0	325.30	0	6.2560	0	36.3740	8	28.609	0	322.453	0	93.9	4	31.8	4	-1E+10	1	-1E+10	1	-1E+10	1	-1E+10	1	-1E+10	1	-1E+10	1
4901784	189	C	09/06/2020	10:42	-132.925	43.407	0	327.70	0	6.2030	0	36.3760	8	28.618	0	324.830	0	92.4	4	31.2	4	-1E+10	1	-1E+10	1	-1E+10	1	-1E+10	1	-1E+10	1	-1E+10	1
4901784	189	C	09/06/2020	10:42	-132.925	43.407	0	330.30	0	6.1880	0	36.3800	8	28.623	0	327.405	0	90.9	4	30.7	4	-1E+10	1	-1E+10	1	-1E+10	1	-1E+10	1	-1E+10	1	-1E+10	1
4901784	189	C	09/06/2020	10:42	-132.925	43.407	0	332.70	0	6.1790	0	36.3800	8	28.624	0	329.782	0	89.9	4	30.4	4	-1E+10	1	-1E+10	1	-1E+10	1	-1E+10	1	-1E+10	1	-1E+10	1
4901784	189	C	09/06/2020	10:42	-132.925	43.407	0	335.20	0	6.1590	0	36.3790	8	28.626	0	332.258	0	88.7	4	29.9	4	-1E+10	1	-1E+10	1	-1E+10	1	-1E+10	1	-1E+10	1	-1E+10	1
4901784	189	C	09/06/2020	10:42	-132.925	43.407	0	337.70	0	6.1160	0	36.3810	8	28.634	0	334.734	0	87.3	4	29.5	4	-1E+10	1	-1E+10	1	-1E+10	1	-1E+10	1	-1E+10	1	-1E+10	1
4901784	189	C	09/06/2020	10:42	-132.925	43.407	0	340.30	0	6.0750	0	36.3840	8	28.641	0	337.310	0	86.2	4	29.1	4	-1E+10	1	-1E+10	1	-1E+10	1	-1E+10	1	-1E+10	1	-1E+10	1
4901784	189	C	09/06/2020	10:42	-132.925	43.407	0	342.90	0	6.0420	0	36.3850	8	28.647	0	339.885	0	85.4	4	28.8	4	-1E+10	1	-1E+10	1	-1E+10	1	-1E+10	1	-1E+10	1	-1E+10	1
4901784	189	C	09/06/2020	10:42	-132.925	43.407	0	345.50	0	6.0110	0	36.3860	8	28.651	0	342.460	0	84.5	4	28.4	4	-1E+10	1	-1E+10	1	-1E+10	1	-1E+10	1	-1E+10	1	-1E+10	1
4901784	189	C	09/06/2020	10:42	-132.925	43.407	0	347.20	0	5.9910	0	36.3860	8	28.654	0	344.143	0	84.0	4	28.3	4	-1E+10	1	-1E+10	1	-1E+10	1	-1E+10	1	-1E+10	1	-1E+10	1
4901784	189	C	09/06/2020	10:42	-132.925	43.407	0	349.80	0	5.9640	0	36.3860	8	28.658	0	346.718	0	83.1	4	27.9	4	-1E+10	1	-1E+10	1	-1E+10	1	-1E+10	1	-1E+10	1	-1E+10	1
4901784	189	C	09/06/2020	10:42	-132.925	43.407	0	352.40	0	5.9380	0	36.3870	8	28.662	0	349.293	0	82.1	4	27.6	4	-1E+10	1	-1E+10	1	-1E+10	1	-1E+10	1	-1E+10	1	-1E+10	1
4901784	189	C	09/06/2020	10:42	-132.925	43.407	0	355.00	0	5.8940	0	36.3900	8	28.670	0	351.868	0	81.2	4	27.3	4	-1E+10	1	-1E+10	1	-1E+10	1	-1E+10	1	-1E+10	1	-1E+10	1
4901784	189	C	09/06/2020	10:42	-132.925	43.407	0	357.70	0	5.8600	0	36.3920	8	28.676	0	354.542	0	80.5	4	27.0	4	-1E+10	1	-1E+10	1	-1E+10	1	-1E+10	1	-1E+10	1	-1E+10	1
4901784	189	C	09/06/2020	10:42	-132.925	43.407	0	360.30	0	5.8450	0	36.3930	8	28.679	0	357.117	0	79.8	4	26.8	4	-1E+10	1	-1E+10	1	-1E+10	1	-1E+10	1	-1E+10	1	-1E+10	1
4901784	189	C	09/06/2020	10:42	-132.925	43.407	0	362.90	0	5.8280	0	36.3940	8	28.682	0	359.691	0	79.2	4	26.6	4	-1E+10	1	-1E+10	1	-1E+10	1	-1E+10	1	-1E+10	1	-1E+10	1
4901784	189	C	09/06/2020	10:42	-132.925	43.407	0	364.60	0	5.8180	0	36.3940	8	28.683	0	361.375	0	78.9	4	26.4	4	-1E+10	1	-1E+10	1	-1E+10	1	-1E+10	1	-1E+10	1	-1E+10	1
4901784	189	C	09/06/2020	10:42	-132.925	43.407	0	367.30	0	5.8050	0	36.3940	8	28.685	0	364.049	0	78.1	4	26.2	4	-1E+10	1	-1E+10	1	-1E+10	1	-1E+10	1	-1E+10	1	-1E+10	1
4901784	189	C	09/06/2020	10:42	-132.925	43.407	0	369.90	0	5.7880	0	36.3920	8	28.685	0	366.623	0	77.3	4	25.9	4	-1E+10	1	-1E+10	1	-1E+10	1	-1E+10	1	-1E+10	1	-1E+10	1
4901784	189	C	09/06/2020	10:42	-132.925	43.407	0	372.50	0	5.7290	0	36.3970	8	28.697	0	369.198	0	76.5	4	25.6	4	-1E+10	1	-1E+10	1	-1E+10	1	-1E+10	1	-1E+10	1	-1E+10	1
4901784	189	C	09/06/2020	10:42	-132.925	43.407	0	375.10	0	5.6820	0	36.3960	8	28.702	0	371.773	0	76.0	4	25.4	4	-1E+10	1	-1E+10	1	-1E+10	1	-1E+10	1	-1E+10	1	-1E+10	1
4901784	189	C	09/06/2020	10:42	-132.925	43.407	0	377.80	0	5.6560	0	36.3980	8	28.707	0	374.446	0	75.3	4	25.2	4	-1E+10	1	-1E+10	1	-1E+10	1	-1E+10	1	-1E+10	1	-1E+10	1
4901784	189	C	09/06/2020	10:42	-132.925	43.407	0	380.50	0	5.6440	0	36.3990	8	28.710	0	377.120	0	74.8	4	25.0	4	-1E+10	1	-1E+10	1	-1E+10	1	-1E+10	1	-1E+10	1	-1E+10	1
4901784	189	C	09/06/2020	10:42	-132.925	43.407	0	382.20	0	5.6320	0	36.3980	8	28.710	0	378.803	0	74.4	4	24.8	4	-1E+10	1	-1E+10	1	-1E+10	1	-1E+10	1	-1E+10	1	-1E+10	1
4901784	189	C	09/06/2020	10:42	-132.925	43.407	0	384.80	0	5.5940	0	36.3990	8	28.716	0	381.378	0	73.6	4	24.5	4	-1E+10	1	-1E+10	1	-1E+10	1	-1E+10	1	-1E+10	1	-1E+10	1
4901784	189	C	09/06/2020	10:42	-132.925	43.407	0	387.50	0	5.5650	0	36.4020	8	28.722	0	384.051	0	73.2	4	24.4	4	-1E+10	1	-1E+10	1	-1E+10	1	-1E+10	1	-1E+10	1	-1E+10	1
4901784	189	C	09/06/2020	10:42	-132.925	43.407	0	390.20	0	5.5190	0	36.4020	8	28.728	0	386.725	0	73.6	4	24.5	4	-1E+10	1	-1E+10	1	-1E+10	1	-1E+10	1	-1E+10	1	-1E+10	1
4901784	189	C	09/06/2020	10:42	-132.925	43.407	0	392.90	0	5.5050	0	36.3990	8	28.727	0	389.398	0	73.9	4	24.6	4	-1E+10	1	-1E+10	1	-1E+10	1	-1E+10	1	-1E+10	1	-1E+10	1
4901784	189	C	09/06/2020	10:42	-132.925	43.407	0	394.60	0	5.4910	0	36.3970	8	28.727	0	391.081	0	74.3	4	24.7	4	-1E+10	1	-1E+10	1	-1E+10	1	-1E+10	1	-1E+10	1	-1E+10	1
4901784	189	C	09/06/2020	10:42	-132.925	43.407	0	397.40	0	5.4080	0	36.3950	8	28.736	0	393.854	0	74.7	4	24.8	4	-1E+10	1	-1E+10	1	-1E+10	1	-1E+10	1	-1E+10	1	-1E+10	1
4901784	189	C	09/06/2020	10:42	-132.925	43.407	0	400.00	0	5.3670	0	36.3930	8	28.740	0	396.428	0	74.5	4	24.7	4	-1E+10	1	-1E+10	1	-1E+10	1	-1E+10	1	-1E+10	1	-1E+10	1
4901784	189	C	09/06/2020	10:42	-132.925	43.407	0	402.70	0	5.3290	0	36.3940	8	28.745	0	399.101	0	73.9	4	24.5	4	-1E+10	1	-1E+10	1	-1E+10	1	-1E+10	1	-1E+10	1	-1E+10	1
4901784	189	C	09/06/2020	10:42	-132.925	43.407	0	405.40	0	5.3040	0	36.3950	8	28.749	0	401.774	0	73.3	4	24.3	4	-1E+10	1	-1E+10	1	-1E+10	1	-1E+10	1	-1E+10	1	-1E+10	1
4901784	189	C	09/06/2020	10:42	-132.925	43.407	0	407.10	0	5.2880	0	36.3950	8	28.751	0	403.458	0	72.7	4	24.1	4	-1E+10	1	-1E+10	1	-1E+10	1	-1E+10	1	-1E+10	1	-1E+10	1
4901784	189	C	09/06/2020	10:42	-132.925	43.407	0	409.80	0	5.2730	0	36.3980	8	28.755	0	406.131	0	71.6	4	23.7	4	-1E+10	1	-1E+10	1	-1E+10	1	-1E+10	1	-1E+10	1	-1E+10	1
4901784	189	C	09/06/2020	10:42	-132.925	43.407	0	412.40	0	5.2490	0	36.4020	8	28.762	0	408.705	0	70.5	4	23.3	4	-1E+10	1	-1E+10	1	-1E+10	1	-1E+10	1	-1E+10	1	-1E+10	1
4901784	189	C	09/06/2020	10:42	-132.925	43.407	0	415.10	0	5.2460	0	36.4040	8	28.764	0	411.378	0	69.3	4	22.9	4	-1E+10	1	-1E+10	1	-1E+10	1	-1E+10	1	-1E+10	1	-1E+10	1
4901784	189	C	09/06/2020	10:42	-132.925	43.407	0	417.70	0	5.2350	0	36.4090	8	28.769	0	413.952	0	68.0	4	22.5	4	-1E+10	1	-1E+10	1	-1E+10	1	-1E+10	1	-1E+10	1	-1E+10	1
4901784	189	C	09/06/2020	10:42	-132.925	43.407	0	419.50	0	5.2360	0	36.4100	8	28.770	0	415.734	0	67.2	4	22.2	4	-1E+10	1	-1E+10	1	-1E+10	1	-1E+10	1	-1E+10	1	-1E+10	1
4901784	189	C	09/06/2020	10:42	-132.925	43.407	0	422.20	0	5.2490	0	36.4140	8	28.771	0	418.407	0	65.8	4	21.8	4	-1E+10	1	-1E+10	1	-1E+10	1	-1E+10	1	-1E+10	1	-1E+10	1
4901784	189	C	09/06/2020	10:42	-132.925	43.407	0	424.90	0	5.2650	0	36.4180	8	28.772	0	421.080	0	64.7	4	21.4	4	-1E+10	1	-1E+10	1	-1E+10	1	-1E+10	1	-1E+10	1	-1E+10	1
4901784	189	C	09/06/2020	10:42	-132.925	43.407	0	427.50	0	5.2310	0	36.4200	8	28.778	0	423.654	0	63.5	4	21.0	4	-1E+10	1	-1E+10	1	-1E+10	1	-1E+10	1	-1E+10	1	-1E+10	1
4901784	189	C	09/06/2020	10:42	-132.925	43.407	0	430.10	0	5.2490	0	36.4260	8	28.781	0	426.228	0	61.7	4	20.4	4	-1E+10	1	-1E+10	1	-1E+10	1	-1E+10	1	-1E+10	1	-1E+10	1
4901784	189	C	09/06/2020	10:42	-132.925	43.407	0	432.70	0	5.2580	0	36.4320	8	28.784	0	428.802	0	60.9	4	20.2	4	-1E+10	1	-1E+10	1	-1E+10	1	-1E+10	1	-1E+10	1	-1E+10	1
4901784	189	C	09/06/2020	10:42	-132.925	43.407	0	435.40	0	5.2570	0	36.4330	8	28.785	0	431.475	0	60.5	4	20.0	4	-1E+10	1	-1E+10	1	-1E+10	1	-1E+10	1	-1E+10	1	-1E+10	1
4901784	189	C	09/06/2020	10:42	-132.925	43.407	0	437.10	0	5.2500	0	36.4340	8	28.787	0	433.158	0	60.2	4	19.9	4	-1E+10	1	-1E+10	1	-1E+10	1	-1E+10	1	-1E+10	1	-1E+10	1
4901784	189	C	09/06/2020	10:42	-132.925	43.407	0	439.70	0	5.2410	0	36.4350	8	28.789	0	435.732	0	60.1	4	19.9	4	-1E+10	1	-1E+10	1	-1E+10	1	-1E+10	1	-1E+10	1	-1E+10	1
4901784	189	C	09/06/2020	10:42	-132.925	43.407	0	442.30	0	5.2050	0	36.4350	8	28.793	0	438.305	0	60.2	4	19.9	4	-1E+10	1	-1E+10	1	-1E+10	1	-1E+10	1	-1E+10	1	-1E+10	1
4901784	189	C	09/06/2020	10:42	-132.925	43.407	0	445.00	0	5.1690	0	36.4340	8	28.797	0	440.978	0	60.2	4	19.9	4	-1E+10	1	-1E+10	1	-1E+10	1	-1E+10	1	-1E+10	1	-1E+10	1
4901784	189	C	09/06/2020	10:42	-132.925	43.407	0	447.60	0	5.1460	0	36.4330	8	28.799	0	443.552	0	60.0	4	19.8	4	-1E+10	1	-1E+10	1	-1E+10	1	-1E+10	1	-1E+10	1	-1E+10	1
4901784	189	C	09/06/2020	10:42	-132.925	43.407	0	450.20	0	5.1120	0	36.4310	8	28.802	0	446.126	0	59.4	4	19.6	4	-1E+10	1	-1E+10	1	-1E+10	1	-1E+10	1	-1E+10	1	-1E+10	1
4901784	189	C	09/06/2020	10:42	-132.925	43.407	0	452.80	0	5.0540	0	36.4340	8	28.811	0	448.699	0	58.2	4	19.2	4	-1E+10	1	-1E+10	1	-1E+10	1	-1E+10	1	-1E+10	1	-1E+10	1
4901784	189	C	09/06/2020	10:42	-132.925	43.407	0	454.50	0	5.0690	0	36.4390	8	28.813	0	450.382	0	57.2	4	18.8	4	-1E+10	1	-1E+10	1	-1E+10	1	-1E+10	1	-1E+10	1	-1E+10	1
4901784	189	C	09/06/2020	10:42	-132.925	43.407	0	457.20	0	5.0660	0	36.4420	8	28.816	0	453.055	0	56.1	4	18.5	4	-1E+10	1	-1E+10	1	-1E+10	1	-1E+10	1	-1E+10	1	-1E+10	1
4901784	189	C	09/06/2020	10:42	-132.925	43.407	0	459.80	0	5.0710	0	36.4490	8	28.821	0	455.628	0	55.1	4	18.2	4	-1E+10	1	-1E+10	1	-1E+10	1	-1E+10	1	-1E+10	1	-1E+10	1
4901784	189	C	09/06/2020	10:42	-132.925	43.407	0	462.40	0	5.0600	0	36.4510	8	28.824	0	458.202	0	54.8	4	18.0	4	-1E+10	1	-1E+10	1	-1E+10	1	-1E+10	1	-1E+10	1	-1E+10	1
4901784	189	C	09/06/2020	10:42	-132.925	43.407	0	465.00	0	5.0120	0	36.4540	8	28.832	0	460.775	0	54.7	4	18.0	4	-1E+10	1	-1E+10	1	-1E+10	1	-1E+10	1	-1E+10	1	-1E+10	1
4901784	189	C	09/06/2020	10:42	-132.925	43.407	0	467.60	0	4.9970	0	36.4520	8	28.832	0	463.349	0	54.4	4	17.9	4	-1E+10	1	-1E+10	1	-1E+10	1	-1E+10	1	-1E+10	1	-1E+10	1
4901784	189	C	09/06/2020	10:42	-132.925	43.407	0	470.20	0	4.9600	0	36.4510	8	28.836	0	465.922	0	54.2	4	17.8	4	-1E+10	1	-1E+10	1	-1E+10	1	-1E+10	1	-1E+10	1	-1E+10	1
4901784	189	C	09/06/2020	10:42	-132.925	43.407	0	472.90	0	4.9270	0	36.4510	8	28.840	0	468.595	0	53.7	4	17.6	4	-1E+10	1	-1E+10	1	-1E+10	1	-1E+10	1	-1E+10	1	-1E+10	1
4901784	189	C	09/06/2020	10:42	-132.925	43.407	0	475.40	0	4.9090	0	36.4530	8	28.844	0	471.069	0	52.2	4	17.1	4	-1E+10	1	-1E+10	1	-1E+10	1	-1E+10	1	-1E+10	1	-1E+10	1
4901784	189	C	09/06/2020	10:42	-132.925	43.407	0	477.20	0	4.9600	0	36.4640	8	28.846	0	472.851	0	51.1	4	16.8	4	-1E+10	1	-1E+10	1	-1E+10	1	-1E+10	1	-1E+10	1	-1E+10	1
4901784	189	C	09/06/2020	10:42	-132.925	43.407	0	479.70	0	4.9310	0	36.4630	8	28.849	0	475.325	0	50.6	4	16.6	4	-1E+10	1	-1E+10	1	-1E+10	1	-1E+10	1	-1E+10	1	-1E+10	1
4901784	189	C	09/06/2020	10:42	-132.925	43.407	0	482.30	0	4.9670	0	36.4730	8	28.853	0	477.898	0	49.2	4	16.2	4	-1E+10	1	-1E+10	1	-1E+10	1	-1E+10	1	-1E+10	1	-1E+10	1
4901784	189	C	09/06/2020	10:42	-132.925	43.407	0	484.90	0	4.9280	0	36.4720	8	28.857	0	480.471	0	48.5	4	15.9	4	-1E+10	1	-1E+10	1	-1E+10	1	-1E+10	1	-1E+10	1	-1E+10	1
4901784	189	C	09/06/2020	10:42	-132.925	43.407	0	487.40	0	4.9130	0	36.4730	8	28.859	0	482.946	0	47.7	4	15.7	4	-1E+10	1	-1E+10	1	-1E+10	1	-1E+10	1	-1E+10	1	-1E+10	1
4901784	189	C	09/06/2020	10:42	-132.925	43.407	0	490.00	0	4.9110	0	36.4790	8	28.864	0	485.519	0	47.0	4	15.4	4	-1E+10	1	-1E+10	1	-1E+10	1	-1E+10	1	-1E+10	1	-1E+10	1
4901784	189	C	09/06/2020	10:42	-132.925	43.407	0	492.60	0	4.9240	0	36.4820	8	28.865	0	488.092	0	46.3	4	15.2	4	-1E+10	1	-1E+10	1	-1E+10	1	-1E+10	1	-1E+10	1	-1E+10	1
4901784	189	C	09/06/2020	10:42	-132.925	43.407	0	495.30	0	4.8780	0	36.4810	8	28.870	0	490.764	0	46.1	4	15.1	4	-1E+10	1	-1E+10	1	-1E+10	1	-1E+10	1	-1E+10	1	-1E+10	1
4901784	189	C	09/06/2020	10:42	-132.925	43.407	0	497.90	0	4.8100	0	36.4800	8	28.877	0	493.337	0	45.3	4	14.8	4	-1E+10	1	-1E+10	1	-1E+10	1	-1E+10	1	-1E+10	1	-1E+10	1
4901784	189	C	09/06/2020	10:42	-132.925	43.407	0	499.60	0	4.8420	0	36.4860	8	28.878	0	495.020	0	44.4	4	14.6	4	-1E+10	1	-1E+10	1	-1E+10	1	-1E+10	1	-1E+10	1	-1E+10	1
4901784	189	C	09/06/2020	10:42	-132.925	43.407	0	504.90	0	4.8020	0	36.4900	8	28.886	0	500.265	0	43.0	4	14.1	4	-1E+10	1	-1E+10	1	-1E+10	1	-1E+10	1	-1E+10	1	-1E+10	1
4901784	189	C	09/06/2020	10:42	-132.925	43.407	0	510.20	0	4.7780	0	36.4970	8	28.894	0	505.510	0	41.4	4	13.5	4	-1E+10	1	-1E+10	1	-1E+10	1	-1E+10	1	-1E+10	1	-1E+10	1
4901784	189	C	09/06/2020	10:42	-132.925	43.407	0	515.40	0	4.7480	0	36.5040	8	28.904	0	510.655	0	39.5	4	12.9	4	-1E+10	1	-1E+10	1	-1E+10	1	-1E+10	1	-1E+10	1	-1E+10	1
4901784	189	C	09/06/2020	10:42	-132.925	43.407	0	520.70	0	4.7400	0	36.5140	8	28.912	0	515.900	0	36.8	4	12.0	4	-1E+10	1	-1E+10	1	-1E+10	1	-1E+10	1	-1E+10	1	-1E+10	1
4901784	189	C	09/06/2020	10:42	-132.925	43.407	0	525.20	0	4.7500	0	36.5260	8	28.921	0	520.353	0	34.2	4	11.2	4	-1E+10	1	-1E+10	1	-1E+10	1	-1E+10	1	-1E+10	1	-1E+10	1
4901784	189	C	09/06/2020	10:42	-132.925	43.407	0	529.80	0	4.7650	0	36.5400	8	28.930	0	524.905	0	32.1	4	10.5	4	-1E+10	1	-1E+10	1	-1E+10	1	-1E+10	1	-1E+10	1	-1E+10	1
4901784	189	C	09/06/2020	10:42	-132.925	43.407	0	535.30	0	4.7840	0	36.5500	8	28.936	0	530.347	0	30.2	4	9.9	4	-1E+10	1	-1E+10	1	-1E+10	1	-1E+10	1	-1E+10	1	-1E+10	1
4901784	189	C	09/06/2020	10:42	-132.925	43.407	0	539.80	0	4.7780	0	36.5590	8	28.944	0	534.799	0	28.7	4	9.4	4	-1E+10	1	-1E+10	1	-1E+10	1	-1E+10	1	-1E+10	1	-1E+10	1
4901784	189	C	09/06/2020	10:42	-132.925	43.407	0	544.30	0	4.7730	0	36.5680	8	28.952	0	539.252	0	27.3	4	9.0	4	-1E+10	1	-1E+10	1	-1E+10	1	-1E+10	1	-1E+10	1	-1E+10	1
4901784	189	C	09/06/2020	10:42	-132.925	43.407	0	549.80	0	4.7760	0	36.5750	8	28.957	0	544.694	0	25.9	4	8.5	4	-1E+10	1	-1E+10	1	-1E+10	1	-1E+10	1	-1E+10	1	-1E+10	1
4901784	189	C	09/06/2020	10:42	-132.925	43.407	0	555.20	0	4.7670	0	36.5870	8	28.968	0	550.036	0	24.2	4	7.9	4	-1E+10	1	-1E+10	1	-1E+10	1	-1E+10	1	-1E+10	1	-1E+10	1
4901784	189	C	09/06/2020	10:42	-132.925	43.407	0	559.80	0	4.7810	0	36.5960	8	28.973	0	554.587	0	23.3	4	7.6	4	-1E+10	1	-1E+10	1	-1E+10	1	-1E+10	1	-1E+10	1	-1E+10	1
4901784	189	C	09/06/2020	10:42	-132.925	43.407	0	564.40	0	4.7530	0	36.6000	8	28.980	0	559.139	0	22.7	4	7.4	4	-1E+10	1	-1E+10	1	-1E+10	1	-1E+10	1	-1E+10	1	-1E+10	1
4901784	189	C	09/06/2020	10:42	-132.925	43.407	0	569.60	0	4.7210	0	36.6070	8	28.989	0	564.283	0	21.8	4	7.1	4	-1E+10	1	-1E+10	1	-1E+10	1	-1E+10	1	-1E+10	1	-1E+10	1
4901784	189	C	09/06/2020	10:42	-132.925	43.407	0	574.40	0	4.7050	0	36.6120	8	28.995	0	569.032	0	21.4	4	7.0	4	-1E+10	1	-1E+10	1	-1E+10	1	-1E+10	1	-1E+10	1	-1E+10	1
4901784	189	C	09/06/2020	10:42	-132.925	43.407	0	579.20	0	4.6970	0	36.6140	8	28.997	0	573.780	0	20.9	4	6.8	4	-1E+10	1	-1E+10	1	-1E+10	1	-1E+10	1	-1E+10	1	-1E+10	1
4901784	189	C	09/06/2020	10:42	-132.925	43.407	0	584.90	0	4.6680	0	36.6200	8	29.006	0	579.419	0	20.0	4	6.5	4	-1E+10	1	-1E+10	1	-1E+10	1	-1E+10	1	-1E+10	1	-1E+10	1
4901784	189	C	09/06/2020	10:42	-132.925	43.407	0	590.60	0	4.6400	0	36.6280	8	29.015	0	585.057	0	19.5	4	6.4	4	-1E+10	1	-1E+10	1	-1E+10	1	-1E+10	1	-1E+10	1	-1E+10	1
4901784	189	C	09/06/2020	10:42	-132.925	43.407	0	595.60	0	4.6040	0	36.6280	8	29.020	0	590.003	0	19.3	4	6.3	4	-1E+10	1	-1E+10	1	-1E+10	1	-1E+10	1	-1E+10	1	-1E+10	1
4901784	189	C	09/06/2020	10:42	-132.925	43.407	0	600.50	0	4.5580	0	36.6300	8	29.026	0	594.850	0	18.9	4	6.2	4	-1E+10	1	-1E+10	1	-1E+10	1	-1E+10	1	-1E+10	1	-1E+10	1
4901784	189	C	09/06/2020	10:42	-132.925	43.407	0	605.60	0	4.5580	0	36.6390	8	29.034	0	599.895	0	17.9	4	5.8	4	-1E+10	1	-1E+10	1	-1E+10	1	-1E+10	1	-1E+10	1	-1E+10	1
4901784	189	C	09/06/2020	10:42	-132.925	43.407	0	610.60	0	4.5680	0	36.6470	8	29.039	0	604.841	0	17.2	4	5.6	4	-1E+10	1	-1E+10	1	-1E+10	1	-1E+10	1	-1E+10	1	-1E+10	1
4901784	189	C	09/06/2020	10:42	-132.925	43.407	0	615.70	0	4.5290	0	36.6500	8	29.046	0	609.885	0	17.0	4	5.5	4	-1E+10	1	-1E+10	1	-1E+10	1	-1E+10	1	-1E+10	1	-1E+10	1
4901784	189	C	09/06/2020	10:42	-132.925	43.407	0	620.00	0	4.4580	0	36.6520	8	29.056	0	614.138	0	16.8	4	5.5	4	-1E+10	1	-1E+10	1	-1E+10	1	-1E+10	1	-1E+10	1	-1E+10	1
4901784	189	C	09/06/2020	10:42	-132.925	43.407	0	624.30	0	4.4390	0	36.6550	8	29.060	0	618.391	0	16.6	4	5.4	4	-1E+10	1	-1E+10	1	-1E+10	1	-1E+10	1	-1E+10	1	-1E+10	1
4901784	189	C	09/06/2020	10:42	-132.925	43.407	0	629.50	0	4.3890	0	36.6570	8	29.067	0	623.534	0	16.3	4	5.3	4	-1E+10	1	-1E+10	1	-1E+10	1	-1E+10	1	-1E+10	1	-1E+10	1
4901784	189	C	09/06/2020	10:42	-132.925	43.407	0	634.80	0	4.3740	0	36.6650	8	29.076	0	628.776	0	15.9	4	5.2	4	-1E+10	1	-1E+10	1	-1E+10	1	-1E+10	1	-1E+10	1	-1E+10	1
4901784	189	C	09/06/2020	10:42	-132.925	43.407	0	640.20	0	4.3390	0	36.6640	8	29.079	0	634.116	0	15.7	4	5.1	4	-1E+10	1	-1E+10	1	-1E+10	1	-1E+10	1	-1E+10	1	-1E+10	1
4901784	189	C	09/06/2020	10:42	-132.925	43.407	0	645.50	0	4.2960	0	36.6690	8	29.088	0	639.358	0	15.5	4	5.0	4	-1E+10	1	-1E+10	1	-1E+10	1	-1E+10	1	-1E+10	1	-1E+10	1
4901784	189	C	09/06/2020	10:42	-132.925	43.407	0	650.00	0	4.2740	0	36.6720	8	29.093	0	643.808	0	15.3	4	4.9	4	-1E+10	1	-1E+10	1	-1E+10	1	-1E+10	1	-1E+10	1	-1E+10	1
4901784	189	C	09/06/2020	10:42	-132.925	43.407	0	654.60	0	4.2440	0	36.6760	8	29.099	0	648.357	0	15.0	4	4.8	4	-1E+10	1	-1E+10	1	-1E+10	1	-1E+10	1	-1E+10	1	-1E+10	1
4901784	189	C	09/06/2020	10:42	-132.925	43.407	0	660.00	0	4.2580	0	36.6820	8	29.102	0	653.697	0	14.6	4	4.7	4	-1E+10	1	-1E+10	1	-1E+10	1	-1E+10	1	-1E+10	1	-1E+10	1
4901784	189	C	09/06/2020	10:42	-132.925	43.407	0	665.20	0	4.2200	0	36.6850	8	29.109	0	658.839	0	14.3	4	4.6	4	-1E+10	1	-1E+10	1	-1E+10	1	-1E+10	1	-1E+10	1	-1E+10	1
4901784	189	C	09/06/2020	10:42	-132.925	43.407	0	669.50	0	4.2400	0	36.6940	8	29.114	0	663.091	0	13.8	4	4.5	4	-1E+10	1	-1E+10	1	-1E+10	1	-1E+10	1	-1E+10	1	-1E+10	1
4901784	189	C	09/06/2020	10:42	-132.925	43.407	0	674.30	0	4.2350	0	36.6960	8	29.116	0	667.838	0	13.7	4	4.4	4	-1E+10	1	-1E+10	1	-1E+10	1	-1E+10	1	-1E+10	1	-1E+10	1
4901784	189	C	09/06/2020	10:42	-132.925	43.407	0	680.00	0	4.2030	0	36.7000	8	29.123	0	673.474	0	13.5	4	4.4	4	-1E+10	1	-1E+10	1	-1E+10	1	-1E+10	1	-1E+10	1	-1E+10	1
4901784	189	C	09/06/2020	10:42	-132.925	43.407	0	685.60	0	4.1770	0	36.7010	8	29.127	0	679.011	0	13.5	4	4.4	4	-1E+10	1	-1E+10	1	-1E+10	1	-1E+10	1	-1E+10	1	-1E+10	1
4901784	189	C	09/06/2020	10:42	-132.925	43.407	0	690.50	0	4.1170	0	36.7020	8	29.134	0	683.856	0	13.4	4	4.3	4	-1E+10	1	-1E+10	1	-1E+10	1	-1E+10	1	-1E+10	1	-1E+10	1
4901784	189	C	09/06/2020	10:42	-132.925	43.407	0	695.30	0	4.0930	0	36.7070	8	29.141	0	688.602	0	13.2	4	4.3	4	-1E+10	1	-1E+10	1	-1E+10	1	-1E+10	1	-1E+10	1	-1E+10	1
4901784	189	C	09/06/2020	10:42	-132.925	43.407	0	700.10	0	4.0950	0	36.7110	8	29.144	0	693.348	0	13.0	4	4.2	4	-1E+10	1	-1E+10	1	-1E+10	1	-1E+10	1	-1E+10	1	-1E+10	1
4901784	189	C	09/06/2020	10:42	-132.925	43.407	0	705.00	0	4.1010	0	36.7150	8	29.146	0	698.192	0	12.8	4	4.1	4	-1E+10	1	-1E+10	1	-1E+10	1	-1E+10	1	-1E+10	1	-1E+10	1
4901784	189	C	09/06/2020	10:42	-132.925	43.407	0	709.90	0	4.0760	0	36.7190	8	29.152	0	703.037	0	12.6	4	4.1	4	-1E+10	1	-1E+10	1	-1E+10	1	-1E+10	1	-1E+10	1	-1E+10	1
4901784	189	C	09/06/2020	10:42	-132.925	43.407	0	715.10	0	4.0690	0	36.7230	8	29.156	0	708.177	0	12.5	4	4.0	4	-1E+10	1	-1E+10	1	-1E+10	1	-1E+10	1	-1E+10	1	-1E+10	1
4901784	189	C	09/06/2020	10:42	-132.925	43.407	0	720.20	0	4.0570	0	36.7260	8	29.160	0	713.219	0	12.4	4	4.0	4	-1E+10	1	-1E+10	1	-1E+10	1	-1E+10	1	-1E+10	1	-1E+10	1
4901784	189	C	09/06/2020	10:42	-132.925	43.407	0	725.40	0	4.0560	0	36.7270	8	29.161	0	718.360	0	12.3	4	4.0	4	-1E+10	1	-1E+10	1	-1E+10	1	-1E+10	1	-1E+10	1	-1E+10	1
4901784	189	C	09/06/2020	10:42	-132.925	43.407	0	730.60	0	4.0520	0	36.7280	8	29.162	0	723.501	0	12.2	4	3.9	4	-1E+10	1	-1E+10	1	-1E+10	1	-1E+10	1	-1E+10	1	-1E+10	1
4901784	189	C	09/06/2020	10:42	-132.925	43.407	0	735.00	0	4.0600	0	36.7320	8	29.165	0	727.850	0	12.0	4	3.9	4	-1E+10	1	-1E+10	1	-1E+10	1	-1E+10	1	-1E+10	1	-1E+10	1
4901784	189	C	09/06/2020	10:42	-132.925	43.407	0	739.40	0	4.0440	0	36.7360	8	29.170	0	732.200	0	11.8	4	3.8	4	-1E+10	1	-1E+10	1	-1E+10	1	-1E+10	1	-1E+10	1	-1E+10	1
4901784	189	C	09/06/2020	10:42	-132.925	43.407	0	744.60	0	4.0190	0	36.7400	8	29.176	0	737.340	0	11.7	4	3.8	4	-1E+10	1	-1E+10	1	-1E+10	1	-1E+10	1	-1E+10	1	-1E+10	1
4901784	189	C	09/06/2020	10:42	-132.925	43.407	0	749.90	0	4.0060	0	36.7450	8	29.181	0	742.579	0	11.5	4	3.7	4	-1E+10	1	-1E+10	1	-1E+10	1	-1E+10	1	-1E+10	1	-1E+10	1
4901784	189	C	09/06/2020	10:42	-132.925	43.407	0	755.30	0	3.9950	0	36.7490	8	29.185	0	747.916	0	11.4	4	3.7	4	-1E+10	1	-1E+10	1	-1E+10	1	-1E+10	1	-1E+10	1	-1E+10	1
4901784	189	C	09/06/2020	10:42	-132.925	43.407	0	760.60	0	3.9810	0	36.7530	8	29.190	0	753.155	0	11.3	4	3.6	4	-1E+10	1	-1E+10	1	-1E+10	1	-1E+10	1	-1E+10	1	-1E+10	1
4901784	189	C	09/06/2020	10:42	-132.925	43.407	0	765.00	0	3.9720	0	36.7560	8	29.194	0	757.504	0	11.2	4	3.6	4	-1E+10	1	-1E+10	1	-1E+10	1	-1E+10	1	-1E+10	1	-1E+10	1
4901784	189	C	09/06/2020	10:42	-132.925	43.407	0	769.40	0	3.9600	0	36.7590	8	29.197	0	761.853	0	11.0	4	3.6	4	-1E+10	1	-1E+10	1	-1E+10	1	-1E+10	1	-1E+10	1	-1E+10	1
4901784	189	C	09/06/2020	10:42	-132.925	43.407	0	774.70	0	3.9530	0	36.7630	8	29.201	0	767.091	0	10.9	4	3.5	4	-1E+10	1	-1E+10	1	-1E+10	1	-1E+10	1	-1E+10	1	-1E+10	1
4901784	189	C	09/06/2020	10:42	-132.925	43.407	0	780.00	0	3.9380	0	36.7680	8	29.207	0	772.329	0	10.8	4	3.5	4	-1E+10	1	-1E+10	1	-1E+10	1	-1E+10	1	-1E+10	1	-1E+10	1
4901784	189	C	09/06/2020	10:42	-132.925	43.407	0	785.40	0	3.9310	0	36.7730	8	29.212	0	777.666	0	10.7	4	3.4	4	-1E+10	1	-1E+10	1	-1E+10	1	-1E+10	1	-1E+10	1	-1E+10	1
4901784	189	C	09/06/2020	10:42	-132.925	43.407	0	789.80	0	3.9220	0	36.7780	8	29.217	0	782.014	0	10.6	4	3.4	4	-1E+10	1	-1E+10	1	-1E+10	1	-1E+10	1	-1E+10	1	-1E+10	1
4901784	189	C	09/06/2020	10:42	-132.925	43.407	0	794.30	0	3.9160	0	36.7810	8	29.220	0	786.462	0	10.5	4	3.4	4	-1E+10	1	-1E+10	1	-1E+10	1	-1E+10	1	-1E+10	1	-1E+10	1
4901784	189	C	09/06/2020	10:42	-132.925	43.407	0	799.70	0	3.9160	0	36.7840	8	29.222	0	791.798	0	10.5	4	3.4	4	-1E+10	1	-1E+10	1	-1E+10	1	-1E+10	1	-1E+10	1	-1E+10	1
4901784	189	C	09/06/2020	10:42	-132.925	43.407	0	805.10	0	3.8930	0	36.7850	8	29.226	0	797.134	0	10.4	4	3.3	4	-1E+10	1	-1E+10	1	-1E+10	1	-1E+10	1	-1E+10	1	-1E+10	1
4901784	189	C	09/06/2020	10:42	-132.925	43.407	0	810.60	0	3.8700	0	36.7910	8	29.233	0	802.569	0	10.3	4	3.3	4	-1E+10	1	-1E+10	1	-1E+10	1	-1E+10	1	-1E+10	1	-1E+10	1
4901784	189	C	09/06/2020	10:42	-132.925	43.407	0	815.20	0	3.8460	0	36.7920	8	29.236	0	807.115	0	10.3	4	3.3	4	-1E+10	1	-1E+10	1	-1E+10	1	-1E+10	1	-1E+10	1	-1E+10	1
4901784	189	C	09/06/2020	10:42	-132.925	43.407	0	819.70	0	3.8220	0	36.7960	8	29.242	0	811.562	0	10.2	4	3.3	4	-1E+10	1	-1E+10	1	-1E+10	1	-1E+10	1	-1E+10	1	-1E+10	1
4901784	189	C	09/06/2020	10:42	-132.925	43.407	0	825.30	0	3.8190	0	36.7980	8	29.244	0	817.095	0	10.2	4	3.3	4	-1E+10	1	-1E+10	1	-1E+10	1	-1E+10	1	-1E+10	1	-1E+10	1
4901784	189	C	09/06/2020	10:42	-132.925	43.407	0	829.80	0	3.7990	0	36.8040	8	29.251	0	821.541	0	10.2	4	3.3	4	-1E+10	1	-1E+10	1	-1E+10	1	-1E+10	1	-1E+10	1	-1E+10	1
4901784	189	C	09/06/2020	10:42	-132.925	43.407	0	834.40	0	3.7880	0	36.8060	8	29.254	0	826.087	0	10.1	4	3.2	4	-1E+10	1	-1E+10	1	-1E+10	1	-1E+10	1	-1E+10	1	-1E+10	1
4901784	189	C	09/06/2020	10:42	-132.925	43.407	0	839.70	0	3.7680	0	36.8100	8	29.259	0	831.323	0	10.1	4	3.2	4	-1E+10	1	-1E+10	1	-1E+10	1	-1E+10	1	-1E+10	1	-1E+10	1
4901784	189	C	09/06/2020	10:42	-132.925	43.407	0	844.50	0	3.7590	0	36.8120	8	29.262	0	836.066	0	10.1	4	3.2	4	-1E+10	1	-1E+10	1	-1E+10	1	-1E+10	1	-1E+10	1	-1E+10	1
4901784	189	C	09/06/2020	10:42	-132.925	43.407	0	849.30	0	3.7480	0	36.8150	8	29.265	0	840.808	0	10.0	4	3.2	4	-1E+10	1	-1E+10	1	-1E+10	1	-1E+10	1	-1E+10	1	-1E+10	1
4901784	189	C	09/06/2020	10:42	-132.925	43.407	0	855.00	0	3.7470	0	36.8190	8	29.269	0	846.440	0	10.0	4	3.2	4	-1E+10	1	-1E+10	1	-1E+10	1	-1E+10	1	-1E+10	1	-1E+10	1
4901784	189	C	09/06/2020	10:42	-132.925	43.407	0	860.70	0	3.7690	0	36.8270	8	29.273	0	852.071	0	10.1	4	3.2	4	-1E+10	1	-1E+10	1	-1E+10	1	-1E+10	1	-1E+10	1	-1E+10	1
4901784	189	C	09/06/2020	10:42	-132.925	43.407	0	865.70	0	3.7660	0	36.8280	8	29.274	0	857.011	0	10.1	4	3.2	4	-1E+10	1	-1E+10	1	-1E+10	1	-1E+10	1	-1E+10	1	-1E+10	1
4901784	189	C	09/06/2020	10:42	-132.925	43.407	0	870.50	0	3.7570	0	36.8310	8	29.277	0	861.753	0	10.0	4	3.2	4	-1E+10	1	-1E+10	1	-1E+10	1	-1E+10	1	-1E+10	1	-1E+10	1
4901784	189	C	09/06/2020	10:42	-132.925	43.407	0	875.60	0	3.7180	0	36.8340	8	29.284	0	866.791	0	10.0	4	3.2	4	-1E+10	1	-1E+10	1	-1E+10	1	-1E+10	1	-1E+10	1	-1E+10	1
4901784	189	C	09/06/2020	10:42	-132.925	43.407	0	880.60	0	3.6900	0	36.8380	8	29.290	0	871.730	0	10.0	4	3.2	4	-1E+10	1	-1E+10	1	-1E+10	1	-1E+10	1	-1E+10	1	-1E+10	1
4901784	189	C	09/06/2020	10:42	-132.925	43.407	0	885.70	0	3.6760	0	36.8410	8	29.294	0	876.768	0	10.1	4	3.2	4	-1E+10	1	-1E+10	1	-1E+10	1	-1E+10	1	-1E+10	1	-1E+10	1
4901784	189	C	09/06/2020	10:42	-132.925	43.407	0	890.00	0	3.6990	0	36.8440	8	29.294	0	881.016	0	10.1	4	3.2	4	-1E+10	1	-1E+10	1	-1E+10	1	-1E+10	1	-1E+10	1	-1E+10	1
4901784	189	C	09/06/2020	10:42	-132.925	43.407	0	894.20	0	3.6800	0	36.8470	8	29.298	0	885.164	0	10.1	4	3.2	4	-1E+10	1	-1E+10	1	-1E+10	1	-1E+10	1	-1E+10	1	-1E+10	1
4901784	189	C	09/06/2020	10:42	-132.925	43.407	0	899.20	0	3.6460	0	36.8490	8	29.304	0	890.103	0	10.1	4	3.2	4	-1E+10	1	-1E+10	1	-1E+10	1	-1E+10	1	-1E+10	1	-1E+10	1
4901784	189	C	09/06/2020	10:42	-132.925	43.407	0	904.40	0	3.6350	0	36.8530	8	29.308	0	895.239	0	10.1	4	3.2	4	-1E+10	1	-1E+10	1	-1E+10	1	-1E+10	1	-1E+10	1	-1E+10	1
4901784	189	C	09/06/2020	10:42	-132.925	43.407	0	909.50	0	3.6060	0	36.8530	8	29.311	0	900.277	0	10.0	4	3.2	4	-1E+10	1	-1E+10	1	-1E+10	1	-1E+10	1	-1E+10	1	-1E+10	1
4901784	189	C	09/06/2020	10:42	-132.925	43.407	0	914.80	0	3.5950	0	36.8550	8	29.314	0	905.512	0	10.1	4	3.2	4	-1E+10	1	-1E+10	1	-1E+10	1	-1E+10	1	-1E+10	1	-1E+10	1
4901784	189	C	09/06/2020	10:42	-132.925	43.407	0	920.10	0	3.5810	0	36.8580	8	29.318	0	910.746	0	10.1	4	3.2	4	-1E+10	1	-1E+10	1	-1E+10	1	-1E+10	1	-1E+10	1	-1E+10	1
4901784	189	C	09/06/2020	10:42	-132.925	43.407	0	925.40	0	3.5720	0	36.8600	8	29.320	0	915.981	0	10.1	4	3.2	4	-1E+10	1	-1E+10	1	-1E+10	1	-1E+10	1	-1E+10	1	-1E+10	1
4901784	189	C	09/06/2020	10:42	-132.925	43.407	0	930.60	0	3.5640	0	36.8620	8	29.323	0	921.116	0	10.1	4	3.2	4	-1E+10	1	-1E+10	1	-1E+10	1	-1E+10	1	-1E+10	1	-1E+10	1
4901784	189	C	09/06/2020	10:42	-132.925	43.407	0	935.10	0	3.5540	0	36.8640	8	29.325	0	925.561	0	10.1	4	3.2	4	-1E+10	1	-1E+10	1	-1E+10	1	-1E+10	1	-1E+10	1	-1E+10	1
4901784	189	C	09/06/2020	10:42	-132.925	43.407	0	939.50	0	3.5440	0	36.8660	8	29.328	0	929.906	0	10.2	4	3.2	4	-1E+10	1	-1E+10	1	-1E+10	1	-1E+10	1	-1E+10	1	-1E+10	1
4901784	189	C	09/06/2020	10:42	-132.925	43.407	0	944.90	0	3.5260	0	36.8700	8	29.333	0	935.239	0	10.2	4	3.3	4	-1E+10	1	-1E+10	1	-1E+10	1	-1E+10	1	-1E+10	1	-1E+10	1
4901784	189	C	09/06/2020	10:42	-132.925	43.407	0	950.40	0	3.5150	0	36.8720	8	29.336	0	940.670	0	10.3	4	3.3	4	-1E+10	1	-1E+10	1	-1E+10	1	-1E+10	1	-1E+10	1	-1E+10	1
4901784	189	C	09/06/2020	10:42	-132.925	43.407	0	954.90	0	3.5050	0	36.8740	8	29.339	0	945.114	0	10.3	4	3.3	4	-1E+10	1	-1E+10	1	-1E+10	1	-1E+10	1	-1E+10	1	-1E+10	1
4901784	189	C	09/06/2020	10:42	-132.925	43.407	0	959.40	0	3.4930	0	36.8770	8	29.342	0	949.558	0	10.3	4	3.3	4	-1E+10	1	-1E+10	1	-1E+10	1	-1E+10	1	-1E+10	1	-1E+10	1
4901784	189	C	09/06/2020	10:42	-132.925	43.407	0	964.90	0	3.4840	0	36.8790	8	29.345	0	954.989	0	10.4	4	3.3	4	-1E+10	1	-1E+10	1	-1E+10	1	-1E+10	1	-1E+10	1	-1E+10	1
4901784	189	C	09/06/2020	10:42	-132.925	43.407	0	970.50	0	3.4750	0	36.8820	8	29.348	0	960.518	0	10.4	4	3.3	4	-1E+10	1	-1E+10	1	-1E+10	1	-1E+10	1	-1E+10	1	-1E+10	1
4901784	189	C	09/06/2020	10:42	-132.925	43.407	0	975.00	0	3.4660	0	36.8840	8	29.351	0	964.962	0	10.5	4	3.3	4	-1E+10	1	-1E+10	1	-1E+10	1	-1E+10	1	-1E+10	1	-1E+10	1
4901784	189	C	09/06/2020	10:42	-132.925	43.407	0	979.60	0	3.4580	0	36.8860	8	29.353	0	969.504	0	10.5	4	3.4	4	-1E+10	1	-1E+10	1	-1E+10	1	-1E+10	1	-1E+10	1	-1E+10	1
4901784	189	C	09/06/2020	10:42	-132.925	43.407	0	985.30	0	3.4470	0	36.8880	8	29.356	0	975.132	0	10.6	4	3.4	4	-1E+10	1	-1E+10	1	-1E+10	1	-1E+10	1	-1E+10	1	-1E+10	1
4901784	189	C	09/06/2020	10:42	-132.925	43.407	0	990.00	0	3.4370	0	36.8910	8	29.359	0	979.772	0	10.6	4	3.4	4	-1E+10	1	-1E+10	1	-1E+10	1	-1E+10	1	-1E+10	1	-1E+10	1
4901784	189	C	09/06/2020	10:42	-132.925	43.407	0	994.60	0	3.4320	0	36.8920	8	29.361	0	984.314	0	10.7	4	3.4	4	-1E+10	1	-1E+10	1	-1E+10	1	-1E+10	1	-1E+10	1	-1E+10	1
4901784	189	C	09/06/2020	10:42	-132.925	43.407	0	1000.00	0	3.4240	0	36.8940	8	29.363	0	989.645	0	10.7	4	3.4	4	-1E+10	1	-1E+10	1	-1E+10	1	-1E+10	1	-1E+10	1	-1E+10	1
4901784	189	C	09/06/2020	10:42	-132.925	43.407	0	1004.40	0	3.4180	0	36.8950	8	29.365	0	993.989	0	10.8	4	3.4	4	-1E+10	1	-1E+10	1	-1E+10	1	-1E+10	1	-1E+10	1	-1E+10	1
4901784	189	C	09/06/2020	10:42	-132.925	43.407	0	1010.00	0	3.4040	0	36.8990	8	29.369	0	999.518	0	10.9	4	3.5	4	-1E+10	1	-1E+10	1	-1E+10	1	-1E+10	1	-1E+10	1	-1E+10	1
4901784	189	C	09/06/2020	10:42	-132.925	43.407	0	1015.80	0	3.3940	0	36.9020	8	29.373	0	1005.244	0	11.0	4	3.5	4	-1E+10	1	-1E+10	1	-1E+10	1	-1E+10	1	-1E+10	1	-1E+10	1
4901784	189	C	09/06/2020	10:42	-132.925	43.407	0	1020.70	0	3.3890	0	36.9030	8	29.374	0	1010.081	0	11.0	4	3.5	4	-1E+10	1	-1E+10	1	-1E+10	1	-1E+10	1	-1E+10	1	-1E+10	1
4901784	189	C	09/06/2020	10:42	-132.925	43.407	0	1025.70	0	3.3830	0	36.9040	8	29.375	0	1015.017	0	11.0	4	3.5	4	-1E+10	1	-1E+10	1	-1E+10	1	-1E+10	1	-1E+10	1	-1E+10	1
4901784	189	C	09/06/2020	10:42	-132.925	43.407	0	1030.80	0	3.3730	0	36.9070	8	29.379	0	1020.051	0	11.1	4	3.5	4	-1E+10	1	-1E+10	1	-1E+10	1	-1E+10	1	-1E+10	1	-1E+10	1
4901784	189	C	09/06/2020	10:42	-132.925	43.407	0	1035.80	0	3.3640	0	36.9090	8	29.381	0	1024.987	0	11.2	4	3.5	4	-1E+10	1	-1E+10	1	-1E+10	1	-1E+10	1	-1E+10	1	-1E+10	1
4901784	189	C	09/06/2020	10:42	-132.925	43.407	0	1040.10	0	3.3560	0	36.9110	8	29.384	0	1029.232	0	11.2	4	3.6	4	-1E+10	1	-1E+10	1	-1E+10	1	-1E+10	1	-1E+10	1	-1E+10	1
4901784	189	C	09/06/2020	10:42	-132.925	43.407	0	1044.30	0	3.3520	0	36.9110	8	29.384	0	1033.377	0	11.3	4	3.6	4	-1E+10	1	-1E+10	1	-1E+10	1	-1E+10	1	-1E+10	1	-1E+10	1
4901784	189	C	09/06/2020	10:42	-132.925	43.407	0	1049.50	0	3.3400	0	36.9130	8	29.387	0	1038.510	0	11.4	4	3.6	4	-1E+10	1	-1E+10	1	-1E+10	1	-1E+10	1	-1E+10	1	-1E+10	1
4901784	189	C	09/06/2020	10:42	-132.925	43.407	0	1054.70	0	3.3260	0	36.9170	8	29.392	0	1043.643	0	11.5	4	3.7	4	-1E+10	1	-1E+10	1	-1E+10	1	-1E+10	1	-1E+10	1	-1E+10	1
4901784	189	C	09/06/2020	10:42	-132.925	43.407	0	1059.80	0	3.3220	0	36.9180	8	29.393	0	1048.677	0	11.6	4	3.7	4	-1E+10	1	-1E+10	1	-1E+10	1	-1E+10	1	-1E+10	1	-1E+10	1
4901784	189	C	09/06/2020	10:42	-132.925	43.407	0	1065.00	0	3.3140	0	36.9200	8	29.396	0	1053.809	0	11.6	4	3.7	4	-1E+10	1	-1E+10	1	-1E+10	1	-1E+10	1	-1E+10	1	-1E+10	1
4901784	189	C	09/06/2020	10:42	-132.925	43.407	0	1070.30	0	3.3030	0	36.9220	8	29.398	0	1059.040	0	11.7	4	3.7	4	-1E+10	1	-1E+10	1	-1E+10	1	-1E+10	1	-1E+10	1	-1E+10	1
4901784	189	C	09/06/2020	10:42	-132.925	43.407	0	1075.50	0	3.2910	0	36.9240	8	29.401	0	1064.172	0	11.9	4	3.8	4	-1E+10	1	-1E+10	1	-1E+10	1	-1E+10	1	-1E+10	1	-1E+10	1
4901784	189	C	09/06/2020	10:42	-132.925	43.407	0	1079.90	0	3.2810	0	36.9260	8	29.404	0	1068.514	0	12.0	4	3.8	4	-1E+10	1	-1E+10	1	-1E+10	1	-1E+10	1	-1E+10	1	-1E+10	1
4901784	189	C	09/06/2020	10:42	-132.925	43.407	0	1084.30	0	3.2710	0	36.9280	8	29.406	0	1072.857	0	12.1	4	3.8	4	-1E+10	1	-1E+10	1	-1E+10	1	-1E+10	1	-1E+10	1	-1E+10	1
4901784	189	C	09/06/2020	10:42	-132.925	43.407	0	1089.80	0	3.2580	0	36.9310	8	29.410	0	1078.285	0	12.2	4	3.9	4	-1E+10	1	-1E+10	1	-1E+10	1	-1E+10	1	-1E+10	1	-1E+10	1
4901784	189	C	09/06/2020	10:42	-132.925	43.407	0	1095.20	0	3.2420	0	36.9340	8	29.414	0	1083.614	0	12.4	4	3.9	4	-1E+10	1	-1E+10	1	-1E+10	1	-1E+10	1	-1E+10	1	-1E+10	1
4901784	189	C	09/06/2020	10:42	-132.925	43.407	0	1099.80	0	3.2340	0	36.9360	8	29.417	0	1088.153	0	12.5	4	3.9	4	-1E+10	1	-1E+10	1	-1E+10	1	-1E+10	1	-1E+10	1	-1E+10	1
4901784	189	C	09/06/2020	10:42	-132.925	43.407	0	1104.50	0	3.2230	0	36.9380	8	29.419	0	1092.791	0	12.6	4	4.0	4	-1E+10	1	-1E+10	1	-1E+10	1	-1E+10	1	-1E+10	1	-1E+10	1
4901784	189	C	09/06/2020	10:42	-132.925	43.407	0	1110.00	0	3.2110	0	36.9400	8	29.422	0	1098.218	0	12.7	4	4.0	4	-1E+10	1	-1E+10	1	-1E+10	1	-1E+10	1	-1E+10	1	-1E+10	1
4901784	189	C	09/06/2020	10:42	-132.925	43.407	0	1115.60	0	3.1990	0	36.9430	8	29.426	0	1103.744	0	12.9	4	4.1	4	-1E+10	1	-1E+10	1	-1E+10	1	-1E+10	1	-1E+10	1	-1E+10	1
4901784	189	C	09/06/2020	10:42	-132.925	43.407	0	1120.30	0	3.1870	0	36.9450	8	29.429	0	1108.382	0	13.0	4	4.1	4	-1E+10	1	-1E+10	1	-1E+10	1	-1E+10	1	-1E+10	1	-1E+10	1
4901784	189	C	09/06/2020	10:42	-132.925	43.407	0	1125.00	0	3.1810	0	36.9460	8	29.430	0	1113.019	0	13.1	4	4.1	4	-1E+10	1	-1E+10	1	-1E+10	1	-1E+10	1	-1E+10	1	-1E+10	1
4901784	189	C	09/06/2020	10:42	-132.925	43.407	0	1129.70	0	3.1710	0	36.9480	8	29.433	0	1117.657	0	13.2	4	4.2	4	-1E+10	1	-1E+10	1	-1E+10	1	-1E+10	1	-1E+10	1	-1E+10	1
4901784	189	C	09/06/2020	10:42	-132.925	43.407	0	1134.40	0	3.1630	0	36.9500	8	29.435	0	1122.294	0	13.3	4	4.2	4	-1E+10	1	-1E+10	1	-1E+10	1	-1E+10	1	-1E+10	1	-1E+10	1
4901784	189	C	09/06/2020	10:42	-132.925	43.407	0	1140.00	0	3.1520	0	36.9510	8	29.437	0	1127.819	0	13.5	4	4.3	4	-1E+10	1	-1E+10	1	-1E+10	1	-1E+10	1	-1E+10	1	-1E+10	1
4901784	189	C	09/06/2020	10:42	-132.925	43.407	0	1144.70	0	3.1370	0	36.9540	8	29.441	0	1132.457	0	13.6	4	4.3	4	-1E+10	1	-1E+10	1	-1E+10	1	-1E+10	1	-1E+10	1	-1E+10	1
4901784	189	C	09/06/2020	10:42	-132.925	43.407	0	1149.50	0	3.1270	0	36.9560	8	29.444	0	1137.192	0	13.7	4	4.3	4	-1E+10	1	-1E+10	1	-1E+10	1	-1E+10	1	-1E+10	1	-1E+10	1
4901784	189	C	09/06/2020	10:42	-132.925	43.407	0	1155.10	0	3.1180	0	36.9580	8	29.446	0	1142.717	0	13.9	4	4.4	4	-1E+10	1	-1E+10	1	-1E+10	1	-1E+10	1	-1E+10	1	-1E+10	1
4901784	189	C	09/06/2020	10:42	-132.925	43.407	0	1159.90	0	3.1070	0	36.9600	8	29.449	0	1147.453	0	14.0	4	4.4	4	-1E+10	1	-1E+10	1	-1E+10	1	-1E+10	1	-1E+10	1	-1E+10	1
4901784	189	C	09/06/2020	10:42	-132.925	43.407	0	1164.70	0	3.0950	0	36.9620	8	29.452	0	1152.188	0	14.1	4	4.5	4	-1E+10	1	-1E+10	1	-1E+10	1	-1E+10	1	-1E+10	1	-1E+10	1
4901784	189	C	09/06/2020	10:42	-132.925	43.407	0	1169.40	0	3.0870	0	36.9630	8	29.453	0	1156.824	0	14.2	4	4.5	4	-1E+10	1	-1E+10	1	-1E+10	1	-1E+10	1	-1E+10	1	-1E+10	1
4901784	189	C	09/06/2020	10:42	-132.925	43.407	0	1174.10	0	3.0800	0	36.9640	8	29.455	0	1161.461	0	14.4	4	4.5	4	-1E+10	1	-1E+10	1	-1E+10	1	-1E+10	1	-1E+10	1	-1E+10	1
4901784	189	C	09/06/2020	10:42	-132.925	43.407	0	1179.50	0	3.0660	0	36.9670	8	29.459	0	1166.788	0	14.6	4	4.6	4	-1E+10	1	-1E+10	1	-1E+10	1	-1E+10	1	-1E+10	1	-1E+10	1
4901784	189	C	09/06/2020	10:42	-132.925	43.407	0	1184.50	0	3.0620	0	36.9690	8	29.461	0	1171.720	0	14.8	4	4.7	4	-1E+10	1	-1E+10	1	-1E+10	1	-1E+10	1	-1E+10	1	-1E+10	1
4901784	189	C	09/06/2020	10:42	-132.925	43.407	0	1189.40	0	3.0560	0	36.9700	8	29.462	0	1176.553	0	14.9	4	4.7	4	-1E+10	1	-1E+10	1	-1E+10	1	-1E+10	1	-1E+10	1	-1E+10	1
4901784	189	C	09/06/2020	10:42	-132.925	43.407	0	1194.20	0	3.0370	0	36.9720	8	29.465	0	1181.288	0	15.0	4	4.7	4	-1E+10	1	-1E+10	1	-1E+10	1	-1E+10	1	-1E+10	1	-1E+10	1
4901784	189	C	09/06/2020	10:42	-132.925	43.407	0	1200.00	0	3.0290	0	36.9740	8	29.468	0	1187.009	0	15.2	4	4.8	4	-1E+10	1	-1E+10	1	-1E+10	1	-1E+10	1	-1E+10	1	-1E+10	1
4901784	189	C	09/06/2020	10:42	-132.925	43.407	0	1205.70	0	3.0270	0	36.9760	8	29.470	0	1192.631	0	15.5	4	4.9	4	-1E+10	1	-1E+10	1	-1E+10	1	-1E+10	1	-1E+10	1	-1E+10	1
4901784	189	C	09/06/2020	10:42	-132.925	43.407	0	1210.60	0	3.0200	0	36.9780	8	29.472	0	1197.464	0	15.7	4	5.0	4	-1E+10	1	-1E+10	1	-1E+10	1	-1E+10	1	-1E+10	1	-1E+10	1
4901784	189	C	09/06/2020	10:42	-132.925	43.407	0	1215.50	0	3.0110	0	36.9800	8	29.475	0	1202.297	0	15.9	4	5.0	4	-1E+10	1	-1E+10	1	-1E+10	1	-1E+10	1	-1E+10	1	-1E+10	1
4901784	189	C	09/06/2020	10:42	-132.925	43.407	0	1220.50	0	3.0040	0	36.9810	8	29.476	0	1207.228	0	16.0	4	5.0	4	-1E+10	1	-1E+10	1	-1E+10	1	-1E+10	1	-1E+10	1	-1E+10	1
4901784	189	C	09/06/2020	10:42	-132.925	43.407	0	1225.50	0	2.9950	0	36.9830	8	29.479	0	1212.160	0	16.1	4	5.1	4	-1E+10	1	-1E+10	1	-1E+10	1	-1E+10	1	-1E+10	1	-1E+10	1
4901784	189	C	09/06/2020	10:42	-132.925	43.407	0	1230.50	0	2.9880	0	36.9840	8	29.480	0	1217.091	0	16.2	4	5.1	4	-1E+10	1	-1E+10	1	-1E+10	1	-1E+10	1	-1E+10	1	-1E+10	1
4901784	189	C	09/06/2020	10:42	-132.925	43.407	0	1235.60	0	2.9790	0	36.9850	8	29.482	0	1222.120	0	16.3	4	5.1	4	-1E+10	1	-1E+10	1	-1E+10	1	-1E+10	1	-1E+10	1	-1E+10	1
4901784	189	C	09/06/2020	10:42	-132.925	43.407	0	1240.60	0	2.9650	0	36.9870	8	29.485	0	1227.051	0	16.4	4	5.2	4	-1E+10	1	-1E+10	1	-1E+10	1	-1E+10	1	-1E+10	1	-1E+10	1
4901784	189	C	09/06/2020	10:42	-132.925	43.407	0	1245.70	0	2.9560	0	36.9880	8	29.486	0	1232.080	0	16.5	4	5.2	4	-1E+10	1	-1E+10	1	-1E+10	1	-1E+10	1	-1E+10	1	-1E+10	1
4901784	189	C	09/06/2020	10:42	-132.925	43.407	0	1250.70	0	2.9530	0	36.9890	8	29.488	0	1237.011	0	16.8	4	5.3	4	-1E+10	1	-1E+10	1	-1E+10	1	-1E+10	1	-1E+10	1	-1E+10	1
4901784	189	C	09/06/2020	10:42	-132.925	43.407	0	1255.00	0	2.9450	0	36.9910	8	29.490	0	1241.251	0	16.9	4	5.3	4	-1E+10	1	-1E+10	1	-1E+10	1	-1E+10	1	-1E+10	1	-1E+10	1
4901784	189	C	09/06/2020	10:42	-132.925	43.407	0	1259.30	0	2.9360	0	36.9920	8	29.492	0	1245.492	0	16.9	4	5.3	4	-1E+10	1	-1E+10	1	-1E+10	1	-1E+10	1	-1E+10	1	-1E+10	1
4901784	189	C	09/06/2020	10:42	-132.925	43.407	0	1264.40	0	2.9240	0	36.9920	8	29.493	0	1250.521	0	17.0	4	5.3	4	-1E+10	1	-1E+10	1	-1E+10	1	-1E+10	1	-1E+10	1	-1E+10	1
4901784	189	C	09/06/2020	10:42	-132.925	43.407	0	1269.50	0	2.9110	0	36.9950	8	29.497	0	1255.549	0	17.2	4	5.4	4	-1E+10	1	-1E+10	1	-1E+10	1	-1E+10	1	-1E+10	1	-1E+10	1
4901784	189	C	09/06/2020	10:42	-132.925	43.407	0	1274.70	0	2.9020	0	36.9960	8	29.498	0	1260.677	0	17.4	4	5.5	4	-1E+10	1	-1E+10	1	-1E+10	1	-1E+10	1	-1E+10	1	-1E+10	1
4901784	189	C	09/06/2020	10:42	-132.925	43.407	0	1279.80	0	2.8900	0	36.9980	8	29.501	0	1265.705	0	17.6	4	5.5	4	-1E+10	1	-1E+10	1	-1E+10	1	-1E+10	1	-1E+10	1	-1E+10	1
4901784	189	C	09/06/2020	10:42	-132.925	43.407	0	1284.90	0	2.8800	0	37.0000	8	29.504	0	1270.734	0	17.9	4	5.6	4	-1E+10	1	-1E+10	1	-1E+10	1	-1E+10	1	-1E+10	1	-1E+10	1
4901784	189	C	09/06/2020	10:42	-132.925	43.407	0	1290.10	0	2.8750	0	37.0020	8	29.506	0	1275.861	0	18.1	4	5.7	4	-1E+10	1	-1E+10	1	-1E+10	1	-1E+10	1	-1E+10	1	-1E+10	1
4901784	189	C	09/06/2020	10:42	-132.925	43.407	0	1295.20	0	2.8660	0	37.0030	8	29.507	0	1280.889	0	18.3	4	5.7	4	-1E+10	1	-1E+10	1	-1E+10	1	-1E+10	1	-1E+10	1	-1E+10	1
4901784	189	C	09/06/2020	10:42	-132.925	43.407	0	1300.30	0	2.8600	0	37.0050	8	29.510	0	1285.917	0	18.5	4	5.8	4	-1E+10	1	-1E+10	1	-1E+10	1	-1E+10	1	-1E+10	1	-1E+10	1
4901784	189	C	09/06/2020	10:42	-132.925	43.407	0	1305.60	0	2.8520	0	37.0060	8	29.511	0	1291.142	0	18.7	4	5.9	4	-1E+10	1	-1E+10	1	-1E+10	1	-1E+10	1	-1E+10	1	-1E+10	1
4901784	189	C	09/06/2020	10:42	-132.925	43.407	0	1310.80	0	2.8380	0	37.0080	8	29.514	0	1296.268	0	19.0	4	5.9	4	-1E+10	1	-1E+10	1	-1E+10	1	-1E+10	1	-1E+10	1	-1E+10	1
4901784	189	C	09/06/2020	10:42	-132.925	43.407	0	1315.10	0	2.8300	0	37.0100	8	29.517	0	1300.507	0	19.1	4	6.0	4	-1E+10	1	-1E+10	1	-1E+10	1	-1E+10	1	-1E+10	1	-1E+10	1
4901784	189	C	09/06/2020	10:42	-132.925	43.407	0	1319.50	0	2.8260	0	37.0100	8	29.517	0	1304.845	0	19.2	4	6.0	4	-1E+10	1	-1E+10	1	-1E+10	1	-1E+10	1	-1E+10	1	-1E+10	1
4901784	189	C	09/06/2020	10:42	-132.925	43.407	0	1324.90	0	2.8120	0	37.0110	8	29.519	0	1310.168	0	19.4	4	6.1	4	-1E+10	1	-1E+10	1	-1E+10	1	-1E+10	1	-1E+10	1	-1E+10	1
4901784	189	C	09/06/2020	10:42	-132.925	43.407	0	1330.20	0	2.7960	0	37.0130	8	29.522	0	1315.393	0	19.6	4	6.1	4	-1E+10	1	-1E+10	1	-1E+10	1	-1E+10	1	-1E+10	1	-1E+10	1
4901784	189	C	09/06/2020	10:42	-132.925	43.407	0	1335.60	0	2.7890	0	37.0140	8	29.524	0	1320.716	0	19.8	4	6.2	4	-1E+10	1	-1E+10	1	-1E+10	1	-1E+10	1	-1E+10	1	-1E+10	1
4901784	189	C	09/06/2020	10:42	-132.925	43.407	0	1340.10	0	2.7820	0	37.0150	8	29.525	0	1325.152	0	20.0	4	6.3	4	-1E+10	1	-1E+10	1	-1E+10	1	-1E+10	1	-1E+10	1	-1E+10	1
4901784	189	C	09/06/2020	10:42	-132.925	43.407	0	1345.40	0	2.7640	0	37.0180	8	29.529	0	1330.376	0	20.3	4	6.4	4	-1E+10	1	-1E+10	1	-1E+10	1	-1E+10	1	-1E+10	1	-1E+10	1
4901784	189	C	09/06/2020	10:42	-132.925	43.407	0	1350.40	0	2.7540	0	37.0190	8	29.531	0	1335.304	0	20.6	4	6.4	4	-1E+10	1	-1E+10	1	-1E+10	1	-1E+10	1	-1E+10	1	-1E+10	1
4901784	189	C	09/06/2020	10:42	-132.925	43.407	0	1355.10	0	2.7450	0	37.0210	8	29.534	0	1339.937	0	20.8	4	6.5	4	-1E+10	1	-1E+10	1	-1E+10	1	-1E+10	1	-1E+10	1	-1E+10	1
4901784	189	C	09/06/2020	10:42	-132.925	43.407	0	1360.00	0	2.7380	0	37.0230	8	29.536	0	1344.766	0	21.1	4	6.6	4	-1E+10	1	-1E+10	1	-1E+10	1	-1E+10	1	-1E+10	1	-1E+10	1
4901784	189	C	09/06/2020	10:42	-132.925	43.407	0	1365.10	0	2.7340	0	37.0250	8	29.538	0	1349.793	0	21.3	4	6.7	4	-1E+10	1	-1E+10	1	-1E+10	1	-1E+10	1	-1E+10	1	-1E+10	1
4901784	189	C	09/06/2020	10:42	-132.925	43.407	0	1370.40	0	2.7300	0	37.0250	8	29.538	0	1355.016	0	21.5	4	6.7	4	-1E+10	1	-1E+10	1	-1E+10	1	-1E+10	1	-1E+10	1	-1E+10	1
4901784	189	C	09/06/2020	10:42	-132.925	43.407	0	1375.70	0	2.7190	0	37.0270	8	29.541	0	1360.240	0	21.7	4	6.8	4	-1E+10	1	-1E+10	1	-1E+10	1	-1E+10	1	-1E+10	1	-1E+10	1
4901784	189	C	09/06/2020	10:42	-132.925	43.407	0	1380.10	0	2.7110	0	37.0290	8	29.543	0	1364.576	0	21.9	4	6.8	4	-1E+10	1	-1E+10	1	-1E+10	1	-1E+10	1	-1E+10	1	-1E+10	1
4901784	189	C	09/06/2020	10:42	-132.925	43.407	0	1384.60	0	2.7060	0	37.0300	8	29.545	0	1369.011	0	22.0	4	6.9	4	-1E+10	1	-1E+10	1	-1E+10	1	-1E+10	1	-1E+10	1	-1E+10	1
4901784	189	C	09/06/2020	10:42	-132.925	43.407	0	1390.00	0	2.7010	0	37.0300	8	29.545	0	1374.332	0	22.2	4	6.9	4	-1E+10	1	-1E+10	1	-1E+10	1	-1E+10	1	-1E+10	1	-1E+10	1
4901784	189	C	09/06/2020	10:42	-132.925	43.407	0	1395.40	0	2.6900	0	37.0310	8	29.547	0	1379.654	0	22.4	4	7.0	4	-1E+10	1	-1E+10	1	-1E+10	1	-1E+10	1	-1E+10	1	-1E+10	1
4901784	189	C	09/06/2020	10:42	-132.925	43.407	0	1399.90	0	2.6850	0	37.0320	8	29.548	0	1384.088	0	22.6	4	7.1	4	-1E+10	1	-1E+10	1	-1E+10	1	-1E+10	1	-1E+10	1	-1E+10	1
4901784	189	C	09/06/2020	10:42	-132.925	43.407	0	1404.50	0	2.6740	0	37.0340	8	29.551	0	1388.621	0	22.8	4	7.1	4	-1E+10	1	-1E+10	1	-1E+10	1	-1E+10	1	-1E+10	1	-1E+10	1
4901784	189	C	09/06/2020	10:42	-132.925	43.407	0	1410.00	0	2.6660	0	37.0360	8	29.553	0	1394.041	0	23.1	4	7.2	4	-1E+10	1	-1E+10	1	-1E+10	1	-1E+10	1	-1E+10	1	-1E+10	1
4901784	189	C	09/06/2020	10:42	-132.925	43.407	0	1415.60	0	2.6580	0	37.0370	8	29.555	0	1399.559	0	23.3	4	7.3	4	-1E+10	1	-1E+10	1	-1E+10	1	-1E+10	1	-1E+10	1	-1E+10	1
4901784	189	C	09/06/2020	10:42	-132.925	43.407	0	1420.20	0	2.6520	0	37.0380	8	29.556	0	1404.091	0	23.5	4	7.3	4	-1E+10	1	-1E+10	1	-1E+10	1	-1E+10	1	-1E+10	1	-1E+10	1
4901784	189	C	09/06/2020	10:42	-132.925	43.407	0	1424.90	0	2.6450	0	37.0390	8	29.558	0	1408.723	0	23.7	4	7.4	4	-1E+10	1	-1E+10	1	-1E+10	1	-1E+10	1	-1E+10	1	-1E+10	1
4901784	189	C	09/06/2020	10:42	-132.925	43.407	0	1429.70	0	2.6400	0	37.0400	8	29.559	0	1413.452	0	23.9	4	7.4	4	-1E+10	1	-1E+10	1	-1E+10	1	-1E+10	1	-1E+10	1	-1E+10	1
4901784	189	C	09/06/2020	10:42	-132.925	43.407	0	1434.40	0	2.6320	0	37.0410	8	29.561	0	1418.083	0	24.1	4	7.5	4	-1E+10	1	-1E+10	1	-1E+10	1	-1E+10	1	-1E+10	1	-1E+10	1
4901784	189	C	09/06/2020	10:42	-132.925	43.407	0	1440.00	0	2.6230	0	37.0430	8	29.563	0	1423.600	0	24.4	4	7.6	4	-1E+10	1	-1E+10	1	-1E+10	1	-1E+10	1	-1E+10	1	-1E+10	1
4901784	189	C	09/06/2020	10:42	-132.925	43.407	0	1444.80	0	2.6170	0	37.0430	8	29.564	0	1428.329	0	24.7	4	7.7	4	-1E+10	1	-1E+10	1	-1E+10	1	-1E+10	1	-1E+10	1	-1E+10	1
4901784	189	C	09/06/2020	10:42	-132.925	43.407	0	1449.60	0	2.6050	0	37.0450	8	29.567	0	1433.058	0	25.0	4	7.8	4	-1E+10	1	-1E+10	1	-1E+10	1	-1E+10	1	-1E+10	1	-1E+10	1
4901784	189	C	09/06/2020	10:42	-132.925	43.407	0	1455.40	0	2.5960	0	37.0470	8	29.569	0	1438.772	0	25.2	4	7.9	4	-1E+10	1	-1E+10	1	-1E+10	1	-1E+10	1	-1E+10	1	-1E+10	1
4901784	189	C	09/06/2020	10:42	-132.925	43.407	0	1460.20	0	2.5870	0	37.0480	8	29.571	0	1443.501	0	25.5	4	7.9	4	-1E+10	1	-1E+10	1	-1E+10	1	-1E+10	1	-1E+10	1	-1E+10	1
4901784	189	C	09/06/2020	10:42	-132.925	43.407	0	1465.10	0	2.5820	0	37.0490	8	29.572	0	1448.328	0	25.6	4	8.0	4	-1E+10	1	-1E+10	1	-1E+10	1	-1E+10	1	-1E+10	1	-1E+10	1
4901784	189	C	09/06/2020	10:42	-132.925	43.407	0	1470.00	0	2.5760	0	37.0500	8	29.573	0	1453.155	0	25.8	4	8.1	4	-1E+10	1	-1E+10	1	-1E+10	1	-1E+10	1	-1E+10	1	-1E+10	1
4901784	189	C	09/06/2020	10:42	-132.925	43.407	0	1475.00	0	2.5710	0	37.0510	8	29.575	0	1458.081	0	26.1	4	8.1	4	-1E+10	1	-1E+10	1	-1E+10	1	-1E+10	1	-1E+10	1	-1E+10	1
4901784	189	C	09/06/2020	10:42	-132.925	43.407	0	1479.80	0	2.5620	0	37.0530	8	29.577	0	1462.809	0	26.3	4	8.2	4	-1E+10	1	-1E+10	1	-1E+10	1	-1E+10	1	-1E+10	1	-1E+10	1
4901784	189	C	09/06/2020	10:42	-132.925	43.407	0	1484.70	0	2.5560	0	37.0530	8	29.578	0	1467.636	0	26.5	4	8.3	4	-1E+10	1	-1E+10	1	-1E+10	1	-1E+10	1	-1E+10	1	-1E+10	1
4901784	189	C	09/06/2020	10:42	-132.925	43.407	0	1490.30	0	2.5470	0	37.0550	8	29.580	0	1473.152	0	26.8	4	8.4	4	-1E+10	1	-1E+10	1	-1E+10	1	-1E+10	1	-1E+10	1	-1E+10	1
4901784	189	C	09/06/2020	10:42	-132.925	43.407	0	1494.90	0	2.5430	0	37.0550	8	29.581	0	1477.683	0	27.0	4	8.4	4	-1E+10	1	-1E+10	1	-1E+10	1	-1E+10	1	-1E+10	1	-1E+10	1
4901784	189	C	09/06/2020	10:42	-132.925	43.407	0	1499.40	0	2.5360	0	37.0570	8	29.583	0	1482.115	0	27.2	4	8.5	4	-1E+10	1	-1E+10	1	-1E+10	1	-1E+10	1	-1E+10	1	-1E+10	1
4901784	189	C	09/06/2020	10:42	-132.925	43.407	0	1504.90	0	2.5280	0	37.0580	8	29.584	0	1487.533	0	27.5	4	8.6	4	-1E+10	1	-1E+10	1	-1E+10	1	-1E+10	1	-1E+10	1	-1E+10	1
4901784	189	C	09/06/2020	10:42	-132.925	43.407	0	1510.40	0	2.5210	0	37.0590	8	29.586	0	1492.950	0	27.8	4	8.6	4	-1E+10	1	-1E+10	1	-1E+10	1	-1E+10	1	-1E+10	1	-1E+10	1
4901784	189	C	09/06/2020	10:42	-132.925	43.407	0	1515.00	0	2.5130	0	37.0600	8	29.587	0	1497.480	0	28.0	4	8.7	4	-1E+10	1	-1E+10	1	-1E+10	1	-1E+10	1	-1E+10	1	-1E+10	1
4901784	189	C	09/06/2020	10:42	-132.925	43.407	0	1519.70	0	2.5070	0	37.0610	8	29.589	0	1502.109	0	28.2	4	8.8	4	-1E+10	1	-1E+10	1	-1E+10	1	-1E+10	1	-1E+10	1	-1E+10	1
4901784	189	C	09/06/2020	10:42	-132.925	43.407	0	1525.20	0	2.4980	0	37.0630	8	29.591	0	1507.526	0	28.5	4	8.9	4	-1E+10	1	-1E+10	1	-1E+10	1	-1E+10	1	-1E+10	1	-1E+10	1
4901784	189	C	09/06/2020	10:42	-132.925	43.407	0	1530.60	0	2.4940	0	37.0630	8	29.592	0	1512.844	0	28.6	4	8.9	4	-1E+10	1	-1E+10	1	-1E+10	1	-1E+10	1	-1E+10	1	-1E+10	1
4901784	189	C	09/06/2020	10:42	-132.925	43.407	0	1535.50	0	2.4900	0	37.0650	8	29.594	0	1517.670	0	28.9	4	9.0	4	-1E+10	1	-1E+10	1	-1E+10	1	-1E+10	1	-1E+10	1	-1E+10	1
4901784	189	C	09/06/2020	10:42	-132.925	43.407	0	1540.30	0	2.4830	0	37.0650	8	29.594	0	1522.397	0	29.1	4	9.1	4	-1E+10	1	-1E+10	1	-1E+10	1	-1E+10	1	-1E+10	1	-1E+10	1
4901784	189	C	09/06/2020	10:42	-132.925	43.407	0	1545.20	0	2.4760	0	37.0670	8	29.597	0	1527.222	0	29.3	4	9.1	4	-1E+10	1	-1E+10	1	-1E+10	1	-1E+10	1	-1E+10	1	-1E+10	1
4901784	189	C	09/06/2020	10:42	-132.925	43.407	0	1550.10	0	2.4710	0	37.0680	8	29.598	0	1532.047	0	29.6	4	9.2	4	-1E+10	1	-1E+10	1	-1E+10	1	-1E+10	1	-1E+10	1	-1E+10	1
4901784	189	C	09/06/2020	10:42	-132.925	43.407	0	1555.00	0	2.4630	0	37.0690	8	29.599	0	1536.873	0	29.8	4	9.3	4	-1E+10	1	-1E+10	1	-1E+10	1	-1E+10	1	-1E+10	1	-1E+10	1
4901784	189	C	09/06/2020	10:42	-132.925	43.407	0	1559.90	0	2.4610	0	37.0690	8	29.600	0	1541.698	0	30.0	4	9.3	4	-1E+10	1	-1E+10	1	-1E+10	1	-1E+10	1	-1E+10	1	-1E+10	1
4901784	189	C	09/06/2020	10:42	-132.925	43.407	0	1564.90	0	2.4530	0	37.0710	8	29.602	0	1546.621	0	30.3	4	9.4	4	-1E+10	1	-1E+10	1	-1E+10	1	-1E+10	1	-1E+10	1	-1E+10	1
4901784	189	C	09/06/2020	10:42	-132.925	43.407	0	1569.90	0	2.4470	0	37.0720	8	29.603	0	1551.544	0	30.6	4	9.5	4	-1E+10	1	-1E+10	1	-1E+10	1	-1E+10	1	-1E+10	1	-1E+10	1
4901784	189	C	09/06/2020	10:42	-132.925	43.407	0	1574.80	0	2.4380	0	37.0730	8	29.605	0	1556.369	0	30.8	4	9.6	4	-1E+10	1	-1E+10	1	-1E+10	1	-1E+10	1	-1E+10	1	-1E+10	1
4901784	189	C	09/06/2020	10:42	-132.925	43.407	0	1579.80	0	2.4330	0	37.0740	8	29.606	0	1561.292	0	31.0	4	9.6	4	-1E+10	1	-1E+10	1	-1E+10	1	-1E+10	1	-1E+10	1	-1E+10	1
4901784	189	C	09/06/2020	10:42	-132.925	43.407	0	1584.90	0	2.4280	0	37.0750	8	29.608	0	1566.313	0	31.2	4	9.7	4	-1E+10	1	-1E+10	1	-1E+10	1	-1E+10	1	-1E+10	1	-1E+10	1
4901784	189	C	09/06/2020	10:42	-132.925	43.407	0	1590.00	0	2.4230	0	37.0760	8	29.609	0	1571.335	0	31.4	4	9.8	4	-1E+10	1	-1E+10	1	-1E+10	1	-1E+10	1	-1E+10	1	-1E+10	1
4901784	189	C	09/06/2020	10:42	-132.925	43.407	0	1595.10	0	2.4160	0	37.0760	8	29.610	0	1576.356	0	31.7	4	9.9	4	-1E+10	1	-1E+10	1	-1E+10	1	-1E+10	1	-1E+10	1	-1E+10	1
4901784	189	C	09/06/2020	10:42	-132.925	43.407	0	1600.20	0	2.4070	0	37.0780	8	29.612	0	1581.377	0	32.1	4	10.0	4	-1E+10	1	-1E+10	1	-1E+10	1	-1E+10	1	-1E+10	1	-1E+10	1
4901784	189	C	09/06/2020	10:42	-132.925	43.407	0	1605.30	0	2.3980	0	37.0790	8	29.614	0	1586.398	0	32.4	4	10.1	4	-1E+10	1	-1E+10	1	-1E+10	1	-1E+10	1	-1E+10	1	-1E+10	1
4901784	189	C	09/06/2020	10:42	-132.925	43.407	0	1610.40	0	2.3920	0	37.0800	8	29.615	0	1591.419	0	32.7	4	10.1	4	-1E+10	1	-1E+10	1	-1E+10	1	-1E+10	1	-1E+10	1	-1E+10	1
4901784	189	C	09/06/2020	10:42	-132.925	43.407	0	1615.60	0	2.3870	0	37.0810	8	29.616	0	1596.538	0	33.0	4	10.2	4	-1E+10	1	-1E+10	1	-1E+10	1	-1E+10	1	-1E+10	1	-1E+10	1
4901784	189	C	09/06/2020	10:42	-132.925	43.407	0	1620.70	0	2.3810	0	37.0830	8	29.618	0	1601.558	0	33.4	4	10.4	4	-1E+10	1	-1E+10	1	-1E+10	1	-1E+10	1	-1E+10	1	-1E+10	1
4901784	189	C	09/06/2020	10:42	-132.925	43.407	0	1625.00	0	2.3730	0	37.0840	8	29.620	0	1605.791	0	33.6	4	10.4	4	-1E+10	1	-1E+10	1	-1E+10	1	-1E+10	1	-1E+10	1	-1E+10	1
4901784	189	C	09/06/2020	10:42	-132.925	43.407	0	1629.30	0	2.3700	0	37.0850	8	29.621	0	1610.024	0	33.8	4	10.5	4	-1E+10	1	-1E+10	1	-1E+10	1	-1E+10	1	-1E+10	1	-1E+10	1
4901784	189	C	09/06/2020	10:42	-132.925	43.407	0	1634.50	0	2.3650	0	37.0860	8	29.622	0	1615.143	0	34.1	4	10.6	4	-1E+10	1	-1E+10	1	-1E+10	1	-1E+10	1	-1E+10	1	-1E+10	1
4901784	189	C	09/06/2020	10:42	-132.925	43.407	0	1639.70	0	2.3620	0	37.0870	8	29.623	0	1620.261	0	34.3	4	10.6	4	-1E+10	1	-1E+10	1	-1E+10	1	-1E+10	1	-1E+10	1	-1E+10	1
4901784	189	C	09/06/2020	10:42	-132.925	43.407	0	1644.90	0	2.3610	0	37.0870	8	29.624	0	1625.380	0	34.6	4	10.7	4	-1E+10	1	-1E+10	1	-1E+10	1	-1E+10	1	-1E+10	1	-1E+10	1
4901784	189	C	09/06/2020	10:42	-132.925	43.407	0	1650.10	0	2.3580	0	37.0890	8	29.626	0	1630.498	0	35.3	4	10.9	4	-1E+10	1	-1E+10	1	-1E+10	1	-1E+10	1	-1E+10	1	-1E+10	1
4901784	189	C	09/06/2020	10:42	-132.925	43.407	0	1655.40	0	2.3550	0	37.0900	8	29.627	0	1635.714	0	36.2	4	11.2	4	-1E+10	1	-1E+10	1	-1E+10	1	-1E+10	1	-1E+10	1	-1E+10	1
4901784	189	C	09/06/2020	10:42	-132.925	43.407	0	1660.70	0	2.3580	0	37.0930	8	29.629	0	1640.931	0	37.2	4	11.5	4	-1E+10	1	-1E+10	1	-1E+10	1	-1E+10	1	-1E+10	1	-1E+10	1
4901784	189	C	09/06/2020	10:42	-132.925	43.407	0	1665.10	0	2.3580	0	37.0950	8	29.630	0	1645.261	0	37.9	4	11.8	4	-1E+10	1	-1E+10	1	-1E+10	1	-1E+10	1	-1E+10	1	-1E+10	1
4901784	189	C	09/06/2020	10:42	-132.925	43.407	0	1669.50	0	2.3560	0	37.0960	8	29.631	0	1649.592	0	38.2	4	11.8	4	-1E+10	1	-1E+10	1	-1E+10	1	-1E+10	1	-1E+10	1	-1E+10	1
4901784	189	C	09/06/2020	10:42	-132.925	43.407	0	1674.90	0	2.3490	0	37.0970	8	29.633	0	1654.907	0	38.5	4	11.9	4	-1E+10	1	-1E+10	1	-1E+10	1	-1E+10	1	-1E+10	1	-1E+10	1
4901784	189	C	09/06/2020	10:42	-132.925	43.407	0	1680.10	0	2.3460	0	37.0980	8	29.634	0	1660.024	0	38.9	4	12.1	4	-1E+10	1	-1E+10	1	-1E+10	1	-1E+10	1	-1E+10	1	-1E+10	1
4901784	189	C	09/06/2020	10:42	-132.925	43.407	0	1685.50	0	2.3360	0	37.0990	8	29.636	0	1665.338	0	39.1	4	12.1	4	-1E+10	1	-1E+10	1	-1E+10	1	-1E+10	1	-1E+10	1	-1E+10	1
4901784	189	C	09/06/2020	10:42	-132.925	43.407	0	1689.90	0	2.3290	0	37.1000	8	29.637	0	1669.668	0	39.4	4	12.2	4	-1E+10	1	-1E+10	1	-1E+10	1	-1E+10	1	-1E+10	1	-1E+10	1
4901784	189	C	09/06/2020	10:42	-132.925	43.407	0	1694.30	0	2.3260	0	37.1010	8	29.638	0	1673.998	0	39.7	4	12.3	4	-1E+10	1	-1E+10	1	-1E+10	1	-1E+10	1	-1E+10	1	-1E+10	1
4901784	189	C	09/06/2020	10:42	-132.925	43.407	0	1699.60	0	2.3190	0	37.1020	8	29.640	0	1679.214	0	40.2	4	12.4	4	-1E+10	1	-1E+10	1	-1E+10	1	-1E+10	1	-1E+10	1	-1E+10	1
4901784	189	C	09/06/2020	10:42	-132.925	43.407	0	1705.00	0	2.3160	0	37.1030	8	29.641	0	1684.528	0	40.5	4	12.6	4	-1E+10	1	-1E+10	1	-1E+10	1	-1E+10	1	-1E+10	1	-1E+10	1
4901784	189	C	09/06/2020	10:42	-132.925	43.407	0	1710.40	0	2.3080	0	37.1040	8	29.642	0	1689.841	0	40.9	4	12.7	4	-1E+10	1	-1E+10	1	-1E+10	1	-1E+10	1	-1E+10	1	-1E+10	1
4901784	189	C	09/06/2020	10:42	-132.925	43.407	0	1714.90	0	2.3000	0	37.1050	8	29.644	0	1694.269	0	41.1	4	12.7	4	-1E+10	1	-1E+10	1	-1E+10	1	-1E+10	1	-1E+10	1	-1E+10	1
4901784	189	C	09/06/2020	10:42	-132.925	43.407	0	1719.40	0	2.2910	0	37.1060	8	29.646	0	1698.697	0	41.2	4	12.7	4	-1E+10	1	-1E+10	1	-1E+10	1	-1E+10	1	-1E+10	1	-1E+10	1
4901784	189	C	09/06/2020	10:42	-132.925	43.407	0	1724.70	0	2.2750	0	37.1070	8	29.648	0	1703.912	0	41.3	4	12.8	4	-1E+10	1	-1E+10	1	-1E+10	1	-1E+10	1	-1E+10	1	-1E+10	1
4901784	189	C	09/06/2020	10:42	-132.925	43.407	0	1730.10	0	2.2640	0	37.1080	8	29.650	0	1709.225	0	41.4	4	12.8	4	-1E+10	1	-1E+10	1	-1E+10	1	-1E+10	1	-1E+10	1	-1E+10	1
4901784	189	C	09/06/2020	10:42	-132.925	43.407	0	1735.40	0	2.2540	0	37.1090	8	29.651	0	1714.440	0	41.9	4	13.0	4	-1E+10	1	-1E+10	1	-1E+10	1	-1E+10	1	-1E+10	1	-1E+10	1
4901784	189	C	09/06/2020	10:42	-132.925	43.407	0	1740.70	0	2.2530	0	37.1110	8	29.653	0	1719.654	0	42.8	4	13.2	4	-1E+10	1	-1E+10	1	-1E+10	1	-1E+10	1	-1E+10	1	-1E+10	1
4901784	189	C	09/06/2020	10:42	-132.925	43.407	0	1745.20	0	2.2490	0	37.1120	8	29.654	0	1724.082	0	43.1	4	13.3	4	-1E+10	1	-1E+10	1	-1E+10	1	-1E+10	1	-1E+10	1	-1E+10	1
4901784	189	C	09/06/2020	10:42	-132.925	43.407	0	1749.60	0	2.2460	0	37.1130	8	29.655	0	1728.411	0	43.3	4	13.4	4	-1E+10	1	-1E+10	1	-1E+10	1	-1E+10	1	-1E+10	1	-1E+10	1
4901784	189	C	09/06/2020	10:42	-132.925	43.407	0	1755.00	0	2.2390	0	37.1140	8	29.657	0	1733.723	0	43.7	4	13.5	4	-1E+10	1	-1E+10	1	-1E+10	1	-1E+10	1	-1E+10	1	-1E+10	1
4901784	189	C	09/06/2020	10:42	-132.925	43.407	0	1760.40	0	2.2300	0	37.1150	8	29.658	0	1739.036	0	44.4	4	13.7	4	-1E+10	1	-1E+10	1	-1E+10	1	-1E+10	1	-1E+10	1	-1E+10	1
4901784	189	C	09/06/2020	10:42	-132.925	43.407	0	1765.00	0	2.2250	0	37.1160	8	29.660	0	1743.561	0	44.7	4	13.8	4	-1E+10	1	-1E+10	1	-1E+10	1	-1E+10	1	-1E+10	1	-1E+10	1
4901784	189	C	09/06/2020	10:42	-132.925	43.407	0	1769.50	0	2.2200	0	37.1170	8	29.661	0	1747.988	0	45.1	4	13.9	4	-1E+10	1	-1E+10	1	-1E+10	1	-1E+10	1	-1E+10	1	-1E+10	1
4901784	189	C	09/06/2020	10:42	-132.925	43.407	0	1775.00	0	2.2080	0	37.1190	8	29.664	0	1753.398	0	45.6	4	14.1	4	-1E+10	1	-1E+10	1	-1E+10	1	-1E+10	1	-1E+10	1	-1E+10	1
4901784	189	C	09/06/2020	10:42	-132.925	43.407	0	1780.50	0	2.1950	0	37.1200	8	29.666	0	1758.808	0	45.9	4	14.2	4	-1E+10	1	-1E+10	1	-1E+10	1	-1E+10	1	-1E+10	1	-1E+10	1
4901784	189	C	09/06/2020	10:42	-132.925	43.407	0	1785.00	0	2.1890	0	37.1210	8	29.667	0	1763.235	0	46.1	4	14.2	4	-1E+10	1	-1E+10	1	-1E+10	1	-1E+10	1	-1E+10	1	-1E+10	1
4901784	189	C	09/06/2020	10:42	-132.925	43.407	0	1789.60	0	2.1830	0	37.1220	8	29.668	0	1767.760	0	46.3	4	14.3	4	-1E+10	1	-1E+10	1	-1E+10	1	-1E+10	1	-1E+10	1	-1E+10	1
4901784	189	C	09/06/2020	10:42	-132.925	43.407	0	1795.10	0	2.1760	0	37.1230	8	29.670	0	1773.170	0	46.7	4	14.4	4	-1E+10	1	-1E+10	1	-1E+10	1	-1E+10	1	-1E+10	1	-1E+10	1
4901784	189	C	09/06/2020	10:42	-132.925	43.407	0	1799.80	0	2.1700	0	37.1240	8	29.671	0	1777.793	0	47.1	4	14.5	4	-1E+10	1	-1E+10	1	-1E+10	1	-1E+10	1	-1E+10	1	-1E+10	1
4901784	189	C	09/06/2020	10:42	-132.925	43.407	0	1804.40	0	2.1650	0	37.1250	8	29.672	0	1782.317	0	47.4	4	14.6	4	-1E+10	1	-1E+10	1	-1E+10	1	-1E+10	1	-1E+10	1	-1E+10	1
4901784	189	C	09/06/2020	10:42	-132.925	43.407	0	1809.90	0	2.1590	0	37.1260	8	29.674	0	1787.727	0	47.8	4	14.8	4	-1E+10	1	-1E+10	1	-1E+10	1	-1E+10	1	-1E+10	1	-1E+10	1
4901784	189	C	09/06/2020	10:42	-132.925	43.407	0	1815.50	0	2.1500	0	37.1270	8	29.675	0	1793.234	0	48.2	4	14.9	4	-1E+10	1	-1E+10	1	-1E+10	1	-1E+10	1	-1E+10	1	-1E+10	1
4901784	189	C	09/06/2020	10:42	-132.925	43.407	0	1819.60	0	2.1480	0	37.1280	8	29.676	0	1797.267	0	48.4	4	14.9	4	-1E+10	1	-1E+10	1	-1E+10	1	-1E+10	1	-1E+10	1	-1E+10	1
4901784	189	C	09/06/2020	10:42	-132.925	43.407	0	1824.50	0	2.1420	0	37.1290	8	29.678	0	1802.086	0	48.7	4	15.0	4	-1E+10	1	-1E+10	1	-1E+10	1	-1E+10	1	-1E+10	1	-1E+10	1
4901784	189	C	09/06/2020	10:42	-132.925	43.407	0	1829.50	0	2.1360	0	37.1300	8	29.679	0	1807.003	0	49.0	4	15.1	4	-1E+10	1	-1E+10	1	-1E+10	1	-1E+10	1	-1E+10	1	-1E+10	1
4901784	189	C	09/06/2020	10:42	-132.925	43.407	0	1834.50	0	2.1310	0	37.1310	8	29.680	0	1811.920	0	49.2	4	15.2	4	-1E+10	1	-1E+10	1	-1E+10	1	-1E+10	1	-1E+10	1	-1E+10	1
4901784	189	C	09/06/2020	10:42	-132.925	43.407	0	1839.40	0	2.1260	0	37.1310	8	29.681	0	1816.739	0	49.4	4	15.2	4	-1E+10	1	-1E+10	1	-1E+10	1	-1E+10	1	-1E+10	1	-1E+10	1
4901784	189	C	09/06/2020	10:42	-132.925	43.407	0	1844.50	0	2.1190	0	37.1320	8	29.682	0	1821.754	0	49.6	4	15.3	4	-1E+10	1	-1E+10	1	-1E+10	1	-1E+10	1	-1E+10	1	-1E+10	1
4901784	189	C	09/06/2020	10:42	-132.925	43.407	0	1849.50	0	2.1070	0	37.1330	8	29.684	0	1826.671	0	50.1	4	15.5	4	-1E+10	1	-1E+10	1	-1E+10	1	-1E+10	1	-1E+10	1	-1E+10	1
4901784	189	C	09/06/2020	10:42	-132.925	43.407	0	1854.50	0	2.1000	0	37.1350	8	29.686	0	1831.588	0	50.6	4	15.6	4	-1E+10	1	-1E+10	1	-1E+10	1	-1E+10	1	-1E+10	1	-1E+10	1
4901784	189	C	09/06/2020	10:42	-132.925	43.407	0	1859.60	0	2.0940	0	37.1360	8	29.688	0	1836.603	0	50.9	4	15.7	4	-1E+10	1	-1E+10	1	-1E+10	1	-1E+10	1	-1E+10	1	-1E+10	1
4901784	189	C	09/06/2020	10:42	-132.925	43.407	0	1864.60	0	2.0810	0	37.1360	8	29.689	0	1841.520	0	51.1	4	15.8	4	-1E+10	1	-1E+10	1	-1E+10	1	-1E+10	1	-1E+10	1	-1E+10	1
4901784	189	C	09/06/2020	10:42	-132.925	43.407	0	1869.70	0	2.0770	0	37.1380	8	29.691	0	1846.534	0	51.7	4	15.9	4	-1E+10	1	-1E+10	1	-1E+10	1	-1E+10	1	-1E+10	1	-1E+10	1
4901784	189	C	09/06/2020	10:42	-132.925	43.407	0	1874.70	0	2.0730	0	37.1390	8	29.692	0	1851.451	0	52.1	4	16.0	4	-1E+10	1	-1E+10	1	-1E+10	1	-1E+10	1	-1E+10	1	-1E+10	1
4901784	189	C	09/06/2020	10:42	-132.925	43.407	0	1879.80	0	2.0680	0	37.1400	8	29.693	0	1856.465	0	52.6	4	16.2	4	-1E+10	1	-1E+10	1	-1E+10	1	-1E+10	1	-1E+10	1	-1E+10	1
4901784	189	C	09/06/2020	10:42	-132.925	43.407	0	1885.00	0	2.0630	0	37.1410	8	29.694	0	1861.578	0	53.1	4	16.4	4	-1E+10	1	-1E+10	1	-1E+10	1	-1E+10	1	-1E+10	1	-1E+10	1
4901784	189	C	09/06/2020	10:42	-132.925	43.407	0	1890.20	0	2.0530	0	37.1420	8	29.696	0	1866.690	0	53.5	4	16.5	4	-1E+10	1	-1E+10	1	-1E+10	1	-1E+10	1	-1E+10	1	-1E+10	1
4901784	189	C	09/06/2020	10:42	-132.925	43.407	0	1895.30	0	2.0470	0	37.1430	8	29.697	0	1871.705	0	53.9	4	16.6	4	-1E+10	1	-1E+10	1	-1E+10	1	-1E+10	1	-1E+10	1	-1E+10	1
4901784	189	C	09/06/2020	10:42	-132.925	43.407	0	1900.50	0	2.0410	0	37.1440	8	29.699	0	1876.817	0	54.3	4	16.7	4	-1E+10	1	-1E+10	1	-1E+10	1	-1E+10	1	-1E+10	1	-1E+10	1
4901784	189	C	09/06/2020	10:42	-132.925	43.407	0	1904.90	0	2.0370	0	37.1450	8	29.700	0	1881.143	0	54.5	4	16.8	4	-1E+10	1	-1E+10	1	-1E+10	1	-1E+10	1	-1E+10	1	-1E+10	1
4901784	189	C	09/06/2020	10:42	-132.925	43.407	0	1909.30	0	2.0330	0	37.1460	8	29.701	0	1885.468	0	54.7	4	16.8	4	-1E+10	1	-1E+10	1	-1E+10	1	-1E+10	1	-1E+10	1	-1E+10	1
4901784	189	C	09/06/2020	10:42	-132.925	43.407	0	1914.50	0	2.0300	0	37.1460	8	29.701	0	1890.580	0	55.0	4	16.9	4	-1E+10	1	-1E+10	1	-1E+10	1	-1E+10	1	-1E+10	1	-1E+10	1
4901784	189	C	09/06/2020	10:42	-132.925	43.407	0	1919.90	0	2.0270	0	37.1470	8	29.703	0	1895.889	0	55.3	4	17.0	4	-1E+10	1	-1E+10	1	-1E+10	1	-1E+10	1	-1E+10	1	-1E+10	1
4901784	189	C	09/06/2020	10:42	-132.925	43.407	0	1925.20	0	2.0230	0	37.1480	8	29.704	0	1901.099	0	55.6	4	17.1	4	-1E+10	1	-1E+10	1	-1E+10	1	-1E+10	1	-1E+10	1	-1E+10	1
4901784	189	C	09/06/2020	10:42	-132.925	43.407	0	1930.60	0	2.0170	0	37.1480	8	29.704	0	1906.407	0	56.0	4	17.2	4	-1E+10	1	-1E+10	1	-1E+10	1	-1E+10	1	-1E+10	1	-1E+10	1
4901784	189	C	09/06/2020	10:42	-132.925	43.407	0	1935.20	0	2.0120	0	37.1500	8	29.706	0	1910.929	0	56.3	4	17.3	4	-1E+10	1	-1E+10	1	-1E+10	1	-1E+10	1	-1E+10	1	-1E+10	1
4901784	189	C	09/06/2020	10:42	-132.925	43.407	0	1939.70	0	2.0070	0	37.1500	8	29.707	0	1915.352	0	56.6	4	17.4	4	-1E+10	1	-1E+10	1	-1E+10	1	-1E+10	1	-1E+10	1	-1E+10	1
4901784	189	C	09/06/2020	10:42	-132.925	43.407	0	1945.20	0	2.0000	0	37.1510	8	29.708	0	1920.758	0	57.0	4	17.5	4	-1E+10	1	-1E+10	1	-1E+10	1	-1E+10	1	-1E+10	1	-1E+10	1
4901784	189	C	09/06/2020	10:42	-132.925	43.407	0	1949.70	0	1.9940	0	37.1520	8	29.710	0	1925.181	0	57.3	4	17.6	4	-1E+10	1	-1E+10	1	-1E+10	1	-1E+10	1	-1E+10	1	-1E+10	1
4901784	189	C	09/06/2020	10:42	-132.925	43.407	0	1954.20	0	1.9900	0	37.1530	8	29.711	0	1929.604	0	57.6	4	17.7	4	-1E+10	1	-1E+10	1	-1E+10	1	-1E+10	1	-1E+10	1	-1E+10	1
4901784	189	C	09/06/2020	10:42	-132.925	43.407	0	1959.60	0	1.9820	0	37.1540	8	29.712	0	1934.912	0	58.1	4	17.8	4	-1E+10	1	-1E+10	1	-1E+10	1	-1E+10	1	-1E+10	1	-1E+10	1
4901784	189	C	09/06/2020	10:42	-132.925	43.407	0	1964.40	0	1.9760	0	37.1550	8	29.714	0	1939.630	0	58.4	4	18.0	4	-1E+10	1	-1E+10	1	-1E+10	1	-1E+10	1	-1E+10	1	-1E+10	1
4901784	189	C	09/06/2020	10:42	-132.925	43.407	0	1969.40	0	1.9710	0	37.1560	8	29.715	0	1944.544	0	58.6	4	18.0	4	-1E+10	1	-1E+10	1	-1E+10	1	-1E+10	1	-1E+10	1	-1E+10	1
4901784	189	C	09/06/2020	10:42	-132.925	43.407	0	1974.30	0	1.9690	0	37.1560	8	29.715	0	1949.360	0	58.8	4	18.1	4	-1E+10	1	-1E+10	1	-1E+10	1	-1E+10	1	-1E+10	1	-1E+10	1
4901784	189	C	09/06/2020	10:42	-132.925	43.407	0	1979.30	0	1.9670	0	37.1570	8	29.716	0	1954.274	0	59.1	4	18.1	4	-1E+10	1	-1E+10	1	-1E+10	1	-1E+10	1	-1E+10	1	-1E+10	1
4901784	189	C	09/06/2020	10:42	-132.925	43.407	0	1984.40	0	1.9640	0	37.1570	8	29.716	0	1959.286	0	59.3	4	18.2	4	-1E+10	1	-1E+10	1	-1E+10	1	-1E+10	1	-1E+10	1	-1E+10	1
4901784	189	C	09/06/2020	10:42	-132.925	43.407	0	1989.40	0	1.9600	0	37.1580	8	29.717	0	1964.199	0	59.4	4	18.3	4	-1E+10	1	-1E+10	1	-1E+10	1	-1E+10	1	-1E+10	1	-1E+10	1
4901784	189	C	09/06/2020	10:42	-132.925	43.407	0	1994.40	0	1.9560	0	37.1580	8	29.718	0	1969.113	0	59.3	4	18.2	4	-1E+10	1	-1E+10	1	-1E+10	1	-1E+10	1	-1E+10	1	-1E+10	1
4901784	189	C	09/06/2020	10:42	-132.925	43.407	0	1999.50	0	1.9450	0	37.1580	8	29.719	0	1974.125	0	59.0	4	18.1	4	-1E+10	1	-1E+10	1	-1E+10	1	-1E+10	1	-1E+10	1	-1E+10	1
4901784	189	C	09/06/2020	10:42	-132.925	43.407	0	2004.40	0	1.9390	0	37.1580	8	29.719	0	1978.940	0	59.0	4	18.1	4	-1E+10	1	-1E+10	1	-1E+10	1	-1E+10	1	-1E+10	1	-1E+10	1
4901784	189	C	09/06/2020	10:42	-132.925	43.407	0	2010.00	0	1.9300	0	37.1590	8	29.721	0	1984.442	0	59.0	4	18.1	4	-1E+10	1	-1E+10	1	-1E+10	1	-1E+10	1	-1E+10	1	-1E+10	1
4901784	189	C	09/06/2020	10:42	-132.925	43.407	0	2015.00	0	1.9260	0	37.1590	8	29.721	0	1989.356	0	59.2	4	18.2	4	-1E+10	1	-1E+10	1	-1E+10	1	-1E+10	1	-1E+10	1	-1E+10	1
4901784	189	C	09/06/2020	10:42	-132.925	43.407	0	2020.40	0	1.9220	0	37.1600	8	29.722	0	1994.662	0	59.3	4	18.2	4	-1E+10	1	-1E+10	1	-1E+10	1	-1E+10	1	-1E+10	1	-1E+10	1
4901784	189	C	09/06/2020	10:42	-132.925	43.407	0																										
4901784	190	C	09/16/2020	10:49	-133.105	43.442	0	2.60	0	19.6460	0	35.2760	8	25.067	0	2.579	0	215.0	8	94.9	8	-1E+10	1	-1E+10	1	-1E+10	1	-1E+10	1	-1E+10	1	-1E+10	1
4901784	190	C	09/16/2020	10:49	-133.105	43.442	0	4.10	0	19.6450	0	35.2640	8	25.058	0	4.067	0	217.4	8	95.9	8	-1E+10	1	-1E+10	1	-1E+10	1	-1E+10	1	-1E+10	1	-1E+10	1
4901784	190	C	09/16/2020	10:49	-133.105	43.442	0	5.80	0	19.6480	0	35.2510	8	25.047	0	5.754	0	217.0	8	95.7	8	-1E+10	1	-1E+10	1	-1E+10	1	-1E+10	1	-1E+10	1	-1E+10	1
4901784	190	C	09/16/2020	10:49	-133.105	43.442	0	7.40	0	19.6490	0	35.2420	8	25.040	0	7.341	0	216.4	8	95.5	8	-1E+10	1	-1E+10	1	-1E+10	1	-1E+10	1	-1E+10	1	-1E+10	1
4901784	190	C	09/16/2020	10:49	-133.105	43.442	0	9.10	0	19.6490	0	35.2120	8	25.017	0	9.027	0	216.0	8	95.3	8	-1E+10	1	-1E+10	1	-1E+10	1	-1E+10	1	-1E+10	1	-1E+10	1
4901784	190	C	09/16/2020	10:49	-133.105	43.442	0	10.80	0	19.6490	8	35.1760	8	24.990	0	10.714	0	216.3	8	95.4	8	-1E+10	1	-1E+10	1	-1E+10	1	-1E+10	1	-1E+10	1	-1E+10	1
4901784	190	C	09/16/2020	10:49	-133.105	43.442	0	13.20	0	19.6490	8	35.0910	8	24.925	0	13.094	0	216.4	8	95.4	8	-1E+10	1	-1E+10	1	-1E+10	1	-1E+10	1	-1E+10	1	-1E+10	1
4901784	190	C	09/16/2020	10:49	-133.105	43.442	0	15.00	0	19.6490	8	35.0100	8	24.863	0	14.880	0	214.7	8	94.6	8	-1E+10	1	-1E+10	1	-1E+10	1	-1E+10	1	-1E+10	1	-1E+10	1
4901784	190	C	09/16/2020	10:49	-133.105	43.442	0	16.70	0	19.6500	8	34.9440	8	24.813	0	16.566	0	213.3	8	94.0	8	-1E+10	1	-1E+10	1	-1E+10	1	-1E+10	1	-1E+10	1	-1E+10	1
4901784	190	C	09/16/2020	10:49	-133.105	43.442	0	18.30	0	19.6500	8	34.8480	8	24.740	0	18.153	0	211.4	8	93.1	8	-1E+10	1	-1E+10	1	-1E+10	1	-1E+10	1	-1E+10	1	-1E+10	1
4901784	190	C	09/16/2020	10:49	-133.105	43.442	0	19.90	0	19.6490	8	34.6790	8	24.611	0	19.740	0	209.3	8	92.0	8	-1E+10	1	-1E+10	1	-1E+10	1	-1E+10	1	-1E+10	1	-1E+10	1
4901784	190	C	09/16/2020	10:49	-133.105	43.442	0	21.50	0	19.6460	8	34.4430	8	24.432	0	21.327	0	208.5	8	91.5	8	-1E+10	1	-1E+10	1	-1E+10	1	-1E+10	1	-1E+10	1	-1E+10	1
4901784	190	C	09/16/2020	10:49	-133.105	43.442	0	23.00	0	19.6400	8	34.1450	8	24.206	0	22.815	0	207.4	8	90.8	8	-1E+10	1	-1E+10	1	-1E+10	1	-1E+10	1	-1E+10	1	-1E+10	1
4901784	190	C	09/16/2020	10:49	-133.105	43.442	0	24.40	0	19.6120	8	33.7330	8	23.899	0	24.204	0	204.1	8	89.1	8	-1E+10	1	-1E+10	1	-1E+10	1	-1E+10	1	-1E+10	1	-1E+10	1
4901784	190	C	09/16/2020	10:49	-133.105	43.442	0	25.90	0	19.5260	8	33.0940	8	23.434	0	25.692	0	201.3	8	87.4	8	-1E+10	1	-1E+10	1	-1E+10	1	-1E+10	1	-1E+10	1	-1E+10	1
4901784	190	C	09/16/2020	10:49	-133.105	43.442	0	27.30	0	19.2370	8	32.3560	8	22.944	0	27.080	0	198.6	8	85.3	8	-1E+10	1	-1E+10	1	-1E+10	1	-1E+10	1	-1E+10	1	-1E+10	1
4901784	190	C	09/16/2020	10:49	-133.105	43.442	0	28.80	0	18.3990	0	32.0910	8	22.951	0	28.568	0	195.1	8	82.4	8	-1E+10	1	-1E+10	1	-1E+10	1	-1E+10	1	-1E+10	1	-1E+10	1
4901784	190	C	09/16/2020	10:49	-133.105	43.442	0	30.30	0	17.8130	0	32.2200	8	23.191	0	30.056	0	192.2	8	80.3	8	-1E+10	1	-1E+10	1	-1E+10	1	-1E+10	1	-1E+10	1	-1E+10	1
4901784	190	C	09/16/2020	10:49	-133.105	43.442	0	32.40	0	17.4550	0	32.1140	8	23.196	0	32.139	0	189.3	8	78.5	8	-1E+10	1	-1E+10	1	-1E+10	1	-1E+10	1	-1E+10	1	-1E+10	1
4901784	190	C	09/16/2020	10:49	-133.105	43.442	0	32.90	0	17.3870	0	32.0880	8	23.192	0	32.635	0	188.2	8	78.0	8	-1E+10	1	-1E+10	1	-1E+10	1	-1E+10	1	-1E+10	1	-1E+10	1
4901784	190	C	09/16/2020	10:49	-133.105	43.442	0	34.60	0	17.0750	0	32.0660	8	23.248	0	34.321	0	185.6	8	76.4	8	-1E+10	1	-1E+10	1	-1E+10	1	-1E+10	1	-1E+10	1	-1E+10	1
4901784	190	C	09/16/2020	10:49	-133.105	43.442	0	36.20	0	16.6860	0	32.0980	8	23.363	0	35.908	0	184.6	8	75.5	8	-1E+10	1	-1E+10	1	-1E+10	1	-1E+10	1	-1E+10	1	-1E+10	1
4901784	190	C	09/16/2020	10:49	-133.105	43.442	0	37.80	0	16.1460	0	32.2940	8	23.636	0	37.495	0	183.7	8	74.4	8	-1E+10	1	-1E+10	1	-1E+10	1	-1E+10	1	-1E+10	1	-1E+10	1
4901784	190	C	09/16/2020	10:49	-133.105	43.442	0	39.40	0	15.6850	0	32.4590	8	23.866	0	39.082	0	183.4	8	73.7	8	-1E+10	1	-1E+10	1	-1E+10	1	-1E+10	1	-1E+10	1	-1E+10	1
4901784	190	C	09/16/2020	10:49	-133.105	43.442	0	41.00	0	15.2950	0	32.5790	8	24.044	0	40.669	0	183.2	8	73.1	8	-1E+10	1	-1E+10	1	-1E+10	1	-1E+10	1	-1E+10	1	-1E+10	1
4901784	190	C	09/16/2020	10:49	-133.105	43.442	0	42.70	0	14.8740	0	32.7210	8	24.245	0	42.355	0	183.1	8	72.6	8	-1E+10	1	-1E+10	1	-1E+10	1	-1E+10	1	-1E+10	1	-1E+10	1
4901784	190	C	09/16/2020	10:49	-133.105	43.442	0	44.30	0	14.3980	0	32.9280	8	24.505	0	43.942	0	182.5	8	71.7	8	-1E+10	1	-1E+10	1	-1E+10	1	-1E+10	1	-1E+10	1	-1E+10	1
4901784	190	C	09/16/2020	10:49	-133.105	43.442	0	45.80	0	13.8680	0	33.2050	8	24.829	0	45.430	0	182.2	8	71.0	8	-1E+10	1	-1E+10	1	-1E+10	1	-1E+10	1	-1E+10	1	-1E+10	1
4901784	190	C	09/16/2020	10:49	-133.105	43.442	0	47.50	0	13.3330	0	33.5240	8	25.185	0	47.116	0	181.7	8	70.2	8	-1E+10	1	-1E+10	1	-1E+10	1	-1E+10	1	-1E+10	1	-1E+10	1
4901784	190	C	09/16/2020	10:49	-133.105	43.442	0	49.30	0	12.8680	0	33.8170	8	25.505	0	48.901	0	181.1	8	69.5	8	-1E+10	1	-1E+10	1	-1E+10	1	-1E+10	1	-1E+10	1	-1E+10	1
4901784	190	C	09/16/2020	10:49	-133.105	43.442	0	51.10	0	12.5350	0	34.0150	8	25.723	0	50.686	0	180.6	8	68.9	8	-1E+10	1	-1E+10	1	-1E+10	1	-1E+10	1	-1E+10	1	-1E+10	1
4901784	190	C	09/16/2020	10:49	-133.105	43.442	0	53.20	0	12.2410	0	34.1630	8	25.895	0	52.769	0	180.3	8	68.4	8	-1E+10	1	-1E+10	1	-1E+10	1	-1E+10	1	-1E+10	1	-1E+10	1
4901784	190	C	09/16/2020	10:49	-133.105	43.442	0	53.70	0	12.1810	0	34.1880	8	25.926	0	53.265	0	180.0	8	68.2	8	-1E+10	1	-1E+10	1	-1E+10	1	-1E+10	1	-1E+10	1	-1E+10	1
4901784	190	C	09/16/2020	10:49	-133.105	43.442	0	55.30	0	12.0110	0	34.2470	8	26.004	0	54.852	0	179.9	8	68.0	8	-1E+10	1	-1E+10	1	-1E+10	1	-1E+10	1	-1E+10	1	-1E+10	1
4901784	190	C	09/16/2020	10:49	-133.105	43.442	0	56.80	0	11.8100	0	34.3360	8	26.111	0	56.339	0	179.6	8	67.6	8	-1E+10	1	-1E+10	1	-1E+10	1	-1E+10	1	-1E+10	1	-1E+10	1
4901784	190	C	09/16/2020	10:49	-133.105	43.442	0	58.30	0	11.5930	0	34.4530	8	26.243	0	57.827	0	179.2	8	67.3	8	-1E+10	1	-1E+10	1	-1E+10	1	-1E+10	1	-1E+10	1	-1E+10	1
4901784	190	C	09/16/2020	10:49	-133.105	43.442	0	59.80	0	11.4030	0	34.5650	8	26.365	0	59.315	0	179.0	8	67.0	8	-1E+10	1	-1E+10	1	-1E+10	1	-1E+10	1	-1E+10	1	-1E+10	1
4901784	190	C	09/16/2020	10:49	-133.105	43.442	0	61.30	0	11.1930	0	34.7150	8	26.520	0	60.802	0	178.7	8	66.6	8	-1E+10	1	-1E+10	1	-1E+10	1	-1E+10	1	-1E+10	1	-1E+10	1
4901784	190	C	09/16/2020	10:49	-133.105	43.442	0	62.80	0	10.9970	0	34.8440	8	26.656	0	62.290	0	178.4	8	66.3	8	-1E+10	1	-1E+10	1	-1E+10	1	-1E+10	1	-1E+10	1	-1E+10	1
4901784	190	C	09/16/2020	10:49	-133.105	43.442	0	64.40	0	10.8610	0	34.9130	8	26.735	0	63.876	0	178.2	8	66.1	8	-1E+10	1	-1E+10	1	-1E+10	1	-1E+10	1	-1E+10	1	-1E+10	1
4901784	190	C	09/16/2020	10:49	-133.105	43.442	0	65.90	0	10.7650	0	34.9470	8	26.779	0	65.364	0	178.0	8	65.9	8	-1E+10	1	-1E+10	1	-1E+10	1	-1E+10	1	-1E+10	1	-1E+10	1
4901784	190	C	09/16/2020	10:49	-133.105	43.442	0	67.50	0	10.7230	0	34.9290	8	26.772	0	66.951	0	177.9	8	65.8	8	-1E+10	1	-1E+10	1	-1E+10	1	-1E+10	1	-1E+10	1	-1E+10	1
4901784	190	C	09/16/2020	10:49	-133.105	43.442	0	69.10	0	10.6840	0	34.9060	8	26.761	0	68.537	0	177.9	8	65.7	8	-1E+10	1	-1E+10	1	-1E+10	1	-1E+10	1	-1E+10	1	-1E+10	1
4901784	190	C	09/16/2020	10:49	-133.105	43.442	0	70.70	0	10.5990	0	34.9240	8	26.790	0	70.124	0	177.8	8	65.5	8	-1E+10	1	-1E+10	1	-1E+10	1	-1E+10	1	-1E+10	1	-1E+10	1
4901784	190	C	09/16/2020	10:49	-133.105	43.442	0	72.40	0	10.4850	0	34.9730	8	26.849	0	71.810	0	177.6	8	65.4	8	-1E+10	1	-1E+10	1	-1E+10	1	-1E+10	1	-1E+10	1	-1E+10	1
4901784	190	C	09/16/2020	10:49	-133.105	43.442	0	74.10	0	10.3620	0	35.0380	8	26.921	0	73.496	0	177.3	8	65.1	8	-1E+10	1	-1E+10	1	-1E+10	1	-1E+10	1	-1E+10	1	-1E+10	1
4901784	190	C	09/16/2020	10:49	-133.105	43.442	0	76.00	0	10.2570	0	35.0920	8	26.981	0	75.380	0	177.1	8	64.9	8	-1E+10	1	-1E+10	1	-1E+10	1	-1E+10	1	-1E+10	1	-1E+10	1
4901784	190	C	09/16/2020	10:49	-133.105	43.442	0	77.70	0	10.1850	0	35.1180	8	27.014	0	77.066	0	176.9	8	64.7	8	-1E+10	1	-1E+10	1	-1E+10	1	-1E+10	1	-1E+10	1	-1E+10	1
4901784	190	C	09/16/2020	10:49	-133.105	43.442	0	79.60	0	10.1380	0	35.1190	8	27.023	0	78.950	0	176.7	8	64.6	8	-1E+10	1	-1E+10	1	-1E+10	1	-1E+10	1	-1E+10	1	-1E+10	1
4901784	190	C	09/16/2020	10:49	-133.105	43.442	0	81.30	0	10.1060	0	35.1050	8	27.018	0	80.636	0	176.6	8	64.5	8	-1E+10	1	-1E+10	1	-1E+10	1	-1E+10	1	-1E+10	1	-1E+10	1
4901784	190	C	09/16/2020	10:49	-133.105	43.442	0	83.40	0	10.0720	0	35.0830	8	27.007	0	82.718	0	176.6	8	64.4	8	-1E+10	1	-1E+10	1	-1E+10	1	-1E+10	1	-1E+10	1	-1E+10	1
4901784	190	C	09/16/2020	10:49	-133.105	43.442	0	83.90	0	10.0630	0	35.0780	8	27.004	0	83.214	0	176.5	8	64.4	8	-1E+10	1	-1E+10	1	-1E+10	1	-1E+10	1	-1E+10	1	-1E+10	1
4901784	190	C	09/16/2020	10:49	-133.105	43.442	0	85.40	0	10.0240	0	35.0660	8	27.002	0	84.701	0	176.5	8	64.3	8	-1E+10	1	-1E+10	1	-1E+10	1	-1E+10	1	-1E+10	1	-1E+10	1
4901784	190	C	09/16/2020	10:49	-133.105	43.442	0	86.90	0	9.9740	0	35.0600	8	27.005	0	86.189	0	176.2	8	64.2	8	-1E+10	1	-1E+10	1	-1E+10	1	-1E+10	1	-1E+10	1	-1E+10	1
4901784	190	C	09/16/2020	10:49	-133.105	43.442	0	88.40	0	9.9000	0	35.0810	8	27.035	0	87.676	0	176.3	8	64.1	8	-1E+10	1	-1E+10	1	-1E+10	1	-1E+10	1	-1E+10	1	-1E+10	1
4901784	190	C	09/16/2020	10:49	-133.105	43.442	0	89.80	0	9.8080	0	35.1250	8	27.085	0	89.064	0	176.0	8	63.9	8	-1E+10	1	-1E+10	1	-1E+10	1	-1E+10	1	-1E+10	1	-1E+10	1
4901784	190	C	09/16/2020	10:49	-133.105	43.442	0	91.30	0	9.6940	0	35.2020	8	27.164	0	90.552	0	175.8	8	63.7	8	-1E+10	1	-1E+10	1	-1E+10	1	-1E+10	1	-1E+10	1	-1E+10	1
4901784	190	C	09/16/2020	10:49	-133.105	43.442	0	92.90	0	9.5420	0	35.3280	8	27.288	0	92.138	0	175.4	8	63.4	8	-1E+10	1	-1E+10	1	-1E+10	1	-1E+10	1	-1E+10	1	-1E+10	1
4901784	190	C	09/16/2020	10:49	-133.105	43.442	0	94.40	0	9.3880	0	35.4750	8	27.429	0	93.626	0	174.9	8	63.1	8	-1E+10	1	-1E+10	1	-1E+10	1	-1E+10	1	-1E+10	1	-1E+10	1
4901784	190	C	09/16/2020	10:49	-133.105	43.442	0	96.00	0	9.3230	0	35.5420	8	27.492	0	95.212	0	174.7	8	62.9	8	-1E+10	1	-1E+10	1	-1E+10	1	-1E+10	1	-1E+10	1	-1E+10	1
4901784	190	C	09/16/2020	10:49	-133.105	43.442	0	97.60	0	9.2280	0	35.6400	8	27.584	0	96.799	0	174.2	8	62.7	8	-1E+10	1	-1E+10	1	-1E+10	1	-1E+10	1	-1E+10	1	-1E+10	1
4901784	190	C	09/16/2020	10:49	-133.105	43.442	0	99.30	0	9.0200	0	35.8590	8	27.790	0	98.484	0	173.7	8	62.3	8	-1E+10	1	-1E+10	1	-1E+10	1	-1E+10	1	-1E+10	1	-1E+10	1
4901784	190	C	09/16/2020	10:49	-133.105	43.442	0	102.80	0	9.0080	8	35.8870	8	27.814	0	101.955	0	173.3	8	62.1	8	-1E+10	1	-1E+10	1	-1E+10	1	-1E+10	1	-1E+10	1	-1E+10	1
4901784	190	C	09/16/2020	10:49	-133.105	43.442	0	104.50	0	9.1430	8	35.7340	8	27.672	0	103.640	0	173.2	8	62.2	8	-1E+10	1	-1E+10	1	-1E+10	1	-1E+10	1	-1E+10	1	-1E+10	1
4901784	190	C	09/16/2020	10:49	-133.105	43.442	0	107.30	0	9.1930	8	35.6550	8	27.602	0	106.417	0	172.9	8	62.2	8	-1E+10	1	-1E+10	1	-1E+10	1	-1E+10	1	-1E+10	1	-1E+10	1
4901784	190	C	09/16/2020	10:49	-133.105	43.442	0	110.00	0	9.1430	0	35.6840	8	27.633	0	109.094	0	172.6	8	62.0	8	-1E+10	1	-1E+10	1	-1E+10	1	-1E+10	1	-1E+10	1	-1E+10	1
4901784	190	C	09/16/2020	10:49	-133.105	43.442	0	111.70	0	9.0880	0	35.7320	8	27.680	0	110.779	0	172.4	8	61.9	8	-1E+10	1	-1E+10	1	-1E+10	1	-1E+10	1	-1E+10	1	-1E+10	1
4901784	190	C	09/16/2020	10:49	-133.105	43.442	0	114.60	0	8.9560	0	35.8630	8	27.804	0	113.655	0	171.7	8	61.5	8	-1E+10	1	-1E+10	1	-1E+10	1	-1E+10	1	-1E+10	1	-1E+10	1
4901784	190	C	09/16/2020	10:49	-133.105	43.442	0	117.30	0	8.8840	0	35.9440	8	27.879	0	116.331	0	171.0	8	61.2	8	-1E+10	1	-1E+10	1	-1E+10	1	-1E+10	1	-1E+10	1	-1E+10	1
4901784	190	C	09/16/2020	10:49	-133.105	43.442	0	119.60	0	8.8170	0	36.0100	8	27.942	0	118.612	0	170.0	8	60.8	8	-1E+10	1	-1E+10	1	-1E+10	1	-1E+10	1	-1E+10	1	-1E+10	1
4901784	190	C	09/16/2020	10:49	-133.105	43.442	0	122.80	0	8.7590	0	36.0490	8	27.982	0	121.784	0	168.4	8	60.1	8	-1E+10	1	-1E+10	1	-1E+10	1	-1E+10	1	-1E+10	1	-1E+10	1
4901784	190	C	09/16/2020	10:49	-133.105	43.442	0	125.30	0	8.7040	0	36.0960	8	28.027	0	124.263	0	166.8	8	59.5	8	-1E+10	1	-1E+10	1	-1E+10	1	-1E+10	1	-1E+10	1	-1E+10	1
4901784	190	C	09/16/2020	10:49	-133.105	43.442	0	127.80	0	8.6760	0	36.1180	8	28.049	0	126.742	0	165.3	8	59.0	8	-1E+10	1	-1E+10	1	-1E+10	1	-1E+10	1	-1E+10	1	-1E+10	1
4901784	190	C	09/16/2020	10:49	-133.105	43.442	0	130.20	0	8.6410	0	36.1280	8	28.063	0	129.121	0	163.6	8	58.3	8	-1E+10	1	-1E+10	1	-1E+10	1	-1E+10	1	-1E+10	1	-1E+10	1
4901784	190	C	09/16/2020	10:49	-133.105	43.442	0	132.70	0	8.6180	0	36.1130	8	28.055	0	131.599	0	161.9	8	57.7	8	-1E+10	1	-1E+10	1	-1E+10	1	-1E+10	1	-1E+10	1	-1E+10	1
4901784	190	C	09/16/2020	10:49	-133.105	43.442	0	135.20	0	8.5520	0	36.1140	8	28.066	0	134.078	0	159.8	8	56.8	8	-1E+10	1	-1E+10	1	-1E+10	1	-1E+10	1	-1E+10	1	-1E+10	1
4901784	190	C	09/16/2020	10:49	-133.105	43.442	0	137.80	0	8.4320	0	36.1230	8	28.092	0	136.655	0	157.6	8	55.9	8	-1E+10	1	-1E+10	1	-1E+10	1	-1E+10	1	-1E+10	1	-1E+10	1
4901784	190	C	09/16/2020	10:49	-133.105	43.442	0	140.30	0	8.2550	0	36.2090	8	28.187	0	139.134	0	155.3	8	54.9	8	-1E+10	1	-1E+10	1	-1E+10	1	-1E+10	1	-1E+10	1	-1E+10	1
4901784	190	C	09/16/2020	10:49	-133.105	43.442	0	142.80	0	8.1270	0	36.3010	8	28.279	0	141.612	0	153.0	8	54.0	8	-1E+10	1	-1E+10	1	-1E+10	1	-1E+10	1	-1E+10	1	-1E+10	1
4901784	190	C	09/16/2020	10:49	-133.105	43.442	0	145.20	0	8.0590	0	36.3780	8	28.350	0	143.991	0	151.2	8	53.3	8	-1E+10	1	-1E+10	1	-1E+10	1	-1E+10	1	-1E+10	1	-1E+10	1
4901784	190	C	09/16/2020	10:49	-133.105	43.442	0	147.70	0	8.0530	0	36.4730	8	28.426	0	146.470	0	149.6	8	52.8	8	-1E+10	1	-1E+10	1	-1E+10	1	-1E+10	1	-1E+10	1	-1E+10	1
4901784	190	C	09/16/2020	10:49	-133.105	43.442	0	150.40	0	8.1110	0	36.5250	8	28.458	0	149.146	0	148.2	8	52.4	8	-1E+10	1	-1E+10	1	-1E+10	1	-1E+10	1	-1E+10	1	-1E+10	1
4901784	190	C	09/16/2020	10:49	-133.105	43.442	0	152.20	0	8.2080	0	36.5180	8	28.437	0	150.931	0	147.6	8	52.3	8	-1E+10	1	-1E+10	1	-1E+10	1	-1E+10	1	-1E+10	1	-1E+10	1
4901784	190	C	09/16/2020	10:49	-133.105	43.442	0	155.00	0	8.2630	0	36.5050	8	28.419	0	153.706	0	146.8	8	52.0	8	-1E+10	1	-1E+10	1	-1E+10	1	-1E+10	1	-1E+10	1	-1E+10	1
4901784	190	C	09/16/2020	10:49	-133.105	43.442	0	157.70	0	8.2530	0	36.5340	8	28.443	0	156.383	0	146.1	8	51.8	8	-1E+10	1	-1E+10	1	-1E+10	1	-1E+10	1	-1E+10	1	-1E+10	1
4901784	190	C	09/16/2020	10:49	-133.105	43.442	0	159.60	0	8.2160	0	36.5730	8	28.479	0	158.266	0	145.7	8	51.6	8	-1E+10	1	-1E+10	1	-1E+10	1	-1E+10	1	-1E+10	1	-1E+10	1
4901784	190	C	09/16/2020	10:49	-133.105	43.442	0	162.50	0	8.2090	0	36.5990	8	28.501	0	161.141	0	145.0	8	51.4	8	-1E+10	1	-1E+10	1	-1E+10	1	-1E+10	1	-1E+10	1	-1E+10	1
4901784	190	C	09/16/2020	10:49	-133.105	43.442	0	165.70	0	8.2150	0	36.6170	8	28.514	0	164.313	0	144.0	8	51.0	8	-1E+10	1	-1E+10	1	-1E+10	1	-1E+10	1	-1E+10	1	-1E+10	1
4901784	190	C	09/16/2020	10:49	-133.105	43.442	0	167.60	0	8.2160	0	36.6300	8	28.524	0	166.196	0	143.2	8	50.8	8	-1E+10	1	-1E+10	1	-1E+10	1	-1E+10	1	-1E+10	1	-1E+10	1
4901784	190	C	09/16/2020	10:49	-133.105	43.442	0	170.00	0	8.2460	0	36.6510	8	28.536	0	168.575	0	142.4	8	50.5	8	-1E+10	1	-1E+10	1	-1E+10	1	-1E+10	1	-1E+10	1	-1E+10	1
4901784	190	C	09/16/2020	10:49	-133.105	43.442	0	172.40	0	8.2190	0	36.6410	8	28.533	0	170.954	0	142.1	8	50.4	8	-1E+10	1	-1E+10	1	-1E+10	1	-1E+10	1	-1E+10	1	-1E+10	1
4901784	190	C	09/16/2020	10:49	-133.105	43.442	0	174.80	0	8.1190	0	36.6970	8	28.592	0	173.333	0	140.9	8	49.9	8	-1E+10	1	-1E+10	1	-1E+10	1	-1E+10	1	-1E+10	1	-1E+10	1
4901784	190	C	09/16/2020	10:49	-133.105	43.442	0	177.80	0	8.1530	0	36.7360	8	28.618	0	176.306	0	138.3	8	49.0	8	-1E+10	1	-1E+10	1	-1E+10	1	-1E+10	1	-1E+10	1	-1E+10	1
4901784	190	C	09/16/2020	10:49	-133.105	43.442	0	180.20	0	8.1540	0	36.7520	8	28.630	0	178.685	0	137.2	8	48.6	8	-1E+10	1	-1E+10	1	-1E+10	1	-1E+10	1	-1E+10	1	-1E+10	1
4901784	190	C	09/16/2020	10:49	-133.105	43.442	0	182.70	0	8.1100	0	36.7740	8	28.654	0	181.163	0	137.1	8	48.5	8	-1E+10	1	-1E+10	1	-1E+10	1	-1E+10	1	-1E+10	1	-1E+10	1
4901784	190	C	09/16/2020	10:49	-133.105	43.442	0	185.30	0	8.0820	0	36.7900	8	28.671	0	183.740	0	137.2	8	48.6	8	-1E+10	1	-1E+10	1	-1E+10	1	-1E+10	1	-1E+10	1	-1E+10	1
4901784	190	C	09/16/2020	10:49	-133.105	43.442	0	187.70	0	8.0710	0	36.7910	8	28.674	0	186.119	0	137.3	8	48.5	8	-1E+10	1	-1E+10	1	-1E+10	1	-1E+10	1	-1E+10	1	-1E+10	1
4901784	190	C	09/16/2020	10:49	-133.105	43.442	0	190.20	0	8.0710	0	36.7950	8	28.677	0	188.596	0	137.1	8	48.5	8	-1E+10	1	-1E+10	1	-1E+10	1	-1E+10	1	-1E+10	1	-1E+10	1
4901784	190	C	09/16/2020	10:49	-133.105	43.442	0	192.80	0	8.0230	0	36.8000	8	28.688	0	191.173	0	137.8	8	48.7	8	-1E+10	1	-1E+10	1	-1E+10	1	-1E+10	1	-1E+10	1	-1E+10	1
4901784	190	C	09/16/2020	10:49	-133.105	43.442	0	195.30	0	7.9890	0	36.8110	8	28.702	0	193.651	0	136.8	8	48.3	8	-1E+10	1	-1E+10	1	-1E+10	1	-1E+10	1	-1E+10	1	-1E+10	1
4901784	190	C	09/16/2020	10:49	-133.105	43.442	0	197.90	0	7.9890	0	36.8220	8	28.711	0	196.228	0	134.8	8	47.6	8	-1E+10	1	-1E+10	1	-1E+10	1	-1E+10	1	-1E+10	1	-1E+10	1
4901784	190	C	09/16/2020	10:49	-133.105	43.442	0	200.40	0	7.9640	0	36.8410	8	28.730	0	198.705	0	132.9	8	46.9	8	-1E+10	1	-1E+10	1	-1E+10	1	-1E+10	1	-1E+10	1	-1E+10	1
4901784	190	C	09/16/2020	10:49	-133.105	43.442	0	202.10	0	7.9670	0	36.8490	8	28.736	0	200.390	0	131.7	8	46.5	8	-1E+10	1	-1E+10	1	-1E+10	1	-1E+10	1	-1E+10	1	-1E+10	1
4901784	190	C	09/16/2020	10:49	-133.105	43.442	0	204.60	0	7.9520	0	36.8580	8	28.745	0	202.868	0	131.2	8	46.3	8	-1E+10	1	-1E+10	1	-1E+10	1	-1E+10	1	-1E+10	1	-1E+10	1
4901784	190	C	09/16/2020	10:49	-133.105	43.442	0	207.20	0	7.9450	0	36.8610	8	28.749	0	205.445	0	130.3	8	46.0	8	-1E+10	1	-1E+10	1	-1E+10	1	-1E+10	1	-1E+10	1	-1E+10	1
4901784	190	C	09/16/2020	10:49	-133.105	43.442	0	209.80	0	7.9130	0	36.8690	8	28.760	0	208.021	0	129.2	8	45.6	8	-1E+10	1	-1E+10	1	-1E+10	1	-1E+10	1	-1E+10	1	-1E+10	1
4901784	190	C	09/16/2020	10:49	-133.105	43.442	0	212.40	0	7.8880	0	36.8750	8	28.768	0	210.598	0	128.1	8	45.2	8	-1E+10	1	-1E+10	1	-1E+10	1	-1E+10	1	-1E+10	1	-1E+10	1
4901784	190	C	09/16/2020	10:49	-133.105	43.442	0	215.00	0	7.8600	0	36.8840	8	28.780	0	213.174	0	126.9	8	44.7	8	-1E+10	1	-1E+10	1	-1E+10	1	-1E+10	1	-1E+10	1	-1E+10	1
4901784	190	C	09/16/2020	10:49	-133.105	43.442	0	217.60	0	7.8500	0	36.8970	8	28.792	0	215.751	0	125.8	8	44.3	8	-1E+10	1	-1E+10	1	-1E+10	1	-1E+10	1	-1E+10	1	-1E+10	1
4901784	190	C	09/16/2020	10:49	-133.105	43.442	0	220.10	0	7.7830	0	36.8990	8	28.803	0	218.228	0	126.4	8	44.4	8	-1E+10	1	-1E+10	1	-1E+10	1	-1E+10	1	-1E+10	1	-1E+10	1
4901784	190	C	09/16/2020	10:49	-133.105	43.442	0	222.70	0	7.7300	0	36.9010	8	28.813	0	220.805	0	125.8	8	44.2	8	-1E+10	1	-1E+10	1	-1E+10	1	-1E+10	1	-1E+10	1	-1E+10	1
4901784	190	C	09/16/2020	10:49	-133.105	43.442	0	225.30	0	7.6900	0	36.9050	8	28.822	0	223.381	0	125.0	8	43.9	8	-1E+10	1	-1E+10	1	-1E+10	1	-1E+10	1	-1E+10	1	-1E+10	1
4901784	190	C	09/16/2020	10:49	-133.105	43.442	0	227.90	0	7.6050	0	36.9180	8	28.845	0	225.958	0	124.6	8	43.7	8	-1E+10	1	-1E+10	1	-1E+10	1	-1E+10	1	-1E+10	1	-1E+10	1
4901784	190	C	09/16/2020	10:49	-133.105	43.442	0	229.70	0	7.5720	0	36.9180	8	28.850	0	227.742	0	124.3	8	43.5	8	-1E+10	1	-1E+10	1	-1E+10	1	-1E+10	1	-1E+10	1	-1E+10	1
4901784	190	C	09/16/2020	10:49	-133.105	43.442	0	232.30	0	7.5440	0	36.9200	8	28.856	0	230.318	0	124.1	8	43.4	8	-1E+10	1	-1E+10	1	-1E+10	1	-1E+10	1	-1E+10	1	-1E+10	1
4901784	190	C	09/16/2020	10:49	-133.105	43.442	0	235.00	0	7.5260	0	36.9210	8	28.860	0	232.993	0	123.6	8	43.2	8	-1E+10	1	-1E+10	1	-1E+10	1	-1E+10	1	-1E+10	1	-1E+10	1
4901784	190	C	09/16/2020	10:49	-133.105	43.442	0	237.60	0	7.4980	0	36.9240	8	28.866	0	235.570	0	123.1	8	43.0	8	-1E+10	1	-1E+10	1	-1E+10	1	-1E+10	1	-1E+10	1	-1E+10	1
4901784	190	C	09/16/2020	10:49	-133.105	43.442	0	240.30	0	7.4710	0	36.9260	8	28.872	0	238.245	0	122.5	8	42.8	8	-1E+10	1	-1E+10	1	-1E+10	1	-1E+10	1	-1E+10	1	-1E+10	1
4901784	190	C	09/16/2020	10:49	-133.105	43.442	0	242.90	0	7.4520	0	36.9260	8	28.875	0	240.821	0	121.7	8	42.5	8	-1E+10	1	-1E+10	1	-1E+10	1	-1E+10	1	-1E+10	1	-1E+10	1
4901784	190	C	09/16/2020	10:49	-133.105	43.442	0	245.40	0	7.4100	0	36.9280	8	28.883	0	243.298	0	121.0	8	42.2	8	-1E+10	1	-1E+10	1	-1E+10	1	-1E+10	1	-1E+10	1	-1E+10	1
4901784	190	C	09/16/2020	10:49	-133.105	43.442	0	247.20	0	7.3990	0	36.9290	8	28.885	0	245.082	0	120.6	8	42.1	8	-1E+10	1	-1E+10	1	-1E+10	1	-1E+10	1	-1E+10	1	-1E+10	1
4901784	190	C	09/16/2020	10:49	-133.105	43.442	0	249.90	0	7.3660	0	36.9310	8	28.892	0	247.757	0	119.7	8	41.7	8	-1E+10	1	-1E+10	1	-1E+10	1	-1E+10	1	-1E+10	1	-1E+10	1
4901784	190	C	09/16/2020	10:49	-133.105	43.442	0	252.60	0	7.3390	0	36.9320	8	28.896	0	250.432	0	118.9	8	41.4	8	-1E+10	1	-1E+10	1	-1E+10	1	-1E+10	1	-1E+10	1	-1E+10	1
4901784	190	C	09/16/2020	10:49	-133.105	43.442	0	255.30	0	7.3160	0	36.9330	8	28.901	0	253.108	0	117.9	8	41.1	8	-1E+10	1	-1E+10	1	-1E+10	1	-1E+10	1	-1E+10	1	-1E+10	1
4901784	190	C	09/16/2020	10:49	-133.105	43.442	0	258.00	0	7.2870	0	36.9340	8	28.906	0	255.783	0	116.9	8	40.7	8	-1E+10	1	-1E+10	1	-1E+10	1	-1E+10	1	-1E+10	1	-1E+10	1
4901784	190	C	09/16/2020	10:49	-133.105	43.442	0	259.90	0	7.2860	0	36.9330	8	28.905	0	257.665	0	116.1	8	40.4	8	-1E+10	1	-1E+10	1	-1E+10	1	-1E+10	1	-1E+10	1	-1E+10	1
4901784	190	C	09/16/2020	10:49	-133.105	43.442	0	262.60	0	7.2610	0	36.9360	8	28.911	0	260.340	0	114.7	8	39.9	8	-1E+10	1	-1E+10	1	-1E+10	1	-1E+10	1	-1E+10	1	-1E+10	1
4901784	190	C	09/16/2020	10:49	-133.105	43.442	0	265.30	0	7.2180	0	36.9350	8	28.917	0	263.015	0	113.4	8	39.4	8	-1E+10	1	-1E+10	1	-1E+10	1	-1E+10	1	-1E+10	1	-1E+10	1
4901784	190	C	09/16/2020	10:49	-133.105	43.442	0	267.10	0	7.1670	0	36.9370	8	28.926	0	264.799	0	112.5	8	39.0	8	-1E+10	1	-1E+10	1	-1E+10	1	-1E+10	1	-1E+10	1	-1E+10	1
4901784	190	C	09/16/2020	10:49	-133.105	43.442	0	269.90	0	7.1240	0	36.9380	8	28.933	0	267.573	0	111.0	8	38.5	8	-1E+10	1	-1E+10	1	-1E+10	1	-1E+10	1	-1E+10	1	-1E+10	1
4901784	190	C	09/16/2020	10:49	-133.105	43.442	0	272.60	0	7.0770	0	36.9370	8	28.939	0	270.248	0	110.0	8	38.1	8	-1E+10	1	-1E+10	1	-1E+10	1	-1E+10	1	-1E+10	1	-1E+10	1
4901784	190	C	09/16/2020	10:49	-133.105	43.442	0	274.50	0	7.0490	0	36.9350	8	28.941	0	272.130	0	109.6	8	37.9	8	-1E+10	1	-1E+10	1	-1E+10	1	-1E+10	1	-1E+10	1	-1E+10	1
4901784	190	C	09/16/2020	10:49	-133.105	43.442	0	277.40	0	6.9760	0	36.9390	8	28.955	0	275.003	0	109.2	8	37.7	8	-1E+10	1	-1E+10	1	-1E+10	1	-1E+10	1	-1E+10	1	-1E+10	1
4901784	190	C	09/16/2020	10:49	-133.105	43.442	0	280.10	0	6.9320	0	36.9400	8	28.962	0	277.678	0	108.6	8	37.5	8	-1E+10	1	-1E+10	1	-1E+10	1	-1E+10	1	-1E+10	1	-1E+10	1
4901784	190	C	09/16/2020	10:49	-133.105	43.442	0	282.00	0	6.9090	0	36.9410	8	28.966	0	279.560	0	108.3	8	37.4	8	-1E+10	1	-1E+10	1	-1E+10	1	-1E+10	1	-1E+10	1	-1E+10	1
4901784	190	C	09/16/2020	10:49	-133.105	43.442	0	284.90	0	6.8900	0	36.9390	8	28.967	0	282.433	0	107.4	8	37.0	8	-1E+10	1	-1E+10	1	-1E+10	1	-1E+10	1	-1E+10	1	-1E+10	1
4901784	190	C	09/16/2020	10:49	-133.105	43.442	0	287.60	0	6.8500	0	36.9400	8	28.974	0	285.108	0	106.3	8	36.6	8	-1E+10	1	-1E+10	1	-1E+10	1	-1E+10	1	-1E+10	1	-1E+10	1
4901784	190	C	09/16/2020	10:49	-133.105	43.442	0	289.40	0	6.8280	0	36.9390	8	28.976	0	286.891	0	105.5	8	36.3	8	-1E+10	1	-1E+10	1	-1E+10	1	-1E+10	1	-1E+10	1	-1E+10	1
4901784	190	C	09/16/2020	10:49	-133.105	43.442	0	292.20	0	6.7650	0	36.9410	8	28.987	0	289.665	0	103.7	8	35.6	8	-1E+10	1	-1E+10	1	-1E+10	1	-1E+10	1	-1E+10	1	-1E+10	1
4901784	190	C	09/16/2020	10:49	-133.105	43.442	0	295.00	0	6.6860	0	36.9440	8	29.000	0	292.439	0	102.2	8	35.1	8	-1E+10	1	-1E+10	1	-1E+10	1	-1E+10	1	-1E+10	1	-1E+10	1
4901784	190	C	09/16/2020	10:49	-133.105	43.442	0	296.90	0	6.6720	0	36.9440	8	29.002	0	294.321	0	101.6	8	34.9	8	-1E+10	1	-1E+10	1	-1E+10	1	-1E+10	1	-1E+10	1	-1E+10	1
4901784	190	C	09/16/2020	10:49	-133.105	43.442	0	299.70	0	6.6480	0	36.9450	8	29.006	0	297.094	0	100.4	8	34.4	8	-1E+10	1	-1E+10	1	-1E+10	1	-1E+10	1	-1E+10	1	-1E+10	1
4901784	190	C	09/16/2020	10:49	-133.105	43.442	0	302.50	0	6.5940	0	36.9490	8	29.017	0	299.868	0	99.5	4	34.1	4	-1E+10	1	-1E+10	1	-1E+10	1	-1E+10	1	-1E+10	1	-1E+10	1
4901784	190	C	09/16/2020	10:49	-133.105	43.442	0	305.30	0	6.5690	0	36.9500	8	29.021	0	302.642	0	98.8	4	33.8	4	-1E+10	1	-1E+10	1	-1E+10	1	-1E+10	1	-1E+10	1	-1E+10	1
4901784	190	C	09/16/2020	10:49	-133.105	43.442	0	308.10	0	6.5590	0	36.9510	8	29.024	0	305.415	0	98.1	4	33.6	4	-1E+10	1	-1E+10	1	-1E+10	1	-1E+10	1	-1E+10	1	-1E+10	1
4901784	190	C	09/16/2020	10:49	-133.105	43.442	0	310.10	0	6.5460	0	36.9520	8	29.026	0	307.396	0	97.6	4	33.4	4	-1E+10	1	-1E+10	1	-1E+10	1	-1E+10	1	-1E+10	1	-1E+10	1
4901784	190	C	09/16/2020	10:49	-133.105	43.442	0	312.00	0	6.5050	0	36.9530	8	29.033	0	309.278	0	97.1	4	33.2	4	-1E+10	1	-1E+10	1	-1E+10	1	-1E+10	1	-1E+10	1	-1E+10	1
4901784	190	C	09/16/2020	10:49	-133.105	43.442	0	314.80	0	6.4840	0	36.9540	8	29.036	0	312.052	0	96.2	4	32.9	4	-1E+10	1	-1E+10	1	-1E+10	1	-1E+10	1	-1E+10	1	-1E+10	1
4901784	190	C	09/16/2020	10:49	-133.105	43.442	0	317.70	0	6.4420	0	36.9560	8	29.044	0	314.924	0	95.4	4	32.6	4	-1E+10	1	-1E+10	1	-1E+10	1	-1E+10	1	-1E+10	1	-1E+10	1
4901784	190	C	09/16/2020	10:49	-133.105	43.442	0	319.60	0	6.4220	0	36.9560	8	29.047	0	316.806	0	94.8	4	32.3	4	-1E+10	1	-1E+10	1	-1E+10	1	-1E+10	1	-1E+10	1	-1E+10	1
4901784	190	C	09/16/2020	10:49	-133.105	43.442	0	322.50	0	6.4100	0	36.9580	8	29.050	0	319.679	0	94.0	4	32.1	4	-1E+10	1	-1E+10	1	-1E+10	1	-1E+10	1	-1E+10	1	-1E+10	1
4901784	190	C	09/16/2020	10:49	-133.105	43.442	0	325.90	0	6.3660	0	36.9570	8	29.055	0	323.046	0	93.0	4	31.7	4	-1E+10	1	-1E+10	1	-1E+10	1	-1E+10	1	-1E+10	1	-1E+10	1
4901784	190	C	09/16/2020	10:49	-133.105	43.442	0	327.80	0	6.3520	0	36.9590	8	29.059	0	324.928	0	92.0	4	31.3	4	-1E+10	1	-1E+10	1	-1E+10	1	-1E+10	1	-1E+10	1	-1E+10	1
4901784	190	C	09/16/2020	10:49	-133.105	43.442	0	330.20	0	6.3280	0	36.9610	8	29.064	0	327.305	0	91.0	4	31.0	4	-1E+10	1	-1E+10	1	-1E+10	1	-1E+10	1	-1E+10	1	-1E+10	1
4901784	190	C	09/16/2020	10:49	-133.105	43.442	0	332.60	0	6.2800	0	36.9640	8	29.072	0	329.682	0	90.3	4	30.7	4	-1E+10	1	-1E+10	1	-1E+10	1	-1E+10	1	-1E+10	1	-1E+10	1
4901784	190	C	09/16/2020	10:49	-133.105	43.442	0	335.00	0	6.2660	0	36.9630	8	29.074	0	332.059	0	89.9	4	30.6	4	-1E+10	1	-1E+10	1	-1E+10	1	-1E+10	1	-1E+10	1	-1E+10	1
4901784	190	C	09/16/2020	10:49	-133.105	43.442	0	337.50	0	6.2420	0	36.9620	8	29.076	0	334.535	0	89.4	4	30.4	4	-1E+10	1	-1E+10	1	-1E+10	1	-1E+10	1	-1E+10	1	-1E+10	1
4901784	190	C	09/16/2020	10:49	-133.105	43.442	0	339.80	0	6.1990	0	36.9610	8	29.081	0	336.813	0	88.6	4	30.1	4	-1E+10	1	-1E+10	1	-1E+10	1	-1E+10	1	-1E+10	1	-1E+10	1
4901784	190	C	09/16/2020	10:49	-133.105	43.442	0	342.20	0	6.1580	0	36.9610	8	29.087	0	339.190	0	87.5	4	29.7	4	-1E+10	1	-1E+10	1	-1E+10	1	-1E+10	1	-1E+10	1	-1E+10	1
4901784	190	C	09/16/2020	10:49	-133.105	43.442	0	344.70	0	6.1130	0	36.9640	8	29.095	0	341.666	0	86.0	4	29.1	4	-1E+10	1	-1E+10	1	-1E+10	1	-1E+10	1	-1E+10	1	-1E+10	1
4901784	190	C	09/16/2020	10:49	-133.105	43.442	0	347.20	0	6.0840	0	36.9670	8	29.101	0	344.142	0	84.8	4	28.7	4	-1E+10	1	-1E+10	1	-1E+10	1	-1E+10	1	-1E+10	1	-1E+10	1
4901784	190	C	09/16/2020	10:49	-133.105	43.442	0	349.60	0	6.0720	0	36.9710	8	29.106	0	346.519	0	83.7	4	28.3	4	-1E+10	1	-1E+10	1	-1E+10	1	-1E+10	1	-1E+10	1	-1E+10	1
4901784	190	C	09/16/2020	10:49	-133.105	43.442	0	352.90	0	6.0590	0	36.9700	8	29.107	0	349.787	0	83.1	4	28.1	4	-1E+10	1	-1E+10	1	-1E+10	1	-1E+10	1	-1E+10	1	-1E+10	1
4901784	190	C	09/16/2020	10:49	-133.105	43.442	0	355.40	0	6.0040	0	36.9700	8	29.115	0	352.263	0	82.9	4	28.0	4	-1E+10	1	-1E+10	1	-1E+10	1	-1E+10	1	-1E+10	1	-1E+10	1
4901784	190	C	09/16/2020	10:49	-133.105	43.442	0	357.90	0	5.9770	0	36.9700	8	29.118	0	354.739	0	82.5	4	27.9	4	-1E+10	1	-1E+10	1	-1E+10	1	-1E+10	1	-1E+10	1	-1E+10	1
4901784	190	C	09/16/2020	10:49	-133.105	43.442	0	360.30	0	5.9250	0	36.9700	8	29.125	0	357.115	0	81.9	4	27.6	4	-1E+10	1	-1E+10	1	-1E+10	1	-1E+10	1	-1E+10	1	-1E+10	1
4901784	190	C	09/16/2020	10:49	-133.105	43.442	0	362.80	0	5.9160	0	36.9700	8	29.126	0	359.591	0	81.0	4	27.3	4	-1E+10	1	-1E+10	1	-1E+10	1	-1E+10	1	-1E+10	1	-1E+10	1
4901784	190	C	09/16/2020	10:49	-133.105	43.442	0	365.30	0	5.9100	0	36.9680	8	29.125	0	362.067	0	79.8	4	26.9	4	-1E+10	1	-1E+10	1	-1E+10	1	-1E+10	1	-1E+10	1	-1E+10	1
4901784	190	C	09/16/2020	10:49	-133.105	43.442	0	367.90	0	5.8600	0	36.9720	8	29.135	0	364.642	0	78.6	4	26.5	4	-1E+10	1	-1E+10	1	-1E+10	1	-1E+10	1	-1E+10	1	-1E+10	1
4901784	190	C	09/16/2020	10:49	-133.105	43.442	0	370.30	0	5.8150	0	36.9740	8	29.143	0	367.018	0	77.8	4	26.2	4	-1E+10	1	-1E+10	1	-1E+10	1	-1E+10	1	-1E+10	1	-1E+10	1
4901784	190	C	09/16/2020	10:49	-133.105	43.442	0	372.90	0	5.7740	0	36.9750	8	29.149	0	369.593	0	77.0	4	25.9	4	-1E+10	1	-1E+10	1	-1E+10	1	-1E+10	1	-1E+10	1	-1E+10	1
4901784	190	C	09/16/2020	10:49	-133.105	43.442	0	375.40	0	5.7320	0	36.9770	8	29.156	0	372.068	0	76.1	4	25.6	4	-1E+10	1	-1E+10	1	-1E+10	1	-1E+10	1	-1E+10	1	-1E+10	1
4901784	190	C	09/16/2020	10:49	-133.105	43.442	0	377.10	0	5.7200	0	36.9780	8	29.158	0	373.752	0	75.5	4	25.3	4	-1E+10	1	-1E+10	1	-1E+10	1	-1E+10	1	-1E+10	1	-1E+10	1
4901784	190	C	09/16/2020	10:49	-133.105	43.442	0	379.60	0	5.6950	0	36.9810	8	29.164	0	376.227	0	74.6	4	25.0	4	-1E+10	1	-1E+10	1	-1E+10	1	-1E+10	1	-1E+10	1	-1E+10	1
4901784	190	C	09/16/2020	10:49	-133.105	43.442	0	382.20	0	5.6420	0	36.9810	8	29.171	0	378.802	0	73.8	4	24.7	4	-1E+10	1	-1E+10	1	-1E+10	1	-1E+10	1	-1E+10	1	-1E+10	1
4901784	190	C	09/16/2020	10:49	-133.105	43.442	0	384.80	0	5.6340	0	36.9830	8	29.173	0	381.376	0	72.3	4	24.2	4	-1E+10	1	-1E+10	1	-1E+10	1	-1E+10	1	-1E+10	1	-1E+10	1
4901784	190	C	09/16/2020	10:49	-133.105	43.442	0	387.30	0	5.6120	0	36.9850	8	29.178	0	383.852	0	70.9	4	23.7	4	-1E+10	1	-1E+10	1	-1E+10	1	-1E+10	1	-1E+10	1	-1E+10	1
4901784	190	C	09/16/2020	10:49	-133.105	43.442	0	390.00	0	5.5840	0	36.9900	8	29.185	0	386.525	0	68.8	4	23.0	4	-1E+10	1	-1E+10	1	-1E+10	1	-1E+10	1	-1E+10	1	-1E+10	1
4901784	190	C	09/16/2020	10:49	-133.105	43.442	0	392.60	0	5.6090	0	36.9970	8	29.188	0	389.100	0	66.5	4	22.3	4	-1E+10	1	-1E+10	1	-1E+10	1	-1E+10	1	-1E+10	1	-1E+10	1
4901784	190	C	09/16/2020	10:49	-133.105	43.442	0	395.20	0	5.5890	0	37.0030	8	29.195	0	391.674	0	65.7	4	22.0	4	-1E+10	1	-1E+10	1	-1E+10	1	-1E+10	1	-1E+10	1	-1E+10	1
4901784	190	C	09/16/2020	10:49	-133.105	43.442	0	397.80	0	5.5840	0	37.0050	8	29.197	0	394.248	0	65.2	4	21.8	4	-1E+10	1	-1E+10	1	-1E+10	1	-1E+10	1	-1E+10	1	-1E+10	1
4901784	190	C	09/16/2020	10:49	-133.105	43.442	0	399.50	0	5.5690	0	37.0060	8	29.200	0	395.932	0	64.9	4	21.7	4	-1E+10	1	-1E+10	1	-1E+10	1	-1E+10	1	-1E+10	1	-1E+10	1
4901784	190	C	09/16/2020	10:49	-133.105	43.442	0	402.20	0	5.5540	0	37.0060	8	29.202	0	398.605	0	64.5	4	21.6	4	-1E+10	1	-1E+10	1	-1E+10	1	-1E+10	1	-1E+10	1	-1E+10	1
4901784	190	C	09/16/2020	10:49	-133.105	43.442	0	404.90	0	5.5320	0	37.0070	8	29.206	0	401.278	0	64.0	4	21.4	4	-1E+10	1	-1E+10	1	-1E+10	1	-1E+10	1	-1E+10	1	-1E+10	1
4901784	190	C	09/16/2020	10:49	-133.105	43.442	0	407.60	0	5.5400	0	37.0090	8	29.206	0	403.951	0	63.5	4	21.2	4	-1E+10	1	-1E+10	1	-1E+10	1	-1E+10	1	-1E+10	1	-1E+10	1
4901784	190	C	09/16/2020	10:49	-133.105	43.442	0	410.20	0	5.5320	0	37.0080	8	29.207	0	406.525	0	63.2	4	21.1	4	-1E+10	1	-1E+10	1	-1E+10	1	-1E+10	1	-1E+10	1	-1E+10	1
4901784	190	C	09/16/2020	10:49	-133.105	43.442	0	412.00	0	5.5180	0	37.0090	8	29.209	0	408.308	0	63.0	4	21.1	4	-1E+10	1	-1E+10	1	-1E+10	1	-1E+10	1	-1E+10	1	-1E+10	1
4901784	190	C	09/16/2020	10:49	-133.105	43.442	0	414.70	0	5.4590	0	37.0080	8	29.216	0	410.981	0	62.8	4	21.0	4	-1E+10	1	-1E+10	1	-1E+10	1	-1E+10	1	-1E+10	1	-1E+10	1
4901784	190	C	09/16/2020	10:49	-133.105	43.442	0	417.50	0	5.4190	0	37.0080	8	29.221	0	413.753	0	62.7	4	20.9	4	-1E+10	1	-1E+10	1	-1E+10	1	-1E+10	1	-1E+10	1	-1E+10	1
4901784	190	C	09/16/2020	10:49	-133.105	43.442	0	420.20	0	5.3660	0	37.0090	8	29.228	0	416.426	0	62.5	4	20.8	4	-1E+10	1	-1E+10	1	-1E+10	1	-1E+10	1	-1E+10	1	-1E+10	1
4901784	190	C	09/16/2020	10:49	-133.105	43.442	0	422.90	0	5.3440	0	37.0090	8	29.231	0	419.099	0	62.0	4	20.7	4	-1E+10	1	-1E+10	1	-1E+10	1	-1E+10	1	-1E+10	1	-1E+10	1
4901784	190	C	09/16/2020	10:49	-133.105	43.442	0	424.70	0	5.3230	0	37.0110	8	29.235	0	420.881	0	61.7	4	20.5	4	-1E+10	1	-1E+10	1	-1E+10	1	-1E+10	1	-1E+10	1	-1E+10	1
4901784	190	C	09/16/2020	10:49	-133.105	43.442	0	427.40	0	5.3180	0	37.0120	8	29.237	0	423.554	0	61.0	4	20.3	4	-1E+10	1	-1E+10	1	-1E+10	1	-1E+10	1	-1E+10	1	-1E+10	1
4901784	190	C	09/16/2020	10:49	-133.105	43.442	0	430.10	0	5.3110	0	37.0140	8	29.239	0	426.227	0	60.6	4	20.2	4	-1E+10	1	-1E+10	1	-1E+10	1	-1E+10	1	-1E+10	1	-1E+10	1
4901784	190	C	09/16/2020	10:49	-133.105	43.442	0	432.00	0	5.2850	0	37.0130	8	29.242	0	428.108	0	60.6	4	20.1	4	-1E+10	1	-1E+10	1	-1E+10	1	-1E+10	1	-1E+10	1	-1E+10	1
4901784	190	C	09/16/2020	10:49	-133.105	43.442	0	434.80	0	5.2530	0	37.0130	8	29.246	0	430.880	0	60.5	4	20.1	4	-1E+10	1	-1E+10	1	-1E+10	1	-1E+10	1	-1E+10	1	-1E+10	1
4901784	190	C	09/16/2020	10:49	-133.105	43.442	0	437.60	0	5.1950	0	37.0120	8	29.252	0	433.651	0	60.5	4	20.1	4	-1E+10	1	-1E+10	1	-1E+10	1	-1E+10	1	-1E+10	1	-1E+10	1
4901784	190	C	09/16/2020	10:49	-133.105	43.442	0	440.30	0	5.1490	0	37.0130	8	29.259	0	436.324	0	59.6	4	19.8	4	-1E+10	1	-1E+10	1	-1E+10	1	-1E+10	1	-1E+10	1	-1E+10	1
4901784	190	C	09/16/2020	10:49	-133.105	43.442	0	443.00	0	5.1480	0	37.0220	8	29.266	0	438.997	0	58.2	4	19.3	4	-1E+10	1	-1E+10	1	-1E+10	1	-1E+10	1	-1E+10	1	-1E+10	1
4901784	190	C	09/16/2020	10:49	-133.105	43.442	0	444.90	0	5.1710	0	37.0240	8	29.265	0	440.878	0	57.6	4	19.1	4	-1E+10	1	-1E+10	1	-1E+10	1	-1E+10	1	-1E+10	1	-1E+10	1
4901784	190	C	09/16/2020	10:49	-133.105	43.442	0	447.60	0	5.1650	0	37.0240	8	29.266	0	443.550	0	57.1	4	18.9	4	-1E+10	1	-1E+10	1	-1E+10	1	-1E+10	1	-1E+10	1	-1E+10	1
4901784	190	C	09/16/2020	10:49	-133.105	43.442	0	450.40	0	5.1410	0	37.0240	8	29.269	0	446.322	0	56.6	4	18.8	4	-1E+10	1	-1E+10	1	-1E+10	1	-1E+10	1	-1E+10	1	-1E+10	1
4901784	190	C	09/16/2020	10:49	-133.105	43.442	0	452.30	0	5.1120	0	37.0270	8	29.275	0	448.203	0	56.3	4	18.6	4	-1E+10	1	-1E+10	1	-1E+10	1	-1E+10	1	-1E+10	1	-1E+10	1
4901784	190	C	09/16/2020	10:49	-133.105	43.442	0	455.20	0	5.1100	0	37.0290	8	29.276	0	451.073	0	55.6	4	18.4	4	-1E+10	1	-1E+10	1	-1E+10	1	-1E+10	1	-1E+10	1	-1E+10	1
4901784	190	C	09/16/2020	10:49	-133.105	43.442	0	458.00	0	5.0890	0	37.0300	8	29.280	0	453.845	0	55.2	4	18.3	4	-1E+10	1	-1E+10	1	-1E+10	1	-1E+10	1	-1E+10	1	-1E+10	1
4901784	190	C	09/16/2020	10:49	-133.105	43.442	0	459.80	0	5.0780	0	37.0320	8	29.283	0	455.627	0	54.8	4	18.1	4	-1E+10	1	-1E+10	1	-1E+10	1	-1E+10	1	-1E+10	1	-1E+10	1
4901784	190	C	09/16/2020	10:49	-133.105	43.442	0	462.60	0	5.0620	0	37.0330	8	29.286	0	458.398	0	54.3	4	18.0	4	-1E+10	1	-1E+10	1	-1E+10	1	-1E+10	1	-1E+10	1	-1E+10	1
4901784	190	C	09/16/2020	10:49	-133.105	43.442	0	465.50	0	5.0420	0	37.0330	8	29.288	0	461.269	0	53.8	4	17.8	4	-1E+10	1	-1E+10	1	-1E+10	1	-1E+10	1	-1E+10	1	-1E+10	1
4901784	190	C	09/16/2020	10:49	-133.105	43.442	0	467.40	0	5.0070	0	37.0350	8	29.294	0	463.149	0	53.4	4	17.7	4	-1E+10	1	-1E+10	1	-1E+10	1	-1E+10	1	-1E+10	1	-1E+10	1
4901784	190	C	09/16/2020	10:49	-133.105	43.442	0	470.20	0	4.9980	0	37.0390	8	29.298	0	465.921	0	53.0	4	17.5	4	-1E+10	1	-1E+10	1	-1E+10	1	-1E+10	1	-1E+10	1	-1E+10	1
4901784	190	C	09/16/2020	10:49	-133.105	43.442	0	473.00	0	4.9480	0	37.0410	8	29.306	0	468.692	0	53.0	4	17.5	4	-1E+10	1	-1E+10	1	-1E+10	1	-1E+10	1	-1E+10	1	-1E+10	1
4901784	190	C	09/16/2020	10:49	-133.105	43.442	0	474.90	0	4.9390	0	37.0410	8	29.307	0	470.573	0	52.8	4	17.4	4	-1E+10	1	-1E+10	1	-1E+10	1	-1E+10	1	-1E+10	1	-1E+10	1
4901784	190	C	09/16/2020	10:49	-133.105	43.442	0	477.60	0	4.9390	0	37.0400	8	29.306	0	473.245	0	52.2	4	17.2	4	-1E+10	1	-1E+10	1	-1E+10	1	-1E+10	1	-1E+10	1	-1E+10	1
4901784	190	C	09/16/2020	10:49	-133.105	43.442	0	480.40	0	4.9360	0	37.0400	8	29.307	0	476.016	0	51.3	4	16.9	4	-1E+10	1	-1E+10	1	-1E+10	1	-1E+10	1	-1E+10	1	-1E+10	1
4901784	190	C	09/16/2020	10:49	-133.105	43.442	0	482.30	0	4.9300	0	37.0440	8	29.310	0	477.897	0	50.6	4	16.7	4	-1E+10	1	-1E+10	1	-1E+10	1	-1E+10	1	-1E+10	1	-1E+10	1
4901784	190	C	09/16/2020	10:49	-133.105	43.442	0	485.10	0	4.9160	0	37.0470	8	29.315	0	480.668	0	49.7	4	16.4	4	-1E+10	1	-1E+10	1	-1E+10	1	-1E+10	1	-1E+10	1	-1E+10	1
4901784	190	C	09/16/2020	10:49	-133.105	43.442	0	488.00	0	4.9050	0	37.0500	8	29.318	0	483.538	0	48.8	4	16.1	4	-1E+10	1	-1E+10	1	-1E+10	1	-1E+10	1	-1E+10	1	-1E+10	1
4901784	190	C	09/16/2020	10:49	-133.105	43.442	0	489.80	0	4.8500	0	37.0520	8	29.326	0	485.319	0	48.1	4	15.8	4	-1E+10	1	-1E+10	1	-1E+10	1	-1E+10	1	-1E+10	1	-1E+10	1
4901784	190	C	09/16/2020	10:49	-133.105	43.442	0	492.70	0	4.8510	0	37.0590	8	29.332	0	488.189	0	47.2	4	15.5	4	-1E+10	1	-1E+10	1	-1E+10	1	-1E+10	1	-1E+10	1	-1E+10	1
4901784	190	C	09/16/2020	10:49	-133.105	43.442	0	495.70	0	4.8170	0	37.0610	8	29.338	0	491.158	0	46.4	4	15.3	4	-1E+10	1	-1E+10	1	-1E+10	1	-1E+10	1	-1E+10	1	-1E+10	1
4901784	190	C	09/16/2020	10:49	-133.105	43.442	0	497.10	0	4.8060	0	37.0620	8	29.340	0	492.544	0	45.8	4	15.0	4	-1E+10	1	-1E+10	1	-1E+10	1	-1E+10	1	-1E+10	1	-1E+10	1
4901784	190	C	09/16/2020	10:49	-133.105	43.442	0	500.30	0	4.8000	0	37.0670	8	29.344	0	495.711	0	44.2	4	14.5	4	-1E+10	1	-1E+10	1	-1E+10	1	-1E+10	1	-1E+10	1	-1E+10	1
4901784	190	C	09/16/2020	10:49	-133.105	43.442	0	504.90	0	4.7820	0	37.0810	8	29.358	0	500.263	0	41.1	4	13.5	4	-1E+10	1	-1E+10	1	-1E+10	1	-1E+10	1	-1E+10	1	-1E+10	1
4901784	190	C	09/16/2020	10:49	-133.105	43.442	0	510.60	0	4.8840	0	37.0970	8	29.358	0	505.904	0	37.8	4	12.5	4	-1E+10	1	-1E+10	1	-1E+10	1	-1E+10	1	-1E+10	1	-1E+10	1
4901784	190	C	09/16/2020	10:49	-133.105	43.442	0	515.50	0	4.8560	0	37.1070	8	29.370	0	510.753	0	36.0	4	11.9	4	-1E+10	1	-1E+10	1	-1E+10	1	-1E+10	1	-1E+10	1	-1E+10	1
4901784	190	C	09/16/2020	10:49	-133.105	43.442	0	520.40	0	4.8900	0	37.1190	8	29.375	0	515.602	0	33.9	4	11.2	4	-1E+10	1	-1E+10	1	-1E+10	1	-1E+10	1	-1E+10	1	-1E+10	1
4901784	190	C	09/16/2020	10:49	-133.105	43.442	0	525.30	0	4.8860	0	37.1260	8	29.381	0	520.450	0	32.4	4	10.7	4	-1E+10	1	-1E+10	1	-1E+10	1	-1E+10	1	-1E+10	1	-1E+10	1
4901784	190	C	09/16/2020	10:49	-133.105	43.442	0	530.30	0	4.8740	0	37.1340	8	29.389	0	525.398	0	31.5	4	10.4	4	-1E+10	1	-1E+10	1	-1E+10	1	-1E+10	1	-1E+10	1	-1E+10	1
4901784	190	C	09/16/2020	10:49	-133.105	43.442	0	535.40	0	4.8630	0	37.1360	8	29.392	0	530.444	0	30.7	4	10.1	4	-1E+10	1	-1E+10	1	-1E+10	1	-1E+10	1	-1E+10	1	-1E+10	1
4901784	190	C	09/16/2020	10:49	-133.105	43.442	0	540.40	0	4.8290	0	37.1390	8	29.399	0	535.391	0	29.7	4	9.8	4	-1E+10	1	-1E+10	1	-1E+10	1	-1E+10	1	-1E+10	1	-1E+10	1
4901784	190	C	09/16/2020	10:49	-133.105	43.442	0	545.50	0	4.7960	0	37.1470	8	29.409	0	540.437	0	29.0	4	9.5	4	-1E+10	1	-1E+10	1	-1E+10	1	-1E+10	1	-1E+10	1	-1E+10	1
4901784	190	C	09/16/2020	10:49	-133.105	43.442	0	550.70	0	4.7810	0	37.1520	8	29.415	0	545.582	0	27.8	4	9.2	4	-1E+10	1	-1E+10	1	-1E+10	1	-1E+10	1	-1E+10	1	-1E+10	1
4901784	190	C	09/16/2020	10:49	-133.105	43.442	0	555.00	0	4.7860	0	37.1580	8	29.419	0	549.837	0	27.1	4	8.9	4	-1E+10	1	-1E+10	1	-1E+10	1	-1E+10	1	-1E+10	1	-1E+10	1
4901784	190	C	09/16/2020	10:49	-133.105	43.442	0	559.30	0	4.7750	0	37.1620	8	29.424	0	554.091	0	26.5	4	8.7	4	-1E+10	1	-1E+10	1	-1E+10	1	-1E+10	1	-1E+10	1	-1E+10	1
4901784	190	C	09/16/2020	10:49	-133.105	43.442	0	564.60	0	4.7610	0	37.1650	8	29.428	0	559.335	0	25.9	4	8.5	4	-1E+10	1	-1E+10	1	-1E+10	1	-1E+10	1	-1E+10	1	-1E+10	1
4901784	190	C	09/16/2020	10:49	-133.105	43.442	0	569.80	0	4.7500	0	37.1700	8	29.433	0	564.479	0	25.1	4	8.3	4	-1E+10	1	-1E+10	1	-1E+10	1	-1E+10	1	-1E+10	1	-1E+10	1
4901784	190	C	09/16/2020	10:49	-133.105	43.442	0	575.10	0	4.7410	0	37.1760	8	29.439	0	569.722	0	24.3	4	8.0	4	-1E+10	1	-1E+10	1	-1E+10	1	-1E+10	1	-1E+10	1	-1E+10	1
4901784	190	C	09/16/2020	10:49	-133.105	43.442	0	580.50	0	4.7260	0	37.1800	8	29.444	0	575.064	0	23.8	4	7.8	4	-1E+10	1	-1E+10	1	-1E+10	1	-1E+10	1	-1E+10	1	-1E+10	1
4901784	190	C	09/16/2020	10:49	-133.105	43.442	0	585.00	0	4.7100	0	37.1830	8	29.448	0	579.516	0	23.5	4	7.7	4	-1E+10	1	-1E+10	1	-1E+10	1	-1E+10	1	-1E+10	1	-1E+10	1
4901784	190	C	09/16/2020	10:49	-133.105	43.442	0	589.50	0	4.6920	0	37.1850	8	29.452	0	583.967	0	23.2	4	7.6	4	-1E+10	1	-1E+10	1	-1E+10	1	-1E+10	1	-1E+10	1	-1E+10	1
4901784	190	C	09/16/2020	10:49	-133.105	43.442	0	595.00	0	4.6530	0	37.1830	8	29.455	0	589.408	0	23.0	4	7.5	4	-1E+10	1	-1E+10	1	-1E+10	1	-1E+10	1	-1E+10	1	-1E+10	1
4901784	190	C	09/16/2020	10:49	-133.105	43.442	0	600.50	0	4.5950	0	37.1900	8	29.467	0	594.848	0	22.3	4	7.3	4	-1E+10	1	-1E+10	1	-1E+10	1	-1E+10	1	-1E+10	1	-1E+10	1
4901784	190	C	09/16/2020	10:49	-133.105	43.442	0	605.10	0	4.5910	0	37.1940	8	29.471	0	599.399	0	21.7	4	7.1	4	-1E+10	1	-1E+10	1	-1E+10	1	-1E+10	1	-1E+10	1	-1E+10	1
4901784	190	C	09/16/2020	10:49	-133.105	43.442	0	609.80	0	4.6080	0	37.2000	8	29.474	0	604.047	0	21.1	4	6.9	4	-1E+10	1	-1E+10	1	-1E+10	1	-1E+10	1	-1E+10	1	-1E+10	1
4901784	190	C	09/16/2020	10:49	-133.105	43.442	0	615.40	0	4.5950	0	37.2040	8	29.479	0	609.586	0	20.4	4	6.7	4	-1E+10	1	-1E+10	1	-1E+10	1	-1E+10	1	-1E+10	1	-1E+10	1
4901784	190	C	09/16/2020	10:49	-133.105	43.442	0	620.20	0	4.5860	0	37.2110	8	29.485	0	614.334	0	19.8	4	6.5	4	-1E+10	1	-1E+10	1	-1E+10	1	-1E+10	1	-1E+10	1	-1E+10	1
4901784	190	C	09/16/2020	10:49	-133.105	43.442	0	624.90	0	4.5720	0	37.2120	8	29.488	0	618.983	0	19.4	4	6.4	4	-1E+10	1	-1E+10	1	-1E+10	1	-1E+10	1	-1E+10	1	-1E+10	1
4901784	190	C	09/16/2020	10:49	-133.105	43.442	0	629.70	0	4.5250	0	37.2160	8	29.497	0	623.730	0	19.0	4	6.2	4	-1E+10	1	-1E+10	1	-1E+10	1	-1E+10	1	-1E+10	1	-1E+10	1
4901784	190	C	09/16/2020	10:49	-133.105	43.442	0	634.40	0	4.5120	0	37.2220	8	29.503	0	628.378	0	18.4	4	6.0	4	-1E+10	1	-1E+10	1	-1E+10	1	-1E+10	1	-1E+10	1	-1E+10	1
4901784	190	C	09/16/2020	10:49	-133.105	43.442	0	639.70	0	4.4990	0	37.2290	8	29.510	0	633.620	0	17.8	4	5.8	4	-1E+10	1	-1E+10	1	-1E+10	1	-1E+10	1	-1E+10	1	-1E+10	1
4901784	190	C	09/16/2020	10:49	-133.105	43.442	0	644.50	0	4.4870	0	37.2330	8	29.515	0	638.367	0	17.4	4	5.7	4	-1E+10	1	-1E+10	1	-1E+10	1	-1E+10	1	-1E+10	1	-1E+10	1
4901784	190	C	09/16/2020	10:49	-133.105	43.442	0	650.00	0	4.4740	0	37.2380	8	29.520	0	643.806	0	16.9	4	5.5	4	-1E+10	1	-1E+10	1	-1E+10	1	-1E+10	1	-1E+10	1	-1E+10	1
4901784	190	C	09/16/2020	10:49	-133.105	43.442	0	655.70	0	4.4590	0	37.2430	8	29.526	0	649.443	0	16.4	4	5.4	4	-1E+10	1	-1E+10	1	-1E+10	1	-1E+10	1	-1E+10	1	-1E+10	1
4901784	190	C	09/16/2020	10:49	-133.105	43.442	0	660.60	0	4.4570	0	37.2480	8	29.530	0	654.288	0	16.0	4	5.2	4	-1E+10	1	-1E+10	1	-1E+10	1	-1E+10	1	-1E+10	1	-1E+10	1
4901784	190	C	09/16/2020	10:49	-133.105	43.442	0	665.60	0	4.4390	0	37.2530	8	29.536	0	659.233	0	15.8	4	5.2	4	-1E+10	1	-1E+10	1	-1E+10	1	-1E+10	1	-1E+10	1	-1E+10	1
4901784	190	C	09/16/2020	10:49	-133.105	43.442	0	670.70	0	4.4290	0	37.2540	8	29.538	0	664.276	0	15.6	4	5.1	4	-1E+10	1	-1E+10	1	-1E+10	1	-1E+10	1	-1E+10	1	-1E+10	1
4901784	190	C	09/16/2020	10:49	-133.105	43.442	0	675.70	0	4.4050	0	37.2560	8	29.543	0	669.220	0	15.3	4	5.0	4	-1E+10	1	-1E+10	1	-1E+10	1	-1E+10	1	-1E+10	1	-1E+10	1
4901784	190	C	09/16/2020	10:49	-133.105	43.442	0	680.00	0	4.3910	0	37.2600	8	29.547	0	673.472	0	15.1	4	4.9	4	-1E+10	1	-1E+10	1	-1E+10	1	-1E+10	1	-1E+10	1	-1E+10	1
4901784	190	C	09/16/2020	10:49	-133.105	43.442	0	684.20	0	4.3440	0	37.2630	8	29.555	0	677.625	0	15.0	4	4.9	4	-1E+10	1	-1E+10	1	-1E+10	1	-1E+10	1	-1E+10	1	-1E+10	1
4901784	190	C	09/16/2020	10:49	-133.105	43.442	0	689.30	0	4.3400	0	37.2660	8	29.558	0	682.667	0	14.7	4	4.8	4	-1E+10	1	-1E+10	1	-1E+10	1	-1E+10	1	-1E+10	1	-1E+10	1
4901784	190	C	09/16/2020	10:49	-133.105	43.442	0	694.50	0	4.3340	0	37.2700	8	29.562	0	687.809	0	14.4	4	4.7	4	-1E+10	1	-1E+10	1	-1E+10	1	-1E+10	1	-1E+10	1	-1E+10	1
4901784	190	C	09/16/2020	10:49	-133.105	43.442	0	699.60	0	4.3250	0	37.2740	8	29.566	0	692.851	0	14.1	4	4.6	4	-1E+10	1	-1E+10	1	-1E+10	1	-1E+10	1	-1E+10	1	-1E+10	1
4901784	190	C	09/16/2020	10:49	-133.105	43.442	0	704.70	0	4.3310	0	37.2810	8	29.571	0	697.893	0	13.8	4	4.5	4	-1E+10	1	-1E+10	1	-1E+10	1	-1E+10	1	-1E+10	1	-1E+10	1
4901784	190	C	09/16/2020	10:49	-133.105	43.442	0	709.70	0	4.3330	0	37.2820	8	29.572	0	702.837	0	13.5	4	4.4	4	-1E+10	1	-1E+10	1	-1E+10	1	-1E+10	1	-1E+10	1	-1E+10	1
4901784	190	C	09/16/2020	10:49	-133.105	43.442	0	714.90	0	4.2980	0	37.2840	8	29.577	0	707.978	0	13.4	4	4.4	4	-1E+10	1	-1E+10	1	-1E+10	1	-1E+10	1	-1E+10	1	-1E+10	1
4901784	190	C	09/16/2020	10:49	-133.105	43.442	0	720.00	0	4.2640	0	37.2850	8	29.582	0	713.019	0	13.2	4	4.3	4	-1E+10	1	-1E+10	1	-1E+10	1	-1E+10	1	-1E+10	1	-1E+10	1
4901784	190	C	09/16/2020	10:49	-133.105	43.442	0	725.10	0	4.2570	0	37.2860	8	29.584	0	718.061	0	13.0	4	4.2	4	-1E+10	1	-1E+10	1	-1E+10	1	-1E+10	1	-1E+10	1	-1E+10	1
4901784	190	C	09/16/2020	10:49	-133.105	43.442	0	730.20	0	4.2360	0	37.2870	8	29.587	0	723.103	0	12.8	4	4.2	4	-1E+10	1	-1E+10	1	-1E+10	1	-1E+10	1	-1E+10	1	-1E+10	1
4901784	190	C	09/16/2020	10:49	-133.105	43.442	0	735.30	0	4.2270	0	37.2850	8	29.586	0	728.144	0	12.6	4	4.1	4	-1E+10	1	-1E+10	1	-1E+10	1	-1E+10	1	-1E+10	1	-1E+10	1
4901784	190	C	09/16/2020	10:49	-133.105	43.442	0	740.40	0	4.2100	0	37.2790	8	29.584	0	733.186	0	12.6	4	4.1	4	-1E+10	1	-1E+10	1	-1E+10	1	-1E+10	1	-1E+10	1	-1E+10	1
4901784	190	C	09/16/2020	10:49	-133.105	43.442	0	745.50	0	4.1650	0	37.2740	8	29.585	0	738.227	0	12.6	4	4.1	4	-1E+10	1	-1E+10	1	-1E+10	1	-1E+10	1	-1E+10	1	-1E+10	1
4901784	190	C	09/16/2020	10:49	-133.105	43.442	0	750.70	0	4.1350	0	37.2640	8	29.580	0	743.367	0	12.5	4	4.0	4	-1E+10	1	-1E+10	1	-1E+10	1	-1E+10	1	-1E+10	1	-1E+10	1
4901784	190	C	09/16/2020	10:49	-133.105	43.442	0	755.80	0	4.1010	8	37.2460	8	29.570	0	748.408	0	12.3	4	4.0	4	-1E+10	1	-1E+10	1	-1E+10	1	-1E+10	1	-1E+10	1	-1E+10	1
4901784	190	C	09/16/2020	10:49	-133.105	43.442	0	760.00	0	4.1010	8	37.2030	8	29.535	0	752.559	0	12.1	4	3.9	4	-1E+10	1	-1E+10	1	-1E+10	1	-1E+10	1	-1E+10	1	-1E+10	1
4901784	190	C	09/16/2020	10:49	-133.105	43.442	0	764.30	0	4.0670	8	37.0550	8	29.421	0	756.810	0	12.0	4	3.9	4	-1E+10	1	-1E+10	1	-1E+10	1	-1E+10	1	-1E+10	1	-1E+10	1
4901784	190	C	09/16/2020	10:49	-133.105	43.442	0	769.60	0	4.0750	8	36.9300	8	29.321	0	762.048	0	11.7	4	3.8	4	-1E+10	1	-1E+10	1	-1E+10	1	-1E+10	1	-1E+10	1	-1E+10	1
4901784	190	C	09/16/2020	10:49	-133.105	43.442	0	774.70	0	4.0850	8	36.8930	8	29.291	0	767.089	0	11.5	4	3.7	4	-1E+10	1	-1E+10	1	-1E+10	1	-1E+10	1	-1E+10	1	-1E+10	1
4901784	190	C	09/16/2020	10:49	-133.105	43.442	0	779.90	0	4.0760	0	36.8710	8	29.274	0	772.228	0	11.4	4	3.7	4	-1E+10	1	-1E+10	1	-1E+10	1	-1E+10	1	-1E+10	1	-1E+10	1
4901784	190	C	09/16/2020	10:49	-133.105	43.442	0	785.10	0	4.0740	0	36.8490	8	29.257	0	777.367	0	11.2	4	3.6	4	-1E+10	1	-1E+10	1	-1E+10	1	-1E+10	1	-1E+10	1	-1E+10	1
4901784	190	C	09/16/2020	10:49	-133.105	43.442	0	790.30	0	4.0710	0	36.8230	8	29.236	0	782.506	0	11.1	4	3.6	4	-1E+10	1	-1E+10	1	-1E+10	1	-1E+10	1	-1E+10	1	-1E+10	1
4901784	190	C	09/16/2020	10:49	-133.105	43.442	0	795.50	0	4.0420	0	36.8250	8	29.241	0	787.645	0	11.0	4	3.6	4	-1E+10	1	-1E+10	1	-1E+10	1	-1E+10	1	-1E+10	1	-1E+10	1
4901784	190	C	09/16/2020	10:49	-133.105	43.442	0	800.70	0	4.0260	0	36.8140	8	29.234	0	792.784	0	10.9	4	3.5	4	-1E+10	1	-1E+10	1	-1E+10	1	-1E+10	1	-1E+10	1	-1E+10	1
4901784	190	C	09/16/2020	10:49	-133.105	43.442	0	805.10	0	4.0120	0	36.8110	8	29.233	0	797.132	0	10.9	4	3.5	4	-1E+10	1	-1E+10	1	-1E+10	1	-1E+10	1	-1E+10	1	-1E+10	1
4901784	190	C	09/16/2020	10:49	-133.105	43.442	0	809.30	0	3.9990	0	36.8130	8	29.236	0	801.282	0	10.8	4	3.5	4	-1E+10	1	-1E+10	1	-1E+10	1	-1E+10	1	-1E+10	1	-1E+10	1
4901784	190	C	09/16/2020	10:49	-133.105	43.442	0	814.50	0	3.9780	0	36.8180	8	29.243	0	806.421	0	10.7	4	3.4	4	-1E+10	1	-1E+10	1	-1E+10	1	-1E+10	1	-1E+10	1	-1E+10	1
4901784	190	C	09/16/2020	10:49	-133.105	43.442	0	819.70	0	3.9640	0	36.8230	8	29.248	0	811.559	0	10.6	4	3.4	4	-1E+10	1	-1E+10	1	-1E+10	1	-1E+10	1	-1E+10	1	-1E+10	1
4901784	190	C	09/16/2020	10:49	-133.105	43.442	0	825.00	0	3.9630	0	36.8270	8	29.252	0	816.796	0	10.5	4	3.4	4	-1E+10	1	-1E+10	1	-1E+10	1	-1E+10	1	-1E+10	1	-1E+10	1
4901784	190	C	09/16/2020	10:49	-133.105	43.442	0	830.30	0	3.9560	0	36.8300	8	29.255	0	822.033	0	10.5	4	3.4	4	-1E+10	1	-1E+10	1	-1E+10	1	-1E+10	1	-1E+10	1	-1E+10	1
4901784	190	C	09/16/2020	10:49	-133.105	43.442	0	835.50	0	3.9480	0	36.8330	8	29.258	0	827.171	0	10.4	4	3.3	4	-1E+10	1	-1E+10	1	-1E+10	1	-1E+10	1	-1E+10	1	-1E+10	1
4901784	190	C	09/16/2020	10:49	-133.105	43.442	0	839.90	0	3.9380	0	36.8350	8	29.261	0	831.518	0	10.4	4	3.3	4	-1E+10	1	-1E+10	1	-1E+10	1	-1E+10	1	-1E+10	1	-1E+10	1
4901784	190	C	09/16/2020	10:49	-133.105	43.442	0	844.40	0	3.9340	0	36.8370	8	29.263	0	835.964	0	10.4	4	3.3	4	-1E+10	1	-1E+10	1	-1E+10	1	-1E+10	1	-1E+10	1	-1E+10	1
4901784	190	C	09/16/2020	10:49	-133.105	43.442	0	849.70	0	3.9250	0	36.8390	8	29.266	0	841.201	0	10.3	4	3.3	4	-1E+10	1	-1E+10	1	-1E+10	1	-1E+10	1	-1E+10	1	-1E+10	1
4901784	190	C	09/16/2020	10:49	-133.105	43.442	0	855.10	0	3.9060	0	36.8410	8	29.269	0	846.536	0	10.2	4	3.3	4	-1E+10	1	-1E+10	1	-1E+10	1	-1E+10	1	-1E+10	1	-1E+10	1
4901784	190	C	09/16/2020	10:49	-133.105	43.442	0	860.40	0	3.8720	0	36.8440	8	29.275	0	851.772	0	10.2	4	3.3	4	-1E+10	1	-1E+10	1	-1E+10	1	-1E+10	1	-1E+10	1	-1E+10	1
4901784	190	C	09/16/2020	10:49	-133.105	43.442	0	864.90	0	3.8450	0	36.8470	8	29.281	0	856.218	0	10.2	4	3.3	4	-1E+10	1	-1E+10	1	-1E+10	1	-1E+10	1	-1E+10	1	-1E+10	1
4901784	190	C	09/16/2020	10:49	-133.105	43.442	0	869.30	0	3.8360	0	36.8510	8	29.285	0	860.564	0	10.1	4	3.3	4	-1E+10	1	-1E+10	1	-1E+10	1	-1E+10	1	-1E+10	1	-1E+10	1
4901784	190	C	09/16/2020	10:49	-133.105	43.442	0	874.70	0	3.8720	0	36.8590	8	29.287	0	865.899	0	10.1	4	3.2	4	-1E+10	1	-1E+10	1	-1E+10	1	-1E+10	1	-1E+10	1	-1E+10	1
4901784	190	C	09/16/2020	10:49	-133.105	43.442	0	880.20	0	3.8450	0	36.8580	8	29.290	0	871.332	0	10.1	4	3.2	4	-1E+10	1	-1E+10	1	-1E+10	1	-1E+10	1	-1E+10	1	-1E+10	1
4901784	190	C	09/16/2020	10:49	-133.105	43.442	0	885.60	0	3.7890	0	36.8580	8	29.296	0	876.666	0	10.1	4	3.2	4	-1E+10	1	-1E+10	1	-1E+10	1	-1E+10	1	-1E+10	1	-1E+10	1
4901784	190	C	09/16/2020	10:49	-133.105	43.442	0	890.10	0	3.7860	0	36.8600	8	29.298	0	881.112	0	10.1	4	3.2	4	-1E+10	1	-1E+10	1	-1E+10	1	-1E+10	1	-1E+10	1	-1E+10	1
4901784	190	C	09/16/2020	10:49	-133.105	43.442	0	894.70	0	3.8050	0	36.8620	8	29.297	0	885.655	0	10.0	4	3.2	4	-1E+10	1	-1E+10	1	-1E+10	1	-1E+10	1	-1E+10	1	-1E+10	1
4901784	190	C	09/16/2020	10:49	-133.105	43.442	0	900.20	0	3.7650	0	36.8640	8	29.303	0	891.088	0	10.0	4	3.2	4	-1E+10	1	-1E+10	1	-1E+10	1	-1E+10	1	-1E+10	1	-1E+10	1
4901784	190	C	09/16/2020	10:49	-133.105	43.442	0	904.80	0	3.7380	0	36.8640	8	29.306	0	895.632	0	10.0	4	3.2	4	-1E+10	1	-1E+10	1	-1E+10	1	-1E+10	1	-1E+10	1	-1E+10	1
4901784	190	C	09/16/2020	10:49	-133.105	43.442	0	909.40	0	3.7330	0	36.8680	8	29.310	0	900.175	0	10.0	4	3.2	4	-1E+10	1	-1E+10	1	-1E+10	1	-1E+10	1	-1E+10	1	-1E+10	1
4901784	190	C	09/16/2020	10:49	-133.105	43.442	0	914.80	0	3.7010	0	36.8730	8	29.317	0	905.509	0	10.0	4	3.2	4	-1E+10	1	-1E+10	1	-1E+10	1	-1E+10	1	-1E+10	1	-1E+10	1
4901784	190	C	09/16/2020	10:49	-133.105	43.442	0	920.30	0	3.6820	0	36.8760	8	29.321	0	910.941	0	10.0	4	3.2	4	-1E+10	1	-1E+10	1	-1E+10	1	-1E+10	1	-1E+10	1	-1E+10	1
4901784	190	C	09/16/2020	10:49	-133.105	43.442	0	924.90	0	3.6670	0	36.8800	8	29.326	0	915.484	0	10.0	4	3.2	4	-1E+10	1	-1E+10	1	-1E+10	1	-1E+10	1	-1E+10	1	-1E+10	1
4901784	190	C	09/16/2020	10:49	-133.105	43.442	0	929.40	0	3.6490	0	36.8850	8	29.332	0	919.928	0	10.0	4	3.2	4	-1E+10	1	-1E+10	1	-1E+10	1	-1E+10	1	-1E+10	1	-1E+10	1
4901784	190	C	09/16/2020	10:49	-133.105	43.442	0	934.90	0	3.6360	0	36.8880	8	29.336	0	925.360	0	10.0	4	3.2	4	-1E+10	1	-1E+10	1	-1E+10	1	-1E+10	1	-1E+10	1	-1E+10	1
4901784	190	C	09/16/2020	10:49	-133.105	43.442	0	940.40	0	3.6200	0	36.8930	8	29.342	0	930.792	0	10.0	4	3.2	4	-1E+10	1	-1E+10	1	-1E+10	1	-1E+10	1	-1E+10	1	-1E+10	1
4901784	190	C	09/16/2020	10:49	-133.105	43.442	0	945.60	0	3.6110	0	36.8950	8	29.344	0	935.927	0	10.0	4	3.2	4	-1E+10	1	-1E+10	1	-1E+10	1	-1E+10	1	-1E+10	1	-1E+10	1
4901784	190	C	09/16/2020	10:49	-133.105	43.442	0	949.70	0	3.6030	0	36.8970	8	29.347	0	939.976	0	10.0	4	3.2	4	-1E+10	1	-1E+10	1	-1E+10	1	-1E+10	1	-1E+10	1	-1E+10	1
4901784	190	C	09/16/2020	10:49	-133.105	43.442	0	954.40	0	3.5880	0	36.9000	8	29.351	0	944.617	0	10.0	4	3.2	4	-1E+10	1	-1E+10	1	-1E+10	1	-1E+10	1	-1E+10	1	-1E+10	1
4901784	190	C	09/16/2020	10:49	-133.105	43.442	0	960.00	0	3.5770	0	36.9030	8	29.354	0	950.147	0	10.1	4	3.2	4	-1E+10	1	-1E+10	1	-1E+10	1	-1E+10	1	-1E+10	1	-1E+10	1
4901784	190	C	09/16/2020	10:49	-133.105	43.442	0	965.60	0	3.5620	0	36.9060	8	29.358	0	955.677	0	10.1	4	3.2	4	-1E+10	1	-1E+10	1	-1E+10	1	-1E+10	1	-1E+10	1	-1E+10	1
4901784	190	C	09/16/2020	10:49	-133.105	43.442	0	970.40	0	3.5500	0	36.9090	8	29.362	0	960.417	0	10.2	4	3.2	4	-1E+10	1	-1E+10	1	-1E+10	1	-1E+10	1	-1E+10	1	-1E+10	1
4901784	190	C	09/16/2020	10:49	-133.105	43.442	0	975.40	0	3.5370	0	36.9120	8	29.366	0	965.354	0	10.2	4	3.2	4	-1E+10	1	-1E+10	1	-1E+10	1	-1E+10	1	-1E+10	1	-1E+10	1
4901784	190	C	09/16/2020	10:49	-133.105	43.442	0	980.30	0	3.5210	0	36.9160	8	29.371	0	970.192	0	10.2	4	3.3	4	-1E+10	1	-1E+10	1	-1E+10	1	-1E+10	1	-1E+10	1	-1E+10	1
4901784	190	C	09/16/2020	10:49	-133.105	43.442	0	985.30	0	3.5120	0	36.9180	8	29.373	0	975.129	0	10.3	4	3.3	4	-1E+10	1	-1E+10	1	-1E+10	1	-1E+10	1	-1E+10	1	-1E+10	1
4901784	190	C	09/16/2020	10:49	-133.105	43.442	0	990.30	0	3.5050	0	36.9190	8	29.375	0	980.065	0	10.3	4	3.3	4	-1E+10	1	-1E+10	1	-1E+10	1	-1E+10	1	-1E+10	1	-1E+10	1
4901784	190	C	09/16/2020	10:49	-133.105	43.442	0	995.40	0	3.4950	0	36.9210	8	29.377	0	985.101	0	10.3	4	3.3	4	-1E+10	1	-1E+10	1	-1E+10	1	-1E+10	1	-1E+10	1	-1E+10	1
4901784	190	C	09/16/2020	10:49	-133.105	43.442	0	1000.60	0	3.4890	0	36.9230	8	29.380	0	990.234	0	10.4	4	3.3	4	-1E+10	1	-1E+10	1	-1E+10	1	-1E+10	1	-1E+10	1	-1E+10	1
4901784	190	C	09/16/2020	10:49	-133.105	43.442	0	1005.70	0	3.4780	0	36.9250	8	29.382	0	995.270	0	10.4	4	3.3	4	-1E+10	1	-1E+10	1	-1E+10	1	-1E+10	1	-1E+10	1	-1E+10	1
4901784	190	C	09/16/2020	10:49	-133.105	43.442	0	1010.10	0	3.4700	0	36.9270	8	29.385	0	999.613	0	10.5	4	3.3	4	-1E+10	1	-1E+10	1	-1E+10	1	-1E+10	1	-1E+10	1	-1E+10	1
4901784	190	C	09/16/2020	10:49	-133.105	43.442	0	1014.40	0	3.4580	0	36.9310	8	29.389	0	1003.858	0	10.6	4	3.4	4	-1E+10	1	-1E+10	1	-1E+10	1	-1E+10	1	-1E+10	1	-1E+10	1
4901784	190	C	09/16/2020	10:49	-133.105	43.442	0	1019.80	0	3.4480	0	36.9330	8	29.392	0	1009.189	0	10.6	4	3.4	4	-1E+10	1	-1E+10	1	-1E+10	1	-1E+10	1	-1E+10	1	-1E+10	1
4901784	190	C	09/16/2020	10:49	-133.105	43.442	0	1025.20	0	3.4390	0	36.9350	8	29.395	0	1014.520	0	10.6	4	3.4	4	-1E+10	1	-1E+10	1	-1E+10	1	-1E+10	1	-1E+10	1	-1E+10	1
4901784	190	C	09/16/2020	10:49	-133.105	43.442	0	1029.90	0	3.4320	0	36.9370	8	29.397	0	1019.160	0	10.7	4	3.4	4	-1E+10	1	-1E+10	1	-1E+10	1	-1E+10	1	-1E+10	1	-1E+10	1
4901784	190	C	09/16/2020	10:49	-133.105	43.442	0	1035.30	0	3.4250	0	36.9390	8	29.399	0	1024.490	0	10.7	4	3.4	4	-1E+10	1	-1E+10	1	-1E+10	1	-1E+10	1	-1E+10	1	-1E+10	1
4901784	190	C	09/16/2020	10:49	-133.105	43.442	0	1040.00	0	3.4120	0	36.9420	8	29.403	0	1029.130	0	10.8	4	3.4	4	-1E+10	1	-1E+10	1	-1E+10	1	-1E+10	1	-1E+10	1	-1E+10	1
4901784	190	C	09/16/2020	10:49	-133.105	43.442	0	1044.70	0	3.4030	0	36.9440	8	29.406	0	1033.769	0	10.9	4	3.5	4	-1E+10	1	-1E+10	1	-1E+10	1	-1E+10	1	-1E+10	1	-1E+10	1
4901784	190	C	09/16/2020	10:49	-133.105	43.442	0	1049.60	0	3.3890	0	36.9470	8	29.409	0	1038.606	0	11.0	4	3.5	4	-1E+10	1	-1E+10	1	-1E+10	1	-1E+10	1	-1E+10	1	-1E+10	1
4901784	190	C	09/16/2020	10:49	-133.105	43.442	0	1054.50	0	3.3750	0	36.9500	8	29.413	0	1043.442	0	11.1	4	3.5	4	-1E+10	1	-1E+10	1	-1E+10	1	-1E+10	1	-1E+10	1	-1E+10	1
4901784	190	C	09/16/2020	10:49	-133.105	43.442	0	1059.40	0	3.3620	0	36.9520	8	29.416	0	1048.278	0	11.2	4	3.6	4	-1E+10	1	-1E+10	1	-1E+10	1	-1E+10	1	-1E+10	1	-1E+10	1
4901784	190	C	09/16/2020	10:49	-133.105	43.442	0	1064.30	0	3.3460	0	36.9560	8	29.421	0	1053.115	0	11.4	4	3.6	4	-1E+10	1	-1E+10	1	-1E+10	1	-1E+10	1	-1E+10	1	-1E+10	1
4901784	190	C	09/16/2020	10:49	-133.105	43.442	0	1069.30	0	3.3310	0	36.9590	8	29.425	0	1058.050	0	11.5	4	3.7	4	-1E+10	1	-1E+10	1	-1E+10	1	-1E+10	1	-1E+10	1	-1E+10	1
4901784	190	C	09/16/2020	10:49	-133.105	43.442	0	1074.30	0	3.3190	0	36.9620	8	29.429	0	1062.984	0	11.6	4	3.7	4	-1E+10	1	-1E+10	1	-1E+10	1	-1E+10	1	-1E+10	1	-1E+10	1
4901784	190	C	09/16/2020	10:49	-133.105	43.442	0	1079.40	0	3.3130	0	36.9640	8	29.431	0	1068.018	0	11.8	4	3.7	4	-1E+10	1	-1E+10	1	-1E+10	1	-1E+10	1	-1E+10	1	-1E+10	1
4901784	190	C	09/16/2020	10:49	-133.105	43.442	0	1084.60	0	3.3020	0	36.9670	8	29.434	0	1073.149	0	11.9	4	3.8	4	-1E+10	1	-1E+10	1	-1E+10	1	-1E+10	1	-1E+10	1	-1E+10	1
4901784	190	C	09/16/2020	10:49	-133.105	43.442	0	1089.80	0	3.2930	0	36.9700	8	29.438	0	1078.281	0	12.0	4	3.8	4	-1E+10	1	-1E+10	1	-1E+10	1	-1E+10	1	-1E+10	1	-1E+10	1
4901784	190	C	09/16/2020	10:49	-133.105	43.442	0	1095.70	0	3.2880	0	37.4380	8	29.812	0	1084.104	0	12.1	4	3.8	4	-1E+10	1	-1E+10	1	-1E+10	1	-1E+10	1	-1E+10	1	-1E+10	1
4901784	190	C	09/16/2020	10:49	-133.105	43.442	0	1100.30	0	3.2730	0	37.4900	8	29.855	0	1088.643	0	12.0	4	3.8	4	-1E+10	1	-1E+10	1	-1E+10	1	-1E+10	1	-1E+10	1	-1E+10	1
4901784	190	C	09/16/2020	10:49	-133.105	43.442	0	1104.90	0	3.2610	0	37.5070	8	29.870	0	1093.182	0	12.1	4	3.8	4	-1E+10	1	-1E+10	1	-1E+10	1	-1E+10	1	-1E+10	1	-1E+10	1
4901784	190	C	09/16/2020	10:49	-133.105	43.442	0	1109.80	0	3.2510	0	37.5170	8	29.879	0	1098.018	0	12.2	4	3.9	4	-1E+10	1	-1E+10	1	-1E+10	1	-1E+10	1	-1E+10	1	-1E+10	1
4901784	190	C	09/16/2020	10:49	-133.105	43.442	0	1114.90	0	3.2410	0	37.5240	8	29.886	0	1103.050	0	12.3	4	3.9	4	-1E+10	1	-1E+10	1	-1E+10	1	-1E+10	1	-1E+10	1	-1E+10	1
4901784	190	C	09/16/2020	10:49	-133.105	43.442	0	1120.00	0	3.2290	0	37.5300	8	29.892	0	1108.082	0	12.4	4	3.9	4	-1E+10	1	-1E+10	1	-1E+10	1	-1E+10	1	-1E+10	1	-1E+10	1
4901784	190	C	09/16/2020	10:49	-133.105	43.442	0	1125.20	0	3.2240	0	37.5340	8	29.896	0	1113.213	0	12.4	4	4.0	4	-1E+10	1	-1E+10	1	-1E+10	1	-1E+10	1	-1E+10	1	-1E+10	1
4901784	190	C	09/16/2020	10:49	-133.105	43.442	0	1130.40	0	3.2130	0	37.5380	8	29.900	0	1118.344	0	12.6	4	4.0	4	-1E+10	1	-1E+10	1	-1E+10	1	-1E+10	1	-1E+10	1	-1E+10	1
4901784	190	C	09/16/2020	10:49	-133.105	43.442	0	1134.80	0	3.2070	0	37.5400	8	29.902	0	1122.685	0	12.7	4	4.0	4	-1E+10	1	-1E+10	1	-1E+10	1	-1E+10	1	-1E+10	1	-1E+10	1
4901784	190	C	09/16/2020	10:49	-133.105	43.442	0	1139.30	0	3.2010	0	37.5420	8	29.904	0	1127.125	0	12.7	4	4.0	4	-1E+10	1	-1E+10	1	-1E+10	1	-1E+10	1	-1E+10	1	-1E+10	1
4901784	190	C	09/16/2020	10:49	-133.105	43.442	0	1144.80	0	3.1920	0	37.5450	8	29.908	0	1132.552	0	12.8	4	4.1	4	-1E+10	1	-1E+10	1	-1E+10	1	-1E+10	1	-1E+10	1	-1E+10	1
4901784	190	C	09/16/2020	10:49	-133.105	43.442	0	1150.30	0	3.1820	0	37.5480	8	29.911	0	1137.978	0	13.0	4	4.1	4	-1E+10	1	-1E+10	1	-1E+10	1	-1E+10	1	-1E+10	1	-1E+10	1
4901784	190	C	09/16/2020	10:49	-133.105	43.442	0	1154.90	0	3.1740	0	37.5500	8	29.914	0	1142.516	0	13.1	4	4.1	4	-1E+10	1	-1E+10	1	-1E+10	1	-1E+10	1	-1E+10	1	-1E+10	1
4901784	190	C	09/16/2020	10:49	-133.105	43.442	0	1159.60	0	3.1650	0	37.5520	8	29.916	0	1147.153	0	13.2	4	4.2	4	-1E+10	1	-1E+10	1	-1E+10	1	-1E+10	1	-1E+10	1	-1E+10	1
4901784	190	C	09/16/2020	10:49	-133.105	43.442	0	1165.30	0	3.1560	0	37.5550	8	29.920	0	1152.776	0	13.3	4	4.2	4	-1E+10	1	-1E+10	1	-1E+10	1	-1E+10	1	-1E+10	1	-1E+10	1
4901784	190	C	09/16/2020	10:49	-133.105	43.442	0	1170.00	0	3.1490	0	37.5560	8	29.921	0	1157.413	0	13.4	4	4.3	4	-1E+10	1	-1E+10	1	-1E+10	1	-1E+10	1	-1E+10	1	-1E+10	1
4901784	190	C	09/16/2020	10:49	-133.105	43.442	0	1174.70	0	3.1380	0	37.5590	8	29.925	0	1162.049	0	13.6	4	4.3	4	-1E+10	1	-1E+10	1	-1E+10	1	-1E+10	1	-1E+10	1	-1E+10	1
4901784	190	C	09/16/2020	10:49	-133.105	43.442	0	1179.60	0	3.1320	0	37.5610	8	29.927	0	1166.883	0	13.6	4	4.3	4	-1E+10	1	-1E+10	1	-1E+10	1	-1E+10	1	-1E+10	1	-1E+10	1
4901784	190	C	09/16/2020	10:49	-133.105	43.442	0	1184.50	0	3.1250	0	37.5630	8	29.929	0	1171.716	0	13.7	4	4.4	4	-1E+10	1	-1E+10	1	-1E+10	1	-1E+10	1	-1E+10	1	-1E+10	1
4901784	190	C	09/16/2020	10:49	-133.105	43.442	0	1190.30	0	3.1210	0	37.5650	8	29.931	0	1177.437	0	13.9	4	4.4	4	-1E+10	1	-1E+10	1	-1E+10	1	-1E+10	1	-1E+10	1	-1E+10	1
4901784	190	C	09/16/2020	10:49	-133.105	43.442	0	1195.10	0	3.1200	0	37.5660	8	29.932	0	1182.172	0	14.0	4	4.5	4	-1E+10	1	-1E+10	1	-1E+10	1	-1E+10	1	-1E+10	1	-1E+10	1
4901784	190	C	09/16/2020	10:49	-133.105	43.442	0	1200.00	0	3.1060	0	37.5690	8	29.936	0	1187.005	0	14.2	4	4.5	4	-1E+10	1	-1E+10	1	-1E+10	1	-1E+10	1	-1E+10	1	-1E+10	1
4901784	190	C	09/16/2020	10:49	-133.105	43.442	0	1204.90	0	3.0970	0	37.5720	8	29.939	0	1191.838	0	14.3	4	4.5	4	-1E+10	1	-1E+10	1	-1E+10	1	-1E+10	1	-1E+10	1	-1E+10	1
4901784	190	C	09/16/2020	10:49	-133.105	43.442	0	1209.80	0	3.0930	0	37.5730	8	29.941	0	1196.671	0	14.4	4	4.6	4	-1E+10	1	-1E+10	1	-1E+10	1	-1E+10	1	-1E+10	1	-1E+10	1
4901784	190	C	09/16/2020	10:49	-133.105	43.442	0	1214.70	0	3.0870	0	37.5740	8	29.942	0	1201.504	0	14.5	4	4.6	4	-1E+10	1	-1E+10	1	-1E+10	1	-1E+10	1	-1E+10	1	-1E+10	1
4901784	190	C	09/16/2020	10:49	-133.105	43.442	0	1219.60	0	3.0790	0	37.5750	8	29.944	0	1206.337	0	14.6	4	4.6	4	-1E+10	1	-1E+10	1	-1E+10	1	-1E+10	1	-1E+10	1	-1E+10	1
4901784	190	C	09/16/2020	10:49	-133.105	43.442	0	1225.50	0	3.0690	0	37.5770	8	29.946	0	1212.156	0	14.7	4	4.7	4	-1E+10	1	-1E+10	1	-1E+10	1	-1E+10	1	-1E+10	1	-1E+10	1
4901784	190	C	09/16/2020	10:49	-133.105	43.442	0	1230.40	0	3.0550	0	37.5800	8	29.950	0	1216.988	0	14.9	4	4.7	4	-1E+10	1	-1E+10	1	-1E+10	1	-1E+10	1	-1E+10	1	-1E+10	1
4901784	190	C	09/16/2020	10:49	-133.105	43.442	0	1235.30	0	3.0470	0	37.5810	8	29.952	0	1221.821	0	15.1	4	4.8	4	-1E+10	1	-1E+10	1	-1E+10	1	-1E+10	1	-1E+10	1	-1E+10	1
4901784	190	C	09/16/2020	10:49	-133.105	43.442	0	1240.20	0	3.0330	0	37.5840	8	29.956	0	1226.653	0	15.3	4	4.8	4	-1E+10	1	-1E+10	1	-1E+10	1	-1E+10	1	-1E+10	1	-1E+10	1
4901784	190	C	09/16/2020	10:49	-133.105	43.442	0	1244.70	0	3.0260	0	37.5860	8	29.958	0	1231.090	0	15.4	4	4.9	4	-1E+10	1	-1E+10	1	-1E+10	1	-1E+10	1	-1E+10	1	-1E+10	1
4901784	190	C	09/16/2020	10:49	-133.105	43.442	0	1250.00	0	3.0200	0	37.5870	8	29.959	0	1236.317	0	15.6	4	4.9	4	-1E+10	1	-1E+10	1	-1E+10	1	-1E+10	1	-1E+10	1	-1E+10	1
4901784	190	C	09/16/2020	10:49	-133.105	43.442	0	1255.40	0	3.0070	0	37.5900	8	29.963	0	1241.642	0	15.7	4	5.0	4	-1E+10	1	-1E+10	1	-1E+10	1	-1E+10	1	-1E+10	1	-1E+10	1
4901784	190	C	09/16/2020	10:49	-133.105	43.442	0	1259.90	0	3.0000	0	37.5910	8	29.965	0	1246.079	0	15.8	4	5.0	4	-1E+10	1	-1E+10	1	-1E+10	1	-1E+10	1	-1E+10	1	-1E+10	1
4901784	190	C	09/16/2020	10:49	-133.105	43.442	0	1264.40	0	2.9900	0	37.5920	8	29.966	0	1250.517	0	15.9	4	5.0	4	-1E+10	1	-1E+10	1	-1E+10	1	-1E+10	1	-1E+10	1	-1E+10	1
4901784	190	C	09/16/2020	10:49	-133.105	43.442	0	1269.80	0	2.9800	0	37.5940	8	29.969	0	1255.841	0	16.1	4	5.1	4	-1E+10	1	-1E+10	1	-1E+10	1	-1E+10	1	-1E+10	1	-1E+10	1
4901784	190	C	09/16/2020	10:49	-133.105	43.442	0	1275.20	0	2.9700	0	37.5960	8	29.972	0	1261.166	0	16.2	4	5.1	4	-1E+10	1	-1E+10	1	-1E+10	1	-1E+10	1	-1E+10	1	-1E+10	1
4901784	190	C	09/16/2020	10:49	-133.105	43.442	0	1280.60	0	2.9570	0	37.5970	8	29.974	0	1266.490	0	16.4	4	5.2	4	-1E+10	1	-1E+10	1	-1E+10	1	-1E+10	1	-1E+10	1	-1E+10	1
4901784	190	C	09/16/2020	10:49	-133.105	43.442	0	1285.10	0	2.9440	0	37.5990	8	29.977	0	1270.927	0	16.6	4	5.2	4	-1E+10	1	-1E+10	1	-1E+10	1	-1E+10	1	-1E+10	1	-1E+10	1
4901784	190	C	09/16/2020	10:49	-133.105	43.442	0	1289.60	0	2.9380	0	37.6010	8	29.979	0	1275.363	0	16.7	4	5.3	4	-1E+10	1	-1E+10	1	-1E+10	1	-1E+10	1	-1E+10	1	-1E+10	1
4901784	190	C	09/16/2020	10:49	-133.105	43.442	0	1295.00	0	2.9270	0	37.6020	8	29.981	0	1280.687	0	17.0	4	5.4	4	-1E+10	1	-1E+10	1	-1E+10	1	-1E+10	1	-1E+10	1	-1E+10	1
4901784	190	C	09/16/2020	10:49	-133.105	43.442	0	1300.40	0	2.9130	0	37.6050	8	29.985	0	1286.011	0	17.2	4	5.4	4	-1E+10	1	-1E+10	1	-1E+10	1	-1E+10	1	-1E+10	1	-1E+10	1
4901784	190	C	09/16/2020	10:49	-133.105	43.442	0	1304.90	0	2.9020	0	37.6070	8	29.987	0	1290.448	0	17.3	4	5.5	4	-1E+10	1	-1E+10	1	-1E+10	1	-1E+10	1	-1E+10	1	-1E+10	1
4901784	190	C	09/16/2020	10:49	-133.105	43.442	0	1309.50	0	2.8960	0	37.6080	8	29.989	0	1294.983	0	17.4	4	5.5	4	-1E+10	1	-1E+10	1	-1E+10	1	-1E+10	1	-1E+10	1	-1E+10	1
4901784	190	C	09/16/2020	10:49	-133.105	43.442	0	1315.10	0	2.8920	0	37.6090	8	29.990	0	1300.503	0	17.6	4	5.5	4	-1E+10	1	-1E+10	1	-1E+10	1	-1E+10	1	-1E+10	1	-1E+10	1
4901784	190	C	09/16/2020	10:49	-133.105	43.442	0	1320.60	0	2.8780	0	37.6110	8	29.993	0	1305.925	0	17.8	4	5.6	4	-1E+10	1	-1E+10	1	-1E+10	1	-1E+10	1	-1E+10	1	-1E+10	1
4901784	190	C	09/16/2020	10:49	-133.105	43.442	0	1325.20	0	2.8720	0	37.6120	8	29.994	0	1310.460	0	18.0	4	5.7	4	-1E+10	1	-1E+10	1	-1E+10	1	-1E+10	1	-1E+10	1	-1E+10	1
4901784	190	C	09/16/2020	10:49	-133.105	43.442	0	1329.90	0	2.8640	0	37.6140	8	29.997	0	1315.093	0	18.3	4	5.8	4	-1E+10	1	-1E+10	1	-1E+10	1	-1E+10	1	-1E+10	1	-1E+10	1
4901784	190	C	09/16/2020	10:49	-133.105	43.442	0	1335.40	0	2.8570	0	37.6160	8	29.999	0	1320.514	0	18.5	4	5.8	4	-1E+10	1	-1E+10	1	-1E+10	1	-1E+10	1	-1E+10	1	-1E+10	1
4901784	190	C	09/16/2020	10:49	-133.105	43.442	0	1340.00	0	2.8410	0	37.6190	8	30.003	0	1325.049	0	18.8	4	5.9	4	-1E+10	1	-1E+10	1	-1E+10	1	-1E+10	1	-1E+10	1	-1E+10	1
4901784	190	C	09/16/2020	10:49	-133.105	43.442	0	1344.60	0	2.8320	0	37.6200	8	30.005	0	1329.583	0	18.9	4	6.0	4	-1E+10	1	-1E+10	1	-1E+10	1	-1E+10	1	-1E+10	1	-1E+10	1
4901784	190	C	09/16/2020	10:49	-133.105	43.442	0	1350.10	0	2.8210	0	37.6220	8	30.007	0	1335.004	0	19.1	4	6.0	4	-1E+10	1	-1E+10	1	-1E+10	1	-1E+10	1	-1E+10	1	-1E+10	1
4901784	190	C	09/16/2020	10:49	-133.105	43.442	0	1355.60	0	2.8140	0	37.6230	8	30.009	0	1340.425	0	19.3	4	6.1	4	-1E+10	1	-1E+10	1	-1E+10	1	-1E+10	1	-1E+10	1	-1E+10	1
4901784	190	C	09/16/2020	10:49	-133.105	43.442	0	1360.20	0	2.8050	0	37.6250	8	30.011	0	1344.959	0	19.5	4	6.1	4	-1E+10	1	-1E+10	1	-1E+10	1	-1E+10	1	-1E+10	1	-1E+10	1
4901784	190	C	09/16/2020	10:49	-133.105	43.442	0	1364.80	0	2.7990	0	37.6260	8	30.013	0	1349.493	0	19.6	4	6.2	4	-1E+10	1	-1E+10	1	-1E+10	1	-1E+10	1	-1E+10	1	-1E+10	1
4901784	190	C	09/16/2020	10:49	-133.105	43.442	0	1370.30	0	2.7930	0	37.6270	8	30.014	0	1354.913	0	19.8	4	6.2	4	-1E+10	1	-1E+10	1	-1E+10	1	-1E+10	1	-1E+10	1	-1E+10	1
4901784	190	C	09/16/2020	10:49	-133.105	43.442	0	1375.00	0	2.7860	0	37.6280	8	30.016	0	1359.545	0	20.1	4	6.3	4	-1E+10	1	-1E+10	1	-1E+10	1	-1E+10	1	-1E+10	1	-1E+10	1
4901784	190	C	09/16/2020	10:49	-133.105	43.442	0	1379.60	0	2.7760	0	37.6300	8	30.018	0	1364.079	0	20.3	4	6.4	4	-1E+10	1	-1E+10	1	-1E+10	1	-1E+10	1	-1E+10	1	-1E+10	1
4901784	190	C	09/16/2020	10:49	-133.105	43.442	0	1385.10	0	2.7670	0	37.6320	8	30.021	0	1369.499	0	20.5	4	6.5	4	-1E+10	1	-1E+10	1	-1E+10	1	-1E+10	1	-1E+10	1	-1E+10	1
4901784	190	C	09/16/2020	10:49	-133.105	43.442	0	1389.80	0	2.7600	0	37.6330	8	30.022	0	1374.131	0	20.8	4	6.5	4	-1E+10	1	-1E+10	1	-1E+10	1	-1E+10	1	-1E+10	1	-1E+10	1
4901784	190	C	09/16/2020	10:49	-133.105	43.442	0	1394.40	0	2.7480	0	37.6350	8	30.025	0	1378.664	0	21.0	4	6.6	4	-1E+10	1	-1E+10	1	-1E+10	1	-1E+10	1	-1E+10	1	-1E+10	1
4901784	190	C	09/16/2020	10:49	-133.105	43.442	0	1399.90	0	2.7390	0	37.6360	8	30.027	0	1384.084	0	21.3	4	6.7	4	-1E+10	1	-1E+10	1	-1E+10	1	-1E+10	1	-1E+10	1	-1E+10	1
4901784	190	C	09/16/2020	10:49	-133.105	43.442	0	1405.40	0	2.7260	0	37.6380	8	30.030	0	1389.504	0	21.6	4	6.8	4	-1E+10	1	-1E+10	1	-1E+10	1	-1E+10	1	-1E+10	1	-1E+10	1
4901784	190	C	09/16/2020	10:49	-133.105	43.442	0	1410.10	0	2.7170	0	37.6400	8	30.032	0	1394.135	0	21.9	4	6.9	4	-1E+10	1	-1E+10	1	-1E+10	1	-1E+10	1	-1E+10	1	-1E+10	1
4901784	190	C	09/16/2020	10:49	-133.105	43.442	0	1414.80	0	2.7090	0	37.6410	8	30.034	0	1398.766	0	22.2	4	7.0	4	-1E+10	1	-1E+10	1	-1E+10	1	-1E+10	1	-1E+10	1	-1E+10	1
4901784	190	C	09/16/2020	10:49	-133.105	43.442	0	1420.40	0	2.7020	0	37.6430	8	30.036	0	1404.284	0	22.5	4	7.1	4	-1E+10	1	-1E+10	1	-1E+10	1	-1E+10	1	-1E+10	1	-1E+10	1
4901784	190	C	09/16/2020	10:49	-133.105	43.442	0	1425.10	0	2.6890	0	37.6460	8	30.040	0	1408.915	0	22.9	4	7.2	4	-1E+10	1	-1E+10	1	-1E+10	1	-1E+10	1	-1E+10	1	-1E+10	1
4901784	190	C	09/16/2020	10:49	-133.105	43.442	0	1429.70	0	2.6820	0	37.6470	8	30.041	0	1413.447	0	23.2	4	7.3	4	-1E+10	1	-1E+10	1	-1E+10	1	-1E+10	1	-1E+10	1	-1E+10	1
4901784	190	C	09/16/2020	10:49	-133.105	43.442	0	1435.40	0	2.6740	0	37.6490	8	30.044	0	1419.064	0	23.6	4	7.4	4	-1E+10	1	-1E+10	1	-1E+10	1	-1E+10	1	-1E+10	1	-1E+10	1
4901784	190	C	09/16/2020	10:49	-133.105	43.442	0	1440.10	0	2.6660	0	37.6500	8	30.045	0	1423.694	0	23.9	4	7.5	4	-1E+10	1	-1E+10	1	-1E+10	1	-1E+10	1	-1E+10	1	-1E+10	1
4901784	190	C	09/16/2020	10:49	-133.105	43.442	0	1444.70	0	2.6570	0	37.6520	8	30.048	0	1428.226	0	24.3	4	7.6	4	-1E+10	1	-1E+10	1	-1E+10	1	-1E+10	1	-1E+10	1	-1E+10	1
4901784	190	C	09/16/2020	10:49	-133.105	43.442	0	1450.20	0	2.6460	0	37.6540	8	30.050	0	1433.645	0	24.7	4	7.7	4	-1E+10	1	-1E+10	1	-1E+10	1	-1E+10	1	-1E+10	1	-1E+10	1
4901784	190	C	09/16/2020	10:49	-133.105	43.442	0	1454.90	0	2.6380	0	37.6560	8	30.053	0	1438.275	0	24.9	4	7.8	4	-1E+10	1	-1E+10	1	-1E+10	1	-1E+10	1	-1E+10	1	-1E+10	1
4901784	190	C	09/16/2020	10:49	-133.105	43.442	0	1460.10	0	2.6270	0	37.6580	8	30.055	0	1443.398	0	25.2	4	7.9	4	-1E+10	1	-1E+10	1	-1E+10	1	-1E+10	1	-1E+10	1	-1E+10	1
4901784	190	C	09/16/2020	10:49	-133.105	43.442	0	1465.30	0	2.6200	0	37.6590	8	30.057	0	1448.521	0	25.5	4	8.0	4	-1E+10	1	-1E+10	1	-1E+10	1	-1E+10	1	-1E+10	1	-1E+10	1
4901784	190	C	09/16/2020	10:49	-133.105	43.442	0	1470.20	0	2.6140	0	37.6600	8	30.058	0	1453.348	0	25.8	4	8.1	4	-1E+10	1	-1E+10	1	-1E+10	1	-1E+10	1	-1E+10	1	-1E+10	1
4901784	190	C	09/16/2020	10:49	-133.105	43.442	0	1475.10	0	2.6080	0	37.6620	8	30.061	0	1458.175	0	26.1	4	8.2	4	-1E+10	1	-1E+10	1	-1E+10	1	-1E+10	1	-1E+10	1	-1E+10	1
4901784	190	C	09/16/2020	10:49	-133.105	43.442	0	1480.10	0	2.6030	0	37.6630	8	30.062	0	1463.100	0	26.3	4	8.2	4	-1E+10	1	-1E+10	1	-1E+10	1	-1E+10	1	-1E+10	1	-1E+10	1
4901784	190	C	09/16/2020	10:49	-133.105	43.442	0	1485.00	0	2.5910	0	37.6640	8	30.064	0	1467.927	0	26.6	4	8.3	4	-1E+10	1	-1E+10	1	-1E+10	1	-1E+10	1	-1E+10	1	-1E+10	1
4901784	190	C	09/16/2020	10:49	-133.105	43.442	0	1490.00	0	2.5830	0	37.6660	8	30.066	0	1472.852	0	26.9	4	8.4	4	-1E+10	1	-1E+10	1	-1E+10	1	-1E+10	1	-1E+10	1	-1E+10	1
4901784	190	C	09/16/2020	10:49	-133.105	43.442	0	1495.10	0	2.5760	0	37.6680	8	30.069	0	1477.875	0	27.3	4	8.6	4	-1E+10	1	-1E+10	1	-1E+10	1	-1E+10	1	-1E+10	1	-1E+10	1
4901784	190	C	09/16/2020	10:49	-133.105	43.442	0	1500.10	0	2.5730	0	37.6690	8	30.070	0	1482.800	0	27.7	4	8.7	4	-1E+10	1	-1E+10	1	-1E+10	1	-1E+10	1	-1E+10	1	-1E+10	1
4901784	190	C	09/16/2020	10:49	-133.105	43.442	0	1505.10	0	2.5620	0	37.6710	8	30.072	0	1487.725	0	27.8	4	8.7	4	-1E+10	1	-1E+10	1	-1E+10	1	-1E+10	1	-1E+10	1	-1E+10	1
4901784	190	C	09/16/2020	10:49	-133.105	43.442	0	1510.10	0	2.5530	0	37.6710	8	30.073	0	1492.650	0	27.8	4	8.7	4	-1E+10	1	-1E+10	1	-1E+10	1	-1E+10	1	-1E+10	1	-1E+10	1
4901784	190	C	09/16/2020	10:49	-133.105	43.442	0	1515.00	0	2.5470	0	37.6710	8	30.074	0	1497.476	0	28.1	4	8.8	4	-1E+10	1	-1E+10	1	-1E+10	1	-1E+10	1	-1E+10	1	-1E+10	1
4901784	190	C	09/16/2020	10:49	-133.105	43.442	0	1520.10	0	2.5400	0	37.6730	8	30.076	0	1502.498	0	28.6	4	9.0	4	-1E+10	1	-1E+10	1	-1E+10	1	-1E+10	1	-1E+10	1	-1E+10	1
4901784	190	C	09/16/2020	10:49	-133.105	43.442	0	1525.10	0	2.5260	0	37.6760	8	30.080	0	1507.423	0	29.1	4	9.1	4	-1E+10	1	-1E+10	1	-1E+10	1	-1E+10	1	-1E+10	1	-1E+10	1
4901784	190	C	09/16/2020	10:49	-133.105	43.442	0	1530.10	0	2.5150	0	37.6770	8	30.082	0	1512.347	0	29.3	4	9.2	4	-1E+10	1	-1E+10	1	-1E+10	1	-1E+10	1	-1E+10	1	-1E+10	1
4901784	190	C	09/16/2020	10:49	-133.105	43.442	0	1535.10	0	2.5080	0	37.6780	8	30.083	0	1517.271	0	29.5	4	9.2	4	-1E+10	1	-1E+10	1	-1E+10	1	-1E+10	1	-1E+10	1	-1E+10	1
4901784	190	C	09/16/2020	10:49	-133.105	43.442	0	1540.10	0	2.5000	0	37.6800	8	30.085	0	1522.195	0	29.9	4	9.4	4	-1E+10	1	-1E+10	1	-1E+10	1	-1E+10	1	-1E+10	1	-1E+10	1
4901784	190	C	09/16/2020	10:49	-133.105	43.442	0	1545.20	0	2.4930	0	37.6810	8	30.087	0	1527.217	0	30.3	4	9.5	4	-1E+10	1	-1E+10	1	-1E+10	1	-1E+10	1	-1E+10	1	-1E+10	1
4901784	190	C	09/16/2020	10:49	-133.105	43.442	0	1550.30	0	2.4830	0	37.6830	8	30.090	0	1532.239	0	30.7	4	9.6	4	-1E+10	1	-1E+10	1	-1E+10	1	-1E+10	1	-1E+10	1	-1E+10	1
4901784	190	C	09/16/2020	10:49	-133.105	43.442	0	1555.40	0	2.4790	0	37.6840	8	30.091	0	1537.262	0	31.1	4	9.7	4	-1E+10	1	-1E+10	1	-1E+10	1	-1E+10	1	-1E+10	1	-1E+10	1
4901784	190	C	09/16/2020	10:49	-133.105	43.442	0	1560.50	0	2.4710	0	37.6850	8	30.092	0	1542.283	0	31.3	4	9.8	4	-1E+10	1	-1E+10	1	-1E+10	1	-1E+10	1	-1E+10	1	-1E+10	1
4901784	190	C	09/16/2020	10:49	-133.105	43.442	0	1565.70	0	2.4530	0	37.6870	8	30.096	0	1547.404	0	31.6	4	9.9	4	-1E+10	1	-1E+10	1	-1E+10	1	-1E+10	1	-1E+10	1	-1E+10	1
4901784	190	C	09/16/2020	10:49	-133.105	43.442	0	1570.00	0	2.4470	0	37.6880	8	30.097	0	1551.638	0	31.9	4	10.0	4	-1E+10	1	-1E+10	1	-1E+10	1	-1E+10	1	-1E+10	1	-1E+10	1
4901784	190	C	09/16/2020	10:49	-133.105	43.442	0	1574.30	0	2.4380	0	37.6890	8	30.099	0	1555.872	0	32.0	4	10.0	4	-1E+10	1	-1E+10	1	-1E+10	1	-1E+10	1	-1E+10	1	-1E+10	1
4901784	190	C	09/16/2020	10:49	-133.105	43.442	0	1579.70	0	2.4280	0	37.6910	8	30.101	0	1561.188	0	32.1	4	10.0	4	-1E+10	1	-1E+10	1	-1E+10	1	-1E+10	1	-1E+10	1	-1E+10	1
4901784	190	C	09/16/2020	10:49	-133.105	43.442	0	1585.00	0	2.4240	0	37.6910	8	30.102	0	1566.407	0	32.2	4	10.1	4	-1E+10	1	-1E+10	1	-1E+10	1	-1E+10	1	-1E+10	1	-1E+10	1
4901784	190	C	09/16/2020	10:49	-133.105	43.442	0	1590.20	0	2.4110	0	37.6920	8	30.104	0	1571.526	0	32.4	4	10.1	4	-1E+10	1	-1E+10	1	-1E+10	1	-1E+10	1	-1E+10	1	-1E+10	1
4901784	190	C	09/16/2020	10:49	-133.105	43.442	0	1595.50	0	2.4050	0	37.6930	8	30.105	0	1576.745	0	32.7	4	10.2	4	-1E+10	1	-1E+10	1	-1E+10	1	-1E+10	1	-1E+10	1	-1E+10	1
4901784	190	C	09/16/2020	10:49	-133.105	43.442	0	1600.70	0	2.3950	0	37.6950	8	30.108	0	1581.864	0	33.2	4	10.4	4	-1E+10	1	-1E+10	1	-1E+10	1	-1E+10	1	-1E+10	1	-1E+10	1
4901784	190	C	09/16/2020	10:49	-133.105	43.442	0	1605.10	0	2.3950	0	37.6960	8	30.108	0	1586.196	0	33.6	4	10.5	4	-1E+10	1	-1E+10	1	-1E+10	1	-1E+10	1	-1E+10	1	-1E+10	1
4901784	190	C	09/16/2020	10:49	-133.105	43.442	0	1609.50	0	2.3900	0	37.6970	8	30.110	0	1590.527	0	33.7	4	10.5	4	-1E+10	1	-1E+10	1	-1E+10	1	-1E+10	1	-1E+10	1	-1E+10	1
4901784	190	C	09/16/2020	10:49	-133.105	43.442	0	1614.90	0	2.3770	0	37.6980	8	30.112	0	1595.843	0	34.0	4	10.6	4	-1E+10	1	-1E+10	1	-1E+10	1	-1E+10	1	-1E+10	1	-1E+10	1
4901784	190	C	09/16/2020	10:49	-133.105	43.442	0	1620.10	0	2.3710	0	37.6990	8	30.113	0	1600.962	0	34.5	4	10.8	4	-1E+10	1	-1E+10	1	-1E+10	1	-1E+10	1	-1E+10	1	-1E+10	1
4901784	190	C	09/16/2020	10:49	-133.105	43.442	0	1625.50	0	2.3650	0	37.7010	8	30.115	0	1606.278	0	34.9	4	10.9	4	-1E+10	1	-1E+10	1	-1E+10	1	-1E+10	1	-1E+10	1	-1E+10	1
4901784	190	C	09/16/2020	10:49	-133.105	43.442	0	1630.00	0	2.3600	0	37.7020	8	30.117	0	1610.708	0	35.1	4	10.9	4	-1E+10	1	-1E+10	1	-1E+10	1	-1E+10	1	-1E+10	1	-1E+10	1
4901784	190	C	09/16/2020	10:49	-133.105	43.442	0	1635.20	0	2.3450	0	37.7030	8	30.119	0	1615.826	0	35.2	4	11.0	4	-1E+10	1	-1E+10	1	-1E+10	1	-1E+10	1	-1E+10	1	-1E+10	1
4901784	190	C	09/16/2020	10:49	-133.105	43.442	0	1640.20	0	2.3310	0	37.7040	8	30.121	0	1620.748	0	35.6	4	11.1	4	-1E+10	1	-1E+10	1	-1E+10	1	-1E+10	1	-1E+10	1	-1E+10	1
4901784	190	C	09/16/2020	10:49	-133.105	43.442	0	1645.00	0	2.3240	0	37.7060	8	30.123	0	1625.473	0	36.1	4	11.2	4	-1E+10	1	-1E+10	1	-1E+10	1	-1E+10	1	-1E+10	1	-1E+10	1
4901784	190	C	09/16/2020	10:49	-133.105	43.442	0	1649.80	0	2.3180	0	37.7070	8	30.124	0	1630.197	0	36.5	4	11.4	4	-1E+10	1	-1E+10	1	-1E+10	1	-1E+10	1	-1E+10	1	-1E+10	1
4901784	190	C	09/16/2020	10:49	-133.105	43.442	0	1654.60	0	2.3120	0	37.7090	8	30.127	0	1634.922	0	37.0	4	11.5	4	-1E+10	1	-1E+10	1	-1E+10	1	-1E+10	1	-1E+10	1	-1E+10	1
4901784	190	C	09/16/2020	10:49	-133.105	43.442	0	1659.50	0	2.3160	0	37.7100	8	30.127	0	1639.745	0	37.3	4	11.6	4	-1E+10	1	-1E+10	1	-1E+10	1	-1E+10	1	-1E+10	1	-1E+10	1
4901784	190	C	09/16/2020	10:49	-133.105	43.442	0	1664.30	0	2.2910	0	37.7110	8	30.130	0	1644.469	0	37.3	4	11.6	4	-1E+10	1	-1E+10	1	-1E+10	1	-1E+10	1	-1E+10	1	-1E+10	1
4901784	190	C	09/16/2020	10:49	-133.105	43.442	0	1669.20	0	2.2850	0	37.7120	8	30.132	0	1649.291	0	37.6	4	11.7	4	-1E+10	1	-1E+10	1	-1E+10	1	-1E+10	1	-1E+10	1	-1E+10	1
4901784	190	C	09/16/2020	10:49	-133.105	43.442	0	1674.20	0	2.2750	0	37.7130	8	30.133	0	1654.212	0	38.0	4	11.8	4	-1E+10	1	-1E+10	1	-1E+10	1	-1E+10	1	-1E+10	1	-1E+10	1
4901784	190	C	09/16/2020	10:49	-133.105	43.442	0	1679.20	0	2.2630	0	37.7150	8	30.136	0	1659.133	0	38.5	4	12.0	4	-1E+10	1	-1E+10	1	-1E+10	1	-1E+10	1	-1E+10	1	-1E+10	1
4901784	190	C	09/16/2020	10:49	-133.105	43.442	0	1684.20	0	2.2540	0	37.7160	8	30.138	0	1664.054	0	38.9	4	12.1	4	-1E+10	1	-1E+10	1	-1E+10	1	-1E+10	1	-1E+10	1	-1E+10	1
4901784	190	C	09/16/2020	10:49	-133.105	43.442	0	1689.30	0	2.2450	0	37.7180	8	30.140	0	1669.073	0	39.1	4	12.2	4	-1E+10	1	-1E+10	1	-1E+10	1	-1E+10	1	-1E+10	1	-1E+10	1
4901784	190	C	09/16/2020	10:49	-133.105	43.442	0	1694.30	0	2.2400	0	37.7190	8	30.141	0	1673.993	0	39.5	4	12.3	4	-1E+10	1	-1E+10	1	-1E+10	1	-1E+10	1	-1E+10	1	-1E+10	1
4901784	190	C	09/16/2020	10:49	-133.105	43.442	0	1699.40	0	2.2320	0	37.7200	8	30.143	0	1679.012	0	39.9	4	12.4	4	-1E+10	1	-1E+10	1	-1E+10	1	-1E+10	1	-1E+10	1	-1E+10	1
4901784	190	C	09/16/2020	10:49	-133.105	43.442	0	1704.60	0	2.2240	0	37.7210	8	30.145	0	1684.129	0	40.2	4	12.5	4	-1E+10	1	-1E+10	1	-1E+10	1	-1E+10	1	-1E+10	1	-1E+10	1
4901784	190	C	09/16/2020	10:49	-133.105	43.442	0	1709.70	0	2.2170	0	37.7230	8	30.147	0	1689.147	0	40.5	4	12.6	4	-1E+10	1	-1E+10	1	-1E+10	1	-1E+10	1	-1E+10	1	-1E+10	1
4901784	190	C	09/16/2020	10:49	-133.105	43.442	0	1714.90	0	2.2110	0	37.7230	8	30.147	0	1694.264	0	40.9	4	12.7	4	-1E+10	1	-1E+10	1	-1E+10	1	-1E+10	1	-1E+10	1	-1E+10	1
4901784	190	C	09/16/2020	10:49	-133.105	43.442	0	1720.20	0	2.1990	0	37.7250	8	30.150	0	1699.479	0	41.4	4	12.8	4	-1E+10	1	-1E+10	1	-1E+10	1	-1E+10	1	-1E+10	1	-1E+10	1
4901784	190	C	09/16/2020	10:49	-133.105	43.442	0	1725.50	0	2.1930	0	37.7260	8	30.151	0	1704.694	0	41.6	4	12.9	4	-1E+10	1	-1E+10	1	-1E+10	1	-1E+10	1	-1E+10	1	-1E+10	1
4901784	190	C	09/16/2020	10:49	-133.105	43.442	0	1729.90	0	2.1920	0	37.7270	8	30.152	0	1709.023	0	41.8	4	13.0	4	-1E+10	1	-1E+10	1	-1E+10	1	-1E+10	1	-1E+10	1	-1E+10	1
4901784	190	C	09/16/2020	10:49	-133.105	43.442	0	1734.40	0	2.1880	0	37.7270	8	30.153	0	1713.451	0	42.2	4	13.1	4	-1E+10	1	-1E+10	1	-1E+10	1	-1E+10	1	-1E+10	1	-1E+10	1
4901784	190	C	09/16/2020	10:49	-133.105	43.442	0	1739.80	0	2.1770	0	37.7290	8	30.155	0	1718.763	0	42.7	4	13.3	4	-1E+10	1	-1E+10	1	-1E+10	1	-1E+10	1	-1E+10	1	-1E+10	1
4901784	190	C	09/16/2020	10:49	-133.105	43.442	0	1745.20	0	2.1670	0	37.7300	8	30.157	0	1724.076	0	43.1	4	13.4	4	-1E+10	1	-1E+10	1	-1E+10	1	-1E+10	1	-1E+10	1	-1E+10	1
4901784	190	C	09/16/2020	10:49	-133.105	43.442	0	1749.80	0	2.1620	0	37.7320	8	30.159	0	1728.602	0	43.4	4	13.5	4	-1E+10	1	-1E+10	1	-1E+10	1	-1E+10	1	-1E+10	1	-1E+10	1
4901784	190	C	09/16/2020	10:49	-133.105	43.442	0	1754.90	0	2.1550	0	37.7330	8	30.161	0	1733.619	0	43.7	4	13.6	4	-1E+10	1	-1E+10	1	-1E+10	1	-1E+10	1	-1E+10	1	-1E+10	1
4901784	190	C	09/16/2020	10:49	-133.105	43.442	0	1760.60	0	2.1520	0	37.7330	8	30.161	0	1739.227	0	44.0	4	13.6	4	-1E+10	1	-1E+10	1	-1E+10	1	-1E+10	1	-1E+10	1	-1E+10	1
4901784	190	C	09/16/2020	10:49	-133.105	43.442	0	1765.40	0	2.1460	0	37.7340	8	30.162	0	1743.949	0	44.4	4	13.8	4	-1E+10	1	-1E+10	1	-1E+10	1	-1E+10	1	-1E+10	1	-1E+10	1
4901784	190	C	09/16/2020	10:49	-133.105	43.442	0	1770.20	0	2.1400	0	37.7350	8	30.164	0	1748.671	0	44.9	4	13.9	4	-1E+10	1	-1E+10	1	-1E+10	1	-1E+10	1	-1E+10	1	-1E+10	1
4901784	190	C	09/16/2020	10:49	-133.105	43.442	0	1775.10	0	2.1330	0	37.7370	8	30.166	0	1753.491	0	45.5	4	14.1	4	-1E+10	1	-1E+10	1	-1E+10	1	-1E+10	1	-1E+10	1	-1E+10	1
4901784	190	C	09/16/2020	10:49	-133.105	43.442	0	1780.00	0	2.1200	0	37.7390	8	30.169	0	1758.311	0	46.1	4	14.3	4	-1E+10	1	-1E+10	1	-1E+10	1	-1E+10	1	-1E+10	1	-1E+10	1
4901784	190	C	09/16/2020	10:49	-133.105	43.442	0	1784.90	0	2.1130	0	37.7410	8	30.171	0	1763.131	0	46.7	4	14.5	4	-1E+10	1	-1E+10	1	-1E+10	1	-1E+10	1	-1E+10	1	-1E+10	1
4901784	190	C	09/16/2020	10:49	-133.105	43.442	0	1789.90	0	2.1100	0	37.7420	8	30.172	0	1768.049	0	47.2	4	14.6	4	-1E+10	1	-1E+10	1	-1E+10	1	-1E+10	1	-1E+10	1	-1E+10	1
4901784	190	C	09/16/2020	10:49	-133.105	43.442	0	1795.00	0	2.1040	0	37.7440	8	30.174	0	1773.066	0	47.8	4	14.8	4	-1E+10	1	-1E+10	1	-1E+10	1	-1E+10	1	-1E+10	1	-1E+10	1
4901784	190	C	09/16/2020	10:49	-133.105	43.442	0	1800.10	0	2.0940	0	37.7460	8	30.177	0	1778.082	0	48.1	4	14.9	4	-1E+10	1	-1E+10	1	-1E+10	1	-1E+10	1	-1E+10	1	-1E+10	1
4901784	190	C	09/16/2020	10:49	-133.105	43.442	0	1805.20	0	2.0940	0	37.7460	8	30.177	0	1783.098	0	48.3	4	15.0	4	-1E+10	1	-1E+10	1	-1E+10	1	-1E+10	1	-1E+10	1	-1E+10	1
4901784	190	C	09/16/2020	10:49	-133.105	43.442	0	1810.40	0	2.0890	0	37.7470	8	30.178	0	1788.213	0	48.6	4	15.0	4	-1E+10	1	-1E+10	1	-1E+10	1	-1E+10	1	-1E+10	1	-1E+10	1
4901784	190	C	09/16/2020	10:49	-133.105	43.442	0	1815.60	0	2.0850	0	37.7470	8	30.178	0	1793.327	0	48.9	4	15.1	4	-1E+10	1	-1E+10	1	-1E+10	1	-1E+10	1	-1E+10	1	-1E+10	1
4901784	190	C	09/16/2020	10:49	-133.105	43.442	0	1820.00	0	2.0820	0	37.7480	8	30.179	0	1797.654	0	49.2	4	15.2	4	-1E+10	1	-1E+10	1	-1E+10	1	-1E+10	1	-1E+10	1	-1E+10	1
4901784	190	C	09/16/2020	10:49	-133.105	43.442	0	1824.40	0	2.0750	0	37.7490	8	30.181	0	1801.982	0	49.4	4	15.3	4	-1E+10	1	-1E+10	1	-1E+10	1	-1E+10	1	-1E+10	1	-1E+10	1
4901784	190	C	09/16/2020	10:49	-133.105	43.442	0	1829.80	0	2.0690	0	37.7500	8	30.182	0	1807.292	0	49.7	4	15.4	4	-1E+10	1	-1E+10	1	-1E+10	1	-1E+10	1	-1E+10	1	-1E+10	1
4901784	190	C	09/16/2020	10:49	-133.105	43.442	0	1835.10	0	2.0650	0	37.7510	8	30.183	0	1812.505	0	50.0	4	15.5	4	-1E+10	1	-1E+10	1	-1E+10	1	-1E+10	1	-1E+10	1	-1E+10	1
4901784	190	C	09/16/2020	10:49	-133.105	43.442	0	1840.40	0	2.0590	0	37.7520	8	30.185	0	1817.717	0	50.5	4	15.6	4	-1E+10	1	-1E+10	1	-1E+10	1	-1E+10	1	-1E+10	1	-1E+10	1
4901784	190	C	09/16/2020	10:49	-133.105	43.442	0	1844.80	0	2.0510	0	37.7540	8	30.187	0	1822.044	0	50.7	4	15.7	4	-1E+10	1	-1E+10	1	-1E+10	1	-1E+10	1	-1E+10	1	-1E+10	1
4901784	190	C	09/16/2020	10:49	-133.105	43.442	0	1849.30	0	2.0500	0	37.7540	8	30.187	0	1826.469	0	50.9	4	15.8	4	-1E+10	1	-1E+10	1	-1E+10	1	-1E+10	1	-1E+10	1	-1E+10	1
4901784	190	C	09/16/2020	10:49	-133.105	43.442	0	1854.80	0	2.0480	0	37.7540	8	30.187	0	1831.877	0	51.3	4	15.9	4	-1E+10	1	-1E+10	1	-1E+10	1	-1E+10	1	-1E+10	1	-1E+10	1
4901784	190	C	09/16/2020	10:49	-133.105	43.442	0	1860.30	0	2.0420	0	37.7560	8	30.190	0	1837.286	0	51.7	4	16.0	4	-1E+10	1	-1E+10	1	-1E+10	1	-1E+10	1	-1E+10	1	-1E+10	1
4901784	190	C	09/16/2020	10:49	-133.105	43.442	0	1864.90	0	2.0380	0	37.7570	8	30.191	0	1841.809	0	52.0	4	16.1	4	-1E+10	1	-1E+10	1	-1E+10	1	-1E+10	1	-1E+10	1	-1E+10	1
4901784	190	C	09/16/2020	10:49	-133.105	43.442	0	1869.40	0	2.0330	0	37.7580	8	30.192	0	1846.233	0	52.3	4	16.2	4	-1E+10	1	-1E+10	1	-1E+10	1	-1E+10	1	-1E+10	1	-1E+10	1
4901784	190	C	09/16/2020	10:49	-133.105	43.442	0	1874.80	0	2.0300	0	37.7580	8	30.192	0	1851.543	0	52.7	4	16.3	4	-1E+10	1	-1E+10	1	-1E+10	1	-1E+10	1	-1E+10	1	-1E+10	1
4901784	190	C	09/16/2020	10:49	-133.105	43.442	0	1880.40	0	2.0240	0	37.7600	8	30.195	0	1857.049	0	52.9	4	16.4	4	-1E+10	1	-1E+10	1	-1E+10	1	-1E+10	1	-1E+10	1	-1E+10	1
4901784	190	C	09/16/2020	10:49	-133.105	43.442	0	1885.00	0	2.0230	0	37.7600	8	30.195	0	1861.572	0	53.1	4	16.4	4	-1E+10	1	-1E+10	1	-1E+10	1	-1E+10	1	-1E+10	1	-1E+10	1
4901784	190	C	09/16/2020	10:49	-133.105	43.442	0	1889.70	0	2.0210	0	37.7610	8	30.196	0	1866.193	0	53.2	4	16.4	4	-1E+10	1	-1E+10	1	-1E+10	1	-1E+10	1	-1E+10	1	-1E+10	1
4901784	190	C	09/16/2020	10:49	-133.105	43.442	0	1894.90	0	2.0190	0	37.7610	8	30.196	0	1871.305	0	53.4	4	16.5	4	-1E+10	1	-1E+10	1	-1E+10	1	-1E+10	1	-1E+10	1	-1E+10	1
4901784	190	C	09/16/2020	10:49	-133.105	43.442	0	1899.20	0	2.0170	0	37.7620	8	30.197	0	1875.533	0	53.5	4	16.6	4	-1E+10	1	-1E+10	1	-1E+10	1	-1E+10	1	-1E+10	1	-1E+10	1
4901784	190	C	09/16/2020	10:49	-133.105	43.442	0	1905.00	0	2.0120	0	37.7620	8	30.197	0	1881.235	0	53.9	4	16.7	4	-1E+10	1	-1E+10	1	-1E+10	1	-1E+10	1	-1E+10	1	-1E+10	1
4901784	190	C	09/16/2020	10:49	-133.105	43.442	0	1910.60	0	2.0070	0	37.7630	8	30.199	0	1886.740	0	54.4	4	16.8	4	-1E+10	1	-1E+10	1	-1E+10	1	-1E+10	1	-1E+10	1	-1E+10	1
4901784	190	C	09/16/2020	10:49	-133.105	43.442	0	1915.50	0	2.0000	0	37.7650	8	30.201	0	1891.557	0	54.8	4	16.9	4	-1E+10	1	-1E+10	1	-1E+10	1	-1E+10	1	-1E+10	1	-1E+10	1
4901784	190	C	09/16/2020	10:49	-133.105	43.442	0	1920.40	0	1.9970	0	37.7650	8	30.201	0	1896.374	0	55.0	4	17.0	4	-1E+10	1	-1E+10	1	-1E+10	1	-1E+10	1	-1E+10	1	-1E+10	1
4901784	190	C	09/16/2020	10:49	-133.105	43.442	0	1925.30	0	1.9940	0	37.7660	8	30.202	0	1901.191	0	55.1	4	17.0	4	-1E+10	1	-1E+10	1	-1E+10	1	-1E+10	1	-1E+10	1	-1E+10	1
4901784	190	C	09/16/2020	10:49	-133.105	43.442	0	1930.10	0	1.9930	0	37.7660	8	30.202	0	1905.909	0	55.4	4	17.1	4	-1E+10	1	-1E+10	1	-1E+10	1	-1E+10	1	-1E+10	1	-1E+10	1
4901784	190	C	09/16/2020	10:49	-133.105	43.442	0	1935.00	0	1.9880	0	37.7670	8	30.204	0	1910.726	0	55.7	4	17.2	4	-1E+10	1	-1E+10	1	-1E+10	1	-1E+10	1	-1E+10	1	-1E+10	1
4901784	190	C	09/16/2020	10:49	-133.105	43.442	0	1940.00	0	1.9840	0	37.7680	8	30.205	0	1915.641	0	55.9	4	17.3	4	-1E+10	1	-1E+10	1	-1E+10	1	-1E+10	1	-1E+10	1	-1E+10	1
4901784	190	C	09/16/2020	10:49	-133.105	43.442	0	1944.90	0	1.9790	0	37.7680	8	30.205	0	1920.457	0	56.2	4	17.3	4	-1E+10	1	-1E+10	1	-1E+10	1	-1E+10	1	-1E+10	1	-1E+10	1
4901784	190	C	09/16/2020	10:49	-133.105	43.442	0	1949.90	0	1.9740	0	37.7690	8	30.207	0	1925.372	0	56.4	4	17.4	4	-1E+10	1	-1E+10	1	-1E+10	1	-1E+10	1	-1E+10	1	-1E+10	1
4901784	190	C	09/16/2020	10:49	-133.105	43.442	0	1954.90	0	1.9700	0	37.7690	8	30.207	0	1930.286	0	56.6	4	17.5	4	-1E+10	1	-1E+10	1	-1E+10	1	-1E+10	1	-1E+10	1	-1E+10	1
4901784	190	C	09/16/2020	10:49	-133.105	43.442	0	1959.90	0	1.9650	0	37.7700	8	30.208	0	1935.201	0	56.8	4	17.5	4	-1E+10	1	-1E+10	1	-1E+10	1	-1E+10	1	-1E+10	1	-1E+10	1
4901784	190	C	09/16/2020	10:49	-133.105	43.442	0	1965.00	0	1.9650	0	37.7710	8	30.209	0	1940.213	0	57.1	4	17.6	4	-1E+10	1	-1E+10	1	-1E+10	1	-1E+10	1	-1E+10	1	-1E+10	1
4901784	190	C	09/16/2020	10:49	-133.105	43.442	0	1970.10	0	1.9590	0	37.7710	8	30.210	0	1945.226	0	57.4	4	17.7	4	-1E+10	1	-1E+10	1	-1E+10	1	-1E+10	1	-1E+10	1	-1E+10	1
4901784	190	C	09/16/2020	10:49	-133.105	43.442	0	1975.20	0	1.9540	0	37.7720	8	30.211	0	1950.238	0	57.7	4	17.8	4	-1E+10	1	-1E+10	1	-1E+10	1	-1E+10	1	-1E+10	1	-1E+10	1
4901784	190	C	09/16/2020	10:49	-133.105	43.442	0	1980.30	0	1.9510	0	37.7730	8	30.212	0	1955.250	0	58.0	4	17.9	4	-1E+10	1	-1E+10	1	-1E+10	1	-1E+10	1	-1E+10	1	-1E+10	1
4901784	190	C	09/16/2020	10:49	-133.105	43.442	0	1985.40	0	1.9480	0	37.7740	8	30.213	0	1960.262	0	58.1	4	17.9	4	-1E+10	1	-1E+10	1	-1E+10	1	-1E+10	1	-1E+10	1	-1E+10	1
4901784	190	C	09/16/2020	10:49	-133.105	43.442	0	1990.50	0	1.9460	0	37.7740	8	30.213	0	1965.274	0	58.3	4	18.0	4	-1E+10	1	-1E+10	1	-1E+10	1	-1E+10	1	-1E+10	1	-1E+10	1
4901784	190	C	09/16/2020	10:49	-133.105	43.442	0	1995.60	0	1.9440	0	37.7740	8	30.213	0	1970.286	0	58.6	4	18.1	4	-1E+10	1	-1E+10	1	-1E+10	1	-1E+10	1	-1E+10	1	-1E+10	1
4901784	190	C	09/16/2020	10:49	-133.105	43.442	0	1999.90	0	1.9390	0	37.7750	8	30.215	0	1974.511	0	58.9	4	18.2	4	-1E+10	1	-1E+10	1	-1E+10	1	-1E+10	1	-1E+10	1	-1E+10	1
4901784	190	C	09/16/2020	10:49	-133.105	43.442	0	2004.80	0	1.9360	0	37.7760	8	30.216	0	1979.326	0	59.1	4	18.2	4	-1E+10	1	-1E+10	1	-1E+10	1	-1E+10	1	-1E+10	1	-1E+10	1
4901784	190	C	09/16/2020	10:49	-133.105	43.442	0	2010.20	0	1.9330	0	37.7770	8	30.217	0	1984.633	0	59.3	4	18.3	4	-1E+10	1	-1E+10	1	-1E+10	1	-1E+10	1	-1E+10	1	-1E+10	1
4901784	190	C	09/16/2020	10:49	-133.105	43.442	0	2015.50	0	1.9300	0	37.7770	8	30.217	0	1989.841	0	59.6	4	18.4	4	-1E+10	1	-1E+10	1	-1E+10	1	-1E+10	1	-1E+10	1	-1E+10	1
4901784	190	C	09/16/2020	10:49	-133.105	43.442	0	2020.10	0	1.9280	0	37.7780	8	30.218	0	1994.360	0	59.7	4	18.4	4	-1E+10	1	-1E+10	1	-1E+10	1	-1E+10	1	-1E+10	1	-1E+10	1
4901784	190	C	09/16/2020	10:49	-133.105	43.442	0																										
4901784	191	C	09/26/2020	10:46	-133.209	43.483	0	2.70	0	18.2010	0	35.1290	8	25.322	0	2.678	0	224.2	4	96.3	4	-1E+10	1	-1E+10	1	-1E+10	1	-1E+10	1	-1E+10	1	-1E+10	1
4901784	191	C	09/26/2020	10:46	-133.209	43.483	0	4.30	0	18.2000	0	35.1290	8	25.323	0	4.266	0	224.1	4	96.2	4	-1E+10	1	-1E+10	1	-1E+10	1	-1E+10	1	-1E+10	1	-1E+10	1
4901784	191	C	09/26/2020	10:46	-133.209	43.483	0	6.10	0	18.2010	0	35.1310	8	25.324	0	6.051	0	223.9	4	96.1	4	-1E+10	1	-1E+10	1	-1E+10	1	-1E+10	1	-1E+10	1	-1E+10	1
4901784	191	C	09/26/2020	10:46	-133.209	43.483	0	7.90	0	18.2020	0	35.1320	8	25.325	0	7.837	0	223.8	4	96.1	4	-1E+10	1	-1E+10	1	-1E+10	1	-1E+10	1	-1E+10	1	-1E+10	1
4901784	191	C	09/26/2020	10:46	-133.209	43.483	0	9.70	0	18.2030	0	35.1320	8	25.324	0	9.622	0	223.7	4	96.1	4	-1E+10	1	-1E+10	1	-1E+10	1	-1E+10	1	-1E+10	1	-1E+10	1
4901784	191	C	09/26/2020	10:46	-133.209	43.483	0	11.60	0	18.2030	0	35.1340	8	25.326	0	11.507	0	223.4	4	95.9	4	-1E+10	1	-1E+10	1	-1E+10	1	-1E+10	1	-1E+10	1	-1E+10	1
4901784	191	C	09/26/2020	10:46	-133.209	43.483	0	13.50	0	18.2030	0	35.1350	8	25.327	0	13.392	0	223.3	4	95.9	4	-1E+10	1	-1E+10	1	-1E+10	1	-1E+10	1	-1E+10	1	-1E+10	1
4901784	191	C	09/26/2020	10:46	-133.209	43.483	0	15.50	0	18.2030	0	35.1350	8	25.327	0	15.376	0	223.2	4	95.8	4	-1E+10	1	-1E+10	1	-1E+10	1	-1E+10	1	-1E+10	1	-1E+10	1
4901784	191	C	09/26/2020	10:46	-133.209	43.483	0	18.00	0	18.2040	0	35.1350	8	25.327	0	17.856	0	223.0	4	95.8	4	-1E+10	1	-1E+10	1	-1E+10	1	-1E+10	1	-1E+10	1	-1E+10	1
4901784	191	C	09/26/2020	10:46	-133.209	43.483	0	19.90	0	18.2040	0	35.1350	8	25.327	0	19.740	0	223.0	4	95.7	4	-1E+10	1	-1E+10	1	-1E+10	1	-1E+10	1	-1E+10	1	-1E+10	1
4901784	191	C	09/26/2020	10:46	-133.209	43.483	0	21.50	0	18.2030	0	35.1350	8	25.327	0	21.327	0	222.7	4	95.6	4	-1E+10	1	-1E+10	1	-1E+10	1	-1E+10	1	-1E+10	1	-1E+10	1
4901784	191	C	09/26/2020	10:46	-133.209	43.483	0	23.20	0	18.2040	0	35.1320	8	25.325	0	23.014	0	222.6	4	95.6	4	-1E+10	1	-1E+10	1	-1E+10	1	-1E+10	1	-1E+10	1	-1E+10	1
4901784	191	C	09/26/2020	10:46	-133.209	43.483	0	24.80	0	18.1870	0	35.1320	8	25.329	0	24.601	0	223.1	4	95.8	4	-1E+10	1	-1E+10	1	-1E+10	1	-1E+10	1	-1E+10	1	-1E+10	1
4901784	191	C	09/26/2020	10:46	-133.209	43.483	0	26.40	0	18.1810	0	35.1300	8	25.329	0	26.188	0	223.4	4	95.9	4	-1E+10	1	-1E+10	1	-1E+10	1	-1E+10	1	-1E+10	1	-1E+10	1
4901784	191	C	09/26/2020	10:46	-133.209	43.483	0	28.30	0	18.1770	0	35.1220	8	25.324	0	28.072	0	224.2	4	96.2	4	-1E+10	1	-1E+10	1	-1E+10	1	-1E+10	1	-1E+10	1	-1E+10	1
4901784	191	C	09/26/2020	10:46	-133.209	43.483	0	29.60	0	18.1610	0	35.1130	8	25.321	0	29.362	0	225.4	4	96.7	4	-1E+10	1	-1E+10	1	-1E+10	1	-1E+10	1	-1E+10	1	-1E+10	1
4901784	191	C	09/26/2020	10:46	-133.209	43.483	0	30.60	0	18.1260	0	35.0960	8	25.317	0	30.354	0	227.0	4	97.3	4	-1E+10	1	-1E+10	1	-1E+10	1	-1E+10	1	-1E+10	1	-1E+10	1
4901784	191	C	09/26/2020	10:46	-133.209	43.483	0	31.70	0	18.0480	0	35.0770	8	25.322	0	31.445	0	229.3	4	98.2	4	-1E+10	1	-1E+10	1	-1E+10	1	-1E+10	1	-1E+10	1	-1E+10	1
4901784	191	C	09/26/2020	10:46	-133.209	43.483	0	32.80	0	17.7450	0	35.0940	8	25.409	0	32.536	0	232.8	4	99.1	4	-1E+10	1	-1E+10	1	-1E+10	1	-1E+10	1	-1E+10	1	-1E+10	1
4901784	191	C	09/26/2020	10:46	-133.209	43.483	0	34.10	0	17.1390	0	35.1170	8	25.573	0	33.825	0	238.3	4	100.3	4	-1E+10	1	-1E+10	1	-1E+10	1	-1E+10	1	-1E+10	1	-1E+10	1
4901784	191	C	09/26/2020	10:46	-133.209	43.483	0	35.40	0	16.6260	0	35.1640	8	25.731	0	35.115	0	241.8	4	100.8	4	-1E+10	1	-1E+10	1	-1E+10	1	-1E+10	1	-1E+10	1	-1E+10	1
4901784	191	C	09/26/2020	10:46	-133.209	43.483	0	36.80	0	16.0070	0	35.1990	8	25.901	0	36.503	0	247.3	4	101.9	4	-1E+10	1	-1E+10	1	-1E+10	1	-1E+10	1	-1E+10	1	-1E+10	1
4901784	191	C	09/26/2020	10:46	-133.209	43.483	0	38.30	0	15.5650	0	35.2240	8	26.021	0	37.991	0	250.7	4	102.4	4	-1E+10	1	-1E+10	1	-1E+10	1	-1E+10	1	-1E+10	1	-1E+10	1
4901784	191	C	09/26/2020	10:46	-133.209	43.483	0	39.90	0	14.4420	0	35.2500	8	26.288	0	39.578	0	256.5	4	102.6	4	-1E+10	1	-1E+10	1	-1E+10	1	-1E+10	1	-1E+10	1	-1E+10	1
4901784	191	C	09/26/2020	10:46	-133.209	43.483	0	41.50	0	13.9180	0	35.2180	8	26.375	0	41.165	0	260.4	4	103.0	4	-1E+10	1	-1E+10	1	-1E+10	1	-1E+10	1	-1E+10	1	-1E+10	1
4901784	191	C	09/26/2020	10:46	-133.209	43.483	0	43.30	0	13.4600	0	35.2280	8	26.478	0	42.950	0	263.4	4	103.2	4	-1E+10	1	-1E+10	1	-1E+10	1	-1E+10	1	-1E+10	1	-1E+10	1
4901784	191	C	09/26/2020	10:46	-133.209	43.483	0	45.30	0	13.0320	0	35.2470	8	26.580	0	44.934	0	265.3	4	103.1	4	-1E+10	1	-1E+10	1	-1E+10	1	-1E+10	1	-1E+10	1	-1E+10	1
4901784	191	C	09/26/2020	10:46	-133.209	43.483	0	45.70	0	12.9380	0	35.2400	8	26.593	0	45.330	0	266.1	4	103.2	4	-1E+10	1	-1E+10	1	-1E+10	1	-1E+10	1	-1E+10	1	-1E+10	1
4901784	191	C	09/26/2020	10:46	-133.209	43.483	0	47.20	0	12.6760	0	35.2420	8	26.647	0	46.818	0	267.4	4	103.2	4	-1E+10	1	-1E+10	1	-1E+10	1	-1E+10	1	-1E+10	1	-1E+10	1
4901784	191	C	09/26/2020	10:46	-133.209	43.483	0	48.70	0	12.2480	0	35.2750	8	26.757	0	48.306	0	269.1	4	102.9	4	-1E+10	1	-1E+10	1	-1E+10	1	-1E+10	1	-1E+10	1	-1E+10	1
4901784	191	C	09/26/2020	10:46	-133.209	43.483	0	50.20	0	12.1640	0	35.2750	8	26.773	0	49.793	0	269.3	4	102.9	4	-1E+10	1	-1E+10	1	-1E+10	1	-1E+10	1	-1E+10	1	-1E+10	1
4901784	191	C	09/26/2020	10:46	-133.209	43.483	0	51.80	0	11.9910	0	35.2840	8	26.813	0	51.380	0	267.9	4	102.0	4	-1E+10	1	-1E+10	1	-1E+10	1	-1E+10	1	-1E+10	1	-1E+10	1
4901784	191	C	09/26/2020	10:46	-133.209	43.483	0	53.30	0	11.6300	0	35.2940	8	26.890	0	52.868	0	268.7	4	101.5	4	-1E+10	1	-1E+10	1	-1E+10	1	-1E+10	1	-1E+10	1	-1E+10	1
4901784	191	C	09/26/2020	10:46	-133.209	43.483	0	54.80	0	11.3900	0	35.3160	8	26.952	0	54.356	0	268.8	4	101.0	4	-1E+10	1	-1E+10	1	-1E+10	1	-1E+10	1	-1E+10	1	-1E+10	1
4901784	191	C	09/26/2020	10:46	-133.209	43.483	0	56.40	0	11.3080	0	35.3190	8	26.969	0	55.942	0	268.4	4	100.7	4	-1E+10	1	-1E+10	1	-1E+10	1	-1E+10	1	-1E+10	1	-1E+10	1
4901784	191	C	09/26/2020	10:46	-133.209	43.483	0	58.00	0	11.2330	0	35.3210	8	26.985	0	57.529	0	267.9	4	100.4	4	-1E+10	1	-1E+10	1	-1E+10	1	-1E+10	1	-1E+10	1	-1E+10	1
4901784	191	C	09/26/2020	10:46	-133.209	43.483	0	59.50	0	11.1710	0	35.3180	8	26.994	0	59.017	0	266.8	4	99.8	4	-1E+10	1	-1E+10	1	-1E+10	1	-1E+10	1	-1E+10	1	-1E+10	1
4901784	191	C	09/26/2020	10:46	-133.209	43.483	0	61.10	0	11.0720	0	35.3260	8	27.018	0	60.604	0	266.2	4	99.4	4	-1E+10	1	-1E+10	1	-1E+10	1	-1E+10	1	-1E+10	1	-1E+10	1
4901784	191	C	09/26/2020	10:46	-133.209	43.483	0	62.80	0	11.0000	0	35.3570	8	27.056	0	62.289	0	265.2	4	98.9	4	-1E+10	1	-1E+10	1	-1E+10	1	-1E+10	1	-1E+10	1	-1E+10	1
4901784	191	C	09/26/2020	10:46	-133.209	43.483	0	64.40	0	10.9200	0	35.3490	8	27.064	0	63.876	0	263.7	4	98.2	4	-1E+10	1	-1E+10	1	-1E+10	1	-1E+10	1	-1E+10	1	-1E+10	1
4901784	191	C	09/26/2020	10:46	-133.209	43.483	0	66.00	0	10.8430	0	35.3410	8	27.072	0	65.463	0	261.2	4	97.1	4	-1E+10	1	-1E+10	1	-1E+10	1	-1E+10	1	-1E+10	1	-1E+10	1
4901784	191	C	09/26/2020	10:46	-133.209	43.483	0	67.60	0	10.5920	0	35.3290	8	27.107	0	67.050	0	260.8	4	96.4	4	-1E+10	1	-1E+10	1	-1E+10	1	-1E+10	1	-1E+10	1	-1E+10	1
4901784	191	C	09/26/2020	10:46	-133.209	43.483	0	69.20	0	10.5210	0	35.3400	8	27.128	0	68.636	0	259.4	4	95.7	4	-1E+10	1	-1E+10	1	-1E+10	1	-1E+10	1	-1E+10	1	-1E+10	1
4901784	191	C	09/26/2020	10:46	-133.209	43.483	0	70.90	0	10.4270	0	35.3210	8	27.130	0	70.322	0	258.5	4	95.2	4	-1E+10	1	-1E+10	1	-1E+10	1	-1E+10	1	-1E+10	1	-1E+10	1
4901784	191	C	09/26/2020	10:46	-133.209	43.483	0	72.60	0	10.2770	0	35.3330	8	27.166	0	72.008	0	257.8	4	94.7	4	-1E+10	1	-1E+10	1	-1E+10	1	-1E+10	1	-1E+10	1	-1E+10	1
4901784	191	C	09/26/2020	10:46	-133.209	43.483	0	74.30	0	10.2550	0	35.3220	8	27.161	0	73.694	0	256.8	4	94.2	4	-1E+10	1	-1E+10	1	-1E+10	1	-1E+10	1	-1E+10	1	-1E+10	1
4901784	191	C	09/26/2020	10:46	-133.209	43.483	0	76.00	0	10.1380	0	35.3220	8	27.182	0	75.380	0	256.1	4	93.8	4	-1E+10	1	-1E+10	1	-1E+10	1	-1E+10	1	-1E+10	1	-1E+10	1
4901784	191	C	09/26/2020	10:46	-133.209	43.483	0	77.70	0	10.0010	0	35.3250	8	27.208	0	77.066	0	255.6	4	93.3	4	-1E+10	1	-1E+10	1	-1E+10	1	-1E+10	1	-1E+10	1	-1E+10	1
4901784	191	C	09/26/2020	10:46	-133.209	43.483	0	79.40	0	9.9460	0	35.3270	8	27.219	0	78.751	0	254.7	4	92.9	4	-1E+10	1	-1E+10	1	-1E+10	1	-1E+10	1	-1E+10	1	-1E+10	1
4901784	191	C	09/26/2020	10:46	-133.209	43.483	0	81.10	0	9.8480	0	35.3310	8	27.239	0	80.437	0	253.9	4	92.4	4	-1E+10	1	-1E+10	1	-1E+10	1	-1E+10	1	-1E+10	1	-1E+10	1
4901784	191	C	09/26/2020	10:46	-133.209	43.483	0	82.90	0	9.7060	0	35.3300	8	27.262	0	82.222	0	253.7	4	92.0	4	-1E+10	1	-1E+10	1	-1E+10	1	-1E+10	1	-1E+10	1	-1E+10	1
4901784	191	C	09/26/2020	10:46	-133.209	43.483	0	84.70	0	9.6290	0	35.3270	8	27.273	0	84.007	0	253.6	4	91.8	4	-1E+10	1	-1E+10	1	-1E+10	1	-1E+10	1	-1E+10	1	-1E+10	1
4901784	191	C	09/26/2020	10:46	-133.209	43.483	0	86.50	0	9.5940	0	35.3320	8	27.282	0	85.792	0	253.1	4	91.6	4	-1E+10	1	-1E+10	1	-1E+10	1	-1E+10	1	-1E+10	1	-1E+10	1
4901784	191	C	09/26/2020	10:46	-133.209	43.483	0	88.30	0	9.4930	0	35.3310	8	27.299	0	87.577	0	252.9	4	91.3	4	-1E+10	1	-1E+10	1	-1E+10	1	-1E+10	1	-1E+10	1	-1E+10	1
4901784	191	C	09/26/2020	10:46	-133.209	43.483	0	90.10	0	9.4130	0	35.3330	8	27.313	0	89.362	0	252.9	4	91.2	4	-1E+10	1	-1E+10	1	-1E+10	1	-1E+10	1	-1E+10	1	-1E+10	1
4901784	191	C	09/26/2020	10:46	-133.209	43.483	0	91.90	0	9.3410	0	35.3340	8	27.326	0	91.146	0	252.8	4	91.0	4	-1E+10	1	-1E+10	1	-1E+10	1	-1E+10	1	-1E+10	1	-1E+10	1
4901784	191	C	09/26/2020	10:46	-133.209	43.483	0	93.60	0	9.3050	0	35.3330	8	27.331	0	92.832	0	252.5	4	90.8	4	-1E+10	1	-1E+10	1	-1E+10	1	-1E+10	1	-1E+10	1	-1E+10	1
4901784	191	C	09/26/2020	10:46	-133.209	43.483	0	95.30	0	9.2800	0	35.3370	8	27.339	0	94.518	0	252.0	4	90.6	4	-1E+10	1	-1E+10	1	-1E+10	1	-1E+10	1	-1E+10	1	-1E+10	1
4901784	191	C	09/26/2020	10:46	-133.209	43.483	0	97.10	0	9.2530	0	35.3420	8	27.347	0	96.303	0	251.3	4	90.3	4	-1E+10	1	-1E+10	1	-1E+10	1	-1E+10	1	-1E+10	1	-1E+10	1
4901784	191	C	09/26/2020	10:46	-133.209	43.483	0	98.90	0	9.2520	0	35.3440	8	27.349	0	98.087	0	250.4	4	90.0	4	-1E+10	1	-1E+10	1	-1E+10	1	-1E+10	1	-1E+10	1	-1E+10	1
4901784	191	C	09/26/2020	10:46	-133.209	43.483	0	102.50	0	9.1810	0	35.3620	8	27.375	0	101.657	0	248.5	4	89.1	4	-1E+10	1	-1E+10	1	-1E+10	1	-1E+10	1	-1E+10	1	-1E+10	1
4901784	191	C	09/26/2020	10:46	-133.209	43.483	0	104.40	0	9.1750	0	35.3650	8	27.378	0	103.541	0	246.9	4	88.6	4	-1E+10	1	-1E+10	1	-1E+10	1	-1E+10	1	-1E+10	1	-1E+10	1
4901784	191	C	09/26/2020	10:46	-133.209	43.483	0	107.30	0	9.1830	0	35.3910	8	27.397	0	106.416	0	243.6	4	87.4	4	-1E+10	1	-1E+10	1	-1E+10	1	-1E+10	1	-1E+10	1	-1E+10	1
4901784	191	C	09/26/2020	10:46	-133.209	43.483	0	110.00	0	9.1450	0	35.4310	8	27.435	0	109.093	0	239.9	4	86.0	4	-1E+10	1	-1E+10	1	-1E+10	1	-1E+10	1	-1E+10	1	-1E+10	1
4901784	191	C	09/26/2020	10:46	-133.209	43.483	0	112.10	0	9.0380	0	35.4320	8	27.453	0	111.175	0	236.8	4	84.7	4	-1E+10	1	-1E+10	1	-1E+10	1	-1E+10	1	-1E+10	1	-1E+10	1
4901784	191	C	09/26/2020	10:46	-133.209	43.483	0	115.20	0	8.6830	0	35.4710	8	27.540	0	114.249	0	231.4	4	82.2	4	-1E+10	1	-1E+10	1	-1E+10	1	-1E+10	1	-1E+10	1	-1E+10	1
4901784	191	C	09/26/2020	10:46	-133.209	43.483	0	117.50	0	8.7660	0	35.5420	8	27.583	0	116.529	0	224.6	4	79.9	4	-1E+10	1	-1E+10	1	-1E+10	1	-1E+10	1	-1E+10	1	-1E+10	1
4901784	191	C	09/26/2020	10:46	-133.209	43.483	0	119.80	0	8.9720	0	35.6670	8	27.648	0	118.810	0	219.0	4	78.4	4	-1E+10	1	-1E+10	1	-1E+10	1	-1E+10	1	-1E+10	1	-1E+10	1
4901784	191	C	09/26/2020	10:46	-133.209	43.483	0	122.90	0	8.8170	0	35.7020	8	27.700	0	121.883	0	216.9	4	77.4	4	-1E+10	1	-1E+10	1	-1E+10	1	-1E+10	1	-1E+10	1	-1E+10	1
4901784	191	C	09/26/2020	10:46	-133.209	43.483	0	125.30	0	8.6950	0	35.7230	8	27.736	0	124.263	0	215.2	4	76.6	4	-1E+10	1	-1E+10	1	-1E+10	1	-1E+10	1	-1E+10	1	-1E+10	1
4901784	191	C	09/26/2020	10:46	-133.209	43.483	0	127.10	0	8.2870	0	35.7340	8	27.809	0	126.047	0	214.8	4	75.8	4	-1E+10	1	-1E+10	1	-1E+10	1	-1E+10	1	-1E+10	1	-1E+10	1
4901784	191	C	09/26/2020	10:46	-133.209	43.483	0	129.70	0	8.1660	0	35.8070	8	27.885	0	128.625	0	210.4	4	74.0	4	-1E+10	1	-1E+10	1	-1E+10	1	-1E+10	1	-1E+10	1	-1E+10	1
4901784	191	C	09/26/2020	10:46	-133.209	43.483	0	132.30	0	8.3270	0	35.9330	8	27.959	0	131.202	0	204.6	4	72.3	4	-1E+10	1	-1E+10	1	-1E+10	1	-1E+10	1	-1E+10	1	-1E+10	1
4901784	191	C	09/26/2020	10:46	-133.209	43.483	0	134.90	0	8.1130	0	35.9980	8	28.043	0	133.780	0	203.1	4	71.5	4	-1E+10	1	-1E+10	1	-1E+10	1	-1E+10	1	-1E+10	1	-1E+10	1
4901784	191	C	09/26/2020	10:46	-133.209	43.483	0	137.70	0	7.9370	0	36.0590	8	28.118	0	136.556	0	201.6	4	70.7	4	-1E+10	1	-1E+10	1	-1E+10	1	-1E+10	1	-1E+10	1	-1E+10	1
4901784	191	C	09/26/2020	10:46	-133.209	43.483	0	139.50	0	7.9390	0	36.1090	8	28.157	0	138.340	0	200.1	4	70.2	4	-1E+10	1	-1E+10	1	-1E+10	1	-1E+10	1	-1E+10	1	-1E+10	1
4901784	191	C	09/26/2020	10:46	-133.209	43.483	0	142.40	0	7.8660	0	36.1720	8	28.218	0	141.215	0	199.4	4	69.9	4	-1E+10	1	-1E+10	1	-1E+10	1	-1E+10	1	-1E+10	1	-1E+10	1
4901784	191	C	09/26/2020	10:46	-133.209	43.483	0	145.10	0	7.7380	0	36.2250	8	28.279	0	143.892	0	198.8	4	69.5	4	-1E+10	1	-1E+10	1	-1E+10	1	-1E+10	1	-1E+10	1	-1E+10	1
4901784	191	C	09/26/2020	10:46	-133.209	43.483	0	147.60	0	7.7060	0	36.2670	8	28.317	0	146.370	0	197.6	4	69.1	4	-1E+10	1	-1E+10	1	-1E+10	1	-1E+10	1	-1E+10	1	-1E+10	1
4901784	191	C	09/26/2020	10:46	-133.209	43.483	0	150.50	0	7.6740	0	36.3000	8	28.347	0	149.245	0	196.1	4	68.5	4	-1E+10	1	-1E+10	1	-1E+10	1	-1E+10	1	-1E+10	1	-1E+10	1
4901784	191	C	09/26/2020	10:46	-133.209	43.483	0	152.90	0	7.6930	0	36.3290	8	28.367	0	151.624	0	194.0	4	67.8	4	-1E+10	1	-1E+10	1	-1E+10	1	-1E+10	1	-1E+10	1	-1E+10	1
4901784	191	C	09/26/2020	10:46	-133.209	43.483	0	155.30	0	7.6620	0	36.3830	8	28.415	0	154.003	0	191.9	4	67.1	4	-1E+10	1	-1E+10	1	-1E+10	1	-1E+10	1	-1E+10	1	-1E+10	1
4901784	191	C	09/26/2020	10:46	-133.209	43.483	0	157.80	0	7.6710	0	36.4250	8	28.446	0	156.481	0	189.3	4	66.2	4	-1E+10	1	-1E+10	1	-1E+10	1	-1E+10	1	-1E+10	1	-1E+10	1
4901784	191	C	09/26/2020	10:46	-133.209	43.483	0	160.30	0	7.7190	0	36.4580	8	28.465	0	158.959	0	186.4	4	65.2	4	-1E+10	1	-1E+10	1	-1E+10	1	-1E+10	1	-1E+10	1	-1E+10	1
4901784	191	C	09/26/2020	10:46	-133.209	43.483	0	162.90	0	7.7680	0	36.5070	8	28.496	0	161.537	0	183.3	4	64.3	4	-1E+10	1	-1E+10	1	-1E+10	1	-1E+10	1	-1E+10	1	-1E+10	1
4901784	191	C	09/26/2020	10:46	-133.209	43.483	0	164.80	0	7.7860	0	36.5280	8	28.510	0	163.420	0	182.1	4	63.9	4	-1E+10	1	-1E+10	1	-1E+10	1	-1E+10	1	-1E+10	1	-1E+10	1
4901784	191	C	09/26/2020	10:46	-133.209	43.483	0	167.70	0	7.7730	0	36.5570	8	28.535	0	166.294	0	180.5	4	63.3	4	-1E+10	1	-1E+10	1	-1E+10	1	-1E+10	1	-1E+10	1	-1E+10	1
4901784	191	C	09/26/2020	10:46	-133.209	43.483	0	170.00	0	7.7810	0	36.5880	8	28.558	0	168.574	0	178.5	4	62.7	4	-1E+10	1	-1E+10	1	-1E+10	1	-1E+10	1	-1E+10	1	-1E+10	1
4901784	191	C	09/26/2020	10:46	-133.209	43.483	0	172.50	0	7.7780	0	36.6200	8	28.584	0	171.052	0	176.8	4	62.0	4	-1E+10	1	-1E+10	1	-1E+10	1	-1E+10	1	-1E+10	1	-1E+10	1
4901784	191	C	09/26/2020	10:46	-133.209	43.483	0	174.80	0	7.7590	0	36.6460	8	28.607	0	173.332	0	175.6	4	61.6	4	-1E+10	1	-1E+10	1	-1E+10	1	-1E+10	1	-1E+10	1	-1E+10	1
4901784	191	C	09/26/2020	10:46	-133.209	43.483	0	178.00	0	7.7700	0	36.6800	8	28.632	0	176.504	0	173.1	4	60.8	4	-1E+10	1	-1E+10	1	-1E+10	1	-1E+10	1	-1E+10	1	-1E+10	1
4901784	191	C	09/26/2020	10:46	-133.209	43.483	0	180.40	0	7.7730	0	36.6950	8	28.644	0	178.882	0	171.5	4	60.2	4	-1E+10	1	-1E+10	1	-1E+10	1	-1E+10	1	-1E+10	1	-1E+10	1
4901784	191	C	09/26/2020	10:46	-133.209	43.483	0	182.80	0	7.7370	0	36.7110	8	28.662	0	181.261	0	170.1	4	59.7	4	-1E+10	1	-1E+10	1	-1E+10	1	-1E+10	1	-1E+10	1	-1E+10	1
4901784	191	C	09/26/2020	10:46	-133.209	43.483	0	185.30	0	7.7250	0	36.7160	8	28.668	0	183.739	0	169.0	4	59.3	4	-1E+10	1	-1E+10	1	-1E+10	1	-1E+10	1	-1E+10	1	-1E+10	1
4901784	191	C	09/26/2020	10:46	-133.209	43.483	0	187.80	0	7.7260	8	36.6810	8	28.640	0	186.217	0	168.3	4	59.0	4	-1E+10	1	-1E+10	1	-1E+10	1	-1E+10	1	-1E+10	1	-1E+10	1
4901784	191	C	09/26/2020	10:46	-133.209	43.483	0	190.20	0	7.7410	8	36.5510	8	28.535	0	188.596	0	167.7	4	58.8	4	-1E+10	1	-1E+10	1	-1E+10	1	-1E+10	1	-1E+10	1	-1E+10	1
4901784	191	C	09/26/2020	10:46	-133.209	43.483	0	192.70	0	7.7510	0	36.5430	8	28.528	0	191.073	0	166.4	4	58.3	4	-1E+10	1	-1E+10	1	-1E+10	1	-1E+10	1	-1E+10	1	-1E+10	1
4901784	191	C	09/26/2020	10:46	-133.209	43.483	0	195.20	0	7.7400	0	36.5320	8	28.521	0	193.551	0	164.8	4	57.8	4	-1E+10	1	-1E+10	1	-1E+10	1	-1E+10	1	-1E+10	1	-1E+10	1
4901784	191	C	09/26/2020	10:46	-133.209	43.483	0	197.70	0	7.7160	0	36.5550	8	28.543	0	196.029	0	163.2	4	57.2	4	-1E+10	1	-1E+10	1	-1E+10	1	-1E+10	1	-1E+10	1	-1E+10	1
4901784	191	C	09/26/2020	10:46	-133.209	43.483	0	200.20	0	7.6640	0	36.5430	8	28.541	0	198.506	0	161.6	4	56.5	4	-1E+10	1	-1E+10	1	-1E+10	1	-1E+10	1	-1E+10	1	-1E+10	1
4901784	191	C	09/26/2020	10:46	-133.209	43.483	0	202.80	0	7.6150	0	36.5680	8	28.568	0	201.083	0	160.4	4	56.1	4	-1E+10	1	-1E+10	1	-1E+10	1	-1E+10	1	-1E+10	1	-1E+10	1
4901784	191	C	09/26/2020	10:46	-133.209	43.483	0	205.30	0	7.5940	0	36.5730	8	28.575	0	203.561	0	159.0	4	55.5	4	-1E+10	1	-1E+10	1	-1E+10	1	-1E+10	1	-1E+10	1	-1E+10	1
4901784	191	C	09/26/2020	10:46	-133.209	43.483	0	207.90	0	7.5390	0	36.5680	8	28.579	0	206.137	0	157.7	4	55.0	4	-1E+10	1	-1E+10	1	-1E+10	1	-1E+10	1	-1E+10	1	-1E+10	1
4901784	191	C	09/26/2020	10:46	-133.209	43.483	0	210.50	0	7.4740	0	36.5940	8	28.610	0	208.714	0	156.5	4	54.5	4	-1E+10	1	-1E+10	1	-1E+10	1	-1E+10	1	-1E+10	1	-1E+10	1
4901784	191	C	09/26/2020	10:46	-133.209	43.483	0	212.20	0	7.4520	0	36.6190	8	28.633	0	210.399	0	156.0	4	54.3	4	-1E+10	1	-1E+10	1	-1E+10	1	-1E+10	1	-1E+10	1	-1E+10	1
4901784	191	C	09/26/2020	10:46	-133.209	43.483	0	214.80	0	7.4180	0	36.6170	8	28.636	0	212.975	0	155.0	4	54.0	4	-1E+10	1	-1E+10	1	-1E+10	1	-1E+10	1	-1E+10	1	-1E+10	1
4901784	191	C	09/26/2020	10:46	-133.209	43.483	0	217.40	0	7.3990	0	36.5790	8	28.609	0	215.552	0	154.4	4	53.7	4	-1E+10	1	-1E+10	1	-1E+10	1	-1E+10	1	-1E+10	1	-1E+10	1
4901784	191	C	09/26/2020	10:46	-133.209	43.483	0	220.10	0	7.3760	0	36.5860	8	28.618	0	218.228	0	153.4	4	53.3	4	-1E+10	1	-1E+10	1	-1E+10	1	-1E+10	1	-1E+10	1	-1E+10	1
4901784	191	C	09/26/2020	10:46	-133.209	43.483	0	222.70	0	7.3520	0	36.5870	8	28.622	0	220.804	0	152.5	4	53.0	4	-1E+10	1	-1E+10	1	-1E+10	1	-1E+10	1	-1E+10	1	-1E+10	1
4901784	191	C	09/26/2020	10:46	-133.209	43.483	0	225.40	0	7.3190	0	36.5840	8	28.625	0	223.480	0	151.2	4	52.5	4	-1E+10	1	-1E+10	1	-1E+10	1	-1E+10	1	-1E+10	1	-1E+10	1
4901784	191	C	09/26/2020	10:46	-133.209	43.483	0	228.00	0	7.2660	0	36.5920	8	28.639	0	226.056	0	150.1	4	52.1	4	-1E+10	1	-1E+10	1	-1E+10	1	-1E+10	1	-1E+10	1	-1E+10	1
4901784	191	C	09/26/2020	10:46	-133.209	43.483	0	229.70	0	7.2500	0	36.5820	8	28.633	0	227.741	0	149.6	4	51.9	4	-1E+10	1	-1E+10	1	-1E+10	1	-1E+10	1	-1E+10	1	-1E+10	1
4901784	191	C	09/26/2020	10:46	-133.209	43.483	0	232.30	0	7.2240	0	36.5700	8	28.628	0	230.317	0	148.6	4	51.5	4	-1E+10	1	-1E+10	1	-1E+10	1	-1E+10	1	-1E+10	1	-1E+10	1
4901784	191	C	09/26/2020	10:46	-133.209	43.483	0	235.00	0	7.1890	0	36.5610	8	28.626	0	232.992	0	147.7	4	51.1	4	-1E+10	1	-1E+10	1	-1E+10	1	-1E+10	1	-1E+10	1	-1E+10	1
4901784	191	C	09/26/2020	10:46	-133.209	43.483	0	237.70	0	7.1570	0	36.5540	8	28.625	0	235.668	0	146.3	4	50.6	4	-1E+10	1	-1E+10	1	-1E+10	1	-1E+10	1	-1E+10	1	-1E+10	1
4901784	191	C	09/26/2020	10:46	-133.209	43.483	0	240.30	0	7.1160	0	36.5580	8	28.634	0	238.244	0	145.4	4	50.3	4	-1E+10	1	-1E+10	1	-1E+10	1	-1E+10	1	-1E+10	1	-1E+10	1
4901784	191	C	09/26/2020	10:46	-133.209	43.483	0	242.10	0	7.1040	0	36.5380	8	28.620	0	240.028	0	144.7	4	50.0	4	-1E+10	1	-1E+10	1	-1E+10	1	-1E+10	1	-1E+10	1	-1E+10	1
4901784	191	C	09/26/2020	10:46	-133.209	43.483	0	244.90	0	7.0160	0	36.5400	8	28.634	0	242.802	0	144.4	4	49.8	4	-1E+10	1	-1E+10	1	-1E+10	1	-1E+10	1	-1E+10	1	-1E+10	1
4901784	191	C	09/26/2020	10:46	-133.209	43.483	0	247.60	0	6.9650	0	36.5340	8	28.637	0	245.477	0	143.7	4	49.5	4	-1E+10	1	-1E+10	1	-1E+10	1	-1E+10	1	-1E+10	1	-1E+10	1
4901784	191	C	09/26/2020	10:46	-133.209	43.483	0	250.30	0	6.9180	0	36.5490	8	28.655	0	248.153	0	142.6	4	49.1	4	-1E+10	1	-1E+10	1	-1E+10	1	-1E+10	1	-1E+10	1	-1E+10	1
4901784	191	C	09/26/2020	10:46	-133.209	43.483	0	253.00	0	6.8760	0	36.5690	8	28.677	0	250.828	0	141.7	4	48.7	4	-1E+10	1	-1E+10	1	-1E+10	1	-1E+10	1	-1E+10	1	-1E+10	1
4901784	191	C	09/26/2020	10:46	-133.209	43.483	0	254.80	0	6.8610	0	36.5570	8	28.670	0	252.611	0	141.0	4	48.4	4	-1E+10	1	-1E+10	1	-1E+10	1	-1E+10	1	-1E+10	1	-1E+10	1
4901784	191	C	09/26/2020	10:46	-133.209	43.483	0	257.50	0	6.8360	0	36.5430	8	28.662	0	255.286	0	139.7	4	48.0	4	-1E+10	1	-1E+10	1	-1E+10	1	-1E+10	1	-1E+10	1	-1E+10	1
4901784	191	C	09/26/2020	10:46	-133.209	43.483	0	260.20	0	6.8080	0	36.5660	8	28.684	0	257.961	0	138.0	4	47.4	4	-1E+10	1	-1E+10	1	-1E+10	1	-1E+10	1	-1E+10	1	-1E+10	1
4901784	191	C	09/26/2020	10:46	-133.209	43.483	0	262.00	0	6.7940	8	36.5870	8	28.703	0	259.745	0	136.7	4	46.9	4	-1E+10	1	-1E+10	1	-1E+10	1	-1E+10	1	-1E+10	1	-1E+10	1
4901784	191	C	09/26/2020	10:46	-133.209	43.483	0	264.70	0	6.7790	8	36.5320	8	28.662	0	262.420	0	133.8	4	45.9	4	-1E+10	1	-1E+10	1	-1E+10	1	-1E+10	1	-1E+10	1	-1E+10	1
4901784	191	C	09/26/2020	10:46	-133.209	43.483	0	267.50	0	6.7530	0	36.5270	8	28.661	0	265.194	0	130.2	4	44.6	4	-1E+10	1	-1E+10	1	-1E+10	1	-1E+10	1	-1E+10	1	-1E+10	1
4901784	191	C	09/26/2020	10:46	-133.209	43.483	0	270.20	0	6.7030	0	36.5390	8	28.678	0	267.869	0	125.0	4	42.8	4	-1E+10	1	-1E+10	1	-1E+10	1	-1E+10	1	-1E+10	1	-1E+10	1
4901784	191	C	09/26/2020	10:46	-133.209	43.483	0	273.00	0	6.7320	0	36.5470	8	28.680	0	270.643	0	118.9	4	40.7	4	-1E+10	1	-1E+10	1	-1E+10	1	-1E+10	1	-1E+10	1	-1E+10	1
4901784	191	C	09/26/2020	10:46	-133.209	43.483	0	274.90	0	6.7010	0	36.5560	8	28.692	0	272.525	0	114.3	4	39.1	4	-1E+10	1	-1E+10	1	-1E+10	1	-1E+10	1	-1E+10	1	-1E+10	1
4901784	191	C	09/26/2020	10:46	-133.209	43.483	0	277.60	0	6.8140	0	36.5540	8	28.674	0	275.200	0	106.0	4	36.4	4	-1E+10	1	-1E+10	1	-1E+10	1	-1E+10	1	-1E+10	1	-1E+10	1
4901784	191	C	09/26/2020	10:46	-133.209	43.483	0	280.30	0	6.8410	0	36.5730	8	28.685	0	277.875	0	100.9	4	34.7	4	-1E+10	1	-1E+10	1	-1E+10	1	-1E+10	1	-1E+10	1	-1E+10	1
4901784	191	C	09/26/2020	10:46	-133.209	43.483	0	282.20	0	6.8180	0	36.5560	8	28.675	0	279.757	0	99.8	4	34.3	4	-1E+10	1	-1E+10	1	-1E+10	1	-1E+10	1	-1E+10	1	-1E+10	1
4901784	191	C	09/26/2020	10:46	-133.209	43.483	0	285.00	0	6.7940	0	36.5480	8	28.672	0	282.531	0	99.6	4	34.2	4	-1E+10	1	-1E+10	1	-1E+10	1	-1E+10	1	-1E+10	1	-1E+10	1
4901784	191	C	09/26/2020	10:46	-133.209	43.483	0	287.80	0	6.7460	0	36.5290	8	28.664	0	285.305	0	99.2	4	34.0	4	-1E+10	1	-1E+10	1	-1E+10	1	-1E+10	1	-1E+10	1	-1E+10	1
4901784	191	C	09/26/2020	10:46	-133.209	43.483	0	289.70	0	6.6710	0	36.5490	8	28.690	0	287.187	0	98.4	4	33.7	4	-1E+10	1	-1E+10	1	-1E+10	1	-1E+10	1	-1E+10	1	-1E+10	1
4901784	191	C	09/26/2020	10:46	-133.209	43.483	0	292.50	0	6.6520	0	36.5360	8	28.683	0	289.961	0	96.9	4	33.1	4	-1E+10	1	-1E+10	1	-1E+10	1	-1E+10	1	-1E+10	1	-1E+10	1
4901784	191	C	09/26/2020	10:46	-133.209	43.483	0	295.80	0	6.6460	0	36.5120	8	28.665	0	293.230	0	94.7	4	32.4	4	-1E+10	1	-1E+10	1	-1E+10	1	-1E+10	1	-1E+10	1	-1E+10	1
4901784	191	C	09/26/2020	10:46	-133.209	43.483	0	297.70	0	6.6430	0	36.5200	8	28.671	0	295.112	0	93.3	4	31.9	4	-1E+10	1	-1E+10	1	-1E+10	1	-1E+10	1	-1E+10	1	-1E+10	1
4901784	191	C	09/26/2020	10:46	-133.209	43.483	0	300.00	0	6.6410	0	36.5090	8	28.663	0	297.391	0	93.0	4	31.8	4	-1E+10	1	-1E+10	1	-1E+10	1	-1E+10	1	-1E+10	1	-1E+10	1
4901784	191	C	09/26/2020	10:46	-133.209	43.483	0	302.40	0	6.6310	0	36.4980	8	28.656	0	299.768	0	94.6	4	32.3	4	-1E+10	1	-1E+10	1	-1E+10	1	-1E+10	1	-1E+10	1	-1E+10	1
4901784	191	C	09/26/2020	10:46	-133.209	43.483	0	304.80	0	6.4950	0	36.4980	8	28.675	0	302.145	0	96.3	4	32.8	4	-1E+10	1	-1E+10	1	-1E+10	1	-1E+10	1	-1E+10	1	-1E+10	1
4901784	191	C	09/26/2020	10:46	-133.209	43.483	0	307.90	0	6.4480	0	36.4970	8	28.680	0	305.216	0	94.6	4	32.2	4	-1E+10	1	-1E+10	1	-1E+10	1	-1E+10	1	-1E+10	1	-1E+10	1
4901784	191	C	09/26/2020	10:46	-133.209	43.483	0	310.30	0	6.4510	0	36.4980	8	28.681	0	307.593	0	92.4	4	31.5	4	-1E+10	1	-1E+10	1	-1E+10	1	-1E+10	1	-1E+10	1	-1E+10	1
4901784	191	C	09/26/2020	10:46	-133.209	43.483	0	312.80	0	6.4690	0	36.4870	8	28.670	0	310.070	0	92.0	4	31.3	4	-1E+10	1	-1E+10	1	-1E+10	1	-1E+10	1	-1E+10	1	-1E+10	1
4901784	191	C	09/26/2020	10:46	-133.209	43.483	0	315.20	0	6.4090	0	36.4890	8	28.679	0	312.447	0	92.5	4	31.4	4	-1E+10	1	-1E+10	1	-1E+10	1	-1E+10	1	-1E+10	1	-1E+10	1
4901784	191	C	09/26/2020	10:46	-133.209	43.483	0	317.60	0	6.3470	0	36.4750	8	28.677	0	314.824	0	92.4	4	31.4	4	-1E+10	1	-1E+10	1	-1E+10	1	-1E+10	1	-1E+10	1	-1E+10	1
4901784	191	C	09/26/2020	10:46	-133.209	43.483	0	320.10	0	6.3010	0	36.4860	8	28.692	0	317.300	0	91.7	4	31.1	4	-1E+10	1	-1E+10	1	-1E+10	1	-1E+10	1	-1E+10	1	-1E+10	1
4901784	191	C	09/26/2020	10:46	-133.209	43.483	0	322.60	0	6.2840	0	36.4830	8	28.692	0	319.776	0	91.0	4	30.8	4	-1E+10	1	-1E+10	1	-1E+10	1	-1E+10	1	-1E+10	1	-1E+10	1
4901784	191	C	09/26/2020	10:46	-133.209	43.483	0	325.10	0	6.2850	0	36.4770	8	28.687	0	322.253	0	90.4	4	30.6	4	-1E+10	1	-1E+10	1	-1E+10	1	-1E+10	1	-1E+10	1	-1E+10	1
4901784	191	C	09/26/2020	10:46	-133.209	43.483	0	327.60	0	6.2570	0	36.4830	8	28.695	0	324.729	0	89.8	4	30.4	4	-1E+10	1	-1E+10	1	-1E+10	1	-1E+10	1	-1E+10	1	-1E+10	1
4901784	191	C	09/26/2020	10:46	-133.209	43.483	0	330.10	0	6.2350	0	36.4710	8	28.689	0	327.205	0	89.2	4	30.2	4	-1E+10	1	-1E+10	1	-1E+10	1	-1E+10	1	-1E+10	1	-1E+10	1
4901784	191	C	09/26/2020	10:46	-133.209	43.483	0	332.60	0	6.1880	0	36.4700	8	28.694	0	329.681	0	88.8	4	30.0	4	-1E+10	1	-1E+10	1	-1E+10	1	-1E+10	1	-1E+10	1	-1E+10	1
4901784	191	C	09/26/2020	10:46	-133.209	43.483	0	335.00	0	6.1750	0	36.4640	8	28.691	0	332.058	0	88.2	4	29.8	4	-1E+10	1	-1E+10	1	-1E+10	1	-1E+10	1	-1E+10	1	-1E+10	1
4901784	191	C	09/26/2020	10:46	-133.209	43.483	0	337.60	0	6.1420	0	36.4740	8	28.704	0	334.633	0	87.6	4	29.6	4	-1E+10	1	-1E+10	1	-1E+10	1	-1E+10	1	-1E+10	1	-1E+10	1
4901784	191	C	09/26/2020	10:46	-133.209	43.483	0	340.20	0	6.1200	0	36.4660	8	28.700	0	337.208	0	87.0	4	29.4	4	-1E+10	1	-1E+10	1	-1E+10	1	-1E+10	1	-1E+10	1	-1E+10	1
4901784	191	C	09/26/2020	10:46	-133.209	43.483	0	342.70	0	6.0960	0	36.4610	8	28.700	0	339.684	0	86.5	4	29.2	4	-1E+10	1	-1E+10	1	-1E+10	1	-1E+10	1	-1E+10	1	-1E+10	1
4901784	191	C	09/26/2020	10:46	-133.209	43.483	0	345.20	0	6.0690	0	36.4650	8	28.706	0	342.160	0	85.8	4	28.9	4	-1E+10	1	-1E+10	1	-1E+10	1	-1E+10	1	-1E+10	1	-1E+10	1
4901784	191	C	09/26/2020	10:46	-133.209	43.483	0	347.60	0	6.0600	0	36.4640	8	28.707	0	344.537	0	85.1	4	28.7	4	-1E+10	1	-1E+10	1	-1E+10	1	-1E+10	1	-1E+10	1	-1E+10	1
4901784	191	C	09/26/2020	10:46	-133.209	43.483	0	350.10	0	6.0300	0	36.4590	8	28.707	0	347.013	0	84.4	4	28.4	4	-1E+10	1	-1E+10	1	-1E+10	1	-1E+10	1	-1E+10	1	-1E+10	1
4901784	191	C	09/26/2020	10:46	-133.209	43.483	0	352.60	0	6.0060	0	36.4590	8	28.710	0	349.489	0	83.4	4	28.1	4	-1E+10	1	-1E+10	1	-1E+10	1	-1E+10	1	-1E+10	1	-1E+10	1
4901784	191	C	09/26/2020	10:46	-133.209	43.483	0	355.10	0	5.9720	0	36.4600	8	28.715	0	351.964	0	81.9	4	27.6	4	-1E+10	1	-1E+10	1	-1E+10	1	-1E+10	1	-1E+10	1	-1E+10	1
4901784	191	C	09/26/2020	10:46	-133.209	43.483	0	357.70	0	5.9370	0	36.4650	8	28.724	0	354.539	0	80.4	4	27.0	4	-1E+10	1	-1E+10	1	-1E+10	1	-1E+10	1	-1E+10	1	-1E+10	1
4901784	191	C	09/26/2020	10:46	-133.209	43.483	0	360.20	0	5.9180	0	36.4680	8	28.729	0	357.015	0	78.4	4	26.4	4	-1E+10	1	-1E+10	1	-1E+10	1	-1E+10	1	-1E+10	1	-1E+10	1
4901784	191	C	09/26/2020	10:46	-133.209	43.483	0	362.70	0	5.9510	0	36.4700	8	28.726	0	359.491	0	76.2	4	25.6	4	-1E+10	1	-1E+10	1	-1E+10	1	-1E+10	1	-1E+10	1	-1E+10	1
4901784	191	C	09/26/2020	10:46	-133.209	43.483	0	365.20	0	5.9690	0	36.4700	8	28.724	0	361.966	0	74.7	4	25.1	4	-1E+10	1	-1E+10	1	-1E+10	1	-1E+10	1	-1E+10	1	-1E+10	1
4901784	191	C	09/26/2020	10:46	-133.209	43.483	0	367.80	0	5.9080	0	36.4670	8	28.729	0	364.541	0	75.1	4	25.2	4	-1E+10	1	-1E+10	1	-1E+10	1	-1E+10	1	-1E+10	1	-1E+10	1
4901784	191	C	09/26/2020	10:46	-133.209	43.483	0	370.30	0	5.8640	0	36.4610	8	28.730	0	367.017	0	74.6	4	25.0	4	-1E+10	1	-1E+10	1	-1E+10	1	-1E+10	1	-1E+10	1	-1E+10	1
4901784	191	C	09/26/2020	10:46	-133.209	43.483	0	372.80	0	5.8300	0	36.4660	8	28.739	0	369.492	0	73.7	4	24.7	4	-1E+10	1	-1E+10	1	-1E+10	1	-1E+10	1	-1E+10	1	-1E+10	1
4901784	191	C	09/26/2020	10:46	-133.209	43.483	0	375.40	0	5.7960	0	36.4660	8	28.743	0	372.067	0	72.4	4	24.3	4	-1E+10	1	-1E+10	1	-1E+10	1	-1E+10	1	-1E+10	1	-1E+10	1
4901784	191	C	09/26/2020	10:46	-133.209	43.483	0	377.90	0	5.7950	0	36.4700	8	28.746	0	374.543	0	71.2	4	23.9	4	-1E+10	1	-1E+10	1	-1E+10	1	-1E+10	1	-1E+10	1	-1E+10	1
4901784	191	C	09/26/2020	10:46	-133.209	43.483	0	380.40	0	5.7840	0	36.4680	8	28.746	0	377.018	0	70.6	4	23.6	4	-1E+10	1	-1E+10	1	-1E+10	1	-1E+10	1	-1E+10	1	-1E+10	1
4901784	191	C	09/26/2020	10:46	-133.209	43.483	0	382.90	0	5.7450	0	36.4670	8	28.751	0	379.494	0	70.0	4	23.4	4	-1E+10	1	-1E+10	1	-1E+10	1	-1E+10	1	-1E+10	1	-1E+10	1
4901784	191	C	09/26/2020	10:46	-133.209	43.483	0	385.40	0	5.6900	0	36.4680	8	28.758	0	381.969	0	69.0	4	23.1	4	-1E+10	1	-1E+10	1	-1E+10	1	-1E+10	1	-1E+10	1	-1E+10	1
4901784	191	C	09/26/2020	10:46	-133.209	43.483	0	387.20	0	5.6760	0	36.4700	8	28.762	0	383.751	0	68.4	4	22.9	4	-1E+10	1	-1E+10	1	-1E+10	1	-1E+10	1	-1E+10	1	-1E+10	1
4901784	191	C	09/26/2020	10:46	-133.209	43.483	0	389.70	0	5.6320	0	36.4710	8	28.768	0	386.227	0	67.7	4	22.6	4	-1E+10	1	-1E+10	1	-1E+10	1	-1E+10	1	-1E+10	1	-1E+10	1
4901784	191	C	09/26/2020	10:46	-133.209	43.483	0	392.20	0	5.5790	0	36.4720	8	28.776	0	388.702	0	67.0	4	22.3	4	-1E+10	1	-1E+10	1	-1E+10	1	-1E+10	1	-1E+10	1	-1E+10	1
4901784	191	C	09/26/2020	10:46	-133.209	43.483	0	394.80	0	5.5540	0	36.4760	8	28.782	0	391.276	0	66.0	4	22.0	4	-1E+10	1	-1E+10	1	-1E+10	1	-1E+10	1	-1E+10	1	-1E+10	1
4901784	191	C	09/26/2020	10:46	-133.209	43.483	0	397.20	0	5.5520	0	36.4760	8	28.782	0	393.653	0	65.1	4	21.7	4	-1E+10	1	-1E+10	1	-1E+10	1	-1E+10	1	-1E+10	1	-1E+10	1
4901784	191	C	09/26/2020	10:46	-133.209	43.483	0	399.80	0	5.5370	0	36.4800	8	28.787	0	396.227	0	64.2	4	21.4	4	-1E+10	1	-1E+10	1	-1E+10	1	-1E+10	1	-1E+10	1	-1E+10	1
4901784	191	C	09/26/2020	10:46	-133.209	43.483	0	402.30	0	5.5140	0	36.4810	8	28.791	0	398.702	0	63.5	4	21.1	4	-1E+10	1	-1E+10	1	-1E+10	1	-1E+10	1	-1E+10	1	-1E+10	1
4901784	191	C	09/26/2020	10:46	-133.209	43.483	0	404.90	0	5.4930	0	36.4840	8	28.796	0	401.277	0	62.8	4	20.9	4	-1E+10	1	-1E+10	1	-1E+10	1	-1E+10	1	-1E+10	1	-1E+10	1
4901784	191	C	09/26/2020	10:46	-133.209	43.483	0	407.40	0	5.4590	0	36.4850	8	28.801	0	403.752	0	62.2	4	20.7	4	-1E+10	1	-1E+10	1	-1E+10	1	-1E+10	1	-1E+10	1	-1E+10	1
4901784	191	C	09/26/2020	10:46	-133.209	43.483	0	410.00	0	5.4360	0	36.4870	8	28.806	0	406.326	0	61.7	4	20.5	4	-1E+10	1	-1E+10	1	-1E+10	1	-1E+10	1	-1E+10	1	-1E+10	1
4901784	191	C	09/26/2020	10:46	-133.209	43.483	0	412.50	0	5.4170	0	36.4880	8	28.809	0	408.801	0	61.1	4	20.3	4	-1E+10	1	-1E+10	1	-1E+10	1	-1E+10	1	-1E+10	1	-1E+10	1
4901784	191	C	09/26/2020	10:46	-133.209	43.483	0	415.10	0	5.3870	0	36.4910	8	28.815	0	411.375	0	60.6	4	20.1	4	-1E+10	1	-1E+10	1	-1E+10	1	-1E+10	1	-1E+10	1	-1E+10	1
4901784	191	C	09/26/2020	10:46	-133.209	43.483	0	417.70	0	5.3770	0	36.4910	8	28.816	0	413.949	0	60.3	4	20.0	4	-1E+10	1	-1E+10	1	-1E+10	1	-1E+10	1	-1E+10	1	-1E+10	1
4901784	191	C	09/26/2020	10:46	-133.209	43.483	0	420.30	0	5.3620	0	36.4920	8	28.819	0	416.523	0	59.8	4	19.8	4	-1E+10	1	-1E+10	1	-1E+10	1	-1E+10	1	-1E+10	1	-1E+10	1
4901784	191	C	09/26/2020	10:46	-133.209	43.483	0	422.90	0	5.3480	0	36.4920	8	28.821	0	419.097	0	59.2	4	19.6	4	-1E+10	1	-1E+10	1	-1E+10	1	-1E+10	1	-1E+10	1	-1E+10	1
4901784	191	C	09/26/2020	10:46	-133.209	43.483	0	425.40	0	5.3310	0	36.4950	8	28.825	0	421.572	0	58.3	4	19.3	4	-1E+10	1	-1E+10	1	-1E+10	1	-1E+10	1	-1E+10	1	-1E+10	1
4901784	191	C	09/26/2020	10:46	-133.209	43.483	0	428.00	0	5.3210	0	36.4970	8	28.828	0	424.146	0	57.5	4	19.1	4	-1E+10	1	-1E+10	1	-1E+10	1	-1E+10	1	-1E+10	1	-1E+10	1
4901784	191	C	09/26/2020	10:46	-133.209	43.483	0	429.80	0	5.3130	0	36.4990	8	28.831	0	425.928	0	56.8	4	18.8	4	-1E+10	1	-1E+10	1	-1E+10	1	-1E+10	1	-1E+10	1	-1E+10	1
4901784	191	C	09/26/2020	10:46	-133.209	43.483	0	432.40	0	5.3010	0	36.5040	8	28.836	0	428.502	0	56.1	4	18.6	4	-1E+10	1	-1E+10	1	-1E+10	1	-1E+10	1	-1E+10	1	-1E+10	1
4901784	191	C	09/26/2020	10:46	-133.209	43.483	0	435.00	0	5.2900	0	36.5060	8	28.839	0	431.076	0	55.5	4	18.4	4	-1E+10	1	-1E+10	1	-1E+10	1	-1E+10	1	-1E+10	1	-1E+10	1
4901784	191	C	09/26/2020	10:46	-133.209	43.483	0	437.70	0	5.2610	0	36.5070	8	28.844	0	433.749	0	55.2	4	18.3	4	-1E+10	1	-1E+10	1	-1E+10	1	-1E+10	1	-1E+10	1	-1E+10	1
4901784	191	C	09/26/2020	10:46	-133.209	43.483	0	440.20	0	5.2320	0	36.5080	8	28.848	0	436.224	0	54.7	4	18.1	4	-1E+10	1	-1E+10	1	-1E+10	1	-1E+10	1	-1E+10	1	-1E+10	1
4901784	191	C	09/26/2020	10:46	-133.209	43.483	0	442.90	0	5.2300	0	36.5110	8	28.851	0	438.896	0	53.8	4	17.8	4	-1E+10	1	-1E+10	1	-1E+10	1	-1E+10	1	-1E+10	1	-1E+10	1
4901784	191	C	09/26/2020	10:46	-133.209	43.483	0	445.50	0	5.2310	0	36.5140	8	28.853	0	441.470	0	52.9	4	17.5	4	-1E+10	1	-1E+10	1	-1E+10	1	-1E+10	1	-1E+10	1	-1E+10	1
4901784	191	C	09/26/2020	10:46	-133.209	43.483	0	447.20	0	5.2310	0	36.5150	8	28.854	0	443.153	0	52.5	4	17.4	4	-1E+10	1	-1E+10	1	-1E+10	1	-1E+10	1	-1E+10	1	-1E+10	1
4901784	191	C	09/26/2020	10:46	-133.209	43.483	0	449.80	0	5.2120	0	36.5180	8	28.858	0	445.727	0	52.0	4	17.2	4	-1E+10	1	-1E+10	1	-1E+10	1	-1E+10	1	-1E+10	1	-1E+10	1
4901784	191	C	09/26/2020	10:46	-133.209	43.483	0	452.40	0	5.1870	0	36.5190	8	28.862	0	448.300	0	51.6	4	17.1	4	-1E+10	1	-1E+10	1	-1E+10	1	-1E+10	1	-1E+10	1	-1E+10	1
4901784	191	C	09/26/2020	10:46	-133.209	43.483	0	455.00	0	5.1470	0	36.5190	8	28.867	0	450.874	0	51.3	4	16.9	4	-1E+10	1	-1E+10	1	-1E+10	1	-1E+10	1	-1E+10	1	-1E+10	1
4901784	191	C	09/26/2020	10:46	-133.209	43.483	0	457.60	0	5.1190	0	36.5210	8	28.872	0	453.447	0	50.6	4	16.7	4	-1E+10	1	-1E+10	1	-1E+10	1	-1E+10	1	-1E+10	1	-1E+10	1
4901784	191	C	09/26/2020	10:46	-133.209	43.483	0	460.30	0	5.0920	0	36.5230	8	28.877	0	456.120	0	49.6	4	16.3	4	-1E+10	1	-1E+10	1	-1E+10	1	-1E+10	1	-1E+10	1	-1E+10	1
4901784	191	C	09/26/2020	10:46	-133.209	43.483	0	462.90	0	5.0850	0	36.5270	8	28.881	0	458.693	0	48.2	4	15.9	4	-1E+10	1	-1E+10	1	-1E+10	1	-1E+10	1	-1E+10	1	-1E+10	1
4901784	191	C	09/26/2020	10:46	-133.209	43.483	0	464.70	0	5.0690	0	36.5320	8	28.887	0	460.475	0	47.4	4	15.6	4	-1E+10	1	-1E+10	1	-1E+10	1	-1E+10	1	-1E+10	1	-1E+10	1
4901784	191	C	09/26/2020	10:46	-133.209	43.483	0	467.40	0	5.0850	0	36.5380	8	28.890	0	463.148	0	46.0	4	15.2	4	-1E+10	1	-1E+10	1	-1E+10	1	-1E+10	1	-1E+10	1	-1E+10	1
4901784	191	C	09/26/2020	10:46	-133.209	43.483	0	470.10	0	5.0980	0	36.5450	8	28.894	0	465.820	0	44.6	4	14.7	4	-1E+10	1	-1E+10	1	-1E+10	1	-1E+10	1	-1E+10	1	-1E+10	1
4901784	191	C	09/26/2020	10:46	-133.209	43.483	0	472.80	0	5.1180	0	36.5510	8	28.896	0	468.492	0	43.7	4	14.4	4	-1E+10	1	-1E+10	1	-1E+10	1	-1E+10	1	-1E+10	1	-1E+10	1
4901784	191	C	09/26/2020	10:46	-133.209	43.483	0	475.50	0	5.1190	0	36.5550	8	28.899	0	471.165	0	43.2	4	14.3	4	-1E+10	1	-1E+10	1	-1E+10	1	-1E+10	1	-1E+10	1	-1E+10	1
4901784	191	C	09/26/2020	10:46	-133.209	43.483	0	477.30	0	5.1030	0	36.5530	8	28.900	0	472.946	0	43.3	4	14.3	4	-1E+10	1	-1E+10	1	-1E+10	1	-1E+10	1	-1E+10	1	-1E+10	1
4901784	191	C	09/26/2020	10:46	-133.209	43.483	0	480.10	0	5.0660	0	36.5520	8	28.903	0	475.717	0	43.2	4	14.2	4	-1E+10	1	-1E+10	1	-1E+10	1	-1E+10	1	-1E+10	1	-1E+10	1
4901784	191	C	09/26/2020	10:46	-133.209	43.483	0	482.80	0	5.0150	0	36.5550	8	28.912	0	478.390	0	42.9	4	14.1	4	-1E+10	1	-1E+10	1	-1E+10	1	-1E+10	1	-1E+10	1	-1E+10	1
4901784	191	C	09/26/2020	10:46	-133.209	43.483	0	484.60	0	5.0120	0	36.5540	8	28.912	0	480.171	0	42.6	4	14.0	4	-1E+10	1	-1E+10	1	-1E+10	1	-1E+10	1	-1E+10	1	-1E+10	1
4901784	191	C	09/26/2020	10:46	-133.209	43.483	0	487.40	0	4.9910	0	36.5560	8	28.916	0	482.942	0	42.0	4	13.8	4	-1E+10	1	-1E+10	1	-1E+10	1	-1E+10	1	-1E+10	1	-1E+10	1
4901784	191	C	09/26/2020	10:46	-133.209	43.483	0	490.10	0	4.9780	0	36.5600	8	28.921	0	485.614	0	41.3	4	13.6	4	-1E+10	1	-1E+10	1	-1E+10	1	-1E+10	1	-1E+10	1	-1E+10	1
4901784	191	C	09/26/2020	10:46	-133.209	43.483	0	492.80	0	4.9670	0	36.5620	8	28.923	0	488.287	0	40.9	4	13.5	4	-1E+10	1	-1E+10	1	-1E+10	1	-1E+10	1	-1E+10	1	-1E+10	1
4901784	191	C	09/26/2020	10:46	-133.209	43.483	0	495.60	0	4.9410	0	36.5630	8	28.927	0	491.058	0	40.6	4	13.3	4	-1E+10	1	-1E+10	1	-1E+10	1	-1E+10	1	-1E+10	1	-1E+10	1
4901784	191	C	09/26/2020	10:46	-133.209	43.483	0	497.40	0	4.9220	0	36.5630	8	28.930	0	492.839	0	40.2	4	13.2	4	-1E+10	1	-1E+10	1	-1E+10	1	-1E+10	1	-1E+10	1	-1E+10	1
4901784	191	C	09/26/2020	10:46	-133.209	43.483	0	500.20	0	4.9130	0	36.5670	8	28.934	0	495.610	0	39.3	4	12.9	4	-1E+10	1	-1E+10	1	-1E+10	1	-1E+10	1	-1E+10	1	-1E+10	1
4901784	191	C	09/26/2020	10:46	-133.209	43.483	0	504.80	0	4.9080	0	36.5740	8	28.940	0	500.162	0	37.9	4	12.4	4	-1E+10	1	-1E+10	1	-1E+10	1	-1E+10	1	-1E+10	1	-1E+10	1
4901784	191	C	09/26/2020	10:46	-133.209	43.483	0	510.40	0	4.9030	0	36.5800	8	28.946	0	505.704	0	36.9	4	12.1	4	-1E+10	1	-1E+10	1	-1E+10	1	-1E+10	1	-1E+10	1	-1E+10	1
4901784	191	C	09/26/2020	10:46	-133.209	43.483	0	514.60	0	4.8720	0	36.5820	8	28.951	0	509.860	0	36.4	4	11.9	4	-1E+10	1	-1E+10	1	-1E+10	1	-1E+10	1	-1E+10	1	-1E+10	1
4901784	191	C	09/26/2020	10:46	-133.209	43.483	0	519.30	0	4.8190	0	36.5840	8	28.959	0	514.511	0	35.5	4	11.6	4	-1E+10	1	-1E+10	1	-1E+10	1	-1E+10	1	-1E+10	1	-1E+10	1
4901784	191	C	09/26/2020	10:46	-133.209	43.483	0	524.90	0	4.8120	0	36.5940	8	28.968	0	520.052	0	33.7	4	11.1	4	-1E+10	1	-1E+10	1	-1E+10	1	-1E+10	1	-1E+10	1	-1E+10	1
4901784	191	C	09/26/2020	10:46	-133.209	43.483	0	530.60	0	4.8150	0	36.6010	8	28.973	0	525.693	0	31.9	4	10.5	4	-1E+10	1	-1E+10	1	-1E+10	1	-1E+10	1	-1E+10	1	-1E+10	1
4901784	191	C	09/26/2020	10:46	-133.209	43.483	0	535.40	0	4.8450	0	36.6120	8	28.978	0	530.442	0	30.2	4	9.9	4	-1E+10	1	-1E+10	1	-1E+10	1	-1E+10	1	-1E+10	1	-1E+10	1
4901784	191	C	09/26/2020	10:46	-133.209	43.483	0	540.20	0	4.8440	0	36.6170	8	28.982	0	535.191	0	29.3	4	9.6	4	-1E+10	1	-1E+10	1	-1E+10	1	-1E+10	1	-1E+10	1	-1E+10	1
4901784	191	C	09/26/2020	10:46	-133.209	43.483	0	545.30	0	4.8170	0	36.6210	8	28.989	0	540.238	0	28.5	4	9.4	4	-1E+10	1	-1E+10	1	-1E+10	1	-1E+10	1	-1E+10	1	-1E+10	1
4901784	191	C	09/26/2020	10:46	-133.209	43.483	0	550.30	0	4.7900	0	36.6260	8	28.996	0	545.185	0	27.8	4	9.1	4	-1E+10	1	-1E+10	1	-1E+10	1	-1E+10	1	-1E+10	1	-1E+10	1
4901784	191	C	09/26/2020	10:46	-133.209	43.483	0	555.40	0	4.7560	0	36.6270	8	29.001	0	550.230	0	27.6	4	9.1	4	-1E+10	1	-1E+10	1	-1E+10	1	-1E+10	1	-1E+10	1	-1E+10	1
4901784	191	C	09/26/2020	10:46	-133.209	43.483	0	560.60	0	4.7100	0	36.6300	8	29.009	0	555.375	0	27.1	4	8.9	4	-1E+10	1	-1E+10	1	-1E+10	1	-1E+10	1	-1E+10	1	-1E+10	1
4901784	191	C	09/26/2020	10:46	-133.209	43.483	0	564.90	0	4.7130	0	36.6340	8	29.011	0	559.629	0	26.5	4	8.7	4	-1E+10	1	-1E+10	1	-1E+10	1	-1E+10	1	-1E+10	1	-1E+10	1
4901784	191	C	09/26/2020	10:46	-133.209	43.483	0	569.30	0	4.7040	0	36.6370	8	29.015	0	563.982	0	26.0	4	8.5	4	-1E+10	1	-1E+10	1	-1E+10	1	-1E+10	1	-1E+10	1	-1E+10	1
4901784	191	C	09/26/2020	10:46	-133.209	43.483	0	574.60	0	4.7010	0	36.6400	8	29.018	0	569.225	0	25.3	4	8.3	4	-1E+10	1	-1E+10	1	-1E+10	1	-1E+10	1	-1E+10	1	-1E+10	1
4901784	191	C	09/26/2020	10:46	-133.209	43.483	0	579.90	0	4.6670	0	36.6430	8	29.024	0	574.469	0	24.7	4	8.1	4	-1E+10	1	-1E+10	1	-1E+10	1	-1E+10	1	-1E+10	1	-1E+10	1
4901784	191	C	09/26/2020	10:46	-133.209	43.483	0	585.20	0	4.6400	0	36.6490	8	29.032	0	579.712	0	23.7	4	7.8	4	-1E+10	1	-1E+10	1	-1E+10	1	-1E+10	1	-1E+10	1	-1E+10	1
4901784	191	C	09/26/2020	10:46	-133.209	43.483	0	590.50	0	4.6260	0	36.6570	8	29.040	0	584.954	0	22.9	4	7.5	4	-1E+10	1	-1E+10	1	-1E+10	1	-1E+10	1	-1E+10	1	-1E+10	1
4901784	191	C	09/26/2020	10:46	-133.209	43.483	0	595.00	0	4.6170	0	36.6610	8	29.044	0	589.406	0	22.5	4	7.3	4	-1E+10	1	-1E+10	1	-1E+10	1	-1E+10	1	-1E+10	1	-1E+10	1
4901784	191	C	09/26/2020	10:46	-133.209	43.483	0	599.60	0	4.5930	0	36.6640	8	29.049	0	593.956	0	21.8	4	7.1	4	-1E+10	1	-1E+10	1	-1E+10	1	-1E+10	1	-1E+10	1	-1E+10	1
4901784	191	C	09/26/2020	10:46	-133.209	43.483	0	605.00	0	4.5850	0	36.6710	8	29.056	0	599.297	0	21.0	4	6.8	4	-1E+10	1	-1E+10	1	-1E+10	1	-1E+10	1	-1E+10	1	-1E+10	1
4901784	191	C	09/26/2020	10:46	-133.209	43.483	0	610.50	0	4.5740	0	36.6770	8	29.062	0	604.738	0	20.4	4	6.6	4	-1E+10	1	-1E+10	1	-1E+10	1	-1E+10	1	-1E+10	1	-1E+10	1
4901784	191	C	09/26/2020	10:46	-133.209	43.483	0	615.00	0	4.5490	0	36.6810	8	29.068	0	609.188	0	20.1	4	6.5	4	-1E+10	1	-1E+10	1	-1E+10	1	-1E+10	1	-1E+10	1	-1E+10	1
4901784	191	C	09/26/2020	10:46	-133.209	43.483	0	619.60	0	4.4900	0	36.6800	8	29.074	0	613.738	0	19.9	4	6.5	4	-1E+10	1	-1E+10	1	-1E+10	1	-1E+10	1	-1E+10	1	-1E+10	1
4901784	191	C	09/26/2020	10:46	-133.209	43.483	0	625.10	0	4.4610	0	36.6840	8	29.081	0	619.178	0	19.3	4	6.3	4	-1E+10	1	-1E+10	1	-1E+10	1	-1E+10	1	-1E+10	1	-1E+10	1
4901784	191	C	09/26/2020	10:46	-133.209	43.483	0	630.70	0	4.4550	0	36.6920	8	29.088	0	624.717	0	18.6	4	6.0	4	-1E+10	1	-1E+10	1	-1E+10	1	-1E+10	1	-1E+10	1	-1E+10	1
4901784	191	C	09/26/2020	10:46	-133.209	43.483	0	635.30	0	4.4420	0	36.6960	8	29.093	0	629.266	0	17.9	4	5.8	4	-1E+10	1	-1E+10	1	-1E+10	1	-1E+10	1	-1E+10	1	-1E+10	1
4901784	191	C	09/26/2020	10:46	-133.209	43.483	0	640.00	0	4.4550	0	36.7050	8	29.098	0	633.914	0	17.2	4	5.6	4	-1E+10	1	-1E+10	1	-1E+10	1	-1E+10	1	-1E+10	1	-1E+10	1
4901784	191	C	09/26/2020	10:46	-133.209	43.483	0	644.70	0	4.4440	0	36.7120	8	29.105	0	638.562	0	16.7	4	5.4	4	-1E+10	1	-1E+10	1	-1E+10	1	-1E+10	1	-1E+10	1	-1E+10	1
4901784	191	C	09/26/2020	10:46	-133.209	43.483	0	649.40	0	4.4290	0	36.7160	8	29.110	0	643.210	0	16.3	4	5.3	4	-1E+10	1	-1E+10	1	-1E+10	1	-1E+10	1	-1E+10	1	-1E+10	1
4901784	191	C	09/26/2020	10:46	-133.209	43.483	0	655.10	0	4.3950	0	36.7220	8	29.119	0	648.847	0	15.8	4	5.1	4	-1E+10	1	-1E+10	1	-1E+10	1	-1E+10	1	-1E+10	1	-1E+10	1
4901784	191	C	09/26/2020	10:46	-133.209	43.483	0	659.70	0	4.3720	0	36.7260	8	29.125	0	653.396	0	15.5	4	5.0	4	-1E+10	1	-1E+10	1	-1E+10	1	-1E+10	1	-1E+10	1	-1E+10	1
4901784	191	C	09/26/2020	10:46	-133.209	43.483	0	664.50	0	4.3590	0	36.7310	8	29.130	0	658.143	0	15.1	4	4.9	4	-1E+10	1	-1E+10	1	-1E+10	1	-1E+10	1	-1E+10	1	-1E+10	1
4901784	191	C	09/26/2020	10:46	-133.209	43.483	0	670.20	0	4.3520	0	36.7360	8	29.135	0	663.779	0	14.8	4	4.8	4	-1E+10	1	-1E+10	1	-1E+10	1	-1E+10	1	-1E+10	1	-1E+10	1
4901784	191	C	09/26/2020	10:46	-133.209	43.483	0	674.90	0	4.3370	0	36.7400	8	29.140	0	668.426	0	14.5	4	4.7	4	-1E+10	1	-1E+10	1	-1E+10	1	-1E+10	1	-1E+10	1	-1E+10	1
4901784	191	C	09/26/2020	10:46	-133.209	43.483	0	679.60	0	4.3280	0	36.7440	8	29.144	0	673.074	0	14.3	4	4.6	4	-1E+10	1	-1E+10	1	-1E+10	1	-1E+10	1	-1E+10	1	-1E+10	1
4901784	191	C	09/26/2020	10:46	-133.209	43.483	0	685.30	0	4.2990	0	36.7490	8	29.151	0	678.710	0	14.0	4	4.5	4	-1E+10	1	-1E+10	1	-1E+10	1	-1E+10	1	-1E+10	1	-1E+10	1
4901784	191	C	09/26/2020	10:46	-133.209	43.483	0	690.70	0	4.2860	0	36.7530	8	29.156	0	684.049	0	13.8	4	4.5	4	-1E+10	1	-1E+10	1	-1E+10	1	-1E+10	1	-1E+10	1	-1E+10	1
4901784	191	C	09/26/2020	10:46	-133.209	43.483	0	695.50	0	4.2800	0	36.7560	8	29.159	0	688.795	0	13.5	4	4.4	4	-1E+10	1	-1E+10	1	-1E+10	1	-1E+10	1	-1E+10	1	-1E+10	1
4901784	191	C	09/26/2020	10:46	-133.209	43.483	0	700.30	0	4.2670	0	36.7610	8	29.165	0	693.541	0	13.3	4	4.3	4	-1E+10	1	-1E+10	1	-1E+10	1	-1E+10	1	-1E+10	1	-1E+10	1
4901784	191	C	09/26/2020	10:46	-133.209	43.483	0	705.20	0	4.2600	0	36.7650	8	29.169	0	698.385	0	13.0	4	4.2	4	-1E+10	1	-1E+10	1	-1E+10	1	-1E+10	1	-1E+10	1	-1E+10	1
4901784	191	C	09/26/2020	10:46	-133.209	43.483	0	710.00	0	4.2520	0	36.7700	8	29.174	0	703.131	0	12.8	4	4.1	4	-1E+10	1	-1E+10	1	-1E+10	1	-1E+10	1	-1E+10	1	-1E+10	1
4901784	191	C	09/26/2020	10:46	-133.209	43.483	0	714.90	0	4.2460	0	36.7750	8	29.178	0	707.975	0	12.4	4	4.0	4	-1E+10	1	-1E+10	1	-1E+10	1	-1E+10	1	-1E+10	1	-1E+10	1
4901784	191	C	09/26/2020	10:46	-133.209	43.483	0	719.90	0	4.2390	0	36.7820	8	29.185	0	712.918	0	12.2	4	3.9	4	-1E+10	1	-1E+10	1	-1E+10	1	-1E+10	1	-1E+10	1	-1E+10	1
4901784	191	C	09/26/2020	10:46	-133.209	43.483	0	724.80	0	4.2110	0	36.7880	8	29.193	0	717.762	0	12.0	4	3.9	4	-1E+10	1	-1E+10	1	-1E+10	1	-1E+10	1	-1E+10	1	-1E+10	1
4901784	191	C	09/26/2020	10:46	-133.209	43.483	0	729.90	0	4.2040	0	36.7910	8	29.196	0	722.804	0	11.8	4	3.8	4	-1E+10	1	-1E+10	1	-1E+10	1	-1E+10	1	-1E+10	1	-1E+10	1
4901784	191	C	09/26/2020	10:46	-133.209	43.483	0	734.90	0	4.1960	0	36.7970	8	29.201	0	727.746	0	11.6	4	3.8	4	-1E+10	1	-1E+10	1	-1E+10	1	-1E+10	1	-1E+10	1	-1E+10	1
4901784	191	C	09/26/2020	10:46	-133.209	43.483	0	740.00	0	4.1920	0	36.8010	8	29.205	0	732.788	0	11.4	4	3.7	4	-1E+10	1	-1E+10	1	-1E+10	1	-1E+10	1	-1E+10	1	-1E+10	1
4901784	191	C	09/26/2020	10:46	-133.209	43.483	0	745.10	0	4.1730	0	36.8080	8	29.213	0	737.829	0	11.3	4	3.6	4	-1E+10	1	-1E+10	1	-1E+10	1	-1E+10	1	-1E+10	1	-1E+10	1
4901784	191	C	09/26/2020	10:46	-133.209	43.483	0	750.20	0	4.1610	0	36.8120	8	29.217	0	742.870	0	11.1	4	3.6	4	-1E+10	1	-1E+10	1	-1E+10	1	-1E+10	1	-1E+10	1	-1E+10	1
4901784	191	C	09/26/2020	10:46	-133.209	43.483	0	755.30	0	4.1410	0	36.8160	8	29.223	0	747.911	0	11.0	4	3.6	4	-1E+10	1	-1E+10	1	-1E+10	1	-1E+10	1	-1E+10	1	-1E+10	1
4901784	191	C	09/26/2020	10:46	-133.209	43.483	0	760.50	0	4.1390	0	36.8200	8	29.226	0	753.051	0	10.9	4	3.5	4	-1E+10	1	-1E+10	1	-1E+10	1	-1E+10	1	-1E+10	1	-1E+10	1
4901784	191	C	09/26/2020	10:46	-133.209	43.483	0	765.60	0	4.1120	0	36.8250	8	29.233	0	758.092	0	10.8	4	3.5	4	-1E+10	1	-1E+10	1	-1E+10	1	-1E+10	1	-1E+10	1	-1E+10	1
4901784	191	C	09/26/2020	10:46	-133.209	43.483	0	770.70	0	4.0920	0	36.8280	8	29.238	0	763.132	0	10.8	4	3.5	4	-1E+10	1	-1E+10	1	-1E+10	1	-1E+10	1	-1E+10	1	-1E+10	1
4901784	191	C	09/26/2020	10:46	-133.209	43.483	0	775.70	0	4.0710	0	36.8280	8	29.240	0	768.074	0	10.8	4	3.5	4	-1E+10	1	-1E+10	1	-1E+10	1	-1E+10	1	-1E+10	1	-1E+10	1
4901784	191	C	09/26/2020	10:46	-133.209	43.483	0	780.80	0	4.0450	0	36.8300	8	29.245	0	773.114	0	10.7	4	3.5	4	-1E+10	1	-1E+10	1	-1E+10	1	-1E+10	1	-1E+10	1	-1E+10	1
4901784	191	C	09/26/2020	10:46	-133.209	43.483	0	785.00	0	4.0350	0	36.8330	8	29.248	0	777.265	0	10.6	4	3.4	4	-1E+10	1	-1E+10	1	-1E+10	1	-1E+10	1	-1E+10	1	-1E+10	1
4901784	191	C	09/26/2020	10:46	-133.209	43.483	0	789.40	0	4.0280	0	36.8360	8	29.251	0	781.614	0	10.6	4	3.4	4	-1E+10	1	-1E+10	1	-1E+10	1	-1E+10	1	-1E+10	1	-1E+10	1
4901784	191	C	09/26/2020	10:46	-133.209	43.483	0	794.60	0	4.0170	0	36.8400	8	29.256	0	786.753	0	10.5	4	3.4	4	-1E+10	1	-1E+10	1	-1E+10	1	-1E+10	1	-1E+10	1	-1E+10	1
4901784	191	C	09/26/2020	10:46	-133.209	43.483	0	799.80	0	4.0110	0	36.8410	8	29.257	0	791.891	0	10.5	4	3.4	4	-1E+10	1	-1E+10	1	-1E+10	1	-1E+10	1	-1E+10	1	-1E+10	1
4901784	191	C	09/26/2020	10:46	-133.209	43.483	0	805.20	0	3.9740	0	36.8400	8	29.261	0	797.228	0	10.5	4	3.4	4	-1E+10	1	-1E+10	1	-1E+10	1	-1E+10	1	-1E+10	1	-1E+10	1
4901784	191	C	09/26/2020	10:46	-133.209	43.483	0	810.40	0	3.9540	0	36.8430	8	29.265	0	802.366	0	10.4	4	3.4	4	-1E+10	1	-1E+10	1	-1E+10	1	-1E+10	1	-1E+10	1	-1E+10	1
4901784	191	C	09/26/2020	10:46	-133.209	43.483	0	814.90	0	3.9590	0	36.8480	8	29.269	0	806.813	0	10.4	4	3.3	4	-1E+10	1	-1E+10	1	-1E+10	1	-1E+10	1	-1E+10	1	-1E+10	1
4901784	191	C	09/26/2020	10:46	-133.209	43.483	0	819.40	0	3.9670	0	36.8510	8	29.270	0	811.260	0	10.3	4	3.3	4	-1E+10	1	-1E+10	1	-1E+10	1	-1E+10	1	-1E+10	1	-1E+10	1
4901784	191	C	09/26/2020	10:46	-133.209	43.483	0	824.80	0	3.9270	0	36.8530	8	29.276	0	816.595	0	10.3	4	3.3	4	-1E+10	1	-1E+10	1	-1E+10	1	-1E+10	1	-1E+10	1	-1E+10	1
4901784	191	C	09/26/2020	10:46	-133.209	43.483	0	830.30	0	3.9030	0	36.8570	8	29.282	0	822.030	0	10.2	4	3.3	4	-1E+10	1	-1E+10	1	-1E+10	1	-1E+10	1	-1E+10	1	-1E+10	1
4901784	191	C	09/26/2020	10:46	-133.209	43.483	0	834.80	0	3.8860	0	36.8630	8	29.289	0	826.476	0	10.2	4	3.3	4	-1E+10	1	-1E+10	1	-1E+10	1	-1E+10	1	-1E+10	1	-1E+10	1
4901784	191	C	09/26/2020	10:46	-133.209	43.483	0	839.40	0	3.8840	0	36.8660	8	29.291	0	831.021	0	10.2	4	3.3	4	-1E+10	1	-1E+10	1	-1E+10	1	-1E+10	1	-1E+10	1	-1E+10	1
4901784	191	C	09/26/2020	10:46	-133.209	43.483	0	844.90	0	3.8720	0	36.8670	8	29.294	0	836.455	0	10.1	4	3.3	4	-1E+10	1	-1E+10	1	-1E+10	1	-1E+10	1	-1E+10	1	-1E+10	1
4901784	191	C	09/26/2020	10:46	-133.209	43.483	0	850.40	0	3.8600	0	36.8690	8	29.296	0	841.889	0	10.1	4	3.3	4	-1E+10	1	-1E+10	1	-1E+10	1	-1E+10	1	-1E+10	1	-1E+10	1
4901784	191	C	09/26/2020	10:46	-133.209	43.483	0	855.00	0	3.8610	0	36.8730	8	29.300	0	846.434	0	10.1	4	3.2	4	-1E+10	1	-1E+10	1	-1E+10	1	-1E+10	1	-1E+10	1	-1E+10	1
4901784	191	C	09/26/2020	10:46	-133.209	43.483	0	860.00	0	3.8670	0	36.8780	8	29.303	0	851.374	0	10.1	4	3.2	4	-1E+10	1	-1E+10	1	-1E+10	1	-1E+10	1	-1E+10	1	-1E+10	1
4901784	191	C	09/26/2020	10:46	-133.209	43.483	0	865.10	0	3.8520	0	36.8820	8	29.308	0	856.412	0	10.1	4	3.2	4	-1E+10	1	-1E+10	1	-1E+10	1	-1E+10	1	-1E+10	1	-1E+10	1
4901784	191	C	09/26/2020	10:46	-133.209	43.483	0	869.90	0	3.8420	0	36.8860	8	29.312	0	861.154	0	10.1	4	3.2	4	-1E+10	1	-1E+10	1	-1E+10	1	-1E+10	1	-1E+10	1	-1E+10	1
4901784	191	C	09/26/2020	10:46	-133.209	43.483	0	874.60	0	3.8300	0	36.8900	8	29.317	0	865.797	0	10.1	4	3.2	4	-1E+10	1	-1E+10	1	-1E+10	1	-1E+10	1	-1E+10	1	-1E+10	1
4901784	191	C	09/26/2020	10:46	-133.209	43.483	0	879.50	0	3.8130	0	36.8930	8	29.321	0	870.637	0	10.1	4	3.2	4	-1E+10	1	-1E+10	1	-1E+10	1	-1E+10	1	-1E+10	1	-1E+10	1
4901784	191	C	09/26/2020	10:46	-133.209	43.483	0	884.40	0	3.7930	0	36.8970	8	29.326	0	875.478	0	10.1	4	3.2	4	-1E+10	1	-1E+10	1	-1E+10	1	-1E+10	1	-1E+10	1	-1E+10	1
4901784	191	C	09/26/2020	10:46	-133.209	43.483	0	889.30	0	3.7960	0	36.8990	8	29.328	0	880.318	0	10.1	4	3.2	4	-1E+10	1	-1E+10	1	-1E+10	1	-1E+10	1	-1E+10	1	-1E+10	1
4901784	191	C	09/26/2020	10:46	-133.209	43.483	0	895.00	0	3.7690	0	36.9010	8	29.332	0	885.948	0	10.1	4	3.2	4	-1E+10	1	-1E+10	1	-1E+10	1	-1E+10	1	-1E+10	1	-1E+10	1
4901784	191	C	09/26/2020	10:46	-133.209	43.483	0	900.80	0	3.7590	0	36.9030	8	29.335	0	891.677	0	10.2	4	3.3	4	-1E+10	1	-1E+10	1	-1E+10	1	-1E+10	1	-1E+10	1	-1E+10	1
4901784	191	C	09/26/2020	10:46	-133.209	43.483	0	905.80	0	3.7470	0	36.9080	8	29.340	0	896.616	0	10.2	4	3.3	4	-1E+10	1	-1E+10	1	-1E+10	1	-1E+10	1	-1E+10	1	-1E+10	1
4901784	191	C	09/26/2020	10:46	-133.209	43.483	0	910.80	0	3.7480	0	36.9100	8	29.342	0	901.555	0	10.3	4	3.3	4	-1E+10	1	-1E+10	1	-1E+10	1	-1E+10	1	-1E+10	1	-1E+10	1
4901784	191	C	09/26/2020	10:46	-133.209	43.483	0	915.00	0	3.7430	0	36.9140	8	29.345	0	905.703	0	10.3	4	3.3	4	-1E+10	1	-1E+10	1	-1E+10	1	-1E+10	1	-1E+10	1	-1E+10	1
4901784	191	C	09/26/2020	10:46	-133.209	43.483	0	919.20	0	3.7390	0	36.9160	8	29.347	0	909.851	0	10.3	4	3.3	4	-1E+10	1	-1E+10	1	-1E+10	1	-1E+10	1	-1E+10	1	-1E+10	1
4901784	191	C	09/26/2020	10:46	-133.209	43.483	0	924.30	0	3.7280	0	36.9200	8	29.352	0	914.888	0	10.4	4	3.3	4	-1E+10	1	-1E+10	1	-1E+10	1	-1E+10	1	-1E+10	1	-1E+10	1
4901784	191	C	09/26/2020	10:46	-133.209	43.483	0	929.40	0	3.7320	0	36.9230	8	29.354	0	919.925	0	10.5	4	3.4	4	-1E+10	1	-1E+10	1	-1E+10	1	-1E+10	1	-1E+10	1	-1E+10	1
4901784	191	C	09/26/2020	10:46	-133.209	43.483	0	934.50	0	3.7120	0	36.9260	8	29.358	0	924.962	0	10.6	4	3.4	4	-1E+10	1	-1E+10	1	-1E+10	1	-1E+10	1	-1E+10	1	-1E+10	1
4901784	191	C	09/26/2020	10:46	-133.209	43.483	0	939.50	0	3.6940	0	36.9290	8	29.363	0	929.899	0	10.6	4	3.4	4	-1E+10	1	-1E+10	1	-1E+10	1	-1E+10	1	-1E+10	1	-1E+10	1
4901784	191	C	09/26/2020	10:46	-133.209	43.483	0	944.70	0	3.6820	0	36.9310	8	29.366	0	935.035	0	10.6	4	3.4	4	-1E+10	1	-1E+10	1	-1E+10	1	-1E+10	1	-1E+10	1	-1E+10	1
4901784	191	C	09/26/2020	10:46	-133.209	43.483	0	949.90	0	3.6640	0	36.9320	8	29.368	0	940.170	0	10.6	4	3.4	4	-1E+10	1	-1E+10	1	-1E+10	1	-1E+10	1	-1E+10	1	-1E+10	1
4901784	191	C	09/26/2020	10:46	-133.209	43.483	0	955.10	0	3.6340	0	36.9330	8	29.372	0	945.305	0	10.6	4	3.4	4	-1E+10	1	-1E+10	1	-1E+10	1	-1E+10	1	-1E+10	1	-1E+10	1
4901784	191	C	09/26/2020	10:46	-133.209	43.483	0	960.40	0	3.6270	0	36.9360	8	29.375	0	950.538	0	10.7	4	3.4	4	-1E+10	1	-1E+10	1	-1E+10	1	-1E+10	1	-1E+10	1	-1E+10	1
4901784	191	C	09/26/2020	10:46	-133.209	43.483	0	965.60	0	3.6040	0	36.9370	8	29.379	0	955.673	0	10.7	4	3.4	4	-1E+10	1	-1E+10	1	-1E+10	1	-1E+10	1	-1E+10	1	-1E+10	1
4901784	191	C	09/26/2020	10:46	-133.209	43.483	0	970.00	0	3.5850	0	36.9390	8	29.382	0	960.018	0	10.7	4	3.4	4	-1E+10	1	-1E+10	1	-1E+10	1	-1E+10	1	-1E+10	1	-1E+10	1
4901784	191	C	09/26/2020	10:46	-133.209	43.483	0	974.40	0	3.5680	0	36.9410	8	29.386	0	964.363	0	10.6	4	3.4	4	-1E+10	1	-1E+10	1	-1E+10	1	-1E+10	1	-1E+10	1	-1E+10	1
4901784	191	C	09/26/2020	10:46	-133.209	43.483	0	979.60	0	3.5010	0	36.9380	8	29.390	0	969.497	0	10.4	4	3.3	4	-1E+10	1	-1E+10	1	-1E+10	1	-1E+10	1	-1E+10	1	-1E+10	1
4901784	191	C	09/26/2020	10:46	-133.209	43.483	0	984.90	0	3.4730	0	36.9400	8	29.395	0	974.730	0	10.4	4	3.3	4	-1E+10	1	-1E+10	1	-1E+10	1	-1E+10	1	-1E+10	1	-1E+10	1
4901784	191	C	09/26/2020	10:46	-133.209	43.483	0	990.10	0	3.4630	0	36.9430	8	29.398	0	979.864	0	10.5	4	3.3	4	-1E+10	1	-1E+10	1	-1E+10	1	-1E+10	1	-1E+10	1	-1E+10	1
4901784	191	C	09/26/2020	10:46	-133.209	43.483	0	995.40	0	3.4530	0	36.9460	8	29.402	0	985.097	0	10.6	4	3.4	4	-1E+10	1	-1E+10	1	-1E+10	1	-1E+10	1	-1E+10	1	-1E+10	1
4901784	191	C	09/26/2020	10:46	-133.209	43.483	0	999.90	0	3.4490	0	36.9490	8	29.404	0	989.540	0	10.7	4	3.4	4	-1E+10	1	-1E+10	1	-1E+10	1	-1E+10	1	-1E+10	1	-1E+10	1
4901784	191	C	09/26/2020	10:46	-133.209	43.483	0	1004.40	0	3.4340	0	36.9510	8	29.408	0	993.982	0	10.8	4	3.4	4	-1E+10	1	-1E+10	1	-1E+10	1	-1E+10	1	-1E+10	1	-1E+10	1
4901784	191	C	09/26/2020	10:46	-133.209	43.483	0	1009.90	0	3.4150	0	36.9550	8	29.413	0	999.412	0	10.9	4	3.5	4	-1E+10	1	-1E+10	1	-1E+10	1	-1E+10	1	-1E+10	1	-1E+10	1
4901784	191	C	09/26/2020	10:46	-133.209	43.483	0	1015.40	0	3.3910	0	36.9590	8	29.419	0	1004.842	0	11.0	4	3.5	4	-1E+10	1	-1E+10	1	-1E+10	1	-1E+10	1	-1E+10	1	-1E+10	1
4901784	191	C	09/26/2020	10:46	-133.209	43.483	0	1019.90	0	3.3820	0	36.9620	8	29.422	0	1009.284	0	11.0	4	3.5	4	-1E+10	1	-1E+10	1	-1E+10	1	-1E+10	1	-1E+10	1	-1E+10	1
4901784	191	C	09/26/2020	10:46	-133.209	43.483	0	1024.80	0	3.3750	0	36.9630	8	29.423	0	1014.121	0	11.0	4	3.5	4	-1E+10	1	-1E+10	1	-1E+10	1	-1E+10	1	-1E+10	1	-1E+10	1
4901784	191	C	09/26/2020	10:46	-133.209	43.483	0	1029.90	0	3.3720	0	36.9640	8	29.425	0	1019.156	0	11.1	4	3.5	4	-1E+10	1	-1E+10	1	-1E+10	1	-1E+10	1	-1E+10	1	-1E+10	1
4901784	191	C	09/26/2020	10:46	-133.209	43.483	0	1034.60	0	3.3660	0	36.9650	8	29.426	0	1023.795	0	11.2	4	3.5	4	-1E+10	1	-1E+10	1	-1E+10	1	-1E+10	1	-1E+10	1	-1E+10	1
4901784	191	C	09/26/2020	10:46	-133.209	43.483	0	1039.30	0	3.3570	0	36.9680	8	29.429	0	1028.435	0	11.3	4	3.6	4	-1E+10	1	-1E+10	1	-1E+10	1	-1E+10	1	-1E+10	1	-1E+10	1
4901784	191	C	09/26/2020	10:46	-133.209	43.483	0	1045.00	0	3.3460	0	36.9700	8	29.432	0	1034.061	0	11.4	4	3.6	4	-1E+10	1	-1E+10	1	-1E+10	1	-1E+10	1	-1E+10	1	-1E+10	1
4901784	191	C	09/26/2020	10:46	-133.209	43.483	0	1050.70	0	3.3290	0	36.9730	8	29.436	0	1039.687	0	11.5	4	3.6	4	-1E+10	1	-1E+10	1	-1E+10	1	-1E+10	1	-1E+10	1	-1E+10	1
4901784	191	C	09/26/2020	10:46	-133.209	43.483	0	1055.60	0	3.3190	0	36.9750	8	29.439	0	1044.524	0	11.6	4	3.7	4	-1E+10	1	-1E+10	1	-1E+10	1	-1E+10	1	-1E+10	1	-1E+10	1
4901784	191	C	09/26/2020	10:46	-133.209	43.483	0	1060.50	0	3.3080	0	36.9780	8	29.442	0	1049.360	0	11.7	4	3.7	4	-1E+10	1	-1E+10	1	-1E+10	1	-1E+10	1	-1E+10	1	-1E+10	1
4901784	191	C	09/26/2020	10:46	-133.209	43.483	0	1065.50	0	3.2960	0	36.9800	8	29.445	0	1054.295	0	11.8	4	3.7	4	-1E+10	1	-1E+10	1	-1E+10	1	-1E+10	1	-1E+10	1	-1E+10	1
4901784	191	C	09/26/2020	10:46	-133.209	43.483	0	1070.50	0	3.2880	0	36.9820	8	29.448	0	1059.230	0	11.8	4	3.7	4	-1E+10	1	-1E+10	1	-1E+10	1	-1E+10	1	-1E+10	1	-1E+10	1
4901784	191	C	09/26/2020	10:46	-133.209	43.483	0	1075.60	0	3.2770	0	36.9840	8	29.450	0	1064.263	0	11.9	4	3.8	4	-1E+10	1	-1E+10	1	-1E+10	1	-1E+10	1	-1E+10	1	-1E+10	1
4901784	191	C	09/26/2020	10:46	-133.209	43.483	0	1080.70	0	3.2620	0	36.9860	8	29.454	0	1069.296	0	12.0	4	3.8	4	-1E+10	1	-1E+10	1	-1E+10	1	-1E+10	1	-1E+10	1	-1E+10	1
4901784	191	C	09/26/2020	10:46	-133.209	43.483	0	1085.00	0	3.2560	0	36.9880	8	29.456	0	1073.540	0	12.1	4	3.8	4	-1E+10	1	-1E+10	1	-1E+10	1	-1E+10	1	-1E+10	1	-1E+10	1
4901784	191	C	09/26/2020	10:46	-133.209	43.483	0	1089.30	0	3.2490	0	36.9890	8	29.457	0	1077.784	0	12.2	4	3.9	4	-1E+10	1	-1E+10	1	-1E+10	1	-1E+10	1	-1E+10	1	-1E+10	1
4901784	191	C	09/26/2020	10:46	-133.209	43.483	0	1094.50	0	3.2410	0	36.9910	8	29.460	0	1082.915	0	12.2	4	3.9	4	-1E+10	1	-1E+10	1	-1E+10	1	-1E+10	1	-1E+10	1	-1E+10	1
4901784	191	C	09/26/2020	10:46	-133.209	43.483	0	1099.60	0	3.2340	0	36.9920	8	29.461	0	1087.948	0	12.3	4	3.9	4	-1E+10	1	-1E+10	1	-1E+10	1	-1E+10	1	-1E+10	1	-1E+10	1
4901784	191	C	09/26/2020	10:46	-133.209	43.483	0	1104.80	0	3.2260	0	36.9940	8	29.464	0	1093.080	0	12.4	4	3.9	4	-1E+10	1	-1E+10	1	-1E+10	1	-1E+10	1	-1E+10	1	-1E+10	1
4901784	191	C	09/26/2020	10:46	-133.209	43.483	0	1110.00	0	3.2180	0	36.9960	8	29.466	0	1098.211	0	12.5	4	4.0	4	-1E+10	1	-1E+10	1	-1E+10	1	-1E+10	1	-1E+10	1	-1E+10	1
4901784	191	C	09/26/2020	10:46	-133.209	43.483	0	1115.50	0	3.2100	0	36.9980	8	29.469	0	1103.638	0	12.6	4	4.0	4	-1E+10	1	-1E+10	1	-1E+10	1	-1E+10	1	-1E+10	1	-1E+10	1
4901784	191	C	09/26/2020	10:46	-133.209	43.483	0	1120.30	0	3.2030	0	36.9990	8	29.470	0	1108.374	0	12.7	4	4.0	4	-1E+10	1	-1E+10	1	-1E+10	1	-1E+10	1	-1E+10	1	-1E+10	1
4901784	191	C	09/26/2020	10:46	-133.209	43.483	0	1124.70	0	3.1960	0	37.0010	8	29.472	0	1112.716	0	12.8	4	4.1	4	-1E+10	1	-1E+10	1	-1E+10	1	-1E+10	1	-1E+10	1	-1E+10	1
4901784	191	C	09/26/2020	10:46	-133.209	43.483	0	1129.20	0	3.1820	0	37.0030	8	29.476	0	1117.156	0	13.0	4	4.1	4	-1E+10	1	-1E+10	1	-1E+10	1	-1E+10	1	-1E+10	1	-1E+10	1
4901784	191	C	09/26/2020	10:46	-133.209	43.483	0	1135.00	0	3.1720	0	37.0060	8	29.479	0	1122.878	0	13.1	4	4.1	4	-1E+10	1	-1E+10	1	-1E+10	1	-1E+10	1	-1E+10	1	-1E+10	1
4901784	191	C	09/26/2020	10:46	-133.209	43.483	0	1140.80	0	3.1630	0	37.0080	8	29.481	0	1128.601	0	13.2	4	4.2	4	-1E+10	1	-1E+10	1	-1E+10	1	-1E+10	1	-1E+10	1	-1E+10	1
4901784	191	C	09/26/2020	10:46	-133.209	43.483	0	1145.10	0	3.1560	0	37.0090	8	29.483	0	1132.843	0	13.3	4	4.2	4	-1E+10	1	-1E+10	1	-1E+10	1	-1E+10	1	-1E+10	1	-1E+10	1
4901784	191	C	09/26/2020	10:46	-133.209	43.483	0	1149.20	0	3.1470	0	37.0110	8	29.486	0	1136.888	0	13.4	4	4.2	4	-1E+10	1	-1E+10	1	-1E+10	1	-1E+10	1	-1E+10	1	-1E+10	1
4901784	191	C	09/26/2020	10:46	-133.209	43.483	0	1154.40	0	3.1380	0	37.0120	8	29.487	0	1142.019	0	13.5	4	4.3	4	-1E+10	1	-1E+10	1	-1E+10	1	-1E+10	1	-1E+10	1	-1E+10	1
4901784	191	C	09/26/2020	10:46	-133.209	43.483	0	1159.50	0	3.1310	0	37.0140	8	29.490	0	1147.050	0	13.6	4	4.3	4	-1E+10	1	-1E+10	1	-1E+10	1	-1E+10	1	-1E+10	1	-1E+10	1
4901784	191	C	09/26/2020	10:46	-133.209	43.483	0	1164.70	0	3.1250	0	37.0160	8	29.492	0	1152.180	0	13.7	4	4.3	4	-1E+10	1	-1E+10	1	-1E+10	1	-1E+10	1	-1E+10	1	-1E+10	1
4901784	191	C	09/26/2020	10:46	-133.209	43.483	0	1169.90	0	3.1200	0	37.0170	8	29.493	0	1157.310	0	13.8	4	4.4	4	-1E+10	1	-1E+10	1	-1E+10	1	-1E+10	1	-1E+10	1	-1E+10	1
4901784	191	C	09/26/2020	10:46	-133.209	43.483	0	1175.10	0	3.1140	0	37.0180	8	29.495	0	1162.439	0	13.9	4	4.4	4	-1E+10	1	-1E+10	1	-1E+10	1	-1E+10	1	-1E+10	1	-1E+10	1
4901784	191	C	09/26/2020	10:46	-133.209	43.483	0	1180.40	0	3.1020	0	37.0200	8	29.497	0	1167.667	0	14.1	4	4.4	4	-1E+10	1	-1E+10	1	-1E+10	1	-1E+10	1	-1E+10	1	-1E+10	1
4901784	191	C	09/26/2020	10:46	-133.209	43.483	0	1185.70	0	3.0920	0	37.0220	8	29.500	0	1172.895	0	14.2	4	4.5	4	-1E+10	1	-1E+10	1	-1E+10	1	-1E+10	1	-1E+10	1	-1E+10	1
4901784	191	C	09/26/2020	10:46	-133.209	43.483	0	1190.10	0	3.0870	0	37.0230	8	29.501	0	1177.236	0	14.2	4	4.5	4	-1E+10	1	-1E+10	1	-1E+10	1	-1E+10	1	-1E+10	1	-1E+10	1
4901784	191	C	09/26/2020	10:46	-133.209	43.483	0	1194.50	0	3.0810	0	37.0240	8	29.503	0	1181.576	0	14.4	4	4.5	4	-1E+10	1	-1E+10	1	-1E+10	1	-1E+10	1	-1E+10	1	-1E+10	1
4901784	191	C	09/26/2020	10:46	-133.209	43.483	0	1199.80	0	3.0700	0	37.0260	8	29.505	0	1186.803	0	14.5	4	4.6	4	-1E+10	1	-1E+10	1	-1E+10	1	-1E+10	1	-1E+10	1	-1E+10	1
4901784	191	C	09/26/2020	10:46	-133.209	43.483	0	1205.20	0	3.0640	0	37.0270	8	29.507	0	1192.130	0	14.6	4	4.6	4	-1E+10	1	-1E+10	1	-1E+10	1	-1E+10	1	-1E+10	1	-1E+10	1
4901784	191	C	09/26/2020	10:46	-133.209	43.483	0	1210.60	0	3.0560	0	37.0280	8	29.508	0	1197.456	0	14.7	4	4.6	4	-1E+10	1	-1E+10	1	-1E+10	1	-1E+10	1	-1E+10	1	-1E+10	1
4901784	191	C	09/26/2020	10:46	-133.209	43.483	0	1215.10	0	3.0440	0	37.0300	8	29.511	0	1201.894	0	14.9	4	4.7	4	-1E+10	1	-1E+10	1	-1E+10	1	-1E+10	1	-1E+10	1	-1E+10	1
4901784	191	C	09/26/2020	10:46	-133.209	43.483	0	1219.70	0	3.0370	0	37.0320	8	29.514	0	1206.431	0	15.0	4	4.7	4	-1E+10	1	-1E+10	1	-1E+10	1	-1E+10	1	-1E+10	1	-1E+10	1
4901784	191	C	09/26/2020	10:46	-133.209	43.483	0	1225.20	0	3.0290	0	37.0330	8	29.515	0	1211.855	0	15.1	4	4.8	4	-1E+10	1	-1E+10	1	-1E+10	1	-1E+10	1	-1E+10	1	-1E+10	1
4901784	191	C	09/26/2020	10:46	-133.209	43.483	0	1229.70	0	3.0210	0	37.0350	8	29.518	0	1216.293	0	15.3	4	4.8	4	-1E+10	1	-1E+10	1	-1E+10	1	-1E+10	1	-1E+10	1	-1E+10	1
4901784	191	C	09/26/2020	10:46	-133.209	43.483	0	1234.40	0	3.0130	0	37.0360	8	29.519	0	1220.928	0	15.4	4	4.9	4	-1E+10	1	-1E+10	1	-1E+10	1	-1E+10	1	-1E+10	1	-1E+10	1
4901784	191	C	09/26/2020	10:46	-133.209	43.483	0	1240.00	0	3.0030	0	37.0390	8	29.523	0	1226.451	0	15.6	4	4.9	4	-1E+10	1	-1E+10	1	-1E+10	1	-1E+10	1	-1E+10	1	-1E+10	1
4901784	191	C	09/26/2020	10:46	-133.209	43.483	0	1244.70	0	2.9950	0	37.0400	8	29.524	0	1231.086	0	15.8	4	5.0	4	-1E+10	1	-1E+10	1	-1E+10	1	-1E+10	1	-1E+10	1	-1E+10	1
4901784	191	C	09/26/2020	10:46	-133.209	43.483	0	1249.30	0	2.9890	0	37.0410	8	29.526	0	1235.622	0	15.9	4	5.0	4	-1E+10	1	-1E+10	1	-1E+10	1	-1E+10	1	-1E+10	1	-1E+10	1
4901784	191	C	09/26/2020	10:46	-133.209	43.483	0	1254.50	0	2.9710	0	37.0440	8	29.530	0	1240.750	0	16.0	4	5.0	4	-1E+10	1	-1E+10	1	-1E+10	1	-1E+10	1	-1E+10	1	-1E+10	1
4901784	191	C	09/26/2020	10:46	-133.209	43.483	0	1259.70	0	2.9660	0	37.0450	8	29.531	0	1245.877	0	16.1	4	5.1	4	-1E+10	1	-1E+10	1	-1E+10	1	-1E+10	1	-1E+10	1	-1E+10	1
4901784	191	C	09/26/2020	10:46	-133.209	43.483	0	1264.90	0	2.9590	0	37.0460	8	29.533	0	1251.005	0	16.3	4	5.1	4	-1E+10	1	-1E+10	1	-1E+10	1	-1E+10	1	-1E+10	1	-1E+10	1
4901784	191	C	09/26/2020	10:46	-133.209	43.483	0	1270.10	0	2.9510	0	37.0470	8	29.534	0	1256.132	0	16.5	4	5.2	4	-1E+10	1	-1E+10	1	-1E+10	1	-1E+10	1	-1E+10	1	-1E+10	1
4901784	191	C	09/26/2020	10:46	-133.209	43.483	0	1275.40	0	2.9400	0	37.0490	8	29.537	0	1261.358	0	16.6	4	5.2	4	-1E+10	1	-1E+10	1	-1E+10	1	-1E+10	1	-1E+10	1	-1E+10	1
4901784	191	C	09/26/2020	10:46	-133.209	43.483	0	1280.70	0	2.9340	0	37.0510	8	29.539	0	1266.584	0	16.8	4	5.3	4	-1E+10	1	-1E+10	1	-1E+10	1	-1E+10	1	-1E+10	1	-1E+10	1
4901784	191	C	09/26/2020	10:46	-133.209	43.483	0	1285.10	0	2.9300	0	37.0520	8	29.540	0	1270.922	0	17.0	4	5.3	4	-1E+10	1	-1E+10	1	-1E+10	1	-1E+10	1	-1E+10	1	-1E+10	1
4901784	191	C	09/26/2020	10:46	-133.209	43.483	0	1289.60	0	2.9220	0	37.0540	8	29.543	0	1275.359	0	17.2	4	5.4	4	-1E+10	1	-1E+10	1	-1E+10	1	-1E+10	1	-1E+10	1	-1E+10	1
4901784	191	C	09/26/2020	10:46	-133.209	43.483	0	1295.00	0	2.9130	0	37.0550	8	29.545	0	1280.683	0	17.4	4	5.5	4	-1E+10	1	-1E+10	1	-1E+10	1	-1E+10	1	-1E+10	1	-1E+10	1
4901784	191	C	09/26/2020	10:46	-133.209	43.483	0	1300.40	0	2.9060	0	37.0570	8	29.547	0	1286.007	0	17.6	4	5.5	4	-1E+10	1	-1E+10	1	-1E+10	1	-1E+10	1	-1E+10	1	-1E+10	1
4901784	191	C	09/26/2020	10:46	-133.209	43.483	0	1304.90	0	2.8920	0	37.0580	8	29.549	0	1290.443	0	17.8	4	5.6	4	-1E+10	1	-1E+10	1	-1E+10	1	-1E+10	1	-1E+10	1	-1E+10	1
4901784	191	C	09/26/2020	10:46	-133.209	43.483	0	1309.50	0	2.8800	0	37.0600	8	29.552	0	1294.978	0	18.1	4	5.7	4	-1E+10	1	-1E+10	1	-1E+10	1	-1E+10	1	-1E+10	1	-1E+10	1
4901784	191	C	09/26/2020	10:46	-133.209	43.483	0	1314.90	0	2.8730	0	37.0630	8	29.555	0	1300.301	0	18.3	4	5.7	4	-1E+10	1	-1E+10	1	-1E+10	1	-1E+10	1	-1E+10	1	-1E+10	1
4901784	191	C	09/26/2020	10:46	-133.209	43.483	0	1320.30	0	2.8660	0	37.0640	8	29.556	0	1305.625	0	18.4	4	5.8	4	-1E+10	1	-1E+10	1	-1E+10	1	-1E+10	1	-1E+10	1	-1E+10	1
4901784	191	C	09/26/2020	10:46	-133.209	43.483	0	1324.90	0	2.8550	0	37.0650	8	29.558	0	1310.159	0	18.6	4	5.8	4	-1E+10	1	-1E+10	1	-1E+10	1	-1E+10	1	-1E+10	1	-1E+10	1
4901784	191	C	09/26/2020	10:46	-133.209	43.483	0	1329.40	0	2.8470	0	37.0670	8	29.561	0	1314.595	0	18.8	4	5.9	4	-1E+10	1	-1E+10	1	-1E+10	1	-1E+10	1	-1E+10	1	-1E+10	1
4901784	191	C	09/26/2020	10:46	-133.209	43.483	0	1335.50	0	2.8430	0	37.0690	8	29.563	0	1320.608	0	19.1	4	6.0	4	-1E+10	1	-1E+10	1	-1E+10	1	-1E+10	1	-1E+10	1	-1E+10	1
4901784	191	C	09/26/2020	10:46	-133.209	43.483	0	1340.50	0	2.8400	0	37.0700	8	29.564	0	1325.537	0	19.2	4	6.0	4	-1E+10	1	-1E+10	1	-1E+10	1	-1E+10	1	-1E+10	1	-1E+10	1
4901784	191	C	09/26/2020	10:46	-133.209	43.483	0	1345.20	0	2.8370	0	37.0700	8	29.564	0	1330.169	0	19.3	4	6.1	4	-1E+10	1	-1E+10	1	-1E+10	1	-1E+10	1	-1E+10	1	-1E+10	1
4901784	191	C	09/26/2020	10:46	-133.209	43.483	0	1350.10	0	2.8300	0	37.0720	8	29.566	0	1334.999	0	19.5	4	6.1	4	-1E+10	1	-1E+10	1	-1E+10	1	-1E+10	1	-1E+10	1	-1E+10	1
4901784	191	C	09/26/2020	10:46	-133.209	43.483	0	1354.90	0	2.8200	0	37.0730	8	29.568	0	1339.730	0	19.7	4	6.2	4	-1E+10	1	-1E+10	1	-1E+10	1	-1E+10	1	-1E+10	1	-1E+10	1
4901784	191	C	09/26/2020	10:46	-133.209	43.483	0	1359.70	0	2.8120	0	37.0750	8	29.571	0	1344.461	0	19.9	4	6.2	4	-1E+10	1	-1E+10	1	-1E+10	1	-1E+10	1	-1E+10	1	-1E+10	1
4901784	191	C	09/26/2020	10:46	-133.209	43.483	0	1364.50	0	2.8030	0	37.0770	8	29.573	0	1349.192	0	20.0	4	6.3	4	-1E+10	1	-1E+10	1	-1E+10	1	-1E+10	1	-1E+10	1	-1E+10	1
4901784	191	C	09/26/2020	10:46	-133.209	43.483	0	1369.40	0	2.7980	0	37.0770	8	29.574	0	1354.021	0	20.0	4	6.3	4	-1E+10	1	-1E+10	1	-1E+10	1	-1E+10	1	-1E+10	1	-1E+10	1
4901784	191	C	09/26/2020	10:46	-133.209	43.483	0	1374.40	0	2.7870	0	37.0790	8	29.576	0	1358.949	0	20.1	4	6.3	4	-1E+10	1	-1E+10	1	-1E+10	1	-1E+10	1	-1E+10	1	-1E+10	1
4901784	191	C	09/26/2020	10:46	-133.209	43.483	0	1379.30	0	2.7800	0	37.0800	8	29.578	0	1363.778	0	20.3	4	6.4	4	-1E+10	1	-1E+10	1	-1E+10	1	-1E+10	1	-1E+10	1	-1E+10	1
4901784	191	C	09/26/2020	10:46	-133.209	43.483	0	1384.30	0	2.7740	0	37.0800	8	29.578	0	1368.706	0	20.5	4	6.4	4	-1E+10	1	-1E+10	1	-1E+10	1	-1E+10	1	-1E+10	1	-1E+10	1
4901784	191	C	09/26/2020	10:46	-133.209	43.483	0	1389.20	0	2.7680	0	37.0820	8	29.581	0	1373.534	0	20.9	4	6.5	4	-1E+10	1	-1E+10	1	-1E+10	1	-1E+10	1	-1E+10	1	-1E+10	1
4901784	191	C	09/26/2020	10:46	-133.209	43.483	0	1394.20	0	2.7600	0	37.0840	8	29.583	0	1378.462	0	21.0	4	6.6	4	-1E+10	1	-1E+10	1	-1E+10	1	-1E+10	1	-1E+10	1	-1E+10	1
4901784	191	C	09/26/2020	10:46	-133.209	43.483	0	1399.20	0	2.7570	0	37.0850	8	29.584	0	1383.389	0	21.1	4	6.6	4	-1E+10	1	-1E+10	1	-1E+10	1	-1E+10	1	-1E+10	1	-1E+10	1
4901784	191	C	09/26/2020	10:46	-133.209	43.483	0	1404.30	0	2.7490	0	37.0860	8	29.586	0	1388.415	0	21.3	4	6.7	4	-1E+10	1	-1E+10	1	-1E+10	1	-1E+10	1	-1E+10	1	-1E+10	1
4901784	191	C	09/26/2020	10:46	-133.209	43.483	0	1409.30	0	2.7400	0	37.0870	8	29.587	0	1393.341	0	21.7	4	6.8	4	-1E+10	1	-1E+10	1	-1E+10	1	-1E+10	1	-1E+10	1	-1E+10	1
4901784	191	C	09/26/2020	10:46	-133.209	43.483	0	1414.30	0	2.7330	0	37.0890	8	29.590	0	1398.268	0	22.1	4	6.9	4	-1E+10	1	-1E+10	1	-1E+10	1	-1E+10	1	-1E+10	1	-1E+10	1
4901784	191	C	09/26/2020	10:46	-133.209	43.483	0	1419.40	0	2.7260	0	37.0910	8	29.592	0	1403.293	0	22.4	4	7.0	4	-1E+10	1	-1E+10	1	-1E+10	1	-1E+10	1	-1E+10	1	-1E+10	1
4901784	191	C	09/26/2020	10:46	-133.209	43.483	0	1424.50	0	2.7160	0	37.0930	8	29.595	0	1408.319	0	22.8	4	7.1	4	-1E+10	1	-1E+10	1	-1E+10	1	-1E+10	1	-1E+10	1	-1E+10	1
4901784	191	C	09/26/2020	10:46	-133.209	43.483	0	1429.60	0	2.7040	0	37.0940	8	29.596	0	1413.344	0	23.0	4	7.2	4	-1E+10	1	-1E+10	1	-1E+10	1	-1E+10	1	-1E+10	1	-1E+10	1
4901784	191	C	09/26/2020	10:46	-133.209	43.483	0	1434.70	0	2.6840	0	37.0950	8	29.599	0	1418.368	0	23.4	4	7.3	4	-1E+10	1	-1E+10	1	-1E+10	1	-1E+10	1	-1E+10	1	-1E+10	1
4901784	191	C	09/26/2020	10:46	-133.209	43.483	0	1439.90	0	2.6700	0	37.0980	8	29.603	0	1423.492	0	23.7	4	7.4	4	-1E+10	1	-1E+10	1	-1E+10	1	-1E+10	1	-1E+10	1	-1E+10	1
4901784	191	C	09/26/2020	10:46	-133.209	43.483	0	1445.00	0	2.6600	0	37.1000	8	29.605	0	1428.516	0	24.0	4	7.5	4	-1E+10	1	-1E+10	1	-1E+10	1	-1E+10	1	-1E+10	1	-1E+10	1
4901784	191	C	09/26/2020	10:46	-133.209	43.483	0	1450.20	0	2.6540	0	37.1030	8	29.608	0	1433.639	0	24.2	4	7.6	4	-1E+10	1	-1E+10	1	-1E+10	1	-1E+10	1	-1E+10	1	-1E+10	1
4901784	191	C	09/26/2020	10:46	-133.209	43.483	0	1455.40	0	2.6510	0	37.1040	8	29.610	0	1438.762	0	24.5	4	7.6	4	-1E+10	1	-1E+10	1	-1E+10	1	-1E+10	1	-1E+10	1	-1E+10	1
4901784	191	C	09/26/2020	10:46	-133.209	43.483	0	1460.60	0	2.6410	0	37.1060	8	29.612	0	1443.885	0	24.7	4	7.7	4	-1E+10	1	-1E+10	1	-1E+10	1	-1E+10	1	-1E+10	1	-1E+10	1
4901784	191	C	09/26/2020	10:46	-133.209	43.483	0	1465.00	0	2.6380	0	37.1070	8	29.613	0	1448.220	0	24.8	4	7.7	4	-1E+10	1	-1E+10	1	-1E+10	1	-1E+10	1	-1E+10	1	-1E+10	1
4901784	191	C	09/26/2020	10:46	-133.209	43.483	0	1469.30	0	2.6290	0	37.1070	8	29.614	0	1452.456	0	25.0	4	7.8	4	-1E+10	1	-1E+10	1	-1E+10	1	-1E+10	1	-1E+10	1	-1E+10	1
4901784	191	C	09/26/2020	10:46	-133.209	43.483	0	1474.60	0	2.6240	0	37.1080	8	29.615	0	1457.677	0	25.3	4	7.9	4	-1E+10	1	-1E+10	1	-1E+10	1	-1E+10	1	-1E+10	1	-1E+10	1
4901784	191	C	09/26/2020	10:46	-133.209	43.483	0	1479.90	0	2.6180	0	37.1090	8	29.617	0	1462.898	0	25.6	4	8.0	4	-1E+10	1	-1E+10	1	-1E+10	1	-1E+10	1	-1E+10	1	-1E+10	1
4901784	191	C	09/26/2020	10:46	-133.209	43.483	0	1485.10	0	2.6080	0	37.1120	8	29.620	0	1468.020	0	25.9	4	8.1	4	-1E+10	1	-1E+10	1	-1E+10	1	-1E+10	1	-1E+10	1	-1E+10	1
4901784	191	C	09/26/2020	10:46	-133.209	43.483	0	1490.40	0	2.5990	0	37.1140	8	29.623	0	1473.240	0	26.2	4	8.2	4	-1E+10	1	-1E+10	1	-1E+10	1	-1E+10	1	-1E+10	1	-1E+10	1
4901784	191	C	09/26/2020	10:46	-133.209	43.483	0	1495.70	0	2.5930	0	37.1170	8	29.626	0	1478.461	0	26.5	4	8.3	4	-1E+10	1	-1E+10	1	-1E+10	1	-1E+10	1	-1E+10	1	-1E+10	1
4901784	191	C	09/26/2020	10:46	-133.209	43.483	0	1500.10	0	2.5810	0	37.1200	8	29.629	0	1482.795	0	26.8	4	8.4	4	-1E+10	1	-1E+10	1	-1E+10	1	-1E+10	1	-1E+10	1	-1E+10	1
4901784	191	C	09/26/2020	10:46	-133.209	43.483	0	1504.60	0	2.5740	0	37.1240	8	29.633	0	1487.227	0	27.2	4	8.5	4	-1E+10	1	-1E+10	1	-1E+10	1	-1E+10	1	-1E+10	1	-1E+10	1
4901784	191	C	09/26/2020	10:46	-133.209	43.483	0	1510.00	0	2.5630	0	37.1290	8	29.638	0	1492.545	0	27.8	4	8.7	4	-1E+10	1	-1E+10	1	-1E+10	1	-1E+10	1	-1E+10	1	-1E+10	1
4901784	191	C	09/26/2020	10:46	-133.209	43.483	0	1515.40	0	2.5560	0	37.1350	8	29.644	0	1497.864	0	28.4	4	8.9	4	-1E+10	1	-1E+10	1	-1E+10	1	-1E+10	1	-1E+10	1	-1E+10	1
4901784	191	C	09/26/2020	10:46	-133.209	43.483	0	1519.90	0	2.5520	0	37.1400	8	29.648	0	1502.296	0	28.8	4	9.0	4	-1E+10	1	-1E+10	1	-1E+10	1	-1E+10	1	-1E+10	1	-1E+10	1
4901784	191	C	09/26/2020	10:46	-133.209	43.483	0	1524.40	0	2.5460	0	37.1480	8	29.655	0	1506.728	0	29.1	4	9.1	4	-1E+10	1	-1E+10	1	-1E+10	1	-1E+10	1	-1E+10	1	-1E+10	1
4901784	191	C	09/26/2020	10:46	-133.209	43.483	0	1529.90	0	2.5380	0	37.1570	8	29.663	0	1512.144	0	29.3	4	9.1	4	-1E+10	1	-1E+10	1	-1E+10	1	-1E+10	1	-1E+10	1	-1E+10	1
4901784	191	C	09/26/2020	10:46	-133.209	43.483	0	1535.30	0	2.5320	0	37.1790	8	29.681	0	1517.462	0	29.5	4	9.2	4	-1E+10	1	-1E+10	1	-1E+10	1	-1E+10	1	-1E+10	1	-1E+10	1
4901784	191	C	09/26/2020	10:46	-133.209	43.483	0	1539.80	0	2.5280	0	37.1900	8	29.690	0	1521.894	0	29.6	4	9.2	4	-1E+10	1	-1E+10	1	-1E+10	1	-1E+10	1	-1E+10	1	-1E+10	1
4901784	191	C	09/26/2020	10:46	-133.209	43.483	0	1544.30	0	2.5180	0	37.1770	8	29.681	0	1526.325	0	29.4	4	9.1	4	-1E+10	1	-1E+10	1	-1E+10	1	-1E+10	1	-1E+10	1	-1E+10	1
4901784	191	C	09/26/2020	10:46	-133.209	43.483	0	1549.80	0	2.4950	0	37.1730	8	29.680	0	1531.741	0	29.2	4	9.1	4	-1E+10	1	-1E+10	1	-1E+10	1	-1E+10	1	-1E+10	1	-1E+10	1
4901784	191	C	09/26/2020	10:46	-133.209	43.483	0	1555.30	0	2.4830	0	37.1710	8	29.679	0	1537.157	0	29.4	4	9.2	4	-1E+10	1	-1E+10	1	-1E+10	1	-1E+10	1	-1E+10	1	-1E+10	1
4901784	191	C	09/26/2020	10:46	-133.209	43.483	0	1559.90	0	2.4710	0	37.1750	8	29.684	0	1541.687	0	29.7	4	9.2	4	-1E+10	1	-1E+10	1	-1E+10	1	-1E+10	1	-1E+10	1	-1E+10	1
4901784	191	C	09/26/2020	10:46	-133.209	43.483	0	1564.50	0	2.4550	0	37.1770	8	29.687	0	1546.216	0	30.1	4	9.3	4	-1E+10	1	-1E+10	1	-1E+10	1	-1E+10	1	-1E+10	1	-1E+10	1
4901784	191	C	09/26/2020	10:46	-133.209	43.483	0	1570.00	0	2.4450	0	37.1920	8	29.700	0	1551.632	0	30.4	4	9.5	4	-1E+10	1	-1E+10	1	-1E+10	1	-1E+10	1	-1E+10	1	-1E+10	1
4901784	191	C	09/26/2020	10:46	-133.209	43.483	0	1575.10	0	2.4350	0	37.1870	8	29.697	0	1556.653	0	30.8	4	9.6	4	-1E+10	1	-1E+10	1	-1E+10	1	-1E+10	1	-1E+10	1	-1E+10	1
4901784	191	C	09/26/2020	10:46	-133.209	43.483	0	1579.40	0	2.4220	0	37.1890	8	29.699	0	1560.887	0	31.1	4	9.7	4	-1E+10	1	-1E+10	1	-1E+10	1	-1E+10	1	-1E+10	1	-1E+10	1
4901784	191	C	09/26/2020	10:46	-133.209	43.483	0	1584.90	0	2.4180	0	37.1800	8	29.693	0	1566.302	0	31.3	4	9.7	4	-1E+10	1	-1E+10	1	-1E+10	1	-1E+10	1	-1E+10	1	-1E+10	1
4901784	191	C	09/26/2020	10:46	-133.209	43.483	0	1590.50	0	2.4110	0	37.1830	8	29.696	0	1571.816	0	31.6	4	9.8	4	-1E+10	1	-1E+10	1	-1E+10	1	-1E+10	1	-1E+10	1	-1E+10	1
4901784	191	C	09/26/2020	10:46	-133.209	43.483	0	1595.40	0	2.4070	0	37.1880	8	29.700	0	1576.640	0	31.8	4	9.9	4	-1E+10	1	-1E+10	1	-1E+10	1	-1E+10	1	-1E+10	1	-1E+10	1
4901784	191	C	09/26/2020	10:46	-133.209	43.483	0	1600.30	0	2.4020	0	37.1810	8	29.695	0	1581.464	0	32.1	4	10.0	4	-1E+10	1	-1E+10	1	-1E+10	1	-1E+10	1	-1E+10	1	-1E+10	1
4901784	191	C	09/26/2020	10:46	-133.209	43.483	0	1605.30	0	2.3910	0	37.1770	8	29.693	0	1586.387	0	32.5	4	10.1	4	-1E+10	1	-1E+10	1	-1E+10	1	-1E+10	1	-1E+10	1	-1E+10	1
4901784	191	C	09/26/2020	10:46	-133.209	43.483	0	1610.20	0	2.3830	0	37.1770	8	29.694	0	1591.210	0	32.8	4	10.2	4	-1E+10	1	-1E+10	1	-1E+10	1	-1E+10	1	-1E+10	1	-1E+10	1
4901784	191	C	09/26/2020	10:46	-133.209	43.483	0	1615.20	0	2.3780	0	37.1800	8	29.696	0	1596.133	0	33.0	4	10.3	4	-1E+10	1	-1E+10	1	-1E+10	1	-1E+10	1	-1E+10	1	-1E+10	1
4901784	191	C	09/26/2020	10:46	-133.209	43.483	0	1620.20	0	2.3710	0	37.1760	8	29.694	0	1601.055	0	33.4	4	10.4	4	-1E+10	1	-1E+10	1	-1E+10	1	-1E+10	1	-1E+10	1	-1E+10	1
4901784	191	C	09/26/2020	10:46	-133.209	43.483	0	1625.10	0	2.3600	0	37.1740	8	29.693	0	1605.878	0	33.8	4	10.5	4	-1E+10	1	-1E+10	1	-1E+10	1	-1E+10	1	-1E+10	1	-1E+10	1
4901784	191	C	09/26/2020	10:46	-133.209	43.483	0	1630.20	0	2.3530	0	37.1720	8	29.692	0	1610.899	0	34.1	4	10.6	4	-1E+10	1	-1E+10	1	-1E+10	1	-1E+10	1	-1E+10	1	-1E+10	1
4901784	191	C	09/26/2020	10:46	-133.209	43.483	0	1635.10	0	2.3460	0	37.1730	8	29.694	0	1615.722	0	34.4	4	10.7	4	-1E+10	1	-1E+10	1	-1E+10	1	-1E+10	1	-1E+10	1	-1E+10	1
4901784	191	C	09/26/2020	10:46	-133.209	43.483	0	1640.10	0	2.3380	0	37.1720	8	29.694	0	1620.644	0	34.8	4	10.8	4	-1E+10	1	-1E+10	1	-1E+10	1	-1E+10	1	-1E+10	1	-1E+10	1
4901784	191	C	09/26/2020	10:46	-133.209	43.483	0	1645.20	0	2.3320	0	37.1730	8	29.695	0	1625.663	0	35.1	4	10.9	4	-1E+10	1	-1E+10	1	-1E+10	1	-1E+10	1	-1E+10	1	-1E+10	1
4901784	191	C	09/26/2020	10:46	-133.209	43.483	0	1650.30	0	2.3230	0	37.1760	8	29.698	0	1630.683	0	35.5	4	11.0	4	-1E+10	1	-1E+10	1	-1E+10	1	-1E+10	1	-1E+10	1	-1E+10	1
4901784	191	C	09/26/2020	10:46	-133.209	43.483	0	1655.30	0	2.3110	0	37.1780	8	29.701	0	1635.605	0	36.0	4	11.2	4	-1E+10	1	-1E+10	1	-1E+10	1	-1E+10	1	-1E+10	1	-1E+10	1
4901784	191	C	09/26/2020	10:46	-133.209	43.483	0	1660.40	0	2.3030	0	37.1780	8	29.702	0	1640.624	0	36.3	4	11.3	4	-1E+10	1	-1E+10	1	-1E+10	1	-1E+10	1	-1E+10	1	-1E+10	1
4901784	191	C	09/26/2020	10:46	-133.209	43.483	0	1665.40	0	2.2980	0	37.1760	8	29.701	0	1645.545	0	36.7	4	11.4	4	-1E+10	1	-1E+10	1	-1E+10	1	-1E+10	1	-1E+10	1	-1E+10	1
4901784	191	C	09/26/2020	10:46	-133.209	43.483	0	1670.50	0	2.2890	0	37.1760	8	29.701	0	1650.565	0	37.1	4	11.5	4	-1E+10	1	-1E+10	1	-1E+10	1	-1E+10	1	-1E+10	1	-1E+10	1
4901784	191	C	09/26/2020	10:46	-133.209	43.483	0	1675.50	0	2.2780	0	37.1780	8	29.704	0	1655.485	0	37.4	4	11.6	4	-1E+10	1	-1E+10	1	-1E+10	1	-1E+10	1	-1E+10	1	-1E+10	1
4901784	191	C	09/26/2020	10:46	-133.209	43.483	0	1680.60	0	2.2750	0	37.1780	8	29.704	0	1660.505	0	37.6	4	11.6	4	-1E+10	1	-1E+10	1	-1E+10	1	-1E+10	1	-1E+10	1	-1E+10	1
4901784	191	C	09/26/2020	10:46	-133.209	43.483	0	1685.80	0	2.2690	0	37.1780	8	29.705	0	1665.622	0	37.9	4	11.7	4	-1E+10	1	-1E+10	1	-1E+10	1	-1E+10	1	-1E+10	1	-1E+10	1
4901784	191	C	09/26/2020	10:46	-133.209	43.483	0	1690.10	0	2.2660	0	37.1800	8	29.707	0	1669.854	0	38.1	4	11.8	4	-1E+10	1	-1E+10	1	-1E+10	1	-1E+10	1	-1E+10	1	-1E+10	1
4901784	191	C	09/26/2020	10:46	-133.209	43.483	0	1694.40	0	2.2630	0	37.1810	8	29.708	0	1674.085	0	38.3	4	11.9	4	-1E+10	1	-1E+10	1	-1E+10	1	-1E+10	1	-1E+10	1	-1E+10	1
4901784	191	C	09/26/2020	10:46	-133.209	43.483	0	1699.70	0	2.2560	0	37.1800	8	29.708	0	1679.301	0	38.6	4	11.9	4	-1E+10	1	-1E+10	1	-1E+10	1	-1E+10	1	-1E+10	1	-1E+10	1
4901784	191	C	09/26/2020	10:46	-133.209	43.483	0	1704.90	0	2.2530	0	37.1830	8	29.710	0	1684.418	0	38.7	4	12.0	4	-1E+10	1	-1E+10	1	-1E+10	1	-1E+10	1	-1E+10	1	-1E+10	1
4901784	191	C	09/26/2020	10:46	-133.209	43.483	0	1710.10	0	2.2500	0	37.1830	8	29.711	0	1689.534	0	38.9	4	12.0	4	-1E+10	1	-1E+10	1	-1E+10	1	-1E+10	1	-1E+10	1	-1E+10	1
4901784	191	C	09/26/2020	10:46	-133.209	43.483	0	1715.30	0	2.2470	0	37.1840	8	29.712	0	1694.651	0	39.2	4	12.1	4	-1E+10	1	-1E+10	1	-1E+10	1	-1E+10	1	-1E+10	1	-1E+10	1
4901784	191	C	09/26/2020	10:46	-133.209	43.483	0	1720.60	0	2.2430	0	37.1840	8	29.712	0	1699.866	0	39.4	4	12.2	4	-1E+10	1	-1E+10	1	-1E+10	1	-1E+10	1	-1E+10	1	-1E+10	1
4901784	191	C	09/26/2020	10:46	-133.209	43.483	0	1725.00	0	2.2430	0	37.1840	8	29.712	0	1704.195	0	39.7	4	12.3	4	-1E+10	1	-1E+10	1	-1E+10	1	-1E+10	1	-1E+10	1	-1E+10	1
4901784	191	C	09/26/2020	10:46	-133.209	43.483	0	1729.40	0	2.2340	0	37.1850	8	29.714	0	1708.525	0	40.2	4	12.4	4	-1E+10	1	-1E+10	1	-1E+10	1	-1E+10	1	-1E+10	1	-1E+10	1
4901784	191	C	09/26/2020	10:46	-133.209	43.483	0	1734.70	0	2.2240	0	37.1880	8	29.717	0	1713.739	0	40.7	4	12.6	4	-1E+10	1	-1E+10	1	-1E+10	1	-1E+10	1	-1E+10	1	-1E+10	1
4901784	191	C	09/26/2020	10:46	-133.209	43.483	0	1740.00	0	2.2160	0	37.1900	8	29.720	0	1718.954	0	41.1	4	12.7	4	-1E+10	1	-1E+10	1	-1E+10	1	-1E+10	1	-1E+10	1	-1E+10	1
4901784	191	C	09/26/2020	10:46	-133.209	43.483	0	1745.40	0	2.2080	0	37.1910	8	29.721	0	1724.266	0	41.6	4	12.8	4	-1E+10	1	-1E+10	1	-1E+10	1	-1E+10	1	-1E+10	1	-1E+10	1
4901784	191	C	09/26/2020	10:46	-133.209	43.483	0	1750.70	0	2.2040	0	37.1910	8	29.722	0	1729.481	0	41.9	4	13.0	4	-1E+10	1	-1E+10	1	-1E+10	1	-1E+10	1	-1E+10	1	-1E+10	1
4901784	191	C	09/26/2020	10:46	-133.209	43.483	0	1755.10	0	2.1980	0	37.1940	8	29.724	0	1733.809	0	42.3	4	13.1	4	-1E+10	1	-1E+10	1	-1E+10	1	-1E+10	1	-1E+10	1	-1E+10	1
4901784	191	C	09/26/2020	10:46	-133.209	43.483	0	1759.60	0	2.1930	0	37.1920	8	29.723	0	1738.236	0	42.8	4	13.2	4	-1E+10	1	-1E+10	1	-1E+10	1	-1E+10	1	-1E+10	1	-1E+10	1
4901784	191	C	09/26/2020	10:46	-133.209	43.483	0	1765.00	0	2.1810	0	37.1960	8	29.728	0	1743.549	0	43.5	4	13.4	4	-1E+10	1	-1E+10	1	-1E+10	1	-1E+10	1	-1E+10	1	-1E+10	1
4901784	191	C	09/26/2020	10:46	-133.209	43.483	0	1770.40	0	2.1710	0	37.1980	8	29.730	0	1748.861	0	43.9	4	13.6	4	-1E+10	1	-1E+10	1	-1E+10	1	-1E+10	1	-1E+10	1	-1E+10	1
4901784	191	C	09/26/2020	10:46	-133.209	43.483	0	1774.80	0	2.1680	0	37.1980	8	29.730	0	1753.189	0	44.2	4	13.7	4	-1E+10	1	-1E+10	1	-1E+10	1	-1E+10	1	-1E+10	1	-1E+10	1
4901784	191	C	09/26/2020	10:46	-133.209	43.483	0	1779.30	0	2.1620	0	37.1990	8	29.732	0	1757.616	0	44.6	4	13.8	4	-1E+10	1	-1E+10	1	-1E+10	1	-1E+10	1	-1E+10	1	-1E+10	1
4901784	191	C	09/26/2020	10:46	-133.209	43.483	0	1784.60	0	2.1520	0	37.2020	8	29.735	0	1762.829	0	44.9	4	13.9	4	-1E+10	1	-1E+10	1	-1E+10	1	-1E+10	1	-1E+10	1	-1E+10	1
4901784	191	C	09/26/2020	10:46	-133.209	43.483	0	1790.00	0	2.1490	0	37.2010	8	29.735	0	1768.141	0	45.2	4	14.0	4	-1E+10	1	-1E+10	1	-1E+10	1	-1E+10	1	-1E+10	1	-1E+10	1
4901784	191	C	09/26/2020	10:46	-133.209	43.483	0	1795.40	0	2.1420	0	37.2030	8	29.737	0	1773.452	0	45.6	4	14.1	4	-1E+10	1	-1E+10	1	-1E+10	1	-1E+10	1	-1E+10	1	-1E+10	1
4901784	191	C	09/26/2020	10:46	-133.209	43.483	0	1799.90	0	2.1350	0	37.2050	8	29.739	0	1777.879	0	45.9	4	14.2	4	-1E+10	1	-1E+10	1	-1E+10	1	-1E+10	1	-1E+10	1	-1E+10	1
4901784	191	C	09/26/2020	10:46	-133.209	43.483	0	1804.50	0	2.1270	0	37.2070	8	29.741	0	1782.403	0	46.2	4	14.3	4	-1E+10	1	-1E+10	1	-1E+10	1	-1E+10	1	-1E+10	1	-1E+10	1
4901784	191	C	09/26/2020	10:46	-133.209	43.483	0	1809.90	0	2.1250	0	37.2100	8	29.744	0	1787.714	0	46.5	4	14.3	4	-1E+10	1	-1E+10	1	-1E+10	1	-1E+10	1	-1E+10	1	-1E+10	1
4901784	191	C	09/26/2020	10:46	-133.209	43.483	0	1815.30	0	2.1200	0	37.2100	8	29.744	0	1793.025	0	46.9	4	14.5	4	-1E+10	1	-1E+10	1	-1E+10	1	-1E+10	1	-1E+10	1	-1E+10	1
4901784	191	C	09/26/2020	10:46	-133.209	43.483	0	1820.70	0	2.1080	0	37.2120	8	29.747	0	1798.336	0	47.4	4	14.6	4	-1E+10	1	-1E+10	1	-1E+10	1	-1E+10	1	-1E+10	1	-1E+10	1
4901784	191	C	09/26/2020	10:46	-133.209	43.483	0	1825.60	0	2.1010	0	37.2160	8	29.751	0	1803.155	0	47.8	4	14.7	4	-1E+10	1	-1E+10	1	-1E+10	1	-1E+10	1	-1E+10	1	-1E+10	1
4901784	191	C	09/26/2020	10:46	-133.209	43.483	0	1830.40	0	2.0970	0	37.2180	8	29.753	0	1807.876	0	48.1	4	14.8	4	-1E+10	1	-1E+10	1	-1E+10	1	-1E+10	1	-1E+10	1	-1E+10	1
4901784	191	C	09/26/2020	10:46	-133.209	43.483	0	1835.40	0	2.0910	0	37.2190	8	29.754	0	1812.793	0	48.5	4	15.0	4	-1E+10	1	-1E+10	1	-1E+10	1	-1E+10	1	-1E+10	1	-1E+10	1
4901784	191	C	09/26/2020	10:46	-133.209	43.483	0	1840.50	0	2.0850	0	37.2180	8	29.754	0	1817.808	0	49.0	4	15.1	4	-1E+10	1	-1E+10	1	-1E+10	1	-1E+10	1	-1E+10	1	-1E+10	1
4901784	191	C	09/26/2020	10:46	-133.209	43.483	0	1845.50	0	2.0750	0	37.2200	8	29.757	0	1822.725	0	49.4	4	15.2	4	-1E+10	1	-1E+10	1	-1E+10	1	-1E+10	1	-1E+10	1	-1E+10	1
4901784	191	C	09/26/2020	10:46	-133.209	43.483	0	1850.60	0	2.0710	0	37.2200	8	29.757	0	1827.740	0	49.7	4	15.3	4	-1E+10	1	-1E+10	1	-1E+10	1	-1E+10	1	-1E+10	1	-1E+10	1
4901784	191	C	09/26/2020	10:46	-133.209	43.483	0	1855.60	0	2.0630	0	37.2220	8	29.759	0	1832.657	0	50.1	4	15.4	4	-1E+10	1	-1E+10	1	-1E+10	1	-1E+10	1	-1E+10	1	-1E+10	1
4901784	191	C	09/26/2020	10:46	-133.209	43.483	0	1860.70	0	2.0570	0	37.2220	8	29.760	0	1837.672	0	50.3	4	15.5	4	-1E+10	1	-1E+10	1	-1E+10	1	-1E+10	1	-1E+10	1	-1E+10	1
4901784	191	C	09/26/2020	10:46	-133.209	43.483	0	1865.00	0	2.0580	0	37.2200	8	29.758	0	1841.900	0	50.4	4	15.5	4	-1E+10	1	-1E+10	1	-1E+10	1	-1E+10	1	-1E+10	1	-1E+10	1
4901784	191	C	09/26/2020	10:46	-133.209	43.483	0	1869.40	0	2.0510	0	37.2200	8	29.759	0	1846.226	0	50.7	4	15.6	4	-1E+10	1	-1E+10	1	-1E+10	1	-1E+10	1	-1E+10	1	-1E+10	1
4901784	191	C	09/26/2020	10:46	-133.209	43.483	0	1874.70	0	2.0480	0	37.2220	8	29.761	0	1851.438	0	51.0	4	15.7	4	-1E+10	1	-1E+10	1	-1E+10	1	-1E+10	1	-1E+10	1	-1E+10	1
4901784	191	C	09/26/2020	10:46	-133.209	43.483	0	1879.90	0	2.0420	0	37.2230	8	29.762	0	1856.551	0	51.5	4	15.9	4	-1E+10	1	-1E+10	1	-1E+10	1	-1E+10	1	-1E+10	1	-1E+10	1
4901784	191	C	09/26/2020	10:46	-133.209	43.483	0	1885.20	0	2.0330	0	37.2260	8	29.765	0	1861.761	0	51.8	4	16.0	4	-1E+10	1	-1E+10	1	-1E+10	1	-1E+10	1	-1E+10	1	-1E+10	1
4901784	191	C	09/26/2020	10:46	-133.209	43.483	0	1890.60	0	2.0300	0	37.2290	8	29.768	0	1867.071	0	52.1	4	16.0	4	-1E+10	1	-1E+10	1	-1E+10	1	-1E+10	1	-1E+10	1	-1E+10	1
4901784	191	C	09/26/2020	10:46	-133.209	43.483	0	1895.10	0	2.0290	0	37.2300	8	29.769	0	1871.495	0	52.2	4	16.1	4	-1E+10	1	-1E+10	1	-1E+10	1	-1E+10	1	-1E+10	1	-1E+10	1
4901784	191	C	09/26/2020	10:46	-133.209	43.483	0	1899.60	0	2.0260	0	37.2280	8	29.767	0	1875.919	0	52.5	4	16.2	4	-1E+10	1	-1E+10	1	-1E+10	1	-1E+10	1	-1E+10	1	-1E+10	1
4901784	191	C	09/26/2020	10:46	-133.209	43.483	0	1905.60	0	2.0210	0	37.2320	8	29.771	0	1881.818	0	52.8	4	16.3	4	-1E+10	1	-1E+10	1	-1E+10	1	-1E+10	1	-1E+10	1	-1E+10	1
4901784	191	C	09/26/2020	10:46	-133.209	43.483	0	1910.60	0	2.0180	0	37.2320	8	29.771	0	1886.733	0	53.1	4	16.3	4	-1E+10	1	-1E+10	1	-1E+10	1	-1E+10	1	-1E+10	1	-1E+10	1
4901784	191	C	09/26/2020	10:46	-133.209	43.483	0	1915.30	0	2.0150	0	37.2330	8	29.773	0	1891.354	0	53.4	4	16.4	4	-1E+10	1	-1E+10	1	-1E+10	1	-1E+10	1	-1E+10	1	-1E+10	1
4901784	191	C	09/26/2020	10:46	-133.209	43.483	0	1920.10	0	2.0110	0	37.2350	8	29.775	0	1896.072	0	53.7	4	16.5	4	-1E+10	1	-1E+10	1	-1E+10	1	-1E+10	1	-1E+10	1	-1E+10	1
4901784	191	C	09/26/2020	10:46	-133.209	43.483	0	1925.00	0	2.0060	0	37.2350	8	29.775	0	1900.889	0	54.1	4	16.6	4	-1E+10	1	-1E+10	1	-1E+10	1	-1E+10	1	-1E+10	1	-1E+10	1
4901784	191	C	09/26/2020	10:46	-133.209	43.483	0	1929.90	0	2.0000	0	37.2360	8	29.776	0	1905.706	0	54.4	4	16.7	4	-1E+10	1	-1E+10	1	-1E+10	1	-1E+10	1	-1E+10	1	-1E+10	1
4901784	191	C	09/26/2020	10:46	-133.209	43.483	0	1934.90	0	1.9970	0	37.2350	8	29.776	0	1910.621	0	54.6	4	16.8	4	-1E+10	1	-1E+10	1	-1E+10	1	-1E+10	1	-1E+10	1	-1E+10	1
4901784	191	C	09/26/2020	10:46	-133.209	43.483	0	1939.80	0	1.9940	0	37.2370	8	29.778	0	1915.437	0	54.8	4	16.9	4	-1E+10	1	-1E+10	1	-1E+10	1	-1E+10	1	-1E+10	1	-1E+10	1
4901784	191	C	09/26/2020	10:46	-133.209	43.483	0	1944.80	0	1.9930	0	37.2350	8	29.776	0	1920.352	0	55.0	4	16.9	4	-1E+10	1	-1E+10	1	-1E+10	1	-1E+10	1	-1E+10	1	-1E+10	1
4901784	191	C	09/26/2020	10:46	-133.209	43.483	0	1949.90	0	1.9920	0	37.2350	8	29.776	0	1925.365	0	55.2	4	17.0	4	-1E+10	1	-1E+10	1	-1E+10	1	-1E+10	1	-1E+10	1	-1E+10	1
4901784	191	C	09/26/2020	10:46	-133.209	43.483	0	1954.90	0	1.9850	0	37.2370	8	29.779	0	1930.279	0	55.5	4	17.1	4	-1E+10	1	-1E+10	1	-1E+10	1	-1E+10	1	-1E+10	1	-1E+10	1
4901784	191	C	09/26/2020	10:46	-133.209	43.483	0	1960.00	0	1.9820	0	37.2380	8	29.780	0	1935.292	0	55.8	4	17.2	4	-1E+10	1	-1E+10	1	-1E+10	1	-1E+10	1	-1E+10	1	-1E+10	1
4901784	191	C	09/26/2020	10:46	-133.209	43.483	0	1965.20	0	1.9790	0	37.2390	8	29.781	0	1940.402	0	56.1	4	17.3	4	-1E+10	1	-1E+10	1	-1E+10	1	-1E+10	1	-1E+10	1	-1E+10	1
4901784	191	C	09/26/2020	10:46	-133.209	43.483	0	1970.40	0	1.9740	0	37.2400	8	29.782	0	1945.513	0	56.4	4	17.3	4	-1E+10	1	-1E+10	1	-1E+10	1	-1E+10	1	-1E+10	1	-1E+10	1
4901784	191	C	09/26/2020	10:46	-133.209	43.483	0	1975.60	0	1.9720	0	37.2420	8	29.784	0	1950.624	0	56.6	4	17.4	4	-1E+10	1	-1E+10	1	-1E+10	1	-1E+10	1	-1E+10	1	-1E+10	1
4901784	191	C	09/26/2020	10:46	-133.209	43.483	0	1980.00	0	1.9700	0	37.2430	8	29.785	0	1954.948	0	56.9	4	17.5	4	-1E+10	1	-1E+10	1	-1E+10	1	-1E+10	1	-1E+10	1	-1E+10	1
4901784	191	C	09/26/2020	10:46	-133.209	43.483	0	1984.40	0	1.9670	0	37.2430	8	29.785	0	1959.272	0	57.2	4	17.6	4	-1E+10	1	-1E+10	1	-1E+10	1	-1E+10	1	-1E+10	1	-1E+10	1
4901784	191	C	09/26/2020	10:46	-133.209	43.483	0	1989.70	0	1.9640	0	37.2450	8	29.787	0	1964.480	0	57.4	4	17.7	4	-1E+10	1	-1E+10	1	-1E+10	1	-1E+10	1	-1E+10	1	-1E+10	1
4901784	191	C	09/26/2020	10:46	-133.209	43.483	0	1994.90	0	1.9610	0	37.2450	8	29.787	0	1969.590	0	57.7	4	17.7	4	-1E+10	1	-1E+10	1	-1E+10	1	-1E+10	1	-1E+10	1	-1E+10	1
4901784	191	C	09/26/2020	10:46	-133.209	43.483	0	2000.20	0	1.9560	0	37.2450	8	29.788	0	1974.799	0	57.9	4	17.8	4	-1E+10	1	-1E+10	1	-1E+10	1	-1E+10	1	-1E+10	1	-1E+10	1
4901784	191	C	09/26/2020	10:46	-133.209	43.483	0	2005.40	0	1.9540	0	37.2460	8	29.789	0	1979.909	0	58.0	4	17.8	4	-1E+10	1	-1E+10	1	-1E+10	1	-1E+10	1	-1E+10	1	-1E+10	1
4901784	191	C	09/26/2020	10:46	-133.209	43.483	0	2009.90	0	1.9510	0	37.2480	8	29.791	0	1984.330	0	58.2	4	17.9	4	-1E+10	1	-1E+10	1	-1E+10	1	-1E+10	1	-1E+10	1	-1E+10	1
4901784	191	C	09/26/2020	10:46	-133.209	43.483	0	2014.90	0	1.9470	0	37.2500	8	29.793	0	1989.243	0	58.3	4	17.9	4	-1E+10	1	-1E+10	1	-1E+10	1	-1E+10	1	-1E+10	1	-1E+10	1
4901784	191	C	09/26/2020	10:46	-133.209	43.483	0	2020.00	0	1.9450	0	37.2500	8	29.793	0	1994.255	0	58.5	4	18.0	4	-1E+10	1	-1E+10	1	-1E+10	1	-1E+10	1	-1E+10	1	-1E+10	1
4901784	191	C	09/26/2020	10:46	-133.209	43.483	0																										
4901784	192	C	10/06/2020	10:41	-133.384	43.538	0	1.90	0	19.1170	0	35.1790	8	25.129	0	1.885	0	221.4	4	96.7	4	-1E+10	1	-1E+10	1	-1E+10	1	-1E+10	1	-1E+10	1	-1E+10	1
4901784	192	C	10/06/2020	10:41	-133.384	43.538	0	3.70	0	19.1220	0	35.1790	8	25.128	0	3.670	0	221.4	4	96.7	4	-1E+10	1	-1E+10	1	-1E+10	1	-1E+10	1	-1E+10	1	-1E+10	1
4901784	192	C	10/06/2020	10:41	-133.384	43.538	0	5.50	0	19.1170	0	35.1760	8	25.127	0	5.456	0	221.2	4	96.6	4	-1E+10	1	-1E+10	1	-1E+10	1	-1E+10	1	-1E+10	1	-1E+10	1
4901784	192	C	10/06/2020	10:41	-133.384	43.538	0	7.30	0	19.1180	0	35.1690	8	25.122	0	7.242	0	221.1	4	96.6	4	-1E+10	1	-1E+10	1	-1E+10	1	-1E+10	1	-1E+10	1	-1E+10	1
4901784	192	C	10/06/2020	10:41	-133.384	43.538	0	9.40	0	18.8110	0	35.1870	8	25.214	0	9.325	0	221.5	4	96.2	4	-1E+10	1	-1E+10	1	-1E+10	1	-1E+10	1	-1E+10	1	-1E+10	1
4901784	192	C	10/06/2020	10:41	-133.384	43.538	0	9.90	0	18.7910	0	35.1850	8	25.217	0	9.821	0	222.0	4	96.4	4	-1E+10	1	-1E+10	1	-1E+10	1	-1E+10	1	-1E+10	1	-1E+10	1
4901784	192	C	10/06/2020	10:41	-133.384	43.538	0	11.60	0	18.7640	0	35.1860	8	25.225	0	11.507	0	221.9	4	96.3	4	-1E+10	1	-1E+10	1	-1E+10	1	-1E+10	1	-1E+10	1	-1E+10	1
4901784	192	C	10/06/2020	10:41	-133.384	43.538	0	13.20	0	18.7470	0	35.1860	8	25.229	0	13.094	0	221.7	4	96.2	4	-1E+10	1	-1E+10	1	-1E+10	1	-1E+10	1	-1E+10	1	-1E+10	1
4901784	192	C	10/06/2020	10:41	-133.384	43.538	0	14.90	0	18.7040	0	35.1880	8	25.242	0	14.781	0	221.6	4	96.1	4	-1E+10	1	-1E+10	1	-1E+10	1	-1E+10	1	-1E+10	1	-1E+10	1
4901784	192	C	10/06/2020	10:41	-133.384	43.538	0	16.50	0	18.6810	0	35.1840	8	25.245	0	16.368	0	221.7	4	96.1	4	-1E+10	1	-1E+10	1	-1E+10	1	-1E+10	1	-1E+10	1	-1E+10	1
4901784	192	C	10/06/2020	10:41	-133.384	43.538	0	18.10	0	18.6350	0	35.1800	8	25.253	0	17.955	0	221.8	4	96.1	4	-1E+10	1	-1E+10	1	-1E+10	1	-1E+10	1	-1E+10	1	-1E+10	1
4901784	192	C	10/06/2020	10:41	-133.384	43.538	0	19.70	0	18.5030	0	35.1770	8	25.284	0	19.542	0	222.6	4	96.1	4	-1E+10	1	-1E+10	1	-1E+10	1	-1E+10	1	-1E+10	1	-1E+10	1
4901784	192	C	10/06/2020	10:41	-133.384	43.538	0	21.30	0	18.4800	0	35.1760	8	25.289	0	21.129	0	222.8	4	96.2	4	-1E+10	1	-1E+10	1	-1E+10	1	-1E+10	1	-1E+10	1	-1E+10	1
4901784	192	C	10/06/2020	10:41	-133.384	43.538	0	22.90	0	18.4700	0	35.1710	8	25.288	0	22.716	0	223.1	4	96.3	4	-1E+10	1	-1E+10	1	-1E+10	1	-1E+10	1	-1E+10	1	-1E+10	1
4901784	192	C	10/06/2020	10:41	-133.384	43.538	0	24.60	0	18.4610	0	35.1620	8	25.284	0	24.402	0	223.8	4	96.6	4	-1E+10	1	-1E+10	1	-1E+10	1	-1E+10	1	-1E+10	1	-1E+10	1
4901784	192	C	10/06/2020	10:41	-133.384	43.538	0	26.20	0	18.3720	0	35.1560	8	25.301	0	25.989	0	224.9	4	96.9	4	-1E+10	1	-1E+10	1	-1E+10	1	-1E+10	1	-1E+10	1	-1E+10	1
4901784	192	C	10/06/2020	10:41	-133.384	43.538	0	27.70	0	18.2440	0	35.1430	8	25.323	0	27.477	0	226.4	4	97.3	4	-1E+10	1	-1E+10	1	-1E+10	1	-1E+10	1	-1E+10	1	-1E+10	1
4901784	192	C	10/06/2020	10:41	-133.384	43.538	0	29.50	0	17.7870	0	35.1780	8	25.463	0	29.262	0	228.9	4	97.5	4	-1E+10	1	-1E+10	1	-1E+10	1	-1E+10	1	-1E+10	1	-1E+10	1
4901784	192	C	10/06/2020	10:41	-133.384	43.538	0	29.90	0	17.5620	0	35.1820	8	25.521	0	29.659	0	230.6	4	97.9	4	-1E+10	1	-1E+10	1	-1E+10	1	-1E+10	1	-1E+10	1	-1E+10	1
4901784	192	C	10/06/2020	10:41	-133.384	43.538	0	31.30	0	17.4500	0	35.1750	8	25.543	0	31.048	0	233.1	4	98.7	4	-1E+10	1	-1E+10	1	-1E+10	1	-1E+10	1	-1E+10	1	-1E+10	1
4901784	192	C	10/06/2020	10:41	-133.384	43.538	0	32.50	0	17.3070	0	35.1660	8	25.570	0	32.238	0	235.2	4	99.3	4	-1E+10	1	-1E+10	1	-1E+10	1	-1E+10	1	-1E+10	1	-1E+10	1
4901784	192	C	10/06/2020	10:41	-133.384	43.538	0	33.80	0	17.1330	0	35.1510	8	25.601	0	33.527	0	237.8	4	100.1	4	-1E+10	1	-1E+10	1	-1E+10	1	-1E+10	1	-1E+10	1	-1E+10	1
4901784	192	C	10/06/2020	10:41	-133.384	43.538	0	35.20	0	16.5300	0	35.1890	8	25.773	0	34.916	0	241.2	4	100.4	4	-1E+10	1	-1E+10	1	-1E+10	1	-1E+10	1	-1E+10	1	-1E+10	1
4901784	192	C	10/06/2020	10:41	-133.384	43.538	0	36.60	0	16.1090	0	35.1850	8	25.867	0	36.305	0	245.9	4	101.5	4	-1E+10	1	-1E+10	1	-1E+10	1	-1E+10	1	-1E+10	1	-1E+10	1
4901784	192	C	10/06/2020	10:41	-133.384	43.538	0	38.20	0	15.7470	0	35.1660	8	25.935	0	37.892	0	249.3	4	102.2	4	-1E+10	1	-1E+10	1	-1E+10	1	-1E+10	1	-1E+10	1	-1E+10	1
4901784	192	C	10/06/2020	10:41	-133.384	43.538	0	38.60	0	15.6510	0	35.1570	8	25.950	0	38.288	0	250.6	4	102.5	4	-1E+10	1	-1E+10	1	-1E+10	1	-1E+10	1	-1E+10	1	-1E+10	1
4901784	192	C	10/06/2020	10:41	-133.384	43.538	0	40.00	0	14.6110	0	35.2390	8	26.243	0	39.677	0	255.6	4	102.5	4	-1E+10	1	-1E+10	1	-1E+10	1	-1E+10	1	-1E+10	1	-1E+10	1
4901784	192	C	10/06/2020	10:41	-133.384	43.538	0	41.30	0	13.7980	0	35.2810	8	26.449	0	40.966	0	261.6	4	103.3	4	-1E+10	1	-1E+10	1	-1E+10	1	-1E+10	1	-1E+10	1	-1E+10	1
4901784	192	C	10/06/2020	10:41	-133.384	43.538	0	42.80	0	13.5410	0	35.2670	8	26.491	0	42.454	0	262.9	4	103.2	4	-1E+10	1	-1E+10	1	-1E+10	1	-1E+10	1	-1E+10	1	-1E+10	1
4901784	192	C	10/06/2020	10:41	-133.384	43.538	0	44.40	0	12.9260	0	35.3290	8	26.665	0	44.041	0	266.0	4	103.2	4	-1E+10	1	-1E+10	1	-1E+10	1	-1E+10	1	-1E+10	1	-1E+10	1
4901784	192	C	10/06/2020	10:41	-133.384	43.538	0	45.90	0	12.7850	0	35.3390	8	26.701	0	45.528	0	266.6	4	103.2	4	-1E+10	1	-1E+10	1	-1E+10	1	-1E+10	1	-1E+10	1	-1E+10	1
4901784	192	C	10/06/2020	10:41	-133.384	43.538	0	47.50	0	12.6930	0	35.3370	8	26.717	0	47.115	0	266.3	4	102.8	4	-1E+10	1	-1E+10	1	-1E+10	1	-1E+10	1	-1E+10	1	-1E+10	1
4901784	192	C	10/06/2020	10:41	-133.384	43.538	0	49.20	0	12.4270	0	35.3710	8	26.796	0	48.801	0	267.7	4	102.8	4	-1E+10	1	-1E+10	1	-1E+10	1	-1E+10	1	-1E+10	1	-1E+10	1
4901784	192	C	10/06/2020	10:41	-133.384	43.538	0	50.80	0	12.4020	0	35.3660	8	26.797	0	50.388	0	267.1	4	102.6	4	-1E+10	1	-1E+10	1	-1E+10	1	-1E+10	1	-1E+10	1	-1E+10	1
4901784	192	C	10/06/2020	10:41	-133.384	43.538	0	52.40	0	12.1780	0	35.3790	8	26.851	0	51.975	0	267.0	4	102.1	4	-1E+10	1	-1E+10	1	-1E+10	1	-1E+10	1	-1E+10	1	-1E+10	1
4901784	192	C	10/06/2020	10:41	-133.384	43.538	0	54.00	0	12.1310	0	35.3830	8	26.863	0	53.562	0	266.3	4	101.7	4	-1E+10	1	-1E+10	1	-1E+10	1	-1E+10	1	-1E+10	1	-1E+10	1
4901784	192	C	10/06/2020	10:41	-133.384	43.538	0	55.60	0	11.9950	0	35.3870	8	26.893	0	55.149	0	265.3	4	101.0	4	-1E+10	1	-1E+10	1	-1E+10	1	-1E+10	1	-1E+10	1	-1E+10	1
4901784	192	C	10/06/2020	10:41	-133.384	43.538	0	57.20	0	11.7940	0	35.4030	8	26.944	0	56.735	0	264.2	4	100.2	4	-1E+10	1	-1E+10	1	-1E+10	1	-1E+10	1	-1E+10	1	-1E+10	1
4901784	192	C	10/06/2020	10:41	-133.384	43.538	0	58.90	0	11.7380	0	35.3850	8	26.940	0	58.421	0	262.6	4	99.5	4	-1E+10	1	-1E+10	1	-1E+10	1	-1E+10	1	-1E+10	1	-1E+10	1
4901784	192	C	10/06/2020	10:41	-133.384	43.538	0	60.50	0	11.5400	0	35.3930	8	26.984	0	60.008	0	260.6	4	98.3	4	-1E+10	1	-1E+10	1	-1E+10	1	-1E+10	1	-1E+10	1	-1E+10	1
4901784	192	C	10/06/2020	10:41	-133.384	43.538	0	62.30	0	11.3070	0	35.4090	8	27.040	0	61.793	0	258.7	4	97.2	4	-1E+10	1	-1E+10	1	-1E+10	1	-1E+10	1	-1E+10	1	-1E+10	1
4901784	192	C	10/06/2020	10:41	-133.384	43.538	0	63.90	0	11.0810	0	35.4100	8	27.082	0	63.380	0	257.3	4	96.1	4	-1E+10	1	-1E+10	1	-1E+10	1	-1E+10	1	-1E+10	1	-1E+10	1
4901784	192	C	10/06/2020	10:41	-133.384	43.538	0	65.60	0	10.9690	0	35.4160	8	27.107	0	65.066	0	255.9	4	95.4	4	-1E+10	1	-1E+10	1	-1E+10	1	-1E+10	1	-1E+10	1	-1E+10	1
4901784	192	C	10/06/2020	10:41	-133.384	43.538	0	67.30	0	10.8580	0	35.4190	8	27.130	0	66.752	0	254.5	4	94.7	4	-1E+10	1	-1E+10	1	-1E+10	1	-1E+10	1	-1E+10	1	-1E+10	1
4901784	192	C	10/06/2020	10:41	-133.384	43.538	0	69.00	0	10.7050	0	35.4200	8	27.158	0	68.438	0	254.6	4	94.4	4	-1E+10	1	-1E+10	1	-1E+10	1	-1E+10	1	-1E+10	1	-1E+10	1
4901784	192	C	10/06/2020	10:41	-133.384	43.538	0	70.70	0	10.6530	0	35.4180	8	27.166	0	70.124	0	253.5	4	93.9	4	-1E+10	1	-1E+10	1	-1E+10	1	-1E+10	1	-1E+10	1	-1E+10	1
4901784	192	C	10/06/2020	10:41	-133.384	43.538	0	72.40	0	10.5830	0	35.4140	8	27.175	0	71.809	0	252.7	4	93.4	4	-1E+10	1	-1E+10	1	-1E+10	1	-1E+10	1	-1E+10	1	-1E+10	1
4901784	192	C	10/06/2020	10:41	-133.384	43.538	0	74.00	0	10.4750	0	35.4110	8	27.192	0	73.396	0	252.3	4	93.1	4	-1E+10	1	-1E+10	1	-1E+10	1	-1E+10	1	-1E+10	1	-1E+10	1
4901784	192	C	10/06/2020	10:41	-133.384	43.538	0	75.70	0	10.3860	0	35.4110	8	27.208	0	75.082	0	251.5	4	92.6	4	-1E+10	1	-1E+10	1	-1E+10	1	-1E+10	1	-1E+10	1	-1E+10	1
4901784	192	C	10/06/2020	10:41	-133.384	43.538	0	77.40	0	10.2670	0	35.4070	8	27.226	0	76.768	0	251.0	4	92.2	4	-1E+10	1	-1E+10	1	-1E+10	1	-1E+10	1	-1E+10	1	-1E+10	1
4901784	192	C	10/06/2020	10:41	-133.384	43.538	0	79.10	0	10.1790	0	35.4060	8	27.240	0	78.453	0	250.7	4	91.9	4	-1E+10	1	-1E+10	1	-1E+10	1	-1E+10	1	-1E+10	1	-1E+10	1
4901784	192	C	10/06/2020	10:41	-133.384	43.538	0	80.90	0	10.0050	0	35.4050	8	27.270	0	80.238	0	251.1	4	91.7	4	-1E+10	1	-1E+10	1	-1E+10	1	-1E+10	1	-1E+10	1	-1E+10	1
4901784	192	C	10/06/2020	10:41	-133.384	43.538	0	82.60	0	9.9810	0	35.4040	8	27.273	0	81.924	0	250.7	4	91.5	4	-1E+10	1	-1E+10	1	-1E+10	1	-1E+10	1	-1E+10	1	-1E+10	1
4901784	192	C	10/06/2020	10:41	-133.384	43.538	0	84.40	0	9.9520	0	35.4020	8	27.276	0	83.709	0	250.4	4	91.3	4	-1E+10	1	-1E+10	1	-1E+10	1	-1E+10	1	-1E+10	1	-1E+10	1
4901784	192	C	10/06/2020	10:41	-133.384	43.538	0	86.10	0	9.8850	0	35.4050	8	27.290	0	85.395	0	250.3	4	91.2	4	-1E+10	1	-1E+10	1	-1E+10	1	-1E+10	1	-1E+10	1	-1E+10	1
4901784	192	C	10/06/2020	10:41	-133.384	43.538	0	88.00	0	9.8300	0	35.4020	8	27.297	0	87.279	0	250.4	4	91.1	4	-1E+10	1	-1E+10	1	-1E+10	1	-1E+10	1	-1E+10	1	-1E+10	1
4901784	192	C	10/06/2020	10:41	-133.384	43.538	0	89.70	0	9.7290	0	35.4020	8	27.314	0	88.965	0	250.5	4	91.0	4	-1E+10	1	-1E+10	1	-1E+10	1	-1E+10	1	-1E+10	1	-1E+10	1
4901784	192	C	10/06/2020	10:41	-133.384	43.538	0	91.50	0	9.6870	0	35.4000	8	27.320	0	90.749	0	250.6	4	90.9	4	-1E+10	1	-1E+10	1	-1E+10	1	-1E+10	1	-1E+10	1	-1E+10	1
4901784	192	C	10/06/2020	10:41	-133.384	43.538	0	93.30	0	9.5790	0	35.4010	8	27.339	0	92.534	0	251.1	4	90.9	4	-1E+10	1	-1E+10	1	-1E+10	1	-1E+10	1	-1E+10	1	-1E+10	1
4901784	192	C	10/06/2020	10:41	-133.384	43.538	0	95.10	0	9.5130	0	35.3960	8	27.346	0	94.319	0	251.2	4	90.8	4	-1E+10	1	-1E+10	1	-1E+10	1	-1E+10	1	-1E+10	1	-1E+10	1
4901784	192	C	10/06/2020	10:41	-133.384	43.538	0	96.90	0	9.3900	0	35.3960	8	27.367	0	96.104	0	251.4	4	90.6	4	-1E+10	1	-1E+10	1	-1E+10	1	-1E+10	1	-1E+10	1	-1E+10	1
4901784	192	C	10/06/2020	10:41	-133.384	43.538	0	99.20	0	9.3110	0	35.3930	8	27.377	0	98.384	0	251.8	4	90.6	4	-1E+10	1	-1E+10	1	-1E+10	1	-1E+10	1	-1E+10	1	-1E+10	1
4901784	192	C	10/06/2020	10:41	-133.384	43.538	0	102.50	0	9.2450	0	35.4020	8	27.395	0	101.656	0	251.0	4	90.2	4	-1E+10	1	-1E+10	1	-1E+10	1	-1E+10	1	-1E+10	1	-1E+10	1
4901784	192	C	10/06/2020	10:41	-133.384	43.538	0	104.80	0	9.2750	0	35.4240	8	27.408	0	103.937	0	250.2	4	90.0	4	-1E+10	1	-1E+10	1	-1E+10	1	-1E+10	1	-1E+10	1	-1E+10	1
4901784	192	C	10/06/2020	10:41	-133.384	43.538	0	107.90	0	9.2170	0	35.4310	8	27.423	0	107.011	0	249.6	4	89.7	4	-1E+10	1	-1E+10	1	-1E+10	1	-1E+10	1	-1E+10	1	-1E+10	1
4901784	192	C	10/06/2020	10:41	-133.384	43.538	0	110.30	0	9.1790	0	35.4330	8	27.431	0	109.390	0	248.9	4	89.3	4	-1E+10	1	-1E+10	1	-1E+10	1	-1E+10	1	-1E+10	1	-1E+10	1
4901784	192	C	10/06/2020	10:41	-133.384	43.538	0	112.60	0	9.1310	0	35.4380	8	27.442	0	111.671	0	248.0	4	88.9	4	-1E+10	1	-1E+10	1	-1E+10	1	-1E+10	1	-1E+10	1	-1E+10	1
4901784	192	C	10/06/2020	10:41	-133.384	43.538	0	115.00	0	9.0420	0	35.4550	8	27.470	0	114.050	0	246.4	4	88.2	4	-1E+10	1	-1E+10	1	-1E+10	1	-1E+10	1	-1E+10	1	-1E+10	1
4901784	192	C	10/06/2020	10:41	-133.384	43.538	0	117.50	0	8.9280	0	35.4620	8	27.494	0	116.529	0	244.7	4	87.4	4	-1E+10	1	-1E+10	1	-1E+10	1	-1E+10	1	-1E+10	1	-1E+10	1
4901784	192	C	10/06/2020	10:41	-133.384	43.538	0	120.00	0	8.8720	0	35.4680	8	27.508	0	119.007	0	242.5	4	86.4	4	-1E+10	1	-1E+10	1	-1E+10	1	-1E+10	1	-1E+10	1	-1E+10	1
4901784	192	C	10/06/2020	10:41	-133.384	43.538	0	122.50	0	8.8020	0	35.4850	8	27.532	0	121.486	0	239.4	4	85.2	4	-1E+10	1	-1E+10	1	-1E+10	1	-1E+10	1	-1E+10	1	-1E+10	1
4901784	192	C	10/06/2020	10:41	-133.384	43.538	0	124.90	0	8.7590	0	35.5000	8	27.551	0	123.865	0	235.5	4	83.8	4	-1E+10	1	-1E+10	1	-1E+10	1	-1E+10	1	-1E+10	1	-1E+10	1
4901784	192	C	10/06/2020	10:41	-133.384	43.538	0	127.40	0	8.7000	0	35.5480	8	27.598	0	126.344	0	231.6	4	82.3	4	-1E+10	1	-1E+10	1	-1E+10	1	-1E+10	1	-1E+10	1	-1E+10	1
4901784	192	C	10/06/2020	10:41	-133.384	43.538	0	129.90	0	8.6420	0	35.6130	8	27.658	0	128.822	0	228.1	4	81.0	4	-1E+10	1	-1E+10	1	-1E+10	1	-1E+10	1	-1E+10	1	-1E+10	1
4901784	192	C	10/06/2020	10:41	-133.384	43.538	0	132.50	0	8.3290	0	35.6370	8	27.726	0	131.400	0	227.0	4	80.1	4	-1E+10	1	-1E+10	1	-1E+10	1	-1E+10	1	-1E+10	1	-1E+10	1
4901784	192	C	10/06/2020	10:41	-133.384	43.538	0	135.10	0	8.2330	0	35.6440	8	27.747	0	133.978	0	224.3	4	78.9	4	-1E+10	1	-1E+10	1	-1E+10	1	-1E+10	1	-1E+10	1	-1E+10	1
4901784	192	C	10/06/2020	10:41	-133.384	43.538	0	137.70	0	8.1400	0	35.7350	8	27.832	0	136.555	0	220.1	4	77.4	4	-1E+10	1	-1E+10	1	-1E+10	1	-1E+10	1	-1E+10	1	-1E+10	1
4901784	192	C	10/06/2020	10:41	-133.384	43.538	0	140.40	0	8.0590	0	35.8120	8	27.905	0	139.232	0	217.0	4	76.2	4	-1E+10	1	-1E+10	1	-1E+10	1	-1E+10	1	-1E+10	1	-1E+10	1
4901784	192	C	10/06/2020	10:41	-133.384	43.538	0	142.20	0	8.0440	0	35.8190	8	27.913	0	141.016	0	215.2	4	75.5	4	-1E+10	1	-1E+10	1	-1E+10	1	-1E+10	1	-1E+10	1	-1E+10	1
4901784	192	C	10/06/2020	10:41	-133.384	43.538	0	144.90	0	7.8870	0	35.8950	8	27.997	0	143.693	0	213.2	4	74.6	4	-1E+10	1	-1E+10	1	-1E+10	1	-1E+10	1	-1E+10	1	-1E+10	1
4901784	192	C	10/06/2020	10:41	-133.384	43.538	0	147.60	0	7.8900	0	35.9680	8	28.054	0	146.369	0	210.4	4	73.7	4	-1E+10	1	-1E+10	1	-1E+10	1	-1E+10	1	-1E+10	1	-1E+10	1
4901784	192	C	10/06/2020	10:41	-133.384	43.538	0	150.00	0	7.7690	0	36.0440	8	28.132	0	148.748	0	208.7	4	72.9	4	-1E+10	1	-1E+10	1	-1E+10	1	-1E+10	1	-1E+10	1	-1E+10	1
4901784	192	C	10/06/2020	10:41	-133.384	43.538	0	152.50	0	7.7030	0	36.0920	8	28.179	0	151.227	0	206.7	4	72.1	4	-1E+10	1	-1E+10	1	-1E+10	1	-1E+10	1	-1E+10	1	-1E+10	1
4901784	192	C	10/06/2020	10:41	-133.384	43.538	0	154.80	0	7.6680	0	36.1250	8	28.211	0	153.507	0	204.7	4	71.4	4	-1E+10	1	-1E+10	1	-1E+10	1	-1E+10	1	-1E+10	1	-1E+10	1
4901784	192	C	10/06/2020	10:41	-133.384	43.538	0	157.10	0	7.6030	0	36.1720	8	28.257	0	155.787	0	202.1	4	70.4	4	-1E+10	1	-1E+10	1	-1E+10	1	-1E+10	1	-1E+10	1	-1E+10	1
4901784	192	C	10/06/2020	10:41	-133.384	43.538	0	160.40	0	7.5280	0	36.3160	8	28.382	0	159.058	0	198.9	4	69.3	4	-1E+10	1	-1E+10	1	-1E+10	1	-1E+10	1	-1E+10	1	-1E+10	1
4901784	192	C	10/06/2020	10:41	-133.384	43.538	0	162.80	0	7.4830	0	36.3740	8	28.434	0	161.437	0	197.0	4	68.6	4	-1E+10	1	-1E+10	1	-1E+10	1	-1E+10	1	-1E+10	1	-1E+10	1
4901784	192	C	10/06/2020	10:41	-133.384	43.538	0	165.30	0	7.5420	0	36.4360	8	28.474	0	163.915	0	194.7	4	67.9	4	-1E+10	1	-1E+10	1	-1E+10	1	-1E+10	1	-1E+10	1	-1E+10	1
4901784	192	C	10/06/2020	10:41	-133.384	43.538	0	167.90	0	7.5220	0	36.4810	8	28.513	0	166.492	0	193.1	4	67.3	4	-1E+10	1	-1E+10	1	-1E+10	1	-1E+10	1	-1E+10	1	-1E+10	1
4901784	192	C	10/06/2020	10:41	-133.384	43.538	0	170.10	0	7.5290	0	36.5240	8	28.546	0	168.673	0	191.9	4	66.9	4	-1E+10	1	-1E+10	1	-1E+10	1	-1E+10	1	-1E+10	1	-1E+10	1
4901784	192	C	10/06/2020	10:41	-133.384	43.538	0	172.60	0	7.5500	0	36.5480	8	28.561	0	171.150	0	190.0	4	66.3	4	-1E+10	1	-1E+10	1	-1E+10	1	-1E+10	1	-1E+10	1	-1E+10	1
4901784	192	C	10/06/2020	10:41	-133.384	43.538	0	175.50	0	7.5830	0	36.5910	8	28.590	0	174.025	0	187.7	4	65.6	4	-1E+10	1	-1E+10	1	-1E+10	1	-1E+10	1	-1E+10	1	-1E+10	1
4901784	192	C	10/06/2020	10:41	-133.384	43.538	0	177.60	0	7.5700	0	36.6160	8	28.612	0	176.106	0	185.9	4	64.9	4	-1E+10	1	-1E+10	1	-1E+10	1	-1E+10	1	-1E+10	1	-1E+10	1
4901784	192	C	10/06/2020	10:41	-133.384	43.538	0	179.70	0	7.5710	0	36.6560	8	28.643	0	178.188	0	183.5	4	64.1	4	-1E+10	1	-1E+10	1	-1E+10	1	-1E+10	1	-1E+10	1	-1E+10	1
4901784	192	C	10/06/2020	10:41	-133.384	43.538	0	182.70	0	7.6160	0	36.7090	8	28.679	0	181.161	0	179.9	4	62.9	4	-1E+10	1	-1E+10	1	-1E+10	1	-1E+10	1	-1E+10	1	-1E+10	1
4901784	192	C	10/06/2020	10:41	-133.384	43.538	0	185.00	0	7.6570	0	36.7390	8	28.696	0	183.441	0	176.9	4	62.0	4	-1E+10	1	-1E+10	1	-1E+10	1	-1E+10	1	-1E+10	1	-1E+10	1
4901784	192	C	10/06/2020	10:41	-133.384	43.538	0	187.50	0	7.6920	0	36.7600	8	28.707	0	185.919	0	173.7	4	60.9	4	-1E+10	1	-1E+10	1	-1E+10	1	-1E+10	1	-1E+10	1	-1E+10	1
4901784	192	C	10/06/2020	10:41	-133.384	43.538	0	189.90	0	7.7420	0	36.7960	8	28.728	0	188.297	0	169.8	4	59.6	4	-1E+10	1	-1E+10	1	-1E+10	1	-1E+10	1	-1E+10	1	-1E+10	1
4901784	192	C	10/06/2020	10:41	-133.384	43.538	0	192.30	0	7.7900	0	36.8290	8	28.747	0	190.676	0	166.1	4	58.4	4	-1E+10	1	-1E+10	1	-1E+10	1	-1E+10	1	-1E+10	1	-1E+10	1
4901784	192	C	10/06/2020	10:41	-133.384	43.538	0	194.70	0	7.8390	0	36.8520	8	28.758	0	193.055	0	163.0	4	57.4	4	-1E+10	1	-1E+10	1	-1E+10	1	-1E+10	1	-1E+10	1	-1E+10	1
4901784	192	C	10/06/2020	10:41	-133.384	43.538	0	197.10	0	7.8710	0	36.8870	8	28.780	0	195.433	0	160.6	4	56.6	4	-1E+10	1	-1E+10	1	-1E+10	1	-1E+10	1	-1E+10	1	-1E+10	1
4901784	192	C	10/06/2020	10:41	-133.384	43.538	0	199.60	0	7.8680	0	36.8960	8	28.788	0	197.911	0	159.0	4	56.0	4	-1E+10	1	-1E+10	1	-1E+10	1	-1E+10	1	-1E+10	1	-1E+10	1
4901784	192	C	10/06/2020	10:41	-133.384	43.538	0	202.10	0	7.8580	0	36.9150	8	28.804	0	200.388	0	157.2	4	55.4	4	-1E+10	1	-1E+10	1	-1E+10	1	-1E+10	1	-1E+10	1	-1E+10	1
4901784	192	C	10/06/2020	10:41	-133.384	43.538	0	204.70	0	7.8390	0	36.9270	8	28.817	0	202.965	0	156.0	4	54.9	4	-1E+10	1	-1E+10	1	-1E+10	1	-1E+10	1	-1E+10	1	-1E+10	1
4901784	192	C	10/06/2020	10:41	-133.384	43.538	0	207.30	0	7.8200	0	36.9350	8	28.826	0	205.542	0	154.2	4	54.3	4	-1E+10	1	-1E+10	1	-1E+10	1	-1E+10	1	-1E+10	1	-1E+10	1
4901784	192	C	10/06/2020	10:41	-133.384	43.538	0	209.90	0	7.8060	0	36.9440	8	28.835	0	208.118	0	152.9	4	53.8	4	-1E+10	1	-1E+10	1	-1E+10	1	-1E+10	1	-1E+10	1	-1E+10	1
4901784	192	C	10/06/2020	10:41	-133.384	43.538	0	212.60	0	7.8030	0	36.9490	8	28.840	0	210.794	0	151.5	4	53.3	4	-1E+10	1	-1E+10	1	-1E+10	1	-1E+10	1	-1E+10	1	-1E+10	1
4901784	192	C	10/06/2020	10:41	-133.384	43.538	0	215.30	0	7.7980	0	36.9540	8	28.844	0	213.470	0	150.0	4	52.8	4	-1E+10	1	-1E+10	1	-1E+10	1	-1E+10	1	-1E+10	1	-1E+10	1
4901784	192	C	10/06/2020	10:41	-133.384	43.538	0	217.10	0	7.7840	0	36.9570	8	28.849	0	215.254	0	149.4	4	52.6	4	-1E+10	1	-1E+10	1	-1E+10	1	-1E+10	1	-1E+10	1	-1E+10	1
4901784	192	C	10/06/2020	10:41	-133.384	43.538	0	219.80	0	7.7580	0	36.9590	8	28.854	0	217.929	0	148.4	4	52.2	4	-1E+10	1	-1E+10	1	-1E+10	1	-1E+10	1	-1E+10	1	-1E+10	1
4901784	192	C	10/06/2020	10:41	-133.384	43.538	0	222.60	0	7.7520	0	36.9630	8	28.859	0	220.704	0	146.7	4	51.6	4	-1E+10	1	-1E+10	1	-1E+10	1	-1E+10	1	-1E+10	1	-1E+10	1
4901784	192	C	10/06/2020	10:41	-133.384	43.538	0	225.20	0	7.7190	0	36.9660	8	28.866	0	223.280	0	146.1	4	51.3	4	-1E+10	1	-1E+10	1	-1E+10	1	-1E+10	1	-1E+10	1	-1E+10	1
4901784	192	C	10/06/2020	10:41	-133.384	43.538	0	227.90	0	7.6830	0	36.9700	8	28.875	0	225.956	0	145.0	4	50.9	4	-1E+10	1	-1E+10	1	-1E+10	1	-1E+10	1	-1E+10	1	-1E+10	1
4901784	192	C	10/06/2020	10:41	-133.384	43.538	0	229.80	0	7.6790	0	36.9680	8	28.874	0	227.839	0	144.4	4	50.7	4	-1E+10	1	-1E+10	1	-1E+10	1	-1E+10	1	-1E+10	1	-1E+10	1
4901784	192	C	10/06/2020	10:41	-133.384	43.538	0	232.50	0	7.6480	0	36.9700	8	28.880	0	230.514	0	143.4	4	50.3	4	-1E+10	1	-1E+10	1	-1E+10	1	-1E+10	1	-1E+10	1	-1E+10	1
4901784	192	C	10/06/2020	10:41	-133.384	43.538	0	235.10	0	7.6030	0	36.9720	8	28.888	0	233.090	0	142.7	4	50.0	4	-1E+10	1	-1E+10	1	-1E+10	1	-1E+10	1	-1E+10	1	-1E+10	1
4901784	192	C	10/06/2020	10:41	-133.384	43.538	0	237.70	0	7.5320	0	36.9760	8	28.902	0	235.667	0	142.4	4	49.8	4	-1E+10	1	-1E+10	1	-1E+10	1	-1E+10	1	-1E+10	1	-1E+10	1
4901784	192	C	10/06/2020	10:41	-133.384	43.538	0	240.40	0	7.5000	0	36.9750	8	28.906	0	238.342	0	142.0	4	49.6	4	-1E+10	1	-1E+10	1	-1E+10	1	-1E+10	1	-1E+10	1	-1E+10	1
4901784	192	C	10/06/2020	10:41	-133.384	43.538	0	242.20	0	7.4840	0	36.9740	8	28.908	0	240.126	0	141.5	4	49.4	4	-1E+10	1	-1E+10	1	-1E+10	1	-1E+10	1	-1E+10	1	-1E+10	1
4901784	192	C	10/06/2020	10:41	-133.384	43.538	0	245.00	0	7.4320	0	36.9750	8	28.916	0	242.900	0	140.9	4	49.2	4	-1E+10	1	-1E+10	1	-1E+10	1	-1E+10	1	-1E+10	1	-1E+10	1
4901784	192	C	10/06/2020	10:41	-133.384	43.538	0	247.70	0	7.4000	0	36.9730	8	28.920	0	245.575	0	140.4	4	49.0	4	-1E+10	1	-1E+10	1	-1E+10	1	-1E+10	1	-1E+10	1	-1E+10	1
4901784	192	C	10/06/2020	10:41	-133.384	43.538	0	249.60	0	7.3510	0	36.9760	8	28.929	0	247.458	0	140.2	4	48.9	4	-1E+10	1	-1E+10	1	-1E+10	1	-1E+10	1	-1E+10	1	-1E+10	1
4901784	192	C	10/06/2020	10:41	-133.384	43.538	0	252.40	0	7.3190	0	36.9740	8	28.932	0	250.232	0	139.9	4	48.7	4	-1E+10	1	-1E+10	1	-1E+10	1	-1E+10	1	-1E+10	1	-1E+10	1
4901784	192	C	10/06/2020	10:41	-133.384	43.538	0	255.20	0	7.2370	0	36.9750	8	28.945	0	253.006	0	139.8	4	48.6	4	-1E+10	1	-1E+10	1	-1E+10	1	-1E+10	1	-1E+10	1	-1E+10	1
4901784	192	C	10/06/2020	10:41	-133.384	43.538	0	257.10	0	7.2180	0	36.9730	8	28.946	0	254.889	0	139.7	4	48.5	4	-1E+10	1	-1E+10	1	-1E+10	1	-1E+10	1	-1E+10	1	-1E+10	1
4901784	192	C	10/06/2020	10:41	-133.384	43.538	0	260.00	0	7.1860	0	36.9740	8	28.952	0	257.762	0	139.4	4	48.4	4	-1E+10	1	-1E+10	1	-1E+10	1	-1E+10	1	-1E+10	1	-1E+10	1
4901784	192	C	10/06/2020	10:41	-133.384	43.538	0	262.70	0	7.1550	0	36.9730	8	28.956	0	260.437	0	139.2	4	48.3	4	-1E+10	1	-1E+10	1	-1E+10	1	-1E+10	1	-1E+10	1	-1E+10	1
4901784	192	C	10/06/2020	10:41	-133.384	43.538	0	264.60	0	7.1350	0	36.9720	8	28.958	0	262.320	0	139.0	4	48.2	4	-1E+10	1	-1E+10	1	-1E+10	1	-1E+10	1	-1E+10	1	-1E+10	1
4901784	192	C	10/06/2020	10:41	-133.384	43.538	0	267.40	0	7.0970	0	36.9710	8	28.963	0	265.094	0	138.9	4	48.1	4	-1E+10	1	-1E+10	1	-1E+10	1	-1E+10	1	-1E+10	1	-1E+10	1
4901784	192	C	10/06/2020	10:41	-133.384	43.538	0	270.20	0	7.0520	0	36.9720	8	28.970	0	267.868	0	138.8	4	48.1	4	-1E+10	1	-1E+10	1	-1E+10	1	-1E+10	1	-1E+10	1	-1E+10	1
4901784	192	C	10/06/2020	10:41	-133.384	43.538	0	272.10	0	7.0210	0	36.9730	8	28.975	0	269.750	0	139.0	4	48.1	4	-1E+10	1	-1E+10	1	-1E+10	1	-1E+10	1	-1E+10	1	-1E+10	1
4901784	192	C	10/06/2020	10:41	-133.384	43.538	0	274.90	0	6.9850	0	36.9720	8	28.980	0	272.524	0	138.9	4	48.0	4	-1E+10	1	-1E+10	1	-1E+10	1	-1E+10	1	-1E+10	1	-1E+10	1
4901784	192	C	10/06/2020	10:41	-133.384	43.538	0	277.80	0	6.9420	0	36.9720	8	28.986	0	275.397	0	138.5	4	47.8	4	-1E+10	1	-1E+10	1	-1E+10	1	-1E+10	1	-1E+10	1	-1E+10	1
4901784	192	C	10/06/2020	10:41	-133.384	43.538	0	279.60	0	6.9170	0	36.9710	8	28.989	0	277.180	0	138.2	4	47.7	4	-1E+10	1	-1E+10	1	-1E+10	1	-1E+10	1	-1E+10	1	-1E+10	1
4901784	192	C	10/06/2020	10:41	-133.384	43.538	0	282.40	0	6.8610	0	36.9730	8	28.998	0	279.954	0	137.4	4	47.3	4	-1E+10	1	-1E+10	1	-1E+10	1	-1E+10	1	-1E+10	1	-1E+10	1
4901784	192	C	10/06/2020	10:41	-133.384	43.538	0	285.20	0	6.8120	0	36.9730	8	29.005	0	282.728	0	136.2	4	46.9	4	-1E+10	1	-1E+10	1	-1E+10	1	-1E+10	1	-1E+10	1	-1E+10	1
4901784	192	C	10/06/2020	10:41	-133.384	43.538	0	287.10	0	6.7900	0	36.9740	8	29.009	0	284.610	0	135.3	4	46.6	4	-1E+10	1	-1E+10	1	-1E+10	1	-1E+10	1	-1E+10	1	-1E+10	1
4901784	192	C	10/06/2020	10:41	-133.384	43.538	0	289.90	0	6.7420	0	36.9750	8	29.017	0	287.384	0	134.0	4	46.1	4	-1E+10	1	-1E+10	1	-1E+10	1	-1E+10	1	-1E+10	1	-1E+10	1
4901784	192	C	10/06/2020	10:41	-133.384	43.538	0	292.70	0	6.6910	0	36.9750	8	29.024	0	290.158	0	132.7	4	45.6	4	-1E+10	1	-1E+10	1	-1E+10	1	-1E+10	1	-1E+10	1	-1E+10	1
4901784	192	C	10/06/2020	10:41	-133.384	43.538	0	294.50	0	6.6580	0	36.9770	8	29.030	0	291.941	0	131.7	4	45.2	4	-1E+10	1	-1E+10	1	-1E+10	1	-1E+10	1	-1E+10	1	-1E+10	1
4901784	192	C	10/06/2020	10:41	-133.384	43.538	0	297.20	0	6.6450	0	36.9770	8	29.032	0	294.615	0	130.4	4	44.7	4	-1E+10	1	-1E+10	1	-1E+10	1	-1E+10	1	-1E+10	1	-1E+10	1
4901784	192	C	10/06/2020	10:41	-133.384	43.538	0	300.10	0	6.6170	0	36.9760	8	29.035	0	297.488	0	128.8	4	44.1	4	-1E+10	1	-1E+10	1	-1E+10	1	-1E+10	1	-1E+10	1	-1E+10	1
4901784	192	C	10/06/2020	10:41	-133.384	43.538	0	301.90	0	6.5720	0	36.9790	8	29.044	0	299.271	0	127.8	4	43.8	4	-1E+10	1	-1E+10	1	-1E+10	1	-1E+10	1	-1E+10	1	-1E+10	1
4901784	192	C	10/06/2020	10:41	-133.384	43.538	0	304.80	0	6.5360	0	36.9800	8	29.050	0	302.144	0	126.5	4	43.3	4	-1E+10	1	-1E+10	1	-1E+10	1	-1E+10	1	-1E+10	1	-1E+10	1
4901784	192	C	10/06/2020	10:41	-133.384	43.538	0	307.60	0	6.5070	0	36.9800	8	29.054	0	304.917	0	125.3	4	42.9	4	-1E+10	1	-1E+10	1	-1E+10	1	-1E+10	1	-1E+10	1	-1E+10	1
4901784	192	C	10/06/2020	10:41	-133.384	43.538	0	309.50	0	6.4770	0	36.9800	8	29.058	0	306.799	0	124.6	4	42.6	4	-1E+10	1	-1E+10	1	-1E+10	1	-1E+10	1	-1E+10	1	-1E+10	1
4901784	192	C	10/06/2020	10:41	-133.384	43.538	0	312.40	0	6.4580	0	36.9770	8	29.058	0	309.672	0	123.2	4	42.1	4	-1E+10	1	-1E+10	1	-1E+10	1	-1E+10	1	-1E+10	1	-1E+10	1
4901784	192	C	10/06/2020	10:41	-133.384	43.538	0	315.10	0	6.4090	0	36.9760	8	29.064	0	312.346	0	121.4	4	41.4	4	-1E+10	1	-1E+10	1	-1E+10	1	-1E+10	1	-1E+10	1	-1E+10	1
4901784	192	C	10/06/2020	10:41	-133.384	43.538	0	317.00	0	6.3760	0	36.9750	8	29.068	0	314.228	0	120.2	4	41.0	4	-1E+10	1	-1E+10	1	-1E+10	1	-1E+10	1	-1E+10	1	-1E+10	1
4901784	192	C	10/06/2020	10:41	-133.384	43.538	0	319.80	0	6.3120	0	36.9740	8	29.076	0	317.002	0	118.6	4	40.4	4	-1E+10	1	-1E+10	1	-1E+10	1	-1E+10	1	-1E+10	1	-1E+10	1
4901784	192	C	10/06/2020	10:41	-133.384	43.538	0	322.50	0	6.2510	0	36.9740	8	29.084	0	319.676	0	116.8	4	39.7	4	-1E+10	1	-1E+10	1	-1E+10	1	-1E+10	1	-1E+10	1	-1E+10	1
4901784	192	C	10/06/2020	10:41	-133.384	43.538	0	325.30	0	6.1900	0	36.9730	8	29.092	0	322.449	0	115.4	4	39.2	4	-1E+10	1	-1E+10	1	-1E+10	1	-1E+10	1	-1E+10	1	-1E+10	1
4901784	192	C	10/06/2020	10:41	-133.384	43.538	0	328.10	0	6.1700	0	36.9740	8	29.095	0	325.222	0	114.2	4	38.7	4	-1E+10	1	-1E+10	1	-1E+10	1	-1E+10	1	-1E+10	1	-1E+10	1
4901784	192	C	10/06/2020	10:41	-133.384	43.538	0	329.90	0	6.1830	0	36.9750	8	29.094	0	327.005	0	113.0	4	38.3	4	-1E+10	1	-1E+10	1	-1E+10	1	-1E+10	1	-1E+10	1	-1E+10	1
4901784	192	C	10/06/2020	10:41	-133.384	43.538	0	332.70	0	6.1100	0	36.9750	8	29.104	0	329.778	0	111.2	4	37.7	4	-1E+10	1	-1E+10	1	-1E+10	1	-1E+10	1	-1E+10	1	-1E+10	1
4901784	192	C	10/06/2020	10:41	-133.384	43.538	0	335.60	0	6.0630	0	36.9740	8	29.110	0	332.651	0	109.8	4	37.2	4	-1E+10	1	-1E+10	1	-1E+10	1	-1E+10	1	-1E+10	1	-1E+10	1
4901784	192	C	10/06/2020	10:41	-133.384	43.538	0	337.40	0	6.0130	0	36.9770	8	29.119	0	334.433	0	108.8	4	36.8	4	-1E+10	1	-1E+10	1	-1E+10	1	-1E+10	1	-1E+10	1	-1E+10	1
4901784	192	C	10/06/2020	10:41	-133.384	43.538	0	339.30	0	5.9900	0	36.9760	8	29.121	0	336.315	0	108.0	4	36.5	4	-1E+10	1	-1E+10	1	-1E+10	1	-1E+10	1	-1E+10	1	-1E+10	1
4901784	192	C	10/06/2020	10:41	-133.384	43.538	0	342.40	0	5.9540	0	36.9780	8	29.127	0	339.385	0	106.7	4	36.0	4	-1E+10	1	-1E+10	1	-1E+10	1	-1E+10	1	-1E+10	1	-1E+10	1
4901784	192	C	10/06/2020	10:41	-133.384	43.538	0	345.30	0	5.9260	0	36.9770	8	29.130	0	342.257	0	105.0	4	35.4	4	-1E+10	1	-1E+10	1	-1E+10	1	-1E+10	1	-1E+10	1	-1E+10	1
4901784	192	C	10/06/2020	10:41	-133.384	43.538	0	347.60	0	5.8760	0	36.9790	8	29.138	0	344.535	0	103.8	4	35.0	4	-1E+10	1	-1E+10	1	-1E+10	1	-1E+10	1	-1E+10	1	-1E+10	1
4901784	192	C	10/06/2020	10:41	-133.384	43.538	0	350.00	0	5.8540	0	36.9780	8	29.141	0	346.912	0	102.7	4	34.6	4	-1E+10	1	-1E+10	1	-1E+10	1	-1E+10	1	-1E+10	1	-1E+10	1
4901784	192	C	10/06/2020	10:41	-133.384	43.538	0	352.40	0	5.8080	0	36.9810	8	29.149	0	349.289	0	101.4	4	34.1	4	-1E+10	1	-1E+10	1	-1E+10	1	-1E+10	1	-1E+10	1	-1E+10	1
4901784	192	C	10/06/2020	10:41	-133.384	43.538	0	354.80	0	5.7780	0	36.9820	8	29.154	0	351.666	0	100.4	4	33.8	4	-1E+10	1	-1E+10	1	-1E+10	1	-1E+10	1	-1E+10	1	-1E+10	1
4901784	192	C	10/06/2020	10:41	-133.384	43.538	0	357.20	0	5.7590	0	36.9830	8	29.157	0	354.042	0	99.3	4	33.4	4	-1E+10	1	-1E+10	1	-1E+10	1	-1E+10	1	-1E+10	1	-1E+10	1
4901784	192	C	10/06/2020	10:41	-133.384	43.538	0	359.60	0	5.7350	0	36.9830	8	29.160	0	356.419	0	98.0	4	32.9	4	-1E+10	1	-1E+10	1	-1E+10	1	-1E+10	1	-1E+10	1	-1E+10	1
4901784	192	C	10/06/2020	10:41	-133.384	43.538	0	362.10	0	5.6940	0	36.9870	8	29.169	0	358.895	0	96.9	4	32.5	4	-1E+10	1	-1E+10	1	-1E+10	1	-1E+10	1	-1E+10	1	-1E+10	1
4901784	192	C	10/06/2020	10:41	-133.384	43.538	0	365.20	0	5.6680	0	36.9870	8	29.172	0	361.965	0	95.6	4	32.1	4	-1E+10	1	-1E+10	1	-1E+10	1	-1E+10	1	-1E+10	1	-1E+10	1
4901784	192	C	10/06/2020	10:41	-133.384	43.538	0	367.60	0	5.6440	0	36.9870	8	29.175	0	364.341	0	94.4	4	31.7	4	-1E+10	1	-1E+10	1	-1E+10	1	-1E+10	1	-1E+10	1	-1E+10	1
4901784	192	C	10/06/2020	10:41	-133.384	43.538	0	370.10	0	5.6210	0	36.9900	8	29.180	0	366.817	0	93.1	4	31.2	4	-1E+10	1	-1E+10	1	-1E+10	1	-1E+10	1	-1E+10	1	-1E+10	1
4901784	192	C	10/06/2020	10:41	-133.384	43.538	0	372.60	0	5.5910	0	36.9930	8	29.187	0	369.292	0	92.0	4	30.8	4	-1E+10	1	-1E+10	1	-1E+10	1	-1E+10	1	-1E+10	1	-1E+10	1
4901784	192	C	10/06/2020	10:41	-133.384	43.538	0	375.20	0	5.5820	0	36.9930	8	29.188	0	371.867	0	91.1	4	30.5	4	-1E+10	1	-1E+10	1	-1E+10	1	-1E+10	1	-1E+10	1	-1E+10	1
4901784	192	C	10/06/2020	10:41	-133.384	43.538	0	377.60	0	5.5710	0	36.9920	8	29.189	0	374.244	0	89.9	4	30.1	4	-1E+10	1	-1E+10	1	-1E+10	1	-1E+10	1	-1E+10	1	-1E+10	1
4901784	192	C	10/06/2020	10:41	-133.384	43.538	0	380.10	0	5.5430	0	36.9940	8	29.194	0	376.719	0	88.7	4	29.7	4	-1E+10	1	-1E+10	1	-1E+10	1	-1E+10	1	-1E+10	1	-1E+10	1
4901784	192	C	10/06/2020	10:41	-133.384	43.538	0	382.70	0	5.4920	0	36.9970	8	29.203	0	379.294	0	87.6	4	29.3	4	-1E+10	1	-1E+10	1	-1E+10	1	-1E+10	1	-1E+10	1	-1E+10	1
4901784	192	C	10/06/2020	10:41	-133.384	43.538	0	385.20	0	5.4730	0	36.9990	8	29.207	0	381.769	0	86.6	4	28.9	4	-1E+10	1	-1E+10	1	-1E+10	1	-1E+10	1	-1E+10	1	-1E+10	1
4901784	192	C	10/06/2020	10:41	-133.384	43.538	0	387.70	0	5.4430	0	37.0000	8	29.211	0	384.244	0	85.5	4	28.5	4	-1E+10	1	-1E+10	1	-1E+10	1	-1E+10	1	-1E+10	1	-1E+10	1
4901784	192	C	10/06/2020	10:41	-133.384	43.538	0	390.30	0	5.4270	0	37.0030	8	29.216	0	386.819	0	83.9	4	28.0	4	-1E+10	1	-1E+10	1	-1E+10	1	-1E+10	1	-1E+10	1	-1E+10	1
4901784	192	C	10/06/2020	10:41	-133.384	43.538	0	392.80	0	5.4200	0	37.0050	8	29.218	0	389.294	0	81.8	4	27.3	4	-1E+10	1	-1E+10	1	-1E+10	1	-1E+10	1	-1E+10	1	-1E+10	1
4901784	192	C	10/06/2020	10:41	-133.384	43.538	0	394.60	0	5.3980	0	37.0100	8	29.225	0	391.076	0	79.9	4	26.6	4	-1E+10	1	-1E+10	1	-1E+10	1	-1E+10	1	-1E+10	1	-1E+10	1
4901784	192	C	10/06/2020	10:41	-133.384	43.538	0	397.10	0	5.4260	0	37.0170	8	29.227	0	393.552	0	76.5	4	25.5	4	-1E+10	1	-1E+10	1	-1E+10	1	-1E+10	1	-1E+10	1	-1E+10	1
4901784	192	C	10/06/2020	10:41	-133.384	43.538	0	399.70	0	5.4780	0	37.0300	8	29.231	0	396.126	0	72.7	4	24.3	4	-1E+10	1	-1E+10	1	-1E+10	1	-1E+10	1	-1E+10	1	-1E+10	1
4901784	192	C	10/06/2020	10:41	-133.384	43.538	0	402.40	0	5.5340	0	37.0470	8	29.237	0	398.799	0	68.3	4	22.9	4	-1E+10	1	-1E+10	1	-1E+10	1	-1E+10	1	-1E+10	1	-1E+10	1
4901784	192	C	10/06/2020	10:41	-133.384	43.538	0	405.00	0	5.5940	0	37.0610	8	29.241	0	401.374	0	65.2	4	21.8	4	-1E+10	1	-1E+10	1	-1E+10	1	-1E+10	1	-1E+10	1	-1E+10	1
4901784	192	C	10/06/2020	10:41	-133.384	43.538	0	407.70	0	5.6200	0	37.0710	8	29.245	0	404.047	0	62.6	4	21.0	4	-1E+10	1	-1E+10	1	-1E+10	1	-1E+10	1	-1E+10	1	-1E+10	1
4901784	192	C	10/06/2020	10:41	-133.384	43.538	0	410.40	0	5.6880	0	37.0740	8	29.239	0	406.720	0	61.2	4	20.6	4	-1E+10	1	-1E+10	1	-1E+10	1	-1E+10	1	-1E+10	1	-1E+10	1
4901784	192	C	10/06/2020	10:41	-133.384	43.538	0	412.20	0	5.6590	0	37.0740	8	29.243	0	408.502	0	61.3	4	20.6	4	-1E+10	1	-1E+10	1	-1E+10	1	-1E+10	1	-1E+10	1	-1E+10	1
4901784	192	C	10/06/2020	10:41	-133.384	43.538	0	414.80	0	5.6260	0	37.0750	8	29.248	0	411.076	0	61.6	4	20.6	4	-1E+10	1	-1E+10	1	-1E+10	1	-1E+10	1	-1E+10	1	-1E+10	1
4901784	192	C	10/06/2020	10:41	-133.384	43.538	0	417.50	0	5.6030	0	37.0740	8	29.250	0	413.749	0	62.6	4	21.0	4	-1E+10	1	-1E+10	1	-1E+10	1	-1E+10	1	-1E+10	1	-1E+10	1
4901784	192	C	10/06/2020	10:41	-133.384	43.538	0	420.10	0	5.5000	0	37.0670	8	29.258	0	416.323	0	64.0	4	21.4	4	-1E+10	1	-1E+10	1	-1E+10	1	-1E+10	1	-1E+10	1	-1E+10	1
4901784	192	C	10/06/2020	10:41	-133.384	43.538	0	422.80	0	5.4230	0	37.0630	8	29.264	0	418.996	0	64.4	4	21.5	4	-1E+10	1	-1E+10	1	-1E+10	1	-1E+10	1	-1E+10	1	-1E+10	1
4901784	192	C	10/06/2020	10:41	-133.384	43.538	0	424.60	0	5.4070	0	37.0620	8	29.265	0	420.778	0	63.9	4	21.3	4	-1E+10	1	-1E+10	1	-1E+10	1	-1E+10	1	-1E+10	1	-1E+10	1
4901784	192	C	10/06/2020	10:41	-133.384	43.538	0	427.30	0	5.4190	0	37.0690	8	29.269	0	423.451	0	62.7	4	20.9	4	-1E+10	1	-1E+10	1	-1E+10	1	-1E+10	1	-1E+10	1	-1E+10	1
4901784	192	C	10/06/2020	10:41	-133.384	43.538	0	429.90	0	5.4180	0	37.0720	8	29.272	0	426.025	0	62.6	4	20.9	4	-1E+10	1	-1E+10	1	-1E+10	1	-1E+10	1	-1E+10	1	-1E+10	1
4901784	192	C	10/06/2020	10:41	-133.384	43.538	0	432.70	0	5.3690	0	37.0660	8	29.273	0	428.797	0	62.8	4	20.9	4	-1E+10	1	-1E+10	1	-1E+10	1	-1E+10	1	-1E+10	1	-1E+10	1
4901784	192	C	10/06/2020	10:41	-133.384	43.538	0	435.40	0	5.3270	0	37.0700	8	29.282	0	431.470	0	61.9	4	20.6	4	-1E+10	1	-1E+10	1	-1E+10	1	-1E+10	1	-1E+10	1	-1E+10	1
4901784	192	C	10/06/2020	10:41	-133.384	43.538	0	437.20	0	5.3830	0	37.0780	8	29.281	0	433.252	0	61.2	4	20.4	4	-1E+10	1	-1E+10	1	-1E+10	1	-1E+10	1	-1E+10	1	-1E+10	1
4901784	192	C	10/06/2020	10:41	-133.384	43.538	0	439.90	0	5.3710	0	37.0700	8	29.276	0	435.924	0	62.2	4	20.7	4	-1E+10	1	-1E+10	1	-1E+10	1	-1E+10	1	-1E+10	1	-1E+10	1
4901784	192	C	10/06/2020	10:41	-133.384	43.538	0	442.60	0	5.2370	0	37.0670	8	29.291	0	438.597	0	63.0	4	20.9	4	-1E+10	1	-1E+10	1	-1E+10	1	-1E+10	1	-1E+10	1	-1E+10	1
4901784	192	C	10/06/2020	10:41	-133.384	43.538	0	444.50	0	5.2450	0	37.0660	8	29.289	0	440.478	0	62.3	4	20.7	4	-1E+10	1	-1E+10	1	-1E+10	1	-1E+10	1	-1E+10	1	-1E+10	1
4901784	192	C	10/06/2020	10:41	-133.384	43.538	0	447.30	0	5.2460	0	37.0680	8	29.291	0	443.250	0	62.2	4	20.7	4	-1E+10	1	-1E+10	1	-1E+10	1	-1E+10	1	-1E+10	1	-1E+10	1
4901784	192	C	10/06/2020	10:41	-133.384	43.538	0	450.00	0	5.2030	0	37.0660	8	29.294	0	445.922	0	62.4	4	20.7	4	-1E+10	1	-1E+10	1	-1E+10	1	-1E+10	1	-1E+10	1	-1E+10	1
4901784	192	C	10/06/2020	10:41	-133.384	43.538	0	452.80	0	5.1400	0	37.0620	8	29.299	0	448.694	0	62.0	4	20.5	4	-1E+10	1	-1E+10	1	-1E+10	1	-1E+10	1	-1E+10	1	-1E+10	1
4901784	192	C	10/06/2020	10:41	-133.384	43.538	0	455.80	0	5.1020	0	37.0690	8	29.309	0	451.663	0	60.4	4	20.0	4	-1E+10	1	-1E+10	1	-1E+10	1	-1E+10	1	-1E+10	1	-1E+10	1
4901784	192	C	10/06/2020	10:41	-133.384	43.538	0	457.20	0	5.1050	0	37.0730	8	29.312	0	453.049	0	59.2	4	19.6	4	-1E+10	1	-1E+10	1	-1E+10	1	-1E+10	1	-1E+10	1	-1E+10	1
4901784	192	C	10/06/2020	10:41	-133.384	43.538	0	460.30	0	5.0920	0	37.0780	8	29.318	0	456.118	0	56.2	4	18.6	4	-1E+10	1	-1E+10	1	-1E+10	1	-1E+10	1	-1E+10	1	-1E+10	1
4901784	192	C	10/06/2020	10:41	-133.384	43.538	0	462.60	0	5.1630	0	37.0850	8	29.314	0	458.394	0	53.0	4	17.6	4	-1E+10	1	-1E+10	1	-1E+10	1	-1E+10	1	-1E+10	1	-1E+10	1
4901784	192	C	10/06/2020	10:41	-133.384	43.538	0	465.00	0	5.2140	0	37.1050	8	29.324	0	460.770	0	50.1	4	16.6	4	-1E+10	1	-1E+10	1	-1E+10	1	-1E+10	1	-1E+10	1	-1E+10	1
4901784	192	C	10/06/2020	10:41	-133.384	43.538	0	467.40	0	5.2570	0	37.1120	8	29.324	0	463.145	0	48.4	4	16.1	4	-1E+10	1	-1E+10	1	-1E+10	1	-1E+10	1	-1E+10	1	-1E+10	1
4901784	192	C	10/06/2020	10:41	-133.384	43.538	0	469.70	0	5.2680	0	37.1170	8	29.327	0	465.422	0	46.9	4	15.6	4	-1E+10	1	-1E+10	1	-1E+10	1	-1E+10	1	-1E+10	1	-1E+10	1
4901784	192	C	10/06/2020	10:41	-133.384	43.538	0	472.10	0	5.2590	0	37.1230	8	29.333	0	467.797	0	45.5	4	15.1	4	-1E+10	1	-1E+10	1	-1E+10	1	-1E+10	1	-1E+10	1	-1E+10	1
4901784	192	C	10/06/2020	10:41	-133.384	43.538	0	474.60	0	5.2750	0	37.1300	8	29.336	0	470.272	0	44.4	4	14.8	4	-1E+10	1	-1E+10	1	-1E+10	1	-1E+10	1	-1E+10	1	-1E+10	1
4901784	192	C	10/06/2020	10:41	-133.384	43.538	0	477.80	0	5.2660	0	37.1360	8	29.342	0	473.439	0	43.4	4	14.4	4	-1E+10	1	-1E+10	1	-1E+10	1	-1E+10	1	-1E+10	1	-1E+10	1
4901784	192	C	10/06/2020	10:41	-133.384	43.538	0	480.30	0	5.2800	0	37.1400	8	29.344	0	475.913	0	42.5	4	14.1	4	-1E+10	1	-1E+10	1	-1E+10	1	-1E+10	1	-1E+10	1	-1E+10	1
4901784	192	C	10/06/2020	10:41	-133.384	43.538	0	482.70	0	5.2790	0	37.1480	8	29.350	0	478.288	0	41.8	4	13.9	4	-1E+10	1	-1E+10	1	-1E+10	1	-1E+10	1	-1E+10	1	-1E+10	1
4901784	192	C	10/06/2020	10:41	-133.384	43.538	0	485.20	0	5.2590	0	37.1520	8	29.356	0	480.763	0	41.5	4	13.8	4	-1E+10	1	-1E+10	1	-1E+10	1	-1E+10	1	-1E+10	1	-1E+10	1
4901784	192	C	10/06/2020	10:41	-133.384	43.538	0	487.60	0	5.2320	0	37.1510	8	29.359	0	483.138	0	41.3	4	13.7	4	-1E+10	1	-1E+10	1	-1E+10	1	-1E+10	1	-1E+10	1	-1E+10	1
4901784	192	C	10/06/2020	10:41	-133.384	43.538	0	490.10	0	5.2350	0	37.1530	8	29.360	0	485.612	0	40.9	4	13.6	4	-1E+10	1	-1E+10	1	-1E+10	1	-1E+10	1	-1E+10	1	-1E+10	1
4901784	192	C	10/06/2020	10:41	-133.384	43.538	0	492.60	0	5.2360	0	37.1540	8	29.360	0	488.086	0	40.5	4	13.5	4	-1E+10	1	-1E+10	1	-1E+10	1	-1E+10	1	-1E+10	1	-1E+10	1
4901784	192	C	10/06/2020	10:41	-133.384	43.538	0	495.10	0	5.2290	0	37.1540	8	29.361	0	490.560	0	40.0	4	13.3	4	-1E+10	1	-1E+10	1	-1E+10	1	-1E+10	1	-1E+10	1	-1E+10	1
4901784	192	C	10/06/2020	10:41	-133.384	43.538	0	497.60	0	5.2120	0	37.1580	8	29.367	0	493.034	0	39.4	4	13.1	4	-1E+10	1	-1E+10	1	-1E+10	1	-1E+10	1	-1E+10	1	-1E+10	1
4901784	192	C	10/06/2020	10:41	-133.384	43.538	0	500.00	0	5.2110	0	37.1610	8	29.369	0	495.410	0	38.8	4	12.9	4	-1E+10	1	-1E+10	1	-1E+10	1	-1E+10	1	-1E+10	1	-1E+10	1
4901784	192	C	10/06/2020	10:41	-133.384	43.538	0	505.10	0	5.1920	0	37.1650	8	29.375	0	500.457	0	37.9	4	12.6	4	-1E+10	1	-1E+10	1	-1E+10	1	-1E+10	1	-1E+10	1	-1E+10	1
4901784	192	C	10/06/2020	10:41	-133.384	43.538	0	510.20	0	5.1740	0	37.1680	8	29.379	0	505.504	0	37.4	4	12.4	4	-1E+10	1	-1E+10	1	-1E+10	1	-1E+10	1	-1E+10	1	-1E+10	1
4901784	192	C	10/06/2020	10:41	-133.384	43.538	0	515.30	0	5.1350	0	37.1690	8	29.385	0	510.550	0	37.0	4	12.3	4	-1E+10	1	-1E+10	1	-1E+10	1	-1E+10	1	-1E+10	1	-1E+10	1
4901784	192	C	10/06/2020	10:41	-133.384	43.538	0	520.30	0	5.1050	0	37.1710	8	29.390	0	515.498	0	36.7	4	12.2	4	-1E+10	1	-1E+10	1	-1E+10	1	-1E+10	1	-1E+10	1	-1E+10	1
4901784	192	C	10/06/2020	10:41	-133.384	43.538	0	525.50	0	5.0530	0	37.1720	8	29.398	0	520.644	0	36.2	4	12.0	4	-1E+10	1	-1E+10	1	-1E+10	1	-1E+10	1	-1E+10	1	-1E+10	1
4901784	192	C	10/06/2020	10:41	-133.384	43.538	0	530.60	0	5.0180	0	37.1750	8	29.404	0	525.690	0	35.2	4	11.7	4	-1E+10	1	-1E+10	1	-1E+10	1	-1E+10	1	-1E+10	1	-1E+10	1
4901784	192	C	10/06/2020	10:41	-133.384	43.538	0	535.80	0	4.9950	0	37.1780	8	29.410	0	530.835	0	34.1	4	11.3	4	-1E+10	1	-1E+10	1	-1E+10	1	-1E+10	1	-1E+10	1	-1E+10	1
4901784	192	C	10/06/2020	10:41	-133.384	43.538	0	540.10	0	4.9930	0	37.1820	8	29.413	0	535.090	0	33.1	4	10.9	4	-1E+10	1	-1E+10	1	-1E+10	1	-1E+10	1	-1E+10	1	-1E+10	1
4901784	192	C	10/06/2020	10:41	-133.384	43.538	0	544.40	0	4.9580	0	37.1820	8	29.417	0	539.344	0	32.5	4	10.7	4	-1E+10	1	-1E+10	1	-1E+10	1	-1E+10	1	-1E+10	1	-1E+10	1
4901784	192	C	10/06/2020	10:41	-133.384	43.538	0	549.60	0	4.9250	0	37.1830	8	29.422	0	544.489	0	31.4	4	10.4	4	-1E+10	1	-1E+10	1	-1E+10	1	-1E+10	1	-1E+10	1	-1E+10	1
4901784	192	C	10/06/2020	10:41	-133.384	43.538	0	554.90	0	4.9090	0	37.1790	8	29.421	0	549.733	0	30.3	4	10.0	4	-1E+10	1	-1E+10	1	-1E+10	1	-1E+10	1	-1E+10	1	-1E+10	1
4901784	192	C	10/06/2020	10:41	-133.384	43.538	0	560.10	0	4.8770	8	37.1500	8	29.402	0	554.878	0	29.5	4	9.7	4	-1E+10	1	-1E+10	1	-1E+10	1	-1E+10	1	-1E+10	1	-1E+10	1
4901784	192	C	10/06/2020	10:41	-133.384	43.538	0	565.40	0	4.8470	8	37.0290	8	29.309	0	560.121	0	28.5	4	9.4	4	-1E+10	1	-1E+10	1	-1E+10	1	-1E+10	1	-1E+10	1	-1E+10	1
4901784	192	C	10/06/2020	10:41	-133.384	43.538	0	570.60	0	4.8420	8	36.9750	8	29.267	0	565.265	0	27.7	4	9.1	4	-1E+10	1	-1E+10	1	-1E+10	1	-1E+10	1	-1E+10	1	-1E+10	1
4901784	192	C	10/06/2020	10:41	-133.384	43.538	0	575.10	0	4.8340	0	36.9410	8	29.241	0	569.717	0	27.0	4	8.9	4	-1E+10	1	-1E+10	1	-1E+10	1	-1E+10	1	-1E+10	1	-1E+10	1
4901784	192	C	10/06/2020	10:41	-133.384	43.538	0	579.50	0	4.8010	0	36.9090	8	29.220	0	574.070	0	26.4	4	8.7	4	-1E+10	1	-1E+10	1	-1E+10	1	-1E+10	1	-1E+10	1	-1E+10	1
4901784	192	C	10/06/2020	10:41	-133.384	43.538	0	584.80	0	4.7310	0	36.9150	8	29.233	0	579.313	0	25.8	4	8.5	4	-1E+10	1	-1E+10	1	-1E+10	1	-1E+10	1	-1E+10	1	-1E+10	1
4901784	192	C	10/06/2020	10:41	-133.384	43.538	0	590.10	0	4.7010	0	36.9250	8	29.244	0	584.556	0	24.7	4	8.1	4	-1E+10	1	-1E+10	1	-1E+10	1	-1E+10	1	-1E+10	1	-1E+10	1
4901784	192	C	10/06/2020	10:41	-133.384	43.538	0	595.30	0	4.7110	0	36.9010	8	29.224	0	589.700	0	23.9	4	7.8	4	-1E+10	1	-1E+10	1	-1E+10	1	-1E+10	1	-1E+10	1	-1E+10	1
4901784	192	C	10/06/2020	10:41	-133.384	43.538	0	600.70	0	4.6770	0	36.8670	8	29.201	0	595.041	0	23.4	4	7.6	4	-1E+10	1	-1E+10	1	-1E+10	1	-1E+10	1	-1E+10	1	-1E+10	1
4901784	192	C	10/06/2020	10:41	-133.384	43.538	0	605.10	0	4.6480	0	36.8460	8	29.188	0	599.393	0	22.9	4	7.5	4	-1E+10	1	-1E+10	1	-1E+10	1	-1E+10	1	-1E+10	1	-1E+10	1
4901784	192	C	10/06/2020	10:41	-133.384	43.538	0	609.60	0	4.6230	0	36.8330	8	29.180	0	603.844	0	22.4	4	7.3	4	-1E+10	1	-1E+10	1	-1E+10	1	-1E+10	1	-1E+10	1	-1E+10	1
4901784	192	C	10/06/2020	10:41	-133.384	43.538	0	615.00	0	4.6020	0	36.8250	8	29.177	0	609.185	0	21.6	4	7.1	4	-1E+10	1	-1E+10	1	-1E+10	1	-1E+10	1	-1E+10	1	-1E+10	1
4901784	192	C	10/06/2020	10:41	-133.384	43.538	0	620.50	0	4.5890	0	36.8140	8	29.169	0	614.625	0	20.9	4	6.8	4	-1E+10	1	-1E+10	1	-1E+10	1	-1E+10	1	-1E+10	1	-1E+10	1
4901784	192	C	10/06/2020	10:41	-133.384	43.538	0	625.00	0	4.5830	0	36.8300	8	29.183	0	619.076	0	20.3	4	6.6	4	-1E+10	1	-1E+10	1	-1E+10	1	-1E+10	1	-1E+10	1	-1E+10	1
4901784	192	C	10/06/2020	10:41	-133.384	43.538	0	629.60	0	4.5690	0	36.8220	8	29.178	0	623.625	0	19.8	4	6.5	4	-1E+10	1	-1E+10	1	-1E+10	1	-1E+10	1	-1E+10	1	-1E+10	1
4901784	192	C	10/06/2020	10:41	-133.384	43.538	0	635.10	0	4.5490	0	36.7950	8	29.159	0	629.065	0	19.3	4	6.3	4	-1E+10	1	-1E+10	1	-1E+10	1	-1E+10	1	-1E+10	1	-1E+10	1
4901784	192	C	10/06/2020	10:41	-133.384	43.538	0	639.70	0	4.5330	0	36.7930	8	29.159	0	633.614	0	18.9	4	6.1	4	-1E+10	1	-1E+10	1	-1E+10	1	-1E+10	1	-1E+10	1	-1E+10	1
4901784	192	C	10/06/2020	10:41	-133.384	43.538	0	644.40	0	4.5130	0	36.7870	8	29.157	0	638.262	0	18.3	4	6.0	4	-1E+10	1	-1E+10	1	-1E+10	1	-1E+10	1	-1E+10	1	-1E+10	1
4901784	192	C	10/06/2020	10:41	-133.384	43.538	0	649.90	0	4.5060	0	36.7710	8	29.145	0	643.702	0	17.9	4	5.8	4	-1E+10	1	-1E+10	1	-1E+10	1	-1E+10	1	-1E+10	1	-1E+10	1
4901784	192	C	10/06/2020	10:41	-133.384	43.538	0	655.50	0	4.4810	0	36.7550	8	29.135	0	649.239	0	17.4	4	5.7	4	-1E+10	1	-1E+10	1	-1E+10	1	-1E+10	1	-1E+10	1	-1E+10	1
4901784	192	C	10/06/2020	10:41	-133.384	43.538	0	660.20	0	4.4660	0	36.7510	8	29.134	0	653.887	0	16.9	4	5.5	4	-1E+10	1	-1E+10	1	-1E+10	1	-1E+10	1	-1E+10	1	-1E+10	1
4901784	192	C	10/06/2020	10:41	-133.384	43.538	0	664.80	0	4.4540	0	36.7510	8	29.135	0	658.436	0	16.6	4	5.4	4	-1E+10	1	-1E+10	1	-1E+10	1	-1E+10	1	-1E+10	1	-1E+10	1
4901784	192	C	10/06/2020	10:41	-133.384	43.538	0	670.40	0	4.4440	0	36.7520	8	29.137	0	663.973	0	16.1	4	5.2	4	-1E+10	1	-1E+10	1	-1E+10	1	-1E+10	1	-1E+10	1	-1E+10	1
4901784	192	C	10/06/2020	10:41	-133.384	43.538	0	675.10	0	4.4360	0	36.7530	8	29.139	0	668.621	0	15.9	4	5.2	4	-1E+10	1	-1E+10	1	-1E+10	1	-1E+10	1	-1E+10	1	-1E+10	1
4901784	192	C	10/06/2020	10:41	-133.384	43.538	0	679.80	0	4.4280	0	36.7540	8	29.141	0	673.268	0	15.6	4	5.1	4	-1E+10	1	-1E+10	1	-1E+10	1	-1E+10	1	-1E+10	1	-1E+10	1
4901784	192	C	10/06/2020	10:41	-133.384	43.538	0	684.60	0	4.3920	0	36.7580	8	29.148	0	678.014	0	15.4	4	5.0	4	-1E+10	1	-1E+10	1	-1E+10	1	-1E+10	1	-1E+10	1	-1E+10	1
4901784	192	C	10/06/2020	10:41	-133.384	43.538	0	689.30	0	4.3910	0	36.7620	8	29.151	0	682.661	0	15.2	4	4.9	4	-1E+10	1	-1E+10	1	-1E+10	1	-1E+10	1	-1E+10	1	-1E+10	1
4901784	192	C	10/06/2020	10:41	-133.384	43.538	0	694.60	0	4.3780	0	36.7650	8	29.155	0	687.901	0	14.9	4	4.8	4	-1E+10	1	-1E+10	1	-1E+10	1	-1E+10	1	-1E+10	1	-1E+10	1
4901784	192	C	10/06/2020	10:41	-133.384	43.538	0	699.50	0	4.3600	0	36.7690	8	29.161	0	692.746	0	14.7	4	4.8	4	-1E+10	1	-1E+10	1	-1E+10	1	-1E+10	1	-1E+10	1	-1E+10	1
4901784	192	C	10/06/2020	10:41	-133.384	43.538	0	704.30	0	4.3450	0	36.7720	8	29.165	0	697.492	0	14.4	4	4.7	4	-1E+10	1	-1E+10	1	-1E+10	1	-1E+10	1	-1E+10	1	-1E+10	1
4901784	192	C	10/06/2020	10:41	-133.384	43.538	0	710.00	0	4.3330	0	36.7780	8	29.171	0	703.127	0	14.1	4	4.6	4	-1E+10	1	-1E+10	1	-1E+10	1	-1E+10	1	-1E+10	1	-1E+10	1
4901784	192	C	10/06/2020	10:41	-133.384	43.538	0	715.70	0	4.3220	0	36.7830	8	29.176	0	708.762	0	13.8	4	4.5	4	-1E+10	1	-1E+10	1	-1E+10	1	-1E+10	1	-1E+10	1	-1E+10	1
4901784	192	C	10/06/2020	10:41	-133.384	43.538	0	720.60	0	4.3110	0	36.7860	8	29.180	0	713.606	0	13.5	4	4.4	4	-1E+10	1	-1E+10	1	-1E+10	1	-1E+10	1	-1E+10	1	-1E+10	1
4901784	192	C	10/06/2020	10:41	-133.384	43.538	0	725.50	0	4.2870	0	36.7910	8	29.186	0	718.450	0	13.4	4	4.3	4	-1E+10	1	-1E+10	1	-1E+10	1	-1E+10	1	-1E+10	1	-1E+10	1
4901784	192	C	10/06/2020	10:41	-133.384	43.538	0	730.30	0	4.2770	0	36.7930	8	29.189	0	723.195	0	13.2	4	4.3	4	-1E+10	1	-1E+10	1	-1E+10	1	-1E+10	1	-1E+10	1	-1E+10	1
4901784	192	C	10/06/2020	10:41	-133.384	43.538	0	735.20	0	4.2700	0	36.7950	8	29.192	0	728.039	0	13.1	4	4.3	4	-1E+10	1	-1E+10	1	-1E+10	1	-1E+10	1	-1E+10	1	-1E+10	1
4901784	192	C	10/06/2020	10:41	-133.384	43.538	0	740.20	0	4.2590	0	36.7980	8	29.195	0	732.982	0	13.0	4	4.2	4	-1E+10	1	-1E+10	1	-1E+10	1	-1E+10	1	-1E+10	1	-1E+10	1
4901784	192	C	10/06/2020	10:41	-133.384	43.538	0	745.30	0	4.2510	0	36.7990	8	29.197	0	738.023	0	12.8	4	4.1	4	-1E+10	1	-1E+10	1	-1E+10	1	-1E+10	1	-1E+10	1	-1E+10	1
4901784	192	C	10/06/2020	10:41	-133.384	43.538	0	750.30	0	4.2340	0	36.8060	8	29.205	0	742.965	0	12.5	4	4.0	4	-1E+10	1	-1E+10	1	-1E+10	1	-1E+10	1	-1E+10	1	-1E+10	1
4901784	192	C	10/06/2020	10:41	-133.384	43.538	0	755.30	0	4.2190	0	36.8110	8	29.210	0	747.907	0	12.2	4	4.0	4	-1E+10	1	-1E+10	1	-1E+10	1	-1E+10	1	-1E+10	1	-1E+10	1
4901784	192	C	10/06/2020	10:41	-133.384	43.538	0	760.40	0	4.2040	0	36.8170	8	29.217	0	752.948	0	12.0	4	3.9	4	-1E+10	1	-1E+10	1	-1E+10	1	-1E+10	1	-1E+10	1	-1E+10	1
4901784	192	C	10/06/2020	10:41	-133.384	43.538	0	765.50	0	4.1940	0	36.8210	8	29.221	0	757.989	0	11.8	4	3.8	4	-1E+10	1	-1E+10	1	-1E+10	1	-1E+10	1	-1E+10	1	-1E+10	1
4901784	192	C	10/06/2020	10:41	-133.384	43.538	0	770.60	0	4.1820	0	36.8260	8	29.226	0	763.030	0	11.7	4	3.8	4	-1E+10	1	-1E+10	1	-1E+10	1	-1E+10	1	-1E+10	1	-1E+10	1
4901784	192	C	10/06/2020	10:41	-133.384	43.538	0	774.90	0	4.1730	0	36.8300	8	29.231	0	767.279	0	11.6	4	3.7	4	-1E+10	1	-1E+10	1	-1E+10	1	-1E+10	1	-1E+10	1	-1E+10	1
4901784	192	C	10/06/2020	10:41	-133.384	43.538	0	779.20	0	4.1670	0	36.8330	8	29.234	0	771.529	0	11.5	4	3.7	4	-1E+10	1	-1E+10	1	-1E+10	1	-1E+10	1	-1E+10	1	-1E+10	1
4901784	192	C	10/06/2020	10:41	-133.384	43.538	0	784.40	0	4.1600	0	36.8360	8	29.237	0	776.668	0	11.3	4	3.7	4	-1E+10	1	-1E+10	1	-1E+10	1	-1E+10	1	-1E+10	1	-1E+10	1
4901784	192	C	10/06/2020	10:41	-133.384	43.538	0	789.60	0	4.1510	0	36.8400	8	29.241	0	781.807	0	11.2	4	3.6	4	-1E+10	1	-1E+10	1	-1E+10	1	-1E+10	1	-1E+10	1	-1E+10	1
4901784	192	C	10/06/2020	10:41	-133.384	43.538	0	794.80	0	4.1390	0	36.8440	8	29.246	0	786.946	0	11.1	4	3.6	4	-1E+10	1	-1E+10	1	-1E+10	1	-1E+10	1	-1E+10	1	-1E+10	1
4901784	192	C	10/06/2020	10:41	-133.384	43.538	0	800.00	0	4.1290	0	36.8490	8	29.251	0	792.085	0	10.9	4	3.5	4	-1E+10	1	-1E+10	1	-1E+10	1	-1E+10	1	-1E+10	1	-1E+10	1
4901784	192	C	10/06/2020	10:41	-133.384	43.538	0	805.30	0	4.1140	0	36.8540	8	29.257	0	797.322	0	10.9	4	3.5	4	-1E+10	1	-1E+10	1	-1E+10	1	-1E+10	1	-1E+10	1	-1E+10	1
4901784	192	C	10/06/2020	10:41	-133.384	43.538	0	810.50	0	4.0980	0	36.8570	8	29.261	0	802.461	0	10.8	4	3.5	4	-1E+10	1	-1E+10	1	-1E+10	1	-1E+10	1	-1E+10	1	-1E+10	1
4901784	192	C	10/06/2020	10:41	-133.384	43.538	0	814.90	0	4.0780	0	36.8610	8	29.266	0	806.809	0	10.7	4	3.5	4	-1E+10	1	-1E+10	1	-1E+10	1	-1E+10	1	-1E+10	1	-1E+10	1
4901784	192	C	10/06/2020	10:41	-133.384	43.538	0	819.30	0	4.0850	0	36.8630	8	29.267	0	811.157	0	10.6	4	3.4	4	-1E+10	1	-1E+10	1	-1E+10	1	-1E+10	1	-1E+10	1	-1E+10	1
4901784	192	C	10/06/2020	10:41	-133.384	43.538	0	824.70	0	4.0710	0	36.8650	8	29.270	0	816.492	0	10.6	4	3.4	4	-1E+10	1	-1E+10	1	-1E+10	1	-1E+10	1	-1E+10	1	-1E+10	1
4901784	192	C	10/06/2020	10:41	-133.384	43.538	0	830.10	0	4.0370	0	36.8690	8	29.277	0	821.828	0	10.5	4	3.4	4	-1E+10	1	-1E+10	1	-1E+10	1	-1E+10	1	-1E+10	1	-1E+10	1
4901784	192	C	10/06/2020	10:41	-133.384	43.538	0	835.50	0	4.0270	0	36.8700	8	29.279	0	827.164	0	10.5	4	3.4	4	-1E+10	1	-1E+10	1	-1E+10	1	-1E+10	1	-1E+10	1	-1E+10	1
4901784	192	C	10/06/2020	10:41	-133.384	43.538	0	840.00	0	4.0160	0	36.8740	8	29.284	0	831.610	0	10.4	4	3.4	4	-1E+10	1	-1E+10	1	-1E+10	1	-1E+10	1	-1E+10	1	-1E+10	1
4901784	192	C	10/06/2020	10:41	-133.384	43.538	0	844.50	0	3.9890	0	36.8790	8	29.290	0	836.056	0	10.3	4	3.3	4	-1E+10	1	-1E+10	1	-1E+10	1	-1E+10	1	-1E+10	1	-1E+10	1
4901784	192	C	10/06/2020	10:41	-133.384	43.538	0	850.00	0	3.9740	0	36.8820	8	29.295	0	841.490	0	10.3	4	3.3	4	-1E+10	1	-1E+10	1	-1E+10	1	-1E+10	1	-1E+10	1	-1E+10	1
4901784	192	C	10/06/2020	10:41	-133.384	43.538	0	855.50	0	3.9540	0	36.8870	8	29.301	0	846.924	0	10.2	4	3.3	4	-1E+10	1	-1E+10	1	-1E+10	1	-1E+10	1	-1E+10	1	-1E+10	1
4901784	192	C	10/06/2020	10:41	-133.384	43.538	0	860.10	0	3.9530	0	36.8900	8	29.303	0	851.468	0	10.2	4	3.3	4	-1E+10	1	-1E+10	1	-1E+10	1	-1E+10	1	-1E+10	1	-1E+10	1
4901784	192	C	10/06/2020	10:41	-133.384	43.538	0	864.60	0	3.9380	0	36.8940	8	29.308	0	855.914	0	10.2	4	3.3	4	-1E+10	1	-1E+10	1	-1E+10	1	-1E+10	1	-1E+10	1	-1E+10	1
4901784	192	C	10/06/2020	10:41	-133.384	43.538	0	870.10	0	3.9350	0	36.8950	8	29.309	0	861.347	0	10.1	4	3.3	4	-1E+10	1	-1E+10	1	-1E+10	1	-1E+10	1	-1E+10	1	-1E+10	1
4901784	192	C	10/06/2020	10:41	-133.384	43.538	0	874.70	0	3.9070	0	36.9010	8	29.317	0	865.891	0	10.1	4	3.2	4	-1E+10	1	-1E+10	1	-1E+10	1	-1E+10	1	-1E+10	1	-1E+10	1
4901784	192	C	10/06/2020	10:41	-133.384	43.538	0	879.40	0	3.8970	0	36.9030	8	29.320	0	870.534	0	10.1	4	3.2	4	-1E+10	1	-1E+10	1	-1E+10	1	-1E+10	1	-1E+10	1	-1E+10	1
4901784	192	C	10/06/2020	10:41	-133.384	43.538	0	885.00	0	3.8880	0	36.9050	8	29.322	0	876.066	0	10.1	4	3.2	4	-1E+10	1	-1E+10	1	-1E+10	1	-1E+10	1	-1E+10	1	-1E+10	1
4901784	192	C	10/06/2020	10:41	-133.384	43.538	0	890.60	0	3.8760	0	36.9080	8	29.326	0	881.598	0	10.1	4	3.2	4	-1E+10	1	-1E+10	1	-1E+10	1	-1E+10	1	-1E+10	1	-1E+10	1
4901784	192	C	10/06/2020	10:41	-133.384	43.538	0	895.20	0	3.8730	0	36.9120	8	29.330	0	886.141	0	10.1	4	3.2	4	-1E+10	1	-1E+10	1	-1E+10	1	-1E+10	1	-1E+10	1	-1E+10	1
4901784	192	C	10/06/2020	10:41	-133.384	43.538	0	900.00	0	3.8650	0	36.9150	8	29.333	0	890.883	0	10.1	4	3.2	4	-1E+10	1	-1E+10	1	-1E+10	1	-1E+10	1	-1E+10	1	-1E+10	1
4901784	192	C	10/06/2020	10:41	-133.384	43.538	0	904.70	0	3.8520	0	36.9160	8	29.335	0	895.525	0	10.0	4	3.2	4	-1E+10	1	-1E+10	1	-1E+10	1	-1E+10	1	-1E+10	1	-1E+10	1
4901784	192	C	10/06/2020	10:41	-133.384	43.538	0	909.30	0	3.8060	0	36.9170	8	29.341	0	900.068	0	10.0	4	3.2	4	-1E+10	1	-1E+10	1	-1E+10	1	-1E+10	1	-1E+10	1	-1E+10	1
4901784	192	C	10/06/2020	10:41	-133.384	43.538	0	914.60	0	3.7780	0	36.9200	8	29.346	0	905.303	0	10.0	4	3.2	4	-1E+10	1	-1E+10	1	-1E+10	1	-1E+10	1	-1E+10	1	-1E+10	1
4901784	192	C	10/06/2020	10:41	-133.384	43.538	0	919.50	0	3.7780	0	36.9230	8	29.349	0	910.143	0	10.0	4	3.2	4	-1E+10	1	-1E+10	1	-1E+10	1	-1E+10	1	-1E+10	1	-1E+10	1
4901784	192	C	10/06/2020	10:41	-133.384	43.538	0	925.10	0	3.7520	0	36.9240	8	29.352	0	915.673	0	10.0	4	3.2	4	-1E+10	1	-1E+10	1	-1E+10	1	-1E+10	1	-1E+10	1	-1E+10	1
4901784	192	C	10/06/2020	10:41	-133.384	43.538	0	930.70	0	3.7170	0	36.9260	8	29.358	0	921.204	0	10.1	4	3.2	4	-1E+10	1	-1E+10	1	-1E+10	1	-1E+10	1	-1E+10	1	-1E+10	1
4901784	192	C	10/06/2020	10:41	-133.384	43.538	0	935.60	0	3.7280	0	36.9330	8	29.362	0	926.043	0	10.1	4	3.2	4	-1E+10	1	-1E+10	1	-1E+10	1	-1E+10	1	-1E+10	1	-1E+10	1
4901784	192	C	10/06/2020	10:41	-133.384	43.538	0	940.50	0	3.7580	0	36.9380	8	29.363	0	930.882	0	10.2	4	3.3	4	-1E+10	1	-1E+10	1	-1E+10	1	-1E+10	1	-1E+10	1	-1E+10	1
4901784	192	C	10/06/2020	10:41	-133.384	43.538	0	945.40	0	3.7460	0	36.9410	8	29.367	0	935.721	0	10.3	4	3.3	4	-1E+10	1	-1E+10	1	-1E+10	1	-1E+10	1	-1E+10	1	-1E+10	1
4901784	192	C	10/06/2020	10:41	-133.384	43.538	0	950.30	0	3.7480	0	36.9450	8	29.370	0	940.560	0	10.4	4	3.3	4	-1E+10	1	-1E+10	1	-1E+10	1	-1E+10	1	-1E+10	1	-1E+10	1
4901784	192	C	10/06/2020	10:41	-133.384	43.538	0	955.30	0	3.7430	0	36.9510	8	29.375	0	945.498	0	10.5	4	3.4	4	-1E+10	1	-1E+10	1	-1E+10	1	-1E+10	1	-1E+10	1	-1E+10	1
4901784	192	C	10/06/2020	10:41	-133.384	43.538	0	960.40	0	3.7250	0	36.9560	8	29.381	0	950.534	0	10.6	4	3.4	4	-1E+10	1	-1E+10	1	-1E+10	1	-1E+10	1	-1E+10	1	-1E+10	1
4901784	192	C	10/06/2020	10:41	-133.384	43.538	0	965.50	0	3.7140	0	36.9600	8	29.386	0	955.570	0	10.6	4	3.4	4	-1E+10	1	-1E+10	1	-1E+10	1	-1E+10	1	-1E+10	1	-1E+10	1
4901784	192	C	10/06/2020	10:41	-133.384	43.538	0	970.60	0	3.7050	0	36.9610	8	29.387	0	960.605	0	10.6	4	3.4	4	-1E+10	1	-1E+10	1	-1E+10	1	-1E+10	1	-1E+10	1	-1E+10	1
4901784	192	C	10/06/2020	10:41	-133.384	43.538	0	975.70	0	3.6930	0	36.9630	8	29.390	0	965.641	0	10.7	4	3.4	4	-1E+10	1	-1E+10	1	-1E+10	1	-1E+10	1	-1E+10	1	-1E+10	1
4901784	192	C	10/06/2020	10:41	-133.384	43.538	0	980.00	0	3.6790	0	36.9640	8	29.393	0	969.887	0	10.6	4	3.4	4	-1E+10	1	-1E+10	1	-1E+10	1	-1E+10	1	-1E+10	1	-1E+10	1
4901784	192	C	10/06/2020	10:41	-133.384	43.538	0	984.30	0	3.6510	0	36.9640	8	29.395	0	974.133	0	10.5	4	3.4	4	-1E+10	1	-1E+10	1	-1E+10	1	-1E+10	1	-1E+10	1	-1E+10	1
4901784	192	C	10/06/2020	10:41	-133.384	43.538	0	989.50	0	3.5610	0	36.9620	8	29.403	0	979.267	0	10.5	4	3.3	4	-1E+10	1	-1E+10	1	-1E+10	1	-1E+10	1	-1E+10	1	-1E+10	1
4901784	192	C	10/06/2020	10:41	-133.384	43.538	0	994.90	0	3.5890	0	36.9660	8	29.404	0	984.598	0	10.6	4	3.4	4	-1E+10	1	-1E+10	1	-1E+10	1	-1E+10	1	-1E+10	1	-1E+10	1
4901784	192	C	10/06/2020	10:41	-133.384	43.538	0	1000.10	0	3.5640	0	36.9670	8	29.407	0	989.732	0	10.5	4	3.4	4	-1E+10	1	-1E+10	1	-1E+10	1	-1E+10	1	-1E+10	1	-1E+10	1
4901784	192	C	10/06/2020	10:41	-133.384	43.538	0	1005.40	0	3.5390	0	36.9680	8	29.410	0	994.965	0	10.6	4	3.4	4	-1E+10	1	-1E+10	1	-1E+10	1	-1E+10	1	-1E+10	1	-1E+10	1
4901784	192	C	10/06/2020	10:41	-133.384	43.538	0	1009.80	0	3.5260	0	36.9720	8	29.415	0	999.308	0	10.7	4	3.4	4	-1E+10	1	-1E+10	1	-1E+10	1	-1E+10	1	-1E+10	1	-1E+10	1
4901784	192	C	10/06/2020	10:41	-133.384	43.538	0	1014.30	0	3.5400	0	36.9750	8	29.416	0	1003.751	0	10.9	4	3.5	4	-1E+10	1	-1E+10	1	-1E+10	1	-1E+10	1	-1E+10	1	-1E+10	1
4901784	192	C	10/06/2020	10:41	-133.384	43.538	0	1019.80	0	3.5620	0	36.9810	8	29.419	0	1009.180	0	11.1	4	3.6	4	-1E+10	1	-1E+10	1	-1E+10	1	-1E+10	1	-1E+10	1	-1E+10	1
4901784	192	C	10/06/2020	10:41	-133.384	43.538	0	1025.30	0	3.5620	0	36.9840	8	29.421	0	1014.610	0	11.2	4	3.6	4	-1E+10	1	-1E+10	1	-1E+10	1	-1E+10	1	-1E+10	1	-1E+10	1
4901784	192	C	10/06/2020	10:41	-133.384	43.538	0	1029.90	0	3.5450	0	36.9850	8	29.424	0	1019.151	0	11.0	4	3.5	4	-1E+10	1	-1E+10	1	-1E+10	1	-1E+10	1	-1E+10	1	-1E+10	1
4901784	192	C	10/06/2020	10:41	-133.384	43.538	0	1034.60	0	3.5120	0	36.9830	8	29.425	0	1023.790	0	10.8	4	3.5	4	-1E+10	1	-1E+10	1	-1E+10	1	-1E+10	1	-1E+10	1	-1E+10	1
4901784	192	C	10/06/2020	10:41	-133.384	43.538	0	1040.10	0	3.4670	0	36.9820	8	29.429	0	1029.219	0	10.7	4	3.4	4	-1E+10	1	-1E+10	1	-1E+10	1	-1E+10	1	-1E+10	1	-1E+10	1
4901784	192	C	10/06/2020	10:41	-133.384	43.538	0	1044.70	0	3.4430	0	36.9820	8	29.432	0	1033.760	0	10.7	4	3.4	4	-1E+10	1	-1E+10	1	-1E+10	1	-1E+10	1	-1E+10	1	-1E+10	1
4901784	192	C	10/06/2020	10:41	-133.384	43.538	0	1049.40	0	3.4330	0	36.9830	8	29.434	0	1038.399	0	10.7	4	3.4	4	-1E+10	1	-1E+10	1	-1E+10	1	-1E+10	1	-1E+10	1	-1E+10	1
4901784	192	C	10/06/2020	10:41	-133.384	43.538	0	1054.90	0	3.4190	0	36.9870	8	29.438	0	1043.828	0	10.8	4	3.4	4	-1E+10	1	-1E+10	1	-1E+10	1	-1E+10	1	-1E+10	1	-1E+10	1
4901784	192	C	10/06/2020	10:41	-133.384	43.538	0	1060.50	0	3.4070	0	36.9890	8	29.441	0	1049.355	0	10.9	4	3.5	4	-1E+10	1	-1E+10	1	-1E+10	1	-1E+10	1	-1E+10	1	-1E+10	1
4901784	192	C	10/06/2020	10:41	-133.384	43.538	0	1065.40	0	3.4020	0	36.9910	8	29.443	0	1054.191	0	11.0	4	3.5	4	-1E+10	1	-1E+10	1	-1E+10	1	-1E+10	1	-1E+10	1	-1E+10	1
4901784	192	C	10/06/2020	10:41	-133.384	43.538	0	1069.90	0	3.3920	0	36.9930	8	29.446	0	1058.632	0	11.0	4	3.5	4	-1E+10	1	-1E+10	1	-1E+10	1	-1E+10	1	-1E+10	1	-1E+10	1
4901784	192	C	10/06/2020	10:41	-133.384	43.538	0	1074.70	0	3.3810	0	36.9950	8	29.449	0	1063.370	0	11.1	4	3.5	4	-1E+10	1	-1E+10	1	-1E+10	1	-1E+10	1	-1E+10	1	-1E+10	1
4901784	192	C	10/06/2020	10:41	-133.384	43.538	0	1079.70	0	3.3660	0	36.9980	8	29.453	0	1068.304	0	11.2	4	3.6	4	-1E+10	1	-1E+10	1	-1E+10	1	-1E+10	1	-1E+10	1	-1E+10	1
4901784	192	C	10/06/2020	10:41	-133.384	43.538	0	1084.70	0	3.3530	0	37.0010	8	29.456	0	1073.239	0	11.3	4	3.6	4	-1E+10	1	-1E+10	1	-1E+10	1	-1E+10	1	-1E+10	1	-1E+10	1
4901784	192	C	10/06/2020	10:41	-133.384	43.538	0	1089.70	0	3.3480	0	37.0030	8	29.459	0	1078.173	0	11.4	4	3.6	4	-1E+10	1	-1E+10	1	-1E+10	1	-1E+10	1	-1E+10	1	-1E+10	1
4901784	192	C	10/06/2020	10:41	-133.384	43.538	0	1094.80	0	3.3360	0	37.0050	8	29.461	0	1083.206	0	11.5	4	3.7	4	-1E+10	1	-1E+10	1	-1E+10	1	-1E+10	1	-1E+10	1	-1E+10	1
4901784	192	C	10/06/2020	10:41	-133.384	43.538	0	1100.20	0	3.3230	0	37.0080	8	29.465	0	1088.535	0	11.7	4	3.7	4	-1E+10	1	-1E+10	1	-1E+10	1	-1E+10	1	-1E+10	1	-1E+10	1
4901784	192	C	10/06/2020	10:41	-133.384	43.538	0	1104.80	0	3.3080	0	37.0120	8	29.470	0	1093.074	0	11.8	4	3.7	4	-1E+10	1	-1E+10	1	-1E+10	1	-1E+10	1	-1E+10	1	-1E+10	1
4901784	192	C	10/06/2020	10:41	-133.384	43.538	0	1109.50	0	3.3020	0	37.0130	8	29.471	0	1097.712	0	11.8	4	3.8	4	-1E+10	1	-1E+10	1	-1E+10	1	-1E+10	1	-1E+10	1	-1E+10	1
4901784	192	C	10/06/2020	10:41	-133.384	43.538	0	1115.20	0	3.2900	0	37.0150	8	29.474	0	1103.336	0	12.0	4	3.8	4	-1E+10	1	-1E+10	1	-1E+10	1	-1E+10	1	-1E+10	1	-1E+10	1
4901784	192	C	10/06/2020	10:41	-133.384	43.538	0	1119.90	0	3.2850	0	37.0180	8	29.477	0	1107.974	0	12.1	4	3.8	4	-1E+10	1	-1E+10	1	-1E+10	1	-1E+10	1	-1E+10	1	-1E+10	1
4901784	192	C	10/06/2020	10:41	-133.384	43.538	0	1124.60	0	3.2790	0	37.0180	8	29.478	0	1112.611	0	12.2	4	3.9	4	-1E+10	1	-1E+10	1	-1E+10	1	-1E+10	1	-1E+10	1	-1E+10	1
4901784	192	C	10/06/2020	10:41	-133.384	43.538	0	1130.40	0	3.2560	0	37.0210	8	29.483	0	1118.334	0	12.2	4	3.9	4	-1E+10	1	-1E+10	1	-1E+10	1	-1E+10	1	-1E+10	1	-1E+10	1
4901784	192	C	10/06/2020	10:41	-133.384	43.538	0	1135.10	0	3.2390	0	37.0240	8	29.487	0	1122.971	0	12.4	4	3.9	4	-1E+10	1	-1E+10	1	-1E+10	1	-1E+10	1	-1E+10	1	-1E+10	1
4901784	192	C	10/06/2020	10:41	-133.384	43.538	0	1140.00	0	3.2260	0	37.0260	8	29.490	0	1127.806	0	12.5	4	4.0	4	-1E+10	1	-1E+10	1	-1E+10	1	-1E+10	1	-1E+10	1	-1E+10	1
4901784	192	C	10/06/2020	10:41	-133.384	43.538	0	1144.70	0	3.2170	0	37.0280	8	29.492	0	1132.443	0	12.7	4	4.0	4	-1E+10	1	-1E+10	1	-1E+10	1	-1E+10	1	-1E+10	1	-1E+10	1
4901784	192	C	10/06/2020	10:41	-133.384	43.538	0	1149.60	0	3.2030	0	37.0310	8	29.496	0	1137.277	0	12.8	4	4.1	4	-1E+10	1	-1E+10	1	-1E+10	1	-1E+10	1	-1E+10	1	-1E+10	1
4901784	192	C	10/06/2020	10:41	-133.384	43.538	0	1155.50	0	3.1890	0	37.0340	8	29.500	0	1143.098	0	13.0	4	4.1	4	-1E+10	1	-1E+10	1	-1E+10	1	-1E+10	1	-1E+10	1	-1E+10	1
4901784	192	C	10/06/2020	10:41	-133.384	43.538	0	1160.40	0	3.1790	0	37.0360	8	29.502	0	1147.932	0	13.1	4	4.1	4	-1E+10	1	-1E+10	1	-1E+10	1	-1E+10	1	-1E+10	1	-1E+10	1
4901784	192	C	10/06/2020	10:41	-133.384	43.538	0	1165.40	0	3.1710	0	37.0370	8	29.504	0	1152.865	0	13.2	4	4.2	4	-1E+10	1	-1E+10	1	-1E+10	1	-1E+10	1	-1E+10	1	-1E+10	1
4901784	192	C	10/06/2020	10:41	-133.384	43.538	0	1170.40	0	3.1650	0	37.0380	8	29.505	0	1157.797	0	13.3	4	4.2	4	-1E+10	1	-1E+10	1	-1E+10	1	-1E+10	1	-1E+10	1	-1E+10	1
4901784	192	C	10/06/2020	10:41	-133.384	43.538	0	1175.40	0	3.1520	0	37.0410	8	29.509	0	1162.729	0	13.4	4	4.2	4	-1E+10	1	-1E+10	1	-1E+10	1	-1E+10	1	-1E+10	1	-1E+10	1
4901784	192	C	10/06/2020	10:41	-133.384	43.538	0	1180.40	0	3.1420	0	37.0430	8	29.512	0	1167.662	0	13.5	4	4.3	4	-1E+10	1	-1E+10	1	-1E+10	1	-1E+10	1	-1E+10	1	-1E+10	1
4901784	192	C	10/06/2020	10:41	-133.384	43.538	0	1184.40	0	3.1350	0	37.0450	8	29.514	0	1171.607	0	13.6	4	4.3	4	-1E+10	1	-1E+10	1	-1E+10	1	-1E+10	1	-1E+10	1	-1E+10	1
4901784	192	C	10/06/2020	10:41	-133.384	43.538	0	1189.60	0	3.1260	0	37.0460	8	29.516	0	1176.737	0	13.7	4	4.3	4	-1E+10	1	-1E+10	1	-1E+10	1	-1E+10	1	-1E+10	1	-1E+10	1
4901784	192	C	10/06/2020	10:41	-133.384	43.538	0	1194.60	0	3.1190	0	37.0480	8	29.518	0	1181.668	0	13.9	4	4.4	4	-1E+10	1	-1E+10	1	-1E+10	1	-1E+10	1	-1E+10	1	-1E+10	1
4901784	192	C	10/06/2020	10:41	-133.384	43.538	0	1199.80	0	3.1070	0	37.0500	8	29.521	0	1186.798	0	14.0	4	4.4	4	-1E+10	1	-1E+10	1	-1E+10	1	-1E+10	1	-1E+10	1	-1E+10	1
4901784	192	C	10/06/2020	10:41	-133.384	43.538	0	1204.90	0	3.0950	0	37.0530	8	29.525	0	1191.828	0	14.1	4	4.5	4	-1E+10	1	-1E+10	1	-1E+10	1	-1E+10	1	-1E+10	1	-1E+10	1
4901784	192	C	10/06/2020	10:41	-133.384	43.538	0	1210.10	0	3.0880	0	37.0540	8	29.526	0	1196.957	0	14.2	4	4.5	4	-1E+10	1	-1E+10	1	-1E+10	1	-1E+10	1	-1E+10	1	-1E+10	1
4901784	192	C	10/06/2020	10:41	-133.384	43.538	0	1215.30	0	3.0850	0	37.0550	8	29.527	0	1202.085	0	14.4	4	4.5	4	-1E+10	1	-1E+10	1	-1E+10	1	-1E+10	1	-1E+10	1	-1E+10	1
4901784	192	C	10/06/2020	10:41	-133.384	43.538	0	1219.40	0	3.0760	0	37.0580	8	29.531	0	1206.129	0	14.5	4	4.6	4	-1E+10	1	-1E+10	1	-1E+10	1	-1E+10	1	-1E+10	1	-1E+10	1
4901784	192	C	10/06/2020	10:41	-133.384	43.538	0	1224.60	0	3.0620	0	37.0620	8	29.535	0	1211.257	0	14.7	4	4.6	4	-1E+10	1	-1E+10	1	-1E+10	1	-1E+10	1	-1E+10	1	-1E+10	1
4901784	192	C	10/06/2020	10:41	-133.384	43.538	0	1229.80	0	3.0510	0	37.0650	8	29.539	0	1216.386	0	14.9	4	4.7	4	-1E+10	1	-1E+10	1	-1E+10	1	-1E+10	1	-1E+10	1	-1E+10	1
4901784	192	C	10/06/2020	10:41	-133.384	43.538	0	1234.90	0	3.0370	0	37.0680	8	29.543	0	1221.415	0	15.1	4	4.8	4	-1E+10	1	-1E+10	1	-1E+10	1	-1E+10	1	-1E+10	1	-1E+10	1
4901784	192	C	10/06/2020	10:41	-133.384	43.538	0	1239.90	0	3.0200	0	37.0730	8	29.548	0	1226.346	0	15.2	4	4.8	4	-1E+10	1	-1E+10	1	-1E+10	1	-1E+10	1	-1E+10	1	-1E+10	1
4901784	192	C	10/06/2020	10:41	-133.384	43.538	0	1245.00	0	3.0110	0	37.0770	8	29.552	0	1231.375	0	15.4	4	4.9	4	-1E+10	1	-1E+10	1	-1E+10	1	-1E+10	1	-1E+10	1	-1E+10	1
4901784	192	C	10/06/2020	10:41	-133.384	43.538	0	1249.80	0	3.0080	0	37.0810	8	29.556	0	1236.109	0	15.6	4	4.9	4	-1E+10	1	-1E+10	1	-1E+10	1	-1E+10	1	-1E+10	1	-1E+10	1
4901784	192	C	10/06/2020	10:41	-133.384	43.538	0	1254.50	0	2.9990	0	37.0850	8	29.560	0	1240.743	0	15.7	4	5.0	4	-1E+10	1	-1E+10	1	-1E+10	1	-1E+10	1	-1E+10	1	-1E+10	1
4901784	192	C	10/06/2020	10:41	-133.384	43.538	0	1259.80	0	2.9850	0	37.0900	8	29.565	0	1245.970	0	15.9	4	5.0	4	-1E+10	1	-1E+10	1	-1E+10	1	-1E+10	1	-1E+10	1	-1E+10	1
4901784	192	C	10/06/2020	10:41	-133.384	43.538	0	1265.00	0	2.9680	0	37.0970	8	29.573	0	1251.097	0	16.1	4	5.1	4	-1E+10	1	-1E+10	1	-1E+10	1	-1E+10	1	-1E+10	1	-1E+10	1
4901784	192	C	10/06/2020	10:41	-133.384	43.538	0	1270.70	0	2.9550	0	37.1050	8	29.580	0	1256.717	0	16.4	4	5.2	4	-1E+10	1	-1E+10	1	-1E+10	1	-1E+10	1	-1E+10	1	-1E+10	1
4901784	192	C	10/06/2020	10:41	-133.384	43.538	0	1275.70	0	2.9410	0	37.1090	8	29.585	0	1261.647	0	16.6	4	5.2	4	-1E+10	1	-1E+10	1	-1E+10	1	-1E+10	1	-1E+10	1	-1E+10	1
4901784	192	C	10/06/2020	10:41	-133.384	43.538	0	1280.70	0	2.9320	0	37.1160	8	29.591	0	1266.577	0	16.8	4	5.3	4	-1E+10	1	-1E+10	1	-1E+10	1	-1E+10	1	-1E+10	1	-1E+10	1
4901784	192	C	10/06/2020	10:41	-133.384	43.538	0	1285.60	0	2.9260	0	37.1210	8	29.596	0	1271.409	0	17.0	4	5.3	4	-1E+10	1	-1E+10	1	-1E+10	1	-1E+10	1	-1E+10	1	-1E+10	1
4901784	192	C	10/06/2020	10:41	-133.384	43.538	0	1290.60	0	2.9200	0	37.1260	8	29.601	0	1276.338	0	17.2	4	5.4	4	-1E+10	1	-1E+10	1	-1E+10	1	-1E+10	1	-1E+10	1	-1E+10	1
4901784	192	C	10/06/2020	10:41	-133.384	43.538	0	1295.70	0	2.9110	0	37.1340	8	29.608	0	1281.366	0	17.4	4	5.5	4	-1E+10	1	-1E+10	1	-1E+10	1	-1E+10	1	-1E+10	1	-1E+10	1
4901784	192	C	10/06/2020	10:41	-133.384	43.538	0	1299.90	0	2.9070	0	37.1410	8	29.614	0	1285.507	0	17.5	4	5.5	4	-1E+10	1	-1E+10	1	-1E+10	1	-1E+10	1	-1E+10	1	-1E+10	1
4901784	192	C	10/06/2020	10:41	-133.384	43.538	0	1304.20	0	2.9070	0	37.1450	8	29.617	0	1289.746	0	17.7	4	5.6	4	-1E+10	1	-1E+10	1	-1E+10	1	-1E+10	1	-1E+10	1	-1E+10	1
4901784	192	C	10/06/2020	10:41	-133.384	43.538	0	1309.30	0	2.8990	0	37.1510	8	29.623	0	1294.774	0	17.9	4	5.6	4	-1E+10	1	-1E+10	1	-1E+10	1	-1E+10	1	-1E+10	1	-1E+10	1
4901784	192	C	10/06/2020	10:41	-133.384	43.538	0	1314.50	0	2.8920	0	37.1580	8	29.629	0	1299.900	0	18.1	4	5.7	4	-1E+10	1	-1E+10	1	-1E+10	1	-1E+10	1	-1E+10	1	-1E+10	1
4901784	192	C	10/06/2020	10:41	-133.384	43.538	0	1319.60	0	2.8790	0	37.1660	8	29.637	0	1304.928	0	18.4	4	5.8	4	-1E+10	1	-1E+10	1	-1E+10	1	-1E+10	1	-1E+10	1	-1E+10	1
4901784	192	C	10/06/2020	10:41	-133.384	43.538	0	1324.80	0	2.8710	0	37.1760	8	29.646	0	1310.054	0	18.6	4	5.8	4	-1E+10	1	-1E+10	1	-1E+10	1	-1E+10	1	-1E+10	1	-1E+10	1
4901784	192	C	10/06/2020	10:41	-133.384	43.538	0	1330.00	0	2.8610	0	37.1850	8	29.654	0	1315.180	0	18.8	4	5.9	4	-1E+10	1	-1E+10	1	-1E+10	1	-1E+10	1	-1E+10	1	-1E+10	1
4901784	192	C	10/06/2020	10:41	-133.384	43.538	0	1335.30	0	2.8550	0	37.1950	8	29.662	0	1320.404	0	19.0	4	6.0	4	-1E+10	1	-1E+10	1	-1E+10	1	-1E+10	1	-1E+10	1	-1E+10	1
4901784	192	C	10/06/2020	10:41	-133.384	43.538	0	1340.60	0	2.8450	0	37.2000	8	29.667	0	1325.628	0	19.1	4	6.0	4	-1E+10	1	-1E+10	1	-1E+10	1	-1E+10	1	-1E+10	1	-1E+10	1
4901784	192	C	10/06/2020	10:41	-133.384	43.538	0	1345.00	0	2.8370	0	37.2120	8	29.678	0	1329.965	0	19.3	4	6.1	4	-1E+10	1	-1E+10	1	-1E+10	1	-1E+10	1	-1E+10	1	-1E+10	1
4901784	192	C	10/06/2020	10:41	-133.384	43.538	0	1349.50	0	2.8260	0	37.2250	8	29.689	0	1334.401	0	19.5	4	6.1	4	-1E+10	1	-1E+10	1	-1E+10	1	-1E+10	1	-1E+10	1	-1E+10	1
4901784	192	C	10/06/2020	10:41	-133.384	43.538	0	1354.70	0	2.8150	0	37.2360	8	29.699	0	1339.526	0	19.8	4	6.2	4	-1E+10	1	-1E+10	1	-1E+10	1	-1E+10	1	-1E+10	1	-1E+10	1
4901784	192	C	10/06/2020	10:41	-133.384	43.538	0	1360.00	0	2.8030	0	37.2510	8	29.712	0	1344.750	0	20.0	4	6.3	4	-1E+10	1	-1E+10	1	-1E+10	1	-1E+10	1	-1E+10	1	-1E+10	1
4901784	192	C	10/06/2020	10:41	-133.384	43.538	0	1365.40	0	2.7910	0	37.2650	8	29.725	0	1350.072	0	20.2	4	6.3	4	-1E+10	1	-1E+10	1	-1E+10	1	-1E+10	1	-1E+10	1	-1E+10	1
4901784	192	C	10/06/2020	10:41	-133.384	43.538	0	1370.70	0	2.7820	0	37.2740	8	29.733	0	1355.296	0	20.4	4	6.4	4	-1E+10	1	-1E+10	1	-1E+10	1	-1E+10	1	-1E+10	1	-1E+10	1
4901784	192	C	10/06/2020	10:41	-133.384	43.538	0	1375.20	0	2.7730	0	37.2740	8	29.734	0	1359.730	0	20.6	4	6.5	4	-1E+10	1	-1E+10	1	-1E+10	1	-1E+10	1	-1E+10	1	-1E+10	1
4901784	192	C	10/06/2020	10:41	-133.384	43.538	0	1379.70	0	2.7640	0	37.2950	8	29.751	0	1364.165	0	20.9	4	6.6	4	-1E+10	1	-1E+10	1	-1E+10	1	-1E+10	1	-1E+10	1	-1E+10	1
4901784	192	C	10/06/2020	10:41	-133.384	43.538	0	1385.20	0	2.7550	0	37.3010	8	29.757	0	1369.586	0	21.2	4	6.6	4	-1E+10	1	-1E+10	1	-1E+10	1	-1E+10	1	-1E+10	1	-1E+10	1
4901784	192	C	10/06/2020	10:41	-133.384	43.538	0	1389.70	0	2.7490	0	37.3160	8	29.770	0	1374.020	0	21.4	4	6.7	4	-1E+10	1	-1E+10	1	-1E+10	1	-1E+10	1	-1E+10	1	-1E+10	1
4901784	192	C	10/06/2020	10:41	-133.384	43.538	0	1394.30	0	2.7410	0	37.3200	8	29.774	0	1378.553	0	21.6	4	6.8	4	-1E+10	1	-1E+10	1	-1E+10	1	-1E+10	1	-1E+10	1	-1E+10	1
4901784	192	C	10/06/2020	10:41	-133.384	43.538	0	1399.90	0	2.7340	0	37.3340	8	29.786	0	1384.072	0	21.9	4	6.9	4	-1E+10	1	-1E+10	1	-1E+10	1	-1E+10	1	-1E+10	1	-1E+10	1
4901784	192	C	10/06/2020	10:41	-133.384	43.538	0	1405.40	0	2.7210	0	37.3400	8	29.792	0	1389.491	0	22.2	4	6.9	4	-1E+10	1	-1E+10	1	-1E+10	1	-1E+10	1	-1E+10	1	-1E+10	1
4901784	192	C	10/06/2020	10:41	-133.384	43.538	0	1410.00	0	2.7190	0	37.3520	8	29.801	0	1394.024	0	22.4	4	7.0	4	-1E+10	1	-1E+10	1	-1E+10	1	-1E+10	1	-1E+10	1	-1E+10	1
4901784	192	C	10/06/2020	10:41	-133.384	43.538	0	1414.60	0	2.7050	0	37.3530	8	29.804	0	1398.557	0	22.7	4	7.1	4	-1E+10	1	-1E+10	1	-1E+10	1	-1E+10	1	-1E+10	1	-1E+10	1
4901784	192	C	10/06/2020	10:41	-133.384	43.538	0	1420.20	0	2.6940	0	37.3640	8	29.813	0	1404.075	0	23.1	4	7.2	4	-1E+10	1	-1E+10	1	-1E+10	1	-1E+10	1	-1E+10	1	-1E+10	1
4901784	192	C	10/06/2020	10:41	-133.384	43.538	0	1424.80	0	2.6750	0	37.3810	8	29.829	0	1408.607	0	23.5	4	7.4	4	-1E+10	1	-1E+10	1	-1E+10	1	-1E+10	1	-1E+10	1	-1E+10	1
4901784	192	C	10/06/2020	10:41	-133.384	43.538	0	1429.70	0	2.6650	0	37.3880	8	29.835	0	1413.435	0	23.7	4	7.4	4	-1E+10	1	-1E+10	1	-1E+10	1	-1E+10	1	-1E+10	1	-1E+10	1
4901784	192	C	10/06/2020	10:41	-133.384	43.538	0	1435.00	0	2.6530	0	37.3970	8	29.844	0	1418.657	0	24.0	4	7.5	4	-1E+10	1	-1E+10	1	-1E+10	1	-1E+10	1	-1E+10	1	-1E+10	1
4901784	192	C	10/06/2020	10:41	-133.384	43.538	0	1439.80	0	2.6430	0	37.3870	8	29.837	0	1423.386	0	24.2	4	7.6	4	-1E+10	1	-1E+10	1	-1E+10	1	-1E+10	1	-1E+10	1	-1E+10	1
4901784	192	C	10/06/2020	10:41	-133.384	43.538	0	1444.80	0	2.6400	0	37.3910	8	29.840	0	1428.312	0	24.4	4	7.6	4	-1E+10	1	-1E+10	1	-1E+10	1	-1E+10	1	-1E+10	1	-1E+10	1
4901784	192	C	10/06/2020	10:41	-133.384	43.538	0	1449.80	0	2.6320	0	37.3940	8	29.844	0	1433.238	0	24.7	4	7.7	4	-1E+10	1	-1E+10	1	-1E+10	1	-1E+10	1	-1E+10	1	-1E+10	1
4901784	192	C	10/06/2020	10:41	-133.384	43.538	0	1454.80	0	2.6260	0	37.4050	8	29.853	0	1438.164	0	25.0	4	7.8	4	-1E+10	1	-1E+10	1	-1E+10	1	-1E+10	1	-1E+10	1	-1E+10	1
4901784	192	C	10/06/2020	10:41	-133.384	43.538	0	1459.80	0	2.6160	0	37.3940	8	29.845	0	1443.090	0	25.5	4	8.0	4	-1E+10	1	-1E+10	1	-1E+10	1	-1E+10	1	-1E+10	1	-1E+10	1
4901784	192	C	10/06/2020	10:41	-133.384	43.538	0	1464.80	0	2.5970	0	37.4000	8	29.852	0	1448.015	0	26.0	4	8.1	4	-1E+10	1	-1E+10	1	-1E+10	1	-1E+10	1	-1E+10	1	-1E+10	1
4901784	192	C	10/06/2020	10:41	-133.384	43.538	0	1469.90	0	2.5830	0	37.4130	8	29.863	0	1453.039	0	26.2	4	8.2	4	-1E+10	1	-1E+10	1	-1E+10	1	-1E+10	1	-1E+10	1	-1E+10	1
4901784	192	C	10/06/2020	10:41	-133.384	43.538	0	1475.10	0	2.5750	0	37.4170	8	29.867	0	1458.162	0	26.5	4	8.3	4	-1E+10	1	-1E+10	1	-1E+10	1	-1E+10	1	-1E+10	1	-1E+10	1
4901784	192	C	10/06/2020	10:41	-133.384	43.538	0	1480.20	0	2.5690	0	37.4210	8	29.871	0	1463.186	0	26.7	4	8.3	4	-1E+10	1	-1E+10	1	-1E+10	1	-1E+10	1	-1E+10	1	-1E+10	1
4901784	192	C	10/06/2020	10:41	-133.384	43.538	0	1485.40	0	2.5640	0	37.4280	8	29.877	0	1468.308	0	26.8	4	8.4	4	-1E+10	1	-1E+10	1	-1E+10	1	-1E+10	1	-1E+10	1	-1E+10	1
4901784	192	C	10/06/2020	10:41	-133.384	43.538	0	1490.70	0	2.5600	0	37.4320	8	29.881	0	1473.528	0	26.9	4	8.4	4	-1E+10	1	-1E+10	1	-1E+10	1	-1E+10	1	-1E+10	1	-1E+10	1
4901784	192	C	10/06/2020	10:41	-133.384	43.538	0	1494.90	0	2.5590	0	37.4330	8	29.882	0	1477.665	0	27.0	4	8.4	4	-1E+10	1	-1E+10	1	-1E+10	1	-1E+10	1	-1E+10	1	-1E+10	1
4901784	192	C	10/06/2020	10:41	-133.384	43.538	0	1499.30	0	2.5550	0	37.4260	8	29.877	0	1481.999	0	27.1	4	8.5	4	-1E+10	1	-1E+10	1	-1E+10	1	-1E+10	1	-1E+10	1	-1E+10	1
4901784	192	C	10/06/2020	10:41	-133.384	43.538	0	1504.50	0	2.5440	0	37.4310	8	29.882	0	1487.121	0	27.4	4	8.6	4	-1E+10	1	-1E+10	1	-1E+10	1	-1E+10	1	-1E+10	1	-1E+10	1
4901784	192	C	10/06/2020	10:41	-133.384	43.538	0	1509.70	0	2.5300	0	37.4340	8	29.885	0	1492.242	0	27.8	4	8.7	4	-1E+10	1	-1E+10	1	-1E+10	1	-1E+10	1	-1E+10	1	-1E+10	1
4901784	192	C	10/06/2020	10:41	-133.384	43.538	0	1515.00	0	2.5140	0	37.4410	8	29.893	0	1497.462	0	28.1	4	8.8	4	-1E+10	1	-1E+10	1	-1E+10	1	-1E+10	1	-1E+10	1	-1E+10	1
4901784	192	C	10/06/2020	10:41	-133.384	43.538	0	1520.30	0	2.5100	0	37.4450	8	29.896	0	1502.682	0	28.2	4	8.8	4	-1E+10	1	-1E+10	1	-1E+10	1	-1E+10	1	-1E+10	1	-1E+10	1
4901784	192	C	10/06/2020	10:41	-133.384	43.538	0	1525.50	0	2.5060	0	37.4380	8	29.891	0	1507.803	0	28.5	4	8.9	4	-1E+10	1	-1E+10	1	-1E+10	1	-1E+10	1	-1E+10	1	-1E+10	1
4901784	192	C	10/06/2020	10:41	-133.384	43.538	0	1530.00	0	2.4990	0	37.4380	8	29.892	0	1512.235	0	28.7	4	9.0	4	-1E+10	1	-1E+10	1	-1E+10	1	-1E+10	1	-1E+10	1	-1E+10	1
4901784	192	C	10/06/2020	10:41	-133.384	43.538	0	1534.50	0	2.4890	0	37.4420	8	29.896	0	1516.667	0	29.2	4	9.1	4	-1E+10	1	-1E+10	1	-1E+10	1	-1E+10	1	-1E+10	1	-1E+10	1
4901784	192	C	10/06/2020	10:41	-133.384	43.538	0	1540.00	0	2.4840	0	37.4470	8	29.900	0	1522.083	0	29.8	4	9.3	4	-1E+10	1	-1E+10	1	-1E+10	1	-1E+10	1	-1E+10	1	-1E+10	1
4901784	192	C	10/06/2020	10:41	-133.384	43.538	0	1544.60	0	2.4820	0	37.4570	8	29.908	0	1526.613	0	30.0	4	9.4	4	-1E+10	1	-1E+10	1	-1E+10	1	-1E+10	1	-1E+10	1	-1E+10	1
4901784	192	C	10/06/2020	10:41	-133.384	43.538	0	1549.90	0	2.4790	0	37.4490	8	29.902	0	1531.832	0	30.2	4	9.4	4	-1E+10	1	-1E+10	1	-1E+10	1	-1E+10	1	-1E+10	1	-1E+10	1
4901784	192	C	10/06/2020	10:41	-133.384	43.538	0	1555.50	0	2.4630	0	37.4540	8	29.908	0	1537.346	0	30.2	4	9.4	4	-1E+10	1	-1E+10	1	-1E+10	1	-1E+10	1	-1E+10	1	-1E+10	1
4901784	192	C	10/06/2020	10:41	-133.384	43.538	0	1560.40	0	2.4490	0	37.4560	8	29.911	0	1542.171	0	30.4	4	9.5	4	-1E+10	1	-1E+10	1	-1E+10	1	-1E+10	1	-1E+10	1	-1E+10	1
4901784	192	C	10/06/2020	10:41	-133.384	43.538	0	1565.20	0	2.4430	0	37.4590	8	29.914	0	1546.898	0	30.5	4	9.5	4	-1E+10	1	-1E+10	1	-1E+10	1	-1E+10	1	-1E+10	1	-1E+10	1
4901784	192	C	10/06/2020	10:41	-133.384	43.538	0	1570.20	0	2.4370	0	37.4540	8	29.910	0	1551.821	0	30.7	4	9.6	4	-1E+10	1	-1E+10	1	-1E+10	1	-1E+10	1	-1E+10	1	-1E+10	1
4901784	192	C	10/06/2020	10:41	-133.384	43.538	0	1575.20	0	2.4260	0	37.4520	8	29.910	0	1556.744	0	31.0	4	9.7	4	-1E+10	1	-1E+10	1	-1E+10	1	-1E+10	1	-1E+10	1	-1E+10	1
4901784	192	C	10/06/2020	10:41	-133.384	43.538	0	1580.40	0	2.4180	0	37.4530	8	29.911	0	1561.864	0	31.4	4	9.8	4	-1E+10	1	-1E+10	1	-1E+10	1	-1E+10	1	-1E+10	1	-1E+10	1
4901784	192	C	10/06/2020	10:41	-133.384	43.538	0	1585.50	0	2.4060	0	37.4590	8	29.917	0	1566.885	0	31.8	4	9.9	4	-1E+10	1	-1E+10	1	-1E+10	1	-1E+10	1	-1E+10	1	-1E+10	1
4901784	192	C	10/06/2020	10:41	-133.384	43.538	0	1590.70	0	2.3980	0	37.4490	8	29.910	0	1572.005	0	32.1	4	10.0	4	-1E+10	1	-1E+10	1	-1E+10	1	-1E+10	1	-1E+10	1	-1E+10	1
4901784	192	C	10/06/2020	10:41	-133.384	43.538	0	1595.00	0	2.3900	0	37.5020	8	29.953	0	1576.238	0	32.4	4	10.1	4	-1E+10	1	-1E+10	1	-1E+10	1	-1E+10	1	-1E+10	1	-1E+10	1
4901784	192	C	10/06/2020	10:41	-133.384	43.538	0	1599.40	0	2.3820	0	37.5900	8	30.025	0	1580.570	0	32.7	4	10.2	4	-1E+10	1	-1E+10	1	-1E+10	1	-1E+10	1	-1E+10	1	-1E+10	1
4901784	192	C	10/06/2020	10:41	-133.384	43.538	0	1604.60	0	2.3700	0	37.6190	8	30.049	0	1585.690	0	33.1	4	10.3	4	-1E+10	1	-1E+10	1	-1E+10	1	-1E+10	1	-1E+10	1	-1E+10	1
4901784	192	C	10/06/2020	10:41	-133.384	43.538	0	1609.90	0	2.3580	0	37.6410	8	30.068	0	1590.907	0	33.4	4	10.4	4	-1E+10	1	-1E+10	1	-1E+10	1	-1E+10	1	-1E+10	1	-1E+10	1
4901784	192	C	10/06/2020	10:41	-133.384	43.538	0	1615.20	0	2.3500	0	37.6590	8	30.083	0	1596.125	0	33.7	4	10.5	4	-1E+10	1	-1E+10	1	-1E+10	1	-1E+10	1	-1E+10	1	-1E+10	1
4901784	192	C	10/06/2020	10:41	-133.384	43.538	0	1620.50	0	2.3450	0	37.6740	8	30.095	0	1601.342	0	34.0	4	10.6	4	-1E+10	1	-1E+10	1	-1E+10	1	-1E+10	1	-1E+10	1	-1E+10	1
4901784	192	C	10/06/2020	10:41	-133.384	43.538	0	1624.90	0	2.3440	0	37.6840	8	30.104	0	1605.673	0	34.2	4	10.6	4	-1E+10	1	-1E+10	1	-1E+10	1	-1E+10	1	-1E+10	1	-1E+10	1
4901784	192	C	10/06/2020	10:41	-133.384	43.538	0	1629.30	0	2.3360	0	37.6960	8	30.114	0	1610.005	0	34.6	4	10.8	4	-1E+10	1	-1E+10	1	-1E+10	1	-1E+10	1	-1E+10	1	-1E+10	1
4901784	192	C	10/06/2020	10:41	-133.384	43.538	0	1634.70	0	2.3240	0	37.7070	8	30.124	0	1615.320	0	35.0	4	10.9	4	-1E+10	1	-1E+10	1	-1E+10	1	-1E+10	1	-1E+10	1	-1E+10	1
4901784	192	C	10/06/2020	10:41	-133.384	43.538	0	1640.10	0	2.3140	0	37.7140	8	30.130	0	1620.635	0	35.3	4	11.0	4	-1E+10	1	-1E+10	1	-1E+10	1	-1E+10	1	-1E+10	1	-1E+10	1
4901784	192	C	10/06/2020	10:41	-133.384	43.538	0	1645.50	0	2.3090	0	37.7160	8	30.132	0	1625.951	0	35.5	4	11.1	4	-1E+10	1	-1E+10	1	-1E+10	1	-1E+10	1	-1E+10	1	-1E+10	1
4901784	192	C	10/06/2020	10:41	-133.384	43.538	0	1650.10	0	2.3060	0	37.7180	8	30.134	0	1630.478	0	35.7	4	11.1	4	-1E+10	1	-1E+10	1	-1E+10	1	-1E+10	1	-1E+10	1	-1E+10	1
4901784	192	C	10/06/2020	10:41	-133.384	43.538	0	1654.60	0	2.3020	0	37.7210	8	30.137	0	1634.907	0	36.0	4	11.2	4	-1E+10	1	-1E+10	1	-1E+10	1	-1E+10	1	-1E+10	1	-1E+10	1
4901784	192	C	10/06/2020	10:41	-133.384	43.538	0	1660.20	0	2.2960	0	37.7230	8	30.139	0	1640.419	0	36.3	4	11.3	4	-1E+10	1	-1E+10	1	-1E+10	1	-1E+10	1	-1E+10	1	-1E+10	1
4901784	192	C	10/06/2020	10:41	-133.384	43.538	0	1664.80	0	2.2880	0	37.7280	8	30.144	0	1644.946	0	36.6	4	11.4	4	-1E+10	1	-1E+10	1	-1E+10	1	-1E+10	1	-1E+10	1	-1E+10	1
4901784	192	C	10/06/2020	10:41	-133.384	43.538	0	1669.40	0	2.2850	0	37.7290	8	30.145	0	1649.474	0	36.8	4	11.4	4	-1E+10	1	-1E+10	1	-1E+10	1	-1E+10	1	-1E+10	1	-1E+10	1
4901784	192	C	10/06/2020	10:41	-133.384	43.538	0	1675.00	0	2.2790	0	37.7310	8	30.147	0	1654.985	0	37.1	4	11.6	4	-1E+10	1	-1E+10	1	-1E+10	1	-1E+10	1	-1E+10	1	-1E+10	1
4901784	192	C	10/06/2020	10:41	-133.384	43.538	0	1680.50	0	2.2710	0	37.7340	8	30.151	0	1660.398	0	37.6	4	11.7	4	-1E+10	1	-1E+10	1	-1E+10	1	-1E+10	1	-1E+10	1	-1E+10	1
4901784	192	C	10/06/2020	10:41	-133.384	43.538	0	1685.00	0	2.2620	0	37.7360	8	30.153	0	1664.826	0	38.0	4	11.8	4	-1E+10	1	-1E+10	1	-1E+10	1	-1E+10	1	-1E+10	1	-1E+10	1
4901784	192	C	10/06/2020	10:41	-133.384	43.538	0	1690.30	0	2.2540	0	37.7390	8	30.156	0	1670.042	0	38.3	4	11.9	4	-1E+10	1	-1E+10	1	-1E+10	1	-1E+10	1	-1E+10	1	-1E+10	1
4901784	192	C	10/06/2020	10:41	-133.384	43.538	0	1695.40	0	2.2480	0	37.7400	8	30.158	0	1675.061	0	38.7	4	12.0	4	-1E+10	1	-1E+10	1	-1E+10	1	-1E+10	1	-1E+10	1	-1E+10	1
4901784	192	C	10/06/2020	10:41	-133.384	43.538	0	1700.20	0	2.2430	0	37.7420	8	30.160	0	1679.784	0	38.9	4	12.1	4	-1E+10	1	-1E+10	1	-1E+10	1	-1E+10	1	-1E+10	1	-1E+10	1
4901784	192	C	10/06/2020	10:41	-133.384	43.538	0	1705.10	0	2.2410	0	37.7420	8	30.160	0	1684.606	0	39.1	4	12.1	4	-1E+10	1	-1E+10	1	-1E+10	1	-1E+10	1	-1E+10	1	-1E+10	1
4901784	192	C	10/06/2020	10:41	-133.384	43.538	0	1709.90	0	2.2360	0	37.7440	8	30.162	0	1689.329	0	39.2	4	12.2	4	-1E+10	1	-1E+10	1	-1E+10	1	-1E+10	1	-1E+10	1	-1E+10	1
4901784	192	C	10/06/2020	10:41	-133.384	43.538	0	1714.90	0	2.2340	0	37.7450	8	30.163	0	1694.249	0	39.4	4	12.2	4	-1E+10	1	-1E+10	1	-1E+10	1	-1E+10	1	-1E+10	1	-1E+10	1
4901784	192	C	10/06/2020	10:41	-133.384	43.538	0	1719.90	0	2.2320	0	37.7460	8	30.164	0	1699.169	0	39.6	4	12.3	4	-1E+10	1	-1E+10	1	-1E+10	1	-1E+10	1	-1E+10	1	-1E+10	1
4901784	192	C	10/06/2020	10:41	-133.384	43.538	0	1724.90	0	2.2300	0	37.7460	8	30.164	0	1704.088	0	39.8	4	12.4	4	-1E+10	1	-1E+10	1	-1E+10	1	-1E+10	1	-1E+10	1	-1E+10	1
4901784	192	C	10/06/2020	10:41	-133.384	43.538	0	1729.90	0	2.2280	0	37.7470	8	30.165	0	1709.008	0	40.1	4	12.5	4	-1E+10	1	-1E+10	1	-1E+10	1	-1E+10	1	-1E+10	1	-1E+10	1
4901784	192	C	10/06/2020	10:41	-133.384	43.538	0	1735.00	0	2.2250	0	37.7470	8	30.166	0	1714.026	0	40.3	4	12.5	4	-1E+10	1	-1E+10	1	-1E+10	1	-1E+10	1	-1E+10	1	-1E+10	1
4901784	192	C	10/06/2020	10:41	-133.384	43.538	0	1740.00	0	2.2210	0	37.7470	8	30.166	0	1718.945	0	40.7	4	12.6	4	-1E+10	1	-1E+10	1	-1E+10	1	-1E+10	1	-1E+10	1	-1E+10	1
4901784	192	C	10/06/2020	10:41	-133.384	43.538	0	1745.20	0	2.2140	0	37.7480	8	30.167	0	1724.061	0	41.0	4	12.7	4	-1E+10	1	-1E+10	1	-1E+10	1	-1E+10	1	-1E+10	1	-1E+10	1
4901784	192	C	10/06/2020	10:41	-133.384	43.538	0	1750.30	0	2.2080	0	37.7490	8	30.169	0	1729.078	0	41.3	4	12.8	4	-1E+10	1	-1E+10	1	-1E+10	1	-1E+10	1	-1E+10	1	-1E+10	1
4901784	192	C	10/06/2020	10:41	-133.384	43.538	0	1755.40	0	2.2040	0	37.7500	8	30.170	0	1734.096	0	41.5	4	12.9	4	-1E+10	1	-1E+10	1	-1E+10	1	-1E+10	1	-1E+10	1	-1E+10	1
4901784	192	C	10/06/2020	10:41	-133.384	43.538	0	1760.60	0	2.2020	0	37.7500	8	30.170	0	1739.211	0	41.8	4	13.0	4	-1E+10	1	-1E+10	1	-1E+10	1	-1E+10	1	-1E+10	1	-1E+10	1
4901784	192	C	10/06/2020	10:41	-133.384	43.538	0	1764.90	0	2.1970	0	37.7510	8	30.171	0	1743.442	0	42.1	4	13.1	4	-1E+10	1	-1E+10	1	-1E+10	1	-1E+10	1	-1E+10	1	-1E+10	1
4901784	192	C	10/06/2020	10:41	-133.384	43.538	0	1769.20	0	2.1920	0	37.7510	8	30.172	0	1747.671	0	42.4	4	13.2	4	-1E+10	1	-1E+10	1	-1E+10	1	-1E+10	1	-1E+10	1	-1E+10	1
4901784	192	C	10/06/2020	10:41	-133.384	43.538	0	1774.40	0	2.1840	0	37.7510	8	30.173	0	1752.787	0	42.8	4	13.3	4	-1E+10	1	-1E+10	1	-1E+10	1	-1E+10	1	-1E+10	1	-1E+10	1
4901784	192	C	10/06/2020	10:41	-133.384	43.538	0	1779.60	0	2.1770	0	37.7510	8	30.173	0	1757.902	0	43.1	4	13.4	4	-1E+10	1	-1E+10	1	-1E+10	1	-1E+10	1	-1E+10	1	-1E+10	1
4901784	192	C	10/06/2020	10:41	-133.384	43.538	0	1784.80	0	2.1700	0	37.7520	8	30.175	0	1763.017	0	43.5	4	13.5	4	-1E+10	1	-1E+10	1	-1E+10	1	-1E+10	1	-1E+10	1	-1E+10	1
4901784	192	C	10/06/2020	10:41	-133.384	43.538	0	1790.20	0	2.1660	0	37.7530	8	30.176	0	1768.329	0	43.9	4	13.6	4	-1E+10	1	-1E+10	1	-1E+10	1	-1E+10	1	-1E+10	1	-1E+10	1
4901784	192	C	10/06/2020	10:41	-133.384	43.538	0	1795.50	0	2.1560	0	37.7540	8	30.178	0	1773.542	0	44.4	4	13.8	4	-1E+10	1	-1E+10	1	-1E+10	1	-1E+10	1	-1E+10	1	-1E+10	1
4901784	192	C	10/06/2020	10:41	-133.384	43.538	0	1799.90	0	2.1480	0	37.7550	8	30.179	0	1777.870	0	44.8	4	13.9	4	-1E+10	1	-1E+10	1	-1E+10	1	-1E+10	1	-1E+10	1	-1E+10	1
4901784	192	C	10/06/2020	10:41	-133.384	43.538	0	1804.30	0	2.1400	0	37.7560	8	30.181	0	1782.197	0	45.2	4	14.0	4	-1E+10	1	-1E+10	1	-1E+10	1	-1E+10	1	-1E+10	1	-1E+10	1
4901784	192	C	10/06/2020	10:41	-133.384	43.538	0	1809.70	0	2.1290	0	37.7560	8	30.182	0	1787.508	0	45.6	4	14.1	4	-1E+10	1	-1E+10	1	-1E+10	1	-1E+10	1	-1E+10	1	-1E+10	1
4901784	192	C	10/06/2020	10:41	-133.384	43.538	0	1815.10	0	2.1260	0	37.7560	8	30.182	0	1792.819	0	45.8	4	14.2	4	-1E+10	1	-1E+10	1	-1E+10	1	-1E+10	1	-1E+10	1	-1E+10	1
4901784	192	C	10/06/2020	10:41	-133.384	43.538	0	1820.50	0	2.1210	0	37.7550	8	30.182	0	1798.130	0	46.2	4	14.3	4	-1E+10	1	-1E+10	1	-1E+10	1	-1E+10	1	-1E+10	1	-1E+10	1
4901784	192	C	10/06/2020	10:41	-133.384	43.538	0	1825.00	0	2.1130	0	37.7570	8	30.184	0	1802.556	0	46.5	4	14.4	4	-1E+10	1	-1E+10	1	-1E+10	1	-1E+10	1	-1E+10	1	-1E+10	1
4901784	192	C	10/06/2020	10:41	-133.384	43.538	0	1829.50	0	2.1090	0	37.7560	8	30.184	0	1806.981	0	46.7	4	14.5	4	-1E+10	1	-1E+10	1	-1E+10	1	-1E+10	1	-1E+10	1	-1E+10	1
4901784	192	C	10/06/2020	10:41	-133.384	43.538	0	1834.90	0	2.1030	0	37.7570	8	30.185	0	1812.292	0	46.9	4	14.5	4	-1E+10	1	-1E+10	1	-1E+10	1	-1E+10	1	-1E+10	1	-1E+10	1
4901784	192	C	10/06/2020	10:41	-133.384	43.538	0	1840.30	0	2.1000	0	37.7570	8	30.185	0	1817.602	0	47.1	4	14.6	4	-1E+10	1	-1E+10	1	-1E+10	1	-1E+10	1	-1E+10	1	-1E+10	1
4901784	192	C	10/06/2020	10:41	-133.384	43.538	0	1844.90	0	2.0970	0	37.7570	8	30.186	0	1822.126	0	47.3	4	14.6	4	-1E+10	1	-1E+10	1	-1E+10	1	-1E+10	1	-1E+10	1	-1E+10	1
4901784	192	C	10/06/2020	10:41	-133.384	43.538	0	1849.40	0	2.0950	0	37.7570	8	30.186	0	1826.551	0	47.4	4	14.7	4	-1E+10	1	-1E+10	1	-1E+10	1	-1E+10	1	-1E+10	1	-1E+10	1
4901784	192	C	10/06/2020	10:41	-133.384	43.538	0	1854.70	0	2.0920	0	37.7570	8	30.186	0	1831.763	0	47.7	4	14.8	4	-1E+10	1	-1E+10	1	-1E+10	1	-1E+10	1	-1E+10	1	-1E+10	1
4901784	192	C	10/06/2020	10:41	-133.384	43.538	0	1860.10	0	2.0900	0	37.7560	8	30.185	0	1837.073	0	48.1	4	14.9	4	-1E+10	1	-1E+10	1	-1E+10	1	-1E+10	1	-1E+10	1	-1E+10	1
4901784	192	C	10/06/2020	10:41	-133.384	43.538	0	1865.50	0	2.0840	0	37.7580	8	30.188	0	1842.382	0	48.8	4	15.1	4	-1E+10	1	-1E+10	1	-1E+10	1	-1E+10	1	-1E+10	1	-1E+10	1
4901784	192	C	10/06/2020	10:41	-133.384	43.538	0	1870.30	0	2.0730	0	37.7600	8	30.190	0	1847.102	0	49.3	4	15.2	4	-1E+10	1	-1E+10	1	-1E+10	1	-1E+10	1	-1E+10	1	-1E+10	1
4901784	192	C	10/06/2020	10:41	-133.384	43.538	0	1875.20	0	2.0670	0	37.7610	8	30.192	0	1851.920	0	49.5	4	15.3	4	-1E+10	1	-1E+10	1	-1E+10	1	-1E+10	1	-1E+10	1	-1E+10	1
4901784	192	C	10/06/2020	10:41	-133.384	43.538	0	1880.10	0	2.0630	0	37.7610	8	30.192	0	1856.738	0	49.8	4	15.4	4	-1E+10	1	-1E+10	1	-1E+10	1	-1E+10	1	-1E+10	1	-1E+10	1
4901784	192	C	10/06/2020	10:41	-133.384	43.538	0	1885.00	0	2.0610	0	37.7610	8	30.192	0	1861.555	0	50.1	4	15.5	4	-1E+10	1	-1E+10	1	-1E+10	1	-1E+10	1	-1E+10	1	-1E+10	1
4901784	192	C	10/06/2020	10:41	-133.384	43.538	0	1889.90	0	2.0540	0	37.7620	8	30.194	0	1866.373	0	50.7	4	15.7	4	-1E+10	1	-1E+10	1	-1E+10	1	-1E+10	1	-1E+10	1	-1E+10	1
4901784	192	C	10/06/2020	10:41	-133.384	43.538	0	1894.80	0	2.0460	0	37.7650	8	30.197	0	1871.191	0	51.0	4	15.8	4	-1E+10	1	-1E+10	1	-1E+10	1	-1E+10	1	-1E+10	1	-1E+10	1
4901784	192	C	10/06/2020	10:41	-133.384	43.538	0	1899.70	0	2.0430	0	37.7650	8	30.197	0	1876.008	0	51.2	4	15.9	4	-1E+10	1	-1E+10	1	-1E+10	1	-1E+10	1	-1E+10	1	-1E+10	1
4901784	192	C	10/06/2020	10:41	-133.384	43.538	0	1904.70	0	2.0410	0	37.7650	8	30.197	0	1880.923	0	51.4	4	15.9	4	-1E+10	1	-1E+10	1	-1E+10	1	-1E+10	1	-1E+10	1	-1E+10	1
4901784	192	C	10/06/2020	10:41	-133.384	43.538	0	1909.70	0	2.0360	0	37.7650	8	30.198	0	1885.839	0	51.6	4	15.9	4	-1E+10	1	-1E+10	1	-1E+10	1	-1E+10	1	-1E+10	1	-1E+10	1
4901784	192	C	10/06/2020	10:41	-133.384	43.538	0	1914.80	0	2.0350	0	37.7650	8	30.198	0	1890.853	0	51.8	4	16.0	4	-1E+10	1	-1E+10	1	-1E+10	1	-1E+10	1	-1E+10	1	-1E+10	1
4901784	192	C	10/06/2020	10:41	-133.384	43.538	0	1919.90	0	2.0340	0	37.7660	8	30.199	0	1895.866	0	52.0	4	16.1	4	-1E+10	1	-1E+10	1	-1E+10	1	-1E+10	1	-1E+10	1	-1E+10	1
4901784	192	C	10/06/2020	10:41	-133.384	43.538	0	1924.90	0	2.0280	0	37.7670	8	30.200	0	1900.781	0	52.4	4	16.2	4	-1E+10	1	-1E+10	1	-1E+10	1	-1E+10	1	-1E+10	1	-1E+10	1
4901784	192	C	10/06/2020	10:41	-133.384	43.538	0	1930.00	0	2.0240	0	37.7680	8	30.201	0	1905.794	0	52.6	4	16.3	4	-1E+10	1	-1E+10	1	-1E+10	1	-1E+10	1	-1E+10	1	-1E+10	1
4901784	192	C	10/06/2020	10:41	-133.384	43.538	0	1935.10	0	2.0200	0	37.7680	8	30.202	0	1910.808	0	52.9	4	16.3	4	-1E+10	1	-1E+10	1	-1E+10	1	-1E+10	1	-1E+10	1	-1E+10	1
4901784	192	C	10/06/2020	10:41	-133.384	43.538	0	1940.20	0	2.0150	0	37.7690	8	30.203	0	1915.821	0	53.1	4	16.4	4	-1E+10	1	-1E+10	1	-1E+10	1	-1E+10	1	-1E+10	1	-1E+10	1
4901784	192	C	10/06/2020	10:41	-133.384	43.538	0	1945.20	0	2.0120	0	37.7680	8	30.202	0	1920.735	0	53.3	4	16.5	4	-1E+10	1	-1E+10	1	-1E+10	1	-1E+10	1	-1E+10	1	-1E+10	1
4901784	192	C	10/06/2020	10:41	-133.384	43.538	0	1950.20	0	2.0090	0	37.7670	8	30.202	0	1925.650	0	53.5	4	16.5	4	-1E+10	1	-1E+10	1	-1E+10	1	-1E+10	1	-1E+10	1	-1E+10	1
4901784	192	C	10/06/2020	10:41	-133.384	43.538	0	1955.30	0	2.0060	0	37.7670	8	30.202	0	1930.663	0	53.7	4	16.6	4	-1E+10	1	-1E+10	1	-1E+10	1	-1E+10	1	-1E+10	1	-1E+10	1
4901784	192	C	10/06/2020	10:41	-133.384	43.538	0	1960.30	0	2.0040	0	37.7670	8	30.202	0	1935.577	0	54.1	4	16.7	4	-1E+10	1	-1E+10	1	-1E+10	1	-1E+10	1	-1E+10	1	-1E+10	1
4901784	192	C	10/06/2020	10:41	-133.384	43.538	0	1965.30	0	1.9970	0	37.7690	8	30.205	0	1940.491	0	54.6	4	16.9	4	-1E+10	1	-1E+10	1	-1E+10	1	-1E+10	1	-1E+10	1	-1E+10	1
4901784	192	C	10/06/2020	10:41	-133.384	43.538	0	1970.40	0	1.9920	0	37.7680	8	30.204	0	1945.503	0	55.0	4	17.0	4	-1E+10	1	-1E+10	1	-1E+10	1	-1E+10	1	-1E+10	1	-1E+10	1
4901784	192	C	10/06/2020	10:41	-133.384	43.538	0	1975.50	0	1.9860	0	37.7680	8	30.205	0	1950.515	0	55.4	4	17.1	4	-1E+10	1	-1E+10	1	-1E+10	1	-1E+10	1	-1E+10	1	-1E+10	1
4901784	192	C	10/06/2020	10:41	-133.384	43.538	0	1980.60	0	1.9780	0	37.7710	8	30.208	0	1955.528	0	55.7	4	17.2	4	-1E+10	1	-1E+10	1	-1E+10	1	-1E+10	1	-1E+10	1	-1E+10	1
4901784	192	C	10/06/2020	10:41	-133.384	43.538	0	1985.60	0	1.9730	0	37.7710	8	30.209	0	1960.441	0	55.9	4	17.3	4	-1E+10	1	-1E+10	1	-1E+10	1	-1E+10	1	-1E+10	1	-1E+10	1
4901784	192	C	10/06/2020	10:41	-133.384	43.538	0	1990.70	0	1.9720	0	37.7710	8	30.209	0	1965.453	0	56.0	4	17.3	4	-1E+10	1	-1E+10	1	-1E+10	1	-1E+10	1	-1E+10	1	-1E+10	1
4901784	192	C	10/06/2020	10:41	-133.384	43.538	0	1995.70	0	1.9710	0	37.7710	8	30.209	0	1970.367	0	56.3	4	17.4	4	-1E+10	1	-1E+10	1	-1E+10	1	-1E+10	1	-1E+10	1	-1E+10	1
4901784	192	C	10/06/2020	10:41	-133.384	43.538	0	2000.00	0	1.9660	0	37.7710	8	30.209	0	1974.592	0	56.5	4	17.4	4	-1E+10	1	-1E+10	1	-1E+10	1	-1E+10	1	-1E+10	1	-1E+10	1
4901784	192	C	10/06/2020	10:41	-133.384	43.538	0	2004.80	0	1.9640	0	37.7710	8	30.209	0	1979.309	0	56.8	4	17.5	4	-1E+10	1	-1E+10	1	-1E+10	1	-1E+10	1	-1E+10	1	-1E+10	1
4901784	192	C	10/06/2020	10:41	-133.384	43.538	0	2010.20	0	1.9560	0	37.7720	8	30.211	0	1984.615	0	57.2	4	17.6	4	-1E+10	1	-1E+10	1	-1E+10	1	-1E+10	1	-1E+10	1	-1E+10	1
4901784	192	C	10/06/2020	10:41	-133.384	43.538	0	2015.50	0	1.9540	0	37.7710	8	30.210	0	1989.823	0	57.3	4	17.7	4	-1E+10	1	-1E+10	1	-1E+10	1	-1E+10	1	-1E+10	1	-1E+10	1
4901784	192	C	10/06/2020	10:41	-133.384	43.538	0	2019.70	0	1.9520	0	37.7670	8	30.207	0	1993.950	0	56.3	4	17.4	4	-1E+10	1	-1E+10	1	-1E+10	1	-1E+10	1	-1E+10	1	-1E+10	1
4901784	192	C	10/06/2020	10:41	-133.384	43.538	0																										
4901784	193	C	10/16/2020	10:47	-133.485	43.565	0	2.50	0	18.1030	0	35.2830	8	25.465	0	2.480	0	224.8	4	96.5	4	-1E+10	1	-1E+10	1	-1E+10	1	-1E+10	1	-1E+10	1	-1E+10	1
4901784	193	C	10/16/2020	10:47	-133.485	43.565	0	4.20	0	18.1020	0	35.2830	8	25.465	0	4.166	0	224.9	4	96.5	4	-1E+10	1	-1E+10	1	-1E+10	1	-1E+10	1	-1E+10	1	-1E+10	1
4901784	193	C	10/16/2020	10:47	-133.485	43.565	0	6.00	0	18.1050	0	35.2840	8	25.465	0	5.952	0	224.6	4	96.4	4	-1E+10	1	-1E+10	1	-1E+10	1	-1E+10	1	-1E+10	1	-1E+10	1
4901784	193	C	10/16/2020	10:47	-133.485	43.565	0	7.70	0	18.1010	0	35.2850	8	25.467	0	7.638	0	224.5	4	96.3	4	-1E+10	1	-1E+10	1	-1E+10	1	-1E+10	1	-1E+10	1	-1E+10	1
4901784	193	C	10/16/2020	10:47	-133.485	43.565	0	9.40	0	18.1010	0	35.2850	8	25.467	0	9.325	0	224.6	4	96.4	4	-1E+10	1	-1E+10	1	-1E+10	1	-1E+10	1	-1E+10	1	-1E+10	1
4901784	193	C	10/16/2020	10:47	-133.485	43.565	0	11.10	0	18.1010	0	35.2860	8	25.468	0	11.011	0	224.6	4	96.4	4	-1E+10	1	-1E+10	1	-1E+10	1	-1E+10	1	-1E+10	1	-1E+10	1
4901784	193	C	10/16/2020	10:47	-133.485	43.565	0	12.90	0	18.0920	0	35.2880	8	25.472	0	12.797	0	224.4	4	96.3	4	-1E+10	1	-1E+10	1	-1E+10	1	-1E+10	1	-1E+10	1	-1E+10	1
4901784	193	C	10/16/2020	10:47	-133.485	43.565	0	14.70	0	18.0910	0	35.2880	8	25.472	0	14.582	0	224.3	4	96.2	4	-1E+10	1	-1E+10	1	-1E+10	1	-1E+10	1	-1E+10	1	-1E+10	1
4901784	193	C	10/16/2020	10:47	-133.485	43.565	0	16.40	0	18.0710	0	35.2880	8	25.477	0	16.268	0	224.0	4	96.1	4	-1E+10	1	-1E+10	1	-1E+10	1	-1E+10	1	-1E+10	1	-1E+10	1
4901784	193	C	10/16/2020	10:47	-133.485	43.565	0	18.20	0	18.0750	0	35.2890	8	25.477	0	18.054	0	224.0	4	96.1	4	-1E+10	1	-1E+10	1	-1E+10	1	-1E+10	1	-1E+10	1	-1E+10	1
4901784	193	C	10/16/2020	10:47	-133.485	43.565	0	19.90	0	18.0770	0	35.2900	8	25.477	0	19.740	0	224.0	4	96.1	4	-1E+10	1	-1E+10	1	-1E+10	1	-1E+10	1	-1E+10	1	-1E+10	1
4901784	193	C	10/16/2020	10:47	-133.485	43.565	0	21.70	0	18.0660	0	35.2910	8	25.481	0	21.526	0	223.8	4	96.0	4	-1E+10	1	-1E+10	1	-1E+10	1	-1E+10	1	-1E+10	1	-1E+10	1
4901784	193	C	10/16/2020	10:47	-133.485	43.565	0	23.40	0	18.0510	0	35.2920	8	25.485	0	23.212	0	223.6	4	95.8	4	-1E+10	1	-1E+10	1	-1E+10	1	-1E+10	1	-1E+10	1	-1E+10	1
4901784	193	C	10/16/2020	10:47	-133.485	43.565	0	25.30	0	18.0490	0	35.2920	8	25.486	0	25.096	0	223.4	4	95.8	4	-1E+10	1	-1E+10	1	-1E+10	1	-1E+10	1	-1E+10	1	-1E+10	1
4901784	193	C	10/16/2020	10:47	-133.485	43.565	0	27.00	0	18.0470	0	35.2930	8	25.487	0	26.783	0	223.4	4	95.8	4	-1E+10	1	-1E+10	1	-1E+10	1	-1E+10	1	-1E+10	1	-1E+10	1
4901784	193	C	10/16/2020	10:47	-133.485	43.565	0	28.80	0	18.0450	0	35.2940	8	25.488	0	28.568	0	223.2	4	95.7	4	-1E+10	1	-1E+10	1	-1E+10	1	-1E+10	1	-1E+10	1	-1E+10	1
4901784	193	C	10/16/2020	10:47	-133.485	43.565	0	30.60	0	18.0430	0	35.2930	8	25.488	0	30.353	0	223.2	4	95.7	4	-1E+10	1	-1E+10	1	-1E+10	1	-1E+10	1	-1E+10	1	-1E+10	1
4901784	193	C	10/16/2020	10:47	-133.485	43.565	0	32.40	0	18.0400	0	35.2920	8	25.488	0	32.139	0	223.2	4	95.7	4	-1E+10	1	-1E+10	1	-1E+10	1	-1E+10	1	-1E+10	1	-1E+10	1
4901784	193	C	10/16/2020	10:47	-133.485	43.565	0	34.10	0	18.0370	0	35.2910	8	25.488	0	33.825	0	223.2	4	95.7	4	-1E+10	1	-1E+10	1	-1E+10	1	-1E+10	1	-1E+10	1	-1E+10	1
4901784	193	C	10/16/2020	10:47	-133.485	43.565	0	36.10	0	18.0380	0	35.2860	8	25.484	0	35.809	0	223.6	4	95.8	4	-1E+10	1	-1E+10	1	-1E+10	1	-1E+10	1	-1E+10	1	-1E+10	1
4901784	193	C	10/16/2020	10:47	-133.485	43.565	0	36.50	0	18.0370	0	35.2850	8	25.484	0	36.205	0	223.8	4	95.9	4	-1E+10	1	-1E+10	1	-1E+10	1	-1E+10	1	-1E+10	1	-1E+10	1
4901784	193	C	10/16/2020	10:47	-133.485	43.565	0	37.90	0	18.0370	0	35.2780	8	25.479	0	37.594	0	224.3	4	96.1	4	-1E+10	1	-1E+10	1	-1E+10	1	-1E+10	1	-1E+10	1	-1E+10	1
4901784	193	C	10/16/2020	10:47	-133.485	43.565	0	39.20	0	18.0340	0	35.2670	8	25.471	0	38.883	0	225.5	4	96.6	4	-1E+10	1	-1E+10	1	-1E+10	1	-1E+10	1	-1E+10	1	-1E+10	1
4901784	193	C	10/16/2020	10:47	-133.485	43.565	0	40.50	0	18.0300	0	35.2500	8	25.459	0	40.173	0	227.2	4	97.3	4	-1E+10	1	-1E+10	1	-1E+10	1	-1E+10	1	-1E+10	1	-1E+10	1
4901784	193	C	10/16/2020	10:47	-133.485	43.565	0	41.70	0	18.0200	0	35.2190	8	25.438	0	41.363	0	229.6	4	98.3	4	-1E+10	1	-1E+10	1	-1E+10	1	-1E+10	1	-1E+10	1	-1E+10	1
4901784	193	C	10/16/2020	10:47	-133.485	43.565	0	43.10	0	17.6700	0	35.2000	8	25.509	0	42.751	0	233.5	4	99.3	4	-1E+10	1	-1E+10	1	-1E+10	1	-1E+10	1	-1E+10	1	-1E+10	1
4901784	193	C	10/16/2020	10:47	-133.485	43.565	0	44.60	0	16.5330	0	35.2660	8	25.831	0	44.239	0	241.2	4	100.4	4	-1E+10	1	-1E+10	1	-1E+10	1	-1E+10	1	-1E+10	1	-1E+10	1
4901784	193	C	10/16/2020	10:47	-133.485	43.565	0	46.10	0	15.8190	0	35.2810	8	26.008	0	45.727	0	246.9	4	101.4	4	-1E+10	1	-1E+10	1	-1E+10	1	-1E+10	1	-1E+10	1	-1E+10	1
4901784	193	C	10/16/2020	10:47	-133.485	43.565	0	47.60	0	15.5290	0	35.2650	8	26.061	0	47.214	0	250.3	4	102.2	4	-1E+10	1	-1E+10	1	-1E+10	1	-1E+10	1	-1E+10	1	-1E+10	1
4901784	193	C	10/16/2020	10:47	-133.485	43.565	0	49.20	0	14.8420	0	35.2990	8	26.240	0	48.801	0	254.9	4	102.8	4	-1E+10	1	-1E+10	1	-1E+10	1	-1E+10	1	-1E+10	1	-1E+10	1
4901784	193	C	10/16/2020	10:47	-133.485	43.565	0	50.80	0	14.3150	0	35.3370	8	26.383	0	50.388	0	257.1	4	102.6	4	-1E+10	1	-1E+10	1	-1E+10	1	-1E+10	1	-1E+10	1	-1E+10	1
4901784	193	C	10/16/2020	10:47	-133.485	43.565	0	52.50	0	13.8680	0	35.3540	8	26.491	0	52.074	0	260.8	4	103.1	4	-1E+10	1	-1E+10	1	-1E+10	1	-1E+10	1	-1E+10	1	-1E+10	1
4901784	193	C	10/16/2020	10:47	-133.485	43.565	0	54.90	0	13.6060	0	35.3660	8	26.555	0	54.454	0	262.3	4	103.2	4	-1E+10	1	-1E+10	1	-1E+10	1	-1E+10	1	-1E+10	1	-1E+10	1
4901784	193	C	10/16/2020	10:47	-133.485	43.565	0	56.70	0	13.4840	0	35.3600	8	26.575	0	56.239	0	262.8	4	103.2	4	-1E+10	1	-1E+10	1	-1E+10	1	-1E+10	1	-1E+10	1	-1E+10	1
4901784	193	C	10/16/2020	10:47	-133.485	43.565	0	58.20	0	13.2660	0	35.3600	8	26.620	0	57.727	0	264.0	4	103.2	4	-1E+10	1	-1E+10	1	-1E+10	1	-1E+10	1	-1E+10	1	-1E+10	1
4901784	193	C	10/16/2020	10:47	-133.485	43.565	0	59.70	0	12.9760	0	35.3660	8	26.684	0	59.215	0	265.0	4	103.0	4	-1E+10	1	-1E+10	1	-1E+10	1	-1E+10	1	-1E+10	1	-1E+10	1
4901784	193	C	10/16/2020	10:47	-133.485	43.565	0	61.40	0	12.6370	0	35.3900	8	26.770	0	60.901	0	265.9	4	102.6	4	-1E+10	1	-1E+10	1	-1E+10	1	-1E+10	1	-1E+10	1	-1E+10	1
4901784	193	C	10/16/2020	10:47	-133.485	43.565	0	63.00	0	12.3590	0	35.4000	8	26.833	0	62.487	0	267.0	4	102.5	4	-1E+10	1	-1E+10	1	-1E+10	1	-1E+10	1	-1E+10	1	-1E+10	1
4901784	193	C	10/16/2020	10:47	-133.485	43.565	0	64.50	0	12.2740	0	35.3960	8	26.846	0	63.975	0	265.9	4	101.9	4	-1E+10	1	-1E+10	1	-1E+10	1	-1E+10	1	-1E+10	1	-1E+10	1
4901784	193	C	10/16/2020	10:47	-133.485	43.565	0	66.10	0	11.9770	0	35.4170	8	26.920	0	65.562	0	265.1	4	100.9	4	-1E+10	1	-1E+10	1	-1E+10	1	-1E+10	1	-1E+10	1	-1E+10	1
4901784	193	C	10/16/2020	10:47	-133.485	43.565	0	67.80	0	11.8590	0	35.4170	8	26.942	0	67.247	0	264.1	4	100.3	4	-1E+10	1	-1E+10	1	-1E+10	1	-1E+10	1	-1E+10	1	-1E+10	1
4901784	193	C	10/16/2020	10:47	-133.485	43.565	0	69.50	0	11.6270	0	35.4440	8	27.007	0	68.933	0	261.6	4	98.9	4	-1E+10	1	-1E+10	1	-1E+10	1	-1E+10	1	-1E+10	1	-1E+10	1
4901784	193	C	10/16/2020	10:47	-133.485	43.565	0	71.20	0	11.3220	0	35.4620	8	27.078	0	70.619	0	260.8	4	98.0	4	-1E+10	1	-1E+10	1	-1E+10	1	-1E+10	1	-1E+10	1	-1E+10	1
4901784	193	C	10/16/2020	10:47	-133.485	43.565	0	73.00	0	11.1730	0	35.4370	8	27.086	0	72.404	0	260.3	4	97.5	4	-1E+10	1	-1E+10	1	-1E+10	1	-1E+10	1	-1E+10	1	-1E+10	1
4901784	193	C	10/16/2020	10:47	-133.485	43.565	0	74.90	0	11.1490	0	35.4310	8	27.086	0	74.288	0	258.5	4	96.8	4	-1E+10	1	-1E+10	1	-1E+10	1	-1E+10	1	-1E+10	1	-1E+10	1
4901784	193	C	10/16/2020	10:47	-133.485	43.565	0	76.60	0	11.0240	0	35.4370	8	27.114	0	75.974	0	257.0	4	95.9	4	-1E+10	1	-1E+10	1	-1E+10	1	-1E+10	1	-1E+10	1	-1E+10	1
4901784	193	C	10/16/2020	10:47	-133.485	43.565	0	78.40	0	10.9240	0	35.4410	8	27.135	0	77.759	0	255.6	4	95.2	4	-1E+10	1	-1E+10	1	-1E+10	1	-1E+10	1	-1E+10	1	-1E+10	1
4901784	193	C	10/16/2020	10:47	-133.485	43.565	0	80.30	0	10.7900	0	35.4440	8	27.162	0	79.643	0	254.5	4	94.5	4	-1E+10	1	-1E+10	1	-1E+10	1	-1E+10	1	-1E+10	1	-1E+10	1
4901784	193	C	10/16/2020	10:47	-133.485	43.565	0	82.10	0	10.6970	0	35.4480	8	27.182	0	81.428	0	253.5	4	94.0	4	-1E+10	1	-1E+10	1	-1E+10	1	-1E+10	1	-1E+10	1	-1E+10	1
4901784	193	C	10/16/2020	10:47	-133.485	43.565	0	84.00	0	10.6660	0	35.4470	8	27.186	0	83.312	0	252.4	4	93.5	4	-1E+10	1	-1E+10	1	-1E+10	1	-1E+10	1	-1E+10	1	-1E+10	1
4901784	193	C	10/16/2020	10:47	-133.485	43.565	0	85.80	0	10.6250	0	35.4440	8	27.191	0	85.097	0	251.2	4	93.0	4	-1E+10	1	-1E+10	1	-1E+10	1	-1E+10	1	-1E+10	1	-1E+10	1
4901784	193	C	10/16/2020	10:47	-133.485	43.565	0	87.70	0	10.5400	0	35.4530	8	27.214	0	86.981	0	249.8	4	92.3	4	-1E+10	1	-1E+10	1	-1E+10	1	-1E+10	1	-1E+10	1	-1E+10	1
4901784	193	C	10/16/2020	10:47	-133.485	43.565	0	89.40	0	10.4100	0	35.4450	8	27.230	0	88.667	0	249.2	4	91.9	4	-1E+10	1	-1E+10	1	-1E+10	1	-1E+10	1	-1E+10	1	-1E+10	1
4901784	193	C	10/16/2020	10:47	-133.485	43.565	0	91.20	0	10.3610	0	35.4330	8	27.230	0	90.452	0	248.3	4	91.4	4	-1E+10	1	-1E+10	1	-1E+10	1	-1E+10	1	-1E+10	1	-1E+10	1
4901784	193	C	10/16/2020	10:47	-133.485	43.565	0	93.00	0	10.0870	0	35.4490	8	27.290	0	92.237	0	248.5	4	91.0	4	-1E+10	1	-1E+10	1	-1E+10	1	-1E+10	1	-1E+10	1	-1E+10	1
4901784	193	C	10/16/2020	10:47	-133.485	43.565	0	94.70	0	10.0530	0	35.4510	8	27.297	0	93.922	0	248.2	4	90.8	4	-1E+10	1	-1E+10	1	-1E+10	1	-1E+10	1	-1E+10	1	-1E+10	1
4901784	193	C	10/16/2020	10:47	-133.485	43.565	0	96.50	0	10.0220	0	35.4480	8	27.301	0	95.707	0	247.8	4	90.6	4	-1E+10	1	-1E+10	1	-1E+10	1	-1E+10	1	-1E+10	1	-1E+10	1
4901784	193	C	10/16/2020	10:47	-133.485	43.565	0	98.30	0	9.9030	0	35.4560	8	27.327	0	97.492	0	247.8	4	90.3	4	-1E+10	1	-1E+10	1	-1E+10	1	-1E+10	1	-1E+10	1	-1E+10	1
4901784	193	C	10/16/2020	10:47	-133.485	43.565	0	100.10	0	9.8800	0	35.4640	8	27.337	0	99.277	0	247.7	4	90.3	4	-1E+10	1	-1E+10	1	-1E+10	1	-1E+10	1	-1E+10	1	-1E+10	1
4901784	193	C	10/16/2020	10:47	-133.485	43.565	0	101.90	0	9.8280	0	35.4680	8	27.349	0	101.061	0	247.6	4	90.1	4	-1E+10	1	-1E+10	1	-1E+10	1	-1E+10	1	-1E+10	1	-1E+10	1
4901784	193	C	10/16/2020	10:47	-133.485	43.565	0	104.70	0	9.7710	0	35.4670	8	27.358	0	103.838	0	247.7	4	90.1	4	-1E+10	1	-1E+10	1	-1E+10	1	-1E+10	1	-1E+10	1	-1E+10	1
4901784	193	C	10/16/2020	10:47	-133.485	43.565	0	107.40	0	9.7160	0	35.4640	8	27.365	0	106.515	0	247.6	4	89.9	4	-1E+10	1	-1E+10	1	-1E+10	1	-1E+10	1	-1E+10	1	-1E+10	1
4901784	193	C	10/16/2020	10:47	-133.485	43.565	0	110.00	0	9.5580	0	35.4550	8	27.385	0	109.092	0	247.8	4	89.7	4	-1E+10	1	-1E+10	1	-1E+10	1	-1E+10	1	-1E+10	1	-1E+10	1
4901784	193	C	10/16/2020	10:47	-133.485	43.565	0	112.70	0	9.2820	0	35.4400	8	27.419	0	111.769	0	248.8	4	89.5	4	-1E+10	1	-1E+10	1	-1E+10	1	-1E+10	1	-1E+10	1	-1E+10	1
4901784	193	C	10/16/2020	10:47	-133.485	43.565	0	114.50	0	9.2160	0	35.4350	8	27.426	0	113.554	0	248.5	4	89.2	4	-1E+10	1	-1E+10	1	-1E+10	1	-1E+10	1	-1E+10	1	-1E+10	1
4901784	193	C	10/16/2020	10:47	-133.485	43.565	0	117.40	0	9.0380	0	35.4440	8	27.462	0	116.429	0	247.4	4	88.5	4	-1E+10	1	-1E+10	1	-1E+10	1	-1E+10	1	-1E+10	1	-1E+10	1
4901784	193	C	10/16/2020	10:47	-133.485	43.565	0	119.80	0	9.0250	0	35.4660	8	27.482	0	118.809	0	245.0	4	87.7	4	-1E+10	1	-1E+10	1	-1E+10	1	-1E+10	1	-1E+10	1	-1E+10	1
4901784	193	C	10/16/2020	10:47	-133.485	43.565	0	122.80	0	9.0440	0	35.4950	8	27.501	0	121.783	0	240.8	4	86.2	4	-1E+10	1	-1E+10	1	-1E+10	1	-1E+10	1	-1E+10	1	-1E+10	1
4901784	193	C	10/16/2020	10:47	-133.485	43.565	0	125.00	0	9.0620	0	35.5350	8	27.530	0	123.964	0	236.8	4	84.8	4	-1E+10	1	-1E+10	1	-1E+10	1	-1E+10	1	-1E+10	1	-1E+10	1
4901784	193	C	10/16/2020	10:47	-133.485	43.565	0	127.20	0	9.0090	0	35.5700	8	27.566	0	126.145	0	233.7	4	83.6	4	-1E+10	1	-1E+10	1	-1E+10	1	-1E+10	1	-1E+10	1	-1E+10	1
4901784	193	C	10/16/2020	10:47	-133.485	43.565	0	130.20	0	8.9880	0	35.6120	8	27.602	0	129.119	0	229.2	4	82.0	4	-1E+10	1	-1E+10	1	-1E+10	1	-1E+10	1	-1E+10	1	-1E+10	1
4901784	193	C	10/16/2020	10:47	-133.485	43.565	0	132.60	0	8.9150	0	35.6680	8	27.658	0	131.499	0	225.8	4	80.7	4	-1E+10	1	-1E+10	1	-1E+10	1	-1E+10	1	-1E+10	1	-1E+10	1
4901784	193	C	10/16/2020	10:47	-133.485	43.565	0	134.90	0	8.8280	0	35.7170	8	27.710	0	133.779	0	224.0	4	79.9	4	-1E+10	1	-1E+10	1	-1E+10	1	-1E+10	1	-1E+10	1	-1E+10	1
4901784	193	C	10/16/2020	10:47	-133.485	43.565	0	137.80	0	8.7520	0	35.7590	8	27.756	0	136.654	0	221.6	4	79.0	4	-1E+10	1	-1E+10	1	-1E+10	1	-1E+10	1	-1E+10	1	-1E+10	1
4901784	193	C	10/16/2020	10:47	-133.485	43.565	0	140.00	0	8.7060	0	35.7910	8	27.788	0	138.835	0	219.5	4	78.2	4	-1E+10	1	-1E+10	1	-1E+10	1	-1E+10	1	-1E+10	1	-1E+10	1
4901784	193	C	10/16/2020	10:47	-133.485	43.565	0	142.70	0	8.6550	0	35.8170	8	27.817	0	141.511	0	216.3	4	77.0	4	-1E+10	1	-1E+10	1	-1E+10	1	-1E+10	1	-1E+10	1	-1E+10	1
4901784	193	C	10/16/2020	10:47	-133.485	43.565	0	145.40	0	8.4360	0	35.9110	8	27.925	0	144.188	0	213.6	4	75.7	4	-1E+10	1	-1E+10	1	-1E+10	1	-1E+10	1	-1E+10	1	-1E+10	1
4901784	193	C	10/16/2020	10:47	-133.485	43.565	0	147.60	0	8.3050	0	35.9580	8	27.982	0	146.369	0	212.3	4	75.0	4	-1E+10	1	-1E+10	1	-1E+10	1	-1E+10	1	-1E+10	1	-1E+10	1
4901784	193	C	10/16/2020	10:47	-133.485	43.565	0	149.80	0	8.2310	0	36.0010	8	28.028	0	148.550	0	210.8	4	74.4	4	-1E+10	1	-1E+10	1	-1E+10	1	-1E+10	1	-1E+10	1	-1E+10	1
4901784	193	C	10/16/2020	10:47	-133.485	43.565	0	152.10	0	8.1760	0	36.0180	8	28.050	0	150.830	0	209.1	4	73.7	4	-1E+10	1	-1E+10	1	-1E+10	1	-1E+10	1	-1E+10	1	-1E+10	1
4901784	193	C	10/16/2020	10:47	-133.485	43.565	0	154.60	0	8.0530	0	36.0810	8	28.118	0	153.308	0	207.5	4	73.0	4	-1E+10	1	-1E+10	1	-1E+10	1	-1E+10	1	-1E+10	1	-1E+10	1
4901784	193	C	10/16/2020	10:47	-133.485	43.565	0	157.90	0	7.9200	0	36.1590	8	28.200	0	156.579	0	205.7	4	72.2	4	-1E+10	1	-1E+10	1	-1E+10	1	-1E+10	1	-1E+10	1	-1E+10	1
4901784	193	C	10/16/2020	10:47	-133.485	43.565	0	160.40	0	7.8320	0	36.2210	8	28.262	0	159.057	0	204.8	4	71.7	4	-1E+10	1	-1E+10	1	-1E+10	1	-1E+10	1	-1E+10	1	-1E+10	1
4901784	193	C	10/16/2020	10:47	-133.485	43.565	0	162.10	0	7.8200	0	36.2280	8	28.269	0	160.742	0	204.0	4	71.4	4	-1E+10	1	-1E+10	1	-1E+10	1	-1E+10	1	-1E+10	1	-1E+10	1
4901784	193	C	10/16/2020	10:47	-133.485	43.565	0	164.60	0	7.8020	0	36.2400	8	28.281	0	163.220	0	202.8	4	71.0	4	-1E+10	1	-1E+10	1	-1E+10	1	-1E+10	1	-1E+10	1	-1E+10	1
4901784	193	C	10/16/2020	10:47	-133.485	43.565	0	167.10	0	7.7710	0	36.2620	8	28.303	0	165.698	0	201.0	4	70.4	4	-1E+10	1	-1E+10	1	-1E+10	1	-1E+10	1	-1E+10	1	-1E+10	1
4901784	193	C	10/16/2020	10:47	-133.485	43.565	0	169.60	0	7.6930	0	36.3330	8	28.371	0	168.176	0	198.9	4	69.5	4	-1E+10	1	-1E+10	1	-1E+10	1	-1E+10	1	-1E+10	1	-1E+10	1
4901784	193	C	10/16/2020	10:47	-133.485	43.565	0	172.20	0	7.5900	0	36.3980	8	28.437	0	170.754	0	197.6	4	69.0	4	-1E+10	1	-1E+10	1	-1E+10	1	-1E+10	1	-1E+10	1	-1E+10	1
4901784	193	C	10/16/2020	10:47	-133.485	43.565	0	175.20	0	7.6020	0	36.4490	8	28.476	0	173.727	0	196.0	4	68.4	4	-1E+10	1	-1E+10	1	-1E+10	1	-1E+10	1	-1E+10	1	-1E+10	1
4901784	193	C	10/16/2020	10:47	-133.485	43.565	0	177.60	0	7.6040	0	36.4680	8	28.491	0	176.106	0	194.7	4	68.0	4	-1E+10	1	-1E+10	1	-1E+10	1	-1E+10	1	-1E+10	1	-1E+10	1
4901784	193	C	10/16/2020	10:47	-133.485	43.565	0	179.90	0	7.6090	0	36.4960	8	28.512	0	178.386	0	193.1	4	67.5	4	-1E+10	1	-1E+10	1	-1E+10	1	-1E+10	1	-1E+10	1	-1E+10	1
4901784	193	C	10/16/2020	10:47	-133.485	43.565	0	182.10	0	7.6150	0	36.5390	8	28.545	0	180.566	0	191.4	4	66.9	4	-1E+10	1	-1E+10	1	-1E+10	1	-1E+10	1	-1E+10	1	-1E+10	1
4901784	193	C	10/16/2020	10:47	-133.485	43.565	0	185.10	0	7.6060	0	36.5910	8	28.587	0	183.539	0	189.4	4	66.2	4	-1E+10	1	-1E+10	1	-1E+10	1	-1E+10	1	-1E+10	1	-1E+10	1
4901784	193	C	10/16/2020	10:47	-133.485	43.565	0	187.40	0	7.6010	0	36.6320	8	28.620	0	185.819	0	188.2	4	65.8	4	-1E+10	1	-1E+10	1	-1E+10	1	-1E+10	1	-1E+10	1	-1E+10	1
4901784	193	C	10/16/2020	10:47	-133.485	43.565	0	189.80	0	7.6010	0	36.6510	8	28.635	0	188.198	0	186.9	4	65.3	4	-1E+10	1	-1E+10	1	-1E+10	1	-1E+10	1	-1E+10	1	-1E+10	1
4901784	193	C	10/16/2020	10:47	-133.485	43.565	0	192.20	0	7.6030	0	36.6650	8	28.646	0	190.576	0	185.5	4	64.9	4	-1E+10	1	-1E+10	1	-1E+10	1	-1E+10	1	-1E+10	1	-1E+10	1
4901784	193	C	10/16/2020	10:47	-133.485	43.565	0	194.70	0	7.6070	0	36.6990	8	28.672	0	193.054	0	183.7	4	64.3	4	-1E+10	1	-1E+10	1	-1E+10	1	-1E+10	1	-1E+10	1	-1E+10	1
4901784	193	C	10/16/2020	10:47	-133.485	43.565	0	197.90	0	7.6250	0	36.7410	8	28.703	0	196.225	0	181.7	4	63.6	4	-1E+10	1	-1E+10	1	-1E+10	1	-1E+10	1	-1E+10	1	-1E+10	1
4901784	193	C	10/16/2020	10:47	-133.485	43.565	0	200.30	0	7.6270	0	36.7450	8	28.705	0	198.604	0	180.3	4	63.1	4	-1E+10	1	-1E+10	1	-1E+10	1	-1E+10	1	-1E+10	1	-1E+10	1
4901784	193	C	10/16/2020	10:47	-133.485	43.565	0	202.70	0	7.6330	0	36.7770	8	28.730	0	200.983	0	178.2	4	62.4	4	-1E+10	1	-1E+10	1	-1E+10	1	-1E+10	1	-1E+10	1	-1E+10	1
4901784	193	C	10/16/2020	10:47	-133.485	43.565	0	205.10	0	7.6370	0	36.8030	8	28.750	0	203.361	0	176.6	4	61.9	4	-1E+10	1	-1E+10	1	-1E+10	1	-1E+10	1	-1E+10	1	-1E+10	1
4901784	193	C	10/16/2020	10:47	-133.485	43.565	0	207.50	0	7.6370	0	36.8250	8	28.767	0	205.739	0	174.8	4	61.2	4	-1E+10	1	-1E+10	1	-1E+10	1	-1E+10	1	-1E+10	1	-1E+10	1
4901784	193	C	10/16/2020	10:47	-133.485	43.565	0	210.10	0	7.6380	0	36.8520	8	28.788	0	208.316	0	173.1	4	60.7	4	-1E+10	1	-1E+10	1	-1E+10	1	-1E+10	1	-1E+10	1	-1E+10	1
4901784	193	C	10/16/2020	10:47	-133.485	43.565	0	212.60	0	7.6330	0	36.8630	8	28.798	0	210.794	0	171.3	4	60.0	4	-1E+10	1	-1E+10	1	-1E+10	1	-1E+10	1	-1E+10	1	-1E+10	1
4901784	193	C	10/16/2020	10:47	-133.485	43.565	0	215.20	0	7.6330	0	36.8730	8	28.806	0	213.370	0	169.4	4	59.4	4	-1E+10	1	-1E+10	1	-1E+10	1	-1E+10	1	-1E+10	1	-1E+10	1
4901784	193	C	10/16/2020	10:47	-133.485	43.565	0	217.80	0	7.6330	0	36.8910	8	28.820	0	215.947	0	167.3	4	58.6	4	-1E+10	1	-1E+10	1	-1E+10	1	-1E+10	1	-1E+10	1	-1E+10	1
4901784	193	C	10/16/2020	10:47	-133.485	43.565	0	220.40	0	7.6260	0	36.9070	8	28.833	0	218.523	0	165.3	4	57.9	4	-1E+10	1	-1E+10	1	-1E+10	1	-1E+10	1	-1E+10	1	-1E+10	1
4901784	193	C	10/16/2020	10:47	-133.485	43.565	0	222.10	0	7.6220	0	36.9150	8	28.840	0	220.208	0	164.0	4	57.5	4	-1E+10	1	-1E+10	1	-1E+10	1	-1E+10	1	-1E+10	1	-1E+10	1
4901784	193	C	10/16/2020	10:47	-133.485	43.565	0	224.70	0	7.6190	0	36.9190	8	28.844	0	222.784	0	161.1	4	56.5	4	-1E+10	1	-1E+10	1	-1E+10	1	-1E+10	1	-1E+10	1	-1E+10	1
4901784	193	C	10/16/2020	10:47	-133.485	43.565	0	227.30	0	7.6230	0	36.9340	8	28.855	0	225.361	0	157.7	4	55.3	4	-1E+10	1	-1E+10	1	-1E+10	1	-1E+10	1	-1E+10	1	-1E+10	1
4901784	193	C	10/16/2020	10:47	-133.485	43.565	0	230.00	0	7.6090	0	36.9440	8	28.865	0	228.036	0	154.9	4	54.3	4	-1E+10	1	-1E+10	1	-1E+10	1	-1E+10	1	-1E+10	1	-1E+10	1
4901784	193	C	10/16/2020	10:47	-133.485	43.565	0	232.60	0	7.5950	0	36.9580	8	28.878	0	230.613	0	152.7	4	53.5	4	-1E+10	1	-1E+10	1	-1E+10	1	-1E+10	1	-1E+10	1	-1E+10	1
4901784	193	C	10/16/2020	10:47	-133.485	43.565	0	235.30	0	7.5820	0	36.9620	8	28.884	0	233.288	0	151.4	4	53.0	4	-1E+10	1	-1E+10	1	-1E+10	1	-1E+10	1	-1E+10	1	-1E+10	1
4901784	193	C	10/16/2020	10:47	-133.485	43.565	0	238.00	0	7.5580	0	36.9660	8	28.890	0	235.963	0	150.5	4	52.7	4	-1E+10	1	-1E+10	1	-1E+10	1	-1E+10	1	-1E+10	1	-1E+10	1
4901784	193	C	10/16/2020	10:47	-133.485	43.565	0	239.80	0	7.5520	0	36.9650	8	28.891	0	237.747	0	149.8	4	52.4	4	-1E+10	1	-1E+10	1	-1E+10	1	-1E+10	1	-1E+10	1	-1E+10	1
4901784	193	C	10/16/2020	10:47	-133.485	43.565	0	242.50	0	7.5240	0	36.9650	8	28.895	0	240.422	0	148.6	4	52.0	4	-1E+10	1	-1E+10	1	-1E+10	1	-1E+10	1	-1E+10	1	-1E+10	1
4901784	193	C	10/16/2020	10:47	-133.485	43.565	0	245.20	0	7.4490	0	36.9720	8	28.911	0	243.097	0	147.2	4	51.4	4	-1E+10	1	-1E+10	1	-1E+10	1	-1E+10	1	-1E+10	1	-1E+10	1
4901784	193	C	10/16/2020	10:47	-133.485	43.565	0	247.10	0	7.4190	0	36.9740	8	28.918	0	244.980	0	146.1	4	51.0	4	-1E+10	1	-1E+10	1	-1E+10	1	-1E+10	1	-1E+10	1	-1E+10	1
4901784	193	C	10/16/2020	10:47	-133.485	43.565	0	249.80	0	7.3790	0	36.9760	8	28.925	0	247.655	0	145.1	4	50.6	4	-1E+10	1	-1E+10	1	-1E+10	1	-1E+10	1	-1E+10	1	-1E+10	1
4901784	193	C	10/16/2020	10:47	-133.485	43.565	0	252.50	0	7.3500	0	36.9740	8	28.928	0	250.330	0	144.0	4	50.2	4	-1E+10	1	-1E+10	1	-1E+10	1	-1E+10	1	-1E+10	1	-1E+10	1
4901784	193	C	10/16/2020	10:47	-133.485	43.565	0	255.20	0	7.3050	0	36.9730	8	28.934	0	253.006	0	143.0	4	49.8	4	-1E+10	1	-1E+10	1	-1E+10	1	-1E+10	1	-1E+10	1	-1E+10	1
4901784	193	C	10/16/2020	10:47	-133.485	43.565	0	257.90	0	7.2550	0	36.9710	8	28.939	0	255.681	0	141.5	4	49.2	4	-1E+10	1	-1E+10	1	-1E+10	1	-1E+10	1	-1E+10	1	-1E+10	1
4901784	193	C	10/16/2020	10:47	-133.485	43.565	0	259.70	0	7.2060	0	36.9690	8	28.945	0	257.464	0	141.1	4	49.0	4	-1E+10	1	-1E+10	1	-1E+10	1	-1E+10	1	-1E+10	1	-1E+10	1
4901784	193	C	10/16/2020	10:47	-133.485	43.565	0	262.50	0	7.1480	0	36.9660	8	28.951	0	260.238	0	140.6	4	48.8	4	-1E+10	1	-1E+10	1	-1E+10	1	-1E+10	1	-1E+10	1	-1E+10	1
4901784	193	C	10/16/2020	10:47	-133.485	43.565	0	265.20	0	7.1300	0	36.9540	8	28.944	0	262.913	0	140.0	4	48.6	4	-1E+10	1	-1E+10	1	-1E+10	1	-1E+10	1	-1E+10	1	-1E+10	1
4901784	193	C	10/16/2020	10:47	-133.485	43.565	0	267.10	0	7.1010	0	36.9470	8	28.943	0	264.796	0	139.5	4	48.3	4	-1E+10	1	-1E+10	1	-1E+10	1	-1E+10	1	-1E+10	1	-1E+10	1
4901784	193	C	10/16/2020	10:47	-133.485	43.565	0	269.90	0	7.0430	0	36.9430	8	28.948	0	267.570	0	138.7	4	48.0	4	-1E+10	1	-1E+10	1	-1E+10	1	-1E+10	1	-1E+10	1	-1E+10	1
4901784	193	C	10/16/2020	10:47	-133.485	43.565	0	272.70	0	7.0180	0	36.9210	8	28.935	0	270.344	0	138.0	4	47.7	4	-1E+10	1	-1E+10	1	-1E+10	1	-1E+10	1	-1E+10	1	-1E+10	1
4901784	193	C	10/16/2020	10:47	-133.485	43.565	0	274.60	0	7.0120	0	36.9040	8	28.922	0	272.226	0	137.4	4	47.5	4	-1E+10	1	-1E+10	1	-1E+10	1	-1E+10	1	-1E+10	1	-1E+10	1
4901784	193	C	10/16/2020	10:47	-133.485	43.565	0	277.40	0	6.9730	0	36.8950	8	28.921	0	275.000	0	136.3	4	47.1	4	-1E+10	1	-1E+10	1	-1E+10	1	-1E+10	1	-1E+10	1	-1E+10	1
4901784	193	C	10/16/2020	10:47	-133.485	43.565	0	280.10	0	6.9280	0	36.8920	8	28.925	0	277.675	0	135.3	4	46.7	4	-1E+10	1	-1E+10	1	-1E+10	1	-1E+10	1	-1E+10	1	-1E+10	1
4901784	193	C	10/16/2020	10:47	-133.485	43.565	0	282.00	0	6.9240	0	36.8940	8	28.927	0	279.557	0	134.4	4	46.4	4	-1E+10	1	-1E+10	1	-1E+10	1	-1E+10	1	-1E+10	1	-1E+10	1
4901784	193	C	10/16/2020	10:47	-133.485	43.565	0	284.80	0	6.8620	0	36.8890	8	28.932	0	282.331	0	133.1	4	45.9	4	-1E+10	1	-1E+10	1	-1E+10	1	-1E+10	1	-1E+10	1	-1E+10	1
4901784	193	C	10/16/2020	10:47	-133.485	43.565	0	287.60	0	6.8280	0	36.8890	8	28.937	0	285.105	0	131.8	4	45.4	4	-1E+10	1	-1E+10	1	-1E+10	1	-1E+10	1	-1E+10	1	-1E+10	1
4901784	193	C	10/16/2020	10:47	-133.485	43.565	0	289.50	0	6.8120	0	36.8830	8	28.934	0	286.987	0	130.6	4	44.9	4	-1E+10	1	-1E+10	1	-1E+10	1	-1E+10	1	-1E+10	1	-1E+10	1
4901784	193	C	10/16/2020	10:47	-133.485	43.565	0	292.20	0	6.7750	0	36.8830	8	28.940	0	289.662	0	128.6	4	44.2	4	-1E+10	1	-1E+10	1	-1E+10	1	-1E+10	1	-1E+10	1	-1E+10	1
4901784	193	C	10/16/2020	10:47	-133.485	43.565	0	294.90	0	6.7190	0	36.8860	8	28.950	0	292.336	0	126.8	4	43.6	4	-1E+10	1	-1E+10	1	-1E+10	1	-1E+10	1	-1E+10	1	-1E+10	1
4901784	193	C	10/16/2020	10:47	-133.485	43.565	0	297.80	0	6.6810	0	36.8870	8	28.956	0	295.209	0	125.6	4	43.1	4	-1E+10	1	-1E+10	1	-1E+10	1	-1E+10	1	-1E+10	1	-1E+10	1
4901784	193	C	10/16/2020	10:47	-133.485	43.565	0	300.60	0	6.6480	0	36.8920	8	28.965	0	297.983	0	124.4	4	42.6	4	-1E+10	1	-1E+10	1	-1E+10	1	-1E+10	1	-1E+10	1	-1E+10	1
4901784	193	C	10/16/2020	10:47	-133.485	43.565	0	302.40	0	6.6240	0	36.8870	8	28.964	0	299.766	0	123.7	4	42.4	4	-1E+10	1	-1E+10	1	-1E+10	1	-1E+10	1	-1E+10	1	-1E+10	1
4901784	193	C	10/16/2020	10:47	-133.485	43.565	0	305.30	0	6.5710	0	36.8810	8	28.967	0	302.638	0	122.5	4	41.9	4	-1E+10	1	-1E+10	1	-1E+10	1	-1E+10	1	-1E+10	1	-1E+10	1
4901784	193	C	10/16/2020	10:47	-133.485	43.565	0	308.10	0	6.5290	0	36.8840	8	28.975	0	305.412	0	121.5	4	41.6	4	-1E+10	1	-1E+10	1	-1E+10	1	-1E+10	1	-1E+10	1	-1E+10	1
4901784	193	C	10/16/2020	10:47	-133.485	43.565	0	310.00	0	6.5000	0	36.8800	8	28.976	0	307.294	0	120.9	4	41.3	4	-1E+10	1	-1E+10	1	-1E+10	1	-1E+10	1	-1E+10	1	-1E+10	1
4901784	193	C	10/16/2020	10:47	-133.485	43.565	0	311.90	0	6.4650	0	36.8720	8	28.974	0	309.176	0	120.3	4	41.1	4	-1E+10	1	-1E+10	1	-1E+10	1	-1E+10	1	-1E+10	1	-1E+10	1
4901784	193	C	10/16/2020	10:47	-133.485	43.565	0	314.80	0	6.4300	0	36.8730	8	28.980	0	312.048	0	119.2	4	40.7	4	-1E+10	1	-1E+10	1	-1E+10	1	-1E+10	1	-1E+10	1	-1E+10	1
4901784	193	C	10/16/2020	10:47	-133.485	43.565	0	317.60	0	6.4030	0	36.8730	8	28.984	0	314.822	0	117.4	4	40.0	4	-1E+10	1	-1E+10	1	-1E+10	1	-1E+10	1	-1E+10	1	-1E+10	1
4901784	193	C	10/16/2020	10:47	-133.485	43.565	0	319.50	0	6.3820	0	36.8760	8	28.989	0	316.704	0	115.9	4	39.5	4	-1E+10	1	-1E+10	1	-1E+10	1	-1E+10	1	-1E+10	1	-1E+10	1
4901784	193	C	10/16/2020	10:47	-133.485	43.565	0	322.30	0	6.3310	0	36.8720	8	28.993	0	319.477	0	114.2	4	38.8	4	-1E+10	1	-1E+10	1	-1E+10	1	-1E+10	1	-1E+10	1	-1E+10	1
4901784	193	C	10/16/2020	10:47	-133.485	43.565	0	325.70	0	6.2880	0	36.8710	8	28.998	0	322.844	0	112.8	4	38.4	4	-1E+10	1	-1E+10	1	-1E+10	1	-1E+10	1	-1E+10	1	-1E+10	1
4901784	193	C	10/16/2020	10:47	-133.485	43.565	0	327.70	0	6.2710	0	36.8660	8	28.996	0	324.825	0	112.3	4	38.2	4	-1E+10	1	-1E+10	1	-1E+10	1	-1E+10	1	-1E+10	1	-1E+10	1
4901784	193	C	10/16/2020	10:47	-133.485	43.565	0	330.10	0	6.2350	0	36.8660	8	29.001	0	327.202	0	111.3	4	37.8	4	-1E+10	1	-1E+10	1	-1E+10	1	-1E+10	1	-1E+10	1	-1E+10	1
4901784	193	C	10/16/2020	10:47	-133.485	43.565	0	332.50	0	6.1840	0	36.8690	8	29.010	0	329.579	0	109.5	4	37.1	4	-1E+10	1	-1E+10	1	-1E+10	1	-1E+10	1	-1E+10	1	-1E+10	1
4901784	193	C	10/16/2020	10:47	-133.485	43.565	0	335.00	0	6.1610	0	36.8610	8	29.007	0	332.055	0	108.0	4	36.6	4	-1E+10	1	-1E+10	1	-1E+10	1	-1E+10	1	-1E+10	1	-1E+10	1
4901784	193	C	10/16/2020	10:47	-133.485	43.565	0	337.40	0	6.1190	0	36.8570	8	29.010	0	334.432	0	107.0	4	36.2	4	-1E+10	1	-1E+10	1	-1E+10	1	-1E+10	1	-1E+10	1	-1E+10	1
4901784	193	C	10/16/2020	10:47	-133.485	43.565	0	339.90	0	6.0840	0	36.8600	8	29.017	0	336.908	0	105.9	4	35.8	4	-1E+10	1	-1E+10	1	-1E+10	1	-1E+10	1	-1E+10	1	-1E+10	1
4901784	193	C	10/16/2020	10:47	-133.485	43.565	0	342.30	0	6.0470	0	36.8510	8	29.015	0	339.285	0	105.0	4	35.5	4	-1E+10	1	-1E+10	1	-1E+10	1	-1E+10	1	-1E+10	1	-1E+10	1
4901784	193	C	10/16/2020	10:47	-133.485	43.565	0	344.80	0	6.0310	0	36.8520	8	29.017	0	341.761	0	104.0	4	35.1	4	-1E+10	1	-1E+10	1	-1E+10	1	-1E+10	1	-1E+10	1	-1E+10	1
4901784	193	C	10/16/2020	10:47	-133.485	43.565	0	347.40	0	6.0270	0	36.8540	8	29.020	0	344.336	0	102.8	4	34.7	4	-1E+10	1	-1E+10	1	-1E+10	1	-1E+10	1	-1E+10	1	-1E+10	1
4901784	193	C	10/16/2020	10:47	-133.485	43.565	0	349.90	0	6.0090	0	36.8500	8	29.019	0	346.812	0	101.8	4	34.4	4	-1E+10	1	-1E+10	1	-1E+10	1	-1E+10	1	-1E+10	1	-1E+10	1
4901784	193	C	10/16/2020	10:47	-133.485	43.565	0	352.40	0	5.9590	0	36.8400	8	29.018	0	349.288	0	100.8	4	34.0	4	-1E+10	1	-1E+10	1	-1E+10	1	-1E+10	1	-1E+10	1	-1E+10	1
4901784	193	C	10/16/2020	10:47	-133.485	43.565	0	354.90	0	5.9090	0	36.8400	8	29.024	0	351.764	0	99.0	4	33.4	4	-1E+10	1	-1E+10	1	-1E+10	1	-1E+10	1	-1E+10	1	-1E+10	1
4901784	193	C	10/16/2020	10:47	-133.485	43.565	0	357.50	0	5.8960	0	36.8320	8	29.020	0	354.339	0	97.3	4	32.8	4	-1E+10	1	-1E+10	1	-1E+10	1	-1E+10	1	-1E+10	1	-1E+10	1
4901784	193	C	10/16/2020	10:47	-133.485	43.565	0	360.00	0	5.8530	0	36.8390	8	29.031	0	356.814	0	95.9	4	32.3	4	-1E+10	1	-1E+10	1	-1E+10	1	-1E+10	1	-1E+10	1	-1E+10	1
4901784	193	C	10/16/2020	10:47	-133.485	43.565	0	362.60	0	5.8100	0	36.8310	8	29.030	0	359.389	0	94.7	4	31.8	4	-1E+10	1	-1E+10	1	-1E+10	1	-1E+10	1	-1E+10	1	-1E+10	1
4901784	193	C	10/16/2020	10:47	-133.485	43.565	0	365.30	0	5.7690	0	36.8260	8	29.031	0	362.063	0	93.7	4	31.5	4	-1E+10	1	-1E+10	1	-1E+10	1	-1E+10	1	-1E+10	1	-1E+10	1
4901784	193	C	10/16/2020	10:47	-133.485	43.565	0	367.80	0	5.7500	0	36.8220	8	29.031	0	364.538	0	92.2	4	30.9	4	-1E+10	1	-1E+10	1	-1E+10	1	-1E+10	1	-1E+10	1	-1E+10	1
4901784	193	C	10/16/2020	10:47	-133.485	43.565	0	369.60	0	5.6970	0	36.8220	8	29.038	0	366.321	0	91.4	4	30.6	4	-1E+10	1	-1E+10	1	-1E+10	1	-1E+10	1	-1E+10	1	-1E+10	1
4901784	193	C	10/16/2020	10:47	-133.485	43.565	0	372.30	0	5.6790	0	36.8190	8	29.038	0	368.994	0	90.2	4	30.2	4	-1E+10	1	-1E+10	1	-1E+10	1	-1E+10	1	-1E+10	1	-1E+10	1
4901784	193	C	10/16/2020	10:47	-133.485	43.565	0	375.00	0	5.6660	0	36.8200	8	29.040	0	371.668	0	88.9	4	29.8	4	-1E+10	1	-1E+10	1	-1E+10	1	-1E+10	1	-1E+10	1	-1E+10	1
4901784	193	C	10/16/2020	10:47	-133.485	43.565	0	377.60	0	5.6400	0	36.8170	8	29.041	0	374.243	0	87.4	4	29.3	4	-1E+10	1	-1E+10	1	-1E+10	1	-1E+10	1	-1E+10	1	-1E+10	1
4901784	193	C	10/16/2020	10:47	-133.485	43.565	0	380.20	0	5.5900	0	36.8130	8	29.044	0	376.817	0	86.0	4	28.8	4	-1E+10	1	-1E+10	1	-1E+10	1	-1E+10	1	-1E+10	1	-1E+10	1
4901784	193	C	10/16/2020	10:47	-133.485	43.565	0	382.90	0	5.5410	0	36.8190	8	29.055	0	379.491	0	85.0	4	28.4	4	-1E+10	1	-1E+10	1	-1E+10	1	-1E+10	1	-1E+10	1	-1E+10	1
4901784	193	C	10/16/2020	10:47	-133.485	43.565	0	385.50	0	5.5070	0	36.8090	8	29.052	0	382.065	0	83.9	4	28.0	4	-1E+10	1	-1E+10	1	-1E+10	1	-1E+10	1	-1E+10	1	-1E+10	1
4901784	193	C	10/16/2020	10:47	-133.485	43.565	0	387.20	0	5.4880	0	36.8060	8	29.052	0	383.748	0	83.5	4	27.8	4	-1E+10	1	-1E+10	1	-1E+10	1	-1E+10	1	-1E+10	1	-1E+10	1
4901784	193	C	10/16/2020	10:47	-133.485	43.565	0	389.90	0	5.4060	0	36.8130	8	29.068	0	386.422	0	82.8	4	27.6	4	-1E+10	1	-1E+10	1	-1E+10	1	-1E+10	1	-1E+10	1	-1E+10	1
4901784	193	C	10/16/2020	10:47	-133.485	43.565	0	392.50	0	5.3880	0	36.7970	8	29.057	0	388.996	0	81.8	4	27.2	4	-1E+10	1	-1E+10	1	-1E+10	1	-1E+10	1	-1E+10	1	-1E+10	1
4901784	193	C	10/16/2020	10:47	-133.485	43.565	0	395.20	0	5.3510	0	36.7880	8	29.055	0	391.670	0	80.6	4	26.8	4	-1E+10	1	-1E+10	1	-1E+10	1	-1E+10	1	-1E+10	1	-1E+10	1
4901784	193	C	10/16/2020	10:47	-133.485	43.565	0	397.90	0	5.3110	0	36.7680	8	29.044	0	394.343	0	79.1	4	26.3	4	-1E+10	1	-1E+10	1	-1E+10	1	-1E+10	1	-1E+10	1	-1E+10	1
4901784	193	C	10/16/2020	10:47	-133.485	43.565	0	399.70	0	5.2550	0	36.7900	8	29.068	0	396.125	0	78.2	4	25.9	4	-1E+10	1	-1E+10	1	-1E+10	1	-1E+10	1	-1E+10	1	-1E+10	1
4901784	193	C	10/16/2020	10:47	-133.485	43.565	0	402.40	0	5.2130	0	36.7620	8	29.051	0	398.798	0	76.9	4	25.5	4	-1E+10	1	-1E+10	1	-1E+10	1	-1E+10	1	-1E+10	1	-1E+10	1
4901784	193	C	10/16/2020	10:47	-133.485	43.565	0	405.10	0	5.1570	0	36.7600	8	29.057	0	401.472	0	75.7	4	25.1	4	-1E+10	1	-1E+10	1	-1E+10	1	-1E+10	1	-1E+10	1	-1E+10	1
4901784	193	C	10/16/2020	10:47	-133.485	43.565	0	407.80	0	5.1400	0	36.7670	8	29.064	0	404.145	0	74.6	4	24.7	4	-1E+10	1	-1E+10	1	-1E+10	1	-1E+10	1	-1E+10	1	-1E+10	1
4901784	193	C	10/16/2020	10:47	-133.485	43.565	0	410.50	0	5.0990	0	36.7520	8	29.057	0	406.818	0	73.4	4	24.2	4	-1E+10	1	-1E+10	1	-1E+10	1	-1E+10	1	-1E+10	1	-1E+10	1
4901784	193	C	10/16/2020	10:47	-133.485	43.565	0	412.30	0	5.0810	0	36.7460	8	29.055	0	408.600	0	72.6	4	24.0	4	-1E+10	1	-1E+10	1	-1E+10	1	-1E+10	1	-1E+10	1	-1E+10	1
4901784	193	C	10/16/2020	10:47	-133.485	43.565	0	415.10	0	5.0680	0	36.7490	8	29.059	0	411.372	0	71.5	4	23.6	4	-1E+10	1	-1E+10	1	-1E+10	1	-1E+10	1	-1E+10	1	-1E+10	1
4901784	193	C	10/16/2020	10:47	-133.485	43.565	0	417.80	0	5.0320	0	36.7590	8	29.071	0	414.045	0	70.3	4	23.2	4	-1E+10	1	-1E+10	1	-1E+10	1	-1E+10	1	-1E+10	1	-1E+10	1
4901784	193	C	10/16/2020	10:47	-133.485	43.565	0	419.70	0	5.0250	0	36.7440	8	29.060	0	415.926	0	69.7	4	23.0	4	-1E+10	1	-1E+10	1	-1E+10	1	-1E+10	1	-1E+10	1	-1E+10	1
4901784	193	C	10/16/2020	10:47	-133.485	43.565	0	422.50	0	5.0100	0	36.7400	8	29.059	0	418.698	0	68.7	4	22.7	4	-1E+10	1	-1E+10	1	-1E+10	1	-1E+10	1	-1E+10	1	-1E+10	1
4901784	193	C	10/16/2020	10:47	-133.485	43.565	0	425.20	0	4.9990	0	36.7340	8	29.055	0	421.371	0	67.7	4	22.3	4	-1E+10	1	-1E+10	1	-1E+10	1	-1E+10	1	-1E+10	1	-1E+10	1
4901784	193	C	10/16/2020	10:47	-133.485	43.565	0	427.20	0	4.9740	0	36.7290	8	29.055	0	423.351	0	67.0	4	22.1	4	-1E+10	1	-1E+10	1	-1E+10	1	-1E+10	1	-1E+10	1	-1E+10	1
4901784	193	C	10/16/2020	10:47	-133.485	43.565	0	430.00	0	4.9530	0	36.7410	8	29.067	0	426.123	0	66.0	4	21.7	4	-1E+10	1	-1E+10	1	-1E+10	1	-1E+10	1	-1E+10	1	-1E+10	1
4901784	193	C	10/16/2020	10:47	-133.485	43.565	0	432.80	0	4.9430	0	36.7370	8	29.065	0	428.895	0	65.0	4	21.4	4	-1E+10	1	-1E+10	1	-1E+10	1	-1E+10	1	-1E+10	1	-1E+10	1
4901784	193	C	10/16/2020	10:47	-133.485	43.565	0	434.70	0	4.9310	0	36.7400	8	29.068	0	430.776	0	64.5	4	21.2	4	-1E+10	1	-1E+10	1	-1E+10	1	-1E+10	1	-1E+10	1	-1E+10	1
4901784	193	C	10/16/2020	10:47	-133.485	43.565	0	437.40	0	4.9270	0	36.7260	8	29.058	0	433.448	0	63.6	4	20.9	4	-1E+10	1	-1E+10	1	-1E+10	1	-1E+10	1	-1E+10	1	-1E+10	1
4901784	193	C	10/16/2020	10:47	-133.485	43.565	0	440.20	0	4.9190	0	36.7150	8	29.050	0	436.220	0	62.8	4	20.7	4	-1E+10	1	-1E+10	1	-1E+10	1	-1E+10	1	-1E+10	1	-1E+10	1
4901784	193	C	10/16/2020	10:47	-133.485	43.565	0	442.10	0	4.8970	0	36.7110	8	29.050	0	438.101	0	62.2	4	20.5	4	-1E+10	1	-1E+10	1	-1E+10	1	-1E+10	1	-1E+10	1	-1E+10	1
4901784	193	C	10/16/2020	10:47	-133.485	43.565	0	445.00	0	4.8910	0	36.7140	8	29.053	0	440.972	0	61.3	4	20.1	4	-1E+10	1	-1E+10	1	-1E+10	1	-1E+10	1	-1E+10	1	-1E+10	1
4901784	193	C	10/16/2020	10:47	-133.485	43.565	0	447.80	0	4.8430	0	36.7210	8	29.064	0	443.743	0	60.8	4	20.0	4	-1E+10	1	-1E+10	1	-1E+10	1	-1E+10	1	-1E+10	1	-1E+10	1
4901784	193	C	10/16/2020	10:47	-133.485	43.565	0	449.70	0	4.8280	0	36.7170	8	29.063	0	445.624	0	60.4	4	19.8	4	-1E+10	1	-1E+10	1	-1E+10	1	-1E+10	1	-1E+10	1	-1E+10	1
4901784	193	C	10/16/2020	10:47	-133.485	43.565	0	451.60	0	4.8230	0	36.7240	8	29.069	0	447.505	0	59.8	4	19.6	4	-1E+10	1	-1E+10	1	-1E+10	1	-1E+10	1	-1E+10	1	-1E+10	1
4901784	193	C	10/16/2020	10:47	-133.485	43.565	0	454.70	0	4.8200	0	36.7390	8	29.081	0	450.573	0	58.4	4	19.2	4	-1E+10	1	-1E+10	1	-1E+10	1	-1E+10	1	-1E+10	1	-1E+10	1
4901784	193	C	10/16/2020	10:47	-133.485	43.565	0	457.50	0	4.8520	0	36.7510	8	29.087	0	453.345	0	56.9	4	18.7	4	-1E+10	1	-1E+10	1	-1E+10	1	-1E+10	1	-1E+10	1	-1E+10	1
4901784	193	C	10/16/2020	10:47	-133.485	43.565	0	460.00	0	4.8460	0	36.7550	8	29.091	0	455.820	0	56.1	4	18.4	4	-1E+10	1	-1E+10	1	-1E+10	1	-1E+10	1	-1E+10	1	-1E+10	1
4901784	193	C	10/16/2020	10:47	-133.485	43.565	0	462.30	0	4.8370	0	36.7480	8	29.086	0	458.096	0	55.4	4	18.2	4	-1E+10	1	-1E+10	1	-1E+10	1	-1E+10	1	-1E+10	1	-1E+10	1
4901784	193	C	10/16/2020	10:47	-133.485	43.565	0	464.70	0	4.8340	0	36.7320	8	29.074	0	460.472	0	54.8	4	18.0	4	-1E+10	1	-1E+10	1	-1E+10	1	-1E+10	1	-1E+10	1	-1E+10	1
4901784	193	C	10/16/2020	10:47	-133.485	43.565	0	467.90	0	4.8310	0	36.7150	8	29.061	0	463.639	0	54.2	4	17.8	4	-1E+10	1	-1E+10	1	-1E+10	1	-1E+10	1	-1E+10	1	-1E+10	1
4901784	193	C	10/16/2020	10:47	-133.485	43.565	0	470.20	0	4.8330	0	36.7070	8	29.054	0	465.915	0	53.6	4	17.6	4	-1E+10	1	-1E+10	1	-1E+10	1	-1E+10	1	-1E+10	1	-1E+10	1
4901784	193	C	10/16/2020	10:47	-133.485	43.565	0	472.60	0	4.8200	0	36.7320	8	29.076	0	468.291	0	52.8	4	17.3	4	-1E+10	1	-1E+10	1	-1E+10	1	-1E+10	1	-1E+10	1	-1E+10	1
4901784	193	C	10/16/2020	10:47	-133.485	43.565	0	475.10	0	4.8050	0	36.7340	8	29.079	0	470.765	0	52.0	4	17.1	4	-1E+10	1	-1E+10	1	-1E+10	1	-1E+10	1	-1E+10	1	-1E+10	1
4901784	193	C	10/16/2020	10:47	-133.485	43.565	0	477.50	0	4.7970	0	36.7250	8	29.073	0	473.141	0	51.0	4	16.7	4	-1E+10	1	-1E+10	1	-1E+10	1	-1E+10	1	-1E+10	1	-1E+10	1
4901784	193	C	10/16/2020	10:47	-133.485	43.565	0	480.00	0	4.7930	0	36.7070	8	29.059	0	475.615	0	49.8	4	16.3	4	-1E+10	1	-1E+10	1	-1E+10	1	-1E+10	1	-1E+10	1	-1E+10	1
4901784	193	C	10/16/2020	10:47	-133.485	43.565	0	482.50	0	4.8130	0	36.6990	8	29.050	0	478.089	0	48.6	4	16.0	4	-1E+10	1	-1E+10	1	-1E+10	1	-1E+10	1	-1E+10	1	-1E+10	1
4901784	193	C	10/16/2020	10:47	-133.485	43.565	0	484.90	0	4.7750	0	36.7030	8	29.058	0	480.464	0	47.8	4	15.7	4	-1E+10	1	-1E+10	1	-1E+10	1	-1E+10	1	-1E+10	1	-1E+10	1
4901784	193	C	10/16/2020	10:47	-133.485	43.565	0	487.40	0	4.7740	0	36.6970	8	29.053	0	482.939	0	46.7	4	15.3	4	-1E+10	1	-1E+10	1	-1E+10	1	-1E+10	1	-1E+10	1	-1E+10	1
4901784	193	C	10/16/2020	10:47	-133.485	43.565	0	489.80	0	4.7770	0	36.6840	8	29.043	0	485.314	0	45.5	4	14.9	4	-1E+10	1	-1E+10	1	-1E+10	1	-1E+10	1	-1E+10	1	-1E+10	1
4901784	193	C	10/16/2020	10:47	-133.485	43.565	0	492.30	0	4.7800	0	36.6950	8	29.051	0	487.788	0	44.0	4	14.4	4	-1E+10	1	-1E+10	1	-1E+10	1	-1E+10	1	-1E+10	1	-1E+10	1
4901784	193	C	10/16/2020	10:47	-133.485	43.565	0	494.80	0	4.7840	0	36.6890	8	29.046	0	490.262	0	42.4	4	13.9	4	-1E+10	1	-1E+10	1	-1E+10	1	-1E+10	1	-1E+10	1	-1E+10	1
4901784	193	C	10/16/2020	10:47	-133.485	43.565	0	497.20	0	4.7910	0	36.6930	8	29.048	0	492.637	0	40.6	4	13.3	4	-1E+10	1	-1E+10	1	-1E+10	1	-1E+10	1	-1E+10	1	-1E+10	1
4901784	193	C	10/16/2020	10:47	-133.485	43.565	0	499.80	0	4.8040	0	36.7060	8	29.057	0	495.210	0	38.9	4	12.8	4	-1E+10	1	-1E+10	1	-1E+10	1	-1E+10	1	-1E+10	1	-1E+10	1
4901784	193	C	10/16/2020	10:47	-133.485	43.565	0	504.80	0	4.8470	0	36.7130	8	29.058	0	500.158	0	35.8	4	11.8	4	-1E+10	1	-1E+10	1	-1E+10	1	-1E+10	1	-1E+10	1	-1E+10	1
4901784	193	C	10/16/2020	10:47	-133.485	43.565	0	509.90	0	4.8520	0	36.7170	8	29.060	0	505.205	0	34.2	4	11.2	4	-1E+10	1	-1E+10	1	-1E+10	1	-1E+10	1	-1E+10	1	-1E+10	1
4901784	193	C	10/16/2020	10:47	-133.485	43.565	0	515.00	0	4.8780	0	36.7200	8	29.060	0	510.252	0	32.8	4	10.8	4	-1E+10	1	-1E+10	1	-1E+10	1	-1E+10	1	-1E+10	1	-1E+10	1
4901784	193	C	10/16/2020	10:47	-133.485	43.565	0	520.10	0	4.8770	0	36.7100	8	29.052	0	515.299	0	32.1	4	10.5	4	-1E+10	1	-1E+10	1	-1E+10	1	-1E+10	1	-1E+10	1	-1E+10	1
4901784	193	C	10/16/2020	10:47	-133.485	43.565	0	525.30	0	4.8480	0	36.7040	8	29.051	0	520.444	0	31.5	4	10.3	4	-1E+10	1	-1E+10	1	-1E+10	1	-1E+10	1	-1E+10	1	-1E+10	1
4901784	193	C	10/16/2020	10:47	-133.485	43.565	0	530.50	0	4.8160	0	36.7060	8	29.056	0	525.590	0	30.8	4	10.1	4	-1E+10	1	-1E+10	1	-1E+10	1	-1E+10	1	-1E+10	1	-1E+10	1
4901784	193	C	10/16/2020	10:47	-133.485	43.565	0	535.60	0	4.8020	0	36.7030	8	29.055	0	530.636	0	30.2	4	9.9	4	-1E+10	1	-1E+10	1	-1E+10	1	-1E+10	1	-1E+10	1	-1E+10	1
4901784	193	C	10/16/2020	10:47	-133.485	43.565	0	540.00	0	4.7920	0	36.6980	8	29.053	0	534.990	0	29.5	4	9.7	4	-1E+10	1	-1E+10	1	-1E+10	1	-1E+10	1	-1E+10	1	-1E+10	1
4901784	193	C	10/16/2020	10:47	-133.485	43.565	0	544.40	0	4.7910	0	36.7010	8	29.055	0	539.343	0	28.6	4	9.4	4	-1E+10	1	-1E+10	1	-1E+10	1	-1E+10	1	-1E+10	1	-1E+10	1
4901784	193	C	10/16/2020	10:47	-133.485	43.565	0	549.70	0	4.7680	0	36.7010	8	29.058	0	544.587	0	27.6	4	9.0	4	-1E+10	1	-1E+10	1	-1E+10	1	-1E+10	1	-1E+10	1	-1E+10	1
4901784	193	C	10/16/2020	10:47	-133.485	43.565	0	555.00	0	4.7430	0	36.7020	8	29.062	0	549.831	0	26.7	4	8.7	4	-1E+10	1	-1E+10	1	-1E+10	1	-1E+10	1	-1E+10	1	-1E+10	1
4901784	193	C	10/16/2020	10:47	-133.485	43.565	0	560.30	0	4.7170	0	36.7040	8	29.066	0	555.074	0	25.9	4	8.5	4	-1E+10	1	-1E+10	1	-1E+10	1	-1E+10	1	-1E+10	1	-1E+10	1
4901784	193	C	10/16/2020	10:47	-133.485	43.565	0	565.70	0	4.6630	0	36.7090	8	29.077	0	560.416	0	25.5	4	8.3	4	-1E+10	1	-1E+10	1	-1E+10	1	-1E+10	1	-1E+10	1	-1E+10	1
4901784	193	C	10/16/2020	10:47	-133.485	43.565	0	570.10	0	4.6500	0	36.7060	8	29.076	0	564.769	0	24.9	4	8.1	4	-1E+10	1	-1E+10	1	-1E+10	1	-1E+10	1	-1E+10	1	-1E+10	1
4901784	193	C	10/16/2020	10:47	-133.485	43.565	0	574.70	0	4.6440	0	36.7070	8	29.078	0	569.320	0	24.2	4	7.9	4	-1E+10	1	-1E+10	1	-1E+10	1	-1E+10	1	-1E+10	1	-1E+10	1
4901784	193	C	10/16/2020	10:47	-133.485	43.565	0	580.10	0	4.6310	0	36.7060	8	29.078	0	574.662	0	23.4	4	7.6	4	-1E+10	1	-1E+10	1	-1E+10	1	-1E+10	1	-1E+10	1	-1E+10	1
4901784	193	C	10/16/2020	10:47	-133.485	43.565	0	585.50	0	4.6340	0	36.7130	8	29.084	0	580.004	0	22.4	4	7.3	4	-1E+10	1	-1E+10	1	-1E+10	1	-1E+10	1	-1E+10	1	-1E+10	1
4901784	193	C	10/16/2020	10:47	-133.485	43.565	0	590.00	0	4.6320	0	36.7170	8	29.087	0	584.455	0	21.8	4	7.1	4	-1E+10	1	-1E+10	1	-1E+10	1	-1E+10	1	-1E+10	1	-1E+10	1
4901784	193	C	10/16/2020	10:47	-133.485	43.565	0	594.60	0	4.6220	0	36.7210	8	29.091	0	589.006	0	21.2	4	6.9	4	-1E+10	1	-1E+10	1	-1E+10	1	-1E+10	1	-1E+10	1	-1E+10	1
4901784	193	C	10/16/2020	10:47	-133.485	43.565	0	600.10	0	4.6380	0	36.7270	8	29.094	0	594.446	0	20.6	4	6.7	4	-1E+10	1	-1E+10	1	-1E+10	1	-1E+10	1	-1E+10	1	-1E+10	1
4901784	193	C	10/16/2020	10:47	-133.485	43.565	0	605.60	0	4.6190	0	36.7290	8	29.098	0	599.886	0	20.4	4	6.7	4	-1E+10	1	-1E+10	1	-1E+10	1	-1E+10	1	-1E+10	1	-1E+10	1
4901784	193	C	10/16/2020	10:47	-133.485	43.565	0	610.10	0	4.5780	0	36.7290	8	29.103	0	604.337	0	20.2	4	6.6	4	-1E+10	1	-1E+10	1	-1E+10	1	-1E+10	1	-1E+10	1	-1E+10	1
4901784	193	C	10/16/2020	10:47	-133.485	43.565	0	614.70	0	4.5580	0	36.7350	8	29.110	0	608.887	0	19.6	4	6.4	4	-1E+10	1	-1E+10	1	-1E+10	1	-1E+10	1	-1E+10	1	-1E+10	1
4901784	193	C	10/16/2020	10:47	-133.485	43.565	0	620.20	0	4.5480	0	36.7400	8	29.115	0	614.327	0	19.0	4	6.2	4	-1E+10	1	-1E+10	1	-1E+10	1	-1E+10	1	-1E+10	1	-1E+10	1
4901784	193	C	10/16/2020	10:47	-133.485	43.565	0	625.60	0	4.5340	0	36.7460	8	29.122	0	619.668	0	18.4	4	6.0	4	-1E+10	1	-1E+10	1	-1E+10	1	-1E+10	1	-1E+10	1	-1E+10	1
4901784	193	C	10/16/2020	10:47	-133.485	43.565	0	630.20	0	4.5300	0	36.7510	8	29.126	0	624.217	0	18.1	4	5.9	4	-1E+10	1	-1E+10	1	-1E+10	1	-1E+10	1	-1E+10	1	-1E+10	1
4901784	193	C	10/16/2020	10:47	-133.485	43.565	0	634.70	0	4.5130	0	36.7540	8	29.131	0	628.668	0	17.8	4	5.8	4	-1E+10	1	-1E+10	1	-1E+10	1	-1E+10	1	-1E+10	1	-1E+10	1
4901784	193	C	10/16/2020	10:47	-133.485	43.565	0	640.20	0	4.4880	0	36.7570	8	29.136	0	634.107	0	17.5	4	5.7	4	-1E+10	1	-1E+10	1	-1E+10	1	-1E+10	1	-1E+10	1	-1E+10	1
4901784	193	C	10/16/2020	10:47	-133.485	43.565	0	644.80	0	4.4770	0	36.7600	8	29.140	0	638.656	0	17.3	4	5.6	4	-1E+10	1	-1E+10	1	-1E+10	1	-1E+10	1	-1E+10	1	-1E+10	1
4901784	193	C	10/16/2020	10:47	-133.485	43.565	0	649.50	0	4.4680	0	36.7620	8	29.142	0	643.304	0	16.8	4	5.5	4	-1E+10	1	-1E+10	1	-1E+10	1	-1E+10	1	-1E+10	1	-1E+10	1
4901784	193	C	10/16/2020	10:47	-133.485	43.565	0	655.10	0	4.4560	0	36.7690	8	29.149	0	648.842	0	16.1	4	5.3	4	-1E+10	1	-1E+10	1	-1E+10	1	-1E+10	1	-1E+10	1	-1E+10	1
4901784	193	C	10/16/2020	10:47	-133.485	43.565	0	659.80	0	4.4480	0	36.7750	8	29.155	0	653.490	0	15.8	4	5.1	4	-1E+10	1	-1E+10	1	-1E+10	1	-1E+10	1	-1E+10	1	-1E+10	1
4901784	193	C	10/16/2020	10:47	-133.485	43.565	0	664.90	0	4.4110	0	36.7790	8	29.162	0	658.533	0	15.6	4	5.1	4	-1E+10	1	-1E+10	1	-1E+10	1	-1E+10	1	-1E+10	1	-1E+10	1
4901784	193	C	10/16/2020	10:47	-133.485	43.565	0	670.10	0	4.3830	0	36.7840	8	29.170	0	663.675	0	15.2	4	5.0	4	-1E+10	1	-1E+10	1	-1E+10	1	-1E+10	1	-1E+10	1	-1E+10	1
4901784	193	C	10/16/2020	10:47	-133.485	43.565	0	674.90	0	4.3710	0	36.7870	8	29.173	0	668.421	0	15.0	4	4.9	4	-1E+10	1	-1E+10	1	-1E+10	1	-1E+10	1	-1E+10	1	-1E+10	1
4901784	193	C	10/16/2020	10:47	-133.485	43.565	0	679.80	0	4.3530	0	36.7910	8	29.179	0	673.266	0	14.7	4	4.8	4	-1E+10	1	-1E+10	1	-1E+10	1	-1E+10	1	-1E+10	1	-1E+10	1
4901784	193	C	10/16/2020	10:47	-133.485	43.565	0	684.60	0	4.3410	0	36.7960	8	29.184	0	678.012	0	14.2	4	4.6	4	-1E+10	1	-1E+10	1	-1E+10	1	-1E+10	1	-1E+10	1	-1E+10	1
4901784	193	C	10/16/2020	10:47	-133.485	43.565	0	689.60	0	4.3330	0	36.8040	8	29.191	0	682.956	0	13.8	4	4.5	4	-1E+10	1	-1E+10	1	-1E+10	1	-1E+10	1	-1E+10	1	-1E+10	1
4901784	193	C	10/16/2020	10:47	-133.485	43.565	0	694.60	0	4.3230	0	36.8110	8	29.198	0	687.900	0	13.5	4	4.4	4	-1E+10	1	-1E+10	1	-1E+10	1	-1E+10	1	-1E+10	1	-1E+10	1
4901784	193	C	10/16/2020	10:47	-133.485	43.565	0	699.60	0	4.3060	0	36.8140	8	29.202	0	692.843	0	13.3	4	4.3	4	-1E+10	1	-1E+10	1	-1E+10	1	-1E+10	1	-1E+10	1	-1E+10	1
4901784	193	C	10/16/2020	10:47	-133.485	43.565	0	704.60	0	4.2950	0	36.8170	8	29.206	0	697.786	0	13.1	4	4.3	4	-1E+10	1	-1E+10	1	-1E+10	1	-1E+10	1	-1E+10	1	-1E+10	1
4901784	193	C	10/16/2020	10:47	-133.485	43.565	0	709.70	0	4.2870	0	36.8210	8	29.210	0	702.829	0	12.9	4	4.2	4	-1E+10	1	-1E+10	1	-1E+10	1	-1E+10	1	-1E+10	1	-1E+10	1
4901784	193	C	10/16/2020	10:47	-133.485	43.565	0	714.80	0	4.2740	0	36.8240	8	29.214	0	707.871	0	12.8	4	4.1	4	-1E+10	1	-1E+10	1	-1E+10	1	-1E+10	1	-1E+10	1	-1E+10	1
4901784	193	C	10/16/2020	10:47	-133.485	43.565	0	719.90	0	4.2560	0	36.8280	8	29.219	0	712.912	0	12.5	4	4.1	4	-1E+10	1	-1E+10	1	-1E+10	1	-1E+10	1	-1E+10	1	-1E+10	1
4901784	193	C	10/16/2020	10:47	-133.485	43.565	0	725.00	0	4.2440	0	36.8330	8	29.225	0	717.954	0	12.3	4	4.0	4	-1E+10	1	-1E+10	1	-1E+10	1	-1E+10	1	-1E+10	1	-1E+10	1
4901784	193	C	10/16/2020	10:47	-133.485	43.565	0	730.20	0	4.2280	0	36.8370	8	29.230	0	723.095	0	12.1	4	3.9	4	-1E+10	1	-1E+10	1	-1E+10	1	-1E+10	1	-1E+10	1	-1E+10	1
4901784	193	C	10/16/2020	10:47	-133.485	43.565	0	735.40	0	4.2100	0	36.8430	8	29.237	0	728.235	0	12.0	4	3.9	4	-1E+10	1	-1E+10	1	-1E+10	1	-1E+10	1	-1E+10	1	-1E+10	1
4901784	193	C	10/16/2020	10:47	-133.485	43.565	0	740.60	0	4.1910	0	36.8460	8	29.241	0	733.375	0	11.9	4	3.8	4	-1E+10	1	-1E+10	1	-1E+10	1	-1E+10	1	-1E+10	1	-1E+10	1
4901784	193	C	10/16/2020	10:47	-133.485	43.565	0	744.90	0	4.1710	0	36.8480	8	29.245	0	737.626	0	11.8	4	3.8	4	-1E+10	1	-1E+10	1	-1E+10	1	-1E+10	1	-1E+10	1	-1E+10	1
4901784	193	C	10/16/2020	10:47	-133.485	43.565	0	749.30	0	4.1570	0	36.8500	8	29.248	0	741.975	0	11.7	4	3.8	4	-1E+10	1	-1E+10	1	-1E+10	1	-1E+10	1	-1E+10	1	-1E+10	1
4901784	193	C	10/16/2020	10:47	-133.485	43.565	0	754.60	0	4.1370	0	36.8530	8	29.253	0	747.213	0	11.6	4	3.7	4	-1E+10	1	-1E+10	1	-1E+10	1	-1E+10	1	-1E+10	1	-1E+10	1
4901784	193	C	10/16/2020	10:47	-133.485	43.565	0	759.90	0	4.1230	0	36.8560	8	29.257	0	752.452	0	11.5	4	3.7	4	-1E+10	1	-1E+10	1	-1E+10	1	-1E+10	1	-1E+10	1	-1E+10	1
4901784	193	C	10/16/2020	10:47	-133.485	43.565	0	765.30	0	4.1130	0	36.8600	8	29.261	0	757.789	0	11.3	4	3.7	4	-1E+10	1	-1E+10	1	-1E+10	1	-1E+10	1	-1E+10	1	-1E+10	1
4901784	193	C	10/16/2020	10:47	-133.485	43.565	0	769.80	0	4.1050	0	36.8630	8	29.264	0	762.237	0	11.2	4	3.6	4	-1E+10	1	-1E+10	1	-1E+10	1	-1E+10	1	-1E+10	1	-1E+10	1
4901784	193	C	10/16/2020	10:47	-133.485	43.565	0	774.40	0	4.0820	0	36.8660	8	29.269	0	766.783	0	11.1	4	3.6	4	-1E+10	1	-1E+10	1	-1E+10	1	-1E+10	1	-1E+10	1	-1E+10	1
4901784	193	C	10/16/2020	10:47	-133.485	43.565	0	779.80	0	4.0530	0	36.8720	8	29.277	0	772.120	0	11.0	4	3.6	4	-1E+10	1	-1E+10	1	-1E+10	1	-1E+10	1	-1E+10	1	-1E+10	1
4901784	193	C	10/16/2020	10:47	-133.485	43.565	0	785.30	0	4.0440	0	36.8760	8	29.282	0	777.556	0	10.9	4	3.5	4	-1E+10	1	-1E+10	1	-1E+10	1	-1E+10	1	-1E+10	1	-1E+10	1
4901784	193	C	10/16/2020	10:47	-133.485	43.565	0	789.80	0	4.0280	0	36.8790	8	29.286	0	782.003	0	10.9	4	3.5	4	-1E+10	1	-1E+10	1	-1E+10	1	-1E+10	1	-1E+10	1	-1E+10	1
4901784	193	C	10/16/2020	10:47	-133.485	43.565	0	794.40	0	4.0120	0	36.8790	8	29.288	0	786.549	0	10.8	4	3.5	4	-1E+10	1	-1E+10	1	-1E+10	1	-1E+10	1	-1E+10	1	-1E+10	1
4901784	193	C	10/16/2020	10:47	-133.485	43.565	0	800.20	0	3.9900	0	36.8840	8	29.294	0	792.281	0	10.7	4	3.5	4	-1E+10	1	-1E+10	1	-1E+10	1	-1E+10	1	-1E+10	1	-1E+10	1
4901784	193	C	10/16/2020	10:47	-133.485	43.565	0	805.20	0	3.9740	0	36.8850	8	29.297	0	797.222	0	10.7	4	3.4	4	-1E+10	1	-1E+10	1	-1E+10	1	-1E+10	1	-1E+10	1	-1E+10	1
4901784	193	C	10/16/2020	10:47	-133.485	43.565	0	810.00	0	3.9590	0	36.8880	8	29.301	0	801.965	0	10.6	4	3.4	4	-1E+10	1	-1E+10	1	-1E+10	1	-1E+10	1	-1E+10	1	-1E+10	1
4901784	193	C	10/16/2020	10:47	-133.485	43.565	0	814.80	0	3.9430	0	36.8930	8	29.306	0	806.708	0	10.5	4	3.4	4	-1E+10	1	-1E+10	1	-1E+10	1	-1E+10	1	-1E+10	1	-1E+10	1
4901784	193	C	10/16/2020	10:47	-133.485	43.565	0	819.60	0	3.9360	0	36.8970	8	29.310	0	811.451	0	10.4	4	3.4	4	-1E+10	1	-1E+10	1	-1E+10	1	-1E+10	1	-1E+10	1	-1E+10	1
4901784	193	C	10/16/2020	10:47	-133.485	43.565	0	824.60	0	3.9420	0	36.9030	8	29.314	0	816.391	0	10.4	4	3.3	4	-1E+10	1	-1E+10	1	-1E+10	1	-1E+10	1	-1E+10	1	-1E+10	1
4901784	193	C	10/16/2020	10:47	-133.485	43.565	0	829.60	0	3.9290	0	36.9040	8	29.317	0	821.332	0	10.3	4	3.3	4	-1E+10	1	-1E+10	1	-1E+10	1	-1E+10	1	-1E+10	1	-1E+10	1
4901784	193	C	10/16/2020	10:47	-133.485	43.565	0	834.60	0	3.9140	0	36.9080	8	29.322	0	826.272	0	10.3	4	3.3	4	-1E+10	1	-1E+10	1	-1E+10	1	-1E+10	1	-1E+10	1	-1E+10	1
4901784	193	C	10/16/2020	10:47	-133.485	43.565	0	839.60	0	3.8970	0	36.9100	8	29.325	0	831.212	0	10.2	4	3.3	4	-1E+10	1	-1E+10	1	-1E+10	1	-1E+10	1	-1E+10	1	-1E+10	1
4901784	193	C	10/16/2020	10:47	-133.485	43.565	0	844.70	0	3.8900	0	36.9150	8	29.330	0	836.251	0	10.2	4	3.3	4	-1E+10	1	-1E+10	1	-1E+10	1	-1E+10	1	-1E+10	1	-1E+10	1
4901784	193	C	10/16/2020	10:47	-133.485	43.565	0	850.00	0	3.8870	0	36.9170	8	29.332	0	841.488	0	10.2	4	3.3	4	-1E+10	1	-1E+10	1	-1E+10	1	-1E+10	1	-1E+10	1	-1E+10	1
4901784	193	C	10/16/2020	10:47	-133.485	43.565	0	855.10	0	3.8850	0	36.9190	8	29.334	0	846.526	0	10.1	4	3.3	4	-1E+10	1	-1E+10	1	-1E+10	1	-1E+10	1	-1E+10	1	-1E+10	1
4901784	193	C	10/16/2020	10:47	-133.485	43.565	0	860.30	0	3.8730	0	36.9240	8	29.339	0	851.663	0	10.1	4	3.2	4	-1E+10	1	-1E+10	1	-1E+10	1	-1E+10	1	-1E+10	1	-1E+10	1
4901784	193	C	10/16/2020	10:47	-133.485	43.565	0	865.60	0	3.8660	0	36.9290	8	29.344	0	856.899	0	10.1	4	3.2	4	-1E+10	1	-1E+10	1	-1E+10	1	-1E+10	1	-1E+10	1	-1E+10	1
4901784	193	C	10/16/2020	10:47	-133.485	43.565	0	870.00	0	3.8550	0	36.9320	8	29.347	0	861.246	0	10.1	4	3.2	4	-1E+10	1	-1E+10	1	-1E+10	1	-1E+10	1	-1E+10	1	-1E+10	1
4901784	193	C	10/16/2020	10:47	-133.485	43.565	0	874.50	0	3.8490	0	36.9380	8	29.353	0	865.691	0	10.0	4	3.2	4	-1E+10	1	-1E+10	1	-1E+10	1	-1E+10	1	-1E+10	1	-1E+10	1
4901784	193	C	10/16/2020	10:47	-133.485	43.565	0	879.90	0	3.8310	0	36.9390	8	29.356	0	871.026	0	10.0	4	3.2	4	-1E+10	1	-1E+10	1	-1E+10	1	-1E+10	1	-1E+10	1	-1E+10	1
4901784	193	C	10/16/2020	10:47	-133.485	43.565	0	885.40	0	3.8140	0	36.9410	8	29.359	0	876.459	0	10.0	4	3.2	4	-1E+10	1	-1E+10	1	-1E+10	1	-1E+10	1	-1E+10	1	-1E+10	1
4901784	193	C	10/16/2020	10:47	-133.485	43.565	0	889.90	0	3.8030	0	36.9450	8	29.363	0	880.904	0	10.0	4	3.2	4	-1E+10	1	-1E+10	1	-1E+10	1	-1E+10	1	-1E+10	1	-1E+10	1
4901784	193	C	10/16/2020	10:47	-133.485	43.565	0	894.50	0	3.7620	0	36.9440	8	29.367	0	885.448	0	10.0	4	3.2	4	-1E+10	1	-1E+10	1	-1E+10	1	-1E+10	1	-1E+10	1	-1E+10	1
4901784	193	C	10/16/2020	10:47	-133.485	43.565	0	900.00	0	3.7290	0	36.9470	8	29.373	0	890.880	0	10.0	4	3.2	4	-1E+10	1	-1E+10	1	-1E+10	1	-1E+10	1	-1E+10	1	-1E+10	1
4901784	193	C	10/16/2020	10:47	-133.485	43.565	0	905.50	0	3.7250	0	36.9510	8	29.377	0	896.313	0	10.0	4	3.2	4	-1E+10	1	-1E+10	1	-1E+10	1	-1E+10	1	-1E+10	1	-1E+10	1
4901784	193	C	10/16/2020	10:47	-133.485	43.565	0	910.20	0	3.7180	0	36.9530	8	29.379	0	900.955	0	10.1	4	3.2	4	-1E+10	1	-1E+10	1	-1E+10	1	-1E+10	1	-1E+10	1	-1E+10	1
4901784	193	C	10/16/2020	10:47	-133.485	43.565	0	914.90	0	3.7180	0	36.9570	8	29.382	0	905.597	0	10.1	4	3.2	4	-1E+10	1	-1E+10	1	-1E+10	1	-1E+10	1	-1E+10	1	-1E+10	1
4901784	193	C	10/16/2020	10:47	-133.485	43.565	0	919.70	0	3.7180	0	36.9610	8	29.385	0	910.338	0	10.1	4	3.2	4	-1E+10	1	-1E+10	1	-1E+10	1	-1E+10	1	-1E+10	1	-1E+10	1
4901784	193	C	10/16/2020	10:47	-133.485	43.565	0	924.40	0	3.7010	0	36.9620	8	29.388	0	914.980	0	10.1	4	3.2	4	-1E+10	1	-1E+10	1	-1E+10	1	-1E+10	1	-1E+10	1	-1E+10	1
4901784	193	C	10/16/2020	10:47	-133.485	43.565	0	930.00	0	3.6400	0	36.9640	8	29.396	0	920.510	0	10.1	4	3.2	4	-1E+10	1	-1E+10	1	-1E+10	1	-1E+10	1	-1E+10	1	-1E+10	1
4901784	193	C	10/16/2020	10:47	-133.485	43.565	0	934.80	0	3.6290	0	36.9690	8	29.401	0	925.251	0	10.2	4	3.3	4	-1E+10	1	-1E+10	1	-1E+10	1	-1E+10	1	-1E+10	1	-1E+10	1
4901784	193	C	10/16/2020	10:47	-133.485	43.565	0	939.60	0	3.6660	0	36.9720	8	29.400	0	929.991	0	10.2	4	3.3	4	-1E+10	1	-1E+10	1	-1E+10	1	-1E+10	1	-1E+10	1	-1E+10	1
4901784	193	C	10/16/2020	10:47	-133.485	43.565	0	945.40	0	3.6220	0	36.9730	8	29.405	0	935.719	0	10.2	4	3.3	4	-1E+10	1	-1E+10	1	-1E+10	1	-1E+10	1	-1E+10	1	-1E+10	1
4901784	193	C	10/16/2020	10:47	-133.485	43.565	0	950.20	0	3.6110	0	36.9770	8	29.410	0	940.459	0	10.2	4	3.3	4	-1E+10	1	-1E+10	1	-1E+10	1	-1E+10	1	-1E+10	1	-1E+10	1
4901784	193	C	10/16/2020	10:47	-133.485	43.565	0	955.00	0	3.5960	0	36.9790	8	29.413	0	945.199	0	10.3	4	3.3	4	-1E+10	1	-1E+10	1	-1E+10	1	-1E+10	1	-1E+10	1	-1E+10	1
4901784	193	C	10/16/2020	10:47	-133.485	43.565	0	959.90	0	3.5750	0	36.9830	8	29.418	0	950.038	0	10.4	4	3.3	4	-1E+10	1	-1E+10	1	-1E+10	1	-1E+10	1	-1E+10	1	-1E+10	1
4901784	193	C	10/16/2020	10:47	-133.485	43.565	0	964.70	0	3.6140	0	36.9900	8	29.420	0	954.777	0	10.6	4	3.4	4	-1E+10	1	-1E+10	1	-1E+10	1	-1E+10	1	-1E+10	1	-1E+10	1
4901784	193	C	10/16/2020	10:47	-133.485	43.565	0	970.40	0	3.5950	0	36.9880	8	29.420	0	960.406	0	10.5	4	3.3	4	-1E+10	1	-1E+10	1	-1E+10	1	-1E+10	1	-1E+10	1	-1E+10	1
4901784	193	C	10/16/2020	10:47	-133.485	43.565	0	975.30	0	3.5750	0	36.9900	8	29.424	0	965.244	0	10.4	4	3.3	4	-1E+10	1	-1E+10	1	-1E+10	1	-1E+10	1	-1E+10	1	-1E+10	1
4901784	193	C	10/16/2020	10:47	-133.485	43.565	0	980.10	0	3.5290	0	36.9870	8	29.426	0	969.983	0	10.3	4	3.3	4	-1E+10	1	-1E+10	1	-1E+10	1	-1E+10	1	-1E+10	1	-1E+10	1
4901784	193	C	10/16/2020	10:47	-133.485	43.565	0	985.00	0	3.5090	0	36.9880	8	29.429	0	974.821	0	10.3	4	3.3	4	-1E+10	1	-1E+10	1	-1E+10	1	-1E+10	1	-1E+10	1	-1E+10	1
4901784	193	C	10/16/2020	10:47	-133.485	43.565	0	989.70	0	3.5030	0	36.9890	8	29.431	0	979.462	0	10.3	4	3.3	4	-1E+10	1	-1E+10	1	-1E+10	1	-1E+10	1	-1E+10	1	-1E+10	1
4901784	193	C	10/16/2020	10:47	-133.485	43.565	0	994.60	0	3.4940	0	36.9920	8	29.434	0	984.299	0	10.3	4	3.3	4	-1E+10	1	-1E+10	1	-1E+10	1	-1E+10	1	-1E+10	1	-1E+10	1
4901784	193	C	10/16/2020	10:47	-133.485	43.565	0	999.50	0	3.4850	0	36.9950	8	29.438	0	989.137	0	10.4	4	3.3	4	-1E+10	1	-1E+10	1	-1E+10	1	-1E+10	1	-1E+10	1	-1E+10	1
4901784	193	C	10/16/2020	10:47	-133.485	43.565	0	1004.30	0	3.4770	0	36.9970	8	29.440	0	993.876	0	10.5	4	3.3	4	-1E+10	1	-1E+10	1	-1E+10	1	-1E+10	1	-1E+10	1	-1E+10	1
4901784	193	C	10/16/2020	10:47	-133.485	43.565	0	1009.10	0	3.4680	0	37.0000	8	29.443	0	998.615	0	10.6	4	3.4	4	-1E+10	1	-1E+10	1	-1E+10	1	-1E+10	1	-1E+10	1	-1E+10	1
4901784	193	C	10/16/2020	10:47	-133.485	43.565	0	1014.50	0	3.4480	0	37.0040	8	29.449	0	1003.946	0	10.6	4	3.4	4	-1E+10	1	-1E+10	1	-1E+10	1	-1E+10	1	-1E+10	1	-1E+10	1
4901784	193	C	10/16/2020	10:47	-133.485	43.565	0	1019.40	0	3.4410	0	37.0060	8	29.451	0	1008.783	0	10.7	4	3.4	4	-1E+10	1	-1E+10	1	-1E+10	1	-1E+10	1	-1E+10	1	-1E+10	1
4901784	193	C	10/16/2020	10:47	-133.485	43.565	0	1024.30	0	3.4350	0	37.0090	8	29.454	0	1013.620	0	10.8	4	3.4	4	-1E+10	1	-1E+10	1	-1E+10	1	-1E+10	1	-1E+10	1	-1E+10	1
4901784	193	C	10/16/2020	10:47	-133.485	43.565	0	1029.30	0	3.4250	0	37.0110	8	29.457	0	1018.556	0	10.9	4	3.5	4	-1E+10	1	-1E+10	1	-1E+10	1	-1E+10	1	-1E+10	1	-1E+10	1
4901784	193	C	10/16/2020	10:47	-133.485	43.565	0	1034.20	0	3.4210	0	37.0150	8	29.460	0	1023.393	0	11.0	4	3.5	4	-1E+10	1	-1E+10	1	-1E+10	1	-1E+10	1	-1E+10	1	-1E+10	1
4901784	193	C	10/16/2020	10:47	-133.485	43.565	0	1040.00	0	3.4010	0	37.0180	8	29.465	0	1029.118	0	11.1	4	3.5	4	-1E+10	1	-1E+10	1	-1E+10	1	-1E+10	1	-1E+10	1	-1E+10	1
4901784	193	C	10/16/2020	10:47	-133.485	43.565	0	1045.00	0	3.3950	0	37.0200	8	29.467	0	1034.053	0	11.2	4	3.6	4	-1E+10	1	-1E+10	1	-1E+10	1	-1E+10	1	-1E+10	1	-1E+10	1
4901784	193	C	10/16/2020	10:47	-133.485	43.565	0	1050.00	0	3.3810	0	37.0230	8	29.471	0	1038.989	0	11.3	4	3.6	4	-1E+10	1	-1E+10	1	-1E+10	1	-1E+10	1	-1E+10	1	-1E+10	1
4901784	193	C	10/16/2020	10:47	-133.485	43.565	0	1055.00	0	3.3710	0	37.0260	8	29.474	0	1043.924	0	11.4	4	3.6	4	-1E+10	1	-1E+10	1	-1E+10	1	-1E+10	1	-1E+10	1	-1E+10	1
4901784	193	C	10/16/2020	10:47	-133.485	43.565	0	1059.20	0	3.3660	0	37.0270	8	29.476	0	1048.069	0	11.4	4	3.6	4	-1E+10	1	-1E+10	1	-1E+10	1	-1E+10	1	-1E+10	1	-1E+10	1
4901784	193	C	10/16/2020	10:47	-133.485	43.565	0	1064.20	0	3.3510	0	37.0290	8	29.479	0	1053.004	0	11.5	4	3.7	4	-1E+10	1	-1E+10	1	-1E+10	1	-1E+10	1	-1E+10	1	-1E+10	1
4901784	193	C	10/16/2020	10:47	-133.485	43.565	0	1069.30	0	3.3400	0	37.0320	8	29.482	0	1058.038	0	11.6	4	3.7	4	-1E+10	1	-1E+10	1	-1E+10	1	-1E+10	1	-1E+10	1	-1E+10	1
4901784	193	C	10/16/2020	10:47	-133.485	43.565	0	1074.30	0	3.3320	0	37.0340	8	29.485	0	1062.972	0	11.7	4	3.7	4	-1E+10	1	-1E+10	1	-1E+10	1	-1E+10	1	-1E+10	1	-1E+10	1
4901784	193	C	10/16/2020	10:47	-133.485	43.565	0	1079.40	0	3.3180	0	37.0360	8	29.488	0	1068.005	0	11.8	4	3.7	4	-1E+10	1	-1E+10	1	-1E+10	1	-1E+10	1	-1E+10	1	-1E+10	1
4901784	193	C	10/16/2020	10:47	-133.485	43.565	0	1084.50	0	3.3010	0	37.0380	8	29.491	0	1073.039	0	11.8	4	3.8	4	-1E+10	1	-1E+10	1	-1E+10	1	-1E+10	1	-1E+10	1	-1E+10	1
4901784	193	C	10/16/2020	10:47	-133.485	43.565	0	1089.50	0	3.2940	0	37.0400	8	29.494	0	1077.973	0	11.9	4	3.8	4	-1E+10	1	-1E+10	1	-1E+10	1	-1E+10	1	-1E+10	1	-1E+10	1
4901784	193	C	10/16/2020	10:47	-133.485	43.565	0	1094.60	0	3.2840	0	37.0420	8	29.496	0	1083.006	0	12.1	4	3.8	4	-1E+10	1	-1E+10	1	-1E+10	1	-1E+10	1	-1E+10	1	-1E+10	1
4901784	193	C	10/16/2020	10:47	-133.485	43.565	0	1099.70	0	3.2780	0	37.0440	8	29.498	0	1088.038	0	12.1	4	3.9	4	-1E+10	1	-1E+10	1	-1E+10	1	-1E+10	1	-1E+10	1	-1E+10	1
4901784	193	C	10/16/2020	10:47	-133.485	43.565	0	1104.80	0	3.2730	0	37.0450	8	29.500	0	1093.071	0	12.2	4	3.9	4	-1E+10	1	-1E+10	1	-1E+10	1	-1E+10	1	-1E+10	1	-1E+10	1
4901784	193	C	10/16/2020	10:47	-133.485	43.565	0	1110.20	0	3.2590	0	37.0470	8	29.503	0	1098.400	0	12.3	4	3.9	4	-1E+10	1	-1E+10	1	-1E+10	1	-1E+10	1	-1E+10	1	-1E+10	1
4901784	193	C	10/16/2020	10:47	-133.485	43.565	0	1115.60	0	3.2450	0	37.0490	8	29.506	0	1103.728	0	12.4	4	3.9	4	-1E+10	1	-1E+10	1	-1E+10	1	-1E+10	1	-1E+10	1	-1E+10	1
4901784	193	C	10/16/2020	10:47	-133.485	43.565	0	1120.00	0	3.2430	0	37.0510	8	29.508	0	1108.070	0	12.4	4	3.9	4	-1E+10	1	-1E+10	1	-1E+10	1	-1E+10	1	-1E+10	1	-1E+10	1
4901784	193	C	10/16/2020	10:47	-133.485	43.565	0	1124.60	0	3.2290	0	37.0510	8	29.509	0	1112.609	0	12.5	4	4.0	4	-1E+10	1	-1E+10	1	-1E+10	1	-1E+10	1	-1E+10	1	-1E+10	1
4901784	193	C	10/16/2020	10:47	-133.485	43.565	0	1130.20	0	3.2180	0	37.0550	8	29.513	0	1118.134	0	12.8	4	4.0	4	-1E+10	1	-1E+10	1	-1E+10	1	-1E+10	1	-1E+10	1	-1E+10	1
4901784	193	C	10/16/2020	10:47	-133.485	43.565	0	1134.90	0	3.2150	0	37.0580	8	29.516	0	1122.771	0	13.0	4	4.1	4	-1E+10	1	-1E+10	1	-1E+10	1	-1E+10	1	-1E+10	1	-1E+10	1
4901784	193	C	10/16/2020	10:47	-133.485	43.565	0	1139.60	0	3.2090	0	37.0600	8	29.518	0	1127.408	0	13.1	4	4.1	4	-1E+10	1	-1E+10	1	-1E+10	1	-1E+10	1	-1E+10	1	-1E+10	1
4901784	193	C	10/16/2020	10:47	-133.485	43.565	0	1145.20	0	3.2000	0	37.0610	8	29.520	0	1132.933	0	13.2	4	4.2	4	-1E+10	1	-1E+10	1	-1E+10	1	-1E+10	1	-1E+10	1	-1E+10	1
4901784	193	C	10/16/2020	10:47	-133.485	43.565	0	1149.90	0	3.1870	0	37.0630	8	29.523	0	1137.570	0	13.2	4	4.2	4	-1E+10	1	-1E+10	1	-1E+10	1	-1E+10	1	-1E+10	1	-1E+10	1
4901784	193	C	10/16/2020	10:47	-133.485	43.565	0	1154.70	0	3.1790	0	37.0640	8	29.525	0	1142.306	0	13.3	4	4.2	4	-1E+10	1	-1E+10	1	-1E+10	1	-1E+10	1	-1E+10	1	-1E+10	1
4901784	193	C	10/16/2020	10:47	-133.485	43.565	0	1160.30	0	3.1610	0	37.0660	8	29.528	0	1147.830	0	13.4	4	4.2	4	-1E+10	1	-1E+10	1	-1E+10	1	-1E+10	1	-1E+10	1	-1E+10	1
4901784	193	C	10/16/2020	10:47	-133.485	43.565	0	1165.00	0	3.1480	0	37.0680	8	29.531	0	1152.467	0	13.4	4	4.3	4	-1E+10	1	-1E+10	1	-1E+10	1	-1E+10	1	-1E+10	1	-1E+10	1
4901784	193	C	10/16/2020	10:47	-133.485	43.565	0	1169.70	0	3.1450	0	37.0690	8	29.532	0	1157.103	0	13.6	4	4.3	4	-1E+10	1	-1E+10	1	-1E+10	1	-1E+10	1	-1E+10	1	-1E+10	1
4901784	193	C	10/16/2020	10:47	-133.485	43.565	0	1175.50	0	3.1410	0	37.0710	8	29.534	0	1162.825	0	13.8	4	4.4	4	-1E+10	1	-1E+10	1	-1E+10	1	-1E+10	1	-1E+10	1	-1E+10	1
4901784	193	C	10/16/2020	10:47	-133.485	43.565	0	1180.40	0	3.1360	0	37.0730	8	29.536	0	1167.659	0	13.9	4	4.4	4	-1E+10	1	-1E+10	1	-1E+10	1	-1E+10	1	-1E+10	1	-1E+10	1
4901784	193	C	10/16/2020	10:47	-133.485	43.565	0	1185.20	0	3.1260	0	37.0740	8	29.538	0	1172.393	0	14.0	4	4.4	4	-1E+10	1	-1E+10	1	-1E+10	1	-1E+10	1	-1E+10	1	-1E+10	1
4901784	193	C	10/16/2020	10:47	-133.485	43.565	0	1190.10	0	3.1110	0	37.0770	8	29.542	0	1177.227	0	14.2	4	4.5	4	-1E+10	1	-1E+10	1	-1E+10	1	-1E+10	1	-1E+10	1	-1E+10	1
4901784	193	C	10/16/2020	10:47	-133.485	43.565	0	1194.90	0	3.1040	0	37.0780	8	29.544	0	1181.961	0	14.3	4	4.5	4	-1E+10	1	-1E+10	1	-1E+10	1	-1E+10	1	-1E+10	1	-1E+10	1
4901784	193	C	10/16/2020	10:47	-133.485	43.565	0	1199.70	0	3.0910	0	37.0800	8	29.547	0	1186.696	0	14.5	4	4.6	4	-1E+10	1	-1E+10	1	-1E+10	1	-1E+10	1	-1E+10	1	-1E+10	1
4901784	193	C	10/16/2020	10:47	-133.485	43.565	0	1204.50	0	3.0790	0	37.0820	8	29.549	0	1191.430	0	14.7	4	4.6	4	-1E+10	1	-1E+10	1	-1E+10	1	-1E+10	1	-1E+10	1	-1E+10	1
4901784	193	C	10/16/2020	10:47	-133.485	43.565	0	1210.40	0	3.0610	0	37.0850	8	29.554	0	1197.249	0	14.9	4	4.7	4	-1E+10	1	-1E+10	1	-1E+10	1	-1E+10	1	-1E+10	1	-1E+10	1
4901784	193	C	10/16/2020	10:47	-133.485	43.565	0	1215.30	0	3.0500	0	37.0880	8	29.557	0	1202.082	0	15.0	4	4.7	4	-1E+10	1	-1E+10	1	-1E+10	1	-1E+10	1	-1E+10	1	-1E+10	1
4901784	193	C	10/16/2020	10:47	-133.485	43.565	0	1220.20	0	3.0410	0	37.0890	8	29.559	0	1206.915	0	15.2	4	4.8	4	-1E+10	1	-1E+10	1	-1E+10	1	-1E+10	1	-1E+10	1	-1E+10	1
4901784	193	C	10/16/2020	10:47	-133.485	43.565	0	1225.20	0	3.0330	0	37.0910	8	29.561	0	1211.846	0	15.3	4	4.8	4	-1E+10	1	-1E+10	1	-1E+10	1	-1E+10	1	-1E+10	1	-1E+10	1
4901784	193	C	10/16/2020	10:47	-133.485	43.565	0	1230.20	0	3.0240	0	37.0920	8	29.563	0	1216.777	0	15.4	4	4.9	4	-1E+10	1	-1E+10	1	-1E+10	1	-1E+10	1	-1E+10	1	-1E+10	1
4901784	193	C	10/16/2020	10:47	-133.485	43.565	0	1235.10	0	3.0100	0	37.0940	8	29.566	0	1221.609	0	15.7	4	4.9	4	-1E+10	1	-1E+10	1	-1E+10	1	-1E+10	1	-1E+10	1	-1E+10	1
4901784	193	C	10/16/2020	10:47	-133.485	43.565	0	1240.10	0	3.0140	0	37.0970	8	29.568	0	1226.540	0	15.9	4	5.0	4	-1E+10	1	-1E+10	1	-1E+10	1	-1E+10	1	-1E+10	1	-1E+10	1
4901784	193	C	10/16/2020	10:47	-133.485	43.565	0	1245.00	0	3.0060	0	37.0970	8	29.569	0	1231.372	0	16.0	4	5.0	4	-1E+10	1	-1E+10	1	-1E+10	1	-1E+10	1	-1E+10	1	-1E+10	1
4901784	193	C	10/16/2020	10:47	-133.485	43.565	0	1250.00	0	2.9930	0	37.0980	8	29.571	0	1236.303	0	16.0	4	5.0	4	-1E+10	1	-1E+10	1	-1E+10	1	-1E+10	1	-1E+10	1	-1E+10	1
4901784	193	C	10/16/2020	10:47	-133.485	43.565	0	1254.80	0	2.9820	0	37.0990	8	29.573	0	1241.036	0	16.1	4	5.1	4	-1E+10	1	-1E+10	1	-1E+10	1	-1E+10	1	-1E+10	1	-1E+10	1
4901784	193	C	10/16/2020	10:47	-133.485	43.565	0	1259.30	0	2.9710	0	37.1010	8	29.575	0	1245.473	0	16.3	4	5.1	4	-1E+10	1	-1E+10	1	-1E+10	1	-1E+10	1	-1E+10	1	-1E+10	1
4901784	193	C	10/16/2020	10:47	-133.485	43.565	0	1264.70	0	2.9530	0	37.1030	8	29.579	0	1250.798	0	16.5	4	5.2	4	-1E+10	1	-1E+10	1	-1E+10	1	-1E+10	1	-1E+10	1	-1E+10	1
4901784	193	C	10/16/2020	10:47	-133.485	43.565	0	1269.50	0	2.9460	0	37.1050	8	29.581	0	1255.531	0	16.7	4	5.2	4	-1E+10	1	-1E+10	1	-1E+10	1	-1E+10	1	-1E+10	1	-1E+10	1
4901784	193	C	10/16/2020	10:47	-133.485	43.565	0	1274.40	0	2.9410	0	37.1070	8	29.583	0	1260.362	0	16.9	4	5.3	4	-1E+10	1	-1E+10	1	-1E+10	1	-1E+10	1	-1E+10	1	-1E+10	1
4901784	193	C	10/16/2020	10:47	-133.485	43.565	0	1279.30	0	2.9270	0	37.1080	8	29.585	0	1265.194	0	17.0	4	5.3	4	-1E+10	1	-1E+10	1	-1E+10	1	-1E+10	1	-1E+10	1	-1E+10	1
4901784	193	C	10/16/2020	10:47	-133.485	43.565	0	1285.00	0	2.9150	0	37.1100	8	29.588	0	1270.814	0	17.3	4	5.4	4	-1E+10	1	-1E+10	1	-1E+10	1	-1E+10	1	-1E+10	1	-1E+10	1
4901784	193	C	10/16/2020	10:47	-133.485	43.565	0	1290.70	0	2.9040	0	37.1140	8	29.593	0	1276.433	0	17.7	4	5.6	4	-1E+10	1	-1E+10	1	-1E+10	1	-1E+10	1	-1E+10	1	-1E+10	1
4901784	193	C	10/16/2020	10:47	-133.485	43.565	0	1295.60	0	2.8960	0	37.1160	8	29.595	0	1281.264	0	17.8	4	5.6	4	-1E+10	1	-1E+10	1	-1E+10	1	-1E+10	1	-1E+10	1	-1E+10	1
4901784	193	C	10/16/2020	10:47	-133.485	43.565	0	1300.60	0	2.8860	0	37.1180	8	29.598	0	1286.194	0	18.0	4	5.6	4	-1E+10	1	-1E+10	1	-1E+10	1	-1E+10	1	-1E+10	1	-1E+10	1
4901784	193	C	10/16/2020	10:47	-133.485	43.565	0	1305.60	0	2.8840	0	37.1190	8	29.599	0	1291.123	0	18.1	4	5.7	4	-1E+10	1	-1E+10	1	-1E+10	1	-1E+10	1	-1E+10	1	-1E+10	1
4901784	193	C	10/16/2020	10:47	-133.485	43.565	0	1310.70	0	2.8760	0	37.1200	8	29.600	0	1296.151	0	18.4	4	5.8	4	-1E+10	1	-1E+10	1	-1E+10	1	-1E+10	1	-1E+10	1	-1E+10	1
4901784	193	C	10/16/2020	10:47	-133.485	43.565	0	1315.00	0	2.8700	0	37.1220	8	29.602	0	1300.390	0	18.6	4	5.8	4	-1E+10	1	-1E+10	1	-1E+10	1	-1E+10	1	-1E+10	1	-1E+10	1
4901784	193	C	10/16/2020	10:47	-133.485	43.565	0	1319.30	0	2.8600	0	37.1240	8	29.605	0	1304.629	0	18.8	4	5.9	4	-1E+10	1	-1E+10	1	-1E+10	1	-1E+10	1	-1E+10	1	-1E+10	1
4901784	193	C	10/16/2020	10:47	-133.485	43.565	0	1324.40	0	2.8520	0	37.1260	8	29.607	0	1309.656	0	19.1	4	6.0	4	-1E+10	1	-1E+10	1	-1E+10	1	-1E+10	1	-1E+10	1	-1E+10	1
4901784	193	C	10/16/2020	10:47	-133.485	43.565	0	1329.50	0	2.8370	0	37.1280	8	29.610	0	1314.684	0	19.4	4	6.1	4	-1E+10	1	-1E+10	1	-1E+10	1	-1E+10	1	-1E+10	1	-1E+10	1
4901784	193	C	10/16/2020	10:47	-133.485	43.565	0	1334.70	0	2.8270	0	37.1310	8	29.614	0	1319.809	0	19.6	4	6.2	4	-1E+10	1	-1E+10	1	-1E+10	1	-1E+10	1	-1E+10	1	-1E+10	1
4901784	193	C	10/16/2020	10:47	-133.485	43.565	0	1340.00	0	2.8210	0	37.1330	8	29.616	0	1325.034	0	19.7	4	6.2	4	-1E+10	1	-1E+10	1	-1E+10	1	-1E+10	1	-1E+10	1	-1E+10	1
4901784	193	C	10/16/2020	10:47	-133.485	43.565	0	1345.30	0	2.8160	0	37.1330	8	29.617	0	1330.258	0	19.9	4	6.2	4	-1E+10	1	-1E+10	1	-1E+10	1	-1E+10	1	-1E+10	1	-1E+10	1
4901784	193	C	10/16/2020	10:47	-133.485	43.565	0	1350.60	0	2.8090	0	37.1350	8	29.619	0	1335.482	0	20.1	4	6.3	4	-1E+10	1	-1E+10	1	-1E+10	1	-1E+10	1	-1E+10	1	-1E+10	1
4901784	193	C	10/16/2020	10:47	-133.485	43.565	0	1355.10	0	2.7940	0	37.1380	8	29.623	0	1339.917	0	20.3	4	6.4	4	-1E+10	1	-1E+10	1	-1E+10	1	-1E+10	1	-1E+10	1	-1E+10	1
4901784	193	C	10/16/2020	10:47	-133.485	43.565	0	1359.60	0	2.7840	0	37.1400	8	29.625	0	1344.352	0	20.5	4	6.4	4	-1E+10	1	-1E+10	1	-1E+10	1	-1E+10	1	-1E+10	1	-1E+10	1
4901784	193	C	10/16/2020	10:47	-133.485	43.565	0	1365.00	0	2.7750	0	37.1400	8	29.626	0	1349.674	0	20.9	4	6.5	4	-1E+10	1	-1E+10	1	-1E+10	1	-1E+10	1	-1E+10	1	-1E+10	1
4901784	193	C	10/16/2020	10:47	-133.485	43.565	0	1370.40	0	2.7680	0	37.1420	8	29.628	0	1354.996	0	21.2	4	6.7	4	-1E+10	1	-1E+10	1	-1E+10	1	-1E+10	1	-1E+10	1	-1E+10	1
4901784	193	C	10/16/2020	10:47	-133.485	43.565	0	1375.00	0	2.7580	0	37.1440	8	29.631	0	1359.530	0	21.5	4	6.8	4	-1E+10	1	-1E+10	1	-1E+10	1	-1E+10	1	-1E+10	1	-1E+10	1
4901784	193	C	10/16/2020	10:47	-133.485	43.565	0	1380.30	0	2.7480	0	37.1460	8	29.634	0	1364.753	0	21.8	4	6.8	4	-1E+10	1	-1E+10	1	-1E+10	1	-1E+10	1	-1E+10	1	-1E+10	1
4901784	193	C	10/16/2020	10:47	-133.485	43.565	0	1385.20	0	2.7380	0	37.1480	8	29.636	0	1369.582	0	22.0	4	6.9	4	-1E+10	1	-1E+10	1	-1E+10	1	-1E+10	1	-1E+10	1	-1E+10	1
4901784	193	C	10/16/2020	10:47	-133.485	43.565	0	1390.00	0	2.7290	0	37.1500	8	29.639	0	1374.312	0	22.3	4	7.0	4	-1E+10	1	-1E+10	1	-1E+10	1	-1E+10	1	-1E+10	1	-1E+10	1
4901784	193	C	10/16/2020	10:47	-133.485	43.565	0	1394.70	0	2.7200	0	37.1510	8	29.640	0	1378.944	0	22.5	4	7.0	4	-1E+10	1	-1E+10	1	-1E+10	1	-1E+10	1	-1E+10	1	-1E+10	1
4901784	193	C	10/16/2020	10:47	-133.485	43.565	0	1399.60	0	2.7090	0	37.1530	8	29.643	0	1383.772	0	22.7	4	7.1	4	-1E+10	1	-1E+10	1	-1E+10	1	-1E+10	1	-1E+10	1	-1E+10	1
4901784	193	C	10/16/2020	10:47	-133.485	43.565	0	1404.50	0	2.7040	0	37.1540	8	29.644	0	1388.601	0	22.8	4	7.1	4	-1E+10	1	-1E+10	1	-1E+10	1	-1E+10	1	-1E+10	1	-1E+10	1
4901784	193	C	10/16/2020	10:47	-133.485	43.565	0	1409.50	0	2.6990	0	37.1560	8	29.646	0	1393.528	0	23.0	4	7.2	4	-1E+10	1	-1E+10	1	-1E+10	1	-1E+10	1	-1E+10	1	-1E+10	1
4901784	193	C	10/16/2020	10:47	-133.485	43.565	0	1414.60	0	2.6840	0	37.1560	8	29.648	0	1398.553	0	23.2	4	7.2	4	-1E+10	1	-1E+10	1	-1E+10	1	-1E+10	1	-1E+10	1	-1E+10	1
4901784	193	C	10/16/2020	10:47	-133.485	43.565	0	1419.70	0	2.6710	0	37.1570	8	29.650	0	1403.578	0	23.6	4	7.4	4	-1E+10	1	-1E+10	1	-1E+10	1	-1E+10	1	-1E+10	1	-1E+10	1
4901784	193	C	10/16/2020	10:47	-133.485	43.565	0	1424.90	0	2.6600	0	37.1590	8	29.653	0	1408.702	0	24.1	4	7.5	4	-1E+10	1	-1E+10	1	-1E+10	1	-1E+10	1	-1E+10	1	-1E+10	1
4901784	193	C	10/16/2020	10:47	-133.485	43.565	0	1430.00	0	2.6490	0	37.1610	8	29.655	0	1413.727	0	24.7	4	7.7	4	-1E+10	1	-1E+10	1	-1E+10	1	-1E+10	1	-1E+10	1	-1E+10	1
4901784	193	C	10/16/2020	10:47	-133.485	43.565	0	1435.30	0	2.6450	0	37.1630	8	29.657	0	1418.949	0	25.0	4	7.8	4	-1E+10	1	-1E+10	1	-1E+10	1	-1E+10	1	-1E+10	1	-1E+10	1
4901784	193	C	10/16/2020	10:47	-133.485	43.565	0	1440.60	0	2.6410	0	37.1640	8	29.658	0	1424.171	0	25.2	4	7.9	4	-1E+10	1	-1E+10	1	-1E+10	1	-1E+10	1	-1E+10	1	-1E+10	1
4901784	193	C	10/16/2020	10:47	-133.485	43.565	0	1444.90	0	2.6310	0	37.1640	8	29.659	0	1428.407	0	25.5	4	8.0	4	-1E+10	1	-1E+10	1	-1E+10	1	-1E+10	1	-1E+10	1	-1E+10	1
4901784	193	C	10/16/2020	10:47	-133.485	43.565	0	1449.40	0	2.6210	0	37.1660	8	29.662	0	1432.840	0	25.7	4	8.0	4	-1E+10	1	-1E+10	1	-1E+10	1	-1E+10	1	-1E+10	1	-1E+10	1
4901784	193	C	10/16/2020	10:47	-133.485	43.565	0	1454.80	0	2.6100	0	37.1670	8	29.664	0	1438.160	0	25.9	4	8.1	4	-1E+10	1	-1E+10	1	-1E+10	1	-1E+10	1	-1E+10	1	-1E+10	1
4901784	193	C	10/16/2020	10:47	-133.485	43.565	0	1460.20	0	2.5980	0	37.1680	8	29.666	0	1443.480	0	26.1	4	8.2	4	-1E+10	1	-1E+10	1	-1E+10	1	-1E+10	1	-1E+10	1	-1E+10	1
4901784	193	C	10/16/2020	10:47	-133.485	43.565	0	1465.70	0	2.5800	0	37.1700	8	29.669	0	1448.898	0	26.5	4	8.3	4	-1E+10	1	-1E+10	1	-1E+10	1	-1E+10	1	-1E+10	1	-1E+10	1
4901784	193	C	10/16/2020	10:47	-133.485	43.565	0	1470.30	0	2.5720	0	37.1720	8	29.671	0	1453.430	0	27.0	4	8.4	4	-1E+10	1	-1E+10	1	-1E+10	1	-1E+10	1	-1E+10	1	-1E+10	1
4901784	193	C	10/16/2020	10:47	-133.485	43.565	0	1474.90	0	2.5710	0	37.1720	8	29.672	0	1457.961	0	27.4	4	8.5	4	-1E+10	1	-1E+10	1	-1E+10	1	-1E+10	1	-1E+10	1	-1E+10	1
4901784	193	C	10/16/2020	10:47	-133.485	43.565	0	1480.30	0	2.5550	0	37.1750	8	29.675	0	1463.280	0	27.8	4	8.7	4	-1E+10	1	-1E+10	1	-1E+10	1	-1E+10	1	-1E+10	1	-1E+10	1
4901784	193	C	10/16/2020	10:47	-133.485	43.565	0	1484.90	0	2.5440	0	37.1760	8	29.677	0	1467.812	0	28.0	4	8.7	4	-1E+10	1	-1E+10	1	-1E+10	1	-1E+10	1	-1E+10	1	-1E+10	1
4901784	193	C	10/16/2020	10:47	-133.485	43.565	0	1489.50	0	2.5370	0	37.1770	8	29.679	0	1472.343	0	28.2	4	8.8	4	-1E+10	1	-1E+10	1	-1E+10	1	-1E+10	1	-1E+10	1	-1E+10	1
4901784	193	C	10/16/2020	10:47	-133.485	43.565	0	1495.10	0	2.5290	0	37.1780	8	29.680	0	1477.858	0	28.3	4	8.8	4	-1E+10	1	-1E+10	1	-1E+10	1	-1E+10	1	-1E+10	1	-1E+10	1
4901784	193	C	10/16/2020	10:47	-133.485	43.565	0	1499.80	0	2.5160	0	37.1790	8	29.682	0	1482.488	0	28.4	4	8.8	4	-1E+10	1	-1E+10	1	-1E+10	1	-1E+10	1	-1E+10	1	-1E+10	1
4901784	193	C	10/16/2020	10:47	-133.485	43.565	0	1504.50	0	2.5050	0	37.1800	8	29.684	0	1487.117	0	28.5	4	8.9	4	-1E+10	1	-1E+10	1	-1E+10	1	-1E+10	1	-1E+10	1	-1E+10	1
4901784	193	C	10/16/2020	10:47	-133.485	43.565	0	1510.00	0	2.4900	0	37.1830	8	29.688	0	1492.534	0	28.8	4	9.0	4	-1E+10	1	-1E+10	1	-1E+10	1	-1E+10	1	-1E+10	1	-1E+10	1
4901784	193	C	10/16/2020	10:47	-133.485	43.565	0	1515.40	0	2.4810	0	37.1870	8	29.692	0	1497.853	0	29.0	4	9.0	4	-1E+10	1	-1E+10	1	-1E+10	1	-1E+10	1	-1E+10	1	-1E+10	1
4901784	193	C	10/16/2020	10:47	-133.485	43.565	0	1520.40	0	2.4750	0	37.1900	8	29.695	0	1502.777	0	29.2	4	9.1	4	-1E+10	1	-1E+10	1	-1E+10	1	-1E+10	1	-1E+10	1	-1E+10	1
4901784	193	C	10/16/2020	10:47	-133.485	43.565	0	1525.30	0	2.4690	0	37.1930	8	29.698	0	1507.603	0	29.4	4	9.2	4	-1E+10	1	-1E+10	1	-1E+10	1	-1E+10	1	-1E+10	1	-1E+10	1
4901784	193	C	10/16/2020	10:47	-133.485	43.565	0	1530.30	0	2.4630	0	37.1940	8	29.699	0	1512.527	0	29.7	4	9.2	4	-1E+10	1	-1E+10	1	-1E+10	1	-1E+10	1	-1E+10	1	-1E+10	1
4901784	193	C	10/16/2020	10:47	-133.485	43.565	0	1535.30	0	2.4560	0	37.1970	8	29.702	0	1517.451	0	29.9	4	9.3	4	-1E+10	1	-1E+10	1	-1E+10	1	-1E+10	1	-1E+10	1	-1E+10	1
4901784	193	C	10/16/2020	10:47	-133.485	43.565	0	1540.40	0	2.4450	0	37.1990	8	29.705	0	1522.473	0	30.2	4	9.4	4	-1E+10	1	-1E+10	1	-1E+10	1	-1E+10	1	-1E+10	1	-1E+10	1
4901784	193	C	10/16/2020	10:47	-133.485	43.565	0	1545.40	0	2.4400	0	37.2030	8	29.709	0	1527.397	0	30.4	4	9.4	4	-1E+10	1	-1E+10	1	-1E+10	1	-1E+10	1	-1E+10	1	-1E+10	1
4901784	193	C	10/16/2020	10:47	-133.485	43.565	0	1550.60	0	2.4370	0	37.2050	8	29.711	0	1532.517	0	30.5	4	9.5	4	-1E+10	1	-1E+10	1	-1E+10	1	-1E+10	1	-1E+10	1	-1E+10	1
4901784	193	C	10/16/2020	10:47	-133.485	43.565	0	1555.70	0	2.4310	0	37.2060	8	29.712	0	1537.539	0	30.8	4	9.6	4	-1E+10	1	-1E+10	1	-1E+10	1	-1E+10	1	-1E+10	1	-1E+10	1
4901784	193	C	10/16/2020	10:47	-133.485	43.565	0	1560.00	0	2.4250	0	37.2060	8	29.713	0	1541.774	0	31.0	4	9.6	4	-1E+10	1	-1E+10	1	-1E+10	1	-1E+10	1	-1E+10	1	-1E+10	1
4901784	193	C	10/16/2020	10:47	-133.485	43.565	0	1564.30	0	2.4150	0	37.2090	8	29.716	0	1546.008	0	31.3	4	9.7	4	-1E+10	1	-1E+10	1	-1E+10	1	-1E+10	1	-1E+10	1	-1E+10	1
4901784	193	C	10/16/2020	10:47	-133.485	43.565	0	1569.40	0	2.4110	0	37.2120	8	29.719	0	1551.029	0	31.5	4	9.8	4	-1E+10	1	-1E+10	1	-1E+10	1	-1E+10	1	-1E+10	1	-1E+10	1
4901784	193	C	10/16/2020	10:47	-133.485	43.565	0	1574.60	0	2.4070	0	37.2130	8	29.720	0	1556.149	0	31.7	4	9.8	4	-1E+10	1	-1E+10	1	-1E+10	1	-1E+10	1	-1E+10	1	-1E+10	1
4901784	193	C	10/16/2020	10:47	-133.485	43.565	0	1579.90	0	2.4000	0	37.2180	8	29.725	0	1561.368	0	31.9	4	9.9	4	-1E+10	1	-1E+10	1	-1E+10	1	-1E+10	1	-1E+10	1	-1E+10	1
4901784	193	C	10/16/2020	10:47	-133.485	43.565	0	1585.10	0	2.3970	0	37.2250	8	29.731	0	1566.487	0	32.1	4	10.0	4	-1E+10	1	-1E+10	1	-1E+10	1	-1E+10	1	-1E+10	1	-1E+10	1
4901784	193	C	10/16/2020	10:47	-133.485	43.565	0	1590.40	0	2.3950	0	37.2220	8	29.728	0	1571.706	0	32.6	4	10.1	4	-1E+10	1	-1E+10	1	-1E+10	1	-1E+10	1	-1E+10	1	-1E+10	1
4901784	193	C	10/16/2020	10:47	-133.485	43.565	0	1595.70	0	2.3940	0	37.2240	8	29.730	0	1576.923	0	32.8	4	10.2	4	-1E+10	1	-1E+10	1	-1E+10	1	-1E+10	1	-1E+10	1	-1E+10	1
4901784	193	C	10/16/2020	10:47	-133.485	43.565	0	1600.20	0	2.3780	0	37.2290	8	29.736	0	1581.354	0	32.8	4	10.2	4	-1E+10	1	-1E+10	1	-1E+10	1	-1E+10	1	-1E+10	1	-1E+10	1
4901784	193	C	10/16/2020	10:47	-133.485	43.565	0	1604.70	0	2.3700	0	37.2300	8	29.737	0	1585.784	0	33.0	4	10.2	4	-1E+10	1	-1E+10	1	-1E+10	1	-1E+10	1	-1E+10	1	-1E+10	1
4901784	193	C	10/16/2020	10:47	-133.485	43.565	0	1610.00	0	2.3660	0	37.2350	8	29.742	0	1591.002	0	33.2	4	10.3	4	-1E+10	1	-1E+10	1	-1E+10	1	-1E+10	1	-1E+10	1	-1E+10	1
4901784	193	C	10/16/2020	10:47	-133.485	43.565	0	1615.40	0	2.3610	0	37.2430	8	29.748	0	1596.317	0	33.4	4	10.4	4	-1E+10	1	-1E+10	1	-1E+10	1	-1E+10	1	-1E+10	1	-1E+10	1
4901784	193	C	10/16/2020	10:47	-133.485	43.565	0	1619.90	0	2.3550	0	37.2500	8	29.755	0	1600.747	0	33.6	4	10.4	4	-1E+10	1	-1E+10	1	-1E+10	1	-1E+10	1	-1E+10	1	-1E+10	1
4901784	193	C	10/16/2020	10:47	-133.485	43.565	0	1624.40	0	2.3520	0	37.2480	8	29.753	0	1605.177	0	33.8	4	10.5	4	-1E+10	1	-1E+10	1	-1E+10	1	-1E+10	1	-1E+10	1	-1E+10	1
4901784	193	C	10/16/2020	10:47	-133.485	43.565	0	1629.90	0	2.3460	0	37.2430	8	29.750	0	1610.591	0	34.1	4	10.6	4	-1E+10	1	-1E+10	1	-1E+10	1	-1E+10	1	-1E+10	1	-1E+10	1
4901784	193	C	10/16/2020	10:47	-133.485	43.565	0	1635.40	0	2.3400	0	37.2440	8	29.751	0	1616.005	0	34.3	4	10.7	4	-1E+10	1	-1E+10	1	-1E+10	1	-1E+10	1	-1E+10	1	-1E+10	1
4901784	193	C	10/16/2020	10:47	-133.485	43.565	0	1639.90	0	2.3350	0	37.2550	8	29.761	0	1620.434	0	34.5	4	10.7	4	-1E+10	1	-1E+10	1	-1E+10	1	-1E+10	1	-1E+10	1	-1E+10	1
4901784	193	C	10/16/2020	10:47	-133.485	43.565	0	1644.50	0	2.3310	0	37.2490	8	29.756	0	1624.962	0	34.7	4	10.8	4	-1E+10	1	-1E+10	1	-1E+10	1	-1E+10	1	-1E+10	1	-1E+10	1
4901784	193	C	10/16/2020	10:47	-133.485	43.565	0	1649.90	0	2.3280	0	37.2480	8	29.756	0	1630.277	0	34.9	4	10.8	4	-1E+10	1	-1E+10	1	-1E+10	1	-1E+10	1	-1E+10	1	-1E+10	1
4901784	193	C	10/16/2020	10:47	-133.485	43.565	0	1655.40	0	2.3220	0	37.2510	8	29.759	0	1635.691	0	35.2	4	10.9	4	-1E+10	1	-1E+10	1	-1E+10	1	-1E+10	1	-1E+10	1	-1E+10	1
4901784	193	C	10/16/2020	10:47	-133.485	43.565	0	1659.90	0	2.3180	0	37.2530	8	29.761	0	1640.120	0	35.4	4	11.0	4	-1E+10	1	-1E+10	1	-1E+10	1	-1E+10	1	-1E+10	1	-1E+10	1
4901784	193	C	10/16/2020	10:47	-133.485	43.565	0	1664.50	0	2.3130	0	37.2550	8	29.763	0	1644.647	0	35.7	4	11.1	4	-1E+10	1	-1E+10	1	-1E+10	1	-1E+10	1	-1E+10	1	-1E+10	1
4901784	193	C	10/16/2020	10:47	-133.485	43.565	0	1670.00	0	2.3060	0	37.2510	8	29.760	0	1650.060	0	36.0	4	11.2	4	-1E+10	1	-1E+10	1	-1E+10	1	-1E+10	1	-1E+10	1	-1E+10	1
4901784	193	C	10/16/2020	10:47	-133.485	43.565	0	1675.50	0	2.3010	0	37.2510	8	29.761	0	1655.473	0	36.4	4	11.3	4	-1E+10	1	-1E+10	1	-1E+10	1	-1E+10	1	-1E+10	1	-1E+10	1
4901784	193	C	10/16/2020	10:47	-133.485	43.565	0	1680.10	0	2.2950	0	37.2550	8	29.764	0	1660.000	0	36.8	4	11.4	4	-1E+10	1	-1E+10	1	-1E+10	1	-1E+10	1	-1E+10	1	-1E+10	1
4901784	193	C	10/16/2020	10:47	-133.485	43.565	0	1684.60	0	2.2810	0	37.2540	8	29.765	0	1664.428	0	37.3	4	11.6	4	-1E+10	1	-1E+10	1	-1E+10	1	-1E+10	1	-1E+10	1	-1E+10	1
4901784	193	C	10/16/2020	10:47	-133.485	43.565	0	1690.00	0	2.2710	0	37.2610	8	29.771	0	1669.742	0	37.8	4	11.7	4	-1E+10	1	-1E+10	1	-1E+10	1	-1E+10	1	-1E+10	1	-1E+10	1
4901784	193	C	10/16/2020	10:47	-133.485	43.565	0	1695.40	0	2.2650	0	37.2550	8	29.767	0	1675.056	0	38.2	4	11.8	4	-1E+10	1	-1E+10	1	-1E+10	1	-1E+10	1	-1E+10	1	-1E+10	1
4901784	193	C	10/16/2020	10:47	-133.485	43.565	0	1700.20	0	2.2520	0	37.2540	8	29.767	0	1679.780	0	38.7	4	12.0	4	-1E+10	1	-1E+10	1	-1E+10	1	-1E+10	1	-1E+10	1	-1E+10	1
4901784	193	C	10/16/2020	10:47	-133.485	43.565	0	1705.10	0	2.2480	0	37.2530	8	29.767	0	1684.601	0	39.0	4	12.1	4	-1E+10	1	-1E+10	1	-1E+10	1	-1E+10	1	-1E+10	1	-1E+10	1
4901784	193	C	10/16/2020	10:47	-133.485	43.565	0	1710.00	0	2.2420	0	37.2540	8	29.768	0	1689.423	0	39.4	4	12.2	4	-1E+10	1	-1E+10	1	-1E+10	1	-1E+10	1	-1E+10	1	-1E+10	1
4901784	193	C	10/16/2020	10:47	-133.485	43.565	0	1714.90	0	2.2350	0	37.2560	8	29.771	0	1694.245	0	39.8	4	12.3	4	-1E+10	1	-1E+10	1	-1E+10	1	-1E+10	1	-1E+10	1	-1E+10	1
4901784	193	C	10/16/2020	10:47	-133.485	43.565	0	1719.80	0	2.2300	0	37.2530	8	29.769	0	1699.066	0	40.1	4	12.4	4	-1E+10	1	-1E+10	1	-1E+10	1	-1E+10	1	-1E+10	1	-1E+10	1
4901784	193	C	10/16/2020	10:47	-133.485	43.565	0	1724.80	0	2.2250	0	37.2530	8	29.769	0	1703.986	0	40.5	4	12.5	4	-1E+10	1	-1E+10	1	-1E+10	1	-1E+10	1	-1E+10	1	-1E+10	1
4901784	193	C	10/16/2020	10:47	-133.485	43.565	0	1729.70	0	2.2180	0	37.2550	8	29.771	0	1708.807	0	41.0	4	12.7	4	-1E+10	1	-1E+10	1	-1E+10	1	-1E+10	1	-1E+10	1	-1E+10	1
4901784	193	C	10/16/2020	10:47	-133.485	43.565	0	1734.60	0	2.2080	0	37.2550	8	29.772	0	1713.628	0	41.5	4	12.8	4	-1E+10	1	-1E+10	1	-1E+10	1	-1E+10	1	-1E+10	1	-1E+10	1
4901784	193	C	10/16/2020	10:47	-133.485	43.565	0	1739.60	0	2.2010	0	37.2530	8	29.771	0	1718.547	0	41.9	4	13.0	4	-1E+10	1	-1E+10	1	-1E+10	1	-1E+10	1	-1E+10	1	-1E+10	1
4901784	193	C	10/16/2020	10:47	-133.485	43.565	0	1744.60	0	2.1950	0	37.2540	8	29.773	0	1723.466	0	42.4	4	13.1	4	-1E+10	1	-1E+10	1	-1E+10	1	-1E+10	1	-1E+10	1	-1E+10	1
4901784	193	C	10/16/2020	10:47	-133.485	43.565	0	1749.50	0	2.1820	0	37.2540	8	29.774	0	1728.287	0	42.9	4	13.3	4	-1E+10	1	-1E+10	1	-1E+10	1	-1E+10	1	-1E+10	1	-1E+10	1
4901784	193	C	10/16/2020	10:47	-133.485	43.565	0	1754.50	0	2.1750	0	37.2540	8	29.775	0	1733.206	0	43.3	4	13.4	4	-1E+10	1	-1E+10	1	-1E+10	1	-1E+10	1	-1E+10	1	-1E+10	1
4901784	193	C	10/16/2020	10:47	-133.485	43.565	0	1759.50	0	2.1680	0	37.2560	8	29.777	0	1738.125	0	43.6	4	13.5	4	-1E+10	1	-1E+10	1	-1E+10	1	-1E+10	1	-1E+10	1	-1E+10	1
4901784	193	C	10/16/2020	10:47	-133.485	43.565	0	1764.60	0	2.1660	0	37.2590	8	29.779	0	1743.142	0	43.9	4	13.6	4	-1E+10	1	-1E+10	1	-1E+10	1	-1E+10	1	-1E+10	1	-1E+10	1
4901784	193	C	10/16/2020	10:47	-133.485	43.565	0	1769.60	0	2.1560	0	37.2630	8	29.784	0	1748.061	0	44.4	4	13.7	4	-1E+10	1	-1E+10	1	-1E+10	1	-1E+10	1	-1E+10	1	-1E+10	1
4901784	193	C	10/16/2020	10:47	-133.485	43.565	0	1774.70	0	2.1480	0	37.2640	8	29.785	0	1753.077	0	44.6	4	13.8	4	-1E+10	1	-1E+10	1	-1E+10	1	-1E+10	1	-1E+10	1	-1E+10	1
4901784	193	C	10/16/2020	10:47	-133.485	43.565	0	1779.80	0	2.1440	0	37.2640	8	29.785	0	1758.094	0	44.9	4	13.9	4	-1E+10	1	-1E+10	1	-1E+10	1	-1E+10	1	-1E+10	1	-1E+10	1
4901784	193	C	10/16/2020	10:47	-133.485	43.565	0	1784.90	0	2.1410	0	37.2630	8	29.785	0	1763.111	0	45.0	4	13.9	4	-1E+10	1	-1E+10	1	-1E+10	1	-1E+10	1	-1E+10	1	-1E+10	1
4901784	193	C	10/16/2020	10:47	-133.485	43.565	0	1790.10	0	2.1400	0	37.2610	8	29.783	0	1768.226	0	45.1	4	13.9	4	-1E+10	1	-1E+10	1	-1E+10	1	-1E+10	1	-1E+10	1	-1E+10	1
4901784	193	C	10/16/2020	10:47	-133.485	43.565	0	1795.20	0	2.1370	0	37.2630	8	29.785	0	1773.242	0	45.3	4	14.0	4	-1E+10	1	-1E+10	1	-1E+10	1	-1E+10	1	-1E+10	1	-1E+10	1
4901784	193	C	10/16/2020	10:47	-133.485	43.565	0	1800.30	0	2.1350	0	37.2650	8	29.787	0	1778.258	0	45.5	4	14.0	4	-1E+10	1	-1E+10	1	-1E+10	1	-1E+10	1	-1E+10	1	-1E+10	1
4901784	193	C	10/16/2020	10:47	-133.485	43.565	0	1805.60	0	2.1350	0	37.2640	8	29.786	0	1783.471	0	45.6	4	14.1	4	-1E+10	1	-1E+10	1	-1E+10	1	-1E+10	1	-1E+10	1	-1E+10	1
4901784	193	C	10/16/2020	10:47	-133.485	43.565	0	1809.90	0	2.1340	0	37.2640	8	29.787	0	1787.701	0	45.8	4	14.1	4	-1E+10	1	-1E+10	1	-1E+10	1	-1E+10	1	-1E+10	1	-1E+10	1
4901784	193	C	10/16/2020	10:47	-133.485	43.565	0	1814.40	0	2.1280	0	37.2650	8	29.788	0	1792.126	0	45.9	4	14.2	4	-1E+10	1	-1E+10	1	-1E+10	1	-1E+10	1	-1E+10	1	-1E+10	1
4901784	193	C	10/16/2020	10:47	-133.485	43.565	0	1819.60	0	2.1260	0	37.2660	8	29.789	0	1797.240	0	46.2	4	14.3	4	-1E+10	1	-1E+10	1	-1E+10	1	-1E+10	1	-1E+10	1	-1E+10	1
4901784	193	C	10/16/2020	10:47	-133.485	43.565	0	1824.70	0	2.1190	0	37.2670	8	29.790	0	1802.256	0	46.5	4	14.4	4	-1E+10	1	-1E+10	1	-1E+10	1	-1E+10	1	-1E+10	1	-1E+10	1
4901784	193	C	10/16/2020	10:47	-133.485	43.565	0	1830.00	0	2.1160	0	37.2670	8	29.791	0	1807.469	0	46.7	4	14.4	4	-1E+10	1	-1E+10	1	-1E+10	1	-1E+10	1	-1E+10	1	-1E+10	1
4901784	193	C	10/16/2020	10:47	-133.485	43.565	0	1835.20	0	2.1100	0	37.2670	8	29.791	0	1812.582	0	47.1	4	14.6	4	-1E+10	1	-1E+10	1	-1E+10	1	-1E+10	1	-1E+10	1	-1E+10	1
4901784	193	C	10/16/2020	10:47	-133.485	43.565	0	1840.40	0	2.1030	0	37.2670	8	29.792	0	1817.696	0	47.5	4	14.6	4	-1E+10	1	-1E+10	1	-1E+10	1	-1E+10	1	-1E+10	1	-1E+10	1
4901784	193	C	10/16/2020	10:47	-133.485	43.565	0	1845.70	0	2.1020	0	37.2670	8	29.792	0	1822.908	0	47.8	4	14.8	4	-1E+10	1	-1E+10	1	-1E+10	1	-1E+10	1	-1E+10	1	-1E+10	1
4901784	193	C	10/16/2020	10:47	-133.485	43.565	0	1850.00	0	2.0990	0	37.2680	8	29.793	0	1827.136	0	48.2	4	14.9	4	-1E+10	1	-1E+10	1	-1E+10	1	-1E+10	1	-1E+10	1	-1E+10	1
4901784	193	C	10/16/2020	10:47	-133.485	43.565	0	1854.40	0	2.0930	0	37.2700	8	29.795	0	1831.463	0	48.6	4	15.0	4	-1E+10	1	-1E+10	1	-1E+10	1	-1E+10	1	-1E+10	1	-1E+10	1
4901784	193	C	10/16/2020	10:47	-133.485	43.565	0	1859.50	0	2.0840	0	37.2720	8	29.798	0	1836.478	0	49.2	4	15.2	4	-1E+10	1	-1E+10	1	-1E+10	1	-1E+10	1	-1E+10	1	-1E+10	1
4901784	193	C	10/16/2020	10:47	-133.485	43.565	0	1864.60	0	2.0730	0	37.2730	8	29.799	0	1841.493	0	49.7	4	15.3	4	-1E+10	1	-1E+10	1	-1E+10	1	-1E+10	1	-1E+10	1	-1E+10	1
4901784	193	C	10/16/2020	10:47	-133.485	43.565	0	1869.70	0	2.0640	0	37.2730	8	29.800	0	1846.507	0	50.2	4	15.5	4	-1E+10	1	-1E+10	1	-1E+10	1	-1E+10	1	-1E+10	1	-1E+10	1
4901784	193	C	10/16/2020	10:47	-133.485	43.565	0	1874.80	0	2.0540	0	37.2740	8	29.802	0	1851.522	0	50.6	4	15.6	4	-1E+10	1	-1E+10	1	-1E+10	1	-1E+10	1	-1E+10	1	-1E+10	1
4901784	193	C	10/16/2020	10:47	-133.485	43.565	0	1879.80	0	2.0500	0	37.2740	8	29.802	0	1856.438	0	51.0	4	15.7	4	-1E+10	1	-1E+10	1	-1E+10	1	-1E+10	1	-1E+10	1	-1E+10	1
4901784	193	C	10/16/2020	10:47	-133.485	43.565	0	1884.90	0	2.0430	0	37.2750	8	29.804	0	1861.452	0	51.5	4	15.9	4	-1E+10	1	-1E+10	1	-1E+10	1	-1E+10	1	-1E+10	1	-1E+10	1
4901784	193	C	10/16/2020	10:47	-133.485	43.565	0	1890.00	0	2.0340	0	37.2760	8	29.805	0	1866.467	0	52.1	4	16.0	4	-1E+10	1	-1E+10	1	-1E+10	1	-1E+10	1	-1E+10	1	-1E+10	1
4901784	193	C	10/16/2020	10:47	-133.485	43.565	0	1895.20	0	2.0240	0	37.2790	8	29.809	0	1871.579	0	52.6	4	16.2	4	-1E+10	1	-1E+10	1	-1E+10	1	-1E+10	1	-1E+10	1	-1E+10	1
4901784	193	C	10/16/2020	10:47	-133.485	43.565	0	1900.20	0	2.0170	0	37.2810	8	29.811	0	1876.495	0	52.9	4	16.3	4	-1E+10	1	-1E+10	1	-1E+10	1	-1E+10	1	-1E+10	1	-1E+10	1
4901784	193	C	10/16/2020	10:47	-133.485	43.565	0	1905.40	0	2.0110	0	37.2840	8	29.814	0	1881.607	0	53.2	4	16.4	4	-1E+10	1	-1E+10	1	-1E+10	1	-1E+10	1	-1E+10	1	-1E+10	1
4901784	193	C	10/16/2020	10:47	-133.485	43.565	0	1910.60	0	2.0100	0	37.2830	8	29.813	0	1886.719	0	53.3	4	16.4	4	-1E+10	1	-1E+10	1	-1E+10	1	-1E+10	1	-1E+10	1	-1E+10	1
4901784	193	C	10/16/2020	10:47	-133.485	43.565	0	1915.00	0	2.0090	0	37.2840	8	29.814	0	1891.044	0	53.5	4	16.5	4	-1E+10	1	-1E+10	1	-1E+10	1	-1E+10	1	-1E+10	1	-1E+10	1
4901784	193	C	10/16/2020	10:47	-133.485	43.565	0	1919.40	0	2.0070	0	37.2830	8	29.813	0	1895.370	0	53.7	4	16.5	4	-1E+10	1	-1E+10	1	-1E+10	1	-1E+10	1	-1E+10	1	-1E+10	1
4901784	193	C	10/16/2020	10:47	-133.485	43.565	0	1924.70	0	2.0040	0	37.2840	8	29.814	0	1900.580	0	54.1	4	16.6	4	-1E+10	1	-1E+10	1	-1E+10	1	-1E+10	1	-1E+10	1	-1E+10	1
4901784	193	C	10/16/2020	10:47	-133.485	43.565	0	1930.00	0	1.9970	0	37.2840	8	29.815	0	1905.790	0	54.5	4	16.8	4	-1E+10	1	-1E+10	1	-1E+10	1	-1E+10	1	-1E+10	1	-1E+10	1
4901784	193	C	10/16/2020	10:47	-133.485	43.565	0	1935.30	0	1.9930	0	37.2860	8	29.817	0	1910.999	0	54.8	4	16.9	4	-1E+10	1	-1E+10	1	-1E+10	1	-1E+10	1	-1E+10	1	-1E+10	1
4901784	193	C	10/16/2020	10:47	-133.485	43.565	0	1940.60	0	1.9900	0	37.2890	8	29.820	0	1916.209	0	55.2	4	17.0	4	-1E+10	1	-1E+10	1	-1E+10	1	-1E+10	1	-1E+10	1	-1E+10	1
4901784	193	C	10/16/2020	10:47	-133.485	43.565	0	1945.10	0	1.9830	0	37.2910	8	29.822	0	1920.632	0	55.7	4	17.1	4	-1E+10	1	-1E+10	1	-1E+10	1	-1E+10	1	-1E+10	1	-1E+10	1
4901784	193	C	10/16/2020	10:47	-133.485	43.565	0	1949.50	0	1.9750	0	37.2930	8	29.824	0	1924.957	0	56.2	4	17.3	4	-1E+10	1	-1E+10	1	-1E+10	1	-1E+10	1	-1E+10	1	-1E+10	1
4901784	193	C	10/16/2020	10:47	-133.485	43.565	0	1954.90	0	1.9700	0	37.2960	8	29.827	0	1930.264	0	56.6	4	17.4	4	-1E+10	1	-1E+10	1	-1E+10	1	-1E+10	1	-1E+10	1	-1E+10	1
4901784	193	C	10/16/2020	10:47	-133.485	43.565	0	1960.30	0	1.9600	0	37.2970	8	29.829	0	1935.572	0	57.0	4	17.5	4	-1E+10	1	-1E+10	1	-1E+10	1	-1E+10	1	-1E+10	1	-1E+10	1
4901784	193	C	10/16/2020	10:47	-133.485	43.565	0	1965.60	0	1.9540	0	37.2970	8	29.829	0	1940.781	0	57.2	4	17.6	4	-1E+10	1	-1E+10	1	-1E+10	1	-1E+10	1	-1E+10	1	-1E+10	1
4901784	193	C	10/16/2020	10:47	-133.485	43.565	0	1970.20	0	1.9540	0	37.2960	8	29.829	0	1945.302	0	57.4	4	17.6	4	-1E+10	1	-1E+10	1	-1E+10	1	-1E+10	1	-1E+10	1	-1E+10	1
4901784	193	C	10/16/2020	10:47	-133.485	43.565	0	1975.30	0	1.9500	0	37.2970	8	29.830	0	1950.314	0	57.7	4	17.7	4	-1E+10	1	-1E+10	1	-1E+10	1	-1E+10	1	-1E+10	1	-1E+10	1
4901784	193	C	10/16/2020	10:47	-133.485	43.565	0	1980.20	0	1.9440	0	37.2980	8	29.831	0	1955.129	0	58.3	4	17.9	4	-1E+10	1	-1E+10	1	-1E+10	1	-1E+10	1	-1E+10	1	-1E+10	1
4901784	193	C	10/16/2020	10:47	-133.485	43.565	0	1985.00	0	1.9300	0	37.3000	8	29.834	0	1959.847	0	58.9	4	18.1	4	-1E+10	1	-1E+10	1	-1E+10	1	-1E+10	1	-1E+10	1	-1E+10	1
4901784	193	C	10/16/2020	10:47	-133.485	43.565	0	1989.80	0	1.9270	0	37.3000	8	29.834	0	1964.564	0	59.3	4	18.2	4	-1E+10	1	-1E+10	1	-1E+10	1	-1E+10	1	-1E+10	1	-1E+10	1
4901784	193	C	10/16/2020	10:47	-133.485	43.565	0	1994.60	0	1.9240	0	37.3010	8	29.835	0	1969.281	0	59.6	4	18.3	4	-1E+10	1	-1E+10	1	-1E+10	1	-1E+10	1	-1E+10	1	-1E+10	1
4901784	193	C	10/16/2020	10:47	-133.485	43.565	0	1999.50	0	1.9210	0	37.3010	8	29.836	0	1974.096	0	59.8	4	18.4	4	-1E+10	1	-1E+10	1	-1E+10	1	-1E+10	1	-1E+10	1	-1E+10	1
4901784	193	C	10/16/2020	10:47	-133.485	43.565	0	2004.90	0	1.9200	0	37.3020	8	29.837	0	1979.402	0	60.0	4	18.4	4	-1E+10	1	-1E+10	1	-1E+10	1	-1E+10	1	-1E+10	1	-1E+10	1
4901784	193	C	10/16/2020	10:47	-133.485	43.565	0	2010.10	0	1.9180	0	37.3020	8	29.837	0	1984.512	0	60.2	4	18.5	4	-1E+10	1	-1E+10	1	-1E+10	1	-1E+10	1	-1E+10	1	-1E+10	1
4901784	193	C	10/16/2020	10:47	-133.485	43.565	0	2015.30	0	1.9140	0	37.3020	8	29.837	0	1989.621	0	60.4	4	18.6	4	-1E+10	1	-1E+10	1	-1E+10	1	-1E+10	1	-1E+10	1	-1E+10	1
4901784	193	C	10/16/2020	10:47	-133.485	43.565	0	2020.10	0	1.9110	0	37.3040	8	29.839	0	1994.338	0	60.5	4	18.6	4	-1E+10	1	-1E+10	1	-1E+10	1	-1E+10	1	-1E+10	1	-1E+10	1
4901784	193	C	10/16/2020	10:47	-133.485	43.565	0																										
4901784	194	C	10/26/2020	10:49	-133.653	43.565	0	3.00	0	17.8330	0	35.2940	8	25.540	0	2.976	0	226.5	4	96.7	4	-1E+10	1	-1E+10	1	-1E+10	1	-1E+10	1	-1E+10	1	-1E+10	1
4901784	194	C	10/26/2020	10:49	-133.653	43.565	0	4.80	0	17.8340	0	35.2950	8	25.540	0	4.762	0	226.1	4	96.5	4	-1E+10	1	-1E+10	1	-1E+10	1	-1E+10	1	-1E+10	1	-1E+10	1
4901784	194	C	10/26/2020	10:49	-133.653	43.565	0	6.70	0	17.8360	0	35.2960	8	25.541	0	6.646	0	226.1	4	96.5	4	-1E+10	1	-1E+10	1	-1E+10	1	-1E+10	1	-1E+10	1	-1E+10	1
4901784	194	C	10/26/2020	10:49	-133.653	43.565	0	8.70	0	17.8340	0	35.2970	8	25.542	0	8.630	0	226.0	4	96.5	4	-1E+10	1	-1E+10	1	-1E+10	1	-1E+10	1	-1E+10	1	-1E+10	1
4901784	194	C	10/26/2020	10:49	-133.653	43.565	0	10.70	0	17.8360	0	35.2990	8	25.543	0	10.614	0	225.7	4	96.4	4	-1E+10	1	-1E+10	1	-1E+10	1	-1E+10	1	-1E+10	1	-1E+10	1
4901784	194	C	10/26/2020	10:49	-133.653	43.565	0	12.70	0	17.8340	0	35.3000	8	25.544	0	12.598	0	225.7	4	96.4	4	-1E+10	1	-1E+10	1	-1E+10	1	-1E+10	1	-1E+10	1	-1E+10	1
4901784	194	C	10/26/2020	10:49	-133.653	43.565	0	14.70	0	17.8360	0	35.3000	8	25.544	0	14.582	0	225.5	4	96.3	4	-1E+10	1	-1E+10	1	-1E+10	1	-1E+10	1	-1E+10	1	-1E+10	1
4901784	194	C	10/26/2020	10:49	-133.653	43.565	0	16.70	0	17.8370	0	35.3010	8	25.545	0	16.566	0	225.5	4	96.3	4	-1E+10	1	-1E+10	1	-1E+10	1	-1E+10	1	-1E+10	1	-1E+10	1
4901784	194	C	10/26/2020	10:49	-133.653	43.565	0	18.70	0	17.8380	0	35.3020	8	25.545	0	18.550	0	225.3	4	96.2	4	-1E+10	1	-1E+10	1	-1E+10	1	-1E+10	1	-1E+10	1	-1E+10	1
4901784	194	C	10/26/2020	10:49	-133.653	43.565	0	21.10	0	17.8370	0	35.3040	8	25.547	0	20.930	0	225.0	4	96.1	4	-1E+10	1	-1E+10	1	-1E+10	1	-1E+10	1	-1E+10	1	-1E+10	1
4901784	194	C	10/26/2020	10:49	-133.653	43.565	0	23.10	0	17.8370	0	35.3050	8	25.548	0	22.914	0	224.8	4	96.0	4	-1E+10	1	-1E+10	1	-1E+10	1	-1E+10	1	-1E+10	1	-1E+10	1
4901784	194	C	10/26/2020	10:49	-133.653	43.565	0	24.60	0	17.8370	0	35.3060	8	25.549	0	24.402	0	224.9	4	96.0	4	-1E+10	1	-1E+10	1	-1E+10	1	-1E+10	1	-1E+10	1	-1E+10	1
4901784	194	C	10/26/2020	10:49	-133.653	43.565	0	26.20	0	17.8360	0	35.3060	8	25.549	0	25.989	0	224.8	4	96.0	4	-1E+10	1	-1E+10	1	-1E+10	1	-1E+10	1	-1E+10	1	-1E+10	1
4901784	194	C	10/26/2020	10:49	-133.653	43.565	0	27.70	0	17.8330	0	35.3070	8	25.551	0	27.477	0	224.5	4	95.8	4	-1E+10	1	-1E+10	1	-1E+10	1	-1E+10	1	-1E+10	1	-1E+10	1
4901784	194	C	10/26/2020	10:49	-133.653	43.565	0	29.20	0	17.8340	0	35.3070	8	25.550	0	28.965	0	224.6	4	95.9	4	-1E+10	1	-1E+10	1	-1E+10	1	-1E+10	1	-1E+10	1	-1E+10	1
4901784	194	C	10/26/2020	10:49	-133.653	43.565	0	31.10	0	17.8350	0	35.3060	8	25.549	0	30.849	0	224.6	4	95.9	4	-1E+10	1	-1E+10	1	-1E+10	1	-1E+10	1	-1E+10	1	-1E+10	1
4901784	194	C	10/26/2020	10:49	-133.653	43.565	0	32.50	0	17.8350	0	35.3030	8	25.547	0	32.238	0	224.7	4	95.9	4	-1E+10	1	-1E+10	1	-1E+10	1	-1E+10	1	-1E+10	1	-1E+10	1
4901784	194	C	10/26/2020	10:49	-133.653	43.565	0	33.60	0	17.8350	0	35.3000	8	25.545	0	33.329	0	225.2	4	96.2	4	-1E+10	1	-1E+10	1	-1E+10	1	-1E+10	1	-1E+10	1	-1E+10	1
4901784	194	C	10/26/2020	10:49	-133.653	43.565	0	34.80	0	17.8360	0	35.2930	8	25.539	0	34.519	0	225.8	4	96.4	4	-1E+10	1	-1E+10	1	-1E+10	1	-1E+10	1	-1E+10	1	-1E+10	1
4901784	194	C	10/26/2020	10:49	-133.653	43.565	0	36.00	0	17.8380	0	35.2820	8	25.531	0	35.709	0	226.8	4	96.8	4	-1E+10	1	-1E+10	1	-1E+10	1	-1E+10	1	-1E+10	1	-1E+10	1
4901784	194	C	10/26/2020	10:49	-133.653	43.565	0	37.00	0	17.8390	0	35.2650	8	25.517	0	36.701	0	228.4	4	97.5	4	-1E+10	1	-1E+10	1	-1E+10	1	-1E+10	1	-1E+10	1	-1E+10	1
4901784	194	C	10/26/2020	10:49	-133.653	43.565	0	38.20	0	17.8380	8	35.2360	8	25.495	0	37.891	0	230.8	4	98.5	4	-1E+10	1	-1E+10	1	-1E+10	1	-1E+10	1	-1E+10	1	-1E+10	1
4901784	194	C	10/26/2020	10:49	-133.653	43.565	0	39.30	0	17.8280	8	35.1750	8	25.451	0	38.982	0	234.0	4	99.8	4	-1E+10	1	-1E+10	1	-1E+10	1	-1E+10	1	-1E+10	1	-1E+10	1
4901784	194	C	10/26/2020	10:49	-133.653	43.565	0	40.70	0	16.1960	0	35.2730	8	25.915	0	40.371	0	243.2	4	100.6	4	-1E+10	1	-1E+10	1	-1E+10	1	-1E+10	1	-1E+10	1	-1E+10	1
4901784	194	C	10/26/2020	10:49	-133.653	43.565	0	42.10	0	15.6660	0	35.2650	8	26.030	0	41.760	0	249.0	4	102.0	4	-1E+10	1	-1E+10	1	-1E+10	1	-1E+10	1	-1E+10	1	-1E+10	1
4901784	194	C	10/26/2020	10:49	-133.653	43.565	0	43.50	0	15.0700	0	35.2920	8	26.184	0	43.148	0	252.7	4	102.3	4	-1E+10	1	-1E+10	1	-1E+10	1	-1E+10	1	-1E+10	1	-1E+10	1
4901784	194	C	10/26/2020	10:49	-133.653	43.565	0	45.20	0	14.4100	0	35.3170	8	26.347	0	44.834	0	256.8	4	102.6	4	-1E+10	1	-1E+10	1	-1E+10	1	-1E+10	1	-1E+10	1	-1E+10	1
4901784	194	C	10/26/2020	10:49	-133.653	43.565	0	47.30	0	13.8510	0	35.3460	8	26.488	0	46.917	0	260.5	4	103.0	4	-1E+10	1	-1E+10	1	-1E+10	1	-1E+10	1	-1E+10	1	-1E+10	1
4901784	194	C	10/26/2020	10:49	-133.653	43.565	0	48.80	0	13.7290	0	35.3400	8	26.509	0	48.405	0	260.7	4	102.8	4	-1E+10	1	-1E+10	1	-1E+10	1	-1E+10	1	-1E+10	1	-1E+10	1
4901784	194	C	10/26/2020	10:49	-133.653	43.565	0	50.20	0	13.3470	0	35.3550	8	26.600	0	49.793	0	262.7	4	102.8	4	-1E+10	1	-1E+10	1	-1E+10	1	-1E+10	1	-1E+10	1	-1E+10	1
4901784	194	C	10/26/2020	10:49	-133.653	43.565	0	51.50	0	13.1130	0	35.3520	8	26.645	0	51.082	0	263.4	4	102.6	4	-1E+10	1	-1E+10	1	-1E+10	1	-1E+10	1	-1E+10	1	-1E+10	1
4901784	194	C	10/26/2020	10:49	-133.653	43.565	0	52.90	0	12.7300	0	35.3740	8	26.739	0	52.471	0	264.7	4	102.3	4	-1E+10	1	-1E+10	1	-1E+10	1	-1E+10	1	-1E+10	1	-1E+10	1
4901784	194	C	10/26/2020	10:49	-133.653	43.565	0	54.50	0	12.5980	0	35.3760	8	26.767	0	54.058	0	264.3	4	101.9	4	-1E+10	1	-1E+10	1	-1E+10	1	-1E+10	1	-1E+10	1	-1E+10	1
4901784	194	C	10/26/2020	10:49	-133.653	43.565	0	56.00	0	12.3380	0	35.3840	8	26.824	0	55.545	0	263.7	4	101.2	4	-1E+10	1	-1E+10	1	-1E+10	1	-1E+10	1	-1E+10	1	-1E+10	1
4901784	194	C	10/26/2020	10:49	-133.653	43.565	0	57.50	0	12.1350	0	35.3870	8	26.866	0	57.033	0	262.9	4	100.4	4	-1E+10	1	-1E+10	1	-1E+10	1	-1E+10	1	-1E+10	1	-1E+10	1
4901784	194	C	10/26/2020	10:49	-133.653	43.565	0	59.00	0	11.7960	0	35.4130	8	26.951	0	58.520	0	262.8	4	99.7	4	-1E+10	1	-1E+10	1	-1E+10	1	-1E+10	1	-1E+10	1	-1E+10	1
4901784	194	C	10/26/2020	10:49	-133.653	43.565	0	60.60	0	11.5860	0	35.4250	8	27.000	0	60.107	0	261.8	4	98.9	4	-1E+10	1	-1E+10	1	-1E+10	1	-1E+10	1	-1E+10	1	-1E+10	1
4901784	194	C	10/26/2020	10:49	-133.653	43.565	0	62.00	0	11.5300	0	35.4170	8	27.004	0	61.496	0	260.8	4	98.4	4	-1E+10	1	-1E+10	1	-1E+10	1	-1E+10	1	-1E+10	1	-1E+10	1
4901784	194	C	10/26/2020	10:49	-133.653	43.565	0	63.60	0	11.4370	0	35.4170	8	27.022	0	63.082	0	258.6	4	97.4	4	-1E+10	1	-1E+10	1	-1E+10	1	-1E+10	1	-1E+10	1	-1E+10	1
4901784	194	C	10/26/2020	10:49	-133.653	43.565	0	65.20	0	11.0450	0	35.4370	8	27.110	0	64.669	0	258.2	4	96.4	4	-1E+10	1	-1E+10	1	-1E+10	1	-1E+10	1	-1E+10	1	-1E+10	1
4901784	194	C	10/26/2020	10:49	-133.653	43.565	0	66.80	0	10.9380	0	35.4350	8	27.128	0	66.256	0	257.0	4	95.8	4	-1E+10	1	-1E+10	1	-1E+10	1	-1E+10	1	-1E+10	1	-1E+10	1
4901784	194	C	10/26/2020	10:49	-133.653	43.565	0	68.50	0	10.7580	0	35.4410	8	27.165	0	67.942	0	256.4	4	95.2	4	-1E+10	1	-1E+10	1	-1E+10	1	-1E+10	1	-1E+10	1	-1E+10	1
4901784	194	C	10/26/2020	10:49	-133.653	43.565	0	70.20	0	10.6700	0	35.4510	8	27.189	0	69.628	0	255.3	4	94.6	4	-1E+10	1	-1E+10	1	-1E+10	1	-1E+10	1	-1E+10	1	-1E+10	1
4901784	194	C	10/26/2020	10:49	-133.653	43.565	0	72.00	0	10.5550	0	35.4560	8	27.213	0	71.413	0	254.9	4	94.3	4	-1E+10	1	-1E+10	1	-1E+10	1	-1E+10	1	-1E+10	1	-1E+10	1
4901784	194	C	10/26/2020	10:49	-133.653	43.565	0	73.80	0	10.4850	0	35.4520	8	27.222	0	73.198	0	254.2	4	93.9	4	-1E+10	1	-1E+10	1	-1E+10	1	-1E+10	1	-1E+10	1	-1E+10	1
4901784	194	C	10/26/2020	10:49	-133.653	43.565	0	75.50	0	10.4530	0	35.4460	8	27.223	0	74.883	0	253.1	4	93.3	4	-1E+10	1	-1E+10	1	-1E+10	1	-1E+10	1	-1E+10	1	-1E+10	1
4901784	194	C	10/26/2020	10:49	-133.653	43.565	0	77.20	0	10.3560	0	35.4490	8	27.243	0	76.569	0	251.5	4	92.6	4	-1E+10	1	-1E+10	1	-1E+10	1	-1E+10	1	-1E+10	1	-1E+10	1
4901784	194	C	10/26/2020	10:49	-133.653	43.565	0	78.90	0	10.3620	0	35.4610	8	27.251	0	78.255	0	249.9	4	92.0	4	-1E+10	1	-1E+10	1	-1E+10	1	-1E+10	1	-1E+10	1	-1E+10	1
4901784	194	C	10/26/2020	10:49	-133.653	43.565	0	80.70	0	10.3730	0	35.4650	8	27.252	0	80.040	0	248.1	4	91.4	4	-1E+10	1	-1E+10	1	-1E+10	1	-1E+10	1	-1E+10	1	-1E+10	1
4901784	194	C	10/26/2020	10:49	-133.653	43.565	0	82.40	0	10.2330	0	35.4760	8	27.286	0	81.726	0	247.3	4	90.8	4	-1E+10	1	-1E+10	1	-1E+10	1	-1E+10	1	-1E+10	1	-1E+10	1
4901784	194	C	10/26/2020	10:49	-133.653	43.565	0	84.20	0	10.0910	0	35.4790	8	27.313	0	83.511	0	247.4	4	90.6	4	-1E+10	1	-1E+10	1	-1E+10	1	-1E+10	1	-1E+10	1	-1E+10	1
4901784	194	C	10/26/2020	10:49	-133.653	43.565	0	86.00	0	10.0580	0	35.4730	8	27.314	0	85.295	0	247.2	4	90.4	4	-1E+10	1	-1E+10	1	-1E+10	1	-1E+10	1	-1E+10	1	-1E+10	1
4901784	194	C	10/26/2020	10:49	-133.653	43.565	0	87.70	0	9.9420	0	35.4760	8	27.336	0	86.981	0	247.5	4	90.3	4	-1E+10	1	-1E+10	1	-1E+10	1	-1E+10	1	-1E+10	1	-1E+10	1
4901784	194	C	10/26/2020	10:49	-133.653	43.565	0	89.40	0	9.7880	0	35.4750	8	27.362	0	88.667	0	248.1	4	90.2	4	-1E+10	1	-1E+10	1	-1E+10	1	-1E+10	1	-1E+10	1	-1E+10	1
4901784	194	C	10/26/2020	10:49	-133.653	43.565	0	91.10	0	9.7620	0	35.4690	8	27.361	0	90.353	0	248.4	4	90.3	4	-1E+10	1	-1E+10	1	-1E+10	1	-1E+10	1	-1E+10	1	-1E+10	1
4901784	194	C	10/26/2020	10:49	-133.653	43.565	0	92.80	0	9.7040	0	35.4650	8	27.368	0	92.038	0	248.4	4	90.2	4	-1E+10	1	-1E+10	1	-1E+10	1	-1E+10	1	-1E+10	1	-1E+10	1
4901784	194	C	10/26/2020	10:49	-133.653	43.565	0	94.60	0	9.6250	0	35.4630	8	27.380	0	93.823	0	248.5	4	90.0	4	-1E+10	1	-1E+10	1	-1E+10	1	-1E+10	1	-1E+10	1	-1E+10	1
4901784	194	C	10/26/2020	10:49	-133.653	43.565	0	96.40	0	9.5580	0	35.4620	8	27.390	0	95.608	0	248.6	4	90.0	4	-1E+10	1	-1E+10	1	-1E+10	1	-1E+10	1	-1E+10	1	-1E+10	1
4901784	194	C	10/26/2020	10:49	-133.653	43.565	0	98.00	0	9.5880	0	35.4670	8	27.389	0	97.194	0	248.0	4	89.8	4	-1E+10	1	-1E+10	1	-1E+10	1	-1E+10	1	-1E+10	1	-1E+10	1
4901784	194	C	10/26/2020	10:49	-133.653	43.565	0	99.70	0	9.5050	0	35.4700	8	27.405	0	98.880	0	248.2	4	89.7	4	-1E+10	1	-1E+10	1	-1E+10	1	-1E+10	1	-1E+10	1	-1E+10	1
4901784	194	C	10/26/2020	10:49	-133.653	43.565	0	102.30	0	9.4390	0	35.4690	8	27.416	0	101.458	0	247.5	4	89.3	4	-1E+10	1	-1E+10	1	-1E+10	1	-1E+10	1	-1E+10	1	-1E+10	1
4901784	194	C	10/26/2020	10:49	-133.653	43.565	0	104.90	0	9.3350	0	35.4800	8	27.442	0	104.036	0	247.3	4	89.1	4	-1E+10	1	-1E+10	1	-1E+10	1	-1E+10	1	-1E+10	1	-1E+10	1
4901784	194	C	10/26/2020	10:49	-133.653	43.565	0	107.20	0	9.2550	0	35.4930	8	27.465	0	106.316	0	246.5	4	88.6	4	-1E+10	1	-1E+10	1	-1E+10	1	-1E+10	1	-1E+10	1	-1E+10	1
4901784	194	C	10/26/2020	10:49	-133.653	43.565	0	109.70	0	9.1320	0	35.4920	8	27.484	0	108.795	0	245.3	4	88.0	4	-1E+10	1	-1E+10	1	-1E+10	1	-1E+10	1	-1E+10	1	-1E+10	1
4901784	194	C	10/26/2020	10:49	-133.653	43.565	0	112.80	0	9.0670	0	35.5040	8	27.505	0	111.869	0	241.5	4	86.5	4	-1E+10	1	-1E+10	1	-1E+10	1	-1E+10	1	-1E+10	1	-1E+10	1
4901784	194	C	10/26/2020	10:49	-133.653	43.565	0	115.10	0	9.0130	0	35.5290	8	27.533	0	114.149	0	237.6	4	85.0	4	-1E+10	1	-1E+10	1	-1E+10	1	-1E+10	1	-1E+10	1	-1E+10	1
4901784	194	C	10/26/2020	10:49	-133.653	43.565	0	117.50	0	8.9840	0	35.5750	8	27.574	0	116.528	0	233.4	4	83.5	4	-1E+10	1	-1E+10	1	-1E+10	1	-1E+10	1	-1E+10	1	-1E+10	1
4901784	194	C	10/26/2020	10:49	-133.653	43.565	0	119.90	0	8.8830	0	35.6420	8	27.643	0	118.908	0	229.8	4	82.1	4	-1E+10	1	-1E+10	1	-1E+10	1	-1E+10	1	-1E+10	1	-1E+10	1
4901784	194	C	10/26/2020	10:49	-133.653	43.565	0	122.40	0	8.8300	0	35.6590	8	27.664	0	121.387	0	227.1	4	81.0	4	-1E+10	1	-1E+10	1	-1E+10	1	-1E+10	1	-1E+10	1	-1E+10	1
4901784	194	C	10/26/2020	10:49	-133.653	43.565	0	124.90	0	8.8050	0	35.7070	8	27.706	0	123.865	0	223.3	4	79.7	4	-1E+10	1	-1E+10	1	-1E+10	1	-1E+10	1	-1E+10	1	-1E+10	1
4901784	194	C	10/26/2020	10:49	-133.653	43.565	0	127.30	0	8.7060	0	35.7580	8	27.762	0	126.244	0	220.3	4	78.4	4	-1E+10	1	-1E+10	1	-1E+10	1	-1E+10	1	-1E+10	1	-1E+10	1
4901784	194	C	10/26/2020	10:49	-133.653	43.565	0	129.90	0	8.6850	0	35.8110	8	27.807	0	128.822	0	217.2	4	77.3	4	-1E+10	1	-1E+10	1	-1E+10	1	-1E+10	1	-1E+10	1	-1E+10	1
4901784	194	C	10/26/2020	10:49	-133.653	43.565	0	132.40	0	8.6150	0	35.8520	8	27.850	0	131.301	0	214.4	4	76.2	4	-1E+10	1	-1E+10	1	-1E+10	1	-1E+10	1	-1E+10	1	-1E+10	1
4901784	194	C	10/26/2020	10:49	-133.653	43.565	0	135.10	0	8.4940	0	35.9240	8	27.926	0	133.977	0	212.0	4	75.2	4	-1E+10	1	-1E+10	1	-1E+10	1	-1E+10	1	-1E+10	1	-1E+10	1
4901784	194	C	10/26/2020	10:49	-133.653	43.565	0	137.40	0	8.3420	0	35.9920	8	28.003	0	136.257	0	210.6	4	74.5	4	-1E+10	1	-1E+10	1	-1E+10	1	-1E+10	1	-1E+10	1	-1E+10	1
4901784	194	C	10/26/2020	10:49	-133.653	43.565	0	140.00	0	8.2850	0	36.0290	8	28.041	0	138.835	0	208.1	4	73.5	4	-1E+10	1	-1E+10	1	-1E+10	1	-1E+10	1	-1E+10	1	-1E+10	1
4901784	194	C	10/26/2020	10:49	-133.653	43.565	0	143.00	0	8.1220	0	36.1280	8	28.144	0	141.809	0	205.7	4	72.5	4	-1E+10	1	-1E+10	1	-1E+10	1	-1E+10	1	-1E+10	1	-1E+10	1
4901784	194	C	10/26/2020	10:49	-133.653	43.565	0	145.20	0	8.0180	0	36.1630	8	28.188	0	143.990	0	204.8	4	72.0	4	-1E+10	1	-1E+10	1	-1E+10	1	-1E+10	1	-1E+10	1	-1E+10	1
4901784	194	C	10/26/2020	10:49	-133.653	43.565	0	147.40	0	7.9090	0	36.2120	8	28.243	0	146.171	0	203.5	4	71.4	4	-1E+10	1	-1E+10	1	-1E+10	1	-1E+10	1	-1E+10	1	-1E+10	1
4901784	194	C	10/26/2020	10:49	-133.653	43.565	0	149.70	0	7.8490	0	36.2780	8	28.304	0	148.451	0	202.0	4	70.8	4	-1E+10	1	-1E+10	1	-1E+10	1	-1E+10	1	-1E+10	1	-1E+10	1
4901784	194	C	10/26/2020	10:49	-133.653	43.565	0	152.20	0	7.8630	0	36.3140	8	28.330	0	150.929	0	200.5	4	70.3	4	-1E+10	1	-1E+10	1	-1E+10	1	-1E+10	1	-1E+10	1	-1E+10	1
4901784	194	C	10/26/2020	10:49	-133.653	43.565	0	154.80	0	7.7690	0	36.4000	8	28.412	0	153.506	0	199.8	4	70.0	4	-1E+10	1	-1E+10	1	-1E+10	1	-1E+10	1	-1E+10	1	-1E+10	1
4901784	194	C	10/26/2020	10:49	-133.653	43.565	0	157.40	0	7.6990	0	36.4290	8	28.445	0	156.083	0	199.1	4	69.7	4	-1E+10	1	-1E+10	1	-1E+10	1	-1E+10	1	-1E+10	1	-1E+10	1
4901784	194	C	10/26/2020	10:49	-133.653	43.565	0	159.90	0	7.6120	0	36.4550	8	28.479	0	158.562	0	198.2	4	69.2	4	-1E+10	1	-1E+10	1	-1E+10	1	-1E+10	1	-1E+10	1	-1E+10	1
4901784	194	C	10/26/2020	10:49	-133.653	43.565	0	162.60	0	7.6270	0	36.4910	8	28.505	0	161.238	0	196.6	4	68.7	4	-1E+10	1	-1E+10	1	-1E+10	1	-1E+10	1	-1E+10	1	-1E+10	1
4901784	194	C	10/26/2020	10:49	-133.653	43.565	0	165.30	0	7.6200	0	36.5170	8	28.527	0	163.914	0	195.1	4	68.2	4	-1E+10	1	-1E+10	1	-1E+10	1	-1E+10	1	-1E+10	1	-1E+10	1
4901784	194	C	10/26/2020	10:49	-133.653	43.565	0	167.00	0	7.5210	0	36.5330	8	28.554	0	165.599	0	194.1	4	67.7	4	-1E+10	1	-1E+10	1	-1E+10	1	-1E+10	1	-1E+10	1	-1E+10	1
4901784	194	C	10/26/2020	10:49	-133.653	43.565	0	169.70	0	7.4880	0	36.5770	8	28.593	0	168.276	0	191.9	4	66.9	4	-1E+10	1	-1E+10	1	-1E+10	1	-1E+10	1	-1E+10	1	-1E+10	1
4901784	194	C	10/26/2020	10:49	-133.653	43.565	0	172.40	0	7.5530	0	36.6470	8	28.639	0	170.952	0	189.1	4	66.0	4	-1E+10	1	-1E+10	1	-1E+10	1	-1E+10	1	-1E+10	1	-1E+10	1
4901784	194	C	10/26/2020	10:49	-133.653	43.565	0	175.10	0	7.5810	0	36.6910	8	28.669	0	173.628	0	187.4	4	65.5	4	-1E+10	1	-1E+10	1	-1E+10	1	-1E+10	1	-1E+10	1	-1E+10	1
4901784	194	C	10/26/2020	10:49	-133.653	43.565	0	178.40	0	7.5790	0	36.7150	8	28.689	0	176.899	0	185.8	4	65.0	4	-1E+10	1	-1E+10	1	-1E+10	1	-1E+10	1	-1E+10	1	-1E+10	1
4901784	194	C	10/26/2020	10:49	-133.653	43.565	0	180.30	0	7.5980	0	36.7280	8	28.696	0	178.782	0	184.4	4	64.5	4	-1E+10	1	-1E+10	1	-1E+10	1	-1E+10	1	-1E+10	1	-1E+10	1
4901784	194	C	10/26/2020	10:49	-133.653	43.565	0	182.60	0	7.6070	0	36.7530	8	28.714	0	181.062	0	182.6	4	63.9	4	-1E+10	1	-1E+10	1	-1E+10	1	-1E+10	1	-1E+10	1	-1E+10	1
4901784	194	C	10/26/2020	10:49	-133.653	43.565	0	184.90	0	7.6050	0	36.7630	8	28.723	0	183.341	0	181.1	4	63.4	4	-1E+10	1	-1E+10	1	-1E+10	1	-1E+10	1	-1E+10	1	-1E+10	1
4901784	194	C	10/26/2020	10:49	-133.653	43.565	0	187.20	0	7.6140	0	36.7780	8	28.733	0	185.621	0	179.1	4	62.7	4	-1E+10	1	-1E+10	1	-1E+10	1	-1E+10	1	-1E+10	1	-1E+10	1
4901784	194	C	10/26/2020	10:49	-133.653	43.565	0	190.30	0	7.6440	0	36.8150	8	28.758	0	188.693	0	176.3	4	61.8	4	-1E+10	1	-1E+10	1	-1E+10	1	-1E+10	1	-1E+10	1	-1E+10	1
4901784	194	C	10/26/2020	10:49	-133.653	43.565	0	192.70	0	7.6570	0	36.8330	8	28.770	0	191.072	0	174.3	4	61.1	4	-1E+10	1	-1E+10	1	-1E+10	1	-1E+10	1	-1E+10	1	-1E+10	1
4901784	194	C	10/26/2020	10:49	-133.653	43.565	0	195.00	0	7.6770	0	36.8600	8	28.788	0	193.351	0	172.2	4	60.4	4	-1E+10	1	-1E+10	1	-1E+10	1	-1E+10	1	-1E+10	1	-1E+10	1
4901784	194	C	10/26/2020	10:49	-133.653	43.565	0	197.30	0	7.7250	0	36.8910	8	28.806	0	195.631	0	169.8	4	59.6	4	-1E+10	1	-1E+10	1	-1E+10	1	-1E+10	1	-1E+10	1	-1E+10	1
4901784	194	C	10/26/2020	10:49	-133.653	43.565	0	199.70	0	7.7260	0	36.9120	8	28.822	0	198.009	0	168.0	4	59.0	4	-1E+10	1	-1E+10	1	-1E+10	1	-1E+10	1	-1E+10	1	-1E+10	1
4901784	194	C	10/26/2020	10:49	-133.653	43.565	0	202.90	0	7.7230	0	36.9330	8	28.839	0	201.181	0	166.7	4	58.6	4	-1E+10	1	-1E+10	1	-1E+10	1	-1E+10	1	-1E+10	1	-1E+10	1
4901784	194	C	10/26/2020	10:49	-133.653	43.565	0	205.40	0	7.7370	0	36.9370	8	28.840	0	203.658	0	165.5	4	58.2	4	-1E+10	1	-1E+10	1	-1E+10	1	-1E+10	1	-1E+10	1	-1E+10	1
4901784	194	C	10/26/2020	10:49	-133.653	43.565	0	207.90	0	7.7220	0	36.9540	8	28.856	0	206.136	0	164.5	4	57.8	4	-1E+10	1	-1E+10	1	-1E+10	1	-1E+10	1	-1E+10	1	-1E+10	1
4901784	194	C	10/26/2020	10:49	-133.653	43.565	0	210.40	0	7.7110	0	36.9570	8	28.860	0	208.613	0	163.8	4	57.5	4	-1E+10	1	-1E+10	1	-1E+10	1	-1E+10	1	-1E+10	1	-1E+10	1
4901784	194	C	10/26/2020	10:49	-133.653	43.565	0	212.10	0	7.7070	0	36.9580	8	28.861	0	210.298	0	163.2	4	57.3	4	-1E+10	1	-1E+10	1	-1E+10	1	-1E+10	1	-1E+10	1	-1E+10	1
4901784	194	C	10/26/2020	10:49	-133.653	43.565	0	214.60	0	7.6940	0	36.9680	8	28.871	0	212.776	0	162.1	4	56.9	4	-1E+10	1	-1E+10	1	-1E+10	1	-1E+10	1	-1E+10	1	-1E+10	1
4901784	194	C	10/26/2020	10:49	-133.653	43.565	0	217.20	0	7.6780	0	36.9760	8	28.880	0	215.352	0	161.3	4	56.6	4	-1E+10	1	-1E+10	1	-1E+10	1	-1E+10	1	-1E+10	1	-1E+10	1
4901784	194	C	10/26/2020	10:49	-133.653	43.565	0	219.70	0	7.6750	0	36.9850	8	28.887	0	217.830	0	160.4	4	56.3	4	-1E+10	1	-1E+10	1	-1E+10	1	-1E+10	1	-1E+10	1	-1E+10	1
4901784	194	C	10/26/2020	10:49	-133.653	43.565	0	222.20	0	7.6850	0	36.9960	8	28.895	0	220.307	0	159.6	4	56.0	4	-1E+10	1	-1E+10	1	-1E+10	1	-1E+10	1	-1E+10	1	-1E+10	1
4901784	194	C	10/26/2020	10:49	-133.653	43.565	0	224.60	0	7.6720	0	37.0010	8	28.901	0	222.685	0	159.0	4	55.8	4	-1E+10	1	-1E+10	1	-1E+10	1	-1E+10	1	-1E+10	1	-1E+10	1
4901784	194	C	10/26/2020	10:49	-133.653	43.565	0	227.20	0	7.6500	0	37.0020	8	28.905	0	225.262	0	158.5	4	55.6	4	-1E+10	1	-1E+10	1	-1E+10	1	-1E+10	1	-1E+10	1	-1E+10	1
4901784	194	C	10/26/2020	10:49	-133.653	43.565	0	229.70	0	7.6020	0	37.0010	8	28.911	0	227.739	0	158.2	4	55.5	4	-1E+10	1	-1E+10	1	-1E+10	1	-1E+10	1	-1E+10	1	-1E+10	1
4901784	194	C	10/26/2020	10:49	-133.653	43.565	0	232.20	0	7.5730	0	37.0040	8	28.918	0	230.216	0	157.7	4	55.2	4	-1E+10	1	-1E+10	1	-1E+10	1	-1E+10	1	-1E+10	1	-1E+10	1
4901784	194	C	10/26/2020	10:49	-133.653	43.565	0	234.80	0	7.5340	0	37.0020	8	28.922	0	232.793	0	157.4	4	55.1	4	-1E+10	1	-1E+10	1	-1E+10	1	-1E+10	1	-1E+10	1	-1E+10	1
4901784	194	C	10/26/2020	10:49	-133.653	43.565	0	237.30	0	7.4740	0	37.0070	8	28.935	0	235.270	0	156.9	4	54.9	4	-1E+10	1	-1E+10	1	-1E+10	1	-1E+10	1	-1E+10	1	-1E+10	1
4901784	194	C	10/26/2020	10:49	-133.653	43.565	0	239.90	0	7.4510	0	37.0080	8	28.939	0	237.846	0	156.6	4	54.7	4	-1E+10	1	-1E+10	1	-1E+10	1	-1E+10	1	-1E+10	1	-1E+10	1
4901784	194	C	10/26/2020	10:49	-133.653	43.565	0	242.50	0	7.4340	0	37.0080	8	28.942	0	240.422	0	156.1	4	54.5	4	-1E+10	1	-1E+10	1	-1E+10	1	-1E+10	1	-1E+10	1	-1E+10	1
4901784	194	C	10/26/2020	10:49	-133.653	43.565	0	245.10	0	7.4010	0	37.0100	8	28.949	0	242.998	0	155.6	4	54.3	4	-1E+10	1	-1E+10	1	-1E+10	1	-1E+10	1	-1E+10	1	-1E+10	1
4901784	194	C	10/26/2020	10:49	-133.653	43.565	0	247.70	0	7.3790	0	37.0110	8	28.953	0	245.575	0	155.0	4	54.1	4	-1E+10	1	-1E+10	1	-1E+10	1	-1E+10	1	-1E+10	1	-1E+10	1
4901784	194	C	10/26/2020	10:49	-133.653	43.565	0	250.30	0	7.3510	0	37.0120	8	28.958	0	248.151	0	154.1	4	53.7	4	-1E+10	1	-1E+10	1	-1E+10	1	-1E+10	1	-1E+10	1	-1E+10	1
4901784	194	C	10/26/2020	10:49	-133.653	43.565	0	253.00	0	7.3170	0	37.0130	8	28.963	0	250.826	0	153.2	4	53.4	4	-1E+10	1	-1E+10	1	-1E+10	1	-1E+10	1	-1E+10	1	-1E+10	1
4901784	194	C	10/26/2020	10:49	-133.653	43.565	0	254.80	0	7.2920	0	37.0140	8	28.968	0	252.609	0	152.6	4	53.1	4	-1E+10	1	-1E+10	1	-1E+10	1	-1E+10	1	-1E+10	1	-1E+10	1
4901784	194	C	10/26/2020	10:49	-133.653	43.565	0	257.40	0	7.2560	0	37.0150	8	28.974	0	255.185	0	151.5	4	52.7	4	-1E+10	1	-1E+10	1	-1E+10	1	-1E+10	1	-1E+10	1	-1E+10	1
4901784	194	C	10/26/2020	10:49	-133.653	43.565	0	260.10	0	7.2060	0	37.0180	8	28.984	0	257.860	0	150.6	4	52.3	4	-1E+10	1	-1E+10	1	-1E+10	1	-1E+10	1	-1E+10	1	-1E+10	1
4901784	194	C	10/26/2020	10:49	-133.653	43.565	0	262.70	0	7.1850	0	37.0180	8	28.987	0	260.436	0	149.8	4	52.0	4	-1E+10	1	-1E+10	1	-1E+10	1	-1E+10	1	-1E+10	1	-1E+10	1
4901784	194	C	10/26/2020	10:49	-133.653	43.565	0	265.50	0	7.1540	0	37.0180	8	28.991	0	263.211	0	148.7	4	51.6	4	-1E+10	1	-1E+10	1	-1E+10	1	-1E+10	1	-1E+10	1	-1E+10	1
4901784	194	C	10/26/2020	10:49	-133.653	43.565	0	267.30	0	7.1250	0	37.0190	8	28.996	0	264.994	0	148.1	4	51.4	4	-1E+10	1	-1E+10	1	-1E+10	1	-1E+10	1	-1E+10	1	-1E+10	1
4901784	194	C	10/26/2020	10:49	-133.653	43.565	0	270.00	0	7.0810	0	37.0210	8	29.004	0	267.669	0	147.3	4	51.0	4	-1E+10	1	-1E+10	1	-1E+10	1	-1E+10	1	-1E+10	1	-1E+10	1
4901784	194	C	10/26/2020	10:49	-133.653	43.565	0	272.70	0	7.0440	0	37.0220	8	29.011	0	270.344	0	146.4	4	50.7	4	-1E+10	1	-1E+10	1	-1E+10	1	-1E+10	1	-1E+10	1	-1E+10	1
4901784	194	C	10/26/2020	10:49	-133.653	43.565	0	274.50	0	7.0360	0	37.0210	8	29.011	0	272.127	0	145.7	4	50.4	4	-1E+10	1	-1E+10	1	-1E+10	1	-1E+10	1	-1E+10	1	-1E+10	1
4901784	194	C	10/26/2020	10:49	-133.653	43.565	0	277.30	0	7.0080	0	37.0210	8	29.015	0	274.901	0	144.5	4	50.0	4	-1E+10	1	-1E+10	1	-1E+10	1	-1E+10	1	-1E+10	1	-1E+10	1
4901784	194	C	10/26/2020	10:49	-133.653	43.565	0	280.00	0	6.9840	0	37.0210	8	29.019	0	277.576	0	142.9	4	49.4	4	-1E+10	1	-1E+10	1	-1E+10	1	-1E+10	1	-1E+10	1	-1E+10	1
4901784	194	C	10/26/2020	10:49	-133.653	43.565	0	282.80	0	6.9320	0	37.0210	8	29.026	0	280.350	0	141.0	4	48.7	4	-1E+10	1	-1E+10	1	-1E+10	1	-1E+10	1	-1E+10	1	-1E+10	1
4901784	194	C	10/26/2020	10:49	-133.653	43.565	0	285.50	0	6.8930	0	37.0220	8	29.032	0	283.024	0	139.0	4	48.0	4	-1E+10	1	-1E+10	1	-1E+10	1	-1E+10	1	-1E+10	1	-1E+10	1
4901784	194	C	10/26/2020	10:49	-133.653	43.565	0	287.30	0	6.8740	0	37.0230	8	29.036	0	284.808	0	137.4	4	47.4	4	-1E+10	1	-1E+10	1	-1E+10	1	-1E+10	1	-1E+10	1	-1E+10	1
4901784	194	C	10/26/2020	10:49	-133.653	43.565	0	290.00	0	6.8160	0	37.0270	8	29.047	0	287.482	0	135.1	4	46.5	4	-1E+10	1	-1E+10	1	-1E+10	1	-1E+10	1	-1E+10	1	-1E+10	1
4901784	194	C	10/26/2020	10:49	-133.653	43.565	0	292.80	0	6.7990	0	37.0280	8	29.051	0	290.256	0	132.4	4	45.6	4	-1E+10	1	-1E+10	1	-1E+10	1	-1E+10	1	-1E+10	1	-1E+10	1
4901784	194	C	10/26/2020	10:49	-133.653	43.565	0	294.60	0	6.8230	0	37.0340	8	29.052	0	292.039	0	130.4	4	44.9	4	-1E+10	1	-1E+10	1	-1E+10	1	-1E+10	1	-1E+10	1	-1E+10	1
4901784	194	C	10/26/2020	10:49	-133.653	43.565	0	297.30	0	6.7910	0	37.0340	8	29.057	0	294.714	0	128.9	4	44.4	4	-1E+10	1	-1E+10	1	-1E+10	1	-1E+10	1	-1E+10	1	-1E+10	1
4901784	194	C	10/26/2020	10:49	-133.653	43.565	0	300.00	0	6.7320	0	37.0350	8	29.066	0	297.388	0	127.5	4	43.8	4	-1E+10	1	-1E+10	1	-1E+10	1	-1E+10	1	-1E+10	1	-1E+10	1
4901784	194	C	10/26/2020	10:49	-133.653	43.565	0	302.70	0	6.6830	0	37.0370	8	29.074	0	300.063	0	125.3	4	43.0	4	-1E+10	1	-1E+10	1	-1E+10	1	-1E+10	1	-1E+10	1	-1E+10	1
4901784	194	C	10/26/2020	10:49	-133.653	43.565	0	305.40	0	6.6760	0	37.0380	8	29.076	0	302.737	0	123.6	4	42.4	4	-1E+10	1	-1E+10	1	-1E+10	1	-1E+10	1	-1E+10	1	-1E+10	1
4901784	194	C	10/26/2020	10:49	-133.653	43.565	0	307.20	0	6.6350	0	37.0410	8	29.084	0	304.520	0	123.0	4	42.2	4	-1E+10	1	-1E+10	1	-1E+10	1	-1E+10	1	-1E+10	1	-1E+10	1
4901784	194	C	10/26/2020	10:49	-133.653	43.565	0	310.00	0	6.5960	0	37.0410	8	29.090	0	307.294	0	122.2	4	41.9	4	-1E+10	1	-1E+10	1	-1E+10	1	-1E+10	1	-1E+10	1	-1E+10	1
4901784	194	C	10/26/2020	10:49	-133.653	43.565	0	312.70	0	6.5580	0	37.0390	8	29.093	0	309.968	0	121.5	4	41.6	4	-1E+10	1	-1E+10	1	-1E+10	1	-1E+10	1	-1E+10	1	-1E+10	1
4901784	194	C	10/26/2020	10:49	-133.653	43.565	0	314.50	0	6.5170	0	37.0380	8	29.098	0	311.751	0	120.9	4	41.4	4	-1E+10	1	-1E+10	1	-1E+10	1	-1E+10	1	-1E+10	1	-1E+10	1
4901784	194	C	10/26/2020	10:49	-133.653	43.565	0	317.30	0	6.4740	0	37.0380	8	29.104	0	314.525	0	119.3	4	40.8	4	-1E+10	1	-1E+10	1	-1E+10	1	-1E+10	1	-1E+10	1	-1E+10	1
4901784	194	C	10/26/2020	10:49	-133.653	43.565	0	320.00	0	6.4120	0	37.0400	8	29.114	0	317.199	0	117.6	4	40.1	4	-1E+10	1	-1E+10	1	-1E+10	1	-1E+10	1	-1E+10	1	-1E+10	1
4901784	194	C	10/26/2020	10:49	-133.653	43.565	0	322.70	0	6.3800	0	37.0400	8	29.119	0	319.873	0	116.1	4	39.6	4	-1E+10	1	-1E+10	1	-1E+10	1	-1E+10	1	-1E+10	1	-1E+10	1
4901784	194	C	10/26/2020	10:49	-133.653	43.565	0	325.50	0	6.3350	0	37.0400	8	29.125	0	322.646	0	114.6	4	39.1	4	-1E+10	1	-1E+10	1	-1E+10	1	-1E+10	1	-1E+10	1	-1E+10	1
4901784	194	C	10/26/2020	10:49	-133.653	43.565	0	327.30	0	6.3130	0	37.0410	8	29.129	0	324.429	0	114.1	4	38.9	4	-1E+10	1	-1E+10	1	-1E+10	1	-1E+10	1	-1E+10	1	-1E+10	1
4901784	194	C	10/26/2020	10:49	-133.653	43.565	0	330.00	0	6.2800	0	37.0390	8	29.132	0	327.103	0	113.1	4	38.5	4	-1E+10	1	-1E+10	1	-1E+10	1	-1E+10	1	-1E+10	1	-1E+10	1
4901784	194	C	10/26/2020	10:49	-133.653	43.565	0	332.70	0	6.2420	0	37.0380	8	29.136	0	329.778	0	111.8	4	38.0	4	-1E+10	1	-1E+10	1	-1E+10	1	-1E+10	1	-1E+10	1	-1E+10	1
4901784	194	C	10/26/2020	10:49	-133.653	43.565	0	334.50	0	6.1930	0	37.0410	8	29.145	0	331.560	0	111.0	4	37.7	4	-1E+10	1	-1E+10	1	-1E+10	1	-1E+10	1	-1E+10	1	-1E+10	1
4901784	194	C	10/26/2020	10:49	-133.653	43.565	0	337.20	0	6.1780	0	37.0380	8	29.145	0	334.234	0	110.0	4	37.4	4	-1E+10	1	-1E+10	1	-1E+10	1	-1E+10	1	-1E+10	1	-1E+10	1
4901784	194	C	10/26/2020	10:49	-133.653	43.565	0	339.90	0	6.1540	0	37.0360	8	29.147	0	336.908	0	108.9	4	37.0	4	-1E+10	1	-1E+10	1	-1E+10	1	-1E+10	1	-1E+10	1	-1E+10	1
4901784	194	C	10/26/2020	10:49	-133.653	43.565	0	342.60	0	6.1160	0	37.0330	8	29.149	0	339.582	0	107.7	4	36.5	4	-1E+10	1	-1E+10	1	-1E+10	1	-1E+10	1	-1E+10	1	-1E+10	1
4901784	194	C	10/26/2020	10:49	-133.653	43.565	0	345.30	0	6.0730	0	37.0300	8	29.153	0	342.256	0	106.5	4	36.1	4	-1E+10	1	-1E+10	1	-1E+10	1	-1E+10	1	-1E+10	1	-1E+10	1
4901784	194	C	10/26/2020	10:49	-133.653	43.565	0	347.10	0	6.0660	0	37.0250	8	29.150	0	344.039	0	105.7	4	35.8	4	-1E+10	1	-1E+10	1	-1E+10	1	-1E+10	1	-1E+10	1	-1E+10	1
4901784	194	C	10/26/2020	10:49	-133.653	43.565	0	349.80	0	6.0260	0	37.0230	8	29.153	0	346.713	0	104.2	4	35.2	4	-1E+10	1	-1E+10	1	-1E+10	1	-1E+10	1	-1E+10	1	-1E+10	1
4901784	194	C	10/26/2020	10:49	-133.653	43.565	0	352.60	0	5.9880	0	37.0210	8	29.157	0	349.486	0	102.7	4	34.7	4	-1E+10	1	-1E+10	1	-1E+10	1	-1E+10	1	-1E+10	1	-1E+10	1
4901784	194	C	10/26/2020	10:49	-133.653	43.565	0	354.40	0	5.9510	0	37.0200	8	29.161	0	351.269	0	101.9	4	34.4	4	-1E+10	1	-1E+10	1	-1E+10	1	-1E+10	1	-1E+10	1	-1E+10	1
4901784	194	C	10/26/2020	10:49	-133.653	43.565	0	357.20	0	5.9180	0	37.0160	8	29.162	0	354.041	0	100.6	4	34.0	4	-1E+10	1	-1E+10	1	-1E+10	1	-1E+10	1	-1E+10	1	-1E+10	1
4901784	194	C	10/26/2020	10:49	-133.653	43.565	0	359.90	0	5.8860	0	37.0090	8	29.161	0	356.715	0	99.3	4	33.5	4	-1E+10	1	-1E+10	1	-1E+10	1	-1E+10	1	-1E+10	1	-1E+10	1
4901784	194	C	10/26/2020	10:49	-133.653	43.565	0	362.80	0	5.8510	0	37.0010	8	29.159	0	359.587	0	97.8	4	33.0	4	-1E+10	1	-1E+10	1	-1E+10	1	-1E+10	1	-1E+10	1	-1E+10	1
4901784	194	C	10/26/2020	10:49	-133.653	43.565	0	365.50	0	5.8130	0	36.9900	8	29.156	0	362.261	0	96.3	4	32.4	4	-1E+10	1	-1E+10	1	-1E+10	1	-1E+10	1	-1E+10	1	-1E+10	1
4901784	194	C	10/26/2020	10:49	-133.653	43.565	0	367.30	0	5.7940	0	36.9800	8	29.150	0	364.043	0	95.1	4	32.0	4	-1E+10	1	-1E+10	1	-1E+10	1	-1E+10	1	-1E+10	1	-1E+10	1
4901784	194	C	10/26/2020	10:49	-133.653	43.565	0	370.10	0	5.7550	0	36.9610	8	29.140	0	366.816	0	93.3	4	31.3	4	-1E+10	1	-1E+10	1	-1E+10	1	-1E+10	1	-1E+10	1	-1E+10	1
4901784	194	C	10/26/2020	10:49	-133.653	43.565	0	372.90	0	5.7240	0	36.9190	8	29.111	0	369.589	0	91.5	4	30.7	4	-1E+10	1	-1E+10	1	-1E+10	1	-1E+10	1	-1E+10	1	-1E+10	1
4901784	194	C	10/26/2020	10:49	-133.653	43.565	0	374.80	0	5.6830	0	36.9100	8	29.109	0	371.470	0	90.4	4	30.3	4	-1E+10	1	-1E+10	1	-1E+10	1	-1E+10	1	-1E+10	1	-1E+10	1
4901784	194	C	10/26/2020	10:49	-133.653	43.565	0	377.70	0	5.6190	8	36.8850	8	29.098	0	374.342	0	88.7	4	29.7	4	-1E+10	1	-1E+10	1	-1E+10	1	-1E+10	1	-1E+10	1	-1E+10	1
4901784	194	C	10/26/2020	10:49	-133.653	43.565	0	380.10	0	5.5690	8	36.8260	8	29.057	0	376.718	0	87.5	4	29.2	4	-1E+10	1	-1E+10	1	-1E+10	1	-1E+10	1	-1E+10	1	-1E+10	1
4901784	194	C	10/26/2020	10:49	-133.653	43.565	0	382.40	0	5.5460	8	36.7530	8	29.002	0	378.996	0	86.4	4	28.8	4	-1E+10	1	-1E+10	1	-1E+10	1	-1E+10	1	-1E+10	1	-1E+10	1
4901784	194	C	10/26/2020	10:49	-133.653	43.565	0	384.80	0	5.4940	0	36.7710	8	29.023	0	381.372	0	85.5	4	28.5	4	-1E+10	1	-1E+10	1	-1E+10	1	-1E+10	1	-1E+10	1	-1E+10	1
4901784	194	C	10/26/2020	10:49	-133.653	43.565	0	387.20	0	5.4420	0	36.7700	8	29.029	0	383.748	0	84.9	4	28.3	4	-1E+10	1	-1E+10	1	-1E+10	1	-1E+10	1	-1E+10	1	-1E+10	1
4901784	194	C	10/26/2020	10:49	-133.653	43.565	0	389.60	0	5.4260	0	36.7810	8	29.040	0	386.125	0	84.0	4	28.0	4	-1E+10	1	-1E+10	1	-1E+10	1	-1E+10	1	-1E+10	1	-1E+10	1
4901784	194	C	10/26/2020	10:49	-133.653	43.565	0	392.80	0	5.4070	0	36.7680	8	29.032	0	389.293	0	83.1	4	27.7	4	-1E+10	1	-1E+10	1	-1E+10	1	-1E+10	1	-1E+10	1	-1E+10	1
4901784	194	C	10/26/2020	10:49	-133.653	43.565	0	395.20	0	5.3850	0	36.7710	8	29.037	0	391.670	0	82.5	4	27.5	4	-1E+10	1	-1E+10	1	-1E+10	1	-1E+10	1	-1E+10	1	-1E+10	1
4901784	194	C	10/26/2020	10:49	-133.653	43.565	0	397.60	0	5.3690	0	36.7770	8	29.044	0	394.046	0	81.8	4	27.2	4	-1E+10	1	-1E+10	1	-1E+10	1	-1E+10	1	-1E+10	1	-1E+10	1
4901784	194	C	10/26/2020	10:49	-133.653	43.565	0	400.00	0	5.3620	0	36.7570	8	29.029	0	396.422	0	81.1	4	26.9	4	-1E+10	1	-1E+10	1	-1E+10	1	-1E+10	1	-1E+10	1	-1E+10	1
4901784	194	C	10/26/2020	10:49	-133.653	43.565	0	402.50	0	5.3510	0	36.7530	8	29.027	0	398.897	0	80.0	4	26.6	4	-1E+10	1	-1E+10	1	-1E+10	1	-1E+10	1	-1E+10	1	-1E+10	1
4901784	194	C	10/26/2020	10:49	-133.653	43.565	0	404.90	0	5.3190	0	36.7500	8	29.029	0	401.274	0	78.9	4	26.2	4	-1E+10	1	-1E+10	1	-1E+10	1	-1E+10	1	-1E+10	1	-1E+10	1
4901784	194	C	10/26/2020	10:49	-133.653	43.565	0	407.30	0	5.2770	0	36.7640	8	29.045	0	403.650	0	78.0	4	25.9	4	-1E+10	1	-1E+10	1	-1E+10	1	-1E+10	1	-1E+10	1	-1E+10	1
4901784	194	C	10/26/2020	10:49	-133.653	43.565	0	409.70	0	5.2650	0	36.7700	8	29.051	0	406.026	0	77.1	4	25.6	4	-1E+10	1	-1E+10	1	-1E+10	1	-1E+10	1	-1E+10	1	-1E+10	1
4901784	194	C	10/26/2020	10:49	-133.653	43.565	0	412.20	0	5.2280	0	36.7620	8	29.050	0	408.501	0	76.0	4	25.2	4	-1E+10	1	-1E+10	1	-1E+10	1	-1E+10	1	-1E+10	1	-1E+10	1
4901784	194	C	10/26/2020	10:49	-133.653	43.565	0	414.70	0	5.1970	0	36.7460	8	29.041	0	410.976	0	75.5	4	25.0	4	-1E+10	1	-1E+10	1	-1E+10	1	-1E+10	1	-1E+10	1	-1E+10	1
4901784	194	C	10/26/2020	10:49	-133.653	43.565	0	417.20	0	5.1860	0	36.7560	8	29.050	0	413.451	0	74.8	4	24.8	4	-1E+10	1	-1E+10	1	-1E+10	1	-1E+10	1	-1E+10	1	-1E+10	1
4901784	194	C	10/26/2020	10:49	-133.653	43.565	0	420.40	0	5.1720	0	36.7550	8	29.051	0	416.619	0	74.0	4	24.5	4	-1E+10	1	-1E+10	1	-1E+10	1	-1E+10	1	-1E+10	1	-1E+10	1
4901784	194	C	10/26/2020	10:49	-133.653	43.565	0	422.90	0	5.1600	0	36.7430	8	29.043	0	419.094	0	73.5	4	24.3	4	-1E+10	1	-1E+10	1	-1E+10	1	-1E+10	1	-1E+10	1	-1E+10	1
4901784	194	C	10/26/2020	10:49	-133.653	43.565	0	424.60	0	5.1560	0	36.7270	8	29.031	0	420.777	0	73.2	4	24.2	4	-1E+10	1	-1E+10	1	-1E+10	1	-1E+10	1	-1E+10	1	-1E+10	1
4901784	194	C	10/26/2020	10:49	-133.653	43.565	0	427.10	0	5.1180	0	36.7430	8	29.048	0	423.252	0	72.7	4	24.0	4	-1E+10	1	-1E+10	1	-1E+10	1	-1E+10	1	-1E+10	1	-1E+10	1
4901784	194	C	10/26/2020	10:49	-133.653	43.565	0	429.70	0	5.0850	0	36.7210	8	29.035	0	425.826	0	72.0	4	23.8	4	-1E+10	1	-1E+10	1	-1E+10	1	-1E+10	1	-1E+10	1	-1E+10	1
4901784	194	C	10/26/2020	10:49	-133.653	43.565	0	432.20	0	5.0620	0	36.7220	8	29.038	0	428.301	0	71.0	4	23.4	4	-1E+10	1	-1E+10	1	-1E+10	1	-1E+10	1	-1E+10	1	-1E+10	1
4901784	194	C	10/26/2020	10:49	-133.653	43.565	0	434.70	0	5.0370	0	36.7040	8	29.027	0	430.776	0	69.9	4	23.1	4	-1E+10	1	-1E+10	1	-1E+10	1	-1E+10	1	-1E+10	1	-1E+10	1
4901784	194	C	10/26/2020	10:49	-133.653	43.565	0	437.30	0	5.0120	0	36.7150	8	29.039	0	433.349	0	68.8	4	22.7	4	-1E+10	1	-1E+10	1	-1E+10	1	-1E+10	1	-1E+10	1	-1E+10	1
4901784	194	C	10/26/2020	10:49	-133.653	43.565	0	439.80	0	4.9990	0	36.7110	8	29.037	0	435.824	0	67.8	4	22.4	4	-1E+10	1	-1E+10	1	-1E+10	1	-1E+10	1	-1E+10	1	-1E+10	1
4901784	194	C	10/26/2020	10:49	-133.653	43.565	0	442.40	0	4.9970	0	36.7100	8	29.037	0	438.398	0	67.0	4	22.1	4	-1E+10	1	-1E+10	1	-1E+10	1	-1E+10	1	-1E+10	1	-1E+10	1
4901784	194	C	10/26/2020	10:49	-133.653	43.565	0	445.00	0	4.9920	0	36.6990	8	29.029	0	440.972	0	66.1	4	21.8	4	-1E+10	1	-1E+10	1	-1E+10	1	-1E+10	1	-1E+10	1	-1E+10	1
4901784	194	C	10/26/2020	10:49	-133.653	43.565	0	447.60	0	4.9780	0	36.6850	8	29.019	0	443.545	0	65.1	4	21.4	4	-1E+10	1	-1E+10	1	-1E+10	1	-1E+10	1	-1E+10	1	-1E+10	1
4901784	194	C	10/26/2020	10:49	-133.653	43.565	0	450.20	0	4.9760	0	36.6880	8	29.022	0	446.119	0	63.8	4	21.0	4	-1E+10	1	-1E+10	1	-1E+10	1	-1E+10	1	-1E+10	1	-1E+10	1
4901784	194	C	10/26/2020	10:49	-133.653	43.565	0	452.80	0	4.9530	0	36.7020	8	29.036	0	448.693	0	62.5	4	20.6	4	-1E+10	1	-1E+10	1	-1E+10	1	-1E+10	1	-1E+10	1	-1E+10	1
4901784	194	C	10/26/2020	10:49	-133.653	43.565	0	455.40	0	4.9490	0	36.6920	8	29.028	0	451.266	0	61.2	4	20.1	4	-1E+10	1	-1E+10	1	-1E+10	1	-1E+10	1	-1E+10	1	-1E+10	1
4901784	194	C	10/26/2020	10:49	-133.653	43.565	0	457.20	0	4.9360	0	36.6880	8	29.027	0	453.048	0	60.5	4	19.9	4	-1E+10	1	-1E+10	1	-1E+10	1	-1E+10	1	-1E+10	1	-1E+10	1
4901784	194	C	10/26/2020	10:49	-133.653	43.565	0	459.90	0	4.9310	0	36.6720	8	29.015	0	455.721	0	59.5	4	19.6	4	-1E+10	1	-1E+10	1	-1E+10	1	-1E+10	1	-1E+10	1	-1E+10	1
4901784	194	C	10/26/2020	10:49	-133.653	43.565	0	462.50	0	4.9030	0	36.6680	8	29.015	0	458.294	0	58.5	4	19.2	4	-1E+10	1	-1E+10	1	-1E+10	1	-1E+10	1	-1E+10	1	-1E+10	1
4901784	194	C	10/26/2020	10:49	-133.653	43.565	0	465.20	0	4.8950	0	36.6670	8	29.015	0	460.967	0	57.4	4	18.8	4	-1E+10	1	-1E+10	1	-1E+10	1	-1E+10	1	-1E+10	1	-1E+10	1
4901784	194	C	10/26/2020	10:49	-133.653	43.565	0	467.90	0	4.8640	0	36.6530	8	29.008	0	463.639	0	56.3	4	18.5	4	-1E+10	1	-1E+10	1	-1E+10	1	-1E+10	1	-1E+10	1	-1E+10	1
4901784	194	C	10/26/2020	10:49	-133.653	43.565	0	469.80	0	4.8660	0	36.6440	8	29.000	0	465.519	0	55.3	4	18.2	4	-1E+10	1	-1E+10	1	-1E+10	1	-1E+10	1	-1E+10	1	-1E+10	1
4901784	194	C	10/26/2020	10:49	-133.653	43.565	0	472.50	0	4.8630	0	36.6470	8	29.003	0	468.192	0	54.0	4	17.7	4	-1E+10	1	-1E+10	1	-1E+10	1	-1E+10	1	-1E+10	1	-1E+10	1
4901784	194	C	10/26/2020	10:49	-133.653	43.565	0	475.30	0	4.8440	0	36.6430	8	29.002	0	470.963	0	52.9	4	17.4	4	-1E+10	1	-1E+10	1	-1E+10	1	-1E+10	1	-1E+10	1	-1E+10	1
4901784	194	C	10/26/2020	10:49	-133.653	43.565	0	477.10	0	4.8070	0	36.6450	8	29.008	0	472.745	0	52.1	4	17.1	4	-1E+10	1	-1E+10	1	-1E+10	1	-1E+10	1	-1E+10	1	-1E+10	1
4901784	194	C	10/26/2020	10:49	-133.653	43.565	0	479.90	0	4.8250	0	36.6530	8	29.012	0	475.516	0	50.4	4	16.5	4	-1E+10	1	-1E+10	1	-1E+10	1	-1E+10	1	-1E+10	1	-1E+10	1
4901784	194	C	10/26/2020	10:49	-133.653	43.565	0	482.60	0	4.8240	0	36.6620	8	29.020	0	478.188	0	49.2	4	16.1	4	-1E+10	1	-1E+10	1	-1E+10	1	-1E+10	1	-1E+10	1	-1E+10	1
4901784	194	C	10/26/2020	10:49	-133.653	43.565	0	484.40	0	4.8100	0	36.6710	8	29.029	0	479.970	0	48.4	4	15.9	4	-1E+10	1	-1E+10	1	-1E+10	1	-1E+10	1	-1E+10	1	-1E+10	1
4901784	194	C	10/26/2020	10:49	-133.653	43.565	0	487.20	0	4.8150	0	36.6700	8	29.027	0	482.741	0	46.9	4	15.4	4	-1E+10	1	-1E+10	1	-1E+10	1	-1E+10	1	-1E+10	1	-1E+10	1
4901784	194	C	10/26/2020	10:49	-133.653	43.565	0	490.00	0	4.8070	0	36.6690	8	29.027	0	485.512	0	45.5	4	14.9	4	-1E+10	1	-1E+10	1	-1E+10	1	-1E+10	1	-1E+10	1	-1E+10	1
4901784	194	C	10/26/2020	10:49	-133.653	43.565	0	491.90	0	4.8160	0	36.6800	8	29.035	0	487.392	0	44.8	4	14.7	4	-1E+10	1	-1E+10	1	-1E+10	1	-1E+10	1	-1E+10	1	-1E+10	1
4901784	194	C	10/26/2020	10:49	-133.653	43.565	0	494.70	0	4.7880	0	36.6720	8	29.032	0	490.163	0	43.7	4	14.3	4	-1E+10	1	-1E+10	1	-1E+10	1	-1E+10	1	-1E+10	1	-1E+10	1
4901784	194	C	10/26/2020	10:49	-133.653	43.565	0	497.50	0	4.7880	0	36.6660	8	29.027	0	492.934	0	42.3	4	13.9	4	-1E+10	1	-1E+10	1	-1E+10	1	-1E+10	1	-1E+10	1	-1E+10	1
4901784	194	C	10/26/2020	10:49	-133.653	43.565	0	499.40	0	4.8030	0	36.6790	8	29.036	0	494.815	0	41.3	4	13.5	4	-1E+10	1	-1E+10	1	-1E+10	1	-1E+10	1	-1E+10	1	-1E+10	1
4901784	194	C	10/26/2020	10:49	-133.653	43.565	0	505.10	0	4.8470	0	36.6760	8	29.028	0	500.455	0	38.9	4	12.8	4	-1E+10	1	-1E+10	1	-1E+10	1	-1E+10	1	-1E+10	1	-1E+10	1
4901784	194	C	10/26/2020	10:49	-133.653	43.565	0	510.50	0	4.8410	0	36.6670	8	29.022	0	505.799	0	37.5	4	12.3	4	-1E+10	1	-1E+10	1	-1E+10	1	-1E+10	1	-1E+10	1	-1E+10	1
4901784	194	C	10/26/2020	10:49	-133.653	43.565	0	515.40	0	4.8460	0	36.6760	8	29.029	0	510.648	0	35.8	4	11.8	4	-1E+10	1	-1E+10	1	-1E+10	1	-1E+10	1	-1E+10	1	-1E+10	1
4901784	194	C	10/26/2020	10:49	-133.653	43.565	0	520.30	0	4.8470	0	36.6770	8	29.029	0	515.497	0	34.6	4	11.3	4	-1E+10	1	-1E+10	1	-1E+10	1	-1E+10	1	-1E+10	1	-1E+10	1
4901784	194	C	10/26/2020	10:49	-133.653	43.565	0	525.20	0	4.8450	0	36.6780	8	29.030	0	520.345	0	33.6	4	11.0	4	-1E+10	1	-1E+10	1	-1E+10	1	-1E+10	1	-1E+10	1	-1E+10	1
4901784	194	C	10/26/2020	10:49	-133.653	43.565	0	530.30	0	4.8410	0	36.6720	8	29.026	0	525.392	0	32.6	4	10.7	4	-1E+10	1	-1E+10	1	-1E+10	1	-1E+10	1	-1E+10	1	-1E+10	1
4901784	194	C	10/26/2020	10:49	-133.653	43.565	0	535.30	0	4.8240	0	36.6730	8	29.029	0	530.339	0	31.4	4	10.3	4	-1E+10	1	-1E+10	1	-1E+10	1	-1E+10	1	-1E+10	1	-1E+10	1
4901784	194	C	10/26/2020	10:49	-133.653	43.565	0	540.40	0	4.8140	0	36.6780	8	29.034	0	535.385	0	30.2	4	9.9	4	-1E+10	1	-1E+10	1	-1E+10	1	-1E+10	1	-1E+10	1	-1E+10	1
4901784	194	C	10/26/2020	10:49	-133.653	43.565	0	545.50	0	4.8110	0	36.6810	8	29.037	0	540.431	0	29.1	4	9.5	4	-1E+10	1	-1E+10	1	-1E+10	1	-1E+10	1	-1E+10	1	-1E+10	1
4901784	194	C	10/26/2020	10:49	-133.653	43.565	0	550.70	0	4.7940	0	36.6860	8	29.043	0	545.576	0	28.2	4	9.2	4	-1E+10	1	-1E+10	1	-1E+10	1	-1E+10	1	-1E+10	1	-1E+10	1
4901784	194	C	10/26/2020	10:49	-133.653	43.565	0	555.00	0	4.7840	0	36.6900	8	29.047	0	549.831	0	27.3	4	9.0	4	-1E+10	1	-1E+10	1	-1E+10	1	-1E+10	1	-1E+10	1	-1E+10	1
4901784	194	C	10/26/2020	10:49	-133.653	43.565	0	559.30	0	4.7720	0	36.6950	8	29.053	0	554.085	0	26.4	4	8.6	4	-1E+10	1	-1E+10	1	-1E+10	1	-1E+10	1	-1E+10	1	-1E+10	1
4901784	194	C	10/26/2020	10:49	-133.653	43.565	0	564.50	0	4.7490	0	36.7030	8	29.062	0	559.229	0	25.5	4	8.4	4	-1E+10	1	-1E+10	1	-1E+10	1	-1E+10	1	-1E+10	1	-1E+10	1
4901784	194	C	10/26/2020	10:49	-133.653	43.565	0	569.80	0	4.7340	0	36.7080	8	29.068	0	564.473	0	24.8	4	8.1	4	-1E+10	1	-1E+10	1	-1E+10	1	-1E+10	1	-1E+10	1	-1E+10	1
4901784	194	C	10/26/2020	10:49	-133.653	43.565	0	575.20	0	4.7230	0	36.7120	8	29.072	0	569.815	0	24.4	4	8.0	4	-1E+10	1	-1E+10	1	-1E+10	1	-1E+10	1	-1E+10	1	-1E+10	1
4901784	194	C	10/26/2020	10:49	-133.653	43.565	0	580.50	0	4.6940	0	36.7130	8	29.077	0	575.058	0	24.2	4	7.9	4	-1E+10	1	-1E+10	1	-1E+10	1	-1E+10	1	-1E+10	1	-1E+10	1
4901784	194	C	10/26/2020	10:49	-133.653	43.565	0	585.00	0	4.6770	0	36.7160	8	29.081	0	579.509	0	23.6	4	7.7	4	-1E+10	1	-1E+10	1	-1E+10	1	-1E+10	1	-1E+10	1	-1E+10	1
4901784	194	C	10/26/2020	10:49	-133.653	43.565	0	589.50	0	4.6530	0	36.7210	8	29.088	0	583.961	0	23.1	4	7.5	4	-1E+10	1	-1E+10	1	-1E+10	1	-1E+10	1	-1E+10	1	-1E+10	1
4901784	194	C	10/26/2020	10:49	-133.653	43.565	0	594.90	0	4.6190	0	36.7270	8	29.097	0	589.302	0	22.6	4	7.4	4	-1E+10	1	-1E+10	1	-1E+10	1	-1E+10	1	-1E+10	1	-1E+10	1
4901784	194	C	10/26/2020	10:49	-133.653	43.565	0	600.50	0	4.6110	0	36.7290	8	29.099	0	594.842	0	22.4	4	7.3	4	-1E+10	1	-1E+10	1	-1E+10	1	-1E+10	1	-1E+10	1	-1E+10	1
4901784	194	C	10/26/2020	10:49	-133.653	43.565	0	605.20	0	4.5900	0	36.7300	8	29.102	0	599.491	0	22.2	4	7.2	4	-1E+10	1	-1E+10	1	-1E+10	1	-1E+10	1	-1E+10	1	-1E+10	1
4901784	194	C	10/26/2020	10:49	-133.653	43.565	0	609.80	0	4.5720	0	36.7310	8	29.105	0	604.041	0	21.8	4	7.1	4	-1E+10	1	-1E+10	1	-1E+10	1	-1E+10	1	-1E+10	1	-1E+10	1
4901784	194	C	10/26/2020	10:49	-133.653	43.565	0	615.40	0	4.5380	0	36.7360	8	29.113	0	609.580	0	21.2	4	6.9	4	-1E+10	1	-1E+10	1	-1E+10	1	-1E+10	1	-1E+10	1	-1E+10	1
4901784	194	C	10/26/2020	10:49	-133.653	43.565	0	620.00	0	4.5250	0	36.7410	8	29.119	0	614.129	0	20.6	4	6.7	4	-1E+10	1	-1E+10	1	-1E+10	1	-1E+10	1	-1E+10	1	-1E+10	1
4901784	194	C	10/26/2020	10:49	-133.653	43.565	0	624.60	0	4.5150	0	36.7450	8	29.123	0	618.679	0	20.0	4	6.5	4	-1E+10	1	-1E+10	1	-1E+10	1	-1E+10	1	-1E+10	1	-1E+10	1
4901784	194	C	10/26/2020	10:49	-133.653	43.565	0	630.30	0	4.4970	0	36.7530	8	29.132	0	624.316	0	19.1	4	6.2	4	-1E+10	1	-1E+10	1	-1E+10	1	-1E+10	1	-1E+10	1	-1E+10	1
4901784	194	C	10/26/2020	10:49	-133.653	43.565	0	634.90	0	4.4720	0	36.7600	8	29.140	0	628.866	0	18.4	4	6.0	4	-1E+10	1	-1E+10	1	-1E+10	1	-1E+10	1	-1E+10	1	-1E+10	1
4901784	194	C	10/26/2020	10:49	-133.653	43.565	0	639.60	0	4.4620	0	36.7650	8	29.145	0	633.514	0	17.7	4	5.8	4	-1E+10	1	-1E+10	1	-1E+10	1	-1E+10	1	-1E+10	1	-1E+10	1
4901784	194	C	10/26/2020	10:49	-133.653	43.565	0	645.10	0	4.4620	0	36.7750	8	29.153	0	638.953	0	17.1	4	5.6	4	-1E+10	1	-1E+10	1	-1E+10	1	-1E+10	1	-1E+10	1	-1E+10	1
4901784	194	C	10/26/2020	10:49	-133.653	43.565	0	649.80	0	4.4270	0	36.7800	8	29.161	0	643.601	0	16.8	4	5.5	4	-1E+10	1	-1E+10	1	-1E+10	1	-1E+10	1	-1E+10	1	-1E+10	1
4901784	194	C	10/26/2020	10:49	-133.653	43.565	0	654.50	0	4.3890	0	36.7840	8	29.169	0	648.249	0	16.4	4	5.3	4	-1E+10	1	-1E+10	1	-1E+10	1	-1E+10	1	-1E+10	1	-1E+10	1
4901784	194	C	10/26/2020	10:49	-133.653	43.565	0	660.10	0	4.3600	0	36.7900	8	29.177	0	653.787	0	16.1	4	5.2	4	-1E+10	1	-1E+10	1	-1E+10	1	-1E+10	1	-1E+10	1	-1E+10	1
4901784	194	C	10/26/2020	10:49	-133.653	43.565	0	664.90	0	4.3350	0	36.7920	8	29.181	0	658.533	0	15.8	4	5.1	4	-1E+10	1	-1E+10	1	-1E+10	1	-1E+10	1	-1E+10	1	-1E+10	1
4901784	194	C	10/26/2020	10:49	-133.653	43.565	0	669.60	0	4.3290	0	36.7960	8	29.185	0	663.181	0	15.5	4	5.0	4	-1E+10	1	-1E+10	1	-1E+10	1	-1E+10	1	-1E+10	1	-1E+10	1
4901784	194	C	10/26/2020	10:49	-133.653	43.565	0	675.30	0	4.3150	0	36.8000	8	29.190	0	668.817	0	15.2	4	4.9	4	-1E+10	1	-1E+10	1	-1E+10	1	-1E+10	1	-1E+10	1	-1E+10	1
4901784	194	C	10/26/2020	10:49	-133.653	43.565	0	680.10	0	4.2970	0	36.8050	8	29.196	0	673.563	0	14.8	4	4.8	4	-1E+10	1	-1E+10	1	-1E+10	1	-1E+10	1	-1E+10	1	-1E+10	1
4901784	194	C	10/26/2020	10:49	-133.653	43.565	0	684.90	0	4.3030	0	36.8120	8	29.201	0	678.309	0	14.4	4	4.7	4	-1E+10	1	-1E+10	1	-1E+10	1	-1E+10	1	-1E+10	1	-1E+10	1
4901784	194	C	10/26/2020	10:49	-133.653	43.565	0	689.70	0	4.3060	0	36.8190	8	29.206	0	683.055	0	14.1	4	4.6	4	-1E+10	1	-1E+10	1	-1E+10	1	-1E+10	1	-1E+10	1	-1E+10	1
4901784	194	C	10/26/2020	10:49	-133.653	43.565	0	694.50	0	4.2760	0	36.8200	8	29.210	0	687.801	0	14.0	4	4.5	4	-1E+10	1	-1E+10	1	-1E+10	1	-1E+10	1	-1E+10	1	-1E+10	1
4901784	194	C	10/26/2020	10:49	-133.653	43.565	0	700.30	0	4.2500	0	36.8240	8	29.217	0	693.535	0	13.7	4	4.4	4	-1E+10	1	-1E+10	1	-1E+10	1	-1E+10	1	-1E+10	1	-1E+10	1
4901784	194	C	10/26/2020	10:49	-133.653	43.565	0	705.10	0	4.2530	0	36.8290	8	29.220	0	698.281	0	13.5	4	4.4	4	-1E+10	1	-1E+10	1	-1E+10	1	-1E+10	1	-1E+10	1	-1E+10	1
4901784	194	C	10/26/2020	10:49	-133.653	43.565	0	709.80	0	4.2490	0	36.8300	8	29.222	0	702.927	0	13.3	4	4.3	4	-1E+10	1	-1E+10	1	-1E+10	1	-1E+10	1	-1E+10	1	-1E+10	1
4901784	194	C	10/26/2020	10:49	-133.653	43.565	0	715.50	0	4.2360	0	36.8350	8	29.227	0	708.563	0	13.1	4	4.2	4	-1E+10	1	-1E+10	1	-1E+10	1	-1E+10	1	-1E+10	1	-1E+10	1
4901784	194	C	10/26/2020	10:49	-133.653	43.565	0	720.10	0	4.2200	0	36.8390	8	29.232	0	713.110	0	12.9	4	4.2	4	-1E+10	1	-1E+10	1	-1E+10	1	-1E+10	1	-1E+10	1	-1E+10	1
4901784	194	C	10/26/2020	10:49	-133.653	43.565	0	724.80	0	4.2030	0	36.8450	8	29.239	0	717.756	0	12.6	4	4.1	4	-1E+10	1	-1E+10	1	-1E+10	1	-1E+10	1	-1E+10	1	-1E+10	1
4901784	194	C	10/26/2020	10:49	-133.653	43.565	0	729.50	0	4.1900	0	36.8480	8	29.243	0	722.403	0	12.4	4	4.0	4	-1E+10	1	-1E+10	1	-1E+10	1	-1E+10	1	-1E+10	1	-1E+10	1
4901784	194	C	10/26/2020	10:49	-133.653	43.565	0	734.30	0	4.1950	0	36.8560	8	29.249	0	727.148	0	12.2	4	3.9	4	-1E+10	1	-1E+10	1	-1E+10	1	-1E+10	1	-1E+10	1	-1E+10	1
4901784	194	C	10/26/2020	10:49	-133.653	43.565	0	739.60	0	4.1570	0	36.8600	8	29.256	0	732.387	0	12.0	4	3.9	4	-1E+10	1	-1E+10	1	-1E+10	1	-1E+10	1	-1E+10	1	-1E+10	1
4901784	194	C	10/26/2020	10:49	-133.653	43.565	0	744.50	0	4.1520	0	36.8650	8	29.261	0	737.230	0	11.8	4	3.8	4	-1E+10	1	-1E+10	1	-1E+10	1	-1E+10	1	-1E+10	1	-1E+10	1
4901784	194	C	10/26/2020	10:49	-133.653	43.565	0	749.20	0	4.1240	0	36.8700	8	29.268	0	741.876	0	11.6	4	3.7	4	-1E+10	1	-1E+10	1	-1E+10	1	-1E+10	1	-1E+10	1	-1E+10	1
4901784	194	C	10/26/2020	10:49	-133.653	43.565	0	755.00	0	4.1150	0	36.8780	8	29.275	0	747.609	0	11.3	4	3.7	4	-1E+10	1	-1E+10	1	-1E+10	1	-1E+10	1	-1E+10	1	-1E+10	1
4901784	194	C	10/26/2020	10:49	-133.653	43.565	0	760.60	0	4.1340	0	36.8850	8	29.279	0	753.144	0	11.1	4	3.6	4	-1E+10	1	-1E+10	1	-1E+10	1	-1E+10	1	-1E+10	1	-1E+10	1
4901784	194	C	10/26/2020	10:49	-133.653	43.565	0	765.50	0	4.1150	0	36.8870	8	29.282	0	757.987	0	11.0	4	3.6	4	-1E+10	1	-1E+10	1	-1E+10	1	-1E+10	1	-1E+10	1	-1E+10	1
4901784	194	C	10/26/2020	10:49	-133.653	43.565	0	770.40	0	4.1010	0	36.8950	8	29.290	0	762.830	0	10.9	4	3.5	4	-1E+10	1	-1E+10	1	-1E+10	1	-1E+10	1	-1E+10	1	-1E+10	1
4901784	194	C	10/26/2020	10:49	-133.653	43.565	0	775.50	0	4.0820	0	36.8980	8	29.295	0	767.871	0	10.8	4	3.5	4	-1E+10	1	-1E+10	1	-1E+10	1	-1E+10	1	-1E+10	1	-1E+10	1
4901784	194	C	10/26/2020	10:49	-133.653	43.565	0	780.50	0	4.0730	0	36.9010	8	29.298	0	772.812	0	10.8	4	3.5	4	-1E+10	1	-1E+10	1	-1E+10	1	-1E+10	1	-1E+10	1	-1E+10	1
4901784	194	C	10/26/2020	10:49	-133.653	43.565	0	785.60	0	4.0540	0	36.9020	8	29.301	0	777.852	0	10.7	4	3.5	4	-1E+10	1	-1E+10	1	-1E+10	1	-1E+10	1	-1E+10	1	-1E+10	1
4901784	194	C	10/26/2020	10:49	-133.653	43.565	0	790.60	0	4.0390	0	36.9060	8	29.306	0	782.794	0	10.6	4	3.4	4	-1E+10	1	-1E+10	1	-1E+10	1	-1E+10	1	-1E+10	1	-1E+10	1
4901784	194	C	10/26/2020	10:49	-133.653	43.565	0	795.70	0	4.0350	0	36.9090	8	29.309	0	787.834	0	10.5	4	3.4	4	-1E+10	1	-1E+10	1	-1E+10	1	-1E+10	1	-1E+10	1	-1E+10	1
4901784	194	C	10/26/2020	10:49	-133.653	43.565	0	800.70	0	4.0170	0	36.9160	8	29.317	0	792.775	0	10.4	4	3.4	4	-1E+10	1	-1E+10	1	-1E+10	1	-1E+10	1	-1E+10	1	-1E+10	1
4901784	194	C	10/26/2020	10:49	-133.653	43.565	0	805.80	0	4.0070	0	36.9210	8	29.322	0	797.815	0	10.4	4	3.3	4	-1E+10	1	-1E+10	1	-1E+10	1	-1E+10	1	-1E+10	1	-1E+10	1
4901784	194	C	10/26/2020	10:49	-133.653	43.565	0	810.00	0	4.0030	0	36.9220	8	29.323	0	801.965	0	10.3	4	3.3	4	-1E+10	1	-1E+10	1	-1E+10	1	-1E+10	1	-1E+10	1	-1E+10	1
4901784	194	C	10/26/2020	10:49	-133.653	43.565	0	814.20	0	3.9760	0	36.9240	8	29.327	0	806.115	0	10.3	4	3.3	4	-1E+10	1	-1E+10	1	-1E+10	1	-1E+10	1	-1E+10	1	-1E+10	1
4901784	194	C	10/26/2020	10:49	-133.653	43.565	0	819.40	0	3.9680	0	36.9280	8	29.332	0	811.253	0	10.2	4	3.3	4	-1E+10	1	-1E+10	1	-1E+10	1	-1E+10	1	-1E+10	1	-1E+10	1
4901784	194	C	10/26/2020	10:49	-133.653	43.565	0	824.60	0	3.9560	0	36.9320	8	29.336	0	816.392	0	10.2	4	3.3	4	-1E+10	1	-1E+10	1	-1E+10	1	-1E+10	1	-1E+10	1	-1E+10	1
4901784	194	C	10/26/2020	10:49	-133.653	43.565	0	829.90	0	3.9510	0	36.9360	8	29.340	0	821.628	0	10.2	4	3.3	4	-1E+10	1	-1E+10	1	-1E+10	1	-1E+10	1	-1E+10	1	-1E+10	1
4901784	194	C	10/26/2020	10:49	-133.653	43.565	0	835.10	0	3.9390	0	36.9390	8	29.344	0	826.766	0	10.1	4	3.3	4	-1E+10	1	-1E+10	1	-1E+10	1	-1E+10	1	-1E+10	1	-1E+10	1
4901784	194	C	10/26/2020	10:49	-133.653	43.565	0	840.30	0	3.9270	0	36.9410	8	29.347	0	831.904	0	10.1	4	3.3	4	-1E+10	1	-1E+10	1	-1E+10	1	-1E+10	1	-1E+10	1	-1E+10	1
4901784	194	C	10/26/2020	10:49	-133.653	43.565	0	845.60	0	3.9090	0	36.9440	8	29.351	0	837.140	0	10.1	4	3.2	4	-1E+10	1	-1E+10	1	-1E+10	1	-1E+10	1	-1E+10	1	-1E+10	1
4901784	194	C	10/26/2020	10:49	-133.653	43.565	0	850.10	0	3.8960	0	36.9480	8	29.356	0	841.586	0	10.1	4	3.2	4	-1E+10	1	-1E+10	1	-1E+10	1	-1E+10	1	-1E+10	1	-1E+10	1
4901784	194	C	10/26/2020	10:49	-133.653	43.565	0	854.60	0	3.8850	0	36.9530	8	29.361	0	846.032	0	10.1	4	3.2	4	-1E+10	1	-1E+10	1	-1E+10	1	-1E+10	1	-1E+10	1	-1E+10	1
4901784	194	C	10/26/2020	10:49	-133.653	43.565	0	860.00	0	3.8650	0	36.9550	8	29.365	0	851.367	0	10.1	4	3.2	4	-1E+10	1	-1E+10	1	-1E+10	1	-1E+10	1	-1E+10	1	-1E+10	1
4901784	194	C	10/26/2020	10:49	-133.653	43.565	0	865.30	0	3.8470	0	36.9600	8	29.371	0	856.603	0	10.1	4	3.2	4	-1E+10	1	-1E+10	1	-1E+10	1	-1E+10	1	-1E+10	1	-1E+10	1
4901784	194	C	10/26/2020	10:49	-133.653	43.565	0	869.90	0	3.8430	0	36.9640	8	29.374	0	861.147	0	10.1	4	3.2	4	-1E+10	1	-1E+10	1	-1E+10	1	-1E+10	1	-1E+10	1	-1E+10	1
4901784	194	C	10/26/2020	10:49	-133.653	43.565	0	875.20	0	3.8310	0	36.9670	8	29.378	0	866.383	0	10.1	4	3.2	4	-1E+10	1	-1E+10	1	-1E+10	1	-1E+10	1	-1E+10	1	-1E+10	1
4901784	194	C	10/26/2020	10:49	-133.653	43.565	0	880.20	0	3.8180	0	36.9690	8	29.381	0	871.322	0	10.1	4	3.3	4	-1E+10	1	-1E+10	1	-1E+10	1	-1E+10	1	-1E+10	1	-1E+10	1
4901784	194	C	10/26/2020	10:49	-133.653	43.565	0	884.90	0	3.7940	0	36.9740	8	29.387	0	875.965	0	10.2	4	3.3	4	-1E+10	1	-1E+10	1	-1E+10	1	-1E+10	1	-1E+10	1	-1E+10	1
4901784	194	C	10/26/2020	10:49	-133.653	43.565	0	889.70	0	3.7740	0	36.9770	8	29.392	0	880.706	0	10.2	4	3.3	4	-1E+10	1	-1E+10	1	-1E+10	1	-1E+10	1	-1E+10	1	-1E+10	1
4901784	194	C	10/26/2020	10:49	-133.653	43.565	0	894.60	0	3.7980	0	36.9830	8	29.394	0	885.547	0	10.3	4	3.3	4	-1E+10	1	-1E+10	1	-1E+10	1	-1E+10	1	-1E+10	1	-1E+10	1
4901784	194	C	10/26/2020	10:49	-133.653	43.565	0	899.50	0	3.7930	0	36.9880	8	29.399	0	890.387	0	10.4	4	3.3	4	-1E+10	1	-1E+10	1	-1E+10	1	-1E+10	1	-1E+10	1	-1E+10	1
4901784	194	C	10/26/2020	10:49	-133.653	43.565	0	904.30	0	3.7780	0	36.9910	8	29.403	0	895.128	0	10.4	4	3.3	4	-1E+10	1	-1E+10	1	-1E+10	1	-1E+10	1	-1E+10	1	-1E+10	1
4901784	194	C	10/26/2020	10:49	-133.653	43.565	0	909.30	0	3.7650	0	36.9920	8	29.405	0	900.066	0	10.4	4	3.3	4	-1E+10	1	-1E+10	1	-1E+10	1	-1E+10	1	-1E+10	1	-1E+10	1
4901784	194	C	10/26/2020	10:49	-133.653	43.565	0	914.20	0	3.7510	0	36.9960	8	29.410	0	904.906	0	10.5	4	3.4	4	-1E+10	1	-1E+10	1	-1E+10	1	-1E+10	1	-1E+10	1	-1E+10	1
4901784	194	C	10/26/2020	10:49	-133.653	43.565	0	919.30	0	3.7460	0	36.9980	8	29.412	0	909.943	0	10.5	4	3.4	4	-1E+10	1	-1E+10	1	-1E+10	1	-1E+10	1	-1E+10	1	-1E+10	1
4901784	194	C	10/26/2020	10:49	-133.653	43.565	0	924.30	0	3.7340	0	36.9990	8	29.414	0	914.881	0	10.4	4	3.3	4	-1E+10	1	-1E+10	1	-1E+10	1	-1E+10	1	-1E+10	1	-1E+10	1
4901784	194	C	10/26/2020	10:49	-133.653	43.565	0	929.40	0	3.6790	0	36.9960	8	29.418	0	919.918	0	10.3	4	3.3	4	-1E+10	1	-1E+10	1	-1E+10	1	-1E+10	1	-1E+10	1	-1E+10	1
4901784	194	C	10/26/2020	10:49	-133.653	43.565	0	934.40	0	3.6360	0	36.9950	8	29.421	0	924.856	0	10.2	4	3.3	4	-1E+10	1	-1E+10	1	-1E+10	1	-1E+10	1	-1E+10	1	-1E+10	1
4901784	194	C	10/26/2020	10:49	-133.653	43.565	0	939.50	0	3.6000	0	36.9970	8	29.427	0	929.892	0	10.2	4	3.3	4	-1E+10	1	-1E+10	1	-1E+10	1	-1E+10	1	-1E+10	1	-1E+10	1
4901784	194	C	10/26/2020	10:49	-133.653	43.565	0	944.60	0	3.5790	0	36.9990	8	29.431	0	934.929	0	10.3	4	3.3	4	-1E+10	1	-1E+10	1	-1E+10	1	-1E+10	1	-1E+10	1	-1E+10	1
4901784	194	C	10/26/2020	10:49	-133.653	43.565	0	949.70	0	3.5640	0	37.0020	8	29.435	0	939.965	0	10.4	4	3.3	4	-1E+10	1	-1E+10	1	-1E+10	1	-1E+10	1	-1E+10	1	-1E+10	1
4901784	194	C	10/26/2020	10:49	-133.653	43.565	0	954.90	0	3.5680	0	37.0070	8	29.438	0	945.100	0	10.5	4	3.3	4	-1E+10	1	-1E+10	1	-1E+10	1	-1E+10	1	-1E+10	1	-1E+10	1
4901784	194	C	10/26/2020	10:49	-133.653	43.565	0	960.20	0	3.5520	0	37.0110	8	29.443	0	950.334	0	10.5	4	3.3	4	-1E+10	1	-1E+10	1	-1E+10	1	-1E+10	1	-1E+10	1	-1E+10	1
4901784	194	C	10/26/2020	10:49	-133.653	43.565	0	965.50	0	3.5220	0	37.0110	8	29.446	0	955.567	0	10.4	4	3.3	4	-1E+10	1	-1E+10	1	-1E+10	1	-1E+10	1	-1E+10	1	-1E+10	1
4901784	194	C	10/26/2020	10:49	-133.653	43.565	0	969.90	0	3.5080	0	37.0130	8	29.449	0	959.912	0	10.5	4	3.3	4	-1E+10	1	-1E+10	1	-1E+10	1	-1E+10	1	-1E+10	1	-1E+10	1
4901784	194	C	10/26/2020	10:49	-133.653	43.565	0	974.40	0	3.5010	0	37.0150	8	29.452	0	964.355	0	10.5	4	3.3	4	-1E+10	1	-1E+10	1	-1E+10	1	-1E+10	1	-1E+10	1	-1E+10	1
4901784	194	C	10/26/2020	10:49	-133.653	43.565	0	979.80	0	3.4850	0	37.0170	8	29.455	0	969.687	0	10.6	4	3.4	4	-1E+10	1	-1E+10	1	-1E+10	1	-1E+10	1	-1E+10	1	-1E+10	1
4901784	194	C	10/26/2020	10:49	-133.653	43.565	0	985.20	0	3.4790	0	37.0200	8	29.458	0	975.019	0	10.7	4	3.4	4	-1E+10	1	-1E+10	1	-1E+10	1	-1E+10	1	-1E+10	1	-1E+10	1
4901784	194	C	10/26/2020	10:49	-133.653	43.565	0	989.90	0	3.4690	0	37.0230	8	29.461	0	979.659	0	10.7	4	3.4	4	-1E+10	1	-1E+10	1	-1E+10	1	-1E+10	1	-1E+10	1	-1E+10	1
4901784	194	C	10/26/2020	10:49	-133.653	43.565	0	995.00	0	3.4640	0	37.0250	8	29.464	0	984.694	0	10.8	4	3.4	4	-1E+10	1	-1E+10	1	-1E+10	1	-1E+10	1	-1E+10	1	-1E+10	1
4901784	194	C	10/26/2020	10:49	-133.653	43.565	0	1000.40	0	3.4640	0	37.0260	8	29.464	0	990.026	0	10.8	4	3.4	4	-1E+10	1	-1E+10	1	-1E+10	1	-1E+10	1	-1E+10	1	-1E+10	1
4901784	194	C	10/26/2020	10:49	-133.653	43.565	0	1005.10	0	3.4410	0	37.0290	8	29.469	0	994.666	0	10.9	4	3.5	4	-1E+10	1	-1E+10	1	-1E+10	1	-1E+10	1	-1E+10	1	-1E+10	1
4901784	194	C	10/26/2020	10:49	-133.653	43.565	0	1010.00	0	3.4300	0	37.0310	8	29.472	0	999.503	0	10.9	4	3.5	4	-1E+10	1	-1E+10	1	-1E+10	1	-1E+10	1	-1E+10	1	-1E+10	1
4901784	194	C	10/26/2020	10:49	-133.653	43.565	0	1014.80	0	3.4250	0	37.0330	8	29.474	0	1004.242	0	11.0	4	3.5	4	-1E+10	1	-1E+10	1	-1E+10	1	-1E+10	1	-1E+10	1	-1E+10	1
4901784	194	C	10/26/2020	10:49	-133.653	43.565	0	1019.70	0	3.4230	0	37.0330	8	29.474	0	1009.079	0	11.0	4	3.5	4	-1E+10	1	-1E+10	1	-1E+10	1	-1E+10	1	-1E+10	1	-1E+10	1
4901784	194	C	10/26/2020	10:49	-133.653	43.565	0	1024.60	0	3.3950	0	37.0370	8	29.480	0	1013.916	0	11.1	4	3.5	4	-1E+10	1	-1E+10	1	-1E+10	1	-1E+10	1	-1E+10	1	-1E+10	1
4901784	194	C	10/26/2020	10:49	-133.653	43.565	0	1029.50	0	3.3860	0	37.0390	8	29.483	0	1018.753	0	11.1	4	3.5	4	-1E+10	1	-1E+10	1	-1E+10	1	-1E+10	1	-1E+10	1	-1E+10	1
4901784	194	C	10/26/2020	10:49	-133.653	43.565	0	1034.50	0	3.3730	0	37.0420	8	29.487	0	1023.689	0	11.2	4	3.6	4	-1E+10	1	-1E+10	1	-1E+10	1	-1E+10	1	-1E+10	1	-1E+10	1
4901784	194	C	10/26/2020	10:49	-133.653	43.565	0	1039.50	0	3.3660	0	37.0440	8	29.489	0	1028.624	0	11.3	4	3.6	4	-1E+10	1	-1E+10	1	-1E+10	1	-1E+10	1	-1E+10	1	-1E+10	1
4901784	194	C	10/26/2020	10:49	-133.653	43.565	0	1044.60	0	3.3570	0	37.0460	8	29.492	0	1033.658	0	11.5	4	3.6	4	-1E+10	1	-1E+10	1	-1E+10	1	-1E+10	1	-1E+10	1	-1E+10	1
4901784	194	C	10/26/2020	10:49	-133.653	43.565	0	1049.70	0	3.3560	0	37.0500	8	29.495	0	1038.692	0	11.6	4	3.7	4	-1E+10	1	-1E+10	1	-1E+10	1	-1E+10	1	-1E+10	1	-1E+10	1
4901784	194	C	10/26/2020	10:49	-133.653	43.565	0	1054.70	0	3.3450	0	37.0510	8	29.497	0	1043.628	0	11.6	4	3.7	4	-1E+10	1	-1E+10	1	-1E+10	1	-1E+10	1	-1E+10	1	-1E+10	1
4901784	194	C	10/26/2020	10:49	-133.653	43.565	0	1059.80	0	3.3350	0	37.0530	8	29.500	0	1048.661	0	11.8	4	3.8	4	-1E+10	1	-1E+10	1	-1E+10	1	-1E+10	1	-1E+10	1	-1E+10	1
4901784	194	C	10/26/2020	10:49	-133.653	43.565	0	1065.00	0	3.3370	0	37.0560	8	29.502	0	1053.794	0	12.1	4	3.8	4	-1E+10	1	-1E+10	1	-1E+10	1	-1E+10	1	-1E+10	1	-1E+10	1
4901784	194	C	10/26/2020	10:49	-133.653	43.565	0	1070.20	0	3.3300	0	37.0580	8	29.504	0	1058.926	0	12.2	4	3.9	4	-1E+10	1	-1E+10	1	-1E+10	1	-1E+10	1	-1E+10	1	-1E+10	1
4901784	194	C	10/26/2020	10:49	-133.653	43.565	0	1075.40	0	3.3160	0	37.0610	8	29.508	0	1064.058	0	12.2	4	3.9	4	-1E+10	1	-1E+10	1	-1E+10	1	-1E+10	1	-1E+10	1	-1E+10	1
4901784	194	C	10/26/2020	10:49	-133.653	43.565	0	1080.70	0	3.2940	0	37.0620	8	29.511	0	1069.288	0	12.2	4	3.9	4	-1E+10	1	-1E+10	1	-1E+10	1	-1E+10	1	-1E+10	1	-1E+10	1
4901784	194	C	10/26/2020	10:49	-133.653	43.565	0	1085.00	0	3.2820	0	37.0650	8	29.515	0	1073.532	0	12.4	4	3.9	4	-1E+10	1	-1E+10	1	-1E+10	1	-1E+10	1	-1E+10	1	-1E+10	1
4901784	194	C	10/26/2020	10:49	-133.653	43.565	0	1089.50	0	3.2730	0	37.0660	8	29.516	0	1077.973	0	12.4	4	3.9	4	-1E+10	1	-1E+10	1	-1E+10	1	-1E+10	1	-1E+10	1	-1E+10	1
4901784	194	C	10/26/2020	10:49	-133.653	43.565	0	1094.80	0	3.2710	0	37.0670	8	29.517	0	1083.203	0	12.6	4	4.0	4	-1E+10	1	-1E+10	1	-1E+10	1	-1E+10	1	-1E+10	1	-1E+10	1
4901784	194	C	10/26/2020	10:49	-133.653	43.565	0	1100.10	0	3.2620	0	37.0700	8	29.521	0	1088.433	0	12.7	4	4.0	4	-1E+10	1	-1E+10	1	-1E+10	1	-1E+10	1	-1E+10	1	-1E+10	1
4901784	194	C	10/26/2020	10:49	-133.653	43.565	0	1105.50	0	3.2510	0	37.0720	8	29.524	0	1093.762	0	12.8	4	4.1	4	-1E+10	1	-1E+10	1	-1E+10	1	-1E+10	1	-1E+10	1	-1E+10	1
4901784	194	C	10/26/2020	10:49	-133.653	43.565	0	1110.50	0	3.2390	0	37.0750	8	29.527	0	1098.696	0	12.9	4	4.1	4	-1E+10	1	-1E+10	1	-1E+10	1	-1E+10	1	-1E+10	1	-1E+10	1
4901784	194	C	10/26/2020	10:49	-133.653	43.565	0	1115.30	0	3.2330	0	37.0760	8	29.529	0	1103.432	0	13.0	4	4.1	4	-1E+10	1	-1E+10	1	-1E+10	1	-1E+10	1	-1E+10	1	-1E+10	1
4901784	194	C	10/26/2020	10:49	-133.653	43.565	0	1120.70	0	3.2250	0	37.0770	8	29.530	0	1108.760	0	13.1	4	4.1	4	-1E+10	1	-1E+10	1	-1E+10	1	-1E+10	1	-1E+10	1	-1E+10	1
4901784	194	C	10/26/2020	10:49	-133.653	43.565	0	1125.20	0	3.2150	0	37.0790	8	29.533	0	1113.201	0	13.1	4	4.2	4	-1E+10	1	-1E+10	1	-1E+10	1	-1E+10	1	-1E+10	1	-1E+10	1
4901784	194	C	10/26/2020	10:49	-133.653	43.565	0	1130.00	0	3.2110	0	37.0800	8	29.534	0	1117.937	0	13.3	4	4.2	4	-1E+10	1	-1E+10	1	-1E+10	1	-1E+10	1	-1E+10	1	-1E+10	1
4901784	194	C	10/26/2020	10:49	-133.653	43.565	0	1134.90	0	3.1990	0	37.0820	8	29.537	0	1122.771	0	13.3	4	4.2	4	-1E+10	1	-1E+10	1	-1E+10	1	-1E+10	1	-1E+10	1	-1E+10	1
4901784	194	C	10/26/2020	10:49	-133.653	43.565	0	1139.90	0	3.1810	0	37.0840	8	29.540	0	1127.704	0	13.4	4	4.2	4	-1E+10	1	-1E+10	1	-1E+10	1	-1E+10	1	-1E+10	1	-1E+10	1
4901784	194	C	10/26/2020	10:49	-133.653	43.565	0	1145.00	0	3.1640	0	37.0860	8	29.544	0	1132.736	0	13.5	4	4.3	4	-1E+10	1	-1E+10	1	-1E+10	1	-1E+10	1	-1E+10	1	-1E+10	1
4901784	194	C	10/26/2020	10:49	-133.653	43.565	0	1150.10	0	3.1580	0	37.0880	8	29.546	0	1137.768	0	13.6	4	4.3	4	-1E+10	1	-1E+10	1	-1E+10	1	-1E+10	1	-1E+10	1	-1E+10	1
4901784	194	C	10/26/2020	10:49	-133.653	43.565	0	1155.30	0	3.1520	0	37.0890	8	29.547	0	1142.898	0	13.8	4	4.4	4	-1E+10	1	-1E+10	1	-1E+10	1	-1E+10	1	-1E+10	1	-1E+10	1
4901784	194	C	10/26/2020	10:49	-133.653	43.565	0	1160.40	0	3.1470	0	37.0920	8	29.550	0	1147.929	0	14.1	4	4.4	4	-1E+10	1	-1E+10	1	-1E+10	1	-1E+10	1	-1E+10	1	-1E+10	1
4901784	194	C	10/26/2020	10:49	-133.653	43.565	0	1165.60	0	3.1390	0	37.0950	8	29.554	0	1153.059	0	14.3	4	4.5	4	-1E+10	1	-1E+10	1	-1E+10	1	-1E+10	1	-1E+10	1	-1E+10	1
4901784	194	C	10/26/2020	10:49	-133.653	43.565	0	1170.00	0	3.1320	0	37.0970	8	29.556	0	1157.400	0	14.4	4	4.6	4	-1E+10	1	-1E+10	1	-1E+10	1	-1E+10	1	-1E+10	1	-1E+10	1
4901784	194	C	10/26/2020	10:49	-133.653	43.565	0	1174.40	0	3.1260	0	37.0980	8	29.557	0	1161.740	0	14.5	4	4.6	4	-1E+10	1	-1E+10	1	-1E+10	1	-1E+10	1	-1E+10	1	-1E+10	1
4901784	194	C	10/26/2020	10:49	-133.653	43.565	0	1179.70	0	3.1200	0	37.0990	8	29.559	0	1166.968	0	14.6	4	4.6	4	-1E+10	1	-1E+10	1	-1E+10	1	-1E+10	1	-1E+10	1	-1E+10	1
4901784	194	C	10/26/2020	10:49	-133.653	43.565	0	1185.10	0	3.1140	0	37.1010	8	29.561	0	1172.295	0	14.7	4	4.7	4	-1E+10	1	-1E+10	1	-1E+10	1	-1E+10	1	-1E+10	1	-1E+10	1
4901784	194	C	10/26/2020	10:49	-133.653	43.565	0	1190.40	0	3.1070	0	37.1020	8	29.563	0	1177.523	0	14.9	4	4.7	4	-1E+10	1	-1E+10	1	-1E+10	1	-1E+10	1	-1E+10	1	-1E+10	1
4901784	194	C	10/26/2020	10:49	-133.653	43.565	0	1195.70	0	3.1030	0	37.1040	8	29.565	0	1182.750	0	15.1	4	4.8	4	-1E+10	1	-1E+10	1	-1E+10	1	-1E+10	1	-1E+10	1	-1E+10	1
4901784	194	C	10/26/2020	10:49	-133.653	43.565	0	1200.20	0	3.0920	0	37.1070	8	29.568	0	1187.189	0	15.2	4	4.8	4	-1E+10	1	-1E+10	1	-1E+10	1	-1E+10	1	-1E+10	1	-1E+10	1
4901784	194	C	10/26/2020	10:49	-133.653	43.565	0	1204.70	0	3.0890	0	37.1070	8	29.568	0	1191.627	0	15.4	4	4.9	4	-1E+10	1	-1E+10	1	-1E+10	1	-1E+10	1	-1E+10	1	-1E+10	1
4901784	194	C	10/26/2020	10:49	-133.653	43.565	0	1210.10	0	3.0840	0	37.1090	8	29.571	0	1196.954	0	15.6	4	4.9	4	-1E+10	1	-1E+10	1	-1E+10	1	-1E+10	1	-1E+10	1	-1E+10	1
4901784	194	C	10/26/2020	10:49	-133.653	43.565	0	1215.60	0	3.0780	0	37.1110	8	29.573	0	1202.378	0	15.7	4	4.9	4	-1E+10	1	-1E+10	1	-1E+10	1	-1E+10	1	-1E+10	1	-1E+10	1
4901784	194	C	10/26/2020	10:49	-133.653	43.565	0	1220.10	0	3.0700	0	37.1110	8	29.574	0	1206.816	0	15.6	4	4.9	4	-1E+10	1	-1E+10	1	-1E+10	1	-1E+10	1	-1E+10	1	-1E+10	1
4901784	194	C	10/26/2020	10:49	-133.653	43.565	0	1224.60	0	3.0540	0	37.1120	8	29.576	0	1211.254	0	15.7	4	4.9	4	-1E+10	1	-1E+10	1	-1E+10	1	-1E+10	1	-1E+10	1	-1E+10	1
4901784	194	C	10/26/2020	10:49	-133.653	43.565	0	1230.00	0	3.0480	0	37.1130	8	29.577	0	1216.580	0	15.7	4	5.0	4	-1E+10	1	-1E+10	1	-1E+10	1	-1E+10	1	-1E+10	1	-1E+10	1
4901784	194	C	10/26/2020	10:49	-133.653	43.565	0	1235.50	0	3.0210	0	37.1140	8	29.581	0	1222.004	0	15.5	4	4.9	4	-1E+10	1	-1E+10	1	-1E+10	1	-1E+10	1	-1E+10	1	-1E+10	1
4901784	194	C	10/26/2020	10:49	-133.653	43.565	0	1240.10	0	3.0070	0	37.1160	8	29.584	0	1226.540	0	15.6	4	4.9	4	-1E+10	1	-1E+10	1	-1E+10	1	-1E+10	1	-1E+10	1	-1E+10	1
4901784	194	C	10/26/2020	10:49	-133.653	43.565	0	1244.70	0	3.0020	0	37.1170	8	29.585	0	1231.076	0	15.8	4	5.0	4	-1E+10	1	-1E+10	1	-1E+10	1	-1E+10	1	-1E+10	1	-1E+10	1
4901784	194	C	10/26/2020	10:49	-133.653	43.565	0	1250.00	0	2.9920	0	37.1200	8	29.589	0	1236.303	0	15.9	4	5.0	4	-1E+10	1	-1E+10	1	-1E+10	1	-1E+10	1	-1E+10	1	-1E+10	1
4901784	194	C	10/26/2020	10:49	-133.653	43.565	0	1255.00	0	2.9880	0	37.1200	8	29.589	0	1241.233	0	16.1	4	5.1	4	-1E+10	1	-1E+10	1	-1E+10	1	-1E+10	1	-1E+10	1	-1E+10	1
4901784	194	C	10/26/2020	10:49	-133.653	43.565	0	1259.80	0	2.9760	0	37.1220	8	29.592	0	1245.967	0	16.3	4	5.1	4	-1E+10	1	-1E+10	1	-1E+10	1	-1E+10	1	-1E+10	1	-1E+10	1
4901784	194	C	10/26/2020	10:49	-133.653	43.565	0	1264.80	0	2.9630	0	37.1250	8	29.595	0	1250.897	0	16.5	4	5.2	4	-1E+10	1	-1E+10	1	-1E+10	1	-1E+10	1	-1E+10	1	-1E+10	1
4901784	194	C	10/26/2020	10:49	-133.653	43.565	0	1269.80	0	2.9560	0	37.1260	8	29.597	0	1255.827	0	16.7	4	5.3	4	-1E+10	1	-1E+10	1	-1E+10	1	-1E+10	1	-1E+10	1	-1E+10	1
4901784	194	C	10/26/2020	10:49	-133.653	43.565	0	1274.80	0	2.9340	0	37.1290	8	29.602	0	1260.757	0	16.8	4	5.3	4	-1E+10	1	-1E+10	1	-1E+10	1	-1E+10	1	-1E+10	1	-1E+10	1
4901784	194	C	10/26/2020	10:49	-133.653	43.565	0	1279.90	0	2.9280	0	37.1300	8	29.603	0	1265.785	0	17.0	4	5.3	4	-1E+10	1	-1E+10	1	-1E+10	1	-1E+10	1	-1E+10	1	-1E+10	1
4901784	194	C	10/26/2020	10:49	-133.653	43.565	0	1284.90	0	2.9190	0	37.1320	8	29.605	0	1270.715	0	17.2	4	5.4	4	-1E+10	1	-1E+10	1	-1E+10	1	-1E+10	1	-1E+10	1	-1E+10	1
4901784	194	C	10/26/2020	10:49	-133.653	43.565	0	1289.90	0	2.9070	0	37.1340	8	29.608	0	1275.645	0	17.4	4	5.5	4	-1E+10	1	-1E+10	1	-1E+10	1	-1E+10	1	-1E+10	1	-1E+10	1
4901784	194	C	10/26/2020	10:49	-133.653	43.565	0	1295.00	0	2.9020	0	37.1360	8	29.610	0	1280.673	0	17.5	4	5.5	4	-1E+10	1	-1E+10	1	-1E+10	1	-1E+10	1	-1E+10	1	-1E+10	1
4901784	194	C	10/26/2020	10:49	-133.653	43.565	0	1300.10	0	2.8910	0	37.1370	8	29.612	0	1285.701	0	17.8	4	5.6	4	-1E+10	1	-1E+10	1	-1E+10	1	-1E+10	1	-1E+10	1	-1E+10	1
4901784	194	C	10/26/2020	10:49	-133.653	43.565	0	1305.20	0	2.8830	0	37.1400	8	29.615	0	1290.729	0	18.1	4	5.7	4	-1E+10	1	-1E+10	1	-1E+10	1	-1E+10	1	-1E+10	1	-1E+10	1
4901784	194	C	10/26/2020	10:49	-133.653	43.565	0	1310.30	0	2.8740	0	37.1420	8	29.618	0	1295.757	0	18.4	4	5.8	4	-1E+10	1	-1E+10	1	-1E+10	1	-1E+10	1	-1E+10	1	-1E+10	1
4901784	194	C	10/26/2020	10:49	-133.653	43.565	0	1315.30	0	2.8560	0	37.1440	8	29.621	0	1300.686	0	18.6	4	5.8	4	-1E+10	1	-1E+10	1	-1E+10	1	-1E+10	1	-1E+10	1	-1E+10	1
4901784	194	C	10/26/2020	10:49	-133.653	43.565	0	1320.30	0	2.8470	0	37.1450	8	29.623	0	1305.615	0	18.9	4	5.9	4	-1E+10	1	-1E+10	1	-1E+10	1	-1E+10	1	-1E+10	1	-1E+10	1
4901784	194	C	10/26/2020	10:49	-133.653	43.565	0	1325.30	0	2.8320	0	37.1480	8	29.627	0	1310.544	0	19.2	4	6.0	4	-1E+10	1	-1E+10	1	-1E+10	1	-1E+10	1	-1E+10	1	-1E+10	1
4901784	194	C	10/26/2020	10:49	-133.653	43.565	0	1330.50	0	2.8180	0	37.1500	8	29.630	0	1315.669	0	19.4	4	6.1	4	-1E+10	1	-1E+10	1	-1E+10	1	-1E+10	1	-1E+10	1	-1E+10	1
4901784	194	C	10/26/2020	10:49	-133.653	43.565	0	1334.80	0	2.8110	0	37.1530	8	29.633	0	1319.908	0	19.7	4	6.2	4	-1E+10	1	-1E+10	1	-1E+10	1	-1E+10	1	-1E+10	1	-1E+10	1
4901784	194	C	10/26/2020	10:49	-133.653	43.565	0	1339.20	0	2.8090	0	37.1540	8	29.634	0	1324.245	0	19.8	4	6.2	4	-1E+10	1	-1E+10	1	-1E+10	1	-1E+10	1	-1E+10	1	-1E+10	1
4901784	194	C	10/26/2020	10:49	-133.653	43.565	0	1344.50	0	2.8070	0	37.1540	8	29.634	0	1329.469	0	20.0	4	6.3	4	-1E+10	1	-1E+10	1	-1E+10	1	-1E+10	1	-1E+10	1	-1E+10	1
4901784	194	C	10/26/2020	10:49	-133.653	43.565	0	1349.70	0	2.8040	0	37.1550	8	29.635	0	1334.595	0	20.2	4	6.3	4	-1E+10	1	-1E+10	1	-1E+10	1	-1E+10	1	-1E+10	1	-1E+10	1
4901784	194	C	10/26/2020	10:49	-133.653	43.565	0	1354.80	0	2.7960	0	37.1570	8	29.638	0	1339.621	0	20.4	4	6.4	4	-1E+10	1	-1E+10	1	-1E+10	1	-1E+10	1	-1E+10	1	-1E+10	1
4901784	194	C	10/26/2020	10:49	-133.653	43.565	0	1360.20	0	2.7840	0	37.1590	8	29.640	0	1344.944	0	20.7	4	6.5	4	-1E+10	1	-1E+10	1	-1E+10	1	-1E+10	1	-1E+10	1	-1E+10	1
4901784	194	C	10/26/2020	10:49	-133.653	43.565	0	1365.50	0	2.7760	0	37.1610	8	29.643	0	1350.167	0	20.8	4	6.5	4	-1E+10	1	-1E+10	1	-1E+10	1	-1E+10	1	-1E+10	1	-1E+10	1
4901784	194	C	10/26/2020	10:49	-133.653	43.565	0	1369.90	0	2.7720	0	37.1610	8	29.643	0	1354.504	0	20.8	4	6.5	4	-1E+10	1	-1E+10	1	-1E+10	1	-1E+10	1	-1E+10	1	-1E+10	1
4901784	194	C	10/26/2020	10:49	-133.653	43.565	0	1374.30	0	2.7670	0	37.1620	8	29.645	0	1358.840	0	21.0	4	6.6	4	-1E+10	1	-1E+10	1	-1E+10	1	-1E+10	1	-1E+10	1	-1E+10	1
4901784	194	C	10/26/2020	10:49	-133.653	43.565	0	1379.50	0	2.7600	0	37.1640	8	29.647	0	1363.965	0	21.2	4	6.6	4	-1E+10	1	-1E+10	1	-1E+10	1	-1E+10	1	-1E+10	1	-1E+10	1
4901784	194	C	10/26/2020	10:49	-133.653	43.565	0	1384.70	0	2.7520	0	37.1660	8	29.649	0	1369.089	0	21.4	4	6.7	4	-1E+10	1	-1E+10	1	-1E+10	1	-1E+10	1	-1E+10	1	-1E+10	1
4901784	194	C	10/26/2020	10:49	-133.653	43.565	0	1389.80	0	2.7370	0	37.1670	8	29.652	0	1374.115	0	21.6	4	6.8	4	-1E+10	1	-1E+10	1	-1E+10	1	-1E+10	1	-1E+10	1	-1E+10	1
4901784	194	C	10/26/2020	10:49	-133.653	43.565	0	1395.00	0	2.7290	0	37.1670	8	29.652	0	1379.240	0	21.9	4	6.8	4	-1E+10	1	-1E+10	1	-1E+10	1	-1E+10	1	-1E+10	1	-1E+10	1
4901784	194	C	10/26/2020	10:49	-133.653	43.565	0	1400.30	0	2.7140	0	37.1690	8	29.655	0	1384.462	0	22.2	4	6.9	4	-1E+10	1	-1E+10	1	-1E+10	1	-1E+10	1	-1E+10	1	-1E+10	1
4901784	194	C	10/26/2020	10:49	-133.653	43.565	0	1405.60	0	2.7080	0	37.1710	8	29.658	0	1389.685	0	22.4	4	7.0	4	-1E+10	1	-1E+10	1	-1E+10	1	-1E+10	1	-1E+10	1	-1E+10	1
4901784	194	C	10/26/2020	10:49	-133.653	43.565	0	1410.00	0	2.7030	0	37.1720	8	29.659	0	1394.021	0	22.7	4	7.1	4	-1E+10	1	-1E+10	1	-1E+10	1	-1E+10	1	-1E+10	1	-1E+10	1
4901784	194	C	10/26/2020	10:49	-133.653	43.565	0	1414.40	0	2.6980	0	37.1730	8	29.660	0	1398.356	0	23.0	4	7.2	4	-1E+10	1	-1E+10	1	-1E+10	1	-1E+10	1	-1E+10	1	-1E+10	1
4901784	194	C	10/26/2020	10:49	-133.653	43.565	0	1419.70	0	2.6860	0	37.1750	8	29.663	0	1403.578	0	23.3	4	7.3	4	-1E+10	1	-1E+10	1	-1E+10	1	-1E+10	1	-1E+10	1	-1E+10	1
4901784	194	C	10/26/2020	10:49	-133.653	43.565	0	1425.00	0	2.6770	0	37.1760	8	29.665	0	1408.801	0	23.6	4	7.4	4	-1E+10	1	-1E+10	1	-1E+10	1	-1E+10	1	-1E+10	1	-1E+10	1
4901784	194	C	10/26/2020	10:49	-133.653	43.565	0	1430.30	0	2.6640	0	37.1780	8	29.667	0	1414.023	0	23.8	4	7.5	4	-1E+10	1	-1E+10	1	-1E+10	1	-1E+10	1	-1E+10	1	-1E+10	1
4901784	194	C	10/26/2020	10:49	-133.653	43.565	0	1435.60	0	2.6570	0	37.1800	8	29.670	0	1419.244	0	24.0	4	7.5	4	-1E+10	1	-1E+10	1	-1E+10	1	-1E+10	1	-1E+10	1	-1E+10	1
4901784	194	C	10/26/2020	10:49	-133.653	43.565	0	1440.10	0	2.6540	0	37.1800	8	29.670	0	1423.678	0	24.1	4	7.5	4	-1E+10	1	-1E+10	1	-1E+10	1	-1E+10	1	-1E+10	1	-1E+10	1
4901784	194	C	10/26/2020	10:49	-133.653	43.565	0	1444.60	0	2.6500	0	37.1800	8	29.670	0	1428.112	0	24.3	4	7.6	4	-1E+10	1	-1E+10	1	-1E+10	1	-1E+10	1	-1E+10	1	-1E+10	1
4901784	194	C	10/26/2020	10:49	-133.653	43.565	0	1449.90	0	2.6420	0	37.1820	8	29.673	0	1433.333	0	24.7	4	7.7	4	-1E+10	1	-1E+10	1	-1E+10	1	-1E+10	1	-1E+10	1	-1E+10	1
4901784	194	C	10/26/2020	10:49	-133.653	43.565	0	1455.30	0	2.6310	0	37.1840	8	29.675	0	1438.653	0	25.1	4	7.8	4	-1E+10	1	-1E+10	1	-1E+10	1	-1E+10	1	-1E+10	1	-1E+10	1
4901784	194	C	10/26/2020	10:49	-133.653	43.565	0	1459.80	0	2.6240	0	37.1850	8	29.677	0	1443.086	0	25.3	4	7.9	4	-1E+10	1	-1E+10	1	-1E+10	1	-1E+10	1	-1E+10	1	-1E+10	1
4901784	194	C	10/26/2020	10:49	-133.653	43.565	0	1464.40	0	2.6190	0	37.1860	8	29.678	0	1447.618	0	25.5	4	8.0	4	-1E+10	1	-1E+10	1	-1E+10	1	-1E+10	1	-1E+10	1	-1E+10	1
4901784	194	C	10/26/2020	10:49	-133.653	43.565	0	1469.80	0	2.6080	0	37.1870	8	29.680	0	1452.937	0	25.8	4	8.1	4	-1E+10	1	-1E+10	1	-1E+10	1	-1E+10	1	-1E+10	1	-1E+10	1
4901784	194	C	10/26/2020	10:49	-133.653	43.565	0	1475.30	0	2.5990	0	37.1890	8	29.683	0	1458.355	0	26.0	4	8.1	4	-1E+10	1	-1E+10	1	-1E+10	1	-1E+10	1	-1E+10	1	-1E+10	1
4901784	194	C	10/26/2020	10:49	-133.653	43.565	0	1479.90	0	2.5890	0	37.1890	8	29.684	0	1462.886	0	26.2	4	8.2	4	-1E+10	1	-1E+10	1	-1E+10	1	-1E+10	1	-1E+10	1	-1E+10	1
4901784	194	C	10/26/2020	10:49	-133.653	43.565	0	1484.50	0	2.5830	0	37.1900	8	29.685	0	1467.418	0	26.5	4	8.3	4	-1E+10	1	-1E+10	1	-1E+10	1	-1E+10	1	-1E+10	1	-1E+10	1
4901784	194	C	10/26/2020	10:49	-133.653	43.565	0	1490.00	0	2.5730	0	37.1920	8	29.687	0	1472.835	0	26.8	4	8.4	4	-1E+10	1	-1E+10	1	-1E+10	1	-1E+10	1	-1E+10	1	-1E+10	1
4901784	194	C	10/26/2020	10:49	-133.653	43.565	0	1495.60	0	2.5690	0	37.1940	8	29.690	0	1478.351	0	27.2	4	8.5	4	-1E+10	1	-1E+10	1	-1E+10	1	-1E+10	1	-1E+10	1	-1E+10	1
4901784	194	C	10/26/2020	10:49	-133.653	43.565	0	1499.70	0	2.5610	0	37.1950	8	29.691	0	1482.389	0	27.4	4	8.6	4	-1E+10	1	-1E+10	1	-1E+10	1	-1E+10	1	-1E+10	1	-1E+10	1
4901784	194	C	10/26/2020	10:49	-133.653	43.565	0	1504.40	0	2.5540	0	37.1960	8	29.693	0	1487.019	0	27.7	4	8.6	4	-1E+10	1	-1E+10	1	-1E+10	1	-1E+10	1	-1E+10	1	-1E+10	1
4901784	194	C	10/26/2020	10:49	-133.653	43.565	0	1509.30	0	2.5480	0	37.1980	8	29.695	0	1491.845	0	27.9	4	8.7	4	-1E+10	1	-1E+10	1	-1E+10	1	-1E+10	1	-1E+10	1	-1E+10	1
4901784	194	C	10/26/2020	10:49	-133.653	43.565	0	1515.00	0	2.5400	0	37.2000	8	29.697	0	1497.459	0	28.2	4	8.8	4	-1E+10	1	-1E+10	1	-1E+10	1	-1E+10	1	-1E+10	1	-1E+10	1
4901784	194	C	10/26/2020	10:49	-133.653	43.565	0	1520.80	0	2.5300	0	37.2020	8	29.700	0	1503.171	0	28.5	4	8.9	4	-1E+10	1	-1E+10	1	-1E+10	1	-1E+10	1	-1E+10	1	-1E+10	1
4901784	194	C	10/26/2020	10:49	-133.653	43.565	0	1525.70	0	2.5100	0	37.2040	8	29.703	0	1507.997	0	28.8	4	9.0	4	-1E+10	1	-1E+10	1	-1E+10	1	-1E+10	1	-1E+10	1	-1E+10	1
4901784	194	C	10/26/2020	10:49	-133.653	43.565	0	1530.60	0	2.4980	0	37.2050	8	29.705	0	1512.822	0	29.1	4	9.1	4	-1E+10	1	-1E+10	1	-1E+10	1	-1E+10	1	-1E+10	1	-1E+10	1
4901784	194	C	10/26/2020	10:49	-133.653	43.565	0	1535.60	0	2.4860	0	37.2070	8	29.708	0	1517.746	0	29.7	4	9.2	4	-1E+10	1	-1E+10	1	-1E+10	1	-1E+10	1	-1E+10	1	-1E+10	1
4901784	194	C	10/26/2020	10:49	-133.653	43.565	0	1540.60	0	2.4800	0	37.2110	8	29.712	0	1522.670	0	30.5	4	9.5	4	-1E+10	1	-1E+10	1	-1E+10	1	-1E+10	1	-1E+10	1	-1E+10	1
4901784	194	C	10/26/2020	10:49	-133.653	43.565	0	1545.60	0	2.4700	0	37.2140	8	29.715	0	1527.594	0	31.1	4	9.7	4	-1E+10	1	-1E+10	1	-1E+10	1	-1E+10	1	-1E+10	1	-1E+10	1
4901784	194	C	10/26/2020	10:49	-133.653	43.565	0	1550.70	0	2.4620	0	37.2160	8	29.717	0	1532.616	0	31.4	4	9.8	4	-1E+10	1	-1E+10	1	-1E+10	1	-1E+10	1	-1E+10	1	-1E+10	1
4901784	194	C	10/26/2020	10:49	-133.653	43.565	0	1555.70	0	2.4550	0	37.2180	8	29.720	0	1537.539	0	31.6	4	9.8	4	-1E+10	1	-1E+10	1	-1E+10	1	-1E+10	1	-1E+10	1	-1E+10	1
4901784	194	C	10/26/2020	10:49	-133.653	43.565	0	1560.00	0	2.4530	0	37.2170	8	29.719	0	1541.774	0	31.8	4	9.9	4	-1E+10	1	-1E+10	1	-1E+10	1	-1E+10	1	-1E+10	1	-1E+10	1
4901784	194	C	10/26/2020	10:49	-133.653	43.565	0	1564.20	0	2.4480	0	37.2190	8	29.721	0	1545.909	0	32.1	4	10.0	4	-1E+10	1	-1E+10	1	-1E+10	1	-1E+10	1	-1E+10	1	-1E+10	1
4901784	194	C	10/26/2020	10:49	-133.653	43.565	0	1569.40	0	2.4420	0	37.2200	8	29.722	0	1551.029	0	32.5	4	10.1	4	-1E+10	1	-1E+10	1	-1E+10	1	-1E+10	1	-1E+10	1	-1E+10	1
4901784	194	C	10/26/2020	10:49	-133.653	43.565	0	1574.50	0	2.4330	0	37.2220	8	29.725	0	1556.051	0	33.0	4	10.3	4	-1E+10	1	-1E+10	1	-1E+10	1	-1E+10	1	-1E+10	1	-1E+10	1
4901784	194	C	10/26/2020	10:49	-133.653	43.565	0	1579.80	0	2.4220	0	37.2230	8	29.727	0	1561.269	0	33.5	4	10.4	4	-1E+10	1	-1E+10	1	-1E+10	1	-1E+10	1	-1E+10	1	-1E+10	1
4901784	194	C	10/26/2020	10:49	-133.653	43.565	0	1585.00	0	2.4100	0	37.2250	8	29.729	0	1566.389	0	33.8	4	10.5	4	-1E+10	1	-1E+10	1	-1E+10	1	-1E+10	1	-1E+10	1	-1E+10	1
4901784	194	C	10/26/2020	10:49	-133.653	43.565	0	1590.30	0	2.4000	0	37.2260	8	29.731	0	1571.607	0	34.0	4	10.6	4	-1E+10	1	-1E+10	1	-1E+10	1	-1E+10	1	-1E+10	1	-1E+10	1
4901784	194	C	10/26/2020	10:49	-133.653	43.565	0	1595.70	0	2.3810	0	37.2270	8	29.734	0	1576.924	0	34.2	4	10.6	4	-1E+10	1	-1E+10	1	-1E+10	1	-1E+10	1	-1E+10	1	-1E+10	1
4901784	194	C	10/26/2020	10:49	-133.653	43.565	0	1600.20	0	2.3680	0	37.2290	8	29.736	0	1581.354	0	34.7	4	10.8	4	-1E+10	1	-1E+10	1	-1E+10	1	-1E+10	1	-1E+10	1	-1E+10	1
4901784	194	C	10/26/2020	10:49	-133.653	43.565	0	1604.80	0	2.3670	0	37.2300	8	29.737	0	1585.882	0	34.9	4	10.8	4	-1E+10	1	-1E+10	1	-1E+10	1	-1E+10	1	-1E+10	1	-1E+10	1
4901784	194	C	10/26/2020	10:49	-133.653	43.565	0	1610.30	0	2.3620	0	37.2320	8	29.739	0	1591.297	0	35.0	4	10.9	4	-1E+10	1	-1E+10	1	-1E+10	1	-1E+10	1	-1E+10	1	-1E+10	1
4901784	194	C	10/26/2020	10:49	-133.653	43.565	0	1614.90	0	2.3580	0	37.2330	8	29.741	0	1595.825	0	35.1	4	10.9	4	-1E+10	1	-1E+10	1	-1E+10	1	-1E+10	1	-1E+10	1	-1E+10	1
4901784	194	C	10/26/2020	10:49	-133.653	43.565	0	1620.20	0	2.3510	0	37.2350	8	29.743	0	1601.043	0	35.3	4	10.9	4	-1E+10	1	-1E+10	1	-1E+10	1	-1E+10	1	-1E+10	1	-1E+10	1
4901784	194	C	10/26/2020	10:49	-133.653	43.565	0	1625.30	0	2.3340	0	37.2360	8	29.745	0	1606.063	0	35.5	4	11.0	4	-1E+10	1	-1E+10	1	-1E+10	1	-1E+10	1	-1E+10	1	-1E+10	1
4901784	194	C	10/26/2020	10:49	-133.653	43.565	0	1630.20	0	2.3260	0	37.2380	8	29.748	0	1610.886	0	35.7	4	11.1	4	-1E+10	1	-1E+10	1	-1E+10	1	-1E+10	1	-1E+10	1	-1E+10	1
4901784	194	C	10/26/2020	10:49	-133.653	43.565	0	1635.10	0	2.3220	0	37.2390	8	29.749	0	1615.710	0	35.8	4	11.1	4	-1E+10	1	-1E+10	1	-1E+10	1	-1E+10	1	-1E+10	1	-1E+10	1
4901784	194	C	10/26/2020	10:49	-133.653	43.565	0	1640.10	0	2.3160	0	37.2400	8	29.750	0	1620.631	0	36.1	4	11.2	4	-1E+10	1	-1E+10	1	-1E+10	1	-1E+10	1	-1E+10	1	-1E+10	1
4901784	194	C	10/26/2020	10:49	-133.653	43.565	0	1645.10	0	2.3080	0	37.2440	8	29.754	0	1625.553	0	36.4	4	11.3	4	-1E+10	1	-1E+10	1	-1E+10	1	-1E+10	1	-1E+10	1	-1E+10	1
4901784	194	C	10/26/2020	10:49	-133.653	43.565	0	1650.10	0	2.3020	0	37.2460	8	29.756	0	1630.474	0	36.8	4	11.4	4	-1E+10	1	-1E+10	1	-1E+10	1	-1E+10	1	-1E+10	1	-1E+10	1
4901784	194	C	10/26/2020	10:49	-133.653	43.565	0	1655.10	0	2.2880	0	37.2480	8	29.759	0	1635.395	0	37.2	4	11.5	4	-1E+10	1	-1E+10	1	-1E+10	1	-1E+10	1	-1E+10	1	-1E+10	1
4901784	194	C	10/26/2020	10:49	-133.653	43.565	0	1660.10	0	2.2800	0	37.2500	8	29.762	0	1640.317	0	37.5	4	11.6	4	-1E+10	1	-1E+10	1	-1E+10	1	-1E+10	1	-1E+10	1	-1E+10	1
4901784	194	C	10/26/2020	10:49	-133.653	43.565	0	1665.20	0	2.2750	0	37.2500	8	29.762	0	1645.336	0	37.8	4	11.7	4	-1E+10	1	-1E+10	1	-1E+10	1	-1E+10	1	-1E+10	1	-1E+10	1
4901784	194	C	10/26/2020	10:49	-133.653	43.565	0	1670.40	0	2.2640	0	37.2530	8	29.765	0	1650.454	0	38.2	4	11.8	4	-1E+10	1	-1E+10	1	-1E+10	1	-1E+10	1	-1E+10	1	-1E+10	1
4901784	194	C	10/26/2020	10:49	-133.653	43.565	0	1675.50	0	2.2570	0	37.2540	8	29.767	0	1655.473	0	38.4	4	11.9	4	-1E+10	1	-1E+10	1	-1E+10	1	-1E+10	1	-1E+10	1	-1E+10	1
4901784	194	C	10/26/2020	10:49	-133.653	43.565	0	1680.70	0	2.2540	0	37.2540	8	29.767	0	1660.590	0	38.7	4	12.0	4	-1E+10	1	-1E+10	1	-1E+10	1	-1E+10	1	-1E+10	1	-1E+10	1
4901784	194	C	10/26/2020	10:49	-133.653	43.565	0	1685.10	0	2.2500	0	37.2570	8	29.770	0	1664.920	0	38.9	4	12.0	4	-1E+10	1	-1E+10	1	-1E+10	1	-1E+10	1	-1E+10	1	-1E+10	1
4901784	194	C	10/26/2020	10:49	-133.653	43.565	0	1689.50	0	2.2470	0	37.2560	8	29.769	0	1669.250	0	39.1	4	12.1	4	-1E+10	1	-1E+10	1	-1E+10	1	-1E+10	1	-1E+10	1	-1E+10	1
4901784	194	C	10/26/2020	10:49	-133.653	43.565	0	1694.80	0	2.2410	0	37.2630	8	29.776	0	1674.466	0	39.4	4	12.2	4	-1E+10	1	-1E+10	1	-1E+10	1	-1E+10	1	-1E+10	1	-1E+10	1
4901784	194	C	10/26/2020	10:49	-133.653	43.565	0	1700.20	0	2.2370	0	37.2590	8	29.773	0	1679.780	0	39.7	4	12.3	4	-1E+10	1	-1E+10	1	-1E+10	1	-1E+10	1	-1E+10	1	-1E+10	1
4901784	194	C	10/26/2020	10:49	-133.653	43.565	0	1705.50	0	2.2300	0	37.2570	8	29.772	0	1684.995	0	40.1	4	12.4	4	-1E+10	1	-1E+10	1	-1E+10	1	-1E+10	1	-1E+10	1	-1E+10	1
4901784	194	C	10/26/2020	10:49	-133.653	43.565	0	1709.90	0	2.2220	0	37.2570	8	29.773	0	1689.325	0	40.4	4	12.5	4	-1E+10	1	-1E+10	1	-1E+10	1	-1E+10	1	-1E+10	1	-1E+10	1
4901784	194	C	10/26/2020	10:49	-133.653	43.565	0	1714.40	0	2.2180	0	37.2560	8	29.772	0	1693.753	0	40.7	4	12.6	4	-1E+10	1	-1E+10	1	-1E+10	1	-1E+10	1	-1E+10	1	-1E+10	1
4901784	194	C	10/26/2020	10:49	-133.653	43.565	0	1719.90	0	2.2100	0	37.2570	8	29.774	0	1699.164	0	41.2	4	12.7	4	-1E+10	1	-1E+10	1	-1E+10	1	-1E+10	1	-1E+10	1	-1E+10	1
4901784	194	C	10/26/2020	10:49	-133.653	43.565	0	1725.40	0	2.2050	0	37.2560	8	29.773	0	1704.576	0	41.5	4	12.8	4	-1E+10	1	-1E+10	1	-1E+10	1	-1E+10	1	-1E+10	1	-1E+10	1
4901784	194	C	10/26/2020	10:49	-133.653	43.565	0	1730.10	0	2.1980	0	37.2570	8	29.775	0	1709.200	0	41.9	4	13.0	4	-1E+10	1	-1E+10	1	-1E+10	1	-1E+10	1	-1E+10	1	-1E+10	1
4901784	194	C	10/26/2020	10:49	-133.653	43.565	0	1735.30	0	2.1940	0	37.2580	8	29.776	0	1714.317	0	42.2	4	13.1	4	-1E+10	1	-1E+10	1	-1E+10	1	-1E+10	1	-1E+10	1	-1E+10	1
4901784	194	C	10/26/2020	10:49	-133.653	43.565	0	1740.40	0	2.1860	0	37.2590	8	29.778	0	1719.334	0	42.6	4	13.2	4	-1E+10	1	-1E+10	1	-1E+10	1	-1E+10	1	-1E+10	1	-1E+10	1
4901784	194	C	10/26/2020	10:49	-133.653	43.565	0	1745.20	0	2.1830	0	37.2590	8	29.778	0	1724.057	0	42.7	4	13.2	4	-1E+10	1	-1E+10	1	-1E+10	1	-1E+10	1	-1E+10	1	-1E+10	1
4901784	194	C	10/26/2020	10:49	-133.653	43.565	0	1750.10	0	2.1830	0	37.2590	8	29.778	0	1728.877	0	43.0	4	13.3	4	-1E+10	1	-1E+10	1	-1E+10	1	-1E+10	1	-1E+10	1	-1E+10	1
4901784	194	C	10/26/2020	10:49	-133.653	43.565	0	1755.00	0	2.1760	0	37.2600	8	29.779	0	1733.698	0	43.4	4	13.4	4	-1E+10	1	-1E+10	1	-1E+10	1	-1E+10	1	-1E+10	1	-1E+10	1
4901784	194	C	10/26/2020	10:49	-133.653	43.565	0	1760.00	0	2.1700	0	37.2610	8	29.781	0	1738.617	0	43.6	4	13.5	4	-1E+10	1	-1E+10	1	-1E+10	1	-1E+10	1	-1E+10	1	-1E+10	1
4901784	194	C	10/26/2020	10:49	-133.653	43.565	0	1765.00	0	2.1620	0	37.2620	8	29.782	0	1743.536	0	44.0	4	13.6	4	-1E+10	1	-1E+10	1	-1E+10	1	-1E+10	1	-1E+10	1	-1E+10	1
4901784	194	C	10/26/2020	10:49	-133.653	43.565	0	1770.10	0	2.1570	0	37.2630	8	29.783	0	1748.552	0	44.4	4	13.7	4	-1E+10	1	-1E+10	1	-1E+10	1	-1E+10	1	-1E+10	1	-1E+10	1
4901784	194	C	10/26/2020	10:49	-133.653	43.565	0	1775.20	0	2.1490	0	37.2640	8	29.785	0	1753.569	0	44.8	4	13.9	4	-1E+10	1	-1E+10	1	-1E+10	1	-1E+10	1	-1E+10	1	-1E+10	1
4901784	194	C	10/26/2020	10:49	-133.653	43.565	0	1780.40	0	2.1390	0	37.2650	8	29.787	0	1758.685	0	45.3	4	14.0	4	-1E+10	1	-1E+10	1	-1E+10	1	-1E+10	1	-1E+10	1	-1E+10	1
4901784	194	C	10/26/2020	10:49	-133.653	43.565	0	1785.50	0	2.1290	0	37.2670	8	29.789	0	1763.701	0	45.8	4	14.1	4	-1E+10	1	-1E+10	1	-1E+10	1	-1E+10	1	-1E+10	1	-1E+10	1
4901784	194	C	10/26/2020	10:49	-133.653	43.565	0	1790.70	0	2.1250	0	37.2690	8	29.791	0	1768.816	0	46.3	4	14.3	4	-1E+10	1	-1E+10	1	-1E+10	1	-1E+10	1	-1E+10	1	-1E+10	1
4901784	194	C	10/26/2020	10:49	-133.653	43.565	0	1795.00	0	2.1210	0	37.2700	8	29.792	0	1773.045	0	46.6	4	14.4	4	-1E+10	1	-1E+10	1	-1E+10	1	-1E+10	1	-1E+10	1	-1E+10	1
4901784	194	C	10/26/2020	10:49	-133.653	43.565	0	1799.30	0	2.1130	0	37.2710	8	29.794	0	1777.275	0	46.8	4	14.4	4	-1E+10	1	-1E+10	1	-1E+10	1	-1E+10	1	-1E+10	1	-1E+10	1
4901784	194	C	10/26/2020	10:49	-133.653	43.565	0	1804.50	0	2.1050	0	37.2710	8	29.795	0	1782.389	0	47.1	4	14.5	4	-1E+10	1	-1E+10	1	-1E+10	1	-1E+10	1	-1E+10	1	-1E+10	1
4901784	194	C	10/26/2020	10:49	-133.653	43.565	0	1809.80	0	2.1000	0	37.2730	8	29.797	0	1787.602	0	47.5	4	14.6	4	-1E+10	1	-1E+10	1	-1E+10	1	-1E+10	1	-1E+10	1	-1E+10	1
4901784	194	C	10/26/2020	10:49	-133.653	43.565	0	1815.10	0	2.0960	0	37.2740	8	29.798	0	1792.815	0	47.8	4	14.8	4	-1E+10	1	-1E+10	1	-1E+10	1	-1E+10	1	-1E+10	1	-1E+10	1
4901784	194	C	10/26/2020	10:49	-133.653	43.565	0	1820.50	0	2.0910	0	37.2750	8	29.799	0	1798.126	0	48.1	4	14.8	4	-1E+10	1	-1E+10	1	-1E+10	1	-1E+10	1	-1E+10	1	-1E+10	1
4901784	194	C	10/26/2020	10:49	-133.653	43.565	0	1824.90	0	2.0870	0	37.2750	8	29.799	0	1802.453	0	48.3	4	14.9	4	-1E+10	1	-1E+10	1	-1E+10	1	-1E+10	1	-1E+10	1	-1E+10	1
4901784	194	C	10/26/2020	10:49	-133.653	43.565	0	1829.40	0	2.0820	0	37.2760	8	29.801	0	1806.879	0	48.6	4	15.0	4	-1E+10	1	-1E+10	1	-1E+10	1	-1E+10	1	-1E+10	1	-1E+10	1
4901784	194	C	10/26/2020	10:49	-133.653	43.565	0	1834.90	0	2.0780	0	37.2760	8	29.801	0	1812.287	0	48.9	4	15.1	4	-1E+10	1	-1E+10	1	-1E+10	1	-1E+10	1	-1E+10	1	-1E+10	1
4901784	194	C	10/26/2020	10:49	-133.653	43.565	0	1840.40	0	2.0730	0	37.2770	8	29.802	0	1817.696	0	49.2	4	15.2	4	-1E+10	1	-1E+10	1	-1E+10	1	-1E+10	1	-1E+10	1	-1E+10	1
4901784	194	C	10/26/2020	10:49	-133.653	43.565	0	1845.00	0	2.0680	0	37.2780	8	29.804	0	1822.220	0	49.4	4	15.2	4	-1E+10	1	-1E+10	1	-1E+10	1	-1E+10	1	-1E+10	1	-1E+10	1
4901784	194	C	10/26/2020	10:49	-133.653	43.565	0	1849.50	0	2.0620	0	37.2780	8	29.804	0	1826.645	0	49.8	4	15.3	4	-1E+10	1	-1E+10	1	-1E+10	1	-1E+10	1	-1E+10	1	-1E+10	1
4901784	194	C	10/26/2020	10:49	-133.653	43.565	0	1855.00	0	2.0540	0	37.2800	8	29.807	0	1832.053	0	50.1	4	15.4	4	-1E+10	1	-1E+10	1	-1E+10	1	-1E+10	1	-1E+10	1	-1E+10	1
4901784	194	C	10/26/2020	10:49	-133.653	43.565	0	1860.60	0	2.0480	0	37.2810	8	29.808	0	1837.560	0	50.4	4	15.5	4	-1E+10	1	-1E+10	1	-1E+10	1	-1E+10	1	-1E+10	1	-1E+10	1
4901784	194	C	10/26/2020	10:49	-133.653	43.565	0	1864.60	0	2.0450	0	37.2810	8	29.808	0	1841.493	0	50.6	4	15.6	4	-1E+10	1	-1E+10	1	-1E+10	1	-1E+10	1	-1E+10	1	-1E+10	1
4901784	194	C	10/26/2020	10:49	-133.653	43.565	0	1869.60	0	2.0420	0	37.2820	8	29.809	0	1846.409	0	50.9	4	15.7	4	-1E+10	1	-1E+10	1	-1E+10	1	-1E+10	1	-1E+10	1	-1E+10	1
4901784	194	C	10/26/2020	10:49	-133.653	43.565	0	1874.40	0	2.0360	0	37.2830	8	29.811	0	1851.129	0	51.2	4	15.8	4	-1E+10	1	-1E+10	1	-1E+10	1	-1E+10	1	-1E+10	1	-1E+10	1
4901784	194	C	10/26/2020	10:49	-133.653	43.565	0	1879.30	0	2.0320	0	37.2840	8	29.812	0	1855.947	0	51.5	4	15.9	4	-1E+10	1	-1E+10	1	-1E+10	1	-1E+10	1	-1E+10	1	-1E+10	1
4901784	194	C	10/26/2020	10:49	-133.653	43.565	0	1884.20	0	2.0260	0	37.2850	8	29.813	0	1860.764	0	51.8	4	16.0	4	-1E+10	1	-1E+10	1	-1E+10	1	-1E+10	1	-1E+10	1	-1E+10	1
4901784	194	C	10/26/2020	10:49	-133.653	43.565	0	1890.00	0	2.0230	0	37.2860	8	29.814	0	1866.467	0	52.1	4	16.0	4	-1E+10	1	-1E+10	1	-1E+10	1	-1E+10	1	-1E+10	1	-1E+10	1
4901784	194	C	10/26/2020	10:49	-133.653	43.565	0	1895.70	0	2.0190	0	37.2870	8	29.815	0	1872.071	0	52.4	4	16.1	4	-1E+10	1	-1E+10	1	-1E+10	1	-1E+10	1	-1E+10	1	-1E+10	1
4901784	194	C	10/26/2020	10:49	-133.653	43.565	0	1900.70	0	2.0180	0	37.2880	8	29.816	0	1876.986	0	52.6	4	16.2	4	-1E+10	1	-1E+10	1	-1E+10	1	-1E+10	1	-1E+10	1	-1E+10	1
4901784	194	C	10/26/2020	10:49	-133.653	43.565	0	1905.70	0	2.0140	0	37.2890	8	29.818	0	1881.902	0	53.0	4	16.3	4	-1E+10	1	-1E+10	1	-1E+10	1	-1E+10	1	-1E+10	1	-1E+10	1
4901784	194	C	10/26/2020	10:49	-133.653	43.565	0	1910.70	0	2.0110	0	37.2890	8	29.818	0	1886.817	0	53.3	4	16.4	4	-1E+10	1	-1E+10	1	-1E+10	1	-1E+10	1	-1E+10	1	-1E+10	1
4901784	194	C	10/26/2020	10:49	-133.653	43.565	0	1915.80	0	2.0070	0	37.2900	8	29.819	0	1891.831	0	53.6	4	16.5	4	-1E+10	1	-1E+10	1	-1E+10	1	-1E+10	1	-1E+10	1	-1E+10	1
4901784	194	C	10/26/2020	10:49	-133.653	43.565	0	1920.00	0	2.0040	0	37.2910	8	29.820	0	1895.960	0	53.8	4	16.6	4	-1E+10	1	-1E+10	1	-1E+10	1	-1E+10	1	-1E+10	1	-1E+10	1
4901784	194	C	10/26/2020	10:49	-133.653	43.565	0	1924.30	0	2.0010	0	37.2920	8	29.821	0	1900.187	0	54.1	4	16.6	4	-1E+10	1	-1E+10	1	-1E+10	1	-1E+10	1	-1E+10	1	-1E+10	1
4901784	194	C	10/26/2020	10:49	-133.653	43.565	0	1929.50	0	1.9980	0	37.2930	8	29.822	0	1905.298	0	54.3	4	16.7	4	-1E+10	1	-1E+10	1	-1E+10	1	-1E+10	1	-1E+10	1	-1E+10	1
4901784	194	C	10/26/2020	10:49	-133.653	43.565	0	1934.70	0	1.9950	0	37.2930	8	29.823	0	1910.410	0	54.6	4	16.8	4	-1E+10	1	-1E+10	1	-1E+10	1	-1E+10	1	-1E+10	1	-1E+10	1
4901784	194	C	10/26/2020	10:49	-133.653	43.565	0	1940.00	0	1.9910	0	37.2940	8	29.824	0	1915.619	0	54.9	4	16.9	4	-1E+10	1	-1E+10	1	-1E+10	1	-1E+10	1	-1E+10	1	-1E+10	1
4901784	194	C	10/26/2020	10:49	-133.653	43.565	0	1945.30	0	1.9870	0	37.2940	8	29.824	0	1920.829	0	55.3	4	17.0	4	-1E+10	1	-1E+10	1	-1E+10	1	-1E+10	1	-1E+10	1	-1E+10	1
4901784	194	C	10/26/2020	10:49	-133.653	43.565	0	1950.60	0	1.9800	0	37.2950	8	29.826	0	1926.038	0	55.6	4	17.1	4	-1E+10	1	-1E+10	1	-1E+10	1	-1E+10	1	-1E+10	1	-1E+10	1
4901784	194	C	10/26/2020	10:49	-133.653	43.565	0	1955.00	0	1.9760	0	37.2960	8	29.827	0	1930.363	0	55.9	4	17.2	4	-1E+10	1	-1E+10	1	-1E+10	1	-1E+10	1	-1E+10	1	-1E+10	1
4901784	194	C	10/26/2020	10:49	-133.653	43.565	0	1959.40	0	1.9720	0	37.2960	8	29.827	0	1934.687	0	56.2	4	17.3	4	-1E+10	1	-1E+10	1	-1E+10	1	-1E+10	1	-1E+10	1	-1E+10	1
4901784	194	C	10/26/2020	10:49	-133.653	43.565	0	1964.70	0	1.9650	0	37.2970	8	29.828	0	1939.896	0	56.6	4	17.4	4	-1E+10	1	-1E+10	1	-1E+10	1	-1E+10	1	-1E+10	1	-1E+10	1
4901784	194	C	10/26/2020	10:49	-133.653	43.565	0	1970.00	0	1.9610	0	37.2980	8	29.830	0	1945.105	0	56.9	4	17.5	4	-1E+10	1	-1E+10	1	-1E+10	1	-1E+10	1	-1E+10	1	-1E+10	1
4901784	194	C	10/26/2020	10:49	-133.653	43.565	0	1975.40	0	1.9580	0	37.2990	8	29.831	0	1950.412	0	57.2	4	17.6	4	-1E+10	1	-1E+10	1	-1E+10	1	-1E+10	1	-1E+10	1	-1E+10	1
4901784	194	C	10/26/2020	10:49	-133.653	43.565	0	1979.80	0	1.9540	0	37.2990	8	29.831	0	1954.737	0	57.4	4	17.7	4	-1E+10	1	-1E+10	1	-1E+10	1	-1E+10	1	-1E+10	1	-1E+10	1
4901784	194	C	10/26/2020	10:49	-133.653	43.565	0	1984.30	0	1.9510	0	37.3000	8	29.832	0	1959.159	0	57.7	4	17.7	4	-1E+10	1	-1E+10	1	-1E+10	1	-1E+10	1	-1E+10	1	-1E+10	1
4901784	194	C	10/26/2020	10:49	-133.653	43.565	0	1989.70	0	1.9480	0	37.3010	8	29.833	0	1964.466	0	57.9	4	17.8	4	-1E+10	1	-1E+10	1	-1E+10	1	-1E+10	1	-1E+10	1	-1E+10	1
4901784	194	C	10/26/2020	10:49	-133.653	43.565	0	1995.20	0	1.9430	0	37.3020	8	29.835	0	1969.870	0	58.2	4	17.9	4	-1E+10	1	-1E+10	1	-1E+10	1	-1E+10	1	-1E+10	1	-1E+10	1
4901784	194	C	10/26/2020	10:49	-133.653	43.565	0	1999.90	0	1.9410	0	37.3030	8	29.836	0	1974.489	0	58.4	4	17.9	4	-1E+10	1	-1E+10	1	-1E+10	1	-1E+10	1	-1E+10	1	-1E+10	1
4901784	194	C	10/26/2020	10:49	-133.653	43.565	0	2005.40	0	1.9380	0	37.3020	8	29.835	0	1979.894	0	58.6	4	18.0	4	-1E+10	1	-1E+10	1	-1E+10	1	-1E+10	1	-1E+10	1	-1E+10	1
4901784	194	C	10/26/2020	10:49	-133.653	43.565	0	2010.10	0	1.9360	0	37.3030	8	29.836	0	1984.512	0	58.8	4	18.1	4	-1E+10	1	-1E+10	1	-1E+10	1	-1E+10	1	-1E+10	1	-1E+10	1
4901784	194	C	10/26/2020	10:49	-133.653	43.565	0	2015.30	0	1.9330	0	37.3040	8	29.837	0	1989.622	0	59.0	4	18.1	4	-1E+10	1	-1E+10	1	-1E+10	1	-1E+10	1	-1E+10	1	-1E+10	1
4901784	194	C	10/26/2020	10:49	-133.653	43.565	0	2020.10	0	1.9310	0	37.3040	8	29.837	0	1994.338	0	59.2	4	18.2	4	-1E+10	1	-1E+10	1	-1E+10	1	-1E+10	1	-1E+10	1	-1E+10	1
4901784	194	C	10/26/2020	10:49	-133.653	43.565	0																										
4901784	195	C	11/05/2020	10:44	-133.728	43.649	0	1.90	0	17.4010	0	35.3720	8	25.705	0	1.885	0	228.0	4	96.6	4	-1E+10	1	-1E+10	1	-1E+10	1	-1E+10	1	-1E+10	1	-1E+10	1
4901784	195	C	11/05/2020	10:44	-133.728	43.649	0	2.70	0	17.4060	0	35.3740	8	25.705	0	2.678	0	228.1	4	96.7	4	-1E+10	1	-1E+10	1	-1E+10	1	-1E+10	1	-1E+10	1	-1E+10	1
4901784	195	C	11/05/2020	10:44	-133.728	43.649	0	3.50	0	17.4030	0	35.3730	8	25.705	0	3.472	0	228.1	4	96.6	4	-1E+10	1	-1E+10	1	-1E+10	1	-1E+10	1	-1E+10	1	-1E+10	1
4901784	195	C	11/05/2020	10:44	-133.728	43.649	0	4.80	0	17.4040	0	35.3770	8	25.708	0	4.762	0	228.0	4	96.6	4	-1E+10	1	-1E+10	1	-1E+10	1	-1E+10	1	-1E+10	1	-1E+10	1
4901784	195	C	11/05/2020	10:44	-133.728	43.649	0	6.10	0	17.4090	0	35.3780	8	25.707	0	6.051	0	227.9	4	96.6	4	-1E+10	1	-1E+10	1	-1E+10	1	-1E+10	1	-1E+10	1	-1E+10	1
4901784	195	C	11/05/2020	10:44	-133.728	43.649	0	7.60	0	17.4080	0	35.3790	8	25.709	0	7.539	0	227.8	4	96.5	4	-1E+10	1	-1E+10	1	-1E+10	1	-1E+10	1	-1E+10	1	-1E+10	1
4901784	195	C	11/05/2020	10:44	-133.728	43.649	0	9.20	0	17.4110	0	35.3810	8	25.709	0	9.126	0	227.8	4	96.5	4	-1E+10	1	-1E+10	1	-1E+10	1	-1E+10	1	-1E+10	1	-1E+10	1
4901784	195	C	11/05/2020	10:44	-133.728	43.649	0	11.10	0	17.4150	0	35.3820	8	25.709	0	11.011	0	227.7	4	96.5	4	-1E+10	1	-1E+10	1	-1E+10	1	-1E+10	1	-1E+10	1	-1E+10	1
4901784	195	C	11/05/2020	10:44	-133.728	43.649	0	11.60	0	17.4180	0	35.3820	8	25.709	0	11.507	0	227.6	4	96.5	4	-1E+10	1	-1E+10	1	-1E+10	1	-1E+10	1	-1E+10	1	-1E+10	1
4901784	195	C	11/05/2020	10:44	-133.728	43.649	0	13.20	0	17.4160	0	35.3830	8	25.710	0	13.094	0	227.6	4	96.5	4	-1E+10	1	-1E+10	1	-1E+10	1	-1E+10	1	-1E+10	1	-1E+10	1
4901784	195	C	11/05/2020	10:44	-133.728	43.649	0	14.60	0	17.4150	0	35.3850	8	25.712	0	14.483	0	227.4	4	96.4	4	-1E+10	1	-1E+10	1	-1E+10	1	-1E+10	1	-1E+10	1	-1E+10	1
4901784	195	C	11/05/2020	10:44	-133.728	43.649	0	15.90	0	17.4190	0	35.3850	8	25.711	0	15.772	0	227.6	4	96.5	4	-1E+10	1	-1E+10	1	-1E+10	1	-1E+10	1	-1E+10	1	-1E+10	1
4901784	195	C	11/05/2020	10:44	-133.728	43.649	0	17.30	0	17.4150	0	35.3870	8	25.713	0	17.161	0	227.3	4	96.3	4	-1E+10	1	-1E+10	1	-1E+10	1	-1E+10	1	-1E+10	1	-1E+10	1
4901784	195	C	11/05/2020	10:44	-133.728	43.649	0	18.90	0	17.4150	0	35.3880	8	25.714	0	18.748	0	227.2	4	96.3	4	-1E+10	1	-1E+10	1	-1E+10	1	-1E+10	1	-1E+10	1	-1E+10	1
4901784	195	C	11/05/2020	10:44	-133.728	43.649	0	20.60	0	17.4150	0	35.3890	8	25.715	0	20.434	0	227.2	4	96.3	4	-1E+10	1	-1E+10	1	-1E+10	1	-1E+10	1	-1E+10	1	-1E+10	1
4901784	195	C	11/05/2020	10:44	-133.728	43.649	0	22.10	0	17.4160	0	35.3900	8	25.716	0	21.922	0	227.1	4	96.3	4	-1E+10	1	-1E+10	1	-1E+10	1	-1E+10	1	-1E+10	1	-1E+10	1
4901784	195	C	11/05/2020	10:44	-133.728	43.649	0	23.80	0	17.4160	0	35.3910	8	25.716	0	23.608	0	226.9	4	96.2	4	-1E+10	1	-1E+10	1	-1E+10	1	-1E+10	1	-1E+10	1	-1E+10	1
4901784	195	C	11/05/2020	10:44	-133.728	43.649	0	25.20	0	17.4170	0	35.3930	8	25.718	0	24.997	0	226.9	4	96.2	4	-1E+10	1	-1E+10	1	-1E+10	1	-1E+10	1	-1E+10	1	-1E+10	1
4901784	195	C	11/05/2020	10:44	-133.728	43.649	0	26.90	0	17.4180	0	35.3930	8	25.718	0	26.683	0	226.6	4	96.1	4	-1E+10	1	-1E+10	1	-1E+10	1	-1E+10	1	-1E+10	1	-1E+10	1
4901784	195	C	11/05/2020	10:44	-133.728	43.649	0	28.50	0	17.4180	0	35.3940	8	25.718	0	28.270	0	226.5	4	96.0	4	-1E+10	1	-1E+10	1	-1E+10	1	-1E+10	1	-1E+10	1	-1E+10	1
4901784	195	C	11/05/2020	10:44	-133.728	43.649	0	31.00	0	17.4190	0	35.3960	8	25.720	0	30.750	0	226.5	4	96.0	4	-1E+10	1	-1E+10	1	-1E+10	1	-1E+10	1	-1E+10	1	-1E+10	1
4901784	195	C	11/05/2020	10:44	-133.728	43.649	0	32.80	0	17.4180	0	35.3970	8	25.721	0	32.535	0	226.3	4	95.9	4	-1E+10	1	-1E+10	1	-1E+10	1	-1E+10	1	-1E+10	1	-1E+10	1
4901784	195	C	11/05/2020	10:44	-133.728	43.649	0	34.60	0	17.4200	0	35.3980	8	25.721	0	34.321	0	226.2	4	95.9	4	-1E+10	1	-1E+10	1	-1E+10	1	-1E+10	1	-1E+10	1	-1E+10	1
4901784	195	C	11/05/2020	10:44	-133.728	43.649	0	36.40	0	17.4200	0	35.3990	8	25.722	0	36.106	0	226.1	4	95.9	4	-1E+10	1	-1E+10	1	-1E+10	1	-1E+10	1	-1E+10	1	-1E+10	1
4901784	195	C	11/05/2020	10:44	-133.728	43.649	0	37.90	0	17.4200	0	35.4000	8	25.723	0	37.594	0	225.9	4	95.8	4	-1E+10	1	-1E+10	1	-1E+10	1	-1E+10	1	-1E+10	1	-1E+10	1
4901784	195	C	11/05/2020	10:44	-133.728	43.649	0	39.40	0	17.4210	0	35.4010	8	25.724	0	39.081	0	225.8	4	95.7	4	-1E+10	1	-1E+10	1	-1E+10	1	-1E+10	1	-1E+10	1	-1E+10	1
4901784	195	C	11/05/2020	10:44	-133.728	43.649	0	40.90	0	17.4210	0	35.4020	8	25.724	0	40.569	0	225.7	4	95.7	4	-1E+10	1	-1E+10	1	-1E+10	1	-1E+10	1	-1E+10	1	-1E+10	1
4901784	195	C	11/05/2020	10:44	-133.728	43.649	0	42.40	0	17.4230	0	35.4030	8	25.725	0	42.057	0	225.6	4	95.6	4	-1E+10	1	-1E+10	1	-1E+10	1	-1E+10	1	-1E+10	1	-1E+10	1
4901784	195	C	11/05/2020	10:44	-133.728	43.649	0	43.90	0	17.4200	0	35.4040	8	25.726	0	43.544	0	225.6	4	95.6	4	-1E+10	1	-1E+10	1	-1E+10	1	-1E+10	1	-1E+10	1	-1E+10	1
4901784	195	C	11/05/2020	10:44	-133.728	43.649	0	45.50	0	17.4250	0	35.4040	8	25.725	0	45.131	0	225.5	4	95.6	4	-1E+10	1	-1E+10	1	-1E+10	1	-1E+10	1	-1E+10	1	-1E+10	1
4901784	195	C	11/05/2020	10:44	-133.728	43.649	0	47.30	0	17.4220	0	35.4040	8	25.726	0	46.917	0	225.2	4	95.5	4	-1E+10	1	-1E+10	1	-1E+10	1	-1E+10	1	-1E+10	1	-1E+10	1
4901784	195	C	11/05/2020	10:44	-133.728	43.649	0	49.10	0	17.4210	0	35.4030	8	25.725	0	48.702	0	225.3	4	95.5	4	-1E+10	1	-1E+10	1	-1E+10	1	-1E+10	1	-1E+10	1	-1E+10	1
4901784	195	C	11/05/2020	10:44	-133.728	43.649	0	51.20	0	17.4220	0	35.4010	8	25.724	0	50.784	0	225.2	4	95.5	4	-1E+10	1	-1E+10	1	-1E+10	1	-1E+10	1	-1E+10	1	-1E+10	1
4901784	195	C	11/05/2020	10:44	-133.728	43.649	0	51.70	0	17.4210	0	35.4010	8	25.724	0	51.280	0	225.6	4	95.6	4	-1E+10	1	-1E+10	1	-1E+10	1	-1E+10	1	-1E+10	1	-1E+10	1
4901784	195	C	11/05/2020	10:44	-133.728	43.649	0	53.20	0	17.4140	0	35.3970	8	25.723	0	52.768	0	225.7	4	95.7	4	-1E+10	1	-1E+10	1	-1E+10	1	-1E+10	1	-1E+10	1	-1E+10	1
4901784	195	C	11/05/2020	10:44	-133.728	43.649	0	54.60	0	17.4100	0	35.3900	8	25.718	0	54.156	0	226.3	4	95.9	4	-1E+10	1	-1E+10	1	-1E+10	1	-1E+10	1	-1E+10	1	-1E+10	1
4901784	195	C	11/05/2020	10:44	-133.728	43.649	0	56.00	0	17.4050	0	35.3840	8	25.715	0	55.545	0	226.8	4	96.1	4	-1E+10	1	-1E+10	1	-1E+10	1	-1E+10	1	-1E+10	1	-1E+10	1
4901784	195	C	11/05/2020	10:44	-133.728	43.649	0	57.30	0	17.4040	0	35.3670	8	25.702	0	56.834	0	228.0	4	96.6	4	-1E+10	1	-1E+10	1	-1E+10	1	-1E+10	1	-1E+10	1	-1E+10	1
4901784	195	C	11/05/2020	10:44	-133.728	43.649	0	58.60	0	17.3640	0	35.3480	8	25.697	0	58.123	0	230.0	4	97.4	4	-1E+10	1	-1E+10	1	-1E+10	1	-1E+10	1	-1E+10	1	-1E+10	1
4901784	195	C	11/05/2020	10:44	-133.728	43.649	0	59.80	0	17.3010	0	35.3130	8	25.686	0	59.313	0	232.9	4	98.5	4	-1E+10	1	-1E+10	1	-1E+10	1	-1E+10	1	-1E+10	1	-1E+10	1
4901784	195	C	11/05/2020	10:44	-133.728	43.649	0	61.20	0	16.7990	0	35.2960	8	25.793	0	60.702	0	237.9	4	99.6	4	-1E+10	1	-1E+10	1	-1E+10	1	-1E+10	1	-1E+10	1	-1E+10	1
4901784	195	C	11/05/2020	10:44	-133.728	43.649	0	62.60	0	16.3150	0	35.2420	8	25.864	0	62.090	0	243.5	4	101.0	4	-1E+10	1	-1E+10	1	-1E+10	1	-1E+10	1	-1E+10	1	-1E+10	1
4901784	195	C	11/05/2020	10:44	-133.728	43.649	0	64.10	0	14.3620	0	35.3630	8	26.393	0	63.578	0	253.2	4	101.2	4	-1E+10	1	-1E+10	1	-1E+10	1	-1E+10	1	-1E+10	1	-1E+10	1
4901784	195	C	11/05/2020	10:44	-133.728	43.649	0	65.80	0	13.4600	0	35.4120	8	26.621	0	65.264	0	259.5	4	101.8	4	-1E+10	1	-1E+10	1	-1E+10	1	-1E+10	1	-1E+10	1	-1E+10	1
4901784	195	C	11/05/2020	10:44	-133.728	43.649	0	67.60	0	13.1320	0	35.4280	8	26.700	0	67.049	0	261.5	4	102.0	4	-1E+10	1	-1E+10	1	-1E+10	1	-1E+10	1	-1E+10	1	-1E+10	1
4901784	195	C	11/05/2020	10:44	-133.728	43.649	0	69.20	0	13.0510	0	35.4230	8	26.713	0	68.635	0	261.2	4	101.7	4	-1E+10	1	-1E+10	1	-1E+10	1	-1E+10	1	-1E+10	1	-1E+10	1
4901784	195	C	11/05/2020	10:44	-133.728	43.649	0	71.00	0	12.8230	0	35.4250	8	26.760	0	70.420	0	261.4	4	101.3	4	-1E+10	1	-1E+10	1	-1E+10	1	-1E+10	1	-1E+10	1	-1E+10	1
4901784	195	C	11/05/2020	10:44	-133.728	43.649	0	72.80	0	12.4770	0	35.4420	8	26.842	0	72.205	0	262.1	4	100.8	4	-1E+10	1	-1E+10	1	-1E+10	1	-1E+10	1	-1E+10	1	-1E+10	1
4901784	195	C	11/05/2020	10:44	-133.728	43.649	0	74.70	0	12.3020	0	35.4410	8	26.876	0	74.089	0	261.7	4	100.3	4	-1E+10	1	-1E+10	1	-1E+10	1	-1E+10	1	-1E+10	1	-1E+10	1
4901784	195	C	11/05/2020	10:44	-133.728	43.649	0	76.50	0	12.0010	0	35.4590	8	26.948	0	75.874	0	261.6	4	99.7	4	-1E+10	1	-1E+10	1	-1E+10	1	-1E+10	1	-1E+10	1	-1E+10	1
4901784	195	C	11/05/2020	10:44	-133.728	43.649	0	78.50	0	11.8080	0	35.4670	8	26.991	0	77.858	0	260.6	4	98.9	4	-1E+10	1	-1E+10	1	-1E+10	1	-1E+10	1	-1E+10	1	-1E+10	1
4901784	195	C	11/05/2020	10:44	-133.728	43.649	0	80.90	0	11.5880	0	35.4780	8	27.041	0	80.238	0	259.1	4	97.9	4	-1E+10	1	-1E+10	1	-1E+10	1	-1E+10	1	-1E+10	1	-1E+10	1
4901784	195	C	11/05/2020	10:44	-133.728	43.649	0	82.70	0	11.4440	0	35.4800	8	27.070	0	82.022	0	257.8	4	97.1	4	-1E+10	1	-1E+10	1	-1E+10	1	-1E+10	1	-1E+10	1	-1E+10	1
4901784	195	C	11/05/2020	10:44	-133.728	43.649	0	84.30	0	11.3180	0	35.4820	8	27.095	0	83.609	0	256.4	4	96.4	4	-1E+10	1	-1E+10	1	-1E+10	1	-1E+10	1	-1E+10	1	-1E+10	1
4901784	195	C	11/05/2020	10:44	-133.728	43.649	0	85.80	0	11.0850	0	35.4950	8	27.148	0	85.096	0	255.1	4	95.4	4	-1E+10	1	-1E+10	1	-1E+10	1	-1E+10	1	-1E+10	1	-1E+10	1
4901784	195	C	11/05/2020	10:44	-133.728	43.649	0	87.50	0	11.0000	0	35.4920	8	27.161	0	86.782	0	254.9	4	95.1	4	-1E+10	1	-1E+10	1	-1E+10	1	-1E+10	1	-1E+10	1	-1E+10	1
4901784	195	C	11/05/2020	10:44	-133.728	43.649	0	89.00	0	10.9190	0	35.4850	8	27.171	0	88.270	0	253.5	4	94.5	4	-1E+10	1	-1E+10	1	-1E+10	1	-1E+10	1	-1E+10	1	-1E+10	1
4901784	195	C	11/05/2020	10:44	-133.728	43.649	0	90.70	0	10.7530	0	35.4820	8	27.198	0	89.955	0	253.0	4	93.9	4	-1E+10	1	-1E+10	1	-1E+10	1	-1E+10	1	-1E+10	1	-1E+10	1
4901784	195	C	11/05/2020	10:44	-133.728	43.649	0	92.30	0	10.6270	0	35.4780	8	27.218	0	91.542	0	252.1	4	93.4	4	-1E+10	1	-1E+10	1	-1E+10	1	-1E+10	1	-1E+10	1	-1E+10	1
4901784	195	C	11/05/2020	10:44	-133.728	43.649	0	94.00	0	10.4920	0	35.4770	8	27.241	0	93.227	0	251.4	4	92.8	4	-1E+10	1	-1E+10	1	-1E+10	1	-1E+10	1	-1E+10	1	-1E+10	1
4901784	195	C	11/05/2020	10:44	-133.728	43.649	0	95.60	0	10.3360	0	35.4650	8	27.259	0	94.814	0	251.0	4	92.4	4	-1E+10	1	-1E+10	1	-1E+10	1	-1E+10	1	-1E+10	1	-1E+10	1
4901784	195	C	11/05/2020	10:44	-133.728	43.649	0	97.20	0	10.1630	0	35.4630	8	27.288	0	96.400	0	250.4	4	91.8	4	-1E+10	1	-1E+10	1	-1E+10	1	-1E+10	1	-1E+10	1	-1E+10	1
4901784	195	C	11/05/2020	10:44	-133.728	43.649	0	98.80	0	9.9970	0	35.4720	8	27.324	0	97.987	0	249.7	4	91.2	4	-1E+10	1	-1E+10	1	-1E+10	1	-1E+10	1	-1E+10	1	-1E+10	1
4901784	195	C	11/05/2020	10:44	-133.728	43.649	0	102.20	0	9.8630	0	35.4820	8	27.354	0	101.358	0	248.4	4	90.5	4	-1E+10	1	-1E+10	1	-1E+10	1	-1E+10	1	-1E+10	1	-1E+10	1
4901784	195	C	11/05/2020	10:44	-133.728	43.649	0	104.80	0	9.7520	0	35.4930	8	27.382	0	103.936	0	248.2	4	90.2	4	-1E+10	1	-1E+10	1	-1E+10	1	-1E+10	1	-1E+10	1	-1E+10	1
4901784	195	C	11/05/2020	10:44	-133.728	43.649	0	107.30	0	9.6340	0	35.4870	8	27.397	0	106.415	0	248.6	4	90.1	4	-1E+10	1	-1E+10	1	-1E+10	1	-1E+10	1	-1E+10	1	-1E+10	1
4901784	195	C	11/05/2020	10:44	-133.728	43.649	0	110.00	0	9.4650	0	35.4950	8	27.432	0	109.092	0	248.8	4	89.9	4	-1E+10	1	-1E+10	1	-1E+10	1	-1E+10	1	-1E+10	1	-1E+10	1
4901784	195	C	11/05/2020	10:44	-133.728	43.649	0	112.20	0	9.3580	0	35.4950	8	27.450	0	111.273	0	249.2	4	89.8	4	-1E+10	1	-1E+10	1	-1E+10	1	-1E+10	1	-1E+10	1	-1E+10	1
4901784	195	C	11/05/2020	10:44	-133.728	43.649	0	115.10	0	9.3040	0	35.4980	8	27.461	0	114.148	0	248.7	4	89.5	4	-1E+10	1	-1E+10	1	-1E+10	1	-1E+10	1	-1E+10	1	-1E+10	1
4901784	195	C	11/05/2020	10:44	-133.728	43.649	0	117.90	0	9.2750	0	35.5080	8	27.474	0	116.924	0	247.6	4	89.1	4	-1E+10	1	-1E+10	1	-1E+10	1	-1E+10	1	-1E+10	1	-1E+10	1
4901784	195	C	11/05/2020	10:44	-133.728	43.649	0	120.10	0	9.2700	0	35.5230	8	27.486	0	119.105	0	246.5	4	88.7	4	-1E+10	1	-1E+10	1	-1E+10	1	-1E+10	1	-1E+10	1	-1E+10	1
4901784	195	C	11/05/2020	10:44	-133.728	43.649	0	122.40	0	9.2440	0	35.5250	8	27.492	0	121.386	0	245.3	4	88.2	4	-1E+10	1	-1E+10	1	-1E+10	1	-1E+10	1	-1E+10	1	-1E+10	1
4901784	195	C	11/05/2020	10:44	-133.728	43.649	0	125.40	0	9.1930	0	35.5390	8	27.512	0	124.360	0	243.1	4	87.3	4	-1E+10	1	-1E+10	1	-1E+10	1	-1E+10	1	-1E+10	1	-1E+10	1
4901784	195	C	11/05/2020	10:44	-133.728	43.649	0	127.60	0	9.1330	0	35.5440	8	27.525	0	126.541	0	240.9	4	86.4	4	-1E+10	1	-1E+10	1	-1E+10	1	-1E+10	1	-1E+10	1	-1E+10	1
4901784	195	C	11/05/2020	10:44	-133.728	43.649	0	129.90	0	9.0130	0	35.5630	8	27.560	0	128.821	0	237.9	4	85.1	4	-1E+10	1	-1E+10	1	-1E+10	1	-1E+10	1	-1E+10	1	-1E+10	1
4901784	195	C	11/05/2020	10:44	-133.728	43.649	0	132.20	0	8.7930	0	35.5770	8	27.606	0	131.101	0	235.7	4	83.9	4	-1E+10	1	-1E+10	1	-1E+10	1	-1E+10	1	-1E+10	1	-1E+10	1
4901784	195	C	11/05/2020	10:44	-133.728	43.649	0	134.70	0	8.7260	0	35.6010	8	27.636	0	133.580	0	231.5	4	82.4	4	-1E+10	1	-1E+10	1	-1E+10	1	-1E+10	1	-1E+10	1	-1E+10	1
4901784	195	C	11/05/2020	10:44	-133.728	43.649	0	137.20	0	8.6230	0	35.6650	8	27.702	0	136.058	0	226.8	4	80.5	4	-1E+10	1	-1E+10	1	-1E+10	1	-1E+10	1	-1E+10	1	-1E+10	1
4901784	195	C	11/05/2020	10:44	-133.728	43.649	0	139.70	0	8.5520	0	35.7150	8	27.753	0	138.536	0	222.5	4	78.9	4	-1E+10	1	-1E+10	1	-1E+10	1	-1E+10	1	-1E+10	1	-1E+10	1
4901784	195	C	11/05/2020	10:44	-133.728	43.649	0	142.40	0	8.4570	0	35.8030	8	27.837	0	141.213	0	218.6	4	77.4	4	-1E+10	1	-1E+10	1	-1E+10	1	-1E+10	1	-1E+10	1	-1E+10	1
4901784	195	C	11/05/2020	10:44	-133.728	43.649	0	144.90	0	8.4190	0	35.8390	8	27.871	0	143.691	0	215.6	4	76.3	4	-1E+10	1	-1E+10	1	-1E+10	1	-1E+10	1	-1E+10	1	-1E+10	1
4901784	195	C	11/05/2020	10:44	-133.728	43.649	0	147.50	0	8.3710	0	35.8580	8	27.894	0	146.269	0	212.0	4	75.0	4	-1E+10	1	-1E+10	1	-1E+10	1	-1E+10	1	-1E+10	1	-1E+10	1
4901784	195	C	11/05/2020	10:44	-133.728	43.649	0	149.70	0	8.2430	0	35.9480	8	27.984	0	148.449	0	208.8	4	73.7	4	-1E+10	1	-1E+10	1	-1E+10	1	-1E+10	1	-1E+10	1	-1E+10	1
4901784	195	C	11/05/2020	10:44	-133.728	43.649	0	152.10	0	8.1990	0	36.0160	8	28.044	0	150.829	0	206.5	4	72.8	4	-1E+10	1	-1E+10	1	-1E+10	1	-1E+10	1	-1E+10	1	-1E+10	1
4901784	195	C	11/05/2020	10:44	-133.728	43.649	0	155.10	0	8.0390	0	36.0580	8	28.102	0	153.802	0	206.0	4	72.4	4	-1E+10	1	-1E+10	1	-1E+10	1	-1E+10	1	-1E+10	1	-1E+10	1
4901784	195	C	11/05/2020	10:44	-133.728	43.649	0	157.30	0	7.7190	0	36.1710	8	28.239	0	155.983	0	206.0	4	72.0	4	-1E+10	1	-1E+10	1	-1E+10	1	-1E+10	1	-1E+10	1	-1E+10	1
4901784	195	C	11/05/2020	10:44	-133.728	43.649	0	159.70	0	7.7000	0	36.2090	8	28.272	0	158.362	0	204.6	4	71.5	4	-1E+10	1	-1E+10	1	-1E+10	1	-1E+10	1	-1E+10	1	-1E+10	1
4901784	195	C	11/05/2020	10:44	-133.728	43.649	0	162.90	0	7.6380	0	36.2850	8	28.341	0	161.534	0	202.5	4	70.7	4	-1E+10	1	-1E+10	1	-1E+10	1	-1E+10	1	-1E+10	1	-1E+10	1
4901784	195	C	11/05/2020	10:44	-133.728	43.649	0	165.30	0	7.5720	0	36.3270	8	28.384	0	163.913	0	201.5	4	70.3	4	-1E+10	1	-1E+10	1	-1E+10	1	-1E+10	1	-1E+10	1	-1E+10	1
4901784	195	C	11/05/2020	10:44	-133.728	43.649	0	167.80	0	7.5550	0	36.3440	8	28.400	0	166.391	0	199.9	4	69.7	4	-1E+10	1	-1E+10	1	-1E+10	1	-1E+10	1	-1E+10	1	-1E+10	1
4901784	195	C	11/05/2020	10:44	-133.728	43.649	0	170.30	0	7.4970	0	36.3890	8	28.444	0	168.869	0	198.1	4	69.0	4	-1E+10	1	-1E+10	1	-1E+10	1	-1E+10	1	-1E+10	1	-1E+10	1
4901784	195	C	11/05/2020	10:44	-133.728	43.649	0	172.90	0	7.4460	0	36.4340	8	28.487	0	171.446	0	196.2	4	68.3	4	-1E+10	1	-1E+10	1	-1E+10	1	-1E+10	1	-1E+10	1	-1E+10	1
4901784	195	C	11/05/2020	10:44	-133.728	43.649	0	175.30	0	7.4230	0	36.4670	8	28.517	0	173.825	0	194.4	4	67.6	4	-1E+10	1	-1E+10	1	-1E+10	1	-1E+10	1	-1E+10	1	-1E+10	1
4901784	195	C	11/05/2020	10:44	-133.728	43.649	0	177.80	0	7.4000	0	36.5470	8	28.583	0	176.303	0	191.9	4	66.7	4	-1E+10	1	-1E+10	1	-1E+10	1	-1E+10	1	-1E+10	1	-1E+10	1
4901784	195	C	11/05/2020	10:44	-133.728	43.649	0	180.40	0	7.4010	0	36.6210	8	28.641	0	178.880	0	189.9	4	66.1	4	-1E+10	1	-1E+10	1	-1E+10	1	-1E+10	1	-1E+10	1	-1E+10	1
4901784	195	C	11/05/2020	10:44	-133.728	43.649	0	182.10	0	7.4030	0	36.6380	8	28.654	0	180.565	0	188.7	4	65.7	4	-1E+10	1	-1E+10	1	-1E+10	1	-1E+10	1	-1E+10	1	-1E+10	1
4901784	195	C	11/05/2020	10:44	-133.728	43.649	0	184.80	0	7.4100	0	36.6620	8	28.672	0	183.241	0	187.2	4	65.2	4	-1E+10	1	-1E+10	1	-1E+10	1	-1E+10	1	-1E+10	1	-1E+10	1
4901784	195	C	11/05/2020	10:44	-133.728	43.649	0	187.50	0	7.4140	0	36.7100	8	28.709	0	185.917	0	185.4	4	64.6	4	-1E+10	1	-1E+10	1	-1E+10	1	-1E+10	1	-1E+10	1	-1E+10	1
4901784	195	C	11/05/2020	10:44	-133.728	43.649	0	189.90	0	7.4320	0	36.7390	8	28.730	0	188.295	0	183.7	4	64.0	4	-1E+10	1	-1E+10	1	-1E+10	1	-1E+10	1	-1E+10	1	-1E+10	1
4901784	195	C	11/05/2020	10:44	-133.728	43.649	0	192.50	0	7.4420	0	36.7690	8	28.752	0	190.872	0	181.6	4	63.3	4	-1E+10	1	-1E+10	1	-1E+10	1	-1E+10	1	-1E+10	1	-1E+10	1
4901784	195	C	11/05/2020	10:44	-133.728	43.649	0	194.90	0	7.4480	0	36.7890	8	28.767	0	193.251	0	179.6	4	62.7	4	-1E+10	1	-1E+10	1	-1E+10	1	-1E+10	1	-1E+10	1	-1E+10	1
4901784	195	C	11/05/2020	10:44	-133.728	43.649	0	197.30	0	7.4890	0	36.8200	8	28.785	0	195.629	0	177.4	4	61.9	4	-1E+10	1	-1E+10	1	-1E+10	1	-1E+10	1	-1E+10	1	-1E+10	1
4901784	195	C	11/05/2020	10:44	-133.728	43.649	0	199.70	0	7.5370	0	36.8450	8	28.798	0	198.008	0	174.9	4	61.2	4	-1E+10	1	-1E+10	1	-1E+10	1	-1E+10	1	-1E+10	1	-1E+10	1
4901784	195	C	11/05/2020	10:44	-133.728	43.649	0	202.20	0	7.5610	0	36.8710	8	28.815	0	200.485	0	172.3	4	60.3	4	-1E+10	1	-1E+10	1	-1E+10	1	-1E+10	1	-1E+10	1	-1E+10	1
4901784	195	C	11/05/2020	10:44	-133.728	43.649	0	205.40	0	7.5810	0	36.9080	8	28.841	0	203.657	0	169.0	4	59.2	4	-1E+10	1	-1E+10	1	-1E+10	1	-1E+10	1	-1E+10	1	-1E+10	1
4901784	195	C	11/05/2020	10:44	-133.728	43.649	0	207.80	0	7.6600	0	36.9510	8	28.863	0	206.035	0	166.5	4	58.4	4	-1E+10	1	-1E+10	1	-1E+10	1	-1E+10	1	-1E+10	1	-1E+10	1
4901784	195	C	11/05/2020	10:44	-133.728	43.649	0	210.30	0	7.6630	0	36.9620	8	28.871	0	208.513	0	165.0	4	57.9	4	-1E+10	1	-1E+10	1	-1E+10	1	-1E+10	1	-1E+10	1	-1E+10	1
4901784	195	C	11/05/2020	10:44	-133.728	43.649	0	212.80	0	7.6950	0	36.9770	8	28.878	0	210.990	0	163.5	4	57.4	4	-1E+10	1	-1E+10	1	-1E+10	1	-1E+10	1	-1E+10	1	-1E+10	1
4901784	195	C	11/05/2020	10:44	-133.728	43.649	0	215.30	0	7.6910	0	36.9800	8	28.881	0	213.468	0	162.2	4	57.0	4	-1E+10	1	-1E+10	1	-1E+10	1	-1E+10	1	-1E+10	1	-1E+10	1
4901784	195	C	11/05/2020	10:44	-133.728	43.649	0	217.80	0	7.6960	0	36.9780	8	28.879	0	215.945	0	160.9	4	56.5	4	-1E+10	1	-1E+10	1	-1E+10	1	-1E+10	1	-1E+10	1	-1E+10	1
4901784	195	C	11/05/2020	10:44	-133.728	43.649	0	219.50	0	7.6940	0	36.9780	8	28.879	0	217.630	0	160.0	4	56.2	4	-1E+10	1	-1E+10	1	-1E+10	1	-1E+10	1	-1E+10	1	-1E+10	1
4901784	195	C	11/05/2020	10:44	-133.728	43.649	0	222.20	0	7.6830	0	36.9780	8	28.881	0	220.305	0	158.4	4	55.6	4	-1E+10	1	-1E+10	1	-1E+10	1	-1E+10	1	-1E+10	1	-1E+10	1
4901784	195	C	11/05/2020	10:44	-133.728	43.649	0	224.70	0	7.6640	8	36.9640	8	28.873	0	222.783	0	157.0	4	55.1	4	-1E+10	1	-1E+10	1	-1E+10	1	-1E+10	1	-1E+10	1	-1E+10	1
4901784	195	C	11/05/2020	10:44	-133.728	43.649	0	227.30	0	7.6250	8	36.9010	8	28.829	0	225.359	0	155.6	4	54.5	4	-1E+10	1	-1E+10	1	-1E+10	1	-1E+10	1	-1E+10	1	-1E+10	1
4901784	195	C	11/05/2020	10:44	-133.728	43.649	0	229.90	0	7.5940	0	36.8770	8	28.815	0	227.935	0	154.5	4	54.1	4	-1E+10	1	-1E+10	1	-1E+10	1	-1E+10	1	-1E+10	1	-1E+10	1
4901784	195	C	11/05/2020	10:44	-133.728	43.649	0	232.60	0	7.5580	0	36.8600	8	28.807	0	230.611	0	153.5	4	53.7	4	-1E+10	1	-1E+10	1	-1E+10	1	-1E+10	1	-1E+10	1	-1E+10	1
4901784	195	C	11/05/2020	10:44	-133.728	43.649	0	235.20	0	7.5210	0	36.8610	8	28.813	0	233.187	0	152.7	4	53.4	4	-1E+10	1	-1E+10	1	-1E+10	1	-1E+10	1	-1E+10	1	-1E+10	1
4901784	195	C	11/05/2020	10:44	-133.728	43.649	0	237.80	0	7.4900	0	36.8440	8	28.804	0	235.763	0	152.1	4	53.1	4	-1E+10	1	-1E+10	1	-1E+10	1	-1E+10	1	-1E+10	1	-1E+10	1
4901784	195	C	11/05/2020	10:44	-133.728	43.649	0	240.50	0	7.4320	0	36.8260	8	28.799	0	238.439	0	151.6	4	52.9	4	-1E+10	1	-1E+10	1	-1E+10	1	-1E+10	1	-1E+10	1	-1E+10	1
4901784	195	C	11/05/2020	10:44	-133.728	43.649	0	242.20	0	7.4120	0	36.8220	8	28.799	0	240.123	0	151.3	4	52.7	4	-1E+10	1	-1E+10	1	-1E+10	1	-1E+10	1	-1E+10	1	-1E+10	1
4901784	195	C	11/05/2020	10:44	-133.728	43.649	0	245.00	0	7.3680	0	36.8250	8	28.808	0	242.897	0	150.9	4	52.6	4	-1E+10	1	-1E+10	1	-1E+10	1	-1E+10	1	-1E+10	1	-1E+10	1
4901784	195	C	11/05/2020	10:44	-133.728	43.649	0	247.70	0	7.3470	0	36.8020	8	28.793	0	245.573	0	150.5	4	52.4	4	-1E+10	1	-1E+10	1	-1E+10	1	-1E+10	1	-1E+10	1	-1E+10	1
4901784	195	C	11/05/2020	10:44	-133.728	43.649	0	249.50	0	7.3320	0	36.7910	8	28.786	0	247.356	0	150.2	4	52.3	4	-1E+10	1	-1E+10	1	-1E+10	1	-1E+10	1	-1E+10	1	-1E+10	1
4901784	195	C	11/05/2020	10:44	-133.728	43.649	0	252.20	0	7.2660	0	36.7850	8	28.791	0	250.031	0	149.8	4	52.0	4	-1E+10	1	-1E+10	1	-1E+10	1	-1E+10	1	-1E+10	1	-1E+10	1
4901784	195	C	11/05/2020	10:44	-133.728	43.649	0	255.00	0	7.2360	0	36.7810	8	28.792	0	252.806	0	149.0	4	51.7	4	-1E+10	1	-1E+10	1	-1E+10	1	-1E+10	1	-1E+10	1	-1E+10	1
4901784	195	C	11/05/2020	10:44	-133.728	43.649	0	257.80	0	7.2000	0	36.7610	8	28.782	0	255.580	0	148.3	4	51.4	4	-1E+10	1	-1E+10	1	-1E+10	1	-1E+10	1	-1E+10	1	-1E+10	1
4901784	195	C	11/05/2020	10:44	-133.728	43.649	0	260.50	0	7.1410	0	36.7590	8	28.789	0	258.255	0	147.5	4	51.1	4	-1E+10	1	-1E+10	1	-1E+10	1	-1E+10	1	-1E+10	1	-1E+10	1
4901784	195	C	11/05/2020	10:44	-133.728	43.649	0	262.40	0	7.1300	0	36.7450	8	28.780	0	260.137	0	147.1	4	50.9	4	-1E+10	1	-1E+10	1	-1E+10	1	-1E+10	1	-1E+10	1	-1E+10	1
4901784	195	C	11/05/2020	10:44	-133.728	43.649	0	265.10	0	7.0970	0	36.7450	8	28.784	0	262.812	0	145.9	4	50.5	4	-1E+10	1	-1E+10	1	-1E+10	1	-1E+10	1	-1E+10	1	-1E+10	1
4901784	195	C	11/05/2020	10:44	-133.728	43.649	0	267.80	0	7.0480	0	36.7370	8	28.785	0	265.487	0	144.7	4	50.0	4	-1E+10	1	-1E+10	1	-1E+10	1	-1E+10	1	-1E+10	1	-1E+10	1
4901784	195	C	11/05/2020	10:44	-133.728	43.649	0	269.70	0	7.0400	0	36.7420	8	28.790	0	267.370	0	143.9	4	49.7	4	-1E+10	1	-1E+10	1	-1E+10	1	-1E+10	1	-1E+10	1	-1E+10	1
4901784	195	C	11/05/2020	10:44	-133.728	43.649	0	272.50	0	7.0110	0	36.7220	8	28.779	0	270.143	0	142.4	4	49.2	4	-1E+10	1	-1E+10	1	-1E+10	1	-1E+10	1	-1E+10	1	-1E+10	1
4901784	195	C	11/05/2020	10:44	-133.728	43.649	0	275.30	0	6.9370	0	36.7270	8	28.793	0	272.917	0	141.3	4	48.7	4	-1E+10	1	-1E+10	1	-1E+10	1	-1E+10	1	-1E+10	1	-1E+10	1
4901784	195	C	11/05/2020	10:44	-133.728	43.649	0	277.20	0	6.9080	0	36.7060	8	28.781	0	274.800	0	140.7	4	48.5	4	-1E+10	1	-1E+10	1	-1E+10	1	-1E+10	1	-1E+10	1	-1E+10	1
4901784	195	C	11/05/2020	10:44	-133.728	43.649	0	280.00	0	6.8500	0	36.7050	8	28.788	0	277.574	0	139.6	4	48.0	4	-1E+10	1	-1E+10	1	-1E+10	1	-1E+10	1	-1E+10	1	-1E+10	1
4901784	195	C	11/05/2020	10:44	-133.728	43.649	0	282.80	0	6.8220	0	36.7060	8	28.793	0	280.347	0	138.5	4	47.6	4	-1E+10	1	-1E+10	1	-1E+10	1	-1E+10	1	-1E+10	1	-1E+10	1
4901784	195	C	11/05/2020	10:44	-133.728	43.649	0	284.60	0	6.8130	0	36.6970	8	28.787	0	282.131	0	137.8	4	47.3	4	-1E+10	1	-1E+10	1	-1E+10	1	-1E+10	1	-1E+10	1	-1E+10	1
4901784	195	C	11/05/2020	10:44	-133.728	43.649	0	287.40	0	6.7860	0	36.6900	8	28.786	0	284.904	0	136.8	4	47.0	4	-1E+10	1	-1E+10	1	-1E+10	1	-1E+10	1	-1E+10	1	-1E+10	1
4901784	195	C	11/05/2020	10:44	-133.728	43.649	0	290.10	0	6.7740	0	36.6790	8	28.779	0	287.579	0	136.1	4	46.7	4	-1E+10	1	-1E+10	1	-1E+10	1	-1E+10	1	-1E+10	1	-1E+10	1
4901784	195	C	11/05/2020	10:44	-133.728	43.649	0	292.00	0	6.7630	0	36.6750	8	28.777	0	289.461	0	135.6	4	46.5	4	-1E+10	1	-1E+10	1	-1E+10	1	-1E+10	1	-1E+10	1	-1E+10	1
4901784	195	C	11/05/2020	10:44	-133.728	43.649	0	294.90	0	6.7260	0	36.6520	8	28.764	0	292.334	0	134.6	4	46.1	4	-1E+10	1	-1E+10	1	-1E+10	1	-1E+10	1	-1E+10	1	-1E+10	1
4901784	195	C	11/05/2020	10:44	-133.728	43.649	0	297.70	0	6.6750	0	36.6380	8	28.760	0	295.108	0	133.6	4	45.7	4	-1E+10	1	-1E+10	1	-1E+10	1	-1E+10	1	-1E+10	1	-1E+10	1
4901784	195	C	11/05/2020	10:44	-133.728	43.649	0	299.60	0	6.6620	0	36.6330	8	28.758	0	296.990	0	132.7	4	45.4	4	-1E+10	1	-1E+10	1	-1E+10	1	-1E+10	1	-1E+10	1	-1E+10	1
4901784	195	C	11/05/2020	10:44	-133.728	43.649	0	302.50	0	6.6260	0	36.6290	8	28.760	0	299.862	0	131.2	4	44.9	4	-1E+10	1	-1E+10	1	-1E+10	1	-1E+10	1	-1E+10	1	-1E+10	1
4901784	195	C	11/05/2020	10:44	-133.728	43.649	0	305.30	0	6.5780	0	36.6250	8	28.763	0	302.636	0	129.7	4	44.3	4	-1E+10	1	-1E+10	1	-1E+10	1	-1E+10	1	-1E+10	1	-1E+10	1
4901784	195	C	11/05/2020	10:44	-133.728	43.649	0	307.70	0	6.5470	0	36.6180	8	28.762	0	305.013	0	128.7	4	43.9	4	-1E+10	1	-1E+10	1	-1E+10	1	-1E+10	1	-1E+10	1	-1E+10	1
4901784	195	C	11/05/2020	10:44	-133.728	43.649	0	310.40	0	6.5080	0	36.6120	8	28.763	0	307.688	0	127.5	4	43.5	4	-1E+10	1	-1E+10	1	-1E+10	1	-1E+10	1	-1E+10	1	-1E+10	1
4901784	195	C	11/05/2020	10:44	-133.728	43.649	0	312.80	0	6.4820	0	36.6200	8	28.773	0	310.065	0	126.8	4	43.2	4	-1E+10	1	-1E+10	1	-1E+10	1	-1E+10	1	-1E+10	1	-1E+10	1
4901784	195	C	11/05/2020	10:44	-133.728	43.649	0	315.30	0	6.4520	0	36.6050	8	28.765	0	312.541	0	126.0	4	42.9	4	-1E+10	1	-1E+10	1	-1E+10	1	-1E+10	1	-1E+10	1	-1E+10	1
4901784	195	C	11/05/2020	10:44	-133.728	43.649	0	317.70	0	6.4190	0	36.6010	8	28.767	0	314.918	0	124.9	4	42.5	4	-1E+10	1	-1E+10	1	-1E+10	1	-1E+10	1	-1E+10	1	-1E+10	1
4901784	195	C	11/05/2020	10:44	-133.728	43.649	0	320.10	0	6.3830	0	36.6000	8	28.771	0	317.295	0	123.7	4	42.1	4	-1E+10	1	-1E+10	1	-1E+10	1	-1E+10	1	-1E+10	1	-1E+10	1
4901784	195	C	11/05/2020	10:44	-133.728	43.649	0	322.50	0	6.3510	0	36.5860	8	28.764	0	319.673	0	122.6	4	41.7	4	-1E+10	1	-1E+10	1	-1E+10	1	-1E+10	1	-1E+10	1	-1E+10	1
4901784	195	C	11/05/2020	10:44	-133.728	43.649	0	325.00	0	6.3260	0	36.5720	8	28.756	0	322.149	0	121.2	4	41.1	4	-1E+10	1	-1E+10	1	-1E+10	1	-1E+10	1	-1E+10	1	-1E+10	1
4901784	195	C	11/05/2020	10:44	-133.728	43.649	0	327.40	0	6.2990	0	36.5680	8	28.757	0	324.526	0	119.7	4	40.6	4	-1E+10	1	-1E+10	1	-1E+10	1	-1E+10	1	-1E+10	1	-1E+10	1
4901784	195	C	11/05/2020	10:44	-133.728	43.649	0	329.80	0	6.2700	0	36.5650	8	28.758	0	326.903	0	118.3	4	40.1	4	-1E+10	1	-1E+10	1	-1E+10	1	-1E+10	1	-1E+10	1	-1E+10	1
4901784	195	C	11/05/2020	10:44	-133.728	43.649	0	332.20	0	6.2370	0	36.5550	8	28.755	0	329.280	0	117.5	4	39.8	4	-1E+10	1	-1E+10	1	-1E+10	1	-1E+10	1	-1E+10	1	-1E+10	1
4901784	195	C	11/05/2020	10:44	-133.728	43.649	0	334.70	0	6.2050	0	36.5490	8	28.755	0	331.756	0	116.9	4	39.6	4	-1E+10	1	-1E+10	1	-1E+10	1	-1E+10	1	-1E+10	1	-1E+10	1
4901784	195	C	11/05/2020	10:44	-133.728	43.649	0	337.20	0	6.1940	0	36.5320	8	28.743	0	334.232	0	116.0	4	39.2	4	-1E+10	1	-1E+10	1	-1E+10	1	-1E+10	1	-1E+10	1	-1E+10	1
4901784	195	C	11/05/2020	10:44	-133.728	43.649	0	339.60	0	6.1700	0	36.5320	8	28.746	0	336.609	0	114.4	4	38.7	4	-1E+10	1	-1E+10	1	-1E+10	1	-1E+10	1	-1E+10	1	-1E+10	1
4901784	195	C	11/05/2020	10:44	-133.728	43.649	0	342.80	0	6.1010	0	36.5280	8	28.752	0	339.778	0	111.7	4	37.7	4	-1E+10	1	-1E+10	1	-1E+10	1	-1E+10	1	-1E+10	1	-1E+10	1
4901784	195	C	11/05/2020	10:44	-133.728	43.649	0	345.30	0	6.0520	0	36.5280	8	28.758	0	342.254	0	109.7	4	37.0	4	-1E+10	1	-1E+10	1	-1E+10	1	-1E+10	1	-1E+10	1	-1E+10	1
4901784	195	C	11/05/2020	10:44	-133.728	43.649	0	347.80	0	6.0380	0	36.5240	8	28.757	0	344.730	0	108.0	4	36.4	4	-1E+10	1	-1E+10	1	-1E+10	1	-1E+10	1	-1E+10	1	-1E+10	1
4901784	195	C	11/05/2020	10:44	-133.728	43.649	0	350.20	0	6.0250	0	36.5270	8	28.761	0	347.107	0	106.1	4	35.7	4	-1E+10	1	-1E+10	1	-1E+10	1	-1E+10	1	-1E+10	1	-1E+10	1
4901784	195	C	11/05/2020	10:44	-133.728	43.649	0	352.70	0	5.9960	0	36.5240	8	28.763	0	349.582	0	104.1	4	35.1	4	-1E+10	1	-1E+10	1	-1E+10	1	-1E+10	1	-1E+10	1	-1E+10	1
4901784	195	C	11/05/2020	10:44	-133.728	43.649	0	355.20	0	5.9630	0	36.5190	8	28.763	0	352.058	0	102.6	4	34.5	4	-1E+10	1	-1E+10	1	-1E+10	1	-1E+10	1	-1E+10	1	-1E+10	1
4901784	195	C	11/05/2020	10:44	-133.728	43.649	0	357.70	0	5.9200	0	36.5230	8	28.772	0	354.534	0	101.0	4	34.0	4	-1E+10	1	-1E+10	1	-1E+10	1	-1E+10	1	-1E+10	1	-1E+10	1
4901784	195	C	11/05/2020	10:44	-133.728	43.649	0	360.20	0	5.8990	0	36.5190	8	28.771	0	357.010	0	99.5	4	33.4	4	-1E+10	1	-1E+10	1	-1E+10	1	-1E+10	1	-1E+10	1	-1E+10	1
4901784	195	C	11/05/2020	10:44	-133.728	43.649	0	362.80	0	5.8750	0	36.5190	8	28.775	0	359.584	0	97.7	4	32.8	4	-1E+10	1	-1E+10	1	-1E+10	1	-1E+10	1	-1E+10	1	-1E+10	1
4901784	195	C	11/05/2020	10:44	-133.728	43.649	0	365.30	0	5.8500	0	36.5180	8	28.777	0	362.060	0	96.1	4	32.3	4	-1E+10	1	-1E+10	1	-1E+10	1	-1E+10	1	-1E+10	1	-1E+10	1
4901784	195	C	11/05/2020	10:44	-133.728	43.649	0	367.90	0	5.8090	0	36.5220	8	28.786	0	364.635	0	95.0	4	31.8	4	-1E+10	1	-1E+10	1	-1E+10	1	-1E+10	1	-1E+10	1	-1E+10	1
4901784	195	C	11/05/2020	10:44	-133.728	43.649	0	370.50	0	5.7720	0	36.5220	8	28.790	0	367.209	0	93.9	4	31.5	4	-1E+10	1	-1E+10	1	-1E+10	1	-1E+10	1	-1E+10	1	-1E+10	1
4901784	195	C	11/05/2020	10:44	-133.728	43.649	0	372.30	0	5.7550	0	36.5230	8	28.793	0	368.992	0	93.3	4	31.3	4	-1E+10	1	-1E+10	1	-1E+10	1	-1E+10	1	-1E+10	1	-1E+10	1
4901784	195	C	11/05/2020	10:44	-133.728	43.649	0	374.90	0	5.7300	0	36.5220	8	28.796	0	371.566	0	92.6	4	31.0	4	-1E+10	1	-1E+10	1	-1E+10	1	-1E+10	1	-1E+10	1	-1E+10	1
4901784	195	C	11/05/2020	10:44	-133.728	43.649	0	377.50	0	5.6940	0	36.5240	8	28.802	0	374.141	0	92.0	4	30.8	4	-1E+10	1	-1E+10	1	-1E+10	1	-1E+10	1	-1E+10	1	-1E+10	1
4901784	195	C	11/05/2020	10:44	-133.728	43.649	0	380.10	0	5.6650	0	36.5300	8	28.811	0	376.715	0	91.3	4	30.5	4	-1E+10	1	-1E+10	1	-1E+10	1	-1E+10	1	-1E+10	1	-1E+10	1
4901784	195	C	11/05/2020	10:44	-133.728	43.649	0	382.70	0	5.6510	0	36.5310	8	28.813	0	379.290	0	90.5	4	30.2	4	-1E+10	1	-1E+10	1	-1E+10	1	-1E+10	1	-1E+10	1	-1E+10	1
4901784	195	C	11/05/2020	10:44	-133.728	43.649	0	385.30	0	5.6300	0	36.5310	8	28.816	0	381.864	0	89.9	4	30.0	4	-1E+10	1	-1E+10	1	-1E+10	1	-1E+10	1	-1E+10	1	-1E+10	1
4901784	195	C	11/05/2020	10:44	-133.728	43.649	0	387.90	0	5.6020	0	36.5350	8	28.823	0	384.439	0	89.3	4	29.8	4	-1E+10	1	-1E+10	1	-1E+10	1	-1E+10	1	-1E+10	1	-1E+10	1
4901784	195	C	11/05/2020	10:44	-133.728	43.649	0	389.60	0	5.5930	0	36.5310	8	28.821	0	386.122	0	88.7	4	29.6	4	-1E+10	1	-1E+10	1	-1E+10	1	-1E+10	1	-1E+10	1	-1E+10	1
4901784	195	C	11/05/2020	10:44	-133.728	43.649	0	392.30	0	5.5740	0	36.5310	8	28.823	0	388.795	0	88.0	4	29.3	4	-1E+10	1	-1E+10	1	-1E+10	1	-1E+10	1	-1E+10	1	-1E+10	1
4901784	195	C	11/05/2020	10:44	-133.728	43.649	0	394.90	0	5.5480	0	36.5330	8	28.828	0	391.369	0	87.4	4	29.1	4	-1E+10	1	-1E+10	1	-1E+10	1	-1E+10	1	-1E+10	1	-1E+10	1
4901784	195	C	11/05/2020	10:44	-133.728	43.649	0	397.50	0	5.5220	0	36.5300	8	28.829	0	393.944	0	87.0	4	29.0	4	-1E+10	1	-1E+10	1	-1E+10	1	-1E+10	1	-1E+10	1	-1E+10	1
4901784	195	C	11/05/2020	10:44	-133.728	43.649	0	400.10	0	5.5000	0	36.5280	8	28.830	0	396.518	0	86.4	4	28.8	4	-1E+10	1	-1E+10	1	-1E+10	1	-1E+10	1	-1E+10	1	-1E+10	1
4901784	195	C	11/05/2020	10:44	-133.728	43.649	0	402.70	0	5.4760	0	36.5310	8	28.836	0	399.092	0	85.7	4	28.5	4	-1E+10	1	-1E+10	1	-1E+10	1	-1E+10	1	-1E+10	1	-1E+10	1
4901784	195	C	11/05/2020	10:44	-133.728	43.649	0	405.30	0	5.4310	0	36.5340	8	28.844	0	401.666	0	85.1	4	28.3	4	-1E+10	1	-1E+10	1	-1E+10	1	-1E+10	1	-1E+10	1	-1E+10	1
4901784	195	C	11/05/2020	10:44	-133.728	43.649	0	407.90	0	5.4170	0	36.5300	8	28.842	0	404.241	0	84.5	4	28.1	4	-1E+10	1	-1E+10	1	-1E+10	1	-1E+10	1	-1E+10	1	-1E+10	1
4901784	195	C	11/05/2020	10:44	-133.728	43.649	0	410.40	0	5.4010	0	36.5290	8	28.843	0	406.716	0	83.8	4	27.8	4	-1E+10	1	-1E+10	1	-1E+10	1	-1E+10	1	-1E+10	1	-1E+10	1
4901784	195	C	11/05/2020	10:44	-133.728	43.649	0	412.10	0	5.3840	0	36.5300	8	28.846	0	408.399	0	83.3	4	27.6	4	-1E+10	1	-1E+10	1	-1E+10	1	-1E+10	1	-1E+10	1	-1E+10	1
4901784	195	C	11/05/2020	10:44	-133.728	43.649	0	414.60	0	5.3630	0	36.5280	8	28.847	0	410.874	0	82.0	4	27.2	4	-1E+10	1	-1E+10	1	-1E+10	1	-1E+10	1	-1E+10	1	-1E+10	1
4901784	195	C	11/05/2020	10:44	-133.728	43.649	0	417.20	0	5.3340	0	36.5280	8	28.851	0	413.448	0	80.8	4	26.8	4	-1E+10	1	-1E+10	1	-1E+10	1	-1E+10	1	-1E+10	1	-1E+10	1
4901784	195	C	11/05/2020	10:44	-133.728	43.649	0	419.70	0	5.2970	0	36.5310	8	28.858	0	415.923	0	79.7	4	26.4	4	-1E+10	1	-1E+10	1	-1E+10	1	-1E+10	1	-1E+10	1	-1E+10	1
4901784	195	C	11/05/2020	10:44	-133.728	43.649	0	422.30	0	5.2710	0	36.5320	8	28.862	0	418.497	0	79.0	4	26.2	4	-1E+10	1	-1E+10	1	-1E+10	1	-1E+10	1	-1E+10	1	-1E+10	1
4901784	195	C	11/05/2020	10:44	-133.728	43.649	0	424.90	0	5.2450	0	36.5320	8	28.865	0	421.071	0	78.2	4	25.9	4	-1E+10	1	-1E+10	1	-1E+10	1	-1E+10	1	-1E+10	1	-1E+10	1
4901784	195	C	11/05/2020	10:44	-133.728	43.649	0	427.50	0	5.2150	0	36.5330	8	28.870	0	423.645	0	77.2	4	25.5	4	-1E+10	1	-1E+10	1	-1E+10	1	-1E+10	1	-1E+10	1	-1E+10	1
4901784	195	C	11/05/2020	10:44	-133.728	43.649	0	430.10	0	5.1840	0	36.5340	8	28.874	0	426.219	0	76.2	4	25.2	4	-1E+10	1	-1E+10	1	-1E+10	1	-1E+10	1	-1E+10	1	-1E+10	1
4901784	195	C	11/05/2020	10:44	-133.728	43.649	0	432.80	0	5.1560	0	36.5360	8	28.879	0	428.891	0	75.2	4	24.8	4	-1E+10	1	-1E+10	1	-1E+10	1	-1E+10	1	-1E+10	1	-1E+10	1
4901784	195	C	11/05/2020	10:44	-133.728	43.649	0	434.50	0	5.1300	0	36.5380	8	28.884	0	430.574	0	74.5	4	24.6	4	-1E+10	1	-1E+10	1	-1E+10	1	-1E+10	1	-1E+10	1	-1E+10	1
4901784	195	C	11/05/2020	10:44	-133.728	43.649	0	437.10	0	5.0990	0	36.5400	8	28.890	0	433.148	0	73.7	4	24.3	4	-1E+10	1	-1E+10	1	-1E+10	1	-1E+10	1	-1E+10	1	-1E+10	1
4901784	195	C	11/05/2020	10:44	-133.728	43.649	0	439.70	0	5.0690	0	36.5420	8	28.895	0	435.722	0	73.0	4	24.1	4	-1E+10	1	-1E+10	1	-1E+10	1	-1E+10	1	-1E+10	1	-1E+10	1
4901784	195	C	11/05/2020	10:44	-133.728	43.649	0	442.40	0	5.0410	0	36.5430	8	28.899	0	438.395	0	72.2	4	23.8	4	-1E+10	1	-1E+10	1	-1E+10	1	-1E+10	1	-1E+10	1	-1E+10	1
4901784	195	C	11/05/2020	10:44	-133.728	43.649	0	445.00	0	5.0180	0	36.5470	8	28.905	0	440.968	0	71.4	4	23.5	4	-1E+10	1	-1E+10	1	-1E+10	1	-1E+10	1	-1E+10	1	-1E+10	1
4901784	195	C	11/05/2020	10:44	-133.728	43.649	0	447.60	0	4.9920	0	36.5480	8	28.909	0	443.542	0	70.7	4	23.3	4	-1E+10	1	-1E+10	1	-1E+10	1	-1E+10	1	-1E+10	1	-1E+10	1
4901784	195	C	11/05/2020	10:44	-133.728	43.649	0	450.30	0	4.9800	0	36.5490	8	28.911	0	446.215	0	70.1	4	23.0	4	-1E+10	1	-1E+10	1	-1E+10	1	-1E+10	1	-1E+10	1	-1E+10	1
4901784	195	C	11/05/2020	10:44	-133.728	43.649	0	452.00	0	4.9630	0	36.5500	8	28.914	0	447.897	0	69.6	4	22.9	4	-1E+10	1	-1E+10	1	-1E+10	1	-1E+10	1	-1E+10	1	-1E+10	1
4901784	195	C	11/05/2020	10:44	-133.728	43.649	0	454.70	0	4.9460	0	36.5530	8	28.918	0	450.570	0	68.8	4	22.6	4	-1E+10	1	-1E+10	1	-1E+10	1	-1E+10	1	-1E+10	1	-1E+10	1
4901784	195	C	11/05/2020	10:44	-133.728	43.649	0	457.40	0	4.9270	0	36.5550	8	28.922	0	453.242	0	68.1	4	22.4	4	-1E+10	1	-1E+10	1	-1E+10	1	-1E+10	1	-1E+10	1	-1E+10	1
4901784	195	C	11/05/2020	10:44	-133.728	43.649	0	460.10	0	4.9150	0	36.5550	8	28.924	0	455.915	0	67.3	4	22.1	4	-1E+10	1	-1E+10	1	-1E+10	1	-1E+10	1	-1E+10	1	-1E+10	1
4901784	195	C	11/05/2020	10:44	-133.728	43.649	0	462.80	0	4.8870	0	36.5600	8	28.931	0	458.587	0	66.5	4	21.8	4	-1E+10	1	-1E+10	1	-1E+10	1	-1E+10	1	-1E+10	1	-1E+10	1
4901784	195	C	11/05/2020	10:44	-133.728	43.649	0	464.60	0	4.8870	0	36.5600	8	28.931	0	460.369	0	66.1	4	21.7	4	-1E+10	1	-1E+10	1	-1E+10	1	-1E+10	1	-1E+10	1	-1E+10	1
4901784	195	C	11/05/2020	10:44	-133.728	43.649	0	467.20	0	4.8790	0	36.5610	8	28.933	0	462.942	0	65.3	4	21.4	4	-1E+10	1	-1E+10	1	-1E+10	1	-1E+10	1	-1E+10	1	-1E+10	1
4901784	195	C	11/05/2020	10:44	-133.728	43.649	0	469.90	0	4.8580	0	36.5650	8	28.939	0	465.615	0	64.3	4	21.1	4	-1E+10	1	-1E+10	1	-1E+10	1	-1E+10	1	-1E+10	1	-1E+10	1
4901784	195	C	11/05/2020	10:44	-133.728	43.649	0	472.60	0	4.8480	0	36.5660	8	28.941	0	468.287	0	63.4	4	20.8	4	-1E+10	1	-1E+10	1	-1E+10	1	-1E+10	1	-1E+10	1	-1E+10	1
4901784	195	C	11/05/2020	10:44	-133.728	43.649	0	475.30	0	4.8340	0	36.5680	8	28.944	0	470.959	0	62.5	4	20.5	4	-1E+10	1	-1E+10	1	-1E+10	1	-1E+10	1	-1E+10	1	-1E+10	1
4901784	195	C	11/05/2020	10:44	-133.728	43.649	0	477.00	0	4.8210	0	36.5710	8	28.948	0	472.642	0	61.9	4	20.3	4	-1E+10	1	-1E+10	1	-1E+10	1	-1E+10	1	-1E+10	1	-1E+10	1
4901784	195	C	11/05/2020	10:44	-133.728	43.649	0	479.70	0	4.8070	0	36.5740	8	28.952	0	475.314	0	61.1	4	20.0	4	-1E+10	1	-1E+10	1	-1E+10	1	-1E+10	1	-1E+10	1	-1E+10	1
4901784	195	C	11/05/2020	10:44	-133.728	43.649	0	482.40	0	4.7990	0	36.5760	8	28.954	0	477.986	0	60.3	4	19.7	4	-1E+10	1	-1E+10	1	-1E+10	1	-1E+10	1	-1E+10	1	-1E+10	1
4901784	195	C	11/05/2020	10:44	-133.728	43.649	0	485.20	0	4.7850	0	36.5790	8	28.958	0	480.758	0	59.3	4	19.4	4	-1E+10	1	-1E+10	1	-1E+10	1	-1E+10	1	-1E+10	1	-1E+10	1
4901784	195	C	11/05/2020	10:44	-133.728	43.649	0	487.90	0	4.7720	0	36.5810	8	28.962	0	483.430	0	58.4	4	19.1	4	-1E+10	1	-1E+10	1	-1E+10	1	-1E+10	1	-1E+10	1	-1E+10	1
4901784	195	C	11/05/2020	10:44	-133.728	43.649	0	489.80	0	4.7600	0	36.5840	8	28.965	0	485.310	0	57.8	4	18.9	4	-1E+10	1	-1E+10	1	-1E+10	1	-1E+10	1	-1E+10	1	-1E+10	1
4901784	195	C	11/05/2020	10:44	-133.728	43.649	0	492.50	0	4.7500	0	36.5870	8	28.969	0	487.982	0	56.9	4	18.6	4	-1E+10	1	-1E+10	1	-1E+10	1	-1E+10	1	-1E+10	1	-1E+10	1
4901784	195	C	11/05/2020	10:44	-133.728	43.649	0	495.30	0	4.7380	0	36.5910	8	28.974	0	490.753	0	56.0	4	18.3	4	-1E+10	1	-1E+10	1	-1E+10	1	-1E+10	1	-1E+10	1	-1E+10	1
4901784	195	C	11/05/2020	10:44	-133.728	43.649	0	497.10	0	4.7300	0	36.5930	8	28.976	0	492.535	0	55.4	4	18.1	4	-1E+10	1	-1E+10	1	-1E+10	1	-1E+10	1	-1E+10	1	-1E+10	1
4901784	195	C	11/05/2020	10:44	-133.728	43.649	0	499.80	0	4.7170	0	36.5970	8	28.981	0	495.207	0	54.6	4	17.8	4	-1E+10	1	-1E+10	1	-1E+10	1	-1E+10	1	-1E+10	1	-1E+10	1
4901784	195	C	11/05/2020	10:44	-133.728	43.649	0	504.40	0	4.7110	0	36.6030	8	28.986	0	499.759	0	53.2	4	17.4	4	-1E+10	1	-1E+10	1	-1E+10	1	-1E+10	1	-1E+10	1	-1E+10	1
4901784	195	C	11/05/2020	10:44	-133.728	43.649	0	509.90	0	4.7140	0	36.6080	8	28.990	0	505.201	0	51.0	4	16.7	4	-1E+10	1	-1E+10	1	-1E+10	1	-1E+10	1	-1E+10	1	-1E+10	1
4901784	195	C	11/05/2020	10:44	-133.728	43.649	0	515.40	0	4.7280	0	36.6210	8	28.999	0	510.644	0	48.3	4	15.8	4	-1E+10	1	-1E+10	1	-1E+10	1	-1E+10	1	-1E+10	1	-1E+10	1
4901784	195	C	11/05/2020	10:44	-133.728	43.649	0	520.00	0	4.7070	0	36.6280	8	29.007	0	515.196	0	46.5	4	15.2	4	-1E+10	1	-1E+10	1	-1E+10	1	-1E+10	1	-1E+10	1	-1E+10	1
4901784	195	C	11/05/2020	10:44	-133.728	43.649	0	524.70	0	4.6920	0	36.6360	8	29.015	0	519.847	0	44.7	4	14.6	4	-1E+10	1	-1E+10	1	-1E+10	1	-1E+10	1	-1E+10	1	-1E+10	1
4901784	195	C	11/05/2020	10:44	-133.728	43.649	0	530.40	0	4.6860	0	36.6440	8	29.022	0	525.487	0	43.2	4	14.1	4	-1E+10	1	-1E+10	1	-1E+10	1	-1E+10	1	-1E+10	1	-1E+10	1
4901784	195	C	11/05/2020	10:44	-133.728	43.649	0	535.10	0	4.6440	0	36.6480	8	29.030	0	530.137	0	42.3	4	13.8	4	-1E+10	1	-1E+10	1	-1E+10	1	-1E+10	1	-1E+10	1	-1E+10	1
4901784	195	C	11/05/2020	10:44	-133.728	43.649	0	539.80	0	4.6340	0	36.6540	8	29.036	0	534.787	0	40.6	4	13.3	4	-1E+10	1	-1E+10	1	-1E+10	1	-1E+10	1	-1E+10	1	-1E+10	1
4901784	195	C	11/05/2020	10:44	-133.728	43.649	0	545.50	0	4.6790	0	36.6640	8	29.039	0	540.427	0	38.4	4	12.5	4	-1E+10	1	-1E+10	1	-1E+10	1	-1E+10	1	-1E+10	1	-1E+10	1
4901784	195	C	11/05/2020	10:44	-133.728	43.649	0	550.50	0	4.6490	0	36.6660	8	29.044	0	545.374	0	37.2	4	12.1	4	-1E+10	1	-1E+10	1	-1E+10	1	-1E+10	1	-1E+10	1	-1E+10	1
4901784	195	C	11/05/2020	10:44	-133.728	43.649	0	555.00	0	4.6340	0	36.6750	8	29.053	0	549.826	0	35.3	4	11.5	4	-1E+10	1	-1E+10	1	-1E+10	1	-1E+10	1	-1E+10	1	-1E+10	1
4901784	195	C	11/05/2020	10:44	-133.728	43.649	0	559.90	0	4.6270	0	36.6890	8	29.065	0	554.674	0	32.9	4	10.7	4	-1E+10	1	-1E+10	1	-1E+10	1	-1E+10	1	-1E+10	1	-1E+10	1
4901784	195	C	11/05/2020	10:44	-133.728	43.649	0	564.70	0	4.6620	0	36.6990	8	29.069	0	559.423	0	31.5	4	10.3	4	-1E+10	1	-1E+10	1	-1E+10	1	-1E+10	1	-1E+10	1	-1E+10	1
4901784	195	C	11/05/2020	10:44	-133.728	43.649	0	569.60	0	4.6140	0	36.7020	8	29.077	0	564.270	0	30.5	4	9.9	4	-1E+10	1	-1E+10	1	-1E+10	1	-1E+10	1	-1E+10	1	-1E+10	1
4901784	195	C	11/05/2020	10:44	-133.728	43.649	0	574.50	0	4.6210	0	36.7100	8	29.083	0	569.118	0	28.7	4	9.4	4	-1E+10	1	-1E+10	1	-1E+10	1	-1E+10	1	-1E+10	1	-1E+10	1
4901784	195	C	11/05/2020	10:44	-133.728	43.649	0	579.40	0	4.6360	0	36.7200	8	29.089	0	573.965	0	26.3	4	8.6	4	-1E+10	1	-1E+10	1	-1E+10	1	-1E+10	1	-1E+10	1	-1E+10	1
4901784	195	C	11/05/2020	10:44	-133.728	43.649	0	584.30	0	4.6490	0	36.7330	8	29.098	0	578.812	0	24.5	4	8.0	4	-1E+10	1	-1E+10	1	-1E+10	1	-1E+10	1	-1E+10	1	-1E+10	1
4901784	195	C	11/05/2020	10:44	-133.728	43.649	0	590.00	0	4.6540	0	36.7440	8	29.106	0	584.451	0	23.0	4	7.5	4	-1E+10	1	-1E+10	1	-1E+10	1	-1E+10	1	-1E+10	1	-1E+10	1
4901784	195	C	11/05/2020	10:44	-133.728	43.649	0	595.00	0	4.6430	0	36.7520	8	29.114	0	589.397	0	22.2	4	7.2	4	-1E+10	1	-1E+10	1	-1E+10	1	-1E+10	1	-1E+10	1	-1E+10	1
4901784	195	C	11/05/2020	10:44	-133.728	43.649	0	599.20	0	4.6260	0	36.7540	8	29.117	0	593.551	0	21.7	4	7.1	4	-1E+10	1	-1E+10	1	-1E+10	1	-1E+10	1	-1E+10	1	-1E+10	1
4901784	195	C	11/05/2020	10:44	-133.728	43.649	0	604.20	0	4.6030	0	36.7600	8	29.125	0	598.497	0	21.1	4	6.9	4	-1E+10	1	-1E+10	1	-1E+10	1	-1E+10	1	-1E+10	1	-1E+10	1
4901784	195	C	11/05/2020	10:44	-133.728	43.649	0	609.20	0	4.5880	0	36.7650	8	29.130	0	603.442	0	20.7	4	6.8	4	-1E+10	1	-1E+10	1	-1E+10	1	-1E+10	1	-1E+10	1	-1E+10	1
4901784	195	C	11/05/2020	10:44	-133.728	43.649	0	614.20	0	4.5780	0	36.7670	8	29.133	0	608.388	0	20.3	4	6.6	4	-1E+10	1	-1E+10	1	-1E+10	1	-1E+10	1	-1E+10	1	-1E+10	1
4901784	195	C	11/05/2020	10:44	-133.728	43.649	0	619.20	0	4.5640	0	36.7710	8	29.138	0	613.333	0	19.8	4	6.5	4	-1E+10	1	-1E+10	1	-1E+10	1	-1E+10	1	-1E+10	1	-1E+10	1
4901784	195	C	11/05/2020	10:44	-133.728	43.649	0	624.40	0	4.5420	0	36.7750	8	29.144	0	618.476	0	19.3	4	6.3	4	-1E+10	1	-1E+10	1	-1E+10	1	-1E+10	1	-1E+10	1	-1E+10	1
4901784	195	C	11/05/2020	10:44	-133.728	43.649	0	629.50	0	4.5200	0	36.7810	8	29.151	0	623.520	0	18.8	4	6.1	4	-1E+10	1	-1E+10	1	-1E+10	1	-1E+10	1	-1E+10	1	-1E+10	1
4901784	195	C	11/05/2020	10:44	-133.728	43.649	0	634.70	0	4.5090	0	36.7860	8	29.156	0	628.663	0	18.2	4	5.9	4	-1E+10	1	-1E+10	1	-1E+10	1	-1E+10	1	-1E+10	1	-1E+10	1
4901784	195	C	11/05/2020	10:44	-133.728	43.649	0	639.90	0	4.4910	0	36.7920	8	29.163	0	633.806	0	17.7	4	5.8	4	-1E+10	1	-1E+10	1	-1E+10	1	-1E+10	1	-1E+10	1	-1E+10	1
4901784	195	C	11/05/2020	10:44	-133.728	43.649	0	645.10	0	4.4770	0	36.7960	8	29.168	0	638.948	0	17.2	4	5.6	4	-1E+10	1	-1E+10	1	-1E+10	1	-1E+10	1	-1E+10	1	-1E+10	1
4901784	195	C	11/05/2020	10:44	-133.728	43.649	0	650.40	0	4.4560	0	36.8020	8	29.175	0	644.189	0	16.8	4	5.5	4	-1E+10	1	-1E+10	1	-1E+10	1	-1E+10	1	-1E+10	1	-1E+10	1
4901784	195	C	11/05/2020	10:44	-133.728	43.649	0	655.70	0	4.4420	0	36.8050	8	29.179	0	649.431	0	16.4	4	5.3	4	-1E+10	1	-1E+10	1	-1E+10	1	-1E+10	1	-1E+10	1	-1E+10	1
4901784	195	C	11/05/2020	10:44	-133.728	43.649	0	660.20	0	4.4290	0	36.8110	8	29.186	0	653.880	0	15.9	4	5.2	4	-1E+10	1	-1E+10	1	-1E+10	1	-1E+10	1	-1E+10	1	-1E+10	1
4901784	195	C	11/05/2020	10:44	-133.728	43.649	0	664.60	0	4.4180	0	36.8160	8	29.191	0	658.231	0	15.7	4	5.1	4	-1E+10	1	-1E+10	1	-1E+10	1	-1E+10	1	-1E+10	1	-1E+10	1
4901784	195	C	11/05/2020	10:44	-133.728	43.649	0	670.10	0	4.4010	0	36.8190	8	29.195	0	663.670	0	15.5	4	5.0	4	-1E+10	1	-1E+10	1	-1E+10	1	-1E+10	1	-1E+10	1	-1E+10	1
4901784	195	C	11/05/2020	10:44	-133.728	43.649	0	675.50	0	4.3780	0	36.8220	8	29.200	0	669.009	0	15.2	4	5.0	4	-1E+10	1	-1E+10	1	-1E+10	1	-1E+10	1	-1E+10	1	-1E+10	1
4901784	195	C	11/05/2020	10:44	-133.728	43.649	0	680.00	0	4.3680	0	36.8250	8	29.204	0	673.459	0	15.0	4	4.9	4	-1E+10	1	-1E+10	1	-1E+10	1	-1E+10	1	-1E+10	1	-1E+10	1
4901784	195	C	11/05/2020	10:44	-133.728	43.649	0	684.60	0	4.3250	0	36.8290	8	29.212	0	678.007	0	14.9	4	4.8	4	-1E+10	1	-1E+10	1	-1E+10	1	-1E+10	1	-1E+10	1	-1E+10	1
4901784	195	C	11/05/2020	10:44	-133.728	43.649	0	690.00	0	4.3010	0	36.8330	8	29.218	0	683.346	0	14.6	4	4.7	4	-1E+10	1	-1E+10	1	-1E+10	1	-1E+10	1	-1E+10	1	-1E+10	1
4901784	195	C	11/05/2020	10:44	-133.728	43.649	0	694.90	0	4.2830	0	36.8370	8	29.223	0	688.191	0	14.4	4	4.7	4	-1E+10	1	-1E+10	1	-1E+10	1	-1E+10	1	-1E+10	1	-1E+10	1
4901784	195	C	11/05/2020	10:44	-133.728	43.649	0	700.00	0	4.2710	0	36.8430	8	29.229	0	693.233	0	13.9	4	4.5	4	-1E+10	1	-1E+10	1	-1E+10	1	-1E+10	1	-1E+10	1	-1E+10	1
4901784	195	C	11/05/2020	10:44	-133.728	43.649	0	705.50	0	4.2740	0	36.8490	8	29.234	0	698.671	0	13.6	4	4.4	4	-1E+10	1	-1E+10	1	-1E+10	1	-1E+10	1	-1E+10	1	-1E+10	1
4901784	195	C	11/05/2020	10:44	-133.728	43.649	0	710.40	0	4.2670	0	36.8510	8	29.236	0	703.515	0	13.5	4	4.4	4	-1E+10	1	-1E+10	1	-1E+10	1	-1E+10	1	-1E+10	1	-1E+10	1
4901784	195	C	11/05/2020	10:44	-133.728	43.649	0	715.20	0	4.2110	0	36.8530	8	29.244	0	708.261	0	13.5	4	4.4	4	-1E+10	1	-1E+10	1	-1E+10	1	-1E+10	1	-1E+10	1	-1E+10	1
4901784	195	C	11/05/2020	10:44	-133.728	43.649	0	720.20	0	4.1900	0	36.8570	8	29.250	0	713.203	0	13.3	4	4.3	4	-1E+10	1	-1E+10	1	-1E+10	1	-1E+10	1	-1E+10	1	-1E+10	1
4901784	195	C	11/05/2020	10:44	-133.728	43.649	0	725.10	0	4.1760	0	36.8610	8	29.255	0	718.047	0	13.2	4	4.3	4	-1E+10	1	-1E+10	1	-1E+10	1	-1E+10	1	-1E+10	1	-1E+10	1
4901784	195	C	11/05/2020	10:44	-133.728	43.649	0	730.10	0	4.1520	0	36.8630	8	29.259	0	722.990	0	13.1	4	4.2	4	-1E+10	1	-1E+10	1	-1E+10	1	-1E+10	1	-1E+10	1	-1E+10	1
4901784	195	C	11/05/2020	10:44	-133.728	43.649	0	735.20	0	4.1350	0	36.8660	8	29.263	0	728.032	0	12.9	4	4.2	4	-1E+10	1	-1E+10	1	-1E+10	1	-1E+10	1	-1E+10	1	-1E+10	1
4901784	195	C	11/05/2020	10:44	-133.728	43.649	0	740.20	0	4.1240	0	36.8700	8	29.268	0	732.974	0	12.8	4	4.1	4	-1E+10	1	-1E+10	1	-1E+10	1	-1E+10	1	-1E+10	1	-1E+10	1
4901784	195	C	11/05/2020	10:44	-133.728	43.649	0	745.30	0	4.0990	0	36.8730	8	29.273	0	738.015	0	12.7	4	4.1	4	-1E+10	1	-1E+10	1	-1E+10	1	-1E+10	1	-1E+10	1	-1E+10	1
4901784	195	C	11/05/2020	10:44	-133.728	43.649	0	750.50	0	4.0890	0	36.8760	8	29.276	0	743.155	0	12.5	4	4.0	4	-1E+10	1	-1E+10	1	-1E+10	1	-1E+10	1	-1E+10	1	-1E+10	1
4901784	195	C	11/05/2020	10:44	-133.728	43.649	0	755.70	0	4.0720	0	36.8800	8	29.281	0	748.295	0	12.3	4	4.0	4	-1E+10	1	-1E+10	1	-1E+10	1	-1E+10	1	-1E+10	1	-1E+10	1
4901784	195	C	11/05/2020	10:44	-133.728	43.649	0	760.00	0	4.0560	0	36.8830	8	29.286	0	752.545	0	12.2	4	3.9	4	-1E+10	1	-1E+10	1	-1E+10	1	-1E+10	1	-1E+10	1	-1E+10	1
4901784	195	C	11/05/2020	10:44	-133.728	43.649	0	764.40	0	4.0480	0	36.8860	8	29.289	0	756.894	0	12.0	4	3.9	4	-1E+10	1	-1E+10	1	-1E+10	1	-1E+10	1	-1E+10	1	-1E+10	1
4901784	195	C	11/05/2020	10:44	-133.728	43.649	0	769.70	0	4.0490	0	36.8920	8	29.294	0	762.132	0	11.8	4	3.8	4	-1E+10	1	-1E+10	1	-1E+10	1	-1E+10	1	-1E+10	1	-1E+10	1
4901784	195	C	11/05/2020	10:44	-133.728	43.649	0	775.10	0	4.0370	0	36.8980	8	29.300	0	767.469	0	11.7	4	3.8	4	-1E+10	1	-1E+10	1	-1E+10	1	-1E+10	1	-1E+10	1	-1E+10	1
4901784	195	C	11/05/2020	10:44	-133.728	43.649	0	780.50	0	4.0220	0	36.9010	8	29.304	0	772.806	0	11.5	4	3.7	4	-1E+10	1	-1E+10	1	-1E+10	1	-1E+10	1	-1E+10	1	-1E+10	1
4901784	195	C	11/05/2020	10:44	-133.728	43.649	0	785.00	0	4.0290	0	36.9060	8	29.307	0	777.253	0	11.3	4	3.6	4	-1E+10	1	-1E+10	1	-1E+10	1	-1E+10	1	-1E+10	1	-1E+10	1
4901784	195	C	11/05/2020	10:44	-133.728	43.649	0	789.60	0	4.0390	0	36.9120	8	29.311	0	781.799	0	11.2	4	3.6	4	-1E+10	1	-1E+10	1	-1E+10	1	-1E+10	1	-1E+10	1	-1E+10	1
4901784	195	C	11/05/2020	10:44	-133.728	43.649	0	795.00	0	4.0450	0	36.9160	8	29.313	0	787.136	0	11.0	4	3.6	4	-1E+10	1	-1E+10	1	-1E+10	1	-1E+10	1	-1E+10	1	-1E+10	1
4901784	195	C	11/05/2020	10:44	-133.728	43.649	0	800.50	0	4.0410	0	36.9200	8	29.317	0	792.571	0	10.9	4	3.5	4	-1E+10	1	-1E+10	1	-1E+10	1	-1E+10	1	-1E+10	1	-1E+10	1
4901784	195	C	11/05/2020	10:44	-133.728	43.649	0	805.10	0	4.0270	0	36.9220	8	29.320	0	797.117	0	10.9	4	3.5	4	-1E+10	1	-1E+10	1	-1E+10	1	-1E+10	1	-1E+10	1	-1E+10	1
4901784	195	C	11/05/2020	10:44	-133.728	43.649	0	809.60	0	4.0140	0	36.9260	8	29.325	0	801.563	0	10.8	4	3.5	4	-1E+10	1	-1E+10	1	-1E+10	1	-1E+10	1	-1E+10	1	-1E+10	1
4901784	195	C	11/05/2020	10:44	-133.728	43.649	0	814.80	0	3.9940	0	36.9280	8	29.329	0	806.702	0	10.7	4	3.4	4	-1E+10	1	-1E+10	1	-1E+10	1	-1E+10	1	-1E+10	1	-1E+10	1
4901784	195	C	11/05/2020	10:44	-133.728	43.649	0	819.50	0	3.9750	0	36.9320	8	29.334	0	811.346	0	10.6	4	3.4	4	-1E+10	1	-1E+10	1	-1E+10	1	-1E+10	1	-1E+10	1	-1E+10	1
4901784	195	C	11/05/2020	10:44	-133.728	43.649	0	825.00	0	3.9480	0	36.9370	8	29.341	0	816.780	0	10.6	4	3.4	4	-1E+10	1	-1E+10	1	-1E+10	1	-1E+10	1	-1E+10	1	-1E+10	1
4901784	195	C	11/05/2020	10:44	-133.728	43.649	0	830.70	0	3.9340	0	36.9400	8	29.345	0	822.412	0	10.5	4	3.4	4	-1E+10	1	-1E+10	1	-1E+10	1	-1E+10	1	-1E+10	1	-1E+10	1
4901784	195	C	11/05/2020	10:44	-133.728	43.649	0	835.70	0	3.9450	0	36.9470	8	29.349	0	827.353	0	10.3	4	3.3	4	-1E+10	1	-1E+10	1	-1E+10	1	-1E+10	1	-1E+10	1	-1E+10	1
4901784	195	C	11/05/2020	10:44	-133.728	43.649	0	840.60	0	3.9390	0	36.9510	8	29.353	0	832.194	0	10.3	4	3.3	4	-1E+10	1	-1E+10	1	-1E+10	1	-1E+10	1	-1E+10	1	-1E+10	1
4901784	195	C	11/05/2020	10:44	-133.728	43.649	0	845.60	0	3.9240	0	36.9540	8	29.357	0	837.134	0	10.2	4	3.3	4	-1E+10	1	-1E+10	1	-1E+10	1	-1E+10	1	-1E+10	1	-1E+10	1
4901784	195	C	11/05/2020	10:44	-133.728	43.649	0	850.60	0	3.9090	0	36.9580	8	29.362	0	842.074	0	10.2	4	3.3	4	-1E+10	1	-1E+10	1	-1E+10	1	-1E+10	1	-1E+10	1	-1E+10	1
4901784	195	C	11/05/2020	10:44	-133.728	43.649	0	855.60	0	3.8960	0	36.9630	8	29.368	0	847.014	0	10.1	4	3.3	4	-1E+10	1	-1E+10	1	-1E+10	1	-1E+10	1	-1E+10	1	-1E+10	1
4901784	195	C	11/05/2020	10:44	-133.728	43.649	0	860.60	0	3.8840	0	36.9660	8	29.371	0	851.953	0	10.1	4	3.2	4	-1E+10	1	-1E+10	1	-1E+10	1	-1E+10	1	-1E+10	1	-1E+10	1
4901784	195	C	11/05/2020	10:44	-133.728	43.649	0	865.60	0	3.8670	0	36.9700	8	29.376	0	856.893	0	10.1	4	3.2	4	-1E+10	1	-1E+10	1	-1E+10	1	-1E+10	1	-1E+10	1	-1E+10	1
4901784	195	C	11/05/2020	10:44	-133.728	43.649	0	870.60	0	3.8590	0	36.9720	8	29.379	0	861.832	0	10.1	4	3.2	4	-1E+10	1	-1E+10	1	-1E+10	1	-1E+10	1	-1E+10	1	-1E+10	1
4901784	195	C	11/05/2020	10:44	-133.728	43.649	0	875.70	0	3.8400	0	36.9730	8	29.382	0	866.870	0	10.1	4	3.2	4	-1E+10	1	-1E+10	1	-1E+10	1	-1E+10	1	-1E+10	1	-1E+10	1
4901784	195	C	11/05/2020	10:44	-133.728	43.649	0	880.70	0	3.8220	0	36.9780	8	29.388	0	871.809	0	10.0	4	3.2	4	-1E+10	1	-1E+10	1	-1E+10	1	-1E+10	1	-1E+10	1	-1E+10	1
4901784	195	C	11/05/2020	10:44	-133.728	43.649	0	885.00	0	3.8090	0	36.9800	8	29.391	0	876.057	0	10.0	4	3.2	4	-1E+10	1	-1E+10	1	-1E+10	1	-1E+10	1	-1E+10	1	-1E+10	1
4901784	195	C	11/05/2020	10:44	-133.728	43.649	0	889.40	0	3.7980	0	36.9820	8	29.393	0	880.403	0	10.0	4	3.2	4	-1E+10	1	-1E+10	1	-1E+10	1	-1E+10	1	-1E+10	1	-1E+10	1
4901784	195	C	11/05/2020	10:44	-133.728	43.649	0	894.50	0	3.7830	0	36.9860	8	29.398	0	885.441	0	10.0	4	3.2	4	-1E+10	1	-1E+10	1	-1E+10	1	-1E+10	1	-1E+10	1	-1E+10	1
4901784	195	C	11/05/2020	10:44	-133.728	43.649	0	899.70	0	3.7640	0	36.9880	8	29.402	0	890.577	0	10.0	4	3.2	4	-1E+10	1	-1E+10	1	-1E+10	1	-1E+10	1	-1E+10	1	-1E+10	1
4901784	195	C	11/05/2020	10:44	-133.728	43.649	0	904.80	0	3.7560	0	36.9910	8	29.405	0	895.615	0	10.0	4	3.2	4	-1E+10	1	-1E+10	1	-1E+10	1	-1E+10	1	-1E+10	1	-1E+10	1
4901784	195	C	11/05/2020	10:44	-133.728	43.649	0	910.00	0	3.7300	0	36.9930	8	29.410	0	900.751	0	10.0	4	3.2	4	-1E+10	1	-1E+10	1	-1E+10	1	-1E+10	1	-1E+10	1	-1E+10	1
4901784	195	C	11/05/2020	10:44	-133.728	43.649	0	915.20	0	3.7220	0	36.9940	8	29.411	0	905.886	0	10.0	4	3.2	4	-1E+10	1	-1E+10	1	-1E+10	1	-1E+10	1	-1E+10	1	-1E+10	1
4901784	195	C	11/05/2020	10:44	-133.728	43.649	0	920.50	0	3.7100	0	36.9970	8	29.415	0	911.121	0	10.0	4	3.2	4	-1E+10	1	-1E+10	1	-1E+10	1	-1E+10	1	-1E+10	1	-1E+10	1
4901784	195	C	11/05/2020	10:44	-133.728	43.649	0	924.90	0	3.6980	0	36.9990	8	29.418	0	915.467	0	10.0	4	3.2	4	-1E+10	1	-1E+10	1	-1E+10	1	-1E+10	1	-1E+10	1	-1E+10	1
4901784	195	C	11/05/2020	10:44	-133.728	43.649	0	929.30	0	3.6880	0	37.0040	8	29.423	0	919.812	0	10.0	4	3.2	4	-1E+10	1	-1E+10	1	-1E+10	1	-1E+10	1	-1E+10	1	-1E+10	1
4901784	195	C	11/05/2020	10:44	-133.728	43.649	0	934.50	0	3.6810	0	37.0060	8	29.425	0	924.947	0	10.0	4	3.2	4	-1E+10	1	-1E+10	1	-1E+10	1	-1E+10	1	-1E+10	1	-1E+10	1
4901784	195	C	11/05/2020	10:44	-133.728	43.649	0	939.80	0	3.6700	0	37.0080	8	29.428	0	930.181	0	10.0	4	3.2	4	-1E+10	1	-1E+10	1	-1E+10	1	-1E+10	1	-1E+10	1	-1E+10	1
4901784	195	C	11/05/2020	10:44	-133.728	43.649	0	945.10	0	3.6560	0	37.0100	8	29.431	0	935.415	0	10.0	4	3.2	4	-1E+10	1	-1E+10	1	-1E+10	1	-1E+10	1	-1E+10	1	-1E+10	1
4901784	195	C	11/05/2020	10:44	-133.728	43.649	0	950.30	0	3.6470	0	37.0130	8	29.435	0	940.550	0	10.1	4	3.2	4	-1E+10	1	-1E+10	1	-1E+10	1	-1E+10	1	-1E+10	1	-1E+10	1
4901784	195	C	11/05/2020	10:44	-133.728	43.649	0	955.60	0	3.6320	0	37.0160	8	29.439	0	945.784	0	10.1	4	3.2	4	-1E+10	1	-1E+10	1	-1E+10	1	-1E+10	1	-1E+10	1	-1E+10	1
4901784	195	C	11/05/2020	10:44	-133.728	43.649	0	960.10	0	3.6160	0	37.0180	8	29.442	0	950.228	0	10.1	4	3.2	4	-1E+10	1	-1E+10	1	-1E+10	1	-1E+10	1	-1E+10	1	-1E+10	1
4901784	195	C	11/05/2020	10:44	-133.728	43.649	0	964.60	0	3.6010	0	37.0180	8	29.444	0	954.671	0	10.1	4	3.2	4	-1E+10	1	-1E+10	1	-1E+10	1	-1E+10	1	-1E+10	1	-1E+10	1
4901784	195	C	11/05/2020	10:44	-133.728	43.649	0	970.00	0	3.5860	0	37.0200	8	29.447	0	960.003	0	10.1	4	3.2	4	-1E+10	1	-1E+10	1	-1E+10	1	-1E+10	1	-1E+10	1	-1E+10	1
4901784	195	C	11/05/2020	10:44	-133.728	43.649	0	975.30	0	3.5730	0	37.0250	8	29.452	0	965.236	0	10.2	4	3.3	4	-1E+10	1	-1E+10	1	-1E+10	1	-1E+10	1	-1E+10	1	-1E+10	1
4901784	195	C	11/05/2020	10:44	-133.728	43.649	0	980.70	0	3.5750	0	37.0280	8	29.454	0	970.568	0	10.2	4	3.3	4	-1E+10	1	-1E+10	1	-1E+10	1	-1E+10	1	-1E+10	1	-1E+10	1
4901784	195	C	11/05/2020	10:44	-133.728	43.649	0	985.10	0	3.5520	0	37.0300	8	29.458	0	974.912	0	10.2	4	3.3	4	-1E+10	1	-1E+10	1	-1E+10	1	-1E+10	1	-1E+10	1	-1E+10	1
4901784	195	C	11/05/2020	10:44	-133.728	43.649	0	989.60	0	3.5410	0	37.0300	8	29.460	0	979.355	0	10.2	4	3.3	4	-1E+10	1	-1E+10	1	-1E+10	1	-1E+10	1	-1E+10	1	-1E+10	1
4901784	195	C	11/05/2020	10:44	-133.728	43.649	0	995.10	0	3.5250	0	37.0330	8	29.464	0	984.786	0	10.2	4	3.3	4	-1E+10	1	-1E+10	1	-1E+10	1	-1E+10	1	-1E+10	1	-1E+10	1
4901784	195	C	11/05/2020	10:44	-133.728	43.649	0	1000.50	0	3.5140	0	37.0360	8	29.467	0	990.117	0	10.3	4	3.3	4	-1E+10	1	-1E+10	1	-1E+10	1	-1E+10	1	-1E+10	1	-1E+10	1
4901784	195	C	11/05/2020	10:44	-133.728	43.649	0	1005.00	0	3.5020	0	37.0380	8	29.470	0	994.559	0	10.4	4	3.3	4	-1E+10	1	-1E+10	1	-1E+10	1	-1E+10	1	-1E+10	1	-1E+10	1
4901784	195	C	11/05/2020	10:44	-133.728	43.649	0	1009.40	0	3.4880	0	37.0430	8	29.476	0	998.903	0	10.5	4	3.3	4	-1E+10	1	-1E+10	1	-1E+10	1	-1E+10	1	-1E+10	1	-1E+10	1
4901784	195	C	11/05/2020	10:44	-133.728	43.649	0	1014.80	0	3.4900	0	37.0460	8	29.478	0	1004.234	0	10.5	4	3.4	4	-1E+10	1	-1E+10	1	-1E+10	1	-1E+10	1	-1E+10	1	-1E+10	1
4901784	195	C	11/05/2020	10:44	-133.728	43.649	0	1020.20	0	3.4800	0	37.0480	8	29.481	0	1009.565	0	10.6	4	3.4	4	-1E+10	1	-1E+10	1	-1E+10	1	-1E+10	1	-1E+10	1	-1E+10	1
4901784	195	C	11/05/2020	10:44	-133.728	43.649	0	1025.60	0	3.4720	0	37.0510	8	29.484	0	1014.896	0	10.7	4	3.4	4	-1E+10	1	-1E+10	1	-1E+10	1	-1E+10	1	-1E+10	1	-1E+10	1
4901784	195	C	11/05/2020	10:44	-133.728	43.649	0	1030.10	0	3.4650	0	37.0530	8	29.486	0	1019.338	0	10.7	4	3.4	4	-1E+10	1	-1E+10	1	-1E+10	1	-1E+10	1	-1E+10	1	-1E+10	1
4901784	195	C	11/05/2020	10:44	-133.728	43.649	0	1034.60	0	3.4600	0	37.0540	8	29.487	0	1023.780	0	10.7	4	3.4	4	-1E+10	1	-1E+10	1	-1E+10	1	-1E+10	1	-1E+10	1	-1E+10	1
4901784	195	C	11/05/2020	10:44	-133.728	43.649	0	1040.10	0	3.4560	0	37.0550	8	29.489	0	1029.209	0	10.8	4	3.4	4	-1E+10	1	-1E+10	1	-1E+10	1	-1E+10	1	-1E+10	1	-1E+10	1
4901784	195	C	11/05/2020	10:44	-133.728	43.649	0	1044.80	0	3.4410	0	37.0570	8	29.492	0	1033.848	0	10.9	4	3.5	4	-1E+10	1	-1E+10	1	-1E+10	1	-1E+10	1	-1E+10	1	-1E+10	1
4901784	195	C	11/05/2020	10:44	-133.728	43.649	0	1049.50	0	3.4350	0	37.0590	8	29.494	0	1038.487	0	10.9	4	3.5	4	-1E+10	1	-1E+10	1	-1E+10	1	-1E+10	1	-1E+10	1	-1E+10	1
4901784	195	C	11/05/2020	10:44	-133.728	43.649	0	1055.10	0	3.4180	0	37.0620	8	29.498	0	1044.014	0	11.0	4	3.5	4	-1E+10	1	-1E+10	1	-1E+10	1	-1E+10	1	-1E+10	1	-1E+10	1
4901784	195	C	11/05/2020	10:44	-133.728	43.649	0	1060.60	0	3.4020	0	37.0650	8	29.502	0	1049.443	0	11.1	4	3.5	4	-1E+10	1	-1E+10	1	-1E+10	1	-1E+10	1	-1E+10	1	-1E+10	1
4901784	195	C	11/05/2020	10:44	-133.728	43.649	0	1065.30	0	3.3930	0	37.0670	8	29.505	0	1054.082	0	11.2	4	3.5	4	-1E+10	1	-1E+10	1	-1E+10	1	-1E+10	1	-1E+10	1	-1E+10	1
4901784	195	C	11/05/2020	10:44	-133.728	43.649	0	1070.00	0	3.3790	0	37.0690	8	29.508	0	1058.720	0	11.2	4	3.6	4	-1E+10	1	-1E+10	1	-1E+10	1	-1E+10	1	-1E+10	1	-1E+10	1
4901784	195	C	11/05/2020	10:44	-133.728	43.649	0	1074.80	0	3.3650	0	37.0720	8	29.512	0	1063.457	0	11.3	4	3.6	4	-1E+10	1	-1E+10	1	-1E+10	1	-1E+10	1	-1E+10	1	-1E+10	1
4901784	195	C	11/05/2020	10:44	-133.728	43.649	0	1080.20	0	3.3530	0	37.0740	8	29.515	0	1068.787	0	11.4	4	3.6	4	-1E+10	1	-1E+10	1	-1E+10	1	-1E+10	1	-1E+10	1	-1E+10	1
4901784	195	C	11/05/2020	10:44	-133.728	43.649	0	1085.30	0	3.3390	0	37.0770	8	29.519	0	1073.820	0	11.4	4	3.6	4	-1E+10	1	-1E+10	1	-1E+10	1	-1E+10	1	-1E+10	1	-1E+10	1
4901784	195	C	11/05/2020	10:44	-133.728	43.649	0	1090.20	0	3.3350	0	37.0770	8	29.519	0	1078.655	0	11.5	4	3.7	4	-1E+10	1	-1E+10	1	-1E+10	1	-1E+10	1	-1E+10	1	-1E+10	1
4901784	195	C	11/05/2020	10:44	-133.728	43.649	0	1095.10	0	3.3240	0	37.0800	8	29.523	0	1083.491	0	11.7	4	3.7	4	-1E+10	1	-1E+10	1	-1E+10	1	-1E+10	1	-1E+10	1	-1E+10	1
4901784	195	C	11/05/2020	10:44	-133.728	43.649	0	1100.10	0	3.3140	0	37.0840	8	29.527	0	1088.425	0	11.8	4	3.8	4	-1E+10	1	-1E+10	1	-1E+10	1	-1E+10	1	-1E+10	1	-1E+10	1
4901784	195	C	11/05/2020	10:44	-133.728	43.649	0	1105.10	0	3.3020	0	37.0860	8	29.530	0	1093.359	0	11.9	4	3.8	4	-1E+10	1	-1E+10	1	-1E+10	1	-1E+10	1	-1E+10	1	-1E+10	1
4901784	195	C	11/05/2020	10:44	-133.728	43.649	0	1110.10	0	3.2920	0	37.0880	8	29.532	0	1098.293	0	12.0	4	3.8	4	-1E+10	1	-1E+10	1	-1E+10	1	-1E+10	1	-1E+10	1	-1E+10	1
4901784	195	C	11/05/2020	10:44	-133.728	43.649	0	1115.30	0	3.2820	0	37.0900	8	29.535	0	1103.424	0	12.1	4	3.8	4	-1E+10	1	-1E+10	1	-1E+10	1	-1E+10	1	-1E+10	1	-1E+10	1
4901784	195	C	11/05/2020	10:44	-133.728	43.649	0	1120.50	0	3.2690	0	37.0920	8	29.538	0	1108.554	0	12.1	4	3.8	4	-1E+10	1	-1E+10	1	-1E+10	1	-1E+10	1	-1E+10	1	-1E+10	1
4901784	195	C	11/05/2020	10:44	-133.728	43.649	0	1125.00	0	3.2600	0	37.0940	8	29.540	0	1112.995	0	12.2	4	3.9	4	-1E+10	1	-1E+10	1	-1E+10	1	-1E+10	1	-1E+10	1	-1E+10	1
4901784	195	C	11/05/2020	10:44	-133.728	43.649	0	1130.30	0	3.2520	0	37.0960	8	29.543	0	1118.224	0	12.4	4	3.9	4	-1E+10	1	-1E+10	1	-1E+10	1	-1E+10	1	-1E+10	1	-1E+10	1
4901784	195	C	11/05/2020	10:44	-133.728	43.649	0	1135.10	0	3.2450	0	37.0980	8	29.545	0	1122.960	0	12.6	4	4.0	4	-1E+10	1	-1E+10	1	-1E+10	1	-1E+10	1	-1E+10	1	-1E+10	1
4901784	195	C	11/05/2020	10:44	-133.728	43.649	0	1139.90	0	3.2310	0	37.1020	8	29.550	0	1127.696	0	12.8	4	4.1	4	-1E+10	1	-1E+10	1	-1E+10	1	-1E+10	1	-1E+10	1	-1E+10	1
4901784	195	C	11/05/2020	10:44	-133.728	43.649	0	1144.80	0	3.2140	0	37.1050	8	29.554	0	1132.530	0	13.0	4	4.1	4	-1E+10	1	-1E+10	1	-1E+10	1	-1E+10	1	-1E+10	1	-1E+10	1
4901784	195	C	11/05/2020	10:44	-133.728	43.649	0	1149.70	0	3.1910	0	37.1080	8	29.559	0	1137.364	0	13.1	4	4.2	4	-1E+10	1	-1E+10	1	-1E+10	1	-1E+10	1	-1E+10	1	-1E+10	1
4901784	195	C	11/05/2020	10:44	-133.728	43.649	0	1154.60	0	3.1750	0	37.1110	8	29.563	0	1142.198	0	13.3	4	4.2	4	-1E+10	1	-1E+10	1	-1E+10	1	-1E+10	1	-1E+10	1	-1E+10	1
4901784	195	C	11/05/2020	10:44	-133.728	43.649	0	1159.50	0	3.1600	0	37.1130	8	29.566	0	1147.032	0	13.4	4	4.3	4	-1E+10	1	-1E+10	1	-1E+10	1	-1E+10	1	-1E+10	1	-1E+10	1
4901784	195	C	11/05/2020	10:44	-133.728	43.649	0	1164.40	0	3.1480	0	37.1160	8	29.569	0	1151.866	0	13.6	4	4.3	4	-1E+10	1	-1E+10	1	-1E+10	1	-1E+10	1	-1E+10	1	-1E+10	1
4901784	195	C	11/05/2020	10:44	-133.728	43.649	0	1169.40	0	3.1400	0	37.1180	8	29.572	0	1156.799	0	13.8	4	4.4	4	-1E+10	1	-1E+10	1	-1E+10	1	-1E+10	1	-1E+10	1	-1E+10	1
4901784	195	C	11/05/2020	10:44	-133.728	43.649	0	1174.40	0	3.1320	0	37.1200	8	29.574	0	1161.731	0	13.9	4	4.4	4	-1E+10	1	-1E+10	1	-1E+10	1	-1E+10	1	-1E+10	1	-1E+10	1
4901784	195	C	11/05/2020	10:44	-133.728	43.649	0	1179.50	0	3.1180	0	37.1220	8	29.577	0	1166.762	0	14.0	4	4.4	4	-1E+10	1	-1E+10	1	-1E+10	1	-1E+10	1	-1E+10	1	-1E+10	1
4901784	195	C	11/05/2020	10:44	-133.728	43.649	0	1184.60	0	3.1020	0	37.1240	8	29.581	0	1171.792	0	14.2	4	4.5	4	-1E+10	1	-1E+10	1	-1E+10	1	-1E+10	1	-1E+10	1	-1E+10	1
4901784	195	C	11/05/2020	10:44	-133.728	43.649	0	1189.80	0	3.0950	0	37.1250	8	29.582	0	1176.922	0	14.4	4	4.5	4	-1E+10	1	-1E+10	1	-1E+10	1	-1E+10	1	-1E+10	1	-1E+10	1
4901784	195	C	11/05/2020	10:44	-133.728	43.649	0	1195.00	0	3.0800	0	37.1280	8	29.586	0	1182.051	0	14.5	4	4.6	4	-1E+10	1	-1E+10	1	-1E+10	1	-1E+10	1	-1E+10	1	-1E+10	1
4901784	195	C	11/05/2020	10:44	-133.728	43.649	0	1200.30	0	3.0670	0	37.1300	8	29.589	0	1187.278	0	14.7	4	4.7	4	-1E+10	1	-1E+10	1	-1E+10	1	-1E+10	1	-1E+10	1	-1E+10	1
4901784	195	C	11/05/2020	10:44	-133.728	43.649	0	1205.70	0	3.0510	0	37.1340	8	29.594	0	1192.604	0	14.9	4	4.7	4	-1E+10	1	-1E+10	1	-1E+10	1	-1E+10	1	-1E+10	1	-1E+10	1
4901784	195	C	11/05/2020	10:44	-133.728	43.649	0	1210.10	0	3.0450	0	37.1350	8	29.595	0	1196.944	0	15.1	4	4.7	4	-1E+10	1	-1E+10	1	-1E+10	1	-1E+10	1	-1E+10	1	-1E+10	1
4901784	195	C	11/05/2020	10:44	-133.728	43.649	0	1214.60	0	3.0420	0	37.1360	8	29.596	0	1201.382	0	15.2	4	4.8	4	-1E+10	1	-1E+10	1	-1E+10	1	-1E+10	1	-1E+10	1	-1E+10	1
4901784	195	C	11/05/2020	10:44	-133.728	43.649	0	1220.10	0	3.0340	0	37.1380	8	29.599	0	1206.807	0	15.4	4	4.9	4	-1E+10	1	-1E+10	1	-1E+10	1	-1E+10	1	-1E+10	1	-1E+10	1
4901784	195	C	11/05/2020	10:44	-133.728	43.649	0	1225.40	0	3.0250	0	37.1400	8	29.601	0	1212.034	0	15.5	4	4.9	4	-1E+10	1	-1E+10	1	-1E+10	1	-1E+10	1	-1E+10	1	-1E+10	1
4901784	195	C	11/05/2020	10:44	-133.728	43.649	0	1229.90	0	3.0160	0	37.1410	8	29.603	0	1216.472	0	15.6	4	4.9	4	-1E+10	1	-1E+10	1	-1E+10	1	-1E+10	1	-1E+10	1	-1E+10	1
4901784	195	C	11/05/2020	10:44	-133.728	43.649	0	1234.40	0	3.0060	0	37.1420	8	29.605	0	1220.910	0	15.7	4	5.0	4	-1E+10	1	-1E+10	1	-1E+10	1	-1E+10	1	-1E+10	1	-1E+10	1
4901784	195	C	11/05/2020	10:44	-133.728	43.649	0	1239.60	0	2.9970	0	37.1440	8	29.607	0	1226.038	0	15.9	4	5.0	4	-1E+10	1	-1E+10	1	-1E+10	1	-1E+10	1	-1E+10	1	-1E+10	1
4901784	195	C	11/05/2020	10:44	-133.728	43.649	0	1244.60	0	2.9870	0	37.1460	8	29.610	0	1230.968	0	16.2	4	5.1	4	-1E+10	1	-1E+10	1	-1E+10	1	-1E+10	1	-1E+10	1	-1E+10	1
4901784	195	C	11/05/2020	10:44	-133.728	43.649	0	1249.60	0	2.9690	0	37.1490	8	29.614	0	1235.899	0	16.4	4	5.2	4	-1E+10	1	-1E+10	1	-1E+10	1	-1E+10	1	-1E+10	1	-1E+10	1
4901784	195	C	11/05/2020	10:44	-133.728	43.649	0	1254.70	0	2.9600	0	37.1510	8	29.616	0	1240.928	0	16.6	4	5.2	4	-1E+10	1	-1E+10	1	-1E+10	1	-1E+10	1	-1E+10	1	-1E+10	1
4901784	195	C	11/05/2020	10:44	-133.728	43.649	0	1259.70	0	2.9500	0	37.1520	8	29.618	0	1245.858	0	16.8	4	5.3	4	-1E+10	1	-1E+10	1	-1E+10	1	-1E+10	1	-1E+10	1	-1E+10	1
4901784	195	C	11/05/2020	10:44	-133.728	43.649	0	1264.80	0	2.9430	0	37.1540	8	29.621	0	1250.887	0	17.0	4	5.4	4	-1E+10	1	-1E+10	1	-1E+10	1	-1E+10	1	-1E+10	1	-1E+10	1
4901784	195	C	11/05/2020	10:44	-133.728	43.649	0	1269.90	0	2.9310	0	37.1560	8	29.623	0	1255.916	0	17.1	4	5.4	4	-1E+10	1	-1E+10	1	-1E+10	1	-1E+10	1	-1E+10	1	-1E+10	1
4901784	195	C	11/05/2020	10:44	-133.728	43.649	0	1275.00	0	2.9210	0	37.1580	8	29.626	0	1260.944	0	17.3	4	5.4	4	-1E+10	1	-1E+10	1	-1E+10	1	-1E+10	1	-1E+10	1	-1E+10	1
4901784	195	C	11/05/2020	10:44	-133.728	43.649	0	1280.10	0	2.9130	0	37.1590	8	29.628	0	1265.973	0	17.4	4	5.5	4	-1E+10	1	-1E+10	1	-1E+10	1	-1E+10	1	-1E+10	1	-1E+10	1
4901784	195	C	11/05/2020	10:44	-133.728	43.649	0	1285.40	0	2.9040	0	37.1600	8	29.629	0	1271.198	0	17.7	4	5.6	4	-1E+10	1	-1E+10	1	-1E+10	1	-1E+10	1	-1E+10	1	-1E+10	1
4901784	195	C	11/05/2020	10:44	-133.728	43.649	0	1290.60	0	2.8920	0	37.1630	8	29.633	0	1276.325	0	17.8	4	5.6	4	-1E+10	1	-1E+10	1	-1E+10	1	-1E+10	1	-1E+10	1	-1E+10	1
4901784	195	C	11/05/2020	10:44	-133.728	43.649	0	1295.00	0	2.8850	0	37.1640	8	29.634	0	1280.663	0	18.0	4	5.6	4	-1E+10	1	-1E+10	1	-1E+10	1	-1E+10	1	-1E+10	1	-1E+10	1
4901784	195	C	11/05/2020	10:44	-133.728	43.649	0	1299.40	0	2.8730	0	37.1650	8	29.636	0	1285.001	0	18.1	4	5.7	4	-1E+10	1	-1E+10	1	-1E+10	1	-1E+10	1	-1E+10	1	-1E+10	1
4901784	195	C	11/05/2020	10:44	-133.728	43.649	0	1304.60	0	2.8650	0	37.1660	8	29.638	0	1290.127	0	18.2	4	5.7	4	-1E+10	1	-1E+10	1	-1E+10	1	-1E+10	1	-1E+10	1	-1E+10	1
4901784	195	C	11/05/2020	10:44	-133.728	43.649	0	1309.90	0	2.8570	0	37.1680	8	29.640	0	1295.352	0	18.4	4	5.8	4	-1E+10	1	-1E+10	1	-1E+10	1	-1E+10	1	-1E+10	1	-1E+10	1
4901784	195	C	11/05/2020	10:44	-133.728	43.649	0	1315.30	0	2.8500	0	37.1680	8	29.641	0	1300.676	0	18.5	4	5.8	4	-1E+10	1	-1E+10	1	-1E+10	1	-1E+10	1	-1E+10	1	-1E+10	1
4901784	195	C	11/05/2020	10:44	-133.728	43.649	0	1320.60	0	2.8330	0	37.1700	8	29.644	0	1305.900	0	18.8	4	5.9	4	-1E+10	1	-1E+10	1	-1E+10	1	-1E+10	1	-1E+10	1	-1E+10	1
4901784	195	C	11/05/2020	10:44	-133.728	43.649	0	1325.10	0	2.8210	0	37.1720	8	29.647	0	1310.336	0	19.0	4	5.9	4	-1E+10	1	-1E+10	1	-1E+10	1	-1E+10	1	-1E+10	1	-1E+10	1
4901784	195	C	11/05/2020	10:44	-133.728	43.649	0	1329.60	0	2.8160	0	37.1730	8	29.648	0	1314.772	0	19.1	4	6.0	4	-1E+10	1	-1E+10	1	-1E+10	1	-1E+10	1	-1E+10	1	-1E+10	1
4901784	195	C	11/05/2020	10:44	-133.728	43.649	0	1334.90	0	2.8070	0	37.1750	8	29.651	0	1319.996	0	19.3	4	6.1	4	-1E+10	1	-1E+10	1	-1E+10	1	-1E+10	1	-1E+10	1	-1E+10	1
4901784	195	C	11/05/2020	10:44	-133.728	43.649	0	1340.30	0	2.7960	0	37.1770	8	29.654	0	1325.319	0	19.6	4	6.1	4	-1E+10	1	-1E+10	1	-1E+10	1	-1E+10	1	-1E+10	1	-1E+10	1
4901784	195	C	11/05/2020	10:44	-133.728	43.649	0	1345.60	0	2.7880	0	37.1780	8	29.655	0	1330.543	0	19.8	4	6.2	4	-1E+10	1	-1E+10	1	-1E+10	1	-1E+10	1	-1E+10	1	-1E+10	1
4901784	195	C	11/05/2020	10:44	-133.728	43.649	0	1350.10	0	2.7810	0	37.1800	8	29.657	0	1334.979	0	19.9	4	6.2	4	-1E+10	1	-1E+10	1	-1E+10	1	-1E+10	1	-1E+10	1	-1E+10	1
4901784	195	C	11/05/2020	10:44	-133.728	43.649	0	1354.60	0	2.7740	0	37.1810	8	29.659	0	1339.414	0	20.1	4	6.3	4	-1E+10	1	-1E+10	1	-1E+10	1	-1E+10	1	-1E+10	1	-1E+10	1
4901784	195	C	11/05/2020	10:44	-133.728	43.649	0	1360.10	0	2.7660	0	37.1820	8	29.661	0	1344.835	0	20.3	4	6.4	4	-1E+10	1	-1E+10	1	-1E+10	1	-1E+10	1	-1E+10	1	-1E+10	1
4901784	195	C	11/05/2020	10:44	-133.728	43.649	0	1365.40	0	2.7570	0	37.1830	8	29.662	0	1350.058	0	20.5	4	6.4	4	-1E+10	1	-1E+10	1	-1E+10	1	-1E+10	1	-1E+10	1	-1E+10	1
4901784	195	C	11/05/2020	10:44	-133.728	43.649	0	1369.90	0	2.7500	0	37.1850	8	29.665	0	1354.493	0	20.7	4	6.5	4	-1E+10	1	-1E+10	1	-1E+10	1	-1E+10	1	-1E+10	1	-1E+10	1
4901784	195	C	11/05/2020	10:44	-133.728	43.649	0	1374.50	0	2.7420	0	37.1860	8	29.666	0	1359.027	0	20.9	4	6.6	4	-1E+10	1	-1E+10	1	-1E+10	1	-1E+10	1	-1E+10	1	-1E+10	1
4901784	195	C	11/05/2020	10:44	-133.728	43.649	0	1379.90	0	2.7330	0	37.1880	8	29.669	0	1364.348	0	21.2	4	6.6	4	-1E+10	1	-1E+10	1	-1E+10	1	-1E+10	1	-1E+10	1	-1E+10	1
4901784	195	C	11/05/2020	10:44	-133.728	43.649	0	1385.40	0	2.7260	0	37.1890	8	29.670	0	1369.769	0	21.4	4	6.7	4	-1E+10	1	-1E+10	1	-1E+10	1	-1E+10	1	-1E+10	1	-1E+10	1
4901784	195	C	11/05/2020	10:44	-133.728	43.649	0	1389.90	0	2.7200	0	37.1900	8	29.672	0	1374.203	0	21.6	4	6.8	4	-1E+10	1	-1E+10	1	-1E+10	1	-1E+10	1	-1E+10	1	-1E+10	1
4901784	195	C	11/05/2020	10:44	-133.728	43.649	0	1394.50	0	2.7140	0	37.1920	8	29.674	0	1378.736	0	21.9	4	6.9	4	-1E+10	1	-1E+10	1	-1E+10	1	-1E+10	1	-1E+10	1	-1E+10	1
4901784	195	C	11/05/2020	10:44	-133.728	43.649	0	1400.00	0	2.7000	0	37.1940	8	29.677	0	1384.156	0	22.2	4	6.9	4	-1E+10	1	-1E+10	1	-1E+10	1	-1E+10	1	-1E+10	1	-1E+10	1
4901784	195	C	11/05/2020	10:44	-133.728	43.649	0	1405.50	0	2.6900	0	37.1950	8	29.678	0	1389.576	0	22.5	4	7.0	4	-1E+10	1	-1E+10	1	-1E+10	1	-1E+10	1	-1E+10	1	-1E+10	1
4901784	195	C	11/05/2020	10:44	-133.728	43.649	0	1410.10	0	2.6750	0	37.1970	8	29.681	0	1394.108	0	22.8	4	7.1	4	-1E+10	1	-1E+10	1	-1E+10	1	-1E+10	1	-1E+10	1	-1E+10	1
4901784	195	C	11/05/2020	10:44	-133.728	43.649	0	1414.70	0	2.6680	0	37.1990	8	29.684	0	1398.641	0	23.1	4	7.2	4	-1E+10	1	-1E+10	1	-1E+10	1	-1E+10	1	-1E+10	1	-1E+10	1
4901784	195	C	11/05/2020	10:44	-133.728	43.649	0	1420.30	0	2.6580	0	37.2000	8	29.686	0	1404.159	0	23.4	4	7.3	4	-1E+10	1	-1E+10	1	-1E+10	1	-1E+10	1	-1E+10	1	-1E+10	1
4901784	195	C	11/05/2020	10:44	-133.728	43.649	0	1425.00	0	2.6510	0	37.2010	8	29.687	0	1408.790	0	23.7	4	7.4	4	-1E+10	1	-1E+10	1	-1E+10	1	-1E+10	1	-1E+10	1	-1E+10	1
4901784	195	C	11/05/2020	10:44	-133.728	43.649	0	1429.70	0	2.6400	0	37.2030	8	29.690	0	1413.420	0	24.0	4	7.5	4	-1E+10	1	-1E+10	1	-1E+10	1	-1E+10	1	-1E+10	1	-1E+10	1
4901784	195	C	11/05/2020	10:44	-133.728	43.649	0	1435.40	0	2.6280	0	37.2060	8	29.693	0	1419.036	0	24.4	4	7.6	4	-1E+10	1	-1E+10	1	-1E+10	1	-1E+10	1	-1E+10	1	-1E+10	1
4901784	195	C	11/05/2020	10:44	-133.728	43.649	0	1439.60	0	2.6210	0	37.2070	8	29.695	0	1423.174	0	24.6	4	7.7	4	-1E+10	1	-1E+10	1	-1E+10	1	-1E+10	1	-1E+10	1	-1E+10	1
4901784	195	C	11/05/2020	10:44	-133.728	43.649	0	1444.50	0	2.6170	0	37.2080	8	29.696	0	1428.002	0	24.8	4	7.8	4	-1E+10	1	-1E+10	1	-1E+10	1	-1E+10	1	-1E+10	1	-1E+10	1
4901784	195	C	11/05/2020	10:44	-133.728	43.649	0	1449.40	0	2.6060	0	37.2100	8	29.699	0	1432.829	0	25.2	4	7.9	4	-1E+10	1	-1E+10	1	-1E+10	1	-1E+10	1	-1E+10	1	-1E+10	1
4901784	195	C	11/05/2020	10:44	-133.728	43.649	0	1454.30	0	2.6010	0	37.2110	8	29.700	0	1437.657	0	25.4	4	7.9	4	-1E+10	1	-1E+10	1	-1E+10	1	-1E+10	1	-1E+10	1	-1E+10	1
4901784	195	C	11/05/2020	10:44	-133.728	43.649	0	1459.30	0	2.5940	0	37.2120	8	29.701	0	1442.582	0	25.6	4	8.0	4	-1E+10	1	-1E+10	1	-1E+10	1	-1E+10	1	-1E+10	1	-1E+10	1
4901784	195	C	11/05/2020	10:44	-133.728	43.649	0	1464.30	0	2.5810	0	37.2140	8	29.704	0	1447.508	0	25.8	4	8.1	4	-1E+10	1	-1E+10	1	-1E+10	1	-1E+10	1	-1E+10	1	-1E+10	1
4901784	195	C	11/05/2020	10:44	-133.728	43.649	0	1469.40	0	2.5740	0	37.2150	8	29.706	0	1452.532	0	26.0	4	8.1	4	-1E+10	1	-1E+10	1	-1E+10	1	-1E+10	1	-1E+10	1	-1E+10	1
4901784	195	C	11/05/2020	10:44	-133.728	43.649	0	1474.40	0	2.5680	0	37.2170	8	29.708	0	1457.457	0	26.3	4	8.2	4	-1E+10	1	-1E+10	1	-1E+10	1	-1E+10	1	-1E+10	1	-1E+10	1
4901784	195	C	11/05/2020	10:44	-133.728	43.649	0	1479.40	0	2.5680	0	37.2180	8	29.709	0	1462.383	0	26.6	4	8.3	4	-1E+10	1	-1E+10	1	-1E+10	1	-1E+10	1	-1E+10	1	-1E+10	1
4901784	195	C	11/05/2020	10:44	-133.728	43.649	0	1484.40	0	2.5600	0	37.2190	8	29.710	0	1467.308	0	26.9	4	8.4	4	-1E+10	1	-1E+10	1	-1E+10	1	-1E+10	1	-1E+10	1	-1E+10	1
4901784	195	C	11/05/2020	10:44	-133.728	43.649	0	1489.40	0	2.5480	0	37.2200	8	29.712	0	1472.233	0	27.1	4	8.4	4	-1E+10	1	-1E+10	1	-1E+10	1	-1E+10	1	-1E+10	1	-1E+10	1
4901784	195	C	11/05/2020	10:44	-133.728	43.649	0	1494.50	0	2.5430	0	37.2220	8	29.714	0	1477.256	0	27.3	4	8.5	4	-1E+10	1	-1E+10	1	-1E+10	1	-1E+10	1	-1E+10	1	-1E+10	1
4901784	195	C	11/05/2020	10:44	-133.728	43.649	0	1499.60	0	2.5380	0	37.2220	8	29.715	0	1482.279	0	27.6	4	8.6	4	-1E+10	1	-1E+10	1	-1E+10	1	-1E+10	1	-1E+10	1	-1E+10	1
4901784	195	C	11/05/2020	10:44	-133.728	43.649	0	1504.70	0	2.5270	0	37.2240	8	29.717	0	1487.302	0	28.0	4	8.7	4	-1E+10	1	-1E+10	1	-1E+10	1	-1E+10	1	-1E+10	1	-1E+10	1
4901784	195	C	11/05/2020	10:44	-133.728	43.649	0	1509.80	0	2.5170	0	37.2250	8	29.719	0	1492.326	0	28.3	4	8.8	4	-1E+10	1	-1E+10	1	-1E+10	1	-1E+10	1	-1E+10	1	-1E+10	1
4901784	195	C	11/05/2020	10:44	-133.728	43.649	0	1514.90	0	2.5020	0	37.2280	8	29.723	0	1497.348	0	28.7	4	8.9	4	-1E+10	1	-1E+10	1	-1E+10	1	-1E+10	1	-1E+10	1	-1E+10	1
4901784	195	C	11/05/2020	10:44	-133.728	43.649	0	1520.00	0	2.4920	0	37.2290	8	29.725	0	1502.371	0	29.0	4	9.0	4	-1E+10	1	-1E+10	1	-1E+10	1	-1E+10	1	-1E+10	1	-1E+10	1
4901784	195	C	11/05/2020	10:44	-133.728	43.649	0	1525.20	0	2.4830	0	37.2310	8	29.727	0	1507.492	0	29.3	4	9.1	4	-1E+10	1	-1E+10	1	-1E+10	1	-1E+10	1	-1E+10	1	-1E+10	1
4901784	195	C	11/05/2020	10:44	-133.728	43.649	0	1530.40	0	2.4750	0	37.2320	8	29.729	0	1512.613	0	29.5	4	9.2	4	-1E+10	1	-1E+10	1	-1E+10	1	-1E+10	1	-1E+10	1	-1E+10	1
4901784	195	C	11/05/2020	10:44	-133.728	43.649	0	1535.60	0	2.4690	0	37.2340	8	29.731	0	1517.734	0	29.8	4	9.3	4	-1E+10	1	-1E+10	1	-1E+10	1	-1E+10	1	-1E+10	1	-1E+10	1
4901784	195	C	11/05/2020	10:44	-133.728	43.649	0	1540.00	0	2.4620	0	37.2340	8	29.732	0	1522.067	0	30.1	4	9.4	4	-1E+10	1	-1E+10	1	-1E+10	1	-1E+10	1	-1E+10	1	-1E+10	1
4901784	195	C	11/05/2020	10:44	-133.728	43.649	0	1544.30	0	2.4510	0	37.2360	8	29.734	0	1526.302	0	30.4	4	9.4	4	-1E+10	1	-1E+10	1	-1E+10	1	-1E+10	1	-1E+10	1	-1E+10	1
4901784	195	C	11/05/2020	10:44	-133.728	43.649	0	1549.50	0	2.4440	0	37.2380	8	29.736	0	1531.422	0	30.6	4	9.5	4	-1E+10	1	-1E+10	1	-1E+10	1	-1E+10	1	-1E+10	1	-1E+10	1
4901784	195	C	11/05/2020	10:44	-133.728	43.649	0	1554.70	0	2.4350	0	37.2390	8	29.738	0	1536.543	0	30.9	4	9.6	4	-1E+10	1	-1E+10	1	-1E+10	1	-1E+10	1	-1E+10	1	-1E+10	1
4901784	195	C	11/05/2020	10:44	-133.728	43.649	0	1559.90	0	2.4280	0	37.2410	8	29.740	0	1541.663	0	31.3	4	9.7	4	-1E+10	1	-1E+10	1	-1E+10	1	-1E+10	1	-1E+10	1	-1E+10	1
4901784	195	C	11/05/2020	10:44	-133.728	43.649	0	1565.20	0	2.4170	0	37.2420	8	29.742	0	1546.882	0	31.6	4	9.8	4	-1E+10	1	-1E+10	1	-1E+10	1	-1E+10	1	-1E+10	1	-1E+10	1
4901784	195	C	11/05/2020	10:44	-133.728	43.649	0	1570.40	0	2.4090	0	37.2440	8	29.745	0	1552.002	0	31.9	4	9.9	4	-1E+10	1	-1E+10	1	-1E+10	1	-1E+10	1	-1E+10	1	-1E+10	1
4901784	195	C	11/05/2020	10:44	-133.728	43.649	0	1575.70	0	2.4030	0	37.2460	8	29.747	0	1557.220	0	32.2	4	10.0	4	-1E+10	1	-1E+10	1	-1E+10	1	-1E+10	1	-1E+10	1	-1E+10	1
4901784	195	C	11/05/2020	10:44	-133.728	43.649	0	1580.10	0	2.3930	0	37.2480	8	29.749	0	1561.552	0	32.6	4	10.1	4	-1E+10	1	-1E+10	1	-1E+10	1	-1E+10	1	-1E+10	1	-1E+10	1
4901784	195	C	11/05/2020	10:44	-133.728	43.649	0	1584.60	0	2.3850	0	37.2500	8	29.752	0	1565.983	0	32.9	4	10.2	4	-1E+10	1	-1E+10	1	-1E+10	1	-1E+10	1	-1E+10	1	-1E+10	1
4901784	195	C	11/05/2020	10:44	-133.728	43.649	0	1589.90	0	2.3740	0	37.2530	8	29.755	0	1571.201	0	33.3	4	10.4	4	-1E+10	1	-1E+10	1	-1E+10	1	-1E+10	1	-1E+10	1	-1E+10	1
4901784	195	C	11/05/2020	10:44	-133.728	43.649	0	1595.20	0	2.3650	0	37.2540	8	29.757	0	1576.419	0	33.7	4	10.5	4	-1E+10	1	-1E+10	1	-1E+10	1	-1E+10	1	-1E+10	1	-1E+10	1
4901784	195	C	11/05/2020	10:44	-133.728	43.649	0	1600.50	0	2.3570	0	37.2550	8	29.758	0	1581.637	0	34.1	4	10.6	4	-1E+10	1	-1E+10	1	-1E+10	1	-1E+10	1	-1E+10	1	-1E+10	1
4901784	195	C	11/05/2020	10:44	-133.728	43.649	0	1605.10	0	2.3480	0	37.2570	8	29.761	0	1586.165	0	34.4	4	10.7	4	-1E+10	1	-1E+10	1	-1E+10	1	-1E+10	1	-1E+10	1	-1E+10	1
4901784	195	C	11/05/2020	10:44	-133.728	43.649	0	1609.50	0	2.3410	0	37.2600	8	29.764	0	1590.497	0	34.7	4	10.8	4	-1E+10	1	-1E+10	1	-1E+10	1	-1E+10	1	-1E+10	1	-1E+10	1
4901784	195	C	11/05/2020	10:44	-133.728	43.649	0	1614.90	0	2.3370	0	37.2610	8	29.765	0	1595.813	0	35.1	4	10.9	4	-1E+10	1	-1E+10	1	-1E+10	1	-1E+10	1	-1E+10	1	-1E+10	1
4901784	195	C	11/05/2020	10:44	-133.728	43.649	0	1620.30	0	2.3280	0	37.2650	8	29.769	0	1601.129	0	35.6	4	11.1	4	-1E+10	1	-1E+10	1	-1E+10	1	-1E+10	1	-1E+10	1	-1E+10	1
4901784	195	C	11/05/2020	10:44	-133.728	43.649	0	1624.90	0	2.3240	0	37.2660	8	29.770	0	1605.657	0	36.2	4	11.2	4	-1E+10	1	-1E+10	1	-1E+10	1	-1E+10	1	-1E+10	1	-1E+10	1
4901784	195	C	11/05/2020	10:44	-133.728	43.649	0	1629.50	0	2.3160	0	37.2700	8	29.774	0	1610.185	0	36.4	4	11.3	4	-1E+10	1	-1E+10	1	-1E+10	1	-1E+10	1	-1E+10	1	-1E+10	1
4901784	195	C	11/05/2020	10:44	-133.728	43.649	0	1635.10	0	2.3050	0	37.2710	8	29.776	0	1615.697	0	36.7	4	11.4	4	-1E+10	1	-1E+10	1	-1E+10	1	-1E+10	1	-1E+10	1	-1E+10	1
4901784	195	C	11/05/2020	10:44	-133.728	43.649	0	1639.70	0	2.2970	0	37.2740	8	29.779	0	1620.225	0	36.9	4	11.5	4	-1E+10	1	-1E+10	1	-1E+10	1	-1E+10	1	-1E+10	1	-1E+10	1
4901784	195	C	11/05/2020	10:44	-133.728	43.649	0	1645.00	0	2.2920	0	37.2760	8	29.781	0	1625.442	0	37.2	4	11.5	4	-1E+10	1	-1E+10	1	-1E+10	1	-1E+10	1	-1E+10	1	-1E+10	1
4901784	195	C	11/05/2020	10:44	-133.728	43.649	0	1650.20	0	2.2850	0	37.2790	8	29.784	0	1630.560	0	37.4	4	11.6	4	-1E+10	1	-1E+10	1	-1E+10	1	-1E+10	1	-1E+10	1	-1E+10	1
4901784	195	C	11/05/2020	10:44	-133.728	43.649	0	1655.20	0	2.2820	0	37.2790	8	29.785	0	1635.481	0	37.9	4	11.7	4	-1E+10	1	-1E+10	1	-1E+10	1	-1E+10	1	-1E+10	1	-1E+10	1
4901784	195	C	11/05/2020	10:44	-133.728	43.649	0	1660.10	0	2.2750	0	37.2810	8	29.787	0	1640.304	0	38.4	4	11.9	4	-1E+10	1	-1E+10	1	-1E+10	1	-1E+10	1	-1E+10	1	-1E+10	1
4901784	195	C	11/05/2020	10:44	-133.728	43.649	0	1665.10	0	2.2720	0	37.2840	8	29.790	0	1645.225	0	38.7	4	12.0	4	-1E+10	1	-1E+10	1	-1E+10	1	-1E+10	1	-1E+10	1	-1E+10	1
4901784	195	C	11/05/2020	10:44	-133.728	43.649	0	1670.20	0	2.2660	0	37.2860	8	29.792	0	1650.244	0	39.1	4	12.1	4	-1E+10	1	-1E+10	1	-1E+10	1	-1E+10	1	-1E+10	1	-1E+10	1
4901784	195	C	11/05/2020	10:44	-133.728	43.649	0	1675.30	0	2.2620	0	37.2880	8	29.794	0	1655.263	0	39.4	4	12.2	4	-1E+10	1	-1E+10	1	-1E+10	1	-1E+10	1	-1E+10	1	-1E+10	1
4901784	195	C	11/05/2020	10:44	-133.728	43.649	0	1680.50	0	2.2580	0	37.2930	8	29.798	0	1660.381	0	39.9	4	12.4	4	-1E+10	1	-1E+10	1	-1E+10	1	-1E+10	1	-1E+10	1	-1E+10	1
4901784	195	C	11/05/2020	10:44	-133.728	43.649	0	1685.70	0	2.2490	0	37.2970	8	29.802	0	1665.498	0	40.2	4	12.4	4	-1E+10	1	-1E+10	1	-1E+10	1	-1E+10	1	-1E+10	1	-1E+10	1
4901784	195	C	11/05/2020	10:44	-133.728	43.649	0	1690.00	0	2.2470	0	37.2970	8	29.802	0	1669.730	0	40.3	4	12.5	4	-1E+10	1	-1E+10	1	-1E+10	1	-1E+10	1	-1E+10	1	-1E+10	1
4901784	195	C	11/05/2020	10:44	-133.728	43.649	0	1694.30	0	2.2440	0	37.3020	8	29.807	0	1673.961	0	40.4	4	12.5	4	-1E+10	1	-1E+10	1	-1E+10	1	-1E+10	1	-1E+10	1	-1E+10	1
4901784	195	C	11/05/2020	10:44	-133.728	43.649	0	1699.60	0	2.2380	0	37.3020	8	29.807	0	1679.176	0	40.4	4	12.5	4	-1E+10	1	-1E+10	1	-1E+10	1	-1E+10	1	-1E+10	1	-1E+10	1
4901784	195	C	11/05/2020	10:44	-133.728	43.649	0	1704.80	0	2.2270	0	37.3030	8	29.809	0	1684.293	0	40.7	4	12.6	4	-1E+10	1	-1E+10	1	-1E+10	1	-1E+10	1	-1E+10	1	-1E+10	1
4901784	195	C	11/05/2020	10:44	-133.728	43.649	0	1710.10	0	2.2180	0	37.3040	8	29.811	0	1689.508	0	41.1	4	12.7	4	-1E+10	1	-1E+10	1	-1E+10	1	-1E+10	1	-1E+10	1	-1E+10	1
4901784	195	C	11/05/2020	10:44	-133.728	43.649	0	1715.50	0	2.2100	0	37.3090	8	29.815	0	1694.822	0	41.5	4	12.8	4	-1E+10	1	-1E+10	1	-1E+10	1	-1E+10	1	-1E+10	1	-1E+10	1
4901784	195	C	11/05/2020	10:44	-133.728	43.649	0	1720.00	0	2.2030	0	37.3100	8	29.817	0	1699.250	0	42.0	4	13.0	4	-1E+10	1	-1E+10	1	-1E+10	1	-1E+10	1	-1E+10	1	-1E+10	1
4901784	195	C	11/05/2020	10:44	-133.728	43.649	0	1725.10	0	2.1890	0	37.3080	8	29.816	0	1704.268	0	42.6	4	13.2	4	-1E+10	1	-1E+10	1	-1E+10	1	-1E+10	1	-1E+10	1	-1E+10	1
4901784	195	C	11/05/2020	10:44	-133.728	43.649	0	1730.60	0	2.1860	0	37.3040	8	29.814	0	1709.679	0	42.8	4	13.2	4	-1E+10	1	-1E+10	1	-1E+10	1	-1E+10	1	-1E+10	1	-1E+10	1
4901784	195	C	11/05/2020	10:44	-133.728	43.649	0	1735.30	0	2.1820	0	37.3050	8	29.815	0	1714.303	0	42.9	4	13.3	4	-1E+10	1	-1E+10	1	-1E+10	1	-1E+10	1	-1E+10	1	-1E+10	1
4901784	195	C	11/05/2020	10:44	-133.728	43.649	0	1740.10	0	2.1760	0	37.3060	8	29.816	0	1719.026	0	43.1	4	13.3	4	-1E+10	1	-1E+10	1	-1E+10	1	-1E+10	1	-1E+10	1	-1E+10	1
4901784	195	C	11/05/2020	10:44	-133.728	43.649	0	1744.80	0	2.1730	0	37.3030	8	29.814	0	1723.650	0	43.4	4	13.4	4	-1E+10	1	-1E+10	1	-1E+10	1	-1E+10	1	-1E+10	1	-1E+10	1
4901784	195	C	11/05/2020	10:44	-133.728	43.649	0	1749.70	0	2.1660	0	37.3020	8	29.814	0	1728.470	0	43.7	4	13.5	4	-1E+10	1	-1E+10	1	-1E+10	1	-1E+10	1	-1E+10	1	-1E+10	1
4901784	195	C	11/05/2020	10:44	-133.728	43.649	0	1754.50	0	2.1590	0	37.3020	8	29.814	0	1733.193	0	44.0	4	13.6	4	-1E+10	1	-1E+10	1	-1E+10	1	-1E+10	1	-1E+10	1	-1E+10	1
4901784	195	C	11/05/2020	10:44	-133.728	43.649	0	1759.50	0	2.1550	0	37.3000	8	29.813	0	1738.111	0	44.4	4	13.7	4	-1E+10	1	-1E+10	1	-1E+10	1	-1E+10	1	-1E+10	1	-1E+10	1
4901784	195	C	11/05/2020	10:44	-133.728	43.649	0	1764.60	0	2.1470	0	37.3020	8	29.816	0	1743.128	0	44.9	4	13.9	4	-1E+10	1	-1E+10	1	-1E+10	1	-1E+10	1	-1E+10	1	-1E+10	1
4901784	195	C	11/05/2020	10:44	-133.728	43.649	0	1769.70	0	2.1370	0	37.3050	8	29.819	0	1748.145	0	45.4	4	14.0	4	-1E+10	1	-1E+10	1	-1E+10	1	-1E+10	1	-1E+10	1	-1E+10	1
4901784	195	C	11/05/2020	10:44	-133.728	43.649	0	1774.80	0	2.1290	0	37.3040	8	29.819	0	1753.162	0	45.7	4	14.1	4	-1E+10	1	-1E+10	1	-1E+10	1	-1E+10	1	-1E+10	1	-1E+10	1
4901784	195	C	11/05/2020	10:44	-133.728	43.649	0	1779.90	0	2.1240	0	37.3040	8	29.819	0	1758.179	0	46.0	4	14.2	4	-1E+10	1	-1E+10	1	-1E+10	1	-1E+10	1	-1E+10	1	-1E+10	1
4901784	195	C	11/05/2020	10:44	-133.728	43.649	0	1785.10	0	2.1160	0	37.3030	8	29.819	0	1763.294	0	46.3	4	14.3	4	-1E+10	1	-1E+10	1	-1E+10	1	-1E+10	1	-1E+10	1	-1E+10	1
4901784	195	C	11/05/2020	10:44	-133.728	43.649	0	1790.20	0	2.1100	0	37.3030	8	29.820	0	1768.310	0	46.6	4	14.4	4	-1E+10	1	-1E+10	1	-1E+10	1	-1E+10	1	-1E+10	1	-1E+10	1
4901784	195	C	11/05/2020	10:44	-133.728	43.649	0	1795.50	0	2.1020	0	37.3050	8	29.822	0	1773.523	0	47.1	4	14.5	4	-1E+10	1	-1E+10	1	-1E+10	1	-1E+10	1	-1E+10	1	-1E+10	1
4901784	195	C	11/05/2020	10:44	-133.728	43.649	0	1800.70	0	2.0930	0	37.3050	8	29.823	0	1778.638	0	47.6	4	14.7	4	-1E+10	1	-1E+10	1	-1E+10	1	-1E+10	1	-1E+10	1	-1E+10	1
4901784	195	C	11/05/2020	10:44	-133.728	43.649	0	1805.10	0	2.0870	0	37.3060	8	29.824	0	1782.966	0	47.9	4	14.8	4	-1E+10	1	-1E+10	1	-1E+10	1	-1E+10	1	-1E+10	1	-1E+10	1
4901784	195	C	11/05/2020	10:44	-133.728	43.649	0	1809.50	0	2.0790	0	37.3070	8	29.826	0	1787.293	0	48.2	4	14.9	4	-1E+10	1	-1E+10	1	-1E+10	1	-1E+10	1	-1E+10	1	-1E+10	1
4901784	195	C	11/05/2020	10:44	-133.728	43.649	0	1814.80	0	2.0760	0	37.3070	8	29.826	0	1792.506	0	48.5	4	15.0	4	-1E+10	1	-1E+10	1	-1E+10	1	-1E+10	1	-1E+10	1	-1E+10	1
4901784	195	C	11/05/2020	10:44	-133.728	43.649	0	1820.20	0	2.0710	0	37.3080	8	29.827	0	1797.817	0	48.8	4	15.0	4	-1E+10	1	-1E+10	1	-1E+10	1	-1E+10	1	-1E+10	1	-1E+10	1
4901784	195	C	11/05/2020	10:44	-133.728	43.649	0	1825.60	0	2.0680	0	37.3080	8	29.828	0	1803.127	0	49.1	4	15.1	4	-1E+10	1	-1E+10	1	-1E+10	1	-1E+10	1	-1E+10	1	-1E+10	1
4901784	195	C	11/05/2020	10:44	-133.728	43.649	0	1830.10	0	2.0620	0	37.3090	8	29.829	0	1807.553	0	49.4	4	15.2	4	-1E+10	1	-1E+10	1	-1E+10	1	-1E+10	1	-1E+10	1	-1E+10	1
4901784	195	C	11/05/2020	10:44	-133.728	43.649	0	1834.80	0	2.0580	0	37.3090	8	29.829	0	1812.175	0	49.7	4	15.3	4	-1E+10	1	-1E+10	1	-1E+10	1	-1E+10	1	-1E+10	1	-1E+10	1
4901784	195	C	11/05/2020	10:44	-133.728	43.649	0	1840.30	0	2.0530	0	37.3100	8	29.831	0	1817.584	0	50.0	4	15.4	4	-1E+10	1	-1E+10	1	-1E+10	1	-1E+10	1	-1E+10	1	-1E+10	1
4901784	195	C	11/05/2020	10:44	-133.728	43.649	0	1844.90	0	2.0510	0	37.3110	8	29.832	0	1822.107	0	50.3	4	15.5	4	-1E+10	1	-1E+10	1	-1E+10	1	-1E+10	1	-1E+10	1	-1E+10	1
4901784	195	C	11/05/2020	10:44	-133.728	43.649	0	1849.40	0	2.0460	0	37.3120	8	29.833	0	1826.532	0	50.7	4	15.6	4	-1E+10	1	-1E+10	1	-1E+10	1	-1E+10	1	-1E+10	1	-1E+10	1
4901784	195	C	11/05/2020	10:44	-133.728	43.649	0	1854.90	0	2.0370	0	37.3140	8	29.835	0	1831.941	0	51.2	4	15.8	4	-1E+10	1	-1E+10	1	-1E+10	1	-1E+10	1	-1E+10	1	-1E+10	1
4901784	195	C	11/05/2020	10:44	-133.728	43.649	0	1860.40	0	2.0330	0	37.3150	8	29.836	0	1837.349	0	51.6	4	15.9	4	-1E+10	1	-1E+10	1	-1E+10	1	-1E+10	1	-1E+10	1	-1E+10	1
4901784	195	C	11/05/2020	10:44	-133.728	43.649	0	1865.00	0	2.0280	0	37.3170	8	29.838	0	1841.872	0	52.0	4	16.0	4	-1E+10	1	-1E+10	1	-1E+10	1	-1E+10	1	-1E+10	1	-1E+10	1
4901784	195	C	11/05/2020	10:44	-133.728	43.649	0	1869.70	0	2.0240	0	37.3170	8	29.839	0	1846.493	0	52.2	4	16.1	4	-1E+10	1	-1E+10	1	-1E+10	1	-1E+10	1	-1E+10	1	-1E+10	1
4901784	195	C	11/05/2020	10:44	-133.728	43.649	0	1874.90	0	2.0220	0	37.3170	8	29.839	0	1851.606	0	52.4	4	16.1	4	-1E+10	1	-1E+10	1	-1E+10	1	-1E+10	1	-1E+10	1	-1E+10	1
4901784	195	C	11/05/2020	10:44	-133.728	43.649	0	1879.20	0	2.0180	0	37.3180	8	29.840	0	1855.834	0	52.5	4	16.2	4	-1E+10	1	-1E+10	1	-1E+10	1	-1E+10	1	-1E+10	1	-1E+10	1
4901784	195	C	11/05/2020	10:44	-133.728	43.649	0	1884.20	0	2.0130	0	37.3190	8	29.842	0	1860.750	0	52.6	4	16.2	4	-1E+10	1	-1E+10	1	-1E+10	1	-1E+10	1	-1E+10	1	-1E+10	1
4901784	195	C	11/05/2020	10:44	-133.728	43.649	0	1889.10	0	2.0120	0	37.3190	8	29.842	0	1865.567	0	52.8	4	16.3	4	-1E+10	1	-1E+10	1	-1E+10	1	-1E+10	1	-1E+10	1	-1E+10	1
4901784	195	C	11/05/2020	10:44	-133.728	43.649	0	1894.10	0	2.0060	0	37.3200	8	29.843	0	1870.483	0	53.1	4	16.3	4	-1E+10	1	-1E+10	1	-1E+10	1	-1E+10	1	-1E+10	1	-1E+10	1
4901784	195	C	11/05/2020	10:44	-133.728	43.649	0	1899.10	0	2.0020	0	37.3210	8	29.844	0	1875.399	0	53.3	4	16.4	4	-1E+10	1	-1E+10	1	-1E+10	1	-1E+10	1	-1E+10	1	-1E+10	1
4901784	195	C	11/05/2020	10:44	-133.728	43.649	0	1904.20	0	1.9970	0	37.3220	8	29.845	0	1880.412	0	53.6	4	16.5	4	-1E+10	1	-1E+10	1	-1E+10	1	-1E+10	1	-1E+10	1	-1E+10	1
4901784	195	C	11/05/2020	10:44	-133.728	43.649	0	1909.30	0	1.9960	0	37.3220	8	29.846	0	1885.426	0	53.7	4	16.5	4	-1E+10	1	-1E+10	1	-1E+10	1	-1E+10	1	-1E+10	1	-1E+10	1
4901784	195	C	11/05/2020	10:44	-133.728	43.649	0	1914.40	0	1.9930	0	37.3240	8	29.847	0	1890.440	0	54.0	4	16.6	4	-1E+10	1	-1E+10	1	-1E+10	1	-1E+10	1	-1E+10	1	-1E+10	1
4901784	195	C	11/05/2020	10:44	-133.728	43.649	0	1919.60	0	1.9890	0	37.3250	8	29.849	0	1895.552	0	54.3	4	16.7	4	-1E+10	1	-1E+10	1	-1E+10	1	-1E+10	1	-1E+10	1	-1E+10	1
4901784	195	C	11/05/2020	10:44	-133.728	43.649	0	1924.80	0	1.9860	0	37.3260	8	29.850	0	1900.663	0	54.7	4	16.8	4	-1E+10	1	-1E+10	1	-1E+10	1	-1E+10	1	-1E+10	1	-1E+10	1
4901784	195	C	11/05/2020	10:44	-133.728	43.649	0	1929.90	0	1.9810	0	37.3270	8	29.851	0	1905.676	0	55.0	4	16.9	4	-1E+10	1	-1E+10	1	-1E+10	1	-1E+10	1	-1E+10	1	-1E+10	1
4901784	195	C	11/05/2020	10:44	-133.728	43.649	0	1935.10	0	1.9780	0	37.3280	8	29.852	0	1910.788	0	55.3	4	17.0	4	-1E+10	1	-1E+10	1	-1E+10	1	-1E+10	1	-1E+10	1	-1E+10	1
4901784	195	C	11/05/2020	10:44	-133.728	43.649	0	1940.30	0	1.9780	0	37.3280	8	29.852	0	1915.899	0	55.6	4	17.1	4	-1E+10	1	-1E+10	1	-1E+10	1	-1E+10	1	-1E+10	1	-1E+10	1
4901784	195	C	11/05/2020	10:44	-133.728	43.649	0	1945.60	0	1.9720	0	37.3280	8	29.853	0	1921.109	0	56.0	4	17.2	4	-1E+10	1	-1E+10	1	-1E+10	1	-1E+10	1	-1E+10	1	-1E+10	1
4901784	195	C	11/05/2020	10:44	-133.728	43.649	0	1950.70	0	1.9660	0	37.3280	8	29.853	0	1926.121	0	56.4	4	17.3	4	-1E+10	1	-1E+10	1	-1E+10	1	-1E+10	1	-1E+10	1	-1E+10	1
4901784	195	C	11/05/2020	10:44	-133.728	43.649	0	1955.00	0	1.9590	0	37.3290	8	29.855	0	1930.348	0	56.7	4	17.4	4	-1E+10	1	-1E+10	1	-1E+10	1	-1E+10	1	-1E+10	1	-1E+10	1
4901784	195	C	11/05/2020	10:44	-133.728	43.649	0	1959.40	0	1.9550	0	37.3300	8	29.856	0	1934.672	0	57.0	4	17.5	4	-1E+10	1	-1E+10	1	-1E+10	1	-1E+10	1	-1E+10	1	-1E+10	1
4901784	195	C	11/05/2020	10:44	-133.728	43.649	0	1964.70	0	1.9540	0	37.3310	8	29.857	0	1939.881	0	57.3	4	17.6	4	-1E+10	1	-1E+10	1	-1E+10	1	-1E+10	1	-1E+10	1	-1E+10	1
4901784	195	C	11/05/2020	10:44	-133.728	43.649	0	1970.00	0	1.9510	0	37.3320	8	29.858	0	1945.090	0	57.6	4	17.7	4	-1E+10	1	-1E+10	1	-1E+10	1	-1E+10	1	-1E+10	1	-1E+10	1
4901784	195	C	11/05/2020	10:44	-133.728	43.649	0	1975.40	0	1.9480	0	37.3320	8	29.858	0	1950.397	0	57.9	4	17.8	4	-1E+10	1	-1E+10	1	-1E+10	1	-1E+10	1	-1E+10	1	-1E+10	1
4901784	195	C	11/05/2020	10:44	-133.728	43.649	0	1979.80	0	1.9450	0	37.3330	8	29.859	0	1954.721	0	58.0	4	17.8	4	-1E+10	1	-1E+10	1	-1E+10	1	-1E+10	1	-1E+10	1	-1E+10	1
4901784	195	C	11/05/2020	10:44	-133.728	43.649	0	1984.40	0	1.9440	0	37.3330	8	29.859	0	1959.242	0	58.2	4	17.9	4	-1E+10	1	-1E+10	1	-1E+10	1	-1E+10	1	-1E+10	1	-1E+10	1
4901784	195	C	11/05/2020	10:44	-133.728	43.649	0	1989.80	0	1.9410	0	37.3340	8	29.860	0	1964.549	0	58.5	4	18.0	4	-1E+10	1	-1E+10	1	-1E+10	1	-1E+10	1	-1E+10	1	-1E+10	1
4901784	195	C	11/05/2020	10:44	-133.728	43.649	0	1995.30	0	1.9370	0	37.3340	8	29.861	0	1969.953	0	58.8	4	18.1	4	-1E+10	1	-1E+10	1	-1E+10	1	-1E+10	1	-1E+10	1	-1E+10	1
4901784	195	C	11/05/2020	10:44	-133.728	43.649	0	2000.30	0	1.9330	0	37.3370	8	29.864	0	1974.867	0	58.9	4	18.1	4	-1E+10	1	-1E+10	1	-1E+10	1	-1E+10	1	-1E+10	1	-1E+10	1
4901784	195	C	11/05/2020	10:44	-133.728	43.649	0	2004.50	0	1.9310	0	37.3380	8	29.865	0	1978.994	0	59.1	4	18.2	4	-1E+10	1	-1E+10	1	-1E+10	1	-1E+10	1	-1E+10	1	-1E+10	1
4901784	195	C	11/05/2020	10:44	-133.728	43.649	0	2009.70	0	1.9290	0	37.3380	8	29.865	0	1984.103	0	59.1	4	18.2	4	-1E+10	1	-1E+10	1	-1E+10	1	-1E+10	1	-1E+10	1	-1E+10	1
4901784	195	C	11/05/2020	10:44	-133.728	43.649	0	2014.50	0	1.9290	0	37.3390	8	29.866	0	1988.820	0	59.2	4	18.2	4	-1E+10	1	-1E+10	1	-1E+10	1	-1E+10	1	-1E+10	1	-1E+10	1
4901784	195	C	11/05/2020	10:44	-133.728	43.649	0	2019.90	0	1.9290	0	37.3390	8	29.866	0	1994.126	0	59.2	4	18.2	4	-1E+10	1	-1E+10	1	-1E+10	1	-1E+10	1	-1E+10	1	-1E+10	1
4901784	195	C	11/05/2020	10:44	-133.728	43.649	0																										
4901784	196	C	11/15/2020	10:43	-133.839	43.638	0	2.90	0	15.8020	0	35.4740	8	26.159	0	2.877	0	234.3	4	96.4	4	-1E+10	1	-1E+10	1	-1E+10	1	-1E+10	1	-1E+10	1	-1E+10	1
4901784	196	C	11/15/2020	10:43	-133.839	43.638	0	4.30	0	15.8040	0	35.4750	8	26.159	0	4.266	0	234.3	4	96.4	4	-1E+10	1	-1E+10	1	-1E+10	1	-1E+10	1	-1E+10	1	-1E+10	1
4901784	196	C	11/15/2020	10:43	-133.839	43.638	0	6.00	0	15.8000	0	35.4760	8	26.161	0	5.952	0	234.3	4	96.3	4	-1E+10	1	-1E+10	1	-1E+10	1	-1E+10	1	-1E+10	1	-1E+10	1
4901784	196	C	11/15/2020	10:43	-133.839	43.638	0	7.80	0	15.7950	0	35.4790	8	26.164	0	7.738	0	234.2	4	96.3	4	-1E+10	1	-1E+10	1	-1E+10	1	-1E+10	1	-1E+10	1	-1E+10	1
4901784	196	C	11/15/2020	10:43	-133.839	43.638	0	9.90	0	15.8000	0	35.4780	8	26.162	0	9.821	0	234.1	4	96.3	4	-1E+10	1	-1E+10	1	-1E+10	1	-1E+10	1	-1E+10	1	-1E+10	1
4901784	196	C	11/15/2020	10:43	-133.839	43.638	0	11.90	0	15.8050	0	35.4790	8	26.162	0	11.805	0	234.0	4	96.2	4	-1E+10	1	-1E+10	1	-1E+10	1	-1E+10	1	-1E+10	1	-1E+10	1
4901784	196	C	11/15/2020	10:43	-133.839	43.638	0	14.00	0	15.8040	0	35.4800	8	26.163	0	13.888	0	234.0	4	96.2	4	-1E+10	1	-1E+10	1	-1E+10	1	-1E+10	1	-1E+10	1	-1E+10	1
4901784	196	C	11/15/2020	10:43	-133.839	43.638	0	16.20	0	15.8030	0	35.4810	8	26.164	0	16.070	0	233.9	4	96.2	4	-1E+10	1	-1E+10	1	-1E+10	1	-1E+10	1	-1E+10	1	-1E+10	1
4901784	196	C	11/15/2020	10:43	-133.839	43.638	0	18.30	0	15.8010	0	35.4820	8	26.166	0	18.153	0	233.9	4	96.2	4	-1E+10	1	-1E+10	1	-1E+10	1	-1E+10	1	-1E+10	1	-1E+10	1
4901784	196	C	11/15/2020	10:43	-133.839	43.638	0	20.50	0	15.8030	0	35.4830	8	26.166	0	20.335	0	233.8	4	96.2	4	-1E+10	1	-1E+10	1	-1E+10	1	-1E+10	1	-1E+10	1	-1E+10	1
4901784	196	C	11/15/2020	10:43	-133.839	43.638	0	22.50	0	15.8030	0	35.4840	8	26.167	0	22.319	0	233.7	4	96.1	4	-1E+10	1	-1E+10	1	-1E+10	1	-1E+10	1	-1E+10	1	-1E+10	1
4901784	196	C	11/15/2020	10:43	-133.839	43.638	0	24.30	0	15.8050	0	35.4850	8	26.167	0	24.104	0	233.7	4	96.1	4	-1E+10	1	-1E+10	1	-1E+10	1	-1E+10	1	-1E+10	1	-1E+10	1
4901784	196	C	11/15/2020	10:43	-133.839	43.638	0	26.20	0	15.8050	0	35.4870	8	26.169	0	25.989	0	233.5	4	96.0	4	-1E+10	1	-1E+10	1	-1E+10	1	-1E+10	1	-1E+10	1	-1E+10	1
4901784	196	C	11/15/2020	10:43	-133.839	43.638	0	28.30	0	15.8030	0	35.4880	8	26.170	0	28.072	0	233.4	4	96.0	4	-1E+10	1	-1E+10	1	-1E+10	1	-1E+10	1	-1E+10	1	-1E+10	1
4901784	196	C	11/15/2020	10:43	-133.839	43.638	0	30.20	0	15.8080	0	35.4880	8	26.169	0	29.956	0	233.2	4	95.9	4	-1E+10	1	-1E+10	1	-1E+10	1	-1E+10	1	-1E+10	1	-1E+10	1
4901784	196	C	11/15/2020	10:43	-133.839	43.638	0	32.30	0	15.8090	0	35.4890	8	26.170	0	32.039	0	233.3	4	96.0	4	-1E+10	1	-1E+10	1	-1E+10	1	-1E+10	1	-1E+10	1	-1E+10	1
4901784	196	C	11/15/2020	10:43	-133.839	43.638	0	34.40	0	15.8080	0	35.4910	8	26.171	0	34.122	0	232.9	4	95.8	4	-1E+10	1	-1E+10	1	-1E+10	1	-1E+10	1	-1E+10	1	-1E+10	1
4901784	196	C	11/15/2020	10:43	-133.839	43.638	0	36.30	0	15.8080	0	35.4920	8	26.172	0	36.007	0	233.1	4	95.9	4	-1E+10	1	-1E+10	1	-1E+10	1	-1E+10	1	-1E+10	1	-1E+10	1
4901784	196	C	11/15/2020	10:43	-133.839	43.638	0	38.30	0	15.8080	0	35.4930	8	26.173	0	37.990	0	232.8	4	95.8	4	-1E+10	1	-1E+10	1	-1E+10	1	-1E+10	1	-1E+10	1	-1E+10	1
4901784	196	C	11/15/2020	10:43	-133.839	43.638	0	40.30	0	15.8080	0	35.4940	8	26.174	0	39.974	0	232.6	4	95.7	4	-1E+10	1	-1E+10	1	-1E+10	1	-1E+10	1	-1E+10	1	-1E+10	1
4901784	196	C	11/15/2020	10:43	-133.839	43.638	0	42.30	0	15.8090	0	35.4950	8	26.175	0	41.958	0	232.8	4	95.8	4	-1E+10	1	-1E+10	1	-1E+10	1	-1E+10	1	-1E+10	1	-1E+10	1
4901784	196	C	11/15/2020	10:43	-133.839	43.638	0	44.30	0	15.8090	0	35.4960	8	26.175	0	43.941	0	232.6	4	95.7	4	-1E+10	1	-1E+10	1	-1E+10	1	-1E+10	1	-1E+10	1	-1E+10	1
4901784	196	C	11/15/2020	10:43	-133.839	43.638	0	46.30	0	15.8100	0	35.4970	8	26.176	0	45.925	0	232.4	4	95.6	4	-1E+10	1	-1E+10	1	-1E+10	1	-1E+10	1	-1E+10	1	-1E+10	1
4901784	196	C	11/15/2020	10:43	-133.839	43.638	0	48.30	0	15.8100	0	35.4970	8	26.176	0	47.908	0	232.3	4	95.6	4	-1E+10	1	-1E+10	1	-1E+10	1	-1E+10	1	-1E+10	1	-1E+10	1
4901784	196	C	11/15/2020	10:43	-133.839	43.638	0	50.20	0	15.8100	0	35.4970	8	26.176	0	49.793	0	232.2	4	95.5	4	-1E+10	1	-1E+10	1	-1E+10	1	-1E+10	1	-1E+10	1	-1E+10	1
4901784	196	C	11/15/2020	10:43	-133.839	43.638	0	52.10	0	15.8100	0	35.4970	8	26.176	0	51.677	0	232.3	4	95.6	4	-1E+10	1	-1E+10	1	-1E+10	1	-1E+10	1	-1E+10	1	-1E+10	1
4901784	196	C	11/15/2020	10:43	-133.839	43.638	0	53.90	0	15.8100	0	35.4950	8	26.175	0	53.462	0	232.0	4	95.4	4	-1E+10	1	-1E+10	1	-1E+10	1	-1E+10	1	-1E+10	1	-1E+10	1
4901784	196	C	11/15/2020	10:43	-133.839	43.638	0	56.20	0	15.8110	0	35.4920	8	26.172	0	55.743	0	232.3	4	95.6	4	-1E+10	1	-1E+10	1	-1E+10	1	-1E+10	1	-1E+10	1	-1E+10	1
4901784	196	C	11/15/2020	10:43	-133.839	43.638	0	57.90	0	15.8110	0	35.4870	8	26.169	0	57.429	0	232.6	4	95.7	4	-1E+10	1	-1E+10	1	-1E+10	1	-1E+10	1	-1E+10	1	-1E+10	1
4901784	196	C	11/15/2020	10:43	-133.839	43.638	0	59.30	0	15.8110	0	35.4790	8	26.162	0	58.818	0	233.3	4	96.0	4	-1E+10	1	-1E+10	1	-1E+10	1	-1E+10	1	-1E+10	1	-1E+10	1
4901784	196	C	11/15/2020	10:43	-133.839	43.638	0	60.70	0	15.8110	0	35.4660	8	26.152	0	60.206	0	234.4	4	96.4	4	-1E+10	1	-1E+10	1	-1E+10	1	-1E+10	1	-1E+10	1	-1E+10	1
4901784	196	C	11/15/2020	10:43	-133.839	43.638	0	62.10	0	15.8120	8	35.4430	8	26.135	0	61.594	0	235.7	4	96.9	4	-1E+10	1	-1E+10	1	-1E+10	1	-1E+10	1	-1E+10	1	-1E+10	1
4901784	196	C	11/15/2020	10:43	-133.839	43.638	0	63.30	0	15.8070	8	35.3950	8	26.099	0	62.784	0	238.0	4	97.8	4	-1E+10	1	-1E+10	1	-1E+10	1	-1E+10	1	-1E+10	1	-1E+10	1
4901784	196	C	11/15/2020	10:43	-133.839	43.638	0	65.00	0	15.0660	0	35.4120	8	26.278	0	64.470	0	244.1	4	98.9	4	-1E+10	1	-1E+10	1	-1E+10	1	-1E+10	1	-1E+10	1	-1E+10	1
4901784	196	C	11/15/2020	10:43	-133.839	43.638	0	66.50	0	13.8800	0	35.4210	8	26.541	0	65.958	0	251.1	4	99.4	4	-1E+10	1	-1E+10	1	-1E+10	1	-1E+10	1	-1E+10	1	-1E+10	1
4901784	196	C	11/15/2020	10:43	-133.839	43.638	0	67.70	0	12.9370	0	35.4740	8	26.775	0	67.148	0	257.6	4	100.1	4	-1E+10	1	-1E+10	1	-1E+10	1	-1E+10	1	-1E+10	1	-1E+10	1
4901784	196	C	11/15/2020	10:43	-133.839	43.638	0	69.20	0	12.3900	0	35.4950	8	26.900	0	68.635	0	260.3	4	100.0	4	-1E+10	1	-1E+10	1	-1E+10	1	-1E+10	1	-1E+10	1	-1E+10	1
4901784	196	C	11/15/2020	10:43	-133.839	43.638	0	70.60	0	11.9310	0	35.5240	8	27.012	0	70.024	0	261.0	4	99.4	4	-1E+10	1	-1E+10	1	-1E+10	1	-1E+10	1	-1E+10	1	-1E+10	1
4901784	196	C	11/15/2020	10:43	-133.839	43.638	0	72.00	0	11.6970	0	35.5250	8	27.057	0	71.412	0	260.8	4	98.8	4	-1E+10	1	-1E+10	1	-1E+10	1	-1E+10	1	-1E+10	1	-1E+10	1
4901784	196	C	11/15/2020	10:43	-133.839	43.638	0	73.60	0	11.5550	0	35.5200	8	27.080	0	72.999	0	259.5	4	98.0	4	-1E+10	1	-1E+10	1	-1E+10	1	-1E+10	1	-1E+10	1	-1E+10	1
4901784	196	C	11/15/2020	10:43	-133.839	43.638	0	75.20	0	11.2900	0	35.5270	8	27.135	0	74.585	0	258.3	4	97.0	4	-1E+10	1	-1E+10	1	-1E+10	1	-1E+10	1	-1E+10	1	-1E+10	1
4901784	196	C	11/15/2020	10:43	-133.839	43.638	0	76.70	0	11.2220	0	35.5280	8	27.148	0	76.073	0	257.3	4	96.5	4	-1E+10	1	-1E+10	1	-1E+10	1	-1E+10	1	-1E+10	1	-1E+10	1
4901784	196	C	11/15/2020	10:43	-133.839	43.638	0	78.30	0	11.1690	0	35.5260	8	27.157	0	77.659	0	255.8	4	95.8	4	-1E+10	1	-1E+10	1	-1E+10	1	-1E+10	1	-1E+10	1	-1E+10	1
4901784	196	C	11/15/2020	10:43	-133.839	43.638	0	80.00	0	11.0500	0	35.5310	8	27.182	0	79.345	0	254.7	4	95.2	4	-1E+10	1	-1E+10	1	-1E+10	1	-1E+10	1	-1E+10	1	-1E+10	1
4901784	196	C	11/15/2020	10:43	-133.839	43.638	0	81.80	0	10.9880	0	35.5270	8	27.191	0	81.130	0	253.3	4	94.6	4	-1E+10	1	-1E+10	1	-1E+10	1	-1E+10	1	-1E+10	1	-1E+10	1
4901784	196	C	11/15/2020	10:43	-133.839	43.638	0	83.50	0	10.8310	0	35.5370	8	27.227	0	82.816	0	252.7	4	94.0	4	-1E+10	1	-1E+10	1	-1E+10	1	-1E+10	1	-1E+10	1	-1E+10	1
4901784	196	C	11/15/2020	10:43	-133.839	43.638	0	85.30	0	10.7730	0	35.5360	8	27.237	0	84.601	0	251.4	4	93.4	4	-1E+10	1	-1E+10	1	-1E+10	1	-1E+10	1	-1E+10	1	-1E+10	1
4901784	196	C	11/15/2020	10:43	-133.839	43.638	0	87.00	0	10.5990	0	35.5400	8	27.271	0	86.286	0	250.9	4	92.9	4	-1E+10	1	-1E+10	1	-1E+10	1	-1E+10	1	-1E+10	1	-1E+10	1
4901784	196	C	11/15/2020	10:43	-133.839	43.638	0	88.80	0	10.5300	0	35.5390	8	27.283	0	88.071	0	250.2	4	92.5	4	-1E+10	1	-1E+10	1	-1E+10	1	-1E+10	1	-1E+10	1	-1E+10	1
4901784	196	C	11/15/2020	10:43	-133.839	43.638	0	90.50	0	10.4380	0	35.5460	8	27.304	0	89.757	0	249.3	4	92.0	4	-1E+10	1	-1E+10	1	-1E+10	1	-1E+10	1	-1E+10	1	-1E+10	1
4901784	196	C	11/15/2020	10:43	-133.839	43.638	0	92.20	0	10.3900	0	35.5430	8	27.310	0	91.443	0	249.0	4	91.8	4	-1E+10	1	-1E+10	1	-1E+10	1	-1E+10	1	-1E+10	1	-1E+10	1
4901784	196	C	11/15/2020	10:43	-133.839	43.638	0	94.00	0	10.3320	0	35.5420	8	27.320	0	93.227	0	248.7	4	91.6	4	-1E+10	1	-1E+10	1	-1E+10	1	-1E+10	1	-1E+10	1	-1E+10	1
4901784	196	C	11/15/2020	10:43	-133.839	43.638	0	95.70	0	10.2880	0	35.5400	8	27.326	0	94.913	0	248.1	4	91.3	4	-1E+10	1	-1E+10	1	-1E+10	1	-1E+10	1	-1E+10	1	-1E+10	1
4901784	196	C	11/15/2020	10:43	-133.839	43.638	0	97.50	0	10.1910	0	35.5420	8	27.345	0	96.698	0	247.8	4	91.0	4	-1E+10	1	-1E+10	1	-1E+10	1	-1E+10	1	-1E+10	1	-1E+10	1
4901784	196	C	11/15/2020	10:43	-133.839	43.638	0	99.10	0	10.1020	0	35.5430	8	27.361	0	98.284	0	247.6	4	90.7	4	-1E+10	1	-1E+10	1	-1E+10	1	-1E+10	1	-1E+10	1	-1E+10	1
4901784	196	C	11/15/2020	10:43	-133.839	43.638	0	102.50	0	10.0170	0	35.5500	8	27.381	0	101.655	0	247.2	4	90.4	4	-1E+10	1	-1E+10	1	-1E+10	1	-1E+10	1	-1E+10	1	-1E+10	1
4901784	196	C	11/15/2020	10:43	-133.839	43.638	0	105.10	0	9.9780	0	35.5520	8	27.390	0	104.233	0	246.8	4	90.2	4	-1E+10	1	-1E+10	1	-1E+10	1	-1E+10	1	-1E+10	1	-1E+10	1
4901784	196	C	11/15/2020	10:43	-133.839	43.638	0	107.60	0	9.9060	0	35.5620	8	27.410	0	106.712	0	246.5	4	89.9	4	-1E+10	1	-1E+10	1	-1E+10	1	-1E+10	1	-1E+10	1	-1E+10	1
4901784	196	C	11/15/2020	10:43	-133.839	43.638	0	110.20	0	9.8860	0	35.5660	8	27.416	0	109.290	0	246.6	4	89.9	4	-1E+10	1	-1E+10	1	-1E+10	1	-1E+10	1	-1E+10	1	-1E+10	1
4901784	196	C	11/15/2020	10:43	-133.839	43.638	0	112.70	0	9.8480	0	35.5660	8	27.423	0	111.769	0	246.6	4	89.9	4	-1E+10	1	-1E+10	1	-1E+10	1	-1E+10	1	-1E+10	1	-1E+10	1
4901784	196	C	11/15/2020	10:43	-133.839	43.638	0	115.30	0	9.7930	0	35.5690	8	27.435	0	114.346	0	246.6	4	89.8	4	-1E+10	1	-1E+10	1	-1E+10	1	-1E+10	1	-1E+10	1	-1E+10	1
4901784	196	C	11/15/2020	10:43	-133.839	43.638	0	117.90	0	9.7250	0	35.5730	8	27.449	0	116.924	0	246.9	4	89.8	4	-1E+10	1	-1E+10	1	-1E+10	1	-1E+10	1	-1E+10	1	-1E+10	1
4901784	196	C	11/15/2020	10:43	-133.839	43.638	0	120.40	0	9.6830	0	35.5750	8	27.458	0	119.403	0	247.1	4	89.8	4	-1E+10	1	-1E+10	1	-1E+10	1	-1E+10	1	-1E+10	1	-1E+10	1
4901784	196	C	11/15/2020	10:43	-133.839	43.638	0	122.90	0	9.6560	0	35.5740	8	27.462	0	121.881	0	247.2	4	89.7	4	-1E+10	1	-1E+10	1	-1E+10	1	-1E+10	1	-1E+10	1	-1E+10	1
4901784	196	C	11/15/2020	10:43	-133.839	43.638	0	124.60	0	9.6080	0	35.5800	8	27.475	0	123.567	0	247.3	4	89.7	4	-1E+10	1	-1E+10	1	-1E+10	1	-1E+10	1	-1E+10	1	-1E+10	1
4901784	196	C	11/15/2020	10:43	-133.839	43.638	0	127.20	0	9.5710	0	35.5820	8	27.483	0	126.144	0	247.2	4	89.5	4	-1E+10	1	-1E+10	1	-1E+10	1	-1E+10	1	-1E+10	1	-1E+10	1
4901784	196	C	11/15/2020	10:43	-133.839	43.638	0	129.80	0	9.5390	0	35.5920	8	27.496	0	128.722	0	246.7	4	89.3	4	-1E+10	1	-1E+10	1	-1E+10	1	-1E+10	1	-1E+10	1	-1E+10	1
4901784	196	C	11/15/2020	10:43	-133.839	43.638	0	132.40	0	9.4840	0	35.6120	8	27.521	0	131.300	0	245.6	4	88.9	4	-1E+10	1	-1E+10	1	-1E+10	1	-1E+10	1	-1E+10	1	-1E+10	1
4901784	196	C	11/15/2020	10:43	-133.839	43.638	0	135.60	0	9.4140	0	35.6270	8	27.544	0	134.472	0	244.5	4	88.3	4	-1E+10	1	-1E+10	1	-1E+10	1	-1E+10	1	-1E+10	1	-1E+10	1
4901784	196	C	11/15/2020	10:43	-133.839	43.638	0	137.30	0	9.4020	0	35.6270	8	27.546	0	136.157	0	242.9	4	87.7	4	-1E+10	1	-1E+10	1	-1E+10	1	-1E+10	1	-1E+10	1	-1E+10	1
4901784	196	C	11/15/2020	10:43	-133.839	43.638	0	139.50	0	9.3090	0	35.6240	8	27.559	0	138.338	0	241.2	4	86.9	4	-1E+10	1	-1E+10	1	-1E+10	1	-1E+10	1	-1E+10	1	-1E+10	1
4901784	196	C	11/15/2020	10:43	-133.839	43.638	0	142.40	0	9.2090	0	35.6310	8	27.581	0	141.213	0	237.6	4	85.4	4	-1E+10	1	-1E+10	1	-1E+10	1	-1E+10	1	-1E+10	1	-1E+10	1
4901784	196	C	11/15/2020	10:43	-133.839	43.638	0	144.70	0	9.0920	0	35.6420	8	27.609	0	143.493	0	234.1	4	84.0	4	-1E+10	1	-1E+10	1	-1E+10	1	-1E+10	1	-1E+10	1	-1E+10	1
4901784	196	C	11/15/2020	10:43	-133.839	43.638	0	147.10	0	9.0370	0	35.7000	8	27.664	0	145.872	0	229.3	4	82.2	4	-1E+10	1	-1E+10	1	-1E+10	1	-1E+10	1	-1E+10	1	-1E+10	1
4901784	196	C	11/15/2020	10:43	-133.839	43.638	0	150.40	0	8.8600	0	35.7960	8	27.767	0	149.144	0	225.0	4	80.4	4	-1E+10	1	-1E+10	1	-1E+10	1	-1E+10	1	-1E+10	1	-1E+10	1
4901784	196	C	11/15/2020	10:43	-133.839	43.638	0	152.90	0	8.7790	0	35.8430	8	27.817	0	151.622	0	223.0	4	79.6	4	-1E+10	1	-1E+10	1	-1E+10	1	-1E+10	1	-1E+10	1	-1E+10	1
4901784	196	C	11/15/2020	10:43	-133.839	43.638	0	154.60	0	8.7570	0	35.8530	8	27.829	0	153.307	0	221.9	4	79.1	4	-1E+10	1	-1E+10	1	-1E+10	1	-1E+10	1	-1E+10	1	-1E+10	1
4901784	196	C	11/15/2020	10:43	-133.839	43.638	0	157.10	0	8.7180	0	35.8720	8	27.850	0	155.785	0	219.5	4	78.2	4	-1E+10	1	-1E+10	1	-1E+10	1	-1E+10	1	-1E+10	1	-1E+10	1
4901784	196	C	11/15/2020	10:43	-133.839	43.638	0	159.70	0	8.6640	0	35.8930	8	27.875	0	158.362	0	216.7	4	77.1	4	-1E+10	1	-1E+10	1	-1E+10	1	-1E+10	1	-1E+10	1	-1E+10	1
4901784	196	C	11/15/2020	10:43	-133.839	43.638	0	162.30	0	8.5130	0	35.9700	8	27.959	0	160.940	0	213.7	4	75.9	4	-1E+10	1	-1E+10	1	-1E+10	1	-1E+10	1	-1E+10	1	-1E+10	1
4901784	196	C	11/15/2020	10:43	-133.839	43.638	0	164.90	0	8.4350	0	36.0100	8	28.003	0	163.517	0	210.7	4	74.7	4	-1E+10	1	-1E+10	1	-1E+10	1	-1E+10	1	-1E+10	1	-1E+10	1
4901784	196	C	11/15/2020	10:43	-133.839	43.638	0	167.60	0	8.2450	0	36.1020	8	28.105	0	166.193	0	207.8	4	73.4	4	-1E+10	1	-1E+10	1	-1E+10	1	-1E+10	1	-1E+10	1	-1E+10	1
4901784	196	C	11/15/2020	10:43	-133.839	43.638	0	170.30	0	8.1660	0	36.1310	8	28.140	0	168.869	0	205.8	4	72.6	4	-1E+10	1	-1E+10	1	-1E+10	1	-1E+10	1	-1E+10	1	-1E+10	1
4901784	196	C	11/15/2020	10:43	-133.839	43.638	0	172.10	0	8.1420	0	36.1360	8	28.148	0	170.653	0	204.5	4	72.1	4	-1E+10	1	-1E+10	1	-1E+10	1	-1E+10	1	-1E+10	1	-1E+10	1
4901784	196	C	11/15/2020	10:43	-133.839	43.638	0	174.90	0	8.0760	0	36.1590	8	28.176	0	173.429	0	202.1	4	71.2	4	-1E+10	1	-1E+10	1	-1E+10	1	-1E+10	1	-1E+10	1	-1E+10	1
4901784	196	C	11/15/2020	10:43	-133.839	43.638	0	177.10	0	8.0000	0	36.1890	8	28.211	0	175.609	0	200.3	4	70.4	4	-1E+10	1	-1E+10	1	-1E+10	1	-1E+10	1	-1E+10	1	-1E+10	1
4901784	196	C	11/15/2020	10:43	-133.839	43.638	0	180.10	0	7.7620	0	36.2860	8	28.324	0	178.583	0	199.5	4	69.8	4	-1E+10	1	-1E+10	1	-1E+10	1	-1E+10	1	-1E+10	1	-1E+10	1
4901784	196	C	11/15/2020	10:43	-133.839	43.638	0	182.40	0	7.6860	0	36.3220	8	28.363	0	180.862	0	198.6	4	69.4	4	-1E+10	1	-1E+10	1	-1E+10	1	-1E+10	1	-1E+10	1	-1E+10	1
4901784	196	C	11/15/2020	10:43	-133.839	43.638	0	184.70	0	7.5780	0	36.3930	8	28.435	0	183.142	0	197.8	4	69.0	4	-1E+10	1	-1E+10	1	-1E+10	1	-1E+10	1	-1E+10	1	-1E+10	1
4901784	196	C	11/15/2020	10:43	-133.839	43.638	0	187.90	0	7.4930	0	36.4760	8	28.513	0	186.313	0	196.3	4	68.4	4	-1E+10	1	-1E+10	1	-1E+10	1	-1E+10	1	-1E+10	1	-1E+10	1
4901784	196	C	11/15/2020	10:43	-133.839	43.638	0	190.40	0	7.4670	0	36.5170	8	28.550	0	188.791	0	194.3	4	67.7	4	-1E+10	1	-1E+10	1	-1E+10	1	-1E+10	1	-1E+10	1	-1E+10	1
4901784	196	C	11/15/2020	10:43	-133.839	43.638	0	192.80	0	7.4370	0	36.5490	8	28.579	0	191.170	0	192.7	4	67.1	4	-1E+10	1	-1E+10	1	-1E+10	1	-1E+10	1	-1E+10	1	-1E+10	1
4901784	196	C	11/15/2020	10:43	-133.839	43.638	0	195.20	0	7.4250	0	36.5780	8	28.604	0	193.548	0	190.9	4	66.4	4	-1E+10	1	-1E+10	1	-1E+10	1	-1E+10	1	-1E+10	1	-1E+10	1
4901784	196	C	11/15/2020	10:43	-133.839	43.638	0	197.50	0	7.4310	0	36.6210	8	28.637	0	195.828	0	188.5	4	65.6	4	-1E+10	1	-1E+10	1	-1E+10	1	-1E+10	1	-1E+10	1	-1E+10	1
4901784	196	C	11/15/2020	10:43	-133.839	43.638	0	199.90	0	7.4330	0	36.6460	8	28.656	0	198.206	0	186.0	4	64.8	4	-1E+10	1	-1E+10	1	-1E+10	1	-1E+10	1	-1E+10	1	-1E+10	1
4901784	196	C	11/15/2020	10:43	-133.839	43.638	0	202.20	0	7.4500	0	36.6940	8	28.692	0	200.486	0	182.9	4	63.7	4	-1E+10	1	-1E+10	1	-1E+10	1	-1E+10	1	-1E+10	1	-1E+10	1
4901784	196	C	11/15/2020	10:43	-133.839	43.638	0	205.20	0	7.5160	0	36.7520	8	28.728	0	203.459	0	179.9	4	62.8	4	-1E+10	1	-1E+10	1	-1E+10	1	-1E+10	1	-1E+10	1	-1E+10	1
4901784	196	C	11/15/2020	10:43	-133.839	43.638	0	207.50	0	7.5380	0	36.7580	8	28.729	0	205.738	0	178.1	4	62.2	4	-1E+10	1	-1E+10	1	-1E+10	1	-1E+10	1	-1E+10	1	-1E+10	1
4901784	196	C	11/15/2020	10:43	-133.839	43.638	0	210.30	0	7.5390	0	36.7400	8	28.715	0	208.513	0	176.7	4	61.7	4	-1E+10	1	-1E+10	1	-1E+10	1	-1E+10	1	-1E+10	1	-1E+10	1
4901784	196	C	11/15/2020	10:43	-133.839	43.638	0	212.40	0	7.5280	0	36.7320	8	28.710	0	210.594	0	175.1	4	61.2	4	-1E+10	1	-1E+10	1	-1E+10	1	-1E+10	1	-1E+10	1	-1E+10	1
4901784	196	C	11/15/2020	10:43	-133.839	43.638	0	214.60	0	7.5470	0	36.7330	8	28.708	0	212.774	0	173.2	4	60.5	4	-1E+10	1	-1E+10	1	-1E+10	1	-1E+10	1	-1E+10	1	-1E+10	1
4901784	196	C	11/15/2020	10:43	-133.839	43.638	0	217.70	0	7.5610	0	36.7530	8	28.722	0	215.846	0	170.4	4	59.6	4	-1E+10	1	-1E+10	1	-1E+10	1	-1E+10	1	-1E+10	1	-1E+10	1
4901784	196	C	11/15/2020	10:43	-133.839	43.638	0	220.10	0	7.5590	0	36.7740	8	28.739	0	218.224	0	168.4	4	58.9	4	-1E+10	1	-1E+10	1	-1E+10	1	-1E+10	1	-1E+10	1	-1E+10	1
4901784	196	C	11/15/2020	10:43	-133.839	43.638	0	222.40	0	7.5830	0	36.7980	8	28.754	0	220.504	0	166.2	4	58.1	4	-1E+10	1	-1E+10	1	-1E+10	1	-1E+10	1	-1E+10	1	-1E+10	1
4901784	196	C	11/15/2020	10:43	-133.839	43.638	0	224.70	0	7.5790	0	36.8140	8	28.767	0	222.783	0	164.3	4	57.5	4	-1E+10	1	-1E+10	1	-1E+10	1	-1E+10	1	-1E+10	1	-1E+10	1
4901784	196	C	11/15/2020	10:43	-133.839	43.638	0	227.20	0	7.5890	0	36.8170	8	28.768	0	225.260	0	162.7	4	56.9	4	-1E+10	1	-1E+10	1	-1E+10	1	-1E+10	1	-1E+10	1	-1E+10	1
4901784	196	C	11/15/2020	10:43	-133.839	43.638	0	229.60	0	7.5930	0	36.8310	8	28.779	0	227.638	0	161.1	4	56.4	4	-1E+10	1	-1E+10	1	-1E+10	1	-1E+10	1	-1E+10	1	-1E+10	1
4901784	196	C	11/15/2020	10:43	-133.839	43.638	0	232.20	0	7.5950	0	36.8280	8	28.776	0	230.215	0	159.6	4	55.9	4	-1E+10	1	-1E+10	1	-1E+10	1	-1E+10	1	-1E+10	1	-1E+10	1
4901784	196	C	11/15/2020	10:43	-133.839	43.638	0	234.80	0	7.5830	0	36.8280	8	28.778	0	232.791	0	158.3	4	55.4	4	-1E+10	1	-1E+10	1	-1E+10	1	-1E+10	1	-1E+10	1	-1E+10	1
4901784	196	C	11/15/2020	10:43	-133.839	43.638	0	237.40	0	7.5590	0	36.8390	8	28.790	0	235.367	0	157.3	4	55.0	4	-1E+10	1	-1E+10	1	-1E+10	1	-1E+10	1	-1E+10	1	-1E+10	1
4901784	196	C	11/15/2020	10:43	-133.839	43.638	0	240.00	0	7.5090	0	36.8360	8	28.795	0	237.943	0	156.6	4	54.7	4	-1E+10	1	-1E+10	1	-1E+10	1	-1E+10	1	-1E+10	1	-1E+10	1
4901784	196	C	11/15/2020	10:43	-133.839	43.638	0	242.60	0	7.4890	0	36.8400	8	28.802	0	240.520	0	156.2	4	54.6	4	-1E+10	1	-1E+10	1	-1E+10	1	-1E+10	1	-1E+10	1	-1E+10	1
4901784	196	C	11/15/2020	10:43	-133.839	43.638	0	245.20	0	7.4790	0	36.8430	8	28.805	0	243.096	0	155.7	4	54.4	4	-1E+10	1	-1E+10	1	-1E+10	1	-1E+10	1	-1E+10	1	-1E+10	1
4901784	196	C	11/15/2020	10:43	-133.839	43.638	0	247.00	0	7.4730	0	36.8320	8	28.798	0	244.879	0	155.0	4	54.1	4	-1E+10	1	-1E+10	1	-1E+10	1	-1E+10	1	-1E+10	1	-1E+10	1
4901784	196	C	11/15/2020	10:43	-133.839	43.638	0	249.70	0	7.4330	0	36.8350	8	28.806	0	247.555	0	154.1	4	53.7	4	-1E+10	1	-1E+10	1	-1E+10	1	-1E+10	1	-1E+10	1	-1E+10	1
4901784	196	C	11/15/2020	10:43	-133.839	43.638	0	252.40	0	7.3900	0	36.8320	8	28.810	0	250.230	0	153.4	4	53.4	4	-1E+10	1	-1E+10	1	-1E+10	1	-1E+10	1	-1E+10	1	-1E+10	1
4901784	196	C	11/15/2020	10:43	-133.839	43.638	0	255.10	0	7.3580	0	36.8320	8	28.815	0	252.905	0	152.8	4	53.2	4	-1E+10	1	-1E+10	1	-1E+10	1	-1E+10	1	-1E+10	1	-1E+10	1
4901784	196	C	11/15/2020	10:43	-133.839	43.638	0	257.80	0	7.3070	0	36.8330	8	28.823	0	255.580	0	152.1	4	52.9	4	-1E+10	1	-1E+10	1	-1E+10	1	-1E+10	1	-1E+10	1	-1E+10	1
4901784	196	C	11/15/2020	10:43	-133.839	43.638	0	259.60	0	7.2690	0	36.8360	8	28.831	0	257.363	0	151.8	4	52.7	4	-1E+10	1	-1E+10	1	-1E+10	1	-1E+10	1	-1E+10	1	-1E+10	1
4901784	196	C	11/15/2020	10:43	-133.839	43.638	0	262.30	0	7.2290	0	36.8020	8	28.810	0	260.038	0	151.4	4	52.6	4	-1E+10	1	-1E+10	1	-1E+10	1	-1E+10	1	-1E+10	1	-1E+10	1
4901784	196	C	11/15/2020	10:43	-133.839	43.638	0	265.00	0	7.2090	0	36.7760	8	28.793	0	262.713	0	151.1	4	52.4	4	-1E+10	1	-1E+10	1	-1E+10	1	-1E+10	1	-1E+10	1	-1E+10	1
4901784	196	C	11/15/2020	10:43	-133.839	43.638	0	267.60	0	7.1820	0	36.7840	8	28.803	0	265.289	0	150.5	4	52.2	4	-1E+10	1	-1E+10	1	-1E+10	1	-1E+10	1	-1E+10	1	-1E+10	1
4901784	196	C	11/15/2020	10:43	-133.839	43.638	0	270.30	0	7.1690	0	36.7770	8	28.799	0	267.964	0	149.9	4	52.0	4	-1E+10	1	-1E+10	1	-1E+10	1	-1E+10	1	-1E+10	1	-1E+10	1
4901784	196	C	11/15/2020	10:43	-133.839	43.638	0	272.10	0	7.1460	0	36.7720	8	28.799	0	269.748	0	149.4	4	51.8	4	-1E+10	1	-1E+10	1	-1E+10	1	-1E+10	1	-1E+10	1	-1E+10	1
4901784	196	C	11/15/2020	10:43	-133.839	43.638	0	274.80	0	7.0900	0	36.7710	8	28.806	0	272.422	0	148.9	4	51.5	4	-1E+10	1	-1E+10	1	-1E+10	1	-1E+10	1	-1E+10	1	-1E+10	1
4901784	196	C	11/15/2020	10:43	-133.839	43.638	0	277.50	0	7.0720	0	36.7540	8	28.795	0	275.097	0	148.4	4	51.3	4	-1E+10	1	-1E+10	1	-1E+10	1	-1E+10	1	-1E+10	1	-1E+10	1
4901784	196	C	11/15/2020	10:43	-133.839	43.638	0	280.30	0	7.0610	0	36.7360	8	28.783	0	277.871	0	147.5	4	51.0	4	-1E+10	1	-1E+10	1	-1E+10	1	-1E+10	1	-1E+10	1	-1E+10	1
4901784	196	C	11/15/2020	10:43	-133.839	43.638	0	283.00	0	7.0130	0	36.7280	8	28.783	0	280.546	0	146.7	4	50.6	4	-1E+10	1	-1E+10	1	-1E+10	1	-1E+10	1	-1E+10	1	-1E+10	1
4901784	196	C	11/15/2020	10:43	-133.839	43.638	0	284.90	0	7.0030	0	36.7110	8	28.771	0	282.428	0	146.1	4	50.4	4	-1E+10	1	-1E+10	1	-1E+10	1	-1E+10	1	-1E+10	1	-1E+10	1
4901784	196	C	11/15/2020	10:43	-133.839	43.638	0	287.60	0	6.9780	0	36.7070	8	28.772	0	285.103	0	144.9	4	50.0	4	-1E+10	1	-1E+10	1	-1E+10	1	-1E+10	1	-1E+10	1	-1E+10	1
4901784	196	C	11/15/2020	10:43	-133.839	43.638	0	290.30	0	6.9380	0	36.7030	8	28.774	0	287.777	0	143.6	4	49.5	4	-1E+10	1	-1E+10	1	-1E+10	1	-1E+10	1	-1E+10	1	-1E+10	1
4901784	196	C	11/15/2020	10:43	-133.839	43.638	0	292.20	0	6.9060	0	36.7140	8	28.788	0	289.660	0	143.0	4	49.3	4	-1E+10	1	-1E+10	1	-1E+10	1	-1E+10	1	-1E+10	1	-1E+10	1
4901784	196	C	11/15/2020	10:43	-133.839	43.638	0	295.00	0	6.8800	8	36.7060	8	28.785	0	292.433	0	142.2	4	48.9	4	-1E+10	1	-1E+10	1	-1E+10	1	-1E+10	1	-1E+10	1	-1E+10	1
4901784	196	C	11/15/2020	10:43	-133.839	43.638	0	297.80	0	6.8340	8	36.6550	8	28.751	0	295.207	0	141.4	4	48.6	4	-1E+10	1	-1E+10	1	-1E+10	1	-1E+10	1	-1E+10	1	-1E+10	1
4901784	196	C	11/15/2020	10:43	-133.839	43.638	0	299.60	0	6.7980	0	36.6540	8	28.756	0	296.990	0	140.8	4	48.4	4	-1E+10	1	-1E+10	1	-1E+10	1	-1E+10	1	-1E+10	1	-1E+10	1
4901784	196	C	11/15/2020	10:43	-133.839	43.638	0	302.40	0	6.7380	0	36.6530	8	28.763	0	299.764	0	139.8	4	47.9	4	-1E+10	1	-1E+10	1	-1E+10	1	-1E+10	1	-1E+10	1	-1E+10	1
4901784	196	C	11/15/2020	10:43	-133.839	43.638	0	305.20	0	6.6970	0	36.6580	8	28.773	0	302.537	0	138.8	4	47.5	4	-1E+10	1	-1E+10	1	-1E+10	1	-1E+10	1	-1E+10	1	-1E+10	1
4901784	196	C	11/15/2020	10:43	-133.839	43.638	0	307.10	0	6.6790	0	36.6510	8	28.770	0	304.419	0	137.9	4	47.2	4	-1E+10	1	-1E+10	1	-1E+10	1	-1E+10	1	-1E+10	1	-1E+10	1
4901784	196	C	11/15/2020	10:43	-133.839	43.638	0	310.00	0	6.6220	0	36.6500	8	28.777	0	307.292	0	136.6	4	46.7	4	-1E+10	1	-1E+10	1	-1E+10	1	-1E+10	1	-1E+10	1	-1E+10	1
4901784	196	C	11/15/2020	10:43	-133.839	43.638	0	312.80	0	6.5970	0	36.6370	8	28.770	0	310.065	0	135.5	4	46.3	4	-1E+10	1	-1E+10	1	-1E+10	1	-1E+10	1	-1E+10	1	-1E+10	1
4901784	196	C	11/15/2020	10:43	-133.839	43.638	0	314.60	0	6.5620	0	36.6270	8	28.767	0	311.848	0	134.6	4	46.0	4	-1E+10	1	-1E+10	1	-1E+10	1	-1E+10	1	-1E+10	1	-1E+10	1
4901784	196	C	11/15/2020	10:43	-133.839	43.638	0	317.50	0	6.5480	0	36.6040	8	28.751	0	314.721	0	133.1	4	45.4	4	-1E+10	1	-1E+10	1	-1E+10	1	-1E+10	1	-1E+10	1	-1E+10	1
4901784	196	C	11/15/2020	10:43	-133.839	43.638	0	320.20	0	6.5000	0	36.6020	8	28.756	0	317.395	0	131.6	4	44.9	4	-1E+10	1	-1E+10	1	-1E+10	1	-1E+10	1	-1E+10	1	-1E+10	1
4901784	196	C	11/15/2020	10:43	-133.839	43.638	0	322.10	0	6.4760	0	36.6030	8	28.760	0	319.277	0	130.5	4	44.5	4	-1E+10	1	-1E+10	1	-1E+10	1	-1E+10	1	-1E+10	1	-1E+10	1
4901784	196	C	11/15/2020	10:43	-133.839	43.638	0	324.90	0	6.4370	0	36.5990	8	28.763	0	322.050	0	129.0	4	43.9	4	-1E+10	1	-1E+10	1	-1E+10	1	-1E+10	1	-1E+10	1	-1E+10	1
4901784	196	C	11/15/2020	10:43	-133.839	43.638	0	327.70	0	6.3810	0	36.5780	8	28.754	0	324.823	0	127.5	4	43.4	4	-1E+10	1	-1E+10	1	-1E+10	1	-1E+10	1	-1E+10	1	-1E+10	1
4901784	196	C	11/15/2020	10:43	-133.839	43.638	0	329.50	0	6.3570	0	36.5590	8	28.742	0	326.606	0	126.3	4	42.9	4	-1E+10	1	-1E+10	1	-1E+10	1	-1E+10	1	-1E+10	1	-1E+10	1
4901784	196	C	11/15/2020	10:43	-133.839	43.638	0	332.30	0	6.3250	0	36.5450	8	28.735	0	329.379	0	124.1	4	42.1	4	-1E+10	1	-1E+10	1	-1E+10	1	-1E+10	1	-1E+10	1	-1E+10	1
4901784	196	C	11/15/2020	10:43	-133.839	43.638	0	335.10	0	6.2310	0	36.5420	8	28.746	0	332.152	0	121.6	4	41.2	4	-1E+10	1	-1E+10	1	-1E+10	1	-1E+10	1	-1E+10	1	-1E+10	1
4901784	196	C	11/15/2020	10:43	-133.839	43.638	0	337.00	0	6.2290	0	36.5410	8	28.745	0	334.034	0	119.9	4	40.6	4	-1E+10	1	-1E+10	1	-1E+10	1	-1E+10	1	-1E+10	1	-1E+10	1
4901784	196	C	11/15/2020	10:43	-133.839	43.638	0	339.80	0	6.1890	0	36.5370	8	28.747	0	336.807	0	118.4	4	40.1	4	-1E+10	1	-1E+10	1	-1E+10	1	-1E+10	1	-1E+10	1	-1E+10	1
4901784	196	C	11/15/2020	10:43	-133.839	43.638	0	342.50	0	6.1410	0	36.5330	8	28.751	0	339.481	0	117.1	4	39.6	4	-1E+10	1	-1E+10	1	-1E+10	1	-1E+10	1	-1E+10	1	-1E+10	1
4901784	196	C	11/15/2020	10:43	-133.839	43.638	0	344.40	0	6.1210	0	36.5360	8	28.756	0	341.363	0	116.1	4	39.2	4	-1E+10	1	-1E+10	1	-1E+10	1	-1E+10	1	-1E+10	1	-1E+10	1
4901784	196	C	11/15/2020	10:43	-133.839	43.638	0	347.20	0	6.0830	0	36.5330	8	28.758	0	344.136	0	114.4	4	38.6	4	-1E+10	1	-1E+10	1	-1E+10	1	-1E+10	1	-1E+10	1	-1E+10	1
4901784	196	C	11/15/2020	10:43	-133.839	43.638	0	350.00	0	6.0380	0	36.5340	8	28.765	0	346.909	0	112.6	4	38.0	4	-1E+10	1	-1E+10	1	-1E+10	1	-1E+10	1	-1E+10	1	-1E+10	1
4901784	196	C	11/15/2020	10:43	-133.839	43.638	0	352.80	0	6.0100	0	36.5330	8	28.768	0	349.682	0	110.7	4	37.3	4	-1E+10	1	-1E+10	1	-1E+10	1	-1E+10	1	-1E+10	1	-1E+10	1
4901784	196	C	11/15/2020	10:43	-133.839	43.638	0	355.60	0	5.9760	0	36.5370	8	28.776	0	352.455	0	109.2	4	36.8	4	-1E+10	1	-1E+10	1	-1E+10	1	-1E+10	1	-1E+10	1	-1E+10	1
4901784	196	C	11/15/2020	10:43	-133.839	43.638	0	357.50	0	5.9640	0	36.5330	8	28.774	0	354.336	0	108.3	4	36.4	4	-1E+10	1	-1E+10	1	-1E+10	1	-1E+10	1	-1E+10	1	-1E+10	1
4901784	196	C	11/15/2020	10:43	-133.839	43.638	0	360.30	0	5.9280	0	36.5320	8	28.778	0	357.109	0	106.7	4	35.9	4	-1E+10	1	-1E+10	1	-1E+10	1	-1E+10	1	-1E+10	1	-1E+10	1
4901784	196	C	11/15/2020	10:43	-133.839	43.638	0	363.10	0	5.8890	0	36.5330	8	28.784	0	359.882	0	105.0	4	35.3	4	-1E+10	1	-1E+10	1	-1E+10	1	-1E+10	1	-1E+10	1	-1E+10	1
4901784	196	C	11/15/2020	10:43	-133.839	43.638	0	365.00	0	5.8700	0	36.5330	8	28.786	0	361.763	0	103.8	4	34.9	4	-1E+10	1	-1E+10	1	-1E+10	1	-1E+10	1	-1E+10	1	-1E+10	1
4901784	196	C	11/15/2020	10:43	-133.839	43.638	0	366.90	0	5.8450	0	36.5340	8	28.790	0	363.645	0	102.8	4	34.5	4	-1E+10	1	-1E+10	1	-1E+10	1	-1E+10	1	-1E+10	1	-1E+10	1
4901784	196	C	11/15/2020	10:43	-133.839	43.638	0	369.70	0	5.8100	0	36.5360	8	28.797	0	366.417	0	101.3	4	34.0	4	-1E+10	1	-1E+10	1	-1E+10	1	-1E+10	1	-1E+10	1	-1E+10	1
4901784	196	C	11/15/2020	10:43	-133.839	43.638	0	372.50	0	5.7870	0	36.5350	8	28.799	0	369.190	0	100.2	4	33.6	4	-1E+10	1	-1E+10	1	-1E+10	1	-1E+10	1	-1E+10	1	-1E+10	1
4901784	196	C	11/15/2020	10:43	-133.839	43.638	0	375.30	0	5.7440	0	36.5380	8	28.807	0	371.963	0	98.8	4	33.1	4	-1E+10	1	-1E+10	1	-1E+10	1	-1E+10	1	-1E+10	1	-1E+10	1
4901784	196	C	11/15/2020	10:43	-133.839	43.638	0	378.10	0	5.7060	0	36.5390	8	28.812	0	374.735	0	97.1	4	32.5	4	-1E+10	1	-1E+10	1	-1E+10	1	-1E+10	1	-1E+10	1	-1E+10	1
4901784	196	C	11/15/2020	10:43	-133.839	43.638	0	379.90	0	5.6810	0	36.5400	8	28.816	0	376.518	0	96.1	4	32.1	4	-1E+10	1	-1E+10	1	-1E+10	1	-1E+10	1	-1E+10	1	-1E+10	1
4901784	196	C	11/15/2020	10:43	-133.839	43.638	0	382.70	0	5.6710	0	36.5400	8	28.818	0	379.290	0	94.4	4	31.5	4	-1E+10	1	-1E+10	1	-1E+10	1	-1E+10	1	-1E+10	1	-1E+10	1
4901784	196	C	11/15/2020	10:43	-133.839	43.638	0	385.50	0	5.6480	0	36.5420	8	28.822	0	382.063	0	92.4	4	30.9	4	-1E+10	1	-1E+10	1	-1E+10	1	-1E+10	1	-1E+10	1	-1E+10	1
4901784	196	C	11/15/2020	10:43	-133.839	43.638	0	387.30	0	5.6230	0	36.5430	8	28.826	0	383.845	0	91.4	4	30.5	4	-1E+10	1	-1E+10	1	-1E+10	1	-1E+10	1	-1E+10	1	-1E+10	1
4901784	196	C	11/15/2020	10:43	-133.839	43.638	0	390.00	0	5.5890	0	36.5440	8	28.831	0	386.518	0	89.8	4	30.0	4	-1E+10	1	-1E+10	1	-1E+10	1	-1E+10	1	-1E+10	1	-1E+10	1
4901784	196	C	11/15/2020	10:43	-133.839	43.638	0	392.80	0	5.5580	0	36.5470	8	28.838	0	389.291	0	87.9	4	29.3	4	-1E+10	1	-1E+10	1	-1E+10	1	-1E+10	1	-1E+10	1	-1E+10	1
4901784	196	C	11/15/2020	10:43	-133.839	43.638	0	394.70	0	5.5350	0	36.5480	8	28.842	0	391.172	0	86.7	4	28.9	4	-1E+10	1	-1E+10	1	-1E+10	1	-1E+10	1	-1E+10	1	-1E+10	1
4901784	196	C	11/15/2020	10:43	-133.839	43.638	0	396.60	0	5.5230	0	36.5520	8	28.846	0	393.053	0	85.5	4	28.5	4	-1E+10	1	-1E+10	1	-1E+10	1	-1E+10	1	-1E+10	1	-1E+10	1
4901784	196	C	11/15/2020	10:43	-133.839	43.638	0	399.70	0	5.4770	0	36.5550	8	28.854	0	396.122	0	84.6	4	28.2	4	-1E+10	1	-1E+10	1	-1E+10	1	-1E+10	1	-1E+10	1	-1E+10	1
4901784	196	C	11/15/2020	10:43	-133.839	43.638	0	402.50	0	5.4460	0	36.5550	8	28.858	0	398.895	0	83.6	4	27.8	4	-1E+10	1	-1E+10	1	-1E+10	1	-1E+10	1	-1E+10	1	-1E+10	1
4901784	196	C	11/15/2020	10:43	-133.839	43.638	0	404.80	0	5.4070	0	36.5560	8	28.864	0	401.172	0	82.8	4	27.5	4	-1E+10	1	-1E+10	1	-1E+10	1	-1E+10	1	-1E+10	1	-1E+10	1
4901784	196	C	11/15/2020	10:43	-133.839	43.638	0	407.20	0	5.3570	0	36.5570	8	28.871	0	403.548	0	81.8	4	27.2	4	-1E+10	1	-1E+10	1	-1E+10	1	-1E+10	1	-1E+10	1	-1E+10	1
4901784	196	C	11/15/2020	10:43	-133.839	43.638	0	409.60	0	5.3250	0	36.5600	8	28.877	0	405.924	0	80.8	4	26.8	4	-1E+10	1	-1E+10	1	-1E+10	1	-1E+10	1	-1E+10	1	-1E+10	1
4901784	196	C	11/15/2020	10:43	-133.839	43.638	0	412.80	0	5.2740	0	36.5630	8	28.886	0	409.092	0	79.7	4	26.4	4	-1E+10	1	-1E+10	1	-1E+10	1	-1E+10	1	-1E+10	1	-1E+10	1
4901784	196	C	11/15/2020	10:43	-133.839	43.638	0	415.20	0	5.2320	0	36.5650	8	28.893	0	411.468	0	78.9	4	26.1	4	-1E+10	1	-1E+10	1	-1E+10	1	-1E+10	1	-1E+10	1	-1E+10	1
4901784	196	C	11/15/2020	10:43	-133.839	43.638	0	417.60	0	5.2110	0	36.5660	8	28.896	0	413.844	0	78.3	4	25.9	4	-1E+10	1	-1E+10	1	-1E+10	1	-1E+10	1	-1E+10	1	-1E+10	1
4901784	196	C	11/15/2020	10:43	-133.839	43.638	0	420.00	0	5.1830	0	36.5680	8	28.901	0	416.220	0	77.5	4	25.6	4	-1E+10	1	-1E+10	1	-1E+10	1	-1E+10	1	-1E+10	1	-1E+10	1
4901784	196	C	11/15/2020	10:43	-133.839	43.638	0	422.40	0	5.1610	0	36.5680	8	28.904	0	418.596	0	76.7	4	25.4	4	-1E+10	1	-1E+10	1	-1E+10	1	-1E+10	1	-1E+10	1	-1E+10	1
4901784	196	C	11/15/2020	10:43	-133.839	43.638	0	424.90	0	5.1420	0	36.5690	8	28.907	0	421.071	0	75.9	4	25.1	4	-1E+10	1	-1E+10	1	-1E+10	1	-1E+10	1	-1E+10	1	-1E+10	1
4901784	196	C	11/15/2020	10:43	-133.839	43.638	0	427.30	0	5.1180	0	36.5700	8	28.911	0	423.447	0	74.8	4	24.7	4	-1E+10	1	-1E+10	1	-1E+10	1	-1E+10	1	-1E+10	1	-1E+10	1
4901784	196	C	11/15/2020	10:43	-133.839	43.638	0	429.70	0	5.0740	0	36.5740	8	28.919	0	425.823	0	73.8	4	24.3	4	-1E+10	1	-1E+10	1	-1E+10	1	-1E+10	1	-1E+10	1	-1E+10	1
4901784	196	C	11/15/2020	10:43	-133.839	43.638	0	432.20	0	5.0590	0	36.5760	8	28.923	0	428.298	0	72.9	4	24.0	4	-1E+10	1	-1E+10	1	-1E+10	1	-1E+10	1	-1E+10	1	-1E+10	1
4901784	196	C	11/15/2020	10:43	-133.839	43.638	0	434.70	0	5.0510	0	36.5770	8	28.925	0	430.773	0	71.7	4	23.6	4	-1E+10	1	-1E+10	1	-1E+10	1	-1E+10	1	-1E+10	1	-1E+10	1
4901784	196	C	11/15/2020	10:43	-133.839	43.638	0	437.10	0	5.0160	0	36.5790	8	28.930	0	433.149	0	70.3	4	23.1	4	-1E+10	1	-1E+10	1	-1E+10	1	-1E+10	1	-1E+10	1	-1E+10	1
4901784	196	C	11/15/2020	10:43	-133.839	43.638	0	439.70	0	4.9680	0	36.5870	8	28.943	0	435.722	0	69.0	4	22.7	4	-1E+10	1	-1E+10	1	-1E+10	1	-1E+10	1	-1E+10	1	-1E+10	1
4901784	196	C	11/15/2020	10:43	-133.839	43.638	0	442.20	0	4.9450	0	36.5910	8	28.949	0	438.197	0	68.0	4	22.4	4	-1E+10	1	-1E+10	1	-1E+10	1	-1E+10	1	-1E+10	1	-1E+10	1
4901784	196	C	11/15/2020	10:43	-133.839	43.638	0	444.70	0	4.9270	0	36.5950	8	28.954	0	440.672	0	67.0	4	22.0	4	-1E+10	1	-1E+10	1	-1E+10	1	-1E+10	1	-1E+10	1	-1E+10	1
4901784	196	C	11/15/2020	10:43	-133.839	43.638	0	447.20	0	4.9160	0	36.5990	8	28.958	0	443.147	0	66.3	4	21.8	4	-1E+10	1	-1E+10	1	-1E+10	1	-1E+10	1	-1E+10	1	-1E+10	1
4901784	196	C	11/15/2020	10:43	-133.839	43.638	0	449.80	0	4.9090	0	36.6000	8	28.960	0	445.720	0	65.7	4	21.6	4	-1E+10	1	-1E+10	1	-1E+10	1	-1E+10	1	-1E+10	1	-1E+10	1
4901784	196	C	11/15/2020	10:43	-133.839	43.638	0	452.40	0	4.8990	0	36.6030	8	28.964	0	448.294	0	64.9	4	21.3	4	-1E+10	1	-1E+10	1	-1E+10	1	-1E+10	1	-1E+10	1	-1E+10	1
4901784	196	C	11/15/2020	10:43	-133.839	43.638	0	454.90	0	4.8900	0	36.6050	8	28.966	0	450.768	0	64.2	4	21.1	4	-1E+10	1	-1E+10	1	-1E+10	1	-1E+10	1	-1E+10	1	-1E+10	1
4901784	196	C	11/15/2020	10:43	-133.839	43.638	0	457.50	0	4.8840	0	36.6050	8	28.967	0	453.342	0	63.4	4	20.8	4	-1E+10	1	-1E+10	1	-1E+10	1	-1E+10	1	-1E+10	1	-1E+10	1
4901784	196	C	11/15/2020	10:43	-133.839	43.638	0	460.00	0	4.8620	0	36.6100	8	28.974	0	455.816	0	62.4	4	20.5	4	-1E+10	1	-1E+10	1	-1E+10	1	-1E+10	1	-1E+10	1	-1E+10	1
4901784	196	C	11/15/2020	10:43	-133.839	43.638	0	462.60	0	4.8490	0	36.6120	8	28.977	0	458.390	0	61.7	4	20.2	4	-1E+10	1	-1E+10	1	-1E+10	1	-1E+10	1	-1E+10	1	-1E+10	1
4901784	196	C	11/15/2020	10:43	-133.839	43.638	0	465.10	0	4.8400	0	36.6130	8	28.979	0	460.864	0	60.9	4	20.0	4	-1E+10	1	-1E+10	1	-1E+10	1	-1E+10	1	-1E+10	1	-1E+10	1
4901784	196	C	11/15/2020	10:43	-133.839	43.638	0	467.80	0	4.8200	0	36.6160	8	28.984	0	463.537	0	59.9	4	19.6	4	-1E+10	1	-1E+10	1	-1E+10	1	-1E+10	1	-1E+10	1	-1E+10	1
4901784	196	C	11/15/2020	10:43	-133.839	43.638	0	470.50	0	4.7990	0	36.6200	8	28.989	0	466.209	0	59.0	4	19.3	4	-1E+10	1	-1E+10	1	-1E+10	1	-1E+10	1	-1E+10	1	-1E+10	1
4901784	196	C	11/15/2020	10:43	-133.839	43.638	0	472.20	0	4.7860	0	36.6220	8	28.992	0	467.892	0	58.5	4	19.2	4	-1E+10	1	-1E+10	1	-1E+10	1	-1E+10	1	-1E+10	1	-1E+10	1
4901784	196	C	11/15/2020	10:43	-133.839	43.638	0	474.90	0	4.7750	0	36.6250	8	28.996	0	470.564	0	57.7	4	18.9	4	-1E+10	1	-1E+10	1	-1E+10	1	-1E+10	1	-1E+10	1	-1E+10	1
4901784	196	C	11/15/2020	10:43	-133.839	43.638	0	477.60	0	4.7570	0	36.6290	8	29.001	0	473.236	0	57.0	4	18.7	4	-1E+10	1	-1E+10	1	-1E+10	1	-1E+10	1	-1E+10	1	-1E+10	1
4901784	196	C	11/15/2020	10:43	-133.839	43.638	0	480.20	0	4.7470	0	36.6300	8	29.003	0	475.810	0	56.2	4	18.4	4	-1E+10	1	-1E+10	1	-1E+10	1	-1E+10	1	-1E+10	1	-1E+10	1
4901784	196	C	11/15/2020	10:43	-133.839	43.638	0	482.80	0	4.7470	0	36.6340	8	29.007	0	478.383	0	55.3	4	18.1	4	-1E+10	1	-1E+10	1	-1E+10	1	-1E+10	1	-1E+10	1	-1E+10	1
4901784	196	C	11/15/2020	10:43	-133.839	43.638	0	484.60	0	4.7440	0	36.6370	8	29.009	0	480.164	0	54.8	4	17.9	4	-1E+10	1	-1E+10	1	-1E+10	1	-1E+10	1	-1E+10	1	-1E+10	1
4901784	196	C	11/15/2020	10:43	-133.839	43.638	0	487.30	0	4.7390	0	36.6380	8	29.011	0	482.836	0	54.1	4	17.7	4	-1E+10	1	-1E+10	1	-1E+10	1	-1E+10	1	-1E+10	1	-1E+10	1
4901784	196	C	11/15/2020	10:43	-133.839	43.638	0	490.00	0	4.7380	0	36.6410	8	29.013	0	485.509	0	53.1	4	17.4	4	-1E+10	1	-1E+10	1	-1E+10	1	-1E+10	1	-1E+10	1	-1E+10	1
4901784	196	C	11/15/2020	10:43	-133.839	43.638	0	492.80	0	4.7170	0	36.6450	8	29.019	0	488.280	0	52.3	4	17.1	4	-1E+10	1	-1E+10	1	-1E+10	1	-1E+10	1	-1E+10	1	-1E+10	1
4901784	196	C	11/15/2020	10:43	-133.839	43.638	0	495.50	0	4.7140	0	36.6480	8	29.022	0	490.952	0	51.4	4	16.8	4	-1E+10	1	-1E+10	1	-1E+10	1	-1E+10	1	-1E+10	1	-1E+10	1
4901784	196	C	11/15/2020	10:43	-133.839	43.638	0	497.30	0	4.7030	0	36.6490	8	29.024	0	492.733	0	50.6	4	16.6	4	-1E+10	1	-1E+10	1	-1E+10	1	-1E+10	1	-1E+10	1	-1E+10	1
4901784	196	C	11/15/2020	10:43	-133.839	43.638	0	500.20	0	4.7140	0	36.6560	8	29.028	0	495.603	0	49.4	4	16.2	4	-1E+10	1	-1E+10	1	-1E+10	1	-1E+10	1	-1E+10	1	-1E+10	1
4901784	196	C	11/15/2020	10:43	-133.839	43.638	0	504.80	0	4.7160	0	36.6620	8	29.033	0	500.155	0	48.1	4	15.7	4	-1E+10	1	-1E+10	1	-1E+10	1	-1E+10	1	-1E+10	1	-1E+10	1
4901784	196	C	11/15/2020	10:43	-133.839	43.638	0	510.50	0	4.7030	0	36.6680	8	29.039	0	505.796	0	46.5	4	15.2	4	-1E+10	1	-1E+10	1	-1E+10	1	-1E+10	1	-1E+10	1	-1E+10	1
4901784	196	C	11/15/2020	10:43	-133.839	43.638	0	514.60	0	4.6990	0	36.6730	8	29.043	0	509.853	0	44.7	4	14.6	4	-1E+10	1	-1E+10	1	-1E+10	1	-1E+10	1	-1E+10	1	-1E+10	1
4901784	196	C	11/15/2020	10:43	-133.839	43.638	0	519.40	0	4.6960	0	36.6840	8	29.053	0	514.603	0	42.5	4	13.9	4	-1E+10	1	-1E+10	1	-1E+10	1	-1E+10	1	-1E+10	1	-1E+10	1
4901784	196	C	11/15/2020	10:43	-133.839	43.638	0	525.00	0	4.6730	0	36.6930	8	29.063	0	520.144	0	40.4	4	13.2	4	-1E+10	1	-1E+10	1	-1E+10	1	-1E+10	1	-1E+10	1	-1E+10	1
4901784	196	C	11/15/2020	10:43	-133.839	43.638	0	530.60	0	4.6600	0	36.7040	8	29.073	0	525.685	0	38.4	4	12.5	4	-1E+10	1	-1E+10	1	-1E+10	1	-1E+10	1	-1E+10	1	-1E+10	1
4901784	196	C	11/15/2020	10:43	-133.839	43.638	0	535.50	0	4.6550	0	36.7090	8	29.077	0	530.533	0	37.2	4	12.2	4	-1E+10	1	-1E+10	1	-1E+10	1	-1E+10	1	-1E+10	1	-1E+10	1
4901784	196	C	11/15/2020	10:43	-133.839	43.638	0	540.40	0	4.6500	0	36.7150	8	29.083	0	535.382	0	35.9	4	11.7	4	-1E+10	1	-1E+10	1	-1E+10	1	-1E+10	1	-1E+10	1	-1E+10	1
4901784	196	C	11/15/2020	10:43	-133.839	43.638	0	545.30	0	4.6330	0	36.7210	8	29.090	0	540.230	0	34.6	4	11.3	4	-1E+10	1	-1E+10	1	-1E+10	1	-1E+10	1	-1E+10	1	-1E+10	1
4901784	196	C	11/15/2020	10:43	-133.839	43.638	0	550.20	0	4.6430	0	36.7270	8	29.093	0	545.078	0	32.8	4	10.7	4	-1E+10	1	-1E+10	1	-1E+10	1	-1E+10	1	-1E+10	1	-1E+10	1
4901784	196	C	11/15/2020	10:43	-133.839	43.638	0	555.30	0	4.6380	0	36.7370	8	29.102	0	550.124	0	31.1	4	10.2	4	-1E+10	1	-1E+10	1	-1E+10	1	-1E+10	1	-1E+10	1	-1E+10	1
4901784	196	C	11/15/2020	10:43	-133.839	43.638	0	560.40	0	4.6240	0	36.7430	8	29.108	0	555.169	0	29.8	4	9.8	4	-1E+10	1	-1E+10	1	-1E+10	1	-1E+10	1	-1E+10	1	-1E+10	1
4901784	196	C	11/15/2020	10:43	-133.839	43.638	0	565.60	0	4.5970	0	36.7510	8	29.118	0	560.314	0	28.8	4	9.4	4	-1E+10	1	-1E+10	1	-1E+10	1	-1E+10	1	-1E+10	1	-1E+10	1
4901784	196	C	11/15/2020	10:43	-133.839	43.638	0	570.80	0	4.5710	0	36.7560	8	29.125	0	565.458	0	28.1	4	9.2	4	-1E+10	1	-1E+10	1	-1E+10	1	-1E+10	1	-1E+10	1	-1E+10	1
4901784	196	C	11/15/2020	10:43	-133.839	43.638	0	575.10	0	4.5550	0	36.7590	8	29.129	0	569.712	0	27.5	4	9.0	4	-1E+10	1	-1E+10	1	-1E+10	1	-1E+10	1	-1E+10	1	-1E+10	1
4901784	196	C	11/15/2020	10:43	-133.839	43.638	0	579.50	0	4.5320	0	36.7630	8	29.135	0	574.065	0	27.0	4	8.8	4	-1E+10	1	-1E+10	1	-1E+10	1	-1E+10	1	-1E+10	1	-1E+10	1
4901784	196	C	11/15/2020	10:43	-133.839	43.638	0	584.90	0	4.5050	0	36.7660	8	29.141	0	579.407	0	26.3	4	8.6	4	-1E+10	1	-1E+10	1	-1E+10	1	-1E+10	1	-1E+10	1	-1E+10	1
4901784	196	C	11/15/2020	10:43	-133.839	43.638	0	590.10	0	4.4880	0	36.7710	8	29.147	0	584.550	0	25.4	4	8.3	4	-1E+10	1	-1E+10	1	-1E+10	1	-1E+10	1	-1E+10	1	-1E+10	1
4901784	196	C	11/15/2020	10:43	-133.839	43.638	0	595.30	0	4.4900	0	36.7780	8	29.152	0	589.694	0	24.7	4	8.0	4	-1E+10	1	-1E+10	1	-1E+10	1	-1E+10	1	-1E+10	1	-1E+10	1
4901784	196	C	11/15/2020	10:43	-133.839	43.638	0	600.60	0	4.4440	0	36.7800	8	29.159	0	594.937	0	24.4	4	7.9	4	-1E+10	1	-1E+10	1	-1E+10	1	-1E+10	1	-1E+10	1	-1E+10	1
4901784	196	C	11/15/2020	10:43	-133.839	43.638	0	605.10	0	4.4350	0	36.7830	8	29.162	0	599.388	0	23.9	4	7.8	4	-1E+10	1	-1E+10	1	-1E+10	1	-1E+10	1	-1E+10	1	-1E+10	1
4901784	196	C	11/15/2020	10:43	-133.839	43.638	0	609.60	0	4.4280	0	36.7870	8	29.166	0	603.839	0	23.3	4	7.6	4	-1E+10	1	-1E+10	1	-1E+10	1	-1E+10	1	-1E+10	1	-1E+10	1
4901784	196	C	11/15/2020	10:43	-133.839	43.638	0	615.00	0	4.4030	0	36.7900	8	29.172	0	609.180	0	22.6	4	7.3	4	-1E+10	1	-1E+10	1	-1E+10	1	-1E+10	1	-1E+10	1	-1E+10	1
4901784	196	C	11/15/2020	10:43	-133.839	43.638	0	620.40	0	4.3850	0	36.7970	8	29.179	0	614.521	0	21.6	4	7.0	4	-1E+10	1	-1E+10	1	-1E+10	1	-1E+10	1	-1E+10	1	-1E+10	1
4901784	196	C	11/15/2020	10:43	-133.839	43.638	0	624.90	0	4.3790	0	36.8040	8	29.185	0	618.971	0	20.7	4	6.7	4	-1E+10	1	-1E+10	1	-1E+10	1	-1E+10	1	-1E+10	1	-1E+10	1
4901784	196	C	11/15/2020	10:43	-133.839	43.638	0	629.40	0	4.3890	0	36.8120	8	29.191	0	623.422	0	19.7	4	6.4	4	-1E+10	1	-1E+10	1	-1E+10	1	-1E+10	1	-1E+10	1	-1E+10	1
4901784	196	C	11/15/2020	10:43	-133.839	43.638	0	634.90	0	4.4050	0	36.8200	8	29.195	0	628.861	0	18.8	4	6.1	4	-1E+10	1	-1E+10	1	-1E+10	1	-1E+10	1	-1E+10	1	-1E+10	1
4901784	196	C	11/15/2020	10:43	-133.839	43.638	0	640.30	0	4.4020	0	36.8270	8	29.201	0	634.202	0	18.0	4	5.8	4	-1E+10	1	-1E+10	1	-1E+10	1	-1E+10	1	-1E+10	1	-1E+10	1
4901784	196	C	11/15/2020	10:43	-133.839	43.638	0	644.90	0	4.4010	0	36.8340	8	29.207	0	638.751	0	17.4	4	5.6	4	-1E+10	1	-1E+10	1	-1E+10	1	-1E+10	1	-1E+10	1	-1E+10	1
4901784	196	C	11/15/2020	10:43	-133.839	43.638	0	649.40	0	4.3950	0	36.8400	8	29.213	0	643.201	0	16.9	4	5.5	4	-1E+10	1	-1E+10	1	-1E+10	1	-1E+10	1	-1E+10	1	-1E+10	1
4901784	196	C	11/15/2020	10:43	-133.839	43.638	0	654.90	0	4.3910	0	36.8450	8	29.217	0	648.640	0	16.3	4	5.3	4	-1E+10	1	-1E+10	1	-1E+10	1	-1E+10	1	-1E+10	1	-1E+10	1
4901784	196	C	11/15/2020	10:43	-133.839	43.638	0	660.30	0	4.3670	0	36.8510	8	29.225	0	653.980	0	15.9	4	5.2	4	-1E+10	1	-1E+10	1	-1E+10	1	-1E+10	1	-1E+10	1	-1E+10	1
4901784	196	C	11/15/2020	10:43	-133.839	43.638	0	664.80	0	4.3610	0	36.8570	8	29.230	0	658.430	0	15.5	4	5.0	4	-1E+10	1	-1E+10	1	-1E+10	1	-1E+10	1	-1E+10	1	-1E+10	1
4901784	196	C	11/15/2020	10:43	-133.839	43.638	0	669.40	0	4.3610	0	36.8610	8	29.233	0	662.978	0	15.0	4	4.9	4	-1E+10	1	-1E+10	1	-1E+10	1	-1E+10	1	-1E+10	1	-1E+10	1
4901784	196	C	11/15/2020	10:43	-133.839	43.638	0	674.90	0	4.3610	0	36.8690	8	29.240	0	668.417	0	14.6	4	4.7	4	-1E+10	1	-1E+10	1	-1E+10	1	-1E+10	1	-1E+10	1	-1E+10	1
4901784	196	C	11/15/2020	10:43	-133.839	43.638	0	680.50	0	4.3510	0	36.8740	8	29.245	0	673.954	0	14.3	4	4.7	4	-1E+10	1	-1E+10	1	-1E+10	1	-1E+10	1	-1E+10	1	-1E+10	1
4901784	196	C	11/15/2020	10:43	-133.839	43.638	0	685.20	0	4.3370	0	36.8770	8	29.249	0	678.601	0	14.2	4	4.6	4	-1E+10	1	-1E+10	1	-1E+10	1	-1E+10	1	-1E+10	1	-1E+10	1
4901784	196	C	11/15/2020	10:43	-133.839	43.638	0	689.80	0	4.3260	0	36.8790	8	29.252	0	683.149	0	14.0	4	4.6	4	-1E+10	1	-1E+10	1	-1E+10	1	-1E+10	1	-1E+10	1	-1E+10	1
4901784	196	C	11/15/2020	10:43	-133.839	43.638	0	695.30	0	4.3030	0	36.8830	8	29.258	0	688.587	0	13.8	4	4.5	4	-1E+10	1	-1E+10	1	-1E+10	1	-1E+10	1	-1E+10	1	-1E+10	1
4901784	196	C	11/15/2020	10:43	-133.839	43.638	0	700.00	0	4.2830	0	36.8850	8	29.261	0	693.234	0	13.7	4	4.4	4	-1E+10	1	-1E+10	1	-1E+10	1	-1E+10	1	-1E+10	1	-1E+10	1
4901784	196	C	11/15/2020	10:43	-133.839	43.638	0	704.70	0	4.2710	0	36.8890	8	29.266	0	697.881	0	13.5	4	4.4	4	-1E+10	1	-1E+10	1	-1E+10	1	-1E+10	1	-1E+10	1	-1E+10	1
4901784	196	C	11/15/2020	10:43	-133.839	43.638	0	710.30	0	4.2460	0	36.8930	8	29.272	0	703.417	0	13.3	4	4.3	4	-1E+10	1	-1E+10	1	-1E+10	1	-1E+10	1	-1E+10	1	-1E+10	1
4901784	196	C	11/15/2020	10:43	-133.839	43.638	0	714.90	0	4.2400	0	36.8980	8	29.277	0	707.965	0	13.1	4	4.2	4	-1E+10	1	-1E+10	1	-1E+10	1	-1E+10	1	-1E+10	1	-1E+10	1
4901784	196	C	11/15/2020	10:43	-133.839	43.638	0	719.60	0	4.2350	0	36.9010	8	29.280	0	712.611	0	12.9	4	4.2	4	-1E+10	1	-1E+10	1	-1E+10	1	-1E+10	1	-1E+10	1	-1E+10	1
4901784	196	C	11/15/2020	10:43	-133.839	43.638	0	725.20	0	4.2280	0	36.9040	8	29.283	0	718.147	0	12.7	4	4.1	4	-1E+10	1	-1E+10	1	-1E+10	1	-1E+10	1	-1E+10	1	-1E+10	1
4901784	196	C	11/15/2020	10:43	-133.839	43.638	0	729.80	0	4.2090	0	36.9060	8	29.287	0	722.694	0	12.6	4	4.1	4	-1E+10	1	-1E+10	1	-1E+10	1	-1E+10	1	-1E+10	1	-1E+10	1
4901784	196	C	11/15/2020	10:43	-133.839	43.638	0	734.50	0	4.1740	0	36.9110	8	29.295	0	727.340	0	12.4	4	4.0	4	-1E+10	1	-1E+10	1	-1E+10	1	-1E+10	1	-1E+10	1	-1E+10	1
4901784	196	C	11/15/2020	10:43	-133.839	43.638	0	740.10	0	4.1550	0	36.9160	8	29.301	0	732.876	0	12.2	4	3.9	4	-1E+10	1	-1E+10	1	-1E+10	1	-1E+10	1	-1E+10	1	-1E+10	1
4901784	196	C	11/15/2020	10:43	-133.839	43.638	0	744.80	0	4.1410	0	36.9210	8	29.306	0	737.522	0	12.0	4	3.9	4	-1E+10	1	-1E+10	1	-1E+10	1	-1E+10	1	-1E+10	1	-1E+10	1
4901784	196	C	11/15/2020	10:43	-133.839	43.638	0	749.60	0	4.1290	0	36.9270	8	29.313	0	742.266	0	11.8	4	3.8	4	-1E+10	1	-1E+10	1	-1E+10	1	-1E+10	1	-1E+10	1	-1E+10	1
4901784	196	C	11/15/2020	10:43	-133.839	43.638	0	755.30	0	4.1240	0	36.9320	8	29.317	0	747.900	0	11.7	4	3.8	4	-1E+10	1	-1E+10	1	-1E+10	1	-1E+10	1	-1E+10	1	-1E+10	1
4901784	196	C	11/15/2020	10:43	-133.839	43.638	0	760.40	0	4.0980	0	36.9340	8	29.322	0	752.941	0	11.6	4	3.7	4	-1E+10	1	-1E+10	1	-1E+10	1	-1E+10	1	-1E+10	1	-1E+10	1
4901784	196	C	11/15/2020	10:43	-133.839	43.638	0	765.00	0	4.1030	0	36.9390	8	29.325	0	757.488	0	11.4	4	3.7	4	-1E+10	1	-1E+10	1	-1E+10	1	-1E+10	1	-1E+10	1	-1E+10	1
4901784	196	C	11/15/2020	10:43	-133.839	43.638	0	769.90	0	4.0970	0	36.9420	8	29.328	0	762.331	0	11.4	4	3.7	4	-1E+10	1	-1E+10	1	-1E+10	1	-1E+10	1	-1E+10	1	-1E+10	1
4901784	196	C	11/15/2020	10:43	-133.839	43.638	0	774.80	0	4.0720	0	36.9440	8	29.333	0	767.174	0	11.3	4	3.7	4	-1E+10	1	-1E+10	1	-1E+10	1	-1E+10	1	-1E+10	1	-1E+10	1
4901784	196	C	11/15/2020	10:43	-133.839	43.638	0	779.70	0	4.0620	0	36.9490	8	29.338	0	772.016	0	11.2	4	3.6	4	-1E+10	1	-1E+10	1	-1E+10	1	-1E+10	1	-1E+10	1	-1E+10	1
4901784	196	C	11/15/2020	10:43	-133.839	43.638	0	784.60	0	4.0490	0	36.9510	8	29.341	0	776.859	0	11.1	4	3.6	4	-1E+10	1	-1E+10	1	-1E+10	1	-1E+10	1	-1E+10	1	-1E+10	1
4901784	196	C	11/15/2020	10:43	-133.839	43.638	0	789.60	0	4.0160	0	36.9540	8	29.347	0	781.800	0	11.0	4	3.6	4	-1E+10	1	-1E+10	1	-1E+10	1	-1E+10	1	-1E+10	1	-1E+10	1
4901784	196	C	11/15/2020	10:43	-133.839	43.638	0	794.70	0	4.0120	0	36.9600	8	29.352	0	786.840	0	10.9	4	3.5	4	-1E+10	1	-1E+10	1	-1E+10	1	-1E+10	1	-1E+10	1	-1E+10	1
4901784	196	C	11/15/2020	10:43	-133.839	43.638	0	799.70	0	4.0080	0	36.9610	8	29.353	0	791.781	0	10.9	4	3.5	4	-1E+10	1	-1E+10	1	-1E+10	1	-1E+10	1	-1E+10	1	-1E+10	1
4901784	196	C	11/15/2020	10:43	-133.839	43.638	0	804.80	0	3.9660	0	36.9640	8	29.360	0	796.821	0	10.8	4	3.5	4	-1E+10	1	-1E+10	1	-1E+10	1	-1E+10	1	-1E+10	1	-1E+10	1
4901784	196	C	11/15/2020	10:43	-133.839	43.638	0	809.90	0	3.9530	0	36.9660	8	29.363	0	801.861	0	10.8	4	3.5	4	-1E+10	1	-1E+10	1	-1E+10	1	-1E+10	1	-1E+10	1	-1E+10	1
4901784	196	C	11/15/2020	10:43	-133.839	43.638	0	815.10	0	3.9420	0	36.9700	8	29.368	0	806.999	0	10.6	4	3.4	4	-1E+10	1	-1E+10	1	-1E+10	1	-1E+10	1	-1E+10	1	-1E+10	1
4901784	196	C	11/15/2020	10:43	-133.839	43.638	0	820.30	0	3.9220	0	36.9760	8	29.375	0	812.137	0	10.6	4	3.4	4	-1E+10	1	-1E+10	1	-1E+10	1	-1E+10	1	-1E+10	1	-1E+10	1
4901784	196	C	11/15/2020	10:43	-133.839	43.638	0	825.50	0	3.9100	0	36.9790	8	29.379	0	817.275	0	10.5	4	3.4	4	-1E+10	1	-1E+10	1	-1E+10	1	-1E+10	1	-1E+10	1	-1E+10	1
4901784	196	C	11/15/2020	10:43	-133.839	43.638	0	829.90	0	3.8890	0	36.9820	8	29.383	0	821.623	0	10.5	4	3.4	4	-1E+10	1	-1E+10	1	-1E+10	1	-1E+10	1	-1E+10	1	-1E+10	1
4901784	196	C	11/15/2020	10:43	-133.839	43.638	0	834.30	0	3.8870	0	36.9840	8	29.385	0	825.970	0	10.4	4	3.4	4	-1E+10	1	-1E+10	1	-1E+10	1	-1E+10	1	-1E+10	1	-1E+10	1
4901784	196	C	11/15/2020	10:43	-133.839	43.638	0	839.60	0	3.8860	0	36.9860	8	29.387	0	831.207	0	10.4	4	3.3	4	-1E+10	1	-1E+10	1	-1E+10	1	-1E+10	1	-1E+10	1	-1E+10	1
4901784	196	C	11/15/2020	10:43	-133.839	43.638	0	844.90	0	3.8750	0	36.9910	8	29.392	0	836.443	0	10.3	4	3.3	4	-1E+10	1	-1E+10	1	-1E+10	1	-1E+10	1	-1E+10	1	-1E+10	1
4901784	196	C	11/15/2020	10:43	-133.839	43.638	0	850.20	0	3.8700	0	36.9950	8	29.396	0	841.680	0	10.2	4	3.3	4	-1E+10	1	-1E+10	1	-1E+10	1	-1E+10	1	-1E+10	1	-1E+10	1
4901784	196	C	11/15/2020	10:43	-133.839	43.638	0	855.60	0	3.8740	0	36.9970	8	29.397	0	847.014	0	10.2	4	3.3	4	-1E+10	1	-1E+10	1	-1E+10	1	-1E+10	1	-1E+10	1	-1E+10	1
4901784	196	C	11/15/2020	10:43	-133.839	43.638	0	860.20	0	3.8550	0	37.0000	8	29.401	0	851.559	0	10.1	4	3.3	4	-1E+10	1	-1E+10	1	-1E+10	1	-1E+10	1	-1E+10	1	-1E+10	1
4901784	196	C	11/15/2020	10:43	-133.839	43.638	0	864.70	0	3.8390	0	37.0020	8	29.405	0	856.005	0	10.1	4	3.3	4	-1E+10	1	-1E+10	1	-1E+10	1	-1E+10	1	-1E+10	1	-1E+10	1
4901784	196	C	11/15/2020	10:43	-133.839	43.638	0	870.10	0	3.8300	0	37.0090	8	29.411	0	861.339	0	10.1	4	3.2	4	-1E+10	1	-1E+10	1	-1E+10	1	-1E+10	1	-1E+10	1	-1E+10	1
4901784	196	C	11/15/2020	10:43	-133.839	43.638	0	875.50	0	3.8230	0	37.0120	8	29.415	0	866.674	0	10.0	4	3.2	4	-1E+10	1	-1E+10	1	-1E+10	1	-1E+10	1	-1E+10	1	-1E+10	1
4901784	196	C	11/15/2020	10:43	-133.839	43.638	0	880.10	0	3.8030	0	37.0170	8	29.421	0	871.218	0	10.0	4	3.2	4	-1E+10	1	-1E+10	1	-1E+10	1	-1E+10	1	-1E+10	1	-1E+10	1
4901784	196	C	11/15/2020	10:43	-133.839	43.638	0	885.00	0	3.7930	0	37.0210	8	29.425	0	876.058	0	10.0	4	3.2	4	-1E+10	1	-1E+10	1	-1E+10	1	-1E+10	1	-1E+10	1	-1E+10	1
4901784	196	C	11/15/2020	10:43	-133.839	43.638	0	890.10	0	3.7850	0	37.0240	8	29.428	0	881.096	0	10.0	4	3.2	4	-1E+10	1	-1E+10	1	-1E+10	1	-1E+10	1	-1E+10	1	-1E+10	1
4901784	196	C	11/15/2020	10:43	-133.839	43.638	0	894.90	0	3.7690	0	37.0290	8	29.434	0	885.837	0	10.0	4	3.2	4	-1E+10	1	-1E+10	1	-1E+10	1	-1E+10	1	-1E+10	1	-1E+10	1
4901784	196	C	11/15/2020	10:43	-133.839	43.638	0	899.70	0	3.7580	0	37.0310	8	29.437	0	890.578	0	10.0	4	3.2	4	-1E+10	1	-1E+10	1	-1E+10	1	-1E+10	1	-1E+10	1	-1E+10	1
4901784	196	C	11/15/2020	10:43	-133.839	43.638	0	904.60	0	3.7400	0	37.0340	8	29.441	0	895.418	0	10.0	4	3.2	4	-1E+10	1	-1E+10	1	-1E+10	1	-1E+10	1	-1E+10	1	-1E+10	1
4901784	196	C	11/15/2020	10:43	-133.839	43.638	0	909.50	0	3.7250	0	37.0370	8	29.445	0	900.258	0	10.0	4	3.2	4	-1E+10	1	-1E+10	1	-1E+10	1	-1E+10	1	-1E+10	1	-1E+10	1
4901784	196	C	11/15/2020	10:43	-133.839	43.638	0	914.40	0	3.7160	0	37.0410	8	29.449	0	905.097	0	10.0	4	3.2	4	-1E+10	1	-1E+10	1	-1E+10	1	-1E+10	1	-1E+10	1	-1E+10	1
4901784	196	C	11/15/2020	10:43	-133.839	43.638	0	919.40	0	3.7080	0	37.0420	8	29.451	0	910.036	0	10.0	4	3.2	4	-1E+10	1	-1E+10	1	-1E+10	1	-1E+10	1	-1E+10	1	-1E+10	1
4901784	196	C	11/15/2020	10:43	-133.839	43.638	0	924.40	0	3.6970	0	37.0450	8	29.455	0	914.974	0	10.0	4	3.2	4	-1E+10	1	-1E+10	1	-1E+10	1	-1E+10	1	-1E+10	1	-1E+10	1
4901784	196	C	11/15/2020	10:43	-133.839	43.638	0	929.40	0	3.6810	0	37.0470	8	29.458	0	919.912	0	10.0	4	3.2	4	-1E+10	1	-1E+10	1	-1E+10	1	-1E+10	1	-1E+10	1	-1E+10	1
4901784	196	C	11/15/2020	10:43	-133.839	43.638	0	934.40	0	3.6670	0	37.0510	8	29.463	0	924.850	0	10.1	4	3.2	4	-1E+10	1	-1E+10	1	-1E+10	1	-1E+10	1	-1E+10	1	-1E+10	1
4901784	196	C	11/15/2020	10:43	-133.839	43.638	0	939.50	0	3.6590	0	37.0530	8	29.465	0	929.886	0	10.1	4	3.2	4	-1E+10	1	-1E+10	1	-1E+10	1	-1E+10	1	-1E+10	1	-1E+10	1
4901784	196	C	11/15/2020	10:43	-133.839	43.638	0	944.60	0	3.6420	0	37.0550	8	29.469	0	934.923	0	10.1	4	3.2	4	-1E+10	1	-1E+10	1	-1E+10	1	-1E+10	1	-1E+10	1	-1E+10	1
4901784	196	C	11/15/2020	10:43	-133.839	43.638	0	949.70	0	3.6330	0	37.0580	8	29.472	0	939.959	0	10.1	4	3.2	4	-1E+10	1	-1E+10	1	-1E+10	1	-1E+10	1	-1E+10	1	-1E+10	1
4901784	196	C	11/15/2020	10:43	-133.839	43.638	0	954.90	0	3.6250	0	37.0600	8	29.475	0	945.094	0	10.1	4	3.2	4	-1E+10	1	-1E+10	1	-1E+10	1	-1E+10	1	-1E+10	1	-1E+10	1
4901784	196	C	11/15/2020	10:43	-133.839	43.638	0	960.00	0	3.6100	0	37.0620	8	29.478	0	950.130	0	10.2	4	3.3	4	-1E+10	1	-1E+10	1	-1E+10	1	-1E+10	1	-1E+10	1	-1E+10	1
4901784	196	C	11/15/2020	10:43	-133.839	43.638	0	965.20	0	3.5990	0	37.0660	8	29.482	0	955.265	0	10.3	4	3.3	4	-1E+10	1	-1E+10	1	-1E+10	1	-1E+10	1	-1E+10	1	-1E+10	1
4901784	196	C	11/15/2020	10:43	-133.839	43.638	0	970.40	0	3.5860	0	37.0690	8	29.486	0	960.399	0	10.3	4	3.3	4	-1E+10	1	-1E+10	1	-1E+10	1	-1E+10	1	-1E+10	1	-1E+10	1
4901784	196	C	11/15/2020	10:43	-133.839	43.638	0	975.60	0	3.5590	0	37.0720	8	29.491	0	965.534	0	10.3	4	3.3	4	-1E+10	1	-1E+10	1	-1E+10	1	-1E+10	1	-1E+10	1	-1E+10	1
4901784	196	C	11/15/2020	10:43	-133.839	43.638	0	980.00	0	3.5480	0	37.0760	8	29.496	0	969.878	0	10.4	4	3.3	4	-1E+10	1	-1E+10	1	-1E+10	1	-1E+10	1	-1E+10	1	-1E+10	1
4901784	196	C	11/15/2020	10:43	-133.839	43.638	0	984.40	0	3.5410	0	37.0790	8	29.499	0	974.222	0	10.5	4	3.3	4	-1E+10	1	-1E+10	1	-1E+10	1	-1E+10	1	-1E+10	1	-1E+10	1
4901784	196	C	11/15/2020	10:43	-133.839	43.638	0	989.70	0	3.5330	0	37.0800	8	29.500	0	979.455	0	10.5	4	3.4	4	-1E+10	1	-1E+10	1	-1E+10	1	-1E+10	1	-1E+10	1	-1E+10	1
4901784	196	C	11/15/2020	10:43	-133.839	43.638	0	995.00	0	3.5220	0	37.0840	8	29.505	0	984.688	0	10.6	4	3.4	4	-1E+10	1	-1E+10	1	-1E+10	1	-1E+10	1	-1E+10	1	-1E+10	1
4901784	196	C	11/15/2020	10:43	-133.839	43.638	0	1000.30	0	3.5080	0	37.0870	8	29.509	0	989.920	0	10.7	4	3.4	4	-1E+10	1	-1E+10	1	-1E+10	1	-1E+10	1	-1E+10	1	-1E+10	1
4901784	196	C	11/15/2020	10:43	-133.839	43.638	0	1005.60	0	3.4990	0	37.0900	8	29.512	0	995.153	0	10.7	4	3.4	4	-1E+10	1	-1E+10	1	-1E+10	1	-1E+10	1	-1E+10	1	-1E+10	1
4901784	196	C	11/15/2020	10:43	-133.839	43.638	0	1010.10	0	3.4920	0	37.0910	8	29.514	0	999.595	0	10.7	4	3.4	4	-1E+10	1	-1E+10	1	-1E+10	1	-1E+10	1	-1E+10	1	-1E+10	1
4901784	196	C	11/15/2020	10:43	-133.839	43.638	0	1014.50	0	3.4650	0	37.0910	8	29.516	0	1003.939	0	10.7	4	3.4	4	-1E+10	1	-1E+10	1	-1E+10	1	-1E+10	1	-1E+10	1	-1E+10	1
4901784	196	C	11/15/2020	10:43	-133.839	43.638	0	1019.90	0	3.4500	0	37.0930	8	29.520	0	1009.270	0	10.7	4	3.4	4	-1E+10	1	-1E+10	1	-1E+10	1	-1E+10	1	-1E+10	1	-1E+10	1
4901784	196	C	11/15/2020	10:43	-133.839	43.638	0	1025.30	0	3.4370	0	37.0960	8	29.523	0	1014.601	0	10.8	4	3.4	4	-1E+10	1	-1E+10	1	-1E+10	1	-1E+10	1	-1E+10	1	-1E+10	1
4901784	196	C	11/15/2020	10:43	-133.839	43.638	0	1029.80	0	3.4330	0	37.0980	8	29.525	0	1019.043	0	10.9	4	3.5	4	-1E+10	1	-1E+10	1	-1E+10	1	-1E+10	1	-1E+10	1	-1E+10	1
4901784	196	C	11/15/2020	10:43	-133.839	43.638	0	1034.30	0	3.4250	0	37.1000	8	29.528	0	1023.485	0	10.9	4	3.5	4	-1E+10	1	-1E+10	1	-1E+10	1	-1E+10	1	-1E+10	1	-1E+10	1
4901784	196	C	11/15/2020	10:43	-133.839	43.638	0	1039.70	0	3.4070	0	37.1030	8	29.532	0	1028.815	0	11.0	4	3.5	4	-1E+10	1	-1E+10	1	-1E+10	1	-1E+10	1	-1E+10	1	-1E+10	1
4901784	196	C	11/15/2020	10:43	-133.839	43.638	0	1045.10	0	3.3980	0	37.1040	8	29.534	0	1034.145	0	11.1	4	3.5	4	-1E+10	1	-1E+10	1	-1E+10	1	-1E+10	1	-1E+10	1	-1E+10	1
4901784	196	C	11/15/2020	10:43	-133.839	43.638	0	1050.50	0	3.3830	0	37.1080	8	29.539	0	1039.475	0	11.3	4	3.6	4	-1E+10	1	-1E+10	1	-1E+10	1	-1E+10	1	-1E+10	1	-1E+10	1
4901784	196	C	11/15/2020	10:43	-133.839	43.638	0	1055.00	0	3.3720	0	37.1110	8	29.542	0	1043.917	0	11.3	4	3.6	4	-1E+10	1	-1E+10	1	-1E+10	1	-1E+10	1	-1E+10	1	-1E+10	1
4901784	196	C	11/15/2020	10:43	-133.839	43.638	0	1059.50	0	3.3560	0	37.1130	8	29.545	0	1048.358	0	11.4	4	3.6	4	-1E+10	1	-1E+10	1	-1E+10	1	-1E+10	1	-1E+10	1	-1E+10	1
4901784	196	C	11/15/2020	10:43	-133.839	43.638	0	1065.00	0	3.3420	0	37.1170	8	29.550	0	1053.787	0	11.5	4	3.7	4	-1E+10	1	-1E+10	1	-1E+10	1	-1E+10	1	-1E+10	1	-1E+10	1
4901784	196	C	11/15/2020	10:43	-133.839	43.638	0	1070.50	0	3.3350	0	37.1180	8	29.552	0	1059.215	0	11.6	4	3.7	4	-1E+10	1	-1E+10	1	-1E+10	1	-1E+10	1	-1E+10	1	-1E+10	1
4901784	196	C	11/15/2020	10:43	-133.839	43.638	0	1075.10	0	3.3300	0	37.1210	8	29.555	0	1063.755	0	11.7	4	3.7	4	-1E+10	1	-1E+10	1	-1E+10	1	-1E+10	1	-1E+10	1	-1E+10	1
4901784	196	C	11/15/2020	10:43	-133.839	43.638	0	1079.70	0	3.3220	0	37.1220	8	29.556	0	1068.294	0	11.8	4	3.7	4	-1E+10	1	-1E+10	1	-1E+10	1	-1E+10	1	-1E+10	1	-1E+10	1
4901784	196	C	11/15/2020	10:43	-133.839	43.638	0	1085.10	0	3.3110	0	37.1240	8	29.559	0	1073.623	0	11.8	4	3.8	4	-1E+10	1	-1E+10	1	-1E+10	1	-1E+10	1	-1E+10	1	-1E+10	1
4901784	196	C	11/15/2020	10:43	-133.839	43.638	0	1090.40	0	3.3090	0	37.1260	8	29.561	0	1078.854	0	12.0	4	3.8	4	-1E+10	1	-1E+10	1	-1E+10	1	-1E+10	1	-1E+10	1	-1E+10	1
4901784	196	C	11/15/2020	10:43	-133.839	43.638	0	1095.20	0	3.3040	0	37.1280	8	29.563	0	1083.591	0	12.1	4	3.8	4	-1E+10	1	-1E+10	1	-1E+10	1	-1E+10	1	-1E+10	1	-1E+10	1
4901784	196	C	11/15/2020	10:43	-133.839	43.638	0	1100.10	0	3.2930	0	37.1310	8	29.566	0	1088.426	0	12.2	4	3.9	4	-1E+10	1	-1E+10	1	-1E+10	1	-1E+10	1	-1E+10	1	-1E+10	1
4901784	196	C	11/15/2020	10:43	-133.839	43.638	0	1105.00	0	3.2910	0	37.1320	8	29.567	0	1093.261	0	12.3	4	3.9	4	-1E+10	1	-1E+10	1	-1E+10	1	-1E+10	1	-1E+10	1	-1E+10	1
4901784	196	C	11/15/2020	10:43	-133.839	43.638	0	1109.90	0	3.2830	0	37.1340	8	29.570	0	1098.096	0	12.4	4	3.9	4	-1E+10	1	-1E+10	1	-1E+10	1	-1E+10	1	-1E+10	1	-1E+10	1
4901784	196	C	11/15/2020	10:43	-133.839	43.638	0	1114.80	0	3.2760	0	37.1360	8	29.572	0	1102.931	0	12.5	4	4.0	4	-1E+10	1	-1E+10	1	-1E+10	1	-1E+10	1	-1E+10	1	-1E+10	1
4901784	196	C	11/15/2020	10:43	-133.839	43.638	0	1119.70	0	3.2760	0	37.1380	8	29.574	0	1107.766	0	12.6	4	4.0	4	-1E+10	1	-1E+10	1	-1E+10	1	-1E+10	1	-1E+10	1	-1E+10	1
4901784	196	C	11/15/2020	10:43	-133.839	43.638	0	1124.70	0	3.2560	0	37.1390	8	29.577	0	1112.700	0	12.6	4	4.0	4	-1E+10	1	-1E+10	1	-1E+10	1	-1E+10	1	-1E+10	1	-1E+10	1
4901784	196	C	11/15/2020	10:43	-133.839	43.638	0	1129.70	0	3.2420	0	37.1400	8	29.579	0	1117.633	0	12.7	4	4.0	4	-1E+10	1	-1E+10	1	-1E+10	1	-1E+10	1	-1E+10	1	-1E+10	1
4901784	196	C	11/15/2020	10:43	-133.839	43.638	0	1135.00	0	3.2390	0	37.1420	8	29.581	0	1122.862	0	12.8	4	4.1	4	-1E+10	1	-1E+10	1	-1E+10	1	-1E+10	1	-1E+10	1	-1E+10	1
4901784	196	C	11/15/2020	10:43	-133.839	43.638	0	1140.60	0	3.2330	0	37.1440	8	29.583	0	1128.387	0	12.9	4	4.1	4	-1E+10	1	-1E+10	1	-1E+10	1	-1E+10	1	-1E+10	1	-1E+10	1
4901784	196	C	11/15/2020	10:43	-133.839	43.638	0	1145.20	0	3.2200	0	37.1440	8	29.585	0	1132.926	0	13.0	4	4.1	4	-1E+10	1	-1E+10	1	-1E+10	1	-1E+10	1	-1E+10	1	-1E+10	1
4901784	196	C	11/15/2020	10:43	-133.839	43.638	0	1149.80	0	3.2070	0	37.1480	8	29.589	0	1137.464	0	13.1	4	4.2	4	-1E+10	1	-1E+10	1	-1E+10	1	-1E+10	1	-1E+10	1	-1E+10	1
4901784	196	C	11/15/2020	10:43	-133.839	43.638	0	1155.40	0	3.1990	0	37.1500	8	29.591	0	1142.989	0	13.3	4	4.2	4	-1E+10	1	-1E+10	1	-1E+10	1	-1E+10	1	-1E+10	1	-1E+10	1
4901784	196	C	11/15/2020	10:43	-133.839	43.638	0	1160.10	0	3.1930	0	37.1520	8	29.594	0	1147.625	0	13.4	4	4.2	4	-1E+10	1	-1E+10	1	-1E+10	1	-1E+10	1	-1E+10	1	-1E+10	1
4901784	196	C	11/15/2020	10:43	-133.839	43.638	0	1164.80	0	3.1830	0	37.1530	8	29.596	0	1152.262	0	13.5	4	4.3	4	-1E+10	1	-1E+10	1	-1E+10	1	-1E+10	1	-1E+10	1	-1E+10	1
4901784	196	C	11/15/2020	10:43	-133.839	43.638	0	1170.40	0	3.1700	0	37.1550	8	29.598	0	1157.786	0	13.6	4	4.3	4	-1E+10	1	-1E+10	1	-1E+10	1	-1E+10	1	-1E+10	1	-1E+10	1
4901784	196	C	11/15/2020	10:43	-133.839	43.638	0	1175.20	0	3.1610	0	37.1560	8	29.600	0	1162.521	0	13.7	4	4.3	4	-1E+10	1	-1E+10	1	-1E+10	1	-1E+10	1	-1E+10	1	-1E+10	1
4901784	196	C	11/15/2020	10:43	-133.839	43.638	0	1180.00	0	3.1560	0	37.1580	8	29.602	0	1167.256	0	13.8	4	4.4	4	-1E+10	1	-1E+10	1	-1E+10	1	-1E+10	1	-1E+10	1	-1E+10	1
4901784	196	C	11/15/2020	10:43	-133.839	43.638	0	1184.70	0	3.1430	0	37.1600	8	29.605	0	1171.892	0	13.9	4	4.4	4	-1E+10	1	-1E+10	1	-1E+10	1	-1E+10	1	-1E+10	1	-1E+10	1
4901784	196	C	11/15/2020	10:43	-133.839	43.638	0	1189.50	0	3.1310	0	37.1610	8	29.607	0	1176.627	0	14.0	4	4.4	4	-1E+10	1	-1E+10	1	-1E+10	1	-1E+10	1	-1E+10	1	-1E+10	1
4901784	196	C	11/15/2020	10:43	-133.839	43.638	0	1195.30	0	3.1200	0	37.1630	8	29.610	0	1182.348	0	14.1	4	4.5	4	-1E+10	1	-1E+10	1	-1E+10	1	-1E+10	1	-1E+10	1	-1E+10	1
4901784	196	C	11/15/2020	10:43	-133.839	43.638	0	1200.10	0	3.1080	0	37.1660	8	29.614	0	1187.082	0	14.2	4	4.5	4	-1E+10	1	-1E+10	1	-1E+10	1	-1E+10	1	-1E+10	1	-1E+10	1
4901784	196	C	11/15/2020	10:43	-133.839	43.638	0	1204.90	0	3.1020	0	37.1670	8	29.615	0	1191.817	0	14.3	4	4.5	4	-1E+10	1	-1E+10	1	-1E+10	1	-1E+10	1	-1E+10	1	-1E+10	1
4901784	196	C	11/15/2020	10:43	-133.839	43.638	0	1209.70	0	3.0970	0	37.1680	8	29.616	0	1196.551	0	14.5	4	4.6	4	-1E+10	1	-1E+10	1	-1E+10	1	-1E+10	1	-1E+10	1	-1E+10	1
4901784	196	C	11/15/2020	10:43	-133.839	43.638	0	1214.60	0	3.0890	0	37.1700	8	29.619	0	1201.384	0	14.6	4	4.6	4	-1E+10	1	-1E+10	1	-1E+10	1	-1E+10	1	-1E+10	1	-1E+10	1
4901784	196	C	11/15/2020	10:43	-133.839	43.638	0	1220.40	0	3.0770	0	37.1720	8	29.622	0	1207.104	0	14.8	4	4.7	4	-1E+10	1	-1E+10	1	-1E+10	1	-1E+10	1	-1E+10	1	-1E+10	1
4901784	196	C	11/15/2020	10:43	-133.839	43.638	0	1225.30	0	3.0650	0	37.1740	8	29.624	0	1211.937	0	14.9	4	4.7	4	-1E+10	1	-1E+10	1	-1E+10	1	-1E+10	1	-1E+10	1	-1E+10	1
4901784	196	C	11/15/2020	10:43	-133.839	43.638	0	1230.30	0	3.0530	0	37.1750	8	29.626	0	1216.868	0	15.0	4	4.7	4	-1E+10	1	-1E+10	1	-1E+10	1	-1E+10	1	-1E+10	1	-1E+10	1
4901784	196	C	11/15/2020	10:43	-133.839	43.638	0	1235.20	0	3.0450	0	37.1760	8	29.628	0	1221.700	0	15.1	4	4.8	4	-1E+10	1	-1E+10	1	-1E+10	1	-1E+10	1	-1E+10	1	-1E+10	1
4901784	196	C	11/15/2020	10:43	-133.839	43.638	0	1240.10	0	3.0300	0	37.1780	8	29.631	0	1226.532	0	15.2	4	4.8	4	-1E+10	1	-1E+10	1	-1E+10	1	-1E+10	1	-1E+10	1	-1E+10	1
4901784	196	C	11/15/2020	10:43	-133.839	43.638	0	1245.10	0	3.0150	0	37.1800	8	29.634	0	1231.463	0	15.4	4	4.9	4	-1E+10	1	-1E+10	1	-1E+10	1	-1E+10	1	-1E+10	1	-1E+10	1
4901784	196	C	11/15/2020	10:43	-133.839	43.638	0	1250.00	0	3.0080	0	37.1820	8	29.637	0	1236.295	0	15.6	4	4.9	4	-1E+10	1	-1E+10	1	-1E+10	1	-1E+10	1	-1E+10	1	-1E+10	1
4901784	196	C	11/15/2020	10:43	-133.839	43.638	0	1255.00	0	3.0010	0	37.1840	8	29.639	0	1241.225	0	15.8	4	5.0	4	-1E+10	1	-1E+10	1	-1E+10	1	-1E+10	1	-1E+10	1	-1E+10	1
4901784	196	C	11/15/2020	10:43	-133.839	43.638	0	1260.10	0	2.9910	0	37.1860	8	29.642	0	1246.254	0	15.9	4	5.0	4	-1E+10	1	-1E+10	1	-1E+10	1	-1E+10	1	-1E+10	1	-1E+10	1
4901784	196	C	11/15/2020	10:43	-133.839	43.638	0	1265.20	0	2.9790	0	37.1880	8	29.644	0	1251.283	0	16.1	4	5.1	4	-1E+10	1	-1E+10	1	-1E+10	1	-1E+10	1	-1E+10	1	-1E+10	1
4901784	196	C	11/15/2020	10:43	-133.839	43.638	0	1269.80	0	2.9700	0	37.1890	8	29.646	0	1255.818	0	16.3	4	5.1	4	-1E+10	1	-1E+10	1	-1E+10	1	-1E+10	1	-1E+10	1	-1E+10	1
4901784	196	C	11/15/2020	10:43	-133.839	43.638	0	1274.60	0	2.9560	0	37.1910	8	29.649	0	1260.551	0	16.5	4	5.2	4	-1E+10	1	-1E+10	1	-1E+10	1	-1E+10	1	-1E+10	1	-1E+10	1
4901784	196	C	11/15/2020	10:43	-133.839	43.638	0	1279.40	0	2.9450	0	37.1930	8	29.652	0	1265.284	0	16.7	4	5.3	4	-1E+10	1	-1E+10	1	-1E+10	1	-1E+10	1	-1E+10	1	-1E+10	1
4901784	196	C	11/15/2020	10:43	-133.839	43.638	0	1284.30	0	2.9350	0	37.1960	8	29.655	0	1270.115	0	16.9	4	5.3	4	-1E+10	1	-1E+10	1	-1E+10	1	-1E+10	1	-1E+10	1	-1E+10	1
4901784	196	C	11/15/2020	10:43	-133.839	43.638	0	1290.00	0	2.9240	0	37.1970	8	29.657	0	1275.735	0	17.3	4	5.4	4	-1E+10	1	-1E+10	1	-1E+10	1	-1E+10	1	-1E+10	1	-1E+10	1
4901784	196	C	11/15/2020	10:43	-133.839	43.638	0	1295.80	0	2.9070	0	37.2010	8	29.662	0	1281.453	0	17.6	4	5.5	4	-1E+10	1	-1E+10	1	-1E+10	1	-1E+10	1	-1E+10	1	-1E+10	1
4901784	196	C	11/15/2020	10:43	-133.839	43.638	0	1300.80	0	2.8980	0	37.2030	8	29.664	0	1286.383	0	17.8	4	5.6	4	-1E+10	1	-1E+10	1	-1E+10	1	-1E+10	1	-1E+10	1	-1E+10	1
4901784	196	C	11/15/2020	10:43	-133.839	43.638	0	1305.70	0	2.8850	0	37.2050	8	29.667	0	1291.213	0	17.9	4	5.6	4	-1E+10	1	-1E+10	1	-1E+10	1	-1E+10	1	-1E+10	1	-1E+10	1
4901784	196	C	11/15/2020	10:43	-133.839	43.638	0	1310.70	0	2.8800	0	37.2050	8	29.668	0	1296.142	0	18.0	4	5.7	4	-1E+10	1	-1E+10	1	-1E+10	1	-1E+10	1	-1E+10	1	-1E+10	1
4901784	196	C	11/15/2020	10:43	-133.839	43.638	0	1315.70	0	2.8680	0	37.2070	8	29.671	0	1301.071	0	18.2	4	5.7	4	-1E+10	1	-1E+10	1	-1E+10	1	-1E+10	1	-1E+10	1	-1E+10	1
4901784	196	C	11/15/2020	10:43	-133.839	43.638	0	1320.80	0	2.8610	0	37.2090	8	29.673	0	1306.099	0	18.4	4	5.8	4	-1E+10	1	-1E+10	1	-1E+10	1	-1E+10	1	-1E+10	1	-1E+10	1
4901784	196	C	11/15/2020	10:43	-133.839	43.638	0	1325.00	0	2.8580	0	37.2100	8	29.674	0	1310.239	0	18.6	4	5.8	4	-1E+10	1	-1E+10	1	-1E+10	1	-1E+10	1	-1E+10	1	-1E+10	1
4901784	196	C	11/15/2020	10:43	-133.839	43.638	0	1329.20	0	2.8530	0	37.2110	8	29.675	0	1314.379	0	18.7	4	5.9	4	-1E+10	1	-1E+10	1	-1E+10	1	-1E+10	1	-1E+10	1	-1E+10	1
4901784	196	C	11/15/2020	10:43	-133.839	43.638	0	1334.30	0	2.8450	0	37.2120	8	29.677	0	1319.406	0	19.0	4	6.0	4	-1E+10	1	-1E+10	1	-1E+10	1	-1E+10	1	-1E+10	1	-1E+10	1
4901784	196	C	11/15/2020	10:43	-133.839	43.638	0	1339.50	0	2.8300	0	37.2150	8	29.681	0	1324.532	0	19.3	4	6.1	4	-1E+10	1	-1E+10	1	-1E+10	1	-1E+10	1	-1E+10	1	-1E+10	1
4901784	196	C	11/15/2020	10:43	-133.839	43.638	0	1344.70	0	2.8270	0	37.2160	8	29.682	0	1329.657	0	19.5	4	6.1	4	-1E+10	1	-1E+10	1	-1E+10	1	-1E+10	1	-1E+10	1	-1E+10	1
4901784	196	C	11/15/2020	10:43	-133.839	43.638	0	1350.00	0	2.8170	0	37.2180	8	29.685	0	1334.881	0	19.7	4	6.2	4	-1E+10	1	-1E+10	1	-1E+10	1	-1E+10	1	-1E+10	1	-1E+10	1
4901784	196	C	11/15/2020	10:43	-133.839	43.638	0	1355.30	0	2.8080	0	37.2190	8	29.686	0	1340.105	0	19.9	4	6.3	4	-1E+10	1	-1E+10	1	-1E+10	1	-1E+10	1	-1E+10	1	-1E+10	1
4901784	196	C	11/15/2020	10:43	-133.839	43.638	0	1360.60	0	2.7990	0	37.2210	8	29.689	0	1345.329	0	20.1	4	6.3	4	-1E+10	1	-1E+10	1	-1E+10	1	-1E+10	1	-1E+10	1	-1E+10	1
4901784	196	C	11/15/2020	10:43	-133.839	43.638	0	1365.10	0	2.7910	0	37.2220	8	29.690	0	1349.764	0	20.2	4	6.4	4	-1E+10	1	-1E+10	1	-1E+10	1	-1E+10	1	-1E+10	1	-1E+10	1
4901784	196	C	11/15/2020	10:43	-133.839	43.638	0	1369.60	0	2.7810	0	37.2230	8	29.692	0	1354.199	0	20.4	4	6.4	4	-1E+10	1	-1E+10	1	-1E+10	1	-1E+10	1	-1E+10	1	-1E+10	1
4901784	196	C	11/15/2020	10:43	-133.839	43.638	0	1375.00	0	2.7740	0	37.2250	8	29.694	0	1359.521	0	20.6	4	6.5	4	-1E+10	1	-1E+10	1	-1E+10	1	-1E+10	1	-1E+10	1	-1E+10	1
4901784	196	C	11/15/2020	10:43	-133.839	43.638	0	1380.40	0	2.7670	0	37.2270	8	29.697	0	1364.843	0	20.8	4	6.5	4	-1E+10	1	-1E+10	1	-1E+10	1	-1E+10	1	-1E+10	1	-1E+10	1
4901784	196	C	11/15/2020	10:43	-133.839	43.638	0	1384.90	0	2.7620	0	37.2280	8	29.698	0	1369.277	0	20.9	4	6.6	4	-1E+10	1	-1E+10	1	-1E+10	1	-1E+10	1	-1E+10	1	-1E+10	1
4901784	196	C	11/15/2020	10:43	-133.839	43.638	0	1389.40	0	2.7570	0	37.2280	8	29.698	0	1373.712	0	21.1	4	6.6	4	-1E+10	1	-1E+10	1	-1E+10	1	-1E+10	1	-1E+10	1	-1E+10	1
4901784	196	C	11/15/2020	10:43	-133.839	43.638	0	1394.90	0	2.7510	0	37.2300	8	29.701	0	1379.132	0	21.4	4	6.7	4	-1E+10	1	-1E+10	1	-1E+10	1	-1E+10	1	-1E+10	1	-1E+10	1
4901784	196	C	11/15/2020	10:43	-133.839	43.638	0	1400.40	0	2.7430	0	37.2310	8	29.702	0	1384.552	0	21.7	4	6.8	4	-1E+10	1	-1E+10	1	-1E+10	1	-1E+10	1	-1E+10	1	-1E+10	1
4901784	196	C	11/15/2020	10:43	-133.839	43.638	0	1405.00	0	2.7330	0	37.2320	8	29.704	0	1389.084	0	21.9	4	6.9	4	-1E+10	1	-1E+10	1	-1E+10	1	-1E+10	1	-1E+10	1	-1E+10	1
4901784	196	C	11/15/2020	10:43	-133.839	43.638	0	1409.60	0	2.7250	0	37.2340	8	29.706	0	1393.617	0	22.1	4	6.9	4	-1E+10	1	-1E+10	1	-1E+10	1	-1E+10	1	-1E+10	1	-1E+10	1
4901784	196	C	11/15/2020	10:43	-133.839	43.638	0	1414.90	0	2.7110	0	37.2360	8	29.709	0	1398.839	0	22.2	4	7.0	4	-1E+10	1	-1E+10	1	-1E+10	1	-1E+10	1	-1E+10	1	-1E+10	1
4901784	196	C	11/15/2020	10:43	-133.839	43.638	0	1420.00	0	2.6960	0	37.2370	8	29.712	0	1403.865	0	22.4	4	7.0	4	-1E+10	1	-1E+10	1	-1E+10	1	-1E+10	1	-1E+10	1	-1E+10	1
4901784	196	C	11/15/2020	10:43	-133.839	43.638	0	1425.70	0	2.6830	0	37.2380	8	29.714	0	1409.481	0	22.6	4	7.1	4	-1E+10	1	-1E+10	1	-1E+10	1	-1E+10	1	-1E+10	1	-1E+10	1
4901784	196	C	11/15/2020	10:43	-133.839	43.638	0	1430.60	0	2.6750	0	37.2400	8	29.716	0	1414.309	0	22.8	4	7.1	4	-1E+10	1	-1E+10	1	-1E+10	1	-1E+10	1	-1E+10	1	-1E+10	1
4901784	196	C	11/15/2020	10:43	-133.839	43.638	0	1435.50	0	2.6680	0	37.2410	8	29.718	0	1419.136	0	23.0	4	7.2	4	-1E+10	1	-1E+10	1	-1E+10	1	-1E+10	1	-1E+10	1	-1E+10	1
4901784	196	C	11/15/2020	10:43	-133.839	43.638	0	1440.40	0	2.6570	0	37.2420	8	29.719	0	1423.964	0	23.3	4	7.3	4	-1E+10	1	-1E+10	1	-1E+10	1	-1E+10	1	-1E+10	1	-1E+10	1
4901784	196	C	11/15/2020	10:43	-133.839	43.638	0	1445.40	0	2.6500	0	37.2440	8	29.722	0	1428.890	0	23.5	4	7.4	4	-1E+10	1	-1E+10	1	-1E+10	1	-1E+10	1	-1E+10	1	-1E+10	1
4901784	196	C	11/15/2020	10:43	-133.839	43.638	0	1450.40	0	2.6450	0	37.2450	8	29.723	0	1433.816	0	23.8	4	7.4	4	-1E+10	1	-1E+10	1	-1E+10	1	-1E+10	1	-1E+10	1	-1E+10	1
4901784	196	C	11/15/2020	10:43	-133.839	43.638	0	1455.50	0	2.6390	0	37.2470	8	29.725	0	1438.840	0	24.1	4	7.5	4	-1E+10	1	-1E+10	1	-1E+10	1	-1E+10	1	-1E+10	1	-1E+10	1
4901784	196	C	11/15/2020	10:43	-133.839	43.638	0	1460.60	0	2.6310	0	37.2480	8	29.727	0	1443.865	0	24.4	4	7.6	4	-1E+10	1	-1E+10	1	-1E+10	1	-1E+10	1	-1E+10	1	-1E+10	1
4901784	196	C	11/15/2020	10:43	-133.839	43.638	0	1465.70	0	2.6230	0	37.2500	8	29.729	0	1448.889	0	24.7	4	7.7	4	-1E+10	1	-1E+10	1	-1E+10	1	-1E+10	1	-1E+10	1	-1E+10	1
4901784	196	C	11/15/2020	10:43	-133.839	43.638	0	1470.70	0	2.6160	0	37.2510	8	29.731	0	1453.814	0	24.9	4	7.8	4	-1E+10	1	-1E+10	1	-1E+10	1	-1E+10	1	-1E+10	1	-1E+10	1
4901784	196	C	11/15/2020	10:43	-133.839	43.638	0	1475.00	0	2.6050	0	37.2520	8	29.732	0	1458.050	0	25.2	4	7.9	4	-1E+10	1	-1E+10	1	-1E+10	1	-1E+10	1	-1E+10	1	-1E+10	1
4901784	196	C	11/15/2020	10:43	-133.839	43.638	0	1479.30	0	2.5970	0	37.2540	8	29.735	0	1462.286	0	25.5	4	8.0	4	-1E+10	1	-1E+10	1	-1E+10	1	-1E+10	1	-1E+10	1	-1E+10	1
4901784	196	C	11/15/2020	10:43	-133.839	43.638	0	1484.50	0	2.5900	0	37.2550	8	29.736	0	1467.408	0	25.8	4	8.1	4	-1E+10	1	-1E+10	1	-1E+10	1	-1E+10	1	-1E+10	1	-1E+10	1
4901784	196	C	11/15/2020	10:43	-133.839	43.638	0	1489.80	0	2.5760	0	37.2570	8	29.739	0	1472.628	0	26.2	4	8.2	4	-1E+10	1	-1E+10	1	-1E+10	1	-1E+10	1	-1E+10	1	-1E+10	1
4901784	196	C	11/15/2020	10:43	-133.839	43.638	0	1495.10	0	2.5620	0	37.2590	8	29.742	0	1477.849	0	26.5	4	8.3	4	-1E+10	1	-1E+10	1	-1E+10	1	-1E+10	1	-1E+10	1	-1E+10	1
4901784	196	C	11/15/2020	10:43	-133.839	43.638	0	1500.50	0	2.5480	0	37.2600	8	29.744	0	1483.167	0	26.8	4	8.4	4	-1E+10	1	-1E+10	1	-1E+10	1	-1E+10	1	-1E+10	1	-1E+10	1
4901784	196	C	11/15/2020	10:43	-133.839	43.638	0	1504.90	0	2.5380	0	37.2620	8	29.747	0	1487.501	0	27.1	4	8.5	4	-1E+10	1	-1E+10	1	-1E+10	1	-1E+10	1	-1E+10	1	-1E+10	1
4901784	196	C	11/15/2020	10:43	-133.839	43.638	0	1509.50	0	2.5320	0	37.2640	8	29.749	0	1492.032	0	27.5	4	8.6	4	-1E+10	1	-1E+10	1	-1E+10	1	-1E+10	1	-1E+10	1	-1E+10	1
4901784	196	C	11/15/2020	10:43	-133.839	43.638	0	1514.90	0	2.5260	0	37.2650	8	29.750	0	1497.350	0	27.7	4	8.6	4	-1E+10	1	-1E+10	1	-1E+10	1	-1E+10	1	-1E+10	1	-1E+10	1
4901784	196	C	11/15/2020	10:43	-133.839	43.638	0	1520.30	0	2.5170	0	37.2670	8	29.753	0	1502.668	0	27.9	4	8.7	4	-1E+10	1	-1E+10	1	-1E+10	1	-1E+10	1	-1E+10	1	-1E+10	1
4901784	196	C	11/15/2020	10:43	-133.839	43.638	0	1525.60	0	2.5080	0	37.2700	8	29.756	0	1507.888	0	28.2	4	8.8	4	-1E+10	1	-1E+10	1	-1E+10	1	-1E+10	1	-1E+10	1	-1E+10	1
4901784	196	C	11/15/2020	10:43	-133.839	43.638	0	1530.40	0	2.5040	0	37.2710	8	29.757	0	1512.615	0	28.4	4	8.9	4	-1E+10	1	-1E+10	1	-1E+10	1	-1E+10	1	-1E+10	1	-1E+10	1
4901784	196	C	11/15/2020	10:43	-133.839	43.638	0	1535.20	0	2.4990	0	37.2700	8	29.757	0	1517.342	0	28.7	4	8.9	4	-1E+10	1	-1E+10	1	-1E+10	1	-1E+10	1	-1E+10	1	-1E+10	1
4901784	196	C	11/15/2020	10:43	-133.839	43.638	0	1540.10	0	2.4860	0	37.2720	8	29.760	0	1522.167	0	29.0	4	9.0	4	-1E+10	1	-1E+10	1	-1E+10	1	-1E+10	1	-1E+10	1	-1E+10	1
4901784	196	C	11/15/2020	10:43	-133.839	43.638	0	1545.00	0	2.4790	0	37.2740	8	29.762	0	1526.993	0	29.3	4	9.1	4	-1E+10	1	-1E+10	1	-1E+10	1	-1E+10	1	-1E+10	1	-1E+10	1
4901784	196	C	11/15/2020	10:43	-133.839	43.638	0	1549.90	0	2.4750	0	37.2750	8	29.763	0	1531.818	0	29.6	4	9.2	4	-1E+10	1	-1E+10	1	-1E+10	1	-1E+10	1	-1E+10	1	-1E+10	1
4901784	196	C	11/15/2020	10:43	-133.839	43.638	0	1554.80	0	2.4710	0	37.2760	8	29.765	0	1536.643	0	29.8	4	9.3	4	-1E+10	1	-1E+10	1	-1E+10	1	-1E+10	1	-1E+10	1	-1E+10	1
4901784	196	C	11/15/2020	10:43	-133.839	43.638	0	1559.80	0	2.4650	0	37.2770	8	29.766	0	1541.566	0	30.2	4	9.4	4	-1E+10	1	-1E+10	1	-1E+10	1	-1E+10	1	-1E+10	1	-1E+10	1
4901784	196	C	11/15/2020	10:43	-133.839	43.638	0	1564.70	0	2.4530	0	37.2790	8	29.769	0	1546.391	0	30.6	4	9.5	4	-1E+10	1	-1E+10	1	-1E+10	1	-1E+10	1	-1E+10	1	-1E+10	1
4901784	196	C	11/15/2020	10:43	-133.839	43.638	0	1569.70	0	2.4450	0	37.2810	8	29.771	0	1551.314	0	30.9	4	9.6	4	-1E+10	1	-1E+10	1	-1E+10	1	-1E+10	1	-1E+10	1	-1E+10	1
4901784	196	C	11/15/2020	10:43	-133.839	43.638	0	1574.60	0	2.4390	0	37.2820	8	29.772	0	1556.139	0	31.2	4	9.7	4	-1E+10	1	-1E+10	1	-1E+10	1	-1E+10	1	-1E+10	1	-1E+10	1
4901784	196	C	11/15/2020	10:43	-133.839	43.638	0	1579.60	0	2.4250	0	37.2830	8	29.774	0	1561.062	0	31.5	4	9.8	4	-1E+10	1	-1E+10	1	-1E+10	1	-1E+10	1	-1E+10	1	-1E+10	1
4901784	196	C	11/15/2020	10:43	-133.839	43.638	0	1584.70	0	2.4200	0	37.2850	8	29.777	0	1566.083	0	31.9	4	9.9	4	-1E+10	1	-1E+10	1	-1E+10	1	-1E+10	1	-1E+10	1	-1E+10	1
4901784	196	C	11/15/2020	10:43	-133.839	43.638	0	1589.80	0	2.4140	0	37.2870	8	29.779	0	1571.104	0	32.3	4	10.0	4	-1E+10	1	-1E+10	1	-1E+10	1	-1E+10	1	-1E+10	1	-1E+10	1
4901784	196	C	11/15/2020	10:43	-133.839	43.638	0	1594.80	0	2.4080	0	37.2890	8	29.781	0	1576.027	0	32.6	4	10.1	4	-1E+10	1	-1E+10	1	-1E+10	1	-1E+10	1	-1E+10	1	-1E+10	1
4901784	196	C	11/15/2020	10:43	-133.839	43.638	0	1599.90	0	2.4050	0	37.2900	8	29.782	0	1581.048	0	32.9	4	10.2	4	-1E+10	1	-1E+10	1	-1E+10	1	-1E+10	1	-1E+10	1	-1E+10	1
4901784	196	C	11/15/2020	10:43	-133.839	43.638	0	1604.90	0	2.4000	0	37.2920	8	29.784	0	1585.970	0	33.3	4	10.3	4	-1E+10	1	-1E+10	1	-1E+10	1	-1E+10	1	-1E+10	1	-1E+10	1
4901784	196	C	11/15/2020	10:43	-133.839	43.638	0	1610.00	0	2.3920	0	37.2950	8	29.787	0	1590.991	0	33.6	4	10.4	4	-1E+10	1	-1E+10	1	-1E+10	1	-1E+10	1	-1E+10	1	-1E+10	1
4901784	196	C	11/15/2020	10:43	-133.839	43.638	0	1615.10	0	2.3870	0	37.5000	8	29.952	0	1596.011	0	33.7	4	10.5	4	-1E+10	1	-1E+10	1	-1E+10	1	-1E+10	1	-1E+10	1	-1E+10	1
4901784	196	C	11/15/2020	10:43	-133.839	43.638	0	1620.20	0	2.3820	0	37.6900	8	30.105	0	1601.032	0	33.8	4	10.5	4	-1E+10	1	-1E+10	1	-1E+10	1	-1E+10	1	-1E+10	1	-1E+10	1
4901784	196	C	11/15/2020	10:43	-133.839	43.638	0	1625.40	0	2.3780	0	37.7500	8	30.153	0	1606.151	0	34.0	4	10.6	4	-1E+10	1	-1E+10	1	-1E+10	1	-1E+10	1	-1E+10	1	-1E+10	1
4901784	196	C	11/15/2020	10:43	-133.839	43.638	0	1630.60	0	2.3720	0	37.7820	8	30.180	0	1611.269	0	34.2	4	10.7	4	-1E+10	1	-1E+10	1	-1E+10	1	-1E+10	1	-1E+10	1	-1E+10	1
4901784	196	C	11/15/2020	10:43	-133.839	43.638	0	1635.70	0	2.3610	0	37.8070	8	30.201	0	1616.289	0	34.6	4	10.8	4	-1E+10	1	-1E+10	1	-1E+10	1	-1E+10	1	-1E+10	1	-1E+10	1
4901784	196	C	11/15/2020	10:43	-133.839	43.638	0	1640.00	0	2.3530	0	37.8130	8	30.206	0	1620.522	0	35.0	4	10.9	4	-1E+10	1	-1E+10	1	-1E+10	1	-1E+10	1	-1E+10	1	-1E+10	1
4901784	196	C	11/15/2020	10:43	-133.839	43.638	0	1644.40	0	2.3410	0	37.8210	8	30.214	0	1624.853	0	35.3	4	11.0	4	-1E+10	1	-1E+10	1	-1E+10	1	-1E+10	1	-1E+10	1	-1E+10	1
4901784	196	C	11/15/2020	10:43	-133.839	43.638	0	1649.60	0	2.3320	0	37.8280	8	30.220	0	1629.971	0	35.5	4	11.1	4	-1E+10	1	-1E+10	1	-1E+10	1	-1E+10	1	-1E+10	1	-1E+10	1
4901784	196	C	11/15/2020	10:43	-133.839	43.638	0	1654.90	0	2.3220	0	37.8400	8	30.231	0	1635.188	0	35.8	4	11.2	4	-1E+10	1	-1E+10	1	-1E+10	1	-1E+10	1	-1E+10	1	-1E+10	1
4901784	196	C	11/15/2020	10:43	-133.839	43.638	0	1660.20	0	2.3150	0	37.8420	8	30.233	0	1640.404	0	36.1	4	11.2	4	-1E+10	1	-1E+10	1	-1E+10	1	-1E+10	1	-1E+10	1	-1E+10	1
4901784	196	C	11/15/2020	10:43	-133.839	43.638	0	1665.50	0	2.3100	0	37.8470	8	30.238	0	1645.620	0	36.4	4	11.3	4	-1E+10	1	-1E+10	1	-1E+10	1	-1E+10	1	-1E+10	1	-1E+10	1
4901784	196	C	11/15/2020	10:43	-133.839	43.638	0	1670.00	0	2.3020	0	37.8490	8	30.240	0	1650.049	0	36.7	4	11.4	4	-1E+10	1	-1E+10	1	-1E+10	1	-1E+10	1	-1E+10	1	-1E+10	1
4901784	196	C	11/15/2020	10:43	-133.839	43.638	0	1674.40	0	2.2960	0	37.8530	8	30.244	0	1654.379	0	37.0	4	11.5	4	-1E+10	1	-1E+10	1	-1E+10	1	-1E+10	1	-1E+10	1	-1E+10	1
4901784	196	C	11/15/2020	10:43	-133.839	43.638	0	1679.80	0	2.2870	0	37.8590	8	30.249	0	1659.694	0	37.5	4	11.7	4	-1E+10	1	-1E+10	1	-1E+10	1	-1E+10	1	-1E+10	1	-1E+10	1
4901784	196	C	11/15/2020	10:43	-133.839	43.638	0	1685.20	0	2.2820	0	37.8610	8	30.251	0	1665.008	0	37.8	4	11.8	4	-1E+10	1	-1E+10	1	-1E+10	1	-1E+10	1	-1E+10	1	-1E+10	1
4901784	196	C	11/15/2020	10:43	-133.839	43.638	0	1690.70	0	2.2750	0	37.8600	8	30.251	0	1670.420	0	38.1	4	11.9	4	-1E+10	1	-1E+10	1	-1E+10	1	-1E+10	1	-1E+10	1	-1E+10	1
4901784	196	C	11/15/2020	10:43	-133.839	43.638	0	1695.20	0	2.2680	0	37.8610	8	30.253	0	1674.848	0	38.4	4	11.9	4	-1E+10	1	-1E+10	1	-1E+10	1	-1E+10	1	-1E+10	1	-1E+10	1
4901784	196	C	11/15/2020	10:43	-133.839	43.638	0	1699.70	0	2.2650	0	37.8600	8	30.252	0	1679.277	0	38.6	4	12.0	4	-1E+10	1	-1E+10	1	-1E+10	1	-1E+10	1	-1E+10	1	-1E+10	1
4901784	196	C	11/15/2020	10:43	-133.839	43.638	0	1705.10	0	2.2600	0	37.8580	8	30.251	0	1684.590	0	38.9	4	12.1	4	-1E+10	1	-1E+10	1	-1E+10	1	-1E+10	1	-1E+10	1	-1E+10	1
4901784	196	C	11/15/2020	10:43	-133.839	43.638	0	1710.50	0	2.2550	0	37.8560	8	30.250	0	1689.904	0	39.2	4	12.2	4	-1E+10	1	-1E+10	1	-1E+10	1	-1E+10	1	-1E+10	1	-1E+10	1
4901784	196	C	11/15/2020	10:43	-133.839	43.638	0	1715.00	0	2.2450	0	37.8510	8	30.247	0	1694.332	0	39.7	4	12.3	4	-1E+10	1	-1E+10	1	-1E+10	1	-1E+10	1	-1E+10	1	-1E+10	1
4901784	196	C	11/15/2020	10:43	-133.839	43.638	0	1719.60	0	2.2390	0	37.8440	8	30.242	0	1698.858	0	40.1	4	12.5	4	-1E+10	1	-1E+10	1	-1E+10	1	-1E+10	1	-1E+10	1	-1E+10	1
4901784	196	C	11/15/2020	10:43	-133.839	43.638	0	1725.00	0	2.2290	0	37.8460	8	30.244	0	1704.171	0	40.6	4	12.6	4	-1E+10	1	-1E+10	1	-1E+10	1	-1E+10	1	-1E+10	1	-1E+10	1
4901784	196	C	11/15/2020	10:43	-133.839	43.638	0	1730.60	0	2.2250	0	37.8450	8	30.244	0	1709.681	0	41.2	4	12.8	4	-1E+10	1	-1E+10	1	-1E+10	1	-1E+10	1	-1E+10	1	-1E+10	1
4901784	196	C	11/15/2020	10:43	-133.839	43.638	0	1735.20	0	2.2160	0	37.8490	8	30.248	0	1714.207	0	41.5	4	12.9	4	-1E+10	1	-1E+10	1	-1E+10	1	-1E+10	1	-1E+10	1	-1E+10	1
4901784	196	C	11/15/2020	10:43	-133.839	43.638	0	1739.80	0	2.2080	0	37.8450	8	30.246	0	1718.732	0	42.0	4	13.0	4	-1E+10	1	-1E+10	1	-1E+10	1	-1E+10	1	-1E+10	1	-1E+10	1
4901784	196	C	11/15/2020	10:43	-133.839	43.638	0	1745.40	0	2.1970	0	37.8460	8	30.247	0	1724.242	0	42.3	4	13.2	4	-1E+10	1	-1E+10	1	-1E+10	1	-1E+10	1	-1E+10	1	-1E+10	1
4901784	196	C	11/15/2020	10:43	-133.839	43.638	0	1749.60	0	2.1880	0	37.8440	8	30.247	0	1728.374	0	42.5	4	13.2	4	-1E+10	1	-1E+10	1	-1E+10	1	-1E+10	1	-1E+10	1	-1E+10	1
4901784	196	C	11/15/2020	10:43	-133.839	43.638	0	1754.50	0	2.1820	0	37.8340	8	30.239	0	1733.194	0	42.8	4	13.3	4	-1E+10	1	-1E+10	1	-1E+10	1	-1E+10	1	-1E+10	1	-1E+10	1
4901784	196	C	11/15/2020	10:43	-133.839	43.638	0	1759.40	0	2.1750	0	37.8340	8	30.240	0	1738.015	0	43.1	4	13.4	4	-1E+10	1	-1E+10	1	-1E+10	1	-1E+10	1	-1E+10	1	-1E+10	1
4901784	196	C	11/15/2020	10:43	-133.839	43.638	0	1764.30	0	2.1700	0	37.8230	8	30.232	0	1742.835	0	43.3	4	13.4	4	-1E+10	1	-1E+10	1	-1E+10	1	-1E+10	1	-1E+10	1	-1E+10	1
4901784	196	C	11/15/2020	10:43	-133.839	43.638	0	1769.20	0	2.1640	0	37.8070	8	30.219	0	1747.655	0	43.6	4	13.5	4	-1E+10	1	-1E+10	1	-1E+10	1	-1E+10	1	-1E+10	1	-1E+10	1
4901784	196	C	11/15/2020	10:43	-133.839	43.638	0	1774.20	0	2.1590	0	37.7760	8	30.195	0	1752.574	0	43.9	4	13.6	4	-1E+10	1	-1E+10	1	-1E+10	1	-1E+10	1	-1E+10	1	-1E+10	1
4901784	196	C	11/15/2020	10:43	-133.839	43.638	0	1779.20	0	2.1550	0	37.7730	8	30.193	0	1757.492	0	44.1	4	13.7	4	-1E+10	1	-1E+10	1	-1E+10	1	-1E+10	1	-1E+10	1	-1E+10	1
4901784	196	C	11/15/2020	10:43	-133.839	43.638	0	1785.00	0	2.1500	0	37.7390	8	30.166	0	1763.197	0	44.4	4	13.8	4	-1E+10	1	-1E+10	1	-1E+10	1	-1E+10	1	-1E+10	1	-1E+10	1
4901784	196	C	11/15/2020	10:43	-133.839	43.638	0	1790.80	0	2.1440	0	37.7060	8	30.140	0	1768.902	0	44.9	4	13.9	4	-1E+10	1	-1E+10	1	-1E+10	1	-1E+10	1	-1E+10	1	-1E+10	1
4901784	196	C	11/15/2020	10:43	-133.839	43.638	0	1795.00	0	2.1370	0	37.7210	8	30.153	0	1773.034	0	45.2	4	14.0	4	-1E+10	1	-1E+10	1	-1E+10	1	-1E+10	1	-1E+10	1	-1E+10	1
4901784	196	C	11/15/2020	10:43	-133.839	43.638	0	1799.30	0	2.1310	0	37.7100	8	30.145	0	1777.263	0	45.5	4	14.1	4	-1E+10	1	-1E+10	1	-1E+10	1	-1E+10	1	-1E+10	1	-1E+10	1
4901784	196	C	11/15/2020	10:43	-133.839	43.638	0	1804.40	0	2.1210	0	37.6840	8	30.125	0	1782.279	0	46.0	4	14.2	4	-1E+10	1	-1E+10	1	-1E+10	1	-1E+10	1	-1E+10	1	-1E+10	1
4901784	196	C	11/15/2020	10:43	-133.839	43.638	0	1809.40	0	2.1120	0	37.6490	8	30.097	0	1787.197	0	46.4	4	14.4	4	-1E+10	1	-1E+10	1	-1E+10	1	-1E+10	1	-1E+10	1	-1E+10	1
4901784	196	C	11/15/2020	10:43	-133.839	43.638	0	1814.50	0	2.1080	0	37.6270	8	30.080	0	1792.213	0	46.8	4	14.5	4	-1E+10	1	-1E+10	1	-1E+10	1	-1E+10	1	-1E+10	1	-1E+10	1
4901784	196	C	11/15/2020	10:43	-133.839	43.638	0	1819.60	0	2.1030	8	37.6130	8	30.069	0	1797.229	0	47.0	4	14.5	4	-1E+10	1	-1E+10	1	-1E+10	1	-1E+10	1	-1E+10	1	-1E+10	1
4901784	196	C	11/15/2020	10:43	-133.839	43.638	0	1824.70	0	2.1020	8	37.5130	8	29.989	0	1802.244	0	47.3	4	14.6	4	-1E+10	1	-1E+10	1	-1E+10	1	-1E+10	1	-1E+10	1	-1E+10	1
4901784	196	C	11/15/2020	10:43	-133.839	43.638	0	1829.90	0	2.0950	0	37.4980	8	29.978	0	1807.358	0	47.6	4	14.7	4	-1E+10	1	-1E+10	1	-1E+10	1	-1E+10	1	-1E+10	1	-1E+10	1
4901784	196	C	11/15/2020	10:43	-133.839	43.638	0	1835.00	0	2.0880	0	37.4710	8	29.957	0	1812.374	0	48.0	4	14.8	4	-1E+10	1	-1E+10	1	-1E+10	1	-1E+10	1	-1E+10	1	-1E+10	1
4901784	196	C	11/15/2020	10:43	-133.839	43.638	0	1840.10	0	2.0820	0	37.4780	8	29.963	0	1817.389	0	48.3	4	14.9	4	-1E+10	1	-1E+10	1	-1E+10	1	-1E+10	1	-1E+10	1	-1E+10	1
4901784	196	C	11/15/2020	10:43	-133.839	43.638	0	1845.30	0	2.0790	0	37.5080	8	29.987	0	1822.502	0	48.5	4	15.0	4	-1E+10	1	-1E+10	1	-1E+10	1	-1E+10	1	-1E+10	1	-1E+10	1
4901784	196	C	11/15/2020	10:43	-133.839	43.638	0	1850.60	0	2.0740	0	37.4890	8	29.973	0	1827.714	0	48.8	4	15.1	4	-1E+10	1	-1E+10	1	-1E+10	1	-1E+10	1	-1E+10	1	-1E+10	1
4901784	196	C	11/15/2020	10:43	-133.839	43.638	0	1855.00	0	2.0670	0	37.4860	8	29.971	0	1832.041	0	49.1	4	15.2	4	-1E+10	1	-1E+10	1	-1E+10	1	-1E+10	1	-1E+10	1	-1E+10	1
4901784	196	C	11/15/2020	10:43	-133.839	43.638	0	1859.30	0	2.0630	0	37.4750	8	29.962	0	1836.269	0	49.5	4	15.3	4	-1E+10	1	-1E+10	1	-1E+10	1	-1E+10	1	-1E+10	1	-1E+10	1
4901784	196	C	11/15/2020	10:43	-133.839	43.638	0	1864.60	0	2.0560	0	37.4970	8	29.981	0	1841.480	0	49.9	4	15.4	4	-1E+10	1	-1E+10	1	-1E+10	1	-1E+10	1	-1E+10	1	-1E+10	1
4901784	196	C	11/15/2020	10:43	-133.839	43.638	0	1869.90	0	2.0520	0	37.4820	8	29.969	0	1846.692	0	50.2	4	15.5	4	-1E+10	1	-1E+10	1	-1E+10	1	-1E+10	1	-1E+10	1	-1E+10	1
4901784	196	C	11/15/2020	10:43	-133.839	43.638	0	1875.30	0	2.0460	0	37.4710	8	29.961	0	1852.001	0	50.6	4	15.6	4	-1E+10	1	-1E+10	1	-1E+10	1	-1E+10	1	-1E+10	1	-1E+10	1
4901784	196	C	11/15/2020	10:43	-133.839	43.638	0	1880.60	0	2.0430	0	37.4820	8	29.970	0	1857.212	0	50.9	4	15.7	4	-1E+10	1	-1E+10	1	-1E+10	1	-1E+10	1	-1E+10	1	-1E+10	1
4901784	196	C	11/15/2020	10:43	-133.839	43.638	0	1885.10	0	2.0390	0	37.5000	8	29.985	0	1861.637	0	51.2	4	15.8	4	-1E+10	1	-1E+10	1	-1E+10	1	-1E+10	1	-1E+10	1	-1E+10	1
4901784	196	C	11/15/2020	10:43	-133.839	43.638	0	1889.60	0	2.0360	8	37.4990	8	29.984	0	1866.061	0	51.4	4	15.9	4	-1E+10	1	-1E+10	1	-1E+10	1	-1E+10	1	-1E+10	1	-1E+10	1
4901784	196	C	11/15/2020	10:43	-133.839	43.638	0	1894.90	0	2.0320	8	37.4550	8	29.949	0	1871.272	0	51.8	4	16.0	4	-1E+10	1	-1E+10	1	-1E+10	1	-1E+10	1	-1E+10	1	-1E+10	1
4901784	196	C	11/15/2020	10:43	-133.839	43.638	0	1900.40	0	2.0290	0	37.4590	8	29.953	0	1876.679	0	52.2	4	16.1	4	-1E+10	1	-1E+10	1	-1E+10	1	-1E+10	1	-1E+10	1	-1E+10	1
4901784	196	C	11/15/2020	10:43	-133.839	43.638	0	1904.90	0	2.0230	0	37.4550	8	29.950	0	1881.103	0	52.6	4	16.2	4	-1E+10	1	-1E+10	1	-1E+10	1	-1E+10	1	-1E+10	1	-1E+10	1
4901784	196	C	11/15/2020	10:43	-133.839	43.638	0	1909.50	0	2.0180	0	37.4500	8	29.946	0	1885.625	0	52.9	4	16.3	4	-1E+10	1	-1E+10	1	-1E+10	1	-1E+10	1	-1E+10	1	-1E+10	1
4901784	196	C	11/15/2020	10:43	-133.839	43.638	0	1915.00	0	2.0130	0	37.4460	8	29.944	0	1891.032	0	53.4	4	16.5	4	-1E+10	1	-1E+10	1	-1E+10	1	-1E+10	1	-1E+10	1	-1E+10	1
4901784	196	C	11/15/2020	10:43	-133.839	43.638	0	1920.60	0	2.0050	0	37.4480	8	29.946	0	1896.537	0	53.9	4	16.6	4	-1E+10	1	-1E+10	1	-1E+10	1	-1E+10	1	-1E+10	1	-1E+10	1
4901784	196	C	11/15/2020	10:43	-133.839	43.638	0	1925.30	0	1.9980	0	37.4500	8	29.948	0	1901.157	0	54.2	4	16.7	4	-1E+10	1	-1E+10	1	-1E+10	1	-1E+10	1	-1E+10	1	-1E+10	1
4901784	196	C	11/15/2020	10:43	-133.839	43.638	0	1929.90	0	1.9950	0	37.4520	8	29.950	0	1905.679	0	54.4	4	16.8	4	-1E+10	1	-1E+10	1	-1E+10	1	-1E+10	1	-1E+10	1	-1E+10	1
4901784	196	C	11/15/2020	10:43	-133.839	43.638	0	1934.80	0	1.9920	0	37.4500	8	29.949	0	1910.495	0	54.7	4	16.8	4	-1E+10	1	-1E+10	1	-1E+10	1	-1E+10	1	-1E+10	1	-1E+10	1
4901784	196	C	11/15/2020	10:43	-133.839	43.638	0	1939.80	0	1.9890	0	37.4510	8	29.950	0	1915.410	0	54.9	4	16.9	4	-1E+10	1	-1E+10	1	-1E+10	1	-1E+10	1	-1E+10	1	-1E+10	1
4901784	196	C	11/15/2020	10:43	-133.839	43.638	0	1944.70	0	1.9860	0	37.4440	8	29.945	0	1920.226	0	55.1	4	17.0	4	-1E+10	1	-1E+10	1	-1E+10	1	-1E+10	1	-1E+10	1	-1E+10	1
4901784	196	C	11/15/2020	10:43	-133.839	43.638	0	1949.80	0	1.9830	0	37.4510	8	29.950	0	1925.239	0	55.4	4	17.1	4	-1E+10	1	-1E+10	1	-1E+10	1	-1E+10	1	-1E+10	1	-1E+10	1
4901784	196	C	11/15/2020	10:43	-133.839	43.638	0	1954.80	0	1.9780	0	37.4460	8	29.947	0	1930.153	0	55.7	4	17.1	4	-1E+10	1	-1E+10	1	-1E+10	1	-1E+10	1	-1E+10	1	-1E+10	1
4901784	196	C	11/15/2020	10:43	-133.839	43.638	0	1959.80	0	1.9760	0	37.4460	8	29.947	0	1935.068	0	55.9	4	17.2	4	-1E+10	1	-1E+10	1	-1E+10	1	-1E+10	1	-1E+10	1	-1E+10	1
4901784	196	C	11/15/2020	10:43	-133.839	43.638	0	1964.90	0	1.9710	0	37.4520	8	29.952	0	1940.080	0	56.3	4	17.3	4	-1E+10	1	-1E+10	1	-1E+10	1	-1E+10	1	-1E+10	1	-1E+10	1
4901784	196	C	11/15/2020	10:43	-133.839	43.638	0	1969.90	0	1.9670	0	37.4510	8	29.952	0	1944.994	0	56.5	4	17.4	4	-1E+10	1	-1E+10	1	-1E+10	1	-1E+10	1	-1E+10	1	-1E+10	1
4901784	196	C	11/15/2020	10:43	-133.839	43.638	0	1975.00	0	1.9620	0	37.4480	8	29.950	0	1950.006	0	56.9	4	17.5	4	-1E+10	1	-1E+10	1	-1E+10	1	-1E+10	1	-1E+10	1	-1E+10	1
4901784	196	C	11/15/2020	10:43	-133.839	43.638	0	1980.10	0	1.9580	0	37.4430	8	29.946	0	1955.018	0	57.2	4	17.6	4	-1E+10	1	-1E+10	1	-1E+10	1	-1E+10	1	-1E+10	1	-1E+10	1
4901784	196	C	11/15/2020	10:43	-133.839	43.638	0	1985.20	0	1.9540	0	37.4400	8	29.944	0	1960.030	0	57.5	4	17.7	4	-1E+10	1	-1E+10	1	-1E+10	1	-1E+10	1	-1E+10	1	-1E+10	1
4901784	196	C	11/15/2020	10:43	-133.839	43.638	0	1990.30	0	1.9520	0	37.4390	8	29.944	0	1965.042	0	57.8	4	17.8	4	-1E+10	1	-1E+10	1	-1E+10	1	-1E+10	1	-1E+10	1	-1E+10	1
4901784	196	C	11/15/2020	10:43	-133.839	43.638	0	1995.40	0	1.9470	0	37.4380	8	29.943	0	1970.054	0	58.0	4	17.9	4	-1E+10	1	-1E+10	1	-1E+10	1	-1E+10	1	-1E+10	1	-1E+10	1
4901784	196	C	11/15/2020	10:43	-133.839	43.638	0	2000.60	0	1.9450	0	37.4390	8	29.944	0	1975.164	0	58.2	4	17.9	4	-1E+10	1	-1E+10	1	-1E+10	1	-1E+10	1	-1E+10	1	-1E+10	1
4901784	196	C	11/15/2020	10:43	-133.839	43.638	0	2004.90	0	1.9440	0	37.4390	8	29.945	0	1979.389	0	58.3	4	18.0	4	-1E+10	1	-1E+10	1	-1E+10	1	-1E+10	1	-1E+10	1	-1E+10	1
4901784	196	C	11/15/2020	10:43	-133.839	43.638	0	2009.30	0	1.9410	0	37.4380	8	29.944	0	1983.713	0	58.5	4	18.0	4	-1E+10	1	-1E+10	1	-1E+10	1	-1E+10	1	-1E+10	1	-1E+10	1
4901784	196	C	11/15/2020	10:43	-133.839	43.638	0	2015.10	0	1.9400	0	37.4390	8	29.945	0	1989.412	0	58.7	4	18.1	4	-1E+10	1	-1E+10	1	-1E+10	1	-1E+10	1	-1E+10	1	-1E+10	1
4901784	196	C	11/15/2020	10:43	-133.839	43.638	0	2019.90	0	1.9380	0	37.4400	8	29.946	0	1994.128	0	59.0	4	18.2	4	-1E+10	1	-1E+10	1	-1E+10	1	-1E+10	1	-1E+10	1	-1E+10	1
4901784	196	C	11/15/2020	10:43	-133.839	43.638	0																										
4901784	198	C	12/05/2020	10:48	-133.986	43.616	0	2.20	0	13.8590	0	35.4520	8	26.567	0	2.182	0	242.8	4	96.1	4	-1E+10	1	-1E+10	1	-1E+10	1	-1E+10	1	-1E+10	1	-1E+10	1
4901784	198	C	12/05/2020	10:48	-133.986	43.616	0	3.30	0	13.8590	0	35.4530	8	26.568	0	3.274	0	242.7	4	96.1	4	-1E+10	1	-1E+10	1	-1E+10	1	-1E+10	1	-1E+10	1	-1E+10	1
4901784	198	C	12/05/2020	10:48	-133.986	43.616	0	4.30	0	13.8590	0	35.4540	8	26.569	0	4.266	0	242.7	4	96.0	4	-1E+10	1	-1E+10	1	-1E+10	1	-1E+10	1	-1E+10	1	-1E+10	1
4901784	198	C	12/05/2020	10:48	-133.986	43.616	0	5.50	0	13.8590	0	35.4540	8	26.569	0	5.456	0	242.7	4	96.1	4	-1E+10	1	-1E+10	1	-1E+10	1	-1E+10	1	-1E+10	1	-1E+10	1
4901784	198	C	12/05/2020	10:48	-133.986	43.616	0	6.60	0	13.8590	0	35.4550	8	26.569	0	6.547	0	242.5	4	96.0	4	-1E+10	1	-1E+10	1	-1E+10	1	-1E+10	1	-1E+10	1	-1E+10	1
4901784	198	C	12/05/2020	10:48	-133.986	43.616	0	8.10	0	13.8590	0	35.4550	8	26.570	0	8.035	0	242.7	4	96.0	4	-1E+10	1	-1E+10	1	-1E+10	1	-1E+10	1	-1E+10	1	-1E+10	1
4901784	198	C	12/05/2020	10:48	-133.986	43.616	0	9.60	0	13.8590	0	35.4560	8	26.570	0	9.523	0	242.5	4	96.0	4	-1E+10	1	-1E+10	1	-1E+10	1	-1E+10	1	-1E+10	1	-1E+10	1
4901784	198	C	12/05/2020	10:48	-133.986	43.616	0	11.20	0	13.8600	0	35.4580	8	26.572	0	11.110	0	242.6	4	96.0	4	-1E+10	1	-1E+10	1	-1E+10	1	-1E+10	1	-1E+10	1	-1E+10	1
4901784	198	C	12/05/2020	10:48	-133.986	43.616	0	12.90	0	13.8600	0	35.4590	8	26.573	0	12.797	0	242.5	4	96.0	4	-1E+10	1	-1E+10	1	-1E+10	1	-1E+10	1	-1E+10	1	-1E+10	1
4901784	198	C	12/05/2020	10:48	-133.986	43.616	0	14.60	0	13.8610	0	35.4640	8	26.576	0	14.483	0	242.4	4	95.9	4	-1E+10	1	-1E+10	1	-1E+10	1	-1E+10	1	-1E+10	1	-1E+10	1
4901784	198	C	12/05/2020	10:48	-133.986	43.616	0	16.40	0	13.8610	0	35.4630	8	26.576	0	16.268	0	242.4	4	95.9	4	-1E+10	1	-1E+10	1	-1E+10	1	-1E+10	1	-1E+10	1	-1E+10	1
4901784	198	C	12/05/2020	10:48	-133.986	43.616	0	18.20	0	13.8630	0	35.4670	8	26.578	0	18.054	0	242.5	4	96.0	4	-1E+10	1	-1E+10	1	-1E+10	1	-1E+10	1	-1E+10	1	-1E+10	1
4901784	198	C	12/05/2020	10:48	-133.986	43.616	0	20.20	0	13.8620	0	35.4670	8	26.579	0	20.038	0	242.4	4	95.9	4	-1E+10	1	-1E+10	1	-1E+10	1	-1E+10	1	-1E+10	1	-1E+10	1
4901784	198	C	12/05/2020	10:48	-133.986	43.616	0	22.10	0	13.8610	0	35.4610	8	26.574	0	21.922	0	242.3	4	95.9	4	-1E+10	1	-1E+10	1	-1E+10	1	-1E+10	1	-1E+10	1	-1E+10	1
4901784	198	C	12/05/2020	10:48	-133.986	43.616	0	24.00	0	13.8620	0	35.4660	8	26.578	0	23.807	0	242.2	4	95.9	4	-1E+10	1	-1E+10	1	-1E+10	1	-1E+10	1	-1E+10	1	-1E+10	1
4901784	198	C	12/05/2020	10:48	-133.986	43.616	0	25.70	0	13.8630	0	35.4690	8	26.580	0	25.493	0	242.4	4	95.9	4	-1E+10	1	-1E+10	1	-1E+10	1	-1E+10	1	-1E+10	1	-1E+10	1
4901784	198	C	12/05/2020	10:48	-133.986	43.616	0	27.40	0	13.8640	0	35.4740	8	26.584	0	27.179	0	242.3	4	95.9	4	-1E+10	1	-1E+10	1	-1E+10	1	-1E+10	1	-1E+10	1	-1E+10	1
4901784	198	C	12/05/2020	10:48	-133.986	43.616	0	29.20	0	13.8640	0	35.4740	8	26.584	0	28.965	0	242.2	4	95.9	4	-1E+10	1	-1E+10	1	-1E+10	1	-1E+10	1	-1E+10	1	-1E+10	1
4901784	198	C	12/05/2020	10:48	-133.986	43.616	0	30.90	0	13.8640	0	35.4740	8	26.584	0	30.651	0	242.1	4	95.8	4	-1E+10	1	-1E+10	1	-1E+10	1	-1E+10	1	-1E+10	1	-1E+10	1
4901784	198	C	12/05/2020	10:48	-133.986	43.616	0	32.40	0	13.8640	0	35.4750	8	26.585	0	32.139	0	242.0	4	95.8	4	-1E+10	1	-1E+10	1	-1E+10	1	-1E+10	1	-1E+10	1	-1E+10	1
4901784	198	C	12/05/2020	10:48	-133.986	43.616	0	34.10	0	13.8650	0	35.4790	8	26.588	0	33.825	0	242.1	4	95.8	4	-1E+10	1	-1E+10	1	-1E+10	1	-1E+10	1	-1E+10	1	-1E+10	1
4901784	198	C	12/05/2020	10:48	-133.986	43.616	0	35.90	0	13.8660	0	35.4840	8	26.591	0	35.610	0	241.8	4	95.7	4	-1E+10	1	-1E+10	1	-1E+10	1	-1E+10	1	-1E+10	1	-1E+10	1
4901784	198	C	12/05/2020	10:48	-133.986	43.616	0	37.70	0	13.8670	0	35.4970	8	26.601	0	37.395	0	241.8	4	95.7	4	-1E+10	1	-1E+10	1	-1E+10	1	-1E+10	1	-1E+10	1	-1E+10	1
4901784	198	C	12/05/2020	10:48	-133.986	43.616	0	39.30	0	13.8680	0	35.4990	8	26.603	0	38.982	0	241.7	4	95.7	4	-1E+10	1	-1E+10	1	-1E+10	1	-1E+10	1	-1E+10	1	-1E+10	1
4901784	198	C	12/05/2020	10:48	-133.986	43.616	0	41.00	0	13.8680	0	35.5010	8	26.604	0	40.668	0	241.6	4	95.7	4	-1E+10	1	-1E+10	1	-1E+10	1	-1E+10	1	-1E+10	1	-1E+10	1
4901784	198	C	12/05/2020	10:48	-133.986	43.616	0	42.80	0	13.8680	0	35.5020	8	26.605	0	42.454	0	241.7	4	95.7	4	-1E+10	1	-1E+10	1	-1E+10	1	-1E+10	1	-1E+10	1	-1E+10	1
4901784	198	C	12/05/2020	10:48	-133.986	43.616	0	44.60	0	13.8680	0	35.5040	8	26.607	0	44.239	0	241.5	4	95.6	4	-1E+10	1	-1E+10	1	-1E+10	1	-1E+10	1	-1E+10	1	-1E+10	1
4901784	198	C	12/05/2020	10:48	-133.986	43.616	0	46.30	0	13.8690	0	35.5050	8	26.607	0	45.925	0	241.6	4	95.7	4	-1E+10	1	-1E+10	1	-1E+10	1	-1E+10	1	-1E+10	1	-1E+10	1
4901784	198	C	12/05/2020	10:48	-133.986	43.616	0	48.00	0	13.8690	0	35.5060	8	26.608	0	47.611	0	241.5	4	95.6	4	-1E+10	1	-1E+10	1	-1E+10	1	-1E+10	1	-1E+10	1	-1E+10	1
4901784	198	C	12/05/2020	10:48	-133.986	43.616	0	49.70	0	13.8690	0	35.5090	8	26.610	0	49.297	0	241.2	4	95.5	4	-1E+10	1	-1E+10	1	-1E+10	1	-1E+10	1	-1E+10	1	-1E+10	1
4901784	198	C	12/05/2020	10:48	-133.986	43.616	0	51.40	0	13.8700	0	35.5090	8	26.610	0	50.983	0	241.2	4	95.5	4	-1E+10	1	-1E+10	1	-1E+10	1	-1E+10	1	-1E+10	1	-1E+10	1
4901784	198	C	12/05/2020	10:48	-133.986	43.616	0	53.10	0	13.8690	0	35.5120	8	26.613	0	52.669	0	241.2	4	95.5	4	-1E+10	1	-1E+10	1	-1E+10	1	-1E+10	1	-1E+10	1	-1E+10	1
4901784	198	C	12/05/2020	10:48	-133.986	43.616	0	54.80	0	13.8700	0	35.5130	8	26.613	0	54.355	0	241.0	4	95.4	4	-1E+10	1	-1E+10	1	-1E+10	1	-1E+10	1	-1E+10	1	-1E+10	1
4901784	198	C	12/05/2020	10:48	-133.986	43.616	0	56.60	0	13.8700	0	35.5140	8	26.614	0	56.140	0	240.9	4	95.4	4	-1E+10	1	-1E+10	1	-1E+10	1	-1E+10	1	-1E+10	1	-1E+10	1
4901784	198	C	12/05/2020	10:48	-133.986	43.616	0	58.20	0	13.8700	0	35.5150	8	26.615	0	57.727	0	241.0	4	95.4	4	-1E+10	1	-1E+10	1	-1E+10	1	-1E+10	1	-1E+10	1	-1E+10	1
4901784	198	C	12/05/2020	10:48	-133.986	43.616	0	59.90	0	13.8700	0	35.5150	8	26.615	0	59.413	0	240.7	4	95.3	4	-1E+10	1	-1E+10	1	-1E+10	1	-1E+10	1	-1E+10	1	-1E+10	1
4901784	198	C	12/05/2020	10:48	-133.986	43.616	0	61.60	0	13.8710	0	35.5170	8	26.617	0	61.099	0	240.5	4	95.2	4	-1E+10	1	-1E+10	1	-1E+10	1	-1E+10	1	-1E+10	1	-1E+10	1
4901784	198	C	12/05/2020	10:48	-133.986	43.616	0	63.40	0	13.8700	0	35.5170	8	26.617	0	62.884	0	240.5	4	95.3	4	-1E+10	1	-1E+10	1	-1E+10	1	-1E+10	1	-1E+10	1	-1E+10	1
4901784	198	C	12/05/2020	10:48	-133.986	43.616	0	65.00	0	13.8680	0	35.5190	8	26.619	0	64.470	0	240.4	4	95.2	4	-1E+10	1	-1E+10	1	-1E+10	1	-1E+10	1	-1E+10	1	-1E+10	1
4901784	198	C	12/05/2020	10:48	-133.986	43.616	0	66.70	0	13.8660	0	35.5230	8	26.622	0	66.156	0	240.2	4	95.1	4	-1E+10	1	-1E+10	1	-1E+10	1	-1E+10	1	-1E+10	1	-1E+10	1
4901784	198	C	12/05/2020	10:48	-133.986	43.616	0	68.50	0	13.8650	0	35.5240	8	26.623	0	67.941	0	240.1	4	95.1	4	-1E+10	1	-1E+10	1	-1E+10	1	-1E+10	1	-1E+10	1	-1E+10	1
4901784	198	C	12/05/2020	10:48	-133.986	43.616	0	70.10	0	13.8680	0	35.5270	8	26.625	0	69.528	0	239.8	4	95.0	4	-1E+10	1	-1E+10	1	-1E+10	1	-1E+10	1	-1E+10	1	-1E+10	1
4901784	198	C	12/05/2020	10:48	-133.986	43.616	0	72.10	0	13.8740	0	35.5210	8	26.619	0	71.511	0	239.6	4	94.9	4	-1E+10	1	-1E+10	1	-1E+10	1	-1E+10	1	-1E+10	1	-1E+10	1
4901784	198	C	12/05/2020	10:48	-133.986	43.616	0	73.60	0	13.8570	0	35.5110	8	26.615	0	72.999	0	239.5	4	94.8	4	-1E+10	1	-1E+10	1	-1E+10	1	-1E+10	1	-1E+10	1	-1E+10	1
4901784	198	C	12/05/2020	10:48	-133.986	43.616	0	74.90	0	13.6740	0	35.5300	8	26.668	0	74.288	0	240.0	4	94.7	4	-1E+10	1	-1E+10	1	-1E+10	1	-1E+10	1	-1E+10	1	-1E+10	1
4901784	198	C	12/05/2020	10:48	-133.986	43.616	0	76.10	0	13.5200	0	35.5260	8	26.697	0	75.478	0	240.4	4	94.5	4	-1E+10	1	-1E+10	1	-1E+10	1	-1E+10	1	-1E+10	1	-1E+10	1
4901784	198	C	12/05/2020	10:48	-133.986	43.616	0	77.40	0	13.4030	0	35.5110	8	26.710	0	76.767	0	240.8	4	94.5	4	-1E+10	1	-1E+10	1	-1E+10	1	-1E+10	1	-1E+10	1	-1E+10	1
4901784	198	C	12/05/2020	10:48	-133.986	43.616	0	78.70	0	12.9650	0	35.5280	8	26.812	0	78.056	0	241.7	4	94.0	4	-1E+10	1	-1E+10	1	-1E+10	1	-1E+10	1	-1E+10	1	-1E+10	1
4901784	198	C	12/05/2020	10:48	-133.986	43.616	0	80.20	0	12.4850	0	35.5600	8	26.932	0	79.544	0	244.0	4	94.0	4	-1E+10	1	-1E+10	1	-1E+10	1	-1E+10	1	-1E+10	1	-1E+10	1
4901784	198	C	12/05/2020	10:48	-133.986	43.616	0	81.70	0	12.2210	0	35.5780	8	26.998	0	81.031	0	245.0	4	93.9	4	-1E+10	1	-1E+10	1	-1E+10	1	-1E+10	1	-1E+10	1	-1E+10	1
4901784	198	C	12/05/2020	10:48	-133.986	43.616	0	83.20	0	11.9840	0	35.5940	8	27.056	0	82.519	0	245.3	4	93.5	4	-1E+10	1	-1E+10	1	-1E+10	1	-1E+10	1	-1E+10	1	-1E+10	1
4901784	198	C	12/05/2020	10:48	-133.986	43.616	0	84.80	0	11.8810	0	35.5950	8	27.077	0	84.105	0	244.9	4	93.2	4	-1E+10	1	-1E+10	1	-1E+10	1	-1E+10	1	-1E+10	1	-1E+10	1
4901784	198	C	12/05/2020	10:48	-133.986	43.616	0	86.40	0	11.8110	0	35.5890	8	27.086	0	85.692	0	243.8	4	92.6	4	-1E+10	1	-1E+10	1	-1E+10	1	-1E+10	1	-1E+10	1	-1E+10	1
4901784	198	C	12/05/2020	10:48	-133.986	43.616	0	88.00	0	11.5350	0	35.6090	8	27.153	0	87.278	0	242.9	4	91.8	4	-1E+10	1	-1E+10	1	-1E+10	1	-1E+10	1	-1E+10	1	-1E+10	1
4901784	198	C	12/05/2020	10:48	-133.986	43.616	0	89.80	0	11.1110	0	35.6630	8	27.274	0	89.063	0	243.7	4	91.3	4	-1E+10	1	-1E+10	1	-1E+10	1	-1E+10	1	-1E+10	1	-1E+10	1
4901784	198	C	12/05/2020	10:48	-133.986	43.616	0	91.60	0	10.9970	0	35.6670	8	27.298	0	90.848	0	243.6	4	91.1	4	-1E+10	1	-1E+10	1	-1E+10	1	-1E+10	1	-1E+10	1	-1E+10	1
4901784	198	C	12/05/2020	10:48	-133.986	43.616	0	93.40	0	10.9090	0	35.6700	8	27.317	0	92.633	0	243.3	4	90.7	4	-1E+10	1	-1E+10	1	-1E+10	1	-1E+10	1	-1E+10	1	-1E+10	1
4901784	198	C	12/05/2020	10:48	-133.986	43.616	0	95.30	0	10.8660	0	35.6630	8	27.319	0	94.517	0	242.9	4	90.5	4	-1E+10	1	-1E+10	1	-1E+10	1	-1E+10	1	-1E+10	1	-1E+10	1
4901784	198	C	12/05/2020	10:48	-133.986	43.616	0	97.10	0	10.6090	0	35.6540	8	27.358	0	96.301	0	243.5	4	90.2	4	-1E+10	1	-1E+10	1	-1E+10	1	-1E+10	1	-1E+10	1	-1E+10	1
4901784	198	C	12/05/2020	10:48	-133.986	43.616	0	99.00	0	10.4610	0	35.6430	8	27.376	0	98.185	0	243.7	4	90.0	4	-1E+10	1	-1E+10	1	-1E+10	1	-1E+10	1	-1E+10	1	-1E+10	1
4901784	198	C	12/05/2020	10:48	-133.986	43.616	0	102.90	0	10.3400	0	35.6480	8	27.401	0	102.052	0	243.1	4	89.6	4	-1E+10	1	-1E+10	1	-1E+10	1	-1E+10	1	-1E+10	1	-1E+10	1
4901784	198	C	12/05/2020	10:48	-133.986	43.616	0	104.70	0	10.3230	0	35.6540	8	27.409	0	103.837	0	242.6	4	89.4	4	-1E+10	1	-1E+10	1	-1E+10	1	-1E+10	1	-1E+10	1	-1E+10	1
4901784	198	C	12/05/2020	10:48	-133.986	43.616	0	107.60	0	10.3450	0	35.6660	8	27.415	0	106.712	0	241.5	4	89.0	4	-1E+10	1	-1E+10	1	-1E+10	1	-1E+10	1	-1E+10	1	-1E+10	1
4901784	198	C	12/05/2020	10:48	-133.986	43.616	0	110.50	0	10.2830	0	35.6740	8	27.432	0	109.588	0	241.0	4	88.7	4	-1E+10	1	-1E+10	1	-1E+10	1	-1E+10	1	-1E+10	1	-1E+10	1
4901784	198	C	12/05/2020	10:48	-133.986	43.616	0	112.40	0	10.2370	0	35.6950	8	27.456	0	111.471	0	240.7	4	88.6	4	-1E+10	1	-1E+10	1	-1E+10	1	-1E+10	1	-1E+10	1	-1E+10	1
4901784	198	C	12/05/2020	10:48	-133.986	43.616	0	114.30	0	10.1910	0	35.7010	8	27.469	0	113.355	0	240.8	4	88.5	4	-1E+10	1	-1E+10	1	-1E+10	1	-1E+10	1	-1E+10	1	-1E+10	1
4901784	198	C	12/05/2020	10:48	-133.986	43.616	0	117.20	0	10.0850	0	35.6950	8	27.483	0	116.230	0	240.7	4	88.2	4	-1E+10	1	-1E+10	1	-1E+10	1	-1E+10	1	-1E+10	1	-1E+10	1
4901784	198	C	12/05/2020	10:48	-133.986	43.616	0	120.10	0	9.9970	0	35.6940	8	27.498	0	119.106	0	240.8	4	88.1	4	-1E+10	1	-1E+10	1	-1E+10	1	-1E+10	1	-1E+10	1	-1E+10	1
4901784	198	C	12/05/2020	10:48	-133.986	43.616	0	121.90	0	9.9870	0	35.6980	8	27.502	0	120.890	0	240.2	4	87.9	4	-1E+10	1	-1E+10	1	-1E+10	1	-1E+10	1	-1E+10	1	-1E+10	1
4901784	198	C	12/05/2020	10:48	-133.986	43.616	0	124.90	0	9.8680	0	35.7140	8	27.535	0	123.864	0	239.7	4	87.5	4	-1E+10	1	-1E+10	1	-1E+10	1	-1E+10	1	-1E+10	1	-1E+10	1
4901784	198	C	12/05/2020	10:48	-133.986	43.616	0	127.70	0	9.7850	0	35.7240	8	27.557	0	126.640	0	238.5	4	86.9	4	-1E+10	1	-1E+10	1	-1E+10	1	-1E+10	1	-1E+10	1	-1E+10	1
4901784	198	C	12/05/2020	10:48	-133.986	43.616	0	130.00	0	9.8210	0	35.7490	8	27.571	0	128.921	0	236.5	4	86.3	4	-1E+10	1	-1E+10	1	-1E+10	1	-1E+10	1	-1E+10	1	-1E+10	1
4901784	198	C	12/05/2020	10:48	-133.986	43.616	0	132.30	0	9.8360	0	35.7540	8	27.572	0	131.201	0	234.3	4	85.5	4	-1E+10	1	-1E+10	1	-1E+10	1	-1E+10	1	-1E+10	1	-1E+10	1
4901784	198	C	12/05/2020	10:48	-133.986	43.616	0	134.60	0	9.7600	0	35.7710	8	27.599	0	133.481	0	231.5	4	84.3	4	-1E+10	1	-1E+10	1	-1E+10	1	-1E+10	1	-1E+10	1	-1E+10	1
4901784	198	C	12/05/2020	10:48	-133.986	43.616	0	137.70	0	9.6930	0	35.8430	8	27.666	0	136.554	0	227.2	4	82.7	4	-1E+10	1	-1E+10	1	-1E+10	1	-1E+10	1	-1E+10	1	-1E+10	1
4901784	198	C	12/05/2020	10:48	-133.986	43.616	0	140.00	0	9.6270	0	35.8770	8	27.704	0	138.834	0	224.7	4	81.7	4	-1E+10	1	-1E+10	1	-1E+10	1	-1E+10	1	-1E+10	1	-1E+10	1
4901784	198	C	12/05/2020	10:48	-133.986	43.616	0	142.50	0	9.6020	0	35.8820	8	27.712	0	141.313	0	221.4	4	80.5	4	-1E+10	1	-1E+10	1	-1E+10	1	-1E+10	1	-1E+10	1	-1E+10	1
4901784	198	C	12/05/2020	10:48	-133.986	43.616	0	145.10	0	9.4560	0	35.9530	8	27.793	0	143.890	0	218.1	4	79.0	4	-1E+10	1	-1E+10	1	-1E+10	1	-1E+10	1	-1E+10	1	-1E+10	1
4901784	198	C	12/05/2020	10:48	-133.986	43.616	0	147.70	0	9.2150	0	36.0130	8	27.880	0	146.467	0	215.8	4	77.8	4	-1E+10	1	-1E+10	1	-1E+10	1	-1E+10	1	-1E+10	1	-1E+10	1
4901784	198	C	12/05/2020	10:48	-133.986	43.616	0	150.30	0	9.1150	0	36.0410	8	27.918	0	149.045	0	214.3	4	77.1	4	-1E+10	1	-1E+10	1	-1E+10	1	-1E+10	1	-1E+10	1	-1E+10	1
4901784	198	C	12/05/2020	10:48	-133.986	43.616	0	152.00	0	8.9780	0	36.0830	8	27.973	0	150.730	0	213.2	4	76.5	4	-1E+10	1	-1E+10	1	-1E+10	1	-1E+10	1	-1E+10	1	-1E+10	1
4901784	198	C	12/05/2020	10:48	-133.986	43.616	0	154.80	0	8.9370	0	36.0970	8	27.991	0	153.505	0	211.6	4	75.9	4	-1E+10	1	-1E+10	1	-1E+10	1	-1E+10	1	-1E+10	1	-1E+10	1
4901784	198	C	12/05/2020	10:48	-133.986	43.616	0	157.30	0	8.8550	0	36.1210	8	28.023	0	155.984	0	209.4	4	75.0	4	-1E+10	1	-1E+10	1	-1E+10	1	-1E+10	1	-1E+10	1	-1E+10	1
4901784	198	C	12/05/2020	10:48	-133.986	43.616	0	159.60	0	8.5860	0	36.1490	8	28.088	0	158.263	0	208.5	4	74.2	4	-1E+10	1	-1E+10	1	-1E+10	1	-1E+10	1	-1E+10	1	-1E+10	1
4901784	198	C	12/05/2020	10:48	-133.986	43.616	0	162.60	0	8.3560	0	36.2020	8	28.166	0	161.237	0	207.4	4	73.5	4	-1E+10	1	-1E+10	1	-1E+10	1	-1E+10	1	-1E+10	1	-1E+10	1
4901784	198	C	12/05/2020	10:48	-133.986	43.616	0	165.00	0	8.2660	0	36.2430	8	28.213	0	163.616	0	205.8	4	72.8	4	-1E+10	1	-1E+10	1	-1E+10	1	-1E+10	1	-1E+10	1	-1E+10	1
4901784	198	C	12/05/2020	10:48	-133.986	43.616	0	167.50	0	8.1930	0	36.2730	8	28.247	0	166.094	0	204.4	4	72.2	4	-1E+10	1	-1E+10	1	-1E+10	1	-1E+10	1	-1E+10	1	-1E+10	1
4901784	198	C	12/05/2020	10:48	-133.986	43.616	0	170.00	0	8.1190	0	36.2970	8	28.278	0	168.572	0	202.8	4	71.5	4	-1E+10	1	-1E+10	1	-1E+10	1	-1E+10	1	-1E+10	1	-1E+10	1
4901784	198	C	12/05/2020	10:48	-133.986	43.616	0	172.60	0	7.9990	0	36.3510	8	28.339	0	171.149	0	200.5	4	70.6	4	-1E+10	1	-1E+10	1	-1E+10	1	-1E+10	1	-1E+10	1	-1E+10	1
4901784	198	C	12/05/2020	10:48	-133.986	43.616	0	175.20	0	7.8810	0	36.4220	8	28.413	0	173.726	0	198.9	4	69.9	4	-1E+10	1	-1E+10	1	-1E+10	1	-1E+10	1	-1E+10	1	-1E+10	1
4901784	198	C	12/05/2020	10:48	-133.986	43.616	0	176.90	0	7.8080	0	36.4770	8	28.467	0	175.411	0	198.1	4	69.5	4	-1E+10	1	-1E+10	1	-1E+10	1	-1E+10	1	-1E+10	1	-1E+10	1
4901784	198	C	12/05/2020	10:48	-133.986	43.616	0	179.70	0	7.7580	0	36.5290	8	28.515	0	178.187	0	197.2	4	69.1	4	-1E+10	1	-1E+10	1	-1E+10	1	-1E+10	1	-1E+10	1	-1E+10	1
4901784	198	C	12/05/2020	10:48	-133.986	43.616	0	182.40	0	7.7390	0	36.5480	8	28.533	0	180.863	0	196.0	4	68.7	4	-1E+10	1	-1E+10	1	-1E+10	1	-1E+10	1	-1E+10	1	-1E+10	1
4901784	198	C	12/05/2020	10:48	-133.986	43.616	0	185.10	0	7.7220	0	36.5890	8	28.568	0	183.539	0	194.1	4	68.0	4	-1E+10	1	-1E+10	1	-1E+10	1	-1E+10	1	-1E+10	1	-1E+10	1
4901784	198	C	12/05/2020	10:48	-133.986	43.616	0	187.80	0	7.6970	0	36.6500	8	28.620	0	186.215	0	192.1	4	67.3	4	-1E+10	1	-1E+10	1	-1E+10	1	-1E+10	1	-1E+10	1	-1E+10	1
4901784	198	C	12/05/2020	10:48	-133.986	43.616	0	189.70	0	7.6540	0	36.7190	8	28.681	0	188.098	0	190.7	4	66.8	4	-1E+10	1	-1E+10	1	-1E+10	1	-1E+10	1	-1E+10	1	-1E+10	1
4901784	198	C	12/05/2020	10:48	-133.986	43.616	0	192.60	0	7.6600	0	36.7340	8	28.692	0	190.972	0	189.5	4	66.4	4	-1E+10	1	-1E+10	1	-1E+10	1	-1E+10	1	-1E+10	1	-1E+10	1
4901784	198	C	12/05/2020	10:48	-133.986	43.616	0	195.90	0	7.6750	0	36.7590	8	28.709	0	194.242	0	187.8	4	65.8	4	-1E+10	1	-1E+10	1	-1E+10	1	-1E+10	1	-1E+10	1	-1E+10	1
4901784	198	C	12/05/2020	10:48	-133.986	43.616	0	197.70	0	7.6790	0	36.7940	8	28.736	0	196.026	0	186.4	4	65.4	4	-1E+10	1	-1E+10	1	-1E+10	1	-1E+10	1	-1E+10	1	-1E+10	1
4901784	198	C	12/05/2020	10:48	-133.986	43.616	0	200.10	0	7.6780	0	36.8120	8	28.751	0	198.405	0	185.4	4	65.0	4	-1E+10	1	-1E+10	1	-1E+10	1	-1E+10	1	-1E+10	1	-1E+10	1
4901784	198	C	12/05/2020	10:48	-133.986	43.616	0	202.40	0	7.6750	0	36.8230	8	28.760	0	200.684	0	184.3	4	64.6	4	-1E+10	1	-1E+10	1	-1E+10	1	-1E+10	1	-1E+10	1	-1E+10	1
4901784	198	C	12/05/2020	10:48	-133.986	43.616	0	204.80	0	7.6760	0	36.8390	8	28.772	0	203.063	0	182.7	4	64.1	4	-1E+10	1	-1E+10	1	-1E+10	1	-1E+10	1	-1E+10	1	-1E+10	1
4901784	198	C	12/05/2020	10:48	-133.986	43.616	0	208.00	0	7.6910	0	36.8740	8	28.798	0	206.234	0	180.3	4	63.3	4	-1E+10	1	-1E+10	1	-1E+10	1	-1E+10	1	-1E+10	1	-1E+10	1
4901784	198	C	12/05/2020	10:48	-133.986	43.616	0	210.40	0	7.6840	0	36.8990	8	28.818	0	208.612	0	178.7	4	62.7	4	-1E+10	1	-1E+10	1	-1E+10	1	-1E+10	1	-1E+10	1	-1E+10	1
4901784	198	C	12/05/2020	10:48	-133.986	43.616	0	212.90	0	7.7000	0	36.9210	8	28.833	0	211.090	0	176.6	4	62.0	4	-1E+10	1	-1E+10	1	-1E+10	1	-1E+10	1	-1E+10	1	-1E+10	1
4901784	198	C	12/05/2020	10:48	-133.986	43.616	0	215.40	0	7.6960	0	36.9530	8	28.859	0	213.567	0	174.5	4	61.3	4	-1E+10	1	-1E+10	1	-1E+10	1	-1E+10	1	-1E+10	1	-1E+10	1
4901784	198	C	12/05/2020	10:48	-133.986	43.616	0	217.90	0	7.6810	0	36.9700	8	28.875	0	216.045	0	172.9	4	60.7	4	-1E+10	1	-1E+10	1	-1E+10	1	-1E+10	1	-1E+10	1	-1E+10	1
4901784	198	C	12/05/2020	10:48	-133.986	43.616	0	220.30	0	7.6650	0	36.9810	8	28.886	0	218.423	0	171.4	4	60.2	4	-1E+10	1	-1E+10	1	-1E+10	1	-1E+10	1	-1E+10	1	-1E+10	1
4901784	198	C	12/05/2020	10:48	-133.986	43.616	0	222.80	0	7.6460	0	36.9970	8	28.901	0	220.900	0	169.8	4	59.6	4	-1E+10	1	-1E+10	1	-1E+10	1	-1E+10	1	-1E+10	1	-1E+10	1
4901784	198	C	12/05/2020	10:48	-133.986	43.616	0	225.30	0	7.6360	0	37.0080	8	28.912	0	223.378	0	168.6	4	59.1	4	-1E+10	1	-1E+10	1	-1E+10	1	-1E+10	1	-1E+10	1	-1E+10	1
4901784	198	C	12/05/2020	10:48	-133.986	43.616	0	227.70	0	7.6390	0	37.0190	8	28.920	0	225.756	0	167.3	4	58.7	4	-1E+10	1	-1E+10	1	-1E+10	1	-1E+10	1	-1E+10	1	-1E+10	1
4901784	198	C	12/05/2020	10:48	-133.986	43.616	0	230.20	0	7.6410	0	37.0270	8	28.926	0	228.233	0	165.8	4	58.2	4	-1E+10	1	-1E+10	1	-1E+10	1	-1E+10	1	-1E+10	1	-1E+10	1
4901784	198	C	12/05/2020	10:48	-133.986	43.616	0	232.80	0	7.6330	0	37.0380	8	28.936	0	230.810	0	164.0	4	57.5	4	-1E+10	1	-1E+10	1	-1E+10	1	-1E+10	1	-1E+10	1	-1E+10	1
4901784	198	C	12/05/2020	10:48	-133.986	43.616	0	235.30	0	7.6310	0	37.0480	8	28.944	0	233.287	0	162.1	4	56.9	4	-1E+10	1	-1E+10	1	-1E+10	1	-1E+10	1	-1E+10	1	-1E+10	1
4901784	198	C	12/05/2020	10:48	-133.986	43.616	0	237.80	0	7.6370	0	37.0610	8	28.953	0	235.764	0	159.8	4	56.1	4	-1E+10	1	-1E+10	1	-1E+10	1	-1E+10	1	-1E+10	1	-1E+10	1
4901784	198	C	12/05/2020	10:48	-133.986	43.616	0	240.40	0	7.6390	0	37.0860	8	28.973	0	238.340	0	157.8	4	55.4	4	-1E+10	1	-1E+10	1	-1E+10	1	-1E+10	1	-1E+10	1	-1E+10	1
4901784	198	C	12/05/2020	10:48	-133.986	43.616	0	242.10	0	7.6380	0	37.0960	8	28.981	0	240.025	0	156.8	4	55.1	4	-1E+10	1	-1E+10	1	-1E+10	1	-1E+10	1	-1E+10	1	-1E+10	1
4901784	198	C	12/05/2020	10:48	-133.986	43.616	0	244.70	0	7.6270	0	37.1050	8	28.990	0	242.601	0	155.6	4	54.6	4	-1E+10	1	-1E+10	1	-1E+10	1	-1E+10	1	-1E+10	1	-1E+10	1
4901784	198	C	12/05/2020	10:48	-133.986	43.616	0	247.40	0	7.6210	0	37.1100	8	28.994	0	245.276	0	154.7	4	54.3	4	-1E+10	1	-1E+10	1	-1E+10	1	-1E+10	1	-1E+10	1	-1E+10	1
4901784	198	C	12/05/2020	10:48	-133.986	43.616	0	250.20	0	7.6020	0	37.1130	8	29.000	0	248.050	0	153.3	4	53.8	4	-1E+10	1	-1E+10	1	-1E+10	1	-1E+10	1	-1E+10	1	-1E+10	1
4901784	198	C	12/05/2020	10:48	-133.986	43.616	0	253.00	0	7.5780	0	37.1150	8	29.005	0	250.825	0	152.2	4	53.4	4	-1E+10	1	-1E+10	1	-1E+10	1	-1E+10	1	-1E+10	1	-1E+10	1
4901784	198	C	12/05/2020	10:48	-133.986	43.616	0	254.80	0	7.5580	0	37.1200	8	29.012	0	252.608	0	151.3	4	53.0	4	-1E+10	1	-1E+10	1	-1E+10	1	-1E+10	1	-1E+10	1	-1E+10	1
4901784	198	C	12/05/2020	10:48	-133.986	43.616	0	257.60	0	7.4890	0	37.1350	8	29.034	0	255.382	0	150.8	4	52.8	4	-1E+10	1	-1E+10	1	-1E+10	1	-1E+10	1	-1E+10	1	-1E+10	1
4901784	198	C	12/05/2020	10:48	-133.986	43.616	0	260.30	0	7.4380	0	37.1420	8	29.047	0	258.057	0	150.3	4	52.6	4	-1E+10	1	-1E+10	1	-1E+10	1	-1E+10	1	-1E+10	1	-1E+10	1
4901784	198	C	12/05/2020	10:48	-133.986	43.616	0	262.10	0	7.3870	0	37.1430	8	29.056	0	259.841	0	150.2	4	52.5	4	-1E+10	1	-1E+10	1	-1E+10	1	-1E+10	1	-1E+10	1	-1E+10	1
4901784	198	C	12/05/2020	10:48	-133.986	43.616	0	264.90	0	7.3690	0	37.1430	8	29.058	0	262.615	0	149.9	4	52.3	4	-1E+10	1	-1E+10	1	-1E+10	1	-1E+10	1	-1E+10	1	-1E+10	1
4901784	198	C	12/05/2020	10:48	-133.986	43.616	0	267.60	0	7.3500	0	37.1420	8	29.060	0	265.290	0	149.3	4	52.1	4	-1E+10	1	-1E+10	1	-1E+10	1	-1E+10	1	-1E+10	1	-1E+10	1
4901784	198	C	12/05/2020	10:48	-133.986	43.616	0	269.40	0	7.3320	0	37.1410	8	29.062	0	267.073	0	148.7	4	51.8	4	-1E+10	1	-1E+10	1	-1E+10	1	-1E+10	1	-1E+10	1	-1E+10	1
4901784	198	C	12/05/2020	10:48	-133.986	43.616	0	272.20	0	7.2790	0	37.1450	8	29.073	0	269.847	0	147.6	4	51.4	4	-1E+10	1	-1E+10	1	-1E+10	1	-1E+10	1	-1E+10	1	-1E+10	1
4901784	198	C	12/05/2020	10:48	-133.986	43.616	0	275.00	0	7.2270	0	37.1440	8	29.080	0	272.621	0	146.4	4	51.0	4	-1E+10	1	-1E+10	1	-1E+10	1	-1E+10	1	-1E+10	1	-1E+10	1
4901784	198	C	12/05/2020	10:48	-133.986	43.616	0	276.90	0	7.1450	0	37.1500	8	29.097	0	274.503	0	145.8	4	50.7	4	-1E+10	1	-1E+10	1	-1E+10	1	-1E+10	1	-1E+10	1	-1E+10	1
4901784	198	C	12/05/2020	10:48	-133.986	43.616	0	279.80	0	7.1280	0	37.1490	8	29.099	0	277.376	0	144.9	4	50.3	4	-1E+10	1	-1E+10	1	-1E+10	1	-1E+10	1	-1E+10	1	-1E+10	1
4901784	198	C	12/05/2020	10:48	-133.986	43.616	0	282.60	0	7.0960	0	37.1490	8	29.103	0	280.150	0	143.8	4	49.9	4	-1E+10	1	-1E+10	1	-1E+10	1	-1E+10	1	-1E+10	1	-1E+10	1
4901784	198	C	12/05/2020	10:48	-133.986	43.616	0	284.50	0	7.0660	0	37.1470	8	29.106	0	282.032	0	143.1	4	49.6	4	-1E+10	1	-1E+10	1	-1E+10	1	-1E+10	1	-1E+10	1	-1E+10	1
4901784	198	C	12/05/2020	10:48	-133.986	43.616	0	287.40	0	6.9800	0	37.1500	8	29.121	0	284.905	0	142.1	4	49.2	4	-1E+10	1	-1E+10	1	-1E+10	1	-1E+10	1	-1E+10	1	-1E+10	1
4901784	198	C	12/05/2020	10:48	-133.986	43.616	0	290.20	0	6.9100	0	37.1530	8	29.133	0	287.679	0	141.2	4	48.8	4	-1E+10	1	-1E+10	1	-1E+10	1	-1E+10	1	-1E+10	1	-1E+10	1
4901784	198	C	12/05/2020	10:48	-133.986	43.616	0	292.10	0	6.9030	0	37.1520	8	29.134	0	289.561	0	140.6	4	48.6	4	-1E+10	1	-1E+10	1	-1E+10	1	-1E+10	1	-1E+10	1	-1E+10	1
4901784	198	C	12/05/2020	10:48	-133.986	43.616	0	294.90	0	6.8740	0	37.1530	8	29.139	0	292.335	0	139.7	4	48.2	4	-1E+10	1	-1E+10	1	-1E+10	1	-1E+10	1	-1E+10	1	-1E+10	1
4901784	198	C	12/05/2020	10:48	-133.986	43.616	0	297.80	0	6.8370	0	37.1500	8	29.142	0	295.208	0	138.8	4	47.9	4	-1E+10	1	-1E+10	1	-1E+10	1	-1E+10	1	-1E+10	1	-1E+10	1
4901784	198	C	12/05/2020	10:48	-133.986	43.616	0	299.60	0	6.7840	0	37.1530	8	29.151	0	296.991	0	138.3	4	47.6	4	-1E+10	1	-1E+10	1	-1E+10	1	-1E+10	1	-1E+10	1	-1E+10	1
4901784	198	C	12/05/2020	10:48	-133.986	43.616	0	302.00	0	6.7590	0	37.1520	8	29.154	0	299.368	0	137.4	4	47.3	4	-1E+10	1	-1E+10	1	-1E+10	1	-1E+10	1	-1E+10	1	-1E+10	1
4901784	198	C	12/05/2020	10:48	-133.986	43.616	0	304.70	0	6.7200	0	37.1520	8	29.160	0	302.042	0	136.1	4	46.8	4	-1E+10	1	-1E+10	1	-1E+10	1	-1E+10	1	-1E+10	1	-1E+10	1
4901784	198	C	12/05/2020	10:48	-133.986	43.616	0	307.80	0	6.6630	0	37.1530	8	29.169	0	305.113	0	134.4	4	46.2	4	-1E+10	1	-1E+10	1	-1E+10	1	-1E+10	1	-1E+10	1	-1E+10	1
4901784	198	C	12/05/2020	10:48	-133.986	43.616	0	310.20	0	6.6310	0	37.1520	8	29.172	0	307.490	0	133.2	4	45.7	4	-1E+10	1	-1E+10	1	-1E+10	1	-1E+10	1	-1E+10	1	-1E+10	1
4901784	198	C	12/05/2020	10:48	-133.986	43.616	0	312.60	0	6.5780	0	37.1540	8	29.181	0	309.868	0	132.2	4	45.3	4	-1E+10	1	-1E+10	1	-1E+10	1	-1E+10	1	-1E+10	1	-1E+10	1
4901784	198	C	12/05/2020	10:48	-133.986	43.616	0	315.00	0	6.5330	0	37.1560	8	29.189	0	312.245	0	131.0	4	44.9	4	-1E+10	1	-1E+10	1	-1E+10	1	-1E+10	1	-1E+10	1	-1E+10	1
4901784	198	C	12/05/2020	10:48	-133.986	43.616	0	317.40	0	6.5080	0	37.1550	8	29.192	0	314.622	0	129.9	4	44.5	4	-1E+10	1	-1E+10	1	-1E+10	1	-1E+10	1	-1E+10	1	-1E+10	1
4901784	198	C	12/05/2020	10:48	-133.986	43.616	0	319.90	0	6.4690	0	37.1550	8	29.197	0	317.098	0	128.6	4	44.0	4	-1E+10	1	-1E+10	1	-1E+10	1	-1E+10	1	-1E+10	1	-1E+10	1
4901784	198	C	12/05/2020	10:48	-133.986	43.616	0	322.30	0	6.4270	0	37.1560	8	29.204	0	319.475	0	127.3	4	43.5	4	-1E+10	1	-1E+10	1	-1E+10	1	-1E+10	1	-1E+10	1	-1E+10	1
4901784	198	C	12/05/2020	10:48	-133.986	43.616	0	324.70	0	6.3740	0	37.1580	8	29.213	0	321.853	0	125.9	4	43.0	4	-1E+10	1	-1E+10	1	-1E+10	1	-1E+10	1	-1E+10	1	-1E+10	1
4901784	198	C	12/05/2020	10:48	-133.986	43.616	0	327.20	0	6.3430	0	37.1590	8	29.218	0	324.329	0	125.1	4	42.7	4	-1E+10	1	-1E+10	1	-1E+10	1	-1E+10	1	-1E+10	1	-1E+10	1
4901784	198	C	12/05/2020	10:48	-133.986	43.616	0	329.60	0	6.3270	0	37.1590	8	29.220	0	326.706	0	124.1	4	42.3	4	-1E+10	1	-1E+10	1	-1E+10	1	-1E+10	1	-1E+10	1	-1E+10	1
4901784	198	C	12/05/2020	10:48	-133.986	43.616	0	332.10	0	6.2850	0	37.1610	8	29.228	0	329.182	0	122.9	4	41.9	4	-1E+10	1	-1E+10	1	-1E+10	1	-1E+10	1	-1E+10	1	-1E+10	1
4901784	198	C	12/05/2020	10:48	-133.986	43.616	0	334.60	0	6.2600	0	37.1620	8	29.232	0	331.658	0	121.9	4	41.5	4	-1E+10	1	-1E+10	1	-1E+10	1	-1E+10	1	-1E+10	1	-1E+10	1
4901784	198	C	12/05/2020	10:48	-133.986	43.616	0	337.10	0	6.2370	0	37.1610	8	29.234	0	334.134	0	120.7	4	41.1	4	-1E+10	1	-1E+10	1	-1E+10	1	-1E+10	1	-1E+10	1	-1E+10	1
4901784	198	C	12/05/2020	10:48	-133.986	43.616	0	340.40	0	6.1620	0	37.1620	8	29.245	0	337.402	0	119.0	4	40.4	4	-1E+10	1	-1E+10	1	-1E+10	1	-1E+10	1	-1E+10	1	-1E+10	1
4901784	198	C	12/05/2020	10:48	-133.986	43.616	0	342.90	0	6.1470	0	37.1600	8	29.246	0	339.878	0	117.2	4	39.8	4	-1E+10	1	-1E+10	1	-1E+10	1	-1E+10	1	-1E+10	1	-1E+10	1
4901784	198	C	12/05/2020	10:48	-133.986	43.616	0	344.60	0	6.1120	0	37.1640	8	29.253	0	341.562	0	115.9	4	39.3	4	-1E+10	1	-1E+10	1	-1E+10	1	-1E+10	1	-1E+10	1	-1E+10	1
4901784	198	C	12/05/2020	10:48	-133.986	43.616	0	347.20	0	6.0650	0	37.1650	8	29.261	0	344.137	0	114.0	4	38.6	4	-1E+10	1	-1E+10	1	-1E+10	1	-1E+10	1	-1E+10	1	-1E+10	1
4901784	198	C	12/05/2020	10:48	-133.986	43.616	0	349.80	0	6.0200	0	37.1700	8	29.271	0	346.711	0	112.1	4	38.0	4	-1E+10	1	-1E+10	1	-1E+10	1	-1E+10	1	-1E+10	1	-1E+10	1
4901784	198	C	12/05/2020	10:48	-133.986	43.616	0	352.30	0	6.0040	0	37.1700	8	29.273	0	349.187	0	110.8	4	37.5	4	-1E+10	1	-1E+10	1	-1E+10	1	-1E+10	1	-1E+10	1	-1E+10	1
4901784	198	C	12/05/2020	10:48	-133.986	43.616	0	354.80	0	5.9950	0	37.1680	8	29.272	0	351.663	0	109.3	4	37.0	4	-1E+10	1	-1E+10	1	-1E+10	1	-1E+10	1	-1E+10	1	-1E+10	1
4901784	198	C	12/05/2020	10:48	-133.986	43.616	0	357.40	0	5.9490	0	37.1690	8	29.279	0	354.238	0	107.5	4	36.4	4	-1E+10	1	-1E+10	1	-1E+10	1	-1E+10	1	-1E+10	1	-1E+10	1
4901784	198	C	12/05/2020	10:48	-133.986	43.616	0	359.90	0	5.8920	0	37.1730	8	29.290	0	356.714	0	105.9	4	35.7	4	-1E+10	1	-1E+10	1	-1E+10	1	-1E+10	1	-1E+10	1	-1E+10	1
4901784	198	C	12/05/2020	10:48	-133.986	43.616	0	362.50	0	5.8600	0	37.1750	8	29.296	0	359.288	0	104.7	4	35.3	4	-1E+10	1	-1E+10	1	-1E+10	1	-1E+10	1	-1E+10	1	-1E+10	1
4901784	198	C	12/05/2020	10:48	-133.986	43.616	0	365.10	0	5.8530	0	37.1740	8	29.296	0	361.863	0	103.3	4	34.8	4	-1E+10	1	-1E+10	1	-1E+10	1	-1E+10	1	-1E+10	1	-1E+10	1
4901784	198	C	12/05/2020	10:48	-133.986	43.616	0	367.70	0	5.8280	0	37.1740	8	29.299	0	364.438	0	101.1	4	34.1	4	-1E+10	1	-1E+10	1	-1E+10	1	-1E+10	1	-1E+10	1	-1E+10	1
4901784	198	C	12/05/2020	10:48	-133.986	43.616	0	370.30	0	5.8010	0	37.1750	8	29.304	0	367.012	0	98.9	4	33.3	4	-1E+10	1	-1E+10	1	-1E+10	1	-1E+10	1	-1E+10	1	-1E+10	1
4901784	198	C	12/05/2020	10:48	-133.986	43.616	0	372.80	0	5.7620	0	37.1810	8	29.314	0	369.488	0	97.1	4	32.7	4	-1E+10	1	-1E+10	1	-1E+10	1	-1E+10	1	-1E+10	1	-1E+10	1
4901784	198	C	12/05/2020	10:48	-133.986	43.616	0	375.40	0	5.7270	0	37.1810	8	29.318	0	372.062	0	96.0	4	32.3	4	-1E+10	1	-1E+10	1	-1E+10	1	-1E+10	1	-1E+10	1	-1E+10	1
4901784	198	C	12/05/2020	10:48	-133.986	43.616	0	377.20	0	5.6980	0	37.1810	8	29.322	0	373.845	0	95.3	4	32.0	4	-1E+10	1	-1E+10	1	-1E+10	1	-1E+10	1	-1E+10	1	-1E+10	1
4901784	198	C	12/05/2020	10:48	-133.986	43.616	0	379.80	0	5.6510	0	37.1850	8	29.331	0	376.419	0	94.1	4	31.6	4	-1E+10	1	-1E+10	1	-1E+10	1	-1E+10	1	-1E+10	1	-1E+10	1
4901784	198	C	12/05/2020	10:48	-133.986	43.616	0	382.30	0	5.6410	0	37.1860	8	29.333	0	378.895	0	92.9	4	31.2	4	-1E+10	1	-1E+10	1	-1E+10	1	-1E+10	1	-1E+10	1	-1E+10	1
4901784	198	C	12/05/2020	10:48	-133.986	43.616	0	384.90	0	5.6070	0	37.1880	8	29.339	0	381.469	0	91.7	4	30.8	4	-1E+10	1	-1E+10	1	-1E+10	1	-1E+10	1	-1E+10	1	-1E+10	1
4901784	198	C	12/05/2020	10:48	-133.986	43.616	0	387.50	0	5.5800	0	37.1890	8	29.344	0	384.044	0	90.7	4	30.4	4	-1E+10	1	-1E+10	1	-1E+10	1	-1E+10	1	-1E+10	1	-1E+10	1
4901784	198	C	12/05/2020	10:48	-133.986	43.616	0	390.10	0	5.5630	0	37.1890	8	29.346	0	386.618	0	89.8	4	30.1	4	-1E+10	1	-1E+10	1	-1E+10	1	-1E+10	1	-1E+10	1	-1E+10	1
4901784	198	C	12/05/2020	10:48	-133.986	43.616	0	392.70	0	5.5350	0	37.1880	8	29.349	0	389.192	0	88.8	4	29.7	4	-1E+10	1	-1E+10	1	-1E+10	1	-1E+10	1	-1E+10	1	-1E+10	1
4901784	198	C	12/05/2020	10:48	-133.986	43.616	0	394.50	0	5.5040	0	37.1890	8	29.353	0	390.975	0	88.1	4	29.5	4	-1E+10	1	-1E+10	1	-1E+10	1	-1E+10	1	-1E+10	1	-1E+10	1
4901784	198	C	12/05/2020	10:48	-133.986	43.616	0	397.20	0	5.4670	0	37.1930	8	29.361	0	393.648	0	87.1	4	29.1	4	-1E+10	1	-1E+10	1	-1E+10	1	-1E+10	1	-1E+10	1	-1E+10	1
4901784	198	C	12/05/2020	10:48	-133.986	43.616	0	399.90	0	5.4570	0	37.1940	8	29.363	0	396.321	0	86.3	4	28.9	4	-1E+10	1	-1E+10	1	-1E+10	1	-1E+10	1	-1E+10	1	-1E+10	1
4901784	198	C	12/05/2020	10:48	-133.986	43.616	0	402.60	0	5.4390	0	37.1950	8	29.367	0	398.994	0	85.6	4	28.6	4	-1E+10	1	-1E+10	1	-1E+10	1	-1E+10	1	-1E+10	1	-1E+10	1
4901784	198	C	12/05/2020	10:48	-133.986	43.616	0	405.20	0	5.4210	0	37.1940	8	29.368	0	401.569	0	85.0	4	28.4	4	-1E+10	1	-1E+10	1	-1E+10	1	-1E+10	1	-1E+10	1	-1E+10	1
4901784	198	C	12/05/2020	10:48	-133.986	43.616	0	407.00	0	5.3940	0	37.1940	8	29.371	0	403.351	0	84.7	4	28.3	4	-1E+10	1	-1E+10	1	-1E+10	1	-1E+10	1	-1E+10	1	-1E+10	1
4901784	198	C	12/05/2020	10:48	-133.986	43.616	0	409.70	0	5.3670	0	37.1940	8	29.375	0	406.024	0	83.9	4	28.0	4	-1E+10	1	-1E+10	1	-1E+10	1	-1E+10	1	-1E+10	1	-1E+10	1
4901784	198	C	12/05/2020	10:48	-133.986	43.616	0	412.40	0	5.3400	0	37.1940	8	29.378	0	408.697	0	83.1	4	27.7	4	-1E+10	1	-1E+10	1	-1E+10	1	-1E+10	1	-1E+10	1	-1E+10	1
4901784	198	C	12/05/2020	10:48	-133.986	43.616	0	415.00	0	5.3130	0	37.1950	8	29.383	0	411.271	0	82.0	4	27.3	4	-1E+10	1	-1E+10	1	-1E+10	1	-1E+10	1	-1E+10	1	-1E+10	1
4901784	198	C	12/05/2020	10:48	-133.986	43.616	0	417.80	0	5.2920	0	37.1950	8	29.385	0	414.043	0	81.1	4	27.0	4	-1E+10	1	-1E+10	1	-1E+10	1	-1E+10	1	-1E+10	1	-1E+10	1
4901784	198	C	12/05/2020	10:48	-133.986	43.616	0	419.60	0	5.2760	0	37.1960	8	29.388	0	415.825	0	80.3	4	26.7	4	-1E+10	1	-1E+10	1	-1E+10	1	-1E+10	1	-1E+10	1	-1E+10	1
4901784	198	C	12/05/2020	10:48	-133.986	43.616	0	422.40	0	5.2470	0	37.1980	8	29.393	0	418.597	0	79.4	4	26.4	4	-1E+10	1	-1E+10	1	-1E+10	1	-1E+10	1	-1E+10	1	-1E+10	1
4901784	198	C	12/05/2020	10:48	-133.986	43.616	0	425.10	0	5.2400	0	37.1990	8	29.395	0	421.270	0	78.6	4	26.1	4	-1E+10	1	-1E+10	1	-1E+10	1	-1E+10	1	-1E+10	1	-1E+10	1
4901784	198	C	12/05/2020	10:48	-133.986	43.616	0	427.80	0	5.2210	0	37.1980	8	29.397	0	423.943	0	77.9	4	25.9	4	-1E+10	1	-1E+10	1	-1E+10	1	-1E+10	1	-1E+10	1	-1E+10	1
4901784	198	C	12/05/2020	10:48	-133.986	43.616	0	430.50	0	5.2040	0	37.1970	8	29.398	0	426.616	0	77.1	4	25.6	4	-1E+10	1	-1E+10	1	-1E+10	1	-1E+10	1	-1E+10	1	-1E+10	1
4901784	198	C	12/05/2020	10:48	-133.986	43.616	0	432.30	0	5.1860	0	37.1950	8	29.399	0	428.398	0	76.5	4	25.4	4	-1E+10	1	-1E+10	1	-1E+10	1	-1E+10	1	-1E+10	1	-1E+10	1
4901784	198	C	12/05/2020	10:48	-133.986	43.616	0	435.00	0	5.1560	0	37.1940	8	29.401	0	431.071	0	75.3	4	25.0	4	-1E+10	1	-1E+10	1	-1E+10	1	-1E+10	1	-1E+10	1	-1E+10	1
4901784	198	C	12/05/2020	10:48	-133.986	43.616	0	437.60	0	5.1260	0	37.1910	8	29.403	0	433.644	0	74.2	4	24.6	4	-1E+10	1	-1E+10	1	-1E+10	1	-1E+10	1	-1E+10	1	-1E+10	1
4901784	198	C	12/05/2020	10:48	-133.986	43.616	0	440.30	0	5.0870	0	37.1910	8	29.408	0	436.317	0	73.3	4	24.3	4	-1E+10	1	-1E+10	1	-1E+10	1	-1E+10	1	-1E+10	1	-1E+10	1
4901784	198	C	12/05/2020	10:48	-133.986	43.616	0	443.00	0	5.0630	0	37.1880	8	29.408	0	438.990	0	72.2	4	23.9	4	-1E+10	1	-1E+10	1	-1E+10	1	-1E+10	1	-1E+10	1	-1E+10	1
4901784	198	C	12/05/2020	10:48	-133.986	43.616	0	444.80	0	5.0370	0	37.1860	8	29.410	0	440.772	0	71.6	4	23.7	4	-1E+10	1	-1E+10	1	-1E+10	1	-1E+10	1	-1E+10	1	-1E+10	1
4901784	198	C	12/05/2020	10:48	-133.986	43.616	0	447.50	0	5.0130	0	37.1810	8	29.409	0	443.444	0	70.7	4	23.4	4	-1E+10	1	-1E+10	1	-1E+10	1	-1E+10	1	-1E+10	1	-1E+10	1
4901784	198	C	12/05/2020	10:48	-133.986	43.616	0	450.10	0	4.9920	0	37.1770	8	29.408	0	446.018	0	69.8	4	23.1	4	-1E+10	1	-1E+10	1	-1E+10	1	-1E+10	1	-1E+10	1	-1E+10	1
4901784	198	C	12/05/2020	10:48	-133.986	43.616	0	452.00	0	4.9740	0	37.1710	8	29.406	0	447.899	0	69.1	4	22.8	4	-1E+10	1	-1E+10	1	-1E+10	1	-1E+10	1	-1E+10	1	-1E+10	1
4901784	198	C	12/05/2020	10:48	-133.986	43.616	0	454.70	0	4.9370	0	37.1650	8	29.405	0	450.571	0	68.1	4	22.5	4	-1E+10	1	-1E+10	1	-1E+10	1	-1E+10	1	-1E+10	1	-1E+10	1
4901784	198	C	12/05/2020	10:48	-133.986	43.616	0	457.40	0	4.9110	0	37.1530	8	29.399	0	453.244	0	67.4	4	22.2	4	-1E+10	1	-1E+10	1	-1E+10	1	-1E+10	1	-1E+10	1	-1E+10	1
4901784	198	C	12/05/2020	10:48	-133.986	43.616	0	460.10	0	4.8920	8	37.1130	8	29.370	0	455.916	0	66.7	4	22.0	4	-1E+10	1	-1E+10	1	-1E+10	1	-1E+10	1	-1E+10	1	-1E+10	1
4901784	198	C	12/05/2020	10:48	-133.986	43.616	0	462.80	0	4.8760	8	37.0700	8	29.337	0	458.589	0	66.1	4	21.8	4	-1E+10	1	-1E+10	1	-1E+10	1	-1E+10	1	-1E+10	1	-1E+10	1
4901784	198	C	12/05/2020	10:48	-133.986	43.616	0	464.70	0	4.8630	8	36.9000	8	29.204	0	460.469	0	65.7	4	21.6	4	-1E+10	1	-1E+10	1	-1E+10	1	-1E+10	1	-1E+10	1	-1E+10	1
4901784	198	C	12/05/2020	10:48	-133.986	43.616	0	467.50	0	4.8390	8	36.8040	8	29.131	0	463.241	0	65.0	4	21.4	4	-1E+10	1	-1E+10	1	-1E+10	1	-1E+10	1	-1E+10	1	-1E+10	1
4901784	198	C	12/05/2020	10:48	-133.986	43.616	0	470.20	0	4.8230	0	36.7800	8	29.113	0	465.913	0	64.3	4	21.1	4	-1E+10	1	-1E+10	1	-1E+10	1	-1E+10	1	-1E+10	1	-1E+10	1
4901784	198	C	12/05/2020	10:48	-133.986	43.616	0	472.00	0	4.8080	0	36.7630	8	29.102	0	467.695	0	63.9	4	21.0	4	-1E+10	1	-1E+10	1	-1E+10	1	-1E+10	1	-1E+10	1	-1E+10	1
4901784	198	C	12/05/2020	10:48	-133.986	43.616	0	474.80	0	4.7990	0	36.7690	8	29.108	0	470.466	0	63.2	4	20.7	4	-1E+10	1	-1E+10	1	-1E+10	1	-1E+10	1	-1E+10	1	-1E+10	1
4901784	198	C	12/05/2020	10:48	-133.986	43.616	0	477.60	0	4.7920	0	36.7650	8	29.105	0	473.237	0	62.4	4	20.5	4	-1E+10	1	-1E+10	1	-1E+10	1	-1E+10	1	-1E+10	1	-1E+10	1
4901784	198	C	12/05/2020	10:48	-133.986	43.616	0	480.30	0	4.7730	0	36.7440	8	29.091	0	475.910	0	61.6	4	20.2	4	-1E+10	1	-1E+10	1	-1E+10	1	-1E+10	1	-1E+10	1	-1E+10	1
4901784	198	C	12/05/2020	10:48	-133.986	43.616	0	483.00	0	4.7550	0	36.7420	8	29.091	0	478.582	0	60.9	4	20.0	4	-1E+10	1	-1E+10	1	-1E+10	1	-1E+10	1	-1E+10	1	-1E+10	1
4901784	198	C	12/05/2020	10:48	-133.986	43.616	0	484.90	0	4.7490	0	36.7740	8	29.118	0	480.462	0	60.4	4	19.8	4	-1E+10	1	-1E+10	1	-1E+10	1	-1E+10	1	-1E+10	1	-1E+10	1
4901784	198	C	12/05/2020	10:48	-133.986	43.616	0	487.70	0	4.7420	0	36.7430	8	29.094	0	483.233	0	59.5	4	19.5	4	-1E+10	1	-1E+10	1	-1E+10	1	-1E+10	1	-1E+10	1	-1E+10	1
4901784	198	C	12/05/2020	10:48	-133.986	43.616	0	490.50	0	4.7300	0	36.7320	8	29.087	0	486.004	0	58.4	4	19.1	4	-1E+10	1	-1E+10	1	-1E+10	1	-1E+10	1	-1E+10	1	-1E+10	1
4901784	198	C	12/05/2020	10:48	-133.986	43.616	0	492.30	0	4.7230	0	36.7240	8	29.081	0	487.786	0	57.7	4	18.9	4	-1E+10	1	-1E+10	1	-1E+10	1	-1E+10	1	-1E+10	1	-1E+10	1
4901784	198	C	12/05/2020	10:48	-133.986	43.616	0	495.00	0	4.7110	0	36.7220	8	29.081	0	490.458	0	56.3	4	18.4	4	-1E+10	1	-1E+10	1	-1E+10	1	-1E+10	1	-1E+10	1	-1E+10	1
4901784	198	C	12/05/2020	10:48	-133.986	43.616	0	497.80	0	4.6840	0	36.7210	8	29.083	0	493.229	0	55.1	4	18.0	4	-1E+10	1	-1E+10	1	-1E+10	1	-1E+10	1	-1E+10	1	-1E+10	1
4901784	198	C	12/05/2020	10:48	-133.986	43.616	0	499.60	0	4.6830	0	36.7170	8	29.080	0	495.010	0	54.5	4	17.8	4	-1E+10	1	-1E+10	1	-1E+10	1	-1E+10	1	-1E+10	1	-1E+10	1
4901784	198	C	12/05/2020	10:48	-133.986	43.616	0	505.30	0	4.6320	0	36.7180	8	29.087	0	500.651	0	52.7	4	17.2	4	-1E+10	1	-1E+10	1	-1E+10	1	-1E+10	1	-1E+10	1	-1E+10	1
4901784	198	C	12/05/2020	10:48	-133.986	43.616	0	509.80	0	4.6250	0	36.7190	8	29.089	0	505.104	0	51.0	4	16.7	4	-1E+10	1	-1E+10	1	-1E+10	1	-1E+10	1	-1E+10	1	-1E+10	1
4901784	198	C	12/05/2020	10:48	-133.986	43.616	0	514.50	0	4.6080	0	36.7220	8	29.093	0	509.755	0	49.6	4	16.2	4	-1E+10	1	-1E+10	1	-1E+10	1	-1E+10	1	-1E+10	1	-1E+10	1
4901784	198	C	12/05/2020	10:48	-133.986	43.616	0	520.10	0	4.5970	0	36.7230	8	29.095	0	515.296	0	47.9	4	15.6	4	-1E+10	1	-1E+10	1	-1E+10	1	-1E+10	1	-1E+10	1	-1E+10	1
4901784	198	C	12/05/2020	10:48	-133.986	43.616	0	524.90	0	4.5710	0	36.7260	8	29.101	0	520.046	0	46.3	4	15.1	4	-1E+10	1	-1E+10	1	-1E+10	1	-1E+10	1	-1E+10	1	-1E+10	1
4901784	198	C	12/05/2020	10:48	-133.986	43.616	0	529.80	0	4.5550	0	36.7320	8	29.107	0	524.895	0	44.7	4	14.6	4	-1E+10	1	-1E+10	1	-1E+10	1	-1E+10	1	-1E+10	1	-1E+10	1
4901784	198	C	12/05/2020	10:48	-133.986	43.616	0	534.70	0	4.5430	0	36.7370	8	29.113	0	529.743	0	42.9	4	14.0	4	-1E+10	1	-1E+10	1	-1E+10	1	-1E+10	1	-1E+10	1	-1E+10	1
4901784	198	C	12/05/2020	10:48	-133.986	43.616	0	539.50	0	4.5270	0	36.7470	8	29.122	0	534.492	0	41.1	4	13.4	4	-1E+10	1	-1E+10	1	-1E+10	1	-1E+10	1	-1E+10	1	-1E+10	1
4901784	198	C	12/05/2020	10:48	-133.986	43.616	0	545.20	0	4.5130	0	36.7550	8	29.130	0	540.132	0	39.2	4	12.8	4	-1E+10	1	-1E+10	1	-1E+10	1	-1E+10	1	-1E+10	1	-1E+10	1
4901784	198	C	12/05/2020	10:48	-133.986	43.616	0	549.60	0	4.5160	0	36.7640	8	29.137	0	544.485	0	37.7	4	12.3	4	-1E+10	1	-1E+10	1	-1E+10	1	-1E+10	1	-1E+10	1	-1E+10	1
4901784	198	C	12/05/2020	10:48	-133.986	43.616	0	554.50	0	4.5080	0	36.7720	8	29.145	0	549.333	0	36.4	4	11.9	4	-1E+10	1	-1E+10	1	-1E+10	1	-1E+10	1	-1E+10	1	-1E+10	1
4901784	198	C	12/05/2020	10:48	-133.986	43.616	0	559.50	0	4.4950	0	36.7770	8	29.150	0	554.280	0	35.3	4	11.5	4	-1E+10	1	-1E+10	1	-1E+10	1	-1E+10	1	-1E+10	1	-1E+10	1
4901784	198	C	12/05/2020	10:48	-133.986	43.616	0	564.50	0	4.5030	0	36.7820	8	29.153	0	559.227	0	34.0	4	11.1	4	-1E+10	1	-1E+10	1	-1E+10	1	-1E+10	1	-1E+10	1	-1E+10	1
4901784	198	C	12/05/2020	10:48	-133.986	43.616	0	569.50	0	4.4920	0	36.7880	8	29.159	0	564.173	0	32.9	4	10.7	4	-1E+10	1	-1E+10	1	-1E+10	1	-1E+10	1	-1E+10	1	-1E+10	1
4901784	198	C	12/05/2020	10:48	-133.986	43.616	0	574.60	0	4.4550	0	36.7920	8	29.167	0	569.218	0	31.9	4	10.4	4	-1E+10	1	-1E+10	1	-1E+10	1	-1E+10	1	-1E+10	1	-1E+10	1
4901784	198	C	12/05/2020	10:48	-133.986	43.616	0	579.80	0	4.4480	0	36.8010	8	29.175	0	574.363	0	30.5	4	9.9	4	-1E+10	1	-1E+10	1	-1E+10	1	-1E+10	1	-1E+10	1	-1E+10	1
4901784	198	C	12/05/2020	10:48	-133.986	43.616	0	585.00	0	4.4550	0	36.8080	8	29.180	0	579.507	0	28.9	4	9.4	4	-1E+10	1	-1E+10	1	-1E+10	1	-1E+10	1	-1E+10	1	-1E+10	1
4901784	198	C	12/05/2020	10:48	-133.986	43.616	0	590.20	0	4.4690	0	36.8170	8	29.185	0	584.650	0	27.4	4	8.9	4	-1E+10	1	-1E+10	1	-1E+10	1	-1E+10	1	-1E+10	1	-1E+10	1
4901784	198	C	12/05/2020	10:48	-133.986	43.616	0	595.50	0	4.4460	0	36.8230	8	29.193	0	589.893	0	26.4	4	8.6	4	-1E+10	1	-1E+10	1	-1E+10	1	-1E+10	1	-1E+10	1	-1E+10	1
4901784	198	C	12/05/2020	10:48	-133.986	43.616	0	600.70	0	4.4360	0	36.8320	8	29.201	0	595.037	0	25.0	4	8.1	4	-1E+10	1	-1E+10	1	-1E+10	1	-1E+10	1	-1E+10	1	-1E+10	1
4901784	198	C	12/05/2020	10:48	-133.986	43.616	0	605.00	0	4.4400	0	36.8410	8	29.208	0	599.290	0	24.0	4	7.8	4	-1E+10	1	-1E+10	1	-1E+10	1	-1E+10	1	-1E+10	1	-1E+10	1
4901784	198	C	12/05/2020	10:48	-133.986	43.616	0	609.40	0	4.4300	0	36.8460	8	29.213	0	603.642	0	23.5	4	7.6	4	-1E+10	1	-1E+10	1	-1E+10	1	-1E+10	1	-1E+10	1	-1E+10	1
4901784	198	C	12/05/2020	10:48	-133.986	43.616	0	614.70	0	4.4200	0	36.8500	8	29.217	0	608.884	0	22.9	4	7.4	4	-1E+10	1	-1E+10	1	-1E+10	1	-1E+10	1	-1E+10	1	-1E+10	1
4901784	198	C	12/05/2020	10:48	-133.986	43.616	0	620.10	0	4.4040	0	36.8550	8	29.223	0	614.225	0	22.3	4	7.3	4	-1E+10	1	-1E+10	1	-1E+10	1	-1E+10	1	-1E+10	1	-1E+10	1
4901784	198	C	12/05/2020	10:48	-133.986	43.616	0	625.50	0	4.3870	0	36.8580	8	29.228	0	619.566	0	21.8	4	7.1	4	-1E+10	1	-1E+10	1	-1E+10	1	-1E+10	1	-1E+10	1	-1E+10	1
4901784	198	C	12/05/2020	10:48	-133.986	43.616	0	629.90	0	4.3750	0	36.8610	8	29.231	0	623.918	0	21.5	4	7.0	4	-1E+10	1	-1E+10	1	-1E+10	1	-1E+10	1	-1E+10	1	-1E+10	1
4901784	198	C	12/05/2020	10:48	-133.986	43.616	0	634.40	0	4.3450	0	36.8630	8	29.236	0	628.368	0	21.1	4	6.9	4	-1E+10	1	-1E+10	1	-1E+10	1	-1E+10	1	-1E+10	1	-1E+10	1
4901784	198	C	12/05/2020	10:48	-133.986	43.616	0	639.70	0	4.3270	0	36.8660	8	29.241	0	633.610	0	20.4	4	6.6	4	-1E+10	1	-1E+10	1	-1E+10	1	-1E+10	1	-1E+10	1	-1E+10	1
4901784	198	C	12/05/2020	10:48	-133.986	43.616	0	645.20	0	4.3060	0	36.8760	8	29.251	0	639.049	0	19.4	4	6.3	4	-1E+10	1	-1E+10	1	-1E+10	1	-1E+10	1	-1E+10	1	-1E+10	1
4901784	198	C	12/05/2020	10:48	-133.986	43.616	0	650.70	0	4.3020	0	36.8820	8	29.256	0	644.488	0	18.5	4	6.0	4	-1E+10	1	-1E+10	1	-1E+10	1	-1E+10	1	-1E+10	1	-1E+10	1
4901784	198	C	12/05/2020	10:48	-133.986	43.616	0	655.10	0	4.2970	0	36.8900	8	29.263	0	648.839	0	17.9	4	5.8	4	-1E+10	1	-1E+10	1	-1E+10	1	-1E+10	1	-1E+10	1	-1E+10	1
4901784	198	C	12/05/2020	10:48	-133.986	43.616	0	659.70	0	4.2940	0	36.8970	8	29.269	0	653.388	0	17.2	4	5.6	4	-1E+10	1	-1E+10	1	-1E+10	1	-1E+10	1	-1E+10	1	-1E+10	1
4901784	198	C	12/05/2020	10:48	-133.986	43.616	0	665.10	0	4.3020	0	36.9040	8	29.274	0	658.728	0	16.5	4	5.4	4	-1E+10	1	-1E+10	1	-1E+10	1	-1E+10	1	-1E+10	1	-1E+10	1
4901784	198	C	12/05/2020	10:48	-133.986	43.616	0	669.70	0	4.3020	0	36.9120	8	29.281	0	663.276	0	16.0	4	5.2	4	-1E+10	1	-1E+10	1	-1E+10	1	-1E+10	1	-1E+10	1	-1E+10	1
4901784	198	C	12/05/2020	10:48	-133.986	43.616	0	674.80	0	4.2950	0	36.9170	8	29.285	0	668.319	0	15.7	4	5.1	4	-1E+10	1	-1E+10	1	-1E+10	1	-1E+10	1	-1E+10	1	-1E+10	1
4901784	198	C	12/05/2020	10:48	-133.986	43.616	0	680.10	0	4.2910	0	36.9210	8	29.289	0	673.560	0	15.3	4	5.0	4	-1E+10	1	-1E+10	1	-1E+10	1	-1E+10	1	-1E+10	1	-1E+10	1
4901784	198	C	12/05/2020	10:48	-133.986	43.616	0	684.80	0	4.2740	0	36.9260	8	29.295	0	678.207	0	14.9	4	4.8	4	-1E+10	1	-1E+10	1	-1E+10	1	-1E+10	1	-1E+10	1	-1E+10	1
4901784	198	C	12/05/2020	10:48	-133.986	43.616	0	689.60	0	4.2550	0	36.9310	8	29.301	0	682.953	0	14.6	4	4.7	4	-1E+10	1	-1E+10	1	-1E+10	1	-1E+10	1	-1E+10	1	-1E+10	1
4901784	198	C	12/05/2020	10:48	-133.986	43.616	0	694.50	0	4.2450	0	36.9370	8	29.307	0	687.798	0	14.2	4	4.6	4	-1E+10	1	-1E+10	1	-1E+10	1	-1E+10	1	-1E+10	1	-1E+10	1
4901784	198	C	12/05/2020	10:48	-133.986	43.616	0	699.40	0	4.2420	0	36.9430	8	29.312	0	692.642	0	13.8	4	4.5	4	-1E+10	1	-1E+10	1	-1E+10	1	-1E+10	1	-1E+10	1	-1E+10	1
4901784	198	C	12/05/2020	10:48	-133.986	43.616	0	704.20	0	4.2480	0	36.9490	8	29.316	0	697.388	0	13.4	4	4.4	4	-1E+10	1	-1E+10	1	-1E+10	1	-1E+10	1	-1E+10	1	-1E+10	1
4901784	198	C	12/05/2020	10:48	-133.986	43.616	0	710.00	0	4.2600	0	36.9580	8	29.322	0	703.122	0	12.9	4	4.2	4	-1E+10	1	-1E+10	1	-1E+10	1	-1E+10	1	-1E+10	1	-1E+10	1
4901784	198	C	12/05/2020	10:48	-133.986	43.616	0	715.70	0	4.2590	0	36.9640	8	29.327	0	708.757	0	12.6	4	4.1	4	-1E+10	1	-1E+10	1	-1E+10	1	-1E+10	1	-1E+10	1	-1E+10	1
4901784	198	C	12/05/2020	10:48	-133.986	43.616	0	720.70	0	4.2430	0	36.9700	8	29.334	0	713.700	0	12.4	4	4.0	4	-1E+10	1	-1E+10	1	-1E+10	1	-1E+10	1	-1E+10	1	-1E+10	1
4901784	198	C	12/05/2020	10:48	-133.986	43.616	0	725.60	0	4.2400	0	36.9750	8	29.338	0	718.544	0	12.2	4	4.0	4	-1E+10	1	-1E+10	1	-1E+10	1	-1E+10	1	-1E+10	1	-1E+10	1
4901784	198	C	12/05/2020	10:48	-133.986	43.616	0	730.60	0	4.2330	0	36.9770	8	29.341	0	723.487	0	12.1	4	3.9	4	-1E+10	1	-1E+10	1	-1E+10	1	-1E+10	1	-1E+10	1	-1E+10	1
4901784	198	C	12/05/2020	10:48	-133.986	43.616	0	735.70	0	4.2140	0	36.9800	8	29.345	0	728.528	0	12.0	4	3.9	4	-1E+10	1	-1E+10	1	-1E+10	1	-1E+10	1	-1E+10	1	-1E+10	1
4901784	198	C	12/05/2020	10:48	-133.986	43.616	0	740.80	0	4.1930	0	36.9850	8	29.352	0	733.569	0	11.9	4	3.9	4	-1E+10	1	-1E+10	1	-1E+10	1	-1E+10	1	-1E+10	1	-1E+10	1
4901784	198	C	12/05/2020	10:48	-133.986	43.616	0	745.00	0	4.1650	0	36.9860	8	29.355	0	737.721	0	11.8	4	3.8	4	-1E+10	1	-1E+10	1	-1E+10	1	-1E+10	1	-1E+10	1	-1E+10	1
4901784	198	C	12/05/2020	10:48	-133.986	43.616	0	749.30	0	4.1530	0	36.9880	8	29.358	0	741.971	0	11.7	4	3.8	4	-1E+10	1	-1E+10	1	-1E+10	1	-1E+10	1	-1E+10	1	-1E+10	1
4901784	198	C	12/05/2020	10:48	-133.986	43.616	0	754.40	0	4.1340	0	36.9940	8	29.365	0	747.012	0	11.5	4	3.7	4	-1E+10	1	-1E+10	1	-1E+10	1	-1E+10	1	-1E+10	1	-1E+10	1
4901784	198	C	12/05/2020	10:48	-133.986	43.616	0	759.60	0	4.1320	0	36.9990	8	29.370	0	752.152	0	11.4	4	3.7	4	-1E+10	1	-1E+10	1	-1E+10	1	-1E+10	1	-1E+10	1	-1E+10	1
4901784	198	C	12/05/2020	10:48	-133.986	43.616	0	764.70	0	4.1210	0	37.0020	8	29.373	0	757.193	0	11.3	4	3.7	4	-1E+10	1	-1E+10	1	-1E+10	1	-1E+10	1	-1E+10	1	-1E+10	1
4901784	198	C	12/05/2020	10:48	-133.986	43.616	0	769.90	0	4.0960	0	37.0050	8	29.378	0	762.332	0	11.2	4	3.6	4	-1E+10	1	-1E+10	1	-1E+10	1	-1E+10	1	-1E+10	1	-1E+10	1
4901784	198	C	12/05/2020	10:48	-133.986	43.616	0	775.10	0	4.0700	0	37.0100	8	29.385	0	767.472	0	11.1	4	3.6	4	-1E+10	1	-1E+10	1	-1E+10	1	-1E+10	1	-1E+10	1	-1E+10	1
4901784	198	C	12/05/2020	10:48	-133.986	43.616	0	780.40	0	4.0650	0	37.0130	8	29.388	0	772.710	0	11.0	4	3.6	4	-1E+10	1	-1E+10	1	-1E+10	1	-1E+10	1	-1E+10	1	-1E+10	1
4901784	198	C	12/05/2020	10:48	-133.986	43.616	0	785.60	0	4.0540	0	37.0170	8	29.393	0	777.849	0	10.9	4	3.5	4	-1E+10	1	-1E+10	1	-1E+10	1	-1E+10	1	-1E+10	1	-1E+10	1
4901784	198	C	12/05/2020	10:48	-133.986	43.616	0	790.00	0	4.0380	0	37.0200	8	29.397	0	782.197	0	10.9	4	3.5	4	-1E+10	1	-1E+10	1	-1E+10	1	-1E+10	1	-1E+10	1	-1E+10	1
4901784	198	C	12/05/2020	10:48	-133.986	43.616	0	794.40	0	4.0140	0	37.0210	8	29.400	0	786.545	0	10.9	4	3.5	4	-1E+10	1	-1E+10	1	-1E+10	1	-1E+10	1	-1E+10	1	-1E+10	1
4901784	198	C	12/05/2020	10:48	-133.986	43.616	0	799.70	0	3.9720	0	37.0230	8	29.407	0	791.783	0	10.8	4	3.5	4	-1E+10	1	-1E+10	1	-1E+10	1	-1E+10	1	-1E+10	1	-1E+10	1
4901784	198	C	12/05/2020	10:48	-133.986	43.616	0	805.00	0	3.9610	0	37.0290	8	29.413	0	797.020	0	10.7	4	3.5	4	-1E+10	1	-1E+10	1	-1E+10	1	-1E+10	1	-1E+10	1	-1E+10	1
4901784	198	C	12/05/2020	10:48	-133.986	43.616	0	810.30	0	3.9490	0	37.0330	8	29.417	0	802.258	0	10.6	4	3.4	4	-1E+10	1	-1E+10	1	-1E+10	1	-1E+10	1	-1E+10	1	-1E+10	1
4901784	198	C	12/05/2020	10:48	-133.986	43.616	0	814.80	0	3.9400	0	37.0370	8	29.421	0	806.704	0	10.6	4	3.4	4	-1E+10	1	-1E+10	1	-1E+10	1	-1E+10	1	-1E+10	1	-1E+10	1
4901784	198	C	12/05/2020	10:48	-133.986	43.616	0	819.40	0	3.9370	0	37.0380	8	29.423	0	811.250	0	10.5	4	3.4	4	-1E+10	1	-1E+10	1	-1E+10	1	-1E+10	1	-1E+10	1	-1E+10	1
4901784	198	C	12/05/2020	10:48	-133.986	43.616	0	824.80	0	3.9280	0	37.0400	8	29.425	0	816.585	0	10.5	4	3.4	4	-1E+10	1	-1E+10	1	-1E+10	1	-1E+10	1	-1E+10	1	-1E+10	1
4901784	198	C	12/05/2020	10:48	-133.986	43.616	0	830.30	0	3.9070	0	37.0420	8	29.429	0	822.020	0	10.4	4	3.4	4	-1E+10	1	-1E+10	1	-1E+10	1	-1E+10	1	-1E+10	1	-1E+10	1
4901784	198	C	12/05/2020	10:48	-133.986	43.616	0	835.70	0	3.8890	0	37.0460	8	29.434	0	827.355	0	10.3	4	3.3	4	-1E+10	1	-1E+10	1	-1E+10	1	-1E+10	1	-1E+10	1	-1E+10	1
4901784	198	C	12/05/2020	10:48	-133.986	43.616	0	840.20	0	3.8760	0	37.0520	8	29.440	0	831.801	0	10.3	4	3.3	4	-1E+10	1	-1E+10	1	-1E+10	1	-1E+10	1	-1E+10	1	-1E+10	1
4901784	198	C	12/05/2020	10:48	-133.986	43.616	0	844.80	0	3.8580	0	37.0540	8	29.444	0	836.346	0	10.3	4	3.3	4	-1E+10	1	-1E+10	1	-1E+10	1	-1E+10	1	-1E+10	1	-1E+10	1
4901784	198	C	12/05/2020	10:48	-133.986	43.616	0	850.30	0	3.8420	0	37.0570	8	29.448	0	841.780	0	10.2	4	3.3	4	-1E+10	1	-1E+10	1	-1E+10	1	-1E+10	1	-1E+10	1	-1E+10	1
4901784	198	C	12/05/2020	10:48	-133.986	43.616	0	854.80	0	3.8260	0	37.0600	8	29.452	0	846.226	0	10.2	4	3.3	4	-1E+10	1	-1E+10	1	-1E+10	1	-1E+10	1	-1E+10	1	-1E+10	1
4901784	198	C	12/05/2020	10:48	-133.986	43.616	0	859.40	0	3.8130	0	37.0630	8	29.456	0	850.770	0	10.1	4	3.3	4	-1E+10	1	-1E+10	1	-1E+10	1	-1E+10	1	-1E+10	1	-1E+10	1
4901784	198	C	12/05/2020	10:48	-133.986	43.616	0	865.00	0	3.7930	0	37.0700	8	29.464	0	856.303	0	10.1	4	3.2	4	-1E+10	1	-1E+10	1	-1E+10	1	-1E+10	1	-1E+10	1	-1E+10	1
4901784	198	C	12/05/2020	10:48	-133.986	43.616	0	869.60	0	3.7830	0	37.0720	8	29.467	0	860.847	0	10.1	4	3.2	4	-1E+10	1	-1E+10	1	-1E+10	1	-1E+10	1	-1E+10	1	-1E+10	1
4901784	198	C	12/05/2020	10:48	-133.986	43.616	0	874.30	0	3.7700	0	37.0760	8	29.471	0	865.490	0	10.0	4	3.2	4	-1E+10	1	-1E+10	1	-1E+10	1	-1E+10	1	-1E+10	1	-1E+10	1
4901784	198	C	12/05/2020	10:48	-133.986	43.616	0	879.60	0	3.7640	0	37.0780	8	29.474	0	870.725	0	10.0	4	3.2	4	-1E+10	1	-1E+10	1	-1E+10	1	-1E+10	1	-1E+10	1	-1E+10	1
4901784	198	C	12/05/2020	10:48	-133.986	43.616	0	884.40	0	3.7490	0	37.0820	8	29.478	0	875.467	0	10.0	4	3.2	4	-1E+10	1	-1E+10	1	-1E+10	1	-1E+10	1	-1E+10	1	-1E+10	1
4901784	198	C	12/05/2020	10:48	-133.986	43.616	0	890.00	0	3.7290	0	37.0860	8	29.484	0	880.999	0	10.0	4	3.2	4	-1E+10	1	-1E+10	1	-1E+10	1	-1E+10	1	-1E+10	1	-1E+10	1
4901784	198	C	12/05/2020	10:48	-133.986	43.616	0	895.70	0	3.7180	0	37.0890	8	29.487	0	886.629	0	10.0	4	3.2	4	-1E+10	1	-1E+10	1	-1E+10	1	-1E+10	1	-1E+10	1	-1E+10	1
4901784	198	C	12/05/2020	10:48	-133.986	43.616	0	900.50	0	3.7060	0	37.0910	8	29.490	0	891.370	0	10.0	4	3.2	4	-1E+10	1	-1E+10	1	-1E+10	1	-1E+10	1	-1E+10	1	-1E+10	1
4901784	198	C	12/05/2020	10:48	-133.986	43.616	0	905.50	0	3.6990	0	37.0930	8	29.493	0	896.309	0	10.0	4	3.2	4	-1E+10	1	-1E+10	1	-1E+10	1	-1E+10	1	-1E+10	1	-1E+10	1
4901784	198	C	12/05/2020	10:48	-133.986	43.616	0	910.50	0	3.6790	0	37.0980	8	29.499	0	901.247	0	10.0	4	3.2	4	-1E+10	1	-1E+10	1	-1E+10	1	-1E+10	1	-1E+10	1	-1E+10	1
4901784	198	C	12/05/2020	10:48	-133.986	43.616	0	915.50	0	3.6730	0	37.1010	8	29.502	0	906.185	0	10.0	4	3.2	4	-1E+10	1	-1E+10	1	-1E+10	1	-1E+10	1	-1E+10	1	-1E+10	1
4901784	198	C	12/05/2020	10:48	-133.986	43.616	0	920.60	0	3.6600	0	37.1040	8	29.506	0	911.222	0	10.0	4	3.2	4	-1E+10	1	-1E+10	1	-1E+10	1	-1E+10	1	-1E+10	1	-1E+10	1
4901784	198	C	12/05/2020	10:48	-133.986	43.616	0	925.70	0	3.6510	0	37.1060	8	29.508	0	916.259	0	10.0	4	3.2	4	-1E+10	1	-1E+10	1	-1E+10	1	-1E+10	1	-1E+10	1	-1E+10	1
4901784	198	C	12/05/2020	10:48	-133.986	43.616	0	930.00	0	3.6470	0	37.1100	8	29.512	0	920.506	0	10.0	4	3.2	4	-1E+10	1	-1E+10	1	-1E+10	1	-1E+10	1	-1E+10	1	-1E+10	1
4901784	198	C	12/05/2020	10:48	-133.986	43.616	0	934.40	0	3.6410	0	37.1120	8	29.514	0	924.851	0	10.0	4	3.2	4	-1E+10	1	-1E+10	1	-1E+10	1	-1E+10	1	-1E+10	1	-1E+10	1
4901784	198	C	12/05/2020	10:48	-133.986	43.616	0	939.70	0	3.6250	0	37.1140	8	29.517	0	930.086	0	10.0	4	3.2	4	-1E+10	1	-1E+10	1	-1E+10	1	-1E+10	1	-1E+10	1	-1E+10	1
4901784	198	C	12/05/2020	10:48	-133.986	43.616	0	945.00	0	3.6100	0	37.1170	8	29.521	0	935.319	0	10.1	4	3.2	4	-1E+10	1	-1E+10	1	-1E+10	1	-1E+10	1	-1E+10	1	-1E+10	1
4901784	198	C	12/05/2020	10:48	-133.986	43.616	0	950.30	0	3.6030	0	37.1200	8	29.525	0	940.553	0	10.1	4	3.2	4	-1E+10	1	-1E+10	1	-1E+10	1	-1E+10	1	-1E+10	1	-1E+10	1
4901784	198	C	12/05/2020	10:48	-133.986	43.616	0	955.70	0	3.6050	0	37.1250	8	29.528	0	945.886	0	10.2	4	3.3	4	-1E+10	1	-1E+10	1	-1E+10	1	-1E+10	1	-1E+10	1	-1E+10	1
4901784	198	C	12/05/2020	10:48	-133.986	43.616	0	960.20	0	3.6030	0	37.1280	8	29.531	0	950.329	0	10.3	4	3.3	4	-1E+10	1	-1E+10	1	-1E+10	1	-1E+10	1	-1E+10	1	-1E+10	1
4901784	198	C	12/05/2020	10:48	-133.986	43.616	0	964.70	0	3.6020	0	37.1300	8	29.533	0	954.773	0	10.3	4	3.3	4	-1E+10	1	-1E+10	1	-1E+10	1	-1E+10	1	-1E+10	1	-1E+10	1
4901784	198	C	12/05/2020	10:48	-133.986	43.616	0	970.10	0	3.5910	0	37.1330	8	29.536	0	960.105	0	10.4	4	3.3	4	-1E+10	1	-1E+10	1	-1E+10	1	-1E+10	1	-1E+10	1	-1E+10	1
4901784	198	C	12/05/2020	10:48	-133.986	43.616	0	975.50	0	3.5810	0	37.1350	8	29.539	0	965.437	0	10.4	4	3.3	4	-1E+10	1	-1E+10	1	-1E+10	1	-1E+10	1	-1E+10	1	-1E+10	1
4901784	198	C	12/05/2020	10:48	-133.986	43.616	0	980.00	0	3.5610	0	37.1410	8	29.546	0	969.880	0	10.5	4	3.4	4	-1E+10	1	-1E+10	1	-1E+10	1	-1E+10	1	-1E+10	1	-1E+10	1
4901784	198	C	12/05/2020	10:48	-133.986	43.616	0	984.50	0	3.5610	0	37.1430	8	29.548	0	974.323	0	10.6	4	3.4	4	-1E+10	1	-1E+10	1	-1E+10	1	-1E+10	1	-1E+10	1	-1E+10	1
4901784	198	C	12/05/2020	10:48	-133.986	43.616	0	990.10	0	3.5400	0	37.1460	8	29.552	0	979.852	0	10.6	4	3.4	4	-1E+10	1	-1E+10	1	-1E+10	1	-1E+10	1	-1E+10	1	-1E+10	1
4901784	198	C	12/05/2020	10:48	-133.986	43.616	0	994.70	0	3.5290	0	37.1480	8	29.555	0	984.394	0	10.6	4	3.4	4	-1E+10	1	-1E+10	1	-1E+10	1	-1E+10	1	-1E+10	1	-1E+10	1
4901784	198	C	12/05/2020	10:48	-133.986	43.616	0	999.40	0	3.4920	0	37.1490	8	29.560	0	989.034	0	10.6	4	3.4	4	-1E+10	1	-1E+10	1	-1E+10	1	-1E+10	1	-1E+10	1	-1E+10	1
4901784	198	C	12/05/2020	10:48	-133.986	43.616	0	1005.00	0	3.4740	0	37.1520	8	29.564	0	994.562	0	10.7	4	3.4	4	-1E+10	1	-1E+10	1	-1E+10	1	-1E+10	1	-1E+10	1	-1E+10	1
4901784	198	C	12/05/2020	10:48	-133.986	43.616	0	1009.80	0	3.4670	0	37.1540	8	29.566	0	999.301	0	10.7	4	3.4	4	-1E+10	1	-1E+10	1	-1E+10	1	-1E+10	1	-1E+10	1	-1E+10	1
4901784	198	C	12/05/2020	10:48	-133.986	43.616	0	1014.50	0	3.4550	0	37.1560	8	29.569	0	1003.941	0	10.7	4	3.4	4	-1E+10	1	-1E+10	1	-1E+10	1	-1E+10	1	-1E+10	1	-1E+10	1
4901784	198	C	12/05/2020	10:48	-133.986	43.616	0	1019.80	0	3.4370	0	37.1580	8	29.573	0	1009.173	0	10.8	4	3.4	4	-1E+10	1	-1E+10	1	-1E+10	1	-1E+10	1	-1E+10	1	-1E+10	1
4901784	198	C	12/05/2020	10:48	-133.986	43.616	0	1025.10	0	3.4310	0	37.1600	8	29.575	0	1014.405	0	10.8	4	3.5	4	-1E+10	1	-1E+10	1	-1E+10	1	-1E+10	1	-1E+10	1	-1E+10	1
4901784	198	C	12/05/2020	10:48	-133.986	43.616	0	1030.70	0	3.4140	0	37.1630	8	29.579	0	1019.933	0	10.9	4	3.5	4	-1E+10	1	-1E+10	1	-1E+10	1	-1E+10	1	-1E+10	1	-1E+10	1
4901784	198	C	12/05/2020	10:48	-133.986	43.616	0	1035.70	0	3.4030	0	37.1660	8	29.583	0	1024.869	0	11.0	4	3.5	4	-1E+10	1	-1E+10	1	-1E+10	1	-1E+10	1	-1E+10	1	-1E+10	1
4901784	198	C	12/05/2020	10:48	-133.986	43.616	0	1040.80	0	3.3860	0	37.1690	8	29.587	0	1029.903	0	11.1	4	3.5	4	-1E+10	1	-1E+10	1	-1E+10	1	-1E+10	1	-1E+10	1	-1E+10	1
4901784	198	C	12/05/2020	10:48	-133.986	43.616	0	1045.00	0	3.3760	0	37.1720	8	29.590	0	1034.048	0	11.2	4	3.6	4	-1E+10	1	-1E+10	1	-1E+10	1	-1E+10	1	-1E+10	1	-1E+10	1
4901784	198	C	12/05/2020	10:48	-133.986	43.616	0	1049.20	0	3.3700	0	37.1730	8	29.592	0	1038.194	0	11.2	4	3.6	4	-1E+10	1	-1E+10	1	-1E+10	1	-1E+10	1	-1E+10	1	-1E+10	1
4901784	198	C	12/05/2020	10:48	-133.986	43.616	0	1054.20	0	3.3600	0	37.1750	8	29.594	0	1043.129	0	11.3	4	3.6	4	-1E+10	1	-1E+10	1	-1E+10	1	-1E+10	1	-1E+10	1	-1E+10	1
4901784	198	C	12/05/2020	10:48	-133.986	43.616	0	1059.40	0	3.3500	0	37.1770	8	29.597	0	1048.262	0	11.4	4	3.6	4	-1E+10	1	-1E+10	1	-1E+10	1	-1E+10	1	-1E+10	1	-1E+10	1
4901784	198	C	12/05/2020	10:48	-133.986	43.616	0	1064.50	0	3.3460	0	37.1780	8	29.598	0	1053.295	0	11.4	4	3.6	4	-1E+10	1	-1E+10	1	-1E+10	1	-1E+10	1	-1E+10	1	-1E+10	1
4901784	198	C	12/05/2020	10:48	-133.986	43.616	0	1069.70	0	3.3380	0	37.1800	8	29.601	0	1058.427	0	11.5	4	3.7	4	-1E+10	1	-1E+10	1	-1E+10	1	-1E+10	1	-1E+10	1	-1E+10	1
4901784	198	C	12/05/2020	10:48	-133.986	43.616	0	1075.00	0	3.3320	0	37.1810	8	29.602	0	1063.658	0	11.6	4	3.7	4	-1E+10	1	-1E+10	1	-1E+10	1	-1E+10	1	-1E+10	1	-1E+10	1
4901784	198	C	12/05/2020	10:48	-133.986	43.616	0	1080.30	0	3.3200	0	37.1840	8	29.606	0	1068.889	0	11.8	4	3.7	4	-1E+10	1	-1E+10	1	-1E+10	1	-1E+10	1	-1E+10	1	-1E+10	1
4901784	198	C	12/05/2020	10:48	-133.986	43.616	0	1084.80	0	3.3070	0	37.1870	8	29.610	0	1073.330	0	11.8	4	3.8	4	-1E+10	1	-1E+10	1	-1E+10	1	-1E+10	1	-1E+10	1	-1E+10	1
4901784	198	C	12/05/2020	10:48	-133.986	43.616	0	1089.30	0	3.3000	0	37.1880	8	29.611	0	1077.770	0	11.9	4	3.8	4	-1E+10	1	-1E+10	1	-1E+10	1	-1E+10	1	-1E+10	1	-1E+10	1
4901784	198	C	12/05/2020	10:48	-133.986	43.616	0	1094.60	0	3.2900	0	37.1910	8	29.615	0	1083.001	0	12.0	4	3.8	4	-1E+10	1	-1E+10	1	-1E+10	1	-1E+10	1	-1E+10	1	-1E+10	1
4901784	198	C	12/05/2020	10:48	-133.986	43.616	0	1100.10	0	3.2800	0	37.1930	8	29.617	0	1088.428	0	12.1	4	3.8	4	-1E+10	1	-1E+10	1	-1E+10	1	-1E+10	1	-1E+10	1	-1E+10	1
4901784	198	C	12/05/2020	10:48	-133.986	43.616	0	1105.50	0	3.2690	0	37.1950	8	29.620	0	1093.757	0	12.2	4	3.9	4	-1E+10	1	-1E+10	1	-1E+10	1	-1E+10	1	-1E+10	1	-1E+10	1
4901784	198	C	12/05/2020	10:48	-133.986	43.616	0	1110.10	0	3.2620	0	37.1970	8	29.622	0	1098.296	0	12.3	4	3.9	4	-1E+10	1	-1E+10	1	-1E+10	1	-1E+10	1	-1E+10	1	-1E+10	1
4901784	198	C	12/05/2020	10:48	-133.986	43.616	0	1114.70	0	3.2530	0	37.1990	8	29.625	0	1102.835	0	12.4	4	3.9	4	-1E+10	1	-1E+10	1	-1E+10	1	-1E+10	1	-1E+10	1	-1E+10	1
4901784	198	C	12/05/2020	10:48	-133.986	43.616	0	1120.30	0	3.2440	0	37.2010	8	29.627	0	1108.361	0	12.5	4	4.0	4	-1E+10	1	-1E+10	1	-1E+10	1	-1E+10	1	-1E+10	1	-1E+10	1
4901784	198	C	12/05/2020	10:48	-133.986	43.616	0	1124.90	0	3.2370	0	37.2020	8	29.629	0	1112.899	0	12.5	4	4.0	4	-1E+10	1	-1E+10	1	-1E+10	1	-1E+10	1	-1E+10	1	-1E+10	1
4901784	198	C	12/05/2020	10:48	-133.986	43.616	0	1129.60	0	3.2340	0	37.2030	8	29.630	0	1117.537	0	12.6	4	4.0	4	-1E+10	1	-1E+10	1	-1E+10	1	-1E+10	1	-1E+10	1	-1E+10	1
4901784	198	C	12/05/2020	10:48	-133.986	43.616	0	1135.30	0	3.2260	0	37.2040	8	29.632	0	1123.161	0	12.8	4	4.1	4	-1E+10	1	-1E+10	1	-1E+10	1	-1E+10	1	-1E+10	1	-1E+10	1
4901784	198	C	12/05/2020	10:48	-133.986	43.616	0	1140.00	0	3.2180	0	37.2070	8	29.635	0	1127.798	0	12.9	4	4.1	4	-1E+10	1	-1E+10	1	-1E+10	1	-1E+10	1	-1E+10	1	-1E+10	1
4901784	198	C	12/05/2020	10:48	-133.986	43.616	0	1144.70	0	3.2000	0	37.2100	8	29.639	0	1132.435	0	13.0	4	4.1	4	-1E+10	1	-1E+10	1	-1E+10	1	-1E+10	1	-1E+10	1	-1E+10	1
4901784	198	C	12/05/2020	10:48	-133.986	43.616	0	1150.20	0	3.1930	0	37.2120	8	29.642	0	1137.861	0	13.1	4	4.2	4	-1E+10	1	-1E+10	1	-1E+10	1	-1E+10	1	-1E+10	1	-1E+10	1
4901784	198	C	12/05/2020	10:48	-133.986	43.616	0	1155.60	0	3.1900	0	37.2120	8	29.642	0	1143.188	0	13.2	4	4.2	4	-1E+10	1	-1E+10	1	-1E+10	1	-1E+10	1	-1E+10	1	-1E+10	1
4901784	198	C	12/05/2020	10:48	-133.986	43.616	0	1160.40	0	3.1750	0	37.2140	8	29.645	0	1147.924	0	13.3	4	4.2	4	-1E+10	1	-1E+10	1	-1E+10	1	-1E+10	1	-1E+10	1	-1E+10	1
4901784	198	C	12/05/2020	10:48	-133.986	43.616	0	1165.30	0	3.1610	0	37.2170	8	29.649	0	1152.758	0	13.4	4	4.2	4	-1E+10	1	-1E+10	1	-1E+10	1	-1E+10	1	-1E+10	1	-1E+10	1
4901784	198	C	12/05/2020	10:48	-133.986	43.616	0	1170.20	0	3.1490	0	37.2180	8	29.651	0	1157.591	0	13.5	4	4.3	4	-1E+10	1	-1E+10	1	-1E+10	1	-1E+10	1	-1E+10	1	-1E+10	1
4901784	198	C	12/05/2020	10:48	-133.986	43.616	0	1175.10	0	3.1430	0	37.2190	8	29.652	0	1162.425	0	13.6	4	4.3	4	-1E+10	1	-1E+10	1	-1E+10	1	-1E+10	1	-1E+10	1	-1E+10	1
4901784	198	C	12/05/2020	10:48	-133.986	43.616	0	1180.00	0	3.1330	0	37.2220	8	29.656	0	1167.259	0	13.7	4	4.3	4	-1E+10	1	-1E+10	1	-1E+10	1	-1E+10	1	-1E+10	1	-1E+10	1
4901784	198	C	12/05/2020	10:48	-133.986	43.616	0	1185.00	0	3.1260	0	37.2230	8	29.657	0	1172.191	0	13.8	4	4.4	4	-1E+10	1	-1E+10	1	-1E+10	1	-1E+10	1	-1E+10	1	-1E+10	1
4901784	198	C	12/05/2020	10:48	-133.986	43.616	0	1189.90	0	3.1160	0	37.2250	8	29.660	0	1177.024	0	14.0	4	4.4	4	-1E+10	1	-1E+10	1	-1E+10	1	-1E+10	1	-1E+10	1	-1E+10	1
4901784	198	C	12/05/2020	10:48	-133.986	43.616	0	1195.00	0	3.1080	0	37.2270	8	29.662	0	1182.054	0	14.1	4	4.5	4	-1E+10	1	-1E+10	1	-1E+10	1	-1E+10	1	-1E+10	1	-1E+10	1
4901784	198	C	12/05/2020	10:48	-133.986	43.616	0	1200.00	0	3.0950	0	37.2290	8	29.665	0	1186.986	0	14.3	4	4.5	4	-1E+10	1	-1E+10	1	-1E+10	1	-1E+10	1	-1E+10	1	-1E+10	1
4901784	198	C	12/05/2020	10:48	-133.986	43.616	0	1205.20	0	3.0770	0	37.2330	8	29.670	0	1192.115	0	14.5	4	4.6	4	-1E+10	1	-1E+10	1	-1E+10	1	-1E+10	1	-1E+10	1	-1E+10	1
4901784	198	C	12/05/2020	10:48	-133.986	43.616	0	1210.30	0	3.0670	0	37.2350	8	29.673	0	1197.145	0	14.7	4	4.6	4	-1E+10	1	-1E+10	1	-1E+10	1	-1E+10	1	-1E+10	1	-1E+10	1
4901784	198	C	12/05/2020	10:48	-133.986	43.616	0	1215.40	0	3.0590	0	37.2360	8	29.675	0	1202.175	0	14.9	4	4.7	4	-1E+10	1	-1E+10	1	-1E+10	1	-1E+10	1	-1E+10	1	-1E+10	1
4901784	198	C	12/05/2020	10:48	-133.986	43.616	0	1220.50	0	3.0500	0	37.2390	8	29.678	0	1207.205	0	15.1	4	4.8	4	-1E+10	1	-1E+10	1	-1E+10	1	-1E+10	1	-1E+10	1	-1E+10	1
4901784	198	C	12/05/2020	10:48	-133.986	43.616	0	1225.60	0	3.0410	0	37.2410	8	29.680	0	1212.235	0	15.2	4	4.8	4	-1E+10	1	-1E+10	1	-1E+10	1	-1E+10	1	-1E+10	1	-1E+10	1
4901784	198	C	12/05/2020	10:48	-133.986	43.616	0	1229.90	0	3.0280	0	37.2420	8	29.682	0	1216.475	0	15.3	4	4.8	4	-1E+10	1	-1E+10	1	-1E+10	1	-1E+10	1	-1E+10	1	-1E+10	1
4901784	198	C	12/05/2020	10:48	-133.986	43.616	0	1234.20	0	3.0200	0	37.2430	8	29.684	0	1220.716	0	15.4	4	4.9	4	-1E+10	1	-1E+10	1	-1E+10	1	-1E+10	1	-1E+10	1	-1E+10	1
4901784	198	C	12/05/2020	10:48	-133.986	43.616	0	1239.40	0	3.0050	0	37.2460	8	29.688	0	1225.844	0	15.6	4	4.9	4	-1E+10	1	-1E+10	1	-1E+10	1	-1E+10	1	-1E+10	1	-1E+10	1
4901784	198	C	12/05/2020	10:48	-133.986	43.616	0	1244.50	0	2.9990	0	37.2470	8	29.689	0	1230.873	0	15.8	4	5.0	4	-1E+10	1	-1E+10	1	-1E+10	1	-1E+10	1	-1E+10	1	-1E+10	1
4901784	198	C	12/05/2020	10:48	-133.986	43.616	0	1249.60	0	2.9940	0	37.2490	8	29.692	0	1235.903	0	16.0	4	5.1	4	-1E+10	1	-1E+10	1	-1E+10	1	-1E+10	1	-1E+10	1	-1E+10	1
4901784	198	C	12/05/2020	10:48	-133.986	43.616	0	1254.80	0	2.9840	0	37.2510	8	29.694	0	1241.030	0	16.2	4	5.1	4	-1E+10	1	-1E+10	1	-1E+10	1	-1E+10	1	-1E+10	1	-1E+10	1
4901784	198	C	12/05/2020	10:48	-133.986	43.616	0	1259.90	0	2.9750	0	37.2530	8	29.697	0	1246.059	0	16.4	4	5.2	4	-1E+10	1	-1E+10	1	-1E+10	1	-1E+10	1	-1E+10	1	-1E+10	1
4901784	198	C	12/05/2020	10:48	-133.986	43.616	0	1265.10	0	2.9660	0	37.2560	8	29.700	0	1251.187	0	16.8	4	5.3	4	-1E+10	1	-1E+10	1	-1E+10	1	-1E+10	1	-1E+10	1	-1E+10	1
4901784	198	C	12/05/2020	10:48	-133.986	43.616	0	1270.40	0	2.9630	0	37.2570	8	29.701	0	1256.413	0	17.0	4	5.4	4	-1E+10	1	-1E+10	1	-1E+10	1	-1E+10	1	-1E+10	1	-1E+10	1
4901784	198	C	12/05/2020	10:48	-133.986	43.616	0	1274.80	0	2.9550	0	37.2590	8	29.704	0	1260.751	0	17.2	4	5.4	4	-1E+10	1	-1E+10	1	-1E+10	1	-1E+10	1	-1E+10	1	-1E+10	1
4901784	198	C	12/05/2020	10:48	-133.986	43.616	0	1279.30	0	2.9480	0	37.2610	8	29.706	0	1265.188	0	17.5	4	5.5	4	-1E+10	1	-1E+10	1	-1E+10	1	-1E+10	1	-1E+10	1	-1E+10	1
4901784	198	C	12/05/2020	10:48	-133.986	43.616	0	1284.50	0	2.9490	0	37.2630	8	29.707	0	1270.315	0	17.8	4	5.6	4	-1E+10	1	-1E+10	1	-1E+10	1	-1E+10	1	-1E+10	1	-1E+10	1
4901784	198	C	12/05/2020	10:48	-133.986	43.616	0	1289.70	0	2.9440	0	37.2640	8	29.709	0	1275.442	0	17.9	4	5.6	4	-1E+10	1	-1E+10	1	-1E+10	1	-1E+10	1	-1E+10	1	-1E+10	1
4901784	198	C	12/05/2020	10:48	-133.986	43.616	0	1294.90	0	2.9210	0	37.2660	8	29.713	0	1280.568	0	18.0	4	5.7	4	-1E+10	1	-1E+10	1	-1E+10	1	-1E+10	1	-1E+10	1	-1E+10	1
4901784	198	C	12/05/2020	10:48	-133.986	43.616	0	1300.10	0	2.9160	0	37.2670	8	29.714	0	1285.695	0	18.2	4	5.7	4	-1E+10	1	-1E+10	1	-1E+10	1	-1E+10	1	-1E+10	1	-1E+10	1
4901784	198	C	12/05/2020	10:48	-133.986	43.616	0	1305.30	0	2.9050	0	37.2690	8	29.717	0	1290.821	0	18.6	4	5.8	4	-1E+10	1	-1E+10	1	-1E+10	1	-1E+10	1	-1E+10	1	-1E+10	1
4901784	198	C	12/05/2020	10:48	-133.986	43.616	0	1310.50	0	2.8950	0	37.2720	8	29.720	0	1295.948	0	18.9	4	5.9	4	-1E+10	1	-1E+10	1	-1E+10	1	-1E+10	1	-1E+10	1	-1E+10	1
4901784	198	C	12/05/2020	10:48	-133.986	43.616	0	1315.70	0	2.8860	0	37.2740	8	29.722	0	1301.074	0	19.0	4	6.0	4	-1E+10	1	-1E+10	1	-1E+10	1	-1E+10	1	-1E+10	1	-1E+10	1
4901784	198	C	12/05/2020	10:48	-133.986	43.616	0	1320.10	0	2.8800	0	37.2750	8	29.724	0	1305.411	0	19.0	4	6.0	4	-1E+10	1	-1E+10	1	-1E+10	1	-1E+10	1	-1E+10	1	-1E+10	1
4901784	198	C	12/05/2020	10:48	-133.986	43.616	0	1324.40	0	2.8740	0	37.2760	8	29.725	0	1309.650	0	19.0	4	6.0	4	-1E+10	1	-1E+10	1	-1E+10	1	-1E+10	1	-1E+10	1	-1E+10	1
4901784	198	C	12/05/2020	10:48	-133.986	43.616	0	1329.70	0	2.8730	0	37.2750	8	29.725	0	1314.875	0	19.1	4	6.0	4	-1E+10	1	-1E+10	1	-1E+10	1	-1E+10	1	-1E+10	1	-1E+10	1
4901784	198	C	12/05/2020	10:48	-133.986	43.616	0	1335.00	0	2.8580	0	37.2770	8	29.728	0	1320.099	0	19.2	4	6.0	4	-1E+10	1	-1E+10	1	-1E+10	1	-1E+10	1	-1E+10	1	-1E+10	1
4901784	198	C	12/05/2020	10:48	-133.986	43.616	0	1340.20	0	2.8440	0	37.2780	8	29.730	0	1325.225	0	19.3	4	6.1	4	-1E+10	1	-1E+10	1	-1E+10	1	-1E+10	1	-1E+10	1	-1E+10	1
4901784	198	C	12/05/2020	10:48	-133.986	43.616	0	1345.40	0	2.8340	0	37.2800	8	29.732	0	1330.350	0	19.5	4	6.1	4	-1E+10	1	-1E+10	1	-1E+10	1	-1E+10	1	-1E+10	1	-1E+10	1
4901784	198	C	12/05/2020	10:48	-133.986	43.616	0	1350.50	0	2.8220	0	37.2820	8	29.735	0	1335.377	0	19.7	4	6.2	4	-1E+10	1	-1E+10	1	-1E+10	1	-1E+10	1	-1E+10	1	-1E+10	1
4901784	198	C	12/05/2020	10:48	-133.986	43.616	0	1355.20	0	2.8160	0	37.2830	8	29.737	0	1340.009	0	19.9	4	6.2	4	-1E+10	1	-1E+10	1	-1E+10	1	-1E+10	1	-1E+10	1	-1E+10	1
4901784	198	C	12/05/2020	10:48	-133.986	43.616	0	1360.10	0	2.8050	0	37.2850	8	29.739	0	1344.839	0	20.1	4	6.3	4	-1E+10	1	-1E+10	1	-1E+10	1	-1E+10	1	-1E+10	1	-1E+10	1
4901784	198	C	12/05/2020	10:48	-133.986	43.616	0	1365.00	0	2.7950	0	37.2860	8	29.741	0	1349.668	0	20.4	4	6.4	4	-1E+10	1	-1E+10	1	-1E+10	1	-1E+10	1	-1E+10	1	-1E+10	1
4901784	198	C	12/05/2020	10:48	-133.986	43.616	0	1370.10	0	2.7830	0	37.2880	8	29.744	0	1354.694	0	20.6	4	6.5	4	-1E+10	1	-1E+10	1	-1E+10	1	-1E+10	1	-1E+10	1	-1E+10	1
4901784	198	C	12/05/2020	10:48	-133.986	43.616	0	1375.10	0	2.7740	0	37.2900	8	29.746	0	1359.622	0	20.8	4	6.5	4	-1E+10	1	-1E+10	1	-1E+10	1	-1E+10	1	-1E+10	1	-1E+10	1
4901784	198	C	12/05/2020	10:48	-133.986	43.616	0	1380.30	0	2.7670	0	37.2910	8	29.748	0	1364.747	0	21.1	4	6.6	4	-1E+10	1	-1E+10	1	-1E+10	1	-1E+10	1	-1E+10	1	-1E+10	1
4901784	198	C	12/05/2020	10:48	-133.986	43.616	0	1385.50	0	2.7520	0	37.2940	8	29.752	0	1369.871	0	21.4	4	6.7	4	-1E+10	1	-1E+10	1	-1E+10	1	-1E+10	1	-1E+10	1	-1E+10	1
4901784	198	C	12/05/2020	10:48	-133.986	43.616	0	1390.70	0	2.7420	0	37.2950	8	29.754	0	1374.996	0	21.7	4	6.8	4	-1E+10	1	-1E+10	1	-1E+10	1	-1E+10	1	-1E+10	1	-1E+10	1
4901784	198	C	12/05/2020	10:48	-133.986	43.616	0	1395.10	0	2.7370	0	37.2970	8	29.756	0	1379.332	0	21.8	4	6.8	4	-1E+10	1	-1E+10	1	-1E+10	1	-1E+10	1	-1E+10	1	-1E+10	1
4901784	198	C	12/05/2020	10:48	-133.986	43.616	0	1399.50	0	2.7300	0	37.2980	8	29.757	0	1383.667	0	22.0	4	6.9	4	-1E+10	1	-1E+10	1	-1E+10	1	-1E+10	1	-1E+10	1	-1E+10	1
4901784	198	C	12/05/2020	10:48	-133.986	43.616	0	1404.80	0	2.7180	0	37.3000	8	29.760	0	1388.890	0	22.2	4	7.0	4	-1E+10	1	-1E+10	1	-1E+10	1	-1E+10	1	-1E+10	1	-1E+10	1
4901784	198	C	12/05/2020	10:48	-133.986	43.616	0	1410.10	0	2.7090	0	37.3010	8	29.762	0	1394.113	0	22.5	4	7.0	4	-1E+10	1	-1E+10	1	-1E+10	1	-1E+10	1	-1E+10	1	-1E+10	1
4901784	198	C	12/05/2020	10:48	-133.986	43.616	0	1415.50	0	2.7020	0	37.3020	8	29.763	0	1399.433	0	22.8	4	7.1	4	-1E+10	1	-1E+10	1	-1E+10	1	-1E+10	1	-1E+10	1	-1E+10	1
4901784	198	C	12/05/2020	10:48	-133.986	43.616	0	1420.00	0	2.6920	0	37.3040	8	29.766	0	1403.867	0	23.1	4	7.2	4	-1E+10	1	-1E+10	1	-1E+10	1	-1E+10	1	-1E+10	1	-1E+10	1
4901784	198	C	12/05/2020	10:48	-133.986	43.616	0	1424.60	0	2.6850	0	37.3060	8	29.768	0	1408.400	0	23.3	4	7.3	4	-1E+10	1	-1E+10	1	-1E+10	1	-1E+10	1	-1E+10	1	-1E+10	1
4901784	198	C	12/05/2020	10:48	-133.986	43.616	0	1430.20	0	2.6770	0	37.3070	8	29.770	0	1413.917	0	23.6	4	7.4	4	-1E+10	1	-1E+10	1	-1E+10	1	-1E+10	1	-1E+10	1	-1E+10	1
4901784	198	C	12/05/2020	10:48	-133.986	43.616	0	1435.60	0	2.6710	0	37.3090	8	29.772	0	1419.238	0	23.7	4	7.4	4	-1E+10	1	-1E+10	1	-1E+10	1	-1E+10	1	-1E+10	1	-1E+10	1
4901784	198	C	12/05/2020	10:48	-133.986	43.616	0	1440.20	0	2.6670	0	37.3100	8	29.773	0	1423.770	0	23.8	4	7.4	4	-1E+10	1	-1E+10	1	-1E+10	1	-1E+10	1	-1E+10	1	-1E+10	1
4901784	198	C	12/05/2020	10:48	-133.986	43.616	0	1444.80	0	2.6650	0	37.3100	8	29.773	0	1428.302	0	23.9	4	7.5	4	-1E+10	1	-1E+10	1	-1E+10	1	-1E+10	1	-1E+10	1	-1E+10	1
4901784	198	C	12/05/2020	10:48	-133.986	43.616	0	1450.30	0	2.6570	0	37.3110	8	29.775	0	1433.720	0	24.1	4	7.6	4	-1E+10	1	-1E+10	1	-1E+10	1	-1E+10	1	-1E+10	1	-1E+10	1
4901784	198	C	12/05/2020	10:48	-133.986	43.616	0	1454.90	0	2.6480	0	37.3120	8	29.776	0	1438.252	0	24.3	4	7.6	4	-1E+10	1	-1E+10	1	-1E+10	1	-1E+10	1	-1E+10	1	-1E+10	1
4901784	198	C	12/05/2020	10:48	-133.986	43.616	0	1459.60	0	2.6340	0	37.3130	8	29.779	0	1442.882	0	24.6	4	7.7	4	-1E+10	1	-1E+10	1	-1E+10	1	-1E+10	1	-1E+10	1	-1E+10	1
4901784	198	C	12/05/2020	10:48	-133.986	43.616	0	1465.10	0	2.6210	0	37.3150	8	29.781	0	1448.300	0	24.9	4	7.8	4	-1E+10	1	-1E+10	1	-1E+10	1	-1E+10	1	-1E+10	1	-1E+10	1
4901784	198	C	12/05/2020	10:48	-133.986	43.616	0	1469.70	0	2.6110	0	37.3170	8	29.784	0	1452.832	0	25.3	4	7.9	4	-1E+10	1	-1E+10	1	-1E+10	1	-1E+10	1	-1E+10	1	-1E+10	1
4901784	198	C	12/05/2020	10:48	-133.986	43.616	0	1474.40	0	2.6030	0	37.3180	8	29.786	0	1457.462	0	25.6	4	8.0	4	-1E+10	1	-1E+10	1	-1E+10	1	-1E+10	1	-1E+10	1	-1E+10	1
4901784	198	C	12/05/2020	10:48	-133.986	43.616	0	1480.00	0	2.5890	0	37.3200	8	29.788	0	1462.978	0	26.0	4	8.1	4	-1E+10	1	-1E+10	1	-1E+10	1	-1E+10	1	-1E+10	1	-1E+10	1
4901784	198	C	12/05/2020	10:48	-133.986	43.616	0	1485.60	0	2.5770	0	37.3220	8	29.791	0	1468.494	0	26.4	4	8.2	4	-1E+10	1	-1E+10	1	-1E+10	1	-1E+10	1	-1E+10	1	-1E+10	1
4901784	198	C	12/05/2020	10:48	-133.986	43.616	0	1490.10	0	2.5660	0	37.3240	8	29.794	0	1472.927	0	26.7	4	8.3	4	-1E+10	1	-1E+10	1	-1E+10	1	-1E+10	1	-1E+10	1	-1E+10	1
4901784	198	C	12/05/2020	10:48	-133.986	43.616	0	1494.40	0	2.5570	0	37.3250	8	29.796	0	1477.162	0	27.0	4	8.4	4	-1E+10	1	-1E+10	1	-1E+10	1	-1E+10	1	-1E+10	1	-1E+10	1
4901784	198	C	12/05/2020	10:48	-133.986	43.616	0	1499.60	0	2.5430	0	37.3270	8	29.798	0	1482.284	0	27.3	4	8.5	4	-1E+10	1	-1E+10	1	-1E+10	1	-1E+10	1	-1E+10	1	-1E+10	1
4901784	198	C	12/05/2020	10:48	-133.986	43.616	0	1504.80	0	2.5370	0	37.3280	8	29.800	0	1487.406	0	27.6	4	8.6	4	-1E+10	1	-1E+10	1	-1E+10	1	-1E+10	1	-1E+10	1	-1E+10	1
4901784	198	C	12/05/2020	10:48	-133.986	43.616	0	1510.10	0	2.5310	0	37.3300	8	29.802	0	1492.626	0	27.8	4	8.7	4	-1E+10	1	-1E+10	1	-1E+10	1	-1E+10	1	-1E+10	1	-1E+10	1
4901784	198	C	12/05/2020	10:48	-133.986	43.616	0	1515.40	0	2.5190	0	37.3320	8	29.805	0	1497.845	0	28.2	4	8.8	4	-1E+10	1	-1E+10	1	-1E+10	1	-1E+10	1	-1E+10	1	-1E+10	1
4901784	198	C	12/05/2020	10:48	-133.986	43.616	0	1519.80	0	2.5150	0	37.3330	8	29.806	0	1502.179	0	28.4	4	8.8	4	-1E+10	1	-1E+10	1	-1E+10	1	-1E+10	1	-1E+10	1	-1E+10	1
4901784	198	C	12/05/2020	10:48	-133.986	43.616	0	1524.30	0	2.5100	0	37.3330	8	29.806	0	1506.611	0	28.6	4	8.9	4	-1E+10	1	-1E+10	1	-1E+10	1	-1E+10	1	-1E+10	1	-1E+10	1
4901784	198	C	12/05/2020	10:48	-133.986	43.616	0	1529.70	0	2.5000	0	37.3350	8	29.809	0	1511.929	0	29.1	4	9.1	4	-1E+10	1	-1E+10	1	-1E+10	1	-1E+10	1	-1E+10	1	-1E+10	1
4901784	198	C	12/05/2020	10:48	-133.986	43.616	0	1535.10	0	2.4860	0	37.3370	8	29.812	0	1517.247	0	29.5	4	9.2	4	-1E+10	1	-1E+10	1	-1E+10	1	-1E+10	1	-1E+10	1	-1E+10	1
4901784	198	C	12/05/2020	10:48	-133.986	43.616	0	1540.60	0	2.4750	0	37.3390	8	29.815	0	1522.663	0	29.8	4	9.3	4	-1E+10	1	-1E+10	1	-1E+10	1	-1E+10	1	-1E+10	1	-1E+10	1
4901784	198	C	12/05/2020	10:48	-133.986	43.616	0	1545.20	0	2.4680	0	37.3400	8	29.816	0	1527.193	0	30.1	4	9.4	4	-1E+10	1	-1E+10	1	-1E+10	1	-1E+10	1	-1E+10	1	-1E+10	1
4901784	198	C	12/05/2020	10:48	-133.986	43.616	0	1549.90	0	2.4610	0	37.3410	8	29.817	0	1531.821	0	30.3	4	9.4	4	-1E+10	1	-1E+10	1	-1E+10	1	-1E+10	1	-1E+10	1	-1E+10	1
4901784	198	C	12/05/2020	10:48	-133.986	43.616	0	1555.40	0	2.4550	0	37.3430	8	29.820	0	1537.237	0	30.5	4	9.5	4	-1E+10	1	-1E+10	1	-1E+10	1	-1E+10	1	-1E+10	1	-1E+10	1
4901784	198	C	12/05/2020	10:48	-133.986	43.616	0	1559.90	0	2.4520	0	37.3430	8	29.820	0	1541.668	0	30.7	4	9.6	4	-1E+10	1	-1E+10	1	-1E+10	1	-1E+10	1	-1E+10	1	-1E+10	1
4901784	198	C	12/05/2020	10:48	-133.986	43.616	0	1564.50	0	2.4460	0	37.3430	8	29.821	0	1546.197	0	31.0	4	9.7	4	-1E+10	1	-1E+10	1	-1E+10	1	-1E+10	1	-1E+10	1	-1E+10	1
4901784	198	C	12/05/2020	10:48	-133.986	43.616	0	1570.00	0	2.4340	0	37.3460	8	29.824	0	1551.613	0	31.3	4	9.8	4	-1E+10	1	-1E+10	1	-1E+10	1	-1E+10	1	-1E+10	1	-1E+10	1
4901784	198	C	12/05/2020	10:48	-133.986	43.616	0	1575.40	0	2.4250	0	37.3470	8	29.826	0	1556.930	0	31.7	4	9.9	4	-1E+10	1	-1E+10	1	-1E+10	1	-1E+10	1	-1E+10	1	-1E+10	1
4901784	198	C	12/05/2020	10:48	-133.986	43.616	0	1580.30	0	2.4140	0	37.3490	8	29.828	0	1561.754	0	32.0	4	10.0	4	-1E+10	1	-1E+10	1	-1E+10	1	-1E+10	1	-1E+10	1	-1E+10	1
4901784	198	C	12/05/2020	10:48	-133.986	43.616	0	1585.20	0	2.4070	0	37.3500	8	29.830	0	1566.578	0	32.3	4	10.1	4	-1E+10	1	-1E+10	1	-1E+10	1	-1E+10	1	-1E+10	1	-1E+10	1
4901784	198	C	12/05/2020	10:48	-133.986	43.616	0	1590.10	0	2.3990	0	37.3510	8	29.831	0	1571.403	0	32.7	4	10.2	4	-1E+10	1	-1E+10	1	-1E+10	1	-1E+10	1	-1E+10	1	-1E+10	1
4901784	198	C	12/05/2020	10:48	-133.986	43.616	0	1595.10	0	2.3900	0	37.3520	8	29.833	0	1576.325	0	33.0	4	10.3	4	-1E+10	1	-1E+10	1	-1E+10	1	-1E+10	1	-1E+10	1	-1E+10	1
4901784	198	C	12/05/2020	10:48	-133.986	43.616	0	1600.00	0	2.3790	0	37.3530	8	29.835	0	1581.149	0	33.5	4	10.4	4	-1E+10	1	-1E+10	1	-1E+10	1	-1E+10	1	-1E+10	1	-1E+10	1
4901784	198	C	12/05/2020	10:48	-133.986	43.616	0	1605.00	0	2.3650	0	37.3560	8	29.839	0	1586.072	0	34.0	4	10.6	4	-1E+10	1	-1E+10	1	-1E+10	1	-1E+10	1	-1E+10	1	-1E+10	1
4901784	198	C	12/05/2020	10:48	-133.986	43.616	0	1610.00	0	2.3540	0	37.3580	8	29.841	0	1590.994	0	34.3	4	10.7	4	-1E+10	1	-1E+10	1	-1E+10	1	-1E+10	1	-1E+10	1	-1E+10	1
4901784	198	C	12/05/2020	10:48	-133.986	43.616	0	1615.00	0	2.3470	0	37.3590	8	29.843	0	1595.916	0	34.5	4	10.7	4	-1E+10	1	-1E+10	1	-1E+10	1	-1E+10	1	-1E+10	1	-1E+10	1
4901784	198	C	12/05/2020	10:48	-133.986	43.616	0	1620.10	0	2.3440	0	37.3600	8	29.844	0	1600.937	0	34.8	4	10.8	4	-1E+10	1	-1E+10	1	-1E+10	1	-1E+10	1	-1E+10	1	-1E+10	1
4901784	198	C	12/05/2020	10:48	-133.986	43.616	0	1625.20	0	2.3350	0	37.3610	8	29.845	0	1605.957	0	35.1	4	10.9	4	-1E+10	1	-1E+10	1	-1E+10	1	-1E+10	1	-1E+10	1	-1E+10	1
4901784	198	C	12/05/2020	10:48	-133.986	43.616	0	1630.30	0	2.3250	0	37.3630	8	29.848	0	1610.977	0	35.4	4	11.0	4	-1E+10	1	-1E+10	1	-1E+10	1	-1E+10	1	-1E+10	1	-1E+10	1
4901784	198	C	12/05/2020	10:48	-133.986	43.616	0	1635.50	0	2.3170	0	37.3640	8	29.849	0	1616.096	0	35.7	4	11.1	4	-1E+10	1	-1E+10	1	-1E+10	1	-1E+10	1	-1E+10	1	-1E+10	1
4901784	198	C	12/05/2020	10:48	-133.986	43.616	0	1640.70	0	2.3110	0	37.3650	8	29.851	0	1621.214	0	36.0	4	11.2	4	-1E+10	1	-1E+10	1	-1E+10	1	-1E+10	1	-1E+10	1	-1E+10	1
4901784	198	C	12/05/2020	10:48	-133.986	43.616	0	1645.00	0	2.3070	0	37.3650	8	29.851	0	1625.447	0	36.3	4	11.3	4	-1E+10	1	-1E+10	1	-1E+10	1	-1E+10	1	-1E+10	1	-1E+10	1
4901784	198	C	12/05/2020	10:48	-133.986	43.616	0	1649.40	0	2.2950	0	37.3680	8	29.855	0	1629.777	0	36.7	4	11.4	4	-1E+10	1	-1E+10	1	-1E+10	1	-1E+10	1	-1E+10	1	-1E+10	1
4901784	198	C	12/05/2020	10:48	-133.986	43.616	0	1654.70	0	2.2880	0	37.3690	8	29.856	0	1634.994	0	37.0	4	11.5	4	-1E+10	1	-1E+10	1	-1E+10	1	-1E+10	1	-1E+10	1	-1E+10	1
4901784	198	C	12/05/2020	10:48	-133.986	43.616	0	1660.00	0	2.2830	0	37.3700	8	29.857	0	1640.210	0	37.2	4	11.5	4	-1E+10	1	-1E+10	1	-1E+10	1	-1E+10	1	-1E+10	1	-1E+10	1
4901784	198	C	12/05/2020	10:48	-133.986	43.616	0	1665.30	0	2.2760	0	37.3710	8	29.859	0	1645.427	0	37.5	4	11.6	4	-1E+10	1	-1E+10	1	-1E+10	1	-1E+10	1	-1E+10	1	-1E+10	1
4901784	198	C	12/05/2020	10:48	-133.986	43.616	0	1669.80	0	2.2730	0	37.3720	8	29.860	0	1649.855	0	37.7	4	11.7	4	-1E+10	1	-1E+10	1	-1E+10	1	-1E+10	1	-1E+10	1	-1E+10	1
4901784	198	C	12/05/2020	10:48	-133.986	43.616	0	1674.30	0	2.2680	0	37.3730	8	29.861	0	1654.284	0	38.0	4	11.8	4	-1E+10	1	-1E+10	1	-1E+10	1	-1E+10	1	-1E+10	1	-1E+10	1
4901784	198	C	12/05/2020	10:48	-133.986	43.616	0	1679.70	0	2.2640	0	37.3740	8	29.862	0	1659.598	0	38.2	4	11.8	4	-1E+10	1	-1E+10	1	-1E+10	1	-1E+10	1	-1E+10	1	-1E+10	1
4901784	198	C	12/05/2020	10:48	-133.986	43.616	0	1685.20	0	2.2590	0	37.3750	8	29.864	0	1665.011	0	38.4	4	11.9	4	-1E+10	1	-1E+10	1	-1E+10	1	-1E+10	1	-1E+10	1	-1E+10	1
4901784	198	C	12/05/2020	10:48	-133.986	43.616	0	1690.60	0	2.2550	0	37.3760	8	29.865	0	1670.325	0	38.7	4	12.0	4	-1E+10	1	-1E+10	1	-1E+10	1	-1E+10	1	-1E+10	1	-1E+10	1
4901784	198	C	12/05/2020	10:48	-133.986	43.616	0	1695.20	0	2.2490	0	37.3770	8	29.866	0	1674.852	0	39.0	4	12.1	4	-1E+10	1	-1E+10	1	-1E+10	1	-1E+10	1	-1E+10	1	-1E+10	1
4901784	198	C	12/05/2020	10:48	-133.986	43.616	0	1699.70	0	2.2430	0	37.3790	8	29.869	0	1679.280	0	39.3	4	12.2	4	-1E+10	1	-1E+10	1	-1E+10	1	-1E+10	1	-1E+10	1	-1E+10	1
4901784	198	C	12/05/2020	10:48	-133.986	43.616	0	1705.20	0	2.2370	0	37.3800	8	29.870	0	1684.692	0	39.7	4	12.3	4	-1E+10	1	-1E+10	1	-1E+10	1	-1E+10	1	-1E+10	1	-1E+10	1
4901784	198	C	12/05/2020	10:48	-133.986	43.616	0	1709.80	0	2.2290	0	37.3830	8	29.873	0	1689.218	0	40.0	4	12.4	4	-1E+10	1	-1E+10	1	-1E+10	1	-1E+10	1	-1E+10	1	-1E+10	1
4901784	198	C	12/05/2020	10:48	-133.986	43.616	0	1714.70	0	2.2270	0	37.3840	8	29.874	0	1694.040	0	40.3	4	12.5	4	-1E+10	1	-1E+10	1	-1E+10	1	-1E+10	1	-1E+10	1	-1E+10	1
4901784	198	C	12/05/2020	10:48	-133.986	43.616	0	1719.90	0	2.2210	0	37.3870	8	29.877	0	1699.156	0	40.7	4	12.6	4	-1E+10	1	-1E+10	1	-1E+10	1	-1E+10	1	-1E+10	1	-1E+10	1
4901784	198	C	12/05/2020	10:48	-133.986	43.616	0	1724.80	0	2.2130	0	37.3890	8	29.879	0	1703.978	0	41.1	4	12.7	4	-1E+10	1	-1E+10	1	-1E+10	1	-1E+10	1	-1E+10	1	-1E+10	1
4901784	198	C	12/05/2020	10:48	-133.986	43.616	0	1729.70	0	2.2090	0	37.3910	8	29.881	0	1708.799	0	41.4	4	12.8	4	-1E+10	1	-1E+10	1	-1E+10	1	-1E+10	1	-1E+10	1	-1E+10	1
4901784	198	C	12/05/2020	10:48	-133.986	43.616	0	1734.60	0	2.2040	0	37.3910	8	29.882	0	1713.620	0	41.9	4	13.0	4	-1E+10	1	-1E+10	1	-1E+10	1	-1E+10	1	-1E+10	1	-1E+10	1
4901784	198	C	12/05/2020	10:48	-133.986	43.616	0	1739.50	0	2.2000	0	37.3940	8	29.885	0	1718.441	0	42.4	4	13.1	4	-1E+10	1	-1E+10	1	-1E+10	1	-1E+10	1	-1E+10	1	-1E+10	1
4901784	198	C	12/05/2020	10:48	-133.986	43.616	0	1744.50	0	2.1940	0	37.3960	8	29.887	0	1723.360	0	42.8	4	13.3	4	-1E+10	1	-1E+10	1	-1E+10	1	-1E+10	1	-1E+10	1	-1E+10	1
4901784	198	C	12/05/2020	10:48	-133.986	43.616	0	1749.40	0	2.1840	0	37.3990	8	29.890	0	1728.181	0	43.4	4	13.4	4	-1E+10	1	-1E+10	1	-1E+10	1	-1E+10	1	-1E+10	1	-1E+10	1
4901784	198	C	12/05/2020	10:48	-133.986	43.616	0	1754.30	0	2.1710	0	37.4020	8	29.894	0	1733.001	0	43.8	4	13.5	4	-1E+10	1	-1E+10	1	-1E+10	1	-1E+10	1	-1E+10	1	-1E+10	1
4901784	198	C	12/05/2020	10:48	-133.986	43.616	0	1759.30	0	2.1670	0	37.4030	8	29.895	0	1737.920	0	44.1	4	13.7	4	-1E+10	1	-1E+10	1	-1E+10	1	-1E+10	1	-1E+10	1	-1E+10	1
4901784	198	C	12/05/2020	10:48	-133.986	43.616	0	1764.30	0	2.1580	0	37.4040	8	29.896	0	1742.839	0	44.7	4	13.8	4	-1E+10	1	-1E+10	1	-1E+10	1	-1E+10	1	-1E+10	1	-1E+10	1
4901784	198	C	12/05/2020	10:48	-133.986	43.616	0	1769.40	0	2.1480	0	37.4050	8	29.898	0	1747.856	0	45.1	4	14.0	4	-1E+10	1	-1E+10	1	-1E+10	1	-1E+10	1	-1E+10	1	-1E+10	1
4901784	198	C	12/05/2020	10:48	-133.986	43.616	0	1774.40	0	2.1400	0	37.4060	8	29.900	0	1752.774	0	45.4	4	14.0	4	-1E+10	1	-1E+10	1	-1E+10	1	-1E+10	1	-1E+10	1	-1E+10	1
4901784	198	C	12/05/2020	10:48	-133.986	43.616	0	1779.50	0	2.1310	8	37.4090	8	29.903	0	1757.791	0	45.8	4	14.2	4	-1E+10	1	-1E+10	1	-1E+10	1	-1E+10	1	-1E+10	1	-1E+10	1
4901784	198	C	12/05/2020	10:48	-133.986	43.616	0	1784.70	0	2.1230	8	37.3640	8	29.868	0	1762.906	0	46.1	4	14.3	4	-1E+10	1	-1E+10	1	-1E+10	1	-1E+10	1	-1E+10	1	-1E+10	1
4901784	198	C	12/05/2020	10:48	-133.986	43.616	0	1790.00	0	2.1160	0	37.4110	8	29.906	0	1768.119	0	46.4	4	14.3	4	-1E+10	1	-1E+10	1	-1E+10	1	-1E+10	1	-1E+10	1	-1E+10	1
4901784	198	C	12/05/2020	10:48	-133.986	43.616	0	1795.20	0	2.1100	0	37.4100	8	29.906	0	1773.234	0	46.7	4	14.4	4	-1E+10	1	-1E+10	1	-1E+10	1	-1E+10	1	-1E+10	1	-1E+10	1
4901784	198	C	12/05/2020	10:48	-133.986	43.616	0	1800.50	0	2.1040	0	37.4120	8	29.908	0	1778.447	0	47.0	4	14.5	4	-1E+10	1	-1E+10	1	-1E+10	1	-1E+10	1	-1E+10	1	-1E+10	1
4901784	198	C	12/05/2020	10:48	-133.986	43.616	0	1805.00	0	2.1010	0	37.4140	8	29.910	0	1782.873	0	47.3	4	14.6	4	-1E+10	1	-1E+10	1	-1E+10	1	-1E+10	1	-1E+10	1	-1E+10	1
4901784	198	C	12/05/2020	10:48	-133.986	43.616	0	1809.40	0	2.0920	0	37.4170	8	29.913	0	1787.200	0	47.6	4	14.7	4	-1E+10	1	-1E+10	1	-1E+10	1	-1E+10	1	-1E+10	1	-1E+10	1
4901784	198	C	12/05/2020	10:48	-133.986	43.616	0	1814.80	0	2.0870	0	37.4160	8	29.913	0	1792.511	0	47.8	4	14.8	4	-1E+10	1	-1E+10	1	-1E+10	1	-1E+10	1	-1E+10	1	-1E+10	1
4901784	198	C	12/05/2020	10:48	-133.986	43.616	0	1820.10	0	2.0870	0	37.4160	8	29.913	0	1797.724	0	47.9	4	14.8	4	-1E+10	1	-1E+10	1	-1E+10	1	-1E+10	1	-1E+10	1	-1E+10	1
4901784	198	C	12/05/2020	10:48	-133.986	43.616	0	1825.50	0	2.0830	0	37.4190	8	29.915	0	1803.035	0	48.3	4	14.9	4	-1E+10	1	-1E+10	1	-1E+10	1	-1E+10	1	-1E+10	1	-1E+10	1
4901784	198	C	12/05/2020	10:48	-133.986	43.616	0	1830.00	0	2.0790	0	37.4200	8	29.917	0	1807.460	0	48.6	4	15.0	4	-1E+10	1	-1E+10	1	-1E+10	1	-1E+10	1	-1E+10	1	-1E+10	1
4901784	198	C	12/05/2020	10:48	-133.986	43.616	0	1834.60	0	2.0720	0	37.4230	8	29.920	0	1811.984	0	48.9	4	15.1	4	-1E+10	1	-1E+10	1	-1E+10	1	-1E+10	1	-1E+10	1	-1E+10	1
4901784	198	C	12/05/2020	10:48	-133.986	43.616	0	1840.10	0	2.0660	0	37.4240	8	29.921	0	1817.392	0	49.2	4	15.2	4	-1E+10	1	-1E+10	1	-1E+10	1	-1E+10	1	-1E+10	1	-1E+10	1
4901784	198	C	12/05/2020	10:48	-133.986	43.616	0	1845.60	0	2.0630	0	37.4240	8	29.921	0	1822.801	0	49.6	4	15.3	4	-1E+10	1	-1E+10	1	-1E+10	1	-1E+10	1	-1E+10	1	-1E+10	1
4901784	198	C	12/05/2020	10:48	-133.986	43.616	0	1850.30	0	2.0580	0	37.4250	8	29.923	0	1827.423	0	49.8	4	15.4	4	-1E+10	1	-1E+10	1	-1E+10	1	-1E+10	1	-1E+10	1	-1E+10	1
4901784	198	C	12/05/2020	10:48	-133.986	43.616	0	1854.90	0	2.0540	0	37.4250	8	29.923	0	1831.946	0	50.1	4	15.5	4	-1E+10	1	-1E+10	1	-1E+10	1	-1E+10	1	-1E+10	1	-1E+10	1
4901784	198	C	12/05/2020	10:48	-133.986	43.616	0	1859.70	0	2.0490	0	37.4300	8	29.927	0	1836.666	0	50.4	4	15.5	4	-1E+10	1	-1E+10	1	-1E+10	1	-1E+10	1	-1E+10	1	-1E+10	1
4901784	198	C	12/05/2020	10:48	-133.986	43.616	0	1864.60	0	2.0470	0	37.4310	8	29.928	0	1841.484	0	50.6	4	15.6	4	-1E+10	1	-1E+10	1	-1E+10	1	-1E+10	1	-1E+10	1	-1E+10	1
4901784	198	C	12/05/2020	10:48	-133.986	43.616	0	1869.60	0	2.0430	0	37.4290	8	29.927	0	1846.400	0	50.8	4	15.7	4	-1E+10	1	-1E+10	1	-1E+10	1	-1E+10	1	-1E+10	1	-1E+10	1
4901784	198	C	12/05/2020	10:48	-133.986	43.616	0	1874.50	0	2.0370	0	37.4270	8	29.926	0	1851.218	0	51.1	4	15.8	4	-1E+10	1	-1E+10	1	-1E+10	1	-1E+10	1	-1E+10	1	-1E+10	1
4901784	198	C	12/05/2020	10:48	-133.986	43.616	0	1879.40	0	2.0330	0	37.4270	8	29.926	0	1856.036	0	51.5	4	15.9	4	-1E+10	1	-1E+10	1	-1E+10	1	-1E+10	1	-1E+10	1	-1E+10	1
4901784	198	C	12/05/2020	10:48	-133.986	43.616	0	1884.40	0	2.0280	0	37.4310	8	29.930	0	1860.952	0	51.9	4	16.0	4	-1E+10	1	-1E+10	1	-1E+10	1	-1E+10	1	-1E+10	1	-1E+10	1
4901784	198	C	12/05/2020	10:48	-133.986	43.616	0	1889.40	0	2.0240	0	37.4390	8	29.937	0	1865.868	0	52.2	4	16.1	4	-1E+10	1	-1E+10	1	-1E+10	1	-1E+10	1	-1E+10	1	-1E+10	1
4901784	198	C	12/05/2020	10:48	-133.986	43.616	0	1894.30	0	2.0200	0	37.4390	8	29.937	0	1870.685	0	52.6	4	16.2	4	-1E+10	1	-1E+10	1	-1E+10	1	-1E+10	1	-1E+10	1	-1E+10	1
4901784	198	C	12/05/2020	10:48	-133.986	43.616	0	1899.30	0	2.0150	0	37.4390	8	29.938	0	1875.601	0	53.0	4	16.4	4	-1E+10	1	-1E+10	1	-1E+10	1	-1E+10	1	-1E+10	1	-1E+10	1
4901784	198	C	12/05/2020	10:48	-133.986	43.616	0	1904.40	0	2.0040	0	37.4390	8	29.939	0	1880.615	0	53.5	4	16.5	4	-1E+10	1	-1E+10	1	-1E+10	1	-1E+10	1	-1E+10	1	-1E+10	1
4901784	198	C	12/05/2020	10:48	-133.986	43.616	0	1909.40	0	1.9980	0	37.4400	8	29.940	0	1885.530	0	53.9	4	16.6	4	-1E+10	1	-1E+10	1	-1E+10	1	-1E+10	1	-1E+10	1	-1E+10	1
4901784	198	C	12/05/2020	10:48	-133.986	43.616	0	1914.50	0	1.9930	0	37.4390	8	29.940	0	1890.544	0	54.3	4	16.7	4	-1E+10	1	-1E+10	1	-1E+10	1	-1E+10	1	-1E+10	1	-1E+10	1
4901784	198	C	12/05/2020	10:48	-133.986	43.616	0	1919.60	0	1.9890	0	37.4420	8	29.943	0	1895.557	0	54.6	4	16.8	4	-1E+10	1	-1E+10	1	-1E+10	1	-1E+10	1	-1E+10	1	-1E+10	1
4901784	198	C	12/05/2020	10:48	-133.986	43.616	0	1924.80	0	1.9840	0	37.4410	8	29.942	0	1900.669	0	54.9	4	16.9	4	-1E+10	1	-1E+10	1	-1E+10	1	-1E+10	1	-1E+10	1	-1E+10	1
4901784	198	C	12/05/2020	10:48	-133.986	43.616	0	1929.90	0	1.9800	0	37.4410	8	29.943	0	1905.682	0	55.3	4	17.0	4	-1E+10	1	-1E+10	1	-1E+10	1	-1E+10	1	-1E+10	1	-1E+10	1
4901784	198	C	12/05/2020	10:48	-133.986	43.616	0	1935.10	0	1.9750	0	37.4410	8	29.943	0	1910.794	0	55.7	4	17.2	4	-1E+10	1	-1E+10	1	-1E+10	1	-1E+10	1	-1E+10	1	-1E+10	1
4901784	198	C	12/05/2020	10:48	-133.986	43.616	0	1940.30	0	1.9700	0	37.4410	8	29.943	0	1915.905	0	56.1	4	17.3	4	-1E+10	1	-1E+10	1	-1E+10	1	-1E+10	1	-1E+10	1	-1E+10	1
4901784	198	C	12/05/2020	10:48	-133.986	43.616	0	1945.50	0	1.9670	0	37.4420	8	29.945	0	1921.016	0	56.5	4	17.4	4	-1E+10	1	-1E+10	1	-1E+10	1	-1E+10	1	-1E+10	1	-1E+10	1
4901784	198	C	12/05/2020	10:48	-133.986	43.616	0	1950.70	0	1.9620	0	37.4440	8	29.947	0	1926.127	0	56.8	4	17.5	4	-1E+10	1	-1E+10	1	-1E+10	1	-1E+10	1	-1E+10	1	-1E+10	1
4901784	198	C	12/05/2020	10:48	-133.986	43.616	0	1955.10	0	1.9570	0	37.4450	8	29.948	0	1930.452	0	57.1	4	17.6	4	-1E+10	1	-1E+10	1	-1E+10	1	-1E+10	1	-1E+10	1	-1E+10	1
4901784	198	C	12/05/2020	10:48	-133.986	43.616	0	1959.60	0	1.9540	0	37.4440	8	29.947	0	1934.875	0	57.3	4	17.6	4	-1E+10	1	-1E+10	1	-1E+10	1	-1E+10	1	-1E+10	1	-1E+10	1
4901784	198	C	12/05/2020	10:48	-133.986	43.616	0	1964.90	0	1.9520	0	37.4450	8	29.948	0	1940.084	0	57.6	4	17.7	4	-1E+10	1	-1E+10	1	-1E+10	1	-1E+10	1	-1E+10	1	-1E+10	1
4901784	198	C	12/05/2020	10:48	-133.986	43.616	0	1970.20	0	1.9460	0	37.4470	8	29.951	0	1945.293	0	58.0	4	17.8	4	-1E+10	1	-1E+10	1	-1E+10	1	-1E+10	1	-1E+10	1	-1E+10	1
4901784	198	C	12/05/2020	10:48	-133.986	43.616	0	1975.50	0	1.9410	0	37.4510	8	29.954	0	1950.501	0	58.2	4	17.9	4	-1E+10	1	-1E+10	1	-1E+10	1	-1E+10	1	-1E+10	1	-1E+10	1
4901784	198	C	12/05/2020	10:48	-133.986	43.616	0	1980.00	0	1.9410	0	37.4490	8	29.953	0	1954.924	0	58.3	4	18.0	4	-1E+10	1	-1E+10	1	-1E+10	1	-1E+10	1	-1E+10	1	-1E+10	1
4901784	198	C	12/05/2020	10:48	-133.986	43.616	0	1984.40	0	1.9390	0	37.4510	8	29.954	0	1959.248	0	58.5	4	18.0	4	-1E+10	1	-1E+10	1	-1E+10	1	-1E+10	1	-1E+10	1	-1E+10	1
4901784	198	C	12/05/2020	10:48	-133.986	43.616	0	1989.60	0	1.9360	0	37.4510	8	29.955	0	1964.358	0	58.7	4	18.1	4	-1E+10	1	-1E+10	1	-1E+10	1	-1E+10	1	-1E+10	1	-1E+10	1
4901784	198	C	12/05/2020	10:48	-133.986	43.616	0	1995.00	0	1.9320	0	37.4540	8	29.958	0	1969.665	0	59.0	4	18.1	4	-1E+10	1	-1E+10	1	-1E+10	1	-1E+10	1	-1E+10	1	-1E+10	1
4901784	198	C	12/05/2020	10:48	-133.986	43.616	0	2000.50	0	1.9290	0	37.4580	8	29.961	0	1975.069	0	59.2	4	18.2	4	-1E+10	1	-1E+10	1	-1E+10	1	-1E+10	1	-1E+10	1	-1E+10	1
4901784	198	C	12/05/2020	10:48	-133.986	43.616	0	2004.60	0	1.9250	0	37.4560	8	29.960	0	1979.098	0	59.4	4	18.3	4	-1E+10	1	-1E+10	1	-1E+10	1	-1E+10	1	-1E+10	1	-1E+10	1
4901784	198	C	12/05/2020	10:48	-133.986	43.616	0	2010.30	0	1.9220	0	37.4580	8	29.962	0	1984.699	0	59.5	4	18.3	4	-1E+10	1	-1E+10	1	-1E+10	1	-1E+10	1	-1E+10	1	-1E+10	1
4901784	198	C	12/05/2020	10:48	-133.986	43.616	0	2014.90	0	1.9200	0	37.4570	8	29.961	0	1989.219	0	58.2	4	17.9	4	-1E+10	1	-1E+10	1	-1E+10	1	-1E+10	1	-1E+10	1	-1E+10	1
4901784	198	C	12/05/2020	10:48	-133.986	43.616	0																										
4901784	199	C	12/15/2020	10:42	-134.115	43.605	0	2.30	0	13.7380	0	35.0360	8	26.271	0	2.282	0	242.8	4	95.6	4	-1E+10	1	-1E+10	1	-1E+10	1	-1E+10	1	-1E+10	1	-1E+10	1
4901784	199	C	12/15/2020	10:42	-134.115	43.605	0	3.40	0	13.7390	0	35.0110	8	26.251	0	3.373	0	242.9	4	95.6	4	-1E+10	1	-1E+10	1	-1E+10	1	-1E+10	1	-1E+10	1	-1E+10	1
4901784	199	C	12/15/2020	10:42	-134.115	43.605	0	4.70	0	13.7420	0	35.0180	8	26.256	0	4.662	0	242.7	4	95.5	4	-1E+10	1	-1E+10	1	-1E+10	1	-1E+10	1	-1E+10	1	-1E+10	1
4901784	199	C	12/15/2020	10:42	-134.115	43.605	0	6.10	0	13.7430	0	35.0110	8	26.250	0	6.051	0	242.8	4	95.6	4	-1E+10	1	-1E+10	1	-1E+10	1	-1E+10	1	-1E+10	1	-1E+10	1
4901784	199	C	12/15/2020	10:42	-134.115	43.605	0	7.80	0	13.7480	0	35.0070	8	26.246	0	7.738	0	242.8	4	95.6	4	-1E+10	1	-1E+10	1	-1E+10	1	-1E+10	1	-1E+10	1	-1E+10	1
4901784	199	C	12/15/2020	10:42	-134.115	43.605	0	9.70	0	13.7510	0	35.0130	8	26.250	0	9.622	0	242.7	4	95.6	4	-1E+10	1	-1E+10	1	-1E+10	1	-1E+10	1	-1E+10	1	-1E+10	1
4901784	199	C	12/15/2020	10:42	-134.115	43.605	0	11.90	0	13.7520	0	35.0130	8	26.250	0	11.805	0	242.6	4	95.5	4	-1E+10	1	-1E+10	1	-1E+10	1	-1E+10	1	-1E+10	1	-1E+10	1
4901784	199	C	12/15/2020	10:42	-134.115	43.605	0	14.20	0	13.7510	0	35.0170	8	26.254	0	14.086	0	242.5	4	95.5	4	-1E+10	1	-1E+10	1	-1E+10	1	-1E+10	1	-1E+10	1	-1E+10	1
4901784	199	C	12/15/2020	10:42	-134.115	43.605	0	16.40	0	13.7530	0	35.0210	8	26.256	0	16.268	0	242.4	4	95.4	4	-1E+10	1	-1E+10	1	-1E+10	1	-1E+10	1	-1E+10	1	-1E+10	1
4901784	199	C	12/15/2020	10:42	-134.115	43.605	0	18.80	0	13.7540	0	35.0160	8	26.252	0	18.649	0	242.4	4	95.4	4	-1E+10	1	-1E+10	1	-1E+10	1	-1E+10	1	-1E+10	1	-1E+10	1
4901784	199	C	12/15/2020	10:42	-134.115	43.605	0	21.30	0	13.7530	0	35.0230	8	26.258	0	21.129	0	242.3	4	95.4	4	-1E+10	1	-1E+10	1	-1E+10	1	-1E+10	1	-1E+10	1	-1E+10	1
4901784	199	C	12/15/2020	10:42	-134.115	43.605	0	23.80	0	13.7540	0	35.0200	8	26.255	0	23.608	0	242.3	4	95.4	4	-1E+10	1	-1E+10	1	-1E+10	1	-1E+10	1	-1E+10	1	-1E+10	1
4901784	199	C	12/15/2020	10:42	-134.115	43.605	0	26.00	0	13.7530	0	35.0220	8	26.257	0	25.791	0	242.4	4	95.4	4	-1E+10	1	-1E+10	1	-1E+10	1	-1E+10	1	-1E+10	1	-1E+10	1
4901784	199	C	12/15/2020	10:42	-134.115	43.605	0	28.20	0	13.7530	0	35.0240	8	26.259	0	27.973	0	242.3	4	95.4	4	-1E+10	1	-1E+10	1	-1E+10	1	-1E+10	1	-1E+10	1	-1E+10	1
4901784	199	C	12/15/2020	10:42	-134.115	43.605	0	30.40	0	13.7530	0	35.0250	8	26.260	0	30.155	0	242.4	4	95.4	4	-1E+10	1	-1E+10	1	-1E+10	1	-1E+10	1	-1E+10	1	-1E+10	1
4901784	199	C	12/15/2020	10:42	-134.115	43.605	0	32.40	0	13.7550	0	35.0270	8	26.261	0	32.139	0	242.2	4	95.4	4	-1E+10	1	-1E+10	1	-1E+10	1	-1E+10	1	-1E+10	1	-1E+10	1
4901784	199	C	12/15/2020	10:42	-134.115	43.605	0	34.60	0	13.7560	0	35.0230	8	26.258	0	34.321	0	242.1	4	95.3	4	-1E+10	1	-1E+10	1	-1E+10	1	-1E+10	1	-1E+10	1	-1E+10	1
4901784	199	C	12/15/2020	10:42	-134.115	43.605	0	36.70	0	13.7550	0	35.0250	8	26.260	0	36.404	0	242.0	4	95.3	4	-1E+10	1	-1E+10	1	-1E+10	1	-1E+10	1	-1E+10	1	-1E+10	1
4901784	199	C	12/15/2020	10:42	-134.115	43.605	0	38.90	0	13.7540	0	35.0210	8	26.257	0	38.586	0	242.0	4	95.3	4	-1E+10	1	-1E+10	1	-1E+10	1	-1E+10	1	-1E+10	1	-1E+10	1
4901784	199	C	12/15/2020	10:42	-134.115	43.605	0	41.00	0	13.7540	0	35.0210	8	26.257	0	40.668	0	241.9	4	95.2	4	-1E+10	1	-1E+10	1	-1E+10	1	-1E+10	1	-1E+10	1	-1E+10	1
4901784	199	C	12/15/2020	10:42	-134.115	43.605	0	43.00	0	13.7550	0	35.0190	8	26.255	0	42.652	0	241.7	4	95.2	4	-1E+10	1	-1E+10	1	-1E+10	1	-1E+10	1	-1E+10	1	-1E+10	1
4901784	199	C	12/15/2020	10:42	-134.115	43.605	0	45.00	0	13.7560	0	35.0200	8	26.256	0	44.636	0	241.8	4	95.2	4	-1E+10	1	-1E+10	1	-1E+10	1	-1E+10	1	-1E+10	1	-1E+10	1
4901784	199	C	12/15/2020	10:42	-134.115	43.605	0	46.80	0	13.7560	0	35.0220	8	26.257	0	46.421	0	241.6	4	95.1	4	-1E+10	1	-1E+10	1	-1E+10	1	-1E+10	1	-1E+10	1	-1E+10	1
4901784	199	C	12/15/2020	10:42	-134.115	43.605	0	49.10	0	13.7580	0	35.0250	8	26.259	0	48.702	0	241.6	4	95.1	4	-1E+10	1	-1E+10	1	-1E+10	1	-1E+10	1	-1E+10	1	-1E+10	1
4901784	199	C	12/15/2020	10:42	-134.115	43.605	0	50.80	0	13.7560	0	35.0250	8	26.260	0	50.388	0	241.8	4	95.2	4	-1E+10	1	-1E+10	1	-1E+10	1	-1E+10	1	-1E+10	1	-1E+10	1
4901784	199	C	12/15/2020	10:42	-134.115	43.605	0	52.20	0	13.7570	0	35.0260	8	26.260	0	51.776	0	241.6	4	95.1	4	-1E+10	1	-1E+10	1	-1E+10	1	-1E+10	1	-1E+10	1	-1E+10	1
4901784	199	C	12/15/2020	10:42	-134.115	43.605	0	53.50	0	13.7560	0	35.0290	8	26.263	0	53.066	0	241.3	4	95.0	4	-1E+10	1	-1E+10	1	-1E+10	1	-1E+10	1	-1E+10	1	-1E+10	1
4901784	199	C	12/15/2020	10:42	-134.115	43.605	0	54.80	0	13.7560	0	35.0270	8	26.261	0	54.355	0	241.2	4	95.0	4	-1E+10	1	-1E+10	1	-1E+10	1	-1E+10	1	-1E+10	1	-1E+10	1
4901784	199	C	12/15/2020	10:42	-134.115	43.605	0	56.20	0	13.7550	0	35.0270	8	26.262	0	55.743	0	241.4	4	95.0	4	-1E+10	1	-1E+10	1	-1E+10	1	-1E+10	1	-1E+10	1	-1E+10	1
4901784	199	C	12/15/2020	10:42	-134.115	43.605	0	57.60	0	13.7560	0	35.0270	8	26.261	0	57.132	0	240.9	4	94.9	4	-1E+10	1	-1E+10	1	-1E+10	1	-1E+10	1	-1E+10	1	-1E+10	1
4901784	199	C	12/15/2020	10:42	-134.115	43.605	0	59.10	0	13.7570	0	35.0270	8	26.261	0	58.619	0	241.2	4	95.0	4	-1E+10	1	-1E+10	1	-1E+10	1	-1E+10	1	-1E+10	1	-1E+10	1
4901784	199	C	12/15/2020	10:42	-134.115	43.605	0	60.80	0	13.7570	0	35.0240	8	26.259	0	60.305	0	240.6	4	94.8	4	-1E+10	1	-1E+10	1	-1E+10	1	-1E+10	1	-1E+10	1	-1E+10	1
4901784	199	C	12/15/2020	10:42	-134.115	43.605	0	62.50	0	13.7540	0	35.0250	8	26.260	0	61.991	0	240.5	4	94.7	4	-1E+10	1	-1E+10	1	-1E+10	1	-1E+10	1	-1E+10	1	-1E+10	1
4901784	199	C	12/15/2020	10:42	-134.115	43.605	0	64.30	0	13.7560	0	35.0240	8	26.259	0	63.776	0	240.5	4	94.7	4	-1E+10	1	-1E+10	1	-1E+10	1	-1E+10	1	-1E+10	1	-1E+10	1
4901784	199	C	12/15/2020	10:42	-134.115	43.605	0	66.10	0	13.7570	0	35.0230	8	26.258	0	65.561	0	240.3	4	94.6	4	-1E+10	1	-1E+10	1	-1E+10	1	-1E+10	1	-1E+10	1	-1E+10	1
4901784	199	C	12/15/2020	10:42	-134.115	43.605	0	67.90	0	13.7570	0	35.0210	8	26.257	0	67.346	0	240.2	4	94.6	4	-1E+10	1	-1E+10	1	-1E+10	1	-1E+10	1	-1E+10	1	-1E+10	1
4901784	199	C	12/15/2020	10:42	-134.115	43.605	0	69.50	0	13.7570	0	35.0180	8	26.255	0	68.933	0	240.0	4	94.5	4	-1E+10	1	-1E+10	1	-1E+10	1	-1E+10	1	-1E+10	1	-1E+10	1
4901784	199	C	12/15/2020	10:42	-134.115	43.605	0	71.30	0	13.7210	0	35.0160	8	26.261	0	70.718	0	239.8	4	94.4	4	-1E+10	1	-1E+10	1	-1E+10	1	-1E+10	1	-1E+10	1	-1E+10	1
4901784	199	C	12/15/2020	10:42	-134.115	43.605	0	73.00	0	13.7220	0	35.0070	8	26.254	0	72.404	0	239.9	4	94.4	4	-1E+10	1	-1E+10	1	-1E+10	1	-1E+10	1	-1E+10	1	-1E+10	1
4901784	199	C	12/15/2020	10:42	-134.115	43.605	0	74.70	0	13.6900	0	34.9990	8	26.254	0	74.090	0	239.7	4	94.3	4	-1E+10	1	-1E+10	1	-1E+10	1	-1E+10	1	-1E+10	1	-1E+10	1
4901784	199	C	12/15/2020	10:42	-134.115	43.605	0	76.30	0	13.4780	0	35.0030	8	26.301	0	75.676	0	240.0	4	94.0	4	-1E+10	1	-1E+10	1	-1E+10	1	-1E+10	1	-1E+10	1	-1E+10	1
4901784	199	C	12/15/2020	10:42	-134.115	43.605	0	78.30	0	13.3430	0	34.9920	8	26.320	0	77.660	0	240.5	4	93.9	4	-1E+10	1	-1E+10	1	-1E+10	1	-1E+10	1	-1E+10	1	-1E+10	1
4901784	199	C	12/15/2020	10:42	-134.115	43.605	0	78.80	0	13.1660	0	35.0100	8	26.370	0	78.155	0	240.7	4	93.7	4	-1E+10	1	-1E+10	1	-1E+10	1	-1E+10	1	-1E+10	1	-1E+10	1
4901784	199	C	12/15/2020	10:42	-134.115	43.605	0	80.20	0	12.8940	0	35.0060	8	26.422	0	79.544	0	242.3	4	93.8	4	-1E+10	1	-1E+10	1	-1E+10	1	-1E+10	1	-1E+10	1	-1E+10	1
4901784	199	C	12/15/2020	10:42	-134.115	43.605	0	81.70	0	12.4480	0	35.0290	8	26.528	0	81.031	0	244.1	4	93.6	4	-1E+10	1	-1E+10	1	-1E+10	1	-1E+10	1	-1E+10	1	-1E+10	1
4901784	199	C	12/15/2020	10:42	-134.115	43.605	0	83.10	0	12.1910	0	35.0330	8	26.581	0	82.419	0	244.4	4	93.2	4	-1E+10	1	-1E+10	1	-1E+10	1	-1E+10	1	-1E+10	1	-1E+10	1
4901784	199	C	12/15/2020	10:42	-134.115	43.605	0	84.70	0	11.8050	0	35.0500	8	26.668	0	84.006	0	245.3	4	92.8	4	-1E+10	1	-1E+10	1	-1E+10	1	-1E+10	1	-1E+10	1	-1E+10	1
4901784	199	C	12/15/2020	10:42	-134.115	43.605	0	86.20	0	11.5360	0	35.0620	8	26.728	0	85.493	0	246.4	4	92.7	4	-1E+10	1	-1E+10	1	-1E+10	1	-1E+10	1	-1E+10	1	-1E+10	1
4901784	199	C	12/15/2020	10:42	-134.115	43.605	0	87.90	0	11.3450	0	35.0550	8	26.758	0	87.179	0	246.8	4	92.5	4	-1E+10	1	-1E+10	1	-1E+10	1	-1E+10	1	-1E+10	1	-1E+10	1
4901784	199	C	12/15/2020	10:42	-134.115	43.605	0	89.50	0	11.0800	0	35.0790	8	26.825	0	88.766	0	246.5	4	91.9	4	-1E+10	1	-1E+10	1	-1E+10	1	-1E+10	1	-1E+10	1	-1E+10	1
4901784	199	C	12/15/2020	10:42	-134.115	43.605	0	91.10	0	10.7750	0	35.0910	8	26.890	0	90.352	0	247.3	4	91.6	4	-1E+10	1	-1E+10	1	-1E+10	1	-1E+10	1	-1E+10	1	-1E+10	1
4901784	199	C	12/15/2020	10:42	-134.115	43.605	0	92.80	0	10.5590	0	35.0930	8	26.930	0	92.038	0	247.4	4	91.2	4	-1E+10	1	-1E+10	1	-1E+10	1	-1E+10	1	-1E+10	1	-1E+10	1
4901784	199	C	12/15/2020	10:42	-134.115	43.605	0	94.60	0	10.4260	0	35.1110	8	26.967	0	93.823	0	246.6	4	90.7	4	-1E+10	1	-1E+10	1	-1E+10	1	-1E+10	1	-1E+10	1	-1E+10	1
4901784	199	C	12/15/2020	10:42	-134.115	43.605	0	96.30	0	10.2820	0	35.1010	8	26.985	0	95.508	0	247.2	4	90.6	4	-1E+10	1	-1E+10	1	-1E+10	1	-1E+10	1	-1E+10	1	-1E+10	1
4901784	199	C	12/15/2020	10:42	-134.115	43.605	0	98.10	0	10.2670	0	35.1080	8	26.993	0	97.293	0	246.7	4	90.4	4	-1E+10	1	-1E+10	1	-1E+10	1	-1E+10	1	-1E+10	1	-1E+10	1
4901784	199	C	12/15/2020	10:42	-134.115	43.605	0	99.90	0	10.2500	0	35.1050	8	26.993	0	99.078	0	246.3	4	90.2	4	-1E+10	1	-1E+10	1	-1E+10	1	-1E+10	1	-1E+10	1	-1E+10	1
4901784	199	C	12/15/2020	10:42	-134.115	43.605	0	102.50	0	10.1950	0	35.1080	8	27.005	0	101.656	0	245.5	4	89.8	4	-1E+10	1	-1E+10	1	-1E+10	1	-1E+10	1	-1E+10	1	-1E+10	1
4901784	199	C	12/15/2020	10:42	-134.115	43.605	0	105.10	0	10.1700	0	35.1210	8	27.020	0	104.234	0	244.9	4	89.6	4	-1E+10	1	-1E+10	1	-1E+10	1	-1E+10	1	-1E+10	1	-1E+10	1
4901784	199	C	12/15/2020	10:42	-134.115	43.605	0	107.70	0	10.0410	0	35.1110	8	27.034	0	106.812	0	245.0	4	89.4	4	-1E+10	1	-1E+10	1	-1E+10	1	-1E+10	1	-1E+10	1	-1E+10	1
4901784	199	C	12/15/2020	10:42	-134.115	43.605	0	110.30	0	10.0590	0	35.1290	8	27.045	0	109.390	0	244.3	4	89.2	4	-1E+10	1	-1E+10	1	-1E+10	1	-1E+10	1	-1E+10	1	-1E+10	1
4901784	199	C	12/15/2020	10:42	-134.115	43.605	0	112.10	0	10.0600	0	35.1390	8	27.053	0	111.174	0	244.0	4	89.1	4	-1E+10	1	-1E+10	1	-1E+10	1	-1E+10	1	-1E+10	1	-1E+10	1
4901784	199	C	12/15/2020	10:42	-134.115	43.605	0	114.90	0	9.9390	0	35.1340	8	27.070	0	113.950	0	244.1	4	88.9	4	-1E+10	1	-1E+10	1	-1E+10	1	-1E+10	1	-1E+10	1	-1E+10	1
4901784	199	C	12/15/2020	10:42	-134.115	43.605	0	117.70	0	9.7740	0	35.1110	8	27.080	0	116.726	0	244.4	4	88.6	4	-1E+10	1	-1E+10	1	-1E+10	1	-1E+10	1	-1E+10	1	-1E+10	1
4901784	199	C	12/15/2020	10:42	-134.115	43.605	0	119.60	0	9.7270	0	35.1350	8	27.107	0	118.610	0	243.8	4	88.3	4	-1E+10	1	-1E+10	1	-1E+10	1	-1E+10	1	-1E+10	1	-1E+10	1
4901784	199	C	12/15/2020	10:42	-134.115	43.605	0	122.50	0	9.6670	0	35.1400	8	27.121	0	121.485	0	243.0	4	87.9	4	-1E+10	1	-1E+10	1	-1E+10	1	-1E+10	1	-1E+10	1	-1E+10	1
4901784	199	C	12/15/2020	10:42	-134.115	43.605	0	125.30	0	9.6370	0	35.1760	8	27.154	0	124.261	0	241.4	4	87.3	4	-1E+10	1	-1E+10	1	-1E+10	1	-1E+10	1	-1E+10	1	-1E+10	1
4901784	199	C	12/15/2020	10:42	-134.115	43.605	0	127.20	0	9.6180	0	35.1900	8	27.168	0	126.145	0	240.2	4	86.9	4	-1E+10	1	-1E+10	1	-1E+10	1	-1E+10	1	-1E+10	1	-1E+10	1
4901784	199	C	12/15/2020	10:42	-134.115	43.605	0	129.10	0	9.5870	0	35.1870	8	27.171	0	128.028	0	239.0	4	86.4	4	-1E+10	1	-1E+10	1	-1E+10	1	-1E+10	1	-1E+10	1	-1E+10	1
4901784	199	C	12/15/2020	10:42	-134.115	43.605	0	132.30	0	9.4420	0	35.2040	8	27.208	0	131.201	0	236.6	4	85.3	4	-1E+10	1	-1E+10	1	-1E+10	1	-1E+10	1	-1E+10	1	-1E+10	1
4901784	199	C	12/15/2020	10:42	-134.115	43.605	0	135.20	0	9.4780	0	35.2820	8	27.264	0	134.076	0	232.3	4	83.8	4	-1E+10	1	-1E+10	1	-1E+10	1	-1E+10	1	-1E+10	1	-1E+10	1
4901784	199	C	12/15/2020	10:42	-134.115	43.605	0	137.60	0	9.4270	0	35.3120	8	27.296	0	136.455	0	229.9	4	82.9	4	-1E+10	1	-1E+10	1	-1E+10	1	-1E+10	1	-1E+10	1	-1E+10	1
4901784	199	C	12/15/2020	10:42	-134.115	43.605	0	140.00	0	9.4030	0	35.3250	8	27.310	0	138.834	0	226.9	4	81.8	4	-1E+10	1	-1E+10	1	-1E+10	1	-1E+10	1	-1E+10	1	-1E+10	1
4901784	199	C	12/15/2020	10:42	-134.115	43.605	0	142.30	0	9.3530	0	35.3570	8	27.343	0	141.114	0	223.1	4	80.3	4	-1E+10	1	-1E+10	1	-1E+10	1	-1E+10	1	-1E+10	1	-1E+10	1
4901784	199	C	12/15/2020	10:42	-134.115	43.605	0	144.80	0	9.2080	0	35.4430	8	27.434	0	143.593	0	219.5	4	78.8	4	-1E+10	1	-1E+10	1	-1E+10	1	-1E+10	1	-1E+10	1	-1E+10	1
4901784	199	C	12/15/2020	10:42	-134.115	43.605	0	147.40	0	9.0680	0	35.5080	8	27.508	0	146.170	0	217.3	4	77.8	4	-1E+10	1	-1E+10	1	-1E+10	1	-1E+10	1	-1E+10	1	-1E+10	1
4901784	199	C	12/15/2020	10:42	-134.115	43.605	0	150.00	0	8.9940	0	35.5260	8	27.534	0	148.747	0	215.2	4	77.0	4	-1E+10	1	-1E+10	1	-1E+10	1	-1E+10	1	-1E+10	1	-1E+10	1
4901784	199	C	12/15/2020	10:42	-134.115	43.605	0	152.10	0	8.9010	0	35.5600	8	27.576	0	150.829	0	212.7	4	75.9	4	-1E+10	1	-1E+10	1	-1E+10	1	-1E+10	1	-1E+10	1	-1E+10	1
4901784	199	C	12/15/2020	10:42	-134.115	43.605	0	154.80	0	8.7200	0	35.6550	8	27.679	0	153.506	0	210.4	4	74.9	4	-1E+10	1	-1E+10	1	-1E+10	1	-1E+10	1	-1E+10	1	-1E+10	1
4901784	199	C	12/15/2020	10:42	-134.115	43.605	0	157.90	0	8.6320	0	35.7120	8	27.738	0	156.579	0	207.9	4	73.9	4	-1E+10	1	-1E+10	1	-1E+10	1	-1E+10	1	-1E+10	1	-1E+10	1
4901784	199	C	12/15/2020	10:42	-134.115	43.605	0	160.20	0	8.5830	0	35.7420	8	27.769	0	158.858	0	206.1	4	73.2	4	-1E+10	1	-1E+10	1	-1E+10	1	-1E+10	1	-1E+10	1	-1E+10	1
4901784	199	C	12/15/2020	10:42	-134.115	43.605	0	162.60	0	8.4820	0	35.8220	8	27.848	0	161.237	0	204.3	4	72.4	4	-1E+10	1	-1E+10	1	-1E+10	1	-1E+10	1	-1E+10	1	-1E+10	1
4901784	199	C	12/15/2020	10:42	-134.115	43.605	0	165.10	0	8.4140	0	35.8700	8	27.897	0	163.715	0	202.9	4	71.8	4	-1E+10	1	-1E+10	1	-1E+10	1	-1E+10	1	-1E+10	1	-1E+10	1
4901784	199	C	12/15/2020	10:42	-134.115	43.605	0	167.60	0	8.3390	0	35.9100	8	27.940	0	166.193	0	201.2	4	71.1	4	-1E+10	1	-1E+10	1	-1E+10	1	-1E+10	1	-1E+10	1	-1E+10	1
4901784	199	C	12/15/2020	10:42	-134.115	43.605	0	170.20	0	8.2770	0	35.9700	8	27.996	0	168.771	0	199.4	4	70.4	4	-1E+10	1	-1E+10	1	-1E+10	1	-1E+10	1	-1E+10	1	-1E+10	1
4901784	199	C	12/15/2020	10:42	-134.115	43.605	0	172.70	0	8.1870	0	36.0290	8	28.057	0	171.249	0	197.3	4	69.6	4	-1E+10	1	-1E+10	1	-1E+10	1	-1E+10	1	-1E+10	1	-1E+10	1
4901784	199	C	12/15/2020	10:42	-134.115	43.605	0	175.40	0	8.0910	0	36.0650	8	28.100	0	173.925	0	196.1	4	69.0	4	-1E+10	1	-1E+10	1	-1E+10	1	-1E+10	1	-1E+10	1	-1E+10	1
4901784	199	C	12/15/2020	10:42	-134.115	43.605	0	177.10	0	8.0660	0	36.1010	8	28.132	0	175.610	0	194.9	4	68.6	4	-1E+10	1	-1E+10	1	-1E+10	1	-1E+10	1	-1E+10	1	-1E+10	1
4901784	199	C	12/15/2020	10:42	-134.115	43.605	0	179.80	0	8.0520	0	36.1390	8	28.164	0	178.286	0	194.7	4	68.5	4	-1E+10	1	-1E+10	1	-1E+10	1	-1E+10	1	-1E+10	1	-1E+10	1
4901784	199	C	12/15/2020	10:42	-134.115	43.605	0	182.90	0	7.9870	0	36.1560	8	28.187	0	181.358	0	196.5	4	69.1	4	-1E+10	1	-1E+10	1	-1E+10	1	-1E+10	1	-1E+10	1	-1E+10	1
4901784	199	C	12/15/2020	10:42	-134.115	43.605	0	185.30	0	7.9430	0	36.2140	8	28.240	0	183.737	0	196.6	4	69.0	4	-1E+10	1	-1E+10	1	-1E+10	1	-1E+10	1	-1E+10	1	-1E+10	1
4901784	199	C	12/15/2020	10:42	-134.115	43.605	0	187.50	0	7.9260	0	36.2310	8	28.256	0	185.917	0	195.8	4	68.7	4	-1E+10	1	-1E+10	1	-1E+10	1	-1E+10	1	-1E+10	1	-1E+10	1
4901784	199	C	12/15/2020	10:42	-134.115	43.605	0	189.70	0	7.9090	0	36.2530	8	28.276	0	188.098	0	194.9	4	68.4	4	-1E+10	1	-1E+10	1	-1E+10	1	-1E+10	1	-1E+10	1	-1E+10	1
4901784	199	C	12/15/2020	10:42	-134.115	43.605	0	192.70	0	7.8110	0	36.2810	8	28.313	0	191.071	0	193.0	4	67.6	4	-1E+10	1	-1E+10	1	-1E+10	1	-1E+10	1	-1E+10	1	-1E+10	1
4901784	199	C	12/15/2020	10:42	-134.115	43.605	0	195.00	0	7.7610	0	36.3240	8	28.354	0	193.351	0	190.6	4	66.7	4	-1E+10	1	-1E+10	1	-1E+10	1	-1E+10	1	-1E+10	1	-1E+10	1
4901784	199	C	12/15/2020	10:42	-134.115	43.605	0	197.40	0	7.7140	0	36.3510	8	28.382	0	195.729	0	192.2	4	67.2	4	-1E+10	1	-1E+10	1	-1E+10	1	-1E+10	1	-1E+10	1	-1E+10	1
4901784	199	C	12/15/2020	10:42	-134.115	43.605	0	199.70	0	7.6530	0	36.3930	8	28.425	0	198.009	0	191.8	4	67.0	4	-1E+10	1	-1E+10	1	-1E+10	1	-1E+10	1	-1E+10	1	-1E+10	1
4901784	199	C	12/15/2020	10:42	-134.115	43.605	0	202.20	0	7.6250	0	36.4190	8	28.449	0	200.486	0	191.0	4	66.7	4	-1E+10	1	-1E+10	1	-1E+10	1	-1E+10	1	-1E+10	1	-1E+10	1
4901784	199	C	12/15/2020	10:42	-134.115	43.605	0	204.70	0	7.6180	0	36.4200	8	28.451	0	202.964	0	190.3	4	66.5	4	-1E+10	1	-1E+10	1	-1E+10	1	-1E+10	1	-1E+10	1	-1E+10	1
4901784	199	C	12/15/2020	10:42	-134.115	43.605	0	207.10	0	7.6280	0	36.4560	8	28.478	0	205.342	0	189.1	4	66.1	4	-1E+10	1	-1E+10	1	-1E+10	1	-1E+10	1	-1E+10	1	-1E+10	1
4901784	199	C	12/15/2020	10:42	-134.115	43.605	0	209.60	0	7.6020	0	36.4740	8	28.496	0	207.820	0	187.5	4	65.5	4	-1E+10	1	-1E+10	1	-1E+10	1	-1E+10	1	-1E+10	1	-1E+10	1
4901784	199	C	12/15/2020	10:42	-134.115	43.605	0	212.20	0	7.6030	0	36.4980	8	28.515	0	210.396	0	185.2	4	64.7	4	-1E+10	1	-1E+10	1	-1E+10	1	-1E+10	1	-1E+10	1	-1E+10	1
4901784	199	C	12/15/2020	10:42	-134.115	43.605	0	214.70	0	7.5900	0	36.5170	8	28.532	0	212.874	0	182.4	4	63.7	4	-1E+10	1	-1E+10	1	-1E+10	1	-1E+10	1	-1E+10	1	-1E+10	1
4901784	199	C	12/15/2020	10:42	-134.115	43.605	0	217.30	0	7.6020	0	36.5480	8	28.554	0	215.450	0	180.8	4	63.2	4	-1E+10	1	-1E+10	1	-1E+10	1	-1E+10	1	-1E+10	1	-1E+10	1
4901784	199	C	12/15/2020	10:42	-134.115	43.605	0	219.80	0	7.6000	0	36.5520	8	28.558	0	217.928	0	179.2	4	62.6	4	-1E+10	1	-1E+10	1	-1E+10	1	-1E+10	1	-1E+10	1	-1E+10	1
4901784	199	C	12/15/2020	10:42	-134.115	43.605	0	222.30	0	7.6100	0	36.5620	8	28.564	0	220.405	0	176.5	4	61.7	4	-1E+10	1	-1E+10	1	-1E+10	1	-1E+10	1	-1E+10	1	-1E+10	1
4901784	199	C	12/15/2020	10:42	-134.115	43.605	0	224.80	0	7.6080	0	36.5710	8	28.572	0	222.883	0	173.2	4	60.5	4	-1E+10	1	-1E+10	1	-1E+10	1	-1E+10	1	-1E+10	1	-1E+10	1
4901784	199	C	12/15/2020	10:42	-134.115	43.605	0	227.40	0	7.5680	0	36.5900	8	28.593	0	225.459	0	170.9	4	59.7	4	-1E+10	1	-1E+10	1	-1E+10	1	-1E+10	1	-1E+10	1	-1E+10	1
4901784	199	C	12/15/2020	10:42	-134.115	43.605	0	230.00	0	7.5650	0	36.6150	8	28.613	0	228.035	0	168.8	4	59.0	4	-1E+10	1	-1E+10	1	-1E+10	1	-1E+10	1	-1E+10	1	-1E+10	1
4901784	199	C	12/15/2020	10:42	-134.115	43.605	0	232.60	0	7.5700	0	36.6130	8	28.611	0	230.612	0	166.7	4	58.2	4	-1E+10	1	-1E+10	1	-1E+10	1	-1E+10	1	-1E+10	1	-1E+10	1
4901784	199	C	12/15/2020	10:42	-134.115	43.605	0	235.20	0	7.5510	0	36.6330	8	28.629	0	233.188	0	164.9	4	57.6	4	-1E+10	1	-1E+10	1	-1E+10	1	-1E+10	1	-1E+10	1	-1E+10	1
4901784	199	C	12/15/2020	10:42	-134.115	43.605	0	237.70	0	7.5320	0	36.6250	8	28.626	0	235.665	0	163.3	4	57.0	4	-1E+10	1	-1E+10	1	-1E+10	1	-1E+10	1	-1E+10	1	-1E+10	1
4901784	199	C	12/15/2020	10:42	-134.115	43.605	0	240.30	0	7.5000	0	36.6380	8	28.641	0	238.241	0	161.8	4	56.5	4	-1E+10	1	-1E+10	1	-1E+10	1	-1E+10	1	-1E+10	1	-1E+10	1
4901784	199	C	12/15/2020	10:42	-134.115	43.605	0	242.00	0	7.5000	0	36.6450	8	28.646	0	239.926	0	161.0	4	56.2	4	-1E+10	1	-1E+10	1	-1E+10	1	-1E+10	1	-1E+10	1	-1E+10	1
4901784	199	C	12/15/2020	10:42	-134.115	43.605	0	244.60	0	7.4770	0	36.6570	8	28.659	0	242.502	0	159.2	4	55.5	4	-1E+10	1	-1E+10	1	-1E+10	1	-1E+10	1	-1E+10	1	-1E+10	1
4901784	199	C	12/15/2020	10:42	-134.115	43.605	0	247.20	0	7.4760	0	36.6590	8	28.661	0	245.078	0	156.3	4	54.5	4	-1E+10	1	-1E+10	1	-1E+10	1	-1E+10	1	-1E+10	1	-1E+10	1
4901784	199	C	12/15/2020	10:42	-134.115	43.605	0	249.80	0	7.5310	0	36.6690	8	28.661	0	247.654	0	153.8	4	53.7	4	-1E+10	1	-1E+10	1	-1E+10	1	-1E+10	1	-1E+10	1	-1E+10	1
4901784	199	C	12/15/2020	10:42	-134.115	43.605	0	252.40	0	7.5340	0	36.6670	8	28.659	0	250.230	0	152.2	4	53.1	4	-1E+10	1	-1E+10	1	-1E+10	1	-1E+10	1	-1E+10	1	-1E+10	1
4901784	199	C	12/15/2020	10:42	-134.115	43.605	0	255.10	0	7.5470	0	36.6760	8	28.664	0	252.906	0	150.8	4	52.7	4	-1E+10	1	-1E+10	1	-1E+10	1	-1E+10	1	-1E+10	1	-1E+10	1
4901784	199	C	12/15/2020	10:42	-134.115	43.605	0	257.80	0	7.5230	0	36.6640	8	28.658	0	255.581	0	149.7	4	52.3	4	-1E+10	1	-1E+10	1	-1E+10	1	-1E+10	1	-1E+10	1	-1E+10	1
4901784	199	C	12/15/2020	10:42	-134.115	43.605	0	259.70	0	7.5000	0	36.6670	8	28.664	0	257.463	0	148.7	4	51.9	4	-1E+10	1	-1E+10	1	-1E+10	1	-1E+10	1	-1E+10	1	-1E+10	1
4901784	199	C	12/15/2020	10:42	-134.115	43.605	0	262.50	0	7.4510	0	36.6740	8	28.677	0	260.237	0	147.1	4	51.3	4	-1E+10	1	-1E+10	1	-1E+10	1	-1E+10	1	-1E+10	1	-1E+10	1
4901784	199	C	12/15/2020	10:42	-134.115	43.605	0	265.20	0	7.4010	0	36.6630	8	28.675	0	262.912	0	146.2	4	50.9	4	-1E+10	1	-1E+10	1	-1E+10	1	-1E+10	1	-1E+10	1	-1E+10	1
4901784	199	C	12/15/2020	10:42	-134.115	43.605	0	267.00	0	7.3870	0	36.6670	8	28.681	0	264.696	0	146.1	4	50.8	4	-1E+10	1	-1E+10	1	-1E+10	1	-1E+10	1	-1E+10	1	-1E+10	1
4901784	199	C	12/15/2020	10:42	-134.115	43.605	0	269.80	0	7.3550	0	36.6660	8	28.685	0	267.470	0	145.8	4	50.7	4	-1E+10	1	-1E+10	1	-1E+10	1	-1E+10	1	-1E+10	1	-1E+10	1
4901784	199	C	12/15/2020	10:42	-134.115	43.605	0	272.50	0	7.3060	0	36.6610	8	28.688	0	270.145	0	145.5	4	50.5	4	-1E+10	1	-1E+10	1	-1E+10	1	-1E+10	1	-1E+10	1	-1E+10	1
4901784	199	C	12/15/2020	10:42	-134.115	43.605	0	275.30	0	7.2690	0	36.6640	8	28.696	0	272.919	0	144.3	4	50.1	4	-1E+10	1	-1E+10	1	-1E+10	1	-1E+10	1	-1E+10	1	-1E+10	1
4901784	199	C	12/15/2020	10:42	-134.115	43.605	0	278.10	0	7.2110	0	36.6680	8	28.707	0	275.692	0	143.4	4	49.7	4	-1E+10	1	-1E+10	1	-1E+10	1	-1E+10	1	-1E+10	1	-1E+10	1
4901784	199	C	12/15/2020	10:42	-134.115	43.605	0	279.90	0	7.1760	0	36.6560	8	28.703	0	277.476	0	142.7	4	49.4	4	-1E+10	1	-1E+10	1	-1E+10	1	-1E+10	1	-1E+10	1	-1E+10	1
4901784	199	C	12/15/2020	10:42	-134.115	43.605	0	282.60	0	7.1160	0	36.6640	8	28.718	0	280.150	0	141.5	4	49.0	4	-1E+10	1	-1E+10	1	-1E+10	1	-1E+10	1	-1E+10	1	-1E+10	1
4901784	199	C	12/15/2020	10:42	-134.115	43.605	0	285.40	0	7.0770	0	36.6520	8	28.714	0	282.924	0	140.1	4	48.4	4	-1E+10	1	-1E+10	1	-1E+10	1	-1E+10	1	-1E+10	1	-1E+10	1
4901784	199	C	12/15/2020	10:42	-134.115	43.605	0	287.20	0	7.0470	0	36.6610	8	28.726	0	284.707	0	139.6	4	48.2	4	-1E+10	1	-1E+10	1	-1E+10	1	-1E+10	1	-1E+10	1	-1E+10	1
4901784	199	C	12/15/2020	10:42	-134.115	43.605	0	290.00	0	7.0260	0	36.6550	8	28.724	0	287.481	0	139.0	4	48.0	4	-1E+10	1	-1E+10	1	-1E+10	1	-1E+10	1	-1E+10	1	-1E+10	1
4901784	199	C	12/15/2020	10:42	-134.115	43.605	0	292.70	0	6.9990	0	36.6600	8	28.732	0	290.156	0	138.4	4	47.7	4	-1E+10	1	-1E+10	1	-1E+10	1	-1E+10	1	-1E+10	1	-1E+10	1
4901784	199	C	12/15/2020	10:42	-134.115	43.605	0	294.60	0	6.9800	0	36.6500	8	28.727	0	292.038	0	138.0	4	47.6	4	-1E+10	1	-1E+10	1	-1E+10	1	-1E+10	1	-1E+10	1	-1E+10	1
4901784	199	C	12/15/2020	10:42	-134.115	43.605	0	297.30	0	6.9740	0	36.6600	8	28.735	0	294.713	0	136.7	4	47.1	4	-1E+10	1	-1E+10	1	-1E+10	1	-1E+10	1	-1E+10	1	-1E+10	1
4901784	199	C	12/15/2020	10:42	-134.115	43.605	0	300.10	0	6.9660	0	36.6470	8	28.726	0	297.486	0	134.9	4	46.5	4	-1E+10	1	-1E+10	1	-1E+10	1	-1E+10	1	-1E+10	1	-1E+10	1
4901784	199	C	12/15/2020	10:42	-134.115	43.605	0	301.90	0	6.9110	0	36.6600	8	28.744	0	299.269	0	134.2	4	46.2	4	-1E+10	1	-1E+10	1	-1E+10	1	-1E+10	1	-1E+10	1	-1E+10	1
4901784	199	C	12/15/2020	10:42	-134.115	43.605	0	304.70	0	6.8850	0	36.6510	8	28.741	0	302.043	0	133.7	4	46.0	4	-1E+10	1	-1E+10	1	-1E+10	1	-1E+10	1	-1E+10	1	-1E+10	1
4901784	199	C	12/15/2020	10:42	-134.115	43.605	0	307.40	0	6.8310	0	36.6440	8	28.743	0	304.717	0	133.1	4	45.7	4	-1E+10	1	-1E+10	1	-1E+10	1	-1E+10	1	-1E+10	1	-1E+10	1
4901784	199	C	12/15/2020	10:42	-134.115	43.605	0	310.20	0	6.7900	0	36.6440	8	28.749	0	307.491	0	132.0	4	45.3	4	-1E+10	1	-1E+10	1	-1E+10	1	-1E+10	1	-1E+10	1	-1E+10	1
4901784	199	C	12/15/2020	10:42	-134.115	43.605	0	313.00	0	6.7580	0	36.6370	8	28.748	0	310.264	0	130.4	4	44.7	4	-1E+10	1	-1E+10	1	-1E+10	1	-1E+10	1	-1E+10	1	-1E+10	1
4901784	199	C	12/15/2020	10:42	-134.115	43.605	0	314.80	0	6.7030	0	36.6380	8	28.757	0	312.047	0	129.7	4	44.4	4	-1E+10	1	-1E+10	1	-1E+10	1	-1E+10	1	-1E+10	1	-1E+10	1
4901784	199	C	12/15/2020	10:42	-134.115	43.605	0	317.70	0	6.6500	0	36.6430	8	28.768	0	314.920	0	128.7	4	44.1	4	-1E+10	1	-1E+10	1	-1E+10	1	-1E+10	1	-1E+10	1	-1E+10	1
4901784	199	C	12/15/2020	10:42	-134.115	43.605	0	320.50	0	6.6190	0	36.6340	8	28.765	0	317.693	0	127.4	4	43.6	4	-1E+10	1	-1E+10	1	-1E+10	1	-1E+10	1	-1E+10	1	-1E+10	1
4901784	199	C	12/15/2020	10:42	-134.115	43.605	0	322.50	0	6.5900	0	36.6310	8	28.767	0	319.674	0	126.4	4	43.2	4	-1E+10	1	-1E+10	1	-1E+10	1	-1E+10	1	-1E+10	1	-1E+10	1
4901784	199	C	12/15/2020	10:42	-134.115	43.605	0	324.40	0	6.5540	0	36.6360	8	28.776	0	321.556	0	125.2	4	42.7	4	-1E+10	1	-1E+10	1	-1E+10	1	-1E+10	1	-1E+10	1	-1E+10	1
4901784	199	C	12/15/2020	10:42	-134.115	43.605	0	327.20	0	6.4960	0	36.6330	8	28.781	0	324.329	0	123.2	4	42.0	4	-1E+10	1	-1E+10	1	-1E+10	1	-1E+10	1	-1E+10	1	-1E+10	1
4901784	199	C	12/15/2020	10:42	-134.115	43.605	0	330.70	0	6.4360	0	36.6260	8	28.784	0	327.796	0	121.6	4	41.4	4	-1E+10	1	-1E+10	1	-1E+10	1	-1E+10	1	-1E+10	1	-1E+10	1
4901784	199	C	12/15/2020	10:42	-134.115	43.605	0	332.60	0	6.4160	0	36.6260	8	28.787	0	329.677	0	120.6	4	41.0	4	-1E+10	1	-1E+10	1	-1E+10	1	-1E+10	1	-1E+10	1	-1E+10	1
4901784	199	C	12/15/2020	10:42	-134.115	43.605	0	335.00	0	6.3750	0	36.6310	8	28.796	0	332.054	0	119.3	4	40.5	4	-1E+10	1	-1E+10	1	-1E+10	1	-1E+10	1	-1E+10	1	-1E+10	1
4901784	199	C	12/15/2020	10:42	-134.115	43.605	0	337.50	0	6.3270	0	36.6340	8	28.805	0	334.530	0	118.1	4	40.1	4	-1E+10	1	-1E+10	1	-1E+10	1	-1E+10	1	-1E+10	1	-1E+10	1
4901784	199	C	12/15/2020	10:42	-134.115	43.605	0	339.90	0	6.3010	0	36.6200	8	28.798	0	336.907	0	117.0	4	39.7	4	-1E+10	1	-1E+10	1	-1E+10	1	-1E+10	1	-1E+10	1	-1E+10	1
4901784	199	C	12/15/2020	10:42	-134.115	43.605	0	342.30	0	6.2640	0	36.6220	8	28.804	0	339.284	0	115.7	4	39.3	4	-1E+10	1	-1E+10	1	-1E+10	1	-1E+10	1	-1E+10	1	-1E+10	1
4901784	199	C	12/15/2020	10:42	-134.115	43.605	0	344.70	0	6.2420	0	36.6230	8	28.808	0	341.661	0	114.6	4	38.8	4	-1E+10	1	-1E+10	1	-1E+10	1	-1E+10	1	-1E+10	1	-1E+10	1
4901784	199	C	12/15/2020	10:42	-134.115	43.605	0	347.10	0	6.1870	0	36.6190	8	28.812	0	344.038	0	113.2	4	38.3	4	-1E+10	1	-1E+10	1	-1E+10	1	-1E+10	1	-1E+10	1	-1E+10	1
4901784	199	C	12/15/2020	10:42	-134.115	43.605	0	349.60	0	6.1500	0	36.6130	8	28.813	0	346.514	0	112.1	4	37.9	4	-1E+10	1	-1E+10	1	-1E+10	1	-1E+10	1	-1E+10	1	-1E+10	1
4901784	199	C	12/15/2020	10:42	-134.115	43.605	0	352.90	0	6.0940	0	36.6130	8	28.820	0	349.782	0	110.6	4	37.4	4	-1E+10	1	-1E+10	1	-1E+10	1	-1E+10	1	-1E+10	1	-1E+10	1
4901784	199	C	12/15/2020	10:42	-134.115	43.605	0	355.30	0	6.0390	0	36.6160	8	28.830	0	352.159	0	109.6	4	37.0	4	-1E+10	1	-1E+10	1	-1E+10	1	-1E+10	1	-1E+10	1	-1E+10	1
4901784	199	C	12/15/2020	10:42	-134.115	43.605	0	357.80	0	5.9970	0	36.6110	8	28.831	0	354.634	0	108.3	4	36.5	4	-1E+10	1	-1E+10	1	-1E+10	1	-1E+10	1	-1E+10	1	-1E+10	1
4901784	199	C	12/15/2020	10:42	-134.115	43.605	0	360.30	0	5.9680	0	36.6150	8	28.838	0	357.110	0	107.1	4	36.1	4	-1E+10	1	-1E+10	1	-1E+10	1	-1E+10	1	-1E+10	1	-1E+10	1
4901784	199	C	12/15/2020	10:42	-134.115	43.605	0	362.70	0	5.9480	0	36.6130	8	28.840	0	359.487	0	106.1	4	35.7	4	-1E+10	1	-1E+10	1	-1E+10	1	-1E+10	1	-1E+10	1	-1E+10	1
4901784	199	C	12/15/2020	10:42	-134.115	43.605	0	365.20	0	5.9130	0	36.6130	8	28.844	0	361.962	0	105.0	4	35.3	4	-1E+10	1	-1E+10	1	-1E+10	1	-1E+10	1	-1E+10	1	-1E+10	1
4901784	199	C	12/15/2020	10:42	-134.115	43.605	0	367.70	0	5.8880	0	36.6130	8	28.847	0	364.438	0	103.6	4	34.8	4	-1E+10	1	-1E+10	1	-1E+10	1	-1E+10	1	-1E+10	1	-1E+10	1
4901784	199	C	12/15/2020	10:42	-134.115	43.605	0	370.20	0	5.8680	0	36.6140	8	28.851	0	366.914	0	101.9	4	34.2	4	-1E+10	1	-1E+10	1	-1E+10	1	-1E+10	1	-1E+10	1	-1E+10	1
4901784	199	C	12/15/2020	10:42	-134.115	43.605	0	372.80	0	5.8490	0	36.6130	8	28.853	0	369.488	0	100.0	4	33.6	4	-1E+10	1	-1E+10	1	-1E+10	1	-1E+10	1	-1E+10	1	-1E+10	1
4901784	199	C	12/15/2020	10:42	-134.115	43.605	0	375.30	0	5.8110	0	36.6130	8	28.857	0	371.964	0	98.2	4	33.0	4	-1E+10	1	-1E+10	1	-1E+10	1	-1E+10	1	-1E+10	1	-1E+10	1
4901784	199	C	12/15/2020	10:42	-134.115	43.605	0	377.90	0	5.7490	0	36.6180	8	28.869	0	374.538	0	96.5	4	32.3	4	-1E+10	1	-1E+10	1	-1E+10	1	-1E+10	1	-1E+10	1	-1E+10	1
4901784	199	C	12/15/2020	10:42	-134.115	43.605	0	380.40	0	5.7170	0	36.6170	8	28.873	0	377.014	0	94.9	4	31.8	4	-1E+10	1	-1E+10	1	-1E+10	1	-1E+10	1	-1E+10	1	-1E+10	1
4901784	199	C	12/15/2020	10:42	-134.115	43.605	0	382.80	0	5.6680	0	36.6200	8	28.882	0	379.390	0	92.9	4	31.1	4	-1E+10	1	-1E+10	1	-1E+10	1	-1E+10	1	-1E+10	1	-1E+10	1
4901784	199	C	12/15/2020	10:42	-134.115	43.605	0	385.40	0	5.5720	0	36.6240	8	28.897	0	381.965	0	91.6	4	30.6	4	-1E+10	1	-1E+10	1	-1E+10	1	-1E+10	1	-1E+10	1	-1E+10	1
4901784	199	C	12/15/2020	10:42	-134.115	43.605	0	387.90	0	5.5570	0	36.6230	8	28.898	0	384.440	0	90.7	4	30.2	4	-1E+10	1	-1E+10	1	-1E+10	1	-1E+10	1	-1E+10	1	-1E+10	1
4901784	199	C	12/15/2020	10:42	-134.115	43.605	0	390.40	0	5.5270	0	36.6210	8	28.900	0	386.915	0	89.7	4	29.9	4	-1E+10	1	-1E+10	1	-1E+10	1	-1E+10	1	-1E+10	1	-1E+10	1
4901784	199	C	12/15/2020	10:42	-134.115	43.605	0	392.10	0	5.5190	0	36.6210	8	28.901	0	388.599	0	88.9	4	29.6	4	-1E+10	1	-1E+10	1	-1E+10	1	-1E+10	1	-1E+10	1	-1E+10	1
4901784	199	C	12/15/2020	10:42	-134.115	43.605	0	394.70	0	5.4680	0	36.6220	8	28.909	0	391.173	0	87.9	4	29.3	4	-1E+10	1	-1E+10	1	-1E+10	1	-1E+10	1	-1E+10	1	-1E+10	1
4901784	199	C	12/15/2020	10:42	-134.115	43.605	0	397.20	0	5.4520	0	36.6230	8	28.911	0	393.648	0	86.8	4	28.9	4	-1E+10	1	-1E+10	1	-1E+10	1	-1E+10	1	-1E+10	1	-1E+10	1
4901784	199	C	12/15/2020	10:42	-134.115	43.605	0	399.80	0	5.4380	0	36.6230	8	28.913	0	396.223	0	85.4	4	28.4	4	-1E+10	1	-1E+10	1	-1E+10	1	-1E+10	1	-1E+10	1	-1E+10	1
4901784	199	C	12/15/2020	10:42	-134.115	43.605	0	402.30	0	5.4080	0	36.6230	8	28.917	0	398.698	0	83.7	4	27.8	4	-1E+10	1	-1E+10	1	-1E+10	1	-1E+10	1	-1E+10	1	-1E+10	1
4901784	199	C	12/15/2020	10:42	-134.115	43.605	0	404.80	0	5.3660	0	36.6290	8	28.927	0	401.173	0	82.2	4	27.3	4	-1E+10	1	-1E+10	1	-1E+10	1	-1E+10	1	-1E+10	1	-1E+10	1
4901784	199	C	12/15/2020	10:42	-134.115	43.605	0	407.40	0	5.3330	0	36.6340	8	28.935	0	403.747	0	81.1	4	26.9	4	-1E+10	1	-1E+10	1	-1E+10	1	-1E+10	1	-1E+10	1	-1E+10	1
4901784	199	C	12/15/2020	10:42	-134.115	43.605	0	410.00	0	5.3130	0	36.6350	8	28.938	0	406.321	0	80.3	4	26.6	4	-1E+10	1	-1E+10	1	-1E+10	1	-1E+10	1	-1E+10	1	-1E+10	1
4901784	199	C	12/15/2020	10:42	-134.115	43.605	0	412.50	0	5.3010	0	36.6350	8	28.940	0	408.796	0	79.4	4	26.4	4	-1E+10	1	-1E+10	1	-1E+10	1	-1E+10	1	-1E+10	1	-1E+10	1
4901784	199	C	12/15/2020	10:42	-134.115	43.605	0	415.10	0	5.2700	0	36.6370	8	28.945	0	411.371	0	78.6	4	26.1	4	-1E+10	1	-1E+10	1	-1E+10	1	-1E+10	1	-1E+10	1	-1E+10	1
4901784	199	C	12/15/2020	10:42	-134.115	43.605	0	417.70	0	5.2590	0	36.6370	8	28.947	0	413.945	0	77.9	4	25.8	4	-1E+10	1	-1E+10	1	-1E+10	1	-1E+10	1	-1E+10	1	-1E+10	1
4901784	199	C	12/15/2020	10:42	-134.115	43.605	0	420.30	0	5.2430	0	36.6370	8	28.949	0	416.519	0	76.9	4	25.5	4	-1E+10	1	-1E+10	1	-1E+10	1	-1E+10	1	-1E+10	1	-1E+10	1
4901784	199	C	12/15/2020	10:42	-134.115	43.605	0	422.90	0	5.2000	0	36.6390	8	28.956	0	419.093	0	75.8	4	25.1	4	-1E+10	1	-1E+10	1	-1E+10	1	-1E+10	1	-1E+10	1	-1E+10	1
4901784	199	C	12/15/2020	10:42	-134.115	43.605	0	424.70	0	5.1730	0	36.6400	8	28.960	0	420.875	0	75.3	4	24.9	4	-1E+10	1	-1E+10	1	-1E+10	1	-1E+10	1	-1E+10	1	-1E+10	1
4901784	199	C	12/15/2020	10:42	-134.115	43.605	0	427.40	0	5.1410	0	36.6420	8	28.965	0	423.547	0	74.6	4	24.7	4	-1E+10	1	-1E+10	1	-1E+10	1	-1E+10	1	-1E+10	1	-1E+10	1
4901784	199	C	12/15/2020	10:42	-134.115	43.605	0	430.20	0	5.1010	0	36.6450	8	28.973	0	426.319	0	74.0	4	24.4	4	-1E+10	1	-1E+10	1	-1E+10	1	-1E+10	1	-1E+10	1	-1E+10	1
4901784	199	C	12/15/2020	10:42	-134.115	43.605	0	432.00	0	5.0930	0	36.6450	8	28.974	0	428.101	0	73.5	4	24.3	4	-1E+10	1	-1E+10	1	-1E+10	1	-1E+10	1	-1E+10	1	-1E+10	1
4901784	199	C	12/15/2020	10:42	-134.115	43.605	0	434.70	0	5.0670	0	36.6450	8	28.977	0	430.774	0	72.6	4	23.9	4	-1E+10	1	-1E+10	1	-1E+10	1	-1E+10	1	-1E+10	1	-1E+10	1
4901784	199	C	12/15/2020	10:42	-134.115	43.605	0	437.40	0	5.0180	0	36.6500	8	28.987	0	433.447	0	71.8	4	23.7	4	-1E+10	1	-1E+10	1	-1E+10	1	-1E+10	1	-1E+10	1	-1E+10	1
4901784	199	C	12/15/2020	10:42	-134.115	43.605	0	440.10	0	5.0010	0	36.6520	8	28.990	0	436.120	0	71.0	4	23.4	4	-1E+10	1	-1E+10	1	-1E+10	1	-1E+10	1	-1E+10	1	-1E+10	1
4901784	199	C	12/15/2020	10:42	-134.115	43.605	0	442.70	0	4.9780	0	36.6530	8	28.994	0	438.693	0	70.0	4	23.1	4	-1E+10	1	-1E+10	1	-1E+10	1	-1E+10	1	-1E+10	1	-1E+10	1
4901784	199	C	12/15/2020	10:42	-134.115	43.605	0	444.60	0	4.9560	0	36.6560	8	28.999	0	440.574	0	69.4	4	22.8	4	-1E+10	1	-1E+10	1	-1E+10	1	-1E+10	1	-1E+10	1	-1E+10	1
4901784	199	C	12/15/2020	10:42	-134.115	43.605	0	447.40	0	4.9240	0	36.6600	8	29.006	0	443.346	0	68.5	4	22.5	4	-1E+10	1	-1E+10	1	-1E+10	1	-1E+10	1	-1E+10	1	-1E+10	1
4901784	199	C	12/15/2020	10:42	-134.115	43.605	0	450.00	0	4.9050	0	36.6620	8	29.010	0	445.919	0	67.7	4	22.2	4	-1E+10	1	-1E+10	1	-1E+10	1	-1E+10	1	-1E+10	1	-1E+10	1
4901784	199	C	12/15/2020	10:42	-134.115	43.605	0	452.80	0	4.8820	0	36.6660	8	29.016	0	448.691	0	66.9	4	22.0	4	-1E+10	1	-1E+10	1	-1E+10	1	-1E+10	1	-1E+10	1	-1E+10	1
4901784	199	C	12/15/2020	10:42	-134.115	43.605	0	455.50	0	4.8730	0	36.6670	8	29.018	0	451.364	0	66.1	4	21.7	4	-1E+10	1	-1E+10	1	-1E+10	1	-1E+10	1	-1E+10	1	-1E+10	1
4901784	199	C	12/15/2020	10:42	-134.115	43.605	0	457.30	0	4.8560	0	36.6680	8	29.020	0	453.145	0	65.5	4	21.5	4	-1E+10	1	-1E+10	1	-1E+10	1	-1E+10	1	-1E+10	1	-1E+10	1
4901784	199	C	12/15/2020	10:42	-134.115	43.605	0	460.10	0	4.8390	0	36.6690	8	29.023	0	455.917	0	64.6	4	21.2	4	-1E+10	1	-1E+10	1	-1E+10	1	-1E+10	1	-1E+10	1	-1E+10	1
4901784	199	C	12/15/2020	10:42	-134.115	43.605	0	462.90	0	4.8080	0	36.6710	8	29.029	0	458.688	0	63.9	4	21.0	4	-1E+10	1	-1E+10	1	-1E+10	1	-1E+10	1	-1E+10	1	-1E+10	1
4901784	199	C	12/15/2020	10:42	-134.115	43.605	0	464.70	0	4.7900	0	36.6740	8	29.033	0	460.470	0	63.5	4	20.8	4	-1E+10	1	-1E+10	1	-1E+10	1	-1E+10	1	-1E+10	1	-1E+10	1
4901784	199	C	12/15/2020	10:42	-134.115	43.605	0	467.50	0	4.7780	0	36.6770	8	29.037	0	463.241	0	62.9	4	20.6	4	-1E+10	1	-1E+10	1	-1E+10	1	-1E+10	1	-1E+10	1	-1E+10	1
4901784	199	C	12/15/2020	10:42	-134.115	43.605	0	470.20	0	4.7620	0	36.6770	8	29.039	0	465.914	0	62.3	4	20.4	4	-1E+10	1	-1E+10	1	-1E+10	1	-1E+10	1	-1E+10	1	-1E+10	1
4901784	199	C	12/15/2020	10:42	-134.115	43.605	0	472.00	0	4.7540	0	36.6780	8	29.041	0	467.695	0	61.9	4	20.3	4	-1E+10	1	-1E+10	1	-1E+10	1	-1E+10	1	-1E+10	1	-1E+10	1
4901784	199	C	12/15/2020	10:42	-134.115	43.605	0	474.90	0	4.7390	0	36.6810	8	29.045	0	470.566	0	61.1	4	20.0	4	-1E+10	1	-1E+10	1	-1E+10	1	-1E+10	1	-1E+10	1	-1E+10	1
4901784	199	C	12/15/2020	10:42	-134.115	43.605	0	477.70	0	4.7230	0	36.6840	8	29.049	0	473.337	0	60.6	4	19.8	4	-1E+10	1	-1E+10	1	-1E+10	1	-1E+10	1	-1E+10	1	-1E+10	1
4901784	199	C	12/15/2020	10:42	-134.115	43.605	0	479.60	0	4.7130	0	36.6870	8	29.053	0	475.217	0	60.2	4	19.7	4	-1E+10	1	-1E+10	1	-1E+10	1	-1E+10	1	-1E+10	1	-1E+10	1
4901784	199	C	12/15/2020	10:42	-134.115	43.605	0	482.40	0	4.7060	0	36.6890	8	29.055	0	477.988	0	59.7	4	19.5	4	-1E+10	1	-1E+10	1	-1E+10	1	-1E+10	1	-1E+10	1	-1E+10	1
4901784	199	C	12/15/2020	10:42	-134.115	43.605	0	485.30	0	4.6990	0	36.6900	8	29.057	0	480.859	0	59.2	4	19.4	4	-1E+10	1	-1E+10	1	-1E+10	1	-1E+10	1	-1E+10	1	-1E+10	1
4901784	199	C	12/15/2020	10:42	-134.115	43.605	0	487.70	0	4.6940	0	36.6910	8	29.058	0	483.234	0	58.6	4	19.2	4	-1E+10	1	-1E+10	1	-1E+10	1	-1E+10	1	-1E+10	1	-1E+10	1
4901784	199	C	12/15/2020	10:42	-134.115	43.605	0	490.40	0	4.6860	0	36.6920	8	29.060	0	485.906	0	57.6	4	18.9	4	-1E+10	1	-1E+10	1	-1E+10	1	-1E+10	1	-1E+10	1	-1E+10	1
4901784	199	C	12/15/2020	10:42	-134.115	43.605	0	492.80	0	4.6700	0	36.6980	8	29.067	0	488.281	0	56.7	4	18.5	4	-1E+10	1	-1E+10	1	-1E+10	1	-1E+10	1	-1E+10	1	-1E+10	1
4901784	199	C	12/15/2020	10:42	-134.115	43.605	0	495.30	0	4.6510	0	36.7000	8	29.070	0	490.755	0	55.9	4	18.3	4	-1E+10	1	-1E+10	1	-1E+10	1	-1E+10	1	-1E+10	1	-1E+10	1
4901784	199	C	12/15/2020	10:42	-134.115	43.605	0	497.70	0	4.6450	0	36.7030	8	29.073	0	493.130	0	55.1	4	18.0	4	-1E+10	1	-1E+10	1	-1E+10	1	-1E+10	1	-1E+10	1	-1E+10	1
4901784	199	C	12/15/2020	10:42	-134.115	43.605	0	500.10	0	4.6310	0	36.7070	8	29.078	0	495.505	0	54.2	4	17.7	4	-1E+10	1	-1E+10	1	-1E+10	1	-1E+10	1	-1E+10	1	-1E+10	1
4901784	199	C	12/15/2020	10:42	-134.115	43.605	0	505.00	0	4.6150	0	36.7130	8	29.085	0	500.355	0	52.4	4	17.1	4	-1E+10	1	-1E+10	1	-1E+10	1	-1E+10	1	-1E+10	1	-1E+10	1
4901784	199	C	12/15/2020	10:42	-134.115	43.605	0	510.70	0	4.6010	0	36.7220	8	29.094	0	505.995	0	50.4	4	16.5	4	-1E+10	1	-1E+10	1	-1E+10	1	-1E+10	1	-1E+10	1	-1E+10	1
4901784	199	C	12/15/2020	10:42	-134.115	43.605	0	515.50	0	4.6120	0	36.7300	8	29.099	0	510.745	0	48.3	4	15.8	4	-1E+10	1	-1E+10	1	-1E+10	1	-1E+10	1	-1E+10	1	-1E+10	1
4901784	199	C	12/15/2020	10:42	-134.115	43.605	0	520.30	0	4.5840	0	36.7350	8	29.106	0	515.495	0	46.5	4	15.2	4	-1E+10	1	-1E+10	1	-1E+10	1	-1E+10	1	-1E+10	1	-1E+10	1
4901784	199	C	12/15/2020	10:42	-134.115	43.605	0	525.30	0	4.5520	0	36.7450	8	29.118	0	520.442	0	44.4	4	14.5	4	-1E+10	1	-1E+10	1	-1E+10	1	-1E+10	1	-1E+10	1	-1E+10	1
4901784	199	C	12/15/2020	10:42	-134.115	43.605	0	530.40	0	4.5470	0	36.7560	8	29.127	0	525.489	0	42.6	4	13.9	4	-1E+10	1	-1E+10	1	-1E+10	1	-1E+10	1	-1E+10	1	-1E+10	1
4901784	199	C	12/15/2020	10:42	-134.115	43.605	0	535.50	0	4.5480	0	36.7620	8	29.132	0	530.535	0	41.3	4	13.5	4	-1E+10	1	-1E+10	1	-1E+10	1	-1E+10	1	-1E+10	1	-1E+10	1
4901784	199	C	12/15/2020	10:42	-134.115	43.605	0	540.60	0	4.5280	0	36.7670	8	29.138	0	535.581	0	39.7	4	12.9	4	-1E+10	1	-1E+10	1	-1E+10	1	-1E+10	1	-1E+10	1	-1E+10	1
4901784	199	C	12/15/2020	10:42	-134.115	43.605	0	545.70	0	4.5110	0	36.7750	8	29.147	0	540.627	0	38.3	4	12.5	4	-1E+10	1	-1E+10	1	-1E+10	1	-1E+10	1	-1E+10	1	-1E+10	1
4901784	199	C	12/15/2020	10:42	-134.115	43.605	0	550.00	0	4.5020	0	36.7800	8	29.152	0	544.882	0	36.9	4	12.0	4	-1E+10	1	-1E+10	1	-1E+10	1	-1E+10	1	-1E+10	1	-1E+10	1
4901784	199	C	12/15/2020	10:42	-134.115	43.605	0	554.30	0	4.5230	0	36.7880	8	29.156	0	549.136	0	35.4	4	11.6	4	-1E+10	1	-1E+10	1	-1E+10	1	-1E+10	1	-1E+10	1	-1E+10	1
4901784	199	C	12/15/2020	10:42	-134.115	43.605	0	559.60	0	4.5200	0	36.7950	8	29.162	0	554.379	0	34.5	4	11.2	4	-1E+10	1	-1E+10	1	-1E+10	1	-1E+10	1	-1E+10	1	-1E+10	1
4901784	199	C	12/15/2020	10:42	-134.115	43.605	0	564.90	0	4.5140	0	36.8010	8	29.167	0	559.623	0	33.2	4	10.8	4	-1E+10	1	-1E+10	1	-1E+10	1	-1E+10	1	-1E+10	1	-1E+10	1
4901784	199	C	12/15/2020	10:42	-134.115	43.605	0	570.10	0	4.5230	0	36.8060	8	29.170	0	564.767	0	32.1	4	10.5	4	-1E+10	1	-1E+10	1	-1E+10	1	-1E+10	1	-1E+10	1	-1E+10	1
4901784	199	C	12/15/2020	10:42	-134.115	43.605	0	575.30	0	4.5060	0	36.8110	8	29.176	0	569.912	0	31.2	4	10.2	4	-1E+10	1	-1E+10	1	-1E+10	1	-1E+10	1	-1E+10	1	-1E+10	1
4901784	199	C	12/15/2020	10:42	-134.115	43.605	0	580.50	0	4.4770	0	36.8170	8	29.184	0	575.056	0	30.2	4	9.8	4	-1E+10	1	-1E+10	1	-1E+10	1	-1E+10	1	-1E+10	1	-1E+10	1
4901784	199	C	12/15/2020	10:42	-134.115	43.605	0	584.90	0	4.4660	0	36.8220	8	29.190	0	579.408	0	29.4	4	9.6	4	-1E+10	1	-1E+10	1	-1E+10	1	-1E+10	1	-1E+10	1	-1E+10	1
4901784	199	C	12/15/2020	10:42	-134.115	43.605	0	589.30	0	4.4510	0	36.8250	8	29.194	0	583.761	0	28.6	4	9.3	4	-1E+10	1	-1E+10	1	-1E+10	1	-1E+10	1	-1E+10	1	-1E+10	1
4901784	199	C	12/15/2020	10:42	-134.115	43.605	0	594.60	0	4.4340	0	36.8300	8	29.200	0	589.003	0	27.6	4	9.0	4	-1E+10	1	-1E+10	1	-1E+10	1	-1E+10	1	-1E+10	1	-1E+10	1
4901784	199	C	12/15/2020	10:42	-134.115	43.605	0	600.10	0	4.4190	0	36.8400	8	29.209	0	594.444	0	26.4	4	8.6	4	-1E+10	1	-1E+10	1	-1E+10	1	-1E+10	1	-1E+10	1	-1E+10	1
4901784	199	C	12/15/2020	10:42	-134.115	43.605	0	605.50	0	4.4080	0	36.8440	8	29.214	0	599.785	0	25.6	4	8.3	4	-1E+10	1	-1E+10	1	-1E+10	1	-1E+10	1	-1E+10	1	-1E+10	1
4901784	199	C	12/15/2020	10:42	-134.115	43.605	0	610.10	0	4.3660	0	36.8490	8	29.223	0	604.335	0	25.1	4	8.2	4	-1E+10	1	-1E+10	1	-1E+10	1	-1E+10	1	-1E+10	1	-1E+10	1
4901784	199	C	12/15/2020	10:42	-134.115	43.605	0	614.60	0	4.3510	0	36.8520	8	29.227	0	608.786	0	24.4	4	7.9	4	-1E+10	1	-1E+10	1	-1E+10	1	-1E+10	1	-1E+10	1	-1E+10	1
4901784	199	C	12/15/2020	10:42	-134.115	43.605	0	620.00	0	4.3420	0	36.8590	8	29.233	0	614.127	0	23.4	4	7.6	4	-1E+10	1	-1E+10	1	-1E+10	1	-1E+10	1	-1E+10	1	-1E+10	1
4901784	199	C	12/15/2020	10:42	-134.115	43.605	0	625.50	0	4.3320	0	36.8660	8	29.240	0	619.567	0	22.5	4	7.3	4	-1E+10	1	-1E+10	1	-1E+10	1	-1E+10	1	-1E+10	1	-1E+10	1
4901784	199	C	12/15/2020	10:42	-134.115	43.605	0	630.00	0	4.3240	0	36.8710	8	29.245	0	624.017	0	21.9	4	7.1	4	-1E+10	1	-1E+10	1	-1E+10	1	-1E+10	1	-1E+10	1	-1E+10	1
4901784	199	C	12/15/2020	10:42	-134.115	43.605	0	634.60	0	4.3280	0	36.8760	8	29.249	0	628.567	0	21.2	4	6.9	4	-1E+10	1	-1E+10	1	-1E+10	1	-1E+10	1	-1E+10	1	-1E+10	1
4901784	199	C	12/15/2020	10:42	-134.115	43.605	0	640.10	0	4.3140	0	36.8820	8	29.255	0	634.006	0	20.6	4	6.7	4	-1E+10	1	-1E+10	1	-1E+10	1	-1E+10	1	-1E+10	1	-1E+10	1
4901784	199	C	12/15/2020	10:42	-134.115	43.605	0	645.60	0	4.3150	0	36.8860	8	29.258	0	639.445	0	20.0	4	6.5	4	-1E+10	1	-1E+10	1	-1E+10	1	-1E+10	1	-1E+10	1	-1E+10	1
4901784	199	C	12/15/2020	10:42	-134.115	43.605	0	650.10	0	4.3220	0	36.8920	8	29.262	0	643.895	0	19.3	4	6.3	4	-1E+10	1	-1E+10	1	-1E+10	1	-1E+10	1	-1E+10	1	-1E+10	1
4901784	199	C	12/15/2020	10:42	-134.115	43.605	0	654.70	0	4.3060	0	36.8980	8	29.269	0	648.444	0	18.7	4	6.1	4	-1E+10	1	-1E+10	1	-1E+10	1	-1E+10	1	-1E+10	1	-1E+10	1
4901784	199	C	12/15/2020	10:42	-134.115	43.605	0	660.20	0	4.3100	0	36.9030	8	29.272	0	653.883	0	18.1	4	5.9	4	-1E+10	1	-1E+10	1	-1E+10	1	-1E+10	1	-1E+10	1	-1E+10	1
4901784	199	C	12/15/2020	10:42	-134.115	43.605	0	664.80	0	4.2930	0	36.9070	8	29.278	0	658.432	0	17.5	4	5.7	4	-1E+10	1	-1E+10	1	-1E+10	1	-1E+10	1	-1E+10	1	-1E+10	1
4901784	199	C	12/15/2020	10:42	-134.115	43.605	0	669.40	0	4.2800	0	36.9150	8	29.285	0	662.980	0	16.8	4	5.4	4	-1E+10	1	-1E+10	1	-1E+10	1	-1E+10	1	-1E+10	1	-1E+10	1
4901784	199	C	12/15/2020	10:42	-134.115	43.605	0	675.00	0	4.2740	0	36.9240	8	29.293	0	668.518	0	16.1	4	5.2	4	-1E+10	1	-1E+10	1	-1E+10	1	-1E+10	1	-1E+10	1	-1E+10	1
4901784	199	C	12/15/2020	10:42	-134.115	43.605	0	680.50	0	4.2700	0	36.9290	8	29.298	0	673.956	0	15.7	4	5.1	4	-1E+10	1	-1E+10	1	-1E+10	1	-1E+10	1	-1E+10	1	-1E+10	1
4901784	199	C	12/15/2020	10:42	-134.115	43.605	0	685.10	0	4.2350	0	36.9350	8	29.307	0	678.504	0	15.3	4	5.0	4	-1E+10	1	-1E+10	1	-1E+10	1	-1E+10	1	-1E+10	1	-1E+10	1
4901784	199	C	12/15/2020	10:42	-134.115	43.605	0	689.70	0	4.2300	0	36.9410	8	29.312	0	683.053	0	14.9	4	4.8	4	-1E+10	1	-1E+10	1	-1E+10	1	-1E+10	1	-1E+10	1	-1E+10	1
4901784	199	C	12/15/2020	10:42	-134.115	43.605	0	695.30	0	4.2260	0	36.9470	8	29.317	0	688.589	0	14.4	4	4.7	4	-1E+10	1	-1E+10	1	-1E+10	1	-1E+10	1	-1E+10	1	-1E+10	1
4901784	199	C	12/15/2020	10:42	-134.115	43.605	0	700.00	0	4.2420	0	36.9540	8	29.321	0	693.236	0	13.9	4	4.5	4	-1E+10	1	-1E+10	1	-1E+10	1	-1E+10	1	-1E+10	1	-1E+10	1
4901784	199	C	12/15/2020	10:42	-134.115	43.605	0	704.60	0	4.2310	0	36.9620	8	29.329	0	697.784	0	13.6	4	4.4	4	-1E+10	1	-1E+10	1	-1E+10	1	-1E+10	1	-1E+10	1	-1E+10	1
4901784	199	C	12/15/2020	10:42	-134.115	43.605	0	710.20	0	4.2250	0	36.9670	8	29.333	0	703.320	0	13.2	4	4.3	4	-1E+10	1	-1E+10	1	-1E+10	1	-1E+10	1	-1E+10	1	-1E+10	1
4901784	199	C	12/15/2020	10:42	-134.115	43.605	0	714.80	0	4.2210	0	36.9730	8	29.339	0	707.868	0	12.9	4	4.2	4	-1E+10	1	-1E+10	1	-1E+10	1	-1E+10	1	-1E+10	1	-1E+10	1
4901784	199	C	12/15/2020	10:42	-134.115	43.605	0	720.30	0	4.2280	0	36.9800	8	29.343	0	713.305	0	12.6	4	4.1	4	-1E+10	1	-1E+10	1	-1E+10	1	-1E+10	1	-1E+10	1	-1E+10	1
4901784	199	C	12/15/2020	10:42	-134.115	43.605	0	725.40	0	4.2240	0	36.9860	8	29.349	0	718.347	0	12.3	4	4.0	4	-1E+10	1	-1E+10	1	-1E+10	1	-1E+10	1	-1E+10	1	-1E+10	1
4901784	199	C	12/15/2020	10:42	-134.115	43.605	0	730.20	0	4.2220	0	36.9900	8	29.352	0	723.092	0	12.1	4	3.9	4	-1E+10	1	-1E+10	1	-1E+10	1	-1E+10	1	-1E+10	1	-1E+10	1
4901784	199	C	12/15/2020	10:42	-134.115	43.605	0	735.10	0	4.2040	0	36.9940	8	29.357	0	727.936	0	12.0	4	3.9	4	-1E+10	1	-1E+10	1	-1E+10	1	-1E+10	1	-1E+10	1	-1E+10	1
4901784	199	C	12/15/2020	10:42	-134.115	43.605	0	740.10	0	4.1780	0	37.0000	8	29.365	0	732.878	0	11.8	4	3.8	4	-1E+10	1	-1E+10	1	-1E+10	1	-1E+10	1	-1E+10	1	-1E+10	1
4901784	199	C	12/15/2020	10:42	-134.115	43.605	0	745.10	0	4.1690	0	37.0050	8	29.370	0	737.821	0	11.6	4	3.7	4	-1E+10	1	-1E+10	1	-1E+10	1	-1E+10	1	-1E+10	1	-1E+10	1
4901784	199	C	12/15/2020	10:42	-134.115	43.605	0	750.00	0	4.1510	0	37.0100	8	29.376	0	742.664	0	11.5	4	3.7	4	-1E+10	1	-1E+10	1	-1E+10	1	-1E+10	1	-1E+10	1	-1E+10	1
4901784	199	C	12/15/2020	10:42	-134.115	43.605	0	755.10	0	4.1370	0	37.0130	8	29.380	0	747.705	0	11.4	4	3.7	4	-1E+10	1	-1E+10	1	-1E+10	1	-1E+10	1	-1E+10	1	-1E+10	1
4901784	199	C	12/15/2020	10:42	-134.115	43.605	0	760.10	0	4.1250	0	37.0160	8	29.384	0	752.647	0	11.3	4	3.7	4	-1E+10	1	-1E+10	1	-1E+10	1	-1E+10	1	-1E+10	1	-1E+10	1
4901784	199	C	12/15/2020	10:42	-134.115	43.605	0	765.20	0	4.1180	0	37.0190	8	29.387	0	757.688	0	11.3	4	3.6	4	-1E+10	1	-1E+10	1	-1E+10	1	-1E+10	1	-1E+10	1	-1E+10	1
4901784	199	C	12/15/2020	10:42	-134.115	43.605	0	770.30	0	4.1070	0	37.0200	8	29.389	0	762.728	0	11.2	4	3.6	4	-1E+10	1	-1E+10	1	-1E+10	1	-1E+10	1	-1E+10	1	-1E+10	1
4901784	199	C	12/15/2020	10:42	-134.115	43.605	0	775.40	0	4.0890	0	37.0230	8	29.394	0	767.769	0	11.2	4	3.6	4	-1E+10	1	-1E+10	1	-1E+10	1	-1E+10	1	-1E+10	1	-1E+10	1
4901784	199	C	12/15/2020	10:42	-134.115	43.605	0	780.50	0	4.0750	0	37.0260	8	29.398	0	772.809	0	11.1	4	3.6	4	-1E+10	1	-1E+10	1	-1E+10	1	-1E+10	1	-1E+10	1	-1E+10	1
4901784	199	C	12/15/2020	10:42	-134.115	43.605	0	785.70	0	4.0650	0	37.0290	8	29.401	0	777.948	0	11.0	4	3.5	4	-1E+10	1	-1E+10	1	-1E+10	1	-1E+10	1	-1E+10	1	-1E+10	1
4901784	199	C	12/15/2020	10:42	-134.115	43.605	0	790.00	0	4.0490	0	37.0310	8	29.405	0	782.198	0	10.9	4	3.5	4	-1E+10	1	-1E+10	1	-1E+10	1	-1E+10	1	-1E+10	1	-1E+10	1
4901784	199	C	12/15/2020	10:42	-134.115	43.605	0	794.40	0	4.0310	0	37.0340	8	29.409	0	786.546	0	10.9	4	3.5	4	-1E+10	1	-1E+10	1	-1E+10	1	-1E+10	1	-1E+10	1	-1E+10	1
4901784	199	C	12/15/2020	10:42	-134.115	43.605	0	799.70	0	3.9920	0	37.0390	8	29.417	0	791.784	0	10.8	4	3.5	4	-1E+10	1	-1E+10	1	-1E+10	1	-1E+10	1	-1E+10	1	-1E+10	1
4901784	199	C	12/15/2020	10:42	-134.115	43.605	0	805.00	0	3.9810	0	37.0410	8	29.420	0	797.021	0	10.8	4	3.5	4	-1E+10	1	-1E+10	1	-1E+10	1	-1E+10	1	-1E+10	1	-1E+10	1
4901784	199	C	12/15/2020	10:42	-134.115	43.605	0	810.30	0	3.9720	0	37.0440	8	29.423	0	802.258	0	10.7	4	3.4	4	-1E+10	1	-1E+10	1	-1E+10	1	-1E+10	1	-1E+10	1	-1E+10	1
4901784	199	C	12/15/2020	10:42	-134.115	43.605	0	815.60	0	3.9550	0	37.0470	8	29.428	0	807.496	0	10.6	4	3.4	4	-1E+10	1	-1E+10	1	-1E+10	1	-1E+10	1	-1E+10	1	-1E+10	1
4901784	199	C	12/15/2020	10:42	-134.115	43.605	0	820.00	0	3.9290	0	37.0500	8	29.433	0	811.843	0	10.6	4	3.4	4	-1E+10	1	-1E+10	1	-1E+10	1	-1E+10	1	-1E+10	1	-1E+10	1
4901784	199	C	12/15/2020	10:42	-134.115	43.605	0	824.60	0	3.9130	0	37.0520	8	29.436	0	816.389	0	10.5	4	3.4	4	-1E+10	1	-1E+10	1	-1E+10	1	-1E+10	1	-1E+10	1	-1E+10	1
4901784	199	C	12/15/2020	10:42	-134.115	43.605	0	830.10	0	3.8980	0	37.0570	8	29.442	0	821.823	0	10.4	4	3.4	4	-1E+10	1	-1E+10	1	-1E+10	1	-1E+10	1	-1E+10	1	-1E+10	1
4901784	199	C	12/15/2020	10:42	-134.115	43.605	0	835.30	0	3.8750	0	37.0610	8	29.448	0	826.961	0	10.4	4	3.3	4	-1E+10	1	-1E+10	1	-1E+10	1	-1E+10	1	-1E+10	1	-1E+10	1
4901784	199	C	12/15/2020	10:42	-134.115	43.605	0	839.50	0	3.8650	0	37.0630	8	29.450	0	831.111	0	10.3	4	3.3	4	-1E+10	1	-1E+10	1	-1E+10	1	-1E+10	1	-1E+10	1	-1E+10	1
4901784	199	C	12/15/2020	10:42	-134.115	43.605	0	845.00	0	3.8600	0	37.0690	8	29.456	0	836.545	0	10.3	4	3.3	4	-1E+10	1	-1E+10	1	-1E+10	1	-1E+10	1	-1E+10	1	-1E+10	1
4901784	199	C	12/15/2020	10:42	-134.115	43.605	0	850.60	0	3.8420	0	37.0720	8	29.460	0	842.077	0	10.2	4	3.3	4	-1E+10	1	-1E+10	1	-1E+10	1	-1E+10	1	-1E+10	1	-1E+10	1
4901784	199	C	12/15/2020	10:42	-134.115	43.605	0	855.40	0	3.8240	0	37.0740	8	29.464	0	846.819	0	10.2	4	3.3	4	-1E+10	1	-1E+10	1	-1E+10	1	-1E+10	1	-1E+10	1	-1E+10	1
4901784	199	C	12/15/2020	10:42	-134.115	43.605	0	860.30	0	3.8120	0	37.0780	8	29.468	0	851.660	0	10.1	4	3.3	4	-1E+10	1	-1E+10	1	-1E+10	1	-1E+10	1	-1E+10	1	-1E+10	1
4901784	199	C	12/15/2020	10:42	-134.115	43.605	0	865.20	0	3.8060	0	37.0790	8	29.470	0	856.501	0	10.1	4	3.3	4	-1E+10	1	-1E+10	1	-1E+10	1	-1E+10	1	-1E+10	1	-1E+10	1
4901784	199	C	12/15/2020	10:42	-134.115	43.605	0	870.10	0	3.7960	0	37.0830	8	29.474	0	861.342	0	10.1	4	3.2	4	-1E+10	1	-1E+10	1	-1E+10	1	-1E+10	1	-1E+10	1	-1E+10	1
4901784	199	C	12/15/2020	10:42	-134.115	43.605	0	875.00	0	3.7940	0	37.0880	8	29.478	0	866.182	0	10.0	4	3.2	4	-1E+10	1	-1E+10	1	-1E+10	1	-1E+10	1	-1E+10	1	-1E+10	1
4901784	199	C	12/15/2020	10:42	-134.115	43.605	0	880.00	0	3.7810	0	37.0890	8	29.481	0	871.121	0	10.0	4	3.2	4	-1E+10	1	-1E+10	1	-1E+10	1	-1E+10	1	-1E+10	1	-1E+10	1
4901784	199	C	12/15/2020	10:42	-134.115	43.605	0	885.10	0	3.7530	0	37.0920	8	29.486	0	876.159	0	10.0	4	3.2	4	-1E+10	1	-1E+10	1	-1E+10	1	-1E+10	1	-1E+10	1	-1E+10	1
4901784	199	C	12/15/2020	10:42	-134.115	43.605	0	890.20	0	3.7410	0	37.0950	8	29.490	0	881.197	0	10.0	4	3.2	4	-1E+10	1	-1E+10	1	-1E+10	1	-1E+10	1	-1E+10	1	-1E+10	1
4901784	199	C	12/15/2020	10:42	-134.115	43.605	0	895.30	0	3.7300	0	37.0990	8	29.494	0	886.235	0	10.0	4	3.2	4	-1E+10	1	-1E+10	1	-1E+10	1	-1E+10	1	-1E+10	1	-1E+10	1
4901784	199	C	12/15/2020	10:42	-134.115	43.605	0	900.40	0	3.7300	0	37.1040	8	29.498	0	891.272	0	10.0	4	3.2	4	-1E+10	1	-1E+10	1	-1E+10	1	-1E+10	1	-1E+10	1	-1E+10	1
4901784	199	C	12/15/2020	10:42	-134.115	43.605	0	905.50	0	3.7270	0	37.1090	8	29.502	0	896.310	0	10.0	4	3.2	4	-1E+10	1	-1E+10	1	-1E+10	1	-1E+10	1	-1E+10	1	-1E+10	1
4901784	199	C	12/15/2020	10:42	-134.115	43.605	0	910.70	0	3.7160	0	37.1110	8	29.505	0	901.446	0	10.0	4	3.2	4	-1E+10	1	-1E+10	1	-1E+10	1	-1E+10	1	-1E+10	1	-1E+10	1
4901784	199	C	12/15/2020	10:42	-134.115	43.605	0	915.00	0	3.7150	0	37.1110	8	29.505	0	905.693	0	10.0	4	3.2	4	-1E+10	1	-1E+10	1	-1E+10	1	-1E+10	1	-1E+10	1	-1E+10	1
4901784	199	C	12/15/2020	10:42	-134.115	43.605	0	919.20	0	3.7060	0	37.1150	8	29.510	0	909.841	0	10.0	4	3.2	4	-1E+10	1	-1E+10	1	-1E+10	1	-1E+10	1	-1E+10	1	-1E+10	1
4901784	199	C	12/15/2020	10:42	-134.115	43.605	0	924.40	0	3.6950	0	37.1200	8	29.515	0	914.976	0	10.0	4	3.2	4	-1E+10	1	-1E+10	1	-1E+10	1	-1E+10	1	-1E+10	1	-1E+10	1
4901784	199	C	12/15/2020	10:42	-134.115	43.605	0	929.60	0	3.6940	0	37.1230	8	29.517	0	920.112	0	10.1	4	3.2	4	-1E+10	1	-1E+10	1	-1E+10	1	-1E+10	1	-1E+10	1	-1E+10	1
4901784	199	C	12/15/2020	10:42	-134.115	43.605	0	934.80	0	3.6860	0	37.1280	8	29.522	0	925.247	0	10.1	4	3.2	4	-1E+10	1	-1E+10	1	-1E+10	1	-1E+10	1	-1E+10	1	-1E+10	1
4901784	199	C	12/15/2020	10:42	-134.115	43.605	0	940.20	0	3.6840	0	37.1320	8	29.526	0	930.580	0	10.2	4	3.3	4	-1E+10	1	-1E+10	1	-1E+10	1	-1E+10	1	-1E+10	1	-1E+10	1
4901784	199	C	12/15/2020	10:42	-134.115	43.605	0	945.60	0	3.6640	0	37.1360	8	29.531	0	935.913	0	10.2	4	3.3	4	-1E+10	1	-1E+10	1	-1E+10	1	-1E+10	1	-1E+10	1	-1E+10	1
4901784	199	C	12/15/2020	10:42	-134.115	43.605	0	950.10	0	3.6540	0	37.1380	8	29.534	0	940.357	0	10.2	4	3.3	4	-1E+10	1	-1E+10	1	-1E+10	1	-1E+10	1	-1E+10	1	-1E+10	1
4901784	199	C	12/15/2020	10:42	-134.115	43.605	0	954.60	0	3.6370	0	37.1380	8	29.535	0	944.800	0	10.2	4	3.3	4	-1E+10	1	-1E+10	1	-1E+10	1	-1E+10	1	-1E+10	1	-1E+10	1
4901784	199	C	12/15/2020	10:42	-134.115	43.605	0	960.00	0	3.6150	0	37.1410	8	29.540	0	950.133	0	10.2	4	3.3	4	-1E+10	1	-1E+10	1	-1E+10	1	-1E+10	1	-1E+10	1	-1E+10	1
4901784	199	C	12/15/2020	10:42	-134.115	43.605	0	965.40	0	3.6050	0	37.1420	8	29.542	0	955.465	0	10.2	4	3.3	4	-1E+10	1	-1E+10	1	-1E+10	1	-1E+10	1	-1E+10	1	-1E+10	1
4901784	199	C	12/15/2020	10:42	-134.115	43.605	0	969.90	0	3.5770	0	37.1440	8	29.547	0	959.908	0	10.2	4	3.3	4	-1E+10	1	-1E+10	1	-1E+10	1	-1E+10	1	-1E+10	1	-1E+10	1
4901784	199	C	12/15/2020	10:42	-134.115	43.605	0	974.50	0	3.5630	0	37.1470	8	29.551	0	964.450	0	10.2	4	3.3	4	-1E+10	1	-1E+10	1	-1E+10	1	-1E+10	1	-1E+10	1	-1E+10	1
4901784	199	C	12/15/2020	10:42	-134.115	43.605	0	980.00	0	3.5430	0	37.1490	8	29.554	0	969.881	0	10.2	4	3.3	4	-1E+10	1	-1E+10	1	-1E+10	1	-1E+10	1	-1E+10	1	-1E+10	1
4901784	199	C	12/15/2020	10:42	-134.115	43.605	0	985.50	0	3.5330	0	37.1510	8	29.557	0	975.311	0	10.3	4	3.3	4	-1E+10	1	-1E+10	1	-1E+10	1	-1E+10	1	-1E+10	1	-1E+10	1
4901784	199	C	12/15/2020	10:42	-134.115	43.605	0	990.20	0	3.5250	0	37.1530	8	29.559	0	979.952	0	10.3	4	3.3	4	-1E+10	1	-1E+10	1	-1E+10	1	-1E+10	1	-1E+10	1	-1E+10	1
4901784	199	C	12/15/2020	10:42	-134.115	43.605	0	994.80	0	3.5170	0	37.1540	8	29.561	0	984.493	0	10.3	4	3.3	4	-1E+10	1	-1E+10	1	-1E+10	1	-1E+10	1	-1E+10	1	-1E+10	1
4901784	199	C	12/15/2020	10:42	-134.115	43.605	0	1000.40	0	3.4960	0	37.1590	8	29.567	0	990.022	0	10.4	4	3.3	4	-1E+10	1	-1E+10	1	-1E+10	1	-1E+10	1	-1E+10	1	-1E+10	1
4901784	199	C	12/15/2020	10:42	-134.115	43.605	0	1005.10	0	3.4830	0	37.1630	8	29.572	0	994.662	0	10.5	4	3.4	4	-1E+10	1	-1E+10	1	-1E+10	1	-1E+10	1	-1E+10	1	-1E+10	1
4901784	199	C	12/15/2020	10:42	-134.115	43.605	0	1009.80	0	3.4730	0	37.1660	8	29.575	0	999.302	0	10.6	4	3.4	4	-1E+10	1	-1E+10	1	-1E+10	1	-1E+10	1	-1E+10	1	-1E+10	1
4901784	199	C	12/15/2020	10:42	-134.115	43.605	0	1015.40	0	3.4630	0	37.1670	8	29.577	0	1004.831	0	10.7	4	3.4	4	-1E+10	1	-1E+10	1	-1E+10	1	-1E+10	1	-1E+10	1	-1E+10	1
4901784	199	C	12/15/2020	10:42	-134.115	43.605	0	1020.10	0	3.4420	0	37.1730	8	29.584	0	1009.470	0	10.8	4	3.4	4	-1E+10	1	-1E+10	1	-1E+10	1	-1E+10	1	-1E+10	1	-1E+10	1
4901784	199	C	12/15/2020	10:42	-134.115	43.605	0	1024.80	0	3.4320	0	37.1750	8	29.587	0	1014.110	0	10.9	4	3.5	4	-1E+10	1	-1E+10	1	-1E+10	1	-1E+10	1	-1E+10	1	-1E+10	1
4901784	199	C	12/15/2020	10:42	-134.115	43.605	0	1030.50	0	3.4180	0	37.1790	8	29.592	0	1019.737	0	11.0	4	3.5	4	-1E+10	1	-1E+10	1	-1E+10	1	-1E+10	1	-1E+10	1	-1E+10	1
4901784	199	C	12/15/2020	10:42	-134.115	43.605	0	1035.90	0	3.4060	0	37.1820	8	29.595	0	1025.067	0	11.1	4	3.5	4	-1E+10	1	-1E+10	1	-1E+10	1	-1E+10	1	-1E+10	1	-1E+10	1
4901784	199	C	12/15/2020	10:42	-134.115	43.605	0	1040.30	0	3.4000	0	37.1840	8	29.597	0	1029.410	0	11.1	4	3.5	4	-1E+10	1	-1E+10	1	-1E+10	1	-1E+10	1	-1E+10	1	-1E+10	1
4901784	199	C	12/15/2020	10:42	-134.115	43.605	0	1045.20	0	3.3900	0	37.1860	8	29.600	0	1034.247	0	11.2	4	3.6	4	-1E+10	1	-1E+10	1	-1E+10	1	-1E+10	1	-1E+10	1	-1E+10	1
4901784	199	C	12/15/2020	10:42	-134.115	43.605	0	1050.00	0	3.3850	0	37.1880	8	29.602	0	1038.985	0	11.3	4	3.6	4	-1E+10	1	-1E+10	1	-1E+10	1	-1E+10	1	-1E+10	1	-1E+10	1
4901784	199	C	12/15/2020	10:42	-134.115	43.605	0	1054.90	0	3.3820	0	37.1920	8	29.606	0	1043.821	0	11.5	4	3.7	4	-1E+10	1	-1E+10	1	-1E+10	1	-1E+10	1	-1E+10	1	-1E+10	1
4901784	199	C	12/15/2020	10:42	-134.115	43.605	0	1059.80	0	3.3720	0	37.1930	8	29.608	0	1048.658	0	11.5	4	3.7	4	-1E+10	1	-1E+10	1	-1E+10	1	-1E+10	1	-1E+10	1	-1E+10	1
4901784	199	C	12/15/2020	10:42	-134.115	43.605	0	1064.70	0	3.3580	0	37.1950	8	29.611	0	1053.494	0	11.5	4	3.7	4	-1E+10	1	-1E+10	1	-1E+10	1	-1E+10	1	-1E+10	1	-1E+10	1
4901784	199	C	12/15/2020	10:42	-134.115	43.605	0	1069.60	0	3.3440	0	37.1970	8	29.614	0	1058.330	0	11.6	4	3.7	4	-1E+10	1	-1E+10	1	-1E+10	1	-1E+10	1	-1E+10	1	-1E+10	1
4901784	199	C	12/15/2020	10:42	-134.115	43.605	0	1074.60	0	3.3340	0	37.1990	8	29.616	0	1063.264	0	11.7	4	3.7	4	-1E+10	1	-1E+10	1	-1E+10	1	-1E+10	1	-1E+10	1	-1E+10	1
4901784	199	C	12/15/2020	10:42	-134.115	43.605	0	1079.60	0	3.3230	0	37.2020	8	29.620	0	1068.199	0	11.8	4	3.7	4	-1E+10	1	-1E+10	1	-1E+10	1	-1E+10	1	-1E+10	1	-1E+10	1
4901784	199	C	12/15/2020	10:42	-134.115	43.605	0	1084.60	0	3.3230	0	37.2030	8	29.621	0	1073.133	0	11.9	4	3.8	4	-1E+10	1	-1E+10	1	-1E+10	1	-1E+10	1	-1E+10	1	-1E+10	1
4901784	199	C	12/15/2020	10:42	-134.115	43.605	0	1089.60	0	3.3150	0	37.2050	8	29.623	0	1078.068	0	12.0	4	3.8	4	-1E+10	1	-1E+10	1	-1E+10	1	-1E+10	1	-1E+10	1	-1E+10	1
4901784	199	C	12/15/2020	10:42	-134.115	43.605	0	1094.60	0	3.3160	0	37.2080	8	29.626	0	1083.002	0	12.2	4	3.9	4	-1E+10	1	-1E+10	1	-1E+10	1	-1E+10	1	-1E+10	1	-1E+10	1
4901784	199	C	12/15/2020	10:42	-134.115	43.605	0	1099.60	0	3.3000	0	37.2090	8	29.628	0	1087.936	0	12.1	4	3.9	4	-1E+10	1	-1E+10	1	-1E+10	1	-1E+10	1	-1E+10	1	-1E+10	1
4901784	199	C	12/15/2020	10:42	-134.115	43.605	0	1104.70	0	3.2900	0	37.2100	8	29.630	0	1092.968	0	12.2	4	3.9	4	-1E+10	1	-1E+10	1	-1E+10	1	-1E+10	1	-1E+10	1	-1E+10	1
4901784	199	C	12/15/2020	10:42	-134.115	43.605	0	1109.90	0	3.2820	0	37.2110	8	29.632	0	1098.100	0	12.3	4	3.9	4	-1E+10	1	-1E+10	1	-1E+10	1	-1E+10	1	-1E+10	1	-1E+10	1
4901784	199	C	12/15/2020	10:42	-134.115	43.605	0	1115.00	0	3.2670	0	37.2140	8	29.635	0	1103.132	0	12.4	4	3.9	4	-1E+10	1	-1E+10	1	-1E+10	1	-1E+10	1	-1E+10	1	-1E+10	1
4901784	199	C	12/15/2020	10:42	-134.115	43.605	0	1120.20	0	3.2580	0	37.2160	8	29.638	0	1108.263	0	12.5	4	4.0	4	-1E+10	1	-1E+10	1	-1E+10	1	-1E+10	1	-1E+10	1	-1E+10	1
4901784	199	C	12/15/2020	10:42	-134.115	43.605	0	1125.30	0	3.2500	0	37.2170	8	29.640	0	1113.295	0	12.6	4	4.0	4	-1E+10	1	-1E+10	1	-1E+10	1	-1E+10	1	-1E+10	1	-1E+10	1
4901784	199	C	12/15/2020	10:42	-134.115	43.605	0	1130.60	0	3.2330	0	37.2210	8	29.645	0	1118.524	0	12.7	4	4.0	4	-1E+10	1	-1E+10	1	-1E+10	1	-1E+10	1	-1E+10	1	-1E+10	1
4901784	199	C	12/15/2020	10:42	-134.115	43.605	0	1135.00	0	3.2270	0	37.2220	8	29.646	0	1122.866	0	12.9	4	4.1	4	-1E+10	1	-1E+10	1	-1E+10	1	-1E+10	1	-1E+10	1	-1E+10	1
4901784	199	C	12/15/2020	10:42	-134.115	43.605	0	1139.40	0	3.2170	0	37.2240	8	29.649	0	1127.207	0	13.0	4	4.1	4	-1E+10	1	-1E+10	1	-1E+10	1	-1E+10	1	-1E+10	1	-1E+10	1
4901784	199	C	12/15/2020	10:42	-134.115	43.605	0	1144.60	0	3.2050	0	37.2270	8	29.652	0	1132.337	0	13.2	4	4.2	4	-1E+10	1	-1E+10	1	-1E+10	1	-1E+10	1	-1E+10	1	-1E+10	1
4901784	199	C	12/15/2020	10:42	-134.115	43.605	0	1150.00	0	3.1880	0	37.2300	8	29.656	0	1137.665	0	13.3	4	4.2	4	-1E+10	1	-1E+10	1	-1E+10	1	-1E+10	1	-1E+10	1	-1E+10	1
4901784	199	C	12/15/2020	10:42	-134.115	43.605	0	1155.30	0	3.1780	0	37.2320	8	29.659	0	1142.894	0	13.5	4	4.3	4	-1E+10	1	-1E+10	1	-1E+10	1	-1E+10	1	-1E+10	1	-1E+10	1
4901784	199	C	12/15/2020	10:42	-134.115	43.605	0	1160.60	0	3.1730	0	37.2350	8	29.662	0	1148.122	0	13.8	4	4.4	4	-1E+10	1	-1E+10	1	-1E+10	1	-1E+10	1	-1E+10	1	-1E+10	1
4901784	199	C	12/15/2020	10:42	-134.115	43.605	0	1165.00	0	3.1610	0	37.2370	8	29.665	0	1152.463	0	13.8	4	4.4	4	-1E+10	1	-1E+10	1	-1E+10	1	-1E+10	1	-1E+10	1	-1E+10	1
4901784	199	C	12/15/2020	10:42	-134.115	43.605	0	1169.50	0	3.1520	0	37.2380	8	29.667	0	1156.902	0	13.9	4	4.4	4	-1E+10	1	-1E+10	1	-1E+10	1	-1E+10	1	-1E+10	1	-1E+10	1
4901784	199	C	12/15/2020	10:42	-134.115	43.605	0	1174.90	0	3.1430	0	37.2410	8	29.670	0	1162.229	0	14.2	4	4.5	4	-1E+10	1	-1E+10	1	-1E+10	1	-1E+10	1	-1E+10	1	-1E+10	1
4901784	199	C	12/15/2020	10:42	-134.115	43.605	0	1180.20	0	3.1370	0	37.2430	8	29.672	0	1167.457	0	14.4	4	4.6	4	-1E+10	1	-1E+10	1	-1E+10	1	-1E+10	1	-1E+10	1	-1E+10	1
4901784	199	C	12/15/2020	10:42	-134.115	43.605	0	1185.70	0	3.1230	0	37.2460	8	29.676	0	1172.882	0	14.7	4	4.6	4	-1E+10	1	-1E+10	1	-1E+10	1	-1E+10	1	-1E+10	1	-1E+10	1
4901784	199	C	12/15/2020	10:42	-134.115	43.605	0	1190.20	0	3.1160	0	37.2470	8	29.678	0	1177.321	0	14.8	4	4.7	4	-1E+10	1	-1E+10	1	-1E+10	1	-1E+10	1	-1E+10	1	-1E+10	1
4901784	199	C	12/15/2020	10:42	-134.115	43.605	0	1194.80	0	3.1040	0	37.2500	8	29.681	0	1181.858	0	15.0	4	4.8	4	-1E+10	1	-1E+10	1	-1E+10	1	-1E+10	1	-1E+10	1	-1E+10	1
4901784	199	C	12/15/2020	10:42	-134.115	43.605	0	1200.20	0	3.0870	0	37.2530	8	29.685	0	1187.185	0	15.2	4	4.8	4	-1E+10	1	-1E+10	1	-1E+10	1	-1E+10	1	-1E+10	1	-1E+10	1
4901784	199	C	12/15/2020	10:42	-134.115	43.605	0	1204.80	0	3.0770	0	37.2540	8	29.687	0	1191.722	0	15.4	4	4.9	4	-1E+10	1	-1E+10	1	-1E+10	1	-1E+10	1	-1E+10	1	-1E+10	1
4901784	199	C	12/15/2020	10:42	-134.115	43.605	0	1209.40	0	3.0620	0	37.2570	8	29.691	0	1196.259	0	15.6	4	4.9	4	-1E+10	1	-1E+10	1	-1E+10	1	-1E+10	1	-1E+10	1	-1E+10	1
4901784	199	C	12/15/2020	10:42	-134.115	43.605	0	1215.00	0	3.0560	0	37.2590	8	29.693	0	1201.782	0	15.7	4	5.0	4	-1E+10	1	-1E+10	1	-1E+10	1	-1E+10	1	-1E+10	1	-1E+10	1
4901784	199	C	12/15/2020	10:42	-134.115	43.605	0	1220.50	0	3.0430	0	37.2610	8	29.696	0	1207.206	0	15.8	4	5.0	4	-1E+10	1	-1E+10	1	-1E+10	1	-1E+10	1	-1E+10	1	-1E+10	1
4901784	199	C	12/15/2020	10:42	-134.115	43.605	0	1225.10	0	3.0220	0	37.2620	8	29.699	0	1211.743	0	15.9	4	5.0	4	-1E+10	1	-1E+10	1	-1E+10	1	-1E+10	1	-1E+10	1	-1E+10	1
4901784	199	C	12/15/2020	10:42	-134.115	43.605	0	1229.70	0	3.0140	0	37.2640	8	29.701	0	1216.279	0	16.1	4	5.1	4	-1E+10	1	-1E+10	1	-1E+10	1	-1E+10	1	-1E+10	1	-1E+10	1
4901784	199	C	12/15/2020	10:42	-134.115	43.605	0	1235.00	0	3.0080	0	37.2660	8	29.704	0	1221.506	0	16.3	4	5.1	4	-1E+10	1	-1E+10	1	-1E+10	1	-1E+10	1	-1E+10	1	-1E+10	1
4901784	199	C	12/15/2020	10:42	-134.115	43.605	0	1240.00	0	2.9940	0	37.2670	8	29.706	0	1226.437	0	16.4	4	5.2	4	-1E+10	1	-1E+10	1	-1E+10	1	-1E+10	1	-1E+10	1	-1E+10	1
4901784	199	C	12/15/2020	10:42	-134.115	43.605	0	1245.70	0	2.9780	0	37.2690	8	29.709	0	1232.058	0	16.6	4	5.2	4	-1E+10	1	-1E+10	1	-1E+10	1	-1E+10	1	-1E+10	1	-1E+10	1
4901784	199	C	12/15/2020	10:42	-134.115	43.605	0	1250.60	0	2.9570	0	37.2710	8	29.713	0	1236.890	0	16.6	4	5.2	4	-1E+10	1	-1E+10	1	-1E+10	1	-1E+10	1	-1E+10	1	-1E+10	1
4901784	199	C	12/15/2020	10:42	-134.115	43.605	0	1255.60	0	2.9330	0	37.2740	8	29.717	0	1241.820	0	16.7	4	5.3	4	-1E+10	1	-1E+10	1	-1E+10	1	-1E+10	1	-1E+10	1	-1E+10	1
4901784	199	C	12/15/2020	10:42	-134.115	43.605	0	1260.60	0	2.9250	0	37.2750	8	29.719	0	1246.751	0	17.0	4	5.4	4	-1E+10	1	-1E+10	1	-1E+10	1	-1E+10	1	-1E+10	1	-1E+10	1
4901784	199	C	12/15/2020	10:42	-134.115	43.605	0	1265.60	0	2.9060	0	37.2790	8	29.724	0	1251.681	0	17.3	4	5.5	4	-1E+10	1	-1E+10	1	-1E+10	1	-1E+10	1	-1E+10	1	-1E+10	1
4901784	199	C	12/15/2020	10:42	-134.115	43.605	0	1270.50	0	2.9050	0	37.2800	8	29.725	0	1256.512	0	17.6	4	5.5	4	-1E+10	1	-1E+10	1	-1E+10	1	-1E+10	1	-1E+10	1	-1E+10	1
4901784	199	C	12/15/2020	10:42	-134.115	43.605	0	1275.60	0	2.8990	0	37.2820	8	29.727	0	1261.541	0	17.9	4	5.6	4	-1E+10	1	-1E+10	1	-1E+10	1	-1E+10	1	-1E+10	1	-1E+10	1
4901784	199	C	12/15/2020	10:42	-134.115	43.605	0	1280.70	0	2.8870	0	37.2850	8	29.731	0	1266.569	0	18.2	4	5.7	4	-1E+10	1	-1E+10	1	-1E+10	1	-1E+10	1	-1E+10	1	-1E+10	1
4901784	199	C	12/15/2020	10:42	-134.115	43.605	0	1284.90	0	2.8780	0	37.2860	8	29.733	0	1270.711	0	18.4	4	5.8	4	-1E+10	1	-1E+10	1	-1E+10	1	-1E+10	1	-1E+10	1	-1E+10	1
4901784	199	C	12/15/2020	10:42	-134.115	43.605	0	1289.30	0	2.8730	0	37.2880	8	29.735	0	1275.049	0	18.7	4	5.9	4	-1E+10	1	-1E+10	1	-1E+10	1	-1E+10	1	-1E+10	1	-1E+10	1
4901784	199	C	12/15/2020	10:42	-134.115	43.605	0	1294.40	0	2.8610	0	37.2900	8	29.737	0	1280.077	0	18.8	4	5.9	4	-1E+10	1	-1E+10	1	-1E+10	1	-1E+10	1	-1E+10	1	-1E+10	1
4901784	199	C	12/15/2020	10:42	-134.115	43.605	0	1299.70	0	2.8540	0	37.2910	8	29.739	0	1285.302	0	19.0	4	6.0	4	-1E+10	1	-1E+10	1	-1E+10	1	-1E+10	1	-1E+10	1	-1E+10	1
4901784	199	C	12/15/2020	10:42	-134.115	43.605	0	1305.00	0	2.8460	0	37.2940	8	29.742	0	1290.527	0	19.2	4	6.0	4	-1E+10	1	-1E+10	1	-1E+10	1	-1E+10	1	-1E+10	1	-1E+10	1
4901784	199	C	12/15/2020	10:42	-134.115	43.605	0	1310.20	0	2.8410	0	37.2940	8	29.743	0	1295.653	0	19.2	4	6.0	4	-1E+10	1	-1E+10	1	-1E+10	1	-1E+10	1	-1E+10	1	-1E+10	1
4901784	199	C	12/15/2020	10:42	-134.115	43.605	0	1315.50	0	2.8350	0	37.2940	8	29.743	0	1300.878	0	19.2	4	6.0	4	-1E+10	1	-1E+10	1	-1E+10	1	-1E+10	1	-1E+10	1	-1E+10	1
4901784	199	C	12/15/2020	10:42	-134.115	43.605	0	1319.90	0	2.8260	0	37.2950	8	29.745	0	1305.216	0	19.3	4	6.1	4	-1E+10	1	-1E+10	1	-1E+10	1	-1E+10	1	-1E+10	1	-1E+10	1
4901784	199	C	12/15/2020	10:42	-134.115	43.605	0	1324.50	0	2.8200	0	37.2960	8	29.746	0	1309.750	0	19.5	4	6.1	4	-1E+10	1	-1E+10	1	-1E+10	1	-1E+10	1	-1E+10	1	-1E+10	1
4901784	199	C	12/15/2020	10:42	-134.115	43.605	0	1329.90	0	2.8070	0	37.2980	8	29.749	0	1315.073	0	19.7	4	6.2	4	-1E+10	1	-1E+10	1	-1E+10	1	-1E+10	1	-1E+10	1	-1E+10	1
4901784	199	C	12/15/2020	10:42	-134.115	43.605	0	1335.50	0	2.7940	0	37.3000	8	29.752	0	1320.593	0	19.8	4	6.2	4	-1E+10	1	-1E+10	1	-1E+10	1	-1E+10	1	-1E+10	1	-1E+10	1
4901784	199	C	12/15/2020	10:42	-134.115	43.605	0	1340.10	0	2.7880	0	37.3020	8	29.754	0	1325.127	0	20.0	4	6.3	4	-1E+10	1	-1E+10	1	-1E+10	1	-1E+10	1	-1E+10	1	-1E+10	1
4901784	199	C	12/15/2020	10:42	-134.115	43.605	0	1344.70	0	2.7800	0	37.3030	8	29.756	0	1329.661	0	20.1	4	6.3	4	-1E+10	1	-1E+10	1	-1E+10	1	-1E+10	1	-1E+10	1	-1E+10	1
4901784	199	C	12/15/2020	10:42	-134.115	43.605	0	1350.00	0	2.7680	0	37.3040	8	29.758	0	1334.885	0	20.1	4	6.3	4	-1E+10	1	-1E+10	1	-1E+10	1	-1E+10	1	-1E+10	1	-1E+10	1
4901784	199	C	12/15/2020	10:42	-134.115	43.605	0	1355.00	0	2.7590	0	37.3050	8	29.760	0	1339.814	0	20.2	4	6.3	4	-1E+10	1	-1E+10	1	-1E+10	1	-1E+10	1	-1E+10	1	-1E+10	1
4901784	199	C	12/15/2020	10:42	-134.115	43.605	0	1360.80	0	2.7480	0	37.3070	8	29.762	0	1345.530	0	20.7	4	6.5	4	-1E+10	1	-1E+10	1	-1E+10	1	-1E+10	1	-1E+10	1	-1E+10	1
4901784	199	C	12/15/2020	10:42	-134.115	43.605	0	1365.00	0	2.7450	0	37.3090	8	29.764	0	1349.670	0	21.1	4	6.6	4	-1E+10	1	-1E+10	1	-1E+10	1	-1E+10	1	-1E+10	1	-1E+10	1
4901784	199	C	12/15/2020	10:42	-134.115	43.605	0	1369.50	0	2.7450	0	37.3110	8	29.766	0	1354.105	0	21.3	4	6.7	4	-1E+10	1	-1E+10	1	-1E+10	1	-1E+10	1	-1E+10	1	-1E+10	1
4901784	199	C	12/15/2020	10:42	-134.115	43.605	0	1375.00	0	2.7350	0	37.3110	8	29.767	0	1359.525	0	21.3	4	6.7	4	-1E+10	1	-1E+10	1	-1E+10	1	-1E+10	1	-1E+10	1	-1E+10	1
4901784	199	C	12/15/2020	10:42	-134.115	43.605	0	1380.40	0	2.7240	0	37.3120	8	29.769	0	1364.847	0	21.7	4	6.8	4	-1E+10	1	-1E+10	1	-1E+10	1	-1E+10	1	-1E+10	1	-1E+10	1
4901784	199	C	12/15/2020	10:42	-134.115	43.605	0	1384.90	0	2.7190	0	37.3150	8	29.772	0	1369.281	0	22.0	4	6.9	4	-1E+10	1	-1E+10	1	-1E+10	1	-1E+10	1	-1E+10	1	-1E+10	1
4901784	199	C	12/15/2020	10:42	-134.115	43.605	0	1389.50	0	2.7150	0	37.3150	8	29.772	0	1373.815	0	22.3	4	7.0	4	-1E+10	1	-1E+10	1	-1E+10	1	-1E+10	1	-1E+10	1	-1E+10	1
4901784	199	C	12/15/2020	10:42	-134.115	43.605	0	1395.00	0	2.7090	0	37.3180	8	29.775	0	1379.235	0	22.8	4	7.2	4	-1E+10	1	-1E+10	1	-1E+10	1	-1E+10	1	-1E+10	1	-1E+10	1
4901784	199	C	12/15/2020	10:42	-134.115	43.605	0	1400.60	0	2.7070	0	37.3190	8	29.776	0	1384.753	0	23.1	4	7.3	4	-1E+10	1	-1E+10	1	-1E+10	1	-1E+10	1	-1E+10	1	-1E+10	1
4901784	199	C	12/15/2020	10:42	-134.115	43.605	0	1405.20	0	2.7010	0	37.3210	8	29.778	0	1389.286	0	23.4	4	7.3	4	-1E+10	1	-1E+10	1	-1E+10	1	-1E+10	1	-1E+10	1	-1E+10	1
4901784	199	C	12/15/2020	10:42	-134.115	43.605	0	1409.70	0	2.6950	0	37.3220	8	29.780	0	1393.720	0	23.6	4	7.4	4	-1E+10	1	-1E+10	1	-1E+10	1	-1E+10	1	-1E+10	1	-1E+10	1
4901784	199	C	12/15/2020	10:42	-134.115	43.605	0	1415.30	0	2.6870	0	37.3240	8	29.782	0	1399.238	0	23.8	4	7.4	4	-1E+10	1	-1E+10	1	-1E+10	1	-1E+10	1	-1E+10	1	-1E+10	1
4901784	199	C	12/15/2020	10:42	-134.115	43.605	0	1419.90	0	2.6780	0	37.3250	8	29.784	0	1403.770	0	23.8	4	7.5	4	-1E+10	1	-1E+10	1	-1E+10	1	-1E+10	1	-1E+10	1	-1E+10	1
4901784	199	C	12/15/2020	10:42	-134.115	43.605	0	1424.60	0	2.6740	0	37.3250	8	29.784	0	1408.401	0	24.0	4	7.5	4	-1E+10	1	-1E+10	1	-1E+10	1	-1E+10	1	-1E+10	1	-1E+10	1
4901784	199	C	12/15/2020	10:42	-134.115	43.605	0	1430.30	0	2.6710	0	37.3260	8	29.785	0	1414.017	0	24.2	4	7.6	4	-1E+10	1	-1E+10	1	-1E+10	1	-1E+10	1	-1E+10	1	-1E+10	1
4901784	199	C	12/15/2020	10:42	-134.115	43.605	0	1435.00	0	2.6600	0	37.3280	8	29.788	0	1418.648	0	24.6	4	7.7	4	-1E+10	1	-1E+10	1	-1E+10	1	-1E+10	1	-1E+10	1	-1E+10	1
4901784	199	C	12/15/2020	10:42	-134.115	43.605	0	1439.70	0	2.6510	0	37.3290	8	29.790	0	1423.279	0	24.6	4	7.7	4	-1E+10	1	-1E+10	1	-1E+10	1	-1E+10	1	-1E+10	1	-1E+10	1
4901784	199	C	12/15/2020	10:42	-134.115	43.605	0	1445.30	0	2.6410	0	37.3300	8	29.791	0	1428.796	0	24.9	4	7.8	4	-1E+10	1	-1E+10	1	-1E+10	1	-1E+10	1	-1E+10	1	-1E+10	1
4901784	199	C	12/15/2020	10:42	-134.115	43.605	0	1450.10	0	2.6320	0	37.3320	8	29.794	0	1433.525	0	25.2	4	7.9	4	-1E+10	1	-1E+10	1	-1E+10	1	-1E+10	1	-1E+10	1	-1E+10	1
4901784	199	C	12/15/2020	10:42	-134.115	43.605	0	1454.80	0	2.6230	0	37.3340	8	29.796	0	1438.155	0	25.5	4	8.0	4	-1E+10	1	-1E+10	1	-1E+10	1	-1E+10	1	-1E+10	1	-1E+10	1
4901784	199	C	12/15/2020	10:42	-134.115	43.605	0	1459.60	0	2.6170	0	37.3360	8	29.799	0	1442.884	0	25.8	4	8.1	4	-1E+10	1	-1E+10	1	-1E+10	1	-1E+10	1	-1E+10	1	-1E+10	1
4901784	199	C	12/15/2020	10:42	-134.115	43.605	0	1464.50	0	2.6090	0	37.3370	8	29.800	0	1447.711	0	25.9	4	8.1	4	-1E+10	1	-1E+10	1	-1E+10	1	-1E+10	1	-1E+10	1	-1E+10	1
4901784	199	C	12/15/2020	10:42	-134.115	43.605	0	1470.30	0	2.5990	0	37.3380	8	29.802	0	1453.424	0	26.1	4	8.2	4	-1E+10	1	-1E+10	1	-1E+10	1	-1E+10	1	-1E+10	1	-1E+10	1
4901784	199	C	12/15/2020	10:42	-134.115	43.605	0	1475.20	0	2.5930	0	37.3390	8	29.803	0	1458.251	0	26.3	4	8.2	4	-1E+10	1	-1E+10	1	-1E+10	1	-1E+10	1	-1E+10	1	-1E+10	1
4901784	199	C	12/15/2020	10:42	-134.115	43.605	0	1480.10	0	2.5860	0	37.3400	8	29.805	0	1463.078	0	26.5	4	8.3	4	-1E+10	1	-1E+10	1	-1E+10	1	-1E+10	1	-1E+10	1	-1E+10	1
4901784	199	C	12/15/2020	10:42	-134.115	43.605	0	1485.10	0	2.5790	0	37.3420	8	29.807	0	1468.003	0	26.8	4	8.4	4	-1E+10	1	-1E+10	1	-1E+10	1	-1E+10	1	-1E+10	1	-1E+10	1
4901784	199	C	12/15/2020	10:42	-134.115	43.605	0	1489.90	0	2.5750	0	37.3430	8	29.808	0	1472.731	0	27.0	4	8.4	4	-1E+10	1	-1E+10	1	-1E+10	1	-1E+10	1	-1E+10	1	-1E+10	1
4901784	199	C	12/15/2020	10:42	-134.115	43.605	0	1495.60	0	2.5710	0	37.3440	8	29.809	0	1478.346	0	27.5	4	8.6	4	-1E+10	1	-1E+10	1	-1E+10	1	-1E+10	1	-1E+10	1	-1E+10	1
4901784	199	C	12/15/2020	10:42	-134.115	43.605	0	1500.10	0	2.5630	0	37.3460	8	29.812	0	1482.778	0	27.8	4	8.7	4	-1E+10	1	-1E+10	1	-1E+10	1	-1E+10	1	-1E+10	1	-1E+10	1
4901784	199	C	12/15/2020	10:42	-134.115	43.605	0	1504.60	0	2.5560	0	37.3470	8	29.813	0	1487.210	0	28.1	4	8.8	4	-1E+10	1	-1E+10	1	-1E+10	1	-1E+10	1	-1E+10	1	-1E+10	1
4901784	199	C	12/15/2020	10:42	-134.115	43.605	0	1510.00	0	2.5510	0	37.3490	8	29.815	0	1492.529	0	28.5	4	8.9	4	-1E+10	1	-1E+10	1	-1E+10	1	-1E+10	1	-1E+10	1	-1E+10	1
4901784	199	C	12/15/2020	10:42	-134.115	43.605	0	1515.50	0	2.5410	0	37.3500	8	29.817	0	1497.946	0	28.8	4	9.0	4	-1E+10	1	-1E+10	1	-1E+10	1	-1E+10	1	-1E+10	1	-1E+10	1
4901784	199	C	12/15/2020	10:42	-134.115	43.605	0	1520.00	0	2.5350	0	37.3510	8	29.819	0	1502.377	0	29.0	4	9.0	4	-1E+10	1	-1E+10	1	-1E+10	1	-1E+10	1	-1E+10	1	-1E+10	1
4901784	199	C	12/15/2020	10:42	-134.115	43.605	0	1524.60	0	2.5280	0	37.3520	8	29.820	0	1506.908	0	29.1	4	9.1	4	-1E+10	1	-1E+10	1	-1E+10	1	-1E+10	1	-1E+10	1	-1E+10	1
4901784	199	C	12/15/2020	10:42	-134.115	43.605	0	1530.00	0	2.5160	0	37.3530	8	29.822	0	1512.226	0	29.3	4	9.1	4	-1E+10	1	-1E+10	1	-1E+10	1	-1E+10	1	-1E+10	1	-1E+10	1
4901784	199	C	12/15/2020	10:42	-134.115	43.605	0	1535.50	0	2.5040	0	37.3550	8	29.825	0	1517.642	0	29.8	4	9.3	4	-1E+10	1	-1E+10	1	-1E+10	1	-1E+10	1	-1E+10	1	-1E+10	1
4901784	199	C	12/15/2020	10:42	-134.115	43.605	0	1540.10	0	2.5030	0	37.3560	8	29.826	0	1522.172	0	30.3	4	9.5	4	-1E+10	1	-1E+10	1	-1E+10	1	-1E+10	1	-1E+10	1	-1E+10	1
4901784	199	C	12/15/2020	10:42	-134.115	43.605	0	1544.70	0	2.4970	0	37.3580	8	29.828	0	1526.702	0	30.7	4	9.6	4	-1E+10	1	-1E+10	1	-1E+10	1	-1E+10	1	-1E+10	1	-1E+10	1
4901784	199	C	12/15/2020	10:42	-134.115	43.605	0	1550.20	0	2.4880	0	37.3590	8	29.829	0	1532.118	0	31.0	4	9.7	4	-1E+10	1	-1E+10	1	-1E+10	1	-1E+10	1	-1E+10	1	-1E+10	1
4901784	199	C	12/15/2020	10:42	-134.115	43.605	0	1554.90	0	2.4800	0	37.3610	8	29.832	0	1536.746	0	31.2	4	9.7	4	-1E+10	1	-1E+10	1	-1E+10	1	-1E+10	1	-1E+10	1	-1E+10	1
4901784	199	C	12/15/2020	10:42	-134.115	43.605	0	1560.10	0	2.4670	0	37.3620	8	29.834	0	1541.866	0	31.5	4	9.8	4	-1E+10	1	-1E+10	1	-1E+10	1	-1E+10	1	-1E+10	1	-1E+10	1
4901784	199	C	12/15/2020	10:42	-134.115	43.605	0	1565.20	0	2.4590	0	37.3630	8	29.835	0	1546.888	0	31.7	4	9.9	4	-1E+10	1	-1E+10	1	-1E+10	1	-1E+10	1	-1E+10	1	-1E+10	1
4901784	199	C	12/15/2020	10:42	-134.115	43.605	0	1570.00	0	2.4500	0	37.3640	8	29.837	0	1551.614	0	31.9	4	9.9	4	-1E+10	1	-1E+10	1	-1E+10	1	-1E+10	1	-1E+10	1	-1E+10	1
4901784	199	C	12/15/2020	10:42	-134.115	43.605	0	1574.90	0	2.4380	0	37.3650	8	29.839	0	1556.439	0	32.1	4	10.0	4	-1E+10	1	-1E+10	1	-1E+10	1	-1E+10	1	-1E+10	1	-1E+10	1
4901784	199	C	12/15/2020	10:42	-134.115	43.605	0	1579.80	0	2.4210	0	37.3670	8	29.842	0	1561.264	0	32.2	4	10.0	4	-1E+10	1	-1E+10	1	-1E+10	1	-1E+10	1	-1E+10	1	-1E+10	1
4901784	199	C	12/15/2020	10:42	-134.115	43.605	0	1584.70	0	2.4010	0	37.3680	8	29.845	0	1566.088	0	32.3	4	10.1	4	-1E+10	1	-1E+10	1	-1E+10	1	-1E+10	1	-1E+10	1	-1E+10	1
4901784	199	C	12/15/2020	10:42	-134.115	43.605	0	1589.70	0	2.3960	0	37.3690	8	29.846	0	1571.011	0	32.5	4	10.1	4	-1E+10	1	-1E+10	1	-1E+10	1	-1E+10	1	-1E+10	1	-1E+10	1
4901784	199	C	12/15/2020	10:42	-134.115	43.605	0	1594.60	0	2.3880	0	37.3700	8	29.848	0	1575.835	0	32.9	4	10.2	4	-1E+10	1	-1E+10	1	-1E+10	1	-1E+10	1	-1E+10	1	-1E+10	1
4901784	199	C	12/15/2020	10:42	-134.115	43.605	0	1599.60	0	2.3790	0	37.3720	8	29.850	0	1580.757	0	33.1	4	10.3	4	-1E+10	1	-1E+10	1	-1E+10	1	-1E+10	1	-1E+10	1	-1E+10	1
4901784	199	C	12/15/2020	10:42	-134.115	43.605	0	1604.70	0	2.3710	0	37.3730	8	29.852	0	1585.778	0	33.3	4	10.4	4	-1E+10	1	-1E+10	1	-1E+10	1	-1E+10	1	-1E+10	1	-1E+10	1
4901784	199	C	12/15/2020	10:42	-134.115	43.605	0	1609.80	0	2.3670	0	37.3740	8	29.853	0	1590.799	0	33.5	4	10.4	4	-1E+10	1	-1E+10	1	-1E+10	1	-1E+10	1	-1E+10	1	-1E+10	1
4901784	199	C	12/15/2020	10:42	-134.115	43.605	0	1614.90	0	2.3620	0	37.3740	8	29.853	0	1595.819	0	33.8	4	10.5	4	-1E+10	1	-1E+10	1	-1E+10	1	-1E+10	1	-1E+10	1	-1E+10	1
4901784	199	C	12/15/2020	10:42	-134.115	43.605	0	1620.10	0	2.3550	0	37.3750	8	29.855	0	1600.938	0	34.2	4	10.6	4	-1E+10	1	-1E+10	1	-1E+10	1	-1E+10	1	-1E+10	1	-1E+10	1
4901784	199	C	12/15/2020	10:42	-134.115	43.605	0	1625.20	0	2.3450	0	37.3780	8	29.858	0	1605.959	0	34.6	4	10.8	4	-1E+10	1	-1E+10	1	-1E+10	1	-1E+10	1	-1E+10	1	-1E+10	1
4901784	199	C	12/15/2020	10:42	-134.115	43.605	0	1630.40	0	2.3340	0	37.3790	8	29.860	0	1611.077	0	35.0	4	10.9	4	-1E+10	1	-1E+10	1	-1E+10	1	-1E+10	1	-1E+10	1	-1E+10	1
4901784	199	C	12/15/2020	10:42	-134.115	43.605	0	1635.60	0	2.3260	0	37.3800	8	29.861	0	1616.196	0	35.4	4	11.0	4	-1E+10	1	-1E+10	1	-1E+10	1	-1E+10	1	-1E+10	1	-1E+10	1
4901784	199	C	12/15/2020	10:42	-134.115	43.605	0	1639.90	0	2.3170	0	37.3810	8	29.863	0	1620.429	0	35.7	4	11.1	4	-1E+10	1	-1E+10	1	-1E+10	1	-1E+10	1	-1E+10	1	-1E+10	1
4901784	199	C	12/15/2020	10:42	-134.115	43.605	0	1644.30	0	2.3080	0	37.3830	8	29.866	0	1624.759	0	36.1	4	11.2	4	-1E+10	1	-1E+10	1	-1E+10	1	-1E+10	1	-1E+10	1	-1E+10	1
4901784	199	C	12/15/2020	10:42	-134.115	43.605	0	1649.70	0	2.2990	0	37.3840	8	29.867	0	1630.074	0	36.5	4	11.3	4	-1E+10	1	-1E+10	1	-1E+10	1	-1E+10	1	-1E+10	1	-1E+10	1
4901784	199	C	12/15/2020	10:42	-134.115	43.605	0	1655.00	0	2.2900	0	37.3860	8	29.870	0	1635.291	0	36.8	4	11.4	4	-1E+10	1	-1E+10	1	-1E+10	1	-1E+10	1	-1E+10	1	-1E+10	1
4901784	199	C	12/15/2020	10:42	-134.115	43.605	0	1660.30	0	2.2830	0	37.3870	8	29.871	0	1640.507	0	37.1	4	11.5	4	-1E+10	1	-1E+10	1	-1E+10	1	-1E+10	1	-1E+10	1	-1E+10	1
4901784	199	C	12/15/2020	10:42	-134.115	43.605	0	1664.80	0	2.2800	0	37.3880	8	29.872	0	1644.936	0	37.3	4	11.6	4	-1E+10	1	-1E+10	1	-1E+10	1	-1E+10	1	-1E+10	1	-1E+10	1
4901784	199	C	12/15/2020	10:42	-134.115	43.605	0	1669.30	0	2.2740	0	37.3890	8	29.874	0	1649.365	0	37.6	4	11.7	4	-1E+10	1	-1E+10	1	-1E+10	1	-1E+10	1	-1E+10	1	-1E+10	1
4901784	199	C	12/15/2020	10:42	-134.115	43.605	0	1674.70	0	2.2660	0	37.3910	8	29.876	0	1654.679	0	37.9	4	11.7	4	-1E+10	1	-1E+10	1	-1E+10	1	-1E+10	1	-1E+10	1	-1E+10	1
4901784	199	C	12/15/2020	10:42	-134.115	43.605	0	1680.20	0	2.2640	0	37.3910	8	29.876	0	1660.092	0	38.0	4	11.8	4	-1E+10	1	-1E+10	1	-1E+10	1	-1E+10	1	-1E+10	1	-1E+10	1
4901784	199	C	12/15/2020	10:42	-134.115	43.605	0	1685.30	0	2.2620	0	37.3920	8	29.877	0	1665.111	0	38.2	4	11.8	4	-1E+10	1	-1E+10	1	-1E+10	1	-1E+10	1	-1E+10	1	-1E+10	1
4901784	199	C	12/15/2020	10:42	-134.115	43.605	0	1689.50	0	2.2580	0	37.3930	8	29.878	0	1669.244	0	38.4	4	11.9	4	-1E+10	1	-1E+10	1	-1E+10	1	-1E+10	1	-1E+10	1	-1E+10	1
4901784	199	C	12/15/2020	10:42	-134.115	43.605	0	1695.00	0	2.2540	0	37.3940	8	29.880	0	1674.657	0	38.7	4	12.0	4	-1E+10	1	-1E+10	1	-1E+10	1	-1E+10	1	-1E+10	1	-1E+10	1
4901784	199	C	12/15/2020	10:42	-134.115	43.605	0	1700.60	0	2.2460	0	37.3950	8	29.881	0	1680.167	0	39.1	4	12.1	4	-1E+10	1	-1E+10	1	-1E+10	1	-1E+10	1	-1E+10	1	-1E+10	1
4901784	199	C	12/15/2020	10:42	-134.115	43.605	0	1705.50	0	2.2420	0	37.3960	8	29.882	0	1684.989	0	39.4	4	12.2	4	-1E+10	1	-1E+10	1	-1E+10	1	-1E+10	1	-1E+10	1	-1E+10	1
4901784	199	C	12/15/2020	10:42	-134.115	43.605	0	1710.40	0	2.2340	0	37.3970	8	29.884	0	1689.811	0	39.8	4	12.3	4	-1E+10	1	-1E+10	1	-1E+10	1	-1E+10	1	-1E+10	1	-1E+10	1
4901784	199	C	12/15/2020	10:42	-134.115	43.605	0	1715.20	0	2.2270	0	37.3990	8	29.886	0	1694.534	0	40.3	4	12.5	4	-1E+10	1	-1E+10	1	-1E+10	1	-1E+10	1	-1E+10	1	-1E+10	1
4901784	199	C	12/15/2020	10:42	-134.115	43.605	0	1720.10	0	2.2190	0	37.4000	8	29.888	0	1699.355	0	40.7	4	12.6	4	-1E+10	1	-1E+10	1	-1E+10	1	-1E+10	1	-1E+10	1	-1E+10	1
4901784	199	C	12/15/2020	10:42	-134.115	43.605	0	1725.00	0	2.2110	0	37.4020	8	29.890	0	1704.176	0	41.2	4	12.7	4	-1E+10	1	-1E+10	1	-1E+10	1	-1E+10	1	-1E+10	1	-1E+10	1
4901784	199	C	12/15/2020	10:42	-134.115	43.605	0	1730.00	0	2.2020	0	37.4030	8	29.892	0	1709.096	0	41.5	4	12.8	4	-1E+10	1	-1E+10	1	-1E+10	1	-1E+10	1	-1E+10	1	-1E+10	1
4901784	199	C	12/15/2020	10:42	-134.115	43.605	0	1734.90	0	2.1970	0	37.4040	8	29.893	0	1713.917	0	41.8	4	12.9	4	-1E+10	1	-1E+10	1	-1E+10	1	-1E+10	1	-1E+10	1	-1E+10	1
4901784	199	C	12/15/2020	10:42	-134.115	43.605	0	1739.90	0	2.1930	0	37.4050	8	29.894	0	1718.836	0	42.1	4	13.0	4	-1E+10	1	-1E+10	1	-1E+10	1	-1E+10	1	-1E+10	1	-1E+10	1
4901784	199	C	12/15/2020	10:42	-134.115	43.605	0	1744.90	0	2.1870	0	37.4070	8	29.896	0	1723.755	0	42.4	4	13.1	4	-1E+10	1	-1E+10	1	-1E+10	1	-1E+10	1	-1E+10	1	-1E+10	1
4901784	199	C	12/15/2020	10:42	-134.115	43.605	0	1750.00	0	2.1840	0	37.4070	8	29.896	0	1728.773	0	42.6	4	13.2	4	-1E+10	1	-1E+10	1	-1E+10	1	-1E+10	1	-1E+10	1	-1E+10	1
4901784	199	C	12/15/2020	10:42	-134.115	43.605	0	1755.10	0	2.1800	0	37.4080	8	29.898	0	1733.790	0	42.9	4	13.3	4	-1E+10	1	-1E+10	1	-1E+10	1	-1E+10	1	-1E+10	1	-1E+10	1
4901784	199	C	12/15/2020	10:42	-134.115	43.605	0	1760.30	0	2.1760	0	37.4090	8	29.899	0	1738.906	0	43.2	4	13.4	4	-1E+10	1	-1E+10	1	-1E+10	1	-1E+10	1	-1E+10	1	-1E+10	1
4901784	199	C	12/15/2020	10:42	-134.115	43.605	0	1765.50	0	2.1700	0	37.4100	8	29.900	0	1744.021	0	43.5	4	13.5	4	-1E+10	1	-1E+10	1	-1E+10	1	-1E+10	1	-1E+10	1	-1E+10	1
4901784	199	C	12/15/2020	10:42	-134.115	43.605	0	1769.80	0	2.1670	0	37.4100	8	29.901	0	1748.251	0	43.8	4	13.6	4	-1E+10	1	-1E+10	1	-1E+10	1	-1E+10	1	-1E+10	1	-1E+10	1
4901784	199	C	12/15/2020	10:42	-134.115	43.605	0	1774.20	0	2.1570	0	37.4120	8	29.903	0	1752.579	0	44.3	4	13.7	4	-1E+10	1	-1E+10	1	-1E+10	1	-1E+10	1	-1E+10	1	-1E+10	1
4901784	199	C	12/15/2020	10:42	-134.115	43.605	0	1779.50	0	2.1500	0	37.4140	8	29.905	0	1757.793	0	44.7	4	13.8	4	-1E+10	1	-1E+10	1	-1E+10	1	-1E+10	1	-1E+10	1	-1E+10	1
4901784	199	C	12/15/2020	10:42	-134.115	43.605	0	1784.80	0	2.1430	0	37.4150	8	29.907	0	1763.006	0	45.0	4	13.9	4	-1E+10	1	-1E+10	1	-1E+10	1	-1E+10	1	-1E+10	1	-1E+10	1
4901784	199	C	12/15/2020	10:42	-134.115	43.605	0	1790.20	0	2.1390	0	37.4160	8	29.908	0	1768.318	0	45.3	4	14.0	4	-1E+10	1	-1E+10	1	-1E+10	1	-1E+10	1	-1E+10	1	-1E+10	1
4901784	199	C	12/15/2020	10:42	-134.115	43.605	0	1795.60	0	2.1360	0	37.4170	8	29.909	0	1773.629	0	45.6	4	14.1	4	-1E+10	1	-1E+10	1	-1E+10	1	-1E+10	1	-1E+10	1	-1E+10	1
4901784	199	C	12/15/2020	10:42	-134.115	43.605	0	1800.10	0	2.1310	0	37.4180	8	29.910	0	1778.055	0	45.9	4	14.2	4	-1E+10	1	-1E+10	1	-1E+10	1	-1E+10	1	-1E+10	1	-1E+10	1
4901784	199	C	12/15/2020	10:42	-134.115	43.605	0	1804.50	0	2.1260	0	37.4190	8	29.912	0	1782.383	0	46.3	4	14.3	4	-1E+10	1	-1E+10	1	-1E+10	1	-1E+10	1	-1E+10	1	-1E+10	1
4901784	199	C	12/15/2020	10:42	-134.115	43.605	0	1810.00	0	2.1180	0	37.4200	8	29.913	0	1787.792	0	46.5	4	14.4	4	-1E+10	1	-1E+10	1	-1E+10	1	-1E+10	1	-1E+10	1	-1E+10	1
4901784	199	C	12/15/2020	10:42	-134.115	43.605	0	1815.40	0	2.1130	0	37.4210	8	29.914	0	1793.103	0	46.7	4	14.4	4	-1E+10	1	-1E+10	1	-1E+10	1	-1E+10	1	-1E+10	1	-1E+10	1
4901784	199	C	12/15/2020	10:42	-134.115	43.605	0	1819.90	0	2.1090	0	37.4210	8	29.915	0	1797.529	0	46.9	4	14.5	4	-1E+10	1	-1E+10	1	-1E+10	1	-1E+10	1	-1E+10	1	-1E+10	1
4901784	199	C	12/15/2020	10:42	-134.115	43.605	0	1824.50	0	2.1050	0	37.4220	8	29.916	0	1802.053	0	47.2	4	14.6	4	-1E+10	1	-1E+10	1	-1E+10	1	-1E+10	1	-1E+10	1	-1E+10	1
4901784	199	C	12/15/2020	10:42	-134.115	43.605	0	1830.00	0	2.0950	0	37.4230	8	29.918	0	1807.462	0	47.6	4	14.7	4	-1E+10	1	-1E+10	1	-1E+10	1	-1E+10	1	-1E+10	1	-1E+10	1
4901784	199	C	12/15/2020	10:42	-134.115	43.605	0	1835.60	0	2.0910	0	37.4240	8	29.919	0	1812.969	0	47.8	4	14.8	4	-1E+10	1	-1E+10	1	-1E+10	1	-1E+10	1	-1E+10	1	-1E+10	1
4901784	199	C	12/15/2020	10:42	-134.115	43.605	0	1840.20	0	2.0880	0	37.4250	8	29.920	0	1817.493	0	48.0	4	14.8	4	-1E+10	1	-1E+10	1	-1E+10	1	-1E+10	1	-1E+10	1	-1E+10	1
4901784	199	C	12/15/2020	10:42	-134.115	43.605	0	1844.90	0	2.0870	0	37.4250	8	29.920	0	1822.115	0	48.2	4	14.9	4	-1E+10	1	-1E+10	1	-1E+10	1	-1E+10	1	-1E+10	1	-1E+10	1
4901784	199	C	12/15/2020	10:42	-134.115	43.605	0	1850.50	0	2.0820	0	37.4260	8	29.921	0	1827.621	0	48.5	4	15.0	4	-1E+10	1	-1E+10	1	-1E+10	1	-1E+10	1	-1E+10	1	-1E+10	1
4901784	199	C	12/15/2020	10:42	-134.115	43.605	0	1854.60	0	2.0810	0	37.4270	8	29.922	0	1831.653	0	48.7	4	15.0	4	-1E+10	1	-1E+10	1	-1E+10	1	-1E+10	1	-1E+10	1	-1E+10	1
4901784	199	C	12/15/2020	10:42	-134.115	43.605	0	1859.50	0	2.0780	0	37.4280	8	29.923	0	1836.471	0	48.8	4	15.1	4	-1E+10	1	-1E+10	1	-1E+10	1	-1E+10	1	-1E+10	1	-1E+10	1
4901784	199	C	12/15/2020	10:42	-134.115	43.605	0	1864.30	0	2.0740	0	37.4280	8	29.924	0	1841.191	0	49.0	4	15.1	4	-1E+10	1	-1E+10	1	-1E+10	1	-1E+10	1	-1E+10	1	-1E+10	1
4901784	199	C	12/15/2020	10:42	-134.115	43.605	0	1869.30	0	2.0690	0	37.4280	8	29.924	0	1846.107	0	49.3	4	15.2	4	-1E+10	1	-1E+10	1	-1E+10	1	-1E+10	1	-1E+10	1	-1E+10	1
4901784	199	C	12/15/2020	10:42	-134.115	43.605	0	1874.20	0	2.0650	0	37.4290	8	29.925	0	1850.925	0	49.6	4	15.3	4	-1E+10	1	-1E+10	1	-1E+10	1	-1E+10	1	-1E+10	1	-1E+10	1
4901784	199	C	12/15/2020	10:42	-134.115	43.605	0	1880.00	0	2.0590	0	37.4300	8	29.927	0	1856.628	0	50.0	4	15.4	4	-1E+10	1	-1E+10	1	-1E+10	1	-1E+10	1	-1E+10	1	-1E+10	1
4901784	199	C	12/15/2020	10:42	-134.115	43.605	0	1885.00	0	2.0510	0	37.4320	8	29.929	0	1861.544	0	50.3	4	15.5	4	-1E+10	1	-1E+10	1	-1E+10	1	-1E+10	1	-1E+10	1	-1E+10	1
4901784	199	C	12/15/2020	10:42	-134.115	43.605	0	1889.20	0	2.0470	0	37.4320	8	29.929	0	1865.673	0	50.6	4	15.6	4	-1E+10	1	-1E+10	1	-1E+10	1	-1E+10	1	-1E+10	1	-1E+10	1
4901784	199	C	12/15/2020	10:42	-134.115	43.605	0	1895.00	0	2.0440	0	37.4340	8	29.931	0	1871.376	0	50.9	4	15.7	4	-1E+10	1	-1E+10	1	-1E+10	1	-1E+10	1	-1E+10	1	-1E+10	1
4901784	199	C	12/15/2020	10:42	-134.115	43.605	0	1900.00	0	2.0380	0	37.4350	8	29.933	0	1876.291	0	51.2	4	15.8	4	-1E+10	1	-1E+10	1	-1E+10	1	-1E+10	1	-1E+10	1	-1E+10	1
4901784	199	C	12/15/2020	10:42	-134.115	43.605	0	1904.30	0	2.0380	0	37.4350	8	29.933	0	1880.519	0	51.5	4	15.9	4	-1E+10	1	-1E+10	1	-1E+10	1	-1E+10	1	-1E+10	1	-1E+10	1
4901784	199	C	12/15/2020	10:42	-134.115	43.605	0	1909.40	0	2.0360	0	37.4360	8	29.934	0	1885.532	0	51.8	4	16.0	4	-1E+10	1	-1E+10	1	-1E+10	1	-1E+10	1	-1E+10	1	-1E+10	1
4901784	199	C	12/15/2020	10:42	-134.115	43.605	0	1914.50	0	2.0320	0	37.4370	8	29.935	0	1890.546	0	52.2	4	16.1	4	-1E+10	1	-1E+10	1	-1E+10	1	-1E+10	1	-1E+10	1	-1E+10	1
4901784	199	C	12/15/2020	10:42	-134.115	43.605	0	1919.70	0	2.0260	0	37.4380	8	29.936	0	1895.658	0	52.5	4	16.2	4	-1E+10	1	-1E+10	1	-1E+10	1	-1E+10	1	-1E+10	1	-1E+10	1
4901784	199	C	12/15/2020	10:42	-134.115	43.605	0	1924.90	0	2.0240	0	37.4390	8	29.937	0	1900.769	0	52.7	4	16.3	4	-1E+10	1	-1E+10	1	-1E+10	1	-1E+10	1	-1E+10	1	-1E+10	1
4901784	199	C	12/15/2020	10:42	-134.115	43.605	0	1930.10	0	2.0190	0	37.4390	8	29.938	0	1905.881	0	53.0	4	16.3	4	-1E+10	1	-1E+10	1	-1E+10	1	-1E+10	1	-1E+10	1	-1E+10	1
4901784	199	C	12/15/2020	10:42	-134.115	43.605	0	1935.40	0	2.0120	0	37.4410	8	29.940	0	1911.091	0	53.3	4	16.4	4	-1E+10	1	-1E+10	1	-1E+10	1	-1E+10	1	-1E+10	1	-1E+10	1
4901784	199	C	12/15/2020	10:42	-134.115	43.605	0	1940.70	0	2.0090	0	37.4410	8	29.940	0	1916.300	0	53.6	4	16.5	4	-1E+10	1	-1E+10	1	-1E+10	1	-1E+10	1	-1E+10	1	-1E+10	1
4901784	199	C	12/15/2020	10:42	-134.115	43.605	0	1945.10	0	2.0060	0	37.4420	8	29.941	0	1920.625	0	53.9	4	16.6	4	-1E+10	1	-1E+10	1	-1E+10	1	-1E+10	1	-1E+10	1	-1E+10	1
4901784	199	C	12/15/2020	10:42	-134.115	43.605	0	1949.50	0	2.0020	0	37.4430	8	29.942	0	1924.950	0	54.1	4	16.7	4	-1E+10	1	-1E+10	1	-1E+10	1	-1E+10	1	-1E+10	1	-1E+10	1
4901784	199	C	12/15/2020	10:42	-134.115	43.605	0	1954.80	0	2.0000	0	37.4430	8	29.943	0	1930.159	0	54.5	4	16.8	4	-1E+10	1	-1E+10	1	-1E+10	1	-1E+10	1	-1E+10	1	-1E+10	1
4901784	199	C	12/15/2020	10:42	-134.115	43.605	0	1960.10	0	1.9960	0	37.4440	8	29.944	0	1935.368	0	54.8	4	16.9	4	-1E+10	1	-1E+10	1	-1E+10	1	-1E+10	1	-1E+10	1	-1E+10	1
4901784	199	C	12/15/2020	10:42	-134.115	43.605	0	1965.40	0	1.9940	0	37.4450	8	29.945	0	1940.577	0	55.1	4	17.0	4	-1E+10	1	-1E+10	1	-1E+10	1	-1E+10	1	-1E+10	1	-1E+10	1
4901784	199	C	12/15/2020	10:42	-134.115	43.605	0	1969.90	0	1.9910	0	37.4460	8	29.946	0	1945.000	0	55.3	4	17.1	4	-1E+10	1	-1E+10	1	-1E+10	1	-1E+10	1	-1E+10	1	-1E+10	1
4901784	199	C	12/15/2020	10:42	-134.115	43.605	0	1974.30	0	1.9870	0	37.4470	8	29.947	0	1949.324	0	55.7	4	17.2	4	-1E+10	1	-1E+10	1	-1E+10	1	-1E+10	1	-1E+10	1	-1E+10	1
4901784	199	C	12/15/2020	10:42	-134.115	43.605	0	1979.70	0	1.9810	0	37.4480	8	29.948	0	1954.631	0	56.1	4	17.3	4	-1E+10	1	-1E+10	1	-1E+10	1	-1E+10	1	-1E+10	1	-1E+10	1
4901784	199	C	12/15/2020	10:42	-134.115	43.605	0	1985.10	0	1.9760	0	37.4490	8	29.950	0	1959.938	0	56.4	4	17.4	4	-1E+10	1	-1E+10	1	-1E+10	1	-1E+10	1	-1E+10	1	-1E+10	1
4901784	199	C	12/15/2020	10:42	-134.115	43.605	0	1990.50	0	1.9710	0	37.4490	8	29.950	0	1965.244	0	56.6	4	17.4	4	-1E+10	1	-1E+10	1	-1E+10	1	-1E+10	1	-1E+10	1	-1E+10	1
4901784	199	C	12/15/2020	10:42	-134.115	43.605	0	1995.00	0	1.9690	0	37.4500	8	29.951	0	1969.667	0	56.8	4	17.5	4	-1E+10	1	-1E+10	1	-1E+10	1	-1E+10	1	-1E+10	1	-1E+10	1
4901784	199	C	12/15/2020	10:42	-134.115	43.605	0	1999.40	0	1.9660	0	37.4510	8	29.952	0	1973.990	0	57.0	4	17.5	4	-1E+10	1	-1E+10	1	-1E+10	1	-1E+10	1	-1E+10	1	-1E+10	1
4901784	199	C	12/15/2020	10:42	-134.115	43.605	0	2004.60	0	1.9630	0	37.4510	8	29.953	0	1979.100	0	57.2	4	17.6	4	-1E+10	1	-1E+10	1	-1E+10	1	-1E+10	1	-1E+10	1	-1E+10	1
4901784	199	C	12/15/2020	10:42	-134.115	43.605	0	2009.40	0	1.9590	0	37.4520	8	29.954	0	1983.817	0	57.3	4	17.7	4	-1E+10	1	-1E+10	1	-1E+10	1	-1E+10	1	-1E+10	1	-1E+10	1
4901784	199	C	12/15/2020	10:42	-134.115	43.605	0	2014.90	0	1.9560	0	37.4520	8	29.954	0	1989.221	0	57.5	4	17.7	4	-1E+10	1	-1E+10	1	-1E+10	1	-1E+10	1	-1E+10	1	-1E+10	1
4901784	199	C	12/15/2020	10:42	-134.115	43.605	0	2019.80	0	1.9530	0	37.4530	8	29.955	0	1994.036	0	57.7	4	17.8	4	-1E+10	1	-1E+10	1	-1E+10	1	-1E+10	1	-1E+10	1	-1E+10	1
4901784	199	C	12/15/2020	10:42	-134.115	43.605	0																										
4901784	200	C	12/25/2020	10:48	-134.205	43.560	0	2.10	0	13.3220	0	35.5660	8	26.767	0	2.083	0	243.9	4	95.6	4	-1E+10	1	-1E+10	1	-1E+10	1	-1E+10	1	-1E+10	1	-1E+10	1
4901784	200	C	12/25/2020	10:48	-134.205	43.560	0	3.40	0	13.3170	0	35.5680	8	26.769	0	3.373	0	243.8	4	95.5	4	-1E+10	1	-1E+10	1	-1E+10	1	-1E+10	1	-1E+10	1	-1E+10	1
4901784	200	C	12/25/2020	10:48	-134.205	43.560	0	4.90	0	13.3200	0	35.5690	8	26.770	0	4.861	0	243.7	4	95.5	4	-1E+10	1	-1E+10	1	-1E+10	1	-1E+10	1	-1E+10	1	-1E+10	1
4901784	200	C	12/25/2020	10:48	-134.205	43.560	0	6.40	0	13.3220	0	35.5700	8	26.770	0	6.349	0	243.8	4	95.5	4	-1E+10	1	-1E+10	1	-1E+10	1	-1E+10	1	-1E+10	1	-1E+10	1
4901784	200	C	12/25/2020	10:48	-134.205	43.560	0	8.00	0	13.3270	0	35.5700	8	26.769	0	7.936	0	243.6	4	95.5	4	-1E+10	1	-1E+10	1	-1E+10	1	-1E+10	1	-1E+10	1	-1E+10	1
4901784	200	C	12/25/2020	10:48	-134.205	43.560	0	9.70	0	13.3230	0	35.5720	8	26.771	0	9.622	0	243.9	4	95.6	4	-1E+10	1	-1E+10	1	-1E+10	1	-1E+10	1	-1E+10	1	-1E+10	1
4901784	200	C	12/25/2020	10:48	-134.205	43.560	0	11.40	0	13.3240	0	35.5720	8	26.771	0	11.309	0	243.9	4	95.6	4	-1E+10	1	-1E+10	1	-1E+10	1	-1E+10	1	-1E+10	1	-1E+10	1
4901784	200	C	12/25/2020	10:48	-134.205	43.560	0	13.10	0	13.3260	0	35.5730	8	26.772	0	12.995	0	243.7	4	95.5	4	-1E+10	1	-1E+10	1	-1E+10	1	-1E+10	1	-1E+10	1	-1E+10	1
4901784	200	C	12/25/2020	10:48	-134.205	43.560	0	15.00	0	13.3270	0	35.5740	8	26.772	0	14.880	0	243.7	4	95.5	4	-1E+10	1	-1E+10	1	-1E+10	1	-1E+10	1	-1E+10	1	-1E+10	1
4901784	200	C	12/25/2020	10:48	-134.205	43.560	0	16.90	0	13.3270	0	35.5750	8	26.773	0	16.764	0	243.6	4	95.5	4	-1E+10	1	-1E+10	1	-1E+10	1	-1E+10	1	-1E+10	1	-1E+10	1
4901784	200	C	12/25/2020	10:48	-134.205	43.560	0	18.80	0	13.3260	0	35.5760	8	26.774	0	18.649	0	243.7	4	95.5	4	-1E+10	1	-1E+10	1	-1E+10	1	-1E+10	1	-1E+10	1	-1E+10	1
4901784	200	C	12/25/2020	10:48	-134.205	43.560	0	20.70	0	13.3280	0	35.5770	8	26.775	0	20.534	0	243.6	4	95.5	4	-1E+10	1	-1E+10	1	-1E+10	1	-1E+10	1	-1E+10	1	-1E+10	1
4901784	200	C	12/25/2020	10:48	-134.205	43.560	0	22.70	0	13.3290	0	35.5770	8	26.774	0	22.517	0	243.5	4	95.4	4	-1E+10	1	-1E+10	1	-1E+10	1	-1E+10	1	-1E+10	1	-1E+10	1
4901784	200	C	12/25/2020	10:48	-134.205	43.560	0	24.70	0	13.3290	0	35.5780	8	26.775	0	24.501	0	243.6	4	95.5	4	-1E+10	1	-1E+10	1	-1E+10	1	-1E+10	1	-1E+10	1	-1E+10	1
4901784	200	C	12/25/2020	10:48	-134.205	43.560	0	26.60	0	13.3290	0	35.5800	8	26.777	0	26.386	0	243.7	4	95.5	4	-1E+10	1	-1E+10	1	-1E+10	1	-1E+10	1	-1E+10	1	-1E+10	1
4901784	200	C	12/25/2020	10:48	-134.205	43.560	0	28.50	0	13.3300	0	35.5810	8	26.777	0	28.270	0	243.5	4	95.4	4	-1E+10	1	-1E+10	1	-1E+10	1	-1E+10	1	-1E+10	1	-1E+10	1
4901784	200	C	12/25/2020	10:48	-134.205	43.560	0	30.40	0	13.3300	0	35.5810	8	26.777	0	30.155	0	243.4	4	95.4	4	-1E+10	1	-1E+10	1	-1E+10	1	-1E+10	1	-1E+10	1	-1E+10	1
4901784	200	C	12/25/2020	10:48	-134.205	43.560	0	32.30	0	13.3300	0	35.5830	8	26.779	0	32.040	0	243.4	4	95.4	4	-1E+10	1	-1E+10	1	-1E+10	1	-1E+10	1	-1E+10	1	-1E+10	1
4901784	200	C	12/25/2020	10:48	-134.205	43.560	0	34.20	0	13.3310	0	35.5840	8	26.780	0	33.924	0	243.2	4	95.3	4	-1E+10	1	-1E+10	1	-1E+10	1	-1E+10	1	-1E+10	1	-1E+10	1
4901784	200	C	12/25/2020	10:48	-134.205	43.560	0	36.10	0	13.3310	0	35.5850	8	26.781	0	35.809	0	243.2	4	95.3	4	-1E+10	1	-1E+10	1	-1E+10	1	-1E+10	1	-1E+10	1	-1E+10	1
4901784	200	C	12/25/2020	10:48	-134.205	43.560	0	38.00	0	13.3320	0	35.5860	8	26.781	0	37.693	0	243.3	4	95.3	4	-1E+10	1	-1E+10	1	-1E+10	1	-1E+10	1	-1E+10	1	-1E+10	1
4901784	200	C	12/25/2020	10:48	-134.205	43.560	0	39.90	0	13.3320	0	35.5870	8	26.782	0	39.578	0	243.2	4	95.3	4	-1E+10	1	-1E+10	1	-1E+10	1	-1E+10	1	-1E+10	1	-1E+10	1
4901784	200	C	12/25/2020	10:48	-134.205	43.560	0	41.70	0	13.3330	0	35.5880	8	26.783	0	41.363	0	243.2	4	95.3	4	-1E+10	1	-1E+10	1	-1E+10	1	-1E+10	1	-1E+10	1	-1E+10	1
4901784	200	C	12/25/2020	10:48	-134.205	43.560	0	43.50	0	13.3320	0	35.5890	8	26.784	0	43.148	0	243.0	4	95.3	4	-1E+10	1	-1E+10	1	-1E+10	1	-1E+10	1	-1E+10	1	-1E+10	1
4901784	200	C	12/25/2020	10:48	-134.205	43.560	0	45.30	0	13.3320	0	35.5900	8	26.784	0	44.933	0	243.1	4	95.3	4	-1E+10	1	-1E+10	1	-1E+10	1	-1E+10	1	-1E+10	1	-1E+10	1
4901784	200	C	12/25/2020	10:48	-134.205	43.560	0	47.20	0	13.3330	0	35.5910	8	26.785	0	46.818	0	242.9	4	95.2	4	-1E+10	1	-1E+10	1	-1E+10	1	-1E+10	1	-1E+10	1	-1E+10	1
4901784	200	C	12/25/2020	10:48	-134.205	43.560	0	49.10	0	13.3330	0	35.5920	8	26.786	0	48.702	0	242.9	4	95.2	4	-1E+10	1	-1E+10	1	-1E+10	1	-1E+10	1	-1E+10	1	-1E+10	1
4901784	200	C	12/25/2020	10:48	-134.205	43.560	0	50.90	0	13.3330	0	35.5940	8	26.788	0	50.487	0	242.8	4	95.2	4	-1E+10	1	-1E+10	1	-1E+10	1	-1E+10	1	-1E+10	1	-1E+10	1
4901784	200	C	12/25/2020	10:48	-134.205	43.560	0	52.80	0	13.3340	0	35.5950	8	26.788	0	52.372	0	242.8	4	95.2	4	-1E+10	1	-1E+10	1	-1E+10	1	-1E+10	1	-1E+10	1	-1E+10	1
4901784	200	C	12/25/2020	10:48	-134.205	43.560	0	54.60	0	13.3330	0	35.5960	8	26.789	0	54.157	0	242.7	4	95.1	4	-1E+10	1	-1E+10	1	-1E+10	1	-1E+10	1	-1E+10	1	-1E+10	1
4901784	200	C	12/25/2020	10:48	-134.205	43.560	0	56.40	0	13.3330	0	35.5970	8	26.790	0	55.942	0	242.6	4	95.1	4	-1E+10	1	-1E+10	1	-1E+10	1	-1E+10	1	-1E+10	1	-1E+10	1
4901784	200	C	12/25/2020	10:48	-134.205	43.560	0	58.20	0	13.3330	0	35.5980	8	26.791	0	57.727	0	242.6	4	95.1	4	-1E+10	1	-1E+10	1	-1E+10	1	-1E+10	1	-1E+10	1	-1E+10	1
4901784	200	C	12/25/2020	10:48	-134.205	43.560	0	60.10	0	13.3340	0	35.5990	8	26.791	0	59.611	0	242.4	4	95.0	4	-1E+10	1	-1E+10	1	-1E+10	1	-1E+10	1	-1E+10	1	-1E+10	1
4901784	200	C	12/25/2020	10:48	-134.205	43.560	0	62.00	0	13.3340	0	35.6010	8	26.793	0	61.496	0	242.3	4	95.0	4	-1E+10	1	-1E+10	1	-1E+10	1	-1E+10	1	-1E+10	1	-1E+10	1
4901784	200	C	12/25/2020	10:48	-134.205	43.560	0	63.90	0	13.3340	0	35.6020	8	26.794	0	63.380	0	242.1	4	94.9	4	-1E+10	1	-1E+10	1	-1E+10	1	-1E+10	1	-1E+10	1	-1E+10	1
4901784	200	C	12/25/2020	10:48	-134.205	43.560	0	65.80	0	13.3340	0	35.6030	8	26.795	0	65.264	0	242.2	4	94.9	4	-1E+10	1	-1E+10	1	-1E+10	1	-1E+10	1	-1E+10	1	-1E+10	1
4901784	200	C	12/25/2020	10:48	-134.205	43.560	0	67.80	0	13.3340	0	35.6040	8	26.796	0	67.248	0	242.0	4	94.9	4	-1E+10	1	-1E+10	1	-1E+10	1	-1E+10	1	-1E+10	1	-1E+10	1
4901784	200	C	12/25/2020	10:48	-134.205	43.560	0	69.70	0	13.3350	0	35.6060	8	26.797	0	69.132	0	241.8	4	94.8	4	-1E+10	1	-1E+10	1	-1E+10	1	-1E+10	1	-1E+10	1	-1E+10	1
4901784	200	C	12/25/2020	10:48	-134.205	43.560	0	71.60	0	13.3350	0	35.6070	8	26.798	0	71.016	0	241.5	4	94.7	4	-1E+10	1	-1E+10	1	-1E+10	1	-1E+10	1	-1E+10	1	-1E+10	1
4901784	200	C	12/25/2020	10:48	-134.205	43.560	0	73.60	0	13.3350	0	35.6080	8	26.799	0	72.999	0	241.4	4	94.7	4	-1E+10	1	-1E+10	1	-1E+10	1	-1E+10	1	-1E+10	1	-1E+10	1
4901784	200	C	12/25/2020	10:48	-134.205	43.560	0	75.50	0	13.3350	0	35.6090	8	26.799	0	74.883	0	241.1	4	94.5	4	-1E+10	1	-1E+10	1	-1E+10	1	-1E+10	1	-1E+10	1	-1E+10	1
4901784	200	C	12/25/2020	10:48	-134.205	43.560	0	77.50	0	13.3350	0	35.6100	8	26.800	0	76.867	0	241.1	4	94.5	4	-1E+10	1	-1E+10	1	-1E+10	1	-1E+10	1	-1E+10	1	-1E+10	1
4901784	200	C	12/25/2020	10:48	-134.205	43.560	0	79.40	0	13.3360	0	35.6090	8	26.799	0	78.751	0	240.8	4	94.4	4	-1E+10	1	-1E+10	1	-1E+10	1	-1E+10	1	-1E+10	1	-1E+10	1
4901784	200	C	12/25/2020	10:48	-134.205	43.560	0	81.30	0	13.3350	0	35.6090	8	26.800	0	80.635	0	240.6	4	94.3	4	-1E+10	1	-1E+10	1	-1E+10	1	-1E+10	1	-1E+10	1	-1E+10	1
4901784	200	C	12/25/2020	10:48	-134.205	43.560	0	83.50	0	13.3350	0	35.6080	8	26.799	0	82.816	0	240.3	4	94.2	4	-1E+10	1	-1E+10	1	-1E+10	1	-1E+10	1	-1E+10	1	-1E+10	1
4901784	200	C	12/25/2020	10:48	-134.205	43.560	0	84.00	0	13.3340	0	35.6070	8	26.798	0	83.312	0	240.2	4	94.2	4	-1E+10	1	-1E+10	1	-1E+10	1	-1E+10	1	-1E+10	1	-1E+10	1
4901784	200	C	12/25/2020	10:48	-134.205	43.560	0	85.60	0	13.3310	0	35.6040	8	26.797	0	84.899	0	239.8	4	94.0	4	-1E+10	1	-1E+10	1	-1E+10	1	-1E+10	1	-1E+10	1	-1E+10	1
4901784	200	C	12/25/2020	10:48	-134.205	43.560	0	87.10	0	13.3270	0	35.5990	8	26.794	0	86.386	0	239.3	4	93.8	4	-1E+10	1	-1E+10	1	-1E+10	1	-1E+10	1	-1E+10	1	-1E+10	1
4901784	200	C	12/25/2020	10:48	-134.205	43.560	0	88.60	0	13.3220	0	35.5900	8	26.788	0	87.874	0	238.8	4	93.6	4	-1E+10	1	-1E+10	1	-1E+10	1	-1E+10	1	-1E+10	1	-1E+10	1
4901784	200	C	12/25/2020	10:48	-134.205	43.560	0	90.00	0	13.2970	0	35.5790	8	26.784	0	89.262	0	237.9	4	93.2	4	-1E+10	1	-1E+10	1	-1E+10	1	-1E+10	1	-1E+10	1	-1E+10	1
4901784	200	C	12/25/2020	10:48	-134.205	43.560	0	91.50	0	13.2070	0	35.5640	8	26.791	0	90.749	0	237.2	4	92.7	4	-1E+10	1	-1E+10	1	-1E+10	1	-1E+10	1	-1E+10	1	-1E+10	1
4901784	200	C	12/25/2020	10:48	-134.205	43.560	0	93.00	0	12.8980	0	35.5520	8	26.844	0	92.237	0	237.3	4	92.2	4	-1E+10	1	-1E+10	1	-1E+10	1	-1E+10	1	-1E+10	1	-1E+10	1
4901784	200	C	12/25/2020	10:48	-134.205	43.560	0	94.50	0	12.3760	0	35.5620	8	26.956	0	93.724	0	238.2	4	91.6	4	-1E+10	1	-1E+10	1	-1E+10	1	-1E+10	1	-1E+10	1	-1E+10	1
4901784	200	C	12/25/2020	10:48	-134.205	43.560	0	96.10	0	11.7270	0	35.5840	8	27.098	0	95.310	0	240.6	4	91.2	4	-1E+10	1	-1E+10	1	-1E+10	1	-1E+10	1	-1E+10	1	-1E+10	1
4901784	200	C	12/25/2020	10:48	-134.205	43.560	0	97.70	0	11.5080	0	35.5630	8	27.123	0	96.897	0	240.5	4	90.8	4	-1E+10	1	-1E+10	1	-1E+10	1	-1E+10	1	-1E+10	1	-1E+10	1
4901784	200	C	12/25/2020	10:48	-134.205	43.560	0	99.30	0	10.7990	0	35.6050	8	27.286	0	98.483	0	242.2	4	90.1	4	-1E+10	1	-1E+10	1	-1E+10	1	-1E+10	1	-1E+10	1	-1E+10	1
4901784	200	C	12/25/2020	10:48	-134.205	43.560	0	102.70	0	10.0750	0	35.6300	8	27.434	0	101.855	0	244.6	4	89.6	4	-1E+10	1	-1E+10	1	-1E+10	1	-1E+10	1	-1E+10	1	-1E+10	1
4901784	200	C	12/25/2020	10:48	-134.205	43.560	0	105.20	0	9.9500	0	35.6340	8	27.458	0	104.333	0	244.6	4	89.4	4	-1E+10	1	-1E+10	1	-1E+10	1	-1E+10	1	-1E+10	1	-1E+10	1
4901784	200	C	12/25/2020	10:48	-134.205	43.560	0	107.80	0	9.8420	0	35.6410	8	27.482	0	106.911	0	244.7	4	89.2	4	-1E+10	1	-1E+10	1	-1E+10	1	-1E+10	1	-1E+10	1	-1E+10	1
4901784	200	C	12/25/2020	10:48	-134.205	43.560	0	109.60	0	9.8290	0	35.6380	8	27.482	0	108.696	0	244.6	4	89.2	4	-1E+10	1	-1E+10	1	-1E+10	1	-1E+10	1	-1E+10	1	-1E+10	1
4901784	200	C	12/25/2020	10:48	-134.205	43.560	0	112.30	0	9.7710	0	35.6400	8	27.494	0	111.373	0	244.2	4	88.9	4	-1E+10	1	-1E+10	1	-1E+10	1	-1E+10	1	-1E+10	1	-1E+10	1
4901784	200	C	12/25/2020	10:48	-134.205	43.560	0	115.00	0	9.6620	0	35.6490	8	27.519	0	114.050	0	243.9	4	88.6	4	-1E+10	1	-1E+10	1	-1E+10	1	-1E+10	1	-1E+10	1	-1E+10	1
4901784	200	C	12/25/2020	10:48	-134.205	43.560	0	117.70	0	9.6120	0	35.6540	8	27.532	0	116.727	0	243.5	4	88.3	4	-1E+10	1	-1E+10	1	-1E+10	1	-1E+10	1	-1E+10	1	-1E+10	1
4901784	200	C	12/25/2020	10:48	-134.205	43.560	0	120.40	0	9.5520	0	35.6590	8	27.546	0	119.404	0	243.3	4	88.2	4	-1E+10	1	-1E+10	1	-1E+10	1	-1E+10	1	-1E+10	1	-1E+10	1
4901784	200	C	12/25/2020	10:48	-134.205	43.560	0	122.20	0	9.5470	0	35.6570	8	27.545	0	121.188	0	242.6	4	87.9	4	-1E+10	1	-1E+10	1	-1E+10	1	-1E+10	1	-1E+10	1	-1E+10	1
4901784	200	C	12/25/2020	10:48	-134.205	43.560	0	124.90	0	9.4860	0	35.6630	8	27.560	0	123.865	0	241.3	4	87.3	4	-1E+10	1	-1E+10	1	-1E+10	1	-1E+10	1	-1E+10	1	-1E+10	1
4901784	200	C	12/25/2020	10:48	-134.205	43.560	0	127.60	0	9.2890	0	35.7000	8	27.622	0	126.542	0	240.6	4	86.7	4	-1E+10	1	-1E+10	1	-1E+10	1	-1E+10	1	-1E+10	1	-1E+10	1
4901784	200	C	12/25/2020	10:48	-134.205	43.560	0	129.50	0	9.2510	0	35.7030	8	27.631	0	128.426	0	240.2	4	86.5	4	-1E+10	1	-1E+10	1	-1E+10	1	-1E+10	1	-1E+10	1	-1E+10	1
4901784	200	C	12/25/2020	10:48	-134.205	43.560	0	132.20	0	9.1840	0	35.7300	8	27.663	0	131.102	0	239.0	4	85.9	4	-1E+10	1	-1E+10	1	-1E+10	1	-1E+10	1	-1E+10	1	-1E+10	1
4901784	200	C	12/25/2020	10:48	-134.205	43.560	0	135.30	0	9.1640	0	35.7420	8	27.676	0	134.176	0	238.0	4	85.6	4	-1E+10	1	-1E+10	1	-1E+10	1	-1E+10	1	-1E+10	1	-1E+10	1
4901784	200	C	12/25/2020	10:48	-134.205	43.560	0	137.90	0	9.1410	0	35.7550	8	27.690	0	136.753	0	236.4	4	85.0	4	-1E+10	1	-1E+10	1	-1E+10	1	-1E+10	1	-1E+10	1	-1E+10	1
4901784	200	C	12/25/2020	10:48	-134.205	43.560	0	140.10	0	9.1230	0	35.7630	8	27.699	0	138.934	0	234.8	4	84.4	4	-1E+10	1	-1E+10	1	-1E+10	1	-1E+10	1	-1E+10	1	-1E+10	1
4901784	200	C	12/25/2020	10:48	-134.205	43.560	0	142.40	0	9.1070	0	35.7730	8	27.709	0	141.214	0	232.6	4	83.5	4	-1E+10	1	-1E+10	1	-1E+10	1	-1E+10	1	-1E+10	1	-1E+10	1
4901784	200	C	12/25/2020	10:48	-134.205	43.560	0	144.70	0	9.0600	0	35.7980	8	27.737	0	143.494	0	229.8	4	82.5	4	-1E+10	1	-1E+10	1	-1E+10	1	-1E+10	1	-1E+10	1	-1E+10	1
4901784	200	C	12/25/2020	10:48	-134.205	43.560	0	147.20	0	8.9980	0	35.8590	8	27.794	0	145.972	0	226.6	4	81.3	4	-1E+10	1	-1E+10	1	-1E+10	1	-1E+10	1	-1E+10	1	-1E+10	1
4901784	200	C	12/25/2020	10:48	-134.205	43.560	0	149.60	0	8.9470	0	35.9130	8	27.845	0	148.352	0	224.3	4	80.4	4	-1E+10	1	-1E+10	1	-1E+10	1	-1E+10	1	-1E+10	1	-1E+10	1
4901784	200	C	12/25/2020	10:48	-134.205	43.560	0	152.10	0	8.9300	0	35.9440	8	27.872	0	150.830	0	222.2	4	79.6	4	-1E+10	1	-1E+10	1	-1E+10	1	-1E+10	1	-1E+10	1	-1E+10	1
4901784	200	C	12/25/2020	10:48	-134.205	43.560	0	155.30	0	8.9070	0	35.9900	8	27.912	0	154.002	0	219.2	4	78.5	4	-1E+10	1	-1E+10	1	-1E+10	1	-1E+10	1	-1E+10	1	-1E+10	1
4901784	200	C	12/25/2020	10:48	-134.205	43.560	0	157.70	0	8.8880	0	36.0410	8	27.955	0	156.381	0	217.1	4	77.7	4	-1E+10	1	-1E+10	1	-1E+10	1	-1E+10	1	-1E+10	1	-1E+10	1
4901784	200	C	12/25/2020	10:48	-134.205	43.560	0	160.30	0	8.8940	0	36.0760	8	27.982	0	158.958	0	214.8	4	77.0	4	-1E+10	1	-1E+10	1	-1E+10	1	-1E+10	1	-1E+10	1	-1E+10	1
4901784	200	C	12/25/2020	10:48	-134.205	43.560	0	163.00	0	8.8580	0	36.1260	8	28.027	0	161.635	0	213.0	4	76.3	4	-1E+10	1	-1E+10	1	-1E+10	1	-1E+10	1	-1E+10	1	-1E+10	1
4901784	200	C	12/25/2020	10:48	-134.205	43.560	0	165.30	0	8.8300	0	36.1440	8	28.045	0	163.914	0	211.3	4	75.6	4	-1E+10	1	-1E+10	1	-1E+10	1	-1E+10	1	-1E+10	1	-1E+10	1
4901784	200	C	12/25/2020	10:48	-134.205	43.560	0	167.80	0	8.7090	0	36.2030	8	28.111	0	166.392	0	209.1	4	74.7	4	-1E+10	1	-1E+10	1	-1E+10	1	-1E+10	1	-1E+10	1	-1E+10	1
4901784	200	C	12/25/2020	10:48	-134.205	43.560	0	170.10	0	8.5520	0	36.2780	8	28.195	0	168.672	0	208.0	4	74.1	4	-1E+10	1	-1E+10	1	-1E+10	1	-1E+10	1	-1E+10	1	-1E+10	1
4901784	200	C	12/25/2020	10:48	-134.205	43.560	0	172.40	0	8.4630	0	36.3220	8	28.244	0	170.952	0	206.6	4	73.5	4	-1E+10	1	-1E+10	1	-1E+10	1	-1E+10	1	-1E+10	1	-1E+10	1
4901784	200	C	12/25/2020	10:48	-134.205	43.560	0	174.80	0	8.3410	0	36.3680	8	28.299	0	173.331	0	205.6	4	72.9	4	-1E+10	1	-1E+10	1	-1E+10	1	-1E+10	1	-1E+10	1	-1E+10	1
4901784	200	C	12/25/2020	10:48	-134.205	43.560	0	177.30	0	8.2690	0	36.4000	8	28.336	0	175.809	0	204.4	4	72.4	4	-1E+10	1	-1E+10	1	-1E+10	1	-1E+10	1	-1E+10	1	-1E+10	1
4901784	200	C	12/25/2020	10:48	-134.205	43.560	0	179.80	0	8.1300	0	36.4710	8	28.413	0	178.287	0	203.1	4	71.7	4	-1E+10	1	-1E+10	1	-1E+10	1	-1E+10	1	-1E+10	1	-1E+10	1
4901784	200	C	12/25/2020	10:48	-134.205	43.560	0	182.40	0	8.0410	0	36.5190	8	28.465	0	180.864	0	202.5	4	71.4	4	-1E+10	1	-1E+10	1	-1E+10	1	-1E+10	1	-1E+10	1	-1E+10	1
4901784	200	C	12/25/2020	10:48	-134.205	43.560	0	185.10	0	7.9510	0	36.5630	8	28.513	0	183.540	0	201.3	4	70.9	4	-1E+10	1	-1E+10	1	-1E+10	1	-1E+10	1	-1E+10	1	-1E+10	1
4901784	200	C	12/25/2020	10:48	-134.205	43.560	0	186.90	0	7.8940	0	36.5940	8	28.546	0	185.324	0	200.8	4	70.6	4	-1E+10	1	-1E+10	1	-1E+10	1	-1E+10	1	-1E+10	1	-1E+10	1
4901784	200	C	12/25/2020	10:48	-134.205	43.560	0	189.70	0	7.8510	0	36.6280	8	28.579	0	188.099	0	199.7	4	70.2	4	-1E+10	1	-1E+10	1	-1E+10	1	-1E+10	1	-1E+10	1	-1E+10	1
4901784	200	C	12/25/2020	10:48	-134.205	43.560	0	192.40	0	7.7960	0	36.6710	8	28.622	0	190.775	0	198.4	4	69.7	4	-1E+10	1	-1E+10	1	-1E+10	1	-1E+10	1	-1E+10	1	-1E+10	1
4901784	200	C	12/25/2020	10:48	-134.205	43.560	0	195.20	0	7.7270	0	36.7110	8	28.664	0	193.550	0	197.5	4	69.3	4	-1E+10	1	-1E+10	1	-1E+10	1	-1E+10	1	-1E+10	1	-1E+10	1
4901784	200	C	12/25/2020	10:48	-134.205	43.560	0	197.90	0	7.6970	0	36.7320	8	28.685	0	196.226	0	196.1	4	68.7	4	-1E+10	1	-1E+10	1	-1E+10	1	-1E+10	1	-1E+10	1	-1E+10	1
4901784	200	C	12/25/2020	10:48	-134.205	43.560	0	199.80	0	7.6430	0	36.7750	8	28.727	0	198.109	0	195.1	4	68.3	4	-1E+10	1	-1E+10	1	-1E+10	1	-1E+10	1	-1E+10	1	-1E+10	1
4901784	200	C	12/25/2020	10:48	-134.205	43.560	0	202.50	0	7.6120	0	36.8000	8	28.751	0	200.784	0	193.9	4	67.9	4	-1E+10	1	-1E+10	1	-1E+10	1	-1E+10	1	-1E+10	1	-1E+10	1
4901784	200	C	12/25/2020	10:48	-134.205	43.560	0	205.30	0	7.5770	0	36.8480	8	28.794	0	203.559	0	192.6	4	67.4	4	-1E+10	1	-1E+10	1	-1E+10	1	-1E+10	1	-1E+10	1	-1E+10	1
4901784	200	C	12/25/2020	10:48	-134.205	43.560	0	207.70	0	7.5640	0	36.8830	8	28.824	0	205.938	0	191.3	4	67.0	4	-1E+10	1	-1E+10	1	-1E+10	1	-1E+10	1	-1E+10	1	-1E+10	1
4901784	200	C	12/25/2020	10:48	-134.205	43.560	0	210.40	0	7.5650	0	36.8990	8	28.836	0	208.614	0	189.6	4	66.3	4	-1E+10	1	-1E+10	1	-1E+10	1	-1E+10	1	-1E+10	1	-1E+10	1
4901784	200	C	12/25/2020	10:48	-134.205	43.560	0	212.70	0	7.5490	0	36.9410	8	28.872	0	210.893	0	187.7	4	65.7	4	-1E+10	1	-1E+10	1	-1E+10	1	-1E+10	1	-1E+10	1	-1E+10	1
4901784	200	C	12/25/2020	10:48	-134.205	43.560	0	215.10	0	7.5540	0	36.9560	8	28.883	0	213.271	0	186.3	4	65.2	4	-1E+10	1	-1E+10	1	-1E+10	1	-1E+10	1	-1E+10	1	-1E+10	1
4901784	200	C	12/25/2020	10:48	-134.205	43.560	0	217.50	0	7.6130	0	36.9770	8	28.890	0	215.650	0	184.3	4	64.6	4	-1E+10	1	-1E+10	1	-1E+10	1	-1E+10	1	-1E+10	1	-1E+10	1
4901784	200	C	12/25/2020	10:48	-134.205	43.560	0	220.00	0	7.5550	0	36.9970	8	28.915	0	218.127	0	182.8	4	64.0	4	-1E+10	1	-1E+10	1	-1E+10	1	-1E+10	1	-1E+10	1	-1E+10	1
4901784	200	C	12/25/2020	10:48	-134.205	43.560	0	222.50	0	7.5450	0	37.0210	8	28.935	0	220.604	0	180.9	4	63.3	4	-1E+10	1	-1E+10	1	-1E+10	1	-1E+10	1	-1E+10	1	-1E+10	1
4901784	200	C	12/25/2020	10:48	-134.205	43.560	0	225.00	0	7.5450	0	37.0380	8	28.949	0	223.082	0	178.9	4	62.7	4	-1E+10	1	-1E+10	1	-1E+10	1	-1E+10	1	-1E+10	1	-1E+10	1
4901784	200	C	12/25/2020	10:48	-134.205	43.560	0	227.60	0	7.5350	0	37.0580	8	28.966	0	225.658	0	176.9	4	61.9	4	-1E+10	1	-1E+10	1	-1E+10	1	-1E+10	1	-1E+10	1	-1E+10	1
4901784	200	C	12/25/2020	10:48	-134.205	43.560	0	230.10	0	7.5230	0	37.0710	8	28.978	0	228.135	0	174.7	4	61.2	4	-1E+10	1	-1E+10	1	-1E+10	1	-1E+10	1	-1E+10	1	-1E+10	1
4901784	200	C	12/25/2020	10:48	-134.205	43.560	0	232.60	0	7.5210	0	37.0940	8	28.997	0	230.613	0	172.4	4	60.4	4	-1E+10	1	-1E+10	1	-1E+10	1	-1E+10	1	-1E+10	1	-1E+10	1
4901784	200	C	12/25/2020	10:48	-134.205	43.560	0	235.20	0	7.5340	0	37.1030	8	29.002	0	233.189	0	170.2	4	59.6	4	-1E+10	1	-1E+10	1	-1E+10	1	-1E+10	1	-1E+10	1	-1E+10	1
4901784	200	C	12/25/2020	10:48	-134.205	43.560	0	237.80	0	7.5340	0	37.1360	8	29.028	0	235.765	0	167.8	4	58.8	4	-1E+10	1	-1E+10	1	-1E+10	1	-1E+10	1	-1E+10	1	-1E+10	1
4901784	200	C	12/25/2020	10:48	-134.205	43.560	0	240.40	0	7.4970	0	37.1490	8	29.044	0	238.342	0	165.5	4	57.9	4	-1E+10	1	-1E+10	1	-1E+10	1	-1E+10	1	-1E+10	1	-1E+10	1
4901784	200	C	12/25/2020	10:48	-134.205	43.560	0	243.00	0	7.4360	0	37.1570	8	29.059	0	240.918	0	163.3	4	57.1	4	-1E+10	1	-1E+10	1	-1E+10	1	-1E+10	1	-1E+10	1	-1E+10	1
4901784	200	C	12/25/2020	10:48	-134.205	43.560	0	244.80	0	7.4590	0	37.1660	8	29.063	0	242.701	0	161.4	4	56.5	4	-1E+10	1	-1E+10	1	-1E+10	1	-1E+10	1	-1E+10	1	-1E+10	1
4901784	200	C	12/25/2020	10:48	-134.205	43.560	0	247.50	0	7.4290	0	37.1740	8	29.074	0	245.377	0	158.9	4	55.6	4	-1E+10	1	-1E+10	1	-1E+10	1	-1E+10	1	-1E+10	1	-1E+10	1
4901784	200	C	12/25/2020	10:48	-134.205	43.560	0	250.10	0	7.3930	0	37.1930	8	29.094	0	247.953	0	156.5	4	54.7	4	-1E+10	1	-1E+10	1	-1E+10	1	-1E+10	1	-1E+10	1	-1E+10	1
4901784	200	C	12/25/2020	10:48	-134.205	43.560	0	252.80	0	7.3580	0	37.1950	8	29.101	0	250.628	0	155.0	4	54.1	4	-1E+10	1	-1E+10	1	-1E+10	1	-1E+10	1	-1E+10	1	-1E+10	1
4901784	200	C	12/25/2020	10:48	-134.205	43.560	0	255.50	0	7.3430	0	37.2020	8	29.109	0	253.303	0	153.7	4	53.7	4	-1E+10	1	-1E+10	1	-1E+10	1	-1E+10	1	-1E+10	1	-1E+10	1
4901784	200	C	12/25/2020	10:48	-134.205	43.560	0	257.30	0	7.3130	0	37.2050	8	29.115	0	255.086	0	153.5	4	53.6	4	-1E+10	1	-1E+10	1	-1E+10	1	-1E+10	1	-1E+10	1	-1E+10	1
4901784	200	C	12/25/2020	10:48	-134.205	43.560	0	260.00	0	7.2680	0	37.2040	8	29.121	0	257.761	0	152.9	4	53.3	4	-1E+10	1	-1E+10	1	-1E+10	1	-1E+10	1	-1E+10	1	-1E+10	1
4901784	200	C	12/25/2020	10:48	-134.205	43.560	0	262.80	0	7.2420	0	37.2040	8	29.125	0	260.536	0	152.3	4	53.0	4	-1E+10	1	-1E+10	1	-1E+10	1	-1E+10	1	-1E+10	1	-1E+10	1
4901784	200	C	12/25/2020	10:48	-134.205	43.560	0	264.60	0	7.2170	0	37.2030	8	29.128	0	262.319	0	151.8	4	52.8	4	-1E+10	1	-1E+10	1	-1E+10	1	-1E+10	1	-1E+10	1	-1E+10	1
4901784	200	C	12/25/2020	10:48	-134.205	43.560	0	267.40	0	7.1730	0	37.2010	8	29.133	0	265.093	0	150.9	4	52.5	4	-1E+10	1	-1E+10	1	-1E+10	1	-1E+10	1	-1E+10	1	-1E+10	1
4901784	200	C	12/25/2020	10:48	-134.205	43.560	0	270.20	0	7.0930	0	37.2030	8	29.146	0	267.867	0	149.9	4	52.0	4	-1E+10	1	-1E+10	1	-1E+10	1	-1E+10	1	-1E+10	1	-1E+10	1
4901784	200	C	12/25/2020	10:48	-134.205	43.560	0	272.10	0	7.0730	0	37.2010	8	29.148	0	269.749	0	149.2	4	51.8	4	-1E+10	1	-1E+10	1	-1E+10	1	-1E+10	1	-1E+10	1	-1E+10	1
4901784	200	C	12/25/2020	10:48	-134.205	43.560	0	274.90	0	7.0260	0	37.2000	8	29.154	0	272.523	0	148.4	4	51.4	4	-1E+10	1	-1E+10	1	-1E+10	1	-1E+10	1	-1E+10	1	-1E+10	1
4901784	200	C	12/25/2020	10:48	-134.205	43.560	0	277.60	0	6.9780	0	37.2000	8	29.161	0	275.198	0	147.7	4	51.1	4	-1E+10	1	-1E+10	1	-1E+10	1	-1E+10	1	-1E+10	1	-1E+10	1
4901784	200	C	12/25/2020	10:48	-134.205	43.560	0	279.50	0	6.9600	0	37.1970	8	29.161	0	277.081	0	147.1	4	50.9	4	-1E+10	1	-1E+10	1	-1E+10	1	-1E+10	1	-1E+10	1	-1E+10	1
4901784	200	C	12/25/2020	10:48	-134.205	43.560	0	282.30	0	6.9090	0	37.1960	8	29.167	0	279.854	0	146.2	4	50.5	4	-1E+10	1	-1E+10	1	-1E+10	1	-1E+10	1	-1E+10	1	-1E+10	1
4901784	200	C	12/25/2020	10:48	-134.205	43.560	0	285.10	0	6.8700	0	37.1910	8	29.169	0	282.628	0	145.2	4	50.1	4	-1E+10	1	-1E+10	1	-1E+10	1	-1E+10	1	-1E+10	1	-1E+10	1
4901784	200	C	12/25/2020	10:48	-134.205	43.560	0	287.00	0	6.8370	0	37.1900	8	29.173	0	284.510	0	144.3	4	49.8	4	-1E+10	1	-1E+10	1	-1E+10	1	-1E+10	1	-1E+10	1	-1E+10	1
4901784	200	C	12/25/2020	10:48	-134.205	43.560	0	289.80	0	6.8070	0	37.1820	8	29.171	0	287.284	0	142.9	4	49.3	4	-1E+10	1	-1E+10	1	-1E+10	1	-1E+10	1	-1E+10	1	-1E+10	1
4901784	200	C	12/25/2020	10:48	-134.205	43.560	0	292.60	0	6.7750	0	37.1740	8	29.169	0	290.058	0	140.8	4	48.5	4	-1E+10	1	-1E+10	1	-1E+10	1	-1E+10	1	-1E+10	1	-1E+10	1
4901784	200	C	12/25/2020	10:48	-134.205	43.560	0	294.40	0	6.7290	0	37.1750	8	29.177	0	291.841	0	138.9	4	47.8	4	-1E+10	1	-1E+10	1	-1E+10	1	-1E+10	1	-1E+10	1	-1E+10	1
4901784	200	C	12/25/2020	10:48	-134.205	43.560	0	297.20	0	6.7260	0	37.1670	8	29.171	0	294.615	0	136.1	4	46.8	4	-1E+10	1	-1E+10	1	-1E+10	1	-1E+10	1	-1E+10	1	-1E+10	1
4901784	200	C	12/25/2020	10:48	-134.205	43.560	0	300.00	0	6.7140	0	37.1570	8	29.165	0	297.388	0	133.6	4	46.0	4	-1E+10	1	-1E+10	1	-1E+10	1	-1E+10	1	-1E+10	1	-1E+10	1
4901784	200	C	12/25/2020	10:48	-134.205	43.560	0	302.80	0	6.6960	8	37.1250	8	29.142	0	300.162	0	131.9	4	45.3	4	-1E+10	1	-1E+10	1	-1E+10	1	-1E+10	1	-1E+10	1	-1E+10	1
4901784	200	C	12/25/2020	10:48	-134.205	43.560	0	305.50	0	6.6730	8	37.0810	8	29.110	0	302.836	0	131.2	4	45.1	4	-1E+10	1	-1E+10	1	-1E+10	1	-1E+10	1	-1E+10	1	-1E+10	1
4901784	200	C	12/25/2020	10:48	-134.205	43.560	0	307.40	0	6.6440	8	37.0130	8	29.061	0	304.719	0	131.1	4	45.0	4	-1E+10	1	-1E+10	1	-1E+10	1	-1E+10	1	-1E+10	1	-1E+10	1
4901784	200	C	12/25/2020	10:48	-134.205	43.560	0	310.20	0	6.5520	0	36.9840	8	29.051	0	307.492	0	130.8	4	44.8	4	-1E+10	1	-1E+10	1	-1E+10	1	-1E+10	1	-1E+10	1	-1E+10	1
4901784	200	C	12/25/2020	10:48	-134.205	43.560	0	313.10	0	6.4910	0	36.9670	8	29.046	0	310.365	0	128.9	4	44.1	4	-1E+10	1	-1E+10	1	-1E+10	1	-1E+10	1	-1E+10	1	-1E+10	1
4901784	200	C	12/25/2020	10:48	-134.205	43.560	0	315.00	0	6.4620	0	36.9820	8	29.062	0	312.247	0	128.0	4	43.7	4	-1E+10	1	-1E+10	1	-1E+10	1	-1E+10	1	-1E+10	1	-1E+10	1
4901784	200	C	12/25/2020	10:48	-134.205	43.560	0	316.90	0	6.4420	0	36.9820	8	29.064	0	314.128	0	127.2	4	43.4	4	-1E+10	1	-1E+10	1	-1E+10	1	-1E+10	1	-1E+10	1	-1E+10	1
4901784	200	C	12/25/2020	10:48	-134.205	43.560	0	319.80	0	6.4150	0	36.9690	8	29.058	0	317.001	0	126.8	4	43.3	4	-1E+10	1	-1E+10	1	-1E+10	1	-1E+10	1	-1E+10	1	-1E+10	1
4901784	200	C	12/25/2020	10:48	-134.205	43.560	0	322.60	0	6.3500	0	36.9430	8	29.046	0	319.774	0	125.7	4	42.8	4	-1E+10	1	-1E+10	1	-1E+10	1	-1E+10	1	-1E+10	1	-1E+10	1
4901784	200	C	12/25/2020	10:48	-134.205	43.560	0	324.50	0	6.3020	0	36.9790	8	29.081	0	321.656	0	124.0	4	42.2	4	-1E+10	1	-1E+10	1	-1E+10	1	-1E+10	1	-1E+10	1	-1E+10	1
4901784	200	C	12/25/2020	10:48	-134.205	43.560	0	327.40	0	6.2900	0	36.9540	8	29.063	0	324.528	0	120.7	4	41.0	4	-1E+10	1	-1E+10	1	-1E+10	1	-1E+10	1	-1E+10	1	-1E+10	1
4901784	200	C	12/25/2020	10:48	-134.205	43.560	0	330.30	0	6.3340	0	36.9490	8	29.053	0	327.401	0	117.3	4	39.9	4	-1E+10	1	-1E+10	1	-1E+10	1	-1E+10	1	-1E+10	1	-1E+10	1
4901784	200	C	12/25/2020	10:48	-134.205	43.560	0	332.20	0	6.3350	0	36.9440	8	29.049	0	329.283	0	116.8	4	39.8	4	-1E+10	1	-1E+10	1	-1E+10	1	-1E+10	1	-1E+10	1	-1E+10	1
4901784	200	C	12/25/2020	10:48	-134.205	43.560	0	335.10	0	6.2630	0	36.9520	8	29.065	0	332.155	0	116.3	4	39.5	4	-1E+10	1	-1E+10	1	-1E+10	1	-1E+10	1	-1E+10	1	-1E+10	1
4901784	200	C	12/25/2020	10:48	-134.205	43.560	0	338.40	0	6.1990	0	36.9450	8	29.068	0	335.423	0	113.6	4	38.6	4	-1E+10	1	-1E+10	1	-1E+10	1	-1E+10	1	-1E+10	1	-1E+10	1
4901784	200	C	12/25/2020	10:48	-134.205	43.560	0	339.70	0	6.2110	0	36.9530	8	29.073	0	336.711	0	111.8	4	38.0	4	-1E+10	1	-1E+10	1	-1E+10	1	-1E+10	1	-1E+10	1	-1E+10	1
4901784	200	C	12/25/2020	10:48	-134.205	43.560	0	342.30	0	6.1810	0	36.9370	8	29.065	0	339.286	0	110.0	4	37.3	4	-1E+10	1	-1E+10	1	-1E+10	1	-1E+10	1	-1E+10	1	-1E+10	1
4901784	200	C	12/25/2020	10:48	-134.205	43.560	0	344.80	0	6.1690	0	36.9440	8	29.072	0	341.761	0	107.5	4	36.5	4	-1E+10	1	-1E+10	1	-1E+10	1	-1E+10	1	-1E+10	1	-1E+10	1
4901784	200	C	12/25/2020	10:48	-134.205	43.560	0	347.20	0	6.1400	0	36.9550	8	29.084	0	344.138	0	105.8	4	35.9	4	-1E+10	1	-1E+10	1	-1E+10	1	-1E+10	1	-1E+10	1	-1E+10	1
4901784	200	C	12/25/2020	10:48	-134.205	43.560	0	349.70	0	6.1070	0	36.9210	8	29.062	0	346.614	0	104.8	4	35.5	4	-1E+10	1	-1E+10	1	-1E+10	1	-1E+10	1	-1E+10	1	-1E+10	1
4901784	200	C	12/25/2020	10:48	-134.205	43.560	0	352.90	0	6.0620	0	36.9220	8	29.069	0	349.783	0	104.1	4	35.2	4	-1E+10	1	-1E+10	1	-1E+10	1	-1E+10	1	-1E+10	1	-1E+10	1
4901784	200	C	12/25/2020	10:48	-134.205	43.560	0	355.40	0	6.0250	0	36.9240	8	29.075	0	352.259	0	103.9	4	35.1	4	-1E+10	1	-1E+10	1	-1E+10	1	-1E+10	1	-1E+10	1	-1E+10	1
4901784	200	C	12/25/2020	10:48	-134.205	43.560	0	357.90	0	5.9870	0	36.9110	8	29.070	0	354.735	0	103.7	4	35.0	4	-1E+10	1	-1E+10	1	-1E+10	1	-1E+10	1	-1E+10	1	-1E+10	1
4901784	200	C	12/25/2020	10:48	-134.205	43.560	0	360.40	0	5.9600	0	36.8940	8	29.060	0	357.211	0	102.8	4	34.7	4	-1E+10	1	-1E+10	1	-1E+10	1	-1E+10	1	-1E+10	1	-1E+10	1
4901784	200	C	12/25/2020	10:48	-134.205	43.560	0	362.10	0	5.9510	0	36.9090	8	29.073	0	358.894	0	102.2	4	34.5	4	-1E+10	1	-1E+10	1	-1E+10	1	-1E+10	1	-1E+10	1	-1E+10	1
4901784	200	C	12/25/2020	10:48	-134.205	43.560	0	364.70	0	5.8640	0	36.8990	8	29.077	0	361.469	0	100.7	4	33.9	4	-1E+10	1	-1E+10	1	-1E+10	1	-1E+10	1	-1E+10	1	-1E+10	1
4901784	200	C	12/25/2020	10:48	-134.205	43.560	0	367.20	0	5.8570	0	36.9080	8	29.085	0	363.944	0	99.0	4	33.3	4	-1E+10	1	-1E+10	1	-1E+10	1	-1E+10	1	-1E+10	1	-1E+10	1
4901784	200	C	12/25/2020	10:48	-134.205	43.560	0	369.80	0	5.8380	0	36.9150	8	29.093	0	366.519	0	97.4	4	32.8	4	-1E+10	1	-1E+10	1	-1E+10	1	-1E+10	1	-1E+10	1	-1E+10	1
4901784	200	C	12/25/2020	10:48	-134.205	43.560	0	372.30	0	5.8230	0	36.9170	8	29.097	0	368.995	0	96.1	4	32.3	4	-1E+10	1	-1E+10	1	-1E+10	1	-1E+10	1	-1E+10	1	-1E+10	1
4901784	200	C	12/25/2020	10:48	-134.205	43.560	0	374.90	0	5.8110	0	36.9140	8	29.096	0	371.569	0	94.4	4	31.7	4	-1E+10	1	-1E+10	1	-1E+10	1	-1E+10	1	-1E+10	1	-1E+10	1
4901784	200	C	12/25/2020	10:48	-134.205	43.560	0	377.40	0	5.7810	0	36.8940	8	29.084	0	374.045	0	91.6	4	30.8	4	-1E+10	1	-1E+10	1	-1E+10	1	-1E+10	1	-1E+10	1	-1E+10	1
4901784	200	C	12/25/2020	10:48	-134.205	43.560	0	380.10	0	5.8230	0	36.8800	8	29.067	0	376.718	0	89.0	4	29.9	4	-1E+10	1	-1E+10	1	-1E+10	1	-1E+10	1	-1E+10	1	-1E+10	1
4901784	200	C	12/25/2020	10:48	-134.205	43.560	0	382.60	0	5.8000	0	36.8950	8	29.082	0	379.194	0	87.6	4	29.5	4	-1E+10	1	-1E+10	1	-1E+10	1	-1E+10	1	-1E+10	1	-1E+10	1
4901784	200	C	12/25/2020	10:48	-134.205	43.560	0	385.20	0	5.7410	0	36.8720	8	29.072	0	381.768	0	87.2	4	29.3	4	-1E+10	1	-1E+10	1	-1E+10	1	-1E+10	1	-1E+10	1	-1E+10	1
4901784	200	C	12/25/2020	10:48	-134.205	43.560	0	387.80	0	5.7120	0	36.8550	8	29.062	0	384.343	0	86.5	4	29.0	4	-1E+10	1	-1E+10	1	-1E+10	1	-1E+10	1	-1E+10	1	-1E+10	1
4901784	200	C	12/25/2020	10:48	-134.205	43.560	0	389.50	0	5.6970	0	36.8520	8	29.062	0	386.026	0	85.8	4	28.8	4	-1E+10	1	-1E+10	1	-1E+10	1	-1E+10	1	-1E+10	1	-1E+10	1
4901784	200	C	12/25/2020	10:48	-134.205	43.560	0	392.10	0	5.6620	0	36.8500	8	29.065	0	388.600	0	84.9	4	28.4	4	-1E+10	1	-1E+10	1	-1E+10	1	-1E+10	1	-1E+10	1	-1E+10	1
4901784	200	C	12/25/2020	10:48	-134.205	43.560	0	394.70	0	5.6590	0	36.8410	8	29.058	0	391.175	0	83.9	4	28.1	4	-1E+10	1	-1E+10	1	-1E+10	1	-1E+10	1	-1E+10	1	-1E+10	1
4901784	200	C	12/25/2020	10:48	-134.205	43.560	0	397.40	0	5.6560	0	36.8820	8	29.091	0	393.848	0	83.1	4	27.8	4	-1E+10	1	-1E+10	1	-1E+10	1	-1E+10	1	-1E+10	1	-1E+10	1
4901784	200	C	12/25/2020	10:48	-134.205	43.560	0	400.00	0	5.6410	0	36.8490	8	29.067	0	396.422	0	82.7	4	27.7	4	-1E+10	1	-1E+10	1	-1E+10	1	-1E+10	1	-1E+10	1	-1E+10	1
4901784	200	C	12/25/2020	10:48	-134.205	43.560	0	402.50	0	5.6140	0	36.8440	8	29.066	0	398.897	0	82.5	4	27.6	4	-1E+10	1	-1E+10	1	-1E+10	1	-1E+10	1	-1E+10	1	-1E+10	1
4901784	200	C	12/25/2020	10:48	-134.205	43.560	0	405.10	0	5.5890	0	36.8390	8	29.065	0	401.472	0	82.6	4	27.6	4	-1E+10	1	-1E+10	1	-1E+10	1	-1E+10	1	-1E+10	1	-1E+10	1
4901784	200	C	12/25/2020	10:48	-134.205	43.560	0	407.70	0	5.5550	0	36.8290	8	29.062	0	404.046	0	82.5	4	27.6	4	-1E+10	1	-1E+10	1	-1E+10	1	-1E+10	1	-1E+10	1	-1E+10	1
4901784	200	C	12/25/2020	10:48	-134.205	43.560	0	410.30	0	5.5200	8	36.8660	8	29.096	0	406.620	0	82.5	4	27.5	4	-1E+10	1	-1E+10	1	-1E+10	1	-1E+10	1	-1E+10	1	-1E+10	1
4901784	200	C	12/25/2020	10:48	-134.205	43.560	0	412.90	0	5.4970	8	36.8160	8	29.059	0	409.194	0	82.1	4	27.4	4	-1E+10	1	-1E+10	1	-1E+10	1	-1E+10	1	-1E+10	1	-1E+10	1
4901784	200	C	12/25/2020	10:48	-134.205	43.560	0	415.40	0	5.4590	0	36.8230	8	29.069	0	411.669	0	81.6	4	27.2	4	-1E+10	1	-1E+10	1	-1E+10	1	-1E+10	1	-1E+10	1	-1E+10	1
4901784	200	C	12/25/2020	10:48	-134.205	43.560	0	417.10	0	5.4180	0	36.8160	8	29.069	0	413.352	0	81.5	4	27.1	4	-1E+10	1	-1E+10	1	-1E+10	1	-1E+10	1	-1E+10	1	-1E+10	1
4901784	200	C	12/25/2020	10:48	-134.205	43.560	0	419.70	0	5.3620	0	36.8050	8	29.067	0	415.926	0	81.2	4	27.0	4	-1E+10	1	-1E+10	1	-1E+10	1	-1E+10	1	-1E+10	1	-1E+10	1
4901784	200	C	12/25/2020	10:48	-134.205	43.560	0	422.30	0	5.2990	0	36.8070	8	29.077	0	418.500	0	80.4	4	26.7	4	-1E+10	1	-1E+10	1	-1E+10	1	-1E+10	1	-1E+10	1	-1E+10	1
4901784	200	C	12/25/2020	10:48	-134.205	43.560	0	425.00	0	5.2770	0	36.7920	8	29.068	0	421.173	0	78.8	4	26.2	4	-1E+10	1	-1E+10	1	-1E+10	1	-1E+10	1	-1E+10	1	-1E+10	1
4901784	200	C	12/25/2020	10:48	-134.205	43.560	0	427.60	0	5.2560	0	36.7840	8	29.064	0	423.747	0	77.4	4	25.7	4	-1E+10	1	-1E+10	1	-1E+10	1	-1E+10	1	-1E+10	1	-1E+10	1
4901784	200	C	12/25/2020	10:48	-134.205	43.560	0	430.30	0	5.2210	0	36.7840	8	29.068	0	426.420	0	76.1	4	25.2	4	-1E+10	1	-1E+10	1	-1E+10	1	-1E+10	1	-1E+10	1	-1E+10	1
4901784	200	C	12/25/2020	10:48	-134.205	43.560	0	432.90	0	5.1970	0	36.7770	8	29.066	0	428.994	0	75.3	4	25.0	4	-1E+10	1	-1E+10	1	-1E+10	1	-1E+10	1	-1E+10	1	-1E+10	1
4901784	200	C	12/25/2020	10:48	-134.205	43.560	0	434.60	0	5.1920	0	36.7640	8	29.056	0	430.677	0	74.9	4	24.8	4	-1E+10	1	-1E+10	1	-1E+10	1	-1E+10	1	-1E+10	1	-1E+10	1
4901784	200	C	12/25/2020	10:48	-134.205	43.560	0	437.20	0	5.1610	0	36.7580	8	29.055	0	433.251	0	74.0	4	24.5	4	-1E+10	1	-1E+10	1	-1E+10	1	-1E+10	1	-1E+10	1	-1E+10	1
4901784	200	C	12/25/2020	10:48	-134.205	43.560	0	439.80	0	5.1000	0	36.7620	8	29.066	0	435.824	0	73.3	4	24.2	4	-1E+10	1	-1E+10	1	-1E+10	1	-1E+10	1	-1E+10	1	-1E+10	1
4901784	200	C	12/25/2020	10:48	-134.205	43.560	0	442.40	0	5.0920	0	36.7540	8	29.060	0	438.398	0	72.4	4	23.9	4	-1E+10	1	-1E+10	1	-1E+10	1	-1E+10	1	-1E+10	1	-1E+10	1
4901784	200	C	12/25/2020	10:48	-134.205	43.560	0	445.10	0	5.1020	0	36.7510	8	29.057	0	441.071	0	71.4	4	23.6	4	-1E+10	1	-1E+10	1	-1E+10	1	-1E+10	1	-1E+10	1	-1E+10	1
4901784	200	C	12/25/2020	10:48	-134.205	43.560	0	447.70	0	5.0670	0	36.7370	8	29.050	0	443.645	0	70.7	4	23.3	4	-1E+10	1	-1E+10	1	-1E+10	1	-1E+10	1	-1E+10	1	-1E+10	1
4901784	200	C	12/25/2020	10:48	-134.205	43.560	0	450.40	0	5.0500	0	36.7360	8	29.051	0	446.317	0	70.1	4	23.1	4	-1E+10	1	-1E+10	1	-1E+10	1	-1E+10	1	-1E+10	1	-1E+10	1
4901784	200	C	12/25/2020	10:48	-134.205	43.560	0	452.10	0	5.0320	0	36.7330	8	29.051	0	448.000	0	69.6	4	23.0	4	-1E+10	1	-1E+10	1	-1E+10	1	-1E+10	1	-1E+10	1	-1E+10	1
4901784	200	C	12/25/2020	10:48	-134.205	43.560	0	454.80	0	4.9800	0	36.7350	8	29.059	0	450.673	0	68.6	4	22.6	4	-1E+10	1	-1E+10	1	-1E+10	1	-1E+10	1	-1E+10	1	-1E+10	1
4901784	200	C	12/25/2020	10:48	-134.205	43.560	0	457.50	0	4.9390	0	36.7320	8	29.061	0	453.345	0	67.8	4	22.3	4	-1E+10	1	-1E+10	1	-1E+10	1	-1E+10	1	-1E+10	1	-1E+10	1
4901784	200	C	12/25/2020	10:48	-134.205	43.560	0	460.20	0	4.9080	0	36.7240	8	29.059	0	456.018	0	67.0	4	22.0	4	-1E+10	1	-1E+10	1	-1E+10	1	-1E+10	1	-1E+10	1	-1E+10	1
4901784	200	C	12/25/2020	10:48	-134.205	43.560	0	462.80	0	4.8920	0	36.7220	8	29.059	0	458.591	0	66.5	4	21.8	4	-1E+10	1	-1E+10	1	-1E+10	1	-1E+10	1	-1E+10	1	-1E+10	1
4901784	200	C	12/25/2020	10:48	-134.205	43.560	0	464.60	0	4.8850	0	36.7200	8	29.058	0	460.373	0	66.0	4	21.7	4	-1E+10	1	-1E+10	1	-1E+10	1	-1E+10	1	-1E+10	1	-1E+10	1
4901784	200	C	12/25/2020	10:48	-134.205	43.560	0	467.40	0	4.8780	0	36.7180	8	29.058	0	463.144	0	65.1	4	21.4	4	-1E+10	1	-1E+10	1	-1E+10	1	-1E+10	1	-1E+10	1	-1E+10	1
4901784	200	C	12/25/2020	10:48	-134.205	43.560	0	470.10	0	4.8460	0	36.7150	8	29.059	0	465.817	0	64.0	4	21.0	4	-1E+10	1	-1E+10	1	-1E+10	1	-1E+10	1	-1E+10	1	-1E+10	1
4901784	200	C	12/25/2020	10:48	-134.205	43.560	0	472.00	0	4.8310	0	36.7190	8	29.064	0	467.697	0	63.4	4	20.8	4	-1E+10	1	-1E+10	1	-1E+10	1	-1E+10	1	-1E+10	1	-1E+10	1
4901784	200	C	12/25/2020	10:48	-134.205	43.560	0	474.70	0	4.8040	0	36.7100	8	29.060	0	470.370	0	62.1	4	20.4	4	-1E+10	1	-1E+10	1	-1E+10	1	-1E+10	1	-1E+10	1	-1E+10	1
4901784	200	C	12/25/2020	10:48	-134.205	43.560	0	477.40	0	4.7510	0	36.7150	8	29.070	0	473.042	0	61.0	4	20.0	4	-1E+10	1	-1E+10	1	-1E+10	1	-1E+10	1	-1E+10	1	-1E+10	1
4901784	200	C	12/25/2020	10:48	-134.205	43.560	0	480.20	0	4.7410	0	36.7140	8	29.071	0	475.813	0	60.1	4	19.7	4	-1E+10	1	-1E+10	1	-1E+10	1	-1E+10	1	-1E+10	1	-1E+10	1
4901784	200	C	12/25/2020	10:48	-134.205	43.560	0	483.00	0	4.7160	0	36.7180	8	29.077	0	478.584	0	58.9	4	19.3	4	-1E+10	1	-1E+10	1	-1E+10	1	-1E+10	1	-1E+10	1	-1E+10	1
4901784	200	C	12/25/2020	10:48	-134.205	43.560	0	484.90	0	4.7080	0	36.7190	8	29.079	0	480.465	0	58.3	4	19.1	4	-1E+10	1	-1E+10	1	-1E+10	1	-1E+10	1	-1E+10	1	-1E+10	1
4901784	200	C	12/25/2020	10:48	-134.205	43.560	0	487.70	0	4.6940	0	36.7210	8	29.082	0	483.236	0	57.4	4	18.8	4	-1E+10	1	-1E+10	1	-1E+10	1	-1E+10	1	-1E+10	1	-1E+10	1
4901784	200	C	12/25/2020	10:48	-134.205	43.560	0	490.50	0	4.6780	0	36.7230	8	29.085	0	486.007	0	56.5	4	18.5	4	-1E+10	1	-1E+10	1	-1E+10	1	-1E+10	1	-1E+10	1	-1E+10	1
4901784	200	C	12/25/2020	10:48	-134.205	43.560	0	492.40	0	4.6560	0	36.7290	8	29.093	0	487.887	0	56.0	4	18.3	4	-1E+10	1	-1E+10	1	-1E+10	1	-1E+10	1	-1E+10	1	-1E+10	1
4901784	200	C	12/25/2020	10:48	-134.205	43.560	0	494.30	0	4.6500	0	36.7320	8	29.096	0	489.768	0	55.5	4	18.2	4	-1E+10	1	-1E+10	1	-1E+10	1	-1E+10	1	-1E+10	1	-1E+10	1
4901784	200	C	12/25/2020	10:48	-134.205	43.560	0	497.40	0	4.6380	0	36.7330	8	29.098	0	492.835	0	55.0	4	18.0	4	-1E+10	1	-1E+10	1	-1E+10	1	-1E+10	1	-1E+10	1	-1E+10	1
4901784	200	C	12/25/2020	10:48	-134.205	43.560	0	500.30	0	4.6320	0	36.7340	8	29.100	0	495.705	0	54.2	4	17.7	4	-1E+10	1	-1E+10	1	-1E+10	1	-1E+10	1	-1E+10	1	-1E+10	1
4901784	200	C	12/25/2020	10:48	-134.205	43.560	0	505.00	0	4.6180	0	36.7390	8	29.105	0	500.357	0	52.4	4	17.1	4	-1E+10	1	-1E+10	1	-1E+10	1	-1E+10	1	-1E+10	1	-1E+10	1
4901784	200	C	12/25/2020	10:48	-134.205	43.560	0	509.70	0	4.6050	0	36.7480	8	29.114	0	505.008	0	50.1	4	16.4	4	-1E+10	1	-1E+10	1	-1E+10	1	-1E+10	1	-1E+10	1	-1E+10	1
4901784	200	C	12/25/2020	10:48	-134.205	43.560	0	514.60	0	4.6530	0	36.7610	8	29.119	0	509.857	0	47.8	4	15.6	4	-1E+10	1	-1E+10	1	-1E+10	1	-1E+10	1	-1E+10	1	-1E+10	1
4901784	200	C	12/25/2020	10:48	-134.205	43.560	0	519.50	0	4.6490	0	36.7640	8	29.122	0	514.705	0	46.3	4	15.1	4	-1E+10	1	-1E+10	1	-1E+10	1	-1E+10	1	-1E+10	1	-1E+10	1
4901784	200	C	12/25/2020	10:48	-134.205	43.560	0	524.50	0	4.6420	0	36.7710	8	29.128	0	519.653	0	44.1	4	14.4	4	-1E+10	1	-1E+10	1	-1E+10	1	-1E+10	1	-1E+10	1	-1E+10	1
4901784	200	C	12/25/2020	10:48	-134.205	43.560	0	529.50	0	4.6100	0	36.7810	8	29.140	0	524.600	0	41.9	4	13.7	4	-1E+10	1	-1E+10	1	-1E+10	1	-1E+10	1	-1E+10	1	-1E+10	1
4901784	200	C	12/25/2020	10:48	-134.205	43.560	0	534.60	0	4.6060	0	36.7900	8	29.147	0	529.647	0	39.9	4	13.0	4	-1E+10	1	-1E+10	1	-1E+10	1	-1E+10	1	-1E+10	1	-1E+10	1
4901784	200	C	12/25/2020	10:48	-134.205	43.560	0	539.70	0	4.5980	0	36.7980	8	29.155	0	534.693	0	38.1	4	12.4	4	-1E+10	1	-1E+10	1	-1E+10	1	-1E+10	1	-1E+10	1	-1E+10	1
4901784	200	C	12/25/2020	10:48	-134.205	43.560	0	544.90	0	4.6110	0	36.8090	8	29.162	0	539.838	0	36.0	4	11.8	4	-1E+10	1	-1E+10	1	-1E+10	1	-1E+10	1	-1E+10	1	-1E+10	1
4901784	200	C	12/25/2020	10:48	-134.205	43.560	0	550.00	0	4.5950	0	36.8150	8	29.169	0	544.884	0	34.8	4	11.4	4	-1E+10	1	-1E+10	1	-1E+10	1	-1E+10	1	-1E+10	1	-1E+10	1
4901784	200	C	12/25/2020	10:48	-134.205	43.560	0	555.20	0	4.5370	0	36.8210	8	29.180	0	550.029	0	33.7	4	11.0	4	-1E+10	1	-1E+10	1	-1E+10	1	-1E+10	1	-1E+10	1	-1E+10	1
4901784	200	C	12/25/2020	10:48	-134.205	43.560	0	560.40	0	4.5310	0	36.8300	8	29.188	0	555.173	0	32.3	4	10.5	4	-1E+10	1	-1E+10	1	-1E+10	1	-1E+10	1	-1E+10	1	-1E+10	1
4901784	200	C	12/25/2020	10:48	-134.205	43.560	0	565.70	0	4.4970	0	36.8350	8	29.196	0	560.417	0	31.3	4	10.2	4	-1E+10	1	-1E+10	1	-1E+10	1	-1E+10	1	-1E+10	1	-1E+10	1
4901784	200	C	12/25/2020	10:48	-134.205	43.560	0	570.10	0	4.4890	0	36.8380	8	29.199	0	564.770	0	30.1	4	9.8	4	-1E+10	1	-1E+10	1	-1E+10	1	-1E+10	1	-1E+10	1	-1E+10	1
4901784	200	C	12/25/2020	10:48	-134.205	43.560	0	574.60	0	4.4800	0	36.8480	8	29.209	0	569.221	0	28.9	4	9.4	4	-1E+10	1	-1E+10	1	-1E+10	1	-1E+10	1	-1E+10	1	-1E+10	1
4901784	200	C	12/25/2020	10:48	-134.205	43.560	0	580.00	0	4.4690	0	36.8550	8	29.215	0	574.563	0	28.0	4	9.1	4	-1E+10	1	-1E+10	1	-1E+10	1	-1E+10	1	-1E+10	1	-1E+10	1
4901784	200	C	12/25/2020	10:48	-134.205	43.560	0	585.40	0	4.4460	0	36.8580	8	29.220	0	579.905	0	27.3	4	8.9	4	-1E+10	1	-1E+10	1	-1E+10	1	-1E+10	1	-1E+10	1	-1E+10	1
4901784	200	C	12/25/2020	10:48	-134.205	43.560	0	590.00	0	4.4200	0	36.8630	8	29.227	0	584.456	0	26.8	4	8.7	4	-1E+10	1	-1E+10	1	-1E+10	1	-1E+10	1	-1E+10	1	-1E+10	1
4901784	200	C	12/25/2020	10:48	-134.205	43.560	0	594.60	0	4.4080	0	36.8650	8	29.230	0	589.006	0	26.3	4	8.6	4	-1E+10	1	-1E+10	1	-1E+10	1	-1E+10	1	-1E+10	1	-1E+10	1
4901784	200	C	12/25/2020	10:48	-134.205	43.560	0	600.00	0	4.3940	0	36.8680	8	29.234	0	594.347	0	25.5	4	8.3	4	-1E+10	1	-1E+10	1	-1E+10	1	-1E+10	1	-1E+10	1	-1E+10	1
4901784	200	C	12/25/2020	10:48	-134.205	43.560	0	605.60	0	4.3760	0	36.8770	8	29.244	0	599.887	0	24.4	4	7.9	4	-1E+10	1	-1E+10	1	-1E+10	1	-1E+10	1	-1E+10	1	-1E+10	1
4901784	200	C	12/25/2020	10:48	-134.205	43.560	0	610.20	0	4.3780	0	36.8810	8	29.247	0	604.437	0	23.7	4	7.7	4	-1E+10	1	-1E+10	1	-1E+10	1	-1E+10	1	-1E+10	1	-1E+10	1
4901784	200	C	12/25/2020	10:48	-134.205	43.560	0	614.90	0	4.3530	0	36.8870	8	29.254	0	609.085	0	23.1	4	7.5	4	-1E+10	1	-1E+10	1	-1E+10	1	-1E+10	1	-1E+10	1	-1E+10	1
4901784	200	C	12/25/2020	10:48	-134.205	43.560	0	620.50	0	4.3590	0	36.8920	8	29.258	0	614.624	0	22.4	4	7.3	4	-1E+10	1	-1E+10	1	-1E+10	1	-1E+10	1	-1E+10	1	-1E+10	1
4901784	200	C	12/25/2020	10:48	-134.205	43.560	0	625.00	0	4.3350	0	36.8940	8	29.262	0	619.075	0	21.8	4	7.1	4	-1E+10	1	-1E+10	1	-1E+10	1	-1E+10	1	-1E+10	1	-1E+10	1
4901784	200	C	12/25/2020	10:48	-134.205	43.560	0	629.70	0	4.3440	0	36.9010	8	29.267	0	623.723	0	20.9	4	6.8	4	-1E+10	1	-1E+10	1	-1E+10	1	-1E+10	1	-1E+10	1	-1E+10	1
4901784	200	C	12/25/2020	10:48	-134.205	43.560	0	635.30	0	4.3450	0	36.9100	8	29.274	0	629.262	0	19.9	4	6.5	4	-1E+10	1	-1E+10	1	-1E+10	1	-1E+10	1	-1E+10	1	-1E+10	1
4901784	200	C	12/25/2020	10:48	-134.205	43.560	0	640.00	0	4.3450	0	36.9180	8	29.280	0	633.910	0	19.0	4	6.2	4	-1E+10	1	-1E+10	1	-1E+10	1	-1E+10	1	-1E+10	1	-1E+10	1
4901784	200	C	12/25/2020	10:48	-134.205	43.560	0	645.00	0	4.3910	0	36.9280	8	29.283	0	638.854	0	18.3	4	6.0	4	-1E+10	1	-1E+10	1	-1E+10	1	-1E+10	1	-1E+10	1	-1E+10	1
4901784	200	C	12/25/2020	10:48	-134.205	43.560	0	650.20	0	4.3690	0	36.9310	8	29.288	0	643.997	0	17.9	4	5.8	4	-1E+10	1	-1E+10	1	-1E+10	1	-1E+10	1	-1E+10	1	-1E+10	1
4901784	200	C	12/25/2020	10:48	-134.205	43.560	0	655.00	0	4.3470	0	36.9350	8	29.294	0	648.744	0	17.4	4	5.7	4	-1E+10	1	-1E+10	1	-1E+10	1	-1E+10	1	-1E+10	1	-1E+10	1
4901784	200	C	12/25/2020	10:48	-134.205	43.560	0	659.80	0	4.3420	0	36.9400	8	29.298	0	653.490	0	17.0	4	5.5	4	-1E+10	1	-1E+10	1	-1E+10	1	-1E+10	1	-1E+10	1	-1E+10	1
4901784	200	C	12/25/2020	10:48	-134.205	43.560	0	664.60	0	4.3200	0	36.9470	8	29.306	0	658.237	0	16.4	4	5.3	4	-1E+10	1	-1E+10	1	-1E+10	1	-1E+10	1	-1E+10	1	-1E+10	1
4901784	200	C	12/25/2020	10:48	-134.205	43.560	0	669.40	0	4.3240	0	36.9510	8	29.309	0	662.983	0	16.0	4	5.2	4	-1E+10	1	-1E+10	1	-1E+10	1	-1E+10	1	-1E+10	1	-1E+10	1
4901784	200	C	12/25/2020	10:48	-134.205	43.560	0	674.30	0	4.3160	0	36.9590	8	29.316	0	667.828	0	15.6	4	5.1	4	-1E+10	1	-1E+10	1	-1E+10	1	-1E+10	1	-1E+10	1	-1E+10	1
4901784	200	C	12/25/2020	10:48	-134.205	43.560	0	680.00	0	4.2920	0	36.9620	8	29.322	0	673.464	0	15.6	4	5.1	4	-1E+10	1	-1E+10	1	-1E+10	1	-1E+10	1	-1E+10	1	-1E+10	1
4901784	200	C	12/25/2020	10:48	-134.205	43.560	0	685.70	0	4.2380	0	36.9640	8	29.329	0	679.100	0	15.6	4	5.0	4	-1E+10	1	-1E+10	1	-1E+10	1	-1E+10	1	-1E+10	1	-1E+10	1
4901784	200	C	12/25/2020	10:48	-134.205	43.560	0	690.70	0	4.2500	0	36.9700	8	29.333	0	684.044	0	15.1	4	4.9	4	-1E+10	1	-1E+10	1	-1E+10	1	-1E+10	1	-1E+10	1	-1E+10	1
4901784	200	C	12/25/2020	10:48	-134.205	43.560	0	695.70	0	4.2390	0	36.9740	8	29.337	0	688.988	0	14.8	4	4.8	4	-1E+10	1	-1E+10	1	-1E+10	1	-1E+10	1	-1E+10	1	-1E+10	1
4901784	200	C	12/25/2020	10:48	-134.205	43.560	0	700.80	0	4.2240	0	36.9760	8	29.341	0	694.030	0	14.9	4	4.8	4	-1E+10	1	-1E+10	1	-1E+10	1	-1E+10	1	-1E+10	1	-1E+10	1
4901784	200	C	12/25/2020	10:48	-134.205	43.560	0	705.00	0	4.1920	0	36.9770	8	29.345	0	698.182	0	14.9	4	4.8	4	-1E+10	1	-1E+10	1	-1E+10	1	-1E+10	1	-1E+10	1	-1E+10	1
4901784	200	C	12/25/2020	10:48	-134.205	43.560	0	709.20	0	4.1830	0	36.9790	8	29.348	0	702.335	0	14.8	4	4.8	4	-1E+10	1	-1E+10	1	-1E+10	1	-1E+10	1	-1E+10	1	-1E+10	1
4901784	200	C	12/25/2020	10:48	-134.205	43.560	0	714.20	0	4.1640	0	36.9810	8	29.351	0	707.278	0	14.6	4	4.7	4	-1E+10	1	-1E+10	1	-1E+10	1	-1E+10	1	-1E+10	1	-1E+10	1
4901784	200	C	12/25/2020	10:48	-134.205	43.560	0	719.30	0	4.1490	0	37.2340	8	29.554	0	712.320	0	14.4	4	4.7	4	-1E+10	1	-1E+10	1	-1E+10	1	-1E+10	1	-1E+10	1	-1E+10	1
4901784	200	C	12/25/2020	10:48	-134.205	43.560	0	724.40	0	4.1260	0	37.5880	8	29.839	0	717.361	0	14.1	4	4.6	4	-1E+10	1	-1E+10	1	-1E+10	1	-1E+10	1	-1E+10	1	-1E+10	1
4901784	200	C	12/25/2020	10:48	-134.205	43.560	0	729.50	0	4.1050	0	37.6180	8	29.865	0	722.403	0	13.8	4	4.5	4	-1E+10	1	-1E+10	1	-1E+10	1	-1E+10	1	-1E+10	1	-1E+10	1
4901784	200	C	12/25/2020	10:48	-134.205	43.560	0	734.70	0	4.0900	0	37.6320	8	29.878	0	727.543	0	13.5	4	4.4	4	-1E+10	1	-1E+10	1	-1E+10	1	-1E+10	1	-1E+10	1	-1E+10	1
4901784	200	C	12/25/2020	10:48	-134.205	43.560	0	739.80	0	4.0880	0	37.6420	8	29.886	0	732.585	0	13.0	4	4.2	4	-1E+10	1	-1E+10	1	-1E+10	1	-1E+10	1	-1E+10	1	-1E+10	1
4901784	200	C	12/25/2020	10:48	-134.205	43.560	0	745.00	0	4.1060	0	37.6550	8	29.895	0	737.725	0	12.6	4	4.1	4	-1E+10	1	-1E+10	1	-1E+10	1	-1E+10	1	-1E+10	1	-1E+10	1
4901784	200	C	12/25/2020	10:48	-134.205	43.560	0	750.10	0	4.0850	0	37.6650	8	29.905	0	742.766	0	12.1	4	3.9	4	-1E+10	1	-1E+10	1	-1E+10	1	-1E+10	1	-1E+10	1	-1E+10	1
4901784	200	C	12/25/2020	10:48	-134.205	43.560	0	755.30	0	4.1400	0	37.6720	8	29.905	0	747.906	0	11.8	4	3.8	4	-1E+10	1	-1E+10	1	-1E+10	1	-1E+10	1	-1E+10	1	-1E+10	1
4901784	200	C	12/25/2020	10:48	-134.205	43.560	0	760.50	0	4.1400	0	37.6780	8	29.909	0	753.045	0	11.6	4	3.8	4	-1E+10	1	-1E+10	1	-1E+10	1	-1E+10	1	-1E+10	1	-1E+10	1
4901784	200	C	12/25/2020	10:48	-134.205	43.560	0	764.90	0	4.1320	0	37.6810	8	29.913	0	757.394	0	11.5	4	3.7	4	-1E+10	1	-1E+10	1	-1E+10	1	-1E+10	1	-1E+10	1	-1E+10	1
4901784	200	C	12/25/2020	10:48	-134.205	43.560	0	769.40	0	4.1170	0	37.6860	8	29.918	0	761.842	0	11.4	4	3.7	4	-1E+10	1	-1E+10	1	-1E+10	1	-1E+10	1	-1E+10	1	-1E+10	1
4901784	200	C	12/25/2020	10:48	-134.205	43.560	0	774.60	0	4.0590	0	37.6880	8	29.927	0	766.981	0	11.4	4	3.7	4	-1E+10	1	-1E+10	1	-1E+10	1	-1E+10	1	-1E+10	1	-1E+10	1
4901784	200	C	12/25/2020	10:48	-134.205	43.560	0	779.90	0	4.0740	0	37.6960	8	29.931	0	772.219	0	11.1	4	3.6	4	-1E+10	1	-1E+10	1	-1E+10	1	-1E+10	1	-1E+10	1	-1E+10	1
4901784	200	C	12/25/2020	10:48	-134.205	43.560	0	785.30	0	4.0610	0	37.7000	8	29.936	0	777.556	0	11.0	4	3.6	4	-1E+10	1	-1E+10	1	-1E+10	1	-1E+10	1	-1E+10	1	-1E+10	1
4901784	200	C	12/25/2020	10:48	-134.205	43.560	0	789.80	0	4.0370	0	37.7040	8	29.942	0	782.003	0	11.0	4	3.6	4	-1E+10	1	-1E+10	1	-1E+10	1	-1E+10	1	-1E+10	1	-1E+10	1
4901784	200	C	12/25/2020	10:48	-134.205	43.560	0	794.40	0	4.0190	0	37.7060	8	29.946	0	786.549	0	11.0	4	3.6	4	-1E+10	1	-1E+10	1	-1E+10	1	-1E+10	1	-1E+10	1	-1E+10	1
4901784	200	C	12/25/2020	10:48	-134.205	43.560	0	799.90	0	3.9930	0	37.7100	8	29.952	0	791.985	0	10.9	4	3.5	4	-1E+10	1	-1E+10	1	-1E+10	1	-1E+10	1	-1E+10	1	-1E+10	1
4901784	200	C	12/25/2020	10:48	-134.205	43.560	0	805.30	0	3.9820	0	37.7160	8	29.958	0	797.321	0	10.7	4	3.5	4	-1E+10	1	-1E+10	1	-1E+10	1	-1E+10	1	-1E+10	1	-1E+10	1
4901784	200	C	12/25/2020	10:48	-134.205	43.560	0	809.80	0	3.9820	0	37.7190	8	29.960	0	801.768	0	10.7	4	3.5	4	-1E+10	1	-1E+10	1	-1E+10	1	-1E+10	1	-1E+10	1	-1E+10	1
4901784	200	C	12/25/2020	10:48	-134.205	43.560	0	814.40	0	3.9630	0	37.7200	8	29.963	0	806.313	0	10.7	4	3.5	4	-1E+10	1	-1E+10	1	-1E+10	1	-1E+10	1	-1E+10	1	-1E+10	1
4901784	200	C	12/25/2020	10:48	-134.205	43.560	0	819.90	0	3.9380	0	37.7220	8	29.968	0	811.748	0	10.7	4	3.5	4	-1E+10	1	-1E+10	1	-1E+10	1	-1E+10	1	-1E+10	1	-1E+10	1
4901784	200	C	12/25/2020	10:48	-134.205	43.560	0	825.50	0	3.9230	0	37.7240	8	29.971	0	817.281	0	10.6	4	3.4	4	-1E+10	1	-1E+10	1	-1E+10	1	-1E+10	1	-1E+10	1	-1E+10	1
4901784	200	C	12/25/2020	10:48	-134.205	43.560	0	830.10	0	3.9030	0	37.7250	8	29.974	0	821.826	0	10.6	4	3.4	4	-1E+10	1	-1E+10	1	-1E+10	1	-1E+10	1	-1E+10	1	-1E+10	1
4901784	200	C	12/25/2020	10:48	-134.205	43.560	0	834.70	0	3.8810	0	37.7290	8	29.980	0	826.371	0	10.5	4	3.4	4	-1E+10	1	-1E+10	1	-1E+10	1	-1E+10	1	-1E+10	1	-1E+10	1
4901784	200	C	12/25/2020	10:48	-134.205	43.560	0	840.40	0	3.8840	0	37.7330	8	29.982	0	832.003	0	10.4	4	3.4	4	-1E+10	1	-1E+10	1	-1E+10	1	-1E+10	1	-1E+10	1	-1E+10	1
4901784	200	C	12/25/2020	10:48	-134.205	43.560	0	845.00	0	3.8840	0	37.7380	8	29.986	0	836.548	0	10.3	4	3.3	4	-1E+10	1	-1E+10	1	-1E+10	1	-1E+10	1	-1E+10	1	-1E+10	1
4901784	200	C	12/25/2020	10:48	-134.205	43.560	0	849.60	0	3.8730	0	37.7400	8	29.989	0	841.093	0	10.3	4	3.3	4	-1E+10	1	-1E+10	1	-1E+10	1	-1E+10	1	-1E+10	1	-1E+10	1
4901784	200	C	12/25/2020	10:48	-134.205	43.560	0	855.10	0	3.8290	0	37.7430	8	29.997	0	846.527	0	10.3	4	3.3	4	-1E+10	1	-1E+10	1	-1E+10	1	-1E+10	1	-1E+10	1	-1E+10	1
4901784	200	C	12/25/2020	10:48	-134.205	43.560	0	860.40	0	3.8140	0	37.7480	8	30.002	0	851.763	0	10.2	4	3.3	4	-1E+10	1	-1E+10	1	-1E+10	1	-1E+10	1	-1E+10	1	-1E+10	1
4901784	200	C	12/25/2020	10:48	-134.205	43.560	0	865.20	0	3.8030	0	37.7520	8	30.007	0	856.505	0	10.1	4	3.3	4	-1E+10	1	-1E+10	1	-1E+10	1	-1E+10	1	-1E+10	1	-1E+10	1
4901784	200	C	12/25/2020	10:48	-134.205	43.560	0	870.00	0	3.8130	0	37.7600	8	30.012	0	861.246	0	10.1	4	3.2	4	-1E+10	1	-1E+10	1	-1E+10	1	-1E+10	1	-1E+10	1	-1E+10	1
4901784	200	C	12/25/2020	10:48	-134.205	43.560	0	874.80	0	3.7970	0	37.7630	8	30.016	0	865.988	0	10.0	4	3.2	4	-1E+10	1	-1E+10	1	-1E+10	1	-1E+10	1	-1E+10	1	-1E+10	1
4901784	200	C	12/25/2020	10:48	-134.205	43.560	0	879.70	0	3.7970	0	37.7680	8	30.020	0	870.829	0	10.0	4	3.2	4	-1E+10	1	-1E+10	1	-1E+10	1	-1E+10	1	-1E+10	1	-1E+10	1
4901784	200	C	12/25/2020	10:48	-134.205	43.560	0	884.60	0	3.7850	0	37.7720	8	30.025	0	875.669	0	10.0	4	3.2	4	-1E+10	1	-1E+10	1	-1E+10	1	-1E+10	1	-1E+10	1	-1E+10	1
4901784	200	C	12/25/2020	10:48	-134.205	43.560	0	889.50	0	3.7650	0	37.7750	8	30.029	0	880.509	0	9.9	4	3.2	4	-1E+10	1	-1E+10	1	-1E+10	1	-1E+10	1	-1E+10	1	-1E+10	1
4901784	200	C	12/25/2020	10:48	-134.205	43.560	0	894.50	0	3.7590	0	37.7810	8	30.035	0	885.448	0	9.9	4	3.2	4	-1E+10	1	-1E+10	1	-1E+10	1	-1E+10	1	-1E+10	1	-1E+10	1
4901784	200	C	12/25/2020	10:48	-134.205	43.560	0	899.60	0	3.7520	0	37.7830	8	30.037	0	890.486	0	9.9	4	3.2	4	-1E+10	1	-1E+10	1	-1E+10	1	-1E+10	1	-1E+10	1	-1E+10	1
4901784	200	C	12/25/2020	10:48	-134.205	43.560	0	904.60	0	3.7450	0	37.7860	8	30.040	0	895.424	0	9.9	4	3.2	4	-1E+10	1	-1E+10	1	-1E+10	1	-1E+10	1	-1E+10	1	-1E+10	1
4901784	200	C	12/25/2020	10:48	-134.205	43.560	0	909.60	0	3.7420	0	37.7890	8	30.043	0	900.363	0	9.9	4	3.2	4	-1E+10	1	-1E+10	1	-1E+10	1	-1E+10	1	-1E+10	1	-1E+10	1
4901784	200	C	12/25/2020	10:48	-134.205	43.560	0	914.70	0	3.7410	0	37.7910	8	30.045	0	905.400	0	9.9	4	3.2	4	-1E+10	1	-1E+10	1	-1E+10	1	-1E+10	1	-1E+10	1	-1E+10	1
4901784	200	C	12/25/2020	10:48	-134.205	43.560	0	919.80	0	3.7350	0	37.7940	8	30.048	0	910.437	0	9.9	4	3.2	4	-1E+10	1	-1E+10	1	-1E+10	1	-1E+10	1	-1E+10	1	-1E+10	1
4901784	200	C	12/25/2020	10:48	-134.205	43.560	0	924.90	0	3.7150	0	37.7950	8	30.051	0	915.474	0	9.9	4	3.2	4	-1E+10	1	-1E+10	1	-1E+10	1	-1E+10	1	-1E+10	1	-1E+10	1
4901784	200	C	12/25/2020	10:48	-134.205	43.560	0	930.10	0	3.6980	0	37.8000	8	30.057	0	920.610	0	9.9	4	3.2	4	-1E+10	1	-1E+10	1	-1E+10	1	-1E+10	1	-1E+10	1	-1E+10	1
4901784	200	C	12/25/2020	10:48	-134.205	43.560	0	935.40	0	3.6830	0	37.8040	8	30.062	0	925.844	0	9.9	4	3.2	4	-1E+10	1	-1E+10	1	-1E+10	1	-1E+10	1	-1E+10	1	-1E+10	1
4901784	200	C	12/25/2020	10:48	-134.205	43.560	0	940.60	0	3.6760	0	37.8060	8	30.064	0	930.979	0	9.9	4	3.2	4	-1E+10	1	-1E+10	1	-1E+10	1	-1E+10	1	-1E+10	1	-1E+10	1
4901784	200	C	12/25/2020	10:48	-134.205	43.560	0	945.00	0	3.6660	0	37.8080	8	30.067	0	935.324	0	9.9	4	3.2	4	-1E+10	1	-1E+10	1	-1E+10	1	-1E+10	1	-1E+10	1	-1E+10	1
4901784	200	C	12/25/2020	10:48	-134.205	43.560	0	949.40	0	3.6560	0	37.8110	8	30.070	0	939.669	0	10.0	4	3.2	4	-1E+10	1	-1E+10	1	-1E+10	1	-1E+10	1	-1E+10	1	-1E+10	1
4901784	200	C	12/25/2020	10:48	-134.205	43.560	0	954.60	0	3.6390	0	37.8140	8	30.075	0	944.804	0	10.0	4	3.2	4	-1E+10	1	-1E+10	1	-1E+10	1	-1E+10	1	-1E+10	1	-1E+10	1
4901784	200	C	12/25/2020	10:48	-134.205	43.560	0	960.00	0	3.6300	0	37.8180	8	30.079	0	950.137	0	10.0	4	3.2	4	-1E+10	1	-1E+10	1	-1E+10	1	-1E+10	1	-1E+10	1	-1E+10	1
4901784	200	C	12/25/2020	10:48	-134.205	43.560	0	965.30	0	3.6210	0	37.8200	8	30.081	0	955.370	0	10.1	4	3.2	4	-1E+10	1	-1E+10	1	-1E+10	1	-1E+10	1	-1E+10	1	-1E+10	1
4901784	200	C	12/25/2020	10:48	-134.205	43.560	0	969.80	0	3.6190	0	37.8240	8	30.085	0	959.814	0	10.1	4	3.3	4	-1E+10	1	-1E+10	1	-1E+10	1	-1E+10	1	-1E+10	1	-1E+10	1
4901784	200	C	12/25/2020	10:48	-134.205	43.560	0	974.30	0	3.6150	0	37.8260	8	30.087	0	964.257	0	10.2	4	3.3	4	-1E+10	1	-1E+10	1	-1E+10	1	-1E+10	1	-1E+10	1	-1E+10	1
4901784	200	C	12/25/2020	10:48	-134.205	43.560	0	979.80	0	3.5930	0	37.8280	8	30.091	0	969.687	0	10.2	4	3.3	4	-1E+10	1	-1E+10	1	-1E+10	1	-1E+10	1	-1E+10	1	-1E+10	1
4901784	200	C	12/25/2020	10:48	-134.205	43.560	0	985.30	0	3.5780	0	37.8300	8	30.094	0	975.118	0	10.2	4	3.3	4	-1E+10	1	-1E+10	1	-1E+10	1	-1E+10	1	-1E+10	1	-1E+10	1
4901784	200	C	12/25/2020	10:48	-134.205	43.560	0	989.90	0	3.5730	0	37.8330	8	30.097	0	979.660	0	10.3	4	3.3	4	-1E+10	1	-1E+10	1	-1E+10	1	-1E+10	1	-1E+10	1	-1E+10	1
4901784	200	C	12/25/2020	10:48	-134.205	43.560	0	994.50	0	3.5650	0	37.8360	8	30.100	0	984.201	0	10.3	4	3.3	4	-1E+10	1	-1E+10	1	-1E+10	1	-1E+10	1	-1E+10	1	-1E+10	1
4901784	200	C	12/25/2020	10:48	-134.205	43.560	0	1000.10	0	3.5560	0	37.8390	8	30.104	0	989.730	0	10.4	4	3.3	4	-1E+10	1	-1E+10	1	-1E+10	1	-1E+10	1	-1E+10	1	-1E+10	1
4901784	200	C	12/25/2020	10:48	-134.205	43.560	0	1004.80	0	3.5480	0	37.8440	8	30.109	0	994.370	0	10.5	4	3.4	4	-1E+10	1	-1E+10	1	-1E+10	1	-1E+10	1	-1E+10	1	-1E+10	1
4901784	200	C	12/25/2020	10:48	-134.205	43.560	0	1009.80	0	3.5430	0	37.8470	8	30.112	0	999.306	0	10.5	4	3.4	4	-1E+10	1	-1E+10	1	-1E+10	1	-1E+10	1	-1E+10	1	-1E+10	1
4901784	200	C	12/25/2020	10:48	-134.205	43.560	0	1015.00	0	3.5330	0	37.8480	8	30.114	0	1004.440	0	10.6	4	3.4	4	-1E+10	1	-1E+10	1	-1E+10	1	-1E+10	1	-1E+10	1	-1E+10	1
4901784	200	C	12/25/2020	10:48	-134.205	43.560	0	1019.80	0	3.5230	0	37.8500	8	30.116	0	1009.178	0	10.6	4	3.4	4	-1E+10	1	-1E+10	1	-1E+10	1	-1E+10	1	-1E+10	1	-1E+10	1
4901784	200	C	12/25/2020	10:48	-134.205	43.560	0	1024.70	0	3.5060	0	37.8530	8	30.120	0	1014.015	0	10.6	4	3.4	4	-1E+10	1	-1E+10	1	-1E+10	1	-1E+10	1	-1E+10	1	-1E+10	1
4901784	200	C	12/25/2020	10:48	-134.205	43.560	0	1029.50	0	3.4910	0	37.8540	8	30.123	0	1018.754	0	10.7	4	3.4	4	-1E+10	1	-1E+10	1	-1E+10	1	-1E+10	1	-1E+10	1	-1E+10	1
4901784	200	C	12/25/2020	10:48	-134.205	43.560	0	1034.40	0	3.4820	0	37.8570	8	30.126	0	1023.591	0	10.7	4	3.4	4	-1E+10	1	-1E+10	1	-1E+10	1	-1E+10	1	-1E+10	1	-1E+10	1
4901784	200	C	12/25/2020	10:48	-134.205	43.560	0	1039.30	0	3.4670	0	37.8590	8	30.129	0	1028.428	0	10.8	4	3.5	4	-1E+10	1	-1E+10	1	-1E+10	1	-1E+10	1	-1E+10	1	-1E+10	1
4901784	200	C	12/25/2020	10:48	-134.205	43.560	0	1044.20	0	3.4550	0	37.8610	8	30.132	0	1033.264	0	10.9	4	3.5	4	-1E+10	1	-1E+10	1	-1E+10	1	-1E+10	1	-1E+10	1	-1E+10	1
4901784	200	C	12/25/2020	10:48	-134.205	43.560	0	1049.20	0	3.4450	0	37.8640	8	30.136	0	1038.199	0	11.0	4	3.5	4	-1E+10	1	-1E+10	1	-1E+10	1	-1E+10	1	-1E+10	1	-1E+10	1
4901784	200	C	12/25/2020	10:48	-134.205	43.560	0	1054.20	0	3.4180	0	37.8670	8	30.141	0	1043.135	0	11.0	4	3.5	4	-1E+10	1	-1E+10	1	-1E+10	1	-1E+10	1	-1E+10	1	-1E+10	1
4901784	200	C	12/25/2020	10:48	-134.205	43.560	0	1059.20	0	3.4090	0	37.8720	8	30.146	0	1048.070	0	11.2	4	3.6	4	-1E+10	1	-1E+10	1	-1E+10	1	-1E+10	1	-1E+10	1	-1E+10	1
4901784	200	C	12/25/2020	10:48	-134.205	43.560	0	1064.20	0	3.3980	0	37.8760	8	30.150	0	1053.004	0	11.3	4	3.6	4	-1E+10	1	-1E+10	1	-1E+10	1	-1E+10	1	-1E+10	1	-1E+10	1
4901784	200	C	12/25/2020	10:48	-134.205	43.560	0	1069.30	0	3.3860	0	37.8780	8	30.153	0	1058.038	0	11.4	4	3.6	4	-1E+10	1	-1E+10	1	-1E+10	1	-1E+10	1	-1E+10	1	-1E+10	1
4901784	200	C	12/25/2020	10:48	-134.205	43.560	0	1074.40	0	3.3730	0	37.8800	8	30.156	0	1063.071	0	11.5	4	3.7	4	-1E+10	1	-1E+10	1	-1E+10	1	-1E+10	1	-1E+10	1	-1E+10	1
4901784	200	C	12/25/2020	10:48	-134.205	43.560	0	1079.60	0	3.3630	0	37.8830	8	30.160	0	1068.203	0	11.7	4	3.7	4	-1E+10	1	-1E+10	1	-1E+10	1	-1E+10	1	-1E+10	1	-1E+10	1
4901784	200	C	12/25/2020	10:48	-134.205	43.560	0	1084.70	0	3.3630	0	37.8880	8	30.164	0	1073.236	0	11.9	4	3.8	4	-1E+10	1	-1E+10	1	-1E+10	1	-1E+10	1	-1E+10	1	-1E+10	1
4901784	200	C	12/25/2020	10:48	-134.205	43.560	0	1089.90	0	3.3580	0	37.8900	8	30.166	0	1078.368	0	11.9	4	3.8	4	-1E+10	1	-1E+10	1	-1E+10	1	-1E+10	1	-1E+10	1	-1E+10	1
4901784	200	C	12/25/2020	10:48	-134.205	43.560	0	1095.00	0	3.3450	0	37.8910	8	30.168	0	1083.401	0	12.0	4	3.8	4	-1E+10	1	-1E+10	1	-1E+10	1	-1E+10	1	-1E+10	1	-1E+10	1
4901784	200	C	12/25/2020	10:48	-134.205	43.560	0	1100.20	0	3.3240	0	37.8940	8	30.173	0	1088.532	0	12.0	4	3.8	4	-1E+10	1	-1E+10	1	-1E+10	1	-1E+10	1	-1E+10	1	-1E+10	1
4901784	200	C	12/25/2020	10:48	-134.205	43.560	0	1105.40	0	3.3000	0	37.8970	8	30.178	0	1093.664	0	12.1	4	3.9	4	-1E+10	1	-1E+10	1	-1E+10	1	-1E+10	1	-1E+10	1	-1E+10	1
4901784	200	C	12/25/2020	10:48	-134.205	43.560	0	1110.30	0	3.2860	0	37.9000	8	30.182	0	1098.499	0	12.2	4	3.9	4	-1E+10	1	-1E+10	1	-1E+10	1	-1E+10	1	-1E+10	1	-1E+10	1
4901784	200	C	12/25/2020	10:48	-134.205	43.560	0	1115.00	0	3.2840	0	37.9020	8	30.183	0	1103.137	0	12.3	4	3.9	4	-1E+10	1	-1E+10	1	-1E+10	1	-1E+10	1	-1E+10	1	-1E+10	1
4901784	200	C	12/25/2020	10:48	-134.205	43.560	0	1120.60	0	3.2770	0	37.9040	8	30.186	0	1108.662	0	12.4	4	4.0	4	-1E+10	1	-1E+10	1	-1E+10	1	-1E+10	1	-1E+10	1	-1E+10	1
4901784	200	C	12/25/2020	10:48	-134.205	43.560	0	1125.50	0	3.2570	0	37.9060	8	30.189	0	1113.497	0	12.5	4	4.0	4	-1E+10	1	-1E+10	1	-1E+10	1	-1E+10	1	-1E+10	1	-1E+10	1
4901784	200	C	12/25/2020	10:48	-134.205	43.560	0	1130.50	0	3.2470	0	37.9080	8	30.192	0	1118.430	0	12.6	4	4.0	4	-1E+10	1	-1E+10	1	-1E+10	1	-1E+10	1	-1E+10	1	-1E+10	1
4901784	200	C	12/25/2020	10:48	-134.205	43.560	0	1135.40	0	3.2390	0	37.9110	8	30.195	0	1123.265	0	12.7	4	4.0	4	-1E+10	1	-1E+10	1	-1E+10	1	-1E+10	1	-1E+10	1	-1E+10	1
4901784	200	C	12/25/2020	10:48	-134.205	43.560	0	1140.30	0	3.2310	0	37.9130	8	30.198	0	1128.100	0	12.8	4	4.1	4	-1E+10	1	-1E+10	1	-1E+10	1	-1E+10	1	-1E+10	1	-1E+10	1
4901784	200	C	12/25/2020	10:48	-134.205	43.560	0	1145.30	0	3.2260	0	37.9150	8	30.200	0	1133.033	0	12.9	4	4.1	4	-1E+10	1	-1E+10	1	-1E+10	1	-1E+10	1	-1E+10	1	-1E+10	1
4901784	200	C	12/25/2020	10:48	-134.205	43.560	0	1150.30	0	3.2150	0	37.9170	8	30.203	0	1137.966	0	13.0	4	4.1	4	-1E+10	1	-1E+10	1	-1E+10	1	-1E+10	1	-1E+10	1	-1E+10	1
4901784	200	C	12/25/2020	10:48	-134.205	43.560	0	1155.30	0	3.2060	0	37.9190	8	30.205	0	1142.898	0	13.1	4	4.2	4	-1E+10	1	-1E+10	1	-1E+10	1	-1E+10	1	-1E+10	1	-1E+10	1
4901784	200	C	12/25/2020	10:48	-134.205	43.560	0	1160.30	0	3.1940	0	37.9220	8	30.209	0	1147.831	0	13.3	4	4.2	4	-1E+10	1	-1E+10	1	-1E+10	1	-1E+10	1	-1E+10	1	-1E+10	1
4901784	200	C	12/25/2020	10:48	-134.205	43.560	0	1165.30	0	3.1830	0	37.9240	8	30.212	0	1152.764	0	13.4	4	4.3	4	-1E+10	1	-1E+10	1	-1E+10	1	-1E+10	1	-1E+10	1	-1E+10	1
4901784	200	C	12/25/2020	10:48	-134.205	43.560	0	1170.40	0	3.1660	0	37.9270	8	30.216	0	1157.795	0	13.6	4	4.3	4	-1E+10	1	-1E+10	1	-1E+10	1	-1E+10	1	-1E+10	1	-1E+10	1
4901784	200	C	12/25/2020	10:48	-134.205	43.560	0	1175.60	0	3.1620	0	37.9290	8	30.218	0	1162.924	0	13.8	4	4.4	4	-1E+10	1	-1E+10	1	-1E+10	1	-1E+10	1	-1E+10	1	-1E+10	1
4901784	200	C	12/25/2020	10:48	-134.205	43.560	0	1180.80	0	3.1480	0	37.9320	8	30.222	0	1168.054	0	13.9	4	4.4	4	-1E+10	1	-1E+10	1	-1E+10	1	-1E+10	1	-1E+10	1	-1E+10	1
4901784	200	C	12/25/2020	10:48	-134.205	43.560	0	1185.10	0	3.1410	0	37.9330	8	30.223	0	1172.295	0	13.9	4	4.4	4	-1E+10	1	-1E+10	1	-1E+10	1	-1E+10	1	-1E+10	1	-1E+10	1
4901784	200	C	12/25/2020	10:48	-134.205	43.560	0	1189.60	0	3.1350	0	37.9350	8	30.226	0	1176.734	0	14.0	4	4.5	4	-1E+10	1	-1E+10	1	-1E+10	1	-1E+10	1	-1E+10	1	-1E+10	1
4901784	200	C	12/25/2020	10:48	-134.205	43.560	0	1194.80	0	3.1220	0	37.9360	8	30.228	0	1181.863	0	14.1	4	4.5	4	-1E+10	1	-1E+10	1	-1E+10	1	-1E+10	1	-1E+10	1	-1E+10	1
4901784	200	C	12/25/2020	10:48	-134.205	43.560	0	1200.20	0	3.1080	0	37.9380	8	30.231	0	1187.189	0	14.2	4	4.5	4	-1E+10	1	-1E+10	1	-1E+10	1	-1E+10	1	-1E+10	1	-1E+10	1
4901784	200	C	12/25/2020	10:48	-134.205	43.560	0	1205.60	0	3.1000	0	37.9410	8	30.234	0	1192.516	0	14.4	4	4.6	4	-1E+10	1	-1E+10	1	-1E+10	1	-1E+10	1	-1E+10	1	-1E+10	1
4901784	200	C	12/25/2020	10:48	-134.205	43.560	0	1210.20	0	3.0940	0	37.9420	8	30.235	0	1197.053	0	14.5	4	4.6	4	-1E+10	1	-1E+10	1	-1E+10	1	-1E+10	1	-1E+10	1	-1E+10	1
4901784	200	C	12/25/2020	10:48	-134.205	43.560	0	1214.80	0	3.0810	0	37.9440	8	30.238	0	1201.590	0	14.6	4	4.6	4	-1E+10	1	-1E+10	1	-1E+10	1	-1E+10	1	-1E+10	1	-1E+10	1
4901784	200	C	12/25/2020	10:48	-134.205	43.560	0	1220.30	0	3.0670	0	37.9460	8	30.241	0	1207.014	0	14.7	4	4.7	4	-1E+10	1	-1E+10	1	-1E+10	1	-1E+10	1	-1E+10	1	-1E+10	1
4901784	200	C	12/25/2020	10:48	-134.205	43.560	0	1225.00	0	3.0580	0	37.9480	8	30.244	0	1211.649	0	14.9	4	4.7	4	-1E+10	1	-1E+10	1	-1E+10	1	-1E+10	1	-1E+10	1	-1E+10	1
4901784	200	C	12/25/2020	10:48	-134.205	43.560	0	1229.70	0	3.0460	0	37.9500	8	30.247	0	1216.284	0	15.0	4	4.8	4	-1E+10	1	-1E+10	1	-1E+10	1	-1E+10	1	-1E+10	1	-1E+10	1
4901784	200	C	12/25/2020	10:48	-134.205	43.560	0	1235.20	0	3.0450	0	37.9530	8	30.249	0	1221.708	0	15.3	4	4.9	4	-1E+10	1	-1E+10	1	-1E+10	1	-1E+10	1	-1E+10	1	-1E+10	1
4901784	200	C	12/25/2020	10:48	-134.205	43.560	0	1239.70	0	3.0480	0	37.9540	8	30.250	0	1226.146	0	15.6	4	4.9	4	-1E+10	1	-1E+10	1	-1E+10	1	-1E+10	1	-1E+10	1	-1E+10	1
4901784	200	C	12/25/2020	10:48	-134.205	43.560	0	1244.20	0	3.0380	0	37.9560	8	30.253	0	1230.584	0	15.7	4	5.0	4	-1E+10	1	-1E+10	1	-1E+10	1	-1E+10	1	-1E+10	1	-1E+10	1
4901784	200	C	12/25/2020	10:48	-134.205	43.560	0	1249.30	0	3.0230	0	37.9580	8	30.256	0	1235.613	0	15.7	4	5.0	4	-1E+10	1	-1E+10	1	-1E+10	1	-1E+10	1	-1E+10	1	-1E+10	1
4901784	200	C	12/25/2020	10:48	-134.205	43.560	0	1254.50	0	3.0080	0	37.9600	8	30.259	0	1240.741	0	15.6	4	5.0	4	-1E+10	1	-1E+10	1	-1E+10	1	-1E+10	1	-1E+10	1	-1E+10	1
4901784	200	C	12/25/2020	10:48	-134.205	43.560	0	1259.60	0	2.9970	0	37.9600	8	30.260	0	1245.770	0	15.6	4	5.0	4	-1E+10	1	-1E+10	1	-1E+10	1	-1E+10	1	-1E+10	1	-1E+10	1
4901784	200	C	12/25/2020	10:48	-134.205	43.560	0	1264.90	0	2.9870	0	37.9620	8	30.263	0	1250.996	0	15.8	4	5.0	4	-1E+10	1	-1E+10	1	-1E+10	1	-1E+10	1	-1E+10	1	-1E+10	1
4901784	200	C	12/25/2020	10:48	-134.205	43.560	0	1270.10	0	2.9800	0	37.9630	8	30.264	0	1256.123	0	16.0	4	5.1	4	-1E+10	1	-1E+10	1	-1E+10	1	-1E+10	1	-1E+10	1	-1E+10	1
4901784	200	C	12/25/2020	10:48	-134.205	43.560	0	1275.40	0	2.9730	0	37.9660	8	30.267	0	1261.349	0	16.4	4	5.2	4	-1E+10	1	-1E+10	1	-1E+10	1	-1E+10	1	-1E+10	1	-1E+10	1
4901784	200	C	12/25/2020	10:48	-134.205	43.560	0	1280.60	0	2.9640	0	37.9680	8	30.270	0	1266.476	0	16.5	4	5.2	4	-1E+10	1	-1E+10	1	-1E+10	1	-1E+10	1	-1E+10	1	-1E+10	1
4901784	200	C	12/25/2020	10:48	-134.205	43.560	0	1285.00	0	2.9550	0	37.9700	8	30.272	0	1270.814	0	16.6	4	5.3	4	-1E+10	1	-1E+10	1	-1E+10	1	-1E+10	1	-1E+10	1	-1E+10	1
4901784	200	C	12/25/2020	10:48	-134.205	43.560	0	1289.40	0	2.9410	0	37.9720	8	30.275	0	1275.152	0	16.7	4	5.3	4	-1E+10	1	-1E+10	1	-1E+10	1	-1E+10	1	-1E+10	1	-1E+10	1
4901784	200	C	12/25/2020	10:48	-134.205	43.560	0	1294.70	0	2.9360	0	37.9740	8	30.277	0	1280.378	0	16.9	4	5.3	4	-1E+10	1	-1E+10	1	-1E+10	1	-1E+10	1	-1E+10	1	-1E+10	1
4901784	200	C	12/25/2020	10:48	-134.205	43.560	0	1300.00	0	2.9250	0	37.9750	8	30.279	0	1285.603	0	16.9	4	5.4	4	-1E+10	1	-1E+10	1	-1E+10	1	-1E+10	1	-1E+10	1	-1E+10	1
4901784	200	C	12/25/2020	10:48	-134.205	43.560	0	1305.30	0	2.9130	0	37.9760	8	30.281	0	1290.828	0	17.1	4	5.4	4	-1E+10	1	-1E+10	1	-1E+10	1	-1E+10	1	-1E+10	1	-1E+10	1
4901784	200	C	12/25/2020	10:48	-134.205	43.560	0	1310.70	0	2.9040	0	37.9780	8	30.284	0	1296.152	0	17.3	4	5.5	4	-1E+10	1	-1E+10	1	-1E+10	1	-1E+10	1	-1E+10	1	-1E+10	1
4901784	200	C	12/25/2020	10:48	-134.205	43.560	0	1315.10	0	2.8950	0	37.9800	8	30.286	0	1300.489	0	17.4	4	5.5	4	-1E+10	1	-1E+10	1	-1E+10	1	-1E+10	1	-1E+10	1	-1E+10	1
4901784	200	C	12/25/2020	10:48	-134.205	43.560	0	1319.50	0	2.8880	0	37.9810	8	30.288	0	1304.827	0	17.6	4	5.6	4	-1E+10	1	-1E+10	1	-1E+10	1	-1E+10	1	-1E+10	1	-1E+10	1
4901784	200	C	12/25/2020	10:48	-134.205	43.560	0	1324.90	0	2.8780	0	37.9830	8	30.291	0	1310.150	0	17.8	4	5.6	4	-1E+10	1	-1E+10	1	-1E+10	1	-1E+10	1	-1E+10	1	-1E+10	1
4901784	200	C	12/25/2020	10:48	-134.205	43.560	0	1330.10	0	2.8680	0	37.9850	8	30.293	0	1315.276	0	17.9	4	5.7	4	-1E+10	1	-1E+10	1	-1E+10	1	-1E+10	1	-1E+10	1	-1E+10	1
4901784	200	C	12/25/2020	10:48	-134.205	43.560	0	1335.40	0	2.8590	0	37.9870	8	30.296	0	1320.500	0	18.1	4	5.7	4	-1E+10	1	-1E+10	1	-1E+10	1	-1E+10	1	-1E+10	1	-1E+10	1
4901784	200	C	12/25/2020	10:48	-134.205	43.560	0	1340.70	0	2.8500	0	37.9880	8	30.297	0	1325.724	0	18.4	4	5.8	4	-1E+10	1	-1E+10	1	-1E+10	1	-1E+10	1	-1E+10	1	-1E+10	1
4901784	200	C	12/25/2020	10:48	-134.205	43.560	0	1345.20	0	2.8400	0	37.9910	8	30.301	0	1330.160	0	18.8	4	5.9	4	-1E+10	1	-1E+10	1	-1E+10	1	-1E+10	1	-1E+10	1	-1E+10	1
4901784	200	C	12/25/2020	10:48	-134.205	43.560	0	1349.60	0	2.8320	0	37.9930	8	30.303	0	1334.497	0	19.2	4	6.1	4	-1E+10	1	-1E+10	1	-1E+10	1	-1E+10	1	-1E+10	1	-1E+10	1
4901784	200	C	12/25/2020	10:48	-134.205	43.560	0	1354.90	0	2.8210	0	37.9950	8	30.306	0	1339.721	0	19.6	4	6.2	4	-1E+10	1	-1E+10	1	-1E+10	1	-1E+10	1	-1E+10	1	-1E+10	1
4901784	200	C	12/25/2020	10:48	-134.205	43.560	0	1360.30	0	2.8080	0	37.9980	8	30.310	0	1345.043	0	20.0	4	6.3	4	-1E+10	1	-1E+10	1	-1E+10	1	-1E+10	1	-1E+10	1	-1E+10	1
4901784	200	C	12/25/2020	10:48	-134.205	43.560	0	1364.90	0	2.8000	0	38.0010	8	30.313	0	1349.577	0	20.3	4	6.4	4	-1E+10	1	-1E+10	1	-1E+10	1	-1E+10	1	-1E+10	1	-1E+10	1
4901784	200	C	12/25/2020	10:48	-134.205	43.560	0	1369.30	0	2.7950	0	38.0020	8	30.314	0	1353.913	0	20.4	4	6.4	4	-1E+10	1	-1E+10	1	-1E+10	1	-1E+10	1	-1E+10	1	-1E+10	1
4901784	200	C	12/25/2020	10:48	-134.205	43.560	0	1374.80	0	2.7880	0	38.0030	8	30.316	0	1359.334	0	20.5	4	6.5	4	-1E+10	1	-1E+10	1	-1E+10	1	-1E+10	1	-1E+10	1	-1E+10	1
4901784	200	C	12/25/2020	10:48	-134.205	43.560	0	1380.20	0	2.7790	0	38.0050	8	30.318	0	1364.655	0	20.8	4	6.6	4	-1E+10	1	-1E+10	1	-1E+10	1	-1E+10	1	-1E+10	1	-1E+10	1
4901784	200	C	12/25/2020	10:48	-134.205	43.560	0	1385.60	0	2.7740	0	38.0070	8	30.320	0	1369.977	0	21.1	4	6.7	4	-1E+10	1	-1E+10	1	-1E+10	1	-1E+10	1	-1E+10	1	-1E+10	1
4901784	200	C	12/25/2020	10:48	-134.205	43.560	0	1390.20	0	2.7690	0	38.0080	8	30.322	0	1374.510	0	21.4	4	6.8	4	-1E+10	1	-1E+10	1	-1E+10	1	-1E+10	1	-1E+10	1	-1E+10	1
4901784	200	C	12/25/2020	10:48	-134.205	43.560	0	1394.80	0	2.7630	0	38.0100	8	30.324	0	1379.043	0	21.8	4	6.9	4	-1E+10	1	-1E+10	1	-1E+10	1	-1E+10	1	-1E+10	1	-1E+10	1
4901784	200	C	12/25/2020	10:48	-134.205	43.560	0	1400.20	0	2.7560	0	38.0120	8	30.326	0	1384.364	0	22.0	4	6.9	4	-1E+10	1	-1E+10	1	-1E+10	1	-1E+10	1	-1E+10	1	-1E+10	1
4901784	200	C	12/25/2020	10:48	-134.205	43.560	0	1404.90	0	2.7480	0	38.0140	8	30.329	0	1388.996	0	22.1	4	7.0	4	-1E+10	1	-1E+10	1	-1E+10	1	-1E+10	1	-1E+10	1	-1E+10	1
4901784	200	C	12/25/2020	10:48	-134.205	43.560	0	1409.50	0	2.7410	0	38.0150	8	30.330	0	1393.529	0	22.2	4	7.0	4	-1E+10	1	-1E+10	1	-1E+10	1	-1E+10	1	-1E+10	1	-1E+10	1
4901784	200	C	12/25/2020	10:48	-134.205	43.560	0	1415.00	0	2.7330	0	38.0160	8	30.332	0	1398.948	0	22.5	4	7.1	4	-1E+10	1	-1E+10	1	-1E+10	1	-1E+10	1	-1E+10	1	-1E+10	1
4901784	200	C	12/25/2020	10:48	-134.205	43.560	0	1420.60	0	2.7240	0	38.0180	8	30.334	0	1404.466	0	22.7	4	7.2	4	-1E+10	1	-1E+10	1	-1E+10	1	-1E+10	1	-1E+10	1	-1E+10	1
4901784	200	C	12/25/2020	10:48	-134.205	43.560	0	1425.20	0	2.7170	0	38.0190	8	30.336	0	1408.998	0	23.0	4	7.2	4	-1E+10	1	-1E+10	1	-1E+10	1	-1E+10	1	-1E+10	1	-1E+10	1
4901784	200	C	12/25/2020	10:48	-134.205	43.560	0	1429.80	0	2.7100	0	38.0200	8	30.337	0	1413.531	0	23.3	4	7.3	4	-1E+10	1	-1E+10	1	-1E+10	1	-1E+10	1	-1E+10	1	-1E+10	1
4901784	200	C	12/25/2020	10:48	-134.205	43.560	0	1435.40	0	2.6990	0	38.0220	8	30.340	0	1419.048	0	23.6	4	7.4	4	-1E+10	1	-1E+10	1	-1E+10	1	-1E+10	1	-1E+10	1	-1E+10	1
4901784	200	C	12/25/2020	10:48	-134.205	43.560	0	1440.00	0	2.6900	0	38.0240	8	30.342	0	1423.580	0	23.8	4	7.5	4	-1E+10	1	-1E+10	1	-1E+10	1	-1E+10	1	-1E+10	1	-1E+10	1
4901784	200	C	12/25/2020	10:48	-134.205	43.560	0	1444.70	0	2.6820	0	38.0260	8	30.345	0	1428.211	0	24.0	4	7.6	4	-1E+10	1	-1E+10	1	-1E+10	1	-1E+10	1	-1E+10	1	-1E+10	1
4901784	200	C	12/25/2020	10:48	-134.205	43.560	0	1449.90	0	2.6740	0	38.0270	8	30.346	0	1433.334	0	24.1	4	7.6	4	-1E+10	1	-1E+10	1	-1E+10	1	-1E+10	1	-1E+10	1	-1E+10	1
4901784	200	C	12/25/2020	10:48	-134.205	43.560	0	1454.20	0	2.6680	0	38.0270	8	30.347	0	1437.570	0	24.2	4	7.6	4	-1E+10	1	-1E+10	1	-1E+10	1	-1E+10	1	-1E+10	1	-1E+10	1
4901784	200	C	12/25/2020	10:48	-134.205	43.560	0	1459.90	0	2.6530	0	38.0290	8	30.350	0	1443.185	0	24.5	4	7.7	4	-1E+10	1	-1E+10	1	-1E+10	1	-1E+10	1	-1E+10	1	-1E+10	1
4901784	200	C	12/25/2020	10:48	-134.205	43.560	0	1465.70	0	2.6420	0	38.0310	8	30.353	0	1448.899	0	24.9	4	7.8	4	-1E+10	1	-1E+10	1	-1E+10	1	-1E+10	1	-1E+10	1	-1E+10	1
4901784	200	C	12/25/2020	10:48	-134.205	43.560	0	1470.70	0	2.6320	0	38.0330	8	30.355	0	1453.824	0	25.1	4	7.9	4	-1E+10	1	-1E+10	1	-1E+10	1	-1E+10	1	-1E+10	1	-1E+10	1
4901784	200	C	12/25/2020	10:48	-134.205	43.560	0	1475.70	0	2.6210	0	38.0350	8	30.358	0	1458.750	0	25.5	4	8.0	4	-1E+10	1	-1E+10	1	-1E+10	1	-1E+10	1	-1E+10	1	-1E+10	1
4901784	200	C	12/25/2020	10:48	-134.205	43.560	0	1480.70	0	2.6110	0	38.0370	8	30.361	0	1463.675	0	25.8	4	8.1	4	-1E+10	1	-1E+10	1	-1E+10	1	-1E+10	1	-1E+10	1	-1E+10	1
4901784	200	C	12/25/2020	10:48	-134.205	43.560	0	1485.70	0	2.5990	0	38.0390	8	30.363	0	1468.600	0	25.9	4	8.1	4	-1E+10	1	-1E+10	1	-1E+10	1	-1E+10	1	-1E+10	1	-1E+10	1
4901784	200	C	12/25/2020	10:48	-134.205	43.560	0	1490.80	0	2.5900	0	38.0400	8	30.365	0	1473.624	0	26.2	4	8.2	4	-1E+10	1	-1E+10	1	-1E+10	1	-1E+10	1	-1E+10	1	-1E+10	1
4901784	200	C	12/25/2020	10:48	-134.205	43.560	0	1495.00	0	2.5860	0	38.0410	8	30.366	0	1477.761	0	26.4	4	8.3	4	-1E+10	1	-1E+10	1	-1E+10	1	-1E+10	1	-1E+10	1	-1E+10	1
4901784	200	C	12/25/2020	10:48	-134.205	43.560	0	1499.20	0	2.5760	0	38.0430	8	30.369	0	1481.898	0	26.6	4	8.3	4	-1E+10	1	-1E+10	1	-1E+10	1	-1E+10	1	-1E+10	1	-1E+10	1
4901784	200	C	12/25/2020	10:48	-134.205	43.560	0	1504.30	0	2.5700	0	38.0440	8	30.370	0	1486.921	0	26.7	4	8.4	4	-1E+10	1	-1E+10	1	-1E+10	1	-1E+10	1	-1E+10	1	-1E+10	1
4901784	200	C	12/25/2020	10:48	-134.205	43.560	0	1509.30	0	2.5620	0	38.0450	8	30.372	0	1491.845	0	26.9	4	8.4	4	-1E+10	1	-1E+10	1	-1E+10	1	-1E+10	1	-1E+10	1	-1E+10	1
4901784	200	C	12/25/2020	10:48	-134.205	43.560	0	1514.50	0	2.5560	0	38.0460	8	30.373	0	1496.967	0	27.1	4	8.5	4	-1E+10	1	-1E+10	1	-1E+10	1	-1E+10	1	-1E+10	1	-1E+10	1
4901784	200	C	12/25/2020	10:48	-134.205	43.560	0	1519.70	0	2.5490	0	38.0470	8	30.375	0	1502.088	0	27.4	4	8.6	4	-1E+10	1	-1E+10	1	-1E+10	1	-1E+10	1	-1E+10	1	-1E+10	1
4901784	200	C	12/25/2020	10:48	-134.205	43.560	0	1524.80	0	2.5410	0	38.0480	8	30.376	0	1507.111	0	27.7	4	8.7	4	-1E+10	1	-1E+10	1	-1E+10	1	-1E+10	1	-1E+10	1	-1E+10	1
4901784	200	C	12/25/2020	10:48	-134.205	43.560	0	1530.00	0	2.5310	0	38.0500	8	30.379	0	1512.232	0	28.2	4	8.8	4	-1E+10	1	-1E+10	1	-1E+10	1	-1E+10	1	-1E+10	1	-1E+10	1
4901784	200	C	12/25/2020	10:48	-134.205	43.560	0	1535.10	0	2.5150	0	38.0520	8	30.382	0	1517.254	0	28.7	4	9.0	4	-1E+10	1	-1E+10	1	-1E+10	1	-1E+10	1	-1E+10	1	-1E+10	1
4901784	200	C	12/25/2020	10:48	-134.205	43.560	0	1540.40	0	2.4970	0	38.0550	8	30.386	0	1522.474	0	29.2	4	9.2	4	-1E+10	1	-1E+10	1	-1E+10	1	-1E+10	1	-1E+10	1	-1E+10	1
4901784	200	C	12/25/2020	10:48	-134.205	43.560	0	1545.60	0	2.4840	0	38.0580	8	30.390	0	1527.594	0	29.6	4	9.3	4	-1E+10	1	-1E+10	1	-1E+10	1	-1E+10	1	-1E+10	1	-1E+10	1
4901784	200	C	12/25/2020	10:48	-134.205	43.560	0	1550.00	0	2.4810	0	38.0590	8	30.391	0	1531.927	0	29.8	4	9.3	4	-1E+10	1	-1E+10	1	-1E+10	1	-1E+10	1	-1E+10	1	-1E+10	1
4901784	200	C	12/25/2020	10:48	-134.205	43.560	0	1554.40	0	2.4720	0	38.0600	8	30.393	0	1536.260	0	30.1	4	9.4	4	-1E+10	1	-1E+10	1	-1E+10	1	-1E+10	1	-1E+10	1	-1E+10	1
4901784	200	C	12/25/2020	10:48	-134.205	43.560	0	1559.80	0	2.4690	0	38.0610	8	30.394	0	1541.577	0	30.4	4	9.5	4	-1E+10	1	-1E+10	1	-1E+10	1	-1E+10	1	-1E+10	1	-1E+10	1
4901784	200	C	12/25/2020	10:48	-134.205	43.560	0	1565.10	0	2.4580	0	38.0630	8	30.396	0	1546.796	0	30.8	4	9.6	4	-1E+10	1	-1E+10	1	-1E+10	1	-1E+10	1	-1E+10	1	-1E+10	1
4901784	200	C	12/25/2020	10:48	-134.205	43.560	0	1570.50	0	2.4470	0	38.0650	8	30.399	0	1552.113	0	31.2	4	9.8	4	-1E+10	1	-1E+10	1	-1E+10	1	-1E+10	1	-1E+10	1	-1E+10	1
4901784	200	C	12/25/2020	10:48	-134.205	43.560	0	1575.00	0	2.4390	0	38.0660	8	30.401	0	1556.544	0	31.4	4	9.8	4	-1E+10	1	-1E+10	1	-1E+10	1	-1E+10	1	-1E+10	1	-1E+10	1
4901784	200	C	12/25/2020	10:48	-134.205	43.560	0	1579.50	0	2.4310	0	38.0670	8	30.402	0	1560.975	0	31.7	4	9.9	4	-1E+10	1	-1E+10	1	-1E+10	1	-1E+10	1	-1E+10	1	-1E+10	1
4901784	200	C	12/25/2020	10:48	-134.205	43.560	0	1584.90	0	2.4250	0	38.0690	8	30.404	0	1566.291	0	31.9	4	10.0	4	-1E+10	1	-1E+10	1	-1E+10	1	-1E+10	1	-1E+10	1	-1E+10	1
4901784	200	C	12/25/2020	10:48	-134.205	43.560	0	1590.30	0	2.4170	0	38.0700	8	30.406	0	1571.608	0	32.2	4	10.1	4	-1E+10	1	-1E+10	1	-1E+10	1	-1E+10	1	-1E+10	1	-1E+10	1
4901784	200	C	12/25/2020	10:48	-134.205	43.560	0	1595.40	0	2.4080	0	38.0710	8	30.408	0	1576.629	0	32.4	4	10.1	4	-1E+10	1	-1E+10	1	-1E+10	1	-1E+10	1	-1E+10	1	-1E+10	1
4901784	200	C	12/25/2020	10:48	-134.205	43.560	0	1599.60	0	2.4030	0	38.0730	8	30.410	0	1580.764	0	32.6	4	10.2	4	-1E+10	1	-1E+10	1	-1E+10	1	-1E+10	1	-1E+10	1	-1E+10	1
4901784	200	C	12/25/2020	10:48	-134.205	43.560	0	1605.10	0	2.3970	0	38.0740	8	30.411	0	1586.178	0	32.9	4	10.3	4	-1E+10	1	-1E+10	1	-1E+10	1	-1E+10	1	-1E+10	1	-1E+10	1
4901784	200	C	12/25/2020	10:48	-134.205	43.560	0	1610.70	0	2.3900	0	38.0750	8	30.413	0	1591.691	0	33.2	4	10.4	4	-1E+10	1	-1E+10	1	-1E+10	1	-1E+10	1	-1E+10	1	-1E+10	1
4901784	200	C	12/25/2020	10:48	-134.205	43.560	0	1615.50	0	2.3820	0	38.0760	8	30.414	0	1596.417	0	33.5	4	10.5	4	-1E+10	1	-1E+10	1	-1E+10	1	-1E+10	1	-1E+10	1	-1E+10	1
4901784	200	C	12/25/2020	10:48	-134.205	43.560	0	1620.40	0	2.3730	0	38.0780	8	30.417	0	1601.240	0	33.9	4	10.6	4	-1E+10	1	-1E+10	1	-1E+10	1	-1E+10	1	-1E+10	1	-1E+10	1
4901784	200	C	12/25/2020	10:48	-134.205	43.560	0	1625.30	0	2.3630	0	38.0790	8	30.419	0	1606.064	0	34.2	4	10.7	4	-1E+10	1	-1E+10	1	-1E+10	1	-1E+10	1	-1E+10	1	-1E+10	1
4901784	200	C	12/25/2020	10:48	-134.205	43.560	0	1630.20	0	2.3540	0	38.0810	8	30.421	0	1610.887	0	34.5	4	10.8	4	-1E+10	1	-1E+10	1	-1E+10	1	-1E+10	1	-1E+10	1	-1E+10	1
4901784	200	C	12/25/2020	10:48	-134.205	43.560	0	1635.20	0	2.3480	0	38.0820	8	30.422	0	1615.809	0	34.8	4	10.9	4	-1E+10	1	-1E+10	1	-1E+10	1	-1E+10	1	-1E+10	1	-1E+10	1
4901784	200	C	12/25/2020	10:48	-134.205	43.560	0	1640.20	0	2.3370	0	38.0840	8	30.425	0	1620.730	0	35.2	4	11.0	4	-1E+10	1	-1E+10	1	-1E+10	1	-1E+10	1	-1E+10	1	-1E+10	1
4901784	200	C	12/25/2020	10:48	-134.205	43.560	0	1645.20	0	2.3270	0	38.0850	8	30.427	0	1625.652	0	35.5	4	11.1	4	-1E+10	1	-1E+10	1	-1E+10	1	-1E+10	1	-1E+10	1	-1E+10	1
4901784	200	C	12/25/2020	10:48	-134.205	43.560	0	1650.20	0	2.3160	0	38.0880	8	30.430	0	1630.573	0	35.8	4	11.2	4	-1E+10	1	-1E+10	1	-1E+10	1	-1E+10	1	-1E+10	1	-1E+10	1
4901784	200	C	12/25/2020	10:48	-134.205	43.560	0	1655.40	0	2.3100	0	38.0880	8	30.431	0	1635.691	0	36.1	4	11.3	4	-1E+10	1	-1E+10	1	-1E+10	1	-1E+10	1	-1E+10	1	-1E+10	1
4901784	200	C	12/25/2020	10:48	-134.205	43.560	0	1660.60	0	2.3060	0	38.0890	8	30.432	0	1640.809	0	36.5	4	11.4	4	-1E+10	1	-1E+10	1	-1E+10	1	-1E+10	1	-1E+10	1	-1E+10	1
4901784	200	C	12/25/2020	10:48	-134.205	43.560	0	1664.90	0	2.3020	0	38.0910	8	30.434	0	1645.041	0	37.0	4	11.5	4	-1E+10	1	-1E+10	1	-1E+10	1	-1E+10	1	-1E+10	1	-1E+10	1
4901784	200	C	12/25/2020	10:48	-134.205	43.560	0	1669.30	0	2.3010	0	38.0920	8	30.435	0	1649.372	0	37.5	4	11.7	4	-1E+10	1	-1E+10	1	-1E+10	1	-1E+10	1	-1E+10	1	-1E+10	1
4901784	200	C	12/25/2020	10:48	-134.205	43.560	0	1674.60	0	2.2980	0	38.0940	8	30.437	0	1654.588	0	37.8	4	11.8	4	-1E+10	1	-1E+10	1	-1E+10	1	-1E+10	1	-1E+10	1	-1E+10	1
4901784	200	C	12/25/2020	10:48	-134.205	43.560	0	1679.90	0	2.2910	0	38.0950	8	30.438	0	1659.804	0	38.2	4	11.9	4	-1E+10	1	-1E+10	1	-1E+10	1	-1E+10	1	-1E+10	1	-1E+10	1
4901784	200	C	12/25/2020	10:48	-134.205	43.560	0	1685.20	0	2.2830	0	38.0960	8	30.440	0	1665.020	0	38.5	4	12.0	4	-1E+10	1	-1E+10	1	-1E+10	1	-1E+10	1	-1E+10	1	-1E+10	1
4901784	200	C	12/25/2020	10:48	-134.205	43.560	0	1690.60	0	2.2790	0	38.0980	8	30.442	0	1670.334	0	38.9	4	12.1	4	-1E+10	1	-1E+10	1	-1E+10	1	-1E+10	1	-1E+10	1	-1E+10	1
4901784	200	C	12/25/2020	10:48	-134.205	43.560	0	1695.00	0	2.2760	0	38.0990	8	30.443	0	1674.664	0	39.2	4	12.2	4	-1E+10	1	-1E+10	1	-1E+10	1	-1E+10	1	-1E+10	1	-1E+10	1
4901784	200	C	12/25/2020	10:48	-134.205	43.560	0	1699.50	0	2.2710	0	38.0990	8	30.443	0	1679.092	0	39.5	4	12.3	4	-1E+10	1	-1E+10	1	-1E+10	1	-1E+10	1	-1E+10	1	-1E+10	1
4901784	200	C	12/25/2020	10:48	-134.205	43.560	0	1704.90	0	2.2650	0	38.1010	8	30.446	0	1684.406	0	40.0	4	12.5	4	-1E+10	1	-1E+10	1	-1E+10	1	-1E+10	1	-1E+10	1	-1E+10	1
4901784	200	C	12/25/2020	10:48	-134.205	43.560	0	1710.40	0	2.2570	0	38.1030	8	30.448	0	1689.818	0	40.3	4	12.6	4	-1E+10	1	-1E+10	1	-1E+10	1	-1E+10	1	-1E+10	1	-1E+10	1
4901784	200	C	12/25/2020	10:48	-134.205	43.560	0	1715.00	0	2.2500	0	38.1040	8	30.449	0	1694.344	0	40.6	4	12.6	4	-1E+10	1	-1E+10	1	-1E+10	1	-1E+10	1	-1E+10	1	-1E+10	1
4901784	200	C	12/25/2020	10:48	-134.205	43.560	0	1719.80	0	2.2390	0	38.1050	8	30.451	0	1699.067	0	40.9	4	12.7	4	-1E+10	1	-1E+10	1	-1E+10	1	-1E+10	1	-1E+10	1	-1E+10	1
4901784	200	C	12/25/2020	10:48	-134.205	43.560	0	1725.00	0	2.2320	0	38.1070	8	30.454	0	1704.183	0	41.1	4	12.8	4	-1E+10	1	-1E+10	1	-1E+10	1	-1E+10	1	-1E+10	1	-1E+10	1
4901784	200	C	12/25/2020	10:48	-134.205	43.560	0	1729.80	0	2.2290	0	38.1080	8	30.455	0	1708.906	0	41.3	4	12.9	4	-1E+10	1	-1E+10	1	-1E+10	1	-1E+10	1	-1E+10	1	-1E+10	1
4901784	200	C	12/25/2020	10:48	-134.205	43.560	0	1734.60	0	2.2270	0	38.1080	8	30.455	0	1713.629	0	41.5	4	12.9	4	-1E+10	1	-1E+10	1	-1E+10	1	-1E+10	1	-1E+10	1	-1E+10	1
4901784	200	C	12/25/2020	10:48	-134.205	43.560	0	1739.50	0	2.2200	0	38.1090	8	30.456	0	1718.450	0	41.8	4	13.0	4	-1E+10	1	-1E+10	1	-1E+10	1	-1E+10	1	-1E+10	1	-1E+10	1
4901784	200	C	12/25/2020	10:48	-134.205	43.560	0	1744.50	0	2.2130	0	38.1110	8	30.459	0	1723.369	0	42.1	4	13.1	4	-1E+10	1	-1E+10	1	-1E+10	1	-1E+10	1	-1E+10	1	-1E+10	1
4901784	200	C	12/25/2020	10:48	-134.205	43.560	0	1749.40	0	2.2090	0	38.1120	8	30.460	0	1728.189	0	42.4	4	13.2	4	-1E+10	1	-1E+10	1	-1E+10	1	-1E+10	1	-1E+10	1	-1E+10	1
4901784	200	C	12/25/2020	10:48	-134.205	43.560	0	1754.50	0	2.2010	0	38.1130	8	30.461	0	1733.207	0	42.8	4	13.3	4	-1E+10	1	-1E+10	1	-1E+10	1	-1E+10	1	-1E+10	1	-1E+10	1
4901784	200	C	12/25/2020	10:48	-134.205	43.560	0	1759.50	0	2.1900	0	38.1140	8	30.463	0	1738.126	0	43.3	4	13.5	4	-1E+10	1	-1E+10	1	-1E+10	1	-1E+10	1	-1E+10	1	-1E+10	1
4901784	200	C	12/25/2020	10:48	-134.205	43.560	0	1764.50	0	2.1810	0	38.1160	8	30.466	0	1743.044	0	43.7	4	13.6	4	-1E+10	1	-1E+10	1	-1E+10	1	-1E+10	1	-1E+10	1	-1E+10	1
4901784	200	C	12/25/2020	10:48	-134.205	43.560	0	1769.60	0	2.1740	0	38.1170	8	30.467	0	1748.061	0	44.1	4	13.7	4	-1E+10	1	-1E+10	1	-1E+10	1	-1E+10	1	-1E+10	1	-1E+10	1
4901784	200	C	12/25/2020	10:48	-134.205	43.560	0	1774.70	0	2.1640	0	38.1190	8	30.470	0	1753.078	0	44.4	4	13.8	4	-1E+10	1	-1E+10	1	-1E+10	1	-1E+10	1	-1E+10	1	-1E+10	1
4901784	200	C	12/25/2020	10:48	-134.205	43.560	0	1779.70	0	2.1590	0	38.1200	8	30.471	0	1757.997	0	44.6	4	13.9	4	-1E+10	1	-1E+10	1	-1E+10	1	-1E+10	1	-1E+10	1	-1E+10	1
4901784	200	C	12/25/2020	10:48	-134.205	43.560	0	1784.80	0	2.1570	0	38.1210	8	30.472	0	1763.013	0	44.7	4	13.9	4	-1E+10	1	-1E+10	1	-1E+10	1	-1E+10	1	-1E+10	1	-1E+10	1
4901784	200	C	12/25/2020	10:48	-134.205	43.560	0	1789.90	0	2.1530	0	38.1210	8	30.472	0	1768.030	0	45.0	4	14.0	4	-1E+10	1	-1E+10	1	-1E+10	1	-1E+10	1	-1E+10	1	-1E+10	1
4901784	200	C	12/25/2020	10:48	-134.205	43.560	0	1795.10	0	2.1430	0	38.1220	8	30.474	0	1773.145	0	45.4	4	14.1	4	-1E+10	1	-1E+10	1	-1E+10	1	-1E+10	1	-1E+10	1	-1E+10	1
4901784	200	C	12/25/2020	10:48	-134.205	43.560	0	1800.20	0	2.1370	0	38.1240	8	30.476	0	1778.161	0	45.8	4	14.2	4	-1E+10	1	-1E+10	1	-1E+10	1	-1E+10	1	-1E+10	1	-1E+10	1
4901784	200	C	12/25/2020	10:48	-134.205	43.560	0	1805.30	0	2.1330	0	38.1250	8	30.477	0	1783.177	0	46.1	4	14.3	4	-1E+10	1	-1E+10	1	-1E+10	1	-1E+10	1	-1E+10	1	-1E+10	1
4901784	200	C	12/25/2020	10:48	-134.205	43.560	0	1810.50	0	2.1290	0	38.1260	8	30.479	0	1788.291	0	46.3	4	14.4	4	-1E+10	1	-1E+10	1	-1E+10	1	-1E+10	1	-1E+10	1	-1E+10	1
4901784	200	C	12/25/2020	10:48	-134.205	43.560	0	1814.90	0	2.1260	0	38.1260	8	30.479	0	1792.619	0	46.6	4	14.5	4	-1E+10	1	-1E+10	1	-1E+10	1	-1E+10	1	-1E+10	1	-1E+10	1
4901784	200	C	12/25/2020	10:48	-134.205	43.560	0	1819.30	0	2.1190	0	38.1280	8	30.481	0	1796.946	0	46.8	4	14.5	4	-1E+10	1	-1E+10	1	-1E+10	1	-1E+10	1	-1E+10	1	-1E+10	1
4901784	200	C	12/25/2020	10:48	-134.205	43.560	0	1824.60	0	2.1150	0	38.1280	8	30.482	0	1802.159	0	47.0	4	14.6	4	-1E+10	1	-1E+10	1	-1E+10	1	-1E+10	1	-1E+10	1	-1E+10	1
4901784	200	C	12/25/2020	10:48	-134.205	43.560	0	1829.90	0	2.1090	0	38.1290	8	30.483	0	1807.371	0	47.4	4	14.7	4	-1E+10	1	-1E+10	1	-1E+10	1	-1E+10	1	-1E+10	1	-1E+10	1
4901784	200	C	12/25/2020	10:48	-134.205	43.560	0	1835.20	0	2.1040	0	38.1300	8	30.484	0	1812.583	0	47.9	4	14.9	4	-1E+10	1	-1E+10	1	-1E+10	1	-1E+10	1	-1E+10	1	-1E+10	1
4901784	200	C	12/25/2020	10:48	-134.205	43.560	0	1840.50	0	2.0960	0	38.1330	8	30.487	0	1817.795	0	48.3	4	15.0	4	-1E+10	1	-1E+10	1	-1E+10	1	-1E+10	1	-1E+10	1	-1E+10	1
4901784	200	C	12/25/2020	10:48	-134.205	43.560	0	1844.90	0	2.0940	0	38.1330	8	30.488	0	1822.122	0	48.5	4	15.1	4	-1E+10	1	-1E+10	1	-1E+10	1	-1E+10	1	-1E+10	1	-1E+10	1
4901784	200	C	12/25/2020	10:48	-134.205	43.560	0	1849.40	0	2.0920	0	38.1340	8	30.489	0	1826.547	0	48.7	4	15.1	4	-1E+10	1	-1E+10	1	-1E+10	1	-1E+10	1	-1E+10	1	-1E+10	1
4901784	200	C	12/25/2020	10:48	-134.205	43.560	0	1854.90	0	2.0860	0	38.1350	8	30.490	0	1831.956	0	49.0	4	15.2	4	-1E+10	1	-1E+10	1	-1E+10	1	-1E+10	1	-1E+10	1	-1E+10	1
4901784	200	C	12/25/2020	10:48	-134.205	43.560	0	1860.40	0	2.0780	0	38.1360	8	30.492	0	1837.364	0	49.4	4	15.3	4	-1E+10	1	-1E+10	1	-1E+10	1	-1E+10	1	-1E+10	1	-1E+10	1
4901784	200	C	12/25/2020	10:48	-134.205	43.560	0	1864.90	0	2.0770	0	38.1370	8	30.492	0	1841.789	0	49.8	4	15.5	4	-1E+10	1	-1E+10	1	-1E+10	1	-1E+10	1	-1E+10	1	-1E+10	1
4901784	200	C	12/25/2020	10:48	-134.205	43.560	0	1869.60	0	2.0730	0	38.1380	8	30.494	0	1846.410	0	50.2	4	15.6	4	-1E+10	1	-1E+10	1	-1E+10	1	-1E+10	1	-1E+10	1	-1E+10	1
4901784	200	C	12/25/2020	10:48	-134.205	43.560	0	1875.10	0	2.0660	0	38.1390	8	30.495	0	1851.818	0	50.5	4	15.7	4	-1E+10	1	-1E+10	1	-1E+10	1	-1E+10	1	-1E+10	1	-1E+10	1
4901784	200	C	12/25/2020	10:48	-134.205	43.560	0	1880.60	0	2.0620	0	38.1400	8	30.496	0	1857.226	0	50.8	4	15.8	4	-1E+10	1	-1E+10	1	-1E+10	1	-1E+10	1	-1E+10	1	-1E+10	1
4901784	200	C	12/25/2020	10:48	-134.205	43.560	0	1885.20	0	2.0620	0	38.1410	8	30.497	0	1861.748	0	51.1	4	15.8	4	-1E+10	1	-1E+10	1	-1E+10	1	-1E+10	1	-1E+10	1	-1E+10	1
4901784	200	C	12/25/2020	10:48	-134.205	43.560	0	1889.80	0	2.0590	0	38.1420	8	30.498	0	1866.271	0	51.4	4	16.0	4	-1E+10	1	-1E+10	1	-1E+10	1	-1E+10	1	-1E+10	1	-1E+10	1
4901784	200	C	12/25/2020	10:48	-134.205	43.560	0	1895.30	0	2.0540	0	38.1420	8	30.499	0	1871.678	0	51.6	4	16.0	4	-1E+10	1	-1E+10	1	-1E+10	1	-1E+10	1	-1E+10	1	-1E+10	1
4901784	200	C	12/25/2020	10:48	-134.205	43.560	0	1899.90	0	2.0510	0	38.1430	8	30.500	0	1876.201	0	51.9	4	16.1	4	-1E+10	1	-1E+10	1	-1E+10	1	-1E+10	1	-1E+10	1	-1E+10	1
4901784	200	C	12/25/2020	10:48	-134.205	43.560	0	1904.60	0	2.0480	0	38.1440	8	30.501	0	1880.821	0	52.0	4	16.1	4	-1E+10	1	-1E+10	1	-1E+10	1	-1E+10	1	-1E+10	1	-1E+10	1
4901784	200	C	12/25/2020	10:48	-134.205	43.560	0	1910.10	0	2.0420	0	38.1450	8	30.502	0	1886.228	0	52.3	4	16.2	4	-1E+10	1	-1E+10	1	-1E+10	1	-1E+10	1	-1E+10	1	-1E+10	1
4901784	200	C	12/25/2020	10:48	-134.205	43.560	0	1915.50	0	2.0340	0	38.1460	8	30.504	0	1891.537	0	52.7	4	16.3	4	-1E+10	1	-1E+10	1	-1E+10	1	-1E+10	1	-1E+10	1	-1E+10	1
4901784	200	C	12/25/2020	10:48	-134.205	43.560	0	1920.40	0	2.0280	0	38.1470	8	30.505	0	1896.354	0	53.1	4	16.5	4	-1E+10	1	-1E+10	1	-1E+10	1	-1E+10	1	-1E+10	1	-1E+10	1
4901784	200	C	12/25/2020	10:48	-134.205	43.560	0	1925.30	0	2.0230	0	38.1480	8	30.506	0	1901.170	0	53.5	4	16.6	4	-1E+10	1	-1E+10	1	-1E+10	1	-1E+10	1	-1E+10	1	-1E+10	1
4901784	200	C	12/25/2020	10:48	-134.205	43.560	0	1930.30	0	2.0140	0	38.1490	8	30.508	0	1906.085	0	53.8	4	16.7	4	-1E+10	1	-1E+10	1	-1E+10	1	-1E+10	1	-1E+10	1	-1E+10	1
4901784	200	C	12/25/2020	10:48	-134.205	43.560	0	1935.40	0	2.0060	0	38.1500	8	30.510	0	1911.098	0	54.1	4	16.8	4	-1E+10	1	-1E+10	1	-1E+10	1	-1E+10	1	-1E+10	1	-1E+10	1
4901784	200	C	12/25/2020	10:48	-134.205	43.560	0	1940.40	0	2.0000	0	38.1510	8	30.511	0	1916.013	0	54.6	4	16.9	4	-1E+10	1	-1E+10	1	-1E+10	1	-1E+10	1	-1E+10	1	-1E+10	1
4901784	200	C	12/25/2020	10:48	-134.205	43.560	0	1945.40	0	1.9920	0	38.1530	8	30.513	0	1920.928	0	54.9	4	17.0	4	-1E+10	1	-1E+10	1	-1E+10	1	-1E+10	1	-1E+10	1	-1E+10	1
4901784	200	C	12/25/2020	10:48	-134.205	43.560	0	1950.60	0	1.9890	0	38.1540	8	30.514	0	1926.039	0	55.1	4	17.1	4	-1E+10	1	-1E+10	1	-1E+10	1	-1E+10	1	-1E+10	1	-1E+10	1
4901784	200	C	12/25/2020	10:48	-134.205	43.560	0	1955.70	0	1.9880	0	38.1540	8	30.515	0	1931.052	0	55.2	4	17.1	4	-1E+10	1	-1E+10	1	-1E+10	1	-1E+10	1	-1E+10	1	-1E+10	1
4901784	200	C	12/25/2020	10:48	-134.205	43.560	0	1960.00	0	1.9860	0	38.1550	8	30.516	0	1935.278	0	55.5	4	17.2	4	-1E+10	1	-1E+10	1	-1E+10	1	-1E+10	1	-1E+10	1	-1E+10	1
4901784	200	C	12/25/2020	10:48	-134.205	43.560	0	1964.30	0	1.9850	0	38.1550	8	30.516	0	1939.504	0	55.7	4	17.3	4	-1E+10	1	-1E+10	1	-1E+10	1	-1E+10	1	-1E+10	1	-1E+10	1
4901784	200	C	12/25/2020	10:48	-134.205	43.560	0	1969.50	0	1.9800	0	38.1560	8	30.517	0	1944.615	0	56.0	4	17.4	4	-1E+10	1	-1E+10	1	-1E+10	1	-1E+10	1	-1E+10	1	-1E+10	1
4901784	200	C	12/25/2020	10:48	-134.205	43.560	0	1974.70	0	1.9770	0	38.1570	8	30.518	0	1949.725	0	56.3	4	17.4	4	-1E+10	1	-1E+10	1	-1E+10	1	-1E+10	1	-1E+10	1	-1E+10	1
4901784	200	C	12/25/2020	10:48	-134.205	43.560	0	1979.90	0	1.9750	0	38.1570	8	30.518	0	1954.836	0	56.4	4	17.5	4	-1E+10	1	-1E+10	1	-1E+10	1	-1E+10	1	-1E+10	1	-1E+10	1
4901784	200	C	12/25/2020	10:48	-134.205	43.560	0	1985.10	0	1.9730	0	38.1580	8	30.519	0	1959.946	0	56.5	4	17.5	4	-1E+10	1	-1E+10	1	-1E+10	1	-1E+10	1	-1E+10	1	-1E+10	1
4901784	200	C	12/25/2020	10:48	-134.205	43.560	0	1990.50	0	1.9720	0	38.1580	8	30.519	0	1965.253	0	56.7	4	17.6	4	-1E+10	1	-1E+10	1	-1E+10	1	-1E+10	1	-1E+10	1	-1E+10	1
4901784	200	C	12/25/2020	10:48	-134.205	43.560	0	1995.00	0	1.9670	0	38.1590	8	30.521	0	1969.675	0	56.9	4	17.6	4	-1E+10	1	-1E+10	1	-1E+10	1	-1E+10	1	-1E+10	1	-1E+10	1
4901784	200	C	12/25/2020	10:48	-134.205	43.560	0	2000.00	0	1.9620	0	38.1590	8	30.521	0	1974.588	0	57.1	4	17.7	4	-1E+10	1	-1E+10	1	-1E+10	1	-1E+10	1	-1E+10	1	-1E+10	1
4901784	200	C	12/25/2020	10:48	-134.205	43.560	0	2004.90	0	1.9590	0	38.1600	8	30.522	0	1979.403	0	57.2	4	17.7	4	-1E+10	1	-1E+10	1	-1E+10	1	-1E+10	1	-1E+10	1	-1E+10	1
4901784	200	C	12/25/2020	10:48	-134.205	43.560	0	2010.00	0	1.9580	0	38.1610	8	30.523	0	1984.415	0	57.3	4	17.7	4	-1E+10	1	-1E+10	1	-1E+10	1	-1E+10	1	-1E+10	1	-1E+10	1
4901784	200	C	12/25/2020	10:48	-134.205	43.560	0	2014.70	0	1.9570	0	38.1610	8	30.523	0	1989.033	0	57.4	4	17.8	4	-1E+10	1	-1E+10	1	-1E+10	1	-1E+10	1	-1E+10	1	-1E+10	1
4901784	200	C	12/25/2020	10:48	-134.205	43.560	0	2019.90	0	1.9550	0	38.1610	8	30.524	0	1994.142	0	57.5	4	17.8	4	-1E+10	1	-1E+10	1	-1E+10	1	-1E+10	1	-1E+10	1	-1E+10	1
4901784	200	C	12/25/2020	10:48	-134.205	43.560	0																										
4901784	201	C	01/04/2021	10:42	-134.345	43.576	0	2.00	0	12.7960	0	35.5920	8	26.893	0	1.984	0	245.0	4	95.0	4	-1E+10	1	-1E+10	1	-1E+10	1	-1E+10	1	-1E+10	1	-1E+10	1
4901784	201	C	01/04/2021	10:42	-134.345	43.576	0	2.80	0	12.7960	0	35.5920	8	26.893	0	2.778	0	244.8	4	94.9	4	-1E+10	1	-1E+10	1	-1E+10	1	-1E+10	1	-1E+10	1	-1E+10	1
4901784	201	C	01/04/2021	10:42	-134.345	43.576	0	4.00	0	12.7940	0	35.5930	8	26.895	0	3.968	0	244.9	4	95.0	4	-1E+10	1	-1E+10	1	-1E+10	1	-1E+10	1	-1E+10	1	-1E+10	1
4901784	201	C	01/04/2021	10:42	-134.345	43.576	0	5.50	0	12.7880	0	35.5940	8	26.897	0	5.456	0	244.9	4	94.9	4	-1E+10	1	-1E+10	1	-1E+10	1	-1E+10	1	-1E+10	1	-1E+10	1
4901784	201	C	01/04/2021	10:42	-134.345	43.576	0	7.20	0	12.7920	0	35.5950	8	26.897	0	7.142	0	244.8	4	94.9	4	-1E+10	1	-1E+10	1	-1E+10	1	-1E+10	1	-1E+10	1	-1E+10	1
4901784	201	C	01/04/2021	10:42	-134.345	43.576	0	8.90	0	12.7940	0	35.5960	8	26.897	0	8.829	0	244.8	4	94.9	4	-1E+10	1	-1E+10	1	-1E+10	1	-1E+10	1	-1E+10	1	-1E+10	1
4901784	201	C	01/04/2021	10:42	-134.345	43.576	0	10.70	0	12.7970	0	35.5960	8	26.897	0	10.614	0	244.7	4	94.9	4	-1E+10	1	-1E+10	1	-1E+10	1	-1E+10	1	-1E+10	1	-1E+10	1
4901784	201	C	01/04/2021	10:42	-134.345	43.576	0	12.40	0	12.7920	0	35.5990	8	26.900	0	12.301	0	244.8	4	94.9	4	-1E+10	1	-1E+10	1	-1E+10	1	-1E+10	1	-1E+10	1	-1E+10	1
4901784	201	C	01/04/2021	10:42	-134.345	43.576	0	13.90	0	12.7900	0	35.5990	8	26.900	0	13.789	0	244.7	4	94.9	4	-1E+10	1	-1E+10	1	-1E+10	1	-1E+10	1	-1E+10	1	-1E+10	1
4901784	201	C	01/04/2021	10:42	-134.345	43.576	0	15.60	0	12.7870	0	35.6010	8	26.903	0	15.475	0	244.7	4	94.9	4	-1E+10	1	-1E+10	1	-1E+10	1	-1E+10	1	-1E+10	1	-1E+10	1
4901784	201	C	01/04/2021	10:42	-134.345	43.576	0	17.30	0	12.7920	0	35.6010	8	26.902	0	17.161	0	244.7	4	94.9	4	-1E+10	1	-1E+10	1	-1E+10	1	-1E+10	1	-1E+10	1	-1E+10	1
4901784	201	C	01/04/2021	10:42	-134.345	43.576	0	19.40	0	12.7950	0	35.6020	8	26.902	0	19.244	0	244.6	4	94.9	4	-1E+10	1	-1E+10	1	-1E+10	1	-1E+10	1	-1E+10	1	-1E+10	1
4901784	201	C	01/04/2021	10:42	-134.345	43.576	0	20.00	0	12.7960	0	35.6020	8	26.902	0	19.839	0	244.6	4	94.9	4	-1E+10	1	-1E+10	1	-1E+10	1	-1E+10	1	-1E+10	1	-1E+10	1
4901784	201	C	01/04/2021	10:42	-134.345	43.576	0	21.80	0	12.8020	0	35.6020	8	26.901	0	21.625	0	244.5	4	94.8	4	-1E+10	1	-1E+10	1	-1E+10	1	-1E+10	1	-1E+10	1	-1E+10	1
4901784	201	C	01/04/2021	10:42	-134.345	43.576	0	23.30	0	12.8030	0	35.6030	8	26.901	0	23.113	0	244.7	4	94.9	4	-1E+10	1	-1E+10	1	-1E+10	1	-1E+10	1	-1E+10	1	-1E+10	1
4901784	201	C	01/04/2021	10:42	-134.345	43.576	0	24.90	0	12.8030	0	35.6040	8	26.902	0	24.700	0	244.6	4	94.8	4	-1E+10	1	-1E+10	1	-1E+10	1	-1E+10	1	-1E+10	1	-1E+10	1
4901784	201	C	01/04/2021	10:42	-134.345	43.576	0	26.50	0	12.8030	0	35.6050	8	26.903	0	26.287	0	244.5	4	94.8	4	-1E+10	1	-1E+10	1	-1E+10	1	-1E+10	1	-1E+10	1	-1E+10	1
4901784	201	C	01/04/2021	10:42	-134.345	43.576	0	27.90	0	12.8030	0	35.6060	8	26.904	0	27.675	0	244.5	4	94.8	4	-1E+10	1	-1E+10	1	-1E+10	1	-1E+10	1	-1E+10	1	-1E+10	1
4901784	201	C	01/04/2021	10:42	-134.345	43.576	0	29.50	0	12.8030	0	35.6070	8	26.904	0	29.262	0	244.5	4	94.8	4	-1E+10	1	-1E+10	1	-1E+10	1	-1E+10	1	-1E+10	1	-1E+10	1
4901784	201	C	01/04/2021	10:42	-134.345	43.576	0	31.10	0	12.8040	0	35.6080	8	26.905	0	30.849	0	244.6	4	94.8	4	-1E+10	1	-1E+10	1	-1E+10	1	-1E+10	1	-1E+10	1	-1E+10	1
4901784	201	C	01/04/2021	10:42	-134.345	43.576	0	32.60	0	12.8040	0	35.6090	8	26.906	0	32.337	0	244.3	4	94.7	4	-1E+10	1	-1E+10	1	-1E+10	1	-1E+10	1	-1E+10	1	-1E+10	1
4901784	201	C	01/04/2021	10:42	-134.345	43.576	0	34.20	0	12.8050	0	35.6100	8	26.906	0	33.924	0	244.4	4	94.8	4	-1E+10	1	-1E+10	1	-1E+10	1	-1E+10	1	-1E+10	1	-1E+10	1
4901784	201	C	01/04/2021	10:42	-134.345	43.576	0	35.80	0	12.8040	0	35.6110	8	26.907	0	35.511	0	244.2	4	94.7	4	-1E+10	1	-1E+10	1	-1E+10	1	-1E+10	1	-1E+10	1	-1E+10	1
4901784	201	C	01/04/2021	10:42	-134.345	43.576	0	37.50	0	12.8050	0	35.6120	8	26.908	0	37.197	0	244.2	4	94.7	4	-1E+10	1	-1E+10	1	-1E+10	1	-1E+10	1	-1E+10	1	-1E+10	1
4901784	201	C	01/04/2021	10:42	-134.345	43.576	0	39.30	0	12.8030	0	35.6140	8	26.910	0	38.982	0	244.2	4	94.7	4	-1E+10	1	-1E+10	1	-1E+10	1	-1E+10	1	-1E+10	1	-1E+10	1
4901784	201	C	01/04/2021	10:42	-134.345	43.576	0	41.10	0	12.8030	0	35.6140	8	26.910	0	40.768	0	244.2	4	94.7	4	-1E+10	1	-1E+10	1	-1E+10	1	-1E+10	1	-1E+10	1	-1E+10	1
4901784	201	C	01/04/2021	10:42	-134.345	43.576	0	43.20	0	12.8020	0	35.6150	8	26.911	0	42.850	0	244.2	4	94.7	4	-1E+10	1	-1E+10	1	-1E+10	1	-1E+10	1	-1E+10	1	-1E+10	1
4901784	201	C	01/04/2021	10:42	-134.345	43.576	0	45.00	0	12.8010	0	35.6170	8	26.913	0	44.636	0	244.2	4	94.7	4	-1E+10	1	-1E+10	1	-1E+10	1	-1E+10	1	-1E+10	1	-1E+10	1
4901784	201	C	01/04/2021	10:42	-134.345	43.576	0	46.80	0	12.8010	0	35.6180	8	26.914	0	46.421	0	244.0	4	94.6	4	-1E+10	1	-1E+10	1	-1E+10	1	-1E+10	1	-1E+10	1	-1E+10	1
4901784	201	C	01/04/2021	10:42	-134.345	43.576	0	48.60	0	12.8030	0	35.6190	8	26.914	0	48.206	0	243.9	4	94.6	4	-1E+10	1	-1E+10	1	-1E+10	1	-1E+10	1	-1E+10	1	-1E+10	1
4901784	201	C	01/04/2021	10:42	-134.345	43.576	0	50.50	0	12.8010	0	35.6200	8	26.915	0	50.091	0	243.9	4	94.6	4	-1E+10	1	-1E+10	1	-1E+10	1	-1E+10	1	-1E+10	1	-1E+10	1
4901784	201	C	01/04/2021	10:42	-134.345	43.576	0	52.50	0	12.8020	0	35.6210	8	26.916	0	52.074	0	243.9	4	94.6	4	-1E+10	1	-1E+10	1	-1E+10	1	-1E+10	1	-1E+10	1	-1E+10	1
4901784	201	C	01/04/2021	10:42	-134.345	43.576	0	54.40	0	12.8030	0	35.6220	8	26.917	0	53.958	0	243.8	4	94.6	4	-1E+10	1	-1E+10	1	-1E+10	1	-1E+10	1	-1E+10	1	-1E+10	1
4901784	201	C	01/04/2021	10:42	-134.345	43.576	0	56.30	0	12.8050	0	35.6230	8	26.917	0	55.843	0	243.8	4	94.6	4	-1E+10	1	-1E+10	1	-1E+10	1	-1E+10	1	-1E+10	1	-1E+10	1
4901784	201	C	01/04/2021	10:42	-134.345	43.576	0	58.10	0	12.8060	0	35.6240	8	26.918	0	57.628	0	243.7	4	94.5	4	-1E+10	1	-1E+10	1	-1E+10	1	-1E+10	1	-1E+10	1	-1E+10	1
4901784	201	C	01/04/2021	10:42	-134.345	43.576	0	59.90	0	12.8050	0	35.6250	8	26.919	0	59.413	0	243.6	4	94.5	4	-1E+10	1	-1E+10	1	-1E+10	1	-1E+10	1	-1E+10	1	-1E+10	1
4901784	201	C	01/04/2021	10:42	-134.345	43.576	0	61.70	0	12.8060	0	35.6270	8	26.920	0	61.198	0	243.5	4	94.5	4	-1E+10	1	-1E+10	1	-1E+10	1	-1E+10	1	-1E+10	1	-1E+10	1
4901784	201	C	01/04/2021	10:42	-134.345	43.576	0	63.50	0	12.8030	0	35.6270	8	26.921	0	62.983	0	243.3	4	94.4	4	-1E+10	1	-1E+10	1	-1E+10	1	-1E+10	1	-1E+10	1	-1E+10	1
4901784	201	C	01/04/2021	10:42	-134.345	43.576	0	65.20	0	12.8040	0	35.6290	8	26.922	0	64.669	0	243.2	4	94.4	4	-1E+10	1	-1E+10	1	-1E+10	1	-1E+10	1	-1E+10	1	-1E+10	1
4901784	201	C	01/04/2021	10:42	-134.345	43.576	0	66.90	0	12.8040	0	35.6300	8	26.923	0	66.355	0	243.2	4	94.3	4	-1E+10	1	-1E+10	1	-1E+10	1	-1E+10	1	-1E+10	1	-1E+10	1
4901784	201	C	01/04/2021	10:42	-134.345	43.576	0	68.60	0	12.8040	0	35.6310	8	26.924	0	68.041	0	242.9	4	94.2	4	-1E+10	1	-1E+10	1	-1E+10	1	-1E+10	1	-1E+10	1	-1E+10	1
4901784	201	C	01/04/2021	10:42	-134.345	43.576	0	70.40	0	12.8040	0	35.6320	8	26.925	0	69.826	0	242.8	4	94.2	4	-1E+10	1	-1E+10	1	-1E+10	1	-1E+10	1	-1E+10	1	-1E+10	1
4901784	201	C	01/04/2021	10:42	-134.345	43.576	0	72.20	0	12.8050	0	35.6320	8	26.925	0	71.611	0	242.6	4	94.1	4	-1E+10	1	-1E+10	1	-1E+10	1	-1E+10	1	-1E+10	1	-1E+10	1
4901784	201	C	01/04/2021	10:42	-134.345	43.576	0	73.80	0	12.8040	0	35.6330	8	26.926	0	73.197	0	242.3	4	94.0	4	-1E+10	1	-1E+10	1	-1E+10	1	-1E+10	1	-1E+10	1	-1E+10	1
4901784	201	C	01/04/2021	10:42	-134.345	43.576	0	75.50	0	12.7980	0	35.6330	8	26.927	0	74.883	0	242.3	4	94.0	4	-1E+10	1	-1E+10	1	-1E+10	1	-1E+10	1	-1E+10	1	-1E+10	1
4901784	201	C	01/04/2021	10:42	-134.345	43.576	0	77.30	0	12.7980	0	35.6330	8	26.927	0	76.668	0	242.0	4	93.9	4	-1E+10	1	-1E+10	1	-1E+10	1	-1E+10	1	-1E+10	1	-1E+10	1
4901784	201	C	01/04/2021	10:42	-134.345	43.576	0	79.00	0	12.7910	0	35.6330	8	26.928	0	78.354	0	241.6	4	93.7	4	-1E+10	1	-1E+10	1	-1E+10	1	-1E+10	1	-1E+10	1	-1E+10	1
4901784	201	C	01/04/2021	10:42	-134.345	43.576	0	80.80	0	12.7920	0	35.6290	8	26.925	0	80.139	0	241.3	4	93.6	4	-1E+10	1	-1E+10	1	-1E+10	1	-1E+10	1	-1E+10	1	-1E+10	1
4901784	201	C	01/04/2021	10:42	-134.345	43.576	0	82.50	0	12.7820	0	35.6270	8	26.926	0	81.825	0	240.8	4	93.4	4	-1E+10	1	-1E+10	1	-1E+10	1	-1E+10	1	-1E+10	1	-1E+10	1
4901784	201	C	01/04/2021	10:42	-134.345	43.576	0	84.10	0	12.7710	0	35.6200	8	26.922	0	83.411	0	240.2	4	93.1	4	-1E+10	1	-1E+10	1	-1E+10	1	-1E+10	1	-1E+10	1	-1E+10	1
4901784	201	C	01/04/2021	10:42	-134.345	43.576	0	85.60	0	12.7720	0	35.6100	8	26.914	0	84.899	0	239.3	4	92.8	4	-1E+10	1	-1E+10	1	-1E+10	1	-1E+10	1	-1E+10	1	-1E+10	1
4901784	201	C	01/04/2021	10:42	-134.345	43.576	0	87.20	0	12.7510	0	35.5920	8	26.905	0	86.485	0	238.4	4	92.3	4	-1E+10	1	-1E+10	1	-1E+10	1	-1E+10	1	-1E+10	1	-1E+10	1
4901784	201	C	01/04/2021	10:42	-134.345	43.576	0	88.80	0	12.5630	0	35.5780	8	26.931	0	88.072	0	237.7	4	91.7	4	-1E+10	1	-1E+10	1	-1E+10	1	-1E+10	1	-1E+10	1	-1E+10	1
4901784	201	C	01/04/2021	10:42	-134.345	43.576	0	90.30	0	12.2430	0	35.5840	8	26.999	0	89.559	0	237.5	4	91.0	4	-1E+10	1	-1E+10	1	-1E+10	1	-1E+10	1	-1E+10	1	-1E+10	1
4901784	201	C	01/04/2021	10:42	-134.345	43.576	0	92.00	0	11.7090	0	35.6120	8	27.123	0	91.245	0	238.1	4	90.3	4	-1E+10	1	-1E+10	1	-1E+10	1	-1E+10	1	-1E+10	1	-1E+10	1
4901784	201	C	01/04/2021	10:42	-134.345	43.576	0	93.80	0	11.0770	0	35.6480	8	27.269	0	93.030	0	240.7	4	90.1	4	-1E+10	1	-1E+10	1	-1E+10	1	-1E+10	1	-1E+10	1	-1E+10	1
4901784	201	C	01/04/2021	10:42	-134.345	43.576	0	95.60	0	10.9210	0	35.6390	8	27.290	0	94.814	0	240.3	4	89.6	4	-1E+10	1	-1E+10	1	-1E+10	1	-1E+10	1	-1E+10	1	-1E+10	1
4901784	201	C	01/04/2021	10:42	-134.345	43.576	0	97.50	0	10.4030	0	35.6780	8	27.414	0	96.698	0	241.6	4	89.2	4	-1E+10	1	-1E+10	1	-1E+10	1	-1E+10	1	-1E+10	1	-1E+10	1
4901784	201	C	01/04/2021	10:42	-134.345	43.576	0	99.30	0	10.3730	0	35.6960	8	27.433	0	98.483	0	241.4	4	89.1	4	-1E+10	1	-1E+10	1	-1E+10	1	-1E+10	1	-1E+10	1	-1E+10	1
4901784	201	C	01/04/2021	10:42	-134.345	43.576	0	103.10	0	10.2800	0	35.7160	8	27.465	0	102.251	0	241.0	4	88.7	4	-1E+10	1	-1E+10	1	-1E+10	1	-1E+10	1	-1E+10	1	-1E+10	1
4901784	201	C	01/04/2021	10:42	-134.345	43.576	0	104.90	0	10.0900	0	35.6970	8	27.483	0	104.036	0	242.0	4	88.7	4	-1E+10	1	-1E+10	1	-1E+10	1	-1E+10	1	-1E+10	1	-1E+10	1
4901784	201	C	01/04/2021	10:42	-134.345	43.576	0	106.80	0	9.8330	0	35.6870	8	27.520	0	105.920	0	243.2	4	88.7	4	-1E+10	1	-1E+10	1	-1E+10	1	-1E+10	1	-1E+10	1	-1E+10	1
4901784	201	C	01/04/2021	10:42	-134.345	43.576	0	109.70	0	9.7110	0	35.6750	8	27.531	0	108.795	0	243.5	4	88.5	4	-1E+10	1	-1E+10	1	-1E+10	1	-1E+10	1	-1E+10	1	-1E+10	1
4901784	201	C	01/04/2021	10:42	-134.345	43.576	0	112.50	0	9.5760	0	35.6820	8	27.560	0	111.571	0	243.4	4	88.2	4	-1E+10	1	-1E+10	1	-1E+10	1	-1E+10	1	-1E+10	1	-1E+10	1
4901784	201	C	01/04/2021	10:42	-134.345	43.576	0	114.80	0	9.5320	0	35.6750	8	27.562	0	113.851	0	243.0	4	88.0	4	-1E+10	1	-1E+10	1	-1E+10	1	-1E+10	1	-1E+10	1	-1E+10	1
4901784	201	C	01/04/2021	10:42	-134.345	43.576	0	117.60	0	9.3940	0	35.6970	8	27.602	0	116.627	0	242.2	4	87.5	4	-1E+10	1	-1E+10	1	-1E+10	1	-1E+10	1	-1E+10	1	-1E+10	1
4901784	201	C	01/04/2021	10:42	-134.345	43.576	0	120.00	0	9.3570	0	35.7020	8	27.612	0	119.007	0	241.4	4	87.1	4	-1E+10	1	-1E+10	1	-1E+10	1	-1E+10	1	-1E+10	1	-1E+10	1
4901784	201	C	01/04/2021	10:42	-134.345	43.576	0	122.40	0	9.3110	0	35.7190	8	27.633	0	121.386	0	239.9	4	86.5	4	-1E+10	1	-1E+10	1	-1E+10	1	-1E+10	1	-1E+10	1	-1E+10	1
4901784	201	C	01/04/2021	10:42	-134.345	43.576	0	124.80	0	9.2700	0	35.7390	8	27.656	0	123.766	0	238.3	4	85.9	4	-1E+10	1	-1E+10	1	-1E+10	1	-1E+10	1	-1E+10	1	-1E+10	1
4901784	201	C	01/04/2021	10:42	-134.345	43.576	0	127.20	0	9.1960	0	35.7510	8	27.677	0	126.145	0	236.6	4	85.1	4	-1E+10	1	-1E+10	1	-1E+10	1	-1E+10	1	-1E+10	1	-1E+10	1
4901784	201	C	01/04/2021	10:42	-134.345	43.576	0	129.70	0	9.1680	0	35.7540	8	27.684	0	128.624	0	234.2	4	84.2	4	-1E+10	1	-1E+10	1	-1E+10	1	-1E+10	1	-1E+10	1	-1E+10	1
4901784	201	C	01/04/2021	10:42	-134.345	43.576	0	132.10	0	9.0710	0	35.7900	8	27.728	0	131.003	0	231.0	4	82.9	4	-1E+10	1	-1E+10	1	-1E+10	1	-1E+10	1	-1E+10	1	-1E+10	1
4901784	201	C	01/04/2021	10:42	-134.345	43.576	0	134.60	0	8.9800	0	35.8420	8	27.784	0	133.481	0	228.1	4	81.7	4	-1E+10	1	-1E+10	1	-1E+10	1	-1E+10	1	-1E+10	1	-1E+10	1
4901784	201	C	01/04/2021	10:42	-134.345	43.576	0	137.20	0	8.8910	0	35.8830	8	27.830	0	136.059	0	225.4	4	80.7	4	-1E+10	1	-1E+10	1	-1E+10	1	-1E+10	1	-1E+10	1	-1E+10	1
4901784	201	C	01/04/2021	10:42	-134.345	43.576	0	139.80	0	8.7840	0	35.9350	8	27.888	0	138.636	0	223.4	4	79.8	4	-1E+10	1	-1E+10	1	-1E+10	1	-1E+10	1	-1E+10	1	-1E+10	1
4901784	201	C	01/04/2021	10:42	-134.345	43.576	0	142.40	0	8.7430	0	35.9610	8	27.915	0	141.214	0	220.9	4	78.8	4	-1E+10	1	-1E+10	1	-1E+10	1	-1E+10	1	-1E+10	1	-1E+10	1
4901784	201	C	01/04/2021	10:42	-134.345	43.576	0	145.10	0	8.7600	0	36.0030	8	27.946	0	143.891	0	217.8	4	77.8	4	-1E+10	1	-1E+10	1	-1E+10	1	-1E+10	1	-1E+10	1	-1E+10	1
4901784	201	C	01/04/2021	10:42	-134.345	43.576	0	147.60	0	8.6650	0	36.0410	8	27.991	0	146.369	0	215.3	4	76.7	4	-1E+10	1	-1E+10	1	-1E+10	1	-1E+10	1	-1E+10	1	-1E+10	1
4901784	201	C	01/04/2021	10:42	-134.345	43.576	0	150.20	0	8.5970	0	36.1010	8	28.049	0	148.946	0	212.3	4	75.6	4	-1E+10	1	-1E+10	1	-1E+10	1	-1E+10	1	-1E+10	1	-1E+10	1
4901784	201	C	01/04/2021	10:42	-134.345	43.576	0	152.70	0	8.5430	0	36.1390	8	28.087	0	151.424	0	209.5	4	74.5	4	-1E+10	1	-1E+10	1	-1E+10	1	-1E+10	1	-1E+10	1	-1E+10	1
4901784	201	C	01/04/2021	10:42	-134.345	43.576	0	155.90	0	8.3800	0	36.2740	8	28.219	0	154.596	0	205.9	4	73.1	4	-1E+10	1	-1E+10	1	-1E+10	1	-1E+10	1	-1E+10	1	-1E+10	1
4901784	201	C	01/04/2021	10:42	-134.345	43.576	0	157.70	0	8.2910	0	36.3380	8	28.283	0	156.381	0	204.5	4	72.4	4	-1E+10	1	-1E+10	1	-1E+10	1	-1E+10	1	-1E+10	1	-1E+10	1
4901784	201	C	01/04/2021	10:42	-134.345	43.576	0	160.10	0	8.2410	0	36.3740	8	28.319	0	158.760	0	203.3	4	72.0	4	-1E+10	1	-1E+10	1	-1E+10	1	-1E+10	1	-1E+10	1	-1E+10	1
4901784	201	C	01/04/2021	10:42	-134.345	43.576	0	162.30	0	8.1940	0	36.4560	8	28.391	0	160.940	0	201.9	4	71.4	4	-1E+10	1	-1E+10	1	-1E+10	1	-1E+10	1	-1E+10	1	-1E+10	1
4901784	201	C	01/04/2021	10:42	-134.345	43.576	0	164.50	0	8.1810	0	36.4820	8	28.413	0	163.121	0	201.3	4	71.2	4	-1E+10	1	-1E+10	1	-1E+10	1	-1E+10	1	-1E+10	1	-1E+10	1
4901784	201	C	01/04/2021	10:42	-134.345	43.576	0	167.60	0	8.1710	0	36.5000	8	28.429	0	166.194	0	200.3	4	70.9	4	-1E+10	1	-1E+10	1	-1E+10	1	-1E+10	1	-1E+10	1	-1E+10	1
4901784	201	C	01/04/2021	10:42	-134.345	43.576	0	170.00	0	8.1600	0	36.5300	8	28.455	0	168.573	0	199.3	4	70.5	4	-1E+10	1	-1E+10	1	-1E+10	1	-1E+10	1	-1E+10	1	-1E+10	1
4901784	201	C	01/04/2021	10:42	-134.345	43.576	0	172.50	0	8.1470	0	36.5780	8	28.494	0	171.051	0	198.8	4	70.3	4	-1E+10	1	-1E+10	1	-1E+10	1	-1E+10	1	-1E+10	1	-1E+10	1
4901784	201	C	01/04/2021	10:42	-134.345	43.576	0	174.90	0	8.1110	0	36.6190	8	28.532	0	173.430	0	198.3	4	70.1	4	-1E+10	1	-1E+10	1	-1E+10	1	-1E+10	1	-1E+10	1	-1E+10	1
4901784	201	C	01/04/2021	10:42	-134.345	43.576	0	177.40	0	8.1200	0	36.6380	8	28.546	0	175.908	0	197.9	4	70.0	4	-1E+10	1	-1E+10	1	-1E+10	1	-1E+10	1	-1E+10	1	-1E+10	1
4901784	201	C	01/04/2021	10:42	-134.345	43.576	0	179.90	0	8.1110	0	36.6580	8	28.563	0	178.385	0	197.7	4	69.9	4	-1E+10	1	-1E+10	1	-1E+10	1	-1E+10	1	-1E+10	1	-1E+10	1
4901784	201	C	01/04/2021	10:42	-134.345	43.576	0	182.40	0	8.0620	0	36.6850	8	28.592	0	180.863	0	197.5	4	69.8	4	-1E+10	1	-1E+10	1	-1E+10	1	-1E+10	1	-1E+10	1	-1E+10	1
4901784	201	C	01/04/2021	10:42	-134.345	43.576	0	184.90	0	8.0480	0	36.7150	8	28.618	0	183.341	0	197.2	4	69.7	4	-1E+10	1	-1E+10	1	-1E+10	1	-1E+10	1	-1E+10	1	-1E+10	1
4901784	201	C	01/04/2021	10:42	-134.345	43.576	0	187.40	0	8.0330	0	36.7470	8	28.645	0	185.819	0	196.8	4	69.5	4	-1E+10	1	-1E+10	1	-1E+10	1	-1E+10	1	-1E+10	1	-1E+10	1
4901784	201	C	01/04/2021	10:42	-134.345	43.576	0	190.00	0	8.0140	0	36.7680	8	28.665	0	188.396	0	196.4	4	69.4	4	-1E+10	1	-1E+10	1	-1E+10	1	-1E+10	1	-1E+10	1	-1E+10	1
4901784	201	C	01/04/2021	10:42	-134.345	43.576	0	192.60	0	7.9930	0	36.7870	8	28.683	0	190.973	0	196.0	4	69.2	4	-1E+10	1	-1E+10	1	-1E+10	1	-1E+10	1	-1E+10	1	-1E+10	1
4901784	201	C	01/04/2021	10:42	-134.345	43.576	0	195.10	0	7.9940	0	36.7990	8	28.692	0	193.450	0	195.4	4	69.0	4	-1E+10	1	-1E+10	1	-1E+10	1	-1E+10	1	-1E+10	1	-1E+10	1
4901784	201	C	01/04/2021	10:42	-134.345	43.576	0	197.70	0	7.9580	0	36.8270	8	28.720	0	196.027	0	195.0	4	68.8	4	-1E+10	1	-1E+10	1	-1E+10	1	-1E+10	1	-1E+10	1	-1E+10	1
4901784	201	C	01/04/2021	10:42	-134.345	43.576	0	200.30	0	7.9330	0	36.8420	8	28.735	0	198.604	0	194.3	4	68.5	4	-1E+10	1	-1E+10	1	-1E+10	1	-1E+10	1	-1E+10	1	-1E+10	1
4901784	201	C	01/04/2021	10:42	-134.345	43.576	0	202.80	0	7.8790	0	36.8660	8	28.763	0	201.081	0	193.5	4	68.2	4	-1E+10	1	-1E+10	1	-1E+10	1	-1E+10	1	-1E+10	1	-1E+10	1
4901784	201	C	01/04/2021	10:42	-134.345	43.576	0	205.90	0	7.7970	0	36.9040	8	28.805	0	204.154	0	191.7	4	67.5	4	-1E+10	1	-1E+10	1	-1E+10	1	-1E+10	1	-1E+10	1	-1E+10	1
4901784	201	C	01/04/2021	10:42	-134.345	43.576	0	207.70	0	7.7830	0	36.9380	8	28.834	0	205.938	0	189.9	4	66.8	4	-1E+10	1	-1E+10	1	-1E+10	1	-1E+10	1	-1E+10	1	-1E+10	1
4901784	201	C	01/04/2021	10:42	-134.345	43.576	0	210.00	0	7.7910	0	36.9840	8	28.869	0	208.217	0	187.8	4	66.1	4	-1E+10	1	-1E+10	1	-1E+10	1	-1E+10	1	-1E+10	1	-1E+10	1
4901784	201	C	01/04/2021	10:42	-134.345	43.576	0	212.30	0	7.7770	0	37.0200	8	28.899	0	210.496	0	186.9	4	65.8	4	-1E+10	1	-1E+10	1	-1E+10	1	-1E+10	1	-1E+10	1	-1E+10	1
4901784	201	C	01/04/2021	10:42	-134.345	43.576	0	214.70	0	7.7760	0	37.0420	8	28.917	0	212.874	0	186.1	4	65.5	4	-1E+10	1	-1E+10	1	-1E+10	1	-1E+10	1	-1E+10	1	-1E+10	1
4901784	201	C	01/04/2021	10:42	-134.345	43.576	0	217.20	0	7.7730	0	37.0500	8	28.924	0	215.352	0	185.4	4	65.3	4	-1E+10	1	-1E+10	1	-1E+10	1	-1E+10	1	-1E+10	1	-1E+10	1
4901784	201	C	01/04/2021	10:42	-134.345	43.576	0	219.70	0	7.7690	0	37.0590	8	28.931	0	217.829	0	184.6	4	65.0	4	-1E+10	1	-1E+10	1	-1E+10	1	-1E+10	1	-1E+10	1	-1E+10	1
4901784	201	C	01/04/2021	10:42	-134.345	43.576	0	222.20	0	7.7680	0	37.0780	8	28.947	0	220.307	0	183.8	4	64.7	4	-1E+10	1	-1E+10	1	-1E+10	1	-1E+10	1	-1E+10	1	-1E+10	1
4901784	201	C	01/04/2021	10:42	-134.345	43.576	0	224.70	0	7.7480	0	37.0920	8	28.961	0	222.784	0	182.5	4	64.2	4	-1E+10	1	-1E+10	1	-1E+10	1	-1E+10	1	-1E+10	1	-1E+10	1
4901784	201	C	01/04/2021	10:42	-134.345	43.576	0	227.20	0	7.7280	0	37.0950	8	28.966	0	225.261	0	181.4	4	63.8	4	-1E+10	1	-1E+10	1	-1E+10	1	-1E+10	1	-1E+10	1	-1E+10	1
4901784	201	C	01/04/2021	10:42	-134.345	43.576	0	229.70	0	7.6570	0	37.1050	8	28.985	0	227.739	0	179.8	4	63.1	4	-1E+10	1	-1E+10	1	-1E+10	1	-1E+10	1	-1E+10	1	-1E+10	1
4901784	201	C	01/04/2021	10:42	-134.345	43.576	0	232.20	0	7.6320	0	37.1150	8	28.996	0	230.216	0	177.6	4	62.3	4	-1E+10	1	-1E+10	1	-1E+10	1	-1E+10	1	-1E+10	1	-1E+10	1
4901784	201	C	01/04/2021	10:42	-134.345	43.576	0	234.80	0	7.6270	0	37.1220	8	29.003	0	232.792	0	174.9	4	61.4	4	-1E+10	1	-1E+10	1	-1E+10	1	-1E+10	1	-1E+10	1	-1E+10	1
4901784	201	C	01/04/2021	10:42	-134.345	43.576	0	237.40	0	7.6050	0	37.1300	8	29.012	0	235.369	0	171.4	4	60.1	4	-1E+10	1	-1E+10	1	-1E+10	1	-1E+10	1	-1E+10	1	-1E+10	1
4901784	201	C	01/04/2021	10:42	-134.345	43.576	0	240.00	0	7.5120	0	37.1500	8	29.042	0	237.945	0	168.2	4	58.9	4	-1E+10	1	-1E+10	1	-1E+10	1	-1E+10	1	-1E+10	1	-1E+10	1
4901784	201	C	01/04/2021	10:42	-134.345	43.576	0	242.50	0	7.4970	0	37.1590	8	29.052	0	240.422	0	166.3	4	58.2	4	-1E+10	1	-1E+10	1	-1E+10	1	-1E+10	1	-1E+10	1	-1E+10	1
4901784	201	C	01/04/2021	10:42	-134.345	43.576	0	245.10	0	7.4890	0	37.1700	8	29.061	0	242.998	0	164.4	4	57.6	4	-1E+10	1	-1E+10	1	-1E+10	1	-1E+10	1	-1E+10	1	-1E+10	1
4901784	201	C	01/04/2021	10:42	-134.345	43.576	0	247.70	0	7.4900	0	37.1780	8	29.068	0	245.574	0	162.7	4	57.0	4	-1E+10	1	-1E+10	1	-1E+10	1	-1E+10	1	-1E+10	1	-1E+10	1
4901784	201	C	01/04/2021	10:42	-134.345	43.576	0	250.30	0	7.4570	0	37.1840	8	29.077	0	248.150	0	161.1	4	56.4	4	-1E+10	1	-1E+10	1	-1E+10	1	-1E+10	1	-1E+10	1	-1E+10	1
4901784	201	C	01/04/2021	10:42	-134.345	43.576	0	253.00	0	7.3990	0	37.1920	8	29.092	0	250.826	0	159.2	4	55.6	4	-1E+10	1	-1E+10	1	-1E+10	1	-1E+10	1	-1E+10	1	-1E+10	1
4901784	201	C	01/04/2021	10:42	-134.345	43.576	0	254.80	0	7.3800	0	37.1940	8	29.097	0	252.609	0	158.4	4	55.3	4	-1E+10	1	-1E+10	1	-1E+10	1	-1E+10	1	-1E+10	1	-1E+10	1
4901784	201	C	01/04/2021	10:42	-134.345	43.576	0	257.50	0	7.3300	0	37.1980	8	29.107	0	255.284	0	157.1	4	54.8	4	-1E+10	1	-1E+10	1	-1E+10	1	-1E+10	1	-1E+10	1	-1E+10	1
4901784	201	C	01/04/2021	10:42	-134.345	43.576	0	260.20	0	7.2690	0	37.1980	8	29.116	0	257.959	0	155.9	4	54.3	4	-1E+10	1	-1E+10	1	-1E+10	1	-1E+10	1	-1E+10	1	-1E+10	1
4901784	201	C	01/04/2021	10:42	-134.345	43.576	0	262.00	0	7.2390	0	37.2020	8	29.124	0	259.743	0	154.9	4	53.9	4	-1E+10	1	-1E+10	1	-1E+10	1	-1E+10	1	-1E+10	1	-1E+10	1
4901784	201	C	01/04/2021	10:42	-134.345	43.576	0	264.70	0	7.2030	0	37.2050	8	29.132	0	262.418	0	153.6	4	53.4	4	-1E+10	1	-1E+10	1	-1E+10	1	-1E+10	1	-1E+10	1	-1E+10	1
4901784	201	C	01/04/2021	10:42	-134.345	43.576	0	267.50	0	7.1400	0	37.2090	8	29.144	0	265.192	0	152.8	4	53.1	4	-1E+10	1	-1E+10	1	-1E+10	1	-1E+10	1	-1E+10	1	-1E+10	1
4901784	201	C	01/04/2021	10:42	-134.345	43.576	0	270.30	0	7.1120	0	37.2130	8	29.151	0	267.966	0	151.9	4	52.7	4	-1E+10	1	-1E+10	1	-1E+10	1	-1E+10	1	-1E+10	1	-1E+10	1
4901784	201	C	01/04/2021	10:42	-134.345	43.576	0	273.00	0	7.1080	0	37.2120	8	29.151	0	270.641	0	150.9	4	52.4	4	-1E+10	1	-1E+10	1	-1E+10	1	-1E+10	1	-1E+10	1	-1E+10	1
4901784	201	C	01/04/2021	10:42	-134.345	43.576	0	274.80	0	7.1030	0	37.2100	8	29.150	0	272.424	0	150.0	4	52.1	4	-1E+10	1	-1E+10	1	-1E+10	1	-1E+10	1	-1E+10	1	-1E+10	1
4901784	201	C	01/04/2021	10:42	-134.345	43.576	0	277.50	0	7.0330	0	37.2170	8	29.166	0	275.099	0	148.6	4	51.5	4	-1E+10	1	-1E+10	1	-1E+10	1	-1E+10	1	-1E+10	1	-1E+10	1
4901784	201	C	01/04/2021	10:42	-134.345	43.576	0	280.20	0	6.9820	0	37.2200	8	29.176	0	277.774	0	147.7	4	51.1	4	-1E+10	1	-1E+10	1	-1E+10	1	-1E+10	1	-1E+10	1	-1E+10	1
4901784	201	C	01/04/2021	10:42	-134.345	43.576	0	282.00	0	6.9660	0	37.2200	8	29.178	0	279.557	0	147.2	4	50.9	4	-1E+10	1	-1E+10	1	-1E+10	1	-1E+10	1	-1E+10	1	-1E+10	1
4901784	201	C	01/04/2021	10:42	-134.345	43.576	0	284.80	0	6.9530	0	37.2180	8	29.178	0	282.331	0	145.8	4	50.5	4	-1E+10	1	-1E+10	1	-1E+10	1	-1E+10	1	-1E+10	1	-1E+10	1
4901784	201	C	01/04/2021	10:42	-134.345	43.576	0	287.50	0	6.9060	0	37.2200	8	29.187	0	285.005	0	144.3	4	49.9	4	-1E+10	1	-1E+10	1	-1E+10	1	-1E+10	1	-1E+10	1	-1E+10	1
4901784	201	C	01/04/2021	10:42	-134.345	43.576	0	290.20	0	6.8800	0	37.2200	8	29.191	0	287.680	0	142.7	4	49.3	4	-1E+10	1	-1E+10	1	-1E+10	1	-1E+10	1	-1E+10	1	-1E+10	1
4901784	201	C	01/04/2021	10:42	-134.345	43.576	0	293.00	0	6.8390	0	37.2210	8	29.197	0	290.454	0	141.4	4	48.8	4	-1E+10	1	-1E+10	1	-1E+10	1	-1E+10	1	-1E+10	1	-1E+10	1
4901784	201	C	01/04/2021	10:42	-134.345	43.576	0	294.80	0	6.7790	0	37.2220	8	29.207	0	292.237	0	141.1	4	48.6	4	-1E+10	1	-1E+10	1	-1E+10	1	-1E+10	1	-1E+10	1	-1E+10	1
4901784	201	C	01/04/2021	10:42	-134.345	43.576	0	297.60	0	6.7180	0	37.2260	8	29.218	0	295.011	0	140.3	4	48.3	4	-1E+10	1	-1E+10	1	-1E+10	1	-1E+10	1	-1E+10	1	-1E+10	1
4901784	201	C	01/04/2021	10:42	-134.345	43.576	0	300.40	0	6.6950	0	37.2240	8	29.220	0	297.784	0	138.8	4	47.8	4	-1E+10	1	-1E+10	1	-1E+10	1	-1E+10	1	-1E+10	1	-1E+10	1
4901784	201	C	01/04/2021	10:42	-134.345	43.576	0	302.30	0	6.6340	0	37.2290	8	29.233	0	299.666	0	137.8	4	47.3	4	-1E+10	1	-1E+10	1	-1E+10	1	-1E+10	1	-1E+10	1	-1E+10	1
4901784	201	C	01/04/2021	10:42	-134.345	43.576	0	305.10	0	6.6090	0	37.2280	8	29.235	0	302.440	0	136.5	4	46.9	4	-1E+10	1	-1E+10	1	-1E+10	1	-1E+10	1	-1E+10	1	-1E+10	1
4901784	201	C	01/04/2021	10:42	-134.345	43.576	0	307.90	0	6.5880	0	37.2280	8	29.238	0	305.213	0	135.0	4	46.3	4	-1E+10	1	-1E+10	1	-1E+10	1	-1E+10	1	-1E+10	1	-1E+10	1
4901784	201	C	01/04/2021	10:42	-134.345	43.576	0	309.70	0	6.5680	0	37.2270	8	29.240	0	306.996	0	134.0	4	46.0	4	-1E+10	1	-1E+10	1	-1E+10	1	-1E+10	1	-1E+10	1	-1E+10	1
4901784	201	C	01/04/2021	10:42	-134.345	43.576	0	312.50	0	6.5090	0	37.2280	8	29.249	0	309.770	0	132.1	4	45.3	4	-1E+10	1	-1E+10	1	-1E+10	1	-1E+10	1	-1E+10	1	-1E+10	1
4901784	201	C	01/04/2021	10:42	-134.345	43.576	0	315.30	0	6.4420	0	37.2300	8	29.260	0	312.543	0	130.4	4	44.6	4	-1E+10	1	-1E+10	1	-1E+10	1	-1E+10	1	-1E+10	1	-1E+10	1
4901784	201	C	01/04/2021	10:42	-134.345	43.576	0	317.30	0	6.4070	0	37.2330	8	29.268	0	314.524	0	129.4	4	44.2	4	-1E+10	1	-1E+10	1	-1E+10	1	-1E+10	1	-1E+10	1	-1E+10	1
4901784	201	C	01/04/2021	10:42	-134.345	43.576	0	320.10	0	6.3690	0	37.2340	8	29.274	0	317.298	0	127.8	4	43.6	4	-1E+10	1	-1E+10	1	-1E+10	1	-1E+10	1	-1E+10	1	-1E+10	1
4901784	201	C	01/04/2021	10:42	-134.345	43.576	0	322.90	0	6.3260	0	37.2360	8	29.281	0	320.071	0	125.5	4	42.8	4	-1E+10	1	-1E+10	1	-1E+10	1	-1E+10	1	-1E+10	1	-1E+10	1
4901784	201	C	01/04/2021	10:42	-134.345	43.576	0	324.80	0	6.3190	0	37.2380	8	29.284	0	321.953	0	123.9	4	42.3	4	-1E+10	1	-1E+10	1	-1E+10	1	-1E+10	1	-1E+10	1	-1E+10	1
4901784	201	C	01/04/2021	10:42	-134.345	43.576	0	327.60	0	6.2550	0	37.2410	8	29.295	0	324.726	0	122.5	4	41.7	4	-1E+10	1	-1E+10	1	-1E+10	1	-1E+10	1	-1E+10	1	-1E+10	1
4901784	201	C	01/04/2021	10:42	-134.345	43.576	0	330.50	0	6.2420	0	37.2400	8	29.296	0	327.598	0	121.0	4	41.2	4	-1E+10	1	-1E+10	1	-1E+10	1	-1E+10	1	-1E+10	1	-1E+10	1
4901784	201	C	01/04/2021	10:42	-134.345	43.576	0	332.50	0	6.1970	0	37.2410	8	29.303	0	329.579	0	119.9	4	40.8	4	-1E+10	1	-1E+10	1	-1E+10	1	-1E+10	1	-1E+10	1	-1E+10	1
4901784	201	C	01/04/2021	10:42	-134.345	43.576	0	334.40	0	6.1770	0	37.2430	8	29.307	0	331.461	0	118.9	4	40.4	4	-1E+10	1	-1E+10	1	-1E+10	1	-1E+10	1	-1E+10	1	-1E+10	1
4901784	201	C	01/04/2021	10:42	-134.345	43.576	0	337.40	0	6.1450	0	37.2490	8	29.316	0	334.432	0	117.4	4	39.9	4	-1E+10	1	-1E+10	1	-1E+10	1	-1E+10	1	-1E+10	1	-1E+10	1
4901784	201	C	01/04/2021	10:42	-134.345	43.576	0	340.30	0	6.1300	0	37.2520	8	29.321	0	337.304	0	116.6	4	39.6	4	-1E+10	1	-1E+10	1	-1E+10	1	-1E+10	1	-1E+10	1	-1E+10	1
4901784	201	C	01/04/2021	10:42	-134.345	43.576	0	342.30	0	6.1340	0	37.2510	8	29.319	0	339.285	0	116.0	4	39.4	4	-1E+10	1	-1E+10	1	-1E+10	1	-1E+10	1	-1E+10	1	-1E+10	1
4901784	201	C	01/04/2021	10:42	-134.345	43.576	0	344.20	0	6.1330	0	37.2520	8	29.320	0	341.167	0	115.3	4	39.2	4	-1E+10	1	-1E+10	1	-1E+10	1	-1E+10	1	-1E+10	1	-1E+10	1
4901784	201	C	01/04/2021	10:42	-134.345	43.576	0	347.40	0	6.1040	0	37.2540	8	29.326	0	344.336	0	114.4	4	38.8	4	-1E+10	1	-1E+10	1	-1E+10	1	-1E+10	1	-1E+10	1	-1E+10	1
4901784	201	C	01/04/2021	10:42	-134.345	43.576	0	350.30	0	6.1000	0	37.2530	8	29.326	0	347.208	0	113.2	4	38.4	4	-1E+10	1	-1E+10	1	-1E+10	1	-1E+10	1	-1E+10	1	-1E+10	1
4901784	201	C	01/04/2021	10:42	-134.345	43.576	0	352.80	0	6.0780	0	37.2540	8	29.329	0	349.684	0	112.7	4	38.2	4	-1E+10	1	-1E+10	1	-1E+10	1	-1E+10	1	-1E+10	1	-1E+10	1
4901784	201	C	01/04/2021	10:42	-134.345	43.576	0	355.20	0	6.0370	0	37.2510	8	29.332	0	352.060	0	111.8	4	37.9	4	-1E+10	1	-1E+10	1	-1E+10	1	-1E+10	1	-1E+10	1	-1E+10	1
4901784	201	C	01/04/2021	10:42	-134.345	43.576	0	357.70	0	5.9940	0	37.2490	8	29.337	0	354.536	0	110.1	4	37.3	4	-1E+10	1	-1E+10	1	-1E+10	1	-1E+10	1	-1E+10	1	-1E+10	1
4901784	201	C	01/04/2021	10:42	-134.345	43.576	0	360.10	0	5.9100	0	37.2500	8	29.349	0	356.913	0	108.4	4	36.6	4	-1E+10	1	-1E+10	1	-1E+10	1	-1E+10	1	-1E+10	1	-1E+10	1
4901784	201	C	01/04/2021	10:42	-134.345	43.576	0	362.50	0	5.8710	0	37.2550	8	29.358	0	359.290	0	107.4	4	36.3	4	-1E+10	1	-1E+10	1	-1E+10	1	-1E+10	1	-1E+10	1	-1E+10	1
4901784	201	C	01/04/2021	10:42	-134.345	43.576	0	364.90	0	5.8510	0	37.2580	8	29.363	0	361.666	0	106.6	4	36.0	4	-1E+10	1	-1E+10	1	-1E+10	1	-1E+10	1	-1E+10	1	-1E+10	1
4901784	201	C	01/04/2021	10:42	-134.345	43.576	0	367.30	0	5.8480	0	37.2600	8	29.365	0	364.043	0	105.4	4	35.6	4	-1E+10	1	-1E+10	1	-1E+10	1	-1E+10	1	-1E+10	1	-1E+10	1
4901784	201	C	01/04/2021	10:42	-134.345	43.576	0	369.80	0	5.8410	0	37.2610	8	29.367	0	366.519	0	103.9	4	35.1	4	-1E+10	1	-1E+10	1	-1E+10	1	-1E+10	1	-1E+10	1	-1E+10	1
4901784	201	C	01/04/2021	10:42	-134.345	43.576	0	372.30	0	5.8230	0	37.2640	8	29.371	0	368.994	0	102.0	4	34.4	4	-1E+10	1	-1E+10	1	-1E+10	1	-1E+10	1	-1E+10	1	-1E+10	1
4901784	201	C	01/04/2021	10:42	-134.345	43.576	0	374.70	0	5.8030	0	37.2660	8	29.376	0	371.371	0	99.7	4	33.6	4	-1E+10	1	-1E+10	1	-1E+10	1	-1E+10	1	-1E+10	1	-1E+10	1
4901784	201	C	01/04/2021	10:42	-134.345	43.576	0	377.30	0	5.8130	0	37.2720	8	29.379	0	373.945	0	97.6	4	32.9	4	-1E+10	1	-1E+10	1	-1E+10	1	-1E+10	1	-1E+10	1	-1E+10	1
4901784	201	C	01/04/2021	10:42	-134.345	43.576	0	379.80	0	5.7850	0	37.2730	8	29.384	0	376.421	0	96.6	4	32.6	4	-1E+10	1	-1E+10	1	-1E+10	1	-1E+10	1	-1E+10	1	-1E+10	1
4901784	201	C	01/04/2021	10:42	-134.345	43.576	0	382.30	0	5.7720	0	37.2740	8	29.386	0	378.896	0	96.3	4	32.4	4	-1E+10	1	-1E+10	1	-1E+10	1	-1E+10	1	-1E+10	1	-1E+10	1
4901784	201	C	01/04/2021	10:42	-134.345	43.576	0	384.80	0	5.7260	0	37.2720	8	29.390	0	381.372	0	96.4	4	32.4	4	-1E+10	1	-1E+10	1	-1E+10	1	-1E+10	1	-1E+10	1	-1E+10	1
4901784	201	C	01/04/2021	10:42	-134.345	43.576	0	387.30	0	5.6740	0	37.2730	8	29.398	0	383.847	0	96.1	4	32.3	4	-1E+10	1	-1E+10	1	-1E+10	1	-1E+10	1	-1E+10	1	-1E+10	1
4901784	201	C	01/04/2021	10:42	-134.345	43.576	0	389.90	0	5.6370	0	37.2730	8	29.403	0	386.421	0	95.3	4	32.0	4	-1E+10	1	-1E+10	1	-1E+10	1	-1E+10	1	-1E+10	1	-1E+10	1
4901784	201	C	01/04/2021	10:42	-134.345	43.576	0	392.50	0	5.6250	0	37.2730	8	29.404	0	388.996	0	94.1	4	31.6	4	-1E+10	1	-1E+10	1	-1E+10	1	-1E+10	1	-1E+10	1	-1E+10	1
4901784	201	C	01/04/2021	10:42	-134.345	43.576	0	395.00	0	5.6030	0	37.2760	8	29.410	0	391.471	0	93.0	4	31.2	4	-1E+10	1	-1E+10	1	-1E+10	1	-1E+10	1	-1E+10	1	-1E+10	1
4901784	201	C	01/04/2021	10:42	-134.345	43.576	0	397.50	0	5.5700	0	37.2790	8	29.416	0	393.946	0	92.5	4	31.0	4	-1E+10	1	-1E+10	1	-1E+10	1	-1E+10	1	-1E+10	1	-1E+10	1
4901784	201	C	01/04/2021	10:42	-134.345	43.576	0	400.00	0	5.5480	0	37.2790	8	29.419	0	396.422	0	92.0	4	30.8	4	-1E+10	1	-1E+10	1	-1E+10	1	-1E+10	1	-1E+10	1	-1E+10	1
4901784	201	C	01/04/2021	10:42	-134.345	43.576	0	402.60	0	5.5290	0	37.2780	8	29.421	0	398.996	0	91.3	4	30.6	4	-1E+10	1	-1E+10	1	-1E+10	1	-1E+10	1	-1E+10	1	-1E+10	1
4901784	201	C	01/04/2021	10:42	-134.345	43.576	0	405.20	0	5.4940	0	37.2790	8	29.426	0	401.570	0	90.2	4	30.2	4	-1E+10	1	-1E+10	1	-1E+10	1	-1E+10	1	-1E+10	1	-1E+10	1
4901784	201	C	01/04/2021	10:42	-134.345	43.576	0	407.90	0	5.4690	0	37.2800	8	29.430	0	404.243	0	88.7	4	29.7	4	-1E+10	1	-1E+10	1	-1E+10	1	-1E+10	1	-1E+10	1	-1E+10	1
4901784	201	C	01/04/2021	10:42	-134.345	43.576	0	410.40	0	5.4400	0	37.2840	8	29.437	0	406.718	0	86.9	4	29.0	4	-1E+10	1	-1E+10	1	-1E+10	1	-1E+10	1	-1E+10	1	-1E+10	1
4901784	201	C	01/04/2021	10:42	-134.345	43.576	0	412.10	0	5.4280	0	37.2840	8	29.439	0	408.402	0	85.6	4	28.6	4	-1E+10	1	-1E+10	1	-1E+10	1	-1E+10	1	-1E+10	1	-1E+10	1
4901784	201	C	01/04/2021	10:42	-134.345	43.576	0	414.70	0	5.4150	0	37.2900	8	29.445	0	410.976	0	83.0	4	27.7	4	-1E+10	1	-1E+10	1	-1E+10	1	-1E+10	1	-1E+10	1	-1E+10	1
4901784	201	C	01/04/2021	10:42	-134.345	43.576	0	417.30	0	5.4270	0	37.2950	8	29.447	0	413.550	0	81.0	4	27.1	4	-1E+10	1	-1E+10	1	-1E+10	1	-1E+10	1	-1E+10	1	-1E+10	1
4901784	201	C	01/04/2021	10:42	-134.345	43.576	0	419.90	0	5.4280	0	37.2970	8	29.449	0	416.124	0	79.4	4	26.5	4	-1E+10	1	-1E+10	1	-1E+10	1	-1E+10	1	-1E+10	1	-1E+10	1
4901784	201	C	01/04/2021	10:42	-134.345	43.576	0	422.40	0	5.4200	0	37.3020	8	29.454	0	418.599	0	78.0	4	26.1	4	-1E+10	1	-1E+10	1	-1E+10	1	-1E+10	1	-1E+10	1	-1E+10	1
4901784	201	C	01/04/2021	10:42	-134.345	43.576	0	425.00	0	5.4140	0	37.3010	8	29.454	0	421.173	0	77.2	4	25.8	4	-1E+10	1	-1E+10	1	-1E+10	1	-1E+10	1	-1E+10	1	-1E+10	1
4901784	201	C	01/04/2021	10:42	-134.345	43.576	0	427.70	0	5.3930	0	37.3040	8	29.459	0	423.846	0	76.7	4	25.6	4	-1E+10	1	-1E+10	1	-1E+10	1	-1E+10	1	-1E+10	1	-1E+10	1
4901784	201	C	01/04/2021	10:42	-134.345	43.576	0	430.30	0	5.3790	0	37.3020	8	29.459	0	426.419	0	76.8	4	25.6	4	-1E+10	1	-1E+10	1	-1E+10	1	-1E+10	1	-1E+10	1	-1E+10	1
4901784	201	C	01/04/2021	10:42	-134.345	43.576	0	432.90	0	5.3550	0	37.2980	8	29.459	0	428.993	0	77.1	4	25.7	4	-1E+10	1	-1E+10	1	-1E+10	1	-1E+10	1	-1E+10	1	-1E+10	1
4901784	201	C	01/04/2021	10:42	-134.345	43.576	0	434.70	0	5.2730	0	37.3000	8	29.471	0	430.775	0	77.4	4	25.8	4	-1E+10	1	-1E+10	1	-1E+10	1	-1E+10	1	-1E+10	1	-1E+10	1
4901784	201	C	01/04/2021	10:42	-134.345	43.576	0	437.40	0	5.2240	0	37.2980	8	29.476	0	433.448	0	77.4	4	25.7	4	-1E+10	1	-1E+10	1	-1E+10	1	-1E+10	1	-1E+10	1	-1E+10	1
4901784	201	C	01/04/2021	10:42	-134.345	43.576	0	440.10	0	5.1610	0	37.2980	8	29.483	0	436.121	0	76.8	4	25.5	4	-1E+10	1	-1E+10	1	-1E+10	1	-1E+10	1	-1E+10	1	-1E+10	1
4901784	201	C	01/04/2021	10:42	-134.345	43.576	0	442.80	0	5.1420	0	37.2990	8	29.487	0	438.794	0	75.8	4	25.2	4	-1E+10	1	-1E+10	1	-1E+10	1	-1E+10	1	-1E+10	1	-1E+10	1
4901784	201	C	01/04/2021	10:42	-134.345	43.576	0	445.40	0	5.1270	0	37.3000	8	29.489	0	441.367	0	74.9	4	24.9	4	-1E+10	1	-1E+10	1	-1E+10	1	-1E+10	1	-1E+10	1	-1E+10	1
4901784	201	C	01/04/2021	10:42	-134.345	43.576	0	447.30	0	5.1250	0	37.3010	8	29.490	0	443.248	0	74.6	4	24.7	4	-1E+10	1	-1E+10	1	-1E+10	1	-1E+10	1	-1E+10	1	-1E+10	1
4901784	201	C	01/04/2021	10:42	-134.345	43.576	0	450.00	0	5.1150	0	37.3000	8	29.491	0	445.921	0	73.8	4	24.5	4	-1E+10	1	-1E+10	1	-1E+10	1	-1E+10	1	-1E+10	1	-1E+10	1
4901784	201	C	01/04/2021	10:42	-134.345	43.576	0	452.70	0	5.0880	0	37.2980	8	29.493	0	448.593	0	72.9	4	24.2	4	-1E+10	1	-1E+10	1	-1E+10	1	-1E+10	1	-1E+10	1	-1E+10	1
4901784	201	C	01/04/2021	10:42	-134.345	43.576	0	454.50	0	5.0850	0	37.3000	8	29.495	0	450.375	0	72.0	4	23.9	4	-1E+10	1	-1E+10	1	-1E+10	1	-1E+10	1	-1E+10	1	-1E+10	1
4901784	201	C	01/04/2021	10:42	-134.345	43.576	0	457.20	0	5.0620	0	37.3020	8	29.499	0	453.048	0	70.6	4	23.4	4	-1E+10	1	-1E+10	1	-1E+10	1	-1E+10	1	-1E+10	1	-1E+10	1
4901784	201	C	01/04/2021	10:42	-134.345	43.576	0	460.00	0	5.0530	0	37.3030	8	29.501	0	455.819	0	69.4	4	23.0	4	-1E+10	1	-1E+10	1	-1E+10	1	-1E+10	1	-1E+10	1	-1E+10	1
4901784	201	C	01/04/2021	10:42	-134.345	43.576	0	462.70	0	5.0650	0	37.3030	8	29.499	0	458.492	0	67.7	4	22.4	4	-1E+10	1	-1E+10	1	-1E+10	1	-1E+10	1	-1E+10	1	-1E+10	1
4901784	201	C	01/04/2021	10:42	-134.345	43.576	0	465.50	0	5.0840	0	37.3030	8	29.497	0	461.263	0	66.4	4	22.0	4	-1E+10	1	-1E+10	1	-1E+10	1	-1E+10	1	-1E+10	1	-1E+10	1
4901784	201	C	01/04/2021	10:42	-134.345	43.576	0	467.40	0	5.0540	0	37.3010	8	29.499	0	463.144	0	65.7	4	21.8	4	-1E+10	1	-1E+10	1	-1E+10	1	-1E+10	1	-1E+10	1	-1E+10	1
4901784	201	C	01/04/2021	10:42	-134.345	43.576	0	470.10	0	5.0640	8	37.2770	8	29.479	0	465.816	0	64.4	4	21.3	4	-1E+10	1	-1E+10	1	-1E+10	1	-1E+10	1	-1E+10	1	-1E+10	1
4901784	201	C	01/04/2021	10:42	-134.345	43.576	0	472.90	0	5.0650	8	37.2360	8	29.446	0	468.587	0	63.1	4	20.9	4	-1E+10	1	-1E+10	1	-1E+10	1	-1E+10	1	-1E+10	1	-1E+10	1
4901784	201	C	01/04/2021	10:42	-134.345	43.576	0	474.70	0	5.0500	8	37.1880	8	29.410	0	470.369	0	62.5	4	20.7	4	-1E+10	1	-1E+10	1	-1E+10	1	-1E+10	1	-1E+10	1	-1E+10	1
4901784	201	C	01/04/2021	10:42	-134.345	43.576	0	477.60	0	5.0070	8	37.1430	8	29.380	0	473.239	0	61.5	4	20.3	4	-1E+10	1	-1E+10	1	-1E+10	1	-1E+10	1	-1E+10	1	-1E+10	1
4901784	201	C	01/04/2021	10:42	-134.345	43.576	0	480.40	0	4.9800	8	37.0670	8	29.323	0	476.010	0	61.0	4	20.2	4	-1E+10	1	-1E+10	1	-1E+10	1	-1E+10	1	-1E+10	1	-1E+10	1
4901784	201	C	01/04/2021	10:42	-134.345	43.576	0	482.20	0	4.9710	8	36.9900	8	29.263	0	477.792	0	60.7	4	20.0	4	-1E+10	1	-1E+10	1	-1E+10	1	-1E+10	1	-1E+10	1	-1E+10	1
4901784	201	C	01/04/2021	10:42	-134.345	43.576	0	485.00	0	4.9460	8	36.9370	8	29.224	0	480.563	0	60.1	4	19.8	4	-1E+10	1	-1E+10	1	-1E+10	1	-1E+10	1	-1E+10	1	-1E+10	1
4901784	201	C	01/04/2021	10:42	-134.345	43.576	0	487.80	0	4.9230	8	36.8890	8	29.188	0	483.334	0	59.2	4	19.5	4	-1E+10	1	-1E+10	1	-1E+10	1	-1E+10	1	-1E+10	1	-1E+10	1
4901784	201	C	01/04/2021	10:42	-134.345	43.576	0	489.70	0	4.9080	0	36.8910	8	29.192	0	485.214	0	58.7	4	19.3	4	-1E+10	1	-1E+10	1	-1E+10	1	-1E+10	1	-1E+10	1	-1E+10	1
4901784	201	C	01/04/2021	10:42	-134.345	43.576	0	492.50	0	4.8800	0	36.8620	8	29.172	0	487.986	0	57.8	4	19.0	4	-1E+10	1	-1E+10	1	-1E+10	1	-1E+10	1	-1E+10	1	-1E+10	1
4901784	201	C	01/04/2021	10:42	-134.345	43.576	0	495.30	0	4.8580	0	36.8390	8	29.156	0	490.757	0	57.3	4	18.8	4	-1E+10	1	-1E+10	1	-1E+10	1	-1E+10	1	-1E+10	1	-1E+10	1
4901784	201	C	01/04/2021	10:42	-134.345	43.576	0	497.10	0	4.8410	0	36.8180	8	29.142	0	492.538	0	57.1	4	18.8	4	-1E+10	1	-1E+10	1	-1E+10	1	-1E+10	1	-1E+10	1	-1E+10	1
4901784	201	C	01/04/2021	10:42	-134.345	43.576	0	499.90	0	4.8130	0	36.8120	8	29.140	0	495.309	0	56.7	4	18.6	4	-1E+10	1	-1E+10	1	-1E+10	1	-1E+10	1	-1E+10	1	-1E+10	1
4901784	201	C	01/04/2021	10:42	-134.345	43.576	0	504.50	0	4.7800	0	36.7730	8	29.113	0	499.861	0	55.5	4	18.2	4	-1E+10	1	-1E+10	1	-1E+10	1	-1E+10	1	-1E+10	1	-1E+10	1
4901784	201	C	01/04/2021	10:42	-134.345	43.576	0	510.20	0	4.7570	0	36.7480	8	29.096	0	505.502	0	54.1	4	17.7	4	-1E+10	1	-1E+10	1	-1E+10	1	-1E+10	1	-1E+10	1	-1E+10	1
4901784	201	C	01/04/2021	10:42	-134.345	43.576	0	514.80	0	4.7310	0	36.7350	8	29.089	0	510.054	0	53.0	4	17.4	4	-1E+10	1	-1E+10	1	-1E+10	1	-1E+10	1	-1E+10	1	-1E+10	1
4901784	201	C	01/04/2021	10:42	-134.345	43.576	0	519.60	0	4.6560	0	36.7310	8	29.095	0	514.804	0	52.5	4	17.2	4	-1E+10	1	-1E+10	1	-1E+10	1	-1E+10	1	-1E+10	1	-1E+10	1
4901784	201	C	01/04/2021	10:42	-134.345	43.576	0	525.30	0	4.6130	0	36.7310	8	29.100	0	520.444	0	51.8	4	16.9	4	-1E+10	1	-1E+10	1	-1E+10	1	-1E+10	1	-1E+10	1	-1E+10	1
4901784	201	C	01/04/2021	10:42	-134.345	43.576	0	530.00	0	4.6070	0	36.7300	8	29.100	0	525.094	0	50.5	4	16.5	4	-1E+10	1	-1E+10	1	-1E+10	1	-1E+10	1	-1E+10	1	-1E+10	1
4901784	201	C	01/04/2021	10:42	-134.345	43.576	0	534.90	0	4.5950	0	36.7370	8	29.107	0	529.943	0	48.6	4	15.9	4	-1E+10	1	-1E+10	1	-1E+10	1	-1E+10	1	-1E+10	1	-1E+10	1
4901784	201	C	01/04/2021	10:42	-134.345	43.576	0	539.70	0	4.5800	0	36.7440	8	29.114	0	534.692	0	47.2	4	15.4	4	-1E+10	1	-1E+10	1	-1E+10	1	-1E+10	1	-1E+10	1	-1E+10	1
4901784	201	C	01/04/2021	10:42	-134.345	43.576	0	544.40	0	4.5680	0	36.7480	8	29.119	0	539.342	0	45.6	4	14.9	4	-1E+10	1	-1E+10	1	-1E+10	1	-1E+10	1	-1E+10	1	-1E+10	1
4901784	201	C	01/04/2021	10:42	-134.345	43.576	0	549.90	0	4.5660	0	36.7550	8	29.124	0	544.784	0	43.1	4	14.1	4	-1E+10	1	-1E+10	1	-1E+10	1	-1E+10	1	-1E+10	1	-1E+10	1
4901784	201	C	01/04/2021	10:42	-134.345	43.576	0	554.30	0	4.5490	0	36.7640	8	29.134	0	549.137	0	41.4	4	13.5	4	-1E+10	1	-1E+10	1	-1E+10	1	-1E+10	1	-1E+10	1	-1E+10	1
4901784	201	C	01/04/2021	10:42	-134.345	43.576	0	559.90	0	4.5050	0	36.7730	8	29.146	0	554.678	0	39.3	4	12.8	4	-1E+10	1	-1E+10	1	-1E+10	1	-1E+10	1	-1E+10	1	-1E+10	1
4901784	201	C	01/04/2021	10:42	-134.345	43.576	0	565.70	0	4.5340	0	36.7860	8	29.153	0	560.416	0	37.0	4	12.1	4	-1E+10	1	-1E+10	1	-1E+10	1	-1E+10	1	-1E+10	1	-1E+10	1
4901784	201	C	01/04/2021	10:42	-134.345	43.576	0	570.60	0	4.5140	0	36.8170	8	29.180	0	565.263	0	35.8	4	11.7	4	-1E+10	1	-1E+10	1	-1E+10	1	-1E+10	1	-1E+10	1	-1E+10	1
4901784	201	C	01/04/2021	10:42	-134.345	43.576	0	575.40	0	4.5260	0	36.8410	8	29.198	0	570.012	0	34.7	4	11.3	4	-1E+10	1	-1E+10	1	-1E+10	1	-1E+10	1	-1E+10	1	-1E+10	1
4901784	201	C	01/04/2021	10:42	-134.345	43.576	0	580.30	0	4.4530	0	36.8410	8	29.206	0	574.859	0	34.6	4	11.3	4	-1E+10	1	-1E+10	1	-1E+10	1	-1E+10	1	-1E+10	1	-1E+10	1
4901784	201	C	01/04/2021	10:42	-134.345	43.576	0	585.30	0	4.3840	0	36.8470	8	29.219	0	579.806	0	34.0	4	11.1	4	-1E+10	1	-1E+10	1	-1E+10	1	-1E+10	1	-1E+10	1	-1E+10	1
4901784	201	C	01/04/2021	10:42	-134.345	43.576	0	590.20	0	4.3630	0	36.8530	8	29.226	0	584.653	0	33.2	4	10.8	4	-1E+10	1	-1E+10	1	-1E+10	1	-1E+10	1	-1E+10	1	-1E+10	1
4901784	201	C	01/04/2021	10:42	-134.345	43.576	0	595.10	0	4.3530	0	36.8560	8	29.230	0	589.500	0	32.6	4	10.6	4	-1E+10	1	-1E+10	1	-1E+10	1	-1E+10	1	-1E+10	1	-1E+10	1
4901784	201	C	01/04/2021	10:42	-134.345	43.576	0	600.10	0	4.3460	0	36.8600	8	29.234	0	594.445	0	31.9	4	10.4	4	-1E+10	1	-1E+10	1	-1E+10	1	-1E+10	1	-1E+10	1	-1E+10	1
4901784	201	C	01/04/2021	10:42	-134.345	43.576	0	605.00	0	4.3400	0	36.8620	8	29.236	0	599.292	0	30.8	4	10.0	4	-1E+10	1	-1E+10	1	-1E+10	1	-1E+10	1	-1E+10	1	-1E+10	1
4901784	201	C	01/04/2021	10:42	-134.345	43.576	0	609.90	0	4.3240	0	36.8720	8	29.246	0	604.139	0	29.4	4	9.5	4	-1E+10	1	-1E+10	1	-1E+10	1	-1E+10	1	-1E+10	1	-1E+10	1
4901784	201	C	01/04/2021	10:42	-134.345	43.576	0	614.90	0	4.3220	0	36.8790	8	29.252	0	609.084	0	28.5	4	9.3	4	-1E+10	1	-1E+10	1	-1E+10	1	-1E+10	1	-1E+10	1	-1E+10	1
4901784	201	C	01/04/2021	10:42	-134.345	43.576	0	620.00	0	4.3210	0	36.8820	8	29.254	0	614.129	0	27.9	4	9.1	4	-1E+10	1	-1E+10	1	-1E+10	1	-1E+10	1	-1E+10	1	-1E+10	1
4901784	201	C	01/04/2021	10:42	-134.345	43.576	0	624.90	0	4.3060	0	36.8870	8	29.260	0	618.975	0	27.0	4	8.8	4	-1E+10	1	-1E+10	1	-1E+10	1	-1E+10	1	-1E+10	1	-1E+10	1
4901784	201	C	01/04/2021	10:42	-134.345	43.576	0	630.00	0	4.3110	0	36.8930	8	29.264	0	624.019	0	26.0	4	8.4	4	-1E+10	1	-1E+10	1	-1E+10	1	-1E+10	1	-1E+10	1	-1E+10	1
4901784	201	C	01/04/2021	10:42	-134.345	43.576	0	635.10	0	4.3030	0	36.9000	8	29.271	0	629.063	0	25.0	4	8.1	4	-1E+10	1	-1E+10	1	-1E+10	1	-1E+10	1	-1E+10	1	-1E+10	1
4901784	201	C	01/04/2021	10:42	-134.345	43.576	0	640.20	0	4.3030	0	36.9050	8	29.275	0	634.107	0	24.0	4	7.8	4	-1E+10	1	-1E+10	1	-1E+10	1	-1E+10	1	-1E+10	1	-1E+10	1
4901784	201	C	01/04/2021	10:42	-134.345	43.576	0	645.40	0	4.3180	0	36.9130	8	29.279	0	639.249	0	22.8	4	7.4	4	-1E+10	1	-1E+10	1	-1E+10	1	-1E+10	1	-1E+10	1	-1E+10	1
4901784	201	C	01/04/2021	10:42	-134.345	43.576	0	650.50	0	4.3140	0	36.9190	8	29.285	0	644.293	0	21.4	4	7.0	4	-1E+10	1	-1E+10	1	-1E+10	1	-1E+10	1	-1E+10	1	-1E+10	1
4901784	201	C	01/04/2021	10:42	-134.345	43.576	0	654.90	0	4.3080	0	36.9300	8	29.294	0	648.644	0	20.3	4	6.6	4	-1E+10	1	-1E+10	1	-1E+10	1	-1E+10	1	-1E+10	1	-1E+10	1
4901784	201	C	01/04/2021	10:42	-134.345	43.576	0	659.30	0	4.3010	0	36.9370	8	29.300	0	652.995	0	19.5	4	6.3	4	-1E+10	1	-1E+10	1	-1E+10	1	-1E+10	1	-1E+10	1	-1E+10	1
4901784	201	C	01/04/2021	10:42	-134.345	43.576	0	664.50	0	4.2920	0	36.9450	8	29.308	0	658.137	0	18.8	4	6.1	4	-1E+10	1	-1E+10	1	-1E+10	1	-1E+10	1	-1E+10	1	-1E+10	1
4901784	201	C	01/04/2021	10:42	-134.345	43.576	0	670.60	0	4.2770	0	36.9530	8	29.316	0	664.169	0	18.1	4	5.9	4	-1E+10	1	-1E+10	1	-1E+10	1	-1E+10	1	-1E+10	1	-1E+10	1
4901784	201	C	01/04/2021	10:42	-134.345	43.576	0	675.60	0	4.2790	0	36.9580	8	29.320	0	669.113	0	17.7	4	5.7	4	-1E+10	1	-1E+10	1	-1E+10	1	-1E+10	1	-1E+10	1	-1E+10	1
4901784	201	C	01/04/2021	10:42	-134.345	43.576	0	680.20	0	4.2670	0	36.9610	8	29.324	0	673.661	0	17.4	4	5.6	4	-1E+10	1	-1E+10	1	-1E+10	1	-1E+10	1	-1E+10	1	-1E+10	1
4901784	201	C	01/04/2021	10:42	-134.345	43.576	0	685.00	0	4.2530	0	36.9640	8	29.328	0	678.407	0	17.0	4	5.5	4	-1E+10	1	-1E+10	1	-1E+10	1	-1E+10	1	-1E+10	1	-1E+10	1
4901784	201	C	01/04/2021	10:42	-134.345	43.576	0	689.90	0	4.2340	0	36.9730	8	29.337	0	683.252	0	16.4	4	5.3	4	-1E+10	1	-1E+10	1	-1E+10	1	-1E+10	1	-1E+10	1	-1E+10	1
4901784	201	C	01/04/2021	10:42	-134.345	43.576	0	694.80	0	4.2330	0	36.9770	8	29.340	0	688.097	0	16.0	4	5.2	4	-1E+10	1	-1E+10	1	-1E+10	1	-1E+10	1	-1E+10	1	-1E+10	1
4901784	201	C	01/04/2021	10:42	-134.345	43.576	0	699.70	0	4.2320	0	36.9810	8	29.344	0	692.941	0	15.5	4	5.0	4	-1E+10	1	-1E+10	1	-1E+10	1	-1E+10	1	-1E+10	1	-1E+10	1
4901784	201	C	01/04/2021	10:42	-134.345	43.576	0	704.60	0	4.2260	0	36.9890	8	29.351	0	697.786	0	14.9	4	4.8	4	-1E+10	1	-1E+10	1	-1E+10	1	-1E+10	1	-1E+10	1	-1E+10	1
4901784	201	C	01/04/2021	10:42	-134.345	43.576	0	709.50	0	4.2180	0	36.9950	8	29.356	0	702.630	0	14.5	4	4.7	4	-1E+10	1	-1E+10	1	-1E+10	1	-1E+10	1	-1E+10	1	-1E+10	1
4901784	201	C	01/04/2021	10:42	-134.345	43.576	0	714.50	0	4.2100	0	37.0020	8	29.363	0	707.573	0	14.1	4	4.6	4	-1E+10	1	-1E+10	1	-1E+10	1	-1E+10	1	-1E+10	1	-1E+10	1
4901784	201	C	01/04/2021	10:42	-134.345	43.576	0	719.50	0	4.1980	0	37.0070	8	29.368	0	712.516	0	13.9	4	4.5	4	-1E+10	1	-1E+10	1	-1E+10	1	-1E+10	1	-1E+10	1	-1E+10	1
4901784	201	C	01/04/2021	10:42	-134.345	43.576	0	724.60	0	4.1870	0	37.0090	8	29.371	0	717.558	0	13.7	4	4.4	4	-1E+10	1	-1E+10	1	-1E+10	1	-1E+10	1	-1E+10	1	-1E+10	1
4901784	201	C	01/04/2021	10:42	-134.345	43.576	0	729.70	0	4.1560	0	37.0140	8	29.379	0	722.600	0	13.3	4	4.3	4	-1E+10	1	-1E+10	1	-1E+10	1	-1E+10	1	-1E+10	1	-1E+10	1
4901784	201	C	01/04/2021	10:42	-134.345	43.576	0	734.90	0	4.1590	0	37.0220	8	29.385	0	727.740	0	12.9	4	4.2	4	-1E+10	1	-1E+10	1	-1E+10	1	-1E+10	1	-1E+10	1	-1E+10	1
4901784	201	C	01/04/2021	10:42	-134.345	43.576	0	740.10	0	4.1750	0	37.0300	8	29.389	0	732.880	0	12.6	4	4.1	4	-1E+10	1	-1E+10	1	-1E+10	1	-1E+10	1	-1E+10	1	-1E+10	1
4901784	201	C	01/04/2021	10:42	-134.345	43.576	0	745.40	0	4.1250	0	37.0330	8	29.397	0	738.119	0	12.6	4	4.1	4	-1E+10	1	-1E+10	1	-1E+10	1	-1E+10	1	-1E+10	1	-1E+10	1
4901784	201	C	01/04/2021	10:42	-134.345	43.576	0	750.70	0	4.1040	0	37.0380	8	29.404	0	743.358	0	12.4	4	4.0	4	-1E+10	1	-1E+10	1	-1E+10	1	-1E+10	1	-1E+10	1	-1E+10	1
4901784	201	C	01/04/2021	10:42	-134.345	43.576	0	755.20	0	4.1000	0	37.0380	8	29.404	0	747.806	0	12.4	4	4.0	4	-1E+10	1	-1E+10	1	-1E+10	1	-1E+10	1	-1E+10	1	-1E+10	1
4901784	201	C	01/04/2021	10:42	-134.345	43.576	0	759.60	0	4.0840	0	37.0400	8	29.408	0	752.155	0	12.3	4	4.0	4	-1E+10	1	-1E+10	1	-1E+10	1	-1E+10	1	-1E+10	1	-1E+10	1
4901784	201	C	01/04/2021	10:42	-134.345	43.576	0	765.00	0	4.0600	0	37.0450	8	29.414	0	757.492	0	12.1	4	3.9	4	-1E+10	1	-1E+10	1	-1E+10	1	-1E+10	1	-1E+10	1	-1E+10	1
4901784	201	C	01/04/2021	10:42	-134.345	43.576	0	770.50	0	4.0540	0	37.0480	8	29.417	0	762.928	0	12.0	4	3.9	4	-1E+10	1	-1E+10	1	-1E+10	1	-1E+10	1	-1E+10	1	-1E+10	1
4901784	201	C	01/04/2021	10:42	-134.345	43.576	0	775.00	0	4.0460	0	37.0520	8	29.421	0	767.376	0	11.8	4	3.8	4	-1E+10	1	-1E+10	1	-1E+10	1	-1E+10	1	-1E+10	1	-1E+10	1
4901784	201	C	01/04/2021	10:42	-134.345	43.576	0	779.60	0	4.0350	0	37.0550	8	29.425	0	771.922	0	11.7	4	3.8	4	-1E+10	1	-1E+10	1	-1E+10	1	-1E+10	1	-1E+10	1	-1E+10	1
4901784	201	C	01/04/2021	10:42	-134.345	43.576	0	785.10	0	4.0230	0	37.0610	8	29.431	0	777.357	0	11.5	4	3.7	4	-1E+10	1	-1E+10	1	-1E+10	1	-1E+10	1	-1E+10	1	-1E+10	1
4901784	201	C	01/04/2021	10:42	-134.345	43.576	0	790.60	0	4.0170	0	37.0650	8	29.435	0	782.793	0	11.3	4	3.7	4	-1E+10	1	-1E+10	1	-1E+10	1	-1E+10	1	-1E+10	1	-1E+10	1
4901784	201	C	01/04/2021	10:42	-134.345	43.576	0	795.20	0	3.9980	0	37.0690	8	29.440	0	787.339	0	11.2	4	3.6	4	-1E+10	1	-1E+10	1	-1E+10	1	-1E+10	1	-1E+10	1	-1E+10	1
4901784	201	C	01/04/2021	10:42	-134.345	43.576	0	799.80	0	3.9900	0	37.0730	8	29.445	0	791.885	0	11.1	4	3.6	4	-1E+10	1	-1E+10	1	-1E+10	1	-1E+10	1	-1E+10	1	-1E+10	1
4901784	201	C	01/04/2021	10:42	-134.345	43.576	0	805.30	0	3.9870	0	37.0790	8	29.450	0	797.320	0	10.9	4	3.5	4	-1E+10	1	-1E+10	1	-1E+10	1	-1E+10	1	-1E+10	1	-1E+10	1
4901784	201	C	01/04/2021	10:42	-134.345	43.576	0	810.00	0	3.9920	0	37.0840	8	29.453	0	801.964	0	10.8	4	3.5	4	-1E+10	1	-1E+10	1	-1E+10	1	-1E+10	1	-1E+10	1	-1E+10	1
4901784	201	C	01/04/2021	10:42	-134.345	43.576	0	814.60	0	4.0000	0	37.0890	8	29.456	0	806.510	0	10.7	4	3.4	4	-1E+10	1	-1E+10	1	-1E+10	1	-1E+10	1	-1E+10	1	-1E+10	1
4901784	201	C	01/04/2021	10:42	-134.345	43.576	0	820.20	0	3.9760	0	37.0920	8	29.461	0	812.043	0	10.6	4	3.4	4	-1E+10	1	-1E+10	1	-1E+10	1	-1E+10	1	-1E+10	1	-1E+10	1
4901784	201	C	01/04/2021	10:42	-134.345	43.576	0	824.90	0	3.9590	0	37.0930	8	29.464	0	816.687	0	10.6	4	3.4	4	-1E+10	1	-1E+10	1	-1E+10	1	-1E+10	1	-1E+10	1	-1E+10	1
4901784	201	C	01/04/2021	10:42	-134.345	43.576	0	829.50	0	3.9400	0	37.0950	8	29.468	0	821.232	0	10.6	4	3.4	4	-1E+10	1	-1E+10	1	-1E+10	1	-1E+10	1	-1E+10	1	-1E+10	1
4901784	201	C	01/04/2021	10:42	-134.345	43.576	0	835.00	0	3.8960	0	37.0950	8	29.473	0	826.667	0	10.6	4	3.4	4	-1E+10	1	-1E+10	1	-1E+10	1	-1E+10	1	-1E+10	1	-1E+10	1
4901784	201	C	01/04/2021	10:42	-134.345	43.576	0	840.50	0	3.8920	0	37.1000	8	29.477	0	832.101	0	10.5	4	3.4	4	-1E+10	1	-1E+10	1	-1E+10	1	-1E+10	1	-1E+10	1	-1E+10	1
4901784	201	C	01/04/2021	10:42	-134.345	43.576	0	845.10	0	3.8800	0	37.1010	8	29.479	0	836.646	0	10.4	4	3.4	4	-1E+10	1	-1E+10	1	-1E+10	1	-1E+10	1	-1E+10	1	-1E+10	1
4901784	201	C	01/04/2021	10:42	-134.345	43.576	0	849.80	0	3.8480	0	37.1070	8	29.487	0	841.289	0	10.3	4	3.3	4	-1E+10	1	-1E+10	1	-1E+10	1	-1E+10	1	-1E+10	1	-1E+10	1
4901784	201	C	01/04/2021	10:42	-134.345	43.576	0	855.40	0	3.8480	0	37.1160	8	29.495	0	846.822	0	10.2	4	3.3	4	-1E+10	1	-1E+10	1	-1E+10	1	-1E+10	1	-1E+10	1	-1E+10	1
4901784	201	C	01/04/2021	10:42	-134.345	43.576	0	859.90	0	3.8460	0	37.1190	8	29.497	0	851.267	0	10.2	4	3.3	4	-1E+10	1	-1E+10	1	-1E+10	1	-1E+10	1	-1E+10	1	-1E+10	1
4901784	201	C	01/04/2021	10:42	-134.345	43.576	0	864.60	0	3.8330	0	37.1220	8	29.501	0	855.911	0	10.1	4	3.3	4	-1E+10	1	-1E+10	1	-1E+10	1	-1E+10	1	-1E+10	1	-1E+10	1
4901784	201	C	01/04/2021	10:42	-134.345	43.576	0	870.10	0	3.8220	0	37.1270	8	29.506	0	861.344	0	10.1	4	3.2	4	-1E+10	1	-1E+10	1	-1E+10	1	-1E+10	1	-1E+10	1	-1E+10	1
4901784	201	C	01/04/2021	10:42	-134.345	43.576	0	875.60	0	3.8150	0	37.1300	8	29.510	0	866.777	0	10.1	4	3.2	4	-1E+10	1	-1E+10	1	-1E+10	1	-1E+10	1	-1E+10	1	-1E+10	1
4901784	201	C	01/04/2021	10:42	-134.345	43.576	0	880.20	0	3.8030	0	37.1330	8	29.513	0	871.321	0	10.0	4	3.2	4	-1E+10	1	-1E+10	1	-1E+10	1	-1E+10	1	-1E+10	1	-1E+10	1
4901784	201	C	01/04/2021	10:42	-134.345	43.576	0	884.80	0	3.7920	0	37.1350	8	29.516	0	875.865	0	10.0	4	3.2	4	-1E+10	1	-1E+10	1	-1E+10	1	-1E+10	1	-1E+10	1	-1E+10	1
4901784	201	C	01/04/2021	10:42	-134.345	43.576	0	890.30	0	3.7800	0	37.1390	8	29.521	0	881.298	0	10.0	4	3.2	4	-1E+10	1	-1E+10	1	-1E+10	1	-1E+10	1	-1E+10	1	-1E+10	1
4901784	201	C	01/04/2021	10:42	-134.345	43.576	0	895.00	0	3.7750	0	37.1460	8	29.527	0	885.941	0	10.0	4	3.2	4	-1E+10	1	-1E+10	1	-1E+10	1	-1E+10	1	-1E+10	1	-1E+10	1
4901784	201	C	01/04/2021	10:42	-134.345	43.576	0	899.60	0	3.7640	0	37.1480	8	29.530	0	890.484	0	10.0	4	3.2	4	-1E+10	1	-1E+10	1	-1E+10	1	-1E+10	1	-1E+10	1	-1E+10	1
4901784	201	C	01/04/2021	10:42	-134.345	43.576	0	905.20	0	3.7530	0	37.1510	8	29.533	0	896.016	0	10.0	4	3.2	4	-1E+10	1	-1E+10	1	-1E+10	1	-1E+10	1	-1E+10	1	-1E+10	1
4901784	201	C	01/04/2021	10:42	-134.345	43.576	0	909.90	0	3.7470	0	37.1530	8	29.535	0	900.658	0	10.0	4	3.2	4	-1E+10	1	-1E+10	1	-1E+10	1	-1E+10	1	-1E+10	1	-1E+10	1
4901784	201	C	01/04/2021	10:42	-134.345	43.576	0	914.60	0	3.7340	0	37.1580	8	29.541	0	905.300	0	10.0	4	3.2	4	-1E+10	1	-1E+10	1	-1E+10	1	-1E+10	1	-1E+10	1	-1E+10	1
4901784	201	C	01/04/2021	10:42	-134.345	43.576	0	920.10	0	3.7310	0	37.1600	8	29.543	0	910.732	0	10.0	4	3.2	4	-1E+10	1	-1E+10	1	-1E+10	1	-1E+10	1	-1E+10	1	-1E+10	1
4901784	201	C	01/04/2021	10:42	-134.345	43.576	0	925.50	0	3.7190	0	37.1620	8	29.546	0	916.065	0	10.0	4	3.2	4	-1E+10	1	-1E+10	1	-1E+10	1	-1E+10	1	-1E+10	1	-1E+10	1
4901784	201	C	01/04/2021	10:42	-134.345	43.576	0	930.30	0	3.6970	0	37.1660	8	29.551	0	920.806	0	10.0	4	3.2	4	-1E+10	1	-1E+10	1	-1E+10	1	-1E+10	1	-1E+10	1	-1E+10	1
4901784	201	C	01/04/2021	10:42	-134.345	43.576	0	935.20	0	3.6790	0	37.1700	8	29.556	0	925.645	0	10.0	4	3.2	4	-1E+10	1	-1E+10	1	-1E+10	1	-1E+10	1	-1E+10	1	-1E+10	1
4901784	201	C	01/04/2021	10:42	-134.345	43.576	0	940.10	0	3.6580	0	37.1740	8	29.562	0	930.484	0	10.0	4	3.2	4	-1E+10	1	-1E+10	1	-1E+10	1	-1E+10	1	-1E+10	1	-1E+10	1
4901784	201	C	01/04/2021	10:42	-134.345	43.576	0	945.00	0	3.6400	0	37.1780	8	29.567	0	935.323	0	10.0	4	3.2	4	-1E+10	1	-1E+10	1	-1E+10	1	-1E+10	1	-1E+10	1	-1E+10	1
4901784	201	C	01/04/2021	10:42	-134.345	43.576	0	950.00	0	3.6280	0	37.1810	8	29.571	0	940.261	0	10.0	4	3.2	4	-1E+10	1	-1E+10	1	-1E+10	1	-1E+10	1	-1E+10	1	-1E+10	1
4901784	201	C	01/04/2021	10:42	-134.345	43.576	0	954.90	0	3.6160	0	37.1830	8	29.574	0	945.099	0	10.1	4	3.2	4	-1E+10	1	-1E+10	1	-1E+10	1	-1E+10	1	-1E+10	1	-1E+10	1
4901784	201	C	01/04/2021	10:42	-134.345	43.576	0	959.90	0	3.6020	0	37.1850	8	29.577	0	950.037	0	10.1	4	3.2	4	-1E+10	1	-1E+10	1	-1E+10	1	-1E+10	1	-1E+10	1	-1E+10	1
4901784	201	C	01/04/2021	10:42	-134.345	43.576	0	965.00	0	3.5840	0	37.1880	8	29.581	0	955.073	0	10.1	4	3.2	4	-1E+10	1	-1E+10	1	-1E+10	1	-1E+10	1	-1E+10	1	-1E+10	1
4901784	201	C	01/04/2021	10:42	-134.345	43.576	0	970.10	0	3.5710	0	37.1930	8	29.586	0	960.108	0	10.2	4	3.3	4	-1E+10	1	-1E+10	1	-1E+10	1	-1E+10	1	-1E+10	1	-1E+10	1
4901784	201	C	01/04/2021	10:42	-134.345	43.576	0	975.20	0	3.5600	0	37.1950	8	29.589	0	965.144	0	10.2	4	3.3	4	-1E+10	1	-1E+10	1	-1E+10	1	-1E+10	1	-1E+10	1	-1E+10	1
4901784	201	C	01/04/2021	10:42	-134.345	43.576	0	980.40	0	3.5510	0	37.1970	8	29.592	0	970.279	0	10.3	4	3.3	4	-1E+10	1	-1E+10	1	-1E+10	1	-1E+10	1	-1E+10	1	-1E+10	1
4901784	201	C	01/04/2021	10:42	-134.345	43.576	0	985.60	0	3.5390	0	37.2000	8	29.595	0	975.413	0	10.3	4	3.3	4	-1E+10	1	-1E+10	1	-1E+10	1	-1E+10	1	-1E+10	1	-1E+10	1
4901784	201	C	01/04/2021	10:42	-134.345	43.576	0	990.00	0	3.5230	0	37.2030	8	29.600	0	979.757	0	10.4	4	3.3	4	-1E+10	1	-1E+10	1	-1E+10	1	-1E+10	1	-1E+10	1	-1E+10	1
4901784	201	C	01/04/2021	10:42	-134.345	43.576	0	994.40	0	3.5150	0	37.2050	8	29.602	0	984.101	0	10.4	4	3.3	4	-1E+10	1	-1E+10	1	-1E+10	1	-1E+10	1	-1E+10	1	-1E+10	1
4901784	201	C	01/04/2021	10:42	-134.345	43.576	0	999.60	0	3.5040	0	37.2080	8	29.606	0	989.235	0	10.5	4	3.3	4	-1E+10	1	-1E+10	1	-1E+10	1	-1E+10	1	-1E+10	1	-1E+10	1
4901784	201	C	01/04/2021	10:42	-134.345	43.576	0	1004.90	0	3.4930	0	37.2110	8	29.609	0	994.467	0	10.6	4	3.4	4	-1E+10	1	-1E+10	1	-1E+10	1	-1E+10	1	-1E+10	1	-1E+10	1
4901784	201	C	01/04/2021	10:42	-134.345	43.576	0	1010.40	0	3.4770	0	37.2150	8	29.614	0	999.897	0	10.6	4	3.4	4	-1E+10	1	-1E+10	1	-1E+10	1	-1E+10	1	-1E+10	1	-1E+10	1
4901784	201	C	01/04/2021	10:42	-134.345	43.576	0	1014.90	0	3.4710	0	37.2160	8	29.615	0	1004.340	0	10.7	4	3.4	4	-1E+10	1	-1E+10	1	-1E+10	1	-1E+10	1	-1E+10	1	-1E+10	1
4901784	201	C	01/04/2021	10:42	-134.345	43.576	0	1019.50	0	3.4610	0	37.2180	8	29.618	0	1008.881	0	10.7	4	3.4	4	-1E+10	1	-1E+10	1	-1E+10	1	-1E+10	1	-1E+10	1	-1E+10	1
4901784	201	C	01/04/2021	10:42	-134.345	43.576	0	1024.90	0	3.4500	0	37.2210	8	29.622	0	1014.211	0	10.8	4	3.4	4	-1E+10	1	-1E+10	1	-1E+10	1	-1E+10	1	-1E+10	1	-1E+10	1
4901784	201	C	01/04/2021	10:42	-134.345	43.576	0	1029.50	0	3.4450	0	37.2220	8	29.623	0	1018.752	0	10.8	4	3.4	4	-1E+10	1	-1E+10	1	-1E+10	1	-1E+10	1	-1E+10	1	-1E+10	1
4901784	201	C	01/04/2021	10:42	-134.345	43.576	0	1034.10	0	3.4350	0	37.2250	8	29.627	0	1023.293	0	10.9	4	3.5	4	-1E+10	1	-1E+10	1	-1E+10	1	-1E+10	1	-1E+10	1	-1E+10	1
4901784	201	C	01/04/2021	10:42	-134.345	43.576	0	1039.50	0	3.4300	0	37.2260	8	29.628	0	1028.623	0	10.9	4	3.5	4	-1E+10	1	-1E+10	1	-1E+10	1	-1E+10	1	-1E+10	1	-1E+10	1
4901784	201	C	01/04/2021	10:42	-134.345	43.576	0	1044.40	0	3.4230	0	37.2280	8	29.630	0	1033.460	0	11.0	4	3.5	4	-1E+10	1	-1E+10	1	-1E+10	1	-1E+10	1	-1E+10	1	-1E+10	1
4901784	201	C	01/04/2021	10:42	-134.345	43.576	0	1049.40	0	3.4180	0	37.2300	8	29.632	0	1038.395	0	11.1	4	3.5	4	-1E+10	1	-1E+10	1	-1E+10	1	-1E+10	1	-1E+10	1	-1E+10	1
4901784	201	C	01/04/2021	10:42	-134.345	43.576	0	1054.50	0	3.4110	0	37.2330	8	29.636	0	1043.429	0	11.3	4	3.6	4	-1E+10	1	-1E+10	1	-1E+10	1	-1E+10	1	-1E+10	1	-1E+10	1
4901784	201	C	01/04/2021	10:42	-134.345	43.576	0	1059.60	0	3.4000	0	37.2370	8	29.640	0	1048.463	0	11.4	4	3.6	4	-1E+10	1	-1E+10	1	-1E+10	1	-1E+10	1	-1E+10	1	-1E+10	1
4901784	201	C	01/04/2021	10:42	-134.345	43.576	0	1064.80	0	3.3950	0	37.2390	8	29.642	0	1053.595	0	11.5	4	3.7	4	-1E+10	1	-1E+10	1	-1E+10	1	-1E+10	1	-1E+10	1	-1E+10	1
4901784	201	C	01/04/2021	10:42	-134.345	43.576	0	1070.10	0	3.3790	0	37.2420	8	29.646	0	1058.826	0	11.6	4	3.7	4	-1E+10	1	-1E+10	1	-1E+10	1	-1E+10	1	-1E+10	1	-1E+10	1
4901784	201	C	01/04/2021	10:42	-134.345	43.576	0	1075.40	0	3.3700	0	37.2440	8	29.649	0	1064.057	0	11.7	4	3.7	4	-1E+10	1	-1E+10	1	-1E+10	1	-1E+10	1	-1E+10	1	-1E+10	1
4901784	201	C	01/04/2021	10:42	-134.345	43.576	0	1080.70	0	3.3550	0	37.2460	8	29.652	0	1069.287	0	11.8	4	3.7	4	-1E+10	1	-1E+10	1	-1E+10	1	-1E+10	1	-1E+10	1	-1E+10	1
4901784	201	C	01/04/2021	10:42	-134.345	43.576	0	1085.20	0	3.3390	0	37.2480	8	29.655	0	1073.728	0	11.8	4	3.8	4	-1E+10	1	-1E+10	1	-1E+10	1	-1E+10	1	-1E+10	1	-1E+10	1
4901784	201	C	01/04/2021	10:42	-134.345	43.576	0	1090.10	0	3.3290	0	37.2510	8	29.659	0	1078.564	0	11.9	4	3.8	4	-1E+10	1	-1E+10	1	-1E+10	1	-1E+10	1	-1E+10	1	-1E+10	1
4901784	201	C	01/04/2021	10:42	-134.345	43.576	0	1095.30	0	3.3200	0	37.2540	8	29.662	0	1083.696	0	12.1	4	3.8	4	-1E+10	1	-1E+10	1	-1E+10	1	-1E+10	1	-1E+10	1	-1E+10	1
4901784	201	C	01/04/2021	10:42	-134.345	43.576	0	1100.00	0	3.3210	0	37.2550	8	29.663	0	1088.334	0	12.2	4	3.9	4	-1E+10	1	-1E+10	1	-1E+10	1	-1E+10	1	-1E+10	1	-1E+10	1
4901784	201	C	01/04/2021	10:42	-134.345	43.576	0	1105.00	0	3.3140	0	37.2570	8	29.665	0	1093.267	0	12.3	4	3.9	4	-1E+10	1	-1E+10	1	-1E+10	1	-1E+10	1	-1E+10	1	-1E+10	1
4901784	201	C	01/04/2021	10:42	-134.345	43.576	0	1109.90	0	3.3070	0	37.2590	8	29.667	0	1098.103	0	12.3	4	3.9	4	-1E+10	1	-1E+10	1	-1E+10	1	-1E+10	1	-1E+10	1	-1E+10	1
4901784	201	C	01/04/2021	10:42	-134.345	43.576	0	1115.10	0	3.2950	0	37.2610	8	29.670	0	1103.234	0	12.4	4	4.0	4	-1E+10	1	-1E+10	1	-1E+10	1	-1E+10	1	-1E+10	1	-1E+10	1
4901784	201	C	01/04/2021	10:42	-134.345	43.576	0	1120.20	0	3.2840	0	37.2630	8	29.673	0	1108.266	0	12.5	4	4.0	4	-1E+10	1	-1E+10	1	-1E+10	1	-1E+10	1	-1E+10	1	-1E+10	1
4901784	201	C	01/04/2021	10:42	-134.345	43.576	0	1125.40	0	3.2710	0	37.2650	8	29.676	0	1113.397	0	12.6	4	4.0	4	-1E+10	1	-1E+10	1	-1E+10	1	-1E+10	1	-1E+10	1	-1E+10	1
4901784	201	C	01/04/2021	10:42	-134.345	43.576	0	1130.60	0	3.2580	0	37.2660	8	29.678	0	1118.527	0	12.6	4	4.0	4	-1E+10	1	-1E+10	1	-1E+10	1	-1E+10	1	-1E+10	1	-1E+10	1
4901784	201	C	01/04/2021	10:42	-134.345	43.576	0	1135.00	0	3.2510	0	37.2680	8	29.680	0	1122.869	0	12.6	4	4.0	4	-1E+10	1	-1E+10	1	-1E+10	1	-1E+10	1	-1E+10	1	-1E+10	1
4901784	201	C	01/04/2021	10:42	-134.345	43.576	0	1139.40	0	3.2420	0	37.2690	8	29.682	0	1127.210	0	12.7	4	4.0	4	-1E+10	1	-1E+10	1	-1E+10	1	-1E+10	1	-1E+10	1	-1E+10	1
4901784	201	C	01/04/2021	10:42	-134.345	43.576	0	1144.80	0	3.2340	0	37.2700	8	29.684	0	1132.538	0	12.7	4	4.0	4	-1E+10	1	-1E+10	1	-1E+10	1	-1E+10	1	-1E+10	1	-1E+10	1
4901784	201	C	01/04/2021	10:42	-134.345	43.576	0	1150.20	0	3.2290	0	37.2720	8	29.686	0	1137.865	0	12.9	4	4.1	4	-1E+10	1	-1E+10	1	-1E+10	1	-1E+10	1	-1E+10	1	-1E+10	1
4901784	201	C	01/04/2021	10:42	-134.345	43.576	0	1155.70	0	3.2220	0	37.2730	8	29.687	0	1143.291	0	13.1	4	4.2	4	-1E+10	1	-1E+10	1	-1E+10	1	-1E+10	1	-1E+10	1	-1E+10	1
4901784	201	C	01/04/2021	10:42	-134.345	43.576	0	1160.20	0	3.2090	0	37.2770	8	29.692	0	1147.731	0	13.3	4	4.2	4	-1E+10	1	-1E+10	1	-1E+10	1	-1E+10	1	-1E+10	1	-1E+10	1
4901784	201	C	01/04/2021	10:42	-134.345	43.576	0	1164.70	0	3.2010	0	37.2810	8	29.696	0	1152.170	0	13.6	4	4.3	4	-1E+10	1	-1E+10	1	-1E+10	1	-1E+10	1	-1E+10	1	-1E+10	1
4901784	201	C	01/04/2021	10:42	-134.345	43.576	0	1170.20	0	3.1940	0	37.2840	8	29.699	0	1157.596	0	13.7	4	4.4	4	-1E+10	1	-1E+10	1	-1E+10	1	-1E+10	1	-1E+10	1	-1E+10	1
4901784	201	C	01/04/2021	10:42	-134.345	43.576	0	1174.80	0	3.1850	0	37.2850	8	29.701	0	1162.133	0	13.8	4	4.4	4	-1E+10	1	-1E+10	1	-1E+10	1	-1E+10	1	-1E+10	1	-1E+10	1
4901784	201	C	01/04/2021	10:42	-134.345	43.576	0	1179.40	0	3.1780	0	37.2850	8	29.702	0	1166.671	0	13.9	4	4.4	4	-1E+10	1	-1E+10	1	-1E+10	1	-1E+10	1	-1E+10	1	-1E+10	1
4901784	201	C	01/04/2021	10:42	-134.345	43.576	0	1184.90	0	3.1590	0	37.2890	8	29.707	0	1172.096	0	14.1	4	4.5	4	-1E+10	1	-1E+10	1	-1E+10	1	-1E+10	1	-1E+10	1	-1E+10	1
4901784	201	C	01/04/2021	10:42	-134.345	43.576	0	1190.50	0	3.1480	0	37.2920	8	29.710	0	1177.620	0	14.2	4	4.5	4	-1E+10	1	-1E+10	1	-1E+10	1	-1E+10	1	-1E+10	1	-1E+10	1
4901784	201	C	01/04/2021	10:42	-134.345	43.576	0	1195.10	0	3.1410	0	37.2930	8	29.712	0	1182.157	0	14.3	4	4.5	4	-1E+10	1	-1E+10	1	-1E+10	1	-1E+10	1	-1E+10	1	-1E+10	1
4901784	201	C	01/04/2021	10:42	-134.345	43.576	0	1199.60	0	3.1320	0	37.2950	8	29.714	0	1186.596	0	14.4	4	4.5	4	-1E+10	1	-1E+10	1	-1E+10	1	-1E+10	1	-1E+10	1	-1E+10	1
4901784	201	C	01/04/2021	10:42	-134.345	43.576	0	1205.10	0	3.1250	0	37.2950	8	29.715	0	1192.021	0	14.4	4	4.5	4	-1E+10	1	-1E+10	1	-1E+10	1	-1E+10	1	-1E+10	1	-1E+10	1
4901784	201	C	01/04/2021	10:42	-134.345	43.576	0	1209.70	0	3.1110	0	37.2960	8	29.717	0	1196.558	0	14.3	4	4.5	4	-1E+10	1	-1E+10	1	-1E+10	1	-1E+10	1	-1E+10	1	-1E+10	1
4901784	201	C	01/04/2021	10:42	-134.345	43.576	0	1214.30	0	3.1040	0	37.2970	8	29.719	0	1201.095	0	14.4	4	4.6	4	-1E+10	1	-1E+10	1	-1E+10	1	-1E+10	1	-1E+10	1	-1E+10	1
4901784	201	C	01/04/2021	10:42	-134.345	43.576	0	1219.90	0	3.0880	0	37.2990	8	29.722	0	1206.618	0	14.5	4	4.6	4	-1E+10	1	-1E+10	1	-1E+10	1	-1E+10	1	-1E+10	1	-1E+10	1
4901784	201	C	01/04/2021	10:42	-134.345	43.576	0	1225.40	0	3.0770	0	37.3010	8	29.725	0	1212.042	0	14.7	4	4.6	4	-1E+10	1	-1E+10	1	-1E+10	1	-1E+10	1	-1E+10	1	-1E+10	1
4901784	201	C	01/04/2021	10:42	-134.345	43.576	0	1230.10	0	3.0740	0	37.3020	8	29.726	0	1216.677	0	14.8	4	4.7	4	-1E+10	1	-1E+10	1	-1E+10	1	-1E+10	1	-1E+10	1	-1E+10	1
4901784	201	C	01/04/2021	10:42	-134.345	43.576	0	1234.30	0	3.0650	0	37.3040	8	29.728	0	1220.819	0	15.1	4	4.8	4	-1E+10	1	-1E+10	1	-1E+10	1	-1E+10	1	-1E+10	1	-1E+10	1
4901784	201	C	01/04/2021	10:42	-134.345	43.576	0	1239.40	0	3.0630	0	37.3070	8	29.731	0	1225.849	0	15.3	4	4.8	4	-1E+10	1	-1E+10	1	-1E+10	1	-1E+10	1	-1E+10	1	-1E+10	1
4901784	201	C	01/04/2021	10:42	-134.345	43.576	0	1244.40	0	3.0620	0	37.3080	8	29.732	0	1230.779	0	15.4	4	4.9	4	-1E+10	1	-1E+10	1	-1E+10	1	-1E+10	1	-1E+10	1	-1E+10	1
4901784	201	C	01/04/2021	10:42	-134.345	43.576	0	1249.50	0	3.0520	0	37.3100	8	29.735	0	1235.809	0	15.5	4	4.9	4	-1E+10	1	-1E+10	1	-1E+10	1	-1E+10	1	-1E+10	1	-1E+10	1
4901784	201	C	01/04/2021	10:42	-134.345	43.576	0	1254.60	0	3.0470	0	37.3110	8	29.736	0	1240.838	0	15.6	4	4.9	4	-1E+10	1	-1E+10	1	-1E+10	1	-1E+10	1	-1E+10	1	-1E+10	1
4901784	201	C	01/04/2021	10:42	-134.345	43.576	0	1259.70	0	3.0290	0	37.3130	8	29.739	0	1245.867	0	15.7	4	5.0	4	-1E+10	1	-1E+10	1	-1E+10	1	-1E+10	1	-1E+10	1	-1E+10	1
4901784	201	C	01/04/2021	10:42	-134.345	43.576	0	1264.80	0	3.0090	0	37.3150	8	29.743	0	1250.896	0	15.8	4	5.0	4	-1E+10	1	-1E+10	1	-1E+10	1	-1E+10	1	-1E+10	1	-1E+10	1
4901784	201	C	01/04/2021	10:42	-134.345	43.576	0	1270.00	0	3.0020	0	37.3170	8	29.745	0	1256.023	0	16.1	4	5.1	4	-1E+10	1	-1E+10	1	-1E+10	1	-1E+10	1	-1E+10	1	-1E+10	1
4901784	201	C	01/04/2021	10:42	-134.345	43.576	0	1275.20	0	2.9970	0	37.3200	8	29.748	0	1261.150	0	16.4	4	5.2	4	-1E+10	1	-1E+10	1	-1E+10	1	-1E+10	1	-1E+10	1	-1E+10	1
4901784	201	C	01/04/2021	10:42	-134.345	43.576	0	1280.40	0	2.9880	0	37.3230	8	29.752	0	1266.277	0	16.6	4	5.2	4	-1E+10	1	-1E+10	1	-1E+10	1	-1E+10	1	-1E+10	1	-1E+10	1
4901784	201	C	01/04/2021	10:42	-134.345	43.576	0	1285.60	0	2.9710	0	37.3250	8	29.755	0	1271.404	0	16.6	4	5.2	4	-1E+10	1	-1E+10	1	-1E+10	1	-1E+10	1	-1E+10	1	-1E+10	1
4901784	201	C	01/04/2021	10:42	-134.345	43.576	0	1290.00	0	2.9620	0	37.3280	8	29.758	0	1275.742	0	16.7	4	5.3	4	-1E+10	1	-1E+10	1	-1E+10	1	-1E+10	1	-1E+10	1	-1E+10	1
4901784	201	C	01/04/2021	10:42	-134.345	43.576	0	1294.40	0	2.9540	0	37.3300	8	29.761	0	1280.080	0	16.7	4	5.3	4	-1E+10	1	-1E+10	1	-1E+10	1	-1E+10	1	-1E+10	1	-1E+10	1
4901784	201	C	01/04/2021	10:42	-134.345	43.576	0	1299.70	0	2.9400	0	37.3350	8	29.766	0	1285.305	0	16.8	4	5.3	4	-1E+10	1	-1E+10	1	-1E+10	1	-1E+10	1	-1E+10	1	-1E+10	1
4901784	201	C	01/04/2021	10:42	-134.345	43.576	0	1305.00	0	2.9290	0	37.3390	8	29.770	0	1290.530	0	17.0	4	5.3	4	-1E+10	1	-1E+10	1	-1E+10	1	-1E+10	1	-1E+10	1	-1E+10	1
4901784	201	C	01/04/2021	10:42	-134.345	43.576	0	1310.40	0	2.9220	0	37.3420	8	29.773	0	1295.854	0	17.1	4	5.4	4	-1E+10	1	-1E+10	1	-1E+10	1	-1E+10	1	-1E+10	1	-1E+10	1
4901784	201	C	01/04/2021	10:42	-134.345	43.576	0	1315.70	0	2.9170	0	37.3460	8	29.777	0	1301.079	0	17.4	4	5.5	4	-1E+10	1	-1E+10	1	-1E+10	1	-1E+10	1	-1E+10	1	-1E+10	1
4901784	201	C	01/04/2021	10:42	-134.345	43.576	0	1320.20	0	2.9100	0	37.3530	8	29.783	0	1305.515	0	17.6	4	5.5	4	-1E+10	1	-1E+10	1	-1E+10	1	-1E+10	1	-1E+10	1	-1E+10	1
4901784	201	C	01/04/2021	10:42	-134.345	43.576	0	1324.60	0	2.9010	0	37.3550	8	29.786	0	1309.852	0	17.7	4	5.6	4	-1E+10	1	-1E+10	1	-1E+10	1	-1E+10	1	-1E+10	1	-1E+10	1
4901784	201	C	01/04/2021	10:42	-134.345	43.576	0	1329.90	0	2.8890	0	37.3600	8	29.791	0	1315.077	0	17.8	4	5.6	4	-1E+10	1	-1E+10	1	-1E+10	1	-1E+10	1	-1E+10	1	-1E+10	1
4901784	201	C	01/04/2021	10:42	-134.345	43.576	0	1335.30	0	2.8740	0	37.3650	8	29.797	0	1320.400	0	18.0	4	5.7	4	-1E+10	1	-1E+10	1	-1E+10	1	-1E+10	1	-1E+10	1	-1E+10	1
4901784	201	C	01/04/2021	10:42	-134.345	43.576	0	1340.70	0	2.8650	0	37.3710	8	29.802	0	1325.722	0	18.3	4	5.8	4	-1E+10	1	-1E+10	1	-1E+10	1	-1E+10	1	-1E+10	1	-1E+10	1
4901784	201	C	01/04/2021	10:42	-134.345	43.576	0	1345.20	0	2.8620	0	37.3730	8	29.804	0	1330.158	0	18.4	4	5.8	4	-1E+10	1	-1E+10	1	-1E+10	1	-1E+10	1	-1E+10	1	-1E+10	1
4901784	201	C	01/04/2021	10:42	-134.345	43.576	0	1349.80	0	2.8590	0	37.3790	8	29.809	0	1334.692	0	18.5	4	5.8	4	-1E+10	1	-1E+10	1	-1E+10	1	-1E+10	1	-1E+10	1	-1E+10	1
4901784	201	C	01/04/2021	10:42	-134.345	43.576	0	1355.20	0	2.8480	0	37.3790	8	29.810	0	1340.014	0	18.7	4	5.9	4	-1E+10	1	-1E+10	1	-1E+10	1	-1E+10	1	-1E+10	1	-1E+10	1
4901784	201	C	01/04/2021	10:42	-134.345	43.576	0	1360.60	0	2.8390	0	37.3820	8	29.814	0	1345.337	0	19.1	4	6.0	4	-1E+10	1	-1E+10	1	-1E+10	1	-1E+10	1	-1E+10	1	-1E+10	1
4901784	201	C	01/04/2021	10:42	-134.345	43.576	0	1365.10	0	2.8350	0	37.3850	8	29.817	0	1349.772	0	19.3	4	6.1	4	-1E+10	1	-1E+10	1	-1E+10	1	-1E+10	1	-1E+10	1	-1E+10	1
4901784	201	C	01/04/2021	10:42	-134.345	43.576	0	1369.60	0	2.8320	0	37.3830	8	29.815	0	1354.207	0	19.5	4	6.1	4	-1E+10	1	-1E+10	1	-1E+10	1	-1E+10	1	-1E+10	1	-1E+10	1
4901784	201	C	01/04/2021	10:42	-134.345	43.576	0	1374.90	0	2.8190	0	37.3860	8	29.819	0	1359.430	0	19.7	4	6.2	4	-1E+10	1	-1E+10	1	-1E+10	1	-1E+10	1	-1E+10	1	-1E+10	1
4901784	201	C	01/04/2021	10:42	-134.345	43.576	0	1380.40	0	2.8050	0	37.3920	8	29.825	0	1364.850	0	19.9	4	6.3	4	-1E+10	1	-1E+10	1	-1E+10	1	-1E+10	1	-1E+10	1	-1E+10	1
4901784	201	C	01/04/2021	10:42	-134.345	43.576	0	1385.00	0	2.8000	0	37.4020	8	29.834	0	1369.384	0	20.1	4	6.3	4	-1E+10	1	-1E+10	1	-1E+10	1	-1E+10	1	-1E+10	1	-1E+10	1
4901784	201	C	01/04/2021	10:42	-134.345	43.576	0	1389.60	0	2.7930	0	37.4090	8	29.840	0	1373.917	0	20.3	4	6.4	4	-1E+10	1	-1E+10	1	-1E+10	1	-1E+10	1	-1E+10	1	-1E+10	1
4901784	201	C	01/04/2021	10:42	-134.345	43.576	0	1395.20	0	2.7780	0	37.4110	8	29.843	0	1379.435	0	20.6	4	6.5	4	-1E+10	1	-1E+10	1	-1E+10	1	-1E+10	1	-1E+10	1	-1E+10	1
4901784	201	C	01/04/2021	10:42	-134.345	43.576	0	1399.90	0	2.7690	0	37.4160	8	29.848	0	1384.067	0	20.8	4	6.5	4	-1E+10	1	-1E+10	1	-1E+10	1	-1E+10	1	-1E+10	1	-1E+10	1
4901784	201	C	01/04/2021	10:42	-134.345	43.576	0	1404.70	0	2.7590	0	37.4310	8	29.861	0	1388.797	0	21.0	4	6.6	4	-1E+10	1	-1E+10	1	-1E+10	1	-1E+10	1	-1E+10	1	-1E+10	1
4901784	201	C	01/04/2021	10:42	-134.345	43.576	0	1410.40	0	2.7480	0	37.4310	8	29.862	0	1394.413	0	21.2	4	6.7	4	-1E+10	1	-1E+10	1	-1E+10	1	-1E+10	1	-1E+10	1	-1E+10	1
4901784	201	C	01/04/2021	10:42	-134.345	43.576	0	1415.20	0	2.7350	0	37.4320	8	29.864	0	1399.143	0	21.4	4	6.7	4	-1E+10	1	-1E+10	1	-1E+10	1	-1E+10	1	-1E+10	1	-1E+10	1
4901784	201	C	01/04/2021	10:42	-134.345	43.576	0	1419.80	0	2.7310	0	37.4330	8	29.865	0	1403.676	0	21.5	4	6.8	4	-1E+10	1	-1E+10	1	-1E+10	1	-1E+10	1	-1E+10	1	-1E+10	1
4901784	201	C	01/04/2021	10:42	-134.345	43.576	0	1424.80	0	2.7230	0	37.4350	8	29.868	0	1408.602	0	21.8	4	6.8	4	-1E+10	1	-1E+10	1	-1E+10	1	-1E+10	1	-1E+10	1	-1E+10	1
4901784	201	C	01/04/2021	10:42	-134.345	43.576	0	1429.70	0	2.7120	0	37.4350	8	29.869	0	1413.430	0	22.1	4	6.9	4	-1E+10	1	-1E+10	1	-1E+10	1	-1E+10	1	-1E+10	1	-1E+10	1
4901784	201	C	01/04/2021	10:42	-134.345	43.576	0	1434.80	0	2.7070	0	37.4440	8	29.876	0	1418.455	0	22.6	4	7.1	4	-1E+10	1	-1E+10	1	-1E+10	1	-1E+10	1	-1E+10	1	-1E+10	1
4901784	201	C	01/04/2021	10:42	-134.345	43.576	0	1439.90	0	2.7040	0	37.4480	8	29.880	0	1423.480	0	23.1	4	7.2	4	-1E+10	1	-1E+10	1	-1E+10	1	-1E+10	1	-1E+10	1	-1E+10	1
4901784	201	C	01/04/2021	10:42	-134.345	43.576	0	1445.00	0	2.6950	0	37.4450	8	29.878	0	1428.504	0	23.2	4	7.3	4	-1E+10	1	-1E+10	1	-1E+10	1	-1E+10	1	-1E+10	1	-1E+10	1
4901784	201	C	01/04/2021	10:42	-134.345	43.576	0	1450.10	0	2.6830	0	37.4510	8	29.884	0	1433.529	0	23.2	4	7.3	4	-1E+10	1	-1E+10	1	-1E+10	1	-1E+10	1	-1E+10	1	-1E+10	1
4901784	201	C	01/04/2021	10:42	-134.345	43.576	0	1455.20	0	2.6760	0	37.4650	8	29.896	0	1438.553	0	23.2	4	7.3	4	-1E+10	1	-1E+10	1	-1E+10	1	-1E+10	1	-1E+10	1	-1E+10	1
4901784	201	C	01/04/2021	10:42	-134.345	43.576	0	1460.40	0	2.6650	0	37.4780	8	29.908	0	1443.676	0	23.5	4	7.4	4	-1E+10	1	-1E+10	1	-1E+10	1	-1E+10	1	-1E+10	1	-1E+10	1
4901784	201	C	01/04/2021	10:42	-134.345	43.576	0	1465.60	0	2.6510	0	37.4790	8	29.910	0	1448.798	0	23.9	4	7.5	4	-1E+10	1	-1E+10	1	-1E+10	1	-1E+10	1	-1E+10	1	-1E+10	1
4901784	201	C	01/04/2021	10:42	-134.345	43.576	0	1470.80	0	2.6440	0	37.4730	8	29.906	0	1453.921	0	24.1	4	7.5	4	-1E+10	1	-1E+10	1	-1E+10	1	-1E+10	1	-1E+10	1	-1E+10	1
4901784	201	C	01/04/2021	10:42	-134.345	43.576	0	1475.10	0	2.6400	0	37.4720	8	29.905	0	1458.157	0	24.3	4	7.6	4	-1E+10	1	-1E+10	1	-1E+10	1	-1E+10	1	-1E+10	1	-1E+10	1
4901784	201	C	01/04/2021	10:42	-134.345	43.576	0	1479.40	0	2.6350	0	37.4610	8	29.897	0	1462.392	0	24.5	4	7.7	4	-1E+10	1	-1E+10	1	-1E+10	1	-1E+10	1	-1E+10	1	-1E+10	1
4901784	201	C	01/04/2021	10:42	-134.345	43.576	0	1484.60	0	2.6280	0	37.4610	8	29.898	0	1467.515	0	24.7	4	7.7	4	-1E+10	1	-1E+10	1	-1E+10	1	-1E+10	1	-1E+10	1	-1E+10	1
4901784	201	C	01/04/2021	10:42	-134.345	43.576	0	1489.80	0	2.6180	0	37.4720	8	29.908	0	1472.637	0	25.1	4	7.9	4	-1E+10	1	-1E+10	1	-1E+10	1	-1E+10	1	-1E+10	1	-1E+10	1
4901784	201	C	01/04/2021	10:42	-134.345	43.576	0	1495.10	0	2.6070	0	37.4820	8	29.917	0	1477.857	0	25.4	4	8.0	4	-1E+10	1	-1E+10	1	-1E+10	1	-1E+10	1	-1E+10	1	-1E+10	1
4901784	201	C	01/04/2021	10:42	-134.345	43.576	0	1500.30	0	2.6000	0	37.4790	8	29.915	0	1482.979	0	25.8	4	8.1	4	-1E+10	1	-1E+10	1	-1E+10	1	-1E+10	1	-1E+10	1	-1E+10	1
4901784	201	C	01/04/2021	10:42	-134.345	43.576	0	1505.50	0	2.5840	0	37.4820	8	29.919	0	1488.101	0	26.2	4	8.2	4	-1E+10	1	-1E+10	1	-1E+10	1	-1E+10	1	-1E+10	1	-1E+10	1
4901784	201	C	01/04/2021	10:42	-134.345	43.576	0	1509.90	0	2.5800	0	37.4800	8	29.918	0	1492.434	0	26.4	4	8.3	4	-1E+10	1	-1E+10	1	-1E+10	1	-1E+10	1	-1E+10	1	-1E+10	1
4901784	201	C	01/04/2021	10:42	-134.345	43.576	0	1514.40	0	2.5720	0	37.4830	8	29.921	0	1496.866	0	26.7	4	8.3	4	-1E+10	1	-1E+10	1	-1E+10	1	-1E+10	1	-1E+10	1	-1E+10	1
4901784	201	C	01/04/2021	10:42	-134.345	43.576	0	1519.70	0	2.5580	0	37.4780	8	29.918	0	1502.086	0	27.0	4	8.4	4	-1E+10	1	-1E+10	1	-1E+10	1	-1E+10	1	-1E+10	1	-1E+10	1
4901784	201	C	01/04/2021	10:42	-134.345	43.576	0	1525.00	0	2.5470	0	37.4860	8	29.926	0	1507.306	0	27.3	4	8.5	4	-1E+10	1	-1E+10	1	-1E+10	1	-1E+10	1	-1E+10	1	-1E+10	1
4901784	201	C	01/04/2021	10:42	-134.345	43.576	0	1530.30	0	2.5350	0	37.4800	8	29.922	0	1512.525	0	27.5	4	8.6	4	-1E+10	1	-1E+10	1	-1E+10	1	-1E+10	1	-1E+10	1	-1E+10	1
4901784	201	C	01/04/2021	10:42	-134.345	43.576	0	1535.70	0	2.5280	0	37.4840	8	29.926	0	1517.843	0	27.7	4	8.7	4	-1E+10	1	-1E+10	1	-1E+10	1	-1E+10	1	-1E+10	1	-1E+10	1
4901784	201	C	01/04/2021	10:42	-134.345	43.576	0	1540.10	0	2.5190	0	37.4760	8	29.920	0	1522.176	0	28.1	4	8.8	4	-1E+10	1	-1E+10	1	-1E+10	1	-1E+10	1	-1E+10	1	-1E+10	1
4901784	201	C	01/04/2021	10:42	-134.345	43.576	0	1544.60	0	2.5050	0	37.4800	8	29.925	0	1526.608	0	28.4	4	8.9	4	-1E+10	1	-1E+10	1	-1E+10	1	-1E+10	1	-1E+10	1	-1E+10	1
4901784	201	C	01/04/2021	10:42	-134.345	43.576	0	1550.00	0	2.4910	0	37.4790	8	29.925	0	1531.925	0	28.9	4	9.0	4	-1E+10	1	-1E+10	1	-1E+10	1	-1E+10	1	-1E+10	1	-1E+10	1
4901784	201	C	01/04/2021	10:42	-134.345	43.576	0	1555.40	0	2.4830	0	37.4810	8	29.928	0	1537.243	0	29.2	4	9.1	4	-1E+10	1	-1E+10	1	-1E+10	1	-1E+10	1	-1E+10	1	-1E+10	1
4901784	201	C	01/04/2021	10:42	-134.345	43.576	0	1560.70	0	2.4760	0	37.4960	8	29.940	0	1542.461	0	29.6	4	9.2	4	-1E+10	1	-1E+10	1	-1E+10	1	-1E+10	1	-1E+10	1	-1E+10	1
4901784	201	C	01/04/2021	10:42	-134.345	43.576	0	1565.20	0	2.4690	0	37.4950	8	29.940	0	1546.892	0	29.9	4	9.3	4	-1E+10	1	-1E+10	1	-1E+10	1	-1E+10	1	-1E+10	1	-1E+10	1
4901784	201	C	01/04/2021	10:42	-134.345	43.576	0	1569.70	0	2.4610	0	37.4930	8	29.939	0	1551.323	0	30.1	4	9.4	4	-1E+10	1	-1E+10	1	-1E+10	1	-1E+10	1	-1E+10	1	-1E+10	1
4901784	201	C	01/04/2021	10:42	-134.345	43.576	0	1575.20	0	2.4560	0	37.5040	8	29.949	0	1556.739	0	30.3	4	9.4	4	-1E+10	1	-1E+10	1	-1E+10	1	-1E+10	1	-1E+10	1	-1E+10	1
4901784	201	C	01/04/2021	10:42	-134.345	43.576	0	1580.70	0	2.4510	0	37.4950	8	29.942	0	1562.154	0	30.6	4	9.5	4	-1E+10	1	-1E+10	1	-1E+10	1	-1E+10	1	-1E+10	1	-1E+10	1
4901784	201	C	01/04/2021	10:42	-134.345	43.576	0	1585.30	0	2.4470	0	37.4910	8	29.939	0	1566.683	0	30.8	4	9.6	4	-1E+10	1	-1E+10	1	-1E+10	1	-1E+10	1	-1E+10	1	-1E+10	1
4901784	201	C	01/04/2021	10:42	-134.345	43.576	0	1589.90	0	2.4400	0	37.4930	8	29.942	0	1571.212	0	31.2	4	9.7	4	-1E+10	1	-1E+10	1	-1E+10	1	-1E+10	1	-1E+10	1	-1E+10	1
4901784	201	C	01/04/2021	10:42	-134.345	43.576	0	1595.40	0	2.4290	0	37.4960	8	29.945	0	1576.627	0	31.7	4	9.9	4	-1E+10	1	-1E+10	1	-1E+10	1	-1E+10	1	-1E+10	1	-1E+10	1
4901784	201	C	01/04/2021	10:42	-134.345	43.576	0	1600.00	0	2.4230	0	37.4870	8	29.938	0	1581.155	0	31.9	4	10.0	4	-1E+10	1	-1E+10	1	-1E+10	1	-1E+10	1	-1E+10	1	-1E+10	1
4901784	201	C	01/04/2021	10:42	-134.345	43.576	0	1604.90	0	2.4130	0	37.4860	8	29.938	0	1585.979	0	32.2	4	10.0	4	-1E+10	1	-1E+10	1	-1E+10	1	-1E+10	1	-1E+10	1	-1E+10	1
4901784	201	C	01/04/2021	10:42	-134.345	43.576	0	1610.10	0	2.4020	0	37.4860	8	29.939	0	1591.098	0	32.6	4	10.1	4	-1E+10	1	-1E+10	1	-1E+10	1	-1E+10	1	-1E+10	1	-1E+10	1
4901784	201	C	01/04/2021	10:42	-134.345	43.576	0	1614.90	0	2.3870	0	37.4910	8	29.945	0	1595.824	0	33.0	4	10.3	4	-1E+10	1	-1E+10	1	-1E+10	1	-1E+10	1	-1E+10	1	-1E+10	1
4901784	201	C	01/04/2021	10:42	-134.345	43.576	0	1619.70	0	2.3770	0	37.4950	8	29.949	0	1600.549	0	33.4	4	10.4	4	-1E+10	1	-1E+10	1	-1E+10	1	-1E+10	1	-1E+10	1	-1E+10	1
4901784	201	C	01/04/2021	10:42	-134.345	43.576	0	1624.50	0	2.3700	0	37.4850	8	29.942	0	1605.274	0	33.8	4	10.5	4	-1E+10	1	-1E+10	1	-1E+10	1	-1E+10	1	-1E+10	1	-1E+10	1
4901784	201	C	01/04/2021	10:42	-134.345	43.576	0	1629.40	0	2.3610	0	37.4920	8	29.948	0	1610.097	0	34.1	4	10.6	4	-1E+10	1	-1E+10	1	-1E+10	1	-1E+10	1	-1E+10	1	-1E+10	1
4901784	201	C	01/04/2021	10:42	-134.345	43.576	0	1634.30	0	2.3560	0	37.4920	8	29.949	0	1614.921	0	34.6	4	10.8	4	-1E+10	1	-1E+10	1	-1E+10	1	-1E+10	1	-1E+10	1	-1E+10	1
4901784	201	C	01/04/2021	10:42	-134.345	43.576	0	1639.30	0	2.3490	0	37.4830	8	29.942	0	1619.842	0	35.1	4	10.9	4	-1E+10	1	-1E+10	1	-1E+10	1	-1E+10	1	-1E+10	1	-1E+10	1
4901784	201	C	01/04/2021	10:42	-134.345	43.576	0	1645.00	0	2.3360	0	37.4900	8	29.949	0	1625.453	0	35.5	4	11.0	4	-1E+10	1	-1E+10	1	-1E+10	1	-1E+10	1	-1E+10	1	-1E+10	1
4901784	201	C	01/04/2021	10:42	-134.345	43.576	0	1650.80	0	2.3270	0	37.4870	8	29.947	0	1631.162	0	35.8	4	11.1	4	-1E+10	1	-1E+10	1	-1E+10	1	-1E+10	1	-1E+10	1	-1E+10	1
4901784	201	C	01/04/2021	10:42	-134.345	43.576	0	1655.70	0	2.3210	0	37.4820	8	29.944	0	1635.984	0	36.0	4	11.2	4	-1E+10	1	-1E+10	1	-1E+10	1	-1E+10	1	-1E+10	1	-1E+10	1
4901784	201	C	01/04/2021	10:42	-134.345	43.576	0	1660.70	0	2.3120	0	37.4790	8	29.942	0	1640.905	0	36.2	4	11.3	4	-1E+10	1	-1E+10	1	-1E+10	1	-1E+10	1	-1E+10	1	-1E+10	1
4901784	201	C	01/04/2021	10:42	-134.345	43.576	0	1665.80	0	2.3060	0	37.4840	8	29.947	0	1645.925	0	36.5	4	11.3	4	-1E+10	1	-1E+10	1	-1E+10	1	-1E+10	1	-1E+10	1	-1E+10	1
4901784	201	C	01/04/2021	10:42	-134.345	43.576	0	1670.00	0	2.2990	0	37.4810	8	29.945	0	1650.058	0	36.9	4	11.5	4	-1E+10	1	-1E+10	1	-1E+10	1	-1E+10	1	-1E+10	1	-1E+10	1
4901784	201	C	01/04/2021	10:42	-134.345	43.576	0	1674.40	0	2.2890	0	37.4780	8	29.944	0	1654.389	0	37.2	4	11.5	4	-1E+10	1	-1E+10	1	-1E+10	1	-1E+10	1	-1E+10	1	-1E+10	1
4901784	201	C	01/04/2021	10:42	-134.345	43.576	0	1679.50	0	2.2810	0	37.4800	8	29.946	0	1659.408	0	37.6	4	11.7	4	-1E+10	1	-1E+10	1	-1E+10	1	-1E+10	1	-1E+10	1	-1E+10	1
4901784	201	C	01/04/2021	10:42	-134.345	43.576	0	1684.70	0	2.2720	0	37.4790	8	29.946	0	1664.525	0	38.0	4	11.8	4	-1E+10	1	-1E+10	1	-1E+10	1	-1E+10	1	-1E+10	1	-1E+10	1
4901784	201	C	01/04/2021	10:42	-134.345	43.576	0	1689.90	0	2.2640	0	37.4860	8	29.952	0	1669.642	0	38.5	4	11.9	4	-1E+10	1	-1E+10	1	-1E+10	1	-1E+10	1	-1E+10	1	-1E+10	1
4901784	201	C	01/04/2021	10:42	-134.345	43.576	0	1695.10	0	2.2590	0	37.4830	8	29.950	0	1674.760	0	38.8	4	12.0	4	-1E+10	1	-1E+10	1	-1E+10	1	-1E+10	1	-1E+10	1	-1E+10	1
4901784	201	C	01/04/2021	10:42	-134.345	43.576	0	1700.30	0	2.2550	0	37.4850	8	29.952	0	1679.877	0	39.0	4	12.1	4	-1E+10	1	-1E+10	1	-1E+10	1	-1E+10	1	-1E+10	1	-1E+10	1
4901784	201	C	01/04/2021	10:42	-134.345	43.576	0	1705.50	0	2.2530	0	37.4890	8	29.956	0	1684.993	0	39.2	4	12.2	4	-1E+10	1	-1E+10	1	-1E+10	1	-1E+10	1	-1E+10	1	-1E+10	1
4901784	201	C	01/04/2021	10:42	-134.345	43.576	0	1710.00	0	2.2460	0	37.4770	8	29.947	0	1689.421	0	39.4	4	12.2	4	-1E+10	1	-1E+10	1	-1E+10	1	-1E+10	1	-1E+10	1	-1E+10	1
4901784	201	C	01/04/2021	10:42	-134.345	43.576	0	1714.40	0	2.2410	0	37.4800	8	29.950	0	1693.751	0	39.8	4	12.4	4	-1E+10	1	-1E+10	1	-1E+10	1	-1E+10	1	-1E+10	1	-1E+10	1
4901784	201	C	01/04/2021	10:42	-134.345	43.576	0	1719.70	0	2.2390	0	37.4800	8	29.950	0	1698.966	0	40.1	4	12.4	4	-1E+10	1	-1E+10	1	-1E+10	1	-1E+10	1	-1E+10	1	-1E+10	1
4901784	201	C	01/04/2021	10:42	-134.345	43.576	0	1725.10	0	2.2280	0	37.4840	8	29.954	0	1704.279	0	40.3	4	12.5	4	-1E+10	1	-1E+10	1	-1E+10	1	-1E+10	1	-1E+10	1	-1E+10	1
4901784	201	C	01/04/2021	10:42	-134.345	43.576	0	1730.50	0	2.2170	0	37.4850	8	29.956	0	1709.592	0	40.7	4	12.6	4	-1E+10	1	-1E+10	1	-1E+10	1	-1E+10	1	-1E+10	1	-1E+10	1
4901784	201	C	01/04/2021	10:42	-134.345	43.576	0	1735.00	0	2.2120	0	37.4870	8	29.958	0	1714.020	0	41.0	4	12.7	4	-1E+10	1	-1E+10	1	-1E+10	1	-1E+10	1	-1E+10	1	-1E+10	1
4901784	201	C	01/04/2021	10:42	-134.345	43.576	0	1739.50	0	2.2060	0	37.4890	8	29.960	0	1718.447	0	41.4	4	12.8	4	-1E+10	1	-1E+10	1	-1E+10	1	-1E+10	1	-1E+10	1	-1E+10	1
4901784	201	C	01/04/2021	10:42	-134.345	43.576	0	1744.80	0	2.1940	0	37.4850	8	29.958	0	1723.661	0	41.9	4	13.0	4	-1E+10	1	-1E+10	1	-1E+10	1	-1E+10	1	-1E+10	1	-1E+10	1
4901784	201	C	01/04/2021	10:42	-134.345	43.576	0	1750.30	0	2.1880	0	37.4950	8	29.967	0	1729.072	0	42.3	4	13.1	4	-1E+10	1	-1E+10	1	-1E+10	1	-1E+10	1	-1E+10	1	-1E+10	1
4901784	201	C	01/04/2021	10:42	-134.345	43.576	0	1754.90	0	2.1820	0	37.4950	8	29.967	0	1733.598	0	42.7	4	13.2	4	-1E+10	1	-1E+10	1	-1E+10	1	-1E+10	1	-1E+10	1	-1E+10	1
4901784	201	C	01/04/2021	10:42	-134.345	43.576	0	1759.80	0	2.1760	0	37.4930	8	29.966	0	1738.418	0	43.1	4	13.3	4	-1E+10	1	-1E+10	1	-1E+10	1	-1E+10	1	-1E+10	1	-1E+10	1
4901784	201	C	01/04/2021	10:42	-134.345	43.576	0	1765.00	0	2.1680	0	37.4880	8	29.963	0	1743.534	0	43.5	4	13.5	4	-1E+10	1	-1E+10	1	-1E+10	1	-1E+10	1	-1E+10	1	-1E+10	1
4901784	201	C	01/04/2021	10:42	-134.345	43.576	0	1769.80	0	2.1600	0	37.4860	8	29.962	0	1748.256	0	43.9	4	13.6	4	-1E+10	1	-1E+10	1	-1E+10	1	-1E+10	1	-1E+10	1	-1E+10	1
4901784	201	C	01/04/2021	10:42	-134.345	43.576	0	1774.70	0	2.1550	0	37.4850	8	29.962	0	1753.076	0	44.3	4	13.7	4	-1E+10	1	-1E+10	1	-1E+10	1	-1E+10	1	-1E+10	1	-1E+10	1
4901784	201	C	01/04/2021	10:42	-134.345	43.576	0	1779.70	0	2.1450	0	37.4840	8	29.962	0	1757.994	0	44.8	4	13.8	4	-1E+10	1	-1E+10	1	-1E+10	1	-1E+10	1	-1E+10	1	-1E+10	1
4901784	201	C	01/04/2021	10:42	-134.345	43.576	0	1784.60	0	2.1360	0	37.4840	8	29.963	0	1762.814	0	45.1	4	14.0	4	-1E+10	1	-1E+10	1	-1E+10	1	-1E+10	1	-1E+10	1	-1E+10	1
4901784	201	C	01/04/2021	10:42	-134.345	43.576	0	1789.50	0	2.1280	0	37.4840	8	29.963	0	1767.634	0	45.7	4	14.1	4	-1E+10	1	-1E+10	1	-1E+10	1	-1E+10	1	-1E+10	1	-1E+10	1
4901784	201	C	01/04/2021	10:42	-134.345	43.576	0	1794.50	0	2.1270	0	37.4850	8	29.964	0	1772.552	0	46.2	4	14.3	4	-1E+10	1	-1E+10	1	-1E+10	1	-1E+10	1	-1E+10	1	-1E+10	1
4901784	201	C	01/04/2021	10:42	-134.345	43.576	0	1799.50	0	2.1190	0	37.4840	8	29.964	0	1777.470	0	46.5	4	14.4	4	-1E+10	1	-1E+10	1	-1E+10	1	-1E+10	1	-1E+10	1	-1E+10	1
4901784	201	C	01/04/2021	10:42	-134.345	43.576	0	1804.60	0	2.1110	0	37.4830	8	29.964	0	1782.486	0	46.8	4	14.5	4	-1E+10	1	-1E+10	1	-1E+10	1	-1E+10	1	-1E+10	1	-1E+10	1
4901784	201	C	01/04/2021	10:42	-134.345	43.576	0	1809.60	0	2.1060	0	37.4840	8	29.965	0	1787.404	0	47.2	4	14.6	4	-1E+10	1	-1E+10	1	-1E+10	1	-1E+10	1	-1E+10	1	-1E+10	1
4901784	201	C	01/04/2021	10:42	-134.345	43.576	0	1814.60	0	2.1020	0	37.4830	8	29.965	0	1792.321	0	47.4	4	14.7	4	-1E+10	1	-1E+10	1	-1E+10	1	-1E+10	1	-1E+10	1	-1E+10	1
4901784	201	C	01/04/2021	10:42	-134.345	43.576	0	1819.60	0	2.0970	0	37.4820	8	29.965	0	1797.239	0	47.7	4	14.8	4	-1E+10	1	-1E+10	1	-1E+10	1	-1E+10	1	-1E+10	1	-1E+10	1
4901784	201	C	01/04/2021	10:42	-134.345	43.576	0	1824.70	0	2.0920	0	37.4840	8	29.967	0	1802.254	0	48.1	4	14.9	4	-1E+10	1	-1E+10	1	-1E+10	1	-1E+10	1	-1E+10	1	-1E+10	1
4901784	201	C	01/04/2021	10:42	-134.345	43.576	0	1829.70	0	2.0890	0	37.4840	8	29.967	0	1807.172	0	48.3	4	14.9	4	-1E+10	1	-1E+10	1	-1E+10	1	-1E+10	1	-1E+10	1	-1E+10	1
4901784	201	C	01/04/2021	10:42	-134.345	43.576	0	1834.90	0	2.0830	0	37.4830	8	29.967	0	1812.286	0	48.5	4	15.0	4	-1E+10	1	-1E+10	1	-1E+10	1	-1E+10	1	-1E+10	1	-1E+10	1
4901784	201	C	01/04/2021	10:42	-134.345	43.576	0	1840.00	0	2.0760	0	37.4830	8	29.967	0	1817.301	0	48.8	4	15.1	4	-1E+10	1	-1E+10	1	-1E+10	1	-1E+10	1	-1E+10	1	-1E+10	1
4901784	201	C	01/04/2021	10:42	-134.345	43.576	0	1845.10	0	2.0670	0	37.4840	8	29.969	0	1822.316	0	49.3	4	15.2	4	-1E+10	1	-1E+10	1	-1E+10	1	-1E+10	1	-1E+10	1	-1E+10	1
4901784	201	C	01/04/2021	10:42	-134.345	43.576	0	1850.40	0	2.0620	0	37.4850	8	29.970	0	1827.528	0	49.6	4	15.3	4	-1E+10	1	-1E+10	1	-1E+10	1	-1E+10	1	-1E+10	1	-1E+10	1
4901784	201	C	01/04/2021	10:42	-134.345	43.576	0	1855.60	0	2.0580	0	37.4860	8	29.972	0	1832.641	0	49.9	4	15.4	4	-1E+10	1	-1E+10	1	-1E+10	1	-1E+10	1	-1E+10	1	-1E+10	1
4901784	201	C	01/04/2021	10:42	-134.345	43.576	0	1860.00	0	2.0500	0	37.4870	8	29.973	0	1836.968	0	50.0	4	15.4	4	-1E+10	1	-1E+10	1	-1E+10	1	-1E+10	1	-1E+10	1	-1E+10	1
4901784	201	C	01/04/2021	10:42	-134.345	43.576	0	1864.50	0	2.0470	0	37.4870	8	29.973	0	1841.393	0	50.2	4	15.5	4	-1E+10	1	-1E+10	1	-1E+10	1	-1E+10	1	-1E+10	1	-1E+10	1
4901784	201	C	01/04/2021	10:42	-134.345	43.576	0	1869.90	0	2.0460	0	37.4870	8	29.973	0	1846.702	0	50.5	4	15.6	4	-1E+10	1	-1E+10	1	-1E+10	1	-1E+10	1	-1E+10	1	-1E+10	1
4901784	201	C	01/04/2021	10:42	-134.345	43.576	0	1875.20	0	2.0410	0	37.4880	8	29.975	0	1851.913	0	50.7	4	15.6	4	-1E+10	1	-1E+10	1	-1E+10	1	-1E+10	1	-1E+10	1	-1E+10	1
4901784	201	C	01/04/2021	10:42	-134.345	43.576	0	1879.80	0	2.0350	0	37.4890	8	29.976	0	1856.436	0	51.0	4	15.7	4	-1E+10	1	-1E+10	1	-1E+10	1	-1E+10	1	-1E+10	1	-1E+10	1
4901784	201	C	01/04/2021	10:42	-134.345	43.576	0	1884.30	0	2.0320	0	37.4900	8	29.977	0	1860.861	0	51.3	4	15.8	4	-1E+10	1	-1E+10	1	-1E+10	1	-1E+10	1	-1E+10	1	-1E+10	1
4901784	201	C	01/04/2021	10:42	-134.345	43.576	0	1889.80	0	2.0300	0	37.4910	8	29.978	0	1866.268	0	51.8	4	16.0	4	-1E+10	1	-1E+10	1	-1E+10	1	-1E+10	1	-1E+10	1	-1E+10	1
4901784	201	C	01/04/2021	10:42	-134.345	43.576	0	1895.20	0	2.0260	0	37.4920	8	29.979	0	1871.577	0	52.0	4	16.0	4	-1E+10	1	-1E+10	1	-1E+10	1	-1E+10	1	-1E+10	1	-1E+10	1
4901784	201	C	01/04/2021	10:42	-134.345	43.576	0	1900.60	0	2.0180	0	37.4920	8	29.980	0	1876.886	0	52.1	4	16.1	4	-1E+10	1	-1E+10	1	-1E+10	1	-1E+10	1	-1E+10	1	-1E+10	1
4901784	201	C	01/04/2021	10:42	-134.345	43.576	0	1905.40	0	2.0170	0	37.4920	8	29.980	0	1881.605	0	52.4	4	16.2	4	-1E+10	1	-1E+10	1	-1E+10	1	-1E+10	1	-1E+10	1	-1E+10	1
4901784	201	C	01/04/2021	10:42	-134.345	43.576	0	1910.30	0	2.0150	0	37.4920	8	29.980	0	1886.422	0	52.8	4	16.3	4	-1E+10	1	-1E+10	1	-1E+10	1	-1E+10	1	-1E+10	1	-1E+10	1
4901784	201	C	01/04/2021	10:42	-134.345	43.576	0	1915.20	0	2.0110	0	37.4940	8	29.982	0	1891.239	0	53.2	4	16.4	4	-1E+10	1	-1E+10	1	-1E+10	1	-1E+10	1	-1E+10	1	-1E+10	1
4901784	201	C	01/04/2021	10:42	-134.345	43.576	0	1920.20	0	2.0090	0	37.4950	8	29.983	0	1896.154	0	53.5	4	16.5	4	-1E+10	1	-1E+10	1	-1E+10	1	-1E+10	1	-1E+10	1	-1E+10	1
4901784	201	C	01/04/2021	10:42	-134.345	43.576	0	1925.20	0	2.0060	0	37.4950	8	29.984	0	1901.069	0	53.7	4	16.6	4	-1E+10	1	-1E+10	1	-1E+10	1	-1E+10	1	-1E+10	1	-1E+10	1
4901784	201	C	01/04/2021	10:42	-134.345	43.576	0	1930.20	0	2.0020	0	37.4960	8	29.985	0	1905.984	0	54.0	4	16.6	4	-1E+10	1	-1E+10	1	-1E+10	1	-1E+10	1	-1E+10	1	-1E+10	1
4901784	201	C	01/04/2021	10:42	-134.345	43.576	0	1935.30	0	1.9980	0	37.4960	8	29.985	0	1910.997	0	54.2	4	16.7	4	-1E+10	1	-1E+10	1	-1E+10	1	-1E+10	1	-1E+10	1	-1E+10	1
4901784	201	C	01/04/2021	10:42	-134.345	43.576	0	1940.40	0	1.9950	0	37.4970	8	29.986	0	1916.010	0	54.4	4	16.8	4	-1E+10	1	-1E+10	1	-1E+10	1	-1E+10	1	-1E+10	1	-1E+10	1
4901784	201	C	01/04/2021	10:42	-134.345	43.576	0	1945.60	0	1.9900	0	37.4980	8	29.988	0	1921.122	0	54.7	4	16.9	4	-1E+10	1	-1E+10	1	-1E+10	1	-1E+10	1	-1E+10	1	-1E+10	1
4901784	201	C	01/04/2021	10:42	-134.345	43.576	0	1950.70	0	1.9880	0	37.4990	8	29.989	0	1926.134	0	55.0	4	17.0	4	-1E+10	1	-1E+10	1	-1E+10	1	-1E+10	1	-1E+10	1	-1E+10	1
4901784	201	C	01/04/2021	10:42	-134.345	43.576	0	1955.10	0	1.9890	0	37.4990	8	29.989	0	1930.459	0	55.3	4	17.1	4	-1E+10	1	-1E+10	1	-1E+10	1	-1E+10	1	-1E+10	1	-1E+10	1
4901784	201	C	01/04/2021	10:42	-134.345	43.576	0	1959.40	0	1.9860	0	37.5000	8	29.990	0	1934.685	0	55.5	4	17.1	4	-1E+10	1	-1E+10	1	-1E+10	1	-1E+10	1	-1E+10	1	-1E+10	1
4901784	201	C	01/04/2021	10:42	-134.345	43.576	0	1964.70	0	1.9810	0	37.5000	8	29.990	0	1939.894	0	55.7	4	17.2	4	-1E+10	1	-1E+10	1	-1E+10	1	-1E+10	1	-1E+10	1	-1E+10	1
4901784	201	C	01/04/2021	10:42	-134.345	43.576	0	1969.90	0	1.9780	0	37.5010	8	29.991	0	1945.005	0	56.2	4	17.3	4	-1E+10	1	-1E+10	1	-1E+10	1	-1E+10	1	-1E+10	1	-1E+10	1
4901784	201	C	01/04/2021	10:42	-134.345	43.576	0	1975.20	0	1.9740	0	37.5020	8	29.992	0	1950.214	0	56.4	4	17.4	4	-1E+10	1	-1E+10	1	-1E+10	1	-1E+10	1	-1E+10	1	-1E+10	1
4901784	201	C	01/04/2021	10:42	-134.345	43.576	0	1980.50	0	1.9720	0	37.5030	8	29.993	0	1955.422	0	56.8	4	17.5	4	-1E+10	1	-1E+10	1	-1E+10	1	-1E+10	1	-1E+10	1	-1E+10	1
4901784	201	C	01/04/2021	10:42	-134.345	43.576	0	1985.40	0	1.9690	0	37.5040	8	29.994	0	1960.238	0	57.0	4	17.6	4	-1E+10	1	-1E+10	1	-1E+10	1	-1E+10	1	-1E+10	1	-1E+10	1
4901784	201	C	01/04/2021	10:42	-134.345	43.576	0	1989.50	0	1.9660	0	37.5040	8	29.995	0	1964.267	0	57.2	4	17.6	4	-1E+10	1	-1E+10	1	-1E+10	1	-1E+10	1	-1E+10	1	-1E+10	1
4901784	201	C	01/04/2021	10:42	-134.345	43.576	0	1994.90	0	1.9610	0	37.5050	8	29.996	0	1969.574	0	57.5	4	17.7	4	-1E+10	1	-1E+10	1	-1E+10	1	-1E+10	1	-1E+10	1	-1E+10	1
4901784	201	C	01/04/2021	10:42	-134.345	43.576	0	2000.40	0	1.9590	0	37.5060	8	29.997	0	1974.978	0	57.7	4	17.8	4	-1E+10	1	-1E+10	1	-1E+10	1	-1E+10	1	-1E+10	1	-1E+10	1
4901784	201	C	01/04/2021	10:42	-134.345	43.576	0	2005.30	0	1.9580	0	37.5070	8	29.998	0	1979.793	0	57.8	4	17.8	4	-1E+10	1	-1E+10	1	-1E+10	1	-1E+10	1	-1E+10	1	-1E+10	1
4901784	201	C	01/04/2021	10:42	-134.345	43.576	0	2010.10	0	1.9540	0	37.5080	8	29.999	0	1984.510	0	58.1	4	17.9	4	-1E+10	1	-1E+10	1	-1E+10	1	-1E+10	1	-1E+10	1	-1E+10	1
4901784	201	C	01/04/2021	10:42	-134.345	43.576	0	2015.40	0	1.9500	0	37.5090	8	30.000	0	1989.718	0	58.2	4	17.9	4	-1E+10	1	-1E+10	1	-1E+10	1	-1E+10	1	-1E+10	1	-1E+10	1
4901784	201	C	01/04/2021	10:42	-134.345	43.576	0	2017.90	0	1.9520	0	37.5090	8	30.000	0	1992.174	0	56.1	4	17.3	4	-1E+10	1	-1E+10	1	-1E+10	1	-1E+10	1	-1E+10	1	-1E+10	1
4901784	201	C	01/04/2021	10:42	-134.345	43.576	0																										
4901784	202	C	01/14/2021	10:49	-134.382	43.539	0	2.20	0	12.2480	0	35.5860	8	26.997	0	2.182	0	247.7	4	95.0	4	-1E+10	1	-1E+10	1	-1E+10	1	-1E+10	1	-1E+10	1	-1E+10	1
4901784	202	C	01/14/2021	10:49	-134.382	43.539	0	3.20	0	12.2470	0	35.5870	8	26.998	0	3.174	0	247.7	4	95.0	4	-1E+10	1	-1E+10	1	-1E+10	1	-1E+10	1	-1E+10	1	-1E+10	1
4901784	202	C	01/14/2021	10:49	-134.382	43.539	0	4.50	0	12.2450	0	35.5880	8	26.999	0	4.464	0	247.6	4	94.9	4	-1E+10	1	-1E+10	1	-1E+10	1	-1E+10	1	-1E+10	1	-1E+10	1
4901784	202	C	01/14/2021	10:49	-134.382	43.539	0	6.00	0	12.2450	0	35.5890	8	27.000	0	5.952	0	247.6	4	94.9	4	-1E+10	1	-1E+10	1	-1E+10	1	-1E+10	1	-1E+10	1	-1E+10	1
4901784	202	C	01/14/2021	10:49	-134.382	43.539	0	7.50	0	12.2460	0	35.5900	8	27.001	0	7.440	0	247.6	4	94.9	4	-1E+10	1	-1E+10	1	-1E+10	1	-1E+10	1	-1E+10	1	-1E+10	1
4901784	202	C	01/14/2021	10:49	-134.382	43.539	0	9.10	0	12.2450	0	35.5910	8	27.002	0	9.027	0	247.7	4	94.9	4	-1E+10	1	-1E+10	1	-1E+10	1	-1E+10	1	-1E+10	1	-1E+10	1
4901784	202	C	01/14/2021	10:49	-134.382	43.539	0	10.70	0	12.2450	0	35.5920	8	27.002	0	10.614	0	247.5	4	94.9	4	-1E+10	1	-1E+10	1	-1E+10	1	-1E+10	1	-1E+10	1	-1E+10	1
4901784	202	C	01/14/2021	10:49	-134.382	43.539	0	12.40	0	12.2450	0	35.5930	8	27.003	0	12.301	0	247.6	4	94.9	4	-1E+10	1	-1E+10	1	-1E+10	1	-1E+10	1	-1E+10	1	-1E+10	1
4901784	202	C	01/14/2021	10:49	-134.382	43.539	0	14.10	0	12.2450	0	35.5930	8	27.003	0	13.987	0	247.6	4	94.9	4	-1E+10	1	-1E+10	1	-1E+10	1	-1E+10	1	-1E+10	1	-1E+10	1
4901784	202	C	01/14/2021	10:49	-134.382	43.539	0	15.80	0	12.2460	0	35.5940	8	27.004	0	15.673	0	247.6	4	94.9	4	-1E+10	1	-1E+10	1	-1E+10	1	-1E+10	1	-1E+10	1	-1E+10	1
4901784	202	C	01/14/2021	10:49	-134.382	43.539	0	17.60	0	12.2450	0	35.5950	8	27.005	0	17.459	0	247.4	4	94.9	4	-1E+10	1	-1E+10	1	-1E+10	1	-1E+10	1	-1E+10	1	-1E+10	1
4901784	202	C	01/14/2021	10:49	-134.382	43.539	0	19.40	0	12.2450	0	35.5960	8	27.006	0	19.244	0	247.3	4	94.8	4	-1E+10	1	-1E+10	1	-1E+10	1	-1E+10	1	-1E+10	1	-1E+10	1
4901784	202	C	01/14/2021	10:49	-134.382	43.539	0	21.40	0	12.2460	0	35.5970	8	27.006	0	21.228	0	247.4	4	94.9	4	-1E+10	1	-1E+10	1	-1E+10	1	-1E+10	1	-1E+10	1	-1E+10	1
4901784	202	C	01/14/2021	10:49	-134.382	43.539	0	23.20	0	12.2460	0	35.5980	8	27.007	0	23.013	0	247.2	4	94.8	4	-1E+10	1	-1E+10	1	-1E+10	1	-1E+10	1	-1E+10	1	-1E+10	1
4901784	202	C	01/14/2021	10:49	-134.382	43.539	0	25.00	0	12.2450	0	35.5990	8	27.008	0	24.799	0	247.3	4	94.8	4	-1E+10	1	-1E+10	1	-1E+10	1	-1E+10	1	-1E+10	1	-1E+10	1
4901784	202	C	01/14/2021	10:49	-134.382	43.539	0	26.90	0	12.2460	0	35.5990	8	27.008	0	26.683	0	247.3	4	94.8	4	-1E+10	1	-1E+10	1	-1E+10	1	-1E+10	1	-1E+10	1	-1E+10	1
4901784	202	C	01/14/2021	10:49	-134.382	43.539	0	28.70	0	12.2460	0	35.6000	8	27.009	0	28.469	0	247.2	4	94.8	4	-1E+10	1	-1E+10	1	-1E+10	1	-1E+10	1	-1E+10	1	-1E+10	1
4901784	202	C	01/14/2021	10:49	-134.382	43.539	0	30.50	0	12.2450	0	35.6020	8	27.011	0	30.254	0	247.2	4	94.8	4	-1E+10	1	-1E+10	1	-1E+10	1	-1E+10	1	-1E+10	1	-1E+10	1
4901784	202	C	01/14/2021	10:49	-134.382	43.539	0	32.30	0	12.2460	0	35.6020	8	27.011	0	32.040	0	247.3	4	94.8	4	-1E+10	1	-1E+10	1	-1E+10	1	-1E+10	1	-1E+10	1	-1E+10	1
4901784	202	C	01/14/2021	10:49	-134.382	43.539	0	34.00	0	12.2480	0	35.6020	8	27.010	0	33.726	0	247.1	4	94.7	4	-1E+10	1	-1E+10	1	-1E+10	1	-1E+10	1	-1E+10	1	-1E+10	1
4901784	202	C	01/14/2021	10:49	-134.382	43.539	0	35.80	0	12.2490	0	35.6030	8	27.011	0	35.511	0	247.3	4	94.8	4	-1E+10	1	-1E+10	1	-1E+10	1	-1E+10	1	-1E+10	1	-1E+10	1
4901784	202	C	01/14/2021	10:49	-134.382	43.539	0	37.60	0	12.2490	0	35.6040	8	27.012	0	37.296	0	247.1	4	94.8	4	-1E+10	1	-1E+10	1	-1E+10	1	-1E+10	1	-1E+10	1	-1E+10	1
4901784	202	C	01/14/2021	10:49	-134.382	43.539	0	39.50	0	12.2480	0	35.6050	8	27.013	0	39.181	0	247.1	4	94.8	4	-1E+10	1	-1E+10	1	-1E+10	1	-1E+10	1	-1E+10	1	-1E+10	1
4901784	202	C	01/14/2021	10:49	-134.382	43.539	0	41.30	0	12.2490	0	35.6060	8	27.013	0	40.966	0	247.0	4	94.7	4	-1E+10	1	-1E+10	1	-1E+10	1	-1E+10	1	-1E+10	1	-1E+10	1
4901784	202	C	01/14/2021	10:49	-134.382	43.539	0	43.00	0	12.2460	0	35.6080	8	27.016	0	42.652	0	246.9	4	94.7	4	-1E+10	1	-1E+10	1	-1E+10	1	-1E+10	1	-1E+10	1	-1E+10	1
4901784	202	C	01/14/2021	10:49	-134.382	43.539	0	44.80	0	12.2470	0	35.6090	8	27.016	0	44.438	0	247.1	4	94.8	4	-1E+10	1	-1E+10	1	-1E+10	1	-1E+10	1	-1E+10	1	-1E+10	1
4901784	202	C	01/14/2021	10:49	-134.382	43.539	0	46.60	0	12.2510	0	35.6090	8	27.015	0	46.223	0	247.0	4	94.7	4	-1E+10	1	-1E+10	1	-1E+10	1	-1E+10	1	-1E+10	1	-1E+10	1
4901784	202	C	01/14/2021	10:49	-134.382	43.539	0	48.40	0	12.2500	0	35.6100	8	27.016	0	48.008	0	246.7	4	94.6	4	-1E+10	1	-1E+10	1	-1E+10	1	-1E+10	1	-1E+10	1	-1E+10	1
4901784	202	C	01/14/2021	10:49	-134.382	43.539	0	50.10	0	12.2480	0	35.6120	8	27.018	0	49.694	0	246.9	4	94.7	4	-1E+10	1	-1E+10	1	-1E+10	1	-1E+10	1	-1E+10	1	-1E+10	1
4901784	202	C	01/14/2021	10:49	-134.382	43.539	0	51.80	0	12.2490	0	35.6120	8	27.018	0	51.380	0	246.7	4	94.6	4	-1E+10	1	-1E+10	1	-1E+10	1	-1E+10	1	-1E+10	1	-1E+10	1
4901784	202	C	01/14/2021	10:49	-134.382	43.539	0	53.50	0	12.2480	0	35.6130	8	27.019	0	53.066	0	246.8	4	94.7	4	-1E+10	1	-1E+10	1	-1E+10	1	-1E+10	1	-1E+10	1	-1E+10	1
4901784	202	C	01/14/2021	10:49	-134.382	43.539	0	55.10	0	12.2480	0	35.6150	8	27.021	0	54.653	0	246.7	4	94.6	4	-1E+10	1	-1E+10	1	-1E+10	1	-1E+10	1	-1E+10	1	-1E+10	1
4901784	202	C	01/14/2021	10:49	-134.382	43.539	0	56.80	0	12.2480	0	35.6150	8	27.021	0	56.339	0	246.6	4	94.6	4	-1E+10	1	-1E+10	1	-1E+10	1	-1E+10	1	-1E+10	1	-1E+10	1
4901784	202	C	01/14/2021	10:49	-134.382	43.539	0	58.50	0	12.2480	0	35.6160	8	27.022	0	58.025	0	246.8	4	94.6	4	-1E+10	1	-1E+10	1	-1E+10	1	-1E+10	1	-1E+10	1	-1E+10	1
4901784	202	C	01/14/2021	10:49	-134.382	43.539	0	60.10	0	12.2460	0	35.6180	8	27.024	0	59.611	0	246.6	4	94.6	4	-1E+10	1	-1E+10	1	-1E+10	1	-1E+10	1	-1E+10	1	-1E+10	1
4901784	202	C	01/14/2021	10:49	-134.382	43.539	0	61.80	0	12.2470	0	35.6190	8	27.024	0	61.297	0	246.5	4	94.5	4	-1E+10	1	-1E+10	1	-1E+10	1	-1E+10	1	-1E+10	1	-1E+10	1
4901784	202	C	01/14/2021	10:49	-134.382	43.539	0	63.50	0	12.2470	0	35.6200	8	27.025	0	62.983	0	246.4	4	94.5	4	-1E+10	1	-1E+10	1	-1E+10	1	-1E+10	1	-1E+10	1	-1E+10	1
4901784	202	C	01/14/2021	10:49	-134.382	43.539	0	65.10	0	12.2480	0	35.6200	8	27.025	0	64.570	0	246.4	4	94.5	4	-1E+10	1	-1E+10	1	-1E+10	1	-1E+10	1	-1E+10	1	-1E+10	1
4901784	202	C	01/14/2021	10:49	-134.382	43.539	0	66.90	0	12.2490	0	35.6220	8	27.026	0	66.355	0	246.1	4	94.4	4	-1E+10	1	-1E+10	1	-1E+10	1	-1E+10	1	-1E+10	1	-1E+10	1
4901784	202	C	01/14/2021	10:49	-134.382	43.539	0	68.50	0	12.2500	0	35.6230	8	27.027	0	67.942	0	246.3	4	94.5	4	-1E+10	1	-1E+10	1	-1E+10	1	-1E+10	1	-1E+10	1	-1E+10	1
4901784	202	C	01/14/2021	10:49	-134.382	43.539	0	70.30	0	12.2490	0	35.6240	8	27.028	0	69.727	0	246.1	4	94.4	4	-1E+10	1	-1E+10	1	-1E+10	1	-1E+10	1	-1E+10	1	-1E+10	1
4901784	202	C	01/14/2021	10:49	-134.382	43.539	0	71.90	0	12.2500	0	35.6250	8	27.029	0	71.314	0	245.9	4	94.3	4	-1E+10	1	-1E+10	1	-1E+10	1	-1E+10	1	-1E+10	1	-1E+10	1
4901784	202	C	01/14/2021	10:49	-134.382	43.539	0	73.60	0	12.2480	0	35.6270	8	27.031	0	72.999	0	245.9	4	94.3	4	-1E+10	1	-1E+10	1	-1E+10	1	-1E+10	1	-1E+10	1	-1E+10	1
4901784	202	C	01/14/2021	10:49	-134.382	43.539	0	75.20	0	12.2510	0	35.6260	8	27.029	0	74.586	0	245.7	4	94.2	4	-1E+10	1	-1E+10	1	-1E+10	1	-1E+10	1	-1E+10	1	-1E+10	1
4901784	202	C	01/14/2021	10:49	-134.382	43.539	0	76.80	0	12.2510	0	35.6280	8	27.031	0	76.173	0	245.7	4	94.2	4	-1E+10	1	-1E+10	1	-1E+10	1	-1E+10	1	-1E+10	1	-1E+10	1
4901784	202	C	01/14/2021	10:49	-134.382	43.539	0	78.40	0	12.2510	0	35.6290	8	27.032	0	77.759	0	245.7	4	94.2	4	-1E+10	1	-1E+10	1	-1E+10	1	-1E+10	1	-1E+10	1	-1E+10	1
4901784	202	C	01/14/2021	10:49	-134.382	43.539	0	80.20	0	12.2510	0	35.6290	8	27.032	0	79.544	0	245.4	4	94.1	4	-1E+10	1	-1E+10	1	-1E+10	1	-1E+10	1	-1E+10	1	-1E+10	1
4901784	202	C	01/14/2021	10:49	-134.382	43.539	0	81.90	0	12.2500	0	35.6300	8	27.033	0	81.230	0	245.3	4	94.1	4	-1E+10	1	-1E+10	1	-1E+10	1	-1E+10	1	-1E+10	1	-1E+10	1
4901784	202	C	01/14/2021	10:49	-134.382	43.539	0	83.60	0	12.2390	0	35.6330	8	27.037	0	82.916	0	244.9	4	93.9	4	-1E+10	1	-1E+10	1	-1E+10	1	-1E+10	1	-1E+10	1	-1E+10	1
4901784	202	C	01/14/2021	10:49	-134.382	43.539	0	85.30	0	12.2330	0	35.6340	8	27.039	0	84.602	0	244.9	4	93.9	4	-1E+10	1	-1E+10	1	-1E+10	1	-1E+10	1	-1E+10	1	-1E+10	1
4901784	202	C	01/14/2021	10:49	-134.382	43.539	0	87.10	0	12.2330	0	35.6340	8	27.039	0	86.386	0	244.5	4	93.7	4	-1E+10	1	-1E+10	1	-1E+10	1	-1E+10	1	-1E+10	1	-1E+10	1
4901784	202	C	01/14/2021	10:49	-134.382	43.539	0	88.80	0	12.2330	0	35.6340	8	27.039	0	88.072	0	244.3	4	93.6	4	-1E+10	1	-1E+10	1	-1E+10	1	-1E+10	1	-1E+10	1	-1E+10	1
4901784	202	C	01/14/2021	10:49	-134.382	43.539	0	90.50	0	12.2320	0	35.6330	8	27.039	0	89.758	0	243.9	4	93.5	4	-1E+10	1	-1E+10	1	-1E+10	1	-1E+10	1	-1E+10	1	-1E+10	1
4901784	202	C	01/14/2021	10:49	-134.382	43.539	0	92.20	0	12.2320	0	35.6310	8	27.037	0	91.443	0	243.3	4	93.3	4	-1E+10	1	-1E+10	1	-1E+10	1	-1E+10	1	-1E+10	1	-1E+10	1
4901784	202	C	01/14/2021	10:49	-134.382	43.539	0	93.90	0	12.2310	0	35.6270	8	27.035	0	93.129	0	242.7	4	93.0	4	-1E+10	1	-1E+10	1	-1E+10	1	-1E+10	1	-1E+10	1	-1E+10	1
4901784	202	C	01/14/2021	10:49	-134.382	43.539	0	95.70	0	12.2310	0	35.6210	8	27.030	0	94.914	0	241.9	4	92.7	4	-1E+10	1	-1E+10	1	-1E+10	1	-1E+10	1	-1E+10	1	-1E+10	1
4901784	202	C	01/14/2021	10:49	-134.382	43.539	0	97.40	0	12.2300	0	35.6100	8	27.022	0	96.600	0	241.1	4	92.4	4	-1E+10	1	-1E+10	1	-1E+10	1	-1E+10	1	-1E+10	1	-1E+10	1
4901784	202	C	01/14/2021	10:49	-134.382	43.539	0	99.10	0	12.2240	0	35.5920	8	27.009	0	98.285	0	239.4	4	91.7	4	-1E+10	1	-1E+10	1	-1E+10	1	-1E+10	1	-1E+10	1	-1E+10	1
4901784	202	C	01/14/2021	10:49	-134.382	43.539	0	102.30	0	11.9590	0	35.5500	8	27.027	0	101.458	0	235.7	4	89.8	4	-1E+10	1	-1E+10	1	-1E+10	1	-1E+10	1	-1E+10	1	-1E+10	1
4901784	202	C	01/14/2021	10:49	-134.382	43.539	0	105.00	0	10.7290	0	35.6390	8	27.325	0	104.135	0	239.2	4	88.9	4	-1E+10	1	-1E+10	1	-1E+10	1	-1E+10	1	-1E+10	1	-1E+10	1
4901784	202	C	01/14/2021	10:49	-134.382	43.539	0	107.70	0	10.0010	0	35.6740	8	27.481	0	106.812	0	241.4	4	88.3	4	-1E+10	1	-1E+10	1	-1E+10	1	-1E+10	1	-1E+10	1	-1E+10	1
4901784	202	C	01/14/2021	10:49	-134.382	43.539	0	109.60	0	9.8060	0	35.7000	8	27.535	0	108.696	0	242.4	4	88.3	4	-1E+10	1	-1E+10	1	-1E+10	1	-1E+10	1	-1E+10	1	-1E+10	1
4901784	202	C	01/14/2021	10:49	-134.382	43.539	0	112.40	0	9.7450	0	35.6920	8	27.539	0	111.472	0	242.8	4	88.4	4	-1E+10	1	-1E+10	1	-1E+10	1	-1E+10	1	-1E+10	1	-1E+10	1
4901784	202	C	01/14/2021	10:49	-134.382	43.539	0	115.20	0	9.6690	8	35.6610	8	27.528	0	114.248	0	243.1	4	88.3	4	-1E+10	1	-1E+10	1	-1E+10	1	-1E+10	1	-1E+10	1	-1E+10	1
4901784	202	C	01/14/2021	10:49	-134.382	43.539	0	117.10	0	9.5910	8	35.5140	8	27.426	0	116.132	0	244.0	4	88.4	4	-1E+10	1	-1E+10	1	-1E+10	1	-1E+10	1	-1E+10	1	-1E+10	1
4901784	202	C	01/14/2021	10:49	-134.382	43.539	0	120.00	0	9.3110	8	35.3120	8	27.314	0	119.007	0	245.7	4	88.4	4	-1E+10	1	-1E+10	1	-1E+10	1	-1E+10	1	-1E+10	1	-1E+10	1
4901784	202	C	01/14/2021	10:49	-134.382	43.539	0	122.80	0	9.1290	0	35.3030	8	27.337	0	121.783	0	246.8	4	88.4	4	-1E+10	1	-1E+10	1	-1E+10	1	-1E+10	1	-1E+10	1	-1E+10	1
4901784	202	C	01/14/2021	10:49	-134.382	43.539	0	124.70	0	9.1050	0	35.2810	8	27.324	0	123.667	0	246.4	4	88.2	4	-1E+10	1	-1E+10	1	-1E+10	1	-1E+10	1	-1E+10	1	-1E+10	1
4901784	202	C	01/14/2021	10:49	-134.382	43.539	0	127.60	0	9.0100	0	35.2800	8	27.339	0	126.542	0	245.8	4	87.8	4	-1E+10	1	-1E+10	1	-1E+10	1	-1E+10	1	-1E+10	1	-1E+10	1
4901784	202	C	01/14/2021	10:49	-134.382	43.539	0	130.00	0	9.0130	0	35.2860	8	27.343	0	128.922	0	244.0	4	87.1	4	-1E+10	1	-1E+10	1	-1E+10	1	-1E+10	1	-1E+10	1	-1E+10	1
4901784	202	C	01/14/2021	10:49	-134.382	43.539	0	132.40	0	9.0430	0	35.2640	8	27.321	0	131.301	0	241.9	4	86.4	4	-1E+10	1	-1E+10	1	-1E+10	1	-1E+10	1	-1E+10	1	-1E+10	1
4901784	202	C	01/14/2021	10:49	-134.382	43.539	0	134.70	0	9.0010	0	35.2680	8	27.331	0	133.581	0	239.6	4	85.6	4	-1E+10	1	-1E+10	1	-1E+10	1	-1E+10	1	-1E+10	1	-1E+10	1
4901784	202	C	01/14/2021	10:49	-134.382	43.539	0	137.80	0	8.9300	0	35.2840	8	27.355	0	136.654	0	234.4	4	83.6	4	-1E+10	1	-1E+10	1	-1E+10	1	-1E+10	1	-1E+10	1	-1E+10	1
4901784	202	C	01/14/2021	10:49	-134.382	43.539	0	140.20	0	9.0170	0	35.4000	8	27.432	0	139.033	0	228.9	4	81.8	4	-1E+10	1	-1E+10	1	-1E+10	1	-1E+10	1	-1E+10	1	-1E+10	1
4901784	202	C	01/14/2021	10:49	-134.382	43.539	0	142.50	0	9.0240	0	35.4150	8	27.442	0	141.314	0	226.3	4	80.9	4	-1E+10	1	-1E+10	1	-1E+10	1	-1E+10	1	-1E+10	1	-1E+10	1
4901784	202	C	01/14/2021	10:49	-134.382	43.539	0	144.80	0	9.0340	0	35.4480	8	27.467	0	143.594	0	223.5	4	80.0	4	-1E+10	1	-1E+10	1	-1E+10	1	-1E+10	1	-1E+10	1	-1E+10	1
4901784	202	C	01/14/2021	10:49	-134.382	43.539	0	147.20	0	9.0430	0	35.4470	8	27.464	0	145.973	0	220.5	4	78.9	4	-1E+10	1	-1E+10	1	-1E+10	1	-1E+10	1	-1E+10	1	-1E+10	1
4901784	202	C	01/14/2021	10:49	-134.382	43.539	0	149.70	0	9.0170	0	35.4570	8	27.476	0	148.451	0	216.7	4	77.5	4	-1E+10	1	-1E+10	1	-1E+10	1	-1E+10	1	-1E+10	1	-1E+10	1
4901784	202	C	01/14/2021	10:49	-134.382	43.539	0	152.20	0	8.8790	0	35.5340	8	27.559	0	150.929	0	213.6	4	76.2	4	-1E+10	1	-1E+10	1	-1E+10	1	-1E+10	1	-1E+10	1	-1E+10	1
4901784	202	C	01/14/2021	10:49	-134.382	43.539	0	154.80	0	8.6790	0	35.6060	8	27.647	0	153.507	0	211.4	4	75.1	4	-1E+10	1	-1E+10	1	-1E+10	1	-1E+10	1	-1E+10	1	-1E+10	1
4901784	202	C	01/14/2021	10:49	-134.382	43.539	0	157.60	0	8.4600	0	35.7130	8	27.766	0	156.282	0	209.9	4	74.3	4	-1E+10	1	-1E+10	1	-1E+10	1	-1E+10	1	-1E+10	1	-1E+10	1
4901784	202	C	01/14/2021	10:49	-134.382	43.539	0	160.10	0	8.3640	0	35.7540	8	27.813	0	158.760	0	208.5	4	73.7	4	-1E+10	1	-1E+10	1	-1E+10	1	-1E+10	1	-1E+10	1	-1E+10	1
4901784	202	C	01/14/2021	10:49	-134.382	43.539	0	162.50	0	8.2580	0	35.7950	8	27.862	0	161.139	0	207.0	4	73.0	4	-1E+10	1	-1E+10	1	-1E+10	1	-1E+10	1	-1E+10	1	-1E+10	1
4901784	202	C	01/14/2021	10:49	-134.382	43.539	0	164.80	0	8.1360	0	35.8590	8	27.931	0	163.419	0	205.7	4	72.4	4	-1E+10	1	-1E+10	1	-1E+10	1	-1E+10	1	-1E+10	1	-1E+10	1
4901784	202	C	01/14/2021	10:49	-134.382	43.539	0	167.20	0	8.0550	0	35.9140	8	27.987	0	165.798	0	205.1	4	72.0	4	-1E+10	1	-1E+10	1	-1E+10	1	-1E+10	1	-1E+10	1	-1E+10	1
4901784	202	C	01/14/2021	10:49	-134.382	43.539	0	169.60	0	8.0490	0	35.9220	8	27.994	0	168.177	0	204.0	4	71.7	4	-1E+10	1	-1E+10	1	-1E+10	1	-1E+10	1	-1E+10	1	-1E+10	1
4901784	202	C	01/14/2021	10:49	-134.382	43.539	0	172.80	0	8.0370	0	35.9430	8	28.012	0	171.349	0	201.9	4	70.9	4	-1E+10	1	-1E+10	1	-1E+10	1	-1E+10	1	-1E+10	1	-1E+10	1
4901784	202	C	01/14/2021	10:49	-134.382	43.539	0	175.20	0	8.0240	0	35.9570	8	28.025	0	173.728	0	200.2	4	70.3	4	-1E+10	1	-1E+10	1	-1E+10	1	-1E+10	1	-1E+10	1	-1E+10	1
4901784	202	C	01/14/2021	10:49	-134.382	43.539	0	177.60	0	7.9740	0	35.9940	8	28.062	0	176.106	0	198.2	4	69.5	4	-1E+10	1	-1E+10	1	-1E+10	1	-1E+10	1	-1E+10	1	-1E+10	1
4901784	202	C	01/14/2021	10:49	-134.382	43.539	0	180.10	0	7.9790	0	36.0640	8	28.116	0	178.584	0	195.1	4	68.5	4	-1E+10	1	-1E+10	1	-1E+10	1	-1E+10	1	-1E+10	1	-1E+10	1
4901784	202	C	01/14/2021	10:49	-134.382	43.539	0	182.70	0	7.9780	0	36.1200	8	28.161	0	181.161	0	194.1	4	68.2	4	-1E+10	1	-1E+10	1	-1E+10	1	-1E+10	1	-1E+10	1	-1E+10	1
4901784	202	C	01/14/2021	10:49	-134.382	43.539	0	185.30	0	7.9460	0	36.1840	8	28.216	0	183.738	0	193.9	4	68.1	4	-1E+10	1	-1E+10	1	-1E+10	1	-1E+10	1	-1E+10	1	-1E+10	1
4901784	202	C	01/14/2021	10:49	-134.382	43.539	0	187.00	0	7.9550	0	36.2070	8	28.232	0	185.423	0	194.1	4	68.2	4	-1E+10	1	-1E+10	1	-1E+10	1	-1E+10	1	-1E+10	1	-1E+10	1
4901784	202	C	01/14/2021	10:49	-134.382	43.539	0	189.80	0	7.9440	0	36.2380	8	28.259	0	188.198	0	194.2	4	68.2	4	-1E+10	1	-1E+10	1	-1E+10	1	-1E+10	1	-1E+10	1	-1E+10	1
4901784	202	C	01/14/2021	10:49	-134.382	43.539	0	192.60	0	7.9250	0	36.2920	8	28.304	0	190.973	0	194.6	4	68.3	4	-1E+10	1	-1E+10	1	-1E+10	1	-1E+10	1	-1E+10	1	-1E+10	1
4901784	202	C	01/14/2021	10:49	-134.382	43.539	0	194.80	0	7.9080	0	36.3210	8	28.329	0	193.154	0	194.5	4	68.3	4	-1E+10	1	-1E+10	1	-1E+10	1	-1E+10	1	-1E+10	1	-1E+10	1
4901784	202	C	01/14/2021	10:49	-134.382	43.539	0	197.10	0	7.9000	0	36.3260	8	28.335	0	195.433	0	194.2	4	68.2	4	-1E+10	1	-1E+10	1	-1E+10	1	-1E+10	1	-1E+10	1	-1E+10	1
4901784	202	C	01/14/2021	10:49	-134.382	43.539	0	199.60	0	7.8920	0	36.3330	8	28.341	0	197.911	0	193.7	4	68.0	4	-1E+10	1	-1E+10	1	-1E+10	1	-1E+10	1	-1E+10	1	-1E+10	1
4901784	202	C	01/14/2021	10:49	-134.382	43.539	0	202.80	0	7.8780	0	36.3330	8	28.343	0	201.082	0	192.9	4	67.7	4	-1E+10	1	-1E+10	1	-1E+10	1	-1E+10	1	-1E+10	1	-1E+10	1
4901784	202	C	01/14/2021	10:49	-134.382	43.539	0	205.10	0	7.8660	0	36.3370	8	28.348	0	203.362	0	192.4	4	67.5	4	-1E+10	1	-1E+10	1	-1E+10	1	-1E+10	1	-1E+10	1	-1E+10	1
4901784	202	C	01/14/2021	10:49	-134.382	43.539	0	207.60	0	7.8130	0	36.3830	8	28.393	0	205.839	0	191.9	4	67.3	4	-1E+10	1	-1E+10	1	-1E+10	1	-1E+10	1	-1E+10	1	-1E+10	1
4901784	202	C	01/14/2021	10:49	-134.382	43.539	0	210.10	0	7.7780	0	36.4220	8	28.429	0	208.317	0	190.9	4	66.9	4	-1E+10	1	-1E+10	1	-1E+10	1	-1E+10	1	-1E+10	1	-1E+10	1
4901784	202	C	01/14/2021	10:49	-134.382	43.539	0	212.70	0	7.7620	0	36.9330	8	28.833	0	210.893	0	189.9	4	66.8	4	-1E+10	1	-1E+10	1	-1E+10	1	-1E+10	1	-1E+10	1	-1E+10	1
4901784	202	C	01/14/2021	10:49	-134.382	43.539	0	215.30	0	7.7560	0	36.9970	8	28.885	0	213.470	0	189.2	4	66.6	4	-1E+10	1	-1E+10	1	-1E+10	1	-1E+10	1	-1E+10	1	-1E+10	1
4901784	202	C	01/14/2021	10:49	-134.382	43.539	0	217.10	0	7.7530	0	37.0220	8	28.905	0	215.254	0	188.8	4	66.4	4	-1E+10	1	-1E+10	1	-1E+10	1	-1E+10	1	-1E+10	1	-1E+10	1
4901784	202	C	01/14/2021	10:49	-134.382	43.539	0	219.70	0	7.7500	0	37.0530	8	28.930	0	217.830	0	188.3	4	66.3	4	-1E+10	1	-1E+10	1	-1E+10	1	-1E+10	1	-1E+10	1	-1E+10	1
4901784	202	C	01/14/2021	10:49	-134.382	43.539	0	222.30	0	7.7450	0	37.0620	8	28.938	0	220.407	0	187.7	4	66.0	4	-1E+10	1	-1E+10	1	-1E+10	1	-1E+10	1	-1E+10	1	-1E+10	1
4901784	202	C	01/14/2021	10:49	-134.382	43.539	0	224.90	0	7.7410	0	37.0700	8	28.944	0	222.983	0	186.9	4	65.8	4	-1E+10	1	-1E+10	1	-1E+10	1	-1E+10	1	-1E+10	1	-1E+10	1
4901784	202	C	01/14/2021	10:49	-134.382	43.539	0	227.50	0	7.7350	0	37.0780	8	28.952	0	225.559	0	185.7	4	65.3	4	-1E+10	1	-1E+10	1	-1E+10	1	-1E+10	1	-1E+10	1	-1E+10	1
4901784	202	C	01/14/2021	10:49	-134.382	43.539	0	230.10	0	7.7190	0	37.0850	8	28.960	0	228.136	0	184.0	4	64.7	4	-1E+10	1	-1E+10	1	-1E+10	1	-1E+10	1	-1E+10	1	-1E+10	1
4901784	202	C	01/14/2021	10:49	-134.382	43.539	0	232.70	0	7.6830	0	37.1040	8	28.980	0	230.712	0	181.8	4	63.9	4	-1E+10	1	-1E+10	1	-1E+10	1	-1E+10	1	-1E+10	1	-1E+10	1
4901784	202	C	01/14/2021	10:49	-134.382	43.539	0	234.60	0	7.6690	0	37.1160	8	28.992	0	232.595	0	180.8	4	63.5	4	-1E+10	1	-1E+10	1	-1E+10	1	-1E+10	1	-1E+10	1	-1E+10	1
4901784	202	C	01/14/2021	10:49	-134.382	43.539	0	237.30	0	7.6520	0	37.1280	8	29.004	0	235.270	0	178.7	4	62.8	4	-1E+10	1	-1E+10	1	-1E+10	1	-1E+10	1	-1E+10	1	-1E+10	1
4901784	202	C	01/14/2021	10:49	-134.382	43.539	0	239.90	0	7.6330	0	37.1450	8	29.020	0	237.847	0	176.5	4	62.0	4	-1E+10	1	-1E+10	1	-1E+10	1	-1E+10	1	-1E+10	1	-1E+10	1
4901784	202	C	01/14/2021	10:49	-134.382	43.539	0	242.60	0	7.6080	0	37.1570	8	29.033	0	240.522	0	174.5	4	61.2	4	-1E+10	1	-1E+10	1	-1E+10	1	-1E+10	1	-1E+10	1	-1E+10	1
4901784	202	C	01/14/2021	10:49	-134.382	43.539	0	245.30	0	7.5880	0	37.1650	8	29.043	0	243.197	0	172.8	4	60.6	4	-1E+10	1	-1E+10	1	-1E+10	1	-1E+10	1	-1E+10	1	-1E+10	1
4901784	202	C	01/14/2021	10:49	-134.382	43.539	0	247.30	0	7.5920	0	37.1690	8	29.045	0	245.179	0	171.3	4	60.1	4	-1E+10	1	-1E+10	1	-1E+10	1	-1E+10	1	-1E+10	1	-1E+10	1
4901784	202	C	01/14/2021	10:49	-134.382	43.539	0	250.10	0	7.5790	0	37.1830	8	29.058	0	247.953	0	168.8	4	59.2	4	-1E+10	1	-1E+10	1	-1E+10	1	-1E+10	1	-1E+10	1	-1E+10	1
4901784	202	C	01/14/2021	10:49	-134.382	43.539	0	252.90	0	7.5630	0	37.1910	8	29.067	0	250.727	0	166.8	4	58.5	4	-1E+10	1	-1E+10	1	-1E+10	1	-1E+10	1	-1E+10	1	-1E+10	1
4901784	202	C	01/14/2021	10:49	-134.382	43.539	0	254.80	0	7.5440	0	37.1960	8	29.074	0	252.610	0	165.3	4	58.0	4	-1E+10	1	-1E+10	1	-1E+10	1	-1E+10	1	-1E+10	1	-1E+10	1
4901784	202	C	01/14/2021	10:49	-134.382	43.539	0	257.60	0	7.5030	0	37.1990	8	29.082	0	255.384	0	163.2	4	57.2	4	-1E+10	1	-1E+10	1	-1E+10	1	-1E+10	1	-1E+10	1	-1E+10	1
4901784	202	C	01/14/2021	10:49	-134.382	43.539	0	260.40	0	7.4180	0	37.2070	8	29.101	0	258.158	0	161.7	4	56.5	4	-1E+10	1	-1E+10	1	-1E+10	1	-1E+10	1	-1E+10	1	-1E+10	1
4901784	202	C	01/14/2021	10:49	-134.382	43.539	0	262.20	0	7.4100	0	37.2100	8	29.105	0	259.942	0	161.1	4	56.3	4	-1E+10	1	-1E+10	1	-1E+10	1	-1E+10	1	-1E+10	1	-1E+10	1
4901784	202	C	01/14/2021	10:49	-134.382	43.539	0	265.00	0	7.3920	0	37.2150	8	29.112	0	262.716	0	160.2	4	56.0	4	-1E+10	1	-1E+10	1	-1E+10	1	-1E+10	1	-1E+10	1	-1E+10	1
4901784	202	C	01/14/2021	10:49	-134.382	43.539	0	267.80	0	7.3640	0	37.2230	8	29.122	0	265.490	0	159.0	4	55.5	4	-1E+10	1	-1E+10	1	-1E+10	1	-1E+10	1	-1E+10	1	-1E+10	1
4901784	202	C	01/14/2021	10:49	-134.382	43.539	0	269.60	0	7.3390	0	37.2270	8	29.129	0	267.273	0	158.4	4	55.3	4	-1E+10	1	-1E+10	1	-1E+10	1	-1E+10	1	-1E+10	1	-1E+10	1
4901784	202	C	01/14/2021	10:49	-134.382	43.539	0	272.40	0	7.3180	0	37.2310	8	29.135	0	270.047	0	157.2	4	54.9	4	-1E+10	1	-1E+10	1	-1E+10	1	-1E+10	1	-1E+10	1	-1E+10	1
4901784	202	C	01/14/2021	10:49	-134.382	43.539	0	275.20	0	7.2990	0	37.2350	8	29.141	0	272.821	0	156.2	4	54.5	4	-1E+10	1	-1E+10	1	-1E+10	1	-1E+10	1	-1E+10	1	-1E+10	1
4901784	202	C	01/14/2021	10:49	-134.382	43.539	0	277.00	0	7.2780	0	37.2360	8	29.145	0	274.604	0	155.7	4	54.3	4	-1E+10	1	-1E+10	1	-1E+10	1	-1E+10	1	-1E+10	1	-1E+10	1
4901784	202	C	01/14/2021	10:49	-134.382	43.539	0	279.80	0	7.2190	0	37.2390	8	29.156	0	277.378	0	154.6	4	53.8	4	-1E+10	1	-1E+10	1	-1E+10	1	-1E+10	1	-1E+10	1	-1E+10	1
4901784	202	C	01/14/2021	10:49	-134.382	43.539	0	282.60	0	7.1770	0	37.2400	8	29.163	0	280.152	0	153.8	4	53.5	4	-1E+10	1	-1E+10	1	-1E+10	1	-1E+10	1	-1E+10	1	-1E+10	1
4901784	202	C	01/14/2021	10:49	-134.382	43.539	0	284.50	0	7.1700	0	37.2390	8	29.164	0	282.034	0	153.1	4	53.3	4	-1E+10	1	-1E+10	1	-1E+10	1	-1E+10	1	-1E+10	1	-1E+10	1
4901784	202	C	01/14/2021	10:49	-134.382	43.539	0	287.30	0	7.1210	0	37.2410	8	29.172	0	284.808	0	152.0	4	52.8	4	-1E+10	1	-1E+10	1	-1E+10	1	-1E+10	1	-1E+10	1	-1E+10	1
4901784	202	C	01/14/2021	10:49	-134.382	43.539	0	290.20	0	7.0630	0	37.2430	8	29.182	0	287.681	0	151.0	4	52.4	4	-1E+10	1	-1E+10	1	-1E+10	1	-1E+10	1	-1E+10	1	-1E+10	1
4901784	202	C	01/14/2021	10:49	-134.382	43.539	0	292.00	0	7.0490	0	37.2430	8	29.184	0	289.464	0	150.2	4	52.1	4	-1E+10	1	-1E+10	1	-1E+10	1	-1E+10	1	-1E+10	1	-1E+10	1
4901784	202	C	01/14/2021	10:49	-134.382	43.539	0	294.80	0	7.0050	0	37.2430	8	29.191	0	292.238	0	148.8	4	51.5	4	-1E+10	1	-1E+10	1	-1E+10	1	-1E+10	1	-1E+10	1	-1E+10	1
4901784	202	C	01/14/2021	10:49	-134.382	43.539	0	297.60	0	6.9640	0	37.2460	8	29.199	0	295.012	0	147.1	4	50.9	4	-1E+10	1	-1E+10	1	-1E+10	1	-1E+10	1	-1E+10	1	-1E+10	1
4901784	202	C	01/14/2021	10:49	-134.382	43.539	0	299.40	0	6.9330	0	37.2470	8	29.204	0	296.795	0	146.0	4	50.5	4	-1E+10	1	-1E+10	1	-1E+10	1	-1E+10	1	-1E+10	1	-1E+10	1
4901784	202	C	01/14/2021	10:49	-134.382	43.539	0	302.30	0	6.8910	0	37.2500	8	29.213	0	299.667	0	144.7	4	50.0	4	-1E+10	1	-1E+10	1	-1E+10	1	-1E+10	1	-1E+10	1	-1E+10	1
4901784	202	C	01/14/2021	10:49	-134.382	43.539	0	305.10	0	6.8580	0	37.2500	8	29.218	0	302.441	0	143.3	4	49.5	4	-1E+10	1	-1E+10	1	-1E+10	1	-1E+10	1	-1E+10	1	-1E+10	1
4901784	202	C	01/14/2021	10:49	-134.382	43.539	0	307.00	0	6.8410	0	37.2530	8	29.222	0	304.323	0	142.1	4	49.1	4	-1E+10	1	-1E+10	1	-1E+10	1	-1E+10	1	-1E+10	1	-1E+10	1
4901784	202	C	01/14/2021	10:49	-134.382	43.539	0	309.90	0	6.8080	0	37.2530	8	29.227	0	307.195	0	140.7	4	48.6	4	-1E+10	1	-1E+10	1	-1E+10	1	-1E+10	1	-1E+10	1	-1E+10	1
4901784	202	C	01/14/2021	10:49	-134.382	43.539	0	312.80	0	6.7660	0	37.2510	8	29.232	0	310.068	0	139.1	4	47.9	4	-1E+10	1	-1E+10	1	-1E+10	1	-1E+10	1	-1E+10	1	-1E+10	1
4901784	202	C	01/14/2021	10:49	-134.382	43.539	0	314.70	0	6.7090	0	37.2520	8	29.240	0	311.950	0	138.1	4	47.5	4	-1E+10	1	-1E+10	1	-1E+10	1	-1E+10	1	-1E+10	1	-1E+10	1
4901784	202	C	01/14/2021	10:49	-134.382	43.539	0	317.60	0	6.6530	0	37.2520	8	29.248	0	314.822	0	136.6	4	47.0	4	-1E+10	1	-1E+10	1	-1E+10	1	-1E+10	1	-1E+10	1	-1E+10	1
4901784	202	C	01/14/2021	10:49	-134.382	43.539	0	320.50	0	6.6060	0	37.2570	8	29.259	0	317.695	0	135.0	4	46.3	4	-1E+10	1	-1E+10	1	-1E+10	1	-1E+10	1	-1E+10	1	-1E+10	1
4901784	202	C	01/14/2021	10:49	-134.382	43.539	0	322.50	0	6.6100	0	37.2580	8	29.259	0	319.676	0	134.1	4	46.1	4	-1E+10	1	-1E+10	1	-1E+10	1	-1E+10	1	-1E+10	1	-1E+10	1
4901784	202	C	01/14/2021	10:49	-134.382	43.539	0	324.40	0	6.5800	0	37.2560	8	29.262	0	321.558	0	133.3	4	45.7	4	-1E+10	1	-1E+10	1	-1E+10	1	-1E+10	1	-1E+10	1	-1E+10	1
4901784	202	C	01/14/2021	10:49	-134.382	43.539	0	327.20	0	6.5340	0	37.2520	8	29.265	0	324.331	0	131.7	4	45.1	4	-1E+10	1	-1E+10	1	-1E+10	1	-1E+10	1	-1E+10	1	-1E+10	1
4901784	202	C	01/14/2021	10:49	-134.382	43.539	0	330.70	0	6.4720	0	37.2510	8	29.273	0	327.798	0	129.7	4	44.4	4	-1E+10	1	-1E+10	1	-1E+10	1	-1E+10	1	-1E+10	1	-1E+10	1
4901784	202	C	01/14/2021	10:49	-134.382	43.539	0	332.60	0	6.4110	0	37.2540	8	29.284	0	329.679	0	128.2	4	43.8	4	-1E+10	1	-1E+10	1	-1E+10	1	-1E+10	1	-1E+10	1	-1E+10	1
4901784	202	C	01/14/2021	10:49	-134.382	43.539	0	335.00	0	6.3680	0	37.2540	8	29.290	0	332.056	0	126.8	4	43.3	4	-1E+10	1	-1E+10	1	-1E+10	1	-1E+10	1	-1E+10	1	-1E+10	1
4901784	202	C	01/14/2021	10:49	-134.382	43.539	0	337.50	0	6.3350	0	37.2530	8	29.294	0	334.532	0	125.2	4	42.7	4	-1E+10	1	-1E+10	1	-1E+10	1	-1E+10	1	-1E+10	1	-1E+10	1
4901784	202	C	01/14/2021	10:49	-134.382	43.539	0	339.90	0	6.2840	0	37.2540	8	29.301	0	336.909	0	123.3	4	42.0	4	-1E+10	1	-1E+10	1	-1E+10	1	-1E+10	1	-1E+10	1	-1E+10	1
4901784	202	C	01/14/2021	10:49	-134.382	43.539	0	342.30	0	6.2300	0	37.2580	8	29.312	0	339.286	0	121.5	4	41.4	4	-1E+10	1	-1E+10	1	-1E+10	1	-1E+10	1	-1E+10	1	-1E+10	1
4901784	202	C	01/14/2021	10:49	-134.382	43.539	0	344.80	0	6.1840	0	37.2590	8	29.319	0	341.762	0	119.8	4	40.7	4	-1E+10	1	-1E+10	1	-1E+10	1	-1E+10	1	-1E+10	1	-1E+10	1
4901784	202	C	01/14/2021	10:49	-134.382	43.539	0	347.30	0	6.1480	0	37.2610	8	29.325	0	344.238	0	118.4	4	40.3	4	-1E+10	1	-1E+10	1	-1E+10	1	-1E+10	1	-1E+10	1	-1E+10	1
4901784	202	C	01/14/2021	10:49	-134.382	43.539	0	349.90	0	6.1190	0	37.2610	8	29.329	0	346.813	0	117.3	4	39.8	4	-1E+10	1	-1E+10	1	-1E+10	1	-1E+10	1	-1E+10	1	-1E+10	1
4901784	202	C	01/14/2021	10:49	-134.382	43.539	0	352.40	0	6.0880	0	37.2630	8	29.335	0	349.289	0	115.8	4	39.3	4	-1E+10	1	-1E+10	1	-1E+10	1	-1E+10	1	-1E+10	1	-1E+10	1
4901784	202	C	01/14/2021	10:49	-134.382	43.539	0	354.90	0	6.0410	0	37.2660	8	29.344	0	351.765	0	114.5	4	38.8	4	-1E+10	1	-1E+10	1	-1E+10	1	-1E+10	1	-1E+10	1	-1E+10	1
4901784	202	C	01/14/2021	10:49	-134.382	43.539	0	357.30	0	6.0290	0	37.2640	8	29.344	0	354.141	0	113.4	4	38.4	4	-1E+10	1	-1E+10	1	-1E+10	1	-1E+10	1	-1E+10	1	-1E+10	1
4901784	202	C	01/14/2021	10:49	-134.382	43.539	0	359.80	0	6.0010	0	37.2650	8	29.348	0	356.617	0	112.0	4	37.9	4	-1E+10	1	-1E+10	1	-1E+10	1	-1E+10	1	-1E+10	1	-1E+10	1
4901784	202	C	01/14/2021	10:49	-134.382	43.539	0	362.30	0	5.9720	0	37.2650	8	29.352	0	359.093	0	110.6	4	37.4	4	-1E+10	1	-1E+10	1	-1E+10	1	-1E+10	1	-1E+10	1	-1E+10	1
4901784	202	C	01/14/2021	10:49	-134.382	43.539	0	364.90	0	5.9330	0	37.2670	8	29.359	0	361.667	0	109.0	4	36.9	4	-1E+10	1	-1E+10	1	-1E+10	1	-1E+10	1	-1E+10	1	-1E+10	1
4901784	202	C	01/14/2021	10:49	-134.382	43.539	0	367.50	0	5.8950	0	37.2680	8	29.365	0	364.242	0	107.8	4	36.4	4	-1E+10	1	-1E+10	1	-1E+10	1	-1E+10	1	-1E+10	1	-1E+10	1
4901784	202	C	01/14/2021	10:49	-134.382	43.539	0	370.00	0	5.8620	0	37.2680	8	29.369	0	366.718	0	106.7	4	36.0	4	-1E+10	1	-1E+10	1	-1E+10	1	-1E+10	1	-1E+10	1	-1E+10	1
4901784	202	C	01/14/2021	10:49	-134.382	43.539	0	372.50	0	5.8180	0	37.2700	8	29.377	0	369.193	0	105.6	4	35.6	4	-1E+10	1	-1E+10	1	-1E+10	1	-1E+10	1	-1E+10	1	-1E+10	1
4901784	202	C	01/14/2021	10:49	-134.382	43.539	0	375.10	0	5.7980	0	37.2700	8	29.379	0	371.768	0	104.7	4	35.3	4	-1E+10	1	-1E+10	1	-1E+10	1	-1E+10	1	-1E+10	1	-1E+10	1
4901784	202	C	01/14/2021	10:49	-134.382	43.539	0	377.70	0	5.7770	0	37.2680	8	29.381	0	374.343	0	103.7	4	34.9	4	-1E+10	1	-1E+10	1	-1E+10	1	-1E+10	1	-1E+10	1	-1E+10	1
4901784	202	C	01/14/2021	10:49	-134.382	43.539	0	380.20	0	5.7390	0	37.2690	8	29.386	0	376.818	0	102.4	4	34.5	4	-1E+10	1	-1E+10	1	-1E+10	1	-1E+10	1	-1E+10	1	-1E+10	1
4901784	202	C	01/14/2021	10:49	-134.382	43.539	0	382.80	0	5.7010	0	37.2690	8	29.391	0	379.393	0	101.5	4	34.1	4	-1E+10	1	-1E+10	1	-1E+10	1	-1E+10	1	-1E+10	1	-1E+10	1
4901784	202	C	01/14/2021	10:49	-134.382	43.539	0	385.30	0	5.6710	0	37.2700	8	29.396	0	381.868	0	100.4	4	33.7	4	-1E+10	1	-1E+10	1	-1E+10	1	-1E+10	1	-1E+10	1	-1E+10	1
4901784	202	C	01/14/2021	10:49	-134.382	43.539	0	387.90	0	5.6370	0	37.2710	8	29.401	0	384.442	0	99.3	4	33.4	4	-1E+10	1	-1E+10	1	-1E+10	1	-1E+10	1	-1E+10	1	-1E+10	1
4901784	202	C	01/14/2021	10:49	-134.382	43.539	0	389.60	0	5.6150	0	37.2710	8	29.404	0	386.126	0	98.7	4	33.1	4	-1E+10	1	-1E+10	1	-1E+10	1	-1E+10	1	-1E+10	1	-1E+10	1
4901784	202	C	01/14/2021	10:49	-134.382	43.539	0	392.20	0	5.5890	0	37.2710	8	29.407	0	388.700	0	97.7	4	32.8	4	-1E+10	1	-1E+10	1	-1E+10	1	-1E+10	1	-1E+10	1	-1E+10	1
4901784	202	C	01/14/2021	10:49	-134.382	43.539	0	394.80	0	5.5650	0	37.2700	8	29.410	0	391.274	0	96.7	4	32.4	4	-1E+10	1	-1E+10	1	-1E+10	1	-1E+10	1	-1E+10	1	-1E+10	1
4901784	202	C	01/14/2021	10:49	-134.382	43.539	0	397.40	0	5.5220	0	37.2720	8	29.417	0	393.849	0	95.7	4	32.0	4	-1E+10	1	-1E+10	1	-1E+10	1	-1E+10	1	-1E+10	1	-1E+10	1
4901784	202	C	01/14/2021	10:49	-134.382	43.539	0	400.00	0	5.4980	0	37.2730	8	29.421	0	396.423	0	94.8	4	31.7	4	-1E+10	1	-1E+10	1	-1E+10	1	-1E+10	1	-1E+10	1	-1E+10	1
4901784	202	C	01/14/2021	10:49	-134.382	43.539	0	402.70	0	5.4800	0	37.2720	8	29.422	0	399.096	0	93.9	4	31.4	4	-1E+10	1	-1E+10	1	-1E+10	1	-1E+10	1	-1E+10	1	-1E+10	1
4901784	202	C	01/14/2021	10:49	-134.382	43.539	0	405.30	0	5.4610	0	37.2690	8	29.422	0	401.670	0	93.0	4	31.1	4	-1E+10	1	-1E+10	1	-1E+10	1	-1E+10	1	-1E+10	1	-1E+10	1
4901784	202	C	01/14/2021	10:49	-134.382	43.539	0	407.10	0	5.4450	0	37.2670	8	29.423	0	403.453	0	92.4	4	30.9	4	-1E+10	1	-1E+10	1	-1E+10	1	-1E+10	1	-1E+10	1	-1E+10	1
4901784	202	C	01/14/2021	10:49	-134.382	43.539	0	409.70	0	5.4200	0	37.2640	8	29.424	0	406.027	0	91.3	4	30.5	4	-1E+10	1	-1E+10	1	-1E+10	1	-1E+10	1	-1E+10	1	-1E+10	1
4901784	202	C	01/14/2021	10:49	-134.382	43.539	0	412.40	0	5.3800	0	37.2630	8	29.428	0	408.700	0	90.5	4	30.2	4	-1E+10	1	-1E+10	1	-1E+10	1	-1E+10	1	-1E+10	1	-1E+10	1
4901784	202	C	01/14/2021	10:49	-134.382	43.539	0	415.00	0	5.3620	0	37.2510	8	29.421	0	411.274	0	89.8	4	30.0	4	-1E+10	1	-1E+10	1	-1E+10	1	-1E+10	1	-1E+10	1	-1E+10	1
4901784	202	C	01/14/2021	10:49	-134.382	43.539	0	417.60	0	5.3380	8	37.2300	8	29.407	0	413.848	0	89.0	4	29.7	4	-1E+10	1	-1E+10	1	-1E+10	1	-1E+10	1	-1E+10	1	-1E+10	1
4901784	202	C	01/14/2021	10:49	-134.382	43.539	0	420.30	0	5.3030	8	37.1860	8	29.377	0	416.521	0	88.2	4	29.4	4	-1E+10	1	-1E+10	1	-1E+10	1	-1E+10	1	-1E+10	1	-1E+10	1
4901784	202	C	01/14/2021	10:49	-134.382	43.539	0	423.00	0	5.2910	8	37.0550	8	29.274	0	419.194	0	87.6	4	29.1	4	-1E+10	1	-1E+10	1	-1E+10	1	-1E+10	1	-1E+10	1	-1E+10	1
4901784	202	C	01/14/2021	10:49	-134.382	43.539	0	424.80	0	5.2730	8	36.9220	8	29.171	0	420.976	0	87.1	4	28.9	4	-1E+10	1	-1E+10	1	-1E+10	1	-1E+10	1	-1E+10	1	-1E+10	1
4901784	202	C	01/14/2021	10:49	-134.382	43.539	0	427.50	0	5.2660	0	36.8940	8	29.150	0	423.649	0	86.4	4	28.7	4	-1E+10	1	-1E+10	1	-1E+10	1	-1E+10	1	-1E+10	1	-1E+10	1
4901784	202	C	01/14/2021	10:49	-134.382	43.539	0	430.20	0	5.2380	0	36.8730	8	29.137	0	426.322	0	85.4	4	28.4	4	-1E+10	1	-1E+10	1	-1E+10	1	-1E+10	1	-1E+10	1	-1E+10	1
4901784	202	C	01/14/2021	10:49	-134.382	43.539	0	432.00	0	5.2290	0	36.8650	8	29.131	0	428.104	0	84.8	4	28.1	4	-1E+10	1	-1E+10	1	-1E+10	1	-1E+10	1	-1E+10	1	-1E+10	1
4901784	202	C	01/14/2021	10:49	-134.382	43.539	0	434.70	0	5.1860	0	36.8780	8	29.147	0	430.777	0	84.0	4	27.8	4	-1E+10	1	-1E+10	1	-1E+10	1	-1E+10	1	-1E+10	1	-1E+10	1
4901784	202	C	01/14/2021	10:49	-134.382	43.539	0	437.40	0	5.1710	0	36.8570	8	29.132	0	433.450	0	83.4	4	27.6	4	-1E+10	1	-1E+10	1	-1E+10	1	-1E+10	1	-1E+10	1	-1E+10	1
4901784	202	C	01/14/2021	10:49	-134.382	43.539	0	440.20	0	5.1650	0	36.8720	8	29.145	0	436.221	0	82.3	4	27.3	4	-1E+10	1	-1E+10	1	-1E+10	1	-1E+10	1	-1E+10	1	-1E+10	1
4901784	202	C	01/14/2021	10:49	-134.382	43.539	0	442.90	0	5.1100	0	36.8920	8	29.168	0	438.894	0	81.2	4	26.9	4	-1E+10	1	-1E+10	1	-1E+10	1	-1E+10	1	-1E+10	1	-1E+10	1
4901784	202	C	01/14/2021	10:49	-134.382	43.539	0	444.80	0	5.1030	0	36.8840	8	29.162	0	440.775	0	80.7	4	26.7	4	-1E+10	1	-1E+10	1	-1E+10	1	-1E+10	1	-1E+10	1	-1E+10	1
4901784	202	C	01/14/2021	10:49	-134.382	43.539	0	447.60	0	5.0680	0	36.8600	8	29.147	0	443.547	0	79.7	4	26.3	4	-1E+10	1	-1E+10	1	-1E+10	1	-1E+10	1	-1E+10	1	-1E+10	1
4901784	202	C	01/14/2021	10:49	-134.382	43.539	0	450.30	0	5.0470	0	36.8630	8	29.152	0	446.219	0	78.9	4	26.1	4	-1E+10	1	-1E+10	1	-1E+10	1	-1E+10	1	-1E+10	1	-1E+10	1
4901784	202	C	01/14/2021	10:49	-134.382	43.539	0	452.20	0	5.0240	0	36.8420	8	29.138	0	448.100	0	78.4	4	25.9	4	-1E+10	1	-1E+10	1	-1E+10	1	-1E+10	1	-1E+10	1	-1E+10	1
4901784	202	C	01/14/2021	10:49	-134.382	43.539	0	455.00	0	4.9990	0	36.8430	8	29.142	0	450.871	0	77.6	4	25.6	4	-1E+10	1	-1E+10	1	-1E+10	1	-1E+10	1	-1E+10	1	-1E+10	1
4901784	202	C	01/14/2021	10:49	-134.382	43.539	0	457.80	0	4.9780	0	36.8520	8	29.152	0	453.643	0	76.9	4	25.3	4	-1E+10	1	-1E+10	1	-1E+10	1	-1E+10	1	-1E+10	1	-1E+10	1
4901784	202	C	01/14/2021	10:49	-134.382	43.539	0	459.70	0	4.9680	0	36.8530	8	29.154	0	455.524	0	76.3	4	25.2	4	-1E+10	1	-1E+10	1	-1E+10	1	-1E+10	1	-1E+10	1	-1E+10	1
4901784	202	C	01/14/2021	10:49	-134.382	43.539	0	462.60	0	4.9470	0	36.8520	8	29.156	0	458.394	0	75.5	4	24.9	4	-1E+10	1	-1E+10	1	-1E+10	1	-1E+10	1	-1E+10	1	-1E+10	1
4901784	202	C	01/14/2021	10:49	-134.382	43.539	0	465.40	0	4.9270	0	36.8430	8	29.151	0	461.166	0	74.7	4	24.6	4	-1E+10	1	-1E+10	1	-1E+10	1	-1E+10	1	-1E+10	1	-1E+10	1
4901784	202	C	01/14/2021	10:49	-134.382	43.539	0	467.80	0	4.9040	0	36.8670	8	29.173	0	463.541	0	74.2	4	24.4	4	-1E+10	1	-1E+10	1	-1E+10	1	-1E+10	1	-1E+10	1	-1E+10	1
4901784	202	C	01/14/2021	10:49	-134.382	43.539	0	469.70	0	4.8950	0	36.8530	8	29.163	0	465.422	0	73.7	4	24.3	4	-1E+10	1	-1E+10	1	-1E+10	1	-1E+10	1	-1E+10	1	-1E+10	1
4901784	202	C	01/14/2021	10:49	-134.382	43.539	0	472.10	0	4.8860	0	36.8740	8	29.181	0	467.797	0	73.0	4	24.0	4	-1E+10	1	-1E+10	1	-1E+10	1	-1E+10	1	-1E+10	1	-1E+10	1
4901784	202	C	01/14/2021	10:49	-134.382	43.539	0	475.30	0	4.8660	0	36.8620	8	29.174	0	470.964	0	72.2	4	23.7	4	-1E+10	1	-1E+10	1	-1E+10	1	-1E+10	1	-1E+10	1	-1E+10	1
4901784	202	C	01/14/2021	10:49	-134.382	43.539	0	477.70	0	4.8570	0	36.8460	8	29.162	0	473.340	0	71.5	4	23.5	4	-1E+10	1	-1E+10	1	-1E+10	1	-1E+10	1	-1E+10	1	-1E+10	1
4901784	202	C	01/14/2021	10:49	-134.382	43.539	0	480.20	0	4.8430	0	36.8550	8	29.171	0	475.814	0	70.8	4	23.3	4	-1E+10	1	-1E+10	1	-1E+10	1	-1E+10	1	-1E+10	1	-1E+10	1
4901784	202	C	01/14/2021	10:49	-134.382	43.539	0	482.60	0	4.8270	0	36.8740	8	29.188	0	478.189	0	70.0	4	23.0	4	-1E+10	1	-1E+10	1	-1E+10	1	-1E+10	1	-1E+10	1	-1E+10	1
4901784	202	C	01/14/2021	10:49	-134.382	43.539	0	485.00	0	4.8160	0	36.8810	8	29.195	0	480.565	0	69.5	4	22.8	4	-1E+10	1	-1E+10	1	-1E+10	1	-1E+10	1	-1E+10	1	-1E+10	1
4901784	202	C	01/14/2021	10:49	-134.382	43.539	0	487.50	0	4.8070	0	36.8890	8	29.202	0	483.039	0	68.9	4	22.6	4	-1E+10	1	-1E+10	1	-1E+10	1	-1E+10	1	-1E+10	1	-1E+10	1
4901784	202	C	01/14/2021	10:49	-134.382	43.539	0	489.90	0	4.7970	0	36.8950	8	29.208	0	485.414	0	68.1	4	22.4	4	-1E+10	1	-1E+10	1	-1E+10	1	-1E+10	1	-1E+10	1	-1E+10	1
4901784	202	C	01/14/2021	10:49	-134.382	43.539	0	492.40	0	4.7870	0	36.8920	8	29.207	0	487.888	0	67.0	4	22.0	4	-1E+10	1	-1E+10	1	-1E+10	1	-1E+10	1	-1E+10	1	-1E+10	1
4901784	202	C	01/14/2021	10:49	-134.382	43.539	0	494.90	0	4.7870	0	36.8900	8	29.205	0	490.362	0	65.7	4	21.6	4	-1E+10	1	-1E+10	1	-1E+10	1	-1E+10	1	-1E+10	1	-1E+10	1
4901784	202	C	01/14/2021	10:49	-134.382	43.539	0	497.50	0	4.7780	0	36.8820	8	29.200	0	492.935	0	65.0	4	21.3	4	-1E+10	1	-1E+10	1	-1E+10	1	-1E+10	1	-1E+10	1	-1E+10	1
4901784	202	C	01/14/2021	10:49	-134.382	43.539	0	500.00	0	4.7510	0	36.8750	8	29.198	0	495.410	0	64.2	4	21.1	4	-1E+10	1	-1E+10	1	-1E+10	1	-1E+10	1	-1E+10	1	-1E+10	1
4901784	202	C	01/14/2021	10:49	-134.382	43.539	0	504.30	0	4.7320	0	36.8740	8	29.199	0	499.665	0	62.4	4	20.5	4	-1E+10	1	-1E+10	1	-1E+10	1	-1E+10	1	-1E+10	1	-1E+10	1
4901784	202	C	01/14/2021	10:49	-134.382	43.539	0	509.40	0	4.7130	0	36.8650	8	29.194	0	504.712	0	61.3	4	20.1	4	-1E+10	1	-1E+10	1	-1E+10	1	-1E+10	1	-1E+10	1	-1E+10	1
4901784	202	C	01/14/2021	10:49	-134.382	43.539	0	514.40	0	4.6720	0	36.8810	8	29.212	0	509.660	0	59.4	4	19.4	4	-1E+10	1	-1E+10	1	-1E+10	1	-1E+10	1	-1E+10	1	-1E+10	1
4901784	202	C	01/14/2021	10:49	-134.382	43.539	0	519.60	0	4.6820	0	36.8810	8	29.211	0	514.805	0	57.2	4	18.7	4	-1E+10	1	-1E+10	1	-1E+10	1	-1E+10	1	-1E+10	1	-1E+10	1
4901784	202	C	01/14/2021	10:49	-134.382	43.539	0	524.90	0	4.6640	0	36.8740	8	29.207	0	520.050	0	55.7	4	18.2	4	-1E+10	1	-1E+10	1	-1E+10	1	-1E+10	1	-1E+10	1	-1E+10	1
4901784	202	C	01/14/2021	10:49	-134.382	43.539	0	530.20	0	4.6500	0	36.8700	8	29.206	0	525.294	0	53.9	4	17.6	4	-1E+10	1	-1E+10	1	-1E+10	1	-1E+10	1	-1E+10	1	-1E+10	1
4901784	202	C	01/14/2021	10:49	-134.382	43.539	0	535.60	0	4.6430	0	36.8820	8	29.216	0	530.637	0	52.3	4	17.1	4	-1E+10	1	-1E+10	1	-1E+10	1	-1E+10	1	-1E+10	1	-1E+10	1
4901784	202	C	01/14/2021	10:49	-134.382	43.539	0	540.10	0	4.6180	0	36.8850	8	29.222	0	535.090	0	51.6	4	16.9	4	-1E+10	1	-1E+10	1	-1E+10	1	-1E+10	1	-1E+10	1	-1E+10	1
4901784	202	C	01/14/2021	10:49	-134.382	43.539	0	544.60	0	4.5740	0	36.8920	8	29.232	0	539.542	0	50.8	4	16.6	4	-1E+10	1	-1E+10	1	-1E+10	1	-1E+10	1	-1E+10	1	-1E+10	1
4901784	202	C	01/14/2021	10:49	-134.382	43.539	0	549.90	0	4.5840	0	36.8950	8	29.234	0	544.786	0	49.0	4	16.0	4	-1E+10	1	-1E+10	1	-1E+10	1	-1E+10	1	-1E+10	1	-1E+10	1
4901784	202	C	01/14/2021	10:49	-134.382	43.539	0	555.30	0	4.5560	0	36.8940	8	29.236	0	550.129	0	47.8	4	15.6	4	-1E+10	1	-1E+10	1	-1E+10	1	-1E+10	1	-1E+10	1	-1E+10	1
4901784	202	C	01/14/2021	10:49	-134.382	43.539	0	560.60	0	4.5390	0	36.8940	8	29.238	0	555.372	0	46.3	4	15.1	4	-1E+10	1	-1E+10	1	-1E+10	1	-1E+10	1	-1E+10	1	-1E+10	1
4901784	202	C	01/14/2021	10:49	-134.382	43.539	0	565.20	0	4.5290	0	36.9050	8	29.248	0	559.923	0	45.2	4	14.8	4	-1E+10	1	-1E+10	1	-1E+10	1	-1E+10	1	-1E+10	1	-1E+10	1
4901784	202	C	01/14/2021	10:49	-134.382	43.539	0	569.80	0	4.5230	0	36.8980	8	29.243	0	564.474	0	44.4	4	14.5	4	-1E+10	1	-1E+10	1	-1E+10	1	-1E+10	1	-1E+10	1	-1E+10	1
4901784	202	C	01/14/2021	10:49	-134.382	43.539	0	575.30	0	4.5240	0	36.9170	8	29.258	0	569.915	0	43.0	4	14.0	4	-1E+10	1	-1E+10	1	-1E+10	1	-1E+10	1	-1E+10	1	-1E+10	1
4901784	202	C	01/14/2021	10:49	-134.382	43.539	0	580.60	0	4.5230	0	36.9190	8	29.260	0	575.158	0	41.6	4	13.6	4	-1E+10	1	-1E+10	1	-1E+10	1	-1E+10	1	-1E+10	1	-1E+10	1
4901784	202	C	01/14/2021	10:49	-134.382	43.539	0	585.10	0	4.4910	0	36.9320	8	29.274	0	579.610	0	40.1	4	13.1	4	-1E+10	1	-1E+10	1	-1E+10	1	-1E+10	1	-1E+10	1	-1E+10	1
4901784	202	C	01/14/2021	10:49	-134.382	43.539	0	589.60	0	4.4770	0	36.9470	8	29.288	0	584.061	0	39.1	4	12.8	4	-1E+10	1	-1E+10	1	-1E+10	1	-1E+10	1	-1E+10	1	-1E+10	1
4901784	202	C	01/14/2021	10:49	-134.382	43.539	0	595.20	0	4.4690	0	36.9550	8	29.295	0	589.601	0	37.6	4	12.3	4	-1E+10	1	-1E+10	1	-1E+10	1	-1E+10	1	-1E+10	1	-1E+10	1
4901784	202	C	01/14/2021	10:49	-134.382	43.539	0	599.80	0	4.4540	0	36.9510	8	29.294	0	594.151	0	36.3	4	11.8	4	-1E+10	1	-1E+10	1	-1E+10	1	-1E+10	1	-1E+10	1	-1E+10	1
4901784	202	C	01/14/2021	10:49	-134.382	43.539	0	604.30	0	4.4360	0	36.9650	8	29.307	0	598.602	0	34.7	4	11.3	4	-1E+10	1	-1E+10	1	-1E+10	1	-1E+10	1	-1E+10	1	-1E+10	1
4901784	202	C	01/14/2021	10:49	-134.382	43.539	0	609.80	0	4.4100	0	36.9830	8	29.324	0	604.042	0	33.3	4	10.8	4	-1E+10	1	-1E+10	1	-1E+10	1	-1E+10	1	-1E+10	1	-1E+10	1
4901784	202	C	01/14/2021	10:49	-134.382	43.539	0	615.30	0	4.4000	0	36.9920	8	29.333	0	609.482	0	32.0	4	10.4	4	-1E+10	1	-1E+10	1	-1E+10	1	-1E+10	1	-1E+10	1	-1E+10	1
4901784	202	C	01/14/2021	10:49	-134.382	43.539	0	620.00	0	4.3810	0	37.0090	8	29.348	0	614.131	0	30.7	4	10.0	4	-1E+10	1	-1E+10	1	-1E+10	1	-1E+10	1	-1E+10	1	-1E+10	1
4901784	202	C	01/14/2021	10:49	-134.382	43.539	0	624.60	0	4.3600	0	37.0040	8	29.347	0	618.680	0	29.6	4	9.6	4	-1E+10	1	-1E+10	1	-1E+10	1	-1E+10	1	-1E+10	1	-1E+10	1
4901784	202	C	01/14/2021	10:49	-134.382	43.539	0	630.20	0	4.3460	0	36.9950	8	29.341	0	624.219	0	28.4	4	9.2	4	-1E+10	1	-1E+10	1	-1E+10	1	-1E+10	1	-1E+10	1	-1E+10	1
4901784	202	C	01/14/2021	10:49	-134.382	43.539	0	634.90	0	4.3400	0	37.0010	8	29.347	0	628.867	0	27.4	4	8.9	4	-1E+10	1	-1E+10	1	-1E+10	1	-1E+10	1	-1E+10	1	-1E+10	1
4901784	202	C	01/14/2021	10:49	-134.382	43.539	0	639.50	0	4.3290	0	37.0120	8	29.357	0	633.416	0	26.4	4	8.6	4	-1E+10	1	-1E+10	1	-1E+10	1	-1E+10	1	-1E+10	1	-1E+10	1
4901784	202	C	01/14/2021	10:49	-134.382	43.539	0	645.00	0	4.3180	0	37.0260	8	29.369	0	638.856	0	25.3	4	8.2	4	-1E+10	1	-1E+10	1	-1E+10	1	-1E+10	1	-1E+10	1	-1E+10	1
4901784	202	C	01/14/2021	10:49	-134.382	43.539	0	649.70	0	4.3090	8	37.0450	8	29.385	0	643.504	0	24.6	4	8.0	4	-1E+10	1	-1E+10	1	-1E+10	1	-1E+10	1	-1E+10	1	-1E+10	1
4901784	202	C	01/14/2021	10:49	-134.382	43.539	0	654.30	0	4.2880	8	36.9970	8	29.350	0	648.053	0	24.3	4	7.9	4	-1E+10	1	-1E+10	1	-1E+10	1	-1E+10	1	-1E+10	1	-1E+10	1
4901784	202	C	01/14/2021	10:49	-134.382	43.539	0	659.90	0	4.2180	0	36.9770	8	29.342	0	653.590	0	23.9	4	7.7	4	-1E+10	1	-1E+10	1	-1E+10	1	-1E+10	1	-1E+10	1	-1E+10	1
4901784	202	C	01/14/2021	10:49	-134.382	43.539	0	665.50	0	4.1960	0	36.9760	8	29.343	0	659.128	0	22.8	4	7.4	4	-1E+10	1	-1E+10	1	-1E+10	1	-1E+10	1	-1E+10	1	-1E+10	1
4901784	202	C	01/14/2021	10:49	-134.382	43.539	0	670.10	0	4.2000	0	36.9690	8	29.337	0	663.677	0	22.0	4	7.1	4	-1E+10	1	-1E+10	1	-1E+10	1	-1E+10	1	-1E+10	1	-1E+10	1
4901784	202	C	01/14/2021	10:49	-134.382	43.539	0	674.80	0	4.1860	0	36.9730	8	29.342	0	668.324	0	21.1	4	6.8	4	-1E+10	1	-1E+10	1	-1E+10	1	-1E+10	1	-1E+10	1	-1E+10	1
4901784	202	C	01/14/2021	10:49	-134.382	43.539	0	680.40	0	4.1760	0	36.9760	8	29.346	0	673.861	0	20.0	4	6.5	4	-1E+10	1	-1E+10	1	-1E+10	1	-1E+10	1	-1E+10	1	-1E+10	1
4901784	202	C	01/14/2021	10:49	-134.382	43.539	0	685.10	0	4.1860	0	36.9650	8	29.336	0	678.508	0	18.9	4	6.1	4	-1E+10	1	-1E+10	1	-1E+10	1	-1E+10	1	-1E+10	1	-1E+10	1
4901784	202	C	01/14/2021	10:49	-134.382	43.539	0	689.80	0	4.1950	0	36.9560	8	29.328	0	683.156	0	17.9	4	5.8	4	-1E+10	1	-1E+10	1	-1E+10	1	-1E+10	1	-1E+10	1	-1E+10	1
4901784	202	C	01/14/2021	10:49	-134.382	43.539	0	695.50	0	4.1840	0	36.9690	8	29.339	0	688.791	0	16.7	4	5.4	4	-1E+10	1	-1E+10	1	-1E+10	1	-1E+10	1	-1E+10	1	-1E+10	1
4901784	202	C	01/14/2021	10:49	-134.382	43.539	0	700.30	0	4.2370	0	36.9740	8	29.337	0	693.537	0	15.7	4	5.1	4	-1E+10	1	-1E+10	1	-1E+10	1	-1E+10	1	-1E+10	1	-1E+10	1
4901784	202	C	01/14/2021	10:49	-134.382	43.539	0	705.10	0	4.2390	0	36.9700	8	29.334	0	698.283	0	15.2	4	4.9	4	-1E+10	1	-1E+10	1	-1E+10	1	-1E+10	1	-1E+10	1	-1E+10	1
4901784	202	C	01/14/2021	10:49	-134.382	43.539	0	709.90	0	4.2130	0	36.9700	8	29.337	0	703.028	0	14.8	4	4.8	4	-1E+10	1	-1E+10	1	-1E+10	1	-1E+10	1	-1E+10	1	-1E+10	1
4901784	202	C	01/14/2021	10:49	-134.382	43.539	0	714.60	0	4.1980	0	36.9710	8	29.340	0	707.675	0	14.4	4	4.7	4	-1E+10	1	-1E+10	1	-1E+10	1	-1E+10	1	-1E+10	1	-1E+10	1
4901784	202	C	01/14/2021	10:49	-134.382	43.539	0	720.40	0	4.2050	0	36.9760	8	29.343	0	713.408	0	14.0	4	4.5	4	-1E+10	1	-1E+10	1	-1E+10	1	-1E+10	1	-1E+10	1	-1E+10	1
4901784	202	C	01/14/2021	10:49	-134.382	43.539	0	725.30	0	4.1950	0	36.9790	8	29.346	0	718.252	0	13.7	4	4.4	4	-1E+10	1	-1E+10	1	-1E+10	1	-1E+10	1	-1E+10	1	-1E+10	1
4901784	202	C	01/14/2021	10:49	-134.382	43.539	0	730.10	0	4.1760	0	36.9840	8	29.353	0	722.997	0	13.5	4	4.4	4	-1E+10	1	-1E+10	1	-1E+10	1	-1E+10	1	-1E+10	1	-1E+10	1
4901784	202	C	01/14/2021	10:49	-134.382	43.539	0	735.60	0	4.1510	0	36.9910	8	29.361	0	728.434	0	13.1	4	4.3	4	-1E+10	1	-1E+10	1	-1E+10	1	-1E+10	1	-1E+10	1	-1E+10	1
4901784	202	C	01/14/2021	10:49	-134.382	43.539	0	740.50	0	4.1370	0	36.9970	8	29.367	0	733.278	0	12.9	4	4.2	4	-1E+10	1	-1E+10	1	-1E+10	1	-1E+10	1	-1E+10	1	-1E+10	1
4901784	202	C	01/14/2021	10:49	-134.382	43.539	0	745.40	0	4.1190	0	37.0020	8	29.373	0	738.122	0	12.7	4	4.1	4	-1E+10	1	-1E+10	1	-1E+10	1	-1E+10	1	-1E+10	1	-1E+10	1
4901784	202	C	01/14/2021	10:49	-134.382	43.539	0	750.50	0	4.1140	0	37.0040	8	29.375	0	743.163	0	12.6	4	4.1	4	-1E+10	1	-1E+10	1	-1E+10	1	-1E+10	1	-1E+10	1	-1E+10	1
4901784	202	C	01/14/2021	10:49	-134.382	43.539	0	755.50	0	4.1050	0	37.0080	8	29.380	0	748.105	0	12.5	4	4.0	4	-1E+10	1	-1E+10	1	-1E+10	1	-1E+10	1	-1E+10	1	-1E+10	1
4901784	202	C	01/14/2021	10:49	-134.382	43.539	0	760.60	0	4.0960	0	37.0120	8	29.384	0	753.146	0	12.3	4	4.0	4	-1E+10	1	-1E+10	1	-1E+10	1	-1E+10	1	-1E+10	1	-1E+10	1
4901784	202	C	01/14/2021	10:49	-134.382	43.539	0	764.90	0	4.0870	0	37.0160	8	29.388	0	757.396	0	12.2	4	3.9	4	-1E+10	1	-1E+10	1	-1E+10	1	-1E+10	1	-1E+10	1	-1E+10	1
4901784	202	C	01/14/2021	10:49	-134.382	43.539	0	769.30	0	4.0830	0	37.0170	8	29.389	0	761.745	0	12.1	4	3.9	4	-1E+10	1	-1E+10	1	-1E+10	1	-1E+10	1	-1E+10	1	-1E+10	1
4901784	202	C	01/14/2021	10:49	-134.382	43.539	0	774.60	0	4.0730	0	37.0210	8	29.394	0	766.983	0	11.9	4	3.9	4	-1E+10	1	-1E+10	1	-1E+10	1	-1E+10	1	-1E+10	1	-1E+10	1
4901784	202	C	01/14/2021	10:49	-134.382	43.539	0	779.90	0	4.0620	0	37.0250	8	29.398	0	772.221	0	11.7	4	3.8	4	-1E+10	1	-1E+10	1	-1E+10	1	-1E+10	1	-1E+10	1	-1E+10	1
4901784	202	C	01/14/2021	10:49	-134.382	43.539	0	785.20	0	4.0490	0	37.0300	8	29.404	0	777.459	0	11.6	4	3.7	4	-1E+10	1	-1E+10	1	-1E+10	1	-1E+10	1	-1E+10	1	-1E+10	1
4901784	202	C	01/14/2021	10:49	-134.382	43.539	0	790.60	0	4.0390	0	37.0330	8	29.407	0	782.796	0	11.4	4	3.7	4	-1E+10	1	-1E+10	1	-1E+10	1	-1E+10	1	-1E+10	1	-1E+10	1
4901784	202	C	01/14/2021	10:49	-134.382	43.539	0	795.00	0	4.0150	0	37.0390	8	29.415	0	787.144	0	11.3	4	3.7	4	-1E+10	1	-1E+10	1	-1E+10	1	-1E+10	1	-1E+10	1	-1E+10	1
4901784	202	C	01/14/2021	10:49	-134.382	43.539	0	799.50	0	4.0000	0	37.0420	8	29.419	0	791.591	0	11.2	4	3.6	4	-1E+10	1	-1E+10	1	-1E+10	1	-1E+10	1	-1E+10	1	-1E+10	1
4901784	202	C	01/14/2021	10:49	-134.382	43.539	0	805.00	0	3.9910	0	37.0450	8	29.422	0	797.026	0	11.2	4	3.6	4	-1E+10	1	-1E+10	1	-1E+10	1	-1E+10	1	-1E+10	1	-1E+10	1
4901784	202	C	01/14/2021	10:49	-134.382	43.539	0	809.60	0	3.9730	0	37.0480	8	29.427	0	801.572	0	11.1	4	3.6	4	-1E+10	1	-1E+10	1	-1E+10	1	-1E+10	1	-1E+10	1	-1E+10	1
4901784	202	C	01/14/2021	10:49	-134.382	43.539	0	814.20	0	3.9690	0	37.0490	8	29.428	0	806.117	0	11.1	4	3.6	4	-1E+10	1	-1E+10	1	-1E+10	1	-1E+10	1	-1E+10	1	-1E+10	1
4901784	202	C	01/14/2021	10:49	-134.382	43.539	0	819.50	0	3.9560	0	37.0520	8	29.432	0	811.354	0	11.0	4	3.5	4	-1E+10	1	-1E+10	1	-1E+10	1	-1E+10	1	-1E+10	1	-1E+10	1
4901784	202	C	01/14/2021	10:49	-134.382	43.539	0	825.00	0	3.9410	0	37.0570	8	29.437	0	816.789	0	10.9	4	3.5	4	-1E+10	1	-1E+10	1	-1E+10	1	-1E+10	1	-1E+10	1	-1E+10	1
4901784	202	C	01/14/2021	10:49	-134.382	43.539	0	830.60	0	3.9230	0	37.0600	8	29.442	0	822.322	0	10.8	4	3.5	4	-1E+10	1	-1E+10	1	-1E+10	1	-1E+10	1	-1E+10	1	-1E+10	1
4901784	202	C	01/14/2021	10:49	-134.382	43.539	0	835.40	0	3.9150	0	37.0620	8	29.444	0	827.065	0	10.8	4	3.5	4	-1E+10	1	-1E+10	1	-1E+10	1	-1E+10	1	-1E+10	1	-1E+10	1
4901784	202	C	01/14/2021	10:49	-134.382	43.539	0	840.30	0	3.9030	0	37.0650	8	29.448	0	831.906	0	10.7	4	3.4	4	-1E+10	1	-1E+10	1	-1E+10	1	-1E+10	1	-1E+10	1	-1E+10	1
4901784	202	C	01/14/2021	10:49	-134.382	43.539	0	845.30	0	3.8920	0	37.0680	8	29.452	0	836.846	0	10.6	4	3.4	4	-1E+10	1	-1E+10	1	-1E+10	1	-1E+10	1	-1E+10	1	-1E+10	1
4901784	202	C	01/14/2021	10:49	-134.382	43.539	0	850.30	0	3.8780	0	37.0710	8	29.456	0	841.786	0	10.5	4	3.4	4	-1E+10	1	-1E+10	1	-1E+10	1	-1E+10	1	-1E+10	1	-1E+10	1
4901784	202	C	01/14/2021	10:49	-134.382	43.539	0	855.30	0	3.8640	0	37.0750	8	29.460	0	846.726	0	10.5	4	3.4	4	-1E+10	1	-1E+10	1	-1E+10	1	-1E+10	1	-1E+10	1	-1E+10	1
4901784	202	C	01/14/2021	10:49	-134.382	43.539	0	860.40	0	3.8510	0	37.0800	8	29.466	0	851.764	0	10.4	4	3.3	4	-1E+10	1	-1E+10	1	-1E+10	1	-1E+10	1	-1E+10	1	-1E+10	1
4901784	202	C	01/14/2021	10:49	-134.382	43.539	0	865.50	0	3.8410	0	37.0830	8	29.469	0	856.803	0	10.3	4	3.3	4	-1E+10	1	-1E+10	1	-1E+10	1	-1E+10	1	-1E+10	1	-1E+10	1
4901784	202	C	01/14/2021	10:49	-134.382	43.539	0	870.60	0	3.8280	0	37.0880	8	29.475	0	861.841	0	10.2	4	3.3	4	-1E+10	1	-1E+10	1	-1E+10	1	-1E+10	1	-1E+10	1	-1E+10	1
4901784	202	C	01/14/2021	10:49	-134.382	43.539	0	874.90	0	3.8130	0	37.0920	8	29.479	0	866.089	0	10.2	4	3.3	4	-1E+10	1	-1E+10	1	-1E+10	1	-1E+10	1	-1E+10	1	-1E+10	1
4901784	202	C	01/14/2021	10:49	-134.382	43.539	0	879.30	0	3.8000	0	37.0950	8	29.483	0	870.435	0	10.2	4	3.3	4	-1E+10	1	-1E+10	1	-1E+10	1	-1E+10	1	-1E+10	1	-1E+10	1
4901784	202	C	01/14/2021	10:49	-134.382	43.539	0	884.50	0	3.7910	0	37.0980	8	29.487	0	875.572	0	10.1	4	3.2	4	-1E+10	1	-1E+10	1	-1E+10	1	-1E+10	1	-1E+10	1	-1E+10	1
4901784	202	C	01/14/2021	10:49	-134.382	43.539	0	889.80	0	3.7770	0	37.1020	8	29.491	0	880.807	0	10.1	4	3.2	4	-1E+10	1	-1E+10	1	-1E+10	1	-1E+10	1	-1E+10	1	-1E+10	1
4901784	202	C	01/14/2021	10:49	-134.382	43.539	0	895.00	0	3.7680	0	37.1060	8	29.496	0	885.944	0	10.1	4	3.2	4	-1E+10	1	-1E+10	1	-1E+10	1	-1E+10	1	-1E+10	1	-1E+10	1
4901784	202	C	01/14/2021	10:49	-134.382	43.539	0	900.20	0	3.7590	0	37.1100	8	29.500	0	891.080	0	10.0	4	3.2	4	-1E+10	1	-1E+10	1	-1E+10	1	-1E+10	1	-1E+10	1	-1E+10	1
4901784	202	C	01/14/2021	10:49	-134.382	43.539	0	905.50	0	3.7510	0	37.1130	8	29.503	0	896.315	0	10.0	4	3.2	4	-1E+10	1	-1E+10	1	-1E+10	1	-1E+10	1	-1E+10	1	-1E+10	1
4901784	202	C	01/14/2021	10:49	-134.382	43.539	0	909.90	0	3.7430	0	37.1170	8	29.507	0	900.661	0	10.0	4	3.2	4	-1E+10	1	-1E+10	1	-1E+10	1	-1E+10	1	-1E+10	1	-1E+10	1
4901784	202	C	01/14/2021	10:49	-134.382	43.539	0	914.30	0	3.7340	0	37.1200	8	29.511	0	905.007	0	10.0	4	3.2	4	-1E+10	1	-1E+10	1	-1E+10	1	-1E+10	1	-1E+10	1	-1E+10	1
4901784	202	C	01/14/2021	10:49	-134.382	43.539	0	919.60	0	3.7280	0	37.1220	8	29.513	0	910.241	0	10.0	4	3.2	4	-1E+10	1	-1E+10	1	-1E+10	1	-1E+10	1	-1E+10	1	-1E+10	1
4901784	202	C	01/14/2021	10:49	-134.382	43.539	0	924.80	0	3.7210	0	37.1250	8	29.516	0	915.377	0	10.0	4	3.2	4	-1E+10	1	-1E+10	1	-1E+10	1	-1E+10	1	-1E+10	1	-1E+10	1
4901784	202	C	01/14/2021	10:49	-134.382	43.539	0	930.10	0	3.7030	0	37.1290	8	29.521	0	920.611	0	10.0	4	3.2	4	-1E+10	1	-1E+10	1	-1E+10	1	-1E+10	1	-1E+10	1	-1E+10	1
4901784	202	C	01/14/2021	10:49	-134.382	43.539	0	935.30	0	3.6890	0	37.1320	8	29.525	0	925.747	0	10.0	4	3.2	4	-1E+10	1	-1E+10	1	-1E+10	1	-1E+10	1	-1E+10	1	-1E+10	1
4901784	202	C	01/14/2021	10:49	-134.382	43.539	0	940.60	0	3.6810	0	37.1360	8	29.529	0	930.981	0	10.0	4	3.2	4	-1E+10	1	-1E+10	1	-1E+10	1	-1E+10	1	-1E+10	1	-1E+10	1
4901784	202	C	01/14/2021	10:49	-134.382	43.539	0	945.10	0	3.6760	0	37.1370	8	29.530	0	935.425	0	10.0	4	3.2	4	-1E+10	1	-1E+10	1	-1E+10	1	-1E+10	1	-1E+10	1	-1E+10	1
4901784	202	C	01/14/2021	10:49	-134.382	43.539	0	949.50	0	3.6630	0	37.1410	8	29.535	0	939.770	0	10.0	4	3.2	4	-1E+10	1	-1E+10	1	-1E+10	1	-1E+10	1	-1E+10	1	-1E+10	1
4901784	202	C	01/14/2021	10:49	-134.382	43.539	0	954.90	0	3.6560	0	37.1430	8	29.537	0	945.102	0	10.0	4	3.2	4	-1E+10	1	-1E+10	1	-1E+10	1	-1E+10	1	-1E+10	1	-1E+10	1
4901784	202	C	01/14/2021	10:49	-134.382	43.539	0	960.30	0	3.6500	0	37.1470	8	29.541	0	950.435	0	10.0	4	3.2	4	-1E+10	1	-1E+10	1	-1E+10	1	-1E+10	1	-1E+10	1	-1E+10	1
4901784	202	C	01/14/2021	10:49	-134.382	43.539	0	965.60	0	3.6420	0	37.1510	8	29.545	0	955.668	0	10.0	4	3.2	4	-1E+10	1	-1E+10	1	-1E+10	1	-1E+10	1	-1E+10	1	-1E+10	1
4901784	202	C	01/14/2021	10:49	-134.382	43.539	0	970.10	0	3.6340	0	37.1550	8	29.549	0	960.112	0	10.1	4	3.2	4	-1E+10	1	-1E+10	1	-1E+10	1	-1E+10	1	-1E+10	1	-1E+10	1
4901784	202	C	01/14/2021	10:49	-134.382	43.539	0	974.60	0	3.6220	0	37.1570	8	29.552	0	964.555	0	10.1	4	3.2	4	-1E+10	1	-1E+10	1	-1E+10	1	-1E+10	1	-1E+10	1	-1E+10	1
4901784	202	C	01/14/2021	10:49	-134.382	43.539	0	980.10	0	3.6070	0	37.1600	8	29.556	0	969.986	0	10.1	4	3.2	4	-1E+10	1	-1E+10	1	-1E+10	1	-1E+10	1	-1E+10	1	-1E+10	1
4901784	202	C	01/14/2021	10:49	-134.382	43.539	0	985.50	0	3.5950	0	37.1630	8	29.560	0	975.317	0	10.1	4	3.2	4	-1E+10	1	-1E+10	1	-1E+10	1	-1E+10	1	-1E+10	1	-1E+10	1
4901784	202	C	01/14/2021	10:49	-134.382	43.539	0	989.90	0	3.5830	0	37.1660	8	29.564	0	979.662	0	10.2	4	3.3	4	-1E+10	1	-1E+10	1	-1E+10	1	-1E+10	1	-1E+10	1	-1E+10	1
4901784	202	C	01/14/2021	10:49	-134.382	43.539	0	994.40	0	3.5710	0	37.1690	8	29.567	0	984.104	0	10.2	4	3.3	4	-1E+10	1	-1E+10	1	-1E+10	1	-1E+10	1	-1E+10	1	-1E+10	1
4901784	202	C	01/14/2021	10:49	-134.382	43.539	0	999.90	0	3.5550	0	37.1720	8	29.572	0	989.535	0	10.3	4	3.3	4	-1E+10	1	-1E+10	1	-1E+10	1	-1E+10	1	-1E+10	1	-1E+10	1
4901784	202	C	01/14/2021	10:49	-134.382	43.539	0	1005.30	0	3.5410	0	37.1750	8	29.575	0	994.866	0	10.3	4	3.3	4	-1E+10	1	-1E+10	1	-1E+10	1	-1E+10	1	-1E+10	1	-1E+10	1
4901784	202	C	01/14/2021	10:49	-134.382	43.539	0	1009.90	0	3.5330	0	37.1780	8	29.579	0	999.407	0	10.4	4	3.3	4	-1E+10	1	-1E+10	1	-1E+10	1	-1E+10	1	-1E+10	1	-1E+10	1
4901784	202	C	01/14/2021	10:49	-134.382	43.539	0	1014.40	0	3.5230	0	37.1800	8	29.581	0	1003.850	0	10.4	4	3.3	4	-1E+10	1	-1E+10	1	-1E+10	1	-1E+10	1	-1E+10	1	-1E+10	1
4901784	202	C	01/14/2021	10:49	-134.382	43.539	0	1019.90	0	3.5050	0	37.1840	8	29.586	0	1009.279	0	10.5	4	3.4	4	-1E+10	1	-1E+10	1	-1E+10	1	-1E+10	1	-1E+10	1	-1E+10	1
4901784	202	C	01/14/2021	10:49	-134.382	43.539	0	1025.40	0	3.4890	0	37.1870	8	29.591	0	1014.708	0	10.6	4	3.4	4	-1E+10	1	-1E+10	1	-1E+10	1	-1E+10	1	-1E+10	1	-1E+10	1
4901784	202	C	01/14/2021	10:49	-134.382	43.539	0	1029.90	0	3.4790	0	37.1890	8	29.593	0	1019.151	0	10.7	4	3.4	4	-1E+10	1	-1E+10	1	-1E+10	1	-1E+10	1	-1E+10	1	-1E+10	1
4901784	202	C	01/14/2021	10:49	-134.382	43.539	0	1034.50	0	3.4680	0	37.1920	8	29.597	0	1023.691	0	10.7	4	3.4	4	-1E+10	1	-1E+10	1	-1E+10	1	-1E+10	1	-1E+10	1	-1E+10	1
4901784	202	C	01/14/2021	10:49	-134.382	43.539	0	1040.00	0	3.4510	0	37.1960	8	29.602	0	1029.120	0	10.8	4	3.4	4	-1E+10	1	-1E+10	1	-1E+10	1	-1E+10	1	-1E+10	1	-1E+10	1
4901784	202	C	01/14/2021	10:49	-134.382	43.539	0	1045.40	0	3.4420	0	37.1980	8	29.604	0	1034.451	0	10.9	4	3.5	4	-1E+10	1	-1E+10	1	-1E+10	1	-1E+10	1	-1E+10	1	-1E+10	1
4901784	202	C	01/14/2021	10:49	-134.382	43.539	0	1050.70	0	3.4330	0	37.2000	8	29.607	0	1039.682	0	11.0	4	3.5	4	-1E+10	1	-1E+10	1	-1E+10	1	-1E+10	1	-1E+10	1	-1E+10	1
4901784	202	C	01/14/2021	10:49	-134.382	43.539	0	1055.50	0	3.4180	0	37.2030	8	29.611	0	1044.420	0	11.0	4	3.5	4	-1E+10	1	-1E+10	1	-1E+10	1	-1E+10	1	-1E+10	1	-1E+10	1
4901784	202	C	01/14/2021	10:49	-134.382	43.539	0	1060.30	0	3.4070	0	37.2060	8	29.614	0	1049.157	0	11.1	4	3.5	4	-1E+10	1	-1E+10	1	-1E+10	1	-1E+10	1	-1E+10	1	-1E+10	1
4901784	202	C	01/14/2021	10:49	-134.382	43.539	0	1065.20	0	3.3970	0	37.2080	8	29.617	0	1053.993	0	11.2	4	3.6	4	-1E+10	1	-1E+10	1	-1E+10	1	-1E+10	1	-1E+10	1	-1E+10	1
4901784	202	C	01/14/2021	10:49	-134.382	43.539	0	1070.10	0	3.3900	0	37.2100	8	29.619	0	1058.830	0	11.3	4	3.6	4	-1E+10	1	-1E+10	1	-1E+10	1	-1E+10	1	-1E+10	1	-1E+10	1
4901784	202	C	01/14/2021	10:49	-134.382	43.539	0	1075.00	0	3.3790	0	37.2120	8	29.622	0	1063.666	0	11.4	4	3.6	4	-1E+10	1	-1E+10	1	-1E+10	1	-1E+10	1	-1E+10	1	-1E+10	1
4901784	202	C	01/14/2021	10:49	-134.382	43.539	0	1080.00	0	3.3600	0	37.2170	8	29.628	0	1068.600	0	11.5	4	3.7	4	-1E+10	1	-1E+10	1	-1E+10	1	-1E+10	1	-1E+10	1	-1E+10	1
4901784	202	C	01/14/2021	10:49	-134.382	43.539	0	1085.00	0	3.3380	0	37.2200	8	29.633	0	1073.535	0	11.6	4	3.7	4	-1E+10	1	-1E+10	1	-1E+10	1	-1E+10	1	-1E+10	1	-1E+10	1
4901784	202	C	01/14/2021	10:49	-134.382	43.539	0	1089.90	0	3.3320	0	37.2210	8	29.634	0	1078.370	0	11.7	4	3.7	4	-1E+10	1	-1E+10	1	-1E+10	1	-1E+10	1	-1E+10	1	-1E+10	1
4901784	202	C	01/14/2021	10:49	-134.382	43.539	0	1094.90	0	3.3230	0	37.2230	8	29.637	0	1083.304	0	11.7	4	3.7	4	-1E+10	1	-1E+10	1	-1E+10	1	-1E+10	1	-1E+10	1	-1E+10	1
4901784	202	C	01/14/2021	10:49	-134.382	43.539	0	1099.90	0	3.3110	0	37.2250	8	29.640	0	1088.239	0	11.9	4	3.8	4	-1E+10	1	-1E+10	1	-1E+10	1	-1E+10	1	-1E+10	1	-1E+10	1
4901784	202	C	01/14/2021	10:49	-134.382	43.539	0	1104.90	0	3.2960	0	37.2290	8	29.644	0	1093.173	0	12.0	4	3.8	4	-1E+10	1	-1E+10	1	-1E+10	1	-1E+10	1	-1E+10	1	-1E+10	1
4901784	202	C	01/14/2021	10:49	-134.382	43.539	0	1109.90	0	3.2910	0	37.2290	8	29.645	0	1098.106	0	12.0	4	3.8	4	-1E+10	1	-1E+10	1	-1E+10	1	-1E+10	1	-1E+10	1	-1E+10	1
4901784	202	C	01/14/2021	10:49	-134.382	43.539	0	1115.00	0	3.2810	0	37.2310	8	29.648	0	1103.139	0	12.2	4	3.9	4	-1E+10	1	-1E+10	1	-1E+10	1	-1E+10	1	-1E+10	1	-1E+10	1
4901784	202	C	01/14/2021	10:49	-134.382	43.539	0	1120.10	0	3.2700	0	37.2350	8	29.652	0	1108.171	0	12.5	4	4.0	4	-1E+10	1	-1E+10	1	-1E+10	1	-1E+10	1	-1E+10	1	-1E+10	1
4901784	202	C	01/14/2021	10:49	-134.382	43.539	0	1125.50	0	3.2600	0	37.2390	8	29.656	0	1113.499	0	12.6	4	4.0	4	-1E+10	1	-1E+10	1	-1E+10	1	-1E+10	1	-1E+10	1	-1E+10	1
4901784	202	C	01/14/2021	10:49	-134.382	43.539	0	1130.30	0	3.2550	0	37.2400	8	29.658	0	1118.235	0	12.8	4	4.1	4	-1E+10	1	-1E+10	1	-1E+10	1	-1E+10	1	-1E+10	1	-1E+10	1
4901784	202	C	01/14/2021	10:49	-134.382	43.539	0	1135.00	0	3.2470	0	37.2430	8	29.661	0	1122.873	0	12.9	4	4.1	4	-1E+10	1	-1E+10	1	-1E+10	1	-1E+10	1	-1E+10	1	-1E+10	1
4901784	202	C	01/14/2021	10:49	-134.382	43.539	0	1139.80	0	3.2400	0	37.2450	8	29.663	0	1127.608	0	13.0	4	4.1	4	-1E+10	1	-1E+10	1	-1E+10	1	-1E+10	1	-1E+10	1	-1E+10	1
4901784	202	C	01/14/2021	10:49	-134.382	43.539	0	1144.60	0	3.2260	0	37.2470	8	29.666	0	1132.344	0	13.1	4	4.1	4	-1E+10	1	-1E+10	1	-1E+10	1	-1E+10	1	-1E+10	1	-1E+10	1
4901784	202	C	01/14/2021	10:49	-134.382	43.539	0	1150.40	0	3.2160	0	37.2490	8	29.669	0	1138.066	0	13.2	4	4.2	4	-1E+10	1	-1E+10	1	-1E+10	1	-1E+10	1	-1E+10	1	-1E+10	1
4901784	202	C	01/14/2021	10:49	-134.382	43.539	0	1155.20	0	3.2090	0	37.2500	8	29.670	0	1142.802	0	13.3	4	4.2	4	-1E+10	1	-1E+10	1	-1E+10	1	-1E+10	1	-1E+10	1	-1E+10	1
4901784	202	C	01/14/2021	10:49	-134.382	43.539	0	1160.10	0	3.1930	0	37.2520	8	29.674	0	1147.636	0	13.3	4	4.2	4	-1E+10	1	-1E+10	1	-1E+10	1	-1E+10	1	-1E+10	1	-1E+10	1
4901784	202	C	01/14/2021	10:49	-134.382	43.539	0	1164.90	0	3.1830	0	37.2540	8	29.676	0	1152.371	0	13.5	4	4.3	4	-1E+10	1	-1E+10	1	-1E+10	1	-1E+10	1	-1E+10	1	-1E+10	1
4901784	202	C	01/14/2021	10:49	-134.382	43.539	0	1169.80	0	3.1780	0	37.2560	8	29.678	0	1157.205	0	13.6	4	4.3	4	-1E+10	1	-1E+10	1	-1E+10	1	-1E+10	1	-1E+10	1	-1E+10	1
4901784	202	C	01/14/2021	10:49	-134.382	43.539	0	1174.90	0	3.1710	0	37.2580	8	29.681	0	1162.236	0	13.7	4	4.3	4	-1E+10	1	-1E+10	1	-1E+10	1	-1E+10	1	-1E+10	1	-1E+10	1
4901784	202	C	01/14/2021	10:49	-134.382	43.539	0	1179.80	0	3.1610	0	37.2600	8	29.683	0	1167.070	0	13.9	4	4.4	4	-1E+10	1	-1E+10	1	-1E+10	1	-1E+10	1	-1E+10	1	-1E+10	1
4901784	202	C	01/14/2021	10:49	-134.382	43.539	0	1184.80	0	3.1520	0	37.2620	8	29.686	0	1172.002	0	14.0	4	4.4	4	-1E+10	1	-1E+10	1	-1E+10	1	-1E+10	1	-1E+10	1	-1E+10	1
4901784	202	C	01/14/2021	10:49	-134.382	43.539	0	1189.70	0	3.1380	0	37.2640	8	29.689	0	1176.835	0	14.2	4	4.5	4	-1E+10	1	-1E+10	1	-1E+10	1	-1E+10	1	-1E+10	1	-1E+10	1
4901784	202	C	01/14/2021	10:49	-134.382	43.539	0	1194.70	0	3.1240	0	37.2670	8	29.693	0	1181.767	0	14.3	4	4.5	4	-1E+10	1	-1E+10	1	-1E+10	1	-1E+10	1	-1E+10	1	-1E+10	1
4901784	202	C	01/14/2021	10:49	-134.382	43.539	0	1199.70	0	3.1100	0	37.2690	8	29.696	0	1186.699	0	14.4	4	4.6	4	-1E+10	1	-1E+10	1	-1E+10	1	-1E+10	1	-1E+10	1	-1E+10	1
4901784	202	C	01/14/2021	10:49	-134.382	43.539	0	1204.70	0	3.0930	0	37.2700	8	29.698	0	1191.630	0	14.5	4	4.6	4	-1E+10	1	-1E+10	1	-1E+10	1	-1E+10	1	-1E+10	1	-1E+10	1
4901784	202	C	01/14/2021	10:49	-134.382	43.539	0	1209.80	0	3.0870	0	37.2720	8	29.701	0	1196.661	0	14.8	4	4.7	4	-1E+10	1	-1E+10	1	-1E+10	1	-1E+10	1	-1E+10	1	-1E+10	1
4901784	202	C	01/14/2021	10:49	-134.382	43.539	0	1214.90	0	3.0710	0	37.2770	8	29.706	0	1201.691	0	15.2	4	4.8	4	-1E+10	1	-1E+10	1	-1E+10	1	-1E+10	1	-1E+10	1	-1E+10	1
4901784	202	C	01/14/2021	10:49	-134.382	43.539	0	1220.00	0	3.0580	0	37.2790	8	29.709	0	1206.720	0	15.3	4	4.8	4	-1E+10	1	-1E+10	1	-1E+10	1	-1E+10	1	-1E+10	1	-1E+10	1
4901784	202	C	01/14/2021	10:49	-134.382	43.539	0	1225.10	0	3.0480	0	37.2810	8	29.712	0	1211.750	0	15.5	4	4.9	4	-1E+10	1	-1E+10	1	-1E+10	1	-1E+10	1	-1E+10	1	-1E+10	1
4901784	202	C	01/14/2021	10:49	-134.382	43.539	0	1230.30	0	3.0380	0	37.2820	8	29.713	0	1216.879	0	15.7	4	5.0	4	-1E+10	1	-1E+10	1	-1E+10	1	-1E+10	1	-1E+10	1	-1E+10	1
4901784	202	C	01/14/2021	10:49	-134.382	43.539	0	1235.50	0	3.0230	0	37.2860	8	29.718	0	1222.007	0	16.0	4	5.0	4	-1E+10	1	-1E+10	1	-1E+10	1	-1E+10	1	-1E+10	1	-1E+10	1
4901784	202	C	01/14/2021	10:49	-134.382	43.539	0	1239.90	0	3.0130	0	37.2880	8	29.721	0	1226.346	0	16.2	4	5.1	4	-1E+10	1	-1E+10	1	-1E+10	1	-1E+10	1	-1E+10	1	-1E+10	1
4901784	202	C	01/14/2021	10:49	-134.382	43.539	0	1244.30	0	3.0030	0	37.2900	8	29.723	0	1230.685	0	16.4	4	5.2	4	-1E+10	1	-1E+10	1	-1E+10	1	-1E+10	1	-1E+10	1	-1E+10	1
4901784	202	C	01/14/2021	10:49	-134.382	43.539	0	1249.60	0	2.9960	0	37.2920	8	29.726	0	1235.911	0	16.5	4	5.2	4	-1E+10	1	-1E+10	1	-1E+10	1	-1E+10	1	-1E+10	1	-1E+10	1
4901784	202	C	01/14/2021	10:49	-134.382	43.539	0	1254.90	0	2.9820	0	37.2930	8	29.728	0	1241.138	0	16.6	4	5.2	4	-1E+10	1	-1E+10	1	-1E+10	1	-1E+10	1	-1E+10	1	-1E+10	1
4901784	202	C	01/14/2021	10:49	-134.382	43.539	0	1259.80	0	2.9750	0	37.2950	8	29.730	0	1245.970	0	16.8	4	5.3	4	-1E+10	1	-1E+10	1	-1E+10	1	-1E+10	1	-1E+10	1	-1E+10	1
4901784	202	C	01/14/2021	10:49	-134.382	43.539	0	1264.70	0	2.9680	0	37.2970	8	29.733	0	1250.801	0	17.0	4	5.4	4	-1E+10	1	-1E+10	1	-1E+10	1	-1E+10	1	-1E+10	1	-1E+10	1
4901784	202	C	01/14/2021	10:49	-134.382	43.539	0	1269.60	0	2.9570	0	37.2980	8	29.734	0	1255.633	0	17.1	4	5.4	4	-1E+10	1	-1E+10	1	-1E+10	1	-1E+10	1	-1E+10	1	-1E+10	1
4901784	202	C	01/14/2021	10:49	-134.382	43.539	0	1274.60	0	2.9430	0	37.3000	8	29.737	0	1260.563	0	17.2	4	5.4	4	-1E+10	1	-1E+10	1	-1E+10	1	-1E+10	1	-1E+10	1	-1E+10	1
4901784	202	C	01/14/2021	10:49	-134.382	43.539	0	1279.50	0	2.9320	0	37.3020	8	29.740	0	1265.394	0	17.3	4	5.5	4	-1E+10	1	-1E+10	1	-1E+10	1	-1E+10	1	-1E+10	1	-1E+10	1
4901784	202	C	01/14/2021	10:49	-134.382	43.539	0	1284.50	0	2.9190	0	37.3040	8	29.743	0	1270.324	0	17.4	4	5.5	4	-1E+10	1	-1E+10	1	-1E+10	1	-1E+10	1	-1E+10	1	-1E+10	1
4901784	202	C	01/14/2021	10:49	-134.382	43.539	0	1289.50	0	2.9120	0	37.3050	8	29.745	0	1275.254	0	17.4	4	5.5	4	-1E+10	1	-1E+10	1	-1E+10	1	-1E+10	1	-1E+10	1	-1E+10	1
4901784	202	C	01/14/2021	10:49	-134.382	43.539	0	1294.60	0	2.9050	0	37.3060	8	29.746	0	1280.282	0	17.5	4	5.5	4	-1E+10	1	-1E+10	1	-1E+10	1	-1E+10	1	-1E+10	1	-1E+10	1
4901784	202	C	01/14/2021	10:49	-134.382	43.539	0	1299.60	0	2.8950	0	37.3080	8	29.749	0	1285.211	0	17.7	4	5.6	4	-1E+10	1	-1E+10	1	-1E+10	1	-1E+10	1	-1E+10	1	-1E+10	1
4901784	202	C	01/14/2021	10:49	-134.382	43.539	0	1304.70	0	2.8830	0	37.3100	8	29.751	0	1290.239	0	17.9	4	5.6	4	-1E+10	1	-1E+10	1	-1E+10	1	-1E+10	1	-1E+10	1	-1E+10	1
4901784	202	C	01/14/2021	10:49	-134.382	43.539	0	1309.80	0	2.8800	0	37.3110	8	29.753	0	1295.267	0	18.0	4	5.7	4	-1E+10	1	-1E+10	1	-1E+10	1	-1E+10	1	-1E+10	1	-1E+10	1
4901784	202	C	01/14/2021	10:49	-134.382	43.539	0	1314.80	0	2.8710	0	37.3120	8	29.754	0	1300.196	0	18.2	4	5.7	4	-1E+10	1	-1E+10	1	-1E+10	1	-1E+10	1	-1E+10	1	-1E+10	1
4901784	202	C	01/14/2021	10:49	-134.382	43.539	0	1320.00	0	2.8550	0	37.3150	8	29.758	0	1305.322	0	18.4	4	5.8	4	-1E+10	1	-1E+10	1	-1E+10	1	-1E+10	1	-1E+10	1	-1E+10	1
4901784	202	C	01/14/2021	10:49	-134.382	43.539	0	1325.10	0	2.8490	0	37.3160	8	29.760	0	1310.350	0	18.8	4	5.9	4	-1E+10	1	-1E+10	1	-1E+10	1	-1E+10	1	-1E+10	1	-1E+10	1
4901784	202	C	01/14/2021	10:49	-134.382	43.539	0	1330.20	0	2.8380	0	37.3180	8	29.762	0	1315.377	0	19.2	4	6.0	4	-1E+10	1	-1E+10	1	-1E+10	1	-1E+10	1	-1E+10	1	-1E+10	1
4901784	202	C	01/14/2021	10:49	-134.382	43.539	0	1335.40	0	2.8270	0	37.3210	8	29.766	0	1320.503	0	19.5	4	6.1	4	-1E+10	1	-1E+10	1	-1E+10	1	-1E+10	1	-1E+10	1	-1E+10	1
4901784	202	C	01/14/2021	10:49	-134.382	43.539	0	1340.60	0	2.8170	0	37.3230	8	29.768	0	1325.628	0	19.7	4	6.2	4	-1E+10	1	-1E+10	1	-1E+10	1	-1E+10	1	-1E+10	1	-1E+10	1
4901784	202	C	01/14/2021	10:49	-134.382	43.539	0	1344.90	0	2.8060	0	37.3250	8	29.771	0	1329.867	0	20.0	4	6.3	4	-1E+10	1	-1E+10	1	-1E+10	1	-1E+10	1	-1E+10	1	-1E+10	1
4901784	202	C	01/14/2021	10:49	-134.382	43.539	0	1349.30	0	2.7930	0	37.3270	8	29.774	0	1334.204	0	20.2	4	6.4	4	-1E+10	1	-1E+10	1	-1E+10	1	-1E+10	1	-1E+10	1	-1E+10	1
4901784	202	C	01/14/2021	10:49	-134.382	43.539	0	1354.60	0	2.7810	0	37.3300	8	29.778	0	1339.427	0	20.4	4	6.4	4	-1E+10	1	-1E+10	1	-1E+10	1	-1E+10	1	-1E+10	1	-1E+10	1
4901784	202	C	01/14/2021	10:49	-134.382	43.539	0	1359.90	0	2.7720	0	37.3320	8	29.780	0	1344.651	0	20.7	4	6.5	4	-1E+10	1	-1E+10	1	-1E+10	1	-1E+10	1	-1E+10	1	-1E+10	1
4901784	202	C	01/14/2021	10:49	-134.382	43.539	0	1365.10	0	2.7620	0	37.3340	8	29.783	0	1349.776	0	20.9	4	6.6	4	-1E+10	1	-1E+10	1	-1E+10	1	-1E+10	1	-1E+10	1	-1E+10	1
4901784	202	C	01/14/2021	10:49	-134.382	43.539	0	1370.40	0	2.7540	0	37.3360	8	29.785	0	1355.000	0	21.1	4	6.6	4	-1E+10	1	-1E+10	1	-1E+10	1	-1E+10	1	-1E+10	1	-1E+10	1
4901784	202	C	01/14/2021	10:49	-134.382	43.539	0	1375.60	0	2.7480	0	37.3370	8	29.786	0	1360.125	0	21.4	4	6.7	4	-1E+10	1	-1E+10	1	-1E+10	1	-1E+10	1	-1E+10	1	-1E+10	1
4901784	202	C	01/14/2021	10:49	-134.382	43.539	0	1380.00	0	2.7380	0	37.3390	8	29.789	0	1364.461	0	21.6	4	6.8	4	-1E+10	1	-1E+10	1	-1E+10	1	-1E+10	1	-1E+10	1	-1E+10	1
4901784	202	C	01/14/2021	10:49	-134.382	43.539	0	1384.50	0	2.7260	0	37.3430	8	29.793	0	1368.896	0	21.9	4	6.9	4	-1E+10	1	-1E+10	1	-1E+10	1	-1E+10	1	-1E+10	1	-1E+10	1
4901784	202	C	01/14/2021	10:49	-134.382	43.539	0	1389.80	0	2.7110	0	37.3460	8	29.797	0	1374.119	0	22.2	4	7.0	4	-1E+10	1	-1E+10	1	-1E+10	1	-1E+10	1	-1E+10	1	-1E+10	1
4901784	202	C	01/14/2021	10:49	-134.382	43.539	0	1395.10	0	2.6990	0	37.3460	8	29.798	0	1379.341	0	22.4	4	7.0	4	-1E+10	1	-1E+10	1	-1E+10	1	-1E+10	1	-1E+10	1	-1E+10	1
4901784	202	C	01/14/2021	10:49	-134.382	43.539	0	1400.60	0	2.6880	0	37.3500	8	29.803	0	1384.761	0	22.7	4	7.1	4	-1E+10	1	-1E+10	1	-1E+10	1	-1E+10	1	-1E+10	1	-1E+10	1
4901784	202	C	01/14/2021	10:49	-134.382	43.539	0	1405.20	0	2.6810	0	37.3520	8	29.805	0	1389.294	0	22.9	4	7.2	4	-1E+10	1	-1E+10	1	-1E+10	1	-1E+10	1	-1E+10	1	-1E+10	1
4901784	202	C	01/14/2021	10:49	-134.382	43.539	0	1409.70	0	2.6730	0	37.3540	8	29.807	0	1393.728	0	23.1	4	7.2	4	-1E+10	1	-1E+10	1	-1E+10	1	-1E+10	1	-1E+10	1	-1E+10	1
4901784	202	C	01/14/2021	10:49	-134.382	43.539	0	1415.20	0	2.6650	0	37.3550	8	29.809	0	1399.148	0	23.3	4	7.3	4	-1E+10	1	-1E+10	1	-1E+10	1	-1E+10	1	-1E+10	1	-1E+10	1
4901784	202	C	01/14/2021	10:49	-134.382	43.539	0	1419.80	0	2.6590	0	37.3590	8	29.813	0	1403.680	0	23.6	4	7.4	4	-1E+10	1	-1E+10	1	-1E+10	1	-1E+10	1	-1E+10	1	-1E+10	1
4901784	202	C	01/14/2021	10:49	-134.382	43.539	0	1424.50	0	2.6480	0	37.3720	8	29.824	0	1408.311	0	23.8	4	7.4	4	-1E+10	1	-1E+10	1	-1E+10	1	-1E+10	1	-1E+10	1	-1E+10	1
4901784	202	C	01/14/2021	10:49	-134.382	43.539	0	1430.00	0	2.6430	0	37.3630	8	29.818	0	1413.730	0	24.0	4	7.5	4	-1E+10	1	-1E+10	1	-1E+10	1	-1E+10	1	-1E+10	1	-1E+10	1
4901784	202	C	01/14/2021	10:49	-134.382	43.539	0	1434.70	0	2.6320	0	37.3650	8	29.820	0	1418.361	0	24.3	4	7.6	4	-1E+10	1	-1E+10	1	-1E+10	1	-1E+10	1	-1E+10	1	-1E+10	1
4901784	202	C	01/14/2021	10:49	-134.382	43.539	0	1439.70	0	2.6260	0	37.3650	8	29.821	0	1423.287	0	24.5	4	7.7	4	-1E+10	1	-1E+10	1	-1E+10	1	-1E+10	1	-1E+10	1	-1E+10	1
4901784	202	C	01/14/2021	10:49	-134.382	43.539	0	1444.90	0	2.6240	0	37.3650	8	29.821	0	1428.411	0	24.7	4	7.7	4	-1E+10	1	-1E+10	1	-1E+10	1	-1E+10	1	-1E+10	1	-1E+10	1
4901784	202	C	01/14/2021	10:49	-134.382	43.539	0	1449.90	0	2.6200	0	37.3650	8	29.821	0	1433.336	0	25.0	4	7.8	4	-1E+10	1	-1E+10	1	-1E+10	1	-1E+10	1	-1E+10	1	-1E+10	1
4901784	202	C	01/14/2021	10:49	-134.382	43.539	0	1454.80	0	2.6160	0	37.3660	8	29.823	0	1438.164	0	25.2	4	7.9	4	-1E+10	1	-1E+10	1	-1E+10	1	-1E+10	1	-1E+10	1	-1E+10	1
4901784	202	C	01/14/2021	10:49	-134.382	43.539	0	1459.80	0	2.6100	0	37.3660	8	29.823	0	1443.090	0	25.4	4	7.9	4	-1E+10	1	-1E+10	1	-1E+10	1	-1E+10	1	-1E+10	1	-1E+10	1
4901784	202	C	01/14/2021	10:49	-134.382	43.539	0	1464.80	0	2.6030	0	37.3730	8	29.829	0	1448.015	0	25.7	4	8.0	4	-1E+10	1	-1E+10	1	-1E+10	1	-1E+10	1	-1E+10	1	-1E+10	1
4901784	202	C	01/14/2021	10:49	-134.382	43.539	0	1469.90	0	2.5890	0	37.3790	8	29.836	0	1453.039	0	26.1	4	8.1	4	-1E+10	1	-1E+10	1	-1E+10	1	-1E+10	1	-1E+10	1	-1E+10	1
4901784	202	C	01/14/2021	10:49	-134.382	43.539	0	1475.00	0	2.5780	0	37.3730	8	29.832	0	1458.063	0	26.3	4	8.2	4	-1E+10	1	-1E+10	1	-1E+10	1	-1E+10	1	-1E+10	1	-1E+10	1
4901784	202	C	01/14/2021	10:49	-134.382	43.539	0	1480.10	0	2.5710	0	37.3750	8	29.834	0	1463.087	0	26.4	4	8.3	4	-1E+10	1	-1E+10	1	-1E+10	1	-1E+10	1	-1E+10	1	-1E+10	1
4901784	202	C	01/14/2021	10:49	-134.382	43.539	0	1485.30	0	2.5680	0	37.3760	8	29.835	0	1468.209	0	26.6	4	8.3	4	-1E+10	1	-1E+10	1	-1E+10	1	-1E+10	1	-1E+10	1	-1E+10	1
4901784	202	C	01/14/2021	10:49	-134.382	43.539	0	1490.40	0	2.5650	0	37.3780	8	29.837	0	1473.233	0	26.8	4	8.4	4	-1E+10	1	-1E+10	1	-1E+10	1	-1E+10	1	-1E+10	1	-1E+10	1
4901784	202	C	01/14/2021	10:49	-134.382	43.539	0	1495.60	0	2.5550	0	37.3750	8	29.836	0	1478.355	0	27.1	4	8.4	4	-1E+10	1	-1E+10	1	-1E+10	1	-1E+10	1	-1E+10	1	-1E+10	1
4901784	202	C	01/14/2021	10:49	-134.382	43.539	0	1500.70	0	2.5460	0	37.3750	8	29.837	0	1483.378	0	27.3	4	8.5	4	-1E+10	1	-1E+10	1	-1E+10	1	-1E+10	1	-1E+10	1	-1E+10	1
4901784	202	C	01/14/2021	10:49	-134.382	43.539	0	1505.00	0	2.5350	0	37.3770	8	29.839	0	1487.613	0	27.6	4	8.6	4	-1E+10	1	-1E+10	1	-1E+10	1	-1E+10	1	-1E+10	1	-1E+10	1
4901784	202	C	01/14/2021	10:49	-134.382	43.539	0	1509.40	0	2.5280	0	37.3760	8	29.839	0	1491.947	0	27.8	4	8.7	4	-1E+10	1	-1E+10	1	-1E+10	1	-1E+10	1	-1E+10	1	-1E+10	1
4901784	202	C	01/14/2021	10:49	-134.382	43.539	0	1514.70	0	2.5200	0	37.3750	8	29.839	0	1497.167	0	28.2	4	8.8	4	-1E+10	1	-1E+10	1	-1E+10	1	-1E+10	1	-1E+10	1	-1E+10	1
4901784	202	C	01/14/2021	10:49	-134.382	43.539	0	1520.10	0	2.5100	0	37.3770	8	29.842	0	1502.485	0	28.6	4	8.9	4	-1E+10	1	-1E+10	1	-1E+10	1	-1E+10	1	-1E+10	1	-1E+10	1
4901784	202	C	01/14/2021	10:49	-134.382	43.539	0	1525.50	0	2.4980	0	37.3780	8	29.844	0	1507.803	0	29.0	4	9.0	4	-1E+10	1	-1E+10	1	-1E+10	1	-1E+10	1	-1E+10	1	-1E+10	1
4901784	202	C	01/14/2021	10:49	-134.382	43.539	0	1530.00	0	2.4850	0	37.3800	8	29.846	0	1512.235	0	29.3	4	9.1	4	-1E+10	1	-1E+10	1	-1E+10	1	-1E+10	1	-1E+10	1	-1E+10	1
4901784	202	C	01/14/2021	10:49	-134.382	43.539	0	1534.50	0	2.4810	0	37.3810	8	29.848	0	1516.667	0	29.7	4	9.2	4	-1E+10	1	-1E+10	1	-1E+10	1	-1E+10	1	-1E+10	1	-1E+10	1
4901784	202	C	01/14/2021	10:49	-134.382	43.539	0	1540.00	0	2.4720	0	37.3820	8	29.849	0	1522.083	0	30.1	4	9.4	4	-1E+10	1	-1E+10	1	-1E+10	1	-1E+10	1	-1E+10	1	-1E+10	1
4901784	202	C	01/14/2021	10:49	-134.382	43.539	0	1545.40	0	2.4640	0	37.3850	8	29.852	0	1527.401	0	30.6	4	9.5	4	-1E+10	1	-1E+10	1	-1E+10	1	-1E+10	1	-1E+10	1	-1E+10	1
4901784	202	C	01/14/2021	10:49	-134.382	43.539	0	1550.00	0	2.4580	0	37.3860	8	29.854	0	1531.930	0	30.8	4	9.6	4	-1E+10	1	-1E+10	1	-1E+10	1	-1E+10	1	-1E+10	1	-1E+10	1
4901784	202	C	01/14/2021	10:49	-134.382	43.539	0	1554.90	0	2.4480	0	37.3880	8	29.856	0	1536.755	0	31.1	4	9.7	4	-1E+10	1	-1E+10	1	-1E+10	1	-1E+10	1	-1E+10	1	-1E+10	1
4901784	202	C	01/14/2021	10:49	-134.382	43.539	0	1560.10	0	2.4430	0	37.3890	8	29.858	0	1541.876	0	31.3	4	9.7	4	-1E+10	1	-1E+10	1	-1E+10	1	-1E+10	1	-1E+10	1	-1E+10	1
4901784	202	C	01/14/2021	10:49	-134.382	43.539	0	1564.90	0	2.4370	0	37.3900	8	29.859	0	1546.602	0	31.5	4	9.8	4	-1E+10	1	-1E+10	1	-1E+10	1	-1E+10	1	-1E+10	1	-1E+10	1
4901784	202	C	01/14/2021	10:49	-134.382	43.539	0	1569.70	0	2.4290	0	37.3910	8	29.861	0	1551.328	0	31.8	4	9.9	4	-1E+10	1	-1E+10	1	-1E+10	1	-1E+10	1	-1E+10	1	-1E+10	1
4901784	202	C	01/14/2021	10:49	-134.382	43.539	0	1574.50	0	2.4180	0	37.3920	8	29.862	0	1556.055	0	32.1	4	10.0	4	-1E+10	1	-1E+10	1	-1E+10	1	-1E+10	1	-1E+10	1	-1E+10	1
4901784	202	C	01/14/2021	10:49	-134.382	43.539	0	1579.40	0	2.4150	0	37.3930	8	29.864	0	1560.879	0	32.3	4	10.1	4	-1E+10	1	-1E+10	1	-1E+10	1	-1E+10	1	-1E+10	1	-1E+10	1
4901784	202	C	01/14/2021	10:49	-134.382	43.539	0	1584.30	0	2.4070	0	37.3950	8	29.866	0	1565.704	0	32.6	4	10.1	4	-1E+10	1	-1E+10	1	-1E+10	1	-1E+10	1	-1E+10	1	-1E+10	1
4901784	202	C	01/14/2021	10:49	-134.382	43.539	0	1590.00	0	2.4000	0	37.3950	8	29.867	0	1571.316	0	33.0	4	10.3	4	-1E+10	1	-1E+10	1	-1E+10	1	-1E+10	1	-1E+10	1	-1E+10	1
4901784	202	C	01/14/2021	10:49	-134.382	43.539	0	1595.80	0	2.3880	0	37.3970	8	29.869	0	1577.026	0	33.4	4	10.4	4	-1E+10	1	-1E+10	1	-1E+10	1	-1E+10	1	-1E+10	1	-1E+10	1
4901784	202	C	01/14/2021	10:49	-134.382	43.539	0	1600.70	0	2.3800	0	37.3990	8	29.872	0	1581.850	0	33.8	4	10.5	4	-1E+10	1	-1E+10	1	-1E+10	1	-1E+10	1	-1E+10	1	-1E+10	1
4901784	202	C	01/14/2021	10:49	-134.382	43.539	0	1605.70	0	2.3730	0	37.3990	8	29.872	0	1586.772	0	34.1	4	10.6	4	-1E+10	1	-1E+10	1	-1E+10	1	-1E+10	1	-1E+10	1	-1E+10	1
4901784	202	C	01/14/2021	10:49	-134.382	43.539	0	1610.80	0	2.3620	0	37.4010	8	29.875	0	1591.793	0	34.4	4	10.7	4	-1E+10	1	-1E+10	1	-1E+10	1	-1E+10	1	-1E+10	1	-1E+10	1
4901784	202	C	01/14/2021	10:49	-134.382	43.539	0	1614.90	0	2.3550	0	37.4020	8	29.876	0	1595.829	0	34.6	4	10.8	4	-1E+10	1	-1E+10	1	-1E+10	1	-1E+10	1	-1E+10	1	-1E+10	1
4901784	202	C	01/14/2021	10:49	-134.382	43.539	0	1619.20	0	2.3500	0	37.4030	8	29.878	0	1600.062	0	34.8	4	10.8	4	-1E+10	1	-1E+10	1	-1E+10	1	-1E+10	1	-1E+10	1	-1E+10	1
4901784	202	C	01/14/2021	10:49	-134.382	43.539	0	1624.30	0	2.3410	0	37.4040	8	29.879	0	1605.083	0	35.1	4	10.9	4	-1E+10	1	-1E+10	1	-1E+10	1	-1E+10	1	-1E+10	1	-1E+10	1
4901784	202	C	01/14/2021	10:49	-134.382	43.539	0	1629.40	0	2.3370	0	37.4050	8	29.881	0	1610.103	0	35.2	4	10.9	4	-1E+10	1	-1E+10	1	-1E+10	1	-1E+10	1	-1E+10	1	-1E+10	1
4901784	202	C	01/14/2021	10:49	-134.382	43.539	0	1634.60	0	2.3330	0	37.4060	8	29.882	0	1615.221	0	35.5	4	11.0	4	-1E+10	1	-1E+10	1	-1E+10	1	-1E+10	1	-1E+10	1	-1E+10	1
4901784	202	C	01/14/2021	10:49	-134.382	43.539	0	1639.70	0	2.3270	0	37.4070	8	29.883	0	1620.241	0	35.8	4	11.1	4	-1E+10	1	-1E+10	1	-1E+10	1	-1E+10	1	-1E+10	1	-1E+10	1
4901784	202	C	01/14/2021	10:49	-134.382	43.539	0	1644.90	0	2.3210	0	37.4080	8	29.884	0	1625.360	0	36.1	4	11.2	4	-1E+10	1	-1E+10	1	-1E+10	1	-1E+10	1	-1E+10	1	-1E+10	1
4901784	202	C	01/14/2021	10:49	-134.382	43.539	0	1650.00	0	2.3120	0	37.4090	8	29.886	0	1630.380	0	36.4	4	11.3	4	-1E+10	1	-1E+10	1	-1E+10	1	-1E+10	1	-1E+10	1	-1E+10	1
4901784	202	C	01/14/2021	10:49	-134.382	43.539	0	1655.20	0	2.3050	0	37.4100	8	29.888	0	1635.498	0	36.7	4	11.4	4	-1E+10	1	-1E+10	1	-1E+10	1	-1E+10	1	-1E+10	1	-1E+10	1
4901784	202	C	01/14/2021	10:49	-134.382	43.539	0	1660.40	0	2.2990	0	37.4120	8	29.890	0	1640.616	0	37.1	4	11.5	4	-1E+10	1	-1E+10	1	-1E+10	1	-1E+10	1	-1E+10	1	-1E+10	1
4901784	202	C	01/14/2021	10:49	-134.382	43.539	0	1665.50	0	2.2920	0	37.4130	8	29.891	0	1645.635	0	37.4	4	11.6	4	-1E+10	1	-1E+10	1	-1E+10	1	-1E+10	1	-1E+10	1	-1E+10	1
4901784	202	C	01/14/2021	10:49	-134.382	43.539	0	1670.80	0	2.2910	0	37.4140	8	29.892	0	1650.851	0	37.6	4	11.7	4	-1E+10	1	-1E+10	1	-1E+10	1	-1E+10	1	-1E+10	1	-1E+10	1
4901784	202	C	01/14/2021	10:49	-134.382	43.539	0	1675.10	0	2.2880	0	37.4150	8	29.893	0	1655.083	0	37.8	4	11.7	4	-1E+10	1	-1E+10	1	-1E+10	1	-1E+10	1	-1E+10	1	-1E+10	1
4901784	202	C	01/14/2021	10:49	-134.382	43.539	0	1679.60	0	2.2740	0	37.4150	8	29.894	0	1659.512	0	37.9	4	11.8	4	-1E+10	1	-1E+10	1	-1E+10	1	-1E+10	1	-1E+10	1	-1E+10	1
4901784	202	C	01/14/2021	10:49	-134.382	43.539	0	1685.00	0	2.2670	0	37.4160	8	29.896	0	1664.826	0	38.3	4	11.9	4	-1E+10	1	-1E+10	1	-1E+10	1	-1E+10	1	-1E+10	1	-1E+10	1
4901784	202	C	01/14/2021	10:49	-134.382	43.539	0	1690.40	0	2.2620	0	37.4180	8	29.898	0	1670.140	0	38.8	4	12.0	4	-1E+10	1	-1E+10	1	-1E+10	1	-1E+10	1	-1E+10	1	-1E+10	1
4901784	202	C	01/14/2021	10:49	-134.382	43.539	0	1695.00	0	2.2620	0	37.4200	8	29.900	0	1674.667	0	39.0	4	12.1	4	-1E+10	1	-1E+10	1	-1E+10	1	-1E+10	1	-1E+10	1	-1E+10	1
4901784	202	C	01/14/2021	10:49	-134.382	43.539	0	1699.40	0	2.2620	0	37.4200	8	29.900	0	1678.997	0	39.3	4	12.2	4	-1E+10	1	-1E+10	1	-1E+10	1	-1E+10	1	-1E+10	1	-1E+10	1
4901784	202	C	01/14/2021	10:49	-134.382	43.539	0	1704.80	0	2.2550	0	37.4220	8	29.902	0	1684.310	0	39.7	4	12.3	4	-1E+10	1	-1E+10	1	-1E+10	1	-1E+10	1	-1E+10	1	-1E+10	1
4901784	202	C	01/14/2021	10:49	-134.382	43.539	0	1709.60	0	2.2500	0	37.4220	8	29.902	0	1689.034	0	39.8	4	12.4	4	-1E+10	1	-1E+10	1	-1E+10	1	-1E+10	1	-1E+10	1	-1E+10	1
4901784	202	C	01/14/2021	10:49	-134.382	43.539	0	1714.40	0	2.2470	0	37.4230	8	29.904	0	1693.757	0	40.1	4	12.4	4	-1E+10	1	-1E+10	1	-1E+10	1	-1E+10	1	-1E+10	1	-1E+10	1
4901784	202	C	01/14/2021	10:49	-134.382	43.539	0	1720.10	0	2.2420	0	37.4240	8	29.905	0	1699.365	0	40.4	4	12.5	4	-1E+10	1	-1E+10	1	-1E+10	1	-1E+10	1	-1E+10	1	-1E+10	1
4901784	202	C	01/14/2021	10:49	-134.382	43.539	0	1725.80	0	2.2360	0	37.4260	8	29.907	0	1704.974	0	40.6	4	12.6	4	-1E+10	1	-1E+10	1	-1E+10	1	-1E+10	1	-1E+10	1	-1E+10	1
4901784	202	C	01/14/2021	10:49	-134.382	43.539	0	1730.70	0	2.2330	0	37.4260	8	29.907	0	1709.795	0	40.7	4	12.6	4	-1E+10	1	-1E+10	1	-1E+10	1	-1E+10	1	-1E+10	1	-1E+10	1
4901784	202	C	01/14/2021	10:49	-134.382	43.539	0	1735.60	0	2.2270	0	37.4260	8	29.908	0	1714.616	0	40.7	4	12.6	4	-1E+10	1	-1E+10	1	-1E+10	1	-1E+10	1	-1E+10	1	-1E+10	1
4901784	202	C	01/14/2021	10:49	-134.382	43.539	0	1740.60	0	2.2170	0	37.4270	8	29.910	0	1719.535	0	40.9	4	12.7	4	-1E+10	1	-1E+10	1	-1E+10	1	-1E+10	1	-1E+10	1	-1E+10	1
4901784	202	C	01/14/2021	10:49	-134.382	43.539	0	1745.60	0	2.2130	0	37.4280	8	29.911	0	1724.454	0	41.4	4	12.8	4	-1E+10	1	-1E+10	1	-1E+10	1	-1E+10	1	-1E+10	1	-1E+10	1
4901784	202	C	01/14/2021	10:49	-134.382	43.539	0	1750.60	0	2.2130	0	37.4300	8	29.912	0	1729.373	0	41.8	4	13.0	4	-1E+10	1	-1E+10	1	-1E+10	1	-1E+10	1	-1E+10	1	-1E+10	1
4901784	202	C	01/14/2021	10:49	-134.382	43.539	0	1755.70	0	2.2110	0	37.4310	8	29.913	0	1734.391	0	42.0	4	13.0	4	-1E+10	1	-1E+10	1	-1E+10	1	-1E+10	1	-1E+10	1	-1E+10	1
4901784	202	C	01/14/2021	10:49	-134.382	43.539	0	1760.00	0	2.2080	0	37.4320	8	29.915	0	1738.621	0	42.2	4	13.1	4	-1E+10	1	-1E+10	1	-1E+10	1	-1E+10	1	-1E+10	1	-1E+10	1
4901784	202	C	01/14/2021	10:49	-134.382	43.539	0	1764.30	0	2.2070	0	37.4320	8	29.915	0	1742.851	0	42.3	4	13.1	4	-1E+10	1	-1E+10	1	-1E+10	1	-1E+10	1	-1E+10	1	-1E+10	1
4901784	202	C	01/14/2021	10:49	-134.382	43.539	0	1769.40	0	2.2050	0	37.4320	8	29.915	0	1747.868	0	42.6	4	13.2	4	-1E+10	1	-1E+10	1	-1E+10	1	-1E+10	1	-1E+10	1	-1E+10	1
4901784	202	C	01/14/2021	10:49	-134.382	43.539	0	1774.60	0	2.1990	0	37.4340	8	29.917	0	1752.983	0	43.0	4	13.3	4	-1E+10	1	-1E+10	1	-1E+10	1	-1E+10	1	-1E+10	1	-1E+10	1
4901784	202	C	01/14/2021	10:49	-134.382	43.539	0	1779.70	0	2.1930	0	37.4340	8	29.918	0	1758.000	0	43.4	4	13.4	4	-1E+10	1	-1E+10	1	-1E+10	1	-1E+10	1	-1E+10	1	-1E+10	1
4901784	202	C	01/14/2021	10:49	-134.382	43.539	0	1784.90	0	2.1870	0	37.4360	8	29.920	0	1763.115	0	43.7	4	13.5	4	-1E+10	1	-1E+10	1	-1E+10	1	-1E+10	1	-1E+10	1	-1E+10	1
4901784	202	C	01/14/2021	10:49	-134.382	43.539	0	1790.00	0	2.1850	0	37.4370	8	29.921	0	1768.132	0	44.0	4	13.6	4	-1E+10	1	-1E+10	1	-1E+10	1	-1E+10	1	-1E+10	1	-1E+10	1
4901784	202	C	01/14/2021	10:49	-134.382	43.539	0	1795.20	0	2.1800	0	37.4380	8	29.922	0	1773.246	0	44.3	4	13.7	4	-1E+10	1	-1E+10	1	-1E+10	1	-1E+10	1	-1E+10	1	-1E+10	1
4901784	202	C	01/14/2021	10:49	-134.382	43.539	0	1800.40	0	2.1750	0	37.4390	8	29.923	0	1778.361	0	44.7	4	13.8	4	-1E+10	1	-1E+10	1	-1E+10	1	-1E+10	1	-1E+10	1	-1E+10	1
4901784	202	C	01/14/2021	10:49	-134.382	43.539	0	1804.80	0	2.1700	0	37.4400	8	29.925	0	1782.689	0	45.0	4	13.9	4	-1E+10	1	-1E+10	1	-1E+10	1	-1E+10	1	-1E+10	1	-1E+10	1
4901784	202	C	01/14/2021	10:49	-134.382	43.539	0	1809.30	0	2.1630	0	37.4410	8	29.926	0	1787.115	0	45.3	4	14.0	4	-1E+10	1	-1E+10	1	-1E+10	1	-1E+10	1	-1E+10	1	-1E+10	1
4901784	202	C	01/14/2021	10:49	-134.382	43.539	0	1814.60	0	2.1550	0	37.4420	8	29.928	0	1792.327	0	45.6	4	14.1	4	-1E+10	1	-1E+10	1	-1E+10	1	-1E+10	1	-1E+10	1	-1E+10	1
4901784	202	C	01/14/2021	10:49	-134.382	43.539	0	1820.00	0	2.1490	0	37.4430	8	29.929	0	1797.638	0	46.0	4	14.2	4	-1E+10	1	-1E+10	1	-1E+10	1	-1E+10	1	-1E+10	1	-1E+10	1
4901784	202	C	01/14/2021	10:49	-134.382	43.539	0	1825.30	0	2.1440	0	37.4450	8	29.931	0	1802.851	0	46.3	4	14.3	4	-1E+10	1	-1E+10	1	-1E+10	1	-1E+10	1	-1E+10	1	-1E+10	1
4901784	202	C	01/14/2021	10:49	-134.382	43.539	0	1830.70	0	2.1410	0	37.4460	8	29.932	0	1808.161	0	46.5	4	14.4	4	-1E+10	1	-1E+10	1	-1E+10	1	-1E+10	1	-1E+10	1	-1E+10	1
4901784	202	C	01/14/2021	10:49	-134.382	43.539	0	1835.30	0	2.1390	0	37.4460	8	29.932	0	1812.685	0	46.7	4	14.4	4	-1E+10	1	-1E+10	1	-1E+10	1	-1E+10	1	-1E+10	1	-1E+10	1
4901784	202	C	01/14/2021	10:49	-134.382	43.539	0	1839.80	0	2.1370	0	37.4460	8	29.933	0	1817.110	0	46.9	4	14.5	4	-1E+10	1	-1E+10	1	-1E+10	1	-1E+10	1	-1E+10	1	-1E+10	1
4901784	202	C	01/14/2021	10:49	-134.382	43.539	0	1845.30	0	2.1320	0	37.4480	8	29.935	0	1822.519	0	47.3	4	14.6	4	-1E+10	1	-1E+10	1	-1E+10	1	-1E+10	1	-1E+10	1	-1E+10	1
4901784	202	C	01/14/2021	10:49	-134.382	43.539	0	1849.90	0	2.1270	0	37.4490	8	29.936	0	1827.042	0	47.6	4	14.7	4	-1E+10	1	-1E+10	1	-1E+10	1	-1E+10	1	-1E+10	1	-1E+10	1
4901784	202	C	01/14/2021	10:49	-134.382	43.539	0	1854.30	0	2.1220	0	37.4500	8	29.937	0	1831.369	0	47.8	4	14.8	4	-1E+10	1	-1E+10	1	-1E+10	1	-1E+10	1	-1E+10	1	-1E+10	1
4901784	202	C	01/14/2021	10:49	-134.382	43.539	0	1859.60	0	2.1210	0	37.4500	8	29.937	0	1836.581	0	48.1	4	14.9	4	-1E+10	1	-1E+10	1	-1E+10	1	-1E+10	1	-1E+10	1	-1E+10	1
4901784	202	C	01/14/2021	10:49	-134.382	43.539	0	1864.40	0	2.1170	0	37.4510	8	29.938	0	1841.301	0	48.4	4	15.0	4	-1E+10	1	-1E+10	1	-1E+10	1	-1E+10	1	-1E+10	1	-1E+10	1
4901784	202	C	01/14/2021	10:49	-134.382	43.539	0	1870.00	0	2.1090	0	37.4530	8	29.941	0	1846.807	0	48.8	4	15.1	4	-1E+10	1	-1E+10	1	-1E+10	1	-1E+10	1	-1E+10	1	-1E+10	1
4901784	202	C	01/14/2021	10:49	-134.382	43.539	0	1875.70	0	2.1040	0	37.4540	8	29.942	0	1852.411	0	49.2	4	15.2	4	-1E+10	1	-1E+10	1	-1E+10	1	-1E+10	1	-1E+10	1	-1E+10	1
4901784	202	C	01/14/2021	10:49	-134.382	43.539	0	1880.60	0	2.0970	0	37.4550	8	29.943	0	1857.229	0	49.5	4	15.3	4	-1E+10	1	-1E+10	1	-1E+10	1	-1E+10	1	-1E+10	1	-1E+10	1
4901784	202	C	01/14/2021	10:49	-134.382	43.539	0	1885.60	0	2.0910	0	37.4550	8	29.944	0	1862.145	0	49.7	4	15.4	4	-1E+10	1	-1E+10	1	-1E+10	1	-1E+10	1	-1E+10	1	-1E+10	1
4901784	202	C	01/14/2021	10:49	-134.382	43.539	0	1890.50	0	2.0850	0	37.4570	8	29.946	0	1866.963	0	50.0	4	15.4	4	-1E+10	1	-1E+10	1	-1E+10	1	-1E+10	1	-1E+10	1	-1E+10	1
4901784	202	C	01/14/2021	10:49	-134.382	43.539	0	1895.50	0	2.0790	0	37.4570	8	29.947	0	1871.878	0	50.3	4	15.5	4	-1E+10	1	-1E+10	1	-1E+10	1	-1E+10	1	-1E+10	1	-1E+10	1
4901784	202	C	01/14/2021	10:49	-134.382	43.539	0	1900.60	0	2.0740	0	37.4580	8	29.948	0	1876.892	0	50.5	4	15.6	4	-1E+10	1	-1E+10	1	-1E+10	1	-1E+10	1	-1E+10	1	-1E+10	1
4901784	202	C	01/14/2021	10:49	-134.382	43.539	0	1905.60	0	2.0680	0	37.4590	8	29.949	0	1881.808	0	50.8	4	15.7	4	-1E+10	1	-1E+10	1	-1E+10	1	-1E+10	1	-1E+10	1	-1E+10	1
4901784	202	C	01/14/2021	10:49	-134.382	43.539	0	1910.60	0	2.0640	0	37.4600	8	29.951	0	1886.723	0	50.9	4	15.7	4	-1E+10	1	-1E+10	1	-1E+10	1	-1E+10	1	-1E+10	1	-1E+10	1
4901784	202	C	01/14/2021	10:49	-134.382	43.539	0	1915.70	0	2.0610	0	37.4600	8	29.951	0	1891.737	0	51.1	4	15.8	4	-1E+10	1	-1E+10	1	-1E+10	1	-1E+10	1	-1E+10	1	-1E+10	1
4901784	202	C	01/14/2021	10:49	-134.382	43.539	0	1920.00	0	2.0560	0	37.4610	8	29.952	0	1895.964	0	51.2	4	15.8	4	-1E+10	1	-1E+10	1	-1E+10	1	-1E+10	1	-1E+10	1	-1E+10	1
4901784	202	C	01/14/2021	10:49	-134.382	43.539	0	1924.30	0	2.0530	0	37.4610	8	29.952	0	1900.191	0	51.3	4	15.8	4	-1E+10	1	-1E+10	1	-1E+10	1	-1E+10	1	-1E+10	1	-1E+10	1
4901784	202	C	01/14/2021	10:49	-134.382	43.539	0	1929.50	0	2.0480	0	37.4620	8	29.954	0	1905.303	0	51.5	4	15.9	4	-1E+10	1	-1E+10	1	-1E+10	1	-1E+10	1	-1E+10	1	-1E+10	1
4901784	202	C	01/14/2021	10:49	-134.382	43.539	0	1934.70	0	2.0420	0	37.4630	8	29.955	0	1910.414	0	51.7	4	16.0	4	-1E+10	1	-1E+10	1	-1E+10	1	-1E+10	1	-1E+10	1	-1E+10	1
4901784	202	C	01/14/2021	10:49	-134.382	43.539	0	1939.90	0	2.0350	0	37.4630	8	29.956	0	1915.525	0	51.9	4	16.0	4	-1E+10	1	-1E+10	1	-1E+10	1	-1E+10	1	-1E+10	1	-1E+10	1
4901784	202	C	01/14/2021	10:49	-134.382	43.539	0	1945.20	0	2.0280	0	37.4640	8	29.957	0	1920.735	0	52.2	4	16.1	4	-1E+10	1	-1E+10	1	-1E+10	1	-1E+10	1	-1E+10	1	-1E+10	1
4901784	202	C	01/14/2021	10:49	-134.382	43.539	0	1950.50	0	2.0250	0	37.4650	8	29.958	0	1925.944	0	52.6	4	16.2	4	-1E+10	1	-1E+10	1	-1E+10	1	-1E+10	1	-1E+10	1	-1E+10	1
4901784	202	C	01/14/2021	10:49	-134.382	43.539	0	1955.00	0	2.0240	0	37.4660	8	29.959	0	1930.367	0	52.9	4	16.3	4	-1E+10	1	-1E+10	1	-1E+10	1	-1E+10	1	-1E+10	1	-1E+10	1
4901784	202	C	01/14/2021	10:49	-134.382	43.539	0	1959.50	0	2.0220	0	37.4670	8	29.960	0	1934.790	0	53.2	4	16.4	4	-1E+10	1	-1E+10	1	-1E+10	1	-1E+10	1	-1E+10	1	-1E+10	1
4901784	202	C	01/14/2021	10:49	-134.382	43.539	0	1964.80	0	2.0180	0	37.4680	8	29.961	0	1939.999	0	53.6	4	16.5	4	-1E+10	1	-1E+10	1	-1E+10	1	-1E+10	1	-1E+10	1	-1E+10	1
4901784	202	C	01/14/2021	10:49	-134.382	43.539	0	1970.20	0	2.0160	0	37.4690	8	29.962	0	1945.306	0	53.8	4	16.6	4	-1E+10	1	-1E+10	1	-1E+10	1	-1E+10	1	-1E+10	1	-1E+10	1
4901784	202	C	01/14/2021	10:49	-134.382	43.539	0	1975.70	0	2.0110	0	37.4690	8	29.963	0	1950.712	0	54.1	4	16.7	4	-1E+10	1	-1E+10	1	-1E+10	1	-1E+10	1	-1E+10	1	-1E+10	1
4901784	202	C	01/14/2021	10:49	-134.382	43.539	0	1980.20	0	2.0080	0	37.4700	8	29.964	0	1955.134	0	54.3	4	16.7	4	-1E+10	1	-1E+10	1	-1E+10	1	-1E+10	1	-1E+10	1	-1E+10	1
4901784	202	C	01/14/2021	10:49	-134.382	43.539	0	1984.80	0	2.0000	0	37.4710	8	29.965	0	1959.655	0	54.4	4	16.8	4	-1E+10	1	-1E+10	1	-1E+10	1	-1E+10	1	-1E+10	1	-1E+10	1
4901784	202	C	01/14/2021	10:49	-134.382	43.539	0	1990.20	0	1.9950	0	37.4710	8	29.966	0	1964.962	0	54.6	4	16.8	4	-1E+10	1	-1E+10	1	-1E+10	1	-1E+10	1	-1E+10	1	-1E+10	1
4901784	202	C	01/14/2021	10:49	-134.382	43.539	0	1994.80	0	1.9860	0	37.4710	8	29.967	0	1969.482	0	54.7	4	16.9	4	-1E+10	1	-1E+10	1	-1E+10	1	-1E+10	1	-1E+10	1	-1E+10	1
4901784	202	C	01/14/2021	10:49	-134.382	43.539	0	1999.20	0	1.9800	0	37.4720	8	29.968	0	1973.806	0	55.0	4	16.9	4	-1E+10	1	-1E+10	1	-1E+10	1	-1E+10	1	-1E+10	1	-1E+10	1
4901784	202	C	01/14/2021	10:49	-134.382	43.539	0	2004.40	0	1.9750	0	37.4730	8	29.969	0	1978.916	0	55.4	4	17.1	4	-1E+10	1	-1E+10	1	-1E+10	1	-1E+10	1	-1E+10	1	-1E+10	1
4901784	202	C	01/14/2021	10:49	-134.382	43.539	0	2009.90	0	1.9680	0	37.4740	8	29.971	0	1984.320	0	55.7	4	17.2	4	-1E+10	1	-1E+10	1	-1E+10	1	-1E+10	1	-1E+10	1	-1E+10	1
4901784	202	C	01/14/2021	10:49	-134.382	43.539	0	2015.50	0	1.9660	0	37.4740	8	29.971	0	1989.823	0	56.0	4	17.2	4	-1E+10	1	-1E+10	1	-1E+10	1	-1E+10	1	-1E+10	1	-1E+10	1
4901784	202	C	01/14/2021	10:49	-134.382	43.539	0	2019.60	0	1.9630	0	37.4750	8	29.972	0	1993.851	0	56.2	4	17.3	4	-1E+10	1	-1E+10	1	-1E+10	1	-1E+10	1	-1E+10	1	-1E+10	1
4901784	202	C	01/14/2021	10:49	-134.382	43.539	0																										
4901784	203	C	01/24/2021	10:47	-134.511	43.535	0	2.10	0	12.1410	0	35.6540	8	27.071	0	2.083	0	250.2	4	95.8	4	-1E+10	1	-1E+10	1	-1E+10	1	-1E+10	1	-1E+10	1	-1E+10	1
4901784	203	C	01/24/2021	10:47	-134.511	43.535	0	3.30	0	12.1440	0	35.6550	8	27.071	0	3.274	0	250.1	4	95.7	4	-1E+10	1	-1E+10	1	-1E+10	1	-1E+10	1	-1E+10	1	-1E+10	1
4901784	203	C	01/24/2021	10:47	-134.511	43.535	0	4.80	0	12.1440	0	35.6560	8	27.072	0	4.762	0	249.9	4	95.6	4	-1E+10	1	-1E+10	1	-1E+10	1	-1E+10	1	-1E+10	1	-1E+10	1
4901784	203	C	01/24/2021	10:47	-134.511	43.535	0	6.40	0	12.1440	0	35.6570	8	27.073	0	6.349	0	250.0	4	95.7	4	-1E+10	1	-1E+10	1	-1E+10	1	-1E+10	1	-1E+10	1	-1E+10	1
4901784	203	C	01/24/2021	10:47	-134.511	43.535	0	8.10	0	12.1460	0	35.6570	8	27.072	0	8.035	0	249.9	4	95.6	4	-1E+10	1	-1E+10	1	-1E+10	1	-1E+10	1	-1E+10	1	-1E+10	1
4901784	203	C	01/24/2021	10:47	-134.511	43.535	0	9.90	0	12.1460	0	35.6580	8	27.073	0	9.821	0	249.9	4	95.6	4	-1E+10	1	-1E+10	1	-1E+10	1	-1E+10	1	-1E+10	1	-1E+10	1
4901784	203	C	01/24/2021	10:47	-134.511	43.535	0	11.80	0	12.1450	0	35.6590	8	27.074	0	11.705	0	249.9	4	95.6	4	-1E+10	1	-1E+10	1	-1E+10	1	-1E+10	1	-1E+10	1	-1E+10	1
4901784	203	C	01/24/2021	10:47	-134.511	43.535	0	14.00	0	12.1460	0	35.6600	8	27.075	0	13.888	0	249.9	4	95.7	4	-1E+10	1	-1E+10	1	-1E+10	1	-1E+10	1	-1E+10	1	-1E+10	1
4901784	203	C	01/24/2021	10:47	-134.511	43.535	0	16.00	0	12.1450	0	35.6610	8	27.076	0	15.872	0	249.8	4	95.6	4	-1E+10	1	-1E+10	1	-1E+10	1	-1E+10	1	-1E+10	1	-1E+10	1
4901784	203	C	01/24/2021	10:47	-134.511	43.535	0	18.30	0	12.1450	0	35.6620	8	27.077	0	18.153	0	249.9	4	95.7	4	-1E+10	1	-1E+10	1	-1E+10	1	-1E+10	1	-1E+10	1	-1E+10	1
4901784	203	C	01/24/2021	10:47	-134.511	43.535	0	20.50	0	12.1450	0	35.6630	8	27.077	0	20.335	0	249.8	4	95.6	4	-1E+10	1	-1E+10	1	-1E+10	1	-1E+10	1	-1E+10	1	-1E+10	1
4901784	203	C	01/24/2021	10:47	-134.511	43.535	0	22.50	0	12.1450	0	35.6630	8	27.077	0	22.319	0	249.8	4	95.6	4	-1E+10	1	-1E+10	1	-1E+10	1	-1E+10	1	-1E+10	1	-1E+10	1
4901784	203	C	01/24/2021	10:47	-134.511	43.535	0	24.50	0	12.1450	0	35.6650	8	27.079	0	24.303	0	249.8	4	95.6	4	-1E+10	1	-1E+10	1	-1E+10	1	-1E+10	1	-1E+10	1	-1E+10	1
4901784	203	C	01/24/2021	10:47	-134.511	43.535	0	26.50	0	12.1470	0	35.6660	8	27.079	0	26.287	0	249.7	4	95.6	4	-1E+10	1	-1E+10	1	-1E+10	1	-1E+10	1	-1E+10	1	-1E+10	1
4901784	203	C	01/24/2021	10:47	-134.511	43.535	0	28.60	0	12.1500	0	35.6660	8	27.079	0	28.370	0	249.6	4	95.6	4	-1E+10	1	-1E+10	1	-1E+10	1	-1E+10	1	-1E+10	1	-1E+10	1
4901784	203	C	01/24/2021	10:47	-134.511	43.535	0	30.80	0	12.1490	0	35.6670	8	27.080	0	30.552	0	249.8	4	95.6	4	-1E+10	1	-1E+10	1	-1E+10	1	-1E+10	1	-1E+10	1	-1E+10	1
4901784	203	C	01/24/2021	10:47	-134.511	43.535	0	32.80	0	12.1500	0	35.6680	8	27.081	0	32.536	0	249.6	4	95.6	4	-1E+10	1	-1E+10	1	-1E+10	1	-1E+10	1	-1E+10	1	-1E+10	1
4901784	203	C	01/24/2021	10:47	-134.511	43.535	0	35.20	0	12.1500	0	35.6690	8	27.081	0	34.916	0	249.7	4	95.6	4	-1E+10	1	-1E+10	1	-1E+10	1	-1E+10	1	-1E+10	1	-1E+10	1
4901784	203	C	01/24/2021	10:47	-134.511	43.535	0	37.40	0	12.1510	0	35.6700	8	27.082	0	37.098	0	249.7	4	95.6	4	-1E+10	1	-1E+10	1	-1E+10	1	-1E+10	1	-1E+10	1	-1E+10	1
4901784	203	C	01/24/2021	10:47	-134.511	43.535	0	39.70	0	12.1510	0	35.6710	8	27.083	0	39.379	0	249.7	4	95.6	4	-1E+10	1	-1E+10	1	-1E+10	1	-1E+10	1	-1E+10	1	-1E+10	1
4901784	203	C	01/24/2021	10:47	-134.511	43.535	0	41.80	0	12.1510	0	35.6720	8	27.084	0	41.462	0	249.4	4	95.5	4	-1E+10	1	-1E+10	1	-1E+10	1	-1E+10	1	-1E+10	1	-1E+10	1
4901784	203	C	01/24/2021	10:47	-134.511	43.535	0	44.00	0	12.1510	0	35.6730	8	27.085	0	43.644	0	249.6	4	95.6	4	-1E+10	1	-1E+10	1	-1E+10	1	-1E+10	1	-1E+10	1	-1E+10	1
4901784	203	C	01/24/2021	10:47	-134.511	43.535	0	46.20	0	12.1510	0	35.6740	8	27.085	0	45.826	0	249.4	4	95.5	4	-1E+10	1	-1E+10	1	-1E+10	1	-1E+10	1	-1E+10	1	-1E+10	1
4901784	203	C	01/24/2021	10:47	-134.511	43.535	0	48.40	0	12.1520	0	35.6750	8	27.086	0	48.008	0	249.4	4	95.5	4	-1E+10	1	-1E+10	1	-1E+10	1	-1E+10	1	-1E+10	1	-1E+10	1
4901784	203	C	01/24/2021	10:47	-134.511	43.535	0	50.70	0	12.1520	0	35.6760	8	27.087	0	50.289	0	249.5	4	95.5	4	-1E+10	1	-1E+10	1	-1E+10	1	-1E+10	1	-1E+10	1	-1E+10	1
4901784	203	C	01/24/2021	10:47	-134.511	43.535	0	53.00	0	12.1520	0	35.6770	8	27.088	0	52.570	0	249.3	4	95.5	4	-1E+10	1	-1E+10	1	-1E+10	1	-1E+10	1	-1E+10	1	-1E+10	1
4901784	203	C	01/24/2021	10:47	-134.511	43.535	0	55.20	0	12.1510	0	35.6780	8	27.089	0	54.752	0	249.3	4	95.5	4	-1E+10	1	-1E+10	1	-1E+10	1	-1E+10	1	-1E+10	1	-1E+10	1
4901784	203	C	01/24/2021	10:47	-134.511	43.535	0	57.40	0	12.1510	0	35.6800	8	27.090	0	56.934	0	249.3	4	95.5	4	-1E+10	1	-1E+10	1	-1E+10	1	-1E+10	1	-1E+10	1	-1E+10	1
4901784	203	C	01/24/2021	10:47	-134.511	43.535	0	59.50	0	12.1510	0	35.6800	8	27.090	0	59.016	0	249.3	4	95.4	4	-1E+10	1	-1E+10	1	-1E+10	1	-1E+10	1	-1E+10	1	-1E+10	1
4901784	203	C	01/24/2021	10:47	-134.511	43.535	0	61.70	0	12.1510	0	35.6820	8	27.092	0	61.198	0	249.2	4	95.4	4	-1E+10	1	-1E+10	1	-1E+10	1	-1E+10	1	-1E+10	1	-1E+10	1
4901784	203	C	01/24/2021	10:47	-134.511	43.535	0	63.80	0	12.1510	0	35.6830	8	27.093	0	63.281	0	249.2	4	95.4	4	-1E+10	1	-1E+10	1	-1E+10	1	-1E+10	1	-1E+10	1	-1E+10	1
4901784	203	C	01/24/2021	10:47	-134.511	43.535	0	66.00	0	12.1530	0	35.6840	8	27.093	0	65.463	0	249.0	4	95.4	4	-1E+10	1	-1E+10	1	-1E+10	1	-1E+10	1	-1E+10	1	-1E+10	1
4901784	203	C	01/24/2021	10:47	-134.511	43.535	0	68.00	0	12.1550	0	35.6850	8	27.094	0	67.446	0	249.0	4	95.4	4	-1E+10	1	-1E+10	1	-1E+10	1	-1E+10	1	-1E+10	1	-1E+10	1
4901784	203	C	01/24/2021	10:47	-134.511	43.535	0	69.90	0	12.1550	0	35.6860	8	27.095	0	69.330	0	248.9	4	95.3	4	-1E+10	1	-1E+10	1	-1E+10	1	-1E+10	1	-1E+10	1	-1E+10	1
4901784	203	C	01/24/2021	10:47	-134.511	43.535	0	71.70	0	12.1540	0	35.6870	8	27.096	0	71.115	0	248.8	4	95.3	4	-1E+10	1	-1E+10	1	-1E+10	1	-1E+10	1	-1E+10	1	-1E+10	1
4901784	203	C	01/24/2021	10:47	-134.511	43.535	0	73.50	0	12.1540	0	35.6880	8	27.096	0	72.900	0	248.7	4	95.3	4	-1E+10	1	-1E+10	1	-1E+10	1	-1E+10	1	-1E+10	1	-1E+10	1
4901784	203	C	01/24/2021	10:47	-134.511	43.535	0	75.30	0	12.1550	0	35.6890	8	27.097	0	74.685	0	248.5	4	95.2	4	-1E+10	1	-1E+10	1	-1E+10	1	-1E+10	1	-1E+10	1	-1E+10	1
4901784	203	C	01/24/2021	10:47	-134.511	43.535	0	77.10	0	12.1550	0	35.6900	8	27.098	0	76.470	0	248.4	4	95.1	4	-1E+10	1	-1E+10	1	-1E+10	1	-1E+10	1	-1E+10	1	-1E+10	1
4901784	203	C	01/24/2021	10:47	-134.511	43.535	0	78.90	0	12.1560	0	35.6910	8	27.098	0	78.255	0	248.3	4	95.1	4	-1E+10	1	-1E+10	1	-1E+10	1	-1E+10	1	-1E+10	1	-1E+10	1
4901784	203	C	01/24/2021	10:47	-134.511	43.535	0	81.20	0	12.1560	0	35.6930	8	27.100	0	80.536	0	248.3	4	95.1	4	-1E+10	1	-1E+10	1	-1E+10	1	-1E+10	1	-1E+10	1	-1E+10	1
4901784	203	C	01/24/2021	10:47	-134.511	43.535	0	81.70	0	12.1560	0	35.6930	8	27.100	0	81.032	0	248.2	4	95.1	4	-1E+10	1	-1E+10	1	-1E+10	1	-1E+10	1	-1E+10	1	-1E+10	1
4901784	203	C	01/24/2021	10:47	-134.511	43.535	0	83.50	0	12.1570	0	35.6940	8	27.101	0	82.817	0	248.0	4	95.0	4	-1E+10	1	-1E+10	1	-1E+10	1	-1E+10	1	-1E+10	1	-1E+10	1
4901784	203	C	01/24/2021	10:47	-134.511	43.535	0	85.20	0	12.1580	0	35.6940	8	27.101	0	84.502	0	247.9	4	94.9	4	-1E+10	1	-1E+10	1	-1E+10	1	-1E+10	1	-1E+10	1	-1E+10	1
4901784	203	C	01/24/2021	10:47	-134.511	43.535	0	86.90	0	12.1580	0	35.6950	8	27.101	0	86.188	0	247.7	4	94.8	4	-1E+10	1	-1E+10	1	-1E+10	1	-1E+10	1	-1E+10	1	-1E+10	1
4901784	203	C	01/24/2021	10:47	-134.511	43.535	0	88.60	0	12.1580	0	35.6960	8	27.102	0	87.874	0	247.4	4	94.7	4	-1E+10	1	-1E+10	1	-1E+10	1	-1E+10	1	-1E+10	1	-1E+10	1
4901784	203	C	01/24/2021	10:47	-134.511	43.535	0	90.20	0	12.1570	0	35.6950	8	27.102	0	89.460	0	246.9	4	94.6	4	-1E+10	1	-1E+10	1	-1E+10	1	-1E+10	1	-1E+10	1	-1E+10	1
4901784	203	C	01/24/2021	10:47	-134.511	43.535	0	91.80	0	12.1570	0	35.6950	8	27.102	0	91.047	0	246.7	4	94.5	4	-1E+10	1	-1E+10	1	-1E+10	1	-1E+10	1	-1E+10	1	-1E+10	1
4901784	203	C	01/24/2021	10:47	-134.511	43.535	0	93.40	0	12.1570	0	35.6930	8	27.100	0	92.633	0	246.1	4	94.3	4	-1E+10	1	-1E+10	1	-1E+10	1	-1E+10	1	-1E+10	1	-1E+10	1
4901784	203	C	01/24/2021	10:47	-134.511	43.535	0	95.00	0	12.1570	0	35.6910	8	27.099	0	94.220	0	245.4	4	94.0	4	-1E+10	1	-1E+10	1	-1E+10	1	-1E+10	1	-1E+10	1	-1E+10	1
4901784	203	C	01/24/2021	10:47	-134.511	43.535	0	96.60	0	12.1570	0	35.6850	8	27.094	0	95.806	0	244.4	4	93.6	4	-1E+10	1	-1E+10	1	-1E+10	1	-1E+10	1	-1E+10	1	-1E+10	1
4901784	203	C	01/24/2021	10:47	-134.511	43.535	0	98.20	0	12.1580	0	35.6760	8	27.087	0	97.393	0	243.2	4	93.1	4	-1E+10	1	-1E+10	1	-1E+10	1	-1E+10	1	-1E+10	1	-1E+10	1
4901784	203	C	01/24/2021	10:47	-134.511	43.535	0	99.70	0	12.1560	0	35.6600	8	27.075	0	98.880	0	241.6	4	92.5	4	-1E+10	1	-1E+10	1	-1E+10	1	-1E+10	1	-1E+10	1	-1E+10	1
4901784	203	C	01/24/2021	10:47	-134.511	43.535	0	102.10	0	11.9920	0	35.6410	8	27.092	0	101.260	0	238.6	4	91.0	4	-1E+10	1	-1E+10	1	-1E+10	1	-1E+10	1	-1E+10	1	-1E+10	1
4901784	203	C	01/24/2021	10:47	-134.511	43.535	0	105.30	0	11.0840	0	35.6820	8	27.294	0	104.433	0	237.4	4	88.9	4	-1E+10	1	-1E+10	1	-1E+10	1	-1E+10	1	-1E+10	1	-1E+10	1
4901784	203	C	01/24/2021	10:47	-134.511	43.535	0	107.80	0	10.1260	0	35.7590	8	27.526	0	106.911	0	240.7	4	88.4	4	-1E+10	1	-1E+10	1	-1E+10	1	-1E+10	1	-1E+10	1	-1E+10	1
4901784	203	C	01/24/2021	10:47	-134.511	43.535	0	109.50	0	10.0120	0	35.7690	8	27.553	0	108.597	0	240.9	4	88.2	4	-1E+10	1	-1E+10	1	-1E+10	1	-1E+10	1	-1E+10	1	-1E+10	1
4901784	203	C	01/24/2021	10:47	-134.511	43.535	0	112.30	0	9.7610	0	35.7830	8	27.607	0	111.373	0	241.3	4	87.9	4	-1E+10	1	-1E+10	1	-1E+10	1	-1E+10	1	-1E+10	1	-1E+10	1
4901784	203	C	01/24/2021	10:47	-134.511	43.535	0	114.90	0	9.6900	0	35.7840	8	27.620	0	113.951	0	240.9	4	87.6	4	-1E+10	1	-1E+10	1	-1E+10	1	-1E+10	1	-1E+10	1	-1E+10	1
4901784	203	C	01/24/2021	10:47	-134.511	43.535	0	117.20	0	9.4960	0	35.7940	8	27.661	0	116.231	0	240.4	4	87.1	4	-1E+10	1	-1E+10	1	-1E+10	1	-1E+10	1	-1E+10	1	-1E+10	1
4901784	203	C	01/24/2021	10:47	-134.511	43.535	0	120.20	0	9.4360	0	35.8230	8	27.694	0	119.206	0	238.9	4	86.5	4	-1E+10	1	-1E+10	1	-1E+10	1	-1E+10	1	-1E+10	1	-1E+10	1
4901784	203	C	01/24/2021	10:47	-134.511	43.535	0	122.60	0	9.4470	0	35.8470	8	27.711	0	121.585	0	237.0	4	85.8	4	-1E+10	1	-1E+10	1	-1E+10	1	-1E+10	1	-1E+10	1	-1E+10	1
4901784	203	C	01/24/2021	10:47	-134.511	43.535	0	124.90	0	9.4570	0	35.8640	8	27.722	0	123.865	0	234.8	4	85.0	4	-1E+10	1	-1E+10	1	-1E+10	1	-1E+10	1	-1E+10	1	-1E+10	1
4901784	203	C	01/24/2021	10:47	-134.511	43.535	0	127.30	0	9.5130	0	35.8920	8	27.735	0	126.245	0	231.9	4	84.1	4	-1E+10	1	-1E+10	1	-1E+10	1	-1E+10	1	-1E+10	1	-1E+10	1
4901784	203	C	01/24/2021	10:47	-134.511	43.535	0	129.60	0	9.5470	0	35.9450	8	27.771	0	128.525	0	229.0	4	83.2	4	-1E+10	1	-1E+10	1	-1E+10	1	-1E+10	1	-1E+10	1	-1E+10	1
4901784	203	C	01/24/2021	10:47	-134.511	43.535	0	132.80	0	9.4770	0	35.9740	8	27.805	0	131.697	0	226.1	4	82.0	4	-1E+10	1	-1E+10	1	-1E+10	1	-1E+10	1	-1E+10	1	-1E+10	1
4901784	203	C	01/24/2021	10:47	-134.511	43.535	0	135.40	0	9.4170	0	35.9940	8	27.831	0	134.275	0	223.7	4	81.0	4	-1E+10	1	-1E+10	1	-1E+10	1	-1E+10	1	-1E+10	1	-1E+10	1
4901784	203	C	01/24/2021	10:47	-134.511	43.535	0	137.10	0	9.3420	0	36.0370	8	27.877	0	135.960	0	221.7	4	80.2	4	-1E+10	1	-1E+10	1	-1E+10	1	-1E+10	1	-1E+10	1	-1E+10	1
4901784	203	C	01/24/2021	10:47	-134.511	43.535	0	139.80	0	9.2430	0	36.0810	8	27.928	0	138.637	0	219.3	4	79.2	4	-1E+10	1	-1E+10	1	-1E+10	1	-1E+10	1	-1E+10	1	-1E+10	1
4901784	203	C	01/24/2021	10:47	-134.511	43.535	0	142.50	0	9.1620	0	36.1010	8	27.957	0	141.314	0	217.4	4	78.3	4	-1E+10	1	-1E+10	1	-1E+10	1	-1E+10	1	-1E+10	1	-1E+10	1
4901784	203	C	01/24/2021	10:47	-134.511	43.535	0	145.10	0	8.9930	0	36.1450	8	28.019	0	143.891	0	215.3	4	77.3	4	-1E+10	1	-1E+10	1	-1E+10	1	-1E+10	1	-1E+10	1	-1E+10	1
4901784	203	C	01/24/2021	10:47	-134.511	43.535	0	147.60	0	8.8400	0	36.2170	8	28.101	0	146.369	0	213.5	4	76.5	4	-1E+10	1	-1E+10	1	-1E+10	1	-1E+10	1	-1E+10	1	-1E+10	1
4901784	203	C	01/24/2021	10:47	-134.511	43.535	0	150.10	0	8.7690	0	36.2520	8	28.140	0	148.848	0	212.0	4	75.8	4	-1E+10	1	-1E+10	1	-1E+10	1	-1E+10	1	-1E+10	1	-1E+10	1
4901784	203	C	01/24/2021	10:47	-134.511	43.535	0	152.70	0	8.7230	0	36.2890	8	28.176	0	151.425	0	210.3	4	75.2	4	-1E+10	1	-1E+10	1	-1E+10	1	-1E+10	1	-1E+10	1	-1E+10	1
4901784	203	C	01/24/2021	10:47	-134.511	43.535	0	155.30	0	8.6330	0	36.3180	8	28.213	0	154.002	0	208.5	4	74.4	4	-1E+10	1	-1E+10	1	-1E+10	1	-1E+10	1	-1E+10	1	-1E+10	1
4901784	203	C	01/24/2021	10:47	-134.511	43.535	0	158.10	0	8.5460	0	36.3370	8	28.242	0	156.778	0	207.1	4	73.8	4	-1E+10	1	-1E+10	1	-1E+10	1	-1E+10	1	-1E+10	1	-1E+10	1
4901784	203	C	01/24/2021	10:47	-134.511	43.535	0	159.80	0	8.4630	0	36.3790	8	28.288	0	158.463	0	206.2	4	73.4	4	-1E+10	1	-1E+10	1	-1E+10	1	-1E+10	1	-1E+10	1	-1E+10	1
4901784	203	C	01/24/2021	10:47	-134.511	43.535	0	162.00	0	8.4160	0	36.4030	8	28.315	0	160.644	0	205.3	4	73.0	4	-1E+10	1	-1E+10	1	-1E+10	1	-1E+10	1	-1E+10	1	-1E+10	1
4901784	203	C	01/24/2021	10:47	-134.511	43.535	0	164.50	0	8.3660	0	36.4320	8	28.345	0	163.122	0	204.2	4	72.5	4	-1E+10	1	-1E+10	1	-1E+10	1	-1E+10	1	-1E+10	1	-1E+10	1
4901784	203	C	01/24/2021	10:47	-134.511	43.535	0	167.40	0	8.2960	0	36.4600	8	28.378	0	165.996	0	202.5	4	71.8	4	-1E+10	1	-1E+10	1	-1E+10	1	-1E+10	1	-1E+10	1	-1E+10	1
4901784	203	C	01/24/2021	10:47	-134.511	43.535	0	169.70	0	8.1170	0	36.5250	8	28.457	0	168.276	0	200.5	4	70.9	4	-1E+10	1	-1E+10	1	-1E+10	1	-1E+10	1	-1E+10	1	-1E+10	1
4901784	203	C	01/24/2021	10:47	-134.511	43.535	0	172.10	0	8.0770	0	36.5780	8	28.505	0	170.655	0	197.7	4	69.8	4	-1E+10	1	-1E+10	1	-1E+10	1	-1E+10	1	-1E+10	1	-1E+10	1
4901784	203	C	01/24/2021	10:47	-134.511	43.535	0	175.40	0	8.0160	0	36.7120	8	28.620	0	173.926	0	194.1	4	68.5	4	-1E+10	1	-1E+10	1	-1E+10	1	-1E+10	1	-1E+10	1	-1E+10	1
4901784	203	C	01/24/2021	10:47	-134.511	43.535	0	177.70	0	8.0120	0	36.7690	8	28.665	0	176.206	0	193.0	4	68.2	4	-1E+10	1	-1E+10	1	-1E+10	1	-1E+10	1	-1E+10	1	-1E+10	1
4901784	203	C	01/24/2021	10:47	-134.511	43.535	0	179.40	0	8.0270	0	36.7880	8	28.678	0	177.890	0	192.4	4	68.0	4	-1E+10	1	-1E+10	1	-1E+10	1	-1E+10	1	-1E+10	1	-1E+10	1
4901784	203	C	01/24/2021	10:47	-134.511	43.535	0	182.10	0	8.0080	0	36.8190	8	28.705	0	180.567	0	191.5	4	67.7	4	-1E+10	1	-1E+10	1	-1E+10	1	-1E+10	1	-1E+10	1	-1E+10	1
4901784	203	C	01/24/2021	10:47	-134.511	43.535	0	185.40	0	7.9800	0	36.8620	8	28.744	0	183.837	0	190.5	4	67.3	4	-1E+10	1	-1E+10	1	-1E+10	1	-1E+10	1	-1E+10	1	-1E+10	1
4901784	203	C	01/24/2021	10:47	-134.511	43.535	0	187.60	0	7.9590	0	36.8990	8	28.776	0	186.018	0	190.1	4	67.1	4	-1E+10	1	-1E+10	1	-1E+10	1	-1E+10	1	-1E+10	1	-1E+10	1
4901784	203	C	01/24/2021	10:47	-134.511	43.535	0	189.80	0	7.9480	0	36.9150	8	28.790	0	188.198	0	189.6	4	66.9	4	-1E+10	1	-1E+10	1	-1E+10	1	-1E+10	1	-1E+10	1	-1E+10	1
4901784	203	C	01/24/2021	10:47	-134.511	43.535	0	192.20	0	7.9370	0	36.9300	8	28.804	0	190.577	0	189.2	4	66.8	4	-1E+10	1	-1E+10	1	-1E+10	1	-1E+10	1	-1E+10	1	-1E+10	1
4901784	203	C	01/24/2021	10:47	-134.511	43.535	0	194.60	0	7.9240	0	36.9440	8	28.817	0	192.956	0	188.8	4	66.6	4	-1E+10	1	-1E+10	1	-1E+10	1	-1E+10	1	-1E+10	1	-1E+10	1
4901784	203	C	01/24/2021	10:47	-134.511	43.535	0	197.90	0	7.9070	0	36.9670	8	28.838	0	196.226	0	188.3	4	66.5	4	-1E+10	1	-1E+10	1	-1E+10	1	-1E+10	1	-1E+10	1	-1E+10	1
4901784	203	C	01/24/2021	10:47	-134.511	43.535	0	200.30	0	7.9020	0	36.9610	8	28.834	0	198.605	0	187.7	4	66.2	4	-1E+10	1	-1E+10	1	-1E+10	1	-1E+10	1	-1E+10	1	-1E+10	1
4901784	203	C	01/24/2021	10:47	-134.511	43.535	0	202.80	0	7.8650	8	36.9630	8	28.841	0	201.082	0	187.2	4	66.0	4	-1E+10	1	-1E+10	1	-1E+10	1	-1E+10	1	-1E+10	1	-1E+10	1
4901784	203	C	01/24/2021	10:47	-134.511	43.535	0	205.30	0	7.8470	8	36.9180	8	28.808	0	203.560	0	186.7	4	65.8	4	-1E+10	1	-1E+10	1	-1E+10	1	-1E+10	1	-1E+10	1	-1E+10	1
4901784	203	C	01/24/2021	10:47	-134.511	43.535	0	207.80	0	7.8450	8	36.7510	8	28.677	0	206.037	0	186.1	4	65.5	4	-1E+10	1	-1E+10	1	-1E+10	1	-1E+10	1	-1E+10	1	-1E+10	1
4901784	203	C	01/24/2021	10:47	-134.511	43.535	0	210.20	0	7.8310	0	36.7560	8	28.683	0	208.416	0	185.1	4	65.1	4	-1E+10	1	-1E+10	1	-1E+10	1	-1E+10	1	-1E+10	1	-1E+10	1
4901784	203	C	01/24/2021	10:47	-134.511	43.535	0	212.70	0	7.8210	0	36.7480	8	28.679	0	210.893	0	183.9	4	64.7	4	-1E+10	1	-1E+10	1	-1E+10	1	-1E+10	1	-1E+10	1	-1E+10	1
4901784	203	C	01/24/2021	10:47	-134.511	43.535	0	215.20	0	7.8070	0	36.7530	8	28.685	0	213.371	0	182.7	4	64.2	4	-1E+10	1	-1E+10	1	-1E+10	1	-1E+10	1	-1E+10	1	-1E+10	1
4901784	203	C	01/24/2021	10:47	-134.511	43.535	0	217.00	0	7.8020	0	36.7500	8	28.683	0	215.155	0	181.7	4	63.9	4	-1E+10	1	-1E+10	1	-1E+10	1	-1E+10	1	-1E+10	1	-1E+10	1
4901784	203	C	01/24/2021	10:47	-134.511	43.535	0	219.60	0	7.7830	0	36.7510	8	28.687	0	217.731	0	179.7	4	63.1	4	-1E+10	1	-1E+10	1	-1E+10	1	-1E+10	1	-1E+10	1	-1E+10	1
4901784	203	C	01/24/2021	10:47	-134.511	43.535	0	222.20	0	7.7570	0	36.7690	8	28.705	0	220.308	0	177.6	4	62.4	4	-1E+10	1	-1E+10	1	-1E+10	1	-1E+10	1	-1E+10	1	-1E+10	1
4901784	203	C	01/24/2021	10:47	-134.511	43.535	0	224.90	0	7.7500	0	36.7770	8	28.713	0	222.983	0	175.1	4	61.5	4	-1E+10	1	-1E+10	1	-1E+10	1	-1E+10	1	-1E+10	1	-1E+10	1
4901784	203	C	01/24/2021	10:47	-134.511	43.535	0	227.50	0	7.7340	0	36.7910	8	28.726	0	225.560	0	172.2	4	60.5	4	-1E+10	1	-1E+10	1	-1E+10	1	-1E+10	1	-1E+10	1	-1E+10	1
4901784	203	C	01/24/2021	10:47	-134.511	43.535	0	230.20	0	7.7240	0	36.8330	8	28.761	0	228.235	0	170.7	4	59.9	4	-1E+10	1	-1E+10	1	-1E+10	1	-1E+10	1	-1E+10	1	-1E+10	1
4901784	203	C	01/24/2021	10:47	-134.511	43.535	0	232.80	0	7.7200	0	36.8110	8	28.744	0	230.811	0	169.9	4	59.6	4	-1E+10	1	-1E+10	1	-1E+10	1	-1E+10	1	-1E+10	1	-1E+10	1
4901784	203	C	01/24/2021	10:47	-134.511	43.535	0	234.60	0	7.7160	0	36.8160	8	28.748	0	232.595	0	169.6	4	59.5	4	-1E+10	1	-1E+10	1	-1E+10	1	-1E+10	1	-1E+10	1	-1E+10	1
4901784	203	C	01/24/2021	10:47	-134.511	43.535	0	237.20	0	7.7130	0	36.8240	8	28.755	0	235.171	0	168.9	4	59.3	4	-1E+10	1	-1E+10	1	-1E+10	1	-1E+10	1	-1E+10	1	-1E+10	1
4901784	203	C	01/24/2021	10:47	-134.511	43.535	0	239.70	0	7.7070	0	36.8140	8	28.748	0	237.648	0	167.8	4	58.9	4	-1E+10	1	-1E+10	1	-1E+10	1	-1E+10	1	-1E+10	1	-1E+10	1
4901784	203	C	01/24/2021	10:47	-134.511	43.535	0	242.30	0	7.7020	0	36.8210	8	28.755	0	240.225	0	166.7	4	58.5	4	-1E+10	1	-1E+10	1	-1E+10	1	-1E+10	1	-1E+10	1	-1E+10	1
4901784	203	C	01/24/2021	10:47	-134.511	43.535	0	244.90	0	7.7010	0	36.8100	8	28.746	0	242.801	0	165.5	4	58.1	4	-1E+10	1	-1E+10	1	-1E+10	1	-1E+10	1	-1E+10	1	-1E+10	1
4901784	203	C	01/24/2021	10:47	-134.511	43.535	0	247.60	0	7.6800	0	36.8170	8	28.755	0	245.476	0	163.9	4	57.5	4	-1E+10	1	-1E+10	1	-1E+10	1	-1E+10	1	-1E+10	1	-1E+10	1
4901784	203	C	01/24/2021	10:47	-134.511	43.535	0	250.30	0	7.6580	0	36.8100	8	28.753	0	248.151	0	162.4	4	56.9	4	-1E+10	1	-1E+10	1	-1E+10	1	-1E+10	1	-1E+10	1	-1E+10	1
4901784	203	C	01/24/2021	10:47	-134.511	43.535	0	252.10	0	7.6440	0	36.8090	8	28.754	0	249.935	0	161.4	4	56.5	4	-1E+10	1	-1E+10	1	-1E+10	1	-1E+10	1	-1E+10	1	-1E+10	1
4901784	203	C	01/24/2021	10:47	-134.511	43.535	0	254.80	0	7.6200	0	36.8330	8	28.777	0	252.610	0	160.5	4	56.2	4	-1E+10	1	-1E+10	1	-1E+10	1	-1E+10	1	-1E+10	1	-1E+10	1
4901784	203	C	01/24/2021	10:47	-134.511	43.535	0	257.50	0	7.6080	0	36.8240	8	28.771	0	255.285	0	159.7	4	55.9	4	-1E+10	1	-1E+10	1	-1E+10	1	-1E+10	1	-1E+10	1	-1E+10	1
4901784	203	C	01/24/2021	10:47	-134.511	43.535	0	259.40	0	7.5960	0	36.8520	8	28.795	0	257.168	0	158.8	4	55.6	4	-1E+10	1	-1E+10	1	-1E+10	1	-1E+10	1	-1E+10	1	-1E+10	1
4901784	203	C	01/24/2021	10:47	-134.511	43.535	0	262.20	0	7.5880	0	36.8140	8	28.767	0	259.942	0	157.6	4	55.1	4	-1E+10	1	-1E+10	1	-1E+10	1	-1E+10	1	-1E+10	1	-1E+10	1
4901784	203	C	01/24/2021	10:47	-134.511	43.535	0	265.00	0	7.5500	0	36.8270	8	28.783	0	262.716	0	156.5	4	54.7	4	-1E+10	1	-1E+10	1	-1E+10	1	-1E+10	1	-1E+10	1	-1E+10	1
4901784	203	C	01/24/2021	10:47	-134.511	43.535	0	267.80	0	7.4960	0	36.8220	8	28.787	0	265.490	0	155.9	4	54.4	4	-1E+10	1	-1E+10	1	-1E+10	1	-1E+10	1	-1E+10	1	-1E+10	1
4901784	203	C	01/24/2021	10:47	-134.511	43.535	0	270.50	0	7.4710	0	36.8170	8	28.787	0	268.165	0	155.3	4	54.2	4	-1E+10	1	-1E+10	1	-1E+10	1	-1E+10	1	-1E+10	1	-1E+10	1
4901784	203	C	01/24/2021	10:47	-134.511	43.535	0	272.40	0	7.4530	0	36.8030	8	28.778	0	270.047	0	154.9	4	54.1	4	-1E+10	1	-1E+10	1	-1E+10	1	-1E+10	1	-1E+10	1	-1E+10	1
4901784	203	C	01/24/2021	10:47	-134.511	43.535	0	275.10	0	7.3850	0	36.7900	8	28.778	0	272.722	0	154.5	4	53.8	4	-1E+10	1	-1E+10	1	-1E+10	1	-1E+10	1	-1E+10	1	-1E+10	1
4901784	203	C	01/24/2021	10:47	-134.511	43.535	0	277.80	0	7.3130	0	36.8070	8	28.802	0	275.397	0	154.2	4	53.6	4	-1E+10	1	-1E+10	1	-1E+10	1	-1E+10	1	-1E+10	1	-1E+10	1
4901784	203	C	01/24/2021	10:47	-134.511	43.535	0	279.70	0	7.3070	0	36.8070	8	28.803	0	277.279	0	154.0	4	53.5	4	-1E+10	1	-1E+10	1	-1E+10	1	-1E+10	1	-1E+10	1	-1E+10	1
4901784	203	C	01/24/2021	10:47	-134.511	43.535	0	282.40	0	7.2870	0	36.8000	8	28.800	0	279.954	0	153.4	4	53.3	4	-1E+10	1	-1E+10	1	-1E+10	1	-1E+10	1	-1E+10	1	-1E+10	1
4901784	203	C	01/24/2021	10:47	-134.511	43.535	0	285.00	0	7.2430	0	36.7830	8	28.793	0	282.530	0	153.3	4	53.2	4	-1E+10	1	-1E+10	1	-1E+10	1	-1E+10	1	-1E+10	1	-1E+10	1
4901784	203	C	01/24/2021	10:47	-134.511	43.535	0	287.80	0	7.2130	0	36.7860	8	28.800	0	285.304	0	152.8	4	53.0	4	-1E+10	1	-1E+10	1	-1E+10	1	-1E+10	1	-1E+10	1	-1E+10	1
4901784	203	C	01/24/2021	10:47	-134.511	43.535	0	290.50	0	7.1610	0	36.7870	8	28.809	0	287.978	0	151.8	4	52.6	4	-1E+10	1	-1E+10	1	-1E+10	1	-1E+10	1	-1E+10	1	-1E+10	1
4901784	203	C	01/24/2021	10:47	-134.511	43.535	0	292.30	0	7.1360	0	36.7680	8	28.797	0	289.761	0	151.3	4	52.4	4	-1E+10	1	-1E+10	1	-1E+10	1	-1E+10	1	-1E+10	1	-1E+10	1
4901784	203	C	01/24/2021	10:47	-134.511	43.535	0	295.10	0	7.1170	0	36.7560	8	28.791	0	292.535	0	150.0	4	51.9	4	-1E+10	1	-1E+10	1	-1E+10	1	-1E+10	1	-1E+10	1	-1E+10	1
4901784	203	C	01/24/2021	10:47	-134.511	43.535	0	297.90	0	7.0310	0	36.7630	8	28.809	0	295.309	0	148.5	4	51.3	4	-1E+10	1	-1E+10	1	-1E+10	1	-1E+10	1	-1E+10	1	-1E+10	1
4901784	203	C	01/24/2021	10:47	-134.511	43.535	0	299.80	0	6.9900	0	36.7560	8	28.809	0	297.191	0	147.6	4	50.9	4	-1E+10	1	-1E+10	1	-1E+10	1	-1E+10	1	-1E+10	1	-1E+10	1
4901784	203	C	01/24/2021	10:47	-134.511	43.535	0	302.70	0	6.9290	0	36.7510	8	28.814	0	300.064	0	146.1	4	50.4	4	-1E+10	1	-1E+10	1	-1E+10	1	-1E+10	1	-1E+10	1	-1E+10	1
4901784	203	C	01/24/2021	10:47	-134.511	43.535	0	305.50	0	6.8570	0	36.7440	8	28.818	0	302.837	0	144.7	4	49.8	4	-1E+10	1	-1E+10	1	-1E+10	1	-1E+10	1	-1E+10	1	-1E+10	1
4901784	203	C	01/24/2021	10:47	-134.511	43.535	0	307.30	0	6.8290	0	36.7390	8	28.818	0	304.620	0	143.8	4	49.4	4	-1E+10	1	-1E+10	1	-1E+10	1	-1E+10	1	-1E+10	1	-1E+10	1
4901784	203	C	01/24/2021	10:47	-134.511	43.535	0	310.10	0	6.8060	0	36.7370	8	28.820	0	307.394	0	142.6	4	49.0	4	-1E+10	1	-1E+10	1	-1E+10	1	-1E+10	1	-1E+10	1	-1E+10	1
4901784	203	C	01/24/2021	10:47	-134.511	43.535	0	312.90	0	6.7720	0	36.7390	8	28.827	0	310.167	0	141.0	4	48.4	4	-1E+10	1	-1E+10	1	-1E+10	1	-1E+10	1	-1E+10	1	-1E+10	1
4901784	203	C	01/24/2021	10:47	-134.511	43.535	0	314.80	0	6.7430	0	36.7380	8	28.830	0	312.049	0	140.1	4	48.1	4	-1E+10	1	-1E+10	1	-1E+10	1	-1E+10	1	-1E+10	1	-1E+10	1
4901784	203	C	01/24/2021	10:47	-134.511	43.535	0	317.50	0	6.7030	0	36.7280	8	28.828	0	314.723	0	138.9	4	47.6	4	-1E+10	1	-1E+10	1	-1E+10	1	-1E+10	1	-1E+10	1	-1E+10	1
4901784	203	C	01/24/2021	10:47	-134.511	43.535	0	320.40	0	6.6620	0	36.7190	8	28.826	0	317.596	0	137.6	4	47.1	4	-1E+10	1	-1E+10	1	-1E+10	1	-1E+10	1	-1E+10	1	-1E+10	1
4901784	203	C	01/24/2021	10:47	-134.511	43.535	0	322.20	0	6.6550	0	36.7140	8	28.823	0	319.379	0	136.7	4	46.8	4	-1E+10	1	-1E+10	1	-1E+10	1	-1E+10	1	-1E+10	1	-1E+10	1
4901784	203	C	01/24/2021	10:47	-134.511	43.535	0	325.00	0	6.5920	0	36.7100	8	28.829	0	322.152	0	135.1	4	46.2	4	-1E+10	1	-1E+10	1	-1E+10	1	-1E+10	1	-1E+10	1	-1E+10	1
4901784	203	C	01/24/2021	10:47	-134.511	43.535	0	327.70	0	6.5590	0	36.7120	8	28.835	0	324.826	0	134.1	4	45.8	4	-1E+10	1	-1E+10	1	-1E+10	1	-1E+10	1	-1E+10	1	-1E+10	1
4901784	203	C	01/24/2021	10:47	-134.511	43.535	0	330.10	0	6.5360	0	36.7170	8	28.842	0	327.203	0	133.4	4	45.6	4	-1E+10	1	-1E+10	1	-1E+10	1	-1E+10	1	-1E+10	1	-1E+10	1
4901784	203	C	01/24/2021	10:47	-134.511	43.535	0	332.70	0	6.5110	0	36.7120	8	28.842	0	329.778	0	132.8	4	45.3	4	-1E+10	1	-1E+10	1	-1E+10	1	-1E+10	1	-1E+10	1	-1E+10	1
4901784	203	C	01/24/2021	10:47	-134.511	43.535	0	335.00	0	6.4790	0	36.7040	8	28.840	0	332.056	0	132.5	4	45.2	4	-1E+10	1	-1E+10	1	-1E+10	1	-1E+10	1	-1E+10	1	-1E+10	1
4901784	203	C	01/24/2021	10:47	-134.511	43.535	0	337.30	0	6.4630	0	36.7010	8	28.840	0	334.334	0	131.9	4	45.0	4	-1E+10	1	-1E+10	1	-1E+10	1	-1E+10	1	-1E+10	1	-1E+10	1
4901784	203	C	01/24/2021	10:47	-134.511	43.535	0	340.30	0	6.4450	0	36.6960	8	28.838	0	337.306	0	131.0	4	44.6	4	-1E+10	1	-1E+10	1	-1E+10	1	-1E+10	1	-1E+10	1	-1E+10	1
4901784	203	C	01/24/2021	10:47	-134.511	43.535	0	342.60	0	6.4340	0	36.6910	8	28.836	0	339.583	0	130.2	4	44.4	4	-1E+10	1	-1E+10	1	-1E+10	1	-1E+10	1	-1E+10	1	-1E+10	1
4901784	203	C	01/24/2021	10:47	-134.511	43.535	0	345.00	0	6.4210	0	36.6900	8	28.837	0	341.960	0	129.0	4	43.9	4	-1E+10	1	-1E+10	1	-1E+10	1	-1E+10	1	-1E+10	1	-1E+10	1
4901784	203	C	01/24/2021	10:47	-134.511	43.535	0	347.50	0	6.4100	0	36.6850	8	28.834	0	344.436	0	127.3	4	43.4	4	-1E+10	1	-1E+10	1	-1E+10	1	-1E+10	1	-1E+10	1	-1E+10	1
4901784	203	C	01/24/2021	10:47	-134.511	43.535	0	349.90	0	6.3430	0	36.6900	8	28.848	0	346.813	0	125.7	4	42.7	4	-1E+10	1	-1E+10	1	-1E+10	1	-1E+10	1	-1E+10	1	-1E+10	1
4901784	203	C	01/24/2021	10:47	-134.511	43.535	0	352.40	0	6.2770	0	36.6930	8	28.859	0	349.289	0	124.4	4	42.2	4	-1E+10	1	-1E+10	1	-1E+10	1	-1E+10	1	-1E+10	1	-1E+10	1
4901784	203	C	01/24/2021	10:47	-134.511	43.535	0	354.80	0	6.2660	0	36.6900	8	28.858	0	351.666	0	122.7	4	41.6	4	-1E+10	1	-1E+10	1	-1E+10	1	-1E+10	1	-1E+10	1	-1E+10	1
4901784	203	C	01/24/2021	10:47	-134.511	43.535	0	357.20	0	6.2230	0	36.6940	8	28.867	0	354.042	0	120.6	4	40.9	4	-1E+10	1	-1E+10	1	-1E+10	1	-1E+10	1	-1E+10	1	-1E+10	1
4901784	203	C	01/24/2021	10:47	-134.511	43.535	0	359.70	0	6.1710	0	36.6890	8	28.870	0	356.518	0	118.9	4	40.2	4	-1E+10	1	-1E+10	1	-1E+10	1	-1E+10	1	-1E+10	1	-1E+10	1
4901784	203	C	01/24/2021	10:47	-134.511	43.535	0	362.30	0	6.1050	0	36.6940	8	28.883	0	359.093	0	117.1	4	39.6	4	-1E+10	1	-1E+10	1	-1E+10	1	-1E+10	1	-1E+10	1	-1E+10	1
4901784	203	C	01/24/2021	10:47	-134.511	43.535	0	364.80	0	6.0610	0	36.6900	8	28.886	0	361.569	0	115.7	4	39.1	4	-1E+10	1	-1E+10	1	-1E+10	1	-1E+10	1	-1E+10	1	-1E+10	1
4901784	203	C	01/24/2021	10:47	-134.511	43.535	0	367.30	0	6.0000	0	36.6910	8	28.894	0	364.044	0	114.1	4	38.5	4	-1E+10	1	-1E+10	1	-1E+10	1	-1E+10	1	-1E+10	1	-1E+10	1
4901784	203	C	01/24/2021	10:47	-134.511	43.535	0	370.00	0	5.9660	0	36.6910	8	28.899	0	366.718	0	113.0	4	38.1	4	-1E+10	1	-1E+10	1	-1E+10	1	-1E+10	1	-1E+10	1	-1E+10	1
4901784	203	C	01/24/2021	10:47	-134.511	43.535	0	372.50	0	5.9350	0	36.6920	8	28.904	0	369.194	0	112.3	4	37.8	4	-1E+10	1	-1E+10	1	-1E+10	1	-1E+10	1	-1E+10	1	-1E+10	1
4901784	203	C	01/24/2021	10:47	-134.511	43.535	0	375.00	0	5.9200	0	36.6920	8	28.906	0	371.669	0	111.5	4	37.5	4	-1E+10	1	-1E+10	1	-1E+10	1	-1E+10	1	-1E+10	1	-1E+10	1
4901784	203	C	01/24/2021	10:47	-134.511	43.535	0	377.60	0	5.9040	0	36.6900	8	28.906	0	374.244	0	110.5	4	37.2	4	-1E+10	1	-1E+10	1	-1E+10	1	-1E+10	1	-1E+10	1	-1E+10	1
4901784	203	C	01/24/2021	10:47	-134.511	43.535	0	380.30	0	5.8900	0	36.6890	8	28.907	0	376.917	0	109.0	4	36.7	4	-1E+10	1	-1E+10	1	-1E+10	1	-1E+10	1	-1E+10	1	-1E+10	1
4901784	203	C	01/24/2021	10:47	-134.511	43.535	0	382.90	0	5.8770	0	36.6880	8	28.908	0	379.492	0	107.0	4	36.0	4	-1E+10	1	-1E+10	1	-1E+10	1	-1E+10	1	-1E+10	1	-1E+10	1
4901784	203	C	01/24/2021	10:47	-134.511	43.535	0	384.60	0	5.8380	0	36.6900	8	28.915	0	381.175	0	105.7	4	35.5	4	-1E+10	1	-1E+10	1	-1E+10	1	-1E+10	1	-1E+10	1	-1E+10	1
4901784	203	C	01/24/2021	10:47	-134.511	43.535	0	387.20	0	5.8080	0	36.6910	8	28.920	0	383.749	0	104.2	4	35.0	4	-1E+10	1	-1E+10	1	-1E+10	1	-1E+10	1	-1E+10	1	-1E+10	1
4901784	203	C	01/24/2021	10:47	-134.511	43.535	0	389.80	0	5.7720	0	36.6920	8	28.925	0	386.324	0	102.8	4	34.5	4	-1E+10	1	-1E+10	1	-1E+10	1	-1E+10	1	-1E+10	1	-1E+10	1
4901784	203	C	01/24/2021	10:47	-134.511	43.535	0	392.40	0	5.7240	0	36.6950	8	28.934	0	388.898	0	101.6	4	34.0	4	-1E+10	1	-1E+10	1	-1E+10	1	-1E+10	1	-1E+10	1	-1E+10	1
4901784	203	C	01/24/2021	10:47	-134.511	43.535	0	395.00	0	5.7050	0	36.6930	8	28.935	0	391.473	0	100.4	4	33.6	4	-1E+10	1	-1E+10	1	-1E+10	1	-1E+10	1	-1E+10	1	-1E+10	1
4901784	203	C	01/24/2021	10:47	-134.511	43.535	0	397.70	0	5.6480	0	36.6990	8	28.947	0	394.146	0	99.1	4	33.2	4	-1E+10	1	-1E+10	1	-1E+10	1	-1E+10	1	-1E+10	1	-1E+10	1
4901784	203	C	01/24/2021	10:47	-134.511	43.535	0	400.30	0	5.6080	0	36.7010	8	28.954	0	396.720	0	98.1	4	32.8	4	-1E+10	1	-1E+10	1	-1E+10	1	-1E+10	1	-1E+10	1	-1E+10	1
4901784	203	C	01/24/2021	10:47	-134.511	43.535	0	402.00	0	5.5850	0	36.7020	8	28.957	0	398.403	0	97.5	4	32.6	4	-1E+10	1	-1E+10	1	-1E+10	1	-1E+10	1	-1E+10	1	-1E+10	1
4901784	203	C	01/24/2021	10:47	-134.511	43.535	0	404.70	0	5.5680	0	36.7030	8	28.960	0	401.077	0	97.0	4	32.4	4	-1E+10	1	-1E+10	1	-1E+10	1	-1E+10	1	-1E+10	1	-1E+10	1
4901784	203	C	01/24/2021	10:47	-134.511	43.535	0	407.40	0	5.5630	0	36.7030	8	28.961	0	403.750	0	96.5	4	32.2	4	-1E+10	1	-1E+10	1	-1E+10	1	-1E+10	1	-1E+10	1	-1E+10	1
4901784	203	C	01/24/2021	10:47	-134.511	43.535	0	410.00	0	5.5600	0	36.7010	8	28.960	0	406.324	0	95.7	4	31.9	4	-1E+10	1	-1E+10	1	-1E+10	1	-1E+10	1	-1E+10	1	-1E+10	1
4901784	203	C	01/24/2021	10:47	-134.511	43.535	0	412.70	0	5.5040	0	36.7050	8	28.970	0	408.997	0	94.5	4	31.5	4	-1E+10	1	-1E+10	1	-1E+10	1	-1E+10	1	-1E+10	1	-1E+10	1
4901784	203	C	01/24/2021	10:47	-134.511	43.535	0	415.40	0	5.4820	0	36.7050	8	28.973	0	411.670	0	93.7	4	31.2	4	-1E+10	1	-1E+10	1	-1E+10	1	-1E+10	1	-1E+10	1	-1E+10	1
4901784	203	C	01/24/2021	10:47	-134.511	43.535	0	418.10	0	5.4550	0	36.7090	8	28.979	0	414.343	0	92.5	4	30.8	4	-1E+10	1	-1E+10	1	-1E+10	1	-1E+10	1	-1E+10	1	-1E+10	1
4901784	203	C	01/24/2021	10:47	-134.511	43.535	0	419.80	0	5.4330	0	36.7080	8	28.981	0	416.026	0	91.8	4	30.6	4	-1E+10	1	-1E+10	1	-1E+10	1	-1E+10	1	-1E+10	1	-1E+10	1
4901784	203	C	01/24/2021	10:47	-134.511	43.535	0	422.50	0	5.3980	0	36.7110	8	28.988	0	418.699	0	90.8	4	30.2	4	-1E+10	1	-1E+10	1	-1E+10	1	-1E+10	1	-1E+10	1	-1E+10	1
4901784	203	C	01/24/2021	10:47	-134.511	43.535	0	425.20	0	5.3870	0	36.7100	8	28.989	0	421.372	0	89.9	4	29.9	4	-1E+10	1	-1E+10	1	-1E+10	1	-1E+10	1	-1E+10	1	-1E+10	1
4901784	203	C	01/24/2021	10:47	-134.511	43.535	0	427.70	0	5.3470	0	36.7150	8	28.998	0	423.847	0	88.8	4	29.5	4	-1E+10	1	-1E+10	1	-1E+10	1	-1E+10	1	-1E+10	1	-1E+10	1
4901784	203	C	01/24/2021	10:47	-134.511	43.535	0	430.30	0	5.3270	0	36.7160	8	29.001	0	426.421	0	88.0	4	29.2	4	-1E+10	1	-1E+10	1	-1E+10	1	-1E+10	1	-1E+10	1	-1E+10	1
4901784	203	C	01/24/2021	10:47	-134.511	43.535	0	432.10	0	5.3200	0	36.7140	8	29.000	0	428.203	0	87.4	4	29.0	4	-1E+10	1	-1E+10	1	-1E+10	1	-1E+10	1	-1E+10	1	-1E+10	1
4901784	203	C	01/24/2021	10:47	-134.511	43.535	0	434.80	0	5.2990	0	36.7140	8	29.003	0	430.876	0	86.3	4	28.6	4	-1E+10	1	-1E+10	1	-1E+10	1	-1E+10	1	-1E+10	1	-1E+10	1
4901784	203	C	01/24/2021	10:47	-134.511	43.535	0	437.40	0	5.2340	0	36.7210	8	29.017	0	433.450	0	85.3	4	28.3	4	-1E+10	1	-1E+10	1	-1E+10	1	-1E+10	1	-1E+10	1	-1E+10	1
4901784	203	C	01/24/2021	10:47	-134.511	43.535	0	440.10	0	5.2310	0	36.7190	8	29.015	0	436.122	0	84.5	4	28.0	4	-1E+10	1	-1E+10	1	-1E+10	1	-1E+10	1	-1E+10	1	-1E+10	1
4901784	203	C	01/24/2021	10:47	-134.511	43.535	0	442.80	0	5.1990	0	36.7220	8	29.022	0	438.795	0	83.5	4	27.7	4	-1E+10	1	-1E+10	1	-1E+10	1	-1E+10	1	-1E+10	1	-1E+10	1
4901784	203	C	01/24/2021	10:47	-134.511	43.535	0	444.50	0	5.1880	0	36.7230	8	29.024	0	440.478	0	83.0	4	27.5	4	-1E+10	1	-1E+10	1	-1E+10	1	-1E+10	1	-1E+10	1	-1E+10	1
4901784	203	C	01/24/2021	10:47	-134.511	43.535	0	447.20	0	5.1650	0	36.7250	8	29.028	0	443.151	0	82.1	4	27.2	4	-1E+10	1	-1E+10	1	-1E+10	1	-1E+10	1	-1E+10	1	-1E+10	1
4901784	203	C	01/24/2021	10:47	-134.511	43.535	0	449.90	0	5.1430	0	36.7270	8	29.033	0	445.823	0	81.4	4	26.9	4	-1E+10	1	-1E+10	1	-1E+10	1	-1E+10	1	-1E+10	1	-1E+10	1
4901784	203	C	01/24/2021	10:47	-134.511	43.535	0	452.60	0	5.1290	0	36.7270	8	29.034	0	448.496	0	80.6	4	26.7	4	-1E+10	1	-1E+10	1	-1E+10	1	-1E+10	1	-1E+10	1	-1E+10	1
4901784	203	C	01/24/2021	10:47	-134.511	43.535	0	455.30	0	5.1070	0	36.7270	8	29.037	0	451.169	0	79.8	4	26.4	4	-1E+10	1	-1E+10	1	-1E+10	1	-1E+10	1	-1E+10	1	-1E+10	1
4901784	203	C	01/24/2021	10:47	-134.511	43.535	0	457.10	0	5.0860	0	36.7290	8	29.041	0	452.950	0	79.2	4	26.1	4	-1E+10	1	-1E+10	1	-1E+10	1	-1E+10	1	-1E+10	1	-1E+10	1
4901784	203	C	01/24/2021	10:47	-134.511	43.535	0	459.80	0	5.0490	0	36.7320	8	29.048	0	455.623	0	78.3	4	25.8	4	-1E+10	1	-1E+10	1	-1E+10	1	-1E+10	1	-1E+10	1	-1E+10	1
4901784	203	C	01/24/2021	10:47	-134.511	43.535	0	462.50	0	5.0240	0	36.7350	8	29.054	0	458.295	0	77.7	4	25.6	4	-1E+10	1	-1E+10	1	-1E+10	1	-1E+10	1	-1E+10	1	-1E+10	1
4901784	203	C	01/24/2021	10:47	-134.511	43.535	0	465.10	0	5.0060	0	36.7360	8	29.057	0	460.869	0	77.0	4	25.4	4	-1E+10	1	-1E+10	1	-1E+10	1	-1E+10	1	-1E+10	1	-1E+10	1
4901784	203	C	01/24/2021	10:47	-134.511	43.535	0	467.80	0	4.9820	0	36.7380	8	29.061	0	463.541	0	76.6	4	25.2	4	-1E+10	1	-1E+10	1	-1E+10	1	-1E+10	1	-1E+10	1	-1E+10	1
4901784	203	C	01/24/2021	10:47	-134.511	43.535	0	469.50	0	4.9720	0	36.7380	8	29.062	0	465.224	0	76.2	4	25.1	4	-1E+10	1	-1E+10	1	-1E+10	1	-1E+10	1	-1E+10	1	-1E+10	1
4901784	203	C	01/24/2021	10:47	-134.511	43.535	0	472.20	0	4.9440	0	36.7420	8	29.069	0	467.896	0	75.5	4	24.9	4	-1E+10	1	-1E+10	1	-1E+10	1	-1E+10	1	-1E+10	1	-1E+10	1
4901784	203	C	01/24/2021	10:47	-134.511	43.535	0	474.90	0	4.9290	0	36.7430	8	29.072	0	470.569	0	74.9	4	24.6	4	-1E+10	1	-1E+10	1	-1E+10	1	-1E+10	1	-1E+10	1	-1E+10	1
4901784	203	C	01/24/2021	10:47	-134.511	43.535	0	477.60	0	4.9060	0	36.7460	8	29.077	0	473.241	0	74.2	4	24.4	4	-1E+10	1	-1E+10	1	-1E+10	1	-1E+10	1	-1E+10	1	-1E+10	1
4901784	203	C	01/24/2021	10:47	-134.511	43.535	0	480.30	0	4.9000	0	36.7460	8	29.077	0	475.913	0	73.6	4	24.2	4	-1E+10	1	-1E+10	1	-1E+10	1	-1E+10	1	-1E+10	1	-1E+10	1
4901784	203	C	01/24/2021	10:47	-134.511	43.535	0	482.10	0	4.8960	0	36.7460	8	29.078	0	477.695	0	73.0	4	24.0	4	-1E+10	1	-1E+10	1	-1E+10	1	-1E+10	1	-1E+10	1	-1E+10	1
4901784	203	C	01/24/2021	10:47	-134.511	43.535	0	484.80	0	4.8710	0	36.7490	8	29.083	0	480.367	0	71.8	4	23.6	4	-1E+10	1	-1E+10	1	-1E+10	1	-1E+10	1	-1E+10	1	-1E+10	1
4901784	203	C	01/24/2021	10:47	-134.511	43.535	0	487.40	0	4.8370	0	36.7520	8	29.090	0	482.940	0	70.5	4	23.2	4	-1E+10	1	-1E+10	1	-1E+10	1	-1E+10	1	-1E+10	1	-1E+10	1
4901784	203	C	01/24/2021	10:47	-134.511	43.535	0	490.10	0	4.8210	0	36.7540	8	29.093	0	485.612	0	69.3	4	22.7	4	-1E+10	1	-1E+10	1	-1E+10	1	-1E+10	1	-1E+10	1	-1E+10	1
4901784	203	C	01/24/2021	10:47	-134.511	43.535	0	492.80	0	4.7940	0	36.7570	8	29.099	0	488.284	0	68.1	4	22.3	4	-1E+10	1	-1E+10	1	-1E+10	1	-1E+10	1	-1E+10	1	-1E+10	1
4901784	203	C	01/24/2021	10:47	-134.511	43.535	0	494.60	0	4.7860	0	36.7580	8	29.101	0	490.066	0	67.3	4	22.1	4	-1E+10	1	-1E+10	1	-1E+10	1	-1E+10	1	-1E+10	1	-1E+10	1
4901784	203	C	01/24/2021	10:47	-134.511	43.535	0	497.30	0	4.7480	0	36.7650	8	29.111	0	492.738	0	66.2	4	21.7	4	-1E+10	1	-1E+10	1	-1E+10	1	-1E+10	1	-1E+10	1	-1E+10	1
4901784	203	C	01/24/2021	10:47	-134.511	43.535	0	500.00	0	4.7390	0	36.7660	8	29.113	0	495.410	0	65.1	4	21.3	4	-1E+10	1	-1E+10	1	-1E+10	1	-1E+10	1	-1E+10	1	-1E+10	1
4901784	203	C	01/24/2021	10:47	-134.511	43.535	0	505.50	0	4.7000	0	36.7720	8	29.122	0	500.853	0	62.1	4	20.3	4	-1E+10	1	-1E+10	1	-1E+10	1	-1E+10	1	-1E+10	1	-1E+10	1
4901784	203	C	01/24/2021	10:47	-134.511	43.535	0	510.00	0	4.6660	0	36.7800	8	29.132	0	505.306	0	59.5	4	19.5	4	-1E+10	1	-1E+10	1	-1E+10	1	-1E+10	1	-1E+10	1	-1E+10	1
4901784	203	C	01/24/2021	10:47	-134.511	43.535	0	514.50	0	4.6350	0	36.7870	8	29.142	0	509.759	0	57.7	4	18.9	4	-1E+10	1	-1E+10	1	-1E+10	1	-1E+10	1	-1E+10	1	-1E+10	1
4901784	203	C	01/24/2021	10:47	-134.511	43.535	0	519.90	0	4.5980	0	36.7960	8	29.153	0	515.102	0	55.8	4	18.2	4	-1E+10	1	-1E+10	1	-1E+10	1	-1E+10	1	-1E+10	1	-1E+10	1
4901784	203	C	01/24/2021	10:47	-134.511	43.535	0	525.30	0	4.5780	0	36.8020	8	29.160	0	520.446	0	54.4	4	17.8	4	-1E+10	1	-1E+10	1	-1E+10	1	-1E+10	1	-1E+10	1	-1E+10	1
4901784	203	C	01/24/2021	10:47	-134.511	43.535	0	529.90	0	4.5660	0	36.8070	8	29.166	0	524.997	0	53.1	4	17.3	4	-1E+10	1	-1E+10	1	-1E+10	1	-1E+10	1	-1E+10	1	-1E+10	1
4901784	203	C	01/24/2021	10:47	-134.511	43.535	0	534.50	0	4.5540	0	36.8100	8	29.169	0	529.549	0	51.4	4	16.8	4	-1E+10	1	-1E+10	1	-1E+10	1	-1E+10	1	-1E+10	1	-1E+10	1
4901784	203	C	01/24/2021	10:47	-134.511	43.535	0	539.90	0	4.5360	0	36.8180	8	29.178	0	534.892	0	49.3	4	16.1	4	-1E+10	1	-1E+10	1	-1E+10	1	-1E+10	1	-1E+10	1	-1E+10	1
4901784	203	C	01/24/2021	10:47	-134.511	43.535	0	545.50	0	4.5190	0	36.8240	8	29.185	0	540.433	0	47.1	4	15.4	4	-1E+10	1	-1E+10	1	-1E+10	1	-1E+10	1	-1E+10	1	-1E+10	1
4901784	203	C	01/24/2021	10:47	-134.511	43.535	0	550.10	0	4.4900	0	36.8310	8	29.194	0	544.984	0	45.6	4	14.8	4	-1E+10	1	-1E+10	1	-1E+10	1	-1E+10	1	-1E+10	1	-1E+10	1
4901784	203	C	01/24/2021	10:47	-134.511	43.535	0	554.80	0	4.4780	0	36.8380	8	29.201	0	549.634	0	44.0	4	14.3	4	-1E+10	1	-1E+10	1	-1E+10	1	-1E+10	1	-1E+10	1	-1E+10	1
4901784	203	C	01/24/2021	10:47	-134.511	43.535	0	559.50	0	4.4640	0	36.8430	8	29.206	0	554.284	0	42.2	4	13.8	4	-1E+10	1	-1E+10	1	-1E+10	1	-1E+10	1	-1E+10	1	-1E+10	1
4901784	203	C	01/24/2021	10:47	-134.511	43.535	0	564.20	0	4.4460	0	36.8530	8	29.216	0	558.934	0	40.9	4	13.3	4	-1E+10	1	-1E+10	1	-1E+10	1	-1E+10	1	-1E+10	1	-1E+10	1
4901784	203	C	01/24/2021	10:47	-134.511	43.535	0	569.50	0	4.4340	0	36.8580	8	29.222	0	564.177	0	39.5	4	12.9	4	-1E+10	1	-1E+10	1	-1E+10	1	-1E+10	1	-1E+10	1	-1E+10	1
4901784	203	C	01/24/2021	10:47	-134.511	43.535	0	574.40	0	4.4150	0	36.8630	8	29.228	0	569.025	0	38.3	4	12.5	4	-1E+10	1	-1E+10	1	-1E+10	1	-1E+10	1	-1E+10	1	-1E+10	1
4901784	203	C	01/24/2021	10:47	-134.511	43.535	0	580.00	0	4.3980	0	36.8710	8	29.236	0	574.565	0	36.8	4	12.0	4	-1E+10	1	-1E+10	1	-1E+10	1	-1E+10	1	-1E+10	1	-1E+10	1
4901784	203	C	01/24/2021	10:47	-134.511	43.535	0	585.80	0	4.3790	0	36.8770	8	29.243	0	580.302	0	35.8	4	11.6	4	-1E+10	1	-1E+10	1	-1E+10	1	-1E+10	1	-1E+10	1	-1E+10	1
4901784	203	C	01/24/2021	10:47	-134.511	43.535	0	590.00	0	4.3730	0	36.8800	8	29.246	0	584.457	0	35.1	4	11.4	4	-1E+10	1	-1E+10	1	-1E+10	1	-1E+10	1	-1E+10	1	-1E+10	1
4901784	203	C	01/24/2021	10:47	-134.511	43.535	0	594.30	0	4.3670	0	36.8830	8	29.249	0	588.711	0	34.2	4	11.1	4	-1E+10	1	-1E+10	1	-1E+10	1	-1E+10	1	-1E+10	1	-1E+10	1
4901784	203	C	01/24/2021	10:47	-134.511	43.535	0	599.60	0	4.3530	0	36.8890	8	29.256	0	593.953	0	32.7	4	10.6	4	-1E+10	1	-1E+10	1	-1E+10	1	-1E+10	1	-1E+10	1	-1E+10	1
4901784	203	C	01/24/2021	10:47	-134.511	43.535	0	604.90	0	4.3370	0	36.8980	8	29.265	0	599.196	0	31.1	4	10.1	4	-1E+10	1	-1E+10	1	-1E+10	1	-1E+10	1	-1E+10	1	-1E+10	1
4901784	203	C	01/24/2021	10:47	-134.511	43.535	0	610.20	0	4.3260	0	36.9060	8	29.272	0	604.438	0	29.7	4	9.7	4	-1E+10	1	-1E+10	1	-1E+10	1	-1E+10	1	-1E+10	1	-1E+10	1
4901784	203	C	01/24/2021	10:47	-134.511	43.535	0	615.50	0	4.3180	0	36.9130	8	29.279	0	609.680	0	28.7	4	9.3	4	-1E+10	1	-1E+10	1	-1E+10	1	-1E+10	1	-1E+10	1	-1E+10	1
4901784	203	C	01/24/2021	10:47	-134.511	43.535	0	620.10	0	4.3090	0	36.9190	8	29.285	0	614.230	0	28.0	4	9.1	4	-1E+10	1	-1E+10	1	-1E+10	1	-1E+10	1	-1E+10	1	-1E+10	1
4901784	203	C	01/24/2021	10:47	-134.511	43.535	0	624.60	0	4.2970	0	36.9230	8	29.289	0	618.681	0	27.5	4	8.9	4	-1E+10	1	-1E+10	1	-1E+10	1	-1E+10	1	-1E+10	1	-1E+10	1
4901784	203	C	01/24/2021	10:47	-134.511	43.535	0	630.10	0	4.2790	0	36.9280	8	29.295	0	624.120	0	26.8	4	8.7	4	-1E+10	1	-1E+10	1	-1E+10	1	-1E+10	1	-1E+10	1	-1E+10	1
4901784	203	C	01/24/2021	10:47	-134.511	43.535	0	635.40	0	4.2630	0	36.9330	8	29.301	0	629.362	0	26.3	4	8.5	4	-1E+10	1	-1E+10	1	-1E+10	1	-1E+10	1	-1E+10	1	-1E+10	1
4901784	203	C	01/24/2021	10:47	-134.511	43.535	0	639.70	0	4.2540	0	36.9360	8	29.305	0	633.614	0	25.7	4	8.3	4	-1E+10	1	-1E+10	1	-1E+10	1	-1E+10	1	-1E+10	1	-1E+10	1
4901784	203	C	01/24/2021	10:47	-134.511	43.535	0	645.10	0	4.2460	0	36.9430	8	29.311	0	638.955	0	24.9	4	8.1	4	-1E+10	1	-1E+10	1	-1E+10	1	-1E+10	1	-1E+10	1	-1E+10	1
4901784	203	C	01/24/2021	10:47	-134.511	43.535	0	650.60	0	4.2430	0	36.9460	8	29.314	0	644.394	0	24.1	4	7.8	4	-1E+10	1	-1E+10	1	-1E+10	1	-1E+10	1	-1E+10	1	-1E+10	1
4901784	203	C	01/24/2021	10:47	-134.511	43.535	0	655.40	0	4.2210	0	36.9530	8	29.322	0	649.141	0	23.3	4	7.5	4	-1E+10	1	-1E+10	1	-1E+10	1	-1E+10	1	-1E+10	1	-1E+10	1
4901784	203	C	01/24/2021	10:47	-134.511	43.535	0	660.20	0	4.2060	0	36.9610	8	29.330	0	653.887	0	22.6	4	7.3	4	-1E+10	1	-1E+10	1	-1E+10	1	-1E+10	1	-1E+10	1	-1E+10	1
4901784	203	C	01/24/2021	10:47	-134.511	43.535	0	665.20	0	4.2000	0	36.9630	8	29.333	0	658.832	0	22.0	4	7.1	4	-1E+10	1	-1E+10	1	-1E+10	1	-1E+10	1	-1E+10	1	-1E+10	1
4901784	203	C	01/24/2021	10:47	-134.511	43.535	0	670.10	0	4.1810	0	36.9700	8	29.340	0	663.677	0	21.0	4	6.8	4	-1E+10	1	-1E+10	1	-1E+10	1	-1E+10	1	-1E+10	1	-1E+10	1
4901784	203	C	01/24/2021	10:47	-134.511	43.535	0	675.00	0	4.1820	0	36.9780	8	29.347	0	668.522	0	19.9	4	6.5	4	-1E+10	1	-1E+10	1	-1E+10	1	-1E+10	1	-1E+10	1	-1E+10	1
4901784	203	C	01/24/2021	10:47	-134.511	43.535	0	680.00	0	4.1690	0	36.9860	8	29.354	0	673.466	0	19.0	4	6.2	4	-1E+10	1	-1E+10	1	-1E+10	1	-1E+10	1	-1E+10	1	-1E+10	1
4901784	203	C	01/24/2021	10:47	-134.511	43.535	0	684.90	0	4.1640	0	36.9950	8	29.362	0	678.311	0	17.9	4	5.8	4	-1E+10	1	-1E+10	1	-1E+10	1	-1E+10	1	-1E+10	1	-1E+10	1
4901784	203	C	01/24/2021	10:47	-134.511	43.535	0	689.90	0	4.1690	0	37.0060	8	29.370	0	683.255	0	16.9	4	5.5	4	-1E+10	1	-1E+10	1	-1E+10	1	-1E+10	1	-1E+10	1	-1E+10	1
4901784	203	C	01/24/2021	10:47	-134.511	43.535	0	695.00	0	4.1590	0	37.0150	8	29.379	0	688.297	0	16.1	4	5.2	4	-1E+10	1	-1E+10	1	-1E+10	1	-1E+10	1	-1E+10	1	-1E+10	1
4901784	203	C	01/24/2021	10:47	-134.511	43.535	0	700.30	0	4.1740	0	37.0270	8	29.387	0	693.537	0	15.3	4	4.9	4	-1E+10	1	-1E+10	1	-1E+10	1	-1E+10	1	-1E+10	1	-1E+10	1
4901784	203	C	01/24/2021	10:47	-134.511	43.535	0	705.50	0	4.1820	0	37.0310	8	29.389	0	698.678	0	15.0	4	4.8	4	-1E+10	1	-1E+10	1	-1E+10	1	-1E+10	1	-1E+10	1	-1E+10	1
4901784	203	C	01/24/2021	10:47	-134.511	43.535	0	709.90	0	4.1780	0	37.0350	8	29.393	0	703.028	0	14.6	4	4.7	4	-1E+10	1	-1E+10	1	-1E+10	1	-1E+10	1	-1E+10	1	-1E+10	1
4901784	203	C	01/24/2021	10:47	-134.511	43.535	0	714.30	0	4.1690	0	37.0410	8	29.399	0	707.378	0	14.3	4	4.6	4	-1E+10	1	-1E+10	1	-1E+10	1	-1E+10	1	-1E+10	1	-1E+10	1
4901784	203	C	01/24/2021	10:47	-134.511	43.535	0	719.50	0	4.1610	0	37.0460	8	29.403	0	712.519	0	14.0	4	4.5	4	-1E+10	1	-1E+10	1	-1E+10	1	-1E+10	1	-1E+10	1	-1E+10	1
4901784	203	C	01/24/2021	10:47	-134.511	43.535	0	724.80	0	4.1550	0	37.0500	8	29.407	0	717.758	0	13.7	4	4.4	4	-1E+10	1	-1E+10	1	-1E+10	1	-1E+10	1	-1E+10	1	-1E+10	1
4901784	203	C	01/24/2021	10:47	-134.511	43.535	0	730.20	0	4.1490	0	37.0540	8	29.411	0	723.097	0	13.4	4	4.3	4	-1E+10	1	-1E+10	1	-1E+10	1	-1E+10	1	-1E+10	1	-1E+10	1
4901784	203	C	01/24/2021	10:47	-134.511	43.535	0	735.50	0	4.1410	0	37.0590	8	29.416	0	728.336	0	13.1	4	4.2	4	-1E+10	1	-1E+10	1	-1E+10	1	-1E+10	1	-1E+10	1	-1E+10	1
4901784	203	C	01/24/2021	10:47	-134.511	43.535	0	740.00	0	4.1260	0	37.0670	8	29.424	0	732.784	0	12.8	4	4.1	4	-1E+10	1	-1E+10	1	-1E+10	1	-1E+10	1	-1E+10	1	-1E+10	1
4901784	203	C	01/24/2021	10:47	-134.511	43.535	0	744.50	0	4.1100	0	37.0730	8	29.431	0	737.232	0	12.7	4	4.1	4	-1E+10	1	-1E+10	1	-1E+10	1	-1E+10	1	-1E+10	1	-1E+10	1
4901784	203	C	01/24/2021	10:47	-134.511	43.535	0	749.90	0	4.1090	0	37.0750	8	29.433	0	742.570	0	12.6	4	4.1	4	-1E+10	1	-1E+10	1	-1E+10	1	-1E+10	1	-1E+10	1	-1E+10	1
4901784	203	C	01/24/2021	10:47	-134.511	43.535	0	755.40	0	4.1080	0	37.0740	8	29.432	0	748.006	0	12.5	4	4.1	4	-1E+10	1	-1E+10	1	-1E+10	1	-1E+10	1	-1E+10	1	-1E+10	1
4901784	203	C	01/24/2021	10:47	-134.511	43.535	0	759.90	0	4.1020	0	37.0770	8	29.435	0	752.454	0	12.3	4	4.0	4	-1E+10	1	-1E+10	1	-1E+10	1	-1E+10	1	-1E+10	1	-1E+10	1
4901784	203	C	01/24/2021	10:47	-134.511	43.535	0	764.40	0	4.0870	0	37.0830	8	29.442	0	756.902	0	12.1	4	3.9	4	-1E+10	1	-1E+10	1	-1E+10	1	-1E+10	1	-1E+10	1	-1E+10	1
4901784	203	C	01/24/2021	10:47	-134.511	43.535	0	769.90	0	4.0740	0	37.0880	8	29.447	0	762.338	0	11.9	4	3.9	4	-1E+10	1	-1E+10	1	-1E+10	1	-1E+10	1	-1E+10	1	-1E+10	1
4901784	203	C	01/24/2021	10:47	-134.511	43.535	0	775.40	0	4.0570	0	37.0940	8	29.454	0	767.774	0	11.8	4	3.8	4	-1E+10	1	-1E+10	1	-1E+10	1	-1E+10	1	-1E+10	1	-1E+10	1
4901784	203	C	01/24/2021	10:47	-134.511	43.535	0	780.00	0	4.0620	0	37.0950	8	29.454	0	772.320	0	11.7	4	3.8	4	-1E+10	1	-1E+10	1	-1E+10	1	-1E+10	1	-1E+10	1	-1E+10	1
4901784	203	C	01/24/2021	10:47	-134.511	43.535	0	784.60	0	4.0460	0	37.0990	8	29.459	0	776.866	0	11.6	4	3.7	4	-1E+10	1	-1E+10	1	-1E+10	1	-1E+10	1	-1E+10	1	-1E+10	1
4901784	203	C	01/24/2021	10:47	-134.511	43.535	0	790.10	0	4.0360	0	37.1040	8	29.464	0	782.302	0	11.4	4	3.7	4	-1E+10	1	-1E+10	1	-1E+10	1	-1E+10	1	-1E+10	1	-1E+10	1
4901784	203	C	01/24/2021	10:47	-134.511	43.535	0	794.80	0	4.0280	0	37.1070	8	29.467	0	786.946	0	11.3	4	3.7	4	-1E+10	1	-1E+10	1	-1E+10	1	-1E+10	1	-1E+10	1	-1E+10	1
4901784	203	C	01/24/2021	10:47	-134.511	43.535	0	799.40	0	4.0030	0	37.1090	8	29.472	0	791.492	0	11.3	4	3.6	4	-1E+10	1	-1E+10	1	-1E+10	1	-1E+10	1	-1E+10	1	-1E+10	1
4901784	203	C	01/24/2021	10:47	-134.511	43.535	0	805.00	0	3.9980	0	37.1120	8	29.475	0	797.026	0	11.2	4	3.6	4	-1E+10	1	-1E+10	1	-1E+10	1	-1E+10	1	-1E+10	1	-1E+10	1
4901784	203	C	01/24/2021	10:47	-134.511	43.535	0	810.60	0	3.9840	0	37.1170	8	29.480	0	802.560	0	11.0	4	3.6	4	-1E+10	1	-1E+10	1	-1E+10	1	-1E+10	1	-1E+10	1	-1E+10	1
4901784	203	C	01/24/2021	10:47	-134.511	43.535	0	815.30	0	3.9720	0	37.1200	8	29.484	0	807.204	0	11.0	4	3.5	4	-1E+10	1	-1E+10	1	-1E+10	1	-1E+10	1	-1E+10	1	-1E+10	1
4901784	203	C	01/24/2021	10:47	-134.511	43.535	0	819.90	0	3.9670	0	37.1230	8	29.487	0	811.750	0	10.9	4	3.5	4	-1E+10	1	-1E+10	1	-1E+10	1	-1E+10	1	-1E+10	1	-1E+10	1
4901784	203	C	01/24/2021	10:47	-134.511	43.535	0	824.60	0	3.9590	0	37.1250	8	29.490	0	816.394	0	10.8	4	3.5	4	-1E+10	1	-1E+10	1	-1E+10	1	-1E+10	1	-1E+10	1	-1E+10	1
4901784	203	C	01/24/2021	10:47	-134.511	43.535	0	829.40	0	3.9370	0	37.1280	8	29.494	0	821.137	0	10.8	4	3.5	4	-1E+10	1	-1E+10	1	-1E+10	1	-1E+10	1	-1E+10	1	-1E+10	1
4901784	203	C	01/24/2021	10:47	-134.511	43.535	0	835.00	0	3.9260	0	37.1310	8	29.498	0	826.670	0	10.7	4	3.4	4	-1E+10	1	-1E+10	1	-1E+10	1	-1E+10	1	-1E+10	1	-1E+10	1
4901784	203	C	01/24/2021	10:47	-134.511	43.535	0	839.70	0	3.9130	0	37.1360	8	29.503	0	831.314	0	10.6	4	3.4	4	-1E+10	1	-1E+10	1	-1E+10	1	-1E+10	1	-1E+10	1	-1E+10	1
4901784	203	C	01/24/2021	10:47	-134.511	43.535	0	844.50	0	3.9040	0	37.1390	8	29.507	0	836.056	0	10.6	4	3.4	4	-1E+10	1	-1E+10	1	-1E+10	1	-1E+10	1	-1E+10	1	-1E+10	1
4901784	203	C	01/24/2021	10:47	-134.511	43.535	0	850.20	0	3.8950	0	37.1410	8	29.509	0	841.688	0	10.5	4	3.4	4	-1E+10	1	-1E+10	1	-1E+10	1	-1E+10	1	-1E+10	1	-1E+10	1
4901784	203	C	01/24/2021	10:47	-134.511	43.535	0	854.80	0	3.8820	0	37.1440	8	29.513	0	846.232	0	10.4	4	3.4	4	-1E+10	1	-1E+10	1	-1E+10	1	-1E+10	1	-1E+10	1	-1E+10	1
4901784	203	C	01/24/2021	10:47	-134.511	43.535	0	859.60	0	3.8760	0	37.1470	8	29.516	0	850.974	0	10.4	4	3.4	4	-1E+10	1	-1E+10	1	-1E+10	1	-1E+10	1	-1E+10	1	-1E+10	1
4901784	203	C	01/24/2021	10:47	-134.511	43.535	0	865.20	0	3.8580	0	37.1510	8	29.522	0	856.507	0	10.3	4	3.3	4	-1E+10	1	-1E+10	1	-1E+10	1	-1E+10	1	-1E+10	1	-1E+10	1
4901784	203	C	01/24/2021	10:47	-134.511	43.535	0	869.90	0	3.8490	0	37.1530	8	29.524	0	861.150	0	10.3	4	3.3	4	-1E+10	1	-1E+10	1	-1E+10	1	-1E+10	1	-1E+10	1	-1E+10	1
4901784	203	C	01/24/2021	10:47	-134.511	43.535	0	874.60	0	3.8360	0	37.1560	8	29.528	0	865.793	0	10.2	4	3.3	4	-1E+10	1	-1E+10	1	-1E+10	1	-1E+10	1	-1E+10	1	-1E+10	1
4901784	203	C	01/24/2021	10:47	-134.511	43.535	0	880.20	0	3.8180	0	37.1610	8	29.534	0	871.325	0	10.2	4	3.3	4	-1E+10	1	-1E+10	1	-1E+10	1	-1E+10	1	-1E+10	1	-1E+10	1
4901784	203	C	01/24/2021	10:47	-134.511	43.535	0	884.90	0	3.7970	0	37.1670	8	29.541	0	875.967	0	10.1	4	3.3	4	-1E+10	1	-1E+10	1	-1E+10	1	-1E+10	1	-1E+10	1	-1E+10	1
4901784	203	C	01/24/2021	10:47	-134.511	43.535	0	889.60	0	3.7890	0	37.1700	8	29.544	0	880.610	0	10.1	4	3.2	4	-1E+10	1	-1E+10	1	-1E+10	1	-1E+10	1	-1E+10	1	-1E+10	1
4901784	203	C	01/24/2021	10:47	-134.511	43.535	0	895.20	0	3.7800	0	37.1730	8	29.548	0	886.142	0	10.1	4	3.2	4	-1E+10	1	-1E+10	1	-1E+10	1	-1E+10	1	-1E+10	1	-1E+10	1
4901784	203	C	01/24/2021	10:47	-134.511	43.535	0	899.90	0	3.7760	0	37.1760	8	29.551	0	890.784	0	10.0	4	3.2	4	-1E+10	1	-1E+10	1	-1E+10	1	-1E+10	1	-1E+10	1	-1E+10	1
4901784	203	C	01/24/2021	10:47	-134.511	43.535	0	904.60	0	3.7660	0	37.1790	8	29.554	0	895.426	0	10.0	4	3.2	4	-1E+10	1	-1E+10	1	-1E+10	1	-1E+10	1	-1E+10	1	-1E+10	1
4901784	203	C	01/24/2021	10:47	-134.511	43.535	0	910.10	0	3.7570	0	37.1810	8	29.557	0	900.859	0	10.0	4	3.2	4	-1E+10	1	-1E+10	1	-1E+10	1	-1E+10	1	-1E+10	1	-1E+10	1
4901784	203	C	01/24/2021	10:47	-134.511	43.535	0	915.60	0	3.7460	0	37.1860	8	29.562	0	906.291	0	10.0	4	3.2	4	-1E+10	1	-1E+10	1	-1E+10	1	-1E+10	1	-1E+10	1	-1E+10	1
4901784	203	C	01/24/2021	10:47	-134.511	43.535	0	920.20	0	3.7370	0	37.1880	8	29.564	0	910.834	0	10.0	4	3.2	4	-1E+10	1	-1E+10	1	-1E+10	1	-1E+10	1	-1E+10	1	-1E+10	1
4901784	203	C	01/24/2021	10:47	-134.511	43.535	0	924.80	0	3.7270	0	37.1910	8	29.568	0	915.377	0	10.0	4	3.2	4	-1E+10	1	-1E+10	1	-1E+10	1	-1E+10	1	-1E+10	1	-1E+10	1
4901784	203	C	01/24/2021	10:47	-134.511	43.535	0	930.30	0	3.7140	0	37.1970	8	29.574	0	920.809	0	9.9	4	3.2	4	-1E+10	1	-1E+10	1	-1E+10	1	-1E+10	1	-1E+10	1	-1E+10	1
4901784	203	C	01/24/2021	10:47	-134.511	43.535	0	934.80	0	3.7120	0	37.1980	8	29.575	0	925.253	0	9.9	4	3.2	4	-1E+10	1	-1E+10	1	-1E+10	1	-1E+10	1	-1E+10	1	-1E+10	1
4901784	203	C	01/24/2021	10:47	-134.511	43.535	0	939.40	0	3.7060	0	37.2000	8	29.578	0	929.796	0	9.9	4	3.2	4	-1E+10	1	-1E+10	1	-1E+10	1	-1E+10	1	-1E+10	1	-1E+10	1
4901784	203	C	01/24/2021	10:47	-134.511	43.535	0	944.90	0	3.6950	0	37.2050	8	29.583	0	935.228	0	9.9	4	3.2	4	-1E+10	1	-1E+10	1	-1E+10	1	-1E+10	1	-1E+10	1	-1E+10	1
4901784	203	C	01/24/2021	10:47	-134.511	43.535	0	950.40	0	3.6730	0	37.2090	8	29.588	0	940.659	0	10.0	4	3.2	4	-1E+10	1	-1E+10	1	-1E+10	1	-1E+10	1	-1E+10	1	-1E+10	1
4901784	203	C	01/24/2021	10:47	-134.511	43.535	0	955.00	0	3.6480	0	37.2160	8	29.597	0	945.202	0	10.0	4	3.2	4	-1E+10	1	-1E+10	1	-1E+10	1	-1E+10	1	-1E+10	1	-1E+10	1
4901784	203	C	01/24/2021	10:47	-134.511	43.535	0	959.90	0	3.6400	0	37.2190	8	29.600	0	950.040	0	10.0	4	3.2	4	-1E+10	1	-1E+10	1	-1E+10	1	-1E+10	1	-1E+10	1	-1E+10	1
4901784	203	C	01/24/2021	10:47	-134.511	43.535	0	965.00	0	3.6300	0	37.2230	8	29.604	0	955.076	0	10.0	4	3.2	4	-1E+10	1	-1E+10	1	-1E+10	1	-1E+10	1	-1E+10	1	-1E+10	1
4901784	203	C	01/24/2021	10:47	-134.511	43.535	0	969.80	0	3.6210	0	37.2240	8	29.606	0	959.816	0	10.1	4	3.2	4	-1E+10	1	-1E+10	1	-1E+10	1	-1E+10	1	-1E+10	1	-1E+10	1
4901784	203	C	01/24/2021	10:47	-134.511	43.535	0	974.70	0	3.6090	0	37.2270	8	29.610	0	964.654	0	10.1	4	3.2	4	-1E+10	1	-1E+10	1	-1E+10	1	-1E+10	1	-1E+10	1	-1E+10	1
4901784	203	C	01/24/2021	10:47	-134.511	43.535	0	979.50	0	3.5930	0	37.2310	8	29.614	0	969.394	0	10.2	4	3.2	4	-1E+10	1	-1E+10	1	-1E+10	1	-1E+10	1	-1E+10	1	-1E+10	1
4901784	203	C	01/24/2021	10:47	-134.511	43.535	0	984.30	0	3.5670	0	37.2370	8	29.622	0	974.133	0	10.2	4	3.3	4	-1E+10	1	-1E+10	1	-1E+10	1	-1E+10	1	-1E+10	1	-1E+10	1
4901784	203	C	01/24/2021	10:47	-134.511	43.535	0	990.00	0	3.5540	0	37.2390	8	29.625	0	979.761	0	10.3	4	3.3	4	-1E+10	1	-1E+10	1	-1E+10	1	-1E+10	1	-1E+10	1	-1E+10	1
4901784	203	C	01/24/2021	10:47	-134.511	43.535	0	995.70	0	3.5390	0	37.2430	8	29.630	0	985.388	0	10.3	4	3.3	4	-1E+10	1	-1E+10	1	-1E+10	1	-1E+10	1	-1E+10	1	-1E+10	1
4901784	203	C	01/24/2021	10:47	-134.511	43.535	0	1000.70	0	3.5220	0	37.2470	8	29.635	0	990.325	0	10.4	4	3.3	4	-1E+10	1	-1E+10	1	-1E+10	1	-1E+10	1	-1E+10	1	-1E+10	1
4901784	203	C	01/24/2021	10:47	-134.511	43.535	0	1005.70	0	3.5100	0	37.2500	8	29.639	0	995.261	0	10.4	4	3.3	4	-1E+10	1	-1E+10	1	-1E+10	1	-1E+10	1	-1E+10	1	-1E+10	1
4901784	203	C	01/24/2021	10:47	-134.511	43.535	0	1010.80	0	3.5000	0	37.2520	8	29.641	0	1000.296	0	10.5	4	3.4	4	-1E+10	1	-1E+10	1	-1E+10	1	-1E+10	1	-1E+10	1	-1E+10	1
4901784	203	C	01/24/2021	10:47	-134.511	43.535	0	1015.10	0	3.4890	0	37.2550	8	29.645	0	1004.541	0	10.6	4	3.4	4	-1E+10	1	-1E+10	1	-1E+10	1	-1E+10	1	-1E+10	1	-1E+10	1
4901784	203	C	01/24/2021	10:47	-134.511	43.535	0	1019.40	0	3.4830	0	37.2560	8	29.646	0	1008.786	0	10.6	4	3.4	4	-1E+10	1	-1E+10	1	-1E+10	1	-1E+10	1	-1E+10	1	-1E+10	1
4901784	203	C	01/24/2021	10:47	-134.511	43.535	0	1024.60	0	3.4710	0	37.2580	8	29.649	0	1013.919	0	10.7	4	3.4	4	-1E+10	1	-1E+10	1	-1E+10	1	-1E+10	1	-1E+10	1	-1E+10	1
4901784	203	C	01/24/2021	10:47	-134.511	43.535	0	1029.80	0	3.4550	0	37.2630	8	29.655	0	1019.052	0	10.8	4	3.4	4	-1E+10	1	-1E+10	1	-1E+10	1	-1E+10	1	-1E+10	1	-1E+10	1
4901784	203	C	01/24/2021	10:47	-134.511	43.535	0	1035.00	0	3.4410	0	37.2660	8	29.659	0	1024.185	0	10.9	4	3.5	4	-1E+10	1	-1E+10	1	-1E+10	1	-1E+10	1	-1E+10	1	-1E+10	1
4901784	203	C	01/24/2021	10:47	-134.511	43.535	0	1040.20	0	3.4310	0	37.2690	8	29.662	0	1029.318	0	11.0	4	3.5	4	-1E+10	1	-1E+10	1	-1E+10	1	-1E+10	1	-1E+10	1	-1E+10	1
4901784	203	C	01/24/2021	10:47	-134.511	43.535	0	1045.40	0	3.4220	0	37.2710	8	29.665	0	1034.451	0	11.1	4	3.5	4	-1E+10	1	-1E+10	1	-1E+10	1	-1E+10	1	-1E+10	1	-1E+10	1
4901784	203	C	01/24/2021	10:47	-134.511	43.535	0	1050.70	0	3.4080	0	37.2750	8	29.669	0	1039.682	0	11.2	4	3.6	4	-1E+10	1	-1E+10	1	-1E+10	1	-1E+10	1	-1E+10	1	-1E+10	1
4901784	203	C	01/24/2021	10:47	-134.511	43.535	0	1055.20	0	3.3990	0	37.2760	8	29.671	0	1044.124	0	11.2	4	3.6	4	-1E+10	1	-1E+10	1	-1E+10	1	-1E+10	1	-1E+10	1	-1E+10	1
4901784	203	C	01/24/2021	10:47	-134.511	43.535	0	1059.70	0	3.3900	0	37.2790	8	29.674	0	1048.565	0	11.3	4	3.6	4	-1E+10	1	-1E+10	1	-1E+10	1	-1E+10	1	-1E+10	1	-1E+10	1
4901784	203	C	01/24/2021	10:47	-134.511	43.535	0	1065.10	0	3.3820	0	37.2800	8	29.676	0	1053.895	0	11.4	4	3.6	4	-1E+10	1	-1E+10	1	-1E+10	1	-1E+10	1	-1E+10	1	-1E+10	1
4901784	203	C	01/24/2021	10:47	-134.511	43.535	0	1069.60	0	3.3700	0	37.2830	8	29.680	0	1058.337	0	11.6	4	3.7	4	-1E+10	1	-1E+10	1	-1E+10	1	-1E+10	1	-1E+10	1	-1E+10	1
4901784	203	C	01/24/2021	10:47	-134.511	43.535	0	1074.10	0	3.3580	0	37.2870	8	29.684	0	1062.778	0	11.7	4	3.7	4	-1E+10	1	-1E+10	1	-1E+10	1	-1E+10	1	-1E+10	1	-1E+10	1
4901784	203	C	01/24/2021	10:47	-134.511	43.535	0	1079.40	0	3.3490	0	37.2890	8	29.687	0	1068.008	0	11.8	4	3.7	4	-1E+10	1	-1E+10	1	-1E+10	1	-1E+10	1	-1E+10	1	-1E+10	1
4901784	203	C	01/24/2021	10:47	-134.511	43.535	0	1084.30	0	3.3370	0	37.2910	8	29.690	0	1072.844	0	11.8	4	3.8	4	-1E+10	1	-1E+10	1	-1E+10	1	-1E+10	1	-1E+10	1	-1E+10	1
4901784	203	C	01/24/2021	10:47	-134.511	43.535	0	1089.30	0	3.3210	0	37.2930	8	29.693	0	1077.779	0	11.9	4	3.8	4	-1E+10	1	-1E+10	1	-1E+10	1	-1E+10	1	-1E+10	1	-1E+10	1
4901784	203	C	01/24/2021	10:47	-134.511	43.535	0	1094.20	0	3.3070	0	37.2950	8	29.696	0	1082.614	0	12.0	4	3.8	4	-1E+10	1	-1E+10	1	-1E+10	1	-1E+10	1	-1E+10	1	-1E+10	1
4901784	203	C	01/24/2021	10:47	-134.511	43.535	0	1099.20	0	3.2980	0	37.2980	8	29.699	0	1087.548	0	12.2	4	3.9	4	-1E+10	1	-1E+10	1	-1E+10	1	-1E+10	1	-1E+10	1	-1E+10	1
4901784	203	C	01/24/2021	10:47	-134.511	43.535	0	1104.20	0	3.2820	0	37.3020	8	29.704	0	1092.482	0	12.4	4	3.9	4	-1E+10	1	-1E+10	1	-1E+10	1	-1E+10	1	-1E+10	1	-1E+10	1
4901784	203	C	01/24/2021	10:47	-134.511	43.535	0	1109.60	0	3.2730	0	37.3050	8	29.708	0	1097.811	0	12.5	4	4.0	4	-1E+10	1	-1E+10	1	-1E+10	1	-1E+10	1	-1E+10	1	-1E+10	1
4901784	203	C	01/24/2021	10:47	-134.511	43.535	0	1115.00	0	3.2630	0	37.3070	8	29.710	0	1103.139	0	12.6	4	4.0	4	-1E+10	1	-1E+10	1	-1E+10	1	-1E+10	1	-1E+10	1	-1E+10	1
4901784	203	C	01/24/2021	10:47	-134.511	43.535	0	1120.60	0	3.2570	0	37.3090	8	29.712	0	1108.665	0	12.7	4	4.0	4	-1E+10	1	-1E+10	1	-1E+10	1	-1E+10	1	-1E+10	1	-1E+10	1
4901784	203	C	01/24/2021	10:47	-134.511	43.535	0	1125.40	0	3.2500	0	37.3100	8	29.714	0	1113.401	0	12.7	4	4.0	4	-1E+10	1	-1E+10	1	-1E+10	1	-1E+10	1	-1E+10	1	-1E+10	1
4901784	203	C	01/24/2021	10:47	-134.511	43.535	0	1130.10	0	3.2420	0	37.3120	8	29.716	0	1118.038	0	12.8	4	4.1	4	-1E+10	1	-1E+10	1	-1E+10	1	-1E+10	1	-1E+10	1	-1E+10	1
4901784	203	C	01/24/2021	10:47	-134.511	43.535	0	1135.40	0	3.2360	0	37.3130	8	29.718	0	1123.268	0	12.9	4	4.1	4	-1E+10	1	-1E+10	1	-1E+10	1	-1E+10	1	-1E+10	1	-1E+10	1
4901784	203	C	01/24/2021	10:47	-134.511	43.535	0	1139.30	0	3.2220	0	37.3150	8	29.721	0	1127.116	0	13.0	4	4.1	4	-1E+10	1	-1E+10	1	-1E+10	1	-1E+10	1	-1E+10	1	-1E+10	1
4901784	203	C	01/24/2021	10:47	-134.511	43.535	0	1145.00	0	3.2120	0	37.3170	8	29.724	0	1132.739	0	13.0	4	4.1	4	-1E+10	1	-1E+10	1	-1E+10	1	-1E+10	1	-1E+10	1	-1E+10	1
4901784	203	C	01/24/2021	10:47	-134.511	43.535	0	1150.80	0	3.1980	0	37.3180	8	29.726	0	1138.461	0	13.0	4	4.1	4	-1E+10	1	-1E+10	1	-1E+10	1	-1E+10	1	-1E+10	1	-1E+10	1
4901784	203	C	01/24/2021	10:47	-134.511	43.535	0	1155.80	0	3.1840	0	37.3200	8	29.729	0	1143.394	0	13.0	4	4.1	4	-1E+10	1	-1E+10	1	-1E+10	1	-1E+10	1	-1E+10	1	-1E+10	1
4901784	203	C	01/24/2021	10:47	-134.511	43.535	0	1160.00	0	3.1760	0	37.3210	8	29.730	0	1147.538	0	13.1	4	4.2	4	-1E+10	1	-1E+10	1	-1E+10	1	-1E+10	1	-1E+10	1	-1E+10	1
4901784	203	C	01/24/2021	10:47	-134.511	43.535	0	1164.30	0	3.1660	0	37.3230	8	29.733	0	1151.780	0	13.2	4	4.2	4	-1E+10	1	-1E+10	1	-1E+10	1	-1E+10	1	-1E+10	1	-1E+10	1
4901784	203	C	01/24/2021	10:47	-134.511	43.535	0	1169.40	0	3.1550	0	37.3250	8	29.736	0	1156.811	0	13.3	4	4.2	4	-1E+10	1	-1E+10	1	-1E+10	1	-1E+10	1	-1E+10	1	-1E+10	1
4901784	203	C	01/24/2021	10:47	-134.511	43.535	0	1174.60	0	3.1480	0	37.3270	8	29.738	0	1161.940	0	13.4	4	4.3	4	-1E+10	1	-1E+10	1	-1E+10	1	-1E+10	1	-1E+10	1	-1E+10	1
4901784	203	C	01/24/2021	10:47	-134.511	43.535	0	1179.80	0	3.1400	0	37.3290	8	29.741	0	1167.070	0	13.6	4	4.3	4	-1E+10	1	-1E+10	1	-1E+10	1	-1E+10	1	-1E+10	1	-1E+10	1
4901784	203	C	01/24/2021	10:47	-134.511	43.535	0	1185.10	0	3.1300	0	37.3310	8	29.743	0	1172.298	0	13.7	4	4.3	4	-1E+10	1	-1E+10	1	-1E+10	1	-1E+10	1	-1E+10	1	-1E+10	1
4901784	203	C	01/24/2021	10:47	-134.511	43.535	0	1190.50	0	3.1210	0	37.3340	8	29.747	0	1177.625	0	13.9	4	4.4	4	-1E+10	1	-1E+10	1	-1E+10	1	-1E+10	1	-1E+10	1	-1E+10	1
4901784	203	C	01/24/2021	10:47	-134.511	43.535	0	1194.90	0	3.1180	0	37.3350	8	29.748	0	1181.965	0	14.0	4	4.4	4	-1E+10	1	-1E+10	1	-1E+10	1	-1E+10	1	-1E+10	1	-1E+10	1
4901784	203	C	01/24/2021	10:47	-134.511	43.535	0	1199.40	0	3.1120	0	37.3370	8	29.750	0	1186.403	0	14.1	4	4.5	4	-1E+10	1	-1E+10	1	-1E+10	1	-1E+10	1	-1E+10	1	-1E+10	1
4901784	203	C	01/24/2021	10:47	-134.511	43.535	0	1204.80	0	3.1060	0	37.3390	8	29.752	0	1191.729	0	14.3	4	4.5	4	-1E+10	1	-1E+10	1	-1E+10	1	-1E+10	1	-1E+10	1	-1E+10	1
4901784	203	C	01/24/2021	10:47	-134.511	43.535	0	1210.20	0	3.0940	0	37.3410	8	29.755	0	1197.055	0	14.3	4	4.5	4	-1E+10	1	-1E+10	1	-1E+10	1	-1E+10	1	-1E+10	1	-1E+10	1
4901784	203	C	01/24/2021	10:47	-134.511	43.535	0	1215.70	0	3.0850	0	37.3420	8	29.757	0	1202.480	0	14.4	4	4.6	4	-1E+10	1	-1E+10	1	-1E+10	1	-1E+10	1	-1E+10	1	-1E+10	1
4901784	203	C	01/24/2021	10:47	-134.511	43.535	0	1220.20	0	3.0770	0	37.3440	8	29.759	0	1206.918	0	14.5	4	4.6	4	-1E+10	1	-1E+10	1	-1E+10	1	-1E+10	1	-1E+10	1	-1E+10	1
4901784	203	C	01/24/2021	10:47	-134.511	43.535	0	1224.70	0	3.0700	0	37.3450	8	29.761	0	1211.356	0	14.6	4	4.6	4	-1E+10	1	-1E+10	1	-1E+10	1	-1E+10	1	-1E+10	1	-1E+10	1
4901784	203	C	01/24/2021	10:47	-134.511	43.535	0	1230.10	0	3.0560	0	37.3470	8	29.764	0	1216.682	0	14.8	4	4.7	4	-1E+10	1	-1E+10	1	-1E+10	1	-1E+10	1	-1E+10	1	-1E+10	1
4901784	203	C	01/24/2021	10:47	-134.511	43.535	0	1235.60	0	3.0410	0	37.3500	8	29.768	0	1222.106	0	15.0	4	4.7	4	-1E+10	1	-1E+10	1	-1E+10	1	-1E+10	1	-1E+10	1	-1E+10	1
4901784	203	C	01/24/2021	10:47	-134.511	43.535	0	1240.20	0	3.0290	0	37.3520	8	29.770	0	1226.642	0	15.1	4	4.8	4	-1E+10	1	-1E+10	1	-1E+10	1	-1E+10	1	-1E+10	1	-1E+10	1
4901784	203	C	01/24/2021	10:47	-134.511	43.535	0	1244.40	0	3.0210	0	37.3540	8	29.773	0	1230.784	0	15.2	4	4.8	4	-1E+10	1	-1E+10	1	-1E+10	1	-1E+10	1	-1E+10	1	-1E+10	1
4901784	203	C	01/24/2021	10:47	-134.511	43.535	0	1249.50	0	3.0150	0	37.3550	8	29.774	0	1235.813	0	15.3	4	4.8	4	-1E+10	1	-1E+10	1	-1E+10	1	-1E+10	1	-1E+10	1	-1E+10	1
4901784	203	C	01/24/2021	10:47	-134.511	43.535	0	1254.60	0	3.0100	0	37.3560	8	29.776	0	1240.842	0	15.4	4	4.9	4	-1E+10	1	-1E+10	1	-1E+10	1	-1E+10	1	-1E+10	1	-1E+10	1
4901784	203	C	01/24/2021	10:47	-134.511	43.535	0	1259.70	0	3.0010	0	37.3580	8	29.778	0	1245.871	0	15.6	4	4.9	4	-1E+10	1	-1E+10	1	-1E+10	1	-1E+10	1	-1E+10	1	-1E+10	1
4901784	203	C	01/24/2021	10:47	-134.511	43.535	0	1264.90	0	2.9900	0	37.3600	8	29.781	0	1250.999	0	15.7	4	5.0	4	-1E+10	1	-1E+10	1	-1E+10	1	-1E+10	1	-1E+10	1	-1E+10	1
4901784	203	C	01/24/2021	10:47	-134.511	43.535	0	1270.10	0	2.9810	0	37.3610	8	29.783	0	1256.126	0	15.9	4	5.0	4	-1E+10	1	-1E+10	1	-1E+10	1	-1E+10	1	-1E+10	1	-1E+10	1
4901784	203	C	01/24/2021	10:47	-134.511	43.535	0	1275.30	0	2.9690	0	37.3640	8	29.786	0	1261.253	0	16.1	4	5.1	4	-1E+10	1	-1E+10	1	-1E+10	1	-1E+10	1	-1E+10	1	-1E+10	1
4901784	203	C	01/24/2021	10:47	-134.511	43.535	0	1280.50	0	2.9560	0	37.3660	8	29.789	0	1266.380	0	16.4	4	5.2	4	-1E+10	1	-1E+10	1	-1E+10	1	-1E+10	1	-1E+10	1	-1E+10	1
4901784	203	C	01/24/2021	10:47	-134.511	43.535	0	1285.70	0	2.9440	0	37.3690	8	29.793	0	1271.507	0	16.6	4	5.2	4	-1E+10	1	-1E+10	1	-1E+10	1	-1E+10	1	-1E+10	1	-1E+10	1
4901784	203	C	01/24/2021	10:47	-134.511	43.535	0	1290.10	0	2.9350	0	37.3710	8	29.795	0	1275.846	0	16.7	4	5.3	4	-1E+10	1	-1E+10	1	-1E+10	1	-1E+10	1	-1E+10	1	-1E+10	1
4901784	203	C	01/24/2021	10:47	-134.511	43.535	0	1294.40	0	2.9330	0	37.3720	8	29.796	0	1280.085	0	16.8	4	5.3	4	-1E+10	1	-1E+10	1	-1E+10	1	-1E+10	1	-1E+10	1	-1E+10	1
4901784	203	C	01/24/2021	10:47	-134.511	43.535	0	1299.70	0	2.9240	0	37.3730	8	29.798	0	1285.310	0	17.0	4	5.4	4	-1E+10	1	-1E+10	1	-1E+10	1	-1E+10	1	-1E+10	1	-1E+10	1
4901784	203	C	01/24/2021	10:47	-134.511	43.535	0	1305.10	0	2.9130	0	37.3760	8	29.801	0	1290.634	0	17.2	4	5.4	4	-1E+10	1	-1E+10	1	-1E+10	1	-1E+10	1	-1E+10	1	-1E+10	1
4901784	203	C	01/24/2021	10:47	-134.511	43.535	0	1310.40	0	2.9060	0	37.3760	8	29.802	0	1295.859	0	17.3	4	5.5	4	-1E+10	1	-1E+10	1	-1E+10	1	-1E+10	1	-1E+10	1	-1E+10	1
4901784	203	C	01/24/2021	10:47	-134.511	43.535	0	1314.90	0	2.8930	0	37.3790	8	29.806	0	1300.295	0	17.5	4	5.5	4	-1E+10	1	-1E+10	1	-1E+10	1	-1E+10	1	-1E+10	1	-1E+10	1
4901784	203	C	01/24/2021	10:47	-134.511	43.535	0	1319.40	0	2.8860	0	37.3800	8	29.807	0	1304.731	0	17.6	4	5.5	4	-1E+10	1	-1E+10	1	-1E+10	1	-1E+10	1	-1E+10	1	-1E+10	1
4901784	203	C	01/24/2021	10:47	-134.511	43.535	0	1324.90	0	2.8770	0	37.3820	8	29.810	0	1310.153	0	17.8	4	5.6	4	-1E+10	1	-1E+10	1	-1E+10	1	-1E+10	1	-1E+10	1	-1E+10	1
4901784	203	C	01/24/2021	10:47	-134.511	43.535	0	1330.20	0	2.8680	0	37.3850	8	29.813	0	1315.377	0	18.0	4	5.7	4	-1E+10	1	-1E+10	1	-1E+10	1	-1E+10	1	-1E+10	1	-1E+10	1
4901784	203	C	01/24/2021	10:47	-134.511	43.535	0	1335.60	0	2.8610	0	37.3850	8	29.814	0	1320.700	0	18.2	4	5.7	4	-1E+10	1	-1E+10	1	-1E+10	1	-1E+10	1	-1E+10	1	-1E+10	1
4901784	203	C	01/24/2021	10:47	-134.511	43.535	0	1340.10	0	2.8510	0	37.3870	8	29.816	0	1325.136	0	18.4	4	5.8	4	-1E+10	1	-1E+10	1	-1E+10	1	-1E+10	1	-1E+10	1	-1E+10	1
4901784	203	C	01/24/2021	10:47	-134.511	43.535	0	1344.60	0	2.8430	0	37.3890	8	29.819	0	1329.571	0	18.6	4	5.8	4	-1E+10	1	-1E+10	1	-1E+10	1	-1E+10	1	-1E+10	1	-1E+10	1
4901784	203	C	01/24/2021	10:47	-134.511	43.535	0	1350.00	0	2.8360	0	37.3910	8	29.821	0	1334.894	0	18.8	4	5.9	4	-1E+10	1	-1E+10	1	-1E+10	1	-1E+10	1	-1E+10	1	-1E+10	1
4901784	203	C	01/24/2021	10:47	-134.511	43.535	0	1355.50	0	2.8290	0	37.3930	8	29.823	0	1340.315	0	19.1	4	6.0	4	-1E+10	1	-1E+10	1	-1E+10	1	-1E+10	1	-1E+10	1	-1E+10	1
4901784	203	C	01/24/2021	10:47	-134.511	43.535	0	1360.10	0	2.8240	0	37.3950	8	29.826	0	1344.849	0	19.3	4	6.1	4	-1E+10	1	-1E+10	1	-1E+10	1	-1E+10	1	-1E+10	1	-1E+10	1
4901784	203	C	01/24/2021	10:47	-134.511	43.535	0	1364.70	0	2.8160	0	37.3960	8	29.827	0	1349.382	0	19.5	4	6.1	4	-1E+10	1	-1E+10	1	-1E+10	1	-1E+10	1	-1E+10	1	-1E+10	1
4901784	203	C	01/24/2021	10:47	-134.511	43.535	0	1370.10	0	2.8020	0	37.3980	8	29.830	0	1354.705	0	19.8	4	6.2	4	-1E+10	1	-1E+10	1	-1E+10	1	-1E+10	1	-1E+10	1	-1E+10	1
4901784	203	C	01/24/2021	10:47	-134.511	43.535	0	1375.60	0	2.7870	0	37.4000	8	29.833	0	1360.125	0	19.9	4	6.3	4	-1E+10	1	-1E+10	1	-1E+10	1	-1E+10	1	-1E+10	1	-1E+10	1
4901784	203	C	01/24/2021	10:47	-134.511	43.535	0	1380.10	0	2.7800	0	37.4020	8	29.835	0	1364.560	0	20.1	4	6.3	4	-1E+10	1	-1E+10	1	-1E+10	1	-1E+10	1	-1E+10	1	-1E+10	1
4901784	203	C	01/24/2021	10:47	-134.511	43.535	0	1384.70	0	2.7730	0	37.4040	8	29.838	0	1369.093	0	20.3	4	6.4	4	-1E+10	1	-1E+10	1	-1E+10	1	-1E+10	1	-1E+10	1	-1E+10	1
4901784	203	C	01/24/2021	10:47	-134.511	43.535	0	1390.20	0	2.7600	0	37.4060	8	29.841	0	1374.513	0	20.4	4	6.4	4	-1E+10	1	-1E+10	1	-1E+10	1	-1E+10	1	-1E+10	1	-1E+10	1
4901784	203	C	01/24/2021	10:47	-134.511	43.535	0	1394.80	0	2.7550	0	37.4070	8	29.842	0	1379.046	0	20.7	4	6.5	4	-1E+10	1	-1E+10	1	-1E+10	1	-1E+10	1	-1E+10	1	-1E+10	1
4901784	203	C	01/24/2021	10:47	-134.511	43.535	0	1399.40	0	2.7440	0	37.4080	8	29.844	0	1383.579	0	21.1	4	6.6	4	-1E+10	1	-1E+10	1	-1E+10	1	-1E+10	1	-1E+10	1	-1E+10	1
4901784	203	C	01/24/2021	10:47	-134.511	43.535	0	1405.00	0	2.7380	0	37.4120	8	29.848	0	1389.098	0	21.7	4	6.8	4	-1E+10	1	-1E+10	1	-1E+10	1	-1E+10	1	-1E+10	1	-1E+10	1
4901784	203	C	01/24/2021	10:47	-134.511	43.535	0	1409.70	0	2.7360	0	37.4130	8	29.849	0	1393.729	0	21.9	4	6.9	4	-1E+10	1	-1E+10	1	-1E+10	1	-1E+10	1	-1E+10	1	-1E+10	1
4901784	203	C	01/24/2021	10:47	-134.511	43.535	0	1414.20	0	2.7290	0	37.4150	8	29.851	0	1398.163	0	22.0	4	6.9	4	-1E+10	1	-1E+10	1	-1E+10	1	-1E+10	1	-1E+10	1	-1E+10	1
4901784	203	C	01/24/2021	10:47	-134.511	43.535	0	1419.60	0	2.7220	0	37.4150	8	29.852	0	1403.484	0	22.2	4	7.0	4	-1E+10	1	-1E+10	1	-1E+10	1	-1E+10	1	-1E+10	1	-1E+10	1
4901784	203	C	01/24/2021	10:47	-134.511	43.535	0	1424.50	0	2.7150	0	37.4170	8	29.854	0	1408.312	0	22.5	4	7.1	4	-1E+10	1	-1E+10	1	-1E+10	1	-1E+10	1	-1E+10	1	-1E+10	1
4901784	203	C	01/24/2021	10:47	-134.511	43.535	0	1429.40	0	2.7040	0	37.4190	8	29.857	0	1413.140	0	22.7	4	7.1	4	-1E+10	1	-1E+10	1	-1E+10	1	-1E+10	1	-1E+10	1	-1E+10	1
4901784	203	C	01/24/2021	10:47	-134.511	43.535	0	1434.30	0	2.6970	0	37.4200	8	29.858	0	1417.968	0	22.9	4	7.2	4	-1E+10	1	-1E+10	1	-1E+10	1	-1E+10	1	-1E+10	1	-1E+10	1
4901784	203	C	01/24/2021	10:47	-134.511	43.535	0	1440.00	0	2.6890	0	37.4220	8	29.861	0	1423.583	0	23.1	4	7.2	4	-1E+10	1	-1E+10	1	-1E+10	1	-1E+10	1	-1E+10	1	-1E+10	1
4901784	203	C	01/24/2021	10:47	-134.511	43.535	0	1445.00	0	2.6830	0	37.4240	8	29.863	0	1428.510	0	23.3	4	7.3	4	-1E+10	1	-1E+10	1	-1E+10	1	-1E+10	1	-1E+10	1	-1E+10	1
4901784	203	C	01/24/2021	10:47	-134.511	43.535	0	1450.00	0	2.6750	0	37.4250	8	29.864	0	1433.436	0	23.7	4	7.4	4	-1E+10	1	-1E+10	1	-1E+10	1	-1E+10	1	-1E+10	1	-1E+10	1
4901784	203	C	01/24/2021	10:47	-134.511	43.535	0	1455.00	0	2.6630	0	37.4270	8	29.867	0	1438.361	0	23.9	4	7.5	4	-1E+10	1	-1E+10	1	-1E+10	1	-1E+10	1	-1E+10	1	-1E+10	1
4901784	203	C	01/24/2021	10:47	-134.511	43.535	0	1459.20	0	2.6500	0	37.4280	8	29.869	0	1442.499	0	24.0	4	7.5	4	-1E+10	1	-1E+10	1	-1E+10	1	-1E+10	1	-1E+10	1	-1E+10	1
4901784	203	C	01/24/2021	10:47	-134.511	43.535	0	1464.30	0	2.6340	0	37.4300	8	29.872	0	1447.523	0	24.1	4	7.5	4	-1E+10	1	-1E+10	1	-1E+10	1	-1E+10	1	-1E+10	1	-1E+10	1
4901784	203	C	01/24/2021	10:47	-134.511	43.535	0	1469.40	0	2.6220	0	37.4310	8	29.874	0	1452.547	0	24.3	4	7.6	4	-1E+10	1	-1E+10	1	-1E+10	1	-1E+10	1	-1E+10	1	-1E+10	1
4901784	203	C	01/24/2021	10:47	-134.511	43.535	0	1474.40	0	2.6100	0	37.4330	8	29.877	0	1457.473	0	24.6	4	7.7	4	-1E+10	1	-1E+10	1	-1E+10	1	-1E+10	1	-1E+10	1	-1E+10	1
4901784	203	C	01/24/2021	10:47	-134.511	43.535	0	1479.60	0	2.6080	0	37.4340	8	29.878	0	1462.595	0	24.8	4	7.8	4	-1E+10	1	-1E+10	1	-1E+10	1	-1E+10	1	-1E+10	1	-1E+10	1
4901784	203	C	01/24/2021	10:47	-134.511	43.535	0	1484.70	0	2.6020	0	37.4350	8	29.879	0	1467.619	0	25.2	4	7.9	4	-1E+10	1	-1E+10	1	-1E+10	1	-1E+10	1	-1E+10	1	-1E+10	1
4901784	203	C	01/24/2021	10:47	-134.511	43.535	0	1489.80	0	2.5950	0	37.4370	8	29.882	0	1472.642	0	25.5	4	8.0	4	-1E+10	1	-1E+10	1	-1E+10	1	-1E+10	1	-1E+10	1	-1E+10	1
4901784	203	C	01/24/2021	10:47	-134.511	43.535	0	1494.90	0	2.5850	0	37.4390	8	29.884	0	1477.666	0	25.7	4	8.0	4	-1E+10	1	-1E+10	1	-1E+10	1	-1E+10	1	-1E+10	1	-1E+10	1
4901784	203	C	01/24/2021	10:47	-134.511	43.535	0	1500.10	0	2.5770	0	37.4390	8	29.885	0	1482.787	0	25.9	4	8.1	4	-1E+10	1	-1E+10	1	-1E+10	1	-1E+10	1	-1E+10	1	-1E+10	1
4901784	203	C	01/24/2021	10:47	-134.511	43.535	0	1505.40	0	2.5680	0	37.4400	8	29.887	0	1488.008	0	26.2	4	8.2	4	-1E+10	1	-1E+10	1	-1E+10	1	-1E+10	1	-1E+10	1	-1E+10	1
4901784	203	C	01/24/2021	10:47	-134.511	43.535	0	1509.90	0	2.5620	0	37.4410	8	29.888	0	1492.440	0	26.5	4	8.3	4	-1E+10	1	-1E+10	1	-1E+10	1	-1E+10	1	-1E+10	1	-1E+10	1
4901784	203	C	01/24/2021	10:47	-134.511	43.535	0	1514.30	0	2.5520	0	37.4430	8	29.891	0	1496.773	0	26.8	4	8.4	4	-1E+10	1	-1E+10	1	-1E+10	1	-1E+10	1	-1E+10	1	-1E+10	1
4901784	203	C	01/24/2021	10:47	-134.511	43.535	0	1519.60	0	2.5440	0	37.4440	8	29.892	0	1501.993	0	27.2	4	8.5	4	-1E+10	1	-1E+10	1	-1E+10	1	-1E+10	1	-1E+10	1	-1E+10	1
4901784	203	C	01/24/2021	10:47	-134.511	43.535	0	1525.00	0	2.5340	0	37.4470	8	29.896	0	1507.311	0	27.6	4	8.6	4	-1E+10	1	-1E+10	1	-1E+10	1	-1E+10	1	-1E+10	1	-1E+10	1
4901784	203	C	01/24/2021	10:47	-134.511	43.535	0	1530.30	0	2.5250	0	37.4480	8	29.897	0	1512.531	0	27.9	4	8.7	4	-1E+10	1	-1E+10	1	-1E+10	1	-1E+10	1	-1E+10	1	-1E+10	1
4901784	203	C	01/24/2021	10:47	-134.511	43.535	0	1534.80	0	2.5210	0	37.4490	8	29.898	0	1516.963	0	28.1	4	8.8	4	-1E+10	1	-1E+10	1	-1E+10	1	-1E+10	1	-1E+10	1	-1E+10	1
4901784	203	C	01/24/2021	10:47	-134.511	43.535	0	1539.40	0	2.5140	0	37.4500	8	29.900	0	1521.493	0	28.5	4	8.9	4	-1E+10	1	-1E+10	1	-1E+10	1	-1E+10	1	-1E+10	1	-1E+10	1
4901784	203	C	01/24/2021	10:47	-134.511	43.535	0	1544.80	0	2.5030	0	37.4520	8	29.903	0	1526.810	0	28.8	4	9.0	4	-1E+10	1	-1E+10	1	-1E+10	1	-1E+10	1	-1E+10	1	-1E+10	1
4901784	203	C	01/24/2021	10:47	-134.511	43.535	0	1550.30	0	2.4950	0	37.4540	8	29.905	0	1532.226	0	29.2	4	9.1	4	-1E+10	1	-1E+10	1	-1E+10	1	-1E+10	1	-1E+10	1	-1E+10	1
4901784	203	C	01/24/2021	10:47	-134.511	43.535	0	1554.80	0	2.4890	0	37.4540	8	29.906	0	1536.658	0	29.5	4	9.2	4	-1E+10	1	-1E+10	1	-1E+10	1	-1E+10	1	-1E+10	1	-1E+10	1
4901784	203	C	01/24/2021	10:47	-134.511	43.535	0	1559.30	0	2.4730	0	37.4570	8	29.909	0	1541.089	0	29.9	4	9.3	4	-1E+10	1	-1E+10	1	-1E+10	1	-1E+10	1	-1E+10	1	-1E+10	1
4901784	203	C	01/24/2021	10:47	-134.511	43.535	0	1564.60	0	2.4640	0	37.4580	8	29.911	0	1546.307	0	30.1	4	9.4	4	-1E+10	1	-1E+10	1	-1E+10	1	-1E+10	1	-1E+10	1	-1E+10	1
4901784	203	C	01/24/2021	10:47	-134.511	43.535	0	1569.40	0	2.4580	0	37.4590	8	29.912	0	1551.034	0	30.4	4	9.5	4	-1E+10	1	-1E+10	1	-1E+10	1	-1E+10	1	-1E+10	1	-1E+10	1
4901784	203	C	01/24/2021	10:47	-134.511	43.535	0	1575.00	0	2.4450	0	37.4610	8	29.915	0	1556.548	0	30.8	4	9.6	4	-1E+10	1	-1E+10	1	-1E+10	1	-1E+10	1	-1E+10	1	-1E+10	1
4901784	203	C	01/24/2021	10:47	-134.511	43.535	0	1580.60	0	2.4390	0	37.4620	8	29.917	0	1562.061	0	31.1	4	9.7	4	-1E+10	1	-1E+10	1	-1E+10	1	-1E+10	1	-1E+10	1	-1E+10	1
4901784	203	C	01/24/2021	10:47	-134.511	43.535	0	1585.40	0	2.4320	0	37.4630	8	29.918	0	1566.787	0	31.5	4	9.8	4	-1E+10	1	-1E+10	1	-1E+10	1	-1E+10	1	-1E+10	1	-1E+10	1
4901784	203	C	01/24/2021	10:47	-134.511	43.535	0	1590.30	0	2.4230	0	37.4650	8	29.921	0	1571.612	0	32.0	4	10.0	4	-1E+10	1	-1E+10	1	-1E+10	1	-1E+10	1	-1E+10	1	-1E+10	1
4901784	203	C	01/24/2021	10:47	-134.511	43.535	0	1595.20	0	2.4120	0	37.4660	8	29.922	0	1576.436	0	32.5	4	10.1	4	-1E+10	1	-1E+10	1	-1E+10	1	-1E+10	1	-1E+10	1	-1E+10	1
4901784	203	C	01/24/2021	10:47	-134.511	43.535	0	1600.20	0	2.4020	0	37.4680	8	29.925	0	1581.358	0	33.3	4	10.4	4	-1E+10	1	-1E+10	1	-1E+10	1	-1E+10	1	-1E+10	1	-1E+10	1
4901784	203	C	01/24/2021	10:47	-134.511	43.535	0	1605.20	0	2.3940	0	37.4700	8	29.927	0	1586.281	0	33.9	4	10.6	4	-1E+10	1	-1E+10	1	-1E+10	1	-1E+10	1	-1E+10	1	-1E+10	1
4901784	203	C	01/24/2021	10:47	-134.511	43.535	0	1610.30	0	2.3830	0	37.4720	8	29.930	0	1591.301	0	34.4	4	10.7	4	-1E+10	1	-1E+10	1	-1E+10	1	-1E+10	1	-1E+10	1	-1E+10	1
4901784	203	C	01/24/2021	10:47	-134.511	43.535	0	1615.30	0	2.3760	0	37.4740	8	29.932	0	1596.224	0	34.7	4	10.8	4	-1E+10	1	-1E+10	1	-1E+10	1	-1E+10	1	-1E+10	1	-1E+10	1
4901784	203	C	01/24/2021	10:47	-134.511	43.535	0	1620.30	0	2.3680	0	37.4750	8	29.934	0	1601.146	0	35.1	4	10.9	4	-1E+10	1	-1E+10	1	-1E+10	1	-1E+10	1	-1E+10	1	-1E+10	1
4901784	203	C	01/24/2021	10:47	-134.511	43.535	0	1625.30	0	2.3590	0	37.4760	8	29.935	0	1606.068	0	35.5	4	11.0	4	-1E+10	1	-1E+10	1	-1E+10	1	-1E+10	1	-1E+10	1	-1E+10	1
4901784	203	C	01/24/2021	10:47	-134.511	43.535	0	1630.30	0	2.3520	0	37.4770	8	29.937	0	1610.989	0	36.0	4	11.2	4	-1E+10	1	-1E+10	1	-1E+10	1	-1E+10	1	-1E+10	1	-1E+10	1
4901784	203	C	01/24/2021	10:47	-134.511	43.535	0	1635.40	0	2.3400	0	37.4790	8	29.940	0	1616.010	0	36.5	4	11.4	4	-1E+10	1	-1E+10	1	-1E+10	1	-1E+10	1	-1E+10	1	-1E+10	1
4901784	203	C	01/24/2021	10:47	-134.511	43.535	0	1640.50	0	2.3320	0	37.4810	8	29.942	0	1621.030	0	37.0	4	11.5	4	-1E+10	1	-1E+10	1	-1E+10	1	-1E+10	1	-1E+10	1	-1E+10	1
4901784	203	C	01/24/2021	10:47	-134.511	43.535	0	1645.60	0	2.3290	0	37.4820	8	29.943	0	1626.049	0	37.3	4	11.6	4	-1E+10	1	-1E+10	1	-1E+10	1	-1E+10	1	-1E+10	1	-1E+10	1
4901784	203	C	01/24/2021	10:47	-134.511	43.535	0	1650.70	0	2.3210	0	37.4830	8	29.945	0	1631.069	0	37.6	4	11.7	4	-1E+10	1	-1E+10	1	-1E+10	1	-1E+10	1	-1E+10	1	-1E+10	1
4901784	203	C	01/24/2021	10:47	-134.511	43.535	0	1655.00	0	2.3180	0	37.4840	8	29.946	0	1635.301	0	37.8	4	11.7	4	-1E+10	1	-1E+10	1	-1E+10	1	-1E+10	1	-1E+10	1	-1E+10	1
4901784	203	C	01/24/2021	10:47	-134.511	43.535	0	1659.30	0	2.3140	0	37.4850	8	29.947	0	1639.534	0	38.1	4	11.8	4	-1E+10	1	-1E+10	1	-1E+10	1	-1E+10	1	-1E+10	1	-1E+10	1
4901784	203	C	01/24/2021	10:47	-134.511	43.535	0	1664.40	0	2.3060	0	37.4860	8	29.948	0	1644.553	0	38.3	4	11.9	4	-1E+10	1	-1E+10	1	-1E+10	1	-1E+10	1	-1E+10	1	-1E+10	1
4901784	203	C	01/24/2021	10:47	-134.511	43.535	0	1669.50	0	2.2980	0	37.4870	8	29.950	0	1649.573	0	38.6	4	12.0	4	-1E+10	1	-1E+10	1	-1E+10	1	-1E+10	1	-1E+10	1	-1E+10	1
4901784	203	C	01/24/2021	10:47	-134.511	43.535	0	1674.70	0	2.2930	0	37.4880	8	29.951	0	1654.690	0	38.9	4	12.1	4	-1E+10	1	-1E+10	1	-1E+10	1	-1E+10	1	-1E+10	1	-1E+10	1
4901784	203	C	01/24/2021	10:47	-134.511	43.535	0	1680.00	0	2.2860	0	37.4890	8	29.953	0	1659.906	0	39.2	4	12.2	4	-1E+10	1	-1E+10	1	-1E+10	1	-1E+10	1	-1E+10	1	-1E+10	1
4901784	203	C	01/24/2021	10:47	-134.511	43.535	0	1685.20	0	2.2810	0	37.4900	8	29.954	0	1665.023	0	39.4	4	12.2	4	-1E+10	1	-1E+10	1	-1E+10	1	-1E+10	1	-1E+10	1	-1E+10	1
4901784	203	C	01/24/2021	10:47	-134.511	43.535	0	1690.60	0	2.2740	0	37.4910	8	29.956	0	1670.338	0	39.8	4	12.4	4	-1E+10	1	-1E+10	1	-1E+10	1	-1E+10	1	-1E+10	1	-1E+10	1
4901784	203	C	01/24/2021	10:47	-134.511	43.535	0	1695.00	0	2.2680	0	37.4930	8	29.958	0	1674.667	0	40.1	4	12.4	4	-1E+10	1	-1E+10	1	-1E+10	1	-1E+10	1	-1E+10	1	-1E+10	1
4901784	203	C	01/24/2021	10:47	-134.511	43.535	0	1699.50	0	2.2620	0	37.4940	8	29.959	0	1679.096	0	40.3	4	12.5	4	-1E+10	1	-1E+10	1	-1E+10	1	-1E+10	1	-1E+10	1	-1E+10	1
4901784	203	C	01/24/2021	10:47	-134.511	43.535	0	1704.90	0	2.2560	0	37.4950	8	29.960	0	1684.409	0	40.6	4	12.6	4	-1E+10	1	-1E+10	1	-1E+10	1	-1E+10	1	-1E+10	1	-1E+10	1
4901784	203	C	01/24/2021	10:47	-134.511	43.535	0	1710.30	0	2.2470	0	37.4960	8	29.962	0	1689.723	0	40.9	4	12.7	4	-1E+10	1	-1E+10	1	-1E+10	1	-1E+10	1	-1E+10	1	-1E+10	1
4901784	203	C	01/24/2021	10:47	-134.511	43.535	0	1715.60	0	2.2410	0	37.4970	8	29.963	0	1694.938	0	41.1	4	12.8	4	-1E+10	1	-1E+10	1	-1E+10	1	-1E+10	1	-1E+10	1	-1E+10	1
4901784	203	C	01/24/2021	10:47	-134.511	43.535	0	1720.10	0	2.2370	0	37.4980	8	29.965	0	1699.366	0	41.4	4	12.8	4	-1E+10	1	-1E+10	1	-1E+10	1	-1E+10	1	-1E+10	1	-1E+10	1
4901784	203	C	01/24/2021	10:47	-134.511	43.535	0	1724.70	0	2.2340	0	37.4990	8	29.966	0	1703.892	0	41.7	4	12.9	4	-1E+10	1	-1E+10	1	-1E+10	1	-1E+10	1	-1E+10	1	-1E+10	1
4901784	203	C	01/24/2021	10:47	-134.511	43.535	0	1730.20	0	2.2270	0	37.5000	8	29.967	0	1709.303	0	42.1	4	13.1	4	-1E+10	1	-1E+10	1	-1E+10	1	-1E+10	1	-1E+10	1	-1E+10	1
4901784	203	C	01/24/2021	10:47	-134.511	43.535	0	1734.80	0	2.2190	0	37.5010	8	29.969	0	1713.829	0	42.5	4	13.2	4	-1E+10	1	-1E+10	1	-1E+10	1	-1E+10	1	-1E+10	1	-1E+10	1
4901784	203	C	01/24/2021	10:47	-134.511	43.535	0	1739.50	0	2.2110	0	37.5030	8	29.971	0	1718.454	0	42.9	4	13.3	4	-1E+10	1	-1E+10	1	-1E+10	1	-1E+10	1	-1E+10	1	-1E+10	1
4901784	203	C	01/24/2021	10:47	-134.511	43.535	0	1745.10	0	2.2030	0	37.5040	8	29.973	0	1723.963	0	43.3	4	13.4	4	-1E+10	1	-1E+10	1	-1E+10	1	-1E+10	1	-1E+10	1	-1E+10	1
4901784	203	C	01/24/2021	10:47	-134.511	43.535	0	1750.60	0	2.1960	0	37.5060	8	29.975	0	1729.374	0	43.6	4	13.5	4	-1E+10	1	-1E+10	1	-1E+10	1	-1E+10	1	-1E+10	1	-1E+10	1
4901784	203	C	01/24/2021	10:47	-134.511	43.535	0	1755.40	0	2.1910	0	37.5060	8	29.975	0	1734.096	0	43.8	4	13.6	4	-1E+10	1	-1E+10	1	-1E+10	1	-1E+10	1	-1E+10	1	-1E+10	1
4901784	203	C	01/24/2021	10:47	-134.511	43.535	0	1760.00	0	2.1850	0	37.5070	8	29.977	0	1738.622	0	44.1	4	13.6	4	-1E+10	1	-1E+10	1	-1E+10	1	-1E+10	1	-1E+10	1	-1E+10	1
4901784	203	C	01/24/2021	10:47	-134.511	43.535	0	1764.90	0	2.1800	0	37.5080	8	29.978	0	1743.442	0	44.4	4	13.7	4	-1E+10	1	-1E+10	1	-1E+10	1	-1E+10	1	-1E+10	1	-1E+10	1
4901784	203	C	01/24/2021	10:47	-134.511	43.535	0	1769.80	0	2.1760	0	37.5090	8	29.979	0	1748.262	0	44.7	4	13.8	4	-1E+10	1	-1E+10	1	-1E+10	1	-1E+10	1	-1E+10	1	-1E+10	1
4901784	203	C	01/24/2021	10:47	-134.511	43.535	0	1774.80	0	2.1700	0	37.5100	8	29.981	0	1753.181	0	45.1	4	14.0	4	-1E+10	1	-1E+10	1	-1E+10	1	-1E+10	1	-1E+10	1	-1E+10	1
4901784	203	C	01/24/2021	10:47	-134.511	43.535	0	1779.80	0	2.1670	0	37.5120	8	29.982	0	1758.099	0	45.3	4	14.0	4	-1E+10	1	-1E+10	1	-1E+10	1	-1E+10	1	-1E+10	1	-1E+10	1
4901784	203	C	01/24/2021	10:47	-134.511	43.535	0	1784.80	0	2.1640	0	37.5120	8	29.983	0	1763.017	0	45.6	4	14.1	4	-1E+10	1	-1E+10	1	-1E+10	1	-1E+10	1	-1E+10	1	-1E+10	1
4901784	203	C	01/24/2021	10:47	-134.511	43.535	0	1789.70	0	2.1580	0	37.5130	8	29.984	0	1767.837	0	45.9	4	14.2	4	-1E+10	1	-1E+10	1	-1E+10	1	-1E+10	1	-1E+10	1	-1E+10	1
4901784	203	C	01/24/2021	10:47	-134.511	43.535	0	1794.80	0	2.1510	0	37.5150	8	29.986	0	1772.854	0	46.2	4	14.3	4	-1E+10	1	-1E+10	1	-1E+10	1	-1E+10	1	-1E+10	1	-1E+10	1
4901784	203	C	01/24/2021	10:47	-134.511	43.535	0	1799.80	0	2.1470	0	37.5160	8	29.988	0	1777.772	0	46.5	4	14.4	4	-1E+10	1	-1E+10	1	-1E+10	1	-1E+10	1	-1E+10	1	-1E+10	1
4901784	203	C	01/24/2021	10:47	-134.511	43.535	0	1804.90	0	2.1420	0	37.5170	8	29.989	0	1782.788	0	46.7	4	14.5	4	-1E+10	1	-1E+10	1	-1E+10	1	-1E+10	1	-1E+10	1	-1E+10	1
4901784	203	C	01/24/2021	10:47	-134.511	43.535	0	1810.00	0	2.1360	0	37.5180	8	29.990	0	1787.804	0	47.0	4	14.6	4	-1E+10	1	-1E+10	1	-1E+10	1	-1E+10	1	-1E+10	1	-1E+10	1
4901784	203	C	01/24/2021	10:47	-134.511	43.535	0	1815.10	0	2.1320	0	37.5190	8	29.991	0	1792.820	0	47.2	4	14.6	4	-1E+10	1	-1E+10	1	-1E+10	1	-1E+10	1	-1E+10	1	-1E+10	1
4901784	203	C	01/24/2021	10:47	-134.511	43.535	0	1820.20	0	2.1290	0	37.5200	8	29.992	0	1797.836	0	47.4	4	14.7	4	-1E+10	1	-1E+10	1	-1E+10	1	-1E+10	1	-1E+10	1	-1E+10	1
4901784	203	C	01/24/2021	10:47	-134.511	43.535	0	1825.40	0	2.1260	0	37.5200	8	29.993	0	1802.950	0	47.6	4	14.7	4	-1E+10	1	-1E+10	1	-1E+10	1	-1E+10	1	-1E+10	1	-1E+10	1
4901784	203	C	01/24/2021	10:47	-134.511	43.535	0	1830.50	0	2.1230	0	37.5210	8	29.994	0	1807.965	0	47.8	4	14.8	4	-1E+10	1	-1E+10	1	-1E+10	1	-1E+10	1	-1E+10	1	-1E+10	1
4901784	203	C	01/24/2021	10:47	-134.511	43.535	0	1835.60	0	2.1180	0	37.5220	8	29.995	0	1812.981	0	48.0	4	14.8	4	-1E+10	1	-1E+10	1	-1E+10	1	-1E+10	1	-1E+10	1	-1E+10	1
4901784	203	C	01/24/2021	10:47	-134.511	43.535	0	1839.90	0	2.1160	0	37.5220	8	29.995	0	1817.209	0	48.2	4	14.9	4	-1E+10	1	-1E+10	1	-1E+10	1	-1E+10	1	-1E+10	1	-1E+10	1
4901784	203	C	01/24/2021	10:47	-134.511	43.535	0	1844.30	0	2.1100	0	37.5230	8	29.997	0	1821.536	0	48.4	4	15.0	4	-1E+10	1	-1E+10	1	-1E+10	1	-1E+10	1	-1E+10	1	-1E+10	1
4901784	203	C	01/24/2021	10:47	-134.511	43.535	0	1849.50	0	2.1030	0	37.5240	8	29.998	0	1826.650	0	48.7	4	15.1	4	-1E+10	1	-1E+10	1	-1E+10	1	-1E+10	1	-1E+10	1	-1E+10	1
4901784	203	C	01/24/2021	10:47	-134.511	43.535	0	1854.80	0	2.0950	0	37.5250	8	30.000	0	1831.862	0	49.0	4	15.2	4	-1E+10	1	-1E+10	1	-1E+10	1	-1E+10	1	-1E+10	1	-1E+10	1
4901784	203	C	01/24/2021	10:47	-134.511	43.535	0	1860.00	0	2.0880	0	37.5260	8	30.001	0	1836.975	0	49.4	4	15.3	4	-1E+10	1	-1E+10	1	-1E+10	1	-1E+10	1	-1E+10	1	-1E+10	1
4901784	203	C	01/24/2021	10:47	-134.511	43.535	0	1865.40	0	2.0820	0	37.5270	8	30.002	0	1842.285	0	49.7	4	15.4	4	-1E+10	1	-1E+10	1	-1E+10	1	-1E+10	1	-1E+10	1	-1E+10	1
4901784	203	C	01/24/2021	10:47	-134.511	43.535	0	1870.70	0	2.0760	0	37.5280	8	30.004	0	1847.496	0	50.0	4	15.4	4	-1E+10	1	-1E+10	1	-1E+10	1	-1E+10	1	-1E+10	1	-1E+10	1
4901784	203	C	01/24/2021	10:47	-134.511	43.535	0	1875.10	0	2.0720	0	37.5290	8	30.005	0	1851.822	0	50.2	4	15.5	4	-1E+10	1	-1E+10	1	-1E+10	1	-1E+10	1	-1E+10	1	-1E+10	1
4901784	203	C	01/24/2021	10:47	-134.511	43.535	0	1879.60	0	2.0680	0	37.5300	8	30.006	0	1856.247	0	50.6	4	15.6	4	-1E+10	1	-1E+10	1	-1E+10	1	-1E+10	1	-1E+10	1	-1E+10	1
4901784	203	C	01/24/2021	10:47	-134.511	43.535	0	1885.00	0	2.0660	0	37.5300	8	30.006	0	1861.556	0	50.9	4	15.7	4	-1E+10	1	-1E+10	1	-1E+10	1	-1E+10	1	-1E+10	1	-1E+10	1
4901784	203	C	01/24/2021	10:47	-134.511	43.535	0	1890.40	0	2.0520	0	37.5320	8	30.009	0	1866.865	0	51.3	4	15.8	4	-1E+10	1	-1E+10	1	-1E+10	1	-1E+10	1	-1E+10	1	-1E+10	1
4901784	203	C	01/24/2021	10:47	-134.511	43.535	0	1894.90	0	2.0450	0	37.5330	8	30.011	0	1871.289	0	51.6	4	15.9	4	-1E+10	1	-1E+10	1	-1E+10	1	-1E+10	1	-1E+10	1	-1E+10	1
4901784	203	C	01/24/2021	10:47	-134.511	43.535	0	1899.40	0	2.0380	0	37.5340	8	30.012	0	1875.713	0	51.9	4	16.0	4	-1E+10	1	-1E+10	1	-1E+10	1	-1E+10	1	-1E+10	1	-1E+10	1
4901784	203	C	01/24/2021	10:47	-134.511	43.535	0	1904.80	0	2.0310	0	37.5350	8	30.014	0	1881.022	0	52.1	4	16.1	4	-1E+10	1	-1E+10	1	-1E+10	1	-1E+10	1	-1E+10	1	-1E+10	1
4901784	203	C	01/24/2021	10:47	-134.511	43.535	0	1910.30	0	2.0300	0	37.5360	8	30.014	0	1886.429	0	52.3	4	16.2	4	-1E+10	1	-1E+10	1	-1E+10	1	-1E+10	1	-1E+10	1	-1E+10	1
4901784	203	C	01/24/2021	10:47	-134.511	43.535	0	1914.90	0	2.0260	0	37.5360	8	30.015	0	1890.951	0	52.5	4	16.2	4	-1E+10	1	-1E+10	1	-1E+10	1	-1E+10	1	-1E+10	1	-1E+10	1
4901784	203	C	01/24/2021	10:47	-134.511	43.535	0	1920.30	0	2.0200	0	37.5370	8	30.016	0	1896.260	0	52.8	4	16.3	4	-1E+10	1	-1E+10	1	-1E+10	1	-1E+10	1	-1E+10	1	-1E+10	1
4901784	203	C	01/24/2021	10:47	-134.511	43.535	0	1925.40	0	2.0160	0	37.5380	8	30.017	0	1901.273	0	53.1	4	16.4	4	-1E+10	1	-1E+10	1	-1E+10	1	-1E+10	1	-1E+10	1	-1E+10	1
4901784	203	C	01/24/2021	10:47	-134.511	43.535	0	1930.20	0	2.0080	0	37.5390	8	30.019	0	1905.991	0	53.4	4	16.5	4	-1E+10	1	-1E+10	1	-1E+10	1	-1E+10	1	-1E+10	1	-1E+10	1
4901784	203	C	01/24/2021	10:47	-134.511	43.535	0	1935.10	0	2.0020	0	37.5400	8	30.020	0	1910.808	0	53.9	4	16.6	4	-1E+10	1	-1E+10	1	-1E+10	1	-1E+10	1	-1E+10	1	-1E+10	1
4901784	203	C	01/24/2021	10:47	-134.511	43.535	0	1940.10	0	1.9950	0	37.5410	8	30.022	0	1915.723	0	54.2	4	16.7	4	-1E+10	1	-1E+10	1	-1E+10	1	-1E+10	1	-1E+10	1	-1E+10	1
4901784	203	C	01/24/2021	10:47	-134.511	43.535	0	1945.00	0	1.9930	0	37.5420	8	30.023	0	1920.539	0	54.5	4	16.8	4	-1E+10	1	-1E+10	1	-1E+10	1	-1E+10	1	-1E+10	1	-1E+10	1
4901784	203	C	01/24/2021	10:47	-134.511	43.535	0	1949.90	0	1.9880	0	37.5430	8	30.024	0	1925.355	0	54.8	4	16.9	4	-1E+10	1	-1E+10	1	-1E+10	1	-1E+10	1	-1E+10	1	-1E+10	1
4901784	203	C	01/24/2021	10:47	-134.511	43.535	0	1954.90	0	1.9830	0	37.5440	8	30.025	0	1930.270	0	55.0	4	17.0	4	-1E+10	1	-1E+10	1	-1E+10	1	-1E+10	1	-1E+10	1	-1E+10	1
4901784	203	C	01/24/2021	10:47	-134.511	43.535	0	1959.90	0	1.9810	0	37.5440	8	30.025	0	1935.184	0	55.1	4	17.0	4	-1E+10	1	-1E+10	1	-1E+10	1	-1E+10	1	-1E+10	1	-1E+10	1
4901784	203	C	01/24/2021	10:47	-134.511	43.535	0	1965.00	0	1.9810	0	37.5440	8	30.025	0	1940.197	0	55.3	4	17.0	4	-1E+10	1	-1E+10	1	-1E+10	1	-1E+10	1	-1E+10	1	-1E+10	1
4901784	203	C	01/24/2021	10:47	-134.511	43.535	0	1970.10	0	1.9770	0	37.5450	8	30.027	0	1945.209	0	55.6	4	17.1	4	-1E+10	1	-1E+10	1	-1E+10	1	-1E+10	1	-1E+10	1	-1E+10	1
4901784	203	C	01/24/2021	10:47	-134.511	43.535	0	1975.20	0	1.9720	0	37.5460	8	30.028	0	1950.221	0	55.9	4	17.2	4	-1E+10	1	-1E+10	1	-1E+10	1	-1E+10	1	-1E+10	1	-1E+10	1
4901784	203	C	01/24/2021	10:47	-134.511	43.535	0	1980.40	0	1.9650	0	37.5470	8	30.029	0	1955.332	0	56.2	4	17.3	4	-1E+10	1	-1E+10	1	-1E+10	1	-1E+10	1	-1E+10	1	-1E+10	1
4901784	203	C	01/24/2021	10:47	-134.511	43.535	0	1985.50	0	1.9620	0	37.5480	8	30.030	0	1960.344	0	56.3	4	17.4	4	-1E+10	1	-1E+10	1	-1E+10	1	-1E+10	1	-1E+10	1	-1E+10	1
4901784	203	C	01/24/2021	10:47	-134.511	43.535	0	1989.80	0	1.9610	0	37.5480	8	30.031	0	1964.569	0	56.4	4	17.4	4	-1E+10	1	-1E+10	1	-1E+10	1	-1E+10	1	-1E+10	1	-1E+10	1
4901784	203	C	01/24/2021	10:47	-134.511	43.535	0	1994.00	0	1.9600	0	37.5480	8	30.031	0	1968.697	0	56.6	4	17.4	4	-1E+10	1	-1E+10	1	-1E+10	1	-1E+10	1	-1E+10	1	-1E+10	1
4901784	203	C	01/24/2021	10:47	-134.511	43.535	0	1999.80	0	1.9560	0	37.5490	8	30.032	0	1974.396	0	56.9	4	17.5	4	-1E+10	1	-1E+10	1	-1E+10	1	-1E+10	1	-1E+10	1	-1E+10	1
4901784	203	C	01/24/2021	10:47	-134.511	43.535	0	2005.20	0	1.9510	0	37.5500	8	30.033	0	1979.702	0	57.1	4	17.6	4	-1E+10	1	-1E+10	1	-1E+10	1	-1E+10	1	-1E+10	1	-1E+10	1
4901784	203	C	01/24/2021	10:47	-134.511	43.535	0	2010.20	0	1.9460	0	37.5510	8	30.034	0	1984.616	0	57.3	4	17.7	4	-1E+10	1	-1E+10	1	-1E+10	1	-1E+10	1	-1E+10	1	-1E+10	1
4901784	203	C	01/24/2021	10:47	-134.511	43.535	0	2014.80	0	1.9430	0	37.5510	8	30.035	0	1989.136	0	57.5	4	17.7	4	-1E+10	1	-1E+10	1	-1E+10	1	-1E+10	1	-1E+10	1	-1E+10	1
4901784	203	C	01/24/2021	10:47	-134.511	43.535	0	2019.90	0	1.9410	0	37.5520	8	30.036	0	1994.147	0	57.6	4	17.8	4	-1E+10	1	-1E+10	1	-1E+10	1	-1E+10	1	-1E+10	1	-1E+10	1
4901784	203	C	01/24/2021	10:47	-134.511	43.535	0																										
4901784	204	C	02/03/2021	10:44	-134.502	43.507	0	2.00	0	11.5370	0	35.7060	8	27.226	0	1.984	0	251.0	4	94.9	4	-1E+10	1	-1E+10	1	-1E+10	1	-1E+10	1	-1E+10	1	-1E+10	1
4901784	204	C	02/03/2021	10:44	-134.502	43.507	0	3.00	0	11.5370	0	35.7080	8	27.228	0	2.976	0	251.0	4	94.9	4	-1E+10	1	-1E+10	1	-1E+10	1	-1E+10	1	-1E+10	1	-1E+10	1
4901784	204	C	02/03/2021	10:44	-134.502	43.507	0	4.30	0	11.5380	0	35.7080	8	27.228	0	4.266	0	251.2	4	95.0	4	-1E+10	1	-1E+10	1	-1E+10	1	-1E+10	1	-1E+10	1	-1E+10	1
4901784	204	C	02/03/2021	10:44	-134.502	43.507	0	5.70	0	11.5370	0	35.7090	8	27.229	0	5.654	0	251.1	4	94.9	4	-1E+10	1	-1E+10	1	-1E+10	1	-1E+10	1	-1E+10	1	-1E+10	1
4901784	204	C	02/03/2021	10:44	-134.502	43.507	0	7.10	0	11.5400	0	35.7090	8	27.228	0	7.043	0	250.9	4	94.9	4	-1E+10	1	-1E+10	1	-1E+10	1	-1E+10	1	-1E+10	1	-1E+10	1
4901784	204	C	02/03/2021	10:44	-134.502	43.507	0	8.80	0	11.5340	0	35.7100	8	27.230	0	8.730	0	251.0	4	94.9	4	-1E+10	1	-1E+10	1	-1E+10	1	-1E+10	1	-1E+10	1	-1E+10	1
4901784	204	C	02/03/2021	10:44	-134.502	43.507	0	10.60	0	11.5390	0	35.7110	8	27.230	0	10.515	0	251.0	4	94.9	4	-1E+10	1	-1E+10	1	-1E+10	1	-1E+10	1	-1E+10	1	-1E+10	1
4901784	204	C	02/03/2021	10:44	-134.502	43.507	0	12.40	0	11.5400	0	35.7120	8	27.231	0	12.301	0	251.0	4	94.9	4	-1E+10	1	-1E+10	1	-1E+10	1	-1E+10	1	-1E+10	1	-1E+10	1
4901784	204	C	02/03/2021	10:44	-134.502	43.507	0	14.30	0	11.5390	0	35.7120	8	27.231	0	14.185	0	250.9	4	94.9	4	-1E+10	1	-1E+10	1	-1E+10	1	-1E+10	1	-1E+10	1	-1E+10	1
4901784	204	C	02/03/2021	10:44	-134.502	43.507	0	16.20	0	11.5420	0	35.7140	8	27.232	0	16.070	0	250.9	4	94.9	4	-1E+10	1	-1E+10	1	-1E+10	1	-1E+10	1	-1E+10	1	-1E+10	1
4901784	204	C	02/03/2021	10:44	-134.502	43.507	0	18.00	0	11.5390	0	35.7140	8	27.233	0	17.856	0	251.0	4	94.9	4	-1E+10	1	-1E+10	1	-1E+10	1	-1E+10	1	-1E+10	1	-1E+10	1
4901784	204	C	02/03/2021	10:44	-134.502	43.507	0	19.70	0	11.5430	0	35.7150	8	27.233	0	19.542	0	251.0	4	94.9	4	-1E+10	1	-1E+10	1	-1E+10	1	-1E+10	1	-1E+10	1	-1E+10	1
4901784	204	C	02/03/2021	10:44	-134.502	43.507	0	21.30	0	11.5440	0	35.7160	8	27.233	0	21.129	0	250.9	4	94.9	4	-1E+10	1	-1E+10	1	-1E+10	1	-1E+10	1	-1E+10	1	-1E+10	1
4901784	204	C	02/03/2021	10:44	-134.502	43.507	0	23.00	0	11.5450	0	35.7170	8	27.234	0	22.815	0	250.8	4	94.8	4	-1E+10	1	-1E+10	1	-1E+10	1	-1E+10	1	-1E+10	1	-1E+10	1
4901784	204	C	02/03/2021	10:44	-134.502	43.507	0	24.60	0	11.5450	0	35.7170	8	27.234	0	24.402	0	250.8	4	94.9	4	-1E+10	1	-1E+10	1	-1E+10	1	-1E+10	1	-1E+10	1	-1E+10	1
4901784	204	C	02/03/2021	10:44	-134.502	43.507	0	26.10	0	11.5450	0	35.7180	8	27.235	0	25.890	0	250.8	4	94.9	4	-1E+10	1	-1E+10	1	-1E+10	1	-1E+10	1	-1E+10	1	-1E+10	1
4901784	204	C	02/03/2021	10:44	-134.502	43.507	0	27.70	0	11.5450	0	35.7190	8	27.236	0	27.477	0	250.7	4	94.8	4	-1E+10	1	-1E+10	1	-1E+10	1	-1E+10	1	-1E+10	1	-1E+10	1
4901784	204	C	02/03/2021	10:44	-134.502	43.507	0	29.40	0	11.5450	0	35.7200	8	27.237	0	29.163	0	250.6	4	94.8	4	-1E+10	1	-1E+10	1	-1E+10	1	-1E+10	1	-1E+10	1	-1E+10	1
4901784	204	C	02/03/2021	10:44	-134.502	43.507	0	31.00	0	11.5460	0	35.7190	8	27.236	0	30.750	0	250.4	4	94.7	4	-1E+10	1	-1E+10	1	-1E+10	1	-1E+10	1	-1E+10	1	-1E+10	1
4901784	204	C	02/03/2021	10:44	-134.502	43.507	0	32.70	0	11.5460	0	35.7190	8	27.236	0	32.436	0	250.6	4	94.8	4	-1E+10	1	-1E+10	1	-1E+10	1	-1E+10	1	-1E+10	1	-1E+10	1
4901784	204	C	02/03/2021	10:44	-134.502	43.507	0	34.50	0	11.5410	0	35.7190	8	27.237	0	34.222	0	250.4	4	94.7	4	-1E+10	1	-1E+10	1	-1E+10	1	-1E+10	1	-1E+10	1	-1E+10	1
4901784	204	C	02/03/2021	10:44	-134.502	43.507	0	36.10	0	11.5370	0	35.7160	8	27.235	0	35.809	0	250.5	4	94.7	4	-1E+10	1	-1E+10	1	-1E+10	1	-1E+10	1	-1E+10	1	-1E+10	1
4901784	204	C	02/03/2021	10:44	-134.502	43.507	0	37.90	0	11.4760	0	35.7190	8	27.249	0	37.594	0	250.8	4	94.7	4	-1E+10	1	-1E+10	1	-1E+10	1	-1E+10	1	-1E+10	1	-1E+10	1
4901784	204	C	02/03/2021	10:44	-134.502	43.507	0	39.60	0	11.4640	0	35.7200	8	27.252	0	39.280	0	250.9	4	94.7	4	-1E+10	1	-1E+10	1	-1E+10	1	-1E+10	1	-1E+10	1	-1E+10	1
4901784	204	C	02/03/2021	10:44	-134.502	43.507	0	41.30	0	11.4560	0	35.7240	8	27.257	0	40.966	0	250.7	4	94.7	4	-1E+10	1	-1E+10	1	-1E+10	1	-1E+10	1	-1E+10	1	-1E+10	1
4901784	204	C	02/03/2021	10:44	-134.502	43.507	0	43.10	0	11.4550	0	35.7200	8	27.254	0	42.752	0	250.9	4	94.7	4	-1E+10	1	-1E+10	1	-1E+10	1	-1E+10	1	-1E+10	1	-1E+10	1
4901784	204	C	02/03/2021	10:44	-134.502	43.507	0	44.70	0	11.4440	0	35.7200	8	27.256	0	44.338	0	250.8	4	94.7	4	-1E+10	1	-1E+10	1	-1E+10	1	-1E+10	1	-1E+10	1	-1E+10	1
4901784	204	C	02/03/2021	10:44	-134.502	43.507	0	46.30	0	11.4380	0	35.7200	8	27.257	0	45.925	0	250.9	4	94.7	4	-1E+10	1	-1E+10	1	-1E+10	1	-1E+10	1	-1E+10	1	-1E+10	1
4901784	204	C	02/03/2021	10:44	-134.502	43.507	0	48.00	0	11.4310	0	35.7210	8	27.259	0	47.611	0	250.9	4	94.7	4	-1E+10	1	-1E+10	1	-1E+10	1	-1E+10	1	-1E+10	1	-1E+10	1
4901784	204	C	02/03/2021	10:44	-134.502	43.507	0	49.70	0	11.4320	0	35.7190	8	27.257	0	49.297	0	251.0	4	94.7	4	-1E+10	1	-1E+10	1	-1E+10	1	-1E+10	1	-1E+10	1	-1E+10	1
4901784	204	C	02/03/2021	10:44	-134.502	43.507	0	51.40	0	11.3890	0	35.7190	8	27.266	0	50.983	0	251.2	4	94.7	4	-1E+10	1	-1E+10	1	-1E+10	1	-1E+10	1	-1E+10	1	-1E+10	1
4901784	204	C	02/03/2021	10:44	-134.502	43.507	0	53.10	0	11.3700	0	35.7180	8	27.268	0	52.669	0	251.4	4	94.7	4	-1E+10	1	-1E+10	1	-1E+10	1	-1E+10	1	-1E+10	1	-1E+10	1
4901784	204	C	02/03/2021	10:44	-134.502	43.507	0	54.90	0	11.3100	0	35.7240	8	27.284	0	54.455	0	251.4	4	94.6	4	-1E+10	1	-1E+10	1	-1E+10	1	-1E+10	1	-1E+10	1	-1E+10	1
4901784	204	C	02/03/2021	10:44	-134.502	43.507	0	56.70	0	11.3150	0	35.7190	8	27.279	0	56.240	0	251.3	4	94.6	4	-1E+10	1	-1E+10	1	-1E+10	1	-1E+10	1	-1E+10	1	-1E+10	1
4901784	204	C	02/03/2021	10:44	-134.502	43.507	0	58.50	0	11.3330	0	35.7100	8	27.269	0	58.025	0	251.3	4	94.6	4	-1E+10	1	-1E+10	1	-1E+10	1	-1E+10	1	-1E+10	1	-1E+10	1
4901784	204	C	02/03/2021	10:44	-134.502	43.507	0	60.20	0	11.2310	0	35.7120	8	27.290	0	59.711	0	251.6	4	94.5	4	-1E+10	1	-1E+10	1	-1E+10	1	-1E+10	1	-1E+10	1	-1E+10	1
4901784	204	C	02/03/2021	10:44	-134.502	43.507	0	62.00	0	11.2150	0	35.7150	8	27.295	0	61.496	0	251.8	4	94.6	4	-1E+10	1	-1E+10	1	-1E+10	1	-1E+10	1	-1E+10	1	-1E+10	1
4901784	204	C	02/03/2021	10:44	-134.502	43.507	0	63.80	0	11.1600	0	35.7170	8	27.307	0	63.281	0	252.0	4	94.5	4	-1E+10	1	-1E+10	1	-1E+10	1	-1E+10	1	-1E+10	1	-1E+10	1
4901784	204	C	02/03/2021	10:44	-134.502	43.507	0	65.60	0	11.1370	0	35.7180	8	27.312	0	65.066	0	252.1	4	94.5	4	-1E+10	1	-1E+10	1	-1E+10	1	-1E+10	1	-1E+10	1	-1E+10	1
4901784	204	C	02/03/2021	10:44	-134.502	43.507	0	67.40	0	11.1350	0	35.7190	8	27.313	0	66.851	0	251.9	4	94.5	4	-1E+10	1	-1E+10	1	-1E+10	1	-1E+10	1	-1E+10	1	-1E+10	1
4901784	204	C	02/03/2021	10:44	-134.502	43.507	0	69.10	0	11.1270	0	35.7200	8	27.315	0	68.537	0	252.1	4	94.5	4	-1E+10	1	-1E+10	1	-1E+10	1	-1E+10	1	-1E+10	1	-1E+10	1
4901784	204	C	02/03/2021	10:44	-134.502	43.507	0	70.80	0	11.1190	0	35.7190	8	27.316	0	70.223	0	252.2	4	94.5	4	-1E+10	1	-1E+10	1	-1E+10	1	-1E+10	1	-1E+10	1	-1E+10	1
4901784	204	C	02/03/2021	10:44	-134.502	43.507	0	72.70	0	11.1120	0	35.7190	8	27.317	0	72.107	0	252.0	4	94.5	4	-1E+10	1	-1E+10	1	-1E+10	1	-1E+10	1	-1E+10	1	-1E+10	1
4901784	204	C	02/03/2021	10:44	-134.502	43.507	0	74.50	0	11.0840	0	35.7210	8	27.324	0	73.892	0	251.9	4	94.4	4	-1E+10	1	-1E+10	1	-1E+10	1	-1E+10	1	-1E+10	1	-1E+10	1
4901784	204	C	02/03/2021	10:44	-134.502	43.507	0	76.30	0	11.0520	0	35.7220	8	27.331	0	75.677	0	252.2	4	94.4	4	-1E+10	1	-1E+10	1	-1E+10	1	-1E+10	1	-1E+10	1	-1E+10	1
4901784	204	C	02/03/2021	10:44	-134.502	43.507	0	78.10	0	11.0240	0	35.7230	8	27.337	0	77.462	0	252.0	4	94.3	4	-1E+10	1	-1E+10	1	-1E+10	1	-1E+10	1	-1E+10	1	-1E+10	1
4901784	204	C	02/03/2021	10:44	-134.502	43.507	0	79.90	0	10.9980	0	35.7240	8	27.342	0	79.247	0	252.0	4	94.2	4	-1E+10	1	-1E+10	1	-1E+10	1	-1E+10	1	-1E+10	1	-1E+10	1
4901784	204	C	02/03/2021	10:44	-134.502	43.507	0	81.70	0	10.9880	0	35.7260	8	27.346	0	81.032	0	252.0	4	94.2	4	-1E+10	1	-1E+10	1	-1E+10	1	-1E+10	1	-1E+10	1	-1E+10	1
4901784	204	C	02/03/2021	10:44	-134.502	43.507	0	83.50	0	10.9880	0	35.7270	8	27.347	0	82.817	0	251.8	4	94.1	4	-1E+10	1	-1E+10	1	-1E+10	1	-1E+10	1	-1E+10	1	-1E+10	1
4901784	204	C	02/03/2021	10:44	-134.502	43.507	0	85.20	0	10.9890	0	35.7280	8	27.347	0	84.503	0	251.7	4	94.1	4	-1E+10	1	-1E+10	1	-1E+10	1	-1E+10	1	-1E+10	1	-1E+10	1
4901784	204	C	02/03/2021	10:44	-134.502	43.507	0	87.10	0	10.9890	0	35.7290	8	27.348	0	86.387	0	251.7	4	94.1	4	-1E+10	1	-1E+10	1	-1E+10	1	-1E+10	1	-1E+10	1	-1E+10	1
4901784	204	C	02/03/2021	10:44	-134.502	43.507	0	88.90	0	10.9890	0	35.7300	8	27.349	0	88.172	0	251.4	4	94.0	4	-1E+10	1	-1E+10	1	-1E+10	1	-1E+10	1	-1E+10	1	-1E+10	1
4901784	204	C	02/03/2021	10:44	-134.502	43.507	0	90.60	0	10.9890	0	35.7310	8	27.350	0	89.857	0	251.3	4	94.0	4	-1E+10	1	-1E+10	1	-1E+10	1	-1E+10	1	-1E+10	1	-1E+10	1
4901784	204	C	02/03/2021	10:44	-134.502	43.507	0	92.40	0	10.9890	0	35.7320	8	27.350	0	91.642	0	250.8	4	93.8	4	-1E+10	1	-1E+10	1	-1E+10	1	-1E+10	1	-1E+10	1	-1E+10	1
4901784	204	C	02/03/2021	10:44	-134.502	43.507	0	94.10	0	10.9890	0	35.7320	8	27.350	0	93.328	0	250.4	4	93.6	4	-1E+10	1	-1E+10	1	-1E+10	1	-1E+10	1	-1E+10	1	-1E+10	1
4901784	204	C	02/03/2021	10:44	-134.502	43.507	0	95.80	0	10.9890	0	35.7320	8	27.351	0	95.013	0	249.8	4	93.4	4	-1E+10	1	-1E+10	1	-1E+10	1	-1E+10	1	-1E+10	1	-1E+10	1
4901784	204	C	02/03/2021	10:44	-134.502	43.507	0	97.60	0	10.9890	0	35.7320	8	27.351	0	96.798	0	248.9	4	93.1	4	-1E+10	1	-1E+10	1	-1E+10	1	-1E+10	1	-1E+10	1	-1E+10	1
4901784	204	C	02/03/2021	10:44	-134.502	43.507	0	99.20	0	10.9860	0	35.7320	8	27.351	0	98.385	0	247.7	4	92.6	4	-1E+10	1	-1E+10	1	-1E+10	1	-1E+10	1	-1E+10	1	-1E+10	1
4901784	204	C	02/03/2021	10:44	-134.502	43.507	0	102.60	0	10.9600	0	35.7500	8	27.370	0	101.756	0	244.3	4	91.3	4	-1E+10	1	-1E+10	1	-1E+10	1	-1E+10	1	-1E+10	1	-1E+10	1
4901784	204	C	02/03/2021	10:44	-134.502	43.507	0	105.20	0	10.9440	0	35.7540	8	27.376	0	104.334	0	241.7	4	90.3	4	-1E+10	1	-1E+10	1	-1E+10	1	-1E+10	1	-1E+10	1	-1E+10	1
4901784	204	C	02/03/2021	10:44	-134.502	43.507	0	107.80	0	10.8320	0	35.7740	8	27.412	0	106.912	0	238.3	4	88.8	4	-1E+10	1	-1E+10	1	-1E+10	1	-1E+10	1	-1E+10	1	-1E+10	1
4901784	204	C	02/03/2021	10:44	-134.502	43.507	0	110.10	0	10.7190	0	35.7950	8	27.449	0	109.192	0	235.0	4	87.4	4	-1E+10	1	-1E+10	1	-1E+10	1	-1E+10	1	-1E+10	1	-1E+10	1
4901784	204	C	02/03/2021	10:44	-134.502	43.507	0	112.60	0	10.4270	0	35.8630	8	27.554	0	111.671	0	230.8	4	85.3	4	-1E+10	1	-1E+10	1	-1E+10	1	-1E+10	1	-1E+10	1	-1E+10	1
4901784	204	C	02/03/2021	10:44	-134.502	43.507	0	115.40	0	10.0990	0	35.9510	8	27.681	0	114.447	0	226.0	4	83.0	4	-1E+10	1	-1E+10	1	-1E+10	1	-1E+10	1	-1E+10	1	-1E+10	1
4901784	204	C	02/03/2021	10:44	-134.502	43.507	0	117.60	0	9.8420	0	36.0290	8	27.786	0	116.628	0	223.2	4	81.6	4	-1E+10	1	-1E+10	1	-1E+10	1	-1E+10	1	-1E+10	1	-1E+10	1
4901784	204	C	02/03/2021	10:44	-134.502	43.507	0	120.00	0	9.6290	0	36.1090	8	27.885	0	119.008	0	220.0	4	80.1	4	-1E+10	1	-1E+10	1	-1E+10	1	-1E+10	1	-1E+10	1	-1E+10	1
4901784	204	C	02/03/2021	10:44	-134.502	43.507	0	122.40	0	9.4680	0	36.1810	8	27.969	0	121.387	0	218.2	4	79.2	4	-1E+10	1	-1E+10	1	-1E+10	1	-1E+10	1	-1E+10	1	-1E+10	1
4901784	204	C	02/03/2021	10:44	-134.502	43.507	0	124.50	0	9.4400	0	36.1770	8	27.970	0	123.469	0	216.1	4	78.4	4	-1E+10	1	-1E+10	1	-1E+10	1	-1E+10	1	-1E+10	1	-1E+10	1
4901784	204	C	02/03/2021	10:44	-134.502	43.507	0	127.40	0	9.2700	0	36.2010	8	28.017	0	126.344	0	212.9	4	77.0	4	-1E+10	1	-1E+10	1	-1E+10	1	-1E+10	1	-1E+10	1	-1E+10	1
4901784	204	C	02/03/2021	10:44	-134.502	43.507	0	130.30	0	8.9970	0	36.2740	8	28.120	0	129.219	0	210.5	4	75.7	4	-1E+10	1	-1E+10	1	-1E+10	1	-1E+10	1	-1E+10	1	-1E+10	1
4901784	204	C	02/03/2021	10:44	-134.502	43.507	0	132.60	0	8.9800	0	36.3630	8	28.192	0	131.500	0	207.6	4	74.7	4	-1E+10	1	-1E+10	1	-1E+10	1	-1E+10	1	-1E+10	1	-1E+10	1
4901784	204	C	02/03/2021	10:44	-134.502	43.507	0	135.10	0	8.9310	0	36.4590	8	28.275	0	133.978	0	205.6	4	73.9	4	-1E+10	1	-1E+10	1	-1E+10	1	-1E+10	1	-1E+10	1	-1E+10	1
4901784	204	C	02/03/2021	10:44	-134.502	43.507	0	137.60	0	8.8850	0	36.5350	8	28.343	0	136.456	0	204.1	4	73.4	4	-1E+10	1	-1E+10	1	-1E+10	1	-1E+10	1	-1E+10	1	-1E+10	1
4901784	204	C	02/03/2021	10:44	-134.502	43.507	0	140.20	0	8.8500	0	36.5590	8	28.367	0	139.034	0	203.0	4	72.9	4	-1E+10	1	-1E+10	1	-1E+10	1	-1E+10	1	-1E+10	1	-1E+10	1
4901784	204	C	02/03/2021	10:44	-134.502	43.507	0	142.80	0	8.8330	0	36.5660	8	28.375	0	141.611	0	201.4	4	72.3	4	-1E+10	1	-1E+10	1	-1E+10	1	-1E+10	1	-1E+10	1	-1E+10	1
4901784	204	C	02/03/2021	10:44	-134.502	43.507	0	145.30	0	8.7440	0	36.6030	8	28.419	0	144.090	0	199.5	4	71.5	4	-1E+10	1	-1E+10	1	-1E+10	1	-1E+10	1	-1E+10	1	-1E+10	1
4901784	204	C	02/03/2021	10:44	-134.502	43.507	0	147.90	0	8.6320	0	36.6410	8	28.467	0	146.667	0	197.8	4	70.8	4	-1E+10	1	-1E+10	1	-1E+10	1	-1E+10	1	-1E+10	1	-1E+10	1
4901784	204	C	02/03/2021	10:44	-134.502	43.507	0	149.70	0	8.5650	0	36.6610	8	28.493	0	148.451	0	196.6	4	70.2	4	-1E+10	1	-1E+10	1	-1E+10	1	-1E+10	1	-1E+10	1	-1E+10	1
4901784	204	C	02/03/2021	10:44	-134.502	43.507	0	152.20	0	8.3870	0	36.7140	8	28.563	0	150.930	0	195.7	4	69.6	4	-1E+10	1	-1E+10	1	-1E+10	1	-1E+10	1	-1E+10	1	-1E+10	1
4901784	204	C	02/03/2021	10:44	-134.502	43.507	0	154.80	0	8.3210	0	36.7420	8	28.596	0	153.507	0	194.2	4	69.0	4	-1E+10	1	-1E+10	1	-1E+10	1	-1E+10	1	-1E+10	1	-1E+10	1
4901784	204	C	02/03/2021	10:44	-134.502	43.507	0	157.40	0	8.2740	0	36.7500	8	28.609	0	156.084	0	192.9	4	68.5	4	-1E+10	1	-1E+10	1	-1E+10	1	-1E+10	1	-1E+10	1	-1E+10	1
4901784	204	C	02/03/2021	10:44	-134.502	43.507	0	160.00	0	8.2050	0	36.7790	8	28.643	0	158.662	0	191.1	4	67.8	4	-1E+10	1	-1E+10	1	-1E+10	1	-1E+10	1	-1E+10	1	-1E+10	1
4901784	204	C	02/03/2021	10:44	-134.502	43.507	0	162.50	0	8.0690	0	36.8380	8	28.711	0	161.140	0	190.1	4	67.2	4	-1E+10	1	-1E+10	1	-1E+10	1	-1E+10	1	-1E+10	1	-1E+10	1
4901784	204	C	02/03/2021	10:44	-134.502	43.507	0	165.20	0	7.9830	0	36.8930	8	28.767	0	163.816	0	189.2	4	66.8	4	-1E+10	1	-1E+10	1	-1E+10	1	-1E+10	1	-1E+10	1	-1E+10	1
4901784	204	C	02/03/2021	10:44	-134.502	43.507	0	167.00	0	7.9480	0	36.9490	8	28.817	0	165.600	0	188.3	4	66.5	4	-1E+10	1	-1E+10	1	-1E+10	1	-1E+10	1	-1E+10	1	-1E+10	1
4901784	204	C	02/03/2021	10:44	-134.502	43.507	0	169.30	0	7.9050	0	36.9780	8	28.846	0	167.880	0	188.0	4	66.3	4	-1E+10	1	-1E+10	1	-1E+10	1	-1E+10	1	-1E+10	1	-1E+10	1
4901784	204	C	02/03/2021	10:44	-134.502	43.507	0	172.00	0	7.9020	0	36.9800	8	28.848	0	170.556	0	187.9	4	66.3	4	-1E+10	1	-1E+10	1	-1E+10	1	-1E+10	1	-1E+10	1	-1E+10	1
4901784	204	C	02/03/2021	10:44	-134.502	43.507	0	175.20	0	7.8900	0	36.9880	8	28.856	0	173.728	0	188.0	4	66.3	4	-1E+10	1	-1E+10	1	-1E+10	1	-1E+10	1	-1E+10	1	-1E+10	1
4901784	204	C	02/03/2021	10:44	-134.502	43.507	0	177.50	0	7.7940	0	37.0100	8	28.888	0	176.008	0	188.8	4	66.5	4	-1E+10	1	-1E+10	1	-1E+10	1	-1E+10	1	-1E+10	1	-1E+10	1
4901784	204	C	02/03/2021	10:44	-134.502	43.507	0	179.90	0	7.7080	0	37.0090	8	28.901	0	178.387	0	189.0	4	66.4	4	-1E+10	1	-1E+10	1	-1E+10	1	-1E+10	1	-1E+10	1	-1E+10	1
4901784	204	C	02/03/2021	10:44	-134.502	43.507	0	182.90	0	7.6970	0	37.0270	8	28.917	0	181.360	0	187.9	4	66.0	4	-1E+10	1	-1E+10	1	-1E+10	1	-1E+10	1	-1E+10	1	-1E+10	1
4901784	204	C	02/03/2021	10:44	-134.502	43.507	0	185.20	0	7.6790	0	37.0420	8	28.931	0	183.640	0	186.8	4	65.6	4	-1E+10	1	-1E+10	1	-1E+10	1	-1E+10	1	-1E+10	1	-1E+10	1
4901784	204	C	02/03/2021	10:44	-134.502	43.507	0	187.60	0	7.6700	0	37.0750	8	28.959	0	186.018	0	185.3	4	65.1	4	-1E+10	1	-1E+10	1	-1E+10	1	-1E+10	1	-1E+10	1	-1E+10	1
4901784	204	C	02/03/2021	10:44	-134.502	43.507	0	190.00	0	7.7190	0	37.1030	8	28.973	0	188.397	0	183.6	4	64.6	4	-1E+10	1	-1E+10	1	-1E+10	1	-1E+10	1	-1E+10	1	-1E+10	1
4901784	204	C	02/03/2021	10:44	-134.502	43.507	0	192.50	0	7.6700	0	37.1170	8	28.992	0	190.875	0	182.4	4	64.1	4	-1E+10	1	-1E+10	1	-1E+10	1	-1E+10	1	-1E+10	1	-1E+10	1
4901784	204	C	02/03/2021	10:44	-134.502	43.507	0	195.00	0	7.7050	0	37.1450	8	29.008	0	193.352	0	180.4	4	63.5	4	-1E+10	1	-1E+10	1	-1E+10	1	-1E+10	1	-1E+10	1	-1E+10	1
4901784	204	C	02/03/2021	10:44	-134.502	43.507	0	197.60	0	7.7470	0	37.1660	8	29.019	0	195.929	0	178.7	4	62.9	4	-1E+10	1	-1E+10	1	-1E+10	1	-1E+10	1	-1E+10	1	-1E+10	1
4901784	204	C	02/03/2021	10:44	-134.502	43.507	0	200.20	0	7.7590	0	37.1700	8	29.020	0	198.506	0	177.7	4	62.6	4	-1E+10	1	-1E+10	1	-1E+10	1	-1E+10	1	-1E+10	1	-1E+10	1
4901784	204	C	02/03/2021	10:44	-134.502	43.507	0	202.70	0	7.7590	0	37.1850	8	29.032	0	200.984	0	176.2	4	62.1	4	-1E+10	1	-1E+10	1	-1E+10	1	-1E+10	1	-1E+10	1	-1E+10	1
4901784	204	C	02/03/2021	10:44	-134.502	43.507	0	205.20	0	7.7300	0	37.2120	8	29.058	0	203.461	0	175.2	4	61.7	4	-1E+10	1	-1E+10	1	-1E+10	1	-1E+10	1	-1E+10	1	-1E+10	1
4901784	204	C	02/03/2021	10:44	-134.502	43.507	0	207.80	0	7.7130	0	37.2180	8	29.065	0	206.038	0	174.7	4	61.5	4	-1E+10	1	-1E+10	1	-1E+10	1	-1E+10	1	-1E+10	1	-1E+10	1
4901784	204	C	02/03/2021	10:44	-134.502	43.507	0	210.30	0	7.7020	0	37.2220	8	29.070	0	208.515	0	173.8	4	61.2	4	-1E+10	1	-1E+10	1	-1E+10	1	-1E+10	1	-1E+10	1	-1E+10	1
4901784	204	C	02/03/2021	10:44	-134.502	43.507	0	212.10	0	7.6970	0	37.2240	8	29.072	0	210.299	0	173.2	4	60.9	4	-1E+10	1	-1E+10	1	-1E+10	1	-1E+10	1	-1E+10	1	-1E+10	1
4901784	204	C	02/03/2021	10:44	-134.502	43.507	0	214.60	0	7.6820	0	37.2320	8	29.081	0	212.777	0	171.9	4	60.5	4	-1E+10	1	-1E+10	1	-1E+10	1	-1E+10	1	-1E+10	1	-1E+10	1
4901784	204	C	02/03/2021	10:44	-134.502	43.507	0	217.20	0	7.6700	0	37.2390	8	29.088	0	215.353	0	170.6	4	60.0	4	-1E+10	1	-1E+10	1	-1E+10	1	-1E+10	1	-1E+10	1	-1E+10	1
4901784	204	C	02/03/2021	10:44	-134.502	43.507	0	219.80	0	7.6530	0	37.2460	8	29.096	0	217.930	0	169.2	4	59.5	4	-1E+10	1	-1E+10	1	-1E+10	1	-1E+10	1	-1E+10	1	-1E+10	1
4901784	204	C	02/03/2021	10:44	-134.502	43.507	0	222.40	0	7.6350	0	37.2590	8	29.109	0	220.506	0	168.0	4	59.1	4	-1E+10	1	-1E+10	1	-1E+10	1	-1E+10	1	-1E+10	1	-1E+10	1
4901784	204	C	02/03/2021	10:44	-134.502	43.507	0	225.00	0	7.6160	0	37.2590	8	29.112	0	223.083	0	167.3	4	58.8	4	-1E+10	1	-1E+10	1	-1E+10	1	-1E+10	1	-1E+10	1	-1E+10	1
4901784	204	C	02/03/2021	10:44	-134.502	43.507	0	227.60	0	7.5390	0	37.2610	8	29.125	0	225.659	0	166.3	4	58.3	4	-1E+10	1	-1E+10	1	-1E+10	1	-1E+10	1	-1E+10	1	-1E+10	1
4901784	204	C	02/03/2021	10:44	-134.502	43.507	0	230.20	0	7.4890	0	37.2720	8	29.142	0	228.236	0	164.8	4	57.7	4	-1E+10	1	-1E+10	1	-1E+10	1	-1E+10	1	-1E+10	1	-1E+10	1
4901784	204	C	02/03/2021	10:44	-134.502	43.507	0	232.80	0	7.4570	0	37.2790	8	29.152	0	230.812	0	164.0	4	57.4	4	-1E+10	1	-1E+10	1	-1E+10	1	-1E+10	1	-1E+10	1	-1E+10	1
4901784	204	C	02/03/2021	10:44	-134.502	43.507	0	234.50	0	7.4490	0	37.2810	8	29.155	0	232.497	0	163.5	4	57.2	4	-1E+10	1	-1E+10	1	-1E+10	1	-1E+10	1	-1E+10	1	-1E+10	1
4901784	204	C	02/03/2021	10:44	-134.502	43.507	0	237.20	0	7.4410	0	37.2830	8	29.158	0	235.172	0	162.7	4	57.0	4	-1E+10	1	-1E+10	1	-1E+10	1	-1E+10	1	-1E+10	1	-1E+10	1
4901784	204	C	02/03/2021	10:44	-134.502	43.507	0	239.90	0	7.4270	0	37.2840	8	29.160	0	237.847	0	161.8	4	56.6	4	-1E+10	1	-1E+10	1	-1E+10	1	-1E+10	1	-1E+10	1	-1E+10	1
4901784	204	C	02/03/2021	10:44	-134.502	43.507	0	242.70	0	7.4070	0	37.2870	8	29.166	0	240.622	0	160.7	4	56.2	4	-1E+10	1	-1E+10	1	-1E+10	1	-1E+10	1	-1E+10	1	-1E+10	1
4901784	204	C	02/03/2021	10:44	-134.502	43.507	0	245.40	0	7.3780	0	37.2920	8	29.174	0	243.297	0	159.7	4	55.8	4	-1E+10	1	-1E+10	1	-1E+10	1	-1E+10	1	-1E+10	1	-1E+10	1
4901784	204	C	02/03/2021	10:44	-134.502	43.507	0	247.20	0	7.3610	0	37.2950	8	29.179	0	245.080	0	158.9	4	55.5	4	-1E+10	1	-1E+10	1	-1E+10	1	-1E+10	1	-1E+10	1	-1E+10	1
4901784	204	C	02/03/2021	10:44	-134.502	43.507	0	249.90	0	7.3310	0	37.3010	8	29.188	0	247.756	0	158.0	4	55.2	4	-1E+10	1	-1E+10	1	-1E+10	1	-1E+10	1	-1E+10	1	-1E+10	1
4901784	204	C	02/03/2021	10:44	-134.502	43.507	0	252.60	0	7.3030	0	37.3040	8	29.195	0	250.431	0	157.0	4	54.8	4	-1E+10	1	-1E+10	1	-1E+10	1	-1E+10	1	-1E+10	1	-1E+10	1
4901784	204	C	02/03/2021	10:44	-134.502	43.507	0	255.30	0	7.2760	0	37.3070	8	29.201	0	253.106	0	156.2	4	54.5	4	-1E+10	1	-1E+10	1	-1E+10	1	-1E+10	1	-1E+10	1	-1E+10	1
4901784	204	C	02/03/2021	10:44	-134.502	43.507	0	258.00	0	7.2410	0	37.3110	8	29.210	0	255.781	0	155.3	4	54.1	4	-1E+10	1	-1E+10	1	-1E+10	1	-1E+10	1	-1E+10	1	-1E+10	1
4901784	204	C	02/03/2021	10:44	-134.502	43.507	0	259.80	0	7.2120	0	37.3150	8	29.217	0	257.565	0	154.8	4	53.9	4	-1E+10	1	-1E+10	1	-1E+10	1	-1E+10	1	-1E+10	1	-1E+10	1
4901784	204	C	02/03/2021	10:44	-134.502	43.507	0	262.60	0	7.1920	0	37.3160	8	29.221	0	260.339	0	154.1	4	53.7	4	-1E+10	1	-1E+10	1	-1E+10	1	-1E+10	1	-1E+10	1	-1E+10	1
4901784	204	C	02/03/2021	10:44	-134.502	43.507	0	265.20	0	7.1640	0	37.3170	8	29.226	0	262.915	0	153.4	4	53.4	4	-1E+10	1	-1E+10	1	-1E+10	1	-1E+10	1	-1E+10	1	-1E+10	1
4901784	204	C	02/03/2021	10:44	-134.502	43.507	0	267.10	0	7.1590	0	37.3170	8	29.226	0	264.797	0	152.8	4	53.2	4	-1E+10	1	-1E+10	1	-1E+10	1	-1E+10	1	-1E+10	1	-1E+10	1
4901784	204	C	02/03/2021	10:44	-134.502	43.507	0	269.80	0	7.1240	0	37.3170	8	29.232	0	267.472	0	152.0	4	52.8	4	-1E+10	1	-1E+10	1	-1E+10	1	-1E+10	1	-1E+10	1	-1E+10	1
4901784	204	C	02/03/2021	10:44	-134.502	43.507	0	273.20	0	7.0830	0	37.3200	8	29.240	0	270.841	0	151.1	4	52.5	4	-1E+10	1	-1E+10	1	-1E+10	1	-1E+10	1	-1E+10	1	-1E+10	1
4901784	204	C	02/03/2021	10:44	-134.502	43.507	0	275.10	0	7.0690	0	37.3220	8	29.244	0	272.723	0	150.7	4	52.3	4	-1E+10	1	-1E+10	1	-1E+10	1	-1E+10	1	-1E+10	1	-1E+10	1
4901784	204	C	02/03/2021	10:44	-134.502	43.507	0	277.50	0	7.0590	0	37.3200	8	29.243	0	275.101	0	150.1	4	52.1	4	-1E+10	1	-1E+10	1	-1E+10	1	-1E+10	1	-1E+10	1	-1E+10	1
4901784	204	C	02/03/2021	10:44	-134.502	43.507	0	279.80	0	7.0270	0	37.3210	8	29.249	0	277.379	0	149.3	4	51.8	4	-1E+10	1	-1E+10	1	-1E+10	1	-1E+10	1	-1E+10	1	-1E+10	1
4901784	204	C	02/03/2021	10:44	-134.502	43.507	0	282.10	0	6.9910	0	37.3240	8	29.257	0	279.658	0	148.4	4	51.4	4	-1E+10	1	-1E+10	1	-1E+10	1	-1E+10	1	-1E+10	1	-1E+10	1
4901784	204	C	02/03/2021	10:44	-134.502	43.507	0	285.30	0	6.9450	0	37.3280	8	29.266	0	282.828	0	147.2	4	51.0	4	-1E+10	1	-1E+10	1	-1E+10	1	-1E+10	1	-1E+10	1	-1E+10	1
4901784	204	C	02/03/2021	10:44	-134.502	43.507	0	287.70	0	6.9060	0	37.3290	8	29.273	0	285.205	0	146.7	4	50.7	4	-1E+10	1	-1E+10	1	-1E+10	1	-1E+10	1	-1E+10	1	-1E+10	1
4901784	204	C	02/03/2021	10:44	-134.502	43.507	0	290.20	0	6.8880	0	37.3300	8	29.276	0	287.682	0	146.0	4	50.5	4	-1E+10	1	-1E+10	1	-1E+10	1	-1E+10	1	-1E+10	1	-1E+10	1
4901784	204	C	02/03/2021	10:44	-134.502	43.507	0	292.60	0	6.8770	0	37.3280	8	29.276	0	290.059	0	145.2	4	50.2	4	-1E+10	1	-1E+10	1	-1E+10	1	-1E+10	1	-1E+10	1	-1E+10	1
4901784	204	C	02/03/2021	10:44	-134.502	43.507	0	295.10	0	6.8170	0	37.3320	8	29.288	0	292.536	0	144.4	4	49.9	4	-1E+10	1	-1E+10	1	-1E+10	1	-1E+10	1	-1E+10	1	-1E+10	1
4901784	204	C	02/03/2021	10:44	-134.502	43.507	0	297.50	0	6.7810	0	37.3330	8	29.294	0	294.913	0	144.0	4	49.7	4	-1E+10	1	-1E+10	1	-1E+10	1	-1E+10	1	-1E+10	1	-1E+10	1
4901784	204	C	02/03/2021	10:44	-134.502	43.507	0	300.00	0	6.7540	0	37.3350	8	29.299	0	297.390	0	143.4	4	49.5	4	-1E+10	1	-1E+10	1	-1E+10	1	-1E+10	1	-1E+10	1	-1E+10	1
4901784	204	C	02/03/2021	10:44	-134.502	43.507	0	302.50	0	6.7420	0	37.3350	8	29.301	0	299.866	0	143.1	4	49.3	4	-1E+10	1	-1E+10	1	-1E+10	1	-1E+10	1	-1E+10	1	-1E+10	1
4901784	204	C	02/03/2021	10:44	-134.502	43.507	0	305.00	0	6.7350	0	37.3360	8	29.303	0	302.343	0	142.6	4	49.1	4	-1E+10	1	-1E+10	1	-1E+10	1	-1E+10	1	-1E+10	1	-1E+10	1
4901784	204	C	02/03/2021	10:44	-134.502	43.507	0	307.50	0	6.7150	0	37.3360	8	29.306	0	304.819	0	141.9	4	48.9	4	-1E+10	1	-1E+10	1	-1E+10	1	-1E+10	1	-1E+10	1	-1E+10	1
4901784	204	C	02/03/2021	10:44	-134.502	43.507	0	310.00	0	6.6990	0	37.3350	8	29.307	0	307.295	0	141.1	4	48.6	4	-1E+10	1	-1E+10	1	-1E+10	1	-1E+10	1	-1E+10	1	-1E+10	1
4901784	204	C	02/03/2021	10:44	-134.502	43.507	0	312.50	0	6.6760	0	37.3370	8	29.312	0	309.772	0	140.1	4	48.2	4	-1E+10	1	-1E+10	1	-1E+10	1	-1E+10	1	-1E+10	1	-1E+10	1
4901784	204	C	02/03/2021	10:44	-134.502	43.507	0	315.10	0	6.6450	0	37.3360	8	29.316	0	312.347	0	139.1	4	47.8	4	-1E+10	1	-1E+10	1	-1E+10	1	-1E+10	1	-1E+10	1	-1E+10	1
4901784	204	C	02/03/2021	10:44	-134.502	43.507	0	317.60	0	6.6080	0	37.3370	8	29.322	0	314.823	0	138.1	4	47.5	4	-1E+10	1	-1E+10	1	-1E+10	1	-1E+10	1	-1E+10	1	-1E+10	1
4901784	204	C	02/03/2021	10:44	-134.502	43.507	0	320.10	0	6.5700	0	37.3390	8	29.329	0	317.300	0	137.1	4	47.1	4	-1E+10	1	-1E+10	1	-1E+10	1	-1E+10	1	-1E+10	1	-1E+10	1
4901784	204	C	02/03/2021	10:44	-134.502	43.507	0	322.60	0	6.5550	0	37.3400	8	29.332	0	319.776	0	136.1	4	46.7	4	-1E+10	1	-1E+10	1	-1E+10	1	-1E+10	1	-1E+10	1	-1E+10	1
4901784	204	C	02/03/2021	10:44	-134.502	43.507	0	325.00	0	6.5460	0	37.3380	8	29.331	0	322.153	0	134.5	4	46.2	4	-1E+10	1	-1E+10	1	-1E+10	1	-1E+10	1	-1E+10	1	-1E+10	1
4901784	204	C	02/03/2021	10:44	-134.502	43.507	0	327.60	0	6.4960	0	37.3430	8	29.342	0	324.728	0	132.6	4	45.4	4	-1E+10	1	-1E+10	1	-1E+10	1	-1E+10	1	-1E+10	1	-1E+10	1
4901784	204	C	02/03/2021	10:44	-134.502	43.507	0	330.10	0	6.4650	0	37.3440	8	29.347	0	327.204	0	130.9	4	44.9	4	-1E+10	1	-1E+10	1	-1E+10	1	-1E+10	1	-1E+10	1	-1E+10	1
4901784	204	C	02/03/2021	10:44	-134.502	43.507	0	332.60	0	6.4510	0	37.3460	8	29.351	0	329.680	0	129.1	4	44.2	4	-1E+10	1	-1E+10	1	-1E+10	1	-1E+10	1	-1E+10	1	-1E+10	1
4901784	204	C	02/03/2021	10:44	-134.502	43.507	0	335.10	0	6.4310	0	37.3450	8	29.353	0	332.156	0	127.2	4	43.5	4	-1E+10	1	-1E+10	1	-1E+10	1	-1E+10	1	-1E+10	1	-1E+10	1
4901784	204	C	02/03/2021	10:44	-134.502	43.507	0	337.70	0	6.3820	0	37.3460	8	29.361	0	334.731	0	125.3	4	42.8	4	-1E+10	1	-1E+10	1	-1E+10	1	-1E+10	1	-1E+10	1	-1E+10	1
4901784	204	C	02/03/2021	10:44	-134.502	43.507	0	340.20	0	6.3400	0	37.3450	8	29.366	0	337.207	0	123.5	4	42.2	4	-1E+10	1	-1E+10	1	-1E+10	1	-1E+10	1	-1E+10	1	-1E+10	1
4901784	204	C	02/03/2021	10:44	-134.502	43.507	0	342.80	0	6.2550	0	37.3490	8	29.380	0	339.782	0	121.7	4	41.5	4	-1E+10	1	-1E+10	1	-1E+10	1	-1E+10	1	-1E+10	1	-1E+10	1
4901784	204	C	02/03/2021	10:44	-134.502	43.507	0	345.30	0	6.2120	0	37.3490	8	29.386	0	342.258	0	120.1	4	40.9	4	-1E+10	1	-1E+10	1	-1E+10	1	-1E+10	1	-1E+10	1	-1E+10	1
4901784	204	C	02/03/2021	10:44	-134.502	43.507	0	347.80	0	6.1720	0	37.3480	8	29.391	0	344.734	0	118.6	4	40.3	4	-1E+10	1	-1E+10	1	-1E+10	1	-1E+10	1	-1E+10	1	-1E+10	1
4901784	204	C	02/03/2021	10:44	-134.502	43.507	0	350.40	0	6.1310	0	37.3470	8	29.396	0	347.309	0	116.9	4	39.7	4	-1E+10	1	-1E+10	1	-1E+10	1	-1E+10	1	-1E+10	1	-1E+10	1
4901784	204	C	02/03/2021	10:44	-134.502	43.507	0	352.90	0	6.0910	0	37.3470	8	29.401	0	349.785	0	114.9	4	39.0	4	-1E+10	1	-1E+10	1	-1E+10	1	-1E+10	1	-1E+10	1	-1E+10	1
4901784	204	C	02/03/2021	10:44	-134.502	43.507	0	354.60	0	6.0310	0	37.3490	8	29.411	0	351.469	0	113.4	4	38.5	4	-1E+10	1	-1E+10	1	-1E+10	1	-1E+10	1	-1E+10	1	-1E+10	1
4901784	204	C	02/03/2021	10:44	-134.502	43.507	0	357.20	0	5.9820	0	37.3530	8	29.421	0	354.043	0	112.4	4	38.1	4	-1E+10	1	-1E+10	1	-1E+10	1	-1E+10	1	-1E+10	1	-1E+10	1
4901784	204	C	02/03/2021	10:44	-134.502	43.507	0	359.70	0	5.9480	0	37.3550	8	29.427	0	356.519	0	111.5	4	37.8	4	-1E+10	1	-1E+10	1	-1E+10	1	-1E+10	1	-1E+10	1	-1E+10	1
4901784	204	C	02/03/2021	10:44	-134.502	43.507	0	362.30	0	5.9360	0	37.3560	8	29.429	0	359.094	0	110.5	4	37.4	4	-1E+10	1	-1E+10	1	-1E+10	1	-1E+10	1	-1E+10	1	-1E+10	1
4901784	204	C	02/03/2021	10:44	-134.502	43.507	0	364.80	0	5.9200	0	37.3560	8	29.431	0	361.570	0	109.4	4	37.0	4	-1E+10	1	-1E+10	1	-1E+10	1	-1E+10	1	-1E+10	1	-1E+10	1
4901784	204	C	02/03/2021	10:44	-134.502	43.507	0	367.40	0	5.8960	0	37.3580	8	29.436	0	364.144	0	107.9	4	36.5	4	-1E+10	1	-1E+10	1	-1E+10	1	-1E+10	1	-1E+10	1	-1E+10	1
4901784	204	C	02/03/2021	10:44	-134.502	43.507	0	370.00	0	5.8730	0	37.3590	8	29.440	0	366.719	0	106.5	4	36.0	4	-1E+10	1	-1E+10	1	-1E+10	1	-1E+10	1	-1E+10	1	-1E+10	1
4901784	204	C	02/03/2021	10:44	-134.502	43.507	0	372.50	0	5.8300	0	37.3590	8	29.446	0	369.194	0	104.9	4	35.4	4	-1E+10	1	-1E+10	1	-1E+10	1	-1E+10	1	-1E+10	1	-1E+10	1
4901784	204	C	02/03/2021	10:44	-134.502	43.507	0	375.00	0	5.7920	0	37.3610	8	29.452	0	371.670	0	103.4	4	34.9	4	-1E+10	1	-1E+10	1	-1E+10	1	-1E+10	1	-1E+10	1	-1E+10	1
4901784	204	C	02/03/2021	10:44	-134.502	43.507	0	377.60	0	5.7530	0	37.3630	8	29.459	0	374.245	0	101.9	4	34.4	4	-1E+10	1	-1E+10	1	-1E+10	1	-1E+10	1	-1E+10	1	-1E+10	1
4901784	204	C	02/03/2021	10:44	-134.502	43.507	0	380.10	0	5.7080	0	37.3660	8	29.467	0	376.720	0	100.6	4	33.9	4	-1E+10	1	-1E+10	1	-1E+10	1	-1E+10	1	-1E+10	1	-1E+10	1
4901784	204	C	02/03/2021	10:44	-134.502	43.507	0	382.70	0	5.6830	0	37.3690	8	29.473	0	379.295	0	99.2	4	33.4	4	-1E+10	1	-1E+10	1	-1E+10	1	-1E+10	1	-1E+10	1	-1E+10	1
4901784	204	C	02/03/2021	10:44	-134.502	43.507	0	385.30	0	5.6720	0	37.3720	8	29.477	0	381.869	0	97.6	4	32.8	4	-1E+10	1	-1E+10	1	-1E+10	1	-1E+10	1	-1E+10	1	-1E+10	1
4901784	204	C	02/03/2021	10:44	-134.502	43.507	0	387.80	0	5.6940	0	37.3740	8	29.475	0	384.345	0	95.9	4	32.3	4	-1E+10	1	-1E+10	1	-1E+10	1	-1E+10	1	-1E+10	1	-1E+10	1
4901784	204	C	02/03/2021	10:44	-134.502	43.507	0	390.30	0	5.6400	0	37.3780	8	29.486	0	386.820	0	94.7	4	31.8	4	-1E+10	1	-1E+10	1	-1E+10	1	-1E+10	1	-1E+10	1	-1E+10	1
4901784	204	C	02/03/2021	10:44	-134.502	43.507	0	392.00	0	5.6440	0	37.3770	8	29.484	0	388.503	0	93.2	4	31.3	4	-1E+10	1	-1E+10	1	-1E+10	1	-1E+10	1	-1E+10	1	-1E+10	1
4901784	204	C	02/03/2021	10:44	-134.502	43.507	0	394.60	0	5.6490	0	37.3810	8	29.487	0	391.078	0	91.2	4	30.7	4	-1E+10	1	-1E+10	1	-1E+10	1	-1E+10	1	-1E+10	1	-1E+10	1
4901784	204	C	02/03/2021	10:44	-134.502	43.507	0	397.20	0	5.5950	0	37.3810	8	29.494	0	393.652	0	89.7	4	30.1	4	-1E+10	1	-1E+10	1	-1E+10	1	-1E+10	1	-1E+10	1	-1E+10	1
4901784	204	C	02/03/2021	10:44	-134.502	43.507	0	399.90	0	5.5320	0	37.3860	8	29.506	0	396.325	0	88.7	4	29.8	4	-1E+10	1	-1E+10	1	-1E+10	1	-1E+10	1	-1E+10	1	-1E+10	1
4901784	204	C	02/03/2021	10:44	-134.502	43.507	0	402.50	0	5.4950	0	37.3850	8	29.510	0	398.899	0	88.1	4	29.5	4	-1E+10	1	-1E+10	1	-1E+10	1	-1E+10	1	-1E+10	1	-1E+10	1
4901784	204	C	02/03/2021	10:44	-134.502	43.507	0	405.20	0	5.4290	0	37.3890	8	29.522	0	401.573	0	87.4	4	29.3	4	-1E+10	1	-1E+10	1	-1E+10	1	-1E+10	1	-1E+10	1	-1E+10	1
4901784	204	C	02/03/2021	10:44	-134.502	43.507	0	407.90	0	5.4040	0	37.3890	8	29.525	0	404.246	0	86.6	4	29.0	4	-1E+10	1	-1E+10	1	-1E+10	1	-1E+10	1	-1E+10	1	-1E+10	1
4901784	204	C	02/03/2021	10:44	-134.502	43.507	0	409.70	0	5.3870	0	37.3900	8	29.528	0	406.028	0	85.9	4	28.7	4	-1E+10	1	-1E+10	1	-1E+10	1	-1E+10	1	-1E+10	1	-1E+10	1
4901784	204	C	02/03/2021	10:44	-134.502	43.507	0	412.20	0	5.3490	0	37.3940	8	29.536	0	408.503	0	84.7	4	28.3	4	-1E+10	1	-1E+10	1	-1E+10	1	-1E+10	1	-1E+10	1	-1E+10	1
4901784	204	C	02/03/2021	10:44	-134.502	43.507	0	414.80	0	5.3250	0	37.3950	8	29.540	0	411.077	0	83.9	4	28.0	4	-1E+10	1	-1E+10	1	-1E+10	1	-1E+10	1	-1E+10	1	-1E+10	1
4901784	204	C	02/03/2021	10:44	-134.502	43.507	0	417.40	0	5.2990	0	37.3990	8	29.546	0	413.651	0	83.4	4	27.8	4	-1E+10	1	-1E+10	1	-1E+10	1	-1E+10	1	-1E+10	1	-1E+10	1
4901784	204	C	02/03/2021	10:44	-134.502	43.507	0	420.00	0	5.2810	0	37.3990	8	29.548	0	416.225	0	83.0	4	27.7	4	-1E+10	1	-1E+10	1	-1E+10	1	-1E+10	1	-1E+10	1	-1E+10	1
4901784	204	C	02/03/2021	10:44	-134.502	43.507	0	422.70	0	5.2670	0	37.3990	8	29.550	0	418.898	0	82.4	4	27.5	4	-1E+10	1	-1E+10	1	-1E+10	1	-1E+10	1	-1E+10	1	-1E+10	1
4901784	204	C	02/03/2021	10:44	-134.502	43.507	0	425.30	0	5.2480	0	37.3990	8	29.553	0	421.472	0	81.7	4	27.2	4	-1E+10	1	-1E+10	1	-1E+10	1	-1E+10	1	-1E+10	1	-1E+10	1
4901784	204	C	02/03/2021	10:44	-134.502	43.507	0	427.10	0	5.2260	0	37.4000	8	29.556	0	423.254	0	81.2	4	27.0	4	-1E+10	1	-1E+10	1	-1E+10	1	-1E+10	1	-1E+10	1	-1E+10	1
4901784	204	C	02/03/2021	10:44	-134.502	43.507	0	429.90	0	5.1960	0	37.4000	8	29.560	0	426.026	0	80.3	4	26.7	4	-1E+10	1	-1E+10	1	-1E+10	1	-1E+10	1	-1E+10	1	-1E+10	1
4901784	204	C	02/03/2021	10:44	-134.502	43.507	0	432.60	0	5.1590	0	37.4010	8	29.565	0	428.699	0	79.3	4	26.4	4	-1E+10	1	-1E+10	1	-1E+10	1	-1E+10	1	-1E+10	1	-1E+10	1
4901784	204	C	02/03/2021	10:44	-134.502	43.507	0	435.30	0	5.1190	0	37.4050	8	29.573	0	431.372	0	78.6	4	26.1	4	-1E+10	1	-1E+10	1	-1E+10	1	-1E+10	1	-1E+10	1	-1E+10	1
4901784	204	C	02/03/2021	10:44	-134.502	43.507	0	438.10	0	5.0890	0	37.4080	8	29.580	0	434.144	0	77.9	4	25.9	4	-1E+10	1	-1E+10	1	-1E+10	1	-1E+10	1	-1E+10	1	-1E+10	1
4901784	204	C	02/03/2021	10:44	-134.502	43.507	0	440.00	0	5.0590	0	37.4090	8	29.584	0	436.025	0	77.6	4	25.7	4	-1E+10	1	-1E+10	1	-1E+10	1	-1E+10	1	-1E+10	1	-1E+10	1
4901784	204	C	02/03/2021	10:44	-134.502	43.507	0	442.80	0	5.0310	0	37.4100	8	29.588	0	438.796	0	76.9	4	25.5	4	-1E+10	1	-1E+10	1	-1E+10	1	-1E+10	1	-1E+10	1	-1E+10	1
4901784	204	C	02/03/2021	10:44	-134.502	43.507	0	445.50	0	5.0010	0	37.4140	8	29.595	0	441.469	0	76.2	4	25.2	4	-1E+10	1	-1E+10	1	-1E+10	1	-1E+10	1	-1E+10	1	-1E+10	1
4901784	204	C	02/03/2021	10:44	-134.502	43.507	0	447.50	0	4.9930	0	37.4140	8	29.596	0	443.449	0	75.6	4	25.1	4	-1E+10	1	-1E+10	1	-1E+10	1	-1E+10	1	-1E+10	1	-1E+10	1
4901784	204	C	02/03/2021	10:44	-134.502	43.507	0	450.20	0	4.9600	0	37.4190	8	29.604	0	446.122	0	74.9	4	24.8	4	-1E+10	1	-1E+10	1	-1E+10	1	-1E+10	1	-1E+10	1	-1E+10	1
4901784	204	C	02/03/2021	10:44	-134.502	43.507	0	453.00	0	4.9370	0	37.4210	8	29.609	0	448.893	0	74.3	4	24.6	4	-1E+10	1	-1E+10	1	-1E+10	1	-1E+10	1	-1E+10	1	-1E+10	1
4901784	204	C	02/03/2021	10:44	-134.502	43.507	0	454.90	0	4.9230	0	37.4220	8	29.611	0	450.774	0	73.9	4	24.4	4	-1E+10	1	-1E+10	1	-1E+10	1	-1E+10	1	-1E+10	1	-1E+10	1
4901784	204	C	02/03/2021	10:44	-134.502	43.507	0	456.80	0	4.9100	0	37.4240	8	29.614	0	452.654	0	73.3	4	24.2	4	-1E+10	1	-1E+10	1	-1E+10	1	-1E+10	1	-1E+10	1	-1E+10	1
4901784	204	C	02/03/2021	10:44	-134.502	43.507	0	459.80	0	4.8930	0	37.4260	8	29.618	0	455.624	0	72.4	4	23.9	4	-1E+10	1	-1E+10	1	-1E+10	1	-1E+10	1	-1E+10	1	-1E+10	1
4901784	204	C	02/03/2021	10:44	-134.502	43.507	0	462.60	0	4.8700	0	37.4300	8	29.624	0	458.395	0	71.3	4	23.6	4	-1E+10	1	-1E+10	1	-1E+10	1	-1E+10	1	-1E+10	1	-1E+10	1
4901784	204	C	02/03/2021	10:44	-134.502	43.507	0	465.00	0	4.8580	0	37.4330	8	29.628	0	460.771	0	70.8	4	23.4	4	-1E+10	1	-1E+10	1	-1E+10	1	-1E+10	1	-1E+10	1	-1E+10	1
4901784	204	C	02/03/2021	10:44	-134.502	43.507	0	467.30	0	4.8540	0	37.4350	8	29.630	0	463.048	0	70.4	4	23.3	4	-1E+10	1	-1E+10	1	-1E+10	1	-1E+10	1	-1E+10	1	-1E+10	1
4901784	204	C	02/03/2021	10:44	-134.502	43.507	0	469.60	0	4.8460	0	37.4340	8	29.630	0	465.324	0	70.5	4	23.3	4	-1E+10	1	-1E+10	1	-1E+10	1	-1E+10	1	-1E+10	1	-1E+10	1
4901784	204	C	02/03/2021	10:44	-134.502	43.507	0	472.80	0	4.8250	0	37.4350	8	29.634	0	468.491	0	70.4	4	23.2	4	-1E+10	1	-1E+10	1	-1E+10	1	-1E+10	1	-1E+10	1	-1E+10	1
4901784	204	C	02/03/2021	10:44	-134.502	43.507	0	475.30	0	4.8120	0	37.4350	8	29.635	0	470.966	0	69.8	4	23.0	4	-1E+10	1	-1E+10	1	-1E+10	1	-1E+10	1	-1E+10	1	-1E+10	1
4901784	204	C	02/03/2021	10:44	-134.502	43.507	0	477.80	0	4.7980	0	37.4360	8	29.638	0	473.440	0	68.6	4	22.6	4	-1E+10	1	-1E+10	1	-1E+10	1	-1E+10	1	-1E+10	1	-1E+10	1
4901784	204	C	02/03/2021	10:44	-134.502	43.507	0	480.30	0	4.7780	0	37.4390	8	29.642	0	475.914	0	67.4	4	22.2	4	-1E+10	1	-1E+10	1	-1E+10	1	-1E+10	1	-1E+10	1	-1E+10	1
4901784	204	C	02/03/2021	10:44	-134.502	43.507	0	482.70	0	4.7580	0	37.4420	8	29.647	0	478.290	0	66.1	4	21.8	4	-1E+10	1	-1E+10	1	-1E+10	1	-1E+10	1	-1E+10	1	-1E+10	1
4901784	204	C	02/03/2021	10:44	-134.502	43.507	0	485.20	0	4.7310	0	37.4470	8	29.654	0	480.764	0	65.0	4	21.4	4	-1E+10	1	-1E+10	1	-1E+10	1	-1E+10	1	-1E+10	1	-1E+10	1
4901784	204	C	02/03/2021	10:44	-134.502	43.507	0	487.60	0	4.7090	0	37.4520	8	29.661	0	483.139	0	64.1	4	21.1	4	-1E+10	1	-1E+10	1	-1E+10	1	-1E+10	1	-1E+10	1	-1E+10	1
4901784	204	C	02/03/2021	10:44	-134.502	43.507	0	490.10	0	4.7020	0	37.4530	8	29.663	0	485.613	0	63.5	4	20.9	4	-1E+10	1	-1E+10	1	-1E+10	1	-1E+10	1	-1E+10	1	-1E+10	1
4901784	204	C	02/03/2021	10:44	-134.502	43.507	0	492.60	0	4.6920	0	37.4560	8	29.666	0	488.088	0	62.8	4	20.7	4	-1E+10	1	-1E+10	1	-1E+10	1	-1E+10	1	-1E+10	1	-1E+10	1
4901784	204	C	02/03/2021	10:44	-134.502	43.507	0	495.10	0	4.6900	0	37.4550	8	29.666	0	490.562	0	62.0	4	20.4	4	-1E+10	1	-1E+10	1	-1E+10	1	-1E+10	1	-1E+10	1	-1E+10	1
4901784	204	C	02/03/2021	10:44	-134.502	43.507	0	497.60	0	4.6720	0	37.4590	8	29.671	0	493.036	0	61.1	4	20.1	4	-1E+10	1	-1E+10	1	-1E+10	1	-1E+10	1	-1E+10	1	-1E+10	1
4901784	204	C	02/03/2021	10:44	-134.502	43.507	0	500.00	0	4.6630	0	37.4610	8	29.674	0	495.411	0	60.4	4	19.8	4	-1E+10	1	-1E+10	1	-1E+10	1	-1E+10	1	-1E+10	1	-1E+10	1
4901784	204	C	02/03/2021	10:44	-134.502	43.507	0	505.10	0	4.6400	0	37.4680	8	29.682	0	500.458	0	58.5	4	19.2	4	-1E+10	1	-1E+10	1	-1E+10	1	-1E+10	1	-1E+10	1	-1E+10	1
4901784	204	C	02/03/2021	10:44	-134.502	43.507	0	510.00	0	4.6130	0	37.4750	8	29.691	0	505.307	0	56.2	4	18.5	4	-1E+10	1	-1E+10	1	-1E+10	1	-1E+10	1	-1E+10	1	-1E+10	1
4901784	204	C	02/03/2021	10:44	-134.502	43.507	0	515.10	0	4.5850	0	37.4840	8	29.701	0	510.354	0	54.5	4	17.9	4	-1E+10	1	-1E+10	1	-1E+10	1	-1E+10	1	-1E+10	1	-1E+10	1
4901784	204	C	02/03/2021	10:44	-134.502	43.507	0	520.10	0	4.5700	0	37.4900	8	29.708	0	515.302	0	53.5	4	17.6	4	-1E+10	1	-1E+10	1	-1E+10	1	-1E+10	1	-1E+10	1	-1E+10	1
4901784	204	C	02/03/2021	10:44	-134.502	43.507	0	525.20	0	4.5630	0	37.4920	8	29.711	0	520.348	0	52.6	4	17.3	4	-1E+10	1	-1E+10	1	-1E+10	1	-1E+10	1	-1E+10	1	-1E+10	1
4901784	204	C	02/03/2021	10:44	-134.502	43.507	0	530.20	0	4.5540	0	37.4950	8	29.714	0	525.296	0	51.3	4	16.8	4	-1E+10	1	-1E+10	1	-1E+10	1	-1E+10	1	-1E+10	1	-1E+10	1
4901784	204	C	02/03/2021	10:44	-134.502	43.507	0	535.20	0	4.5420	0	37.5010	8	29.720	0	530.243	0	49.4	4	16.2	4	-1E+10	1	-1E+10	1	-1E+10	1	-1E+10	1	-1E+10	1	-1E+10	1
4901784	204	C	02/03/2021	10:44	-134.502	43.507	0	540.30	0	4.5290	0	37.5060	8	29.726	0	535.289	0	47.5	4	15.6	4	-1E+10	1	-1E+10	1	-1E+10	1	-1E+10	1	-1E+10	1	-1E+10	1
4901784	204	C	02/03/2021	10:44	-134.502	43.507	0	545.40	0	4.4950	0	37.5150	8	29.737	0	540.335	0	45.8	4	15.0	4	-1E+10	1	-1E+10	1	-1E+10	1	-1E+10	1	-1E+10	1	-1E+10	1
4901784	204	C	02/03/2021	10:44	-134.502	43.507	0	550.50	0	4.4790	0	37.5210	8	29.744	0	545.381	0	44.2	4	14.5	4	-1E+10	1	-1E+10	1	-1E+10	1	-1E+10	1	-1E+10	1	-1E+10	1
4901784	204	C	02/03/2021	10:44	-134.502	43.507	0	555.50	0	4.4710	0	37.5260	8	29.749	0	550.328	0	42.5	4	13.9	4	-1E+10	1	-1E+10	1	-1E+10	1	-1E+10	1	-1E+10	1	-1E+10	1
4901784	204	C	02/03/2021	10:44	-134.502	43.507	0	559.90	0	4.4480	0	37.5320	8	29.756	0	554.681	0	41.1	4	13.4	4	-1E+10	1	-1E+10	1	-1E+10	1	-1E+10	1	-1E+10	1	-1E+10	1
4901784	204	C	02/03/2021	10:44	-134.502	43.507	0	564.30	0	4.4300	0	37.5390	8	29.764	0	559.034	0	39.7	4	13.0	4	-1E+10	1	-1E+10	1	-1E+10	1	-1E+10	1	-1E+10	1	-1E+10	1
4901784	204	C	02/03/2021	10:44	-134.502	43.507	0	569.50	0	4.4200	0	37.5440	8	29.769	0	564.179	0	37.8	4	12.4	4	-1E+10	1	-1E+10	1	-1E+10	1	-1E+10	1	-1E+10	1	-1E+10	1
4901784	204	C	02/03/2021	10:44	-134.502	43.507	0	574.60	0	4.3930	0	37.5560	8	29.782	0	569.224	0	35.9	4	11.7	4	-1E+10	1	-1E+10	1	-1E+10	1	-1E+10	1	-1E+10	1	-1E+10	1
4901784	204	C	02/03/2021	10:44	-134.502	43.507	0	579.90	0	4.3790	0	37.5620	8	29.788	0	574.467	0	34.5	4	11.3	4	-1E+10	1	-1E+10	1	-1E+10	1	-1E+10	1	-1E+10	1	-1E+10	1
4901784	204	C	02/03/2021	10:44	-134.502	43.507	0	585.20	0	4.3690	0	37.5660	8	29.793	0	579.710	0	33.4	4	10.9	4	-1E+10	1	-1E+10	1	-1E+10	1	-1E+10	1	-1E+10	1	-1E+10	1
4901784	204	C	02/03/2021	10:44	-134.502	43.507	0	590.50	0	4.3460	0	37.5740	8	29.802	0	584.953	0	32.2	4	10.5	4	-1E+10	1	-1E+10	1	-1E+10	1	-1E+10	1	-1E+10	1	-1E+10	1
4901784	204	C	02/03/2021	10:44	-134.502	43.507	0	595.00	0	4.3420	0	37.5760	8	29.804	0	589.404	0	31.1	4	10.2	4	-1E+10	1	-1E+10	1	-1E+10	1	-1E+10	1	-1E+10	1	-1E+10	1
4901784	204	C	02/03/2021	10:44	-134.502	43.507	0	599.50	0	4.3330	0	37.5860	8	29.813	0	593.856	0	29.6	4	9.7	4	-1E+10	1	-1E+10	1	-1E+10	1	-1E+10	1	-1E+10	1	-1E+10	1
4901784	204	C	02/03/2021	10:44	-134.502	43.507	0	604.90	0	4.3300	0	37.5920	8	29.818	0	599.197	0	28.2	4	9.2	4	-1E+10	1	-1E+10	1	-1E+10	1	-1E+10	1	-1E+10	1	-1E+10	1
4901784	204	C	02/03/2021	10:44	-134.502	43.507	0	610.20	0	4.3160	0	37.6010	8	29.827	0	604.439	0	26.7	4	8.7	4	-1E+10	1	-1E+10	1	-1E+10	1	-1E+10	1	-1E+10	1	-1E+10	1
4901784	204	C	02/03/2021	10:44	-134.502	43.507	0	614.80	0	4.3120	0	37.6060	8	29.831	0	608.989	0	25.7	4	8.4	4	-1E+10	1	-1E+10	1	-1E+10	1	-1E+10	1	-1E+10	1	-1E+10	1
4901784	204	C	02/03/2021	10:44	-134.502	43.507	0	619.40	0	4.2790	0	37.6120	8	29.840	0	613.539	0	24.8	4	8.1	4	-1E+10	1	-1E+10	1	-1E+10	1	-1E+10	1	-1E+10	1	-1E+10	1
4901784	204	C	02/03/2021	10:44	-134.502	43.507	0	624.90	0	4.2510	0	37.6200	8	29.849	0	618.979	0	23.3	4	7.6	4	-1E+10	1	-1E+10	1	-1E+10	1	-1E+10	1	-1E+10	1	-1E+10	1
4901784	204	C	02/03/2021	10:44	-134.502	43.507	0	630.40	0	4.2290	0	37.6310	8	29.861	0	624.419	0	22.0	4	7.2	4	-1E+10	1	-1E+10	1	-1E+10	1	-1E+10	1	-1E+10	1	-1E+10	1
4901784	204	C	02/03/2021	10:44	-134.502	43.507	0	634.90	0	4.2120	0	37.6360	8	29.867	0	628.869	0	21.1	4	6.9	4	-1E+10	1	-1E+10	1	-1E+10	1	-1E+10	1	-1E+10	1	-1E+10	1
4901784	204	C	02/03/2021	10:44	-134.502	43.507	0	639.50	0	4.2240	0	37.6440	8	29.872	0	633.418	0	20.2	4	6.6	4	-1E+10	1	-1E+10	1	-1E+10	1	-1E+10	1	-1E+10	1	-1E+10	1
4901784	204	C	02/03/2021	10:44	-134.502	43.507	0	645.00	0	4.2250	0	37.6460	8	29.873	0	638.858	0	19.5	4	6.3	4	-1E+10	1	-1E+10	1	-1E+10	1	-1E+10	1	-1E+10	1	-1E+10	1
4901784	204	C	02/03/2021	10:44	-134.502	43.507	0	650.60	0	4.2000	0	37.6440	8	29.875	0	644.396	0	18.7	4	6.1	4	-1E+10	1	-1E+10	1	-1E+10	1	-1E+10	1	-1E+10	1	-1E+10	1
4901784	204	C	02/03/2021	10:44	-134.502	43.507	0	655.20	0	4.1940	0	37.6500	8	29.880	0	648.945	0	17.4	4	5.7	4	-1E+10	1	-1E+10	1	-1E+10	1	-1E+10	1	-1E+10	1	-1E+10	1
4901784	204	C	02/03/2021	10:44	-134.502	43.507	0	659.80	0	4.2340	0	37.6540	8	29.879	0	653.493	0	16.7	4	5.4	4	-1E+10	1	-1E+10	1	-1E+10	1	-1E+10	1	-1E+10	1	-1E+10	1
4901784	204	C	02/03/2021	10:44	-134.502	43.507	0	665.30	0	4.2280	0	37.6460	8	29.873	0	658.932	0	16.3	4	5.3	4	-1E+10	1	-1E+10	1	-1E+10	1	-1E+10	1	-1E+10	1	-1E+10	1
4901784	204	C	02/03/2021	10:44	-134.502	43.507	0	669.90	0	4.2260	0	37.6350	8	29.865	0	663.481	0	16.1	4	5.2	4	-1E+10	1	-1E+10	1	-1E+10	1	-1E+10	1	-1E+10	1	-1E+10	1
4901784	204	C	02/03/2021	10:44	-134.502	43.507	0	674.50	0	4.2230	8	37.6180	8	29.851	0	668.029	0	15.8	4	5.2	4	-1E+10	1	-1E+10	1	-1E+10	1	-1E+10	1	-1E+10	1	-1E+10	1
4901784	204	C	02/03/2021	10:44	-134.502	43.507	0	680.00	0	4.2170	8	37.5570	8	29.804	0	673.468	0	15.4	4	5.0	4	-1E+10	1	-1E+10	1	-1E+10	1	-1E+10	1	-1E+10	1	-1E+10	1
4901784	204	C	02/03/2021	10:44	-134.502	43.507	0	685.40	0	4.2110	8	37.3280	8	29.622	0	678.807	0	14.8	4	4.8	4	-1E+10	1	-1E+10	1	-1E+10	1	-1E+10	1	-1E+10	1	-1E+10	1
4901784	204	C	02/03/2021	10:44	-134.502	43.507	0	690.20	0	4.2100	8	37.2140	8	29.531	0	683.553	0	14.5	4	4.7	4	-1E+10	1	-1E+10	1	-1E+10	1	-1E+10	1	-1E+10	1	-1E+10	1
4901784	204	C	02/03/2021	10:44	-134.502	43.507	0	695.10	0	4.2110	0	37.1870	8	29.510	0	688.398	0	14.1	4	4.6	4	-1E+10	1	-1E+10	1	-1E+10	1	-1E+10	1	-1E+10	1	-1E+10	1
4901784	204	C	02/03/2021	10:44	-134.502	43.507	0	700.00	0	4.2130	0	37.1610	8	29.489	0	693.242	0	13.8	4	4.5	4	-1E+10	1	-1E+10	1	-1E+10	1	-1E+10	1	-1E+10	1	-1E+10	1
4901784	204	C	02/03/2021	10:44	-134.502	43.507	0	704.80	0	4.2070	0	37.1460	8	29.478	0	697.988	0	13.6	4	4.4	4	-1E+10	1	-1E+10	1	-1E+10	1	-1E+10	1	-1E+10	1	-1E+10	1
4901784	204	C	02/03/2021	10:44	-134.502	43.507	0	709.70	0	4.1980	0	37.1180	8	29.457	0	702.832	0	13.4	4	4.3	4	-1E+10	1	-1E+10	1	-1E+10	1	-1E+10	1	-1E+10	1	-1E+10	1
4901784	204	C	02/03/2021	10:44	-134.502	43.507	0	714.60	0	4.1870	0	37.1040	8	29.447	0	707.677	0	13.0	4	4.2	4	-1E+10	1	-1E+10	1	-1E+10	1	-1E+10	1	-1E+10	1	-1E+10	1
4901784	204	C	02/03/2021	10:44	-134.502	43.507	0	719.60	0	4.1730	0	37.0990	8	29.444	0	712.620	0	12.8	4	4.2	4	-1E+10	1	-1E+10	1	-1E+10	1	-1E+10	1	-1E+10	1	-1E+10	1
4901784	204	C	02/03/2021	10:44	-134.502	43.507	0	724.70	0	4.1580	0	37.0990	8	29.446	0	717.661	0	12.6	4	4.1	4	-1E+10	1	-1E+10	1	-1E+10	1	-1E+10	1	-1E+10	1	-1E+10	1
4901784	204	C	02/03/2021	10:44	-134.502	43.507	0	729.70	0	4.1590	0	37.0940	8	29.442	0	722.604	0	12.4	4	4.0	4	-1E+10	1	-1E+10	1	-1E+10	1	-1E+10	1	-1E+10	1	-1E+10	1
4901784	204	C	02/03/2021	10:44	-134.502	43.507	0	734.70	0	4.1440	0	37.0960	8	29.445	0	727.547	0	12.3	4	4.0	4	-1E+10	1	-1E+10	1	-1E+10	1	-1E+10	1	-1E+10	1	-1E+10	1
4901784	204	C	02/03/2021	10:44	-134.502	43.507	0	739.80	0	4.1150	0	37.1000	8	29.452	0	732.588	0	12.1	4	3.9	4	-1E+10	1	-1E+10	1	-1E+10	1	-1E+10	1	-1E+10	1	-1E+10	1
4901784	204	C	02/03/2021	10:44	-134.502	43.507	0	744.90	0	4.1090	0	37.1040	8	29.456	0	737.630	0	11.9	4	3.9	4	-1E+10	1	-1E+10	1	-1E+10	1	-1E+10	1	-1E+10	1	-1E+10	1
4901784	204	C	02/03/2021	10:44	-134.502	43.507	0	750.10	0	4.1090	0	37.1090	8	29.460	0	742.770	0	11.7	4	3.8	4	-1E+10	1	-1E+10	1	-1E+10	1	-1E+10	1	-1E+10	1	-1E+10	1
4901784	204	C	02/03/2021	10:44	-134.502	43.507	0	755.20	0	4.0810	0	37.1150	8	29.468	0	747.811	0	11.6	4	3.7	4	-1E+10	1	-1E+10	1	-1E+10	1	-1E+10	1	-1E+10	1	-1E+10	1
4901784	204	C	02/03/2021	10:44	-134.502	43.507	0	760.40	0	4.0600	0	37.1170	8	29.472	0	752.950	0	11.5	4	3.7	4	-1E+10	1	-1E+10	1	-1E+10	1	-1E+10	1	-1E+10	1	-1E+10	1
4901784	204	C	02/03/2021	10:44	-134.502	43.507	0	765.70	0	4.0430	0	37.1190	8	29.475	0	758.189	0	11.5	4	3.7	4	-1E+10	1	-1E+10	1	-1E+10	1	-1E+10	1	-1E+10	1	-1E+10	1
4901784	204	C	02/03/2021	10:44	-134.502	43.507	0	770.10	0	4.0250	0	37.1210	8	29.479	0	762.538	0	11.4	4	3.7	4	-1E+10	1	-1E+10	1	-1E+10	1	-1E+10	1	-1E+10	1	-1E+10	1
4901784	204	C	02/03/2021	10:44	-134.502	43.507	0	774.40	0	4.0280	0	37.1240	8	29.481	0	766.787	0	11.2	4	3.6	4	-1E+10	1	-1E+10	1	-1E+10	1	-1E+10	1	-1E+10	1	-1E+10	1
4901784	204	C	02/03/2021	10:44	-134.502	43.507	0	779.70	0	4.0020	0	37.1290	8	29.488	0	772.026	0	11.1	4	3.6	4	-1E+10	1	-1E+10	1	-1E+10	1	-1E+10	1	-1E+10	1	-1E+10	1
4901784	204	C	02/03/2021	10:44	-134.502	43.507	0	785.00	0	3.9800	0	37.1350	8	29.495	0	777.264	0	10.9	4	3.5	4	-1E+10	1	-1E+10	1	-1E+10	1	-1E+10	1	-1E+10	1	-1E+10	1
4901784	204	C	02/03/2021	10:44	-134.502	43.507	0	790.40	0	3.9670	0	37.1430	8	29.503	0	782.600	0	10.8	4	3.5	4	-1E+10	1	-1E+10	1	-1E+10	1	-1E+10	1	-1E+10	1	-1E+10	1
4901784	204	C	02/03/2021	10:44	-134.502	43.507	0	795.00	0	3.9590	0	37.1440	8	29.504	0	787.146	0	10.7	4	3.5	4	-1E+10	1	-1E+10	1	-1E+10	1	-1E+10	1	-1E+10	1	-1E+10	1
4901784	204	C	02/03/2021	10:44	-134.502	43.507	0	799.50	0	3.9380	0	37.1490	8	29.511	0	791.593	0	10.6	4	3.4	4	-1E+10	1	-1E+10	1	-1E+10	1	-1E+10	1	-1E+10	1	-1E+10	1
4901784	204	C	02/03/2021	10:44	-134.502	43.507	0	805.00	0	3.9310	0	37.1500	8	29.512	0	797.028	0	10.6	4	3.4	4	-1E+10	1	-1E+10	1	-1E+10	1	-1E+10	1	-1E+10	1	-1E+10	1
4901784	204	C	02/03/2021	10:44	-134.502	43.507	0	810.50	0	3.9010	0	37.1570	8	29.521	0	802.463	0	10.5	4	3.4	4	-1E+10	1	-1E+10	1	-1E+10	1	-1E+10	1	-1E+10	1	-1E+10	1
4901784	204	C	02/03/2021	10:44	-134.502	43.507	0	815.20	0	3.8860	0	37.1590	8	29.524	0	807.108	0	10.4	4	3.4	4	-1E+10	1	-1E+10	1	-1E+10	1	-1E+10	1	-1E+10	1	-1E+10	1
4901784	204	C	02/03/2021	10:44	-134.502	43.507	0	819.80	0	3.8680	0	37.1630	8	29.530	0	811.653	0	10.4	4	3.3	4	-1E+10	1	-1E+10	1	-1E+10	1	-1E+10	1	-1E+10	1	-1E+10	1
4901784	204	C	02/03/2021	10:44	-134.502	43.507	0	825.30	0	3.8590	0	37.1650	8	29.532	0	817.088	0	10.4	4	3.3	4	-1E+10	1	-1E+10	1	-1E+10	1	-1E+10	1	-1E+10	1	-1E+10	1
4901784	204	C	02/03/2021	10:44	-134.502	43.507	0	830.50	0	3.8450	0	37.1680	8	29.536	0	822.226	0	10.3	4	3.3	4	-1E+10	1	-1E+10	1	-1E+10	1	-1E+10	1	-1E+10	1	-1E+10	1
4901784	204	C	02/03/2021	10:44	-134.502	43.507	0	835.30	0	3.8340	0	37.1730	8	29.541	0	826.968	0	10.2	4	3.3	4	-1E+10	1	-1E+10	1	-1E+10	1	-1E+10	1	-1E+10	1	-1E+10	1
4901784	204	C	02/03/2021	10:44	-134.502	43.507	0	840.20	0	3.8230	0	37.1770	8	29.546	0	831.810	0	10.2	4	3.3	4	-1E+10	1	-1E+10	1	-1E+10	1	-1E+10	1	-1E+10	1	-1E+10	1
4901784	204	C	02/03/2021	10:44	-134.502	43.507	0	845.10	0	3.8040	0	37.1810	8	29.551	0	836.651	0	10.1	4	3.3	4	-1E+10	1	-1E+10	1	-1E+10	1	-1E+10	1	-1E+10	1	-1E+10	1
4901784	204	C	02/03/2021	10:44	-134.502	43.507	0	850.10	0	3.7990	0	37.1840	8	29.554	0	841.591	0	10.1	4	3.2	4	-1E+10	1	-1E+10	1	-1E+10	1	-1E+10	1	-1E+10	1	-1E+10	1
4901784	204	C	02/03/2021	10:44	-134.502	43.507	0	855.10	0	3.7880	0	37.1900	8	29.560	0	846.531	0	10.0	4	3.2	4	-1E+10	1	-1E+10	1	-1E+10	1	-1E+10	1	-1E+10	1	-1E+10	1
4901784	204	C	02/03/2021	10:44	-134.502	43.507	0	860.10	0	3.7730	0	37.1940	8	29.565	0	851.470	0	10.0	4	3.2	4	-1E+10	1	-1E+10	1	-1E+10	1	-1E+10	1	-1E+10	1	-1E+10	1
4901784	204	C	02/03/2021	10:44	-134.502	43.507	0	865.10	0	3.7610	0	37.1970	8	29.569	0	856.410	0	10.0	4	3.2	4	-1E+10	1	-1E+10	1	-1E+10	1	-1E+10	1	-1E+10	1	-1E+10	1
4901784	204	C	02/03/2021	10:44	-134.502	43.507	0	870.20	0	3.7500	0	37.1990	8	29.571	0	861.448	0	10.0	4	3.2	4	-1E+10	1	-1E+10	1	-1E+10	1	-1E+10	1	-1E+10	1	-1E+10	1
4901784	204	C	02/03/2021	10:44	-134.502	43.507	0	875.30	0	3.7330	0	37.2040	8	29.577	0	866.486	0	10.0	4	3.2	4	-1E+10	1	-1E+10	1	-1E+10	1	-1E+10	1	-1E+10	1	-1E+10	1
4901784	204	C	02/03/2021	10:44	-134.502	43.507	0	880.40	0	3.7150	0	37.2100	8	29.584	0	871.524	0	10.0	4	3.2	4	-1E+10	1	-1E+10	1	-1E+10	1	-1E+10	1	-1E+10	1	-1E+10	1
4901784	204	C	02/03/2021	10:44	-134.502	43.507	0	885.50	0	3.7090	0	37.2140	8	29.588	0	876.562	0	10.0	4	3.2	4	-1E+10	1	-1E+10	1	-1E+10	1	-1E+10	1	-1E+10	1	-1E+10	1
4901784	204	C	02/03/2021	10:44	-134.502	43.507	0	890.60	0	3.7060	0	37.2160	8	29.590	0	881.600	0	10.0	4	3.2	4	-1E+10	1	-1E+10	1	-1E+10	1	-1E+10	1	-1E+10	1	-1E+10	1
4901784	204	C	02/03/2021	10:44	-134.502	43.507	0	895.00	0	3.7000	0	37.2180	8	29.592	0	885.946	0	10.0	4	3.2	4	-1E+10	1	-1E+10	1	-1E+10	1	-1E+10	1	-1E+10	1	-1E+10	1
4901784	204	C	02/03/2021	10:44	-134.502	43.507	0	899.40	0	3.6880	0	37.2190	8	29.594	0	890.293	0	10.0	4	3.2	4	-1E+10	1	-1E+10	1	-1E+10	1	-1E+10	1	-1E+10	1	-1E+10	1
4901784	204	C	02/03/2021	10:44	-134.502	43.507	0	904.70	0	3.6670	0	37.2260	8	29.602	0	895.528	0	10.0	4	3.2	4	-1E+10	1	-1E+10	1	-1E+10	1	-1E+10	1	-1E+10	1	-1E+10	1
4901784	204	C	02/03/2021	10:44	-134.502	43.507	0	910.10	0	3.6490	0	37.2300	8	29.607	0	900.861	0	10.0	4	3.2	4	-1E+10	1	-1E+10	1	-1E+10	1	-1E+10	1	-1E+10	1	-1E+10	1
4901784	204	C	02/03/2021	10:44	-134.502	43.507	0	915.50	0	3.6370	0	37.2330	8	29.611	0	906.195	0	10.0	4	3.2	4	-1E+10	1	-1E+10	1	-1E+10	1	-1E+10	1	-1E+10	1	-1E+10	1
4901784	204	C	02/03/2021	10:44	-134.502	43.507	0	920.10	0	3.6280	0	37.2360	8	29.614	0	910.738	0	10.0	4	3.2	4	-1E+10	1	-1E+10	1	-1E+10	1	-1E+10	1	-1E+10	1	-1E+10	1
4901784	204	C	02/03/2021	10:44	-134.502	43.507	0	924.70	0	3.6230	0	37.2380	8	29.616	0	915.281	0	10.1	4	3.2	4	-1E+10	1	-1E+10	1	-1E+10	1	-1E+10	1	-1E+10	1	-1E+10	1
4901784	204	C	02/03/2021	10:44	-134.502	43.507	0	930.20	0	3.6100	0	37.2420	8	29.621	0	920.713	0	10.1	4	3.2	4	-1E+10	1	-1E+10	1	-1E+10	1	-1E+10	1	-1E+10	1	-1E+10	1
4901784	204	C	02/03/2021	10:44	-134.502	43.507	0	934.90	0	3.6020	0	37.2440	8	29.624	0	925.355	0	10.1	4	3.2	4	-1E+10	1	-1E+10	1	-1E+10	1	-1E+10	1	-1E+10	1	-1E+10	1
4901784	204	C	02/03/2021	10:44	-134.502	43.507	0	939.30	0	3.5930	0	37.2470	8	29.627	0	929.700	0	10.1	4	3.2	4	-1E+10	1	-1E+10	1	-1E+10	1	-1E+10	1	-1E+10	1	-1E+10	1
4901784	204	C	02/03/2021	10:44	-134.502	43.507	0	944.50	0	3.5870	0	37.2480	8	29.628	0	934.835	0	10.1	4	3.2	4	-1E+10	1	-1E+10	1	-1E+10	1	-1E+10	1	-1E+10	1	-1E+10	1
4901784	204	C	02/03/2021	10:44	-134.502	43.507	0	950.00	0	3.5770	0	37.2510	8	29.632	0	940.267	0	10.2	4	3.3	4	-1E+10	1	-1E+10	1	-1E+10	1	-1E+10	1	-1E+10	1	-1E+10	1
4901784	204	C	02/03/2021	10:44	-134.502	43.507	0	955.60	0	3.5640	0	37.2540	8	29.636	0	945.796	0	10.2	4	3.3	4	-1E+10	1	-1E+10	1	-1E+10	1	-1E+10	1	-1E+10	1	-1E+10	1
4901784	204	C	02/03/2021	10:44	-134.502	43.507	0	960.50	0	3.5560	0	37.2560	8	29.638	0	950.635	0	10.3	4	3.3	4	-1E+10	1	-1E+10	1	-1E+10	1	-1E+10	1	-1E+10	1	-1E+10	1
4901784	204	C	02/03/2021	10:44	-134.502	43.507	0	965.50	0	3.5470	0	37.2590	8	29.642	0	955.572	0	10.3	4	3.3	4	-1E+10	1	-1E+10	1	-1E+10	1	-1E+10	1	-1E+10	1	-1E+10	1
4901784	204	C	02/03/2021	10:44	-134.502	43.507	0	970.40	0	3.5390	0	37.2600	8	29.643	0	960.411	0	10.4	4	3.3	4	-1E+10	1	-1E+10	1	-1E+10	1	-1E+10	1	-1E+10	1	-1E+10	1
4901784	204	C	02/03/2021	10:44	-134.502	43.507	0	975.40	0	3.5310	0	37.2640	8	29.647	0	965.348	0	10.5	4	3.4	4	-1E+10	1	-1E+10	1	-1E+10	1	-1E+10	1	-1E+10	1	-1E+10	1
4901784	204	C	02/03/2021	10:44	-134.502	43.507	0	980.30	0	3.5180	0	37.2670	8	29.651	0	970.186	0	10.6	4	3.4	4	-1E+10	1	-1E+10	1	-1E+10	1	-1E+10	1	-1E+10	1	-1E+10	1
4901784	204	C	02/03/2021	10:44	-134.502	43.507	0	985.40	0	3.5120	0	37.2710	8	29.655	0	975.221	0	10.6	4	3.4	4	-1E+10	1	-1E+10	1	-1E+10	1	-1E+10	1	-1E+10	1	-1E+10	1
4901784	204	C	02/03/2021	10:44	-134.502	43.507	0	990.40	0	3.5060	0	37.2730	8	29.657	0	980.158	0	10.7	4	3.4	4	-1E+10	1	-1E+10	1	-1E+10	1	-1E+10	1	-1E+10	1	-1E+10	1
4901784	204	C	02/03/2021	10:44	-134.502	43.507	0	995.40	0	3.4950	0	37.2750	8	29.660	0	985.095	0	10.7	4	3.4	4	-1E+10	1	-1E+10	1	-1E+10	1	-1E+10	1	-1E+10	1	-1E+10	1
4901784	204	C	02/03/2021	10:44	-134.502	43.507	0	1000.50	0	3.4860	0	37.2760	8	29.662	0	990.130	0	10.7	4	3.4	4	-1E+10	1	-1E+10	1	-1E+10	1	-1E+10	1	-1E+10	1	-1E+10	1
4901784	204	C	02/03/2021	10:44	-134.502	43.507	0	1005.50	0	3.4760	0	37.2770	8	29.664	0	995.066	0	10.7	4	3.4	4	-1E+10	1	-1E+10	1	-1E+10	1	-1E+10	1	-1E+10	1	-1E+10	1
4901784	204	C	02/03/2021	10:44	-134.502	43.507	0	1010.60	0	3.4650	0	37.2790	8	29.666	0	1000.101	0	10.8	4	3.4	4	-1E+10	1	-1E+10	1	-1E+10	1	-1E+10	1	-1E+10	1	-1E+10	1
4901784	204	C	02/03/2021	10:44	-134.502	43.507	0	1015.70	0	3.4560	0	37.2810	8	29.669	0	1005.136	0	10.8	4	3.5	4	-1E+10	1	-1E+10	1	-1E+10	1	-1E+10	1	-1E+10	1	-1E+10	1
4901784	204	C	02/03/2021	10:44	-134.502	43.507	0	1020.80	0	3.4390	0	37.2840	8	29.673	0	1010.170	0	11.0	4	3.5	4	-1E+10	1	-1E+10	1	-1E+10	1	-1E+10	1	-1E+10	1	-1E+10	1
4901784	204	C	02/03/2021	10:44	-134.502	43.507	0	1025.00	0	3.4320	0	37.2870	8	29.676	0	1014.317	0	11.1	4	3.5	4	-1E+10	1	-1E+10	1	-1E+10	1	-1E+10	1	-1E+10	1	-1E+10	1
4901784	204	C	02/03/2021	10:44	-134.502	43.507	0	1029.30	0	3.4250	0	37.2900	8	29.679	0	1018.561	0	11.1	4	3.5	4	-1E+10	1	-1E+10	1	-1E+10	1	-1E+10	1	-1E+10	1	-1E+10	1
4901784	204	C	02/03/2021	10:44	-134.502	43.507	0	1034.50	0	3.4190	0	37.2920	8	29.682	0	1023.694	0	11.1	4	3.6	4	-1E+10	1	-1E+10	1	-1E+10	1	-1E+10	1	-1E+10	1	-1E+10	1
4901784	204	C	02/03/2021	10:44	-134.502	43.507	0	1039.60	0	3.4090	0	37.2920	8	29.683	0	1028.729	0	11.2	4	3.6	4	-1E+10	1	-1E+10	1	-1E+10	1	-1E+10	1	-1E+10	1	-1E+10	1
4901784	204	C	02/03/2021	10:44	-134.502	43.507	0	1044.80	0	3.3890	0	37.2950	8	29.687	0	1033.861	0	11.3	4	3.6	4	-1E+10	1	-1E+10	1	-1E+10	1	-1E+10	1	-1E+10	1	-1E+10	1
4901784	204	C	02/03/2021	10:44	-134.502	43.507	0	1050.00	0	3.3780	0	37.2980	8	29.691	0	1038.994	0	11.4	4	3.6	4	-1E+10	1	-1E+10	1	-1E+10	1	-1E+10	1	-1E+10	1	-1E+10	1
4901784	204	C	02/03/2021	10:44	-134.502	43.507	0	1055.20	0	3.3610	0	37.3020	8	29.696	0	1044.127	0	11.4	4	3.6	4	-1E+10	1	-1E+10	1	-1E+10	1	-1E+10	1	-1E+10	1	-1E+10	1
4901784	204	C	02/03/2021	10:44	-134.502	43.507	0	1060.50	0	3.3500	0	37.3040	8	29.699	0	1049.358	0	11.5	4	3.7	4	-1E+10	1	-1E+10	1	-1E+10	1	-1E+10	1	-1E+10	1	-1E+10	1
4901784	204	C	02/03/2021	10:44	-134.502	43.507	0	1064.90	0	3.3460	0	37.3040	8	29.699	0	1053.701	0	11.5	4	3.7	4	-1E+10	1	-1E+10	1	-1E+10	1	-1E+10	1	-1E+10	1	-1E+10	1
4901784	204	C	02/03/2021	10:44	-134.502	43.507	0	1069.30	0	3.3370	0	37.3070	8	29.702	0	1058.043	0	11.6	4	3.7	4	-1E+10	1	-1E+10	1	-1E+10	1	-1E+10	1	-1E+10	1	-1E+10	1
4901784	204	C	02/03/2021	10:44	-134.502	43.507	0	1074.70	0	3.3280	0	37.3090	8	29.705	0	1063.373	0	11.7	4	3.7	4	-1E+10	1	-1E+10	1	-1E+10	1	-1E+10	1	-1E+10	1	-1E+10	1
4901784	204	C	02/03/2021	10:44	-134.502	43.507	0	1080.00	0	3.3210	0	37.3110	8	29.707	0	1068.603	0	11.8	4	3.7	4	-1E+10	1	-1E+10	1	-1E+10	1	-1E+10	1	-1E+10	1	-1E+10	1
4901784	204	C	02/03/2021	10:44	-134.502	43.507	0	1085.40	0	3.3140	0	37.3120	8	29.709	0	1073.933	0	11.8	4	3.8	4	-1E+10	1	-1E+10	1	-1E+10	1	-1E+10	1	-1E+10	1	-1E+10	1
4901784	204	C	02/03/2021	10:44	-134.502	43.507	0	1090.30	0	3.3030	0	37.3150	8	29.712	0	1078.768	0	11.9	4	3.8	4	-1E+10	1	-1E+10	1	-1E+10	1	-1E+10	1	-1E+10	1	-1E+10	1
4901784	204	C	02/03/2021	10:44	-134.502	43.507	0	1095.00	0	3.2980	0	37.3160	8	29.714	0	1083.406	0	12.0	4	3.8	4	-1E+10	1	-1E+10	1	-1E+10	1	-1E+10	1	-1E+10	1	-1E+10	1
4901784	204	C	02/03/2021	10:44	-134.502	43.507	0	1100.30	0	3.2870	0	37.3180	8	29.716	0	1088.637	0	12.0	4	3.8	4	-1E+10	1	-1E+10	1	-1E+10	1	-1E+10	1	-1E+10	1	-1E+10	1
4901784	204	C	02/03/2021	10:44	-134.502	43.507	0	1105.00	0	3.2810	0	37.3190	8	29.718	0	1093.274	0	12.1	4	3.9	4	-1E+10	1	-1E+10	1	-1E+10	1	-1E+10	1	-1E+10	1	-1E+10	1
4901784	204	C	02/03/2021	10:44	-134.502	43.507	0	1110.00	0	3.2680	0	37.3220	8	29.722	0	1098.208	0	12.2	4	3.9	4	-1E+10	1	-1E+10	1	-1E+10	1	-1E+10	1	-1E+10	1	-1E+10	1
4901784	204	C	02/03/2021	10:44	-134.502	43.507	0	1115.10	0	3.2590	0	37.3240	8	29.724	0	1103.241	0	12.3	4	3.9	4	-1E+10	1	-1E+10	1	-1E+10	1	-1E+10	1	-1E+10	1	-1E+10	1
4901784	204	C	02/03/2021	10:44	-134.502	43.507	0	1120.10	0	3.2470	0	37.3260	8	29.727	0	1108.174	0	12.4	4	3.9	4	-1E+10	1	-1E+10	1	-1E+10	1	-1E+10	1	-1E+10	1	-1E+10	1
4901784	204	C	02/03/2021	10:44	-134.502	43.507	0	1125.10	0	3.2380	0	37.3280	8	29.730	0	1113.108	0	12.5	4	4.0	4	-1E+10	1	-1E+10	1	-1E+10	1	-1E+10	1	-1E+10	1	-1E+10	1
4901784	204	C	02/03/2021	10:44	-134.502	43.507	0	1130.20	0	3.2340	0	37.3290	8	29.731	0	1118.140	0	12.5	4	4.0	4	-1E+10	1	-1E+10	1	-1E+10	1	-1E+10	1	-1E+10	1	-1E+10	1
4901784	204	C	02/03/2021	10:44	-134.502	43.507	0	1135.20	0	3.2250	0	37.3310	8	29.733	0	1123.073	0	12.6	4	4.0	4	-1E+10	1	-1E+10	1	-1E+10	1	-1E+10	1	-1E+10	1	-1E+10	1
4901784	204	C	02/03/2021	10:44	-134.502	43.507	0	1140.30	0	3.2180	0	37.3340	8	29.736	0	1128.105	0	12.8	4	4.1	4	-1E+10	1	-1E+10	1	-1E+10	1	-1E+10	1	-1E+10	1	-1E+10	1
4901784	204	C	02/03/2021	10:44	-134.502	43.507	0	1145.30	0	3.2080	0	37.3360	8	29.739	0	1133.038	0	12.9	4	4.1	4	-1E+10	1	-1E+10	1	-1E+10	1	-1E+10	1	-1E+10	1	-1E+10	1
4901784	204	C	02/03/2021	10:44	-134.502	43.507	0	1150.40	0	3.1960	0	37.3390	8	29.743	0	1138.070	0	13.0	4	4.1	4	-1E+10	1	-1E+10	1	-1E+10	1	-1E+10	1	-1E+10	1	-1E+10	1
4901784	204	C	02/03/2021	10:44	-134.502	43.507	0	1155.50	0	3.1870	0	37.3400	8	29.745	0	1143.101	0	13.1	4	4.2	4	-1E+10	1	-1E+10	1	-1E+10	1	-1E+10	1	-1E+10	1	-1E+10	1
4901784	204	C	02/03/2021	10:44	-134.502	43.507	0	1160.70	0	3.1750	0	37.3420	8	29.747	0	1148.231	0	13.2	4	4.2	4	-1E+10	1	-1E+10	1	-1E+10	1	-1E+10	1	-1E+10	1	-1E+10	1
4901784	204	C	02/03/2021	10:44	-134.502	43.507	0	1165.00	0	3.1690	0	37.3440	8	29.750	0	1152.473	0	13.4	4	4.2	4	-1E+10	1	-1E+10	1	-1E+10	1	-1E+10	1	-1E+10	1	-1E+10	1
4901784	204	C	02/03/2021	10:44	-134.502	43.507	0	1169.40	0	3.1570	0	37.3460	8	29.752	0	1156.814	0	13.5	4	4.3	4	-1E+10	1	-1E+10	1	-1E+10	1	-1E+10	1	-1E+10	1	-1E+10	1
4901784	204	C	02/03/2021	10:44	-134.502	43.507	0	1174.70	0	3.1450	0	37.3490	8	29.756	0	1162.042	0	13.7	4	4.3	4	-1E+10	1	-1E+10	1	-1E+10	1	-1E+10	1	-1E+10	1	-1E+10	1
4901784	204	C	02/03/2021	10:44	-134.502	43.507	0	1180.00	0	3.1360	0	37.3510	8	29.759	0	1167.270	0	13.8	4	4.4	4	-1E+10	1	-1E+10	1	-1E+10	1	-1E+10	1	-1E+10	1	-1E+10	1
4901784	204	C	02/03/2021	10:44	-134.502	43.507	0	1185.30	0	3.1250	0	37.3540	8	29.762	0	1172.498	0	14.0	4	4.4	4	-1E+10	1	-1E+10	1	-1E+10	1	-1E+10	1	-1E+10	1	-1E+10	1
4901784	204	C	02/03/2021	10:44	-134.502	43.507	0	1189.90	0	3.1100	0	37.3570	8	29.766	0	1177.036	0	14.0	4	4.4	4	-1E+10	1	-1E+10	1	-1E+10	1	-1E+10	1	-1E+10	1	-1E+10	1
4901784	204	C	02/03/2021	10:44	-134.502	43.507	0	1194.30	0	3.0970	0	37.3600	8	29.770	0	1181.376	0	14.2	4	4.5	4	-1E+10	1	-1E+10	1	-1E+10	1	-1E+10	1	-1E+10	1	-1E+10	1
4901784	204	C	02/03/2021	10:44	-134.502	43.507	0	1199.80	0	3.0870	0	37.3630	8	29.773	0	1186.801	0	14.3	4	4.5	4	-1E+10	1	-1E+10	1	-1E+10	1	-1E+10	1	-1E+10	1	-1E+10	1
4901784	204	C	02/03/2021	10:44	-134.502	43.507	0	1205.30	0	3.0790	0	37.3660	8	29.776	0	1192.226	0	14.4	4	4.6	4	-1E+10	1	-1E+10	1	-1E+10	1	-1E+10	1	-1E+10	1	-1E+10	1
4901784	204	C	02/03/2021	10:44	-134.502	43.507	0	1209.80	0	3.0730	0	37.3690	8	29.779	0	1196.664	0	14.5	4	4.6	4	-1E+10	1	-1E+10	1	-1E+10	1	-1E+10	1	-1E+10	1	-1E+10	1
4901784	204	C	02/03/2021	10:44	-134.502	43.507	0	1214.40	0	3.0630	0	37.3700	8	29.781	0	1201.201	0	14.6	4	4.6	4	-1E+10	1	-1E+10	1	-1E+10	1	-1E+10	1	-1E+10	1	-1E+10	1
4901784	204	C	02/03/2021	10:44	-134.502	43.507	0	1220.00	0	3.0520	0	37.3740	8	29.786	0	1206.724	0	14.7	4	4.7	4	-1E+10	1	-1E+10	1	-1E+10	1	-1E+10	1	-1E+10	1	-1E+10	1
4901784	204	C	02/03/2021	10:44	-134.502	43.507	0	1225.40	0	3.0450	0	37.3780	8	29.790	0	1212.050	0	14.8	4	4.7	4	-1E+10	1	-1E+10	1	-1E+10	1	-1E+10	1	-1E+10	1	-1E+10	1
4901784	204	C	02/03/2021	10:44	-134.502	43.507	0	1230.60	0	3.0360	0	37.3820	8	29.794	0	1217.178	0	15.0	4	4.7	4	-1E+10	1	-1E+10	1	-1E+10	1	-1E+10	1	-1E+10	1	-1E+10	1
4901784	204	C	02/03/2021	10:44	-134.502	43.507	0	1235.00	0	3.0330	0	37.3850	8	29.796	0	1221.517	0	15.1	4	4.8	4	-1E+10	1	-1E+10	1	-1E+10	1	-1E+10	1	-1E+10	1	-1E+10	1
4901784	204	C	02/03/2021	10:44	-134.502	43.507	0	1239.30	0	3.0220	0	37.3910	8	29.802	0	1225.758	0	15.2	4	4.8	4	-1E+10	1	-1E+10	1	-1E+10	1	-1E+10	1	-1E+10	1	-1E+10	1
4901784	204	C	02/03/2021	10:44	-134.502	43.507	0	1244.50	0	3.0140	0	37.3940	8	29.805	0	1230.886	0	15.4	4	4.9	4	-1E+10	1	-1E+10	1	-1E+10	1	-1E+10	1	-1E+10	1	-1E+10	1
4901784	204	C	02/03/2021	10:44	-134.502	43.507	0	1249.70	0	3.0050	0	37.3990	8	29.810	0	1236.014	0	15.5	4	4.9	4	-1E+10	1	-1E+10	1	-1E+10	1	-1E+10	1	-1E+10	1	-1E+10	1
4901784	204	C	02/03/2021	10:44	-134.502	43.507	0	1255.10	0	2.9990	0	37.4030	8	29.814	0	1241.339	0	15.6	4	4.9	4	-1E+10	1	-1E+10	1	-1E+10	1	-1E+10	1	-1E+10	1	-1E+10	1
4901784	204	C	02/03/2021	10:44	-134.502	43.507	0	1260.40	0	2.9920	0	37.4090	8	29.820	0	1246.565	0	15.7	4	5.0	4	-1E+10	1	-1E+10	1	-1E+10	1	-1E+10	1	-1E+10	1	-1E+10	1
4901784	204	C	02/03/2021	10:44	-134.502	43.507	0	1264.90	0	2.9860	0	37.4110	8	29.822	0	1251.002	0	15.8	4	5.0	4	-1E+10	1	-1E+10	1	-1E+10	1	-1E+10	1	-1E+10	1	-1E+10	1
4901784	204	C	02/03/2021	10:44	-134.502	43.507	0	1269.50	0	2.9740	0	37.4140	8	29.826	0	1255.538	0	16.0	4	5.0	4	-1E+10	1	-1E+10	1	-1E+10	1	-1E+10	1	-1E+10	1	-1E+10	1
4901784	204	C	02/03/2021	10:44	-134.502	43.507	0	1275.00	0	2.9670	0	37.4170	8	29.829	0	1260.961	0	16.1	4	5.1	4	-1E+10	1	-1E+10	1	-1E+10	1	-1E+10	1	-1E+10	1	-1E+10	1
4901784	204	C	02/03/2021	10:44	-134.502	43.507	0	1280.40	0	2.9580	0	37.4200	8	29.832	0	1266.285	0	16.3	4	5.1	4	-1E+10	1	-1E+10	1	-1E+10	1	-1E+10	1	-1E+10	1	-1E+10	1
4901784	204	C	02/03/2021	10:44	-134.502	43.507	0	1284.90	0	2.9550	0	37.4290	8	29.840	0	1270.722	0	16.4	4	5.2	4	-1E+10	1	-1E+10	1	-1E+10	1	-1E+10	1	-1E+10	1	-1E+10	1
4901784	204	C	02/03/2021	10:44	-134.502	43.507	0	1289.50	0	2.9490	0	37.4260	8	29.838	0	1275.257	0	16.5	4	5.2	4	-1E+10	1	-1E+10	1	-1E+10	1	-1E+10	1	-1E+10	1	-1E+10	1
4901784	204	C	02/03/2021	10:44	-134.502	43.507	0	1295.10	0	2.9410	0	37.4350	8	29.846	0	1280.778	0	16.7	4	5.3	4	-1E+10	1	-1E+10	1	-1E+10	1	-1E+10	1	-1E+10	1	-1E+10	1
4901784	204	C	02/03/2021	10:44	-134.502	43.507	0	1300.20	0	2.9360	0	37.4330	8	29.845	0	1285.806	0	16.8	4	5.3	4	-1E+10	1	-1E+10	1	-1E+10	1	-1E+10	1	-1E+10	1	-1E+10	1
4901784	204	C	02/03/2021	10:44	-134.502	43.507	0	1304.40	0	2.9270	0	37.4350	8	29.847	0	1289.947	0	16.9	4	5.3	4	-1E+10	1	-1E+10	1	-1E+10	1	-1E+10	1	-1E+10	1	-1E+10	1
4901784	204	C	02/03/2021	10:44	-134.502	43.507	0	1310.00	0	2.9200	0	37.4390	8	29.851	0	1295.468	0	17.0	4	5.4	4	-1E+10	1	-1E+10	1	-1E+10	1	-1E+10	1	-1E+10	1	-1E+10	1
4901784	204	C	02/03/2021	10:44	-134.502	43.507	0	1315.60	0	2.9130	0	37.4410	8	29.853	0	1300.988	0	17.2	4	5.4	4	-1E+10	1	-1E+10	1	-1E+10	1	-1E+10	1	-1E+10	1	-1E+10	1
4901784	204	C	02/03/2021	10:44	-134.502	43.507	0	1320.50	0	2.9050	0	37.4440	8	29.857	0	1305.819	0	17.3	4	5.5	4	-1E+10	1	-1E+10	1	-1E+10	1	-1E+10	1	-1E+10	1	-1E+10	1
4901784	204	C	02/03/2021	10:44	-134.502	43.507	0	1325.40	0	2.8940	0	37.4460	8	29.859	0	1310.649	0	17.5	4	5.5	4	-1E+10	1	-1E+10	1	-1E+10	1	-1E+10	1	-1E+10	1	-1E+10	1
4901784	204	C	02/03/2021	10:44	-134.502	43.507	0	1330.40	0	2.8850	0	37.4550	8	29.867	0	1315.578	0	17.6	4	5.5	4	-1E+10	1	-1E+10	1	-1E+10	1	-1E+10	1	-1E+10	1	-1E+10	1
4901784	204	C	02/03/2021	10:44	-134.502	43.507	0	1335.30	0	2.8790	0	37.4620	8	29.874	0	1320.408	0	17.7	4	5.6	4	-1E+10	1	-1E+10	1	-1E+10	1	-1E+10	1	-1E+10	1	-1E+10	1
4901784	204	C	02/03/2021	10:44	-134.502	43.507	0	1340.40	0	2.8700	0	37.4660	8	29.878	0	1325.435	0	17.9	4	5.6	4	-1E+10	1	-1E+10	1	-1E+10	1	-1E+10	1	-1E+10	1	-1E+10	1
4901784	204	C	02/03/2021	10:44	-134.502	43.507	0	1345.40	0	2.8560	0	37.4690	8	29.882	0	1330.363	0	18.2	4	5.7	4	-1E+10	1	-1E+10	1	-1E+10	1	-1E+10	1	-1E+10	1	-1E+10	1
4901784	204	C	02/03/2021	10:44	-134.502	43.507	0	1350.50	0	2.8450	0	37.4710	8	29.884	0	1335.390	0	18.3	4	5.8	4	-1E+10	1	-1E+10	1	-1E+10	1	-1E+10	1	-1E+10	1	-1E+10	1
4901784	204	C	02/03/2021	10:44	-134.502	43.507	0	1355.50	0	2.8380	0	37.4800	8	29.892	0	1340.318	0	18.5	4	5.8	4	-1E+10	1	-1E+10	1	-1E+10	1	-1E+10	1	-1E+10	1	-1E+10	1
4901784	204	C	02/03/2021	10:44	-134.502	43.507	0	1360.60	0	2.8290	0	37.4860	8	29.898	0	1345.345	0	18.6	4	5.9	4	-1E+10	1	-1E+10	1	-1E+10	1	-1E+10	1	-1E+10	1	-1E+10	1
4901784	204	C	02/03/2021	10:44	-134.502	43.507	0	1365.60	0	2.8230	0	37.4910	8	29.903	0	1350.273	0	18.8	4	5.9	4	-1E+10	1	-1E+10	1	-1E+10	1	-1E+10	1	-1E+10	1	-1E+10	1
4901784	204	C	02/03/2021	10:44	-134.502	43.507	0	1370.70	0	2.8120	0	37.4980	8	29.909	0	1355.299	0	19.1	4	6.0	4	-1E+10	1	-1E+10	1	-1E+10	1	-1E+10	1	-1E+10	1	-1E+10	1
4901784	204	C	02/03/2021	10:44	-134.502	43.507	0	1375.00	0	2.8060	0	37.5140	8	29.923	0	1359.537	0	19.2	4	6.0	4	-1E+10	1	-1E+10	1	-1E+10	1	-1E+10	1	-1E+10	1	-1E+10	1
4901784	204	C	02/03/2021	10:44	-134.502	43.507	0	1379.30	0	2.7970	0	37.5100	8	29.920	0	1363.775	0	19.3	4	6.1	4	-1E+10	1	-1E+10	1	-1E+10	1	-1E+10	1	-1E+10	1	-1E+10	1
4901784	204	C	02/03/2021	10:44	-134.502	43.507	0	1384.40	0	2.7880	0	37.5190	8	29.928	0	1368.801	0	19.5	4	6.1	4	-1E+10	1	-1E+10	1	-1E+10	1	-1E+10	1	-1E+10	1	-1E+10	1
4901784	204	C	02/03/2021	10:44	-134.502	43.507	0	1389.60	0	2.7830	0	37.5290	8	29.937	0	1373.926	0	19.6	4	6.2	4	-1E+10	1	-1E+10	1	-1E+10	1	-1E+10	1	-1E+10	1	-1E+10	1
4901784	204	C	02/03/2021	10:44	-134.502	43.507	0	1394.80	0	2.7720	0	37.5350	8	29.943	0	1379.050	0	19.8	4	6.2	4	-1E+10	1	-1E+10	1	-1E+10	1	-1E+10	1	-1E+10	1	-1E+10	1
4901784	204	C	02/03/2021	10:44	-134.502	43.507	0	1399.90	0	2.7620	0	37.5390	8	29.947	0	1384.076	0	20.0	4	6.3	4	-1E+10	1	-1E+10	1	-1E+10	1	-1E+10	1	-1E+10	1	-1E+10	1
4901784	204	C	02/03/2021	10:44	-134.502	43.507	0	1405.10	0	2.7480	0	37.5470	8	29.955	0	1389.200	0	20.3	4	6.4	4	-1E+10	1	-1E+10	1	-1E+10	1	-1E+10	1	-1E+10	1	-1E+10	1
4901784	204	C	02/03/2021	10:44	-134.502	43.507	0	1410.30	0	2.7350	0	37.5450	8	29.954	0	1394.324	0	20.6	4	6.5	4	-1E+10	1	-1E+10	1	-1E+10	1	-1E+10	1	-1E+10	1	-1E+10	1
4901784	204	C	02/03/2021	10:44	-134.502	43.507	0	1415.60	0	2.7250	0	37.5490	8	29.959	0	1399.546	0	20.9	4	6.6	4	-1E+10	1	-1E+10	1	-1E+10	1	-1E+10	1	-1E+10	1	-1E+10	1
4901784	204	C	02/03/2021	10:44	-134.502	43.507	0	1419.90	0	2.7170	0	37.5540	8	29.963	0	1403.783	0	21.1	4	6.6	4	-1E+10	1	-1E+10	1	-1E+10	1	-1E+10	1	-1E+10	1	-1E+10	1
4901784	204	C	02/03/2021	10:44	-134.502	43.507	0	1424.20	0	2.7140	0	37.5500	8	29.961	0	1408.020	0	21.3	4	6.7	4	-1E+10	1	-1E+10	1	-1E+10	1	-1E+10	1	-1E+10	1	-1E+10	1
4901784	204	C	02/03/2021	10:44	-134.502	43.507	0	1429.50	0	2.7040	0	37.5510	8	29.962	0	1413.242	0	21.5	4	6.8	4	-1E+10	1	-1E+10	1	-1E+10	1	-1E+10	1	-1E+10	1	-1E+10	1
4901784	204	C	02/03/2021	10:44	-134.502	43.507	0	1434.70	0	2.6970	0	37.5540	8	29.965	0	1418.365	0	21.7	4	6.8	4	-1E+10	1	-1E+10	1	-1E+10	1	-1E+10	1	-1E+10	1	-1E+10	1
4901784	204	C	02/03/2021	10:44	-134.502	43.507	0	1439.90	0	2.6910	0	37.5600	8	29.971	0	1423.489	0	22.0	4	6.9	4	-1E+10	1	-1E+10	1	-1E+10	1	-1E+10	1	-1E+10	1	-1E+10	1
4901784	204	C	02/03/2021	10:44	-134.502	43.507	0	1445.20	0	2.6860	0	37.5670	8	29.977	0	1428.710	0	22.4	4	7.0	4	-1E+10	1	-1E+10	1	-1E+10	1	-1E+10	1	-1E+10	1	-1E+10	1
4901784	204	C	02/03/2021	10:44	-134.502	43.507	0	1450.40	0	2.6780	0	37.5660	8	29.977	0	1433.833	0	22.7	4	7.1	4	-1E+10	1	-1E+10	1	-1E+10	1	-1E+10	1	-1E+10	1	-1E+10	1
4901784	204	C	02/03/2021	10:44	-134.502	43.507	0	1455.70	0	2.6680	0	37.5640	8	29.976	0	1439.055	0	23.0	4	7.2	4	-1E+10	1	-1E+10	1	-1E+10	1	-1E+10	1	-1E+10	1	-1E+10	1
4901784	204	C	02/03/2021	10:44	-134.502	43.507	0	1460.00	0	2.6570	0	37.5680	8	29.981	0	1443.291	0	23.3	4	7.3	4	-1E+10	1	-1E+10	1	-1E+10	1	-1E+10	1	-1E+10	1	-1E+10	1
4901784	204	C	02/03/2021	10:44	-134.502	43.507	0	1464.40	0	2.6460	0	37.5700	8	29.983	0	1447.625	0	23.6	4	7.4	4	-1E+10	1	-1E+10	1	-1E+10	1	-1E+10	1	-1E+10	1	-1E+10	1
4901784	204	C	02/03/2021	10:44	-134.502	43.507	0	1469.60	0	2.6380	0	37.5830	8	29.994	0	1452.748	0	23.8	4	7.5	4	-1E+10	1	-1E+10	1	-1E+10	1	-1E+10	1	-1E+10	1	-1E+10	1
4901784	204	C	02/03/2021	10:44	-134.502	43.507	0	1474.80	0	2.6320	0	37.5910	8	30.001	0	1457.870	0	24.1	4	7.6	4	-1E+10	1	-1E+10	1	-1E+10	1	-1E+10	1	-1E+10	1	-1E+10	1
4901784	204	C	02/03/2021	10:44	-134.502	43.507	0	1480.10	0	2.6210	0	37.5870	8	29.999	0	1463.091	0	24.4	4	7.7	4	-1E+10	1	-1E+10	1	-1E+10	1	-1E+10	1	-1E+10	1	-1E+10	1
4901784	204	C	02/03/2021	10:44	-134.502	43.507	0	1485.40	0	2.6140	0	37.5910	8	30.003	0	1468.312	0	24.7	4	7.7	4	-1E+10	1	-1E+10	1	-1E+10	1	-1E+10	1	-1E+10	1	-1E+10	1
4901784	204	C	02/03/2021	10:44	-134.502	43.507	0	1490.70	0	2.6050	0	37.5950	8	30.007	0	1473.532	0	25.0	4	7.8	4	-1E+10	1	-1E+10	1	-1E+10	1	-1E+10	1	-1E+10	1	-1E+10	1
4901784	204	C	02/03/2021	10:44	-134.502	43.507	0	1495.10	0	2.5970	0	37.6030	8	30.014	0	1477.866	0	25.2	4	7.9	4	-1E+10	1	-1E+10	1	-1E+10	1	-1E+10	1	-1E+10	1	-1E+10	1
4901784	204	C	02/03/2021	10:44	-134.502	43.507	0	1499.60	0	2.5880	0	37.6050	8	30.017	0	1482.299	0	25.5	4	8.0	4	-1E+10	1	-1E+10	1	-1E+10	1	-1E+10	1	-1E+10	1	-1E+10	1
4901784	204	C	02/03/2021	10:44	-134.502	43.507	0	1504.80	0	2.5800	0	37.6250	8	30.034	0	1487.421	0	25.8	4	8.1	4	-1E+10	1	-1E+10	1	-1E+10	1	-1E+10	1	-1E+10	1	-1E+10	1
4901784	204	C	02/03/2021	10:44	-134.502	43.507	0	1510.10	0	2.5710	0	37.6200	8	30.031	0	1492.641	0	26.1	4	8.2	4	-1E+10	1	-1E+10	1	-1E+10	1	-1E+10	1	-1E+10	1	-1E+10	1
4901784	204	C	02/03/2021	10:44	-134.502	43.507	0	1515.50	0	2.5610	0	37.6220	8	30.033	0	1497.959	0	26.4	4	8.3	4	-1E+10	1	-1E+10	1	-1E+10	1	-1E+10	1	-1E+10	1	-1E+10	1
4901784	204	C	02/03/2021	10:44	-134.502	43.507	0	1519.90	0	2.5550	0	37.6110	8	30.025	0	1502.293	0	26.6	4	8.3	4	-1E+10	1	-1E+10	1	-1E+10	1	-1E+10	1	-1E+10	1	-1E+10	1
4901784	204	C	02/03/2021	10:44	-134.502	43.507	0	1524.40	0	2.5500	0	37.6170	8	30.030	0	1506.724	0	26.8	4	8.4	4	-1E+10	1	-1E+10	1	-1E+10	1	-1E+10	1	-1E+10	1	-1E+10	1
4901784	204	C	02/03/2021	10:44	-134.502	43.507	0	1529.70	0	2.5410	0	37.6240	8	30.037	0	1511.944	0	27.0	4	8.5	4	-1E+10	1	-1E+10	1	-1E+10	1	-1E+10	1	-1E+10	1	-1E+10	1
4901784	204	C	02/03/2021	10:44	-134.502	43.507	0	1535.20	0	2.5360	0	37.6320	8	30.044	0	1517.360	0	27.3	4	8.5	4	-1E+10	1	-1E+10	1	-1E+10	1	-1E+10	1	-1E+10	1	-1E+10	1
4901784	204	C	02/03/2021	10:44	-134.502	43.507	0	1540.60	0	2.5290	0	37.6340	8	30.046	0	1522.678	0	27.6	4	8.6	4	-1E+10	1	-1E+10	1	-1E+10	1	-1E+10	1	-1E+10	1	-1E+10	1
4901784	204	C	02/03/2021	10:44	-134.502	43.507	0	1545.20	0	2.5230	0	37.6350	8	30.047	0	1527.208	0	27.8	4	8.7	4	-1E+10	1	-1E+10	1	-1E+10	1	-1E+10	1	-1E+10	1	-1E+10	1
4901784	204	C	02/03/2021	10:44	-134.502	43.507	0	1549.70	0	2.5130	0	37.6400	8	30.052	0	1531.639	0	28.1	4	8.8	4	-1E+10	1	-1E+10	1	-1E+10	1	-1E+10	1	-1E+10	1	-1E+10	1
4901784	204	C	02/03/2021	10:44	-134.502	43.507	0	1555.10	0	2.5060	0	37.6360	8	30.050	0	1536.957	0	28.4	4	8.9	4	-1E+10	1	-1E+10	1	-1E+10	1	-1E+10	1	-1E+10	1	-1E+10	1
4901784	204	C	02/03/2021	10:44	-134.502	43.507	0	1560.60	0	2.4970	0	37.6380	8	30.052	0	1542.373	0	28.8	4	9.0	4	-1E+10	1	-1E+10	1	-1E+10	1	-1E+10	1	-1E+10	1	-1E+10	1
4901784	204	C	02/03/2021	10:44	-134.502	43.507	0	1565.20	0	2.4850	0	37.6450	8	30.059	0	1546.902	0	29.1	4	9.1	4	-1E+10	1	-1E+10	1	-1E+10	1	-1E+10	1	-1E+10	1	-1E+10	1
4901784	204	C	02/03/2021	10:44	-134.502	43.507	0	1569.80	0	2.4800	0	37.6390	8	30.055	0	1551.432	0	29.4	4	9.2	4	-1E+10	1	-1E+10	1	-1E+10	1	-1E+10	1	-1E+10	1	-1E+10	1
4901784	204	C	02/03/2021	10:44	-134.502	43.507	0	1575.20	0	2.4690	0	37.6430	8	30.059	0	1556.748	0	29.8	4	9.3	4	-1E+10	1	-1E+10	1	-1E+10	1	-1E+10	1	-1E+10	1	-1E+10	1
4901784	204	C	02/03/2021	10:44	-134.502	43.507	0	1579.80	0	2.4620	0	37.6470	8	30.063	0	1561.278	0	30.1	4	9.4	4	-1E+10	1	-1E+10	1	-1E+10	1	-1E+10	1	-1E+10	1	-1E+10	1
4901784	204	C	02/03/2021	10:44	-134.502	43.507	0	1584.40	0	2.4490	0	37.6440	8	30.062	0	1565.807	0	30.4	4	9.5	4	-1E+10	1	-1E+10	1	-1E+10	1	-1E+10	1	-1E+10	1	-1E+10	1
4901784	204	C	02/03/2021	10:44	-134.502	43.507	0	1590.00	0	2.4430	0	37.6430	8	30.061	0	1571.320	0	30.6	4	9.5	4	-1E+10	1	-1E+10	1	-1E+10	1	-1E+10	1	-1E+10	1	-1E+10	1
4901784	204	C	02/03/2021	10:44	-134.502	43.507	0	1595.40	0	2.4360	0	37.6560	8	30.073	0	1576.637	0	30.9	4	9.6	4	-1E+10	1	-1E+10	1	-1E+10	1	-1E+10	1	-1E+10	1	-1E+10	1
4901784	204	C	02/03/2021	10:44	-134.502	43.507	0	1600.00	0	2.4280	0	37.6620	8	30.078	0	1581.165	0	31.2	4	9.7	4	-1E+10	1	-1E+10	1	-1E+10	1	-1E+10	1	-1E+10	1	-1E+10	1
4901784	204	C	02/03/2021	10:44	-134.502	43.507	0	1604.90	0	2.4210	0	37.6550	8	30.073	0	1585.989	0	31.4	4	9.8	4	-1E+10	1	-1E+10	1	-1E+10	1	-1E+10	1	-1E+10	1	-1E+10	1
4901784	204	C	02/03/2021	10:44	-134.502	43.507	0	1610.10	0	2.4130	0	37.6500	8	30.070	0	1591.109	0	31.8	4	9.9	4	-1E+10	1	-1E+10	1	-1E+10	1	-1E+10	1	-1E+10	1	-1E+10	1
4901784	204	C	02/03/2021	10:44	-134.502	43.507	0	1614.90	0	2.4020	0	37.6450	8	30.067	0	1595.834	0	32.2	4	10.0	4	-1E+10	1	-1E+10	1	-1E+10	1	-1E+10	1	-1E+10	1	-1E+10	1
4901784	204	C	02/03/2021	10:44	-134.502	43.507	0	1619.70	0	2.3930	0	37.6350	8	30.060	0	1600.559	0	32.6	4	10.2	4	-1E+10	1	-1E+10	1	-1E+10	1	-1E+10	1	-1E+10	1	-1E+10	1
4901784	204	C	02/03/2021	10:44	-134.502	43.507	0	1624.60	0	2.3820	0	37.6370	8	30.062	0	1605.383	0	33.0	4	10.3	4	-1E+10	1	-1E+10	1	-1E+10	1	-1E+10	1	-1E+10	1	-1E+10	1
4901784	204	C	02/03/2021	10:44	-134.502	43.507	0	1629.40	0	2.3750	0	37.6380	8	30.064	0	1610.108	0	33.4	4	10.4	4	-1E+10	1	-1E+10	1	-1E+10	1	-1E+10	1	-1E+10	1	-1E+10	1
4901784	204	C	02/03/2021	10:44	-134.502	43.507	0	1634.30	0	2.3700	0	37.6350	8	30.062	0	1614.931	0	33.6	4	10.5	4	-1E+10	1	-1E+10	1	-1E+10	1	-1E+10	1	-1E+10	1	-1E+10	1
4901784	204	C	02/03/2021	10:44	-134.502	43.507	0	1640.00	0	2.3590	0	37.6350	8	30.063	0	1620.542	0	33.9	4	10.5	4	-1E+10	1	-1E+10	1	-1E+10	1	-1E+10	1	-1E+10	1	-1E+10	1
4901784	204	C	02/03/2021	10:44	-134.502	43.507	0	1645.70	0	2.3530	0	37.6350	8	30.064	0	1626.152	0	34.2	4	10.7	4	-1E+10	1	-1E+10	1	-1E+10	1	-1E+10	1	-1E+10	1	-1E+10	1
4901784	204	C	02/03/2021	10:44	-134.502	43.507	0	1650.70	0	2.3480	0	37.6300	8	30.060	0	1631.073	0	34.5	4	10.8	4	-1E+10	1	-1E+10	1	-1E+10	1	-1E+10	1	-1E+10	1	-1E+10	1
4901784	204	C	02/03/2021	10:44	-134.502	43.507	0	1655.70	0	2.3430	0	37.6310	8	30.061	0	1635.995	0	34.8	4	10.8	4	-1E+10	1	-1E+10	1	-1E+10	1	-1E+10	1	-1E+10	1	-1E+10	1
4901784	204	C	02/03/2021	10:44	-134.502	43.507	0	1660.80	0	2.3370	0	37.6280	8	30.060	0	1641.014	0	35.2	4	10.9	4	-1E+10	1	-1E+10	1	-1E+10	1	-1E+10	1	-1E+10	1	-1E+10	1
4901784	204	C	02/03/2021	10:44	-134.502	43.507	0	1665.00	0	2.3270	0	37.6230	8	30.056	0	1645.148	0	35.5	4	11.1	4	-1E+10	1	-1E+10	1	-1E+10	1	-1E+10	1	-1E+10	1	-1E+10	1
4901784	204	C	02/03/2021	10:44	-134.502	43.507	0	1669.30	0	2.3160	0	37.6250	8	30.059	0	1649.380	0	35.9	4	11.2	4	-1E+10	1	-1E+10	1	-1E+10	1	-1E+10	1	-1E+10	1	-1E+10	1
4901784	204	C	02/03/2021	10:44	-134.502	43.507	0	1674.40	0	2.2960	0	37.6250	8	30.061	0	1654.399	0	36.4	4	11.3	4	-1E+10	1	-1E+10	1	-1E+10	1	-1E+10	1	-1E+10	1	-1E+10	1
4901784	204	C	02/03/2021	10:44	-134.502	43.507	0	1679.60	0	2.2850	0	37.6210	8	30.059	0	1659.517	0	36.8	4	11.4	4	-1E+10	1	-1E+10	1	-1E+10	1	-1E+10	1	-1E+10	1	-1E+10	1
4901784	204	C	02/03/2021	10:44	-134.502	43.507	0	1684.70	0	2.2790	0	37.6160	8	30.055	0	1664.536	0	37.2	4	11.6	4	-1E+10	1	-1E+10	1	-1E+10	1	-1E+10	1	-1E+10	1	-1E+10	1
4901784	204	C	02/03/2021	10:44	-134.502	43.507	0	1689.90	0	2.2690	0	37.6190	8	30.059	0	1669.653	0	37.7	4	11.7	4	-1E+10	1	-1E+10	1	-1E+10	1	-1E+10	1	-1E+10	1	-1E+10	1
4901784	204	C	02/03/2021	10:44	-134.502	43.507	0	1695.10	0	2.2600	0	37.6210	8	30.061	0	1674.770	0	38.1	4	11.8	4	-1E+10	1	-1E+10	1	-1E+10	1	-1E+10	1	-1E+10	1	-1E+10	1
4901784	204	C	02/03/2021	10:44	-134.502	43.507	0	1700.30	0	2.2530	0	37.6260	8	30.066	0	1679.887	0	38.4	4	11.9	4	-1E+10	1	-1E+10	1	-1E+10	1	-1E+10	1	-1E+10	1	-1E+10	1
4901784	204	C	02/03/2021	10:44	-134.502	43.507	0	1705.50	0	2.2480	0	37.6240	8	30.065	0	1685.004	0	38.7	4	12.0	4	-1E+10	1	-1E+10	1	-1E+10	1	-1E+10	1	-1E+10	1	-1E+10	1
4901784	204	C	02/03/2021	10:44	-134.502	43.507	0	1709.90	0	2.2400	0	37.6290	8	30.069	0	1689.334	0	39.0	4	12.1	4	-1E+10	1	-1E+10	1	-1E+10	1	-1E+10	1	-1E+10	1	-1E+10	1
4901784	204	C	02/03/2021	10:44	-134.502	43.507	0	1714.30	0	2.2360	0	37.6260	8	30.067	0	1693.663	0	39.3	4	12.2	4	-1E+10	1	-1E+10	1	-1E+10	1	-1E+10	1	-1E+10	1	-1E+10	1
4901784	204	C	02/03/2021	10:44	-134.502	43.507	0	1719.60	0	2.2280	0	37.6220	8	30.065	0	1698.878	0	39.7	4	12.3	4	-1E+10	1	-1E+10	1	-1E+10	1	-1E+10	1	-1E+10	1	-1E+10	1
4901784	204	C	02/03/2021	10:44	-134.502	43.507	0	1725.60	0	2.2190	0	37.6210	8	30.065	0	1704.782	0	40.2	4	12.5	4	-1E+10	1	-1E+10	1	-1E+10	1	-1E+10	1	-1E+10	1	-1E+10	1
4901784	204	C	02/03/2021	10:44	-134.502	43.507	0	1730.50	0	2.2130	0	37.6170	8	30.062	0	1709.603	0	40.5	4	12.6	4	-1E+10	1	-1E+10	1	-1E+10	1	-1E+10	1	-1E+10	1	-1E+10	1
4901784	204	C	02/03/2021	10:44	-134.502	43.507	0	1735.30	0	2.2070	0	37.6190	8	30.064	0	1714.326	0	40.8	4	12.7	4	-1E+10	1	-1E+10	1	-1E+10	1	-1E+10	1	-1E+10	1	-1E+10	1
4901784	204	C	02/03/2021	10:44	-134.502	43.507	0	1740.10	0	2.2010	0	37.6130	8	30.060	0	1719.048	0	41.1	4	12.7	4	-1E+10	1	-1E+10	1	-1E+10	1	-1E+10	1	-1E+10	1	-1E+10	1
4901784	204	C	02/03/2021	10:44	-134.502	43.507	0	1744.90	0	2.1960	0	37.6150	8	30.062	0	1723.771	0	41.4	4	12.8	4	-1E+10	1	-1E+10	1	-1E+10	1	-1E+10	1	-1E+10	1	-1E+10	1
4901784	204	C	02/03/2021	10:44	-134.502	43.507	0	1749.70	0	2.1890	0	37.6280	8	30.073	0	1728.493	0	41.7	4	12.9	4	-1E+10	1	-1E+10	1	-1E+10	1	-1E+10	1	-1E+10	1	-1E+10	1
4901784	204	C	02/03/2021	10:44	-134.502	43.507	0	1754.60	0	2.1810	0	37.6190	8	30.067	0	1733.314	0	42.0	4	13.0	4	-1E+10	1	-1E+10	1	-1E+10	1	-1E+10	1	-1E+10	1	-1E+10	1
4901784	204	C	02/03/2021	10:44	-134.502	43.507	0	1759.50	0	2.1770	0	37.6120	8	30.062	0	1738.134	0	42.3	4	13.1	4	-1E+10	1	-1E+10	1	-1E+10	1	-1E+10	1	-1E+10	1	-1E+10	1
4901784	204	C	02/03/2021	10:44	-134.502	43.507	0	1764.40	0	2.1710	0	37.6100	8	30.061	0	1742.955	0	42.7	4	13.2	4	-1E+10	1	-1E+10	1	-1E+10	1	-1E+10	1	-1E+10	1	-1E+10	1
4901784	204	C	02/03/2021	10:44	-134.502	43.507	0	1769.30	0	2.1680	0	37.6120	8	30.062	0	1747.775	0	43.1	4	13.3	4	-1E+10	1	-1E+10	1	-1E+10	1	-1E+10	1	-1E+10	1	-1E+10	1
4901784	204	C	02/03/2021	10:44	-134.502	43.507	0	1774.30	0	2.1590	0	37.6170	8	30.067	0	1752.693	0	43.4	4	13.4	4	-1E+10	1	-1E+10	1	-1E+10	1	-1E+10	1	-1E+10	1	-1E+10	1
4901784	204	C	02/03/2021	10:44	-134.502	43.507	0	1779.30	0	2.1530	0	37.6140	8	30.065	0	1757.612	0	43.7	4	13.6	4	-1E+10	1	-1E+10	1	-1E+10	1	-1E+10	1	-1E+10	1	-1E+10	1
4901784	204	C	02/03/2021	10:44	-134.502	43.507	0	1784.30	0	2.1450	0	37.6250	8	30.075	0	1762.530	0	44.2	4	13.7	4	-1E+10	1	-1E+10	1	-1E+10	1	-1E+10	1	-1E+10	1	-1E+10	1
4901784	204	C	02/03/2021	10:44	-134.502	43.507	0	1789.30	0	2.1390	0	37.6280	8	30.078	0	1767.448	0	44.4	4	13.7	4	-1E+10	1	-1E+10	1	-1E+10	1	-1E+10	1	-1E+10	1	-1E+10	1
4901784	204	C	02/03/2021	10:44	-134.502	43.507	0	1794.30	0	2.1340	0	37.6260	8	30.077	0	1772.366	0	44.6	4	13.8	4	-1E+10	1	-1E+10	1	-1E+10	1	-1E+10	1	-1E+10	1	-1E+10	1
4901784	204	C	02/03/2021	10:44	-134.502	43.507	0	1799.40	0	2.1290	0	37.6230	8	30.075	0	1777.383	0	44.9	4	13.9	4	-1E+10	1	-1E+10	1	-1E+10	1	-1E+10	1	-1E+10	1	-1E+10	1
4901784	204	C	02/03/2021	10:44	-134.502	43.507	0	1804.50	0	2.1250	0	37.6230	8	30.075	0	1782.399	0	45.2	4	14.0	4	-1E+10	1	-1E+10	1	-1E+10	1	-1E+10	1	-1E+10	1	-1E+10	1
4901784	204	C	02/03/2021	10:44	-134.502	43.507	0	1809.60	0	2.1210	0	37.6220	8	30.075	0	1787.415	0	45.5	4	14.1	4	-1E+10	1	-1E+10	1	-1E+10	1	-1E+10	1	-1E+10	1	-1E+10	1
4901784	204	C	02/03/2021	10:44	-134.502	43.507	0	1814.80	0	2.1140	0	37.6270	8	30.080	0	1792.529	0	45.9	4	14.2	4	-1E+10	1	-1E+10	1	-1E+10	1	-1E+10	1	-1E+10	1	-1E+10	1
4901784	204	C	02/03/2021	10:44	-134.502	43.507	0	1820.00	0	2.1090	0	37.6320	8	30.084	0	1797.644	0	46.2	4	14.3	4	-1E+10	1	-1E+10	1	-1E+10	1	-1E+10	1	-1E+10	1	-1E+10	1
4901784	204	C	02/03/2021	10:44	-134.502	43.507	0	1825.30	0	2.1030	0	37.6320	8	30.085	0	1802.856	0	46.6	4	14.4	4	-1E+10	1	-1E+10	1	-1E+10	1	-1E+10	1	-1E+10	1	-1E+10	1
4901784	204	C	02/03/2021	10:44	-134.502	43.507	0	1830.60	0	2.0970	0	37.6330	8	30.086	0	1808.068	0	47.1	4	14.6	4	-1E+10	1	-1E+10	1	-1E+10	1	-1E+10	1	-1E+10	1	-1E+10	1
4901784	204	C	02/03/2021	10:44	-134.502	43.507	0	1835.10	0	2.0920	0	37.6270	8	30.082	0	1812.494	0	47.4	4	14.7	4	-1E+10	1	-1E+10	1	-1E+10	1	-1E+10	1	-1E+10	1	-1E+10	1
4901784	204	C	02/03/2021	10:44	-134.502	43.507	0	1839.60	0	2.0870	0	37.6220	8	30.078	0	1816.919	0	47.8	4	14.8	4	-1E+10	1	-1E+10	1	-1E+10	1	-1E+10	1	-1E+10	1	-1E+10	1
4901784	204	C	02/03/2021	10:44	-134.502	43.507	0	1845.00	0	2.0820	0	37.6260	8	30.082	0	1822.229	0	48.2	4	14.9	4	-1E+10	1	-1E+10	1	-1E+10	1	-1E+10	1	-1E+10	1	-1E+10	1
4901784	204	C	02/03/2021	10:44	-134.502	43.507	0	1850.40	0	2.0790	0	37.6320	8	30.087	0	1827.540	0	48.5	4	15.0	4	-1E+10	1	-1E+10	1	-1E+10	1	-1E+10	1	-1E+10	1	-1E+10	1
4901784	204	C	02/03/2021	10:44	-134.502	43.507	0	1854.90	0	2.0750	0	37.6410	8	30.094	0	1831.965	0	48.8	4	15.1	4	-1E+10	1	-1E+10	1	-1E+10	1	-1E+10	1	-1E+10	1	-1E+10	1
4901784	204	C	02/03/2021	10:44	-134.502	43.507	0	1859.50	0	2.0700	0	37.6380	8	30.093	0	1836.488	0	49.1	4	15.2	4	-1E+10	1	-1E+10	1	-1E+10	1	-1E+10	1	-1E+10	1	-1E+10	1
4901784	204	C	02/03/2021	10:44	-134.502	43.507	0	1865.00	0	2.0600	0	37.6340	8	30.090	0	1841.896	0	49.5	4	15.3	4	-1E+10	1	-1E+10	1	-1E+10	1	-1E+10	1	-1E+10	1	-1E+10	1
4901784	204	C	02/03/2021	10:44	-134.502	43.507	0	1870.10	0	2.0560	0	37.6360	8	30.092	0	1846.911	0	49.8	4	15.4	4	-1E+10	1	-1E+10	1	-1E+10	1	-1E+10	1	-1E+10	1	-1E+10	1
4901784	204	C	02/03/2021	10:44	-134.502	43.507	0	1874.30	0	2.0510	0	37.6420	8	30.097	0	1851.040	0	50.0	4	15.5	4	-1E+10	1	-1E+10	1	-1E+10	1	-1E+10	1	-1E+10	1	-1E+10	1
4901784	204	C	02/03/2021	10:44	-134.502	43.507	0	1880.00	0	2.0480	0	37.6390	8	30.095	0	1856.645	0	50.3	4	15.5	4	-1E+10	1	-1E+10	1	-1E+10	1	-1E+10	1	-1E+10	1	-1E+10	1
4901784	204	C	02/03/2021	10:44	-134.502	43.507	0	1885.70	0	2.0450	0	37.6390	8	30.096	0	1862.249	0	50.6	4	15.6	4	-1E+10	1	-1E+10	1	-1E+10	1	-1E+10	1	-1E+10	1	-1E+10	1
4901784	204	C	02/03/2021	10:44	-134.502	43.507	0	1890.60	0	2.0380	0	37.6390	8	30.096	0	1867.066	0	50.9	4	15.7	4	-1E+10	1	-1E+10	1	-1E+10	1	-1E+10	1	-1E+10	1	-1E+10	1
4901784	204	C	02/03/2021	10:44	-134.502	43.507	0	1895.60	0	2.0330	0	37.6380	8	30.096	0	1871.982	0	51.2	4	15.8	4	-1E+10	1	-1E+10	1	-1E+10	1	-1E+10	1	-1E+10	1	-1E+10	1
4901784	204	C	02/03/2021	10:44	-134.502	43.507	0	1900.60	0	2.0310	0	37.6380	8	30.096	0	1876.898	0	51.4	4	15.9	4	-1E+10	1	-1E+10	1	-1E+10	1	-1E+10	1	-1E+10	1	-1E+10	1
4901784	204	C	02/03/2021	10:44	-134.502	43.507	0	1905.60	0	2.0280	0	37.6370	8	30.096	0	1881.813	0	51.8	4	16.0	4	-1E+10	1	-1E+10	1	-1E+10	1	-1E+10	1	-1E+10	1	-1E+10	1
4901784	204	C	02/03/2021	10:44	-134.502	43.507	0	1910.60	0	2.0220	0	37.6420	8	30.100	0	1886.729	0	52.0	4	16.1	4	-1E+10	1	-1E+10	1	-1E+10	1	-1E+10	1	-1E+10	1	-1E+10	1
4901784	204	C	02/03/2021	10:44	-134.502	43.507	0	1915.60	0	2.0160	0	37.6410	8	30.100	0	1891.644	0	52.4	4	16.2	4	-1E+10	1	-1E+10	1	-1E+10	1	-1E+10	1	-1E+10	1	-1E+10	1
4901784	204	C	02/03/2021	10:44	-134.502	43.507	0	1920.60	0	2.0130	0	37.6420	8	30.101	0	1896.559	0	52.7	4	16.3	4	-1E+10	1	-1E+10	1	-1E+10	1	-1E+10	1	-1E+10	1	-1E+10	1
4901784	204	C	02/03/2021	10:44	-134.502	43.507	0	1925.60	0	2.0070	0	37.6420	8	30.102	0	1901.475	0	53.1	4	16.4	4	-1E+10	1	-1E+10	1	-1E+10	1	-1E+10	1	-1E+10	1	-1E+10	1
4901784	204	C	02/03/2021	10:44	-134.502	43.507	0	1930.60	0	1.9990	0	37.6440	8	30.104	0	1906.390	0	53.5	4	16.5	4	-1E+10	1	-1E+10	1	-1E+10	1	-1E+10	1	-1E+10	1	-1E+10	1
4901784	204	C	02/03/2021	10:44	-134.502	43.507	0	1935.70	0	1.9950	0	37.6490	8	30.108	0	1911.403	0	53.7	4	16.6	4	-1E+10	1	-1E+10	1	-1E+10	1	-1E+10	1	-1E+10	1	-1E+10	1
4901784	204	C	02/03/2021	10:44	-134.502	43.507	0	1940.00	0	1.9930	0	37.6550	8	30.113	0	1915.629	0	54.0	4	16.7	4	-1E+10	1	-1E+10	1	-1E+10	1	-1E+10	1	-1E+10	1	-1E+10	1
4901784	204	C	02/03/2021	10:44	-134.502	43.507	0	1944.20	0	1.9870	0	37.6570	8	30.115	0	1919.758	0	54.4	4	16.8	4	-1E+10	1	-1E+10	1	-1E+10	1	-1E+10	1	-1E+10	1	-1E+10	1
4901784	204	C	02/03/2021	10:44	-134.502	43.507	0	1949.30	0	1.9810	0	37.6570	8	30.116	0	1924.771	0	54.8	4	16.9	4	-1E+10	1	-1E+10	1	-1E+10	1	-1E+10	1	-1E+10	1	-1E+10	1
4901784	204	C	02/03/2021	10:44	-134.502	43.507	0	1954.50	0	1.9730	0	37.6560	8	30.116	0	1929.882	0	55.3	4	17.1	4	-1E+10	1	-1E+10	1	-1E+10	1	-1E+10	1	-1E+10	1	-1E+10	1
4901784	204	C	02/03/2021	10:44	-134.502	43.507	0	1959.70	0	1.9680	0	37.6540	8	30.115	0	1934.992	0	55.6	4	17.2	4	-1E+10	1	-1E+10	1	-1E+10	1	-1E+10	1	-1E+10	1	-1E+10	1
4901784	204	C	02/03/2021	10:44	-134.502	43.507	0	1964.90	0	1.9640	0	37.6540	8	30.115	0	1940.103	0	55.9	4	17.2	4	-1E+10	1	-1E+10	1	-1E+10	1	-1E+10	1	-1E+10	1	-1E+10	1
4901784	204	C	02/03/2021	10:44	-134.502	43.507	0	1970.20	0	1.9600	0	37.6570	8	30.118	0	1945.312	0	56.2	4	17.3	4	-1E+10	1	-1E+10	1	-1E+10	1	-1E+10	1	-1E+10	1	-1E+10	1
4901784	204	C	02/03/2021	10:44	-134.502	43.507	0	1975.50	0	1.9570	0	37.6560	8	30.117	0	1950.521	0	56.4	4	17.4	4	-1E+10	1	-1E+10	1	-1E+10	1	-1E+10	1	-1E+10	1	-1E+10	1
4901784	204	C	02/03/2021	10:44	-134.502	43.507	0	1979.80	0	1.9540	0	37.6570	8	30.119	0	1954.747	0	56.6	4	17.5	4	-1E+10	1	-1E+10	1	-1E+10	1	-1E+10	1	-1E+10	1	-1E+10	1
4901784	204	C	02/03/2021	10:44	-134.502	43.507	0	1984.10	0	1.9510	0	37.6570	8	30.119	0	1958.973	0	56.8	4	17.5	4	-1E+10	1	-1E+10	1	-1E+10	1	-1E+10	1	-1E+10	1	-1E+10	1
4901784	204	C	02/03/2021	10:44	-134.502	43.507	0	1990.00	0	1.9490	0	37.6550	8	30.117	0	1964.771	0	57.0	4	17.6	4	-1E+10	1	-1E+10	1	-1E+10	1	-1E+10	1	-1E+10	1	-1E+10	1
4901784	204	C	02/03/2021	10:44	-134.502	43.507	0	1994.70	0	1.9460	0	37.6560	8	30.119	0	1969.389	0	57.1	4	17.6	4	-1E+10	1	-1E+10	1	-1E+10	1	-1E+10	1	-1E+10	1	-1E+10	1
4901784	204	C	02/03/2021	10:44	-134.502	43.507	0	2000.20	0	1.9440	0	37.6560	8	30.119	0	1974.794	0	57.3	4	17.7	4	-1E+10	1	-1E+10	1	-1E+10	1	-1E+10	1	-1E+10	1	-1E+10	1
4901784	204	C	02/03/2021	10:44	-134.502	43.507	0	2004.60	0	1.9410	0	37.6580	8	30.121	0	1979.118	0	56.0	4	17.3	4	-1E+10	1	-1E+10	1	-1E+10	1	-1E+10	1	-1E+10	1	-1E+10	1
4901784	204	C	02/03/2021	10:44	-134.502	43.507	0																										
4901784	205	C	02/13/2021	10:50	-134.717	43.436	0	2.40	0	11.0980	0	35.7220	8	27.321	0	2.381	0	254.5	4	95.3	4	-1E+10	1	-1E+10	1	-1E+10	1	-1E+10	1	-1E+10	1	-1E+10	1
4901784	205	C	02/13/2021	10:50	-134.717	43.436	0	3.80	0	11.0990	0	35.7220	8	27.320	0	3.770	0	254.4	4	95.3	4	-1E+10	1	-1E+10	1	-1E+10	1	-1E+10	1	-1E+10	1	-1E+10	1
4901784	205	C	02/13/2021	10:50	-134.717	43.436	0	5.10	0	11.1000	0	35.7220	8	27.320	0	5.059	0	254.5	4	95.4	4	-1E+10	1	-1E+10	1	-1E+10	1	-1E+10	1	-1E+10	1	-1E+10	1
4901784	205	C	02/13/2021	10:50	-134.717	43.436	0	6.60	0	11.1000	0	35.7220	8	27.320	0	6.547	0	254.4	4	95.3	4	-1E+10	1	-1E+10	1	-1E+10	1	-1E+10	1	-1E+10	1	-1E+10	1
4901784	205	C	02/13/2021	10:50	-134.717	43.436	0	8.20	0	11.1000	0	35.7200	8	27.319	0	8.134	0	254.5	4	95.4	4	-1E+10	1	-1E+10	1	-1E+10	1	-1E+10	1	-1E+10	1	-1E+10	1
4901784	205	C	02/13/2021	10:50	-134.717	43.436	0	9.60	0	11.1000	0	35.7200	8	27.319	0	9.523	0	254.6	4	95.4	4	-1E+10	1	-1E+10	1	-1E+10	1	-1E+10	1	-1E+10	1	-1E+10	1
4901784	205	C	02/13/2021	10:50	-134.717	43.436	0	11.10	0	11.0990	0	35.7190	8	27.318	0	11.011	0	254.3	4	95.3	4	-1E+10	1	-1E+10	1	-1E+10	1	-1E+10	1	-1E+10	1	-1E+10	1
4901784	205	C	02/13/2021	10:50	-134.717	43.436	0	12.70	0	11.1000	0	35.7170	8	27.317	0	12.598	0	254.5	4	95.4	4	-1E+10	1	-1E+10	1	-1E+10	1	-1E+10	1	-1E+10	1	-1E+10	1
4901784	205	C	02/13/2021	10:50	-134.717	43.436	0	14.40	0	11.1000	0	35.7150	8	27.315	0	14.285	0	254.5	4	95.3	4	-1E+10	1	-1E+10	1	-1E+10	1	-1E+10	1	-1E+10	1	-1E+10	1
4901784	205	C	02/13/2021	10:50	-134.717	43.436	0	16.10	0	11.1010	0	35.7110	8	27.312	0	15.971	0	254.4	4	95.3	4	-1E+10	1	-1E+10	1	-1E+10	1	-1E+10	1	-1E+10	1	-1E+10	1
4901784	205	C	02/13/2021	10:50	-134.717	43.436	0	17.80	0	11.0990	0	35.7070	8	27.309	0	17.657	0	254.5	4	95.3	4	-1E+10	1	-1E+10	1	-1E+10	1	-1E+10	1	-1E+10	1	-1E+10	1
4901784	205	C	02/13/2021	10:50	-134.717	43.436	0	19.30	0	11.1020	0	35.6980	8	27.302	0	19.145	0	254.5	4	95.3	4	-1E+10	1	-1E+10	1	-1E+10	1	-1E+10	1	-1E+10	1	-1E+10	1
4901784	205	C	02/13/2021	10:50	-134.717	43.436	0	20.90	0	11.1010	0	35.6840	8	27.291	0	20.732	0	254.4	4	95.3	4	-1E+10	1	-1E+10	1	-1E+10	1	-1E+10	1	-1E+10	1	-1E+10	1
4901784	205	C	02/13/2021	10:50	-134.717	43.436	0	22.30	0	11.1000	0	35.6610	8	27.273	0	22.121	0	254.4	4	95.3	4	-1E+10	1	-1E+10	1	-1E+10	1	-1E+10	1	-1E+10	1	-1E+10	1
4901784	205	C	02/13/2021	10:50	-134.717	43.436	0	23.90	0	11.1000	0	35.6430	8	27.259	0	23.708	0	254.5	4	95.3	4	-1E+10	1	-1E+10	1	-1E+10	1	-1E+10	1	-1E+10	1	-1E+10	1
4901784	205	C	02/13/2021	10:50	-134.717	43.436	0	25.50	0	11.0990	8	35.6230	8	27.244	0	25.295	0	254.5	4	95.3	4	-1E+10	1	-1E+10	1	-1E+10	1	-1E+10	1	-1E+10	1	-1E+10	1
4901784	205	C	02/13/2021	10:50	-134.717	43.436	0	27.00	0	11.0980	8	35.5710	8	27.204	0	26.783	0	254.6	4	95.3	4	-1E+10	1	-1E+10	1	-1E+10	1	-1E+10	1	-1E+10	1	-1E+10	1
4901784	205	C	02/13/2021	10:50	-134.717	43.436	0	28.70	0	11.0970	0	35.5480	8	27.186	0	28.469	0	254.5	4	95.2	4	-1E+10	1	-1E+10	1	-1E+10	1	-1E+10	1	-1E+10	1	-1E+10	1
4901784	205	C	02/13/2021	10:50	-134.717	43.436	0	30.40	0	11.0960	0	35.5250	8	27.168	0	30.155	0	254.5	4	95.2	4	-1E+10	1	-1E+10	1	-1E+10	1	-1E+10	1	-1E+10	1	-1E+10	1
4901784	205	C	02/13/2021	10:50	-134.717	43.436	0	32.00	0	11.0980	0	35.5310	8	27.173	0	31.742	0	254.5	4	95.2	4	-1E+10	1	-1E+10	1	-1E+10	1	-1E+10	1	-1E+10	1	-1E+10	1
4901784	205	C	02/13/2021	10:50	-134.717	43.436	0	33.60	0	11.0980	0	35.5210	8	27.165	0	33.329	0	254.6	4	95.2	4	-1E+10	1	-1E+10	1	-1E+10	1	-1E+10	1	-1E+10	1	-1E+10	1
4901784	205	C	02/13/2021	10:50	-134.717	43.436	0	35.20	0	11.0980	0	35.5170	8	27.162	0	34.916	0	254.6	4	95.3	4	-1E+10	1	-1E+10	1	-1E+10	1	-1E+10	1	-1E+10	1	-1E+10	1
4901784	205	C	02/13/2021	10:50	-134.717	43.436	0	36.90	0	11.0970	0	35.5170	8	27.162	0	36.602	0	254.5	4	95.2	4	-1E+10	1	-1E+10	1	-1E+10	1	-1E+10	1	-1E+10	1	-1E+10	1
4901784	205	C	02/13/2021	10:50	-134.717	43.436	0	38.50	0	11.0990	0	35.4960	8	27.145	0	38.189	0	254.4	4	95.2	4	-1E+10	1	-1E+10	1	-1E+10	1	-1E+10	1	-1E+10	1	-1E+10	1
4901784	205	C	02/13/2021	10:50	-134.717	43.436	0	40.10	0	11.0980	0	35.4850	8	27.137	0	39.776	0	254.6	4	95.2	4	-1E+10	1	-1E+10	1	-1E+10	1	-1E+10	1	-1E+10	1	-1E+10	1
4901784	205	C	02/13/2021	10:50	-134.717	43.436	0	41.80	0	11.0960	0	35.4750	8	27.129	0	41.462	0	254.6	4	95.2	4	-1E+10	1	-1E+10	1	-1E+10	1	-1E+10	1	-1E+10	1	-1E+10	1
4901784	205	C	02/13/2021	10:50	-134.717	43.436	0	43.50	0	11.0950	0	35.4630	8	27.120	0	43.149	0	254.4	4	95.1	4	-1E+10	1	-1E+10	1	-1E+10	1	-1E+10	1	-1E+10	1	-1E+10	1
4901784	205	C	02/13/2021	10:50	-134.717	43.436	0	45.20	0	11.0940	0	35.4550	8	27.114	0	44.835	0	254.4	4	95.1	4	-1E+10	1	-1E+10	1	-1E+10	1	-1E+10	1	-1E+10	1	-1E+10	1
4901784	205	C	02/13/2021	10:50	-134.717	43.436	0	46.90	0	11.0940	0	35.4590	8	27.118	0	46.521	0	254.5	4	95.2	4	-1E+10	1	-1E+10	1	-1E+10	1	-1E+10	1	-1E+10	1	-1E+10	1
4901784	205	C	02/13/2021	10:50	-134.717	43.436	0	48.60	0	11.0920	0	35.4510	8	27.112	0	48.207	0	254.3	4	95.1	4	-1E+10	1	-1E+10	1	-1E+10	1	-1E+10	1	-1E+10	1	-1E+10	1
4901784	205	C	02/13/2021	10:50	-134.717	43.436	0	50.30	0	11.0950	0	35.4510	8	27.111	0	49.893	0	254.1	4	95.0	4	-1E+10	1	-1E+10	1	-1E+10	1	-1E+10	1	-1E+10	1	-1E+10	1
4901784	205	C	02/13/2021	10:50	-134.717	43.436	0	52.10	0	11.0930	0	35.4340	8	27.098	0	51.678	0	254.3	4	95.1	4	-1E+10	1	-1E+10	1	-1E+10	1	-1E+10	1	-1E+10	1	-1E+10	1
4901784	205	C	02/13/2021	10:50	-134.717	43.436	0	53.80	0	11.0920	0	35.4310	8	27.096	0	53.364	0	254.1	4	95.0	4	-1E+10	1	-1E+10	1	-1E+10	1	-1E+10	1	-1E+10	1	-1E+10	1
4901784	205	C	02/13/2021	10:50	-134.717	43.436	0	55.60	0	11.0880	0	35.4230	8	27.091	0	55.149	0	253.9	4	94.9	4	-1E+10	1	-1E+10	1	-1E+10	1	-1E+10	1	-1E+10	1	-1E+10	1
4901784	205	C	02/13/2021	10:50	-134.717	43.436	0	57.20	0	11.0740	0	35.4260	8	27.096	0	56.736	0	253.8	4	94.8	4	-1E+10	1	-1E+10	1	-1E+10	1	-1E+10	1	-1E+10	1	-1E+10	1
4901784	205	C	02/13/2021	10:50	-134.717	43.436	0	59.00	0	11.0730	0	35.4230	8	27.094	0	58.521	0	253.6	4	94.8	4	-1E+10	1	-1E+10	1	-1E+10	1	-1E+10	1	-1E+10	1	-1E+10	1
4901784	205	C	02/13/2021	10:50	-134.717	43.436	0	60.70	0	11.0630	0	35.4200	8	27.093	0	60.207	0	253.6	4	94.7	4	-1E+10	1	-1E+10	1	-1E+10	1	-1E+10	1	-1E+10	1	-1E+10	1
4901784	205	C	02/13/2021	10:50	-134.717	43.436	0	62.60	0	11.0660	0	35.4130	8	27.087	0	62.091	0	253.3	4	94.6	4	-1E+10	1	-1E+10	1	-1E+10	1	-1E+10	1	-1E+10	1	-1E+10	1
4901784	205	C	02/13/2021	10:50	-134.717	43.436	0	64.40	0	11.0580	0	35.3990	8	27.078	0	63.876	0	253.2	4	94.6	4	-1E+10	1	-1E+10	1	-1E+10	1	-1E+10	1	-1E+10	1	-1E+10	1
4901784	205	C	02/13/2021	10:50	-134.717	43.436	0	66.10	0	11.0210	0	35.3960	8	27.082	0	65.562	0	252.9	4	94.4	4	-1E+10	1	-1E+10	1	-1E+10	1	-1E+10	1	-1E+10	1	-1E+10	1
4901784	205	C	02/13/2021	10:50	-134.717	43.436	0	68.00	0	11.0030	0	35.3830	8	27.075	0	67.447	0	252.8	4	94.3	4	-1E+10	1	-1E+10	1	-1E+10	1	-1E+10	1	-1E+10	1	-1E+10	1
4901784	205	C	02/13/2021	10:50	-134.717	43.436	0	69.90	0	10.9340	0	35.4050	8	27.105	0	69.331	0	252.8	4	94.2	4	-1E+10	1	-1E+10	1	-1E+10	1	-1E+10	1	-1E+10	1	-1E+10	1
4901784	205	C	02/13/2021	10:50	-134.717	43.436	0	71.60	0	10.9140	0	35.4150	8	27.117	0	71.017	0	253.1	4	94.2	4	-1E+10	1	-1E+10	1	-1E+10	1	-1E+10	1	-1E+10	1	-1E+10	1
4901784	205	C	02/13/2021	10:50	-134.717	43.436	0	73.30	0	10.9020	0	35.4060	8	27.112	0	72.703	0	253.0	4	94.2	4	-1E+10	1	-1E+10	1	-1E+10	1	-1E+10	1	-1E+10	1	-1E+10	1
4901784	205	C	02/13/2021	10:50	-134.717	43.436	0	75.10	0	10.9010	0	35.4080	8	27.114	0	74.488	0	252.9	4	94.2	4	-1E+10	1	-1E+10	1	-1E+10	1	-1E+10	1	-1E+10	1	-1E+10	1
4901784	205	C	02/13/2021	10:50	-134.717	43.436	0	76.90	0	10.8930	0	35.4070	8	27.114	0	76.273	0	252.8	4	94.1	4	-1E+10	1	-1E+10	1	-1E+10	1	-1E+10	1	-1E+10	1	-1E+10	1
4901784	205	C	02/13/2021	10:50	-134.717	43.436	0	78.60	0	10.8760	0	35.4140	8	27.123	0	77.958	0	252.8	4	94.1	4	-1E+10	1	-1E+10	1	-1E+10	1	-1E+10	1	-1E+10	1	-1E+10	1
4901784	205	C	02/13/2021	10:50	-134.717	43.436	0	80.40	0	10.8500	0	35.4110	8	27.125	0	79.743	0	252.8	4	94.0	4	-1E+10	1	-1E+10	1	-1E+10	1	-1E+10	1	-1E+10	1	-1E+10	1
4901784	205	C	02/13/2021	10:50	-134.717	43.436	0	82.10	0	10.8470	0	35.4140	8	27.128	0	81.429	0	252.7	4	94.0	4	-1E+10	1	-1E+10	1	-1E+10	1	-1E+10	1	-1E+10	1	-1E+10	1
4901784	205	C	02/13/2021	10:50	-134.717	43.436	0	83.80	0	10.8470	0	35.4160	8	27.130	0	83.115	0	252.6	4	93.9	4	-1E+10	1	-1E+10	1	-1E+10	1	-1E+10	1	-1E+10	1	-1E+10	1
4901784	205	C	02/13/2021	10:50	-134.717	43.436	0	85.60	0	10.8440	0	35.4060	8	27.123	0	84.900	0	252.6	4	93.9	4	-1E+10	1	-1E+10	1	-1E+10	1	-1E+10	1	-1E+10	1	-1E+10	1
4901784	205	C	02/13/2021	10:50	-134.717	43.436	0	87.30	0	10.8410	0	35.4110	8	27.127	0	86.586	0	252.5	4	93.9	4	-1E+10	1	-1E+10	1	-1E+10	1	-1E+10	1	-1E+10	1	-1E+10	1
4901784	205	C	02/13/2021	10:50	-134.717	43.436	0	89.10	0	10.8290	0	35.4160	8	27.133	0	88.370	0	252.4	4	93.8	4	-1E+10	1	-1E+10	1	-1E+10	1	-1E+10	1	-1E+10	1	-1E+10	1
4901784	205	C	02/13/2021	10:50	-134.717	43.436	0	90.90	0	10.8170	0	35.4120	8	27.132	0	90.155	0	252.3	4	93.8	4	-1E+10	1	-1E+10	1	-1E+10	1	-1E+10	1	-1E+10	1	-1E+10	1
4901784	205	C	02/13/2021	10:50	-134.717	43.436	0	92.60	0	10.8020	0	35.4080	8	27.132	0	91.841	0	252.2	4	93.7	4	-1E+10	1	-1E+10	1	-1E+10	1	-1E+10	1	-1E+10	1	-1E+10	1
4901784	205	C	02/13/2021	10:50	-134.717	43.436	0	94.40	0	10.8000	0	35.4150	8	27.138	0	93.626	0	252.1	4	93.6	4	-1E+10	1	-1E+10	1	-1E+10	1	-1E+10	1	-1E+10	1	-1E+10	1
4901784	205	C	02/13/2021	10:50	-134.717	43.436	0	96.20	0	10.7940	0	35.4170	8	27.140	0	95.411	0	251.9	4	93.6	4	-1E+10	1	-1E+10	1	-1E+10	1	-1E+10	1	-1E+10	1	-1E+10	1
4901784	205	C	02/13/2021	10:50	-134.717	43.436	0	98.00	0	10.7910	0	35.4070	8	27.133	0	97.195	0	251.7	4	93.5	4	-1E+10	1	-1E+10	1	-1E+10	1	-1E+10	1	-1E+10	1	-1E+10	1
4901784	205	C	02/13/2021	10:50	-134.717	43.436	0	99.80	0	10.7850	0	35.4190	8	27.144	0	98.980	0	251.6	4	93.4	4	-1E+10	1	-1E+10	1	-1E+10	1	-1E+10	1	-1E+10	1	-1E+10	1
4901784	205	C	02/13/2021	10:50	-134.717	43.436	0	102.30	0	10.7640	0	35.4060	8	27.137	0	101.459	0	251.3	4	93.3	4	-1E+10	1	-1E+10	1	-1E+10	1	-1E+10	1	-1E+10	1	-1E+10	1
4901784	205	C	02/13/2021	10:50	-134.717	43.436	0	104.90	0	10.7430	0	35.3880	8	27.127	0	104.037	0	251.1	4	93.2	4	-1E+10	1	-1E+10	1	-1E+10	1	-1E+10	1	-1E+10	1	-1E+10	1
4901784	205	C	02/13/2021	10:50	-134.717	43.436	0	107.40	0	10.7390	0	35.3870	8	27.127	0	106.516	0	250.6	4	92.9	4	-1E+10	1	-1E+10	1	-1E+10	1	-1E+10	1	-1E+10	1	-1E+10	1
4901784	205	C	02/13/2021	10:50	-134.717	43.436	0	109.90	0	10.7360	0	35.3850	8	27.126	0	108.995	0	250.2	4	92.8	4	-1E+10	1	-1E+10	1	-1E+10	1	-1E+10	1	-1E+10	1	-1E+10	1
4901784	205	C	02/13/2021	10:50	-134.717	43.436	0	112.50	0	10.7280	0	35.3780	8	27.122	0	111.572	0	248.7	4	92.2	4	-1E+10	1	-1E+10	1	-1E+10	1	-1E+10	1	-1E+10	1	-1E+10	1
4901784	205	C	02/13/2021	10:50	-134.717	43.436	0	115.10	0	10.7220	0	35.3750	8	27.121	0	114.150	0	247.1	4	91.6	4	-1E+10	1	-1E+10	1	-1E+10	1	-1E+10	1	-1E+10	1	-1E+10	1
4901784	205	C	02/13/2021	10:50	-134.717	43.436	0	117.60	0	10.7110	0	35.3410	8	27.096	0	116.629	0	244.3	4	90.6	4	-1E+10	1	-1E+10	1	-1E+10	1	-1E+10	1	-1E+10	1	-1E+10	1
4901784	205	C	02/13/2021	10:50	-134.717	43.436	0	120.00	0	10.6610	0	35.3270	8	27.095	0	119.008	0	240.2	4	88.9	4	-1E+10	1	-1E+10	1	-1E+10	1	-1E+10	1	-1E+10	1	-1E+10	1
4901784	205	C	02/13/2021	10:50	-134.717	43.436	0	122.50	0	10.4280	0	35.3440	8	27.149	0	121.487	0	237.0	4	87.3	4	-1E+10	1	-1E+10	1	-1E+10	1	-1E+10	1	-1E+10	1	-1E+10	1
4901784	205	C	02/13/2021	10:50	-134.717	43.436	0	125.50	0	10.0740	0	35.4270	8	27.276	0	124.461	0	233.3	4	85.4	4	-1E+10	1	-1E+10	1	-1E+10	1	-1E+10	1	-1E+10	1	-1E+10	1
4901784	205	C	02/13/2021	10:50	-134.717	43.436	0	127.90	0	9.8360	0	35.4550	8	27.338	0	126.841	0	230.6	4	83.9	4	-1E+10	1	-1E+10	1	-1E+10	1	-1E+10	1	-1E+10	1	-1E+10	1
4901784	205	C	02/13/2021	10:50	-134.717	43.436	0	130.00	0	9.6420	0	35.4800	8	27.391	0	128.923	0	228.3	4	82.8	4	-1E+10	1	-1E+10	1	-1E+10	1	-1E+10	1	-1E+10	1	-1E+10	1
4901784	205	C	02/13/2021	10:50	-134.717	43.436	0	132.00	0	9.5020	0	35.5490	8	27.468	0	130.906	0	224.7	4	81.3	4	-1E+10	1	-1E+10	1	-1E+10	1	-1E+10	1	-1E+10	1	-1E+10	1
4901784	205	C	02/13/2021	10:50	-134.717	43.436	0	134.80	0	9.3630	0	35.6470	8	27.568	0	133.681	0	221.2	4	79.8	4	-1E+10	1	-1E+10	1	-1E+10	1	-1E+10	1	-1E+10	1	-1E+10	1
4901784	205	C	02/13/2021	10:50	-134.717	43.436	0	137.70	0	9.2160	0	35.7210	8	27.651	0	136.556	0	217.0	4	78.1	4	-1E+10	1	-1E+10	1	-1E+10	1	-1E+10	1	-1E+10	1	-1E+10	1
4901784	205	C	02/13/2021	10:50	-134.717	43.436	0	140.00	0	9.1270	0	35.7800	8	27.711	0	138.837	0	214.3	4	77.0	4	-1E+10	1	-1E+10	1	-1E+10	1	-1E+10	1	-1E+10	1	-1E+10	1
4901784	205	C	02/13/2021	10:50	-134.717	43.436	0	142.40	0	9.0200	0	35.8720	8	27.801	0	141.216	0	211.8	4	76.0	4	-1E+10	1	-1E+10	1	-1E+10	1	-1E+10	1	-1E+10	1	-1E+10	1
4901784	205	C	02/13/2021	10:50	-134.717	43.436	0	144.80	0	8.9430	0	35.9090	8	27.843	0	143.595	0	209.1	4	74.9	4	-1E+10	1	-1E+10	1	-1E+10	1	-1E+10	1	-1E+10	1	-1E+10	1
4901784	205	C	02/13/2021	10:50	-134.717	43.436	0	147.20	0	8.8630	0	35.9560	8	27.892	0	145.974	0	206.7	4	73.9	4	-1E+10	1	-1E+10	1	-1E+10	1	-1E+10	1	-1E+10	1	-1E+10	1
4901784	205	C	02/13/2021	10:50	-134.717	43.436	0	149.80	0	8.7470	0	36.0290	8	27.968	0	148.552	0	204.3	4	72.9	4	-1E+10	1	-1E+10	1	-1E+10	1	-1E+10	1	-1E+10	1	-1E+10	1
4901784	205	C	02/13/2021	10:50	-134.717	43.436	0	151.50	0	8.6150	0	36.0860	8	28.034	0	150.237	0	204.1	4	72.7	4	-1E+10	1	-1E+10	1	-1E+10	1	-1E+10	1	-1E+10	1	-1E+10	1
4901784	205	C	02/13/2021	10:50	-134.717	43.436	0	154.70	0	8.4710	0	36.1330	8	28.094	0	153.409	0	203.8	4	72.4	4	-1E+10	1	-1E+10	1	-1E+10	1	-1E+10	1	-1E+10	1	-1E+10	1
4901784	205	C	02/13/2021	10:50	-134.717	43.436	0	157.40	0	8.4450	0	36.1680	8	28.125	0	156.085	0	204.1	4	72.5	4	-1E+10	1	-1E+10	1	-1E+10	1	-1E+10	1	-1E+10	1	-1E+10	1
4901784	205	C	02/13/2021	10:50	-134.717	43.436	0	159.70	0	8.4660	0	36.1980	8	28.146	0	158.365	0	203.5	4	72.3	4	-1E+10	1	-1E+10	1	-1E+10	1	-1E+10	1	-1E+10	1	-1E+10	1
4901784	205	C	02/13/2021	10:50	-134.717	43.436	0	162.90	0	8.4090	0	36.2270	8	28.178	0	161.537	0	202.1	4	71.7	4	-1E+10	1	-1E+10	1	-1E+10	1	-1E+10	1	-1E+10	1	-1E+10	1
4901784	205	C	02/13/2021	10:50	-134.717	43.436	0	165.40	0	8.3570	0	36.2740	8	28.223	0	164.015	0	200.5	4	71.1	4	-1E+10	1	-1E+10	1	-1E+10	1	-1E+10	1	-1E+10	1	-1E+10	1
4901784	205	C	02/13/2021	10:50	-134.717	43.436	0	167.10	0	8.2520	0	36.3530	8	28.301	0	165.700	0	199.9	4	70.8	4	-1E+10	1	-1E+10	1	-1E+10	1	-1E+10	1	-1E+10	1	-1E+10	1
4901784	205	C	02/13/2021	10:50	-134.717	43.436	0	169.70	0	8.1940	0	36.4400	8	28.379	0	168.278	0	199.0	4	70.4	4	-1E+10	1	-1E+10	1	-1E+10	1	-1E+10	1	-1E+10	1	-1E+10	1
4901784	205	C	02/13/2021	10:50	-134.717	43.436	0	172.20	0	8.1840	0	36.4540	8	28.391	0	170.756	0	197.9	4	70.0	4	-1E+10	1	-1E+10	1	-1E+10	1	-1E+10	1	-1E+10	1	-1E+10	1
4901784	205	C	02/13/2021	10:50	-134.717	43.436	0	174.80	0	8.1500	0	36.5150	8	28.444	0	173.333	0	196.6	4	69.5	4	-1E+10	1	-1E+10	1	-1E+10	1	-1E+10	1	-1E+10	1	-1E+10	1
4901784	205	C	02/13/2021	10:50	-134.717	43.436	0	177.40	0	8.1570	0	36.5630	8	28.481	0	175.910	0	195.3	4	69.1	4	-1E+10	1	-1E+10	1	-1E+10	1	-1E+10	1	-1E+10	1	-1E+10	1
4901784	205	C	02/13/2021	10:50	-134.717	43.436	0	180.00	0	8.0780	0	36.5910	8	28.515	0	178.487	0	194.8	4	68.8	4	-1E+10	1	-1E+10	1	-1E+10	1	-1E+10	1	-1E+10	1	-1E+10	1
4901784	205	C	02/13/2021	10:50	-134.717	43.436	0	182.70	0	8.1300	0	36.6080	8	28.521	0	181.163	0	193.7	4	68.5	4	-1E+10	1	-1E+10	1	-1E+10	1	-1E+10	1	-1E+10	1	-1E+10	1
4901784	205	C	02/13/2021	10:50	-134.717	43.436	0	184.50	0	8.1330	0	36.6180	8	28.528	0	182.947	0	192.6	4	68.1	4	-1E+10	1	-1E+10	1	-1E+10	1	-1E+10	1	-1E+10	1	-1E+10	1
4901784	205	C	02/13/2021	10:50	-134.717	43.436	0	187.20	0	8.1110	0	36.6150	8	28.529	0	185.623	0	190.5	4	67.3	4	-1E+10	1	-1E+10	1	-1E+10	1	-1E+10	1	-1E+10	1	-1E+10	1
4901784	205	C	02/13/2021	10:50	-134.717	43.436	0	189.90	0	8.0700	0	36.6140	8	28.535	0	188.299	0	187.9	4	66.4	4	-1E+10	1	-1E+10	1	-1E+10	1	-1E+10	1	-1E+10	1	-1E+10	1
4901784	205	C	02/13/2021	10:50	-134.717	43.436	0	192.60	0	7.9980	0	36.6070	8	28.540	0	190.975	0	184.5	4	65.1	4	-1E+10	1	-1E+10	1	-1E+10	1	-1E+10	1	-1E+10	1	-1E+10	1
4901784	205	C	02/13/2021	10:50	-134.717	43.436	0	195.40	0	7.8930	0	36.6140	8	28.562	0	193.750	0	181.5	4	63.9	4	-1E+10	1	-1E+10	1	-1E+10	1	-1E+10	1	-1E+10	1	-1E+10	1
4901784	205	C	02/13/2021	10:50	-134.717	43.436	0	197.20	0	7.7940	0	36.6210	8	28.583	0	195.534	0	180.2	4	63.3	4	-1E+10	1	-1E+10	1	-1E+10	1	-1E+10	1	-1E+10	1	-1E+10	1
4901784	205	C	02/13/2021	10:50	-134.717	43.436	0	200.00	0	7.7880	0	36.6430	8	28.601	0	198.309	0	180.1	4	63.2	4	-1E+10	1	-1E+10	1	-1E+10	1	-1E+10	1	-1E+10	1	-1E+10	1
4901784	205	C	02/13/2021	10:50	-134.717	43.436	0	202.70	0	7.7410	0	36.6660	8	28.626	0	200.985	0	180.1	4	63.2	4	-1E+10	1	-1E+10	1	-1E+10	1	-1E+10	1	-1E+10	1	-1E+10	1
4901784	205	C	02/13/2021	10:50	-134.717	43.436	0	204.50	0	7.7310	0	36.6500	8	28.615	0	202.769	0	179.2	4	62.8	4	-1E+10	1	-1E+10	1	-1E+10	1	-1E+10	1	-1E+10	1	-1E+10	1
4901784	205	C	02/13/2021	10:50	-134.717	43.436	0	206.90	0	7.7120	0	36.6810	8	28.642	0	205.147	0	177.7	4	62.3	4	-1E+10	1	-1E+10	1	-1E+10	1	-1E+10	1	-1E+10	1	-1E+10	1
4901784	205	C	02/13/2021	10:50	-134.717	43.436	0	209.60	0	7.6980	0	36.6790	8	28.643	0	207.823	0	176.4	4	61.8	4	-1E+10	1	-1E+10	1	-1E+10	1	-1E+10	1	-1E+10	1	-1E+10	1
4901784	205	C	02/13/2021	10:50	-134.717	43.436	0	212.80	0	7.6140	0	36.6930	8	28.667	0	210.994	0	175.3	4	61.3	4	-1E+10	1	-1E+10	1	-1E+10	1	-1E+10	1	-1E+10	1	-1E+10	1
4901784	205	C	02/13/2021	10:50	-134.717	43.436	0	215.30	0	7.5840	0	36.7030	8	28.679	0	213.472	0	174.0	4	60.8	4	-1E+10	1	-1E+10	1	-1E+10	1	-1E+10	1	-1E+10	1	-1E+10	1
4901784	205	C	02/13/2021	10:50	-134.717	43.436	0	217.70	0	7.5780	0	36.7240	8	28.697	0	215.850	0	172.5	4	60.3	4	-1E+10	1	-1E+10	1	-1E+10	1	-1E+10	1	-1E+10	1	-1E+10	1
4901784	205	C	02/13/2021	10:50	-134.717	43.436	0	220.20	0	7.6020	0	36.7310	8	28.699	0	218.328	0	170.7	4	59.7	4	-1E+10	1	-1E+10	1	-1E+10	1	-1E+10	1	-1E+10	1	-1E+10	1
4901784	205	C	02/13/2021	10:50	-134.717	43.436	0	222.70	0	7.6120	0	36.7600	8	28.720	0	220.805	0	169.5	4	59.3	4	-1E+10	1	-1E+10	1	-1E+10	1	-1E+10	1	-1E+10	1	-1E+10	1
4901784	205	C	02/13/2021	10:50	-134.717	43.436	0	225.20	0	7.6050	0	36.7560	8	28.718	0	223.282	0	169.1	4	59.2	4	-1E+10	1	-1E+10	1	-1E+10	1	-1E+10	1	-1E+10	1	-1E+10	1
4901784	205	C	02/13/2021	10:50	-134.717	43.436	0	227.70	0	7.6000	0	36.7560	8	28.719	0	225.760	0	168.5	4	58.9	4	-1E+10	1	-1E+10	1	-1E+10	1	-1E+10	1	-1E+10	1	-1E+10	1
4901784	205	C	02/13/2021	10:50	-134.717	43.436	0	230.20	0	7.5630	0	36.7550	8	28.723	0	228.237	0	167.4	4	58.5	4	-1E+10	1	-1E+10	1	-1E+10	1	-1E+10	1	-1E+10	1	-1E+10	1
4901784	205	C	02/13/2021	10:50	-134.717	43.436	0	232.80	0	7.5940	0	36.7550	8	28.719	0	230.813	0	165.4	4	57.9	4	-1E+10	1	-1E+10	1	-1E+10	1	-1E+10	1	-1E+10	1	-1E+10	1
4901784	205	C	02/13/2021	10:50	-134.717	43.436	0	235.30	0	7.5730	0	36.7530	8	28.720	0	233.291	0	164.7	4	57.6	4	-1E+10	1	-1E+10	1	-1E+10	1	-1E+10	1	-1E+10	1	-1E+10	1
4901784	205	C	02/13/2021	10:50	-134.717	43.436	0	237.80	0	7.5170	0	36.7540	8	28.730	0	235.768	0	163.7	4	57.2	4	-1E+10	1	-1E+10	1	-1E+10	1	-1E+10	1	-1E+10	1	-1E+10	1
4901784	205	C	02/13/2021	10:50	-134.717	43.436	0	240.30	0	7.5130	0	36.7460	8	28.724	0	238.245	0	162.0	4	56.6	4	-1E+10	1	-1E+10	1	-1E+10	1	-1E+10	1	-1E+10	1	-1E+10	1
4901784	205	C	02/13/2021	10:50	-134.717	43.436	0	242.80	0	7.5130	0	36.7450	8	28.723	0	240.722	0	159.9	4	55.8	4	-1E+10	1	-1E+10	1	-1E+10	1	-1E+10	1	-1E+10	1	-1E+10	1
4901784	205	C	02/13/2021	10:50	-134.717	43.436	0	245.30	0	7.4770	0	36.7770	8	28.754	0	243.199	0	158.7	4	55.4	4	-1E+10	1	-1E+10	1	-1E+10	1	-1E+10	1	-1E+10	1	-1E+10	1
4901784	205	C	02/13/2021	10:50	-134.717	43.436	0	247.80	0	7.4510	0	36.7760	8	28.757	0	245.677	0	157.2	4	54.8	4	-1E+10	1	-1E+10	1	-1E+10	1	-1E+10	1	-1E+10	1	-1E+10	1
4901784	205	C	02/13/2021	10:50	-134.717	43.436	0	250.30	0	7.4400	0	36.7460	8	28.735	0	248.154	0	155.2	4	54.1	4	-1E+10	1	-1E+10	1	-1E+10	1	-1E+10	1	-1E+10	1	-1E+10	1
4901784	205	C	02/13/2021	10:50	-134.717	43.436	0	252.80	0	7.4160	0	36.7490	8	28.741	0	250.631	0	153.4	4	53.4	4	-1E+10	1	-1E+10	1	-1E+10	1	-1E+10	1	-1E+10	1	-1E+10	1
4901784	205	C	02/13/2021	10:50	-134.717	43.436	0	255.30	0	7.3850	0	36.7500	8	28.746	0	253.108	0	152.4	4	53.1	4	-1E+10	1	-1E+10	1	-1E+10	1	-1E+10	1	-1E+10	1	-1E+10	1
4901784	205	C	02/13/2021	10:50	-134.717	43.436	0	257.80	0	7.3550	0	36.7450	8	28.747	0	255.585	0	152.0	4	52.9	4	-1E+10	1	-1E+10	1	-1E+10	1	-1E+10	1	-1E+10	1	-1E+10	1
4901784	205	C	02/13/2021	10:50	-134.717	43.436	0	260.30	0	7.3060	0	36.7420	8	28.752	0	258.062	0	151.7	4	52.7	4	-1E+10	1	-1E+10	1	-1E+10	1	-1E+10	1	-1E+10	1	-1E+10	1
4901784	205	C	02/13/2021	10:50	-134.717	43.436	0	262.80	0	7.2700	0	36.7350	8	28.751	0	260.539	0	150.5	4	52.3	4	-1E+10	1	-1E+10	1	-1E+10	1	-1E+10	1	-1E+10	1	-1E+10	1
4901784	205	C	02/13/2021	10:50	-134.717	43.436	0	265.20	0	7.2080	0	36.7410	8	28.765	0	262.916	0	149.2	4	51.8	4	-1E+10	1	-1E+10	1	-1E+10	1	-1E+10	1	-1E+10	1	-1E+10	1
4901784	205	C	02/13/2021	10:50	-134.717	43.436	0	267.80	0	7.1690	0	36.7340	8	28.765	0	265.492	0	148.1	4	51.3	4	-1E+10	1	-1E+10	1	-1E+10	1	-1E+10	1	-1E+10	1	-1E+10	1
4901784	205	C	02/13/2021	10:50	-134.717	43.436	0	270.20	0	7.1460	0	36.7250	8	28.762	0	267.870	0	147.1	4	50.9	4	-1E+10	1	-1E+10	1	-1E+10	1	-1E+10	1	-1E+10	1	-1E+10	1
4901784	205	C	02/13/2021	10:50	-134.717	43.436	0	272.80	0	7.0910	0	36.7260	8	28.770	0	270.446	0	145.8	4	50.4	4	-1E+10	1	-1E+10	1	-1E+10	1	-1E+10	1	-1E+10	1	-1E+10	1
4901784	205	C	02/13/2021	10:50	-134.717	43.436	0	275.30	0	7.0470	0	36.7240	8	28.775	0	272.923	0	144.6	4	50.0	4	-1E+10	1	-1E+10	1	-1E+10	1	-1E+10	1	-1E+10	1	-1E+10	1
4901784	205	C	02/13/2021	10:50	-134.717	43.436	0	277.90	0	7.0320	0	36.7210	8	28.775	0	275.499	0	143.3	4	49.5	4	-1E+10	1	-1E+10	1	-1E+10	1	-1E+10	1	-1E+10	1	-1E+10	1
4901784	205	C	02/13/2021	10:50	-134.717	43.436	0	280.40	0	6.9910	0	36.7180	8	28.779	0	277.975	0	142.1	4	49.0	4	-1E+10	1	-1E+10	1	-1E+10	1	-1E+10	1	-1E+10	1	-1E+10	1
4901784	205	C	02/13/2021	10:50	-134.717	43.436	0	282.90	0	6.9370	0	36.7180	8	28.786	0	280.452	0	141.0	4	48.6	4	-1E+10	1	-1E+10	1	-1E+10	1	-1E+10	1	-1E+10	1	-1E+10	1
4901784	205	C	02/13/2021	10:50	-134.717	43.436	0	285.50	0	6.8730	0	36.7200	8	28.797	0	283.028	0	139.9	4	48.1	4	-1E+10	1	-1E+10	1	-1E+10	1	-1E+10	1	-1E+10	1	-1E+10	1
4901784	205	C	02/13/2021	10:50	-134.717	43.436	0	287.20	0	6.8620	0	36.7180	8	28.797	0	284.712	0	139.0	4	47.8	4	-1E+10	1	-1E+10	1	-1E+10	1	-1E+10	1	-1E+10	1	-1E+10	1
4901784	205	C	02/13/2021	10:50	-134.717	43.436	0	289.80	0	6.8270	0	36.7170	8	28.801	0	287.288	0	137.3	4	47.2	4	-1E+10	1	-1E+10	1	-1E+10	1	-1E+10	1	-1E+10	1	-1E+10	1
4901784	205	C	02/13/2021	10:50	-134.717	43.436	0	292.50	0	6.7840	0	36.7180	8	28.808	0	289.962	0	135.4	4	46.5	4	-1E+10	1	-1E+10	1	-1E+10	1	-1E+10	1	-1E+10	1	-1E+10	1
4901784	205	C	02/13/2021	10:50	-134.717	43.436	0	295.10	0	6.7320	0	36.7200	8	28.817	0	292.538	0	132.8	4	45.6	4	-1E+10	1	-1E+10	1	-1E+10	1	-1E+10	1	-1E+10	1	-1E+10	1
4901784	205	C	02/13/2021	10:50	-134.717	43.436	0	297.90	0	6.6720	0	36.7220	8	28.827	0	295.312	0	131.0	4	44.9	4	-1E+10	1	-1E+10	1	-1E+10	1	-1E+10	1	-1E+10	1	-1E+10	1
4901784	205	C	02/13/2021	10:50	-134.717	43.436	0	299.70	0	6.6080	0	36.7250	8	28.838	0	297.095	0	130.4	4	44.6	4	-1E+10	1	-1E+10	1	-1E+10	1	-1E+10	1	-1E+10	1	-1E+10	1
4901784	205	C	02/13/2021	10:50	-134.717	43.436	0	302.50	0	6.6030	0	36.7240	8	28.838	0	299.868	0	129.4	4	44.3	4	-1E+10	1	-1E+10	1	-1E+10	1	-1E+10	1	-1E+10	1	-1E+10	1
4901784	205	C	02/13/2021	10:50	-134.717	43.436	0	305.20	0	6.5850	0	36.7240	8	28.841	0	302.543	0	128.7	4	44.0	4	-1E+10	1	-1E+10	1	-1E+10	1	-1E+10	1	-1E+10	1	-1E+10	1
4901784	205	C	02/13/2021	10:50	-134.717	43.436	0	307.00	0	6.5390	0	36.7250	8	28.848	0	304.326	0	128.7	4	43.9	4	-1E+10	1	-1E+10	1	-1E+10	1	-1E+10	1	-1E+10	1	-1E+10	1
4901784	205	C	02/13/2021	10:50	-134.717	43.436	0	309.70	0	6.4790	0	36.7250	8	28.856	0	307.000	0	128.2	4	43.7	4	-1E+10	1	-1E+10	1	-1E+10	1	-1E+10	1	-1E+10	1	-1E+10	1
4901784	205	C	02/13/2021	10:50	-134.717	43.436	0	312.40	0	6.4590	0	36.7240	8	28.858	0	309.675	0	127.2	4	43.4	4	-1E+10	1	-1E+10	1	-1E+10	1	-1E+10	1	-1E+10	1	-1E+10	1
4901784	205	C	02/13/2021	10:50	-134.717	43.436	0	315.10	0	6.4290	0	36.7250	8	28.863	0	312.349	0	126.0	4	42.9	4	-1E+10	1	-1E+10	1	-1E+10	1	-1E+10	1	-1E+10	1	-1E+10	1
4901784	205	C	02/13/2021	10:50	-134.717	43.436	0	317.90	0	6.3900	0	36.7270	8	28.870	0	315.123	0	124.4	4	42.3	4	-1E+10	1	-1E+10	1	-1E+10	1	-1E+10	1	-1E+10	1	-1E+10	1
4901784	205	C	02/13/2021	10:50	-134.717	43.436	0	319.80	0	6.3830	0	36.7280	8	28.872	0	317.005	0	123.4	4	42.0	4	-1E+10	1	-1E+10	1	-1E+10	1	-1E+10	1	-1E+10	1	-1E+10	1
4901784	205	C	02/13/2021	10:50	-134.717	43.436	0	322.70	0	6.3600	0	36.7300	8	28.877	0	319.877	0	121.7	4	41.4	4	-1E+10	1	-1E+10	1	-1E+10	1	-1E+10	1	-1E+10	1	-1E+10	1
4901784	205	C	02/13/2021	10:50	-134.717	43.436	0	325.50	0	6.3410	0	36.7300	8	28.879	0	322.650	0	120.3	4	40.9	4	-1E+10	1	-1E+10	1	-1E+10	1	-1E+10	1	-1E+10	1	-1E+10	1
4901784	205	C	02/13/2021	10:50	-134.717	43.436	0	327.30	0	6.3140	0	36.7300	8	28.883	0	324.433	0	119.5	4	40.6	4	-1E+10	1	-1E+10	1	-1E+10	1	-1E+10	1	-1E+10	1	-1E+10	1
4901784	205	C	02/13/2021	10:50	-134.717	43.436	0	329.20	0	6.2710	0	36.7330	8	28.891	0	326.315	0	118.6	4	40.3	4	-1E+10	1	-1E+10	1	-1E+10	1	-1E+10	1	-1E+10	1	-1E+10	1
4901784	205	C	02/13/2021	10:50	-134.717	43.436	0	332.30	0	6.2420	0	36.7330	8	28.895	0	329.385	0	117.2	4	39.7	4	-1E+10	1	-1E+10	1	-1E+10	1	-1E+10	1	-1E+10	1	-1E+10	1
4901784	205	C	02/13/2021	10:50	-134.717	43.436	0	335.10	0	6.1990	0	36.7360	8	28.903	0	332.159	0	116.1	4	39.3	4	-1E+10	1	-1E+10	1	-1E+10	1	-1E+10	1	-1E+10	1	-1E+10	1
4901784	205	C	02/13/2021	10:50	-134.717	43.436	0	337.50	0	6.1890	0	36.7360	8	28.905	0	334.536	0	115.5	4	39.1	4	-1E+10	1	-1E+10	1	-1E+10	1	-1E+10	1	-1E+10	1	-1E+10	1
4901784	205	C	02/13/2021	10:50	-134.717	43.436	0	340.00	0	6.1610	0	36.7370	8	28.909	0	337.012	0	115.5	4	39.1	4	-1E+10	1	-1E+10	1	-1E+10	1	-1E+10	1	-1E+10	1	-1E+10	1
4901784	205	C	02/13/2021	10:50	-134.717	43.436	0	342.40	0	6.1180	0	36.7360	8	28.914	0	339.388	0	115.0	4	38.9	4	-1E+10	1	-1E+10	1	-1E+10	1	-1E+10	1	-1E+10	1	-1E+10	1
4901784	205	C	02/13/2021	10:50	-134.717	43.436	0	344.90	0	6.1000	0	36.7370	8	28.917	0	341.864	0	113.9	4	38.5	4	-1E+10	1	-1E+10	1	-1E+10	1	-1E+10	1	-1E+10	1	-1E+10	1
4901784	205	C	02/13/2021	10:50	-134.717	43.436	0	347.40	0	6.0860	0	36.7370	8	28.919	0	344.340	0	112.6	4	38.1	4	-1E+10	1	-1E+10	1	-1E+10	1	-1E+10	1	-1E+10	1	-1E+10	1
4901784	205	C	02/13/2021	10:50	-134.717	43.436	0	349.80	0	6.0770	0	36.7350	8	28.919	0	346.717	0	110.8	4	37.5	4	-1E+10	1	-1E+10	1	-1E+10	1	-1E+10	1	-1E+10	1	-1E+10	1
4901784	205	C	02/13/2021	10:50	-134.717	43.436	0	352.40	0	6.0370	0	36.7380	8	28.927	0	349.292	0	109.1	4	36.8	4	-1E+10	1	-1E+10	1	-1E+10	1	-1E+10	1	-1E+10	1	-1E+10	1
4901784	205	C	02/13/2021	10:50	-134.717	43.436	0	354.90	0	5.9820	0	36.7420	8	28.937	0	351.768	0	108.5	4	36.6	4	-1E+10	1	-1E+10	1	-1E+10	1	-1E+10	1	-1E+10	1	-1E+10	1
4901784	205	C	02/13/2021	10:50	-134.717	43.436	0	357.40	0	5.9400	0	36.7380	8	28.939	0	354.244	0	108.1	4	36.4	4	-1E+10	1	-1E+10	1	-1E+10	1	-1E+10	1	-1E+10	1	-1E+10	1
4901784	205	C	02/13/2021	10:50	-134.717	43.436	0	359.80	0	5.9010	0	36.7380	8	28.945	0	356.620	0	106.9	4	36.0	4	-1E+10	1	-1E+10	1	-1E+10	1	-1E+10	1	-1E+10	1	-1E+10	1
4901784	205	C	02/13/2021	10:50	-134.717	43.436	0	362.40	0	5.8790	0	36.7390	8	28.948	0	359.195	0	105.2	4	35.4	4	-1E+10	1	-1E+10	1	-1E+10	1	-1E+10	1	-1E+10	1	-1E+10	1
4901784	205	C	02/13/2021	10:50	-134.717	43.436	0	364.80	0	5.8420	0	36.7410	8	28.955	0	361.572	0	104.1	4	35.0	4	-1E+10	1	-1E+10	1	-1E+10	1	-1E+10	1	-1E+10	1	-1E+10	1
4901784	205	C	02/13/2021	10:50	-134.717	43.436	0	367.40	0	5.8150	0	36.7430	8	28.960	0	364.147	0	103.2	4	34.7	4	-1E+10	1	-1E+10	1	-1E+10	1	-1E+10	1	-1E+10	1	-1E+10	1
4901784	205	C	02/13/2021	10:50	-134.717	43.436	0	370.00	0	5.7780	0	36.7450	8	28.966	0	366.721	0	102.5	4	34.4	4	-1E+10	1	-1E+10	1	-1E+10	1	-1E+10	1	-1E+10	1	-1E+10	1
4901784	205	C	02/13/2021	10:50	-134.717	43.436	0	372.60	0	5.7590	0	36.7450	8	28.969	0	369.296	0	101.6	4	34.1	4	-1E+10	1	-1E+10	1	-1E+10	1	-1E+10	1	-1E+10	1	-1E+10	1
4901784	205	C	02/13/2021	10:50	-134.717	43.436	0	375.20	0	5.7340	0	36.7460	8	28.973	0	371.871	0	100.7	4	33.8	4	-1E+10	1	-1E+10	1	-1E+10	1	-1E+10	1	-1E+10	1	-1E+10	1
4901784	205	C	02/13/2021	10:50	-134.717	43.436	0	377.70	0	5.7210	0	36.7470	8	28.975	0	374.346	0	99.8	4	33.5	4	-1E+10	1	-1E+10	1	-1E+10	1	-1E+10	1	-1E+10	1	-1E+10	1
4901784	205	C	02/13/2021	10:50	-134.717	43.436	0	380.30	0	5.6950	0	36.7480	8	28.979	0	376.921	0	99.0	4	33.2	4	-1E+10	1	-1E+10	1	-1E+10	1	-1E+10	1	-1E+10	1	-1E+10	1
4901784	205	C	02/13/2021	10:50	-134.717	43.436	0	382.10	0	5.6830	0	36.7470	8	28.980	0	378.703	0	98.5	4	33.0	4	-1E+10	1	-1E+10	1	-1E+10	1	-1E+10	1	-1E+10	1	-1E+10	1
4901784	205	C	02/13/2021	10:50	-134.717	43.436	0	384.70	0	5.6510	0	36.7470	8	28.984	0	381.278	0	97.5	4	32.6	4	-1E+10	1	-1E+10	1	-1E+10	1	-1E+10	1	-1E+10	1	-1E+10	1
4901784	205	C	02/13/2021	10:50	-134.717	43.436	0	387.40	0	5.5930	0	36.7490	8	28.993	0	383.951	0	96.5	4	32.2	4	-1E+10	1	-1E+10	1	-1E+10	1	-1E+10	1	-1E+10	1	-1E+10	1
4901784	205	C	02/13/2021	10:50	-134.717	43.436	0	390.10	0	5.5760	0	36.7500	8	28.996	0	386.624	0	95.3	4	31.9	4	-1E+10	1	-1E+10	1	-1E+10	1	-1E+10	1	-1E+10	1	-1E+10	1
4901784	205	C	02/13/2021	10:50	-134.717	43.436	0	392.80	0	5.5520	0	36.7530	8	29.002	0	389.298	0	93.9	4	31.4	4	-1E+10	1	-1E+10	1	-1E+10	1	-1E+10	1	-1E+10	1	-1E+10	1
4901784	205	C	02/13/2021	10:50	-134.717	43.436	0	394.60	0	5.5500	0	36.7530	8	29.002	0	391.080	0	92.7	4	30.9	4	-1E+10	1	-1E+10	1	-1E+10	1	-1E+10	1	-1E+10	1	-1E+10	1
4901784	205	C	02/13/2021	10:50	-134.717	43.436	0	397.30	0	5.5400	0	36.7570	8	29.007	0	393.753	0	90.1	4	30.1	4	-1E+10	1	-1E+10	1	-1E+10	1	-1E+10	1	-1E+10	1	-1E+10	1
4901784	205	C	02/13/2021	10:50	-134.717	43.436	0	400.00	0	5.5430	0	36.7630	8	29.011	0	396.427	0	88.0	4	29.4	4	-1E+10	1	-1E+10	1	-1E+10	1	-1E+10	1	-1E+10	1	-1E+10	1
4901784	205	C	02/13/2021	10:50	-134.717	43.436	0	402.60	0	5.5500	0	36.7650	8	29.012	0	399.001	0	86.4	4	28.8	4	-1E+10	1	-1E+10	1	-1E+10	1	-1E+10	1	-1E+10	1	-1E+10	1
4901784	205	C	02/13/2021	10:50	-134.717	43.436	0	405.30	0	5.5620	0	36.7670	8	29.012	0	401.674	0	85.0	4	28.4	4	-1E+10	1	-1E+10	1	-1E+10	1	-1E+10	1	-1E+10	1	-1E+10	1
4901784	205	C	02/13/2021	10:50	-134.717	43.436	0	407.20	0	5.5860	0	36.7690	8	29.010	0	403.555	0	84.1	4	28.1	4	-1E+10	1	-1E+10	1	-1E+10	1	-1E+10	1	-1E+10	1	-1E+10	1
4901784	205	C	02/13/2021	10:50	-134.717	43.436	0	410.00	0	5.5190	0	36.7680	8	29.018	0	406.328	0	84.4	4	28.2	4	-1E+10	1	-1E+10	1	-1E+10	1	-1E+10	1	-1E+10	1	-1E+10	1
4901784	205	C	02/13/2021	10:50	-134.717	43.436	0	412.70	0	5.4640	0	36.7670	8	29.024	0	409.001	0	84.1	4	28.0	4	-1E+10	1	-1E+10	1	-1E+10	1	-1E+10	1	-1E+10	1	-1E+10	1
4901784	205	C	02/13/2021	10:50	-134.717	43.436	0	414.60	0	5.4260	0	36.7690	8	29.031	0	410.882	0	83.7	4	27.9	4	-1E+10	1	-1E+10	1	-1E+10	1	-1E+10	1	-1E+10	1	-1E+10	1
4901784	205	C	02/13/2021	10:50	-134.717	43.436	0	417.30	0	5.4170	0	36.7680	8	29.031	0	413.555	0	82.9	4	27.6	4	-1E+10	1	-1E+10	1	-1E+10	1	-1E+10	1	-1E+10	1	-1E+10	1
4901784	205	C	02/13/2021	10:50	-134.717	43.436	0	420.00	0	5.3950	0	36.7670	8	29.033	0	416.228	0	81.9	4	27.2	4	-1E+10	1	-1E+10	1	-1E+10	1	-1E+10	1	-1E+10	1	-1E+10	1
4901784	205	C	02/13/2021	10:50	-134.717	43.436	0	422.70	0	5.3580	0	36.7670	8	29.038	0	418.901	0	80.3	4	26.7	4	-1E+10	1	-1E+10	1	-1E+10	1	-1E+10	1	-1E+10	1	-1E+10	1
4901784	205	C	02/13/2021	10:50	-134.717	43.436	0	425.40	0	5.3380	0	36.7720	8	29.044	0	421.574	0	78.6	4	26.1	4	-1E+10	1	-1E+10	1	-1E+10	1	-1E+10	1	-1E+10	1	-1E+10	1
4901784	205	C	02/13/2021	10:50	-134.717	43.436	0	427.20	0	5.2880	0	36.7770	8	29.054	0	423.356	0	78.0	4	25.9	4	-1E+10	1	-1E+10	1	-1E+10	1	-1E+10	1	-1E+10	1	-1E+10	1
4901784	205	C	02/13/2021	10:50	-134.717	43.436	0	429.80	0	5.2560	0	36.7790	8	29.060	0	425.930	0	77.5	4	25.7	4	-1E+10	1	-1E+10	1	-1E+10	1	-1E+10	1	-1E+10	1	-1E+10	1
4901784	205	C	02/13/2021	10:50	-134.717	43.436	0	432.50	0	5.2240	0	36.7810	8	29.065	0	428.603	0	77.0	4	25.5	4	-1E+10	1	-1E+10	1	-1E+10	1	-1E+10	1	-1E+10	1	-1E+10	1
4901784	205	C	02/13/2021	10:50	-134.717	43.436	0	435.20	0	5.2150	0	36.7810	8	29.067	0	431.276	0	76.4	4	25.3	4	-1E+10	1	-1E+10	1	-1E+10	1	-1E+10	1	-1E+10	1	-1E+10	1
4901784	205	C	02/13/2021	10:50	-134.717	43.436	0	437.90	0	5.1860	0	36.7800	8	29.069	0	433.949	0	75.6	4	25.0	4	-1E+10	1	-1E+10	1	-1E+10	1	-1E+10	1	-1E+10	1	-1E+10	1
4901784	205	C	02/13/2021	10:50	-134.717	43.436	0	439.70	0	5.1800	0	36.7820	8	29.072	0	435.731	0	75.3	4	24.9	4	-1E+10	1	-1E+10	1	-1E+10	1	-1E+10	1	-1E+10	1	-1E+10	1
4901784	205	C	02/13/2021	10:50	-134.717	43.436	0	442.30	0	5.1270	0	36.7840	8	29.080	0	438.304	0	74.9	4	24.8	4	-1E+10	1	-1E+10	1	-1E+10	1	-1E+10	1	-1E+10	1	-1E+10	1
4901784	205	C	02/13/2021	10:50	-134.717	43.436	0	444.90	0	5.0990	0	36.7840	8	29.083	0	440.878	0	74.4	4	24.6	4	-1E+10	1	-1E+10	1	-1E+10	1	-1E+10	1	-1E+10	1	-1E+10	1
4901784	205	C	02/13/2021	10:50	-134.717	43.436	0	447.60	0	5.0460	0	36.7840	8	29.090	0	443.551	0	73.8	4	24.4	4	-1E+10	1	-1E+10	1	-1E+10	1	-1E+10	1	-1E+10	1	-1E+10	1
4901784	205	C	02/13/2021	10:50	-134.717	43.436	0	450.20	0	5.0070	0	36.7920	8	29.101	0	446.124	0	72.5	4	23.9	4	-1E+10	1	-1E+10	1	-1E+10	1	-1E+10	1	-1E+10	1	-1E+10	1
4901784	205	C	02/13/2021	10:50	-134.717	43.436	0	452.70	0	5.0040	0	36.7940	8	29.103	0	448.599	0	71.7	4	23.6	4	-1E+10	1	-1E+10	1	-1E+10	1	-1E+10	1	-1E+10	1	-1E+10	1
4901784	205	C	02/13/2021	10:50	-134.717	43.436	0	455.30	0	5.0040	0	36.7940	8	29.103	0	451.173	0	70.8	4	23.3	4	-1E+10	1	-1E+10	1	-1E+10	1	-1E+10	1	-1E+10	1	-1E+10	1
4901784	205	C	02/13/2021	10:50	-134.717	43.436	0	457.10	0	4.9860	0	36.7970	8	29.107	0	452.954	0	70.2	4	23.1	4	-1E+10	1	-1E+10	1	-1E+10	1	-1E+10	1	-1E+10	1	-1E+10	1
4901784	205	C	02/13/2021	10:50	-134.717	43.436	0	459.70	0	4.9680	0	36.8010	8	29.113	0	455.528	0	69.3	4	22.8	4	-1E+10	1	-1E+10	1	-1E+10	1	-1E+10	1	-1E+10	1	-1E+10	1
4901784	205	C	02/13/2021	10:50	-134.717	43.436	0	462.20	0	4.9590	0	36.8010	8	29.114	0	458.003	0	68.5	4	22.6	4	-1E+10	1	-1E+10	1	-1E+10	1	-1E+10	1	-1E+10	1	-1E+10	1
4901784	205	C	02/13/2021	10:50	-134.717	43.436	0	464.90	0	4.9400	0	36.8020	8	29.117	0	460.675	0	67.3	4	22.2	4	-1E+10	1	-1E+10	1	-1E+10	1	-1E+10	1	-1E+10	1	-1E+10	1
4901784	205	C	02/13/2021	10:50	-134.717	43.436	0	467.60	0	4.9110	0	36.8120	8	29.128	0	463.348	0	66.0	4	21.7	4	-1E+10	1	-1E+10	1	-1E+10	1	-1E+10	1	-1E+10	1	-1E+10	1
4901784	205	C	02/13/2021	10:50	-134.717	43.436	0	470.30	0	4.8780	0	36.8160	8	29.136	0	466.020	0	64.5	4	21.2	4	-1E+10	1	-1E+10	1	-1E+10	1	-1E+10	1	-1E+10	1	-1E+10	1
4901784	205	C	02/13/2021	10:50	-134.717	43.436	0	473.00	0	4.8890	0	36.8180	8	29.136	0	468.692	0	63.7	4	20.9	4	-1E+10	1	-1E+10	1	-1E+10	1	-1E+10	1	-1E+10	1	-1E+10	1
4901784	205	C	02/13/2021	10:50	-134.717	43.436	0	474.70	0	4.8760	0	36.8180	8	29.137	0	470.375	0	63.2	4	20.8	4	-1E+10	1	-1E+10	1	-1E+10	1	-1E+10	1	-1E+10	1	-1E+10	1
4901784	205	C	02/13/2021	10:50	-134.717	43.436	0	477.30	0	4.8290	0	36.8220	8	29.146	0	472.948	0	62.3	4	20.5	4	-1E+10	1	-1E+10	1	-1E+10	1	-1E+10	1	-1E+10	1	-1E+10	1
4901784	205	C	02/13/2021	10:50	-134.717	43.436	0	479.90	0	4.8320	0	36.8270	8	29.150	0	475.522	0	60.9	4	20.0	4	-1E+10	1	-1E+10	1	-1E+10	1	-1E+10	1	-1E+10	1	-1E+10	1
4901784	205	C	02/13/2021	10:50	-134.717	43.436	0	482.50	0	4.8560	0	36.8300	8	29.149	0	478.095	0	60.0	4	19.7	4	-1E+10	1	-1E+10	1	-1E+10	1	-1E+10	1	-1E+10	1	-1E+10	1
4901784	205	C	02/13/2021	10:50	-134.717	43.436	0	485.20	0	4.8130	0	36.8360	8	29.159	0	480.767	0	59.5	4	19.6	4	-1E+10	1	-1E+10	1	-1E+10	1	-1E+10	1	-1E+10	1	-1E+10	1
4901784	205	C	02/13/2021	10:50	-134.717	43.436	0	487.00	0	4.8040	0	36.8350	8	29.160	0	482.549	0	59.4	4	19.5	4	-1E+10	1	-1E+10	1	-1E+10	1	-1E+10	1	-1E+10	1	-1E+10	1
4901784	205	C	02/13/2021	10:50	-134.717	43.436	0	489.70	0	4.8000	0	36.8360	8	29.161	0	485.221	0	59.2	4	19.4	4	-1E+10	1	-1E+10	1	-1E+10	1	-1E+10	1	-1E+10	1	-1E+10	1
4901784	205	C	02/13/2021	10:50	-134.717	43.436	0	492.30	0	4.7940	0	36.8350	8	29.161	0	487.794	0	58.9	4	19.3	4	-1E+10	1	-1E+10	1	-1E+10	1	-1E+10	1	-1E+10	1	-1E+10	1
4901784	205	C	02/13/2021	10:50	-134.717	43.436	0	495.00	0	4.7640	0	36.8370	8	29.166	0	490.466	0	58.8	4	19.3	4	-1E+10	1	-1E+10	1	-1E+10	1	-1E+10	1	-1E+10	1	-1E+10	1
4901784	205	C	02/13/2021	10:50	-134.717	43.436	0	497.60	0	4.7500	0	36.8390	8	29.169	0	493.039	0	58.5	4	19.2	4	-1E+10	1	-1E+10	1	-1E+10	1	-1E+10	1	-1E+10	1	-1E+10	1
4901784	205	C	02/13/2021	10:50	-134.717	43.436	0	500.20	0	4.7330	0	36.8400	8	29.172	0	495.612	0	58.2	4	19.1	4	-1E+10	1	-1E+10	1	-1E+10	1	-1E+10	1	-1E+10	1	-1E+10	1
4901784	205	C	02/13/2021	10:50	-134.717	43.436	0	504.50	0	4.6930	0	36.8400	8	29.177	0	499.868	0	56.8	4	18.6	4	-1E+10	1	-1E+10	1	-1E+10	1	-1E+10	1	-1E+10	1	-1E+10	1
4901784	205	C	02/13/2021	10:50	-134.717	43.436	0	509.60	0	4.6780	0	36.8490	8	29.186	0	504.915	0	54.0	4	17.7	4	-1E+10	1	-1E+10	1	-1E+10	1	-1E+10	1	-1E+10	1	-1E+10	1
4901784	205	C	02/13/2021	10:50	-134.717	43.436	0	514.90	0	4.6980	0	36.8620	8	29.194	0	510.159	0	51.0	4	16.7	4	-1E+10	1	-1E+10	1	-1E+10	1	-1E+10	1	-1E+10	1	-1E+10	1
4901784	205	C	02/13/2021	10:50	-134.717	43.436	0	520.20	0	4.6880	0	36.8720	8	29.203	0	515.404	0	49.3	4	16.1	4	-1E+10	1	-1E+10	1	-1E+10	1	-1E+10	1	-1E+10	1	-1E+10	1
4901784	205	C	02/13/2021	10:50	-134.717	43.436	0	525.60	0	4.6680	0	36.8740	8	29.207	0	520.747	0	48.9	4	16.0	4	-1E+10	1	-1E+10	1	-1E+10	1	-1E+10	1	-1E+10	1	-1E+10	1
4901784	205	C	02/13/2021	10:50	-134.717	43.436	0	530.00	0	4.6260	0	36.8740	8	29.212	0	525.101	0	49.2	4	16.1	4	-1E+10	1	-1E+10	1	-1E+10	1	-1E+10	1	-1E+10	1	-1E+10	1
4901784	205	C	02/13/2021	10:50	-134.717	43.436	0	534.30	0	4.5770	0	36.8710	8	29.215	0	529.356	0	49.3	4	16.1	4	-1E+10	1	-1E+10	1	-1E+10	1	-1E+10	1	-1E+10	1	-1E+10	1
4901784	205	C	02/13/2021	10:50	-134.717	43.436	0	539.60	0	4.5290	0	36.8730	8	29.222	0	534.600	0	48.4	4	15.8	4	-1E+10	1	-1E+10	1	-1E+10	1	-1E+10	1	-1E+10	1	-1E+10	1
4901784	205	C	02/13/2021	10:50	-134.717	43.436	0	544.90	0	4.5130	0	36.8770	8	29.227	0	539.844	0	47.1	4	15.4	4	-1E+10	1	-1E+10	1	-1E+10	1	-1E+10	1	-1E+10	1	-1E+10	1
4901784	205	C	02/13/2021	10:50	-134.717	43.436	0	550.20	0	4.4920	0	36.8840	8	29.236	0	545.088	0	45.9	4	15.0	4	-1E+10	1	-1E+10	1	-1E+10	1	-1E+10	1	-1E+10	1	-1E+10	1
4901784	205	C	02/13/2021	10:50	-134.717	43.436	0	555.50	0	4.4840	0	36.8870	8	29.239	0	550.332	0	44.4	4	14.5	4	-1E+10	1	-1E+10	1	-1E+10	1	-1E+10	1	-1E+10	1	-1E+10	1
4901784	205	C	02/13/2021	10:50	-134.717	43.436	0	559.90	0	4.4810	0	36.8930	8	29.244	0	554.685	0	42.7	4	13.9	4	-1E+10	1	-1E+10	1	-1E+10	1	-1E+10	1	-1E+10	1	-1E+10	1
4901784	205	C	02/13/2021	10:50	-134.717	43.436	0	564.30	0	4.4710	0	36.8980	8	29.249	0	559.038	0	41.0	4	13.4	4	-1E+10	1	-1E+10	1	-1E+10	1	-1E+10	1	-1E+10	1	-1E+10	1
4901784	205	C	02/13/2021	10:50	-134.717	43.436	0	569.60	0	4.4420	0	36.9090	8	29.261	0	564.281	0	38.9	4	12.7	4	-1E+10	1	-1E+10	1	-1E+10	1	-1E+10	1	-1E+10	1	-1E+10	1
4901784	205	C	02/13/2021	10:50	-134.717	43.436	0	575.00	0	4.4130	0	36.9160	8	29.270	0	569.624	0	38.0	4	12.4	4	-1E+10	1	-1E+10	1	-1E+10	1	-1E+10	1	-1E+10	1	-1E+10	1
4901784	205	C	02/13/2021	10:50	-134.717	43.436	0	580.40	0	4.4080	0	36.9180	8	29.272	0	574.966	0	36.8	4	12.0	4	-1E+10	1	-1E+10	1	-1E+10	1	-1E+10	1	-1E+10	1	-1E+10	1
4901784	205	C	02/13/2021	10:50	-134.717	43.436	0	584.90	0	4.3940	0	36.9260	8	29.280	0	579.417	0	35.5	4	11.6	4	-1E+10	1	-1E+10	1	-1E+10	1	-1E+10	1	-1E+10	1	-1E+10	1
4901784	205	C	02/13/2021	10:50	-134.717	43.436	0	589.30	0	4.3780	0	36.9330	8	29.288	0	583.770	0	34.5	4	11.2	4	-1E+10	1	-1E+10	1	-1E+10	1	-1E+10	1	-1E+10	1	-1E+10	1
4901784	205	C	02/13/2021	10:50	-134.717	43.436	0	594.80	0	4.3630	0	36.9370	8	29.293	0	589.210	0	33.4	4	10.8	4	-1E+10	1	-1E+10	1	-1E+10	1	-1E+10	1	-1E+10	1	-1E+10	1
4901784	205	C	02/13/2021	10:50	-134.717	43.436	0	600.30	0	4.3500	0	36.9440	8	29.300	0	594.651	0	32.0	4	10.4	4	-1E+10	1	-1E+10	1	-1E+10	1	-1E+10	1	-1E+10	1	-1E+10	1
4901784	205	C	02/13/2021	10:50	-134.717	43.436	0	605.00	0	4.3440	0	36.9510	8	29.306	0	599.300	0	30.8	4	10.0	4	-1E+10	1	-1E+10	1	-1E+10	1	-1E+10	1	-1E+10	1	-1E+10	1
4901784	205	C	02/13/2021	10:50	-134.717	43.436	0	609.60	0	4.3380	0	36.9540	8	29.309	0	603.850	0	29.6	4	9.6	4	-1E+10	1	-1E+10	1	-1E+10	1	-1E+10	1	-1E+10	1	-1E+10	1
4901784	205	C	02/13/2021	10:50	-134.717	43.436	0	615.10	0	4.3180	0	36.9680	8	29.323	0	609.290	0	27.6	4	9.0	4	-1E+10	1	-1E+10	1	-1E+10	1	-1E+10	1	-1E+10	1	-1E+10	1
4901784	205	C	02/13/2021	10:50	-134.717	43.436	0	619.80	0	4.3080	0	36.9740	8	29.329	0	613.939	0	26.5	4	8.6	4	-1E+10	1	-1E+10	1	-1E+10	1	-1E+10	1	-1E+10	1	-1E+10	1
4901784	205	C	02/13/2021	10:50	-134.717	43.436	0	624.40	0	4.2920	0	36.9840	8	29.339	0	618.488	0	25.4	4	8.2	4	-1E+10	1	-1E+10	1	-1E+10	1	-1E+10	1	-1E+10	1	-1E+10	1
4901784	205	C	02/13/2021	10:50	-134.717	43.436	0	630.10	0	4.2950	0	36.9930	8	29.345	0	624.126	0	23.9	4	7.8	4	-1E+10	1	-1E+10	1	-1E+10	1	-1E+10	1	-1E+10	1	-1E+10	1
4901784	205	C	02/13/2021	10:50	-134.717	43.436	0	635.50	0	4.2990	0	37.0030	8	29.353	0	629.467	0	22.6	4	7.3	4	-1E+10	1	-1E+10	1	-1E+10	1	-1E+10	1	-1E+10	1	-1E+10	1
4901784	205	C	02/13/2021	10:50	-134.717	43.436	0	640.30	0	4.2900	0	37.0090	8	29.359	0	634.214	0	22.0	4	7.1	4	-1E+10	1	-1E+10	1	-1E+10	1	-1E+10	1	-1E+10	1	-1E+10	1
4901784	205	C	02/13/2021	10:50	-134.717	43.436	0	645.10	0	4.2580	0	37.0150	8	29.367	0	638.961	0	21.3	4	6.9	4	-1E+10	1	-1E+10	1	-1E+10	1	-1E+10	1	-1E+10	1	-1E+10	1
4901784	205	C	02/13/2021	10:50	-134.717	43.436	0	650.00	0	4.2210	0	37.0200	8	29.375	0	643.806	0	20.5	4	6.6	4	-1E+10	1	-1E+10	1	-1E+10	1	-1E+10	1	-1E+10	1	-1E+10	1
4901784	205	C	02/13/2021	10:50	-134.717	43.436	0	654.80	0	4.2260	0	37.0330	8	29.385	0	648.553	0	19.1	4	6.2	4	-1E+10	1	-1E+10	1	-1E+10	1	-1E+10	1	-1E+10	1	-1E+10	1
4901784	205	C	02/13/2021	10:50	-134.717	43.436	0	659.80	0	4.2620	0	37.0420	8	29.388	0	653.498	0	18.1	4	5.9	4	-1E+10	1	-1E+10	1	-1E+10	1	-1E+10	1	-1E+10	1	-1E+10	1
4901784	205	C	02/13/2021	10:50	-134.717	43.436	0	664.90	0	4.2670	0	37.0490	8	29.393	0	658.541	0	17.5	4	5.7	4	-1E+10	1	-1E+10	1	-1E+10	1	-1E+10	1	-1E+10	1	-1E+10	1
4901784	205	C	02/13/2021	10:50	-134.717	43.436	0	670.00	0	4.2470	0	37.0560	8	29.401	0	663.584	0	17.0	4	5.5	4	-1E+10	1	-1E+10	1	-1E+10	1	-1E+10	1	-1E+10	1	-1E+10	1
4901784	205	C	02/13/2021	10:50	-134.717	43.436	0	675.20	0	4.2470	0	37.0610	8	29.405	0	668.726	0	16.8	4	5.4	4	-1E+10	1	-1E+10	1	-1E+10	1	-1E+10	1	-1E+10	1	-1E+10	1
4901784	205	C	02/13/2021	10:50	-134.717	43.436	0	680.40	0	4.2390	0	37.0620	8	29.407	0	673.868	0	16.6	4	5.4	4	-1E+10	1	-1E+10	1	-1E+10	1	-1E+10	1	-1E+10	1	-1E+10	1
4901784	205	C	02/13/2021	10:50	-134.717	43.436	0	685.70	0	4.2120	0	37.0640	8	29.412	0	679.108	0	16.3	4	5.3	4	-1E+10	1	-1E+10	1	-1E+10	1	-1E+10	1	-1E+10	1	-1E+10	1
4901784	205	C	02/13/2021	10:50	-134.717	43.436	0	690.00	0	4.2110	0	37.0680	8	29.415	0	683.360	0	15.9	4	5.1	4	-1E+10	1	-1E+10	1	-1E+10	1	-1E+10	1	-1E+10	1	-1E+10	1
4901784	205	C	02/13/2021	10:50	-134.717	43.436	0	694.50	0	4.2060	0	37.0730	8	29.420	0	687.809	0	15.4	4	5.0	4	-1E+10	1	-1E+10	1	-1E+10	1	-1E+10	1	-1E+10	1	-1E+10	1
4901784	205	C	02/13/2021	10:50	-134.717	43.436	0	700.00	0	4.2150	0	37.0820	8	29.426	0	693.247	0	14.8	4	4.8	4	-1E+10	1	-1E+10	1	-1E+10	1	-1E+10	1	-1E+10	1	-1E+10	1
4901784	205	C	02/13/2021	10:50	-134.717	43.436	0	705.40	0	4.1980	0	37.0850	8	29.430	0	698.586	0	14.6	4	4.7	4	-1E+10	1	-1E+10	1	-1E+10	1	-1E+10	1	-1E+10	1	-1E+10	1
4901784	205	C	02/13/2021	10:50	-134.717	43.436	0	710.00	0	4.1770	0	37.0890	8	29.436	0	703.134	0	14.3	4	4.6	4	-1E+10	1	-1E+10	1	-1E+10	1	-1E+10	1	-1E+10	1	-1E+10	1
4901784	205	C	02/13/2021	10:50	-134.717	43.436	0	714.60	0	4.1820	0	37.0950	8	29.440	0	707.681	0	14.0	4	4.5	4	-1E+10	1	-1E+10	1	-1E+10	1	-1E+10	1	-1E+10	1	-1E+10	1
4901784	205	C	02/13/2021	10:50	-134.717	43.436	0	720.10	0	4.1790	0	37.0980	8	29.443	0	713.119	0	13.7	4	4.5	4	-1E+10	1	-1E+10	1	-1E+10	1	-1E+10	1	-1E+10	1	-1E+10	1
4901784	205	C	02/13/2021	10:50	-134.717	43.436	0	725.60	0	4.1650	0	37.1050	8	29.450	0	718.556	0	13.4	4	4.3	4	-1E+10	1	-1E+10	1	-1E+10	1	-1E+10	1	-1E+10	1	-1E+10	1
4901784	205	C	02/13/2021	10:50	-134.717	43.436	0	730.20	0	4.1550	0	37.1090	8	29.454	0	723.103	0	13.3	4	4.3	4	-1E+10	1	-1E+10	1	-1E+10	1	-1E+10	1	-1E+10	1	-1E+10	1
4901784	205	C	02/13/2021	10:50	-134.717	43.436	0	734.80	0	4.1440	0	37.1110	8	29.457	0	727.651	0	13.1	4	4.2	4	-1E+10	1	-1E+10	1	-1E+10	1	-1E+10	1	-1E+10	1	-1E+10	1
4901784	205	C	02/13/2021	10:50	-134.717	43.436	0	740.50	0	4.1330	0	37.1170	8	29.463	0	733.285	0	12.9	4	4.2	4	-1E+10	1	-1E+10	1	-1E+10	1	-1E+10	1	-1E+10	1	-1E+10	1
4901784	205	C	02/13/2021	10:50	-134.717	43.436	0	745.50	0	4.1230	0	37.1190	8	29.466	0	738.227	0	12.8	4	4.1	4	-1E+10	1	-1E+10	1	-1E+10	1	-1E+10	1	-1E+10	1	-1E+10	1
4901784	205	C	02/13/2021	10:50	-134.717	43.436	0	749.90	0	4.1190	0	37.1210	8	29.468	0	742.577	0	12.7	4	4.1	4	-1E+10	1	-1E+10	1	-1E+10	1	-1E+10	1	-1E+10	1	-1E+10	1
4901784	205	C	02/13/2021	10:50	-134.717	43.436	0	754.70	0	4.1080	0	37.1260	8	29.473	0	747.321	0	12.4	4	4.0	4	-1E+10	1	-1E+10	1	-1E+10	1	-1E+10	1	-1E+10	1	-1E+10	1
4901784	205	C	02/13/2021	10:50	-134.717	43.436	0	759.60	0	4.0950	0	37.1330	8	29.480	0	752.165	0	12.2	4	4.0	4	-1E+10	1	-1E+10	1	-1E+10	1	-1E+10	1	-1E+10	1	-1E+10	1
4901784	205	C	02/13/2021	10:50	-134.717	43.436	0	764.60	0	4.0910	0	37.1350	8	29.482	0	757.107	0	12.1	4	3.9	4	-1E+10	1	-1E+10	1	-1E+10	1	-1E+10	1	-1E+10	1	-1E+10	1
4901784	205	C	02/13/2021	10:50	-134.717	43.436	0	769.60	0	4.0720	0	37.1390	8	29.488	0	762.048	0	12.0	4	3.9	4	-1E+10	1	-1E+10	1	-1E+10	1	-1E+10	1	-1E+10	1	-1E+10	1
4901784	205	C	02/13/2021	10:50	-134.717	43.436	0	774.50	0	4.0620	0	37.1440	8	29.493	0	766.891	0	11.8	4	3.8	4	-1E+10	1	-1E+10	1	-1E+10	1	-1E+10	1	-1E+10	1	-1E+10	1
4901784	205	C	02/13/2021	10:50	-134.717	43.436	0	779.50	0	4.0640	0	37.1450	8	29.494	0	771.833	0	11.7	4	3.8	4	-1E+10	1	-1E+10	1	-1E+10	1	-1E+10	1	-1E+10	1	-1E+10	1
4901784	205	C	02/13/2021	10:50	-134.717	43.436	0	784.60	0	4.0510	0	37.1470	8	29.497	0	776.873	0	11.6	4	3.7	4	-1E+10	1	-1E+10	1	-1E+10	1	-1E+10	1	-1E+10	1	-1E+10	1
4901784	205	C	02/13/2021	10:50	-134.717	43.436	0	789.60	0	4.0280	0	37.1550	8	29.506	0	781.815	0	11.3	4	3.7	4	-1E+10	1	-1E+10	1	-1E+10	1	-1E+10	1	-1E+10	1	-1E+10	1
4901784	205	C	02/13/2021	10:50	-134.717	43.436	0	794.70	0	4.0350	0	37.1650	8	29.513	0	786.855	0	11.1	4	3.6	4	-1E+10	1	-1E+10	1	-1E+10	1	-1E+10	1	-1E+10	1	-1E+10	1
4901784	205	C	02/13/2021	10:50	-134.717	43.436	0	799.90	0	4.0310	0	37.1700	8	29.517	0	791.994	0	11.0	4	3.5	4	-1E+10	1	-1E+10	1	-1E+10	1	-1E+10	1	-1E+10	1	-1E+10	1
4901784	205	C	02/13/2021	10:50	-134.717	43.436	0	805.00	0	4.0290	0	37.1730	8	29.520	0	797.034	0	10.9	4	3.5	4	-1E+10	1	-1E+10	1	-1E+10	1	-1E+10	1	-1E+10	1	-1E+10	1
4901784	205	C	02/13/2021	10:50	-134.717	43.436	0	810.10	0	4.0120	0	37.1770	8	29.525	0	802.073	0	10.8	4	3.5	4	-1E+10	1	-1E+10	1	-1E+10	1	-1E+10	1	-1E+10	1	-1E+10	1
4901784	205	C	02/13/2021	10:50	-134.717	43.436	0	815.20	0	3.9970	0	37.1800	8	29.529	0	807.113	0	10.7	4	3.4	4	-1E+10	1	-1E+10	1	-1E+10	1	-1E+10	1	-1E+10	1	-1E+10	1
4901784	205	C	02/13/2021	10:50	-134.717	43.436	0	820.30	0	3.9720	0	37.1850	8	29.536	0	812.152	0	10.6	4	3.4	4	-1E+10	1	-1E+10	1	-1E+10	1	-1E+10	1	-1E+10	1	-1E+10	1
4901784	205	C	02/13/2021	10:50	-134.717	43.436	0	825.50	0	3.9550	0	37.1880	8	29.540	0	817.291	0	10.5	4	3.4	4	-1E+10	1	-1E+10	1	-1E+10	1	-1E+10	1	-1E+10	1	-1E+10	1
4901784	205	C	02/13/2021	10:50	-134.717	43.436	0	830.70	0	3.9390	0	37.1900	8	29.544	0	822.429	0	10.5	4	3.4	4	-1E+10	1	-1E+10	1	-1E+10	1	-1E+10	1	-1E+10	1	-1E+10	1
4901784	205	C	02/13/2021	10:50	-134.717	43.436	0	835.00	0	3.9020	0	37.1930	8	29.550	0	826.677	0	10.4	4	3.4	4	-1E+10	1	-1E+10	1	-1E+10	1	-1E+10	1	-1E+10	1	-1E+10	1
4901784	205	C	02/13/2021	10:50	-134.717	43.436	0	839.30	0	3.8860	0	37.1990	8	29.557	0	830.926	0	10.4	4	3.3	4	-1E+10	1	-1E+10	1	-1E+10	1	-1E+10	1	-1E+10	1	-1E+10	1
4901784	205	C	02/13/2021	10:50	-134.717	43.436	0	844.60	0	3.8730	0	37.2020	8	29.560	0	836.162	0	10.3	4	3.3	4	-1E+10	1	-1E+10	1	-1E+10	1	-1E+10	1	-1E+10	1	-1E+10	1
4901784	205	C	02/13/2021	10:50	-134.717	43.436	0	850.00	0	3.8580	0	37.2040	8	29.564	0	841.498	0	10.3	4	3.3	4	-1E+10	1	-1E+10	1	-1E+10	1	-1E+10	1	-1E+10	1	-1E+10	1
4901784	205	C	02/13/2021	10:50	-134.717	43.436	0	855.40	0	3.8430	0	37.2070	8	29.568	0	846.833	0	10.2	4	3.3	4	-1E+10	1	-1E+10	1	-1E+10	1	-1E+10	1	-1E+10	1	-1E+10	1
4901784	205	C	02/13/2021	10:50	-134.717	43.436	0	859.90	0	3.8310	0	37.2100	8	29.571	0	851.278	0	10.2	4	3.3	4	-1E+10	1	-1E+10	1	-1E+10	1	-1E+10	1	-1E+10	1	-1E+10	1
4901784	205	C	02/13/2021	10:50	-134.717	43.436	0	864.30	0	3.8230	0	37.2120	8	29.574	0	855.625	0	10.2	4	3.3	4	-1E+10	1	-1E+10	1	-1E+10	1	-1E+10	1	-1E+10	1	-1E+10	1
4901784	205	C	02/13/2021	10:50	-134.717	43.436	0	869.70	0	3.8100	0	37.2170	8	29.579	0	860.960	0	10.1	4	3.3	4	-1E+10	1	-1E+10	1	-1E+10	1	-1E+10	1	-1E+10	1	-1E+10	1
4901784	205	C	02/13/2021	10:50	-134.717	43.436	0	875.10	0	3.8060	0	37.2220	8	29.584	0	866.295	0	10.1	4	3.2	4	-1E+10	1	-1E+10	1	-1E+10	1	-1E+10	1	-1E+10	1	-1E+10	1
4901784	205	C	02/13/2021	10:50	-134.717	43.436	0	880.40	0	3.8110	0	37.2300	8	29.590	0	871.530	0	10.1	4	3.2	4	-1E+10	1	-1E+10	1	-1E+10	1	-1E+10	1	-1E+10	1	-1E+10	1
4901784	205	C	02/13/2021	10:50	-134.717	43.436	0	884.90	0	3.8370	0	37.2360	8	29.592	0	875.975	0	10.1	4	3.2	4	-1E+10	1	-1E+10	1	-1E+10	1	-1E+10	1	-1E+10	1	-1E+10	1
4901784	205	C	02/13/2021	10:50	-134.717	43.436	0	889.50	0	3.8160	0	37.2400	8	29.597	0	880.519	0	10.1	4	3.2	4	-1E+10	1	-1E+10	1	-1E+10	1	-1E+10	1	-1E+10	1	-1E+10	1
4901784	205	C	02/13/2021	10:50	-134.717	43.436	0	894.90	0	3.8250	0	37.2460	8	29.601	0	885.853	0	10.1	4	3.2	4	-1E+10	1	-1E+10	1	-1E+10	1	-1E+10	1	-1E+10	1	-1E+10	1
4901784	205	C	02/13/2021	10:50	-134.717	43.436	0	900.40	0	3.7510	0	37.2440	8	29.607	0	891.286	0	10.1	4	3.2	4	-1E+10	1	-1E+10	1	-1E+10	1	-1E+10	1	-1E+10	1	-1E+10	1
4901784	205	C	02/13/2021	10:50	-134.717	43.436	0	905.00	0	3.7510	0	37.2470	8	29.610	0	895.830	0	10.1	4	3.2	4	-1E+10	1	-1E+10	1	-1E+10	1	-1E+10	1	-1E+10	1	-1E+10	1
4901784	205	C	02/13/2021	10:50	-134.717	43.436	0	910.30	0	3.7640	0	37.2540	8	29.614	0	901.065	0	10.1	4	3.2	4	-1E+10	1	-1E+10	1	-1E+10	1	-1E+10	1	-1E+10	1	-1E+10	1
4901784	205	C	02/13/2021	10:50	-134.717	43.436	0	915.30	0	3.7620	0	37.2570	8	29.617	0	906.003	0	10.1	4	3.2	4	-1E+10	1	-1E+10	1	-1E+10	1	-1E+10	1	-1E+10	1	-1E+10	1
4901784	205	C	02/13/2021	10:50	-134.717	43.436	0	920.20	0	3.7530	0	37.2580	8	29.619	0	910.843	0	10.1	4	3.2	4	-1E+10	1	-1E+10	1	-1E+10	1	-1E+10	1	-1E+10	1	-1E+10	1
4901784	205	C	02/13/2021	10:50	-134.717	43.436	0	925.00	0	3.7330	0	37.2600	8	29.622	0	915.583	0	10.1	4	3.2	4	-1E+10	1	-1E+10	1	-1E+10	1	-1E+10	1	-1E+10	1	-1E+10	1
4901784	205	C	02/13/2021	10:50	-134.717	43.436	0	929.80	0	3.7260	0	37.2610	8	29.624	0	920.324	0	10.0	4	3.2	4	-1E+10	1	-1E+10	1	-1E+10	1	-1E+10	1	-1E+10	1	-1E+10	1
4901784	205	C	02/13/2021	10:50	-134.717	43.436	0	934.70	0	3.7080	0	37.2630	8	29.628	0	925.163	0	10.1	4	3.2	4	-1E+10	1	-1E+10	1	-1E+10	1	-1E+10	1	-1E+10	1	-1E+10	1
4901784	205	C	02/13/2021	10:50	-134.717	43.436	0	939.60	0	3.7030	0	37.2650	8	29.630	0	930.002	0	10.1	4	3.2	4	-1E+10	1	-1E+10	1	-1E+10	1	-1E+10	1	-1E+10	1	-1E+10	1
4901784	205	C	02/13/2021	10:50	-134.717	43.436	0	944.50	0	3.6820	0	37.2690	8	29.635	0	934.841	0	10.1	4	3.2	4	-1E+10	1	-1E+10	1	-1E+10	1	-1E+10	1	-1E+10	1	-1E+10	1
4901784	205	C	02/13/2021	10:50	-134.717	43.436	0	949.50	0	3.6690	0	37.2720	8	29.639	0	939.779	0	10.1	4	3.2	4	-1E+10	1	-1E+10	1	-1E+10	1	-1E+10	1	-1E+10	1	-1E+10	1
4901784	205	C	02/13/2021	10:50	-134.717	43.436	0	954.40	0	3.6650	0	37.2750	8	29.642	0	944.618	0	10.1	4	3.2	4	-1E+10	1	-1E+10	1	-1E+10	1	-1E+10	1	-1E+10	1	-1E+10	1
4901784	205	C	02/13/2021	10:50	-134.717	43.436	0	959.40	0	3.6410	0	37.2750	8	29.644	0	949.555	0	10.1	4	3.2	4	-1E+10	1	-1E+10	1	-1E+10	1	-1E+10	1	-1E+10	1	-1E+10	1
4901784	205	C	02/13/2021	10:50	-134.717	43.436	0	964.40	0	3.6240	0	37.2770	8	29.648	0	954.492	0	10.1	4	3.2	4	-1E+10	1	-1E+10	1	-1E+10	1	-1E+10	1	-1E+10	1	-1E+10	1
4901784	205	C	02/13/2021	10:50	-134.717	43.436	0	969.50	0	3.6060	0	37.2820	8	29.654	0	959.528	0	10.1	4	3.2	4	-1E+10	1	-1E+10	1	-1E+10	1	-1E+10	1	-1E+10	1	-1E+10	1
4901784	205	C	02/13/2021	10:50	-134.717	43.436	0	974.70	0	3.5900	0	37.2850	8	29.658	0	964.663	0	10.2	4	3.3	4	-1E+10	1	-1E+10	1	-1E+10	1	-1E+10	1	-1E+10	1	-1E+10	1
4901784	205	C	02/13/2021	10:50	-134.717	43.436	0	979.90	0	3.5730	0	37.2890	8	29.663	0	969.797	0	10.2	4	3.3	4	-1E+10	1	-1E+10	1	-1E+10	1	-1E+10	1	-1E+10	1	-1E+10	1
4901784	205	C	02/13/2021	10:50	-134.717	43.436	0	985.20	0	3.5580	0	37.2910	8	29.666	0	975.030	0	10.3	4	3.3	4	-1E+10	1	-1E+10	1	-1E+10	1	-1E+10	1	-1E+10	1	-1E+10	1
4901784	205	C	02/13/2021	10:50	-134.717	43.436	0	990.40	0	3.5440	0	37.2950	8	29.671	0	980.165	0	10.3	4	3.3	4	-1E+10	1	-1E+10	1	-1E+10	1	-1E+10	1	-1E+10	1	-1E+10	1
4901784	205	C	02/13/2021	10:50	-134.717	43.436	0	995.70	0	3.5330	0	37.2980	8	29.674	0	985.397	0	10.4	4	3.3	4	-1E+10	1	-1E+10	1	-1E+10	1	-1E+10	1	-1E+10	1	-1E+10	1
4901784	205	C	02/13/2021	10:50	-134.717	43.436	0	1000.10	0	3.5270	0	37.3000	8	29.677	0	989.741	0	10.4	4	3.3	4	-1E+10	1	-1E+10	1	-1E+10	1	-1E+10	1	-1E+10	1	-1E+10	1
4901784	205	C	02/13/2021	10:50	-134.717	43.436	0	1004.50	0	3.5180	0	37.3020	8	29.679	0	994.085	0	10.5	4	3.4	4	-1E+10	1	-1E+10	1	-1E+10	1	-1E+10	1	-1E+10	1	-1E+10	1
4901784	205	C	02/13/2021	10:50	-134.717	43.436	0	1009.80	0	3.5080	0	37.3060	8	29.683	0	999.318	0	10.6	4	3.4	4	-1E+10	1	-1E+10	1	-1E+10	1	-1E+10	1	-1E+10	1	-1E+10	1
4901784	205	C	02/13/2021	10:50	-134.717	43.436	0	1015.20	0	3.5030	0	37.3070	8	29.685	0	1004.649	0	10.6	4	3.4	4	-1E+10	1	-1E+10	1	-1E+10	1	-1E+10	1	-1E+10	1	-1E+10	1
4901784	205	C	02/13/2021	10:50	-134.717	43.436	0	1020.60	0	3.4880	0	37.3090	8	29.688	0	1009.980	0	10.7	4	3.4	4	-1E+10	1	-1E+10	1	-1E+10	1	-1E+10	1	-1E+10	1	-1E+10	1
4901784	205	C	02/13/2021	10:50	-134.717	43.436	0	1025.10	0	3.4780	0	37.3110	8	29.691	0	1014.422	0	10.7	4	3.4	4	-1E+10	1	-1E+10	1	-1E+10	1	-1E+10	1	-1E+10	1	-1E+10	1
4901784	205	C	02/13/2021	10:50	-134.717	43.436	0	1029.60	0	3.4660	0	37.3140	8	29.694	0	1018.864	0	10.8	4	3.4	4	-1E+10	1	-1E+10	1	-1E+10	1	-1E+10	1	-1E+10	1	-1E+10	1
4901784	205	C	02/13/2021	10:50	-134.717	43.436	0	1035.00	0	3.4530	0	37.3170	8	29.698	0	1024.195	0	10.9	4	3.5	4	-1E+10	1	-1E+10	1	-1E+10	1	-1E+10	1	-1E+10	1	-1E+10	1
4901784	205	C	02/13/2021	10:50	-134.717	43.436	0	1040.40	0	3.4430	0	37.3200	8	29.702	0	1029.525	0	10.9	4	3.5	4	-1E+10	1	-1E+10	1	-1E+10	1	-1E+10	1	-1E+10	1	-1E+10	1
4901784	205	C	02/13/2021	10:50	-134.717	43.436	0	1045.00	0	3.4340	0	37.3220	8	29.704	0	1034.066	0	11.0	4	3.5	4	-1E+10	1	-1E+10	1	-1E+10	1	-1E+10	1	-1E+10	1	-1E+10	1
4901784	205	C	02/13/2021	10:50	-134.717	43.436	0	1049.50	0	3.4290	0	37.3230	8	29.706	0	1038.507	0	11.0	4	3.5	4	-1E+10	1	-1E+10	1	-1E+10	1	-1E+10	1	-1E+10	1	-1E+10	1
4901784	205	C	02/13/2021	10:50	-134.717	43.436	0	1054.80	0	3.4170	0	37.3260	8	29.709	0	1043.739	0	11.1	4	3.5	4	-1E+10	1	-1E+10	1	-1E+10	1	-1E+10	1	-1E+10	1	-1E+10	1
4901784	205	C	02/13/2021	10:50	-134.717	43.436	0	1060.20	0	3.4080	0	37.3280	8	29.712	0	1049.069	0	11.1	4	3.5	4	-1E+10	1	-1E+10	1	-1E+10	1	-1E+10	1	-1E+10	1	-1E+10	1
4901784	205	C	02/13/2021	10:50	-134.717	43.436	0	1065.60	0	3.3980	0	37.3300	8	29.714	0	1054.398	0	11.2	4	3.6	4	-1E+10	1	-1E+10	1	-1E+10	1	-1E+10	1	-1E+10	1	-1E+10	1
4901784	205	C	02/13/2021	10:50	-134.717	43.436	0	1070.10	0	3.3940	0	37.3320	8	29.716	0	1058.840	0	11.3	4	3.6	4	-1E+10	1	-1E+10	1	-1E+10	1	-1E+10	1	-1E+10	1	-1E+10	1
4901784	205	C	02/13/2021	10:50	-134.717	43.436	0	1074.70	0	3.3840	0	37.3330	8	29.718	0	1063.380	0	11.3	4	3.6	4	-1E+10	1	-1E+10	1	-1E+10	1	-1E+10	1	-1E+10	1	-1E+10	1
4901784	205	C	02/13/2021	10:50	-134.717	43.436	0	1080.00	0	3.3700	0	37.3360	8	29.722	0	1068.610	0	11.4	4	3.6	4	-1E+10	1	-1E+10	1	-1E+10	1	-1E+10	1	-1E+10	1	-1E+10	1
4901784	205	C	02/13/2021	10:50	-134.717	43.436	0	1085.40	0	3.3590	0	37.3390	8	29.726	0	1073.940	0	11.5	4	3.7	4	-1E+10	1	-1E+10	1	-1E+10	1	-1E+10	1	-1E+10	1	-1E+10	1
4901784	205	C	02/13/2021	10:50	-134.717	43.436	0	1090.00	0	3.3550	0	37.3400	8	29.727	0	1078.479	0	11.6	4	3.7	4	-1E+10	1	-1E+10	1	-1E+10	1	-1E+10	1	-1E+10	1	-1E+10	1
4901784	205	C	02/13/2021	10:50	-134.717	43.436	0	1095.00	0	3.3480	0	37.3430	8	29.730	0	1083.413	0	11.8	4	3.8	4	-1E+10	1	-1E+10	1	-1E+10	1	-1E+10	1	-1E+10	1	-1E+10	1
4901784	205	C	02/13/2021	10:50	-134.717	43.436	0	1100.40	0	3.3360	0	37.3470	8	29.735	0	1088.742	0	12.0	4	3.8	4	-1E+10	1	-1E+10	1	-1E+10	1	-1E+10	1	-1E+10	1	-1E+10	1
4901784	205	C	02/13/2021	10:50	-134.717	43.436	0	1105.10	0	3.3330	0	37.3500	8	29.737	0	1093.380	0	12.1	4	3.8	4	-1E+10	1	-1E+10	1	-1E+10	1	-1E+10	1	-1E+10	1	-1E+10	1
4901784	205	C	02/13/2021	10:50	-134.717	43.436	0	1109.80	0	3.3160	0	37.3510	8	29.740	0	1098.018	0	12.2	4	3.9	4	-1E+10	1	-1E+10	1	-1E+10	1	-1E+10	1	-1E+10	1	-1E+10	1
4901784	205	C	02/13/2021	10:50	-134.717	43.436	0	1114.70	0	3.2980	0	37.3540	8	29.744	0	1102.853	0	12.3	4	3.9	4	-1E+10	1	-1E+10	1	-1E+10	1	-1E+10	1	-1E+10	1	-1E+10	1
4901784	205	C	02/13/2021	10:50	-134.717	43.436	0	1119.60	0	3.2850	0	37.3570	8	29.748	0	1107.688	0	12.4	4	4.0	4	-1E+10	1	-1E+10	1	-1E+10	1	-1E+10	1	-1E+10	1	-1E+10	1
4901784	205	C	02/13/2021	10:50	-134.717	43.436	0	1124.80	0	3.2670	0	37.3610	8	29.753	0	1112.819	0	12.6	4	4.0	4	-1E+10	1	-1E+10	1	-1E+10	1	-1E+10	1	-1E+10	1	-1E+10	1
4901784	205	C	02/13/2021	10:50	-134.717	43.436	0	1130.00	0	3.2620	0	37.3640	8	29.756	0	1117.950	0	12.8	4	4.1	4	-1E+10	1	-1E+10	1	-1E+10	1	-1E+10	1	-1E+10	1	-1E+10	1
4901784	205	C	02/13/2021	10:50	-134.717	43.436	0	1135.20	0	3.2520	0	37.3660	8	29.759	0	1123.081	0	12.9	4	4.1	4	-1E+10	1	-1E+10	1	-1E+10	1	-1E+10	1	-1E+10	1	-1E+10	1
4901784	205	C	02/13/2021	10:50	-134.717	43.436	0	1140.40	0	3.2360	0	37.3680	8	29.762	0	1128.211	0	13.0	4	4.1	4	-1E+10	1	-1E+10	1	-1E+10	1	-1E+10	1	-1E+10	1	-1E+10	1
4901784	205	C	02/13/2021	10:50	-134.717	43.436	0	1144.90	0	3.2280	0	37.3700	8	29.764	0	1132.651	0	13.1	4	4.2	4	-1E+10	1	-1E+10	1	-1E+10	1	-1E+10	1	-1E+10	1	-1E+10	1
4901784	205	C	02/13/2021	10:50	-134.717	43.436	0	1149.30	0	3.2140	0	37.3730	8	29.768	0	1136.992	0	13.3	4	4.2	4	-1E+10	1	-1E+10	1	-1E+10	1	-1E+10	1	-1E+10	1	-1E+10	1
4901784	205	C	02/13/2021	10:50	-134.717	43.436	0	1154.70	0	3.2030	0	37.3750	8	29.771	0	1142.319	0	13.4	4	4.2	4	-1E+10	1	-1E+10	1	-1E+10	1	-1E+10	1	-1E+10	1	-1E+10	1
4901784	205	C	02/13/2021	10:50	-134.717	43.436	0	1159.90	0	3.1850	0	37.3770	8	29.774	0	1147.450	0	13.4	4	4.3	4	-1E+10	1	-1E+10	1	-1E+10	1	-1E+10	1	-1E+10	1	-1E+10	1
4901784	205	C	02/13/2021	10:50	-134.717	43.436	0	1165.30	0	3.1710	0	37.3790	8	29.777	0	1152.777	0	13.6	4	4.3	4	-1E+10	1	-1E+10	1	-1E+10	1	-1E+10	1	-1E+10	1	-1E+10	1
4901784	205	C	02/13/2021	10:50	-134.717	43.436	0	1170.60	0	3.1630	0	37.3830	8	29.781	0	1158.005	0	13.9	4	4.4	4	-1E+10	1	-1E+10	1	-1E+10	1	-1E+10	1	-1E+10	1	-1E+10	1
4901784	205	C	02/13/2021	10:50	-134.717	43.436	0	1175.10	0	3.1540	0	37.3850	8	29.784	0	1162.444	0	14.1	4	4.5	4	-1E+10	1	-1E+10	1	-1E+10	1	-1E+10	1	-1E+10	1	-1E+10	1
4901784	205	C	02/13/2021	10:50	-134.717	43.436	0	1179.60	0	3.1430	0	37.3880	8	29.787	0	1166.883	0	14.3	4	4.5	4	-1E+10	1	-1E+10	1	-1E+10	1	-1E+10	1	-1E+10	1	-1E+10	1
4901784	205	C	02/13/2021	10:50	-134.717	43.436	0	1185.10	0	3.1350	0	37.3900	8	29.790	0	1172.309	0	14.3	4	4.5	4	-1E+10	1	-1E+10	1	-1E+10	1	-1E+10	1	-1E+10	1	-1E+10	1
4901784	205	C	02/13/2021	10:50	-134.717	43.436	0	1190.60	0	3.1210	0	37.3900	8	29.791	0	1177.734	0	14.3	4	4.5	4	-1E+10	1	-1E+10	1	-1E+10	1	-1E+10	1	-1E+10	1	-1E+10	1
4901784	205	C	02/13/2021	10:50	-134.717	43.436	0	1195.20	0	3.1040	0	37.3920	8	29.795	0	1182.271	0	14.4	4	4.6	4	-1E+10	1	-1E+10	1	-1E+10	1	-1E+10	1	-1E+10	1	-1E+10	1
4901784	205	C	02/13/2021	10:50	-134.717	43.436	0	1199.80	0	3.0890	0	37.3950	8	29.799	0	1186.809	0	14.6	4	4.6	4	-1E+10	1	-1E+10	1	-1E+10	1	-1E+10	1	-1E+10	1	-1E+10	1
4901784	205	C	02/13/2021	10:50	-134.717	43.436	0	1205.40	0	3.0790	0	37.3980	8	29.802	0	1192.332	0	14.8	4	4.7	4	-1E+10	1	-1E+10	1	-1E+10	1	-1E+10	1	-1E+10	1	-1E+10	1
4901784	205	C	02/13/2021	10:50	-134.717	43.436	0	1210.20	0	3.0720	0	37.3990	8	29.804	0	1197.066	0	15.0	4	4.7	4	-1E+10	1	-1E+10	1	-1E+10	1	-1E+10	1	-1E+10	1	-1E+10	1
4901784	205	C	02/13/2021	10:50	-134.717	43.436	0	1215.00	0	3.0670	0	37.4020	8	29.806	0	1201.801	0	15.3	4	4.8	4	-1E+10	1	-1E+10	1	-1E+10	1	-1E+10	1	-1E+10	1	-1E+10	1
4901784	205	C	02/13/2021	10:50	-134.717	43.436	0	1219.80	0	3.0550	0	37.4040	8	29.809	0	1206.535	0	15.2	4	4.8	4	-1E+10	1	-1E+10	1	-1E+10	1	-1E+10	1	-1E+10	1	-1E+10	1
4901784	205	C	02/13/2021	10:50	-134.717	43.436	0	1224.60	0	3.0390	0	37.4050	8	29.812	0	1211.269	0	15.2	4	4.8	4	-1E+10	1	-1E+10	1	-1E+10	1	-1E+10	1	-1E+10	1	-1E+10	1
4901784	205	C	02/13/2021	10:50	-134.717	43.436	0	1229.50	0	3.0280	0	37.4060	8	29.814	0	1216.101	0	15.2	4	4.8	4	-1E+10	1	-1E+10	1	-1E+10	1	-1E+10	1	-1E+10	1	-1E+10	1
4901784	205	C	02/13/2021	10:50	-134.717	43.436	0	1234.50	0	3.0200	0	37.4070	8	29.815	0	1221.032	0	15.4	4	4.9	4	-1E+10	1	-1E+10	1	-1E+10	1	-1E+10	1	-1E+10	1	-1E+10	1
4901784	205	C	02/13/2021	10:50	-134.717	43.436	0	1240.40	0	3.0090	0	37.4090	8	29.818	0	1226.851	0	15.7	4	4.9	4	-1E+10	1	-1E+10	1	-1E+10	1	-1E+10	1	-1E+10	1	-1E+10	1
4901784	205	C	02/13/2021	10:50	-134.717	43.436	0	1245.40	0	2.9940	0	37.4120	8	29.822	0	1231.781	0	15.9	4	5.0	4	-1E+10	1	-1E+10	1	-1E+10	1	-1E+10	1	-1E+10	1	-1E+10	1
4901784	205	C	02/13/2021	10:50	-134.717	43.436	0	1250.30	0	2.9860	0	37.4140	8	29.824	0	1236.613	0	16.1	4	5.1	4	-1E+10	1	-1E+10	1	-1E+10	1	-1E+10	1	-1E+10	1	-1E+10	1
4901784	205	C	02/13/2021	10:50	-134.717	43.436	0	1254.90	0	2.9700	0	37.4170	8	29.828	0	1241.150	0	16.3	4	5.1	4	-1E+10	1	-1E+10	1	-1E+10	1	-1E+10	1	-1E+10	1	-1E+10	1
4901784	205	C	02/13/2021	10:50	-134.717	43.436	0	1260.10	0	2.9660	0	37.4180	8	29.829	0	1246.277	0	16.4	4	5.2	4	-1E+10	1	-1E+10	1	-1E+10	1	-1E+10	1	-1E+10	1	-1E+10	1
4901784	205	C	02/13/2021	10:50	-134.717	43.436	0	1265.20	0	2.9550	0	37.4200	8	29.832	0	1251.306	0	16.6	4	5.2	4	-1E+10	1	-1E+10	1	-1E+10	1	-1E+10	1	-1E+10	1	-1E+10	1
4901784	205	C	02/13/2021	10:50	-134.717	43.436	0	1270.10	0	2.9470	0	37.4220	8	29.835	0	1256.138	0	16.7	4	5.3	4	-1E+10	1	-1E+10	1	-1E+10	1	-1E+10	1	-1E+10	1	-1E+10	1
4901784	205	C	02/13/2021	10:50	-134.717	43.436	0	1275.00	0	2.9350	0	37.4240	8	29.837	0	1260.969	0	16.9	4	5.3	4	-1E+10	1	-1E+10	1	-1E+10	1	-1E+10	1	-1E+10	1	-1E+10	1
4901784	205	C	02/13/2021	10:50	-134.717	43.436	0	1279.80	0	2.9220	0	37.4260	8	29.840	0	1265.702	0	17.0	4	5.4	4	-1E+10	1	-1E+10	1	-1E+10	1	-1E+10	1	-1E+10	1	-1E+10	1
4901784	205	C	02/13/2021	10:50	-134.717	43.436	0	1284.70	0	2.9170	0	37.4270	8	29.842	0	1270.533	0	17.2	4	5.4	4	-1E+10	1	-1E+10	1	-1E+10	1	-1E+10	1	-1E+10	1	-1E+10	1
4901784	205	C	02/13/2021	10:50	-134.717	43.436	0	1289.70	0	2.9090	0	37.4280	8	29.843	0	1275.463	0	17.3	4	5.5	4	-1E+10	1	-1E+10	1	-1E+10	1	-1E+10	1	-1E+10	1	-1E+10	1
4901784	205	C	02/13/2021	10:50	-134.717	43.436	0	1294.60	0	2.9020	0	37.4300	8	29.846	0	1280.294	0	17.5	4	5.5	4	-1E+10	1	-1E+10	1	-1E+10	1	-1E+10	1	-1E+10	1	-1E+10	1
4901784	205	C	02/13/2021	10:50	-134.717	43.436	0	1299.70	0	2.8910	0	37.4310	8	29.847	0	1285.322	0	17.7	4	5.6	4	-1E+10	1	-1E+10	1	-1E+10	1	-1E+10	1	-1E+10	1	-1E+10	1
4901784	205	C	02/13/2021	10:50	-134.717	43.436	0	1304.80	0	2.8710	0	37.4350	8	29.853	0	1290.350	0	17.9	4	5.6	4	-1E+10	1	-1E+10	1	-1E+10	1	-1E+10	1	-1E+10	1	-1E+10	1
4901784	205	C	02/13/2021	10:50	-134.717	43.436	0	1310.00	0	2.8610	0	37.4370	8	29.855	0	1295.476	0	18.0	4	5.7	4	-1E+10	1	-1E+10	1	-1E+10	1	-1E+10	1	-1E+10	1	-1E+10	1
4901784	205	C	02/13/2021	10:50	-134.717	43.436	0	1315.20	0	2.8540	0	37.4380	8	29.857	0	1300.603	0	18.2	4	5.7	4	-1E+10	1	-1E+10	1	-1E+10	1	-1E+10	1	-1E+10	1	-1E+10	1
4901784	205	C	02/13/2021	10:50	-134.717	43.436	0	1320.50	0	2.8470	0	37.4400	8	29.859	0	1305.827	0	18.3	4	5.8	4	-1E+10	1	-1E+10	1	-1E+10	1	-1E+10	1	-1E+10	1	-1E+10	1
4901784	205	C	02/13/2021	10:50	-134.717	43.436	0	1325.70	0	2.8430	0	37.4400	8	29.859	0	1310.953	0	18.5	4	5.8	4	-1E+10	1	-1E+10	1	-1E+10	1	-1E+10	1	-1E+10	1	-1E+10	1
4901784	205	C	02/13/2021	10:50	-134.717	43.436	0	1330.10	0	2.8370	0	37.4410	8	29.861	0	1315.291	0	18.6	4	5.9	4	-1E+10	1	-1E+10	1	-1E+10	1	-1E+10	1	-1E+10	1	-1E+10	1
4901784	205	C	02/13/2021	10:50	-134.717	43.436	0	1334.50	0	2.8240	0	37.4440	8	29.865	0	1319.628	0	18.8	4	5.9	4	-1E+10	1	-1E+10	1	-1E+10	1	-1E+10	1	-1E+10	1	-1E+10	1
4901784	205	C	02/13/2021	10:50	-134.717	43.436	0	1339.80	0	2.8150	0	37.4450	8	29.866	0	1324.852	0	19.0	4	6.0	4	-1E+10	1	-1E+10	1	-1E+10	1	-1E+10	1	-1E+10	1	-1E+10	1
4901784	205	C	02/13/2021	10:50	-134.717	43.436	0	1345.30	0	2.8030	0	37.4470	8	29.869	0	1330.274	0	19.2	4	6.0	4	-1E+10	1	-1E+10	1	-1E+10	1	-1E+10	1	-1E+10	1	-1E+10	1
4901784	205	C	02/13/2021	10:50	-134.717	43.436	0	1349.90	0	2.7940	0	37.4480	8	29.871	0	1334.808	0	19.3	4	6.1	4	-1E+10	1	-1E+10	1	-1E+10	1	-1E+10	1	-1E+10	1	-1E+10	1
4901784	205	C	02/13/2021	10:50	-134.717	43.436	0	1354.40	0	2.7840	0	37.4500	8	29.873	0	1339.243	0	19.5	4	6.1	4	-1E+10	1	-1E+10	1	-1E+10	1	-1E+10	1	-1E+10	1	-1E+10	1
4901784	205	C	02/13/2021	10:50	-134.717	43.436	0	1359.90	0	2.7750	0	37.4510	8	29.875	0	1344.664	0	19.7	4	6.2	4	-1E+10	1	-1E+10	1	-1E+10	1	-1E+10	1	-1E+10	1	-1E+10	1
4901784	205	C	02/13/2021	10:50	-134.717	43.436	0	1365.50	0	2.7640	0	37.4530	8	29.878	0	1350.183	0	19.9	4	6.2	4	-1E+10	1	-1E+10	1	-1E+10	1	-1E+10	1	-1E+10	1	-1E+10	1
4901784	205	C	02/13/2021	10:50	-134.717	43.436	0	1370.10	0	2.7600	0	37.4540	8	29.879	0	1354.717	0	20.1	4	6.3	4	-1E+10	1	-1E+10	1	-1E+10	1	-1E+10	1	-1E+10	1	-1E+10	1
4901784	205	C	02/13/2021	10:50	-134.717	43.436	0	1375.40	0	2.7510	0	37.4560	8	29.881	0	1359.940	0	20.3	4	6.4	4	-1E+10	1	-1E+10	1	-1E+10	1	-1E+10	1	-1E+10	1	-1E+10	1
4901784	205	C	02/13/2021	10:50	-134.717	43.436	0	1380.40	0	2.7410	0	37.4570	8	29.883	0	1364.868	0	20.6	4	6.5	4	-1E+10	1	-1E+10	1	-1E+10	1	-1E+10	1	-1E+10	1	-1E+10	1
4901784	205	C	02/13/2021	10:50	-134.717	43.436	0	1385.20	0	2.7260	0	37.4600	8	29.887	0	1369.598	0	20.8	4	6.5	4	-1E+10	1	-1E+10	1	-1E+10	1	-1E+10	1	-1E+10	1	-1E+10	1
4901784	205	C	02/13/2021	10:50	-134.717	43.436	0	1390.00	0	2.7190	0	37.4620	8	29.889	0	1374.329	0	21.0	4	6.6	4	-1E+10	1	-1E+10	1	-1E+10	1	-1E+10	1	-1E+10	1	-1E+10	1
4901784	205	C	02/13/2021	10:50	-134.717	43.436	0	1394.90	0	2.7130	0	37.4630	8	29.891	0	1379.158	0	21.2	4	6.7	4	-1E+10	1	-1E+10	1	-1E+10	1	-1E+10	1	-1E+10	1	-1E+10	1
4901784	205	C	02/13/2021	10:50	-134.717	43.436	0	1399.80	0	2.7070	0	37.4640	8	29.892	0	1383.986	0	21.4	4	6.7	4	-1E+10	1	-1E+10	1	-1E+10	1	-1E+10	1	-1E+10	1	-1E+10	1
4901784	205	C	02/13/2021	10:50	-134.717	43.436	0	1404.70	0	2.6950	0	37.4660	8	29.895	0	1388.815	0	21.7	4	6.8	4	-1E+10	1	-1E+10	1	-1E+10	1	-1E+10	1	-1E+10	1	-1E+10	1
4901784	205	C	02/13/2021	10:50	-134.717	43.436	0	1409.60	0	2.6880	0	37.4680	8	29.897	0	1393.643	0	21.9	4	6.9	4	-1E+10	1	-1E+10	1	-1E+10	1	-1E+10	1	-1E+10	1	-1E+10	1
4901784	205	C	02/13/2021	10:50	-134.717	43.436	0	1414.60	0	2.6860	0	37.4690	8	29.898	0	1398.570	0	22.0	4	6.9	4	-1E+10	1	-1E+10	1	-1E+10	1	-1E+10	1	-1E+10	1	-1E+10	1
4901784	205	C	02/13/2021	10:50	-134.717	43.436	0	1419.60	0	2.6850	0	37.4690	8	29.898	0	1403.497	0	22.1	4	6.9	4	-1E+10	1	-1E+10	1	-1E+10	1	-1E+10	1	-1E+10	1	-1E+10	1
4901784	205	C	02/13/2021	10:50	-134.717	43.436	0	1424.60	0	2.6810	0	37.4700	8	29.900	0	1408.423	0	22.4	4	7.0	4	-1E+10	1	-1E+10	1	-1E+10	1	-1E+10	1	-1E+10	1	-1E+10	1
4901784	205	C	02/13/2021	10:50	-134.717	43.436	0	1429.70	0	2.6710	0	37.4720	8	29.902	0	1413.448	0	22.7	4	7.1	4	-1E+10	1	-1E+10	1	-1E+10	1	-1E+10	1	-1E+10	1	-1E+10	1
4901784	205	C	02/13/2021	10:50	-134.717	43.436	0	1434.70	0	2.6610	0	37.4740	8	29.905	0	1418.375	0	23.1	4	7.2	4	-1E+10	1	-1E+10	1	-1E+10	1	-1E+10	1	-1E+10	1	-1E+10	1
4901784	205	C	02/13/2021	10:50	-134.717	43.436	0	1439.90	0	2.6510	0	37.4760	8	29.907	0	1423.498	0	23.5	4	7.4	4	-1E+10	1	-1E+10	1	-1E+10	1	-1E+10	1	-1E+10	1	-1E+10	1
4901784	205	C	02/13/2021	10:50	-134.717	43.436	0	1445.00	0	2.6430	0	37.4780	8	29.910	0	1428.523	0	23.8	4	7.5	4	-1E+10	1	-1E+10	1	-1E+10	1	-1E+10	1	-1E+10	1	-1E+10	1
4901784	205	C	02/13/2021	10:50	-134.717	43.436	0	1450.20	0	2.6330	0	37.4800	8	29.912	0	1433.646	0	24.1	4	7.5	4	-1E+10	1	-1E+10	1	-1E+10	1	-1E+10	1	-1E+10	1	-1E+10	1
4901784	205	C	02/13/2021	10:50	-134.717	43.436	0	1455.40	0	2.6260	0	37.4810	8	29.914	0	1438.769	0	24.4	4	7.6	4	-1E+10	1	-1E+10	1	-1E+10	1	-1E+10	1	-1E+10	1	-1E+10	1
4901784	205	C	02/13/2021	10:50	-134.717	43.436	0	1460.60	0	2.6180	0	37.4830	8	29.916	0	1443.891	0	24.6	4	7.7	4	-1E+10	1	-1E+10	1	-1E+10	1	-1E+10	1	-1E+10	1	-1E+10	1
4901784	205	C	02/13/2021	10:50	-134.717	43.436	0	1464.90	0	2.6120	0	37.4840	8	29.918	0	1448.128	0	24.8	4	7.8	4	-1E+10	1	-1E+10	1	-1E+10	1	-1E+10	1	-1E+10	1	-1E+10	1
4901784	205	C	02/13/2021	10:50	-134.717	43.436	0	1469.20	0	2.6070	0	37.4850	8	29.919	0	1452.363	0	25.0	4	7.8	4	-1E+10	1	-1E+10	1	-1E+10	1	-1E+10	1	-1E+10	1	-1E+10	1
4901784	205	C	02/13/2021	10:50	-134.717	43.436	0	1474.40	0	2.6000	0	37.4870	8	29.921	0	1457.486	0	25.2	4	7.9	4	-1E+10	1	-1E+10	1	-1E+10	1	-1E+10	1	-1E+10	1	-1E+10	1
4901784	205	C	02/13/2021	10:50	-134.717	43.436	0	1479.60	0	2.5940	0	37.4880	8	29.923	0	1462.608	0	25.3	4	7.9	4	-1E+10	1	-1E+10	1	-1E+10	1	-1E+10	1	-1E+10	1	-1E+10	1
4901784	205	C	02/13/2021	10:50	-134.717	43.436	0	1484.80	0	2.5890	0	37.4880	8	29.923	0	1467.731	0	25.6	4	8.0	4	-1E+10	1	-1E+10	1	-1E+10	1	-1E+10	1	-1E+10	1	-1E+10	1
4901784	205	C	02/13/2021	10:50	-134.717	43.436	0	1490.00	0	2.5780	0	37.4900	8	29.926	0	1472.853	0	25.8	4	8.1	4	-1E+10	1	-1E+10	1	-1E+10	1	-1E+10	1	-1E+10	1	-1E+10	1
4901784	205	C	02/13/2021	10:50	-134.717	43.436	0	1495.20	0	2.5690	0	37.4920	8	29.928	0	1477.975	0	26.0	4	8.1	4	-1E+10	1	-1E+10	1	-1E+10	1	-1E+10	1	-1E+10	1	-1E+10	1
4901784	205	C	02/13/2021	10:50	-134.717	43.436	0	1500.50	0	2.5640	0	37.4930	8	29.929	0	1483.195	0	26.2	4	8.2	4	-1E+10	1	-1E+10	1	-1E+10	1	-1E+10	1	-1E+10	1	-1E+10	1
4901784	205	C	02/13/2021	10:50	-134.717	43.436	0	1505.70	0	2.5570	0	37.4950	8	29.932	0	1488.317	0	26.4	4	8.2	4	-1E+10	1	-1E+10	1	-1E+10	1	-1E+10	1	-1E+10	1	-1E+10	1
4901784	205	C	02/13/2021	10:50	-134.717	43.436	0	1510.10	0	2.5560	0	37.4950	8	29.932	0	1492.650	0	26.5	4	8.3	4	-1E+10	1	-1E+10	1	-1E+10	1	-1E+10	1	-1E+10	1	-1E+10	1
4901784	205	C	02/13/2021	10:50	-134.717	43.436	0	1514.40	0	2.5510	0	37.4960	8	29.933	0	1496.886	0	26.7	4	8.3	4	-1E+10	1	-1E+10	1	-1E+10	1	-1E+10	1	-1E+10	1	-1E+10	1
4901784	205	C	02/13/2021	10:50	-134.717	43.436	0	1519.70	0	2.5420	0	37.4980	8	29.936	0	1502.105	0	26.9	4	8.4	4	-1E+10	1	-1E+10	1	-1E+10	1	-1E+10	1	-1E+10	1	-1E+10	1
4901784	205	C	02/13/2021	10:50	-134.717	43.436	0	1524.90	0	2.5370	0	37.4990	8	29.937	0	1507.227	0	27.2	4	8.5	4	-1E+10	1	-1E+10	1	-1E+10	1	-1E+10	1	-1E+10	1	-1E+10	1
4901784	205	C	02/13/2021	10:50	-134.717	43.436	0	1530.20	0	2.5270	0	37.5000	8	29.939	0	1512.446	0	27.6	4	8.6	4	-1E+10	1	-1E+10	1	-1E+10	1	-1E+10	1	-1E+10	1	-1E+10	1
4901784	205	C	02/13/2021	10:50	-134.717	43.436	0	1535.50	0	2.5190	0	37.5020	8	29.941	0	1517.666	0	27.9	4	8.7	4	-1E+10	1	-1E+10	1	-1E+10	1	-1E+10	1	-1E+10	1	-1E+10	1
4901784	205	C	02/13/2021	10:50	-134.717	43.436	0	1539.90	0	2.5110	0	37.5030	8	29.943	0	1521.999	0	28.2	4	8.8	4	-1E+10	1	-1E+10	1	-1E+10	1	-1E+10	1	-1E+10	1	-1E+10	1
4901784	205	C	02/13/2021	10:50	-134.717	43.436	0	1544.40	0	2.5020	0	37.5050	8	29.945	0	1526.430	0	28.5	4	8.9	4	-1E+10	1	-1E+10	1	-1E+10	1	-1E+10	1	-1E+10	1	-1E+10	1
4901784	205	C	02/13/2021	10:50	-134.717	43.436	0	1549.70	0	2.4930	0	37.5070	8	29.948	0	1531.649	0	28.8	4	9.0	4	-1E+10	1	-1E+10	1	-1E+10	1	-1E+10	1	-1E+10	1	-1E+10	1
4901784	205	C	02/13/2021	10:50	-134.717	43.436	0	1555.00	0	2.4870	0	37.5080	8	29.949	0	1536.868	0	29.1	4	9.1	4	-1E+10	1	-1E+10	1	-1E+10	1	-1E+10	1	-1E+10	1	-1E+10	1
4901784	205	C	02/13/2021	10:50	-134.717	43.436	0	1560.40	0	2.4810	0	37.5090	8	29.950	0	1542.186	0	29.4	4	9.2	4	-1E+10	1	-1E+10	1	-1E+10	1	-1E+10	1	-1E+10	1	-1E+10	1
4901784	205	C	02/13/2021	10:50	-134.717	43.436	0	1564.90	0	2.4730	0	37.5100	8	29.952	0	1546.617	0	29.7	4	9.3	4	-1E+10	1	-1E+10	1	-1E+10	1	-1E+10	1	-1E+10	1	-1E+10	1
4901784	205	C	02/13/2021	10:50	-134.717	43.436	0	1569.30	0	2.4640	0	37.5120	8	29.954	0	1550.949	0	30.0	4	9.4	4	-1E+10	1	-1E+10	1	-1E+10	1	-1E+10	1	-1E+10	1	-1E+10	1
4901784	205	C	02/13/2021	10:50	-134.717	43.436	0	1574.70	0	2.4520	0	37.5140	8	29.957	0	1556.266	0	30.3	4	9.5	4	-1E+10	1	-1E+10	1	-1E+10	1	-1E+10	1	-1E+10	1	-1E+10	1
4901784	205	C	02/13/2021	10:50	-134.717	43.436	0	1580.20	0	2.4470	0	37.5150	8	29.958	0	1561.682	0	30.5	4	9.5	4	-1E+10	1	-1E+10	1	-1E+10	1	-1E+10	1	-1E+10	1	-1E+10	1
4901784	205	C	02/13/2021	10:50	-134.717	43.436	0	1585.60	0	2.4420	0	37.5160	8	29.960	0	1566.998	0	30.7	4	9.6	4	-1E+10	1	-1E+10	1	-1E+10	1	-1E+10	1	-1E+10	1	-1E+10	1
4901784	205	C	02/13/2021	10:50	-134.717	43.436	0	1590.20	0	2.4370	0	37.5170	8	29.961	0	1571.527	0	31.0	4	9.6	4	-1E+10	1	-1E+10	1	-1E+10	1	-1E+10	1	-1E+10	1	-1E+10	1
4901784	205	C	02/13/2021	10:50	-134.717	43.436	0	1594.80	0	2.4330	0	37.5170	8	29.961	0	1576.056	0	31.2	4	9.7	4	-1E+10	1	-1E+10	1	-1E+10	1	-1E+10	1	-1E+10	1	-1E+10	1
4901784	205	C	02/13/2021	10:50	-134.717	43.436	0	1600.30	0	2.4170	0	37.5190	8	29.965	0	1581.471	0	31.7	4	9.9	4	-1E+10	1	-1E+10	1	-1E+10	1	-1E+10	1	-1E+10	1	-1E+10	1
4901784	205	C	02/13/2021	10:50	-134.717	43.436	0	1605.30	0	2.4060	0	37.5220	8	29.968	0	1586.394	0	32.1	4	10.0	4	-1E+10	1	-1E+10	1	-1E+10	1	-1E+10	1	-1E+10	1	-1E+10	1
4901784	205	C	02/13/2021	10:50	-134.717	43.436	0	1609.50	0	2.4010	0	37.5230	8	29.969	0	1590.528	0	32.3	4	10.1	4	-1E+10	1	-1E+10	1	-1E+10	1	-1E+10	1	-1E+10	1	-1E+10	1
4901784	205	C	02/13/2021	10:50	-134.717	43.436	0	1615.00	0	2.3900	0	37.5240	8	29.971	0	1595.943	0	32.8	4	10.2	4	-1E+10	1	-1E+10	1	-1E+10	1	-1E+10	1	-1E+10	1	-1E+10	1
4901784	205	C	02/13/2021	10:50	-134.717	43.436	0	1620.60	0	2.3770	0	37.5260	8	29.974	0	1601.456	0	33.3	4	10.4	4	-1E+10	1	-1E+10	1	-1E+10	1	-1E+10	1	-1E+10	1	-1E+10	1
4901784	205	C	02/13/2021	10:50	-134.717	43.436	0	1625.40	0	2.3660	0	37.5280	8	29.976	0	1606.181	0	33.7	4	10.5	4	-1E+10	1	-1E+10	1	-1E+10	1	-1E+10	1	-1E+10	1	-1E+10	1
4901784	205	C	02/13/2021	10:50	-134.717	43.436	0	1630.30	0	2.3560	0	37.5290	8	29.978	0	1611.004	0	34.0	4	10.6	4	-1E+10	1	-1E+10	1	-1E+10	1	-1E+10	1	-1E+10	1	-1E+10	1
4901784	205	C	02/13/2021	10:50	-134.717	43.436	0	1635.10	0	2.3490	0	37.5310	8	29.980	0	1615.729	0	34.4	4	10.7	4	-1E+10	1	-1E+10	1	-1E+10	1	-1E+10	1	-1E+10	1	-1E+10	1
4901784	205	C	02/13/2021	10:50	-134.717	43.436	0	1640.00	0	2.3420	0	37.5330	8	29.983	0	1620.552	0	34.7	4	10.8	4	-1E+10	1	-1E+10	1	-1E+10	1	-1E+10	1	-1E+10	1	-1E+10	1
4901784	205	C	02/13/2021	10:50	-134.717	43.436	0	1645.00	0	2.3380	0	37.5330	8	29.983	0	1625.474	0	35.0	4	10.9	4	-1E+10	1	-1E+10	1	-1E+10	1	-1E+10	1	-1E+10	1	-1E+10	1
4901784	205	C	02/13/2021	10:50	-134.717	43.436	0	1650.10	0	2.3290	0	37.5350	8	29.986	0	1630.494	0	35.3	4	11.0	4	-1E+10	1	-1E+10	1	-1E+10	1	-1E+10	1	-1E+10	1	-1E+10	1
4901784	205	C	02/13/2021	10:50	-134.717	43.436	0	1655.20	0	2.3250	0	37.5370	8	29.988	0	1635.513	0	35.6	4	11.1	4	-1E+10	1	-1E+10	1	-1E+10	1	-1E+10	1	-1E+10	1	-1E+10	1
4901784	205	C	02/13/2021	10:50	-134.717	43.436	0	1660.20	0	2.3220	0	37.5380	8	29.989	0	1640.434	0	35.9	4	11.2	4	-1E+10	1	-1E+10	1	-1E+10	1	-1E+10	1	-1E+10	1	-1E+10	1
4901784	205	C	02/13/2021	10:50	-134.717	43.436	0	1665.30	0	2.3170	0	37.5390	8	29.990	0	1645.454	0	36.2	4	11.2	4	-1E+10	1	-1E+10	1	-1E+10	1	-1E+10	1	-1E+10	1	-1E+10	1
4901784	205	C	02/13/2021	10:50	-134.717	43.436	0	1670.40	0	2.3050	0	37.5390	8	29.991	0	1650.473	0	36.4	4	11.3	4	-1E+10	1	-1E+10	1	-1E+10	1	-1E+10	1	-1E+10	1	-1E+10	1
4901784	205	C	02/13/2021	10:50	-134.717	43.436	0	1675.60	0	2.3000	0	37.5410	8	29.993	0	1655.591	0	36.8	4	11.4	4	-1E+10	1	-1E+10	1	-1E+10	1	-1E+10	1	-1E+10	1	-1E+10	1
4901784	205	C	02/13/2021	10:50	-134.717	43.436	0	1680.70	0	2.2930	0	37.5420	8	29.995	0	1660.610	0	37.2	4	11.6	4	-1E+10	1	-1E+10	1	-1E+10	1	-1E+10	1	-1E+10	1	-1E+10	1
4901784	205	C	02/13/2021	10:50	-134.717	43.436	0	1685.00	0	2.2840	0	37.5430	8	29.996	0	1664.842	0	37.4	4	11.6	4	-1E+10	1	-1E+10	1	-1E+10	1	-1E+10	1	-1E+10	1	-1E+10	1
4901784	205	C	02/13/2021	10:50	-134.717	43.436	0	1689.30	0	2.2760	0	37.5450	8	29.999	0	1669.074	0	37.6	4	11.7	4	-1E+10	1	-1E+10	1	-1E+10	1	-1E+10	1	-1E+10	1	-1E+10	1
4901784	205	C	02/13/2021	10:50	-134.717	43.436	0	1694.60	0	2.2730	0	37.5450	8	29.999	0	1674.289	0	37.8	4	11.7	4	-1E+10	1	-1E+10	1	-1E+10	1	-1E+10	1	-1E+10	1	-1E+10	1
4901784	205	C	02/13/2021	10:50	-134.717	43.436	0	1699.80	0	2.2670	0	37.5460	8	30.000	0	1679.406	0	38.2	4	11.8	4	-1E+10	1	-1E+10	1	-1E+10	1	-1E+10	1	-1E+10	1	-1E+10	1
4901784	205	C	02/13/2021	10:50	-134.717	43.436	0	1705.00	0	2.2620	0	37.5470	8	30.002	0	1684.523	0	38.5	4	12.0	4	-1E+10	1	-1E+10	1	-1E+10	1	-1E+10	1	-1E+10	1	-1E+10	1
4901784	205	C	02/13/2021	10:50	-134.717	43.436	0	1710.30	0	2.2560	0	37.5490	8	30.004	0	1689.739	0	38.9	4	12.1	4	-1E+10	1	-1E+10	1	-1E+10	1	-1E+10	1	-1E+10	1	-1E+10	1
4901784	205	C	02/13/2021	10:50	-134.717	43.436	0	1715.70	0	2.2480	0	37.5490	8	30.005	0	1695.052	0	39.3	4	12.2	4	-1E+10	1	-1E+10	1	-1E+10	1	-1E+10	1	-1E+10	1	-1E+10	1
4901784	205	C	02/13/2021	10:50	-134.717	43.436	0	1720.10	0	2.2320	0	37.5520	8	30.008	0	1699.381	0	39.6	4	12.3	4	-1E+10	1	-1E+10	1	-1E+10	1	-1E+10	1	-1E+10	1	-1E+10	1
4901784	205	C	02/13/2021	10:50	-134.717	43.436	0	1724.50	0	2.2260	0	37.5520	8	30.009	0	1703.711	0	39.7	4	12.3	4	-1E+10	1	-1E+10	1	-1E+10	1	-1E+10	1	-1E+10	1	-1E+10	1
4901784	205	C	02/13/2021	10:50	-134.717	43.436	0	1729.90	0	2.2230	0	37.5530	8	30.010	0	1709.024	0	39.8	4	12.4	4	-1E+10	1	-1E+10	1	-1E+10	1	-1E+10	1	-1E+10	1	-1E+10	1
4901784	205	C	02/13/2021	10:50	-134.717	43.436	0	1735.20	0	2.2210	0	37.5530	8	30.010	0	1714.239	0	40.0	4	12.4	4	-1E+10	1	-1E+10	1	-1E+10	1	-1E+10	1	-1E+10	1	-1E+10	1
4901784	205	C	02/13/2021	10:50	-134.717	43.436	0	1740.60	0	2.2170	0	37.5540	8	30.011	0	1719.551	0	40.3	4	12.5	4	-1E+10	1	-1E+10	1	-1E+10	1	-1E+10	1	-1E+10	1	-1E+10	1
4901784	205	C	02/13/2021	10:50	-134.717	43.436	0	1745.10	0	2.2120	0	37.5550	8	30.013	0	1723.979	0	40.7	4	12.6	4	-1E+10	1	-1E+10	1	-1E+10	1	-1E+10	1	-1E+10	1	-1E+10	1
4901784	205	C	02/13/2021	10:50	-134.717	43.436	0	1749.70	0	2.2050	0	37.5560	8	30.014	0	1728.504	0	41.1	4	12.7	4	-1E+10	1	-1E+10	1	-1E+10	1	-1E+10	1	-1E+10	1	-1E+10	1
4901784	205	C	02/13/2021	10:50	-134.717	43.436	0	1755.20	0	2.1960	0	37.5580	8	30.017	0	1733.915	0	41.5	4	12.9	4	-1E+10	1	-1E+10	1	-1E+10	1	-1E+10	1	-1E+10	1	-1E+10	1
4901784	205	C	02/13/2021	10:50	-134.717	43.436	0	1760.60	0	2.1890	0	37.5590	8	30.018	0	1739.228	0	41.8	4	13.0	4	-1E+10	1	-1E+10	1	-1E+10	1	-1E+10	1	-1E+10	1	-1E+10	1
4901784	205	C	02/13/2021	10:50	-134.717	43.436	0	1765.20	0	2.1840	0	37.5610	8	30.020	0	1743.753	0	42.0	4	13.0	4	-1E+10	1	-1E+10	1	-1E+10	1	-1E+10	1	-1E+10	1	-1E+10	1
4901784	205	C	02/13/2021	10:50	-134.717	43.436	0	1770.30	0	2.1810	0	37.5610	8	30.020	0	1748.770	0	42.2	4	13.1	4	-1E+10	1	-1E+10	1	-1E+10	1	-1E+10	1	-1E+10	1	-1E+10	1
4901784	205	C	02/13/2021	10:50	-134.717	43.436	0	1775.40	0	2.1770	0	37.5630	8	30.022	0	1753.787	0	42.5	4	13.2	4	-1E+10	1	-1E+10	1	-1E+10	1	-1E+10	1	-1E+10	1	-1E+10	1
4901784	205	C	02/13/2021	10:50	-134.717	43.436	0	1780.20	0	2.1740	0	37.5630	8	30.023	0	1758.509	0	42.8	4	13.3	4	-1E+10	1	-1E+10	1	-1E+10	1	-1E+10	1	-1E+10	1	-1E+10	1
4901784	205	C	02/13/2021	10:50	-134.717	43.436	0	1785.10	0	2.1700	0	37.5650	8	30.025	0	1763.329	0	43.1	4	13.3	4	-1E+10	1	-1E+10	1	-1E+10	1	-1E+10	1	-1E+10	1	-1E+10	1
4901784	205	C	02/13/2021	10:50	-134.717	43.436	0	1790.00	0	2.1660	0	37.5650	8	30.025	0	1768.148	0	43.2	4	13.4	4	-1E+10	1	-1E+10	1	-1E+10	1	-1E+10	1	-1E+10	1	-1E+10	1
4901784	205	C	02/13/2021	10:50	-134.717	43.436	0	1794.90	0	2.1590	0	37.5660	8	30.027	0	1772.968	0	43.4	4	13.4	4	-1E+10	1	-1E+10	1	-1E+10	1	-1E+10	1	-1E+10	1	-1E+10	1
4901784	205	C	02/13/2021	10:50	-134.717	43.436	0	1799.80	0	2.1550	0	37.5670	8	30.028	0	1777.788	0	43.7	4	13.5	4	-1E+10	1	-1E+10	1	-1E+10	1	-1E+10	1	-1E+10	1	-1E+10	1
4901784	205	C	02/13/2021	10:50	-134.717	43.436	0	1804.70	0	2.1490	0	37.5680	8	30.029	0	1782.607	0	44.2	4	13.7	4	-1E+10	1	-1E+10	1	-1E+10	1	-1E+10	1	-1E+10	1	-1E+10	1
4901784	205	C	02/13/2021	10:50	-134.717	43.436	0	1809.70	0	2.1420	0	37.5690	8	30.031	0	1787.525	0	44.6	4	13.8	4	-1E+10	1	-1E+10	1	-1E+10	1	-1E+10	1	-1E+10	1	-1E+10	1
4901784	205	C	02/13/2021	10:50	-134.717	43.436	0	1814.70	0	2.1380	0	37.5710	8	30.033	0	1792.443	0	45.0	4	13.9	4	-1E+10	1	-1E+10	1	-1E+10	1	-1E+10	1	-1E+10	1	-1E+10	1
4901784	205	C	02/13/2021	10:50	-134.717	43.436	0	1819.80	0	2.1320	0	37.5730	8	30.035	0	1797.459	0	45.4	4	14.1	4	-1E+10	1	-1E+10	1	-1E+10	1	-1E+10	1	-1E+10	1	-1E+10	1
4901784	205	C	02/13/2021	10:50	-134.717	43.436	0	1824.80	0	2.1280	0	37.5740	8	30.036	0	1802.376	0	45.8	4	14.2	4	-1E+10	1	-1E+10	1	-1E+10	1	-1E+10	1	-1E+10	1	-1E+10	1
4901784	205	C	02/13/2021	10:50	-134.717	43.436	0	1829.80	0	2.1200	0	37.5760	8	30.038	0	1807.293	0	46.2	4	14.3	4	-1E+10	1	-1E+10	1	-1E+10	1	-1E+10	1	-1E+10	1	-1E+10	1
4901784	205	C	02/13/2021	10:50	-134.717	43.436	0	1834.90	0	2.1140	0	37.5770	8	30.040	0	1812.309	0	46.5	4	14.4	4	-1E+10	1	-1E+10	1	-1E+10	1	-1E+10	1	-1E+10	1	-1E+10	1
4901784	205	C	02/13/2021	10:50	-134.717	43.436	0	1839.90	0	2.1120	0	37.5770	8	30.040	0	1817.226	0	46.8	4	14.5	4	-1E+10	1	-1E+10	1	-1E+10	1	-1E+10	1	-1E+10	1	-1E+10	1
4901784	205	C	02/13/2021	10:50	-134.717	43.436	0	1844.90	0	2.1040	0	37.5780	8	30.041	0	1822.143	0	47.2	4	14.6	4	-1E+10	1	-1E+10	1	-1E+10	1	-1E+10	1	-1E+10	1	-1E+10	1
4901784	205	C	02/13/2021	10:50	-134.717	43.436	0	1850.10	0	2.0940	0	37.5800	8	30.044	0	1827.257	0	47.6	4	14.7	4	-1E+10	1	-1E+10	1	-1E+10	1	-1E+10	1	-1E+10	1	-1E+10	1
4901784	205	C	02/13/2021	10:50	-134.717	43.436	0	1855.20	0	2.0880	0	37.5810	8	30.045	0	1832.272	0	47.8	4	14.8	4	-1E+10	1	-1E+10	1	-1E+10	1	-1E+10	1	-1E+10	1	-1E+10	1
4901784	205	C	02/13/2021	10:50	-134.717	43.436	0	1860.40	0	2.0790	0	37.5820	8	30.047	0	1837.385	0	48.1	4	14.9	4	-1E+10	1	-1E+10	1	-1E+10	1	-1E+10	1	-1E+10	1	-1E+10	1
4901784	205	C	02/13/2021	10:50	-134.717	43.436	0	1865.60	0	2.0720	0	37.5830	8	30.048	0	1842.498	0	48.2	4	14.9	4	-1E+10	1	-1E+10	1	-1E+10	1	-1E+10	1	-1E+10	1	-1E+10	1
4901784	205	C	02/13/2021	10:50	-134.717	43.436	0	1869.90	0	2.0700	0	37.5840	8	30.049	0	1846.726	0	48.5	4	15.0	4	-1E+10	1	-1E+10	1	-1E+10	1	-1E+10	1	-1E+10	1	-1E+10	1
4901784	205	C	02/13/2021	10:50	-134.717	43.436	0	1874.30	0	2.0680	0	37.5840	8	30.049	0	1851.053	0	48.6	4	15.0	4	-1E+10	1	-1E+10	1	-1E+10	1	-1E+10	1	-1E+10	1	-1E+10	1
4901784	205	C	02/13/2021	10:50	-134.717	43.436	0	1879.60	0	2.0620	0	37.5850	8	30.051	0	1856.264	0	48.9	4	15.1	4	-1E+10	1	-1E+10	1	-1E+10	1	-1E+10	1	-1E+10	1	-1E+10	1
4901784	205	C	02/13/2021	10:50	-134.717	43.436	0	1884.90	0	2.0570	0	37.5860	8	30.052	0	1861.475	0	49.2	4	15.2	4	-1E+10	1	-1E+10	1	-1E+10	1	-1E+10	1	-1E+10	1	-1E+10	1
4901784	205	C	02/13/2021	10:50	-134.717	43.436	0	1890.20	0	2.0520	0	37.5870	8	30.053	0	1866.685	0	49.5	4	15.3	4	-1E+10	1	-1E+10	1	-1E+10	1	-1E+10	1	-1E+10	1	-1E+10	1
4901784	205	C	02/13/2021	10:50	-134.717	43.436	0	1895.50	0	2.0480	0	37.5880	8	30.055	0	1871.896	0	49.8	4	15.4	4	-1E+10	1	-1E+10	1	-1E+10	1	-1E+10	1	-1E+10	1	-1E+10	1
4901784	205	C	02/13/2021	10:50	-134.717	43.436	0	1900.00	0	2.0430	0	37.5890	8	30.056	0	1876.320	0	50.0	4	15.4	4	-1E+10	1	-1E+10	1	-1E+10	1	-1E+10	1	-1E+10	1	-1E+10	1
4901784	205	C	02/13/2021	10:50	-134.717	43.436	0	1904.50	0	2.0410	0	37.5890	8	30.056	0	1880.744	0	50.2	4	15.5	4	-1E+10	1	-1E+10	1	-1E+10	1	-1E+10	1	-1E+10	1	-1E+10	1
4901784	205	C	02/13/2021	10:50	-134.717	43.436	0	1909.90	0	2.0350	0	37.5900	8	30.057	0	1886.053	0	50.4	4	15.6	4	-1E+10	1	-1E+10	1	-1E+10	1	-1E+10	1	-1E+10	1	-1E+10	1
4901784	205	C	02/13/2021	10:50	-134.717	43.436	0	1915.40	0	2.0310	0	37.5910	8	30.059	0	1891.460	0	50.6	4	15.6	4	-1E+10	1	-1E+10	1	-1E+10	1	-1E+10	1	-1E+10	1	-1E+10	1
4901784	205	C	02/13/2021	10:50	-134.717	43.436	0	1919.90	0	2.0270	0	37.5920	8	30.060	0	1895.884	0	50.9	4	15.7	4	-1E+10	1	-1E+10	1	-1E+10	1	-1E+10	1	-1E+10	1	-1E+10	1
4901784	205	C	02/13/2021	10:50	-134.717	43.436	0	1925.30	0	2.0230	0	37.5920	8	30.060	0	1901.192	0	51.2	4	15.8	4	-1E+10	1	-1E+10	1	-1E+10	1	-1E+10	1	-1E+10	1	-1E+10	1
4901784	205	C	02/13/2021	10:50	-134.717	43.436	0	1930.40	0	2.0190	0	37.5930	8	30.061	0	1906.206	0	51.5	4	15.9	4	-1E+10	1	-1E+10	1	-1E+10	1	-1E+10	1	-1E+10	1	-1E+10	1
4901784	205	C	02/13/2021	10:50	-134.717	43.436	0	1935.30	0	2.0170	0	37.5940	8	30.062	0	1911.022	0	51.8	4	16.0	4	-1E+10	1	-1E+10	1	-1E+10	1	-1E+10	1	-1E+10	1	-1E+10	1
4901784	205	C	02/13/2021	10:50	-134.717	43.436	0	1940.20	0	2.0080	0	37.5950	8	30.064	0	1915.839	0	52.3	4	16.1	4	-1E+10	1	-1E+10	1	-1E+10	1	-1E+10	1	-1E+10	1	-1E+10	1
4901784	205	C	02/13/2021	10:50	-134.717	43.436	0	1945.10	0	2.0050	0	37.5960	8	30.065	0	1920.655	0	52.5	4	16.2	4	-1E+10	1	-1E+10	1	-1E+10	1	-1E+10	1	-1E+10	1	-1E+10	1
4901784	205	C	02/13/2021	10:50	-134.717	43.436	0	1950.10	0	1.9990	0	37.5970	8	30.066	0	1925.570	0	52.9	4	16.3	4	-1E+10	1	-1E+10	1	-1E+10	1	-1E+10	1	-1E+10	1	-1E+10	1
4901784	205	C	02/13/2021	10:50	-134.717	43.436	0	1955.10	0	1.9950	0	37.5980	8	30.068	0	1930.484	0	53.2	4	16.4	4	-1E+10	1	-1E+10	1	-1E+10	1	-1E+10	1	-1E+10	1	-1E+10	1
4901784	205	C	02/13/2021	10:50	-134.717	43.436	0	1960.20	0	1.9890	0	37.6000	8	30.070	0	1935.497	0	53.6	4	16.5	4	-1E+10	1	-1E+10	1	-1E+10	1	-1E+10	1	-1E+10	1	-1E+10	1
4901784	205	C	02/13/2021	10:50	-134.717	43.436	0	1965.20	0	1.9860	0	37.6000	8	30.070	0	1940.411	0	53.9	4	16.6	4	-1E+10	1	-1E+10	1	-1E+10	1	-1E+10	1	-1E+10	1	-1E+10	1
4901784	205	C	02/13/2021	10:50	-134.717	43.436	0	1970.30	0	1.9830	0	37.6010	8	30.071	0	1945.423	0	54.2	4	16.7	4	-1E+10	1	-1E+10	1	-1E+10	1	-1E+10	1	-1E+10	1	-1E+10	1
4901784	205	C	02/13/2021	10:50	-134.717	43.436	0	1975.40	0	1.9790	0	37.6020	8	30.072	0	1950.436	0	54.6	4	16.8	4	-1E+10	1	-1E+10	1	-1E+10	1	-1E+10	1	-1E+10	1	-1E+10	1
4901784	205	C	02/13/2021	10:50	-134.717	43.436	0	1980.60	0	1.9740	0	37.6030	8	30.074	0	1955.546	0	55.0	4	17.0	4	-1E+10	1	-1E+10	1	-1E+10	1	-1E+10	1	-1E+10	1	-1E+10	1
4901784	205	C	02/13/2021	10:50	-134.717	43.436	0	1984.90	0	1.9710	0	37.6040	8	30.075	0	1959.772	0	55.3	4	17.0	4	-1E+10	1	-1E+10	1	-1E+10	1	-1E+10	1	-1E+10	1	-1E+10	1
4901784	205	C	02/13/2021	10:50	-134.717	43.436	0	1989.20	0	1.9660	0	37.6050	8	30.076	0	1963.998	0	55.5	4	17.1	4	-1E+10	1	-1E+10	1	-1E+10	1	-1E+10	1	-1E+10	1	-1E+10	1
4901784	205	C	02/13/2021	10:50	-134.717	43.436	0	1994.50	0	1.9630	0	37.6060	8	30.077	0	1969.206	0	55.8	4	17.2	4	-1E+10	1	-1E+10	1	-1E+10	1	-1E+10	1	-1E+10	1	-1E+10	1
4901784	205	C	02/13/2021	10:50	-134.717	43.436	0	1999.70	0	1.9600	0	37.6060	8	30.077	0	1974.316	0	56.0	4	17.3	4	-1E+10	1	-1E+10	1	-1E+10	1	-1E+10	1	-1E+10	1	-1E+10	1
4901784	205	C	02/13/2021	10:50	-134.717	43.436	0	2005.00	0	1.9570	0	37.6070	8	30.078	0	1979.524	0	56.2	4	17.3	4	-1E+10	1	-1E+10	1	-1E+10	1	-1E+10	1	-1E+10	1	-1E+10	1
4901784	205	C	02/13/2021	10:50	-134.717	43.436	0	2010.10	0	1.9540	0	37.6080	8	30.079	0	1984.536	0	56.4	4	17.4	4	-1E+10	1	-1E+10	1	-1E+10	1	-1E+10	1	-1E+10	1	-1E+10	1
4901784	205	C	02/13/2021	10:50	-134.717	43.436	0	2015.30	0	1.9510	0	37.6090	8	30.081	0	1989.645	0	56.6	4	17.5	4	-1E+10	1	-1E+10	1	-1E+10	1	-1E+10	1	-1E+10	1	-1E+10	1
4901784	205	C	02/13/2021	10:50	-134.717	43.436	0	2019.80	0	1.9500	0	37.6090	8	30.081	0	1994.067	0	56.7	4	17.5	4	-1E+10	1	-1E+10	1	-1E+10	1	-1E+10	1	-1E+10	1	-1E+10	1
4901784	205	C	02/13/2021	10:50	-134.717	43.436	0																										
4901784	206	C	02/23/2021	10:43	-134.848	43.338	0	2.40	0	11.0910	0	35.7570	8	27.349	0	2.381	0	258.3	4	96.8	4	-1E+10	1	-1E+10	1	-1E+10	1	-1E+10	1	-1E+10	1	-1E+10	1
4901784	206	C	02/23/2021	10:43	-134.848	43.338	0	3.60	0	11.0850	0	35.7590	8	27.352	0	3.571	0	258.2	4	96.7	4	-1E+10	1	-1E+10	1	-1E+10	1	-1E+10	1	-1E+10	1	-1E+10	1
4901784	206	C	02/23/2021	10:43	-134.848	43.338	0	5.30	0	11.0760	0	35.7600	8	27.354	0	5.258	0	258.3	4	96.7	4	-1E+10	1	-1E+10	1	-1E+10	1	-1E+10	1	-1E+10	1	-1E+10	1
4901784	206	C	02/23/2021	10:43	-134.848	43.338	0	5.70	0	11.0790	0	35.7580	8	27.352	0	5.655	0	258.3	4	96.7	4	-1E+10	1	-1E+10	1	-1E+10	1	-1E+10	1	-1E+10	1	-1E+10	1
4901784	206	C	02/23/2021	10:43	-134.848	43.338	0	7.20	0	11.0880	0	35.7600	8	27.352	0	7.143	0	258.1	4	96.7	4	-1E+10	1	-1E+10	1	-1E+10	1	-1E+10	1	-1E+10	1	-1E+10	1
4901784	206	C	02/23/2021	10:43	-134.848	43.338	0	8.60	0	11.0890	0	35.7600	8	27.352	0	8.531	0	258.1	4	96.7	4	-1E+10	1	-1E+10	1	-1E+10	1	-1E+10	1	-1E+10	1	-1E+10	1
4901784	206	C	02/23/2021	10:43	-134.848	43.338	0	10.10	0	11.0910	0	35.7610	8	27.352	0	10.019	0	258.1	4	96.7	4	-1E+10	1	-1E+10	1	-1E+10	1	-1E+10	1	-1E+10	1	-1E+10	1
4901784	206	C	02/23/2021	10:43	-134.848	43.338	0	11.50	0	11.0930	0	35.7620	8	27.353	0	11.408	0	258.1	4	96.7	4	-1E+10	1	-1E+10	1	-1E+10	1	-1E+10	1	-1E+10	1	-1E+10	1
4901784	206	C	02/23/2021	10:43	-134.848	43.338	0	13.00	0	11.0940	0	35.7620	8	27.353	0	12.896	0	257.9	4	96.7	4	-1E+10	1	-1E+10	1	-1E+10	1	-1E+10	1	-1E+10	1	-1E+10	1
4901784	206	C	02/23/2021	10:43	-134.848	43.338	0	14.70	0	11.0930	0	35.7620	8	27.353	0	14.582	0	258.1	4	96.7	4	-1E+10	1	-1E+10	1	-1E+10	1	-1E+10	1	-1E+10	1	-1E+10	1
4901784	206	C	02/23/2021	10:43	-134.848	43.338	0	16.20	0	11.0910	0	35.7630	8	27.354	0	16.070	0	257.9	4	96.6	4	-1E+10	1	-1E+10	1	-1E+10	1	-1E+10	1	-1E+10	1	-1E+10	1
4901784	206	C	02/23/2021	10:43	-134.848	43.338	0	17.80	0	11.0920	0	35.7630	8	27.354	0	17.657	0	257.9	4	96.6	4	-1E+10	1	-1E+10	1	-1E+10	1	-1E+10	1	-1E+10	1	-1E+10	1
4901784	206	C	02/23/2021	10:43	-134.848	43.338	0	19.40	0	11.0920	0	35.7640	8	27.355	0	19.245	0	258.0	4	96.7	4	-1E+10	1	-1E+10	1	-1E+10	1	-1E+10	1	-1E+10	1	-1E+10	1
4901784	206	C	02/23/2021	10:43	-134.848	43.338	0	21.00	0	11.0920	0	35.7640	8	27.355	0	20.832	0	257.9	4	96.6	4	-1E+10	1	-1E+10	1	-1E+10	1	-1E+10	1	-1E+10	1	-1E+10	1
4901784	206	C	02/23/2021	10:43	-134.848	43.338	0	22.60	0	11.0900	0	35.7650	8	27.356	0	22.419	0	257.6	4	96.5	4	-1E+10	1	-1E+10	1	-1E+10	1	-1E+10	1	-1E+10	1	-1E+10	1
4901784	206	C	02/23/2021	10:43	-134.848	43.338	0	24.20	0	11.0870	0	35.7660	8	27.357	0	24.006	0	257.7	4	96.6	4	-1E+10	1	-1E+10	1	-1E+10	1	-1E+10	1	-1E+10	1	-1E+10	1
4901784	206	C	02/23/2021	10:43	-134.848	43.338	0	25.70	0	11.0870	0	35.7660	8	27.357	0	25.494	0	257.4	4	96.5	4	-1E+10	1	-1E+10	1	-1E+10	1	-1E+10	1	-1E+10	1	-1E+10	1
4901784	206	C	02/23/2021	10:43	-134.848	43.338	0	27.30	0	11.0890	0	35.7670	8	27.358	0	27.081	0	257.5	4	96.5	4	-1E+10	1	-1E+10	1	-1E+10	1	-1E+10	1	-1E+10	1	-1E+10	1
4901784	206	C	02/23/2021	10:43	-134.848	43.338	0	29.00	0	11.0890	0	35.7670	8	27.358	0	28.767	0	257.3	4	96.4	4	-1E+10	1	-1E+10	1	-1E+10	1	-1E+10	1	-1E+10	1	-1E+10	1
4901784	206	C	02/23/2021	10:43	-134.848	43.338	0	30.60	0	11.0900	0	35.7670	8	27.358	0	30.354	0	257.1	4	96.3	4	-1E+10	1	-1E+10	1	-1E+10	1	-1E+10	1	-1E+10	1	-1E+10	1
4901784	206	C	02/23/2021	10:43	-134.848	43.338	0	32.30	0	11.0910	0	35.7660	8	27.357	0	32.040	0	256.7	4	96.2	4	-1E+10	1	-1E+10	1	-1E+10	1	-1E+10	1	-1E+10	1	-1E+10	1
4901784	206	C	02/23/2021	10:43	-134.848	43.338	0	34.00	0	11.0890	0	35.7670	8	27.358	0	33.726	0	256.4	4	96.1	4	-1E+10	1	-1E+10	1	-1E+10	1	-1E+10	1	-1E+10	1	-1E+10	1
4901784	206	C	02/23/2021	10:43	-134.848	43.338	0	35.70	0	11.0750	0	35.7660	8	27.360	0	35.413	0	256.0	4	95.9	4	-1E+10	1	-1E+10	1	-1E+10	1	-1E+10	1	-1E+10	1	-1E+10	1
4901784	206	C	02/23/2021	10:43	-134.848	43.338	0	37.40	0	11.0510	0	35.7690	8	27.367	0	37.099	0	255.9	4	95.8	4	-1E+10	1	-1E+10	1	-1E+10	1	-1E+10	1	-1E+10	1	-1E+10	1
4901784	206	C	02/23/2021	10:43	-134.848	43.338	0	39.10	0	11.0500	0	35.7690	8	27.367	0	38.785	0	255.8	4	95.8	4	-1E+10	1	-1E+10	1	-1E+10	1	-1E+10	1	-1E+10	1	-1E+10	1
4901784	206	C	02/23/2021	10:43	-134.848	43.338	0	40.80	0	11.0500	0	35.7680	8	27.366	0	40.471	0	255.7	4	95.7	4	-1E+10	1	-1E+10	1	-1E+10	1	-1E+10	1	-1E+10	1	-1E+10	1
4901784	206	C	02/23/2021	10:43	-134.848	43.338	0	42.50	0	11.0500	0	35.7680	8	27.366	0	42.157	0	255.6	4	95.7	4	-1E+10	1	-1E+10	1	-1E+10	1	-1E+10	1	-1E+10	1	-1E+10	1
4901784	206	C	02/23/2021	10:43	-134.848	43.338	0	44.30	0	11.0490	0	35.7670	8	27.366	0	43.942	0	255.3	4	95.6	4	-1E+10	1	-1E+10	1	-1E+10	1	-1E+10	1	-1E+10	1	-1E+10	1
4901784	206	C	02/23/2021	10:43	-134.848	43.338	0	46.00	0	11.0370	0	35.7670	8	27.368	0	45.629	0	255.3	4	95.6	4	-1E+10	1	-1E+10	1	-1E+10	1	-1E+10	1	-1E+10	1	-1E+10	1
4901784	206	C	02/23/2021	10:43	-134.848	43.338	0	47.80	0	11.0270	0	35.7680	8	27.371	0	47.414	0	255.2	4	95.5	4	-1E+10	1	-1E+10	1	-1E+10	1	-1E+10	1	-1E+10	1	-1E+10	1
4901784	206	C	02/23/2021	10:43	-134.848	43.338	0	49.50	0	11.0260	0	35.7650	8	27.368	0	49.100	0	255.2	4	95.5	4	-1E+10	1	-1E+10	1	-1E+10	1	-1E+10	1	-1E+10	1	-1E+10	1
4901784	206	C	02/23/2021	10:43	-134.848	43.338	0	51.30	0	11.0010	0	35.7660	8	27.374	0	50.885	0	255.3	4	95.5	4	-1E+10	1	-1E+10	1	-1E+10	1	-1E+10	1	-1E+10	1	-1E+10	1
4901784	206	C	02/23/2021	10:43	-134.848	43.338	0	53.00	0	10.9980	0	35.7660	8	27.374	0	52.571	0	255.1	4	95.4	4	-1E+10	1	-1E+10	1	-1E+10	1	-1E+10	1	-1E+10	1	-1E+10	1
4901784	206	C	02/23/2021	10:43	-134.848	43.338	0	54.70	0	10.9970	0	35.7650	8	27.374	0	54.257	0	255.2	4	95.5	4	-1E+10	1	-1E+10	1	-1E+10	1	-1E+10	1	-1E+10	1	-1E+10	1
4901784	206	C	02/23/2021	10:43	-134.848	43.338	0	56.40	0	10.9980	0	35.7640	8	27.373	0	55.943	0	254.9	4	95.3	4	-1E+10	1	-1E+10	1	-1E+10	1	-1E+10	1	-1E+10	1	-1E+10	1
4901784	206	C	02/23/2021	10:43	-134.848	43.338	0	58.20	0	10.9980	0	35.7630	8	27.372	0	57.728	0	255.0	4	95.4	4	-1E+10	1	-1E+10	1	-1E+10	1	-1E+10	1	-1E+10	1	-1E+10	1
4901784	206	C	02/23/2021	10:43	-134.848	43.338	0	60.00	0	10.9980	0	35.7600	8	27.370	0	59.513	0	255.0	4	95.4	4	-1E+10	1	-1E+10	1	-1E+10	1	-1E+10	1	-1E+10	1	-1E+10	1
4901784	206	C	02/23/2021	10:43	-134.848	43.338	0	61.70	0	10.9960	0	35.7570	8	27.368	0	61.199	0	254.8	4	95.3	4	-1E+10	1	-1E+10	1	-1E+10	1	-1E+10	1	-1E+10	1	-1E+10	1
4901784	206	C	02/23/2021	10:43	-134.848	43.338	0	63.40	0	10.9950	0	35.7540	8	27.366	0	62.885	0	254.6	4	95.2	4	-1E+10	1	-1E+10	1	-1E+10	1	-1E+10	1	-1E+10	1	-1E+10	1
4901784	206	C	02/23/2021	10:43	-134.848	43.338	0	65.00	0	10.9920	0	35.7490	8	27.363	0	64.472	0	254.7	4	95.2	4	-1E+10	1	-1E+10	1	-1E+10	1	-1E+10	1	-1E+10	1	-1E+10	1
4901784	206	C	02/23/2021	10:43	-134.848	43.338	0	66.70	0	10.9820	0	35.7460	8	27.362	0	66.158	0	254.3	4	95.1	4	-1E+10	1	-1E+10	1	-1E+10	1	-1E+10	1	-1E+10	1	-1E+10	1
4901784	206	C	02/23/2021	10:43	-134.848	43.338	0	68.30	0	10.9720	0	35.7380	8	27.358	0	67.745	0	254.2	4	95.0	4	-1E+10	1	-1E+10	1	-1E+10	1	-1E+10	1	-1E+10	1	-1E+10	1
4901784	206	C	02/23/2021	10:43	-134.848	43.338	0	69.90	0	10.9650	0	35.7230	8	27.347	0	69.331	0	254.3	4	95.0	4	-1E+10	1	-1E+10	1	-1E+10	1	-1E+10	1	-1E+10	1	-1E+10	1
4901784	206	C	02/23/2021	10:43	-134.848	43.338	0	71.80	0	10.9640	8	35.6970	8	27.327	0	71.216	0	254.3	4	95.0	4	-1E+10	1	-1E+10	1	-1E+10	1	-1E+10	1	-1E+10	1	-1E+10	1
4901784	206	C	02/23/2021	10:43	-134.848	43.338	0	73.50	0	10.9630	8	35.6320	8	27.277	0	72.902	0	254.3	4	95.0	4	-1E+10	1	-1E+10	1	-1E+10	1	-1E+10	1	-1E+10	1	-1E+10	1
4901784	206	C	02/23/2021	10:43	-134.848	43.338	0	75.30	0	10.9540	8	35.5710	8	27.231	0	74.687	0	254.4	4	94.9	4	-1E+10	1	-1E+10	1	-1E+10	1	-1E+10	1	-1E+10	1	-1E+10	1
4901784	206	C	02/23/2021	10:43	-134.848	43.338	0	77.10	0	10.9480	8	35.4930	8	27.171	0	76.472	0	254.3	4	94.8	4	-1E+10	1	-1E+10	1	-1E+10	1	-1E+10	1	-1E+10	1	-1E+10	1
4901784	206	C	02/23/2021	10:43	-134.848	43.338	0	78.90	0	10.9380	0	35.4840	8	27.166	0	78.257	0	254.0	4	94.7	4	-1E+10	1	-1E+10	1	-1E+10	1	-1E+10	1	-1E+10	1	-1E+10	1
4901784	206	C	02/23/2021	10:43	-134.848	43.338	0	80.60	0	10.9200	0	35.4810	8	27.167	0	79.942	0	253.8	4	94.6	4	-1E+10	1	-1E+10	1	-1E+10	1	-1E+10	1	-1E+10	1	-1E+10	1
4901784	206	C	02/23/2021	10:43	-134.848	43.338	0	82.40	0	10.9200	0	35.4640	8	27.154	0	81.727	0	253.8	4	94.6	4	-1E+10	1	-1E+10	1	-1E+10	1	-1E+10	1	-1E+10	1	-1E+10	1
4901784	206	C	02/23/2021	10:43	-134.848	43.338	0	84.20	0	10.8950	0	35.4810	8	27.172	0	83.512	0	253.4	4	94.4	4	-1E+10	1	-1E+10	1	-1E+10	1	-1E+10	1	-1E+10	1	-1E+10	1
4901784	206	C	02/23/2021	10:43	-134.848	43.338	0	85.90	0	10.8690	0	35.4760	8	27.173	0	85.198	0	253.6	4	94.4	4	-1E+10	1	-1E+10	1	-1E+10	1	-1E+10	1	-1E+10	1	-1E+10	1
4901784	206	C	02/23/2021	10:43	-134.848	43.338	0	87.70	0	10.8650	0	35.4580	8	27.159	0	86.983	0	253.4	4	94.3	4	-1E+10	1	-1E+10	1	-1E+10	1	-1E+10	1	-1E+10	1	-1E+10	1
4901784	206	C	02/23/2021	10:43	-134.848	43.338	0	89.40	0	10.8580	0	35.4790	8	27.177	0	88.669	0	253.1	4	94.2	4	-1E+10	1	-1E+10	1	-1E+10	1	-1E+10	1	-1E+10	1	-1E+10	1
4901784	206	C	02/23/2021	10:43	-134.848	43.338	0	91.30	0	10.8360	0	35.4820	8	27.183	0	90.553	0	252.8	4	94.0	4	-1E+10	1	-1E+10	1	-1E+10	1	-1E+10	1	-1E+10	1	-1E+10	1
4901784	206	C	02/23/2021	10:43	-134.848	43.338	0	93.00	0	10.8280	8	35.4440	8	27.155	0	92.238	0	252.5	4	93.9	4	-1E+10	1	-1E+10	1	-1E+10	1	-1E+10	1	-1E+10	1	-1E+10	1
4901784	206	C	02/23/2021	10:43	-134.848	43.338	0	94.80	0	10.8210	8	35.3920	8	27.116	0	94.023	0	252.0	4	93.6	4	-1E+10	1	-1E+10	1	-1E+10	1	-1E+10	1	-1E+10	1	-1E+10	1
4901784	206	C	02/23/2021	10:43	-134.848	43.338	0	96.50	0	10.8010	0	35.4180	8	27.140	0	95.709	0	251.1	4	93.3	4	-1E+10	1	-1E+10	1	-1E+10	1	-1E+10	1	-1E+10	1	-1E+10	1
4901784	206	C	02/23/2021	10:43	-134.848	43.338	0	98.30	0	10.7270	0	35.3980	8	27.138	0	97.494	0	250.8	4	93.0	4	-1E+10	1	-1E+10	1	-1E+10	1	-1E+10	1	-1E+10	1	-1E+10	1
4901784	206	C	02/23/2021	10:43	-134.848	43.338	0	100.10	0	10.6970	0	35.4150	8	27.156	0	99.279	0	250.6	4	92.9	4	-1E+10	1	-1E+10	1	-1E+10	1	-1E+10	1	-1E+10	1	-1E+10	1
4901784	206	C	02/23/2021	10:43	-134.848	43.338	0	102.00	0	10.6660	0	35.4000	8	27.150	0	101.163	0	250.4	4	92.7	4	-1E+10	1	-1E+10	1	-1E+10	1	-1E+10	1	-1E+10	1	-1E+10	1
4901784	206	C	02/23/2021	10:43	-134.848	43.338	0	104.70	0	10.6510	0	35.4060	8	27.158	0	103.840	0	249.9	4	92.5	4	-1E+10	1	-1E+10	1	-1E+10	1	-1E+10	1	-1E+10	1	-1E+10	1
4901784	206	C	02/23/2021	10:43	-134.848	43.338	0	107.40	0	10.6130	0	35.3650	8	27.132	0	106.517	0	249.0	4	92.1	4	-1E+10	1	-1E+10	1	-1E+10	1	-1E+10	1	-1E+10	1	-1E+10	1
4901784	206	C	02/23/2021	10:43	-134.848	43.338	0	110.10	0	10.6000	0	35.3410	8	27.116	0	109.194	0	247.3	4	91.5	4	-1E+10	1	-1E+10	1	-1E+10	1	-1E+10	1	-1E+10	1	-1E+10	1
4901784	206	C	02/23/2021	10:43	-134.848	43.338	0	112.70	0	10.4820	0	35.3500	8	27.144	0	111.772	0	245.4	4	90.5	4	-1E+10	1	-1E+10	1	-1E+10	1	-1E+10	1	-1E+10	1	-1E+10	1
4901784	206	C	02/23/2021	10:43	-134.848	43.338	0	115.30	0	10.4400	0	35.3700	8	27.167	0	114.350	0	243.4	4	89.7	4	-1E+10	1	-1E+10	1	-1E+10	1	-1E+10	1	-1E+10	1	-1E+10	1
4901784	206	C	02/23/2021	10:43	-134.848	43.338	0	118.40	0	10.4440	0	35.3500	8	27.151	0	117.423	0	240.4	4	88.6	4	-1E+10	1	-1E+10	1	-1E+10	1	-1E+10	1	-1E+10	1	-1E+10	1
4901784	206	C	02/23/2021	10:43	-134.848	43.338	0	120.00	0	10.4180	0	35.3810	8	27.180	0	119.010	0	238.3	4	87.8	4	-1E+10	1	-1E+10	1	-1E+10	1	-1E+10	1	-1E+10	1	-1E+10	1
4901784	206	C	02/23/2021	10:43	-134.848	43.338	0	122.10	0	10.3730	0	35.3610	8	27.172	0	121.092	0	235.8	4	86.8	4	-1E+10	1	-1E+10	1	-1E+10	1	-1E+10	1	-1E+10	1	-1E+10	1
4901784	206	C	02/23/2021	10:43	-134.848	43.338	0	124.90	0	10.2190	0	35.3580	8	27.197	0	123.868	0	230.7	4	84.6	4	-1E+10	1	-1E+10	1	-1E+10	1	-1E+10	1	-1E+10	1	-1E+10	1
4901784	206	C	02/23/2021	10:43	-134.848	43.338	0	127.20	0	9.9330	0	35.3960	8	27.276	0	126.148	0	226.7	4	82.7	4	-1E+10	1	-1E+10	1	-1E+10	1	-1E+10	1	-1E+10	1	-1E+10	1
4901784	206	C	02/23/2021	10:43	-134.848	43.338	0	129.60	0	9.7480	0	35.5120	8	27.398	0	128.527	0	224.2	4	81.5	4	-1E+10	1	-1E+10	1	-1E+10	1	-1E+10	1	-1E+10	1	-1E+10	1
4901784	206	C	02/23/2021	10:43	-134.848	43.338	0	132.90	0	9.5430	0	35.5450	8	27.458	0	131.799	0	221.7	4	80.3	4	-1E+10	1	-1E+10	1	-1E+10	1	-1E+10	1	-1E+10	1	-1E+10	1
4901784	206	C	02/23/2021	10:43	-134.848	43.338	0	135.30	0	9.4660	0	35.5510	8	27.476	0	134.178	0	219.5	4	79.3	4	-1E+10	1	-1E+10	1	-1E+10	1	-1E+10	1	-1E+10	1	-1E+10	1
4901784	206	C	02/23/2021	10:43	-134.848	43.338	0	137.30	0	9.2890	0	35.6030	8	27.546	0	136.161	0	217.4	4	78.3	4	-1E+10	1	-1E+10	1	-1E+10	1	-1E+10	1	-1E+10	1	-1E+10	1
4901784	206	C	02/23/2021	10:43	-134.848	43.338	0	139.70	0	9.2170	0	35.6460	8	27.592	0	138.540	0	213.9	4	76.9	4	-1E+10	1	-1E+10	1	-1E+10	1	-1E+10	1	-1E+10	1	-1E+10	1
4901784	206	C	02/23/2021	10:43	-134.848	43.338	0	142.60	0	8.8900	0	35.7470	8	27.724	0	141.415	0	211.0	4	75.4	4	-1E+10	1	-1E+10	1	-1E+10	1	-1E+10	1	-1E+10	1	-1E+10	1
4901784	206	C	02/23/2021	10:43	-134.848	43.338	0	145.50	0	8.7870	0	35.7830	8	27.769	0	144.290	0	208.9	4	74.5	4	-1E+10	1	-1E+10	1	-1E+10	1	-1E+10	1	-1E+10	1	-1E+10	1
4901784	206	C	02/23/2021	10:43	-134.848	43.338	0	147.70	0	8.6740	0	35.8330	8	27.826	0	146.471	0	207.5	4	73.8	4	-1E+10	1	-1E+10	1	-1E+10	1	-1E+10	1	-1E+10	1	-1E+10	1
4901784	206	C	02/23/2021	10:43	-134.848	43.338	0	149.90	0	8.6340	0	35.8690	8	27.861	0	148.652	0	206.5	4	73.5	4	-1E+10	1	-1E+10	1	-1E+10	1	-1E+10	1	-1E+10	1	-1E+10	1
4901784	206	C	02/23/2021	10:43	-134.848	43.338	0	152.90	0	8.5970	0	35.9240	8	27.910	0	151.626	0	205.0	4	72.9	4	-1E+10	1	-1E+10	1	-1E+10	1	-1E+10	1	-1E+10	1	-1E+10	1
4901784	206	C	02/23/2021	10:43	-134.848	43.338	0	155.30	0	8.5560	0	36.0040	8	27.979	0	154.005	0	204.0	4	72.5	4	-1E+10	1	-1E+10	1	-1E+10	1	-1E+10	1	-1E+10	1	-1E+10	1
4901784	206	C	02/23/2021	10:43	-134.848	43.338	0	157.70	0	8.5530	0	36.0240	8	27.995	0	156.384	0	203.4	4	72.3	4	-1E+10	1	-1E+10	1	-1E+10	1	-1E+10	1	-1E+10	1	-1E+10	1
4901784	206	C	02/23/2021	10:43	-134.848	43.338	0	160.10	0	8.5470	0	36.0300	8	28.001	0	158.763	0	202.8	4	72.1	4	-1E+10	1	-1E+10	1	-1E+10	1	-1E+10	1	-1E+10	1	-1E+10	1
4901784	206	C	02/23/2021	10:43	-134.848	43.338	0	162.50	0	8.5190	0	36.0790	8	28.044	0	161.142	0	201.8	4	71.7	4	-1E+10	1	-1E+10	1	-1E+10	1	-1E+10	1	-1E+10	1	-1E+10	1
4901784	206	C	02/23/2021	10:43	-134.848	43.338	0	165.00	0	8.4820	0	36.1440	8	28.101	0	163.620	0	200.9	4	71.4	4	-1E+10	1	-1E+10	1	-1E+10	1	-1E+10	1	-1E+10	1	-1E+10	1
4901784	206	C	02/23/2021	10:43	-134.848	43.338	0	167.70	0	8.4270	0	36.1930	8	28.148	0	166.297	0	199.9	4	70.9	4	-1E+10	1	-1E+10	1	-1E+10	1	-1E+10	1	-1E+10	1	-1E+10	1
4901784	206	C	02/23/2021	10:43	-134.848	43.338	0	170.40	0	8.3700	0	36.2490	8	28.201	0	168.973	0	199.2	4	70.6	4	-1E+10	1	-1E+10	1	-1E+10	1	-1E+10	1	-1E+10	1	-1E+10	1
4901784	206	C	02/23/2021	10:43	-134.848	43.338	0	172.20	0	8.3390	0	36.2760	8	28.227	0	170.757	0	198.6	4	70.4	4	-1E+10	1	-1E+10	1	-1E+10	1	-1E+10	1	-1E+10	1	-1E+10	1
4901784	206	C	02/23/2021	10:43	-134.848	43.338	0	175.00	0	8.2890	0	36.3210	8	28.270	0	173.533	0	198.2	4	70.2	4	-1E+10	1	-1E+10	1	-1E+10	1	-1E+10	1	-1E+10	1	-1E+10	1
4901784	206	C	02/23/2021	10:43	-134.848	43.338	0	177.80	0	8.2330	0	36.3810	8	28.326	0	176.308	0	197.9	4	70.0	4	-1E+10	1	-1E+10	1	-1E+10	1	-1E+10	1	-1E+10	1	-1E+10	1
4901784	206	C	02/23/2021	10:43	-134.848	43.338	0	179.70	0	8.2290	0	36.3840	8	28.329	0	178.191	0	197.6	4	69.9	4	-1E+10	1	-1E+10	1	-1E+10	1	-1E+10	1	-1E+10	1	-1E+10	1
4901784	206	C	02/23/2021	10:43	-134.848	43.338	0	182.70	0	8.1820	0	36.4210	8	28.366	0	181.165	0	197.4	4	69.8	4	-1E+10	1	-1E+10	1	-1E+10	1	-1E+10	1	-1E+10	1	-1E+10	1
4901784	206	C	02/23/2021	10:43	-134.848	43.338	0	185.50	0	8.1530	0	36.4430	8	28.388	0	183.940	0	197.2	4	69.7	4	-1E+10	1	-1E+10	1	-1E+10	1	-1E+10	1	-1E+10	1	-1E+10	1
4901784	206	C	02/23/2021	10:43	-134.848	43.338	0	187.40	0	8.1380	0	36.4510	8	28.396	0	185.823	0	196.8	4	69.5	4	-1E+10	1	-1E+10	1	-1E+10	1	-1E+10	1	-1E+10	1	-1E+10	1
4901784	206	C	02/23/2021	10:43	-134.848	43.338	0	190.30	0	8.1230	0	36.4620	8	28.407	0	188.697	0	196.3	4	69.3	4	-1E+10	1	-1E+10	1	-1E+10	1	-1E+10	1	-1E+10	1	-1E+10	1
4901784	206	C	02/23/2021	10:43	-134.848	43.338	0	193.20	0	8.0990	0	36.4880	8	28.431	0	191.571	0	195.8	4	69.2	4	-1E+10	1	-1E+10	1	-1E+10	1	-1E+10	1	-1E+10	1	-1E+10	1
4901784	206	C	02/23/2021	10:43	-134.848	43.338	0	195.20	0	8.0740	0	36.5040	8	28.448	0	193.554	0	195.6	4	69.0	4	-1E+10	1	-1E+10	1	-1E+10	1	-1E+10	1	-1E+10	1	-1E+10	1
4901784	206	C	02/23/2021	10:43	-134.848	43.338	0	197.20	0	8.0440	0	36.5190	8	28.464	0	195.536	0	195.5	4	69.0	4	-1E+10	1	-1E+10	1	-1E+10	1	-1E+10	1	-1E+10	1	-1E+10	1
4901784	206	C	02/23/2021	10:43	-134.848	43.338	0	200.10	0	8.0290	0	36.5270	8	28.473	0	198.410	0	195.1	4	68.8	4	-1E+10	1	-1E+10	1	-1E+10	1	-1E+10	1	-1E+10	1	-1E+10	1
4901784	206	C	02/23/2021	10:43	-134.848	43.338	0	203.00	0	8.0100	0	36.5400	8	28.486	0	201.284	0	194.7	4	68.6	4	-1E+10	1	-1E+10	1	-1E+10	1	-1E+10	1	-1E+10	1	-1E+10	1
4901784	206	C	02/23/2021	10:43	-134.848	43.338	0	204.90	0	7.9980	0	36.5470	8	28.493	0	203.167	0	194.3	4	68.5	4	-1E+10	1	-1E+10	1	-1E+10	1	-1E+10	1	-1E+10	1	-1E+10	1
4901784	206	C	02/23/2021	10:43	-134.848	43.338	0	206.80	0	7.9840	0	36.5540	8	28.501	0	205.050	0	194.0	4	68.4	4	-1E+10	1	-1E+10	1	-1E+10	1	-1E+10	1	-1E+10	1	-1E+10	1
4901784	206	C	02/23/2021	10:43	-134.848	43.338	0	209.80	0	7.9520	0	36.5700	8	28.519	0	208.023	0	193.2	4	68.0	4	-1E+10	1	-1E+10	1	-1E+10	1	-1E+10	1	-1E+10	1	-1E+10	1
4901784	206	C	02/23/2021	10:43	-134.848	43.338	0	212.80	0	7.9200	0	36.5840	8	28.535	0	210.996	0	192.7	4	67.8	4	-1E+10	1	-1E+10	1	-1E+10	1	-1E+10	1	-1E+10	1	-1E+10	1
4901784	206	C	02/23/2021	10:43	-134.848	43.338	0	214.70	0	7.8830	0	36.6000	8	28.553	0	212.879	0	192.4	4	67.7	4	-1E+10	1	-1E+10	1	-1E+10	1	-1E+10	1	-1E+10	1	-1E+10	1
4901784	206	C	02/23/2021	10:43	-134.848	43.338	0	217.60	0	7.8650	0	36.6040	8	28.559	0	215.753	0	191.6	4	67.4	4	-1E+10	1	-1E+10	1	-1E+10	1	-1E+10	1	-1E+10	1	-1E+10	1
4901784	206	C	02/23/2021	10:43	-134.848	43.338	0	220.50	0	7.8340	0	36.6120	8	28.570	0	218.627	0	190.9	4	67.1	4	-1E+10	1	-1E+10	1	-1E+10	1	-1E+10	1	-1E+10	1	-1E+10	1
4901784	206	C	02/23/2021	10:43	-134.848	43.338	0	222.40	0	7.8270	0	36.6130	8	28.572	0	220.510	0	190.2	4	66.8	4	-1E+10	1	-1E+10	1	-1E+10	1	-1E+10	1	-1E+10	1	-1E+10	1
4901784	206	C	02/23/2021	10:43	-134.848	43.338	0	225.20	0	7.7780	0	36.6230	8	28.587	0	223.284	0	189.2	4	66.4	4	-1E+10	1	-1E+10	1	-1E+10	1	-1E+10	1	-1E+10	1	-1E+10	1
4901784	206	C	02/23/2021	10:43	-134.848	43.338	0	228.10	0	7.7590	0	36.6230	8	28.590	0	226.158	0	187.9	4	65.9	4	-1E+10	1	-1E+10	1	-1E+10	1	-1E+10	1	-1E+10	1	-1E+10	1
4901784	206	C	02/23/2021	10:43	-134.848	43.338	0	230.10	0	7.7290	0	36.6260	8	28.597	0	228.140	0	187.1	4	65.6	4	-1E+10	1	-1E+10	1	-1E+10	1	-1E+10	1	-1E+10	1	-1E+10	1
4901784	206	C	02/23/2021	10:43	-134.848	43.338	0	232.00	0	7.7050	0	36.6260	8	28.601	0	230.023	0	185.9	4	65.1	4	-1E+10	1	-1E+10	1	-1E+10	1	-1E+10	1	-1E+10	1	-1E+10	1
4901784	206	C	02/23/2021	10:43	-134.848	43.338	0	234.50	0	7.6420	0	36.6390	8	28.620	0	232.500	0	184.7	4	64.6	4	-1E+10	1	-1E+10	1	-1E+10	1	-1E+10	1	-1E+10	1	-1E+10	1
4901784	206	C	02/23/2021	10:43	-134.848	43.338	0	237.30	0	7.6140	0	36.6450	8	28.629	0	235.275	0	183.0	4	64.0	4	-1E+10	1	-1E+10	1	-1E+10	1	-1E+10	1	-1E+10	1	-1E+10	1
4901784	206	C	02/23/2021	10:43	-134.848	43.338	0	239.90	0	7.5760	0	36.6520	8	28.640	0	237.851	0	181.1	4	63.3	4	-1E+10	1	-1E+10	1	-1E+10	1	-1E+10	1	-1E+10	1	-1E+10	1
4901784	206	C	02/23/2021	10:43	-134.848	43.338	0	242.40	0	7.5500	0	36.6550	8	28.647	0	240.328	0	180.0	4	62.9	4	-1E+10	1	-1E+10	1	-1E+10	1	-1E+10	1	-1E+10	1	-1E+10	1
4901784	206	C	02/23/2021	10:43	-134.848	43.338	0	244.80	0	7.5180	0	36.6600	8	28.656	0	242.706	0	178.6	4	62.3	4	-1E+10	1	-1E+10	1	-1E+10	1	-1E+10	1	-1E+10	1	-1E+10	1
4901784	206	C	02/23/2021	10:43	-134.848	43.338	0	247.20	0	7.5010	0	36.6630	8	28.660	0	245.084	0	176.9	4	61.7	4	-1E+10	1	-1E+10	1	-1E+10	1	-1E+10	1	-1E+10	1	-1E+10	1
4901784	206	C	02/23/2021	10:43	-134.848	43.338	0	250.40	0	7.4950	0	36.6640	8	28.662	0	248.255	0	173.7	4	60.6	4	-1E+10	1	-1E+10	1	-1E+10	1	-1E+10	1	-1E+10	1	-1E+10	1
4901784	206	C	02/23/2021	10:43	-134.848	43.338	0	252.90	0	7.4510	0	36.6750	8	28.677	0	250.732	0	171.0	4	59.6	4	-1E+10	1	-1E+10	1	-1E+10	1	-1E+10	1	-1E+10	1	-1E+10	1
4901784	206	C	02/23/2021	10:43	-134.848	43.338	0	254.60	0	7.4150	0	36.6790	8	28.686	0	252.416	0	169.5	4	59.0	4	-1E+10	1	-1E+10	1	-1E+10	1	-1E+10	1	-1E+10	1	-1E+10	1
4901784	206	C	02/23/2021	10:43	-134.848	43.338	0	257.10	0	7.3650	0	36.6890	8	28.701	0	254.893	0	167.7	4	58.3	4	-1E+10	1	-1E+10	1	-1E+10	1	-1E+10	1	-1E+10	1	-1E+10	1
4901784	206	C	02/23/2021	10:43	-134.848	43.338	0	259.70	0	7.3470	0	36.6920	8	28.706	0	257.470	0	165.7	4	57.6	4	-1E+10	1	-1E+10	1	-1E+10	1	-1E+10	1	-1E+10	1	-1E+10	1
4901784	206	C	02/23/2021	10:43	-134.848	43.338	0	262.20	0	7.3310	0	36.6950	8	28.711	0	259.946	0	163.4	4	56.8	4	-1E+10	1	-1E+10	1	-1E+10	1	-1E+10	1	-1E+10	1	-1E+10	1
4901784	206	C	02/23/2021	10:43	-134.848	43.338	0	264.90	0	7.2910	0	36.7050	8	28.725	0	262.622	0	160.6	4	55.8	4	-1E+10	1	-1E+10	1	-1E+10	1	-1E+10	1	-1E+10	1	-1E+10	1
4901784	206	C	02/23/2021	10:43	-134.848	43.338	0	267.40	0	7.2890	0	36.7120	8	28.731	0	265.098	0	158.6	4	55.1	4	-1E+10	1	-1E+10	1	-1E+10	1	-1E+10	1	-1E+10	1	-1E+10	1
4901784	206	C	02/23/2021	10:43	-134.848	43.338	0	270.00	0	7.2650	0	36.7150	8	28.736	0	267.674	0	157.0	4	54.5	4	-1E+10	1	-1E+10	1	-1E+10	1	-1E+10	1	-1E+10	1	-1E+10	1
4901784	206	C	02/23/2021	10:43	-134.848	43.338	0	272.60	0	7.2070	0	36.7250	8	28.753	0	270.250	0	155.7	4	54.0	4	-1E+10	1	-1E+10	1	-1E+10	1	-1E+10	1	-1E+10	1	-1E+10	1
4901784	206	C	02/23/2021	10:43	-134.848	43.338	0	275.20	0	7.1870	0	36.7240	8	28.755	0	272.826	0	154.8	4	53.7	4	-1E+10	1	-1E+10	1	-1E+10	1	-1E+10	1	-1E+10	1	-1E+10	1
4901784	206	C	02/23/2021	10:43	-134.848	43.338	0	277.80	0	7.1590	0	36.7260	8	28.761	0	275.402	0	153.7	4	53.2	4	-1E+10	1	-1E+10	1	-1E+10	1	-1E+10	1	-1E+10	1	-1E+10	1
4901784	206	C	02/23/2021	10:43	-134.848	43.338	0	280.40	0	7.1360	0	36.7280	8	28.766	0	277.978	0	152.3	4	52.7	4	-1E+10	1	-1E+10	1	-1E+10	1	-1E+10	1	-1E+10	1	-1E+10	1
4901784	206	C	02/23/2021	10:43	-134.848	43.338	0	282.20	0	7.1200	0	36.7270	8	28.767	0	279.761	0	151.2	4	52.3	4	-1E+10	1	-1E+10	1	-1E+10	1	-1E+10	1	-1E+10	1	-1E+10	1
4901784	206	C	02/23/2021	10:43	-134.848	43.338	0	284.80	0	7.0620	0	36.7310	8	28.779	0	282.337	0	149.5	4	51.7	4	-1E+10	1	-1E+10	1	-1E+10	1	-1E+10	1	-1E+10	1	-1E+10	1
4901784	206	C	02/23/2021	10:43	-134.848	43.338	0	287.40	0	7.0180	0	36.7340	8	28.787	0	284.913	0	148.1	4	51.1	4	-1E+10	1	-1E+10	1	-1E+10	1	-1E+10	1	-1E+10	1	-1E+10	1
4901784	206	C	02/23/2021	10:43	-134.848	43.338	0	290.00	0	6.9770	0	36.7380	8	28.796	0	287.488	0	146.8	4	50.6	4	-1E+10	1	-1E+10	1	-1E+10	1	-1E+10	1	-1E+10	1	-1E+10	1
4901784	206	C	02/23/2021	10:43	-134.848	43.338	0	292.70	0	6.9530	0	36.7410	8	28.802	0	290.163	0	145.6	4	50.2	4	-1E+10	1	-1E+10	1	-1E+10	1	-1E+10	1	-1E+10	1	-1E+10	1
4901784	206	C	02/23/2021	10:43	-134.848	43.338	0	294.60	0	6.9370	0	36.7410	8	28.805	0	292.045	0	145.0	4	50.0	4	-1E+10	1	-1E+10	1	-1E+10	1	-1E+10	1	-1E+10	1	-1E+10	1
4901784	206	C	02/23/2021	10:43	-134.848	43.338	0	297.20	0	6.9020	0	36.7420	8	28.810	0	294.621	0	144.0	4	49.6	4	-1E+10	1	-1E+10	1	-1E+10	1	-1E+10	1	-1E+10	1	-1E+10	1
4901784	206	C	02/23/2021	10:43	-134.848	43.338	0	300.00	0	6.8660	0	36.7430	8	28.816	0	297.394	0	142.9	4	49.2	4	-1E+10	1	-1E+10	1	-1E+10	1	-1E+10	1	-1E+10	1	-1E+10	1
4901784	206	C	02/23/2021	10:43	-134.848	43.338	0	302.70	0	6.8280	0	36.7450	8	28.823	0	300.069	0	142.0	4	48.8	4	-1E+10	1	-1E+10	1	-1E+10	1	-1E+10	1	-1E+10	1	-1E+10	1
4901784	206	C	02/23/2021	10:43	-134.848	43.338	0	305.40	0	6.7970	0	36.7440	8	28.827	0	302.744	0	141.1	4	48.5	4	-1E+10	1	-1E+10	1	-1E+10	1	-1E+10	1	-1E+10	1	-1E+10	1
4901784	206	C	02/23/2021	10:43	-134.848	43.338	0	307.10	0	6.7740	0	36.7440	8	28.830	0	304.428	0	140.3	4	48.2	4	-1E+10	1	-1E+10	1	-1E+10	1	-1E+10	1	-1E+10	1	-1E+10	1
4901784	206	C	02/23/2021	10:43	-134.848	43.338	0	309.80	0	6.7410	0	36.7430	8	28.834	0	307.102	0	139.2	4	47.8	4	-1E+10	1	-1E+10	1	-1E+10	1	-1E+10	1	-1E+10	1	-1E+10	1
4901784	206	C	02/23/2021	10:43	-134.848	43.338	0	312.50	0	6.6870	0	36.7440	8	28.842	0	309.777	0	138.0	4	47.3	4	-1E+10	1	-1E+10	1	-1E+10	1	-1E+10	1	-1E+10	1	-1E+10	1
4901784	206	C	02/23/2021	10:43	-134.848	43.338	0	315.20	0	6.6450	0	36.7420	8	28.847	0	312.451	0	136.5	4	46.7	4	-1E+10	1	-1E+10	1	-1E+10	1	-1E+10	1	-1E+10	1	-1E+10	1
4901784	206	C	02/23/2021	10:43	-134.848	43.338	0	317.90	0	6.5970	0	36.7410	8	28.853	0	315.125	0	134.8	4	46.1	4	-1E+10	1	-1E+10	1	-1E+10	1	-1E+10	1	-1E+10	1	-1E+10	1
4901784	206	C	02/23/2021	10:43	-134.848	43.338	0	319.70	0	6.5540	0	36.7390	8	28.857	0	316.908	0	133.4	4	45.6	4	-1E+10	1	-1E+10	1	-1E+10	1	-1E+10	1	-1E+10	1	-1E+10	1
4901784	206	C	02/23/2021	10:43	-134.848	43.338	0	322.50	0	6.4620	0	36.7420	8	28.872	0	319.682	0	131.3	4	44.8	4	-1E+10	1	-1E+10	1	-1E+10	1	-1E+10	1	-1E+10	1	-1E+10	1
4901784	206	C	02/23/2021	10:43	-134.848	43.338	0	325.30	0	6.4260	0	36.7410	8	28.876	0	322.455	0	129.2	4	44.0	4	-1E+10	1	-1E+10	1	-1E+10	1	-1E+10	1	-1E+10	1	-1E+10	1
4901784	206	C	02/23/2021	10:43	-134.848	43.338	0	327.10	0	6.3730	0	36.7440	8	28.886	0	324.238	0	127.4	4	43.3	4	-1E+10	1	-1E+10	1	-1E+10	1	-1E+10	1	-1E+10	1	-1E+10	1
4901784	206	C	02/23/2021	10:43	-134.848	43.338	0	329.90	0	6.3110	0	36.7500	8	28.899	0	327.011	0	125.2	4	42.5	4	-1E+10	1	-1E+10	1	-1E+10	1	-1E+10	1	-1E+10	1	-1E+10	1
4901784	206	C	02/23/2021	10:43	-134.848	43.338	0	332.60	0	6.2760	0	36.7530	8	28.906	0	329.685	0	123.1	4	41.8	4	-1E+10	1	-1E+10	1	-1E+10	1	-1E+10	1	-1E+10	1	-1E+10	1
4901784	206	C	02/23/2021	10:43	-134.848	43.338	0	334.50	0	6.2540	0	36.7560	8	28.912	0	331.567	0	122.0	4	41.4	4	-1E+10	1	-1E+10	1	-1E+10	1	-1E+10	1	-1E+10	1	-1E+10	1
4901784	206	C	02/23/2021	10:43	-134.848	43.338	0	337.30	0	6.2300	0	36.7590	8	28.917	0	334.340	0	120.7	4	40.9	4	-1E+10	1	-1E+10	1	-1E+10	1	-1E+10	1	-1E+10	1	-1E+10	1
4901784	206	C	02/23/2021	10:43	-134.848	43.338	0	340.10	0	6.2080	0	36.7610	8	28.922	0	337.114	0	119.4	4	40.5	4	-1E+10	1	-1E+10	1	-1E+10	1	-1E+10	1	-1E+10	1	-1E+10	1
4901784	206	C	02/23/2021	10:43	-134.848	43.338	0	342.00	0	6.1990	0	36.7600	8	28.922	0	338.995	0	118.4	4	40.1	4	-1E+10	1	-1E+10	1	-1E+10	1	-1E+10	1	-1E+10	1	-1E+10	1
4901784	206	C	02/23/2021	10:43	-134.848	43.338	0	344.80	0	6.1800	0	36.7640	8	28.928	0	341.768	0	117.0	4	39.6	4	-1E+10	1	-1E+10	1	-1E+10	1	-1E+10	1	-1E+10	1	-1E+10	1
4901784	206	C	02/23/2021	10:43	-134.848	43.338	0	347.60	0	6.1740	0	36.7640	8	28.929	0	344.541	0	115.3	4	39.0	4	-1E+10	1	-1E+10	1	-1E+10	1	-1E+10	1	-1E+10	1	-1E+10	1
4901784	206	C	02/23/2021	10:43	-134.848	43.338	0	349.50	0	6.1600	0	36.7660	8	28.932	0	346.423	0	113.9	4	38.6	4	-1E+10	1	-1E+10	1	-1E+10	1	-1E+10	1	-1E+10	1	-1E+10	1
4901784	206	C	02/23/2021	10:43	-134.848	43.338	0	352.50	0	6.1490	0	36.7700	8	28.937	0	349.394	0	111.1	4	37.6	4	-1E+10	1	-1E+10	1	-1E+10	1	-1E+10	1	-1E+10	1	-1E+10	1
4901784	206	C	02/23/2021	10:43	-134.848	43.338	0	355.30	0	6.1510	0	36.7750	8	28.941	0	352.167	0	109.1	4	36.9	4	-1E+10	1	-1E+10	1	-1E+10	1	-1E+10	1	-1E+10	1	-1E+10	1
4901784	206	C	02/23/2021	10:43	-134.848	43.338	0	357.70	0	6.1280	0	36.7750	8	28.944	0	354.544	0	108.6	4	36.7	4	-1E+10	1	-1E+10	1	-1E+10	1	-1E+10	1	-1E+10	1	-1E+10	1
4901784	206	C	02/23/2021	10:43	-134.848	43.338	0	360.00	0	6.1050	0	36.7770	8	28.948	0	356.822	0	107.8	4	36.5	4	-1E+10	1	-1E+10	1	-1E+10	1	-1E+10	1	-1E+10	1	-1E+10	1
4901784	206	C	02/23/2021	10:43	-134.848	43.338	0	362.40	0	6.0990	0	36.7760	8	28.949	0	359.198	0	106.5	4	36.0	4	-1E+10	1	-1E+10	1	-1E+10	1	-1E+10	1	-1E+10	1	-1E+10	1
4901784	206	C	02/23/2021	10:43	-134.848	43.338	0	364.80	0	6.0900	0	36.7770	8	28.951	0	361.575	0	104.7	4	35.4	4	-1E+10	1	-1E+10	1	-1E+10	1	-1E+10	1	-1E+10	1	-1E+10	1
4901784	206	C	02/23/2021	10:43	-134.848	43.338	0	367.30	0	6.0880	0	36.7790	8	28.952	0	364.051	0	102.5	4	34.6	4	-1E+10	1	-1E+10	1	-1E+10	1	-1E+10	1	-1E+10	1	-1E+10	1
4901784	206	C	02/23/2021	10:43	-134.848	43.338	0	369.70	0	6.0860	0	36.7820	8	28.955	0	366.428	0	101.0	4	34.1	4	-1E+10	1	-1E+10	1	-1E+10	1	-1E+10	1	-1E+10	1	-1E+10	1
4901784	206	C	02/23/2021	10:43	-134.848	43.338	0	372.10	0	6.0550	0	36.7820	8	28.959	0	368.804	0	101.1	4	34.2	4	-1E+10	1	-1E+10	1	-1E+10	1	-1E+10	1	-1E+10	1	-1E+10	1
4901784	206	C	02/23/2021	10:43	-134.848	43.338	0	375.40	0	5.9920	0	36.7780	8	28.964	0	372.072	0	101.6	4	34.3	4	-1E+10	1	-1E+10	1	-1E+10	1	-1E+10	1	-1E+10	1	-1E+10	1
4901784	206	C	02/23/2021	10:43	-134.848	43.338	0	377.90	0	5.9090	0	36.7810	8	28.978	0	374.548	0	99.8	4	33.6	4	-1E+10	1	-1E+10	1	-1E+10	1	-1E+10	1	-1E+10	1	-1E+10	1
4901784	206	C	02/23/2021	10:43	-134.848	43.338	0	380.30	0	5.9070	0	36.7810	8	28.978	0	376.924	0	96.5	4	32.5	4	-1E+10	1	-1E+10	1	-1E+10	1	-1E+10	1	-1E+10	1	-1E+10	1
4901784	206	C	02/23/2021	10:43	-134.848	43.338	0	382.70	0	5.8810	0	36.7850	8	28.985	0	379.301	0	94.2	4	31.7	4	-1E+10	1	-1E+10	1	-1E+10	1	-1E+10	1	-1E+10	1	-1E+10	1
4901784	206	C	02/23/2021	10:43	-134.848	43.338	0	385.20	0	5.8420	0	36.7870	8	28.991	0	381.776	0	92.7	4	31.2	4	-1E+10	1	-1E+10	1	-1E+10	1	-1E+10	1	-1E+10	1	-1E+10	1
4901784	206	C	02/23/2021	10:43	-134.848	43.338	0	387.70	0	5.7940	0	36.7900	8	29.000	0	384.252	0	91.2	4	30.6	4	-1E+10	1	-1E+10	1	-1E+10	1	-1E+10	1	-1E+10	1	-1E+10	1
4901784	206	C	02/23/2021	10:43	-134.848	43.338	0	390.10	0	5.7810	0	36.7900	8	29.002	0	386.628	0	89.5	4	30.0	4	-1E+10	1	-1E+10	1	-1E+10	1	-1E+10	1	-1E+10	1	-1E+10	1
4901784	206	C	02/23/2021	10:43	-134.848	43.338	0	392.60	0	5.7420	0	36.7940	8	29.010	0	389.103	0	87.7	4	29.4	4	-1E+10	1	-1E+10	1	-1E+10	1	-1E+10	1	-1E+10	1	-1E+10	1
4901784	206	C	02/23/2021	10:43	-134.848	43.338	0	395.00	0	5.7220	0	36.7950	8	29.013	0	391.480	0	86.6	4	29.0	4	-1E+10	1	-1E+10	1	-1E+10	1	-1E+10	1	-1E+10	1	-1E+10	1
4901784	206	C	02/23/2021	10:43	-134.848	43.338	0	397.60	0	5.7030	0	36.7950	8	29.016	0	394.054	0	85.1	4	28.5	4	-1E+10	1	-1E+10	1	-1E+10	1	-1E+10	1	-1E+10	1	-1E+10	1
4901784	206	C	02/23/2021	10:43	-134.848	43.338	0	400.20	0	5.6720	0	36.8030	8	29.026	0	396.628	0	84.9	4	28.4	4	-1E+10	1	-1E+10	1	-1E+10	1	-1E+10	1	-1E+10	1	-1E+10	1
4901784	206	C	02/23/2021	10:43	-134.848	43.338	0	402.70	0	5.5860	0	36.7990	8	29.034	0	399.104	0	86.0	4	28.8	4	-1E+10	1	-1E+10	1	-1E+10	1	-1E+10	1	-1E+10	1	-1E+10	1
4901784	206	C	02/23/2021	10:43	-134.848	43.338	0	405.30	0	5.5840	0	36.7980	8	29.034	0	401.678	0	85.7	4	28.6	4	-1E+10	1	-1E+10	1	-1E+10	1	-1E+10	1	-1E+10	1	-1E+10	1
4901784	206	C	02/23/2021	10:43	-134.848	43.338	0	407.90	0	5.5620	0	36.7960	8	29.035	0	404.252	0	85.2	4	28.5	4	-1E+10	1	-1E+10	1	-1E+10	1	-1E+10	1	-1E+10	1	-1E+10	1
4901784	206	C	02/23/2021	10:43	-134.848	43.338	0	409.70	0	5.5480	0	36.7960	8	29.037	0	406.034	0	84.3	4	28.2	4	-1E+10	1	-1E+10	1	-1E+10	1	-1E+10	1	-1E+10	1	-1E+10	1
4901784	206	C	02/23/2021	10:43	-134.848	43.338	0	412.20	0	5.5120	0	36.7990	8	29.044	0	408.509	0	82.4	4	27.5	4	-1E+10	1	-1E+10	1	-1E+10	1	-1E+10	1	-1E+10	1	-1E+10	1
4901784	206	C	02/23/2021	10:43	-134.848	43.338	0	414.90	0	5.4960	0	36.8020	8	29.048	0	411.183	0	80.5	4	26.9	4	-1E+10	1	-1E+10	1	-1E+10	1	-1E+10	1	-1E+10	1	-1E+10	1
4901784	206	C	02/23/2021	10:43	-134.848	43.338	0	417.50	0	5.4720	0	36.8130	8	29.060	0	413.757	0	79.4	4	26.5	4	-1E+10	1	-1E+10	1	-1E+10	1	-1E+10	1	-1E+10	1	-1E+10	1
4901784	206	C	02/23/2021	10:43	-134.848	43.338	0	420.10	0	5.4690	0	36.8120	8	29.059	0	416.331	0	78.8	4	26.3	4	-1E+10	1	-1E+10	1	-1E+10	1	-1E+10	1	-1E+10	1	-1E+10	1
4901784	206	C	02/23/2021	10:43	-134.848	43.338	0	422.80	0	5.4580	0	36.8140	8	29.062	0	419.004	0	78.5	4	26.2	4	-1E+10	1	-1E+10	1	-1E+10	1	-1E+10	1	-1E+10	1	-1E+10	1
4901784	206	C	02/23/2021	10:43	-134.848	43.338	0	425.40	0	5.4540	0	36.8150	8	29.064	0	421.578	0	78.1	4	26.0	4	-1E+10	1	-1E+10	1	-1E+10	1	-1E+10	1	-1E+10	1	-1E+10	1
4901784	206	C	02/23/2021	10:43	-134.848	43.338	0	427.20	0	5.4550	0	36.8140	8	29.063	0	423.360	0	77.7	4	25.9	4	-1E+10	1	-1E+10	1	-1E+10	1	-1E+10	1	-1E+10	1	-1E+10	1
4901784	206	C	02/23/2021	10:43	-134.848	43.338	0	429.90	0	5.4560	0	36.8140	8	29.063	0	426.033	0	77.1	4	25.7	4	-1E+10	1	-1E+10	1	-1E+10	1	-1E+10	1	-1E+10	1	-1E+10	1
4901784	206	C	02/23/2021	10:43	-134.848	43.338	0	432.60	0	5.4590	0	36.8140	8	29.062	0	428.706	0	76.3	4	25.5	4	-1E+10	1	-1E+10	1	-1E+10	1	-1E+10	1	-1E+10	1	-1E+10	1
4901784	206	C	02/23/2021	10:43	-134.848	43.338	0	435.30	0	5.4340	0	36.8130	8	29.065	0	431.379	0	75.6	4	25.2	4	-1E+10	1	-1E+10	1	-1E+10	1	-1E+10	1	-1E+10	1	-1E+10	1
4901784	206	C	02/23/2021	10:43	-134.848	43.338	0	438.10	0	5.3690	0	36.8170	8	29.076	0	434.151	0	75.1	4	25.0	4	-1E+10	1	-1E+10	1	-1E+10	1	-1E+10	1	-1E+10	1	-1E+10	1
4901784	206	C	02/23/2021	10:43	-134.848	43.338	0	439.90	0	5.3430	0	36.8190	8	29.081	0	435.932	0	75.0	4	24.9	4	-1E+10	1	-1E+10	1	-1E+10	1	-1E+10	1	-1E+10	1	-1E+10	1
4901784	206	C	02/23/2021	10:43	-134.848	43.338	0	442.50	0	5.3180	0	36.8210	8	29.086	0	438.506	0	74.8	4	24.8	4	-1E+10	1	-1E+10	1	-1E+10	1	-1E+10	1	-1E+10	1	-1E+10	1
4901784	206	C	02/23/2021	10:43	-134.848	43.338	0	445.20	0	5.3000	0	36.8200	8	29.087	0	441.179	0	74.7	4	24.8	4	-1E+10	1	-1E+10	1	-1E+10	1	-1E+10	1	-1E+10	1	-1E+10	1
4901784	206	C	02/23/2021	10:43	-134.848	43.338	0	447.00	0	5.2850	0	36.8210	8	29.090	0	442.961	0	74.6	4	24.8	4	-1E+10	1	-1E+10	1	-1E+10	1	-1E+10	1	-1E+10	1	-1E+10	1
4901784	206	C	02/23/2021	10:43	-134.848	43.338	0	449.70	0	5.2780	0	36.8210	8	29.091	0	445.633	0	74.5	4	24.7	4	-1E+10	1	-1E+10	1	-1E+10	1	-1E+10	1	-1E+10	1	-1E+10	1
4901784	206	C	02/23/2021	10:43	-134.848	43.338	0	452.40	0	5.2710	0	36.8190	8	29.090	0	448.306	0	74.5	4	24.7	4	-1E+10	1	-1E+10	1	-1E+10	1	-1E+10	1	-1E+10	1	-1E+10	1
4901784	206	C	02/23/2021	10:43	-134.848	43.338	0	455.20	0	5.2440	0	36.8160	8	29.091	0	451.078	0	74.4	4	24.7	4	-1E+10	1	-1E+10	1	-1E+10	1	-1E+10	1	-1E+10	1	-1E+10	1
4901784	206	C	02/23/2021	10:43	-134.848	43.338	0	457.90	0	5.1640	0	36.8170	8	29.102	0	453.750	0	74.2	4	24.5	4	-1E+10	1	-1E+10	1	-1E+10	1	-1E+10	1	-1E+10	1	-1E+10	1
4901784	206	C	02/23/2021	10:43	-134.848	43.338	0	459.70	0	5.1240	0	36.8180	8	29.107	0	455.532	0	73.7	4	24.4	4	-1E+10	1	-1E+10	1	-1E+10	1	-1E+10	1	-1E+10	1	-1E+10	1
4901784	206	C	02/23/2021	10:43	-134.848	43.338	0	462.40	0	5.1170	0	36.8220	8	29.111	0	458.205	0	73.0	4	24.1	4	-1E+10	1	-1E+10	1	-1E+10	1	-1E+10	1	-1E+10	1	-1E+10	1
4901784	206	C	02/23/2021	10:43	-134.848	43.338	0	465.10	0	5.0850	0	36.8260	8	29.118	0	460.877	0	72.6	4	24.0	4	-1E+10	1	-1E+10	1	-1E+10	1	-1E+10	1	-1E+10	1	-1E+10	1
4901784	206	C	02/23/2021	10:43	-134.848	43.338	0	467.80	0	5.0830	0	36.8250	8	29.118	0	463.550	0	72.4	4	23.9	4	-1E+10	1	-1E+10	1	-1E+10	1	-1E+10	1	-1E+10	1	-1E+10	1
4901784	206	C	02/23/2021	10:43	-134.848	43.338	0	470.50	0	5.0750	0	36.8230	8	29.117	0	466.222	0	72.2	4	23.8	4	-1E+10	1	-1E+10	1	-1E+10	1	-1E+10	1	-1E+10	1	-1E+10	1
4901784	206	C	02/23/2021	10:43	-134.848	43.338	0	472.20	0	5.0390	0	36.8250	8	29.123	0	467.905	0	72.0	4	23.8	4	-1E+10	1	-1E+10	1	-1E+10	1	-1E+10	1	-1E+10	1	-1E+10	1
4901784	206	C	02/23/2021	10:43	-134.848	43.338	0	475.00	0	5.0130	0	36.8240	8	29.126	0	470.676	0	71.7	4	23.7	4	-1E+10	1	-1E+10	1	-1E+10	1	-1E+10	1	-1E+10	1	-1E+10	1
4901784	206	C	02/23/2021	10:43	-134.848	43.338	0	477.70	0	4.9750	0	36.8250	8	29.131	0	473.348	0	71.1	4	23.4	4	-1E+10	1	-1E+10	1	-1E+10	1	-1E+10	1	-1E+10	1	-1E+10	1
4901784	206	C	02/23/2021	10:43	-134.848	43.338	0	479.50	0	4.9490	0	36.8250	8	29.134	0	475.130	0	70.6	4	23.3	4	-1E+10	1	-1E+10	1	-1E+10	1	-1E+10	1	-1E+10	1	-1E+10	1
4901784	206	C	02/23/2021	10:43	-134.848	43.338	0	482.30	0	4.9200	0	36.8290	8	29.141	0	477.901	0	69.8	4	23.0	4	-1E+10	1	-1E+10	1	-1E+10	1	-1E+10	1	-1E+10	1	-1E+10	1
4901784	206	C	02/23/2021	10:43	-134.848	43.338	0	485.00	0	4.8910	0	36.8300	8	29.145	0	480.573	0	69.1	4	22.7	4	-1E+10	1	-1E+10	1	-1E+10	1	-1E+10	1	-1E+10	1	-1E+10	1
4901784	206	C	02/23/2021	10:43	-134.848	43.338	0	487.80	0	4.8440	0	36.8350	8	29.155	0	483.345	0	68.5	4	22.5	4	-1E+10	1	-1E+10	1	-1E+10	1	-1E+10	1	-1E+10	1	-1E+10	1
4901784	206	C	02/23/2021	10:43	-134.848	43.338	0	490.50	0	4.8190	0	36.8380	8	29.160	0	486.017	0	68.1	4	22.4	4	-1E+10	1	-1E+10	1	-1E+10	1	-1E+10	1	-1E+10	1	-1E+10	1
4901784	206	C	02/23/2021	10:43	-134.848	43.338	0	492.40	0	4.8050	0	36.8390	8	29.163	0	487.897	0	67.6	4	22.2	4	-1E+10	1	-1E+10	1	-1E+10	1	-1E+10	1	-1E+10	1	-1E+10	1
4901784	206	C	02/23/2021	10:43	-134.848	43.338	0	495.10	0	4.7810	0	36.8420	8	29.168	0	490.569	0	67.2	4	22.0	4	-1E+10	1	-1E+10	1	-1E+10	1	-1E+10	1	-1E+10	1	-1E+10	1
4901784	206	C	02/23/2021	10:43	-134.848	43.338	0	497.80	0	4.7670	0	36.8430	8	29.170	0	493.241	0	66.9	4	21.9	4	-1E+10	1	-1E+10	1	-1E+10	1	-1E+10	1	-1E+10	1	-1E+10	1
4901784	206	C	02/23/2021	10:43	-134.848	43.338	0	499.70	0	4.7560	0	36.8430	8	29.172	0	495.122	0	66.5	4	21.8	4	-1E+10	1	-1E+10	1	-1E+10	1	-1E+10	1	-1E+10	1	-1E+10	1
4901784	206	C	02/23/2021	10:43	-134.848	43.338	0	505.20	0	4.7230	0	36.8480	8	29.180	0	500.565	0	64.7	4	21.2	4	-1E+10	1	-1E+10	1	-1E+10	1	-1E+10	1	-1E+10	1	-1E+10	1
4901784	206	C	02/23/2021	10:43	-134.848	43.338	0	509.80	0	4.7050	0	36.8520	8	29.185	0	505.117	0	62.2	4	20.4	4	-1E+10	1	-1E+10	1	-1E+10	1	-1E+10	1	-1E+10	1	-1E+10	1
4901784	206	C	02/23/2021	10:43	-134.848	43.338	0	514.40	0	4.6830	0	36.8600	8	29.194	0	509.669	0	59.6	4	19.5	4	-1E+10	1	-1E+10	1	-1E+10	1	-1E+10	1	-1E+10	1	-1E+10	1
4901784	206	C	02/23/2021	10:43	-134.848	43.338	0	520.00	0	4.6580	0	36.8670	8	29.202	0	515.211	0	57.3	4	18.8	4	-1E+10	1	-1E+10	1	-1E+10	1	-1E+10	1	-1E+10	1	-1E+10	1
4901784	206	C	02/23/2021	10:43	-134.848	43.338	0	524.80	0	4.6350	0	36.8730	8	29.210	0	519.960	0	55.6	4	18.2	4	-1E+10	1	-1E+10	1	-1E+10	1	-1E+10	1	-1E+10	1	-1E+10	1
4901784	206	C	02/23/2021	10:43	-134.848	43.338	0	530.30	0	4.6050	0	36.8810	8	29.220	0	525.403	0	53.6	4	17.5	4	-1E+10	1	-1E+10	1	-1E+10	1	-1E+10	1	-1E+10	1	-1E+10	1
4901784	206	C	02/23/2021	10:43	-134.848	43.338	0	535.40	0	4.5720	0	36.8880	8	29.229	0	530.449	0	51.7	4	16.9	4	-1E+10	1	-1E+10	1	-1E+10	1	-1E+10	1	-1E+10	1	-1E+10	1
4901784	206	C	02/23/2021	10:43	-134.848	43.338	0	540.20	0	4.5390	0	36.8960	8	29.240	0	535.199	0	50.4	4	16.5	4	-1E+10	1	-1E+10	1	-1E+10	1	-1E+10	1	-1E+10	1	-1E+10	1
4901784	206	C	02/23/2021	10:43	-134.848	43.338	0	545.10	0	4.5300	0	36.8990	8	29.243	0	540.047	0	48.9	4	15.9	4	-1E+10	1	-1E+10	1	-1E+10	1	-1E+10	1	-1E+10	1	-1E+10	1
4901784	206	C	02/23/2021	10:43	-134.848	43.338	0	550.10	0	4.5070	0	36.9080	8	29.253	0	544.994	0	47.1	4	15.4	4	-1E+10	1	-1E+10	1	-1E+10	1	-1E+10	1	-1E+10	1	-1E+10	1
4901784	206	C	02/23/2021	10:43	-134.848	43.338	0	555.20	0	4.4950	0	36.9130	8	29.258	0	550.040	0	45.9	4	15.0	4	-1E+10	1	-1E+10	1	-1E+10	1	-1E+10	1	-1E+10	1	-1E+10	1
4901784	206	C	02/23/2021	10:43	-134.848	43.338	0	560.30	0	4.4810	0	36.9170	8	29.263	0	555.086	0	44.2	4	14.4	4	-1E+10	1	-1E+10	1	-1E+10	1	-1E+10	1	-1E+10	1	-1E+10	1
4901784	206	C	02/23/2021	10:43	-134.848	43.338	0	565.50	0	4.4610	0	36.9260	8	29.273	0	560.230	0	42.5	4	13.9	4	-1E+10	1	-1E+10	1	-1E+10	1	-1E+10	1	-1E+10	1	-1E+10	1
4901784	206	C	02/23/2021	10:43	-134.848	43.338	0	570.00	0	4.4580	0	36.9320	8	29.278	0	564.682	0	41.5	4	13.5	4	-1E+10	1	-1E+10	1	-1E+10	1	-1E+10	1	-1E+10	1	-1E+10	1
4901784	206	C	02/23/2021	10:43	-134.848	43.338	0	574.40	0	4.4440	0	36.9350	8	29.282	0	569.035	0	40.4	4	13.2	4	-1E+10	1	-1E+10	1	-1E+10	1	-1E+10	1	-1E+10	1	-1E+10	1
4901784	206	C	02/23/2021	10:43	-134.848	43.338	0	579.90	0	4.4310	0	36.9410	8	29.288	0	574.476	0	39.0	4	12.7	4	-1E+10	1	-1E+10	1	-1E+10	1	-1E+10	1	-1E+10	1	-1E+10	1
4901784	206	C	02/23/2021	10:43	-134.848	43.338	0	585.30	0	4.4180	0	36.9480	8	29.295	0	579.818	0	37.3	4	12.1	4	-1E+10	1	-1E+10	1	-1E+10	1	-1E+10	1	-1E+10	1	-1E+10	1
4901784	206	C	02/23/2021	10:43	-134.848	43.338	0	589.90	0	4.4220	0	36.9560	8	29.301	0	584.369	0	35.8	4	11.7	4	-1E+10	1	-1E+10	1	-1E+10	1	-1E+10	1	-1E+10	1	-1E+10	1
4901784	206	C	02/23/2021	10:43	-134.848	43.338	0	594.40	0	4.4080	0	36.9610	8	29.307	0	588.820	0	34.4	4	11.2	4	-1E+10	1	-1E+10	1	-1E+10	1	-1E+10	1	-1E+10	1	-1E+10	1
4901784	206	C	02/23/2021	10:43	-134.848	43.338	0	599.90	0	4.4070	0	36.9710	8	29.315	0	594.261	0	32.6	4	10.6	4	-1E+10	1	-1E+10	1	-1E+10	1	-1E+10	1	-1E+10	1	-1E+10	1
4901784	206	C	02/23/2021	10:43	-134.848	43.338	0	605.30	0	4.3960	0	36.9800	8	29.323	0	599.602	0	31.2	4	10.2	4	-1E+10	1	-1E+10	1	-1E+10	1	-1E+10	1	-1E+10	1	-1E+10	1
4901784	206	C	02/23/2021	10:43	-134.848	43.338	0	609.90	0	4.3710	0	36.9850	8	29.330	0	604.152	0	30.4	4	9.9	4	-1E+10	1	-1E+10	1	-1E+10	1	-1E+10	1	-1E+10	1	-1E+10	1
4901784	206	C	02/23/2021	10:43	-134.848	43.338	0	614.50	0	4.3510	0	36.9920	8	29.338	0	608.702	0	29.6	4	9.6	4	-1E+10	1	-1E+10	1	-1E+10	1	-1E+10	1	-1E+10	1	-1E+10	1
4901784	206	C	02/23/2021	10:43	-134.848	43.338	0	620.10	0	4.3320	0	36.9940	8	29.342	0	614.241	0	29.1	4	9.4	4	-1E+10	1	-1E+10	1	-1E+10	1	-1E+10	1	-1E+10	1	-1E+10	1
4901784	206	C	02/23/2021	10:43	-134.848	43.338	0	624.80	0	4.3140	0	36.9990	8	29.348	0	618.890	0	28.3	4	9.2	4	-1E+10	1	-1E+10	1	-1E+10	1	-1E+10	1	-1E+10	1	-1E+10	1
4901784	206	C	02/23/2021	10:43	-134.848	43.338	0	629.40	0	4.3000	0	37.0050	8	29.354	0	623.439	0	27.8	4	9.0	4	-1E+10	1	-1E+10	1	-1E+10	1	-1E+10	1	-1E+10	1	-1E+10	1
4901784	206	C	02/23/2021	10:43	-134.848	43.338	0	635.00	0	4.2890	0	37.0080	8	29.358	0	628.978	0	27.2	4	8.8	4	-1E+10	1	-1E+10	1	-1E+10	1	-1E+10	1	-1E+10	1	-1E+10	1
4901784	206	C	02/23/2021	10:43	-134.848	43.338	0	640.50	0	4.2800	0	37.0140	8	29.364	0	634.417	0	26.5	4	8.6	4	-1E+10	1	-1E+10	1	-1E+10	1	-1E+10	1	-1E+10	1	-1E+10	1
4901784	206	C	02/23/2021	10:43	-134.848	43.338	0	645.00	0	4.2760	0	37.0170	8	29.367	0	638.868	0	26.1	4	8.5	4	-1E+10	1	-1E+10	1	-1E+10	1	-1E+10	1	-1E+10	1	-1E+10	1
4901784	206	C	02/23/2021	10:43	-134.848	43.338	0	649.60	0	4.2700	0	37.0200	8	29.370	0	643.417	0	25.7	4	8.3	4	-1E+10	1	-1E+10	1	-1E+10	1	-1E+10	1	-1E+10	1	-1E+10	1
4901784	206	C	02/23/2021	10:43	-134.848	43.338	0	655.20	0	4.2560	0	37.0240	8	29.375	0	648.955	0	25.1	4	8.1	4	-1E+10	1	-1E+10	1	-1E+10	1	-1E+10	1	-1E+10	1	-1E+10	1
4901784	206	C	02/23/2021	10:43	-134.848	43.338	0	659.80	0	4.2440	0	37.0260	8	29.378	0	653.504	0	24.5	4	8.0	4	-1E+10	1	-1E+10	1	-1E+10	1	-1E+10	1	-1E+10	1	-1E+10	1
4901784	206	C	02/23/2021	10:43	-134.848	43.338	0	664.50	0	4.2260	0	37.0300	8	29.383	0	658.151	0	23.6	4	7.6	4	-1E+10	1	-1E+10	1	-1E+10	1	-1E+10	1	-1E+10	1	-1E+10	1
4901784	206	C	02/23/2021	10:43	-134.848	43.338	0	670.20	0	4.2150	0	37.0420	8	29.394	0	663.788	0	22.0	4	7.1	4	-1E+10	1	-1E+10	1	-1E+10	1	-1E+10	1	-1E+10	1	-1E+10	1
4901784	206	C	02/23/2021	10:43	-134.848	43.338	0	675.10	0	4.2290	0	37.0510	8	29.399	0	668.633	0	20.8	4	6.8	4	-1E+10	1	-1E+10	1	-1E+10	1	-1E+10	1	-1E+10	1	-1E+10	1
4901784	206	C	02/23/2021	10:43	-134.848	43.338	0	679.80	0	4.2300	0	37.0590	8	29.406	0	673.280	0	19.8	4	6.4	4	-1E+10	1	-1E+10	1	-1E+10	1	-1E+10	1	-1E+10	1	-1E+10	1
4901784	206	C	02/23/2021	10:43	-134.848	43.338	0	685.40	0	4.2240	0	37.0690	8	29.414	0	678.818	0	19.0	4	6.1	4	-1E+10	1	-1E+10	1	-1E+10	1	-1E+10	1	-1E+10	1	-1E+10	1
4901784	206	C	02/23/2021	10:43	-134.848	43.338	0	690.10	0	4.2180	0	37.0720	8	29.417	0	683.465	0	18.4	4	6.0	4	-1E+10	1	-1E+10	1	-1E+10	1	-1E+10	1	-1E+10	1	-1E+10	1
4901784	206	C	02/23/2021	10:43	-134.848	43.338	0	694.90	0	4.2070	0	37.0810	8	29.426	0	688.211	0	17.8	4	5.8	4	-1E+10	1	-1E+10	1	-1E+10	1	-1E+10	1	-1E+10	1	-1E+10	1
4901784	206	C	02/23/2021	10:43	-134.848	43.338	0	699.70	0	4.2050	0	37.0850	8	29.429	0	692.957	0	17.4	4	5.6	4	-1E+10	1	-1E+10	1	-1E+10	1	-1E+10	1	-1E+10	1	-1E+10	1
4901784	206	C	02/23/2021	10:43	-134.848	43.338	0	704.40	0	4.2030	0	37.0900	8	29.434	0	697.603	0	17.0	4	5.5	4	-1E+10	1	-1E+10	1	-1E+10	1	-1E+10	1	-1E+10	1	-1E+10	1
4901784	206	C	02/23/2021	10:43	-134.848	43.338	0	710.10	0	4.2040	0	37.0930	8	29.436	0	703.239	0	16.6	4	5.4	4	-1E+10	1	-1E+10	1	-1E+10	1	-1E+10	1	-1E+10	1	-1E+10	1
4901784	206	C	02/23/2021	10:43	-134.848	43.338	0	714.80	0	4.2020	0	37.0980	8	29.440	0	707.885	0	16.3	4	5.3	4	-1E+10	1	-1E+10	1	-1E+10	1	-1E+10	1	-1E+10	1	-1E+10	1
4901784	206	C	02/23/2021	10:43	-134.848	43.338	0	719.60	0	4.1970	0	37.1000	8	29.442	0	712.631	0	16.0	4	5.2	4	-1E+10	1	-1E+10	1	-1E+10	1	-1E+10	1	-1E+10	1	-1E+10	1
4901784	206	C	02/23/2021	10:43	-134.848	43.338	0	725.20	0	4.1890	0	37.1060	8	29.448	0	718.167	0	15.5	4	5.0	4	-1E+10	1	-1E+10	1	-1E+10	1	-1E+10	1	-1E+10	1	-1E+10	1
4901784	206	C	02/23/2021	10:43	-134.848	43.338	0	729.80	0	4.1830	0	37.1110	8	29.453	0	722.714	0	15.2	4	4.9	4	-1E+10	1	-1E+10	1	-1E+10	1	-1E+10	1	-1E+10	1	-1E+10	1
4901784	206	C	02/23/2021	10:43	-134.848	43.338	0	734.50	0	4.1800	0	37.1140	8	29.456	0	727.360	0	14.8	4	4.8	4	-1E+10	1	-1E+10	1	-1E+10	1	-1E+10	1	-1E+10	1	-1E+10	1
4901784	206	C	02/23/2021	10:43	-134.848	43.338	0	740.10	0	4.1730	0	37.1210	8	29.462	0	732.896	0	14.5	4	4.7	4	-1E+10	1	-1E+10	1	-1E+10	1	-1E+10	1	-1E+10	1	-1E+10	1
4901784	206	C	02/23/2021	10:43	-134.848	43.338	0	744.80	0	4.1660	0	37.1260	8	29.467	0	737.542	0	14.2	4	4.6	4	-1E+10	1	-1E+10	1	-1E+10	1	-1E+10	1	-1E+10	1	-1E+10	1
4901784	206	C	02/23/2021	10:43	-134.848	43.338	0	750.30	0	4.1620	0	37.1300	8	29.470	0	742.979	0	13.9	4	4.5	4	-1E+10	1	-1E+10	1	-1E+10	1	-1E+10	1	-1E+10	1	-1E+10	1
4901784	206	C	02/23/2021	10:43	-134.848	43.338	0	755.50	0	4.1590	0	37.1350	8	29.475	0	748.119	0	13.6	4	4.4	4	-1E+10	1	-1E+10	1	-1E+10	1	-1E+10	1	-1E+10	1	-1E+10	1
4901784	206	C	02/23/2021	10:43	-134.848	43.338	0	760.30	0	4.1540	0	37.1380	8	29.478	0	752.863	0	13.4	4	4.4	4	-1E+10	1	-1E+10	1	-1E+10	1	-1E+10	1	-1E+10	1	-1E+10	1
4901784	206	C	02/23/2021	10:43	-134.848	43.338	0	765.20	0	4.1440	0	37.1410	8	29.481	0	757.706	0	13.2	4	4.3	4	-1E+10	1	-1E+10	1	-1E+10	1	-1E+10	1	-1E+10	1	-1E+10	1
4901784	206	C	02/23/2021	10:43	-134.848	43.338	0	770.00	0	4.1310	0	37.1470	8	29.488	0	762.451	0	12.8	4	4.2	4	-1E+10	1	-1E+10	1	-1E+10	1	-1E+10	1	-1E+10	1	-1E+10	1
4901784	206	C	02/23/2021	10:43	-134.848	43.338	0	774.90	0	4.1140	0	37.1540	8	29.495	0	767.294	0	12.5	4	4.0	4	-1E+10	1	-1E+10	1	-1E+10	1	-1E+10	1	-1E+10	1	-1E+10	1
4901784	206	C	02/23/2021	10:43	-134.848	43.338	0	779.80	0	4.0980	0	37.1610	8	29.503	0	772.136	0	12.3	4	4.0	4	-1E+10	1	-1E+10	1	-1E+10	1	-1E+10	1	-1E+10	1	-1E+10	1
4901784	206	C	02/23/2021	10:43	-134.848	43.338	0	784.60	0	4.0810	0	37.1670	8	29.509	0	776.880	0	12.1	4	3.9	4	-1E+10	1	-1E+10	1	-1E+10	1	-1E+10	1	-1E+10	1	-1E+10	1
4901784	206	C	02/23/2021	10:43	-134.848	43.338	0	789.50	0	4.0750	0	37.1690	8	29.512	0	781.723	0	12.0	4	3.9	4	-1E+10	1	-1E+10	1	-1E+10	1	-1E+10	1	-1E+10	1	-1E+10	1
4901784	206	C	02/23/2021	10:43	-134.848	43.338	0	794.50	0	4.0540	0	37.1750	8	29.519	0	786.664	0	11.8	4	3.8	4	-1E+10	1	-1E+10	1	-1E+10	1	-1E+10	1	-1E+10	1	-1E+10	1
4901784	206	C	02/23/2021	10:43	-134.848	43.338	0	799.40	0	4.0510	0	37.1830	8	29.525	0	791.507	0	11.6	4	3.7	4	-1E+10	1	-1E+10	1	-1E+10	1	-1E+10	1	-1E+10	1	-1E+10	1
4901784	206	C	02/23/2021	10:43	-134.848	43.338	0	804.30	0	4.0320	0	37.1860	8	29.530	0	796.349	0	11.5	4	3.7	4	-1E+10	1	-1E+10	1	-1E+10	1	-1E+10	1	-1E+10	1	-1E+10	1
4901784	206	C	02/23/2021	10:43	-134.848	43.338	0	809.30	0	4.0260	0	37.1880	8	29.532	0	801.290	0	11.4	4	3.7	4	-1E+10	1	-1E+10	1	-1E+10	1	-1E+10	1	-1E+10	1	-1E+10	1
4901784	206	C	02/23/2021	10:43	-134.848	43.338	0	814.30	0	4.0140	0	37.1910	8	29.536	0	806.231	0	11.2	4	3.6	4	-1E+10	1	-1E+10	1	-1E+10	1	-1E+10	1	-1E+10	1	-1E+10	1
4901784	206	C	02/23/2021	10:43	-134.848	43.338	0	819.20	0	4.0000	0	37.1970	8	29.542	0	811.073	0	11.1	4	3.6	4	-1E+10	1	-1E+10	1	-1E+10	1	-1E+10	1	-1E+10	1	-1E+10	1
4901784	206	C	02/23/2021	10:43	-134.848	43.338	0	824.30	0	3.9950	0	37.2010	8	29.546	0	816.112	0	11.0	4	3.5	4	-1E+10	1	-1E+10	1	-1E+10	1	-1E+10	1	-1E+10	1	-1E+10	1
4901784	206	C	02/23/2021	10:43	-134.848	43.338	0	829.50	0	3.9770	0	37.2050	8	29.551	0	821.250	0	10.9	4	3.5	4	-1E+10	1	-1E+10	1	-1E+10	1	-1E+10	1	-1E+10	1	-1E+10	1
4901784	206	C	02/23/2021	10:43	-134.848	43.338	0	834.60	0	3.9650	0	37.2080	8	29.555	0	826.289	0	10.8	4	3.5	4	-1E+10	1	-1E+10	1	-1E+10	1	-1E+10	1	-1E+10	1	-1E+10	1
4901784	206	C	02/23/2021	10:43	-134.848	43.338	0	839.90	0	3.9600	0	37.2120	8	29.559	0	831.526	0	10.7	4	3.4	4	-1E+10	1	-1E+10	1	-1E+10	1	-1E+10	1	-1E+10	1	-1E+10	1
4901784	206	C	02/23/2021	10:43	-134.848	43.338	0	845.20	0	3.9380	0	37.2180	8	29.566	0	836.763	0	10.6	4	3.4	4	-1E+10	1	-1E+10	1	-1E+10	1	-1E+10	1	-1E+10	1	-1E+10	1
4901784	206	C	02/23/2021	10:43	-134.848	43.338	0	850.50	0	3.9270	0	37.2230	8	29.571	0	841.999	0	10.5	4	3.4	4	-1E+10	1	-1E+10	1	-1E+10	1	-1E+10	1	-1E+10	1	-1E+10	1
4901784	206	C	02/23/2021	10:43	-134.848	43.338	0	855.00	0	3.9200	0	37.2240	8	29.573	0	846.445	0	10.4	4	3.4	4	-1E+10	1	-1E+10	1	-1E+10	1	-1E+10	1	-1E+10	1	-1E+10	1
4901784	206	C	02/23/2021	10:43	-134.848	43.338	0	859.60	0	3.9030	0	37.2280	8	29.578	0	850.990	0	10.4	4	3.3	4	-1E+10	1	-1E+10	1	-1E+10	1	-1E+10	1	-1E+10	1	-1E+10	1
4901784	206	C	02/23/2021	10:43	-134.848	43.338	0	865.10	0	3.8880	0	37.2310	8	29.582	0	856.423	0	10.3	4	3.3	4	-1E+10	1	-1E+10	1	-1E+10	1	-1E+10	1	-1E+10	1	-1E+10	1
4901784	206	C	02/23/2021	10:43	-134.848	43.338	0	869.80	0	3.8710	0	37.2370	8	29.589	0	861.066	0	10.3	4	3.3	4	-1E+10	1	-1E+10	1	-1E+10	1	-1E+10	1	-1E+10	1	-1E+10	1
4901784	206	C	02/23/2021	10:43	-134.848	43.338	0	874.90	0	3.8760	0	37.2420	8	29.592	0	866.105	0	10.2	4	3.3	4	-1E+10	1	-1E+10	1	-1E+10	1	-1E+10	1	-1E+10	1	-1E+10	1
4901784	206	C	02/23/2021	10:43	-134.848	43.338	0	880.10	0	3.8540	0	37.2450	8	29.597	0	871.242	0	10.2	4	3.3	4	-1E+10	1	-1E+10	1	-1E+10	1	-1E+10	1	-1E+10	1	-1E+10	1
4901784	206	C	02/23/2021	10:43	-134.848	43.338	0	884.90	0	3.8330	0	37.2510	8	29.604	0	875.983	0	10.1	4	3.3	4	-1E+10	1	-1E+10	1	-1E+10	1	-1E+10	1	-1E+10	1	-1E+10	1
4901784	206	C	02/23/2021	10:43	-134.848	43.338	0	889.80	0	3.8250	0	37.2550	8	29.608	0	880.824	0	10.1	4	3.2	4	-1E+10	1	-1E+10	1	-1E+10	1	-1E+10	1	-1E+10	1	-1E+10	1
4901784	206	C	02/23/2021	10:43	-134.848	43.338	0	894.70	0	3.8260	0	37.2600	8	29.612	0	885.664	0	10.0	4	3.2	4	-1E+10	1	-1E+10	1	-1E+10	1	-1E+10	1	-1E+10	1	-1E+10	1
4901784	206	C	02/23/2021	10:43	-134.848	43.338	0	899.70	0	3.8060	0	37.2610	8	29.615	0	890.603	0	10.0	4	3.2	4	-1E+10	1	-1E+10	1	-1E+10	1	-1E+10	1	-1E+10	1	-1E+10	1
4901784	206	C	02/23/2021	10:43	-134.848	43.338	0	904.70	0	3.7900	0	37.2630	8	29.619	0	895.541	0	10.0	4	3.2	4	-1E+10	1	-1E+10	1	-1E+10	1	-1E+10	1	-1E+10	1	-1E+10	1
4901784	206	C	02/23/2021	10:43	-134.848	43.338	0	909.70	0	3.7890	0	37.2660	8	29.621	0	900.480	0	10.0	4	3.2	4	-1E+10	1	-1E+10	1	-1E+10	1	-1E+10	1	-1E+10	1	-1E+10	1
4901784	206	C	02/23/2021	10:43	-134.848	43.338	0	914.80	0	3.7840	0	37.2700	8	29.625	0	905.517	0	10.0	4	3.2	4	-1E+10	1	-1E+10	1	-1E+10	1	-1E+10	1	-1E+10	1	-1E+10	1
4901784	206	C	02/23/2021	10:43	-134.848	43.338	0	919.90	0	3.7760	0	37.2720	8	29.627	0	910.554	0	10.0	4	3.2	4	-1E+10	1	-1E+10	1	-1E+10	1	-1E+10	1	-1E+10	1	-1E+10	1
4901784	206	C	02/23/2021	10:43	-134.848	43.338	0	925.00	0	3.7610	0	37.2750	8	29.631	0	915.592	0	10.0	4	3.2	4	-1E+10	1	-1E+10	1	-1E+10	1	-1E+10	1	-1E+10	1	-1E+10	1
4901784	206	C	02/23/2021	10:43	-134.848	43.338	0	930.10	0	3.7450	0	37.2780	8	29.636	0	920.628	0	10.0	4	3.2	4	-1E+10	1	-1E+10	1	-1E+10	1	-1E+10	1	-1E+10	1	-1E+10	1
4901784	206	C	02/23/2021	10:43	-134.848	43.338	0	935.20	0	3.7330	0	37.2820	8	29.640	0	925.665	0	10.0	4	3.2	4	-1E+10	1	-1E+10	1	-1E+10	1	-1E+10	1	-1E+10	1	-1E+10	1
4901784	206	C	02/23/2021	10:43	-134.848	43.338	0	940.40	0	3.7340	0	37.2850	8	29.642	0	930.801	0	10.0	4	3.2	4	-1E+10	1	-1E+10	1	-1E+10	1	-1E+10	1	-1E+10	1	-1E+10	1
4901784	206	C	02/23/2021	10:43	-134.848	43.338	0	945.60	0	3.7340	0	37.2870	8	29.644	0	935.936	0	10.0	4	3.2	4	-1E+10	1	-1E+10	1	-1E+10	1	-1E+10	1	-1E+10	1	-1E+10	1
4901784	206	C	02/23/2021	10:43	-134.848	43.338	0	949.90	0	3.7300	0	37.2910	8	29.648	0	940.182	0	10.0	4	3.2	4	-1E+10	1	-1E+10	1	-1E+10	1	-1E+10	1	-1E+10	1	-1E+10	1
4901784	206	C	02/23/2021	10:43	-134.848	43.338	0	954.30	0	3.7210	0	37.2950	8	29.652	0	944.527	0	10.1	4	3.2	4	-1E+10	1	-1E+10	1	-1E+10	1	-1E+10	1	-1E+10	1	-1E+10	1
4901784	206	C	02/23/2021	10:43	-134.848	43.338	0	959.60	0	3.7170	0	37.2980	8	29.655	0	949.761	0	10.1	4	3.3	4	-1E+10	1	-1E+10	1	-1E+10	1	-1E+10	1	-1E+10	1	-1E+10	1
4901784	206	C	02/23/2021	10:43	-134.848	43.338	0	964.80	0	3.7100	0	37.3030	8	29.659	0	954.896	0	10.2	4	3.3	4	-1E+10	1	-1E+10	1	-1E+10	1	-1E+10	1	-1E+10	1	-1E+10	1
4901784	206	C	02/23/2021	10:43	-134.848	43.338	0	970.10	0	3.7080	0	37.3050	8	29.661	0	960.129	0	10.2	4	3.3	4	-1E+10	1	-1E+10	1	-1E+10	1	-1E+10	1	-1E+10	1	-1E+10	1
4901784	206	C	02/23/2021	10:43	-134.848	43.338	0	975.40	0	3.7000	0	37.3050	8	29.662	0	965.363	0	10.2	4	3.3	4	-1E+10	1	-1E+10	1	-1E+10	1	-1E+10	1	-1E+10	1	-1E+10	1
4901784	206	C	02/23/2021	10:43	-134.848	43.338	0	979.80	0	3.6770	0	37.3060	8	29.666	0	969.707	0	10.1	4	3.3	4	-1E+10	1	-1E+10	1	-1E+10	1	-1E+10	1	-1E+10	1	-1E+10	1
4901784	206	C	02/23/2021	10:43	-134.848	43.338	0	984.30	0	3.6480	0	37.3060	8	29.669	0	974.150	0	10.1	4	3.2	4	-1E+10	1	-1E+10	1	-1E+10	1	-1E+10	1	-1E+10	1	-1E+10	1
4901784	206	C	02/23/2021	10:43	-134.848	43.338	0	989.60	0	3.6170	0	37.3080	8	29.674	0	979.383	0	10.1	4	3.2	4	-1E+10	1	-1E+10	1	-1E+10	1	-1E+10	1	-1E+10	1	-1E+10	1
4901784	206	C	02/23/2021	10:43	-134.848	43.338	0	994.90	0	3.5930	0	37.3090	8	29.677	0	984.616	0	10.1	4	3.2	4	-1E+10	1	-1E+10	1	-1E+10	1	-1E+10	1	-1E+10	1	-1E+10	1
4901784	206	C	02/23/2021	10:43	-134.848	43.338	0	1000.20	0	3.5700	0	37.3140	8	29.683	0	989.849	0	10.1	4	3.2	4	-1E+10	1	-1E+10	1	-1E+10	1	-1E+10	1	-1E+10	1	-1E+10	1
4901784	206	C	02/23/2021	10:43	-134.848	43.338	0	1005.60	0	3.5660	0	37.3160	8	29.685	0	995.180	0	10.2	4	3.3	4	-1E+10	1	-1E+10	1	-1E+10	1	-1E+10	1	-1E+10	1	-1E+10	1
4901784	206	C	02/23/2021	10:43	-134.848	43.338	0	1010.10	0	3.5600	0	37.3200	8	29.689	0	999.623	0	10.3	4	3.3	4	-1E+10	1	-1E+10	1	-1E+10	1	-1E+10	1	-1E+10	1	-1E+10	1
4901784	206	C	02/23/2021	10:43	-134.848	43.338	0	1014.50	0	3.5430	0	37.3240	8	29.694	0	1003.967	0	10.3	4	3.3	4	-1E+10	1	-1E+10	1	-1E+10	1	-1E+10	1	-1E+10	1	-1E+10	1
4901784	206	C	02/23/2021	10:43	-134.848	43.338	0	1019.90	0	3.5480	0	37.3290	8	29.698	0	1009.298	0	10.4	4	3.3	4	-1E+10	1	-1E+10	1	-1E+10	1	-1E+10	1	-1E+10	1	-1E+10	1
4901784	206	C	02/23/2021	10:43	-134.848	43.338	0	1025.40	0	3.5260	0	37.3300	8	29.701	0	1014.727	0	10.4	4	3.3	4	-1E+10	1	-1E+10	1	-1E+10	1	-1E+10	1	-1E+10	1	-1E+10	1
4901784	206	C	02/23/2021	10:43	-134.848	43.338	0	1030.00	0	3.5200	0	37.3310	8	29.702	0	1019.268	0	10.4	4	3.3	4	-1E+10	1	-1E+10	1	-1E+10	1	-1E+10	1	-1E+10	1	-1E+10	1
4901784	206	C	02/23/2021	10:43	-134.848	43.338	0	1034.50	0	3.5150	0	37.3330	8	29.704	0	1023.710	0	10.4	4	3.3	4	-1E+10	1	-1E+10	1	-1E+10	1	-1E+10	1	-1E+10	1	-1E+10	1
4901784	206	C	02/23/2021	10:43	-134.848	43.338	0	1039.90	0	3.4980	0	37.3360	8	29.709	0	1029.041	0	10.5	4	3.3	4	-1E+10	1	-1E+10	1	-1E+10	1	-1E+10	1	-1E+10	1	-1E+10	1
4901784	206	C	02/23/2021	10:43	-134.848	43.338	0	1045.20	0	3.4810	0	37.3380	8	29.712	0	1034.272	0	10.5	4	3.3	4	-1E+10	1	-1E+10	1	-1E+10	1	-1E+10	1	-1E+10	1	-1E+10	1
4901784	206	C	02/23/2021	10:43	-134.848	43.338	0	1050.60	0	3.4640	0	37.3410	8	29.716	0	1039.602	0	10.5	4	3.4	4	-1E+10	1	-1E+10	1	-1E+10	1	-1E+10	1	-1E+10	1	-1E+10	1
4901784	206	C	02/23/2021	10:43	-134.848	43.338	0	1055.20	0	3.4520	0	37.3440	8	29.720	0	1044.143	0	10.6	4	3.4	4	-1E+10	1	-1E+10	1	-1E+10	1	-1E+10	1	-1E+10	1	-1E+10	1
4901784	206	C	02/23/2021	10:43	-134.848	43.338	0	1059.90	0	3.4450	0	37.3450	8	29.722	0	1048.782	0	10.6	4	3.4	4	-1E+10	1	-1E+10	1	-1E+10	1	-1E+10	1	-1E+10	1	-1E+10	1
4901784	206	C	02/23/2021	10:43	-134.848	43.338	0	1065.40	0	3.4360	0	37.3470	8	29.724	0	1054.210	0	10.6	4	3.4	4	-1E+10	1	-1E+10	1	-1E+10	1	-1E+10	1	-1E+10	1	-1E+10	1
4901784	206	C	02/23/2021	10:43	-134.848	43.338	0	1070.10	0	3.4300	0	37.3490	8	29.726	0	1058.849	0	10.7	4	3.4	4	-1E+10	1	-1E+10	1	-1E+10	1	-1E+10	1	-1E+10	1	-1E+10	1
4901784	206	C	02/23/2021	10:43	-134.848	43.338	0	1074.90	0	3.4190	0	37.3520	8	29.730	0	1063.587	0	10.8	4	3.4	4	-1E+10	1	-1E+10	1	-1E+10	1	-1E+10	1	-1E+10	1	-1E+10	1
4901784	206	C	02/23/2021	10:43	-134.848	43.338	0	1079.90	0	3.4060	0	37.3540	8	29.733	0	1068.521	0	10.8	4	3.5	4	-1E+10	1	-1E+10	1	-1E+10	1	-1E+10	1	-1E+10	1	-1E+10	1
4901784	206	C	02/23/2021	10:43	-134.848	43.338	0	1084.70	0	3.3940	0	37.3580	8	29.737	0	1073.258	0	10.9	4	3.5	4	-1E+10	1	-1E+10	1	-1E+10	1	-1E+10	1	-1E+10	1	-1E+10	1
4901784	206	C	02/23/2021	10:43	-134.848	43.338	0	1089.50	0	3.3860	0	37.3600	8	29.740	0	1077.995	0	11.0	4	3.5	4	-1E+10	1	-1E+10	1	-1E+10	1	-1E+10	1	-1E+10	1	-1E+10	1
4901784	206	C	02/23/2021	10:43	-134.848	43.338	0	1094.30	0	3.3740	0	37.3630	8	29.743	0	1082.732	0	11.1	4	3.5	4	-1E+10	1	-1E+10	1	-1E+10	1	-1E+10	1	-1E+10	1	-1E+10	1
4901784	206	C	02/23/2021	10:43	-134.848	43.338	0	1099.20	0	3.3660	0	37.3660	8	29.747	0	1087.568	0	11.1	4	3.5	4	-1E+10	1	-1E+10	1	-1E+10	1	-1E+10	1	-1E+10	1	-1E+10	1
4901784	206	C	02/23/2021	10:43	-134.848	43.338	0	1105.00	0	3.3660	0	37.3670	8	29.748	0	1093.291	0	11.2	4	3.6	4	-1E+10	1	-1E+10	1	-1E+10	1	-1E+10	1	-1E+10	1	-1E+10	1
4901784	206	C	02/23/2021	10:43	-134.848	43.338	0	1110.70	0	3.3590	0	37.3690	8	29.750	0	1098.916	0	11.3	4	3.6	4	-1E+10	1	-1E+10	1	-1E+10	1	-1E+10	1	-1E+10	1	-1E+10	1
4901784	206	C	02/23/2021	10:43	-134.848	43.338	0	1115.70	0	3.3450	0	37.3720	8	29.754	0	1103.850	0	11.4	4	3.6	4	-1E+10	1	-1E+10	1	-1E+10	1	-1E+10	1	-1E+10	1	-1E+10	1
4901784	206	C	02/23/2021	10:43	-134.848	43.338	0	1120.70	0	3.3390	0	37.3740	8	29.756	0	1108.784	0	11.5	4	3.6	4	-1E+10	1	-1E+10	1	-1E+10	1	-1E+10	1	-1E+10	1	-1E+10	1
4901784	206	C	02/23/2021	10:43	-134.848	43.338	0	1124.90	0	3.3310	0	37.3760	8	29.759	0	1112.928	0	11.6	4	3.7	4	-1E+10	1	-1E+10	1	-1E+10	1	-1E+10	1	-1E+10	1	-1E+10	1
4901784	206	C	02/23/2021	10:43	-134.848	43.338	0	1129.20	0	3.3210	0	37.3780	8	29.761	0	1117.171	0	11.6	4	3.7	4	-1E+10	1	-1E+10	1	-1E+10	1	-1E+10	1	-1E+10	1	-1E+10	1
4901784	206	C	02/23/2021	10:43	-134.848	43.338	0	1134.40	0	3.3060	0	37.3800	8	29.764	0	1122.301	0	11.8	4	3.7	4	-1E+10	1	-1E+10	1	-1E+10	1	-1E+10	1	-1E+10	1	-1E+10	1
4901784	206	C	02/23/2021	10:43	-134.848	43.338	0	1139.60	0	3.2840	0	37.3850	8	29.771	0	1127.432	0	12.0	4	3.8	4	-1E+10	1	-1E+10	1	-1E+10	1	-1E+10	1	-1E+10	1	-1E+10	1
4901784	206	C	02/23/2021	10:43	-134.848	43.338	0	1144.80	0	3.2710	0	37.3880	8	29.774	0	1132.562	0	12.2	4	3.9	4	-1E+10	1	-1E+10	1	-1E+10	1	-1E+10	1	-1E+10	1	-1E+10	1
4901784	206	C	02/23/2021	10:43	-134.848	43.338	0	1150.10	0	3.2580	0	37.3920	8	29.779	0	1137.791	0	12.5	4	4.0	4	-1E+10	1	-1E+10	1	-1E+10	1	-1E+10	1	-1E+10	1	-1E+10	1
4901784	206	C	02/23/2021	10:43	-134.848	43.338	0	1155.40	0	3.2480	0	37.3970	8	29.784	0	1143.020	0	12.9	4	4.1	4	-1E+10	1	-1E+10	1	-1E+10	1	-1E+10	1	-1E+10	1	-1E+10	1
4901784	206	C	02/23/2021	10:43	-134.848	43.338	0	1159.80	0	3.2390	0	37.4020	8	29.789	0	1147.361	0	13.1	4	4.2	4	-1E+10	1	-1E+10	1	-1E+10	1	-1E+10	1	-1E+10	1	-1E+10	1
4901784	206	C	02/23/2021	10:43	-134.848	43.338	0	1164.30	0	3.2310	0	37.4040	8	29.791	0	1151.801	0	13.2	4	4.2	4	-1E+10	1	-1E+10	1	-1E+10	1	-1E+10	1	-1E+10	1	-1E+10	1
4901784	206	C	02/23/2021	10:43	-134.848	43.338	0	1169.60	0	3.2150	0	37.4070	8	29.795	0	1157.029	0	13.4	4	4.2	4	-1E+10	1	-1E+10	1	-1E+10	1	-1E+10	1	-1E+10	1	-1E+10	1
4901784	206	C	02/23/2021	10:43	-134.848	43.338	0	1174.90	0	3.2060	0	37.4090	8	29.798	0	1162.257	0	13.5	4	4.3	4	-1E+10	1	-1E+10	1	-1E+10	1	-1E+10	1	-1E+10	1	-1E+10	1
4901784	206	C	02/23/2021	10:43	-134.848	43.338	0	1180.30	0	3.1910	0	37.4120	8	29.802	0	1167.584	0	13.7	4	4.3	4	-1E+10	1	-1E+10	1	-1E+10	1	-1E+10	1	-1E+10	1	-1E+10	1
4901784	206	C	02/23/2021	10:43	-134.848	43.338	0	1184.80	0	3.1760	0	37.4150	8	29.806	0	1172.023	0	13.8	4	4.4	4	-1E+10	1	-1E+10	1	-1E+10	1	-1E+10	1	-1E+10	1	-1E+10	1
4901784	206	C	02/23/2021	10:43	-134.848	43.338	0	1189.20	0	3.1600	0	37.4200	8	29.811	0	1176.364	0	14.0	4	4.4	4	-1E+10	1	-1E+10	1	-1E+10	1	-1E+10	1	-1E+10	1	-1E+10	1
4901784	206	C	02/23/2021	10:43	-134.848	43.338	0	1194.40	0	3.1510	0	37.4210	8	29.813	0	1181.493	0	14.2	4	4.5	4	-1E+10	1	-1E+10	1	-1E+10	1	-1E+10	1	-1E+10	1	-1E+10	1
4901784	206	C	02/23/2021	10:43	-134.848	43.338	0	1200.00	0	3.1330	0	37.4240	8	29.817	0	1187.017	0	14.4	4	4.5	4	-1E+10	1	-1E+10	1	-1E+10	1	-1E+10	1	-1E+10	1	-1E+10	1
4901784	206	C	02/23/2021	10:43	-134.848	43.338	0	1205.70	0	3.1200	0	37.4270	8	29.821	0	1192.639	0	14.5	4	4.6	4	-1E+10	1	-1E+10	1	-1E+10	1	-1E+10	1	-1E+10	1	-1E+10	1
4901784	206	C	02/23/2021	10:43	-134.848	43.338	0	1210.50	0	3.1050	0	37.4320	8	29.827	0	1197.373	0	14.7	4	4.6	4	-1E+10	1	-1E+10	1	-1E+10	1	-1E+10	1	-1E+10	1	-1E+10	1
4901784	206	C	02/23/2021	10:43	-134.848	43.338	0	1215.50	0	3.0950	0	37.4340	8	29.829	0	1202.305	0	14.9	4	4.7	4	-1E+10	1	-1E+10	1	-1E+10	1	-1E+10	1	-1E+10	1	-1E+10	1
4901784	206	C	02/23/2021	10:43	-134.848	43.338	0	1220.40	0	3.0860	0	37.4370	8	29.833	0	1207.137	0	15.1	4	4.8	4	-1E+10	1	-1E+10	1	-1E+10	1	-1E+10	1	-1E+10	1	-1E+10	1
4901784	206	C	02/23/2021	10:43	-134.848	43.338	0	1225.40	0	3.0800	0	37.4400	8	29.836	0	1212.069	0	15.2	4	4.8	4	-1E+10	1	-1E+10	1	-1E+10	1	-1E+10	1	-1E+10	1	-1E+10	1
4901784	206	C	02/23/2021	10:43	-134.848	43.338	0	1230.40	0	3.0690	0	37.4440	8	29.840	0	1217.000	0	15.3	4	4.8	4	-1E+10	1	-1E+10	1	-1E+10	1	-1E+10	1	-1E+10	1	-1E+10	1
4901784	206	C	02/23/2021	10:43	-134.848	43.338	0	1235.50	0	3.0590	0	37.4440	8	29.841	0	1222.029	0	15.4	4	4.9	4	-1E+10	1	-1E+10	1	-1E+10	1	-1E+10	1	-1E+10	1	-1E+10	1
4901784	206	C	02/23/2021	10:43	-134.848	43.338	0	1240.60	0	3.0440	0	37.4460	8	29.844	0	1227.059	0	15.5	4	4.9	4	-1E+10	1	-1E+10	1	-1E+10	1	-1E+10	1	-1E+10	1	-1E+10	1
4901784	206	C	02/23/2021	10:43	-134.848	43.338	0	1245.70	0	3.0310	0	37.4490	8	29.848	0	1232.088	0	15.7	4	4.9	4	-1E+10	1	-1E+10	1	-1E+10	1	-1E+10	1	-1E+10	1	-1E+10	1
4901784	206	C	02/23/2021	10:43	-134.848	43.338	0	1250.80	0	3.0140	0	37.4550	8	29.854	0	1237.118	0	15.8	4	5.0	4	-1E+10	1	-1E+10	1	-1E+10	1	-1E+10	1	-1E+10	1	-1E+10	1
4901784	206	C	02/23/2021	10:43	-134.848	43.338	0	1255.00	0	3.0000	0	37.4580	8	29.858	0	1241.259	0	15.9	4	5.0	4	-1E+10	1	-1E+10	1	-1E+10	1	-1E+10	1	-1E+10	1	-1E+10	1
4901784	206	C	02/23/2021	10:43	-134.848	43.338	0	1259.30	0	2.9950	0	37.4590	8	29.859	0	1245.499	0	16.0	4	5.0	4	-1E+10	1	-1E+10	1	-1E+10	1	-1E+10	1	-1E+10	1	-1E+10	1
4901784	206	C	02/23/2021	10:43	-134.848	43.338	0	1264.50	0	2.9910	0	37.4590	8	29.860	0	1250.627	0	16.0	4	5.0	4	-1E+10	1	-1E+10	1	-1E+10	1	-1E+10	1	-1E+10	1	-1E+10	1
4901784	206	C	02/23/2021	10:43	-134.848	43.338	0	1269.80	0	2.9770	0	37.4630	8	29.864	0	1255.853	0	16.2	4	5.1	4	-1E+10	1	-1E+10	1	-1E+10	1	-1E+10	1	-1E+10	1	-1E+10	1
4901784	206	C	02/23/2021	10:43	-134.848	43.338	0	1275.10	0	2.9660	0	37.4690	8	29.870	0	1261.079	0	16.3	4	5.1	4	-1E+10	1	-1E+10	1	-1E+10	1	-1E+10	1	-1E+10	1	-1E+10	1
4901784	206	C	02/23/2021	10:43	-134.848	43.338	0	1280.30	0	2.9550	0	37.4750	8	29.876	0	1266.206	0	16.3	4	5.2	4	-1E+10	1	-1E+10	1	-1E+10	1	-1E+10	1	-1E+10	1	-1E+10	1
4901784	206	C	02/23/2021	10:43	-134.848	43.338	0	1285.70	0	2.9490	0	37.4760	8	29.878	0	1271.530	0	16.5	4	5.2	4	-1E+10	1	-1E+10	1	-1E+10	1	-1E+10	1	-1E+10	1	-1E+10	1
4901784	206	C	02/23/2021	10:43	-134.848	43.338	0	1290.10	0	2.9400	0	37.4780	8	29.880	0	1275.869	0	16.6	4	5.2	4	-1E+10	1	-1E+10	1	-1E+10	1	-1E+10	1	-1E+10	1	-1E+10	1
4901784	206	C	02/23/2021	10:43	-134.848	43.338	0	1294.60	0	2.9340	0	37.4770	8	29.880	0	1280.305	0	16.7	4	5.3	4	-1E+10	1	-1E+10	1	-1E+10	1	-1E+10	1	-1E+10	1	-1E+10	1
4901784	206	C	02/23/2021	10:43	-134.848	43.338	0	1300.00	0	2.9320	0	37.4790	8	29.882	0	1285.629	0	16.8	4	5.3	4	-1E+10	1	-1E+10	1	-1E+10	1	-1E+10	1	-1E+10	1	-1E+10	1
4901784	206	C	02/23/2021	10:43	-134.848	43.338	0	1305.50	0	2.9270	0	37.4810	8	29.884	0	1291.052	0	16.9	4	5.3	4	-1E+10	1	-1E+10	1	-1E+10	1	-1E+10	1	-1E+10	1	-1E+10	1
4901784	206	C	02/23/2021	10:43	-134.848	43.338	0	1310.10	0	2.9220	0	37.4800	8	29.884	0	1295.587	0	17.0	4	5.4	4	-1E+10	1	-1E+10	1	-1E+10	1	-1E+10	1	-1E+10	1	-1E+10	1
4901784	206	C	02/23/2021	10:43	-134.848	43.338	0	1314.80	0	2.9120	0	37.4810	8	29.886	0	1300.220	0	17.3	4	5.4	4	-1E+10	1	-1E+10	1	-1E+10	1	-1E+10	1	-1E+10	1	-1E+10	1
4901784	206	C	02/23/2021	10:43	-134.848	43.338	0	1320.40	0	2.9030	0	37.4880	8	29.892	0	1305.741	0	17.4	4	5.5	4	-1E+10	1	-1E+10	1	-1E+10	1	-1E+10	1	-1E+10	1	-1E+10	1
4901784	206	C	02/23/2021	10:43	-134.848	43.338	0	1325.00	0	2.8940	0	37.4900	8	29.895	0	1310.275	0	17.5	4	5.5	4	-1E+10	1	-1E+10	1	-1E+10	1	-1E+10	1	-1E+10	1	-1E+10	1
4901784	206	C	02/23/2021	10:43	-134.848	43.338	0	1329.70	0	2.8910	0	37.4860	8	29.892	0	1314.908	0	17.6	4	5.6	4	-1E+10	1	-1E+10	1	-1E+10	1	-1E+10	1	-1E+10	1	-1E+10	1
4901784	206	C	02/23/2021	10:43	-134.848	43.338	0	1335.20	0	2.8810	0	37.4840	8	29.891	0	1320.330	0	17.8	4	5.6	4	-1E+10	1	-1E+10	1	-1E+10	1	-1E+10	1	-1E+10	1	-1E+10	1
4901784	206	C	02/23/2021	10:43	-134.848	43.338	0	1340.50	0	2.8730	0	37.4850	8	29.893	0	1325.554	0	17.9	4	5.6	4	-1E+10	1	-1E+10	1	-1E+10	1	-1E+10	1	-1E+10	1	-1E+10	1
4901784	206	C	02/23/2021	10:43	-134.848	43.338	0	1345.30	0	2.8630	0	37.4850	8	29.894	0	1330.286	0	18.0	4	5.7	4	-1E+10	1	-1E+10	1	-1E+10	1	-1E+10	1	-1E+10	1	-1E+10	1
4901784	206	C	02/23/2021	10:43	-134.848	43.338	0	1350.40	0	2.8580	0	37.4850	8	29.894	0	1335.312	0	18.1	4	5.7	4	-1E+10	1	-1E+10	1	-1E+10	1	-1E+10	1	-1E+10	1	-1E+10	1
4901784	206	C	02/23/2021	10:43	-134.848	43.338	0	1355.70	0	2.8520	0	37.4870	8	29.896	0	1340.536	0	18.2	4	5.7	4	-1E+10	1	-1E+10	1	-1E+10	1	-1E+10	1	-1E+10	1	-1E+10	1
4901784	206	C	02/23/2021	10:43	-134.848	43.338	0	1360.00	0	2.8450	0	37.4890	8	29.899	0	1344.775	0	18.4	4	5.8	4	-1E+10	1	-1E+10	1	-1E+10	1	-1E+10	1	-1E+10	1	-1E+10	1
4901784	206	C	02/23/2021	10:43	-134.848	43.338	0	1364.50	0	2.8380	0	37.4890	8	29.899	0	1349.210	0	18.5	4	5.8	4	-1E+10	1	-1E+10	1	-1E+10	1	-1E+10	1	-1E+10	1	-1E+10	1
4901784	206	C	02/23/2021	10:43	-134.848	43.338	0	1369.90	0	2.8290	0	37.4880	8	29.900	0	1354.532	0	18.8	4	5.9	4	-1E+10	1	-1E+10	1	-1E+10	1	-1E+10	1	-1E+10	1	-1E+10	1
4901784	206	C	02/23/2021	10:43	-134.848	43.338	0	1375.40	0	2.8150	0	37.4920	8	29.904	0	1359.953	0	19.0	4	6.0	4	-1E+10	1	-1E+10	1	-1E+10	1	-1E+10	1	-1E+10	1	-1E+10	1
4901784	206	C	02/23/2021	10:43	-134.848	43.338	0	1379.90	0	2.8100	0	37.4920	8	29.905	0	1364.388	0	19.1	4	6.0	4	-1E+10	1	-1E+10	1	-1E+10	1	-1E+10	1	-1E+10	1	-1E+10	1
4901784	206	C	02/23/2021	10:43	-134.848	43.338	0	1384.50	0	2.8040	0	37.4950	8	29.908	0	1368.921	0	19.3	4	6.1	4	-1E+10	1	-1E+10	1	-1E+10	1	-1E+10	1	-1E+10	1	-1E+10	1
4901784	206	C	02/23/2021	10:43	-134.848	43.338	0	1390.00	0	2.7920	0	37.4970	8	29.910	0	1374.341	0	19.6	4	6.2	4	-1E+10	1	-1E+10	1	-1E+10	1	-1E+10	1	-1E+10	1	-1E+10	1
4901784	206	C	02/23/2021	10:43	-134.848	43.338	0	1395.50	0	2.7780	0	37.4970	8	29.912	0	1379.761	0	20.0	4	6.3	4	-1E+10	1	-1E+10	1	-1E+10	1	-1E+10	1	-1E+10	1	-1E+10	1
4901784	206	C	02/23/2021	10:43	-134.848	43.338	0	1400.30	0	2.7630	0	37.5000	8	29.916	0	1384.491	0	20.3	4	6.4	4	-1E+10	1	-1E+10	1	-1E+10	1	-1E+10	1	-1E+10	1	-1E+10	1
4901784	206	C	02/23/2021	10:43	-134.848	43.338	0	1404.90	0	2.7550	0	37.5020	8	29.918	0	1389.024	0	20.6	4	6.5	4	-1E+10	1	-1E+10	1	-1E+10	1	-1E+10	1	-1E+10	1	-1E+10	1
4901784	206	C	02/23/2021	10:43	-134.848	43.338	0	1410.40	0	2.7450	0	37.5040	8	29.921	0	1394.444	0	20.9	4	6.6	4	-1E+10	1	-1E+10	1	-1E+10	1	-1E+10	1	-1E+10	1	-1E+10	1
4901784	206	C	02/23/2021	10:43	-134.848	43.338	0	1415.00	0	2.7330	0	37.5060	8	29.923	0	1398.977	0	21.2	4	6.7	4	-1E+10	1	-1E+10	1	-1E+10	1	-1E+10	1	-1E+10	1	-1E+10	1
4901784	206	C	02/23/2021	10:43	-134.848	43.338	0	1419.60	0	2.7290	0	37.5060	8	29.924	0	1403.509	0	21.3	4	6.7	4	-1E+10	1	-1E+10	1	-1E+10	1	-1E+10	1	-1E+10	1	-1E+10	1
4901784	206	C	02/23/2021	10:43	-134.848	43.338	0	1425.20	0	2.7270	0	37.5090	8	29.927	0	1409.027	0	21.5	4	6.8	4	-1E+10	1	-1E+10	1	-1E+10	1	-1E+10	1	-1E+10	1	-1E+10	1
4901784	206	C	02/23/2021	10:43	-134.848	43.338	0	1429.70	0	2.7210	0	37.5090	8	29.927	0	1413.461	0	21.7	4	6.8	4	-1E+10	1	-1E+10	1	-1E+10	1	-1E+10	1	-1E+10	1	-1E+10	1
4901784	206	C	02/23/2021	10:43	-134.848	43.338	0	1434.40	0	2.7120	0	37.5100	8	29.929	0	1418.092	0	21.9	4	6.9	4	-1E+10	1	-1E+10	1	-1E+10	1	-1E+10	1	-1E+10	1	-1E+10	1
4901784	206	C	02/23/2021	10:43	-134.848	43.338	0	1440.00	0	2.7020	0	37.5100	8	29.930	0	1423.609	0	22.2	4	7.0	4	-1E+10	1	-1E+10	1	-1E+10	1	-1E+10	1	-1E+10	1	-1E+10	1
4901784	206	C	02/23/2021	10:43	-134.848	43.338	0	1445.60	0	2.6940	0	37.5100	8	29.931	0	1429.127	0	22.4	4	7.0	4	-1E+10	1	-1E+10	1	-1E+10	1	-1E+10	1	-1E+10	1	-1E+10	1
4901784	206	C	02/23/2021	10:43	-134.848	43.338	0	1450.20	0	2.6910	0	37.5090	8	29.930	0	1433.658	0	22.5	4	7.1	4	-1E+10	1	-1E+10	1	-1E+10	1	-1E+10	1	-1E+10	1	-1E+10	1
4901784	206	C	02/23/2021	10:43	-134.848	43.338	0	1454.90	0	2.6830	0	37.5090	8	29.931	0	1438.289	0	22.8	4	7.2	4	-1E+10	1	-1E+10	1	-1E+10	1	-1E+10	1	-1E+10	1	-1E+10	1
4901784	206	C	02/23/2021	10:43	-134.848	43.338	0	1460.50	0	2.6720	0	37.5110	8	29.934	0	1443.806	0	23.3	4	7.3	4	-1E+10	1	-1E+10	1	-1E+10	1	-1E+10	1	-1E+10	1	-1E+10	1
4901784	206	C	02/23/2021	10:43	-134.848	43.338	0	1465.20	0	2.6570	0	37.5140	8	29.937	0	1448.436	0	23.6	4	7.4	4	-1E+10	1	-1E+10	1	-1E+10	1	-1E+10	1	-1E+10	1	-1E+10	1
4901784	206	C	02/23/2021	10:43	-134.848	43.338	0	1469.90	0	2.6500	0	37.5150	8	29.939	0	1453.066	0	23.8	4	7.5	4	-1E+10	1	-1E+10	1	-1E+10	1	-1E+10	1	-1E+10	1	-1E+10	1
4901784	206	C	02/23/2021	10:43	-134.848	43.338	0	1475.40	0	2.6420	0	37.5160	8	29.940	0	1458.484	0	24.1	4	7.6	4	-1E+10	1	-1E+10	1	-1E+10	1	-1E+10	1	-1E+10	1	-1E+10	1
4901784	206	C	02/23/2021	10:43	-134.848	43.338	0	1480.20	0	2.6330	0	37.5170	8	29.942	0	1463.212	0	24.3	4	7.6	4	-1E+10	1	-1E+10	1	-1E+10	1	-1E+10	1	-1E+10	1	-1E+10	1
4901784	206	C	02/23/2021	10:43	-134.848	43.338	0	1484.60	0	2.6260	0	37.5180	8	29.944	0	1467.547	0	24.6	4	7.7	4	-1E+10	1	-1E+10	1	-1E+10	1	-1E+10	1	-1E+10	1	-1E+10	1
4901784	206	C	02/23/2021	10:43	-134.848	43.338	0	1489.80	0	2.6150	0	37.5200	8	29.946	0	1472.669	0	24.9	4	7.8	4	-1E+10	1	-1E+10	1	-1E+10	1	-1E+10	1	-1E+10	1	-1E+10	1
4901784	206	C	02/23/2021	10:43	-134.848	43.338	0	1495.00	0	2.6070	0	37.5220	8	29.949	0	1477.791	0	25.1	4	7.9	4	-1E+10	1	-1E+10	1	-1E+10	1	-1E+10	1	-1E+10	1	-1E+10	1
4901784	206	C	02/23/2021	10:43	-134.848	43.338	0	1500.20	0	2.5970	0	37.5230	8	29.950	0	1482.913	0	25.4	4	7.9	4	-1E+10	1	-1E+10	1	-1E+10	1	-1E+10	1	-1E+10	1	-1E+10	1
4901784	206	C	02/23/2021	10:43	-134.848	43.338	0	1505.40	0	2.5910	0	37.5240	8	29.952	0	1488.035	0	25.7	4	8.0	4	-1E+10	1	-1E+10	1	-1E+10	1	-1E+10	1	-1E+10	1	-1E+10	1
4901784	206	C	02/23/2021	10:43	-134.848	43.338	0	1510.60	0	2.5790	0	37.5270	8	29.955	0	1493.156	0	26.1	4	8.2	4	-1E+10	1	-1E+10	1	-1E+10	1	-1E+10	1	-1E+10	1	-1E+10	1
4901784	206	C	02/23/2021	10:43	-134.848	43.338	0	1515.00	0	2.5740	0	37.5280	8	29.957	0	1497.490	0	26.2	4	8.2	4	-1E+10	1	-1E+10	1	-1E+10	1	-1E+10	1	-1E+10	1	-1E+10	1
4901784	206	C	02/23/2021	10:43	-134.848	43.338	0	1519.30	0	2.5700	0	37.5290	8	29.958	0	1501.725	0	26.4	4	8.3	4	-1E+10	1	-1E+10	1	-1E+10	1	-1E+10	1	-1E+10	1	-1E+10	1
4901784	206	C	02/23/2021	10:43	-134.848	43.338	0	1524.60	0	2.5620	0	37.5300	8	29.959	0	1506.945	0	26.7	4	8.4	4	-1E+10	1	-1E+10	1	-1E+10	1	-1E+10	1	-1E+10	1	-1E+10	1
4901784	206	C	02/23/2021	10:43	-134.848	43.338	0	1529.80	0	2.5520	0	37.5330	8	29.963	0	1512.066	0	27.2	4	8.5	4	-1E+10	1	-1E+10	1	-1E+10	1	-1E+10	1	-1E+10	1	-1E+10	1
4901784	206	C	02/23/2021	10:43	-134.848	43.338	0	1535.10	0	2.5450	0	37.5340	8	29.964	0	1517.285	0	27.6	4	8.6	4	-1E+10	1	-1E+10	1	-1E+10	1	-1E+10	1	-1E+10	1	-1E+10	1
4901784	206	C	02/23/2021	10:43	-134.848	43.338	0	1540.30	0	2.5330	0	37.5360	8	29.967	0	1522.406	0	28.2	4	8.8	4	-1E+10	1	-1E+10	1	-1E+10	1	-1E+10	1	-1E+10	1	-1E+10	1
4901784	206	C	02/23/2021	10:43	-134.848	43.338	0	1545.60	0	2.5250	0	37.5370	8	29.969	0	1527.626	0	29.0	4	9.1	4	-1E+10	1	-1E+10	1	-1E+10	1	-1E+10	1	-1E+10	1	-1E+10	1
4901784	206	C	02/23/2021	10:43	-134.848	43.338	0	1550.00	0	2.5150	0	37.5400	8	29.972	0	1531.959	0	29.4	4	9.2	4	-1E+10	1	-1E+10	1	-1E+10	1	-1E+10	1	-1E+10	1	-1E+10	1
4901784	206	C	02/23/2021	10:43	-134.848	43.338	0	1554.40	0	2.5060	0	37.5420	8	29.974	0	1536.291	0	29.5	4	9.2	4	-1E+10	1	-1E+10	1	-1E+10	1	-1E+10	1	-1E+10	1	-1E+10	1
4901784	206	C	02/23/2021	10:43	-134.848	43.338	0	1559.70	0	2.5010	0	37.5420	8	29.975	0	1541.510	0	29.6	4	9.2	4	-1E+10	1	-1E+10	1	-1E+10	1	-1E+10	1	-1E+10	1	-1E+10	1
4901784	206	C	02/23/2021	10:43	-134.848	43.338	0	1565.00	0	2.4930	0	37.5420	8	29.976	0	1546.729	0	29.6	4	9.2	4	-1E+10	1	-1E+10	1	-1E+10	1	-1E+10	1	-1E+10	1	-1E+10	1
4901784	206	C	02/23/2021	10:43	-134.848	43.338	0	1570.40	0	2.4830	0	37.5430	8	29.978	0	1552.046	0	29.8	4	9.3	4	-1E+10	1	-1E+10	1	-1E+10	1	-1E+10	1	-1E+10	1	-1E+10	1
4901784	206	C	02/23/2021	10:43	-134.848	43.338	0	1575.00	0	2.4790	0	37.5430	8	29.978	0	1556.576	0	30.0	4	9.4	4	-1E+10	1	-1E+10	1	-1E+10	1	-1E+10	1	-1E+10	1	-1E+10	1
4901784	206	C	02/23/2021	10:43	-134.848	43.338	0	1579.50	0	2.4540	0	37.5450	8	29.982	0	1561.006	0	30.1	4	9.4	4	-1E+10	1	-1E+10	1	-1E+10	1	-1E+10	1	-1E+10	1	-1E+10	1
4901784	206	C	02/23/2021	10:43	-134.848	43.338	0	1584.90	0	2.4400	0	37.5460	8	29.984	0	1566.323	0	30.4	4	9.5	4	-1E+10	1	-1E+10	1	-1E+10	1	-1E+10	1	-1E+10	1	-1E+10	1
4901784	206	C	02/23/2021	10:43	-134.848	43.338	0	1590.40	0	2.4290	0	37.5480	8	29.987	0	1571.738	0	30.8	4	9.6	4	-1E+10	1	-1E+10	1	-1E+10	1	-1E+10	1	-1E+10	1	-1E+10	1
4901784	206	C	02/23/2021	10:43	-134.848	43.338	0	1594.90	0	2.4230	0	37.5500	8	29.989	0	1576.169	0	31.1	4	9.7	4	-1E+10	1	-1E+10	1	-1E+10	1	-1E+10	1	-1E+10	1	-1E+10	1
4901784	206	C	02/23/2021	10:43	-134.848	43.338	0	1599.50	0	2.4130	0	37.5520	8	29.991	0	1580.698	0	31.5	4	9.8	4	-1E+10	1	-1E+10	1	-1E+10	1	-1E+10	1	-1E+10	1	-1E+10	1
4901784	206	C	02/23/2021	10:43	-134.848	43.338	0	1604.90	0	2.4080	0	37.5530	8	29.993	0	1586.014	0	31.9	4	9.9	4	-1E+10	1	-1E+10	1	-1E+10	1	-1E+10	1	-1E+10	1	-1E+10	1
4901784	206	C	02/23/2021	10:43	-134.848	43.338	0	1610.40	0	2.3990	0	37.5550	8	29.995	0	1591.429	0	32.3	4	10.1	4	-1E+10	1	-1E+10	1	-1E+10	1	-1E+10	1	-1E+10	1	-1E+10	1
4901784	206	C	02/23/2021	10:43	-134.848	43.338	0	1615.00	0	2.3900	0	37.5550	8	29.996	0	1595.957	0	32.6	4	10.2	4	-1E+10	1	-1E+10	1	-1E+10	1	-1E+10	1	-1E+10	1	-1E+10	1
4901784	206	C	02/23/2021	10:43	-134.848	43.338	0	1619.60	0	2.3780	0	37.5580	8	29.999	0	1600.485	0	33.0	4	10.3	4	-1E+10	1	-1E+10	1	-1E+10	1	-1E+10	1	-1E+10	1	-1E+10	1
4901784	206	C	02/23/2021	10:43	-134.848	43.338	0	1624.80	0	2.3670	0	37.5600	8	30.002	0	1605.604	0	33.3	4	10.4	4	-1E+10	1	-1E+10	1	-1E+10	1	-1E+10	1	-1E+10	1	-1E+10	1
4901784	206	C	02/23/2021	10:43	-134.848	43.338	0	1630.00	0	2.3630	0	37.5610	8	30.003	0	1610.723	0	33.5	4	10.4	4	-1E+10	1	-1E+10	1	-1E+10	1	-1E+10	1	-1E+10	1	-1E+10	1
4901784	206	C	02/23/2021	10:43	-134.848	43.338	0	1635.70	0	2.3570	0	37.5630	8	30.005	0	1616.334	0	33.8	4	10.5	4	-1E+10	1	-1E+10	1	-1E+10	1	-1E+10	1	-1E+10	1	-1E+10	1
4901784	206	C	02/23/2021	10:43	-134.848	43.338	0	1640.70	0	2.3530	0	37.5640	8	30.007	0	1621.256	0	34.0	4	10.6	4	-1E+10	1	-1E+10	1	-1E+10	1	-1E+10	1	-1E+10	1	-1E+10	1
4901784	206	C	02/23/2021	10:43	-134.848	43.338	0	1645.70	0	2.3470	0	37.5650	8	30.008	0	1626.177	0	34.3	4	10.7	4	-1E+10	1	-1E+10	1	-1E+10	1	-1E+10	1	-1E+10	1	-1E+10	1
4901784	206	C	02/23/2021	10:43	-134.848	43.338	0	1650.70	0	2.3400	0	37.5670	8	30.010	0	1631.099	0	34.6	4	10.8	4	-1E+10	1	-1E+10	1	-1E+10	1	-1E+10	1	-1E+10	1	-1E+10	1
4901784	206	C	02/23/2021	10:43	-134.848	43.338	0	1655.70	0	2.3370	0	37.5670	8	30.011	0	1636.020	0	34.7	4	10.8	4	-1E+10	1	-1E+10	1	-1E+10	1	-1E+10	1	-1E+10	1	-1E+10	1
4901784	206	C	02/23/2021	10:43	-134.848	43.338	0	1660.70	0	2.3320	0	37.5680	8	30.012	0	1640.941	0	35.0	4	10.9	4	-1E+10	1	-1E+10	1	-1E+10	1	-1E+10	1	-1E+10	1	-1E+10	1
4901784	206	C	02/23/2021	10:43	-134.848	43.338	0	1665.80	0	2.3250	0	37.5700	8	30.014	0	1645.961	0	35.3	4	11.0	4	-1E+10	1	-1E+10	1	-1E+10	1	-1E+10	1	-1E+10	1	-1E+10	1
4901784	206	C	02/23/2021	10:43	-134.848	43.338	0	1670.00	0	2.3180	0	37.5720	8	30.016	0	1650.094	0	35.6	4	11.1	4	-1E+10	1	-1E+10	1	-1E+10	1	-1E+10	1	-1E+10	1	-1E+10	1
4901784	206	C	02/23/2021	10:43	-134.848	43.338	0	1674.30	0	2.3130	0	37.5730	8	30.018	0	1654.326	0	35.9	4	11.2	4	-1E+10	1	-1E+10	1	-1E+10	1	-1E+10	1	-1E+10	1	-1E+10	1
4901784	206	C	02/23/2021	10:43	-134.848	43.338	0	1679.40	0	2.3010	0	37.5750	8	30.020	0	1659.346	0	36.2	4	11.3	4	-1E+10	1	-1E+10	1	-1E+10	1	-1E+10	1	-1E+10	1	-1E+10	1
4901784	206	C	02/23/2021	10:43	-134.848	43.338	0	1684.50	0	2.2960	0	37.5750	8	30.021	0	1664.365	0	36.5	4	11.4	4	-1E+10	1	-1E+10	1	-1E+10	1	-1E+10	1	-1E+10	1	-1E+10	1
4901784	206	C	02/23/2021	10:43	-134.848	43.338	0	1689.60	0	2.2840	0	37.5780	8	30.024	0	1669.384	0	37.0	4	11.5	4	-1E+10	1	-1E+10	1	-1E+10	1	-1E+10	1	-1E+10	1	-1E+10	1
4901784	206	C	02/23/2021	10:43	-134.848	43.338	0	1694.80	0	2.2770	0	37.5790	8	30.026	0	1674.501	0	37.2	4	11.6	4	-1E+10	1	-1E+10	1	-1E+10	1	-1E+10	1	-1E+10	1	-1E+10	1
4901784	206	C	02/23/2021	10:43	-134.848	43.338	0	1699.90	0	2.2730	0	37.5800	8	30.027	0	1679.520	0	37.5	4	11.6	4	-1E+10	1	-1E+10	1	-1E+10	1	-1E+10	1	-1E+10	1	-1E+10	1
4901784	206	C	02/23/2021	10:43	-134.848	43.338	0	1705.10	0	2.2660	0	37.5800	8	30.028	0	1684.637	0	37.8	4	11.7	4	-1E+10	1	-1E+10	1	-1E+10	1	-1E+10	1	-1E+10	1	-1E+10	1
4901784	206	C	02/23/2021	10:43	-134.848	43.338	0	1710.30	0	2.2590	0	37.5820	8	30.030	0	1689.754	0	38.1	4	11.8	4	-1E+10	1	-1E+10	1	-1E+10	1	-1E+10	1	-1E+10	1	-1E+10	1
4901784	206	C	02/23/2021	10:43	-134.848	43.338	0	1715.50	0	2.2510	0	37.5840	8	30.032	0	1694.870	0	38.4	4	11.9	4	-1E+10	1	-1E+10	1	-1E+10	1	-1E+10	1	-1E+10	1	-1E+10	1
4901784	206	C	02/23/2021	10:43	-134.848	43.338	0	1720.70	0	2.2470	0	37.5850	8	30.034	0	1699.987	0	38.6	4	12.0	4	-1E+10	1	-1E+10	1	-1E+10	1	-1E+10	1	-1E+10	1	-1E+10	1
4901784	206	C	02/23/2021	10:43	-134.848	43.338	0	1725.10	0	2.2430	0	37.5850	8	30.034	0	1704.316	0	38.8	4	12.1	4	-1E+10	1	-1E+10	1	-1E+10	1	-1E+10	1	-1E+10	1	-1E+10	1
4901784	206	C	02/23/2021	10:43	-134.848	43.338	0	1729.60	0	2.2370	0	37.5860	8	30.035	0	1708.744	0	39.2	4	12.2	4	-1E+10	1	-1E+10	1	-1E+10	1	-1E+10	1	-1E+10	1	-1E+10	1
4901784	206	C	02/23/2021	10:43	-134.848	43.338	0	1734.90	0	2.2310	0	37.5870	8	30.037	0	1713.959	0	39.5	4	12.3	4	-1E+10	1	-1E+10	1	-1E+10	1	-1E+10	1	-1E+10	1	-1E+10	1
4901784	206	C	02/23/2021	10:43	-134.848	43.338	0	1740.20	0	2.2240	0	37.5890	8	30.039	0	1719.173	0	39.8	4	12.4	4	-1E+10	1	-1E+10	1	-1E+10	1	-1E+10	1	-1E+10	1	-1E+10	1
4901784	206	C	02/23/2021	10:43	-134.848	43.338	0	1745.50	0	2.2160	0	37.5900	8	30.040	0	1724.388	0	40.2	4	12.5	4	-1E+10	1	-1E+10	1	-1E+10	1	-1E+10	1	-1E+10	1	-1E+10	1
4901784	206	C	02/23/2021	10:43	-134.848	43.338	0	1750.00	0	2.2090	0	37.5920	8	30.043	0	1728.815	0	40.5	4	12.6	4	-1E+10	1	-1E+10	1	-1E+10	1	-1E+10	1	-1E+10	1	-1E+10	1
4901784	206	C	02/23/2021	10:43	-134.848	43.338	0	1754.50	0	2.2060	0	37.5930	8	30.044	0	1733.242	0	40.8	4	12.6	4	-1E+10	1	-1E+10	1	-1E+10	1	-1E+10	1	-1E+10	1	-1E+10	1
4901784	206	C	02/23/2021	10:43	-134.848	43.338	0	1759.90	0	2.1980	0	37.5930	8	30.045	0	1738.555	0	41.2	4	12.8	4	-1E+10	1	-1E+10	1	-1E+10	1	-1E+10	1	-1E+10	1	-1E+10	1
4901784	206	C	02/23/2021	10:43	-134.848	43.338	0	1765.30	0	2.1900	0	37.5950	8	30.047	0	1743.867	0	41.4	4	12.8	4	-1E+10	1	-1E+10	1	-1E+10	1	-1E+10	1	-1E+10	1	-1E+10	1
4901784	206	C	02/23/2021	10:43	-134.848	43.338	0	1770.70	0	2.1850	0	37.5970	8	30.049	0	1749.179	0	41.7	4	12.9	4	-1E+10	1	-1E+10	1	-1E+10	1	-1E+10	1	-1E+10	1	-1E+10	1
4901784	206	C	02/23/2021	10:43	-134.848	43.338	0	1775.20	0	2.1810	0	37.5970	8	30.049	0	1753.606	0	42.1	4	13.0	4	-1E+10	1	-1E+10	1	-1E+10	1	-1E+10	1	-1E+10	1	-1E+10	1
4901784	206	C	02/23/2021	10:43	-134.848	43.338	0	1779.70	0	2.1720	0	37.5990	8	30.052	0	1758.033	0	42.3	4	13.1	4	-1E+10	1	-1E+10	1	-1E+10	1	-1E+10	1	-1E+10	1	-1E+10	1
4901784	206	C	02/23/2021	10:43	-134.848	43.338	0	1785.20	0	2.1690	0	37.5990	8	30.052	0	1763.443	0	42.5	4	13.2	4	-1E+10	1	-1E+10	1	-1E+10	1	-1E+10	1	-1E+10	1	-1E+10	1
4901784	206	C	02/23/2021	10:43	-134.848	43.338	0	1789.80	0	2.1660	0	37.6010	8	30.054	0	1767.968	0	42.7	4	13.2	4	-1E+10	1	-1E+10	1	-1E+10	1	-1E+10	1	-1E+10	1	-1E+10	1
4901784	206	C	02/23/2021	10:43	-134.848	43.338	0	1794.30	0	2.1620	0	37.6010	8	30.054	0	1772.394	0	43.1	4	13.3	4	-1E+10	1	-1E+10	1	-1E+10	1	-1E+10	1	-1E+10	1	-1E+10	1
4901784	206	C	02/23/2021	10:43	-134.848	43.338	0	1799.70	0	2.1530	0	37.6020	8	30.056	0	1777.705	0	43.5	4	13.5	4	-1E+10	1	-1E+10	1	-1E+10	1	-1E+10	1	-1E+10	1	-1E+10	1
4901784	206	C	02/23/2021	10:43	-134.848	43.338	0	1804.50	0	2.1460	0	37.6030	8	30.057	0	1782.427	0	43.9	4	13.6	4	-1E+10	1	-1E+10	1	-1E+10	1	-1E+10	1	-1E+10	1	-1E+10	1
4901784	206	C	02/23/2021	10:43	-134.848	43.338	0	1809.40	0	2.1400	0	37.6050	8	30.060	0	1787.246	0	44.3	4	13.7	4	-1E+10	1	-1E+10	1	-1E+10	1	-1E+10	1	-1E+10	1	-1E+10	1
4901784	206	C	02/23/2021	10:43	-134.848	43.338	0	1814.30	0	2.1340	0	37.6060	8	30.061	0	1792.065	0	44.7	4	13.8	4	-1E+10	1	-1E+10	1	-1E+10	1	-1E+10	1	-1E+10	1	-1E+10	1
4901784	206	C	02/23/2021	10:43	-134.848	43.338	0	1819.30	0	2.1230	0	37.6080	8	30.064	0	1796.983	0	45.1	4	14.0	4	-1E+10	1	-1E+10	1	-1E+10	1	-1E+10	1	-1E+10	1	-1E+10	1
4901784	206	C	02/23/2021	10:43	-134.848	43.338	0	1825.00	0	2.1160	0	37.6100	8	30.066	0	1802.589	0	45.5	4	14.1	4	-1E+10	1	-1E+10	1	-1E+10	1	-1E+10	1	-1E+10	1	-1E+10	1
4901784	206	C	02/23/2021	10:43	-134.848	43.338	0	1830.80	0	2.1130	0	37.6110	8	30.067	0	1808.293	0	45.6	4	14.1	4	-1E+10	1	-1E+10	1	-1E+10	1	-1E+10	1	-1E+10	1	-1E+10	1
4901784	206	C	02/23/2021	10:43	-134.848	43.338	0	1835.70	0	2.1110	0	37.6110	8	30.067	0	1813.112	0	45.8	4	14.2	4	-1E+10	1	-1E+10	1	-1E+10	1	-1E+10	1	-1E+10	1	-1E+10	1
4901784	206	C	02/23/2021	10:43	-134.848	43.338	0	1840.70	0	2.1060	0	37.6140	8	30.070	0	1818.029	0	46.2	4	14.3	4	-1E+10	1	-1E+10	1	-1E+10	1	-1E+10	1	-1E+10	1	-1E+10	1
4901784	206	C	02/23/2021	10:43	-134.848	43.338	0	1845.70	0	2.0960	0	37.6160	8	30.073	0	1822.946	0	46.6	4	14.4	4	-1E+10	1	-1E+10	1	-1E+10	1	-1E+10	1	-1E+10	1	-1E+10	1
4901784	206	C	02/23/2021	10:43	-134.848	43.338	0	1850.70	0	2.0910	0	37.6160	8	30.073	0	1827.863	0	47.0	4	14.5	4	-1E+10	1	-1E+10	1	-1E+10	1	-1E+10	1	-1E+10	1	-1E+10	1
4901784	206	C	02/23/2021	10:43	-134.848	43.338	0	1855.70	0	2.0860	0	37.6170	8	30.074	0	1832.780	0	47.3	4	14.6	4	-1E+10	1	-1E+10	1	-1E+10	1	-1E+10	1	-1E+10	1	-1E+10	1
4901784	206	C	02/23/2021	10:43	-134.848	43.338	0	1859.90	0	2.0800	0	37.6180	8	30.076	0	1836.910	0	47.6	4	14.7	4	-1E+10	1	-1E+10	1	-1E+10	1	-1E+10	1	-1E+10	1	-1E+10	1
4901784	206	C	02/23/2021	10:43	-134.848	43.338	0	1864.20	0	2.0750	0	37.6190	8	30.077	0	1841.138	0	47.9	4	14.8	4	-1E+10	1	-1E+10	1	-1E+10	1	-1E+10	1	-1E+10	1	-1E+10	1
4901784	206	C	02/23/2021	10:43	-134.848	43.338	0	1869.30	0	2.0710	0	37.6200	8	30.078	0	1846.153	0	48.2	4	14.9	4	-1E+10	1	-1E+10	1	-1E+10	1	-1E+10	1	-1E+10	1	-1E+10	1
4901784	206	C	02/23/2021	10:43	-134.848	43.338	0	1874.40	0	2.0640	0	37.6220	8	30.080	0	1851.167	0	48.6	4	15.0	4	-1E+10	1	-1E+10	1	-1E+10	1	-1E+10	1	-1E+10	1	-1E+10	1
4901784	206	C	02/23/2021	10:43	-134.848	43.338	0	1879.50	0	2.0590	0	37.6220	8	30.081	0	1856.182	0	48.9	4	15.1	4	-1E+10	1	-1E+10	1	-1E+10	1	-1E+10	1	-1E+10	1	-1E+10	1
4901784	206	C	02/23/2021	10:43	-134.848	43.338	0	1884.70	0	2.0520	0	37.6240	8	30.083	0	1861.295	0	49.3	4	15.2	4	-1E+10	1	-1E+10	1	-1E+10	1	-1E+10	1	-1E+10	1	-1E+10	1
4901784	206	C	02/23/2021	10:43	-134.848	43.338	0	1889.80	0	2.0470	0	37.6240	8	30.083	0	1866.309	0	49.7	4	15.3	4	-1E+10	1	-1E+10	1	-1E+10	1	-1E+10	1	-1E+10	1	-1E+10	1
4901784	206	C	02/23/2021	10:43	-134.848	43.338	0	1895.00	0	2.0430	0	37.6250	8	30.085	0	1871.421	0	50.0	4	15.4	4	-1E+10	1	-1E+10	1	-1E+10	1	-1E+10	1	-1E+10	1	-1E+10	1
4901784	206	C	02/23/2021	10:43	-134.848	43.338	0	1900.20	0	2.0380	0	37.6260	8	30.086	0	1876.534	0	50.4	4	15.6	4	-1E+10	1	-1E+10	1	-1E+10	1	-1E+10	1	-1E+10	1	-1E+10	1
4901784	206	C	02/23/2021	10:43	-134.848	43.338	0	1905.40	0	2.0300	0	37.6280	8	30.088	0	1881.646	0	50.8	4	15.7	4	-1E+10	1	-1E+10	1	-1E+10	1	-1E+10	1	-1E+10	1	-1E+10	1
4901784	206	C	02/23/2021	10:43	-134.848	43.338	0	1910.70	0	2.0250	0	37.6290	8	30.090	0	1886.857	0	51.1	4	15.8	4	-1E+10	1	-1E+10	1	-1E+10	1	-1E+10	1	-1E+10	1	-1E+10	1
4901784	206	C	02/23/2021	10:43	-134.848	43.338	0	1915.10	0	2.0230	0	37.6300	8	30.091	0	1891.182	0	51.2	4	15.8	4	-1E+10	1	-1E+10	1	-1E+10	1	-1E+10	1	-1E+10	1	-1E+10	1
4901784	206	C	02/23/2021	10:43	-134.848	43.338	0	1919.50	0	2.0200	0	37.6310	8	30.092	0	1895.508	0	51.4	4	15.9	4	-1E+10	1	-1E+10	1	-1E+10	1	-1E+10	1	-1E+10	1	-1E+10	1
4901784	206	C	02/23/2021	10:43	-134.848	43.338	0	1924.80	0	2.0180	0	37.6310	8	30.092	0	1900.718	0	51.6	4	15.9	4	-1E+10	1	-1E+10	1	-1E+10	1	-1E+10	1	-1E+10	1	-1E+10	1
4901784	206	C	02/23/2021	10:43	-134.848	43.338	0	1930.20	0	2.0140	0	37.6320	8	30.093	0	1906.026	0	52.0	4	16.1	4	-1E+10	1	-1E+10	1	-1E+10	1	-1E+10	1	-1E+10	1	-1E+10	1
4901784	206	C	02/23/2021	10:43	-134.848	43.338	0	1935.60	0	2.0100	0	37.6330	8	30.094	0	1911.334	0	52.3	4	16.2	4	-1E+10	1	-1E+10	1	-1E+10	1	-1E+10	1	-1E+10	1	-1E+10	1
4901784	206	C	02/23/2021	10:43	-134.848	43.338	0	1940.10	0	2.0040	0	37.6350	8	30.096	0	1915.757	0	52.6	4	16.3	4	-1E+10	1	-1E+10	1	-1E+10	1	-1E+10	1	-1E+10	1	-1E+10	1
4901784	206	C	02/23/2021	10:43	-134.848	43.338	0	1944.60	0	2.0020	0	37.6350	8	30.097	0	1920.181	0	52.9	4	16.3	4	-1E+10	1	-1E+10	1	-1E+10	1	-1E+10	1	-1E+10	1	-1E+10	1
4901784	206	C	02/23/2021	10:43	-134.848	43.338	0	1950.00	0	1.9980	0	37.6360	8	30.098	0	1925.489	0	53.2	4	16.4	4	-1E+10	1	-1E+10	1	-1E+10	1	-1E+10	1	-1E+10	1	-1E+10	1
4901784	206	C	02/23/2021	10:43	-134.848	43.338	0	1955.50	0	1.9920	0	37.6370	8	30.099	0	1930.894	0	53.6	4	16.5	4	-1E+10	1	-1E+10	1	-1E+10	1	-1E+10	1	-1E+10	1	-1E+10	1
4901784	206	C	02/23/2021	10:43	-134.848	43.338	0	1959.60	0	1.9890	0	37.6380	8	30.100	0	1934.924	0	53.7	4	16.6	4	-1E+10	1	-1E+10	1	-1E+10	1	-1E+10	1	-1E+10	1	-1E+10	1
4901784	206	C	02/23/2021	10:43	-134.848	43.338	0	1964.40	0	1.9880	0	37.6390	8	30.101	0	1939.642	0	53.8	4	16.6	4	-1E+10	1	-1E+10	1	-1E+10	1	-1E+10	1	-1E+10	1	-1E+10	1
4901784	206	C	02/23/2021	10:43	-134.848	43.338	0	1969.20	0	1.9860	0	37.6400	8	30.102	0	1944.360	0	54.0	4	16.7	4	-1E+10	1	-1E+10	1	-1E+10	1	-1E+10	1	-1E+10	1	-1E+10	1
4901784	206	C	02/23/2021	10:43	-134.848	43.338	0	1975.00	0	1.9830	0	37.6410	8	30.103	0	1950.060	0	54.3	4	16.8	4	-1E+10	1	-1E+10	1	-1E+10	1	-1E+10	1	-1E+10	1	-1E+10	1
4901784	206	C	02/23/2021	10:43	-134.848	43.338	0	1980.70	0	1.9800	0	37.6420	8	30.104	0	1955.662	0	54.7	4	16.9	4	-1E+10	1	-1E+10	1	-1E+10	1	-1E+10	1	-1E+10	1	-1E+10	1
4901784	206	C	02/23/2021	10:43	-134.848	43.338	0	1985.70	0	1.9750	0	37.6440	8	30.106	0	1960.576	0	55.0	4	17.0	4	-1E+10	1	-1E+10	1	-1E+10	1	-1E+10	1	-1E+10	1	-1E+10	1
4901784	206	C	02/23/2021	10:43	-134.848	43.338	0	1990.70	0	1.9710	0	37.6440	8	30.107	0	1965.489	0	55.2	4	17.0	4	-1E+10	1	-1E+10	1	-1E+10	1	-1E+10	1	-1E+10	1	-1E+10	1
4901784	206	C	02/23/2021	10:43	-134.848	43.338	0	1995.70	0	1.9680	0	37.6440	8	30.107	0	1970.403	0	55.6	4	17.1	4	-1E+10	1	-1E+10	1	-1E+10	1	-1E+10	1	-1E+10	1	-1E+10	1
4901784	206	C	02/23/2021	10:43	-134.848	43.338	0	2000.10	0	1.9640	0	37.6450	8	30.108	0	1974.727	0	55.9	4	17.2	4	-1E+10	1	-1E+10	1	-1E+10	1	-1E+10	1	-1E+10	1	-1E+10	1
4901784	206	C	02/23/2021	10:43	-134.848	43.338	0	2005.60	0	1.9580	0	37.6460	8	30.110	0	1980.131	0	56.1	4	17.3	4	-1E+10	1	-1E+10	1	-1E+10	1	-1E+10	1	-1E+10	1	-1E+10	1
4901784	206	C	02/23/2021	10:43	-134.848	43.338	0	2009.90	0	1.9550	0	37.6460	8	30.110	0	1984.357	0	56.3	4	17.4	4	-1E+10	1	-1E+10	1	-1E+10	1	-1E+10	1	-1E+10	1	-1E+10	1
4901784	206	C	02/23/2021	10:43	-134.848	43.338	0	2014.90	0	1.9530	0	37.6470	8	30.111	0	1989.270	0	56.4	4	17.4	4	-1E+10	1	-1E+10	1	-1E+10	1	-1E+10	1	-1E+10	1	-1E+10	1
4901784	206	C	02/23/2021	10:43	-134.848	43.338	0	2017.80	0	1.9510	0	37.6480	8	30.112	0	1992.120	0	55.6	4	17.1	4	-1E+10	1	-1E+10	1	-1E+10	1	-1E+10	1	-1E+10	1	-1E+10	1
4901784	206	C	02/23/2021	10:43	-134.848	43.338	0																										
4901784	207	C	03/05/2021	10:50	-134.973	43.264	0	539.70	0	4.5550	0	36.9250	8	29.261	0	534.708	0	46.9	4	15.3	4	-1E+10	1	-1E+10	1	-1E+10	1	-1E+10	1	-1E+10	1	-1E+10	1
4901784	207	C	03/05/2021	10:50	-134.973	43.264	0	544.60	0	4.5300	0	36.9290	8	29.267	0	539.556	0	45.5	4	14.8	4	-1E+10	1	-1E+10	1	-1E+10	1	-1E+10	1	-1E+10	1	-1E+10	1
4901784	207	C	03/05/2021	10:50	-134.973	43.264	0	549.50	0	4.5150	0	36.9370	8	29.275	0	544.404	0	43.7	4	14.3	4	-1E+10	1	-1E+10	1	-1E+10	1	-1E+10	1	-1E+10	1	-1E+10	1
4901784	207	C	03/05/2021	10:50	-134.973	43.264	0	554.50	0	4.4960	0	36.9430	8	29.282	0	549.351	0	42.4	4	13.8	4	-1E+10	1	-1E+10	1	-1E+10	1	-1E+10	1	-1E+10	1	-1E+10	1
4901784	207	C	03/05/2021	10:50	-134.973	43.264	0	559.40	0	4.4780	0	36.9460	8	29.287	0	554.199	0	41.1	4	13.4	4	-1E+10	1	-1E+10	1	-1E+10	1	-1E+10	1	-1E+10	1	-1E+10	1
4901784	207	C	03/05/2021	10:50	-134.973	43.264	0	564.30	0	4.4480	0	36.9530	8	29.296	0	559.047	0	39.3	4	12.8	4	-1E+10	1	-1E+10	1	-1E+10	1	-1E+10	1	-1E+10	1	-1E+10	1
4901784	207	C	03/05/2021	10:50	-134.973	43.264	0	570.00	0	4.4140	0	36.9640	8	29.308	0	564.686	0	37.2	4	12.1	4	-1E+10	1	-1E+10	1	-1E+10	1	-1E+10	1	-1E+10	1	-1E+10	1
4901784	207	C	03/05/2021	10:50	-134.973	43.264	0	575.70	0	4.3810	0	36.9760	8	29.322	0	570.325	0	35.3	4	11.5	4	-1E+10	1	-1E+10	1	-1E+10	1	-1E+10	1	-1E+10	1	-1E+10	1
4901784	207	C	03/05/2021	10:50	-134.973	43.264	0	580.70	0	4.3670	0	36.9840	8	29.330	0	575.272	0	34.6	4	11.2	4	-1E+10	1	-1E+10	1	-1E+10	1	-1E+10	1	-1E+10	1	-1E+10	1
4901784	207	C	03/05/2021	10:50	-134.973	43.264	0	585.70	0	4.3610	0	36.9860	8	29.332	0	580.218	0	34.0	4	11.1	4	-1E+10	1	-1E+10	1	-1E+10	1	-1E+10	1	-1E+10	1	-1E+10	1
4901784	207	C	03/05/2021	10:50	-134.973	43.264	0	590.80	0	4.3540	0	36.9880	8	29.334	0	585.263	0	33.1	4	10.8	4	-1E+10	1	-1E+10	1	-1E+10	1	-1E+10	1	-1E+10	1	-1E+10	1
4901784	207	C	03/05/2021	10:50	-134.973	43.264	0	595.80	0	4.3410	0	36.9980	8	29.344	0	590.209	0	31.9	4	10.4	4	-1E+10	1	-1E+10	1	-1E+10	1	-1E+10	1	-1E+10	1	-1E+10	1
4901784	207	C	03/05/2021	10:50	-134.973	43.264	0	600.00	0	4.3370	0	37.0020	8	29.348	0	594.364	0	31.3	4	10.2	4	-1E+10	1	-1E+10	1	-1E+10	1	-1E+10	1	-1E+10	1	-1E+10	1
4901784	207	C	03/05/2021	10:50	-134.973	43.264	0	604.20	0	4.3310	0	37.0040	8	29.350	0	598.518	0	30.9	4	10.0	4	-1E+10	1	-1E+10	1	-1E+10	1	-1E+10	1	-1E+10	1	-1E+10	1
4901784	207	C	03/05/2021	10:50	-134.973	43.264	0	609.30	0	4.3170	0	37.0090	8	29.355	0	603.563	0	30.2	4	9.8	4	-1E+10	1	-1E+10	1	-1E+10	1	-1E+10	1	-1E+10	1	-1E+10	1
4901784	207	C	03/05/2021	10:50	-134.973	43.264	0	614.50	0	4.3110	0	37.0120	8	29.359	0	608.706	0	29.7	4	9.7	4	-1E+10	1	-1E+10	1	-1E+10	1	-1E+10	1	-1E+10	1	-1E+10	1
4901784	207	C	03/05/2021	10:50	-134.973	43.264	0	619.60	0	4.3050	0	37.0140	8	29.361	0	613.751	0	29.1	4	9.4	4	-1E+10	1	-1E+10	1	-1E+10	1	-1E+10	1	-1E+10	1	-1E+10	1
4901784	207	C	03/05/2021	10:50	-134.973	43.264	0	624.70	0	4.2980	0	37.0200	8	29.367	0	618.795	0	28.3	4	9.2	4	-1E+10	1	-1E+10	1	-1E+10	1	-1E+10	1	-1E+10	1	-1E+10	1
4901784	207	C	03/05/2021	10:50	-134.973	43.264	0	629.90	0	4.2850	0	37.0240	8	29.371	0	623.938	0	27.5	4	8.9	4	-1E+10	1	-1E+10	1	-1E+10	1	-1E+10	1	-1E+10	1	-1E+10	1
4901784	207	C	03/05/2021	10:50	-134.973	43.264	0	635.20	0	4.2730	0	37.0310	8	29.378	0	629.180	0	26.5	4	8.6	4	-1E+10	1	-1E+10	1	-1E+10	1	-1E+10	1	-1E+10	1	-1E+10	1
4901784	207	C	03/05/2021	10:50	-134.973	43.264	0	640.60	0	4.2630	0	37.0360	8	29.383	0	634.520	0	25.7	4	8.3	4	-1E+10	1	-1E+10	1	-1E+10	1	-1E+10	1	-1E+10	1	-1E+10	1
4901784	207	C	03/05/2021	10:50	-134.973	43.264	0	645.10	0	4.2390	0	37.0410	8	29.390	0	638.971	0	24.9	4	8.1	4	-1E+10	1	-1E+10	1	-1E+10	1	-1E+10	1	-1E+10	1	-1E+10	1
4901784	207	C	03/05/2021	10:50	-134.973	43.264	0	649.70	0	4.2300	0	37.0500	8	29.398	0	643.520	0	24.2	4	7.8	4	-1E+10	1	-1E+10	1	-1E+10	1	-1E+10	1	-1E+10	1	-1E+10	1
4901784	207	C	03/05/2021	10:50	-134.973	43.264	0	655.10	0	4.2200	0	37.0530	8	29.402	0	648.860	0	23.6	4	7.6	4	-1E+10	1	-1E+10	1	-1E+10	1	-1E+10	1	-1E+10	1	-1E+10	1
4901784	207	C	03/05/2021	10:50	-134.973	43.264	0	660.60	0	4.2050	0	37.0580	8	29.408	0	654.299	0	22.8	4	7.4	4	-1E+10	1	-1E+10	1	-1E+10	1	-1E+10	1	-1E+10	1	-1E+10	1
4901784	207	C	03/05/2021	10:50	-134.973	43.264	0	665.10	0	4.1810	0	37.0650	8	29.416	0	658.749	0	22.1	4	7.2	4	-1E+10	1	-1E+10	1	-1E+10	1	-1E+10	1	-1E+10	1	-1E+10	1
4901784	207	C	03/05/2021	10:50	-134.973	43.264	0	669.60	0	4.1670	0	37.0710	8	29.422	0	663.199	0	21.5	4	7.0	4	-1E+10	1	-1E+10	1	-1E+10	1	-1E+10	1	-1E+10	1	-1E+10	1
4901784	207	C	03/05/2021	10:50	-134.973	43.264	0	675.20	0	4.1600	0	37.0750	8	29.426	0	668.737	0	20.8	4	6.7	4	-1E+10	1	-1E+10	1	-1E+10	1	-1E+10	1	-1E+10	1	-1E+10	1
4901784	207	C	03/05/2021	10:50	-134.973	43.264	0	679.80	0	4.1420	0	37.0810	8	29.433	0	673.285	0	20.0	4	6.5	4	-1E+10	1	-1E+10	1	-1E+10	1	-1E+10	1	-1E+10	1	-1E+10	1
4901784	207	C	03/05/2021	10:50	-134.973	43.264	0	684.80	0	4.1530	0	37.0910	8	29.440	0	678.229	0	18.8	4	6.1	4	-1E+10	1	-1E+10	1	-1E+10	1	-1E+10	1	-1E+10	1	-1E+10	1
4901784	207	C	03/05/2021	10:50	-134.973	43.264	0	690.00	0	4.1600	0	37.1010	8	29.447	0	683.371	0	17.9	4	5.8	4	-1E+10	1	-1E+10	1	-1E+10	1	-1E+10	1	-1E+10	1	-1E+10	1
4901784	207	C	03/05/2021	10:50	-134.973	43.264	0	694.90	0	4.1530	0	37.1090	8	29.454	0	688.215	0	17.1	4	5.5	4	-1E+10	1	-1E+10	1	-1E+10	1	-1E+10	1	-1E+10	1	-1E+10	1
4901784	207	C	03/05/2021	10:50	-134.973	43.264	0	699.70	0	4.1560	0	37.1170	8	29.460	0	692.961	0	16.4	4	5.3	4	-1E+10	1	-1E+10	1	-1E+10	1	-1E+10	1	-1E+10	1	-1E+10	1
4901784	207	C	03/05/2021	10:50	-134.973	43.264	0	704.60	0	4.1430	0	37.1250	8	29.468	0	697.806	0	15.7	4	5.1	4	-1E+10	1	-1E+10	1	-1E+10	1	-1E+10	1	-1E+10	1	-1E+10	1
4901784	207	C	03/05/2021	10:50	-134.973	43.264	0	709.70	0	4.1410	0	37.1320	8	29.474	0	702.848	0	15.3	4	5.0	4	-1E+10	1	-1E+10	1	-1E+10	1	-1E+10	1	-1E+10	1	-1E+10	1
4901784	207	C	03/05/2021	10:50	-134.973	43.264	0	714.70	0	4.1450	0	37.1360	8	29.477	0	707.791	0	15.0	4	4.8	4	-1E+10	1	-1E+10	1	-1E+10	1	-1E+10	1	-1E+10	1	-1E+10	1
4901784	207	C	03/05/2021	10:50	-134.973	43.264	0	719.80	0	4.1430	0	37.1400	8	29.480	0	712.833	0	14.6	4	4.7	4	-1E+10	1	-1E+10	1	-1E+10	1	-1E+10	1	-1E+10	1	-1E+10	1
4901784	207	C	03/05/2021	10:50	-134.973	43.264	0	724.80	0	4.1320	0	37.1470	8	29.487	0	717.776	0	14.2	4	4.6	4	-1E+10	1	-1E+10	1	-1E+10	1	-1E+10	1	-1E+10	1	-1E+10	1
4901784	207	C	03/05/2021	10:50	-134.973	43.264	0	729.90	0	4.1280	0	37.1510	8	29.491	0	722.818	0	13.9	4	4.5	4	-1E+10	1	-1E+10	1	-1E+10	1	-1E+10	1	-1E+10	1	-1E+10	1
4901784	207	C	03/05/2021	10:50	-134.973	43.264	0	735.00	0	4.1300	0	37.1550	8	29.494	0	727.860	0	13.6	4	4.4	4	-1E+10	1	-1E+10	1	-1E+10	1	-1E+10	1	-1E+10	1	-1E+10	1
4901784	207	C	03/05/2021	10:50	-134.973	43.264	0	740.20	0	4.1260	0	37.1620	8	29.500	0	733.000	0	13.2	4	4.3	4	-1E+10	1	-1E+10	1	-1E+10	1	-1E+10	1	-1E+10	1	-1E+10	1
4901784	207	C	03/05/2021	10:50	-134.973	43.264	0	745.30	0	4.1220	0	37.1660	8	29.504	0	738.041	0	13.0	4	4.2	4	-1E+10	1	-1E+10	1	-1E+10	1	-1E+10	1	-1E+10	1	-1E+10	1
4901784	207	C	03/05/2021	10:50	-134.973	43.264	0	750.50	0	4.1070	0	37.1700	8	29.508	0	743.182	0	12.9	4	4.2	4	-1E+10	1	-1E+10	1	-1E+10	1	-1E+10	1	-1E+10	1	-1E+10	1
4901784	207	C	03/05/2021	10:50	-134.973	43.264	0	755.60	0	4.0900	0	37.1720	8	29.512	0	748.223	0	12.7	4	4.1	4	-1E+10	1	-1E+10	1	-1E+10	1	-1E+10	1	-1E+10	1	-1E+10	1
4901784	207	C	03/05/2021	10:50	-134.973	43.264	0	760.00	0	4.0680	0	37.1780	8	29.519	0	752.572	0	12.5	4	4.0	4	-1E+10	1	-1E+10	1	-1E+10	1	-1E+10	1	-1E+10	1	-1E+10	1
4901784	207	C	03/05/2021	10:50	-134.973	43.264	0	764.40	0	4.0730	0	37.1820	8	29.522	0	756.921	0	12.2	4	4.0	4	-1E+10	1	-1E+10	1	-1E+10	1	-1E+10	1	-1E+10	1	-1E+10	1
4901784	207	C	03/05/2021	10:50	-134.973	43.264	0	769.60	0	4.0660	0	37.1870	8	29.527	0	762.060	0	12.0	4	3.9	4	-1E+10	1	-1E+10	1	-1E+10	1	-1E+10	1	-1E+10	1	-1E+10	1
4901784	207	C	03/05/2021	10:50	-134.973	43.264	0	775.00	0	4.0470	0	37.1940	8	29.534	0	767.398	0	11.8	4	3.8	4	-1E+10	1	-1E+10	1	-1E+10	1	-1E+10	1	-1E+10	1	-1E+10	1
4901784	207	C	03/05/2021	10:50	-134.973	43.264	0	780.30	0	4.0450	0	37.1960	8	29.536	0	772.636	0	11.6	4	3.8	4	-1E+10	1	-1E+10	1	-1E+10	1	-1E+10	1	-1E+10	1	-1E+10	1
4901784	207	C	03/05/2021	10:50	-134.973	43.264	0	785.60	0	4.0320	0	37.2030	8	29.543	0	777.874	0	11.4	4	3.7	4	-1E+10	1	-1E+10	1	-1E+10	1	-1E+10	1	-1E+10	1	-1E+10	1
4901784	207	C	03/05/2021	10:50	-134.973	43.264	0	790.10	0	4.0160	0	37.2090	8	29.550	0	782.321	0	11.3	4	3.6	4	-1E+10	1	-1E+10	1	-1E+10	1	-1E+10	1	-1E+10	1	-1E+10	1
4901784	207	C	03/05/2021	10:50	-134.973	43.264	0	794.50	0	4.0080	0	37.2110	8	29.552	0	786.670	0	11.2	4	3.6	4	-1E+10	1	-1E+10	1	-1E+10	1	-1E+10	1	-1E+10	1	-1E+10	1
4901784	207	C	03/05/2021	10:50	-134.973	43.264	0	799.80	0	3.9880	0	37.2170	8	29.559	0	791.907	0	11.0	4	3.6	4	-1E+10	1	-1E+10	1	-1E+10	1	-1E+10	1	-1E+10	1	-1E+10	1
4901784	207	C	03/05/2021	10:50	-134.973	43.264	0	805.20	0	3.9710	0	37.2200	8	29.564	0	797.244	0	10.9	4	3.5	4	-1E+10	1	-1E+10	1	-1E+10	1	-1E+10	1	-1E+10	1	-1E+10	1
4901784	207	C	03/05/2021	10:50	-134.973	43.264	0	810.60	0	3.9480	0	37.2260	8	29.571	0	802.580	0	10.8	4	3.5	4	-1E+10	1	-1E+10	1	-1E+10	1	-1E+10	1	-1E+10	1	-1E+10	1
4901784	207	C	03/05/2021	10:50	-134.973	43.264	0	815.20	0	3.9300	0	37.2310	8	29.577	0	807.126	0	10.7	4	3.5	4	-1E+10	1	-1E+10	1	-1E+10	1	-1E+10	1	-1E+10	1	-1E+10	1
4901784	207	C	03/05/2021	10:50	-134.973	43.264	0	819.80	0	3.9190	0	37.2330	8	29.580	0	811.671	0	10.7	4	3.4	4	-1E+10	1	-1E+10	1	-1E+10	1	-1E+10	1	-1E+10	1	-1E+10	1
4901784	207	C	03/05/2021	10:50	-134.973	43.264	0	825.40	0	3.9110	0	37.2350	8	29.582	0	817.205	0	10.6	4	3.4	4	-1E+10	1	-1E+10	1	-1E+10	1	-1E+10	1	-1E+10	1	-1E+10	1
4901784	207	C	03/05/2021	10:50	-134.973	43.264	0	830.00	0	3.9000	0	37.2380	8	29.586	0	821.750	0	10.6	4	3.4	4	-1E+10	1	-1E+10	1	-1E+10	1	-1E+10	1	-1E+10	1	-1E+10	1
4901784	207	C	03/05/2021	10:50	-134.973	43.264	0	834.70	0	3.8850	0	37.2420	8	29.591	0	826.394	0	10.5	4	3.4	4	-1E+10	1	-1E+10	1	-1E+10	1	-1E+10	1	-1E+10	1	-1E+10	1
4901784	207	C	03/05/2021	10:50	-134.973	43.264	0	839.50	0	3.8740	0	37.2450	8	29.595	0	831.137	0	10.4	4	3.4	4	-1E+10	1	-1E+10	1	-1E+10	1	-1E+10	1	-1E+10	1	-1E+10	1
4901784	207	C	03/05/2021	10:50	-134.973	43.264	0	844.10	0	3.8660	0	37.2480	8	29.598	0	835.682	0	10.4	4	3.3	4	-1E+10	1	-1E+10	1	-1E+10	1	-1E+10	1	-1E+10	1	-1E+10	1
4901784	207	C	03/05/2021	10:50	-134.973	43.264	0	849.50	0	3.8540	0	37.2520	8	29.602	0	841.017	0	10.4	4	3.3	4	-1E+10	1	-1E+10	1	-1E+10	1	-1E+10	1	-1E+10	1	-1E+10	1
4901784	207	C	03/05/2021	10:50	-134.973	43.264	0	855.10	0	3.8500	0	37.2530	8	29.604	0	846.550	0	10.3	4	3.3	4	-1E+10	1	-1E+10	1	-1E+10	1	-1E+10	1	-1E+10	1	-1E+10	1
4901784	207	C	03/05/2021	10:50	-134.973	43.264	0	860.60	0	3.8360	0	37.2580	8	29.609	0	851.983	0	10.2	4	3.3	4	-1E+10	1	-1E+10	1	-1E+10	1	-1E+10	1	-1E+10	1	-1E+10	1
4901784	207	C	03/05/2021	10:50	-134.973	43.264	0	865.60	0	3.8250	0	37.2620	8	29.614	0	856.923	0	10.2	4	3.3	4	-1E+10	1	-1E+10	1	-1E+10	1	-1E+10	1	-1E+10	1	-1E+10	1
4901784	207	C	03/05/2021	10:50	-134.973	43.264	0	870.60	0	3.8210	0	37.2630	8	29.615	0	861.863	0	10.2	4	3.3	4	-1E+10	1	-1E+10	1	-1E+10	1	-1E+10	1	-1E+10	1	-1E+10	1
4901784	207	C	03/05/2021	10:50	-134.973	43.264	0	875.60	0	3.8060	0	37.2680	8	29.621	0	866.802	0	10.1	4	3.2	4	-1E+10	1	-1E+10	1	-1E+10	1	-1E+10	1	-1E+10	1	-1E+10	1
4901784	207	C	03/05/2021	10:50	-134.973	43.264	0	880.60	0	3.7970	0	37.2720	8	29.625	0	871.742	0	10.1	4	3.2	4	-1E+10	1	-1E+10	1	-1E+10	1	-1E+10	1	-1E+10	1	-1E+10	1
4901784	207	C	03/05/2021	10:50	-134.973	43.264	0	885.70	0	3.7830	0	37.2780	8	29.631	0	876.780	0	10.0	4	3.2	4	-1E+10	1	-1E+10	1	-1E+10	1	-1E+10	1	-1E+10	1	-1E+10	1
4901784	207	C	03/05/2021	10:50	-134.973	43.264	0	890.70	0	3.7750	0	37.2810	8	29.634	0	881.719	0	10.0	4	3.2	4	-1E+10	1	-1E+10	1	-1E+10	1	-1E+10	1	-1E+10	1	-1E+10	1
4901784	207	C	03/05/2021	10:50	-134.973	43.264	0	895.80	0	3.7640	0	37.2850	8	29.639	0	886.756	0	10.0	4	3.2	4	-1E+10	1	-1E+10	1	-1E+10	1	-1E+10	1	-1E+10	1	-1E+10	1
4901784	207	C	03/05/2021	10:50	-134.973	43.264	0	900.80	0	3.7490	0	37.2890	8	29.644	0	891.695	0	9.9	4	3.2	4	-1E+10	1	-1E+10	1	-1E+10	1	-1E+10	1	-1E+10	1	-1E+10	1
4901784	207	C	03/05/2021	10:50	-134.973	43.264	0	905.00	0	3.7420	0	37.2920	8	29.647	0	895.844	0	9.9	4	3.2	4	-1E+10	1	-1E+10	1	-1E+10	1	-1E+10	1	-1E+10	1	-1E+10	1
4901784	207	C	03/05/2021	10:50	-134.973	43.264	0	909.20	0	3.7320	0	37.2960	8	29.651	0	899.992	0	9.9	4	3.2	4	-1E+10	1	-1E+10	1	-1E+10	1	-1E+10	1	-1E+10	1	-1E+10	1
4901784	207	C	03/05/2021	10:50	-134.973	43.264	0	914.30	0	3.7120	0	37.3020	8	29.658	0	905.030	0	9.9	4	3.2	4	-1E+10	1	-1E+10	1	-1E+10	1	-1E+10	1	-1E+10	1	-1E+10	1
4901784	207	C	03/05/2021	10:50	-134.973	43.264	0	919.40	0	3.6980	0	37.3100	8	29.666	0	910.067	0	10.0	4	3.2	4	-1E+10	1	-1E+10	1	-1E+10	1	-1E+10	1	-1E+10	1	-1E+10	1
4901784	207	C	03/05/2021	10:50	-134.973	43.264	0	924.30	0	3.6820	0	37.3140	8	29.671	0	914.906	0	10.0	4	3.2	4	-1E+10	1	-1E+10	1	-1E+10	1	-1E+10	1	-1E+10	1	-1E+10	1
4901784	207	C	03/05/2021	10:50	-134.973	43.264	0	929.40	0	3.6690	0	37.3170	8	29.675	0	919.943	0	10.0	4	3.2	4	-1E+10	1	-1E+10	1	-1E+10	1	-1E+10	1	-1E+10	1	-1E+10	1
4901784	207	C	03/05/2021	10:50	-134.973	43.264	0	934.40	0	3.6530	0	37.3220	8	29.680	0	924.881	0	10.0	4	3.2	4	-1E+10	1	-1E+10	1	-1E+10	1	-1E+10	1	-1E+10	1	-1E+10	1
4901784	207	C	03/05/2021	10:50	-134.973	43.264	0	939.50	0	3.6440	0	37.3240	8	29.683	0	929.918	0	10.0	4	3.2	4	-1E+10	1	-1E+10	1	-1E+10	1	-1E+10	1	-1E+10	1	-1E+10	1
4901784	207	C	03/05/2021	10:50	-134.973	43.264	0	944.60	0	3.6330	0	37.3270	8	29.687	0	934.955	0	10.1	4	3.2	4	-1E+10	1	-1E+10	1	-1E+10	1	-1E+10	1	-1E+10	1	-1E+10	1
4901784	207	C	03/05/2021	10:50	-134.973	43.264	0	949.70	0	3.6190	0	37.3300	8	29.690	0	939.991	0	10.1	4	3.2	4	-1E+10	1	-1E+10	1	-1E+10	1	-1E+10	1	-1E+10	1	-1E+10	1
4901784	207	C	03/05/2021	10:50	-134.973	43.264	0	955.00	0	3.6000	0	37.3330	8	29.695	0	945.225	0	10.1	4	3.2	4	-1E+10	1	-1E+10	1	-1E+10	1	-1E+10	1	-1E+10	1	-1E+10	1
4901784	207	C	03/05/2021	10:50	-134.973	43.264	0	960.10	0	3.5820	0	37.3370	8	29.700	0	950.261	0	10.2	4	3.3	4	-1E+10	1	-1E+10	1	-1E+10	1	-1E+10	1	-1E+10	1	-1E+10	1
4901784	207	C	03/05/2021	10:50	-134.973	43.264	0	965.30	0	3.5760	0	37.3390	8	29.702	0	955.396	0	10.2	4	3.3	4	-1E+10	1	-1E+10	1	-1E+10	1	-1E+10	1	-1E+10	1	-1E+10	1
4901784	207	C	03/05/2021	10:50	-134.973	43.264	0	970.50	0	3.5520	0	37.3420	8	29.707	0	960.531	0	10.3	4	3.3	4	-1E+10	1	-1E+10	1	-1E+10	1	-1E+10	1	-1E+10	1	-1E+10	1
4901784	207	C	03/05/2021	10:50	-134.973	43.264	0	975.70	0	3.5430	0	37.3470	8	29.712	0	965.666	0	10.4	4	3.3	4	-1E+10	1	-1E+10	1	-1E+10	1	-1E+10	1	-1E+10	1	-1E+10	1
4901784	207	C	03/05/2021	10:50	-134.973	43.264	0	980.00	0	3.5300	0	37.3490	8	29.715	0	969.911	0	10.4	4	3.3	4	-1E+10	1	-1E+10	1	-1E+10	1	-1E+10	1	-1E+10	1	-1E+10	1
4901784	207	C	03/05/2021	10:50	-134.973	43.264	0	984.30	0	3.5270	0	37.3500	8	29.716	0	974.157	0	10.4	4	3.3	4	-1E+10	1	-1E+10	1	-1E+10	1	-1E+10	1	-1E+10	1	-1E+10	1
4901784	207	C	03/05/2021	10:50	-134.973	43.264	0	989.50	0	3.5110	0	37.3510	8	29.719	0	979.291	0	10.4	4	3.3	4	-1E+10	1	-1E+10	1	-1E+10	1	-1E+10	1	-1E+10	1	-1E+10	1
4901784	207	C	03/05/2021	10:50	-134.973	43.264	0	994.70	0	3.5020	0	37.3520	8	29.721	0	984.426	0	10.5	4	3.3	4	-1E+10	1	-1E+10	1	-1E+10	1	-1E+10	1	-1E+10	1	-1E+10	1
4901784	207	C	03/05/2021	10:50	-134.973	43.264	0	999.90	0	3.4850	0	37.3570	8	29.726	0	989.560	0	10.5	4	3.4	4	-1E+10	1	-1E+10	1	-1E+10	1	-1E+10	1	-1E+10	1	-1E+10	1
4901784	207	C	03/05/2021	10:50	-134.973	43.264	0	1005.10	0	3.4790	0	37.3590	8	29.729	0	994.693	0	10.6	4	3.4	4	-1E+10	1	-1E+10	1	-1E+10	1	-1E+10	1	-1E+10	1	-1E+10	1
4901784	207	C	03/05/2021	10:50	-134.973	43.264	0	1010.40	0	3.4700	0	37.3600	8	29.730	0	999.926	0	10.6	4	3.4	4	-1E+10	1	-1E+10	1	-1E+10	1	-1E+10	1	-1E+10	1	-1E+10	1
4901784	207	C	03/05/2021	10:50	-134.973	43.264	0	1014.80	0	3.4520	0	37.3640	8	29.736	0	1004.270	0	10.7	4	3.4	4	-1E+10	1	-1E+10	1	-1E+10	1	-1E+10	1	-1E+10	1	-1E+10	1
4901784	207	C	03/05/2021	10:50	-134.973	43.264	0	1019.30	0	3.4420	0	37.3670	8	29.739	0	1008.712	0	10.8	4	3.4	4	-1E+10	1	-1E+10	1	-1E+10	1	-1E+10	1	-1E+10	1	-1E+10	1
4901784	207	C	03/05/2021	10:50	-134.973	43.264	0	1024.80	0	3.4140	0	37.3730	8	29.747	0	1014.142	0	10.9	4	3.5	4	-1E+10	1	-1E+10	1	-1E+10	1	-1E+10	1	-1E+10	1	-1E+10	1
4901784	207	C	03/05/2021	10:50	-134.973	43.264	0	1030.20	0	3.4060	0	37.3740	8	29.748	0	1019.473	0	10.9	4	3.5	4	-1E+10	1	-1E+10	1	-1E+10	1	-1E+10	1	-1E+10	1	-1E+10	1
4901784	207	C	03/05/2021	10:50	-134.973	43.264	0	1034.80	0	3.4000	0	37.3740	8	29.749	0	1024.013	0	11.0	4	3.5	4	-1E+10	1	-1E+10	1	-1E+10	1	-1E+10	1	-1E+10	1	-1E+10	1
4901784	207	C	03/05/2021	10:50	-134.973	43.264	0	1039.40	0	3.3810	0	37.3790	8	29.755	0	1028.554	0	11.1	4	3.5	4	-1E+10	1	-1E+10	1	-1E+10	1	-1E+10	1	-1E+10	1	-1E+10	1
4901784	207	C	03/05/2021	10:50	-134.973	43.264	0	1044.80	0	3.3720	0	37.3820	8	29.758	0	1033.885	0	11.2	4	3.6	4	-1E+10	1	-1E+10	1	-1E+10	1	-1E+10	1	-1E+10	1	-1E+10	1
4901784	207	C	03/05/2021	10:50	-134.973	43.264	0	1050.30	0	3.3610	0	37.3840	8	29.761	0	1039.314	0	11.3	4	3.6	4	-1E+10	1	-1E+10	1	-1E+10	1	-1E+10	1	-1E+10	1	-1E+10	1
4901784	207	C	03/05/2021	10:50	-134.973	43.264	0	1055.60	0	3.3430	0	37.3880	8	29.766	0	1044.545	0	11.4	4	3.6	4	-1E+10	1	-1E+10	1	-1E+10	1	-1E+10	1	-1E+10	1	-1E+10	1
4901784	207	C	03/05/2021	10:50	-134.973	43.264	0	1060.40	0	3.3300	0	37.3910	8	29.770	0	1049.283	0	11.5	4	3.7	4	-1E+10	1	-1E+10	1	-1E+10	1	-1E+10	1	-1E+10	1	-1E+10	1
4901784	207	C	03/05/2021	10:50	-134.973	43.264	0	1065.30	0	3.3170	0	37.3940	8	29.774	0	1054.119	0	11.6	4	3.7	4	-1E+10	1	-1E+10	1	-1E+10	1	-1E+10	1	-1E+10	1	-1E+10	1
4901784	207	C	03/05/2021	10:50	-134.973	43.264	0	1070.30	0	3.3050	0	37.3980	8	29.778	0	1059.054	0	11.7	4	3.7	4	-1E+10	1	-1E+10	1	-1E+10	1	-1E+10	1	-1E+10	1	-1E+10	1
4901784	207	C	03/05/2021	10:50	-134.973	43.264	0	1075.30	0	3.2940	0	37.3990	8	29.780	0	1063.989	0	11.8	4	3.7	4	-1E+10	1	-1E+10	1	-1E+10	1	-1E+10	1	-1E+10	1	-1E+10	1
4901784	207	C	03/05/2021	10:50	-134.973	43.264	0	1080.50	0	3.2870	0	37.4010	8	29.783	0	1069.121	0	11.9	4	3.8	4	-1E+10	1	-1E+10	1	-1E+10	1	-1E+10	1	-1E+10	1	-1E+10	1
4901784	207	C	03/05/2021	10:50	-134.973	43.264	0	1085.70	0	3.2790	0	37.4030	8	29.785	0	1074.253	0	12.1	4	3.8	4	-1E+10	1	-1E+10	1	-1E+10	1	-1E+10	1	-1E+10	1	-1E+10	1
4901784	207	C	03/05/2021	10:50	-134.973	43.264	0	1090.10	0	3.2620	0	37.4070	8	29.790	0	1078.595	0	12.2	4	3.9	4	-1E+10	1	-1E+10	1	-1E+10	1	-1E+10	1	-1E+10	1	-1E+10	1
4901784	207	C	03/05/2021	10:50	-134.973	43.264	0	1094.40	0	3.2510	0	37.4090	8	29.793	0	1082.838	0	12.4	4	3.9	4	-1E+10	1	-1E+10	1	-1E+10	1	-1E+10	1	-1E+10	1	-1E+10	1
4901784	207	C	03/05/2021	10:50	-134.973	43.264	0	1100.00	0	3.2410	0	37.4140	8	29.798	0	1088.365	0	12.6	4	4.0	4	-1E+10	1	-1E+10	1	-1E+10	1	-1E+10	1	-1E+10	1	-1E+10	1
4901784	207	C	03/05/2021	10:50	-134.973	43.264	0	1104.60	0	3.2320	0	37.4160	8	29.800	0	1092.904	0	12.8	4	4.1	4	-1E+10	1	-1E+10	1	-1E+10	1	-1E+10	1	-1E+10	1	-1E+10	1
4901784	207	C	03/05/2021	10:50	-134.973	43.264	0	1109.90	0	3.2240	0	37.4190	8	29.804	0	1098.134	0	12.9	4	4.1	4	-1E+10	1	-1E+10	1	-1E+10	1	-1E+10	1	-1E+10	1	-1E+10	1
4901784	207	C	03/05/2021	10:50	-134.973	43.264	0	1115.30	0	3.2180	0	37.4210	8	29.806	0	1103.463	0	13.1	4	4.2	4	-1E+10	1	-1E+10	1	-1E+10	1	-1E+10	1	-1E+10	1	-1E+10	1
4901784	207	C	03/05/2021	10:50	-134.973	43.264	0	1120.20	0	3.2070	0	37.4240	8	29.809	0	1108.298	0	13.3	4	4.2	4	-1E+10	1	-1E+10	1	-1E+10	1	-1E+10	1	-1E+10	1	-1E+10	1
4901784	207	C	03/05/2021	10:50	-134.973	43.264	0	1125.20	0	3.1950	0	37.4270	8	29.813	0	1113.231	0	13.5	4	4.3	4	-1E+10	1	-1E+10	1	-1E+10	1	-1E+10	1	-1E+10	1	-1E+10	1
4901784	207	C	03/05/2021	10:50	-134.973	43.264	0	1130.20	0	3.1800	0	37.4310	8	29.818	0	1118.165	0	13.7	4	4.4	4	-1E+10	1	-1E+10	1	-1E+10	1	-1E+10	1	-1E+10	1	-1E+10	1
4901784	207	C	03/05/2021	10:50	-134.973	43.264	0	1135.20	0	3.1730	0	37.4330	8	29.820	0	1123.098	0	13.8	4	4.4	4	-1E+10	1	-1E+10	1	-1E+10	1	-1E+10	1	-1E+10	1	-1E+10	1
4901784	207	C	03/05/2021	10:50	-134.973	43.264	0	1140.30	0	3.1680	0	37.4350	8	29.822	0	1128.130	0	13.9	4	4.4	4	-1E+10	1	-1E+10	1	-1E+10	1	-1E+10	1	-1E+10	1	-1E+10	1
4901784	207	C	03/05/2021	10:50	-134.973	43.264	0	1145.50	0	3.1610	0	37.4360	8	29.824	0	1133.261	0	14.0	4	4.4	4	-1E+10	1	-1E+10	1	-1E+10	1	-1E+10	1	-1E+10	1	-1E+10	1
4901784	207	C	03/05/2021	10:50	-134.973	43.264	0	1150.70	0	3.1560	0	37.4370	8	29.825	0	1138.391	0	14.2	4	4.5	4	-1E+10	1	-1E+10	1	-1E+10	1	-1E+10	1	-1E+10	1	-1E+10	1
4901784	207	C	03/05/2021	10:50	-134.973	43.264	0	1155.00	0	3.1390	0	37.4410	8	29.830	0	1142.633	0	14.3	4	4.5	4	-1E+10	1	-1E+10	1	-1E+10	1	-1E+10	1	-1E+10	1	-1E+10	1
4901784	207	C	03/05/2021	10:50	-134.973	43.264	0	1159.40	0	3.1330	0	37.4420	8	29.831	0	1146.974	0	14.4	4	4.6	4	-1E+10	1	-1E+10	1	-1E+10	1	-1E+10	1	-1E+10	1	-1E+10	1
4901784	207	C	03/05/2021	10:50	-134.973	43.264	0	1164.70	0	3.1280	0	37.4430	8	29.833	0	1152.203	0	14.6	4	4.6	4	-1E+10	1	-1E+10	1	-1E+10	1	-1E+10	1	-1E+10	1	-1E+10	1
4901784	207	C	03/05/2021	10:50	-134.973	43.264	0	1170.10	0	3.1110	0	37.4460	8	29.837	0	1157.530	0	14.7	4	4.7	4	-1E+10	1	-1E+10	1	-1E+10	1	-1E+10	1	-1E+10	1	-1E+10	1
4901784	207	C	03/05/2021	10:50	-134.973	43.264	0	1175.60	0	3.1040	0	37.4480	8	29.839	0	1162.956	0	14.9	4	4.7	4	-1E+10	1	-1E+10	1	-1E+10	1	-1E+10	1	-1E+10	1	-1E+10	1
4901784	207	C	03/05/2021	10:50	-134.973	43.264	0	1180.10	0	3.0960	0	37.4500	8	29.842	0	1167.395	0	15.0	4	4.7	4	-1E+10	1	-1E+10	1	-1E+10	1	-1E+10	1	-1E+10	1	-1E+10	1
4901784	207	C	03/05/2021	10:50	-134.973	43.264	0	1184.60	0	3.0920	0	37.4520	8	29.844	0	1171.834	0	15.1	4	4.8	4	-1E+10	1	-1E+10	1	-1E+10	1	-1E+10	1	-1E+10	1	-1E+10	1
4901784	207	C	03/05/2021	10:50	-134.973	43.264	0	1190.10	0	3.0870	0	37.4530	8	29.845	0	1177.259	0	15.2	4	4.8	4	-1E+10	1	-1E+10	1	-1E+10	1	-1E+10	1	-1E+10	1	-1E+10	1
4901784	207	C	03/05/2021	10:50	-134.973	43.264	0	1195.50	0	3.0790	0	37.4550	8	29.847	0	1182.586	0	15.2	4	4.8	4	-1E+10	1	-1E+10	1	-1E+10	1	-1E+10	1	-1E+10	1	-1E+10	1
4901784	207	C	03/05/2021	10:50	-134.973	43.264	0	1200.10	0	3.0750	0	37.4560	8	29.849	0	1187.123	0	15.3	4	4.8	4	-1E+10	1	-1E+10	1	-1E+10	1	-1E+10	1	-1E+10	1	-1E+10	1
4901784	207	C	03/05/2021	10:50	-134.973	43.264	0	1204.80	0	3.0680	0	37.4570	8	29.850	0	1191.759	0	15.4	4	4.9	4	-1E+10	1	-1E+10	1	-1E+10	1	-1E+10	1	-1E+10	1	-1E+10	1
4901784	207	C	03/05/2021	10:50	-134.973	43.264	0	1210.30	0	3.0570	0	37.4580	8	29.852	0	1197.184	0	15.5	4	4.9	4	-1E+10	1	-1E+10	1	-1E+10	1	-1E+10	1	-1E+10	1	-1E+10	1
4901784	207	C	03/05/2021	10:50	-134.973	43.264	0	1215.00	0	3.0450	0	37.4600	8	29.855	0	1201.820	0	15.6	4	4.9	4	-1E+10	1	-1E+10	1	-1E+10	1	-1E+10	1	-1E+10	1	-1E+10	1
4901784	207	C	03/05/2021	10:50	-134.973	43.264	0	1219.70	0	3.0360	0	37.4620	8	29.858	0	1206.455	0	15.8	4	5.0	4	-1E+10	1	-1E+10	1	-1E+10	1	-1E+10	1	-1E+10	1	-1E+10	1
4901784	207	C	03/05/2021	10:50	-134.973	43.264	0	1225.40	0	3.0220	0	37.4640	8	29.861	0	1212.077	0	15.9	4	5.0	4	-1E+10	1	-1E+10	1	-1E+10	1	-1E+10	1	-1E+10	1	-1E+10	1
4901784	207	C	03/05/2021	10:50	-134.973	43.264	0	1229.90	0	3.0100	0	37.4660	8	29.863	0	1216.515	0	16.0	4	5.1	4	-1E+10	1	-1E+10	1	-1E+10	1	-1E+10	1	-1E+10	1	-1E+10	1
4901784	207	C	03/05/2021	10:50	-134.973	43.264	0	1234.80	0	3.0040	0	37.4670	8	29.865	0	1221.347	0	16.1	4	5.1	4	-1E+10	1	-1E+10	1	-1E+10	1	-1E+10	1	-1E+10	1	-1E+10	1
4901784	207	C	03/05/2021	10:50	-134.973	43.264	0	1240.20	0	2.9930	0	37.4690	8	29.867	0	1226.673	0	16.3	4	5.1	4	-1E+10	1	-1E+10	1	-1E+10	1	-1E+10	1	-1E+10	1	-1E+10	1
4901784	207	C	03/05/2021	10:50	-134.973	43.264	0	1245.50	0	2.9860	0	37.4710	8	29.870	0	1231.899	0	16.4	4	5.2	4	-1E+10	1	-1E+10	1	-1E+10	1	-1E+10	1	-1E+10	1	-1E+10	1
4901784	207	C	03/05/2021	10:50	-134.973	43.264	0	1250.00	0	2.9820	0	37.4720	8	29.871	0	1236.337	0	16.5	4	5.2	4	-1E+10	1	-1E+10	1	-1E+10	1	-1E+10	1	-1E+10	1	-1E+10	1
4901784	207	C	03/05/2021	10:50	-134.973	43.264	0	1254.40	0	2.9710	0	37.4750	8	29.875	0	1240.676	0	16.6	4	5.2	4	-1E+10	1	-1E+10	1	-1E+10	1	-1E+10	1	-1E+10	1	-1E+10	1
4901784	207	C	03/05/2021	10:50	-134.973	43.264	0	1259.70	0	2.9670	0	37.4760	8	29.876	0	1245.902	0	16.7	4	5.3	4	-1E+10	1	-1E+10	1	-1E+10	1	-1E+10	1	-1E+10	1	-1E+10	1
4901784	207	C	03/05/2021	10:50	-134.973	43.264	0	1265.10	0	2.9600	0	37.4770	8	29.877	0	1251.227	0	16.8	4	5.3	4	-1E+10	1	-1E+10	1	-1E+10	1	-1E+10	1	-1E+10	1	-1E+10	1
4901784	207	C	03/05/2021	10:50	-134.973	43.264	0	1270.30	0	2.9490	0	37.4770	8	29.878	0	1256.355	0	16.9	4	5.3	4	-1E+10	1	-1E+10	1	-1E+10	1	-1E+10	1	-1E+10	1	-1E+10	1
4901784	207	C	03/05/2021	10:50	-134.973	43.264	0	1275.60	0	2.9310	0	37.4800	8	29.883	0	1261.581	0	17.1	4	5.4	4	-1E+10	1	-1E+10	1	-1E+10	1	-1E+10	1	-1E+10	1	-1E+10	1
4901784	207	C	03/05/2021	10:50	-134.973	43.264	0	1280.10	0	2.9210	0	37.4810	8	29.884	0	1266.018	0	17.2	4	5.4	4	-1E+10	1	-1E+10	1	-1E+10	1	-1E+10	1	-1E+10	1	-1E+10	1
4901784	207	C	03/05/2021	10:50	-134.973	43.264	0	1284.50	0	2.9090	0	37.4830	8	29.887	0	1270.356	0	17.4	4	5.5	4	-1E+10	1	-1E+10	1	-1E+10	1	-1E+10	1	-1E+10	1	-1E+10	1
4901784	207	C	03/05/2021	10:50	-134.973	43.264	0	1289.90	0	2.8890	0	37.4860	8	29.892	0	1275.680	0	17.6	4	5.5	4	-1E+10	1	-1E+10	1	-1E+10	1	-1E+10	1	-1E+10	1	-1E+10	1
4901784	207	C	03/05/2021	10:50	-134.973	43.264	0	1295.30	0	2.8810	0	37.4880	8	29.894	0	1281.004	0	17.7	4	5.6	4	-1E+10	1	-1E+10	1	-1E+10	1	-1E+10	1	-1E+10	1	-1E+10	1
4901784	207	C	03/05/2021	10:50	-134.973	43.264	0	1299.90	0	2.8680	0	37.4900	8	29.897	0	1285.539	0	17.9	4	5.6	4	-1E+10	1	-1E+10	1	-1E+10	1	-1E+10	1	-1E+10	1	-1E+10	1
4901784	207	C	03/05/2021	10:50	-134.973	43.264	0	1304.40	0	2.8590	0	37.4920	8	29.899	0	1289.976	0	18.0	4	5.7	4	-1E+10	1	-1E+10	1	-1E+10	1	-1E+10	1	-1E+10	1	-1E+10	1
4901784	207	C	03/05/2021	10:50	-134.973	43.264	0	1309.80	0	2.8550	0	37.4930	8	29.901	0	1295.300	0	18.0	4	5.7	4	-1E+10	1	-1E+10	1	-1E+10	1	-1E+10	1	-1E+10	1	-1E+10	1
4901784	207	C	03/05/2021	10:50	-134.973	43.264	0	1315.20	0	2.8540	0	37.4940	8	29.902	0	1300.623	0	18.1	4	5.7	4	-1E+10	1	-1E+10	1	-1E+10	1	-1E+10	1	-1E+10	1	-1E+10	1
4901784	207	C	03/05/2021	10:50	-134.973	43.264	0	1320.60	0	2.8510	0	37.4940	8	29.902	0	1305.947	0	18.2	4	5.7	4	-1E+10	1	-1E+10	1	-1E+10	1	-1E+10	1	-1E+10	1	-1E+10	1
4901784	207	C	03/05/2021	10:50	-134.973	43.264	0	1325.20	0	2.8480	0	37.4950	8	29.903	0	1310.481	0	18.3	4	5.8	4	-1E+10	1	-1E+10	1	-1E+10	1	-1E+10	1	-1E+10	1	-1E+10	1
4901784	207	C	03/05/2021	10:50	-134.973	43.264	0	1329.80	0	2.8370	0	37.4970	8	29.906	0	1315.016	0	18.5	4	5.8	4	-1E+10	1	-1E+10	1	-1E+10	1	-1E+10	1	-1E+10	1	-1E+10	1
4901784	207	C	03/05/2021	10:50	-134.973	43.264	0	1335.40	0	2.8270	0	37.4990	8	29.908	0	1320.536	0	18.7	4	5.9	4	-1E+10	1	-1E+10	1	-1E+10	1	-1E+10	1	-1E+10	1	-1E+10	1
4901784	207	C	03/05/2021	10:50	-134.973	43.264	0	1340.00	0	2.8190	0	37.5000	8	29.910	0	1325.070	0	19.0	4	6.0	4	-1E+10	1	-1E+10	1	-1E+10	1	-1E+10	1	-1E+10	1	-1E+10	1
4901784	207	C	03/05/2021	10:50	-134.973	43.264	0	1344.60	0	2.8050	0	37.5020	8	29.913	0	1329.605	0	19.3	4	6.1	4	-1E+10	1	-1E+10	1	-1E+10	1	-1E+10	1	-1E+10	1	-1E+10	1
4901784	207	C	03/05/2021	10:50	-134.973	43.264	0	1350.00	0	2.7880	0	37.5050	8	29.917	0	1334.927	0	19.6	4	6.2	4	-1E+10	1	-1E+10	1	-1E+10	1	-1E+10	1	-1E+10	1	-1E+10	1
4901784	207	C	03/05/2021	10:50	-134.973	43.264	0	1355.10	0	2.7750	0	37.5080	8	29.921	0	1339.954	0	19.8	4	6.2	4	-1E+10	1	-1E+10	1	-1E+10	1	-1E+10	1	-1E+10	1	-1E+10	1
4901784	207	C	03/05/2021	10:50	-134.973	43.264	0	1360.10	0	2.7680	0	37.5090	8	29.922	0	1344.882	0	20.0	4	6.3	4	-1E+10	1	-1E+10	1	-1E+10	1	-1E+10	1	-1E+10	1	-1E+10	1
4901784	207	C	03/05/2021	10:50	-134.973	43.264	0	1365.60	0	2.7610	0	37.5110	8	29.924	0	1350.303	0	20.3	4	6.4	4	-1E+10	1	-1E+10	1	-1E+10	1	-1E+10	1	-1E+10	1	-1E+10	1
4901784	207	C	03/05/2021	10:50	-134.973	43.264	0	1370.40	0	2.7550	0	37.5120	8	29.926	0	1355.034	0	20.5	4	6.5	4	-1E+10	1	-1E+10	1	-1E+10	1	-1E+10	1	-1E+10	1	-1E+10	1
4901784	207	C	03/05/2021	10:50	-134.973	43.264	0	1375.20	0	2.7450	0	37.5130	8	29.928	0	1359.765	0	21.0	4	6.6	4	-1E+10	1	-1E+10	1	-1E+10	1	-1E+10	1	-1E+10	1	-1E+10	1
4901784	207	C	03/05/2021	10:50	-134.973	43.264	0	1380.10	0	2.7270	0	37.5170	8	29.933	0	1364.594	0	21.5	4	6.8	4	-1E+10	1	-1E+10	1	-1E+10	1	-1E+10	1	-1E+10	1	-1E+10	1
4901784	207	C	03/05/2021	10:50	-134.973	43.264	0	1385.10	0	2.7130	0	37.5190	8	29.936	0	1369.522	0	22.0	4	6.9	4	-1E+10	1	-1E+10	1	-1E+10	1	-1E+10	1	-1E+10	1	-1E+10	1
4901784	207	C	03/05/2021	10:50	-134.973	43.264	0	1390.00	0	2.6900	0	37.5230	8	29.941	0	1374.350	0	22.4	4	7.0	4	-1E+10	1	-1E+10	1	-1E+10	1	-1E+10	1	-1E+10	1	-1E+10	1
4901784	207	C	03/05/2021	10:50	-134.973	43.264	0	1395.00	0	2.6780	0	37.5260	8	29.944	0	1379.278	0	22.6	4	7.1	4	-1E+10	1	-1E+10	1	-1E+10	1	-1E+10	1	-1E+10	1	-1E+10	1
4901784	207	C	03/05/2021	10:50	-134.973	43.264	0	1399.90	0	2.6750	0	37.5270	8	29.946	0	1384.107	0	22.8	4	7.1	4	-1E+10	1	-1E+10	1	-1E+10	1	-1E+10	1	-1E+10	1	-1E+10	1
4901784	207	C	03/05/2021	10:50	-134.973	43.264	0	1404.90	0	2.6710	0	37.5280	8	29.947	0	1389.034	0	22.9	4	7.2	4	-1E+10	1	-1E+10	1	-1E+10	1	-1E+10	1	-1E+10	1	-1E+10	1
4901784	207	C	03/05/2021	10:50	-134.973	43.264	0	1409.90	0	2.6660	0	37.5290	8	29.948	0	1393.961	0	23.2	4	7.3	4	-1E+10	1	-1E+10	1	-1E+10	1	-1E+10	1	-1E+10	1	-1E+10	1
4901784	207	C	03/05/2021	10:50	-134.973	43.264	0	1414.90	0	2.6570	0	37.5300	8	29.950	0	1398.888	0	23.6	4	7.4	4	-1E+10	1	-1E+10	1	-1E+10	1	-1E+10	1	-1E+10	1	-1E+10	1
4901784	207	C	03/05/2021	10:50	-134.973	43.264	0	1420.00	0	2.6460	0	37.5320	8	29.952	0	1403.913	0	23.9	4	7.5	4	-1E+10	1	-1E+10	1	-1E+10	1	-1E+10	1	-1E+10	1	-1E+10	1
4901784	207	C	03/05/2021	10:50	-134.973	43.264	0	1425.10	0	2.6280	0	37.5340	8	29.956	0	1408.938	0	24.5	4	7.7	4	-1E+10	1	-1E+10	1	-1E+10	1	-1E+10	1	-1E+10	1	-1E+10	1
4901784	207	C	03/05/2021	10:50	-134.973	43.264	0	1430.20	0	2.6050	0	37.5390	8	29.962	0	1413.963	0	25.0	4	7.8	4	-1E+10	1	-1E+10	1	-1E+10	1	-1E+10	1	-1E+10	1	-1E+10	1
4901784	207	C	03/05/2021	10:50	-134.973	43.264	0	1435.30	0	2.5970	0	37.5400	8	29.964	0	1418.988	0	25.3	4	7.9	4	-1E+10	1	-1E+10	1	-1E+10	1	-1E+10	1	-1E+10	1	-1E+10	1
4901784	207	C	03/05/2021	10:50	-134.973	43.264	0	1440.50	0	2.5870	0	37.5420	8	29.966	0	1424.112	0	25.6	4	8.0	4	-1E+10	1	-1E+10	1	-1E+10	1	-1E+10	1	-1E+10	1	-1E+10	1
4901784	207	C	03/05/2021	10:50	-134.973	43.264	0	1445.70	0	2.5790	0	37.5440	8	29.969	0	1429.235	0	25.7	4	8.0	4	-1E+10	1	-1E+10	1	-1E+10	1	-1E+10	1	-1E+10	1	-1E+10	1
4901784	207	C	03/05/2021	10:50	-134.973	43.264	0	1450.10	0	2.5740	0	37.5450	8	29.970	0	1433.570	0	25.8	4	8.1	4	-1E+10	1	-1E+10	1	-1E+10	1	-1E+10	1	-1E+10	1	-1E+10	1
4901784	207	C	03/05/2021	10:50	-134.973	43.264	0	1454.40	0	2.5720	0	37.5450	8	29.970	0	1437.806	0	25.9	4	8.1	4	-1E+10	1	-1E+10	1	-1E+10	1	-1E+10	1	-1E+10	1	-1E+10	1
4901784	207	C	03/05/2021	10:50	-134.973	43.264	0	1459.60	0	2.5690	0	37.5460	8	29.971	0	1442.929	0	26.2	4	8.2	4	-1E+10	1	-1E+10	1	-1E+10	1	-1E+10	1	-1E+10	1	-1E+10	1
4901784	207	C	03/05/2021	10:50	-134.973	43.264	0	1464.80	0	2.5600	0	37.5480	8	29.974	0	1448.052	0	26.5	4	8.3	4	-1E+10	1	-1E+10	1	-1E+10	1	-1E+10	1	-1E+10	1	-1E+10	1
4901784	207	C	03/05/2021	10:50	-134.973	43.264	0	1470.00	0	2.5510	0	37.5500	8	29.976	0	1453.175	0	26.7	4	8.4	4	-1E+10	1	-1E+10	1	-1E+10	1	-1E+10	1	-1E+10	1	-1E+10	1
4901784	207	C	03/05/2021	10:50	-134.973	43.264	0	1475.30	0	2.5470	0	37.5500	8	29.977	0	1458.396	0	26.9	4	8.4	4	-1E+10	1	-1E+10	1	-1E+10	1	-1E+10	1	-1E+10	1	-1E+10	1
4901784	207	C	03/05/2021	10:50	-134.973	43.264	0	1480.50	0	2.5390	0	37.5520	8	29.979	0	1463.518	0	27.2	4	8.5	4	-1E+10	1	-1E+10	1	-1E+10	1	-1E+10	1	-1E+10	1	-1E+10	1
4901784	207	C	03/05/2021	10:50	-134.973	43.264	0	1484.90	0	2.5320	0	37.5540	8	29.981	0	1467.852	0	27.5	4	8.6	4	-1E+10	1	-1E+10	1	-1E+10	1	-1E+10	1	-1E+10	1	-1E+10	1
4901784	207	C	03/05/2021	10:50	-134.973	43.264	0	1489.30	0	2.5230	0	37.5550	8	29.983	0	1472.186	0	27.7	4	8.7	4	-1E+10	1	-1E+10	1	-1E+10	1	-1E+10	1	-1E+10	1	-1E+10	1
4901784	207	C	03/05/2021	10:50	-134.973	43.264	0	1494.60	0	2.5160	0	37.5560	8	29.984	0	1477.407	0	28.0	4	8.8	4	-1E+10	1	-1E+10	1	-1E+10	1	-1E+10	1	-1E+10	1	-1E+10	1
4901784	207	C	03/05/2021	10:50	-134.973	43.264	0	1499.90	0	2.5040	0	37.5580	8	29.987	0	1482.627	0	28.4	4	8.9	4	-1E+10	1	-1E+10	1	-1E+10	1	-1E+10	1	-1E+10	1	-1E+10	1
4901784	207	C	03/05/2021	10:50	-134.973	43.264	0	1505.20	0	2.4930	0	37.5610	8	29.991	0	1487.848	0	28.7	4	9.0	4	-1E+10	1	-1E+10	1	-1E+10	1	-1E+10	1	-1E+10	1	-1E+10	1
4901784	207	C	03/05/2021	10:50	-134.973	43.264	0	1510.70	0	2.4870	0	37.5620	8	29.992	0	1493.265	0	28.9	4	9.0	4	-1E+10	1	-1E+10	1	-1E+10	1	-1E+10	1	-1E+10	1	-1E+10	1
4901784	207	C	03/05/2021	10:50	-134.973	43.264	0	1515.30	0	2.4840	0	37.5630	8	29.993	0	1497.796	0	29.1	4	9.1	4	-1E+10	1	-1E+10	1	-1E+10	1	-1E+10	1	-1E+10	1	-1E+10	1
4901784	207	C	03/05/2021	10:50	-134.973	43.264	0	1519.90	0	2.4780	0	37.5630	8	29.994	0	1502.326	0	29.4	4	9.2	4	-1E+10	1	-1E+10	1	-1E+10	1	-1E+10	1	-1E+10	1	-1E+10	1
4901784	207	C	03/05/2021	10:50	-134.973	43.264	0	1525.30	0	2.4650	0	37.5660	8	29.997	0	1507.644	0	29.7	4	9.3	4	-1E+10	1	-1E+10	1	-1E+10	1	-1E+10	1	-1E+10	1	-1E+10	1
4901784	207	C	03/05/2021	10:50	-134.973	43.264	0	1529.90	0	2.4590	0	37.5670	8	29.999	0	1512.175	0	29.9	4	9.3	4	-1E+10	1	-1E+10	1	-1E+10	1	-1E+10	1	-1E+10	1	-1E+10	1
4901784	207	C	03/05/2021	10:50	-134.973	43.264	0	1534.40	0	2.4560	0	37.5680	8	30.000	0	1516.606	0	30.2	4	9.4	4	-1E+10	1	-1E+10	1	-1E+10	1	-1E+10	1	-1E+10	1	-1E+10	1
4901784	207	C	03/05/2021	10:50	-134.973	43.264	0	1540.50	0	2.4420	0	37.5700	8	30.003	0	1522.614	0	30.6	4	9.6	4	-1E+10	1	-1E+10	1	-1E+10	1	-1E+10	1	-1E+10	1	-1E+10	1
4901784	207	C	03/05/2021	10:50	-134.973	43.264	0	1545.60	0	2.4340	0	37.5710	8	30.004	0	1527.636	0	31.0	4	9.7	4	-1E+10	1	-1E+10	1	-1E+10	1	-1E+10	1	-1E+10	1	-1E+10	1
4901784	207	C	03/05/2021	10:50	-134.973	43.264	0	1550.40	0	2.4230	0	37.5720	8	30.006	0	1532.363	0	31.5	4	9.8	4	-1E+10	1	-1E+10	1	-1E+10	1	-1E+10	1	-1E+10	1	-1E+10	1
4901784	207	C	03/05/2021	10:50	-134.973	43.264	0	1555.10	0	2.4130	0	37.5730	8	30.008	0	1536.991	0	31.9	4	9.9	4	-1E+10	1	-1E+10	1	-1E+10	1	-1E+10	1	-1E+10	1	-1E+10	1
4901784	207	C	03/05/2021	10:50	-134.973	43.264	0	1560.00	0	2.3950	0	37.5750	8	30.011	0	1541.816	0	32.3	4	10.0	4	-1E+10	1	-1E+10	1	-1E+10	1	-1E+10	1	-1E+10	1	-1E+10	1
4901784	207	C	03/05/2021	10:50	-134.973	43.264	0	1564.80	0	2.3890	0	37.5780	8	30.014	0	1546.543	0	32.6	4	10.2	4	-1E+10	1	-1E+10	1	-1E+10	1	-1E+10	1	-1E+10	1	-1E+10	1
4901784	207	C	03/05/2021	10:50	-134.973	43.264	0	1569.70	0	2.3860	0	37.5780	8	30.014	0	1551.368	0	32.9	4	10.2	4	-1E+10	1	-1E+10	1	-1E+10	1	-1E+10	1	-1E+10	1	-1E+10	1
4901784	207	C	03/05/2021	10:50	-134.973	43.264	0	1574.60	0	2.3660	0	37.5800	8	30.018	0	1556.192	0	33.4	4	10.4	4	-1E+10	1	-1E+10	1	-1E+10	1	-1E+10	1	-1E+10	1	-1E+10	1
4901784	207	C	03/05/2021	10:50	-134.973	43.264	0	1579.50	0	2.3540	0	37.5820	8	30.021	0	1561.017	0	33.6	4	10.5	4	-1E+10	1	-1E+10	1	-1E+10	1	-1E+10	1	-1E+10	1	-1E+10	1
4901784	207	C	03/05/2021	10:50	-134.973	43.264	0	1584.40	0	2.3540	0	37.5830	8	30.021	0	1565.842	0	33.8	4	10.5	4	-1E+10	1	-1E+10	1	-1E+10	1	-1E+10	1	-1E+10	1	-1E+10	1
4901784	207	C	03/05/2021	10:50	-134.973	43.264	0	1589.30	0	2.3520	0	37.5840	8	30.022	0	1570.666	0	34.1	4	10.6	4	-1E+10	1	-1E+10	1	-1E+10	1	-1E+10	1	-1E+10	1	-1E+10	1
4901784	207	C	03/05/2021	10:50	-134.973	43.264	0	1594.40	0	2.3430	0	37.5850	8	30.024	0	1575.687	0	34.4	4	10.7	4	-1E+10	1	-1E+10	1	-1E+10	1	-1E+10	1	-1E+10	1	-1E+10	1
4901784	207	C	03/05/2021	10:50	-134.973	43.264	0	1599.40	0	2.3330	0	37.5860	8	30.026	0	1580.610	0	34.8	4	10.8	4	-1E+10	1	-1E+10	1	-1E+10	1	-1E+10	1	-1E+10	1	-1E+10	1
4901784	207	C	03/05/2021	10:50	-134.973	43.264	0	1604.40	0	2.3250	0	37.5880	8	30.028	0	1585.533	0	35.4	4	11.0	4	-1E+10	1	-1E+10	1	-1E+10	1	-1E+10	1	-1E+10	1	-1E+10	1
4901784	207	C	03/05/2021	10:50	-134.973	43.264	0	1609.50	0	2.3090	0	37.5910	8	30.032	0	1590.553	0	35.7	4	11.1	4	-1E+10	1	-1E+10	1	-1E+10	1	-1E+10	1	-1E+10	1	-1E+10	1
4901784	207	C	03/05/2021	10:50	-134.973	43.264	0	1614.60	0	2.3080	0	37.5920	8	30.033	0	1595.574	0	35.9	4	11.2	4	-1E+10	1	-1E+10	1	-1E+10	1	-1E+10	1	-1E+10	1	-1E+10	1
4901784	207	C	03/05/2021	10:50	-134.973	43.264	0	1619.60	0	2.3050	0	37.5930	8	30.034	0	1600.496	0	36.2	4	11.2	4	-1E+10	1	-1E+10	1	-1E+10	1	-1E+10	1	-1E+10	1	-1E+10	1
4901784	207	C	03/05/2021	10:50	-134.973	43.264	0	1624.80	0	2.2980	0	37.5940	8	30.035	0	1605.615	0	36.6	4	11.4	4	-1E+10	1	-1E+10	1	-1E+10	1	-1E+10	1	-1E+10	1	-1E+10	1
4901784	207	C	03/05/2021	10:50	-134.973	43.264	0	1629.90	0	2.2840	0	37.5960	8	30.038	0	1610.636	0	37.1	4	11.5	4	-1E+10	1	-1E+10	1	-1E+10	1	-1E+10	1	-1E+10	1	-1E+10	1
4901784	207	C	03/05/2021	10:50	-134.973	43.264	0	1635.10	0	2.2740	0	37.5970	8	30.040	0	1615.754	0	37.5	4	11.7	4	-1E+10	1	-1E+10	1	-1E+10	1	-1E+10	1	-1E+10	1	-1E+10	1
4901784	207	C	03/05/2021	10:50	-134.973	43.264	0	1640.30	0	2.2590	0	37.5990	8	30.043	0	1620.873	0	37.8	4	11.8	4	-1E+10	1	-1E+10	1	-1E+10	1	-1E+10	1	-1E+10	1	-1E+10	1
4901784	207	C	03/05/2021	10:50	-134.973	43.264	0	1645.50	0	2.2510	0	37.6010	8	30.045	0	1625.992	0	38.1	4	11.8	4	-1E+10	1	-1E+10	1	-1E+10	1	-1E+10	1	-1E+10	1	-1E+10	1
4901784	207	C	03/05/2021	10:50	-134.973	43.264	0	1650.00	0	2.2500	0	37.6020	8	30.046	0	1630.421	0	38.2	4	11.9	4	-1E+10	1	-1E+10	1	-1E+10	1	-1E+10	1	-1E+10	1	-1E+10	1
4901784	207	C	03/05/2021	10:50	-134.973	43.264	0	1654.40	0	2.2490	0	37.6020	8	30.046	0	1634.752	0	38.4	4	11.9	4	-1E+10	1	-1E+10	1	-1E+10	1	-1E+10	1	-1E+10	1	-1E+10	1
4901784	207	C	03/05/2021	10:50	-134.973	43.264	0	1659.70	0	2.2450	0	37.6020	8	30.047	0	1639.968	0	38.8	4	12.1	4	-1E+10	1	-1E+10	1	-1E+10	1	-1E+10	1	-1E+10	1	-1E+10	1
4901784	207	C	03/05/2021	10:50	-134.973	43.264	0	1665.10	0	2.2280	0	37.6050	8	30.051	0	1645.283	0	39.5	4	12.3	4	-1E+10	1	-1E+10	1	-1E+10	1	-1E+10	1	-1E+10	1	-1E+10	1
4901784	207	C	03/05/2021	10:50	-134.973	43.264	0	1670.50	0	2.2150	0	37.6070	8	30.054	0	1650.598	0	39.9	4	12.4	4	-1E+10	1	-1E+10	1	-1E+10	1	-1E+10	1	-1E+10	1	-1E+10	1
4901784	207	C	03/05/2021	10:50	-134.973	43.264	0	1675.00	0	2.2110	0	37.6090	8	30.056	0	1655.027	0	40.1	4	12.4	4	-1E+10	1	-1E+10	1	-1E+10	1	-1E+10	1	-1E+10	1	-1E+10	1
4901784	207	C	03/05/2021	10:50	-134.973	43.264	0	1679.50	0	2.2050	0	37.6090	8	30.056	0	1659.455	0	40.4	4	12.5	4	-1E+10	1	-1E+10	1	-1E+10	1	-1E+10	1	-1E+10	1	-1E+10	1
4901784	207	C	03/05/2021	10:50	-134.973	43.264	0	1685.00	0	2.1940	0	37.6110	8	30.059	0	1664.868	0	40.7	4	12.6	4	-1E+10	1	-1E+10	1	-1E+10	1	-1E+10	1	-1E+10	1	-1E+10	1
4901784	207	C	03/05/2021	10:50	-134.973	43.264	0	1690.40	0	2.1910	0	37.6120	8	30.060	0	1670.182	0	40.9	4	12.7	4	-1E+10	1	-1E+10	1	-1E+10	1	-1E+10	1	-1E+10	1	-1E+10	1
4901784	207	C	03/05/2021	10:50	-134.973	43.264	0	1695.00	0	2.1890	0	37.6130	8	30.061	0	1674.709	0	41.0	4	12.7	4	-1E+10	1	-1E+10	1	-1E+10	1	-1E+10	1	-1E+10	1	-1E+10	1
4901784	207	C	03/05/2021	10:50	-134.973	43.264	0	1699.60	0	2.1870	0	37.6140	8	30.062	0	1679.236	0	41.2	4	12.8	4	-1E+10	1	-1E+10	1	-1E+10	1	-1E+10	1	-1E+10	1	-1E+10	1
4901784	207	C	03/05/2021	10:50	-134.973	43.264	0	1705.20	0	2.1830	0	37.6140	8	30.062	0	1684.747	0	41.6	4	12.9	4	-1E+10	1	-1E+10	1	-1E+10	1	-1E+10	1	-1E+10	1	-1E+10	1
4901784	207	C	03/05/2021	10:50	-134.973	43.264	0	1709.90	0	2.1740	0	37.6170	8	30.066	0	1689.372	0	41.9	4	13.0	4	-1E+10	1	-1E+10	1	-1E+10	1	-1E+10	1	-1E+10	1	-1E+10	1
4901784	207	C	03/05/2021	10:50	-134.973	43.264	0	1714.50	0	2.1700	0	37.6170	8	30.066	0	1693.898	0	42.0	4	13.0	4	-1E+10	1	-1E+10	1	-1E+10	1	-1E+10	1	-1E+10	1	-1E+10	1
4901784	207	C	03/05/2021	10:50	-134.973	43.264	0	1720.00	0	2.1680	0	37.6180	8	30.067	0	1699.310	0	42.2	4	13.1	4	-1E+10	1	-1E+10	1	-1E+10	1	-1E+10	1	-1E+10	1	-1E+10	1
4901784	207	C	03/05/2021	10:50	-134.973	43.264	0	1725.50	0	2.1650	0	37.6180	8	30.067	0	1704.722	0	42.4	4	13.1	4	-1E+10	1	-1E+10	1	-1E+10	1	-1E+10	1	-1E+10	1	-1E+10	1
4901784	207	C	03/05/2021	10:50	-134.973	43.264	0	1730.40	0	2.1600	0	37.6200	8	30.069	0	1709.543	0	42.7	4	13.2	4	-1E+10	1	-1E+10	1	-1E+10	1	-1E+10	1	-1E+10	1	-1E+10	1
4901784	207	C	03/05/2021	10:50	-134.973	43.264	0	1735.30	0	2.1550	0	37.6210	8	30.071	0	1714.364	0	43.0	4	13.3	4	-1E+10	1	-1E+10	1	-1E+10	1	-1E+10	1	-1E+10	1	-1E+10	1
4901784	207	C	03/05/2021	10:50	-134.973	43.264	0	1740.20	0	2.1490	0	37.6220	8	30.072	0	1719.185	0	43.3	4	13.4	4	-1E+10	1	-1E+10	1	-1E+10	1	-1E+10	1	-1E+10	1	-1E+10	1
4901784	207	C	03/05/2021	10:50	-134.973	43.264	0	1745.00	0	2.1450	0	37.6230	8	30.073	0	1723.908	0	43.5	4	13.5	4	-1E+10	1	-1E+10	1	-1E+10	1	-1E+10	1	-1E+10	1	-1E+10	1
4901784	207	C	03/05/2021	10:50	-134.973	43.264	0	1749.80	0	2.1410	0	37.6240	8	30.074	0	1728.630	0	43.8	4	13.6	4	-1E+10	1	-1E+10	1	-1E+10	1	-1E+10	1	-1E+10	1	-1E+10	1
4901784	207	C	03/05/2021	10:50	-134.973	43.264	0	1754.70	0	2.1350	0	37.6250	8	30.076	0	1733.451	0	44.1	4	13.7	4	-1E+10	1	-1E+10	1	-1E+10	1	-1E+10	1	-1E+10	1	-1E+10	1
4901784	207	C	03/05/2021	10:50	-134.973	43.264	0	1759.70	0	2.1310	0	37.6260	8	30.077	0	1738.370	0	44.5	4	13.8	4	-1E+10	1	-1E+10	1	-1E+10	1	-1E+10	1	-1E+10	1	-1E+10	1
4901784	207	C	03/05/2021	10:50	-134.973	43.264	0	1764.60	0	2.1240	0	37.6280	8	30.079	0	1743.190	0	44.8	4	13.9	4	-1E+10	1	-1E+10	1	-1E+10	1	-1E+10	1	-1E+10	1	-1E+10	1
4901784	207	C	03/05/2021	10:50	-134.973	43.264	0	1769.70	0	2.1190	0	37.6290	8	30.080	0	1748.207	0	45.2	4	14.0	4	-1E+10	1	-1E+10	1	-1E+10	1	-1E+10	1	-1E+10	1	-1E+10	1
4901784	207	C	03/05/2021	10:50	-134.973	43.264	0	1774.80	0	2.1130	0	37.6300	8	30.082	0	1753.224	0	45.5	4	14.1	4	-1E+10	1	-1E+10	1	-1E+10	1	-1E+10	1	-1E+10	1	-1E+10	1
4901784	207	C	03/05/2021	10:50	-134.973	43.264	0	1779.90	0	2.1080	0	37.6310	8	30.083	0	1758.241	0	45.8	4	14.2	4	-1E+10	1	-1E+10	1	-1E+10	1	-1E+10	1	-1E+10	1	-1E+10	1
4901784	207	C	03/05/2021	10:50	-134.973	43.264	0	1785.10	0	2.1030	0	37.6320	8	30.084	0	1763.356	0	46.0	4	14.2	4	-1E+10	1	-1E+10	1	-1E+10	1	-1E+10	1	-1E+10	1	-1E+10	1
4901784	207	C	03/05/2021	10:50	-134.973	43.264	0	1790.20	0	2.1000	0	37.6330	8	30.085	0	1768.373	0	46.2	4	14.3	4	-1E+10	1	-1E+10	1	-1E+10	1	-1E+10	1	-1E+10	1	-1E+10	1
4901784	207	C	03/05/2021	10:50	-134.973	43.264	0	1795.30	0	2.0980	0	37.6340	8	30.086	0	1773.390	0	46.4	4	14.3	4	-1E+10	1	-1E+10	1	-1E+10	1	-1E+10	1	-1E+10	1	-1E+10	1
4901784	207	C	03/05/2021	10:50	-134.973	43.264	0	1800.60	0	2.0930	0	37.6350	8	30.088	0	1778.603	0	46.7	4	14.4	4	-1E+10	1	-1E+10	1	-1E+10	1	-1E+10	1	-1E+10	1	-1E+10	1
4901784	207	C	03/05/2021	10:50	-134.973	43.264	0	1805.00	0	2.0890	0	37.6360	8	30.089	0	1782.931	0	46.9	4	14.5	4	-1E+10	1	-1E+10	1	-1E+10	1	-1E+10	1	-1E+10	1	-1E+10	1
4901784	207	C	03/05/2021	10:50	-134.973	43.264	0	1809.40	0	2.0870	0	37.6360	8	30.089	0	1787.258	0	47.0	4	14.6	4	-1E+10	1	-1E+10	1	-1E+10	1	-1E+10	1	-1E+10	1	-1E+10	1
4901784	207	C	03/05/2021	10:50	-134.973	43.264	0	1814.70	0	2.0840	0	37.6370	8	30.090	0	1792.471	0	47.3	4	14.6	4	-1E+10	1	-1E+10	1	-1E+10	1	-1E+10	1	-1E+10	1	-1E+10	1
4901784	207	C	03/05/2021	10:50	-134.973	43.264	0	1820.00	0	2.0810	0	37.6380	8	30.091	0	1797.684	0	47.5	4	14.7	4	-1E+10	1	-1E+10	1	-1E+10	1	-1E+10	1	-1E+10	1	-1E+10	1
4901784	207	C	03/05/2021	10:50	-134.973	43.264	0	1825.30	0	2.0760	0	37.6390	8	30.093	0	1802.896	0	47.8	4	14.8	4	-1E+10	1	-1E+10	1	-1E+10	1	-1E+10	1	-1E+10	1	-1E+10	1
4901784	207	C	03/05/2021	10:50	-134.973	43.264	0	1830.70	0	2.0730	0	37.6400	8	30.094	0	1808.207	0	48.1	4	14.9	4	-1E+10	1	-1E+10	1	-1E+10	1	-1E+10	1	-1E+10	1	-1E+10	1
4901784	207	C	03/05/2021	10:50	-134.973	43.264	0	1835.10	0	2.0680	0	37.6410	8	30.095	0	1812.534	0	48.4	4	15.0	4	-1E+10	1	-1E+10	1	-1E+10	1	-1E+10	1	-1E+10	1	-1E+10	1
4901784	207	C	03/05/2021	10:50	-134.973	43.264	0	1839.60	0	2.0610	0	37.6420	8	30.096	0	1816.960	0	48.7	4	15.1	4	-1E+10	1	-1E+10	1	-1E+10	1	-1E+10	1	-1E+10	1	-1E+10	1
4901784	207	C	03/05/2021	10:50	-134.973	43.264	0	1845.00	0	2.0580	0	37.6430	8	30.097	0	1822.270	0	49.0	4	15.1	4	-1E+10	1	-1E+10	1	-1E+10	1	-1E+10	1	-1E+10	1	-1E+10	1
4901784	207	C	03/05/2021	10:50	-134.973	43.264	0	1850.40	0	2.0540	0	37.6440	8	30.099	0	1827.580	0	49.2	4	15.2	4	-1E+10	1	-1E+10	1	-1E+10	1	-1E+10	1	-1E+10	1	-1E+10	1
4901784	207	C	03/05/2021	10:50	-134.973	43.264	0	1854.90	0	2.0500	0	37.6450	8	30.100	0	1832.006	0	49.5	4	15.3	4	-1E+10	1	-1E+10	1	-1E+10	1	-1E+10	1	-1E+10	1	-1E+10	1
4901784	207	C	03/05/2021	10:50	-134.973	43.264	0	1859.40	0	2.0470	0	37.6450	8	30.100	0	1836.431	0	49.8	4	15.4	4	-1E+10	1	-1E+10	1	-1E+10	1	-1E+10	1	-1E+10	1	-1E+10	1
4901784	207	C	03/05/2021	10:50	-134.973	43.264	0	1864.90	0	2.0380	0	37.6470	8	30.103	0	1841.839	0	50.3	4	15.6	4	-1E+10	1	-1E+10	1	-1E+10	1	-1E+10	1	-1E+10	1	-1E+10	1
4901784	207	C	03/05/2021	10:50	-134.973	43.264	0	1870.40	0	2.0320	0	37.6490	8	30.105	0	1847.247	0	50.6	4	15.6	4	-1E+10	1	-1E+10	1	-1E+10	1	-1E+10	1	-1E+10	1	-1E+10	1
4901784	207	C	03/05/2021	10:50	-134.973	43.264	0	1875.00	0	2.0310	0	37.6490	8	30.105	0	1851.770	0	50.7	4	15.7	4	-1E+10	1	-1E+10	1	-1E+10	1	-1E+10	1	-1E+10	1	-1E+10	1
4901784	207	C	03/05/2021	10:50	-134.973	43.264	0	1879.70	0	2.0300	0	37.6500	8	30.106	0	1856.391	0	51.0	4	15.7	4	-1E+10	1	-1E+10	1	-1E+10	1	-1E+10	1	-1E+10	1	-1E+10	1
4901784	207	C	03/05/2021	10:50	-134.973	43.264	0	1884.90	0	2.0250	0	37.6500	8	30.106	0	1861.504	0	51.4	4	15.9	4	-1E+10	1	-1E+10	1	-1E+10	1	-1E+10	1	-1E+10	1	-1E+10	1
4901784	207	C	03/05/2021	10:50	-134.973	43.264	0	1889.20	0	2.0170	0	37.6520	8	30.109	0	1865.732	0	51.7	4	16.0	4	-1E+10	1	-1E+10	1	-1E+10	1	-1E+10	1	-1E+10	1	-1E+10	1
4901784	207	C	03/05/2021	10:50	-134.973	43.264	0	1895.00	0	2.0130	0	37.6530	8	30.110	0	1871.434	0	52.1	4	16.1	4	-1E+10	1	-1E+10	1	-1E+10	1	-1E+10	1	-1E+10	1	-1E+10	1
4901784	207	C	03/05/2021	10:50	-134.973	43.264	0	1900.70	0	2.0060	0	37.6550	8	30.112	0	1877.038	0	52.5	4	16.2	4	-1E+10	1	-1E+10	1	-1E+10	1	-1E+10	1	-1E+10	1	-1E+10	1
4901784	207	C	03/05/2021	10:50	-134.973	43.264	0	1905.70	0	2.0020	0	37.6560	8	30.113	0	1881.954	0	52.7	4	16.3	4	-1E+10	1	-1E+10	1	-1E+10	1	-1E+10	1	-1E+10	1	-1E+10	1
4901784	207	C	03/05/2021	10:50	-134.973	43.264	0	1910.70	0	2.0010	0	37.6560	8	30.113	0	1886.869	0	52.9	4	16.3	4	-1E+10	1	-1E+10	1	-1E+10	1	-1E+10	1	-1E+10	1	-1E+10	1
4901784	207	C	03/05/2021	10:50	-134.973	43.264	0	1915.80	0	1.9950	0	37.6570	8	30.115	0	1891.883	0	53.2	4	16.4	4	-1E+10	1	-1E+10	1	-1E+10	1	-1E+10	1	-1E+10	1	-1E+10	1
4901784	207	C	03/05/2021	10:50	-134.973	43.264	0	1920.00	0	1.9920	0	37.6580	8	30.116	0	1896.012	0	53.4	4	16.5	4	-1E+10	1	-1E+10	1	-1E+10	1	-1E+10	1	-1E+10	1	-1E+10	1
4901784	207	C	03/05/2021	10:50	-134.973	43.264	0	1924.30	0	1.9910	0	37.6590	8	30.117	0	1900.239	0	53.5	4	16.5	4	-1E+10	1	-1E+10	1	-1E+10	1	-1E+10	1	-1E+10	1	-1E+10	1
4901784	207	C	03/05/2021	10:50	-134.973	43.264	0	1929.40	0	1.9890	0	37.6590	8	30.117	0	1905.253	0	53.8	4	16.6	4	-1E+10	1	-1E+10	1	-1E+10	1	-1E+10	1	-1E+10	1	-1E+10	1
4901784	207	C	03/05/2021	10:50	-134.973	43.264	0	1934.60	0	1.9850	0	37.6600	8	30.118	0	1910.364	0	54.1	4	16.7	4	-1E+10	1	-1E+10	1	-1E+10	1	-1E+10	1	-1E+10	1	-1E+10	1
4901784	207	C	03/05/2021	10:50	-134.973	43.264	0	1939.70	0	1.9820	0	37.6610	8	30.119	0	1915.377	0	54.5	4	16.8	4	-1E+10	1	-1E+10	1	-1E+10	1	-1E+10	1	-1E+10	1	-1E+10	1
4901784	207	C	03/05/2021	10:50	-134.973	43.264	0	1944.90	0	1.9750	0	37.6620	8	30.121	0	1920.489	0	54.8	4	16.9	4	-1E+10	1	-1E+10	1	-1E+10	1	-1E+10	1	-1E+10	1	-1E+10	1
4901784	207	C	03/05/2021	10:50	-134.973	43.264	0	1950.00	0	1.9710	0	37.6630	8	30.122	0	1925.502	0	55.1	4	17.0	4	-1E+10	1	-1E+10	1	-1E+10	1	-1E+10	1	-1E+10	1	-1E+10	1
4901784	207	C	03/05/2021	10:50	-134.973	43.264	0	1955.30	0	1.9670	0	37.6640	8	30.123	0	1930.711	0	55.4	4	17.1	4	-1E+10	1	-1E+10	1	-1E+10	1	-1E+10	1	-1E+10	1	-1E+10	1
4901784	207	C	03/05/2021	10:50	-134.973	43.264	0	1960.50	0	1.9640	0	37.6640	8	30.123	0	1935.822	0	55.7	4	17.2	4	-1E+10	1	-1E+10	1	-1E+10	1	-1E+10	1	-1E+10	1	-1E+10	1
4901784	207	C	03/05/2021	10:50	-134.973	43.264	0	1965.70	0	1.9590	0	37.6660	8	30.125	0	1940.933	0	56.1	4	17.3	4	-1E+10	1	-1E+10	1	-1E+10	1	-1E+10	1	-1E+10	1	-1E+10	1
4901784	207	C	03/05/2021	10:50	-134.973	43.264	0	1970.10	0	1.9560	0	37.6670	8	30.126	0	1945.257	0	56.3	4	17.4	4	-1E+10	1	-1E+10	1	-1E+10	1	-1E+10	1	-1E+10	1	-1E+10	1
4901784	207	C	03/05/2021	10:50	-134.973	43.264	0	1974.50	0	1.9520	0	37.6670	8	30.127	0	1949.582	0	56.5	4	17.4	4	-1E+10	1	-1E+10	1	-1E+10	1	-1E+10	1	-1E+10	1	-1E+10	1
4901784	207	C	03/05/2021	10:50	-134.973	43.264	0	1979.80	0	1.9500	0	37.6680	8	30.128	0	1954.791	0	56.7	4	17.5	4	-1E+10	1	-1E+10	1	-1E+10	1	-1E+10	1	-1E+10	1	-1E+10	1
4901784	207	C	03/05/2021	10:50	-134.973	43.264	0	1985.20	0	1.9470	0	37.6690	8	30.129	0	1960.098	0	56.9	4	17.5	4	-1E+10	1	-1E+10	1	-1E+10	1	-1E+10	1	-1E+10	1	-1E+10	1
4901784	207	C	03/05/2021	10:50	-134.973	43.264	0	1990.60	0	1.9450	0	37.6690	8	30.129	0	1965.404	0	57.0	4	17.6	4	-1E+10	1	-1E+10	1	-1E+10	1	-1E+10	1	-1E+10	1	-1E+10	1
4901784	207	C	03/05/2021	10:50	-134.973	43.264	0	1995.10	0	1.9430	0	37.6700	8	30.130	0	1969.827	0	57.1	4	17.6	4	-1E+10	1	-1E+10	1	-1E+10	1	-1E+10	1	-1E+10	1	-1E+10	1
4901784	207	C	03/05/2021	10:50	-134.973	43.264	0	1999.90	0	1.9430	0	37.6700	8	30.130	0	1974.544	0	57.2	4	17.6	4	-1E+10	1	-1E+10	1	-1E+10	1	-1E+10	1	-1E+10	1	-1E+10	1
4901784	207	C	03/05/2021	10:50	-134.973	43.264	0	2005.00	0	1.9400	0	37.6710	8	30.131	0	1979.555	0	57.4	4	17.7	4	-1E+10	1	-1E+10	1	-1E+10	1	-1E+10	1	-1E+10	1	-1E+10	1
4901784	207	C	03/05/2021	10:50	-134.973	43.264	0	2009.90	0	1.9390	0	37.6710	8	30.131	0	1984.370	0	57.5	4	17.7	4	-1E+10	1	-1E+10	1	-1E+10	1	-1E+10	1	-1E+10	1	-1E+10	1
4901784	207	C	03/05/2021	10:50	-134.973	43.264	0	2014.70	0	1.9390	0	37.6710	8	30.131	0	1989.087	0	57.5	4	17.7	4	-1E+10	1	-1E+10	1	-1E+10	1	-1E+10	1	-1E+10	1	-1E+10	1
4901784	207	C	03/05/2021	10:50	-134.973	43.264	0	2020.50	0	1.9380	0	37.6720	8	30.132	0	1994.786	0	57.5	4	17.7	4	-1E+10	1	-1E+10	1	-1E+10	1	-1E+10	1	-1E+10	1	-1E+10	1
4901784	207	C	03/05/2021	10:50	-134.973	43.264	0																										
4901784	208	C	03/15/2021	10:49	-135.132	43.128	0	2.80	0	10.7500	0	35.2280	4	26.999	0	2.778	0	259.8	4	96.3	4	-1E+10	1	-1E+10	1	-1E+10	1	-1E+10	1	-1E+10	1	-1E+10	1
4901784	208	C	03/15/2021	10:49	-135.132	43.128	0	4.30	0	10.7520	0	35.2290	4	26.999	0	4.266	0	259.9	4	96.3	4	-1E+10	1	-1E+10	1	-1E+10	1	-1E+10	1	-1E+10	1	-1E+10	1
4901784	208	C	03/15/2021	10:49	-135.132	43.128	0	5.80	0	10.7540	0	35.2290	4	26.999	0	5.754	0	259.8	4	96.3	4	-1E+10	1	-1E+10	1	-1E+10	1	-1E+10	1	-1E+10	1	-1E+10	1
4901784	208	C	03/15/2021	10:49	-135.132	43.128	0	7.20	0	10.7530	0	35.2300	4	27.000	0	7.143	0	259.8	4	96.3	4	-1E+10	1	-1E+10	1	-1E+10	1	-1E+10	1	-1E+10	1	-1E+10	1
4901784	208	C	03/15/2021	10:49	-135.132	43.128	0	8.60	0	10.7540	0	35.2300	4	27.000	0	8.531	0	259.9	4	96.3	4	-1E+10	1	-1E+10	1	-1E+10	1	-1E+10	1	-1E+10	1	-1E+10	1
4901784	208	C	03/15/2021	10:49	-135.132	43.128	0	10.00	0	10.7570	0	35.2300	4	26.999	0	9.920	0	259.9	4	96.3	4	-1E+10	1	-1E+10	1	-1E+10	1	-1E+10	1	-1E+10	1	-1E+10	1
4901784	208	C	03/15/2021	10:49	-135.132	43.128	0	11.60	0	10.7540	0	35.2320	4	27.001	0	11.508	0	259.9	4	96.3	4	-1E+10	1	-1E+10	1	-1E+10	1	-1E+10	1	-1E+10	1	-1E+10	1
4901784	208	C	03/15/2021	10:49	-135.132	43.128	0	13.20	0	10.7550	0	35.2310	4	27.001	0	13.095	0	259.7	4	96.3	4	-1E+10	1	-1E+10	1	-1E+10	1	-1E+10	1	-1E+10	1	-1E+10	1
4901784	208	C	03/15/2021	10:49	-135.132	43.128	0	14.90	0	10.7560	0	35.2320	4	27.001	0	14.781	0	259.9	4	96.3	4	-1E+10	1	-1E+10	1	-1E+10	1	-1E+10	1	-1E+10	1	-1E+10	1
4901784	208	C	03/15/2021	10:49	-135.132	43.128	0	16.80	0	10.7570	0	35.2320	4	27.001	0	16.666	0	259.7	4	96.3	4	-1E+10	1	-1E+10	1	-1E+10	1	-1E+10	1	-1E+10	1	-1E+10	1
4901784	208	C	03/15/2021	10:49	-135.132	43.128	0	18.70	0	10.7590	0	35.2320	4	27.001	0	18.551	0	259.7	4	96.3	4	-1E+10	1	-1E+10	1	-1E+10	1	-1E+10	1	-1E+10	1	-1E+10	1
4901784	208	C	03/15/2021	10:49	-135.132	43.128	0	20.50	0	10.7580	0	35.2330	4	27.002	0	20.336	0	259.8	4	96.3	4	-1E+10	1	-1E+10	1	-1E+10	1	-1E+10	1	-1E+10	1	-1E+10	1
4901784	208	C	03/15/2021	10:49	-135.132	43.128	0	22.40	0	10.7570	0	35.2340	4	27.003	0	22.221	0	259.6	4	96.3	4	-1E+10	1	-1E+10	1	-1E+10	1	-1E+10	1	-1E+10	1	-1E+10	1
4901784	208	C	03/15/2021	10:49	-135.132	43.128	0	24.30	0	10.7570	0	35.2350	4	27.004	0	24.105	0	259.7	4	96.3	4	-1E+10	1	-1E+10	1	-1E+10	1	-1E+10	1	-1E+10	1	-1E+10	1
4901784	208	C	03/15/2021	10:49	-135.132	43.128	0	26.20	0	10.7540	0	35.2350	4	27.004	0	25.990	0	259.6	4	96.2	4	-1E+10	1	-1E+10	1	-1E+10	1	-1E+10	1	-1E+10	1	-1E+10	1
4901784	208	C	03/15/2021	10:49	-135.132	43.128	0	27.90	0	10.7550	0	35.2360	4	27.005	0	27.676	0	259.6	4	96.2	4	-1E+10	1	-1E+10	1	-1E+10	1	-1E+10	1	-1E+10	1	-1E+10	1
4901784	208	C	03/15/2021	10:49	-135.132	43.128	0	29.70	0	10.7560	0	35.2360	4	27.005	0	29.462	0	259.6	4	96.2	4	-1E+10	1	-1E+10	1	-1E+10	1	-1E+10	1	-1E+10	1	-1E+10	1
4901784	208	C	03/15/2021	10:49	-135.132	43.128	0	31.60	0	10.7540	0	35.2370	4	27.006	0	31.347	0	259.6	4	96.2	4	-1E+10	1	-1E+10	1	-1E+10	1	-1E+10	1	-1E+10	1	-1E+10	1
4901784	208	C	03/15/2021	10:49	-135.132	43.128	0	33.50	0	10.7560	0	35.2370	4	27.005	0	33.231	0	259.6	4	96.2	4	-1E+10	1	-1E+10	1	-1E+10	1	-1E+10	1	-1E+10	1	-1E+10	1
4901784	208	C	03/15/2021	10:49	-135.132	43.128	0	35.50	0	10.7570	0	35.2380	4	27.006	0	35.215	0	259.5	4	96.2	4	-1E+10	1	-1E+10	1	-1E+10	1	-1E+10	1	-1E+10	1	-1E+10	1
4901784	208	C	03/15/2021	10:49	-135.132	43.128	0	37.30	0	10.7570	0	35.2390	4	27.007	0	37.000	0	259.6	4	96.2	4	-1E+10	1	-1E+10	1	-1E+10	1	-1E+10	1	-1E+10	1	-1E+10	1
4901784	208	C	03/15/2021	10:49	-135.132	43.128	0	39.10	0	10.7570	0	35.2390	4	27.007	0	38.786	0	259.6	4	96.2	4	-1E+10	1	-1E+10	1	-1E+10	1	-1E+10	1	-1E+10	1	-1E+10	1
4901784	208	C	03/15/2021	10:49	-135.132	43.128	0	41.00	0	10.7580	0	35.2400	4	27.008	0	40.670	0	259.5	4	96.2	4	-1E+10	1	-1E+10	1	-1E+10	1	-1E+10	1	-1E+10	1	-1E+10	1
4901784	208	C	03/15/2021	10:49	-135.132	43.128	0	42.80	0	10.7590	0	35.2400	4	27.007	0	42.456	0	259.5	4	96.2	4	-1E+10	1	-1E+10	1	-1E+10	1	-1E+10	1	-1E+10	1	-1E+10	1
4901784	208	C	03/15/2021	10:49	-135.132	43.128	0	44.60	0	10.7620	0	35.2410	4	27.008	0	44.241	0	259.5	4	96.2	4	-1E+10	1	-1E+10	1	-1E+10	1	-1E+10	1	-1E+10	1	-1E+10	1
4901784	208	C	03/15/2021	10:49	-135.132	43.128	0	46.40	0	10.7620	0	35.2410	4	27.008	0	46.026	0	259.7	4	96.3	4	-1E+10	1	-1E+10	1	-1E+10	1	-1E+10	1	-1E+10	1	-1E+10	1
4901784	208	C	03/15/2021	10:49	-135.132	43.128	0	48.80	0	10.7610	0	35.2420	4	27.009	0	48.407	0	259.5	4	96.2	4	-1E+10	1	-1E+10	1	-1E+10	1	-1E+10	1	-1E+10	1	-1E+10	1
4901784	208	C	03/15/2021	10:49	-135.132	43.128	0	50.70	0	10.7620	0	35.2430	4	27.009	0	50.291	0	259.3	4	96.1	4	-1E+10	1	-1E+10	1	-1E+10	1	-1E+10	1	-1E+10	1	-1E+10	1
4901784	208	C	03/15/2021	10:49	-135.132	43.128	0	52.30	0	10.7640	0	35.2430	4	27.009	0	51.878	0	259.4	4	96.2	4	-1E+10	1	-1E+10	1	-1E+10	1	-1E+10	1	-1E+10	1	-1E+10	1
4901784	208	C	03/15/2021	10:49	-135.132	43.128	0	54.00	0	10.7650	0	35.2430	4	27.009	0	53.564	0	259.3	4	96.1	4	-1E+10	1	-1E+10	1	-1E+10	1	-1E+10	1	-1E+10	1	-1E+10	1
4901784	208	C	03/15/2021	10:49	-135.132	43.128	0	55.60	0	10.7630	0	35.2450	4	27.011	0	55.151	0	259.3	4	96.1	4	-1E+10	1	-1E+10	1	-1E+10	1	-1E+10	1	-1E+10	1	-1E+10	1
4901784	208	C	03/15/2021	10:49	-135.132	43.128	0	57.20	0	10.7630	0	35.2460	4	27.012	0	56.738	0	259.3	4	96.1	4	-1E+10	1	-1E+10	1	-1E+10	1	-1E+10	1	-1E+10	1	-1E+10	1
4901784	208	C	03/15/2021	10:49	-135.132	43.128	0	58.80	0	10.7640	0	35.2460	4	27.012	0	58.324	0	259.2	4	96.1	4	-1E+10	1	-1E+10	1	-1E+10	1	-1E+10	1	-1E+10	1	-1E+10	1
4901784	208	C	03/15/2021	10:49	-135.132	43.128	0	60.40	0	10.7630	0	35.2470	4	27.013	0	59.911	0	259.2	4	96.1	4	-1E+10	1	-1E+10	1	-1E+10	1	-1E+10	1	-1E+10	1	-1E+10	1
4901784	208	C	03/15/2021	10:49	-135.132	43.128	0	61.90	0	10.7630	0	35.2470	4	27.013	0	61.399	0	259.3	4	96.1	4	-1E+10	1	-1E+10	1	-1E+10	1	-1E+10	1	-1E+10	1	-1E+10	1
4901784	208	C	03/15/2021	10:49	-135.132	43.128	0	63.40	0	10.7640	0	35.2480	4	27.013	0	62.887	0	259.3	4	96.1	4	-1E+10	1	-1E+10	1	-1E+10	1	-1E+10	1	-1E+10	1	-1E+10	1
4901784	208	C	03/15/2021	10:49	-135.132	43.128	0	65.00	0	10.7650	0	35.2480	4	27.013	0	64.473	0	259.2	4	96.1	4	-1E+10	1	-1E+10	1	-1E+10	1	-1E+10	1	-1E+10	1	-1E+10	1
4901784	208	C	03/15/2021	10:49	-135.132	43.128	0	66.50	0	10.7650	0	35.2490	4	27.014	0	65.961	0	259.3	4	96.1	4	-1E+10	1	-1E+10	1	-1E+10	1	-1E+10	1	-1E+10	1	-1E+10	1
4901784	208	C	03/15/2021	10:49	-135.132	43.128	0	68.20	0	10.7630	0	35.2500	4	27.015	0	67.647	0	259.2	4	96.1	4	-1E+10	1	-1E+10	1	-1E+10	1	-1E+10	1	-1E+10	1	-1E+10	1
4901784	208	C	03/15/2021	10:49	-135.132	43.128	0	70.00	0	10.7630	0	35.2500	4	27.015	0	69.432	0	259.0	4	96.0	4	-1E+10	1	-1E+10	1	-1E+10	1	-1E+10	1	-1E+10	1	-1E+10	1
4901784	208	C	03/15/2021	10:49	-135.132	43.128	0	71.80	0	10.7640	0	35.2510	4	27.016	0	71.217	0	259.0	4	96.0	4	-1E+10	1	-1E+10	1	-1E+10	1	-1E+10	1	-1E+10	1	-1E+10	1
4901784	208	C	03/15/2021	10:49	-135.132	43.128	0	73.60	0	10.7630	0	35.2510	4	27.016	0	73.002	0	258.8	4	96.0	4	-1E+10	1	-1E+10	1	-1E+10	1	-1E+10	1	-1E+10	1	-1E+10	1
4901784	208	C	03/15/2021	10:49	-135.132	43.128	0	75.30	0	10.7630	0	35.2510	4	27.016	0	74.688	0	258.8	4	96.0	4	-1E+10	1	-1E+10	1	-1E+10	1	-1E+10	1	-1E+10	1	-1E+10	1
4901784	208	C	03/15/2021	10:49	-135.132	43.128	0	77.00	0	10.7640	0	35.2510	4	27.016	0	76.374	0	258.9	4	96.0	4	-1E+10	1	-1E+10	1	-1E+10	1	-1E+10	1	-1E+10	1	-1E+10	1
4901784	208	C	03/15/2021	10:49	-135.132	43.128	0	78.60	0	10.7630	0	35.2500	4	27.015	0	77.961	0	258.7	4	95.9	4	-1E+10	1	-1E+10	1	-1E+10	1	-1E+10	1	-1E+10	1	-1E+10	1
4901784	208	C	03/15/2021	10:49	-135.132	43.128	0	80.20	0	10.7390	0	35.2520	4	27.021	0	79.547	0	258.7	4	95.9	4	-1E+10	1	-1E+10	1	-1E+10	1	-1E+10	1	-1E+10	1	-1E+10	1
4901784	208	C	03/15/2021	10:49	-135.132	43.128	0	81.90	0	10.7450	0	35.2530	4	27.021	0	81.233	0	258.6	4	95.9	4	-1E+10	1	-1E+10	1	-1E+10	1	-1E+10	1	-1E+10	1	-1E+10	1
4901784	208	C	03/15/2021	10:49	-135.132	43.128	0	83.50	0	10.7220	0	35.2500	4	27.023	0	82.820	0	258.4	4	95.7	4	-1E+10	1	-1E+10	1	-1E+10	1	-1E+10	1	-1E+10	1	-1E+10	1
4901784	208	C	03/15/2021	10:49	-135.132	43.128	0	85.20	0	10.7040	0	35.2480	4	27.024	0	84.506	0	258.4	4	95.7	4	-1E+10	1	-1E+10	1	-1E+10	1	-1E+10	1	-1E+10	1	-1E+10	1
4901784	208	C	03/15/2021	10:49	-135.132	43.128	0	86.90	0	10.6770	0	35.2500	4	27.031	0	86.191	0	258.1	4	95.5	4	-1E+10	1	-1E+10	1	-1E+10	1	-1E+10	1	-1E+10	1	-1E+10	1
4901784	208	C	03/15/2021	10:49	-135.132	43.128	0	88.60	0	10.6640	0	35.2500	4	27.033	0	87.877	0	258.1	4	95.5	4	-1E+10	1	-1E+10	1	-1E+10	1	-1E+10	1	-1E+10	1	-1E+10	1
4901784	208	C	03/15/2021	10:49	-135.132	43.128	0	90.40	0	10.6500	0	35.2510	4	27.037	0	89.662	0	257.9	4	95.4	4	-1E+10	1	-1E+10	1	-1E+10	1	-1E+10	1	-1E+10	1	-1E+10	1
4901784	208	C	03/15/2021	10:49	-135.132	43.128	0	92.00	0	10.6330	0	35.2520	4	27.040	0	91.249	0	257.7	4	95.3	4	-1E+10	1	-1E+10	1	-1E+10	1	-1E+10	1	-1E+10	1	-1E+10	1
4901784	208	C	03/15/2021	10:49	-135.132	43.128	0	93.80	0	10.6180	0	35.2520	4	27.043	0	93.034	0	257.5	4	95.2	4	-1E+10	1	-1E+10	1	-1E+10	1	-1E+10	1	-1E+10	1	-1E+10	1
4901784	208	C	03/15/2021	10:49	-135.132	43.128	0	95.40	0	10.6110	0	35.2520	4	27.044	0	94.620	0	257.3	4	95.1	4	-1E+10	1	-1E+10	1	-1E+10	1	-1E+10	1	-1E+10	1	-1E+10	1
4901784	208	C	03/15/2021	10:49	-135.132	43.128	0	97.20	0	10.6050	0	35.2530	4	27.046	0	96.405	0	256.8	4	94.9	4	-1E+10	1	-1E+10	1	-1E+10	1	-1E+10	1	-1E+10	1	-1E+10	1
4901784	208	C	03/15/2021	10:49	-135.132	43.128	0	98.90	0	10.6020	0	35.2520	4	27.046	0	98.091	0	256.1	4	94.6	4	-1E+10	1	-1E+10	1	-1E+10	1	-1E+10	1	-1E+10	1	-1E+10	1
4901784	208	C	03/15/2021	10:49	-135.132	43.128	0	102.30	0	10.5900	0	35.2520	4	27.048	0	101.462	0	254.3	4	94.0	4	-1E+10	1	-1E+10	1	-1E+10	1	-1E+10	1	-1E+10	1	-1E+10	1
4901784	208	C	03/15/2021	10:49	-135.132	43.128	0	104.80	0	10.5750	0	35.2520	4	27.051	0	103.941	0	252.0	4	93.1	4	-1E+10	1	-1E+10	1	-1E+10	1	-1E+10	1	-1E+10	1	-1E+10	1
4901784	208	C	03/15/2021	10:49	-135.132	43.128	0	107.20	0	10.5590	0	35.2500	4	27.052	0	106.321	0	249.0	4	91.9	4	-1E+10	1	-1E+10	1	-1E+10	1	-1E+10	1	-1E+10	1	-1E+10	1
4901784	208	C	03/15/2021	10:49	-135.132	43.128	0	109.80	0	10.5310	0	35.2470	4	27.055	0	108.899	0	243.9	4	90.0	4	-1E+10	1	-1E+10	1	-1E+10	1	-1E+10	1	-1E+10	1	-1E+10	1
4901784	208	C	03/15/2021	10:49	-135.132	43.128	0	112.40	0	10.3790	0	35.2740	4	27.103	0	111.476	0	238.0	4	87.5	4	-1E+10	1	-1E+10	1	-1E+10	1	-1E+10	1	-1E+10	1	-1E+10	1
4901784	208	C	03/15/2021	10:49	-135.132	43.128	0	114.90	0	10.1990	0	35.3400	4	27.186	0	113.955	0	234.0	4	85.8	4	-1E+10	1	-1E+10	1	-1E+10	1	-1E+10	1	-1E+10	1	-1E+10	1
4901784	208	C	03/15/2021	10:49	-135.132	43.128	0	117.50	0	10.0930	0	35.3780	4	27.234	0	116.533	0	230.5	4	84.3	4	-1E+10	1	-1E+10	1	-1E+10	1	-1E+10	1	-1E+10	1	-1E+10	1
4901784	208	C	03/15/2021	10:49	-135.132	43.128	0	119.80	0	10.0410	0	35.3920	4	27.254	0	118.814	0	227.1	4	83.0	4	-1E+10	1	-1E+10	1	-1E+10	1	-1E+10	1	-1E+10	1	-1E+10	1
4901784	208	C	03/15/2021	10:49	-135.132	43.128	0	122.30	0	9.7750	0	35.4820	4	27.370	0	121.292	0	224.9	4	81.8	4	-1E+10	1	-1E+10	1	-1E+10	1	-1E+10	1	-1E+10	1	-1E+10	1
4901784	208	C	03/15/2021	10:49	-135.132	43.128	0	125.20	0	9.6550	0	35.5270	4	27.425	0	124.167	0	222.9	4	80.9	4	-1E+10	1	-1E+10	1	-1E+10	1	-1E+10	1	-1E+10	1	-1E+10	1
4901784	208	C	03/15/2021	10:49	-135.132	43.128	0	127.30	0	9.5950	0	35.5480	4	27.452	0	126.250	0	221.3	4	80.2	4	-1E+10	1	-1E+10	1	-1E+10	1	-1E+10	1	-1E+10	1	-1E+10	1
4901784	208	C	03/15/2021	10:49	-135.132	43.128	0	129.60	0	9.5470	0	35.5640	4	27.473	0	128.530	0	219.4	4	79.4	4	-1E+10	1	-1E+10	1	-1E+10	1	-1E+10	1	-1E+10	1	-1E+10	1
4901784	208	C	03/15/2021	10:49	-135.132	43.128	0	132.70	0	9.4660	0	35.5960	4	27.511	0	131.603	0	216.4	4	78.2	4	-1E+10	1	-1E+10	1	-1E+10	1	-1E+10	1	-1E+10	1	-1E+10	1
4901784	208	C	03/15/2021	10:49	-135.132	43.128	0	135.10	0	9.3260	0	35.6710	4	27.593	0	133.983	0	213.8	4	77.1	4	-1E+10	1	-1E+10	1	-1E+10	1	-1E+10	1	-1E+10	1	-1E+10	1
4901784	208	C	03/15/2021	10:49	-135.132	43.128	0	137.60	0	9.2290	0	35.6960	4	27.629	0	136.461	0	212.0	4	76.3	4	-1E+10	1	-1E+10	1	-1E+10	1	-1E+10	1	-1E+10	1	-1E+10	1
4901784	208	C	03/15/2021	10:49	-135.132	43.128	0	140.30	0	9.1830	0	35.7610	4	27.687	0	139.138	0	210.5	4	75.7	4	-1E+10	1	-1E+10	1	-1E+10	1	-1E+10	1	-1E+10	1	-1E+10	1
4901784	208	C	03/15/2021	10:49	-135.132	43.128	0	142.20	0	9.1700	0	35.7690	4	27.696	0	141.021	0	208.5	4	75.0	4	-1E+10	1	-1E+10	1	-1E+10	1	-1E+10	1	-1E+10	1	-1E+10	1
4901784	208	C	03/15/2021	10:49	-135.132	43.128	0	145.00	0	8.9890	0	35.8780	4	27.811	0	143.797	0	205.6	4	73.7	4	-1E+10	1	-1E+10	1	-1E+10	1	-1E+10	1	-1E+10	1	-1E+10	1
4901784	208	C	03/15/2021	10:49	-135.132	43.128	0	147.60	0	8.8580	0	35.9140	4	27.860	0	146.375	0	203.5	4	72.8	4	-1E+10	1	-1E+10	1	-1E+10	1	-1E+10	1	-1E+10	1	-1E+10	1
4901784	208	C	03/15/2021	10:49	-135.132	43.128	0	149.90	0	8.8040	0	35.9170	4	27.871	0	148.655	0	201.8	4	72.1	4	-1E+10	1	-1E+10	1	-1E+10	1	-1E+10	1	-1E+10	1	-1E+10	1
4901784	208	C	03/15/2021	10:49	-135.132	43.128	0	152.60	0	8.6660	0	35.9680	4	27.933	0	151.331	0	199.9	4	71.2	4	-1E+10	1	-1E+10	1	-1E+10	1	-1E+10	1	-1E+10	1	-1E+10	1
4901784	208	C	03/15/2021	10:49	-135.132	43.128	0	155.00	0	8.5880	0	35.9850	4	27.959	0	153.711	0	199.5	4	70.9	4	-1E+10	1	-1E+10	1	-1E+10	1	-1E+10	1	-1E+10	1	-1E+10	1
4901784	208	C	03/15/2021	10:49	-135.132	43.128	0	157.30	0	8.5540	0	35.9890	4	27.968	0	155.991	0	198.8	4	70.7	4	-1E+10	1	-1E+10	1	-1E+10	1	-1E+10	1	-1E+10	1	-1E+10	1
4901784	208	C	03/15/2021	10:49	-135.132	43.128	0	159.70	0	8.5100	0	36.0410	4	28.016	0	158.370	0	198.6	4	70.6	4	-1E+10	1	-1E+10	1	-1E+10	1	-1E+10	1	-1E+10	1	-1E+10	1
4901784	208	C	03/15/2021	10:49	-135.132	43.128	0	162.10	0	8.5300	0	36.0680	4	28.034	0	160.749	0	197.5	4	70.2	4	-1E+10	1	-1E+10	1	-1E+10	1	-1E+10	1	-1E+10	1	-1E+10	1
4901784	208	C	03/15/2021	10:49	-135.132	43.128	0	165.40	0	8.4500	0	36.1180	4	28.086	0	164.020	0	194.3	4	69.0	4	-1E+10	1	-1E+10	1	-1E+10	1	-1E+10	1	-1E+10	1	-1E+10	1
4901784	208	C	03/15/2021	10:49	-135.132	43.128	0	167.80	0	8.3350	0	36.1820	4	28.154	0	166.399	0	192.2	4	68.1	4	-1E+10	1	-1E+10	1	-1E+10	1	-1E+10	1	-1E+10	1	-1E+10	1
4901784	208	C	03/15/2021	10:49	-135.132	43.128	0	170.30	0	8.2730	0	36.2130	4	28.188	0	168.877	0	190.3	4	67.3	4	-1E+10	1	-1E+10	1	-1E+10	1	-1E+10	1	-1E+10	1	-1E+10	1
4901784	208	C	03/15/2021	10:49	-135.132	43.128	0	172.80	0	8.2380	0	36.2240	4	28.202	0	171.355	0	188.7	4	66.7	4	-1E+10	1	-1E+10	1	-1E+10	1	-1E+10	1	-1E+10	1	-1E+10	1
4901784	208	C	03/15/2021	10:49	-135.132	43.128	0	174.50	0	8.2240	0	36.2300	4	28.209	0	173.040	0	187.3	4	66.2	4	-1E+10	1	-1E+10	1	-1E+10	1	-1E+10	1	-1E+10	1	-1E+10	1
4901784	208	C	03/15/2021	10:49	-135.132	43.128	0	177.20	0	8.1690	0	36.2580	4	28.240	0	175.717	0	184.7	4	65.2	4	-1E+10	1	-1E+10	1	-1E+10	1	-1E+10	1	-1E+10	1	-1E+10	1
4901784	208	C	03/15/2021	10:49	-135.132	43.128	0	179.90	0	8.1360	0	36.2860	4	28.267	0	178.393	0	182.3	4	64.3	4	-1E+10	1	-1E+10	1	-1E+10	1	-1E+10	1	-1E+10	1	-1E+10	1
4901784	208	C	03/15/2021	10:49	-135.132	43.128	0	182.60	0	8.0280	0	36.3580	4	28.340	0	181.069	0	178.9	4	63.0	4	-1E+10	1	-1E+10	1	-1E+10	1	-1E+10	1	-1E+10	1	-1E+10	1
4901784	208	C	03/15/2021	10:49	-135.132	43.128	0	185.20	0	7.9840	0	36.3970	4	28.377	0	183.646	0	176.9	4	62.3	4	-1E+10	1	-1E+10	1	-1E+10	1	-1E+10	1	-1E+10	1	-1E+10	1
4901784	208	C	03/15/2021	10:49	-135.132	43.128	0	187.80	0	7.9700	0	36.4130	4	28.392	0	186.223	0	174.8	4	61.5	4	-1E+10	1	-1E+10	1	-1E+10	1	-1E+10	1	-1E+10	1	-1E+10	1
4901784	208	C	03/15/2021	10:49	-135.132	43.128	0	190.50	0	7.9490	0	36.4470	4	28.422	0	188.899	0	172.6	4	60.7	4	-1E+10	1	-1E+10	1	-1E+10	1	-1E+10	1	-1E+10	1	-1E+10	1
4901784	208	C	03/15/2021	10:49	-135.132	43.128	0	192.30	0	7.9500	0	36.4760	4	28.445	0	190.683	0	171.3	4	60.3	4	-1E+10	1	-1E+10	1	-1E+10	1	-1E+10	1	-1E+10	1	-1E+10	1
4901784	208	C	03/15/2021	10:49	-135.132	43.128	0	195.00	0	7.9420	0	36.5180	4	28.479	0	193.359	0	169.7	4	59.7	4	-1E+10	1	-1E+10	1	-1E+10	1	-1E+10	1	-1E+10	1	-1E+10	1
4901784	208	C	03/15/2021	10:49	-135.132	43.128	0	197.70	0	7.9050	0	36.5350	4	28.498	0	196.035	0	168.7	4	59.4	4	-1E+10	1	-1E+10	1	-1E+10	1	-1E+10	1	-1E+10	1	-1E+10	1
4901784	208	C	03/15/2021	10:49	-135.132	43.128	0	199.50	0	7.8820	0	36.5520	4	28.515	0	197.819	0	168.2	4	59.1	4	-1E+10	1	-1E+10	1	-1E+10	1	-1E+10	1	-1E+10	1	-1E+10	1
4901784	208	C	03/15/2021	10:49	-135.132	43.128	0	201.90	0	7.8730	0	36.5640	4	28.526	0	200.198	0	167.4	4	58.9	4	-1E+10	1	-1E+10	1	-1E+10	1	-1E+10	1	-1E+10	1	-1E+10	1
4901784	208	C	03/15/2021	10:49	-135.132	43.128	0	204.60	0	7.8460	0	36.5880	4	28.549	0	202.874	0	166.6	4	58.5	4	-1E+10	1	-1E+10	1	-1E+10	1	-1E+10	1	-1E+10	1	-1E+10	1
4901784	208	C	03/15/2021	10:49	-135.132	43.128	0	207.70	0	7.8250	0	36.6130	4	28.572	0	205.946	0	164.7	4	57.8	4	-1E+10	1	-1E+10	1	-1E+10	1	-1E+10	1	-1E+10	1	-1E+10	1
4901784	208	C	03/15/2021	10:49	-135.132	43.128	0	210.10	0	7.8170	0	36.6270	4	28.584	0	208.325	0	163.4	4	57.4	4	-1E+10	1	-1E+10	1	-1E+10	1	-1E+10	1	-1E+10	1	-1E+10	1
4901784	208	C	03/15/2021	10:49	-135.132	43.128	0	212.50	0	7.8090	0	36.6460	4	28.600	0	210.703	0	161.8	4	56.8	4	-1E+10	1	-1E+10	1	-1E+10	1	-1E+10	1	-1E+10	1	-1E+10	1
4901784	208	C	03/15/2021	10:49	-135.132	43.128	0	215.00	0	7.8020	0	36.6620	4	28.614	0	213.181	0	160.9	4	56.5	4	-1E+10	1	-1E+10	1	-1E+10	1	-1E+10	1	-1E+10	1	-1E+10	1
4901784	208	C	03/15/2021	10:49	-135.132	43.128	0	217.40	0	7.7920	0	36.6750	4	28.626	0	215.559	0	160.1	4	56.2	4	-1E+10	1	-1E+10	1	-1E+10	1	-1E+10	1	-1E+10	1	-1E+10	1
4901784	208	C	03/15/2021	10:49	-135.132	43.128	0	219.90	0	7.7550	0	36.6950	4	28.647	0	218.037	0	159.7	4	56.0	4	-1E+10	1	-1E+10	1	-1E+10	1	-1E+10	1	-1E+10	1	-1E+10	1
4901784	208	C	03/15/2021	10:49	-135.132	43.128	0	222.50	0	7.7400	0	36.6990	4	28.653	0	220.613	0	158.1	4	55.5	4	-1E+10	1	-1E+10	1	-1E+10	1	-1E+10	1	-1E+10	1	-1E+10	1
4901784	208	C	03/15/2021	10:49	-135.132	43.128	0	225.00	0	7.7490	0	36.7150	4	28.664	0	223.091	0	156.0	4	54.8	4	-1E+10	1	-1E+10	1	-1E+10	1	-1E+10	1	-1E+10	1	-1E+10	1
4901784	208	C	03/15/2021	10:49	-135.132	43.128	0	227.60	0	7.7360	0	36.7250	4	28.674	0	225.667	0	155.9	4	54.7	4	-1E+10	1	-1E+10	1	-1E+10	1	-1E+10	1	-1E+10	1	-1E+10	1
4901784	208	C	03/15/2021	10:49	-135.132	43.128	0	230.00	0	7.7190	0	36.7300	4	28.680	0	228.045	0	156.8	4	55.0	4	-1E+10	1	-1E+10	1	-1E+10	1	-1E+10	1	-1E+10	1	-1E+10	1
4901784	208	C	03/15/2021	10:49	-135.132	43.128	0	232.60	0	7.6930	0	36.7360	4	28.689	0	230.622	0	158.5	4	55.6	4	-1E+10	1	-1E+10	1	-1E+10	1	-1E+10	1	-1E+10	1	-1E+10	1
4901784	208	C	03/15/2021	10:49	-135.132	43.128	0	235.10	0	7.6570	0	36.7340	4	28.693	0	233.099	0	160.8	4	56.3	4	-1E+10	1	-1E+10	1	-1E+10	1	-1E+10	1	-1E+10	1	-1E+10	1
4901784	208	C	03/15/2021	10:49	-135.132	43.128	0	237.50	0	7.5600	0	36.7380	4	28.711	0	235.477	0	162.5	4	56.8	4	-1E+10	1	-1E+10	1	-1E+10	1	-1E+10	1	-1E+10	1	-1E+10	1
4901784	208	C	03/15/2021	10:49	-135.132	43.128	0	240.10	0	7.5340	0	36.7380	4	28.714	0	238.054	0	161.8	4	56.5	4	-1E+10	1	-1E+10	1	-1E+10	1	-1E+10	1	-1E+10	1	-1E+10	1
4901784	208	C	03/15/2021	10:49	-135.132	43.128	0	242.60	0	7.4780	0	36.7460	4	28.729	0	240.531	0	160.5	4	56.0	4	-1E+10	1	-1E+10	1	-1E+10	1	-1E+10	1	-1E+10	1	-1E+10	1
4901784	208	C	03/15/2021	10:49	-135.132	43.128	0	245.20	0	7.4690	0	36.7550	4	28.738	0	243.107	0	158.7	4	55.4	4	-1E+10	1	-1E+10	1	-1E+10	1	-1E+10	1	-1E+10	1	-1E+10	1
4901784	208	C	03/15/2021	10:49	-135.132	43.128	0	247.90	0	7.4360	0	36.7620	4	28.748	0	245.783	0	157.5	4	54.9	4	-1E+10	1	-1E+10	1	-1E+10	1	-1E+10	1	-1E+10	1	-1E+10	1
4901784	208	C	03/15/2021	10:49	-135.132	43.128	0	250.50	0	7.4030	0	36.7690	4	28.758	0	248.359	0	156.1	4	54.4	4	-1E+10	1	-1E+10	1	-1E+10	1	-1E+10	1	-1E+10	1	-1E+10	1
4901784	208	C	03/15/2021	10:49	-135.132	43.128	0	252.30	0	7.4000	0	36.7690	4	28.759	0	250.142	0	155.1	4	54.0	4	-1E+10	1	-1E+10	1	-1E+10	1	-1E+10	1	-1E+10	1	-1E+10	1
4901784	208	C	03/15/2021	10:49	-135.132	43.128	0	255.00	0	7.3880	0	36.7720	4	28.763	0	252.818	0	153.9	4	53.6	4	-1E+10	1	-1E+10	1	-1E+10	1	-1E+10	1	-1E+10	1	-1E+10	1
4901784	208	C	03/15/2021	10:49	-135.132	43.128	0	257.50	0	7.3620	0	36.7720	4	28.767	0	255.295	0	153.0	4	53.3	4	-1E+10	1	-1E+10	1	-1E+10	1	-1E+10	1	-1E+10	1	-1E+10	1
4901784	208	C	03/15/2021	10:49	-135.132	43.128	0	260.10	0	7.3150	0	36.7710	4	28.773	0	257.871	0	151.9	4	52.8	4	-1E+10	1	-1E+10	1	-1E+10	1	-1E+10	1	-1E+10	1	-1E+10	1
4901784	208	C	03/15/2021	10:49	-135.132	43.128	0	262.80	0	7.2140	0	36.7720	4	28.789	0	260.546	0	150.3	4	52.2	4	-1E+10	1	-1E+10	1	-1E+10	1	-1E+10	1	-1E+10	1	-1E+10	1
4901784	208	C	03/15/2021	10:49	-135.132	43.128	0	264.60	0	7.1820	0	36.7790	4	28.799	0	262.329	0	149.1	4	51.7	4	-1E+10	1	-1E+10	1	-1E+10	1	-1E+10	1	-1E+10	1	-1E+10	1
4901784	208	C	03/15/2021	10:49	-135.132	43.128	0	267.10	0	7.1430	0	36.7820	4	28.807	0	264.806	0	146.9	4	50.9	4	-1E+10	1	-1E+10	1	-1E+10	1	-1E+10	1	-1E+10	1	-1E+10	1
4901784	208	C	03/15/2021	10:49	-135.132	43.128	0	269.70	0	7.1270	0	36.7870	4	28.813	0	267.382	0	145.4	4	50.3	4	-1E+10	1	-1E+10	1	-1E+10	1	-1E+10	1	-1E+10	1	-1E+10	1
4901784	208	C	03/15/2021	10:49	-135.132	43.128	0	272.30	0	7.1210	0	36.7870	4	28.814	0	269.958	0	144.0	4	49.9	4	-1E+10	1	-1E+10	1	-1E+10	1	-1E+10	1	-1E+10	1	-1E+10	1
4901784	208	C	03/15/2021	10:49	-135.132	43.128	0	275.00	0	7.0970	0	36.7870	4	28.818	0	272.633	0	142.8	4	49.4	4	-1E+10	1	-1E+10	1	-1E+10	1	-1E+10	1	-1E+10	1	-1E+10	1
4901784	208	C	03/15/2021	10:49	-135.132	43.128	0	277.70	0	7.0040	0	36.7910	4	28.834	0	275.308	0	142.3	4	49.1	4	-1E+10	1	-1E+10	1	-1E+10	1	-1E+10	1	-1E+10	1	-1E+10	1
4901784	208	C	03/15/2021	10:49	-135.132	43.128	0	280.30	0	6.9740	0	36.7900	4	28.838	0	277.884	0	142.0	4	49.0	4	-1E+10	1	-1E+10	1	-1E+10	1	-1E+10	1	-1E+10	1	-1E+10	1
4901784	208	C	03/15/2021	10:49	-135.132	43.128	0	282.00	0	6.9350	0	36.7900	4	28.843	0	279.568	0	142.1	4	49.0	4	-1E+10	1	-1E+10	1	-1E+10	1	-1E+10	1	-1E+10	1	-1E+10	1
4901784	208	C	03/15/2021	10:49	-135.132	43.128	0	284.70	0	6.8810	0	36.7920	4	28.853	0	282.243	0	142.0	4	48.9	4	-1E+10	1	-1E+10	1	-1E+10	1	-1E+10	1	-1E+10	1	-1E+10	1
4901784	208	C	03/15/2021	10:49	-135.132	43.128	0	287.40	0	6.8570	0	36.7910	4	28.855	0	284.918	0	141.5	4	48.7	4	-1E+10	1	-1E+10	1	-1E+10	1	-1E+10	1	-1E+10	1	-1E+10	1
4901784	208	C	03/15/2021	10:49	-135.132	43.128	0	290.00	0	6.8240	0	36.7920	4	28.861	0	287.494	0	140.9	4	48.5	4	-1E+10	1	-1E+10	1	-1E+10	1	-1E+10	1	-1E+10	1	-1E+10	1
4901784	208	C	03/15/2021	10:49	-135.132	43.128	0	292.70	0	6.8020	0	36.7910	4	28.863	0	290.169	0	140.3	4	48.2	4	-1E+10	1	-1E+10	1	-1E+10	1	-1E+10	1	-1E+10	1	-1E+10	1
4901784	208	C	03/15/2021	10:49	-135.132	43.128	0	294.50	0	6.7850	0	36.7870	4	28.862	0	291.952	0	139.8	4	48.0	4	-1E+10	1	-1E+10	1	-1E+10	1	-1E+10	1	-1E+10	1	-1E+10	1
4901784	208	C	03/15/2021	10:49	-135.132	43.128	0	297.20	0	6.6900	0	36.7930	4	28.880	0	294.626	0	139.0	4	47.7	4	-1E+10	1	-1E+10	1	-1E+10	1	-1E+10	1	-1E+10	1	-1E+10	1
4901784	208	C	03/15/2021	10:49	-135.132	43.128	0	299.90	0	6.6890	0	36.7930	4	28.881	0	297.301	0	137.9	4	47.3	4	-1E+10	1	-1E+10	1	-1E+10	1	-1E+10	1	-1E+10	1	-1E+10	1
4901784	208	C	03/15/2021	10:49	-135.132	43.128	0	302.60	0	6.6770	0	36.7920	4	28.882	0	299.976	0	136.6	4	46.8	4	-1E+10	1	-1E+10	1	-1E+10	1	-1E+10	1	-1E+10	1	-1E+10	1
4901784	208	C	03/15/2021	10:49	-135.132	43.128	0	305.40	0	6.6270	0	36.7940	4	28.890	0	302.749	0	135.5	4	46.4	4	-1E+10	1	-1E+10	1	-1E+10	1	-1E+10	1	-1E+10	1	-1E+10	1
4901784	208	C	03/15/2021	10:49	-135.132	43.128	0	307.20	0	6.6150	0	36.7940	4	28.892	0	304.533	0	134.8	4	46.1	4	-1E+10	1	-1E+10	1	-1E+10	1	-1E+10	1	-1E+10	1	-1E+10	1
4901784	208	C	03/15/2021	10:49	-135.132	43.128	0	310.00	0	6.5830	0	36.7930	4	28.896	0	307.306	0	134.0	4	45.8	4	-1E+10	1	-1E+10	1	-1E+10	1	-1E+10	1	-1E+10	1	-1E+10	1
4901784	208	C	03/15/2021	10:49	-135.132	43.128	0	312.70	0	6.5290	0	36.7950	4	28.905	0	309.981	0	133.6	4	45.6	4	-1E+10	1	-1E+10	1	-1E+10	1	-1E+10	1	-1E+10	1	-1E+10	1
4901784	208	C	03/15/2021	10:49	-135.132	43.128	0	314.50	0	6.4910	0	36.7930	4	28.908	0	311.764	0	133.3	4	45.5	4	-1E+10	1	-1E+10	1	-1E+10	1	-1E+10	1	-1E+10	1	-1E+10	1
4901784	208	C	03/15/2021	10:49	-135.132	43.128	0	317.20	0	6.4530	0	36.7930	4	28.914	0	314.438	0	132.2	4	45.1	4	-1E+10	1	-1E+10	1	-1E+10	1	-1E+10	1	-1E+10	1	-1E+10	1
4901784	208	C	03/15/2021	10:49	-135.132	43.128	0	319.90	0	6.4120	0	36.7930	4	28.919	0	317.113	0	130.7	4	44.5	4	-1E+10	1	-1E+10	1	-1E+10	1	-1E+10	1	-1E+10	1	-1E+10	1
4901784	208	C	03/15/2021	10:49	-135.132	43.128	0	322.70	0	6.3770	0	36.7930	4	28.924	0	319.886	0	129.0	4	43.9	4	-1E+10	1	-1E+10	1	-1E+10	1	-1E+10	1	-1E+10	1	-1E+10	1
4901784	208	C	03/15/2021	10:49	-135.132	43.128	0	325.40	0	6.3270	0	36.7960	4	28.933	0	322.560	0	127.4	4	43.3	4	-1E+10	1	-1E+10	1	-1E+10	1	-1E+10	1	-1E+10	1	-1E+10	1
4901784	208	C	03/15/2021	10:49	-135.132	43.128	0	327.20	0	6.3180	0	36.7950	4	28.934	0	324.343	0	126.2	4	42.9	4	-1E+10	1	-1E+10	1	-1E+10	1	-1E+10	1	-1E+10	1	-1E+10	1
4901784	208	C	03/15/2021	10:49	-135.132	43.128	0	329.80	0	6.2730	0	36.7960	4	28.941	0	326.918	0	124.3	4	42.2	4	-1E+10	1	-1E+10	1	-1E+10	1	-1E+10	1	-1E+10	1	-1E+10	1
4901784	208	C	03/15/2021	10:49	-135.132	43.128	0	332.50	0	6.2120	0	36.8000	4	28.952	0	329.593	0	122.5	4	41.6	4	-1E+10	1	-1E+10	1	-1E+10	1	-1E+10	1	-1E+10	1	-1E+10	1
4901784	208	C	03/15/2021	10:49	-135.132	43.128	0	335.20	0	6.1810	0	36.8010	4	28.957	0	332.267	0	121.2	4	41.1	4	-1E+10	1	-1E+10	1	-1E+10	1	-1E+10	1	-1E+10	1	-1E+10	1
4901784	208	C	03/15/2021	10:49	-135.132	43.128	0	337.90	0	6.1540	0	36.8030	4	28.962	0	334.941	0	120.0	4	40.6	4	-1E+10	1	-1E+10	1	-1E+10	1	-1E+10	1	-1E+10	1	-1E+10	1
4901784	208	C	03/15/2021	10:49	-135.132	43.128	0	339.70	0	6.1450	0	36.8030	4	28.963	0	336.724	0	119.1	4	40.3	4	-1E+10	1	-1E+10	1	-1E+10	1	-1E+10	1	-1E+10	1	-1E+10	1
4901784	208	C	03/15/2021	10:49	-135.132	43.128	0	342.50	0	6.1280	0	36.8030	4	28.966	0	339.497	0	117.5	4	39.8	4	-1E+10	1	-1E+10	1	-1E+10	1	-1E+10	1	-1E+10	1	-1E+10	1
4901784	208	C	03/15/2021	10:49	-135.132	43.128	0	345.20	0	6.1080	0	36.8030	4	28.968	0	342.171	0	115.5	4	39.1	4	-1E+10	1	-1E+10	1	-1E+10	1	-1E+10	1	-1E+10	1	-1E+10	1
4901784	208	C	03/15/2021	10:49	-135.132	43.128	0	347.10	0	6.0750	0	36.8050	4	28.974	0	344.053	0	114.1	4	38.6	4	-1E+10	1	-1E+10	1	-1E+10	1	-1E+10	1	-1E+10	1	-1E+10	1
4901784	208	C	03/15/2021	10:49	-135.132	43.128	0	349.80	0	6.0240	0	36.8080	4	28.984	0	346.727	0	112.5	4	38.0	4	-1E+10	1	-1E+10	1	-1E+10	1	-1E+10	1	-1E+10	1	-1E+10	1
4901784	208	C	03/15/2021	10:49	-135.132	43.128	0	352.60	0	5.9840	0	36.8100	4	28.991	0	349.500	0	111.1	4	37.5	4	-1E+10	1	-1E+10	1	-1E+10	1	-1E+10	1	-1E+10	1	-1E+10	1
4901784	208	C	03/15/2021	10:49	-135.132	43.128	0	354.40	0	5.9540	0	36.8130	4	28.997	0	351.283	0	110.4	4	37.2	4	-1E+10	1	-1E+10	1	-1E+10	1	-1E+10	1	-1E+10	1	-1E+10	1
4901784	208	C	03/15/2021	10:49	-135.132	43.128	0	357.20	0	5.9460	0	36.8150	4	29.000	0	354.056	0	109.5	4	36.9	4	-1E+10	1	-1E+10	1	-1E+10	1	-1E+10	1	-1E+10	1	-1E+10	1
4901784	208	C	03/15/2021	10:49	-135.132	43.128	0	360.00	0	5.9360	0	36.8150	4	29.001	0	356.829	0	108.4	4	36.5	4	-1E+10	1	-1E+10	1	-1E+10	1	-1E+10	1	-1E+10	1	-1E+10	1
4901784	208	C	03/15/2021	10:49	-135.132	43.128	0	361.90	0	5.9310	0	36.8150	4	29.002	0	358.710	0	107.5	4	36.2	4	-1E+10	1	-1E+10	1	-1E+10	1	-1E+10	1	-1E+10	1	-1E+10	1
4901784	208	C	03/15/2021	10:49	-135.132	43.128	0	364.70	0	5.8850	0	36.8160	4	29.008	0	361.483	0	105.9	4	35.7	4	-1E+10	1	-1E+10	1	-1E+10	1	-1E+10	1	-1E+10	1	-1E+10	1
4901784	208	C	03/15/2021	10:49	-135.132	43.128	0	367.50	0	5.8240	0	36.8200	4	29.020	0	364.256	0	104.6	4	35.2	4	-1E+10	1	-1E+10	1	-1E+10	1	-1E+10	1	-1E+10	1	-1E+10	1
4901784	208	C	03/15/2021	10:49	-135.132	43.128	0	370.20	0	5.7980	0	36.8220	4	29.025	0	366.930	0	103.4	4	34.7	4	-1E+10	1	-1E+10	1	-1E+10	1	-1E+10	1	-1E+10	1	-1E+10	1
4901784	208	C	03/15/2021	10:49	-135.132	43.128	0	373.00	0	5.7640	0	36.8240	4	29.031	0	369.703	0	102.2	4	34.3	4	-1E+10	1	-1E+10	1	-1E+10	1	-1E+10	1	-1E+10	1	-1E+10	1
4901784	208	C	03/15/2021	10:49	-135.132	43.128	0	374.80	0	5.7570	0	36.8230	4	29.031	0	371.485	0	101.5	4	34.1	4	-1E+10	1	-1E+10	1	-1E+10	1	-1E+10	1	-1E+10	1	-1E+10	1
4901784	208	C	03/15/2021	10:49	-135.132	43.128	0	377.60	0	5.7420	0	36.8230	4	29.033	0	374.258	0	100.1	4	33.6	4	-1E+10	1	-1E+10	1	-1E+10	1	-1E+10	1	-1E+10	1	-1E+10	1
4901784	208	C	03/15/2021	10:49	-135.132	43.128	0	380.40	0	5.7270	0	36.8180	4	29.031	0	377.030	0	98.4	4	33.0	4	-1E+10	1	-1E+10	1	-1E+10	1	-1E+10	1	-1E+10	1	-1E+10	1
4901784	208	C	03/15/2021	10:49	-135.132	43.128	0	382.80	0	5.6350	0	36.8280	4	29.050	0	379.407	0	97.1	4	32.5	4	-1E+10	1	-1E+10	1	-1E+10	1	-1E+10	1	-1E+10	1	-1E+10	1
4901784	208	C	03/15/2021	10:49	-135.132	43.128	0	385.40	0	5.6210	0	36.8270	4	29.052	0	381.981	0	96.1	4	32.2	4	-1E+10	1	-1E+10	1	-1E+10	1	-1E+10	1	-1E+10	1	-1E+10	1
4901784	208	C	03/15/2021	10:49	-135.132	43.128	0	387.80	0	5.6010	0	36.8270	4	29.054	0	384.358	0	95.1	4	31.8	4	-1E+10	1	-1E+10	1	-1E+10	1	-1E+10	1	-1E+10	1	-1E+10	1
4901784	208	C	03/15/2021	10:49	-135.132	43.128	0	390.20	0	5.5750	0	36.8270	4	29.057	0	386.734	0	94.1	4	31.5	4	-1E+10	1	-1E+10	1	-1E+10	1	-1E+10	1	-1E+10	1	-1E+10	1
4901784	208	C	03/15/2021	10:49	-135.132	43.128	0	392.70	0	5.5100	0	36.8310	4	29.069	0	389.210	0	92.9	4	31.0	4	-1E+10	1	-1E+10	1	-1E+10	1	-1E+10	1	-1E+10	1	-1E+10	1
4901784	208	C	03/15/2021	10:49	-135.132	43.128	0	395.10	0	5.4840	0	36.8290	4	29.071	0	391.586	0	91.8	4	30.6	4	-1E+10	1	-1E+10	1	-1E+10	1	-1E+10	1	-1E+10	1	-1E+10	1
4901784	208	C	03/15/2021	10:49	-135.132	43.128	0	397.50	0	5.4340	0	36.8330	4	29.080	0	393.963	0	90.4	4	30.1	4	-1E+10	1	-1E+10	1	-1E+10	1	-1E+10	1	-1E+10	1	-1E+10	1
4901784	208	C	03/15/2021	10:49	-135.132	43.128	0	399.90	0	5.3640	0	36.8390	4	29.094	0	396.339	0	89.3	4	29.7	4	-1E+10	1	-1E+10	1	-1E+10	1	-1E+10	1	-1E+10	1	-1E+10	1
4901784	208	C	03/15/2021	10:49	-135.132	43.128	0	402.30	0	5.3330	0	36.8410	4	29.099	0	398.715	0	88.5	4	29.4	4	-1E+10	1	-1E+10	1	-1E+10	1	-1E+10	1	-1E+10	1	-1E+10	1
4901784	208	C	03/15/2021	10:49	-135.132	43.128	0	404.80	0	5.3130	0	36.8420	4	29.102	0	401.191	0	87.8	4	29.2	4	-1E+10	1	-1E+10	1	-1E+10	1	-1E+10	1	-1E+10	1	-1E+10	1
4901784	208	C	03/15/2021	10:49	-135.132	43.128	0	407.30	0	5.2880	0	36.8450	4	29.108	0	403.666	0	87.1	4	28.9	4	-1E+10	1	-1E+10	1	-1E+10	1	-1E+10	1	-1E+10	1	-1E+10	1
4901784	208	C	03/15/2021	10:49	-135.132	43.128	0	409.80	0	5.2750	0	36.8460	4	29.110	0	406.141	0	86.2	4	28.6	4	-1E+10	1	-1E+10	1	-1E+10	1	-1E+10	1	-1E+10	1	-1E+10	1
4901784	208	C	03/15/2021	10:49	-135.132	43.128	0	412.30	0	5.2680	0	36.8450	4	29.111	0	408.616	0	85.0	4	28.2	4	-1E+10	1	-1E+10	1	-1E+10	1	-1E+10	1	-1E+10	1	-1E+10	1
4901784	208	C	03/15/2021	10:49	-135.132	43.128	0	414.80	0	5.2460	0	36.8490	4	29.116	0	411.092	0	83.2	4	27.6	4	-1E+10	1	-1E+10	1	-1E+10	1	-1E+10	1	-1E+10	1	-1E+10	1
4901784	208	C	03/15/2021	10:49	-135.132	43.128	0	417.40	0	5.2260	0	36.8530	4	29.122	0	413.666	0	81.3	4	27.0	4	-1E+10	1	-1E+10	1	-1E+10	1	-1E+10	1	-1E+10	1	-1E+10	1
4901784	208	C	03/15/2021	10:49	-135.132	43.128	0	420.00	0	5.2150	0	36.8540	4	29.124	0	416.240	0	78.7	4	26.1	4	-1E+10	1	-1E+10	1	-1E+10	1	-1E+10	1	-1E+10	1	-1E+10	1
4901784	208	C	03/15/2021	10:49	-135.132	43.128	0	422.50	0	5.2200	0	36.8620	4	29.130	0	418.715	0	75.9	4	25.2	4	-1E+10	1	-1E+10	1	-1E+10	1	-1E+10	1	-1E+10	1	-1E+10	1
4901784	208	C	03/15/2021	10:49	-135.132	43.128	0	425.10	0	5.2170	0	36.8630	4	29.131	0	421.289	0	75.0	4	24.9	4	-1E+10	1	-1E+10	1	-1E+10	1	-1E+10	1	-1E+10	1	-1E+10	1
4901784	208	C	03/15/2021	10:49	-135.132	43.128	0	427.70	0	5.1780	0	36.8650	4	29.138	0	423.863	0	74.4	4	24.7	4	-1E+10	1	-1E+10	1	-1E+10	1	-1E+10	1	-1E+10	1	-1E+10	1
4901784	208	C	03/15/2021	10:49	-135.132	43.128	0	430.30	0	5.1500	0	36.8650	4	29.141	0	426.437	0	73.5	4	24.3	4	-1E+10	1	-1E+10	1	-1E+10	1	-1E+10	1	-1E+10	1	-1E+10	1
4901784	208	C	03/15/2021	10:49	-135.132	43.128	0	432.90	0	5.1420	0	36.8690	4	29.145	0	429.011	0	71.8	4	23.8	4	-1E+10	1	-1E+10	1	-1E+10	1	-1E+10	1	-1E+10	1	-1E+10	1
4901784	208	C	03/15/2021	10:49	-135.132	43.128	0	434.60	0	5.1070	0	36.8700	4	29.150	0	430.694	0	71.3	4	23.6	4	-1E+10	1	-1E+10	1	-1E+10	1	-1E+10	1	-1E+10	1	-1E+10	1
4901784	208	C	03/15/2021	10:49	-135.132	43.128	0	437.20	0	5.0980	0	36.8730	4	29.154	0	433.268	0	70.7	4	23.4	4	-1E+10	1	-1E+10	1	-1E+10	1	-1E+10	1	-1E+10	1	-1E+10	1
4901784	208	C	03/15/2021	10:49	-135.132	43.128	0	439.80	0	5.0440	0	36.8760	4	29.163	0	435.842	0	70.7	4	23.3	4	-1E+10	1	-1E+10	1	-1E+10	1	-1E+10	1	-1E+10	1	-1E+10	1
4901784	208	C	03/15/2021	10:49	-135.132	43.128	0	442.40	0	5.0150	0	36.8760	4	29.166	0	438.416	0	70.4	4	23.2	4	-1E+10	1	-1E+10	1	-1E+10	1	-1E+10	1	-1E+10	1	-1E+10	1
4901784	208	C	03/15/2021	10:49	-135.132	43.128	0	445.00	0	4.9880	0	36.8770	4	29.170	0	440.990	0	70.5	4	23.2	4	-1E+10	1	-1E+10	1	-1E+10	1	-1E+10	1	-1E+10	1	-1E+10	1
4901784	208	C	03/15/2021	10:49	-135.132	43.128	0	447.70	0	4.9680	0	36.8750	4	29.171	0	443.662	0	70.3	4	23.2	4	-1E+10	1	-1E+10	1	-1E+10	1	-1E+10	1	-1E+10	1	-1E+10	1
4901784	208	C	03/15/2021	10:49	-135.132	43.128	0	450.40	0	4.9270	0	36.8750	4	29.176	0	446.335	0	69.9	4	23.0	4	-1E+10	1	-1E+10	1	-1E+10	1	-1E+10	1	-1E+10	1	-1E+10	1
4901784	208	C	03/15/2021	10:49	-135.132	43.128	0	452.20	0	4.8890	0	36.8810	4	29.186	0	448.117	0	69.3	4	22.8	4	-1E+10	1	-1E+10	1	-1E+10	1	-1E+10	1	-1E+10	1	-1E+10	1
4901784	208	C	03/15/2021	10:49	-135.132	43.128	0	454.90	0	4.8810	0	36.8790	4	29.185	0	450.790	0	68.2	4	22.5	4	-1E+10	1	-1E+10	1	-1E+10	1	-1E+10	1	-1E+10	1	-1E+10	1
4901784	208	C	03/15/2021	10:49	-135.132	43.128	0	457.60	0	4.8570	0	36.8790	4	29.188	0	453.462	0	66.6	4	21.9	4	-1E+10	1	-1E+10	1	-1E+10	1	-1E+10	1	-1E+10	1	-1E+10	1
4901784	208	C	03/15/2021	10:49	-135.132	43.128	0	460.20	0	4.8570	0	36.8890	4	29.196	0	456.036	0	65.4	4	21.5	4	-1E+10	1	-1E+10	1	-1E+10	1	-1E+10	1	-1E+10	1	-1E+10	1
4901784	208	C	03/15/2021	10:49	-135.132	43.128	0	462.90	0	4.8370	0	36.8910	4	29.200	0	458.708	0	65.1	4	21.4	4	-1E+10	1	-1E+10	1	-1E+10	1	-1E+10	1	-1E+10	1	-1E+10	1
4901784	208	C	03/15/2021	10:49	-135.132	43.128	0	464.70	0	4.8230	0	36.8920	4	29.202	0	460.490	0	64.8	4	21.3	4	-1E+10	1	-1E+10	1	-1E+10	1	-1E+10	1	-1E+10	1	-1E+10	1
4901784	208	C	03/15/2021	10:49	-135.132	43.128	0	467.50	0	4.8040	0	36.8940	4	29.206	0	463.262	0	64.4	4	21.2	4	-1E+10	1	-1E+10	1	-1E+10	1	-1E+10	1	-1E+10	1	-1E+10	1
4901784	208	C	03/15/2021	10:49	-135.132	43.128	0	470.30	0	4.7940	0	36.8940	4	29.207	0	466.033	0	64.2	4	21.1	4	-1E+10	1	-1E+10	1	-1E+10	1	-1E+10	1	-1E+10	1	-1E+10	1
4901784	208	C	03/15/2021	10:49	-135.132	43.128	0	472.20	0	4.7890	0	36.8940	4	29.208	0	467.914	0	63.8	4	20.9	4	-1E+10	1	-1E+10	1	-1E+10	1	-1E+10	1	-1E+10	1	-1E+10	1
4901784	208	C	03/15/2021	10:49	-135.132	43.128	0	475.10	0	4.7680	0	36.8950	4	29.211	0	470.784	0	63.1	4	20.7	4	-1E+10	1	-1E+10	1	-1E+10	1	-1E+10	1	-1E+10	1	-1E+10	1
4901784	208	C	03/15/2021	10:49	-135.132	43.128	0	477.90	0	4.7350	0	36.8980	4	29.218	0	473.556	0	62.1	4	20.4	4	-1E+10	1	-1E+10	1	-1E+10	1	-1E+10	1	-1E+10	1	-1E+10	1
4901784	208	C	03/15/2021	10:49	-135.132	43.128	0	479.90	0	4.7290	0	36.8990	4	29.219	0	475.535	0	61.2	4	20.1	4	-1E+10	1	-1E+10	1	-1E+10	1	-1E+10	1	-1E+10	1	-1E+10	1
4901784	208	C	03/15/2021	10:49	-135.132	43.128	0	482.80	0	4.7120	0	36.9020	4	29.224	0	478.405	0	59.4	4	19.5	4	-1E+10	1	-1E+10	1	-1E+10	1	-1E+10	1	-1E+10	1	-1E+10	1
4901784	208	C	03/15/2021	10:49	-135.132	43.128	0	485.70	0	4.6870	0	36.9080	4	29.231	0	481.276	0	57.6	4	18.9	4	-1E+10	1	-1E+10	1	-1E+10	1	-1E+10	1	-1E+10	1	-1E+10	1
4901784	208	C	03/15/2021	10:49	-135.132	43.128	0	487.60	0	4.6760	0	36.9130	4	29.237	0	483.156	0	56.6	4	18.5	4	-1E+10	1	-1E+10	1	-1E+10	1	-1E+10	1	-1E+10	1	-1E+10	1
4901784	208	C	03/15/2021	10:49	-135.132	43.128	0	489.60	0	4.6580	0	36.9160	4	29.241	0	485.135	0	55.8	4	18.3	4	-1E+10	1	-1E+10	1	-1E+10	1	-1E+10	1	-1E+10	1	-1E+10	1
4901784	208	C	03/15/2021	10:49	-135.132	43.128	0	492.40	0	4.6350	0	36.9220	4	29.249	0	487.907	0	54.7	4	17.9	4	-1E+10	1	-1E+10	1	-1E+10	1	-1E+10	1	-1E+10	1	-1E+10	1
4901784	208	C	03/15/2021	10:49	-135.132	43.128	0	495.40	0	4.6210	0	36.9250	4	29.253	0	490.876	0	53.8	4	17.6	4	-1E+10	1	-1E+10	1	-1E+10	1	-1E+10	1	-1E+10	1	-1E+10	1
4901784	208	C	03/15/2021	10:49	-135.132	43.128	0	497.30	0	4.6180	0	36.9280	4	29.255	0	492.756	0	53.2	4	17.4	4	-1E+10	1	-1E+10	1	-1E+10	1	-1E+10	1	-1E+10	1	-1E+10	1
4901784	208	C	03/15/2021	10:49	-135.132	43.128	0	500.30	0	4.6100	0	36.9320	4	29.260	0	495.725	0	52.4	4	17.1	4	-1E+10	1	-1E+10	1	-1E+10	1	-1E+10	1	-1E+10	1	-1E+10	1
4901784	208	C	03/15/2021	10:49	-135.132	43.128	0	505.10	0	4.6180	0	36.9350	4	29.261	0	500.475	0	50.9	4	16.7	4	-1E+10	1	-1E+10	1	-1E+10	1	-1E+10	1	-1E+10	1	-1E+10	1
4901784	208	C	03/15/2021	10:49	-135.132	43.128	0	510.00	0	4.5930	0	36.9430	4	29.270	0	505.325	0	49.1	4	16.0	4	-1E+10	1	-1E+10	1	-1E+10	1	-1E+10	1	-1E+10	1	-1E+10	1
4901784	208	C	03/15/2021	10:49	-135.132	43.128	0	515.00	0	4.6010	0	36.9500	4	29.275	0	510.273	0	46.9	4	15.3	4	-1E+10	1	-1E+10	1	-1E+10	1	-1E+10	1	-1E+10	1	-1E+10	1
4901784	208	C	03/15/2021	10:49	-135.132	43.128	0	520.00	0	4.6020	0	36.9610	4	29.284	0	515.221	0	45.1	4	14.8	4	-1E+10	1	-1E+10	1	-1E+10	1	-1E+10	1	-1E+10	1	-1E+10	1
4901784	208	C	03/15/2021	10:49	-135.132	43.128	0	525.00	0	4.6250	0	36.9680	4	29.287	0	520.168	0	43.9	4	14.4	4	-1E+10	1	-1E+10	1	-1E+10	1	-1E+10	1	-1E+10	1	-1E+10	1
4901784	208	C	03/15/2021	10:49	-135.132	43.128	0	530.60	0	4.6220	0	36.9710	4	29.289	0	525.710	0	43.4	4	14.2	4	-1E+10	1	-1E+10	1	-1E+10	1	-1E+10	1	-1E+10	1	-1E+10	1
4901784	208	C	03/15/2021	10:49	-135.132	43.128	0	535.50	0	4.5630	0	36.9730	4	29.298	0	530.558	0	42.4	4	13.9	4	-1E+10	1	-1E+10	1	-1E+10	1	-1E+10	1	-1E+10	1	-1E+10	1
4901784	208	C	03/15/2021	10:49	-135.132	43.128	0	540.40	0	4.5870	0	36.9820	4	29.302	0	535.407	0	40.7	4	13.3	4	-1E+10	1	-1E+10	1	-1E+10	1	-1E+10	1	-1E+10	1	-1E+10	1
4901784	208	C	03/15/2021	10:49	-135.132	43.128	0	545.40	0	4.5430	0	36.9840	4	29.309	0	540.354	0	40.2	4	13.1	4	-1E+10	1	-1E+10	1	-1E+10	1	-1E+10	1	-1E+10	1	-1E+10	1
4901784	208	C	03/15/2021	10:49	-135.132	43.128	0	550.30	0	4.5210	0	36.9870	4	29.314	0	545.202	0	39.5	4	12.9	4	-1E+10	1	-1E+10	1	-1E+10	1	-1E+10	1	-1E+10	1	-1E+10	1
4901784	208	C	03/15/2021	10:49	-135.132	43.128	0	555.30	0	4.4890	0	36.9890	4	29.319	0	550.149	0	38.6	4	12.6	4	-1E+10	1	-1E+10	1	-1E+10	1	-1E+10	1	-1E+10	1	-1E+10	1
4901784	208	C	03/15/2021	10:49	-135.132	43.128	0	560.30	0	4.4680	0	36.9960	4	29.327	0	555.096	0	37.3	4	12.2	4	-1E+10	1	-1E+10	1	-1E+10	1	-1E+10	1	-1E+10	1	-1E+10	1
4901784	208	C	03/15/2021	10:49	-135.132	43.128	0	565.30	0	4.4400	0	37.0020	4	29.335	0	560.043	0	36.2	4	11.8	4	-1E+10	1	-1E+10	1	-1E+10	1	-1E+10	1	-1E+10	1	-1E+10	1
4901784	208	C	03/15/2021	10:49	-135.132	43.128	0	570.30	0	4.4590	0	37.0080	4	29.338	0	564.990	0	35.0	4	11.4	4	-1E+10	1	-1E+10	1	-1E+10	1	-1E+10	1	-1E+10	1	-1E+10	1
4901784	208	C	03/15/2021	10:49	-135.132	43.128	0	575.20	0	4.4420	0	37.0130	4	29.344	0	569.838	0	34.2	4	11.1	4	-1E+10	1	-1E+10	1	-1E+10	1	-1E+10	1	-1E+10	1	-1E+10	1
4901784	208	C	03/15/2021	10:49	-135.132	43.128	0	580.20	0	4.4200	0	37.0180	4	29.351	0	574.784	0	33.1	4	10.8	4	-1E+10	1	-1E+10	1	-1E+10	1	-1E+10	1	-1E+10	1	-1E+10	1
4901784	208	C	03/15/2021	10:49	-135.132	43.128	0	585.30	0	4.4200	0	37.0240	4	29.355	0	579.829	0	32.0	4	10.4	4	-1E+10	1	-1E+10	1	-1E+10	1	-1E+10	1	-1E+10	1	-1E+10	1
4901784	208	C	03/15/2021	10:49	-135.132	43.128	0	590.30	0	4.3920	0	37.0280	4	29.362	0	584.776	0	31.0	4	10.1	4	-1E+10	1	-1E+10	1	-1E+10	1	-1E+10	1	-1E+10	1	-1E+10	1
4901784	208	C	03/15/2021	10:49	-135.132	43.128	0	595.30	0	4.3850	0	37.0350	4	29.368	0	589.722	0	29.8	4	9.7	4	-1E+10	1	-1E+10	1	-1E+10	1	-1E+10	1	-1E+10	1	-1E+10	1
4901784	208	C	03/15/2021	10:49	-135.132	43.128	0	600.30	0	4.3430	0	37.0420	4	29.379	0	594.668	0	28.7	4	9.3	4	-1E+10	1	-1E+10	1	-1E+10	1	-1E+10	1	-1E+10	1	-1E+10	1
4901784	208	C	03/15/2021	10:49	-135.132	43.128	0	605.40	0	4.3360	0	37.0500	4	29.386	0	599.713	0	27.3	4	8.9	4	-1E+10	1	-1E+10	1	-1E+10	1	-1E+10	1	-1E+10	1	-1E+10	1
4901784	208	C	03/15/2021	10:49	-135.132	43.128	0	610.50	0	4.3690	0	37.0610	4	29.391	0	604.757	0	25.8	4	8.4	4	-1E+10	1	-1E+10	1	-1E+10	1	-1E+10	1	-1E+10	1	-1E+10	1
4901784	208	C	03/15/2021	10:49	-135.132	43.128	0	615.70	0	4.3590	0	37.0690	4	29.398	0	609.901	0	24.6	4	8.0	4	-1E+10	1	-1E+10	1	-1E+10	1	-1E+10	1	-1E+10	1	-1E+10	1
4901784	208	C	03/15/2021	10:49	-135.132	43.128	0	620.00	0	4.3600	0	37.0770	4	29.405	0	614.154	0	23.8	4	7.8	4	-1E+10	1	-1E+10	1	-1E+10	1	-1E+10	1	-1E+10	1	-1E+10	1
4901784	208	C	03/15/2021	10:49	-135.132	43.128	0	624.30	0	4.3160	0	37.0790	4	29.411	0	618.407	0	23.5	4	7.6	4	-1E+10	1	-1E+10	1	-1E+10	1	-1E+10	1	-1E+10	1	-1E+10	1
4901784	208	C	03/15/2021	10:49	-135.132	43.128	0	629.50	0	4.2610	0	37.0830	4	29.421	0	623.550	0	23.2	4	7.5	4	-1E+10	1	-1E+10	1	-1E+10	1	-1E+10	1	-1E+10	1	-1E+10	1
4901784	208	C	03/15/2021	10:49	-135.132	43.128	0	634.80	0	4.2480	0	37.0880	4	29.426	0	628.792	0	22.4	4	7.3	4	-1E+10	1	-1E+10	1	-1E+10	1	-1E+10	1	-1E+10	1	-1E+10	1
4901784	208	C	03/15/2021	10:49	-135.132	43.128	0	640.10	0	4.2430	0	37.0950	4	29.433	0	634.034	0	21.8	4	7.1	4	-1E+10	1	-1E+10	1	-1E+10	1	-1E+10	1	-1E+10	1	-1E+10	1
4901784	208	C	03/15/2021	10:49	-135.132	43.128	0	645.40	0	4.2390	0	37.0980	4	29.435	0	639.275	0	21.4	4	6.9	4	-1E+10	1	-1E+10	1	-1E+10	1	-1E+10	1	-1E+10	1	-1E+10	1
4901784	208	C	03/15/2021	10:49	-135.132	43.128	0	649.80	0	4.2280	0	37.1020	4	29.440	0	643.627	0	21.0	4	6.8	4	-1E+10	1	-1E+10	1	-1E+10	1	-1E+10	1	-1E+10	1	-1E+10	1
4901784	208	C	03/15/2021	10:49	-135.132	43.128	0	654.30	0	4.2070	0	37.1040	4	29.444	0	648.077	0	20.6	4	6.7	4	-1E+10	1	-1E+10	1	-1E+10	1	-1E+10	1	-1E+10	1	-1E+10	1
4901784	208	C	03/15/2021	10:49	-135.132	43.128	0	659.70	0	4.1950	0	37.1130	4	29.452	0	653.417	0	19.9	4	6.4	4	-1E+10	1	-1E+10	1	-1E+10	1	-1E+10	1	-1E+10	1	-1E+10	1
4901784	208	C	03/15/2021	10:49	-135.132	43.128	0	665.20	0	4.1840	0	37.1170	4	29.457	0	658.856	0	19.5	4	6.3	4	-1E+10	1	-1E+10	1	-1E+10	1	-1E+10	1	-1E+10	1	-1E+10	1
4901784	208	C	03/15/2021	10:49	-135.132	43.128	0	669.80	0	4.1830	0	37.1190	4	29.459	0	663.405	0	19.2	4	6.2	4	-1E+10	1	-1E+10	1	-1E+10	1	-1E+10	1	-1E+10	1	-1E+10	1
4901784	208	C	03/15/2021	10:49	-135.132	43.128	0	674.50	0	4.1790	0	37.1210	4	29.461	0	668.053	0	18.6	4	6.0	4	-1E+10	1	-1E+10	1	-1E+10	1	-1E+10	1	-1E+10	1	-1E+10	1
4901784	208	C	03/15/2021	10:49	-135.132	43.128	0	680.00	0	4.1720	0	37.1300	4	29.469	0	673.491	0	17.9	4	5.8	4	-1E+10	1	-1E+10	1	-1E+10	1	-1E+10	1	-1E+10	1	-1E+10	1
4901784	208	C	03/15/2021	10:49	-135.132	43.128	0	685.50	0	4.1670	0	37.1340	4	29.473	0	678.930	0	17.5	4	5.7	4	-1E+10	1	-1E+10	1	-1E+10	1	-1E+10	1	-1E+10	1	-1E+10	1
4901784	208	C	03/15/2021	10:49	-135.132	43.128	0	690.30	0	4.1530	0	37.1400	4	29.479	0	683.676	0	17.0	4	5.5	4	-1E+10	1	-1E+10	1	-1E+10	1	-1E+10	1	-1E+10	1	-1E+10	1
4901784	208	C	03/15/2021	10:49	-135.132	43.128	0	695.10	0	4.1470	0	37.1440	4	29.483	0	688.422	0	16.6	4	5.4	4	-1E+10	1	-1E+10	1	-1E+10	1	-1E+10	1	-1E+10	1	-1E+10	1
4901784	208	C	03/15/2021	10:49	-135.132	43.128	0	699.90	0	4.1300	0	37.1530	4	29.492	0	693.168	0	16.3	4	5.3	4	-1E+10	1	-1E+10	1	-1E+10	1	-1E+10	1	-1E+10	1	-1E+10	1
4901784	208	C	03/15/2021	10:49	-135.132	43.128	0	704.70	0	4.1030	0	37.1520	4	29.494	0	697.914	0	16.2	4	5.2	4	-1E+10	1	-1E+10	1	-1E+10	1	-1E+10	1	-1E+10	1	-1E+10	1
4901784	208	C	03/15/2021	10:49	-135.132	43.128	0	709.50	0	4.0800	0	37.1550	4	29.499	0	702.659	0	15.7	4	5.1	4	-1E+10	1	-1E+10	1	-1E+10	1	-1E+10	1	-1E+10	1	-1E+10	1
4901784	208	C	03/15/2021	10:49	-135.132	43.128	0	714.30	0	4.0710	0	37.1660	4	29.509	0	707.405	0	15.0	4	4.9	4	-1E+10	1	-1E+10	1	-1E+10	1	-1E+10	1	-1E+10	1	-1E+10	1
4901784	208	C	03/15/2021	10:49	-135.132	43.128	0	719.60	0	4.0850	0	37.1760	4	29.515	0	712.645	0	14.1	4	4.6	4	-1E+10	1	-1E+10	1	-1E+10	1	-1E+10	1	-1E+10	1	-1E+10	1
4901784	208	C	03/15/2021	10:49	-135.132	43.128	0	724.50	0	4.0770	0	37.1870	4	29.525	0	717.489	0	13.6	4	4.4	4	-1E+10	1	-1E+10	1	-1E+10	1	-1E+10	1	-1E+10	1	-1E+10	1
4901784	208	C	03/15/2021	10:49	-135.132	43.128	0	729.40	0	4.0710	0	37.1930	4	29.531	0	722.333	0	13.2	4	4.3	4	-1E+10	1	-1E+10	1	-1E+10	1	-1E+10	1	-1E+10	1	-1E+10	1
4901784	208	C	03/15/2021	10:49	-135.132	43.128	0	734.30	0	4.0640	0	37.1990	4	29.536	0	727.177	0	12.9	4	4.2	4	-1E+10	1	-1E+10	1	-1E+10	1	-1E+10	1	-1E+10	1	-1E+10	1
4901784	208	C	03/15/2021	10:49	-135.132	43.128	0	739.30	0	4.0650	0	37.2060	4	29.542	0	732.120	0	12.5	4	4.1	4	-1E+10	1	-1E+10	1	-1E+10	1	-1E+10	1	-1E+10	1	-1E+10	1
4901784	208	C	03/15/2021	10:49	-135.132	43.128	0	744.40	0	4.0540	0	37.2110	4	29.547	0	737.161	0	12.3	4	4.0	4	-1E+10	1	-1E+10	1	-1E+10	1	-1E+10	1	-1E+10	1	-1E+10	1
4901784	208	C	03/15/2021	10:49	-135.132	43.128	0	749.50	0	4.0540	0	37.2160	4	29.551	0	742.202	0	12.1	4	3.9	4	-1E+10	1	-1E+10	1	-1E+10	1	-1E+10	1	-1E+10	1	-1E+10	1
4901784	208	C	03/15/2021	10:49	-135.132	43.128	0	754.70	0	4.0400	0	37.2180	4	29.554	0	747.342	0	12.0	4	3.9	4	-1E+10	1	-1E+10	1	-1E+10	1	-1E+10	1	-1E+10	1	-1E+10	1
4901784	208	C	03/15/2021	10:49	-135.132	43.128	0	760.00	0	4.0290	0	37.2230	4	29.559	0	752.581	0	11.7	4	3.8	4	-1E+10	1	-1E+10	1	-1E+10	1	-1E+10	1	-1E+10	1	-1E+10	1
4901784	208	C	03/15/2021	10:49	-135.132	43.128	0	765.30	0	4.0230	0	37.2300	4	29.566	0	757.820	0	11.5	4	3.7	4	-1E+10	1	-1E+10	1	-1E+10	1	-1E+10	1	-1E+10	1	-1E+10	1
4901784	208	C	03/15/2021	10:49	-135.132	43.128	0	770.70	0	4.0170	0	37.2360	4	29.571	0	763.157	0	11.3	4	3.6	4	-1E+10	1	-1E+10	1	-1E+10	1	-1E+10	1	-1E+10	1	-1E+10	1
4901784	208	C	03/15/2021	10:49	-135.132	43.128	0	775.10	0	3.9990	0	37.2410	4	29.577	0	767.506	0	11.2	4	3.6	4	-1E+10	1	-1E+10	1	-1E+10	1	-1E+10	1	-1E+10	1	-1E+10	1
4901784	208	C	03/15/2021	10:49	-135.132	43.128	0	779.60	0	3.9880	0	37.2440	4	29.581	0	771.954	0	11.1	4	3.6	4	-1E+10	1	-1E+10	1	-1E+10	1	-1E+10	1	-1E+10	1	-1E+10	1
4901784	208	C	03/15/2021	10:49	-135.132	43.128	0	785.00	0	3.9690	0	37.2490	4	29.587	0	777.291	0	11.0	4	3.5	4	-1E+10	1	-1E+10	1	-1E+10	1	-1E+10	1	-1E+10	1	-1E+10	1
4901784	208	C	03/15/2021	10:49	-135.132	43.128	0	790.40	0	3.9620	0	37.2510	4	29.589	0	782.628	0	10.9	4	3.5	4	-1E+10	1	-1E+10	1	-1E+10	1	-1E+10	1	-1E+10	1	-1E+10	1
4901784	208	C	03/15/2021	10:49	-135.132	43.128	0	794.90	0	3.9550	0	37.2520	4	29.591	0	787.075	0	10.8	4	3.5	4	-1E+10	1	-1E+10	1	-1E+10	1	-1E+10	1	-1E+10	1	-1E+10	1
4901784	208	C	03/15/2021	10:49	-135.132	43.128	0	799.40	0	3.9340	0	37.2610	4	29.600	0	791.522	0	10.7	4	3.5	4	-1E+10	1	-1E+10	1	-1E+10	1	-1E+10	1	-1E+10	1	-1E+10	1
4901784	208	C	03/15/2021	10:49	-135.132	43.128	0	804.90	0	3.9310	0	37.2610	4	29.601	0	796.957	0	10.7	4	3.5	4	-1E+10	1	-1E+10	1	-1E+10	1	-1E+10	1	-1E+10	1	-1E+10	1
4901784	208	C	03/15/2021	10:49	-135.132	43.128	0	810.30	0	3.9120	0	37.2640	4	29.605	0	802.294	0	10.6	4	3.4	4	-1E+10	1	-1E+10	1	-1E+10	1	-1E+10	1	-1E+10	1	-1E+10	1
4901784	208	C	03/15/2021	10:49	-135.132	43.128	0	814.80	0	3.9060	0	37.2660	4	29.608	0	806.740	0	10.6	4	3.4	4	-1E+10	1	-1E+10	1	-1E+10	1	-1E+10	1	-1E+10	1	-1E+10	1
4901784	208	C	03/15/2021	10:49	-135.132	43.128	0	819.50	0	3.8920	0	37.2700	4	29.612	0	811.385	0	10.5	4	3.4	4	-1E+10	1	-1E+10	1	-1E+10	1	-1E+10	1	-1E+10	1	-1E+10	1
4901784	208	C	03/15/2021	10:49	-135.132	43.128	0	825.00	0	3.8810	0	37.2740	4	29.617	0	816.820	0	10.4	4	3.4	4	-1E+10	1	-1E+10	1	-1E+10	1	-1E+10	1	-1E+10	1	-1E+10	1
4901784	208	C	03/15/2021	10:49	-135.132	43.128	0	830.60	0	3.8710	0	37.2770	4	29.620	0	822.353	0	10.4	4	3.3	4	-1E+10	1	-1E+10	1	-1E+10	1	-1E+10	1	-1E+10	1	-1E+10	1
4901784	208	C	03/15/2021	10:49	-135.132	43.128	0	835.20	0	3.8610	0	37.2800	4	29.624	0	826.898	0	10.3	4	3.3	4	-1E+10	1	-1E+10	1	-1E+10	1	-1E+10	1	-1E+10	1	-1E+10	1
4901784	208	C	03/15/2021	10:49	-135.132	43.128	0	839.90	0	3.8530	0	37.2830	4	29.627	0	831.542	0	10.3	4	3.3	4	-1E+10	1	-1E+10	1	-1E+10	1	-1E+10	1	-1E+10	1	-1E+10	1
4901784	208	C	03/15/2021	10:49	-135.132	43.128	0	845.50	0	3.8440	0	37.2870	4	29.631	0	837.075	0	10.2	4	3.3	4	-1E+10	1	-1E+10	1	-1E+10	1	-1E+10	1	-1E+10	1	-1E+10	1
4901784	208	C	03/15/2021	10:49	-135.132	43.128	0	850.20	0	3.8260	0	37.2930	4	29.638	0	841.719	0	10.1	4	3.3	4	-1E+10	1	-1E+10	1	-1E+10	1	-1E+10	1	-1E+10	1	-1E+10	1
4901784	208	C	03/15/2021	10:49	-135.132	43.128	0	854.90	0	3.8130	0	37.3010	4	29.646	0	846.363	0	10.1	4	3.2	4	-1E+10	1	-1E+10	1	-1E+10	1	-1E+10	1	-1E+10	1	-1E+10	1
4901784	208	C	03/15/2021	10:49	-135.132	43.128	0	860.60	0	3.8250	0	37.3060	4	29.649	0	851.994	0	10.1	4	3.2	4	-1E+10	1	-1E+10	1	-1E+10	1	-1E+10	1	-1E+10	1	-1E+10	1
4901784	208	C	03/15/2021	10:49	-135.132	43.128	0	865.30	0	3.8360	0	37.3080	4	29.649	0	856.637	0	10.1	4	3.2	4	-1E+10	1	-1E+10	1	-1E+10	1	-1E+10	1	-1E+10	1	-1E+10	1
4901784	208	C	03/15/2021	10:49	-135.132	43.128	0	870.00	0	3.8340	0	37.3130	4	29.653	0	861.281	0	10.0	4	3.2	4	-1E+10	1	-1E+10	1	-1E+10	1	-1E+10	1	-1E+10	1	-1E+10	1
4901784	208	C	03/15/2021	10:49	-135.132	43.128	0	874.70	0	3.8210	0	37.3160	4	29.657	0	865.924	0	10.0	4	3.2	4	-1E+10	1	-1E+10	1	-1E+10	1	-1E+10	1	-1E+10	1	-1E+10	1
4901784	208	C	03/15/2021	10:49	-135.132	43.128	0	879.50	0	3.8180	0	37.3200	4	29.661	0	870.666	0	10.0	4	3.2	4	-1E+10	1	-1E+10	1	-1E+10	1	-1E+10	1	-1E+10	1	-1E+10	1
4901784	208	C	03/15/2021	10:49	-135.132	43.128	0	885.20	0	3.8120	0	37.3200	4	29.661	0	876.297	0	10.0	4	3.2	4	-1E+10	1	-1E+10	1	-1E+10	1	-1E+10	1	-1E+10	1	-1E+10	1
4901784	208	C	03/15/2021	10:49	-135.132	43.128	0	890.00	0	3.7930	0	37.3200	4	29.663	0	881.038	0	9.9	4	3.2	4	-1E+10	1	-1E+10	1	-1E+10	1	-1E+10	1	-1E+10	1	-1E+10	1
4901784	208	C	03/15/2021	10:49	-135.132	43.128	0	894.70	0	3.7430	0	37.3230	4	29.671	0	885.681	0	9.9	4	3.2	4	-1E+10	1	-1E+10	1	-1E+10	1	-1E+10	1	-1E+10	1	-1E+10	1
4901784	208	C	03/15/2021	10:49	-135.132	43.128	0	900.40	0	3.7350	0	37.3250	4	29.674	0	891.311	0	9.9	4	3.2	4	-1E+10	1	-1E+10	1	-1E+10	1	-1E+10	1	-1E+10	1	-1E+10	1
4901784	208	C	03/15/2021	10:49	-135.132	43.128	0	905.20	0	3.7210	0	37.3290	4	29.679	0	896.053	0	9.9	4	3.2	4	-1E+10	1	-1E+10	1	-1E+10	1	-1E+10	1	-1E+10	1	-1E+10	1
4901784	208	C	03/15/2021	10:49	-135.132	43.128	0	909.90	0	3.7070	0	37.3340	4	29.684	0	900.695	0	9.9	4	3.2	4	-1E+10	1	-1E+10	1	-1E+10	1	-1E+10	1	-1E+10	1	-1E+10	1
4901784	208	C	03/15/2021	10:49	-135.132	43.128	0	915.50	0	3.6980	0	37.3380	4	29.688	0	906.226	0	9.9	4	3.2	4	-1E+10	1	-1E+10	1	-1E+10	1	-1E+10	1	-1E+10	1	-1E+10	1
4901784	208	C	03/15/2021	10:49	-135.132	43.128	0	920.40	0	3.6910	0	37.3400	4	29.691	0	911.066	0	9.9	4	3.2	4	-1E+10	1	-1E+10	1	-1E+10	1	-1E+10	1	-1E+10	1	-1E+10	1
4901784	208	C	03/15/2021	10:49	-135.132	43.128	0	925.40	0	3.6790	0	37.3440	4	29.695	0	916.004	0	10.0	4	3.2	4	-1E+10	1	-1E+10	1	-1E+10	1	-1E+10	1	-1E+10	1	-1E+10	1
4901784	208	C	03/15/2021	10:49	-135.132	43.128	0	930.40	0	3.6700	0	37.3460	4	29.698	0	920.943	0	10.0	4	3.2	4	-1E+10	1	-1E+10	1	-1E+10	1	-1E+10	1	-1E+10	1	-1E+10	1
4901784	208	C	03/15/2021	10:49	-135.132	43.128	0	935.40	0	3.6620	0	37.3490	4	29.701	0	925.881	0	10.0	4	3.2	4	-1E+10	1	-1E+10	1	-1E+10	1	-1E+10	1	-1E+10	1	-1E+10	1
4901784	208	C	03/15/2021	10:49	-135.132	43.128	0	940.50	0	3.6550	0	37.3510	4	29.703	0	930.917	0	10.0	4	3.2	4	-1E+10	1	-1E+10	1	-1E+10	1	-1E+10	1	-1E+10	1	-1E+10	1
4901784	208	C	03/15/2021	10:49	-135.132	43.128	0	945.50	0	3.6460	0	37.3550	4	29.708	0	935.855	0	10.0	4	3.2	4	-1E+10	1	-1E+10	1	-1E+10	1	-1E+10	1	-1E+10	1	-1E+10	1
4901784	208	C	03/15/2021	10:49	-135.132	43.128	0	950.60	0	3.6390	0	37.3570	4	29.710	0	940.892	0	10.1	4	3.2	4	-1E+10	1	-1E+10	1	-1E+10	1	-1E+10	1	-1E+10	1	-1E+10	1
4901784	208	C	03/15/2021	10:49	-135.132	43.128	0	955.60	0	3.6250	0	37.3600	4	29.714	0	945.829	0	10.1	4	3.2	4	-1E+10	1	-1E+10	1	-1E+10	1	-1E+10	1	-1E+10	1	-1E+10	1
4901784	208	C	03/15/2021	10:49	-135.132	43.128	0	960.80	0	3.6120	0	37.3620	4	29.717	0	950.965	0	10.1	4	3.2	4	-1E+10	1	-1E+10	1	-1E+10	1	-1E+10	1	-1E+10	1	-1E+10	1
4901784	208	C	03/15/2021	10:49	-135.132	43.128	0	965.10	0	3.5910	0	37.3680	4	29.724	0	955.211	0	10.2	4	3.3	4	-1E+10	1	-1E+10	1	-1E+10	1	-1E+10	1	-1E+10	1	-1E+10	1
4901784	208	C	03/15/2021	10:49	-135.132	43.128	0	969.40	0	3.5850	0	37.3690	4	29.725	0	959.457	0	10.2	4	3.3	4	-1E+10	1	-1E+10	1	-1E+10	1	-1E+10	1	-1E+10	1	-1E+10	1
4901784	208	C	03/15/2021	10:49	-135.132	43.128	0	974.60	0	3.5740	0	37.3700	4	29.727	0	964.591	0	10.2	4	3.3	4	-1E+10	1	-1E+10	1	-1E+10	1	-1E+10	1	-1E+10	1	-1E+10	1
4901784	208	C	03/15/2021	10:49	-135.132	43.128	0	979.80	0	3.5560	0	37.3740	4	29.732	0	969.726	0	10.3	4	3.3	4	-1E+10	1	-1E+10	1	-1E+10	1	-1E+10	1	-1E+10	1	-1E+10	1
4901784	208	C	03/15/2021	10:49	-135.132	43.128	0	985.00	0	3.5430	0	37.3770	4	29.736	0	974.861	0	10.4	4	3.3	4	-1E+10	1	-1E+10	1	-1E+10	1	-1E+10	1	-1E+10	1	-1E+10	1
4901784	208	C	03/15/2021	10:49	-135.132	43.128	0	990.30	0	3.5260	0	37.3810	4	29.741	0	980.094	0	10.4	4	3.3	4	-1E+10	1	-1E+10	1	-1E+10	1	-1E+10	1	-1E+10	1	-1E+10	1
4901784	208	C	03/15/2021	10:49	-135.132	43.128	0	995.70	0	3.5120	0	37.3840	4	29.745	0	985.425	0	10.5	4	3.4	4	-1E+10	1	-1E+10	1	-1E+10	1	-1E+10	1	-1E+10	1	-1E+10	1
4901784	208	C	03/15/2021	10:49	-135.132	43.128	0	1000.10	0	3.5000	0	37.3870	4	29.749	0	989.769	0	10.6	4	3.4	4	-1E+10	1	-1E+10	1	-1E+10	1	-1E+10	1	-1E+10	1	-1E+10	1
4901784	208	C	03/15/2021	10:49	-135.132	43.128	0	1004.60	0	3.4880	0	37.3890	4	29.752	0	994.212	0	10.6	4	3.4	4	-1E+10	1	-1E+10	1	-1E+10	1	-1E+10	1	-1E+10	1	-1E+10	1
4901784	208	C	03/15/2021	10:49	-135.132	43.128	0	1010.00	0	3.4710	0	37.3930	4	29.757	0	999.544	0	10.7	4	3.4	4	-1E+10	1	-1E+10	1	-1E+10	1	-1E+10	1	-1E+10	1	-1E+10	1
4901784	208	C	03/15/2021	10:49	-135.132	43.128	0	1015.40	0	3.4650	0	37.3940	4	29.758	0	1004.875	0	10.7	4	3.4	4	-1E+10	1	-1E+10	1	-1E+10	1	-1E+10	1	-1E+10	1	-1E+10	1
4901784	208	C	03/15/2021	10:49	-135.132	43.128	0	1019.90	0	3.4590	0	37.3960	4	29.760	0	1009.317	0	10.8	4	3.5	4	-1E+10	1	-1E+10	1	-1E+10	1	-1E+10	1	-1E+10	1	-1E+10	1
4901784	208	C	03/15/2021	10:49	-135.132	43.128	0	1024.40	0	3.4420	0	37.3990	4	29.765	0	1013.760	0	10.9	4	3.5	4	-1E+10	1	-1E+10	1	-1E+10	1	-1E+10	1	-1E+10	1	-1E+10	1
4901784	208	C	03/15/2021	10:49	-135.132	43.128	0	1029.90	0	3.4280	0	37.4020	4	29.769	0	1019.189	0	11.0	4	3.5	4	-1E+10	1	-1E+10	1	-1E+10	1	-1E+10	1	-1E+10	1	-1E+10	1
4901784	208	C	03/15/2021	10:49	-135.132	43.128	0	1035.30	0	3.4090	0	37.4060	4	29.774	0	1024.520	0	11.1	4	3.5	4	-1E+10	1	-1E+10	1	-1E+10	1	-1E+10	1	-1E+10	1	-1E+10	1
4901784	208	C	03/15/2021	10:49	-135.132	43.128	0	1040.60	0	3.3900	0	37.4100	4	29.779	0	1029.752	0	11.1	4	3.6	4	-1E+10	1	-1E+10	1	-1E+10	1	-1E+10	1	-1E+10	1	-1E+10	1
4901784	208	C	03/15/2021	10:49	-135.132	43.128	0	1045.50	0	3.3870	0	37.4110	4	29.780	0	1034.588	0	11.2	4	3.6	4	-1E+10	1	-1E+10	1	-1E+10	1	-1E+10	1	-1E+10	1	-1E+10	1
4901784	208	C	03/15/2021	10:49	-135.132	43.128	0	1050.30	0	3.3780	0	37.4130	4	29.783	0	1039.327	0	11.3	4	3.6	4	-1E+10	1	-1E+10	1	-1E+10	1	-1E+10	1	-1E+10	1	-1E+10	1
4901784	208	C	03/15/2021	10:49	-135.132	43.128	0	1055.30	0	3.3670	0	37.4160	4	29.786	0	1044.262	0	11.4	4	3.6	4	-1E+10	1	-1E+10	1	-1E+10	1	-1E+10	1	-1E+10	1	-1E+10	1
4901784	208	C	03/15/2021	10:49	-135.132	43.128	0	1060.30	0	3.3480	0	37.4190	4	29.791	0	1049.197	0	11.4	4	3.6	4	-1E+10	1	-1E+10	1	-1E+10	1	-1E+10	1	-1E+10	1	-1E+10	1
4901784	208	C	03/15/2021	10:49	-135.132	43.128	0	1065.40	0	3.3430	0	37.4210	4	29.793	0	1054.231	0	11.6	4	3.7	4	-1E+10	1	-1E+10	1	-1E+10	1	-1E+10	1	-1E+10	1	-1E+10	1
4901784	208	C	03/15/2021	10:49	-135.132	43.128	0	1070.40	0	3.3380	0	37.4230	4	29.795	0	1059.166	0	11.6	4	3.7	4	-1E+10	1	-1E+10	1	-1E+10	1	-1E+10	1	-1E+10	1	-1E+10	1
4901784	208	C	03/15/2021	10:49	-135.132	43.128	0	1075.40	0	3.3310	0	37.4260	4	29.798	0	1064.101	0	11.8	4	3.7	4	-1E+10	1	-1E+10	1	-1E+10	1	-1E+10	1	-1E+10	1	-1E+10	1
4901784	208	C	03/15/2021	10:49	-135.132	43.128	0	1080.50	0	3.3270	0	37.4270	4	29.799	0	1069.134	0	11.9	4	3.8	4	-1E+10	1	-1E+10	1	-1E+10	1	-1E+10	1	-1E+10	1	-1E+10	1
4901784	208	C	03/15/2021	10:49	-135.132	43.128	0	1085.70	0	3.3240	0	37.4280	4	29.800	0	1074.266	0	12.0	4	3.8	4	-1E+10	1	-1E+10	1	-1E+10	1	-1E+10	1	-1E+10	1	-1E+10	1
4901784	208	C	03/15/2021	10:49	-135.132	43.128	0	1089.90	0	3.3120	0	37.4310	4	29.804	0	1078.411	0	12.1	4	3.9	4	-1E+10	1	-1E+10	1	-1E+10	1	-1E+10	1	-1E+10	1	-1E+10	1
4901784	208	C	03/15/2021	10:49	-135.132	43.128	0	1094.20	0	3.3000	0	37.4350	4	29.809	0	1082.655	0	12.2	4	3.9	4	-1E+10	1	-1E+10	1	-1E+10	1	-1E+10	1	-1E+10	1	-1E+10	1
4901784	208	C	03/15/2021	10:49	-135.132	43.128	0	1099.40	0	3.2930	0	37.4370	4	29.811	0	1087.786	0	12.3	4	3.9	4	-1E+10	1	-1E+10	1	-1E+10	1	-1E+10	1	-1E+10	1	-1E+10	1
4901784	208	C	03/15/2021	10:49	-135.132	43.128	0	1104.90	0	3.2870	0	37.4390	4	29.813	0	1093.214	0	12.4	4	3.9	4	-1E+10	1	-1E+10	1	-1E+10	1	-1E+10	1	-1E+10	1	-1E+10	1
4901784	208	C	03/15/2021	10:49	-135.132	43.128	0	1109.70	0	3.2800	0	37.4400	4	29.815	0	1097.951	0	12.5	4	4.0	4	-1E+10	1	-1E+10	1	-1E+10	1	-1E+10	1	-1E+10	1	-1E+10	1
4901784	208	C	03/15/2021	10:49	-135.132	43.128	0	1115.10	0	3.2670	0	37.4440	4	29.819	0	1103.279	0	12.6	4	4.0	4	-1E+10	1	-1E+10	1	-1E+10	1	-1E+10	1	-1E+10	1	-1E+10	1
4901784	208	C	03/15/2021	10:49	-135.132	43.128	0	1120.70	0	3.2560	0	37.4460	4	29.822	0	1108.805	0	12.8	4	4.1	4	-1E+10	1	-1E+10	1	-1E+10	1	-1E+10	1	-1E+10	1	-1E+10	1
4901784	208	C	03/15/2021	10:49	-135.132	43.128	0	1125.70	0	3.2460	0	37.4490	4	29.825	0	1113.739	0	12.8	4	4.1	4	-1E+10	1	-1E+10	1	-1E+10	1	-1E+10	1	-1E+10	1	-1E+10	1
4901784	208	C	03/15/2021	10:49	-135.132	43.128	0	1130.00	0	3.2420	0	37.4490	4	29.826	0	1117.982	0	12.9	4	4.1	4	-1E+10	1	-1E+10	1	-1E+10	1	-1E+10	1	-1E+10	1	-1E+10	1
4901784	208	C	03/15/2021	10:49	-135.132	43.128	0	1134.40	0	3.2300	0	37.4510	4	29.829	0	1122.323	0	12.9	4	4.1	4	-1E+10	1	-1E+10	1	-1E+10	1	-1E+10	1	-1E+10	1	-1E+10	1
4901784	208	C	03/15/2021	10:49	-135.132	43.128	0	1139.70	0	3.2220	0	37.4520	4	29.830	0	1127.552	0	12.9	4	4.1	4	-1E+10	1	-1E+10	1	-1E+10	1	-1E+10	1	-1E+10	1	-1E+10	1
4901784	208	C	03/15/2021	10:49	-135.132	43.128	0	1144.90	0	3.2120	0	37.4540	4	29.833	0	1132.683	0	12.9	4	4.1	4	-1E+10	1	-1E+10	1	-1E+10	1	-1E+10	1	-1E+10	1	-1E+10	1
4901784	208	C	03/15/2021	10:49	-135.132	43.128	0	1150.10	0	3.2050	0	37.4550	4	29.835	0	1137.813	0	13.0	4	4.1	4	-1E+10	1	-1E+10	1	-1E+10	1	-1E+10	1	-1E+10	1	-1E+10	1
4901784	208	C	03/15/2021	10:49	-135.132	43.128	0	1155.50	0	3.1990	0	37.4570	4	29.837	0	1143.141	0	13.1	4	4.1	4	-1E+10	1	-1E+10	1	-1E+10	1	-1E+10	1	-1E+10	1	-1E+10	1
4901784	208	C	03/15/2021	10:49	-135.132	43.128	0	1159.90	0	3.1980	0	37.4580	4	29.838	0	1147.482	0	13.1	4	4.2	4	-1E+10	1	-1E+10	1	-1E+10	1	-1E+10	1	-1E+10	1	-1E+10	1
4901784	208	C	03/15/2021	10:49	-135.132	43.128	0	1164.40	0	3.1920	0	37.4580	4	29.838	0	1151.922	0	13.2	4	4.2	4	-1E+10	1	-1E+10	1	-1E+10	1	-1E+10	1	-1E+10	1	-1E+10	1
4901784	208	C	03/15/2021	10:49	-135.132	43.128	0	1169.80	0	3.1810	0	37.4620	4	29.843	0	1157.249	0	13.4	4	4.2	4	-1E+10	1	-1E+10	1	-1E+10	1	-1E+10	1	-1E+10	1	-1E+10	1
4901784	208	C	03/15/2021	10:49	-135.132	43.128	0	1175.30	0	3.1740	0	37.4640	4	29.845	0	1162.675	0	13.5	4	4.3	4	-1E+10	1	-1E+10	1	-1E+10	1	-1E+10	1	-1E+10	1	-1E+10	1
4901784	208	C	03/15/2021	10:49	-135.132	43.128	0	1180.00	0	3.1650	0	37.4660	4	29.848	0	1167.311	0	13.6	4	4.3	4	-1E+10	1	-1E+10	1	-1E+10	1	-1E+10	1	-1E+10	1	-1E+10	1
4901784	208	C	03/15/2021	10:49	-135.132	43.128	0	1184.60	0	3.1470	0	37.4680	4	29.851	0	1171.849	0	13.7	4	4.3	4	-1E+10	1	-1E+10	1	-1E+10	1	-1E+10	1	-1E+10	1	-1E+10	1
4901784	208	C	03/15/2021	10:49	-135.132	43.128	0	1190.00	0	3.1350	0	37.4700	4	29.854	0	1177.175	0	13.8	4	4.4	4	-1E+10	1	-1E+10	1	-1E+10	1	-1E+10	1	-1E+10	1	-1E+10	1
4901784	208	C	03/15/2021	10:49	-135.132	43.128	0	1195.60	0	3.1260	0	37.4720	4	29.856	0	1182.699	0	14.1	4	4.5	4	-1E+10	1	-1E+10	1	-1E+10	1	-1E+10	1	-1E+10	1	-1E+10	1
4901784	208	C	03/15/2021	10:49	-135.132	43.128	0	1200.20	0	3.1120	0	37.4750	4	29.860	0	1187.237	0	14.3	4	4.5	4	-1E+10	1	-1E+10	1	-1E+10	1	-1E+10	1	-1E+10	1	-1E+10	1
4901784	208	C	03/15/2021	10:49	-135.132	43.128	0	1204.80	0	3.1060	0	37.4770	4	29.862	0	1191.774	0	14.5	4	4.6	4	-1E+10	1	-1E+10	1	-1E+10	1	-1E+10	1	-1E+10	1	-1E+10	1
4901784	208	C	03/15/2021	10:49	-135.132	43.128	0	1210.30	0	3.0980	0	37.4800	4	29.866	0	1197.199	0	14.7	4	4.6	4	-1E+10	1	-1E+10	1	-1E+10	1	-1E+10	1	-1E+10	1	-1E+10	1
4901784	208	C	03/15/2021	10:49	-135.132	43.128	0	1214.80	0	3.0930	0	37.4820	4	29.868	0	1201.637	0	14.8	4	4.7	4	-1E+10	1	-1E+10	1	-1E+10	1	-1E+10	1	-1E+10	1	-1E+10	1
4901784	208	C	03/15/2021	10:49	-135.132	43.128	0	1219.40	0	3.0760	0	37.4830	4	29.870	0	1206.174	0	14.8	4	4.7	4	-1E+10	1	-1E+10	1	-1E+10	1	-1E+10	1	-1E+10	1	-1E+10	1
4901784	208	C	03/15/2021	10:49	-135.132	43.128	0	1225.00	0	3.0590	0	37.4860	4	29.874	0	1211.698	0	15.0	4	4.8	4	-1E+10	1	-1E+10	1	-1E+10	1	-1E+10	1	-1E+10	1	-1E+10	1
4901784	208	C	03/15/2021	10:49	-135.132	43.128	0	1229.70	0	3.0520	0	37.4880	4	29.877	0	1216.333	0	15.2	4	4.8	4	-1E+10	1	-1E+10	1	-1E+10	1	-1E+10	1	-1E+10	1	-1E+10	1
4901784	208	C	03/15/2021	10:49	-135.132	43.128	0	1234.40	0	3.0460	0	37.4890	4	29.878	0	1220.968	0	15.3	4	4.8	4	-1E+10	1	-1E+10	1	-1E+10	1	-1E+10	1	-1E+10	1	-1E+10	1
4901784	208	C	03/15/2021	10:49	-135.132	43.128	0	1239.90	0	3.0310	0	37.4920	4	29.882	0	1226.392	0	15.5	4	4.9	4	-1E+10	1	-1E+10	1	-1E+10	1	-1E+10	1	-1E+10	1	-1E+10	1
4901784	208	C	03/15/2021	10:49	-135.132	43.128	0	1245.40	0	3.0230	0	37.4940	4	29.885	0	1231.816	0	15.7	4	5.0	4	-1E+10	1	-1E+10	1	-1E+10	1	-1E+10	1	-1E+10	1	-1E+10	1
4901784	208	C	03/15/2021	10:49	-135.132	43.128	0	1250.40	0	3.0150	0	37.4960	4	29.887	0	1236.747	0	15.9	4	5.0	4	-1E+10	1	-1E+10	1	-1E+10	1	-1E+10	1	-1E+10	1	-1E+10	1
4901784	208	C	03/15/2021	10:49	-135.132	43.128	0	1255.50	0	3.0060	0	37.4980	4	29.890	0	1241.776	0	16.0	4	5.1	4	-1E+10	1	-1E+10	1	-1E+10	1	-1E+10	1	-1E+10	1	-1E+10	1
4901784	208	C	03/15/2021	10:49	-135.132	43.128	0	1260.50	0	2.9940	0	37.5000	4	29.892	0	1246.707	0	16.1	4	5.1	4	-1E+10	1	-1E+10	1	-1E+10	1	-1E+10	1	-1E+10	1	-1E+10	1
4901784	208	C	03/15/2021	10:49	-135.132	43.128	0	1265.50	0	2.9840	0	37.5020	4	29.895	0	1251.637	0	16.3	4	5.1	4	-1E+10	1	-1E+10	1	-1E+10	1	-1E+10	1	-1E+10	1	-1E+10	1
4901784	208	C	03/15/2021	10:49	-135.132	43.128	0	1270.50	0	2.9770	0	37.5030	4	29.896	0	1256.568	0	16.4	4	5.2	4	-1E+10	1	-1E+10	1	-1E+10	1	-1E+10	1	-1E+10	1	-1E+10	1
4901784	208	C	03/15/2021	10:49	-135.132	43.128	0	1275.50	0	2.9690	0	37.5050	4	29.899	0	1261.498	0	16.6	4	5.2	4	-1E+10	1	-1E+10	1	-1E+10	1	-1E+10	1	-1E+10	1	-1E+10	1
4901784	208	C	03/15/2021	10:49	-135.132	43.128	0	1280.60	0	2.9620	0	37.5070	4	29.901	0	1266.527	0	16.8	4	5.3	4	-1E+10	1	-1E+10	1	-1E+10	1	-1E+10	1	-1E+10	1	-1E+10	1
4901784	208	C	03/15/2021	10:49	-135.132	43.128	0	1285.70	0	2.9420	0	37.5090	4	29.905	0	1271.555	0	16.7	4	5.3	4	-1E+10	1	-1E+10	1	-1E+10	1	-1E+10	1	-1E+10	1	-1E+10	1
4901784	208	C	03/15/2021	10:49	-135.132	43.128	0	1290.00	0	2.9350	0	37.5100	4	29.906	0	1275.795	0	16.8	4	5.3	4	-1E+10	1	-1E+10	1	-1E+10	1	-1E+10	1	-1E+10	1	-1E+10	1
4901784	208	C	03/15/2021	10:49	-135.132	43.128	0	1294.20	0	2.9270	0	37.5110	4	29.908	0	1279.936	0	16.9	4	5.3	4	-1E+10	1	-1E+10	1	-1E+10	1	-1E+10	1	-1E+10	1	-1E+10	1
4901784	208	C	03/15/2021	10:49	-135.132	43.128	0	1299.40	0	2.9180	0	37.5130	4	29.910	0	1285.063	0	17.0	4	5.4	4	-1E+10	1	-1E+10	1	-1E+10	1	-1E+10	1	-1E+10	1	-1E+10	1
4901784	208	C	03/15/2021	10:49	-135.132	43.128	0	1304.50	0	2.9080	0	37.5150	4	29.913	0	1290.091	0	17.1	4	5.4	4	-1E+10	1	-1E+10	1	-1E+10	1	-1E+10	1	-1E+10	1	-1E+10	1
4901784	208	C	03/15/2021	10:49	-135.132	43.128	0	1309.70	0	2.9030	0	37.5150	4	29.914	0	1295.217	0	17.3	4	5.5	4	-1E+10	1	-1E+10	1	-1E+10	1	-1E+10	1	-1E+10	1	-1E+10	1
4901784	208	C	03/15/2021	10:49	-135.132	43.128	0	1314.80	0	2.8910	0	37.5180	4	29.917	0	1300.245	0	17.4	4	5.5	4	-1E+10	1	-1E+10	1	-1E+10	1	-1E+10	1	-1E+10	1	-1E+10	1
4901784	208	C	03/15/2021	10:49	-135.132	43.128	0	1320.00	0	2.8840	0	37.5190	4	29.919	0	1305.372	0	17.6	4	5.5	4	-1E+10	1	-1E+10	1	-1E+10	1	-1E+10	1	-1E+10	1	-1E+10	1
4901784	208	C	03/15/2021	10:49	-135.132	43.128	0	1325.20	0	2.8720	0	37.5210	4	29.921	0	1310.498	0	17.7	4	5.6	4	-1E+10	1	-1E+10	1	-1E+10	1	-1E+10	1	-1E+10	1	-1E+10	1
4901784	208	C	03/15/2021	10:49	-135.132	43.128	0	1330.30	0	2.8650	0	37.5220	4	29.923	0	1315.525	0	17.9	4	5.6	4	-1E+10	1	-1E+10	1	-1E+10	1	-1E+10	1	-1E+10	1	-1E+10	1
4901784	208	C	03/15/2021	10:49	-135.132	43.128	0	1335.60	0	2.8550	0	37.5240	4	29.926	0	1320.750	0	18.0	4	5.7	4	-1E+10	1	-1E+10	1	-1E+10	1	-1E+10	1	-1E+10	1	-1E+10	1
4901784	208	C	03/15/2021	10:49	-135.132	43.128	0	1340.00	0	2.8470	0	37.5260	4	29.928	0	1325.087	0	18.1	4	5.7	4	-1E+10	1	-1E+10	1	-1E+10	1	-1E+10	1	-1E+10	1	-1E+10	1
4901784	208	C	03/15/2021	10:49	-135.132	43.128	0	1344.40	0	2.8430	0	37.5270	4	29.929	0	1329.424	0	18.2	4	5.7	4	-1E+10	1	-1E+10	1	-1E+10	1	-1E+10	1	-1E+10	1	-1E+10	1
4901784	208	C	03/15/2021	10:49	-135.132	43.128	0	1349.80	0	2.8400	0	37.5270	4	29.930	0	1334.747	0	18.3	4	5.8	4	-1E+10	1	-1E+10	1	-1E+10	1	-1E+10	1	-1E+10	1	-1E+10	1
4901784	208	C	03/15/2021	10:49	-135.132	43.128	0	1355.10	0	2.8310	0	37.5280	4	29.931	0	1339.971	0	18.6	4	5.9	4	-1E+10	1	-1E+10	1	-1E+10	1	-1E+10	1	-1E+10	1	-1E+10	1
4901784	208	C	03/15/2021	10:49	-135.132	43.128	0	1360.30	0	2.8160	0	37.5310	4	29.935	0	1345.096	0	19.0	4	6.0	4	-1E+10	1	-1E+10	1	-1E+10	1	-1E+10	1	-1E+10	1	-1E+10	1
4901784	208	C	03/15/2021	10:49	-135.132	43.128	0	1365.70	0	2.7980	0	37.5350	4	29.940	0	1350.419	0	19.4	4	6.1	4	-1E+10	1	-1E+10	1	-1E+10	1	-1E+10	1	-1E+10	1	-1E+10	1
4901784	208	C	03/15/2021	10:49	-135.132	43.128	0	1370.10	0	2.7910	0	37.5370	4	29.942	0	1354.755	0	19.5	4	6.1	4	-1E+10	1	-1E+10	1	-1E+10	1	-1E+10	1	-1E+10	1	-1E+10	1
4901784	208	C	03/15/2021	10:49	-135.132	43.128	0	1374.60	0	2.7880	0	37.5380	4	29.944	0	1359.190	0	19.6	4	6.2	4	-1E+10	1	-1E+10	1	-1E+10	1	-1E+10	1	-1E+10	1	-1E+10	1
4901784	208	C	03/15/2021	10:49	-135.132	43.128	0	1380.00	0	2.7860	0	37.5390	4	29.945	0	1364.512	0	19.8	4	6.2	4	-1E+10	1	-1E+10	1	-1E+10	1	-1E+10	1	-1E+10	1	-1E+10	1
4901784	208	C	03/15/2021	10:49	-135.132	43.128	0	1385.40	0	2.7790	0	37.5400	4	29.946	0	1369.834	0	20.0	4	6.3	4	-1E+10	1	-1E+10	1	-1E+10	1	-1E+10	1	-1E+10	1	-1E+10	1
4901784	208	C	03/15/2021	10:49	-135.132	43.128	0	1389.90	0	2.7690	0	37.5420	4	29.949	0	1374.269	0	20.2	4	6.3	4	-1E+10	1	-1E+10	1	-1E+10	1	-1E+10	1	-1E+10	1	-1E+10	1
4901784	208	C	03/15/2021	10:49	-135.132	43.128	0	1394.50	0	2.7620	0	37.5430	4	29.950	0	1378.802	0	20.4	4	6.4	4	-1E+10	1	-1E+10	1	-1E+10	1	-1E+10	1	-1E+10	1	-1E+10	1
4901784	208	C	03/15/2021	10:49	-135.132	43.128	0	1400.00	0	2.7560	0	37.5450	4	29.952	0	1384.222	0	20.6	4	6.5	4	-1E+10	1	-1E+10	1	-1E+10	1	-1E+10	1	-1E+10	1	-1E+10	1
4901784	208	C	03/15/2021	10:49	-135.132	43.128	0	1405.50	0	2.7470	0	37.5460	4	29.954	0	1389.642	0	20.9	4	6.6	4	-1E+10	1	-1E+10	1	-1E+10	1	-1E+10	1	-1E+10	1	-1E+10	1
4901784	208	C	03/15/2021	10:49	-135.132	43.128	0	1410.10	0	2.7360	0	37.5480	4	29.957	0	1394.175	0	21.1	4	6.6	4	-1E+10	1	-1E+10	1	-1E+10	1	-1E+10	1	-1E+10	1	-1E+10	1
4901784	208	C	03/15/2021	10:49	-135.132	43.128	0	1414.70	0	2.7240	0	37.5500	4	29.960	0	1398.708	0	21.4	4	6.7	4	-1E+10	1	-1E+10	1	-1E+10	1	-1E+10	1	-1E+10	1	-1E+10	1
4901784	208	C	03/15/2021	10:49	-135.132	43.128	0	1420.30	0	2.7120	0	37.5520	4	29.962	0	1404.226	0	21.8	4	6.8	4	-1E+10	1	-1E+10	1	-1E+10	1	-1E+10	1	-1E+10	1	-1E+10	1
4901784	208	C	03/15/2021	10:49	-135.132	43.128	0	1424.80	0	2.6970	0	37.5550	4	29.966	0	1408.660	0	22.1	4	6.9	4	-1E+10	1	-1E+10	1	-1E+10	1	-1E+10	1	-1E+10	1	-1E+10	1
4901784	208	C	03/15/2021	10:49	-135.132	43.128	0	1429.50	0	2.6870	0	37.5570	4	29.969	0	1413.291	0	22.4	4	7.0	4	-1E+10	1	-1E+10	1	-1E+10	1	-1E+10	1	-1E+10	1	-1E+10	1
4901784	208	C	03/15/2021	10:49	-135.132	43.128	0	1435.00	0	2.6770	0	37.5580	4	29.971	0	1418.710	0	22.8	4	7.1	4	-1E+10	1	-1E+10	1	-1E+10	1	-1E+10	1	-1E+10	1	-1E+10	1
4901784	208	C	03/15/2021	10:49	-135.132	43.128	0	1440.60	0	2.6640	0	37.5610	4	29.974	0	1424.228	0	23.2	4	7.3	4	-1E+10	1	-1E+10	1	-1E+10	1	-1E+10	1	-1E+10	1	-1E+10	1
4901784	208	C	03/15/2021	10:49	-135.132	43.128	0	1445.30	0	2.6500	0	37.5630	4	29.977	0	1428.859	0	23.6	4	7.4	4	-1E+10	1	-1E+10	1	-1E+10	1	-1E+10	1	-1E+10	1	-1E+10	1
4901784	208	C	03/15/2021	10:49	-135.132	43.128	0	1449.90	0	2.6380	0	37.5660	4	29.981	0	1433.391	0	23.8	4	7.5	4	-1E+10	1	-1E+10	1	-1E+10	1	-1E+10	1	-1E+10	1	-1E+10	1
4901784	208	C	03/15/2021	10:49	-135.132	43.128	0	1454.80	0	2.6290	0	37.5680	4	29.983	0	1438.218	0	24.1	4	7.6	4	-1E+10	1	-1E+10	1	-1E+10	1	-1E+10	1	-1E+10	1	-1E+10	1
4901784	208	C	03/15/2021	10:49	-135.132	43.128	0	1459.80	0	2.6230	0	37.5690	4	29.985	0	1443.144	0	24.3	4	7.6	4	-1E+10	1	-1E+10	1	-1E+10	1	-1E+10	1	-1E+10	1	-1E+10	1
4901784	208	C	03/15/2021	10:49	-135.132	43.128	0	1464.70	0	2.6170	0	37.5700	4	29.986	0	1447.971	0	24.5	4	7.7	4	-1E+10	1	-1E+10	1	-1E+10	1	-1E+10	1	-1E+10	1	-1E+10	1
4901784	208	C	03/15/2021	10:49	-135.132	43.128	0	1469.60	0	2.6120	0	37.5720	4	29.988	0	1452.799	0	24.7	4	7.7	4	-1E+10	1	-1E+10	1	-1E+10	1	-1E+10	1	-1E+10	1	-1E+10	1
4901784	208	C	03/15/2021	10:49	-135.132	43.128	0	1474.60	0	2.6080	0	37.5720	4	29.988	0	1457.724	0	24.9	4	7.8	4	-1E+10	1	-1E+10	1	-1E+10	1	-1E+10	1	-1E+10	1	-1E+10	1
4901784	208	C	03/15/2021	10:49	-135.132	43.128	0	1479.60	0	2.5980	0	37.5740	4	29.991	0	1462.650	0	25.3	4	7.9	4	-1E+10	1	-1E+10	1	-1E+10	1	-1E+10	1	-1E+10	1	-1E+10	1
4901784	208	C	03/15/2021	10:49	-135.132	43.128	0	1484.70	0	2.5870	0	37.5770	4	29.995	0	1467.674	0	25.7	4	8.0	4	-1E+10	1	-1E+10	1	-1E+10	1	-1E+10	1	-1E+10	1	-1E+10	1
4901784	208	C	03/15/2021	10:49	-135.132	43.128	0	1489.70	0	2.5770	0	37.5790	4	29.997	0	1472.599	0	26.0	4	8.1	4	-1E+10	1	-1E+10	1	-1E+10	1	-1E+10	1	-1E+10	1	-1E+10	1
4901784	208	C	03/15/2021	10:49	-135.132	43.128	0	1494.90	0	2.5680	0	37.5800	4	29.999	0	1477.721	0	26.3	4	8.2	4	-1E+10	1	-1E+10	1	-1E+10	1	-1E+10	1	-1E+10	1	-1E+10	1
4901784	208	C	03/15/2021	10:49	-135.132	43.128	0	1500.00	0	2.5560	0	37.5830	4	30.002	0	1482.745	0	26.6	4	8.3	4	-1E+10	1	-1E+10	1	-1E+10	1	-1E+10	1	-1E+10	1	-1E+10	1
4901784	208	C	03/15/2021	10:49	-135.132	43.128	0	1505.20	0	2.5500	0	37.5840	4	30.004	0	1487.866	0	26.8	4	8.4	4	-1E+10	1	-1E+10	1	-1E+10	1	-1E+10	1	-1E+10	1	-1E+10	1
4901784	208	C	03/15/2021	10:49	-135.132	43.128	0	1510.40	0	2.5470	0	37.5840	4	30.004	0	1492.988	0	27.0	4	8.4	4	-1E+10	1	-1E+10	1	-1E+10	1	-1E+10	1	-1E+10	1	-1E+10	1
4901784	208	C	03/15/2021	10:49	-135.132	43.128	0	1515.60	0	2.5400	0	37.5860	4	30.006	0	1498.110	0	27.4	4	8.6	4	-1E+10	1	-1E+10	1	-1E+10	1	-1E+10	1	-1E+10	1	-1E+10	1
4901784	208	C	03/15/2021	10:49	-135.132	43.128	0	1520.00	0	2.5340	0	37.5870	4	30.008	0	1502.443	0	27.7	4	8.7	4	-1E+10	1	-1E+10	1	-1E+10	1	-1E+10	1	-1E+10	1	-1E+10	1
4901784	208	C	03/15/2021	10:49	-135.132	43.128	0	1524.30	0	2.5200	0	37.5890	4	30.011	0	1506.678	0	28.1	4	8.8	4	-1E+10	1	-1E+10	1	-1E+10	1	-1E+10	1	-1E+10	1	-1E+10	1
4901784	208	C	03/15/2021	10:49	-135.132	43.128	0	1529.60	0	2.5090	0	37.5910	4	30.013	0	1511.898	0	28.3	4	8.9	4	-1E+10	1	-1E+10	1	-1E+10	1	-1E+10	1	-1E+10	1	-1E+10	1
4901784	208	C	03/15/2021	10:49	-135.132	43.128	0	1535.00	0	2.5040	0	37.5920	4	30.015	0	1517.216	0	28.6	4	8.9	4	-1E+10	1	-1E+10	1	-1E+10	1	-1E+10	1	-1E+10	1	-1E+10	1
4901784	208	C	03/15/2021	10:49	-135.132	43.128	0	1540.50	0	2.4920	0	37.5940	4	30.017	0	1522.633	0	28.9	4	9.0	4	-1E+10	1	-1E+10	1	-1E+10	1	-1E+10	1	-1E+10	1	-1E+10	1
4901784	208	C	03/15/2021	10:49	-135.132	43.128	0	1545.00	0	2.4860	0	37.5960	4	30.020	0	1527.064	0	29.1	4	9.1	4	-1E+10	1	-1E+10	1	-1E+10	1	-1E+10	1	-1E+10	1	-1E+10	1
4901784	208	C	03/15/2021	10:49	-135.132	43.128	0	1549.60	0	2.4760	0	37.5970	4	30.021	0	1531.594	0	29.4	4	9.2	4	-1E+10	1	-1E+10	1	-1E+10	1	-1E+10	1	-1E+10	1	-1E+10	1
4901784	208	C	03/15/2021	10:49	-135.132	43.128	0	1555.00	0	2.4690	0	37.5980	4	30.023	0	1536.912	0	29.7	4	9.3	4	-1E+10	1	-1E+10	1	-1E+10	1	-1E+10	1	-1E+10	1	-1E+10	1
4901784	208	C	03/15/2021	10:49	-135.132	43.128	0	1560.40	0	2.4590	0	37.6000	4	30.025	0	1542.230	0	30.0	4	9.4	4	-1E+10	1	-1E+10	1	-1E+10	1	-1E+10	1	-1E+10	1	-1E+10	1
4901784	208	C	03/15/2021	10:49	-135.132	43.128	0	1565.00	0	2.4530	0	37.6020	4	30.027	0	1546.759	0	30.3	4	9.5	4	-1E+10	1	-1E+10	1	-1E+10	1	-1E+10	1	-1E+10	1	-1E+10	1
4901784	208	C	03/15/2021	10:49	-135.132	43.128	0	1569.80	0	2.4470	0	37.6030	4	30.029	0	1551.486	0	30.6	4	9.5	4	-1E+10	1	-1E+10	1	-1E+10	1	-1E+10	1	-1E+10	1	-1E+10	1
4901784	208	C	03/15/2021	10:49	-135.132	43.128	0	1575.00	0	2.4370	0	37.6040	4	30.031	0	1556.606	0	31.0	4	9.7	4	-1E+10	1	-1E+10	1	-1E+10	1	-1E+10	1	-1E+10	1	-1E+10	1
4901784	208	C	03/15/2021	10:49	-135.132	43.128	0	1579.80	0	2.4270	0	37.6060	4	30.033	0	1561.332	0	31.4	4	9.8	4	-1E+10	1	-1E+10	1	-1E+10	1	-1E+10	1	-1E+10	1	-1E+10	1
4901784	208	C	03/15/2021	10:49	-135.132	43.128	0	1584.70	0	2.4170	0	37.6080	4	30.036	0	1566.157	0	31.7	4	9.9	4	-1E+10	1	-1E+10	1	-1E+10	1	-1E+10	1	-1E+10	1	-1E+10	1
4901784	208	C	03/15/2021	10:49	-135.132	43.128	0	1589.50	0	2.4090	0	37.6090	4	30.037	0	1570.883	0	31.9	4	10.0	4	-1E+10	1	-1E+10	1	-1E+10	1	-1E+10	1	-1E+10	1	-1E+10	1
4901784	208	C	03/15/2021	10:49	-135.132	43.128	0	1594.50	0	2.4040	0	37.6110	4	30.039	0	1575.806	0	32.2	4	10.0	4	-1E+10	1	-1E+10	1	-1E+10	1	-1E+10	1	-1E+10	1	-1E+10	1
4901784	208	C	03/15/2021	10:49	-135.132	43.128	0	1599.40	0	2.4000	0	37.6120	4	30.041	0	1580.630	0	32.4	4	10.1	4	-1E+10	1	-1E+10	1	-1E+10	1	-1E+10	1	-1E+10	1	-1E+10	1
4901784	208	C	03/15/2021	10:49	-135.132	43.128	0	1604.30	0	2.3930	0	37.6130	4	30.042	0	1585.454	0	32.7	4	10.2	4	-1E+10	1	-1E+10	1	-1E+10	1	-1E+10	1	-1E+10	1	-1E+10	1
4901784	208	C	03/15/2021	10:49	-135.132	43.128	0	1609.30	0	2.3850	0	37.6140	4	30.044	0	1590.377	0	33.2	4	10.3	4	-1E+10	1	-1E+10	1	-1E+10	1	-1E+10	1	-1E+10	1	-1E+10	1
4901784	208	C	03/15/2021	10:49	-135.132	43.128	0	1614.30	0	2.3740	0	37.6160	4	30.046	0	1595.299	0	33.5	4	10.4	4	-1E+10	1	-1E+10	1	-1E+10	1	-1E+10	1	-1E+10	1	-1E+10	1
4901784	208	C	03/15/2021	10:49	-135.132	43.128	0	1619.30	0	2.3670	0	37.6180	4	30.049	0	1600.221	0	33.9	4	10.5	4	-1E+10	1	-1E+10	1	-1E+10	1	-1E+10	1	-1E+10	1	-1E+10	1
4901784	208	C	03/15/2021	10:49	-135.132	43.128	0	1624.30	0	2.3590	0	37.6190	4	30.050	0	1605.143	0	34.3	4	10.7	4	-1E+10	1	-1E+10	1	-1E+10	1	-1E+10	1	-1E+10	1	-1E+10	1
4901784	208	C	03/15/2021	10:49	-135.132	43.128	0	1629.30	0	2.3500	0	37.6200	4	30.052	0	1610.065	0	34.7	4	10.8	4	-1E+10	1	-1E+10	1	-1E+10	1	-1E+10	1	-1E+10	1	-1E+10	1
4901784	208	C	03/15/2021	10:49	-135.132	43.128	0	1634.40	0	2.3380	0	37.6230	4	30.055	0	1615.086	0	35.1	4	10.9	4	-1E+10	1	-1E+10	1	-1E+10	1	-1E+10	1	-1E+10	1	-1E+10	1
4901784	208	C	03/15/2021	10:49	-135.132	43.128	0	1639.50	0	2.3320	0	37.6240	4	30.057	0	1620.106	0	35.4	4	11.0	4	-1E+10	1	-1E+10	1	-1E+10	1	-1E+10	1	-1E+10	1	-1E+10	1
4901784	208	C	03/15/2021	10:49	-135.132	43.128	0	1644.60	0	2.3240	0	37.6260	4	30.059	0	1625.126	0	35.7	4	11.1	4	-1E+10	1	-1E+10	1	-1E+10	1	-1E+10	1	-1E+10	1	-1E+10	1
4901784	208	C	03/15/2021	10:49	-135.132	43.128	0	1649.70	0	2.3210	0	37.6270	4	30.060	0	1630.146	0	35.9	4	11.2	4	-1E+10	1	-1E+10	1	-1E+10	1	-1E+10	1	-1E+10	1	-1E+10	1
4901784	208	C	03/15/2021	10:49	-135.132	43.128	0	1654.80	0	2.3170	0	37.6280	4	30.061	0	1635.166	0	36.0	4	11.2	4	-1E+10	1	-1E+10	1	-1E+10	1	-1E+10	1	-1E+10	1	-1E+10	1
4901784	208	C	03/15/2021	10:49	-135.132	43.128	0	1659.90	0	2.3150	0	37.6290	4	30.062	0	1640.186	0	36.2	4	11.3	4	-1E+10	1	-1E+10	1	-1E+10	1	-1E+10	1	-1E+10	1	-1E+10	1
4901784	208	C	03/15/2021	10:49	-135.132	43.128	0	1665.10	0	2.3130	0	37.6290	4	30.063	0	1645.304	0	36.4	4	11.3	4	-1E+10	1	-1E+10	1	-1E+10	1	-1E+10	1	-1E+10	1	-1E+10	1
4901784	208	C	03/15/2021	10:49	-135.132	43.128	0	1670.30	0	2.3080	0	37.6300	4	30.064	0	1650.422	0	36.9	4	11.5	4	-1E+10	1	-1E+10	1	-1E+10	1	-1E+10	1	-1E+10	1	-1E+10	1
4901784	208	C	03/15/2021	10:49	-135.132	43.128	0	1675.60	0	2.2930	0	37.6320	4	30.067	0	1655.638	0	37.5	4	11.6	4	-1E+10	1	-1E+10	1	-1E+10	1	-1E+10	1	-1E+10	1	-1E+10	1
4901784	208	C	03/15/2021	10:49	-135.132	43.128	0	1680.00	0	2.2830	0	37.6340	4	30.069	0	1659.968	0	37.8	4	11.7	4	-1E+10	1	-1E+10	1	-1E+10	1	-1E+10	1	-1E+10	1	-1E+10	1
4901784	208	C	03/15/2021	10:49	-135.132	43.128	0	1684.40	0	2.2800	0	37.6340	4	30.070	0	1664.299	0	38.1	4	11.8	4	-1E+10	1	-1E+10	1	-1E+10	1	-1E+10	1	-1E+10	1	-1E+10	1
4901784	208	C	03/15/2021	10:49	-135.132	43.128	0	1689.70	0	2.2690	0	37.6360	4	30.072	0	1669.514	0	38.5	4	12.0	4	-1E+10	1	-1E+10	1	-1E+10	1	-1E+10	1	-1E+10	1	-1E+10	1
4901784	208	C	03/15/2021	10:49	-135.132	43.128	0	1695.00	0	2.2600	0	37.6380	4	30.075	0	1674.730	0	38.9	4	12.1	4	-1E+10	1	-1E+10	1	-1E+10	1	-1E+10	1	-1E+10	1	-1E+10	1
4901784	208	C	03/15/2021	10:49	-135.132	43.128	0	1700.40	0	2.2520	0	37.6400	4	30.077	0	1680.044	0	39.2	4	12.2	4	-1E+10	1	-1E+10	1	-1E+10	1	-1E+10	1	-1E+10	1	-1E+10	1
4901784	208	C	03/15/2021	10:49	-135.132	43.128	0	1704.80	0	2.2480	0	37.6410	4	30.078	0	1684.374	0	39.5	4	12.3	4	-1E+10	1	-1E+10	1	-1E+10	1	-1E+10	1	-1E+10	1	-1E+10	1
4901784	208	C	03/15/2021	10:49	-135.132	43.128	0	1709.30	0	2.2450	0	37.6410	4	30.079	0	1688.802	0	39.7	4	12.3	4	-1E+10	1	-1E+10	1	-1E+10	1	-1E+10	1	-1E+10	1	-1E+10	1
4901784	208	C	03/15/2021	10:49	-135.132	43.128	0	1714.60	0	2.2350	0	37.6430	4	30.081	0	1694.018	0	40.1	4	12.5	4	-1E+10	1	-1E+10	1	-1E+10	1	-1E+10	1	-1E+10	1	-1E+10	1
4901784	208	C	03/15/2021	10:49	-135.132	43.128	0	1720.00	0	2.2300	0	37.6440	4	30.082	0	1699.331	0	40.4	4	12.5	4	-1E+10	1	-1E+10	1	-1E+10	1	-1E+10	1	-1E+10	1	-1E+10	1
4901784	208	C	03/15/2021	10:49	-135.132	43.128	0	1725.40	0	2.2250	0	37.6450	4	30.084	0	1704.645	0	40.6	4	12.6	4	-1E+10	1	-1E+10	1	-1E+10	1	-1E+10	1	-1E+10	1	-1E+10	1
4901784	208	C	03/15/2021	10:49	-135.132	43.128	0	1729.90	0	2.2220	0	37.6460	4	30.085	0	1709.072	0	40.9	4	12.7	4	-1E+10	1	-1E+10	1	-1E+10	1	-1E+10	1	-1E+10	1	-1E+10	1
4901784	208	C	03/15/2021	10:49	-135.132	43.128	0	1734.40	0	2.2170	0	37.6460	4	30.085	0	1713.500	0	41.2	4	12.8	4	-1E+10	1	-1E+10	1	-1E+10	1	-1E+10	1	-1E+10	1	-1E+10	1
4901784	208	C	03/15/2021	10:49	-135.132	43.128	0	1739.80	0	2.2040	0	37.6490	4	30.089	0	1718.813	0	41.6	4	12.9	4	-1E+10	1	-1E+10	1	-1E+10	1	-1E+10	1	-1E+10	1	-1E+10	1
4901784	208	C	03/15/2021	10:49	-135.132	43.128	0	1745.20	0	2.2000	0	37.6500	4	30.090	0	1724.126	0	41.9	4	13.0	4	-1E+10	1	-1E+10	1	-1E+10	1	-1E+10	1	-1E+10	1	-1E+10	1
4901784	208	C	03/15/2021	10:49	-135.132	43.128	0	1750.60	0	2.1930	0	37.6510	4	30.091	0	1729.439	0	42.2	4	13.1	4	-1E+10	1	-1E+10	1	-1E+10	1	-1E+10	1	-1E+10	1	-1E+10	1
4901784	208	C	03/15/2021	10:49	-135.132	43.128	0	1755.10	0	2.1870	0	37.6520	4	30.093	0	1733.866	0	42.6	4	13.2	4	-1E+10	1	-1E+10	1	-1E+10	1	-1E+10	1	-1E+10	1	-1E+10	1
4901784	208	C	03/15/2021	10:49	-135.132	43.128	0	1759.60	0	2.1780	0	37.6540	4	30.095	0	1738.293	0	42.9	4	13.3	4	-1E+10	1	-1E+10	1	-1E+10	1	-1E+10	1	-1E+10	1	-1E+10	1
4901784	208	C	03/15/2021	10:49	-135.132	43.128	0	1765.00	0	2.1710	0	37.6550	4	30.097	0	1743.606	0	43.2	4	13.4	4	-1E+10	1	-1E+10	1	-1E+10	1	-1E+10	1	-1E+10	1	-1E+10	1
4901784	208	C	03/15/2021	10:49	-135.132	43.128	0	1770.50	0	2.1670	0	37.6560	4	30.098	0	1749.016	0	43.4	4	13.5	4	-1E+10	1	-1E+10	1	-1E+10	1	-1E+10	1	-1E+10	1	-1E+10	1
4901784	208	C	03/15/2021	10:49	-135.132	43.128	0	1775.00	0	2.1650	0	37.6560	4	30.098	0	1753.443	0	43.7	4	13.5	4	-1E+10	1	-1E+10	1	-1E+10	1	-1E+10	1	-1E+10	1	-1E+10	1
4901784	208	C	03/15/2021	10:49	-135.132	43.128	0	1779.40	0	2.1590	0	37.6570	4	30.099	0	1757.772	0	43.9	4	13.6	4	-1E+10	1	-1E+10	1	-1E+10	1	-1E+10	1	-1E+10	1	-1E+10	1
4901784	208	C	03/15/2021	10:49	-135.132	43.128	0	1784.70	0	2.1510	0	37.6590	4	30.102	0	1762.985	0	44.3	4	13.7	4	-1E+10	1	-1E+10	1	-1E+10	1	-1E+10	1	-1E+10	1	-1E+10	1
4901784	208	C	03/15/2021	10:49	-135.132	43.128	0	1789.50	0	2.1450	0	37.6600	4	30.103	0	1767.707	0	44.6	4	13.8	4	-1E+10	1	-1E+10	1	-1E+10	1	-1E+10	1	-1E+10	1	-1E+10	1
4901784	208	C	03/15/2021	10:49	-135.132	43.128	0	1794.40	0	2.1420	0	37.6600	4	30.103	0	1772.527	0	44.8	4	13.9	4	-1E+10	1	-1E+10	1	-1E+10	1	-1E+10	1	-1E+10	1	-1E+10	1
4901784	208	C	03/15/2021	10:49	-135.132	43.128	0	1800.00	0	2.1320	0	37.6620	4	30.106	0	1778.035	0	45.3	4	14.0	4	-1E+10	1	-1E+10	1	-1E+10	1	-1E+10	1	-1E+10	1	-1E+10	1
4901784	208	C	03/15/2021	10:49	-135.132	43.128	0	1805.60	0	2.1260	0	37.6630	4	30.107	0	1783.543	0	45.6	4	14.1	4	-1E+10	1	-1E+10	1	-1E+10	1	-1E+10	1	-1E+10	1	-1E+10	1
4901784	208	C	03/15/2021	10:49	-135.132	43.128	0	1810.60	0	2.1230	0	37.6640	4	30.108	0	1788.461	0	45.7	4	14.2	4	-1E+10	1	-1E+10	1	-1E+10	1	-1E+10	1	-1E+10	1	-1E+10	1
4901784	208	C	03/15/2021	10:49	-135.132	43.128	0	1815.50	0	2.1200	0	37.6650	4	30.110	0	1793.280	0	46.0	4	14.2	4	-1E+10	1	-1E+10	1	-1E+10	1	-1E+10	1	-1E+10	1	-1E+10	1
4901784	208	C	03/15/2021	10:49	-135.132	43.128	0	1820.50	0	2.1160	0	37.6660	4	30.111	0	1798.198	0	46.3	4	14.3	4	-1E+10	1	-1E+10	1	-1E+10	1	-1E+10	1	-1E+10	1	-1E+10	1
4901784	208	C	03/15/2021	10:49	-135.132	43.128	0	1825.40	0	2.1100	0	37.6670	4	30.112	0	1803.017	0	46.7	4	14.4	4	-1E+10	1	-1E+10	1	-1E+10	1	-1E+10	1	-1E+10	1	-1E+10	1
4901784	208	C	03/15/2021	10:49	-135.132	43.128	0	1830.40	0	2.1050	0	37.6680	4	30.113	0	1807.935	0	47.1	4	14.6	4	-1E+10	1	-1E+10	1	-1E+10	1	-1E+10	1	-1E+10	1	-1E+10	1
4901784	208	C	03/15/2021	10:49	-135.132	43.128	0	1835.40	0	2.0950	0	37.6700	4	30.116	0	1812.852	0	47.5	4	14.7	4	-1E+10	1	-1E+10	1	-1E+10	1	-1E+10	1	-1E+10	1	-1E+10	1
4901784	208	C	03/15/2021	10:49	-135.132	43.128	0	1840.30	0	2.0890	0	37.6710	4	30.117	0	1817.671	0	47.8	4	14.8	4	-1E+10	1	-1E+10	1	-1E+10	1	-1E+10	1	-1E+10	1	-1E+10	1
4901784	208	C	03/15/2021	10:49	-135.132	43.128	0	1845.30	0	2.0820	0	37.6730	4	30.119	0	1822.588	0	48.2	4	14.9	4	-1E+10	1	-1E+10	1	-1E+10	1	-1E+10	1	-1E+10	1	-1E+10	1
4901784	208	C	03/15/2021	10:49	-135.132	43.128	0	1850.30	0	2.0790	0	37.6740	4	30.121	0	1827.505	0	48.3	4	14.9	4	-1E+10	1	-1E+10	1	-1E+10	1	-1E+10	1	-1E+10	1	-1E+10	1
4901784	208	C	03/15/2021	10:49	-135.132	43.128	0	1855.30	0	2.0780	0	37.6740	4	30.121	0	1832.422	0	48.5	4	15.0	4	-1E+10	1	-1E+10	1	-1E+10	1	-1E+10	1	-1E+10	1	-1E+10	1
4901784	208	C	03/15/2021	10:49	-135.132	43.128	0	1860.30	0	2.0740	0	37.6740	4	30.121	0	1837.339	0	49.0	4	15.2	4	-1E+10	1	-1E+10	1	-1E+10	1	-1E+10	1	-1E+10	1	-1E+10	1
4901784	208	C	03/15/2021	10:49	-135.132	43.128	0	1865.30	0	2.0630	0	37.6770	4	30.124	0	1842.255	0	49.5	4	15.3	4	-1E+10	1	-1E+10	1	-1E+10	1	-1E+10	1	-1E+10	1	-1E+10	1
4901784	208	C	03/15/2021	10:49	-135.132	43.128	0	1870.20	0	2.0590	0	37.6780	4	30.126	0	1847.073	0	49.9	4	15.4	4	-1E+10	1	-1E+10	1	-1E+10	1	-1E+10	1	-1E+10	1	-1E+10	1
4901784	208	C	03/15/2021	10:49	-135.132	43.128	0	1875.30	0	2.0530	0	37.6790	4	30.127	0	1852.088	0	50.3	4	15.6	4	-1E+10	1	-1E+10	1	-1E+10	1	-1E+10	1	-1E+10	1	-1E+10	1
4901784	208	C	03/15/2021	10:49	-135.132	43.128	0	1880.50	0	2.0450	0	37.6800	4	30.129	0	1857.201	0	50.7	4	15.7	4	-1E+10	1	-1E+10	1	-1E+10	1	-1E+10	1	-1E+10	1	-1E+10	1
4901784	208	C	03/15/2021	10:49	-135.132	43.128	0	1885.70	0	2.0400	0	37.6810	4	30.130	0	1862.314	0	51.1	4	15.8	4	-1E+10	1	-1E+10	1	-1E+10	1	-1E+10	1	-1E+10	1	-1E+10	1
4901784	208	C	03/15/2021	10:49	-135.132	43.128	0	1890.00	0	2.0340	0	37.6830	4	30.132	0	1866.542	0	51.5	4	15.9	4	-1E+10	1	-1E+10	1	-1E+10	1	-1E+10	1	-1E+10	1	-1E+10	1
4901784	208	C	03/15/2021	10:49	-135.132	43.128	0	1894.30	0	2.0280	0	37.6830	4	30.132	0	1870.770	0	51.8	4	16.0	4	-1E+10	1	-1E+10	1	-1E+10	1	-1E+10	1	-1E+10	1	-1E+10	1
4901784	208	C	03/15/2021	10:49	-135.132	43.128	0	1899.50	0	2.0230	0	37.6850	4	30.135	0	1875.882	0	52.0	4	16.1	4	-1E+10	1	-1E+10	1	-1E+10	1	-1E+10	1	-1E+10	1	-1E+10	1
4901784	208	C	03/15/2021	10:49	-135.132	43.128	0	1904.80	0	2.0190	0	37.6860	4	30.136	0	1881.093	0	52.3	4	16.2	4	-1E+10	1	-1E+10	1	-1E+10	1	-1E+10	1	-1E+10	1	-1E+10	1
4901784	208	C	03/15/2021	10:49	-135.132	43.128	0	1910.10	0	2.0150	0	37.6870	4	30.137	0	1886.303	0	52.6	4	16.2	4	-1E+10	1	-1E+10	1	-1E+10	1	-1E+10	1	-1E+10	1	-1E+10	1
4901784	208	C	03/15/2021	10:49	-135.132	43.128	0	1915.30	0	2.0110	0	37.6880	4	30.138	0	1891.415	0	52.8	4	16.3	4	-1E+10	1	-1E+10	1	-1E+10	1	-1E+10	1	-1E+10	1	-1E+10	1
4901784	208	C	03/15/2021	10:49	-135.132	43.128	0	1920.60	0	2.0090	0	37.6880	4	30.138	0	1896.626	0	52.9	4	16.3	4	-1E+10	1	-1E+10	1	-1E+10	1	-1E+10	1	-1E+10	1	-1E+10	1
4901784	208	C	03/15/2021	10:49	-135.132	43.128	0	1925.00	0	2.0070	0	37.6890	4	30.139	0	1900.951	0	53.1	4	16.4	4	-1E+10	1	-1E+10	1	-1E+10	1	-1E+10	1	-1E+10	1	-1E+10	1
4901784	208	C	03/15/2021	10:49	-135.132	43.128	0	1929.50	0	2.0060	0	37.6890	4	30.139	0	1905.375	0	53.4	4	16.5	4	-1E+10	1	-1E+10	1	-1E+10	1	-1E+10	1	-1E+10	1	-1E+10	1
4901784	208	C	03/15/2021	10:49	-135.132	43.128	0	1934.90	0	1.9990	0	37.6900	4	30.141	0	1910.683	0	53.7	4	16.6	4	-1E+10	1	-1E+10	1	-1E+10	1	-1E+10	1	-1E+10	1	-1E+10	1
4901784	208	C	03/15/2021	10:49	-135.132	43.128	0	1940.30	0	1.9960	0	37.6910	4	30.142	0	1915.991	0	54.0	4	16.7	4	-1E+10	1	-1E+10	1	-1E+10	1	-1E+10	1	-1E+10	1	-1E+10	1
4901784	208	C	03/15/2021	10:49	-135.132	43.128	0	1944.80	0	1.9900	0	37.6920	4	30.143	0	1920.415	0	54.2	4	16.7	4	-1E+10	1	-1E+10	1	-1E+10	1	-1E+10	1	-1E+10	1	-1E+10	1
4901784	208	C	03/15/2021	10:49	-135.132	43.128	0	1949.40	0	1.9880	0	37.6930	4	30.144	0	1924.936	0	54.4	4	16.8	4	-1E+10	1	-1E+10	1	-1E+10	1	-1E+10	1	-1E+10	1	-1E+10	1
4901784	208	C	03/15/2021	10:49	-135.132	43.128	0	1954.80	0	1.9860	0	37.6930	4	30.145	0	1930.244	0	54.6	4	16.9	4	-1E+10	1	-1E+10	1	-1E+10	1	-1E+10	1	-1E+10	1	-1E+10	1
4901784	208	C	03/15/2021	10:49	-135.132	43.128	0	1960.40	0	1.9820	0	37.6940	4	30.146	0	1935.748	0	54.9	4	17.0	4	-1E+10	1	-1E+10	1	-1E+10	1	-1E+10	1	-1E+10	1	-1E+10	1
4901784	208	C	03/15/2021	10:49	-135.132	43.128	0	1964.50	0	1.9780	0	37.6950	4	30.147	0	1939.778	0	55.1	4	17.0	4	-1E+10	1	-1E+10	1	-1E+10	1	-1E+10	1	-1E+10	1	-1E+10	1
4901784	208	C	03/15/2021	10:49	-135.132	43.128	0	1969.40	0	1.9760	0	37.6950	4	30.147	0	1944.594	0	55.4	4	17.1	4	-1E+10	1	-1E+10	1	-1E+10	1	-1E+10	1	-1E+10	1	-1E+10	1
4901784	208	C	03/15/2021	10:49	-135.132	43.128	0	1974.30	0	1.9690	0	37.6970	4	30.149	0	1949.410	0	55.7	4	17.2	4	-1E+10	1	-1E+10	1	-1E+10	1	-1E+10	1	-1E+10	1	-1E+10	1
4901784	208	C	03/15/2021	10:49	-135.132	43.128	0	1979.20	0	1.9650	0	37.6980	4	30.151	0	1954.225	0	55.9	4	17.2	4	-1E+10	1	-1E+10	1	-1E+10	1	-1E+10	1	-1E+10	1	-1E+10	1
4901784	208	C	03/15/2021	10:49	-135.132	43.128	0	1985.00	0	1.9630	0	37.6980	4	30.151	0	1959.926	0	56.1	4	17.3	4	-1E+10	1	-1E+10	1	-1E+10	1	-1E+10	1	-1E+10	1	-1E+10	1
4901784	208	C	03/15/2021	10:49	-135.132	43.128	0	1990.80	0	1.9610	0	37.6990	4	30.152	0	1965.626	0	56.3	4	17.4	4	-1E+10	1	-1E+10	1	-1E+10	1	-1E+10	1	-1E+10	1	-1E+10	1
4901784	208	C	03/15/2021	10:49	-135.132	43.128	0	1995.70	0	1.9580	0	37.6990	4	30.152	0	1970.441	0	56.5	4	17.4	4	-1E+10	1	-1E+10	1	-1E+10	1	-1E+10	1	-1E+10	1	-1E+10	1
4901784	208	C	03/15/2021	10:49	-135.132	43.128	0	2000.80	0	1.9540	0	37.7000	4	30.153	0	1975.453	0	56.7	4	17.5	4	-1E+10	1	-1E+10	1	-1E+10	1	-1E+10	1	-1E+10	1	-1E+10	1
4901784	208	C	03/15/2021	10:49	-135.132	43.128	0	2005.10	0	1.9520	0	37.7010	4	30.154	0	1979.678	0	56.9	4	17.6	4	-1E+10	1	-1E+10	1	-1E+10	1	-1E+10	1	-1E+10	1	-1E+10	1
4901784	208	C	03/15/2021	10:49	-135.132	43.128	0	2010.60	0	1.9470	0	37.7010	4	30.155	0	1985.083	0	57.2	4	17.6	4	-1E+10	1	-1E+10	1	-1E+10	1	-1E+10	1	-1E+10	1	-1E+10	1
4901784	208	C	03/15/2021	10:49	-135.132	43.128	0	2014.90	0	1.9460	0	37.7020	4	30.156	0	1989.308	0	57.4	4	17.7	4	-1E+10	1	-1E+10	1	-1E+10	1	-1E+10	1	-1E+10	1	-1E+10	1
4901784	208	C	03/15/2021	10:49	-135.132	43.128	0	2020.10	0	1.9420	0	37.7030	4	30.157	0	1994.418	0	57.6	4	17.8	4	-1E+10	1	-1E+10	1	-1E+10	1	-1E+10	1	-1E+10	1	-1E+10	1
4901784	208	C	03/15/2021	10:49	-135.132	43.128	0																										
4901784	209	C	03/25/2021	10:49	-135.348	43.072	0	2.20	0	10.3540	0	35.2420	4	27.080	0	2.183	0	262.4	4	96.4	4	-1E+10	1	-1E+10	1	-1E+10	1	-1E+10	1	-1E+10	1	-1E+10	1
4901784	209	C	03/25/2021	10:49	-135.348	43.072	0	3.20	0	10.3540	0	35.2430	4	27.081	0	3.175	0	262.3	4	96.4	4	-1E+10	1	-1E+10	1	-1E+10	1	-1E+10	1	-1E+10	1	-1E+10	1
4901784	209	C	03/25/2021	10:49	-135.348	43.072	0	4.40	0	10.3540	0	35.2430	4	27.081	0	4.365	0	262.2	4	96.4	4	-1E+10	1	-1E+10	1	-1E+10	1	-1E+10	1	-1E+10	1	-1E+10	1
4901784	209	C	03/25/2021	10:49	-135.348	43.072	0	5.70	0	10.3530	0	35.2430	4	27.081	0	5.655	0	262.3	4	96.4	4	-1E+10	1	-1E+10	1	-1E+10	1	-1E+10	1	-1E+10	1	-1E+10	1
4901784	209	C	03/25/2021	10:49	-135.348	43.072	0	7.00	0	10.3550	0	35.2440	4	27.082	0	6.944	0	262.2	4	96.4	4	-1E+10	1	-1E+10	1	-1E+10	1	-1E+10	1	-1E+10	1	-1E+10	1
4901784	209	C	03/25/2021	10:49	-135.348	43.072	0	8.20	0	10.3530	0	35.2440	4	27.082	0	8.135	0	262.1	4	96.3	4	-1E+10	1	-1E+10	1	-1E+10	1	-1E+10	1	-1E+10	1	-1E+10	1
4901784	209	C	03/25/2021	10:49	-135.348	43.072	0	9.60	0	10.3550	0	35.2450	4	27.082	0	9.524	0	262.2	4	96.4	4	-1E+10	1	-1E+10	1	-1E+10	1	-1E+10	1	-1E+10	1	-1E+10	1
4901784	209	C	03/25/2021	10:49	-135.348	43.072	0	11.10	0	10.3560	0	35.2450	4	27.082	0	11.012	0	262.3	4	96.4	4	-1E+10	1	-1E+10	1	-1E+10	1	-1E+10	1	-1E+10	1	-1E+10	1
4901784	209	C	03/25/2021	10:49	-135.348	43.072	0	12.70	0	10.3570	0	35.2460	4	27.083	0	12.599	0	262.1	4	96.3	4	-1E+10	1	-1E+10	1	-1E+10	1	-1E+10	1	-1E+10	1	-1E+10	1
4901784	209	C	03/25/2021	10:49	-135.348	43.072	0	14.40	0	10.3550	0	35.2460	4	27.083	0	14.285	0	262.4	4	96.4	4	-1E+10	1	-1E+10	1	-1E+10	1	-1E+10	1	-1E+10	1	-1E+10	1
4901784	209	C	03/25/2021	10:49	-135.348	43.072	0	16.00	0	10.3560	0	35.2470	4	27.084	0	15.872	0	262.2	4	96.4	4	-1E+10	1	-1E+10	1	-1E+10	1	-1E+10	1	-1E+10	1	-1E+10	1
4901784	209	C	03/25/2021	10:49	-135.348	43.072	0	17.70	0	10.3560	0	35.2470	4	27.084	0	17.559	0	262.1	4	96.4	4	-1E+10	1	-1E+10	1	-1E+10	1	-1E+10	1	-1E+10	1	-1E+10	1
4901784	209	C	03/25/2021	10:49	-135.348	43.072	0	19.40	0	10.3550	0	35.2480	4	27.085	0	19.245	0	262.2	4	96.4	4	-1E+10	1	-1E+10	1	-1E+10	1	-1E+10	1	-1E+10	1	-1E+10	1
4901784	209	C	03/25/2021	10:49	-135.348	43.072	0	21.20	0	10.3610	0	35.2470	4	27.083	0	21.031	0	262.1	4	96.4	4	-1E+10	1	-1E+10	1	-1E+10	1	-1E+10	1	-1E+10	1	-1E+10	1
4901784	209	C	03/25/2021	10:49	-135.348	43.072	0	22.90	0	10.3610	0	35.2490	4	27.085	0	22.717	0	262.2	4	96.4	4	-1E+10	1	-1E+10	1	-1E+10	1	-1E+10	1	-1E+10	1	-1E+10	1
4901784	209	C	03/25/2021	10:49	-135.348	43.072	0	24.60	0	10.3610	0	35.2490	4	27.085	0	24.403	0	262.2	4	96.4	4	-1E+10	1	-1E+10	1	-1E+10	1	-1E+10	1	-1E+10	1	-1E+10	1
4901784	209	C	03/25/2021	10:49	-135.348	43.072	0	26.40	0	10.3620	0	35.2490	4	27.085	0	26.189	0	262.1	4	96.4	4	-1E+10	1	-1E+10	1	-1E+10	1	-1E+10	1	-1E+10	1	-1E+10	1
4901784	209	C	03/25/2021	10:49	-135.348	43.072	0	28.10	0	10.3620	0	35.2500	4	27.085	0	27.875	0	262.1	4	96.4	4	-1E+10	1	-1E+10	1	-1E+10	1	-1E+10	1	-1E+10	1	-1E+10	1
4901784	209	C	03/25/2021	10:49	-135.348	43.072	0	29.80	0	10.3620	0	35.2510	4	27.086	0	29.561	0	262.5	4	96.5	4	-1E+10	1	-1E+10	1	-1E+10	1	-1E+10	1	-1E+10	1	-1E+10	1
4901784	209	C	03/25/2021	10:49	-135.348	43.072	0	31.50	0	10.3620	0	35.2510	4	27.086	0	31.247	0	262.3	4	96.4	4	-1E+10	1	-1E+10	1	-1E+10	1	-1E+10	1	-1E+10	1	-1E+10	1
4901784	209	C	03/25/2021	10:49	-135.348	43.072	0	33.30	0	10.3640	0	35.2510	4	27.086	0	33.033	0	262.6	4	96.6	4	-1E+10	1	-1E+10	1	-1E+10	1	-1E+10	1	-1E+10	1	-1E+10	1
4901784	209	C	03/25/2021	10:49	-135.348	43.072	0	35.20	0	10.3670	0	35.2520	4	27.086	0	34.918	0	262.6	4	96.6	4	-1E+10	1	-1E+10	1	-1E+10	1	-1E+10	1	-1E+10	1	-1E+10	1
4901784	209	C	03/25/2021	10:49	-135.348	43.072	0	37.00	0	10.3710	0	35.2530	4	27.086	0	36.703	0	262.5	4	96.5	4	-1E+10	1	-1E+10	1	-1E+10	1	-1E+10	1	-1E+10	1	-1E+10	1
4901784	209	C	03/25/2021	10:49	-135.348	43.072	0	38.70	0	10.3690	0	35.2530	4	27.087	0	38.389	0	262.5	4	96.5	4	-1E+10	1	-1E+10	1	-1E+10	1	-1E+10	1	-1E+10	1	-1E+10	1
4901784	209	C	03/25/2021	10:49	-135.348	43.072	0	40.30	0	10.3680	0	35.2540	4	27.088	0	39.976	0	262.4	4	96.5	4	-1E+10	1	-1E+10	1	-1E+10	1	-1E+10	1	-1E+10	1	-1E+10	1
4901784	209	C	03/25/2021	10:49	-135.348	43.072	0	42.10	0	10.3670	0	35.2550	4	27.089	0	41.761	0	262.3	4	96.4	4	-1E+10	1	-1E+10	1	-1E+10	1	-1E+10	1	-1E+10	1	-1E+10	1
4901784	209	C	03/25/2021	10:49	-135.348	43.072	0	43.80	0	10.3660	0	35.2550	4	27.089	0	43.448	0	262.2	4	96.4	4	-1E+10	1	-1E+10	1	-1E+10	1	-1E+10	1	-1E+10	1	-1E+10	1
4901784	209	C	03/25/2021	10:49	-135.348	43.072	0	45.50	0	10.3660	0	35.2550	4	27.089	0	45.134	0	262.4	4	96.5	4	-1E+10	1	-1E+10	1	-1E+10	1	-1E+10	1	-1E+10	1	-1E+10	1
4901784	209	C	03/25/2021	10:49	-135.348	43.072	0	47.20	0	10.3670	0	35.2560	4	27.090	0	46.820	0	262.2	4	96.4	4	-1E+10	1	-1E+10	1	-1E+10	1	-1E+10	1	-1E+10	1	-1E+10	1
4901784	209	C	03/25/2021	10:49	-135.348	43.072	0	48.90	0	10.3620	0	35.2570	4	27.091	0	48.506	0	262.1	4	96.4	4	-1E+10	1	-1E+10	1	-1E+10	1	-1E+10	1	-1E+10	1	-1E+10	1
4901784	209	C	03/25/2021	10:49	-135.348	43.072	0	50.60	0	10.3620	0	35.2570	4	27.091	0	50.192	0	262.1	4	96.4	4	-1E+10	1	-1E+10	1	-1E+10	1	-1E+10	1	-1E+10	1	-1E+10	1
4901784	209	C	03/25/2021	10:49	-135.348	43.072	0	52.20	0	10.3630	0	35.2580	4	27.092	0	51.779	0	262.0	4	96.3	4	-1E+10	1	-1E+10	1	-1E+10	1	-1E+10	1	-1E+10	1	-1E+10	1
4901784	209	C	03/25/2021	10:49	-135.348	43.072	0	54.00	0	10.3630	0	35.2580	4	27.092	0	53.564	0	262.1	4	96.4	4	-1E+10	1	-1E+10	1	-1E+10	1	-1E+10	1	-1E+10	1	-1E+10	1
4901784	209	C	03/25/2021	10:49	-135.348	43.072	0	55.60	0	10.3630	0	35.2590	4	27.093	0	55.151	0	262.1	4	96.4	4	-1E+10	1	-1E+10	1	-1E+10	1	-1E+10	1	-1E+10	1	-1E+10	1
4901784	209	C	03/25/2021	10:49	-135.348	43.072	0	57.30	0	10.3650	0	35.2590	4	27.093	0	56.837	0	262.0	4	96.3	4	-1E+10	1	-1E+10	1	-1E+10	1	-1E+10	1	-1E+10	1	-1E+10	1
4901784	209	C	03/25/2021	10:49	-135.348	43.072	0	59.10	0	10.3620	0	35.2600	4	27.094	0	58.622	0	261.9	4	96.3	4	-1E+10	1	-1E+10	1	-1E+10	1	-1E+10	1	-1E+10	1	-1E+10	1
4901784	209	C	03/25/2021	10:49	-135.348	43.072	0	60.70	0	10.3620	0	35.2590	4	27.093	0	60.209	0	261.8	4	96.3	4	-1E+10	1	-1E+10	1	-1E+10	1	-1E+10	1	-1E+10	1	-1E+10	1
4901784	209	C	03/25/2021	10:49	-135.348	43.072	0	62.40	0	10.3580	0	35.2600	4	27.095	0	61.895	0	261.6	4	96.2	4	-1E+10	1	-1E+10	1	-1E+10	1	-1E+10	1	-1E+10	1	-1E+10	1
4901784	209	C	03/25/2021	10:49	-135.348	43.072	0	64.10	0	10.3560	0	35.2600	4	27.095	0	63.581	0	261.8	4	96.3	4	-1E+10	1	-1E+10	1	-1E+10	1	-1E+10	1	-1E+10	1	-1E+10	1
4901784	209	C	03/25/2021	10:49	-135.348	43.072	0	65.80	0	10.3560	0	35.2600	4	27.095	0	65.267	0	261.3	4	96.0	4	-1E+10	1	-1E+10	1	-1E+10	1	-1E+10	1	-1E+10	1	-1E+10	1
4901784	209	C	03/25/2021	10:49	-135.348	43.072	0	67.50	0	10.3520	0	35.2600	4	27.096	0	66.953	0	261.2	4	96.0	4	-1E+10	1	-1E+10	1	-1E+10	1	-1E+10	1	-1E+10	1	-1E+10	1
4901784	209	C	03/25/2021	10:49	-135.348	43.072	0	69.20	0	10.3220	0	35.2630	4	27.103	0	68.639	0	261.3	4	96.0	4	-1E+10	1	-1E+10	1	-1E+10	1	-1E+10	1	-1E+10	1	-1E+10	1
4901784	209	C	03/25/2021	10:49	-135.348	43.072	0	70.90	0	10.3170	0	35.2650	4	27.106	0	70.325	0	261.3	4	96.0	4	-1E+10	1	-1E+10	1	-1E+10	1	-1E+10	1	-1E+10	1	-1E+10	1
4901784	209	C	03/25/2021	10:49	-135.348	43.072	0	72.70	0	10.3090	0	35.2650	4	27.107	0	72.110	0	261.4	4	96.0	4	-1E+10	1	-1E+10	1	-1E+10	1	-1E+10	1	-1E+10	1	-1E+10	1
4901784	209	C	03/25/2021	10:49	-135.348	43.072	0	74.40	0	10.3050	0	35.2650	4	27.108	0	73.796	0	261.3	4	95.9	4	-1E+10	1	-1E+10	1	-1E+10	1	-1E+10	1	-1E+10	1	-1E+10	1
4901784	209	C	03/25/2021	10:49	-135.348	43.072	0	76.10	0	10.3040	0	35.2660	4	27.109	0	75.482	0	261.2	4	95.9	4	-1E+10	1	-1E+10	1	-1E+10	1	-1E+10	1	-1E+10	1	-1E+10	1
4901784	209	C	03/25/2021	10:49	-135.348	43.072	0	77.80	0	10.3010	0	35.2660	4	27.110	0	77.168	0	261.1	4	95.9	4	-1E+10	1	-1E+10	1	-1E+10	1	-1E+10	1	-1E+10	1	-1E+10	1
4901784	209	C	03/25/2021	10:49	-135.348	43.072	0	79.50	0	10.2930	0	35.2660	4	27.111	0	78.853	0	260.8	4	95.8	4	-1E+10	1	-1E+10	1	-1E+10	1	-1E+10	1	-1E+10	1	-1E+10	1
4901784	209	C	03/25/2021	10:49	-135.348	43.072	0	81.20	0	10.2840	0	35.2660	4	27.113	0	80.539	0	260.7	4	95.7	4	-1E+10	1	-1E+10	1	-1E+10	1	-1E+10	1	-1E+10	1	-1E+10	1
4901784	209	C	03/25/2021	10:49	-135.348	43.072	0	82.90	0	10.2810	0	35.2660	4	27.113	0	82.225	0	260.8	4	95.7	4	-1E+10	1	-1E+10	1	-1E+10	1	-1E+10	1	-1E+10	1	-1E+10	1
4901784	209	C	03/25/2021	10:49	-135.348	43.072	0	84.60	0	10.2670	0	35.2640	4	27.114	0	83.911	0	260.7	4	95.7	4	-1E+10	1	-1E+10	1	-1E+10	1	-1E+10	1	-1E+10	1	-1E+10	1
4901784	209	C	03/25/2021	10:49	-135.348	43.072	0	86.30	0	10.2440	0	35.2630	4	27.117	0	85.597	0	260.7	4	95.6	4	-1E+10	1	-1E+10	1	-1E+10	1	-1E+10	1	-1E+10	1	-1E+10	1
4901784	209	C	03/25/2021	10:49	-135.348	43.072	0	88.00	0	10.1950	0	35.2640	4	27.127	0	87.283	0	260.6	4	95.5	4	-1E+10	1	-1E+10	1	-1E+10	1	-1E+10	1	-1E+10	1	-1E+10	1
4901784	209	C	03/25/2021	10:49	-135.348	43.072	0	89.70	0	10.1920	0	35.2640	4	27.127	0	88.968	0	260.6	4	95.5	4	-1E+10	1	-1E+10	1	-1E+10	1	-1E+10	1	-1E+10	1	-1E+10	1
4901784	209	C	03/25/2021	10:49	-135.348	43.072	0	91.40	0	10.1870	0	35.2640	4	27.128	0	90.654	0	260.4	4	95.4	4	-1E+10	1	-1E+10	1	-1E+10	1	-1E+10	1	-1E+10	1	-1E+10	1
4901784	209	C	03/25/2021	10:49	-135.348	43.072	0	93.10	0	10.1730	0	35.2650	4	27.131	0	92.340	0	260.4	4	95.3	4	-1E+10	1	-1E+10	1	-1E+10	1	-1E+10	1	-1E+10	1	-1E+10	1
4901784	209	C	03/25/2021	10:49	-135.348	43.072	0	94.90	0	10.1480	0	35.2630	4	27.134	0	94.125	0	260.7	4	95.4	4	-1E+10	1	-1E+10	1	-1E+10	1	-1E+10	1	-1E+10	1	-1E+10	1
4901784	209	C	03/25/2021	10:49	-135.348	43.072	0	96.70	0	10.1260	0	35.2640	4	27.139	0	95.910	0	260.9	4	95.4	4	-1E+10	1	-1E+10	1	-1E+10	1	-1E+10	1	-1E+10	1	-1E+10	1
4901784	209	C	03/25/2021	10:49	-135.348	43.072	0	98.40	0	10.1090	0	35.2630	4	27.141	0	97.595	0	261.0	4	95.4	4	-1E+10	1	-1E+10	1	-1E+10	1	-1E+10	1	-1E+10	1	-1E+10	1
4901784	209	C	03/25/2021	10:49	-135.348	43.072	0	100.20	0	10.1020	0	35.2630	4	27.142	0	99.380	0	260.3	4	95.2	4	-1E+10	1	-1E+10	1	-1E+10	1	-1E+10	1	-1E+10	1	-1E+10	1
4901784	209	C	03/25/2021	10:49	-135.348	43.072	0	102.10	0	10.0990	0	35.2610	4	27.141	0	101.264	0	259.8	4	95.0	4	-1E+10	1	-1E+10	1	-1E+10	1	-1E+10	1	-1E+10	1	-1E+10	1
4901784	209	C	03/25/2021	10:49	-135.348	43.072	0	104.70	0	10.0750	0	35.2630	4	27.147	0	103.842	0	258.7	4	94.5	4	-1E+10	1	-1E+10	1	-1E+10	1	-1E+10	1	-1E+10	1	-1E+10	1
4901784	209	C	03/25/2021	10:49	-135.348	43.072	0	107.40	0	10.0590	0	35.2620	4	27.149	0	106.519	0	257.2	4	93.9	4	-1E+10	1	-1E+10	1	-1E+10	1	-1E+10	1	-1E+10	1	-1E+10	1
4901784	209	C	03/25/2021	10:49	-135.348	43.072	0	109.70	0	10.0410	0	35.2660	4	27.155	0	108.800	0	255.4	4	93.3	4	-1E+10	1	-1E+10	1	-1E+10	1	-1E+10	1	-1E+10	1	-1E+10	1
4901784	209	C	03/25/2021	10:49	-135.348	43.072	0	112.20	0	10.0230	0	35.2710	4	27.162	0	111.279	0	251.6	4	91.9	4	-1E+10	1	-1E+10	1	-1E+10	1	-1E+10	1	-1E+10	1	-1E+10	1
4901784	209	C	03/25/2021	10:49	-135.348	43.072	0	115.10	0	10.1170	0	35.3180	4	27.183	0	114.154	0	244.5	4	89.5	4	-1E+10	1	-1E+10	1	-1E+10	1	-1E+10	1	-1E+10	1	-1E+10	1
4901784	209	C	03/25/2021	10:49	-135.348	43.072	0	117.30	0	10.1000	0	35.3780	4	27.233	0	116.335	0	240.8	4	88.1	4	-1E+10	1	-1E+10	1	-1E+10	1	-1E+10	1	-1E+10	1	-1E+10	1
4901784	209	C	03/25/2021	10:49	-135.348	43.072	0	119.70	0	10.0730	0	35.3890	4	27.246	0	118.715	0	238.4	4	87.2	4	-1E+10	1	-1E+10	1	-1E+10	1	-1E+10	1	-1E+10	1	-1E+10	1
4901784	209	C	03/25/2021	10:49	-135.348	43.072	0	122.90	0	10.0180	0	35.4130	4	27.274	0	121.888	0	235.8	4	86.1	4	-1E+10	1	-1E+10	1	-1E+10	1	-1E+10	1	-1E+10	1	-1E+10	1
4901784	209	C	03/25/2021	10:49	-135.348	43.072	0	125.40	0	9.9710	0	35.4250	4	27.292	0	124.366	0	233.8	4	85.4	4	-1E+10	1	-1E+10	1	-1E+10	1	-1E+10	1	-1E+10	1	-1E+10	1
4901784	209	C	03/25/2021	10:49	-135.348	43.072	0	127.90	0	9.8360	0	35.4660	4	27.347	0	126.845	0	231.6	4	84.3	4	-1E+10	1	-1E+10	1	-1E+10	1	-1E+10	1	-1E+10	1	-1E+10	1
4901784	209	C	03/25/2021	10:49	-135.348	43.072	0	130.30	0	9.7700	0	35.4860	4	27.374	0	129.224	0	229.4	4	83.4	4	-1E+10	1	-1E+10	1	-1E+10	1	-1E+10	1	-1E+10	1	-1E+10	1
4901784	209	C	03/25/2021	10:49	-135.348	43.072	0	132.70	0	9.7060	0	35.5280	4	27.418	0	131.604	0	226.0	4	82.1	4	-1E+10	1	-1E+10	1	-1E+10	1	-1E+10	1	-1E+10	1	-1E+10	1
4901784	209	C	03/25/2021	10:49	-135.348	43.072	0	135.20	0	9.6490	0	35.5780	4	27.466	0	134.082	0	223.2	4	81.0	4	-1E+10	1	-1E+10	1	-1E+10	1	-1E+10	1	-1E+10	1	-1E+10	1
4901784	209	C	03/25/2021	10:49	-135.348	43.072	0	137.50	0	9.6000	0	35.6070	4	27.497	0	136.363	0	220.0	4	79.8	4	-1E+10	1	-1E+10	1	-1E+10	1	-1E+10	1	-1E+10	1	-1E+10	1
4901784	209	C	03/25/2021	10:49	-135.348	43.072	0	139.80	0	9.5760	0	35.6140	4	27.507	0	138.643	0	216.1	4	78.3	4	-1E+10	1	-1E+10	1	-1E+10	1	-1E+10	1	-1E+10	1	-1E+10	1
4901784	209	C	03/25/2021	10:49	-135.348	43.072	0	142.40	0	9.2470	0	35.7540	4	27.671	0	141.220	0	212.9	4	76.7	4	-1E+10	1	-1E+10	1	-1E+10	1	-1E+10	1	-1E+10	1	-1E+10	1
4901784	209	C	03/25/2021	10:49	-135.348	43.072	0	144.90	0	9.1590	0	35.8120	4	27.731	0	143.699	0	211.1	4	75.9	4	-1E+10	1	-1E+10	1	-1E+10	1	-1E+10	1	-1E+10	1	-1E+10	1
4901784	209	C	03/25/2021	10:49	-135.348	43.072	0	147.60	0	9.0540	0	35.8660	4	27.791	0	146.376	0	209.1	4	75.1	4	-1E+10	1	-1E+10	1	-1E+10	1	-1E+10	1	-1E+10	1	-1E+10	1
4901784	209	C	03/25/2021	10:49	-135.348	43.072	0	149.90	0	8.9430	0	35.9520	4	27.876	0	148.656	0	207.5	4	74.4	4	-1E+10	1	-1E+10	1	-1E+10	1	-1E+10	1	-1E+10	1	-1E+10	1
4901784	209	C	03/25/2021	10:49	-135.348	43.072	0	152.30	0	8.8640	0	36.0130	4	27.937	0	151.035	0	206.0	4	73.7	4	-1E+10	1	-1E+10	1	-1E+10	1	-1E+10	1	-1E+10	1	-1E+10	1
4901784	209	C	03/25/2021	10:49	-135.348	43.072	0	154.60	0	8.7940	0	36.0570	4	27.983	0	153.315	0	204.4	4	73.1	4	-1E+10	1	-1E+10	1	-1E+10	1	-1E+10	1	-1E+10	1	-1E+10	1
4901784	209	C	03/25/2021	10:49	-135.348	43.072	0	157.80	0	8.6620	0	36.0890	4	28.029	0	156.487	0	202.9	4	72.3	4	-1E+10	1	-1E+10	1	-1E+10	1	-1E+10	1	-1E+10	1	-1E+10	1
4901784	209	C	03/25/2021	10:49	-135.348	43.072	0	160.30	0	8.6010	0	36.0970	4	28.045	0	158.965	0	201.7	4	71.8	4	-1E+10	1	-1E+10	1	-1E+10	1	-1E+10	1	-1E+10	1	-1E+10	1
4901784	209	C	03/25/2021	10:49	-135.348	43.072	0	162.00	0	8.5560	0	36.1160	4	28.067	0	160.651	0	200.9	4	71.5	4	-1E+10	1	-1E+10	1	-1E+10	1	-1E+10	1	-1E+10	1	-1E+10	1
4901784	209	C	03/25/2021	10:49	-135.348	43.072	0	164.70	0	8.4690	0	36.1720	4	28.125	0	163.327	0	200.1	4	71.1	4	-1E+10	1	-1E+10	1	-1E+10	1	-1E+10	1	-1E+10	1	-1E+10	1
4901784	209	C	03/25/2021	10:49	-135.348	43.072	0	167.20	0	8.4360	0	36.1910	4	28.145	0	165.805	0	199.3	4	70.7	4	-1E+10	1	-1E+10	1	-1E+10	1	-1E+10	1	-1E+10	1	-1E+10	1
4901784	209	C	03/25/2021	10:49	-135.348	43.072	0	170.00	0	8.3880	0	36.2220	4	28.177	0	168.581	0	198.1	4	70.3	4	-1E+10	1	-1E+10	1	-1E+10	1	-1E+10	1	-1E+10	1	-1E+10	1
4901784	209	C	03/25/2021	10:49	-135.348	43.072	0	172.50	0	8.3220	0	36.2720	4	28.227	0	171.059	0	196.8	4	69.7	4	-1E+10	1	-1E+10	1	-1E+10	1	-1E+10	1	-1E+10	1	-1E+10	1
4901784	209	C	03/25/2021	10:49	-135.348	43.072	0	174.80	0	8.2390	0	36.3550	4	28.305	0	173.339	0	196.2	4	69.4	4	-1E+10	1	-1E+10	1	-1E+10	1	-1E+10	1	-1E+10	1	-1E+10	1
4901784	209	C	03/25/2021	10:49	-135.348	43.072	0	177.10	0	8.2170	0	36.3690	4	28.319	0	175.618	0	195.8	4	69.3	4	-1E+10	1	-1E+10	1	-1E+10	1	-1E+10	1	-1E+10	1	-1E+10	1
4901784	209	C	03/25/2021	10:49	-135.348	43.072	0	179.60	0	8.1970	0	36.4040	4	28.350	0	178.096	0	195.2	4	69.0	4	-1E+10	1	-1E+10	1	-1E+10	1	-1E+10	1	-1E+10	1	-1E+10	1
4901784	209	C	03/25/2021	10:49	-135.348	43.072	0	182.70	0	8.1570	0	36.4410	4	28.385	0	181.169	0	194.4	4	68.7	4	-1E+10	1	-1E+10	1	-1E+10	1	-1E+10	1	-1E+10	1	-1E+10	1
4901784	209	C	03/25/2021	10:49	-135.348	43.072	0	185.10	0	8.0870	0	36.4910	4	28.435	0	183.548	0	193.7	4	68.4	4	-1E+10	1	-1E+10	1	-1E+10	1	-1E+10	1	-1E+10	1	-1E+10	1
4901784	209	C	03/25/2021	10:49	-135.348	43.072	0	187.60	0	8.0600	0	36.5180	4	28.461	0	186.026	0	193.7	4	68.4	4	-1E+10	1	-1E+10	1	-1E+10	1	-1E+10	1	-1E+10	1	-1E+10	1
4901784	209	C	03/25/2021	10:49	-135.348	43.072	0	190.10	0	8.0560	0	36.5430	4	28.481	0	188.504	0	193.5	4	68.3	4	-1E+10	1	-1E+10	1	-1E+10	1	-1E+10	1	-1E+10	1	-1E+10	1
4901784	209	C	03/25/2021	10:49	-135.348	43.072	0	192.70	0	8.0520	0	36.5690	4	28.502	0	191.081	0	193.1	4	68.2	4	-1E+10	1	-1E+10	1	-1E+10	1	-1E+10	1	-1E+10	1	-1E+10	1
4901784	209	C	03/25/2021	10:49	-135.348	43.072	0	195.40	0	8.0500	0	36.6100	4	28.535	0	193.757	0	192.6	4	68.0	4	-1E+10	1	-1E+10	1	-1E+10	1	-1E+10	1	-1E+10	1	-1E+10	1
4901784	209	C	03/25/2021	10:49	-135.348	43.072	0	197.20	0	8.0370	0	36.6200	4	28.545	0	195.541	0	192.3	4	67.9	4	-1E+10	1	-1E+10	1	-1E+10	1	-1E+10	1	-1E+10	1	-1E+10	1
4901784	209	C	03/25/2021	10:49	-135.348	43.072	0	199.80	0	8.0060	0	36.6370	4	28.563	0	198.118	0	191.6	4	67.6	4	-1E+10	1	-1E+10	1	-1E+10	1	-1E+10	1	-1E+10	1	-1E+10	1
4901784	209	C	03/25/2021	10:49	-135.348	43.072	0	202.30	0	7.9710	0	36.6520	4	28.580	0	200.595	0	191.2	4	67.4	4	-1E+10	1	-1E+10	1	-1E+10	1	-1E+10	1	-1E+10	1	-1E+10	1
4901784	209	C	03/25/2021	10:49	-135.348	43.072	0	204.90	0	7.9550	0	36.6500	4	28.581	0	203.172	0	190.7	4	67.2	4	-1E+10	1	-1E+10	1	-1E+10	1	-1E+10	1	-1E+10	1	-1E+10	1
4901784	209	C	03/25/2021	10:49	-135.348	43.072	0	207.50	0	7.9260	0	36.6490	4	28.585	0	205.749	0	190.0	4	66.9	4	-1E+10	1	-1E+10	1	-1E+10	1	-1E+10	1	-1E+10	1	-1E+10	1
4901784	209	C	03/25/2021	10:49	-135.348	43.072	0	210.20	0	7.9000	0	36.6520	4	28.591	0	208.425	0	189.2	4	66.6	4	-1E+10	1	-1E+10	1	-1E+10	1	-1E+10	1	-1E+10	1	-1E+10	1
4901784	209	C	03/25/2021	10:49	-135.348	43.072	0	212.90	0	7.8370	0	36.6490	4	28.598	0	211.101	0	188.1	4	66.1	4	-1E+10	1	-1E+10	1	-1E+10	1	-1E+10	1	-1E+10	1	-1E+10	1
4901784	209	C	03/25/2021	10:49	-135.348	43.072	0	214.70	0	7.8000	0	36.6490	4	28.604	0	212.884	0	187.4	4	65.8	4	-1E+10	1	-1E+10	1	-1E+10	1	-1E+10	1	-1E+10	1	-1E+10	1
4901784	209	C	03/25/2021	10:49	-135.348	43.072	0	217.40	0	7.8050	0	36.6620	4	28.614	0	215.560	0	185.9	4	65.3	4	-1E+10	1	-1E+10	1	-1E+10	1	-1E+10	1	-1E+10	1	-1E+10	1
4901784	209	C	03/25/2021	10:49	-135.348	43.072	0	220.00	0	7.7760	0	36.6800	4	28.632	0	218.137	0	184.0	4	64.6	4	-1E+10	1	-1E+10	1	-1E+10	1	-1E+10	1	-1E+10	1	-1E+10	1
4901784	209	C	03/25/2021	10:49	-135.348	43.072	0	222.70	0	7.6910	0	36.6940	4	28.656	0	220.812	0	182.1	4	63.8	4	-1E+10	1	-1E+10	1	-1E+10	1	-1E+10	1	-1E+10	1	-1E+10	1
4901784	209	C	03/25/2021	10:49	-135.348	43.072	0	225.40	0	7.6670	0	36.6980	4	28.663	0	223.488	0	180.6	4	63.3	4	-1E+10	1	-1E+10	1	-1E+10	1	-1E+10	1	-1E+10	1	-1E+10	1
4901784	209	C	03/25/2021	10:49	-135.348	43.072	0	227.20	0	7.6590	0	36.7000	4	28.666	0	225.272	0	179.2	4	62.8	4	-1E+10	1	-1E+10	1	-1E+10	1	-1E+10	1	-1E+10	1	-1E+10	1
4901784	209	C	03/25/2021	10:49	-135.348	43.072	0	229.80	0	7.6210	0	36.7110	4	28.680	0	227.848	0	176.7	4	61.8	4	-1E+10	1	-1E+10	1	-1E+10	1	-1E+10	1	-1E+10	1	-1E+10	1
4901784	209	C	03/25/2021	10:49	-135.348	43.072	0	232.50	0	7.5920	0	36.7170	4	28.689	0	230.524	0	174.6	4	61.1	4	-1E+10	1	-1E+10	1	-1E+10	1	-1E+10	1	-1E+10	1	-1E+10	1
4901784	209	C	03/25/2021	10:49	-135.348	43.072	0	235.20	0	7.5840	0	36.7190	4	28.692	0	233.199	0	171.8	4	60.1	4	-1E+10	1	-1E+10	1	-1E+10	1	-1E+10	1	-1E+10	1	-1E+10	1
4901784	209	C	03/25/2021	10:49	-135.348	43.072	0	237.90	0	7.5650	0	36.7240	4	28.699	0	235.875	0	168.3	4	58.8	4	-1E+10	1	-1E+10	1	-1E+10	1	-1E+10	1	-1E+10	1	-1E+10	1
4901784	209	C	03/25/2021	10:49	-135.348	43.072	0	239.70	0	7.5580	0	36.7300	4	28.705	0	237.659	0	165.3	4	57.8	4	-1E+10	1	-1E+10	1	-1E+10	1	-1E+10	1	-1E+10	1	-1E+10	1
4901784	209	C	03/25/2021	10:49	-135.348	43.072	0	242.40	0	7.5510	0	36.7450	4	28.717	0	240.334	0	160.7	4	56.2	4	-1E+10	1	-1E+10	1	-1E+10	1	-1E+10	1	-1E+10	1	-1E+10	1
4901784	209	C	03/25/2021	10:49	-135.348	43.072	0	245.20	0	7.5440	0	36.7610	4	28.731	0	243.109	0	158.2	4	55.3	4	-1E+10	1	-1E+10	1	-1E+10	1	-1E+10	1	-1E+10	1	-1E+10	1
4901784	209	C	03/25/2021	10:49	-135.348	43.072	0	247.00	0	7.5380	0	36.7670	4	28.737	0	244.892	0	157.4	4	55.0	4	-1E+10	1	-1E+10	1	-1E+10	1	-1E+10	1	-1E+10	1	-1E+10	1
4901784	209	C	03/25/2021	10:49	-135.348	43.072	0	249.80	0	7.5300	0	36.7730	4	28.743	0	247.667	0	155.9	4	54.5	4	-1E+10	1	-1E+10	1	-1E+10	1	-1E+10	1	-1E+10	1	-1E+10	1
4901784	209	C	03/25/2021	10:49	-135.348	43.072	0	252.60	0	7.5180	0	36.7840	4	28.753	0	250.441	0	154.1	4	53.8	4	-1E+10	1	-1E+10	1	-1E+10	1	-1E+10	1	-1E+10	1	-1E+10	1
4901784	209	C	03/25/2021	10:49	-135.348	43.072	0	254.50	0	7.4970	0	36.7860	4	28.758	0	252.324	0	153.3	4	53.5	4	-1E+10	1	-1E+10	1	-1E+10	1	-1E+10	1	-1E+10	1	-1E+10	1
4901784	209	C	03/25/2021	10:49	-135.348	43.072	0	257.30	0	7.4600	0	36.7880	4	28.765	0	255.098	0	152.1	4	53.1	4	-1E+10	1	-1E+10	1	-1E+10	1	-1E+10	1	-1E+10	1	-1E+10	1
4901784	209	C	03/25/2021	10:49	-135.348	43.072	0	260.10	0	7.4460	0	36.7930	4	28.771	0	257.872	0	150.7	4	52.6	4	-1E+10	1	-1E+10	1	-1E+10	1	-1E+10	1	-1E+10	1	-1E+10	1
4901784	209	C	03/25/2021	10:49	-135.348	43.072	0	261.90	0	7.4180	0	36.7960	4	28.778	0	259.656	0	150.2	4	52.3	4	-1E+10	1	-1E+10	1	-1E+10	1	-1E+10	1	-1E+10	1	-1E+10	1
4901784	209	C	03/25/2021	10:49	-135.348	43.072	0	264.70	0	7.4040	0	36.7950	4	28.779	0	262.430	0	149.5	4	52.1	4	-1E+10	1	-1E+10	1	-1E+10	1	-1E+10	1	-1E+10	1	-1E+10	1
4901784	209	C	03/25/2021	10:49	-135.348	43.072	0	267.50	0	7.3770	0	36.7940	4	28.782	0	265.204	0	148.4	4	51.7	4	-1E+10	1	-1E+10	1	-1E+10	1	-1E+10	1	-1E+10	1	-1E+10	1
4901784	209	C	03/25/2021	10:49	-135.348	43.072	0	270.30	0	7.3240	0	36.7940	4	28.790	0	267.978	0	147.5	4	51.3	4	-1E+10	1	-1E+10	1	-1E+10	1	-1E+10	1	-1E+10	1	-1E+10	1
4901784	209	C	03/25/2021	10:49	-135.348	43.072	0	273.00	0	7.2340	0	36.7990	4	28.807	0	270.653	0	146.8	4	50.9	4	-1E+10	1	-1E+10	1	-1E+10	1	-1E+10	1	-1E+10	1	-1E+10	1
4901784	209	C	03/25/2021	10:49	-135.348	43.072	0	274.90	0	7.1960	0	36.8010	4	28.814	0	272.536	0	146.5	4	50.8	4	-1E+10	1	-1E+10	1	-1E+10	1	-1E+10	1	-1E+10	1	-1E+10	1
4901784	209	C	03/25/2021	10:49	-135.348	43.072	0	277.80	0	7.1590	0	36.7980	4	28.817	0	275.409	0	146.1	4	50.6	4	-1E+10	1	-1E+10	1	-1E+10	1	-1E+10	1	-1E+10	1	-1E+10	1
4901784	209	C	03/25/2021	10:49	-135.348	43.072	0	280.60	0	7.0580	0	36.7980	4	28.832	0	278.183	0	145.4	4	50.3	4	-1E+10	1	-1E+10	1	-1E+10	1	-1E+10	1	-1E+10	1	-1E+10	1
4901784	209	C	03/25/2021	10:49	-135.348	43.072	0	282.50	0	7.0340	0	36.7990	4	28.836	0	280.065	0	144.1	4	49.8	4	-1E+10	1	-1E+10	1	-1E+10	1	-1E+10	1	-1E+10	1	-1E+10	1
4901784	209	C	03/25/2021	10:49	-135.348	43.072	0	285.30	0	7.0300	0	36.8030	4	28.840	0	282.839	0	142.4	4	49.2	4	-1E+10	1	-1E+10	1	-1E+10	1	-1E+10	1	-1E+10	1	-1E+10	1
4901784	209	C	03/25/2021	10:49	-135.348	43.072	0	288.10	0	6.9800	0	36.8050	4	28.849	0	285.613	0	142.1	4	49.1	4	-1E+10	1	-1E+10	1	-1E+10	1	-1E+10	1	-1E+10	1	-1E+10	1
4901784	209	C	03/25/2021	10:49	-135.348	43.072	0	290.00	0	6.9330	0	36.8020	4	28.853	0	287.495	0	142.7	4	49.2	4	-1E+10	1	-1E+10	1	-1E+10	1	-1E+10	1	-1E+10	1	-1E+10	1
4901784	209	C	03/25/2021	10:49	-135.348	43.072	0	292.80	0	6.8270	0	36.8010	4	28.867	0	290.269	0	142.6	4	49.1	4	-1E+10	1	-1E+10	1	-1E+10	1	-1E+10	1	-1E+10	1	-1E+10	1
4901784	209	C	03/25/2021	10:49	-135.348	43.072	0	295.50	0	6.7780	0	36.8030	4	28.876	0	292.944	0	142.4	4	48.9	4	-1E+10	1	-1E+10	1	-1E+10	1	-1E+10	1	-1E+10	1	-1E+10	1
4901784	209	C	03/25/2021	10:49	-135.348	43.072	0	297.90	0	6.7470	0	36.7990	4	28.877	0	295.321	0	142.3	4	48.9	4	-1E+10	1	-1E+10	1	-1E+10	1	-1E+10	1	-1E+10	1	-1E+10	1
4901784	209	C	03/25/2021	10:49	-135.348	43.072	0	299.80	0	6.7180	0	36.8010	4	28.883	0	297.204	0	141.9	4	48.7	4	-1E+10	1	-1E+10	1	-1E+10	1	-1E+10	1	-1E+10	1	-1E+10	1
4901784	209	C	03/25/2021	10:49	-135.348	43.072	0	302.20	0	6.7070	0	36.8000	4	28.884	0	299.581	0	141.0	4	48.4	4	-1E+10	1	-1E+10	1	-1E+10	1	-1E+10	1	-1E+10	1	-1E+10	1
4901784	209	C	03/25/2021	10:49	-135.348	43.072	0	305.40	0	6.6790	0	36.8000	4	28.888	0	302.751	0	139.5	4	47.8	4	-1E+10	1	-1E+10	1	-1E+10	1	-1E+10	1	-1E+10	1	-1E+10	1
4901784	209	C	03/25/2021	10:49	-135.348	43.072	0	307.80	0	6.6290	0	36.8020	4	28.896	0	305.128	0	138.3	4	47.3	4	-1E+10	1	-1E+10	1	-1E+10	1	-1E+10	1	-1E+10	1	-1E+10	1
4901784	209	C	03/25/2021	10:49	-135.348	43.072	0	310.20	0	6.5990	0	36.8030	4	28.901	0	307.506	0	137.4	4	47.0	4	-1E+10	1	-1E+10	1	-1E+10	1	-1E+10	1	-1E+10	1	-1E+10	1
4901784	209	C	03/25/2021	10:49	-135.348	43.072	0	312.60	0	6.5600	0	36.8030	4	28.907	0	309.883	0	136.4	4	46.6	4	-1E+10	1	-1E+10	1	-1E+10	1	-1E+10	1	-1E+10	1	-1E+10	1
4901784	209	C	03/25/2021	10:49	-135.348	43.072	0	315.00	0	6.5150	0	36.8060	4	28.915	0	312.261	0	135.1	4	46.2	4	-1E+10	1	-1E+10	1	-1E+10	1	-1E+10	1	-1E+10	1	-1E+10	1
4901784	209	C	03/25/2021	10:49	-135.348	43.072	0	317.50	0	6.4930	0	36.8050	4	28.918	0	314.737	0	133.8	4	45.7	4	-1E+10	1	-1E+10	1	-1E+10	1	-1E+10	1	-1E+10	1	-1E+10	1
4901784	209	C	03/25/2021	10:49	-135.348	43.072	0	319.90	0	6.4680	0	36.8050	4	28.921	0	317.114	0	132.2	4	45.1	4	-1E+10	1	-1E+10	1	-1E+10	1	-1E+10	1	-1E+10	1	-1E+10	1
4901784	209	C	03/25/2021	10:49	-135.348	43.072	0	322.40	0	6.4330	0	36.8070	4	28.927	0	319.590	0	130.4	4	44.5	4	-1E+10	1	-1E+10	1	-1E+10	1	-1E+10	1	-1E+10	1	-1E+10	1
4901784	209	C	03/25/2021	10:49	-135.348	43.072	0	324.90	0	6.3920	0	36.8070	4	28.933	0	322.067	0	128.1	4	43.6	4	-1E+10	1	-1E+10	1	-1E+10	1	-1E+10	1	-1E+10	1	-1E+10	1
4901784	209	C	03/25/2021	10:49	-135.348	43.072	0	327.40	0	6.3450	0	36.8080	4	28.940	0	324.543	0	125.9	4	42.8	4	-1E+10	1	-1E+10	1	-1E+10	1	-1E+10	1	-1E+10	1	-1E+10	1
4901784	209	C	03/25/2021	10:49	-135.348	43.072	0	329.90	0	6.2780	0	36.8120	4	28.953	0	327.019	0	124.0	4	42.1	4	-1E+10	1	-1E+10	1	-1E+10	1	-1E+10	1	-1E+10	1	-1E+10	1
4901784	209	C	03/25/2021	10:49	-135.348	43.072	0	332.50	0	6.2480	0	36.8110	4	28.956	0	329.594	0	122.1	4	41.5	4	-1E+10	1	-1E+10	1	-1E+10	1	-1E+10	1	-1E+10	1	-1E+10	1
4901784	209	C	03/25/2021	10:49	-135.348	43.072	0	335.10	0	6.1760	0	36.8170	4	28.970	0	332.170	0	120.2	4	40.7	4	-1E+10	1	-1E+10	1	-1E+10	1	-1E+10	1	-1E+10	1	-1E+10	1
4901784	209	C	03/25/2021	10:49	-135.348	43.072	0	337.70	0	6.1240	0	36.8200	4	28.980	0	334.745	0	118.9	4	40.2	4	-1E+10	1	-1E+10	1	-1E+10	1	-1E+10	1	-1E+10	1	-1E+10	1
4901784	209	C	03/25/2021	10:49	-135.348	43.072	0	339.40	0	6.1200	0	36.8190	4	28.979	0	336.429	0	118.0	4	40.0	4	-1E+10	1	-1E+10	1	-1E+10	1	-1E+10	1	-1E+10	1	-1E+10	1
4901784	209	C	03/25/2021	10:49	-135.348	43.072	0	342.20	0	6.0890	0	36.8180	4	28.983	0	339.202	0	116.2	4	39.3	4	-1E+10	1	-1E+10	1	-1E+10	1	-1E+10	1	-1E+10	1	-1E+10	1
4901784	209	C	03/25/2021	10:49	-135.348	43.072	0	344.90	0	6.0560	0	36.8190	4	28.988	0	341.876	0	114.3	4	38.6	4	-1E+10	1	-1E+10	1	-1E+10	1	-1E+10	1	-1E+10	1	-1E+10	1
4901784	209	C	03/25/2021	10:49	-135.348	43.072	0	347.50	0	6.0060	0	36.8220	4	28.997	0	344.451	0	112.3	4	37.9	4	-1E+10	1	-1E+10	1	-1E+10	1	-1E+10	1	-1E+10	1	-1E+10	1
4901784	209	C	03/25/2021	10:49	-135.348	43.072	0	350.20	0	5.9430	0	36.8260	4	29.009	0	347.125	0	111.0	4	37.4	4	-1E+10	1	-1E+10	1	-1E+10	1	-1E+10	1	-1E+10	1	-1E+10	1
4901784	209	C	03/25/2021	10:49	-135.348	43.072	0	352.90	0	5.9050	0	36.8290	4	29.016	0	349.799	0	110.3	4	37.2	4	-1E+10	1	-1E+10	1	-1E+10	1	-1E+10	1	-1E+10	1	-1E+10	1
4901784	209	C	03/25/2021	10:49	-135.348	43.072	0	355.50	0	5.8850	0	36.8300	4	29.019	0	352.374	0	109.5	4	36.9	4	-1E+10	1	-1E+10	1	-1E+10	1	-1E+10	1	-1E+10	1	-1E+10	1
4901784	209	C	03/25/2021	10:49	-135.348	43.072	0	357.40	0	5.8810	0	36.8290	4	29.019	0	354.256	0	108.8	4	36.6	4	-1E+10	1	-1E+10	1	-1E+10	1	-1E+10	1	-1E+10	1	-1E+10	1
4901784	209	C	03/25/2021	10:49	-135.348	43.072	0	360.10	0	5.8660	0	36.8280	4	29.020	0	356.930	0	107.3	4	36.1	4	-1E+10	1	-1E+10	1	-1E+10	1	-1E+10	1	-1E+10	1	-1E+10	1
4901784	209	C	03/25/2021	10:49	-135.348	43.072	0	362.80	0	5.8180	0	36.8330	4	29.031	0	359.603	0	105.6	4	35.5	4	-1E+10	1	-1E+10	1	-1E+10	1	-1E+10	1	-1E+10	1	-1E+10	1
4901784	209	C	03/25/2021	10:49	-135.348	43.072	0	364.60	0	5.7690	0	36.8350	4	29.039	0	361.386	0	104.8	4	35.2	4	-1E+10	1	-1E+10	1	-1E+10	1	-1E+10	1	-1E+10	1	-1E+10	1
4901784	209	C	03/25/2021	10:49	-135.348	43.072	0	367.30	0	5.7440	0	36.8350	4	29.042	0	364.060	0	104.0	4	34.9	4	-1E+10	1	-1E+10	1	-1E+10	1	-1E+10	1	-1E+10	1	-1E+10	1
4901784	209	C	03/25/2021	10:49	-135.348	43.072	0	370.00	0	5.7240	0	36.8360	4	29.045	0	366.734	0	103.4	4	34.7	4	-1E+10	1	-1E+10	1	-1E+10	1	-1E+10	1	-1E+10	1	-1E+10	1
4901784	209	C	03/25/2021	10:49	-135.348	43.072	0	372.70	0	5.7180	0	36.8360	4	29.046	0	369.407	0	102.7	4	34.5	4	-1E+10	1	-1E+10	1	-1E+10	1	-1E+10	1	-1E+10	1	-1E+10	1
4901784	209	C	03/25/2021	10:49	-135.348	43.072	0	375.40	0	5.7080	0	36.8350	4	29.047	0	372.081	0	101.9	4	34.2	4	-1E+10	1	-1E+10	1	-1E+10	1	-1E+10	1	-1E+10	1	-1E+10	1
4901784	209	C	03/25/2021	10:49	-135.348	43.072	0	377.10	0	5.6800	0	36.8360	4	29.051	0	373.765	0	101.3	4	33.9	4	-1E+10	1	-1E+10	1	-1E+10	1	-1E+10	1	-1E+10	1	-1E+10	1
4901784	209	C	03/25/2021	10:49	-135.348	43.072	0	379.90	0	5.6520	0	36.8380	4	29.056	0	376.537	0	100.6	4	33.7	4	-1E+10	1	-1E+10	1	-1E+10	1	-1E+10	1	-1E+10	1	-1E+10	1
4901784	209	C	03/25/2021	10:49	-135.348	43.072	0	382.60	0	5.6330	0	36.8390	4	29.059	0	379.211	0	99.6	4	33.4	4	-1E+10	1	-1E+10	1	-1E+10	1	-1E+10	1	-1E+10	1	-1E+10	1
4901784	209	C	03/25/2021	10:49	-135.348	43.072	0	384.50	0	5.6170	0	36.8400	4	29.062	0	381.092	0	99.0	4	33.1	4	-1E+10	1	-1E+10	1	-1E+10	1	-1E+10	1	-1E+10	1	-1E+10	1
4901784	209	C	03/25/2021	10:49	-135.348	43.072	0	387.30	0	5.5780	0	36.8420	4	29.069	0	383.865	0	97.9	4	32.7	4	-1E+10	1	-1E+10	1	-1E+10	1	-1E+10	1	-1E+10	1	-1E+10	1
4901784	209	C	03/25/2021	10:49	-135.348	43.072	0	390.00	0	5.5650	0	36.8420	4	29.071	0	386.538	0	96.6	4	32.3	4	-1E+10	1	-1E+10	1	-1E+10	1	-1E+10	1	-1E+10	1	-1E+10	1
4901784	209	C	03/25/2021	10:49	-135.348	43.072	0	392.80	0	5.5480	0	36.8420	4	29.073	0	389.311	0	94.9	4	31.7	4	-1E+10	1	-1E+10	1	-1E+10	1	-1E+10	1	-1E+10	1	-1E+10	1
4901784	209	C	03/25/2021	10:49	-135.348	43.072	0	395.50	0	5.5240	0	36.8430	4	29.077	0	391.984	0	93.4	4	31.2	4	-1E+10	1	-1E+10	1	-1E+10	1	-1E+10	1	-1E+10	1	-1E+10	1
4901784	209	C	03/25/2021	10:49	-135.348	43.072	0	397.30	0	5.5060	0	36.8440	4	29.080	0	393.767	0	92.3	4	30.8	4	-1E+10	1	-1E+10	1	-1E+10	1	-1E+10	1	-1E+10	1	-1E+10	1
4901784	209	C	03/25/2021	10:49	-135.348	43.072	0	399.90	0	5.4750	0	36.8440	4	29.084	0	396.341	0	90.9	4	30.3	4	-1E+10	1	-1E+10	1	-1E+10	1	-1E+10	1	-1E+10	1	-1E+10	1
4901784	209	C	03/25/2021	10:49	-135.348	43.072	0	402.60	0	5.4280	0	36.8470	4	29.092	0	399.014	0	89.2	4	29.7	4	-1E+10	1	-1E+10	1	-1E+10	1	-1E+10	1	-1E+10	1	-1E+10	1
4901784	209	C	03/25/2021	10:49	-135.348	43.072	0	405.30	0	5.4020	0	36.8460	4	29.095	0	401.688	0	87.5	4	29.1	4	-1E+10	1	-1E+10	1	-1E+10	1	-1E+10	1	-1E+10	1	-1E+10	1
4901784	209	C	03/25/2021	10:49	-135.348	43.072	0	408.00	0	5.3320	0	36.8510	4	29.107	0	404.361	0	86.1	4	28.6	4	-1E+10	1	-1E+10	1	-1E+10	1	-1E+10	1	-1E+10	1	-1E+10	1
4901784	209	C	03/25/2021	10:49	-135.348	43.072	0	409.70	0	5.3120	0	36.8520	4	29.111	0	406.044	0	85.3	4	28.3	4	-1E+10	1	-1E+10	1	-1E+10	1	-1E+10	1	-1E+10	1	-1E+10	1
4901784	209	C	03/25/2021	10:49	-135.348	43.072	0	412.40	0	5.2670	0	36.8570	4	29.120	0	408.718	0	84.3	4	28.0	4	-1E+10	1	-1E+10	1	-1E+10	1	-1E+10	1	-1E+10	1	-1E+10	1
4901784	209	C	03/25/2021	10:49	-135.348	43.072	0	415.10	0	5.2280	0	36.8590	4	29.127	0	411.391	0	83.3	4	27.6	4	-1E+10	1	-1E+10	1	-1E+10	1	-1E+10	1	-1E+10	1	-1E+10	1
4901784	209	C	03/25/2021	10:49	-135.348	43.072	0	417.70	0	5.1850	0	36.8640	4	29.136	0	413.965	0	82.5	4	27.3	4	-1E+10	1	-1E+10	1	-1E+10	1	-1E+10	1	-1E+10	1	-1E+10	1
4901784	209	C	03/25/2021	10:49	-135.348	43.072	0	420.40	0	5.1610	0	36.8660	4	29.140	0	416.638	0	81.9	4	27.1	4	-1E+10	1	-1E+10	1	-1E+10	1	-1E+10	1	-1E+10	1	-1E+10	1
4901784	209	C	03/25/2021	10:49	-135.348	43.072	0	422.20	0	5.1510	0	36.8660	4	29.142	0	418.420	0	81.4	4	27.0	4	-1E+10	1	-1E+10	1	-1E+10	1	-1E+10	1	-1E+10	1	-1E+10	1
4901784	209	C	03/25/2021	10:49	-135.348	43.072	0	424.80	0	5.1200	0	36.8690	4	29.148	0	420.994	0	80.7	4	26.7	4	-1E+10	1	-1E+10	1	-1E+10	1	-1E+10	1	-1E+10	1	-1E+10	1
4901784	209	C	03/25/2021	10:49	-135.348	43.072	0	427.50	0	5.0950	0	36.8710	4	29.153	0	423.667	0	80.0	4	26.5	4	-1E+10	1	-1E+10	1	-1E+10	1	-1E+10	1	-1E+10	1	-1E+10	1
4901784	209	C	03/25/2021	10:49	-135.348	43.072	0	430.10	0	5.0700	0	36.8730	4	29.157	0	426.241	0	79.1	4	26.2	4	-1E+10	1	-1E+10	1	-1E+10	1	-1E+10	1	-1E+10	1	-1E+10	1
4901784	209	C	03/25/2021	10:49	-135.348	43.072	0	432.80	0	5.0560	0	36.8730	4	29.159	0	428.914	0	78.1	4	25.8	4	-1E+10	1	-1E+10	1	-1E+10	1	-1E+10	1	-1E+10	1	-1E+10	1
4901784	209	C	03/25/2021	10:49	-135.348	43.072	0	434.60	0	5.0400	0	36.8740	4	29.162	0	430.696	0	77.1	4	25.5	4	-1E+10	1	-1E+10	1	-1E+10	1	-1E+10	1	-1E+10	1	-1E+10	1
4901784	209	C	03/25/2021	10:49	-135.348	43.072	0	437.30	0	5.0020	0	36.8780	4	29.170	0	433.369	0	75.7	4	25.0	4	-1E+10	1	-1E+10	1	-1E+10	1	-1E+10	1	-1E+10	1	-1E+10	1
4901784	209	C	03/25/2021	10:49	-135.348	43.072	0	440.00	0	4.9770	0	36.8790	4	29.173	0	436.042	0	74.1	4	24.4	4	-1E+10	1	-1E+10	1	-1E+10	1	-1E+10	1	-1E+10	1	-1E+10	1
4901784	209	C	03/25/2021	10:49	-135.348	43.072	0	442.70	0	4.9430	0	36.8830	4	29.181	0	438.715	0	72.0	4	23.7	4	-1E+10	1	-1E+10	1	-1E+10	1	-1E+10	1	-1E+10	1	-1E+10	1
4901784	209	C	03/25/2021	10:49	-135.348	43.072	0	445.40	0	4.9170	0	36.8870	4	29.187	0	441.388	0	69.6	4	22.9	4	-1E+10	1	-1E+10	1	-1E+10	1	-1E+10	1	-1E+10	1	-1E+10	1
4901784	209	C	03/25/2021	10:49	-135.348	43.072	0	447.20	0	4.8860	0	36.8960	4	29.198	0	443.170	0	68.3	4	22.5	4	-1E+10	1	-1E+10	1	-1E+10	1	-1E+10	1	-1E+10	1	-1E+10	1
4901784	209	C	03/25/2021	10:49	-135.348	43.072	0	449.80	0	4.8580	0	36.9000	4	29.204	0	445.743	0	67.6	4	22.2	4	-1E+10	1	-1E+10	1	-1E+10	1	-1E+10	1	-1E+10	1	-1E+10	1
4901784	209	C	03/25/2021	10:49	-135.348	43.072	0	452.50	0	4.8370	0	36.9040	4	29.210	0	448.416	0	67.0	4	22.0	4	-1E+10	1	-1E+10	1	-1E+10	1	-1E+10	1	-1E+10	1	-1E+10	1
4901784	209	C	03/25/2021	10:49	-135.348	43.072	0	455.30	0	4.8350	0	36.9040	4	29.210	0	451.188	0	66.5	4	21.9	4	-1E+10	1	-1E+10	1	-1E+10	1	-1E+10	1	-1E+10	1	-1E+10	1
4901784	209	C	03/25/2021	10:49	-135.348	43.072	0	457.90	0	4.8300	0	36.9050	4	29.212	0	453.762	0	65.9	4	21.7	4	-1E+10	1	-1E+10	1	-1E+10	1	-1E+10	1	-1E+10	1	-1E+10	1
4901784	209	C	03/25/2021	10:49	-135.348	43.072	0	459.70	0	4.8240	0	36.9070	4	29.214	0	455.543	0	65.5	4	21.5	4	-1E+10	1	-1E+10	1	-1E+10	1	-1E+10	1	-1E+10	1	-1E+10	1
4901784	209	C	03/25/2021	10:49	-135.348	43.072	0	462.40	0	4.8140	0	36.9070	4	29.215	0	458.216	0	65.0	4	21.3	4	-1E+10	1	-1E+10	1	-1E+10	1	-1E+10	1	-1E+10	1	-1E+10	1
4901784	209	C	03/25/2021	10:49	-135.348	43.072	0	465.10	0	4.7930	0	36.9100	4	29.220	0	460.888	0	64.3	4	21.1	4	-1E+10	1	-1E+10	1	-1E+10	1	-1E+10	1	-1E+10	1	-1E+10	1
4901784	209	C	03/25/2021	10:49	-135.348	43.072	0	467.80	0	4.7790	0	36.9120	4	29.224	0	463.561	0	63.7	4	20.9	4	-1E+10	1	-1E+10	1	-1E+10	1	-1E+10	1	-1E+10	1	-1E+10	1
4901784	209	C	03/25/2021	10:49	-135.348	43.072	0	470.60	0	4.7650	0	36.9140	4	29.227	0	466.332	0	63.0	4	20.7	4	-1E+10	1	-1E+10	1	-1E+10	1	-1E+10	1	-1E+10	1	-1E+10	1
4901784	209	C	03/25/2021	10:49	-135.348	43.072	0	472.40	0	4.7560	0	36.9160	4	29.229	0	468.114	0	62.6	4	20.5	4	-1E+10	1	-1E+10	1	-1E+10	1	-1E+10	1	-1E+10	1	-1E+10	1
4901784	209	C	03/25/2021	10:49	-135.348	43.072	0	475.20	0	4.7520	0	36.9170	4	29.231	0	470.886	0	62.0	4	20.3	4	-1E+10	1	-1E+10	1	-1E+10	1	-1E+10	1	-1E+10	1	-1E+10	1
4901784	209	C	03/25/2021	10:49	-135.348	43.072	0	477.90	0	4.7500	0	36.9160	4	29.230	0	473.558	0	61.2	4	20.1	4	-1E+10	1	-1E+10	1	-1E+10	1	-1E+10	1	-1E+10	1	-1E+10	1
4901784	209	C	03/25/2021	10:49	-135.348	43.072	0	479.70	0	4.7410	0	36.9180	4	29.233	0	475.340	0	60.5	4	19.8	4	-1E+10	1	-1E+10	1	-1E+10	1	-1E+10	1	-1E+10	1	-1E+10	1
4901784	209	C	03/25/2021	10:49	-135.348	43.072	0	482.40	0	4.7190	0	36.9220	4	29.239	0	478.012	0	59.4	4	19.5	4	-1E+10	1	-1E+10	1	-1E+10	1	-1E+10	1	-1E+10	1	-1E+10	1
4901784	209	C	03/25/2021	10:49	-135.348	43.072	0	485.20	0	4.6990	0	36.9260	4	29.244	0	480.783	0	58.4	4	19.1	4	-1E+10	1	-1E+10	1	-1E+10	1	-1E+10	1	-1E+10	1	-1E+10	1
4901784	209	C	03/25/2021	10:49	-135.348	43.072	0	487.10	0	4.6930	0	36.9270	4	29.246	0	482.664	0	57.7	4	18.9	4	-1E+10	1	-1E+10	1	-1E+10	1	-1E+10	1	-1E+10	1	-1E+10	1
4901784	209	C	03/25/2021	10:49	-135.348	43.072	0	489.90	0	4.6750	0	36.9320	4	29.252	0	485.435	0	57.0	4	18.7	4	-1E+10	1	-1E+10	1	-1E+10	1	-1E+10	1	-1E+10	1	-1E+10	1
4901784	209	C	03/25/2021	10:49	-135.348	43.072	0	492.80	0	4.6730	0	36.9320	4	29.252	0	488.305	0	56.1	4	18.4	4	-1E+10	1	-1E+10	1	-1E+10	1	-1E+10	1	-1E+10	1	-1E+10	1
4901784	209	C	03/25/2021	10:49	-135.348	43.072	0	494.60	0	4.6560	0	36.9350	4	29.257	0	490.087	0	55.4	4	18.2	4	-1E+10	1	-1E+10	1	-1E+10	1	-1E+10	1	-1E+10	1	-1E+10	1
4901784	209	C	03/25/2021	10:49	-135.348	43.072	0	497.40	0	4.6410	0	36.9390	4	29.261	0	492.858	0	54.5	4	17.8	4	-1E+10	1	-1E+10	1	-1E+10	1	-1E+10	1	-1E+10	1	-1E+10	1
4901784	209	C	03/25/2021	10:49	-135.348	43.072	0	500.90	0	4.6250	0	36.9430	4	29.267	0	496.322	0	53.3	4	17.4	4	-1E+10	1	-1E+10	1	-1E+10	1	-1E+10	1	-1E+10	1	-1E+10	1
4901784	209	C	03/25/2021	10:49	-135.348	43.072	0	505.10	0	4.5920	0	36.9500	4	29.276	0	500.478	0	51.6	4	16.9	4	-1E+10	1	-1E+10	1	-1E+10	1	-1E+10	1	-1E+10	1	-1E+10	1
4901784	209	C	03/25/2021	10:49	-135.348	43.072	0	510.60	0	4.5590	0	36.9580	4	29.286	0	505.921	0	49.6	4	16.2	4	-1E+10	1	-1E+10	1	-1E+10	1	-1E+10	1	-1E+10	1	-1E+10	1
4901784	209	C	03/25/2021	10:49	-135.348	43.072	0	515.40	0	4.5340	0	36.9640	4	29.294	0	510.671	0	47.4	4	15.5	4	-1E+10	1	-1E+10	1	-1E+10	1	-1E+10	1	-1E+10	1	-1E+10	1
4901784	209	C	03/25/2021	10:49	-135.348	43.072	0	520.40	0	4.5090	0	36.9740	4	29.305	0	515.619	0	45.5	4	14.8	4	-1E+10	1	-1E+10	1	-1E+10	1	-1E+10	1	-1E+10	1	-1E+10	1
4901784	209	C	03/25/2021	10:49	-135.348	43.072	0	525.40	0	4.5000	0	36.9800	4	29.311	0	520.567	0	43.4	4	14.2	4	-1E+10	1	-1E+10	1	-1E+10	1	-1E+10	1	-1E+10	1	-1E+10	1
4901784	209	C	03/25/2021	10:49	-135.348	43.072	0	530.30	0	4.4870	0	36.9880	4	29.319	0	525.416	0	41.7	4	13.6	4	-1E+10	1	-1E+10	1	-1E+10	1	-1E+10	1	-1E+10	1	-1E+10	1
4901784	209	C	03/25/2021	10:49	-135.348	43.072	0	535.50	0	4.4650	0	36.9950	4	29.327	0	530.561	0	40.0	4	13.1	4	-1E+10	1	-1E+10	1	-1E+10	1	-1E+10	1	-1E+10	1	-1E+10	1
4901784	209	C	03/25/2021	10:49	-135.348	43.072	0	540.60	0	4.4410	0	37.0030	4	29.336	0	535.607	0	38.2	4	12.4	4	-1E+10	1	-1E+10	1	-1E+10	1	-1E+10	1	-1E+10	1	-1E+10	1
4901784	209	C	03/25/2021	10:49	-135.348	43.072	0	545.70	0	4.4270	0	37.0140	4	29.346	0	540.654	0	36.2	4	11.8	4	-1E+10	1	-1E+10	1	-1E+10	1	-1E+10	1	-1E+10	1	-1E+10	1
4901784	209	C	03/25/2021	10:49	-135.348	43.072	0	550.10	0	4.4240	0	37.0200	4	29.351	0	545.007	0	35.2	4	11.5	4	-1E+10	1	-1E+10	1	-1E+10	1	-1E+10	1	-1E+10	1	-1E+10	1
4901784	209	C	03/25/2021	10:49	-135.348	43.072	0	554.40	0	4.4000	0	37.0270	4	29.360	0	549.262	0	34.1	4	11.1	4	-1E+10	1	-1E+10	1	-1E+10	1	-1E+10	1	-1E+10	1	-1E+10	1
4901784	209	C	03/25/2021	10:49	-135.348	43.072	0	559.60	0	4.3890	0	37.0340	4	29.367	0	554.407	0	33.2	4	10.8	4	-1E+10	1	-1E+10	1	-1E+10	1	-1E+10	1	-1E+10	1	-1E+10	1
4901784	209	C	03/25/2021	10:49	-135.348	43.072	0	565.00	0	4.3850	0	37.0380	4	29.370	0	559.749	0	32.5	4	10.6	4	-1E+10	1	-1E+10	1	-1E+10	1	-1E+10	1	-1E+10	1	-1E+10	1
4901784	209	C	03/25/2021	10:49	-135.348	43.072	0	570.40	0	4.3800	0	37.0420	4	29.374	0	565.092	0	31.8	4	10.3	4	-1E+10	1	-1E+10	1	-1E+10	1	-1E+10	1	-1E+10	1	-1E+10	1
4901784	209	C	03/25/2021	10:49	-135.348	43.072	0	575.00	0	4.3730	0	37.0440	4	29.377	0	569.643	0	31.2	4	10.1	4	-1E+10	1	-1E+10	1	-1E+10	1	-1E+10	1	-1E+10	1	-1E+10	1
4901784	209	C	03/25/2021	10:49	-135.348	43.072	0	579.50	0	4.3580	0	37.0470	4	29.381	0	574.095	0	30.2	4	9.8	4	-1E+10	1	-1E+10	1	-1E+10	1	-1E+10	1	-1E+10	1	-1E+10	1
4901784	209	C	03/25/2021	10:49	-135.348	43.072	0	585.00	0	4.3460	0	37.0600	4	29.393	0	579.536	0	28.5	4	9.3	4	-1E+10	1	-1E+10	1	-1E+10	1	-1E+10	1	-1E+10	1	-1E+10	1
4901784	209	C	03/25/2021	10:49	-135.348	43.072	0	590.50	0	4.3550	0	37.0680	4	29.398	0	584.977	0	27.6	4	9.0	4	-1E+10	1	-1E+10	1	-1E+10	1	-1E+10	1	-1E+10	1	-1E+10	1
4901784	209	C	03/25/2021	10:49	-135.348	43.072	0	595.10	0	4.3520	0	37.0720	4	29.401	0	589.527	0	27.4	4	8.9	4	-1E+10	1	-1E+10	1	-1E+10	1	-1E+10	1	-1E+10	1	-1E+10	1
4901784	209	C	03/25/2021	10:49	-135.348	43.072	0	599.70	0	4.3260	0	37.0710	4	29.404	0	594.077	0	27.4	4	8.9	4	-1E+10	1	-1E+10	1	-1E+10	1	-1E+10	1	-1E+10	1	-1E+10	1
4901784	209	C	03/25/2021	10:49	-135.348	43.072	0	605.20	0	4.2910	0	37.0730	4	29.409	0	599.518	0	27.1	4	8.8	4	-1E+10	1	-1E+10	1	-1E+10	1	-1E+10	1	-1E+10	1	-1E+10	1
4901784	209	C	03/25/2021	10:49	-135.348	43.072	0	609.90	0	4.2910	0	37.0750	4	29.411	0	604.167	0	26.5	4	8.6	4	-1E+10	1	-1E+10	1	-1E+10	1	-1E+10	1	-1E+10	1	-1E+10	1
4901784	209	C	03/25/2021	10:49	-135.348	43.072	0	614.60	0	4.2850	0	37.0790	4	29.415	0	608.816	0	25.7	4	8.4	4	-1E+10	1	-1E+10	1	-1E+10	1	-1E+10	1	-1E+10	1	-1E+10	1
4901784	209	C	03/25/2021	10:49	-135.348	43.072	0	620.20	0	4.2560	0	37.0870	4	29.425	0	614.355	0	24.8	4	8.1	4	-1E+10	1	-1E+10	1	-1E+10	1	-1E+10	1	-1E+10	1	-1E+10	1
4901784	209	C	03/25/2021	10:49	-135.348	43.072	0	624.90	0	4.2450	0	37.0920	4	29.430	0	619.004	0	24.1	4	7.8	4	-1E+10	1	-1E+10	1	-1E+10	1	-1E+10	1	-1E+10	1	-1E+10	1
4901784	209	C	03/25/2021	10:49	-135.348	43.072	0	629.60	0	4.2290	0	37.0960	4	29.435	0	623.652	0	23.4	4	7.6	4	-1E+10	1	-1E+10	1	-1E+10	1	-1E+10	1	-1E+10	1	-1E+10	1
4901784	209	C	03/25/2021	10:49	-135.348	43.072	0	635.30	0	4.2110	0	37.1040	4	29.443	0	629.290	0	22.3	4	7.2	4	-1E+10	1	-1E+10	1	-1E+10	1	-1E+10	1	-1E+10	1	-1E+10	1
4901784	209	C	03/25/2021	10:49	-135.348	43.072	0	640.00	0	4.1940	0	37.1130	4	29.452	0	633.938	0	21.6	4	7.0	4	-1E+10	1	-1E+10	1	-1E+10	1	-1E+10	1	-1E+10	1	-1E+10	1
4901784	209	C	03/25/2021	10:49	-135.348	43.072	0	644.70	0	4.1880	0	37.1170	4	29.456	0	638.587	0	20.8	4	6.7	4	-1E+10	1	-1E+10	1	-1E+10	1	-1E+10	1	-1E+10	1	-1E+10	1
4901784	209	C	03/25/2021	10:49	-135.348	43.072	0	650.10	0	4.1720	0	37.1290	4	29.468	0	643.927	0	20.1	4	6.5	4	-1E+10	1	-1E+10	1	-1E+10	1	-1E+10	1	-1E+10	1	-1E+10	1
4901784	209	C	03/25/2021	10:49	-135.348	43.072	0	654.40	0	4.1580	0	37.1320	4	29.472	0	648.179	0	19.7	4	6.4	4	-1E+10	1	-1E+10	1	-1E+10	1	-1E+10	1	-1E+10	1	-1E+10	1
4901784	209	C	03/25/2021	10:49	-135.348	43.072	0	660.00	0	4.1490	0	37.1380	4	29.477	0	653.717	0	18.9	4	6.1	4	-1E+10	1	-1E+10	1	-1E+10	1	-1E+10	1	-1E+10	1	-1E+10	1
4901784	209	C	03/25/2021	10:49	-135.348	43.072	0	665.50	0	4.1550	0	37.1450	4	29.482	0	659.156	0	18.2	4	5.9	4	-1E+10	1	-1E+10	1	-1E+10	1	-1E+10	1	-1E+10	1	-1E+10	1
4901784	209	C	03/25/2021	10:49	-135.348	43.072	0	670.30	0	4.1520	0	37.1530	4	29.489	0	663.903	0	17.7	4	5.7	4	-1E+10	1	-1E+10	1	-1E+10	1	-1E+10	1	-1E+10	1	-1E+10	1
4901784	209	C	03/25/2021	10:49	-135.348	43.072	0	675.30	0	4.1480	0	37.1550	4	29.491	0	668.847	0	17.5	4	5.7	4	-1E+10	1	-1E+10	1	-1E+10	1	-1E+10	1	-1E+10	1	-1E+10	1
4901784	209	C	03/25/2021	10:49	-135.348	43.072	0	680.20	0	4.1360	0	37.1580	4	29.495	0	673.693	0	17.1	4	5.6	4	-1E+10	1	-1E+10	1	-1E+10	1	-1E+10	1	-1E+10	1	-1E+10	1
4901784	209	C	03/25/2021	10:49	-135.348	43.072	0	685.10	0	4.1370	0	37.1620	4	29.498	0	678.538	0	16.6	4	5.4	4	-1E+10	1	-1E+10	1	-1E+10	1	-1E+10	1	-1E+10	1	-1E+10	1
4901784	209	C	03/25/2021	10:49	-135.348	43.072	0	690.10	0	4.1210	0	37.1700	4	29.506	0	683.482	0	16.1	4	5.2	4	-1E+10	1	-1E+10	1	-1E+10	1	-1E+10	1	-1E+10	1	-1E+10	1
4901784	209	C	03/25/2021	10:49	-135.348	43.072	0	695.00	0	4.1150	0	37.1740	4	29.510	0	688.326	0	15.6	4	5.0	4	-1E+10	1	-1E+10	1	-1E+10	1	-1E+10	1	-1E+10	1	-1E+10	1
4901784	209	C	03/25/2021	10:49	-135.348	43.072	0	700.00	0	4.1030	0	37.1830	4	29.519	0	693.270	0	14.9	4	4.8	4	-1E+10	1	-1E+10	1	-1E+10	1	-1E+10	1	-1E+10	1	-1E+10	1
4901784	209	C	03/25/2021	10:49	-135.348	43.072	0	705.10	0	4.1070	0	37.1910	4	29.525	0	698.313	0	14.3	4	4.6	4	-1E+10	1	-1E+10	1	-1E+10	1	-1E+10	1	-1E+10	1	-1E+10	1
4901784	209	C	03/25/2021	10:49	-135.348	43.072	0	710.40	0	4.1060	0	37.1990	4	29.531	0	703.553	0	14.0	4	4.5	4	-1E+10	1	-1E+10	1	-1E+10	1	-1E+10	1	-1E+10	1	-1E+10	1
4901784	209	C	03/25/2021	10:49	-135.348	43.072	0	715.70	0	4.1040	0	37.2010	4	29.533	0	708.793	0	13.9	4	4.5	4	-1E+10	1	-1E+10	1	-1E+10	1	-1E+10	1	-1E+10	1	-1E+10	1
4901784	209	C	03/25/2021	10:49	-135.348	43.072	0	720.10	0	4.1030	0	37.2020	4	29.534	0	713.143	0	13.7	4	4.4	4	-1E+10	1	-1E+10	1	-1E+10	1	-1E+10	1	-1E+10	1	-1E+10	1
4901784	209	C	03/25/2021	10:49	-135.348	43.072	0	724.60	0	4.0950	0	37.2070	4	29.539	0	717.591	0	13.4	4	4.3	4	-1E+10	1	-1E+10	1	-1E+10	1	-1E+10	1	-1E+10	1	-1E+10	1
4901784	209	C	03/25/2021	10:49	-135.348	43.072	0	729.90	0	4.0900	0	37.2110	4	29.543	0	722.831	0	13.1	4	4.2	4	-1E+10	1	-1E+10	1	-1E+10	1	-1E+10	1	-1E+10	1	-1E+10	1
4901784	209	C	03/25/2021	10:49	-135.348	43.072	0	735.10	0	4.0850	0	37.2180	4	29.549	0	727.971	0	12.8	4	4.2	4	-1E+10	1	-1E+10	1	-1E+10	1	-1E+10	1	-1E+10	1	-1E+10	1
4901784	209	C	03/25/2021	10:49	-135.348	43.072	0	740.40	0	4.0680	0	37.2210	4	29.553	0	733.211	0	12.7	4	4.1	4	-1E+10	1	-1E+10	1	-1E+10	1	-1E+10	1	-1E+10	1	-1E+10	1
4901784	209	C	03/25/2021	10:49	-135.348	43.072	0	745.50	0	4.0560	0	37.2260	4	29.559	0	738.252	0	12.4	4	4.0	4	-1E+10	1	-1E+10	1	-1E+10	1	-1E+10	1	-1E+10	1	-1E+10	1
4901784	209	C	03/25/2021	10:49	-135.348	43.072	0	750.70	0	4.0520	0	37.2330	4	29.565	0	743.392	0	12.2	4	4.0	4	-1E+10	1	-1E+10	1	-1E+10	1	-1E+10	1	-1E+10	1	-1E+10	1
4901784	209	C	03/25/2021	10:49	-135.348	43.072	0	754.90	0	4.0500	0	37.2340	4	29.566	0	747.544	0	12.1	4	3.9	4	-1E+10	1	-1E+10	1	-1E+10	1	-1E+10	1	-1E+10	1	-1E+10	1
4901784	209	C	03/25/2021	10:49	-135.348	43.072	0	759.30	0	4.0480	0	37.2370	4	29.568	0	751.893	0	11.9	4	3.9	4	-1E+10	1	-1E+10	1	-1E+10	1	-1E+10	1	-1E+10	1	-1E+10	1
4901784	209	C	03/25/2021	10:49	-135.348	43.072	0	764.60	0	4.0460	0	37.2410	4	29.572	0	757.132	0	11.7	4	3.8	4	-1E+10	1	-1E+10	1	-1E+10	1	-1E+10	1	-1E+10	1	-1E+10	1
4901784	209	C	03/25/2021	10:49	-135.348	43.072	0	769.80	0	4.0380	0	37.2470	4	29.578	0	762.272	0	11.5	4	3.7	4	-1E+10	1	-1E+10	1	-1E+10	1	-1E+10	1	-1E+10	1	-1E+10	1
4901784	209	C	03/25/2021	10:49	-135.348	43.072	0	774.90	0	4.0240	0	37.2530	4	29.584	0	767.312	0	11.4	4	3.7	4	-1E+10	1	-1E+10	1	-1E+10	1	-1E+10	1	-1E+10	1	-1E+10	1
4901784	209	C	03/25/2021	10:49	-135.348	43.072	0	780.00	0	4.0130	0	37.2560	4	29.588	0	772.353	0	11.3	4	3.6	4	-1E+10	1	-1E+10	1	-1E+10	1	-1E+10	1	-1E+10	1	-1E+10	1
4901784	209	C	03/25/2021	10:49	-135.348	43.072	0	785.30	0	4.0010	0	37.2600	4	29.592	0	777.591	0	11.2	4	3.6	4	-1E+10	1	-1E+10	1	-1E+10	1	-1E+10	1	-1E+10	1	-1E+10	1
4901784	209	C	03/25/2021	10:49	-135.348	43.072	0	790.50	0	3.9830	0	37.2660	4	29.599	0	782.730	0	11.1	4	3.6	4	-1E+10	1	-1E+10	1	-1E+10	1	-1E+10	1	-1E+10	1	-1E+10	1
4901784	209	C	03/25/2021	10:49	-135.348	43.072	0	795.00	0	3.9700	0	37.2690	4	29.603	0	787.178	0	11.0	4	3.5	4	-1E+10	1	-1E+10	1	-1E+10	1	-1E+10	1	-1E+10	1	-1E+10	1
4901784	209	C	03/25/2021	10:49	-135.348	43.072	0	799.50	0	3.9570	0	37.2740	4	29.608	0	791.625	0	10.9	4	3.5	4	-1E+10	1	-1E+10	1	-1E+10	1	-1E+10	1	-1E+10	1	-1E+10	1
4901784	209	C	03/25/2021	10:49	-135.348	43.072	0	804.90	0	3.9460	0	37.2770	4	29.612	0	796.961	0	10.8	4	3.5	4	-1E+10	1	-1E+10	1	-1E+10	1	-1E+10	1	-1E+10	1	-1E+10	1
4901784	209	C	03/25/2021	10:49	-135.348	43.072	0	810.50	0	3.9400	0	37.2790	4	29.614	0	802.495	0	10.8	4	3.5	4	-1E+10	1	-1E+10	1	-1E+10	1	-1E+10	1	-1E+10	1	-1E+10	1
4901784	209	C	03/25/2021	10:49	-135.348	43.072	0	815.20	0	3.9380	0	37.2790	4	29.614	0	807.140	0	10.7	4	3.5	4	-1E+10	1	-1E+10	1	-1E+10	1	-1E+10	1	-1E+10	1	-1E+10	1
4901784	209	C	03/25/2021	10:49	-135.348	43.072	0	819.80	0	3.9300	0	37.2810	4	29.617	0	811.685	0	10.7	4	3.4	4	-1E+10	1	-1E+10	1	-1E+10	1	-1E+10	1	-1E+10	1	-1E+10	1
4901784	209	C	03/25/2021	10:49	-135.348	43.072	0	825.50	0	3.9100	0	37.2870	4	29.624	0	817.318	0	10.6	4	3.4	4	-1E+10	1	-1E+10	1	-1E+10	1	-1E+10	1	-1E+10	1	-1E+10	1
4901784	209	C	03/25/2021	10:49	-135.348	43.072	0	830.10	0	3.9010	0	37.2890	4	29.627	0	821.863	0	10.5	4	3.4	4	-1E+10	1	-1E+10	1	-1E+10	1	-1E+10	1	-1E+10	1	-1E+10	1
4901784	209	C	03/25/2021	10:49	-135.348	43.072	0	834.90	0	3.8870	0	37.2930	4	29.631	0	826.606	0	10.4	4	3.4	4	-1E+10	1	-1E+10	1	-1E+10	1	-1E+10	1	-1E+10	1	-1E+10	1
4901784	209	C	03/25/2021	10:49	-135.348	43.072	0	840.50	0	3.8780	0	37.2960	4	29.635	0	832.139	0	10.4	4	3.3	4	-1E+10	1	-1E+10	1	-1E+10	1	-1E+10	1	-1E+10	1	-1E+10	1
4901784	209	C	03/25/2021	10:49	-135.348	43.072	0	845.30	0	3.8600	0	37.3010	4	29.641	0	836.882	0	10.3	4	3.3	4	-1E+10	1	-1E+10	1	-1E+10	1	-1E+10	1	-1E+10	1	-1E+10	1
4901784	209	C	03/25/2021	10:49	-135.348	43.072	0	850.00	0	3.8480	0	37.3040	4	29.644	0	841.526	0	10.2	4	3.3	4	-1E+10	1	-1E+10	1	-1E+10	1	-1E+10	1	-1E+10	1	-1E+10	1
4901784	209	C	03/25/2021	10:49	-135.348	43.072	0	854.60	0	3.8360	0	37.3080	4	29.649	0	846.071	0	10.2	4	3.3	4	-1E+10	1	-1E+10	1	-1E+10	1	-1E+10	1	-1E+10	1	-1E+10	1
4901784	209	C	03/25/2021	10:49	-135.348	43.072	0	860.10	0	3.8260	0	37.3110	4	29.653	0	851.505	0	10.1	4	3.3	4	-1E+10	1	-1E+10	1	-1E+10	1	-1E+10	1	-1E+10	1	-1E+10	1
4901784	209	C	03/25/2021	10:49	-135.348	43.072	0	865.30	0	3.8080	0	37.3170	4	29.659	0	856.642	0	10.1	4	3.2	4	-1E+10	1	-1E+10	1	-1E+10	1	-1E+10	1	-1E+10	1	-1E+10	1
4901784	209	C	03/25/2021	10:49	-135.348	43.072	0	870.20	0	3.8000	0	37.3190	4	29.662	0	861.483	0	10.1	4	3.2	4	-1E+10	1	-1E+10	1	-1E+10	1	-1E+10	1	-1E+10	1	-1E+10	1
4901784	209	C	03/25/2021	10:49	-135.348	43.072	0	875.10	0	3.7890	0	37.3230	4	29.666	0	866.324	0	10.0	4	3.2	4	-1E+10	1	-1E+10	1	-1E+10	1	-1E+10	1	-1E+10	1	-1E+10	1
4901784	209	C	03/25/2021	10:49	-135.348	43.072	0	880.10	0	3.7770	0	37.3290	4	29.672	0	871.263	0	10.0	4	3.2	4	-1E+10	1	-1E+10	1	-1E+10	1	-1E+10	1	-1E+10	1	-1E+10	1
4901784	209	C	03/25/2021	10:49	-135.348	43.072	0	885.10	0	3.7730	0	37.3330	4	29.676	0	876.202	0	10.0	4	3.2	4	-1E+10	1	-1E+10	1	-1E+10	1	-1E+10	1	-1E+10	1	-1E+10	1
4901784	209	C	03/25/2021	10:49	-135.348	43.072	0	890.20	0	3.7640	0	37.3380	4	29.681	0	881.240	0	10.0	4	3.2	4	-1E+10	1	-1E+10	1	-1E+10	1	-1E+10	1	-1E+10	1	-1E+10	1
4901784	209	C	03/25/2021	10:49	-135.348	43.072	0	895.40	0	3.7540	0	37.3400	4	29.684	0	886.377	0	10.0	4	3.2	4	-1E+10	1	-1E+10	1	-1E+10	1	-1E+10	1	-1E+10	1	-1E+10	1
4901784	209	C	03/25/2021	10:49	-135.348	43.072	0	900.60	0	3.7550	0	37.3430	4	29.686	0	891.514	0	10.0	4	3.2	4	-1E+10	1	-1E+10	1	-1E+10	1	-1E+10	1	-1E+10	1	-1E+10	1
4901784	209	C	03/25/2021	10:49	-135.348	43.072	0	905.00	0	3.7480	0	37.3440	4	29.688	0	895.860	0	9.9	4	3.2	4	-1E+10	1	-1E+10	1	-1E+10	1	-1E+10	1	-1E+10	1	-1E+10	1
4901784	209	C	03/25/2021	10:49	-135.348	43.072	0	909.40	0	3.7280	0	37.3480	4	29.693	0	900.206	0	9.9	4	3.2	4	-1E+10	1	-1E+10	1	-1E+10	1	-1E+10	1	-1E+10	1	-1E+10	1
4901784	209	C	03/25/2021	10:49	-135.348	43.072	0	914.70	0	3.7180	0	37.3530	4	29.698	0	905.441	0	10.0	4	3.2	4	-1E+10	1	-1E+10	1	-1E+10	1	-1E+10	1	-1E+10	1	-1E+10	1
4901784	209	C	03/25/2021	10:49	-135.348	43.072	0	919.90	0	3.7150	0	37.3540	4	29.699	0	910.577	0	10.0	4	3.2	4	-1E+10	1	-1E+10	1	-1E+10	1	-1E+10	1	-1E+10	1	-1E+10	1
4901784	209	C	03/25/2021	10:49	-135.348	43.072	0	925.20	0	3.6950	0	37.3590	4	29.705	0	915.812	0	10.0	4	3.2	4	-1E+10	1	-1E+10	1	-1E+10	1	-1E+10	1	-1E+10	1	-1E+10	1
4901784	209	C	03/25/2021	10:49	-135.348	43.072	0	930.50	0	3.6880	0	37.3610	4	29.708	0	921.046	0	10.0	4	3.2	4	-1E+10	1	-1E+10	1	-1E+10	1	-1E+10	1	-1E+10	1	-1E+10	1
4901784	209	C	03/25/2021	10:49	-135.348	43.072	0	935.00	0	3.6770	0	37.3640	4	29.711	0	925.490	0	10.0	4	3.2	4	-1E+10	1	-1E+10	1	-1E+10	1	-1E+10	1	-1E+10	1	-1E+10	1
4901784	209	C	03/25/2021	10:49	-135.348	43.072	0	939.40	0	3.6740	0	37.3650	4	29.713	0	929.836	0	10.0	4	3.2	4	-1E+10	1	-1E+10	1	-1E+10	1	-1E+10	1	-1E+10	1	-1E+10	1
4901784	209	C	03/25/2021	10:49	-135.348	43.072	0	944.80	0	3.6650	0	37.3660	4	29.714	0	935.169	0	10.0	4	3.2	4	-1E+10	1	-1E+10	1	-1E+10	1	-1E+10	1	-1E+10	1	-1E+10	1
4901784	209	C	03/25/2021	10:49	-135.348	43.072	0	950.20	0	3.6480	0	37.3710	4	29.720	0	940.502	0	10.1	4	3.2	4	-1E+10	1	-1E+10	1	-1E+10	1	-1E+10	1	-1E+10	1	-1E+10	1
4901784	209	C	03/25/2021	10:49	-135.348	43.072	0	955.60	0	3.6460	0	37.3760	4	29.724	0	945.834	0	10.1	4	3.2	4	-1E+10	1	-1E+10	1	-1E+10	1	-1E+10	1	-1E+10	1	-1E+10	1
4901784	209	C	03/25/2021	10:49	-135.348	43.072	0	960.20	0	3.6410	0	37.3780	4	29.727	0	950.377	0	10.1	4	3.2	4	-1E+10	1	-1E+10	1	-1E+10	1	-1E+10	1	-1E+10	1	-1E+10	1
4901784	209	C	03/25/2021	10:49	-135.348	43.072	0	964.70	0	3.6290	0	37.3810	4	29.730	0	954.821	0	10.2	4	3.3	4	-1E+10	1	-1E+10	1	-1E+10	1	-1E+10	1	-1E+10	1	-1E+10	1
4901784	209	C	03/25/2021	10:49	-135.348	43.072	0	970.20	0	3.6090	0	37.3840	4	29.735	0	960.252	0	10.2	4	3.3	4	-1E+10	1	-1E+10	1	-1E+10	1	-1E+10	1	-1E+10	1	-1E+10	1
4901784	209	C	03/25/2021	10:49	-135.348	43.072	0	975.60	0	3.5860	0	37.3860	4	29.739	0	965.584	0	10.3	4	3.3	4	-1E+10	1	-1E+10	1	-1E+10	1	-1E+10	1	-1E+10	1	-1E+10	1
4901784	209	C	03/25/2021	10:49	-135.348	43.072	0	980.30	0	3.5730	0	37.3900	4	29.743	0	970.225	0	10.3	4	3.3	4	-1E+10	1	-1E+10	1	-1E+10	1	-1E+10	1	-1E+10	1	-1E+10	1
4901784	209	C	03/25/2021	10:49	-135.348	43.072	0	984.90	0	3.5650	0	37.3920	4	29.746	0	974.767	0	10.3	4	3.3	4	-1E+10	1	-1E+10	1	-1E+10	1	-1E+10	1	-1E+10	1	-1E+10	1
4901784	209	C	03/25/2021	10:49	-135.348	43.072	0	990.40	0	3.5550	0	37.3940	4	29.749	0	980.197	0	10.3	4	3.3	4	-1E+10	1	-1E+10	1	-1E+10	1	-1E+10	1	-1E+10	1	-1E+10	1
4901784	209	C	03/25/2021	10:49	-135.348	43.072	0	995.60	0	3.5430	0	37.3980	4	29.753	0	985.332	0	10.4	4	3.3	4	-1E+10	1	-1E+10	1	-1E+10	1	-1E+10	1	-1E+10	1	-1E+10	1
4901784	209	C	03/25/2021	10:49	-135.348	43.072	0	1000.30	0	3.5310	0	37.4020	4	29.758	0	989.972	0	10.5	4	3.4	4	-1E+10	1	-1E+10	1	-1E+10	1	-1E+10	1	-1E+10	1	-1E+10	1
4901784	209	C	03/25/2021	10:49	-135.348	43.072	0	1005.10	0	3.5170	0	37.4050	4	29.761	0	994.711	0	10.6	4	3.4	4	-1E+10	1	-1E+10	1	-1E+10	1	-1E+10	1	-1E+10	1	-1E+10	1
4901784	209	C	03/25/2021	10:49	-135.348	43.072	0	1009.90	0	3.5030	0	37.4090	4	29.766	0	999.450	0	10.6	4	3.4	4	-1E+10	1	-1E+10	1	-1E+10	1	-1E+10	1	-1E+10	1	-1E+10	1
4901784	209	C	03/25/2021	10:49	-135.348	43.072	0	1014.80	0	3.4960	0	37.4100	4	29.768	0	1004.288	0	10.7	4	3.4	4	-1E+10	1	-1E+10	1	-1E+10	1	-1E+10	1	-1E+10	1	-1E+10	1
4901784	209	C	03/25/2021	10:49	-135.348	43.072	0	1019.70	0	3.4790	0	37.4140	4	29.773	0	1009.125	0	10.7	4	3.4	4	-1E+10	1	-1E+10	1	-1E+10	1	-1E+10	1	-1E+10	1	-1E+10	1
4901784	209	C	03/25/2021	10:49	-135.348	43.072	0	1024.60	0	3.4680	0	37.4150	4	29.775	0	1013.962	0	10.7	4	3.4	4	-1E+10	1	-1E+10	1	-1E+10	1	-1E+10	1	-1E+10	1	-1E+10	1
4901784	209	C	03/25/2021	10:49	-135.348	43.072	0	1029.60	0	3.4610	0	37.4170	4	29.777	0	1018.898	0	10.8	4	3.4	4	-1E+10	1	-1E+10	1	-1E+10	1	-1E+10	1	-1E+10	1	-1E+10	1
4901784	209	C	03/25/2021	10:49	-135.348	43.072	0	1034.60	0	3.4440	0	37.4200	4	29.781	0	1023.834	0	10.8	4	3.5	4	-1E+10	1	-1E+10	1	-1E+10	1	-1E+10	1	-1E+10	1	-1E+10	1
4901784	209	C	03/25/2021	10:49	-135.348	43.072	0	1039.60	0	3.4270	0	37.4220	4	29.785	0	1028.770	0	10.9	4	3.5	4	-1E+10	1	-1E+10	1	-1E+10	1	-1E+10	1	-1E+10	1	-1E+10	1
4901784	209	C	03/25/2021	10:49	-135.348	43.072	0	1044.60	0	3.4210	0	37.4240	4	29.787	0	1033.705	0	11.0	4	3.5	4	-1E+10	1	-1E+10	1	-1E+10	1	-1E+10	1	-1E+10	1	-1E+10	1
4901784	209	C	03/25/2021	10:49	-135.348	43.072	0	1049.60	0	3.4070	0	37.4280	4	29.792	0	1038.641	0	11.2	4	3.6	4	-1E+10	1	-1E+10	1	-1E+10	1	-1E+10	1	-1E+10	1	-1E+10	1
4901784	209	C	03/25/2021	10:49	-135.348	43.072	0	1054.70	0	3.3840	0	37.4330	4	29.798	0	1043.675	0	11.3	4	3.6	4	-1E+10	1	-1E+10	1	-1E+10	1	-1E+10	1	-1E+10	1	-1E+10	1
4901784	209	C	03/25/2021	10:49	-135.348	43.072	0	1059.70	0	3.3760	0	37.4360	4	29.801	0	1048.610	0	11.3	4	3.6	4	-1E+10	1	-1E+10	1	-1E+10	1	-1E+10	1	-1E+10	1	-1E+10	1
4901784	209	C	03/25/2021	10:49	-135.348	43.072	0	1064.80	0	3.3640	0	37.4380	4	29.804	0	1053.644	0	11.4	4	3.6	4	-1E+10	1	-1E+10	1	-1E+10	1	-1E+10	1	-1E+10	1	-1E+10	1
4901784	209	C	03/25/2021	10:49	-135.348	43.072	0	1070.00	0	3.3500	0	37.4400	4	29.807	0	1058.776	0	11.5	4	3.7	4	-1E+10	1	-1E+10	1	-1E+10	1	-1E+10	1	-1E+10	1	-1E+10	1
4901784	209	C	03/25/2021	10:49	-135.348	43.072	0	1075.10	0	3.3410	0	37.4430	4	29.811	0	1063.810	0	11.6	4	3.7	4	-1E+10	1	-1E+10	1	-1E+10	1	-1E+10	1	-1E+10	1	-1E+10	1
4901784	209	C	03/25/2021	10:49	-135.348	43.072	0	1080.20	0	3.3290	0	37.4450	4	29.813	0	1068.843	0	11.7	4	3.7	4	-1E+10	1	-1E+10	1	-1E+10	1	-1E+10	1	-1E+10	1	-1E+10	1
4901784	209	C	03/25/2021	10:49	-135.348	43.072	0	1085.20	0	3.3170	0	37.4480	4	29.817	0	1073.778	0	11.8	4	3.7	4	-1E+10	1	-1E+10	1	-1E+10	1	-1E+10	1	-1E+10	1	-1E+10	1
4901784	209	C	03/25/2021	10:49	-135.348	43.072	0	1090.20	0	3.3060	0	37.4500	4	29.820	0	1078.713	0	11.9	4	3.8	4	-1E+10	1	-1E+10	1	-1E+10	1	-1E+10	1	-1E+10	1	-1E+10	1
4901784	209	C	03/25/2021	10:49	-135.348	43.072	0	1095.30	0	3.2890	0	37.4530	4	29.824	0	1083.746	0	12.0	4	3.8	4	-1E+10	1	-1E+10	1	-1E+10	1	-1E+10	1	-1E+10	1	-1E+10	1
4901784	209	C	03/25/2021	10:49	-135.348	43.072	0	1100.30	0	3.2790	0	37.4560	4	29.827	0	1088.680	0	12.1	4	3.9	4	-1E+10	1	-1E+10	1	-1E+10	1	-1E+10	1	-1E+10	1	-1E+10	1
4901784	209	C	03/25/2021	10:49	-135.348	43.072	0	1105.30	0	3.2540	0	37.4590	4	29.832	0	1093.614	0	12.2	4	3.9	4	-1E+10	1	-1E+10	1	-1E+10	1	-1E+10	1	-1E+10	1	-1E+10	1
4901784	209	C	03/25/2021	10:49	-135.348	43.072	0	1110.30	0	3.2430	0	37.4610	4	29.835	0	1098.548	0	12.4	4	4.0	4	-1E+10	1	-1E+10	1	-1E+10	1	-1E+10	1	-1E+10	1	-1E+10	1
4901784	209	C	03/25/2021	10:49	-135.348	43.072	0	1114.70	0	3.2430	0	37.4660	4	29.839	0	1102.890	0	12.6	4	4.0	4	-1E+10	1	-1E+10	1	-1E+10	1	-1E+10	1	-1E+10	1	-1E+10	1
4901784	209	C	03/25/2021	10:49	-135.348	43.072	0	1119.40	0	3.2310	0	37.4670	4	29.841	0	1107.528	0	12.7	4	4.0	4	-1E+10	1	-1E+10	1	-1E+10	1	-1E+10	1	-1E+10	1	-1E+10	1
4901784	209	C	03/25/2021	10:49	-135.348	43.072	0	1124.90	0	3.2170	0	37.4700	4	29.845	0	1112.955	0	12.8	4	4.1	4	-1E+10	1	-1E+10	1	-1E+10	1	-1E+10	1	-1E+10	1	-1E+10	1
4901784	209	C	03/25/2021	10:49	-135.348	43.072	0	1130.60	0	3.2010	0	37.4710	4	29.848	0	1118.579	0	12.9	4	4.1	4	-1E+10	1	-1E+10	1	-1E+10	1	-1E+10	1	-1E+10	1	-1E+10	1
4901784	209	C	03/25/2021	10:49	-135.348	43.072	0	1135.30	0	3.1720	0	37.4770	4	29.855	0	1123.217	0	13.1	4	4.1	4	-1E+10	1	-1E+10	1	-1E+10	1	-1E+10	1	-1E+10	1	-1E+10	1
4901784	209	C	03/25/2021	10:49	-135.348	43.072	0	1140.60	0	3.1640	0	37.4790	4	29.858	0	1128.446	0	13.1	4	4.2	4	-1E+10	1	-1E+10	1	-1E+10	1	-1E+10	1	-1E+10	1	-1E+10	1
4901784	209	C	03/25/2021	10:49	-135.348	43.072	0	1145.40	0	3.1580	0	37.4800	4	29.859	0	1133.182	0	13.2	4	4.2	4	-1E+10	1	-1E+10	1	-1E+10	1	-1E+10	1	-1E+10	1	-1E+10	1
4901784	209	C	03/25/2021	10:49	-135.348	43.072	0	1150.20	0	3.1480	0	37.4820	4	29.862	0	1137.918	0	13.4	4	4.2	4	-1E+10	1	-1E+10	1	-1E+10	1	-1E+10	1	-1E+10	1	-1E+10	1
4901784	209	C	03/25/2021	10:49	-135.348	43.072	0	1155.10	0	3.1290	0	37.4850	4	29.866	0	1142.752	0	13.6	4	4.3	4	-1E+10	1	-1E+10	1	-1E+10	1	-1E+10	1	-1E+10	1	-1E+10	1
4901784	209	C	03/25/2021	10:49	-135.348	43.072	0	1160.00	0	3.1170	0	37.4880	4	29.870	0	1147.587	0	13.7	4	4.3	4	-1E+10	1	-1E+10	1	-1E+10	1	-1E+10	1	-1E+10	1	-1E+10	1
4901784	209	C	03/25/2021	10:49	-135.348	43.072	0	1164.90	0	3.1050	0	37.4910	4	29.873	0	1152.421	0	13.9	4	4.4	4	-1E+10	1	-1E+10	1	-1E+10	1	-1E+10	1	-1E+10	1	-1E+10	1
4901784	209	C	03/25/2021	10:49	-135.348	43.072	0	1169.80	0	3.0960	0	37.4930	4	29.876	0	1157.255	0	14.0	4	4.4	4	-1E+10	1	-1E+10	1	-1E+10	1	-1E+10	1	-1E+10	1	-1E+10	1
4901784	209	C	03/25/2021	10:49	-135.348	43.072	0	1174.80	0	3.0890	0	37.4950	4	29.878	0	1162.187	0	14.1	4	4.5	4	-1E+10	1	-1E+10	1	-1E+10	1	-1E+10	1	-1E+10	1	-1E+10	1
4901784	209	C	03/25/2021	10:49	-135.348	43.072	0	1179.70	0	3.0820	0	37.4960	4	29.880	0	1167.021	0	14.2	4	4.5	4	-1E+10	1	-1E+10	1	-1E+10	1	-1E+10	1	-1E+10	1	-1E+10	1
4901784	209	C	03/25/2021	10:49	-135.348	43.072	0	1184.60	0	3.0690	0	37.4980	4	29.883	0	1171.855	0	14.4	4	4.6	4	-1E+10	1	-1E+10	1	-1E+10	1	-1E+10	1	-1E+10	1	-1E+10	1
4901784	209	C	03/25/2021	10:49	-135.348	43.072	0	1189.50	0	3.0520	0	37.5010	4	29.887	0	1176.688	0	14.6	4	4.6	4	-1E+10	1	-1E+10	1	-1E+10	1	-1E+10	1	-1E+10	1	-1E+10	1
4901784	209	C	03/25/2021	10:49	-135.348	43.072	0	1194.40	0	3.0440	0	37.5030	4	29.889	0	1181.522	0	14.7	4	4.6	4	-1E+10	1	-1E+10	1	-1E+10	1	-1E+10	1	-1E+10	1	-1E+10	1
4901784	209	C	03/25/2021	10:49	-135.348	43.072	0	1199.40	0	3.0350	0	37.5050	4	29.892	0	1186.454	0	14.8	4	4.7	4	-1E+10	1	-1E+10	1	-1E+10	1	-1E+10	1	-1E+10	1	-1E+10	1
4901784	209	C	03/25/2021	10:49	-135.348	43.072	0	1204.50	0	3.0230	0	37.5070	4	29.895	0	1191.484	0	15.0	4	4.7	4	-1E+10	1	-1E+10	1	-1E+10	1	-1E+10	1	-1E+10	1	-1E+10	1
4901784	209	C	03/25/2021	10:49	-135.348	43.072	0	1209.60	0	3.0090	0	37.5090	4	29.898	0	1196.515	0	15.2	4	4.8	4	-1E+10	1	-1E+10	1	-1E+10	1	-1E+10	1	-1E+10	1	-1E+10	1
4901784	209	C	03/25/2021	10:49	-135.348	43.072	0	1214.60	0	2.9880	0	37.5140	4	29.904	0	1201.446	0	15.4	4	4.9	4	-1E+10	1	-1E+10	1	-1E+10	1	-1E+10	1	-1E+10	1	-1E+10	1
4901784	209	C	03/25/2021	10:49	-135.348	43.072	0	1219.80	0	2.9860	0	37.5140	4	29.904	0	1206.575	0	15.5	4	4.9	4	-1E+10	1	-1E+10	1	-1E+10	1	-1E+10	1	-1E+10	1	-1E+10	1
4901784	209	C	03/25/2021	10:49	-135.348	43.072	0	1224.90	0	2.9740	0	37.5160	4	29.907	0	1211.605	0	15.6	4	4.9	4	-1E+10	1	-1E+10	1	-1E+10	1	-1E+10	1	-1E+10	1	-1E+10	1
4901784	209	C	03/25/2021	10:49	-135.348	43.072	0	1230.00	0	2.9640	0	37.5180	4	29.909	0	1216.635	0	15.7	4	5.0	4	-1E+10	1	-1E+10	1	-1E+10	1	-1E+10	1	-1E+10	1	-1E+10	1
4901784	209	C	03/25/2021	10:49	-135.348	43.072	0	1234.90	0	2.9550	0	37.5190	4	29.911	0	1221.468	0	15.9	4	5.0	4	-1E+10	1	-1E+10	1	-1E+10	1	-1E+10	1	-1E+10	1	-1E+10	1
4901784	209	C	03/25/2021	10:49	-135.348	43.072	0	1239.70	0	2.9390	0	37.5230	4	29.916	0	1226.201	0	16.0	4	5.1	4	-1E+10	1	-1E+10	1	-1E+10	1	-1E+10	1	-1E+10	1	-1E+10	1
4901784	209	C	03/25/2021	10:49	-135.348	43.072	0	1244.60	0	2.9370	0	37.5230	4	29.916	0	1231.034	0	16.1	4	5.1	4	-1E+10	1	-1E+10	1	-1E+10	1	-1E+10	1	-1E+10	1	-1E+10	1
4901784	209	C	03/25/2021	10:49	-135.348	43.072	0	1249.50	0	2.9290	0	37.5240	4	29.918	0	1235.866	0	16.2	4	5.1	4	-1E+10	1	-1E+10	1	-1E+10	1	-1E+10	1	-1E+10	1	-1E+10	1
4901784	209	C	03/25/2021	10:49	-135.348	43.072	0	1254.50	0	2.9230	0	37.5260	4	29.920	0	1240.797	0	16.3	4	5.2	4	-1E+10	1	-1E+10	1	-1E+10	1	-1E+10	1	-1E+10	1	-1E+10	1
4901784	209	C	03/25/2021	10:49	-135.348	43.072	0	1259.50	0	2.9150	0	37.5280	4	29.922	0	1245.727	0	16.5	4	5.2	4	-1E+10	1	-1E+10	1	-1E+10	1	-1E+10	1	-1E+10	1	-1E+10	1
4901784	209	C	03/25/2021	10:49	-135.348	43.072	0	1264.40	0	2.9050	0	37.5300	4	29.925	0	1250.559	0	16.7	4	5.3	4	-1E+10	1	-1E+10	1	-1E+10	1	-1E+10	1	-1E+10	1	-1E+10	1
4901784	209	C	03/25/2021	10:49	-135.348	43.072	0	1269.50	0	2.9010	0	37.5310	4	29.926	0	1255.588	0	16.8	4	5.3	4	-1E+10	1	-1E+10	1	-1E+10	1	-1E+10	1	-1E+10	1	-1E+10	1
4901784	209	C	03/25/2021	10:49	-135.348	43.072	0	1274.50	0	2.8940	0	37.5320	4	29.928	0	1260.518	0	17.0	4	5.4	4	-1E+10	1	-1E+10	1	-1E+10	1	-1E+10	1	-1E+10	1	-1E+10	1
4901784	209	C	03/25/2021	10:49	-135.348	43.072	0	1279.60	0	2.8860	0	37.5340	4	29.930	0	1265.547	0	17.2	4	5.4	4	-1E+10	1	-1E+10	1	-1E+10	1	-1E+10	1	-1E+10	1	-1E+10	1
4901784	209	C	03/25/2021	10:49	-135.348	43.072	0	1284.60	0	2.8750	0	37.5370	4	29.934	0	1270.477	0	17.5	4	5.5	4	-1E+10	1	-1E+10	1	-1E+10	1	-1E+10	1	-1E+10	1	-1E+10	1
4901784	209	C	03/25/2021	10:49	-135.348	43.072	0	1289.70	0	2.8680	0	37.5370	4	29.934	0	1275.506	0	17.8	4	5.6	4	-1E+10	1	-1E+10	1	-1E+10	1	-1E+10	1	-1E+10	1	-1E+10	1
4901784	209	C	03/25/2021	10:49	-135.348	43.072	0	1294.80	0	2.8480	0	37.5410	4	29.940	0	1280.534	0	18.1	4	5.7	4	-1E+10	1	-1E+10	1	-1E+10	1	-1E+10	1	-1E+10	1	-1E+10	1
4901784	209	C	03/25/2021	10:49	-135.348	43.072	0	1299.90	0	2.8310	0	37.5450	4	29.944	0	1285.562	0	18.4	4	5.8	4	-1E+10	1	-1E+10	1	-1E+10	1	-1E+10	1	-1E+10	1	-1E+10	1
4901784	209	C	03/25/2021	10:49	-135.348	43.072	0	1305.10	0	2.8280	0	37.5460	4	29.946	0	1290.689	0	18.6	4	5.9	4	-1E+10	1	-1E+10	1	-1E+10	1	-1E+10	1	-1E+10	1	-1E+10	1
4901784	209	C	03/25/2021	10:49	-135.348	43.072	0	1310.40	0	2.8150	0	37.5480	4	29.948	0	1295.914	0	18.9	4	6.0	4	-1E+10	1	-1E+10	1	-1E+10	1	-1E+10	1	-1E+10	1	-1E+10	1
4901784	209	C	03/25/2021	10:49	-135.348	43.072	0	1315.70	0	2.8010	0	37.5510	4	29.952	0	1301.139	0	19.2	4	6.0	4	-1E+10	1	-1E+10	1	-1E+10	1	-1E+10	1	-1E+10	1	-1E+10	1
4901784	209	C	03/25/2021	10:49	-135.348	43.072	0	1320.20	0	2.7970	0	37.5510	4	29.953	0	1305.575	0	19.5	4	6.1	4	-1E+10	1	-1E+10	1	-1E+10	1	-1E+10	1	-1E+10	1	-1E+10	1
4901784	209	C	03/25/2021	10:49	-135.348	43.072	0	1324.60	0	2.7860	0	37.5540	4	29.956	0	1309.913	0	19.7	4	6.2	4	-1E+10	1	-1E+10	1	-1E+10	1	-1E+10	1	-1E+10	1	-1E+10	1
4901784	209	C	03/25/2021	10:49	-135.348	43.072	0	1330.00	0	2.7690	0	37.5570	4	29.960	0	1315.236	0	20.0	4	6.3	4	-1E+10	1	-1E+10	1	-1E+10	1	-1E+10	1	-1E+10	1	-1E+10	1
4901784	209	C	03/25/2021	10:49	-135.348	43.072	0	1335.40	0	2.7600	0	37.5590	4	29.963	0	1320.559	0	20.2	4	6.4	4	-1E+10	1	-1E+10	1	-1E+10	1	-1E+10	1	-1E+10	1	-1E+10	1
4901784	209	C	03/25/2021	10:49	-135.348	43.072	0	1339.90	0	2.7550	0	37.5600	4	29.964	0	1324.995	0	20.5	4	6.4	4	-1E+10	1	-1E+10	1	-1E+10	1	-1E+10	1	-1E+10	1	-1E+10	1
4901784	209	C	03/25/2021	10:49	-135.348	43.072	0	1344.40	0	2.7450	0	37.5620	4	29.967	0	1329.431	0	20.7	4	6.5	4	-1E+10	1	-1E+10	1	-1E+10	1	-1E+10	1	-1E+10	1	-1E+10	1
4901784	209	C	03/25/2021	10:49	-135.348	43.072	0	1349.90	0	2.7360	0	37.5640	4	29.969	0	1334.852	0	21.0	4	6.6	4	-1E+10	1	-1E+10	1	-1E+10	1	-1E+10	1	-1E+10	1	-1E+10	1
4901784	209	C	03/25/2021	10:49	-135.348	43.072	0	1355.40	0	2.7230	0	37.5660	4	29.972	0	1340.274	0	21.3	4	6.7	4	-1E+10	1	-1E+10	1	-1E+10	1	-1E+10	1	-1E+10	1	-1E+10	1
4901784	209	C	03/25/2021	10:49	-135.348	43.072	0	1359.90	0	2.7070	0	37.5700	4	29.977	0	1344.709	0	21.6	4	6.8	4	-1E+10	1	-1E+10	1	-1E+10	1	-1E+10	1	-1E+10	1	-1E+10	1
4901784	209	C	03/25/2021	10:49	-135.348	43.072	0	1365.10	0	2.7040	0	37.5710	4	29.978	0	1349.834	0	21.6	4	6.8	4	-1E+10	1	-1E+10	1	-1E+10	1	-1E+10	1	-1E+10	1	-1E+10	1
4901784	209	C	03/25/2021	10:49	-135.348	43.072	0	1370.20	0	2.7020	0	37.5710	4	29.978	0	1354.861	0	21.7	4	6.8	4	-1E+10	1	-1E+10	1	-1E+10	1	-1E+10	1	-1E+10	1	-1E+10	1
4901784	209	C	03/25/2021	10:49	-135.348	43.072	0	1375.00	0	2.6990	0	37.5720	4	29.979	0	1359.592	0	21.8	4	6.9	4	-1E+10	1	-1E+10	1	-1E+10	1	-1E+10	1	-1E+10	1	-1E+10	1
4901784	209	C	03/25/2021	10:49	-135.348	43.072	0	1379.80	0	2.6980	0	37.5730	4	29.980	0	1364.322	0	22.0	4	6.9	4	-1E+10	1	-1E+10	1	-1E+10	1	-1E+10	1	-1E+10	1	-1E+10	1
4901784	209	C	03/25/2021	10:49	-135.348	43.072	0	1384.70	0	2.6930	0	37.5730	4	29.981	0	1369.152	0	22.2	4	7.0	4	-1E+10	1	-1E+10	1	-1E+10	1	-1E+10	1	-1E+10	1	-1E+10	1
4901784	209	C	03/25/2021	10:49	-135.348	43.072	0	1389.50	0	2.6830	0	37.5750	4	29.983	0	1373.882	0	22.6	4	7.1	4	-1E+10	1	-1E+10	1	-1E+10	1	-1E+10	1	-1E+10	1	-1E+10	1
4901784	209	C	03/25/2021	10:49	-135.348	43.072	0	1394.40	0	2.6710	0	37.5770	4	29.986	0	1378.711	0	22.9	4	7.2	4	-1E+10	1	-1E+10	1	-1E+10	1	-1E+10	1	-1E+10	1	-1E+10	1
4901784	209	C	03/25/2021	10:49	-135.348	43.072	0	1399.40	0	2.6580	0	37.5790	4	29.989	0	1383.638	0	23.3	4	7.3	4	-1E+10	1	-1E+10	1	-1E+10	1	-1E+10	1	-1E+10	1	-1E+10	1
4901784	209	C	03/25/2021	10:49	-135.348	43.072	0	1404.40	0	2.6420	0	37.5820	4	29.993	0	1388.566	0	23.6	4	7.4	4	-1E+10	1	-1E+10	1	-1E+10	1	-1E+10	1	-1E+10	1	-1E+10	1
4901784	209	C	03/25/2021	10:49	-135.348	43.072	0	1409.40	0	2.6360	0	37.5840	4	29.995	0	1393.493	0	23.8	4	7.5	4	-1E+10	1	-1E+10	1	-1E+10	1	-1E+10	1	-1E+10	1	-1E+10	1
4901784	209	C	03/25/2021	10:49	-135.348	43.072	0	1414.60	0	2.6280	0	37.5860	4	29.997	0	1398.617	0	24.1	4	7.6	4	-1E+10	1	-1E+10	1	-1E+10	1	-1E+10	1	-1E+10	1	-1E+10	1
4901784	209	C	03/25/2021	10:49	-135.348	43.072	0	1419.70	0	2.6230	0	37.5870	4	29.999	0	1403.642	0	24.3	4	7.6	4	-1E+10	1	-1E+10	1	-1E+10	1	-1E+10	1	-1E+10	1	-1E+10	1
4901784	209	C	03/25/2021	10:49	-135.348	43.072	0	1424.90	0	2.6160	0	37.5880	4	30.000	0	1408.766	0	24.6	4	7.7	4	-1E+10	1	-1E+10	1	-1E+10	1	-1E+10	1	-1E+10	1	-1E+10	1
4901784	209	C	03/25/2021	10:49	-135.348	43.072	0	1430.00	0	2.6070	0	37.5900	4	30.003	0	1413.791	0	24.9	4	7.8	4	-1E+10	1	-1E+10	1	-1E+10	1	-1E+10	1	-1E+10	1	-1E+10	1
4901784	209	C	03/25/2021	10:49	-135.348	43.072	0	1435.20	0	2.5960	0	37.5920	4	30.005	0	1418.915	0	25.1	4	7.9	4	-1E+10	1	-1E+10	1	-1E+10	1	-1E+10	1	-1E+10	1	-1E+10	1
4901784	209	C	03/25/2021	10:49	-135.348	43.072	0	1440.50	0	2.5920	0	37.5930	4	30.007	0	1424.137	0	25.3	4	7.9	4	-1E+10	1	-1E+10	1	-1E+10	1	-1E+10	1	-1E+10	1	-1E+10	1
4901784	209	C	03/25/2021	10:49	-135.348	43.072	0	1444.90	0	2.5890	0	37.5930	4	30.007	0	1428.472	0	25.5	4	8.0	4	-1E+10	1	-1E+10	1	-1E+10	1	-1E+10	1	-1E+10	1	-1E+10	1
4901784	209	C	03/25/2021	10:49	-135.348	43.072	0	1449.30	0	2.5820	0	37.5950	4	30.009	0	1432.807	0	25.7	4	8.1	4	-1E+10	1	-1E+10	1	-1E+10	1	-1E+10	1	-1E+10	1	-1E+10	1
4901784	209	C	03/25/2021	10:49	-135.348	43.072	0	1454.60	0	2.5710	0	37.5970	4	30.012	0	1438.029	0	26.0	4	8.1	4	-1E+10	1	-1E+10	1	-1E+10	1	-1E+10	1	-1E+10	1	-1E+10	1
4901784	209	C	03/25/2021	10:49	-135.348	43.072	0	1460.00	0	2.5600	0	37.5980	4	30.014	0	1443.349	0	26.2	4	8.2	4	-1E+10	1	-1E+10	1	-1E+10	1	-1E+10	1	-1E+10	1	-1E+10	1
4901784	209	C	03/25/2021	10:49	-135.348	43.072	0	1465.30	0	2.5500	0	37.6000	4	30.016	0	1448.570	0	26.4	4	8.3	4	-1E+10	1	-1E+10	1	-1E+10	1	-1E+10	1	-1E+10	1	-1E+10	1
4901784	209	C	03/25/2021	10:49	-135.348	43.072	0	1469.90	0	2.5470	0	37.6010	4	30.017	0	1453.102	0	26.5	4	8.3	4	-1E+10	1	-1E+10	1	-1E+10	1	-1E+10	1	-1E+10	1	-1E+10	1
4901784	209	C	03/25/2021	10:49	-135.348	43.072	0	1474.40	0	2.5450	0	37.6010	4	30.018	0	1457.535	0	26.7	4	8.3	4	-1E+10	1	-1E+10	1	-1E+10	1	-1E+10	1	-1E+10	1	-1E+10	1
4901784	209	C	03/25/2021	10:49	-135.348	43.072	0	1479.90	0	2.5360	0	37.6030	4	30.020	0	1462.953	0	27.0	4	8.4	4	-1E+10	1	-1E+10	1	-1E+10	1	-1E+10	1	-1E+10	1	-1E+10	1
4901784	209	C	03/25/2021	10:49	-135.348	43.072	0	1485.40	0	2.5300	0	37.6030	4	30.021	0	1468.371	0	27.2	4	8.5	4	-1E+10	1	-1E+10	1	-1E+10	1	-1E+10	1	-1E+10	1	-1E+10	1
4901784	209	C	03/25/2021	10:49	-135.348	43.072	0	1490.00	0	2.5210	0	37.6050	4	30.023	0	1472.902	0	27.6	4	8.6	4	-1E+10	1	-1E+10	1	-1E+10	1	-1E+10	1	-1E+10	1	-1E+10	1
4901784	209	C	03/25/2021	10:49	-135.348	43.072	0	1494.60	0	2.5070	0	37.6070	4	30.026	0	1477.433	0	27.9	4	8.7	4	-1E+10	1	-1E+10	1	-1E+10	1	-1E+10	1	-1E+10	1	-1E+10	1
4901784	209	C	03/25/2021	10:49	-135.348	43.072	0	1500.20	0	2.4990	0	37.6090	4	30.028	0	1482.949	0	28.2	4	8.8	4	-1E+10	1	-1E+10	1	-1E+10	1	-1E+10	1	-1E+10	1	-1E+10	1
4901784	209	C	03/25/2021	10:49	-135.348	43.072	0	1504.80	0	2.4910	0	37.6110	4	30.031	0	1487.480	0	28.5	4	8.9	4	-1E+10	1	-1E+10	1	-1E+10	1	-1E+10	1	-1E+10	1	-1E+10	1
4901784	209	C	03/25/2021	10:49	-135.348	43.072	0	1509.50	0	2.4830	0	37.6130	4	30.033	0	1492.109	0	28.7	4	9.0	4	-1E+10	1	-1E+10	1	-1E+10	1	-1E+10	1	-1E+10	1	-1E+10	1
4901784	209	C	03/25/2021	10:49	-135.348	43.072	0	1515.10	0	2.4820	0	37.6140	4	30.034	0	1497.625	0	28.8	4	9.0	4	-1E+10	1	-1E+10	1	-1E+10	1	-1E+10	1	-1E+10	1	-1E+10	1
4901784	209	C	03/25/2021	10:49	-135.348	43.072	0	1520.50	0	2.4800	0	37.6140	4	30.034	0	1502.944	0	29.0	4	9.1	4	-1E+10	1	-1E+10	1	-1E+10	1	-1E+10	1	-1E+10	1	-1E+10	1
4901784	209	C	03/25/2021	10:49	-135.348	43.072	0	1525.40	0	2.4730	0	37.6150	4	30.036	0	1507.770	0	29.3	4	9.1	4	-1E+10	1	-1E+10	1	-1E+10	1	-1E+10	1	-1E+10	1	-1E+10	1
4901784	209	C	03/25/2021	10:49	-135.348	43.072	0	1530.30	0	2.4640	0	37.6160	4	30.037	0	1512.596	0	29.6	4	9.2	4	-1E+10	1	-1E+10	1	-1E+10	1	-1E+10	1	-1E+10	1	-1E+10	1
4901784	209	C	03/25/2021	10:49	-135.348	43.072	0	1535.20	0	2.4540	0	37.6170	4	30.039	0	1517.421	0	30.0	4	9.3	4	-1E+10	1	-1E+10	1	-1E+10	1	-1E+10	1	-1E+10	1	-1E+10	1
4901784	209	C	03/25/2021	10:49	-135.348	43.072	0	1540.20	0	2.4400	0	37.6200	4	30.043	0	1522.345	0	30.4	4	9.5	4	-1E+10	1	-1E+10	1	-1E+10	1	-1E+10	1	-1E+10	1	-1E+10	1
4901784	209	C	03/25/2021	10:49	-135.348	43.072	0	1545.10	0	2.4290	0	37.6220	4	30.046	0	1527.171	0	30.8	4	9.6	4	-1E+10	1	-1E+10	1	-1E+10	1	-1E+10	1	-1E+10	1	-1E+10	1
4901784	209	C	03/25/2021	10:49	-135.348	43.072	0	1550.10	0	2.4190	0	37.6240	4	30.048	0	1532.095	0	31.2	4	9.7	4	-1E+10	1	-1E+10	1	-1E+10	1	-1E+10	1	-1E+10	1	-1E+10	1
4901784	209	C	03/25/2021	10:49	-135.348	43.072	0	1555.10	0	2.4070	0	37.6260	4	30.051	0	1537.018	0	31.6	4	9.9	4	-1E+10	1	-1E+10	1	-1E+10	1	-1E+10	1	-1E+10	1	-1E+10	1
4901784	209	C	03/25/2021	10:49	-135.348	43.072	0	1560.10	0	2.3970	0	37.6270	4	30.053	0	1541.942	0	31.9	4	9.9	4	-1E+10	1	-1E+10	1	-1E+10	1	-1E+10	1	-1E+10	1	-1E+10	1
4901784	209	C	03/25/2021	10:49	-135.348	43.072	0	1565.10	0	2.3890	0	37.6290	4	30.055	0	1546.866	0	32.1	4	10.0	4	-1E+10	1	-1E+10	1	-1E+10	1	-1E+10	1	-1E+10	1	-1E+10	1
4901784	209	C	03/25/2021	10:49	-135.348	43.072	0	1570.10	0	2.3860	0	37.6300	4	30.056	0	1551.789	0	32.3	4	10.1	4	-1E+10	1	-1E+10	1	-1E+10	1	-1E+10	1	-1E+10	1	-1E+10	1
4901784	209	C	03/25/2021	10:49	-135.348	43.072	0	1575.20	0	2.3810	0	37.6310	4	30.057	0	1556.811	0	32.6	4	10.2	4	-1E+10	1	-1E+10	1	-1E+10	1	-1E+10	1	-1E+10	1	-1E+10	1
4901784	209	C	03/25/2021	10:49	-135.348	43.072	0	1580.30	0	2.3750	0	37.6320	4	30.059	0	1561.833	0	32.9	4	10.2	4	-1E+10	1	-1E+10	1	-1E+10	1	-1E+10	1	-1E+10	1	-1E+10	1
4901784	209	C	03/25/2021	10:49	-135.348	43.072	0	1585.50	0	2.3690	0	37.6340	4	30.061	0	1566.952	0	33.1	4	10.3	4	-1E+10	1	-1E+10	1	-1E+10	1	-1E+10	1	-1E+10	1	-1E+10	1
4901784	209	C	03/25/2021	10:49	-135.348	43.072	0	1590.60	0	2.3660	0	37.6350	4	30.062	0	1571.974	0	33.4	4	10.4	4	-1E+10	1	-1E+10	1	-1E+10	1	-1E+10	1	-1E+10	1	-1E+10	1
4901784	209	C	03/25/2021	10:49	-135.348	43.072	0	1594.90	0	2.3590	0	37.6370	4	30.064	0	1576.208	0	33.7	4	10.5	4	-1E+10	1	-1E+10	1	-1E+10	1	-1E+10	1	-1E+10	1	-1E+10	1
4901784	209	C	03/25/2021	10:49	-135.348	43.072	0	1599.20	0	2.3540	0	37.6380	4	30.066	0	1580.441	0	34.0	4	10.6	4	-1E+10	1	-1E+10	1	-1E+10	1	-1E+10	1	-1E+10	1	-1E+10	1
4901784	209	C	03/25/2021	10:49	-135.348	43.072	0	1604.40	0	2.3480	0	37.6380	4	30.066	0	1585.561	0	34.4	4	10.7	4	-1E+10	1	-1E+10	1	-1E+10	1	-1E+10	1	-1E+10	1	-1E+10	1
4901784	209	C	03/25/2021	10:49	-135.348	43.072	0	1609.50	0	2.3340	0	37.6410	4	30.070	0	1590.582	0	34.9	4	10.8	4	-1E+10	1	-1E+10	1	-1E+10	1	-1E+10	1	-1E+10	1	-1E+10	1
4901784	209	C	03/25/2021	10:49	-135.348	43.072	0	1614.60	0	2.3260	0	37.6430	4	30.072	0	1595.602	0	35.1	4	10.9	4	-1E+10	1	-1E+10	1	-1E+10	1	-1E+10	1	-1E+10	1	-1E+10	1
4901784	209	C	03/25/2021	10:49	-135.348	43.072	0	1619.80	0	2.3220	0	37.6440	4	30.073	0	1600.722	0	35.3	4	11.0	4	-1E+10	1	-1E+10	1	-1E+10	1	-1E+10	1	-1E+10	1	-1E+10	1
4901784	209	C	03/25/2021	10:49	-135.348	43.072	0	1625.00	0	2.3200	0	37.6440	4	30.074	0	1605.841	0	35.5	4	11.0	4	-1E+10	1	-1E+10	1	-1E+10	1	-1E+10	1	-1E+10	1	-1E+10	1
4901784	209	C	03/25/2021	10:49	-135.348	43.072	0	1630.30	0	2.3150	0	37.6450	4	30.075	0	1611.058	0	35.7	4	11.1	4	-1E+10	1	-1E+10	1	-1E+10	1	-1E+10	1	-1E+10	1	-1E+10	1
4901784	209	C	03/25/2021	10:49	-135.348	43.072	0	1635.60	0	2.3080	0	37.6470	4	30.077	0	1616.275	0	36.1	4	11.2	4	-1E+10	1	-1E+10	1	-1E+10	1	-1E+10	1	-1E+10	1	-1E+10	1
4901784	209	C	03/25/2021	10:49	-135.348	43.072	0	1640.00	0	2.3010	0	37.6490	4	30.079	0	1620.606	0	36.4	4	11.3	4	-1E+10	1	-1E+10	1	-1E+10	1	-1E+10	1	-1E+10	1	-1E+10	1
4901784	209	C	03/25/2021	10:49	-135.348	43.072	0	1644.50	0	2.2970	0	37.6490	4	30.080	0	1625.036	0	36.6	4	11.4	4	-1E+10	1	-1E+10	1	-1E+10	1	-1E+10	1	-1E+10	1	-1E+10	1
4901784	209	C	03/25/2021	10:49	-135.348	43.072	0	1649.90	0	2.2890	0	37.6510	4	30.082	0	1630.351	0	36.8	4	11.4	4	-1E+10	1	-1E+10	1	-1E+10	1	-1E+10	1	-1E+10	1	-1E+10	1
4901784	209	C	03/25/2021	10:49	-135.348	43.072	0	1655.20	0	2.2860	0	37.6510	4	30.082	0	1635.568	0	37.0	4	11.5	4	-1E+10	1	-1E+10	1	-1E+10	1	-1E+10	1	-1E+10	1	-1E+10	1
4901784	209	C	03/25/2021	10:49	-135.348	43.072	0	1660.60	0	2.2810	0	37.6520	4	30.084	0	1640.883	0	37.4	4	11.6	4	-1E+10	1	-1E+10	1	-1E+10	1	-1E+10	1	-1E+10	1	-1E+10	1
4901784	209	C	03/25/2021	10:49	-135.348	43.072	0	1665.00	0	2.2740	0	37.6540	4	30.086	0	1645.214	0	37.6	4	11.7	4	-1E+10	1	-1E+10	1	-1E+10	1	-1E+10	1	-1E+10	1	-1E+10	1
4901784	209	C	03/25/2021	10:49	-135.348	43.072	0	1669.40	0	2.2710	0	37.6550	4	30.087	0	1649.544	0	37.8	4	11.8	4	-1E+10	1	-1E+10	1	-1E+10	1	-1E+10	1	-1E+10	1	-1E+10	1
4901784	209	C	03/25/2021	10:49	-135.348	43.072	0	1674.70	0	2.2680	0	37.6560	4	30.088	0	1654.761	0	38.1	4	11.8	4	-1E+10	1	-1E+10	1	-1E+10	1	-1E+10	1	-1E+10	1	-1E+10	1
4901784	209	C	03/25/2021	10:49	-135.348	43.072	0	1679.90	0	2.2640	0	37.6570	4	30.089	0	1659.879	0	38.4	4	11.9	4	-1E+10	1	-1E+10	1	-1E+10	1	-1E+10	1	-1E+10	1	-1E+10	1
4901784	209	C	03/25/2021	10:49	-135.348	43.072	0	1685.20	0	2.2530	0	37.6590	4	30.092	0	1665.094	0	38.8	4	12.1	4	-1E+10	1	-1E+10	1	-1E+10	1	-1E+10	1	-1E+10	1	-1E+10	1
4901784	209	C	03/25/2021	10:49	-135.348	43.072	0	1690.60	0	2.2470	0	37.6600	4	30.093	0	1670.409	0	39.2	4	12.2	4	-1E+10	1	-1E+10	1	-1E+10	1	-1E+10	1	-1E+10	1	-1E+10	1
4901784	209	C	03/25/2021	10:49	-135.348	43.072	0	1695.10	0	2.2420	0	37.6610	4	30.095	0	1674.837	0	39.5	4	12.3	4	-1E+10	1	-1E+10	1	-1E+10	1	-1E+10	1	-1E+10	1	-1E+10	1
4901784	209	C	03/25/2021	10:49	-135.348	43.072	0	1699.70	0	2.2340	0	37.6630	4	30.097	0	1679.364	0	39.8	4	12.4	4	-1E+10	1	-1E+10	1	-1E+10	1	-1E+10	1	-1E+10	1	-1E+10	1
4901784	209	C	03/25/2021	10:49	-135.348	43.072	0	1705.10	0	2.2320	0	37.6640	4	30.098	0	1684.678	0	40.1	4	12.4	4	-1E+10	1	-1E+10	1	-1E+10	1	-1E+10	1	-1E+10	1	-1E+10	1
4901784	209	C	03/25/2021	10:49	-135.348	43.072	0	1710.60	0	2.2240	0	37.6650	4	30.100	0	1690.090	0	40.4	4	12.6	4	-1E+10	1	-1E+10	1	-1E+10	1	-1E+10	1	-1E+10	1	-1E+10	1
4901784	209	C	03/25/2021	10:49	-135.348	43.072	0	1715.10	0	2.2180	0	37.6670	4	30.102	0	1694.518	0	40.6	4	12.6	4	-1E+10	1	-1E+10	1	-1E+10	1	-1E+10	1	-1E+10	1	-1E+10	1
4901784	209	C	03/25/2021	10:49	-135.348	43.072	0	1719.60	0	2.2160	0	37.6670	4	30.102	0	1698.946	0	40.9	4	12.7	4	-1E+10	1	-1E+10	1	-1E+10	1	-1E+10	1	-1E+10	1	-1E+10	1
4901784	209	C	03/25/2021	10:49	-135.348	43.072	0	1725.10	0	2.2080	0	37.6680	4	30.104	0	1704.358	0	41.4	4	12.8	4	-1E+10	1	-1E+10	1	-1E+10	1	-1E+10	1	-1E+10	1	-1E+10	1
4901784	209	C	03/25/2021	10:49	-135.348	43.072	0	1729.70	0	2.2020	0	37.6700	4	30.106	0	1708.884	0	41.7	4	12.9	4	-1E+10	1	-1E+10	1	-1E+10	1	-1E+10	1	-1E+10	1	-1E+10	1
4901784	209	C	03/25/2021	10:49	-135.348	43.072	0	1734.20	0	2.1930	0	37.6710	4	30.107	0	1713.312	0	42.2	4	13.1	4	-1E+10	1	-1E+10	1	-1E+10	1	-1E+10	1	-1E+10	1	-1E+10	1
4901784	209	C	03/25/2021	10:49	-135.348	43.072	0	1739.60	0	2.1810	0	37.6730	4	30.110	0	1718.625	0	42.6	4	13.2	4	-1E+10	1	-1E+10	1	-1E+10	1	-1E+10	1	-1E+10	1	-1E+10	1
4901784	209	C	03/25/2021	10:49	-135.348	43.072	0	1744.50	0	2.1750	0	37.6740	4	30.111	0	1723.446	0	43.0	4	13.3	4	-1E+10	1	-1E+10	1	-1E+10	1	-1E+10	1	-1E+10	1	-1E+10	1
4901784	209	C	03/25/2021	10:49	-135.348	43.072	0	1749.40	0	2.1690	0	37.6760	4	30.114	0	1728.267	0	43.3	4	13.4	4	-1E+10	1	-1E+10	1	-1E+10	1	-1E+10	1	-1E+10	1	-1E+10	1
4901784	209	C	03/25/2021	10:49	-135.348	43.072	0	1754.30	0	2.1620	0	37.6770	4	30.115	0	1733.088	0	43.7	4	13.5	4	-1E+10	1	-1E+10	1	-1E+10	1	-1E+10	1	-1E+10	1	-1E+10	1
4901784	209	C	03/25/2021	10:49	-135.348	43.072	0	1759.30	0	2.1570	0	37.6780	4	30.116	0	1738.007	0	44.0	4	13.6	4	-1E+10	1	-1E+10	1	-1E+10	1	-1E+10	1	-1E+10	1	-1E+10	1
4901784	209	C	03/25/2021	10:49	-135.348	43.072	0	1764.20	0	2.1530	0	37.6790	4	30.117	0	1742.828	0	44.3	4	13.7	4	-1E+10	1	-1E+10	1	-1E+10	1	-1E+10	1	-1E+10	1	-1E+10	1
4901784	209	C	03/25/2021	10:49	-135.348	43.072	0	1769.20	0	2.1460	0	37.6810	4	30.120	0	1747.746	0	44.7	4	13.9	4	-1E+10	1	-1E+10	1	-1E+10	1	-1E+10	1	-1E+10	1	-1E+10	1
4901784	209	C	03/25/2021	10:49	-135.348	43.072	0	1774.20	0	2.1380	0	37.6820	4	30.121	0	1752.665	0	45.1	4	14.0	4	-1E+10	1	-1E+10	1	-1E+10	1	-1E+10	1	-1E+10	1	-1E+10	1
4901784	209	C	03/25/2021	10:49	-135.348	43.072	0	1779.20	0	2.1320	0	37.6830	4	30.123	0	1757.584	0	45.4	4	14.1	4	-1E+10	1	-1E+10	1	-1E+10	1	-1E+10	1	-1E+10	1	-1E+10	1
4901784	209	C	03/25/2021	10:49	-135.348	43.072	0	1784.30	0	2.1260	0	37.6850	4	30.125	0	1762.601	0	45.6	4	14.1	4	-1E+10	1	-1E+10	1	-1E+10	1	-1E+10	1	-1E+10	1	-1E+10	1
4901784	209	C	03/25/2021	10:49	-135.348	43.072	0	1789.50	0	2.1230	0	37.6860	4	30.126	0	1767.716	0	45.8	4	14.2	4	-1E+10	1	-1E+10	1	-1E+10	1	-1E+10	1	-1E+10	1	-1E+10	1
4901784	209	C	03/25/2021	10:49	-135.348	43.072	0	1794.70	0	2.1210	0	37.6860	4	30.126	0	1772.831	0	46.0	4	14.3	4	-1E+10	1	-1E+10	1	-1E+10	1	-1E+10	1	-1E+10	1	-1E+10	1
4901784	209	C	03/25/2021	10:49	-135.348	43.072	0	1799.90	0	2.1170	0	37.6870	4	30.127	0	1777.946	0	46.3	4	14.3	4	-1E+10	1	-1E+10	1	-1E+10	1	-1E+10	1	-1E+10	1	-1E+10	1
4901784	209	C	03/25/2021	10:49	-135.348	43.072	0	1805.10	0	2.1110	0	37.6880	4	30.129	0	1783.061	0	46.5	4	14.4	4	-1E+10	1	-1E+10	1	-1E+10	1	-1E+10	1	-1E+10	1	-1E+10	1
4901784	209	C	03/25/2021	10:49	-135.348	43.072	0	1810.40	0	2.1080	0	37.6890	4	30.130	0	1788.274	0	46.7	4	14.5	4	-1E+10	1	-1E+10	1	-1E+10	1	-1E+10	1	-1E+10	1	-1E+10	1
4901784	209	C	03/25/2021	10:49	-135.348	43.072	0	1814.80	0	2.1070	0	37.6900	4	30.131	0	1792.601	0	46.8	4	14.5	4	-1E+10	1	-1E+10	1	-1E+10	1	-1E+10	1	-1E+10	1	-1E+10	1
4901784	209	C	03/25/2021	10:49	-135.348	43.072	0	1819.30	0	2.1040	0	37.6900	4	30.131	0	1797.027	0	47.0	4	14.6	4	-1E+10	1	-1E+10	1	-1E+10	1	-1E+10	1	-1E+10	1	-1E+10	1
4901784	209	C	03/25/2021	10:49	-135.348	43.072	0	1824.70	0	2.1000	0	37.6910	4	30.132	0	1802.338	0	47.3	4	14.6	4	-1E+10	1	-1E+10	1	-1E+10	1	-1E+10	1	-1E+10	1	-1E+10	1
4901784	209	C	03/25/2021	10:49	-135.348	43.072	0	1830.10	0	2.0920	0	37.6930	4	30.135	0	1807.649	0	47.6	4	14.7	4	-1E+10	1	-1E+10	1	-1E+10	1	-1E+10	1	-1E+10	1	-1E+10	1
4901784	209	C	03/25/2021	10:49	-135.348	43.072	0	1835.50	0	2.0890	0	37.6930	4	30.135	0	1812.960	0	47.8	4	14.8	4	-1E+10	1	-1E+10	1	-1E+10	1	-1E+10	1	-1E+10	1	-1E+10	1
4901784	209	C	03/25/2021	10:49	-135.348	43.072	0	1840.10	0	2.0860	0	37.6940	4	30.136	0	1817.484	0	48.0	4	14.9	4	-1E+10	1	-1E+10	1	-1E+10	1	-1E+10	1	-1E+10	1	-1E+10	1
4901784	209	C	03/25/2021	10:49	-135.348	43.072	0	1845.30	0	2.0820	0	37.6950	4	30.137	0	1822.597	0	48.1	4	14.9	4	-1E+10	1	-1E+10	1	-1E+10	1	-1E+10	1	-1E+10	1	-1E+10	1
4901784	209	C	03/25/2021	10:49	-135.348	43.072	0	1850.30	0	2.0810	0	37.6950	4	30.137	0	1827.514	0	48.4	4	15.0	4	-1E+10	1	-1E+10	1	-1E+10	1	-1E+10	1	-1E+10	1	-1E+10	1
4901784	209	C	03/25/2021	10:49	-135.348	43.072	0	1855.10	0	2.0770	0	37.6960	4	30.138	0	1832.235	0	48.7	4	15.1	4	-1E+10	1	-1E+10	1	-1E+10	1	-1E+10	1	-1E+10	1	-1E+10	1
4901784	209	C	03/25/2021	10:49	-135.348	43.072	0	1860.00	0	2.0720	0	37.6970	4	30.140	0	1837.053	0	48.9	4	15.1	4	-1E+10	1	-1E+10	1	-1E+10	1	-1E+10	1	-1E+10	1	-1E+10	1
4901784	209	C	03/25/2021	10:49	-135.348	43.072	0	1864.90	0	2.0690	0	37.6980	4	30.141	0	1841.871	0	49.3	4	15.2	4	-1E+10	1	-1E+10	1	-1E+10	1	-1E+10	1	-1E+10	1	-1E+10	1
4901784	209	C	03/25/2021	10:49	-135.348	43.072	0	1869.80	0	2.0640	0	37.6990	4	30.142	0	1846.690	0	49.6	4	15.3	4	-1E+10	1	-1E+10	1	-1E+10	1	-1E+10	1	-1E+10	1	-1E+10	1
4901784	209	C	03/25/2021	10:49	-135.348	43.072	0	1874.70	0	2.0570	0	37.7000	4	30.144	0	1851.508	0	50.0	4	15.5	4	-1E+10	1	-1E+10	1	-1E+10	1	-1E+10	1	-1E+10	1	-1E+10	1
4901784	209	C	03/25/2021	10:49	-135.348	43.072	0	1879.70	0	2.0500	0	37.7020	4	30.146	0	1856.424	0	50.3	4	15.6	4	-1E+10	1	-1E+10	1	-1E+10	1	-1E+10	1	-1E+10	1	-1E+10	1
4901784	209	C	03/25/2021	10:49	-135.348	43.072	0	1884.70	0	2.0480	0	37.7030	4	30.147	0	1861.340	0	50.5	4	15.6	4	-1E+10	1	-1E+10	1	-1E+10	1	-1E+10	1	-1E+10	1	-1E+10	1
4901784	209	C	03/25/2021	10:49	-135.348	43.072	0	1889.70	0	2.0430	0	37.7040	4	30.148	0	1866.256	0	50.8	4	15.7	4	-1E+10	1	-1E+10	1	-1E+10	1	-1E+10	1	-1E+10	1	-1E+10	1
4901784	209	C	03/25/2021	10:49	-135.348	43.072	0	1894.80	0	2.0380	0	37.7050	4	30.149	0	1871.271	0	51.2	4	15.8	4	-1E+10	1	-1E+10	1	-1E+10	1	-1E+10	1	-1E+10	1	-1E+10	1
4901784	209	C	03/25/2021	10:49	-135.348	43.072	0	1899.80	0	2.0360	0	37.7050	4	30.150	0	1876.187	0	51.5	4	15.9	4	-1E+10	1	-1E+10	1	-1E+10	1	-1E+10	1	-1E+10	1	-1E+10	1
4901784	209	C	03/25/2021	10:49	-135.348	43.072	0	1904.90	0	2.0280	0	37.7060	4	30.151	0	1881.201	0	51.9	4	16.0	4	-1E+10	1	-1E+10	1	-1E+10	1	-1E+10	1	-1E+10	1	-1E+10	1
4901784	209	C	03/25/2021	10:49	-135.348	43.072	0	1909.90	0	2.0210	0	37.7080	4	30.153	0	1886.116	0	52.4	4	16.2	4	-1E+10	1	-1E+10	1	-1E+10	1	-1E+10	1	-1E+10	1	-1E+10	1
4901784	209	C	03/25/2021	10:49	-135.348	43.072	0	1915.00	0	2.0150	0	37.7100	4	30.155	0	1891.130	0	52.5	4	16.2	4	-1E+10	1	-1E+10	1	-1E+10	1	-1E+10	1	-1E+10	1	-1E+10	1
4901784	209	C	03/25/2021	10:49	-135.348	43.072	0	1920.00	0	2.0140	0	37.7100	4	30.156	0	1896.046	0	52.7	4	16.3	4	-1E+10	1	-1E+10	1	-1E+10	1	-1E+10	1	-1E+10	1	-1E+10	1
4901784	209	C	03/25/2021	10:49	-135.348	43.072	0	1925.10	0	2.0120	0	37.7100	4	30.156	0	1901.059	0	52.9	4	16.3	4	-1E+10	1	-1E+10	1	-1E+10	1	-1E+10	1	-1E+10	1	-1E+10	1
4901784	209	C	03/25/2021	10:49	-135.348	43.072	0	1930.30	0	2.0100	0	37.7110	4	30.157	0	1906.171	0	53.2	4	16.4	4	-1E+10	1	-1E+10	1	-1E+10	1	-1E+10	1	-1E+10	1	-1E+10	1
4901784	209	C	03/25/2021	10:49	-135.348	43.072	0	1935.40	0	2.0030	0	37.7120	4	30.158	0	1911.184	0	53.7	4	16.6	4	-1E+10	1	-1E+10	1	-1E+10	1	-1E+10	1	-1E+10	1	-1E+10	1
4901784	209	C	03/25/2021	10:49	-135.348	43.072	0	1940.60	0	1.9970	0	37.7140	4	30.160	0	1916.296	0	54.0	4	16.7	4	-1E+10	1	-1E+10	1	-1E+10	1	-1E+10	1	-1E+10	1	-1E+10	1
4901784	209	C	03/25/2021	10:49	-135.348	43.072	0	1944.90	0	1.9950	0	37.7140	4	30.161	0	1920.523	0	54.2	4	16.7	4	-1E+10	1	-1E+10	1	-1E+10	1	-1E+10	1	-1E+10	1	-1E+10	1
4901784	209	C	03/25/2021	10:49	-135.348	43.072	0	1949.30	0	1.9920	0	37.7150	4	30.162	0	1924.848	0	54.3	4	16.8	4	-1E+10	1	-1E+10	1	-1E+10	1	-1E+10	1	-1E+10	1	-1E+10	1
4901784	209	C	03/25/2021	10:49	-135.348	43.072	0	1954.60	0	1.9920	0	37.7150	4	30.162	0	1930.057	0	54.4	4	16.8	4	-1E+10	1	-1E+10	1	-1E+10	1	-1E+10	1	-1E+10	1	-1E+10	1
4901784	209	C	03/25/2021	10:49	-135.348	43.072	0	1959.90	0	1.9910	0	37.7160	4	30.163	0	1935.267	0	54.6	4	16.9	4	-1E+10	1	-1E+10	1	-1E+10	1	-1E+10	1	-1E+10	1	-1E+10	1
4901784	209	C	03/25/2021	10:49	-135.348	43.072	0	1965.40	0	1.9870	0	37.7160	4	30.163	0	1940.672	0	55.0	4	17.0	4	-1E+10	1	-1E+10	1	-1E+10	1	-1E+10	1	-1E+10	1	-1E+10	1
4901784	209	C	03/25/2021	10:49	-135.348	43.072	0	1969.80	0	1.9800	0	37.7180	4	30.165	0	1944.997	0	55.3	4	17.1	4	-1E+10	1	-1E+10	1	-1E+10	1	-1E+10	1	-1E+10	1	-1E+10	1
4901784	209	C	03/25/2021	10:49	-135.348	43.072	0	1974.40	0	1.9760	0	37.7190	4	30.166	0	1949.518	0	55.6	4	17.1	4	-1E+10	1	-1E+10	1	-1E+10	1	-1E+10	1	-1E+10	1	-1E+10	1
4901784	209	C	03/25/2021	10:49	-135.348	43.072	0	1980.10	0	1.9730	0	37.7190	4	30.167	0	1955.120	0	55.8	4	17.2	4	-1E+10	1	-1E+10	1	-1E+10	1	-1E+10	1	-1E+10	1	-1E+10	1
4901784	209	C	03/25/2021	10:49	-135.348	43.072	0	1985.10	0	1.9690	0	37.7200	4	30.168	0	1960.034	0	55.9	4	17.3	4	-1E+10	1	-1E+10	1	-1E+10	1	-1E+10	1	-1E+10	1	-1E+10	1
4901784	209	C	03/25/2021	10:49	-135.348	43.072	0	1989.70	0	1.9690	0	37.7210	4	30.169	0	1964.555	0	56.0	4	17.3	4	-1E+10	1	-1E+10	1	-1E+10	1	-1E+10	1	-1E+10	1	-1E+10	1
4901784	209	C	03/25/2021	10:49	-135.348	43.072	0	1994.40	0	1.9690	0	37.7200	4	30.168	0	1969.174	0	56.2	4	17.3	4	-1E+10	1	-1E+10	1	-1E+10	1	-1E+10	1	-1E+10	1	-1E+10	1
4901784	209	C	03/25/2021	10:49	-135.348	43.072	0	1999.80	0	1.9650	0	37.7210	4	30.169	0	1974.480	0	56.5	4	17.4	4	-1E+10	1	-1E+10	1	-1E+10	1	-1E+10	1	-1E+10	1	-1E+10	1
4901784	209	C	03/25/2021	10:49	-135.348	43.072	0	2005.80	0	1.9550	0	37.7230	4	30.172	0	1980.377	0	57.0	4	17.6	4	-1E+10	1	-1E+10	1	-1E+10	1	-1E+10	1	-1E+10	1	-1E+10	1
4901784	209	C	03/25/2021	10:49	-135.348	43.072	0	2011.30	0	1.9530	0	37.7240	4	30.173	0	1985.781	0	55.8	4	17.2	4	-1E+10	1	-1E+10	1	-1E+10	1	-1E+10	1	-1E+10	1	-1E+10	1
4901784	209	C	03/25/2021	10:49	-135.348	43.072	0																										
4901784	210	C	04/04/2021	10:43	-135.539	43.053	0	3.20	0	10.6730	0	35.2630	4	27.040	0	3.175	0	267.7	4	99.1	4	-1E+10	1	-1E+10	1	-1E+10	1	-1E+10	1	-1E+10	1	-1E+10	1
4901784	210	C	04/04/2021	10:43	-135.539	43.053	0	4.50	0	10.6730	0	35.2640	4	27.041	0	4.464	0	267.4	4	99.0	4	-1E+10	1	-1E+10	1	-1E+10	1	-1E+10	1	-1E+10	1	-1E+10	1
4901784	210	C	04/04/2021	10:43	-135.539	43.053	0	5.90	0	10.6730	0	35.2640	4	27.041	0	5.853	0	267.5	4	99.0	4	-1E+10	1	-1E+10	1	-1E+10	1	-1E+10	1	-1E+10	1	-1E+10	1
4901784	210	C	04/04/2021	10:43	-135.539	43.053	0	7.20	0	10.6730	0	35.2650	4	27.042	0	7.143	0	267.5	4	99.0	4	-1E+10	1	-1E+10	1	-1E+10	1	-1E+10	1	-1E+10	1	-1E+10	1
4901784	210	C	04/04/2021	10:43	-135.539	43.053	0	8.60	0	10.6730	0	35.2660	4	27.042	0	8.532	0	267.5	4	99.0	4	-1E+10	1	-1E+10	1	-1E+10	1	-1E+10	1	-1E+10	1	-1E+10	1
4901784	210	C	04/04/2021	10:43	-135.539	43.053	0	10.30	0	10.6780	0	35.2660	4	27.042	0	10.218	0	267.4	4	99.0	4	-1E+10	1	-1E+10	1	-1E+10	1	-1E+10	1	-1E+10	1	-1E+10	1
4901784	210	C	04/04/2021	10:43	-135.539	43.053	0	12.10	0	10.6760	0	35.2670	4	27.043	0	12.004	0	267.3	4	99.0	4	-1E+10	1	-1E+10	1	-1E+10	1	-1E+10	1	-1E+10	1	-1E+10	1
4901784	210	C	04/04/2021	10:43	-135.539	43.053	0	13.80	0	10.6780	0	35.2670	4	27.042	0	13.690	0	267.2	4	98.9	4	-1E+10	1	-1E+10	1	-1E+10	1	-1E+10	1	-1E+10	1	-1E+10	1
4901784	210	C	04/04/2021	10:43	-135.539	43.053	0	15.60	0	10.6800	0	35.2680	4	27.043	0	15.476	0	267.2	4	98.9	4	-1E+10	1	-1E+10	1	-1E+10	1	-1E+10	1	-1E+10	1	-1E+10	1
4901784	210	C	04/04/2021	10:43	-135.539	43.053	0	17.30	0	10.6750	0	35.2690	4	27.045	0	17.162	0	266.9	4	98.8	4	-1E+10	1	-1E+10	1	-1E+10	1	-1E+10	1	-1E+10	1	-1E+10	1
4901784	210	C	04/04/2021	10:43	-135.539	43.053	0	19.10	0	10.6800	0	35.2690	4	27.044	0	18.947	0	266.9	4	98.8	4	-1E+10	1	-1E+10	1	-1E+10	1	-1E+10	1	-1E+10	1	-1E+10	1
4901784	210	C	04/04/2021	10:43	-135.539	43.053	0	20.90	0	10.6790	0	35.2680	4	27.043	0	20.733	0	266.6	4	98.7	4	-1E+10	1	-1E+10	1	-1E+10	1	-1E+10	1	-1E+10	1	-1E+10	1
4901784	210	C	04/04/2021	10:43	-135.539	43.053	0	22.90	0	10.6700	0	35.2700	4	27.046	0	22.717	0	266.5	4	98.6	4	-1E+10	1	-1E+10	1	-1E+10	1	-1E+10	1	-1E+10	1	-1E+10	1
4901784	210	C	04/04/2021	10:43	-135.539	43.053	0	24.80	0	10.6800	0	35.2690	4	27.044	0	24.602	0	266.0	4	98.5	4	-1E+10	1	-1E+10	1	-1E+10	1	-1E+10	1	-1E+10	1	-1E+10	1
4901784	210	C	04/04/2021	10:43	-135.539	43.053	0	26.70	0	10.6810	0	35.2670	4	27.042	0	26.486	0	265.6	4	98.3	4	-1E+10	1	-1E+10	1	-1E+10	1	-1E+10	1	-1E+10	1	-1E+10	1
4901784	210	C	04/04/2021	10:43	-135.539	43.053	0	28.70	0	10.6570	0	35.2690	4	27.048	0	28.470	0	265.3	4	98.2	4	-1E+10	1	-1E+10	1	-1E+10	1	-1E+10	1	-1E+10	1	-1E+10	1
4901784	210	C	04/04/2021	10:43	-135.539	43.053	0	30.50	0	10.6470	0	35.2660	4	27.048	0	30.256	0	264.9	4	98.0	4	-1E+10	1	-1E+10	1	-1E+10	1	-1E+10	1	-1E+10	1	-1E+10	1
4901784	210	C	04/04/2021	10:43	-135.539	43.053	0	32.30	0	10.6380	0	35.2670	4	27.050	0	32.041	0	264.5	4	97.8	4	-1E+10	1	-1E+10	1	-1E+10	1	-1E+10	1	-1E+10	1	-1E+10	1
4901784	210	C	04/04/2021	10:43	-135.539	43.053	0	34.20	0	10.5940	0	35.2710	4	27.061	0	33.926	0	264.5	4	97.7	4	-1E+10	1	-1E+10	1	-1E+10	1	-1E+10	1	-1E+10	1	-1E+10	1
4901784	210	C	04/04/2021	10:43	-135.539	43.053	0	36.20	0	10.5600	0	35.2770	4	27.072	0	35.909	0	264.5	4	97.7	4	-1E+10	1	-1E+10	1	-1E+10	1	-1E+10	1	-1E+10	1	-1E+10	1
4901784	210	C	04/04/2021	10:43	-135.539	43.053	0	36.70	0	10.5370	0	35.2780	4	27.077	0	36.405	0	264.5	4	97.6	4	-1E+10	1	-1E+10	1	-1E+10	1	-1E+10	1	-1E+10	1	-1E+10	1
4901784	210	C	04/04/2021	10:43	-135.539	43.053	0	38.30	0	10.5380	0	35.2770	4	27.076	0	37.992	0	264.5	4	97.6	4	-1E+10	1	-1E+10	1	-1E+10	1	-1E+10	1	-1E+10	1	-1E+10	1
4901784	210	C	04/04/2021	10:43	-135.539	43.053	0	39.70	0	10.5540	0	35.2760	4	27.072	0	39.381	0	264.6	4	97.7	4	-1E+10	1	-1E+10	1	-1E+10	1	-1E+10	1	-1E+10	1	-1E+10	1
4901784	210	C	04/04/2021	10:43	-135.539	43.053	0	41.10	0	10.5410	0	35.2800	4	27.078	0	40.770	0	264.4	4	97.6	4	-1E+10	1	-1E+10	1	-1E+10	1	-1E+10	1	-1E+10	1	-1E+10	1
4901784	210	C	04/04/2021	10:43	-135.539	43.053	0	42.60	0	10.5540	0	35.2770	4	27.073	0	42.257	0	264.5	4	97.7	4	-1E+10	1	-1E+10	1	-1E+10	1	-1E+10	1	-1E+10	1	-1E+10	1
4901784	210	C	04/04/2021	10:43	-135.539	43.053	0	44.00	0	10.5610	0	35.2750	4	27.070	0	43.646	0	264.3	4	97.6	4	-1E+10	1	-1E+10	1	-1E+10	1	-1E+10	1	-1E+10	1	-1E+10	1
4901784	210	C	04/04/2021	10:43	-135.539	43.053	0	45.50	0	10.5750	0	35.2780	4	27.070	0	45.134	0	264.2	4	97.6	4	-1E+10	1	-1E+10	1	-1E+10	1	-1E+10	1	-1E+10	1	-1E+10	1
4901784	210	C	04/04/2021	10:43	-135.539	43.053	0	47.00	0	10.5750	0	35.2780	4	27.070	0	46.622	0	263.8	4	97.4	4	-1E+10	1	-1E+10	1	-1E+10	1	-1E+10	1	-1E+10	1	-1E+10	1
4901784	210	C	04/04/2021	10:43	-135.539	43.053	0	48.60	0	10.5730	0	35.2780	4	27.070	0	48.208	0	263.3	4	97.3	4	-1E+10	1	-1E+10	1	-1E+10	1	-1E+10	1	-1E+10	1	-1E+10	1
4901784	210	C	04/04/2021	10:43	-135.539	43.053	0	50.40	0	10.5670	0	35.2770	4	27.071	0	49.994	0	262.8	4	97.0	4	-1E+10	1	-1E+10	1	-1E+10	1	-1E+10	1	-1E+10	1	-1E+10	1
4901784	210	C	04/04/2021	10:43	-135.539	43.053	0	52.10	0	10.5260	0	35.2810	4	27.081	0	51.680	0	262.5	4	96.8	4	-1E+10	1	-1E+10	1	-1E+10	1	-1E+10	1	-1E+10	1	-1E+10	1
4901784	210	C	04/04/2021	10:43	-135.539	43.053	0	53.80	0	10.5230	0	35.2830	4	27.083	0	53.366	0	261.9	4	96.7	4	-1E+10	1	-1E+10	1	-1E+10	1	-1E+10	1	-1E+10	1	-1E+10	1
4901784	210	C	04/04/2021	10:43	-135.539	43.053	0	55.50	0	10.5190	0	35.2830	4	27.084	0	55.052	0	261.2	4	96.4	4	-1E+10	1	-1E+10	1	-1E+10	1	-1E+10	1	-1E+10	1	-1E+10	1
4901784	210	C	04/04/2021	10:43	-135.539	43.053	0	57.20	0	10.5050	0	35.2810	4	27.085	0	56.738	0	260.7	4	96.1	4	-1E+10	1	-1E+10	1	-1E+10	1	-1E+10	1	-1E+10	1	-1E+10	1
4901784	210	C	04/04/2021	10:43	-135.539	43.053	0	58.90	0	10.5010	0	35.2810	4	27.086	0	58.424	0	260.1	4	95.9	4	-1E+10	1	-1E+10	1	-1E+10	1	-1E+10	1	-1E+10	1	-1E+10	1
4901784	210	C	04/04/2021	10:43	-135.539	43.053	0	60.70	0	10.4910	0	35.2810	4	27.088	0	60.209	0	259.2	4	95.6	4	-1E+10	1	-1E+10	1	-1E+10	1	-1E+10	1	-1E+10	1	-1E+10	1
4901784	210	C	04/04/2021	10:43	-135.539	43.053	0	62.40	0	10.4760	0	35.2780	4	27.088	0	61.895	0	258.8	4	95.4	4	-1E+10	1	-1E+10	1	-1E+10	1	-1E+10	1	-1E+10	1	-1E+10	1
4901784	210	C	04/04/2021	10:43	-135.539	43.053	0	64.20	0	10.4370	0	35.2800	4	27.096	0	63.680	0	258.3	4	95.1	4	-1E+10	1	-1E+10	1	-1E+10	1	-1E+10	1	-1E+10	1	-1E+10	1
4901784	210	C	04/04/2021	10:43	-135.539	43.053	0	65.90	0	10.3980	0	35.2820	4	27.105	0	65.366	0	258.6	4	95.2	4	-1E+10	1	-1E+10	1	-1E+10	1	-1E+10	1	-1E+10	1	-1E+10	1
4901784	210	C	04/04/2021	10:43	-135.539	43.053	0	67.70	0	10.3910	0	35.2820	4	27.106	0	67.151	0	258.2	4	95.0	4	-1E+10	1	-1E+10	1	-1E+10	1	-1E+10	1	-1E+10	1	-1E+10	1
4901784	210	C	04/04/2021	10:43	-135.539	43.053	0	69.30	0	10.3590	0	35.2820	4	27.112	0	68.738	0	258.1	4	94.9	4	-1E+10	1	-1E+10	1	-1E+10	1	-1E+10	1	-1E+10	1	-1E+10	1
4901784	210	C	04/04/2021	10:43	-135.539	43.053	0	71.10	0	10.3420	0	35.2820	4	27.115	0	70.523	0	257.8	4	94.8	4	-1E+10	1	-1E+10	1	-1E+10	1	-1E+10	1	-1E+10	1	-1E+10	1
4901784	210	C	04/04/2021	10:43	-135.539	43.053	0	72.80	0	10.3300	0	35.2820	4	27.117	0	72.209	0	257.5	4	94.6	4	-1E+10	1	-1E+10	1	-1E+10	1	-1E+10	1	-1E+10	1	-1E+10	1
4901784	210	C	04/04/2021	10:43	-135.539	43.053	0	74.50	0	10.3250	0	35.2820	4	27.118	0	73.895	0	256.7	4	94.3	4	-1E+10	1	-1E+10	1	-1E+10	1	-1E+10	1	-1E+10	1	-1E+10	1
4901784	210	C	04/04/2021	10:43	-135.539	43.053	0	76.10	0	10.3100	0	35.2830	4	27.121	0	75.482	0	256.2	4	94.1	4	-1E+10	1	-1E+10	1	-1E+10	1	-1E+10	1	-1E+10	1	-1E+10	1
4901784	210	C	04/04/2021	10:43	-135.539	43.053	0	77.90	0	10.2920	0	35.2860	4	27.127	0	77.267	0	255.7	4	93.9	4	-1E+10	1	-1E+10	1	-1E+10	1	-1E+10	1	-1E+10	1	-1E+10	1
4901784	210	C	04/04/2021	10:43	-135.539	43.053	0	79.50	0	10.2450	0	35.2840	4	27.133	0	78.854	0	256.0	4	93.9	4	-1E+10	1	-1E+10	1	-1E+10	1	-1E+10	1	-1E+10	1	-1E+10	1
4901784	210	C	04/04/2021	10:43	-135.539	43.053	0	81.20	0	10.2270	0	35.2830	4	27.136	0	80.539	0	255.9	4	93.8	4	-1E+10	1	-1E+10	1	-1E+10	1	-1E+10	1	-1E+10	1	-1E+10	1
4901784	210	C	04/04/2021	10:43	-135.539	43.053	0	83.00	0	10.1920	0	35.2850	4	27.144	0	82.324	0	255.8	4	93.7	4	-1E+10	1	-1E+10	1	-1E+10	1	-1E+10	1	-1E+10	1	-1E+10	1
4901784	210	C	04/04/2021	10:43	-135.539	43.053	0	84.70	0	10.1460	0	35.2840	4	27.151	0	84.010	0	255.7	4	93.6	4	-1E+10	1	-1E+10	1	-1E+10	1	-1E+10	1	-1E+10	1	-1E+10	1
4901784	210	C	04/04/2021	10:43	-135.539	43.053	0	86.50	0	10.1340	0	35.2830	4	27.152	0	85.795	0	255.2	4	93.4	4	-1E+10	1	-1E+10	1	-1E+10	1	-1E+10	1	-1E+10	1	-1E+10	1
4901784	210	C	04/04/2021	10:43	-135.539	43.053	0	88.20	0	10.0970	0	35.2820	4	27.158	0	87.481	0	254.9	4	93.2	4	-1E+10	1	-1E+10	1	-1E+10	1	-1E+10	1	-1E+10	1	-1E+10	1
4901784	210	C	04/04/2021	10:43	-135.539	43.053	0	89.80	0	10.0920	0	35.2830	4	27.159	0	89.068	0	253.6	4	92.7	4	-1E+10	1	-1E+10	1	-1E+10	1	-1E+10	1	-1E+10	1	-1E+10	1
4901784	210	C	04/04/2021	10:43	-135.539	43.053	0	91.60	0	10.0920	0	35.2890	4	27.164	0	90.853	0	252.3	4	92.2	4	-1E+10	1	-1E+10	1	-1E+10	1	-1E+10	1	-1E+10	1	-1E+10	1
4901784	210	C	04/04/2021	10:43	-135.539	43.053	0	93.30	0	10.0580	0	35.2910	4	27.172	0	92.538	0	251.4	4	91.9	4	-1E+10	1	-1E+10	1	-1E+10	1	-1E+10	1	-1E+10	1	-1E+10	1
4901784	210	C	04/04/2021	10:43	-135.539	43.053	0	95.10	0	10.0480	0	35.3070	4	27.186	0	94.323	0	249.8	4	91.3	4	-1E+10	1	-1E+10	1	-1E+10	1	-1E+10	1	-1E+10	1	-1E+10	1
4901784	210	C	04/04/2021	10:43	-135.539	43.053	0	96.90	0	10.0270	0	35.3130	4	27.194	0	96.108	0	248.3	4	90.7	4	-1E+10	1	-1E+10	1	-1E+10	1	-1E+10	1	-1E+10	1	-1E+10	1
4901784	210	C	04/04/2021	10:43	-135.539	43.053	0	98.70	0	9.9990	0	35.3210	4	27.205	0	97.893	0	247.0	4	90.2	4	-1E+10	1	-1E+10	1	-1E+10	1	-1E+10	1	-1E+10	1	-1E+10	1
4901784	210	C	04/04/2021	10:43	-135.539	43.053	0	102.20	0	9.9690	0	35.3300	4	27.218	0	101.364	0	243.6	4	88.9	4	-1E+10	1	-1E+10	1	-1E+10	1	-1E+10	1	-1E+10	1	-1E+10	1
4901784	210	C	04/04/2021	10:43	-135.539	43.053	0	104.80	0	9.9500	0	35.3710	4	27.253	0	103.942	0	239.6	4	87.4	4	-1E+10	1	-1E+10	1	-1E+10	1	-1E+10	1	-1E+10	1	-1E+10	1
4901784	210	C	04/04/2021	10:43	-135.539	43.053	0	108.00	0	9.8940	0	35.4210	4	27.302	0	107.115	0	236.4	4	86.2	4	-1E+10	1	-1E+10	1	-1E+10	1	-1E+10	1	-1E+10	1	-1E+10	1
4901784	210	C	04/04/2021	10:43	-135.539	43.053	0	110.50	0	9.8380	0	35.4450	4	27.330	0	109.593	0	234.6	4	85.4	4	-1E+10	1	-1E+10	1	-1E+10	1	-1E+10	1	-1E+10	1	-1E+10	1
4901784	210	C	04/04/2021	10:43	-135.539	43.053	0	112.70	0	9.8110	0	35.4520	4	27.340	0	111.775	0	232.4	4	84.5	4	-1E+10	1	-1E+10	1	-1E+10	1	-1E+10	1	-1E+10	1	-1E+10	1
4901784	210	C	04/04/2021	10:43	-135.539	43.053	0	114.80	0	9.8010	0	35.4640	4	27.351	0	113.857	0	228.5	4	83.1	4	-1E+10	1	-1E+10	1	-1E+10	1	-1E+10	1	-1E+10	1	-1E+10	1
4901784	210	C	04/04/2021	10:43	-135.539	43.053	0	117.70	0	9.7600	0	35.5010	4	27.387	0	116.732	0	222.5	4	80.9	4	-1E+10	1	-1E+10	1	-1E+10	1	-1E+10	1	-1E+10	1	-1E+10	1
4901784	210	C	04/04/2021	10:43	-135.539	43.053	0	119.90	0	9.6560	0	35.5580	4	27.449	0	118.914	0	216.9	4	78.7	4	-1E+10	1	-1E+10	1	-1E+10	1	-1E+10	1	-1E+10	1	-1E+10	1
4901784	210	C	04/04/2021	10:43	-135.539	43.053	0	122.30	0	9.3940	0	35.6800	4	27.589	0	121.293	0	214.4	4	77.4	4	-1E+10	1	-1E+10	1	-1E+10	1	-1E+10	1	-1E+10	1	-1E+10	1
4901784	210	C	04/04/2021	10:43	-135.539	43.053	0	124.90	0	9.2560	0	35.7340	4	27.654	0	123.871	0	212.7	4	76.6	4	-1E+10	1	-1E+10	1	-1E+10	1	-1E+10	1	-1E+10	1	-1E+10	1
4901784	210	C	04/04/2021	10:43	-135.539	43.053	0	127.50	0	9.1950	0	35.7520	4	27.678	0	126.449	0	211.1	4	75.9	4	-1E+10	1	-1E+10	1	-1E+10	1	-1E+10	1	-1E+10	1	-1E+10	1
4901784	210	C	04/04/2021	10:43	-135.539	43.053	0	130.10	0	9.1300	0	35.7720	4	27.704	0	129.026	0	209.5	4	75.3	4	-1E+10	1	-1E+10	1	-1E+10	1	-1E+10	1	-1E+10	1	-1E+10	1
4901784	210	C	04/04/2021	10:43	-135.539	43.053	0	132.70	0	9.0560	0	35.7920	4	27.732	0	131.604	0	207.5	4	74.5	4	-1E+10	1	-1E+10	1	-1E+10	1	-1E+10	1	-1E+10	1	-1E+10	1
4901784	210	C	04/04/2021	10:43	-135.539	43.053	0	135.30	0	8.9500	0	35.8230	4	27.774	0	134.182	0	205.9	4	73.7	4	-1E+10	1	-1E+10	1	-1E+10	1	-1E+10	1	-1E+10	1	-1E+10	1
4901784	210	C	04/04/2021	10:43	-135.539	43.053	0	137.40	0	8.8870	0	35.8500	4	27.805	0	136.264	0	204.1	4	73.0	4	-1E+10	1	-1E+10	1	-1E+10	1	-1E+10	1	-1E+10	1	-1E+10	1
4901784	210	C	04/04/2021	10:43	-135.539	43.053	0	139.70	0	8.7690	0	35.9100	4	27.871	0	138.544	0	201.4	4	71.9	4	-1E+10	1	-1E+10	1	-1E+10	1	-1E+10	1	-1E+10	1	-1E+10	1
4901784	210	C	04/04/2021	10:43	-135.539	43.053	0	142.50	0	8.6590	0	35.9610	4	27.929	0	141.320	0	197.9	4	70.5	4	-1E+10	1	-1E+10	1	-1E+10	1	-1E+10	1	-1E+10	1	-1E+10	1
4901784	210	C	04/04/2021	10:43	-135.539	43.053	0	144.70	0	8.5460	0	35.9960	4	27.974	0	143.501	0	195.5	4	69.5	4	-1E+10	1	-1E+10	1	-1E+10	1	-1E+10	1	-1E+10	1	-1E+10	1
4901784	210	C	04/04/2021	10:43	-135.539	43.053	0	147.10	0	8.4750	0	36.0290	4	28.011	0	145.880	0	193.1	4	68.5	4	-1E+10	1	-1E+10	1	-1E+10	1	-1E+10	1	-1E+10	1	-1E+10	1
4901784	210	C	04/04/2021	10:43	-135.539	43.053	0	150.10	0	8.3740	0	36.0870	4	28.073	0	148.854	0	190.8	4	67.6	4	-1E+10	1	-1E+10	1	-1E+10	1	-1E+10	1	-1E+10	1	-1E+10	1
4901784	210	C	04/04/2021	10:43	-135.539	43.053	0	152.50	0	8.3080	0	36.1330	4	28.119	0	151.233	0	189.2	4	66.9	4	-1E+10	1	-1E+10	1	-1E+10	1	-1E+10	1	-1E+10	1	-1E+10	1
4901784	210	C	04/04/2021	10:43	-135.539	43.053	0	155.00	0	8.2570	0	36.1840	4	28.167	0	153.712	0	187.9	4	66.4	4	-1E+10	1	-1E+10	1	-1E+10	1	-1E+10	1	-1E+10	1	-1E+10	1
4901784	210	C	04/04/2021	10:43	-135.539	43.053	0	157.60	0	8.1640	0	36.2530	4	28.236	0	156.289	0	187.4	4	66.1	4	-1E+10	1	-1E+10	1	-1E+10	1	-1E+10	1	-1E+10	1	-1E+10	1
4901784	210	C	04/04/2021	10:43	-135.539	43.053	0	160.00	0	8.1450	0	36.2820	4	28.262	0	158.668	0	189.2	4	66.8	4	-1E+10	1	-1E+10	1	-1E+10	1	-1E+10	1	-1E+10	1	-1E+10	1
4901784	210	C	04/04/2021	10:43	-135.539	43.053	0	162.40	0	8.1470	0	36.3240	4	28.295	0	161.047	0	191.7	4	67.7	4	-1E+10	1	-1E+10	1	-1E+10	1	-1E+10	1	-1E+10	1	-1E+10	1
4901784	210	C	04/04/2021	10:43	-135.539	43.053	0	165.00	0	8.1580	0	36.3470	4	28.311	0	163.625	0	192.0	4	67.8	4	-1E+10	1	-1E+10	1	-1E+10	1	-1E+10	1	-1E+10	1	-1E+10	1
4901784	210	C	04/04/2021	10:43	-135.539	43.053	0	167.20	0	8.1420	0	36.3540	4	28.319	0	165.805	0	191.0	4	67.4	4	-1E+10	1	-1E+10	1	-1E+10	1	-1E+10	1	-1E+10	1	-1E+10	1
4901784	210	C	04/04/2021	10:43	-135.539	43.053	0	169.90	0	8.1110	0	36.3740	4	28.340	0	168.482	0	188.4	4	66.5	4	-1E+10	1	-1E+10	1	-1E+10	1	-1E+10	1	-1E+10	1	-1E+10	1
4901784	210	C	04/04/2021	10:43	-135.539	43.053	0	172.60	0	8.0360	0	36.4110	4	28.380	0	171.158	0	187.3	4	66.0	4	-1E+10	1	-1E+10	1	-1E+10	1	-1E+10	1	-1E+10	1	-1E+10	1
4901784	210	C	04/04/2021	10:43	-135.539	43.053	0	175.40	0	8.0250	0	36.4430	4	28.407	0	173.934	0	188.3	4	66.4	4	-1E+10	1	-1E+10	1	-1E+10	1	-1E+10	1	-1E+10	1	-1E+10	1
4901784	210	C	04/04/2021	10:43	-135.539	43.053	0	177.70	0	8.0020	0	36.4660	4	28.429	0	176.213	0	186.8	4	65.8	4	-1E+10	1	-1E+10	1	-1E+10	1	-1E+10	1	-1E+10	1	-1E+10	1
4901784	210	C	04/04/2021	10:43	-135.539	43.053	0	180.00	0	7.9430	0	36.4870	4	28.454	0	178.493	0	185.5	4	65.3	4	-1E+10	1	-1E+10	1	-1E+10	1	-1E+10	1	-1E+10	1	-1E+10	1
4901784	210	C	04/04/2021	10:43	-135.539	43.053	0	182.30	0	7.9090	0	36.5060	4	28.475	0	180.773	0	184.1	4	64.8	4	-1E+10	1	-1E+10	1	-1E+10	1	-1E+10	1	-1E+10	1	-1E+10	1
4901784	210	C	04/04/2021	10:43	-135.539	43.053	0	184.80	0	7.8370	0	36.5530	4	28.522	0	183.251	0	182.5	4	64.1	4	-1E+10	1	-1E+10	1	-1E+10	1	-1E+10	1	-1E+10	1	-1E+10	1
4901784	210	C	04/04/2021	10:43	-135.539	43.053	0	187.20	0	7.8280	0	36.5860	4	28.550	0	185.630	0	180.6	4	63.5	4	-1E+10	1	-1E+10	1	-1E+10	1	-1E+10	1	-1E+10	1	-1E+10	1
4901784	210	C	04/04/2021	10:43	-135.539	43.053	0	189.70	0	7.7860	0	36.6050	4	28.571	0	188.107	0	180.5	4	63.3	4	-1E+10	1	-1E+10	1	-1E+10	1	-1E+10	1	-1E+10	1	-1E+10	1
4901784	210	C	04/04/2021	10:43	-135.539	43.053	0	192.30	0	7.7650	0	36.6250	4	28.590	0	190.684	0	179.7	4	63.0	4	-1E+10	1	-1E+10	1	-1E+10	1	-1E+10	1	-1E+10	1	-1E+10	1
4901784	210	C	04/04/2021	10:43	-135.539	43.053	0	194.80	0	7.7800	0	36.6440	4	28.603	0	193.162	0	179.4	4	63.0	4	-1E+10	1	-1E+10	1	-1E+10	1	-1E+10	1	-1E+10	1	-1E+10	1
4901784	210	C	04/04/2021	10:43	-135.539	43.053	0	197.30	0	7.7910	0	36.6580	4	28.612	0	195.640	0	181.8	4	63.8	4	-1E+10	1	-1E+10	1	-1E+10	1	-1E+10	1	-1E+10	1	-1E+10	1
4901784	210	C	04/04/2021	10:43	-135.539	43.053	0	199.90	0	7.7830	0	36.6740	4	28.626	0	198.217	0	184.5	4	64.8	4	-1E+10	1	-1E+10	1	-1E+10	1	-1E+10	1	-1E+10	1	-1E+10	1
4901784	210	C	04/04/2021	10:43	-135.539	43.053	0	202.50	0	7.7830	0	36.6840	4	28.634	0	200.794	0	185.0	4	64.9	4	-1E+10	1	-1E+10	1	-1E+10	1	-1E+10	1	-1E+10	1	-1E+10	1
4901784	210	C	04/04/2021	10:43	-135.539	43.053	0	205.10	0	7.7570	0	36.7000	4	28.651	0	203.371	0	183.9	4	64.5	4	-1E+10	1	-1E+10	1	-1E+10	1	-1E+10	1	-1E+10	1	-1E+10	1
4901784	210	C	04/04/2021	10:43	-135.539	43.053	0	207.80	0	7.7040	0	36.7130	4	28.669	0	206.047	0	182.5	4	64.0	4	-1E+10	1	-1E+10	1	-1E+10	1	-1E+10	1	-1E+10	1	-1E+10	1
4901784	210	C	04/04/2021	10:43	-135.539	43.053	0	209.50	0	7.6920	0	36.7170	4	28.674	0	207.731	0	181.9	4	63.8	4	-1E+10	1	-1E+10	1	-1E+10	1	-1E+10	1	-1E+10	1	-1E+10	1
4901784	210	C	04/04/2021	10:43	-135.539	43.053	0	212.20	0	7.6660	0	36.7220	4	28.682	0	210.407	0	180.6	4	63.3	4	-1E+10	1	-1E+10	1	-1E+10	1	-1E+10	1	-1E+10	1	-1E+10	1
4901784	210	C	04/04/2021	10:43	-135.539	43.053	0	215.00	0	7.6290	0	36.7280	4	28.692	0	213.182	0	179.5	4	62.9	4	-1E+10	1	-1E+10	1	-1E+10	1	-1E+10	1	-1E+10	1	-1E+10	1
4901784	210	C	04/04/2021	10:43	-135.539	43.053	0	217.70	0	7.6230	0	36.7290	4	28.694	0	215.858	0	178.6	4	62.5	4	-1E+10	1	-1E+10	1	-1E+10	1	-1E+10	1	-1E+10	1	-1E+10	1
4901784	210	C	04/04/2021	10:43	-135.539	43.053	0	220.50	0	7.6130	0	36.7270	4	28.694	0	218.633	0	177.0	4	61.9	4	-1E+10	1	-1E+10	1	-1E+10	1	-1E+10	1	-1E+10	1	-1E+10	1
4901784	210	C	04/04/2021	10:43	-135.539	43.053	0	222.30	0	7.5900	0	36.7350	4	28.703	0	220.416	0	175.7	4	61.5	4	-1E+10	1	-1E+10	1	-1E+10	1	-1E+10	1	-1E+10	1	-1E+10	1
4901784	210	C	04/04/2021	10:43	-135.539	43.053	0	225.00	0	7.5520	0	36.7410	4	28.714	0	223.092	0	174.0	4	60.8	4	-1E+10	1	-1E+10	1	-1E+10	1	-1E+10	1	-1E+10	1	-1E+10	1
4901784	210	C	04/04/2021	10:43	-135.539	43.053	0	227.70	0	7.5270	0	36.7490	4	28.724	0	225.768	0	172.2	4	60.1	4	-1E+10	1	-1E+10	1	-1E+10	1	-1E+10	1	-1E+10	1	-1E+10	1
4901784	210	C	04/04/2021	10:43	-135.539	43.053	0	230.40	0	7.5340	0	36.7530	4	28.726	0	228.443	0	170.3	4	59.5	4	-1E+10	1	-1E+10	1	-1E+10	1	-1E+10	1	-1E+10	1	-1E+10	1
4901784	210	C	04/04/2021	10:43	-135.539	43.053	0	233.00	0	7.4870	0	36.7660	4	28.743	0	231.020	0	168.2	4	58.7	4	-1E+10	1	-1E+10	1	-1E+10	1	-1E+10	1	-1E+10	1	-1E+10	1
4901784	210	C	04/04/2021	10:43	-135.539	43.053	0	234.80	0	7.4830	0	36.7680	4	28.746	0	232.804	0	167.3	4	58.4	4	-1E+10	1	-1E+10	1	-1E+10	1	-1E+10	1	-1E+10	1	-1E+10	1
4901784	210	C	04/04/2021	10:43	-135.539	43.053	0	237.50	0	7.4670	0	36.7710	4	28.750	0	235.479	0	165.6	4	57.8	4	-1E+10	1	-1E+10	1	-1E+10	1	-1E+10	1	-1E+10	1	-1E+10	1
4901784	210	C	04/04/2021	10:43	-135.539	43.053	0	240.20	0	7.4450	0	36.7710	4	28.754	0	238.154	0	163.4	4	57.0	4	-1E+10	1	-1E+10	1	-1E+10	1	-1E+10	1	-1E+10	1	-1E+10	1
4901784	210	C	04/04/2021	10:43	-135.539	43.053	0	242.00	0	7.4400	0	36.7820	4	28.763	0	239.938	0	161.3	4	56.2	4	-1E+10	1	-1E+10	1	-1E+10	1	-1E+10	1	-1E+10	1	-1E+10	1
4901784	210	C	04/04/2021	10:43	-135.539	43.053	0	244.70	0	7.4410	0	36.7870	4	28.767	0	242.614	0	158.7	4	55.3	4	-1E+10	1	-1E+10	1	-1E+10	1	-1E+10	1	-1E+10	1	-1E+10	1
4901784	210	C	04/04/2021	10:43	-135.539	43.053	0	247.40	0	7.4380	0	36.7940	4	28.773	0	245.289	0	156.5	4	54.6	4	-1E+10	1	-1E+10	1	-1E+10	1	-1E+10	1	-1E+10	1	-1E+10	1
4901784	210	C	04/04/2021	10:43	-135.539	43.053	0	250.20	0	7.4130	0	36.8000	4	28.781	0	248.063	0	155.6	4	54.2	4	-1E+10	1	-1E+10	1	-1E+10	1	-1E+10	1	-1E+10	1	-1E+10	1
4901784	210	C	04/04/2021	10:43	-135.539	43.053	0	253.00	0	7.3550	0	36.8000	4	28.790	0	250.838	0	155.3	4	54.1	4	-1E+10	1	-1E+10	1	-1E+10	1	-1E+10	1	-1E+10	1	-1E+10	1
4901784	210	C	04/04/2021	10:43	-135.539	43.053	0	254.90	0	7.3320	0	36.8010	4	28.794	0	252.720	0	154.5	4	53.8	4	-1E+10	1	-1E+10	1	-1E+10	1	-1E+10	1	-1E+10	1	-1E+10	1
4901784	210	C	04/04/2021	10:43	-135.539	43.053	0	257.70	0	7.3000	0	36.8020	4	28.800	0	255.495	0	152.4	4	53.0	4	-1E+10	1	-1E+10	1	-1E+10	1	-1E+10	1	-1E+10	1	-1E+10	1
4901784	210	C	04/04/2021	10:43	-135.539	43.053	0	260.50	0	7.2630	0	36.8100	4	28.811	0	258.269	0	149.6	4	52.0	4	-1E+10	1	-1E+10	1	-1E+10	1	-1E+10	1	-1E+10	1	-1E+10	1
4901784	210	C	04/04/2021	10:43	-135.539	43.053	0	262.40	0	7.2400	0	36.8170	4	28.820	0	260.151	0	148.4	4	51.5	4	-1E+10	1	-1E+10	1	-1E+10	1	-1E+10	1	-1E+10	1	-1E+10	1
4901784	210	C	04/04/2021	10:43	-135.539	43.053	0	265.20	0	7.2190	0	36.8170	4	28.823	0	262.926	0	147.7	4	51.3	4	-1E+10	1	-1E+10	1	-1E+10	1	-1E+10	1	-1E+10	1	-1E+10	1
4901784	210	C	04/04/2021	10:43	-135.539	43.053	0	267.90	0	7.2080	0	36.8170	4	28.825	0	265.601	0	146.8	4	51.0	4	-1E+10	1	-1E+10	1	-1E+10	1	-1E+10	1	-1E+10	1	-1E+10	1
4901784	210	C	04/04/2021	10:43	-135.539	43.053	0	269.80	0	7.1880	0	36.8170	4	28.828	0	267.483	0	146.3	4	50.7	4	-1E+10	1	-1E+10	1	-1E+10	1	-1E+10	1	-1E+10	1	-1E+10	1
4901784	210	C	04/04/2021	10:43	-135.539	43.053	0	272.70	0	7.1370	0	36.8200	4	28.838	0	270.357	0	145.3	4	50.3	4	-1E+10	1	-1E+10	1	-1E+10	1	-1E+10	1	-1E+10	1	-1E+10	1
4901784	210	C	04/04/2021	10:43	-135.539	43.053	0	275.50	0	7.0870	0	36.8230	4	28.847	0	273.131	0	144.8	4	50.1	4	-1E+10	1	-1E+10	1	-1E+10	1	-1E+10	1	-1E+10	1	-1E+10	1
4901784	210	C	04/04/2021	10:43	-135.539	43.053	0	277.40	0	7.0680	0	36.8230	4	28.850	0	275.013	0	144.4	4	49.9	4	-1E+10	1	-1E+10	1	-1E+10	1	-1E+10	1	-1E+10	1	-1E+10	1
4901784	210	C	04/04/2021	10:43	-135.539	43.053	0	280.20	0	7.0580	0	36.8230	4	28.852	0	277.787	0	143.6	4	49.6	4	-1E+10	1	-1E+10	1	-1E+10	1	-1E+10	1	-1E+10	1	-1E+10	1
4901784	210	C	04/04/2021	10:43	-135.539	43.053	0	283.10	0	7.0330	0	36.8230	4	28.855	0	280.660	0	142.5	4	49.3	4	-1E+10	1	-1E+10	1	-1E+10	1	-1E+10	1	-1E+10	1	-1E+10	1
4901784	210	C	04/04/2021	10:43	-135.539	43.053	0	285.00	0	7.0090	0	36.8240	4	28.860	0	282.542	0	141.9	4	49.0	4	-1E+10	1	-1E+10	1	-1E+10	1	-1E+10	1	-1E+10	1	-1E+10	1
4901784	210	C	04/04/2021	10:43	-135.539	43.053	0	286.90	0	6.9930	0	36.8230	4	28.861	0	284.425	0	141.1	4	48.7	4	-1E+10	1	-1E+10	1	-1E+10	1	-1E+10	1	-1E+10	1	-1E+10	1
4901784	210	C	04/04/2021	10:43	-135.539	43.053	0	289.80	0	6.9540	0	36.8230	4	28.867	0	287.298	0	139.8	4	48.2	4	-1E+10	1	-1E+10	1	-1E+10	1	-1E+10	1	-1E+10	1	-1E+10	1
4901784	210	C	04/04/2021	10:43	-135.539	43.053	0	292.60	0	6.8890	0	36.8260	4	28.878	0	290.072	0	138.4	4	47.7	4	-1E+10	1	-1E+10	1	-1E+10	1	-1E+10	1	-1E+10	1	-1E+10	1
4901784	210	C	04/04/2021	10:43	-135.539	43.053	0	294.60	0	6.8540	0	36.8270	4	28.884	0	292.053	0	137.6	4	47.4	4	-1E+10	1	-1E+10	1	-1E+10	1	-1E+10	1	-1E+10	1	-1E+10	1
4901784	210	C	04/04/2021	10:43	-135.539	43.053	0	297.50	0	6.8170	0	36.8280	4	28.890	0	294.926	0	136.4	4	46.9	4	-1E+10	1	-1E+10	1	-1E+10	1	-1E+10	1	-1E+10	1	-1E+10	1
4901784	210	C	04/04/2021	10:43	-135.539	43.053	0	300.30	0	6.7840	0	36.8280	4	28.895	0	297.699	0	134.9	4	46.4	4	-1E+10	1	-1E+10	1	-1E+10	1	-1E+10	1	-1E+10	1	-1E+10	1
4901784	210	C	04/04/2021	10:43	-135.539	43.053	0	302.10	0	6.7590	0	36.8300	4	28.900	0	299.483	0	133.9	4	46.0	4	-1E+10	1	-1E+10	1	-1E+10	1	-1E+10	1	-1E+10	1	-1E+10	1
4901784	210	C	04/04/2021	10:43	-135.539	43.053	0	305.00	0	6.7360	0	36.8290	4	28.903	0	302.355	0	132.2	4	45.4	4	-1E+10	1	-1E+10	1	-1E+10	1	-1E+10	1	-1E+10	1	-1E+10	1
4901784	210	C	04/04/2021	10:43	-135.539	43.053	0	307.80	0	6.6940	0	36.8290	4	28.908	0	305.129	0	130.5	4	44.7	4	-1E+10	1	-1E+10	1	-1E+10	1	-1E+10	1	-1E+10	1	-1E+10	1
4901784	210	C	04/04/2021	10:43	-135.539	43.053	0	309.70	0	6.6430	0	36.8310	4	28.917	0	307.011	0	129.5	4	44.4	4	-1E+10	1	-1E+10	1	-1E+10	1	-1E+10	1	-1E+10	1	-1E+10	1
4901784	210	C	04/04/2021	10:43	-135.539	43.053	0	312.50	0	6.5900	0	36.8350	4	28.928	0	309.785	0	128.1	4	43.8	4	-1E+10	1	-1E+10	1	-1E+10	1	-1E+10	1	-1E+10	1	-1E+10	1
4901784	210	C	04/04/2021	10:43	-135.539	43.053	0	315.40	0	6.5180	0	36.8400	4	28.942	0	312.657	0	126.8	4	43.3	4	-1E+10	1	-1E+10	1	-1E+10	1	-1E+10	1	-1E+10	1	-1E+10	1
4901784	210	C	04/04/2021	10:43	-135.539	43.053	0	317.30	0	6.5020	0	36.8390	4	28.943	0	314.539	0	126.3	4	43.1	4	-1E+10	1	-1E+10	1	-1E+10	1	-1E+10	1	-1E+10	1	-1E+10	1
4901784	210	C	04/04/2021	10:43	-135.539	43.053	0	320.10	0	6.4870	0	36.8390	4	28.945	0	317.313	0	125.5	4	42.9	4	-1E+10	1	-1E+10	1	-1E+10	1	-1E+10	1	-1E+10	1	-1E+10	1
4901784	210	C	04/04/2021	10:43	-135.539	43.053	0	323.00	0	6.4560	0	36.8410	4	28.951	0	320.185	0	124.7	4	42.5	4	-1E+10	1	-1E+10	1	-1E+10	1	-1E+10	1	-1E+10	1	-1E+10	1
4901784	210	C	04/04/2021	10:43	-135.539	43.053	0	324.90	0	6.4550	0	36.8400	4	28.951	0	322.067	0	124.2	4	42.4	4	-1E+10	1	-1E+10	1	-1E+10	1	-1E+10	1	-1E+10	1	-1E+10	1
4901784	210	C	04/04/2021	10:43	-135.539	43.053	0	326.80	0	6.4340	0	36.8420	4	28.955	0	323.949	0	123.6	4	42.1	4	-1E+10	1	-1E+10	1	-1E+10	1	-1E+10	1	-1E+10	1	-1E+10	1
4901784	210	C	04/04/2021	10:43	-135.539	43.053	0	329.70	0	6.4230	0	36.8410	4	28.956	0	326.822	0	122.9	4	41.9	4	-1E+10	1	-1E+10	1	-1E+10	1	-1E+10	1	-1E+10	1	-1E+10	1
4901784	210	C	04/04/2021	10:43	-135.539	43.053	0	332.50	0	6.4010	0	36.8400	4	28.958	0	329.595	0	121.8	4	41.5	4	-1E+10	1	-1E+10	1	-1E+10	1	-1E+10	1	-1E+10	1	-1E+10	1
4901784	210	C	04/04/2021	10:43	-135.539	43.053	0	335.30	0	6.3610	0	36.8420	4	28.965	0	332.368	0	120.4	4	41.0	4	-1E+10	1	-1E+10	1	-1E+10	1	-1E+10	1	-1E+10	1	-1E+10	1
4901784	210	C	04/04/2021	10:43	-135.539	43.053	0	338.40	0	6.3250	0	36.8440	4	28.972	0	335.439	0	119.0	4	40.5	4	-1E+10	1	-1E+10	1	-1E+10	1	-1E+10	1	-1E+10	1	-1E+10	1
4901784	210	C	04/04/2021	10:43	-135.539	43.053	0	339.80	0	6.3110	0	36.8440	4	28.974	0	336.825	0	118.1	4	40.2	4	-1E+10	1	-1E+10	1	-1E+10	1	-1E+10	1	-1E+10	1	-1E+10	1
4901784	210	C	04/04/2021	10:43	-135.539	43.053	0	342.30	0	6.2900	0	36.8450	4	28.977	0	339.301	0	116.3	4	39.5	4	-1E+10	1	-1E+10	1	-1E+10	1	-1E+10	1	-1E+10	1	-1E+10	1
4901784	210	C	04/04/2021	10:43	-135.539	43.053	0	344.80	0	6.2600	0	36.8490	4	28.984	0	341.777	0	114.3	4	38.8	4	-1E+10	1	-1E+10	1	-1E+10	1	-1E+10	1	-1E+10	1	-1E+10	1
4901784	210	C	04/04/2021	10:43	-135.539	43.053	0	347.30	0	6.2410	0	36.8500	4	28.988	0	344.253	0	113.0	4	38.4	4	-1E+10	1	-1E+10	1	-1E+10	1	-1E+10	1	-1E+10	1	-1E+10	1
4901784	210	C	04/04/2021	10:43	-135.539	43.053	0	349.70	0	6.2150	0	36.8500	4	28.991	0	346.630	0	112.3	4	38.1	4	-1E+10	1	-1E+10	1	-1E+10	1	-1E+10	1	-1E+10	1	-1E+10	1
4901784	210	C	04/04/2021	10:43	-135.539	43.053	0	352.20	0	6.1810	0	36.8520	4	28.998	0	349.106	0	111.4	4	37.8	4	-1E+10	1	-1E+10	1	-1E+10	1	-1E+10	1	-1E+10	1	-1E+10	1
4901784	210	C	04/04/2021	10:43	-135.539	43.053	0	354.60	0	6.1580	0	36.8510	4	29.000	0	351.483	0	110.2	4	37.4	4	-1E+10	1	-1E+10	1	-1E+10	1	-1E+10	1	-1E+10	1	-1E+10	1
4901784	210	C	04/04/2021	10:43	-135.539	43.053	0	357.90	0	6.0780	0	36.8570	4	29.015	0	354.751	0	108.9	4	36.8	4	-1E+10	1	-1E+10	1	-1E+10	1	-1E+10	1	-1E+10	1	-1E+10	1
4901784	210	C	04/04/2021	10:43	-135.539	43.053	0	360.40	0	6.0480	0	36.8580	4	29.020	0	357.227	0	107.9	4	36.5	4	-1E+10	1	-1E+10	1	-1E+10	1	-1E+10	1	-1E+10	1	-1E+10	1
4901784	210	C	04/04/2021	10:43	-135.539	43.053	0	362.10	0	6.0470	0	36.8570	4	29.019	0	358.911	0	107.5	4	36.3	4	-1E+10	1	-1E+10	1	-1E+10	1	-1E+10	1	-1E+10	1	-1E+10	1
4901784	210	C	04/04/2021	10:43	-135.539	43.053	0	364.60	0	6.0400	0	36.8580	4	29.021	0	361.387	0	106.7	4	36.1	4	-1E+10	1	-1E+10	1	-1E+10	1	-1E+10	1	-1E+10	1	-1E+10	1
4901784	210	C	04/04/2021	10:43	-135.539	43.053	0	367.10	0	6.0020	0	36.8570	4	29.026	0	363.862	0	106.0	4	35.8	4	-1E+10	1	-1E+10	1	-1E+10	1	-1E+10	1	-1E+10	1	-1E+10	1
4901784	210	C	04/04/2021	10:43	-135.539	43.053	0	369.70	0	5.9940	0	36.8560	4	29.026	0	366.437	0	104.5	4	35.3	4	-1E+10	1	-1E+10	1	-1E+10	1	-1E+10	1	-1E+10	1	-1E+10	1
4901784	210	C	04/04/2021	10:43	-135.539	43.053	0	372.20	0	5.9670	0	36.8590	4	29.032	0	368.913	0	102.6	4	34.6	4	-1E+10	1	-1E+10	1	-1E+10	1	-1E+10	1	-1E+10	1	-1E+10	1
4901784	210	C	04/04/2021	10:43	-135.539	43.053	0	374.80	0	5.9180	0	36.8600	4	29.039	0	371.488	0	101.1	4	34.1	4	-1E+10	1	-1E+10	1	-1E+10	1	-1E+10	1	-1E+10	1	-1E+10	1
4901784	210	C	04/04/2021	10:43	-135.539	43.053	0	377.30	0	5.8920	0	36.8610	4	29.043	0	373.963	0	99.8	4	33.6	4	-1E+10	1	-1E+10	1	-1E+10	1	-1E+10	1	-1E+10	1	-1E+10	1
4901784	210	C	04/04/2021	10:43	-135.539	43.053	0	379.80	0	5.8530	0	36.8610	4	29.048	0	376.439	0	98.1	4	33.0	4	-1E+10	1	-1E+10	1	-1E+10	1	-1E+10	1	-1E+10	1	-1E+10	1
4901784	210	C	04/04/2021	10:43	-135.539	43.053	0	382.20	0	5.8030	0	36.8620	4	29.056	0	378.815	0	96.1	4	32.3	4	-1E+10	1	-1E+10	1	-1E+10	1	-1E+10	1	-1E+10	1	-1E+10	1
4901784	210	C	04/04/2021	10:43	-135.539	43.053	0	384.70	0	5.7240	0	36.8690	4	29.072	0	381.291	0	94.9	4	31.8	4	-1E+10	1	-1E+10	1	-1E+10	1	-1E+10	1	-1E+10	1	-1E+10	1
4901784	210	C	04/04/2021	10:43	-135.539	43.053	0	387.20	0	5.7060	0	36.8690	4	29.074	0	383.767	0	94.3	4	31.6	4	-1E+10	1	-1E+10	1	-1E+10	1	-1E+10	1	-1E+10	1	-1E+10	1
4901784	210	C	04/04/2021	10:43	-135.539	43.053	0	389.80	0	5.6780	0	36.8690	4	29.078	0	386.341	0	93.5	4	31.3	4	-1E+10	1	-1E+10	1	-1E+10	1	-1E+10	1	-1E+10	1	-1E+10	1
4901784	210	C	04/04/2021	10:43	-135.539	43.053	0	392.30	0	5.6590	0	36.8700	4	29.081	0	388.816	0	92.6	4	31.0	4	-1E+10	1	-1E+10	1	-1E+10	1	-1E+10	1	-1E+10	1	-1E+10	1
4901784	210	C	04/04/2021	10:43	-135.539	43.053	0	394.90	0	5.6370	0	36.8690	4	29.083	0	391.391	0	91.6	4	30.7	4	-1E+10	1	-1E+10	1	-1E+10	1	-1E+10	1	-1E+10	1	-1E+10	1
4901784	210	C	04/04/2021	10:43	-135.539	43.053	0	397.40	0	5.6210	0	36.8690	4	29.085	0	393.866	0	90.3	4	30.2	4	-1E+10	1	-1E+10	1	-1E+10	1	-1E+10	1	-1E+10	1	-1E+10	1
4901784	210	C	04/04/2021	10:43	-135.539	43.053	0	400.00	0	5.5600	0	36.8730	4	29.096	0	396.441	0	89.7	4	30.0	4	-1E+10	1	-1E+10	1	-1E+10	1	-1E+10	1	-1E+10	1	-1E+10	1
4901784	210	C	04/04/2021	10:43	-135.539	43.053	0	402.50	0	5.5090	0	36.8750	4	29.104	0	398.916	0	89.4	4	29.8	4	-1E+10	1	-1E+10	1	-1E+10	1	-1E+10	1	-1E+10	1	-1E+10	1
4901784	210	C	04/04/2021	10:43	-135.539	43.053	0	405.00	0	5.4750	0	36.8760	4	29.109	0	401.391	0	89.3	4	29.8	4	-1E+10	1	-1E+10	1	-1E+10	1	-1E+10	1	-1E+10	1	-1E+10	1
4901784	210	C	04/04/2021	10:43	-135.539	43.053	0	407.50	0	5.4520	0	36.8740	4	29.110	0	403.867	0	89.2	4	29.8	4	-1E+10	1	-1E+10	1	-1E+10	1	-1E+10	1	-1E+10	1	-1E+10	1
4901784	210	C	04/04/2021	10:43	-135.539	43.053	0	410.20	0	5.4100	0	36.8740	4	29.116	0	406.540	0	88.8	4	29.6	4	-1E+10	1	-1E+10	1	-1E+10	1	-1E+10	1	-1E+10	1	-1E+10	1
4901784	210	C	04/04/2021	10:43	-135.539	43.053	0	412.80	0	5.3790	0	36.8750	4	29.120	0	409.114	0	88.3	4	29.4	4	-1E+10	1	-1E+10	1	-1E+10	1	-1E+10	1	-1E+10	1	-1E+10	1
4901784	210	C	04/04/2021	10:43	-135.539	43.053	0	414.60	0	5.3730	0	36.8750	4	29.121	0	410.896	0	87.6	4	29.2	4	-1E+10	1	-1E+10	1	-1E+10	1	-1E+10	1	-1E+10	1	-1E+10	1
4901784	210	C	04/04/2021	10:43	-135.539	43.053	0	417.10	0	5.3050	0	36.8810	4	29.135	0	413.372	0	87.3	4	29.0	4	-1E+10	1	-1E+10	1	-1E+10	1	-1E+10	1	-1E+10	1	-1E+10	1
4901784	210	C	04/04/2021	10:43	-135.539	43.053	0	419.70	0	5.2810	0	36.8820	4	29.138	0	415.946	0	87.0	4	28.9	4	-1E+10	1	-1E+10	1	-1E+10	1	-1E+10	1	-1E+10	1	-1E+10	1
4901784	210	C	04/04/2021	10:43	-135.539	43.053	0	422.30	0	5.2760	0	36.8820	4	29.139	0	418.520	0	86.5	4	28.7	4	-1E+10	1	-1E+10	1	-1E+10	1	-1E+10	1	-1E+10	1	-1E+10	1
4901784	210	C	04/04/2021	10:43	-135.539	43.053	0	424.90	0	5.2540	0	36.8830	4	29.143	0	421.094	0	85.9	4	28.5	4	-1E+10	1	-1E+10	1	-1E+10	1	-1E+10	1	-1E+10	1	-1E+10	1
4901784	210	C	04/04/2021	10:43	-135.539	43.053	0	427.50	0	5.2340	0	36.8860	4	29.147	0	423.668	0	85.4	4	28.3	4	-1E+10	1	-1E+10	1	-1E+10	1	-1E+10	1	-1E+10	1	-1E+10	1
4901784	210	C	04/04/2021	10:43	-135.539	43.053	0	430.20	0	5.2300	0	36.8850	4	29.147	0	426.341	0	84.9	4	28.2	4	-1E+10	1	-1E+10	1	-1E+10	1	-1E+10	1	-1E+10	1	-1E+10	1
4901784	210	C	04/04/2021	10:43	-135.539	43.053	0	432.80	0	5.2250	0	36.8850	4	29.148	0	428.915	0	84.1	4	27.9	4	-1E+10	1	-1E+10	1	-1E+10	1	-1E+10	1	-1E+10	1	-1E+10	1
4901784	210	C	04/04/2021	10:43	-135.539	43.053	0	435.40	0	5.1920	0	36.8890	4	29.155	0	431.489	0	83.2	4	27.6	4	-1E+10	1	-1E+10	1	-1E+10	1	-1E+10	1	-1E+10	1	-1E+10	1
4901784	210	C	04/04/2021	10:43	-135.539	43.053	0	437.20	0	5.1820	0	36.8890	4	29.156	0	433.271	0	82.8	4	27.4	4	-1E+10	1	-1E+10	1	-1E+10	1	-1E+10	1	-1E+10	1	-1E+10	1
4901784	210	C	04/04/2021	10:43	-135.539	43.053	0	439.80	0	5.1680	0	36.8900	4	29.159	0	435.845	0	82.1	4	27.2	4	-1E+10	1	-1E+10	1	-1E+10	1	-1E+10	1	-1E+10	1	-1E+10	1
4901784	210	C	04/04/2021	10:43	-135.539	43.053	0	442.40	0	5.1530	0	36.8910	4	29.162	0	438.419	0	81.4	4	27.0	4	-1E+10	1	-1E+10	1	-1E+10	1	-1E+10	1	-1E+10	1	-1E+10	1
4901784	210	C	04/04/2021	10:43	-135.539	43.053	0	445.10	0	5.1380	0	36.8920	4	29.164	0	441.092	0	80.6	4	26.7	4	-1E+10	1	-1E+10	1	-1E+10	1	-1E+10	1	-1E+10	1	-1E+10	1
4901784	210	C	04/04/2021	10:43	-135.539	43.053	0	447.70	0	5.1080	0	36.8950	4	29.170	0	443.665	0	79.7	4	26.4	4	-1E+10	1	-1E+10	1	-1E+10	1	-1E+10	1	-1E+10	1	-1E+10	1
4901784	210	C	04/04/2021	10:43	-135.539	43.053	0	450.40	0	5.0870	0	36.8970	4	29.174	0	446.338	0	79.1	4	26.1	4	-1E+10	1	-1E+10	1	-1E+10	1	-1E+10	1	-1E+10	1	-1E+10	1
4901784	210	C	04/04/2021	10:43	-135.539	43.053	0	453.00	0	5.0860	0	36.8950	4	29.173	0	448.912	0	78.3	4	25.9	4	-1E+10	1	-1E+10	1	-1E+10	1	-1E+10	1	-1E+10	1	-1E+10	1
4901784	210	C	04/04/2021	10:43	-135.539	43.053	0	454.80	0	5.0660	0	36.8970	4	29.177	0	450.694	0	77.5	4	25.6	4	-1E+10	1	-1E+10	1	-1E+10	1	-1E+10	1	-1E+10	1	-1E+10	1
4901784	210	C	04/04/2021	10:43	-135.539	43.053	0	457.40	0	5.0390	0	36.9000	4	29.183	0	453.267	0	76.4	4	25.2	4	-1E+10	1	-1E+10	1	-1E+10	1	-1E+10	1	-1E+10	1	-1E+10	1
4901784	210	C	04/04/2021	10:43	-135.539	43.053	0	460.20	0	5.0120	0	36.9010	4	29.187	0	456.039	0	75.3	4	24.8	4	-1E+10	1	-1E+10	1	-1E+10	1	-1E+10	1	-1E+10	1	-1E+10	1
4901784	210	C	04/04/2021	10:43	-135.539	43.053	0	462.00	0	4.9770	0	36.9060	4	29.195	0	457.821	0	74.5	4	24.6	4	-1E+10	1	-1E+10	1	-1E+10	1	-1E+10	1	-1E+10	1	-1E+10	1
4901784	210	C	04/04/2021	10:43	-135.539	43.053	0	464.70	0	4.9580	0	36.9080	4	29.199	0	460.493	0	73.6	4	24.3	4	-1E+10	1	-1E+10	1	-1E+10	1	-1E+10	1	-1E+10	1	-1E+10	1
4901784	210	C	04/04/2021	10:43	-135.539	43.053	0	467.40	0	4.9440	0	36.9090	4	29.201	0	463.166	0	72.6	4	23.9	4	-1E+10	1	-1E+10	1	-1E+10	1	-1E+10	1	-1E+10	1	-1E+10	1
4901784	210	C	04/04/2021	10:43	-135.539	43.053	0	470.00	0	4.9160	0	36.9140	4	29.209	0	465.739	0	71.8	4	23.6	4	-1E+10	1	-1E+10	1	-1E+10	1	-1E+10	1	-1E+10	1	-1E+10	1
4901784	210	C	04/04/2021	10:43	-135.539	43.053	0	472.70	0	4.9080	0	36.9150	4	29.211	0	468.412	0	71.1	4	23.4	4	-1E+10	1	-1E+10	1	-1E+10	1	-1E+10	1	-1E+10	1	-1E+10	1
4901784	210	C	04/04/2021	10:43	-135.539	43.053	0	475.40	0	4.8910	0	36.9180	4	29.215	0	471.084	0	70.5	4	23.2	4	-1E+10	1	-1E+10	1	-1E+10	1	-1E+10	1	-1E+10	1	-1E+10	1
4901784	210	C	04/04/2021	10:43	-135.539	43.053	0	478.00	0	4.8720	0	36.9180	4	29.217	0	473.658	0	69.8	4	23.0	4	-1E+10	1	-1E+10	1	-1E+10	1	-1E+10	1	-1E+10	1	-1E+10	1
4901784	210	C	04/04/2021	10:43	-135.539	43.053	0	479.80	0	4.8580	0	36.9190	4	29.220	0	475.439	0	69.2	4	22.7	4	-1E+10	1	-1E+10	1	-1E+10	1	-1E+10	1	-1E+10	1	-1E+10	1
4901784	210	C	04/04/2021	10:43	-135.539	43.053	0	482.40	0	4.8420	0	36.9220	4	29.224	0	478.013	0	68.0	4	22.4	4	-1E+10	1	-1E+10	1	-1E+10	1	-1E+10	1	-1E+10	1	-1E+10	1
4901784	210	C	04/04/2021	10:43	-135.539	43.053	0	485.10	0	4.8350	0	36.9260	4	29.228	0	480.685	0	67.1	4	22.1	4	-1E+10	1	-1E+10	1	-1E+10	1	-1E+10	1	-1E+10	1	-1E+10	1
4901784	210	C	04/04/2021	10:43	-135.539	43.053	0	487.00	0	4.8260	0	36.9280	4	29.231	0	482.566	0	66.9	4	22.0	4	-1E+10	1	-1E+10	1	-1E+10	1	-1E+10	1	-1E+10	1	-1E+10	1
4901784	210	C	04/04/2021	10:43	-135.539	43.053	0	489.70	0	4.8230	0	36.9280	4	29.231	0	485.238	0	66.5	4	21.9	4	-1E+10	1	-1E+10	1	-1E+10	1	-1E+10	1	-1E+10	1	-1E+10	1
4901784	210	C	04/04/2021	10:43	-135.539	43.053	0	492.30	0	4.8080	0	36.9300	4	29.235	0	487.811	0	66.0	4	21.7	4	-1E+10	1	-1E+10	1	-1E+10	1	-1E+10	1	-1E+10	1	-1E+10	1
4901784	210	C	04/04/2021	10:43	-135.539	43.053	0	494.90	0	4.7870	0	36.9320	4	29.239	0	490.384	0	65.5	4	21.5	4	-1E+10	1	-1E+10	1	-1E+10	1	-1E+10	1	-1E+10	1	-1E+10	1
4901784	210	C	04/04/2021	10:43	-135.539	43.053	0	497.60	0	4.7630	0	36.9370	4	29.246	0	493.056	0	64.9	4	21.3	4	-1E+10	1	-1E+10	1	-1E+10	1	-1E+10	1	-1E+10	1	-1E+10	1
4901784	210	C	04/04/2021	10:43	-135.539	43.053	0	500.20	0	4.7530	0	36.9370	4	29.247	0	495.630	0	64.3	4	21.1	4	-1E+10	1	-1E+10	1	-1E+10	1	-1E+10	1	-1E+10	1	-1E+10	1
4901784	210	C	04/04/2021	10:43	-135.539	43.053	0	504.70	0	4.7270	0	36.9420	4	29.254	0	500.083	0	63.1	4	20.7	4	-1E+10	1	-1E+10	1	-1E+10	1	-1E+10	1	-1E+10	1	-1E+10	1
4901784	210	C	04/04/2021	10:43	-135.539	43.053	0	510.20	0	4.7110	0	36.9450	4	29.258	0	505.526	0	61.3	4	20.1	4	-1E+10	1	-1E+10	1	-1E+10	1	-1E+10	1	-1E+10	1	-1E+10	1
4901784	210	C	04/04/2021	10:43	-135.539	43.053	0	514.80	0	4.6740	0	36.9520	4	29.268	0	510.078	0	60.0	4	19.6	4	-1E+10	1	-1E+10	1	-1E+10	1	-1E+10	1	-1E+10	1	-1E+10	1
4901784	210	C	04/04/2021	10:43	-135.539	43.053	0	519.40	0	4.6640	0	36.9530	4	29.270	0	514.630	0	58.4	4	19.1	4	-1E+10	1	-1E+10	1	-1E+10	1	-1E+10	1	-1E+10	1	-1E+10	1
4901784	210	C	04/04/2021	10:43	-135.539	43.053	0	525.00	0	4.6330	0	36.9600	4	29.279	0	520.172	0	55.4	4	18.1	4	-1E+10	1	-1E+10	1	-1E+10	1	-1E+10	1	-1E+10	1	-1E+10	1
4901784	210	C	04/04/2021	10:43	-135.539	43.053	0	529.90	0	4.6110	0	36.9720	4	29.292	0	525.021	0	52.4	4	17.1	4	-1E+10	1	-1E+10	1	-1E+10	1	-1E+10	1	-1E+10	1	-1E+10	1
4901784	210	C	04/04/2021	10:43	-135.539	43.053	0	535.40	0	4.5950	0	36.9820	4	29.301	0	530.463	0	50.1	4	16.4	4	-1E+10	1	-1E+10	1	-1E+10	1	-1E+10	1	-1E+10	1	-1E+10	1
4901784	210	C	04/04/2021	10:43	-135.539	43.053	0	540.10	0	4.5820	0	36.9870	4	29.307	0	535.114	0	49.3	4	16.1	4	-1E+10	1	-1E+10	1	-1E+10	1	-1E+10	1	-1E+10	1	-1E+10	1
4901784	210	C	04/04/2021	10:43	-135.539	43.053	0	544.80	0	4.5640	0	36.9900	4	29.311	0	539.764	0	48.6	4	15.9	4	-1E+10	1	-1E+10	1	-1E+10	1	-1E+10	1	-1E+10	1	-1E+10	1
4901784	210	C	04/04/2021	10:43	-135.539	43.053	0	549.60	0	4.5400	0	36.9940	4	29.317	0	544.514	0	47.7	4	15.6	4	-1E+10	1	-1E+10	1	-1E+10	1	-1E+10	1	-1E+10	1	-1E+10	1
4901784	210	C	04/04/2021	10:43	-135.539	43.053	0	554.40	0	4.5200	0	36.9970	4	29.322	0	549.263	0	46.3	4	15.1	4	-1E+10	1	-1E+10	1	-1E+10	1	-1E+10	1	-1E+10	1	-1E+10	1
4901784	210	C	04/04/2021	10:43	-135.539	43.053	0	559.20	0	4.4980	0	37.0030	4	29.330	0	554.012	0	44.8	4	14.6	4	-1E+10	1	-1E+10	1	-1E+10	1	-1E+10	1	-1E+10	1	-1E+10	1
4901784	210	C	04/04/2021	10:43	-135.539	43.053	0	564.30	0	4.4860	0	37.0110	4	29.337	0	559.058	0	42.6	4	13.9	4	-1E+10	1	-1E+10	1	-1E+10	1	-1E+10	1	-1E+10	1	-1E+10	1
4901784	210	C	04/04/2021	10:43	-135.539	43.053	0	569.30	0	4.4650	0	37.0190	4	29.346	0	564.005	0	40.5	4	13.2	4	-1E+10	1	-1E+10	1	-1E+10	1	-1E+10	1	-1E+10	1	-1E+10	1
4901784	210	C	04/04/2021	10:43	-135.539	43.053	0	574.30	0	4.4710	0	37.0290	4	29.353	0	568.951	0	38.2	4	12.5	4	-1E+10	1	-1E+10	1	-1E+10	1	-1E+10	1	-1E+10	1	-1E+10	1
4901784	210	C	04/04/2021	10:43	-135.539	43.053	0	579.40	0	4.4420	0	37.0360	4	29.362	0	573.997	0	36.9	4	12.0	4	-1E+10	1	-1E+10	1	-1E+10	1	-1E+10	1	-1E+10	1	-1E+10	1
4901784	210	C	04/04/2021	10:43	-135.539	43.053	0	584.50	0	4.4320	0	37.0410	4	29.368	0	579.042	0	35.2	4	11.5	4	-1E+10	1	-1E+10	1	-1E+10	1	-1E+10	1	-1E+10	1	-1E+10	1
4901784	210	C	04/04/2021	10:43	-135.539	43.053	0	589.60	0	4.4080	0	37.0530	4	29.380	0	584.087	0	33.2	4	10.8	4	-1E+10	1	-1E+10	1	-1E+10	1	-1E+10	1	-1E+10	1	-1E+10	1
4901784	210	C	04/04/2021	10:43	-135.539	43.053	0	594.80	0	4.3880	0	37.0630	4	29.390	0	589.231	0	31.5	4	10.3	4	-1E+10	1	-1E+10	1	-1E+10	1	-1E+10	1	-1E+10	1	-1E+10	1
4901784	210	C	04/04/2021	10:43	-135.539	43.053	0	600.00	0	4.3690	0	37.0740	4	29.401	0	594.375	0	30.1	4	9.8	4	-1E+10	1	-1E+10	1	-1E+10	1	-1E+10	1	-1E+10	1	-1E+10	1
4901784	210	C	04/04/2021	10:43	-135.539	43.053	0	605.40	0	4.3430	0	37.0800	4	29.409	0	599.717	0	29.3	4	9.5	4	-1E+10	1	-1E+10	1	-1E+10	1	-1E+10	1	-1E+10	1	-1E+10	1
4901784	210	C	04/04/2021	10:43	-135.539	43.053	0	610.70	0	4.3360	0	37.0850	4	29.414	0	604.959	0	28.1	4	9.1	4	-1E+10	1	-1E+10	1	-1E+10	1	-1E+10	1	-1E+10	1	-1E+10	1
4901784	210	C	04/04/2021	10:43	-135.539	43.053	0	615.10	0	4.3420	0	37.0930	4	29.420	0	609.312	0	26.9	4	8.7	4	-1E+10	1	-1E+10	1	-1E+10	1	-1E+10	1	-1E+10	1	-1E+10	1
4901784	210	C	04/04/2021	10:43	-135.539	43.053	0	619.50	0	4.3290	0	37.0990	4	29.426	0	613.664	0	26.1	4	8.5	4	-1E+10	1	-1E+10	1	-1E+10	1	-1E+10	1	-1E+10	1	-1E+10	1
4901784	210	C	04/04/2021	10:43	-135.539	43.053	0	624.90	0	4.3030	0	37.1050	4	29.434	0	619.005	0	25.0	4	8.1	4	-1E+10	1	-1E+10	1	-1E+10	1	-1E+10	1	-1E+10	1	-1E+10	1
4901784	210	C	04/04/2021	10:43	-135.539	43.053	0	630.40	0	4.2780	0	37.1150	4	29.444	0	624.445	0	24.2	4	7.9	4	-1E+10	1	-1E+10	1	-1E+10	1	-1E+10	1	-1E+10	1	-1E+10	1
4901784	210	C	04/04/2021	10:43	-135.539	43.053	0	635.00	0	4.2670	0	37.1190	4	29.449	0	628.994	0	23.5	4	7.7	4	-1E+10	1	-1E+10	1	-1E+10	1	-1E+10	1	-1E+10	1	-1E+10	1
4901784	210	C	04/04/2021	10:43	-135.539	43.053	0	639.90	0	4.2570	0	37.1240	4	29.454	0	633.840	0	22.6	4	7.3	4	-1E+10	1	-1E+10	1	-1E+10	1	-1E+10	1	-1E+10	1	-1E+10	1
4901784	210	C	04/04/2021	10:43	-135.539	43.053	0	644.90	0	4.2600	0	37.1350	4	29.462	0	638.785	0	21.3	4	6.9	4	-1E+10	1	-1E+10	1	-1E+10	1	-1E+10	1	-1E+10	1	-1E+10	1
4901784	210	C	04/04/2021	10:43	-135.539	43.053	0	649.60	0	4.2650	0	37.1410	4	29.467	0	643.434	0	20.2	4	6.6	4	-1E+10	1	-1E+10	1	-1E+10	1	-1E+10	1	-1E+10	1	-1E+10	1
4901784	210	C	04/04/2021	10:43	-135.539	43.053	0	654.40	0	4.2630	0	37.1520	4	29.476	0	648.181	0	19.4	4	6.3	4	-1E+10	1	-1E+10	1	-1E+10	1	-1E+10	1	-1E+10	1	-1E+10	1
4901784	210	C	04/04/2021	10:43	-135.539	43.053	0	659.20	0	4.2460	0	37.1550	4	29.480	0	652.927	0	19.2	4	6.2	4	-1E+10	1	-1E+10	1	-1E+10	1	-1E+10	1	-1E+10	1	-1E+10	1
4901784	210	C	04/04/2021	10:43	-135.539	43.053	0	665.00	0	4.2140	0	37.1590	4	29.487	0	658.663	0	18.8	4	6.1	4	-1E+10	1	-1E+10	1	-1E+10	1	-1E+10	1	-1E+10	1	-1E+10	1
4901784	210	C	04/04/2021	10:43	-135.539	43.053	0	670.70	0	4.1800	0	37.1660	4	29.496	0	664.300	0	18.2	4	5.9	4	-1E+10	1	-1E+10	1	-1E+10	1	-1E+10	1	-1E+10	1	-1E+10	1
4901784	210	C	04/04/2021	10:43	-135.539	43.053	0	675.60	0	4.1910	0	37.1720	4	29.500	0	669.145	0	17.3	4	5.6	4	-1E+10	1	-1E+10	1	-1E+10	1	-1E+10	1	-1E+10	1	-1E+10	1
4901784	210	C	04/04/2021	10:43	-135.539	43.053	0	680.50	0	4.1820	0	37.1830	4	29.510	0	673.990	0	16.5	4	5.3	4	-1E+10	1	-1E+10	1	-1E+10	1	-1E+10	1	-1E+10	1	-1E+10	1
4901784	210	C	04/04/2021	10:43	-135.539	43.053	0	685.60	0	4.1820	0	37.1900	4	29.515	0	679.033	0	15.8	4	5.1	4	-1E+10	1	-1E+10	1	-1E+10	1	-1E+10	1	-1E+10	1	-1E+10	1
4901784	210	C	04/04/2021	10:43	-135.539	43.053	0	690.60	0	4.1770	0	37.1980	4	29.522	0	683.977	0	15.3	4	5.0	4	-1E+10	1	-1E+10	1	-1E+10	1	-1E+10	1	-1E+10	1	-1E+10	1
4901784	210	C	04/04/2021	10:43	-135.539	43.053	0	695.60	0	4.1660	0	37.2060	4	29.530	0	688.921	0	14.9	4	4.8	4	-1E+10	1	-1E+10	1	-1E+10	1	-1E+10	1	-1E+10	1	-1E+10	1
4901784	210	C	04/04/2021	10:43	-135.539	43.053	0	700.80	0	4.1680	0	37.2090	4	29.532	0	694.062	0	14.7	4	4.8	4	-1E+10	1	-1E+10	1	-1E+10	1	-1E+10	1	-1E+10	1	-1E+10	1
4901784	210	C	04/04/2021	10:43	-135.539	43.053	0	705.00	0	4.1710	0	37.2110	4	29.534	0	698.215	0	14.5	4	4.7	4	-1E+10	1	-1E+10	1	-1E+10	1	-1E+10	1	-1E+10	1	-1E+10	1
4901784	210	C	04/04/2021	10:43	-135.539	43.053	0	709.30	0	4.1750	0	37.2120	4	29.534	0	702.466	0	14.3	4	4.6	4	-1E+10	1	-1E+10	1	-1E+10	1	-1E+10	1	-1E+10	1	-1E+10	1
4901784	210	C	04/04/2021	10:43	-135.539	43.053	0	714.60	0	4.1620	0	37.2170	4	29.539	0	707.706	0	14.1	4	4.6	4	-1E+10	1	-1E+10	1	-1E+10	1	-1E+10	1	-1E+10	1	-1E+10	1
4901784	210	C	04/04/2021	10:43	-135.539	43.053	0	719.80	0	4.1350	0	37.2220	4	29.546	0	712.847	0	14.0	4	4.5	4	-1E+10	1	-1E+10	1	-1E+10	1	-1E+10	1	-1E+10	1	-1E+10	1
4901784	210	C	04/04/2021	10:43	-135.539	43.053	0	725.00	0	4.1310	0	37.2240	4	29.549	0	717.988	0	13.8	4	4.5	4	-1E+10	1	-1E+10	1	-1E+10	1	-1E+10	1	-1E+10	1	-1E+10	1
4901784	210	C	04/04/2021	10:43	-135.539	43.053	0	730.30	0	4.1360	0	37.2280	4	29.551	0	723.228	0	13.5	4	4.4	4	-1E+10	1	-1E+10	1	-1E+10	1	-1E+10	1	-1E+10	1	-1E+10	1
4901784	210	C	04/04/2021	10:43	-135.539	43.053	0	735.60	0	4.1400	0	37.2330	4	29.555	0	728.467	0	13.2	4	4.3	4	-1E+10	1	-1E+10	1	-1E+10	1	-1E+10	1	-1E+10	1	-1E+10	1
4901784	210	C	04/04/2021	10:43	-135.539	43.053	0	740.00	0	4.1410	0	37.2360	4	29.557	0	732.817	0	13.1	4	4.2	4	-1E+10	1	-1E+10	1	-1E+10	1	-1E+10	1	-1E+10	1	-1E+10	1
4901784	210	C	04/04/2021	10:43	-135.539	43.053	0	744.20	0	4.1260	0	37.2400	4	29.562	0	736.968	0	12.9	4	4.2	4	-1E+10	1	-1E+10	1	-1E+10	1	-1E+10	1	-1E+10	1	-1E+10	1
4901784	210	C	04/04/2021	10:43	-135.539	43.053	0	749.50	0	4.1140	0	37.2440	4	29.567	0	742.208	0	12.9	4	4.2	4	-1E+10	1	-1E+10	1	-1E+10	1	-1E+10	1	-1E+10	1	-1E+10	1
4901784	210	C	04/04/2021	10:43	-135.539	43.053	0	754.60	0	4.1050	0	37.2450	4	29.568	0	747.249	0	12.8	4	4.2	4	-1E+10	1	-1E+10	1	-1E+10	1	-1E+10	1	-1E+10	1	-1E+10	1
4901784	210	C	04/04/2021	10:43	-135.539	43.053	0	759.80	0	4.0780	0	37.2490	4	29.575	0	752.389	0	12.7	4	4.1	4	-1E+10	1	-1E+10	1	-1E+10	1	-1E+10	1	-1E+10	1	-1E+10	1
4901784	210	C	04/04/2021	10:43	-135.539	43.053	0	765.00	0	4.0640	0	37.2540	4	29.580	0	757.529	0	12.5	4	4.1	4	-1E+10	1	-1E+10	1	-1E+10	1	-1E+10	1	-1E+10	1	-1E+10	1
4901784	210	C	04/04/2021	10:43	-135.539	43.053	0	770.20	0	4.0540	0	37.2570	4	29.584	0	762.668	0	12.4	4	4.0	4	-1E+10	1	-1E+10	1	-1E+10	1	-1E+10	1	-1E+10	1	-1E+10	1
4901784	210	C	04/04/2021	10:43	-135.539	43.053	0	775.40	0	4.0440	0	37.2620	4	29.589	0	767.808	0	12.1	4	3.9	4	-1E+10	1	-1E+10	1	-1E+10	1	-1E+10	1	-1E+10	1	-1E+10	1
4901784	210	C	04/04/2021	10:43	-135.539	43.053	0	780.60	0	4.0270	0	37.2670	4	29.595	0	772.947	0	12.0	4	3.9	4	-1E+10	1	-1E+10	1	-1E+10	1	-1E+10	1	-1E+10	1	-1E+10	1
4901784	210	C	04/04/2021	10:43	-135.539	43.053	0	785.00	0	4.0150	0	37.2720	4	29.600	0	777.296	0	11.8	4	3.8	4	-1E+10	1	-1E+10	1	-1E+10	1	-1E+10	1	-1E+10	1	-1E+10	1
4901784	210	C	04/04/2021	10:43	-135.539	43.053	0	789.40	0	4.0180	0	37.2770	4	29.604	0	781.645	0	11.6	4	3.8	4	-1E+10	1	-1E+10	1	-1E+10	1	-1E+10	1	-1E+10	1	-1E+10	1
4901784	210	C	04/04/2021	10:43	-135.539	43.053	0	794.70	0	4.0140	0	37.2790	4	29.606	0	786.883	0	11.5	4	3.7	4	-1E+10	1	-1E+10	1	-1E+10	1	-1E+10	1	-1E+10	1	-1E+10	1
4901784	210	C	04/04/2021	10:43	-135.539	43.053	0	800.00	0	4.0000	0	37.2820	4	29.610	0	792.120	0	11.4	4	3.7	4	-1E+10	1	-1E+10	1	-1E+10	1	-1E+10	1	-1E+10	1	-1E+10	1
4901784	210	C	04/04/2021	10:43	-135.539	43.053	0	805.40	0	3.9770	0	37.2870	4	29.616	0	797.457	0	11.3	4	3.7	4	-1E+10	1	-1E+10	1	-1E+10	1	-1E+10	1	-1E+10	1	-1E+10	1
4901784	210	C	04/04/2021	10:43	-135.539	43.053	0	810.60	0	3.9690	0	37.2930	4	29.622	0	802.596	0	11.1	4	3.6	4	-1E+10	1	-1E+10	1	-1E+10	1	-1E+10	1	-1E+10	1	-1E+10	1
4901784	210	C	04/04/2021	10:43	-135.539	43.053	0	815.00	0	3.9590	0	37.2950	4	29.625	0	806.944	0	11.1	4	3.6	4	-1E+10	1	-1E+10	1	-1E+10	1	-1E+10	1	-1E+10	1	-1E+10	1
4901784	210	C	04/04/2021	10:43	-135.539	43.053	0	819.40	0	3.9440	0	37.2970	4	29.628	0	811.292	0	11.0	4	3.5	4	-1E+10	1	-1E+10	1	-1E+10	1	-1E+10	1	-1E+10	1	-1E+10	1
4901784	210	C	04/04/2021	10:43	-135.539	43.053	0	824.60	0	3.9220	0	37.3050	4	29.637	0	816.430	0	10.8	4	3.5	4	-1E+10	1	-1E+10	1	-1E+10	1	-1E+10	1	-1E+10	1	-1E+10	1
4901784	210	C	04/04/2021	10:43	-135.539	43.053	0	829.90	0	3.8750	0	37.3130	4	29.649	0	821.667	0	10.6	4	3.4	4	-1E+10	1	-1E+10	1	-1E+10	1	-1E+10	1	-1E+10	1	-1E+10	1
4901784	210	C	04/04/2021	10:43	-135.539	43.053	0	835.30	0	3.8640	0	37.3190	4	29.655	0	827.003	0	10.6	4	3.4	4	-1E+10	1	-1E+10	1	-1E+10	1	-1E+10	1	-1E+10	1	-1E+10	1
4901784	210	C	04/04/2021	10:43	-135.539	43.053	0	840.70	0	3.8280	0	37.3220	4	29.661	0	832.339	0	10.6	4	3.4	4	-1E+10	1	-1E+10	1	-1E+10	1	-1E+10	1	-1E+10	1	-1E+10	1
4901784	210	C	04/04/2021	10:43	-135.539	43.053	0	845.20	0	3.8180	0	37.3240	4	29.664	0	836.785	0	10.6	4	3.4	4	-1E+10	1	-1E+10	1	-1E+10	1	-1E+10	1	-1E+10	1	-1E+10	1
4901784	210	C	04/04/2021	10:43	-135.539	43.053	0	849.70	0	3.8040	0	37.3280	4	29.668	0	841.231	0	10.5	4	3.4	4	-1E+10	1	-1E+10	1	-1E+10	1	-1E+10	1	-1E+10	1	-1E+10	1
4901784	210	C	04/04/2021	10:43	-135.539	43.053	0	855.00	0	3.7900	0	37.3330	4	29.674	0	846.467	0	10.5	4	3.4	4	-1E+10	1	-1E+10	1	-1E+10	1	-1E+10	1	-1E+10	1	-1E+10	1
4901784	210	C	04/04/2021	10:43	-135.539	43.053	0	860.40	0	3.7730	0	37.3370	4	29.679	0	851.802	0	10.4	4	3.3	4	-1E+10	1	-1E+10	1	-1E+10	1	-1E+10	1	-1E+10	1	-1E+10	1
4901784	210	C	04/04/2021	10:43	-135.539	43.053	0	864.90	0	3.7750	0	37.3380	4	29.680	0	856.248	0	10.4	4	3.3	4	-1E+10	1	-1E+10	1	-1E+10	1	-1E+10	1	-1E+10	1	-1E+10	1
4901784	210	C	04/04/2021	10:43	-135.539	43.053	0	869.40	0	3.7600	0	37.3400	4	29.683	0	860.694	0	10.4	4	3.3	4	-1E+10	1	-1E+10	1	-1E+10	1	-1E+10	1	-1E+10	1	-1E+10	1
4901784	210	C	04/04/2021	10:43	-135.539	43.053	0	874.90	0	3.7490	0	37.3430	4	29.686	0	866.128	0	10.3	4	3.3	4	-1E+10	1	-1E+10	1	-1E+10	1	-1E+10	1	-1E+10	1	-1E+10	1
4901784	210	C	04/04/2021	10:43	-135.539	43.053	0	880.40	0	3.7470	0	37.3450	4	29.688	0	871.561	0	10.3	4	3.3	4	-1E+10	1	-1E+10	1	-1E+10	1	-1E+10	1	-1E+10	1	-1E+10	1
4901784	210	C	04/04/2021	10:43	-135.539	43.053	0	884.90	0	3.7350	0	37.3480	4	29.692	0	876.006	0	10.2	4	3.3	4	-1E+10	1	-1E+10	1	-1E+10	1	-1E+10	1	-1E+10	1	-1E+10	1
4901784	210	C	04/04/2021	10:43	-135.539	43.053	0	889.80	0	3.7120	0	37.3540	4	29.699	0	880.847	0	10.2	4	3.3	4	-1E+10	1	-1E+10	1	-1E+10	1	-1E+10	1	-1E+10	1	-1E+10	1
4901784	210	C	04/04/2021	10:43	-135.539	43.053	0	894.90	0	3.7020	0	37.3580	4	29.704	0	885.885	0	10.2	4	3.3	4	-1E+10	1	-1E+10	1	-1E+10	1	-1E+10	1	-1E+10	1	-1E+10	1
4901784	210	C	04/04/2021	10:43	-135.539	43.053	0	899.60	0	3.7050	0	37.3630	4	29.707	0	890.527	0	10.1	4	3.2	4	-1E+10	1	-1E+10	1	-1E+10	1	-1E+10	1	-1E+10	1	-1E+10	1
4901784	210	C	04/04/2021	10:43	-135.539	43.053	0	904.40	0	3.7070	0	37.3660	4	29.709	0	895.269	0	10.1	4	3.2	4	-1E+10	1	-1E+10	1	-1E+10	1	-1E+10	1	-1E+10	1	-1E+10	1
4901784	210	C	04/04/2021	10:43	-135.539	43.053	0	909.30	0	3.7000	0	37.3680	4	29.712	0	900.109	0	10.1	4	3.2	4	-1E+10	1	-1E+10	1	-1E+10	1	-1E+10	1	-1E+10	1	-1E+10	1
4901784	210	C	04/04/2021	10:43	-135.539	43.053	0	915.00	0	3.6780	0	37.3720	4	29.717	0	905.739	0	10.1	4	3.2	4	-1E+10	1	-1E+10	1	-1E+10	1	-1E+10	1	-1E+10	1	-1E+10	1
4901784	210	C	04/04/2021	10:43	-135.539	43.053	0	920.60	0	3.6620	0	37.3780	4	29.724	0	911.270	0	10.0	4	3.2	4	-1E+10	1	-1E+10	1	-1E+10	1	-1E+10	1	-1E+10	1	-1E+10	1
4901784	210	C	04/04/2021	10:43	-135.539	43.053	0	925.50	0	3.6480	0	37.3840	4	29.730	0	916.109	0	10.0	4	3.2	4	-1E+10	1	-1E+10	1	-1E+10	1	-1E+10	1	-1E+10	1	-1E+10	1
4901784	210	C	04/04/2021	10:43	-135.539	43.053	0	930.50	0	3.6480	0	37.3860	4	29.732	0	921.048	0	10.1	4	3.2	4	-1E+10	1	-1E+10	1	-1E+10	1	-1E+10	1	-1E+10	1	-1E+10	1
4901784	210	C	04/04/2021	10:43	-135.539	43.053	0	935.50	0	3.6440	0	37.3920	4	29.737	0	925.986	0	10.1	4	3.2	4	-1E+10	1	-1E+10	1	-1E+10	1	-1E+10	1	-1E+10	1	-1E+10	1
4901784	210	C	04/04/2021	10:43	-135.539	43.053	0	940.60	0	3.6390	0	37.3930	4	29.739	0	931.023	0	10.1	4	3.2	4	-1E+10	1	-1E+10	1	-1E+10	1	-1E+10	1	-1E+10	1	-1E+10	1
4901784	210	C	04/04/2021	10:43	-135.539	43.053	0	945.60	0	3.6320	0	37.3950	4	29.741	0	935.961	0	10.1	4	3.2	4	-1E+10	1	-1E+10	1	-1E+10	1	-1E+10	1	-1E+10	1	-1E+10	1
4901784	210	C	04/04/2021	10:43	-135.539	43.053	0	950.70	0	3.6250	0	37.3970	4	29.743	0	940.997	0	10.1	4	3.2	4	-1E+10	1	-1E+10	1	-1E+10	1	-1E+10	1	-1E+10	1	-1E+10	1
4901784	210	C	04/04/2021	10:43	-135.539	43.053	0	955.00	0	3.6150	0	37.4000	4	29.747	0	945.244	0	10.1	4	3.2	4	-1E+10	1	-1E+10	1	-1E+10	1	-1E+10	1	-1E+10	1	-1E+10	1
4901784	210	C	04/04/2021	10:43	-135.539	43.053	0	959.20	0	3.6030	0	37.4020	4	29.750	0	949.391	0	10.1	4	3.2	4	-1E+10	1	-1E+10	1	-1E+10	1	-1E+10	1	-1E+10	1	-1E+10	1
4901784	210	C	04/04/2021	10:43	-135.539	43.053	0	964.40	0	3.5880	0	37.4060	4	29.755	0	954.526	0	10.2	4	3.3	4	-1E+10	1	-1E+10	1	-1E+10	1	-1E+10	1	-1E+10	1	-1E+10	1
4901784	210	C	04/04/2021	10:43	-135.539	43.053	0	969.70	0	3.5820	0	37.4090	4	29.758	0	959.760	0	10.2	4	3.3	4	-1E+10	1	-1E+10	1	-1E+10	1	-1E+10	1	-1E+10	1	-1E+10	1
4901784	210	C	04/04/2021	10:43	-135.539	43.053	0	975.00	0	3.5680	0	37.4110	4	29.761	0	964.993	0	10.2	4	3.3	4	-1E+10	1	-1E+10	1	-1E+10	1	-1E+10	1	-1E+10	1	-1E+10	1
4901784	210	C	04/04/2021	10:43	-135.539	43.053	0	980.40	0	3.5520	0	37.4130	4	29.764	0	970.325	0	10.2	4	3.3	4	-1E+10	1	-1E+10	1	-1E+10	1	-1E+10	1	-1E+10	1	-1E+10	1
4901784	210	C	04/04/2021	10:43	-135.539	43.053	0	984.80	0	3.5440	0	37.4160	4	29.767	0	974.670	0	10.3	4	3.3	4	-1E+10	1	-1E+10	1	-1E+10	1	-1E+10	1	-1E+10	1	-1E+10	1
4901784	210	C	04/04/2021	10:43	-135.539	43.053	0	989.30	0	3.5260	0	37.4200	4	29.772	0	979.113	0	10.3	4	3.3	4	-1E+10	1	-1E+10	1	-1E+10	1	-1E+10	1	-1E+10	1	-1E+10	1
4901784	210	C	04/04/2021	10:43	-135.539	43.053	0	994.70	0	3.5130	0	37.4220	4	29.775	0	984.445	0	10.3	4	3.3	4	-1E+10	1	-1E+10	1	-1E+10	1	-1E+10	1	-1E+10	1	-1E+10	1
4901784	210	C	04/04/2021	10:43	-135.539	43.053	0	1000.30	0	3.4960	0	37.4250	4	29.780	0	989.974	0	10.4	4	3.3	4	-1E+10	1	-1E+10	1	-1E+10	1	-1E+10	1	-1E+10	1	-1E+10	1
4901784	210	C	04/04/2021	10:43	-135.539	43.053	0	1005.00	0	3.4870	0	37.4300	4	29.785	0	994.614	0	10.5	4	3.4	4	-1E+10	1	-1E+10	1	-1E+10	1	-1E+10	1	-1E+10	1	-1E+10	1
4901784	210	C	04/04/2021	10:43	-135.539	43.053	0	1010.40	0	3.4770	0	37.4340	4	29.789	0	999.945	0	10.6	4	3.4	4	-1E+10	1	-1E+10	1	-1E+10	1	-1E+10	1	-1E+10	1	-1E+10	1
4901784	210	C	04/04/2021	10:43	-135.539	43.053	0	1015.10	0	3.4700	0	37.4370	4	29.792	0	1004.586	0	10.7	4	3.4	4	-1E+10	1	-1E+10	1	-1E+10	1	-1E+10	1	-1E+10	1	-1E+10	1
4901784	210	C	04/04/2021	10:43	-135.539	43.053	0	1019.90	0	3.4640	0	37.4400	4	29.795	0	1009.324	0	10.7	4	3.4	4	-1E+10	1	-1E+10	1	-1E+10	1	-1E+10	1	-1E+10	1	-1E+10	1
4901784	210	C	04/04/2021	10:43	-135.539	43.053	0	1024.70	0	3.4610	0	37.4400	4	29.795	0	1014.063	0	10.8	4	3.4	4	-1E+10	1	-1E+10	1	-1E+10	1	-1E+10	1	-1E+10	1	-1E+10	1
4901784	210	C	04/04/2021	10:43	-135.539	43.053	0	1029.60	0	3.4470	0	37.4450	4	29.801	0	1018.900	0	10.9	4	3.5	4	-1E+10	1	-1E+10	1	-1E+10	1	-1E+10	1	-1E+10	1	-1E+10	1
4901784	210	C	04/04/2021	10:43	-135.539	43.053	0	1034.50	0	3.4360	0	37.4470	4	29.804	0	1023.737	0	10.9	4	3.5	4	-1E+10	1	-1E+10	1	-1E+10	1	-1E+10	1	-1E+10	1	-1E+10	1
4901784	210	C	04/04/2021	10:43	-135.539	43.053	0	1039.40	0	3.4300	0	37.4490	4	29.806	0	1028.574	0	11.0	4	3.5	4	-1E+10	1	-1E+10	1	-1E+10	1	-1E+10	1	-1E+10	1	-1E+10	1
4901784	210	C	04/04/2021	10:43	-135.539	43.053	0	1044.30	0	3.4170	0	37.4500	4	29.808	0	1033.411	0	11.0	4	3.5	4	-1E+10	1	-1E+10	1	-1E+10	1	-1E+10	1	-1E+10	1	-1E+10	1
4901784	210	C	04/04/2021	10:43	-135.539	43.053	0	1049.30	0	3.4020	0	37.4520	4	29.811	0	1038.347	0	11.0	4	3.5	4	-1E+10	1	-1E+10	1	-1E+10	1	-1E+10	1	-1E+10	1	-1E+10	1
4901784	210	C	04/04/2021	10:43	-135.539	43.053	0	1054.30	0	3.3960	0	37.4540	4	29.814	0	1043.282	0	11.1	4	3.5	4	-1E+10	1	-1E+10	1	-1E+10	1	-1E+10	1	-1E+10	1	-1E+10	1
4901784	210	C	04/04/2021	10:43	-135.539	43.053	0	1059.40	0	3.3780	0	37.4570	4	29.818	0	1048.316	0	11.1	4	3.5	4	-1E+10	1	-1E+10	1	-1E+10	1	-1E+10	1	-1E+10	1	-1E+10	1
4901784	210	C	04/04/2021	10:43	-135.539	43.053	0	1064.60	0	3.3630	0	37.4600	4	29.822	0	1053.449	0	11.2	4	3.6	4	-1E+10	1	-1E+10	1	-1E+10	1	-1E+10	1	-1E+10	1	-1E+10	1
4901784	210	C	04/04/2021	10:43	-135.539	43.053	0	1069.70	0	3.3530	0	37.4620	4	29.824	0	1058.482	0	11.2	4	3.6	4	-1E+10	1	-1E+10	1	-1E+10	1	-1E+10	1	-1E+10	1	-1E+10	1
4901784	210	C	04/04/2021	10:43	-135.539	43.053	0	1074.90	0	3.3510	0	37.4640	4	29.826	0	1063.615	0	11.3	4	3.6	4	-1E+10	1	-1E+10	1	-1E+10	1	-1E+10	1	-1E+10	1	-1E+10	1
4901784	210	C	04/04/2021	10:43	-135.539	43.053	0	1080.10	0	3.3350	0	37.4660	4	29.830	0	1068.747	0	11.3	4	3.6	4	-1E+10	1	-1E+10	1	-1E+10	1	-1E+10	1	-1E+10	1	-1E+10	1
4901784	210	C	04/04/2021	10:43	-135.539	43.053	0	1085.40	0	3.3220	0	37.4670	4	29.832	0	1073.977	0	11.4	4	3.6	4	-1E+10	1	-1E+10	1	-1E+10	1	-1E+10	1	-1E+10	1	-1E+10	1
4901784	210	C	04/04/2021	10:43	-135.539	43.053	0	1090.20	0	3.3100	0	37.4700	4	29.835	0	1078.715	0	11.5	4	3.7	4	-1E+10	1	-1E+10	1	-1E+10	1	-1E+10	1	-1E+10	1	-1E+10	1
4901784	210	C	04/04/2021	10:43	-135.539	43.053	0	1095.00	0	3.2970	0	37.4740	4	29.840	0	1083.452	0	11.6	4	3.7	4	-1E+10	1	-1E+10	1	-1E+10	1	-1E+10	1	-1E+10	1	-1E+10	1
4901784	210	C	04/04/2021	10:43	-135.539	43.053	0	1099.80	0	3.2860	0	37.4770	4	29.844	0	1088.189	0	11.8	4	3.7	4	-1E+10	1	-1E+10	1	-1E+10	1	-1E+10	1	-1E+10	1	-1E+10	1
4901784	210	C	04/04/2021	10:43	-135.539	43.053	0	1104.70	0	3.2800	0	37.4780	4	29.845	0	1093.024	0	11.9	4	3.8	4	-1E+10	1	-1E+10	1	-1E+10	1	-1E+10	1	-1E+10	1	-1E+10	1
4901784	210	C	04/04/2021	10:43	-135.539	43.053	0	1109.60	0	3.2670	0	37.4820	4	29.850	0	1097.859	0	12.0	4	3.8	4	-1E+10	1	-1E+10	1	-1E+10	1	-1E+10	1	-1E+10	1	-1E+10	1
4901784	210	C	04/04/2021	10:43	-135.539	43.053	0	1114.50	0	3.2520	0	37.4850	4	29.853	0	1102.695	0	12.2	4	3.9	4	-1E+10	1	-1E+10	1	-1E+10	1	-1E+10	1	-1E+10	1	-1E+10	1
4901784	210	C	04/04/2021	10:43	-135.539	43.053	0	1120.40	0	3.2400	0	37.4880	4	29.857	0	1108.517	0	12.3	4	3.9	4	-1E+10	1	-1E+10	1	-1E+10	1	-1E+10	1	-1E+10	1	-1E+10	1
4901784	210	C	04/04/2021	10:43	-135.539	43.053	0	1125.30	0	3.2310	0	37.4900	4	29.860	0	1113.352	0	12.4	4	3.9	4	-1E+10	1	-1E+10	1	-1E+10	1	-1E+10	1	-1E+10	1	-1E+10	1
4901784	210	C	04/04/2021	10:43	-135.539	43.053	0	1130.20	0	3.2220	0	37.4920	4	29.862	0	1118.187	0	12.5	4	4.0	4	-1E+10	1	-1E+10	1	-1E+10	1	-1E+10	1	-1E+10	1	-1E+10	1
4901784	210	C	04/04/2021	10:43	-135.539	43.053	0	1135.20	0	3.2150	0	37.4950	4	29.865	0	1123.120	0	12.6	4	4.0	4	-1E+10	1	-1E+10	1	-1E+10	1	-1E+10	1	-1E+10	1	-1E+10	1
4901784	210	C	04/04/2021	10:43	-135.539	43.053	0	1140.10	0	3.2080	0	37.4950	4	29.866	0	1127.955	0	12.7	4	4.0	4	-1E+10	1	-1E+10	1	-1E+10	1	-1E+10	1	-1E+10	1	-1E+10	1
4901784	210	C	04/04/2021	10:43	-135.539	43.053	0	1145.00	0	3.1970	0	37.4980	4	29.870	0	1132.790	0	12.8	4	4.1	4	-1E+10	1	-1E+10	1	-1E+10	1	-1E+10	1	-1E+10	1	-1E+10	1
4901784	210	C	04/04/2021	10:43	-135.539	43.053	0	1149.90	0	3.1790	0	37.5010	4	29.874	0	1137.624	0	13.0	4	4.1	4	-1E+10	1	-1E+10	1	-1E+10	1	-1E+10	1	-1E+10	1	-1E+10	1
4901784	210	C	04/04/2021	10:43	-135.539	43.053	0	1154.90	0	3.1660	0	37.5040	4	29.878	0	1142.557	0	13.0	4	4.1	4	-1E+10	1	-1E+10	1	-1E+10	1	-1E+10	1	-1E+10	1	-1E+10	1
4901784	210	C	04/04/2021	10:43	-135.539	43.053	0	1159.80	0	3.1540	0	37.5060	4	29.880	0	1147.391	0	13.1	4	4.2	4	-1E+10	1	-1E+10	1	-1E+10	1	-1E+10	1	-1E+10	1	-1E+10	1
4901784	210	C	04/04/2021	10:43	-135.539	43.053	0	1164.80	0	3.1490	0	37.5080	4	29.883	0	1152.324	0	13.2	4	4.2	4	-1E+10	1	-1E+10	1	-1E+10	1	-1E+10	1	-1E+10	1	-1E+10	1
4901784	210	C	04/04/2021	10:43	-135.539	43.053	0	1169.70	0	3.1410	0	37.5090	4	29.884	0	1157.158	0	13.4	4	4.2	4	-1E+10	1	-1E+10	1	-1E+10	1	-1E+10	1	-1E+10	1	-1E+10	1
4901784	210	C	04/04/2021	10:43	-135.539	43.053	0	1174.70	0	3.1280	0	37.5120	4	29.888	0	1162.091	0	13.6	4	4.3	4	-1E+10	1	-1E+10	1	-1E+10	1	-1E+10	1	-1E+10	1	-1E+10	1
4901784	210	C	04/04/2021	10:43	-135.539	43.053	0	1179.70	0	3.1180	0	37.5140	4	29.891	0	1167.023	0	13.7	4	4.3	4	-1E+10	1	-1E+10	1	-1E+10	1	-1E+10	1	-1E+10	1	-1E+10	1
4901784	210	C	04/04/2021	10:43	-135.539	43.053	0	1184.70	0	3.1050	0	37.5170	4	29.894	0	1171.955	0	13.9	4	4.4	4	-1E+10	1	-1E+10	1	-1E+10	1	-1E+10	1	-1E+10	1	-1E+10	1
4901784	210	C	04/04/2021	10:43	-135.539	43.053	0	1189.80	0	3.0960	0	37.5190	4	29.897	0	1176.986	0	14.0	4	4.4	4	-1E+10	1	-1E+10	1	-1E+10	1	-1E+10	1	-1E+10	1	-1E+10	1
4901784	210	C	04/04/2021	10:43	-135.539	43.053	0	1194.80	0	3.0900	0	37.5210	4	29.899	0	1181.919	0	14.1	4	4.5	4	-1E+10	1	-1E+10	1	-1E+10	1	-1E+10	1	-1E+10	1	-1E+10	1
4901784	210	C	04/04/2021	10:43	-135.539	43.053	0	1199.90	0	3.0840	0	37.5220	4	29.901	0	1186.949	0	14.2	4	4.5	4	-1E+10	1	-1E+10	1	-1E+10	1	-1E+10	1	-1E+10	1	-1E+10	1
4901784	210	C	04/04/2021	10:43	-135.539	43.053	0	1205.10	0	3.0710	0	37.5240	4	29.904	0	1192.078	0	14.3	4	4.5	4	-1E+10	1	-1E+10	1	-1E+10	1	-1E+10	1	-1E+10	1	-1E+10	1
4901784	210	C	04/04/2021	10:43	-135.539	43.053	0	1210.20	0	3.0600	0	37.5260	4	29.906	0	1197.109	0	14.5	4	4.6	4	-1E+10	1	-1E+10	1	-1E+10	1	-1E+10	1	-1E+10	1	-1E+10	1
4901784	210	C	04/04/2021	10:43	-135.539	43.053	0	1215.30	0	3.0480	0	37.5280	4	29.909	0	1202.139	0	14.6	4	4.6	4	-1E+10	1	-1E+10	1	-1E+10	1	-1E+10	1	-1E+10	1	-1E+10	1
4901784	210	C	04/04/2021	10:43	-135.539	43.053	0	1220.40	0	3.0340	0	37.5310	4	29.913	0	1207.169	0	14.8	4	4.7	4	-1E+10	1	-1E+10	1	-1E+10	1	-1E+10	1	-1E+10	1	-1E+10	1
4901784	210	C	04/04/2021	10:43	-135.539	43.053	0	1225.30	0	3.0240	0	37.5330	4	29.915	0	1212.002	0	14.9	4	4.7	4	-1E+10	1	-1E+10	1	-1E+10	1	-1E+10	1	-1E+10	1	-1E+10	1
4901784	210	C	04/04/2021	10:43	-135.539	43.053	0	1229.90	0	3.0180	0	37.5350	4	29.918	0	1216.539	0	15.1	4	4.8	4	-1E+10	1	-1E+10	1	-1E+10	1	-1E+10	1	-1E+10	1	-1E+10	1
4901784	210	C	04/04/2021	10:43	-135.539	43.053	0	1234.90	0	3.0080	0	37.5370	4	29.920	0	1221.470	0	15.2	4	4.8	4	-1E+10	1	-1E+10	1	-1E+10	1	-1E+10	1	-1E+10	1	-1E+10	1
4901784	210	C	04/04/2021	10:43	-135.539	43.053	0	1239.70	0	2.9990	0	37.5380	4	29.922	0	1226.204	0	15.4	4	4.9	4	-1E+10	1	-1E+10	1	-1E+10	1	-1E+10	1	-1E+10	1	-1E+10	1
4901784	210	C	04/04/2021	10:43	-135.539	43.053	0	1244.50	0	2.9830	0	37.5420	4	29.927	0	1230.937	0	15.5	4	4.9	4	-1E+10	1	-1E+10	1	-1E+10	1	-1E+10	1	-1E+10	1	-1E+10	1
4901784	210	C	04/04/2021	10:43	-135.539	43.053	0	1249.40	0	2.9790	0	37.5420	4	29.927	0	1235.770	0	15.6	4	4.9	4	-1E+10	1	-1E+10	1	-1E+10	1	-1E+10	1	-1E+10	1	-1E+10	1
4901784	210	C	04/04/2021	10:43	-135.539	43.053	0	1254.30	0	2.9690	0	37.5440	4	29.930	0	1240.602	0	15.8	4	5.0	4	-1E+10	1	-1E+10	1	-1E+10	1	-1E+10	1	-1E+10	1	-1E+10	1
4901784	210	C	04/04/2021	10:43	-135.539	43.053	0	1260.00	0	2.9590	0	37.5460	4	29.933	0	1246.223	0	15.9	4	5.0	4	-1E+10	1	-1E+10	1	-1E+10	1	-1E+10	1	-1E+10	1	-1E+10	1
4901784	210	C	04/04/2021	10:43	-135.539	43.053	0	1265.60	0	2.9440	0	37.5490	4	29.936	0	1251.745	0	16.2	4	5.1	4	-1E+10	1	-1E+10	1	-1E+10	1	-1E+10	1	-1E+10	1	-1E+10	1
4901784	210	C	04/04/2021	10:43	-135.539	43.053	0	1270.60	0	2.9350	0	37.5510	4	29.939	0	1256.675	0	16.3	4	5.2	4	-1E+10	1	-1E+10	1	-1E+10	1	-1E+10	1	-1E+10	1	-1E+10	1
4901784	210	C	04/04/2021	10:43	-135.539	43.053	0	1275.50	0	2.9250	0	37.5530	4	29.942	0	1261.507	0	16.5	4	5.2	4	-1E+10	1	-1E+10	1	-1E+10	1	-1E+10	1	-1E+10	1	-1E+10	1
4901784	210	C	04/04/2021	10:43	-135.539	43.053	0	1280.60	0	2.9220	0	37.5540	4	29.943	0	1266.535	0	16.6	4	5.2	4	-1E+10	1	-1E+10	1	-1E+10	1	-1E+10	1	-1E+10	1	-1E+10	1
4901784	210	C	04/04/2021	10:43	-135.539	43.053	0	1285.70	0	2.9110	0	37.5560	4	29.945	0	1271.564	0	16.8	4	5.3	4	-1E+10	1	-1E+10	1	-1E+10	1	-1E+10	1	-1E+10	1	-1E+10	1
4901784	210	C	04/04/2021	10:43	-135.539	43.053	0	1290.80	0	2.9010	0	37.5580	4	29.948	0	1276.592	0	17.0	4	5.4	4	-1E+10	1	-1E+10	1	-1E+10	1	-1E+10	1	-1E+10	1	-1E+10	1
4901784	210	C	04/04/2021	10:43	-135.539	43.053	0	1295.10	0	2.8920	0	37.5600	4	29.951	0	1280.832	0	17.2	4	5.4	4	-1E+10	1	-1E+10	1	-1E+10	1	-1E+10	1	-1E+10	1	-1E+10	1
4901784	210	C	04/04/2021	10:43	-135.539	43.053	0	1299.40	0	2.8860	0	37.5610	4	29.952	0	1285.072	0	17.4	4	5.5	4	-1E+10	1	-1E+10	1	-1E+10	1	-1E+10	1	-1E+10	1	-1E+10	1
4901784	210	C	04/04/2021	10:43	-135.539	43.053	0	1304.50	0	2.8720	0	37.5640	4	29.956	0	1290.100	0	17.6	4	5.6	4	-1E+10	1	-1E+10	1	-1E+10	1	-1E+10	1	-1E+10	1	-1E+10	1
4901784	210	C	04/04/2021	10:43	-135.539	43.053	0	1309.80	0	2.8600	0	37.5660	4	29.959	0	1295.325	0	17.9	4	5.6	4	-1E+10	1	-1E+10	1	-1E+10	1	-1E+10	1	-1E+10	1	-1E+10	1
4901784	210	C	04/04/2021	10:43	-135.539	43.053	0	1315.00	0	2.8520	0	37.5680	4	29.961	0	1300.451	0	18.1	4	5.7	4	-1E+10	1	-1E+10	1	-1E+10	1	-1E+10	1	-1E+10	1	-1E+10	1
4901784	210	C	04/04/2021	10:43	-135.539	43.053	0	1320.30	0	2.8410	0	37.5700	4	29.964	0	1305.676	0	18.3	4	5.8	4	-1E+10	1	-1E+10	1	-1E+10	1	-1E+10	1	-1E+10	1	-1E+10	1
4901784	210	C	04/04/2021	10:43	-135.539	43.053	0	1325.50	0	2.8350	0	37.5710	4	29.965	0	1310.803	0	18.5	4	5.8	4	-1E+10	1	-1E+10	1	-1E+10	1	-1E+10	1	-1E+10	1	-1E+10	1
4901784	210	C	04/04/2021	10:43	-135.539	43.053	0	1330.00	0	2.8260	0	37.5730	4	29.968	0	1315.239	0	18.7	4	5.9	4	-1E+10	1	-1E+10	1	-1E+10	1	-1E+10	1	-1E+10	1	-1E+10	1
4901784	210	C	04/04/2021	10:43	-135.539	43.053	0	1334.50	0	2.8180	0	37.5750	4	29.970	0	1319.675	0	19.0	4	6.0	4	-1E+10	1	-1E+10	1	-1E+10	1	-1E+10	1	-1E+10	1	-1E+10	1
4901784	210	C	04/04/2021	10:43	-135.539	43.053	0	1339.90	0	2.8050	0	37.5770	4	29.973	0	1324.998	0	19.3	4	6.1	4	-1E+10	1	-1E+10	1	-1E+10	1	-1E+10	1	-1E+10	1	-1E+10	1
4901784	210	C	04/04/2021	10:43	-135.539	43.053	0	1345.40	0	2.7930	0	37.5800	4	29.976	0	1330.419	0	19.5	4	6.1	4	-1E+10	1	-1E+10	1	-1E+10	1	-1E+10	1	-1E+10	1	-1E+10	1
4901784	210	C	04/04/2021	10:43	-135.539	43.053	0	1350.00	0	2.7850	0	37.5820	4	29.979	0	1334.953	0	19.7	4	6.2	4	-1E+10	1	-1E+10	1	-1E+10	1	-1E+10	1	-1E+10	1	-1E+10	1
4901784	210	C	04/04/2021	10:43	-135.539	43.053	0	1354.60	0	2.7800	0	37.5830	4	29.980	0	1339.487	0	19.9	4	6.3	4	-1E+10	1	-1E+10	1	-1E+10	1	-1E+10	1	-1E+10	1	-1E+10	1
4901784	210	C	04/04/2021	10:43	-135.539	43.053	0	1360.20	0	2.7720	0	37.5850	4	29.983	0	1345.007	0	20.1	4	6.3	4	-1E+10	1	-1E+10	1	-1E+10	1	-1E+10	1	-1E+10	1	-1E+10	1
4901784	210	C	04/04/2021	10:43	-135.539	43.053	0	1365.70	0	2.7640	0	37.5860	4	29.984	0	1350.428	0	20.4	4	6.4	4	-1E+10	1	-1E+10	1	-1E+10	1	-1E+10	1	-1E+10	1	-1E+10	1
4901784	210	C	04/04/2021	10:43	-135.539	43.053	0	1370.30	0	2.7590	0	37.5870	4	29.985	0	1354.962	0	20.6	4	6.5	4	-1E+10	1	-1E+10	1	-1E+10	1	-1E+10	1	-1E+10	1	-1E+10	1
4901784	210	C	04/04/2021	10:43	-135.539	43.053	0	1374.90	0	2.7470	0	37.5890	4	29.988	0	1359.496	0	20.9	4	6.6	4	-1E+10	1	-1E+10	1	-1E+10	1	-1E+10	1	-1E+10	1	-1E+10	1
4901784	210	C	04/04/2021	10:43	-135.539	43.053	0	1380.10	0	2.7360	0	37.5920	4	29.992	0	1364.620	0	21.0	4	6.6	4	-1E+10	1	-1E+10	1	-1E+10	1	-1E+10	1	-1E+10	1	-1E+10	1
4901784	210	C	04/04/2021	10:43	-135.539	43.053	0	1384.40	0	2.7330	0	37.5930	4	29.993	0	1368.858	0	21.2	4	6.7	4	-1E+10	1	-1E+10	1	-1E+10	1	-1E+10	1	-1E+10	1	-1E+10	1
4901784	210	C	04/04/2021	10:43	-135.539	43.053	0	1389.30	0	2.7290	0	37.5930	4	29.993	0	1373.687	0	21.4	4	6.7	4	-1E+10	1	-1E+10	1	-1E+10	1	-1E+10	1	-1E+10	1	-1E+10	1
4901784	210	C	04/04/2021	10:43	-135.539	43.053	0	1394.90	0	2.7140	0	37.5960	4	29.997	0	1379.206	0	21.8	4	6.8	4	-1E+10	1	-1E+10	1	-1E+10	1	-1E+10	1	-1E+10	1	-1E+10	1
4901784	210	C	04/04/2021	10:43	-135.539	43.053	0	1400.60	0	2.7030	0	37.5990	4	30.001	0	1384.823	0	22.0	4	6.9	4	-1E+10	1	-1E+10	1	-1E+10	1	-1E+10	1	-1E+10	1	-1E+10	1
4901784	210	C	04/04/2021	10:43	-135.539	43.053	0	1405.50	0	2.6950	0	37.6000	4	30.002	0	1389.652	0	22.3	4	7.0	4	-1E+10	1	-1E+10	1	-1E+10	1	-1E+10	1	-1E+10	1	-1E+10	1
4901784	210	C	04/04/2021	10:43	-135.539	43.053	0	1410.50	0	2.6850	0	37.6020	4	30.005	0	1394.579	0	22.6	4	7.1	4	-1E+10	1	-1E+10	1	-1E+10	1	-1E+10	1	-1E+10	1	-1E+10	1
4901784	210	C	04/04/2021	10:43	-135.539	43.053	0	1415.60	0	2.6750	0	37.6040	4	30.007	0	1399.605	0	22.8	4	7.2	4	-1E+10	1	-1E+10	1	-1E+10	1	-1E+10	1	-1E+10	1	-1E+10	1
4901784	210	C	04/04/2021	10:43	-135.539	43.053	0	1420.70	0	2.6710	0	37.6040	4	30.008	0	1404.630	0	23.0	4	7.2	4	-1E+10	1	-1E+10	1	-1E+10	1	-1E+10	1	-1E+10	1	-1E+10	1
4901784	210	C	04/04/2021	10:43	-135.539	43.053	0	1425.00	0	2.6580	0	37.6070	4	30.011	0	1408.867	0	23.3	4	7.3	4	-1E+10	1	-1E+10	1	-1E+10	1	-1E+10	1	-1E+10	1	-1E+10	1
4901784	210	C	04/04/2021	10:43	-135.539	43.053	0	1429.30	0	2.6520	0	37.6080	4	30.013	0	1413.104	0	23.5	4	7.4	4	-1E+10	1	-1E+10	1	-1E+10	1	-1E+10	1	-1E+10	1	-1E+10	1
4901784	210	C	04/04/2021	10:43	-135.539	43.053	0	1434.40	0	2.6420	0	37.6090	4	30.015	0	1418.129	0	23.9	4	7.5	4	-1E+10	1	-1E+10	1	-1E+10	1	-1E+10	1	-1E+10	1	-1E+10	1
4901784	210	C	04/04/2021	10:43	-135.539	43.053	0	1439.50	0	2.6290	0	37.6120	4	30.018	0	1423.154	0	24.2	4	7.6	4	-1E+10	1	-1E+10	1	-1E+10	1	-1E+10	1	-1E+10	1	-1E+10	1
4901784	210	C	04/04/2021	10:43	-135.539	43.053	0	1444.70	0	2.6130	0	37.6150	4	30.022	0	1428.277	0	24.6	4	7.7	4	-1E+10	1	-1E+10	1	-1E+10	1	-1E+10	1	-1E+10	1	-1E+10	1
4901784	210	C	04/04/2021	10:43	-135.539	43.053	0	1449.90	0	2.6050	0	37.6160	4	30.024	0	1433.401	0	24.8	4	7.8	4	-1E+10	1	-1E+10	1	-1E+10	1	-1E+10	1	-1E+10	1	-1E+10	1
4901784	210	C	04/04/2021	10:43	-135.539	43.053	0	1455.10	0	2.5990	0	37.6170	4	30.025	0	1438.524	0	25.0	4	7.8	4	-1E+10	1	-1E+10	1	-1E+10	1	-1E+10	1	-1E+10	1	-1E+10	1
4901784	210	C	04/04/2021	10:43	-135.539	43.053	0	1460.30	0	2.5920	0	37.6190	4	30.027	0	1443.647	0	25.3	4	7.9	4	-1E+10	1	-1E+10	1	-1E+10	1	-1E+10	1	-1E+10	1	-1E+10	1
4901784	210	C	04/04/2021	10:43	-135.539	43.053	0	1465.50	0	2.5810	0	37.6210	4	30.030	0	1448.770	0	25.7	4	8.0	4	-1E+10	1	-1E+10	1	-1E+10	1	-1E+10	1	-1E+10	1	-1E+10	1
4901784	210	C	04/04/2021	10:43	-135.539	43.053	0	1470.70	0	2.5690	0	37.6230	4	30.033	0	1453.892	0	25.9	4	8.1	4	-1E+10	1	-1E+10	1	-1E+10	1	-1E+10	1	-1E+10	1	-1E+10	1
4901784	210	C	04/04/2021	10:43	-135.539	43.053	0	1475.20	0	2.5650	0	37.6230	4	30.033	0	1458.325	0	26.1	4	8.2	4	-1E+10	1	-1E+10	1	-1E+10	1	-1E+10	1	-1E+10	1	-1E+10	1
4901784	210	C	04/04/2021	10:43	-135.539	43.053	0	1479.70	0	2.5550	0	37.6260	4	30.037	0	1462.758	0	26.4	4	8.3	4	-1E+10	1	-1E+10	1	-1E+10	1	-1E+10	1	-1E+10	1	-1E+10	1
4901784	210	C	04/04/2021	10:43	-135.539	43.053	0	1485.10	0	2.5480	0	37.6270	4	30.038	0	1468.078	0	26.6	4	8.3	4	-1E+10	1	-1E+10	1	-1E+10	1	-1E+10	1	-1E+10	1	-1E+10	1
4901784	210	C	04/04/2021	10:43	-135.539	43.053	0	1490.60	0	2.5420	0	37.6280	4	30.040	0	1473.496	0	26.9	4	8.4	4	-1E+10	1	-1E+10	1	-1E+10	1	-1E+10	1	-1E+10	1	-1E+10	1
4901784	210	C	04/04/2021	10:43	-135.539	43.053	0	1495.20	0	2.5350	0	37.6290	4	30.041	0	1478.027	0	27.1	4	8.5	4	-1E+10	1	-1E+10	1	-1E+10	1	-1E+10	1	-1E+10	1	-1E+10	1
4901784	210	C	04/04/2021	10:43	-135.539	43.053	0	1499.90	0	2.5230	0	37.6300	4	30.043	0	1482.656	0	27.5	4	8.6	4	-1E+10	1	-1E+10	1	-1E+10	1	-1E+10	1	-1E+10	1	-1E+10	1
4901784	210	C	04/04/2021	10:43	-135.539	43.053	0	1505.50	0	2.5090	0	37.6330	4	30.047	0	1488.172	0	27.9	4	8.7	4	-1E+10	1	-1E+10	1	-1E+10	1	-1E+10	1	-1E+10	1	-1E+10	1
4901784	210	C	04/04/2021	10:43	-135.539	43.053	0	1510.20	0	2.5050	0	37.6340	4	30.048	0	1492.802	0	28.1	4	8.8	4	-1E+10	1	-1E+10	1	-1E+10	1	-1E+10	1	-1E+10	1	-1E+10	1
4901784	210	C	04/04/2021	10:43	-135.539	43.053	0	1514.80	0	2.4970	0	37.6360	4	30.050	0	1497.332	0	28.3	4	8.8	4	-1E+10	1	-1E+10	1	-1E+10	1	-1E+10	1	-1E+10	1	-1E+10	1
4901784	210	C	04/04/2021	10:43	-135.539	43.053	0	1520.40	0	2.4870	0	37.6380	4	30.053	0	1502.848	0	28.6	4	8.9	4	-1E+10	1	-1E+10	1	-1E+10	1	-1E+10	1	-1E+10	1	-1E+10	1
4901784	210	C	04/04/2021	10:43	-135.539	43.053	0	1525.00	0	2.4830	0	37.6390	4	30.054	0	1507.378	0	28.7	4	9.0	4	-1E+10	1	-1E+10	1	-1E+10	1	-1E+10	1	-1E+10	1	-1E+10	1
4901784	210	C	04/04/2021	10:43	-135.539	43.053	0	1529.70	0	2.4790	0	37.6400	4	30.055	0	1512.007	0	29.0	4	9.0	4	-1E+10	1	-1E+10	1	-1E+10	1	-1E+10	1	-1E+10	1	-1E+10	1
4901784	210	C	04/04/2021	10:43	-135.539	43.053	0	1535.40	0	2.4720	0	37.6410	4	30.057	0	1517.621	0	29.2	4	9.1	4	-1E+10	1	-1E+10	1	-1E+10	1	-1E+10	1	-1E+10	1	-1E+10	1
4901784	210	C	04/04/2021	10:43	-135.539	43.053	0	1540.30	0	2.4660	0	37.6420	4	30.058	0	1522.447	0	29.5	4	9.2	4	-1E+10	1	-1E+10	1	-1E+10	1	-1E+10	1	-1E+10	1	-1E+10	1
4901784	210	C	04/04/2021	10:43	-135.539	43.053	0	1544.90	0	2.4540	0	37.6450	4	30.062	0	1526.977	0	29.8	4	9.3	4	-1E+10	1	-1E+10	1	-1E+10	1	-1E+10	1	-1E+10	1	-1E+10	1
4901784	210	C	04/04/2021	10:43	-135.539	43.053	0	1549.90	0	2.4540	0	37.6450	4	30.062	0	1531.900	0	30.0	4	9.4	4	-1E+10	1	-1E+10	1	-1E+10	1	-1E+10	1	-1E+10	1	-1E+10	1
4901784	210	C	04/04/2021	10:43	-135.539	43.053	0	1554.80	0	2.4390	0	37.6480	4	30.066	0	1536.726	0	30.4	4	9.5	4	-1E+10	1	-1E+10	1	-1E+10	1	-1E+10	1	-1E+10	1	-1E+10	1
4901784	210	C	04/04/2021	10:43	-135.539	43.053	0	1559.90	0	2.4350	0	37.6490	4	30.067	0	1541.748	0	30.6	4	9.5	4	-1E+10	1	-1E+10	1	-1E+10	1	-1E+10	1	-1E+10	1	-1E+10	1
4901784	210	C	04/04/2021	10:43	-135.539	43.053	0	1565.00	0	2.4330	0	37.6490	4	30.067	0	1546.770	0	30.8	4	9.6	4	-1E+10	1	-1E+10	1	-1E+10	1	-1E+10	1	-1E+10	1	-1E+10	1
4901784	210	C	04/04/2021	10:43	-135.539	43.053	0	1570.20	0	2.4240	0	37.6510	4	30.069	0	1551.890	0	31.1	4	9.7	4	-1E+10	1	-1E+10	1	-1E+10	1	-1E+10	1	-1E+10	1	-1E+10	1
4901784	210	C	04/04/2021	10:43	-135.539	43.053	0	1575.40	0	2.4170	0	37.6520	4	30.071	0	1557.011	0	31.3	4	9.8	4	-1E+10	1	-1E+10	1	-1E+10	1	-1E+10	1	-1E+10	1	-1E+10	1
4901784	210	C	04/04/2021	10:43	-135.539	43.053	0	1580.50	0	2.4110	0	37.6530	4	30.072	0	1562.032	0	31.6	4	9.8	4	-1E+10	1	-1E+10	1	-1E+10	1	-1E+10	1	-1E+10	1	-1E+10	1
4901784	210	C	04/04/2021	10:43	-135.539	43.053	0	1585.70	0	2.4060	0	37.6550	4	30.074	0	1567.152	0	31.8	4	9.9	4	-1E+10	1	-1E+10	1	-1E+10	1	-1E+10	1	-1E+10	1	-1E+10	1
4901784	210	C	04/04/2021	10:43	-135.539	43.053	0	1590.00	0	2.4020	0	37.6560	4	30.076	0	1571.386	0	32.0	4	10.0	4	-1E+10	1	-1E+10	1	-1E+10	1	-1E+10	1	-1E+10	1	-1E+10	1
4901784	210	C	04/04/2021	10:43	-135.539	43.053	0	1594.40	0	2.3950	0	37.6570	4	30.077	0	1575.718	0	32.3	4	10.1	4	-1E+10	1	-1E+10	1	-1E+10	1	-1E+10	1	-1E+10	1	-1E+10	1
4901784	210	C	04/04/2021	10:43	-135.539	43.053	0	1599.60	0	2.3860	0	37.6590	4	30.080	0	1580.838	0	32.7	4	10.2	4	-1E+10	1	-1E+10	1	-1E+10	1	-1E+10	1	-1E+10	1	-1E+10	1
4901784	210	C	04/04/2021	10:43	-135.539	43.053	0	1604.90	0	2.3780	0	37.6600	4	30.081	0	1586.056	0	33.0	4	10.3	4	-1E+10	1	-1E+10	1	-1E+10	1	-1E+10	1	-1E+10	1	-1E+10	1
4901784	210	C	04/04/2021	10:43	-135.539	43.053	0	1610.30	0	2.3700	0	37.6620	4	30.083	0	1591.372	0	33.2	4	10.3	4	-1E+10	1	-1E+10	1	-1E+10	1	-1E+10	1	-1E+10	1	-1E+10	1
4901784	210	C	04/04/2021	10:43	-135.539	43.053	0	1615.60	0	2.3680	0	37.6630	4	30.084	0	1596.590	0	33.3	4	10.4	4	-1E+10	1	-1E+10	1	-1E+10	1	-1E+10	1	-1E+10	1	-1E+10	1
4901784	210	C	04/04/2021	10:43	-135.539	43.053	0	1620.10	0	2.3660	0	37.6640	4	30.085	0	1601.020	0	33.5	4	10.4	4	-1E+10	1	-1E+10	1	-1E+10	1	-1E+10	1	-1E+10	1	-1E+10	1
4901784	210	C	04/04/2021	10:43	-135.539	43.053	0	1624.60	0	2.3610	0	37.6650	4	30.087	0	1605.450	0	33.7	4	10.5	4	-1E+10	1	-1E+10	1	-1E+10	1	-1E+10	1	-1E+10	1	-1E+10	1
4901784	210	C	04/04/2021	10:43	-135.539	43.053	0	1630.00	0	2.3560	0	37.6650	4	30.087	0	1610.766	0	33.9	4	10.6	4	-1E+10	1	-1E+10	1	-1E+10	1	-1E+10	1	-1E+10	1	-1E+10	1
4901784	210	C	04/04/2021	10:43	-135.539	43.053	0	1635.40	0	2.3480	0	37.6670	4	30.090	0	1616.081	0	34.2	4	10.7	4	-1E+10	1	-1E+10	1	-1E+10	1	-1E+10	1	-1E+10	1	-1E+10	1
4901784	210	C	04/04/2021	10:43	-135.539	43.053	0	1639.80	0	2.3430	0	37.6680	4	30.091	0	1620.413	0	34.4	4	10.7	4	-1E+10	1	-1E+10	1	-1E+10	1	-1E+10	1	-1E+10	1	-1E+10	1
4901784	210	C	04/04/2021	10:43	-135.539	43.053	0	1644.40	0	2.3400	0	37.6690	4	30.092	0	1624.940	0	34.6	4	10.8	4	-1E+10	1	-1E+10	1	-1E+10	1	-1E+10	1	-1E+10	1	-1E+10	1
4901784	210	C	04/04/2021	10:43	-135.539	43.053	0	1649.90	0	2.3330	0	37.6700	4	30.093	0	1630.354	0	35.0	4	10.9	4	-1E+10	1	-1E+10	1	-1E+10	1	-1E+10	1	-1E+10	1	-1E+10	1
4901784	210	C	04/04/2021	10:43	-135.539	43.053	0	1655.30	0	2.3240	0	37.6720	4	30.096	0	1635.669	0	35.3	4	11.0	4	-1E+10	1	-1E+10	1	-1E+10	1	-1E+10	1	-1E+10	1	-1E+10	1
4901784	210	C	04/04/2021	10:43	-135.539	43.053	0	1659.80	0	2.3200	0	37.6720	4	30.096	0	1640.099	0	35.6	4	11.1	4	-1E+10	1	-1E+10	1	-1E+10	1	-1E+10	1	-1E+10	1	-1E+10	1
4901784	210	C	04/04/2021	10:43	-135.539	43.053	0	1664.40	0	2.3140	0	37.6730	4	30.098	0	1644.626	0	36.0	4	11.2	4	-1E+10	1	-1E+10	1	-1E+10	1	-1E+10	1	-1E+10	1	-1E+10	1
4901784	210	C	04/04/2021	10:43	-135.539	43.053	0	1669.80	0	2.2990	0	37.6760	4	30.101	0	1649.941	0	36.5	4	11.3	4	-1E+10	1	-1E+10	1	-1E+10	1	-1E+10	1	-1E+10	1	-1E+10	1
4901784	210	C	04/04/2021	10:43	-135.539	43.053	0	1675.30	0	2.2890	0	37.6780	4	30.104	0	1655.354	0	36.9	4	11.5	4	-1E+10	1	-1E+10	1	-1E+10	1	-1E+10	1	-1E+10	1	-1E+10	1
4901784	210	C	04/04/2021	10:43	-135.539	43.053	0	1679.80	0	2.2820	0	37.6790	4	30.105	0	1659.783	0	37.1	4	11.5	4	-1E+10	1	-1E+10	1	-1E+10	1	-1E+10	1	-1E+10	1	-1E+10	1
4901784	210	C	04/04/2021	10:43	-135.539	43.053	0	1684.40	0	2.2740	0	37.6800	4	30.107	0	1664.310	0	37.5	4	11.6	4	-1E+10	1	-1E+10	1	-1E+10	1	-1E+10	1	-1E+10	1	-1E+10	1
4901784	210	C	04/04/2021	10:43	-135.539	43.053	0	1690.00	0	2.2650	0	37.6820	4	30.109	0	1669.821	0	37.8	4	11.7	4	-1E+10	1	-1E+10	1	-1E+10	1	-1E+10	1	-1E+10	1	-1E+10	1
4901784	210	C	04/04/2021	10:43	-135.539	43.053	0	1695.60	0	2.2600	0	37.6830	4	30.111	0	1675.332	0	38.1	4	11.8	4	-1E+10	1	-1E+10	1	-1E+10	1	-1E+10	1	-1E+10	1	-1E+10	1
4901784	210	C	04/04/2021	10:43	-135.539	43.053	0	1700.20	0	2.2540	0	37.6840	4	30.112	0	1679.859	0	38.3	4	11.9	4	-1E+10	1	-1E+10	1	-1E+10	1	-1E+10	1	-1E+10	1	-1E+10	1
4901784	210	C	04/04/2021	10:43	-135.539	43.053	0	1704.80	0	2.2490	0	37.6850	4	30.113	0	1684.386	0	38.6	4	12.0	4	-1E+10	1	-1E+10	1	-1E+10	1	-1E+10	1	-1E+10	1	-1E+10	1
4901784	210	C	04/04/2021	10:43	-135.539	43.053	0	1710.40	0	2.2420	0	37.6860	4	30.115	0	1689.896	0	39.0	4	12.1	4	-1E+10	1	-1E+10	1	-1E+10	1	-1E+10	1	-1E+10	1	-1E+10	1
4901784	210	C	04/04/2021	10:43	-135.539	43.053	0	1715.00	0	2.2350	0	37.6870	4	30.116	0	1694.423	0	39.3	4	12.2	4	-1E+10	1	-1E+10	1	-1E+10	1	-1E+10	1	-1E+10	1	-1E+10	1
4901784	210	C	04/04/2021	10:43	-135.539	43.053	0	1720.30	0	2.2270	0	37.6890	4	30.119	0	1699.638	0	39.7	4	12.3	4	-1E+10	1	-1E+10	1	-1E+10	1	-1E+10	1	-1E+10	1	-1E+10	1
4901784	210	C	04/04/2021	10:43	-135.539	43.053	0	1725.40	0	2.2210	0	37.6910	4	30.121	0	1704.656	0	40.1	4	12.5	4	-1E+10	1	-1E+10	1	-1E+10	1	-1E+10	1	-1E+10	1	-1E+10	1
4901784	210	C	04/04/2021	10:43	-135.539	43.053	0	1730.20	0	2.2180	0	37.6920	4	30.122	0	1709.379	0	40.5	4	12.6	4	-1E+10	1	-1E+10	1	-1E+10	1	-1E+10	1	-1E+10	1	-1E+10	1
4901784	210	C	04/04/2021	10:43	-135.539	43.053	0	1735.10	0	2.2100	0	37.6940	4	30.124	0	1714.201	0	40.9	4	12.7	4	-1E+10	1	-1E+10	1	-1E+10	1	-1E+10	1	-1E+10	1	-1E+10	1
4901784	210	C	04/04/2021	10:43	-135.539	43.053	0	1740.00	0	2.2050	0	37.6960	4	30.126	0	1719.022	0	41.1	4	12.8	4	-1E+10	1	-1E+10	1	-1E+10	1	-1E+10	1	-1E+10	1	-1E+10	1
4901784	210	C	04/04/2021	10:43	-135.539	43.053	0	1744.90	0	2.2020	0	37.6970	4	30.127	0	1723.843	0	41.3	4	12.8	4	-1E+10	1	-1E+10	1	-1E+10	1	-1E+10	1	-1E+10	1	-1E+10	1
4901784	210	C	04/04/2021	10:43	-135.539	43.053	0	1749.90	0	2.2010	0	37.6970	4	30.128	0	1728.762	0	41.5	4	12.9	4	-1E+10	1	-1E+10	1	-1E+10	1	-1E+10	1	-1E+10	1	-1E+10	1
4901784	210	C	04/04/2021	10:43	-135.539	43.053	0	1755.00	0	2.1980	0	37.6980	4	30.129	0	1733.780	0	41.7	4	13.0	4	-1E+10	1	-1E+10	1	-1E+10	1	-1E+10	1	-1E+10	1	-1E+10	1
4901784	210	C	04/04/2021	10:43	-135.539	43.053	0	1760.00	0	2.1920	0	37.6990	4	30.130	0	1738.699	0	42.0	4	13.0	4	-1E+10	1	-1E+10	1	-1E+10	1	-1E+10	1	-1E+10	1	-1E+10	1
4901784	210	C	04/04/2021	10:43	-135.539	43.053	0	1765.10	0	2.1840	0	37.7000	4	30.132	0	1743.716	0	42.2	4	13.1	4	-1E+10	1	-1E+10	1	-1E+10	1	-1E+10	1	-1E+10	1	-1E+10	1
4901784	210	C	04/04/2021	10:43	-135.539	43.053	0	1770.20	0	2.1800	0	37.7010	4	30.133	0	1748.733	0	42.5	4	13.2	4	-1E+10	1	-1E+10	1	-1E+10	1	-1E+10	1	-1E+10	1	-1E+10	1
4901784	210	C	04/04/2021	10:43	-135.539	43.053	0	1775.20	0	2.1700	0	37.7020	4	30.135	0	1753.652	0	42.9	4	13.3	4	-1E+10	1	-1E+10	1	-1E+10	1	-1E+10	1	-1E+10	1	-1E+10	1
4901784	210	C	04/04/2021	10:43	-135.539	43.053	0	1780.40	0	2.1640	0	37.7040	4	30.137	0	1758.767	0	43.3	4	13.4	4	-1E+10	1	-1E+10	1	-1E+10	1	-1E+10	1	-1E+10	1	-1E+10	1
4901784	210	C	04/04/2021	10:43	-135.539	43.053	0	1785.60	0	2.1600	0	37.7050	4	30.138	0	1763.883	0	43.6	4	13.5	4	-1E+10	1	-1E+10	1	-1E+10	1	-1E+10	1	-1E+10	1	-1E+10	1
4901784	210	C	04/04/2021	10:43	-135.539	43.053	0	1790.70	0	2.1550	0	37.7070	4	30.140	0	1768.899	0	43.9	4	13.6	4	-1E+10	1	-1E+10	1	-1E+10	1	-1E+10	1	-1E+10	1	-1E+10	1
4901784	210	C	04/04/2021	10:43	-135.539	43.053	0	1794.90	0	2.1520	0	37.7080	4	30.141	0	1773.031	0	44.2	4	13.7	4	-1E+10	1	-1E+10	1	-1E+10	1	-1E+10	1	-1E+10	1	-1E+10	1
4901784	210	C	04/04/2021	10:43	-135.539	43.053	0	1799.20	0	2.1480	0	37.7080	4	30.141	0	1777.260	0	44.4	4	13.8	4	-1E+10	1	-1E+10	1	-1E+10	1	-1E+10	1	-1E+10	1	-1E+10	1
4901784	210	C	04/04/2021	10:43	-135.539	43.053	0	1804.40	0	2.1450	0	37.7100	4	30.143	0	1782.375	0	44.6	4	13.8	4	-1E+10	1	-1E+10	1	-1E+10	1	-1E+10	1	-1E+10	1	-1E+10	1
4901784	210	C	04/04/2021	10:43	-135.539	43.053	0	1809.70	0	2.1430	0	37.7100	4	30.144	0	1787.588	0	44.9	4	13.9	4	-1E+10	1	-1E+10	1	-1E+10	1	-1E+10	1	-1E+10	1	-1E+10	1
4901784	210	C	04/04/2021	10:43	-135.539	43.053	0	1814.90	0	2.1390	0	37.7110	4	30.145	0	1792.703	0	45.2	4	14.0	4	-1E+10	1	-1E+10	1	-1E+10	1	-1E+10	1	-1E+10	1	-1E+10	1
4901784	210	C	04/04/2021	10:43	-135.539	43.053	0	1820.10	0	2.1320	0	37.7120	4	30.146	0	1797.817	0	45.6	4	14.1	4	-1E+10	1	-1E+10	1	-1E+10	1	-1E+10	1	-1E+10	1	-1E+10	1
4901784	210	C	04/04/2021	10:43	-135.539	43.053	0	1825.40	0	2.1260	0	37.7140	4	30.148	0	1803.030	0	45.9	4	14.2	4	-1E+10	1	-1E+10	1	-1E+10	1	-1E+10	1	-1E+10	1	-1E+10	1
4901784	210	C	04/04/2021	10:43	-135.539	43.053	0	1830.60	0	2.1200	0	37.7150	4	30.150	0	1808.144	0	46.2	4	14.3	4	-1E+10	1	-1E+10	1	-1E+10	1	-1E+10	1	-1E+10	1	-1E+10	1
4901784	210	C	04/04/2021	10:43	-135.539	43.053	0	1835.00	0	2.1150	0	37.7160	4	30.151	0	1812.471	0	46.4	4	14.4	4	-1E+10	1	-1E+10	1	-1E+10	1	-1E+10	1	-1E+10	1	-1E+10	1
4901784	210	C	04/04/2021	10:43	-135.539	43.053	0	1839.50	0	2.1100	0	37.7170	4	30.152	0	1816.897	0	46.6	4	14.4	4	-1E+10	1	-1E+10	1	-1E+10	1	-1E+10	1	-1E+10	1	-1E+10	1
4901784	210	C	04/04/2021	10:43	-135.539	43.053	0	1844.80	0	2.1050	0	37.7180	4	30.154	0	1822.109	0	46.9	4	14.5	4	-1E+10	1	-1E+10	1	-1E+10	1	-1E+10	1	-1E+10	1	-1E+10	1
4901784	210	C	04/04/2021	10:43	-135.539	43.053	0	1850.20	0	2.1010	0	37.7190	4	30.155	0	1827.419	0	47.3	4	14.7	4	-1E+10	1	-1E+10	1	-1E+10	1	-1E+10	1	-1E+10	1	-1E+10	1
4901784	210	C	04/04/2021	10:43	-135.539	43.053	0	1855.30	0	2.0970	0	37.7200	4	30.156	0	1832.435	0	47.7	4	14.8	4	-1E+10	1	-1E+10	1	-1E+10	1	-1E+10	1	-1E+10	1	-1E+10	1
4901784	210	C	04/04/2021	10:43	-135.539	43.053	0	1859.50	0	2.0920	0	37.7200	4	30.156	0	1836.565	0	48.2	4	14.9	4	-1E+10	1	-1E+10	1	-1E+10	1	-1E+10	1	-1E+10	1	-1E+10	1
4901784	210	C	04/04/2021	10:43	-135.539	43.053	0	1865.10	0	2.0780	0	37.7230	4	30.160	0	1842.071	0	48.9	4	15.1	4	-1E+10	1	-1E+10	1	-1E+10	1	-1E+10	1	-1E+10	1	-1E+10	1
4901784	210	C	04/04/2021	10:43	-135.539	43.053	0	1870.70	0	2.0680	0	37.7250	4	30.163	0	1847.578	0	49.3	4	15.2	4	-1E+10	1	-1E+10	1	-1E+10	1	-1E+10	1	-1E+10	1	-1E+10	1
4901784	210	C	04/04/2021	10:43	-135.539	43.053	0	1875.50	0	2.0630	0	37.7260	4	30.164	0	1852.298	0	49.7	4	15.4	4	-1E+10	1	-1E+10	1	-1E+10	1	-1E+10	1	-1E+10	1	-1E+10	1
4901784	210	C	04/04/2021	10:43	-135.539	43.053	0	1880.40	0	2.0580	0	37.7270	4	30.165	0	1857.116	0	50.0	4	15.5	4	-1E+10	1	-1E+10	1	-1E+10	1	-1E+10	1	-1E+10	1	-1E+10	1
4901784	210	C	04/04/2021	10:43	-135.539	43.053	0	1885.20	0	2.0520	0	37.7290	4	30.167	0	1861.835	0	50.3	4	15.6	4	-1E+10	1	-1E+10	1	-1E+10	1	-1E+10	1	-1E+10	1	-1E+10	1
4901784	210	C	04/04/2021	10:43	-135.539	43.053	0	1890.20	0	2.0470	0	37.7300	4	30.169	0	1866.751	0	50.7	4	15.7	4	-1E+10	1	-1E+10	1	-1E+10	1	-1E+10	1	-1E+10	1	-1E+10	1
4901784	210	C	04/04/2021	10:43	-135.539	43.053	0	1895.20	0	2.0410	0	37.7310	4	30.170	0	1871.667	0	51.0	4	15.8	4	-1E+10	1	-1E+10	1	-1E+10	1	-1E+10	1	-1E+10	1	-1E+10	1
4901784	210	C	04/04/2021	10:43	-135.539	43.053	0	1900.20	0	2.0400	0	37.7310	4	30.170	0	1876.583	0	51.2	4	15.8	4	-1E+10	1	-1E+10	1	-1E+10	1	-1E+10	1	-1E+10	1	-1E+10	1
4901784	210	C	04/04/2021	10:43	-135.539	43.053	0	1905.20	0	2.0350	0	37.7320	4	30.171	0	1881.499	0	51.5	4	15.9	4	-1E+10	1	-1E+10	1	-1E+10	1	-1E+10	1	-1E+10	1	-1E+10	1
4901784	210	C	04/04/2021	10:43	-135.539	43.053	0	1910.40	0	2.0290	0	37.7340	4	30.173	0	1886.611	0	51.9	4	16.0	4	-1E+10	1	-1E+10	1	-1E+10	1	-1E+10	1	-1E+10	1	-1E+10	1
4901784	210	C	04/04/2021	10:43	-135.539	43.053	0	1915.50	0	2.0250	0	37.7350	4	30.175	0	1891.625	0	52.1	4	16.1	4	-1E+10	1	-1E+10	1	-1E+10	1	-1E+10	1	-1E+10	1	-1E+10	1
4901784	210	C	04/04/2021	10:43	-135.539	43.053	0	1920.60	0	2.0200	0	37.7360	4	30.176	0	1896.639	0	52.5	4	16.2	4	-1E+10	1	-1E+10	1	-1E+10	1	-1E+10	1	-1E+10	1	-1E+10	1
4901784	210	C	04/04/2021	10:43	-135.539	43.053	0	1925.70	0	2.0160	0	37.7360	4	30.176	0	1901.652	0	52.8	4	16.3	4	-1E+10	1	-1E+10	1	-1E+10	1	-1E+10	1	-1E+10	1	-1E+10	1
4901784	210	C	04/04/2021	10:43	-135.539	43.053	0	1930.00	0	2.0120	0	37.7370	4	30.177	0	1905.880	0	53.0	4	16.4	4	-1E+10	1	-1E+10	1	-1E+10	1	-1E+10	1	-1E+10	1	-1E+10	1
4901784	210	C	04/04/2021	10:43	-135.539	43.053	0	1934.30	0	2.0080	0	37.7380	4	30.179	0	1910.107	0	53.3	4	16.5	4	-1E+10	1	-1E+10	1	-1E+10	1	-1E+10	1	-1E+10	1	-1E+10	1
4901784	210	C	04/04/2021	10:43	-135.539	43.053	0	1939.40	0	2.0040	0	37.7390	4	30.180	0	1915.120	0	53.5	4	16.5	4	-1E+10	1	-1E+10	1	-1E+10	1	-1E+10	1	-1E+10	1	-1E+10	1
4901784	210	C	04/04/2021	10:43	-135.539	43.053	0	1944.60	0	2.0020	0	37.7400	4	30.181	0	1920.231	0	53.8	4	16.6	4	-1E+10	1	-1E+10	1	-1E+10	1	-1E+10	1	-1E+10	1	-1E+10	1
4901784	210	C	04/04/2021	10:43	-135.539	43.053	0	1949.70	0	1.9970	0	37.7410	4	30.182	0	1925.244	0	54.1	4	16.7	4	-1E+10	1	-1E+10	1	-1E+10	1	-1E+10	1	-1E+10	1	-1E+10	1
4901784	210	C	04/04/2021	10:43	-135.539	43.053	0	1954.80	0	1.9930	0	37.7420	4	30.183	0	1930.257	0	54.4	4	16.8	4	-1E+10	1	-1E+10	1	-1E+10	1	-1E+10	1	-1E+10	1	-1E+10	1
4901784	210	C	04/04/2021	10:43	-135.539	43.053	0	1960.00	0	1.9900	0	37.7430	4	30.184	0	1935.368	0	54.6	4	16.9	4	-1E+10	1	-1E+10	1	-1E+10	1	-1E+10	1	-1E+10	1	-1E+10	1
4901784	210	C	04/04/2021	10:43	-135.539	43.053	0	1965.20	0	1.9860	0	37.7430	4	30.185	0	1940.479	0	55.0	4	17.0	4	-1E+10	1	-1E+10	1	-1E+10	1	-1E+10	1	-1E+10	1	-1E+10	1
4901784	210	C	04/04/2021	10:43	-135.539	43.053	0	1970.40	0	1.9790	0	37.7450	4	30.187	0	1945.590	0	55.4	4	17.1	4	-1E+10	1	-1E+10	1	-1E+10	1	-1E+10	1	-1E+10	1	-1E+10	1
4901784	210	C	04/04/2021	10:43	-135.539	43.053	0	1975.70	0	1.9770	0	37.7450	4	30.187	0	1950.799	0	55.7	4	17.2	4	-1E+10	1	-1E+10	1	-1E+10	1	-1E+10	1	-1E+10	1	-1E+10	1
4901784	210	C	04/04/2021	10:43	-135.539	43.053	0	1980.00	0	1.9710	0	37.7470	4	30.189	0	1955.025	0	56.0	4	17.3	4	-1E+10	1	-1E+10	1	-1E+10	1	-1E+10	1	-1E+10	1	-1E+10	1
4901784	210	C	04/04/2021	10:43	-135.539	43.053	0	1984.50	0	1.9670	0	37.7470	4	30.190	0	1959.448	0	56.3	4	17.4	4	-1E+10	1	-1E+10	1	-1E+10	1	-1E+10	1	-1E+10	1	-1E+10	1
4901784	210	C	04/04/2021	10:43	-135.539	43.053	0	1989.80	0	1.9620	0	37.7480	4	30.191	0	1964.657	0	56.6	4	17.5	4	-1E+10	1	-1E+10	1	-1E+10	1	-1E+10	1	-1E+10	1	-1E+10	1
4901784	210	C	04/04/2021	10:43	-135.539	43.053	0	1995.10	0	1.9600	0	37.7490	4	30.192	0	1969.865	0	56.9	4	17.6	4	-1E+10	1	-1E+10	1	-1E+10	1	-1E+10	1	-1E+10	1	-1E+10	1
4901784	210	C	04/04/2021	10:43	-135.539	43.053	0	2000.30	0	1.9530	0	37.7500	4	30.193	0	1974.975	0	57.2	4	17.7	4	-1E+10	1	-1E+10	1	-1E+10	1	-1E+10	1	-1E+10	1	-1E+10	1
4901784	210	C	04/04/2021	10:43	-135.539	43.053	0	2005.40	0	1.9500	0	37.7510	4	30.195	0	1979.987	0	57.4	4	17.7	4	-1E+10	1	-1E+10	1	-1E+10	1	-1E+10	1	-1E+10	1	-1E+10	1
4901784	210	C	04/04/2021	10:43	-135.539	43.053	0	2009.90	0	1.9490	0	37.7510	4	30.195	0	1984.409	0	57.5	4	17.7	4	-1E+10	1	-1E+10	1	-1E+10	1	-1E+10	1	-1E+10	1	-1E+10	1
4901784	210	C	04/04/2021	10:43	-135.539	43.053	0	2015.10	0	1.9470	0	37.7520	4	30.196	0	1989.519	0	57.7	4	17.8	4	-1E+10	1	-1E+10	1	-1E+10	1	-1E+10	1	-1E+10	1	-1E+10	1
4901784	210	C	04/04/2021	10:43	-135.539	43.053	0	2020.50	0	1.9420	0	37.7530	4	30.197	0	1994.825	0	56.5	4	17.4	4	-1E+10	1	-1E+10	1	-1E+10	1	-1E+10	1	-1E+10	1	-1E+10	1
4901784	210	C	04/04/2021	10:43	-135.539	43.053	0																										
4901784	211	C	04/14/2021	10:45	-135.674	43.006	0	2.80	0	10.6940	0	35.3550	4	27.108	0	2.778	0	269.7	4	99.9	4	-1E+10	1	-1E+10	1	-1E+10	1	-1E+10	1	-1E+10	1	-1E+10	1
4901784	211	C	04/14/2021	10:45	-135.674	43.006	0	4.40	0	10.6940	0	35.3790	4	27.127	0	4.365	0	269.3	4	99.8	4	-1E+10	1	-1E+10	1	-1E+10	1	-1E+10	1	-1E+10	1	-1E+10	1
4901784	211	C	04/14/2021	10:45	-135.674	43.006	0	6.10	0	10.6940	0	35.3790	4	27.127	0	6.052	0	269.1	4	99.7	4	-1E+10	1	-1E+10	1	-1E+10	1	-1E+10	1	-1E+10	1	-1E+10	1
4901784	211	C	04/14/2021	10:45	-135.674	43.006	0	7.70	0	10.6930	0	35.3660	4	27.117	0	7.639	0	268.7	4	99.6	4	-1E+10	1	-1E+10	1	-1E+10	1	-1E+10	1	-1E+10	1	-1E+10	1
4901784	211	C	04/14/2021	10:45	-135.674	43.006	0	9.40	0	10.6910	0	35.3670	4	27.118	0	9.325	0	268.1	4	99.3	4	-1E+10	1	-1E+10	1	-1E+10	1	-1E+10	1	-1E+10	1	-1E+10	1
4901784	211	C	04/14/2021	10:45	-135.674	43.006	0	11.10	0	10.6930	0	35.3610	4	27.113	0	11.012	0	267.5	4	99.1	4	-1E+10	1	-1E+10	1	-1E+10	1	-1E+10	1	-1E+10	1	-1E+10	1
4901784	211	C	04/14/2021	10:45	-135.674	43.006	0	12.70	0	10.6880	0	35.3570	4	27.111	0	12.599	0	266.4	4	98.7	4	-1E+10	1	-1E+10	1	-1E+10	1	-1E+10	1	-1E+10	1	-1E+10	1
4901784	211	C	04/14/2021	10:45	-135.674	43.006	0	14.30	0	10.6590	0	35.3540	4	27.114	0	14.186	0	265.2	4	98.2	4	-1E+10	1	-1E+10	1	-1E+10	1	-1E+10	1	-1E+10	1	-1E+10	1
4901784	211	C	04/14/2021	10:45	-135.674	43.006	0	16.00	0	10.6300	0	35.3500	4	27.116	0	15.872	0	263.9	4	97.6	4	-1E+10	1	-1E+10	1	-1E+10	1	-1E+10	1	-1E+10	1	-1E+10	1
4901784	211	C	04/14/2021	10:45	-135.674	43.006	0	17.70	0	10.5330	0	35.3350	4	27.121	0	17.559	0	263.0	4	97.1	4	-1E+10	1	-1E+10	1	-1E+10	1	-1E+10	1	-1E+10	1	-1E+10	1
4901784	211	C	04/14/2021	10:45	-135.674	43.006	0	19.40	0	10.5110	0	35.8170	4	27.501	0	19.245	0	262.0	4	97.0	4	-1E+10	1	-1E+10	1	-1E+10	1	-1E+10	1	-1E+10	1	-1E+10	1
4901784	211	C	04/14/2021	10:45	-135.674	43.006	0	21.10	0	10.5030	0	35.8200	4	27.505	0	20.932	0	261.3	4	96.7	4	-1E+10	1	-1E+10	1	-1E+10	1	-1E+10	1	-1E+10	1	-1E+10	1
4901784	211	C	04/14/2021	10:45	-135.674	43.006	0	22.80	0	10.5020	0	35.8220	4	27.507	0	22.618	0	260.7	4	96.5	4	-1E+10	1	-1E+10	1	-1E+10	1	-1E+10	1	-1E+10	1	-1E+10	1
4901784	211	C	04/14/2021	10:45	-135.674	43.006	0	24.50	0	10.5000	0	35.8240	4	27.509	0	24.304	0	260.4	4	96.4	4	-1E+10	1	-1E+10	1	-1E+10	1	-1E+10	1	-1E+10	1	-1E+10	1
4901784	211	C	04/14/2021	10:45	-135.674	43.006	0	26.20	0	10.4960	0	35.8240	4	27.510	0	25.990	0	260.3	4	96.4	4	-1E+10	1	-1E+10	1	-1E+10	1	-1E+10	1	-1E+10	1	-1E+10	1
4901784	211	C	04/14/2021	10:45	-135.674	43.006	0	27.90	0	10.4870	0	35.8230	4	27.510	0	27.677	0	260.0	4	96.2	4	-1E+10	1	-1E+10	1	-1E+10	1	-1E+10	1	-1E+10	1	-1E+10	1
4901784	211	C	04/14/2021	10:45	-135.674	43.006	0	29.60	0	10.4550	0	35.8260	4	27.519	0	29.363	0	259.7	4	96.1	4	-1E+10	1	-1E+10	1	-1E+10	1	-1E+10	1	-1E+10	1	-1E+10	1
4901784	211	C	04/14/2021	10:45	-135.674	43.006	0	31.30	0	10.4490	0	35.8260	4	27.520	0	31.049	0	258.8	4	95.7	4	-1E+10	1	-1E+10	1	-1E+10	1	-1E+10	1	-1E+10	1	-1E+10	1
4901784	211	C	04/14/2021	10:45	-135.674	43.006	0	33.00	0	10.4310	0	35.8290	4	27.525	0	32.736	0	258.8	4	95.7	4	-1E+10	1	-1E+10	1	-1E+10	1	-1E+10	1	-1E+10	1	-1E+10	1
4901784	211	C	04/14/2021	10:45	-135.674	43.006	0	34.60	0	10.4230	0	35.8300	4	27.527	0	34.323	0	259.4	4	95.9	4	-1E+10	1	-1E+10	1	-1E+10	1	-1E+10	1	-1E+10	1	-1E+10	1
4901784	211	C	04/14/2021	10:45	-135.674	43.006	0	36.30	0	10.3960	0	35.8320	4	27.534	0	36.009	0	260.0	4	96.1	4	-1E+10	1	-1E+10	1	-1E+10	1	-1E+10	1	-1E+10	1	-1E+10	1
4901784	211	C	04/14/2021	10:45	-135.674	43.006	0	38.10	0	10.3700	0	35.8320	4	27.538	0	37.794	0	260.0	4	96.0	4	-1E+10	1	-1E+10	1	-1E+10	1	-1E+10	1	-1E+10	1	-1E+10	1
4901784	211	C	04/14/2021	10:45	-135.674	43.006	0	39.70	0	10.3460	0	35.8380	4	27.547	0	39.381	0	260.1	4	96.0	4	-1E+10	1	-1E+10	1	-1E+10	1	-1E+10	1	-1E+10	1	-1E+10	1
4901784	211	C	04/14/2021	10:45	-135.674	43.006	0	41.40	0	10.3390	0	35.8380	4	27.549	0	41.067	0	260.7	4	96.2	4	-1E+10	1	-1E+10	1	-1E+10	1	-1E+10	1	-1E+10	1	-1E+10	1
4901784	211	C	04/14/2021	10:45	-135.674	43.006	0	43.10	0	10.3300	0	35.8400	4	27.552	0	42.754	0	261.7	4	96.6	4	-1E+10	1	-1E+10	1	-1E+10	1	-1E+10	1	-1E+10	1	-1E+10	1
4901784	211	C	04/14/2021	10:45	-135.674	43.006	0	44.80	0	10.3200	0	35.8450	4	27.558	0	44.440	0	262.4	4	96.8	4	-1E+10	1	-1E+10	1	-1E+10	1	-1E+10	1	-1E+10	1	-1E+10	1
4901784	211	C	04/14/2021	10:45	-135.674	43.006	0	46.60	0	10.3160	0	35.8460	4	27.559	0	46.225	0	262.7	4	96.9	4	-1E+10	1	-1E+10	1	-1E+10	1	-1E+10	1	-1E+10	1	-1E+10	1
4901784	211	C	04/14/2021	10:45	-135.674	43.006	0	48.30	0	10.2970	0	35.8460	4	27.562	0	47.911	0	263.1	4	97.0	4	-1E+10	1	-1E+10	1	-1E+10	1	-1E+10	1	-1E+10	1	-1E+10	1
4901784	211	C	04/14/2021	10:45	-135.674	43.006	0	50.10	0	10.2680	0	35.8520	4	27.572	0	49.696	0	263.3	4	97.0	4	-1E+10	1	-1E+10	1	-1E+10	1	-1E+10	1	-1E+10	1	-1E+10	1
4901784	211	C	04/14/2021	10:45	-135.674	43.006	0	51.80	0	10.2470	0	35.8490	4	27.574	0	51.383	0	263.8	4	97.2	4	-1E+10	1	-1E+10	1	-1E+10	1	-1E+10	1	-1E+10	1	-1E+10	1
4901784	211	C	04/14/2021	10:45	-135.674	43.006	0	53.50	0	10.2430	0	35.8490	4	27.574	0	53.069	0	264.0	4	97.2	4	-1E+10	1	-1E+10	1	-1E+10	1	-1E+10	1	-1E+10	1	-1E+10	1
4901784	211	C	04/14/2021	10:45	-135.674	43.006	0	55.20	0	10.2060	0	35.8510	4	27.583	0	54.755	0	264.2	4	97.2	4	-1E+10	1	-1E+10	1	-1E+10	1	-1E+10	1	-1E+10	1	-1E+10	1
4901784	211	C	04/14/2021	10:45	-135.674	43.006	0	56.90	0	10.1990	0	35.8500	4	27.583	0	56.441	0	264.6	4	97.3	4	-1E+10	1	-1E+10	1	-1E+10	1	-1E+10	1	-1E+10	1	-1E+10	1
4901784	211	C	04/14/2021	10:45	-135.674	43.006	0	58.70	0	10.1920	0	35.8510	4	27.585	0	58.226	0	264.6	4	97.3	4	-1E+10	1	-1E+10	1	-1E+10	1	-1E+10	1	-1E+10	1	-1E+10	1
4901784	211	C	04/14/2021	10:45	-135.674	43.006	0	60.50	0	10.1900	0	35.8520	4	27.586	0	60.011	0	264.5	4	97.3	4	-1E+10	1	-1E+10	1	-1E+10	1	-1E+10	1	-1E+10	1	-1E+10	1
4901784	211	C	04/14/2021	10:45	-135.674	43.006	0	62.20	0	10.1910	0	35.8520	4	27.586	0	61.697	0	264.2	4	97.2	4	-1E+10	1	-1E+10	1	-1E+10	1	-1E+10	1	-1E+10	1	-1E+10	1
4901784	211	C	04/14/2021	10:45	-135.674	43.006	0	64.10	0	10.1910	0	35.8520	4	27.586	0	63.581	0	264.4	4	97.3	4	-1E+10	1	-1E+10	1	-1E+10	1	-1E+10	1	-1E+10	1	-1E+10	1
4901784	211	C	04/14/2021	10:45	-135.674	43.006	0	65.90	0	10.1790	0	35.8520	4	27.588	0	65.367	0	264.1	4	97.1	4	-1E+10	1	-1E+10	1	-1E+10	1	-1E+10	1	-1E+10	1	-1E+10	1
4901784	211	C	04/14/2021	10:45	-135.674	43.006	0	67.70	0	10.1610	0	35.8510	4	27.591	0	67.152	0	264.0	4	97.1	4	-1E+10	1	-1E+10	1	-1E+10	1	-1E+10	1	-1E+10	1	-1E+10	1
4901784	211	C	04/14/2021	10:45	-135.674	43.006	0	69.50	0	10.1460	0	35.8520	4	27.594	0	68.937	0	264.0	4	97.0	4	-1E+10	1	-1E+10	1	-1E+10	1	-1E+10	1	-1E+10	1	-1E+10	1
4901784	211	C	04/14/2021	10:45	-135.674	43.006	0	71.30	0	10.1420	0	35.8510	4	27.594	0	70.722	0	263.6	4	96.9	4	-1E+10	1	-1E+10	1	-1E+10	1	-1E+10	1	-1E+10	1	-1E+10	1
4901784	211	C	04/14/2021	10:45	-135.674	43.006	0	73.20	0	10.0920	0	35.8510	4	27.603	0	72.606	0	263.7	4	96.8	4	-1E+10	1	-1E+10	1	-1E+10	1	-1E+10	1	-1E+10	1	-1E+10	1
4901784	211	C	04/14/2021	10:45	-135.674	43.006	0	75.00	0	10.0670	0	35.8480	4	27.605	0	74.391	0	263.9	4	96.8	4	-1E+10	1	-1E+10	1	-1E+10	1	-1E+10	1	-1E+10	1	-1E+10	1
4901784	211	C	04/14/2021	10:45	-135.674	43.006	0	76.80	0	10.0550	0	35.8490	4	27.608	0	76.176	0	263.8	4	96.8	4	-1E+10	1	-1E+10	1	-1E+10	1	-1E+10	1	-1E+10	1	-1E+10	1
4901784	211	C	04/14/2021	10:45	-135.674	43.006	0	78.60	0	10.0480	0	35.8490	4	27.609	0	77.961	0	263.6	4	96.7	4	-1E+10	1	-1E+10	1	-1E+10	1	-1E+10	1	-1E+10	1	-1E+10	1
4901784	211	C	04/14/2021	10:45	-135.674	43.006	0	80.40	0	10.0440	0	35.8490	4	27.610	0	79.746	0	263.4	4	96.6	4	-1E+10	1	-1E+10	1	-1E+10	1	-1E+10	1	-1E+10	1	-1E+10	1
4901784	211	C	04/14/2021	10:45	-135.674	43.006	0	82.30	0	10.0420	0	35.8490	4	27.610	0	81.631	0	263.3	4	96.5	4	-1E+10	1	-1E+10	1	-1E+10	1	-1E+10	1	-1E+10	1	-1E+10	1
4901784	211	C	04/14/2021	10:45	-135.674	43.006	0	84.10	0	10.0320	0	35.8490	4	27.612	0	83.416	0	263.0	4	96.4	4	-1E+10	1	-1E+10	1	-1E+10	1	-1E+10	1	-1E+10	1	-1E+10	1
4901784	211	C	04/14/2021	10:45	-135.674	43.006	0	85.90	0	10.0310	0	35.8480	4	27.611	0	85.201	0	262.5	4	96.3	4	-1E+10	1	-1E+10	1	-1E+10	1	-1E+10	1	-1E+10	1	-1E+10	1
4901784	211	C	04/14/2021	10:45	-135.674	43.006	0	87.70	0	10.0230	0	35.8470	4	27.612	0	86.986	0	262.1	4	96.1	4	-1E+10	1	-1E+10	1	-1E+10	1	-1E+10	1	-1E+10	1	-1E+10	1
4901784	211	C	04/14/2021	10:45	-135.674	43.006	0	89.50	0	9.9900	0	35.8470	4	27.618	0	88.771	0	261.6	4	95.8	4	-1E+10	1	-1E+10	1	-1E+10	1	-1E+10	1	-1E+10	1	-1E+10	1
4901784	211	C	04/14/2021	10:45	-135.674	43.006	0	91.30	0	9.9670	0	35.8480	4	27.622	0	90.556	0	260.9	4	95.5	4	-1E+10	1	-1E+10	1	-1E+10	1	-1E+10	1	-1E+10	1	-1E+10	1
4901784	211	C	04/14/2021	10:45	-135.674	43.006	0	93.20	0	9.9650	0	35.8480	4	27.623	0	92.440	0	260.6	4	95.4	4	-1E+10	1	-1E+10	1	-1E+10	1	-1E+10	1	-1E+10	1	-1E+10	1
4901784	211	C	04/14/2021	10:45	-135.674	43.006	0	95.00	0	9.9480	0	35.8480	4	27.626	0	94.224	0	259.9	4	95.1	4	-1E+10	1	-1E+10	1	-1E+10	1	-1E+10	1	-1E+10	1	-1E+10	1
4901784	211	C	04/14/2021	10:45	-135.674	43.006	0	96.90	0	9.9360	0	35.8480	4	27.628	0	96.109	0	259.2	4	94.8	4	-1E+10	1	-1E+10	1	-1E+10	1	-1E+10	1	-1E+10	1	-1E+10	1
4901784	211	C	04/14/2021	10:45	-135.674	43.006	0	98.70	0	9.8890	0	35.8490	4	27.637	0	97.893	0	258.6	4	94.5	4	-1E+10	1	-1E+10	1	-1E+10	1	-1E+10	1	-1E+10	1	-1E+10	1
4901784	211	C	04/14/2021	10:45	-135.674	43.006	0	102.40	0	9.8600	0	35.8500	4	27.643	0	101.562	0	256.4	4	93.6	4	-1E+10	1	-1E+10	1	-1E+10	1	-1E+10	1	-1E+10	1	-1E+10	1
4901784	211	C	04/14/2021	10:45	-135.674	43.006	0	105.20	0	9.8340	0	35.8520	4	27.649	0	104.339	0	253.9	4	92.7	4	-1E+10	1	-1E+10	1	-1E+10	1	-1E+10	1	-1E+10	1	-1E+10	1
4901784	211	C	04/14/2021	10:45	-135.674	43.006	0	108.00	0	9.8510	0	35.8630	4	27.654	0	107.115	0	250.5	4	91.5	4	-1E+10	1	-1E+10	1	-1E+10	1	-1E+10	1	-1E+10	1	-1E+10	1
4901784	211	C	04/14/2021	10:45	-135.674	43.006	0	109.90	0	9.8750	0	35.8680	4	27.654	0	108.999	0	247.8	4	90.6	4	-1E+10	1	-1E+10	1	-1E+10	1	-1E+10	1	-1E+10	1	-1E+10	1
4901784	211	C	04/14/2021	10:45	-135.674	43.006	0	112.60	0	9.8370	0	35.8770	4	27.668	0	111.676	0	244.5	4	89.3	4	-1E+10	1	-1E+10	1	-1E+10	1	-1E+10	1	-1E+10	1	-1E+10	1
4901784	211	C	04/14/2021	10:45	-135.674	43.006	0	115.90	0	9.8240	0	35.9050	4	27.692	0	114.948	0	238.5	4	87.1	4	-1E+10	1	-1E+10	1	-1E+10	1	-1E+10	1	-1E+10	1	-1E+10	1
4901784	211	C	04/14/2021	10:45	-135.674	43.006	0	117.70	0	9.8170	0	35.9160	4	27.702	0	116.733	0	233.0	4	85.1	4	-1E+10	1	-1E+10	1	-1E+10	1	-1E+10	1	-1E+10	1	-1E+10	1
4901784	211	C	04/14/2021	10:45	-135.674	43.006	0	120.00	0	9.7550	0	36.0200	4	27.794	0	119.013	0	225.8	4	82.4	4	-1E+10	1	-1E+10	1	-1E+10	1	-1E+10	1	-1E+10	1	-1E+10	1
4901784	211	C	04/14/2021	10:45	-135.674	43.006	0	122.40	0	9.7160	0	36.1090	4	27.870	0	121.393	0	220.0	4	80.2	4	-1E+10	1	-1E+10	1	-1E+10	1	-1E+10	1	-1E+10	1	-1E+10	1
4901784	211	C	04/14/2021	10:45	-135.674	43.006	0	124.90	0	9.6670	0	36.1290	4	27.894	0	123.871	0	215.7	4	78.6	4	-1E+10	1	-1E+10	1	-1E+10	1	-1E+10	1	-1E+10	1	-1E+10	1
4901784	211	C	04/14/2021	10:45	-135.674	43.006	0	127.00	0	9.5680	0	36.1870	4	27.956	0	125.953	0	211.0	4	76.8	4	-1E+10	1	-1E+10	1	-1E+10	1	-1E+10	1	-1E+10	1	-1E+10	1
4901784	211	C	04/14/2021	10:45	-135.674	43.006	0	129.70	0	9.1560	0	36.3460	4	28.150	0	128.630	0	207.1	4	74.8	4	-1E+10	1	-1E+10	1	-1E+10	1	-1E+10	1	-1E+10	1	-1E+10	1
4901784	211	C	04/14/2021	10:45	-135.674	43.006	0	132.70	0	9.0160	0	36.4030	4	28.218	0	131.605	0	203.8	4	73.4	4	-1E+10	1	-1E+10	1	-1E+10	1	-1E+10	1	-1E+10	1	-1E+10	1
4901784	211	C	04/14/2021	10:45	-135.674	43.006	0	134.90	0	8.8610	0	36.4780	4	28.302	0	133.786	0	201.8	4	72.5	4	-1E+10	1	-1E+10	1	-1E+10	1	-1E+10	1	-1E+10	1	-1E+10	1
4901784	211	C	04/14/2021	10:45	-135.674	43.006	0	137.10	0	8.7960	0	36.5090	4	28.337	0	135.967	0	199.8	4	71.7	4	-1E+10	1	-1E+10	1	-1E+10	1	-1E+10	1	-1E+10	1	-1E+10	1
4901784	211	C	04/14/2021	10:45	-135.674	43.006	0	140.00	0	8.7200	0	36.5430	4	28.376	0	138.842	0	196.3	4	70.3	4	-1E+10	1	-1E+10	1	-1E+10	1	-1E+10	1	-1E+10	1	-1E+10	1
4901784	211	C	04/14/2021	10:45	-135.674	43.006	0	142.30	0	8.6090	0	36.6130	4	28.448	0	141.122	0	193.6	4	69.2	4	-1E+10	1	-1E+10	1	-1E+10	1	-1E+10	1	-1E+10	1	-1E+10	1
4901784	211	C	04/14/2021	10:45	-135.674	43.006	0	144.70	0	8.4720	0	36.6940	4	28.534	0	143.501	0	190.4	4	67.9	4	-1E+10	1	-1E+10	1	-1E+10	1	-1E+10	1	-1E+10	1	-1E+10	1
4901784	211	C	04/14/2021	10:45	-135.674	43.006	0	147.20	0	8.3460	0	36.7670	4	28.611	0	145.980	0	188.0	4	66.9	4	-1E+10	1	-1E+10	1	-1E+10	1	-1E+10	1	-1E+10	1	-1E+10	1
4901784	211	C	04/14/2021	10:45	-135.674	43.006	0	149.80	0	8.2510	0	36.8360	4	28.680	0	148.557	0	186.4	4	66.2	4	-1E+10	1	-1E+10	1	-1E+10	1	-1E+10	1	-1E+10	1	-1E+10	1
4901784	211	C	04/14/2021	10:45	-135.674	43.006	0	152.30	0	8.2230	0	36.8560	4	28.701	0	151.036	0	184.9	4	65.6	4	-1E+10	1	-1E+10	1	-1E+10	1	-1E+10	1	-1E+10	1	-1E+10	1
4901784	211	C	04/14/2021	10:45	-135.674	43.006	0	154.90	0	8.1740	0	36.9090	4	28.750	0	153.613	0	183.4	4	65.1	4	-1E+10	1	-1E+10	1	-1E+10	1	-1E+10	1	-1E+10	1	-1E+10	1
4901784	211	C	04/14/2021	10:45	-135.674	43.006	0	157.70	0	8.1430	0	36.9320	4	28.773	0	156.389	0	181.8	4	64.5	4	-1E+10	1	-1E+10	1	-1E+10	1	-1E+10	1	-1E+10	1	-1E+10	1
4901784	211	C	04/14/2021	10:45	-135.674	43.006	0	159.50	0	8.1190	0	36.9500	4	28.791	0	158.173	0	180.7	4	64.1	4	-1E+10	1	-1E+10	1	-1E+10	1	-1E+10	1	-1E+10	1	-1E+10	1
4901784	211	C	04/14/2021	10:45	-135.674	43.006	0	162.30	0	8.0720	0	36.9790	4	28.821	0	160.949	0	179.0	4	63.4	4	-1E+10	1	-1E+10	1	-1E+10	1	-1E+10	1	-1E+10	1	-1E+10	1
4901784	211	C	04/14/2021	10:45	-135.674	43.006	0	165.00	0	8.0460	0	36.9940	4	28.837	0	163.625	0	177.5	4	62.8	4	-1E+10	1	-1E+10	1	-1E+10	1	-1E+10	1	-1E+10	1	-1E+10	1
4901784	211	C	04/14/2021	10:45	-135.674	43.006	0	167.80	0	8.0280	0	37.0050	4	28.848	0	166.401	0	175.5	4	62.1	4	-1E+10	1	-1E+10	1	-1E+10	1	-1E+10	1	-1E+10	1	-1E+10	1
4901784	211	C	04/14/2021	10:45	-135.674	43.006	0	170.60	0	7.9840	0	37.0540	4	28.894	0	169.176	0	173.4	4	61.3	4	-1E+10	1	-1E+10	1	-1E+10	1	-1E+10	1	-1E+10	1	-1E+10	1
4901784	211	C	04/14/2021	10:45	-135.674	43.006	0	172.40	0	7.9710	0	37.0770	4	28.914	0	170.961	0	172.6	4	61.1	4	-1E+10	1	-1E+10	1	-1E+10	1	-1E+10	1	-1E+10	1	-1E+10	1
4901784	211	C	04/14/2021	10:45	-135.674	43.006	0	174.20	0	7.9580	0	37.0910	4	28.927	0	172.745	0	171.6	4	60.7	4	-1E+10	1	-1E+10	1	-1E+10	1	-1E+10	1	-1E+10	1	-1E+10	1
4901784	211	C	04/14/2021	10:45	-135.674	43.006	0	177.10	0	7.9050	0	37.1310	4	28.967	0	175.619	0	170.2	4	60.1	4	-1E+10	1	-1E+10	1	-1E+10	1	-1E+10	1	-1E+10	1	-1E+10	1
4901784	211	C	04/14/2021	10:45	-135.674	43.006	0	179.80	0	7.8800	0	37.1510	4	28.986	0	178.296	0	167.9	4	59.3	4	-1E+10	1	-1E+10	1	-1E+10	1	-1E+10	1	-1E+10	1	-1E+10	1
4901784	211	C	04/14/2021	10:45	-135.674	43.006	0	182.10	0	7.8630	0	37.1720	4	29.005	0	180.575	0	164.4	4	58.1	4	-1E+10	1	-1E+10	1	-1E+10	1	-1E+10	1	-1E+10	1	-1E+10	1
4901784	211	C	04/14/2021	10:45	-135.674	43.006	0	185.10	0	7.8550	0	37.2000	4	29.029	0	183.549	0	157.4	4	55.6	4	-1E+10	1	-1E+10	1	-1E+10	1	-1E+10	1	-1E+10	1	-1E+10	1
4901784	211	C	04/14/2021	10:45	-135.674	43.006	0	187.40	0	7.8640	0	37.2450	4	29.063	0	185.829	0	152.0	4	53.7	4	-1E+10	1	-1E+10	1	-1E+10	1	-1E+10	1	-1E+10	1	-1E+10	1
4901784	211	C	04/14/2021	10:45	-135.674	43.006	0	189.90	0	7.8610	0	37.2660	4	29.080	0	188.307	0	150.2	4	53.1	4	-1E+10	1	-1E+10	1	-1E+10	1	-1E+10	1	-1E+10	1	-1E+10	1
4901784	211	C	04/14/2021	10:45	-135.674	43.006	0	192.40	0	7.8570	0	37.2770	4	29.089	0	190.784	0	149.2	4	52.7	4	-1E+10	1	-1E+10	1	-1E+10	1	-1E+10	1	-1E+10	1	-1E+10	1
4901784	211	C	04/14/2021	10:45	-135.674	43.006	0	195.00	0	7.8470	0	37.2880	4	29.099	0	193.361	0	148.8	4	52.6	4	-1E+10	1	-1E+10	1	-1E+10	1	-1E+10	1	-1E+10	1	-1E+10	1
4901784	211	C	04/14/2021	10:45	-135.674	43.006	0	197.60	0	7.8370	0	37.2980	4	29.109	0	195.938	0	148.5	4	52.5	4	-1E+10	1	-1E+10	1	-1E+10	1	-1E+10	1	-1E+10	1	-1E+10	1
4901784	211	C	04/14/2021	10:45	-135.674	43.006	0	200.20	0	7.8150	0	37.3110	4	29.122	0	198.515	0	148.5	4	52.4	4	-1E+10	1	-1E+10	1	-1E+10	1	-1E+10	1	-1E+10	1	-1E+10	1
4901784	211	C	04/14/2021	10:45	-135.674	43.006	0	202.80	0	7.8050	0	37.3180	4	29.130	0	201.092	0	148.3	4	52.3	4	-1E+10	1	-1E+10	1	-1E+10	1	-1E+10	1	-1E+10	1	-1E+10	1
4901784	211	C	04/14/2021	10:45	-135.674	43.006	0	205.30	0	7.8020	0	37.3200	4	29.132	0	203.570	0	148.1	4	52.3	4	-1E+10	1	-1E+10	1	-1E+10	1	-1E+10	1	-1E+10	1	-1E+10	1
4901784	211	C	04/14/2021	10:45	-135.674	43.006	0	207.80	0	7.7960	0	37.3210	4	29.133	0	206.047	0	147.9	4	52.2	4	-1E+10	1	-1E+10	1	-1E+10	1	-1E+10	1	-1E+10	1	-1E+10	1
4901784	211	C	04/14/2021	10:45	-135.674	43.006	0	210.30	0	7.7630	0	37.3370	4	29.151	0	208.525	0	147.6	4	52.1	4	-1E+10	1	-1E+10	1	-1E+10	1	-1E+10	1	-1E+10	1	-1E+10	1
4901784	211	C	04/14/2021	10:45	-135.674	43.006	0	212.90	0	7.7510	0	37.3430	4	29.158	0	211.102	0	148.0	4	52.2	4	-1E+10	1	-1E+10	1	-1E+10	1	-1E+10	1	-1E+10	1	-1E+10	1
4901784	211	C	04/14/2021	10:45	-135.674	43.006	0	214.70	0	7.7320	0	37.3460	4	29.163	0	212.886	0	148.7	4	52.4	4	-1E+10	1	-1E+10	1	-1E+10	1	-1E+10	1	-1E+10	1	-1E+10	1
4901784	211	C	04/14/2021	10:45	-135.674	43.006	0	217.30	0	7.6900	0	37.3440	4	29.168	0	215.462	0	149.0	4	52.5	4	-1E+10	1	-1E+10	1	-1E+10	1	-1E+10	1	-1E+10	1	-1E+10	1
4901784	211	C	04/14/2021	10:45	-135.674	43.006	0	219.90	0	7.6320	0	37.3490	4	29.181	0	218.039	0	146.4	4	51.5	4	-1E+10	1	-1E+10	1	-1E+10	1	-1E+10	1	-1E+10	1	-1E+10	1
4901784	211	C	04/14/2021	10:45	-135.674	43.006	0	222.60	0	7.6320	0	37.3680	4	29.196	0	220.715	0	143.4	4	50.4	4	-1E+10	1	-1E+10	1	-1E+10	1	-1E+10	1	-1E+10	1	-1E+10	1
4901784	211	C	04/14/2021	10:45	-135.674	43.006	0	225.30	0	7.6550	0	37.3750	4	29.198	0	223.390	0	140.4	4	49.4	4	-1E+10	1	-1E+10	1	-1E+10	1	-1E+10	1	-1E+10	1	-1E+10	1
4901784	211	C	04/14/2021	10:45	-135.674	43.006	0	227.10	0	7.6630	0	37.3760	4	29.197	0	225.174	0	139.4	4	49.1	4	-1E+10	1	-1E+10	1	-1E+10	1	-1E+10	1	-1E+10	1	-1E+10	1
4901784	211	C	04/14/2021	10:45	-135.674	43.006	0	229.90	0	7.6610	0	37.3800	4	29.201	0	227.949	0	138.0	4	48.6	4	-1E+10	1	-1E+10	1	-1E+10	1	-1E+10	1	-1E+10	1	-1E+10	1
4901784	211	C	04/14/2021	10:45	-135.674	43.006	0	232.70	0	7.6480	0	37.3810	4	29.204	0	230.724	0	136.3	4	47.9	4	-1E+10	1	-1E+10	1	-1E+10	1	-1E+10	1	-1E+10	1	-1E+10	1
4901784	211	C	04/14/2021	10:45	-135.674	43.006	0	234.70	0	7.6340	0	37.3880	4	29.211	0	232.705	0	135.4	4	47.6	4	-1E+10	1	-1E+10	1	-1E+10	1	-1E+10	1	-1E+10	1	-1E+10	1
4901784	211	C	04/14/2021	10:45	-135.674	43.006	0	237.50	0	7.5990	0	37.3940	4	29.221	0	235.480	0	134.6	4	47.3	4	-1E+10	1	-1E+10	1	-1E+10	1	-1E+10	1	-1E+10	1	-1E+10	1
4901784	211	C	04/14/2021	10:45	-135.674	43.006	0	240.30	0	7.5680	0	37.3990	4	29.230	0	238.255	0	133.9	4	47.1	4	-1E+10	1	-1E+10	1	-1E+10	1	-1E+10	1	-1E+10	1	-1E+10	1
4901784	211	C	04/14/2021	10:45	-135.674	43.006	0	242.30	0	7.5560	0	37.3990	4	29.232	0	240.236	0	133.4	4	46.8	4	-1E+10	1	-1E+10	1	-1E+10	1	-1E+10	1	-1E+10	1	-1E+10	1
4901784	211	C	04/14/2021	10:45	-135.674	43.006	0	245.20	0	7.5130	0	37.4040	4	29.242	0	243.110	0	132.5	4	46.5	4	-1E+10	1	-1E+10	1	-1E+10	1	-1E+10	1	-1E+10	1	-1E+10	1
4901784	211	C	04/14/2021	10:45	-135.674	43.006	0	248.00	0	7.4740	0	37.4080	4	29.251	0	245.884	0	131.8	4	46.2	4	-1E+10	1	-1E+10	1	-1E+10	1	-1E+10	1	-1E+10	1	-1E+10	1
4901784	211	C	04/14/2021	10:45	-135.674	43.006	0	249.90	0	7.4540	0	37.4090	4	29.255	0	247.767	0	131.5	4	46.1	4	-1E+10	1	-1E+10	1	-1E+10	1	-1E+10	1	-1E+10	1	-1E+10	1
4901784	211	C	04/14/2021	10:45	-135.674	43.006	0	251.90	0	7.4080	0	37.4140	4	29.266	0	249.749	0	131.1	4	45.9	4	-1E+10	1	-1E+10	1	-1E+10	1	-1E+10	1	-1E+10	1	-1E+10	1
4901784	211	C	04/14/2021	10:45	-135.674	43.006	0	254.80	0	7.3920	0	37.4120	4	29.267	0	252.622	0	130.2	4	45.6	4	-1E+10	1	-1E+10	1	-1E+10	1	-1E+10	1	-1E+10	1	-1E+10	1
4901784	211	C	04/14/2021	10:45	-135.674	43.006	0	257.70	0	7.3570	0	37.4120	4	29.272	0	255.496	0	129.3	4	45.2	4	-1E+10	1	-1E+10	1	-1E+10	1	-1E+10	1	-1E+10	1	-1E+10	1
4901784	211	C	04/14/2021	10:45	-135.674	43.006	0	259.60	0	7.3240	0	37.4120	4	29.277	0	257.378	0	128.8	4	45.0	4	-1E+10	1	-1E+10	1	-1E+10	1	-1E+10	1	-1E+10	1	-1E+10	1
4901784	211	C	04/14/2021	10:45	-135.674	43.006	0	262.50	0	7.2240	0	37.4190	4	29.297	0	260.252	0	128.3	4	44.7	4	-1E+10	1	-1E+10	1	-1E+10	1	-1E+10	1	-1E+10	1	-1E+10	1
4901784	211	C	04/14/2021	10:45	-135.674	43.006	0	265.40	0	7.1780	0	37.4190	4	29.304	0	263.125	0	127.7	4	44.5	4	-1E+10	1	-1E+10	1	-1E+10	1	-1E+10	1	-1E+10	1	-1E+10	1
4901784	211	C	04/14/2021	10:45	-135.674	43.006	0	267.40	0	7.1430	0	37.4190	4	29.309	0	265.107	0	127.2	4	44.3	4	-1E+10	1	-1E+10	1	-1E+10	1	-1E+10	1	-1E+10	1	-1E+10	1
4901784	211	C	04/14/2021	10:45	-135.674	43.006	0	269.30	0	7.0950	0	37.4220	4	29.319	0	266.989	0	126.9	4	44.1	4	-1E+10	1	-1E+10	1	-1E+10	1	-1E+10	1	-1E+10	1	-1E+10	1
4901784	211	C	04/14/2021	10:45	-135.674	43.006	0	272.30	0	7.0430	0	37.4240	4	29.328	0	269.961	0	126.6	4	44.0	4	-1E+10	1	-1E+10	1	-1E+10	1	-1E+10	1	-1E+10	1	-1E+10	1
4901784	211	C	04/14/2021	10:45	-135.674	43.006	0	275.30	0	7.0160	0	37.4240	4	29.332	0	272.934	0	126.4	4	43.9	4	-1E+10	1	-1E+10	1	-1E+10	1	-1E+10	1	-1E+10	1	-1E+10	1
4901784	211	C	04/14/2021	10:45	-135.674	43.006	0	277.30	0	6.9840	0	37.4260	4	29.338	0	274.915	0	126.4	4	43.8	4	-1E+10	1	-1E+10	1	-1E+10	1	-1E+10	1	-1E+10	1	-1E+10	1
4901784	211	C	04/14/2021	10:45	-135.674	43.006	0	280.20	0	6.9420	0	37.4260	4	29.344	0	277.788	0	126.8	4	43.9	4	-1E+10	1	-1E+10	1	-1E+10	1	-1E+10	1	-1E+10	1	-1E+10	1
4901784	211	C	04/14/2021	10:45	-135.674	43.006	0	283.10	0	6.9040	0	37.4240	4	29.348	0	280.661	0	126.7	4	43.9	4	-1E+10	1	-1E+10	1	-1E+10	1	-1E+10	1	-1E+10	1	-1E+10	1
4901784	211	C	04/14/2021	10:45	-135.674	43.006	0	285.10	0	6.8780	0	37.4280	4	29.355	0	282.643	0	126.3	4	43.7	4	-1E+10	1	-1E+10	1	-1E+10	1	-1E+10	1	-1E+10	1	-1E+10	1
4901784	211	C	04/14/2021	10:45	-135.674	43.006	0	286.90	0	6.8560	0	37.4250	4	29.356	0	284.426	0	126.7	4	43.8	4	-1E+10	1	-1E+10	1	-1E+10	1	-1E+10	1	-1E+10	1	-1E+10	1
4901784	211	C	04/14/2021	10:45	-135.674	43.006	0	289.80	0	6.7960	0	37.4250	4	29.364	0	287.299	0	126.1	4	43.6	4	-1E+10	1	-1E+10	1	-1E+10	1	-1E+10	1	-1E+10	1	-1E+10	1
4901784	211	C	04/14/2021	10:45	-135.674	43.006	0	292.70	0	6.7470	0	37.4260	4	29.372	0	290.172	0	124.2	4	42.8	4	-1E+10	1	-1E+10	1	-1E+10	1	-1E+10	1	-1E+10	1	-1E+10	1
4901784	211	C	04/14/2021	10:45	-135.674	43.006	0	294.70	0	6.7210	0	37.4250	4	29.375	0	292.153	0	121.8	4	42.0	4	-1E+10	1	-1E+10	1	-1E+10	1	-1E+10	1	-1E+10	1	-1E+10	1
4901784	211	C	04/14/2021	10:45	-135.674	43.006	0	297.70	0	6.6980	0	37.4290	4	29.382	0	295.125	0	118.3	4	40.7	4	-1E+10	1	-1E+10	1	-1E+10	1	-1E+10	1	-1E+10	1	-1E+10	1
4901784	211	C	04/14/2021	10:45	-135.674	43.006	0	300.60	0	6.6510	0	37.4340	4	29.392	0	297.998	0	115.3	4	39.7	4	-1E+10	1	-1E+10	1	-1E+10	1	-1E+10	1	-1E+10	1	-1E+10	1
4901784	211	C	04/14/2021	10:45	-135.674	43.006	0	302.60	0	6.6360	0	37.4360	4	29.396	0	299.979	0	114.4	4	39.4	4	-1E+10	1	-1E+10	1	-1E+10	1	-1E+10	1	-1E+10	1	-1E+10	1
4901784	211	C	04/14/2021	10:45	-135.674	43.006	0	304.60	0	6.5820	0	37.4400	4	29.407	0	301.960	0	114.4	4	39.3	4	-1E+10	1	-1E+10	1	-1E+10	1	-1E+10	1	-1E+10	1	-1E+10	1
4901784	211	C	04/14/2021	10:45	-135.674	43.006	0	307.60	0	6.5630	0	37.4370	4	29.407	0	304.932	0	114.7	4	39.4	4	-1E+10	1	-1E+10	1	-1E+10	1	-1E+10	1	-1E+10	1	-1E+10	1
4901784	211	C	04/14/2021	10:45	-135.674	43.006	0	310.50	0	6.5250	0	37.4380	4	29.413	0	307.805	0	115.0	4	39.5	4	-1E+10	1	-1E+10	1	-1E+10	1	-1E+10	1	-1E+10	1	-1E+10	1
4901784	211	C	04/14/2021	10:45	-135.674	43.006	0	312.50	0	6.5030	0	37.4360	4	29.415	0	309.786	0	115.8	4	39.7	4	-1E+10	1	-1E+10	1	-1E+10	1	-1E+10	1	-1E+10	1	-1E+10	1
4901784	211	C	04/14/2021	10:45	-135.674	43.006	0	314.40	0	6.4600	0	37.4390	4	29.423	0	311.668	0	117.2	4	40.2	4	-1E+10	1	-1E+10	1	-1E+10	1	-1E+10	1	-1E+10	1	-1E+10	1
4901784	211	C	04/14/2021	10:45	-135.674	43.006	0	317.20	0	6.4120	0	37.4320	4	29.424	0	314.442	0	119.0	4	40.7	4	-1E+10	1	-1E+10	1	-1E+10	1	-1E+10	1	-1E+10	1	-1E+10	1
4901784	211	C	04/14/2021	10:45	-135.674	43.006	0	320.00	0	6.3470	0	37.4290	4	29.431	0	317.215	0	119.9	4	41.0	4	-1E+10	1	-1E+10	1	-1E+10	1	-1E+10	1	-1E+10	1	-1E+10	1
4901784	211	C	04/14/2021	10:45	-135.674	43.006	0	321.90	0	6.3000	0	37.4290	4	29.437	0	319.097	0	119.5	4	40.8	4	-1E+10	1	-1E+10	1	-1E+10	1	-1E+10	1	-1E+10	1	-1E+10	1
4901784	211	C	04/14/2021	10:45	-135.674	43.006	0	324.80	0	6.2850	0	37.4280	4	29.439	0	321.970	0	118.5	4	40.4	4	-1E+10	1	-1E+10	1	-1E+10	1	-1E+10	1	-1E+10	1	-1E+10	1
4901784	211	C	04/14/2021	10:45	-135.674	43.006	0	327.70	0	6.2490	0	37.4270	4	29.443	0	324.842	0	117.5	4	40.1	4	-1E+10	1	-1E+10	1	-1E+10	1	-1E+10	1	-1E+10	1	-1E+10	1
4901784	211	C	04/14/2021	10:45	-135.674	43.006	0	329.60	0	6.1950	0	37.4310	4	29.453	0	326.724	0	116.9	4	39.8	4	-1E+10	1	-1E+10	1	-1E+10	1	-1E+10	1	-1E+10	1	-1E+10	1
4901784	211	C	04/14/2021	10:45	-135.674	43.006	0	332.50	0	6.1440	0	37.4290	4	29.459	0	329.596	0	115.7	4	39.4	4	-1E+10	1	-1E+10	1	-1E+10	1	-1E+10	1	-1E+10	1	-1E+10	1
4901784	211	C	04/14/2021	10:45	-135.674	43.006	0	335.30	0	6.0970	0	37.4300	4	29.466	0	332.370	0	114.1	4	38.8	4	-1E+10	1	-1E+10	1	-1E+10	1	-1E+10	1	-1E+10	1	-1E+10	1
4901784	211	C	04/14/2021	10:45	-135.674	43.006	0	337.20	0	6.0620	0	37.4330	4	29.473	0	334.252	0	113.1	4	38.4	4	-1E+10	1	-1E+10	1	-1E+10	1	-1E+10	1	-1E+10	1	-1E+10	1
4901784	211	C	04/14/2021	10:45	-135.674	43.006	0	340.10	0	6.0460	0	37.4360	4	29.477	0	337.124	0	111.4	4	37.8	4	-1E+10	1	-1E+10	1	-1E+10	1	-1E+10	1	-1E+10	1	-1E+10	1
4901784	211	C	04/14/2021	10:45	-135.674	43.006	0	342.90	0	6.0150	0	37.4380	4	29.483	0	339.897	0	109.4	4	37.1	4	-1E+10	1	-1E+10	1	-1E+10	1	-1E+10	1	-1E+10	1	-1E+10	1
4901784	211	C	04/14/2021	10:45	-135.674	43.006	0	344.90	0	6.0050	0	37.4400	4	29.486	0	341.878	0	108.3	4	36.7	4	-1E+10	1	-1E+10	1	-1E+10	1	-1E+10	1	-1E+10	1	-1E+10	1
4901784	211	C	04/14/2021	10:45	-135.674	43.006	0	347.70	0	5.9750	0	37.4410	4	29.491	0	344.651	0	106.8	4	36.2	4	-1E+10	1	-1E+10	1	-1E+10	1	-1E+10	1	-1E+10	1	-1E+10	1
4901784	211	C	04/14/2021	10:45	-135.674	43.006	0	350.50	0	5.9280	0	37.4440	4	29.500	0	347.424	0	105.6	4	35.8	4	-1E+10	1	-1E+10	1	-1E+10	1	-1E+10	1	-1E+10	1	-1E+10	1
4901784	211	C	04/14/2021	10:45	-135.674	43.006	0	352.40	0	5.9210	0	37.4430	4	29.500	0	349.306	0	104.8	4	35.5	4	-1E+10	1	-1E+10	1	-1E+10	1	-1E+10	1	-1E+10	1	-1E+10	1
4901784	211	C	04/14/2021	10:45	-135.674	43.006	0	355.20	0	5.8940	0	37.4460	4	29.506	0	352.079	0	103.5	4	35.0	4	-1E+10	1	-1E+10	1	-1E+10	1	-1E+10	1	-1E+10	1	-1E+10	1
4901784	211	C	04/14/2021	10:45	-135.674	43.006	0	358.10	0	5.8810	0	37.4460	4	29.508	0	354.951	0	102.3	4	34.6	4	-1E+10	1	-1E+10	1	-1E+10	1	-1E+10	1	-1E+10	1	-1E+10	1
4901784	211	C	04/14/2021	10:45	-135.674	43.006	0	359.90	0	5.8700	0	37.4470	4	29.510	0	356.734	0	101.3	4	34.3	4	-1E+10	1	-1E+10	1	-1E+10	1	-1E+10	1	-1E+10	1	-1E+10	1
4901784	211	C	04/14/2021	10:45	-135.674	43.006	0	362.70	0	5.8320	0	37.4490	4	29.516	0	359.507	0	100.4	4	33.9	4	-1E+10	1	-1E+10	1	-1E+10	1	-1E+10	1	-1E+10	1	-1E+10	1
4901784	211	C	04/14/2021	10:45	-135.674	43.006	0	365.80	0	5.8050	0	37.4500	4	29.521	0	362.577	0	99.6	4	33.6	4	-1E+10	1	-1E+10	1	-1E+10	1	-1E+10	1	-1E+10	1	-1E+10	1
4901784	211	C	04/14/2021	10:45	-135.674	43.006	0	367.10	0	5.8010	0	37.4490	4	29.521	0	363.864	0	99.3	4	33.5	4	-1E+10	1	-1E+10	1	-1E+10	1	-1E+10	1	-1E+10	1	-1E+10	1
4901784	211	C	04/14/2021	10:45	-135.674	43.006	0	370.30	0	5.7800	0	37.4480	4	29.523	0	367.033	0	98.3	4	33.2	4	-1E+10	1	-1E+10	1	-1E+10	1	-1E+10	1	-1E+10	1	-1E+10	1
4901784	211	C	04/14/2021	10:45	-135.674	43.006	0	372.70	0	5.7660	0	37.4450	4	29.522	0	369.410	0	97.4	4	32.9	4	-1E+10	1	-1E+10	1	-1E+10	1	-1E+10	1	-1E+10	1	-1E+10	1
4901784	211	C	04/14/2021	10:45	-135.674	43.006	0	375.00	0	5.7050	0	37.4460	4	29.531	0	371.687	0	96.4	4	32.5	4	-1E+10	1	-1E+10	1	-1E+10	1	-1E+10	1	-1E+10	1	-1E+10	1
4901784	211	C	04/14/2021	10:45	-135.674	43.006	0	377.30	0	5.6790	0	37.4460	4	29.534	0	373.965	0	95.3	4	32.1	4	-1E+10	1	-1E+10	1	-1E+10	1	-1E+10	1	-1E+10	1	-1E+10	1
4901784	211	C	04/14/2021	10:45	-135.674	43.006	0	379.70	0	5.6450	0	37.4490	4	29.541	0	376.341	0	93.9	4	31.6	4	-1E+10	1	-1E+10	1	-1E+10	1	-1E+10	1	-1E+10	1	-1E+10	1
4901784	211	C	04/14/2021	10:45	-135.674	43.006	0	382.90	0	5.6150	0	37.4490	4	29.545	0	379.510	0	92.6	4	31.1	4	-1E+10	1	-1E+10	1	-1E+10	1	-1E+10	1	-1E+10	1	-1E+10	1
4901784	211	C	04/14/2021	10:45	-135.674	43.006	0	385.30	0	5.5860	0	37.4510	4	29.550	0	381.887	0	91.6	4	30.8	4	-1E+10	1	-1E+10	1	-1E+10	1	-1E+10	1	-1E+10	1	-1E+10	1
4901784	211	C	04/14/2021	10:45	-135.674	43.006	0	387.80	0	5.5620	0	37.4510	4	29.554	0	384.362	0	90.8	4	30.5	4	-1E+10	1	-1E+10	1	-1E+10	1	-1E+10	1	-1E+10	1	-1E+10	1
4901784	211	C	04/14/2021	10:45	-135.674	43.006	0	390.20	0	5.5550	0	37.4490	4	29.553	0	386.739	0	89.9	4	30.2	4	-1E+10	1	-1E+10	1	-1E+10	1	-1E+10	1	-1E+10	1	-1E+10	1
4901784	211	C	04/14/2021	10:45	-135.674	43.006	0	392.60	0	5.5340	0	37.4470	4	29.554	0	389.115	0	88.5	4	29.7	4	-1E+10	1	-1E+10	1	-1E+10	1	-1E+10	1	-1E+10	1	-1E+10	1
4901784	211	C	04/14/2021	10:45	-135.674	43.006	0	395.10	0	5.5160	0	37.4410	4	29.552	0	391.591	0	86.9	4	29.2	4	-1E+10	1	-1E+10	1	-1E+10	1	-1E+10	1	-1E+10	1	-1E+10	1
4901784	211	C	04/14/2021	10:45	-135.674	43.006	0	397.70	0	5.4390	0	37.4450	4	29.565	0	394.165	0	85.4	4	28.6	4	-1E+10	1	-1E+10	1	-1E+10	1	-1E+10	1	-1E+10	1	-1E+10	1
4901784	211	C	04/14/2021	10:45	-135.674	43.006	0	400.20	0	5.3880	0	37.4460	4	29.572	0	396.641	0	84.5	4	28.3	4	-1E+10	1	-1E+10	1	-1E+10	1	-1E+10	1	-1E+10	1	-1E+10	1
4901784	211	C	04/14/2021	10:45	-135.674	43.006	0	402.60	0	5.3500	0	37.4400	4	29.572	0	399.017	0	83.9	4	28.0	4	-1E+10	1	-1E+10	1	-1E+10	1	-1E+10	1	-1E+10	1	-1E+10	1
4901784	211	C	04/14/2021	10:45	-135.674	43.006	0	405.10	0	5.2950	0	37.4350	4	29.575	0	401.492	0	83.4	4	27.8	4	-1E+10	1	-1E+10	1	-1E+10	1	-1E+10	1	-1E+10	1	-1E+10	1
4901784	211	C	04/14/2021	10:45	-135.674	43.006	0	407.60	0	5.2650	0	37.4180	4	29.565	0	403.967	0	82.8	4	27.6	4	-1E+10	1	-1E+10	1	-1E+10	1	-1E+10	1	-1E+10	1	-1E+10	1
4901784	211	C	04/14/2021	10:45	-135.674	43.006	0	410.10	0	5.2510	0	37.3940	4	29.548	0	406.443	0	81.9	4	27.3	4	-1E+10	1	-1E+10	1	-1E+10	1	-1E+10	1	-1E+10	1	-1E+10	1
4901784	211	C	04/14/2021	10:45	-135.674	43.006	0	412.60	0	5.1980	8	37.3620	8	29.529	0	408.918	0	80.9	4	26.9	4	-1E+10	1	-1E+10	1	-1E+10	1	-1E+10	1	-1E+10	1	-1E+10	1
4901784	211	C	04/14/2021	10:45	-135.674	43.006	0	415.10	0	5.1830	8	37.2860	8	29.471	0	411.393	0	79.9	4	26.5	4	-1E+10	1	-1E+10	1	-1E+10	1	-1E+10	1	-1E+10	1	-1E+10	1
4901784	211	C	04/14/2021	10:45	-135.674	43.006	0	417.50	0	5.1360	8	37.1710	8	29.386	0	413.769	0	79.0	4	26.2	4	-1E+10	1	-1E+10	1	-1E+10	1	-1E+10	1	-1E+10	1	-1E+10	1
4901784	211	C	04/14/2021	10:45	-135.674	43.006	0	420.10	0	5.1110	8	37.0820	8	29.318	0	416.344	0	78.0	4	25.8	4	-1E+10	1	-1E+10	1	-1E+10	1	-1E+10	1	-1E+10	1	-1E+10	1
4901784	211	C	04/14/2021	10:45	-135.674	43.006	0	422.60	0	5.0740	8	37.0370	8	29.287	0	418.819	0	76.5	4	25.3	4	-1E+10	1	-1E+10	1	-1E+10	1	-1E+10	1	-1E+10	1	-1E+10	1
4901784	211	C	04/14/2021	10:45	-135.674	43.006	0	425.20	0	5.0690	0	37.0260	4	29.279	0	421.393	0	74.9	4	24.8	4	-1E+10	1	-1E+10	1	-1E+10	1	-1E+10	1	-1E+10	1	-1E+10	1
4901784	211	C	04/14/2021	10:45	-135.674	43.006	0	427.00	0	5.0400	0	37.0260	4	29.282	0	423.175	0	74.7	4	24.7	4	-1E+10	1	-1E+10	1	-1E+10	1	-1E+10	1	-1E+10	1	-1E+10	1
4901784	211	C	04/14/2021	10:45	-135.674	43.006	0	429.70	0	5.0020	0	37.0160	4	29.279	0	425.848	0	74.0	4	24.4	4	-1E+10	1	-1E+10	1	-1E+10	1	-1E+10	1	-1E+10	1	-1E+10	1
4901784	211	C	04/14/2021	10:45	-135.674	43.006	0	432.30	0	4.9690	0	37.0290	4	29.293	0	428.422	0	72.9	4	24.1	4	-1E+10	1	-1E+10	1	-1E+10	1	-1E+10	1	-1E+10	1	-1E+10	1
4901784	211	C	04/14/2021	10:45	-135.674	43.006	0	434.90	0	4.9520	0	37.0140	4	29.283	0	430.996	0	72.0	4	23.8	4	-1E+10	1	-1E+10	1	-1E+10	1	-1E+10	1	-1E+10	1	-1E+10	1
4901784	211	C	04/14/2021	10:45	-135.674	43.006	0	437.50	0	4.9340	0	37.0470	4	29.312	0	433.570	0	71.0	4	23.4	4	-1E+10	1	-1E+10	1	-1E+10	1	-1E+10	1	-1E+10	1	-1E+10	1
4901784	211	C	04/14/2021	10:45	-135.674	43.006	0	440.20	0	4.9340	0	37.0130	4	29.285	0	436.243	0	70.5	4	23.2	4	-1E+10	1	-1E+10	1	-1E+10	1	-1E+10	1	-1E+10	1	-1E+10	1
4901784	211	C	04/14/2021	10:45	-135.674	43.006	0	442.90	0	4.9240	0	36.9750	4	29.256	0	438.916	0	70.4	4	23.2	4	-1E+10	1	-1E+10	1	-1E+10	1	-1E+10	1	-1E+10	1	-1E+10	1
4901784	211	C	04/14/2021	10:45	-135.674	43.006	0	444.80	0	4.8920	0	36.9990	4	29.279	0	440.796	0	70.4	4	23.2	4	-1E+10	1	-1E+10	1	-1E+10	1	-1E+10	1	-1E+10	1	-1E+10	1
4901784	211	C	04/14/2021	10:45	-135.674	43.006	0	447.50	0	4.8840	0	37.0030	4	29.283	0	443.469	0	69.9	4	23.0	4	-1E+10	1	-1E+10	1	-1E+10	1	-1E+10	1	-1E+10	1	-1E+10	1
4901784	211	C	04/14/2021	10:45	-135.674	43.006	0	450.30	0	4.8470	0	37.0050	4	29.289	0	446.241	0	69.5	4	22.9	4	-1E+10	1	-1E+10	1	-1E+10	1	-1E+10	1	-1E+10	1	-1E+10	1
4901784	211	C	04/14/2021	10:45	-135.674	43.006	0	452.20	0	4.8370	0	37.0000	4	29.286	0	448.122	0	69.1	4	22.7	4	-1E+10	1	-1E+10	1	-1E+10	1	-1E+10	1	-1E+10	1	-1E+10	1
4901784	211	C	04/14/2021	10:45	-135.674	43.006	0	455.10	0	4.8320	0	37.0200	4	29.303	0	450.993	0	68.3	4	22.5	4	-1E+10	1	-1E+10	1	-1E+10	1	-1E+10	1	-1E+10	1	-1E+10	1
4901784	211	C	04/14/2021	10:45	-135.674	43.006	0	457.90	0	4.8320	0	37.0350	4	29.315	0	453.764	0	67.3	4	22.1	4	-1E+10	1	-1E+10	1	-1E+10	1	-1E+10	1	-1E+10	1	-1E+10	1
4901784	211	C	04/14/2021	10:45	-135.674	43.006	0	459.70	0	4.8310	0	37.0150	4	29.299	0	455.546	0	66.6	4	21.9	4	-1E+10	1	-1E+10	1	-1E+10	1	-1E+10	1	-1E+10	1	-1E+10	1
4901784	211	C	04/14/2021	10:45	-135.674	43.006	0	462.60	0	4.8110	8	37.0360	8	29.318	0	458.417	0	66.0	4	21.7	4	-1E+10	1	-1E+10	1	-1E+10	1	-1E+10	1	-1E+10	1	-1E+10	1
4901784	211	C	04/14/2021	10:45	-135.674	43.006	0	465.40	0	4.7750	8	36.9920	8	29.288	0	461.188	0	64.9	4	21.3	4	-1E+10	1	-1E+10	1	-1E+10	1	-1E+10	1	-1E+10	1	-1E+10	1
4901784	211	C	04/14/2021	10:45	-135.674	43.006	0	467.40	0	4.7770	0	36.9920	4	29.287	0	463.168	0	63.9	4	21.0	4	-1E+10	1	-1E+10	1	-1E+10	1	-1E+10	1	-1E+10	1	-1E+10	1
4901784	211	C	04/14/2021	10:45	-135.674	43.006	0	469.80	0	4.7710	0	36.9900	4	29.286	0	465.543	0	63.0	4	20.7	4	-1E+10	1	-1E+10	1	-1E+10	1	-1E+10	1	-1E+10	1	-1E+10	1
4901784	211	C	04/14/2021	10:45	-135.674	43.006	0	472.60	0	4.7520	0	36.9810	4	29.282	0	468.315	0	61.8	4	20.3	4	-1E+10	1	-1E+10	1	-1E+10	1	-1E+10	1	-1E+10	1	-1E+10	1
4901784	211	C	04/14/2021	10:45	-135.674	43.006	0	475.00	0	4.7350	0	37.0010	4	29.299	0	470.690	0	60.8	4	20.0	4	-1E+10	1	-1E+10	1	-1E+10	1	-1E+10	1	-1E+10	1	-1E+10	1
4901784	211	C	04/14/2021	10:45	-135.674	43.006	0	477.40	0	4.7160	0	36.9970	4	29.299	0	473.066	0	59.8	4	19.6	4	-1E+10	1	-1E+10	1	-1E+10	1	-1E+10	1	-1E+10	1	-1E+10	1
4901784	211	C	04/14/2021	10:45	-135.674	43.006	0	479.80	0	4.7120	0	36.9990	4	29.301	0	475.441	0	58.4	4	19.2	4	-1E+10	1	-1E+10	1	-1E+10	1	-1E+10	1	-1E+10	1	-1E+10	1
4901784	211	C	04/14/2021	10:45	-135.674	43.006	0	482.30	0	4.7140	0	36.9860	4	29.290	0	477.916	0	56.9	4	18.7	4	-1E+10	1	-1E+10	1	-1E+10	1	-1E+10	1	-1E+10	1	-1E+10	1
4901784	211	C	04/14/2021	10:45	-135.674	43.006	0	484.70	0	4.7330	0	36.9720	4	29.277	0	480.291	0	56.0	4	18.4	4	-1E+10	1	-1E+10	1	-1E+10	1	-1E+10	1	-1E+10	1	-1E+10	1
4901784	211	C	04/14/2021	10:45	-135.674	43.006	0	487.30	0	4.6970	0	36.9730	4	29.282	0	482.865	0	55.4	4	18.2	4	-1E+10	1	-1E+10	1	-1E+10	1	-1E+10	1	-1E+10	1	-1E+10	1
4901784	211	C	04/14/2021	10:45	-135.674	43.006	0	489.70	0	4.7000	0	36.9630	4	29.274	0	485.240	0	54.4	4	17.8	4	-1E+10	1	-1E+10	1	-1E+10	1	-1E+10	1	-1E+10	1	-1E+10	1
4901784	211	C	04/14/2021	10:45	-135.674	43.006	0	492.30	0	4.6590	0	36.9700	4	29.284	0	487.813	0	53.6	4	17.5	4	-1E+10	1	-1E+10	1	-1E+10	1	-1E+10	1	-1E+10	1	-1E+10	1
4901784	211	C	04/14/2021	10:45	-135.674	43.006	0	494.80	0	4.6550	0	36.9810	4	29.293	0	490.287	0	52.5	4	17.2	4	-1E+10	1	-1E+10	1	-1E+10	1	-1E+10	1	-1E+10	1	-1E+10	1
4901784	211	C	04/14/2021	10:45	-135.674	43.006	0	497.30	0	4.6530	0	36.9920	4	29.302	0	492.762	0	51.8	4	17.0	4	-1E+10	1	-1E+10	1	-1E+10	1	-1E+10	1	-1E+10	1	-1E+10	1
4901784	211	C	04/14/2021	10:45	-135.674	43.006	0	499.80	0	4.6470	0	36.9830	4	29.296	0	495.236	0	51.0	4	16.7	4	-1E+10	1	-1E+10	1	-1E+10	1	-1E+10	1	-1E+10	1	-1E+10	1
4901784	211	C	04/14/2021	10:45	-135.674	43.006	0	504.90	0	4.6510	0	36.9780	4	29.291	0	500.283	0	49.2	4	16.1	4	-1E+10	1	-1E+10	1	-1E+10	1	-1E+10	1	-1E+10	1	-1E+10	1
4901784	211	C	04/14/2021	10:45	-135.674	43.006	0	510.00	0	4.6060	0	36.9830	4	29.301	0	505.330	0	48.4	4	15.8	4	-1E+10	1	-1E+10	1	-1E+10	1	-1E+10	1	-1E+10	1	-1E+10	1
4901784	211	C	04/14/2021	10:45	-135.674	43.006	0	515.20	0	4.5840	0	36.9710	4	29.294	0	510.476	0	47.1	4	15.4	4	-1E+10	1	-1E+10	1	-1E+10	1	-1E+10	1	-1E+10	1	-1E+10	1
4901784	211	C	04/14/2021	10:45	-135.674	43.006	0	520.50	0	4.5670	0	36.9730	4	29.297	0	515.721	0	45.3	4	14.8	4	-1E+10	1	-1E+10	1	-1E+10	1	-1E+10	1	-1E+10	1	-1E+10	1
4901784	211	C	04/14/2021	10:45	-135.674	43.006	0	524.90	0	4.5410	0	36.9730	4	29.300	0	520.075	0	44.2	4	14.4	4	-1E+10	1	-1E+10	1	-1E+10	1	-1E+10	1	-1E+10	1	-1E+10	1
4901784	211	C	04/14/2021	10:45	-135.674	43.006	0	529.30	0	4.5410	0	36.9770	4	29.304	0	524.429	0	43.2	4	14.1	4	-1E+10	1	-1E+10	1	-1E+10	1	-1E+10	1	-1E+10	1	-1E+10	1
4901784	211	C	04/14/2021	10:45	-135.674	43.006	0	534.50	0	4.5270	0	36.9800	4	29.308	0	529.575	0	43.0	4	14.0	4	-1E+10	1	-1E+10	1	-1E+10	1	-1E+10	1	-1E+10	1	-1E+10	1
4901784	211	C	04/14/2021	10:45	-135.674	43.006	0	539.80	0	4.4720	0	36.9750	4	29.310	0	534.819	0	43.1	4	14.1	4	-1E+10	1	-1E+10	1	-1E+10	1	-1E+10	1	-1E+10	1	-1E+10	1
4901784	211	C	04/14/2021	10:45	-135.674	43.006	0	545.00	0	4.4510	0	36.9760	4	29.313	0	539.964	0	42.4	4	13.8	4	-1E+10	1	-1E+10	1	-1E+10	1	-1E+10	1	-1E+10	1	-1E+10	1
4901784	211	C	04/14/2021	10:45	-135.674	43.006	0	550.30	0	4.4400	0	36.9790	4	29.317	0	545.209	0	40.9	4	13.3	4	-1E+10	1	-1E+10	1	-1E+10	1	-1E+10	1	-1E+10	1	-1E+10	1
4901784	211	C	04/14/2021	10:45	-135.674	43.006	0	555.70	0	4.4390	0	36.9910	4	29.327	0	550.551	0	38.4	4	12.5	4	-1E+10	1	-1E+10	1	-1E+10	1	-1E+10	1	-1E+10	1	-1E+10	1
4901784	211	C	04/14/2021	10:45	-135.674	43.006	0	560.10	0	4.4550	0	36.9970	4	29.330	0	554.905	0	36.7	4	12.0	4	-1E+10	1	-1E+10	1	-1E+10	1	-1E+10	1	-1E+10	1	-1E+10	1
4901784	211	C	04/14/2021	10:45	-135.674	43.006	0	564.60	0	4.4610	0	36.9990	4	29.331	0	559.357	0	35.1	4	11.4	4	-1E+10	1	-1E+10	1	-1E+10	1	-1E+10	1	-1E+10	1	-1E+10	1
4901784	211	C	04/14/2021	10:45	-135.674	43.006	0	570.00	0	4.4630	0	37.0080	4	29.338	0	564.700	0	33.8	4	11.0	4	-1E+10	1	-1E+10	1	-1E+10	1	-1E+10	1	-1E+10	1	-1E+10	1
4901784	211	C	04/14/2021	10:45	-135.674	43.006	0	575.40	0	4.4370	0	37.0110	4	29.343	0	570.042	0	32.5	4	10.6	4	-1E+10	1	-1E+10	1	-1E+10	1	-1E+10	1	-1E+10	1	-1E+10	1
4901784	211	C	04/14/2021	10:45	-135.674	43.006	0	580.70	0	4.4530	0	37.0260	4	29.353	0	575.285	0	30.4	4	9.9	4	-1E+10	1	-1E+10	1	-1E+10	1	-1E+10	1	-1E+10	1	-1E+10	1
4901784	211	C	04/14/2021	10:45	-135.674	43.006	0	585.10	0	4.4660	0	37.0310	4	29.356	0	579.638	0	29.7	4	9.7	4	-1E+10	1	-1E+10	1	-1E+10	1	-1E+10	1	-1E+10	1	-1E+10	1
4901784	211	C	04/14/2021	10:45	-135.674	43.006	0	589.60	0	4.4600	0	37.0330	4	29.358	0	584.090	0	29.2	4	9.5	4	-1E+10	1	-1E+10	1	-1E+10	1	-1E+10	1	-1E+10	1	-1E+10	1
4901784	211	C	04/14/2021	10:45	-135.674	43.006	0	594.90	0	4.4600	0	37.0360	4	29.361	0	589.333	0	28.2	4	9.2	4	-1E+10	1	-1E+10	1	-1E+10	1	-1E+10	1	-1E+10	1	-1E+10	1
4901784	211	C	04/14/2021	10:45	-135.674	43.006	0	600.40	0	4.4210	0	37.0440	4	29.371	0	594.773	0	26.7	4	8.7	4	-1E+10	1	-1E+10	1	-1E+10	1	-1E+10	1	-1E+10	1	-1E+10	1
4901784	211	C	04/14/2021	10:45	-135.674	43.006	0	604.90	0	4.4320	0	37.0530	4	29.377	0	599.225	0	25.1	4	8.2	4	-1E+10	1	-1E+10	1	-1E+10	1	-1E+10	1	-1E+10	1	-1E+10	1
4901784	211	C	04/14/2021	10:45	-135.674	43.006	0	609.30	0	4.4330	0	37.0620	4	29.384	0	603.577	0	24.0	4	7.8	4	-1E+10	1	-1E+10	1	-1E+10	1	-1E+10	1	-1E+10	1	-1E+10	1
4901784	211	C	04/14/2021	10:45	-135.674	43.006	0	614.70	0	4.4210	0	37.0690	4	29.391	0	608.918	0	22.9	4	7.5	4	-1E+10	1	-1E+10	1	-1E+10	1	-1E+10	1	-1E+10	1	-1E+10	1
4901784	211	C	04/14/2021	10:45	-135.674	43.006	0	620.00	0	4.4070	0	37.0790	4	29.401	0	614.161	0	22.0	4	7.2	4	-1E+10	1	-1E+10	1	-1E+10	1	-1E+10	1	-1E+10	1	-1E+10	1
4901784	211	C	04/14/2021	10:45	-135.674	43.006	0	625.40	0	4.3920	0	37.0840	4	29.407	0	619.502	0	21.3	4	7.0	4	-1E+10	1	-1E+10	1	-1E+10	1	-1E+10	1	-1E+10	1	-1E+10	1
4901784	211	C	04/14/2021	10:45	-135.674	43.006	0	629.90	0	4.3820	0	37.0890	4	29.412	0	623.953	0	20.8	4	6.8	4	-1E+10	1	-1E+10	1	-1E+10	1	-1E+10	1	-1E+10	1	-1E+10	1
4901784	211	C	04/14/2021	10:45	-135.674	43.006	0	634.50	0	4.3750	0	37.0930	4	29.416	0	628.502	0	20.4	4	6.6	4	-1E+10	1	-1E+10	1	-1E+10	1	-1E+10	1	-1E+10	1	-1E+10	1
4901784	211	C	04/14/2021	10:45	-135.674	43.006	0	640.00	0	4.3700	0	37.0980	4	29.421	0	633.942	0	20.0	4	6.5	4	-1E+10	1	-1E+10	1	-1E+10	1	-1E+10	1	-1E+10	1	-1E+10	1
4901784	211	C	04/14/2021	10:45	-135.674	43.006	0	645.60	0	4.3670	0	37.1010	4	29.423	0	639.480	0	19.6	4	6.4	4	-1E+10	1	-1E+10	1	-1E+10	1	-1E+10	1	-1E+10	1	-1E+10	1
4901784	211	C	04/14/2021	10:45	-135.674	43.006	0	650.20	0	4.3620	0	37.1040	4	29.426	0	644.030	0	19.4	4	6.3	4	-1E+10	1	-1E+10	1	-1E+10	1	-1E+10	1	-1E+10	1	-1E+10	1
4901784	211	C	04/14/2021	10:45	-135.674	43.006	0	654.80	0	4.3340	0	37.1070	4	29.432	0	648.579	0	19.2	4	6.2	4	-1E+10	1	-1E+10	1	-1E+10	1	-1E+10	1	-1E+10	1	-1E+10	1
4901784	211	C	04/14/2021	10:45	-135.674	43.006	0	660.50	0	4.3260	0	37.1110	4	29.436	0	654.216	0	18.7	4	6.1	4	-1E+10	1	-1E+10	1	-1E+10	1	-1E+10	1	-1E+10	1	-1E+10	1
4901784	211	C	04/14/2021	10:45	-135.674	43.006	0	665.20	0	4.3160	0	37.1150	4	29.440	0	658.864	0	18.4	4	6.0	4	-1E+10	1	-1E+10	1	-1E+10	1	-1E+10	1	-1E+10	1	-1E+10	1
4901784	211	C	04/14/2021	10:45	-135.674	43.006	0	670.00	0	4.2960	0	37.1170	4	29.444	0	663.610	0	18.3	4	5.9	4	-1E+10	1	-1E+10	1	-1E+10	1	-1E+10	1	-1E+10	1	-1E+10	1
4901784	211	C	04/14/2021	10:45	-135.674	43.006	0	675.60	0	4.2560	0	37.1190	4	29.451	0	669.148	0	18.1	4	5.9	4	-1E+10	1	-1E+10	1	-1E+10	1	-1E+10	1	-1E+10	1	-1E+10	1
4901784	211	C	04/14/2021	10:45	-135.674	43.006	0	680.30	0	4.2180	0	37.1230	4	29.458	0	673.795	0	17.8	4	5.8	4	-1E+10	1	-1E+10	1	-1E+10	1	-1E+10	1	-1E+10	1	-1E+10	1
4901784	211	C	04/14/2021	10:45	-135.674	43.006	0	685.10	0	4.2100	0	37.1290	4	29.464	0	678.542	0	17.3	4	5.6	4	-1E+10	1	-1E+10	1	-1E+10	1	-1E+10	1	-1E+10	1	-1E+10	1
4901784	211	C	04/14/2021	10:45	-135.674	43.006	0	689.90	0	4.1980	0	37.1350	4	29.470	0	683.288	0	16.9	4	5.5	4	-1E+10	1	-1E+10	1	-1E+10	1	-1E+10	1	-1E+10	1	-1E+10	1
4901784	211	C	04/14/2021	10:45	-135.674	43.006	0	694.80	0	4.1930	0	37.1380	4	29.473	0	688.133	0	16.6	4	5.4	4	-1E+10	1	-1E+10	1	-1E+10	1	-1E+10	1	-1E+10	1	-1E+10	1
4901784	211	C	04/14/2021	10:45	-135.674	43.006	0	699.60	0	4.1910	0	37.1410	4	29.476	0	692.879	0	16.2	4	5.3	4	-1E+10	1	-1E+10	1	-1E+10	1	-1E+10	1	-1E+10	1	-1E+10	1
4901784	211	C	04/14/2021	10:45	-135.674	43.006	0	704.50	0	4.1830	0	37.1470	4	29.481	0	697.724	0	15.9	4	5.2	4	-1E+10	1	-1E+10	1	-1E+10	1	-1E+10	1	-1E+10	1	-1E+10	1
4901784	211	C	04/14/2021	10:45	-135.674	43.006	0	710.30	0	4.1800	0	37.1510	4	29.485	0	703.458	0	15.6	4	5.1	4	-1E+10	1	-1E+10	1	-1E+10	1	-1E+10	1	-1E+10	1	-1E+10	1
4901784	211	C	04/14/2021	10:45	-135.674	43.006	0	715.10	0	4.1750	0	37.1520	4	29.486	0	708.204	0	15.4	4	5.0	4	-1E+10	1	-1E+10	1	-1E+10	1	-1E+10	1	-1E+10	1	-1E+10	1
4901784	211	C	04/14/2021	10:45	-135.674	43.006	0	720.00	0	4.1620	0	37.1580	4	29.492	0	713.048	0	15.2	4	4.9	4	-1E+10	1	-1E+10	1	-1E+10	1	-1E+10	1	-1E+10	1	-1E+10	1
4901784	211	C	04/14/2021	10:45	-135.674	43.006	0	725.50	0	4.1550	0	37.1610	4	29.496	0	718.485	0	14.8	4	4.8	4	-1E+10	1	-1E+10	1	-1E+10	1	-1E+10	1	-1E+10	1	-1E+10	1
4901784	211	C	04/14/2021	10:45	-135.674	43.006	0	730.50	0	4.1490	0	37.1650	4	29.500	0	723.428	0	14.4	4	4.7	4	-1E+10	1	-1E+10	1	-1E+10	1	-1E+10	1	-1E+10	1	-1E+10	1
4901784	211	C	04/14/2021	10:45	-135.674	43.006	0	735.40	0	4.1470	0	37.1710	4	29.505	0	728.272	0	13.9	4	4.5	4	-1E+10	1	-1E+10	1	-1E+10	1	-1E+10	1	-1E+10	1	-1E+10	1
4901784	211	C	04/14/2021	10:45	-135.674	43.006	0	740.50	0	4.1440	0	37.1800	4	29.512	0	733.314	0	13.4	4	4.3	4	-1E+10	1	-1E+10	1	-1E+10	1	-1E+10	1	-1E+10	1	-1E+10	1
4901784	211	C	04/14/2021	10:45	-135.674	43.006	0	745.50	0	4.1380	0	37.1880	4	29.519	0	738.257	0	13.1	4	4.2	4	-1E+10	1	-1E+10	1	-1E+10	1	-1E+10	1	-1E+10	1	-1E+10	1
4901784	211	C	04/14/2021	10:45	-135.674	43.006	0	750.70	0	4.1350	0	37.1920	4	29.523	0	743.397	0	12.9	4	4.2	4	-1E+10	1	-1E+10	1	-1E+10	1	-1E+10	1	-1E+10	1	-1E+10	1
4901784	211	C	04/14/2021	10:45	-135.674	43.006	0	755.10	0	4.1340	0	37.1940	4	29.525	0	747.746	0	12.8	4	4.2	4	-1E+10	1	-1E+10	1	-1E+10	1	-1E+10	1	-1E+10	1	-1E+10	1
4901784	211	C	04/14/2021	10:45	-135.674	43.006	0	759.40	0	4.1150	0	37.1950	4	29.528	0	751.997	0	12.9	4	4.2	4	-1E+10	1	-1E+10	1	-1E+10	1	-1E+10	1	-1E+10	1	-1E+10	1
4901784	211	C	04/14/2021	10:45	-135.674	43.006	0	764.50	0	4.0780	0	37.2010	4	29.536	0	757.038	0	12.6	4	4.1	4	-1E+10	1	-1E+10	1	-1E+10	1	-1E+10	1	-1E+10	1	-1E+10	1
4901784	211	C	04/14/2021	10:45	-135.674	43.006	0	769.80	0	4.0660	0	37.2080	4	29.543	0	762.276	0	12.3	4	4.0	4	-1E+10	1	-1E+10	1	-1E+10	1	-1E+10	1	-1E+10	1	-1E+10	1
4901784	211	C	04/14/2021	10:45	-135.674	43.006	0	775.10	0	4.0480	0	37.2130	4	29.549	0	767.515	0	12.1	4	3.9	4	-1E+10	1	-1E+10	1	-1E+10	1	-1E+10	1	-1E+10	1	-1E+10	1
4901784	211	C	04/14/2021	10:45	-135.674	43.006	0	780.40	0	4.0400	0	37.2190	4	29.555	0	772.753	0	11.9	4	3.9	4	-1E+10	1	-1E+10	1	-1E+10	1	-1E+10	1	-1E+10	1	-1E+10	1
4901784	211	C	04/14/2021	10:45	-135.674	43.006	0	785.70	0	4.0270	0	37.2210	4	29.558	0	777.991	0	11.9	4	3.8	4	-1E+10	1	-1E+10	1	-1E+10	1	-1E+10	1	-1E+10	1	-1E+10	1
4901784	211	C	04/14/2021	10:45	-135.674	43.006	0	790.20	0	4.0060	0	37.2250	4	29.564	0	782.439	0	11.8	4	3.8	4	-1E+10	1	-1E+10	1	-1E+10	1	-1E+10	1	-1E+10	1	-1E+10	1
4901784	211	C	04/14/2021	10:45	-135.674	43.006	0	794.60	0	3.9980	0	37.2270	4	29.566	0	786.787	0	11.7	4	3.8	4	-1E+10	1	-1E+10	1	-1E+10	1	-1E+10	1	-1E+10	1	-1E+10	1
4901784	211	C	04/14/2021	10:45	-135.674	43.006	0	800.10	0	3.9840	0	37.2310	4	29.571	0	792.223	0	11.5	4	3.7	4	-1E+10	1	-1E+10	1	-1E+10	1	-1E+10	1	-1E+10	1	-1E+10	1
4901784	211	C	04/14/2021	10:45	-135.674	43.006	0	805.50	0	3.9500	0	37.2380	4	29.580	0	797.559	0	11.4	4	3.7	4	-1E+10	1	-1E+10	1	-1E+10	1	-1E+10	1	-1E+10	1	-1E+10	1
4901784	211	C	04/14/2021	10:45	-135.674	43.006	0	810.00	0	3.9440	0	37.2400	4	29.583	0	802.006	0	11.3	4	3.7	4	-1E+10	1	-1E+10	1	-1E+10	1	-1E+10	1	-1E+10	1	-1E+10	1
4901784	211	C	04/14/2021	10:45	-135.674	43.006	0	814.40	0	3.9300	0	37.2440	4	29.587	0	806.354	0	11.2	4	3.6	4	-1E+10	1	-1E+10	1	-1E+10	1	-1E+10	1	-1E+10	1	-1E+10	1
4901784	211	C	04/14/2021	10:45	-135.674	43.006	0	819.90	0	3.9320	0	37.2490	4	29.591	0	811.789	0	11.0	4	3.6	4	-1E+10	1	-1E+10	1	-1E+10	1	-1E+10	1	-1E+10	1	-1E+10	1
4901784	211	C	04/14/2021	10:45	-135.674	43.006	0	825.30	0	3.9180	0	37.2540	4	29.597	0	817.125	0	10.9	4	3.5	4	-1E+10	1	-1E+10	1	-1E+10	1	-1E+10	1	-1E+10	1	-1E+10	1
4901784	211	C	04/14/2021	10:45	-135.674	43.006	0	830.70	0	3.9080	0	37.2590	4	29.602	0	822.461	0	10.7	4	3.5	4	-1E+10	1	-1E+10	1	-1E+10	1	-1E+10	1	-1E+10	1	-1E+10	1
4901784	211	C	04/14/2021	10:45	-135.674	43.006	0	835.10	0	3.8900	0	37.2630	4	29.607	0	826.809	0	10.6	4	3.4	4	-1E+10	1	-1E+10	1	-1E+10	1	-1E+10	1	-1E+10	1	-1E+10	1
4901784	211	C	04/14/2021	10:45	-135.674	43.006	0	839.70	0	3.8660	0	37.2690	4	29.615	0	831.354	0	10.5	4	3.4	4	-1E+10	1	-1E+10	1	-1E+10	1	-1E+10	1	-1E+10	1	-1E+10	1
4901784	211	C	04/14/2021	10:45	-135.674	43.006	0	845.20	0	3.8640	0	37.2750	4	29.620	0	836.788	0	10.4	4	3.4	4	-1E+10	1	-1E+10	1	-1E+10	1	-1E+10	1	-1E+10	1	-1E+10	1
4901784	211	C	04/14/2021	10:45	-135.674	43.006	0	849.80	0	3.8550	0	37.2770	4	29.622	0	841.333	0	10.4	4	3.3	4	-1E+10	1	-1E+10	1	-1E+10	1	-1E+10	1	-1E+10	1	-1E+10	1
4901784	211	C	04/14/2021	10:45	-135.674	43.006	0	854.60	0	3.8340	0	37.2830	4	29.629	0	846.076	0	10.4	4	3.3	4	-1E+10	1	-1E+10	1	-1E+10	1	-1E+10	1	-1E+10	1	-1E+10	1
4901784	211	C	04/14/2021	10:45	-135.674	43.006	0	860.20	0	3.8260	0	37.2840	4	29.631	0	851.608	0	10.4	4	3.3	4	-1E+10	1	-1E+10	1	-1E+10	1	-1E+10	1	-1E+10	1	-1E+10	1
4901784	211	C	04/14/2021	10:45	-135.674	43.006	0	864.90	0	3.8130	0	37.2850	4	29.633	0	856.252	0	10.3	4	3.3	4	-1E+10	1	-1E+10	1	-1E+10	1	-1E+10	1	-1E+10	1	-1E+10	1
4901784	211	C	04/14/2021	10:45	-135.674	43.006	0	869.60	0	3.8090	0	37.2880	4	29.636	0	860.895	0	10.2	4	3.3	4	-1E+10	1	-1E+10	1	-1E+10	1	-1E+10	1	-1E+10	1	-1E+10	1
4901784	211	C	04/14/2021	10:45	-135.674	43.006	0	875.20	0	3.7950	0	37.2940	4	29.642	0	866.428	0	10.2	4	3.3	4	-1E+10	1	-1E+10	1	-1E+10	1	-1E+10	1	-1E+10	1	-1E+10	1
4901784	211	C	04/14/2021	10:45	-135.674	43.006	0	879.90	0	3.7920	0	37.2950	4	29.644	0	871.071	0	10.1	4	3.3	4	-1E+10	1	-1E+10	1	-1E+10	1	-1E+10	1	-1E+10	1	-1E+10	1
4901784	211	C	04/14/2021	10:45	-135.674	43.006	0	884.60	0	3.7930	0	37.2980	4	29.646	0	875.714	0	10.1	4	3.2	4	-1E+10	1	-1E+10	1	-1E+10	1	-1E+10	1	-1E+10	1	-1E+10	1
4901784	211	C	04/14/2021	10:45	-135.674	43.006	0	890.00	0	3.7870	0	37.3030	4	29.651	0	881.048	0	10.1	4	3.2	4	-1E+10	1	-1E+10	1	-1E+10	1	-1E+10	1	-1E+10	1	-1E+10	1
4901784	211	C	04/14/2021	10:45	-135.674	43.006	0	894.30	0	3.7840	0	37.3050	4	29.653	0	885.296	0	10.0	4	3.2	4	-1E+10	1	-1E+10	1	-1E+10	1	-1E+10	1	-1E+10	1	-1E+10	1
4901784	211	C	04/14/2021	10:45	-135.674	43.006	0	900.00	0	3.7770	0	37.3080	4	29.656	0	890.926	0	10.0	4	3.2	4	-1E+10	1	-1E+10	1	-1E+10	1	-1E+10	1	-1E+10	1	-1E+10	1
4901784	211	C	04/14/2021	10:45	-135.674	43.006	0	905.70	0	3.7660	0	37.3120	4	29.660	0	896.557	0	10.0	4	3.2	4	-1E+10	1	-1E+10	1	-1E+10	1	-1E+10	1	-1E+10	1	-1E+10	1
4901784	211	C	04/14/2021	10:45	-135.674	43.006	0	910.70	0	3.7580	0	37.3160	4	29.664	0	901.495	0	10.0	4	3.2	4	-1E+10	1	-1E+10	1	-1E+10	1	-1E+10	1	-1E+10	1	-1E+10	1
4901784	211	C	04/14/2021	10:45	-135.674	43.006	0	915.70	0	3.7360	0	37.3210	4	29.671	0	906.434	0	10.0	4	3.2	4	-1E+10	1	-1E+10	1	-1E+10	1	-1E+10	1	-1E+10	1	-1E+10	1
4901784	211	C	04/14/2021	10:45	-135.674	43.006	0	920.70	0	3.7240	0	37.3250	4	29.675	0	911.372	0	10.0	4	3.2	4	-1E+10	1	-1E+10	1	-1E+10	1	-1E+10	1	-1E+10	1	-1E+10	1
4901784	211	C	04/14/2021	10:45	-135.674	43.006	0	925.80	0	3.7130	0	37.3290	4	29.680	0	916.410	0	10.0	4	3.2	4	-1E+10	1	-1E+10	1	-1E+10	1	-1E+10	1	-1E+10	1	-1E+10	1
4901784	211	C	04/14/2021	10:45	-135.674	43.006	0	930.00	0	3.7040	0	37.3320	4	29.683	0	920.558	0	10.0	4	3.2	4	-1E+10	1	-1E+10	1	-1E+10	1	-1E+10	1	-1E+10	1	-1E+10	1
4901784	211	C	04/14/2021	10:45	-135.674	43.006	0	934.20	0	3.6990	0	37.3330	4	29.684	0	924.706	0	10.0	4	3.2	4	-1E+10	1	-1E+10	1	-1E+10	1	-1E+10	1	-1E+10	1	-1E+10	1
4901784	211	C	04/14/2021	10:45	-135.674	43.006	0	939.30	0	3.6890	0	37.3350	4	29.687	0	929.743	0	10.0	4	3.2	4	-1E+10	1	-1E+10	1	-1E+10	1	-1E+10	1	-1E+10	1	-1E+10	1
4901784	211	C	04/14/2021	10:45	-135.674	43.006	0	944.50	0	3.6560	0	37.3380	4	29.693	0	934.878	0	10.0	4	3.2	4	-1E+10	1	-1E+10	1	-1E+10	1	-1E+10	1	-1E+10	1	-1E+10	1
4901784	211	C	04/14/2021	10:45	-135.674	43.006	0	949.70	0	3.6380	0	37.3400	4	29.696	0	940.014	0	10.1	4	3.2	4	-1E+10	1	-1E+10	1	-1E+10	1	-1E+10	1	-1E+10	1	-1E+10	1
4901784	211	C	04/14/2021	10:45	-135.674	43.006	0	954.80	0	3.6230	0	37.3440	4	29.701	0	945.050	0	10.1	4	3.2	4	-1E+10	1	-1E+10	1	-1E+10	1	-1E+10	1	-1E+10	1	-1E+10	1
4901784	211	C	04/14/2021	10:45	-135.674	43.006	0	959.90	0	3.6210	0	37.3470	4	29.704	0	950.086	0	10.1	4	3.2	4	-1E+10	1	-1E+10	1	-1E+10	1	-1E+10	1	-1E+10	1	-1E+10	1
4901784	211	C	04/14/2021	10:45	-135.674	43.006	0	965.10	0	3.6080	0	37.3510	4	29.709	0	955.221	0	10.1	4	3.3	4	-1E+10	1	-1E+10	1	-1E+10	1	-1E+10	1	-1E+10	1	-1E+10	1
4901784	211	C	04/14/2021	10:45	-135.674	43.006	0	970.30	0	3.5890	0	37.3570	4	29.715	0	960.356	0	10.2	4	3.3	4	-1E+10	1	-1E+10	1	-1E+10	1	-1E+10	1	-1E+10	1	-1E+10	1
4901784	211	C	04/14/2021	10:45	-135.674	43.006	0	975.60	0	3.5830	0	37.3600	4	29.718	0	965.590	0	10.2	4	3.3	4	-1E+10	1	-1E+10	1	-1E+10	1	-1E+10	1	-1E+10	1	-1E+10	1
4901784	211	C	04/14/2021	10:45	-135.674	43.006	0	980.00	0	3.5750	0	37.3620	4	29.721	0	969.934	0	10.2	4	3.3	4	-1E+10	1	-1E+10	1	-1E+10	1	-1E+10	1	-1E+10	1	-1E+10	1
4901784	211	C	04/14/2021	10:45	-135.674	43.006	0	984.40	0	3.5640	0	37.3640	4	29.724	0	974.279	0	10.2	4	3.3	4	-1E+10	1	-1E+10	1	-1E+10	1	-1E+10	1	-1E+10	1	-1E+10	1
4901784	211	C	04/14/2021	10:45	-135.674	43.006	0	989.80	0	3.5500	0	37.3660	4	29.727	0	979.611	0	10.2	4	3.3	4	-1E+10	1	-1E+10	1	-1E+10	1	-1E+10	1	-1E+10	1	-1E+10	1
4901784	211	C	04/14/2021	10:45	-135.674	43.006	0	995.30	0	3.5410	0	37.3680	4	29.729	0	985.041	0	10.3	4	3.3	4	-1E+10	1	-1E+10	1	-1E+10	1	-1E+10	1	-1E+10	1	-1E+10	1
4901784	211	C	04/14/2021	10:45	-135.674	43.006	0	999.80	0	3.5310	0	37.3690	4	29.731	0	989.484	0	10.3	4	3.3	4	-1E+10	1	-1E+10	1	-1E+10	1	-1E+10	1	-1E+10	1	-1E+10	1
4901784	211	C	04/14/2021	10:45	-135.674	43.006	0	1004.30	0	3.5300	0	37.3720	4	29.734	0	993.927	0	10.4	4	3.3	4	-1E+10	1	-1E+10	1	-1E+10	1	-1E+10	1	-1E+10	1	-1E+10	1
4901784	211	C	04/14/2021	10:45	-135.674	43.006	0	1009.80	0	3.5180	0	37.3740	4	29.737	0	999.357	0	10.4	4	3.3	4	-1E+10	1	-1E+10	1	-1E+10	1	-1E+10	1	-1E+10	1	-1E+10	1
4901784	211	C	04/14/2021	10:45	-135.674	43.006	0	1015.30	0	3.4990	0	37.3800	4	29.744	0	1004.787	0	10.5	4	3.4	4	-1E+10	1	-1E+10	1	-1E+10	1	-1E+10	1	-1E+10	1	-1E+10	1
4901784	211	C	04/14/2021	10:45	-135.674	43.006	0	1020.00	0	3.4960	0	37.3830	4	29.746	0	1009.427	0	10.6	4	3.4	4	-1E+10	1	-1E+10	1	-1E+10	1	-1E+10	1	-1E+10	1	-1E+10	1
4901784	211	C	04/14/2021	10:45	-135.674	43.006	0	1024.70	0	3.4840	0	37.3860	4	29.750	0	1014.067	0	10.6	4	3.4	4	-1E+10	1	-1E+10	1	-1E+10	1	-1E+10	1	-1E+10	1	-1E+10	1
4901784	211	C	04/14/2021	10:45	-135.674	43.006	0	1030.40	0	3.4720	0	37.3870	4	29.752	0	1019.694	0	10.6	4	3.4	4	-1E+10	1	-1E+10	1	-1E+10	1	-1E+10	1	-1E+10	1	-1E+10	1
4901784	211	C	04/14/2021	10:45	-135.674	43.006	0	1035.10	0	3.4570	0	37.3880	4	29.754	0	1024.334	0	10.7	4	3.4	4	-1E+10	1	-1E+10	1	-1E+10	1	-1E+10	1	-1E+10	1	-1E+10	1
4901784	211	C	04/14/2021	10:45	-135.674	43.006	0	1039.80	0	3.4380	0	37.3910	4	29.759	0	1028.974	0	10.7	4	3.4	4	-1E+10	1	-1E+10	1	-1E+10	1	-1E+10	1	-1E+10	1	-1E+10	1
4901784	211	C	04/14/2021	10:45	-135.674	43.006	0	1045.40	0	3.4220	0	37.3940	4	29.763	0	1034.501	0	10.7	4	3.4	4	-1E+10	1	-1E+10	1	-1E+10	1	-1E+10	1	-1E+10	1	-1E+10	1
4901784	211	C	04/14/2021	10:45	-135.674	43.006	0	1050.40	0	3.4110	0	37.3960	4	29.766	0	1039.437	0	10.8	4	3.4	4	-1E+10	1	-1E+10	1	-1E+10	1	-1E+10	1	-1E+10	1	-1E+10	1
4901784	211	C	04/14/2021	10:45	-135.674	43.006	0	1054.90	0	3.3980	0	37.3980	4	29.769	0	1043.879	0	10.8	4	3.4	4	-1E+10	1	-1E+10	1	-1E+10	1	-1E+10	1	-1E+10	1	-1E+10	1
4901784	211	C	04/14/2021	10:45	-135.674	43.006	0	1059.90	0	3.3850	0	37.4010	4	29.772	0	1048.814	0	10.8	4	3.5	4	-1E+10	1	-1E+10	1	-1E+10	1	-1E+10	1	-1E+10	1	-1E+10	1
4901784	211	C	04/14/2021	10:45	-135.674	43.006	0	1064.80	0	3.3790	0	37.4020	4	29.774	0	1053.650	0	10.9	4	3.5	4	-1E+10	1	-1E+10	1	-1E+10	1	-1E+10	1	-1E+10	1	-1E+10	1
4901784	211	C	04/14/2021	10:45	-135.674	43.006	0	1069.80	0	3.3730	0	37.4040	4	29.776	0	1058.586	0	10.9	4	3.5	4	-1E+10	1	-1E+10	1	-1E+10	1	-1E+10	1	-1E+10	1	-1E+10	1
4901784	211	C	04/14/2021	10:45	-135.674	43.006	0	1074.90	0	3.3620	0	37.4070	4	29.780	0	1063.619	0	11.0	4	3.5	4	-1E+10	1	-1E+10	1	-1E+10	1	-1E+10	1	-1E+10	1	-1E+10	1
4901784	211	C	04/14/2021	10:45	-135.674	43.006	0	1079.90	0	3.3540	0	37.4090	4	29.782	0	1068.554	0	11.0	4	3.5	4	-1E+10	1	-1E+10	1	-1E+10	1	-1E+10	1	-1E+10	1	-1E+10	1
4901784	211	C	04/14/2021	10:45	-135.674	43.006	0	1085.00	0	3.3480	0	37.4110	4	29.784	0	1073.587	0	11.1	4	3.5	4	-1E+10	1	-1E+10	1	-1E+10	1	-1E+10	1	-1E+10	1	-1E+10	1
4901784	211	C	04/14/2021	10:45	-135.674	43.006	0	1090.00	0	3.3390	0	37.4140	4	29.788	0	1078.522	0	11.2	4	3.6	4	-1E+10	1	-1E+10	1	-1E+10	1	-1E+10	1	-1E+10	1	-1E+10	1
4901784	211	C	04/14/2021	10:45	-135.674	43.006	0	1095.10	0	3.3310	0	37.4160	4	29.790	0	1083.555	0	11.3	4	3.6	4	-1E+10	1	-1E+10	1	-1E+10	1	-1E+10	1	-1E+10	1	-1E+10	1
4901784	211	C	04/14/2021	10:45	-135.674	43.006	0	1100.20	0	3.3250	0	37.4170	4	29.792	0	1088.588	0	11.4	4	3.6	4	-1E+10	1	-1E+10	1	-1E+10	1	-1E+10	1	-1E+10	1	-1E+10	1
4901784	211	C	04/14/2021	10:45	-135.674	43.006	0	1105.20	0	3.3080	0	37.4220	4	29.797	0	1093.522	0	11.6	4	3.7	4	-1E+10	1	-1E+10	1	-1E+10	1	-1E+10	1	-1E+10	1	-1E+10	1
4901784	211	C	04/14/2021	10:45	-135.674	43.006	0	1110.30	0	3.2960	0	37.4250	4	29.801	0	1098.555	0	11.7	4	3.7	4	-1E+10	1	-1E+10	1	-1E+10	1	-1E+10	1	-1E+10	1	-1E+10	1
4901784	211	C	04/14/2021	10:45	-135.674	43.006	0	1115.30	0	3.2830	0	37.4280	4	29.805	0	1103.489	0	11.8	4	3.8	4	-1E+10	1	-1E+10	1	-1E+10	1	-1E+10	1	-1E+10	1	-1E+10	1
4901784	211	C	04/14/2021	10:45	-135.674	43.006	0	1120.40	0	3.2740	0	37.4310	4	29.808	0	1108.522	0	11.9	4	3.8	4	-1E+10	1	-1E+10	1	-1E+10	1	-1E+10	1	-1E+10	1	-1E+10	1
4901784	211	C	04/14/2021	10:45	-135.674	43.006	0	1125.50	0	3.2630	0	37.4330	4	29.811	0	1113.554	0	12.1	4	3.8	4	-1E+10	1	-1E+10	1	-1E+10	1	-1E+10	1	-1E+10	1	-1E+10	1
4901784	211	C	04/14/2021	10:45	-135.674	43.006	0	1130.70	0	3.2500	0	37.4360	4	29.815	0	1118.685	0	12.2	4	3.9	4	-1E+10	1	-1E+10	1	-1E+10	1	-1E+10	1	-1E+10	1	-1E+10	1
4901784	211	C	04/14/2021	10:45	-135.674	43.006	0	1134.90	0	3.2420	0	37.4390	4	29.818	0	1122.829	0	12.3	4	3.9	4	-1E+10	1	-1E+10	1	-1E+10	1	-1E+10	1	-1E+10	1	-1E+10	1
4901784	211	C	04/14/2021	10:45	-135.674	43.006	0	1139.20	0	3.2330	0	37.4400	4	29.820	0	1127.072	0	12.4	4	3.9	4	-1E+10	1	-1E+10	1	-1E+10	1	-1E+10	1	-1E+10	1	-1E+10	1
4901784	211	C	04/14/2021	10:45	-135.674	43.006	0	1144.40	0	3.2260	0	37.4430	4	29.823	0	1132.202	0	12.5	4	4.0	4	-1E+10	1	-1E+10	1	-1E+10	1	-1E+10	1	-1E+10	1	-1E+10	1
4901784	211	C	04/14/2021	10:45	-135.674	43.006	0	1149.50	0	3.2150	0	37.4450	4	29.826	0	1137.234	0	12.6	4	4.0	4	-1E+10	1	-1E+10	1	-1E+10	1	-1E+10	1	-1E+10	1	-1E+10	1
4901784	211	C	04/14/2021	10:45	-135.674	43.006	0	1154.60	0	3.2090	0	37.4470	4	29.828	0	1142.266	0	12.7	4	4.0	4	-1E+10	1	-1E+10	1	-1E+10	1	-1E+10	1	-1E+10	1	-1E+10	1
4901784	211	C	04/14/2021	10:45	-135.674	43.006	0	1159.80	0	3.2020	0	37.4490	4	29.830	0	1147.396	0	12.9	4	4.1	4	-1E+10	1	-1E+10	1	-1E+10	1	-1E+10	1	-1E+10	1	-1E+10	1
4901784	211	C	04/14/2021	10:45	-135.674	43.006	0	1165.00	0	3.1880	0	37.4520	4	29.834	0	1152.526	0	13.0	4	4.1	4	-1E+10	1	-1E+10	1	-1E+10	1	-1E+10	1	-1E+10	1	-1E+10	1
4901784	211	C	04/14/2021	10:45	-135.674	43.006	0	1170.20	0	3.1750	0	37.4540	4	29.837	0	1157.656	0	13.1	4	4.1	4	-1E+10	1	-1E+10	1	-1E+10	1	-1E+10	1	-1E+10	1	-1E+10	1
4901784	211	C	04/14/2021	10:45	-135.674	43.006	0	1175.40	0	3.1670	0	37.4560	4	29.839	0	1162.786	0	13.1	4	4.2	4	-1E+10	1	-1E+10	1	-1E+10	1	-1E+10	1	-1E+10	1	-1E+10	1
4901784	211	C	04/14/2021	10:45	-135.674	43.006	0	1180.60	0	3.1580	0	37.4570	4	29.841	0	1167.916	0	13.2	4	4.2	4	-1E+10	1	-1E+10	1	-1E+10	1	-1E+10	1	-1E+10	1	-1E+10	1
4901784	211	C	04/14/2021	10:45	-135.674	43.006	0	1185.00	0	3.1490	0	37.4590	4	29.844	0	1172.256	0	13.3	4	4.2	4	-1E+10	1	-1E+10	1	-1E+10	1	-1E+10	1	-1E+10	1	-1E+10	1
4901784	211	C	04/14/2021	10:45	-135.674	43.006	0	1189.40	0	3.1430	0	37.4600	4	29.845	0	1176.597	0	13.4	4	4.2	4	-1E+10	1	-1E+10	1	-1E+10	1	-1E+10	1	-1E+10	1	-1E+10	1
4901784	211	C	04/14/2021	10:45	-135.674	43.006	0	1194.80	0	3.1340	0	37.4620	4	29.848	0	1181.924	0	13.5	4	4.3	4	-1E+10	1	-1E+10	1	-1E+10	1	-1E+10	1	-1E+10	1	-1E+10	1
4901784	211	C	04/14/2021	10:45	-135.674	43.006	0	1200.10	0	3.1210	0	37.4640	4	29.851	0	1187.151	0	13.7	4	4.3	4	-1E+10	1	-1E+10	1	-1E+10	1	-1E+10	1	-1E+10	1	-1E+10	1
4901784	211	C	04/14/2021	10:45	-135.674	43.006	0	1205.50	0	3.1030	0	37.4680	4	29.856	0	1192.478	0	13.8	4	4.4	4	-1E+10	1	-1E+10	1	-1E+10	1	-1E+10	1	-1E+10	1	-1E+10	1
4901784	211	C	04/14/2021	10:45	-135.674	43.006	0	1210.10	0	3.0990	0	37.4690	4	29.857	0	1197.015	0	13.9	4	4.4	4	-1E+10	1	-1E+10	1	-1E+10	1	-1E+10	1	-1E+10	1	-1E+10	1
4901784	211	C	04/14/2021	10:45	-135.674	43.006	0	1214.60	0	3.0930	0	37.4700	4	29.858	0	1201.454	0	14.0	4	4.4	4	-1E+10	1	-1E+10	1	-1E+10	1	-1E+10	1	-1E+10	1	-1E+10	1
4901784	211	C	04/14/2021	10:45	-135.674	43.006	0	1220.00	0	3.0870	0	37.4720	4	29.860	0	1206.780	0	14.1	4	4.5	4	-1E+10	1	-1E+10	1	-1E+10	1	-1E+10	1	-1E+10	1	-1E+10	1
4901784	211	C	04/14/2021	10:45	-135.674	43.006	0	1225.40	0	3.0760	0	37.4740	4	29.863	0	1212.106	0	14.3	4	4.5	4	-1E+10	1	-1E+10	1	-1E+10	1	-1E+10	1	-1E+10	1	-1E+10	1
4901784	211	C	04/14/2021	10:45	-135.674	43.006	0	1229.90	0	3.0680	0	37.4750	4	29.865	0	1216.544	0	14.4	4	4.6	4	-1E+10	1	-1E+10	1	-1E+10	1	-1E+10	1	-1E+10	1	-1E+10	1
4901784	211	C	04/14/2021	10:45	-135.674	43.006	0	1235.20	0	3.0540	0	37.4780	4	29.869	0	1221.771	0	14.6	4	4.6	4	-1E+10	1	-1E+10	1	-1E+10	1	-1E+10	1	-1E+10	1	-1E+10	1
4901784	211	C	04/14/2021	10:45	-135.674	43.006	0	1240.30	0	3.0350	0	37.4820	4	29.874	0	1226.801	0	14.8	4	4.7	4	-1E+10	1	-1E+10	1	-1E+10	1	-1E+10	1	-1E+10	1	-1E+10	1
4901784	211	C	04/14/2021	10:45	-135.674	43.006	0	1245.20	0	3.0310	0	37.4830	4	29.875	0	1231.633	0	14.9	4	4.7	4	-1E+10	1	-1E+10	1	-1E+10	1	-1E+10	1	-1E+10	1	-1E+10	1
4901784	211	C	04/14/2021	10:45	-135.674	43.006	0	1250.10	0	3.0290	0	37.4830	4	29.875	0	1236.465	0	15.0	4	4.7	4	-1E+10	1	-1E+10	1	-1E+10	1	-1E+10	1	-1E+10	1	-1E+10	1
4901784	211	C	04/14/2021	10:45	-135.674	43.006	0	1255.10	0	3.0150	0	37.4850	4	29.878	0	1241.396	0	15.2	4	4.8	4	-1E+10	1	-1E+10	1	-1E+10	1	-1E+10	1	-1E+10	1	-1E+10	1
4901784	211	C	04/14/2021	10:45	-135.674	43.006	0	1260.20	0	3.0020	0	37.4880	4	29.882	0	1246.425	0	15.3	4	4.8	4	-1E+10	1	-1E+10	1	-1E+10	1	-1E+10	1	-1E+10	1	-1E+10	1
4901784	211	C	04/14/2021	10:45	-135.674	43.006	0	1265.30	0	2.9930	0	37.4900	4	29.884	0	1251.454	0	15.5	4	4.9	4	-1E+10	1	-1E+10	1	-1E+10	1	-1E+10	1	-1E+10	1	-1E+10	1
4901784	211	C	04/14/2021	10:45	-135.674	43.006	0	1270.40	0	2.9830	0	37.4920	4	29.887	0	1256.483	0	15.6	4	4.9	4	-1E+10	1	-1E+10	1	-1E+10	1	-1E+10	1	-1E+10	1	-1E+10	1
4901784	211	C	04/14/2021	10:45	-135.674	43.006	0	1275.60	0	2.9720	0	37.4940	4	29.890	0	1261.611	0	15.8	4	5.0	4	-1E+10	1	-1E+10	1	-1E+10	1	-1E+10	1	-1E+10	1	-1E+10	1
4901784	211	C	04/14/2021	10:45	-135.674	43.006	0	1280.00	0	2.9620	0	37.4960	4	29.892	0	1265.949	0	15.9	4	5.0	4	-1E+10	1	-1E+10	1	-1E+10	1	-1E+10	1	-1E+10	1	-1E+10	1
4901784	211	C	04/14/2021	10:45	-135.674	43.006	0	1284.30	0	2.9600	0	37.4960	4	29.893	0	1270.189	0	16.0	4	5.1	4	-1E+10	1	-1E+10	1	-1E+10	1	-1E+10	1	-1E+10	1	-1E+10	1
4901784	211	C	04/14/2021	10:45	-135.674	43.006	0	1289.60	0	2.9500	0	37.4980	4	29.895	0	1275.415	0	16.2	4	5.1	4	-1E+10	1	-1E+10	1	-1E+10	1	-1E+10	1	-1E+10	1	-1E+10	1
4901784	211	C	04/14/2021	10:45	-135.674	43.006	0	1294.80	0	2.9360	0	37.5010	4	29.899	0	1280.542	0	16.4	4	5.2	4	-1E+10	1	-1E+10	1	-1E+10	1	-1E+10	1	-1E+10	1	-1E+10	1
4901784	211	C	04/14/2021	10:45	-135.674	43.006	0	1300.10	0	2.9260	0	37.5030	4	29.902	0	1285.767	0	16.6	4	5.2	4	-1E+10	1	-1E+10	1	-1E+10	1	-1E+10	1	-1E+10	1	-1E+10	1
4901784	211	C	04/14/2021	10:45	-135.674	43.006	0	1305.40	0	2.9170	0	37.5050	4	29.904	0	1290.993	0	16.8	4	5.3	4	-1E+10	1	-1E+10	1	-1E+10	1	-1E+10	1	-1E+10	1	-1E+10	1
4901784	211	C	04/14/2021	10:45	-135.674	43.006	0	1309.90	0	2.9110	0	37.5060	4	29.906	0	1295.429	0	16.9	4	5.3	4	-1E+10	1	-1E+10	1	-1E+10	1	-1E+10	1	-1E+10	1	-1E+10	1
4901784	211	C	04/14/2021	10:45	-135.674	43.006	0	1314.50	0	2.9050	0	37.5070	4	29.907	0	1299.964	0	17.0	4	5.4	4	-1E+10	1	-1E+10	1	-1E+10	1	-1E+10	1	-1E+10	1	-1E+10	1
4901784	211	C	04/14/2021	10:45	-135.674	43.006	0	1320.20	0	2.8950	0	37.5090	4	29.910	0	1305.583	0	17.2	4	5.4	4	-1E+10	1	-1E+10	1	-1E+10	1	-1E+10	1	-1E+10	1	-1E+10	1
4901784	211	C	04/14/2021	10:45	-135.674	43.006	0	1325.10	0	2.8870	0	37.5110	4	29.912	0	1310.414	0	17.3	4	5.4	4	-1E+10	1	-1E+10	1	-1E+10	1	-1E+10	1	-1E+10	1	-1E+10	1
4901784	211	C	04/14/2021	10:45	-135.674	43.006	0	1329.70	0	2.8860	0	37.5120	4	29.913	0	1314.948	0	17.4	4	5.5	4	-1E+10	1	-1E+10	1	-1E+10	1	-1E+10	1	-1E+10	1	-1E+10	1
4901784	211	C	04/14/2021	10:45	-135.674	43.006	0	1334.40	0	2.8770	0	37.5140	4	29.915	0	1319.582	0	17.5	4	5.5	4	-1E+10	1	-1E+10	1	-1E+10	1	-1E+10	1	-1E+10	1	-1E+10	1
4901784	211	C	04/14/2021	10:45	-135.674	43.006	0	1339.40	0	2.8730	0	37.5150	4	29.917	0	1324.510	0	17.6	4	5.5	4	-1E+10	1	-1E+10	1	-1E+10	1	-1E+10	1	-1E+10	1	-1E+10	1
4901784	211	C	04/14/2021	10:45	-135.674	43.006	0	1344.60	0	2.8680	0	37.5150	4	29.917	0	1329.636	0	17.7	4	5.6	4	-1E+10	1	-1E+10	1	-1E+10	1	-1E+10	1	-1E+10	1	-1E+10	1
4901784	211	C	04/14/2021	10:45	-135.674	43.006	0	1349.80	0	2.8590	0	37.5180	4	29.921	0	1334.762	0	17.9	4	5.6	4	-1E+10	1	-1E+10	1	-1E+10	1	-1E+10	1	-1E+10	1	-1E+10	1
4901784	211	C	04/14/2021	10:45	-135.674	43.006	0	1355.00	0	2.8510	0	37.5190	4	29.922	0	1339.887	0	18.1	4	5.7	4	-1E+10	1	-1E+10	1	-1E+10	1	-1E+10	1	-1E+10	1	-1E+10	1
4901784	211	C	04/14/2021	10:45	-135.674	43.006	0	1360.30	0	2.8450	0	37.5200	4	29.924	0	1345.111	0	18.3	4	5.8	4	-1E+10	1	-1E+10	1	-1E+10	1	-1E+10	1	-1E+10	1	-1E+10	1
4901784	211	C	04/14/2021	10:45	-135.674	43.006	0	1365.60	0	2.8340	0	37.5230	4	29.927	0	1350.335	0	18.6	4	5.9	4	-1E+10	1	-1E+10	1	-1E+10	1	-1E+10	1	-1E+10	1	-1E+10	1
4901784	211	C	04/14/2021	10:45	-135.674	43.006	0	1370.10	0	2.8230	0	37.5250	4	29.930	0	1354.771	0	18.9	4	5.9	4	-1E+10	1	-1E+10	1	-1E+10	1	-1E+10	1	-1E+10	1	-1E+10	1
4901784	211	C	04/14/2021	10:45	-135.674	43.006	0	1374.60	0	2.8160	0	37.5260	4	29.931	0	1359.206	0	19.1	4	6.0	4	-1E+10	1	-1E+10	1	-1E+10	1	-1E+10	1	-1E+10	1	-1E+10	1
4901784	211	C	04/14/2021	10:45	-135.674	43.006	0	1380.00	0	2.8050	0	37.5290	4	29.935	0	1364.528	0	19.4	4	6.1	4	-1E+10	1	-1E+10	1	-1E+10	1	-1E+10	1	-1E+10	1	-1E+10	1
4901784	211	C	04/14/2021	10:45	-135.674	43.006	0	1385.50	0	2.7940	0	37.5310	4	29.937	0	1369.948	0	19.6	4	6.2	4	-1E+10	1	-1E+10	1	-1E+10	1	-1E+10	1	-1E+10	1	-1E+10	1
4901784	211	C	04/14/2021	10:45	-135.674	43.006	0	1390.20	0	2.7840	0	37.5320	4	29.939	0	1374.580	0	19.9	4	6.2	4	-1E+10	1	-1E+10	1	-1E+10	1	-1E+10	1	-1E+10	1	-1E+10	1
4901784	211	C	04/14/2021	10:45	-135.674	43.006	0	1394.90	0	2.7730	0	37.5350	4	29.943	0	1379.212	0	20.1	4	6.3	4	-1E+10	1	-1E+10	1	-1E+10	1	-1E+10	1	-1E+10	1	-1E+10	1
4901784	211	C	04/14/2021	10:45	-135.674	43.006	0	1400.50	0	2.7640	0	37.5360	4	29.944	0	1384.731	0	20.2	4	6.4	4	-1E+10	1	-1E+10	1	-1E+10	1	-1E+10	1	-1E+10	1	-1E+10	1
4901784	211	C	04/14/2021	10:45	-135.674	43.006	0	1405.30	0	2.7550	0	37.5380	4	29.947	0	1389.461	0	20.4	4	6.4	4	-1E+10	1	-1E+10	1	-1E+10	1	-1E+10	1	-1E+10	1	-1E+10	1
4901784	211	C	04/14/2021	10:45	-135.674	43.006	0	1410.10	0	2.7480	0	37.5390	4	29.948	0	1394.191	0	20.6	4	6.5	4	-1E+10	1	-1E+10	1	-1E+10	1	-1E+10	1	-1E+10	1	-1E+10	1
4901784	211	C	04/14/2021	10:45	-135.674	43.006	0	1414.80	0	2.7410	0	37.5410	4	29.951	0	1398.822	0	20.8	4	6.5	4	-1E+10	1	-1E+10	1	-1E+10	1	-1E+10	1	-1E+10	1	-1E+10	1
4901784	211	C	04/14/2021	10:45	-135.674	43.006	0	1419.40	0	2.7320	0	37.5430	4	29.953	0	1403.355	0	21.0	4	6.6	4	-1E+10	1	-1E+10	1	-1E+10	1	-1E+10	1	-1E+10	1	-1E+10	1
4901784	211	C	04/14/2021	10:45	-135.674	43.006	0	1425.00	0	2.7290	0	37.5430	4	29.954	0	1408.873	0	21.2	4	6.7	4	-1E+10	1	-1E+10	1	-1E+10	1	-1E+10	1	-1E+10	1	-1E+10	1
4901784	211	C	04/14/2021	10:45	-135.674	43.006	0	1429.70	0	2.7240	0	37.5440	4	29.955	0	1413.504	0	21.4	4	6.7	4	-1E+10	1	-1E+10	1	-1E+10	1	-1E+10	1	-1E+10	1	-1E+10	1
4901784	211	C	04/14/2021	10:45	-135.674	43.006	0	1434.50	0	2.7100	0	37.5470	4	29.959	0	1418.234	0	21.7	4	6.8	4	-1E+10	1	-1E+10	1	-1E+10	1	-1E+10	1	-1E+10	1	-1E+10	1
4901784	211	C	04/14/2021	10:45	-135.674	43.006	0	1440.20	0	2.6960	0	37.5490	4	29.962	0	1423.850	0	22.0	4	6.9	4	-1E+10	1	-1E+10	1	-1E+10	1	-1E+10	1	-1E+10	1	-1E+10	1
4901784	211	C	04/14/2021	10:45	-135.674	43.006	0	1444.90	0	2.6870	0	37.5510	4	29.964	0	1428.481	0	22.3	4	7.0	4	-1E+10	1	-1E+10	1	-1E+10	1	-1E+10	1	-1E+10	1	-1E+10	1
4901784	211	C	04/14/2021	10:45	-135.674	43.006	0	1449.70	0	2.6750	0	37.5520	4	29.966	0	1433.210	0	22.6	4	7.1	4	-1E+10	1	-1E+10	1	-1E+10	1	-1E+10	1	-1E+10	1	-1E+10	1
4901784	211	C	04/14/2021	10:45	-135.674	43.006	0	1455.40	0	2.6610	0	37.5540	4	29.969	0	1438.826	0	23.0	4	7.2	4	-1E+10	1	-1E+10	1	-1E+10	1	-1E+10	1	-1E+10	1	-1E+10	1
4901784	211	C	04/14/2021	10:45	-135.674	43.006	0	1460.20	0	2.6460	0	37.5570	4	29.973	0	1443.554	0	23.3	4	7.3	4	-1E+10	1	-1E+10	1	-1E+10	1	-1E+10	1	-1E+10	1	-1E+10	1
4901784	211	C	04/14/2021	10:45	-135.674	43.006	0	1464.90	0	2.6410	0	37.5580	4	29.974	0	1448.185	0	23.5	4	7.4	4	-1E+10	1	-1E+10	1	-1E+10	1	-1E+10	1	-1E+10	1	-1E+10	1
4901784	211	C	04/14/2021	10:45	-135.674	43.006	0	1470.60	0	2.6280	0	37.5600	4	29.977	0	1453.800	0	24.0	4	7.5	4	-1E+10	1	-1E+10	1	-1E+10	1	-1E+10	1	-1E+10	1	-1E+10	1
4901784	211	C	04/14/2021	10:45	-135.674	43.006	0	1475.10	0	2.6170	0	37.5630	4	29.980	0	1458.233	0	24.4	4	7.6	4	-1E+10	1	-1E+10	1	-1E+10	1	-1E+10	1	-1E+10	1	-1E+10	1
4901784	211	C	04/14/2021	10:45	-135.674	43.006	0	1479.50	0	2.6120	0	37.5650	4	29.983	0	1462.568	0	24.8	4	7.8	4	-1E+10	1	-1E+10	1	-1E+10	1	-1E+10	1	-1E+10	1	-1E+10	1
4901784	211	C	04/14/2021	10:45	-135.674	43.006	0	1484.80	0	2.6020	0	37.5670	4	29.985	0	1467.789	0	25.1	4	7.9	4	-1E+10	1	-1E+10	1	-1E+10	1	-1E+10	1	-1E+10	1	-1E+10	1
4901784	211	C	04/14/2021	10:45	-135.674	43.006	0	1490.00	0	2.5860	0	37.5700	4	29.989	0	1472.911	0	25.6	4	8.0	4	-1E+10	1	-1E+10	1	-1E+10	1	-1E+10	1	-1E+10	1	-1E+10	1
4901784	211	C	04/14/2021	10:45	-135.674	43.006	0	1495.20	0	2.5760	0	37.5710	4	29.991	0	1478.033	0	26.0	4	8.1	4	-1E+10	1	-1E+10	1	-1E+10	1	-1E+10	1	-1E+10	1	-1E+10	1
4901784	211	C	04/14/2021	10:45	-135.674	43.006	0	1500.60	0	2.5570	0	37.5750	4	29.996	0	1483.352	0	26.3	4	8.2	4	-1E+10	1	-1E+10	1	-1E+10	1	-1E+10	1	-1E+10	1	-1E+10	1
4901784	211	C	04/14/2021	10:45	-135.674	43.006	0	1505.10	0	2.5460	0	37.5760	4	29.998	0	1487.785	0	26.5	4	8.3	4	-1E+10	1	-1E+10	1	-1E+10	1	-1E+10	1	-1E+10	1	-1E+10	1
4901784	211	C	04/14/2021	10:45	-135.674	43.006	0	1509.50	0	2.5390	0	37.5770	4	29.999	0	1492.118	0	26.7	4	8.4	4	-1E+10	1	-1E+10	1	-1E+10	1	-1E+10	1	-1E+10	1	-1E+10	1
4901784	211	C	04/14/2021	10:45	-135.674	43.006	0	1514.80	0	2.5320	0	37.5790	4	30.001	0	1497.339	0	27.0	4	8.4	4	-1E+10	1	-1E+10	1	-1E+10	1	-1E+10	1	-1E+10	1	-1E+10	1
4901784	211	C	04/14/2021	10:45	-135.674	43.006	0	1520.10	0	2.5270	0	37.5790	4	30.002	0	1502.559	0	27.4	4	8.6	4	-1E+10	1	-1E+10	1	-1E+10	1	-1E+10	1	-1E+10	1	-1E+10	1
4901784	211	C	04/14/2021	10:45	-135.674	43.006	0	1525.50	0	2.5160	0	37.5820	4	30.005	0	1507.877	0	27.8	4	8.7	4	-1E+10	1	-1E+10	1	-1E+10	1	-1E+10	1	-1E+10	1	-1E+10	1
4901784	211	C	04/14/2021	10:45	-135.674	43.006	0	1530.00	0	2.5020	0	37.5840	4	30.008	0	1512.309	0	28.1	4	8.8	4	-1E+10	1	-1E+10	1	-1E+10	1	-1E+10	1	-1E+10	1	-1E+10	1
4901784	211	C	04/14/2021	10:45	-135.674	43.006	0	1534.50	0	2.4960	0	37.5850	4	30.010	0	1516.741	0	28.3	4	8.8	4	-1E+10	1	-1E+10	1	-1E+10	1	-1E+10	1	-1E+10	1	-1E+10	1
4901784	211	C	04/14/2021	10:45	-135.674	43.006	0	1539.90	0	2.4930	0	37.5860	4	30.011	0	1522.059	0	28.6	4	8.9	4	-1E+10	1	-1E+10	1	-1E+10	1	-1E+10	1	-1E+10	1	-1E+10	1
4901784	211	C	04/14/2021	10:45	-135.674	43.006	0	1545.40	0	2.4770	0	37.5890	4	30.015	0	1527.475	0	29.0	4	9.1	4	-1E+10	1	-1E+10	1	-1E+10	1	-1E+10	1	-1E+10	1	-1E+10	1
4901784	211	C	04/14/2021	10:45	-135.674	43.006	0	1549.90	0	2.4690	0	37.5910	4	30.017	0	1531.907	0	29.2	4	9.1	4	-1E+10	1	-1E+10	1	-1E+10	1	-1E+10	1	-1E+10	1	-1E+10	1
4901784	211	C	04/14/2021	10:45	-135.674	43.006	0	1554.50	0	2.4650	0	37.5910	4	30.017	0	1536.437	0	29.5	4	9.2	4	-1E+10	1	-1E+10	1	-1E+10	1	-1E+10	1	-1E+10	1	-1E+10	1
4901784	211	C	04/14/2021	10:45	-135.674	43.006	0	1560.00	0	2.4550	0	37.5930	4	30.020	0	1541.853	0	29.7	4	9.3	4	-1E+10	1	-1E+10	1	-1E+10	1	-1E+10	1	-1E+10	1	-1E+10	1
4901784	211	C	04/14/2021	10:45	-135.674	43.006	0	1565.50	0	2.4500	0	37.5940	4	30.021	0	1547.269	0	30.0	4	9.4	4	-1E+10	1	-1E+10	1	-1E+10	1	-1E+10	1	-1E+10	1	-1E+10	1
4901784	211	C	04/14/2021	10:45	-135.674	43.006	0	1570.20	0	2.4440	0	37.5950	4	30.023	0	1551.897	0	30.2	4	9.4	4	-1E+10	1	-1E+10	1	-1E+10	1	-1E+10	1	-1E+10	1	-1E+10	1
4901784	211	C	04/14/2021	10:45	-135.674	43.006	0	1574.70	0	2.4390	0	37.5960	4	30.024	0	1556.328	0	30.5	4	9.5	4	-1E+10	1	-1E+10	1	-1E+10	1	-1E+10	1	-1E+10	1	-1E+10	1
4901784	211	C	04/14/2021	10:45	-135.674	43.006	0	1580.20	0	2.4270	0	37.5980	4	30.027	0	1561.743	0	30.9	4	9.6	4	-1E+10	1	-1E+10	1	-1E+10	1	-1E+10	1	-1E+10	1	-1E+10	1
4901784	211	C	04/14/2021	10:45	-135.674	43.006	0	1584.80	0	2.4190	0	37.5990	4	30.028	0	1566.273	0	31.1	4	9.7	4	-1E+10	1	-1E+10	1	-1E+10	1	-1E+10	1	-1E+10	1	-1E+10	1
4901784	211	C	04/14/2021	10:45	-135.674	43.006	0	1590.00	0	2.4100	0	37.6000	4	30.030	0	1571.393	0	31.6	4	9.8	4	-1E+10	1	-1E+10	1	-1E+10	1	-1E+10	1	-1E+10	1	-1E+10	1
4901784	211	C	04/14/2021	10:45	-135.674	43.006	0	1595.20	0	2.3960	0	37.6020	4	30.033	0	1576.512	0	32.0	4	10.0	4	-1E+10	1	-1E+10	1	-1E+10	1	-1E+10	1	-1E+10	1	-1E+10	1
4901784	211	C	04/14/2021	10:45	-135.674	43.006	0	1600.10	0	2.3880	0	37.6040	4	30.035	0	1581.337	0	32.3	4	10.1	4	-1E+10	1	-1E+10	1	-1E+10	1	-1E+10	1	-1E+10	1	-1E+10	1
4901784	211	C	04/14/2021	10:45	-135.674	43.006	0	1605.00	0	2.3790	0	37.6050	4	30.037	0	1586.161	0	32.7	4	10.2	4	-1E+10	1	-1E+10	1	-1E+10	1	-1E+10	1	-1E+10	1	-1E+10	1
4901784	211	C	04/14/2021	10:45	-135.674	43.006	0	1609.90	0	2.3710	0	37.6070	4	30.039	0	1590.985	0	33.0	4	10.3	4	-1E+10	1	-1E+10	1	-1E+10	1	-1E+10	1	-1E+10	1	-1E+10	1
4901784	211	C	04/14/2021	10:45	-135.674	43.006	0	1614.90	0	2.3610	0	37.6090	4	30.042	0	1595.907	0	33.4	4	10.4	4	-1E+10	1	-1E+10	1	-1E+10	1	-1E+10	1	-1E+10	1	-1E+10	1
4901784	211	C	04/14/2021	10:45	-135.674	43.006	0	1619.90	0	2.3520	0	37.6110	4	30.044	0	1600.830	0	33.7	4	10.5	4	-1E+10	1	-1E+10	1	-1E+10	1	-1E+10	1	-1E+10	1	-1E+10	1
4901784	211	C	04/14/2021	10:45	-135.674	43.006	0	1625.00	0	2.3490	0	37.6120	4	30.045	0	1605.850	0	33.8	4	10.5	4	-1E+10	1	-1E+10	1	-1E+10	1	-1E+10	1	-1E+10	1	-1E+10	1
4901784	211	C	04/14/2021	10:45	-135.674	43.006	0	1630.00	0	2.3480	0	37.6120	4	30.045	0	1610.772	0	34.0	4	10.6	4	-1E+10	1	-1E+10	1	-1E+10	1	-1E+10	1	-1E+10	1	-1E+10	1
4901784	211	C	04/14/2021	10:45	-135.674	43.006	0	1635.20	0	2.3390	0	37.6140	4	30.048	0	1615.891	0	34.4	4	10.7	4	-1E+10	1	-1E+10	1	-1E+10	1	-1E+10	1	-1E+10	1	-1E+10	1
4901784	211	C	04/14/2021	10:45	-135.674	43.006	0	1640.40	0	2.3290	0	37.6150	4	30.050	0	1621.010	0	34.7	4	10.8	4	-1E+10	1	-1E+10	1	-1E+10	1	-1E+10	1	-1E+10	1	-1E+10	1
4901784	211	C	04/14/2021	10:45	-135.674	43.006	0	1645.50	0	2.3240	0	37.6170	4	30.052	0	1626.030	0	34.9	4	10.9	4	-1E+10	1	-1E+10	1	-1E+10	1	-1E+10	1	-1E+10	1	-1E+10	1
4901784	211	C	04/14/2021	10:45	-135.674	43.006	0	1650.60	0	2.3180	0	37.6180	4	30.053	0	1631.050	0	35.2	4	10.9	4	-1E+10	1	-1E+10	1	-1E+10	1	-1E+10	1	-1E+10	1	-1E+10	1
4901784	211	C	04/14/2021	10:45	-135.674	43.006	0	1654.90	0	2.3150	0	37.6180	4	30.053	0	1635.283	0	35.4	4	11.0	4	-1E+10	1	-1E+10	1	-1E+10	1	-1E+10	1	-1E+10	1	-1E+10	1
4901784	211	C	04/14/2021	10:45	-135.674	43.006	0	1659.30	0	2.3090	0	37.6200	4	30.056	0	1639.614	0	35.7	4	11.1	4	-1E+10	1	-1E+10	1	-1E+10	1	-1E+10	1	-1E+10	1	-1E+10	1
4901784	211	C	04/14/2021	10:45	-135.674	43.006	0	1664.40	0	2.3010	0	38.1070	4	30.447	0	1644.633	0	36.0	4	11.2	4	-1E+10	1	-1E+10	1	-1E+10	1	-1E+10	1	-1E+10	1	-1E+10	1
4901784	211	C	04/14/2021	10:45	-135.674	43.006	0	1669.60	0	2.2940	0	38.2130	4	30.533	0	1649.751	0	36.4	4	11.4	4	-1E+10	1	-1E+10	1	-1E+10	1	-1E+10	1	-1E+10	1	-1E+10	1
4901784	211	C	04/14/2021	10:45	-135.674	43.006	0	1674.80	0	2.2840	0	38.2340	4	30.550	0	1654.869	0	36.8	4	11.5	4	-1E+10	1	-1E+10	1	-1E+10	1	-1E+10	1	-1E+10	1	-1E+10	1
4901784	211	C	04/14/2021	10:45	-135.674	43.006	0	1680.00	0	2.2740	0	38.2500	4	30.564	0	1659.987	0	37.2	4	11.6	4	-1E+10	1	-1E+10	1	-1E+10	1	-1E+10	1	-1E+10	1	-1E+10	1
4901784	211	C	04/14/2021	10:45	-135.674	43.006	0	1685.40	0	2.2650	0	38.2640	4	30.576	0	1665.301	0	37.6	4	11.7	4	-1E+10	1	-1E+10	1	-1E+10	1	-1E+10	1	-1E+10	1	-1E+10	1
4901784	211	C	04/14/2021	10:45	-135.674	43.006	0	1690.70	0	2.2590	0	38.2720	4	30.583	0	1670.517	0	37.9	4	11.8	4	-1E+10	1	-1E+10	1	-1E+10	1	-1E+10	1	-1E+10	1	-1E+10	1
4901784	211	C	04/14/2021	10:45	-135.674	43.006	0	1695.00	0	2.2540	0	38.2790	4	30.589	0	1674.749	0	38.2	4	11.9	4	-1E+10	1	-1E+10	1	-1E+10	1	-1E+10	1	-1E+10	1	-1E+10	1
4901784	211	C	04/14/2021	10:45	-135.674	43.006	0	1699.40	0	2.2500	0	38.2860	4	30.595	0	1679.079	0	38.6	4	12.1	4	-1E+10	1	-1E+10	1	-1E+10	1	-1E+10	1	-1E+10	1	-1E+10	1
4901784	211	C	04/14/2021	10:45	-135.674	43.006	0	1704.60	0	2.2340	0	38.2930	4	30.602	0	1684.196	0	39.2	4	12.2	4	-1E+10	1	-1E+10	1	-1E+10	1	-1E+10	1	-1E+10	1	-1E+10	1
4901784	211	C	04/14/2021	10:45	-135.674	43.006	0	1709.90	0	2.2250	0	38.2990	4	30.608	0	1689.412	0	39.6	4	12.4	4	-1E+10	1	-1E+10	1	-1E+10	1	-1E+10	1	-1E+10	1	-1E+10	1
4901784	211	C	04/14/2021	10:45	-135.674	43.006	0	1715.20	0	2.2170	0	38.3030	4	30.612	0	1694.627	0	40.1	4	12.5	4	-1E+10	1	-1E+10	1	-1E+10	1	-1E+10	1	-1E+10	1	-1E+10	1
4901784	211	C	04/14/2021	10:45	-135.674	43.006	0	1720.50	0	2.2070	0	38.3090	4	30.618	0	1699.842	0	40.4	4	12.6	4	-1E+10	1	-1E+10	1	-1E+10	1	-1E+10	1	-1E+10	1	-1E+10	1
4901784	211	C	04/14/2021	10:45	-135.674	43.006	0	1725.00	0	2.2030	0	38.3130	4	30.621	0	1704.270	0	40.6	4	12.7	4	-1E+10	1	-1E+10	1	-1E+10	1	-1E+10	1	-1E+10	1	-1E+10	1
4901784	211	C	04/14/2021	10:45	-135.674	43.006	0	1729.50	0	2.2000	0	38.3150	4	30.623	0	1708.698	0	40.9	4	12.7	4	-1E+10	1	-1E+10	1	-1E+10	1	-1E+10	1	-1E+10	1	-1E+10	1
4901784	211	C	04/14/2021	10:45	-135.674	43.006	0	1735.00	0	2.1940	0	38.3180	4	30.626	0	1714.110	0	41.2	4	12.8	4	-1E+10	1	-1E+10	1	-1E+10	1	-1E+10	1	-1E+10	1	-1E+10	1
4901784	211	C	04/14/2021	10:45	-135.674	43.006	0	1740.40	0	2.1870	0	38.3210	4	30.629	0	1719.423	0	41.5	4	12.9	4	-1E+10	1	-1E+10	1	-1E+10	1	-1E+10	1	-1E+10	1	-1E+10	1
4901784	211	C	04/14/2021	10:45	-135.674	43.006	0	1745.00	0	2.1830	0	38.3220	4	30.631	0	1723.949	0	41.8	4	13.0	4	-1E+10	1	-1E+10	1	-1E+10	1	-1E+10	1	-1E+10	1	-1E+10	1
4901784	211	C	04/14/2021	10:45	-135.674	43.006	0	1749.40	0	2.1770	0	38.3240	4	30.633	0	1728.278	0	42.0	4	13.1	4	-1E+10	1	-1E+10	1	-1E+10	1	-1E+10	1	-1E+10	1	-1E+10	1
4901784	211	C	04/14/2021	10:45	-135.674	43.006	0	1754.70	0	2.1740	0	38.3260	4	30.635	0	1733.492	0	42.3	4	13.2	4	-1E+10	1	-1E+10	1	-1E+10	1	-1E+10	1	-1E+10	1	-1E+10	1
4901784	211	C	04/14/2021	10:45	-135.674	43.006	0	1759.50	0	2.1690	0	38.3270	4	30.636	0	1738.214	0	42.6	4	13.3	4	-1E+10	1	-1E+10	1	-1E+10	1	-1E+10	1	-1E+10	1	-1E+10	1
4901784	211	C	04/14/2021	10:45	-135.674	43.006	0	1765.10	0	2.1610	0	38.3300	4	30.639	0	1743.724	0	43.0	4	13.4	4	-1E+10	1	-1E+10	1	-1E+10	1	-1E+10	1	-1E+10	1	-1E+10	1
4901784	211	C	04/14/2021	10:45	-135.674	43.006	0	1770.70	0	2.1540	0	38.3310	4	30.641	0	1749.233	0	43.4	4	13.5	4	-1E+10	1	-1E+10	1	-1E+10	1	-1E+10	1	-1E+10	1	-1E+10	1
4901784	211	C	04/14/2021	10:45	-135.674	43.006	0	1775.60	0	2.1490	0	38.3330	4	30.643	0	1754.053	0	43.7	4	13.6	4	-1E+10	1	-1E+10	1	-1E+10	1	-1E+10	1	-1E+10	1	-1E+10	1
4901784	211	C	04/14/2021	10:45	-135.674	43.006	0	1780.50	0	2.1450	0	38.3350	4	30.645	0	1758.873	0	44.1	4	13.7	4	-1E+10	1	-1E+10	1	-1E+10	1	-1E+10	1	-1E+10	1	-1E+10	1
4901784	211	C	04/14/2021	10:45	-135.674	43.006	0	1785.50	0	2.1370	0	38.3370	4	30.647	0	1763.792	0	44.5	4	13.9	4	-1E+10	1	-1E+10	1	-1E+10	1	-1E+10	1	-1E+10	1	-1E+10	1
4901784	211	C	04/14/2021	10:45	-135.674	43.006	0	1790.50	0	2.1280	0	38.3400	4	30.650	0	1768.710	0	44.9	4	14.0	4	-1E+10	1	-1E+10	1	-1E+10	1	-1E+10	1	-1E+10	1	-1E+10	1
4901784	211	C	04/14/2021	10:45	-135.674	43.006	0	1795.50	0	2.1240	0	38.3410	4	30.652	0	1773.629	0	45.1	4	14.0	4	-1E+10	1	-1E+10	1	-1E+10	1	-1E+10	1	-1E+10	1	-1E+10	1
4901784	211	C	04/14/2021	10:45	-135.674	43.006	0	1800.50	0	2.1170	0	38.3430	4	30.654	0	1778.547	0	45.4	4	14.1	4	-1E+10	1	-1E+10	1	-1E+10	1	-1E+10	1	-1E+10	1	-1E+10	1
4901784	211	C	04/14/2021	10:45	-135.674	43.006	0	1805.70	0	2.1170	0	38.3430	4	30.654	0	1783.661	0	45.6	4	14.2	4	-1E+10	1	-1E+10	1	-1E+10	1	-1E+10	1	-1E+10	1	-1E+10	1
4901784	211	C	04/14/2021	10:45	-135.674	43.006	0	1809.90	0	2.1160	0	38.3430	4	30.654	0	1787.793	0	46.0	4	14.3	4	-1E+10	1	-1E+10	1	-1E+10	1	-1E+10	1	-1E+10	1	-1E+10	1
4901784	211	C	04/14/2021	10:45	-135.674	43.006	0	1814.30	0	2.1040	0	38.3460	4	30.657	0	1792.120	0	46.4	4	14.4	4	-1E+10	1	-1E+10	1	-1E+10	1	-1E+10	1	-1E+10	1	-1E+10	1
4901784	211	C	04/14/2021	10:45	-135.674	43.006	0	1819.50	0	2.0980	0	38.3480	4	30.660	0	1797.235	0	46.6	4	14.5	4	-1E+10	1	-1E+10	1	-1E+10	1	-1E+10	1	-1E+10	1	-1E+10	1
4901784	211	C	04/14/2021	10:45	-135.674	43.006	0	1824.70	0	2.0970	0	38.3490	4	30.661	0	1802.349	0	46.8	4	14.6	4	-1E+10	1	-1E+10	1	-1E+10	1	-1E+10	1	-1E+10	1	-1E+10	1
4901784	211	C	04/14/2021	10:45	-135.674	43.006	0	1830.00	0	2.0940	0	38.3500	4	30.662	0	1807.562	0	47.1	4	14.6	4	-1E+10	1	-1E+10	1	-1E+10	1	-1E+10	1	-1E+10	1	-1E+10	1
4901784	211	C	04/14/2021	10:45	-135.674	43.006	0	1835.30	0	2.0880	0	38.3510	4	30.663	0	1812.774	0	47.4	4	14.7	4	-1E+10	1	-1E+10	1	-1E+10	1	-1E+10	1	-1E+10	1	-1E+10	1
4901784	211	C	04/14/2021	10:45	-135.674	43.006	0	1840.60	0	2.0830	0	38.3520	4	30.664	0	1817.986	0	47.8	4	14.9	4	-1E+10	1	-1E+10	1	-1E+10	1	-1E+10	1	-1E+10	1	-1E+10	1
4901784	211	C	04/14/2021	10:45	-135.674	43.006	0	1845.10	0	2.0740	0	38.3540	4	30.667	0	1822.412	0	48.1	4	15.0	4	-1E+10	1	-1E+10	1	-1E+10	1	-1E+10	1	-1E+10	1	-1E+10	1
4901784	211	C	04/14/2021	10:45	-135.674	43.006	0	1849.60	0	2.0700	0	38.3550	4	30.668	0	1826.837	0	48.4	4	15.0	4	-1E+10	1	-1E+10	1	-1E+10	1	-1E+10	1	-1E+10	1	-1E+10	1
4901784	211	C	04/14/2021	10:45	-135.674	43.006	0	1855.00	0	2.0670	0	38.3560	4	30.669	0	1832.147	0	48.7	4	15.1	4	-1E+10	1	-1E+10	1	-1E+10	1	-1E+10	1	-1E+10	1	-1E+10	1
4901784	211	C	04/14/2021	10:45	-135.674	43.006	0	1860.40	0	2.0620	0	38.3580	4	30.671	0	1837.458	0	49.0	4	15.2	4	-1E+10	1	-1E+10	1	-1E+10	1	-1E+10	1	-1E+10	1	-1E+10	1
4901784	211	C	04/14/2021	10:45	-135.674	43.006	0	1864.90	0	2.0610	0	38.3580	4	30.671	0	1841.883	0	49.2	4	15.3	4	-1E+10	1	-1E+10	1	-1E+10	1	-1E+10	1	-1E+10	1	-1E+10	1
4901784	211	C	04/14/2021	10:45	-135.674	43.006	0	1869.40	0	2.0590	0	38.3590	4	30.672	0	1846.308	0	49.5	4	15.4	4	-1E+10	1	-1E+10	1	-1E+10	1	-1E+10	1	-1E+10	1	-1E+10	1
4901784	211	C	04/14/2021	10:45	-135.674	43.006	0	1874.70	0	2.0520	0	38.3610	4	30.675	0	1851.519	0	50.0	4	15.6	4	-1E+10	1	-1E+10	1	-1E+10	1	-1E+10	1	-1E+10	1	-1E+10	1
4901784	211	C	04/14/2021	10:45	-135.674	43.006	0	1880.00	0	2.0460	0	38.3620	4	30.676	0	1856.730	0	50.5	4	15.7	4	-1E+10	1	-1E+10	1	-1E+10	1	-1E+10	1	-1E+10	1	-1E+10	1
4901784	211	C	04/14/2021	10:45	-135.674	43.006	0	1885.40	0	2.0380	0	38.3640	4	30.678	0	1862.040	0	50.9	4	15.8	4	-1E+10	1	-1E+10	1	-1E+10	1	-1E+10	1	-1E+10	1	-1E+10	1
4901784	211	C	04/14/2021	10:45	-135.674	43.006	0	1889.80	0	2.0330	0	38.3650	4	30.680	0	1866.366	0	51.1	4	15.9	4	-1E+10	1	-1E+10	1	-1E+10	1	-1E+10	1	-1E+10	1	-1E+10	1
4901784	211	C	04/14/2021	10:45	-135.674	43.006	0	1894.10	0	2.0300	0	38.3660	4	30.681	0	1870.594	0	51.3	4	15.9	4	-1E+10	1	-1E+10	1	-1E+10	1	-1E+10	1	-1E+10	1	-1E+10	1
4901784	211	C	04/14/2021	10:45	-135.674	43.006	0	1899.40	0	2.0270	0	38.3670	4	30.682	0	1875.805	0	51.5	4	16.0	4	-1E+10	1	-1E+10	1	-1E+10	1	-1E+10	1	-1E+10	1	-1E+10	1
4901784	211	C	04/14/2021	10:45	-135.674	43.006	0	1904.90	0	2.0240	0	38.3680	4	30.683	0	1881.212	0	51.8	4	16.1	4	-1E+10	1	-1E+10	1	-1E+10	1	-1E+10	1	-1E+10	1	-1E+10	1
4901784	211	C	04/14/2021	10:45	-135.674	43.006	0	1910.60	0	2.0190	0	38.3690	4	30.684	0	1886.816	0	52.1	4	16.2	4	-1E+10	1	-1E+10	1	-1E+10	1	-1E+10	1	-1E+10	1	-1E+10	1
4901784	211	C	04/14/2021	10:45	-135.674	43.006	0	1915.40	0	2.0150	0	38.3690	4	30.685	0	1891.535	0	52.3	4	16.2	4	-1E+10	1	-1E+10	1	-1E+10	1	-1E+10	1	-1E+10	1	-1E+10	1
4901784	211	C	04/14/2021	10:45	-135.674	43.006	0	1920.40	0	2.0080	0	38.3700	4	30.686	0	1896.450	0	52.7	4	16.4	4	-1E+10	1	-1E+10	1	-1E+10	1	-1E+10	1	-1E+10	1	-1E+10	1
4901784	211	C	04/14/2021	10:45	-135.674	43.006	0	1925.40	0	2.0000	0	38.3720	4	30.688	0	1901.366	0	53.2	4	16.5	4	-1E+10	1	-1E+10	1	-1E+10	1	-1E+10	1	-1E+10	1	-1E+10	1
4901784	211	C	04/14/2021	10:45	-135.674	43.006	0	1930.40	0	1.9980	0	38.3730	4	30.689	0	1906.281	0	53.7	4	16.7	4	-1E+10	1	-1E+10	1	-1E+10	1	-1E+10	1	-1E+10	1	-1E+10	1
4901784	211	C	04/14/2021	10:45	-135.674	43.006	0	1935.40	0	1.9920	0	38.3750	4	30.692	0	1911.196	0	54.1	4	16.8	4	-1E+10	1	-1E+10	1	-1E+10	1	-1E+10	1	-1E+10	1	-1E+10	1
4901784	211	C	04/14/2021	10:45	-135.674	43.006	0	1940.50	0	1.9880	0	38.3760	4	30.693	0	1916.209	0	54.3	4	16.9	4	-1E+10	1	-1E+10	1	-1E+10	1	-1E+10	1	-1E+10	1	-1E+10	1
4901784	211	C	04/14/2021	10:45	-135.674	43.006	0	1945.60	0	1.9830	0	38.3770	4	30.694	0	1921.222	0	54.6	4	16.9	4	-1E+10	1	-1E+10	1	-1E+10	1	-1E+10	1	-1E+10	1	-1E+10	1
4901784	211	C	04/14/2021	10:45	-135.674	43.006	0	1950.70	0	1.9790	0	38.3780	4	30.695	0	1926.235	0	54.8	4	17.0	4	-1E+10	1	-1E+10	1	-1E+10	1	-1E+10	1	-1E+10	1	-1E+10	1
4901784	211	C	04/14/2021	10:45	-135.674	43.006	0	1955.00	0	1.9770	0	38.3790	4	30.696	0	1930.462	0	54.9	4	17.0	4	-1E+10	1	-1E+10	1	-1E+10	1	-1E+10	1	-1E+10	1	-1E+10	1
4901784	211	C	04/14/2021	10:45	-135.674	43.006	0	1959.30	0	1.9740	0	38.3800	4	30.697	0	1934.689	0	55.1	4	17.1	4	-1E+10	1	-1E+10	1	-1E+10	1	-1E+10	1	-1E+10	1	-1E+10	1
4901784	211	C	04/14/2021	10:45	-135.674	43.006	0	1964.50	0	1.9720	0	38.3800	4	30.698	0	1939.800	0	55.2	4	17.1	4	-1E+10	1	-1E+10	1	-1E+10	1	-1E+10	1	-1E+10	1	-1E+10	1
4901784	211	C	04/14/2021	10:45	-135.674	43.006	0	1969.70	0	1.9720	0	38.3800	4	30.698	0	1944.910	0	55.4	4	17.2	4	-1E+10	1	-1E+10	1	-1E+10	1	-1E+10	1	-1E+10	1	-1E+10	1
4901784	211	C	04/14/2021	10:45	-135.674	43.006	0	1975.00	0	1.9700	0	38.3810	4	30.699	0	1950.120	0	55.7	4	17.3	4	-1E+10	1	-1E+10	1	-1E+10	1	-1E+10	1	-1E+10	1	-1E+10	1
4901784	211	C	04/14/2021	10:45	-135.674	43.006	0	1980.30	0	1.9640	0	38.3820	4	30.700	0	1955.328	0	56.0	4	17.4	4	-1E+10	1	-1E+10	1	-1E+10	1	-1E+10	1	-1E+10	1	-1E+10	1
4901784	211	C	04/14/2021	10:45	-135.674	43.006	0	1984.80	0	1.9610	0	38.3830	4	30.701	0	1959.751	0	56.2	4	17.4	4	-1E+10	1	-1E+10	1	-1E+10	1	-1E+10	1	-1E+10	1	-1E+10	1
4901784	211	C	04/14/2021	10:45	-135.674	43.006	0	1990.00	0	1.9570	0	38.3840	4	30.702	0	1964.861	0	56.4	4	17.5	4	-1E+10	1	-1E+10	1	-1E+10	1	-1E+10	1	-1E+10	1	-1E+10	1
4901784	211	C	04/14/2021	10:45	-135.674	43.006	0	1995.30	0	1.9560	0	38.3850	4	30.703	0	1970.070	0	56.6	4	17.5	4	-1E+10	1	-1E+10	1	-1E+10	1	-1E+10	1	-1E+10	1	-1E+10	1
4901784	211	C	04/14/2021	10:45	-135.674	43.006	0	2000.60	0	1.9530	0	38.3850	4	30.703	0	1975.278	0	56.7	4	17.6	4	-1E+10	1	-1E+10	1	-1E+10	1	-1E+10	1	-1E+10	1	-1E+10	1
4901784	211	C	04/14/2021	10:45	-135.674	43.006	0	2006.10	0	1.9480	0	38.3870	4	30.706	0	1980.683	0	55.8	4	17.3	4	-1E+10	1	-1E+10	1	-1E+10	1	-1E+10	1	-1E+10	1	-1E+10	1
4901784	211	C	04/14/2021	10:45	-135.674	43.006	0																										
4901784	212	C	04/24/2021	10:46	-135.794	42.948	0	3.00	0	11.5950	0	35.2520	4	26.862	0	2.976	0	264.3	4	99.7	4	-1E+10	1	-1E+10	1	-1E+10	1	-1E+10	1	-1E+10	1	-1E+10	1
4901784	212	C	04/24/2021	10:46	-135.794	42.948	0	4.70	0	11.5940	0	35.2530	4	26.863	0	4.663	0	264.5	4	99.8	4	-1E+10	1	-1E+10	1	-1E+10	1	-1E+10	1	-1E+10	1	-1E+10	1
4901784	212	C	04/24/2021	10:46	-135.794	42.948	0	6.60	0	11.5950	0	35.2540	4	26.864	0	6.548	0	264.4	4	99.8	4	-1E+10	1	-1E+10	1	-1E+10	1	-1E+10	1	-1E+10	1	-1E+10	1
4901784	212	C	04/24/2021	10:46	-135.794	42.948	0	8.40	0	11.5940	0	35.2550	4	26.865	0	8.333	0	264.5	4	99.8	4	-1E+10	1	-1E+10	1	-1E+10	1	-1E+10	1	-1E+10	1	-1E+10	1
4901784	212	C	04/24/2021	10:46	-135.794	42.948	0	10.40	0	11.5940	0	35.2550	4	26.865	0	10.317	0	264.2	4	99.7	4	-1E+10	1	-1E+10	1	-1E+10	1	-1E+10	1	-1E+10	1	-1E+10	1
4901784	212	C	04/24/2021	10:46	-135.794	42.948	0	12.80	0	11.5950	0	35.2540	4	26.864	0	12.698	0	264.2	4	99.7	4	-1E+10	1	-1E+10	1	-1E+10	1	-1E+10	1	-1E+10	1	-1E+10	1
4901784	212	C	04/24/2021	10:46	-135.794	42.948	0	14.80	0	11.5960	0	35.2520	4	26.863	0	14.682	0	264.2	4	99.7	4	-1E+10	1	-1E+10	1	-1E+10	1	-1E+10	1	-1E+10	1	-1E+10	1
4901784	212	C	04/24/2021	10:46	-135.794	42.948	0	16.40	0	11.5960	0	35.2510	4	26.862	0	16.269	0	264.2	4	99.7	4	-1E+10	1	-1E+10	1	-1E+10	1	-1E+10	1	-1E+10	1	-1E+10	1
4901784	212	C	04/24/2021	10:46	-135.794	42.948	0	18.00	0	11.5930	0	35.2480	4	26.860	0	17.856	0	264.2	4	99.7	4	-1E+10	1	-1E+10	1	-1E+10	1	-1E+10	1	-1E+10	1	-1E+10	1
4901784	212	C	04/24/2021	10:46	-135.794	42.948	0	19.50	0	11.5650	0	35.2470	4	26.865	0	19.344	0	264.4	4	99.7	4	-1E+10	1	-1E+10	1	-1E+10	1	-1E+10	1	-1E+10	1	-1E+10	1
4901784	212	C	04/24/2021	10:46	-135.794	42.948	0	21.00	0	11.5090	0	35.2440	4	26.873	0	20.832	0	264.6	4	99.7	4	-1E+10	1	-1E+10	1	-1E+10	1	-1E+10	1	-1E+10	1	-1E+10	1
4901784	212	C	04/24/2021	10:46	-135.794	42.948	0	22.60	0	11.3400	0	35.2700	4	26.924	0	22.420	0	264.5	4	99.3	4	-1E+10	1	-1E+10	1	-1E+10	1	-1E+10	1	-1E+10	1	-1E+10	1
4901784	212	C	04/24/2021	10:46	-135.794	42.948	0	24.20	0	11.1750	0	35.2650	4	26.951	0	24.007	0	266.0	4	99.5	4	-1E+10	1	-1E+10	1	-1E+10	1	-1E+10	1	-1E+10	1	-1E+10	1
4901784	212	C	04/24/2021	10:46	-135.794	42.948	0	25.80	0	11.1150	0	35.2620	4	26.960	0	25.594	0	266.5	4	99.5	4	-1E+10	1	-1E+10	1	-1E+10	1	-1E+10	1	-1E+10	1	-1E+10	1
4901784	212	C	04/24/2021	10:46	-135.794	42.948	0	27.40	0	11.0360	0	35.2640	4	26.976	0	27.181	0	266.8	4	99.5	4	-1E+10	1	-1E+10	1	-1E+10	1	-1E+10	1	-1E+10	1	-1E+10	1
4901784	212	C	04/24/2021	10:46	-135.794	42.948	0	29.10	0	10.9600	0	35.2660	4	26.991	0	28.867	0	267.3	4	99.5	4	-1E+10	1	-1E+10	1	-1E+10	1	-1E+10	1	-1E+10	1	-1E+10	1
4901784	212	C	04/24/2021	10:46	-135.794	42.948	0	30.80	0	10.9180	0	35.2670	4	27.000	0	30.553	0	266.9	4	99.3	4	-1E+10	1	-1E+10	1	-1E+10	1	-1E+10	1	-1E+10	1	-1E+10	1
4901784	212	C	04/24/2021	10:46	-135.794	42.948	0	32.50	0	10.8930	0	35.2640	4	27.002	0	32.240	0	266.1	4	99.0	4	-1E+10	1	-1E+10	1	-1E+10	1	-1E+10	1	-1E+10	1	-1E+10	1
4901784	212	C	04/24/2021	10:46	-135.794	42.948	0	34.20	0	10.8420	0	35.2670	4	27.013	0	33.926	0	264.8	4	98.4	4	-1E+10	1	-1E+10	1	-1E+10	1	-1E+10	1	-1E+10	1	-1E+10	1
4901784	212	C	04/24/2021	10:46	-135.794	42.948	0	35.90	0	10.8010	0	35.2600	4	27.015	0	35.612	0	263.6	4	97.8	4	-1E+10	1	-1E+10	1	-1E+10	1	-1E+10	1	-1E+10	1	-1E+10	1
4901784	212	C	04/24/2021	10:46	-135.794	42.948	0	37.60	0	10.7280	0	35.2560	4	27.025	0	37.298	0	263.2	4	97.5	4	-1E+10	1	-1E+10	1	-1E+10	1	-1E+10	1	-1E+10	1	-1E+10	1
4901784	212	C	04/24/2021	10:46	-135.794	42.948	0	39.40	0	10.6450	0	35.2590	4	27.043	0	39.084	0	263.3	4	97.4	4	-1E+10	1	-1E+10	1	-1E+10	1	-1E+10	1	-1E+10	1	-1E+10	1
4901784	212	C	04/24/2021	10:46	-135.794	42.948	0	41.20	0	10.6120	0	35.2630	4	27.052	0	40.869	0	262.9	4	97.2	4	-1E+10	1	-1E+10	1	-1E+10	1	-1E+10	1	-1E+10	1	-1E+10	1
4901784	212	C	04/24/2021	10:46	-135.794	42.948	0	42.90	0	10.5940	0	35.2650	4	27.056	0	42.555	0	262.3	4	96.9	4	-1E+10	1	-1E+10	1	-1E+10	1	-1E+10	1	-1E+10	1	-1E+10	1
4901784	212	C	04/24/2021	10:46	-135.794	42.948	0	44.60	0	10.5590	0	35.2680	4	27.065	0	44.242	0	262.3	4	96.8	4	-1E+10	1	-1E+10	1	-1E+10	1	-1E+10	1	-1E+10	1	-1E+10	1
4901784	212	C	04/24/2021	10:46	-135.794	42.948	0	46.40	0	10.5040	0	35.2580	4	27.067	0	46.027	0	262.1	4	96.7	4	-1E+10	1	-1E+10	1	-1E+10	1	-1E+10	1	-1E+10	1	-1E+10	1
4901784	212	C	04/24/2021	10:46	-135.794	42.948	0	48.30	0	10.5010	0	35.2610	4	27.070	0	47.911	0	261.4	4	96.4	4	-1E+10	1	-1E+10	1	-1E+10	1	-1E+10	1	-1E+10	1	-1E+10	1
4901784	212	C	04/24/2021	10:46	-135.794	42.948	0	50.00	0	10.5040	0	35.2660	4	27.073	0	49.598	0	260.6	4	96.1	4	-1E+10	1	-1E+10	1	-1E+10	1	-1E+10	1	-1E+10	1	-1E+10	1
4901784	212	C	04/24/2021	10:46	-135.794	42.948	0	51.80	0	10.5040	0	35.2670	4	27.074	0	51.383	0	260.3	4	96.0	4	-1E+10	1	-1E+10	1	-1E+10	1	-1E+10	1	-1E+10	1	-1E+10	1
4901784	212	C	04/24/2021	10:46	-135.794	42.948	0	53.60	0	10.5020	0	35.2670	4	27.075	0	53.168	0	260.3	4	96.0	4	-1E+10	1	-1E+10	1	-1E+10	1	-1E+10	1	-1E+10	1	-1E+10	1
4901784	212	C	04/24/2021	10:46	-135.794	42.948	0	55.30	0	10.4680	0	35.2670	4	27.081	0	54.854	0	260.5	4	96.0	4	-1E+10	1	-1E+10	1	-1E+10	1	-1E+10	1	-1E+10	1	-1E+10	1
4901784	212	C	04/24/2021	10:46	-135.794	42.948	0	57.10	0	10.4520	0	35.2660	4	27.083	0	56.639	0	260.8	4	96.1	4	-1E+10	1	-1E+10	1	-1E+10	1	-1E+10	1	-1E+10	1	-1E+10	1
4901784	212	C	04/24/2021	10:46	-135.794	42.948	0	59.00	0	10.4350	0	35.2650	4	27.085	0	58.524	0	261.4	4	96.3	4	-1E+10	1	-1E+10	1	-1E+10	1	-1E+10	1	-1E+10	1	-1E+10	1
4901784	212	C	04/24/2021	10:46	-135.794	42.948	0	60.70	0	10.4150	0	35.2630	4	27.087	0	60.210	0	262.2	4	96.5	4	-1E+10	1	-1E+10	1	-1E+10	1	-1E+10	1	-1E+10	1	-1E+10	1
4901784	212	C	04/24/2021	10:46	-135.794	42.948	0	62.40	0	10.3850	0	35.2620	4	27.091	0	61.896	0	262.9	4	96.7	4	-1E+10	1	-1E+10	1	-1E+10	1	-1E+10	1	-1E+10	1	-1E+10	1
4901784	212	C	04/24/2021	10:46	-135.794	42.948	0	64.30	0	10.3280	0	35.2600	4	27.100	0	63.780	0	264.0	4	97.0	4	-1E+10	1	-1E+10	1	-1E+10	1	-1E+10	1	-1E+10	1	-1E+10	1
4901784	212	C	04/24/2021	10:46	-135.794	42.948	0	66.00	0	10.3130	0	35.2610	4	27.103	0	65.466	0	263.8	4	96.9	4	-1E+10	1	-1E+10	1	-1E+10	1	-1E+10	1	-1E+10	1	-1E+10	1
4901784	212	C	04/24/2021	10:46	-135.794	42.948	0	67.80	0	10.3050	0	35.2610	4	27.105	0	67.251	0	263.4	4	96.7	4	-1E+10	1	-1E+10	1	-1E+10	1	-1E+10	1	-1E+10	1	-1E+10	1
4901784	212	C	04/24/2021	10:46	-135.794	42.948	0	69.60	0	10.2830	0	35.2640	4	27.111	0	69.036	0	262.8	4	96.5	4	-1E+10	1	-1E+10	1	-1E+10	1	-1E+10	1	-1E+10	1	-1E+10	1
4901784	212	C	04/24/2021	10:46	-135.794	42.948	0	71.40	0	10.2950	0	35.2660	4	27.111	0	70.822	0	263.0	4	96.6	4	-1E+10	1	-1E+10	1	-1E+10	1	-1E+10	1	-1E+10	1	-1E+10	1
4901784	212	C	04/24/2021	10:46	-135.794	42.948	0	73.20	0	10.2890	0	35.2660	4	27.112	0	72.607	0	262.1	4	96.2	4	-1E+10	1	-1E+10	1	-1E+10	1	-1E+10	1	-1E+10	1	-1E+10	1
4901784	212	C	04/24/2021	10:46	-135.794	42.948	0	75.00	0	10.2620	0	35.2640	4	27.115	0	74.392	0	261.1	4	95.8	4	-1E+10	1	-1E+10	1	-1E+10	1	-1E+10	1	-1E+10	1	-1E+10	1
4901784	212	C	04/24/2021	10:46	-135.794	42.948	0	76.80	0	10.2290	0	35.2590	4	27.117	0	76.177	0	259.9	4	95.3	4	-1E+10	1	-1E+10	1	-1E+10	1	-1E+10	1	-1E+10	1	-1E+10	1
4901784	212	C	04/24/2021	10:46	-135.794	42.948	0	78.60	0	10.1660	0	35.2560	4	27.125	0	77.962	0	259.1	4	94.9	4	-1E+10	1	-1E+10	1	-1E+10	1	-1E+10	1	-1E+10	1	-1E+10	1
4901784	212	C	04/24/2021	10:46	-135.794	42.948	0	80.40	0	10.1460	0	35.2550	4	27.128	0	79.747	0	258.5	4	94.6	4	-1E+10	1	-1E+10	1	-1E+10	1	-1E+10	1	-1E+10	1	-1E+10	1
4901784	212	C	04/24/2021	10:46	-135.794	42.948	0	82.30	0	10.1240	0	35.2520	4	27.130	0	81.631	0	257.5	4	94.2	4	-1E+10	1	-1E+10	1	-1E+10	1	-1E+10	1	-1E+10	1	-1E+10	1
4901784	212	C	04/24/2021	10:46	-135.794	42.948	0	84.00	0	10.0980	0	35.2490	4	27.132	0	83.317	0	256.6	4	93.8	4	-1E+10	1	-1E+10	1	-1E+10	1	-1E+10	1	-1E+10	1	-1E+10	1
4901784	212	C	04/24/2021	10:46	-135.794	42.948	0	85.90	0	10.0660	0	35.2480	4	27.136	0	85.201	0	255.7	4	93.4	4	-1E+10	1	-1E+10	1	-1E+10	1	-1E+10	1	-1E+10	1	-1E+10	1
4901784	212	C	04/24/2021	10:46	-135.794	42.948	0	87.70	0	10.0280	0	35.2500	4	27.145	0	86.986	0	254.7	4	93.0	4	-1E+10	1	-1E+10	1	-1E+10	1	-1E+10	1	-1E+10	1	-1E+10	1
4901784	212	C	04/24/2021	10:46	-135.794	42.948	0	89.60	0	10.0000	0	35.2520	4	27.151	0	88.870	0	254.2	4	92.7	4	-1E+10	1	-1E+10	1	-1E+10	1	-1E+10	1	-1E+10	1	-1E+10	1
4901784	212	C	04/24/2021	10:46	-135.794	42.948	0	91.40	0	9.9770	0	35.2520	4	27.155	0	90.655	0	253.8	4	92.5	4	-1E+10	1	-1E+10	1	-1E+10	1	-1E+10	1	-1E+10	1	-1E+10	1
4901784	212	C	04/24/2021	10:46	-135.794	42.948	0	93.30	0	9.9710	0	35.2510	4	27.155	0	92.539	0	252.9	4	92.2	4	-1E+10	1	-1E+10	1	-1E+10	1	-1E+10	1	-1E+10	1	-1E+10	1
4901784	212	C	04/24/2021	10:46	-135.794	42.948	0	95.10	0	9.9450	0	35.2520	4	27.161	0	94.324	0	251.8	4	91.8	4	-1E+10	1	-1E+10	1	-1E+10	1	-1E+10	1	-1E+10	1	-1E+10	1
4901784	212	C	04/24/2021	10:46	-135.794	42.948	0	97.00	0	9.9330	0	35.2610	4	27.170	0	96.208	0	250.5	4	91.3	4	-1E+10	1	-1E+10	1	-1E+10	1	-1E+10	1	-1E+10	1	-1E+10	1
4901784	212	C	04/24/2021	10:46	-135.794	42.948	0	98.80	0	9.9500	0	35.2800	4	27.182	0	97.993	0	248.9	4	90.7	4	-1E+10	1	-1E+10	1	-1E+10	1	-1E+10	1	-1E+10	1	-1E+10	1
4901784	212	C	04/24/2021	10:46	-135.794	42.948	0	102.50	0	9.8750	0	35.2810	4	27.195	0	101.662	0	246.9	4	89.8	4	-1E+10	1	-1E+10	1	-1E+10	1	-1E+10	1	-1E+10	1	-1E+10	1
4901784	212	C	04/24/2021	10:46	-135.794	42.948	0	105.20	0	9.8550	0	35.3000	4	27.214	0	104.339	0	243.8	4	88.7	4	-1E+10	1	-1E+10	1	-1E+10	1	-1E+10	1	-1E+10	1	-1E+10	1
4901784	212	C	04/24/2021	10:46	-135.794	42.948	0	108.40	0	9.8640	0	35.3380	4	27.242	0	107.512	0	239.2	4	87.1	4	-1E+10	1	-1E+10	1	-1E+10	1	-1E+10	1	-1E+10	1	-1E+10	1
4901784	212	C	04/24/2021	10:46	-135.794	42.948	0	110.10	0	9.8510	0	35.3710	4	27.270	0	109.198	0	236.0	4	85.9	4	-1E+10	1	-1E+10	1	-1E+10	1	-1E+10	1	-1E+10	1	-1E+10	1
4901784	212	C	04/24/2021	10:46	-135.794	42.948	0	112.40	0	9.7900	0	35.4390	4	27.333	0	111.478	0	232.8	4	84.7	4	-1E+10	1	-1E+10	1	-1E+10	1	-1E+10	1	-1E+10	1	-1E+10	1
4901784	212	C	04/24/2021	10:46	-135.794	42.948	0	115.50	0	9.7420	0	35.4710	4	27.367	0	114.552	0	229.6	4	83.4	4	-1E+10	1	-1E+10	1	-1E+10	1	-1E+10	1	-1E+10	1	-1E+10	1
4901784	212	C	04/24/2021	10:46	-135.794	42.948	0	117.80	0	9.6600	0	35.5160	4	27.416	0	116.833	0	227.3	4	82.5	4	-1E+10	1	-1E+10	1	-1E+10	1	-1E+10	1	-1E+10	1	-1E+10	1
4901784	212	C	04/24/2021	10:46	-135.794	42.948	0	120.30	0	9.6250	0	35.5270	4	27.430	0	119.311	0	225.0	4	81.6	4	-1E+10	1	-1E+10	1	-1E+10	1	-1E+10	1	-1E+10	1	-1E+10	1
4901784	212	C	04/24/2021	10:46	-135.794	42.948	0	122.80	0	9.5750	0	35.5500	4	27.457	0	121.790	0	222.0	4	80.4	4	-1E+10	1	-1E+10	1	-1E+10	1	-1E+10	1	-1E+10	1	-1E+10	1
4901784	212	C	04/24/2021	10:46	-135.794	42.948	0	124.60	0	9.5530	0	35.5530	4	27.463	0	123.575	0	219.5	4	79.5	4	-1E+10	1	-1E+10	1	-1E+10	1	-1E+10	1	-1E+10	1	-1E+10	1
4901784	212	C	04/24/2021	10:46	-135.794	42.948	0	127.80	0	9.3970	0	35.6640	4	27.576	0	126.747	0	214.5	4	77.5	4	-1E+10	1	-1E+10	1	-1E+10	1	-1E+10	1	-1E+10	1	-1E+10	1
4901784	212	C	04/24/2021	10:46	-135.794	42.948	0	130.20	0	9.2800	0	35.7310	4	27.648	0	129.127	0	212.3	4	76.5	4	-1E+10	1	-1E+10	1	-1E+10	1	-1E+10	1	-1E+10	1	-1E+10	1
4901784	212	C	04/24/2021	10:46	-135.794	42.948	0	132.40	0	9.1170	0	35.8290	4	27.751	0	131.308	0	210.9	4	75.8	4	-1E+10	1	-1E+10	1	-1E+10	1	-1E+10	1	-1E+10	1	-1E+10	1
4901784	212	C	04/24/2021	10:46	-135.794	42.948	0	134.80	0	9.0790	0	35.8530	4	27.776	0	133.687	0	209.3	4	75.2	4	-1E+10	1	-1E+10	1	-1E+10	1	-1E+10	1	-1E+10	1	-1E+10	1
4901784	212	C	04/24/2021	10:46	-135.794	42.948	0	137.00	0	9.0300	0	35.9020	4	27.823	0	135.869	0	206.8	4	74.2	4	-1E+10	1	-1E+10	1	-1E+10	1	-1E+10	1	-1E+10	1	-1E+10	1
4901784	212	C	04/24/2021	10:46	-135.794	42.948	0	140.00	0	8.9140	0	35.9640	4	27.890	0	138.843	0	203.3	4	72.8	4	-1E+10	1	-1E+10	1	-1E+10	1	-1E+10	1	-1E+10	1	-1E+10	1
4901784	212	C	04/24/2021	10:46	-135.794	42.948	0	142.30	0	8.8380	0	35.9790	4	27.914	0	141.123	0	200.6	4	71.7	4	-1E+10	1	-1E+10	1	-1E+10	1	-1E+10	1	-1E+10	1	-1E+10	1
4901784	212	C	04/24/2021	10:46	-135.794	42.948	0	144.70	0	8.7540	0	36.0040	4	27.947	0	143.502	0	198.0	4	70.7	4	-1E+10	1	-1E+10	1	-1E+10	1	-1E+10	1	-1E+10	1	-1E+10	1
4901784	212	C	04/24/2021	10:46	-135.794	42.948	0	147.10	0	8.6200	0	36.0830	4	28.031	0	145.882	0	196.0	4	69.8	4	-1E+10	1	-1E+10	1	-1E+10	1	-1E+10	1	-1E+10	1	-1E+10	1
4901784	212	C	04/24/2021	10:46	-135.794	42.948	0	149.60	0	8.5510	0	36.1170	4	28.069	0	148.360	0	194.2	4	69.1	4	-1E+10	1	-1E+10	1	-1E+10	1	-1E+10	1	-1E+10	1	-1E+10	1
4901784	212	C	04/24/2021	10:46	-135.794	42.948	0	152.80	0	8.4650	0	36.1640	4	28.119	0	151.532	0	191.6	4	68.1	4	-1E+10	1	-1E+10	1	-1E+10	1	-1E+10	1	-1E+10	1	-1E+10	1
4901784	212	C	04/24/2021	10:46	-135.794	42.948	0	155.30	0	8.4010	0	36.2010	4	28.158	0	154.011	0	189.8	4	67.3	4	-1E+10	1	-1E+10	1	-1E+10	1	-1E+10	1	-1E+10	1	-1E+10	1
4901784	212	C	04/24/2021	10:46	-135.794	42.948	0	157.80	0	8.3320	0	36.2210	4	28.185	0	156.489	0	187.8	4	66.5	4	-1E+10	1	-1E+10	1	-1E+10	1	-1E+10	1	-1E+10	1	-1E+10	1
4901784	212	C	04/24/2021	10:46	-135.794	42.948	0	160.40	0	8.2920	0	36.2300	4	28.198	0	159.066	0	185.2	4	65.5	4	-1E+10	1	-1E+10	1	-1E+10	1	-1E+10	1	-1E+10	1	-1E+10	1
4901784	212	C	04/24/2021	10:46	-135.794	42.948	0	162.20	0	8.2250	0	36.2670	4	28.238	0	160.851	0	182.3	4	64.5	4	-1E+10	1	-1E+10	1	-1E+10	1	-1E+10	1	-1E+10	1	-1E+10	1
4901784	212	C	04/24/2021	10:46	-135.794	42.948	0	164.90	0	8.1070	0	36.3490	4	28.320	0	163.527	0	178.9	4	63.1	4	-1E+10	1	-1E+10	1	-1E+10	1	-1E+10	1	-1E+10	1	-1E+10	1
4901784	212	C	04/24/2021	10:46	-135.794	42.948	0	168.10	0	8.0120	0	36.3940	4	28.370	0	166.699	0	175.5	4	61.8	4	-1E+10	1	-1E+10	1	-1E+10	1	-1E+10	1	-1E+10	1	-1E+10	1
4901784	212	C	04/24/2021	10:46	-135.794	42.948	0	170.50	0	7.9740	0	36.4260	4	28.401	0	169.078	0	173.9	4	61.2	4	-1E+10	1	-1E+10	1	-1E+10	1	-1E+10	1	-1E+10	1	-1E+10	1
4901784	212	C	04/24/2021	10:46	-135.794	42.948	0	172.60	0	7.9450	0	36.4690	4	28.440	0	171.160	0	172.4	4	60.7	4	-1E+10	1	-1E+10	1	-1E+10	1	-1E+10	1	-1E+10	1	-1E+10	1
4901784	212	C	04/24/2021	10:46	-135.794	42.948	0	174.90	0	7.9170	0	36.4940	4	28.464	0	173.440	0	171.1	4	60.2	4	-1E+10	1	-1E+10	1	-1E+10	1	-1E+10	1	-1E+10	1	-1E+10	1
4901784	212	C	04/24/2021	10:46	-135.794	42.948	0	177.90	0	7.8960	0	36.5220	4	28.489	0	176.413	0	168.6	4	59.3	4	-1E+10	1	-1E+10	1	-1E+10	1	-1E+10	1	-1E+10	1	-1E+10	1
4901784	212	C	04/24/2021	10:46	-135.794	42.948	0	180.10	0	7.8880	0	36.5330	4	28.499	0	178.594	0	166.8	4	58.7	4	-1E+10	1	-1E+10	1	-1E+10	1	-1E+10	1	-1E+10	1	-1E+10	1
4901784	212	C	04/24/2021	10:46	-135.794	42.948	0	182.40	0	7.8670	0	36.5700	4	28.531	0	180.874	0	164.8	4	57.9	4	-1E+10	1	-1E+10	1	-1E+10	1	-1E+10	1	-1E+10	1	-1E+10	1
4901784	212	C	04/24/2021	10:46	-135.794	42.948	0	185.40	0	7.8530	0	36.5910	4	28.550	0	183.847	0	163.2	4	57.4	4	-1E+10	1	-1E+10	1	-1E+10	1	-1E+10	1	-1E+10	1	-1E+10	1
4901784	212	C	04/24/2021	10:46	-135.794	42.948	0	187.70	0	7.8450	0	36.6020	4	28.560	0	186.127	0	162.0	4	56.9	4	-1E+10	1	-1E+10	1	-1E+10	1	-1E+10	1	-1E+10	1	-1E+10	1
4901784	212	C	04/24/2021	10:46	-135.794	42.948	0	190.20	0	7.8190	0	36.6230	4	28.580	0	188.605	0	160.9	4	56.5	4	-1E+10	1	-1E+10	1	-1E+10	1	-1E+10	1	-1E+10	1	-1E+10	1
4901784	212	C	04/24/2021	10:46	-135.794	42.948	0	192.60	0	7.7950	0	36.6450	4	28.601	0	190.984	0	159.3	4	55.9	4	-1E+10	1	-1E+10	1	-1E+10	1	-1E+10	1	-1E+10	1	-1E+10	1
4901784	212	C	04/24/2021	10:46	-135.794	42.948	0	195.20	0	7.7870	0	36.6550	4	28.610	0	193.561	0	157.4	4	55.3	4	-1E+10	1	-1E+10	1	-1E+10	1	-1E+10	1	-1E+10	1	-1E+10	1
4901784	212	C	04/24/2021	10:46	-135.794	42.948	0	197.60	0	7.7790	0	36.6660	4	28.620	0	195.939	0	155.2	4	54.5	4	-1E+10	1	-1E+10	1	-1E+10	1	-1E+10	1	-1E+10	1	-1E+10	1
4901784	212	C	04/24/2021	10:46	-135.794	42.948	0	200.10	0	7.7620	0	36.6940	4	28.645	0	198.417	0	153.1	4	53.7	4	-1E+10	1	-1E+10	1	-1E+10	1	-1E+10	1	-1E+10	1	-1E+10	1
4901784	212	C	04/24/2021	10:46	-135.794	42.948	0	202.50	0	7.7540	0	36.7050	4	28.655	0	200.796	0	152.7	4	53.6	4	-1E+10	1	-1E+10	1	-1E+10	1	-1E+10	1	-1E+10	1	-1E+10	1
4901784	212	C	04/24/2021	10:46	-135.794	42.948	0	205.10	0	7.7540	0	36.7130	4	28.661	0	203.373	0	153.2	4	53.8	4	-1E+10	1	-1E+10	1	-1E+10	1	-1E+10	1	-1E+10	1	-1E+10	1
4901784	212	C	04/24/2021	10:46	-135.794	42.948	0	207.60	0	7.7240	0	36.7180	4	28.670	0	205.850	0	155.7	4	54.6	4	-1E+10	1	-1E+10	1	-1E+10	1	-1E+10	1	-1E+10	1	-1E+10	1
4901784	212	C	04/24/2021	10:46	-135.794	42.948	0	210.10	0	7.7080	0	36.7200	4	28.674	0	208.328	0	158.2	4	55.5	4	-1E+10	1	-1E+10	1	-1E+10	1	-1E+10	1	-1E+10	1	-1E+10	1
4901784	212	C	04/24/2021	10:46	-135.794	42.948	0	212.70	0	7.6690	0	36.7230	4	28.682	0	210.905	0	162.3	4	56.9	4	-1E+10	1	-1E+10	1	-1E+10	1	-1E+10	1	-1E+10	1	-1E+10	1
4901784	212	C	04/24/2021	10:46	-135.794	42.948	0	215.30	0	7.5860	0	36.7230	4	28.695	0	213.481	0	167.0	4	58.4	4	-1E+10	1	-1E+10	1	-1E+10	1	-1E+10	1	-1E+10	1	-1E+10	1
4901784	212	C	04/24/2021	10:46	-135.794	42.948	0	218.10	0	7.5430	0	36.7230	4	28.701	0	216.256	0	169.5	4	59.2	4	-1E+10	1	-1E+10	1	-1E+10	1	-1E+10	1	-1E+10	1	-1E+10	1
4901784	212	C	04/24/2021	10:46	-135.794	42.948	0	219.90	0	7.4850	0	36.7310	4	28.716	0	218.040	0	169.7	4	59.2	4	-1E+10	1	-1E+10	1	-1E+10	1	-1E+10	1	-1E+10	1	-1E+10	1
4901784	212	C	04/24/2021	10:46	-135.794	42.948	0	222.50	0	7.4790	0	36.7300	4	28.716	0	220.617	0	168.5	4	58.8	4	-1E+10	1	-1E+10	1	-1E+10	1	-1E+10	1	-1E+10	1	-1E+10	1
4901784	212	C	04/24/2021	10:46	-135.794	42.948	0	225.10	0	7.4440	0	36.7350	4	28.725	0	223.193	0	166.9	4	58.2	4	-1E+10	1	-1E+10	1	-1E+10	1	-1E+10	1	-1E+10	1	-1E+10	1
4901784	212	C	04/24/2021	10:46	-135.794	42.948	0	227.70	0	7.4220	0	36.7380	4	28.731	0	225.770	0	165.4	4	57.6	4	-1E+10	1	-1E+10	1	-1E+10	1	-1E+10	1	-1E+10	1	-1E+10	1
4901784	212	C	04/24/2021	10:46	-135.794	42.948	0	230.30	0	7.3900	0	36.7420	4	28.739	0	228.346	0	163.8	4	57.1	4	-1E+10	1	-1E+10	1	-1E+10	1	-1E+10	1	-1E+10	1	-1E+10	1
4901784	212	C	04/24/2021	10:46	-135.794	42.948	0	232.20	0	7.3800	0	36.7450	4	28.743	0	230.229	0	162.6	4	56.6	4	-1E+10	1	-1E+10	1	-1E+10	1	-1E+10	1	-1E+10	1	-1E+10	1
4901784	212	C	04/24/2021	10:46	-135.794	42.948	0	234.90	0	7.3680	0	36.7480	4	28.747	0	232.905	0	161.5	4	56.2	4	-1E+10	1	-1E+10	1	-1E+10	1	-1E+10	1	-1E+10	1	-1E+10	1
4901784	212	C	04/24/2021	10:46	-135.794	42.948	0	237.80	0	7.3550	0	36.7480	4	28.749	0	235.779	0	160.0	4	55.7	4	-1E+10	1	-1E+10	1	-1E+10	1	-1E+10	1	-1E+10	1	-1E+10	1
4901784	212	C	04/24/2021	10:46	-135.794	42.948	0	239.60	0	7.3470	0	36.7490	4	28.751	0	237.562	0	158.5	4	55.2	4	-1E+10	1	-1E+10	1	-1E+10	1	-1E+10	1	-1E+10	1	-1E+10	1
4901784	212	C	04/24/2021	10:46	-135.794	42.948	0	242.50	0	7.2870	0	36.7560	4	28.765	0	240.436	0	156.5	4	54.4	4	-1E+10	1	-1E+10	1	-1E+10	1	-1E+10	1	-1E+10	1	-1E+10	1
4901784	212	C	04/24/2021	10:46	-135.794	42.948	0	245.30	0	7.2560	0	36.7600	4	28.773	0	243.210	0	155.2	4	53.9	4	-1E+10	1	-1E+10	1	-1E+10	1	-1E+10	1	-1E+10	1	-1E+10	1
4901784	212	C	04/24/2021	10:46	-135.794	42.948	0	247.30	0	7.2500	0	36.7600	4	28.774	0	245.192	0	154.6	4	53.7	4	-1E+10	1	-1E+10	1	-1E+10	1	-1E+10	1	-1E+10	1	-1E+10	1
4901784	212	C	04/24/2021	10:46	-135.794	42.948	0	250.10	0	7.1980	0	36.7630	4	28.784	0	247.967	0	153.9	4	53.4	4	-1E+10	1	-1E+10	1	-1E+10	1	-1E+10	1	-1E+10	1	-1E+10	1
4901784	212	C	04/24/2021	10:46	-135.794	42.948	0	252.90	0	7.1660	0	36.7660	4	28.791	0	250.741	0	153.3	4	53.1	4	-1E+10	1	-1E+10	1	-1E+10	1	-1E+10	1	-1E+10	1	-1E+10	1
4901784	212	C	04/24/2021	10:46	-135.794	42.948	0	254.80	0	7.1500	0	36.7640	4	28.792	0	252.624	0	152.8	4	52.9	4	-1E+10	1	-1E+10	1	-1E+10	1	-1E+10	1	-1E+10	1	-1E+10	1
4901784	212	C	04/24/2021	10:46	-135.794	42.948	0	257.70	0	7.1170	0	36.7670	4	28.799	0	255.497	0	152.1	4	52.6	4	-1E+10	1	-1E+10	1	-1E+10	1	-1E+10	1	-1E+10	1	-1E+10	1
4901784	212	C	04/24/2021	10:46	-135.794	42.948	0	260.60	0	7.1040	0	36.7650	4	28.799	0	258.371	0	151.2	4	52.3	4	-1E+10	1	-1E+10	1	-1E+10	1	-1E+10	1	-1E+10	1	-1E+10	1
4901784	212	C	04/24/2021	10:46	-135.794	42.948	0	262.60	0	7.0470	0	36.7730	4	28.814	0	260.352	0	150.7	4	52.1	4	-1E+10	1	-1E+10	1	-1E+10	1	-1E+10	1	-1E+10	1	-1E+10	1
4901784	212	C	04/24/2021	10:46	-135.794	42.948	0	264.50	0	7.0330	0	36.7720	4	28.815	0	262.235	0	150.6	4	52.0	4	-1E+10	1	-1E+10	1	-1E+10	1	-1E+10	1	-1E+10	1	-1E+10	1
4901784	212	C	04/24/2021	10:46	-135.794	42.948	0	267.40	0	7.0100	0	36.7740	4	28.820	0	265.108	0	149.9	4	51.8	4	-1E+10	1	-1E+10	1	-1E+10	1	-1E+10	1	-1E+10	1	-1E+10	1
4901784	212	C	04/24/2021	10:46	-135.794	42.948	0	270.30	0	6.9760	0	36.7770	4	28.827	0	267.981	0	149.3	4	51.5	4	-1E+10	1	-1E+10	1	-1E+10	1	-1E+10	1	-1E+10	1	-1E+10	1
4901784	212	C	04/24/2021	10:46	-135.794	42.948	0	272.80	0	6.9720	0	36.7770	4	28.828	0	270.458	0	148.8	4	51.4	4	-1E+10	1	-1E+10	1	-1E+10	1	-1E+10	1	-1E+10	1	-1E+10	1
4901784	212	C	04/24/2021	10:46	-135.794	42.948	0	274.80	0	6.9700	0	36.7760	4	28.827	0	272.440	0	148.2	4	51.1	4	-1E+10	1	-1E+10	1	-1E+10	1	-1E+10	1	-1E+10	1	-1E+10	1
4901784	212	C	04/24/2021	10:46	-135.794	42.948	0	277.20	0	6.9500	0	36.7770	4	28.831	0	274.817	0	147.3	4	50.8	4	-1E+10	1	-1E+10	1	-1E+10	1	-1E+10	1	-1E+10	1	-1E+10	1
4901784	212	C	04/24/2021	10:46	-135.794	42.948	0	280.30	0	6.9220	0	36.7780	4	28.836	0	277.889	0	146.1	4	50.4	4	-1E+10	1	-1E+10	1	-1E+10	1	-1E+10	1	-1E+10	1	-1E+10	1
4901784	212	C	04/24/2021	10:46	-135.794	42.948	0	282.80	0	6.8900	0	36.7800	4	28.842	0	280.366	0	145.0	4	50.0	4	-1E+10	1	-1E+10	1	-1E+10	1	-1E+10	1	-1E+10	1	-1E+10	1
4901784	212	C	04/24/2021	10:46	-135.794	42.948	0	285.20	0	6.8650	0	36.7800	4	28.845	0	282.743	0	144.2	4	49.6	4	-1E+10	1	-1E+10	1	-1E+10	1	-1E+10	1	-1E+10	1	-1E+10	1
4901784	212	C	04/24/2021	10:46	-135.794	42.948	0	287.50	0	6.8350	0	36.7810	4	28.850	0	285.022	0	143.4	4	49.3	4	-1E+10	1	-1E+10	1	-1E+10	1	-1E+10	1	-1E+10	1	-1E+10	1
4901784	212	C	04/24/2021	10:46	-135.794	42.948	0	290.00	0	6.7990	0	36.7810	4	28.856	0	287.499	0	142.5	4	49.0	4	-1E+10	1	-1E+10	1	-1E+10	1	-1E+10	1	-1E+10	1	-1E+10	1
4901784	212	C	04/24/2021	10:46	-135.794	42.948	0	292.40	0	6.7650	0	36.7830	4	28.862	0	289.876	0	141.6	4	48.6	4	-1E+10	1	-1E+10	1	-1E+10	1	-1E+10	1	-1E+10	1	-1E+10	1
4901784	212	C	04/24/2021	10:46	-135.794	42.948	0	294.80	0	6.7300	0	36.7820	4	28.866	0	292.254	0	140.5	4	48.2	4	-1E+10	1	-1E+10	1	-1E+10	1	-1E+10	1	-1E+10	1	-1E+10	1
4901784	212	C	04/24/2021	10:46	-135.794	42.948	0	297.20	0	6.7130	0	36.7820	4	28.869	0	294.631	0	139.1	4	47.7	4	-1E+10	1	-1E+10	1	-1E+10	1	-1E+10	1	-1E+10	1	-1E+10	1
4901784	212	C	04/24/2021	10:46	-135.794	42.948	0	299.70	0	6.6790	0	36.7850	4	28.876	0	297.108	0	137.7	4	47.2	4	-1E+10	1	-1E+10	1	-1E+10	1	-1E+10	1	-1E+10	1	-1E+10	1
4901784	212	C	04/24/2021	10:46	-135.794	42.948	0	302.30	0	6.6440	0	36.7830	4	28.879	0	299.684	0	136.7	4	46.8	4	-1E+10	1	-1E+10	1	-1E+10	1	-1E+10	1	-1E+10	1	-1E+10	1
4901784	212	C	04/24/2021	10:46	-135.794	42.948	0	304.80	0	6.5600	0	36.7890	4	28.895	0	302.160	0	135.7	4	46.4	4	-1E+10	1	-1E+10	1	-1E+10	1	-1E+10	1	-1E+10	1	-1E+10	1
4901784	212	C	04/24/2021	10:46	-135.794	42.948	0	307.40	0	6.5360	0	36.7940	4	28.903	0	304.736	0	135.1	4	46.2	4	-1E+10	1	-1E+10	1	-1E+10	1	-1E+10	1	-1E+10	1	-1E+10	1
4901784	212	C	04/24/2021	10:46	-135.794	42.948	0	310.00	0	6.5370	0	36.7920	4	28.901	0	307.311	0	134.5	4	46.0	4	-1E+10	1	-1E+10	1	-1E+10	1	-1E+10	1	-1E+10	1	-1E+10	1
4901784	212	C	04/24/2021	10:46	-135.794	42.948	0	312.60	0	6.5350	0	36.7910	4	28.901	0	309.887	0	133.7	4	45.7	4	-1E+10	1	-1E+10	1	-1E+10	1	-1E+10	1	-1E+10	1	-1E+10	1
4901784	212	C	04/24/2021	10:46	-135.794	42.948	0	315.30	0	6.5310	0	36.7890	4	28.900	0	312.561	0	132.5	4	45.3	4	-1E+10	1	-1E+10	1	-1E+10	1	-1E+10	1	-1E+10	1	-1E+10	1
4901784	212	C	04/24/2021	10:46	-135.794	42.948	0	317.90	0	6.4940	0	36.7890	4	28.905	0	315.137	0	130.5	4	44.6	4	-1E+10	1	-1E+10	1	-1E+10	1	-1E+10	1	-1E+10	1	-1E+10	1
4901784	212	C	04/24/2021	10:46	-135.794	42.948	0	319.70	0	6.4370	0	36.7920	4	28.915	0	316.920	0	129.3	4	44.1	4	-1E+10	1	-1E+10	1	-1E+10	1	-1E+10	1	-1E+10	1	-1E+10	1
4901784	212	C	04/24/2021	10:46	-135.794	42.948	0	322.20	0	6.3800	0	36.7980	4	28.928	0	319.396	0	127.7	4	43.5	4	-1E+10	1	-1E+10	1	-1E+10	1	-1E+10	1	-1E+10	1	-1E+10	1
4901784	212	C	04/24/2021	10:46	-135.794	42.948	0	324.80	0	6.3620	0	36.8000	4	28.932	0	321.971	0	126.9	4	43.2	4	-1E+10	1	-1E+10	1	-1E+10	1	-1E+10	1	-1E+10	1	-1E+10	1
4901784	212	C	04/24/2021	10:46	-135.794	42.948	0	327.30	0	6.3530	0	36.7990	4	28.932	0	324.448	0	126.2	4	42.9	4	-1E+10	1	-1E+10	1	-1E+10	1	-1E+10	1	-1E+10	1	-1E+10	1
4901784	212	C	04/24/2021	10:46	-135.794	42.948	0	329.90	0	6.3340	0	36.7980	4	28.934	0	327.023	0	125.4	4	42.7	4	-1E+10	1	-1E+10	1	-1E+10	1	-1E+10	1	-1E+10	1	-1E+10	1
4901784	212	C	04/24/2021	10:46	-135.794	42.948	0	332.60	0	6.2950	0	36.8000	4	28.941	0	329.697	0	124.2	4	42.2	4	-1E+10	1	-1E+10	1	-1E+10	1	-1E+10	1	-1E+10	1	-1E+10	1
4901784	212	C	04/24/2021	10:46	-135.794	42.948	0	335.20	0	6.2590	0	36.8040	4	28.949	0	332.272	0	123.3	4	41.9	4	-1E+10	1	-1E+10	1	-1E+10	1	-1E+10	1	-1E+10	1	-1E+10	1
4901784	212	C	04/24/2021	10:46	-135.794	42.948	0	337.70	0	6.2580	0	36.8040	4	28.949	0	334.749	0	122.5	4	41.6	4	-1E+10	1	-1E+10	1	-1E+10	1	-1E+10	1	-1E+10	1	-1E+10	1
4901784	212	C	04/24/2021	10:46	-135.794	42.948	0	340.30	0	6.2440	0	36.8040	4	28.951	0	337.324	0	121.7	4	41.3	4	-1E+10	1	-1E+10	1	-1E+10	1	-1E+10	1	-1E+10	1	-1E+10	1
4901784	212	C	04/24/2021	10:46	-135.794	42.948	0	342.90	0	6.2200	0	36.8070	4	28.957	0	339.899	0	121.1	4	41.1	4	-1E+10	1	-1E+10	1	-1E+10	1	-1E+10	1	-1E+10	1	-1E+10	1
4901784	212	C	04/24/2021	10:46	-135.794	42.948	0	345.40	0	6.2110	0	36.8070	4	28.958	0	342.375	0	120.2	4	40.8	4	-1E+10	1	-1E+10	1	-1E+10	1	-1E+10	1	-1E+10	1	-1E+10	1
4901784	212	C	04/24/2021	10:46	-135.794	42.948	0	347.90	0	6.1990	0	36.8070	4	28.959	0	344.851	0	119.4	4	40.5	4	-1E+10	1	-1E+10	1	-1E+10	1	-1E+10	1	-1E+10	1	-1E+10	1
4901784	212	C	04/24/2021	10:46	-135.794	42.948	0	350.40	0	6.1760	0	36.8080	4	28.963	0	347.327	0	118.7	4	40.2	4	-1E+10	1	-1E+10	1	-1E+10	1	-1E+10	1	-1E+10	1	-1E+10	1
4901784	212	C	04/24/2021	10:46	-135.794	42.948	0	352.90	0	6.1690	0	36.8060	4	28.963	0	349.803	0	117.7	4	39.9	4	-1E+10	1	-1E+10	1	-1E+10	1	-1E+10	1	-1E+10	1	-1E+10	1
4901784	212	C	04/24/2021	10:46	-135.794	42.948	0	355.40	0	6.1270	0	36.8080	4	28.970	0	352.279	0	116.5	4	39.4	4	-1E+10	1	-1E+10	1	-1E+10	1	-1E+10	1	-1E+10	1	-1E+10	1
4901784	212	C	04/24/2021	10:46	-135.794	42.948	0	357.90	0	6.0830	0	36.8110	4	28.978	0	354.755	0	115.4	4	39.0	4	-1E+10	1	-1E+10	1	-1E+10	1	-1E+10	1	-1E+10	1	-1E+10	1
4901784	212	C	04/24/2021	10:46	-135.794	42.948	0	360.40	0	6.0660	0	36.8110	4	28.981	0	357.231	0	114.2	4	38.6	4	-1E+10	1	-1E+10	1	-1E+10	1	-1E+10	1	-1E+10	1	-1E+10	1
4901784	212	C	04/24/2021	10:46	-135.794	42.948	0	362.90	0	6.0490	0	36.8100	4	28.982	0	359.707	0	112.9	4	38.2	4	-1E+10	1	-1E+10	1	-1E+10	1	-1E+10	1	-1E+10	1	-1E+10	1
4901784	212	C	04/24/2021	10:46	-135.794	42.948	0	365.40	0	6.0170	0	36.8110	4	28.987	0	362.182	0	111.4	4	37.6	4	-1E+10	1	-1E+10	1	-1E+10	1	-1E+10	1	-1E+10	1	-1E+10	1
4901784	212	C	04/24/2021	10:46	-135.794	42.948	0	367.10	0	5.9680	0	36.8150	4	28.997	0	363.866	0	110.6	4	37.3	4	-1E+10	1	-1E+10	1	-1E+10	1	-1E+10	1	-1E+10	1	-1E+10	1
4901784	212	C	04/24/2021	10:46	-135.794	42.948	0	369.60	0	5.9480	0	36.8150	4	28.999	0	366.342	0	109.4	4	36.9	4	-1E+10	1	-1E+10	1	-1E+10	1	-1E+10	1	-1E+10	1	-1E+10	1
4901784	212	C	04/24/2021	10:46	-135.794	42.948	0	372.10	0	5.9310	0	36.8140	4	29.001	0	368.817	0	108.4	4	36.5	4	-1E+10	1	-1E+10	1	-1E+10	1	-1E+10	1	-1E+10	1	-1E+10	1
4901784	212	C	04/24/2021	10:46	-135.794	42.948	0	374.60	0	5.9000	0	36.8150	4	29.006	0	371.293	0	106.9	4	36.0	4	-1E+10	1	-1E+10	1	-1E+10	1	-1E+10	1	-1E+10	1	-1E+10	1
4901784	212	C	04/24/2021	10:46	-135.794	42.948	0	377.90	0	5.8470	0	36.8180	4	29.015	0	374.561	0	104.7	4	35.2	4	-1E+10	1	-1E+10	1	-1E+10	1	-1E+10	1	-1E+10	1	-1E+10	1
4901784	212	C	04/24/2021	10:46	-135.794	42.948	0	380.40	0	5.8330	0	36.8160	4	29.015	0	377.037	0	102.8	4	34.6	4	-1E+10	1	-1E+10	1	-1E+10	1	-1E+10	1	-1E+10	1	-1E+10	1
4901784	212	C	04/24/2021	10:46	-135.794	42.948	0	382.90	0	5.7730	0	36.8200	4	29.026	0	379.512	0	100.6	4	33.8	4	-1E+10	1	-1E+10	1	-1E+10	1	-1E+10	1	-1E+10	1	-1E+10	1
4901784	212	C	04/24/2021	10:46	-135.794	42.948	0	385.40	0	5.7300	0	36.8230	4	29.034	0	381.988	0	98.8	4	33.1	4	-1E+10	1	-1E+10	1	-1E+10	1	-1E+10	1	-1E+10	1	-1E+10	1
4901784	212	C	04/24/2021	10:46	-135.794	42.948	0	387.90	0	5.7160	0	36.8220	4	29.035	0	384.463	0	96.5	4	32.4	4	-1E+10	1	-1E+10	1	-1E+10	1	-1E+10	1	-1E+10	1	-1E+10	1
4901784	212	C	04/24/2021	10:46	-135.794	42.948	0	390.30	0	5.6600	0	36.8280	4	29.047	0	386.840	0	94.4	4	31.6	4	-1E+10	1	-1E+10	1	-1E+10	1	-1E+10	1	-1E+10	1	-1E+10	1
4901784	212	C	04/24/2021	10:46	-135.794	42.948	0	392.80	0	5.6360	0	36.8270	4	29.050	0	389.315	0	92.7	4	31.0	4	-1E+10	1	-1E+10	1	-1E+10	1	-1E+10	1	-1E+10	1	-1E+10	1
4901784	212	C	04/24/2021	10:46	-135.794	42.948	0	395.30	0	5.5820	0	36.8380	4	29.065	0	391.791	0	90.8	4	30.4	4	-1E+10	1	-1E+10	1	-1E+10	1	-1E+10	1	-1E+10	1	-1E+10	1
4901784	212	C	04/24/2021	10:46	-135.794	42.948	0	397.70	0	5.5240	0	36.8380	4	29.073	0	394.167	0	89.7	4	29.9	4	-1E+10	1	-1E+10	1	-1E+10	1	-1E+10	1	-1E+10	1	-1E+10	1
4901784	212	C	04/24/2021	10:46	-135.794	42.948	0	400.20	0	5.4770	0	36.8440	4	29.083	0	396.643	0	88.7	4	29.6	4	-1E+10	1	-1E+10	1	-1E+10	1	-1E+10	1	-1E+10	1	-1E+10	1
4901784	212	C	04/24/2021	10:46	-135.794	42.948	0	402.60	0	5.4660	0	36.8440	4	29.085	0	399.019	0	88.1	4	29.4	4	-1E+10	1	-1E+10	1	-1E+10	1	-1E+10	1	-1E+10	1	-1E+10	1
4901784	212	C	04/24/2021	10:46	-135.794	42.948	0	405.10	0	5.4540	0	36.8430	4	29.086	0	401.494	0	87.2	4	29.1	4	-1E+10	1	-1E+10	1	-1E+10	1	-1E+10	1	-1E+10	1	-1E+10	1
4901784	212	C	04/24/2021	10:46	-135.794	42.948	0	407.60	0	5.4130	0	36.8470	4	29.094	0	403.970	0	86.1	4	28.7	4	-1E+10	1	-1E+10	1	-1E+10	1	-1E+10	1	-1E+10	1	-1E+10	1
4901784	212	C	04/24/2021	10:46	-135.794	42.948	0	410.10	0	5.3930	0	36.8490	4	29.098	0	406.445	0	85.4	4	28.4	4	-1E+10	1	-1E+10	1	-1E+10	1	-1E+10	1	-1E+10	1	-1E+10	1
4901784	212	C	04/24/2021	10:46	-135.794	42.948	0	412.60	0	5.3720	0	36.8500	4	29.102	0	408.920	0	84.4	4	28.1	4	-1E+10	1	-1E+10	1	-1E+10	1	-1E+10	1	-1E+10	1	-1E+10	1
4901784	212	C	04/24/2021	10:46	-135.794	42.948	0	415.10	0	5.3570	0	36.8500	4	29.103	0	411.395	0	83.6	4	27.8	4	-1E+10	1	-1E+10	1	-1E+10	1	-1E+10	1	-1E+10	1	-1E+10	1
4901784	212	C	04/24/2021	10:46	-135.794	42.948	0	417.70	0	5.3410	0	36.8510	4	29.106	0	413.970	0	82.7	4	27.5	4	-1E+10	1	-1E+10	1	-1E+10	1	-1E+10	1	-1E+10	1	-1E+10	1
4901784	212	C	04/24/2021	10:46	-135.794	42.948	0	420.10	0	5.3230	0	36.8510	4	29.109	0	416.346	0	81.7	4	27.1	4	-1E+10	1	-1E+10	1	-1E+10	1	-1E+10	1	-1E+10	1	-1E+10	1
4901784	212	C	04/24/2021	10:46	-135.794	42.948	0	422.80	0	5.2820	0	36.8540	4	29.116	0	419.019	0	80.8	4	26.8	4	-1E+10	1	-1E+10	1	-1E+10	1	-1E+10	1	-1E+10	1	-1E+10	1
4901784	212	C	04/24/2021	10:46	-135.794	42.948	0	425.40	0	5.2550	0	36.8550	4	29.120	0	421.593	0	80.0	4	26.6	4	-1E+10	1	-1E+10	1	-1E+10	1	-1E+10	1	-1E+10	1	-1E+10	1
4901784	212	C	04/24/2021	10:46	-135.794	42.948	0	427.10	0	5.2110	0	36.8600	4	29.130	0	423.276	0	79.4	4	26.3	4	-1E+10	1	-1E+10	1	-1E+10	1	-1E+10	1	-1E+10	1	-1E+10	1
4901784	212	C	04/24/2021	10:46	-135.794	42.948	0	429.70	0	5.2030	0	36.8610	4	29.131	0	425.850	0	78.5	4	26.0	4	-1E+10	1	-1E+10	1	-1E+10	1	-1E+10	1	-1E+10	1	-1E+10	1
4901784	212	C	04/24/2021	10:46	-135.794	42.948	0	432.20	0	5.1920	0	36.8630	4	29.134	0	428.325	0	77.5	4	25.7	4	-1E+10	1	-1E+10	1	-1E+10	1	-1E+10	1	-1E+10	1	-1E+10	1
4901784	212	C	04/24/2021	10:46	-135.794	42.948	0	434.80	0	5.1840	0	36.8630	4	29.135	0	430.899	0	76.3	4	25.3	4	-1E+10	1	-1E+10	1	-1E+10	1	-1E+10	1	-1E+10	1	-1E+10	1
4901784	212	C	04/24/2021	10:46	-135.794	42.948	0	437.40	0	5.1670	0	36.8660	4	29.140	0	433.473	0	74.9	4	24.8	4	-1E+10	1	-1E+10	1	-1E+10	1	-1E+10	1	-1E+10	1	-1E+10	1
4901784	212	C	04/24/2021	10:46	-135.794	42.948	0	440.00	0	5.1390	0	36.8680	4	29.145	0	436.047	0	74.1	4	24.5	4	-1E+10	1	-1E+10	1	-1E+10	1	-1E+10	1	-1E+10	1	-1E+10	1
4901784	212	C	04/24/2021	10:46	-135.794	42.948	0	442.60	0	5.0980	0	36.8740	4	29.155	0	438.621	0	73.3	4	24.2	4	-1E+10	1	-1E+10	1	-1E+10	1	-1E+10	1	-1E+10	1	-1E+10	1
4901784	212	C	04/24/2021	10:46	-135.794	42.948	0	445.20	0	5.0830	0	36.8750	4	29.157	0	441.195	0	72.9	4	24.1	4	-1E+10	1	-1E+10	1	-1E+10	1	-1E+10	1	-1E+10	1	-1E+10	1
4901784	212	C	04/24/2021	10:46	-135.794	42.948	0	447.80	0	5.0740	0	36.8730	4	29.157	0	443.769	0	72.5	4	23.9	4	-1E+10	1	-1E+10	1	-1E+10	1	-1E+10	1	-1E+10	1	-1E+10	1
4901784	212	C	04/24/2021	10:46	-135.794	42.948	0	449.60	0	5.0640	0	36.8740	4	29.159	0	445.550	0	72.1	4	23.8	4	-1E+10	1	-1E+10	1	-1E+10	1	-1E+10	1	-1E+10	1	-1E+10	1
4901784	212	C	04/24/2021	10:46	-135.794	42.948	0	452.30	0	5.0380	0	36.8750	4	29.163	0	448.223	0	71.6	4	23.7	4	-1E+10	1	-1E+10	1	-1E+10	1	-1E+10	1	-1E+10	1	-1E+10	1
4901784	212	C	04/24/2021	10:46	-135.794	42.948	0	455.00	0	4.9800	0	36.8790	4	29.173	0	450.896	0	71.3	4	23.5	4	-1E+10	1	-1E+10	1	-1E+10	1	-1E+10	1	-1E+10	1	-1E+10	1
4901784	212	C	04/24/2021	10:46	-135.794	42.948	0	457.70	0	4.9430	0	36.8810	4	29.179	0	453.569	0	70.9	4	23.3	4	-1E+10	1	-1E+10	1	-1E+10	1	-1E+10	1	-1E+10	1	-1E+10	1
4901784	212	C	04/24/2021	10:46	-135.794	42.948	0	460.40	0	4.9230	0	36.8820	4	29.182	0	456.241	0	70.3	4	23.1	4	-1E+10	1	-1E+10	1	-1E+10	1	-1E+10	1	-1E+10	1	-1E+10	1
4901784	212	C	04/24/2021	10:46	-135.794	42.948	0	462.10	0	4.9140	0	36.8810	4	29.183	0	457.924	0	69.7	4	23.0	4	-1E+10	1	-1E+10	1	-1E+10	1	-1E+10	1	-1E+10	1	-1E+10	1
4901784	212	C	04/24/2021	10:46	-135.794	42.948	0	464.90	0	4.8890	0	36.8840	4	29.188	0	460.696	0	68.6	4	22.6	4	-1E+10	1	-1E+10	1	-1E+10	1	-1E+10	1	-1E+10	1	-1E+10	1
4901784	212	C	04/24/2021	10:46	-135.794	42.948	0	467.60	0	4.8660	0	36.8860	4	29.193	0	463.368	0	67.3	4	22.1	4	-1E+10	1	-1E+10	1	-1E+10	1	-1E+10	1	-1E+10	1	-1E+10	1
4901784	212	C	04/24/2021	10:46	-135.794	42.948	0	470.30	0	4.8260	0	36.8920	4	29.202	0	466.041	0	65.9	4	21.7	4	-1E+10	1	-1E+10	1	-1E+10	1	-1E+10	1	-1E+10	1	-1E+10	1
4901784	212	C	04/24/2021	10:46	-135.794	42.948	0	473.10	0	4.7880	0	36.8980	4	29.211	0	468.812	0	64.7	4	21.2	4	-1E+10	1	-1E+10	1	-1E+10	1	-1E+10	1	-1E+10	1	-1E+10	1
4901784	212	C	04/24/2021	10:46	-135.794	42.948	0	475.00	0	4.7820	0	36.9010	4	29.214	0	470.693	0	63.9	4	21.0	4	-1E+10	1	-1E+10	1	-1E+10	1	-1E+10	1	-1E+10	1	-1E+10	1
4901784	212	C	04/24/2021	10:46	-135.794	42.948	0	476.90	0	4.7760	0	36.9030	4	29.217	0	472.574	0	63.0	4	20.7	4	-1E+10	1	-1E+10	1	-1E+10	1	-1E+10	1	-1E+10	1	-1E+10	1
4901784	212	C	04/24/2021	10:46	-135.794	42.948	0	479.80	0	4.7780	0	36.9080	4	29.221	0	475.444	0	61.9	4	20.3	4	-1E+10	1	-1E+10	1	-1E+10	1	-1E+10	1	-1E+10	1	-1E+10	1
4901784	212	C	04/24/2021	10:46	-135.794	42.948	0	482.60	0	4.7760	0	36.9080	4	29.221	0	478.215	0	61.0	4	20.0	4	-1E+10	1	-1E+10	1	-1E+10	1	-1E+10	1	-1E+10	1	-1E+10	1
4901784	212	C	04/24/2021	10:46	-135.794	42.948	0	484.50	0	4.7720	0	36.9090	4	29.222	0	480.096	0	60.1	4	19.7	4	-1E+10	1	-1E+10	1	-1E+10	1	-1E+10	1	-1E+10	1	-1E+10	1
4901784	212	C	04/24/2021	10:46	-135.794	42.948	0	487.30	0	4.7440	0	36.9160	4	29.231	0	482.867	0	59.1	4	19.4	4	-1E+10	1	-1E+10	1	-1E+10	1	-1E+10	1	-1E+10	1	-1E+10	1
4901784	212	C	04/24/2021	10:46	-135.794	42.948	0	490.20	0	4.7470	0	36.9150	4	29.230	0	485.737	0	58.0	4	19.0	4	-1E+10	1	-1E+10	1	-1E+10	1	-1E+10	1	-1E+10	1	-1E+10	1
4901784	212	C	04/24/2021	10:46	-135.794	42.948	0	492.20	0	4.7010	0	36.9220	4	29.241	0	487.717	0	57.3	4	18.8	4	-1E+10	1	-1E+10	1	-1E+10	1	-1E+10	1	-1E+10	1	-1E+10	1
4901784	212	C	04/24/2021	10:46	-135.794	42.948	0	495.10	0	4.6950	0	36.9260	4	29.245	0	490.587	0	55.9	4	18.3	4	-1E+10	1	-1E+10	1	-1E+10	1	-1E+10	1	-1E+10	1	-1E+10	1
4901784	212	C	04/24/2021	10:46	-135.794	42.948	0	498.10	0	4.7070	0	36.9330	4	29.249	0	493.556	0	54.9	4	18.0	4	-1E+10	1	-1E+10	1	-1E+10	1	-1E+10	1	-1E+10	1	-1E+10	1
4901784	212	C	04/24/2021	10:46	-135.794	42.948	0	500.50	0	4.6930	0	36.9330	4	29.251	0	495.931	0	54.5	4	17.9	4	-1E+10	1	-1E+10	1	-1E+10	1	-1E+10	1	-1E+10	1	-1E+10	1
4901784	212	C	04/24/2021	10:46	-135.794	42.948	0	505.80	0	4.6700	0	36.9360	4	29.256	0	501.177	0	53.2	4	17.4	4	-1E+10	1	-1E+10	1	-1E+10	1	-1E+10	1	-1E+10	1	-1E+10	1
4901784	212	C	04/24/2021	10:46	-135.794	42.948	0	510.70	0	4.6280	0	36.9420	4	29.266	0	506.026	0	51.8	4	17.0	4	-1E+10	1	-1E+10	1	-1E+10	1	-1E+10	1	-1E+10	1	-1E+10	1
4901784	212	C	04/24/2021	10:46	-135.794	42.948	0	515.70	0	4.6190	0	36.9490	4	29.272	0	510.974	0	50.2	4	16.4	4	-1E+10	1	-1E+10	1	-1E+10	1	-1E+10	1	-1E+10	1	-1E+10	1
4901784	212	C	04/24/2021	10:46	-135.794	42.948	0	520.60	0	4.6080	0	36.9550	4	29.278	0	515.823	0	48.5	4	15.9	4	-1E+10	1	-1E+10	1	-1E+10	1	-1E+10	1	-1E+10	1	-1E+10	1
4901784	212	C	04/24/2021	10:46	-135.794	42.948	0	525.60	0	4.5900	0	36.9610	4	29.285	0	520.771	0	46.7	4	15.3	4	-1E+10	1	-1E+10	1	-1E+10	1	-1E+10	1	-1E+10	1	-1E+10	1
4901784	212	C	04/24/2021	10:46	-135.794	42.948	0	530.60	0	4.5690	0	36.9670	4	29.292	0	525.718	0	44.7	4	14.6	4	-1E+10	1	-1E+10	1	-1E+10	1	-1E+10	1	-1E+10	1	-1E+10	1
4901784	212	C	04/24/2021	10:46	-135.794	42.948	0	535.60	0	4.5660	0	36.9790	4	29.302	0	530.666	0	42.1	4	13.8	4	-1E+10	1	-1E+10	1	-1E+10	1	-1E+10	1	-1E+10	1	-1E+10	1
4901784	212	C	04/24/2021	10:46	-135.794	42.948	0	540.60	0	4.5440	0	36.9860	4	29.311	0	535.614	0	40.4	4	13.2	4	-1E+10	1	-1E+10	1	-1E+10	1	-1E+10	1	-1E+10	1	-1E+10	1
4901784	212	C	04/24/2021	10:46	-135.794	42.948	0	545.60	0	4.5100	0	36.9930	4	29.320	0	540.561	0	39.2	4	12.8	4	-1E+10	1	-1E+10	1	-1E+10	1	-1E+10	1	-1E+10	1	-1E+10	1
4901784	212	C	04/24/2021	10:46	-135.794	42.948	0	550.70	0	4.4840	0	36.9970	4	29.326	0	545.607	0	38.2	4	12.5	4	-1E+10	1	-1E+10	1	-1E+10	1	-1E+10	1	-1E+10	1	-1E+10	1
4901784	212	C	04/24/2021	10:46	-135.794	42.948	0	555.70	0	4.4690	0	37.0020	4	29.332	0	550.554	0	36.5	4	11.9	4	-1E+10	1	-1E+10	1	-1E+10	1	-1E+10	1	-1E+10	1	-1E+10	1
4901784	212	C	04/24/2021	10:46	-135.794	42.948	0	560.60	0	4.4520	0	37.0110	4	29.341	0	555.402	0	34.7	4	11.3	4	-1E+10	1	-1E+10	1	-1E+10	1	-1E+10	1	-1E+10	1	-1E+10	1
4901784	212	C	04/24/2021	10:46	-135.794	42.948	0	565.70	0	4.4440	0	37.0180	4	29.348	0	560.448	0	33.0	4	10.8	4	-1E+10	1	-1E+10	1	-1E+10	1	-1E+10	1	-1E+10	1	-1E+10	1
4901784	212	C	04/24/2021	10:46	-135.794	42.948	0	570.80	0	4.4200	0	37.0250	4	29.356	0	565.494	0	31.6	4	10.3	4	-1E+10	1	-1E+10	1	-1E+10	1	-1E+10	1	-1E+10	1	-1E+10	1
4901784	212	C	04/24/2021	10:46	-135.794	42.948	0	575.00	0	4.3880	0	37.0330	4	29.366	0	569.649	0	30.5	4	9.9	4	-1E+10	1	-1E+10	1	-1E+10	1	-1E+10	1	-1E+10	1	-1E+10	1
4901784	212	C	04/24/2021	10:46	-135.794	42.948	0	579.30	0	4.3860	0	37.0380	4	29.370	0	573.903	0	29.3	4	9.5	4	-1E+10	1	-1E+10	1	-1E+10	1	-1E+10	1	-1E+10	1	-1E+10	1
4901784	212	C	04/24/2021	10:46	-135.794	42.948	0	584.40	0	4.3900	0	37.0490	4	29.379	0	578.949	0	27.8	4	9.0	4	-1E+10	1	-1E+10	1	-1E+10	1	-1E+10	1	-1E+10	1	-1E+10	1
4901784	212	C	04/24/2021	10:46	-135.794	42.948	0	589.50	0	4.3900	0	37.0560	4	29.384	0	583.994	0	26.4	4	8.6	4	-1E+10	1	-1E+10	1	-1E+10	1	-1E+10	1	-1E+10	1	-1E+10	1
4901784	212	C	04/24/2021	10:46	-135.794	42.948	0	594.50	0	4.4170	0	37.0680	4	29.391	0	588.940	0	24.6	4	8.0	4	-1E+10	1	-1E+10	1	-1E+10	1	-1E+10	1	-1E+10	1	-1E+10	1
4901784	212	C	04/24/2021	10:46	-135.794	42.948	0	599.50	0	4.4240	0	37.0740	4	29.395	0	593.886	0	23.7	4	7.7	4	-1E+10	1	-1E+10	1	-1E+10	1	-1E+10	1	-1E+10	1	-1E+10	1
4901784	212	C	04/24/2021	10:46	-135.794	42.948	0	604.70	0	4.3950	0	37.0790	4	29.402	0	599.030	0	23.1	4	7.5	4	-1E+10	1	-1E+10	1	-1E+10	1	-1E+10	1	-1E+10	1	-1E+10	1
4901784	212	C	04/24/2021	10:46	-135.794	42.948	0	609.70	0	4.3900	0	37.0870	4	29.409	0	603.976	0	22.1	4	7.2	4	-1E+10	1	-1E+10	1	-1E+10	1	-1E+10	1	-1E+10	1	-1E+10	1
4901784	212	C	04/24/2021	10:46	-135.794	42.948	0	614.80	0	4.3590	0	37.0920	4	29.417	0	609.021	0	21.3	4	6.9	4	-1E+10	1	-1E+10	1	-1E+10	1	-1E+10	1	-1E+10	1	-1E+10	1
4901784	212	C	04/24/2021	10:46	-135.794	42.948	0	620.00	0	4.3400	0	37.1000	4	29.425	0	614.164	0	20.3	4	6.6	4	-1E+10	1	-1E+10	1	-1E+10	1	-1E+10	1	-1E+10	1	-1E+10	1
4901784	212	C	04/24/2021	10:46	-135.794	42.948	0	625.30	0	4.3500	0	37.1120	4	29.434	0	619.406	0	19.1	4	6.2	4	-1E+10	1	-1E+10	1	-1E+10	1	-1E+10	1	-1E+10	1	-1E+10	1
4901784	212	C	04/24/2021	10:46	-135.794	42.948	0	630.60	0	4.3460	0	37.1180	4	29.439	0	624.648	0	18.4	4	6.0	4	-1E+10	1	-1E+10	1	-1E+10	1	-1E+10	1	-1E+10	1	-1E+10	1
4901784	212	C	04/24/2021	10:46	-135.794	42.948	0	635.00	0	4.3350	0	37.1260	4	29.447	0	629.000	0	17.8	4	5.8	4	-1E+10	1	-1E+10	1	-1E+10	1	-1E+10	1	-1E+10	1	-1E+10	1
4901784	212	C	04/24/2021	10:46	-135.794	42.948	0	639.40	0	4.3300	0	37.1290	4	29.450	0	633.352	0	17.5	4	5.7	4	-1E+10	1	-1E+10	1	-1E+10	1	-1E+10	1	-1E+10	1	-1E+10	1
4901784	212	C	04/24/2021	10:46	-135.794	42.948	0	644.80	0	4.3230	0	37.1330	4	29.454	0	638.693	0	17.1	4	5.6	4	-1E+10	1	-1E+10	1	-1E+10	1	-1E+10	1	-1E+10	1	-1E+10	1
4901784	212	C	04/24/2021	10:46	-135.794	42.948	0	650.10	0	4.3160	0	37.1380	4	29.459	0	643.934	0	16.5	4	5.4	4	-1E+10	1	-1E+10	1	-1E+10	1	-1E+10	1	-1E+10	1	-1E+10	1
4901784	212	C	04/24/2021	10:46	-135.794	42.948	0	655.60	0	4.2980	0	37.1450	4	29.466	0	649.374	0	16.0	4	5.2	4	-1E+10	1	-1E+10	1	-1E+10	1	-1E+10	1	-1E+10	1	-1E+10	1
4901784	212	C	04/24/2021	10:46	-135.794	42.948	0	660.20	0	4.2800	0	37.1490	4	29.472	0	653.923	0	15.6	4	5.1	4	-1E+10	1	-1E+10	1	-1E+10	1	-1E+10	1	-1E+10	1	-1E+10	1
4901784	212	C	04/24/2021	10:46	-135.794	42.948	0	664.90	0	4.2780	0	37.1560	4	29.477	0	658.571	0	15.1	4	4.9	4	-1E+10	1	-1E+10	1	-1E+10	1	-1E+10	1	-1E+10	1	-1E+10	1
4901784	212	C	04/24/2021	10:46	-135.794	42.948	0	670.60	0	4.2690	0	37.1620	4	29.483	0	664.207	0	14.7	4	4.8	4	-1E+10	1	-1E+10	1	-1E+10	1	-1E+10	1	-1E+10	1	-1E+10	1
4901784	212	C	04/24/2021	10:46	-135.794	42.948	0	676.00	0	4.2510	0	37.1690	4	29.491	0	669.547	0	14.3	4	4.7	4	-1E+10	1	-1E+10	1	-1E+10	1	-1E+10	1	-1E+10	1	-1E+10	1
4901784	212	C	04/24/2021	10:46	-135.794	42.948	0	680.30	0	4.2280	0	37.1720	4	29.496	0	673.799	0	14.0	4	4.6	4	-1E+10	1	-1E+10	1	-1E+10	1	-1E+10	1	-1E+10	1	-1E+10	1
4901784	212	C	04/24/2021	10:46	-135.794	42.948	0	685.20	0	4.2140	0	37.1810	4	29.505	0	678.644	0	13.7	4	4.4	4	-1E+10	1	-1E+10	1	-1E+10	1	-1E+10	1	-1E+10	1	-1E+10	1
4901784	212	C	04/24/2021	10:46	-135.794	42.948	0	690.00	0	4.1980	0	37.1850	4	29.510	0	683.390	0	13.5	4	4.4	4	-1E+10	1	-1E+10	1	-1E+10	1	-1E+10	1	-1E+10	1	-1E+10	1
4901784	212	C	04/24/2021	10:46	-135.794	42.948	0	695.00	0	4.1770	0	37.1880	4	29.514	0	688.334	0	13.4	4	4.3	4	-1E+10	1	-1E+10	1	-1E+10	1	-1E+10	1	-1E+10	1	-1E+10	1
4901784	212	C	04/24/2021	10:46	-135.794	42.948	0	699.90	0	4.1440	0	37.1920	4	29.521	0	693.179	0	13.2	4	4.3	4	-1E+10	1	-1E+10	1	-1E+10	1	-1E+10	1	-1E+10	1	-1E+10	1
4901784	212	C	04/24/2021	10:46	-135.794	42.948	0	704.80	0	4.1260	0	37.1960	4	29.527	0	698.024	0	13.0	4	4.2	4	-1E+10	1	-1E+10	1	-1E+10	1	-1E+10	1	-1E+10	1	-1E+10	1
4901784	212	C	04/24/2021	10:46	-135.794	42.948	0	709.80	0	4.1170	0	37.2010	4	29.532	0	702.967	0	12.8	4	4.1	4	-1E+10	1	-1E+10	1	-1E+10	1	-1E+10	1	-1E+10	1	-1E+10	1
4901784	212	C	04/24/2021	10:46	-135.794	42.948	0	714.80	0	4.1070	0	37.2060	4	29.537	0	707.911	0	12.6	4	4.1	4	-1E+10	1	-1E+10	1	-1E+10	1	-1E+10	1	-1E+10	1	-1E+10	1
4901784	212	C	04/24/2021	10:46	-135.794	42.948	0	719.90	0	4.0950	0	37.2110	4	29.542	0	712.953	0	12.5	4	4.0	4	-1E+10	1	-1E+10	1	-1E+10	1	-1E+10	1	-1E+10	1	-1E+10	1
4901784	212	C	04/24/2021	10:46	-135.794	42.948	0	724.90	0	4.0910	0	37.2130	4	29.544	0	717.896	0	12.4	4	4.0	4	-1E+10	1	-1E+10	1	-1E+10	1	-1E+10	1	-1E+10	1	-1E+10	1
4901784	212	C	04/24/2021	10:46	-135.794	42.948	0	730.00	0	4.0850	0	37.2150	4	29.547	0	722.938	0	12.3	4	4.0	4	-1E+10	1	-1E+10	1	-1E+10	1	-1E+10	1	-1E+10	1	-1E+10	1
4901784	212	C	04/24/2021	10:46	-135.794	42.948	0	735.20	0	4.0760	0	37.2170	4	29.549	0	728.079	0	12.3	4	4.0	4	-1E+10	1	-1E+10	1	-1E+10	1	-1E+10	1	-1E+10	1	-1E+10	1
4901784	212	C	04/24/2021	10:46	-135.794	42.948	0	740.40	0	4.0490	0	37.2190	4	29.554	0	733.219	0	12.3	4	4.0	4	-1E+10	1	-1E+10	1	-1E+10	1	-1E+10	1	-1E+10	1	-1E+10	1
4901784	212	C	04/24/2021	10:46	-135.794	42.948	0	745.60	0	4.0240	0	37.2220	4	29.559	0	738.359	0	12.3	4	4.0	4	-1E+10	1	-1E+10	1	-1E+10	1	-1E+10	1	-1E+10	1	-1E+10	1
4901784	212	C	04/24/2021	10:46	-135.794	42.948	0	749.90	0	3.9940	0	37.2250	4	29.565	0	742.610	0	12.3	4	4.0	4	-1E+10	1	-1E+10	1	-1E+10	1	-1E+10	1	-1E+10	1	-1E+10	1
4901784	212	C	04/24/2021	10:46	-135.794	42.948	0	754.30	0	3.9820	0	37.2260	4	29.567	0	746.959	0	12.3	4	4.0	4	-1E+10	1	-1E+10	1	-1E+10	1	-1E+10	1	-1E+10	1	-1E+10	1
4901784	212	C	04/24/2021	10:46	-135.794	42.948	0	759.60	0	3.9580	0	37.2300	4	29.573	0	752.198	0	12.2	4	3.9	4	-1E+10	1	-1E+10	1	-1E+10	1	-1E+10	1	-1E+10	1	-1E+10	1
4901784	212	C	04/24/2021	10:46	-135.794	42.948	0	764.90	0	3.9440	0	37.2340	4	29.577	0	757.437	0	12.0	4	3.9	4	-1E+10	1	-1E+10	1	-1E+10	1	-1E+10	1	-1E+10	1	-1E+10	1
4901784	212	C	04/24/2021	10:46	-135.794	42.948	0	770.20	0	3.9350	0	37.2380	4	29.582	0	762.676	0	11.8	4	3.8	4	-1E+10	1	-1E+10	1	-1E+10	1	-1E+10	1	-1E+10	1	-1E+10	1
4901784	212	C	04/24/2021	10:46	-135.794	42.948	0	775.50	0	3.9140	0	37.2440	4	29.589	0	767.914	0	11.7	4	3.8	4	-1E+10	1	-1E+10	1	-1E+10	1	-1E+10	1	-1E+10	1	-1E+10	1
4901784	212	C	04/24/2021	10:46	-135.794	42.948	0	779.90	0	3.9070	0	37.2460	4	29.591	0	772.263	0	11.6	4	3.7	4	-1E+10	1	-1E+10	1	-1E+10	1	-1E+10	1	-1E+10	1	-1E+10	1
4901784	212	C	04/24/2021	10:46	-135.794	42.948	0	784.30	0	3.8940	0	37.2480	4	29.594	0	776.612	0	11.5	4	3.7	4	-1E+10	1	-1E+10	1	-1E+10	1	-1E+10	1	-1E+10	1	-1E+10	1
4901784	212	C	04/24/2021	10:46	-135.794	42.948	0	789.60	0	3.8800	0	37.2510	4	29.598	0	781.850	0	11.4	4	3.7	4	-1E+10	1	-1E+10	1	-1E+10	1	-1E+10	1	-1E+10	1	-1E+10	1
4901784	212	C	04/24/2021	10:46	-135.794	42.948	0	795.00	0	3.8710	0	37.2560	4	29.603	0	787.187	0	11.3	4	3.6	4	-1E+10	1	-1E+10	1	-1E+10	1	-1E+10	1	-1E+10	1	-1E+10	1
4901784	212	C	04/24/2021	10:46	-135.794	42.948	0	800.30	0	3.8690	0	37.2580	4	29.605	0	792.424	0	11.2	4	3.6	4	-1E+10	1	-1E+10	1	-1E+10	1	-1E+10	1	-1E+10	1	-1E+10	1
4901784	212	C	04/24/2021	10:46	-135.794	42.948	0	804.80	0	3.8550	0	37.2630	4	29.611	0	796.872	0	11.1	4	3.6	4	-1E+10	1	-1E+10	1	-1E+10	1	-1E+10	1	-1E+10	1	-1E+10	1
4901784	212	C	04/24/2021	10:46	-135.794	42.948	0	809.40	0	3.8430	0	37.2660	4	29.614	0	801.418	0	11.0	4	3.5	4	-1E+10	1	-1E+10	1	-1E+10	1	-1E+10	1	-1E+10	1	-1E+10	1
4901784	212	C	04/24/2021	10:46	-135.794	42.948	0	814.80	0	3.8320	0	37.2710	4	29.620	0	806.754	0	10.8	4	3.5	4	-1E+10	1	-1E+10	1	-1E+10	1	-1E+10	1	-1E+10	1	-1E+10	1
4901784	212	C	04/24/2021	10:46	-135.794	42.948	0	820.30	0	3.8200	0	37.2780	4	29.626	0	812.189	0	10.7	4	3.4	4	-1E+10	1	-1E+10	1	-1E+10	1	-1E+10	1	-1E+10	1	-1E+10	1
4901784	212	C	04/24/2021	10:46	-135.794	42.948	0	825.00	0	3.8200	0	37.2810	4	29.629	0	816.833	0	10.6	4	3.4	4	-1E+10	1	-1E+10	1	-1E+10	1	-1E+10	1	-1E+10	1	-1E+10	1
4901784	212	C	04/24/2021	10:46	-135.794	42.948	0	829.80	0	3.8190	0	37.2840	4	29.631	0	821.576	0	10.5	4	3.4	4	-1E+10	1	-1E+10	1	-1E+10	1	-1E+10	1	-1E+10	1	-1E+10	1
4901784	212	C	04/24/2021	10:46	-135.794	42.948	0	835.40	0	3.8140	0	37.2910	4	29.638	0	827.110	0	10.3	4	3.3	4	-1E+10	1	-1E+10	1	-1E+10	1	-1E+10	1	-1E+10	1	-1E+10	1
4901784	212	C	04/24/2021	10:46	-135.794	42.948	0	840.10	0	3.8070	0	37.2950	4	29.642	0	831.754	0	10.2	4	3.3	4	-1E+10	1	-1E+10	1	-1E+10	1	-1E+10	1	-1E+10	1	-1E+10	1
4901784	212	C	04/24/2021	10:46	-135.794	42.948	0	844.90	0	3.7990	0	37.3000	4	29.646	0	836.496	0	10.2	4	3.3	4	-1E+10	1	-1E+10	1	-1E+10	1	-1E+10	1	-1E+10	1	-1E+10	1
4901784	212	C	04/24/2021	10:46	-135.794	42.948	0	850.60	0	3.7930	0	37.3060	4	29.652	0	842.128	0	10.1	4	3.2	4	-1E+10	1	-1E+10	1	-1E+10	1	-1E+10	1	-1E+10	1	-1E+10	1
4901784	212	C	04/24/2021	10:46	-135.794	42.948	0	856.00	0	3.7770	0	37.3110	4	29.658	0	847.463	0	10.1	4	3.2	4	-1E+10	1	-1E+10	1	-1E+10	1	-1E+10	1	-1E+10	1	-1E+10	1
4901784	212	C	04/24/2021	10:46	-135.794	42.948	0	860.20	0	3.7740	0	37.3120	4	29.659	0	851.613	0	10.1	4	3.2	4	-1E+10	1	-1E+10	1	-1E+10	1	-1E+10	1	-1E+10	1	-1E+10	1
4901784	212	C	04/24/2021	10:46	-135.794	42.948	0	865.10	0	3.7630	0	37.3140	4	29.662	0	856.454	0	10.1	4	3.2	4	-1E+10	1	-1E+10	1	-1E+10	1	-1E+10	1	-1E+10	1	-1E+10	1
4901784	212	C	04/24/2021	10:46	-135.794	42.948	0	870.00	0	3.7550	0	37.3150	4	29.663	0	861.295	0	10.1	4	3.2	4	-1E+10	1	-1E+10	1	-1E+10	1	-1E+10	1	-1E+10	1	-1E+10	1
4901784	212	C	04/24/2021	10:46	-135.794	42.948	0	875.00	0	3.7430	0	37.3210	4	29.670	0	866.235	0	10.0	4	3.2	4	-1E+10	1	-1E+10	1	-1E+10	1	-1E+10	1	-1E+10	1	-1E+10	1
4901784	212	C	04/24/2021	10:46	-135.794	42.948	0	880.00	0	3.7330	0	37.3240	4	29.673	0	871.174	0	10.0	4	3.2	4	-1E+10	1	-1E+10	1	-1E+10	1	-1E+10	1	-1E+10	1	-1E+10	1
4901784	212	C	04/24/2021	10:46	-135.794	42.948	0	885.10	0	3.7230	0	37.3280	4	29.677	0	876.212	0	10.0	4	3.2	4	-1E+10	1	-1E+10	1	-1E+10	1	-1E+10	1	-1E+10	1	-1E+10	1
4901784	212	C	04/24/2021	10:46	-135.794	42.948	0	890.10	0	3.7080	0	37.3330	4	29.683	0	881.152	0	10.0	4	3.2	4	-1E+10	1	-1E+10	1	-1E+10	1	-1E+10	1	-1E+10	1	-1E+10	1
4901784	212	C	04/24/2021	10:46	-135.794	42.948	0	895.10	0	3.7020	0	37.3340	4	29.684	0	886.091	0	10.0	4	3.2	4	-1E+10	1	-1E+10	1	-1E+10	1	-1E+10	1	-1E+10	1	-1E+10	1
4901784	212	C	04/24/2021	10:46	-135.794	42.948	0	900.10	0	3.7000	0	37.3350	4	29.685	0	891.030	0	10.0	4	3.2	4	-1E+10	1	-1E+10	1	-1E+10	1	-1E+10	1	-1E+10	1	-1E+10	1
4901784	212	C	04/24/2021	10:46	-135.794	42.948	0	905.20	0	3.6980	0	37.3360	4	29.687	0	896.067	0	10.0	4	3.2	4	-1E+10	1	-1E+10	1	-1E+10	1	-1E+10	1	-1E+10	1	-1E+10	1
4901784	212	C	04/24/2021	10:46	-135.794	42.948	0	910.30	0	3.6810	0	37.3420	4	29.693	0	901.105	0	10.0	4	3.2	4	-1E+10	1	-1E+10	1	-1E+10	1	-1E+10	1	-1E+10	1	-1E+10	1
4901784	212	C	04/24/2021	10:46	-135.794	42.948	0	915.40	0	3.6770	0	37.3440	4	29.695	0	906.142	0	10.0	4	3.2	4	-1E+10	1	-1E+10	1	-1E+10	1	-1E+10	1	-1E+10	1	-1E+10	1
4901784	212	C	04/24/2021	10:46	-135.794	42.948	0	920.50	0	3.6690	0	37.3440	4	29.696	0	911.180	0	10.0	4	3.2	4	-1E+10	1	-1E+10	1	-1E+10	1	-1E+10	1	-1E+10	1	-1E+10	1
4901784	212	C	04/24/2021	10:46	-135.794	42.948	0	925.50	0	3.6560	0	37.3460	4	29.699	0	916.118	0	10.0	4	3.2	4	-1E+10	1	-1E+10	1	-1E+10	1	-1E+10	1	-1E+10	1	-1E+10	1
4901784	212	C	04/24/2021	10:46	-135.794	42.948	0	930.70	0	3.6460	0	37.3490	4	29.703	0	921.254	0	10.0	4	3.2	4	-1E+10	1	-1E+10	1	-1E+10	1	-1E+10	1	-1E+10	1	-1E+10	1
4901784	212	C	04/24/2021	10:46	-135.794	42.948	0	935.10	0	3.6400	0	37.3520	4	29.706	0	925.600	0	10.0	4	3.2	4	-1E+10	1	-1E+10	1	-1E+10	1	-1E+10	1	-1E+10	1	-1E+10	1
4901784	212	C	04/24/2021	10:46	-135.794	42.948	0	939.50	0	3.6390	0	37.3540	4	29.707	0	929.945	0	10.0	4	3.2	4	-1E+10	1	-1E+10	1	-1E+10	1	-1E+10	1	-1E+10	1	-1E+10	1
4901784	212	C	04/24/2021	10:46	-135.794	42.948	0	944.80	0	3.6310	0	37.3570	4	29.711	0	935.179	0	10.1	4	3.2	4	-1E+10	1	-1E+10	1	-1E+10	1	-1E+10	1	-1E+10	1	-1E+10	1
4901784	212	C	04/24/2021	10:46	-135.794	42.948	0	950.10	0	3.6220	0	37.3600	4	29.714	0	940.414	0	10.1	4	3.2	4	-1E+10	1	-1E+10	1	-1E+10	1	-1E+10	1	-1E+10	1	-1E+10	1
4901784	212	C	04/24/2021	10:46	-135.794	42.948	0	955.40	0	3.6130	0	37.3620	4	29.717	0	945.648	0	10.1	4	3.2	4	-1E+10	1	-1E+10	1	-1E+10	1	-1E+10	1	-1E+10	1	-1E+10	1
4901784	212	C	04/24/2021	10:46	-135.794	42.948	0	959.90	0	3.6060	0	37.3640	4	29.719	0	950.092	0	10.1	4	3.2	4	-1E+10	1	-1E+10	1	-1E+10	1	-1E+10	1	-1E+10	1	-1E+10	1
4901784	212	C	04/24/2021	10:46	-135.794	42.948	0	964.40	0	3.5990	0	37.3670	4	29.722	0	954.535	0	10.1	4	3.2	4	-1E+10	1	-1E+10	1	-1E+10	1	-1E+10	1	-1E+10	1	-1E+10	1
4901784	212	C	04/24/2021	10:46	-135.794	42.948	0	969.80	0	3.5830	0	37.3690	4	29.726	0	959.868	0	10.2	4	3.3	4	-1E+10	1	-1E+10	1	-1E+10	1	-1E+10	1	-1E+10	1	-1E+10	1
4901784	212	C	04/24/2021	10:46	-135.794	42.948	0	975.30	0	3.5650	0	37.3730	4	29.731	0	965.299	0	10.2	4	3.3	4	-1E+10	1	-1E+10	1	-1E+10	1	-1E+10	1	-1E+10	1	-1E+10	1
4901784	212	C	04/24/2021	10:46	-135.794	42.948	0	979.80	0	3.5400	0	37.3770	4	29.737	0	969.742	0	10.3	4	3.3	4	-1E+10	1	-1E+10	1	-1E+10	1	-1E+10	1	-1E+10	1	-1E+10	1
4901784	212	C	04/24/2021	10:46	-135.794	42.948	0	984.30	0	3.5140	0	37.3810	4	29.742	0	974.185	0	10.3	4	3.3	4	-1E+10	1	-1E+10	1	-1E+10	1	-1E+10	1	-1E+10	1	-1E+10	1
4901784	212	C	04/24/2021	10:46	-135.794	42.948	0	989.90	0	3.5140	0	37.3850	4	29.746	0	979.715	0	10.4	4	3.3	4	-1E+10	1	-1E+10	1	-1E+10	1	-1E+10	1	-1E+10	1	-1E+10	1
4901784	212	C	04/24/2021	10:46	-135.794	42.948	0	995.40	0	3.5060	0	37.3880	4	29.749	0	985.145	0	10.5	4	3.4	4	-1E+10	1	-1E+10	1	-1E+10	1	-1E+10	1	-1E+10	1	-1E+10	1
4901784	212	C	04/24/2021	10:46	-135.794	42.948	0	1000.00	0	3.4950	0	37.3910	4	29.753	0	989.687	0	10.5	4	3.4	4	-1E+10	1	-1E+10	1	-1E+10	1	-1E+10	1	-1E+10	1	-1E+10	1
4901784	212	C	04/24/2021	10:46	-135.794	42.948	0	1004.70	0	3.4880	0	37.3930	4	29.755	0	994.327	0	10.5	4	3.4	4	-1E+10	1	-1E+10	1	-1E+10	1	-1E+10	1	-1E+10	1	-1E+10	1
4901784	212	C	04/24/2021	10:46	-135.794	42.948	0	1010.30	0	3.4740	0	37.3930	4	29.756	0	999.856	0	10.5	4	3.4	4	-1E+10	1	-1E+10	1	-1E+10	1	-1E+10	1	-1E+10	1	-1E+10	1
4901784	212	C	04/24/2021	10:46	-135.794	42.948	0	1015.10	0	3.4340	0	37.3970	4	29.764	0	1004.595	0	10.6	4	3.4	4	-1E+10	1	-1E+10	1	-1E+10	1	-1E+10	1	-1E+10	1	-1E+10	1
4901784	212	C	04/24/2021	10:46	-135.794	42.948	0	1019.80	0	3.4170	0	37.4000	4	29.768	0	1009.235	0	10.7	4	3.4	4	-1E+10	1	-1E+10	1	-1E+10	1	-1E+10	1	-1E+10	1	-1E+10	1
4901784	212	C	04/24/2021	10:46	-135.794	42.948	0	1025.10	0	3.3940	0	37.4060	4	29.775	0	1014.467	0	10.8	4	3.4	4	-1E+10	1	-1E+10	1	-1E+10	1	-1E+10	1	-1E+10	1	-1E+10	1
4901784	212	C	04/24/2021	10:46	-135.794	42.948	0	1030.10	0	3.3790	0	37.4090	4	29.779	0	1019.403	0	10.9	4	3.5	4	-1E+10	1	-1E+10	1	-1E+10	1	-1E+10	1	-1E+10	1	-1E+10	1
4901784	212	C	04/24/2021	10:46	-135.794	42.948	0	1035.70	0	3.3630	0	37.4130	4	29.784	0	1024.932	0	11.0	4	3.5	4	-1E+10	1	-1E+10	1	-1E+10	1	-1E+10	1	-1E+10	1	-1E+10	1
4901784	212	C	04/24/2021	10:46	-135.794	42.948	0	1040.60	0	3.3510	0	37.4180	4	29.789	0	1029.769	0	11.1	4	3.5	4	-1E+10	1	-1E+10	1	-1E+10	1	-1E+10	1	-1E+10	1	-1E+10	1
4901784	212	C	04/24/2021	10:46	-135.794	42.948	0	1045.50	0	3.3490	0	37.4190	4	29.790	0	1034.606	0	11.2	4	3.6	4	-1E+10	1	-1E+10	1	-1E+10	1	-1E+10	1	-1E+10	1	-1E+10	1
4901784	212	C	04/24/2021	10:46	-135.794	42.948	0	1050.40	0	3.3430	0	37.4210	4	29.793	0	1039.442	0	11.2	4	3.6	4	-1E+10	1	-1E+10	1	-1E+10	1	-1E+10	1	-1E+10	1	-1E+10	1
4901784	212	C	04/24/2021	10:46	-135.794	42.948	0	1055.40	0	3.3360	0	37.4230	4	29.795	0	1044.378	0	11.3	4	3.6	4	-1E+10	1	-1E+10	1	-1E+10	1	-1E+10	1	-1E+10	1	-1E+10	1
4901784	212	C	04/24/2021	10:46	-135.794	42.948	0	1060.40	0	3.3280	0	37.4240	4	29.797	0	1049.313	0	11.3	4	3.6	4	-1E+10	1	-1E+10	1	-1E+10	1	-1E+10	1	-1E+10	1	-1E+10	1
4901784	212	C	04/24/2021	10:46	-135.794	42.948	0	1065.40	0	3.3180	0	37.4270	4	29.800	0	1054.248	0	11.4	4	3.6	4	-1E+10	1	-1E+10	1	-1E+10	1	-1E+10	1	-1E+10	1	-1E+10	1
4901784	212	C	04/24/2021	10:46	-135.794	42.948	0	1070.40	0	3.3070	0	37.4290	4	29.803	0	1059.183	0	11.6	4	3.7	4	-1E+10	1	-1E+10	1	-1E+10	1	-1E+10	1	-1E+10	1	-1E+10	1
4901784	212	C	04/24/2021	10:46	-135.794	42.948	0	1075.50	0	3.2900	0	37.4340	4	29.809	0	1064.217	0	11.7	4	3.7	4	-1E+10	1	-1E+10	1	-1E+10	1	-1E+10	1	-1E+10	1	-1E+10	1
4901784	212	C	04/24/2021	10:46	-135.794	42.948	0	1080.60	0	3.2800	0	37.4360	4	29.811	0	1069.250	0	11.8	4	3.7	4	-1E+10	1	-1E+10	1	-1E+10	1	-1E+10	1	-1E+10	1	-1E+10	1
4901784	212	C	04/24/2021	10:46	-135.794	42.948	0	1085.70	0	3.2760	0	37.4380	4	29.813	0	1074.284	0	11.8	4	3.8	4	-1E+10	1	-1E+10	1	-1E+10	1	-1E+10	1	-1E+10	1	-1E+10	1
4901784	212	C	04/24/2021	10:46	-135.794	42.948	0	1089.90	0	3.2730	0	37.4380	4	29.814	0	1078.429	0	11.9	4	3.8	4	-1E+10	1	-1E+10	1	-1E+10	1	-1E+10	1	-1E+10	1	-1E+10	1
4901784	212	C	04/24/2021	10:46	-135.794	42.948	0	1094.30	0	3.2670	0	37.4400	4	29.816	0	1082.771	0	11.9	4	3.8	4	-1E+10	1	-1E+10	1	-1E+10	1	-1E+10	1	-1E+10	1	-1E+10	1
4901784	212	C	04/24/2021	10:46	-135.794	42.948	0	1099.40	0	3.2550	0	37.4420	4	29.819	0	1087.804	0	12.0	4	3.8	4	-1E+10	1	-1E+10	1	-1E+10	1	-1E+10	1	-1E+10	1	-1E+10	1
4901784	212	C	04/24/2021	10:46	-135.794	42.948	0	1104.60	0	3.2480	0	37.4430	4	29.820	0	1092.936	0	12.1	4	3.9	4	-1E+10	1	-1E+10	1	-1E+10	1	-1E+10	1	-1E+10	1	-1E+10	1
4901784	212	C	04/24/2021	10:46	-135.794	42.948	0	1109.70	0	3.2380	0	37.4470	4	29.825	0	1097.969	0	12.3	4	3.9	4	-1E+10	1	-1E+10	1	-1E+10	1	-1E+10	1	-1E+10	1	-1E+10	1
4901784	212	C	04/24/2021	10:46	-135.794	42.948	0	1115.10	0	3.2290	0	37.4490	4	29.827	0	1103.297	0	12.4	4	3.9	4	-1E+10	1	-1E+10	1	-1E+10	1	-1E+10	1	-1E+10	1	-1E+10	1
4901784	212	C	04/24/2021	10:46	-135.794	42.948	0	1120.60	0	3.2190	0	37.4530	4	29.831	0	1108.725	0	12.5	4	4.0	4	-1E+10	1	-1E+10	1	-1E+10	1	-1E+10	1	-1E+10	1	-1E+10	1
4901784	212	C	04/24/2021	10:46	-135.794	42.948	0	1125.30	0	3.2190	0	37.4530	4	29.831	0	1113.363	0	12.5	4	4.0	4	-1E+10	1	-1E+10	1	-1E+10	1	-1E+10	1	-1E+10	1	-1E+10	1
4901784	212	C	04/24/2021	10:46	-135.794	42.948	0	1130.10	0	3.2150	0	37.4530	4	29.832	0	1118.099	0	12.6	4	4.0	4	-1E+10	1	-1E+10	1	-1E+10	1	-1E+10	1	-1E+10	1	-1E+10	1
4901784	212	C	04/24/2021	10:46	-135.794	42.948	0	1134.90	0	3.2030	0	37.4560	4	29.835	0	1122.835	0	12.7	4	4.0	4	-1E+10	1	-1E+10	1	-1E+10	1	-1E+10	1	-1E+10	1	-1E+10	1
4901784	212	C	04/24/2021	10:46	-135.794	42.948	0	1139.80	0	3.1870	0	37.4590	4	29.839	0	1127.670	0	12.8	4	4.1	4	-1E+10	1	-1E+10	1	-1E+10	1	-1E+10	1	-1E+10	1	-1E+10	1
4901784	212	C	04/24/2021	10:46	-135.794	42.948	0	1144.80	0	3.1720	0	37.4600	4	29.842	0	1132.603	0	12.9	4	4.1	4	-1E+10	1	-1E+10	1	-1E+10	1	-1E+10	1	-1E+10	1	-1E+10	1
4901784	212	C	04/24/2021	10:46	-135.794	42.948	0	1149.80	0	3.1580	0	37.4640	4	29.846	0	1137.536	0	13.0	4	4.1	4	-1E+10	1	-1E+10	1	-1E+10	1	-1E+10	1	-1E+10	1	-1E+10	1
4901784	212	C	04/24/2021	10:46	-135.794	42.948	0	1154.70	0	3.1460	0	37.4660	4	29.849	0	1142.371	0	13.1	4	4.2	4	-1E+10	1	-1E+10	1	-1E+10	1	-1E+10	1	-1E+10	1	-1E+10	1
4901784	212	C	04/24/2021	10:46	-135.794	42.948	0	1159.70	0	3.1330	0	37.4680	4	29.852	0	1147.304	0	13.2	4	4.2	4	-1E+10	1	-1E+10	1	-1E+10	1	-1E+10	1	-1E+10	1	-1E+10	1
4901784	212	C	04/24/2021	10:46	-135.794	42.948	0	1164.70	0	3.1270	0	37.4700	4	29.854	0	1152.236	0	13.3	4	4.2	4	-1E+10	1	-1E+10	1	-1E+10	1	-1E+10	1	-1E+10	1	-1E+10	1
4901784	212	C	04/24/2021	10:46	-135.794	42.948	0	1169.90	0	3.1200	0	37.4720	4	29.857	0	1157.367	0	13.5	4	4.3	4	-1E+10	1	-1E+10	1	-1E+10	1	-1E+10	1	-1E+10	1	-1E+10	1
4901784	212	C	04/24/2021	10:46	-135.794	42.948	0	1174.90	0	3.1060	0	37.4740	4	29.860	0	1162.299	0	13.6	4	4.3	4	-1E+10	1	-1E+10	1	-1E+10	1	-1E+10	1	-1E+10	1	-1E+10	1
4901784	212	C	04/24/2021	10:46	-135.794	42.948	0	1180.00	0	3.0960	0	37.4770	4	29.863	0	1167.330	0	13.7	4	4.4	4	-1E+10	1	-1E+10	1	-1E+10	1	-1E+10	1	-1E+10	1	-1E+10	1
4901784	212	C	04/24/2021	10:46	-135.794	42.948	0	1185.20	0	3.0910	0	37.4780	4	29.865	0	1172.460	0	13.9	4	4.4	4	-1E+10	1	-1E+10	1	-1E+10	1	-1E+10	1	-1E+10	1	-1E+10	1
4901784	212	C	04/24/2021	10:46	-135.794	42.948	0	1190.30	0	3.0770	0	37.8770	4	30.185	0	1177.491	0	14.0	4	4.5	4	-1E+10	1	-1E+10	1	-1E+10	1	-1E+10	1	-1E+10	1	-1E+10	1
4901784	212	C	04/24/2021	10:46	-135.794	42.948	0	1195.60	0	3.0680	0	38.1610	4	30.413	0	1182.719	0	14.1	4	4.5	4	-1E+10	1	-1E+10	1	-1E+10	1	-1E+10	1	-1E+10	1	-1E+10	1
4901784	212	C	04/24/2021	10:46	-135.794	42.948	0	1199.90	0	3.0540	0	38.1730	4	30.424	0	1186.961	0	14.3	4	4.6	4	-1E+10	1	-1E+10	1	-1E+10	1	-1E+10	1	-1E+10	1	-1E+10	1
4901784	212	C	04/24/2021	10:46	-135.794	42.948	0	1204.30	0	3.0450	0	38.1790	4	30.430	0	1191.301	0	14.4	4	4.6	4	-1E+10	1	-1E+10	1	-1E+10	1	-1E+10	1	-1E+10	1	-1E+10	1
4901784	212	C	04/24/2021	10:46	-135.794	42.948	0	1209.60	0	3.0360	0	38.1830	4	30.434	0	1196.528	0	14.6	4	4.6	4	-1E+10	1	-1E+10	1	-1E+10	1	-1E+10	1	-1E+10	1	-1E+10	1
4901784	212	C	04/24/2021	10:46	-135.794	42.948	0	1214.90	0	3.0230	0	38.1880	4	30.439	0	1201.756	0	14.8	4	4.7	4	-1E+10	1	-1E+10	1	-1E+10	1	-1E+10	1	-1E+10	1	-1E+10	1
4901784	212	C	04/24/2021	10:46	-135.794	42.948	0	1220.30	0	3.0130	0	38.1920	4	30.444	0	1207.082	0	14.9	4	4.7	4	-1E+10	1	-1E+10	1	-1E+10	1	-1E+10	1	-1E+10	1	-1E+10	1
4901784	212	C	04/24/2021	10:46	-135.794	42.948	0	1225.70	0	3.0010	0	38.1950	4	30.447	0	1212.408	0	15.1	4	4.8	4	-1E+10	1	-1E+10	1	-1E+10	1	-1E+10	1	-1E+10	1	-1E+10	1
4901784	212	C	04/24/2021	10:46	-135.794	42.948	0	1230.20	0	2.9940	0	38.1970	4	30.450	0	1216.846	0	15.2	4	4.8	4	-1E+10	1	-1E+10	1	-1E+10	1	-1E+10	1	-1E+10	1	-1E+10	1
4901784	212	C	04/24/2021	10:46	-135.794	42.948	0	1234.70	0	2.9860	0	38.1990	4	30.452	0	1221.284	0	15.4	4	4.9	4	-1E+10	1	-1E+10	1	-1E+10	1	-1E+10	1	-1E+10	1	-1E+10	1
4901784	212	C	04/24/2021	10:46	-135.794	42.948	0	1240.00	0	2.9770	0	38.2020	4	30.455	0	1226.511	0	15.6	4	5.0	4	-1E+10	1	-1E+10	1	-1E+10	1	-1E+10	1	-1E+10	1	-1E+10	1
4901784	212	C	04/24/2021	10:46	-135.794	42.948	0	1245.00	0	2.9620	0	38.2050	4	30.459	0	1231.442	0	15.9	4	5.0	4	-1E+10	1	-1E+10	1	-1E+10	1	-1E+10	1	-1E+10	1	-1E+10	1
4901784	212	C	04/24/2021	10:46	-135.794	42.948	0	1250.00	0	2.9470	0	38.2080	4	30.463	0	1236.373	0	16.0	4	5.1	4	-1E+10	1	-1E+10	1	-1E+10	1	-1E+10	1	-1E+10	1	-1E+10	1
4901784	212	C	04/24/2021	10:46	-135.794	42.948	0	1255.10	0	2.9390	0	38.2100	4	30.466	0	1241.402	0	16.2	4	5.2	4	-1E+10	1	-1E+10	1	-1E+10	1	-1E+10	1	-1E+10	1	-1E+10	1
4901784	212	C	04/24/2021	10:46	-135.794	42.948	0	1260.10	0	2.9240	0	38.2130	4	30.470	0	1246.333	0	16.4	4	5.2	4	-1E+10	1	-1E+10	1	-1E+10	1	-1E+10	1	-1E+10	1	-1E+10	1
4901784	212	C	04/24/2021	10:46	-135.794	42.948	0	1265.20	0	2.9160	0	38.2150	4	30.472	0	1251.362	0	16.6	4	5.2	4	-1E+10	1	-1E+10	1	-1E+10	1	-1E+10	1	-1E+10	1	-1E+10	1
4901784	212	C	04/24/2021	10:46	-135.794	42.948	0	1270.30	0	2.9100	0	38.2170	4	30.474	0	1256.391	0	16.7	4	5.3	4	-1E+10	1	-1E+10	1	-1E+10	1	-1E+10	1	-1E+10	1	-1E+10	1
4901784	212	C	04/24/2021	10:46	-135.794	42.948	0	1275.30	0	2.9030	0	38.2180	4	30.476	0	1261.322	0	16.8	4	5.3	4	-1E+10	1	-1E+10	1	-1E+10	1	-1E+10	1	-1E+10	1	-1E+10	1
4901784	212	C	04/24/2021	10:46	-135.794	42.948	0	1280.50	0	2.8950	0	38.2190	4	30.477	0	1266.449	0	17.0	4	5.4	4	-1E+10	1	-1E+10	1	-1E+10	1	-1E+10	1	-1E+10	1	-1E+10	1
4901784	212	C	04/24/2021	10:46	-135.794	42.948	0	1285.70	0	2.8840	0	38.2220	4	30.481	0	1271.576	0	17.3	4	5.5	4	-1E+10	1	-1E+10	1	-1E+10	1	-1E+10	1	-1E+10	1	-1E+10	1
4901784	212	C	04/24/2021	10:46	-135.794	42.948	0	1290.00	0	2.8690	0	38.2250	4	30.485	0	1275.816	0	17.5	4	5.6	4	-1E+10	1	-1E+10	1	-1E+10	1	-1E+10	1	-1E+10	1	-1E+10	1
4901784	212	C	04/24/2021	10:46	-135.794	42.948	0	1294.30	0	2.8580	0	38.2270	4	30.488	0	1280.056	0	17.7	4	5.6	4	-1E+10	1	-1E+10	1	-1E+10	1	-1E+10	1	-1E+10	1	-1E+10	1
4901784	212	C	04/24/2021	10:46	-135.794	42.948	0	1299.50	0	2.8470	0	38.2300	4	30.491	0	1285.182	0	17.9	4	5.7	4	-1E+10	1	-1E+10	1	-1E+10	1	-1E+10	1	-1E+10	1	-1E+10	1
4901784	212	C	04/24/2021	10:46	-135.794	42.948	0	1304.80	0	2.8430	0	38.2310	4	30.492	0	1290.408	0	18.0	4	5.7	4	-1E+10	1	-1E+10	1	-1E+10	1	-1E+10	1	-1E+10	1	-1E+10	1
4901784	212	C	04/24/2021	10:46	-135.794	42.948	0	1310.10	0	2.8370	0	38.2320	4	30.494	0	1295.633	0	18.2	4	5.8	4	-1E+10	1	-1E+10	1	-1E+10	1	-1E+10	1	-1E+10	1	-1E+10	1
4901784	212	C	04/24/2021	10:46	-135.794	42.948	0	1315.50	0	2.8260	0	38.2340	4	30.496	0	1300.957	0	18.5	4	5.9	4	-1E+10	1	-1E+10	1	-1E+10	1	-1E+10	1	-1E+10	1	-1E+10	1
4901784	212	C	04/24/2021	10:46	-135.794	42.948	0	1319.90	0	2.8140	0	38.2370	4	30.500	0	1305.295	0	18.7	4	5.9	4	-1E+10	1	-1E+10	1	-1E+10	1	-1E+10	1	-1E+10	1	-1E+10	1
4901784	212	C	04/24/2021	10:46	-135.794	42.948	0	1324.40	0	2.8070	0	38.2380	4	30.502	0	1309.731	0	18.9	4	6.0	4	-1E+10	1	-1E+10	1	-1E+10	1	-1E+10	1	-1E+10	1	-1E+10	1
4901784	212	C	04/24/2021	10:46	-135.794	42.948	0	1329.80	0	2.7930	0	38.2420	4	30.506	0	1315.054	0	19.1	4	6.0	4	-1E+10	1	-1E+10	1	-1E+10	1	-1E+10	1	-1E+10	1	-1E+10	1
4901784	212	C	04/24/2021	10:46	-135.794	42.948	0	1335.20	0	2.7900	0	38.2430	4	30.507	0	1320.377	0	19.2	4	6.1	4	-1E+10	1	-1E+10	1	-1E+10	1	-1E+10	1	-1E+10	1	-1E+10	1
4901784	212	C	04/24/2021	10:46	-135.794	42.948	0	1340.70	0	2.7850	0	38.2440	4	30.509	0	1325.799	0	19.4	4	6.1	4	-1E+10	1	-1E+10	1	-1E+10	1	-1E+10	1	-1E+10	1	-1E+10	1
4901784	212	C	04/24/2021	10:46	-135.794	42.948	0	1345.20	0	2.7800	0	38.2450	4	30.510	0	1330.235	0	19.5	4	6.2	4	-1E+10	1	-1E+10	1	-1E+10	1	-1E+10	1	-1E+10	1	-1E+10	1
4901784	212	C	04/24/2021	10:46	-135.794	42.948	0	1349.80	0	2.7740	0	38.2470	4	30.512	0	1334.769	0	19.7	4	6.2	4	-1E+10	1	-1E+10	1	-1E+10	1	-1E+10	1	-1E+10	1	-1E+10	1
4901784	212	C	04/24/2021	10:46	-135.794	42.948	0	1355.30	0	2.7650	0	38.2490	4	30.515	0	1340.190	0	20.0	4	6.3	4	-1E+10	1	-1E+10	1	-1E+10	1	-1E+10	1	-1E+10	1	-1E+10	1
4901784	212	C	04/24/2021	10:46	-135.794	42.948	0	1359.80	0	2.7530	0	38.2510	4	30.518	0	1344.626	0	20.2	4	6.4	4	-1E+10	1	-1E+10	1	-1E+10	1	-1E+10	1	-1E+10	1	-1E+10	1
4901784	212	C	04/24/2021	10:46	-135.794	42.948	0	1364.40	0	2.7450	0	38.2530	4	30.520	0	1349.160	0	20.4	4	6.4	4	-1E+10	1	-1E+10	1	-1E+10	1	-1E+10	1	-1E+10	1	-1E+10	1
4901784	212	C	04/24/2021	10:46	-135.794	42.948	0	1369.90	0	2.7390	0	38.2540	4	30.521	0	1354.581	0	20.6	4	6.5	4	-1E+10	1	-1E+10	1	-1E+10	1	-1E+10	1	-1E+10	1	-1E+10	1
4901784	212	C	04/24/2021	10:46	-135.794	42.948	0	1375.50	0	2.7320	0	38.2560	4	30.524	0	1360.100	0	20.8	4	6.6	4	-1E+10	1	-1E+10	1	-1E+10	1	-1E+10	1	-1E+10	1	-1E+10	1
4901784	212	C	04/24/2021	10:46	-135.794	42.948	0	1380.20	0	2.7280	0	38.2570	4	30.525	0	1364.732	0	20.9	4	6.6	4	-1E+10	1	-1E+10	1	-1E+10	1	-1E+10	1	-1E+10	1	-1E+10	1
4901784	212	C	04/24/2021	10:46	-135.794	42.948	0	1384.80	0	2.7200	0	38.2590	4	30.527	0	1369.266	0	21.1	4	6.6	4	-1E+10	1	-1E+10	1	-1E+10	1	-1E+10	1	-1E+10	1	-1E+10	1
4901784	212	C	04/24/2021	10:46	-135.794	42.948	0	1390.50	0	2.7160	0	38.2600	4	30.529	0	1374.883	0	21.3	4	6.7	4	-1E+10	1	-1E+10	1	-1E+10	1	-1E+10	1	-1E+10	1	-1E+10	1
4901784	212	C	04/24/2021	10:46	-135.794	42.948	0	1394.60	0	2.7090	0	38.2620	4	30.531	0	1378.924	0	21.5	4	6.8	4	-1E+10	1	-1E+10	1	-1E+10	1	-1E+10	1	-1E+10	1	-1E+10	1
4901784	212	C	04/24/2021	10:46	-135.794	42.948	0	1399.60	0	2.6980	0	38.2640	4	30.534	0	1383.851	0	21.7	4	6.9	4	-1E+10	1	-1E+10	1	-1E+10	1	-1E+10	1	-1E+10	1	-1E+10	1
4901784	212	C	04/24/2021	10:46	-135.794	42.948	0	1404.50	0	2.6880	0	38.2660	4	30.536	0	1388.680	0	21.9	4	6.9	4	-1E+10	1	-1E+10	1	-1E+10	1	-1E+10	1	-1E+10	1	-1E+10	1
4901784	212	C	04/24/2021	10:46	-135.794	42.948	0	1409.50	0	2.6850	0	38.2670	4	30.537	0	1393.607	0	22.1	4	7.0	4	-1E+10	1	-1E+10	1	-1E+10	1	-1E+10	1	-1E+10	1	-1E+10	1
4901784	212	C	04/24/2021	10:46	-135.794	42.948	0	1414.50	0	2.6720	0	38.2690	4	30.540	0	1398.534	0	22.5	4	7.1	4	-1E+10	1	-1E+10	1	-1E+10	1	-1E+10	1	-1E+10	1	-1E+10	1
4901784	212	C	04/24/2021	10:46	-135.794	42.948	0	1419.50	0	2.6590	0	38.2710	4	30.543	0	1403.461	0	22.7	4	7.2	4	-1E+10	1	-1E+10	1	-1E+10	1	-1E+10	1	-1E+10	1	-1E+10	1
4901784	212	C	04/24/2021	10:46	-135.794	42.948	0	1424.60	0	2.6500	0	38.2730	4	30.546	0	1408.486	0	23.0	4	7.2	4	-1E+10	1	-1E+10	1	-1E+10	1	-1E+10	1	-1E+10	1	-1E+10	1
4901784	212	C	04/24/2021	10:46	-135.794	42.948	0	1429.70	0	2.6430	0	38.2750	4	30.548	0	1413.512	0	23.3	4	7.3	4	-1E+10	1	-1E+10	1	-1E+10	1	-1E+10	1	-1E+10	1	-1E+10	1
4901784	212	C	04/24/2021	10:46	-135.794	42.948	0	1434.80	0	2.6340	0	38.2770	4	30.550	0	1418.537	0	23.6	4	7.4	4	-1E+10	1	-1E+10	1	-1E+10	1	-1E+10	1	-1E+10	1	-1E+10	1
4901784	212	C	04/24/2021	10:46	-135.794	42.948	0	1440.00	0	2.6250	0	38.2780	4	30.552	0	1423.660	0	23.9	4	7.5	4	-1E+10	1	-1E+10	1	-1E+10	1	-1E+10	1	-1E+10	1	-1E+10	1
4901784	212	C	04/24/2021	10:46	-135.794	42.948	0	1445.00	0	2.6100	0	38.2820	4	30.557	0	1428.587	0	24.2	4	7.6	4	-1E+10	1	-1E+10	1	-1E+10	1	-1E+10	1	-1E+10	1	-1E+10	1
4901784	212	C	04/24/2021	10:46	-135.794	42.948	0	1450.00	0	2.6030	0	38.2830	4	30.558	0	1433.513	0	24.5	4	7.7	4	-1E+10	1	-1E+10	1	-1E+10	1	-1E+10	1	-1E+10	1	-1E+10	1
4901784	212	C	04/24/2021	10:46	-135.794	42.948	0	1455.10	0	2.5930	0	38.2860	4	30.562	0	1438.538	0	24.7	4	7.8	4	-1E+10	1	-1E+10	1	-1E+10	1	-1E+10	1	-1E+10	1	-1E+10	1
4901784	212	C	04/24/2021	10:46	-135.794	42.948	0	1460.20	0	2.5880	0	38.2870	4	30.563	0	1443.562	0	24.9	4	7.8	4	-1E+10	1	-1E+10	1	-1E+10	1	-1E+10	1	-1E+10	1	-1E+10	1
4901784	212	C	04/24/2021	10:46	-135.794	42.948	0	1465.30	0	2.5850	0	38.2880	4	30.564	0	1448.587	0	25.0	4	7.9	4	-1E+10	1	-1E+10	1	-1E+10	1	-1E+10	1	-1E+10	1	-1E+10	1
4901784	212	C	04/24/2021	10:46	-135.794	42.948	0	1470.60	0	2.5820	0	38.2890	4	30.565	0	1453.808	0	25.1	4	7.9	4	-1E+10	1	-1E+10	1	-1E+10	1	-1E+10	1	-1E+10	1	-1E+10	1
4901784	212	C	04/24/2021	10:46	-135.794	42.948	0	1474.90	0	2.5780	0	38.2910	4	30.567	0	1458.044	0	25.3	4	8.0	4	-1E+10	1	-1E+10	1	-1E+10	1	-1E+10	1	-1E+10	1	-1E+10	1
4901784	212	C	04/24/2021	10:46	-135.794	42.948	0	1479.30	0	2.5750	0	38.2910	4	30.568	0	1462.378	0	25.5	4	8.0	4	-1E+10	1	-1E+10	1	-1E+10	1	-1E+10	1	-1E+10	1	-1E+10	1
4901784	212	C	04/24/2021	10:46	-135.794	42.948	0	1484.70	0	2.5630	0	38.2930	4	30.570	0	1467.698	0	25.8	4	8.1	4	-1E+10	1	-1E+10	1	-1E+10	1	-1E+10	1	-1E+10	1	-1E+10	1
4901784	212	C	04/24/2021	10:46	-135.794	42.948	0	1490.10	0	2.5550	0	38.2950	4	30.573	0	1473.017	0	26.1	4	8.2	4	-1E+10	1	-1E+10	1	-1E+10	1	-1E+10	1	-1E+10	1	-1E+10	1
4901784	212	C	04/24/2021	10:46	-135.794	42.948	0	1495.50	0	2.5490	0	38.2960	4	30.574	0	1478.336	0	26.4	4	8.3	4	-1E+10	1	-1E+10	1	-1E+10	1	-1E+10	1	-1E+10	1	-1E+10	1
4901784	212	C	04/24/2021	10:46	-135.794	42.948	0	1500.10	0	2.5370	0	38.2980	4	30.577	0	1482.868	0	26.7	4	8.4	4	-1E+10	1	-1E+10	1	-1E+10	1	-1E+10	1	-1E+10	1	-1E+10	1
4901784	212	C	04/24/2021	10:46	-135.794	42.948	0	1504.70	0	2.5290	0	38.3000	4	30.579	0	1487.398	0	26.9	4	8.5	4	-1E+10	1	-1E+10	1	-1E+10	1	-1E+10	1	-1E+10	1	-1E+10	1
4901784	212	C	04/24/2021	10:46	-135.794	42.948	0	1510.20	0	2.5220	0	38.3020	4	30.582	0	1492.816	0	27.2	4	8.5	4	-1E+10	1	-1E+10	1	-1E+10	1	-1E+10	1	-1E+10	1	-1E+10	1
4901784	212	C	04/24/2021	10:46	-135.794	42.948	0	1515.60	0	2.5120	0	38.3030	4	30.583	0	1498.135	0	27.6	4	8.7	4	-1E+10	1	-1E+10	1	-1E+10	1	-1E+10	1	-1E+10	1	-1E+10	1
4901784	212	C	04/24/2021	10:46	-135.794	42.948	0	1520.20	0	2.5040	0	38.3050	4	30.586	0	1502.665	0	27.9	4	8.8	4	-1E+10	1	-1E+10	1	-1E+10	1	-1E+10	1	-1E+10	1	-1E+10	1
4901784	212	C	04/24/2021	10:46	-135.794	42.948	0	1524.70	0	2.4920	0	38.3070	4	30.589	0	1507.097	0	28.1	4	8.8	4	-1E+10	1	-1E+10	1	-1E+10	1	-1E+10	1	-1E+10	1	-1E+10	1
4901784	212	C	04/24/2021	10:46	-135.794	42.948	0	1530.20	0	2.4830	0	38.3090	4	30.591	0	1512.514	0	28.5	4	8.9	4	-1E+10	1	-1E+10	1	-1E+10	1	-1E+10	1	-1E+10	1	-1E+10	1
4901784	212	C	04/24/2021	10:46	-135.794	42.948	0	1534.80	0	2.4780	0	38.3100	4	30.592	0	1517.045	0	28.7	4	9.0	4	-1E+10	1	-1E+10	1	-1E+10	1	-1E+10	1	-1E+10	1	-1E+10	1
4901784	212	C	04/24/2021	10:46	-135.794	42.948	0	1539.40	0	2.4700	0	38.3110	4	30.594	0	1521.575	0	29.0	4	9.1	4	-1E+10	1	-1E+10	1	-1E+10	1	-1E+10	1	-1E+10	1	-1E+10	1
4901784	212	C	04/24/2021	10:46	-135.794	42.948	0	1545.00	0	2.4590	0	38.3140	4	30.597	0	1527.090	0	29.3	4	9.2	4	-1E+10	1	-1E+10	1	-1E+10	1	-1E+10	1	-1E+10	1	-1E+10	1
4901784	212	C	04/24/2021	10:46	-135.794	42.948	0	1550.50	0	2.4520	0	38.3150	4	30.599	0	1532.506	0	29.5	4	9.2	4	-1E+10	1	-1E+10	1	-1E+10	1	-1E+10	1	-1E+10	1	-1E+10	1
4901784	212	C	04/24/2021	10:46	-135.794	42.948	0	1555.10	0	2.4490	0	38.3160	4	30.600	0	1537.036	0	29.6	4	9.3	4	-1E+10	1	-1E+10	1	-1E+10	1	-1E+10	1	-1E+10	1	-1E+10	1
4901784	212	C	04/24/2021	10:46	-135.794	42.948	0	1559.70	0	2.4460	0	38.3170	4	30.601	0	1541.566	0	29.8	4	9.4	4	-1E+10	1	-1E+10	1	-1E+10	1	-1E+10	1	-1E+10	1	-1E+10	1
4901784	212	C	04/24/2021	10:46	-135.794	42.948	0	1565.20	0	2.4380	0	38.3190	4	30.604	0	1546.982	0	30.1	4	9.4	4	-1E+10	1	-1E+10	1	-1E+10	1	-1E+10	1	-1E+10	1	-1E+10	1
4901784	212	C	04/24/2021	10:46	-135.794	42.948	0	1569.80	0	2.4350	0	38.3200	4	30.605	0	1551.511	0	30.2	4	9.5	4	-1E+10	1	-1E+10	1	-1E+10	1	-1E+10	1	-1E+10	1	-1E+10	1
4901784	212	C	04/24/2021	10:46	-135.794	42.948	0	1574.20	0	2.4300	0	38.3210	4	30.606	0	1555.844	0	30.4	4	9.5	4	-1E+10	1	-1E+10	1	-1E+10	1	-1E+10	1	-1E+10	1	-1E+10	1
4901784	212	C	04/24/2021	10:46	-135.794	42.948	0	1579.60	0	2.4190	0	38.3230	4	30.609	0	1561.161	0	30.8	4	9.6	4	-1E+10	1	-1E+10	1	-1E+10	1	-1E+10	1	-1E+10	1	-1E+10	1
4901784	212	C	04/24/2021	10:46	-135.794	42.948	0	1584.50	0	2.4120	0	38.3250	4	30.611	0	1565.986	0	31.0	4	9.7	4	-1E+10	1	-1E+10	1	-1E+10	1	-1E+10	1	-1E+10	1	-1E+10	1
4901784	212	C	04/24/2021	10:46	-135.794	42.948	0	1589.30	0	2.4100	0	38.3250	4	30.611	0	1570.712	0	31.2	4	9.8	4	-1E+10	1	-1E+10	1	-1E+10	1	-1E+10	1	-1E+10	1	-1E+10	1
4901784	212	C	04/24/2021	10:46	-135.794	42.948	0	1594.20	0	2.4010	0	38.3270	4	30.614	0	1575.536	0	31.5	4	9.9	4	-1E+10	1	-1E+10	1	-1E+10	1	-1E+10	1	-1E+10	1	-1E+10	1
4901784	212	C	04/24/2021	10:46	-135.794	42.948	0	1600.00	0	2.3910	0	38.3290	4	30.616	0	1581.247	0	31.8	4	10.0	4	-1E+10	1	-1E+10	1	-1E+10	1	-1E+10	1	-1E+10	1	-1E+10	1
4901784	212	C	04/24/2021	10:46	-135.794	42.948	0	1605.70	0	2.3810	0	38.3300	4	30.618	0	1586.859	0	32.1	4	10.1	4	-1E+10	1	-1E+10	1	-1E+10	1	-1E+10	1	-1E+10	1	-1E+10	1
4901784	212	C	04/24/2021	10:46	-135.794	42.948	0	1610.70	0	2.3720	0	38.3320	4	30.620	0	1591.781	0	32.3	4	10.1	4	-1E+10	1	-1E+10	1	-1E+10	1	-1E+10	1	-1E+10	1	-1E+10	1
4901784	212	C	04/24/2021	10:46	-135.794	42.948	0	1615.70	0	2.3690	0	38.3330	4	30.622	0	1596.703	0	32.6	4	10.2	4	-1E+10	1	-1E+10	1	-1E+10	1	-1E+10	1	-1E+10	1	-1E+10	1
4901784	212	C	04/24/2021	10:46	-135.794	42.948	0	1620.70	0	2.3590	0	38.3350	4	30.624	0	1601.626	0	32.9	4	10.3	4	-1E+10	1	-1E+10	1	-1E+10	1	-1E+10	1	-1E+10	1	-1E+10	1
4901784	212	C	04/24/2021	10:46	-135.794	42.948	0	1625.70	0	2.3540	0	38.3360	4	30.625	0	1606.548	0	33.1	4	10.4	4	-1E+10	1	-1E+10	1	-1E+10	1	-1E+10	1	-1E+10	1	-1E+10	1
4901784	212	C	04/24/2021	10:46	-135.794	42.948	0	1630.80	0	2.3470	0	38.3380	4	30.628	0	1611.569	0	33.5	4	10.5	4	-1E+10	1	-1E+10	1	-1E+10	1	-1E+10	1	-1E+10	1	-1E+10	1
4901784	212	C	04/24/2021	10:46	-135.794	42.948	0	1635.00	0	2.3390	0	38.3390	4	30.629	0	1615.703	0	33.9	4	10.6	4	-1E+10	1	-1E+10	1	-1E+10	1	-1E+10	1	-1E+10	1	-1E+10	1
4901784	212	C	04/24/2021	10:46	-135.794	42.948	0	1639.20	0	2.3280	0	38.3410	4	30.632	0	1619.837	0	34.3	4	10.7	4	-1E+10	1	-1E+10	1	-1E+10	1	-1E+10	1	-1E+10	1	-1E+10	1
4901784	212	C	04/24/2021	10:46	-135.794	42.948	0	1644.20	0	2.3200	0	38.3430	4	30.634	0	1624.759	0	34.6	4	10.8	4	-1E+10	1	-1E+10	1	-1E+10	1	-1E+10	1	-1E+10	1	-1E+10	1
4901784	212	C	04/24/2021	10:46	-135.794	42.948	0	1649.30	0	2.3140	0	38.3450	4	30.636	0	1629.779	0	34.9	4	10.9	4	-1E+10	1	-1E+10	1	-1E+10	1	-1E+10	1	-1E+10	1	-1E+10	1
4901784	212	C	04/24/2021	10:46	-135.794	42.948	0	1654.30	0	2.3050	0	38.3470	4	30.639	0	1634.701	0	35.3	4	11.0	4	-1E+10	1	-1E+10	1	-1E+10	1	-1E+10	1	-1E+10	1	-1E+10	1
4901784	212	C	04/24/2021	10:46	-135.794	42.948	0	1659.40	0	2.2980	0	38.3480	4	30.640	0	1639.721	0	35.8	4	11.2	4	-1E+10	1	-1E+10	1	-1E+10	1	-1E+10	1	-1E+10	1	-1E+10	1
4901784	212	C	04/24/2021	10:46	-135.794	42.948	0	1664.60	0	2.2850	0	38.3500	4	30.643	0	1644.839	0	36.4	4	11.4	4	-1E+10	1	-1E+10	1	-1E+10	1	-1E+10	1	-1E+10	1	-1E+10	1
4901784	212	C	04/24/2021	10:46	-135.794	42.948	0	1669.70	0	2.2770	0	38.3520	4	30.646	0	1649.858	0	36.8	4	11.5	4	-1E+10	1	-1E+10	1	-1E+10	1	-1E+10	1	-1E+10	1	-1E+10	1
4901784	212	C	04/24/2021	10:46	-135.794	42.948	0	1674.80	0	2.2650	0	38.3540	4	30.648	0	1654.878	0	37.2	4	11.6	4	-1E+10	1	-1E+10	1	-1E+10	1	-1E+10	1	-1E+10	1	-1E+10	1
4901784	212	C	04/24/2021	10:46	-135.794	42.948	0	1680.00	0	2.2570	0	38.3560	4	30.651	0	1659.996	0	37.5	4	11.7	4	-1E+10	1	-1E+10	1	-1E+10	1	-1E+10	1	-1E+10	1	-1E+10	1
4901784	212	C	04/24/2021	10:46	-135.794	42.948	0	1685.20	0	2.2550	0	38.3570	4	30.652	0	1665.113	0	37.7	4	11.8	4	-1E+10	1	-1E+10	1	-1E+10	1	-1E+10	1	-1E+10	1	-1E+10	1
4901784	212	C	04/24/2021	10:46	-135.794	42.948	0	1690.40	0	2.2480	0	38.3590	4	30.654	0	1670.231	0	38.1	4	11.9	4	-1E+10	1	-1E+10	1	-1E+10	1	-1E+10	1	-1E+10	1	-1E+10	1
4901784	212	C	04/24/2021	10:46	-135.794	42.948	0	1695.60	0	2.2410	0	38.3600	4	30.656	0	1675.348	0	38.3	4	12.0	4	-1E+10	1	-1E+10	1	-1E+10	1	-1E+10	1	-1E+10	1	-1E+10	1
4901784	212	C	04/24/2021	10:46	-135.794	42.948	0	1700.00	0	2.2390	0	38.3610	4	30.657	0	1679.678	0	38.5	4	12.0	4	-1E+10	1	-1E+10	1	-1E+10	1	-1E+10	1	-1E+10	1	-1E+10	1
4901784	212	C	04/24/2021	10:46	-135.794	42.948	0	1704.40	0	2.2380	0	38.3610	4	30.657	0	1684.008	0	38.7	4	12.1	4	-1E+10	1	-1E+10	1	-1E+10	1	-1E+10	1	-1E+10	1	-1E+10	1
4901784	212	C	04/24/2021	10:46	-135.794	42.948	0	1709.70	0	2.2300	0	38.3630	4	30.659	0	1689.224	0	39.0	4	12.2	4	-1E+10	1	-1E+10	1	-1E+10	1	-1E+10	1	-1E+10	1	-1E+10	1
4901784	212	C	04/24/2021	10:46	-135.794	42.948	0	1715.00	0	2.2250	0	38.3650	4	30.661	0	1694.439	0	39.4	4	12.3	4	-1E+10	1	-1E+10	1	-1E+10	1	-1E+10	1	-1E+10	1	-1E+10	1
4901784	212	C	04/24/2021	10:46	-135.794	42.948	0	1720.40	0	2.2170	0	38.3660	4	30.663	0	1699.753	0	39.7	4	12.4	4	-1E+10	1	-1E+10	1	-1E+10	1	-1E+10	1	-1E+10	1	-1E+10	1
4901784	212	C	04/24/2021	10:46	-135.794	42.948	0	1724.80	0	2.2130	0	38.3680	4	30.665	0	1704.082	0	40.0	4	12.5	4	-1E+10	1	-1E+10	1	-1E+10	1	-1E+10	1	-1E+10	1	-1E+10	1
4901784	212	C	04/24/2021	10:46	-135.794	42.948	0	1729.30	0	2.2070	0	38.3690	4	30.666	0	1708.510	0	40.2	4	12.6	4	-1E+10	1	-1E+10	1	-1E+10	1	-1E+10	1	-1E+10	1	-1E+10	1
4901784	212	C	04/24/2021	10:46	-135.794	42.948	0	1734.80	0	2.2000	0	38.3700	4	30.668	0	1713.922	0	40.5	4	12.6	4	-1E+10	1	-1E+10	1	-1E+10	1	-1E+10	1	-1E+10	1	-1E+10	1
4901784	212	C	04/24/2021	10:46	-135.794	42.948	0	1740.20	0	2.1930	0	38.3720	4	30.670	0	1719.235	0	40.8	4	12.7	4	-1E+10	1	-1E+10	1	-1E+10	1	-1E+10	1	-1E+10	1	-1E+10	1
4901784	212	C	04/24/2021	10:46	-135.794	42.948	0	1744.80	0	2.1890	0	38.3730	4	30.671	0	1723.761	0	41.0	4	12.8	4	-1E+10	1	-1E+10	1	-1E+10	1	-1E+10	1	-1E+10	1	-1E+10	1
4901784	212	C	04/24/2021	10:46	-135.794	42.948	0	1749.20	0	2.1860	0	38.3740	4	30.672	0	1728.090	0	41.3	4	12.9	4	-1E+10	1	-1E+10	1	-1E+10	1	-1E+10	1	-1E+10	1	-1E+10	1
4901784	212	C	04/24/2021	10:46	-135.794	42.948	0	1754.50	0	2.1810	0	38.3750	4	30.673	0	1733.304	0	41.7	4	13.0	4	-1E+10	1	-1E+10	1	-1E+10	1	-1E+10	1	-1E+10	1	-1E+10	1
4901784	212	C	04/24/2021	10:46	-135.794	42.948	0	1759.40	0	2.1680	0	38.3780	4	30.677	0	1738.125	0	42.2	4	13.1	4	-1E+10	1	-1E+10	1	-1E+10	1	-1E+10	1	-1E+10	1	-1E+10	1
4901784	212	C	04/24/2021	10:46	-135.794	42.948	0	1765.00	0	2.1610	0	38.3800	4	30.679	0	1743.634	0	42.5	4	13.2	4	-1E+10	1	-1E+10	1	-1E+10	1	-1E+10	1	-1E+10	1	-1E+10	1
4901784	212	C	04/24/2021	10:46	-135.794	42.948	0	1770.60	0	2.1550	0	38.3810	4	30.681	0	1749.144	0	42.8	4	13.3	4	-1E+10	1	-1E+10	1	-1E+10	1	-1E+10	1	-1E+10	1	-1E+10	1
4901784	212	C	04/24/2021	10:46	-135.794	42.948	0	1775.50	0	2.1500	0	38.3820	4	30.682	0	1753.964	0	43.2	4	13.5	4	-1E+10	1	-1E+10	1	-1E+10	1	-1E+10	1	-1E+10	1	-1E+10	1
4901784	212	C	04/24/2021	10:46	-135.794	42.948	0	1780.50	0	2.1440	0	38.3840	4	30.684	0	1758.883	0	43.5	4	13.6	4	-1E+10	1	-1E+10	1	-1E+10	1	-1E+10	1	-1E+10	1	-1E+10	1
4901784	212	C	04/24/2021	10:46	-135.794	42.948	0	1785.50	0	2.1380	0	38.3850	4	30.686	0	1763.801	0	43.9	4	13.7	4	-1E+10	1	-1E+10	1	-1E+10	1	-1E+10	1	-1E+10	1	-1E+10	1
4901784	212	C	04/24/2021	10:46	-135.794	42.948	0	1790.40	0	2.1310	0	38.3870	4	30.688	0	1768.621	0	44.3	4	13.8	4	-1E+10	1	-1E+10	1	-1E+10	1	-1E+10	1	-1E+10	1	-1E+10	1
4901784	212	C	04/24/2021	10:46	-135.794	42.948	0	1795.40	0	2.1260	0	38.3880	4	30.689	0	1773.540	0	44.7	4	13.9	4	-1E+10	1	-1E+10	1	-1E+10	1	-1E+10	1	-1E+10	1	-1E+10	1
4901784	212	C	04/24/2021	10:46	-135.794	42.948	0	1800.40	0	2.1200	0	38.3900	4	30.691	0	1778.458	0	45.0	4	14.0	4	-1E+10	1	-1E+10	1	-1E+10	1	-1E+10	1	-1E+10	1	-1E+10	1
4901784	212	C	04/24/2021	10:46	-135.794	42.948	0	1805.50	0	2.1130	0	38.3910	4	30.693	0	1783.474	0	45.3	4	14.1	4	-1E+10	1	-1E+10	1	-1E+10	1	-1E+10	1	-1E+10	1	-1E+10	1
4901784	212	C	04/24/2021	10:46	-135.794	42.948	0	1810.60	0	2.1110	0	38.3920	4	30.694	0	1788.491	0	45.5	4	14.2	4	-1E+10	1	-1E+10	1	-1E+10	1	-1E+10	1	-1E+10	1	-1E+10	1
4901784	212	C	04/24/2021	10:46	-135.794	42.948	0	1815.60	0	2.1080	0	38.3930	4	30.695	0	1793.408	0	45.7	4	14.2	4	-1E+10	1	-1E+10	1	-1E+10	1	-1E+10	1	-1E+10	1	-1E+10	1
4901784	212	C	04/24/2021	10:46	-135.794	42.948	0	1820.70	0	2.1040	0	38.3940	4	30.696	0	1798.424	0	46.1	4	14.3	4	-1E+10	1	-1E+10	1	-1E+10	1	-1E+10	1	-1E+10	1	-1E+10	1
4901784	212	C	04/24/2021	10:46	-135.794	42.948	0	1825.00	0	2.0980	0	38.3960	4	30.698	0	1802.654	0	46.4	4	14.4	4	-1E+10	1	-1E+10	1	-1E+10	1	-1E+10	1	-1E+10	1	-1E+10	1
4901784	212	C	04/24/2021	10:46	-135.794	42.948	0	1829.30	0	2.0960	0	38.3960	4	30.698	0	1806.883	0	46.6	4	14.5	4	-1E+10	1	-1E+10	1	-1E+10	1	-1E+10	1	-1E+10	1	-1E+10	1
4901784	212	C	04/24/2021	10:46	-135.794	42.948	0	1834.40	0	2.0900	0	38.3980	4	30.701	0	1811.899	0	47.1	4	14.6	4	-1E+10	1	-1E+10	1	-1E+10	1	-1E+10	1	-1E+10	1	-1E+10	1
4901784	212	C	04/24/2021	10:46	-135.794	42.948	0	1839.60	0	2.0820	0	38.3990	4	30.702	0	1817.013	0	47.5	4	14.8	4	-1E+10	1	-1E+10	1	-1E+10	1	-1E+10	1	-1E+10	1	-1E+10	1
4901784	212	C	04/24/2021	10:46	-135.794	42.948	0	1844.90	0	2.0770	0	38.4010	4	30.704	0	1822.225	0	47.8	4	14.9	4	-1E+10	1	-1E+10	1	-1E+10	1	-1E+10	1	-1E+10	1	-1E+10	1
4901784	212	C	04/24/2021	10:46	-135.794	42.948	0	1850.20	0	2.0710	0	38.4020	4	30.706	0	1827.437	0	48.2	4	15.0	4	-1E+10	1	-1E+10	1	-1E+10	1	-1E+10	1	-1E+10	1	-1E+10	1
4901784	212	C	04/24/2021	10:46	-135.794	42.948	0	1855.40	0	2.0650	0	38.4040	4	30.708	0	1832.551	0	48.6	4	15.1	4	-1E+10	1	-1E+10	1	-1E+10	1	-1E+10	1	-1E+10	1	-1E+10	1
4901784	212	C	04/24/2021	10:46	-135.794	42.948	0	1860.70	0	2.0610	0	38.4050	4	30.709	0	1837.762	0	48.7	4	15.1	4	-1E+10	1	-1E+10	1	-1E+10	1	-1E+10	1	-1E+10	1	-1E+10	1
4901784	212	C	04/24/2021	10:46	-135.794	42.948	0	1865.10	0	2.0610	0	38.4050	4	30.709	0	1842.089	0	48.8	4	15.2	4	-1E+10	1	-1E+10	1	-1E+10	1	-1E+10	1	-1E+10	1	-1E+10	1
4901784	212	C	04/24/2021	10:46	-135.794	42.948	0	1869.50	0	2.0590	0	38.4060	4	30.710	0	1846.416	0	49.0	4	15.2	4	-1E+10	1	-1E+10	1	-1E+10	1	-1E+10	1	-1E+10	1	-1E+10	1
4901784	212	C	04/24/2021	10:46	-135.794	42.948	0	1874.80	0	2.0560	0	38.4070	4	30.711	0	1851.627	0	49.2	4	15.3	4	-1E+10	1	-1E+10	1	-1E+10	1	-1E+10	1	-1E+10	1	-1E+10	1
4901784	212	C	04/24/2021	10:46	-135.794	42.948	0	1880.20	0	2.0530	0	38.4080	4	30.712	0	1856.937	0	49.4	4	15.4	4	-1E+10	1	-1E+10	1	-1E+10	1	-1E+10	1	-1E+10	1	-1E+10	1
4901784	212	C	04/24/2021	10:46	-135.794	42.948	0	1885.60	0	2.0500	0	38.4080	4	30.713	0	1862.246	0	49.7	4	15.4	4	-1E+10	1	-1E+10	1	-1E+10	1	-1E+10	1	-1E+10	1	-1E+10	1
4901784	212	C	04/24/2021	10:46	-135.794	42.948	0	1890.10	0	2.0450	0	38.4100	4	30.715	0	1866.671	0	50.0	4	15.6	4	-1E+10	1	-1E+10	1	-1E+10	1	-1E+10	1	-1E+10	1	-1E+10	1
4901784	212	C	04/24/2021	10:46	-135.794	42.948	0	1894.60	0	2.0400	0	38.4110	4	30.716	0	1871.095	0	50.4	4	15.7	4	-1E+10	1	-1E+10	1	-1E+10	1	-1E+10	1	-1E+10	1	-1E+10	1
4901784	212	C	04/24/2021	10:46	-135.794	42.948	0	1900.10	0	2.0320	0	38.4130	4	30.718	0	1876.503	0	50.8	4	15.8	4	-1E+10	1	-1E+10	1	-1E+10	1	-1E+10	1	-1E+10	1	-1E+10	1
4901784	212	C	04/24/2021	10:46	-135.794	42.948	0	1905.60	0	2.0290	0	38.4130	4	30.719	0	1881.910	0	51.0	4	15.9	4	-1E+10	1	-1E+10	1	-1E+10	1	-1E+10	1	-1E+10	1	-1E+10	1
4901784	212	C	04/24/2021	10:46	-135.794	42.948	0	1910.10	0	2.0250	0	38.4140	4	30.720	0	1886.334	0	51.3	4	15.9	4	-1E+10	1	-1E+10	1	-1E+10	1	-1E+10	1	-1E+10	1	-1E+10	1
4901784	212	C	04/24/2021	10:46	-135.794	42.948	0	1914.60	0	2.0210	0	38.4150	4	30.721	0	1890.758	0	51.5	4	16.0	4	-1E+10	1	-1E+10	1	-1E+10	1	-1E+10	1	-1E+10	1	-1E+10	1
4901784	212	C	04/24/2021	10:46	-135.794	42.948	0	1920.00	0	2.0150	0	38.4170	4	30.723	0	1896.067	0	51.9	4	16.1	4	-1E+10	1	-1E+10	1	-1E+10	1	-1E+10	1	-1E+10	1	-1E+10	1
4901784	212	C	04/24/2021	10:46	-135.794	42.948	0	1925.50	0	2.0100	0	38.4190	4	30.725	0	1901.474	0	52.2	4	16.2	4	-1E+10	1	-1E+10	1	-1E+10	1	-1E+10	1	-1E+10	1	-1E+10	1
4901784	212	C	04/24/2021	10:46	-135.794	42.948	0	1930.10	0	2.0080	0	38.4190	4	30.725	0	1905.996	0	52.3	4	16.2	4	-1E+10	1	-1E+10	1	-1E+10	1	-1E+10	1	-1E+10	1	-1E+10	1
4901784	212	C	04/24/2021	10:46	-135.794	42.948	0	1934.60	0	2.0080	0	38.4190	4	30.725	0	1910.420	0	52.4	4	16.3	4	-1E+10	1	-1E+10	1	-1E+10	1	-1E+10	1	-1E+10	1	-1E+10	1
4901784	212	C	04/24/2021	10:46	-135.794	42.948	0	1940.10	0	2.0050	0	38.4200	4	30.727	0	1915.826	0	52.7	4	16.4	4	-1E+10	1	-1E+10	1	-1E+10	1	-1E+10	1	-1E+10	1	-1E+10	1
4901784	212	C	04/24/2021	10:46	-135.794	42.948	0	1945.60	0	2.0000	0	38.4220	4	30.729	0	1921.233	0	53.1	4	16.5	4	-1E+10	1	-1E+10	1	-1E+10	1	-1E+10	1	-1E+10	1	-1E+10	1
4901784	212	C	04/24/2021	10:46	-135.794	42.948	0	1950.20	0	1.9970	0	38.4220	4	30.729	0	1925.754	0	53.4	4	16.6	4	-1E+10	1	-1E+10	1	-1E+10	1	-1E+10	1	-1E+10	1	-1E+10	1
4901784	212	C	04/24/2021	10:46	-135.794	42.948	0	1954.70	0	1.9920	0	38.4230	4	30.730	0	1930.177	0	53.7	4	16.7	4	-1E+10	1	-1E+10	1	-1E+10	1	-1E+10	1	-1E+10	1	-1E+10	1
4901784	212	C	04/24/2021	10:46	-135.794	42.948	0	1960.10	0	1.9890	0	38.4250	4	30.732	0	1935.485	0	54.0	4	16.8	4	-1E+10	1	-1E+10	1	-1E+10	1	-1E+10	1	-1E+10	1	-1E+10	1
4901784	212	C	04/24/2021	10:46	-135.794	42.948	0	1965.60	0	1.9840	0	38.4260	4	30.733	0	1940.891	0	54.3	4	16.9	4	-1E+10	1	-1E+10	1	-1E+10	1	-1E+10	1	-1E+10	1	-1E+10	1
4901784	212	C	04/24/2021	10:46	-135.794	42.948	0	1970.10	0	1.9810	0	38.4280	4	30.735	0	1945.314	0	54.6	4	16.9	4	-1E+10	1	-1E+10	1	-1E+10	1	-1E+10	1	-1E+10	1	-1E+10	1
4901784	212	C	04/24/2021	10:46	-135.794	42.948	0	1974.70	0	1.9780	0	38.4290	4	30.736	0	1949.835	0	54.8	4	17.0	4	-1E+10	1	-1E+10	1	-1E+10	1	-1E+10	1	-1E+10	1	-1E+10	1
4901784	212	C	04/24/2021	10:46	-135.794	42.948	0	1980.10	0	1.9750	0	38.4300	4	30.738	0	1955.142	0	55.0	4	17.1	4	-1E+10	1	-1E+10	1	-1E+10	1	-1E+10	1	-1E+10	1	-1E+10	1
4901784	212	C	04/24/2021	10:46	-135.794	42.948	0	1985.50	0	1.9720	0	38.4300	4	30.738	0	1960.449	0	55.3	4	17.1	4	-1E+10	1	-1E+10	1	-1E+10	1	-1E+10	1	-1E+10	1	-1E+10	1
4901784	212	C	04/24/2021	10:46	-135.794	42.948	0	1990.50	0	1.9690	0	38.4310	4	30.739	0	1965.363	0	55.4	4	17.2	4	-1E+10	1	-1E+10	1	-1E+10	1	-1E+10	1	-1E+10	1	-1E+10	1
4901784	212	C	04/24/2021	10:46	-135.794	42.948	0	1995.50	0	1.9680	0	38.4310	4	30.739	0	1970.277	0	55.6	4	17.2	4	-1E+10	1	-1E+10	1	-1E+10	1	-1E+10	1	-1E+10	1	-1E+10	1
4901784	212	C	04/24/2021	10:46	-135.794	42.948	0	2000.50	0	1.9670	0	38.4310	4	30.739	0	1975.191	0	55.7	4	17.3	4	-1E+10	1	-1E+10	1	-1E+10	1	-1E+10	1	-1E+10	1	-1E+10	1
4901784	212	C	04/24/2021	10:46	-135.794	42.948	0	2005.40	0	1.9650	0	38.4320	4	30.740	0	1980.006	0	56.0	4	17.4	4	-1E+10	1	-1E+10	1	-1E+10	1	-1E+10	1	-1E+10	1	-1E+10	1
4901784	212	C	04/24/2021	10:46	-135.794	42.948	0	2010.30	0	1.9610	0	38.4320	4	30.741	0	1984.821	0	56.3	4	17.5	4	-1E+10	1	-1E+10	1	-1E+10	1	-1E+10	1	-1E+10	1	-1E+10	1
4901784	212	C	04/24/2021	10:46	-135.794	42.948	0	2015.10	0	1.9570	0	38.4330	4	30.742	0	1989.538	0	56.6	4	17.6	4	-1E+10	1	-1E+10	1	-1E+10	1	-1E+10	1	-1E+10	1	-1E+10	1
4901784	212	C	04/24/2021	10:46	-135.794	42.948	0	2019.80	0	1.9520	0	38.4340	4	30.743	0	1994.156	0	56.9	4	17.7	4	-1E+10	1	-1E+10	1	-1E+10	1	-1E+10	1	-1E+10	1	-1E+10	1
4901784	212	C	04/24/2021	10:46	-135.794	42.948	0																										
4901784	213	C	05/04/2021	10:47	-135.857	42.940	0	3.40	0	12.7930	0	35.9910	4	27.204	0	3.373	0	253.9	4	98.7	4	-1E+10	1	-1E+10	1	-1E+10	1	-1E+10	1	-1E+10	1	-1E+10	1
4901784	213	C	05/04/2021	10:47	-135.857	42.940	0	5.10	0	12.7840	0	35.9860	4	27.202	0	5.060	0	253.8	4	98.7	4	-1E+10	1	-1E+10	1	-1E+10	1	-1E+10	1	-1E+10	1	-1E+10	1
4901784	213	C	05/04/2021	10:47	-135.857	42.940	0	7.30	0	12.6810	0	35.9910	4	27.226	0	7.242	0	254.2	4	98.6	4	-1E+10	1	-1E+10	1	-1E+10	1	-1E+10	1	-1E+10	1	-1E+10	1
4901784	213	C	05/04/2021	10:47	-135.857	42.940	0	9.00	0	12.5880	0	35.9980	4	27.250	0	8.928	0	254.9	4	98.7	4	-1E+10	1	-1E+10	1	-1E+10	1	-1E+10	1	-1E+10	1	-1E+10	1
4901784	213	C	05/04/2021	10:47	-135.857	42.940	0	10.50	0	12.5490	0	35.9990	4	27.259	0	10.416	0	255.2	4	98.7	4	-1E+10	1	-1E+10	1	-1E+10	1	-1E+10	1	-1E+10	1	-1E+10	1
4901784	213	C	05/04/2021	10:47	-135.857	42.940	0	12.00	0	12.5450	0	35.9980	4	27.259	0	11.905	0	255.5	4	98.8	4	-1E+10	1	-1E+10	1	-1E+10	1	-1E+10	1	-1E+10	1	-1E+10	1
4901784	213	C	05/04/2021	10:47	-135.857	42.940	0	13.50	0	12.5400	0	35.9960	4	27.258	0	13.393	0	255.8	4	98.9	4	-1E+10	1	-1E+10	1	-1E+10	1	-1E+10	1	-1E+10	1	-1E+10	1
4901784	213	C	05/04/2021	10:47	-135.857	42.940	0	15.00	0	12.5310	0	35.9930	4	27.258	0	14.881	0	256.3	4	99.1	4	-1E+10	1	-1E+10	1	-1E+10	1	-1E+10	1	-1E+10	1	-1E+10	1
4901784	213	C	05/04/2021	10:47	-135.857	42.940	0	16.50	0	12.4990	0	35.9890	4	27.261	0	16.369	0	257.1	4	99.3	4	-1E+10	1	-1E+10	1	-1E+10	1	-1E+10	1	-1E+10	1	-1E+10	1
4901784	213	C	05/04/2021	10:47	-135.857	42.940	0	18.10	0	12.4370	0	35.9810	4	27.267	0	17.956	0	258.3	4	99.7	4	-1E+10	1	-1E+10	1	-1E+10	1	-1E+10	1	-1E+10	1	-1E+10	1
4901784	213	C	05/04/2021	10:47	-135.857	42.940	0	19.60	0	12.3490	0	35.9730	4	27.278	0	19.444	0	259.3	4	99.9	4	-1E+10	1	-1E+10	1	-1E+10	1	-1E+10	1	-1E+10	1	-1E+10	1
4901784	213	C	05/04/2021	10:47	-135.857	42.940	0	21.30	0	12.2220	0	35.9610	4	27.294	0	21.130	0	261.0	4	100.3	4	-1E+10	1	-1E+10	1	-1E+10	1	-1E+10	1	-1E+10	1	-1E+10	1
4901784	213	C	05/04/2021	10:47	-135.857	42.940	0	22.90	0	11.8560	0	36.0010	4	27.396	0	22.717	0	263.1	4	100.4	4	-1E+10	1	-1E+10	1	-1E+10	1	-1E+10	1	-1E+10	1	-1E+10	1
4901784	213	C	05/04/2021	10:47	-135.857	42.940	0	24.60	0	11.7660	0	35.9940	4	27.408	0	24.403	0	264.4	4	100.6	4	-1E+10	1	-1E+10	1	-1E+10	1	-1E+10	1	-1E+10	1	-1E+10	1
4901784	213	C	05/04/2021	10:47	-135.857	42.940	0	26.20	0	11.7060	0	35.9970	4	27.421	0	25.991	0	264.6	4	100.6	4	-1E+10	1	-1E+10	1	-1E+10	1	-1E+10	1	-1E+10	1	-1E+10	1
4901784	213	C	05/04/2021	10:47	-135.857	42.940	0	27.70	0	11.6830	0	35.9950	4	27.424	0	27.479	0	265.0	4	100.7	4	-1E+10	1	-1E+10	1	-1E+10	1	-1E+10	1	-1E+10	1	-1E+10	1
4901784	213	C	05/04/2021	10:47	-135.857	42.940	0	29.40	0	11.6530	0	35.9920	4	27.428	0	29.165	0	265.2	4	100.7	4	-1E+10	1	-1E+10	1	-1E+10	1	-1E+10	1	-1E+10	1	-1E+10	1
4901784	213	C	05/04/2021	10:47	-135.857	42.940	0	31.00	0	11.5860	0	35.9930	4	27.441	0	30.752	0	265.7	4	100.8	4	-1E+10	1	-1E+10	1	-1E+10	1	-1E+10	1	-1E+10	1	-1E+10	1
4901784	213	C	05/04/2021	10:47	-135.857	42.940	0	32.70	0	11.4820	0	35.9940	4	27.462	0	32.438	0	266.4	4	100.8	4	-1E+10	1	-1E+10	1	-1E+10	1	-1E+10	1	-1E+10	1	-1E+10	1
4901784	213	C	05/04/2021	10:47	-135.857	42.940	0	34.30	0	11.4340	0	35.9930	4	27.470	0	34.025	0	266.9	4	100.9	4	-1E+10	1	-1E+10	1	-1E+10	1	-1E+10	1	-1E+10	1	-1E+10	1
4901784	213	C	05/04/2021	10:47	-135.857	42.940	0	35.90	0	11.2660	0	36.0040	4	27.510	0	35.612	0	267.3	4	100.7	4	-1E+10	1	-1E+10	1	-1E+10	1	-1E+10	1	-1E+10	1	-1E+10	1
4901784	213	C	05/04/2021	10:47	-135.857	42.940	0	37.60	0	11.1670	0	35.9990	4	27.524	0	37.298	0	268.0	4	100.8	4	-1E+10	1	-1E+10	1	-1E+10	1	-1E+10	1	-1E+10	1	-1E+10	1
4901784	213	C	05/04/2021	10:47	-135.857	42.940	0	39.20	0	11.0500	0	36.0080	4	27.553	0	38.885	0	268.2	4	100.6	4	-1E+10	1	-1E+10	1	-1E+10	1	-1E+10	1	-1E+10	1	-1E+10	1
4901784	213	C	05/04/2021	10:47	-135.857	42.940	0	40.90	0	10.8980	0	36.0100	4	27.583	0	40.572	0	268.7	4	100.4	4	-1E+10	1	-1E+10	1	-1E+10	1	-1E+10	1	-1E+10	1	-1E+10	1
4901784	213	C	05/04/2021	10:47	-135.857	42.940	0	42.60	0	10.7650	0	36.0170	4	27.612	0	42.258	0	268.6	4	100.1	4	-1E+10	1	-1E+10	1	-1E+10	1	-1E+10	1	-1E+10	1	-1E+10	1
4901784	213	C	05/04/2021	10:47	-135.857	42.940	0	44.30	0	10.7550	0	36.0130	4	27.611	0	43.944	0	268.2	4	100.0	4	-1E+10	1	-1E+10	1	-1E+10	1	-1E+10	1	-1E+10	1	-1E+10	1
4901784	213	C	05/04/2021	10:47	-135.857	42.940	0	46.00	0	10.6660	0	36.0230	4	27.635	0	45.630	0	267.4	4	99.5	4	-1E+10	1	-1E+10	1	-1E+10	1	-1E+10	1	-1E+10	1	-1E+10	1
4901784	213	C	05/04/2021	10:47	-135.857	42.940	0	47.70	0	10.6210	0	36.0020	4	27.627	0	47.316	0	266.8	4	99.2	4	-1E+10	1	-1E+10	1	-1E+10	1	-1E+10	1	-1E+10	1	-1E+10	1
4901784	213	C	05/04/2021	10:47	-135.857	42.940	0	49.40	0	10.5640	0	36.0200	4	27.651	0	49.002	0	266.0	4	98.7	4	-1E+10	1	-1E+10	1	-1E+10	1	-1E+10	1	-1E+10	1	-1E+10	1
4901784	213	C	05/04/2021	10:47	-135.857	42.940	0	51.10	0	10.5500	0	36.0230	4	27.656	0	50.689	0	264.5	4	98.2	4	-1E+10	1	-1E+10	1	-1E+10	1	-1E+10	1	-1E+10	1	-1E+10	1
4901784	213	C	05/04/2021	10:47	-135.857	42.940	0	52.80	0	10.5360	0	36.0230	4	27.658	0	52.375	0	263.5	4	97.8	4	-1E+10	1	-1E+10	1	-1E+10	1	-1E+10	1	-1E+10	1	-1E+10	1
4901784	213	C	05/04/2021	10:47	-135.857	42.940	0	54.60	0	10.5050	0	36.0230	4	27.664	0	54.160	0	263.0	4	97.5	4	-1E+10	1	-1E+10	1	-1E+10	1	-1E+10	1	-1E+10	1	-1E+10	1
4901784	213	C	05/04/2021	10:47	-135.857	42.940	0	56.30	0	10.4620	0	36.0250	4	27.673	0	55.846	0	261.9	4	97.0	4	-1E+10	1	-1E+10	1	-1E+10	1	-1E+10	1	-1E+10	1	-1E+10	1
4901784	213	C	05/04/2021	10:47	-135.857	42.940	0	58.00	0	10.4400	0	36.0250	4	27.677	0	57.532	0	260.5	4	96.5	4	-1E+10	1	-1E+10	1	-1E+10	1	-1E+10	1	-1E+10	1	-1E+10	1
4901784	213	C	05/04/2021	10:47	-135.857	42.940	0	59.90	0	10.4070	0	36.0250	4	27.683	0	59.416	0	259.4	4	96.0	4	-1E+10	1	-1E+10	1	-1E+10	1	-1E+10	1	-1E+10	1	-1E+10	1
4901784	213	C	05/04/2021	10:47	-135.857	42.940	0	61.60	0	10.3180	0	36.0280	4	27.701	0	61.102	0	258.2	4	95.4	4	-1E+10	1	-1E+10	1	-1E+10	1	-1E+10	1	-1E+10	1	-1E+10	1
4901784	213	C	05/04/2021	10:47	-135.857	42.940	0	63.30	0	10.2760	0	36.0280	4	27.709	0	62.788	0	257.2	4	94.9	4	-1E+10	1	-1E+10	1	-1E+10	1	-1E+10	1	-1E+10	1	-1E+10	1
4901784	213	C	05/04/2021	10:47	-135.857	42.940	0	65.10	0	10.2560	0	36.0270	4	27.711	0	64.574	0	256.0	4	94.4	4	-1E+10	1	-1E+10	1	-1E+10	1	-1E+10	1	-1E+10	1	-1E+10	1
4901784	213	C	05/04/2021	10:47	-135.857	42.940	0	66.90	0	10.2210	0	36.0280	4	27.718	0	66.359	0	254.7	4	93.9	4	-1E+10	1	-1E+10	1	-1E+10	1	-1E+10	1	-1E+10	1	-1E+10	1
4901784	213	C	05/04/2021	10:47	-135.857	42.940	0	68.60	0	10.2220	0	36.0310	4	27.721	0	68.045	0	254.1	4	93.7	4	-1E+10	1	-1E+10	1	-1E+10	1	-1E+10	1	-1E+10	1	-1E+10	1
4901784	213	C	05/04/2021	10:47	-135.857	42.940	0	70.50	0	10.2250	0	36.0310	4	27.720	0	69.929	0	253.7	4	93.5	4	-1E+10	1	-1E+10	1	-1E+10	1	-1E+10	1	-1E+10	1	-1E+10	1
4901784	213	C	05/04/2021	10:47	-135.857	42.940	0	72.20	0	10.2180	0	36.0330	4	27.723	0	71.615	0	253.7	4	93.5	4	-1E+10	1	-1E+10	1	-1E+10	1	-1E+10	1	-1E+10	1	-1E+10	1
4901784	213	C	05/04/2021	10:47	-135.857	42.940	0	74.10	0	10.2200	0	36.0320	4	27.722	0	73.499	0	254.1	4	93.7	4	-1E+10	1	-1E+10	1	-1E+10	1	-1E+10	1	-1E+10	1	-1E+10	1
4901784	213	C	05/04/2021	10:47	-135.857	42.940	0	75.80	0	10.2260	0	36.0360	4	27.724	0	75.185	0	253.9	4	93.6	4	-1E+10	1	-1E+10	1	-1E+10	1	-1E+10	1	-1E+10	1	-1E+10	1
4901784	213	C	05/04/2021	10:47	-135.857	42.940	0	77.60	0	10.2140	0	36.0330	4	27.724	0	76.970	0	253.8	4	93.5	4	-1E+10	1	-1E+10	1	-1E+10	1	-1E+10	1	-1E+10	1	-1E+10	1
4901784	213	C	05/04/2021	10:47	-135.857	42.940	0	79.40	0	10.1960	0	36.0280	4	27.723	0	78.755	0	253.7	4	93.5	4	-1E+10	1	-1E+10	1	-1E+10	1	-1E+10	1	-1E+10	1	-1E+10	1
4901784	213	C	05/04/2021	10:47	-135.857	42.940	0	81.20	0	10.1200	0	36.0230	4	27.732	0	80.540	0	254.1	4	93.5	4	-1E+10	1	-1E+10	1	-1E+10	1	-1E+10	1	-1E+10	1	-1E+10	1
4901784	213	C	05/04/2021	10:47	-135.857	42.940	0	83.00	0	10.0160	0	36.0150	4	27.744	0	82.325	0	253.9	4	93.2	4	-1E+10	1	-1E+10	1	-1E+10	1	-1E+10	1	-1E+10	1	-1E+10	1
4901784	213	C	05/04/2021	10:47	-135.857	42.940	0	84.70	0	9.9590	0	36.0130	4	27.753	0	84.011	0	253.0	4	92.7	4	-1E+10	1	-1E+10	1	-1E+10	1	-1E+10	1	-1E+10	1	-1E+10	1
4901784	213	C	05/04/2021	10:47	-135.857	42.940	0	86.50	0	9.8870	0	36.0130	4	27.765	0	85.796	0	252.5	4	92.4	4	-1E+10	1	-1E+10	1	-1E+10	1	-1E+10	1	-1E+10	1	-1E+10	1
4901784	213	C	05/04/2021	10:47	-135.857	42.940	0	88.80	0	9.7730	0	36.0260	4	27.795	0	88.077	0	251.4	4	91.8	4	-1E+10	1	-1E+10	1	-1E+10	1	-1E+10	1	-1E+10	1	-1E+10	1
4901784	213	C	05/04/2021	10:47	-135.857	42.940	0	90.50	0	9.7410	0	36.0350	4	27.807	0	89.763	0	250.5	4	91.4	4	-1E+10	1	-1E+10	1	-1E+10	1	-1E+10	1	-1E+10	1	-1E+10	1
4901784	213	C	05/04/2021	10:47	-135.857	42.940	0	92.00	0	9.7450	0	36.0400	4	27.811	0	91.250	0	249.5	4	91.0	4	-1E+10	1	-1E+10	1	-1E+10	1	-1E+10	1	-1E+10	1	-1E+10	1
4901784	213	C	05/04/2021	10:47	-135.857	42.940	0	93.30	0	9.7500	0	36.0480	4	27.816	0	92.539	0	248.2	4	90.6	4	-1E+10	1	-1E+10	1	-1E+10	1	-1E+10	1	-1E+10	1	-1E+10	1
4901784	213	C	05/04/2021	10:47	-135.857	42.940	0	94.90	0	9.7480	0	36.0470	4	27.816	0	94.126	0	246.4	4	89.9	4	-1E+10	1	-1E+10	1	-1E+10	1	-1E+10	1	-1E+10	1	-1E+10	1
4901784	213	C	05/04/2021	10:47	-135.857	42.940	0	96.30	0	9.7510	0	36.0530	4	27.820	0	95.514	0	244.5	4	89.2	4	-1E+10	1	-1E+10	1	-1E+10	1	-1E+10	1	-1E+10	1	-1E+10	1
4901784	213	C	05/04/2021	10:47	-135.857	42.940	0	97.80	0	9.7560	0	36.0660	4	27.829	0	97.002	0	241.5	4	88.2	4	-1E+10	1	-1E+10	1	-1E+10	1	-1E+10	1	-1E+10	1	-1E+10	1
4901784	213	C	05/04/2021	10:47	-135.857	42.940	0	99.30	0	9.7810	0	36.1140	4	27.863	0	98.489	0	238.8	4	87.2	4	-1E+10	1	-1E+10	1	-1E+10	1	-1E+10	1	-1E+10	1	-1E+10	1
4901784	213	C	05/04/2021	10:47	-135.857	42.940	0	102.50	0	9.7660	0	36.1510	4	27.894	0	101.662	0	234.9	4	85.8	4	-1E+10	1	-1E+10	1	-1E+10	1	-1E+10	1	-1E+10	1	-1E+10	1
4901784	213	C	05/04/2021	10:47	-135.857	42.940	0	104.90	0	9.7430	0	36.1710	4	27.914	0	104.042	0	231.3	4	84.5	4	-1E+10	1	-1E+10	1	-1E+10	1	-1E+10	1	-1E+10	1	-1E+10	1
4901784	213	C	05/04/2021	10:47	-135.857	42.940	0	107.30	0	9.6710	0	36.2400	4	27.980	0	106.422	0	228.5	4	83.4	4	-1E+10	1	-1E+10	1	-1E+10	1	-1E+10	1	-1E+10	1	-1E+10	1
4901784	213	C	05/04/2021	10:47	-135.857	42.940	0	109.80	0	9.6610	0	36.2450	4	27.986	0	108.900	0	225.6	4	82.3	4	-1E+10	1	-1E+10	1	-1E+10	1	-1E+10	1	-1E+10	1	-1E+10	1
4901784	213	C	05/04/2021	10:47	-135.857	42.940	0	112.30	0	9.6250	0	36.2640	4	28.007	0	111.379	0	221.4	4	80.7	4	-1E+10	1	-1E+10	1	-1E+10	1	-1E+10	1	-1E+10	1	-1E+10	1
4901784	213	C	05/04/2021	10:47	-135.857	42.940	0	114.80	0	9.4940	0	36.3640	4	28.107	0	113.858	0	216.8	4	78.8	4	-1E+10	1	-1E+10	1	-1E+10	1	-1E+10	1	-1E+10	1	-1E+10	1
4901784	213	C	05/04/2021	10:47	-135.857	42.940	0	117.80	0	9.3920	0	36.4540	4	28.195	0	116.833	0	213.1	4	77.4	4	-1E+10	1	-1E+10	1	-1E+10	1	-1E+10	1	-1E+10	1	-1E+10	1
4901784	213	C	05/04/2021	10:47	-135.857	42.940	0	120.20	0	9.2700	0	36.5110	4	28.260	0	119.212	0	209.9	4	76.1	4	-1E+10	1	-1E+10	1	-1E+10	1	-1E+10	1	-1E+10	1	-1E+10	1
4901784	213	C	05/04/2021	10:47	-135.857	42.940	0	122.40	0	9.1500	0	36.5700	4	28.326	0	121.393	0	207.7	4	75.1	4	-1E+10	1	-1E+10	1	-1E+10	1	-1E+10	1	-1E+10	1	-1E+10	1
4901784	213	C	05/04/2021	10:47	-135.857	42.940	0	124.70	0	9.0740	0	36.6330	4	28.388	0	123.674	0	205.5	4	74.2	4	-1E+10	1	-1E+10	1	-1E+10	1	-1E+10	1	-1E+10	1	-1E+10	1
4901784	213	C	05/04/2021	10:47	-135.857	42.940	0	127.80	0	8.9130	0	36.6880	4	28.458	0	126.747	0	203.4	4	73.2	4	-1E+10	1	-1E+10	1	-1E+10	1	-1E+10	1	-1E+10	1	-1E+10	1
4901784	213	C	05/04/2021	10:47	-135.857	42.940	0	130.10	0	8.8790	0	36.7170	4	28.486	0	129.028	0	202.5	4	72.8	4	-1E+10	1	-1E+10	1	-1E+10	1	-1E+10	1	-1E+10	1	-1E+10	1
4901784	213	C	05/04/2021	10:47	-135.857	42.940	0	132.60	0	8.8780	0	36.7600	4	28.520	0	131.506	0	200.0	4	72.0	4	-1E+10	1	-1E+10	1	-1E+10	1	-1E+10	1	-1E+10	1	-1E+10	1
4901784	213	C	05/04/2021	10:47	-135.857	42.940	0	135.00	0	8.8050	0	36.7970	4	28.561	0	133.886	0	196.8	4	70.7	4	-1E+10	1	-1E+10	1	-1E+10	1	-1E+10	1	-1E+10	1	-1E+10	1
4901784	213	C	05/04/2021	10:47	-135.857	42.940	0	137.40	0	8.6530	0	36.8630	4	28.638	0	136.265	0	194.2	4	69.6	4	-1E+10	1	-1E+10	1	-1E+10	1	-1E+10	1	-1E+10	1	-1E+10	1
4901784	213	C	05/04/2021	10:47	-135.857	42.940	0	139.90	0	8.6020	0	36.8790	4	28.658	0	138.744	0	191.3	4	68.5	4	-1E+10	1	-1E+10	1	-1E+10	1	-1E+10	1	-1E+10	1	-1E+10	1
4901784	213	C	05/04/2021	10:47	-135.857	42.940	0	142.50	0	8.4920	0	36.9130	4	28.703	0	141.321	0	187.9	4	67.1	4	-1E+10	1	-1E+10	1	-1E+10	1	-1E+10	1	-1E+10	1	-1E+10	1
4901784	213	C	05/04/2021	10:47	-135.857	42.940	0	145.00	0	8.3560	0	36.9680	4	28.768	0	143.800	0	184.4	4	65.7	4	-1E+10	1	-1E+10	1	-1E+10	1	-1E+10	1	-1E+10	1	-1E+10	1
4901784	213	C	05/04/2021	10:47	-135.857	42.940	0	147.40	0	8.2210	0	37.0200	4	28.830	0	146.179	0	181.8	4	64.6	4	-1E+10	1	-1E+10	1	-1E+10	1	-1E+10	1	-1E+10	1	-1E+10	1
4901784	213	C	05/04/2021	10:47	-135.857	42.940	0	149.90	0	8.1480	0	37.0580	4	28.871	0	148.657	0	179.4	4	63.7	4	-1E+10	1	-1E+10	1	-1E+10	1	-1E+10	1	-1E+10	1	-1E+10	1
4901784	213	C	05/04/2021	10:47	-135.857	42.940	0	152.60	0	8.0960	0	37.1050	4	28.916	0	151.334	0	177.8	4	63.1	4	-1E+10	1	-1E+10	1	-1E+10	1	-1E+10	1	-1E+10	1	-1E+10	1
4901784	213	C	05/04/2021	10:47	-135.857	42.940	0	155.10	0	8.0500	0	37.1520	4	28.960	0	153.812	0	175.8	4	62.3	4	-1E+10	1	-1E+10	1	-1E+10	1	-1E+10	1	-1E+10	1	-1E+10	1
4901784	213	C	05/04/2021	10:47	-135.857	42.940	0	157.80	0	8.0120	0	37.1820	4	28.990	0	156.489	0	174.6	4	61.8	4	-1E+10	1	-1E+10	1	-1E+10	1	-1E+10	1	-1E+10	1	-1E+10	1
4901784	213	C	05/04/2021	10:47	-135.857	42.940	0	160.60	0	7.9940	0	37.2080	4	29.013	0	159.265	0	173.9	4	61.6	4	-1E+10	1	-1E+10	1	-1E+10	1	-1E+10	1	-1E+10	1	-1E+10	1
4901784	213	C	05/04/2021	10:47	-135.857	42.940	0	162.40	0	7.9710	0	37.2310	4	29.035	0	161.049	0	173.7	4	61.5	4	-1E+10	1	-1E+10	1	-1E+10	1	-1E+10	1	-1E+10	1	-1E+10	1
4901784	213	C	05/04/2021	10:47	-135.857	42.940	0	165.10	0	7.9650	0	37.2450	4	29.047	0	163.725	0	173.3	4	61.4	4	-1E+10	1	-1E+10	1	-1E+10	1	-1E+10	1	-1E+10	1	-1E+10	1
4901784	213	C	05/04/2021	10:47	-135.857	42.940	0	167.90	0	7.9750	0	37.2530	4	29.052	0	166.501	0	172.5	4	61.1	4	-1E+10	1	-1E+10	1	-1E+10	1	-1E+10	1	-1E+10	1	-1E+10	1
4901784	213	C	05/04/2021	10:47	-135.857	42.940	0	169.60	0	7.9590	0	37.2780	4	29.074	0	168.186	0	171.4	4	60.7	4	-1E+10	1	-1E+10	1	-1E+10	1	-1E+10	1	-1E+10	1	-1E+10	1
4901784	213	C	05/04/2021	10:47	-135.857	42.940	0	172.30	0	7.9460	0	37.2940	4	29.088	0	170.863	0	170.0	4	60.2	4	-1E+10	1	-1E+10	1	-1E+10	1	-1E+10	1	-1E+10	1	-1E+10	1
4901784	213	C	05/04/2021	10:47	-135.857	42.940	0	175.20	0	7.9260	0	37.3130	4	29.107	0	173.737	0	168.5	4	59.6	4	-1E+10	1	-1E+10	1	-1E+10	1	-1E+10	1	-1E+10	1	-1E+10	1
4901784	213	C	05/04/2021	10:47	-135.857	42.940	0	177.10	0	7.9200	0	37.3280	4	29.119	0	175.620	0	167.8	4	59.4	4	-1E+10	1	-1E+10	1	-1E+10	1	-1E+10	1	-1E+10	1	-1E+10	1
4901784	213	C	05/04/2021	10:47	-135.857	42.940	0	179.50	0	7.9010	0	37.3420	4	29.133	0	177.999	0	166.9	4	59.0	4	-1E+10	1	-1E+10	1	-1E+10	1	-1E+10	1	-1E+10	1	-1E+10	1
4901784	213	C	05/04/2021	10:47	-135.857	42.940	0	182.20	0	7.8910	0	37.3470	4	29.139	0	180.676	0	165.5	4	58.6	4	-1E+10	1	-1E+10	1	-1E+10	1	-1E+10	1	-1E+10	1	-1E+10	1
4901784	213	C	05/04/2021	10:47	-135.857	42.940	0	185.20	0	7.8710	0	37.3680	4	29.158	0	183.649	0	163.5	4	57.8	4	-1E+10	1	-1E+10	1	-1E+10	1	-1E+10	1	-1E+10	1	-1E+10	1
4901784	213	C	05/04/2021	10:47	-135.857	42.940	0	187.50	0	7.8620	0	37.3800	4	29.169	0	185.929	0	162.0	4	57.3	4	-1E+10	1	-1E+10	1	-1E+10	1	-1E+10	1	-1E+10	1	-1E+10	1
4901784	213	C	05/04/2021	10:47	-135.857	42.940	0	189.80	0	7.8590	0	37.3880	4	29.176	0	188.209	0	160.4	4	56.7	4	-1E+10	1	-1E+10	1	-1E+10	1	-1E+10	1	-1E+10	1	-1E+10	1
4901784	213	C	05/04/2021	10:47	-135.857	42.940	0	192.80	0	7.8260	0	37.4250	4	29.210	0	191.182	0	158.3	4	56.0	4	-1E+10	1	-1E+10	1	-1E+10	1	-1E+10	1	-1E+10	1	-1E+10	1
4901784	213	C	05/04/2021	10:47	-135.857	42.940	0	195.10	0	7.8090	0	37.4410	4	29.226	0	193.462	0	157.2	4	55.5	4	-1E+10	1	-1E+10	1	-1E+10	1	-1E+10	1	-1E+10	1	-1E+10	1
4901784	213	C	05/04/2021	10:47	-135.857	42.940	0	197.50	0	7.7830	0	37.4650	4	29.248	0	195.840	0	156.4	4	55.2	4	-1E+10	1	-1E+10	1	-1E+10	1	-1E+10	1	-1E+10	1	-1E+10	1
4901784	213	C	05/04/2021	10:47	-135.857	42.940	0	199.90	0	7.7580	0	37.4800	4	29.264	0	198.219	0	155.5	4	54.9	4	-1E+10	1	-1E+10	1	-1E+10	1	-1E+10	1	-1E+10	1	-1E+10	1
4901784	213	C	05/04/2021	10:47	-135.857	42.940	0	202.30	0	7.7370	0	37.4960	4	29.280	0	200.598	0	154.5	4	54.5	4	-1E+10	1	-1E+10	1	-1E+10	1	-1E+10	1	-1E+10	1	-1E+10	1
4901784	213	C	05/04/2021	10:47	-135.857	42.940	0	204.70	0	7.7250	0	37.5030	4	29.287	0	202.976	0	153.7	4	54.2	4	-1E+10	1	-1E+10	1	-1E+10	1	-1E+10	1	-1E+10	1	-1E+10	1
4901784	213	C	05/04/2021	10:47	-135.857	42.940	0	207.20	0	7.7070	0	37.5140	4	29.299	0	205.454	0	153.0	4	54.0	4	-1E+10	1	-1E+10	1	-1E+10	1	-1E+10	1	-1E+10	1	-1E+10	1
4901784	213	C	05/04/2021	10:47	-135.857	42.940	0	209.70	0	7.6880	0	37.5230	4	29.309	0	207.932	0	152.2	4	53.7	4	-1E+10	1	-1E+10	1	-1E+10	1	-1E+10	1	-1E+10	1	-1E+10	1
4901784	213	C	05/04/2021	10:47	-135.857	42.940	0	212.20	0	7.6700	0	37.5280	4	29.316	0	210.409	0	151.2	4	53.3	4	-1E+10	1	-1E+10	1	-1E+10	1	-1E+10	1	-1E+10	1	-1E+10	1
4901784	213	C	05/04/2021	10:47	-135.857	42.940	0	214.70	0	7.6590	0	37.5300	4	29.319	0	212.887	0	150.0	4	52.8	4	-1E+10	1	-1E+10	1	-1E+10	1	-1E+10	1	-1E+10	1	-1E+10	1
4901784	213	C	05/04/2021	10:47	-135.857	42.940	0	217.20	0	7.6270	0	37.5440	4	29.335	0	215.365	0	148.6	4	52.3	4	-1E+10	1	-1E+10	1	-1E+10	1	-1E+10	1	-1E+10	1	-1E+10	1
4901784	213	C	05/04/2021	10:47	-135.857	42.940	0	219.70	0	7.5960	0	37.5530	4	29.347	0	217.842	0	147.2	4	51.8	4	-1E+10	1	-1E+10	1	-1E+10	1	-1E+10	1	-1E+10	1	-1E+10	1
4901784	213	C	05/04/2021	10:47	-135.857	42.940	0	222.30	0	7.5860	0	37.5560	4	29.351	0	220.419	0	145.7	4	51.3	4	-1E+10	1	-1E+10	1	-1E+10	1	-1E+10	1	-1E+10	1	-1E+10	1
4901784	213	C	05/04/2021	10:47	-135.857	42.940	0	224.80	0	7.5660	0	37.5630	4	29.359	0	222.896	0	144.1	4	50.7	4	-1E+10	1	-1E+10	1	-1E+10	1	-1E+10	1	-1E+10	1	-1E+10	1
4901784	213	C	05/04/2021	10:47	-135.857	42.940	0	227.40	0	7.5550	0	37.5670	4	29.364	0	225.473	0	142.9	4	50.3	4	-1E+10	1	-1E+10	1	-1E+10	1	-1E+10	1	-1E+10	1	-1E+10	1
4901784	213	C	05/04/2021	10:47	-135.857	42.940	0	230.00	0	7.5420	0	37.5700	4	29.368	0	228.049	0	142.1	4	50.0	4	-1E+10	1	-1E+10	1	-1E+10	1	-1E+10	1	-1E+10	1	-1E+10	1
4901784	213	C	05/04/2021	10:47	-135.857	42.940	0	232.60	0	7.5180	0	37.5730	4	29.374	0	230.626	0	141.5	4	49.7	4	-1E+10	1	-1E+10	1	-1E+10	1	-1E+10	1	-1E+10	1	-1E+10	1
4901784	213	C	05/04/2021	10:47	-135.857	42.940	0	235.20	0	7.4800	0	37.5780	4	29.384	0	233.202	0	141.4	4	49.6	4	-1E+10	1	-1E+10	1	-1E+10	1	-1E+10	1	-1E+10	1	-1E+10	1
4901784	213	C	05/04/2021	10:47	-135.857	42.940	0	237.80	0	7.4440	0	37.5780	4	29.390	0	235.779	0	142.5	4	50.0	4	-1E+10	1	-1E+10	1	-1E+10	1	-1E+10	1	-1E+10	1	-1E+10	1
4901784	213	C	05/04/2021	10:47	-135.857	42.940	0	240.40	0	7.4050	0	37.5800	4	29.397	0	238.355	0	143.4	4	50.3	4	-1E+10	1	-1E+10	1	-1E+10	1	-1E+10	1	-1E+10	1	-1E+10	1
4901784	213	C	05/04/2021	10:47	-135.857	42.940	0	242.20	0	7.4000	0	37.5790	4	29.397	0	240.139	0	143.7	4	50.4	4	-1E+10	1	-1E+10	1	-1E+10	1	-1E+10	1	-1E+10	1	-1E+10	1
4901784	213	C	05/04/2021	10:47	-135.857	42.940	0	244.70	0	7.3770	0	37.5790	4	29.400	0	242.616	0	143.6	4	50.3	4	-1E+10	1	-1E+10	1	-1E+10	1	-1E+10	1	-1E+10	1	-1E+10	1
4901784	213	C	05/04/2021	10:47	-135.857	42.940	0	247.30	0	7.3630	0	37.5770	4	29.401	0	245.192	0	143.0	4	50.1	4	-1E+10	1	-1E+10	1	-1E+10	1	-1E+10	1	-1E+10	1	-1E+10	1
4901784	213	C	05/04/2021	10:47	-135.857	42.940	0	249.90	0	7.3190	0	37.5820	4	29.411	0	247.769	0	141.5	4	49.5	4	-1E+10	1	-1E+10	1	-1E+10	1	-1E+10	1	-1E+10	1	-1E+10	1
4901784	213	C	05/04/2021	10:47	-135.857	42.940	0	252.50	0	7.3270	0	37.5870	4	29.414	0	250.345	0	141.3	4	49.5	4	-1E+10	1	-1E+10	1	-1E+10	1	-1E+10	1	-1E+10	1	-1E+10	1
4901784	213	C	05/04/2021	10:47	-135.857	42.940	0	255.10	0	7.2980	0	37.5850	4	29.417	0	252.921	0	141.4	4	49.5	4	-1E+10	1	-1E+10	1	-1E+10	1	-1E+10	1	-1E+10	1	-1E+10	1
4901784	213	C	05/04/2021	10:47	-135.857	42.940	0	257.70	0	7.2600	0	37.5840	4	29.422	0	255.497	0	141.1	4	49.3	4	-1E+10	1	-1E+10	1	-1E+10	1	-1E+10	1	-1E+10	1	-1E+10	1
4901784	213	C	05/04/2021	10:47	-135.857	42.940	0	259.50	0	7.2220	0	37.5860	4	29.429	0	257.281	0	140.2	4	48.9	4	-1E+10	1	-1E+10	1	-1E+10	1	-1E+10	1	-1E+10	1	-1E+10	1
4901784	213	C	05/04/2021	10:47	-135.857	42.940	0	262.20	0	7.2030	0	37.5890	4	29.434	0	259.956	0	138.2	4	48.2	4	-1E+10	1	-1E+10	1	-1E+10	1	-1E+10	1	-1E+10	1	-1E+10	1
4901784	213	C	05/04/2021	10:47	-135.857	42.940	0	264.90	0	7.1780	0	37.5920	4	29.440	0	262.631	0	137.6	4	48.0	4	-1E+10	1	-1E+10	1	-1E+10	1	-1E+10	1	-1E+10	1	-1E+10	1
4901784	213	C	05/04/2021	10:47	-135.857	42.940	0	267.60	0	7.1440	0	37.5920	4	29.445	0	265.306	0	136.8	4	47.7	4	-1E+10	1	-1E+10	1	-1E+10	1	-1E+10	1	-1E+10	1	-1E+10	1
4901784	213	C	05/04/2021	10:47	-135.857	42.940	0	270.30	0	7.1120	0	37.5960	4	29.453	0	267.981	0	136.7	4	47.6	4	-1E+10	1	-1E+10	1	-1E+10	1	-1E+10	1	-1E+10	1	-1E+10	1
4901784	213	C	05/04/2021	10:47	-135.857	42.940	0	272.10	0	7.0440	0	37.5970	4	29.464	0	269.765	0	138.4	4	48.1	4	-1E+10	1	-1E+10	1	-1E+10	1	-1E+10	1	-1E+10	1	-1E+10	1
4901784	213	C	05/04/2021	10:47	-135.857	42.940	0	274.80	0	6.9960	0	37.5940	4	29.469	0	272.440	0	140.0	4	48.6	4	-1E+10	1	-1E+10	1	-1E+10	1	-1E+10	1	-1E+10	1	-1E+10	1
4901784	213	C	05/04/2021	10:47	-135.857	42.940	0	277.50	0	6.9710	0	37.5900	4	29.469	0	275.115	0	140.7	4	48.8	4	-1E+10	1	-1E+10	1	-1E+10	1	-1E+10	1	-1E+10	1	-1E+10	1
4901784	213	C	05/04/2021	10:47	-135.857	42.940	0	280.30	0	6.9210	0	37.5840	4	29.472	0	277.889	0	141.0	4	48.9	4	-1E+10	1	-1E+10	1	-1E+10	1	-1E+10	1	-1E+10	1	-1E+10	1
4901784	213	C	05/04/2021	10:47	-135.857	42.940	0	283.10	0	6.8160	0	37.5890	4	29.491	0	280.663	0	140.3	4	48.5	4	-1E+10	1	-1E+10	1	-1E+10	1	-1E+10	1	-1E+10	1	-1E+10	1
4901784	213	C	05/04/2021	10:47	-135.857	42.940	0	285.00	0	6.7990	0	37.5890	4	29.493	0	282.545	0	139.8	4	48.3	4	-1E+10	1	-1E+10	1	-1E+10	1	-1E+10	1	-1E+10	1	-1E+10	1
4901784	213	C	05/04/2021	10:47	-135.857	42.940	0	286.90	0	6.7810	0	37.5880	4	29.495	0	284.428	0	139.1	4	48.1	4	-1E+10	1	-1E+10	1	-1E+10	1	-1E+10	1	-1E+10	1	-1E+10	1
4901784	213	C	05/04/2021	10:47	-135.857	42.940	0	289.70	0	6.7460	0	37.5880	4	29.500	0	287.202	0	138.0	4	47.7	4	-1E+10	1	-1E+10	1	-1E+10	1	-1E+10	1	-1E+10	1	-1E+10	1
4901784	213	C	05/04/2021	10:47	-135.857	42.940	0	292.50	0	6.7050	0	37.5890	4	29.507	0	289.975	0	136.7	4	47.2	4	-1E+10	1	-1E+10	1	-1E+10	1	-1E+10	1	-1E+10	1	-1E+10	1
4901784	213	C	05/04/2021	10:47	-135.857	42.940	0	295.20	0	6.6750	0	37.5860	4	29.509	0	292.650	0	135.4	4	46.7	4	-1E+10	1	-1E+10	1	-1E+10	1	-1E+10	1	-1E+10	1	-1E+10	1
4901784	213	C	05/04/2021	10:47	-135.857	42.940	0	297.90	0	6.6230	0	37.5870	4	29.517	0	295.325	0	134.0	4	46.1	4	-1E+10	1	-1E+10	1	-1E+10	1	-1E+10	1	-1E+10	1	-1E+10	1
4901784	213	C	05/04/2021	10:47	-135.857	42.940	0	299.70	0	6.5870	0	37.5880	4	29.523	0	297.108	0	133.2	4	45.8	4	-1E+10	1	-1E+10	1	-1E+10	1	-1E+10	1	-1E+10	1	-1E+10	1
4901784	213	C	05/04/2021	10:47	-135.857	42.940	0	301.60	0	6.5630	0	37.5880	4	29.526	0	298.990	0	132.6	4	45.6	4	-1E+10	1	-1E+10	1	-1E+10	1	-1E+10	1	-1E+10	1	-1E+10	1
4901784	213	C	05/04/2021	10:47	-135.857	42.940	0	304.70	0	6.5370	0	37.5870	4	29.529	0	302.061	0	131.6	4	45.2	4	-1E+10	1	-1E+10	1	-1E+10	1	-1E+10	1	-1E+10	1	-1E+10	1
4901784	213	C	05/04/2021	10:47	-135.857	42.940	0	307.50	0	6.5200	0	37.5830	4	29.528	0	304.835	0	130.4	4	44.8	4	-1E+10	1	-1E+10	1	-1E+10	1	-1E+10	1	-1E+10	1	-1E+10	1
4901784	213	C	05/04/2021	10:47	-135.857	42.940	0	309.80	0	6.4810	0	37.5820	4	29.533	0	307.113	0	129.0	4	44.3	4	-1E+10	1	-1E+10	1	-1E+10	1	-1E+10	1	-1E+10	1	-1E+10	1
4901784	213	C	05/04/2021	10:47	-135.857	42.940	0	312.80	0	6.4440	0	37.5750	4	29.533	0	310.085	0	127.4	4	43.7	4	-1E+10	1	-1E+10	1	-1E+10	1	-1E+10	1	-1E+10	1	-1E+10	1
4901784	213	C	05/04/2021	10:47	-135.857	42.940	0	315.20	0	6.3940	0	37.5740	4	29.539	0	312.462	0	126.2	4	43.2	4	-1E+10	1	-1E+10	1	-1E+10	1	-1E+10	1	-1E+10	1	-1E+10	1
4901784	213	C	05/04/2021	10:47	-135.857	42.940	0	317.60	0	6.3720	0	37.5660	4	29.536	0	314.840	0	125.3	4	42.9	4	-1E+10	1	-1E+10	1	-1E+10	1	-1E+10	1	-1E+10	1	-1E+10	1
4901784	213	C	05/04/2021	10:47	-135.857	42.940	0	320.00	0	6.3630	0	37.5510	4	29.525	0	317.217	0	124.2	4	42.5	4	-1E+10	1	-1E+10	1	-1E+10	1	-1E+10	1	-1E+10	1	-1E+10	1
4901784	213	C	05/04/2021	10:47	-135.857	42.940	0	322.50	0	6.3340	0	37.5330	4	29.515	0	319.693	0	122.8	4	42.0	4	-1E+10	1	-1E+10	1	-1E+10	1	-1E+10	1	-1E+10	1	-1E+10	1
4901784	213	C	05/04/2021	10:47	-135.857	42.940	0	324.90	0	6.2870	8	37.5030	8	29.498	0	322.071	0	121.6	4	41.5	4	-1E+10	1	-1E+10	1	-1E+10	1	-1E+10	1	-1E+10	1	-1E+10	1
4901784	213	C	05/04/2021	10:47	-135.857	42.940	0	327.40	0	6.2600	8	37.4580	8	29.466	0	324.547	0	120.4	4	41.1	4	-1E+10	1	-1E+10	1	-1E+10	1	-1E+10	1	-1E+10	1	-1E+10	1
4901784	213	C	05/04/2021	10:47	-135.857	42.940	0	329.80	0	6.2160	8	37.3540	8	29.390	0	326.924	0	119.1	4	40.6	4	-1E+10	1	-1E+10	1	-1E+10	1	-1E+10	1	-1E+10	1	-1E+10	1
4901784	213	C	05/04/2021	10:47	-135.857	42.940	0	332.30	0	6.1910	8	37.2350	8	29.299	0	329.400	0	118.0	4	40.1	4	-1E+10	1	-1E+10	1	-1E+10	1	-1E+10	1	-1E+10	1	-1E+10	1
4901784	213	C	05/04/2021	10:47	-135.857	42.940	0	334.80	0	6.1670	8	37.1550	8	29.239	0	331.877	0	117.0	4	39.7	4	-1E+10	1	-1E+10	1	-1E+10	1	-1E+10	1	-1E+10	1	-1E+10	1
4901784	213	C	05/04/2021	10:47	-135.857	42.940	0	337.40	0	6.1400	8	37.0870	8	29.189	0	334.452	0	115.7	4	39.3	4	-1E+10	1	-1E+10	1	-1E+10	1	-1E+10	1	-1E+10	1	-1E+10	1
4901784	213	C	05/04/2021	10:47	-135.857	42.940	0	339.90	0	6.1120	8	37.0380	8	29.154	0	336.928	0	114.4	4	38.8	4	-1E+10	1	-1E+10	1	-1E+10	1	-1E+10	1	-1E+10	1	-1E+10	1
4901784	213	C	05/04/2021	10:47	-135.857	42.940	0	342.40	0	6.0660	0	37.0330	4	29.156	0	339.404	0	113.4	4	38.4	4	-1E+10	1	-1E+10	1	-1E+10	1	-1E+10	1	-1E+10	1	-1E+10	1
4901784	213	C	05/04/2021	10:47	-135.857	42.940	0	345.00	0	6.0470	0	37.0160	4	29.145	0	341.979	0	112.2	4	38.0	4	-1E+10	1	-1E+10	1	-1E+10	1	-1E+10	1	-1E+10	1	-1E+10	1
4901784	213	C	05/04/2021	10:47	-135.857	42.940	0	347.50	0	6.0150	0	37.0030	4	29.139	0	344.455	0	111.1	4	37.6	4	-1E+10	1	-1E+10	1	-1E+10	1	-1E+10	1	-1E+10	1	-1E+10	1
4901784	213	C	05/04/2021	10:47	-135.857	42.940	0	350.00	0	5.9840	0	36.9920	4	29.135	0	346.931	0	110.1	4	37.2	4	-1E+10	1	-1E+10	1	-1E+10	1	-1E+10	1	-1E+10	1	-1E+10	1
4901784	213	C	05/04/2021	10:47	-135.857	42.940	0	352.50	0	5.9700	0	36.9840	4	29.130	0	349.407	0	108.8	4	36.8	4	-1E+10	1	-1E+10	1	-1E+10	1	-1E+10	1	-1E+10	1	-1E+10	1
4901784	213	C	05/04/2021	10:47	-135.857	42.940	0	355.10	0	5.9490	0	36.9710	4	29.123	0	351.982	0	107.6	4	36.3	4	-1E+10	1	-1E+10	1	-1E+10	1	-1E+10	1	-1E+10	1	-1E+10	1
4901784	213	C	05/04/2021	10:47	-135.857	42.940	0	357.70	0	5.9210	0	36.9750	4	29.129	0	354.557	0	106.7	4	36.0	4	-1E+10	1	-1E+10	1	-1E+10	1	-1E+10	1	-1E+10	1	-1E+10	1
4901784	213	C	05/04/2021	10:47	-135.857	42.940	0	360.30	0	5.9120	0	36.9460	4	29.108	0	357.132	0	105.8	4	35.7	4	-1E+10	1	-1E+10	1	-1E+10	1	-1E+10	1	-1E+10	1	-1E+10	1
4901784	213	C	05/04/2021	10:47	-135.857	42.940	0	362.90	0	5.9020	0	36.9510	4	29.113	0	359.707	0	104.8	4	35.3	4	-1E+10	1	-1E+10	1	-1E+10	1	-1E+10	1	-1E+10	1	-1E+10	1
4901784	213	C	05/04/2021	10:47	-135.857	42.940	0	365.50	0	5.8740	0	36.9510	4	29.117	0	362.282	0	103.6	4	34.9	4	-1E+10	1	-1E+10	1	-1E+10	1	-1E+10	1	-1E+10	1	-1E+10	1
4901784	213	C	05/04/2021	10:47	-135.857	42.940	0	367.20	0	5.8670	0	36.9370	4	29.107	0	363.965	0	102.9	4	34.6	4	-1E+10	1	-1E+10	1	-1E+10	1	-1E+10	1	-1E+10	1	-1E+10	1
4901784	213	C	05/04/2021	10:47	-135.857	42.940	0	369.80	0	5.8280	0	36.9320	4	29.108	0	366.540	0	101.3	4	34.1	4	-1E+10	1	-1E+10	1	-1E+10	1	-1E+10	1	-1E+10	1	-1E+10	1
4901784	213	C	05/04/2021	10:47	-135.857	42.940	0	372.30	0	5.7740	0	36.9350	4	29.117	0	369.016	0	99.6	4	33.5	4	-1E+10	1	-1E+10	1	-1E+10	1	-1E+10	1	-1E+10	1	-1E+10	1
4901784	213	C	05/04/2021	10:47	-135.857	42.940	0	374.90	0	5.7060	0	36.9510	4	29.139	0	371.590	0	98.2	4	32.9	4	-1E+10	1	-1E+10	1	-1E+10	1	-1E+10	1	-1E+10	1	-1E+10	1
4901784	213	C	05/04/2021	10:47	-135.857	42.940	0	377.40	0	5.6900	0	36.9460	4	29.137	0	374.066	0	97.0	4	32.6	4	-1E+10	1	-1E+10	1	-1E+10	1	-1E+10	1	-1E+10	1	-1E+10	1
4901784	213	C	05/04/2021	10:47	-135.857	42.940	0	380.00	0	5.6770	0	36.9390	4	29.133	0	376.641	0	95.4	4	32.0	4	-1E+10	1	-1E+10	1	-1E+10	1	-1E+10	1	-1E+10	1	-1E+10	1
4901784	213	C	05/04/2021	10:47	-135.857	42.940	0	382.60	0	5.6550	0	36.9430	4	29.139	0	379.215	0	94.0	4	31.5	4	-1E+10	1	-1E+10	1	-1E+10	1	-1E+10	1	-1E+10	1	-1E+10	1
4901784	213	C	05/04/2021	10:47	-135.857	42.940	0	385.20	0	5.6200	0	36.9450	4	29.145	0	381.790	0	92.4	4	31.0	4	-1E+10	1	-1E+10	1	-1E+10	1	-1E+10	1	-1E+10	1	-1E+10	1
4901784	213	C	05/04/2021	10:47	-135.857	42.940	0	387.90	0	5.5770	0	36.9580	4	29.161	0	384.464	0	91.3	4	30.6	4	-1E+10	1	-1E+10	1	-1E+10	1	-1E+10	1	-1E+10	1	-1E+10	1
4901784	213	C	05/04/2021	10:47	-135.857	42.940	0	389.60	0	5.5730	0	36.9480	4	29.154	0	386.147	0	90.6	4	30.3	4	-1E+10	1	-1E+10	1	-1E+10	1	-1E+10	1	-1E+10	1	-1E+10	1
4901784	213	C	05/04/2021	10:47	-135.857	42.940	0	392.30	0	5.5450	0	36.9490	4	29.158	0	388.821	0	89.5	4	29.9	4	-1E+10	1	-1E+10	1	-1E+10	1	-1E+10	1	-1E+10	1	-1E+10	1
4901784	213	C	05/04/2021	10:47	-135.857	42.940	0	394.90	0	5.5160	0	36.9440	4	29.158	0	391.395	0	88.4	4	29.5	4	-1E+10	1	-1E+10	1	-1E+10	1	-1E+10	1	-1E+10	1	-1E+10	1
4901784	213	C	05/04/2021	10:47	-135.857	42.940	0	397.60	0	5.4970	0	36.9460	4	29.162	0	394.069	0	87.5	4	29.2	4	-1E+10	1	-1E+10	1	-1E+10	1	-1E+10	1	-1E+10	1	-1E+10	1
4901784	213	C	05/04/2021	10:47	-135.857	42.940	0	400.20	0	5.4570	0	36.9470	4	29.168	0	396.643	0	86.7	4	28.9	4	-1E+10	1	-1E+10	1	-1E+10	1	-1E+10	1	-1E+10	1	-1E+10	1
4901784	213	C	05/04/2021	10:47	-135.857	42.940	0	402.80	0	5.4400	0	36.9430	4	29.167	0	399.217	0	85.6	4	28.5	4	-1E+10	1	-1E+10	1	-1E+10	1	-1E+10	1	-1E+10	1	-1E+10	1
4901784	213	C	05/04/2021	10:47	-135.857	42.940	0	405.40	0	5.4080	0	36.9430	4	29.171	0	401.792	0	84.4	4	28.1	4	-1E+10	1	-1E+10	1	-1E+10	1	-1E+10	1	-1E+10	1	-1E+10	1
4901784	213	C	05/04/2021	10:47	-135.857	42.940	0	407.10	0	5.3890	0	36.9390	4	29.170	0	403.475	0	83.9	4	27.9	4	-1E+10	1	-1E+10	1	-1E+10	1	-1E+10	1	-1E+10	1	-1E+10	1
4901784	213	C	05/04/2021	10:47	-135.857	42.940	0	409.80	0	5.3680	0	36.9410	4	29.174	0	406.148	0	83.0	4	27.6	4	-1E+10	1	-1E+10	1	-1E+10	1	-1E+10	1	-1E+10	1	-1E+10	1
4901784	213	C	05/04/2021	10:47	-135.857	42.940	0	412.40	0	5.3400	0	36.9420	4	29.178	0	408.722	0	82.1	4	27.3	4	-1E+10	1	-1E+10	1	-1E+10	1	-1E+10	1	-1E+10	1	-1E+10	1
4901784	213	C	05/04/2021	10:47	-135.857	42.940	0	415.00	0	5.3070	0	36.9440	4	29.184	0	411.297	0	81.2	4	27.0	4	-1E+10	1	-1E+10	1	-1E+10	1	-1E+10	1	-1E+10	1	-1E+10	1
4901784	213	C	05/04/2021	10:47	-135.857	42.940	0	417.60	0	5.2780	0	36.9460	4	29.189	0	413.871	0	80.3	4	26.7	4	-1E+10	1	-1E+10	1	-1E+10	1	-1E+10	1	-1E+10	1	-1E+10	1
4901784	213	C	05/04/2021	10:47	-135.857	42.940	0	420.20	0	5.2640	0	36.9460	4	29.191	0	416.445	0	79.6	4	26.4	4	-1E+10	1	-1E+10	1	-1E+10	1	-1E+10	1	-1E+10	1	-1E+10	1
4901784	213	C	05/04/2021	10:47	-135.857	42.940	0	422.80	0	5.2250	0	36.9500	4	29.199	0	419.019	0	78.9	4	26.2	4	-1E+10	1	-1E+10	1	-1E+10	1	-1E+10	1	-1E+10	1	-1E+10	1
4901784	213	C	05/04/2021	10:47	-135.857	42.940	0	425.40	0	5.1940	0	36.9510	4	29.204	0	421.593	0	78.6	4	26.1	4	-1E+10	1	-1E+10	1	-1E+10	1	-1E+10	1	-1E+10	1	-1E+10	1
4901784	213	C	05/04/2021	10:47	-135.857	42.940	0	427.90	0	5.1710	0	36.9520	4	29.208	0	424.068	0	78.0	4	25.9	4	-1E+10	1	-1E+10	1	-1E+10	1	-1E+10	1	-1E+10	1	-1E+10	1
4901784	213	C	05/04/2021	10:47	-135.857	42.940	0	429.70	0	5.1640	0	36.9520	4	29.208	0	425.850	0	77.7	4	25.7	4	-1E+10	1	-1E+10	1	-1E+10	1	-1E+10	1	-1E+10	1	-1E+10	1
4901784	213	C	05/04/2021	10:47	-135.857	42.940	0	432.30	0	5.1370	0	36.9530	4	29.213	0	428.424	0	77.1	4	25.6	4	-1E+10	1	-1E+10	1	-1E+10	1	-1E+10	1	-1E+10	1	-1E+10	1
4901784	213	C	05/04/2021	10:47	-135.857	42.940	0	434.80	0	5.1130	0	36.9540	4	29.216	0	430.899	0	76.5	4	25.3	4	-1E+10	1	-1E+10	1	-1E+10	1	-1E+10	1	-1E+10	1	-1E+10	1
4901784	213	C	05/04/2021	10:47	-135.857	42.940	0	437.50	0	5.0930	0	36.9560	4	29.220	0	433.572	0	75.6	4	25.0	4	-1E+10	1	-1E+10	1	-1E+10	1	-1E+10	1	-1E+10	1	-1E+10	1
4901784	213	C	05/04/2021	10:47	-135.857	42.940	0	440.10	0	5.0730	0	36.9580	4	29.224	0	436.146	0	74.9	4	24.8	4	-1E+10	1	-1E+10	1	-1E+10	1	-1E+10	1	-1E+10	1	-1E+10	1
4901784	213	C	05/04/2021	10:47	-135.857	42.940	0	442.70	0	5.0300	0	36.9620	4	29.233	0	438.720	0	74.6	4	24.7	4	-1E+10	1	-1E+10	1	-1E+10	1	-1E+10	1	-1E+10	1	-1E+10	1
4901784	213	C	05/04/2021	10:47	-135.857	42.940	0	445.40	0	5.0050	0	36.9640	4	29.238	0	441.393	0	74.2	4	24.5	4	-1E+10	1	-1E+10	1	-1E+10	1	-1E+10	1	-1E+10	1	-1E+10	1
4901784	213	C	05/04/2021	10:47	-135.857	42.940	0	447.10	0	5.0010	0	36.9640	4	29.238	0	443.076	0	74.0	4	24.4	4	-1E+10	1	-1E+10	1	-1E+10	1	-1E+10	1	-1E+10	1	-1E+10	1
4901784	213	C	05/04/2021	10:47	-135.857	42.940	0	449.80	0	4.9850	0	36.9660	4	29.242	0	445.749	0	73.5	4	24.2	4	-1E+10	1	-1E+10	1	-1E+10	1	-1E+10	1	-1E+10	1	-1E+10	1
4901784	213	C	05/04/2021	10:47	-135.857	42.940	0	452.40	0	4.9750	0	36.9670	4	29.244	0	448.323	0	72.5	4	23.9	4	-1E+10	1	-1E+10	1	-1E+10	1	-1E+10	1	-1E+10	1	-1E+10	1
4901784	213	C	05/04/2021	10:47	-135.857	42.940	0	455.00	0	4.9700	0	36.9690	4	29.246	0	450.896	0	71.3	4	23.5	4	-1E+10	1	-1E+10	1	-1E+10	1	-1E+10	1	-1E+10	1	-1E+10	1
4901784	213	C	05/04/2021	10:47	-135.857	42.940	0	457.50	0	4.9620	0	36.9710	4	29.248	0	453.371	0	69.7	4	23.0	4	-1E+10	1	-1E+10	1	-1E+10	1	-1E+10	1	-1E+10	1	-1E+10	1
4901784	213	C	05/04/2021	10:47	-135.857	42.940	0	460.00	0	4.9710	0	36.9790	4	29.254	0	455.846	0	67.6	4	22.3	4	-1E+10	1	-1E+10	1	-1E+10	1	-1E+10	1	-1E+10	1	-1E+10	1
4901784	213	C	05/04/2021	10:47	-135.857	42.940	0	462.60	0	4.9840	0	36.9850	4	29.257	0	458.419	0	66.0	4	21.8	4	-1E+10	1	-1E+10	1	-1E+10	1	-1E+10	1	-1E+10	1	-1E+10	1
4901784	213	C	05/04/2021	10:47	-135.857	42.940	0	465.10	0	5.0020	0	36.9880	4	29.257	0	460.894	0	65.2	4	21.5	4	-1E+10	1	-1E+10	1	-1E+10	1	-1E+10	1	-1E+10	1	-1E+10	1
4901784	213	C	05/04/2021	10:47	-135.857	42.940	0	467.60	0	4.9710	0	36.9900	4	29.262	0	463.369	0	64.9	4	21.4	4	-1E+10	1	-1E+10	1	-1E+10	1	-1E+10	1	-1E+10	1	-1E+10	1
4901784	213	C	05/04/2021	10:47	-135.857	42.940	0	470.10	0	4.9490	0	36.9920	4	29.267	0	465.843	0	64.6	4	21.3	4	-1E+10	1	-1E+10	1	-1E+10	1	-1E+10	1	-1E+10	1	-1E+10	1
4901784	213	C	05/04/2021	10:47	-135.857	42.940	0	472.60	0	4.9260	0	36.9930	4	29.270	0	468.318	0	64.6	4	21.3	4	-1E+10	1	-1E+10	1	-1E+10	1	-1E+10	1	-1E+10	1	-1E+10	1
4901784	213	C	05/04/2021	10:47	-135.857	42.940	0	475.20	0	4.9010	0	36.9940	4	29.274	0	470.891	0	64.5	4	21.3	4	-1E+10	1	-1E+10	1	-1E+10	1	-1E+10	1	-1E+10	1	-1E+10	1
4901784	213	C	05/04/2021	10:47	-135.857	42.940	0	477.70	0	4.8870	0	36.9940	4	29.276	0	473.366	0	64.4	4	21.2	4	-1E+10	1	-1E+10	1	-1E+10	1	-1E+10	1	-1E+10	1	-1E+10	1
4901784	213	C	05/04/2021	10:47	-135.857	42.940	0	480.20	0	4.8570	0	36.9940	4	29.279	0	475.840	0	64.0	4	21.1	4	-1E+10	1	-1E+10	1	-1E+10	1	-1E+10	1	-1E+10	1	-1E+10	1
4901784	213	C	05/04/2021	10:47	-135.857	42.940	0	482.70	0	4.8420	0	36.9960	4	29.283	0	478.315	0	63.2	4	20.8	4	-1E+10	1	-1E+10	1	-1E+10	1	-1E+10	1	-1E+10	1	-1E+10	1
4901784	213	C	05/04/2021	10:47	-135.857	42.940	0	485.30	0	4.8350	0	37.0020	4	29.289	0	480.888	0	62.4	4	20.5	4	-1E+10	1	-1E+10	1	-1E+10	1	-1E+10	1	-1E+10	1	-1E+10	1
4901784	213	C	05/04/2021	10:47	-135.857	42.940	0	487.80	0	4.8240	0	37.0010	4	29.289	0	483.362	0	61.8	4	20.3	4	-1E+10	1	-1E+10	1	-1E+10	1	-1E+10	1	-1E+10	1	-1E+10	1
4901784	213	C	05/04/2021	10:47	-135.857	42.940	0	490.40	0	4.8190	0	37.0000	4	29.289	0	485.936	0	60.8	4	20.0	4	-1E+10	1	-1E+10	1	-1E+10	1	-1E+10	1	-1E+10	1	-1E+10	1
4901784	213	C	05/04/2021	10:47	-135.857	42.940	0	492.90	0	4.7920	0	37.0040	4	29.295	0	488.410	0	59.8	4	19.7	4	-1E+10	1	-1E+10	1	-1E+10	1	-1E+10	1	-1E+10	1	-1E+10	1
4901784	213	C	05/04/2021	10:47	-135.857	42.940	0	494.50	0	4.7770	0	37.0120	4	29.303	0	489.994	0	59.2	4	19.4	4	-1E+10	1	-1E+10	1	-1E+10	1	-1E+10	1	-1E+10	1	-1E+10	1
4901784	213	C	05/04/2021	10:47	-135.857	42.940	0	497.10	0	4.7590	0	37.0130	4	29.306	0	492.567	0	59.0	4	19.4	4	-1E+10	1	-1E+10	1	-1E+10	1	-1E+10	1	-1E+10	1	-1E+10	1
4901784	213	C	05/04/2021	10:47	-135.857	42.940	0	499.70	0	4.7490	0	37.0120	4	29.307	0	495.140	0	58.8	4	19.3	4	-1E+10	1	-1E+10	1	-1E+10	1	-1E+10	1	-1E+10	1	-1E+10	1
4901784	213	C	05/04/2021	10:47	-135.857	42.940	0	504.90	0	4.6820	0	37.0130	4	29.316	0	500.286	0	57.4	4	18.8	4	-1E+10	1	-1E+10	1	-1E+10	1	-1E+10	1	-1E+10	1	-1E+10	1
4901784	213	C	05/04/2021	10:47	-135.857	42.940	0	510.10	0	4.6410	0	37.0280	4	29.332	0	505.432	0	54.7	4	17.9	4	-1E+10	1	-1E+10	1	-1E+10	1	-1E+10	1	-1E+10	1	-1E+10	1
4901784	213	C	05/04/2021	10:47	-135.857	42.940	0	515.20	0	4.6840	0	37.0320	4	29.331	0	510.479	0	52.8	4	17.3	4	-1E+10	1	-1E+10	1	-1E+10	1	-1E+10	1	-1E+10	1	-1E+10	1
4901784	213	C	05/04/2021	10:47	-135.857	42.940	0	520.40	0	4.6360	0	37.0370	4	29.340	0	515.625	0	51.5	4	16.9	4	-1E+10	1	-1E+10	1	-1E+10	1	-1E+10	1	-1E+10	1	-1E+10	1
4901784	213	C	05/04/2021	10:47	-135.857	42.940	0	525.50	0	4.6070	0	37.0430	4	29.348	0	520.672	0	50.6	4	16.5	4	-1E+10	1	-1E+10	1	-1E+10	1	-1E+10	1	-1E+10	1	-1E+10	1
4901784	213	C	05/04/2021	10:47	-135.857	42.940	0	530.70	0	4.5840	0	37.0460	4	29.354	0	525.818	0	49.6	4	16.2	4	-1E+10	1	-1E+10	1	-1E+10	1	-1E+10	1	-1E+10	1	-1E+10	1
4901784	213	C	05/04/2021	10:47	-135.857	42.940	0	535.00	0	4.5650	0	37.0500	4	29.359	0	530.073	0	48.5	4	15.9	4	-1E+10	1	-1E+10	1	-1E+10	1	-1E+10	1	-1E+10	1	-1E+10	1
4901784	213	C	05/04/2021	10:47	-135.857	42.940	0	539.40	0	4.5430	0	37.0540	4	29.365	0	534.427	0	47.1	4	15.4	4	-1E+10	1	-1E+10	1	-1E+10	1	-1E+10	1	-1E+10	1	-1E+10	1
4901784	213	C	05/04/2021	10:47	-135.857	42.940	0	544.60	0	4.5140	0	37.0630	4	29.375	0	539.572	0	45.2	4	14.8	4	-1E+10	1	-1E+10	1	-1E+10	1	-1E+10	1	-1E+10	1	-1E+10	1
4901784	213	C	05/04/2021	10:47	-135.857	42.940	0	549.90	0	4.4980	0	37.0690	4	29.382	0	544.816	0	43.5	4	14.2	4	-1E+10	1	-1E+10	1	-1E+10	1	-1E+10	1	-1E+10	1	-1E+10	1
4901784	213	C	05/04/2021	10:47	-135.857	42.940	0	555.20	0	4.4790	0	37.0760	4	29.390	0	550.060	0	41.3	4	13.5	4	-1E+10	1	-1E+10	1	-1E+10	1	-1E+10	1	-1E+10	1	-1E+10	1
4901784	213	C	05/04/2021	10:47	-135.857	42.940	0	560.60	0	4.5040	0	37.0870	4	29.396	0	555.403	0	38.6	4	12.6	4	-1E+10	1	-1E+10	1	-1E+10	1	-1E+10	1	-1E+10	1	-1E+10	1
4901784	213	C	05/04/2021	10:47	-135.857	42.940	0	565.00	0	4.4950	0	37.0940	4	29.402	0	559.756	0	37.3	4	12.2	4	-1E+10	1	-1E+10	1	-1E+10	1	-1E+10	1	-1E+10	1	-1E+10	1
4901784	213	C	05/04/2021	10:47	-135.857	42.940	0	569.40	0	4.4820	0	37.0990	4	29.408	0	564.109	0	36.1	4	11.8	4	-1E+10	1	-1E+10	1	-1E+10	1	-1E+10	1	-1E+10	1	-1E+10	1
4901784	213	C	05/04/2021	10:47	-135.857	42.940	0	574.80	0	4.4770	0	37.1050	4	29.413	0	569.452	0	34.5	4	11.3	4	-1E+10	1	-1E+10	1	-1E+10	1	-1E+10	1	-1E+10	1	-1E+10	1
4901784	213	C	05/04/2021	10:47	-135.857	42.940	0	580.20	0	4.4580	0	37.1130	4	29.422	0	574.794	0	32.5	4	10.6	4	-1E+10	1	-1E+10	1	-1E+10	1	-1E+10	1	-1E+10	1	-1E+10	1
4901784	213	C	05/04/2021	10:47	-135.857	42.940	0	585.00	0	4.4550	0	37.1250	4	29.432	0	579.543	0	30.8	4	10.1	4	-1E+10	1	-1E+10	1	-1E+10	1	-1E+10	1	-1E+10	1	-1E+10	1
4901784	213	C	05/04/2021	10:47	-135.857	42.940	0	590.50	0	4.4500	0	37.1350	4	29.440	0	584.984	0	29.8	4	9.7	4	-1E+10	1	-1E+10	1	-1E+10	1	-1E+10	1	-1E+10	1	-1E+10	1
4901784	213	C	05/04/2021	10:47	-135.857	42.940	0	595.10	0	4.4410	0	37.1360	4	29.442	0	589.534	0	29.3	4	9.6	4	-1E+10	1	-1E+10	1	-1E+10	1	-1E+10	1	-1E+10	1	-1E+10	1
4901784	213	C	05/04/2021	10:47	-135.857	42.940	0	600.00	0	4.4110	0	37.1400	4	29.449	0	594.381	0	28.7	4	9.4	4	-1E+10	1	-1E+10	1	-1E+10	1	-1E+10	1	-1E+10	1	-1E+10	1
4901784	213	C	05/04/2021	10:47	-135.857	42.940	0	604.80	0	4.3910	0	37.1450	4	29.455	0	599.129	0	27.8	4	9.1	4	-1E+10	1	-1E+10	1	-1E+10	1	-1E+10	1	-1E+10	1	-1E+10	1
4901784	213	C	05/04/2021	10:47	-135.857	42.940	0	609.70	0	4.3910	0	37.1530	4	29.462	0	603.976	0	26.7	4	8.7	4	-1E+10	1	-1E+10	1	-1E+10	1	-1E+10	1	-1E+10	1	-1E+10	1
4901784	213	C	05/04/2021	10:47	-135.857	42.940	0	614.60	0	4.3850	0	37.1580	4	29.466	0	608.823	0	25.9	4	8.4	4	-1E+10	1	-1E+10	1	-1E+10	1	-1E+10	1	-1E+10	1	-1E+10	1
4901784	213	C	05/04/2021	10:47	-135.857	42.940	0	619.60	0	4.3710	0	37.1630	4	29.472	0	613.769	0	25.0	4	8.1	4	-1E+10	1	-1E+10	1	-1E+10	1	-1E+10	1	-1E+10	1	-1E+10	1
4901784	213	C	05/04/2021	10:47	-135.857	42.940	0	624.60	0	4.3540	0	37.1710	4	29.480	0	618.714	0	23.8	4	7.7	4	-1E+10	1	-1E+10	1	-1E+10	1	-1E+10	1	-1E+10	1	-1E+10	1
4901784	213	C	05/04/2021	10:47	-135.857	42.940	0	629.80	0	4.3570	0	37.1800	4	29.487	0	623.858	0	22.7	4	7.4	4	-1E+10	1	-1E+10	1	-1E+10	1	-1E+10	1	-1E+10	1	-1E+10	1
4901784	213	C	05/04/2021	10:47	-135.857	42.940	0	635.00	0	4.3560	0	37.1880	4	29.494	0	629.001	0	21.8	4	7.1	4	-1E+10	1	-1E+10	1	-1E+10	1	-1E+10	1	-1E+10	1	-1E+10	1
4901784	213	C	05/04/2021	10:47	-135.857	42.940	0	640.20	0	4.3510	0	37.1920	4	29.498	0	634.144	0	21.2	4	6.9	4	-1E+10	1	-1E+10	1	-1E+10	1	-1E+10	1	-1E+10	1	-1E+10	1
4901784	213	C	05/04/2021	10:47	-135.857	42.940	0	645.50	0	4.3350	0	37.2000	4	29.506	0	639.385	0	20.3	4	6.6	4	-1E+10	1	-1E+10	1	-1E+10	1	-1E+10	1	-1E+10	1	-1E+10	1
4901784	213	C	05/04/2021	10:47	-135.857	42.940	0	650.00	0	4.3280	0	37.2050	4	29.511	0	643.836	0	19.9	4	6.5	4	-1E+10	1	-1E+10	1	-1E+10	1	-1E+10	1	-1E+10	1	-1E+10	1
4901784	213	C	05/04/2021	10:47	-135.857	42.940	0	654.50	0	4.3300	0	37.2080	4	29.513	0	648.286	0	19.2	4	6.3	4	-1E+10	1	-1E+10	1	-1E+10	1	-1E+10	1	-1E+10	1	-1E+10	1
4901784	213	C	05/04/2021	10:47	-135.857	42.940	0	659.90	0	4.3180	0	37.2160	4	29.521	0	653.626	0	18.4	4	6.0	4	-1E+10	1	-1E+10	1	-1E+10	1	-1E+10	1	-1E+10	1	-1E+10	1
4901784	213	C	05/04/2021	10:47	-135.857	42.940	0	664.80	0	4.2950	0	37.2250	4	29.530	0	658.472	0	17.7	4	5.8	4	-1E+10	1	-1E+10	1	-1E+10	1	-1E+10	1	-1E+10	1	-1E+10	1
4901784	213	C	05/04/2021	10:47	-135.857	42.940	0	669.90	0	4.2960	0	37.2320	4	29.536	0	663.515	0	17.2	4	5.6	4	-1E+10	1	-1E+10	1	-1E+10	1	-1E+10	1	-1E+10	1	-1E+10	1
4901784	213	C	05/04/2021	10:47	-135.857	42.940	0	675.50	0	4.2870	0	37.2360	4	29.540	0	669.053	0	16.7	4	5.4	4	-1E+10	1	-1E+10	1	-1E+10	1	-1E+10	1	-1E+10	1	-1E+10	1
4901784	213	C	05/04/2021	10:47	-135.857	42.940	0	680.20	0	4.2720	0	37.2410	4	29.546	0	673.701	0	16.1	4	5.2	4	-1E+10	1	-1E+10	1	-1E+10	1	-1E+10	1	-1E+10	1	-1E+10	1
4901784	213	C	05/04/2021	10:47	-135.857	42.940	0	685.10	0	4.2430	0	37.2490	4	29.556	0	678.546	0	15.7	4	5.1	4	-1E+10	1	-1E+10	1	-1E+10	1	-1E+10	1	-1E+10	1	-1E+10	1
4901784	213	C	05/04/2021	10:47	-135.857	42.940	0	690.10	0	4.2480	0	37.2560	4	29.561	0	683.490	0	15.2	4	4.9	4	-1E+10	1	-1E+10	1	-1E+10	1	-1E+10	1	-1E+10	1	-1E+10	1
4901784	213	C	05/04/2021	10:47	-135.857	42.940	0	694.90	0	4.2280	0	37.2600	4	29.566	0	688.236	0	15.0	4	4.9	4	-1E+10	1	-1E+10	1	-1E+10	1	-1E+10	1	-1E+10	1	-1E+10	1
4901784	213	C	05/04/2021	10:47	-135.857	42.940	0	699.90	0	4.2090	0	37.2650	4	29.572	0	693.180	0	14.7	4	4.8	4	-1E+10	1	-1E+10	1	-1E+10	1	-1E+10	1	-1E+10	1	-1E+10	1
4901784	213	C	05/04/2021	10:47	-135.857	42.940	0	705.00	0	4.1980	0	37.2690	4	29.577	0	698.222	0	14.5	4	4.7	4	-1E+10	1	-1E+10	1	-1E+10	1	-1E+10	1	-1E+10	1	-1E+10	1
4901784	213	C	05/04/2021	10:47	-135.857	42.940	0	710.00	0	4.1820	0	37.2720	4	29.581	0	703.166	0	14.3	4	4.6	4	-1E+10	1	-1E+10	1	-1E+10	1	-1E+10	1	-1E+10	1	-1E+10	1
4901784	213	C	05/04/2021	10:47	-135.857	42.940	0	715.00	0	4.1710	0	37.2780	4	29.587	0	708.109	0	14.0	4	4.6	4	-1E+10	1	-1E+10	1	-1E+10	1	-1E+10	1	-1E+10	1	-1E+10	1
4901784	213	C	05/04/2021	10:47	-135.857	42.940	0	720.10	0	4.1600	0	37.2800	4	29.590	0	713.151	0	13.8	4	4.5	4	-1E+10	1	-1E+10	1	-1E+10	1	-1E+10	1	-1E+10	1	-1E+10	1
4901784	213	C	05/04/2021	10:47	-135.857	42.940	0	725.20	0	4.1420	0	37.2860	4	29.597	0	718.193	0	13.6	4	4.4	4	-1E+10	1	-1E+10	1	-1E+10	1	-1E+10	1	-1E+10	1	-1E+10	1
4901784	213	C	05/04/2021	10:47	-135.857	42.940	0	730.30	0	4.1320	0	37.2900	4	29.601	0	723.235	0	13.4	4	4.4	4	-1E+10	1	-1E+10	1	-1E+10	1	-1E+10	1	-1E+10	1	-1E+10	1
4901784	213	C	05/04/2021	10:47	-135.857	42.940	0	735.30	0	4.1190	0	37.2960	4	29.607	0	728.178	0	13.3	4	4.3	4	-1E+10	1	-1E+10	1	-1E+10	1	-1E+10	1	-1E+10	1	-1E+10	1
4901784	213	C	05/04/2021	10:47	-135.857	42.940	0	740.40	0	4.1180	0	37.2980	4	29.609	0	733.220	0	13.1	4	4.3	4	-1E+10	1	-1E+10	1	-1E+10	1	-1E+10	1	-1E+10	1	-1E+10	1
4901784	213	C	05/04/2021	10:47	-135.857	42.940	0	745.60	0	4.1050	0	37.3020	4	29.614	0	738.360	0	13.1	4	4.2	4	-1E+10	1	-1E+10	1	-1E+10	1	-1E+10	1	-1E+10	1	-1E+10	1
4901784	213	C	05/04/2021	10:47	-135.857	42.940	0	750.70	0	4.0940	0	37.3040	4	29.617	0	743.401	0	13.0	4	4.2	4	-1E+10	1	-1E+10	1	-1E+10	1	-1E+10	1	-1E+10	1	-1E+10	1
4901784	213	C	05/04/2021	10:47	-135.857	42.940	0	755.80	0	4.0850	0	37.3080	4	29.621	0	748.443	0	12.8	4	4.1	4	-1E+10	1	-1E+10	1	-1E+10	1	-1E+10	1	-1E+10	1	-1E+10	1
4901784	213	C	05/04/2021	10:47	-135.857	42.940	0	760.00	0	4.0760	0	37.3100	4	29.623	0	752.594	0	12.7	4	4.1	4	-1E+10	1	-1E+10	1	-1E+10	1	-1E+10	1	-1E+10	1	-1E+10	1
4901784	213	C	05/04/2021	10:47	-135.857	42.940	0	764.30	0	4.0610	0	37.3140	4	29.628	0	756.845	0	12.6	4	4.1	4	-1E+10	1	-1E+10	1	-1E+10	1	-1E+10	1	-1E+10	1	-1E+10	1
4901784	213	C	05/04/2021	10:47	-135.857	42.940	0	769.40	0	4.0480	0	37.3170	4	29.632	0	761.886	0	12.5	4	4.1	4	-1E+10	1	-1E+10	1	-1E+10	1	-1E+10	1	-1E+10	1	-1E+10	1
4901784	213	C	05/04/2021	10:47	-135.857	42.940	0	774.70	0	4.0430	0	37.3190	4	29.634	0	767.124	0	12.4	4	4.0	4	-1E+10	1	-1E+10	1	-1E+10	1	-1E+10	1	-1E+10	1	-1E+10	1
4901784	213	C	05/04/2021	10:47	-135.857	42.940	0	779.90	0	4.0330	0	37.3210	4	29.637	0	772.264	0	12.3	4	4.0	4	-1E+10	1	-1E+10	1	-1E+10	1	-1E+10	1	-1E+10	1	-1E+10	1
4901784	213	C	05/04/2021	10:47	-135.857	42.940	0	785.10	0	4.0210	0	37.3250	4	29.642	0	777.403	0	12.1	4	3.9	4	-1E+10	1	-1E+10	1	-1E+10	1	-1E+10	1	-1E+10	1	-1E+10	1
4901784	213	C	05/04/2021	10:47	-135.857	42.940	0	790.30	0	4.0110	0	37.3320	4	29.648	0	782.542	0	11.9	4	3.8	4	-1E+10	1	-1E+10	1	-1E+10	1	-1E+10	1	-1E+10	1	-1E+10	1
4901784	213	C	05/04/2021	10:47	-135.857	42.940	0	795.60	0	3.9970	0	37.3360	4	29.653	0	787.780	0	11.7	4	3.8	4	-1E+10	1	-1E+10	1	-1E+10	1	-1E+10	1	-1E+10	1	-1E+10	1
4901784	213	C	05/04/2021	10:47	-135.857	42.940	0	800.00	0	4.0030	0	37.3410	4	29.657	0	792.129	0	11.5	4	3.7	4	-1E+10	1	-1E+10	1	-1E+10	1	-1E+10	1	-1E+10	1	-1E+10	1
4901784	213	C	05/04/2021	10:47	-135.857	42.940	0	804.50	0	4.0030	0	37.3430	4	29.658	0	796.576	0	11.4	4	3.7	4	-1E+10	1	-1E+10	1	-1E+10	1	-1E+10	1	-1E+10	1	-1E+10	1
4901784	213	C	05/04/2021	10:47	-135.857	42.940	0	809.80	0	3.9970	0	37.3460	4	29.661	0	801.813	0	11.3	4	3.7	4	-1E+10	1	-1E+10	1	-1E+10	1	-1E+10	1	-1E+10	1	-1E+10	1
4901784	213	C	05/04/2021	10:47	-135.857	42.940	0	815.10	0	3.9870	0	37.3490	4	29.665	0	807.051	0	11.3	4	3.7	4	-1E+10	1	-1E+10	1	-1E+10	1	-1E+10	1	-1E+10	1	-1E+10	1
4901784	213	C	05/04/2021	10:47	-135.857	42.940	0	820.40	0	3.9760	0	37.3510	4	29.668	0	812.288	0	11.3	4	3.6	4	-1E+10	1	-1E+10	1	-1E+10	1	-1E+10	1	-1E+10	1	-1E+10	1
4901784	213	C	05/04/2021	10:47	-135.857	42.940	0	824.80	0	3.9400	0	37.3520	4	29.673	0	816.636	0	11.4	4	3.7	4	-1E+10	1	-1E+10	1	-1E+10	1	-1E+10	1	-1E+10	1	-1E+10	1
4901784	213	C	05/04/2021	10:47	-135.857	42.940	0	829.20	0	3.9320	0	37.3540	4	29.675	0	820.984	0	11.2	4	3.6	4	-1E+10	1	-1E+10	1	-1E+10	1	-1E+10	1	-1E+10	1	-1E+10	1
4901784	213	C	05/04/2021	10:47	-135.857	42.940	0	834.50	0	3.9360	0	37.3590	4	29.679	0	826.221	0	11.0	4	3.5	4	-1E+10	1	-1E+10	1	-1E+10	1	-1E+10	1	-1E+10	1	-1E+10	1
4901784	213	C	05/04/2021	10:47	-135.857	42.940	0	839.80	0	3.9280	0	37.3660	4	29.685	0	831.458	0	10.7	4	3.5	4	-1E+10	1	-1E+10	1	-1E+10	1	-1E+10	1	-1E+10	1	-1E+10	1
4901784	213	C	05/04/2021	10:47	-135.857	42.940	0	845.20	0	3.9160	0	37.3720	4	29.691	0	836.793	0	10.6	4	3.4	4	-1E+10	1	-1E+10	1	-1E+10	1	-1E+10	1	-1E+10	1	-1E+10	1
4901784	213	C	05/04/2021	10:47	-135.857	42.940	0	850.50	0	3.8980	0	37.3780	4	29.698	0	842.030	0	10.5	4	3.4	4	-1E+10	1	-1E+10	1	-1E+10	1	-1E+10	1	-1E+10	1	-1E+10	1
4901784	213	C	05/04/2021	10:47	-135.857	42.940	0	855.00	0	3.8790	0	37.3840	4	29.705	0	846.476	0	10.4	4	3.4	4	-1E+10	1	-1E+10	1	-1E+10	1	-1E+10	1	-1E+10	1	-1E+10	1
4901784	213	C	05/04/2021	10:47	-135.857	42.940	0	859.40	0	3.8760	0	37.3850	4	29.706	0	850.823	0	10.4	4	3.4	4	-1E+10	1	-1E+10	1	-1E+10	1	-1E+10	1	-1E+10	1	-1E+10	1
4901784	213	C	05/04/2021	10:47	-135.857	42.940	0	864.80	0	3.8620	0	37.3890	4	29.711	0	856.158	0	10.3	4	3.3	4	-1E+10	1	-1E+10	1	-1E+10	1	-1E+10	1	-1E+10	1	-1E+10	1
4901784	213	C	05/04/2021	10:47	-135.857	42.940	0	870.30	0	3.8420	0	37.3950	4	29.718	0	861.592	0	10.2	4	3.3	4	-1E+10	1	-1E+10	1	-1E+10	1	-1E+10	1	-1E+10	1	-1E+10	1
4901784	213	C	05/04/2021	10:47	-135.857	42.940	0	874.80	0	3.8320	0	37.4000	4	29.723	0	866.038	0	10.2	4	3.3	4	-1E+10	1	-1E+10	1	-1E+10	1	-1E+10	1	-1E+10	1	-1E+10	1
4901784	213	C	05/04/2021	10:47	-135.857	42.940	0	879.40	0	3.8210	0	37.4060	4	29.729	0	870.582	0	10.1	4	3.3	4	-1E+10	1	-1E+10	1	-1E+10	1	-1E+10	1	-1E+10	1	-1E+10	1
4901784	213	C	05/04/2021	10:47	-135.857	42.940	0	884.90	0	3.8080	0	37.4070	4	29.731	0	876.015	0	10.1	4	3.3	4	-1E+10	1	-1E+10	1	-1E+10	1	-1E+10	1	-1E+10	1	-1E+10	1
4901784	213	C	05/04/2021	10:47	-135.857	42.940	0	890.40	0	3.7660	0	37.4100	4	29.738	0	881.449	0	10.1	4	3.3	4	-1E+10	1	-1E+10	1	-1E+10	1	-1E+10	1	-1E+10	1	-1E+10	1
4901784	213	C	05/04/2021	10:47	-135.857	42.940	0	895.00	0	3.7570	0	37.4140	4	29.742	0	885.993	0	10.1	4	3.3	4	-1E+10	1	-1E+10	1	-1E+10	1	-1E+10	1	-1E+10	1	-1E+10	1
4901784	213	C	05/04/2021	10:47	-135.857	42.940	0	899.60	0	3.7410	0	37.4150	4	29.745	0	890.537	0	10.1	4	3.3	4	-1E+10	1	-1E+10	1	-1E+10	1	-1E+10	1	-1E+10	1	-1E+10	1
4901784	213	C	05/04/2021	10:47	-135.857	42.940	0	905.20	0	3.7270	0	37.4180	4	29.749	0	896.068	0	10.1	4	3.2	4	-1E+10	1	-1E+10	1	-1E+10	1	-1E+10	1	-1E+10	1	-1E+10	1
4901784	213	C	05/04/2021	10:47	-135.857	42.940	0	910.50	0	3.7170	0	37.4230	4	29.754	0	901.303	0	10.1	4	3.2	4	-1E+10	1	-1E+10	1	-1E+10	1	-1E+10	1	-1E+10	1	-1E+10	1
4901784	213	C	05/04/2021	10:47	-135.857	42.940	0	915.40	0	3.7070	0	37.4270	4	29.758	0	906.143	0	10.0	4	3.2	4	-1E+10	1	-1E+10	1	-1E+10	1	-1E+10	1	-1E+10	1	-1E+10	1
4901784	213	C	05/04/2021	10:47	-135.857	42.940	0	920.30	0	3.6850	0	37.4290	4	29.762	0	910.983	0	10.0	4	3.2	4	-1E+10	1	-1E+10	1	-1E+10	1	-1E+10	1	-1E+10	1	-1E+10	1
4901784	213	C	05/04/2021	10:47	-135.857	42.940	0	925.40	0	3.6700	0	37.4330	4	29.767	0	916.020	0	10.0	4	3.2	4	-1E+10	1	-1E+10	1	-1E+10	1	-1E+10	1	-1E+10	1	-1E+10	1
4901784	213	C	05/04/2021	10:47	-135.857	42.940	0	930.40	0	3.6720	0	37.4380	4	29.771	0	920.959	0	10.0	4	3.2	4	-1E+10	1	-1E+10	1	-1E+10	1	-1E+10	1	-1E+10	1	-1E+10	1
4901784	213	C	05/04/2021	10:47	-135.857	42.940	0	935.40	0	3.6560	0	37.4410	4	29.775	0	925.897	0	10.0	4	3.2	4	-1E+10	1	-1E+10	1	-1E+10	1	-1E+10	1	-1E+10	1	-1E+10	1
4901784	213	C	05/04/2021	10:47	-135.857	42.940	0	940.40	0	3.6480	0	37.4460	4	29.780	0	930.835	0	10.0	4	3.2	4	-1E+10	1	-1E+10	1	-1E+10	1	-1E+10	1	-1E+10	1	-1E+10	1
4901784	213	C	05/04/2021	10:47	-135.857	42.940	0	945.50	0	3.6330	0	37.4490	4	29.784	0	935.872	0	10.0	4	3.2	4	-1E+10	1	-1E+10	1	-1E+10	1	-1E+10	1	-1E+10	1	-1E+10	1
4901784	213	C	05/04/2021	10:47	-135.857	42.940	0	950.70	0	3.6090	0	37.4520	4	29.789	0	941.007	0	10.0	4	3.2	4	-1E+10	1	-1E+10	1	-1E+10	1	-1E+10	1	-1E+10	1	-1E+10	1
4901784	213	C	05/04/2021	10:47	-135.857	42.940	0	955.00	0	3.6040	0	37.4540	4	29.791	0	945.253	0	10.0	4	3.2	4	-1E+10	1	-1E+10	1	-1E+10	1	-1E+10	1	-1E+10	1	-1E+10	1
4901784	213	C	05/04/2021	10:47	-135.857	42.940	0	959.30	0	3.6000	0	37.4570	4	29.794	0	949.500	0	10.0	4	3.2	4	-1E+10	1	-1E+10	1	-1E+10	1	-1E+10	1	-1E+10	1	-1E+10	1
4901784	213	C	05/04/2021	10:47	-135.857	42.940	0	964.50	0	3.5920	0	37.4600	4	29.797	0	954.635	0	10.0	4	3.2	4	-1E+10	1	-1E+10	1	-1E+10	1	-1E+10	1	-1E+10	1	-1E+10	1
4901784	213	C	05/04/2021	10:47	-135.857	42.940	0	969.70	0	3.5860	0	37.4640	4	29.801	0	959.770	0	10.1	4	3.2	4	-1E+10	1	-1E+10	1	-1E+10	1	-1E+10	1	-1E+10	1	-1E+10	1
4901784	213	C	05/04/2021	10:47	-135.857	42.940	0	975.00	0	3.5730	0	37.4680	4	29.806	0	965.003	0	10.1	4	3.2	4	-1E+10	1	-1E+10	1	-1E+10	1	-1E+10	1	-1E+10	1	-1E+10	1
4901784	213	C	05/04/2021	10:47	-135.857	42.940	0	980.20	0	3.5520	0	37.4710	4	29.810	0	970.138	0	10.1	4	3.2	4	-1E+10	1	-1E+10	1	-1E+10	1	-1E+10	1	-1E+10	1	-1E+10	1
4901784	213	C	05/04/2021	10:47	-135.857	42.940	0	985.40	0	3.5310	0	37.4760	4	29.817	0	975.272	0	10.2	4	3.3	4	-1E+10	1	-1E+10	1	-1E+10	1	-1E+10	1	-1E+10	1	-1E+10	1
4901784	213	C	05/04/2021	10:47	-135.857	42.940	0	990.70	0	3.5220	0	37.4790	4	29.820	0	980.505	0	10.2	4	3.3	4	-1E+10	1	-1E+10	1	-1E+10	1	-1E+10	1	-1E+10	1	-1E+10	1
4901784	213	C	05/04/2021	10:47	-135.857	42.940	0	995.20	0	3.5070	0	37.4800	4	29.822	0	984.949	0	10.2	4	3.3	4	-1E+10	1	-1E+10	1	-1E+10	1	-1E+10	1	-1E+10	1	-1E+10	1
4901784	213	C	05/04/2021	10:47	-135.857	42.940	0	999.70	0	3.4920	0	37.4840	4	29.827	0	989.392	0	10.3	4	3.3	4	-1E+10	1	-1E+10	1	-1E+10	1	-1E+10	1	-1E+10	1	-1E+10	1
4901784	213	C	05/04/2021	10:47	-135.857	42.940	0	1005.10	0	3.4810	0	37.4900	4	29.833	0	994.723	0	10.3	4	3.3	4	-1E+10	1	-1E+10	1	-1E+10	1	-1E+10	1	-1E+10	1	-1E+10	1
4901784	213	C	05/04/2021	10:47	-135.857	42.940	0	1010.50	0	3.4700	0	37.4920	4	29.836	0	1000.055	0	10.4	4	3.3	4	-1E+10	1	-1E+10	1	-1E+10	1	-1E+10	1	-1E+10	1	-1E+10	1
4901784	213	C	05/04/2021	10:47	-135.857	42.940	0	1015.00	0	3.4590	0	37.4930	4	29.838	0	1004.497	0	10.4	4	3.3	4	-1E+10	1	-1E+10	1	-1E+10	1	-1E+10	1	-1E+10	1	-1E+10	1
4901784	213	C	05/04/2021	10:47	-135.857	42.940	0	1019.60	0	3.4430	0	37.4960	4	29.842	0	1009.039	0	10.4	4	3.3	4	-1E+10	1	-1E+10	1	-1E+10	1	-1E+10	1	-1E+10	1	-1E+10	1
4901784	213	C	05/04/2021	10:47	-135.857	42.940	0	1025.00	0	3.4320	0	37.4990	4	29.846	0	1014.370	0	10.5	4	3.4	4	-1E+10	1	-1E+10	1	-1E+10	1	-1E+10	1	-1E+10	1	-1E+10	1
4901784	213	C	05/04/2021	10:47	-135.857	42.940	0	1030.40	0	3.4210	0	37.5020	4	29.849	0	1019.700	0	10.6	4	3.4	4	-1E+10	1	-1E+10	1	-1E+10	1	-1E+10	1	-1E+10	1	-1E+10	1
4901784	213	C	05/04/2021	10:47	-135.857	42.940	0	1034.90	0	3.4110	0	37.5040	4	29.852	0	1024.143	0	10.6	4	3.4	4	-1E+10	1	-1E+10	1	-1E+10	1	-1E+10	1	-1E+10	1	-1E+10	1
4901784	213	C	05/04/2021	10:47	-135.857	42.940	0	1039.50	0	3.3950	0	37.5080	4	29.857	0	1028.684	0	10.7	4	3.4	4	-1E+10	1	-1E+10	1	-1E+10	1	-1E+10	1	-1E+10	1	-1E+10	1
4901784	213	C	05/04/2021	10:47	-135.857	42.940	0	1045.10	0	3.3870	0	37.5110	4	29.860	0	1034.212	0	10.7	4	3.4	4	-1E+10	1	-1E+10	1	-1E+10	1	-1E+10	1	-1E+10	1	-1E+10	1
4901784	213	C	05/04/2021	10:47	-135.857	42.940	0	1049.80	0	3.3810	0	37.5120	4	29.861	0	1038.851	0	10.8	4	3.4	4	-1E+10	1	-1E+10	1	-1E+10	1	-1E+10	1	-1E+10	1	-1E+10	1
4901784	213	C	05/04/2021	10:47	-135.857	42.940	0	1054.40	0	3.3780	0	37.5130	4	29.863	0	1043.392	0	10.8	4	3.4	4	-1E+10	1	-1E+10	1	-1E+10	1	-1E+10	1	-1E+10	1	-1E+10	1
4901784	213	C	05/04/2021	10:47	-135.857	42.940	0	1060.00	0	3.3690	0	37.5150	4	29.865	0	1048.919	0	10.8	4	3.5	4	-1E+10	1	-1E+10	1	-1E+10	1	-1E+10	1	-1E+10	1	-1E+10	1
4901784	213	C	05/04/2021	10:47	-135.857	42.940	0	1065.60	0	3.3580	0	37.5180	4	29.869	0	1054.446	0	10.9	4	3.5	4	-1E+10	1	-1E+10	1	-1E+10	1	-1E+10	1	-1E+10	1	-1E+10	1
4901784	213	C	05/04/2021	10:47	-135.857	42.940	0	1070.30	0	3.3490	0	37.5200	4	29.871	0	1059.085	0	11.0	4	3.5	4	-1E+10	1	-1E+10	1	-1E+10	1	-1E+10	1	-1E+10	1	-1E+10	1
4901784	213	C	05/04/2021	10:47	-135.857	42.940	0	1075.00	0	3.3360	0	37.5240	4	29.876	0	1063.724	0	11.1	4	3.5	4	-1E+10	1	-1E+10	1	-1E+10	1	-1E+10	1	-1E+10	1	-1E+10	1
4901784	213	C	05/04/2021	10:47	-135.857	42.940	0	1080.50	0	3.3250	0	37.8860	8	30.166	0	1069.153	0	11.2	4	3.6	4	-1E+10	1	-1E+10	1	-1E+10	1	-1E+10	1	-1E+10	1	-1E+10	1
4901784	213	C	05/04/2021	10:47	-135.857	42.940	0	1085.50	0	3.3140	0	38.2230	4	30.437	0	1074.087	0	11.2	4	3.6	4	-1E+10	1	-1E+10	1	-1E+10	1	-1E+10	1	-1E+10	1	-1E+10	1
4901784	213	C	05/04/2021	10:47	-135.857	42.940	0	1090.50	0	3.3070	0	38.2620	4	30.468	0	1079.022	0	11.3	4	3.6	4	-1E+10	1	-1E+10	1	-1E+10	1	-1E+10	1	-1E+10	1	-1E+10	1
4901784	213	C	05/04/2021	10:47	-135.857	42.940	0	1095.50	0	3.2910	0	38.2830	4	30.487	0	1083.956	0	11.4	4	3.7	4	-1E+10	1	-1E+10	1	-1E+10	1	-1E+10	1	-1E+10	1	-1E+10	1
4901784	213	C	05/04/2021	10:47	-135.857	42.940	0	1100.60	0	3.2790	0	38.3010	4	30.503	0	1088.989	0	11.5	4	3.7	4	-1E+10	1	-1E+10	1	-1E+10	1	-1E+10	1	-1E+10	1	-1E+10	1
4901784	213	C	05/04/2021	10:47	-135.857	42.940	0	1105.70	0	3.2650	0	38.3120	4	30.513	0	1094.022	0	11.7	4	3.7	4	-1E+10	1	-1E+10	1	-1E+10	1	-1E+10	1	-1E+10	1	-1E+10	1
4901784	213	C	05/04/2021	10:47	-135.857	42.940	0	1110.00	0	3.2600	0	38.3170	4	30.517	0	1098.266	0	11.8	4	3.8	4	-1E+10	1	-1E+10	1	-1E+10	1	-1E+10	1	-1E+10	1	-1E+10	1
4901784	213	C	05/04/2021	10:47	-135.857	42.940	0	1114.20	0	3.2560	0	38.3200	4	30.520	0	1102.410	0	11.9	4	3.8	4	-1E+10	1	-1E+10	1	-1E+10	1	-1E+10	1	-1E+10	1	-1E+10	1
4901784	213	C	05/04/2021	10:47	-135.857	42.940	0	1119.40	0	3.2490	0	38.3240	4	30.524	0	1107.541	0	12.0	4	3.8	4	-1E+10	1	-1E+10	1	-1E+10	1	-1E+10	1	-1E+10	1	-1E+10	1
4901784	213	C	05/04/2021	10:47	-135.857	42.940	0	1125.00	0	3.2370	0	38.3290	4	30.530	0	1113.067	0	12.1	4	3.9	4	-1E+10	1	-1E+10	1	-1E+10	1	-1E+10	1	-1E+10	1	-1E+10	1
4901784	213	C	05/04/2021	10:47	-135.857	42.940	0	1129.80	0	3.2300	0	38.3320	4	30.533	0	1117.804	0	12.2	4	3.9	4	-1E+10	1	-1E+10	1	-1E+10	1	-1E+10	1	-1E+10	1	-1E+10	1
4901784	213	C	05/04/2021	10:47	-135.857	42.940	0	1134.50	0	3.2220	0	38.3350	4	30.536	0	1122.441	0	12.2	4	3.9	4	-1E+10	1	-1E+10	1	-1E+10	1	-1E+10	1	-1E+10	1	-1E+10	1
4901784	213	C	05/04/2021	10:47	-135.857	42.940	0	1140.20	0	3.2140	0	38.3370	4	30.538	0	1128.065	0	12.3	4	3.9	4	-1E+10	1	-1E+10	1	-1E+10	1	-1E+10	1	-1E+10	1	-1E+10	1
4901784	213	C	05/04/2021	10:47	-135.857	42.940	0	1145.00	0	3.2040	0	38.3410	4	30.543	0	1132.801	0	12.4	4	4.0	4	-1E+10	1	-1E+10	1	-1E+10	1	-1E+10	1	-1E+10	1	-1E+10	1
4901784	213	C	05/04/2021	10:47	-135.857	42.940	0	1149.30	0	3.1990	0	38.3430	4	30.545	0	1137.044	0	12.5	4	4.0	4	-1E+10	1	-1E+10	1	-1E+10	1	-1E+10	1	-1E+10	1	-1E+10	1
4901784	213	C	05/04/2021	10:47	-135.857	42.940	0	1154.50	0	3.1910	0	38.3450	4	30.547	0	1142.174	0	12.5	4	4.0	4	-1E+10	1	-1E+10	1	-1E+10	1	-1E+10	1	-1E+10	1	-1E+10	1
4901784	213	C	05/04/2021	10:47	-135.857	42.940	0	1159.40	0	3.1850	0	38.3470	4	30.550	0	1147.009	0	12.6	4	4.0	4	-1E+10	1	-1E+10	1	-1E+10	1	-1E+10	1	-1E+10	1	-1E+10	1
4901784	213	C	05/04/2021	10:47	-135.857	42.940	0	1164.20	0	3.1750	0	38.3490	4	30.552	0	1151.744	0	12.7	4	4.1	4	-1E+10	1	-1E+10	1	-1E+10	1	-1E+10	1	-1E+10	1	-1E+10	1
4901784	213	C	05/04/2021	10:47	-135.857	42.940	0	1170.00	0	3.1560	0	38.3530	4	30.557	0	1157.466	0	12.9	4	4.1	4	-1E+10	1	-1E+10	1	-1E+10	1	-1E+10	1	-1E+10	1	-1E+10	1
4901784	213	C	05/04/2021	10:47	-135.857	42.940	0	1175.70	0	3.1430	0	38.3560	4	30.561	0	1163.089	0	13.1	4	4.2	4	-1E+10	1	-1E+10	1	-1E+10	1	-1E+10	1	-1E+10	1	-1E+10	1
4901784	213	C	05/04/2021	10:47	-135.857	42.940	0	1180.60	0	3.1300	0	38.3590	4	30.565	0	1167.923	0	13.2	4	4.2	4	-1E+10	1	-1E+10	1	-1E+10	1	-1E+10	1	-1E+10	1	-1E+10	1
4901784	213	C	05/04/2021	10:47	-135.857	42.940	0	1185.50	0	3.1210	0	38.3620	4	30.568	0	1172.757	0	13.3	4	4.3	4	-1E+10	1	-1E+10	1	-1E+10	1	-1E+10	1	-1E+10	1	-1E+10	1
4901784	213	C	05/04/2021	10:47	-135.857	42.940	0	1190.50	0	3.1050	0	38.3650	4	30.572	0	1177.689	0	13.5	4	4.3	4	-1E+10	1	-1E+10	1	-1E+10	1	-1E+10	1	-1E+10	1	-1E+10	1
4901784	213	C	05/04/2021	10:47	-135.857	42.940	0	1195.50	0	3.0980	0	38.3680	4	30.576	0	1182.621	0	13.6	4	4.3	4	-1E+10	1	-1E+10	1	-1E+10	1	-1E+10	1	-1E+10	1	-1E+10	1
4901784	213	C	05/04/2021	10:47	-135.857	42.940	0	1200.60	0	3.0910	0	38.3700	4	30.578	0	1187.652	0	13.7	4	4.4	4	-1E+10	1	-1E+10	1	-1E+10	1	-1E+10	1	-1E+10	1	-1E+10	1
4901784	213	C	05/04/2021	10:47	-135.857	42.940	0	1205.60	0	3.0840	0	38.3710	4	30.579	0	1192.584	0	13.8	4	4.4	4	-1E+10	1	-1E+10	1	-1E+10	1	-1E+10	1	-1E+10	1	-1E+10	1
4901784	213	C	05/04/2021	10:47	-135.857	42.940	0	1210.70	0	3.0720	0	38.3750	4	30.584	0	1197.614	0	14.0	4	4.5	4	-1E+10	1	-1E+10	1	-1E+10	1	-1E+10	1	-1E+10	1	-1E+10	1
4901784	213	C	05/04/2021	10:47	-135.857	42.940	0	1215.00	0	3.0650	0	38.3770	4	30.586	0	1201.855	0	14.1	4	4.5	4	-1E+10	1	-1E+10	1	-1E+10	1	-1E+10	1	-1E+10	1	-1E+10	1
4901784	213	C	05/04/2021	10:47	-135.857	42.940	0	1219.30	0	3.0570	0	38.3780	4	30.588	0	1206.097	0	14.3	4	4.5	4	-1E+10	1	-1E+10	1	-1E+10	1	-1E+10	1	-1E+10	1	-1E+10	1
4901784	213	C	05/04/2021	10:47	-135.857	42.940	0	1224.50	0	3.0450	0	38.3810	4	30.592	0	1211.225	0	14.5	4	4.6	4	-1E+10	1	-1E+10	1	-1E+10	1	-1E+10	1	-1E+10	1	-1E+10	1
4901784	213	C	05/04/2021	10:47	-135.857	42.940	0	1229.80	0	3.0320	0	38.3840	4	30.595	0	1216.453	0	14.6	4	4.7	4	-1E+10	1	-1E+10	1	-1E+10	1	-1E+10	1	-1E+10	1	-1E+10	1
4901784	213	C	05/04/2021	10:47	-135.857	42.940	0	1235.00	0	3.0210	0	38.3870	4	30.599	0	1221.581	0	14.8	4	4.7	4	-1E+10	1	-1E+10	1	-1E+10	1	-1E+10	1	-1E+10	1	-1E+10	1
4901784	213	C	05/04/2021	10:47	-135.857	42.940	0	1240.20	0	3.0130	0	38.3890	4	30.601	0	1226.709	0	14.9	4	4.7	4	-1E+10	1	-1E+10	1	-1E+10	1	-1E+10	1	-1E+10	1	-1E+10	1
4901784	213	C	05/04/2021	10:47	-135.857	42.940	0	1245.50	0	3.0030	0	38.3910	4	30.604	0	1231.936	0	15.1	4	4.8	4	-1E+10	1	-1E+10	1	-1E+10	1	-1E+10	1	-1E+10	1	-1E+10	1
4901784	213	C	05/04/2021	10:47	-135.857	42.940	0	1250.50	0	2.9910	0	38.3930	4	30.607	0	1236.867	0	15.3	4	4.9	4	-1E+10	1	-1E+10	1	-1E+10	1	-1E+10	1	-1E+10	1	-1E+10	1
4901784	213	C	05/04/2021	10:47	-135.857	42.940	0	1255.30	0	2.9820	0	38.3950	4	30.609	0	1241.601	0	15.4	4	4.9	4	-1E+10	1	-1E+10	1	-1E+10	1	-1E+10	1	-1E+10	1	-1E+10	1
4901784	213	C	05/04/2021	10:47	-135.857	42.940	0	1260.10	0	2.9670	0	38.3980	4	30.613	0	1246.334	0	15.7	4	5.0	4	-1E+10	1	-1E+10	1	-1E+10	1	-1E+10	1	-1E+10	1	-1E+10	1
4901784	213	C	05/04/2021	10:47	-135.857	42.940	0	1265.00	0	2.9500	0	38.4010	4	30.617	0	1251.166	0	15.9	4	5.1	4	-1E+10	1	-1E+10	1	-1E+10	1	-1E+10	1	-1E+10	1	-1E+10	1
4901784	213	C	05/04/2021	10:47	-135.857	42.940	0	1270.00	0	2.9390	0	38.4040	4	30.621	0	1256.096	0	16.0	4	5.1	4	-1E+10	1	-1E+10	1	-1E+10	1	-1E+10	1	-1E+10	1	-1E+10	1
4901784	213	C	05/04/2021	10:47	-135.857	42.940	0	1274.90	0	2.9340	0	38.4050	4	30.622	0	1260.928	0	16.1	4	5.1	4	-1E+10	1	-1E+10	1	-1E+10	1	-1E+10	1	-1E+10	1	-1E+10	1
4901784	213	C	05/04/2021	10:47	-135.857	42.940	0	1279.80	0	2.9260	0	38.4070	4	30.625	0	1265.760	0	16.3	4	5.2	4	-1E+10	1	-1E+10	1	-1E+10	1	-1E+10	1	-1E+10	1	-1E+10	1
4901784	213	C	05/04/2021	10:47	-135.857	42.940	0	1284.70	0	2.9160	0	38.4100	4	30.628	0	1270.591	0	16.5	4	5.2	4	-1E+10	1	-1E+10	1	-1E+10	1	-1E+10	1	-1E+10	1	-1E+10	1
4901784	213	C	05/04/2021	10:47	-135.857	42.940	0	1289.70	0	2.9110	0	38.4110	4	30.630	0	1275.521	0	16.6	4	5.3	4	-1E+10	1	-1E+10	1	-1E+10	1	-1E+10	1	-1E+10	1	-1E+10	1
4901784	213	C	05/04/2021	10:47	-135.857	42.940	0	1294.60	0	2.9030	0	38.4130	4	30.632	0	1280.352	0	16.8	4	5.3	4	-1E+10	1	-1E+10	1	-1E+10	1	-1E+10	1	-1E+10	1	-1E+10	1
4901784	213	C	05/04/2021	10:47	-135.857	42.940	0	1299.70	0	2.8900	0	38.4150	4	30.635	0	1285.381	0	17.0	4	5.4	4	-1E+10	1	-1E+10	1	-1E+10	1	-1E+10	1	-1E+10	1	-1E+10	1
4901784	213	C	05/04/2021	10:47	-135.857	42.940	0	1304.70	0	2.8780	0	38.4190	4	30.639	0	1290.310	0	17.2	4	5.4	4	-1E+10	1	-1E+10	1	-1E+10	1	-1E+10	1	-1E+10	1	-1E+10	1
4901784	213	C	05/04/2021	10:47	-135.857	42.940	0	1309.90	0	2.8730	0	38.4200	4	30.641	0	1295.437	0	17.3	4	5.5	4	-1E+10	1	-1E+10	1	-1E+10	1	-1E+10	1	-1E+10	1	-1E+10	1
4901784	213	C	05/04/2021	10:47	-135.857	42.940	0	1315.00	0	2.8670	0	38.4220	4	30.643	0	1300.465	0	17.5	4	5.5	4	-1E+10	1	-1E+10	1	-1E+10	1	-1E+10	1	-1E+10	1	-1E+10	1
4901784	213	C	05/04/2021	10:47	-135.857	42.940	0	1320.10	0	2.8600	0	38.4230	4	30.644	0	1305.493	0	17.6	4	5.6	4	-1E+10	1	-1E+10	1	-1E+10	1	-1E+10	1	-1E+10	1	-1E+10	1
4901784	213	C	05/04/2021	10:47	-135.857	42.940	0	1325.10	0	2.8510	0	38.4250	4	30.647	0	1310.422	0	17.9	4	5.7	4	-1E+10	1	-1E+10	1	-1E+10	1	-1E+10	1	-1E+10	1	-1E+10	1
4901784	213	C	05/04/2021	10:47	-135.857	42.940	0	1330.30	0	2.8400	0	38.4280	4	30.650	0	1315.548	0	18.1	4	5.7	4	-1E+10	1	-1E+10	1	-1E+10	1	-1E+10	1	-1E+10	1	-1E+10	1
4901784	213	C	05/04/2021	10:47	-135.857	42.940	0	1335.40	0	2.8280	0	38.4300	4	30.653	0	1320.575	0	18.4	4	5.8	4	-1E+10	1	-1E+10	1	-1E+10	1	-1E+10	1	-1E+10	1	-1E+10	1
4901784	213	C	05/04/2021	10:47	-135.857	42.940	0	1340.60	0	2.8170	0	38.4320	4	30.656	0	1325.701	0	18.6	4	5.9	4	-1E+10	1	-1E+10	1	-1E+10	1	-1E+10	1	-1E+10	1	-1E+10	1
4901784	213	C	05/04/2021	10:47	-135.857	42.940	0	1345.00	0	2.8050	0	38.4360	4	30.660	0	1330.039	0	18.8	4	6.0	4	-1E+10	1	-1E+10	1	-1E+10	1	-1E+10	1	-1E+10	1	-1E+10	1
4901784	213	C	05/04/2021	10:47	-135.857	42.940	0	1349.50	0	2.7990	0	38.4360	4	30.661	0	1334.474	0	19.0	4	6.0	4	-1E+10	1	-1E+10	1	-1E+10	1	-1E+10	1	-1E+10	1	-1E+10	1
4901784	213	C	05/04/2021	10:47	-135.857	42.940	0	1354.80	0	2.7880	0	38.4380	4	30.664	0	1339.699	0	19.3	4	6.1	4	-1E+10	1	-1E+10	1	-1E+10	1	-1E+10	1	-1E+10	1	-1E+10	1
4901784	213	C	05/04/2021	10:47	-135.857	42.940	0	1360.10	0	2.7740	0	38.4410	4	30.668	0	1344.922	0	19.6	4	6.2	4	-1E+10	1	-1E+10	1	-1E+10	1	-1E+10	1	-1E+10	1	-1E+10	1
4901784	213	C	05/04/2021	10:47	-135.857	42.940	0	1365.40	0	2.7620	0	38.4440	4	30.671	0	1350.146	0	19.9	4	6.3	4	-1E+10	1	-1E+10	1	-1E+10	1	-1E+10	1	-1E+10	1	-1E+10	1
4901784	213	C	05/04/2021	10:47	-135.857	42.940	0	1369.90	0	2.7540	0	38.4450	4	30.673	0	1354.582	0	20.2	4	6.4	4	-1E+10	1	-1E+10	1	-1E+10	1	-1E+10	1	-1E+10	1	-1E+10	1
4901784	213	C	05/04/2021	10:47	-135.857	42.940	0	1374.40	0	2.7390	0	38.4490	4	30.678	0	1359.017	0	20.4	4	6.5	4	-1E+10	1	-1E+10	1	-1E+10	1	-1E+10	1	-1E+10	1	-1E+10	1
4901784	213	C	05/04/2021	10:47	-135.857	42.940	0	1379.90	0	2.7300	0	38.4510	4	30.680	0	1364.438	0	20.7	4	6.5	4	-1E+10	1	-1E+10	1	-1E+10	1	-1E+10	1	-1E+10	1	-1E+10	1
4901784	213	C	05/04/2021	10:47	-135.857	42.940	0	1385.30	0	2.7220	0	38.4520	4	30.682	0	1369.760	0	20.9	4	6.6	4	-1E+10	1	-1E+10	1	-1E+10	1	-1E+10	1	-1E+10	1	-1E+10	1
4901784	213	C	05/04/2021	10:47	-135.857	42.940	0	1389.90	0	2.7130	0	38.4540	4	30.684	0	1374.293	0	21.2	4	6.7	4	-1E+10	1	-1E+10	1	-1E+10	1	-1E+10	1	-1E+10	1	-1E+10	1
4901784	213	C	05/04/2021	10:47	-135.857	42.940	0	1394.50	0	2.7030	0	38.4560	4	30.687	0	1378.826	0	21.4	4	6.8	4	-1E+10	1	-1E+10	1	-1E+10	1	-1E+10	1	-1E+10	1	-1E+10	1
4901784	213	C	05/04/2021	10:47	-135.857	42.940	0	1400.10	0	2.6910	0	38.4590	4	30.690	0	1384.345	0	21.7	4	6.8	4	-1E+10	1	-1E+10	1	-1E+10	1	-1E+10	1	-1E+10	1	-1E+10	1
4901784	213	C	05/04/2021	10:47	-135.857	42.940	0	1404.80	0	2.6860	0	38.4600	4	30.692	0	1388.977	0	21.9	4	6.9	4	-1E+10	1	-1E+10	1	-1E+10	1	-1E+10	1	-1E+10	1	-1E+10	1
4901784	213	C	05/04/2021	10:47	-135.857	42.940	0	1409.50	0	2.6750	0	38.4620	4	30.694	0	1393.608	0	22.2	4	7.0	4	-1E+10	1	-1E+10	1	-1E+10	1	-1E+10	1	-1E+10	1	-1E+10	1
4901784	213	C	05/04/2021	10:47	-135.857	42.940	0	1414.80	0	2.6640	0	38.4640	4	30.697	0	1398.831	0	22.4	4	7.1	4	-1E+10	1	-1E+10	1	-1E+10	1	-1E+10	1	-1E+10	1	-1E+10	1
4901784	213	C	05/04/2021	10:47	-135.857	42.940	0	1419.20	0	2.6590	0	38.4660	4	30.699	0	1403.166	0	22.6	4	7.1	4	-1E+10	1	-1E+10	1	-1E+10	1	-1E+10	1	-1E+10	1	-1E+10	1
4901784	213	C	05/04/2021	10:47	-135.857	42.940	0	1425.00	0	2.6520	0	38.4680	4	30.702	0	1408.882	0	22.8	4	7.2	4	-1E+10	1	-1E+10	1	-1E+10	1	-1E+10	1	-1E+10	1	-1E+10	1
4901784	213	C	05/04/2021	10:47	-135.857	42.940	0	1430.80	0	2.6440	0	38.4690	4	30.703	0	1414.597	0	23.1	4	7.3	4	-1E+10	1	-1E+10	1	-1E+10	1	-1E+10	1	-1E+10	1	-1E+10	1
4901784	213	C	05/04/2021	10:47	-135.857	42.940	0	1435.80	0	2.6310	0	38.4720	4	30.707	0	1419.523	0	23.5	4	7.4	4	-1E+10	1	-1E+10	1	-1E+10	1	-1E+10	1	-1E+10	1	-1E+10	1
4901784	213	C	05/04/2021	10:47	-135.857	42.940	0	1440.80	0	2.6180	0	38.4740	4	30.710	0	1424.450	0	23.8	4	7.5	4	-1E+10	1	-1E+10	1	-1E+10	1	-1E+10	1	-1E+10	1	-1E+10	1
4901784	213	C	05/04/2021	10:47	-135.857	42.940	0	1445.00	0	2.6120	0	38.4760	4	30.712	0	1428.588	0	24.0	4	7.6	4	-1E+10	1	-1E+10	1	-1E+10	1	-1E+10	1	-1E+10	1	-1E+10	1
4901784	213	C	05/04/2021	10:47	-135.857	42.940	0	1449.20	0	2.6030	0	38.4780	4	30.714	0	1432.726	0	24.2	4	7.6	4	-1E+10	1	-1E+10	1	-1E+10	1	-1E+10	1	-1E+10	1	-1E+10	1
4901784	213	C	05/04/2021	10:47	-135.857	42.940	0	1454.40	0	2.5970	0	38.4790	4	30.716	0	1437.849	0	24.4	4	7.7	4	-1E+10	1	-1E+10	1	-1E+10	1	-1E+10	1	-1E+10	1	-1E+10	1
4901784	213	C	05/04/2021	10:47	-135.857	42.940	0	1459.50	0	2.5890	0	38.4810	4	30.718	0	1442.874	0	24.6	4	7.8	4	-1E+10	1	-1E+10	1	-1E+10	1	-1E+10	1	-1E+10	1	-1E+10	1
4901784	213	C	05/04/2021	10:47	-135.857	42.940	0	1464.70	0	2.5820	0	38.4820	4	30.720	0	1447.997	0	24.9	4	7.8	4	-1E+10	1	-1E+10	1	-1E+10	1	-1E+10	1	-1E+10	1	-1E+10	1
4901784	213	C	05/04/2021	10:47	-135.857	42.940	0	1469.90	0	2.5690	0	38.4840	4	30.723	0	1453.119	0	25.3	4	8.0	4	-1E+10	1	-1E+10	1	-1E+10	1	-1E+10	1	-1E+10	1	-1E+10	1
4901784	213	C	05/04/2021	10:47	-135.857	42.940	0	1475.00	0	2.5560	0	38.4870	4	30.726	0	1458.144	0	25.7	4	8.1	4	-1E+10	1	-1E+10	1	-1E+10	1	-1E+10	1	-1E+10	1	-1E+10	1
4901784	213	C	05/04/2021	10:47	-135.857	42.940	0	1480.20	0	2.5460	0	38.4900	4	30.730	0	1463.266	0	25.9	4	8.2	4	-1E+10	1	-1E+10	1	-1E+10	1	-1E+10	1	-1E+10	1	-1E+10	1
4901784	213	C	05/04/2021	10:47	-135.857	42.940	0	1485.50	0	2.5420	0	38.4900	4	30.730	0	1468.487	0	26.2	4	8.3	4	-1E+10	1	-1E+10	1	-1E+10	1	-1E+10	1	-1E+10	1	-1E+10	1
4901784	213	C	05/04/2021	10:47	-135.857	42.940	0	1490.70	0	2.5290	0	38.4930	4	30.734	0	1473.609	0	26.6	4	8.4	4	-1E+10	1	-1E+10	1	-1E+10	1	-1E+10	1	-1E+10	1	-1E+10	1
4901784	213	C	05/04/2021	10:47	-135.857	42.940	0	1495.20	0	2.5220	0	38.4940	4	30.735	0	1478.042	0	26.9	4	8.5	4	-1E+10	1	-1E+10	1	-1E+10	1	-1E+10	1	-1E+10	1	-1E+10	1
4901784	213	C	05/04/2021	10:47	-135.857	42.940	0	1499.60	0	2.5110	0	38.4960	4	30.738	0	1482.376	0	27.0	4	8.5	4	-1E+10	1	-1E+10	1	-1E+10	1	-1E+10	1	-1E+10	1	-1E+10	1
4901784	213	C	05/04/2021	10:47	-135.857	42.940	0	1505.00	0	2.5060	0	38.4980	4	30.740	0	1487.695	0	27.3	4	8.6	4	-1E+10	1	-1E+10	1	-1E+10	1	-1E+10	1	-1E+10	1	-1E+10	1
4901784	213	C	05/04/2021	10:47	-135.857	42.940	0	1510.40	0	2.5010	0	38.4990	4	30.741	0	1493.014	0	27.5	4	8.6	4	-1E+10	1	-1E+10	1	-1E+10	1	-1E+10	1	-1E+10	1	-1E+10	1
4901784	213	C	05/04/2021	10:47	-135.857	42.940	0	1515.00	0	2.4950	0	38.5000	4	30.743	0	1497.545	0	27.7	4	8.7	4	-1E+10	1	-1E+10	1	-1E+10	1	-1E+10	1	-1E+10	1	-1E+10	1
4901784	213	C	05/04/2021	10:47	-135.857	42.940	0	1519.50	0	2.4880	0	38.5020	4	30.745	0	1501.977	0	27.9	4	8.8	4	-1E+10	1	-1E+10	1	-1E+10	1	-1E+10	1	-1E+10	1	-1E+10	1
4901784	213	C	05/04/2021	10:47	-135.857	42.940	0	1525.10	0	2.4800	0	38.5030	4	30.747	0	1507.492	0	28.2	4	8.9	4	-1E+10	1	-1E+10	1	-1E+10	1	-1E+10	1	-1E+10	1	-1E+10	1
4901784	213	C	05/04/2021	10:47	-135.857	42.940	0	1530.20	0	2.4710	0	38.5050	4	30.749	0	1512.515	0	28.6	4	9.0	4	-1E+10	1	-1E+10	1	-1E+10	1	-1E+10	1	-1E+10	1	-1E+10	1
4901784	213	C	05/04/2021	10:47	-135.857	42.940	0	1534.40	0	2.4640	0	38.5070	4	30.752	0	1516.652	0	28.8	4	9.0	4	-1E+10	1	-1E+10	1	-1E+10	1	-1E+10	1	-1E+10	1	-1E+10	1
4901784	213	C	05/04/2021	10:47	-135.857	42.940	0	1540.00	0	2.4580	0	38.5090	4	30.754	0	1522.167	0	29.1	4	9.2	4	-1E+10	1	-1E+10	1	-1E+10	1	-1E+10	1	-1E+10	1	-1E+10	1
4901784	213	C	05/04/2021	10:47	-135.857	42.940	0	1545.60	0	2.4460	0	38.5100	4	30.756	0	1527.682	0	29.6	4	9.3	4	-1E+10	1	-1E+10	1	-1E+10	1	-1E+10	1	-1E+10	1	-1E+10	1
4901784	213	C	05/04/2021	10:47	-135.857	42.940	0	1550.50	0	2.4320	0	38.5130	4	30.760	0	1532.507	0	30.1	4	9.5	4	-1E+10	1	-1E+10	1	-1E+10	1	-1E+10	1	-1E+10	1	-1E+10	1
4901784	213	C	05/04/2021	10:47	-135.857	42.940	0	1555.40	0	2.4180	0	38.5160	4	30.763	0	1537.333	0	30.5	4	9.6	4	-1E+10	1	-1E+10	1	-1E+10	1	-1E+10	1	-1E+10	1	-1E+10	1
4901784	213	C	05/04/2021	10:47	-135.857	42.940	0	1560.30	0	2.4100	0	38.5180	4	30.766	0	1542.158	0	30.8	4	9.7	4	-1E+10	1	-1E+10	1	-1E+10	1	-1E+10	1	-1E+10	1	-1E+10	1
4901784	213	C	05/04/2021	10:47	-135.857	42.940	0	1565.10	0	2.4030	0	38.5190	4	30.767	0	1546.884	0	31.1	4	9.7	4	-1E+10	1	-1E+10	1	-1E+10	1	-1E+10	1	-1E+10	1	-1E+10	1
4901784	213	C	05/04/2021	10:47	-135.857	42.940	0	1570.00	0	2.3950	0	38.5210	4	30.770	0	1551.709	0	31.3	4	9.8	4	-1E+10	1	-1E+10	1	-1E+10	1	-1E+10	1	-1E+10	1	-1E+10	1
4901784	213	C	05/04/2021	10:47	-135.857	42.940	0	1574.90	0	2.3900	0	38.5220	4	30.771	0	1556.534	0	31.5	4	9.9	4	-1E+10	1	-1E+10	1	-1E+10	1	-1E+10	1	-1E+10	1	-1E+10	1
4901784	213	C	05/04/2021	10:47	-135.857	42.940	0	1579.80	0	2.3840	0	38.5240	4	30.773	0	1561.359	0	31.9	4	10.0	4	-1E+10	1	-1E+10	1	-1E+10	1	-1E+10	1	-1E+10	1	-1E+10	1
4901784	213	C	05/04/2021	10:47	-135.857	42.940	0	1584.90	0	2.3740	0	38.5260	4	30.776	0	1566.381	0	32.3	4	10.1	4	-1E+10	1	-1E+10	1	-1E+10	1	-1E+10	1	-1E+10	1	-1E+10	1
4901784	213	C	05/04/2021	10:47	-135.857	42.940	0	1589.90	0	2.3610	0	38.5290	4	30.779	0	1571.304	0	32.7	4	10.2	4	-1E+10	1	-1E+10	1	-1E+10	1	-1E+10	1	-1E+10	1	-1E+10	1
4901784	213	C	05/04/2021	10:47	-135.857	42.940	0	1595.10	0	2.3550	0	38.5300	4	30.781	0	1576.424	0	32.9	4	10.3	4	-1E+10	1	-1E+10	1	-1E+10	1	-1E+10	1	-1E+10	1	-1E+10	1
4901784	213	C	05/04/2021	10:47	-135.857	42.940	0	1600.10	0	2.3500	0	38.5320	4	30.783	0	1581.346	0	33.3	4	10.4	4	-1E+10	1	-1E+10	1	-1E+10	1	-1E+10	1	-1E+10	1	-1E+10	1
4901784	213	C	05/04/2021	10:47	-135.857	42.940	0	1605.20	0	2.3410	0	38.5330	4	30.784	0	1586.367	0	33.8	4	10.6	4	-1E+10	1	-1E+10	1	-1E+10	1	-1E+10	1	-1E+10	1	-1E+10	1
4901784	213	C	05/04/2021	10:47	-135.857	42.940	0	1610.40	0	2.3270	0	38.5360	4	30.788	0	1591.487	0	34.2	4	10.7	4	-1E+10	1	-1E+10	1	-1E+10	1	-1E+10	1	-1E+10	1	-1E+10	1
4901784	213	C	05/04/2021	10:47	-135.857	42.940	0	1615.50	0	2.3180	0	38.5380	4	30.791	0	1596.508	0	34.6	4	10.8	4	-1E+10	1	-1E+10	1	-1E+10	1	-1E+10	1	-1E+10	1	-1E+10	1
4901784	213	C	05/04/2021	10:47	-135.857	42.940	0	1620.70	0	2.3080	0	38.5400	4	30.793	0	1601.627	0	35.0	4	10.9	4	-1E+10	1	-1E+10	1	-1E+10	1	-1E+10	1	-1E+10	1	-1E+10	1
4901784	213	C	05/04/2021	10:47	-135.857	42.940	0	1625.00	0	2.3020	0	38.5420	4	30.795	0	1605.860	0	35.2	4	11.0	4	-1E+10	1	-1E+10	1	-1E+10	1	-1E+10	1	-1E+10	1	-1E+10	1
4901784	213	C	05/04/2021	10:47	-135.857	42.940	0	1629.30	0	2.2970	0	38.5430	4	30.797	0	1610.093	0	35.4	4	11.1	4	-1E+10	1	-1E+10	1	-1E+10	1	-1E+10	1	-1E+10	1	-1E+10	1
4901784	213	C	05/04/2021	10:47	-135.857	42.940	0	1634.60	0	2.2900	0	38.5450	4	30.799	0	1615.310	0	35.7	4	11.2	4	-1E+10	1	-1E+10	1	-1E+10	1	-1E+10	1	-1E+10	1	-1E+10	1
4901784	213	C	05/04/2021	10:47	-135.857	42.940	0	1639.80	0	2.2840	0	38.5460	4	30.800	0	1620.429	0	35.9	4	11.2	4	-1E+10	1	-1E+10	1	-1E+10	1	-1E+10	1	-1E+10	1	-1E+10	1
4901784	213	C	05/04/2021	10:47	-135.857	42.940	0	1645.20	0	2.2800	0	38.5470	4	30.802	0	1625.745	0	36.2	4	11.3	4	-1E+10	1	-1E+10	1	-1E+10	1	-1E+10	1	-1E+10	1	-1E+10	1
4901784	213	C	05/04/2021	10:47	-135.857	42.940	0	1650.50	0	2.2730	0	38.5490	4	30.804	0	1630.962	0	36.5	4	11.4	4	-1E+10	1	-1E+10	1	-1E+10	1	-1E+10	1	-1E+10	1	-1E+10	1
4901784	213	C	05/04/2021	10:47	-135.857	42.940	0	1655.00	0	2.2690	0	38.5500	4	30.805	0	1635.391	0	36.7	4	11.5	4	-1E+10	1	-1E+10	1	-1E+10	1	-1E+10	1	-1E+10	1	-1E+10	1
4901784	213	C	05/04/2021	10:47	-135.857	42.940	0	1659.50	0	2.2620	0	38.5520	4	30.807	0	1639.820	0	37.0	4	11.6	4	-1E+10	1	-1E+10	1	-1E+10	1	-1E+10	1	-1E+10	1	-1E+10	1
4901784	213	C	05/04/2021	10:47	-135.857	42.940	0	1664.80	0	2.2560	0	38.5530	4	30.809	0	1645.037	0	37.2	4	11.6	4	-1E+10	1	-1E+10	1	-1E+10	1	-1E+10	1	-1E+10	1	-1E+10	1
4901784	213	C	05/04/2021	10:47	-135.857	42.940	0	1670.20	0	2.2520	0	38.5540	4	30.810	0	1650.352	0	37.4	4	11.7	4	-1E+10	1	-1E+10	1	-1E+10	1	-1E+10	1	-1E+10	1	-1E+10	1
4901784	213	C	05/04/2021	10:47	-135.857	42.940	0	1675.50	0	2.2470	0	38.5560	4	30.812	0	1655.568	0	37.7	4	11.8	4	-1E+10	1	-1E+10	1	-1E+10	1	-1E+10	1	-1E+10	1	-1E+10	1
4901784	213	C	05/04/2021	10:47	-135.857	42.940	0	1680.10	0	2.2410	0	38.5570	4	30.813	0	1660.095	0	38.0	4	11.9	4	-1E+10	1	-1E+10	1	-1E+10	1	-1E+10	1	-1E+10	1	-1E+10	1
4901784	213	C	05/04/2021	10:47	-135.857	42.940	0	1684.60	0	2.2350	0	38.5580	4	30.815	0	1664.524	0	38.3	4	12.0	4	-1E+10	1	-1E+10	1	-1E+10	1	-1E+10	1	-1E+10	1	-1E+10	1
4901784	213	C	05/04/2021	10:47	-135.857	42.940	0	1690.00	0	2.2280	0	38.5600	4	30.817	0	1669.839	0	38.7	4	12.1	4	-1E+10	1	-1E+10	1	-1E+10	1	-1E+10	1	-1E+10	1	-1E+10	1
4901784	213	C	05/04/2021	10:47	-135.857	42.940	0	1695.40	0	2.2190	0	38.5620	4	30.820	0	1675.153	0	39.1	4	12.2	4	-1E+10	1	-1E+10	1	-1E+10	1	-1E+10	1	-1E+10	1	-1E+10	1
4901784	213	C	05/04/2021	10:47	-135.857	42.940	0	1700.00	0	2.2160	0	38.5630	4	30.821	0	1679.680	0	39.3	4	12.3	4	-1E+10	1	-1E+10	1	-1E+10	1	-1E+10	1	-1E+10	1	-1E+10	1
4901784	213	C	05/04/2021	10:47	-135.857	42.940	0	1704.50	0	2.2120	0	38.5640	4	30.822	0	1684.108	0	39.5	4	12.3	4	-1E+10	1	-1E+10	1	-1E+10	1	-1E+10	1	-1E+10	1	-1E+10	1
4901784	213	C	05/04/2021	10:47	-135.857	42.940	0	1710.00	0	2.2060	0	38.5650	4	30.823	0	1689.520	0	39.9	4	12.5	4	-1E+10	1	-1E+10	1	-1E+10	1	-1E+10	1	-1E+10	1	-1E+10	1
4901784	213	C	05/04/2021	10:47	-135.857	42.940	0	1715.60	0	2.1960	0	38.5680	4	30.827	0	1695.031	0	40.4	4	12.6	4	-1E+10	1	-1E+10	1	-1E+10	1	-1E+10	1	-1E+10	1	-1E+10	1
4901784	213	C	05/04/2021	10:47	-135.857	42.940	0	1720.20	0	2.1890	0	38.5690	4	30.828	0	1699.557	0	40.7	4	12.7	4	-1E+10	1	-1E+10	1	-1E+10	1	-1E+10	1	-1E+10	1	-1E+10	1
4901784	213	C	05/04/2021	10:47	-135.857	42.940	0	1724.80	0	2.1840	0	38.5700	4	30.829	0	1704.084	0	41.1	4	12.8	4	-1E+10	1	-1E+10	1	-1E+10	1	-1E+10	1	-1E+10	1	-1E+10	1
4901784	213	C	05/04/2021	10:47	-135.857	42.940	0	1730.20	0	2.1760	0	38.5720	4	30.832	0	1709.397	0	41.5	4	12.9	4	-1E+10	1	-1E+10	1	-1E+10	1	-1E+10	1	-1E+10	1	-1E+10	1
4901784	213	C	05/04/2021	10:47	-135.857	42.940	0	1735.60	0	2.1690	0	38.5740	4	30.834	0	1714.710	0	41.8	4	13.1	4	-1E+10	1	-1E+10	1	-1E+10	1	-1E+10	1	-1E+10	1	-1E+10	1
4901784	213	C	05/04/2021	10:47	-135.857	42.940	0	1740.40	0	2.1610	0	38.5760	4	30.836	0	1719.433	0	42.2	4	13.2	4	-1E+10	1	-1E+10	1	-1E+10	1	-1E+10	1	-1E+10	1	-1E+10	1
4901784	213	C	05/04/2021	10:47	-135.857	42.940	0	1745.20	0	2.1550	0	38.5770	4	30.838	0	1724.156	0	42.5	4	13.3	4	-1E+10	1	-1E+10	1	-1E+10	1	-1E+10	1	-1E+10	1	-1E+10	1
4901784	213	C	05/04/2021	10:47	-135.857	42.940	0	1750.10	0	2.1480	0	38.5790	4	30.840	0	1728.977	0	42.8	4	13.4	4	-1E+10	1	-1E+10	1	-1E+10	1	-1E+10	1	-1E+10	1	-1E+10	1
4901784	213	C	05/04/2021	10:47	-135.857	42.940	0	1755.00	0	2.1410	0	38.5810	4	30.842	0	1733.798	0	43.1	4	13.5	4	-1E+10	1	-1E+10	1	-1E+10	1	-1E+10	1	-1E+10	1	-1E+10	1
4901784	213	C	05/04/2021	10:47	-135.857	42.940	0	1760.00	0	2.1380	0	38.5820	4	30.843	0	1738.717	0	43.3	4	13.5	4	-1E+10	1	-1E+10	1	-1E+10	1	-1E+10	1	-1E+10	1	-1E+10	1
4901784	213	C	05/04/2021	10:47	-135.857	42.940	0	1764.90	0	2.1310	0	38.5830	4	30.845	0	1743.537	0	43.6	4	13.6	4	-1E+10	1	-1E+10	1	-1E+10	1	-1E+10	1	-1E+10	1	-1E+10	1
4901784	213	C	05/04/2021	10:47	-135.857	42.940	0	1769.90	0	2.1260	0	38.5850	4	30.847	0	1748.456	0	43.9	4	13.7	4	-1E+10	1	-1E+10	1	-1E+10	1	-1E+10	1	-1E+10	1	-1E+10	1
4901784	213	C	05/04/2021	10:47	-135.857	42.940	0	1774.90	0	2.1220	0	38.5860	4	30.848	0	1753.375	0	44.1	4	13.8	4	-1E+10	1	-1E+10	1	-1E+10	1	-1E+10	1	-1E+10	1	-1E+10	1
4901784	213	C	05/04/2021	10:47	-135.857	42.940	0	1779.90	0	2.1180	0	38.5870	4	30.849	0	1758.294	0	44.5	4	13.9	4	-1E+10	1	-1E+10	1	-1E+10	1	-1E+10	1	-1E+10	1	-1E+10	1
4901784	213	C	05/04/2021	10:47	-135.857	42.940	0	1785.00	0	2.1140	0	38.5880	4	30.851	0	1763.311	0	44.8	4	14.0	4	-1E+10	1	-1E+10	1	-1E+10	1	-1E+10	1	-1E+10	1	-1E+10	1
4901784	213	C	05/04/2021	10:47	-135.857	42.940	0	1790.20	0	2.1090	0	38.5900	4	30.853	0	1768.426	0	45.2	4	14.1	4	-1E+10	1	-1E+10	1	-1E+10	1	-1E+10	1	-1E+10	1	-1E+10	1
4901784	213	C	05/04/2021	10:47	-135.857	42.940	0	1795.40	0	2.1010	0	38.5920	4	30.855	0	1773.541	0	45.5	4	14.2	4	-1E+10	1	-1E+10	1	-1E+10	1	-1E+10	1	-1E+10	1	-1E+10	1
4901784	213	C	05/04/2021	10:47	-135.857	42.940	0	1800.60	0	2.0980	0	38.5930	4	30.856	0	1778.656	0	45.8	4	14.3	4	-1E+10	1	-1E+10	1	-1E+10	1	-1E+10	1	-1E+10	1	-1E+10	1
4901784	213	C	05/04/2021	10:47	-135.857	42.940	0	1804.90	0	2.0940	0	38.5940	4	30.857	0	1782.885	0	46.0	4	14.3	4	-1E+10	1	-1E+10	1	-1E+10	1	-1E+10	1	-1E+10	1	-1E+10	1
4901784	213	C	05/04/2021	10:47	-135.857	42.940	0	1809.30	0	2.0900	0	38.5950	4	30.859	0	1787.213	0	46.2	4	14.4	4	-1E+10	1	-1E+10	1	-1E+10	1	-1E+10	1	-1E+10	1	-1E+10	1
4901784	213	C	05/04/2021	10:47	-135.857	42.940	0	1814.50	0	2.0860	0	38.5960	4	30.860	0	1792.328	0	46.4	4	14.5	4	-1E+10	1	-1E+10	1	-1E+10	1	-1E+10	1	-1E+10	1	-1E+10	1
4901784	213	C	05/04/2021	10:47	-135.857	42.940	0	1819.80	0	2.0840	0	38.5970	4	30.861	0	1797.541	0	46.7	4	14.6	4	-1E+10	1	-1E+10	1	-1E+10	1	-1E+10	1	-1E+10	1	-1E+10	1
4901784	213	C	05/04/2021	10:47	-135.857	42.940	0	1825.10	0	2.0780	0	38.5980	4	30.862	0	1802.753	0	47.1	4	14.7	4	-1E+10	1	-1E+10	1	-1E+10	1	-1E+10	1	-1E+10	1	-1E+10	1
4901784	213	C	05/04/2021	10:47	-135.857	42.940	0	1830.40	0	2.0720	0	38.6000	4	30.864	0	1807.966	0	47.5	4	14.8	4	-1E+10	1	-1E+10	1	-1E+10	1	-1E+10	1	-1E+10	1	-1E+10	1
4901784	213	C	05/04/2021	10:47	-135.857	42.940	0	1834.80	0	2.0670	0	38.6020	4	30.866	0	1812.293	0	47.7	4	14.8	4	-1E+10	1	-1E+10	1	-1E+10	1	-1E+10	1	-1E+10	1	-1E+10	1
4901784	213	C	05/04/2021	10:47	-135.857	42.940	0	1839.30	0	2.0650	0	38.6020	4	30.867	0	1816.719	0	47.8	4	14.9	4	-1E+10	1	-1E+10	1	-1E+10	1	-1E+10	1	-1E+10	1	-1E+10	1
4901784	213	C	05/04/2021	10:47	-135.857	42.940	0	1844.70	0	2.0610	0	38.6040	4	30.869	0	1822.029	0	48.0	4	15.0	4	-1E+10	1	-1E+10	1	-1E+10	1	-1E+10	1	-1E+10	1	-1E+10	1
4901784	213	C	05/04/2021	10:47	-135.857	42.940	0	1850.10	0	2.0590	0	38.6040	4	30.869	0	1827.340	0	48.3	4	15.0	4	-1E+10	1	-1E+10	1	-1E+10	1	-1E+10	1	-1E+10	1	-1E+10	1
4901784	213	C	05/04/2021	10:47	-135.857	42.940	0	1855.60	0	2.0540	0	38.6060	4	30.871	0	1832.749	0	48.6	4	15.1	4	-1E+10	1	-1E+10	1	-1E+10	1	-1E+10	1	-1E+10	1	-1E+10	1
4901784	213	C	05/04/2021	10:47	-135.857	42.940	0	1860.10	0	2.0510	0	38.6070	4	30.872	0	1837.174	0	48.9	4	15.2	4	-1E+10	1	-1E+10	1	-1E+10	1	-1E+10	1	-1E+10	1	-1E+10	1
4901784	213	C	05/04/2021	10:47	-135.857	42.940	0	1864.80	0	2.0460	0	38.6080	4	30.873	0	1841.796	0	49.4	4	15.4	4	-1E+10	1	-1E+10	1	-1E+10	1	-1E+10	1	-1E+10	1	-1E+10	1
4901784	213	C	05/04/2021	10:47	-135.857	42.940	0	1870.40	0	2.0380	0	38.6100	4	30.876	0	1847.302	0	49.8	4	15.5	4	-1E+10	1	-1E+10	1	-1E+10	1	-1E+10	1	-1E+10	1	-1E+10	1
4901784	213	C	05/04/2021	10:47	-135.857	42.940	0	1875.00	0	2.0340	0	38.6110	4	30.877	0	1851.825	0	50.1	4	15.6	4	-1E+10	1	-1E+10	1	-1E+10	1	-1E+10	1	-1E+10	1	-1E+10	1
4901784	213	C	05/04/2021	10:47	-135.857	42.940	0	1879.70	0	2.0290	0	38.6120	4	30.878	0	1856.447	0	50.3	4	15.7	4	-1E+10	1	-1E+10	1	-1E+10	1	-1E+10	1	-1E+10	1	-1E+10	1
4901784	213	C	05/04/2021	10:47	-135.857	42.940	0	1884.90	0	2.0270	0	38.6140	4	30.880	0	1861.560	0	50.4	4	15.7	4	-1E+10	1	-1E+10	1	-1E+10	1	-1E+10	1	-1E+10	1	-1E+10	1
4901784	213	C	05/04/2021	10:47	-135.857	42.940	0	1890.10	0	2.0260	0	38.6140	4	30.880	0	1866.672	0	50.6	4	15.7	4	-1E+10	1	-1E+10	1	-1E+10	1	-1E+10	1	-1E+10	1	-1E+10	1
4901784	213	C	05/04/2021	10:47	-135.857	42.940	0	1895.00	0	2.0230	0	38.6150	4	30.881	0	1871.490	0	50.8	4	15.8	4	-1E+10	1	-1E+10	1	-1E+10	1	-1E+10	1	-1E+10	1	-1E+10	1
4901784	213	C	05/04/2021	10:47	-135.857	42.940	0	1899.20	0	2.0210	0	38.6150	4	30.881	0	1875.619	0	51.0	4	15.9	4	-1E+10	1	-1E+10	1	-1E+10	1	-1E+10	1	-1E+10	1	-1E+10	1
4901784	213	C	05/04/2021	10:47	-135.857	42.940	0	1905.00	0	2.0180	0	38.6170	4	30.883	0	1881.322	0	51.4	4	16.0	4	-1E+10	1	-1E+10	1	-1E+10	1	-1E+10	1	-1E+10	1	-1E+10	1
4901784	213	C	05/04/2021	10:47	-135.857	42.940	0	1910.00	0	2.0140	0	38.6180	4	30.885	0	1886.238	0	51.7	4	16.1	4	-1E+10	1	-1E+10	1	-1E+10	1	-1E+10	1	-1E+10	1	-1E+10	1
4901784	213	C	05/04/2021	10:47	-135.857	42.940	0	1914.30	0	2.0100	0	38.6190	4	30.886	0	1890.465	0	52.1	4	16.2	4	-1E+10	1	-1E+10	1	-1E+10	1	-1E+10	1	-1E+10	1	-1E+10	1
4901784	213	C	05/04/2021	10:47	-135.857	42.940	0	1919.40	0	2.0060	0	38.6200	4	30.887	0	1895.479	0	52.3	4	16.3	4	-1E+10	1	-1E+10	1	-1E+10	1	-1E+10	1	-1E+10	1	-1E+10	1
4901784	213	C	05/04/2021	10:47	-135.857	42.940	0	1924.50	0	2.0030	0	38.6210	4	30.888	0	1900.492	0	52.6	4	16.4	4	-1E+10	1	-1E+10	1	-1E+10	1	-1E+10	1	-1E+10	1	-1E+10	1
4901784	213	C	05/04/2021	10:47	-135.857	42.940	0	1929.60	0	1.9990	0	38.6220	4	30.889	0	1905.506	0	52.9	4	16.4	4	-1E+10	1	-1E+10	1	-1E+10	1	-1E+10	1	-1E+10	1	-1E+10	1
4901784	213	C	05/04/2021	10:47	-135.857	42.940	0	1934.70	0	1.9950	0	38.6230	4	30.890	0	1910.519	0	53.2	4	16.5	4	-1E+10	1	-1E+10	1	-1E+10	1	-1E+10	1	-1E+10	1	-1E+10	1
4901784	213	C	05/04/2021	10:47	-135.857	42.940	0	1939.90	0	1.9920	0	38.6230	4	30.891	0	1915.631	0	53.5	4	16.6	4	-1E+10	1	-1E+10	1	-1E+10	1	-1E+10	1	-1E+10	1	-1E+10	1
4901784	213	C	05/04/2021	10:47	-135.857	42.940	0	1945.10	0	1.9880	0	38.6250	4	30.893	0	1920.743	0	53.7	4	16.7	4	-1E+10	1	-1E+10	1	-1E+10	1	-1E+10	1	-1E+10	1	-1E+10	1
4901784	213	C	05/04/2021	10:47	-135.857	42.940	0	1950.40	0	1.9870	0	38.6250	4	30.893	0	1925.952	0	53.9	4	16.8	4	-1E+10	1	-1E+10	1	-1E+10	1	-1E+10	1	-1E+10	1	-1E+10	1
4901784	213	C	05/04/2021	10:47	-135.857	42.940	0	1955.70	0	1.9830	0	38.6270	4	30.895	0	1931.162	0	54.2	4	16.9	4	-1E+10	1	-1E+10	1	-1E+10	1	-1E+10	1	-1E+10	1	-1E+10	1
4901784	213	C	05/04/2021	10:47	-135.857	42.940	0	1960.10	0	1.9810	0	38.6270	4	30.895	0	1935.487	0	54.4	4	16.9	4	-1E+10	1	-1E+10	1	-1E+10	1	-1E+10	1	-1E+10	1	-1E+10	1
4901784	213	C	05/04/2021	10:47	-135.857	42.940	0	1964.50	0	1.9780	0	38.6280	4	30.896	0	1939.811	0	54.6	4	17.0	4	-1E+10	1	-1E+10	1	-1E+10	1	-1E+10	1	-1E+10	1	-1E+10	1
4901784	213	C	05/04/2021	10:47	-135.857	42.940	0	1969.80	0	1.9750	0	38.6290	4	30.897	0	1945.021	0	54.8	4	17.0	4	-1E+10	1	-1E+10	1	-1E+10	1	-1E+10	1	-1E+10	1	-1E+10	1
4901784	213	C	05/04/2021	10:47	-135.857	42.940	0	1975.10	0	1.9740	0	38.6290	4	30.897	0	1950.230	0	55.1	4	17.1	4	-1E+10	1	-1E+10	1	-1E+10	1	-1E+10	1	-1E+10	1	-1E+10	1
4901784	213	C	05/04/2021	10:47	-135.857	42.940	0	1980.50	0	1.9700	0	38.6300	4	30.899	0	1955.537	0	55.4	4	17.2	4	-1E+10	1	-1E+10	1	-1E+10	1	-1E+10	1	-1E+10	1	-1E+10	1
4901784	213	C	05/04/2021	10:47	-135.857	42.940	0	1985.00	0	1.9680	0	38.6310	4	30.900	0	1959.960	0	55.6	4	17.3	4	-1E+10	1	-1E+10	1	-1E+10	1	-1E+10	1	-1E+10	1	-1E+10	1
4901784	213	C	05/04/2021	10:47	-135.857	42.940	0	1989.40	0	1.9640	0	38.6320	4	30.901	0	1964.284	0	55.9	4	17.4	4	-1E+10	1	-1E+10	1	-1E+10	1	-1E+10	1	-1E+10	1	-1E+10	1
4901784	213	C	05/04/2021	10:47	-135.857	42.940	0	1994.80	0	1.9600	0	38.6330	4	30.902	0	1969.591	0	56.1	4	17.4	4	-1E+10	1	-1E+10	1	-1E+10	1	-1E+10	1	-1E+10	1	-1E+10	1
4901784	213	C	05/04/2021	10:47	-135.857	42.940	0	2000.20	0	1.9590	0	38.6340	4	30.903	0	1974.897	0	56.4	4	17.5	4	-1E+10	1	-1E+10	1	-1E+10	1	-1E+10	1	-1E+10	1	-1E+10	1
4901784	213	C	05/04/2021	10:47	-135.857	42.940	0	2005.50	0	1.9570	0	38.6340	4	30.903	0	1980.106	0	56.6	4	17.6	4	-1E+10	1	-1E+10	1	-1E+10	1	-1E+10	1	-1E+10	1	-1E+10	1
4901784	213	C	05/04/2021	10:47	-135.857	42.940	0	2010.50	0	1.9530	0	38.6350	4	30.904	0	1985.019	0	56.9	4	17.7	4	-1E+10	1	-1E+10	1	-1E+10	1	-1E+10	1	-1E+10	1	-1E+10	1
4901784	213	C	05/04/2021	10:47	-135.857	42.940	0	2014.60	0	1.9510	0	38.6360	4	30.905	0	1989.048	0	57.1	4	17.7	4	-1E+10	1	-1E+10	1	-1E+10	1	-1E+10	1	-1E+10	1	-1E+10	1
4901784	213	C	05/04/2021	10:47	-135.857	42.940	0	2019.80	0	1.9470	0	38.6370	4	30.907	0	1994.158	0	57.3	4	17.8	4	-1E+10	1	-1E+10	1	-1E+10	1	-1E+10	1	-1E+10	1	-1E+10	1
4901784	213	C	05/04/2021	10:47	-135.857	42.940	0																										
4901784	214	C	05/14/2021	10:44	-135.980	42.952	0	2.00	0	13.9180	0	35.9710	8	26.956	0	1.984	0	257.0	4	102.2	4	-1E+10	1	-1E+10	1	-1E+10	1	-1E+10	1	-1E+10	1	-1E+10	1
4901784	214	C	05/14/2021	10:44	-135.980	42.952	0	3.40	0	13.6810	0	35.9760	8	27.010	0	3.373	0	258.1	4	102.1	4	-1E+10	1	-1E+10	1	-1E+10	1	-1E+10	1	-1E+10	1	-1E+10	1
4901784	214	C	05/14/2021	10:44	-135.980	42.952	0	4.90	0	13.5790	0	35.9680	8	27.025	0	4.861	0	258.0	4	101.9	4	-1E+10	1	-1E+10	1	-1E+10	1	-1E+10	1	-1E+10	1	-1E+10	1
4901784	214	C	05/14/2021	10:44	-135.980	42.952	0	6.40	0	13.3150	0	35.9790	8	27.088	0	6.349	0	258.2	4	101.5	4	-1E+10	1	-1E+10	1	-1E+10	1	-1E+10	1	-1E+10	1	-1E+10	1
4901784	214	C	05/14/2021	10:44	-135.980	42.952	0	7.90	0	13.0060	0	35.9920	8	27.161	0	7.837	0	260.0	4	101.5	4	-1E+10	1	-1E+10	1	-1E+10	1	-1E+10	1	-1E+10	1	-1E+10	1
4901784	214	C	05/14/2021	10:44	-135.980	42.952	0	9.50	0	12.9060	0	35.9830	8	27.175	0	9.424	0	260.6	4	101.5	4	-1E+10	1	-1E+10	1	-1E+10	1	-1E+10	1	-1E+10	1	-1E+10	1
4901784	214	C	05/14/2021	10:44	-135.980	42.952	0	11.00	0	12.7360	0	35.9970	8	27.220	0	10.912	0	262.1	4	101.8	4	-1E+10	1	-1E+10	1	-1E+10	1	-1E+10	1	-1E+10	1	-1E+10	1
4901784	214	C	05/14/2021	10:44	-135.980	42.952	0	12.60	0	12.5480	0	36.0070	8	27.265	0	12.500	0	262.9	4	101.7	4	-1E+10	1	-1E+10	1	-1E+10	1	-1E+10	1	-1E+10	1	-1E+10	1
4901784	214	C	05/14/2021	10:44	-135.980	42.952	0	14.20	0	12.4930	0	36.0050	8	27.275	0	14.087	0	263.2	4	101.7	4	-1E+10	1	-1E+10	1	-1E+10	1	-1E+10	1	-1E+10	1	-1E+10	1
4901784	214	C	05/14/2021	10:44	-135.980	42.952	0	15.80	0	12.3250	0	36.0220	8	27.321	0	15.674	0	263.9	4	101.7	4	-1E+10	1	-1E+10	1	-1E+10	1	-1E+10	1	-1E+10	1	-1E+10	1
4901784	214	C	05/14/2021	10:44	-135.980	42.952	0	17.50	0	12.3170	0	36.0150	8	27.317	0	17.360	0	264.3	4	101.8	4	-1E+10	1	-1E+10	1	-1E+10	1	-1E+10	1	-1E+10	1	-1E+10	1
4901784	214	C	05/14/2021	10:44	-135.980	42.952	0	19.20	0	12.2290	0	36.0190	8	27.338	0	19.047	0	264.8	4	101.8	4	-1E+10	1	-1E+10	1	-1E+10	1	-1E+10	1	-1E+10	1	-1E+10	1
4901784	214	C	05/14/2021	10:44	-135.980	42.952	0	21.00	0	12.1400	0	36.0270	8	27.361	0	20.832	0	265.3	4	101.8	4	-1E+10	1	-1E+10	1	-1E+10	1	-1E+10	1	-1E+10	1	-1E+10	1
4901784	214	C	05/14/2021	10:44	-135.980	42.952	0	22.70	0	12.1100	0	36.0200	8	27.362	0	22.519	0	265.4	4	101.8	4	-1E+10	1	-1E+10	1	-1E+10	1	-1E+10	1	-1E+10	1	-1E+10	1
4901784	214	C	05/14/2021	10:44	-135.980	42.952	0	24.30	0	12.0410	0	36.0240	8	27.378	0	24.106	0	265.7	4	101.7	4	-1E+10	1	-1E+10	1	-1E+10	1	-1E+10	1	-1E+10	1	-1E+10	1
4901784	214	C	05/14/2021	10:44	-135.980	42.952	0	26.10	0	11.8910	0	36.0350	8	27.416	0	25.891	0	266.2	4	101.6	4	-1E+10	1	-1E+10	1	-1E+10	1	-1E+10	1	-1E+10	1	-1E+10	1
4901784	214	C	05/14/2021	10:44	-135.980	42.952	0	27.90	0	11.7640	0	36.0360	8	27.441	0	27.677	0	267.0	4	101.7	4	-1E+10	1	-1E+10	1	-1E+10	1	-1E+10	1	-1E+10	1	-1E+10	1
4901784	214	C	05/14/2021	10:44	-135.980	42.952	0	29.60	0	11.7400	0	36.0370	8	27.446	0	29.363	0	267.1	4	101.7	4	-1E+10	1	-1E+10	1	-1E+10	1	-1E+10	1	-1E+10	1	-1E+10	1
4901784	214	C	05/14/2021	10:44	-135.980	42.952	0	31.40	0	11.7180	0	36.0350	8	27.449	0	31.149	0	266.9	4	101.5	4	-1E+10	1	-1E+10	1	-1E+10	1	-1E+10	1	-1E+10	1	-1E+10	1
4901784	214	C	05/14/2021	10:44	-135.980	42.952	0	33.20	0	11.7010	0	36.0350	8	27.452	0	32.934	0	267.0	4	101.5	4	-1E+10	1	-1E+10	1	-1E+10	1	-1E+10	1	-1E+10	1	-1E+10	1
4901784	214	C	05/14/2021	10:44	-135.980	42.952	0	34.90	0	11.6590	0	36.0400	8	27.464	0	34.620	0	266.6	4	101.3	4	-1E+10	1	-1E+10	1	-1E+10	1	-1E+10	1	-1E+10	1	-1E+10	1
4901784	214	C	05/14/2021	10:44	-135.980	42.952	0	36.70	0	11.6310	0	36.0370	8	27.467	0	36.406	0	266.7	4	101.3	4	-1E+10	1	-1E+10	1	-1E+10	1	-1E+10	1	-1E+10	1	-1E+10	1
4901784	214	C	05/14/2021	10:44	-135.980	42.952	0	38.50	0	11.6100	0	36.0310	8	27.466	0	38.191	0	266.5	4	101.1	4	-1E+10	1	-1E+10	1	-1E+10	1	-1E+10	1	-1E+10	1	-1E+10	1
4901784	214	C	05/14/2021	10:44	-135.980	42.952	0	40.20	0	11.5350	0	36.0310	8	27.481	0	39.877	0	266.4	4	100.9	4	-1E+10	1	-1E+10	1	-1E+10	1	-1E+10	1	-1E+10	1	-1E+10	1
4901784	214	C	05/14/2021	10:44	-135.980	42.952	0	42.00	0	11.3610	0	36.0400	8	27.520	0	41.663	0	267.4	4	101.0	4	-1E+10	1	-1E+10	1	-1E+10	1	-1E+10	1	-1E+10	1	-1E+10	1
4901784	214	C	05/14/2021	10:44	-135.980	42.952	0	43.70	0	11.3550	0	36.0320	8	27.515	0	43.349	0	267.0	4	100.8	4	-1E+10	1	-1E+10	1	-1E+10	1	-1E+10	1	-1E+10	1	-1E+10	1
4901784	214	C	05/14/2021	10:44	-135.980	42.952	0	45.30	0	11.2490	0	36.0340	8	27.537	0	44.936	0	267.1	4	100.6	4	-1E+10	1	-1E+10	1	-1E+10	1	-1E+10	1	-1E+10	1	-1E+10	1
4901784	214	C	05/14/2021	10:44	-135.980	42.952	0	47.10	0	11.1940	0	36.0280	8	27.542	0	46.721	0	266.6	4	100.3	4	-1E+10	1	-1E+10	1	-1E+10	1	-1E+10	1	-1E+10	1	-1E+10	1
4901784	214	C	05/14/2021	10:44	-135.980	42.952	0	48.90	0	11.0160	0	36.0380	8	27.583	0	48.506	0	265.7	4	99.6	4	-1E+10	1	-1E+10	1	-1E+10	1	-1E+10	1	-1E+10	1	-1E+10	1
4901784	214	C	05/14/2021	10:44	-135.980	42.952	0	50.60	0	10.8300	0	36.0440	8	27.622	0	50.193	0	264.9	4	98.9	4	-1E+10	1	-1E+10	1	-1E+10	1	-1E+10	1	-1E+10	1	-1E+10	1
4901784	214	C	05/14/2021	10:44	-135.980	42.952	0	52.40	0	10.7260	0	36.0510	8	27.646	0	51.978	0	263.7	4	98.3	4	-1E+10	1	-1E+10	1	-1E+10	1	-1E+10	1	-1E+10	1	-1E+10	1
4901784	214	C	05/14/2021	10:44	-135.980	42.952	0	54.10	0	10.7470	0	36.0600	8	27.649	0	53.664	0	261.7	4	97.6	4	-1E+10	1	-1E+10	1	-1E+10	1	-1E+10	1	-1E+10	1	-1E+10	1
4901784	214	C	05/14/2021	10:44	-135.980	42.952	0	55.90	0	10.6930	0	36.0690	8	27.666	0	55.449	0	260.0	4	96.8	4	-1E+10	1	-1E+10	1	-1E+10	1	-1E+10	1	-1E+10	1	-1E+10	1
4901784	214	C	05/14/2021	10:44	-135.980	42.952	0	57.70	0	10.6890	0	36.0740	8	27.671	0	57.234	0	258.3	4	96.2	4	-1E+10	1	-1E+10	1	-1E+10	1	-1E+10	1	-1E+10	1	-1E+10	1
4901784	214	C	05/14/2021	10:44	-135.980	42.952	0	59.60	0	10.6160	0	36.0760	8	27.686	0	59.119	0	257.0	4	95.5	4	-1E+10	1	-1E+10	1	-1E+10	1	-1E+10	1	-1E+10	1	-1E+10	1
4901784	214	C	05/14/2021	10:44	-135.980	42.952	0	61.30	0	10.5330	0	36.0740	8	27.699	0	60.805	0	256.2	4	95.1	4	-1E+10	1	-1E+10	1	-1E+10	1	-1E+10	1	-1E+10	1	-1E+10	1
4901784	214	C	05/14/2021	10:44	-135.980	42.952	0	63.20	0	10.5290	0	36.0800	8	27.704	0	62.689	0	255.8	4	95.0	4	-1E+10	1	-1E+10	1	-1E+10	1	-1E+10	1	-1E+10	1	-1E+10	1
4901784	214	C	05/14/2021	10:44	-135.980	42.952	0	64.90	0	10.5320	0	36.0840	8	27.707	0	64.375	0	255.1	4	94.7	4	-1E+10	1	-1E+10	1	-1E+10	1	-1E+10	1	-1E+10	1	-1E+10	1
4901784	214	C	05/14/2021	10:44	-135.980	42.952	0	66.70	0	10.5430	0	36.0900	8	27.710	0	66.160	0	254.8	4	94.6	4	-1E+10	1	-1E+10	1	-1E+10	1	-1E+10	1	-1E+10	1	-1E+10	1
4901784	214	C	05/14/2021	10:44	-135.980	42.952	0	68.40	0	10.5330	0	36.0970	8	27.717	0	67.846	0	255.0	4	94.7	4	-1E+10	1	-1E+10	1	-1E+10	1	-1E+10	1	-1E+10	1	-1E+10	1
4901784	214	C	05/14/2021	10:44	-135.980	42.952	0	70.30	0	10.5110	0	36.0980	8	27.722	0	69.731	0	254.6	4	94.5	4	-1E+10	1	-1E+10	1	-1E+10	1	-1E+10	1	-1E+10	1	-1E+10	1
4901784	214	C	05/14/2021	10:44	-135.980	42.952	0	72.00	0	10.4970	0	36.0930	8	27.720	0	71.417	0	254.2	4	94.3	4	-1E+10	1	-1E+10	1	-1E+10	1	-1E+10	1	-1E+10	1	-1E+10	1
4901784	214	C	05/14/2021	10:44	-135.980	42.952	0	73.80	0	10.4170	0	36.0880	8	27.731	0	73.202	0	254.2	4	94.1	4	-1E+10	1	-1E+10	1	-1E+10	1	-1E+10	1	-1E+10	1	-1E+10	1
4901784	214	C	05/14/2021	10:44	-135.980	42.952	0	75.60	0	10.3640	0	36.0820	8	27.735	0	74.987	0	254.2	4	94.0	4	-1E+10	1	-1E+10	1	-1E+10	1	-1E+10	1	-1E+10	1	-1E+10	1
4901784	214	C	05/14/2021	10:44	-135.980	42.952	0	77.30	0	10.3680	0	36.0830	8	27.736	0	76.673	0	253.9	4	93.9	4	-1E+10	1	-1E+10	1	-1E+10	1	-1E+10	1	-1E+10	1	-1E+10	1
4901784	214	C	05/14/2021	10:44	-135.980	42.952	0	79.10	0	10.3850	0	36.0820	8	27.732	0	78.458	0	253.5	4	93.8	4	-1E+10	1	-1E+10	1	-1E+10	1	-1E+10	1	-1E+10	1	-1E+10	1
4901784	214	C	05/14/2021	10:44	-135.980	42.952	0	80.80	0	10.2360	0	36.0760	8	27.754	0	80.144	0	253.2	4	93.4	4	-1E+10	1	-1E+10	1	-1E+10	1	-1E+10	1	-1E+10	1	-1E+10	1
4901784	214	C	05/14/2021	10:44	-135.980	42.952	0	82.60	0	10.2410	0	36.0760	8	27.753	0	81.929	0	253.7	4	93.6	4	-1E+10	1	-1E+10	1	-1E+10	1	-1E+10	1	-1E+10	1	-1E+10	1
4901784	214	C	05/14/2021	10:44	-135.980	42.952	0	84.40	0	10.2440	0	36.0770	8	27.753	0	83.714	0	252.8	4	93.3	4	-1E+10	1	-1E+10	1	-1E+10	1	-1E+10	1	-1E+10	1	-1E+10	1
4901784	214	C	05/14/2021	10:44	-135.980	42.952	0	86.20	0	10.2200	0	36.0770	8	27.757	0	85.499	0	252.4	4	93.1	4	-1E+10	1	-1E+10	1	-1E+10	1	-1E+10	1	-1E+10	1	-1E+10	1
4901784	214	C	05/14/2021	10:44	-135.980	42.952	0	87.90	0	10.1950	0	36.0780	8	27.762	0	87.184	0	251.8	4	92.8	4	-1E+10	1	-1E+10	1	-1E+10	1	-1E+10	1	-1E+10	1	-1E+10	1
4901784	214	C	05/14/2021	10:44	-135.980	42.952	0	89.80	0	10.2770	0	36.0920	8	27.759	0	89.069	0	250.4	4	92.5	4	-1E+10	1	-1E+10	1	-1E+10	1	-1E+10	1	-1E+10	1	-1E+10	1
4901784	214	C	05/14/2021	10:44	-135.980	42.952	0	91.60	0	10.1560	0	36.0940	8	27.782	0	90.853	0	250.3	4	92.2	4	-1E+10	1	-1E+10	1	-1E+10	1	-1E+10	1	-1E+10	1	-1E+10	1
4901784	214	C	05/14/2021	10:44	-135.980	42.952	0	93.30	0	10.1580	0	36.0930	8	27.781	0	92.539	0	249.5	4	91.9	4	-1E+10	1	-1E+10	1	-1E+10	1	-1E+10	1	-1E+10	1	-1E+10	1
4901784	214	C	05/14/2021	10:44	-135.980	42.952	0	95.20	0	10.1840	0	36.0850	8	27.770	0	94.423	0	248.1	4	91.4	4	-1E+10	1	-1E+10	1	-1E+10	1	-1E+10	1	-1E+10	1	-1E+10	1
4901784	214	C	05/14/2021	10:44	-135.980	42.952	0	97.00	0	10.2820	0	36.1210	8	27.781	0	96.208	0	246.5	4	91.0	4	-1E+10	1	-1E+10	1	-1E+10	1	-1E+10	1	-1E+10	1	-1E+10	1
4901784	214	C	05/14/2021	10:44	-135.980	42.952	0	98.80	0	10.2490	0	36.1110	8	27.779	0	97.993	0	246.1	4	90.8	4	-1E+10	1	-1E+10	1	-1E+10	1	-1E+10	1	-1E+10	1	-1E+10	1
4901784	214	C	05/14/2021	10:44	-135.980	42.952	0	102.20	0	9.8710	0	36.0830	8	27.823	0	101.364	0	246.5	4	90.2	4	-1E+10	1	-1E+10	1	-1E+10	1	-1E+10	1	-1E+10	1	-1E+10	1
4901784	214	C	05/14/2021	10:44	-135.980	42.952	0	105.20	0	9.8850	0	36.1070	8	27.839	0	104.339	0	242.6	4	88.8	4	-1E+10	1	-1E+10	1	-1E+10	1	-1E+10	1	-1E+10	1	-1E+10	1
4901784	214	C	05/14/2021	10:44	-135.980	42.952	0	107.40	0	9.8450	0	36.1330	8	27.867	0	106.521	0	239.7	4	87.7	4	-1E+10	1	-1E+10	1	-1E+10	1	-1E+10	1	-1E+10	1	-1E+10	1
4901784	214	C	05/14/2021	10:44	-135.980	42.952	0	109.70	0	9.6870	0	36.1460	8	27.904	0	108.801	0	236.7	4	86.3	4	-1E+10	1	-1E+10	1	-1E+10	1	-1E+10	1	-1E+10	1	-1E+10	1
4901784	214	C	05/14/2021	10:44	-135.980	42.952	0	112.80	0	9.7530	0	36.2260	8	27.955	0	111.875	0	231.0	4	84.4	4	-1E+10	1	-1E+10	1	-1E+10	1	-1E+10	1	-1E+10	1	-1E+10	1
4901784	214	C	05/14/2021	10:44	-135.980	42.952	0	115.20	0	9.7020	0	36.2550	8	27.987	0	114.255	0	228.0	4	83.2	4	-1E+10	1	-1E+10	1	-1E+10	1	-1E+10	1	-1E+10	1	-1E+10	1
4901784	214	C	05/14/2021	10:44	-135.980	42.952	0	117.70	0	9.6070	0	36.2940	8	28.033	0	116.733	0	224.1	4	81.7	4	-1E+10	1	-1E+10	1	-1E+10	1	-1E+10	1	-1E+10	1	-1E+10	1
4901784	214	C	05/14/2021	10:44	-135.980	42.952	0	120.30	0	9.6150	0	36.3760	8	28.096	0	119.311	0	219.6	4	80.1	4	-1E+10	1	-1E+10	1	-1E+10	1	-1E+10	1	-1E+10	1	-1E+10	1
4901784	214	C	05/14/2021	10:44	-135.980	42.952	0	122.10	0	9.6080	0	36.4210	8	28.133	0	121.096	0	217.4	4	79.3	4	-1E+10	1	-1E+10	1	-1E+10	1	-1E+10	1	-1E+10	1	-1E+10	1
4901784	214	C	05/14/2021	10:44	-135.980	42.952	0	124.80	0	9.4010	0	36.4630	8	28.201	0	123.773	0	216.0	4	78.5	4	-1E+10	1	-1E+10	1	-1E+10	1	-1E+10	1	-1E+10	1	-1E+10	1
4901784	214	C	05/14/2021	10:44	-135.980	42.952	0	127.50	0	9.3390	0	36.4880	8	28.231	0	126.450	0	214.6	4	77.9	4	-1E+10	1	-1E+10	1	-1E+10	1	-1E+10	1	-1E+10	1	-1E+10	1
4901784	214	C	05/14/2021	10:44	-135.980	42.952	0	129.20	0	9.3230	0	36.4990	8	28.242	0	128.135	0	213.4	4	77.4	4	-1E+10	1	-1E+10	1	-1E+10	1	-1E+10	1	-1E+10	1	-1E+10	1
4901784	214	C	05/14/2021	10:44	-135.980	42.952	0	132.20	0	9.2960	0	36.5100	8	28.255	0	131.110	0	211.4	4	76.6	4	-1E+10	1	-1E+10	1	-1E+10	1	-1E+10	1	-1E+10	1	-1E+10	1
4901784	214	C	05/14/2021	10:44	-135.980	42.952	0	134.90	0	9.2300	0	36.5440	8	28.293	0	133.787	0	208.6	4	75.6	4	-1E+10	1	-1E+10	1	-1E+10	1	-1E+10	1	-1E+10	1	-1E+10	1
4901784	214	C	05/14/2021	10:44	-135.980	42.952	0	137.20	0	9.1440	0	36.5790	8	28.335	0	136.067	0	205.9	4	74.4	4	-1E+10	1	-1E+10	1	-1E+10	1	-1E+10	1	-1E+10	1	-1E+10	1
4901784	214	C	05/14/2021	10:44	-135.980	42.952	0	140.20	0	9.0000	0	36.6390	8	28.405	0	139.041	0	203.5	4	73.4	4	-1E+10	1	-1E+10	1	-1E+10	1	-1E+10	1	-1E+10	1	-1E+10	1
4901784	214	C	05/14/2021	10:44	-135.980	42.952	0	142.50	0	8.8910	0	36.6960	8	28.468	0	141.321	0	201.7	4	72.6	4	-1E+10	1	-1E+10	1	-1E+10	1	-1E+10	1	-1E+10	1	-1E+10	1
4901784	214	C	05/14/2021	10:44	-135.980	42.952	0	144.80	0	8.8640	0	36.7070	8	28.481	0	143.601	0	200.0	4	71.9	4	-1E+10	1	-1E+10	1	-1E+10	1	-1E+10	1	-1E+10	1	-1E+10	1
4901784	214	C	05/14/2021	10:44	-135.980	42.952	0	147.20	0	8.7210	0	36.7800	8	28.562	0	145.981	0	198.0	4	71.0	4	-1E+10	1	-1E+10	1	-1E+10	1	-1E+10	1	-1E+10	1	-1E+10	1
4901784	214	C	05/14/2021	10:44	-135.980	42.952	0	149.70	0	8.6970	0	36.7920	8	28.575	0	148.459	0	197.0	4	70.6	4	-1E+10	1	-1E+10	1	-1E+10	1	-1E+10	1	-1E+10	1	-1E+10	1
4901784	214	C	05/14/2021	10:44	-135.980	42.952	0	152.10	0	8.6750	0	36.8010	8	28.586	0	150.838	0	195.1	4	69.9	4	-1E+10	1	-1E+10	1	-1E+10	1	-1E+10	1	-1E+10	1	-1E+10	1
4901784	214	C	05/14/2021	10:44	-135.980	42.952	0	154.60	0	8.5890	0	36.8280	8	28.621	0	153.317	0	193.1	4	69.1	4	-1E+10	1	-1E+10	1	-1E+10	1	-1E+10	1	-1E+10	1	-1E+10	1
4901784	214	C	05/14/2021	10:44	-135.980	42.952	0	157.80	0	8.4720	0	36.8810	8	28.681	0	156.489	0	191.3	4	68.3	4	-1E+10	1	-1E+10	1	-1E+10	1	-1E+10	1	-1E+10	1	-1E+10	1
4901784	214	C	05/14/2021	10:44	-135.980	42.952	0	160.10	0	8.4320	0	36.9000	8	28.702	0	158.769	0	189.7	4	67.7	4	-1E+10	1	-1E+10	1	-1E+10	1	-1E+10	1	-1E+10	1	-1E+10	1
4901784	214	C	05/14/2021	10:44	-135.980	42.952	0	162.50	0	8.3550	0	36.9510	8	28.755	0	161.148	0	188.4	4	67.1	4	-1E+10	1	-1E+10	1	-1E+10	1	-1E+10	1	-1E+10	1	-1E+10	1
4901784	214	C	05/14/2021	10:44	-135.980	42.952	0	165.00	0	8.3190	0	36.9810	8	28.784	0	163.626	0	187.2	4	66.7	4	-1E+10	1	-1E+10	1	-1E+10	1	-1E+10	1	-1E+10	1	-1E+10	1
4901784	214	C	05/14/2021	10:44	-135.980	42.952	0	167.40	0	8.3010	0	37.0030	8	28.804	0	166.005	0	185.8	4	66.1	4	-1E+10	1	-1E+10	1	-1E+10	1	-1E+10	1	-1E+10	1	-1E+10	1
4901784	214	C	05/14/2021	10:44	-135.980	42.952	0	170.00	0	8.2570	0	37.0330	8	28.835	0	168.582	0	183.9	4	65.4	4	-1E+10	1	-1E+10	1	-1E+10	1	-1E+10	1	-1E+10	1	-1E+10	1
4901784	214	C	05/14/2021	10:44	-135.980	42.952	0	172.50	0	8.1980	0	37.0750	8	28.877	0	171.061	0	182.4	4	64.8	4	-1E+10	1	-1E+10	1	-1E+10	1	-1E+10	1	-1E+10	1	-1E+10	1
4901784	214	C	05/14/2021	10:44	-135.980	42.952	0	175.10	0	8.1860	0	37.1270	8	28.920	0	173.638	0	181.1	4	64.4	4	-1E+10	1	-1E+10	1	-1E+10	1	-1E+10	1	-1E+10	1	-1E+10	1
4901784	214	C	05/14/2021	10:44	-135.980	42.952	0	177.80	0	8.1520	0	37.1450	8	28.939	0	176.314	0	180.2	4	64.0	4	-1E+10	1	-1E+10	1	-1E+10	1	-1E+10	1	-1E+10	1	-1E+10	1
4901784	214	C	05/14/2021	10:44	-135.980	42.952	0	181.00	0	8.1040	0	37.1880	8	28.981	0	179.486	0	180.5	4	64.1	4	-1E+10	1	-1E+10	1	-1E+10	1	-1E+10	1	-1E+10	1	-1E+10	1
4901784	214	C	05/14/2021	10:44	-135.980	42.952	0	182.70	0	8.0950	0	37.2310	8	29.016	0	181.171	0	182.0	4	64.6	4	-1E+10	1	-1E+10	1	-1E+10	1	-1E+10	1	-1E+10	1	-1E+10	1
4901784	214	C	05/14/2021	10:44	-135.980	42.952	0	185.00	0	8.1170	0	37.2670	8	29.041	0	183.451	0	182.6	4	64.9	4	-1E+10	1	-1E+10	1	-1E+10	1	-1E+10	1	-1E+10	1	-1E+10	1
4901784	214	C	05/14/2021	10:44	-135.980	42.952	0	187.30	0	8.1180	0	37.2800	8	29.051	0	185.730	0	182.2	4	64.8	4	-1E+10	1	-1E+10	1	-1E+10	1	-1E+10	1	-1E+10	1	-1E+10	1
4901784	214	C	05/14/2021	10:44	-135.980	42.952	0	189.70	0	8.1160	0	37.2820	8	29.053	0	188.109	0	181.3	4	64.4	4	-1E+10	1	-1E+10	1	-1E+10	1	-1E+10	1	-1E+10	1	-1E+10	1
4901784	214	C	05/14/2021	10:44	-135.980	42.952	0	192.80	0	8.0510	0	37.3100	8	29.085	0	191.182	0	179.8	4	63.8	4	-1E+10	1	-1E+10	1	-1E+10	1	-1E+10	1	-1E+10	1	-1E+10	1
4901784	214	C	05/14/2021	10:44	-135.980	42.952	0	195.30	0	7.9990	0	37.3460	8	29.121	0	193.660	0	179.3	4	63.6	4	-1E+10	1	-1E+10	1	-1E+10	1	-1E+10	1	-1E+10	1	-1E+10	1
4901784	214	C	05/14/2021	10:44	-135.980	42.952	0	197.80	0	7.9410	0	37.3660	8	29.146	0	196.137	0	179.3	4	63.5	4	-1E+10	1	-1E+10	1	-1E+10	1	-1E+10	1	-1E+10	1	-1E+10	1
4901784	214	C	05/14/2021	10:44	-135.980	42.952	0	200.40	0	7.9170	0	37.3800	8	29.161	0	198.714	0	179.4	4	63.5	4	-1E+10	1	-1E+10	1	-1E+10	1	-1E+10	1	-1E+10	1	-1E+10	1
4901784	214	C	05/14/2021	10:44	-135.980	42.952	0	202.20	0	7.8850	0	37.3960	8	29.179	0	200.498	0	179.0	4	63.3	4	-1E+10	1	-1E+10	1	-1E+10	1	-1E+10	1	-1E+10	1	-1E+10	1
4901784	214	C	05/14/2021	10:44	-135.980	42.952	0	204.80	0	7.8450	0	37.4070	8	29.193	0	203.075	0	178.1	4	62.9	4	-1E+10	1	-1E+10	1	-1E+10	1	-1E+10	1	-1E+10	1	-1E+10	1
4901784	214	C	05/14/2021	10:44	-135.980	42.952	0	207.30	0	7.8280	0	37.4120	8	29.200	0	205.553	0	177.6	4	62.8	4	-1E+10	1	-1E+10	1	-1E+10	1	-1E+10	1	-1E+10	1	-1E+10	1
4901784	214	C	05/14/2021	10:44	-135.980	42.952	0	210.10	0	7.7690	0	37.4330	8	29.226	0	208.328	0	177.1	4	62.5	4	-1E+10	1	-1E+10	1	-1E+10	1	-1E+10	1	-1E+10	1	-1E+10	1
4901784	214	C	05/14/2021	10:44	-135.980	42.952	0	212.80	0	7.7400	0	37.4420	8	29.237	0	211.004	0	176.6	4	62.3	4	-1E+10	1	-1E+10	1	-1E+10	1	-1E+10	1	-1E+10	1	-1E+10	1
4901784	214	C	05/14/2021	10:44	-135.980	42.952	0	214.50	0	7.7200	0	37.4460	8	29.243	0	212.689	0	176.0	4	62.0	4	-1E+10	1	-1E+10	1	-1E+10	1	-1E+10	1	-1E+10	1	-1E+10	1
4901784	214	C	05/14/2021	10:44	-135.980	42.952	0	217.30	0	7.6960	0	37.4520	8	29.252	0	215.463	0	174.6	4	61.5	4	-1E+10	1	-1E+10	1	-1E+10	1	-1E+10	1	-1E+10	1	-1E+10	1
4901784	214	C	05/14/2021	10:44	-135.980	42.952	0	220.00	0	7.6710	0	37.4550	8	29.258	0	218.139	0	172.6	4	60.8	4	-1E+10	1	-1E+10	1	-1E+10	1	-1E+10	1	-1E+10	1	-1E+10	1
4901784	214	C	05/14/2021	10:44	-135.980	42.952	0	222.70	0	7.6400	0	37.4570	8	29.264	0	220.815	0	170.9	4	60.2	4	-1E+10	1	-1E+10	1	-1E+10	1	-1E+10	1	-1E+10	1	-1E+10	1
4901784	214	C	05/14/2021	10:44	-135.980	42.952	0	225.40	0	7.5890	0	37.4630	8	29.277	0	223.491	0	170.0	4	59.8	4	-1E+10	1	-1E+10	1	-1E+10	1	-1E+10	1	-1E+10	1	-1E+10	1
4901784	214	C	05/14/2021	10:44	-135.980	42.952	0	227.20	0	7.5580	0	37.4680	8	29.286	0	225.274	0	169.2	4	59.5	4	-1E+10	1	-1E+10	1	-1E+10	1	-1E+10	1	-1E+10	1	-1E+10	1
4901784	214	C	05/14/2021	10:44	-135.980	42.952	0	229.80	0	7.5400	0	37.4690	8	29.289	0	227.851	0	167.6	4	58.9	4	-1E+10	1	-1E+10	1	-1E+10	1	-1E+10	1	-1E+10	1	-1E+10	1
4901784	214	C	05/14/2021	10:44	-135.980	42.952	0	232.50	0	7.5310	0	37.4710	8	29.292	0	230.526	0	165.4	4	58.1	4	-1E+10	1	-1E+10	1	-1E+10	1	-1E+10	1	-1E+10	1	-1E+10	1
4901784	214	C	05/14/2021	10:44	-135.980	42.952	0	235.20	0	7.5370	0	37.4720	8	29.292	0	233.202	0	163.2	4	57.3	4	-1E+10	1	-1E+10	1	-1E+10	1	-1E+10	1	-1E+10	1	-1E+10	1
4901784	214	C	05/14/2021	10:44	-135.980	42.952	0	238.00	0	7.5160	0	37.4710	8	29.294	0	235.977	0	161.7	4	56.8	4	-1E+10	1	-1E+10	1	-1E+10	1	-1E+10	1	-1E+10	1	-1E+10	1
4901784	214	C	05/14/2021	10:44	-135.980	42.952	0	239.80	0	7.5070	0	37.4720	8	29.297	0	237.760	0	160.6	4	56.4	4	-1E+10	1	-1E+10	1	-1E+10	1	-1E+10	1	-1E+10	1	-1E+10	1
4901784	214	C	05/14/2021	10:44	-135.980	42.952	0	242.60	0	7.4800	0	37.4650	8	29.295	0	240.535	0	159.1	4	55.8	4	-1E+10	1	-1E+10	1	-1E+10	1	-1E+10	1	-1E+10	1	-1E+10	1
4901784	214	C	05/14/2021	10:44	-135.980	42.952	0	245.30	0	7.4600	0	37.4540	8	29.290	0	243.210	0	157.6	4	55.3	4	-1E+10	1	-1E+10	1	-1E+10	1	-1E+10	1	-1E+10	1	-1E+10	1
4901784	214	C	05/14/2021	10:44	-135.980	42.952	0	247.20	0	7.4260	0	37.4540	8	29.295	0	245.093	0	156.5	4	54.8	4	-1E+10	1	-1E+10	1	-1E+10	1	-1E+10	1	-1E+10	1	-1E+10	1
4901784	214	C	05/14/2021	10:44	-135.980	42.952	0	249.90	0	7.4000	0	37.4550	8	29.299	0	247.768	0	155.5	4	54.5	4	-1E+10	1	-1E+10	1	-1E+10	1	-1E+10	1	-1E+10	1	-1E+10	1
4901784	214	C	05/14/2021	10:44	-135.980	42.952	0	252.70	0	7.3730	0	37.4440	8	29.295	0	250.543	0	154.5	4	54.1	4	-1E+10	1	-1E+10	1	-1E+10	1	-1E+10	1	-1E+10	1	-1E+10	1
4901784	214	C	05/14/2021	10:44	-135.980	42.952	0	254.50	0	7.3440	0	37.4410	8	29.297	0	252.326	0	153.4	4	53.6	4	-1E+10	1	-1E+10	1	-1E+10	1	-1E+10	1	-1E+10	1	-1E+10	1
4901784	214	C	05/14/2021	10:44	-135.980	42.952	0	257.30	0	7.3200	0	37.4200	8	29.284	0	255.101	0	152.1	4	53.1	4	-1E+10	1	-1E+10	1	-1E+10	1	-1E+10	1	-1E+10	1	-1E+10	1
4901784	214	C	05/14/2021	10:44	-135.980	42.952	0	260.10	0	7.2710	0	37.3890	8	29.267	0	257.875	0	151.0	4	52.7	4	-1E+10	1	-1E+10	1	-1E+10	1	-1E+10	1	-1E+10	1	-1E+10	1
4901784	214	C	05/14/2021	10:44	-135.980	42.952	0	262.00	0	7.2570	0	37.3510	8	29.239	0	259.758	0	150.3	4	52.4	4	-1E+10	1	-1E+10	1	-1E+10	1	-1E+10	1	-1E+10	1	-1E+10	1
4901784	214	C	05/14/2021	10:44	-135.980	42.952	0	264.80	0	7.2240	0	37.3100	8	29.211	0	262.532	0	148.7	4	51.8	4	-1E+10	1	-1E+10	1	-1E+10	1	-1E+10	1	-1E+10	1	-1E+10	1
4901784	214	C	05/14/2021	10:44	-135.980	42.952	0	267.60	0	7.2040	8	37.3000	8	29.206	0	265.306	0	147.2	4	51.2	4	-1E+10	1	-1E+10	1	-1E+10	1	-1E+10	1	-1E+10	1	-1E+10	1
4901784	214	C	05/14/2021	10:44	-135.980	42.952	0	269.50	0	7.1890	8	37.1920	8	29.124	0	267.189	0	146.0	4	50.8	4	-1E+10	1	-1E+10	1	-1E+10	1	-1E+10	1	-1E+10	1	-1E+10	1
4901784	214	C	05/14/2021	10:44	-135.980	42.952	0	272.40	0	7.1720	0	37.2190	8	29.147	0	270.062	0	143.7	4	50.0	4	-1E+10	1	-1E+10	1	-1E+10	1	-1E+10	1	-1E+10	1	-1E+10	1
4901784	214	C	05/14/2021	10:44	-135.980	42.952	0	275.20	0	7.1500	0	37.2070	8	29.141	0	272.836	0	140.7	4	48.9	4	-1E+10	1	-1E+10	1	-1E+10	1	-1E+10	1	-1E+10	1	-1E+10	1
4901784	214	C	05/14/2021	10:44	-135.980	42.952	0	277.70	0	7.1330	8	37.1930	8	29.133	0	275.313	0	137.7	4	47.8	4	-1E+10	1	-1E+10	1	-1E+10	1	-1E+10	1	-1E+10	1	-1E+10	1
4901784	214	C	05/14/2021	10:44	-135.980	42.952	0	279.60	0	7.1290	8	37.1240	8	29.079	0	277.195	0	136.2	4	47.3	4	-1E+10	1	-1E+10	1	-1E+10	1	-1E+10	1	-1E+10	1	-1E+10	1
4901784	214	C	05/14/2021	10:44	-135.980	42.952	0	282.10	0	7.1090	0	37.1070	8	29.068	0	279.672	0	136.6	4	47.4	4	-1E+10	1	-1E+10	1	-1E+10	1	-1E+10	1	-1E+10	1	-1E+10	1
4901784	214	C	05/14/2021	10:44	-135.980	42.952	0	285.40	0	7.0220	0	37.0990	8	29.075	0	282.941	0	137.7	4	47.7	4	-1E+10	1	-1E+10	1	-1E+10	1	-1E+10	1	-1E+10	1	-1E+10	1
4901784	214	C	05/14/2021	10:44	-135.980	42.952	0	287.80	0	6.9730	0	37.0950	8	29.079	0	285.319	0	137.4	4	47.5	4	-1E+10	1	-1E+10	1	-1E+10	1	-1E+10	1	-1E+10	1	-1E+10	1
4901784	214	C	05/14/2021	10:44	-135.980	42.952	0	290.10	0	6.9440	0	37.1660	8	29.139	0	287.598	0	135.4	4	46.8	4	-1E+10	1	-1E+10	1	-1E+10	1	-1E+10	1	-1E+10	1	-1E+10	1
4901784	214	C	05/14/2021	10:44	-135.980	42.952	0	292.60	0	6.9310	0	37.1290	8	29.111	0	290.074	0	133.0	4	46.0	4	-1E+10	1	-1E+10	1	-1E+10	1	-1E+10	1	-1E+10	1	-1E+10	1
4901784	214	C	05/14/2021	10:44	-135.980	42.952	0	295.00	0	6.9040	8	37.1470	8	29.130	0	292.452	0	129.2	4	44.6	4	-1E+10	1	-1E+10	1	-1E+10	1	-1E+10	1	-1E+10	1	-1E+10	1
4901784	214	C	05/14/2021	10:44	-135.980	42.952	0	297.40	0	6.8830	8	37.0670	8	29.069	0	294.829	0	125.9	4	43.5	4	-1E+10	1	-1E+10	1	-1E+10	1	-1E+10	1	-1E+10	1	-1E+10	1
4901784	214	C	05/14/2021	10:44	-135.980	42.952	0	299.90	0	6.8630	0	37.0930	8	29.093	0	297.306	0	122.6	4	42.3	4	-1E+10	1	-1E+10	1	-1E+10	1	-1E+10	1	-1E+10	1	-1E+10	1
4901784	214	C	05/14/2021	10:44	-135.980	42.952	0	302.30	0	6.8470	0	37.1330	8	29.127	0	299.683	0	119.3	4	41.2	4	-1E+10	1	-1E+10	1	-1E+10	1	-1E+10	1	-1E+10	1	-1E+10	1
4901784	214	C	05/14/2021	10:44	-135.980	42.952	0	304.70	0	6.8070	0	37.1340	8	29.133	0	302.061	0	116.2	4	40.0	4	-1E+10	1	-1E+10	1	-1E+10	1	-1E+10	1	-1E+10	1	-1E+10	1
4901784	214	C	05/14/2021	10:44	-135.980	42.952	0	307.20	0	6.7650	0	37.1060	8	29.117	0	304.538	0	112.5	4	38.7	4	-1E+10	1	-1E+10	1	-1E+10	1	-1E+10	1	-1E+10	1	-1E+10	1
4901784	214	C	05/14/2021	10:44	-135.980	42.952	0	309.70	0	6.7590	8	37.0800	8	29.098	0	307.014	0	110.8	4	38.1	4	-1E+10	1	-1E+10	1	-1E+10	1	-1E+10	1	-1E+10	1	-1E+10	1
4901784	214	C	05/14/2021	10:44	-135.980	42.952	0	312.10	0	6.7510	8	37.0370	8	29.065	0	309.391	0	110.4	4	38.0	4	-1E+10	1	-1E+10	1	-1E+10	1	-1E+10	1	-1E+10	1	-1E+10	1
4901784	214	C	05/14/2021	10:44	-135.980	42.952	0	314.60	0	6.7190	0	37.1040	8	29.122	0	311.868	0	111.6	4	38.4	4	-1E+10	1	-1E+10	1	-1E+10	1	-1E+10	1	-1E+10	1	-1E+10	1
4901784	214	C	05/14/2021	10:44	-135.980	42.952	0	317.90	0	6.6390	0	37.0520	8	29.092	0	315.137	0	113.8	4	39.1	4	-1E+10	1	-1E+10	1	-1E+10	1	-1E+10	1	-1E+10	1	-1E+10	1
4901784	214	C	05/14/2021	10:44	-135.980	42.952	0	320.40	0	6.5890	0	37.0260	8	29.079	0	317.613	0	115.1	4	39.4	4	-1E+10	1	-1E+10	1	-1E+10	1	-1E+10	1	-1E+10	1	-1E+10	1
4901784	214	C	05/14/2021	10:44	-135.980	42.952	0	322.10	0	6.5530	0	37.0490	8	29.102	0	319.297	0	116.7	4	40.0	4	-1E+10	1	-1E+10	1	-1E+10	1	-1E+10	1	-1E+10	1	-1E+10	1
4901784	214	C	05/14/2021	10:44	-135.980	42.952	0	324.60	0	6.4960	0	37.0130	8	29.082	0	321.773	0	118.5	4	40.5	4	-1E+10	1	-1E+10	1	-1E+10	1	-1E+10	1	-1E+10	1	-1E+10	1
4901784	214	C	05/14/2021	10:44	-135.980	42.952	0	327.10	0	6.4200	0	37.0340	8	29.109	0	324.249	0	119.4	4	40.8	4	-1E+10	1	-1E+10	1	-1E+10	1	-1E+10	1	-1E+10	1	-1E+10	1
4901784	214	C	05/14/2021	10:44	-135.980	42.952	0	329.70	0	6.4100	0	37.0380	8	29.113	0	326.825	0	119.6	4	40.8	4	-1E+10	1	-1E+10	1	-1E+10	1	-1E+10	1	-1E+10	1	-1E+10	1
4901784	214	C	05/14/2021	10:44	-135.980	42.952	0	332.20	0	6.3710	0	37.0380	8	29.119	0	329.301	0	119.4	4	40.7	4	-1E+10	1	-1E+10	1	-1E+10	1	-1E+10	1	-1E+10	1	-1E+10	1
4901784	214	C	05/14/2021	10:44	-135.980	42.952	0	334.80	0	6.3530	0	37.0480	8	29.129	0	331.876	0	118.4	4	40.4	4	-1E+10	1	-1E+10	1	-1E+10	1	-1E+10	1	-1E+10	1	-1E+10	1
4901784	214	C	05/14/2021	10:44	-135.980	42.952	0	337.30	0	6.3040	0	37.0230	8	29.116	0	334.352	0	117.1	4	39.9	4	-1E+10	1	-1E+10	1	-1E+10	1	-1E+10	1	-1E+10	1	-1E+10	1
4901784	214	C	05/14/2021	10:44	-135.980	42.952	0	339.80	0	6.2590	0	37.0060	8	29.109	0	336.828	0	114.8	4	39.0	4	-1E+10	1	-1E+10	1	-1E+10	1	-1E+10	1	-1E+10	1	-1E+10	1
4901784	214	C	05/14/2021	10:44	-135.980	42.952	0	342.40	0	6.1890	0	36.9860	8	29.102	0	339.404	0	112.3	4	38.1	4	-1E+10	1	-1E+10	1	-1E+10	1	-1E+10	1	-1E+10	1	-1E+10	1
4901784	214	C	05/14/2021	10:44	-135.980	42.952	0	345.00	0	6.1720	0	36.9980	8	29.114	0	341.979	0	110.2	4	37.4	4	-1E+10	1	-1E+10	1	-1E+10	1	-1E+10	1	-1E+10	1	-1E+10	1
4901784	214	C	05/14/2021	10:44	-135.980	42.952	0	347.50	0	6.1360	0	36.9970	8	29.118	0	344.455	0	108.3	4	36.7	4	-1E+10	1	-1E+10	1	-1E+10	1	-1E+10	1	-1E+10	1	-1E+10	1
4901784	214	C	05/14/2021	10:44	-135.980	42.952	0	350.10	0	6.1130	0	36.9980	8	29.122	0	347.030	0	107.4	4	36.4	4	-1E+10	1	-1E+10	1	-1E+10	1	-1E+10	1	-1E+10	1	-1E+10	1
4901784	214	C	05/14/2021	10:44	-135.980	42.952	0	352.60	0	6.0880	0	37.0010	8	29.128	0	349.506	0	106.8	4	36.2	4	-1E+10	1	-1E+10	1	-1E+10	1	-1E+10	1	-1E+10	1	-1E+10	1
4901784	214	C	05/14/2021	10:44	-135.980	42.952	0	355.20	0	6.0700	0	36.9890	8	29.121	0	352.081	0	106.4	4	36.0	4	-1E+10	1	-1E+10	1	-1E+10	1	-1E+10	1	-1E+10	1	-1E+10	1
4901784	214	C	05/14/2021	10:44	-135.980	42.952	0	357.80	0	6.0460	0	36.9690	8	29.108	0	354.656	0	106.2	4	35.9	4	-1E+10	1	-1E+10	1	-1E+10	1	-1E+10	1	-1E+10	1	-1E+10	1
4901784	214	C	05/14/2021	10:44	-135.980	42.952	0	359.50	0	6.0380	0	36.9800	8	29.118	0	356.339	0	106.1	4	35.9	4	-1E+10	1	-1E+10	1	-1E+10	1	-1E+10	1	-1E+10	1	-1E+10	1
4901784	214	C	05/14/2021	10:44	-135.980	42.952	0	362.20	0	6.0210	0	36.9930	8	29.131	0	359.013	0	105.8	4	35.8	4	-1E+10	1	-1E+10	1	-1E+10	1	-1E+10	1	-1E+10	1	-1E+10	1
4901784	214	C	05/14/2021	10:44	-135.980	42.952	0	364.80	0	6.0000	0	36.9580	8	29.106	0	361.588	0	105.1	4	35.5	4	-1E+10	1	-1E+10	1	-1E+10	1	-1E+10	1	-1E+10	1	-1E+10	1
4901784	214	C	05/14/2021	10:44	-135.980	42.952	0	367.30	0	5.9640	0	36.9530	8	29.107	0	364.064	0	104.5	4	35.3	4	-1E+10	1	-1E+10	1	-1E+10	1	-1E+10	1	-1E+10	1	-1E+10	1
4901784	214	C	05/14/2021	10:44	-135.980	42.952	0	369.90	0	5.9390	0	36.9560	8	29.112	0	366.639	0	103.8	4	35.0	4	-1E+10	1	-1E+10	1	-1E+10	1	-1E+10	1	-1E+10	1	-1E+10	1
4901784	214	C	05/14/2021	10:44	-135.980	42.952	0	372.50	0	5.8850	0	36.9540	8	29.118	0	369.213	0	102.8	4	34.6	4	-1E+10	1	-1E+10	1	-1E+10	1	-1E+10	1	-1E+10	1	-1E+10	1
4901784	214	C	05/14/2021	10:44	-135.980	42.952	0	375.10	0	5.8500	0	36.9650	8	29.131	0	371.788	0	102.0	4	34.4	4	-1E+10	1	-1E+10	1	-1E+10	1	-1E+10	1	-1E+10	1	-1E+10	1
4901784	214	C	05/14/2021	10:44	-135.980	42.952	0	377.80	0	5.8420	0	36.9510	8	29.121	0	374.462	0	101.3	4	34.1	4	-1E+10	1	-1E+10	1	-1E+10	1	-1E+10	1	-1E+10	1	-1E+10	1
4901784	214	C	05/14/2021	10:44	-135.980	42.952	0	380.50	0	5.8290	0	36.9470	8	29.120	0	377.136	0	100.4	4	33.8	4	-1E+10	1	-1E+10	1	-1E+10	1	-1E+10	1	-1E+10	1	-1E+10	1
4901784	214	C	05/14/2021	10:44	-135.980	42.952	0	382.20	0	5.8110	0	36.9550	8	29.128	0	378.819	0	99.8	4	33.6	4	-1E+10	1	-1E+10	1	-1E+10	1	-1E+10	1	-1E+10	1	-1E+10	1
4901784	214	C	05/14/2021	10:44	-135.980	42.952	0	384.90	0	5.7770	0	36.9460	8	29.126	0	381.493	0	98.7	4	33.2	4	-1E+10	1	-1E+10	1	-1E+10	1	-1E+10	1	-1E+10	1	-1E+10	1
4901784	214	C	05/14/2021	10:44	-135.980	42.952	0	387.60	0	5.7400	0	36.9450	8	29.130	0	384.166	0	97.7	4	32.8	4	-1E+10	1	-1E+10	1	-1E+10	1	-1E+10	1	-1E+10	1	-1E+10	1
4901784	214	C	05/14/2021	10:44	-135.980	42.952	0	390.30	0	5.7160	0	36.9460	8	29.134	0	386.840	0	97.1	4	32.6	4	-1E+10	1	-1E+10	1	-1E+10	1	-1E+10	1	-1E+10	1	-1E+10	1
4901784	214	C	05/14/2021	10:44	-135.980	42.952	0	392.90	0	5.7070	0	36.9450	8	29.134	0	389.414	0	96.4	4	32.3	4	-1E+10	1	-1E+10	1	-1E+10	1	-1E+10	1	-1E+10	1	-1E+10	1
4901784	214	C	05/14/2021	10:44	-135.980	42.952	0	394.70	0	5.7010	0	36.9440	8	29.134	0	391.197	0	95.8	4	32.2	4	-1E+10	1	-1E+10	1	-1E+10	1	-1E+10	1	-1E+10	1	-1E+10	1
4901784	214	C	05/14/2021	10:44	-135.980	42.952	0	397.40	0	5.6810	0	36.9450	8	29.137	0	393.870	0	94.8	4	31.8	4	-1E+10	1	-1E+10	1	-1E+10	1	-1E+10	1	-1E+10	1	-1E+10	1
4901784	214	C	05/14/2021	10:44	-135.980	42.952	0	400.00	0	5.6620	0	36.9430	8	29.138	0	396.444	0	93.6	4	31.4	4	-1E+10	1	-1E+10	1	-1E+10	1	-1E+10	1	-1E+10	1	-1E+10	1
4901784	214	C	05/14/2021	10:44	-135.980	42.952	0	402.70	0	5.6140	0	36.9460	8	29.147	0	399.118	0	92.2	4	30.9	4	-1E+10	1	-1E+10	1	-1E+10	1	-1E+10	1	-1E+10	1	-1E+10	1
4901784	214	C	05/14/2021	10:44	-135.980	42.952	0	405.40	0	5.5520	0	36.9500	8	29.158	0	401.791	0	91.1	4	30.5	4	-1E+10	1	-1E+10	1	-1E+10	1	-1E+10	1	-1E+10	1	-1E+10	1
4901784	214	C	05/14/2021	10:44	-135.980	42.952	0	407.20	0	5.5320	0	36.9550	8	29.165	0	403.573	0	90.5	4	30.3	4	-1E+10	1	-1E+10	1	-1E+10	1	-1E+10	1	-1E+10	1	-1E+10	1
4901784	214	C	05/14/2021	10:44	-135.980	42.952	0	409.90	0	5.5040	0	36.9510	8	29.165	0	406.247	0	89.8	4	30.0	4	-1E+10	1	-1E+10	1	-1E+10	1	-1E+10	1	-1E+10	1	-1E+10	1
4901784	214	C	05/14/2021	10:44	-135.980	42.952	0	412.60	0	5.4660	0	36.9510	8	29.170	0	408.920	0	89.1	4	29.7	4	-1E+10	1	-1E+10	1	-1E+10	1	-1E+10	1	-1E+10	1	-1E+10	1
4901784	214	C	05/14/2021	10:44	-135.980	42.952	0	414.40	0	5.4450	0	36.9510	8	29.172	0	410.702	0	88.5	4	29.5	4	-1E+10	1	-1E+10	1	-1E+10	1	-1E+10	1	-1E+10	1	-1E+10	1
4901784	214	C	05/14/2021	10:44	-135.980	42.952	0	417.20	0	5.3940	0	36.9560	8	29.183	0	413.474	0	87.9	4	29.3	4	-1E+10	1	-1E+10	1	-1E+10	1	-1E+10	1	-1E+10	1	-1E+10	1
4901784	214	C	05/14/2021	10:44	-135.980	42.952	0	419.90	0	5.3730	0	36.9590	8	29.188	0	416.148	0	87.4	4	29.1	4	-1E+10	1	-1E+10	1	-1E+10	1	-1E+10	1	-1E+10	1	-1E+10	1
4901784	214	C	05/14/2021	10:44	-135.980	42.952	0	422.70	0	5.3630	0	36.9590	8	29.189	0	418.920	0	86.9	4	28.9	4	-1E+10	1	-1E+10	1	-1E+10	1	-1E+10	1	-1E+10	1	-1E+10	1
4901784	214	C	05/14/2021	10:44	-135.980	42.952	0	425.50	0	5.3550	0	36.9590	8	29.190	0	421.692	0	86.1	4	28.7	4	-1E+10	1	-1E+10	1	-1E+10	1	-1E+10	1	-1E+10	1	-1E+10	1
4901784	214	C	05/14/2021	10:44	-135.980	42.952	0	427.40	0	5.3390	0	36.9600	8	29.193	0	423.573	0	85.5	4	28.5	4	-1E+10	1	-1E+10	1	-1E+10	1	-1E+10	1	-1E+10	1	-1E+10	1
4901784	214	C	05/14/2021	10:44	-135.980	42.952	0	430.20	0	5.3140	0	36.9620	8	29.198	0	426.345	0	84.4	4	28.1	4	-1E+10	1	-1E+10	1	-1E+10	1	-1E+10	1	-1E+10	1	-1E+10	1
4901784	214	C	05/14/2021	10:44	-135.980	42.952	0	433.10	0	5.2850	0	36.9660	8	29.205	0	429.216	0	83.5	4	27.8	4	-1E+10	1	-1E+10	1	-1E+10	1	-1E+10	1	-1E+10	1	-1E+10	1
4901784	214	C	05/14/2021	10:44	-135.980	42.952	0	435.00	0	5.2750	0	36.9660	8	29.206	0	431.097	0	83.1	4	27.6	4	-1E+10	1	-1E+10	1	-1E+10	1	-1E+10	1	-1E+10	1	-1E+10	1
4901784	214	C	05/14/2021	10:44	-135.980	42.952	0	437.70	0	5.2610	0	36.9670	8	29.208	0	433.770	0	82.0	4	27.2	4	-1E+10	1	-1E+10	1	-1E+10	1	-1E+10	1	-1E+10	1	-1E+10	1
4901784	214	C	05/14/2021	10:44	-135.980	42.952	0	440.50	0	5.2440	0	36.9680	8	29.211	0	436.542	0	80.4	4	26.7	4	-1E+10	1	-1E+10	1	-1E+10	1	-1E+10	1	-1E+10	1	-1E+10	1
4901784	214	C	05/14/2021	10:44	-135.980	42.952	0	442.40	0	5.2270	0	36.9710	8	29.216	0	438.423	0	79.3	4	26.3	4	-1E+10	1	-1E+10	1	-1E+10	1	-1E+10	1	-1E+10	1	-1E+10	1
4901784	214	C	05/14/2021	10:44	-135.980	42.952	0	445.20	0	5.2080	0	36.9740	8	29.221	0	441.195	0	77.4	4	25.7	4	-1E+10	1	-1E+10	1	-1E+10	1	-1E+10	1	-1E+10	1	-1E+10	1
4901784	214	C	05/14/2021	10:44	-135.980	42.952	0	447.90	0	5.2570	0	36.9800	8	29.219	0	443.867	0	75.6	4	25.1	4	-1E+10	1	-1E+10	1	-1E+10	1	-1E+10	1	-1E+10	1	-1E+10	1
4901784	214	C	05/14/2021	10:44	-135.980	42.952	0	449.70	0	5.1920	0	36.9800	8	29.227	0	445.649	0	75.7	4	25.1	4	-1E+10	1	-1E+10	1	-1E+10	1	-1E+10	1	-1E+10	1	-1E+10	1
4901784	214	C	05/14/2021	10:44	-135.980	42.952	0	452.50	0	5.1810	0	36.9810	8	29.230	0	448.421	0	75.8	4	25.1	4	-1E+10	1	-1E+10	1	-1E+10	1	-1E+10	1	-1E+10	1	-1E+10	1
4901784	214	C	05/14/2021	10:44	-135.980	42.952	0	455.20	0	5.1020	0	36.9810	8	29.239	0	451.094	0	76.2	4	25.2	4	-1E+10	1	-1E+10	1	-1E+10	1	-1E+10	1	-1E+10	1	-1E+10	1
4901784	214	C	05/14/2021	10:44	-135.980	42.952	0	457.00	0	5.0870	0	36.9800	8	29.240	0	452.876	0	75.6	4	25.0	4	-1E+10	1	-1E+10	1	-1E+10	1	-1E+10	1	-1E+10	1	-1E+10	1
4901784	214	C	05/14/2021	10:44	-135.980	42.952	0	459.80	0	5.0520	0	36.9850	8	29.249	0	455.647	0	74.7	4	24.7	4	-1E+10	1	-1E+10	1	-1E+10	1	-1E+10	1	-1E+10	1	-1E+10	1
4901784	214	C	05/14/2021	10:44	-135.980	42.952	0	462.60	0	5.0110	0	36.9900	8	29.258	0	458.419	0	73.9	4	24.4	4	-1E+10	1	-1E+10	1	-1E+10	1	-1E+10	1	-1E+10	1	-1E+10	1
4901784	214	C	05/14/2021	10:44	-135.980	42.952	0	464.50	0	5.0020	0	36.9910	8	29.260	0	460.300	0	73.5	4	24.3	4	-1E+10	1	-1E+10	1	-1E+10	1	-1E+10	1	-1E+10	1	-1E+10	1
4901784	214	C	05/14/2021	10:44	-135.980	42.952	0	467.20	0	5.0010	0	36.9910	8	29.260	0	462.972	0	72.6	4	24.0	4	-1E+10	1	-1E+10	1	-1E+10	1	-1E+10	1	-1E+10	1	-1E+10	1
4901784	214	C	05/14/2021	10:44	-135.980	42.952	0	470.00	0	5.0080	0	36.9920	8	29.260	0	465.744	0	71.5	4	23.6	4	-1E+10	1	-1E+10	1	-1E+10	1	-1E+10	1	-1E+10	1	-1E+10	1
4901784	214	C	05/14/2021	10:44	-135.980	42.952	0	471.90	0	4.9850	0	36.9950	8	29.265	0	467.624	0	70.8	4	23.4	4	-1E+10	1	-1E+10	1	-1E+10	1	-1E+10	1	-1E+10	1	-1E+10	1
4901784	214	C	05/14/2021	10:44	-135.980	42.952	0	474.70	0	4.9680	0	36.9970	8	29.268	0	470.396	0	69.4	4	22.9	4	-1E+10	1	-1E+10	1	-1E+10	1	-1E+10	1	-1E+10	1	-1E+10	1
4901784	214	C	05/14/2021	10:44	-135.980	42.952	0	477.40	0	4.9510	0	37.0030	8	29.275	0	473.068	0	67.6	4	22.3	4	-1E+10	1	-1E+10	1	-1E+10	1	-1E+10	1	-1E+10	1	-1E+10	1
4901784	214	C	05/14/2021	10:44	-135.980	42.952	0	480.10	0	4.9690	0	37.0080	8	29.277	0	475.741	0	66.1	4	21.8	4	-1E+10	1	-1E+10	1	-1E+10	1	-1E+10	1	-1E+10	1	-1E+10	1
4901784	214	C	05/14/2021	10:44	-135.980	42.952	0	482.80	0	4.9670	0	37.0070	8	29.277	0	478.413	0	64.9	4	21.4	4	-1E+10	1	-1E+10	1	-1E+10	1	-1E+10	1	-1E+10	1	-1E+10	1
4901784	214	C	05/14/2021	10:44	-135.980	42.952	0	484.60	0	4.9540	0	37.0110	8	29.281	0	480.195	0	63.8	4	21.1	4	-1E+10	1	-1E+10	1	-1E+10	1	-1E+10	1	-1E+10	1	-1E+10	1
4901784	214	C	05/14/2021	10:44	-135.980	42.952	0	487.30	0	4.9330	0	37.0180	8	29.290	0	482.867	0	62.9	4	20.7	4	-1E+10	1	-1E+10	1	-1E+10	1	-1E+10	1	-1E+10	1	-1E+10	1
4901784	214	C	05/14/2021	10:44	-135.980	42.952	0	489.90	0	4.9040	0	37.0170	8	29.292	0	485.440	0	62.3	4	20.5	4	-1E+10	1	-1E+10	1	-1E+10	1	-1E+10	1	-1E+10	1	-1E+10	1
4901784	214	C	05/14/2021	10:44	-135.980	42.952	0	492.70	0	4.8640	0	37.0230	8	29.302	0	488.212	0	61.4	4	20.2	4	-1E+10	1	-1E+10	1	-1E+10	1	-1E+10	1	-1E+10	1	-1E+10	1
4901784	214	C	05/14/2021	10:44	-135.980	42.952	0	495.40	0	4.8180	0	37.0250	8	29.309	0	490.884	0	60.6	4	19.9	4	-1E+10	1	-1E+10	1	-1E+10	1	-1E+10	1	-1E+10	1	-1E+10	1
4901784	214	C	05/14/2021	10:44	-135.980	42.952	0	497.20	0	4.8350	0	37.0290	8	29.310	0	492.665	0	59.4	4	19.6	4	-1E+10	1	-1E+10	1	-1E+10	1	-1E+10	1	-1E+10	1	-1E+10	1
4901784	214	C	05/14/2021	10:44	-135.980	42.952	0	499.90	0	4.8090	0	37.0340	8	29.317	0	495.337	0	58.4	4	19.2	4	-1E+10	1	-1E+10	1	-1E+10	1	-1E+10	1	-1E+10	1	-1E+10	1
4901784	214	C	05/14/2021	10:44	-135.980	42.952	0	504.30	0	4.8060	0	37.0380	8	29.321	0	499.692	0	56.8	4	18.7	4	-1E+10	1	-1E+10	1	-1E+10	1	-1E+10	1	-1E+10	1	-1E+10	1
4901784	214	C	05/14/2021	10:44	-135.980	42.952	0	509.70	0	4.7770	0	37.0440	8	29.329	0	505.036	0	55.0	4	18.1	4	-1E+10	1	-1E+10	1	-1E+10	1	-1E+10	1	-1E+10	1	-1E+10	1
4901784	214	C	05/14/2021	10:44	-135.980	42.952	0	515.10	0	4.7270	0	37.0520	8	29.341	0	510.380	0	53.2	4	17.5	4	-1E+10	1	-1E+10	1	-1E+10	1	-1E+10	1	-1E+10	1	-1E+10	1
4901784	214	C	05/14/2021	10:44	-135.980	42.952	0	520.50	0	4.7370	0	37.0600	8	29.347	0	515.724	0	51.2	4	16.8	4	-1E+10	1	-1E+10	1	-1E+10	1	-1E+10	1	-1E+10	1	-1E+10	1
4901784	214	C	05/14/2021	10:44	-135.980	42.952	0	525.00	0	4.7290	0	37.0640	8	29.351	0	520.177	0	49.7	4	16.3	4	-1E+10	1	-1E+10	1	-1E+10	1	-1E+10	1	-1E+10	1	-1E+10	1
4901784	214	C	05/14/2021	10:44	-135.980	42.952	0	529.50	0	4.7160	0	37.0700	8	29.357	0	524.630	0	48.0	4	15.8	4	-1E+10	1	-1E+10	1	-1E+10	1	-1E+10	1	-1E+10	1	-1E+10	1
4901784	214	C	05/14/2021	10:44	-135.980	42.952	0	534.90	0	4.7030	0	37.0780	8	29.365	0	529.973	0	46.7	4	15.3	4	-1E+10	1	-1E+10	1	-1E+10	1	-1E+10	1	-1E+10	1	-1E+10	1
4901784	214	C	05/14/2021	10:44	-135.980	42.952	0	540.30	0	4.6510	0	37.0820	8	29.374	0	535.317	0	45.7	4	15.0	4	-1E+10	1	-1E+10	1	-1E+10	1	-1E+10	1	-1E+10	1	-1E+10	1
4901784	214	C	05/14/2021	10:44	-135.980	42.952	0	545.60	0	4.6190	0	37.0870	8	29.382	0	540.561	0	44.6	4	14.6	4	-1E+10	1	-1E+10	1	-1E+10	1	-1E+10	1	-1E+10	1	-1E+10	1
4901784	214	C	05/14/2021	10:44	-135.980	42.952	0	550.10	0	4.6060	0	37.0930	8	29.388	0	545.013	0	43.4	4	14.2	4	-1E+10	1	-1E+10	1	-1E+10	1	-1E+10	1	-1E+10	1	-1E+10	1
4901784	214	C	05/14/2021	10:44	-135.980	42.952	0	554.70	0	4.5930	0	37.0980	8	29.394	0	549.565	0	42.2	4	13.8	4	-1E+10	1	-1E+10	1	-1E+10	1	-1E+10	1	-1E+10	1	-1E+10	1
4901784	214	C	05/14/2021	10:44	-135.980	42.952	0	560.20	0	4.5800	0	37.1050	8	29.401	0	555.007	0	40.8	4	13.3	4	-1E+10	1	-1E+10	1	-1E+10	1	-1E+10	1	-1E+10	1	-1E+10	1
4901784	214	C	05/14/2021	10:44	-135.980	42.952	0	565.00	0	4.5560	0	37.1100	8	29.408	0	559.756	0	39.5	4	12.9	4	-1E+10	1	-1E+10	1	-1E+10	1	-1E+10	1	-1E+10	1	-1E+10	1
4901784	214	C	05/14/2021	10:44	-135.980	42.952	0	570.10	0	4.5280	0	37.1180	8	29.418	0	564.801	0	38.1	4	12.4	4	-1E+10	1	-1E+10	1	-1E+10	1	-1E+10	1	-1E+10	1	-1E+10	1
4901784	214	C	05/14/2021	10:44	-135.980	42.952	0	575.60	0	4.4810	0	37.1240	8	29.428	0	570.243	0	37.1	4	12.1	4	-1E+10	1	-1E+10	1	-1E+10	1	-1E+10	1	-1E+10	1	-1E+10	1
4901784	214	C	05/14/2021	10:44	-135.980	42.952	0	580.40	0	4.4560	0	37.1300	8	29.436	0	574.991	0	36.0	4	11.8	4	-1E+10	1	-1E+10	1	-1E+10	1	-1E+10	1	-1E+10	1	-1E+10	1
4901784	214	C	05/14/2021	10:44	-135.980	42.952	0	585.30	0	4.4440	0	37.1350	8	29.441	0	579.839	0	34.7	4	11.3	4	-1E+10	1	-1E+10	1	-1E+10	1	-1E+10	1	-1E+10	1	-1E+10	1
4901784	214	C	05/14/2021	10:44	-135.980	42.952	0	590.30	0	4.4320	0	37.1430	8	29.449	0	584.785	0	32.7	4	10.7	4	-1E+10	1	-1E+10	1	-1E+10	1	-1E+10	1	-1E+10	1	-1E+10	1
4901784	214	C	05/14/2021	10:44	-135.980	42.952	0	595.30	0	4.4520	0	37.1550	8	29.456	0	589.731	0	31.0	4	10.1	4	-1E+10	1	-1E+10	1	-1E+10	1	-1E+10	1	-1E+10	1	-1E+10	1
4901784	214	C	05/14/2021	10:44	-135.980	42.952	0	600.40	0	4.4410	0	37.1600	8	29.461	0	594.776	0	30.0	4	9.8	4	-1E+10	1	-1E+10	1	-1E+10	1	-1E+10	1	-1E+10	1	-1E+10	1
4901784	214	C	05/14/2021	10:44	-135.980	42.952	0	605.60	0	4.4300	0	37.1650	8	29.467	0	599.920	0	29.0	4	9.5	4	-1E+10	1	-1E+10	1	-1E+10	1	-1E+10	1	-1E+10	1	-1E+10	1
4901784	214	C	05/14/2021	10:44	-135.980	42.952	0	610.00	0	4.4090	0	37.1710	8	29.474	0	604.273	0	28.3	4	9.2	4	-1E+10	1	-1E+10	1	-1E+10	1	-1E+10	1	-1E+10	1	-1E+10	1
4901784	214	C	05/14/2021	10:44	-135.980	42.952	0	614.40	0	4.3960	0	37.1760	8	29.479	0	608.625	0	27.5	4	9.0	4	-1E+10	1	-1E+10	1	-1E+10	1	-1E+10	1	-1E+10	1	-1E+10	1
4901784	214	C	05/14/2021	10:44	-135.980	42.952	0	619.80	0	4.3790	0	37.1800	8	29.485	0	613.966	0	26.9	4	8.8	4	-1E+10	1	-1E+10	1	-1E+10	1	-1E+10	1	-1E+10	1	-1E+10	1
4901784	214	C	05/14/2021	10:44	-135.980	42.952	0	625.00	0	4.3710	0	37.1850	8	29.490	0	619.109	0	26.2	4	8.6	4	-1E+10	1	-1E+10	1	-1E+10	1	-1E+10	1	-1E+10	1	-1E+10	1
4901784	214	C	05/14/2021	10:44	-135.980	42.952	0	629.80	0	4.3610	0	37.1900	8	29.495	0	623.857	0	25.6	4	8.3	4	-1E+10	1	-1E+10	1	-1E+10	1	-1E+10	1	-1E+10	1	-1E+10	1
4901784	214	C	05/14/2021	10:44	-135.980	42.952	0	635.10	0	4.3520	0	37.1980	8	29.502	0	629.099	0	24.4	4	8.0	4	-1E+10	1	-1E+10	1	-1E+10	1	-1E+10	1	-1E+10	1	-1E+10	1
4901784	214	C	05/14/2021	10:44	-135.980	42.952	0	639.70	0	4.3440	0	37.2030	8	29.507	0	633.649	0	23.8	4	7.7	4	-1E+10	1	-1E+10	1	-1E+10	1	-1E+10	1	-1E+10	1	-1E+10	1
4901784	214	C	05/14/2021	10:44	-135.980	42.952	0	644.40	0	4.3390	0	37.2080	8	29.512	0	638.297	0	23.1	4	7.5	4	-1E+10	1	-1E+10	1	-1E+10	1	-1E+10	1	-1E+10	1	-1E+10	1
4901784	214	C	05/14/2021	10:44	-135.980	42.952	0	650.00	0	4.3210	0	37.2130	8	29.518	0	643.835	0	22.3	4	7.3	4	-1E+10	1	-1E+10	1	-1E+10	1	-1E+10	1	-1E+10	1	-1E+10	1
4901784	214	C	05/14/2021	10:44	-135.980	42.952	0	655.70	0	4.3180	0	37.2210	8	29.524	0	649.472	0	21.3	4	6.9	4	-1E+10	1	-1E+10	1	-1E+10	1	-1E+10	1	-1E+10	1	-1E+10	1
4901784	214	C	05/14/2021	10:44	-135.980	42.952	0	660.60	0	4.3040	0	37.2240	8	29.529	0	654.318	0	20.8	4	6.8	4	-1E+10	1	-1E+10	1	-1E+10	1	-1E+10	1	-1E+10	1	-1E+10	1
4901784	214	C	05/14/2021	10:44	-135.980	42.952	0	665.60	0	4.2760	0	37.2280	8	29.535	0	659.263	0	20.1	4	6.5	4	-1E+10	1	-1E+10	1	-1E+10	1	-1E+10	1	-1E+10	1	-1E+10	1
4901784	214	C	05/14/2021	10:44	-135.980	42.952	0	670.70	0	4.2540	0	37.2400	8	29.547	0	664.306	0	19.0	4	6.2	4	-1E+10	1	-1E+10	1	-1E+10	1	-1E+10	1	-1E+10	1	-1E+10	1
4901784	214	C	05/14/2021	10:44	-135.980	42.952	0	675.00	0	4.2570	0	37.2490	8	29.554	0	668.558	0	18.4	4	6.0	4	-1E+10	1	-1E+10	1	-1E+10	1	-1E+10	1	-1E+10	1	-1E+10	1
4901784	214	C	05/14/2021	10:44	-135.980	42.952	0	679.30	0	4.2530	0	37.2520	8	29.557	0	672.810	0	18.1	4	5.9	4	-1E+10	1	-1E+10	1	-1E+10	1	-1E+10	1	-1E+10	1	-1E+10	1
4901784	214	C	05/14/2021	10:44	-135.980	42.952	0	684.60	0	4.2400	0	37.2550	8	29.561	0	678.051	0	17.6	4	5.7	4	-1E+10	1	-1E+10	1	-1E+10	1	-1E+10	1	-1E+10	1	-1E+10	1
4901784	214	C	05/14/2021	10:44	-135.980	42.952	0	689.90	0	4.2260	0	37.2590	8	29.565	0	683.291	0	17.1	4	5.5	4	-1E+10	1	-1E+10	1	-1E+10	1	-1E+10	1	-1E+10	1	-1E+10	1
4901784	214	C	05/14/2021	10:44	-135.980	42.952	0	695.30	0	4.1820	0	37.2670	8	29.577	0	688.631	0	16.5	4	5.4	4	-1E+10	1	-1E+10	1	-1E+10	1	-1E+10	1	-1E+10	1	-1E+10	1
4901784	214	C	05/14/2021	10:44	-135.980	42.952	0	699.90	0	4.1630	0	37.2740	8	29.585	0	693.179	0	16.1	4	5.2	4	-1E+10	1	-1E+10	1	-1E+10	1	-1E+10	1	-1E+10	1	-1E+10	1
4901784	214	C	05/14/2021	10:44	-135.980	42.952	0	704.50	0	4.1470	0	37.2800	8	29.591	0	697.727	0	15.8	4	5.1	4	-1E+10	1	-1E+10	1	-1E+10	1	-1E+10	1	-1E+10	1	-1E+10	1
4901784	214	C	05/14/2021	10:44	-135.980	42.952	0	709.90	0	4.1440	0	37.2840	8	29.595	0	703.066	0	15.4	4	5.0	4	-1E+10	1	-1E+10	1	-1E+10	1	-1E+10	1	-1E+10	1	-1E+10	1
4901784	214	C	05/14/2021	10:44	-135.980	42.952	0	715.40	0	4.1420	0	37.2900	8	29.600	0	708.504	0	15.1	4	4.9	4	-1E+10	1	-1E+10	1	-1E+10	1	-1E+10	1	-1E+10	1	-1E+10	1
4901784	214	C	05/14/2021	10:44	-135.980	42.952	0	719.90	0	4.1370	0	37.2910	8	29.601	0	712.953	0	14.8	4	4.8	4	-1E+10	1	-1E+10	1	-1E+10	1	-1E+10	1	-1E+10	1	-1E+10	1
4901784	214	C	05/14/2021	10:44	-135.980	42.952	0	724.50	0	4.1170	0	37.2960	8	29.607	0	717.500	0	14.6	4	4.7	4	-1E+10	1	-1E+10	1	-1E+10	1	-1E+10	1	-1E+10	1	-1E+10	1
4901784	214	C	05/14/2021	10:44	-135.980	42.952	0	730.10	0	4.1000	0	37.3030	8	29.615	0	723.037	0	14.1	4	4.6	4	-1E+10	1	-1E+10	1	-1E+10	1	-1E+10	1	-1E+10	1	-1E+10	1
4901784	214	C	05/14/2021	10:44	-135.980	42.952	0	735.50	0	4.0980	0	37.3100	8	29.621	0	728.375	0	13.8	4	4.5	4	-1E+10	1	-1E+10	1	-1E+10	1	-1E+10	1	-1E+10	1	-1E+10	1
4901784	214	C	05/14/2021	10:44	-135.980	42.952	0	740.10	0	4.0890	0	37.3120	8	29.623	0	732.922	0	13.7	4	4.4	4	-1E+10	1	-1E+10	1	-1E+10	1	-1E+10	1	-1E+10	1	-1E+10	1
4901784	214	C	05/14/2021	10:44	-135.980	42.952	0	744.60	0	4.0730	0	37.3140	8	29.627	0	737.371	0	13.5	4	4.4	4	-1E+10	1	-1E+10	1	-1E+10	1	-1E+10	1	-1E+10	1	-1E+10	1
4901784	214	C	05/14/2021	10:44	-135.980	42.952	0	750.00	0	4.0560	0	37.3180	8	29.632	0	742.709	0	13.2	4	4.3	4	-1E+10	1	-1E+10	1	-1E+10	1	-1E+10	1	-1E+10	1	-1E+10	1
4901784	214	C	05/14/2021	10:44	-135.980	42.952	0	755.40	0	4.0290	0	37.3230	8	29.639	0	748.047	0	12.9	4	4.2	4	-1E+10	1	-1E+10	1	-1E+10	1	-1E+10	1	-1E+10	1	-1E+10	1
4901784	214	C	05/14/2021	10:44	-135.980	42.952	0	760.00	0	4.0170	0	37.3330	8	29.648	0	752.593	0	12.5	4	4.0	4	-1E+10	1	-1E+10	1	-1E+10	1	-1E+10	1	-1E+10	1	-1E+10	1
4901784	214	C	05/14/2021	10:44	-135.980	42.952	0	764.60	0	4.0060	0	37.3390	8	29.654	0	757.140	0	12.2	4	3.9	4	-1E+10	1	-1E+10	1	-1E+10	1	-1E+10	1	-1E+10	1	-1E+10	1
4901784	214	C	05/14/2021	10:44	-135.980	42.952	0	770.20	0	4.0030	0	37.3470	8	29.661	0	762.675	0	11.9	4	3.9	4	-1E+10	1	-1E+10	1	-1E+10	1	-1E+10	1	-1E+10	1	-1E+10	1
4901784	214	C	05/14/2021	10:44	-135.980	42.952	0	774.90	0	3.9970	0	37.3500	8	29.664	0	767.321	0	11.8	4	3.8	4	-1E+10	1	-1E+10	1	-1E+10	1	-1E+10	1	-1E+10	1	-1E+10	1
4901784	214	C	05/14/2021	10:44	-135.980	42.952	0	779.60	0	3.9970	0	37.3530	8	29.667	0	771.966	0	11.6	4	3.7	4	-1E+10	1	-1E+10	1	-1E+10	1	-1E+10	1	-1E+10	1	-1E+10	1
4901784	214	C	05/14/2021	10:44	-135.980	42.952	0	785.30	0	3.9700	0	37.3610	8	29.676	0	777.600	0	11.4	4	3.7	4	-1E+10	1	-1E+10	1	-1E+10	1	-1E+10	1	-1E+10	1	-1E+10	1
4901784	214	C	05/14/2021	10:44	-135.980	42.952	0	790.00	0	3.9910	0	37.3660	8	29.678	0	782.245	0	11.2	4	3.6	4	-1E+10	1	-1E+10	1	-1E+10	1	-1E+10	1	-1E+10	1	-1E+10	1
4901784	214	C	05/14/2021	10:44	-135.980	42.952	0	795.10	0	3.9850	0	37.3700	8	29.682	0	787.285	0	11.0	4	3.6	4	-1E+10	1	-1E+10	1	-1E+10	1	-1E+10	1	-1E+10	1	-1E+10	1
4901784	214	C	05/14/2021	10:44	-135.980	42.952	0	800.20	0	3.9690	0	37.5900	8	29.859	0	792.325	0	10.9	4	3.5	4	-1E+10	1	-1E+10	1	-1E+10	1	-1E+10	1	-1E+10	1	-1E+10	1
4901784	214	C	05/14/2021	10:44	-135.980	42.952	0	805.00	0	3.9610	0	38.0890	8	30.257	0	797.069	0	10.8	4	3.5	4	-1E+10	1	-1E+10	1	-1E+10	1	-1E+10	1	-1E+10	1	-1E+10	1
4901784	214	C	05/14/2021	10:44	-135.980	42.952	0	809.70	0	3.9510	0	38.1160	8	30.280	0	801.714	0	10.8	4	3.5	4	-1E+10	1	-1E+10	1	-1E+10	1	-1E+10	1	-1E+10	1	-1E+10	1
4901784	214	C	05/14/2021	10:44	-135.980	42.952	0	814.50	0	3.9420	0	38.1280	8	30.291	0	806.457	0	10.7	4	3.5	4	-1E+10	1	-1E+10	1	-1E+10	1	-1E+10	1	-1E+10	1	-1E+10	1
4901784	214	C	05/14/2021	10:44	-135.980	42.952	0	819.30	0	3.9230	0	38.1380	8	30.301	0	811.200	0	10.6	4	3.4	4	-1E+10	1	-1E+10	1	-1E+10	1	-1E+10	1	-1E+10	1	-1E+10	1
4901784	214	C	05/14/2021	10:44	-135.980	42.952	0	825.00	0	3.9080	0	38.1500	8	30.312	0	816.833	0	10.5	4	3.4	4	-1E+10	1	-1E+10	1	-1E+10	1	-1E+10	1	-1E+10	1	-1E+10	1
4901784	214	C	05/14/2021	10:44	-135.980	42.952	0	830.80	0	3.9000	0	38.1590	8	30.320	0	822.564	0	10.4	4	3.4	4	-1E+10	1	-1E+10	1	-1E+10	1	-1E+10	1	-1E+10	1	-1E+10	1
4901784	214	C	05/14/2021	10:44	-135.980	42.952	0	835.80	0	3.8950	0	38.1640	8	30.325	0	827.505	0	10.4	4	3.4	4	-1E+10	1	-1E+10	1	-1E+10	1	-1E+10	1	-1E+10	1	-1E+10	1
4901784	214	C	05/14/2021	10:44	-135.980	42.952	0	840.80	0	3.8910	0	38.1690	8	30.329	0	832.445	0	10.3	4	3.3	4	-1E+10	1	-1E+10	1	-1E+10	1	-1E+10	1	-1E+10	1	-1E+10	1
4901784	214	C	05/14/2021	10:44	-135.980	42.952	0	845.80	0	3.8870	0	38.1740	8	30.334	0	837.385	0	10.2	4	3.3	4	-1E+10	1	-1E+10	1	-1E+10	1	-1E+10	1	-1E+10	1	-1E+10	1
4901784	214	C	05/14/2021	10:44	-135.980	42.952	0	850.80	0	3.8780	0	38.1790	8	30.339	0	842.326	0	10.2	4	3.3	4	-1E+10	1	-1E+10	1	-1E+10	1	-1E+10	1	-1E+10	1	-1E+10	1
4901784	214	C	05/14/2021	10:44	-135.980	42.952	0	855.80	0	3.8700	0	38.1840	8	30.344	0	847.266	0	10.2	4	3.3	4	-1E+10	1	-1E+10	1	-1E+10	1	-1E+10	1	-1E+10	1	-1E+10	1
4901784	214	C	05/14/2021	10:44	-135.980	42.952	0	860.00	0	3.8720	0	38.1870	8	30.346	0	851.415	0	10.1	4	3.3	4	-1E+10	1	-1E+10	1	-1E+10	1	-1E+10	1	-1E+10	1	-1E+10	1
4901784	214	C	05/14/2021	10:44	-135.980	42.952	0	864.30	0	3.8700	0	38.1890	8	30.348	0	855.663	0	10.1	4	3.3	4	-1E+10	1	-1E+10	1	-1E+10	1	-1E+10	1	-1E+10	1	-1E+10	1
4901784	214	C	05/14/2021	10:44	-135.980	42.952	0	869.40	0	3.8600	0	38.1930	8	30.352	0	860.702	0	10.0	4	3.3	4	-1E+10	1	-1E+10	1	-1E+10	1	-1E+10	1	-1E+10	1	-1E+10	1
4901784	214	C	05/14/2021	10:44	-135.980	42.952	0	874.60	0	3.8510	0	38.1980	8	30.357	0	865.839	0	10.0	4	3.2	4	-1E+10	1	-1E+10	1	-1E+10	1	-1E+10	1	-1E+10	1	-1E+10	1
4901784	214	C	05/14/2021	10:44	-135.980	42.952	0	879.80	0	3.8460	0	38.2030	8	30.362	0	870.976	0	10.0	4	3.2	4	-1E+10	1	-1E+10	1	-1E+10	1	-1E+10	1	-1E+10	1	-1E+10	1
4901784	214	C	05/14/2021	10:44	-135.980	42.952	0	885.00	0	3.8380	0	38.2060	8	30.365	0	876.113	0	10.0	4	3.2	4	-1E+10	1	-1E+10	1	-1E+10	1	-1E+10	1	-1E+10	1	-1E+10	1
4901784	214	C	05/14/2021	10:44	-135.980	42.952	0	890.30	0	3.8290	0	38.2110	8	30.370	0	881.349	0	9.9	4	3.2	4	-1E+10	1	-1E+10	1	-1E+10	1	-1E+10	1	-1E+10	1	-1E+10	1
4901784	214	C	05/14/2021	10:44	-135.980	42.952	0	895.60	0	3.8240	0	38.2150	8	30.374	0	886.584	0	9.9	4	3.2	4	-1E+10	1	-1E+10	1	-1E+10	1	-1E+10	1	-1E+10	1	-1E+10	1
4901784	214	C	05/14/2021	10:44	-135.980	42.952	0	899.90	0	3.8180	0	38.2200	8	30.379	0	890.832	0	9.9	4	3.2	4	-1E+10	1	-1E+10	1	-1E+10	1	-1E+10	1	-1E+10	1	-1E+10	1
4901784	214	C	05/14/2021	10:44	-135.980	42.952	0	904.30	0	3.8070	0	38.2230	8	30.382	0	895.178	0	9.9	4	3.2	4	-1E+10	1	-1E+10	1	-1E+10	1	-1E+10	1	-1E+10	1	-1E+10	1
4901784	214	C	05/14/2021	10:44	-135.980	42.952	0	909.50	0	3.7950	0	38.2270	8	30.387	0	900.315	0	9.9	4	3.2	4	-1E+10	1	-1E+10	1	-1E+10	1	-1E+10	1	-1E+10	1	-1E+10	1
4901784	214	C	05/14/2021	10:44	-135.980	42.952	0	914.80	0	3.7800	0	38.2320	8	30.392	0	905.550	0	9.9	4	3.2	4	-1E+10	1	-1E+10	1	-1E+10	1	-1E+10	1	-1E+10	1	-1E+10	1
4901784	214	C	05/14/2021	10:44	-135.980	42.952	0	920.20	0	3.7650	0	38.2370	8	30.398	0	910.883	0	9.9	4	3.2	4	-1E+10	1	-1E+10	1	-1E+10	1	-1E+10	1	-1E+10	1	-1E+10	1
4901784	214	C	05/14/2021	10:44	-135.980	42.952	0	924.80	0	3.7520	0	38.2430	8	30.404	0	915.427	0	9.9	4	3.2	4	-1E+10	1	-1E+10	1	-1E+10	1	-1E+10	1	-1E+10	1	-1E+10	1
4901784	214	C	05/14/2021	10:44	-135.980	42.952	0	929.40	0	3.7410	0	38.2490	8	30.410	0	919.970	0	9.9	4	3.2	4	-1E+10	1	-1E+10	1	-1E+10	1	-1E+10	1	-1E+10	1	-1E+10	1
4901784	214	C	05/14/2021	10:44	-135.980	42.952	0	934.80	0	3.7210	0	38.2540	8	30.417	0	925.303	0	10.0	4	3.2	4	-1E+10	1	-1E+10	1	-1E+10	1	-1E+10	1	-1E+10	1	-1E+10	1
4901784	214	C	05/14/2021	10:44	-135.980	42.952	0	940.30	0	3.7000	0	38.2570	8	30.421	0	930.735	0	10.0	4	3.2	4	-1E+10	1	-1E+10	1	-1E+10	1	-1E+10	1	-1E+10	1	-1E+10	1
4901784	214	C	05/14/2021	10:44	-135.980	42.952	0	945.70	0	3.6800	0	38.2600	8	30.426	0	936.068	0	10.0	4	3.2	4	-1E+10	1	-1E+10	1	-1E+10	1	-1E+10	1	-1E+10	1	-1E+10	1
4901784	214	C	05/14/2021	10:44	-135.980	42.952	0	950.30	0	3.6550	0	38.2620	8	30.430	0	940.611	0	10.0	4	3.2	4	-1E+10	1	-1E+10	1	-1E+10	1	-1E+10	1	-1E+10	1	-1E+10	1
4901784	214	C	05/14/2021	10:44	-135.980	42.952	0	954.90	0	3.6300	0	38.2660	8	30.436	0	945.154	0	10.0	4	3.2	4	-1E+10	1	-1E+10	1	-1E+10	1	-1E+10	1	-1E+10	1	-1E+10	1
4901784	214	C	05/14/2021	10:44	-135.980	42.952	0	960.40	0	3.6130	0	38.2680	8	30.440	0	950.585	0	10.0	4	3.2	4	-1E+10	1	-1E+10	1	-1E+10	1	-1E+10	1	-1E+10	1	-1E+10	1
4901784	214	C	05/14/2021	10:44	-135.980	42.952	0	965.00	0	3.5850	0	38.2720	8	30.446	0	955.127	0	10.0	4	3.2	4	-1E+10	1	-1E+10	1	-1E+10	1	-1E+10	1	-1E+10	1	-1E+10	1
4901784	214	C	05/14/2021	10:44	-135.980	42.952	0	969.60	0	3.5780	0	38.2750	8	30.449	0	959.670	0	10.0	4	3.2	4	-1E+10	1	-1E+10	1	-1E+10	1	-1E+10	1	-1E+10	1	-1E+10	1
4901784	214	C	05/14/2021	10:44	-135.980	42.952	0	975.10	0	3.5650	0	38.2770	8	30.452	0	965.101	0	10.0	4	3.2	4	-1E+10	1	-1E+10	1	-1E+10	1	-1E+10	1	-1E+10	1	-1E+10	1
4901784	214	C	05/14/2021	10:44	-135.980	42.952	0	979.80	0	3.5590	0	38.2780	8	30.454	0	969.742	0	10.0	4	3.2	4	-1E+10	1	-1E+10	1	-1E+10	1	-1E+10	1	-1E+10	1	-1E+10	1
4901784	214	C	05/14/2021	10:44	-135.980	42.952	0	984.50	0	3.5400	0	38.2790	8	30.457	0	974.383	0	10.0	4	3.2	4	-1E+10	1	-1E+10	1	-1E+10	1	-1E+10	1	-1E+10	1	-1E+10	1
4901784	214	C	05/14/2021	10:44	-135.980	42.952	0	990.20	0	3.5170	0	38.2830	8	30.462	0	980.011	0	10.1	4	3.2	4	-1E+10	1	-1E+10	1	-1E+10	1	-1E+10	1	-1E+10	1	-1E+10	1
4901784	214	C	05/14/2021	10:44	-135.980	42.952	0	995.00	0	3.5070	0	38.2870	8	30.467	0	984.750	0	10.1	4	3.3	4	-1E+10	1	-1E+10	1	-1E+10	1	-1E+10	1	-1E+10	1	-1E+10	1
4901784	214	C	05/14/2021	10:44	-135.980	42.952	0	999.70	0	3.4940	0	38.2900	8	30.470	0	989.391	0	10.1	4	3.3	4	-1E+10	1	-1E+10	1	-1E+10	1	-1E+10	1	-1E+10	1	-1E+10	1
4901784	214	C	05/14/2021	10:44	-135.980	42.952	0	1005.10	0	3.4830	0	38.2930	8	30.474	0	994.722	0	10.2	4	3.3	4	-1E+10	1	-1E+10	1	-1E+10	1	-1E+10	1	-1E+10	1	-1E+10	1
4901784	214	C	05/14/2021	10:44	-135.980	42.952	0	1009.30	0	3.4750	0	38.2960	8	30.477	0	998.869	0	10.2	4	3.3	4	-1E+10	1	-1E+10	1	-1E+10	1	-1E+10	1	-1E+10	1	-1E+10	1
4901784	214	C	05/14/2021	10:44	-135.980	42.952	0	1015.00	0	3.4690	0	38.2980	8	30.480	0	1004.496	0	10.2	4	3.3	4	-1E+10	1	-1E+10	1	-1E+10	1	-1E+10	1	-1E+10	1	-1E+10	1
4901784	214	C	05/14/2021	10:44	-135.980	42.952	0	1020.80	0	3.4550	0	38.3010	8	30.483	0	1010.222	0	10.2	4	3.3	4	-1E+10	1	-1E+10	1	-1E+10	1	-1E+10	1	-1E+10	1	-1E+10	1
4901784	214	C	05/14/2021	10:44	-135.980	42.952	0	1025.70	0	3.4480	0	38.3030	8	30.486	0	1015.059	0	10.3	4	3.3	4	-1E+10	1	-1E+10	1	-1E+10	1	-1E+10	1	-1E+10	1	-1E+10	1
4901784	214	C	05/14/2021	10:44	-135.980	42.952	0	1030.60	0	3.4400	0	38.3060	8	30.489	0	1019.897	0	10.3	4	3.3	4	-1E+10	1	-1E+10	1	-1E+10	1	-1E+10	1	-1E+10	1	-1E+10	1
4901784	214	C	05/14/2021	10:44	-135.980	42.952	0	1035.60	0	3.4330	0	38.3090	8	30.492	0	1024.833	0	10.4	4	3.3	4	-1E+10	1	-1E+10	1	-1E+10	1	-1E+10	1	-1E+10	1	-1E+10	1
4901784	214	C	05/14/2021	10:44	-135.980	42.952	0	1040.60	0	3.4240	0	38.3110	8	30.495	0	1029.768	0	10.4	4	3.3	4	-1E+10	1	-1E+10	1	-1E+10	1	-1E+10	1	-1E+10	1	-1E+10	1
4901784	214	C	05/14/2021	10:44	-135.980	42.952	0	1045.70	0	3.4120	0	38.3140	8	30.499	0	1034.803	0	10.5	4	3.4	4	-1E+10	1	-1E+10	1	-1E+10	1	-1E+10	1	-1E+10	1	-1E+10	1
4901784	214	C	05/14/2021	10:44	-135.980	42.952	0	1050.70	0	3.3960	0	38.3180	8	30.504	0	1039.738	0	10.6	4	3.4	4	-1E+10	1	-1E+10	1	-1E+10	1	-1E+10	1	-1E+10	1	-1E+10	1
4901784	214	C	05/14/2021	10:44	-135.980	42.952	0	1055.80	0	3.3830	0	38.3220	8	30.508	0	1044.772	0	10.6	4	3.4	4	-1E+10	1	-1E+10	1	-1E+10	1	-1E+10	1	-1E+10	1	-1E+10	1
4901784	214	C	05/14/2021	10:44	-135.980	42.952	0	1060.80	0	3.3740	0	38.3250	8	30.512	0	1049.708	0	10.7	4	3.4	4	-1E+10	1	-1E+10	1	-1E+10	1	-1E+10	1	-1E+10	1	-1E+10	1
4901784	214	C	05/14/2021	10:44	-135.980	42.952	0	1065.00	0	3.3710	0	38.3260	8	30.513	0	1053.853	0	10.7	4	3.4	4	-1E+10	1	-1E+10	1	-1E+10	1	-1E+10	1	-1E+10	1	-1E+10	1
4901784	214	C	05/14/2021	10:44	-135.980	42.952	0	1069.30	0	3.3630	0	38.3290	8	30.516	0	1058.097	0	10.8	4	3.5	4	-1E+10	1	-1E+10	1	-1E+10	1	-1E+10	1	-1E+10	1	-1E+10	1
4901784	214	C	05/14/2021	10:44	-135.980	42.952	0	1074.30	0	3.3570	0	38.3310	8	30.518	0	1063.032	0	10.9	4	3.5	4	-1E+10	1	-1E+10	1	-1E+10	1	-1E+10	1	-1E+10	1	-1E+10	1
4901784	214	C	05/14/2021	10:44	-135.980	42.952	0	1079.30	0	3.3510	0	38.3340	8	30.521	0	1067.967	0	11.0	4	3.5	4	-1E+10	1	-1E+10	1	-1E+10	1	-1E+10	1	-1E+10	1	-1E+10	1
4901784	214	C	05/14/2021	10:44	-135.980	42.952	0	1084.30	0	3.3430	0	38.3360	8	30.524	0	1072.902	0	11.0	4	3.5	4	-1E+10	1	-1E+10	1	-1E+10	1	-1E+10	1	-1E+10	1	-1E+10	1
4901784	214	C	05/14/2021	10:44	-135.980	42.952	0	1089.50	0	3.3320	0	38.3390	8	30.527	0	1078.034	0	11.2	4	3.6	4	-1E+10	1	-1E+10	1	-1E+10	1	-1E+10	1	-1E+10	1	-1E+10	1
4901784	214	C	05/14/2021	10:44	-135.980	42.952	0	1094.60	0	3.3150	0	38.3430	8	30.532	0	1083.067	0	11.2	4	3.6	4	-1E+10	1	-1E+10	1	-1E+10	1	-1E+10	1	-1E+10	1	-1E+10	1
4901784	214	C	05/14/2021	10:44	-135.980	42.952	0	1099.70	0	3.3000	0	38.3460	8	30.536	0	1088.100	0	11.4	4	3.6	4	-1E+10	1	-1E+10	1	-1E+10	1	-1E+10	1	-1E+10	1	-1E+10	1
4901784	214	C	05/14/2021	10:44	-135.980	42.952	0	1104.80	0	3.2820	0	38.3500	8	30.542	0	1093.133	0	11.5	4	3.7	4	-1E+10	1	-1E+10	1	-1E+10	1	-1E+10	1	-1E+10	1	-1E+10	1
4901784	214	C	05/14/2021	10:44	-135.980	42.952	0	1109.90	0	3.2720	0	38.3540	8	30.546	0	1098.166	0	11.6	4	3.7	4	-1E+10	1	-1E+10	1	-1E+10	1	-1E+10	1	-1E+10	1	-1E+10	1
4901784	214	C	05/14/2021	10:44	-135.980	42.952	0	1115.20	0	3.2650	0	38.3560	8	30.548	0	1103.396	0	11.7	4	3.8	4	-1E+10	1	-1E+10	1	-1E+10	1	-1E+10	1	-1E+10	1	-1E+10	1
4901784	214	C	05/14/2021	10:44	-135.980	42.952	0	1119.90	0	3.2530	0	38.3600	8	30.553	0	1108.034	0	11.8	4	3.8	4	-1E+10	1	-1E+10	1	-1E+10	1	-1E+10	1	-1E+10	1	-1E+10	1
4901784	214	C	05/14/2021	10:44	-135.980	42.952	0	1124.60	0	3.2490	0	38.3620	8	30.555	0	1112.671	0	11.9	4	3.8	4	-1E+10	1	-1E+10	1	-1E+10	1	-1E+10	1	-1E+10	1	-1E+10	1
4901784	214	C	05/14/2021	10:44	-135.980	42.952	0	1130.30	0	3.2430	0	38.3630	8	30.556	0	1118.296	0	12.0	4	3.8	4	-1E+10	1	-1E+10	1	-1E+10	1	-1E+10	1	-1E+10	1	-1E+10	1
4901784	214	C	05/14/2021	10:44	-135.980	42.952	0	1135.00	0	3.2340	0	38.3660	8	30.560	0	1122.933	0	12.1	4	3.9	4	-1E+10	1	-1E+10	1	-1E+10	1	-1E+10	1	-1E+10	1	-1E+10	1
4901784	214	C	05/14/2021	10:44	-135.980	42.952	0	1139.60	0	3.2240	0	38.3690	8	30.563	0	1127.472	0	12.2	4	3.9	4	-1E+10	1	-1E+10	1	-1E+10	1	-1E+10	1	-1E+10	1	-1E+10	1
4901784	214	C	05/14/2021	10:44	-135.980	42.952	0	1145.30	0	3.2160	0	38.3710	8	30.565	0	1133.096	0	12.3	4	3.9	4	-1E+10	1	-1E+10	1	-1E+10	1	-1E+10	1	-1E+10	1	-1E+10	1
4901784	214	C	05/14/2021	10:44	-135.980	42.952	0	1150.40	0	3.2060	0	38.3740	8	30.569	0	1138.128	0	12.5	4	4.0	4	-1E+10	1	-1E+10	1	-1E+10	1	-1E+10	1	-1E+10	1	-1E+10	1
4901784	214	C	05/14/2021	10:44	-135.980	42.952	0	1154.40	0	3.1950	0	38.3770	8	30.573	0	1142.074	0	12.5	4	4.0	4	-1E+10	1	-1E+10	1	-1E+10	1	-1E+10	1	-1E+10	1	-1E+10	1
4901784	214	C	05/14/2021	10:44	-135.980	42.952	0	1160.00	0	3.1860	0	38.3800	8	30.576	0	1147.599	0	12.6	4	4.0	4	-1E+10	1	-1E+10	1	-1E+10	1	-1E+10	1	-1E+10	1	-1E+10	1
4901784	214	C	05/14/2021	10:44	-135.980	42.952	0	1165.70	0	3.1770	0	38.3820	8	30.578	0	1153.223	0	12.7	4	4.1	4	-1E+10	1	-1E+10	1	-1E+10	1	-1E+10	1	-1E+10	1	-1E+10	1
4901784	214	C	05/14/2021	10:44	-135.980	42.952	0	1170.70	0	3.1700	0	38.3840	8	30.581	0	1158.155	0	12.8	4	4.1	4	-1E+10	1	-1E+10	1	-1E+10	1	-1E+10	1	-1E+10	1	-1E+10	1
4901784	214	C	05/14/2021	10:44	-135.980	42.952	0	1175.60	0	3.1600	0	38.3860	8	30.583	0	1162.989	0	12.9	4	4.1	4	-1E+10	1	-1E+10	1	-1E+10	1	-1E+10	1	-1E+10	1	-1E+10	1
4901784	214	C	05/14/2021	10:44	-135.980	42.952	0	1180.60	0	3.1510	0	38.3880	8	30.586	0	1167.922	0	13.1	4	4.2	4	-1E+10	1	-1E+10	1	-1E+10	1	-1E+10	1	-1E+10	1	-1E+10	1
4901784	214	C	05/14/2021	10:44	-135.980	42.952	0	1185.60	0	3.1330	0	38.3930	8	30.592	0	1172.854	0	13.2	4	4.2	4	-1E+10	1	-1E+10	1	-1E+10	1	-1E+10	1	-1E+10	1	-1E+10	1
4901784	214	C	05/14/2021	10:44	-135.980	42.952	0	1190.60	0	3.1230	0	38.3950	8	30.595	0	1177.786	0	13.3	4	4.2	4	-1E+10	1	-1E+10	1	-1E+10	1	-1E+10	1	-1E+10	1	-1E+10	1
4901784	214	C	05/14/2021	10:44	-135.980	42.952	0	1195.60	0	3.1200	0	38.3970	8	30.597	0	1182.719	0	13.4	4	4.3	4	-1E+10	1	-1E+10	1	-1E+10	1	-1E+10	1	-1E+10	1	-1E+10	1
4901784	214	C	05/14/2021	10:44	-135.980	42.952	0	1200.70	0	3.1140	0	38.3980	8	30.598	0	1187.749	0	13.5	4	4.3	4	-1E+10	1	-1E+10	1	-1E+10	1	-1E+10	1	-1E+10	1	-1E+10	1
4901784	214	C	05/14/2021	10:44	-135.980	42.952	0	1205.00	0	3.1000	0	38.4010	8	30.602	0	1191.991	0	13.7	4	4.4	4	-1E+10	1	-1E+10	1	-1E+10	1	-1E+10	1	-1E+10	1	-1E+10	1
4901784	214	C	05/14/2021	10:44	-135.980	42.952	0	1209.30	0	3.0920	0	38.4040	8	30.605	0	1196.232	0	13.8	4	4.4	4	-1E+10	1	-1E+10	1	-1E+10	1	-1E+10	1	-1E+10	1	-1E+10	1
4901784	214	C	05/14/2021	10:44	-135.980	42.952	0	1214.60	0	3.0860	0	38.4050	8	30.607	0	1201.460	0	13.8	4	4.4	4	-1E+10	1	-1E+10	1	-1E+10	1	-1E+10	1	-1E+10	1	-1E+10	1
4901784	214	C	05/14/2021	10:44	-135.980	42.952	0	1219.80	0	3.0780	0	38.4070	8	30.609	0	1206.589	0	13.9	4	4.4	4	-1E+10	1	-1E+10	1	-1E+10	1	-1E+10	1	-1E+10	1	-1E+10	1
4901784	214	C	05/14/2021	10:44	-135.980	42.952	0	1225.10	0	3.0720	0	38.4090	8	30.611	0	1211.816	0	14.1	4	4.5	4	-1E+10	1	-1E+10	1	-1E+10	1	-1E+10	1	-1E+10	1	-1E+10	1
4901784	214	C	05/14/2021	10:44	-135.980	42.952	0	1230.40	0	3.0630	0	38.4110	8	30.614	0	1217.043	0	14.2	4	4.5	4	-1E+10	1	-1E+10	1	-1E+10	1	-1E+10	1	-1E+10	1	-1E+10	1
4901784	214	C	05/14/2021	10:44	-135.980	42.952	0	1235.60	0	3.0520	0	38.4140	8	30.617	0	1222.171	0	14.3	4	4.6	4	-1E+10	1	-1E+10	1	-1E+10	1	-1E+10	1	-1E+10	1	-1E+10	1
4901784	214	C	05/14/2021	10:44	-135.980	42.952	0	1239.90	0	3.0460	0	38.4160	8	30.620	0	1226.412	0	14.4	4	4.6	4	-1E+10	1	-1E+10	1	-1E+10	1	-1E+10	1	-1E+10	1	-1E+10	1
4901784	214	C	05/14/2021	10:44	-135.980	42.952	0	1245.00	0	3.0390	0	38.4180	8	30.622	0	1231.442	0	14.6	4	4.6	4	-1E+10	1	-1E+10	1	-1E+10	1	-1E+10	1	-1E+10	1	-1E+10	1
4901784	214	C	05/14/2021	10:44	-135.980	42.952	0	1250.60	0	3.0250	0	38.4210	8	30.626	0	1236.964	0	14.8	4	4.7	4	-1E+10	1	-1E+10	1	-1E+10	1	-1E+10	1	-1E+10	1	-1E+10	1
4901784	214	C	05/14/2021	10:44	-135.980	42.952	0	1255.60	0	3.0170	0	38.4220	8	30.627	0	1241.895	0	14.9	4	4.8	4	-1E+10	1	-1E+10	1	-1E+10	1	-1E+10	1	-1E+10	1	-1E+10	1
4901784	214	C	05/14/2021	10:44	-135.980	42.952	0	1260.60	0	3.0000	0	38.4260	8	30.632	0	1246.826	0	15.1	4	4.8	4	-1E+10	1	-1E+10	1	-1E+10	1	-1E+10	1	-1E+10	1	-1E+10	1
4901784	214	C	05/14/2021	10:44	-135.980	42.952	0	1265.50	0	2.9960	0	38.4270	8	30.634	0	1251.658	0	15.2	4	4.8	4	-1E+10	1	-1E+10	1	-1E+10	1	-1E+10	1	-1E+10	1	-1E+10	1
4901784	214	C	05/14/2021	10:44	-135.980	42.952	0	1270.50	0	2.9880	0	38.4290	8	30.636	0	1256.588	0	15.3	4	4.9	4	-1E+10	1	-1E+10	1	-1E+10	1	-1E+10	1	-1E+10	1	-1E+10	1
4901784	214	C	05/14/2021	10:44	-135.980	42.952	0	1275.50	0	2.9770	0	38.4320	8	30.640	0	1261.518	0	15.5	4	4.9	4	-1E+10	1	-1E+10	1	-1E+10	1	-1E+10	1	-1E+10	1	-1E+10	1
4901784	214	C	05/14/2021	10:44	-135.980	42.952	0	1280.50	0	2.9700	0	38.4330	8	30.641	0	1266.449	0	15.7	4	5.0	4	-1E+10	1	-1E+10	1	-1E+10	1	-1E+10	1	-1E+10	1	-1E+10	1
4901784	214	C	05/14/2021	10:44	-135.980	42.952	0	1285.60	0	2.9580	0	38.4360	8	30.645	0	1271.477	0	15.9	4	5.1	4	-1E+10	1	-1E+10	1	-1E+10	1	-1E+10	1	-1E+10	1	-1E+10	1
4901784	214	C	05/14/2021	10:44	-135.980	42.952	0	1290.70	0	2.9470	0	38.4380	8	30.648	0	1276.506	0	16.1	4	5.1	4	-1E+10	1	-1E+10	1	-1E+10	1	-1E+10	1	-1E+10	1	-1E+10	1
4901784	214	C	05/14/2021	10:44	-135.980	42.952	0	1295.00	0	2.9360	0	38.4390	8	30.650	0	1280.745	0	16.3	4	5.2	4	-1E+10	1	-1E+10	1	-1E+10	1	-1E+10	1	-1E+10	1	-1E+10	1
4901784	214	C	05/14/2021	10:44	-135.980	42.952	0	1299.30	0	2.9190	0	38.4440	8	30.655	0	1284.985	0	16.5	4	5.3	4	-1E+10	1	-1E+10	1	-1E+10	1	-1E+10	1	-1E+10	1	-1E+10	1
4901784	214	C	05/14/2021	10:44	-135.980	42.952	0	1304.40	0	2.9080	0	38.4460	8	30.658	0	1290.013	0	16.7	4	5.3	4	-1E+10	1	-1E+10	1	-1E+10	1	-1E+10	1	-1E+10	1	-1E+10	1
4901784	214	C	05/14/2021	10:44	-135.980	42.952	0	1309.50	0	2.8990	0	38.4490	8	30.661	0	1295.041	0	16.9	4	5.4	4	-1E+10	1	-1E+10	1	-1E+10	1	-1E+10	1	-1E+10	1	-1E+10	1
4901784	214	C	05/14/2021	10:44	-135.980	42.952	0	1314.60	0	2.8930	0	38.4500	8	30.663	0	1300.069	0	17.1	4	5.4	4	-1E+10	1	-1E+10	1	-1E+10	1	-1E+10	1	-1E+10	1	-1E+10	1
4901784	214	C	05/14/2021	10:44	-135.980	42.952	0	1319.90	0	2.8810	0	38.4520	8	30.666	0	1305.294	0	17.4	4	5.5	4	-1E+10	1	-1E+10	1	-1E+10	1	-1E+10	1	-1E+10	1	-1E+10	1
4901784	214	C	05/14/2021	10:44	-135.980	42.952	0	1325.20	0	2.8610	0	38.4550	8	30.670	0	1310.519	0	17.7	4	5.6	4	-1E+10	1	-1E+10	1	-1E+10	1	-1E+10	1	-1E+10	1	-1E+10	1
4901784	214	C	05/14/2021	10:44	-135.980	42.952	0	1330.40	0	2.8480	0	38.4590	8	30.675	0	1315.645	0	17.9	4	5.7	4	-1E+10	1	-1E+10	1	-1E+10	1	-1E+10	1	-1E+10	1	-1E+10	1
4901784	214	C	05/14/2021	10:44	-135.980	42.952	0	1335.60	0	2.8410	0	38.4600	8	30.676	0	1320.771	0	18.1	4	5.8	4	-1E+10	1	-1E+10	1	-1E+10	1	-1E+10	1	-1E+10	1	-1E+10	1
4901784	214	C	05/14/2021	10:44	-135.980	42.952	0	1339.90	0	2.8280	0	38.4630	8	30.680	0	1325.010	0	18.4	4	5.8	4	-1E+10	1	-1E+10	1	-1E+10	1	-1E+10	1	-1E+10	1	-1E+10	1
4901784	214	C	05/14/2021	10:44	-135.980	42.952	0	1344.30	0	2.8180	0	38.4650	8	30.682	0	1329.347	0	18.6	4	5.9	4	-1E+10	1	-1E+10	1	-1E+10	1	-1E+10	1	-1E+10	1	-1E+10	1
4901784	214	C	05/14/2021	10:44	-135.980	42.952	0	1349.60	0	2.8090	0	38.4670	8	30.685	0	1334.571	0	18.8	4	6.0	4	-1E+10	1	-1E+10	1	-1E+10	1	-1E+10	1	-1E+10	1	-1E+10	1
4901784	214	C	05/14/2021	10:44	-135.980	42.952	0	1354.80	0	2.7970	0	38.4690	8	30.688	0	1339.697	0	19.1	4	6.0	4	-1E+10	1	-1E+10	1	-1E+10	1	-1E+10	1	-1E+10	1	-1E+10	1
4901784	214	C	05/14/2021	10:44	-135.980	42.952	0	1360.10	0	2.7880	0	38.4720	8	30.691	0	1344.921	0	19.3	4	6.1	4	-1E+10	1	-1E+10	1	-1E+10	1	-1E+10	1	-1E+10	1	-1E+10	1
4901784	214	C	05/14/2021	10:44	-135.980	42.952	0	1365.50	0	2.7790	0	38.4740	8	30.694	0	1350.244	0	19.6	4	6.2	4	-1E+10	1	-1E+10	1	-1E+10	1	-1E+10	1	-1E+10	1	-1E+10	1
4901784	214	C	05/14/2021	10:44	-135.980	42.952	0	1370.00	0	2.7710	0	38.4750	8	30.695	0	1354.679	0	19.8	4	6.3	4	-1E+10	1	-1E+10	1	-1E+10	1	-1E+10	1	-1E+10	1	-1E+10	1
4901784	214	C	05/14/2021	10:44	-135.980	42.952	0	1374.60	0	2.7570	0	38.4780	8	30.699	0	1359.213	0	20.0	4	6.3	4	-1E+10	1	-1E+10	1	-1E+10	1	-1E+10	1	-1E+10	1	-1E+10	1
4901784	214	C	05/14/2021	10:44	-135.980	42.952	0	1380.00	0	2.7480	0	38.4800	8	30.702	0	1364.535	0	20.2	4	6.4	4	-1E+10	1	-1E+10	1	-1E+10	1	-1E+10	1	-1E+10	1	-1E+10	1
4901784	214	C	05/14/2021	10:44	-135.980	42.952	0	1385.40	0	2.7390	0	38.4820	8	30.704	0	1369.857	0	20.4	4	6.5	4	-1E+10	1	-1E+10	1	-1E+10	1	-1E+10	1	-1E+10	1	-1E+10	1
4901784	214	C	05/14/2021	10:44	-135.980	42.952	0	1390.00	0	2.7340	0	38.4830	8	30.705	0	1374.390	0	20.6	4	6.5	4	-1E+10	1	-1E+10	1	-1E+10	1	-1E+10	1	-1E+10	1	-1E+10	1
4901784	214	C	05/14/2021	10:44	-135.980	42.952	0	1394.50	0	2.7260	0	38.4850	8	30.708	0	1378.825	0	20.9	4	6.6	4	-1E+10	1	-1E+10	1	-1E+10	1	-1E+10	1	-1E+10	1	-1E+10	1
4901784	214	C	05/14/2021	10:44	-135.980	42.952	0	1400.00	0	2.7070	0	38.4880	8	30.712	0	1384.245	0	21.3	4	6.7	4	-1E+10	1	-1E+10	1	-1E+10	1	-1E+10	1	-1E+10	1	-1E+10	1
4901784	214	C	05/14/2021	10:44	-135.980	42.952	0	1405.50	0	2.6970	0	38.4910	8	30.716	0	1389.665	0	21.5	4	6.8	4	-1E+10	1	-1E+10	1	-1E+10	1	-1E+10	1	-1E+10	1	-1E+10	1
4901784	214	C	05/14/2021	10:44	-135.980	42.952	0	1410.10	0	2.6920	0	38.4920	8	30.717	0	1394.198	0	21.7	4	6.9	4	-1E+10	1	-1E+10	1	-1E+10	1	-1E+10	1	-1E+10	1	-1E+10	1
4901784	214	C	05/14/2021	10:44	-135.980	42.952	0	1414.70	0	2.6850	0	38.4930	8	30.718	0	1398.731	0	21.9	4	6.9	4	-1E+10	1	-1E+10	1	-1E+10	1	-1E+10	1	-1E+10	1	-1E+10	1
4901784	214	C	05/14/2021	10:44	-135.980	42.952	0	1419.90	0	2.6690	0	38.4970	8	30.723	0	1403.855	0	22.3	4	7.0	4	-1E+10	1	-1E+10	1	-1E+10	1	-1E+10	1	-1E+10	1	-1E+10	1
4901784	214	C	05/14/2021	10:44	-135.980	42.952	0	1425.00	0	2.6640	0	38.4980	8	30.724	0	1408.880	0	22.4	4	7.1	4	-1E+10	1	-1E+10	1	-1E+10	1	-1E+10	1	-1E+10	1	-1E+10	1
4901784	214	C	05/14/2021	10:44	-135.980	42.952	0	1430.70	0	2.6530	0	38.5000	8	30.727	0	1414.497	0	22.8	4	7.2	4	-1E+10	1	-1E+10	1	-1E+10	1	-1E+10	1	-1E+10	1	-1E+10	1
4901784	214	C	05/14/2021	10:44	-135.980	42.952	0	1435.50	0	2.6430	0	38.5020	8	30.730	0	1419.226	0	23.1	4	7.3	4	-1E+10	1	-1E+10	1	-1E+10	1	-1E+10	1	-1E+10	1	-1E+10	1
4901784	214	C	05/14/2021	10:44	-135.980	42.952	0	1440.40	0	2.6340	0	38.5040	8	30.732	0	1424.054	0	23.3	4	7.4	4	-1E+10	1	-1E+10	1	-1E+10	1	-1E+10	1	-1E+10	1	-1E+10	1
4901784	214	C	05/14/2021	10:44	-135.980	42.952	0	1445.40	0	2.6240	0	38.5060	8	30.735	0	1428.980	0	23.6	4	7.4	4	-1E+10	1	-1E+10	1	-1E+10	1	-1E+10	1	-1E+10	1	-1E+10	1
4901784	214	C	05/14/2021	10:44	-135.980	42.952	0	1450.40	0	2.6180	0	38.5080	8	30.737	0	1433.907	0	23.8	4	7.5	4	-1E+10	1	-1E+10	1	-1E+10	1	-1E+10	1	-1E+10	1	-1E+10	1
4901784	214	C	05/14/2021	10:44	-135.980	42.952	0	1455.40	0	2.6090	0	38.5100	8	30.740	0	1438.833	0	24.1	4	7.6	4	-1E+10	1	-1E+10	1	-1E+10	1	-1E+10	1	-1E+10	1	-1E+10	1
4901784	214	C	05/14/2021	10:44	-135.980	42.952	0	1460.50	0	2.5960	0	38.5130	8	30.743	0	1443.857	0	24.4	4	7.7	4	-1E+10	1	-1E+10	1	-1E+10	1	-1E+10	1	-1E+10	1	-1E+10	1
4901784	214	C	05/14/2021	10:44	-135.980	42.952	0	1465.70	0	2.5920	0	38.5140	8	30.745	0	1448.980	0	24.6	4	7.7	4	-1E+10	1	-1E+10	1	-1E+10	1	-1E+10	1	-1E+10	1	-1E+10	1
4901784	214	C	05/14/2021	10:44	-135.980	42.952	0	1470.80	0	2.5860	0	38.5150	8	30.746	0	1454.005	0	24.8	4	7.8	4	-1E+10	1	-1E+10	1	-1E+10	1	-1E+10	1	-1E+10	1	-1E+10	1
4901784	214	C	05/14/2021	10:44	-135.980	42.952	0	1475.10	0	2.5800	0	38.5170	8	30.748	0	1458.241	0	25.1	4	7.9	4	-1E+10	1	-1E+10	1	-1E+10	1	-1E+10	1	-1E+10	1	-1E+10	1
4901784	214	C	05/14/2021	10:44	-135.980	42.952	0	1479.40	0	2.5710	0	38.5180	8	30.750	0	1462.477	0	25.4	4	8.0	4	-1E+10	1	-1E+10	1	-1E+10	1	-1E+10	1	-1E+10	1	-1E+10	1
4901784	214	C	05/14/2021	10:44	-135.980	42.952	0	1484.50	0	2.5580	0	38.5210	8	30.754	0	1467.500	0	25.9	4	8.1	4	-1E+10	1	-1E+10	1	-1E+10	1	-1E+10	1	-1E+10	1	-1E+10	1
4901784	214	C	05/14/2021	10:44	-135.980	42.952	0	1489.70	0	2.5440	0	38.5240	8	30.757	0	1472.623	0	26.2	4	8.3	4	-1E+10	1	-1E+10	1	-1E+10	1	-1E+10	1	-1E+10	1	-1E+10	1
4901784	214	C	05/14/2021	10:44	-135.980	42.952	0	1494.90	0	2.5340	0	38.5260	8	30.760	0	1477.745	0	26.5	4	8.3	4	-1E+10	1	-1E+10	1	-1E+10	1	-1E+10	1	-1E+10	1	-1E+10	1
4901784	214	C	05/14/2021	10:44	-135.980	42.952	0	1500.20	0	2.5270	0	38.5280	8	30.762	0	1482.966	0	26.7	4	8.4	4	-1E+10	1	-1E+10	1	-1E+10	1	-1E+10	1	-1E+10	1	-1E+10	1
4901784	214	C	05/14/2021	10:44	-135.980	42.952	0	1505.40	0	2.5230	0	38.5290	8	30.763	0	1488.088	0	26.9	4	8.5	4	-1E+10	1	-1E+10	1	-1E+10	1	-1E+10	1	-1E+10	1	-1E+10	1
4901784	214	C	05/14/2021	10:44	-135.980	42.952	0	1509.80	0	2.5190	0	38.5300	8	30.765	0	1492.422	0	27.1	4	8.5	4	-1E+10	1	-1E+10	1	-1E+10	1	-1E+10	1	-1E+10	1	-1E+10	1
4901784	214	C	05/14/2021	10:44	-135.980	42.952	0	1514.30	0	2.5120	0	38.5310	8	30.766	0	1496.854	0	27.4	4	8.6	4	-1E+10	1	-1E+10	1	-1E+10	1	-1E+10	1	-1E+10	1	-1E+10	1
4901784	214	C	05/14/2021	10:44	-135.980	42.952	0	1519.50	0	2.4940	0	38.5330	8	30.769	0	1501.975	0	27.9	4	8.8	4	-1E+10	1	-1E+10	1	-1E+10	1	-1E+10	1	-1E+10	1	-1E+10	1
4901784	214	C	05/14/2021	10:44	-135.980	42.952	0	1524.70	0	2.4810	0	38.5360	8	30.773	0	1507.097	0	28.3	4	8.9	4	-1E+10	1	-1E+10	1	-1E+10	1	-1E+10	1	-1E+10	1	-1E+10	1
4901784	214	C	05/14/2021	10:44	-135.980	42.952	0	1530.00	0	2.4730	0	38.5370	8	30.775	0	1512.317	0	28.6	4	9.0	4	-1E+10	1	-1E+10	1	-1E+10	1	-1E+10	1	-1E+10	1	-1E+10	1
4901784	214	C	05/14/2021	10:44	-135.980	42.952	0	1535.20	0	2.4590	0	38.5400	8	30.779	0	1517.438	0	29.1	4	9.2	4	-1E+10	1	-1E+10	1	-1E+10	1	-1E+10	1	-1E+10	1	-1E+10	1
4901784	214	C	05/14/2021	10:44	-135.980	42.952	0	1540.50	0	2.4460	0	38.5430	8	30.782	0	1522.658	0	29.4	4	9.2	4	-1E+10	1	-1E+10	1	-1E+10	1	-1E+10	1	-1E+10	1	-1E+10	1
4901784	214	C	05/14/2021	10:44	-135.980	42.952	0	1544.90	0	2.4420	0	38.5440	8	30.783	0	1526.991	0	29.6	4	9.3	4	-1E+10	1	-1E+10	1	-1E+10	1	-1E+10	1	-1E+10	1	-1E+10	1
4901784	214	C	05/14/2021	10:44	-135.980	42.952	0	1549.40	0	2.4360	0	38.5450	8	30.785	0	1531.422	0	29.9	4	9.4	4	-1E+10	1	-1E+10	1	-1E+10	1	-1E+10	1	-1E+10	1	-1E+10	1
4901784	214	C	05/14/2021	10:44	-135.980	42.952	0	1554.80	0	2.4260	0	38.5470	8	30.787	0	1536.740	0	30.3	4	9.5	4	-1E+10	1	-1E+10	1	-1E+10	1	-1E+10	1	-1E+10	1	-1E+10	1
4901784	214	C	05/14/2021	10:44	-135.980	42.952	0	1560.20	0	2.4170	0	38.5490	8	30.790	0	1542.058	0	30.6	4	9.6	4	-1E+10	1	-1E+10	1	-1E+10	1	-1E+10	1	-1E+10	1	-1E+10	1
4901784	214	C	05/14/2021	10:44	-135.980	42.952	0	1564.70	0	2.4110	0	38.5510	8	30.792	0	1546.489	0	30.8	4	9.7	4	-1E+10	1	-1E+10	1	-1E+10	1	-1E+10	1	-1E+10	1	-1E+10	1
4901784	214	C	05/14/2021	10:44	-135.980	42.952	0	1569.30	0	2.4050	0	38.5510	8	30.793	0	1551.019	0	31.1	4	9.8	4	-1E+10	1	-1E+10	1	-1E+10	1	-1E+10	1	-1E+10	1	-1E+10	1
4901784	214	C	05/14/2021	10:44	-135.980	42.952	0	1575.40	0	2.3940	0	38.5540	8	30.796	0	1557.025	0	31.5	4	9.9	4	-1E+10	1	-1E+10	1	-1E+10	1	-1E+10	1	-1E+10	1	-1E+10	1
4901784	214	C	05/14/2021	10:44	-135.980	42.952	0	1580.50	0	2.3850	0	38.5560	8	30.799	0	1562.047	0	31.9	4	10.0	4	-1E+10	1	-1E+10	1	-1E+10	1	-1E+10	1	-1E+10	1	-1E+10	1
4901784	214	C	05/14/2021	10:44	-135.980	42.952	0	1585.30	0	2.3750	0	38.5590	8	30.802	0	1566.773	0	32.2	4	10.1	4	-1E+10	1	-1E+10	1	-1E+10	1	-1E+10	1	-1E+10	1	-1E+10	1
4901784	214	C	05/14/2021	10:44	-135.980	42.952	0	1590.20	0	2.3700	0	38.5600	8	30.803	0	1571.597	0	32.5	4	10.2	4	-1E+10	1	-1E+10	1	-1E+10	1	-1E+10	1	-1E+10	1	-1E+10	1
4901784	214	C	05/14/2021	10:44	-135.980	42.952	0	1595.10	0	2.3620	0	38.5610	8	30.805	0	1576.422	0	32.7	4	10.3	4	-1E+10	1	-1E+10	1	-1E+10	1	-1E+10	1	-1E+10	1	-1E+10	1
4901784	214	C	05/14/2021	10:44	-135.980	42.952	0	1600.00	0	2.3560	0	38.5630	8	30.807	0	1581.246	0	33.0	4	10.3	4	-1E+10	1	-1E+10	1	-1E+10	1	-1E+10	1	-1E+10	1	-1E+10	1
4901784	214	C	05/14/2021	10:44	-135.980	42.952	0	1605.00	0	2.3480	0	38.5650	8	30.809	0	1586.169	0	33.3	4	10.4	4	-1E+10	1	-1E+10	1	-1E+10	1	-1E+10	1	-1E+10	1	-1E+10	1
4901784	214	C	05/14/2021	10:44	-135.980	42.952	0	1610.00	0	2.3430	0	38.5660	8	30.811	0	1591.091	0	33.6	4	10.5	4	-1E+10	1	-1E+10	1	-1E+10	1	-1E+10	1	-1E+10	1	-1E+10	1
4901784	214	C	05/14/2021	10:44	-135.980	42.952	0	1615.00	0	2.3330	0	38.5680	8	30.813	0	1596.014	0	33.9	4	10.6	4	-1E+10	1	-1E+10	1	-1E+10	1	-1E+10	1	-1E+10	1	-1E+10	1
4901784	214	C	05/14/2021	10:44	-135.980	42.952	0	1620.10	0	2.3270	0	38.5700	8	30.816	0	1601.035	0	34.1	4	10.7	4	-1E+10	1	-1E+10	1	-1E+10	1	-1E+10	1	-1E+10	1	-1E+10	1
4901784	214	C	05/14/2021	10:44	-135.980	42.952	0	1625.10	0	2.3250	0	38.5710	8	30.817	0	1605.957	0	34.2	4	10.7	4	-1E+10	1	-1E+10	1	-1E+10	1	-1E+10	1	-1E+10	1	-1E+10	1
4901784	214	C	05/14/2021	10:44	-135.980	42.952	0	1630.20	0	2.3230	0	38.5720	8	30.818	0	1610.977	0	34.4	4	10.8	4	-1E+10	1	-1E+10	1	-1E+10	1	-1E+10	1	-1E+10	1	-1E+10	1
4901784	214	C	05/14/2021	10:44	-135.980	42.952	0	1635.20	0	2.3170	0	38.5730	8	30.819	0	1615.899	0	34.7	4	10.9	4	-1E+10	1	-1E+10	1	-1E+10	1	-1E+10	1	-1E+10	1	-1E+10	1
4901784	214	C	05/14/2021	10:44	-135.980	42.952	0	1640.30	0	2.3120	0	38.5740	8	30.820	0	1620.920	0	34.9	4	10.9	4	-1E+10	1	-1E+10	1	-1E+10	1	-1E+10	1	-1E+10	1	-1E+10	1
4901784	214	C	05/14/2021	10:44	-135.980	42.952	0	1645.40	0	2.3070	0	38.5760	8	30.822	0	1625.940	0	35.2	4	11.0	4	-1E+10	1	-1E+10	1	-1E+10	1	-1E+10	1	-1E+10	1	-1E+10	1
4901784	214	C	05/14/2021	10:44	-135.980	42.952	0	1650.50	0	2.2980	0	38.5780	8	30.825	0	1630.960	0	35.6	4	11.1	4	-1E+10	1	-1E+10	1	-1E+10	1	-1E+10	1	-1E+10	1	-1E+10	1
4901784	214	C	05/14/2021	10:44	-135.980	42.952	0	1655.70	0	2.2900	0	38.5790	8	30.826	0	1636.078	0	36.0	4	11.3	4	-1E+10	1	-1E+10	1	-1E+10	1	-1E+10	1	-1E+10	1	-1E+10	1
4901784	214	C	05/14/2021	10:44	-135.980	42.952	0	1660.00	0	2.2830	0	38.5810	8	30.829	0	1640.311	0	36.3	4	11.4	4	-1E+10	1	-1E+10	1	-1E+10	1	-1E+10	1	-1E+10	1	-1E+10	1
4901784	214	C	05/14/2021	10:44	-135.980	42.952	0	1664.30	0	2.2770	0	38.5820	8	30.830	0	1644.543	0	36.6	4	11.5	4	-1E+10	1	-1E+10	1	-1E+10	1	-1E+10	1	-1E+10	1	-1E+10	1
4901784	214	C	05/14/2021	10:44	-135.980	42.952	0	1669.60	0	2.2680	0	38.5840	8	30.833	0	1649.760	0	37.0	4	11.6	4	-1E+10	1	-1E+10	1	-1E+10	1	-1E+10	1	-1E+10	1	-1E+10	1
4901784	214	C	05/14/2021	10:44	-135.980	42.952	0	1674.90	0	2.2600	0	38.5860	8	30.835	0	1654.976	0	37.2	4	11.6	4	-1E+10	1	-1E+10	1	-1E+10	1	-1E+10	1	-1E+10	1	-1E+10	1
4901784	214	C	05/14/2021	10:44	-135.980	42.952	0	1680.20	0	2.2550	0	38.5880	8	30.837	0	1660.192	0	37.6	4	11.8	4	-1E+10	1	-1E+10	1	-1E+10	1	-1E+10	1	-1E+10	1	-1E+10	1
4901784	214	C	05/14/2021	10:44	-135.980	42.952	0	1685.50	0	2.2510	0	38.5890	8	30.838	0	1665.408	0	37.9	4	11.9	4	-1E+10	1	-1E+10	1	-1E+10	1	-1E+10	1	-1E+10	1	-1E+10	1
4901784	214	C	05/14/2021	10:44	-135.980	42.952	0	1689.90	0	2.2490	0	38.5890	8	30.838	0	1669.738	0	38.2	4	12.0	4	-1E+10	1	-1E+10	1	-1E+10	1	-1E+10	1	-1E+10	1	-1E+10	1
4901784	214	C	05/14/2021	10:44	-135.980	42.952	0	1694.40	0	2.2410	0	38.5910	8	30.841	0	1674.167	0	38.7	4	12.1	4	-1E+10	1	-1E+10	1	-1E+10	1	-1E+10	1	-1E+10	1	-1E+10	1
4901784	214	C	05/14/2021	10:44	-135.980	42.952	0	1699.80	0	2.2280	0	38.5940	8	30.844	0	1679.481	0	39.1	4	12.2	4	-1E+10	1	-1E+10	1	-1E+10	1	-1E+10	1	-1E+10	1	-1E+10	1
4901784	214	C	05/14/2021	10:44	-135.980	42.952	0	1705.10	0	2.2240	0	38.5950	8	30.846	0	1684.697	0	39.3	4	12.3	4	-1E+10	1	-1E+10	1	-1E+10	1	-1E+10	1	-1E+10	1	-1E+10	1
4901784	214	C	05/14/2021	10:44	-135.980	42.952	0	1710.10	0	2.2160	0	38.5970	8	30.848	0	1689.617	0	39.6	4	12.4	4	-1E+10	1	-1E+10	1	-1E+10	1	-1E+10	1	-1E+10	1	-1E+10	1
4901784	214	C	05/14/2021	10:44	-135.980	42.952	0	1715.10	0	2.2110	0	38.5980	8	30.849	0	1694.537	0	39.8	4	12.4	4	-1E+10	1	-1E+10	1	-1E+10	1	-1E+10	1	-1E+10	1	-1E+10	1
4901784	214	C	05/14/2021	10:44	-135.980	42.952	0	1720.70	0	2.2050	0	38.6000	8	30.852	0	1700.048	0	40.0	4	12.5	4	-1E+10	1	-1E+10	1	-1E+10	1	-1E+10	1	-1E+10	1	-1E+10	1
4901784	214	C	05/14/2021	10:44	-135.980	42.952	0	1725.50	0	2.2000	0	38.6010	8	30.853	0	1704.771	0	40.2	4	12.6	4	-1E+10	1	-1E+10	1	-1E+10	1	-1E+10	1	-1E+10	1	-1E+10	1
4901784	214	C	05/14/2021	10:44	-135.980	42.952	0	1730.40	0	2.1980	0	38.6020	8	30.854	0	1709.592	0	40.4	4	12.6	4	-1E+10	1	-1E+10	1	-1E+10	1	-1E+10	1	-1E+10	1	-1E+10	1
4901784	214	C	05/14/2021	10:44	-135.980	42.952	0	1735.30	0	2.1940	0	38.6030	8	30.855	0	1714.413	0	40.7	4	12.7	4	-1E+10	1	-1E+10	1	-1E+10	1	-1E+10	1	-1E+10	1	-1E+10	1
4901784	214	C	05/14/2021	10:44	-135.980	42.952	0	1740.20	0	2.1870	0	38.6050	8	30.857	0	1719.235	0	41.0	4	12.8	4	-1E+10	1	-1E+10	1	-1E+10	1	-1E+10	1	-1E+10	1	-1E+10	1
4901784	214	C	05/14/2021	10:44	-135.980	42.952	0	1745.20	0	2.1840	0	38.6060	8	30.858	0	1724.154	0	41.3	4	12.9	4	-1E+10	1	-1E+10	1	-1E+10	1	-1E+10	1	-1E+10	1	-1E+10	1
4901784	214	C	05/14/2021	10:44	-135.980	42.952	0	1750.20	0	2.1770	0	38.6070	8	30.860	0	1729.073	0	41.7	4	13.0	4	-1E+10	1	-1E+10	1	-1E+10	1	-1E+10	1	-1E+10	1	-1E+10	1
4901784	214	C	05/14/2021	10:44	-135.980	42.952	0	1755.30	0	2.1730	0	38.6090	8	30.862	0	1734.091	0	42.0	4	13.1	4	-1E+10	1	-1E+10	1	-1E+10	1	-1E+10	1	-1E+10	1	-1E+10	1
4901784	214	C	05/14/2021	10:44	-135.980	42.952	0	1760.30	0	2.1680	0	38.6100	8	30.863	0	1739.010	0	42.2	4	13.2	4	-1E+10	1	-1E+10	1	-1E+10	1	-1E+10	1	-1E+10	1	-1E+10	1
4901784	214	C	05/14/2021	10:44	-135.980	42.952	0	1765.40	0	2.1630	0	38.6110	8	30.865	0	1744.028	0	42.5	4	13.3	4	-1E+10	1	-1E+10	1	-1E+10	1	-1E+10	1	-1E+10	1	-1E+10	1
4901784	214	C	05/14/2021	10:44	-135.980	42.952	0	1770.40	0	2.1590	0	38.6120	8	30.866	0	1748.946	0	42.8	4	13.4	4	-1E+10	1	-1E+10	1	-1E+10	1	-1E+10	1	-1E+10	1	-1E+10	1
4901784	214	C	05/14/2021	10:44	-135.980	42.952	0	1775.60	0	2.1530	0	38.6140	8	30.868	0	1754.062	0	43.1	4	13.5	4	-1E+10	1	-1E+10	1	-1E+10	1	-1E+10	1	-1E+10	1	-1E+10	1
4901784	214	C	05/14/2021	10:44	-135.980	42.952	0	1780.70	0	2.1470	0	38.6150	8	30.869	0	1759.079	0	43.5	4	13.6	4	-1E+10	1	-1E+10	1	-1E+10	1	-1E+10	1	-1E+10	1	-1E+10	1
4901784	214	C	05/14/2021	10:44	-135.980	42.952	0	1785.10	0	2.1410	0	38.6170	8	30.871	0	1763.407	0	43.8	4	13.7	4	-1E+10	1	-1E+10	1	-1E+10	1	-1E+10	1	-1E+10	1	-1E+10	1
4901784	214	C	05/14/2021	10:44	-135.980	42.952	0	1789.40	0	2.1350	0	38.6180	8	30.873	0	1767.637	0	44.3	4	13.8	4	-1E+10	1	-1E+10	1	-1E+10	1	-1E+10	1	-1E+10	1	-1E+10	1
4901784	214	C	05/14/2021	10:44	-135.980	42.952	0	1794.60	0	2.1230	0	38.6210	8	30.876	0	1772.752	0	44.7	4	14.0	4	-1E+10	1	-1E+10	1	-1E+10	1	-1E+10	1	-1E+10	1	-1E+10	1
4901784	214	C	05/14/2021	10:44	-135.980	42.952	0	1799.80	0	2.1170	0	38.6220	8	30.878	0	1777.867	0	45.1	4	14.1	4	-1E+10	1	-1E+10	1	-1E+10	1	-1E+10	1	-1E+10	1	-1E+10	1
4901784	214	C	05/14/2021	10:44	-135.980	42.952	0	1805.20	0	2.1110	0	38.6240	8	30.880	0	1783.179	0	45.3	4	14.1	4	-1E+10	1	-1E+10	1	-1E+10	1	-1E+10	1	-1E+10	1	-1E+10	1
4901784	214	C	05/14/2021	10:44	-135.980	42.952	0	1810.50	0	2.1060	0	38.6250	8	30.881	0	1788.392	0	45.4	4	14.2	4	-1E+10	1	-1E+10	1	-1E+10	1	-1E+10	1	-1E+10	1	-1E+10	1
4901784	214	C	05/14/2021	10:44	-135.980	42.952	0	1815.00	0	2.1020	0	38.6270	8	30.883	0	1792.818	0	45.6	4	14.2	4	-1E+10	1	-1E+10	1	-1E+10	1	-1E+10	1	-1E+10	1	-1E+10	1
4901784	214	C	05/14/2021	10:44	-135.980	42.952	0	1819.60	0	2.0990	0	38.6270	8	30.884	0	1797.342	0	45.7	4	14.2	4	-1E+10	1	-1E+10	1	-1E+10	1	-1E+10	1	-1E+10	1	-1E+10	1
4901784	214	C	05/14/2021	10:44	-135.980	42.952	0	1825.10	0	2.0960	0	38.6290	8	30.885	0	1802.751	0	45.9	4	14.3	4	-1E+10	1	-1E+10	1	-1E+10	1	-1E+10	1	-1E+10	1	-1E+10	1
4901784	214	C	05/14/2021	10:44	-135.980	42.952	0	1830.50	0	2.0940	0	38.6300	8	30.886	0	1808.062	0	46.1	4	14.4	4	-1E+10	1	-1E+10	1	-1E+10	1	-1E+10	1	-1E+10	1	-1E+10	1
4901784	214	C	05/14/2021	10:44	-135.980	42.952	0	1835.10	0	2.0900	0	38.6310	8	30.888	0	1812.586	0	46.4	4	14.4	4	-1E+10	1	-1E+10	1	-1E+10	1	-1E+10	1	-1E+10	1	-1E+10	1
4901784	214	C	05/14/2021	10:44	-135.980	42.952	0	1839.60	0	2.0860	0	38.6320	8	30.889	0	1817.012	0	46.6	4	14.5	4	-1E+10	1	-1E+10	1	-1E+10	1	-1E+10	1	-1E+10	1	-1E+10	1
4901784	214	C	05/14/2021	10:44	-135.980	42.952	0	1845.20	0	2.0820	0	38.6330	8	30.890	0	1822.519	0	46.8	4	14.6	4	-1E+10	1	-1E+10	1	-1E+10	1	-1E+10	1	-1E+10	1	-1E+10	1
4901784	214	C	05/14/2021	10:44	-135.980	42.952	0	1849.80	0	2.0780	0	38.6340	8	30.891	0	1827.043	0	47.0	4	14.6	4	-1E+10	1	-1E+10	1	-1E+10	1	-1E+10	1	-1E+10	1	-1E+10	1
4901784	214	C	05/14/2021	10:44	-135.980	42.952	0	1855.10	0	2.0740	0	38.6350	8	30.892	0	1832.255	0	47.2	4	14.7	4	-1E+10	1	-1E+10	1	-1E+10	1	-1E+10	1	-1E+10	1	-1E+10	1
4901784	214	C	05/14/2021	10:44	-135.980	42.952	0	1860.20	0	2.0710	0	38.6360	8	30.894	0	1837.270	0	47.6	4	14.8	4	-1E+10	1	-1E+10	1	-1E+10	1	-1E+10	1	-1E+10	1	-1E+10	1
4901784	214	C	05/14/2021	10:44	-135.980	42.952	0	1865.10	0	2.0660	0	38.6370	8	30.895	0	1842.088	0	48.1	4	15.0	4	-1E+10	1	-1E+10	1	-1E+10	1	-1E+10	1	-1E+10	1	-1E+10	1
4901784	214	C	05/14/2021	10:44	-135.980	42.952	0	1870.10	0	2.0610	0	38.6390	8	30.897	0	1847.005	0	48.4	4	15.1	4	-1E+10	1	-1E+10	1	-1E+10	1	-1E+10	1	-1E+10	1	-1E+10	1
4901784	214	C	05/14/2021	10:44	-135.980	42.952	0	1874.90	0	2.0570	0	38.6400	8	30.898	0	1851.725	0	48.7	4	15.2	4	-1E+10	1	-1E+10	1	-1E+10	1	-1E+10	1	-1E+10	1	-1E+10	1
4901784	214	C	05/14/2021	10:44	-135.980	42.952	0	1879.90	0	2.0520	0	38.6410	8	30.899	0	1856.641	0	49.0	4	15.3	4	-1E+10	1	-1E+10	1	-1E+10	1	-1E+10	1	-1E+10	1	-1E+10	1
4901784	214	C	05/14/2021	10:44	-135.980	42.952	0	1884.90	0	2.0480	0	38.6430	8	30.901	0	1861.558	0	49.3	4	15.4	4	-1E+10	1	-1E+10	1	-1E+10	1	-1E+10	1	-1E+10	1	-1E+10	1
4901784	214	C	05/14/2021	10:44	-135.980	42.952	0	1889.90	0	2.0420	0	38.6440	8	30.903	0	1866.474	0	49.6	4	15.5	4	-1E+10	1	-1E+10	1	-1E+10	1	-1E+10	1	-1E+10	1	-1E+10	1
4901784	214	C	05/14/2021	10:44	-135.980	42.952	0	1895.00	0	2.0390	0	38.6450	8	30.904	0	1871.488	0	49.9	4	15.5	4	-1E+10	1	-1E+10	1	-1E+10	1	-1E+10	1	-1E+10	1	-1E+10	1
4901784	214	C	05/14/2021	10:44	-135.980	42.952	0	1900.10	0	2.0360	0	38.6460	8	30.905	0	1876.502	0	50.2	4	15.6	4	-1E+10	1	-1E+10	1	-1E+10	1	-1E+10	1	-1E+10	1	-1E+10	1
4901784	214	C	05/14/2021	10:44	-135.980	42.952	0	1905.20	0	2.0310	0	38.6470	8	30.906	0	1881.516	0	50.4	4	15.7	4	-1E+10	1	-1E+10	1	-1E+10	1	-1E+10	1	-1E+10	1	-1E+10	1
4901784	214	C	05/14/2021	10:44	-135.980	42.952	0	1910.40	0	2.0290	0	38.6480	8	30.907	0	1886.629	0	50.6	4	15.8	4	-1E+10	1	-1E+10	1	-1E+10	1	-1E+10	1	-1E+10	1	-1E+10	1
4901784	214	C	05/14/2021	10:44	-135.980	42.952	0	1915.50	0	2.0260	0	38.6500	8	30.909	0	1891.643	0	50.9	4	15.9	4	-1E+10	1	-1E+10	1	-1E+10	1	-1E+10	1	-1E+10	1	-1E+10	1
4901784	214	C	05/14/2021	10:44	-135.980	42.952	0	1920.70	0	2.0210	0	38.6510	8	30.911	0	1896.755	0	51.3	4	16.0	4	-1E+10	1	-1E+10	1	-1E+10	1	-1E+10	1	-1E+10	1	-1E+10	1
4901784	214	C	05/14/2021	10:44	-135.980	42.952	0	1925.10	0	2.0160	0	38.6520	8	30.912	0	1901.080	0	51.7	4	16.1	4	-1E+10	1	-1E+10	1	-1E+10	1	-1E+10	1	-1E+10	1	-1E+10	1
4901784	214	C	05/14/2021	10:44	-135.980	42.952	0	1929.40	0	2.0130	0	38.6520	8	30.912	0	1905.307	0	52.1	4	16.2	4	-1E+10	1	-1E+10	1	-1E+10	1	-1E+10	1	-1E+10	1	-1E+10	1
4901784	214	C	05/14/2021	10:44	-135.980	42.952	0	1934.70	0	2.0070	0	38.6540	8	30.914	0	1910.517	0	52.5	4	16.3	4	-1E+10	1	-1E+10	1	-1E+10	1	-1E+10	1	-1E+10	1	-1E+10	1
4901784	214	C	05/14/2021	10:44	-135.980	42.952	0	1940.00	0	2.0020	0	38.6550	8	30.916	0	1915.727	0	52.8	4	16.4	4	-1E+10	1	-1E+10	1	-1E+10	1	-1E+10	1	-1E+10	1	-1E+10	1
4901784	214	C	05/14/2021	10:44	-135.980	42.952	0	1945.30	0	1.9980	0	38.6560	8	30.917	0	1920.937	0	53.1	4	16.5	4	-1E+10	1	-1E+10	1	-1E+10	1	-1E+10	1	-1E+10	1	-1E+10	1
4901784	214	C	05/14/2021	10:44	-135.980	42.952	0	1950.60	0	1.9940	0	38.6570	8	30.918	0	1926.147	0	53.4	4	16.6	4	-1E+10	1	-1E+10	1	-1E+10	1	-1E+10	1	-1E+10	1	-1E+10	1
4901784	214	C	05/14/2021	10:44	-135.980	42.952	0	1955.10	0	1.9910	0	38.6580	8	30.919	0	1930.570	0	53.7	4	16.7	4	-1E+10	1	-1E+10	1	-1E+10	1	-1E+10	1	-1E+10	1	-1E+10	1
4901784	214	C	05/14/2021	10:44	-135.980	42.952	0	1959.60	0	1.9880	0	38.6590	8	30.920	0	1934.993	0	53.9	4	16.8	4	-1E+10	1	-1E+10	1	-1E+10	1	-1E+10	1	-1E+10	1	-1E+10	1
4901784	214	C	05/14/2021	10:44	-135.980	42.952	0	1965.00	0	1.9850	0	38.6600	8	30.921	0	1940.301	0	54.1	4	16.8	4	-1E+10	1	-1E+10	1	-1E+10	1	-1E+10	1	-1E+10	1	-1E+10	1
4901784	214	C	05/14/2021	10:44	-135.980	42.952	0	1970.50	0	1.9820	0	38.6610	8	30.922	0	1945.707	0	54.5	4	17.0	4	-1E+10	1	-1E+10	1	-1E+10	1	-1E+10	1	-1E+10	1	-1E+10	1
4901784	214	C	05/14/2021	10:44	-135.980	42.952	0	1975.00	0	1.9770	0	38.6620	8	30.924	0	1950.129	0	54.9	4	17.1	4	-1E+10	1	-1E+10	1	-1E+10	1	-1E+10	1	-1E+10	1	-1E+10	1
4901784	214	C	05/14/2021	10:44	-135.980	42.952	0	1979.50	0	1.9730	0	38.6630	8	30.925	0	1954.552	0	55.2	4	17.2	4	-1E+10	1	-1E+10	1	-1E+10	1	-1E+10	1	-1E+10	1	-1E+10	1
4901784	214	C	05/14/2021	10:44	-135.980	42.952	0	1985.00	0	1.9680	0	38.6640	8	30.926	0	1959.957	0	55.6	4	17.3	4	-1E+10	1	-1E+10	1	-1E+10	1	-1E+10	1	-1E+10	1	-1E+10	1
4901784	214	C	05/14/2021	10:44	-135.980	42.952	0	1990.60	0	1.9640	0	38.6650	8	30.927	0	1965.461	0	55.8	4	17.3	4	-1E+10	1	-1E+10	1	-1E+10	1	-1E+10	1	-1E+10	1	-1E+10	1
4901784	214	C	05/14/2021	10:44	-135.980	42.952	0	1995.20	0	1.9630	0	38.6660	8	30.928	0	1969.982	0	56.0	4	17.4	4	-1E+10	1	-1E+10	1	-1E+10	1	-1E+10	1	-1E+10	1	-1E+10	1
4901784	214	C	05/14/2021	10:44	-135.980	42.952	0	1999.80	0	1.9600	0	38.6670	8	30.929	0	1974.502	0	56.2	4	17.5	4	-1E+10	1	-1E+10	1	-1E+10	1	-1E+10	1	-1E+10	1	-1E+10	1
4901784	214	C	05/14/2021	10:44	-135.980	42.952	0	2005.10	0	1.9570	0	38.6670	8	30.930	0	1979.711	0	56.5	4	17.5	4	-1E+10	1	-1E+10	1	-1E+10	1	-1E+10	1	-1E+10	1	-1E+10	1
4901784	214	C	05/14/2021	10:44	-135.980	42.952	0	2010.50	0	1.9550	0	38.6680	8	30.931	0	1985.017	0	56.6	4	17.6	4	-1E+10	1	-1E+10	1	-1E+10	1	-1E+10	1	-1E+10	1	-1E+10	1
4901784	214	C	05/14/2021	10:44	-135.980	42.952	0	2015.10	0	1.9530	0	38.6680	8	30.931	0	1989.537	0	56.8	4	17.6	4	-1E+10	1	-1E+10	1	-1E+10	1	-1E+10	1	-1E+10	1	-1E+10	1
4901784	214	C	05/14/2021	10:44	-135.980	42.952	0	2020.60	0	1.9510	0	38.6690	8	30.932	0	1994.942	0	56.9	4	17.7	4	-1E+10	1	-1E+10	1	-1E+10	1	-1E+10	1	-1E+10	1	-1E+10	1
4901784	214	C	05/14/2021	10:44	-135.980	42.952	0																										
4901784	215	C	05/24/2021	10:48	-136.149	42.996	0	2.50	0	14.2110	0	36.0050	8	26.920	0	2.480	0	248.6	4	99.5	4	-1E+10	1	-1E+10	1	-1E+10	1	-1E+10	1	-1E+10	1	-1E+10	1
4901784	215	C	05/24/2021	10:48	-136.149	42.996	0	3.70	0	14.2040	0	36.0070	8	26.923	0	3.671	0	248.8	4	99.5	4	-1E+10	1	-1E+10	1	-1E+10	1	-1E+10	1	-1E+10	1	-1E+10	1
4901784	215	C	05/24/2021	10:48	-136.149	42.996	0	5.20	0	14.1990	0	36.0040	8	26.922	0	5.159	0	248.9	4	99.6	4	-1E+10	1	-1E+10	1	-1E+10	1	-1E+10	1	-1E+10	1	-1E+10	1
4901784	215	C	05/24/2021	10:48	-136.149	42.996	0	5.60	0	14.1790	0	36.0060	8	26.928	0	5.555	0	248.9	4	99.5	4	-1E+10	1	-1E+10	1	-1E+10	1	-1E+10	1	-1E+10	1	-1E+10	1
4901784	215	C	05/24/2021	10:48	-136.149	42.996	0	6.70	0	14.1730	0	36.0030	8	26.927	0	6.647	0	249.4	4	99.7	4	-1E+10	1	-1E+10	1	-1E+10	1	-1E+10	1	-1E+10	1	-1E+10	1
4901784	215	C	05/24/2021	10:48	-136.149	42.996	0	7.80	0	14.1580	0	36.0020	8	26.929	0	7.738	0	249.7	4	99.8	4	-1E+10	1	-1E+10	1	-1E+10	1	-1E+10	1	-1E+10	1	-1E+10	1
4901784	215	C	05/24/2021	10:48	-136.149	42.996	0	8.90	0	14.1590	0	35.9890	8	26.919	0	8.829	0	250.4	4	100.1	4	-1E+10	1	-1E+10	1	-1E+10	1	-1E+10	1	-1E+10	1	-1E+10	1
4901784	215	C	05/24/2021	10:48	-136.149	42.996	0	10.00	0	14.0200	0	35.9980	8	26.956	0	9.920	0	251.6	4	100.3	4	-1E+10	1	-1E+10	1	-1E+10	1	-1E+10	1	-1E+10	1	-1E+10	1
4901784	215	C	05/24/2021	10:48	-136.149	42.996	0	11.10	0	13.8780	0	35.9910	8	26.980	0	11.012	0	253.1	4	100.6	4	-1E+10	1	-1E+10	1	-1E+10	1	-1E+10	1	-1E+10	1	-1E+10	1
4901784	215	C	05/24/2021	10:48	-136.149	42.996	0	12.40	0	13.1340	0	36.1070	8	27.225	0	12.301	0	255.2	4	100.0	4	-1E+10	1	-1E+10	1	-1E+10	1	-1E+10	1	-1E+10	1	-1E+10	1
4901784	215	C	05/24/2021	10:48	-136.149	42.996	0	13.70	0	13.0100	0	36.0740	8	27.224	0	13.591	0	257.6	4	100.7	4	-1E+10	1	-1E+10	1	-1E+10	1	-1E+10	1	-1E+10	1	-1E+10	1
4901784	215	C	05/24/2021	10:48	-136.149	42.996	0	15.10	0	12.9600	0	36.0730	8	27.234	0	14.980	0	258.1	4	100.7	4	-1E+10	1	-1E+10	1	-1E+10	1	-1E+10	1	-1E+10	1	-1E+10	1
4901784	215	C	05/24/2021	10:48	-136.149	42.996	0	16.60	0	12.8930	0	36.0740	8	27.248	0	16.468	0	258.6	4	100.8	4	-1E+10	1	-1E+10	1	-1E+10	1	-1E+10	1	-1E+10	1	-1E+10	1
4901784	215	C	05/24/2021	10:48	-136.149	42.996	0	18.10	0	12.7840	0	36.0790	8	27.274	0	17.956	0	259.2	4	100.8	4	-1E+10	1	-1E+10	1	-1E+10	1	-1E+10	1	-1E+10	1	-1E+10	1
4901784	215	C	05/24/2021	10:48	-136.149	42.996	0	19.60	0	12.7420	0	36.0780	8	27.282	0	19.444	0	259.6	4	100.9	4	-1E+10	1	-1E+10	1	-1E+10	1	-1E+10	1	-1E+10	1	-1E+10	1
4901784	215	C	05/24/2021	10:48	-136.149	42.996	0	21.20	0	12.7010	0	36.0740	8	27.287	0	21.031	0	259.9	4	100.9	4	-1E+10	1	-1E+10	1	-1E+10	1	-1E+10	1	-1E+10	1	-1E+10	1
4901784	215	C	05/24/2021	10:48	-136.149	42.996	0	22.70	0	12.6150	0	36.0750	8	27.305	0	22.519	0	260.2	4	100.9	4	-1E+10	1	-1E+10	1	-1E+10	1	-1E+10	1	-1E+10	1	-1E+10	1
4901784	215	C	05/24/2021	10:48	-136.149	42.996	0	24.30	0	12.4340	0	36.0650	8	27.333	0	24.106	0	261.7	4	101.1	4	-1E+10	1	-1E+10	1	-1E+10	1	-1E+10	1	-1E+10	1	-1E+10	1
4901784	215	C	05/24/2021	10:48	-136.149	42.996	0	25.90	0	12.2570	0	36.0620	8	27.366	0	25.693	0	263.2	4	101.2	4	-1E+10	1	-1E+10	1	-1E+10	1	-1E+10	1	-1E+10	1	-1E+10	1
4901784	215	C	05/24/2021	10:48	-136.149	42.996	0	27.50	0	11.9100	0	36.0750	8	27.443	0	27.280	0	265.1	4	101.3	4	-1E+10	1	-1E+10	1	-1E+10	1	-1E+10	1	-1E+10	1	-1E+10	1
4901784	215	C	05/24/2021	10:48	-136.149	42.996	0	29.20	0	11.8270	0	36.0750	8	27.459	0	28.966	0	265.6	4	101.3	4	-1E+10	1	-1E+10	1	-1E+10	1	-1E+10	1	-1E+10	1	-1E+10	1
4901784	215	C	05/24/2021	10:48	-136.149	42.996	0	30.90	0	11.7650	0	36.0780	8	27.473	0	30.653	0	265.8	4	101.2	4	-1E+10	1	-1E+10	1	-1E+10	1	-1E+10	1	-1E+10	1	-1E+10	1
4901784	215	C	05/24/2021	10:48	-136.149	42.996	0	32.50	0	11.7360	0	36.0750	8	27.477	0	32.240	0	265.5	4	101.1	4	-1E+10	1	-1E+10	1	-1E+10	1	-1E+10	1	-1E+10	1	-1E+10	1
4901784	215	C	05/24/2021	10:48	-136.149	42.996	0	34.30	0	11.6990	0	36.0740	8	27.483	0	34.025	0	265.3	4	100.9	4	-1E+10	1	-1E+10	1	-1E+10	1	-1E+10	1	-1E+10	1	-1E+10	1
4901784	215	C	05/24/2021	10:48	-136.149	42.996	0	36.10	0	11.6250	0	36.0750	8	27.498	0	35.810	0	265.0	4	100.7	4	-1E+10	1	-1E+10	1	-1E+10	1	-1E+10	1	-1E+10	1	-1E+10	1
4901784	215	C	05/24/2021	10:48	-136.149	42.996	0	37.90	0	11.5270	0	36.0760	8	27.517	0	37.596	0	265.1	4	100.5	4	-1E+10	1	-1E+10	1	-1E+10	1	-1E+10	1	-1E+10	1	-1E+10	1
4901784	215	C	05/24/2021	10:48	-136.149	42.996	0	39.80	0	11.2950	0	36.0920	8	27.573	0	39.480	0	265.1	4	100.0	4	-1E+10	1	-1E+10	1	-1E+10	1	-1E+10	1	-1E+10	1	-1E+10	1
4901784	215	C	05/24/2021	10:48	-136.149	42.996	0	41.70	0	11.1320	0	36.0930	8	27.604	0	41.365	0	266.0	4	100.0	4	-1E+10	1	-1E+10	1	-1E+10	1	-1E+10	1	-1E+10	1	-1E+10	1
4901784	215	C	05/24/2021	10:48	-136.149	42.996	0	43.50	0	11.1260	0	36.0910	8	27.604	0	43.150	0	265.4	4	99.8	4	-1E+10	1	-1E+10	1	-1E+10	1	-1E+10	1	-1E+10	1	-1E+10	1
4901784	215	C	05/24/2021	10:48	-136.149	42.996	0	45.40	0	11.1020	0	36.0870	8	27.605	0	45.035	0	264.7	4	99.4	4	-1E+10	1	-1E+10	1	-1E+10	1	-1E+10	1	-1E+10	1	-1E+10	1
4901784	215	C	05/24/2021	10:48	-136.149	42.996	0	47.30	0	11.0550	0	36.0870	8	27.614	0	46.919	0	264.0	4	99.1	4	-1E+10	1	-1E+10	1	-1E+10	1	-1E+10	1	-1E+10	1	-1E+10	1
4901784	215	C	05/24/2021	10:48	-136.149	42.996	0	49.00	0	10.9830	0	36.0870	8	27.627	0	48.605	0	263.1	4	98.6	4	-1E+10	1	-1E+10	1	-1E+10	1	-1E+10	1	-1E+10	1	-1E+10	1
4901784	215	C	05/24/2021	10:48	-136.149	42.996	0	50.90	0	10.7760	0	36.0920	8	27.669	0	50.490	0	263.3	4	98.3	4	-1E+10	1	-1E+10	1	-1E+10	1	-1E+10	1	-1E+10	1	-1E+10	1
4901784	215	C	05/24/2021	10:48	-136.149	42.996	0	52.70	0	10.7480	0	36.0910	8	27.673	0	52.275	0	262.8	4	98.0	4	-1E+10	1	-1E+10	1	-1E+10	1	-1E+10	1	-1E+10	1	-1E+10	1
4901784	215	C	05/24/2021	10:48	-136.149	42.996	0	54.60	0	10.7210	0	36.0890	8	27.677	0	54.160	0	261.5	4	97.4	4	-1E+10	1	-1E+10	1	-1E+10	1	-1E+10	1	-1E+10	1	-1E+10	1
4901784	215	C	05/24/2021	10:48	-136.149	42.996	0	56.40	0	10.6600	0	36.0850	8	27.685	0	55.945	0	260.6	4	97.0	4	-1E+10	1	-1E+10	1	-1E+10	1	-1E+10	1	-1E+10	1	-1E+10	1
4901784	215	C	05/24/2021	10:48	-136.149	42.996	0	58.30	0	10.5480	0	36.0860	8	27.705	0	57.829	0	259.9	4	96.5	4	-1E+10	1	-1E+10	1	-1E+10	1	-1E+10	1	-1E+10	1	-1E+10	1
4901784	215	C	05/24/2021	10:48	-136.149	42.996	0	60.10	0	10.5260	0	36.0860	8	27.709	0	59.614	0	258.6	4	96.0	4	-1E+10	1	-1E+10	1	-1E+10	1	-1E+10	1	-1E+10	1	-1E+10	1
4901784	215	C	05/24/2021	10:48	-136.149	42.996	0	62.00	0	10.4210	0	36.0800	8	27.724	0	61.499	0	257.7	4	95.4	4	-1E+10	1	-1E+10	1	-1E+10	1	-1E+10	1	-1E+10	1	-1E+10	1
4901784	215	C	05/24/2021	10:48	-136.149	42.996	0	63.90	0	10.3590	0	36.0800	8	27.735	0	63.383	0	256.7	4	94.9	4	-1E+10	1	-1E+10	1	-1E+10	1	-1E+10	1	-1E+10	1	-1E+10	1
4901784	215	C	05/24/2021	10:48	-136.149	42.996	0	65.70	0	10.2890	0	36.0840	8	27.750	0	65.168	0	256.4	4	94.7	4	-1E+10	1	-1E+10	1	-1E+10	1	-1E+10	1	-1E+10	1	-1E+10	1
4901784	215	C	05/24/2021	10:48	-136.149	42.996	0	67.60	0	10.2690	0	36.0850	8	27.754	0	67.053	0	256.2	4	94.6	4	-1E+10	1	-1E+10	1	-1E+10	1	-1E+10	1	-1E+10	1	-1E+10	1
4901784	215	C	05/24/2021	10:48	-136.149	42.996	0	69.30	0	10.2600	0	36.0850	8	27.756	0	68.739	0	255.6	4	94.3	4	-1E+10	1	-1E+10	1	-1E+10	1	-1E+10	1	-1E+10	1	-1E+10	1
4901784	215	C	05/24/2021	10:48	-136.149	42.996	0	71.20	0	10.2530	0	36.0850	8	27.757	0	70.623	0	255.3	4	94.2	4	-1E+10	1	-1E+10	1	-1E+10	1	-1E+10	1	-1E+10	1	-1E+10	1
4901784	215	C	05/24/2021	10:48	-136.149	42.996	0	73.00	0	10.2300	0	36.0840	8	27.761	0	72.408	0	254.8	4	94.0	4	-1E+10	1	-1E+10	1	-1E+10	1	-1E+10	1	-1E+10	1	-1E+10	1
4901784	215	C	05/24/2021	10:48	-136.149	42.996	0	74.90	0	10.1780	0	36.0840	8	27.770	0	74.292	0	254.8	4	93.9	4	-1E+10	1	-1E+10	1	-1E+10	1	-1E+10	1	-1E+10	1	-1E+10	1
4901784	215	C	05/24/2021	10:48	-136.149	42.996	0	76.70	0	10.1620	0	36.0860	8	27.774	0	76.077	0	254.9	4	93.9	4	-1E+10	1	-1E+10	1	-1E+10	1	-1E+10	1	-1E+10	1	-1E+10	1
4901784	215	C	05/24/2021	10:48	-136.149	42.996	0	78.50	0	10.1480	0	36.0860	8	27.777	0	77.862	0	255.0	4	93.9	4	-1E+10	1	-1E+10	1	-1E+10	1	-1E+10	1	-1E+10	1	-1E+10	1
4901784	215	C	05/24/2021	10:48	-136.149	42.996	0	80.40	0	10.1420	0	36.0850	8	27.777	0	79.747	0	255.0	4	93.9	4	-1E+10	1	-1E+10	1	-1E+10	1	-1E+10	1	-1E+10	1	-1E+10	1
4901784	215	C	05/24/2021	10:48	-136.149	42.996	0	82.20	0	10.1100	0	36.0850	8	27.783	0	81.532	0	254.9	4	93.8	4	-1E+10	1	-1E+10	1	-1E+10	1	-1E+10	1	-1E+10	1	-1E+10	1
4901784	215	C	05/24/2021	10:48	-136.149	42.996	0	84.00	0	10.0550	0	36.0850	8	27.792	0	83.317	0	255.4	4	93.8	4	-1E+10	1	-1E+10	1	-1E+10	1	-1E+10	1	-1E+10	1	-1E+10	1
4901784	215	C	05/24/2021	10:48	-136.149	42.996	0	85.90	0	10.0410	0	36.0790	8	27.790	0	85.201	0	255.6	4	93.9	4	-1E+10	1	-1E+10	1	-1E+10	1	-1E+10	1	-1E+10	1	-1E+10	1
4901784	215	C	05/24/2021	10:48	-136.149	42.996	0	87.70	0	9.9710	0	36.0760	8	27.800	0	86.986	0	256.2	4	93.9	4	-1E+10	1	-1E+10	1	-1E+10	1	-1E+10	1	-1E+10	1	-1E+10	1
4901784	215	C	05/24/2021	10:48	-136.149	42.996	0	89.50	0	9.9570	0	36.0730	8	27.800	0	88.771	0	256.7	4	94.1	4	-1E+10	1	-1E+10	1	-1E+10	1	-1E+10	1	-1E+10	1	-1E+10	1
4901784	215	C	05/24/2021	10:48	-136.149	42.996	0	91.30	0	9.9150	0	36.0720	8	27.806	0	90.556	0	257.2	4	94.2	4	-1E+10	1	-1E+10	1	-1E+10	1	-1E+10	1	-1E+10	1	-1E+10	1
4901784	215	C	05/24/2021	10:48	-136.149	42.996	0	93.00	0	9.8780	0	36.0770	8	27.817	0	92.241	0	258.0	4	94.4	4	-1E+10	1	-1E+10	1	-1E+10	1	-1E+10	1	-1E+10	1	-1E+10	1
4901784	215	C	05/24/2021	10:48	-136.149	42.996	0	94.80	0	9.8560	0	36.0910	8	27.832	0	94.026	0	258.6	4	94.6	4	-1E+10	1	-1E+10	1	-1E+10	1	-1E+10	1	-1E+10	1	-1E+10	1
4901784	215	C	05/24/2021	10:48	-136.149	42.996	0	96.60	0	9.8510	0	36.1000	8	27.840	0	95.811	0	259.6	4	95.0	4	-1E+10	1	-1E+10	1	-1E+10	1	-1E+10	1	-1E+10	1	-1E+10	1
4901784	215	C	05/24/2021	10:48	-136.149	42.996	0	98.40	0	9.8100	0	36.1030	8	27.849	0	97.596	0	260.4	4	95.2	4	-1E+10	1	-1E+10	1	-1E+10	1	-1E+10	1	-1E+10	1	-1E+10	1
4901784	215	C	05/24/2021	10:48	-136.149	42.996	0	100.10	0	9.7410	0	36.1080	8	27.865	0	99.282	0	261.4	4	95.4	4	-1E+10	1	-1E+10	1	-1E+10	1	-1E+10	1	-1E+10	1	-1E+10	1
4901784	215	C	05/24/2021	10:48	-136.149	42.996	0	102.70	0	9.6930	0	36.1080	8	27.873	0	101.860	0	261.3	4	95.3	4	-1E+10	1	-1E+10	1	-1E+10	1	-1E+10	1	-1E+10	1	-1E+10	1
4901784	215	C	05/24/2021	10:48	-136.149	42.996	0	105.30	0	9.6170	0	36.1080	8	27.886	0	104.438	0	261.6	4	95.2	4	-1E+10	1	-1E+10	1	-1E+10	1	-1E+10	1	-1E+10	1	-1E+10	1
4901784	215	C	05/24/2021	10:48	-136.149	42.996	0	107.10	0	9.6080	0	36.1070	8	27.887	0	106.223	0	261.1	4	95.0	4	-1E+10	1	-1E+10	1	-1E+10	1	-1E+10	1	-1E+10	1	-1E+10	1
4901784	215	C	05/24/2021	10:48	-136.149	42.996	0	109.80	0	9.5060	0	36.1060	8	27.903	0	108.900	0	261.0	4	94.8	4	-1E+10	1	-1E+10	1	-1E+10	1	-1E+10	1	-1E+10	1	-1E+10	1
4901784	215	C	05/24/2021	10:48	-136.149	42.996	0	112.40	0	9.4530	0	36.1040	8	27.911	0	111.478	0	260.9	4	94.6	4	-1E+10	1	-1E+10	1	-1E+10	1	-1E+10	1	-1E+10	1	-1E+10	1
4901784	215	C	05/24/2021	10:48	-136.149	42.996	0	115.10	0	9.4110	0	36.1070	8	27.920	0	114.155	0	261.0	4	94.6	4	-1E+10	1	-1E+10	1	-1E+10	1	-1E+10	1	-1E+10	1	-1E+10	1
4901784	215	C	05/24/2021	10:48	-136.149	42.996	0	118.30	0	9.3450	0	36.1100	8	27.933	0	117.328	0	260.9	4	94.4	4	-1E+10	1	-1E+10	1	-1E+10	1	-1E+10	1	-1E+10	1	-1E+10	1
4901784	215	C	05/24/2021	10:48	-136.149	42.996	0	120.10	0	9.3420	0	36.1110	8	27.935	0	119.112	0	260.2	4	94.2	4	-1E+10	1	-1E+10	1	-1E+10	1	-1E+10	1	-1E+10	1	-1E+10	1
4901784	215	C	05/24/2021	10:48	-136.149	42.996	0	122.30	0	9.3420	0	36.1160	8	27.939	0	121.294	0	259.2	4	93.8	4	-1E+10	1	-1E+10	1	-1E+10	1	-1E+10	1	-1E+10	1	-1E+10	1
4901784	215	C	05/24/2021	10:48	-136.149	42.996	0	125.10	0	9.3000	0	36.1150	8	27.945	0	124.070	0	257.6	4	93.2	4	-1E+10	1	-1E+10	1	-1E+10	1	-1E+10	1	-1E+10	1	-1E+10	1
4901784	215	C	05/24/2021	10:48	-136.149	42.996	0	128.00	0	9.1580	0	36.1330	8	27.983	0	126.945	0	255.8	4	92.2	4	-1E+10	1	-1E+10	1	-1E+10	1	-1E+10	1	-1E+10	1	-1E+10	1
4901784	215	C	05/24/2021	10:48	-136.149	42.996	0	130.20	0	9.0760	0	36.1410	8	28.002	0	129.126	0	253.6	4	91.3	4	-1E+10	1	-1E+10	1	-1E+10	1	-1E+10	1	-1E+10	1	-1E+10	1
4901784	215	C	05/24/2021	10:48	-136.149	42.996	0	132.30	0	8.9840	0	36.1580	8	28.031	0	131.208	0	250.2	4	89.9	4	-1E+10	1	-1E+10	1	-1E+10	1	-1E+10	1	-1E+10	1	-1E+10	1
4901784	215	C	05/24/2021	10:48	-136.149	42.996	0	134.50	0	8.9720	0	36.1760	8	28.047	0	133.389	0	245.0	4	88.0	4	-1E+10	1	-1E+10	1	-1E+10	1	-1E+10	1	-1E+10	1	-1E+10	1
4901784	215	C	05/24/2021	10:48	-136.149	42.996	0	137.10	0	9.0620	0	36.2600	8	28.098	0	135.967	0	237.5	4	85.5	4	-1E+10	1	-1E+10	1	-1E+10	1	-1E+10	1	-1E+10	1	-1E+10	1
4901784	215	C	05/24/2021	10:48	-136.149	42.996	0	140.10	0	9.0820	0	36.3540	8	28.169	0	138.941	0	226.8	4	81.8	4	-1E+10	1	-1E+10	1	-1E+10	1	-1E+10	1	-1E+10	1	-1E+10	1
4901784	215	C	05/24/2021	10:48	-136.149	42.996	0	142.90	0	9.1570	0	36.5390	8	28.301	0	141.717	0	215.6	4	78.0	4	-1E+10	1	-1E+10	1	-1E+10	1	-1E+10	1	-1E+10	1	-1E+10	1
4901784	215	C	05/24/2021	10:48	-136.149	42.996	0	145.10	0	9.2140	0	36.6700	8	28.394	0	143.898	0	210.8	4	76.4	4	-1E+10	1	-1E+10	1	-1E+10	1	-1E+10	1	-1E+10	1	-1E+10	1
4901784	215	C	05/24/2021	10:48	-136.149	42.996	0	147.30	0	9.1850	0	36.7320	8	28.448	0	146.079	0	208.4	4	75.5	4	-1E+10	1	-1E+10	1	-1E+10	1	-1E+10	1	-1E+10	1	-1E+10	1
4901784	215	C	05/24/2021	10:48	-136.149	42.996	0	150.40	0	9.0900	0	36.8300	8	28.540	0	149.152	0	206.3	4	74.6	4	-1E+10	1	-1E+10	1	-1E+10	1	-1E+10	1	-1E+10	1	-1E+10	1
4901784	215	C	05/24/2021	10:48	-136.149	42.996	0	152.70	0	9.0270	0	36.8810	8	28.591	0	151.432	0	205.4	4	74.2	4	-1E+10	1	-1E+10	1	-1E+10	1	-1E+10	1	-1E+10	1	-1E+10	1
4901784	215	C	05/24/2021	10:48	-136.149	42.996	0	155.00	0	8.9510	0	36.9440	8	28.653	0	153.713	0	204.5	4	73.8	4	-1E+10	1	-1E+10	1	-1E+10	1	-1E+10	1	-1E+10	1	-1E+10	1
4901784	215	C	05/24/2021	10:48	-136.149	42.996	0	157.40	0	8.9180	0	36.9680	8	28.677	0	156.092	0	203.4	4	73.4	4	-1E+10	1	-1E+10	1	-1E+10	1	-1E+10	1	-1E+10	1	-1E+10	1
4901784	215	C	05/24/2021	10:48	-136.149	42.996	0	159.80	0	8.8540	0	37.0120	8	28.722	0	158.471	0	201.9	4	72.8	4	-1E+10	1	-1E+10	1	-1E+10	1	-1E+10	1	-1E+10	1	-1E+10	1
4901784	215	C	05/24/2021	10:48	-136.149	42.996	0	162.20	0	8.7760	0	37.0590	8	28.772	0	160.850	0	199.9	4	71.9	4	-1E+10	1	-1E+10	1	-1E+10	1	-1E+10	1	-1E+10	1	-1E+10	1
4901784	215	C	05/24/2021	10:48	-136.149	42.996	0	164.70	0	8.7040	0	37.1000	8	28.816	0	163.328	0	197.2	4	70.9	4	-1E+10	1	-1E+10	1	-1E+10	1	-1E+10	1	-1E+10	1	-1E+10	1
4901784	215	C	05/24/2021	10:48	-136.149	42.996	0	167.30	0	8.5710	0	37.1820	8	28.902	0	165.905	0	193.8	4	69.5	4	-1E+10	1	-1E+10	1	-1E+10	1	-1E+10	1	-1E+10	1	-1E+10	1
4901784	215	C	05/24/2021	10:48	-136.149	42.996	0	169.90	0	8.5120	0	37.2310	8	28.950	0	168.483	0	189.8	4	68.0	4	-1E+10	1	-1E+10	1	-1E+10	1	-1E+10	1	-1E+10	1	-1E+10	1
4901784	215	C	05/24/2021	10:48	-136.149	42.996	0	172.50	0	8.4980	0	37.2670	8	28.980	0	171.060	0	184.8	4	66.2	4	-1E+10	1	-1E+10	1	-1E+10	1	-1E+10	1	-1E+10	1	-1E+10	1
4901784	215	C	05/24/2021	10:48	-136.149	42.996	0	174.90	0	8.3840	0	37.2880	8	29.015	0	173.439	0	179.6	4	64.2	4	-1E+10	1	-1E+10	1	-1E+10	1	-1E+10	1	-1E+10	1	-1E+10	1
4901784	215	C	05/24/2021	10:48	-136.149	42.996	0	177.50	0	8.1290	0	37.3050	8	29.069	0	176.016	0	175.5	4	62.4	4	-1E+10	1	-1E+10	1	-1E+10	1	-1E+10	1	-1E+10	1	-1E+10	1
4901784	215	C	05/24/2021	10:48	-136.149	42.996	0	179.80	0	8.0540	0	37.3240	8	29.095	0	178.296	0	174.2	4	61.8	4	-1E+10	1	-1E+10	1	-1E+10	1	-1E+10	1	-1E+10	1	-1E+10	1
4901784	215	C	05/24/2021	10:48	-136.149	42.996	0	182.20	0	8.0250	0	37.3410	8	29.113	0	180.675	0	172.6	4	61.2	4	-1E+10	1	-1E+10	1	-1E+10	1	-1E+10	1	-1E+10	1	-1E+10	1
4901784	215	C	05/24/2021	10:48	-136.149	42.996	0	185.30	0	8.0070	0	37.3530	8	29.126	0	183.747	0	171.0	4	60.7	4	-1E+10	1	-1E+10	1	-1E+10	1	-1E+10	1	-1E+10	1	-1E+10	1
4901784	215	C	05/24/2021	10:48	-136.149	42.996	0	187.70	0	8.0170	0	37.3550	8	29.126	0	186.126	0	169.6	4	60.2	4	-1E+10	1	-1E+10	1	-1E+10	1	-1E+10	1	-1E+10	1	-1E+10	1
4901784	215	C	05/24/2021	10:48	-136.149	42.996	0	190.10	0	7.9930	0	37.3740	8	29.144	0	188.505	0	167.4	4	59.4	4	-1E+10	1	-1E+10	1	-1E+10	1	-1E+10	1	-1E+10	1	-1E+10	1
4901784	215	C	05/24/2021	10:48	-136.149	42.996	0	192.40	0	7.9530	0	37.3910	8	29.164	0	190.785	0	166.4	4	59.0	4	-1E+10	1	-1E+10	1	-1E+10	1	-1E+10	1	-1E+10	1	-1E+10	1
4901784	215	C	05/24/2021	10:48	-136.149	42.996	0	194.80	0	7.9700	0	37.4110	8	29.177	0	193.163	0	165.3	4	58.6	4	-1E+10	1	-1E+10	1	-1E+10	1	-1E+10	1	-1E+10	1	-1E+10	1
4901784	215	C	05/24/2021	10:48	-136.149	42.996	0	197.30	0	7.9220	0	37.4260	8	29.196	0	195.641	0	163.2	4	57.8	4	-1E+10	1	-1E+10	1	-1E+10	1	-1E+10	1	-1E+10	1	-1E+10	1
4901784	215	C	05/24/2021	10:48	-136.149	42.996	0	199.80	0	7.9040	0	37.4450	8	29.214	0	198.119	0	163.2	4	57.8	4	-1E+10	1	-1E+10	1	-1E+10	1	-1E+10	1	-1E+10	1	-1E+10	1
4901784	215	C	05/24/2021	10:48	-136.149	42.996	0	202.30	0	7.8990	0	37.4560	8	29.224	0	200.597	0	163.7	4	57.9	4	-1E+10	1	-1E+10	1	-1E+10	1	-1E+10	1	-1E+10	1	-1E+10	1
4901784	215	C	05/24/2021	10:48	-136.149	42.996	0	204.80	0	7.8800	0	37.4790	8	29.245	0	203.074	0	164.5	4	58.2	4	-1E+10	1	-1E+10	1	-1E+10	1	-1E+10	1	-1E+10	1	-1E+10	1
4901784	215	C	05/24/2021	10:48	-136.149	42.996	0	207.30	0	7.8630	0	37.4910	8	29.257	0	205.552	0	166.3	4	58.8	4	-1E+10	1	-1E+10	1	-1E+10	1	-1E+10	1	-1E+10	1	-1E+10	1
4901784	215	C	05/24/2021	10:48	-136.149	42.996	0	209.90	0	7.8360	0	37.5090	8	29.275	0	208.129	0	165.9	4	58.7	4	-1E+10	1	-1E+10	1	-1E+10	1	-1E+10	1	-1E+10	1	-1E+10	1
4901784	215	C	05/24/2021	10:48	-136.149	42.996	0	212.40	0	7.8160	0	37.5230	8	29.289	0	210.606	0	166.8	4	59.0	4	-1E+10	1	-1E+10	1	-1E+10	1	-1E+10	1	-1E+10	1	-1E+10	1
4901784	215	C	05/24/2021	10:48	-136.149	42.996	0	215.00	0	7.7870	0	37.5280	8	29.298	0	213.183	0	172.3	4	60.9	4	-1E+10	1	-1E+10	1	-1E+10	1	-1E+10	1	-1E+10	1	-1E+10	1
4901784	215	C	05/24/2021	10:48	-136.149	42.996	0	217.50	0	7.7400	0	37.5340	8	29.310	0	215.661	0	173.1	4	61.1	4	-1E+10	1	-1E+10	1	-1E+10	1	-1E+10	1	-1E+10	1	-1E+10	1
4901784	215	C	05/24/2021	10:48	-136.149	42.996	0	220.10	0	7.7360	0	37.5390	8	29.314	0	218.237	0	170.5	4	60.2	4	-1E+10	1	-1E+10	1	-1E+10	1	-1E+10	1	-1E+10	1	-1E+10	1
4901784	215	C	05/24/2021	10:48	-136.149	42.996	0	222.70	0	7.6970	0	37.5510	8	29.330	0	220.814	0	171.2	4	60.4	4	-1E+10	1	-1E+10	1	-1E+10	1	-1E+10	1	-1E+10	1	-1E+10	1
4901784	215	C	05/24/2021	10:48	-136.149	42.996	0	225.30	0	7.6750	0	37.5550	8	29.336	0	223.391	0	173.0	4	61.0	4	-1E+10	1	-1E+10	1	-1E+10	1	-1E+10	1	-1E+10	1	-1E+10	1
4901784	215	C	05/24/2021	10:48	-136.149	42.996	0	227.90	0	7.5860	0	37.5630	8	29.356	0	225.967	0	175.2	4	61.6	4	-1E+10	1	-1E+10	1	-1E+10	1	-1E+10	1	-1E+10	1	-1E+10	1
4901784	215	C	05/24/2021	10:48	-136.149	42.996	0	229.70	0	7.5750	0	37.5640	8	29.359	0	227.751	0	174.4	4	61.3	4	-1E+10	1	-1E+10	1	-1E+10	1	-1E+10	1	-1E+10	1	-1E+10	1
4901784	215	C	05/24/2021	10:48	-136.149	42.996	0	232.30	0	7.5560	0	37.5670	8	29.364	0	230.327	0	173.0	4	60.8	4	-1E+10	1	-1E+10	1	-1E+10	1	-1E+10	1	-1E+10	1	-1E+10	1
4901784	215	C	05/24/2021	10:48	-136.149	42.996	0	234.90	0	7.5370	0	37.5710	8	29.370	0	232.904	0	171.1	4	60.2	4	-1E+10	1	-1E+10	1	-1E+10	1	-1E+10	1	-1E+10	1	-1E+10	1
4901784	215	C	05/24/2021	10:48	-136.149	42.996	0	237.50	0	7.5250	0	37.5740	8	29.374	0	235.480	0	168.7	4	59.3	4	-1E+10	1	-1E+10	1	-1E+10	1	-1E+10	1	-1E+10	1	-1E+10	1
4901784	215	C	05/24/2021	10:48	-136.149	42.996	0	240.10	0	7.4860	0	37.5830	8	29.387	0	238.057	0	165.8	4	58.2	4	-1E+10	1	-1E+10	1	-1E+10	1	-1E+10	1	-1E+10	1	-1E+10	1
4901784	215	C	05/24/2021	10:48	-136.149	42.996	0	241.90	0	7.4820	0	37.5880	8	29.392	0	239.840	0	163.6	4	57.5	4	-1E+10	1	-1E+10	1	-1E+10	1	-1E+10	1	-1E+10	1	-1E+10	1
4901784	215	C	05/24/2021	10:48	-136.149	42.996	0	244.70	0	7.4610	0	37.6010	8	29.405	0	242.615	0	160.3	4	56.3	4	-1E+10	1	-1E+10	1	-1E+10	1	-1E+10	1	-1E+10	1	-1E+10	1
4901784	215	C	05/24/2021	10:48	-136.149	42.996	0	247.40	0	7.4480	0	37.6110	8	29.415	0	245.290	0	158.3	4	55.5	4	-1E+10	1	-1E+10	1	-1E+10	1	-1E+10	1	-1E+10	1	-1E+10	1
4901784	215	C	05/24/2021	10:48	-136.149	42.996	0	250.20	0	7.4370	0	37.6160	8	29.421	0	248.065	0	156.8	4	55.0	4	-1E+10	1	-1E+10	1	-1E+10	1	-1E+10	1	-1E+10	1	-1E+10	1
4901784	215	C	05/24/2021	10:48	-136.149	42.996	0	252.90	0	7.3920	0	37.6190	8	29.430	0	250.740	0	156.0	4	54.7	4	-1E+10	1	-1E+10	1	-1E+10	1	-1E+10	1	-1E+10	1	-1E+10	1
4901784	215	C	05/24/2021	10:48	-136.149	42.996	0	254.80	0	7.3720	0	37.6220	8	29.435	0	252.623	0	154.8	4	54.2	4	-1E+10	1	-1E+10	1	-1E+10	1	-1E+10	1	-1E+10	1	-1E+10	1
4901784	215	C	05/24/2021	10:48	-136.149	42.996	0	257.50	0	7.3600	0	37.6300	8	29.443	0	255.298	0	152.8	4	53.5	4	-1E+10	1	-1E+10	1	-1E+10	1	-1E+10	1	-1E+10	1	-1E+10	1
4901784	215	C	05/24/2021	10:48	-136.149	42.996	0	260.20	0	7.3320	0	37.6340	8	29.451	0	257.973	0	151.7	4	53.1	4	-1E+10	1	-1E+10	1	-1E+10	1	-1E+10	1	-1E+10	1	-1E+10	1
4901784	215	C	05/24/2021	10:48	-136.149	42.996	0	262.10	0	7.3280	0	37.6330	8	29.451	0	259.856	0	150.8	4	52.8	4	-1E+10	1	-1E+10	1	-1E+10	1	-1E+10	1	-1E+10	1	-1E+10	1
4901784	215	C	05/24/2021	10:48	-136.149	42.996	0	264.90	0	7.3040	0	37.6380	8	29.458	0	262.630	0	149.1	4	52.2	4	-1E+10	1	-1E+10	1	-1E+10	1	-1E+10	1	-1E+10	1	-1E+10	1
4901784	215	C	05/24/2021	10:48	-136.149	42.996	0	267.70	0	7.2890	0	37.6410	8	29.463	0	265.404	0	147.6	4	51.6	4	-1E+10	1	-1E+10	1	-1E+10	1	-1E+10	1	-1E+10	1	-1E+10	1
4901784	215	C	05/24/2021	10:48	-136.149	42.996	0	269.50	0	7.2700	0	37.6430	8	29.467	0	267.187	0	146.7	4	51.3	4	-1E+10	1	-1E+10	1	-1E+10	1	-1E+10	1	-1E+10	1	-1E+10	1
4901784	215	C	05/24/2021	10:48	-136.149	42.996	0	272.30	0	7.2330	0	37.6480	8	29.477	0	269.962	0	145.9	4	51.0	4	-1E+10	1	-1E+10	1	-1E+10	1	-1E+10	1	-1E+10	1	-1E+10	1
4901784	215	C	05/24/2021	10:48	-136.149	42.996	0	275.10	0	7.2100	0	37.6480	8	29.480	0	272.736	0	145.1	4	50.6	4	-1E+10	1	-1E+10	1	-1E+10	1	-1E+10	1	-1E+10	1	-1E+10	1
4901784	215	C	05/24/2021	10:48	-136.149	42.996	0	276.90	0	7.1740	0	37.6530	8	29.489	0	274.519	0	144.4	4	50.4	4	-1E+10	1	-1E+10	1	-1E+10	1	-1E+10	1	-1E+10	1	-1E+10	1
4901784	215	C	05/24/2021	10:48	-136.149	42.996	0	279.70	0	7.1510	0	37.6550	8	29.494	0	277.293	0	143.9	4	50.2	4	-1E+10	1	-1E+10	1	-1E+10	1	-1E+10	1	-1E+10	1	-1E+10	1
4901784	215	C	05/24/2021	10:48	-136.149	42.996	0	282.60	0	7.1240	0	37.6540	8	29.498	0	280.166	0	143.4	4	50.0	4	-1E+10	1	-1E+10	1	-1E+10	1	-1E+10	1	-1E+10	1	-1E+10	1
4901784	215	C	05/24/2021	10:48	-136.149	42.996	0	284.40	0	7.0930	0	37.6540	8	29.502	0	281.949	0	142.7	4	49.7	4	-1E+10	1	-1E+10	1	-1E+10	1	-1E+10	1	-1E+10	1	-1E+10	1
4901784	215	C	05/24/2021	10:48	-136.149	42.996	0	287.20	0	7.0720	0	37.6570	8	29.508	0	284.723	0	141.4	4	49.2	4	-1E+10	1	-1E+10	1	-1E+10	1	-1E+10	1	-1E+10	1	-1E+10	1
4901784	215	C	05/24/2021	10:48	-136.149	42.996	0	290.00	0	7.0290	0	37.6600	8	29.516	0	287.497	0	140.1	4	48.7	4	-1E+10	1	-1E+10	1	-1E+10	1	-1E+10	1	-1E+10	1	-1E+10	1
4901784	215	C	05/24/2021	10:48	-136.149	42.996	0	291.90	0	6.9980	0	37.6610	8	29.522	0	289.380	0	139.4	4	48.4	4	-1E+10	1	-1E+10	1	-1E+10	1	-1E+10	1	-1E+10	1	-1E+10	1
4901784	215	C	05/24/2021	10:48	-136.149	42.996	0	294.70	0	6.9670	0	37.6630	8	29.528	0	292.153	0	138.2	4	48.0	4	-1E+10	1	-1E+10	1	-1E+10	1	-1E+10	1	-1E+10	1	-1E+10	1
4901784	215	C	05/24/2021	10:48	-136.149	42.996	0	297.60	0	6.9230	0	37.6650	8	29.536	0	295.026	0	136.8	4	47.5	4	-1E+10	1	-1E+10	1	-1E+10	1	-1E+10	1	-1E+10	1	-1E+10	1
4901784	215	C	05/24/2021	10:48	-136.149	42.996	0	299.50	0	6.9080	0	37.6650	8	29.538	0	296.909	0	136.0	4	47.2	4	-1E+10	1	-1E+10	1	-1E+10	1	-1E+10	1	-1E+10	1	-1E+10	1
4901784	215	C	05/24/2021	10:48	-136.149	42.996	0	302.40	0	6.8660	0	37.6670	8	29.546	0	299.781	0	134.5	4	46.6	4	-1E+10	1	-1E+10	1	-1E+10	1	-1E+10	1	-1E+10	1	-1E+10	1
4901784	215	C	05/24/2021	10:48	-136.149	42.996	0	305.30	0	6.8320	0	37.6680	8	29.551	0	302.654	0	133.0	4	46.1	4	-1E+10	1	-1E+10	1	-1E+10	1	-1E+10	1	-1E+10	1	-1E+10	1
4901784	215	C	05/24/2021	10:48	-136.149	42.996	0	307.10	0	6.8110	0	37.6680	8	29.554	0	304.437	0	132.0	4	45.7	4	-1E+10	1	-1E+10	1	-1E+10	1	-1E+10	1	-1E+10	1	-1E+10	1
4901784	215	C	05/24/2021	10:48	-136.149	42.996	0	310.00	0	6.7620	0	37.6730	8	29.565	0	307.310	0	130.3	4	45.1	4	-1E+10	1	-1E+10	1	-1E+10	1	-1E+10	1	-1E+10	1	-1E+10	1
4901784	215	C	05/24/2021	10:48	-136.149	42.996	0	312.90	0	6.7140	0	37.6740	8	29.573	0	310.183	0	128.9	4	44.5	4	-1E+10	1	-1E+10	1	-1E+10	1	-1E+10	1	-1E+10	1	-1E+10	1
4901784	215	C	05/24/2021	10:48	-136.149	42.996	0	314.80	0	6.7040	0	37.6740	8	29.574	0	312.065	0	127.9	4	44.2	4	-1E+10	1	-1E+10	1	-1E+10	1	-1E+10	1	-1E+10	1	-1E+10	1
4901784	215	C	05/24/2021	10:48	-136.149	42.996	0	317.60	0	6.6670	0	37.6750	8	29.580	0	314.838	0	126.2	4	43.5	4	-1E+10	1	-1E+10	1	-1E+10	1	-1E+10	1	-1E+10	1	-1E+10	1
4901784	215	C	05/24/2021	10:48	-136.149	42.996	0	320.40	0	6.6300	0	37.6760	8	29.587	0	317.612	0	124.5	4	42.9	4	-1E+10	1	-1E+10	1	-1E+10	1	-1E+10	1	-1E+10	1	-1E+10	1
4901784	215	C	05/24/2021	10:48	-136.149	42.996	0	322.30	0	6.5970	0	37.6790	8	29.594	0	319.494	0	123.4	4	42.5	4	-1E+10	1	-1E+10	1	-1E+10	1	-1E+10	1	-1E+10	1	-1E+10	1
4901784	215	C	05/24/2021	10:48	-136.149	42.996	0	325.20	0	6.5580	0	37.6820	8	29.601	0	322.366	0	122.0	4	42.0	4	-1E+10	1	-1E+10	1	-1E+10	1	-1E+10	1	-1E+10	1	-1E+10	1
4901784	215	C	05/24/2021	10:48	-136.149	42.996	0	328.10	0	6.5270	0	37.6820	8	29.606	0	325.239	0	120.8	4	41.5	4	-1E+10	1	-1E+10	1	-1E+10	1	-1E+10	1	-1E+10	1	-1E+10	1
4901784	215	C	05/24/2021	10:48	-136.149	42.996	0	330.00	0	6.5020	0	37.6830	8	29.610	0	327.121	0	119.9	4	41.2	4	-1E+10	1	-1E+10	1	-1E+10	1	-1E+10	1	-1E+10	1	-1E+10	1
4901784	215	C	05/24/2021	10:48	-136.149	42.996	0	331.90	0	6.4730	0	37.6840	8	29.615	0	329.002	0	118.9	4	40.8	4	-1E+10	1	-1E+10	1	-1E+10	1	-1E+10	1	-1E+10	1	-1E+10	1
4901784	215	C	05/24/2021	10:48	-136.149	42.996	0	334.80	0	6.4240	0	37.6860	8	29.623	0	331.875	0	117.9	4	40.4	4	-1E+10	1	-1E+10	1	-1E+10	1	-1E+10	1	-1E+10	1	-1E+10	1
4901784	215	C	05/24/2021	10:48	-136.149	42.996	0	337.70	0	6.3950	0	37.6820	8	29.624	0	334.747	0	116.8	4	40.0	4	-1E+10	1	-1E+10	1	-1E+10	1	-1E+10	1	-1E+10	1	-1E+10	1
4901784	215	C	05/24/2021	10:48	-136.149	42.996	0	339.60	0	6.3410	0	37.6880	8	29.637	0	336.629	0	115.6	4	39.6	4	-1E+10	1	-1E+10	1	-1E+10	1	-1E+10	1	-1E+10	1	-1E+10	1
4901784	215	C	05/24/2021	10:48	-136.149	42.996	0	342.50	0	6.2830	0	37.6900	8	29.646	0	339.501	0	114.1	4	39.0	4	-1E+10	1	-1E+10	1	-1E+10	1	-1E+10	1	-1E+10	1	-1E+10	1
4901784	215	C	05/24/2021	10:48	-136.149	42.996	0	345.30	0	6.2500	0	37.6920	8	29.652	0	342.274	0	112.6	4	38.5	4	-1E+10	1	-1E+10	1	-1E+10	1	-1E+10	1	-1E+10	1	-1E+10	1
4901784	215	C	05/24/2021	10:48	-136.149	42.996	0	347.20	0	6.2450	0	37.6900	8	29.652	0	344.156	0	111.5	4	38.1	4	-1E+10	1	-1E+10	1	-1E+10	1	-1E+10	1	-1E+10	1	-1E+10	1
4901784	215	C	05/24/2021	10:48	-136.149	42.996	0	350.00	0	6.2060	0	37.6910	8	29.658	0	346.929	0	109.3	4	37.3	4	-1E+10	1	-1E+10	1	-1E+10	1	-1E+10	1	-1E+10	1	-1E+10	1
4901784	215	C	05/24/2021	10:48	-136.149	42.996	0	352.90	0	6.1390	0	37.6960	8	29.671	0	349.801	0	107.5	4	36.6	4	-1E+10	1	-1E+10	1	-1E+10	1	-1E+10	1	-1E+10	1	-1E+10	1
4901784	215	C	05/24/2021	10:48	-136.149	42.996	0	354.90	0	6.1260	0	37.6930	8	29.670	0	351.782	0	106.4	4	36.2	4	-1E+10	1	-1E+10	1	-1E+10	1	-1E+10	1	-1E+10	1	-1E+10	1
4901784	215	C	05/24/2021	10:48	-136.149	42.996	0	357.70	0	6.0390	0	37.7020	8	29.689	0	354.555	0	104.5	4	35.5	4	-1E+10	1	-1E+10	1	-1E+10	1	-1E+10	1	-1E+10	1	-1E+10	1
4901784	215	C	05/24/2021	10:48	-136.149	42.996	0	360.60	0	6.0080	0	37.7040	8	29.695	0	357.427	0	103.0	4	35.0	4	-1E+10	1	-1E+10	1	-1E+10	1	-1E+10	1	-1E+10	1	-1E+10	1
4901784	215	C	05/24/2021	10:48	-136.149	42.996	0	362.50	0	5.9900	0	37.7060	8	29.699	0	359.309	0	102.0	4	34.6	4	-1E+10	1	-1E+10	1	-1E+10	1	-1E+10	1	-1E+10	1	-1E+10	1
4901784	215	C	05/24/2021	10:48	-136.149	42.996	0	364.40	0	5.9810	0	37.7040	8	29.699	0	361.190	0	101.0	4	34.3	4	-1E+10	1	-1E+10	1	-1E+10	1	-1E+10	1	-1E+10	1	-1E+10	1
4901784	215	C	05/24/2021	10:48	-136.149	42.996	0	367.20	0	5.9420	0	37.7080	8	29.707	0	363.963	0	99.4	4	33.7	4	-1E+10	1	-1E+10	1	-1E+10	1	-1E+10	1	-1E+10	1	-1E+10	1
4901784	215	C	05/24/2021	10:48	-136.149	42.996	0	370.10	0	5.9190	0	37.7100	8	29.712	0	366.835	0	97.7	4	33.1	4	-1E+10	1	-1E+10	1	-1E+10	1	-1E+10	1	-1E+10	1	-1E+10	1
4901784	215	C	05/24/2021	10:48	-136.149	42.996	0	372.00	0	5.8960	0	37.7120	8	29.716	0	368.717	0	96.5	4	32.7	4	-1E+10	1	-1E+10	1	-1E+10	1	-1E+10	1	-1E+10	1	-1E+10	1
4901784	215	C	05/24/2021	10:48	-136.149	42.996	0	374.80	0	5.8600	0	37.7150	8	29.724	0	371.490	0	94.9	4	32.1	4	-1E+10	1	-1E+10	1	-1E+10	1	-1E+10	1	-1E+10	1	-1E+10	1
4901784	215	C	05/24/2021	10:48	-136.149	42.996	0	377.60	0	5.8400	0	37.7170	8	29.728	0	374.262	0	93.2	4	31.6	4	-1E+10	1	-1E+10	1	-1E+10	1	-1E+10	1	-1E+10	1	-1E+10	1
4901784	215	C	05/24/2021	10:48	-136.149	42.996	0	379.50	0	5.8270	0	37.7170	8	29.730	0	376.144	0	92.0	4	31.1	4	-1E+10	1	-1E+10	1	-1E+10	1	-1E+10	1	-1E+10	1	-1E+10	1
4901784	215	C	05/24/2021	10:48	-136.149	42.996	0	382.40	0	5.7790	0	37.7240	8	29.742	0	379.015	0	90.6	4	30.6	4	-1E+10	1	-1E+10	1	-1E+10	1	-1E+10	1	-1E+10	1	-1E+10	1
4901784	215	C	05/24/2021	10:48	-136.149	42.996	0	385.20	0	5.7480	0	37.7260	8	29.747	0	381.788	0	89.9	4	30.4	4	-1E+10	1	-1E+10	1	-1E+10	1	-1E+10	1	-1E+10	1	-1E+10	1
4901784	215	C	05/24/2021	10:48	-136.149	42.996	0	387.10	0	5.7400	0	37.7260	8	29.748	0	383.670	0	89.7	4	30.3	4	-1E+10	1	-1E+10	1	-1E+10	1	-1E+10	1	-1E+10	1	-1E+10	1
4901784	215	C	05/24/2021	10:48	-136.149	42.996	0	389.90	0	5.7210	0	37.7260	8	29.751	0	386.442	0	89.1	4	30.1	4	-1E+10	1	-1E+10	1	-1E+10	1	-1E+10	1	-1E+10	1	-1E+10	1
4901784	215	C	05/24/2021	10:48	-136.149	42.996	0	392.80	0	5.7030	0	37.7280	8	29.755	0	389.314	0	88.4	4	29.8	4	-1E+10	1	-1E+10	1	-1E+10	1	-1E+10	1	-1E+10	1	-1E+10	1
4901784	215	C	05/24/2021	10:48	-136.149	42.996	0	394.70	0	5.6620	0	37.7300	8	29.762	0	391.195	0	88.1	4	29.7	4	-1E+10	1	-1E+10	1	-1E+10	1	-1E+10	1	-1E+10	1	-1E+10	1
4901784	215	C	05/24/2021	10:48	-136.149	42.996	0	397.50	0	5.6690	0	37.7290	8	29.760	0	393.967	0	87.4	4	29.5	4	-1E+10	1	-1E+10	1	-1E+10	1	-1E+10	1	-1E+10	1	-1E+10	1
4901784	215	C	05/24/2021	10:48	-136.149	42.996	0	400.30	0	5.6450	0	37.7290	8	29.763	0	396.740	0	86.7	4	29.2	4	-1E+10	1	-1E+10	1	-1E+10	1	-1E+10	1	-1E+10	1	-1E+10	1
4901784	215	C	05/24/2021	10:48	-136.149	42.996	0	402.20	0	5.6240	0	37.7290	8	29.766	0	398.621	0	86.5	4	29.2	4	-1E+10	1	-1E+10	1	-1E+10	1	-1E+10	1	-1E+10	1	-1E+10	1
4901784	215	C	05/24/2021	10:48	-136.149	42.996	0	404.70	0	5.5530	0	37.7280	8	29.774	0	401.097	0	86.6	4	29.1	4	-1E+10	1	-1E+10	1	-1E+10	1	-1E+10	1	-1E+10	1	-1E+10	1
4901784	215	C	05/24/2021	10:48	-136.149	42.996	0	407.40	0	5.5000	0	37.7290	8	29.782	0	403.770	0	85.7	4	28.8	4	-1E+10	1	-1E+10	1	-1E+10	1	-1E+10	1	-1E+10	1	-1E+10	1
4901784	215	C	05/24/2021	10:48	-136.149	42.996	0	409.80	0	5.4920	0	37.7340	8	29.787	0	406.146	0	84.7	4	28.5	4	-1E+10	1	-1E+10	1	-1E+10	1	-1E+10	1	-1E+10	1	-1E+10	1
4901784	215	C	05/24/2021	10:48	-136.149	42.996	0	412.20	0	5.4510	0	37.7350	8	29.793	0	408.522	0	83.9	4	28.1	4	-1E+10	1	-1E+10	1	-1E+10	1	-1E+10	1	-1E+10	1	-1E+10	1
4901784	215	C	05/24/2021	10:48	-136.149	42.996	0	415.30	0	5.4260	0	37.7370	8	29.798	0	411.592	0	82.1	4	27.5	4	-1E+10	1	-1E+10	1	-1E+10	1	-1E+10	1	-1E+10	1	-1E+10	1
4901784	215	C	05/24/2021	10:48	-136.149	42.996	0	417.70	0	5.4210	0	37.7390	8	29.800	0	413.968	0	80.3	4	26.9	4	-1E+10	1	-1E+10	1	-1E+10	1	-1E+10	1	-1E+10	1	-1E+10	1
4901784	215	C	05/24/2021	10:48	-136.149	42.996	0	420.20	0	5.3940	0	37.7490	8	29.812	0	416.443	0	80.3	4	26.9	4	-1E+10	1	-1E+10	1	-1E+10	1	-1E+10	1	-1E+10	1	-1E+10	1
4901784	215	C	05/24/2021	10:48	-136.149	42.996	0	422.70	0	5.3760	0	37.7460	8	29.812	0	418.918	0	80.6	4	27.0	4	-1E+10	1	-1E+10	1	-1E+10	1	-1E+10	1	-1E+10	1	-1E+10	1
4901784	215	C	05/24/2021	10:48	-136.149	42.996	0	425.20	0	5.3410	0	37.7480	8	29.818	0	421.393	0	81.0	4	27.1	4	-1E+10	1	-1E+10	1	-1E+10	1	-1E+10	1	-1E+10	1	-1E+10	1
4901784	215	C	05/24/2021	10:48	-136.149	42.996	0	427.70	0	5.3240	0	37.7460	8	29.818	0	423.868	0	81.3	4	27.2	4	-1E+10	1	-1E+10	1	-1E+10	1	-1E+10	1	-1E+10	1	-1E+10	1
4901784	215	C	05/24/2021	10:48	-136.149	42.996	0	430.20	0	5.2930	0	37.7460	8	29.822	0	426.343	0	81.4	4	27.2	4	-1E+10	1	-1E+10	1	-1E+10	1	-1E+10	1	-1E+10	1	-1E+10	1
4901784	215	C	05/24/2021	10:48	-136.149	42.996	0	432.60	0	5.2720	0	37.7470	8	29.826	0	428.719	0	81.1	4	27.1	4	-1E+10	1	-1E+10	1	-1E+10	1	-1E+10	1	-1E+10	1	-1E+10	1
4901784	215	C	05/24/2021	10:48	-136.149	42.996	0	435.20	0	5.2750	0	37.7480	8	29.826	0	431.293	0	80.3	4	26.8	4	-1E+10	1	-1E+10	1	-1E+10	1	-1E+10	1	-1E+10	1	-1E+10	1
4901784	215	C	05/24/2021	10:48	-136.149	42.996	0	437.70	0	5.2800	0	37.7470	8	29.825	0	433.768	0	79.5	4	26.6	4	-1E+10	1	-1E+10	1	-1E+10	1	-1E+10	1	-1E+10	1	-1E+10	1
4901784	215	C	05/24/2021	10:48	-136.149	42.996	0	440.30	0	5.2380	0	37.7490	8	29.832	0	436.342	0	79.2	4	26.5	4	-1E+10	1	-1E+10	1	-1E+10	1	-1E+10	1	-1E+10	1	-1E+10	1
4901784	215	C	05/24/2021	10:48	-136.149	42.996	0	442.80	0	5.2040	0	37.7490	8	29.836	0	438.817	0	78.7	4	26.3	4	-1E+10	1	-1E+10	1	-1E+10	1	-1E+10	1	-1E+10	1	-1E+10	1
4901784	215	C	05/24/2021	10:48	-136.149	42.996	0	444.50	0	5.1760	0	37.7500	8	29.840	0	440.500	0	78.1	4	26.1	4	-1E+10	1	-1E+10	1	-1E+10	1	-1E+10	1	-1E+10	1	-1E+10	1
4901784	215	C	05/24/2021	10:48	-136.149	42.996	0	447.10	0	5.1310	0	37.7540	8	29.849	0	443.074	0	77.3	4	25.8	4	-1E+10	1	-1E+10	1	-1E+10	1	-1E+10	1	-1E+10	1	-1E+10	1
4901784	215	C	05/24/2021	10:48	-136.149	42.996	0	449.70	0	5.1090	0	37.7550	8	29.853	0	445.648	0	76.4	4	25.4	4	-1E+10	1	-1E+10	1	-1E+10	1	-1E+10	1	-1E+10	1	-1E+10	1
4901784	215	C	05/24/2021	10:48	-136.149	42.996	0	452.40	0	5.0780	0	37.7610	8	29.861	0	448.320	0	75.2	4	25.0	4	-1E+10	1	-1E+10	1	-1E+10	1	-1E+10	1	-1E+10	1	-1E+10	1
4901784	215	C	05/24/2021	10:48	-136.149	42.996	0	455.10	0	5.0680	0	37.7620	8	29.863	0	450.993	0	74.1	4	24.7	4	-1E+10	1	-1E+10	1	-1E+10	1	-1E+10	1	-1E+10	1	-1E+10	1
4901784	215	C	05/24/2021	10:48	-136.149	42.996	0	457.70	0	5.0580	0	37.7640	8	29.866	0	453.567	0	72.4	4	24.1	4	-1E+10	1	-1E+10	1	-1E+10	1	-1E+10	1	-1E+10	1	-1E+10	1
4901784	215	C	05/24/2021	10:48	-136.149	42.996	0	460.30	0	5.0570	0	37.7700	8	29.871	0	456.140	0	70.3	4	23.4	4	-1E+10	1	-1E+10	1	-1E+10	1	-1E+10	1	-1E+10	1	-1E+10	1
4901784	215	C	05/24/2021	10:48	-136.149	42.996	0	462.10	0	5.0460	0	37.7700	8	29.873	0	457.922	0	69.4	4	23.1	4	-1E+10	1	-1E+10	1	-1E+10	1	-1E+10	1	-1E+10	1	-1E+10	1
4901784	215	C	05/24/2021	10:48	-136.149	42.996	0	464.70	0	5.0270	0	37.7760	8	29.880	0	460.496	0	67.5	4	22.4	4	-1E+10	1	-1E+10	1	-1E+10	1	-1E+10	1	-1E+10	1	-1E+10	1
4901784	215	C	05/24/2021	10:48	-136.149	42.996	0	467.40	0	5.0290	0	37.7780	8	29.881	0	463.168	0	66.1	4	22.0	4	-1E+10	1	-1E+10	1	-1E+10	1	-1E+10	1	-1E+10	1	-1E+10	1
4901784	215	C	05/24/2021	10:48	-136.149	42.996	0	470.00	0	4.9940	0	37.7810	8	29.888	0	465.742	0	65.7	4	21.8	4	-1E+10	1	-1E+10	1	-1E+10	1	-1E+10	1	-1E+10	1	-1E+10	1
4901784	215	C	05/24/2021	10:48	-136.149	42.996	0	472.70	0	4.9080	0	37.7870	8	29.903	0	468.414	0	65.2	4	21.6	4	-1E+10	1	-1E+10	1	-1E+10	1	-1E+10	1	-1E+10	1	-1E+10	1
4901784	215	C	05/24/2021	10:48	-136.149	42.996	0	475.40	0	4.8780	0	37.7910	8	29.910	0	471.087	0	64.2	4	21.3	4	-1E+10	1	-1E+10	1	-1E+10	1	-1E+10	1	-1E+10	1	-1E+10	1
4901784	215	C	05/24/2021	10:48	-136.149	42.996	0	478.00	0	4.8640	0	37.7940	8	29.914	0	473.660	0	62.9	4	20.8	4	-1E+10	1	-1E+10	1	-1E+10	1	-1E+10	1	-1E+10	1	-1E+10	1
4901784	215	C	05/24/2021	10:48	-136.149	42.996	0	479.80	0	4.8690	0	37.7970	8	29.916	0	475.442	0	62.0	4	20.5	4	-1E+10	1	-1E+10	1	-1E+10	1	-1E+10	1	-1E+10	1	-1E+10	1
4901784	215	C	05/24/2021	10:48	-136.149	42.996	0	482.50	0	4.8640	0	37.8000	8	29.919	0	478.114	0	61.2	4	20.3	4	-1E+10	1	-1E+10	1	-1E+10	1	-1E+10	1	-1E+10	1	-1E+10	1
4901784	215	C	05/24/2021	10:48	-136.149	42.996	0	485.10	0	4.8640	0	37.7990	8	29.918	0	480.688	0	60.5	4	20.0	4	-1E+10	1	-1E+10	1	-1E+10	1	-1E+10	1	-1E+10	1	-1E+10	1
4901784	215	C	05/24/2021	10:48	-136.149	42.996	0	486.90	0	4.8320	0	37.8020	8	29.924	0	482.469	0	60.3	4	19.9	4	-1E+10	1	-1E+10	1	-1E+10	1	-1E+10	1	-1E+10	1	-1E+10	1
4901784	215	C	05/24/2021	10:48	-136.149	42.996	0	489.70	0	4.7850	0	37.8070	8	29.934	0	485.240	0	60.0	4	19.9	4	-1E+10	1	-1E+10	1	-1E+10	1	-1E+10	1	-1E+10	1	-1E+10	1
4901784	215	C	05/24/2021	10:48	-136.149	42.996	0	492.40	0	4.7620	0	37.8080	8	29.938	0	487.913	0	59.6	4	19.7	4	-1E+10	1	-1E+10	1	-1E+10	1	-1E+10	1	-1E+10	1	-1E+10	1
4901784	215	C	05/24/2021	10:48	-136.149	42.996	0	495.20	0	4.7490	0	37.8090	8	29.940	0	490.684	0	58.6	4	19.4	4	-1E+10	1	-1E+10	1	-1E+10	1	-1E+10	1	-1E+10	1	-1E+10	1
4901784	215	C	05/24/2021	10:48	-136.149	42.996	0	498.40	0	4.7440	0	37.8140	8	29.945	0	493.851	0	57.3	4	18.9	4	-1E+10	1	-1E+10	1	-1E+10	1	-1E+10	1	-1E+10	1	-1E+10	1
4901784	215	C	05/24/2021	10:48	-136.149	42.996	0	500.30	0	4.7430	0	37.8180	8	29.948	0	495.731	0	56.5	4	18.7	4	-1E+10	1	-1E+10	1	-1E+10	1	-1E+10	1	-1E+10	1	-1E+10	1
4901784	215	C	05/24/2021	10:48	-136.149	42.996	0	504.90	0	4.7140	0	37.8230	8	29.956	0	500.284	0	55.2	4	18.2	4	-1E+10	1	-1E+10	1	-1E+10	1	-1E+10	1	-1E+10	1	-1E+10	1
4901784	215	C	05/24/2021	10:48	-136.149	42.996	0	509.60	0	4.6780	0	37.8290	8	29.965	0	504.935	0	53.8	4	17.7	4	-1E+10	1	-1E+10	1	-1E+10	1	-1E+10	1	-1E+10	1	-1E+10	1
4901784	215	C	05/24/2021	10:48	-136.149	42.996	0	514.40	0	4.6530	0	37.8350	8	29.972	0	509.685	0	52.0	4	17.1	4	-1E+10	1	-1E+10	1	-1E+10	1	-1E+10	1	-1E+10	1	-1E+10	1
4901784	215	C	05/24/2021	10:48	-136.149	42.996	0	520.00	0	4.6660	0	37.8470	8	29.981	0	515.227	0	49.1	4	16.2	4	-1E+10	1	-1E+10	1	-1E+10	1	-1E+10	1	-1E+10	1	-1E+10	1
4901784	215	C	05/24/2021	10:48	-136.149	42.996	0	525.70	0	4.6750	0	37.8530	8	29.984	0	520.867	0	47.3	4	15.6	4	-1E+10	1	-1E+10	1	-1E+10	1	-1E+10	1	-1E+10	1	-1E+10	1
4901784	215	C	05/24/2021	10:48	-136.149	42.996	0	530.60	0	4.6320	0	37.8600	8	29.995	0	525.716	0	45.7	4	15.1	4	-1E+10	1	-1E+10	1	-1E+10	1	-1E+10	1	-1E+10	1	-1E+10	1
4901784	215	C	05/24/2021	10:48	-136.149	42.996	0	535.60	0	4.6010	0	37.8690	8	30.006	0	530.664	0	44.2	4	14.6	4	-1E+10	1	-1E+10	1	-1E+10	1	-1E+10	1	-1E+10	1	-1E+10	1
4901784	215	C	05/24/2021	10:48	-136.149	42.996	0	540.60	0	4.5950	0	37.8740	8	30.011	0	535.611	0	43.2	4	14.2	4	-1E+10	1	-1E+10	1	-1E+10	1	-1E+10	1	-1E+10	1	-1E+10	1
4901784	215	C	05/24/2021	10:48	-136.149	42.996	0	545.70	0	4.5900	0	37.8750	8	30.012	0	540.658	0	42.4	4	13.9	4	-1E+10	1	-1E+10	1	-1E+10	1	-1E+10	1	-1E+10	1	-1E+10	1
4901784	215	C	05/24/2021	10:48	-136.149	42.996	0	550.70	0	4.5350	0	37.8810	8	30.023	0	545.605	0	41.2	4	13.5	4	-1E+10	1	-1E+10	1	-1E+10	1	-1E+10	1	-1E+10	1	-1E+10	1
4901784	215	C	05/24/2021	10:48	-136.149	42.996	0	555.00	0	4.5140	0	37.8870	8	30.031	0	549.859	0	40.1	4	13.2	4	-1E+10	1	-1E+10	1	-1E+10	1	-1E+10	1	-1E+10	1	-1E+10	1
4901784	215	C	05/24/2021	10:48	-136.149	42.996	0	559.30	0	4.5080	0	37.8920	8	30.035	0	554.114	0	39.0	4	12.8	4	-1E+10	1	-1E+10	1	-1E+10	1	-1E+10	1	-1E+10	1	-1E+10	1
4901784	215	C	05/24/2021	10:48	-136.149	42.996	0	564.50	0	4.5050	0	37.8970	8	30.040	0	559.259	0	37.6	4	12.4	4	-1E+10	1	-1E+10	1	-1E+10	1	-1E+10	1	-1E+10	1	-1E+10	1
4901784	215	C	05/24/2021	10:48	-136.149	42.996	0	569.60	0	4.4860	0	37.9070	8	30.050	0	564.304	0	35.9	4	11.8	4	-1E+10	1	-1E+10	1	-1E+10	1	-1E+10	1	-1E+10	1	-1E+10	1
4901784	215	C	05/24/2021	10:48	-136.149	42.996	0	574.80	0	4.4980	0	37.9160	8	30.056	0	569.449	0	34.1	4	11.2	4	-1E+10	1	-1E+10	1	-1E+10	1	-1E+10	1	-1E+10	1	-1E+10	1
4901784	215	C	05/24/2021	10:48	-136.149	42.996	0	580.00	0	4.4910	0	37.9230	8	30.062	0	574.593	0	32.8	4	10.8	4	-1E+10	1	-1E+10	1	-1E+10	1	-1E+10	1	-1E+10	1	-1E+10	1
4901784	215	C	05/24/2021	10:48	-136.149	42.996	0	585.30	0	4.4640	0	37.9280	8	30.070	0	579.836	0	31.7	4	10.4	4	-1E+10	1	-1E+10	1	-1E+10	1	-1E+10	1	-1E+10	1	-1E+10	1
4901784	215	C	05/24/2021	10:48	-136.149	42.996	0	590.60	0	4.4350	0	37.9350	8	30.079	0	585.080	0	30.7	4	10.1	4	-1E+10	1	-1E+10	1	-1E+10	1	-1E+10	1	-1E+10	1	-1E+10	1
4901784	215	C	05/24/2021	10:48	-136.149	42.996	0	594.90	0	4.4150	0	37.9400	8	30.085	0	589.333	0	29.8	4	9.8	4	-1E+10	1	-1E+10	1	-1E+10	1	-1E+10	1	-1E+10	1	-1E+10	1
4901784	215	C	05/24/2021	10:48	-136.149	42.996	0	599.40	0	4.4010	0	37.9460	8	30.091	0	593.785	0	28.7	4	9.4	4	-1E+10	1	-1E+10	1	-1E+10	1	-1E+10	1	-1E+10	1	-1E+10	1
4901784	215	C	05/24/2021	10:48	-136.149	42.996	0	604.60	0	4.3830	0	37.9550	8	30.101	0	598.929	0	27.4	4	9.0	4	-1E+10	1	-1E+10	1	-1E+10	1	-1E+10	1	-1E+10	1	-1E+10	1
4901784	215	C	05/24/2021	10:48	-136.149	42.996	0	609.90	0	4.3740	0	37.9630	8	30.108	0	604.171	0	26.1	4	8.6	4	-1E+10	1	-1E+10	1	-1E+10	1	-1E+10	1	-1E+10	1	-1E+10	1
4901784	215	C	05/24/2021	10:48	-136.149	42.996	0	615.20	0	4.3700	0	37.9730	8	30.117	0	609.414	0	25.0	4	8.2	4	-1E+10	1	-1E+10	1	-1E+10	1	-1E+10	1	-1E+10	1	-1E+10	1
4901784	215	C	05/24/2021	10:48	-136.149	42.996	0	620.60	0	4.3670	0	37.9790	8	30.122	0	614.755	0	24.1	4	7.9	4	-1E+10	1	-1E+10	1	-1E+10	1	-1E+10	1	-1E+10	1	-1E+10	1
4901784	215	C	05/24/2021	10:48	-136.149	42.996	0	625.00	0	4.3470	0	37.9830	8	30.127	0	619.107	0	23.5	4	7.7	4	-1E+10	1	-1E+10	1	-1E+10	1	-1E+10	1	-1E+10	1	-1E+10	1
4901784	215	C	05/24/2021	10:48	-136.149	42.996	0	629.50	0	4.3280	0	37.9880	8	30.134	0	623.558	0	22.8	4	7.5	4	-1E+10	1	-1E+10	1	-1E+10	1	-1E+10	1	-1E+10	1	-1E+10	1
4901784	215	C	05/24/2021	10:48	-136.149	42.996	0	634.80	0	4.3070	0	37.9960	8	30.142	0	628.800	0	21.9	4	7.2	4	-1E+10	1	-1E+10	1	-1E+10	1	-1E+10	1	-1E+10	1	-1E+10	1
4901784	215	C	05/24/2021	10:48	-136.149	42.996	0	640.10	0	4.2950	0	38.0000	8	30.147	0	634.042	0	21.1	4	6.9	4	-1E+10	1	-1E+10	1	-1E+10	1	-1E+10	1	-1E+10	1	-1E+10	1
4901784	215	C	05/24/2021	10:48	-136.149	42.996	0	645.50	0	4.2770	0	38.0070	8	30.155	0	639.382	0	20.3	4	6.6	4	-1E+10	1	-1E+10	1	-1E+10	1	-1E+10	1	-1E+10	1	-1E+10	1
4901784	215	C	05/24/2021	10:48	-136.149	42.996	0	650.00	0	4.2690	0	38.0100	8	30.158	0	643.833	0	19.8	4	6.5	4	-1E+10	1	-1E+10	1	-1E+10	1	-1E+10	1	-1E+10	1	-1E+10	1
4901784	215	C	05/24/2021	10:48	-136.149	42.996	0	654.40	0	4.2580	0	38.0130	8	30.162	0	648.184	0	19.3	4	6.3	4	-1E+10	1	-1E+10	1	-1E+10	1	-1E+10	1	-1E+10	1	-1E+10	1
4901784	215	C	05/24/2021	10:48	-136.149	42.996	0	659.70	0	4.2400	0	38.0200	8	30.169	0	653.425	0	18.6	4	6.1	4	-1E+10	1	-1E+10	1	-1E+10	1	-1E+10	1	-1E+10	1	-1E+10	1
4901784	215	C	05/24/2021	10:48	-136.149	42.996	0	665.10	0	4.2290	0	38.0250	8	30.175	0	658.765	0	18.0	4	5.9	4	-1E+10	1	-1E+10	1	-1E+10	1	-1E+10	1	-1E+10	1	-1E+10	1
4901784	215	C	05/24/2021	10:48	-136.149	42.996	0	670.40	0	4.2040	0	38.0280	8	30.180	0	664.007	0	17.8	4	5.8	4	-1E+10	1	-1E+10	1	-1E+10	1	-1E+10	1	-1E+10	1	-1E+10	1
4901784	215	C	05/24/2021	10:48	-136.149	42.996	0	674.90	0	4.1810	0	38.0260	8	30.181	0	668.456	0	17.7	4	5.8	4	-1E+10	1	-1E+10	1	-1E+10	1	-1E+10	1	-1E+10	1	-1E+10	1
4901784	215	C	05/24/2021	10:48	-136.149	42.996	0	679.40	0	4.1620	0	38.0220	8	30.180	0	672.906	0	17.5	4	5.7	4	-1E+10	1	-1E+10	1	-1E+10	1	-1E+10	1	-1E+10	1	-1E+10	1
4901784	215	C	05/24/2021	10:48	-136.149	42.996	0	684.80	0	4.1640	0	38.0170	8	30.176	0	678.246	0	16.9	4	5.5	4	-1E+10	1	-1E+10	1	-1E+10	1	-1E+10	1	-1E+10	1	-1E+10	1
4901784	215	C	05/24/2021	10:48	-136.149	42.996	0	690.20	0	4.1550	0	38.0110	8	30.172	0	683.585	0	16.5	4	5.4	4	-1E+10	1	-1E+10	1	-1E+10	1	-1E+10	1	-1E+10	1	-1E+10	1
4901784	215	C	05/24/2021	10:48	-136.149	42.996	0	695.60	0	4.1220	8	37.9960	8	30.164	0	688.925	0	16.3	4	5.3	4	-1E+10	1	-1E+10	1	-1E+10	1	-1E+10	1	-1E+10	1	-1E+10	1
4901784	215	C	05/24/2021	10:48	-136.149	42.996	0	700.00	0	4.1160	8	37.9450	8	30.124	0	693.275	0	16.0	4	5.2	4	-1E+10	1	-1E+10	1	-1E+10	1	-1E+10	1	-1E+10	1	-1E+10	1
4901784	215	C	05/24/2021	10:48	-136.149	42.996	0	704.60	0	4.1100	8	37.8630	8	30.060	0	697.823	0	15.6	4	5.1	4	-1E+10	1	-1E+10	1	-1E+10	1	-1E+10	1	-1E+10	1	-1E+10	1
4901784	215	C	05/24/2021	10:48	-136.149	42.996	0	710.00	0	4.1000	8	37.7910	8	30.003	0	703.162	0	15.1	4	4.9	4	-1E+10	1	-1E+10	1	-1E+10	1	-1E+10	1	-1E+10	1	-1E+10	1
4901784	215	C	05/24/2021	10:48	-136.149	42.996	0	715.50	0	4.0870	8	37.7090	8	29.940	0	708.600	0	14.5	4	4.7	4	-1E+10	1	-1E+10	1	-1E+10	1	-1E+10	1	-1E+10	1	-1E+10	1
4901784	215	C	05/24/2021	10:48	-136.149	42.996	0	720.10	0	4.0790	8	37.6530	8	29.896	0	713.148	0	14.2	4	4.6	4	-1E+10	1	-1E+10	1	-1E+10	1	-1E+10	1	-1E+10	1	-1E+10	1
4901784	215	C	05/24/2021	10:48	-136.149	42.996	0	724.80	0	4.0750	8	37.6280	8	29.877	0	717.794	0	13.9	4	4.5	4	-1E+10	1	-1E+10	1	-1E+10	1	-1E+10	1	-1E+10	1	-1E+10	1
4901784	215	C	05/24/2021	10:48	-136.149	42.996	0	730.50	0	4.0650	8	37.5840	8	29.843	0	723.429	0	13.5	4	4.4	4	-1E+10	1	-1E+10	1	-1E+10	1	-1E+10	1	-1E+10	1	-1E+10	1
4901784	215	C	05/24/2021	10:48	-136.149	42.996	0	735.20	0	4.0550	8	37.5410	8	29.810	0	728.075	0	13.2	4	4.3	4	-1E+10	1	-1E+10	1	-1E+10	1	-1E+10	1	-1E+10	1	-1E+10	1
4901784	215	C	05/24/2021	10:48	-136.149	42.996	0	739.80	0	4.0450	8	37.5010	8	29.779	0	732.623	0	12.9	4	4.2	4	-1E+10	1	-1E+10	1	-1E+10	1	-1E+10	1	-1E+10	1	-1E+10	1
4901784	215	C	05/24/2021	10:48	-136.149	42.996	0	745.00	0	4.0270	0	37.4760	8	29.761	0	737.763	0	12.6	4	4.1	4	-1E+10	1	-1E+10	1	-1E+10	1	-1E+10	1	-1E+10	1	-1E+10	1
4901784	215	C	05/24/2021	10:48	-136.149	42.996	0	750.70	0	4.0120	8	37.4540	8	29.745	0	743.398	0	12.4	4	4.0	4	-1E+10	1	-1E+10	1	-1E+10	1	-1E+10	1	-1E+10	1	-1E+10	1
4901784	215	C	05/24/2021	10:48	-136.149	42.996	0	755.60	0	3.9980	8	37.4090	8	29.711	0	748.241	0	12.2	4	3.9	4	-1E+10	1	-1E+10	1	-1E+10	1	-1E+10	1	-1E+10	1	-1E+10	1
4901784	215	C	05/24/2021	10:48	-136.149	42.996	0	760.60	0	3.9890	0	37.3900	8	29.697	0	753.183	0	12.0	4	3.9	4	-1E+10	1	-1E+10	1	-1E+10	1	-1E+10	1	-1E+10	1	-1E+10	1
4901784	215	C	05/24/2021	10:48	-136.149	42.996	0	765.60	0	3.9800	0	37.3800	8	29.690	0	758.126	0	11.8	4	3.8	4	-1E+10	1	-1E+10	1	-1E+10	1	-1E+10	1	-1E+10	1	-1E+10	1
4901784	215	C	05/24/2021	10:48	-136.149	42.996	0	770.60	0	3.9680	0	37.3780	8	29.690	0	763.068	0	11.6	4	3.8	4	-1E+10	1	-1E+10	1	-1E+10	1	-1E+10	1	-1E+10	1	-1E+10	1
4901784	215	C	05/24/2021	10:48	-136.149	42.996	0	775.70	0	3.9570	0	37.3800	8	29.692	0	768.108	0	11.5	4	3.7	4	-1E+10	1	-1E+10	1	-1E+10	1	-1E+10	1	-1E+10	1	-1E+10	1
4901784	215	C	05/24/2021	10:48	-136.149	42.996	0	780.00	0	3.9510	0	37.3820	8	29.695	0	772.358	0	11.4	4	3.7	4	-1E+10	1	-1E+10	1	-1E+10	1	-1E+10	1	-1E+10	1	-1E+10	1
4901784	215	C	05/24/2021	10:48	-136.149	42.996	0	784.30	0	3.9420	0	37.3870	8	29.700	0	776.608	0	11.3	4	3.6	4	-1E+10	1	-1E+10	1	-1E+10	1	-1E+10	1	-1E+10	1	-1E+10	1
4901784	215	C	05/24/2021	10:48	-136.149	42.996	0	789.50	0	3.9320	0	37.3910	8	29.704	0	781.748	0	11.1	4	3.6	4	-1E+10	1	-1E+10	1	-1E+10	1	-1E+10	1	-1E+10	1	-1E+10	1
4901784	215	C	05/24/2021	10:48	-136.149	42.996	0	794.70	0	3.9270	0	37.3930	8	29.706	0	786.887	0	11.0	4	3.6	4	-1E+10	1	-1E+10	1	-1E+10	1	-1E+10	1	-1E+10	1	-1E+10	1
4901784	215	C	05/24/2021	10:48	-136.149	42.996	0	800.00	0	3.9290	0	37.3960	8	29.709	0	792.125	0	10.9	4	3.5	4	-1E+10	1	-1E+10	1	-1E+10	1	-1E+10	1	-1E+10	1	-1E+10	1
4901784	215	C	05/24/2021	10:48	-136.149	42.996	0	805.40	0	3.9240	0	37.3990	8	29.712	0	797.461	0	10.8	4	3.5	4	-1E+10	1	-1E+10	1	-1E+10	1	-1E+10	1	-1E+10	1	-1E+10	1
4901784	215	C	05/24/2021	10:48	-136.149	42.996	0	809.80	0	3.9160	0	37.4040	8	29.716	0	801.809	0	10.7	4	3.5	4	-1E+10	1	-1E+10	1	-1E+10	1	-1E+10	1	-1E+10	1	-1E+10	1
4901784	215	C	05/24/2021	10:48	-136.149	42.996	0	814.40	0	3.9150	0	37.4070	8	29.719	0	806.355	0	10.6	4	3.4	4	-1E+10	1	-1E+10	1	-1E+10	1	-1E+10	1	-1E+10	1	-1E+10	1
4901784	215	C	05/24/2021	10:48	-136.149	42.996	0	819.80	0	3.9120	0	37.4100	8	29.722	0	811.691	0	10.5	4	3.4	4	-1E+10	1	-1E+10	1	-1E+10	1	-1E+10	1	-1E+10	1	-1E+10	1
4901784	215	C	05/24/2021	10:48	-136.149	42.996	0	825.30	0	3.8990	0	37.4160	8	29.728	0	817.126	0	10.4	4	3.3	4	-1E+10	1	-1E+10	1	-1E+10	1	-1E+10	1	-1E+10	1	-1E+10	1
4901784	215	C	05/24/2021	10:48	-136.149	42.996	0	829.90	0	3.8880	0	37.4220	8	29.734	0	821.671	0	10.3	4	3.3	4	-1E+10	1	-1E+10	1	-1E+10	1	-1E+10	1	-1E+10	1	-1E+10	1
4901784	215	C	05/24/2021	10:48	-136.149	42.996	0	834.80	0	3.8790	0	37.4260	8	29.738	0	826.513	0	10.3	4	3.3	4	-1E+10	1	-1E+10	1	-1E+10	1	-1E+10	1	-1E+10	1	-1E+10	1
4901784	215	C	05/24/2021	10:48	-136.149	42.996	0	839.80	0	3.8700	0	37.4290	8	29.742	0	831.454	0	10.2	4	3.3	4	-1E+10	1	-1E+10	1	-1E+10	1	-1E+10	1	-1E+10	1	-1E+10	1
4901784	215	C	05/24/2021	10:48	-136.149	42.996	0	844.60	0	3.8620	0	37.4330	8	29.746	0	836.196	0	10.2	4	3.3	4	-1E+10	1	-1E+10	1	-1E+10	1	-1E+10	1	-1E+10	1	-1E+10	1
4901784	215	C	05/24/2021	10:48	-136.149	42.996	0	849.40	0	3.8540	0	37.4360	8	29.749	0	840.939	0	10.1	4	3.3	4	-1E+10	1	-1E+10	1	-1E+10	1	-1E+10	1	-1E+10	1	-1E+10	1
4901784	215	C	05/24/2021	10:48	-136.149	42.996	0	854.30	0	3.8460	0	37.4420	8	29.755	0	845.780	0	10.1	4	3.2	4	-1E+10	1	-1E+10	1	-1E+10	1	-1E+10	1	-1E+10	1	-1E+10	1
4901784	215	C	05/24/2021	10:48	-136.149	42.996	0	860.00	0	3.8390	0	37.4460	8	29.759	0	851.412	0	10.0	4	3.2	4	-1E+10	1	-1E+10	1	-1E+10	1	-1E+10	1	-1E+10	1	-1E+10	1
4901784	215	C	05/24/2021	10:48	-136.149	42.996	0	865.70	0	3.8330	0	37.4500	8	29.763	0	857.043	0	10.0	4	3.2	4	-1E+10	1	-1E+10	1	-1E+10	1	-1E+10	1	-1E+10	1	-1E+10	1
4901784	215	C	05/24/2021	10:48	-136.149	42.996	0	870.70	0	3.8300	0	37.4520	8	29.765	0	861.983	0	10.0	4	3.2	4	-1E+10	1	-1E+10	1	-1E+10	1	-1E+10	1	-1E+10	1	-1E+10	1
4901784	215	C	05/24/2021	10:48	-136.149	42.996	0	875.70	0	3.8260	0	37.4530	8	29.766	0	866.922	0	10.0	4	3.2	4	-1E+10	1	-1E+10	1	-1E+10	1	-1E+10	1	-1E+10	1	-1E+10	1
4901784	215	C	05/24/2021	10:48	-136.149	42.996	0	880.70	0	3.8120	0	37.4580	8	29.771	0	871.862	0	10.0	4	3.2	4	-1E+10	1	-1E+10	1	-1E+10	1	-1E+10	1	-1E+10	1	-1E+10	1
4901784	215	C	05/24/2021	10:48	-136.149	42.996	0	885.00	0	3.8090	0	37.4600	8	29.773	0	876.110	0	10.0	4	3.2	4	-1E+10	1	-1E+10	1	-1E+10	1	-1E+10	1	-1E+10	1	-1E+10	1
4901784	215	C	05/24/2021	10:48	-136.149	42.996	0	889.30	0	3.8060	0	37.4620	8	29.775	0	880.357	0	9.9	4	3.2	4	-1E+10	1	-1E+10	1	-1E+10	1	-1E+10	1	-1E+10	1	-1E+10	1
4901784	215	C	05/24/2021	10:48	-136.149	42.996	0	894.50	0	3.8010	0	37.4660	8	29.779	0	885.494	0	9.9	4	3.2	4	-1E+10	1	-1E+10	1	-1E+10	1	-1E+10	1	-1E+10	1	-1E+10	1
4901784	215	C	05/24/2021	10:48	-136.149	42.996	0	899.80	0	3.7940	0	37.4690	8	29.782	0	890.730	0	9.9	4	3.2	4	-1E+10	1	-1E+10	1	-1E+10	1	-1E+10	1	-1E+10	1	-1E+10	1
4901784	215	C	05/24/2021	10:48	-136.149	42.996	0	905.10	0	3.7870	0	37.4720	8	29.785	0	895.965	0	9.9	4	3.2	4	-1E+10	1	-1E+10	1	-1E+10	1	-1E+10	1	-1E+10	1	-1E+10	1
4901784	215	C	05/24/2021	10:48	-136.149	42.996	0	910.40	0	3.7820	0	37.4730	8	29.787	0	901.200	0	9.9	4	3.2	4	-1E+10	1	-1E+10	1	-1E+10	1	-1E+10	1	-1E+10	1	-1E+10	1
4901784	215	C	05/24/2021	10:48	-136.149	42.996	0	914.90	0	3.7660	0	37.4770	8	29.792	0	905.645	0	9.9	4	3.2	4	-1E+10	1	-1E+10	1	-1E+10	1	-1E+10	1	-1E+10	1	-1E+10	1
4901784	215	C	05/24/2021	10:48	-136.149	42.996	0	919.30	0	3.7580	0	37.4800	8	29.795	0	909.991	0	9.9	4	3.2	4	-1E+10	1	-1E+10	1	-1E+10	1	-1E+10	1	-1E+10	1	-1E+10	1
4901784	215	C	05/24/2021	10:48	-136.149	42.996	0	924.80	0	3.7540	0	37.4820	8	29.797	0	915.423	0	10.0	4	3.2	4	-1E+10	1	-1E+10	1	-1E+10	1	-1E+10	1	-1E+10	1	-1E+10	1
4901784	215	C	05/24/2021	10:48	-136.149	42.996	0	930.20	0	3.7380	0	37.4850	8	29.801	0	920.756	0	10.0	4	3.2	4	-1E+10	1	-1E+10	1	-1E+10	1	-1E+10	1	-1E+10	1	-1E+10	1
4901784	215	C	05/24/2021	10:48	-136.149	42.996	0	934.70	0	3.7280	0	37.4870	8	29.804	0	925.201	0	10.0	4	3.2	4	-1E+10	1	-1E+10	1	-1E+10	1	-1E+10	1	-1E+10	1	-1E+10	1
4901784	215	C	05/24/2021	10:48	-136.149	42.996	0	939.30	0	3.7150	0	37.4910	8	29.809	0	929.744	0	10.0	4	3.2	4	-1E+10	1	-1E+10	1	-1E+10	1	-1E+10	1	-1E+10	1	-1E+10	1
4901784	215	C	05/24/2021	10:48	-136.149	42.996	0	944.70	0	3.6970	0	37.4950	8	29.814	0	935.077	0	10.0	4	3.2	4	-1E+10	1	-1E+10	1	-1E+10	1	-1E+10	1	-1E+10	1	-1E+10	1
4901784	215	C	05/24/2021	10:48	-136.149	42.996	0	950.10	0	3.6890	0	37.4980	8	29.817	0	940.410	0	10.1	4	3.2	4	-1E+10	1	-1E+10	1	-1E+10	1	-1E+10	1	-1E+10	1	-1E+10	1
4901784	215	C	05/24/2021	10:48	-136.149	42.996	0	954.70	0	3.6680	0	37.5010	8	29.822	0	944.952	0	10.1	4	3.2	4	-1E+10	1	-1E+10	1	-1E+10	1	-1E+10	1	-1E+10	1	-1E+10	1
4901784	215	C	05/24/2021	10:48	-136.149	42.996	0	959.30	0	3.6590	0	37.5030	8	29.824	0	949.495	0	10.1	4	3.2	4	-1E+10	1	-1E+10	1	-1E+10	1	-1E+10	1	-1E+10	1	-1E+10	1
4901784	215	C	05/24/2021	10:48	-136.149	42.996	0	964.70	0	3.6310	0	37.5040	8	29.828	0	954.827	0	10.1	4	3.2	4	-1E+10	1	-1E+10	1	-1E+10	1	-1E+10	1	-1E+10	1	-1E+10	1
4901784	215	C	05/24/2021	10:48	-136.149	42.996	0	970.20	0	3.5900	0	37.5050	8	29.833	0	960.258	0	10.1	4	3.2	4	-1E+10	1	-1E+10	1	-1E+10	1	-1E+10	1	-1E+10	1	-1E+10	1
4901784	215	C	05/24/2021	10:48	-136.149	42.996	0	974.70	0	3.5770	0	37.5080	8	29.837	0	964.702	0	10.1	4	3.2	4	-1E+10	1	-1E+10	1	-1E+10	1	-1E+10	1	-1E+10	1	-1E+10	1
4901784	215	C	05/24/2021	10:48	-136.149	42.996	0	979.30	0	3.5750	0	37.5100	8	29.839	0	969.244	0	10.1	4	3.2	4	-1E+10	1	-1E+10	1	-1E+10	1	-1E+10	1	-1E+10	1	-1E+10	1
4901784	215	C	05/24/2021	10:48	-136.149	42.996	0	984.90	0	3.5350	0	37.5120	8	29.845	0	974.774	0	10.1	4	3.2	4	-1E+10	1	-1E+10	1	-1E+10	1	-1E+10	1	-1E+10	1	-1E+10	1
4901784	215	C	05/24/2021	10:48	-136.149	42.996	0	990.40	0	3.5190	0	37.5150	8	29.849	0	980.204	0	10.1	4	3.2	4	-1E+10	1	-1E+10	1	-1E+10	1	-1E+10	1	-1E+10	1	-1E+10	1
4901784	215	C	05/24/2021	10:48	-136.149	42.996	0	995.00	0	3.5100	0	37.5170	8	29.852	0	984.746	0	10.1	4	3.2	4	-1E+10	1	-1E+10	1	-1E+10	1	-1E+10	1	-1E+10	1	-1E+10	1
4901784	215	C	05/24/2021	10:48	-136.149	42.996	0	999.70	0	3.5020	0	37.5190	8	29.854	0	989.387	0	10.1	4	3.2	4	-1E+10	1	-1E+10	1	-1E+10	1	-1E+10	1	-1E+10	1	-1E+10	1
4901784	215	C	05/24/2021	10:48	-136.149	42.996	0	1005.30	0	3.4930	0	37.5220	8	29.857	0	994.916	0	10.2	4	3.2	4	-1E+10	1	-1E+10	1	-1E+10	1	-1E+10	1	-1E+10	1	-1E+10	1
4901784	215	C	05/24/2021	10:48	-136.149	42.996	0	1009.90	0	3.4830	0	37.5240	8	29.860	0	999.457	0	10.2	4	3.3	4	-1E+10	1	-1E+10	1	-1E+10	1	-1E+10	1	-1E+10	1	-1E+10	1
4901784	215	C	05/24/2021	10:48	-136.149	42.996	0	1014.50	0	3.4720	0	37.5280	8	29.864	0	1003.998	0	10.3	4	3.3	4	-1E+10	1	-1E+10	1	-1E+10	1	-1E+10	1	-1E+10	1	-1E+10	1
4901784	215	C	05/24/2021	10:48	-136.149	42.996	0	1020.10	0	3.4800	0	37.5340	8	29.868	0	1009.527	0	10.5	4	3.4	4	-1E+10	1	-1E+10	1	-1E+10	1	-1E+10	1	-1E+10	1	-1E+10	1
4901784	215	C	05/24/2021	10:48	-136.149	42.996	0	1024.80	0	3.4730	0	37.5370	8	29.872	0	1014.167	0	10.5	4	3.4	4	-1E+10	1	-1E+10	1	-1E+10	1	-1E+10	1	-1E+10	1	-1E+10	1
4901784	215	C	05/24/2021	10:48	-136.149	42.996	0	1029.40	0	3.4730	0	37.5400	8	29.874	0	1018.708	0	10.6	4	3.4	4	-1E+10	1	-1E+10	1	-1E+10	1	-1E+10	1	-1E+10	1	-1E+10	1
4901784	215	C	05/24/2021	10:48	-136.149	42.996	0	1034.90	0	3.4660	0	37.5420	8	29.876	0	1024.138	0	10.6	4	3.4	4	-1E+10	1	-1E+10	1	-1E+10	1	-1E+10	1	-1E+10	1	-1E+10	1
4901784	215	C	05/24/2021	10:48	-136.149	42.996	0	1040.50	0	3.4460	0	37.5450	8	29.881	0	1029.666	0	10.7	4	3.4	4	-1E+10	1	-1E+10	1	-1E+10	1	-1E+10	1	-1E+10	1	-1E+10	1
4901784	215	C	05/24/2021	10:48	-136.149	42.996	0	1045.10	0	3.4410	0	37.5470	8	29.883	0	1034.206	0	10.7	4	3.4	4	-1E+10	1	-1E+10	1	-1E+10	1	-1E+10	1	-1E+10	1	-1E+10	1
4901784	215	C	05/24/2021	10:48	-136.149	42.996	0	1049.80	0	3.4380	0	37.5480	8	29.884	0	1038.846	0	10.7	4	3.4	4	-1E+10	1	-1E+10	1	-1E+10	1	-1E+10	1	-1E+10	1	-1E+10	1
4901784	215	C	05/24/2021	10:48	-136.149	42.996	0	1055.40	0	3.4210	0	37.5510	8	29.888	0	1044.373	0	10.8	4	3.4	4	-1E+10	1	-1E+10	1	-1E+10	1	-1E+10	1	-1E+10	1	-1E+10	1
4901784	215	C	05/24/2021	10:48	-136.149	42.996	0	1060.10	0	3.4150	0	37.5520	8	29.890	0	1049.012	0	10.8	4	3.5	4	-1E+10	1	-1E+10	1	-1E+10	1	-1E+10	1	-1E+10	1	-1E+10	1
4901784	215	C	05/24/2021	10:48	-136.149	42.996	0	1064.70	0	3.4050	0	37.5530	8	29.892	0	1053.553	0	10.9	4	3.5	4	-1E+10	1	-1E+10	1	-1E+10	1	-1E+10	1	-1E+10	1	-1E+10	1
4901784	215	C	05/24/2021	10:48	-136.149	42.996	0	1070.30	0	3.3920	0	38.2590	8	30.457	0	1059.080	0	10.9	4	3.5	4	-1E+10	1	-1E+10	1	-1E+10	1	-1E+10	1	-1E+10	1	-1E+10	1
4901784	215	C	05/24/2021	10:48	-136.149	42.996	0	1075.00	0	3.3760	0	38.3220	8	30.509	0	1063.719	0	11.0	4	3.5	4	-1E+10	1	-1E+10	1	-1E+10	1	-1E+10	1	-1E+10	1	-1E+10	1
4901784	215	C	05/24/2021	10:48	-136.149	42.996	0	1080.30	0	3.3590	0	38.3380	8	30.524	0	1068.950	0	11.1	4	3.5	4	-1E+10	1	-1E+10	1	-1E+10	1	-1E+10	1	-1E+10	1	-1E+10	1
4901784	215	C	05/24/2021	10:48	-136.149	42.996	0	1085.30	0	3.3440	0	38.3490	8	30.534	0	1073.884	0	11.2	4	3.6	4	-1E+10	1	-1E+10	1	-1E+10	1	-1E+10	1	-1E+10	1	-1E+10	1
4901784	215	C	05/24/2021	10:48	-136.149	42.996	0	1090.10	0	3.3300	0	38.3580	8	30.543	0	1078.622	0	11.3	4	3.6	4	-1E+10	1	-1E+10	1	-1E+10	1	-1E+10	1	-1E+10	1	-1E+10	1
4901784	215	C	05/24/2021	10:48	-136.149	42.996	0	1094.80	0	3.3230	0	38.3640	8	30.548	0	1083.260	0	11.3	4	3.6	4	-1E+10	1	-1E+10	1	-1E+10	1	-1E+10	1	-1E+10	1	-1E+10	1
4901784	215	C	05/24/2021	10:48	-136.149	42.996	0	1099.60	0	3.3210	0	38.3670	8	30.551	0	1087.997	0	11.4	4	3.6	4	-1E+10	1	-1E+10	1	-1E+10	1	-1E+10	1	-1E+10	1	-1E+10	1
4901784	215	C	05/24/2021	10:48	-136.149	42.996	0	1104.40	0	3.3120	0	38.3700	8	30.554	0	1092.734	0	11.4	4	3.7	4	-1E+10	1	-1E+10	1	-1E+10	1	-1E+10	1	-1E+10	1	-1E+10	1
4901784	215	C	05/24/2021	10:48	-136.149	42.996	0	1109.40	0	3.3000	0	38.3750	8	30.560	0	1097.668	0	11.6	4	3.7	4	-1E+10	1	-1E+10	1	-1E+10	1	-1E+10	1	-1E+10	1	-1E+10	1
4901784	215	C	05/24/2021	10:48	-136.149	42.996	0	1114.50	0	3.2920	0	38.3780	8	30.563	0	1102.701	0	11.7	4	3.7	4	-1E+10	1	-1E+10	1	-1E+10	1	-1E+10	1	-1E+10	1	-1E+10	1
4901784	215	C	05/24/2021	10:48	-136.149	42.996	0	1119.80	0	3.2830	0	38.3820	8	30.567	0	1107.931	0	11.8	4	3.8	4	-1E+10	1	-1E+10	1	-1E+10	1	-1E+10	1	-1E+10	1	-1E+10	1
4901784	215	C	05/24/2021	10:48	-136.149	42.996	0	1125.30	0	3.2750	0	38.3850	8	30.570	0	1113.358	0	11.8	4	3.8	4	-1E+10	1	-1E+10	1	-1E+10	1	-1E+10	1	-1E+10	1	-1E+10	1
4901784	215	C	05/24/2021	10:48	-136.149	42.996	0	1129.80	0	3.2640	0	38.3870	8	30.573	0	1117.798	0	11.8	4	3.8	4	-1E+10	1	-1E+10	1	-1E+10	1	-1E+10	1	-1E+10	1	-1E+10	1
4901784	215	C	05/24/2021	10:48	-136.149	42.996	0	1134.40	0	3.2560	0	38.3890	8	30.576	0	1122.337	0	11.9	4	3.8	4	-1E+10	1	-1E+10	1	-1E+10	1	-1E+10	1	-1E+10	1	-1E+10	1
4901784	215	C	05/24/2021	10:48	-136.149	42.996	0	1140.00	0	3.2430	0	38.3920	8	30.579	0	1127.862	0	12.0	4	3.8	4	-1E+10	1	-1E+10	1	-1E+10	1	-1E+10	1	-1E+10	1	-1E+10	1
4901784	215	C	05/24/2021	10:48	-136.149	42.996	0	1145.50	0	3.2320	0	38.3950	8	30.583	0	1133.289	0	12.1	4	3.9	4	-1E+10	1	-1E+10	1	-1E+10	1	-1E+10	1	-1E+10	1	-1E+10	1
4901784	215	C	05/24/2021	10:48	-136.149	42.996	0	1150.10	0	3.2200	0	38.3990	8	30.587	0	1137.827	0	12.3	4	3.9	4	-1E+10	1	-1E+10	1	-1E+10	1	-1E+10	1	-1E+10	1	-1E+10	1
4901784	215	C	05/24/2021	10:48	-136.149	42.996	0	1154.80	0	3.2070	0	38.4020	8	30.591	0	1142.464	0	12.4	4	4.0	4	-1E+10	1	-1E+10	1	-1E+10	1	-1E+10	1	-1E+10	1	-1E+10	1
4901784	215	C	05/24/2021	10:48	-136.149	42.996	0	1160.40	0	3.1980	0	38.4050	8	30.595	0	1147.989	0	12.5	4	4.0	4	-1E+10	1	-1E+10	1	-1E+10	1	-1E+10	1	-1E+10	1	-1E+10	1
4901784	215	C	05/24/2021	10:48	-136.149	42.996	0	1165.10	0	3.1870	0	38.4080	8	30.598	0	1152.626	0	12.6	4	4.0	4	-1E+10	1	-1E+10	1	-1E+10	1	-1E+10	1	-1E+10	1	-1E+10	1
4901784	215	C	05/24/2021	10:48	-136.149	42.996	0	1169.80	0	3.1790	0	38.4100	8	30.601	0	1157.263	0	12.7	4	4.1	4	-1E+10	1	-1E+10	1	-1E+10	1	-1E+10	1	-1E+10	1	-1E+10	1
4901784	215	C	05/24/2021	10:48	-136.149	42.996	0	1175.50	0	3.1690	0	38.4130	8	30.604	0	1162.886	0	12.8	4	4.1	4	-1E+10	1	-1E+10	1	-1E+10	1	-1E+10	1	-1E+10	1	-1E+10	1
4901784	215	C	05/24/2021	10:48	-136.149	42.996	0	1180.30	0	3.1560	0	38.4160	8	30.608	0	1167.621	0	12.9	4	4.1	4	-1E+10	1	-1E+10	1	-1E+10	1	-1E+10	1	-1E+10	1	-1E+10	1
4901784	215	C	05/24/2021	10:48	-136.149	42.996	0	1185.00	0	3.1490	0	38.4180	8	30.610	0	1172.258	0	13.0	4	4.2	4	-1E+10	1	-1E+10	1	-1E+10	1	-1E+10	1	-1E+10	1	-1E+10	1
4901784	215	C	05/24/2021	10:48	-136.149	42.996	0	1189.80	0	3.1440	0	38.4200	8	30.612	0	1176.993	0	13.1	4	4.2	4	-1E+10	1	-1E+10	1	-1E+10	1	-1E+10	1	-1E+10	1	-1E+10	1
4901784	215	C	05/24/2021	10:48	-136.149	42.996	0	1194.50	0	3.1360	0	38.4210	8	30.614	0	1181.629	0	13.2	4	4.2	4	-1E+10	1	-1E+10	1	-1E+10	1	-1E+10	1	-1E+10	1	-1E+10	1
4901784	215	C	05/24/2021	10:48	-136.149	42.996	0	1200.20	0	3.1200	0	38.4250	8	30.619	0	1187.251	0	13.4	4	4.3	4	-1E+10	1	-1E+10	1	-1E+10	1	-1E+10	1	-1E+10	1	-1E+10	1
4901784	215	C	05/24/2021	10:48	-136.149	42.996	0	1205.10	0	3.1130	0	38.4270	8	30.621	0	1192.084	0	13.5	4	4.3	4	-1E+10	1	-1E+10	1	-1E+10	1	-1E+10	1	-1E+10	1	-1E+10	1
4901784	215	C	05/24/2021	10:48	-136.149	42.996	0	1209.90	0	3.0990	0	38.4300	8	30.625	0	1196.819	0	13.7	4	4.4	4	-1E+10	1	-1E+10	1	-1E+10	1	-1E+10	1	-1E+10	1	-1E+10	1
4901784	215	C	05/24/2021	10:48	-136.149	42.996	0	1214.80	0	3.0870	0	38.4330	8	30.629	0	1201.652	0	13.9	4	4.4	4	-1E+10	1	-1E+10	1	-1E+10	1	-1E+10	1	-1E+10	1	-1E+10	1
4901784	215	C	05/24/2021	10:48	-136.149	42.996	0	1219.80	0	3.0780	0	38.4350	8	30.631	0	1206.584	0	14.0	4	4.5	4	-1E+10	1	-1E+10	1	-1E+10	1	-1E+10	1	-1E+10	1	-1E+10	1
4901784	215	C	05/24/2021	10:48	-136.149	42.996	0	1224.80	0	3.0680	0	38.4380	8	30.635	0	1211.515	0	14.1	4	4.5	4	-1E+10	1	-1E+10	1	-1E+10	1	-1E+10	1	-1E+10	1	-1E+10	1
4901784	215	C	05/24/2021	10:48	-136.149	42.996	0	1229.90	0	3.0580	0	38.4400	8	30.637	0	1216.545	0	14.3	4	4.5	4	-1E+10	1	-1E+10	1	-1E+10	1	-1E+10	1	-1E+10	1	-1E+10	1
4901784	215	C	05/24/2021	10:48	-136.149	42.996	0	1235.00	0	3.0470	0	38.4430	8	30.641	0	1221.575	0	14.4	4	4.6	4	-1E+10	1	-1E+10	1	-1E+10	1	-1E+10	1	-1E+10	1	-1E+10	1
4901784	215	C	05/24/2021	10:48	-136.149	42.996	0	1240.10	0	3.0430	0	38.4440	8	30.642	0	1226.604	0	14.5	4	4.6	4	-1E+10	1	-1E+10	1	-1E+10	1	-1E+10	1	-1E+10	1	-1E+10	1
4901784	215	C	05/24/2021	10:48	-136.149	42.996	0	1245.00	0	3.0370	0	38.4450	8	30.644	0	1231.437	0	14.7	4	4.7	4	-1E+10	1	-1E+10	1	-1E+10	1	-1E+10	1	-1E+10	1	-1E+10	1
4901784	215	C	05/24/2021	10:48	-136.149	42.996	0	1249.90	0	3.0230	0	38.4490	8	30.648	0	1236.269	0	14.9	4	4.7	4	-1E+10	1	-1E+10	1	-1E+10	1	-1E+10	1	-1E+10	1	-1E+10	1
4901784	215	C	05/24/2021	10:48	-136.149	42.996	0	1255.50	0	3.0100	0	38.4520	8	30.652	0	1241.792	0	15.0	4	4.8	4	-1E+10	1	-1E+10	1	-1E+10	1	-1E+10	1	-1E+10	1	-1E+10	1
4901784	215	C	05/24/2021	10:48	-136.149	42.996	0	1260.30	0	3.0010	0	38.4540	8	30.655	0	1246.525	0	15.2	4	4.8	4	-1E+10	1	-1E+10	1	-1E+10	1	-1E+10	1	-1E+10	1	-1E+10	1
4901784	215	C	05/24/2021	10:48	-136.149	42.996	0	1264.80	0	2.9930	0	38.4560	8	30.657	0	1250.962	0	15.3	4	4.9	4	-1E+10	1	-1E+10	1	-1E+10	1	-1E+10	1	-1E+10	1	-1E+10	1
4901784	215	C	05/24/2021	10:48	-136.149	42.996	0	1269.80	0	2.9840	0	38.4580	8	30.660	0	1255.893	0	15.5	4	4.9	4	-1E+10	1	-1E+10	1	-1E+10	1	-1E+10	1	-1E+10	1	-1E+10	1
4901784	215	C	05/24/2021	10:48	-136.149	42.996	0	1274.70	0	2.9740	0	38.4600	8	30.662	0	1260.724	0	15.6	4	5.0	4	-1E+10	1	-1E+10	1	-1E+10	1	-1E+10	1	-1E+10	1	-1E+10	1
4901784	215	C	05/24/2021	10:48	-136.149	42.996	0	1279.60	0	2.9590	0	38.4630	8	30.666	0	1265.556	0	15.8	4	5.0	4	-1E+10	1	-1E+10	1	-1E+10	1	-1E+10	1	-1E+10	1	-1E+10	1
4901784	215	C	05/24/2021	10:48	-136.149	42.996	0	1284.60	0	2.9520	0	38.4650	8	30.669	0	1270.486	0	16.0	4	5.1	4	-1E+10	1	-1E+10	1	-1E+10	1	-1E+10	1	-1E+10	1	-1E+10	1
4901784	215	C	05/24/2021	10:48	-136.149	42.996	0	1289.70	0	2.9360	0	38.4680	8	30.673	0	1275.514	0	16.2	4	5.2	4	-1E+10	1	-1E+10	1	-1E+10	1	-1E+10	1	-1E+10	1	-1E+10	1
4901784	215	C	05/24/2021	10:48	-136.149	42.996	0	1294.70	0	2.9250	0	38.4700	8	30.675	0	1280.444	0	16.4	4	5.2	4	-1E+10	1	-1E+10	1	-1E+10	1	-1E+10	1	-1E+10	1	-1E+10	1
4901784	215	C	05/24/2021	10:48	-136.149	42.996	0	1299.70	0	2.9120	0	38.4730	8	30.679	0	1285.374	0	16.6	4	5.3	4	-1E+10	1	-1E+10	1	-1E+10	1	-1E+10	1	-1E+10	1	-1E+10	1
4901784	215	C	05/24/2021	10:48	-136.149	42.996	0	1304.80	0	2.9030	0	38.4750	8	30.682	0	1290.402	0	16.8	4	5.3	4	-1E+10	1	-1E+10	1	-1E+10	1	-1E+10	1	-1E+10	1	-1E+10	1
4901784	215	C	05/24/2021	10:48	-136.149	42.996	0	1309.90	0	2.8950	0	38.4770	8	30.684	0	1295.430	0	17.0	4	5.4	4	-1E+10	1	-1E+10	1	-1E+10	1	-1E+10	1	-1E+10	1	-1E+10	1
4901784	215	C	05/24/2021	10:48	-136.149	42.996	0	1315.10	0	2.8820	0	38.4800	8	30.688	0	1300.557	0	17.2	4	5.5	4	-1E+10	1	-1E+10	1	-1E+10	1	-1E+10	1	-1E+10	1	-1E+10	1
4901784	215	C	05/24/2021	10:48	-136.149	42.996	0	1320.30	0	2.8750	0	38.4820	8	30.690	0	1305.683	0	17.4	4	5.5	4	-1E+10	1	-1E+10	1	-1E+10	1	-1E+10	1	-1E+10	1	-1E+10	1
4901784	215	C	05/24/2021	10:48	-136.149	42.996	0	1325.50	0	2.8660	0	38.4840	8	30.693	0	1310.809	0	17.6	4	5.6	4	-1E+10	1	-1E+10	1	-1E+10	1	-1E+10	1	-1E+10	1	-1E+10	1
4901784	215	C	05/24/2021	10:48	-136.149	42.996	0	1330.00	0	2.8540	0	38.4870	8	30.696	0	1315.246	0	17.9	4	5.7	4	-1E+10	1	-1E+10	1	-1E+10	1	-1E+10	1	-1E+10	1	-1E+10	1
4901784	215	C	05/24/2021	10:48	-136.149	42.996	0	1334.50	0	2.8460	0	38.4890	8	30.699	0	1319.682	0	18.1	4	5.7	4	-1E+10	1	-1E+10	1	-1E+10	1	-1E+10	1	-1E+10	1	-1E+10	1
4901784	215	C	05/24/2021	10:48	-136.149	42.996	0	1339.80	0	2.8330	0	38.4910	8	30.702	0	1324.906	0	18.3	4	5.8	4	-1E+10	1	-1E+10	1	-1E+10	1	-1E+10	1	-1E+10	1	-1E+10	1
4901784	215	C	05/24/2021	10:48	-136.149	42.996	0	1345.20	0	2.8240	0	38.4940	8	30.705	0	1330.229	0	18.5	4	5.9	4	-1E+10	1	-1E+10	1	-1E+10	1	-1E+10	1	-1E+10	1	-1E+10	1
4901784	215	C	05/24/2021	10:48	-136.149	42.996	0	1350.60	0	2.8190	0	38.4950	8	30.706	0	1335.552	0	18.6	4	5.9	4	-1E+10	1	-1E+10	1	-1E+10	1	-1E+10	1	-1E+10	1	-1E+10	1
4901784	215	C	05/24/2021	10:48	-136.149	42.996	0	1355.10	0	2.8110	0	38.4970	8	30.709	0	1339.987	0	18.8	4	6.0	4	-1E+10	1	-1E+10	1	-1E+10	1	-1E+10	1	-1E+10	1	-1E+10	1
4901784	215	C	05/24/2021	10:48	-136.149	42.996	0	1359.60	0	2.8020	0	38.4980	8	30.711	0	1344.423	0	19.0	4	6.0	4	-1E+10	1	-1E+10	1	-1E+10	1	-1E+10	1	-1E+10	1	-1E+10	1
4901784	215	C	05/24/2021	10:48	-136.149	42.996	0	1365.00	0	2.7930	0	38.5010	8	30.714	0	1349.745	0	19.3	4	6.1	4	-1E+10	1	-1E+10	1	-1E+10	1	-1E+10	1	-1E+10	1	-1E+10	1
4901784	215	C	05/24/2021	10:48	-136.149	42.996	0	1370.50	0	2.7860	0	38.5030	8	30.716	0	1355.166	0	19.5	4	6.2	4	-1E+10	1	-1E+10	1	-1E+10	1	-1E+10	1	-1E+10	1	-1E+10	1
4901784	215	C	05/24/2021	10:48	-136.149	42.996	0	1375.10	0	2.7740	0	38.5050	8	30.719	0	1359.700	0	19.8	4	6.3	4	-1E+10	1	-1E+10	1	-1E+10	1	-1E+10	1	-1E+10	1	-1E+10	1
4901784	215	C	05/24/2021	10:48	-136.149	42.996	0	1379.70	0	2.7650	0	38.5070	8	30.722	0	1364.233	0	20.0	4	6.3	4	-1E+10	1	-1E+10	1	-1E+10	1	-1E+10	1	-1E+10	1	-1E+10	1
4901784	215	C	05/24/2021	10:48	-136.149	42.996	0	1385.20	0	2.7560	0	38.5090	8	30.724	0	1369.654	0	20.3	4	6.4	4	-1E+10	1	-1E+10	1	-1E+10	1	-1E+10	1	-1E+10	1	-1E+10	1
4901784	215	C	05/24/2021	10:48	-136.149	42.996	0	1389.80	0	2.7460	0	38.5120	8	30.727	0	1374.187	0	20.5	4	6.5	4	-1E+10	1	-1E+10	1	-1E+10	1	-1E+10	1	-1E+10	1	-1E+10	1
4901784	215	C	05/24/2021	10:48	-136.149	42.996	0	1394.40	0	2.7370	0	38.5140	8	30.730	0	1378.721	0	20.7	4	6.6	4	-1E+10	1	-1E+10	1	-1E+10	1	-1E+10	1	-1E+10	1	-1E+10	1
4901784	215	C	05/24/2021	10:48	-136.149	42.996	0	1400.00	0	2.7310	0	38.5140	8	30.731	0	1384.239	0	21.0	4	6.6	4	-1E+10	1	-1E+10	1	-1E+10	1	-1E+10	1	-1E+10	1	-1E+10	1
4901784	215	C	05/24/2021	10:48	-136.149	42.996	0	1404.60	0	2.7140	0	38.5190	8	30.736	0	1388.772	0	21.3	4	6.7	4	-1E+10	1	-1E+10	1	-1E+10	1	-1E+10	1	-1E+10	1	-1E+10	1
4901784	215	C	05/24/2021	10:48	-136.149	42.996	0	1409.20	0	2.7080	0	38.5200	8	30.738	0	1393.305	0	21.4	4	6.8	4	-1E+10	1	-1E+10	1	-1E+10	1	-1E+10	1	-1E+10	1	-1E+10	1
4901784	215	C	05/24/2021	10:48	-136.149	42.996	0	1414.60	0	2.7070	0	38.5210	8	30.739	0	1398.627	0	21.6	4	6.8	4	-1E+10	1	-1E+10	1	-1E+10	1	-1E+10	1	-1E+10	1	-1E+10	1
4901784	215	C	05/24/2021	10:48	-136.149	42.996	0	1419.50	0	2.6950	0	38.5230	8	30.741	0	1403.455	0	21.9	4	6.9	4	-1E+10	1	-1E+10	1	-1E+10	1	-1E+10	1	-1E+10	1	-1E+10	1
4901784	215	C	05/24/2021	10:48	-136.149	42.996	0	1424.50	0	2.6790	0	38.5260	8	30.745	0	1408.382	0	22.3	4	7.0	4	-1E+10	1	-1E+10	1	-1E+10	1	-1E+10	1	-1E+10	1	-1E+10	1
4901784	215	C	05/24/2021	10:48	-136.149	42.996	0	1429.50	0	2.6700	0	38.5280	8	30.748	0	1413.308	0	22.5	4	7.1	4	-1E+10	1	-1E+10	1	-1E+10	1	-1E+10	1	-1E+10	1	-1E+10	1
4901784	215	C	05/24/2021	10:48	-136.149	42.996	0	1434.60	0	2.6620	0	38.5300	8	30.750	0	1418.334	0	22.7	4	7.2	4	-1E+10	1	-1E+10	1	-1E+10	1	-1E+10	1	-1E+10	1	-1E+10	1
4901784	215	C	05/24/2021	10:48	-136.149	42.996	0	1439.70	0	2.6570	0	38.5310	8	30.752	0	1423.359	0	22.8	4	7.2	4	-1E+10	1	-1E+10	1	-1E+10	1	-1E+10	1	-1E+10	1	-1E+10	1
4901784	215	C	05/24/2021	10:48	-136.149	42.996	0	1444.80	0	2.6520	0	38.5330	8	30.754	0	1428.384	0	23.0	4	7.3	4	-1E+10	1	-1E+10	1	-1E+10	1	-1E+10	1	-1E+10	1	-1E+10	1
4901784	215	C	05/24/2021	10:48	-136.149	42.996	0	1449.90	0	2.6450	0	38.5340	8	30.755	0	1433.408	0	23.2	4	7.3	4	-1E+10	1	-1E+10	1	-1E+10	1	-1E+10	1	-1E+10	1	-1E+10	1
4901784	215	C	05/24/2021	10:48	-136.149	42.996	0	1454.90	0	2.6380	0	38.5360	8	30.758	0	1438.334	0	23.5	4	7.4	4	-1E+10	1	-1E+10	1	-1E+10	1	-1E+10	1	-1E+10	1	-1E+10	1
4901784	215	C	05/24/2021	10:48	-136.149	42.996	0	1459.90	0	2.6260	0	38.5380	8	30.760	0	1443.260	0	23.8	4	7.5	4	-1E+10	1	-1E+10	1	-1E+10	1	-1E+10	1	-1E+10	1	-1E+10	1
4901784	215	C	05/24/2021	10:48	-136.149	42.996	0	1465.00	0	2.6130	0	38.5410	8	30.764	0	1448.285	0	24.0	4	7.6	4	-1E+10	1	-1E+10	1	-1E+10	1	-1E+10	1	-1E+10	1	-1E+10	1
4901784	215	C	05/24/2021	10:48	-136.149	42.996	0	1470.20	0	2.6090	0	38.5420	8	30.765	0	1453.407	0	24.2	4	7.6	4	-1E+10	1	-1E+10	1	-1E+10	1	-1E+10	1	-1E+10	1	-1E+10	1
4901784	215	C	05/24/2021	10:48	-136.149	42.996	0	1475.30	0	2.6010	0	38.5440	8	30.768	0	1458.432	0	24.4	4	7.7	4	-1E+10	1	-1E+10	1	-1E+10	1	-1E+10	1	-1E+10	1	-1E+10	1
4901784	215	C	05/24/2021	10:48	-136.149	42.996	0	1480.60	0	2.5970	0	38.5450	8	30.769	0	1463.653	0	24.6	4	7.8	4	-1E+10	1	-1E+10	1	-1E+10	1	-1E+10	1	-1E+10	1	-1E+10	1
4901784	215	C	05/24/2021	10:48	-136.149	42.996	0	1484.90	0	2.5930	0	38.5460	8	30.770	0	1467.889	0	24.8	4	7.8	4	-1E+10	1	-1E+10	1	-1E+10	1	-1E+10	1	-1E+10	1	-1E+10	1
4901784	215	C	05/24/2021	10:48	-136.149	42.996	0	1489.30	0	2.5800	0	38.5490	8	30.774	0	1472.223	0	25.0	4	7.9	4	-1E+10	1	-1E+10	1	-1E+10	1	-1E+10	1	-1E+10	1	-1E+10	1
4901784	215	C	05/24/2021	10:48	-136.149	42.996	0	1494.50	0	2.5770	0	38.5500	8	30.775	0	1477.345	0	25.1	4	7.9	4	-1E+10	1	-1E+10	1	-1E+10	1	-1E+10	1	-1E+10	1	-1E+10	1
4901784	215	C	05/24/2021	10:48	-136.149	42.996	0	1499.60	0	2.5750	0	38.5500	8	30.775	0	1482.369	0	25.4	4	8.0	4	-1E+10	1	-1E+10	1	-1E+10	1	-1E+10	1	-1E+10	1	-1E+10	1
4901784	215	C	05/24/2021	10:48	-136.149	42.996	0	1504.80	0	2.5610	0	38.5530	8	30.779	0	1487.491	0	25.7	4	8.1	4	-1E+10	1	-1E+10	1	-1E+10	1	-1E+10	1	-1E+10	1	-1E+10	1
4901784	215	C	05/24/2021	10:48	-136.149	42.996	0	1510.00	0	2.5540	0	38.5540	8	30.781	0	1492.612	0	26.0	4	8.2	4	-1E+10	1	-1E+10	1	-1E+10	1	-1E+10	1	-1E+10	1	-1E+10	1
4901784	215	C	05/24/2021	10:48	-136.149	42.996	0	1515.20	0	2.5440	0	38.5560	8	30.783	0	1497.734	0	26.3	4	8.3	4	-1E+10	1	-1E+10	1	-1E+10	1	-1E+10	1	-1E+10	1	-1E+10	1
4901784	215	C	05/24/2021	10:48	-136.149	42.996	0	1520.40	0	2.5360	0	38.5590	8	30.786	0	1502.856	0	26.6	4	8.4	4	-1E+10	1	-1E+10	1	-1E+10	1	-1E+10	1	-1E+10	1	-1E+10	1
4901784	215	C	05/24/2021	10:48	-136.149	42.996	0	1525.70	0	2.5300	0	38.5600	8	30.788	0	1508.076	0	26.9	4	8.5	4	-1E+10	1	-1E+10	1	-1E+10	1	-1E+10	1	-1E+10	1	-1E+10	1
4901784	215	C	05/24/2021	10:48	-136.149	42.996	0	1530.10	0	2.5170	0	38.5630	8	30.791	0	1512.409	0	27.2	4	8.6	4	-1E+10	1	-1E+10	1	-1E+10	1	-1E+10	1	-1E+10	1	-1E+10	1
4901784	215	C	05/24/2021	10:48	-136.149	42.996	0	1534.60	0	2.5120	0	38.5640	8	30.793	0	1516.841	0	27.4	4	8.6	4	-1E+10	1	-1E+10	1	-1E+10	1	-1E+10	1	-1E+10	1	-1E+10	1
4901784	215	C	05/24/2021	10:48	-136.149	42.996	0	1539.90	0	2.5070	0	38.5650	8	30.794	0	1522.061	0	27.6	4	8.7	4	-1E+10	1	-1E+10	1	-1E+10	1	-1E+10	1	-1E+10	1	-1E+10	1
4901784	215	C	05/24/2021	10:48	-136.149	42.996	0	1545.30	0	2.4970	0	38.5670	8	30.797	0	1527.379	0	27.9	4	8.8	4	-1E+10	1	-1E+10	1	-1E+10	1	-1E+10	1	-1E+10	1	-1E+10	1
4901784	215	C	05/24/2021	10:48	-136.149	42.996	0	1549.90	0	2.4910	0	38.5690	8	30.799	0	1531.909	0	28.2	4	8.9	4	-1E+10	1	-1E+10	1	-1E+10	1	-1E+10	1	-1E+10	1	-1E+10	1
4901784	215	C	05/24/2021	10:48	-136.149	42.996	0	1554.40	0	2.4840	0	38.5700	8	30.800	0	1536.340	0	28.5	4	9.0	4	-1E+10	1	-1E+10	1	-1E+10	1	-1E+10	1	-1E+10	1	-1E+10	1
4901784	215	C	05/24/2021	10:48	-136.149	42.996	0	1559.90	0	2.4690	0	38.5730	8	30.804	0	1541.756	0	28.8	4	9.1	4	-1E+10	1	-1E+10	1	-1E+10	1	-1E+10	1	-1E+10	1	-1E+10	1
4901784	215	C	05/24/2021	10:48	-136.149	42.996	0	1565.40	0	2.4640	0	38.5740	8	30.806	0	1547.172	0	29.1	4	9.2	4	-1E+10	1	-1E+10	1	-1E+10	1	-1E+10	1	-1E+10	1	-1E+10	1
4901784	215	C	05/24/2021	10:48	-136.149	42.996	0	1569.90	0	2.4560	0	38.5750	8	30.807	0	1551.603	0	29.4	4	9.3	4	-1E+10	1	-1E+10	1	-1E+10	1	-1E+10	1	-1E+10	1	-1E+10	1
4901784	215	C	05/24/2021	10:48	-136.149	42.996	0	1574.50	0	2.4470	0	38.5760	8	30.809	0	1556.133	0	29.9	4	9.4	4	-1E+10	1	-1E+10	1	-1E+10	1	-1E+10	1	-1E+10	1	-1E+10	1
4901784	215	C	05/24/2021	10:48	-136.149	42.996	0	1580.10	0	2.4270	0	38.5800	8	30.814	0	1561.647	0	30.4	4	9.6	4	-1E+10	1	-1E+10	1	-1E+10	1	-1E+10	1	-1E+10	1	-1E+10	1
4901784	215	C	05/24/2021	10:48	-136.149	42.996	0	1584.70	0	2.4220	0	38.5820	8	30.816	0	1566.176	0	30.7	4	9.7	4	-1E+10	1	-1E+10	1	-1E+10	1	-1E+10	1	-1E+10	1	-1E+10	1
4901784	215	C	05/24/2021	10:48	-136.149	42.996	0	1589.40	0	2.4120	0	38.5840	8	30.819	0	1570.803	0	31.0	4	9.7	4	-1E+10	1	-1E+10	1	-1E+10	1	-1E+10	1	-1E+10	1	-1E+10	1
4901784	215	C	05/24/2021	10:48	-136.149	42.996	0	1595.10	0	2.4050	0	38.5850	8	30.820	0	1576.416	0	31.4	4	9.9	4	-1E+10	1	-1E+10	1	-1E+10	1	-1E+10	1	-1E+10	1	-1E+10	1
4901784	215	C	05/24/2021	10:48	-136.149	42.996	0	1599.80	0	2.3940	0	38.5880	8	30.824	0	1581.043	0	31.7	4	9.9	4	-1E+10	1	-1E+10	1	-1E+10	1	-1E+10	1	-1E+10	1	-1E+10	1
4901784	215	C	05/24/2021	10:48	-136.149	42.996	0	1604.40	0	2.3900	0	38.5890	8	30.825	0	1585.572	0	31.9	4	10.0	4	-1E+10	1	-1E+10	1	-1E+10	1	-1E+10	1	-1E+10	1	-1E+10	1
4901784	215	C	05/24/2021	10:48	-136.149	42.996	0	1609.90	0	2.3850	0	38.5910	8	30.827	0	1590.987	0	32.1	4	10.1	4	-1E+10	1	-1E+10	1	-1E+10	1	-1E+10	1	-1E+10	1	-1E+10	1
4901784	215	C	05/24/2021	10:48	-136.149	42.996	0	1615.50	0	2.3810	0	38.5920	8	30.828	0	1596.500	0	32.4	4	10.2	4	-1E+10	1	-1E+10	1	-1E+10	1	-1E+10	1	-1E+10	1	-1E+10	1
4901784	215	C	05/24/2021	10:48	-136.149	42.996	0	1620.50	0	2.3740	0	38.5930	8	30.830	0	1601.422	0	32.7	4	10.3	4	-1E+10	1	-1E+10	1	-1E+10	1	-1E+10	1	-1E+10	1	-1E+10	1
4901784	215	C	05/24/2021	10:48	-136.149	42.996	0	1625.40	0	2.3650	0	38.5950	8	30.832	0	1606.246	0	33.0	4	10.3	4	-1E+10	1	-1E+10	1	-1E+10	1	-1E+10	1	-1E+10	1	-1E+10	1
4901784	215	C	05/24/2021	10:48	-136.149	42.996	0	1630.50	0	2.3570	0	38.5960	8	30.834	0	1611.266	0	33.3	4	10.5	4	-1E+10	1	-1E+10	1	-1E+10	1	-1E+10	1	-1E+10	1	-1E+10	1
4901784	215	C	05/24/2021	10:48	-136.149	42.996	0	1635.50	0	2.3460	0	38.5980	8	30.836	0	1616.188	0	33.7	4	10.6	4	-1E+10	1	-1E+10	1	-1E+10	1	-1E+10	1	-1E+10	1	-1E+10	1
4901784	215	C	05/24/2021	10:48	-136.149	42.996	0	1640.50	0	2.3340	0	38.6000	8	30.839	0	1621.110	0	34.2	4	10.7	4	-1E+10	1	-1E+10	1	-1E+10	1	-1E+10	1	-1E+10	1	-1E+10	1
4901784	215	C	05/24/2021	10:48	-136.149	42.996	0	1645.70	0	2.3260	0	38.6020	8	30.841	0	1626.229	0	34.7	4	10.9	4	-1E+10	1	-1E+10	1	-1E+10	1	-1E+10	1	-1E+10	1	-1E+10	1
4901784	215	C	05/24/2021	10:48	-136.149	42.996	0	1650.00	0	2.3150	0	38.6050	8	30.845	0	1630.461	0	35.1	4	11.0	4	-1E+10	1	-1E+10	1	-1E+10	1	-1E+10	1	-1E+10	1	-1E+10	1
4901784	215	C	05/24/2021	10:48	-136.149	42.996	0	1654.30	0	2.3040	0	38.6060	8	30.847	0	1634.694	0	35.5	4	11.1	4	-1E+10	1	-1E+10	1	-1E+10	1	-1E+10	1	-1E+10	1	-1E+10	1
4901784	215	C	05/24/2021	10:48	-136.149	42.996	0	1659.50	0	2.2920	0	38.6090	8	30.850	0	1639.812	0	35.9	4	11.2	4	-1E+10	1	-1E+10	1	-1E+10	1	-1E+10	1	-1E+10	1	-1E+10	1
4901784	215	C	05/24/2021	10:48	-136.149	42.996	0	1664.70	0	2.2820	0	38.6110	8	30.853	0	1644.930	0	36.3	4	11.4	4	-1E+10	1	-1E+10	1	-1E+10	1	-1E+10	1	-1E+10	1	-1E+10	1
4901784	215	C	05/24/2021	10:48	-136.149	42.996	0	1669.90	0	2.2740	0	38.6130	8	30.855	0	1650.048	0	36.6	4	11.5	4	-1E+10	1	-1E+10	1	-1E+10	1	-1E+10	1	-1E+10	1	-1E+10	1
4901784	215	C	05/24/2021	10:48	-136.149	42.996	0	1675.10	0	2.2660	0	38.6150	8	30.858	0	1655.166	0	36.9	4	11.6	4	-1E+10	1	-1E+10	1	-1E+10	1	-1E+10	1	-1E+10	1	-1E+10	1
4901784	215	C	05/24/2021	10:48	-136.149	42.996	0	1680.40	0	2.2620	0	38.6160	8	30.859	0	1660.382	0	37.1	4	11.6	4	-1E+10	1	-1E+10	1	-1E+10	1	-1E+10	1	-1E+10	1	-1E+10	1
4901784	215	C	05/24/2021	10:48	-136.149	42.996	0	1685.70	0	2.2560	0	38.6180	8	30.861	0	1665.598	0	37.3	4	11.7	4	-1E+10	1	-1E+10	1	-1E+10	1	-1E+10	1	-1E+10	1	-1E+10	1
4901784	215	C	05/24/2021	10:48	-136.149	42.996	0	1690.20	0	2.2530	0	38.6180	8	30.861	0	1670.027	0	37.5	4	11.7	4	-1E+10	1	-1E+10	1	-1E+10	1	-1E+10	1	-1E+10	1	-1E+10	1
4901784	215	C	05/24/2021	10:48	-136.149	42.996	0	1694.60	0	2.2490	0	38.6190	8	30.863	0	1674.357	0	37.7	4	11.8	4	-1E+10	1	-1E+10	1	-1E+10	1	-1E+10	1	-1E+10	1	-1E+10	1
4901784	215	C	05/24/2021	10:48	-136.149	42.996	0	1700.00	0	2.2420	0	38.6210	8	30.865	0	1679.671	0	38.1	4	11.9	4	-1E+10	1	-1E+10	1	-1E+10	1	-1E+10	1	-1E+10	1	-1E+10	1
4901784	215	C	05/24/2021	10:48	-136.149	42.996	0	1705.30	0	2.2350	0	38.6230	8	30.867	0	1684.887	0	38.4	4	12.0	4	-1E+10	1	-1E+10	1	-1E+10	1	-1E+10	1	-1E+10	1	-1E+10	1
4901784	215	C	05/24/2021	10:48	-136.149	42.996	0	1710.70	0	2.2300	0	38.6240	8	30.868	0	1690.201	0	38.7	4	12.1	4	-1E+10	1	-1E+10	1	-1E+10	1	-1E+10	1	-1E+10	1	-1E+10	1
4901784	215	C	05/24/2021	10:48	-136.149	42.996	0	1715.10	0	2.2240	0	38.6250	8	30.870	0	1694.530	0	39.1	4	12.2	4	-1E+10	1	-1E+10	1	-1E+10	1	-1E+10	1	-1E+10	1	-1E+10	1
4901784	215	C	05/24/2021	10:48	-136.149	42.996	0	1719.50	0	2.2170	0	38.6270	8	30.872	0	1698.860	0	39.4	4	12.3	4	-1E+10	1	-1E+10	1	-1E+10	1	-1E+10	1	-1E+10	1	-1E+10	1
4901784	215	C	05/24/2021	10:48	-136.149	42.996	0	1724.80	0	2.2090	0	38.6290	8	30.874	0	1704.075	0	39.8	4	12.5	4	-1E+10	1	-1E+10	1	-1E+10	1	-1E+10	1	-1E+10	1	-1E+10	1
4901784	215	C	05/24/2021	10:48	-136.149	42.996	0	1730.20	0	2.2010	0	38.6310	8	30.877	0	1709.388	0	40.2	4	12.6	4	-1E+10	1	-1E+10	1	-1E+10	1	-1E+10	1	-1E+10	1	-1E+10	1
4901784	215	C	05/24/2021	10:48	-136.149	42.996	0	1735.50	0	2.1950	0	38.6330	8	30.879	0	1714.603	0	40.5	4	12.6	4	-1E+10	1	-1E+10	1	-1E+10	1	-1E+10	1	-1E+10	1	-1E+10	1
4901784	215	C	05/24/2021	10:48	-136.149	42.996	0	1740.00	0	2.1920	0	38.6330	8	30.879	0	1719.031	0	40.6	4	12.7	4	-1E+10	1	-1E+10	1	-1E+10	1	-1E+10	1	-1E+10	1	-1E+10	1
4901784	215	C	05/24/2021	10:48	-136.149	42.996	0	1744.60	0	2.1910	0	38.6340	8	30.880	0	1723.557	0	40.9	4	12.8	4	-1E+10	1	-1E+10	1	-1E+10	1	-1E+10	1	-1E+10	1	-1E+10	1
4901784	215	C	05/24/2021	10:48	-136.149	42.996	0	1750.10	0	2.1810	0	38.6360	8	30.883	0	1728.968	0	41.4	4	12.9	4	-1E+10	1	-1E+10	1	-1E+10	1	-1E+10	1	-1E+10	1	-1E+10	1
4901784	215	C	05/24/2021	10:48	-136.149	42.996	0	1755.20	0	2.1740	0	38.6380	8	30.885	0	1733.986	0	41.8	4	13.1	4	-1E+10	1	-1E+10	1	-1E+10	1	-1E+10	1	-1E+10	1	-1E+10	1
4901784	215	C	05/24/2021	10:48	-136.149	42.996	0	1759.40	0	2.1680	0	38.6390	8	30.886	0	1738.118	0	42.1	4	13.2	4	-1E+10	1	-1E+10	1	-1E+10	1	-1E+10	1	-1E+10	1	-1E+10	1
4901784	215	C	05/24/2021	10:48	-136.149	42.996	0	1765.00	0	2.1600	0	38.6410	8	30.889	0	1743.627	0	42.5	4	13.3	4	-1E+10	1	-1E+10	1	-1E+10	1	-1E+10	1	-1E+10	1	-1E+10	1
4901784	215	C	05/24/2021	10:48	-136.149	42.996	0	1770.60	0	2.1520	0	38.6430	8	30.891	0	1749.136	0	42.9	4	13.4	4	-1E+10	1	-1E+10	1	-1E+10	1	-1E+10	1	-1E+10	1	-1E+10	1
4901784	215	C	05/24/2021	10:48	-136.149	42.996	0	1775.40	0	2.1490	0	38.6440	8	30.892	0	1753.858	0	43.2	4	13.5	4	-1E+10	1	-1E+10	1	-1E+10	1	-1E+10	1	-1E+10	1	-1E+10	1
4901784	215	C	05/24/2021	10:48	-136.149	42.996	0	1780.30	0	2.1440	0	38.6450	8	30.894	0	1758.678	0	43.5	4	13.6	4	-1E+10	1	-1E+10	1	-1E+10	1	-1E+10	1	-1E+10	1	-1E+10	1
4901784	215	C	05/24/2021	10:48	-136.149	42.996	0	1785.30	0	2.1380	0	38.6470	8	30.896	0	1763.597	0	43.7	4	13.6	4	-1E+10	1	-1E+10	1	-1E+10	1	-1E+10	1	-1E+10	1	-1E+10	1
4901784	215	C	05/24/2021	10:48	-136.149	42.996	0	1790.20	0	2.1360	0	38.6480	8	30.897	0	1768.417	0	43.8	4	13.7	4	-1E+10	1	-1E+10	1	-1E+10	1	-1E+10	1	-1E+10	1	-1E+10	1
4901784	215	C	05/24/2021	10:48	-136.149	42.996	0	1795.10	0	2.1320	0	38.6490	8	30.898	0	1773.237	0	44.1	4	13.8	4	-1E+10	1	-1E+10	1	-1E+10	1	-1E+10	1	-1E+10	1	-1E+10	1
4901784	215	C	05/24/2021	10:48	-136.149	42.996	0	1800.10	0	2.1280	0	38.6500	8	30.899	0	1778.155	0	44.3	4	13.8	4	-1E+10	1	-1E+10	1	-1E+10	1	-1E+10	1	-1E+10	1	-1E+10	1
4901784	215	C	05/24/2021	10:48	-136.149	42.996	0	1805.00	0	2.1250	0	38.6510	8	30.900	0	1782.975	0	44.6	4	13.9	4	-1E+10	1	-1E+10	1	-1E+10	1	-1E+10	1	-1E+10	1	-1E+10	1
4901784	215	C	05/24/2021	10:48	-136.149	42.996	0	1810.00	0	2.1190	0	38.6530	8	30.903	0	1787.893	0	45.0	4	14.1	4	-1E+10	1	-1E+10	1	-1E+10	1	-1E+10	1	-1E+10	1	-1E+10	1
4901784	215	C	05/24/2021	10:48	-136.149	42.996	0	1815.00	0	2.1120	0	38.6540	8	30.904	0	1792.811	0	45.4	4	14.2	4	-1E+10	1	-1E+10	1	-1E+10	1	-1E+10	1	-1E+10	1	-1E+10	1
4901784	215	C	05/24/2021	10:48	-136.149	42.996	0	1819.90	0	2.1080	0	38.6560	8	30.906	0	1797.630	0	45.7	4	14.3	4	-1E+10	1	-1E+10	1	-1E+10	1	-1E+10	1	-1E+10	1	-1E+10	1
4901784	215	C	05/24/2021	10:48	-136.149	42.996	0	1824.90	0	2.1050	0	38.6570	8	30.907	0	1802.548	0	46.0	4	14.3	4	-1E+10	1	-1E+10	1	-1E+10	1	-1E+10	1	-1E+10	1	-1E+10	1
4901784	215	C	05/24/2021	10:48	-136.149	42.996	0	1829.90	0	2.0980	0	38.6580	8	30.909	0	1807.465	0	46.4	4	14.5	4	-1E+10	1	-1E+10	1	-1E+10	1	-1E+10	1	-1E+10	1	-1E+10	1
4901784	215	C	05/24/2021	10:48	-136.149	42.996	0	1834.90	0	2.0930	0	38.6590	8	30.910	0	1812.382	0	46.7	4	14.6	4	-1E+10	1	-1E+10	1	-1E+10	1	-1E+10	1	-1E+10	1	-1E+10	1
4901784	215	C	05/24/2021	10:48	-136.149	42.996	0	1840.00	0	2.0910	0	38.6600	8	30.911	0	1817.398	0	47.1	4	14.7	4	-1E+10	1	-1E+10	1	-1E+10	1	-1E+10	1	-1E+10	1	-1E+10	1
4901784	215	C	05/24/2021	10:48	-136.149	42.996	0	1845.10	0	2.0810	0	38.6620	8	30.913	0	1822.414	0	47.5	4	14.8	4	-1E+10	1	-1E+10	1	-1E+10	1	-1E+10	1	-1E+10	1	-1E+10	1
4901784	215	C	05/24/2021	10:48	-136.149	42.996	0	1850.20	0	2.0750	0	38.6630	8	30.915	0	1827.429	0	47.9	4	14.9	4	-1E+10	1	-1E+10	1	-1E+10	1	-1E+10	1	-1E+10	1	-1E+10	1
4901784	215	C	05/24/2021	10:48	-136.149	42.996	0	1855.30	0	2.0660	0	38.6640	8	30.916	0	1832.444	0	48.3	4	15.0	4	-1E+10	1	-1E+10	1	-1E+10	1	-1E+10	1	-1E+10	1	-1E+10	1
4901784	215	C	05/24/2021	10:48	-136.149	42.996	0	1860.50	0	2.0610	0	38.6660	8	30.919	0	1837.558	0	48.6	4	15.2	4	-1E+10	1	-1E+10	1	-1E+10	1	-1E+10	1	-1E+10	1	-1E+10	1
4901784	215	C	05/24/2021	10:48	-136.149	42.996	0	1865.70	0	2.0550	0	38.6680	8	30.921	0	1842.671	0	48.9	4	15.2	4	-1E+10	1	-1E+10	1	-1E+10	1	-1E+10	1	-1E+10	1	-1E+10	1
4901784	215	C	05/24/2021	10:48	-136.149	42.996	0	1870.10	0	2.0500	0	38.6690	8	30.922	0	1846.998	0	49.2	4	15.3	4	-1E+10	1	-1E+10	1	-1E+10	1	-1E+10	1	-1E+10	1	-1E+10	1
4901784	215	C	05/24/2021	10:48	-136.149	42.996	0	1874.40	0	2.0460	0	38.6700	8	30.923	0	1851.226	0	49.3	4	15.4	4	-1E+10	1	-1E+10	1	-1E+10	1	-1E+10	1	-1E+10	1	-1E+10	1
4901784	215	C	05/24/2021	10:48	-136.149	42.996	0	1879.70	0	2.0460	0	38.6700	8	30.923	0	1856.437	0	49.4	4	15.4	4	-1E+10	1	-1E+10	1	-1E+10	1	-1E+10	1	-1E+10	1	-1E+10	1
4901784	215	C	05/24/2021	10:48	-136.149	42.996	0	1885.00	0	2.0420	0	38.6710	8	30.924	0	1861.648	0	49.7	4	15.5	4	-1E+10	1	-1E+10	1	-1E+10	1	-1E+10	1	-1E+10	1	-1E+10	1
4901784	215	C	05/24/2021	10:48	-136.149	42.996	0	1890.30	0	2.0380	0	38.6720	8	30.926	0	1866.860	0	50.0	4	15.6	4	-1E+10	1	-1E+10	1	-1E+10	1	-1E+10	1	-1E+10	1	-1E+10	1
4901784	215	C	05/24/2021	10:48	-136.149	42.996	0	1895.60	0	2.0340	0	38.6740	8	30.928	0	1872.070	0	50.2	4	15.6	4	-1E+10	1	-1E+10	1	-1E+10	1	-1E+10	1	-1E+10	1	-1E+10	1
4901784	215	C	05/24/2021	10:48	-136.149	42.996	0	1900.10	0	2.0330	0	38.6750	8	30.929	0	1876.495	0	50.3	4	15.7	4	-1E+10	1	-1E+10	1	-1E+10	1	-1E+10	1	-1E+10	1	-1E+10	1
4901784	215	C	05/24/2021	10:48	-136.149	42.996	0	1904.50	0	2.0320	0	38.6750	8	30.929	0	1880.821	0	50.5	4	15.7	4	-1E+10	1	-1E+10	1	-1E+10	1	-1E+10	1	-1E+10	1	-1E+10	1
4901784	215	C	05/24/2021	10:48	-136.149	42.996	0	1909.90	0	2.0300	0	38.6750	8	30.929	0	1886.130	0	50.9	4	15.8	4	-1E+10	1	-1E+10	1	-1E+10	1	-1E+10	1	-1E+10	1	-1E+10	1
4901784	215	C	05/24/2021	10:48	-136.149	42.996	0	1915.30	0	2.0210	0	38.6770	8	30.931	0	1891.438	0	51.4	4	16.0	4	-1E+10	1	-1E+10	1	-1E+10	1	-1E+10	1	-1E+10	1	-1E+10	1
4901784	215	C	05/24/2021	10:48	-136.149	42.996	0	1920.60	0	2.0160	0	38.6780	8	30.933	0	1896.649	0	51.9	4	16.1	4	-1E+10	1	-1E+10	1	-1E+10	1	-1E+10	1	-1E+10	1	-1E+10	1
4901784	215	C	05/24/2021	10:48	-136.149	42.996	0	1925.10	0	2.0100	0	38.6800	8	30.935	0	1901.073	0	52.3	4	16.3	4	-1E+10	1	-1E+10	1	-1E+10	1	-1E+10	1	-1E+10	1	-1E+10	1
4901784	215	C	05/24/2021	10:48	-136.149	42.996	0	1929.60	0	2.0010	0	38.6820	8	30.937	0	1905.496	0	52.7	4	16.4	4	-1E+10	1	-1E+10	1	-1E+10	1	-1E+10	1	-1E+10	1	-1E+10	1
4901784	215	C	05/24/2021	10:48	-136.149	42.996	0	1935.00	0	1.9950	0	38.6830	8	30.939	0	1910.805	0	53.1	4	16.5	4	-1E+10	1	-1E+10	1	-1E+10	1	-1E+10	1	-1E+10	1	-1E+10	1
4901784	215	C	05/24/2021	10:48	-136.149	42.996	0	1940.10	0	1.9930	0	38.6840	8	30.940	0	1915.818	0	53.4	4	16.6	4	-1E+10	1	-1E+10	1	-1E+10	1	-1E+10	1	-1E+10	1	-1E+10	1
4901784	215	C	05/24/2021	10:48	-136.149	42.996	0	1944.30	0	1.9890	0	38.6850	8	30.941	0	1919.946	0	53.7	4	16.7	4	-1E+10	1	-1E+10	1	-1E+10	1	-1E+10	1	-1E+10	1	-1E+10	1
4901784	215	C	05/24/2021	10:48	-136.149	42.996	0	1950.00	0	1.9810	0	38.6870	8	30.943	0	1925.549	0	54.3	4	16.9	4	-1E+10	1	-1E+10	1	-1E+10	1	-1E+10	1	-1E+10	1	-1E+10	1
4901784	215	C	05/24/2021	10:48	-136.149	42.996	0	1955.60	0	1.9740	0	38.6890	8	30.945	0	1931.054	0	54.7	4	17.0	4	-1E+10	1	-1E+10	1	-1E+10	1	-1E+10	1	-1E+10	1	-1E+10	1
4901784	215	C	05/24/2021	10:48	-136.149	42.996	0	1960.50	0	1.9700	0	38.6900	8	30.947	0	1935.870	0	54.9	4	17.1	4	-1E+10	1	-1E+10	1	-1E+10	1	-1E+10	1	-1E+10	1	-1E+10	1
4901784	215	C	05/24/2021	10:48	-136.149	42.996	0	1965.50	0	1.9690	0	38.6900	8	30.947	0	1940.784	0	55.1	4	17.1	4	-1E+10	1	-1E+10	1	-1E+10	1	-1E+10	1	-1E+10	1	-1E+10	1
4901784	215	C	05/24/2021	10:48	-136.149	42.996	0	1970.50	0	1.9680	0	38.6910	8	30.948	0	1945.699	0	55.2	4	17.2	4	-1E+10	1	-1E+10	1	-1E+10	1	-1E+10	1	-1E+10	1	-1E+10	1
4901784	215	C	05/24/2021	10:48	-136.149	42.996	0	1975.40	0	1.9660	0	38.6920	8	30.949	0	1950.515	0	55.4	4	17.2	4	-1E+10	1	-1E+10	1	-1E+10	1	-1E+10	1	-1E+10	1	-1E+10	1
4901784	215	C	05/24/2021	10:48	-136.149	42.996	0	1980.40	0	1.9630	0	38.6930	8	30.950	0	1955.429	0	55.6	4	17.3	4	-1E+10	1	-1E+10	1	-1E+10	1	-1E+10	1	-1E+10	1	-1E+10	1
4901784	215	C	05/24/2021	10:48	-136.149	42.996	0	1985.40	0	1.9610	0	38.6930	8	30.950	0	1960.343	0	55.7	4	17.3	4	-1E+10	1	-1E+10	1	-1E+10	1	-1E+10	1	-1E+10	1	-1E+10	1
4901784	215	C	05/24/2021	10:48	-136.149	42.996	0	1990.40	0	1.9600	0	38.6940	8	30.951	0	1965.257	0	55.9	4	17.4	4	-1E+10	1	-1E+10	1	-1E+10	1	-1E+10	1	-1E+10	1	-1E+10	1
4901784	215	C	05/24/2021	10:48	-136.149	42.996	0	1995.50	0	1.9590	0	38.6940	8	30.951	0	1970.268	0	56.2	4	17.5	4	-1E+10	1	-1E+10	1	-1E+10	1	-1E+10	1	-1E+10	1	-1E+10	1
4901784	215	C	05/24/2021	10:48	-136.149	42.996	0	2000.70	0	1.9530	0	38.6950	8	30.952	0	1975.379	0	56.6	4	17.6	4	-1E+10	1	-1E+10	1	-1E+10	1	-1E+10	1	-1E+10	1	-1E+10	1
4901784	215	C	05/24/2021	10:48	-136.149	42.996	0	2004.90	0	1.9470	0	38.6960	8	30.954	0	1979.506	0	57.0	4	17.7	4	-1E+10	1	-1E+10	1	-1E+10	1	-1E+10	1	-1E+10	1	-1E+10	1
4901784	215	C	05/24/2021	10:48	-136.149	42.996	0	2009.80	0	1.9420	0	38.6980	8	30.956	0	1984.321	0	57.2	4	17.8	4	-1E+10	1	-1E+10	1	-1E+10	1	-1E+10	1	-1E+10	1	-1E+10	1
4901784	215	C	05/24/2021	10:48	-136.149	42.996	0	2015.20	0	1.9390	0	38.6980	8	30.956	0	1989.627	0	57.5	4	17.9	4	-1E+10	1	-1E+10	1	-1E+10	1	-1E+10	1	-1E+10	1	-1E+10	1
4901784	215	C	05/24/2021	10:48	-136.149	42.996	0	2020.50	0	1.9360	0	38.6990	8	30.957	0	1994.835	0	57.9	4	18.0	4	-1E+10	1	-1E+10	1	-1E+10	1	-1E+10	1	-1E+10	1	-1E+10	1
4901784	215	C	05/24/2021	10:48	-136.149	42.996	0																										
4901784	216	C	06/03/2021	10:44	-136.335	43.071	0	2.60	0	14.6590	0	36.0010	8	26.820	0	2.579	0	245.1	4	98.9	4	-1E+10	1	-1E+10	1	-1E+10	1	-1E+10	1	-1E+10	1	-1E+10	1
4901784	216	C	06/03/2021	10:44	-136.335	43.071	0	4.20	0	14.2940	0	36.0180	8	26.912	0	4.167	0	245.9	4	98.6	4	-1E+10	1	-1E+10	1	-1E+10	1	-1E+10	1	-1E+10	1	-1E+10	1
4901784	216	C	06/03/2021	10:44	-136.335	43.071	0	5.90	0	14.0680	0	36.0280	8	26.968	0	5.853	0	247.3	4	98.7	4	-1E+10	1	-1E+10	1	-1E+10	1	-1E+10	1	-1E+10	1	-1E+10	1
4901784	216	C	06/03/2021	10:44	-136.335	43.071	0	7.60	0	14.0440	0	36.0300	8	26.975	0	7.540	0	247.4	4	98.7	4	-1E+10	1	-1E+10	1	-1E+10	1	-1E+10	1	-1E+10	1	-1E+10	1
4901784	216	C	06/03/2021	10:44	-136.335	43.071	0	9.40	0	14.0280	0	36.0310	8	26.979	0	9.325	0	247.3	4	98.6	4	-1E+10	1	-1E+10	1	-1E+10	1	-1E+10	1	-1E+10	1	-1E+10	1
4901784	216	C	06/03/2021	10:44	-136.335	43.071	0	11.20	0	14.0110	0	36.0320	8	26.984	0	11.111	0	247.5	4	98.6	4	-1E+10	1	-1E+10	1	-1E+10	1	-1E+10	1	-1E+10	1	-1E+10	1
4901784	216	C	06/03/2021	10:44	-136.335	43.071	0	13.00	0	13.9970	0	36.0340	8	26.988	0	12.896	0	247.4	4	98.6	4	-1E+10	1	-1E+10	1	-1E+10	1	-1E+10	1	-1E+10	1	-1E+10	1
4901784	216	C	06/03/2021	10:44	-136.335	43.071	0	14.80	0	13.9880	0	36.0360	8	26.992	0	14.682	0	247.3	4	98.5	4	-1E+10	1	-1E+10	1	-1E+10	1	-1E+10	1	-1E+10	1	-1E+10	1
4901784	216	C	06/03/2021	10:44	-136.335	43.071	0	16.70	0	13.9780	0	36.0380	8	26.996	0	16.567	0	247.3	4	98.5	4	-1E+10	1	-1E+10	1	-1E+10	1	-1E+10	1	-1E+10	1	-1E+10	1
4901784	216	C	06/03/2021	10:44	-136.335	43.071	0	18.50	0	13.9690	0	36.0390	8	26.998	0	18.352	0	247.3	4	98.5	4	-1E+10	1	-1E+10	1	-1E+10	1	-1E+10	1	-1E+10	1	-1E+10	1
4901784	216	C	06/03/2021	10:44	-136.335	43.071	0	20.30	0	13.9600	0	36.0410	8	27.002	0	20.138	0	247.5	4	98.5	4	-1E+10	1	-1E+10	1	-1E+10	1	-1E+10	1	-1E+10	1	-1E+10	1
4901784	216	C	06/03/2021	10:44	-136.335	43.071	0	22.20	0	13.9560	0	36.0420	8	27.004	0	22.023	0	247.4	4	98.5	4	-1E+10	1	-1E+10	1	-1E+10	1	-1E+10	1	-1E+10	1	-1E+10	1
4901784	216	C	06/03/2021	10:44	-136.335	43.071	0	24.10	0	13.9540	0	36.0420	8	27.004	0	23.907	0	247.3	4	98.5	4	-1E+10	1	-1E+10	1	-1E+10	1	-1E+10	1	-1E+10	1	-1E+10	1
4901784	216	C	06/03/2021	10:44	-136.335	43.071	0	25.90	0	13.9470	0	36.0430	8	27.006	0	25.693	0	247.5	4	98.5	4	-1E+10	1	-1E+10	1	-1E+10	1	-1E+10	1	-1E+10	1	-1E+10	1
4901784	216	C	06/03/2021	10:44	-136.335	43.071	0	27.70	0	13.9400	0	36.0420	8	27.007	0	27.478	0	247.7	4	98.6	4	-1E+10	1	-1E+10	1	-1E+10	1	-1E+10	1	-1E+10	1	-1E+10	1
4901784	216	C	06/03/2021	10:44	-136.335	43.071	0	29.50	0	13.9360	0	36.0410	8	27.007	0	29.264	0	248.0	4	98.7	4	-1E+10	1	-1E+10	1	-1E+10	1	-1E+10	1	-1E+10	1	-1E+10	1
4901784	216	C	06/03/2021	10:44	-136.335	43.071	0	31.30	0	13.9300	0	36.0370	8	27.005	0	31.049	0	248.6	4	98.9	4	-1E+10	1	-1E+10	1	-1E+10	1	-1E+10	1	-1E+10	1	-1E+10	1
4901784	216	C	06/03/2021	10:44	-136.335	43.071	0	33.00	0	13.8480	0	36.0400	8	27.025	0	32.735	0	249.4	4	99.1	4	-1E+10	1	-1E+10	1	-1E+10	1	-1E+10	1	-1E+10	1	-1E+10	1
4901784	216	C	06/03/2021	10:44	-136.335	43.071	0	35.10	0	13.7380	0	36.0440	8	27.051	0	34.818	0	250.4	4	99.3	4	-1E+10	1	-1E+10	1	-1E+10	1	-1E+10	1	-1E+10	1	-1E+10	1
4901784	216	C	06/03/2021	10:44	-136.335	43.071	0	35.60	0	13.7280	0	36.0420	8	27.052	0	35.314	0	250.9	4	99.5	4	-1E+10	1	-1E+10	1	-1E+10	1	-1E+10	1	-1E+10	1	-1E+10	1
4901784	216	C	06/03/2021	10:44	-136.335	43.071	0	37.10	0	13.6490	0	36.0410	8	27.068	0	36.802	0	252.1	4	99.8	4	-1E+10	1	-1E+10	1	-1E+10	1	-1E+10	1	-1E+10	1	-1E+10	1
4901784	216	C	06/03/2021	10:44	-136.335	43.071	0	38.60	0	13.5060	0	36.0500	8	27.105	0	38.290	0	253.4	4	100.0	4	-1E+10	1	-1E+10	1	-1E+10	1	-1E+10	1	-1E+10	1	-1E+10	1
4901784	216	C	06/03/2021	10:44	-136.335	43.071	0	40.00	0	13.2870	0	36.0790	8	27.172	0	39.679	0	255.1	4	100.3	4	-1E+10	1	-1E+10	1	-1E+10	1	-1E+10	1	-1E+10	1	-1E+10	1
4901784	216	C	06/03/2021	10:44	-136.335	43.071	0	41.40	0	13.1950	0	36.0850	8	27.196	0	41.067	0	256.0	4	100.4	4	-1E+10	1	-1E+10	1	-1E+10	1	-1E+10	1	-1E+10	1	-1E+10	1
4901784	216	C	06/03/2021	10:44	-136.335	43.071	0	42.70	0	13.1660	0	36.0790	8	27.197	0	42.357	0	256.8	4	100.7	4	-1E+10	1	-1E+10	1	-1E+10	1	-1E+10	1	-1E+10	1	-1E+10	1
4901784	216	C	06/03/2021	10:44	-136.335	43.071	0	44.10	0	13.0590	0	36.0850	8	27.224	0	43.745	0	257.5	4	100.7	4	-1E+10	1	-1E+10	1	-1E+10	1	-1E+10	1	-1E+10	1	-1E+10	1
4901784	216	C	06/03/2021	10:44	-136.335	43.071	0	45.60	0	12.9660	0	36.0830	8	27.241	0	45.233	0	258.5	4	100.9	4	-1E+10	1	-1E+10	1	-1E+10	1	-1E+10	1	-1E+10	1	-1E+10	1
4901784	216	C	06/03/2021	10:44	-136.335	43.071	0	47.10	0	12.7380	0	36.0960	8	27.297	0	46.721	0	259.9	4	101.0	4	-1E+10	1	-1E+10	1	-1E+10	1	-1E+10	1	-1E+10	1	-1E+10	1
4901784	216	C	06/03/2021	10:44	-136.335	43.071	0	48.60	0	12.6960	0	36.0890	8	27.300	0	48.208	0	260.6	4	101.2	4	-1E+10	1	-1E+10	1	-1E+10	1	-1E+10	1	-1E+10	1	-1E+10	1
4901784	216	C	06/03/2021	10:44	-136.335	43.071	0	50.20	0	12.5850	0	36.0960	8	27.328	0	49.795	0	261.5	4	101.3	4	-1E+10	1	-1E+10	1	-1E+10	1	-1E+10	1	-1E+10	1	-1E+10	1
4901784	216	C	06/03/2021	10:44	-136.335	43.071	0	51.80	0	12.3690	0	36.0970	8	27.371	0	51.382	0	263.0	4	101.4	4	-1E+10	1	-1E+10	1	-1E+10	1	-1E+10	1	-1E+10	1	-1E+10	1
4901784	216	C	06/03/2021	10:44	-136.335	43.071	0	53.30	0	12.2330	0	36.0920	8	27.394	0	52.870	0	264.0	4	101.5	4	-1E+10	1	-1E+10	1	-1E+10	1	-1E+10	1	-1E+10	1	-1E+10	1
4901784	216	C	06/03/2021	10:44	-136.335	43.071	0	54.90	0	11.9500	0	36.1100	8	27.463	0	54.457	0	265.0	4	101.4	4	-1E+10	1	-1E+10	1	-1E+10	1	-1E+10	1	-1E+10	1	-1E+10	1
4901784	216	C	06/03/2021	10:44	-136.335	43.071	0	56.50	0	11.7340	0	36.1190	8	27.512	0	56.044	0	266.0	4	101.3	4	-1E+10	1	-1E+10	1	-1E+10	1	-1E+10	1	-1E+10	1	-1E+10	1
4901784	216	C	06/03/2021	10:44	-136.335	43.071	0	58.10	0	11.6030	0	36.1200	8	27.538	0	57.631	0	266.5	4	101.2	4	-1E+10	1	-1E+10	1	-1E+10	1	-1E+10	1	-1E+10	1	-1E+10	1
4901784	216	C	06/03/2021	10:44	-136.335	43.071	0	59.80	0	11.4350	0	36.1380	8	27.583	0	59.317	0	266.3	4	100.8	4	-1E+10	1	-1E+10	1	-1E+10	1	-1E+10	1	-1E+10	1	-1E+10	1
4901784	216	C	06/03/2021	10:44	-136.335	43.071	0	61.50	0	11.3570	0	36.1270	8	27.589	0	61.003	0	265.8	4	100.4	4	-1E+10	1	-1E+10	1	-1E+10	1	-1E+10	1	-1E+10	1	-1E+10	1
4901784	216	C	06/03/2021	10:44	-136.335	43.071	0	63.20	0	11.1250	0	36.1490	8	27.650	0	62.689	0	265.0	4	99.7	4	-1E+10	1	-1E+10	1	-1E+10	1	-1E+10	1	-1E+10	1	-1E+10	1
4901784	216	C	06/03/2021	10:44	-136.335	43.071	0	64.90	0	11.0660	0	36.1450	8	27.658	0	64.375	0	264.9	4	99.5	4	-1E+10	1	-1E+10	1	-1E+10	1	-1E+10	1	-1E+10	1	-1E+10	1
4901784	216	C	06/03/2021	10:44	-136.335	43.071	0	66.70	0	11.0080	0	36.1450	8	27.668	0	66.160	0	263.9	4	99.0	4	-1E+10	1	-1E+10	1	-1E+10	1	-1E+10	1	-1E+10	1	-1E+10	1
4901784	216	C	06/03/2021	10:44	-136.335	43.071	0	68.40	0	10.9370	0	36.1460	8	27.682	0	67.846	0	263.1	4	98.5	4	-1E+10	1	-1E+10	1	-1E+10	1	-1E+10	1	-1E+10	1	-1E+10	1
4901784	216	C	06/03/2021	10:44	-136.335	43.071	0	70.20	0	10.8530	0	36.1470	8	27.698	0	69.631	0	262.1	4	98.0	4	-1E+10	1	-1E+10	1	-1E+10	1	-1E+10	1	-1E+10	1	-1E+10	1
4901784	216	C	06/03/2021	10:44	-136.335	43.071	0	72.10	0	10.7190	0	36.1600	8	27.733	0	71.515	0	261.6	4	97.5	4	-1E+10	1	-1E+10	1	-1E+10	1	-1E+10	1	-1E+10	1	-1E+10	1
4901784	216	C	06/03/2021	10:44	-136.335	43.071	0	73.90	0	10.6670	0	36.1570	8	27.740	0	73.300	0	261.4	4	97.4	4	-1E+10	1	-1E+10	1	-1E+10	1	-1E+10	1	-1E+10	1	-1E+10	1
4901784	216	C	06/03/2021	10:44	-136.335	43.071	0	75.70	0	10.5950	0	36.1610	8	27.756	0	75.085	0	260.6	4	96.9	4	-1E+10	1	-1E+10	1	-1E+10	1	-1E+10	1	-1E+10	1	-1E+10	1
4901784	216	C	06/03/2021	10:44	-136.335	43.071	0	77.50	0	10.5170	0	36.1660	8	27.774	0	76.870	0	260.1	4	96.6	4	-1E+10	1	-1E+10	1	-1E+10	1	-1E+10	1	-1E+10	1	-1E+10	1
4901784	216	C	06/03/2021	10:44	-136.335	43.071	0	79.30	0	10.4970	0	36.1650	8	27.777	0	78.655	0	259.2	4	96.2	4	-1E+10	1	-1E+10	1	-1E+10	1	-1E+10	1	-1E+10	1	-1E+10	1
4901784	216	C	06/03/2021	10:44	-136.335	43.071	0	81.10	0	10.4550	0	36.1620	8	27.782	0	80.440	0	258.3	4	95.8	4	-1E+10	1	-1E+10	1	-1E+10	1	-1E+10	1	-1E+10	1	-1E+10	1
4901784	216	C	06/03/2021	10:44	-136.335	43.071	0	82.90	0	10.3680	0	36.1620	8	27.797	0	82.225	0	257.8	4	95.4	4	-1E+10	1	-1E+10	1	-1E+10	1	-1E+10	1	-1E+10	1	-1E+10	1
4901784	216	C	06/03/2021	10:44	-136.335	43.071	0	84.60	0	10.3560	0	36.1610	8	27.799	0	83.911	0	257.3	4	95.2	4	-1E+10	1	-1E+10	1	-1E+10	1	-1E+10	1	-1E+10	1	-1E+10	1
4901784	216	C	06/03/2021	10:44	-136.335	43.071	0	86.50	0	10.2980	0	36.1600	8	27.808	0	85.795	0	257.1	4	95.0	4	-1E+10	1	-1E+10	1	-1E+10	1	-1E+10	1	-1E+10	1	-1E+10	1
4901784	216	C	06/03/2021	10:44	-136.335	43.071	0	88.30	0	10.1980	0	36.1600	8	27.826	0	87.580	0	257.2	4	94.8	4	-1E+10	1	-1E+10	1	-1E+10	1	-1E+10	1	-1E+10	1	-1E+10	1
4901784	216	C	06/03/2021	10:44	-136.335	43.071	0	90.20	0	10.1560	0	36.1630	8	27.836	0	89.464	0	256.9	4	94.6	4	-1E+10	1	-1E+10	1	-1E+10	1	-1E+10	1	-1E+10	1	-1E+10	1
4901784	216	C	06/03/2021	10:44	-136.335	43.071	0	92.00	0	10.1400	0	36.1650	8	27.840	0	91.249	0	256.4	4	94.4	4	-1E+10	1	-1E+10	1	-1E+10	1	-1E+10	1	-1E+10	1	-1E+10	1
4901784	216	C	06/03/2021	10:44	-136.335	43.071	0	93.80	0	10.1230	0	36.1640	8	27.842	0	93.034	0	256.2	4	94.3	4	-1E+10	1	-1E+10	1	-1E+10	1	-1E+10	1	-1E+10	1	-1E+10	1
4901784	216	C	06/03/2021	10:44	-136.335	43.071	0	95.60	0	10.1100	0	36.1620	8	27.843	0	94.819	0	255.8	4	94.1	4	-1E+10	1	-1E+10	1	-1E+10	1	-1E+10	1	-1E+10	1	-1E+10	1
4901784	216	C	06/03/2021	10:44	-136.335	43.071	0	97.40	0	10.0140	0	36.1670	8	27.864	0	96.604	0	255.9	4	94.0	4	-1E+10	1	-1E+10	1	-1E+10	1	-1E+10	1	-1E+10	1	-1E+10	1
4901784	216	C	06/03/2021	10:44	-136.335	43.071	0	99.30	0	10.0120	0	36.1670	8	27.864	0	98.488	0	255.6	4	93.9	4	-1E+10	1	-1E+10	1	-1E+10	1	-1E+10	1	-1E+10	1	-1E+10	1
4901784	216	C	06/03/2021	10:44	-136.335	43.071	0	102.90	0	9.9630	0	36.1680	8	27.873	0	102.057	0	255.5	4	93.8	4	-1E+10	1	-1E+10	1	-1E+10	1	-1E+10	1	-1E+10	1	-1E+10	1
4901784	216	C	06/03/2021	10:44	-136.335	43.071	0	104.80	0	9.8940	0	36.1640	8	27.882	0	103.941	0	255.2	4	93.5	4	-1E+10	1	-1E+10	1	-1E+10	1	-1E+10	1	-1E+10	1	-1E+10	1
4901784	216	C	06/03/2021	10:44	-136.335	43.071	0	107.60	0	9.8010	0	36.1640	8	27.898	0	106.718	0	254.9	4	93.2	4	-1E+10	1	-1E+10	1	-1E+10	1	-1E+10	1	-1E+10	1	-1E+10	1
4901784	216	C	06/03/2021	10:44	-136.335	43.071	0	110.30	0	9.7240	0	36.1630	8	27.911	0	109.395	0	254.3	4	92.8	4	-1E+10	1	-1E+10	1	-1E+10	1	-1E+10	1	-1E+10	1	-1E+10	1
4901784	216	C	06/03/2021	10:44	-136.335	43.071	0	112.10	0	9.6730	0	36.1650	8	27.921	0	111.180	0	254.1	4	92.7	4	-1E+10	1	-1E+10	1	-1E+10	1	-1E+10	1	-1E+10	1	-1E+10	1
4901784	216	C	06/03/2021	10:44	-136.335	43.071	0	114.80	0	9.6270	0	36.1670	8	27.931	0	113.857	0	253.6	4	92.4	4	-1E+10	1	-1E+10	1	-1E+10	1	-1E+10	1	-1E+10	1	-1E+10	1
4901784	216	C	06/03/2021	10:44	-136.335	43.071	0	118.10	0	9.5690	0	36.1720	8	27.944	0	117.129	0	252.9	4	92.0	4	-1E+10	1	-1E+10	1	-1E+10	1	-1E+10	1	-1E+10	1	-1E+10	1
4901784	216	C	06/03/2021	10:44	-136.335	43.071	0	119.90	0	9.5450	0	36.1740	8	27.950	0	118.913	0	252.1	4	91.7	4	-1E+10	1	-1E+10	1	-1E+10	1	-1E+10	1	-1E+10	1	-1E+10	1
4901784	216	C	06/03/2021	10:44	-136.335	43.071	0	122.30	0	9.4980	0	36.1820	8	27.964	0	121.293	0	250.3	4	90.9	4	-1E+10	1	-1E+10	1	-1E+10	1	-1E+10	1	-1E+10	1	-1E+10	1
4901784	216	C	06/03/2021	10:44	-136.335	43.071	0	125.30	0	9.4850	0	36.2140	8	27.992	0	124.267	0	247.4	4	89.9	4	-1E+10	1	-1E+10	1	-1E+10	1	-1E+10	1	-1E+10	1	-1E+10	1
4901784	216	C	06/03/2021	10:44	-136.335	43.071	0	127.60	0	9.4940	0	36.2160	8	27.992	0	126.548	0	244.8	4	89.0	4	-1E+10	1	-1E+10	1	-1E+10	1	-1E+10	1	-1E+10	1	-1E+10	1
4901784	216	C	06/03/2021	10:44	-136.335	43.071	0	129.90	0	9.4740	0	36.2370	8	28.011	0	128.828	0	242.1	4	87.9	4	-1E+10	1	-1E+10	1	-1E+10	1	-1E+10	1	-1E+10	1	-1E+10	1
4901784	216	C	06/03/2021	10:44	-136.335	43.071	0	132.90	0	9.4300	0	36.2740	8	28.048	0	131.802	0	237.9	4	86.4	4	-1E+10	1	-1E+10	1	-1E+10	1	-1E+10	1	-1E+10	1	-1E+10	1
4901784	216	C	06/03/2021	10:44	-136.335	43.071	0	135.40	0	9.3940	0	36.3100	8	28.082	0	134.281	0	234.5	4	85.1	4	-1E+10	1	-1E+10	1	-1E+10	1	-1E+10	1	-1E+10	1	-1E+10	1
4901784	216	C	06/03/2021	10:44	-136.335	43.071	0	137.70	0	9.3580	0	36.3410	8	28.113	0	136.561	0	230.0	4	83.4	4	-1E+10	1	-1E+10	1	-1E+10	1	-1E+10	1	-1E+10	1	-1E+10	1
4901784	216	C	06/03/2021	10:44	-136.335	43.071	0	140.10	0	9.1710	0	36.4110	8	28.199	0	138.940	0	225.1	4	81.3	4	-1E+10	1	-1E+10	1	-1E+10	1	-1E+10	1	-1E+10	1	-1E+10	1
4901784	216	C	06/03/2021	10:44	-136.335	43.071	0	142.70	0	9.2260	0	36.5240	8	28.278	0	141.518	0	218.7	4	79.2	4	-1E+10	1	-1E+10	1	-1E+10	1	-1E+10	1	-1E+10	1	-1E+10	1
4901784	216	C	06/03/2021	10:44	-136.335	43.071	0	145.30	0	9.1590	0	36.6470	8	28.386	0	144.095	0	213.1	4	77.1	4	-1E+10	1	-1E+10	1	-1E+10	1	-1E+10	1	-1E+10	1	-1E+10	1
4901784	216	C	06/03/2021	10:44	-136.335	43.071	0	147.50	0	9.1790	0	36.7060	8	28.428	0	146.276	0	211.2	4	76.5	4	-1E+10	1	-1E+10	1	-1E+10	1	-1E+10	1	-1E+10	1	-1E+10	1
4901784	216	C	06/03/2021	10:44	-136.335	43.071	0	149.90	0	9.1700	0	36.7250	8	28.445	0	148.656	0	209.0	4	75.7	4	-1E+10	1	-1E+10	1	-1E+10	1	-1E+10	1	-1E+10	1	-1E+10	1
4901784	216	C	06/03/2021	10:44	-136.335	43.071	0	152.80	0	9.1030	0	36.7930	8	28.509	0	151.531	0	206.8	4	74.8	4	-1E+10	1	-1E+10	1	-1E+10	1	-1E+10	1	-1E+10	1	-1E+10	1
4901784	216	C	06/03/2021	10:44	-136.335	43.071	0	155.00	0	9.0180	0	36.8920	8	28.601	0	153.711	0	205.5	4	74.3	4	-1E+10	1	-1E+10	1	-1E+10	1	-1E+10	1	-1E+10	1	-1E+10	1
4901784	216	C	06/03/2021	10:44	-136.335	43.071	0	157.40	0	9.0000	0	36.9540	8	28.653	0	156.091	0	204.5	4	73.9	4	-1E+10	1	-1E+10	1	-1E+10	1	-1E+10	1	-1E+10	1	-1E+10	1
4901784	216	C	06/03/2021	10:44	-136.335	43.071	0	159.90	0	9.0030	0	36.9840	8	28.676	0	158.569	0	203.0	4	73.4	4	-1E+10	1	-1E+10	1	-1E+10	1	-1E+10	1	-1E+10	1	-1E+10	1
4901784	216	C	06/03/2021	10:44	-136.335	43.071	0	162.30	0	8.9030	0	37.0540	8	28.747	0	160.948	0	201.9	4	72.9	4	-1E+10	1	-1E+10	1	-1E+10	1	-1E+10	1	-1E+10	1	-1E+10	1
4901784	216	C	06/03/2021	10:44	-136.335	43.071	0	164.80	0	8.7960	0	37.1230	8	28.819	0	163.426	0	201.2	4	72.5	4	-1E+10	1	-1E+10	1	-1E+10	1	-1E+10	1	-1E+10	1	-1E+10	1
4901784	216	C	06/03/2021	10:44	-136.335	43.071	0	167.40	0	8.7510	0	37.1450	8	28.843	0	166.003	0	200.3	4	72.1	4	-1E+10	1	-1E+10	1	-1E+10	1	-1E+10	1	-1E+10	1	-1E+10	1
4901784	216	C	06/03/2021	10:44	-136.335	43.071	0	170.00	0	8.7000	0	37.1620	8	28.865	0	168.581	0	199.2	4	71.6	4	-1E+10	1	-1E+10	1	-1E+10	1	-1E+10	1	-1E+10	1	-1E+10	1
4901784	216	C	06/03/2021	10:44	-136.335	43.071	0	172.50	0	8.5980	0	37.1900	8	28.904	0	171.059	0	198.7	4	71.3	4	-1E+10	1	-1E+10	1	-1E+10	1	-1E+10	1	-1E+10	1	-1E+10	1
4901784	216	C	06/03/2021	10:44	-136.335	43.071	0	174.90	0	8.5290	0	37.2280	8	28.945	0	173.438	0	198.5	4	71.2	4	-1E+10	1	-1E+10	1	-1E+10	1	-1E+10	1	-1E+10	1	-1E+10	1
4901784	216	C	06/03/2021	10:44	-136.335	43.071	0	177.50	0	8.5380	0	37.2560	8	28.965	0	176.015	0	197.4	4	70.8	4	-1E+10	1	-1E+10	1	-1E+10	1	-1E+10	1	-1E+10	1	-1E+10	1
4901784	216	C	06/03/2021	10:44	-136.335	43.071	0	180.10	0	8.4980	0	37.2950	8	29.002	0	178.592	0	195.6	4	70.1	4	-1E+10	1	-1E+10	1	-1E+10	1	-1E+10	1	-1E+10	1	-1E+10	1
4901784	216	C	06/03/2021	10:44	-136.335	43.071	0	182.80	0	8.5070	0	37.3120	8	29.014	0	181.268	0	192.8	4	69.1	4	-1E+10	1	-1E+10	1	-1E+10	1	-1E+10	1	-1E+10	1	-1E+10	1
4901784	216	C	06/03/2021	10:44	-136.335	43.071	0	185.50	0	8.4530	0	37.3350	8	29.041	0	183.944	0	189.0	4	67.7	4	-1E+10	1	-1E+10	1	-1E+10	1	-1E+10	1	-1E+10	1	-1E+10	1
4901784	216	C	06/03/2021	10:44	-136.335	43.071	0	187.90	0	8.3870	0	37.3540	8	29.067	0	186.323	0	185.4	4	66.3	4	-1E+10	1	-1E+10	1	-1E+10	1	-1E+10	1	-1E+10	1	-1E+10	1
4901784	216	C	06/03/2021	10:44	-136.335	43.071	0	189.80	0	8.3370	0	37.3570	8	29.077	0	188.206	0	181.8	4	65.0	4	-1E+10	1	-1E+10	1	-1E+10	1	-1E+10	1	-1E+10	1	-1E+10	1
4901784	216	C	06/03/2021	10:44	-136.335	43.071	0	192.10	0	8.1720	0	37.3610	8	29.106	0	190.486	0	178.3	4	63.5	4	-1E+10	1	-1E+10	1	-1E+10	1	-1E+10	1	-1E+10	1	-1E+10	1
4901784	216	C	06/03/2021	10:44	-136.335	43.071	0	195.20	0	8.0640	0	37.3740	8	29.133	0	193.558	0	176.7	4	62.8	4	-1E+10	1	-1E+10	1	-1E+10	1	-1E+10	1	-1E+10	1	-1E+10	1
4901784	216	C	06/03/2021	10:44	-136.335	43.071	0	197.50	0	8.0460	0	37.4120	8	29.166	0	195.838	0	176.4	4	62.6	4	-1E+10	1	-1E+10	1	-1E+10	1	-1E+10	1	-1E+10	1	-1E+10	1
4901784	216	C	06/03/2021	10:44	-136.335	43.071	0	199.90	0	8.0140	0	37.4300	8	29.185	0	198.217	0	175.7	4	62.4	4	-1E+10	1	-1E+10	1	-1E+10	1	-1E+10	1	-1E+10	1	-1E+10	1
4901784	216	C	06/03/2021	10:44	-136.335	43.071	0	202.40	0	7.9910	0	37.4470	8	29.202	0	200.694	0	175.2	4	62.2	4	-1E+10	1	-1E+10	1	-1E+10	1	-1E+10	1	-1E+10	1	-1E+10	1
4901784	216	C	06/03/2021	10:44	-136.335	43.071	0	204.80	0	7.9760	0	37.4540	8	29.210	0	203.073	0	174.8	4	62.0	4	-1E+10	1	-1E+10	1	-1E+10	1	-1E+10	1	-1E+10	1	-1E+10	1
4901784	216	C	06/03/2021	10:44	-136.335	43.071	0	207.20	0	7.9660	0	37.4640	8	29.220	0	205.452	0	174.8	4	62.0	4	-1E+10	1	-1E+10	1	-1E+10	1	-1E+10	1	-1E+10	1	-1E+10	1
4901784	216	C	06/03/2021	10:44	-136.335	43.071	0	209.60	0	7.9470	0	37.4830	8	29.238	0	207.830	0	174.5	4	61.8	4	-1E+10	1	-1E+10	1	-1E+10	1	-1E+10	1	-1E+10	1	-1E+10	1
4901784	216	C	06/03/2021	10:44	-136.335	43.071	0	212.80	0	7.9110	0	37.5060	8	29.261	0	211.001	0	174.2	4	61.7	4	-1E+10	1	-1E+10	1	-1E+10	1	-1E+10	1	-1E+10	1	-1E+10	1
4901784	216	C	06/03/2021	10:44	-136.335	43.071	0	215.30	0	7.8790	0	37.5230	8	29.280	0	213.479	0	174.1	4	61.6	4	-1E+10	1	-1E+10	1	-1E+10	1	-1E+10	1	-1E+10	1	-1E+10	1
4901784	216	C	06/03/2021	10:44	-136.335	43.071	0	217.80	0	7.8660	0	37.5320	8	29.289	0	215.957	0	173.7	4	61.5	4	-1E+10	1	-1E+10	1	-1E+10	1	-1E+10	1	-1E+10	1	-1E+10	1
4901784	216	C	06/03/2021	10:44	-136.335	43.071	0	220.30	0	7.8500	0	37.5400	8	29.298	0	218.434	0	173.7	4	61.5	4	-1E+10	1	-1E+10	1	-1E+10	1	-1E+10	1	-1E+10	1	-1E+10	1
4901784	216	C	06/03/2021	10:44	-136.335	43.071	0	222.80	0	7.8410	0	37.5450	8	29.303	0	220.912	0	173.4	4	61.4	4	-1E+10	1	-1E+10	1	-1E+10	1	-1E+10	1	-1E+10	1	-1E+10	1
4901784	216	C	06/03/2021	10:44	-136.335	43.071	0	225.40	0	7.8240	0	37.5550	8	29.313	0	223.488	0	173.2	4	61.3	4	-1E+10	1	-1E+10	1	-1E+10	1	-1E+10	1	-1E+10	1	-1E+10	1
4901784	216	C	06/03/2021	10:44	-136.335	43.071	0	227.10	0	7.8070	0	37.5610	8	29.321	0	225.173	0	173.4	4	61.3	4	-1E+10	1	-1E+10	1	-1E+10	1	-1E+10	1	-1E+10	1	-1E+10	1
4901784	216	C	06/03/2021	10:44	-136.335	43.071	0	229.60	0	7.7840	0	37.5710	8	29.332	0	227.650	0	173.0	4	61.1	4	-1E+10	1	-1E+10	1	-1E+10	1	-1E+10	1	-1E+10	1	-1E+10	1
4901784	216	C	06/03/2021	10:44	-136.335	43.071	0	232.20	0	7.7690	0	37.5760	8	29.339	0	230.227	0	172.7	4	61.0	4	-1E+10	1	-1E+10	1	-1E+10	1	-1E+10	1	-1E+10	1	-1E+10	1
4901784	216	C	06/03/2021	10:44	-136.335	43.071	0	234.70	0	7.7570	0	37.5810	8	29.344	0	232.704	0	172.0	4	60.8	4	-1E+10	1	-1E+10	1	-1E+10	1	-1E+10	1	-1E+10	1	-1E+10	1
4901784	216	C	06/03/2021	10:44	-136.335	43.071	0	237.20	0	7.7300	0	37.5840	8	29.351	0	235.181	0	171.7	4	60.6	4	-1E+10	1	-1E+10	1	-1E+10	1	-1E+10	1	-1E+10	1	-1E+10	1
4901784	216	C	06/03/2021	10:44	-136.335	43.071	0	239.70	0	7.7080	0	37.5930	8	29.361	0	237.659	0	170.0	4	60.0	4	-1E+10	1	-1E+10	1	-1E+10	1	-1E+10	1	-1E+10	1	-1E+10	1
4901784	216	C	06/03/2021	10:44	-136.335	43.071	0	242.30	0	7.6670	0	37.6050	8	29.377	0	240.235	0	169.2	4	59.7	4	-1E+10	1	-1E+10	1	-1E+10	1	-1E+10	1	-1E+10	1	-1E+10	1
4901784	216	C	06/03/2021	10:44	-136.335	43.071	0	245.00	0	7.6510	0	37.6090	8	29.383	0	242.910	0	167.7	4	59.1	4	-1E+10	1	-1E+10	1	-1E+10	1	-1E+10	1	-1E+10	1	-1E+10	1
4901784	216	C	06/03/2021	10:44	-136.335	43.071	0	247.70	0	7.6260	0	37.6170	8	29.393	0	245.586	0	166.2	4	58.6	4	-1E+10	1	-1E+10	1	-1E+10	1	-1E+10	1	-1E+10	1	-1E+10	1
4901784	216	C	06/03/2021	10:44	-136.335	43.071	0	250.30	0	7.6050	0	37.6220	8	29.400	0	248.162	0	165.1	4	58.2	4	-1E+10	1	-1E+10	1	-1E+10	1	-1E+10	1	-1E+10	1	-1E+10	1
4901784	216	C	06/03/2021	10:44	-136.335	43.071	0	253.00	0	7.5690	0	37.6280	8	29.410	0	250.837	0	163.8	4	57.6	4	-1E+10	1	-1E+10	1	-1E+10	1	-1E+10	1	-1E+10	1	-1E+10	1
4901784	216	C	06/03/2021	10:44	-136.335	43.071	0	254.80	0	7.5390	0	37.6360	8	29.421	0	252.621	0	162.6	4	57.2	4	-1E+10	1	-1E+10	1	-1E+10	1	-1E+10	1	-1E+10	1	-1E+10	1
4901784	216	C	06/03/2021	10:44	-136.335	43.071	0	257.50	0	7.5310	0	37.6420	8	29.427	0	255.296	0	161.0	4	56.6	4	-1E+10	1	-1E+10	1	-1E+10	1	-1E+10	1	-1E+10	1	-1E+10	1
4901784	216	C	06/03/2021	10:44	-136.335	43.071	0	260.10	0	7.5210	0	37.6450	8	29.431	0	257.872	0	159.7	4	56.2	4	-1E+10	1	-1E+10	1	-1E+10	1	-1E+10	1	-1E+10	1	-1E+10	1
4901784	216	C	06/03/2021	10:44	-136.335	43.071	0	262.80	0	7.5030	0	37.6500	8	29.438	0	260.547	0	158.4	4	55.7	4	-1E+10	1	-1E+10	1	-1E+10	1	-1E+10	1	-1E+10	1	-1E+10	1
4901784	216	C	06/03/2021	10:44	-136.335	43.071	0	265.40	0	7.4700	0	37.6570	8	29.448	0	263.123	0	156.8	4	55.1	4	-1E+10	1	-1E+10	1	-1E+10	1	-1E+10	1	-1E+10	1	-1E+10	1
4901784	216	C	06/03/2021	10:44	-136.335	43.071	0	267.10	0	7.4660	0	37.6610	8	29.452	0	264.808	0	156.1	4	54.8	4	-1E+10	1	-1E+10	1	-1E+10	1	-1E+10	1	-1E+10	1	-1E+10	1
4901784	216	C	06/03/2021	10:44	-136.335	43.071	0	269.90	0	7.4460	0	37.6640	8	29.457	0	267.582	0	155.0	4	54.4	4	-1E+10	1	-1E+10	1	-1E+10	1	-1E+10	1	-1E+10	1	-1E+10	1
4901784	216	C	06/03/2021	10:44	-136.335	43.071	0	272.50	0	7.4130	0	37.6680	8	29.466	0	270.158	0	153.4	4	53.8	4	-1E+10	1	-1E+10	1	-1E+10	1	-1E+10	1	-1E+10	1	-1E+10	1
4901784	216	C	06/03/2021	10:44	-136.335	43.071	0	275.10	0	7.3900	0	37.6750	8	29.475	0	272.734	0	152.0	4	53.3	4	-1E+10	1	-1E+10	1	-1E+10	1	-1E+10	1	-1E+10	1	-1E+10	1
4901784	216	C	06/03/2021	10:44	-136.335	43.071	0	277.80	0	7.3860	0	37.6760	8	29.476	0	275.409	0	151.2	4	53.0	4	-1E+10	1	-1E+10	1	-1E+10	1	-1E+10	1	-1E+10	1	-1E+10	1
4901784	216	C	06/03/2021	10:44	-136.335	43.071	0	279.60	0	7.3580	0	37.6800	8	29.483	0	277.192	0	150.9	4	52.9	4	-1E+10	1	-1E+10	1	-1E+10	1	-1E+10	1	-1E+10	1	-1E+10	1
4901784	216	C	06/03/2021	10:44	-136.335	43.071	0	282.20	0	7.3310	0	37.6820	8	29.489	0	279.768	0	149.8	4	52.4	4	-1E+10	1	-1E+10	1	-1E+10	1	-1E+10	1	-1E+10	1	-1E+10	1
4901784	216	C	06/03/2021	10:44	-136.335	43.071	0	284.90	0	7.3060	0	37.6870	8	29.497	0	282.443	0	148.6	4	52.0	4	-1E+10	1	-1E+10	1	-1E+10	1	-1E+10	1	-1E+10	1	-1E+10	1
4901784	216	C	06/03/2021	10:44	-136.335	43.071	0	287.60	0	7.2980	0	37.6870	8	29.498	0	285.118	0	147.5	4	51.6	4	-1E+10	1	-1E+10	1	-1E+10	1	-1E+10	1	-1E+10	1	-1E+10	1
4901784	216	C	06/03/2021	10:44	-136.335	43.071	0	290.30	0	7.2670	0	37.6900	8	29.505	0	287.793	0	146.3	4	51.2	4	-1E+10	1	-1E+10	1	-1E+10	1	-1E+10	1	-1E+10	1	-1E+10	1
4901784	216	C	06/03/2021	10:44	-136.335	43.071	0	292.10	0	7.2460	0	37.6920	8	29.510	0	289.576	0	145.7	4	50.9	4	-1E+10	1	-1E+10	1	-1E+10	1	-1E+10	1	-1E+10	1	-1E+10	1
4901784	216	C	06/03/2021	10:44	-136.335	43.071	0	294.80	0	7.2160	0	37.6940	8	29.516	0	292.250	0	144.6	4	50.5	4	-1E+10	1	-1E+10	1	-1E+10	1	-1E+10	1	-1E+10	1	-1E+10	1
4901784	216	C	06/03/2021	10:44	-136.335	43.071	0	297.50	0	7.1720	0	37.6960	8	29.524	0	294.925	0	143.5	4	50.1	4	-1E+10	1	-1E+10	1	-1E+10	1	-1E+10	1	-1E+10	1	-1E+10	1
4901784	216	C	06/03/2021	10:44	-136.335	43.071	0	300.20	0	7.1290	0	37.6970	8	29.531	0	297.600	0	142.2	4	49.6	4	-1E+10	1	-1E+10	1	-1E+10	1	-1E+10	1	-1E+10	1	-1E+10	1
4901784	216	C	06/03/2021	10:44	-136.335	43.071	0	303.00	0	7.0890	0	37.7000	8	29.539	0	300.374	0	140.6	4	49.0	4	-1E+10	1	-1E+10	1	-1E+10	1	-1E+10	1	-1E+10	1	-1E+10	1
4901784	216	C	06/03/2021	10:44	-136.335	43.071	0	304.90	0	7.0630	0	37.7040	8	29.546	0	302.256	0	139.6	4	48.6	4	-1E+10	1	-1E+10	1	-1E+10	1	-1E+10	1	-1E+10	1	-1E+10	1
4901784	216	C	06/03/2021	10:44	-136.335	43.071	0	307.70	0	7.0540	0	37.7050	8	29.548	0	305.029	0	138.0	4	48.0	4	-1E+10	1	-1E+10	1	-1E+10	1	-1E+10	1	-1E+10	1	-1E+10	1
4901784	216	C	06/03/2021	10:44	-136.335	43.071	0	310.50	0	7.0180	0	37.7070	8	29.555	0	307.803	0	136.8	4	47.6	4	-1E+10	1	-1E+10	1	-1E+10	1	-1E+10	1	-1E+10	1	-1E+10	1
4901784	216	C	06/03/2021	10:44	-136.335	43.071	0	312.40	0	6.9970	0	37.7070	8	29.558	0	309.685	0	136.0	4	47.3	4	-1E+10	1	-1E+10	1	-1E+10	1	-1E+10	1	-1E+10	1	-1E+10	1
4901784	216	C	06/03/2021	10:44	-136.335	43.071	0	315.20	0	6.9480	0	37.7090	8	29.567	0	312.459	0	134.9	4	46.8	4	-1E+10	1	-1E+10	1	-1E+10	1	-1E+10	1	-1E+10	1	-1E+10	1
4901784	216	C	06/03/2021	10:44	-136.335	43.071	0	318.00	0	6.9000	0	37.7090	8	29.574	0	315.232	0	133.4	4	46.3	4	-1E+10	1	-1E+10	1	-1E+10	1	-1E+10	1	-1E+10	1	-1E+10	1
4901784	216	C	06/03/2021	10:44	-136.335	43.071	0	320.00	0	6.8680	0	37.7130	8	29.582	0	317.213	0	131.7	4	45.7	4	-1E+10	1	-1E+10	1	-1E+10	1	-1E+10	1	-1E+10	1	-1E+10	1
4901784	216	C	06/03/2021	10:44	-136.335	43.071	0	321.90	0	6.8410	0	37.7170	8	29.589	0	319.095	0	130.4	4	45.2	4	-1E+10	1	-1E+10	1	-1E+10	1	-1E+10	1	-1E+10	1	-1E+10	1
4901784	216	C	06/03/2021	10:44	-136.335	43.071	0	324.70	0	6.8180	0	37.7160	8	29.591	0	321.869	0	128.7	4	44.6	4	-1E+10	1	-1E+10	1	-1E+10	1	-1E+10	1	-1E+10	1	-1E+10	1
4901784	216	C	06/03/2021	10:44	-136.335	43.071	0	327.60	0	6.7720	0	37.7190	8	29.600	0	324.741	0	126.6	4	43.8	4	-1E+10	1	-1E+10	1	-1E+10	1	-1E+10	1	-1E+10	1	-1E+10	1
4901784	216	C	06/03/2021	10:44	-136.335	43.071	0	329.50	0	6.7540	0	37.7200	8	29.604	0	326.623	0	124.6	4	43.1	4	-1E+10	1	-1E+10	1	-1E+10	1	-1E+10	1	-1E+10	1	-1E+10	1
4901784	216	C	06/03/2021	10:44	-136.335	43.071	0	332.30	0	6.7230	0	37.7230	8	29.611	0	329.396	0	121.8	4	42.1	4	-1E+10	1	-1E+10	1	-1E+10	1	-1E+10	1	-1E+10	1	-1E+10	1
4901784	216	C	06/03/2021	10:44	-136.335	43.071	0	335.00	0	6.6980	0	37.7270	8	29.617	0	332.071	0	120.9	4	41.8	4	-1E+10	1	-1E+10	1	-1E+10	1	-1E+10	1	-1E+10	1	-1E+10	1
4901784	216	C	06/03/2021	10:44	-136.335	43.071	0	337.80	0	6.6580	0	37.7250	8	29.622	0	334.844	0	121.5	4	41.9	4	-1E+10	1	-1E+10	1	-1E+10	1	-1E+10	1	-1E+10	1	-1E+10	1
4901784	216	C	06/03/2021	10:44	-136.335	43.071	0	340.60	0	6.6170	0	37.7250	8	29.627	0	337.617	0	121.6	4	41.9	4	-1E+10	1	-1E+10	1	-1E+10	1	-1E+10	1	-1E+10	1	-1E+10	1
4901784	216	C	06/03/2021	10:44	-136.335	43.071	0	342.50	0	6.5790	0	37.7270	8	29.634	0	339.499	0	121.1	4	41.7	4	-1E+10	1	-1E+10	1	-1E+10	1	-1E+10	1	-1E+10	1	-1E+10	1
4901784	216	C	06/03/2021	10:44	-136.335	43.071	0	344.40	0	6.5580	0	37.7260	8	29.637	0	341.381	0	120.4	4	41.4	4	-1E+10	1	-1E+10	1	-1E+10	1	-1E+10	1	-1E+10	1	-1E+10	1
4901784	216	C	06/03/2021	10:44	-136.335	43.071	0	347.30	0	6.5180	0	37.7270	8	29.643	0	344.253	0	119.1	4	41.0	4	-1E+10	1	-1E+10	1	-1E+10	1	-1E+10	1	-1E+10	1	-1E+10	1
4901784	216	C	06/03/2021	10:44	-136.335	43.071	0	350.10	0	6.4720	0	37.7290	8	29.651	0	347.026	0	117.6	4	40.4	4	-1E+10	1	-1E+10	1	-1E+10	1	-1E+10	1	-1E+10	1	-1E+10	1
4901784	216	C	06/03/2021	10:44	-136.335	43.071	0	352.00	0	6.4450	0	37.7300	8	29.656	0	348.908	0	116.8	4	40.1	4	-1E+10	1	-1E+10	1	-1E+10	1	-1E+10	1	-1E+10	1	-1E+10	1
4901784	216	C	06/03/2021	10:44	-136.335	43.071	0	354.80	0	6.3980	0	37.7300	8	29.662	0	351.681	0	116.4	4	39.9	4	-1E+10	1	-1E+10	1	-1E+10	1	-1E+10	1	-1E+10	1	-1E+10	1
4901784	216	C	06/03/2021	10:44	-136.335	43.071	0	357.60	0	6.3350	0	37.7330	8	29.673	0	354.454	0	115.4	4	39.5	4	-1E+10	1	-1E+10	1	-1E+10	1	-1E+10	1	-1E+10	1	-1E+10	1
4901784	216	C	06/03/2021	10:44	-136.335	43.071	0	359.40	0	6.3150	0	37.7300	8	29.674	0	356.236	0	114.8	4	39.3	4	-1E+10	1	-1E+10	1	-1E+10	1	-1E+10	1	-1E+10	1	-1E+10	1
4901784	216	C	06/03/2021	10:44	-136.335	43.071	0	362.30	0	6.2410	0	37.7340	8	29.687	0	359.108	0	113.2	4	38.7	4	-1E+10	1	-1E+10	1	-1E+10	1	-1E+10	1	-1E+10	1	-1E+10	1
4901784	216	C	06/03/2021	10:44	-136.335	43.071	0	365.20	0	6.1850	0	37.7360	8	29.696	0	361.980	0	111.7	4	38.1	4	-1E+10	1	-1E+10	1	-1E+10	1	-1E+10	1	-1E+10	1	-1E+10	1
4901784	216	C	06/03/2021	10:44	-136.335	43.071	0	367.10	0	6.1520	0	37.7390	8	29.703	0	363.862	0	110.8	4	37.8	4	-1E+10	1	-1E+10	1	-1E+10	1	-1E+10	1	-1E+10	1	-1E+10	1
4901784	216	C	06/03/2021	10:44	-136.335	43.071	0	369.90	0	6.1220	0	37.7400	8	29.708	0	366.635	0	109.5	4	37.3	4	-1E+10	1	-1E+10	1	-1E+10	1	-1E+10	1	-1E+10	1	-1E+10	1
4901784	216	C	06/03/2021	10:44	-136.335	43.071	0	372.70	0	6.0860	0	37.7410	8	29.714	0	369.407	0	108.1	4	36.8	4	-1E+10	1	-1E+10	1	-1E+10	1	-1E+10	1	-1E+10	1	-1E+10	1
4901784	216	C	06/03/2021	10:44	-136.335	43.071	0	374.60	0	6.0670	0	37.7420	8	29.717	0	371.289	0	107.2	4	36.5	4	-1E+10	1	-1E+10	1	-1E+10	1	-1E+10	1	-1E+10	1	-1E+10	1
4901784	216	C	06/03/2021	10:44	-136.335	43.071	0	377.50	0	6.0190	0	37.7460	8	29.727	0	374.161	0	106.0	4	36.0	4	-1E+10	1	-1E+10	1	-1E+10	1	-1E+10	1	-1E+10	1	-1E+10	1
4901784	216	C	06/03/2021	10:44	-136.335	43.071	0	380.40	0	5.9850	0	37.7470	8	29.732	0	377.032	0	105.0	4	35.7	4	-1E+10	1	-1E+10	1	-1E+10	1	-1E+10	1	-1E+10	1	-1E+10	1
4901784	216	C	06/03/2021	10:44	-136.335	43.071	0	382.40	0	5.9750	0	37.7460	8	29.733	0	379.013	0	104.1	4	35.4	4	-1E+10	1	-1E+10	1	-1E+10	1	-1E+10	1	-1E+10	1	-1E+10	1
4901784	216	C	06/03/2021	10:44	-136.335	43.071	0	384.30	0	5.9470	0	37.7470	8	29.737	0	380.894	0	103.0	4	35.0	4	-1E+10	1	-1E+10	1	-1E+10	1	-1E+10	1	-1E+10	1	-1E+10	1
4901784	216	C	06/03/2021	10:44	-136.335	43.071	0	387.30	0	5.9070	0	37.7480	8	29.744	0	383.865	0	101.4	4	34.4	4	-1E+10	1	-1E+10	1	-1E+10	1	-1E+10	1	-1E+10	1	-1E+10	1
4901784	216	C	06/03/2021	10:44	-136.335	43.071	0	390.20	0	5.8580	0	37.7500	8	29.752	0	386.736	0	99.7	4	33.8	4	-1E+10	1	-1E+10	1	-1E+10	1	-1E+10	1	-1E+10	1	-1E+10	1
4901784	216	C	06/03/2021	10:44	-136.335	43.071	0	392.20	0	5.8240	0	37.7530	8	29.759	0	388.717	0	98.4	4	33.3	4	-1E+10	1	-1E+10	1	-1E+10	1	-1E+10	1	-1E+10	1	-1E+10	1
4901784	216	C	06/03/2021	10:44	-136.335	43.071	0	395.00	0	5.7980	0	37.7530	8	29.762	0	391.489	0	96.7	4	32.7	4	-1E+10	1	-1E+10	1	-1E+10	1	-1E+10	1	-1E+10	1	-1E+10	1
4901784	216	C	06/03/2021	10:44	-136.335	43.071	0	397.90	0	5.7640	0	37.7550	8	29.768	0	394.361	0	94.5	4	31.9	4	-1E+10	1	-1E+10	1	-1E+10	1	-1E+10	1	-1E+10	1	-1E+10	1
4901784	216	C	06/03/2021	10:44	-136.335	43.071	0	399.80	0	5.7360	0	37.7560	8	29.773	0	396.242	0	93.1	4	31.5	4	-1E+10	1	-1E+10	1	-1E+10	1	-1E+10	1	-1E+10	1	-1E+10	1
4901784	216	C	06/03/2021	10:44	-136.335	43.071	0	402.70	0	5.6730	0	37.7630	8	29.787	0	399.113	0	91.5	4	30.9	4	-1E+10	1	-1E+10	1	-1E+10	1	-1E+10	1	-1E+10	1	-1E+10	1
4901784	216	C	06/03/2021	10:44	-136.335	43.071	0	405.50	0	5.6500	0	37.7630	8	29.790	0	401.886	0	90.0	4	30.4	4	-1E+10	1	-1E+10	1	-1E+10	1	-1E+10	1	-1E+10	1	-1E+10	1
4901784	216	C	06/03/2021	10:44	-136.335	43.071	0	407.40	0	5.6200	0	37.7670	8	29.797	0	403.767	0	88.9	4	30.0	4	-1E+10	1	-1E+10	1	-1E+10	1	-1E+10	1	-1E+10	1	-1E+10	1
4901784	216	C	06/03/2021	10:44	-136.335	43.071	0	409.40	0	5.5880	0	37.7710	8	29.804	0	405.747	0	88.3	4	29.7	4	-1E+10	1	-1E+10	1	-1E+10	1	-1E+10	1	-1E+10	1	-1E+10	1
4901784	216	C	06/03/2021	10:44	-136.335	43.071	0	412.30	0	5.5740	0	37.7730	8	29.807	0	408.619	0	87.7	4	29.5	4	-1E+10	1	-1E+10	1	-1E+10	1	-1E+10	1	-1E+10	1	-1E+10	1
4901784	216	C	06/03/2021	10:44	-136.335	43.071	0	415.70	0	5.5550	0	37.7730	8	29.810	0	411.985	0	86.8	4	29.2	4	-1E+10	1	-1E+10	1	-1E+10	1	-1E+10	1	-1E+10	1	-1E+10	1
4901784	216	C	06/03/2021	10:44	-136.335	43.071	0	417.60	0	5.5350	0	37.7720	8	29.812	0	413.866	0	86.0	4	28.9	4	-1E+10	1	-1E+10	1	-1E+10	1	-1E+10	1	-1E+10	1	-1E+10	1
4901784	216	C	06/03/2021	10:44	-136.335	43.071	0	420.10	0	5.5020	0	37.7760	8	29.819	0	416.341	0	84.8	4	28.5	4	-1E+10	1	-1E+10	1	-1E+10	1	-1E+10	1	-1E+10	1	-1E+10	1
4901784	216	C	06/03/2021	10:44	-136.335	43.071	0	422.50	0	5.4650	0	37.7790	8	29.826	0	418.717	0	83.8	4	28.1	4	-1E+10	1	-1E+10	1	-1E+10	1	-1E+10	1	-1E+10	1	-1E+10	1
4901784	216	C	06/03/2021	10:44	-136.335	43.071	0	425.00	0	5.4440	0	37.7800	8	29.830	0	421.192	0	83.1	4	27.9	4	-1E+10	1	-1E+10	1	-1E+10	1	-1E+10	1	-1E+10	1	-1E+10	1
4901784	216	C	06/03/2021	10:44	-136.335	43.071	0	427.40	0	5.4260	0	37.7810	8	29.833	0	423.568	0	82.3	4	27.6	4	-1E+10	1	-1E+10	1	-1E+10	1	-1E+10	1	-1E+10	1	-1E+10	1
4901784	216	C	06/03/2021	10:44	-136.335	43.071	0	430.00	0	5.4000	0	37.7840	8	29.839	0	426.142	0	81.5	4	27.3	4	-1E+10	1	-1E+10	1	-1E+10	1	-1E+10	1	-1E+10	1	-1E+10	1
4901784	216	C	06/03/2021	10:44	-136.335	43.071	0	432.50	0	5.3500	0	37.7830	8	29.844	0	428.617	0	80.9	4	27.1	4	-1E+10	1	-1E+10	1	-1E+10	1	-1E+10	1	-1E+10	1	-1E+10	1
4901784	216	C	06/03/2021	10:44	-136.335	43.071	0	435.10	0	5.3280	0	37.7860	8	29.850	0	431.191	0	79.1	4	26.5	4	-1E+10	1	-1E+10	1	-1E+10	1	-1E+10	1	-1E+10	1	-1E+10	1
4901784	216	C	06/03/2021	10:44	-136.335	43.071	0	437.60	0	5.2900	0	37.7920	8	29.859	0	433.666	0	77.0	4	25.8	4	-1E+10	1	-1E+10	1	-1E+10	1	-1E+10	1	-1E+10	1	-1E+10	1
4901784	216	C	06/03/2021	10:44	-136.335	43.071	0	440.20	0	5.2990	0	37.7970	8	29.862	0	436.240	0	75.8	4	25.4	4	-1E+10	1	-1E+10	1	-1E+10	1	-1E+10	1	-1E+10	1	-1E+10	1
4901784	216	C	06/03/2021	10:44	-136.335	43.071	0	442.80	0	5.2600	0	37.8010	8	29.870	0	438.814	0	75.4	4	25.2	4	-1E+10	1	-1E+10	1	-1E+10	1	-1E+10	1	-1E+10	1	-1E+10	1
4901784	216	C	06/03/2021	10:44	-136.335	43.071	0	444.50	0	5.2440	0	37.8000	8	29.871	0	440.497	0	75.3	4	25.1	4	-1E+10	1	-1E+10	1	-1E+10	1	-1E+10	1	-1E+10	1	-1E+10	1
4901784	216	C	06/03/2021	10:44	-136.335	43.071	0	447.10	0	5.2270	0	37.8030	8	29.876	0	443.071	0	74.8	4	25.0	4	-1E+10	1	-1E+10	1	-1E+10	1	-1E+10	1	-1E+10	1	-1E+10	1
4901784	216	C	06/03/2021	10:44	-136.335	43.071	0	449.80	0	5.1920	0	37.8040	8	29.881	0	445.743	0	74.8	4	25.0	4	-1E+10	1	-1E+10	1	-1E+10	1	-1E+10	1	-1E+10	1	-1E+10	1
4901784	216	C	06/03/2021	10:44	-136.335	43.071	0	452.30	0	5.1740	0	37.8040	8	29.884	0	448.218	0	74.6	4	24.9	4	-1E+10	1	-1E+10	1	-1E+10	1	-1E+10	1	-1E+10	1	-1E+10	1
4901784	216	C	06/03/2021	10:44	-136.335	43.071	0	454.90	0	5.1540	0	37.8010	8	29.884	0	450.792	0	74.0	4	24.7	4	-1E+10	1	-1E+10	1	-1E+10	1	-1E+10	1	-1E+10	1	-1E+10	1
4901784	216	C	06/03/2021	10:44	-136.335	43.071	0	457.50	0	5.1180	0	37.8050	8	29.891	0	453.366	0	73.2	4	24.4	4	-1E+10	1	-1E+10	1	-1E+10	1	-1E+10	1	-1E+10	1	-1E+10	1
4901784	216	C	06/03/2021	10:44	-136.335	43.071	0	460.10	0	5.0820	0	37.8080	8	29.898	0	455.939	0	72.3	4	24.1	4	-1E+10	1	-1E+10	1	-1E+10	1	-1E+10	1	-1E+10	1	-1E+10	1
4901784	216	C	06/03/2021	10:44	-136.335	43.071	0	462.70	0	5.0680	0	37.8090	8	29.901	0	458.513	0	71.3	4	23.7	4	-1E+10	1	-1E+10	1	-1E+10	1	-1E+10	1	-1E+10	1	-1E+10	1
4901784	216	C	06/03/2021	10:44	-136.335	43.071	0	465.30	0	5.0540	0	37.8110	8	29.904	0	461.086	0	69.9	4	23.3	4	-1E+10	1	-1E+10	1	-1E+10	1	-1E+10	1	-1E+10	1	-1E+10	1
4901784	216	C	06/03/2021	10:44	-136.335	43.071	0	467.10	0	5.0370	0	37.8130	8	29.908	0	462.868	0	68.9	4	22.9	4	-1E+10	1	-1E+10	1	-1E+10	1	-1E+10	1	-1E+10	1	-1E+10	1
4901784	216	C	06/03/2021	10:44	-136.335	43.071	0	469.70	0	5.0000	0	37.8200	8	29.918	0	465.442	0	67.7	4	22.5	4	-1E+10	1	-1E+10	1	-1E+10	1	-1E+10	1	-1E+10	1	-1E+10	1
4901784	216	C	06/03/2021	10:44	-136.335	43.071	0	472.30	0	4.9770	0	37.8240	8	29.924	0	468.015	0	67.1	4	22.3	4	-1E+10	1	-1E+10	1	-1E+10	1	-1E+10	1	-1E+10	1	-1E+10	1
4901784	216	C	06/03/2021	10:44	-136.335	43.071	0	475.00	0	4.9600	0	37.8260	8	29.928	0	470.688	0	66.5	4	22.1	4	-1E+10	1	-1E+10	1	-1E+10	1	-1E+10	1	-1E+10	1	-1E+10	1
4901784	216	C	06/03/2021	10:44	-136.335	43.071	0	477.70	0	4.9460	0	37.8290	8	29.932	0	473.360	0	65.9	4	21.9	4	-1E+10	1	-1E+10	1	-1E+10	1	-1E+10	1	-1E+10	1	-1E+10	1
4901784	216	C	06/03/2021	10:44	-136.335	43.071	0	479.60	0	4.9470	0	37.8290	8	29.932	0	475.241	0	65.4	4	21.7	4	-1E+10	1	-1E+10	1	-1E+10	1	-1E+10	1	-1E+10	1	-1E+10	1
4901784	216	C	06/03/2021	10:44	-136.335	43.071	0	482.30	0	4.9310	0	37.8330	8	29.937	0	477.913	0	64.6	4	21.4	4	-1E+10	1	-1E+10	1	-1E+10	1	-1E+10	1	-1E+10	1	-1E+10	1
4901784	216	C	06/03/2021	10:44	-136.335	43.071	0	485.00	0	4.9220	0	37.8350	8	29.940	0	480.585	0	63.8	4	21.2	4	-1E+10	1	-1E+10	1	-1E+10	1	-1E+10	1	-1E+10	1	-1E+10	1
4901784	216	C	06/03/2021	10:44	-136.335	43.071	0	487.70	0	4.9110	0	37.8370	8	29.943	0	483.258	0	62.7	4	20.8	4	-1E+10	1	-1E+10	1	-1E+10	1	-1E+10	1	-1E+10	1	-1E+10	1
4901784	216	C	06/03/2021	10:44	-136.335	43.071	0	490.50	0	4.8900	0	37.8430	8	29.950	0	486.029	0	61.7	4	20.4	4	-1E+10	1	-1E+10	1	-1E+10	1	-1E+10	1	-1E+10	1	-1E+10	1
4901784	216	C	06/03/2021	10:44	-136.335	43.071	0	492.30	0	4.8850	0	37.8440	8	29.951	0	487.810	0	61.1	4	20.3	4	-1E+10	1	-1E+10	1	-1E+10	1	-1E+10	1	-1E+10	1	-1E+10	1
4901784	216	C	06/03/2021	10:44	-136.335	43.071	0	495.10	0	4.8670	0	37.8480	8	29.957	0	490.581	0	60.2	4	20.0	4	-1E+10	1	-1E+10	1	-1E+10	1	-1E+10	1	-1E+10	1	-1E+10	1
4901784	216	C	06/03/2021	10:44	-136.335	43.071	0	497.90	0	4.8570	0	37.8510	8	29.960	0	493.353	0	59.4	4	19.7	4	-1E+10	1	-1E+10	1	-1E+10	1	-1E+10	1	-1E+10	1	-1E+10	1
4901784	216	C	06/03/2021	10:44	-136.335	43.071	0	500.20	0	4.8370	0	37.8550	8	29.966	0	495.629	0	58.9	4	19.5	4	-1E+10	1	-1E+10	1	-1E+10	1	-1E+10	1	-1E+10	1	-1E+10	1
4901784	216	C	06/03/2021	10:44	-136.335	43.071	0	505.20	0	4.8150	0	37.8590	8	29.972	0	500.577	0	57.6	4	19.0	4	-1E+10	1	-1E+10	1	-1E+10	1	-1E+10	1	-1E+10	1	-1E+10	1
4901784	216	C	06/03/2021	10:44	-136.335	43.071	0	509.80	0	4.7850	0	37.8640	8	29.980	0	505.129	0	56.6	4	18.7	4	-1E+10	1	-1E+10	1	-1E+10	1	-1E+10	1	-1E+10	1	-1E+10	1
4901784	216	C	06/03/2021	10:44	-136.335	43.071	0	514.50	0	4.7730	0	37.8680	8	29.984	0	509.781	0	55.0	4	18.2	4	-1E+10	1	-1E+10	1	-1E+10	1	-1E+10	1	-1E+10	1	-1E+10	1
4901784	216	C	06/03/2021	10:44	-136.335	43.071	0	519.30	0	4.7620	0	37.8740	8	29.990	0	514.531	0	53.5	4	17.7	4	-1E+10	1	-1E+10	1	-1E+10	1	-1E+10	1	-1E+10	1	-1E+10	1
4901784	216	C	06/03/2021	10:44	-136.335	43.071	0	525.00	0	4.7180	0	37.8790	8	30.000	0	520.171	0	51.6	4	17.1	4	-1E+10	1	-1E+10	1	-1E+10	1	-1E+10	1	-1E+10	1	-1E+10	1
4901784	216	C	06/03/2021	10:44	-136.335	43.071	0	530.70	0	4.6960	0	37.8910	8	30.012	0	525.811	0	49.4	4	16.3	4	-1E+10	1	-1E+10	1	-1E+10	1	-1E+10	1	-1E+10	1	-1E+10	1
4901784	216	C	06/03/2021	10:44	-136.335	43.071	0	535.70	0	4.6780	0	37.8940	8	30.017	0	530.759	0	48.0	4	15.8	4	-1E+10	1	-1E+10	1	-1E+10	1	-1E+10	1	-1E+10	1	-1E+10	1
4901784	216	C	06/03/2021	10:44	-136.335	43.071	0	540.70	0	4.6550	0	37.9000	8	30.024	0	535.707	0	46.1	4	15.2	4	-1E+10	1	-1E+10	1	-1E+10	1	-1E+10	1	-1E+10	1	-1E+10	1
4901784	216	C	06/03/2021	10:44	-136.335	43.071	0	544.90	0	4.6330	0	37.9100	8	30.035	0	539.862	0	44.7	4	14.7	4	-1E+10	1	-1E+10	1	-1E+10	1	-1E+10	1	-1E+10	1	-1E+10	1
4901784	216	C	06/03/2021	10:44	-136.335	43.071	0	549.20	0	4.6260	0	37.9140	8	30.039	0	544.117	0	43.5	4	14.3	4	-1E+10	1	-1E+10	1	-1E+10	1	-1E+10	1	-1E+10	1	-1E+10	1
4901784	216	C	06/03/2021	10:44	-136.335	43.071	0	554.50	0	4.6040	0	37.9200	8	30.046	0	549.361	0	41.9	4	13.8	4	-1E+10	1	-1E+10	1	-1E+10	1	-1E+10	1	-1E+10	1	-1E+10	1
4901784	216	C	06/03/2021	10:44	-136.335	43.071	0	559.90	0	4.5920	0	37.9270	8	30.053	0	554.704	0	39.9	4	13.1	4	-1E+10	1	-1E+10	1	-1E+10	1	-1E+10	1	-1E+10	1	-1E+10	1
4901784	216	C	06/03/2021	10:44	-136.335	43.071	0	565.30	0	4.5540	0	37.9350	8	30.064	0	560.046	0	38.0	4	12.5	4	-1E+10	1	-1E+10	1	-1E+10	1	-1E+10	1	-1E+10	1	-1E+10	1
4901784	216	C	06/03/2021	10:44	-136.335	43.071	0	570.70	0	4.5420	0	37.9420	8	30.071	0	565.389	0	36.7	4	12.1	4	-1E+10	1	-1E+10	1	-1E+10	1	-1E+10	1	-1E+10	1	-1E+10	1
4901784	216	C	06/03/2021	10:44	-136.335	43.071	0	575.10	0	4.4980	0	37.9450	8	30.079	0	569.742	0	35.8	4	11.8	4	-1E+10	1	-1E+10	1	-1E+10	1	-1E+10	1	-1E+10	1	-1E+10	1
4901784	216	C	06/03/2021	10:44	-136.335	43.071	0	579.70	0	4.4680	0	37.9500	8	30.086	0	574.293	0	34.7	4	11.4	4	-1E+10	1	-1E+10	1	-1E+10	1	-1E+10	1	-1E+10	1	-1E+10	1
4901784	216	C	06/03/2021	10:44	-136.335	43.071	0	585.10	0	4.4450	0	37.9560	8	30.094	0	579.635	0	33.6	4	11.0	4	-1E+10	1	-1E+10	1	-1E+10	1	-1E+10	1	-1E+10	1	-1E+10	1
4901784	216	C	06/03/2021	10:44	-136.335	43.071	0	590.60	0	4.4410	0	37.9570	8	30.095	0	585.075	0	32.4	4	10.6	4	-1E+10	1	-1E+10	1	-1E+10	1	-1E+10	1	-1E+10	1	-1E+10	1
4901784	216	C	06/03/2021	10:44	-136.335	43.071	0	595.10	0	4.4310	0	37.9620	8	30.101	0	589.527	0	31.2	4	10.2	4	-1E+10	1	-1E+10	1	-1E+10	1	-1E+10	1	-1E+10	1	-1E+10	1
4901784	216	C	06/03/2021	10:44	-136.335	43.071	0	599.60	0	4.4290	0	37.9710	8	30.108	0	593.978	0	29.9	4	9.8	4	-1E+10	1	-1E+10	1	-1E+10	1	-1E+10	1	-1E+10	1	-1E+10	1
4901784	216	C	06/03/2021	10:44	-136.335	43.071	0	605.20	0	4.4140	0	37.9770	8	30.115	0	599.518	0	28.9	4	9.5	4	-1E+10	1	-1E+10	1	-1E+10	1	-1E+10	1	-1E+10	1	-1E+10	1
4901784	216	C	06/03/2021	10:44	-136.335	43.071	0	609.90	0	4.4050	0	37.9810	8	30.119	0	604.167	0	28.3	4	9.3	4	-1E+10	1	-1E+10	1	-1E+10	1	-1E+10	1	-1E+10	1	-1E+10	1
4901784	216	C	06/03/2021	10:44	-136.335	43.071	0	614.50	0	4.4010	0	37.9830	8	30.121	0	608.717	0	27.8	4	9.1	4	-1E+10	1	-1E+10	1	-1E+10	1	-1E+10	1	-1E+10	1	-1E+10	1
4901784	216	C	06/03/2021	10:44	-136.335	43.071	0	620.00	0	4.3950	0	37.9860	8	30.124	0	614.157	0	27.1	4	8.9	4	-1E+10	1	-1E+10	1	-1E+10	1	-1E+10	1	-1E+10	1	-1E+10	1
4901784	216	C	06/03/2021	10:44	-136.335	43.071	0	625.60	0	4.3850	0	37.9890	8	30.128	0	619.696	0	26.0	4	8.5	4	-1E+10	1	-1E+10	1	-1E+10	1	-1E+10	1	-1E+10	1	-1E+10	1
4901784	216	C	06/03/2021	10:44	-136.335	43.071	0	630.20	0	4.3740	0	37.9950	8	30.134	0	624.246	0	25.2	4	8.3	4	-1E+10	1	-1E+10	1	-1E+10	1	-1E+10	1	-1E+10	1	-1E+10	1
4901784	216	C	06/03/2021	10:44	-136.335	43.071	0	635.00	0	4.3560	0	38.0010	8	30.141	0	628.993	0	24.5	4	8.0	4	-1E+10	1	-1E+10	1	-1E+10	1	-1E+10	1	-1E+10	1	-1E+10	1
4901784	216	C	06/03/2021	10:44	-136.335	43.071	0	639.70	0	4.3510	0	38.0050	8	30.145	0	633.642	0	24.0	4	7.9	4	-1E+10	1	-1E+10	1	-1E+10	1	-1E+10	1	-1E+10	1	-1E+10	1
4901784	216	C	06/03/2021	10:44	-136.335	43.071	0	644.40	0	4.3320	0	38.0120	8	30.152	0	638.290	0	23.4	4	7.7	4	-1E+10	1	-1E+10	1	-1E+10	1	-1E+10	1	-1E+10	1	-1E+10	1
4901784	216	C	06/03/2021	10:44	-136.335	43.071	0	650.00	0	4.3260	0	38.0190	8	30.159	0	643.828	0	22.9	4	7.5	4	-1E+10	1	-1E+10	1	-1E+10	1	-1E+10	1	-1E+10	1	-1E+10	1
4901784	216	C	06/03/2021	10:44	-136.335	43.071	0	654.70	0	4.3220	0	38.0230	8	30.162	0	648.476	0	22.4	4	7.3	4	-1E+10	1	-1E+10	1	-1E+10	1	-1E+10	1	-1E+10	1	-1E+10	1
4901784	216	C	06/03/2021	10:44	-136.335	43.071	0	659.80	0	4.3110	0	38.0290	8	30.168	0	653.520	0	21.8	4	7.1	4	-1E+10	1	-1E+10	1	-1E+10	1	-1E+10	1	-1E+10	1	-1E+10	1
4901784	216	C	06/03/2021	10:44	-136.335	43.071	0	665.00	0	4.2950	0	38.0380	8	30.178	0	658.662	0	21.0	4	6.9	4	-1E+10	1	-1E+10	1	-1E+10	1	-1E+10	1	-1E+10	1	-1E+10	1
4901784	216	C	06/03/2021	10:44	-136.335	43.071	0	669.80	0	4.2550	0	38.0430	8	30.186	0	663.409	0	20.8	4	6.8	4	-1E+10	1	-1E+10	1	-1E+10	1	-1E+10	1	-1E+10	1	-1E+10	1
4901784	216	C	06/03/2021	10:44	-136.335	43.071	0	674.60	0	4.2310	0	38.0490	8	30.194	0	668.155	0	20.3	4	6.6	4	-1E+10	1	-1E+10	1	-1E+10	1	-1E+10	1	-1E+10	1	-1E+10	1
4901784	216	C	06/03/2021	10:44	-136.335	43.071	0	679.50	0	4.2220	0	38.0550	8	30.200	0	673.000	0	19.7	4	6.4	4	-1E+10	1	-1E+10	1	-1E+10	1	-1E+10	1	-1E+10	1	-1E+10	1
4901784	216	C	06/03/2021	10:44	-136.335	43.071	0	684.40	0	4.2080	0	38.0640	8	30.208	0	677.846	0	19.1	4	6.2	4	-1E+10	1	-1E+10	1	-1E+10	1	-1E+10	1	-1E+10	1	-1E+10	1
4901784	216	C	06/03/2021	10:44	-136.335	43.071	0	689.30	0	4.2010	0	38.0690	8	30.213	0	682.691	0	18.6	4	6.1	4	-1E+10	1	-1E+10	1	-1E+10	1	-1E+10	1	-1E+10	1	-1E+10	1
4901784	216	C	06/03/2021	10:44	-136.335	43.071	0	695.00	0	4.1830	0	38.0780	8	30.223	0	688.327	0	18.0	4	5.9	4	-1E+10	1	-1E+10	1	-1E+10	1	-1E+10	1	-1E+10	1	-1E+10	1
4901784	216	C	06/03/2021	10:44	-136.335	43.071	0	700.80	0	4.1720	0	38.0850	8	30.229	0	694.061	0	17.4	4	5.7	4	-1E+10	1	-1E+10	1	-1E+10	1	-1E+10	1	-1E+10	1	-1E+10	1
4901784	216	C	06/03/2021	10:44	-136.335	43.071	0	705.70	0	4.1620	0	38.0910	8	30.235	0	698.906	0	16.8	4	5.5	4	-1E+10	1	-1E+10	1	-1E+10	1	-1E+10	1	-1E+10	1	-1E+10	1
4901784	216	C	06/03/2021	10:44	-136.335	43.071	0	710.80	0	4.1590	0	38.1000	8	30.243	0	703.948	0	16.2	4	5.3	4	-1E+10	1	-1E+10	1	-1E+10	1	-1E+10	1	-1E+10	1	-1E+10	1
4901784	216	C	06/03/2021	10:44	-136.335	43.071	0	715.00	0	4.1510	0	38.1050	8	30.248	0	708.101	0	15.9	4	5.2	4	-1E+10	1	-1E+10	1	-1E+10	1	-1E+10	1	-1E+10	1	-1E+10	1
4901784	216	C	06/03/2021	10:44	-136.335	43.071	0	719.20	0	4.1410	0	38.1110	8	30.254	0	712.253	0	15.6	4	5.1	4	-1E+10	1	-1E+10	1	-1E+10	1	-1E+10	1	-1E+10	1	-1E+10	1
4901784	216	C	06/03/2021	10:44	-136.335	43.071	0	724.30	0	4.1340	0	38.1150	8	30.258	0	717.295	0	15.3	4	5.0	4	-1E+10	1	-1E+10	1	-1E+10	1	-1E+10	1	-1E+10	1	-1E+10	1
4901784	216	C	06/03/2021	10:44	-136.335	43.071	0	729.40	0	4.1240	0	38.1200	8	30.263	0	722.337	0	15.0	4	4.9	4	-1E+10	1	-1E+10	1	-1E+10	1	-1E+10	1	-1E+10	1	-1E+10	1
4901784	216	C	06/03/2021	10:44	-136.335	43.071	0	734.50	0	4.1100	0	38.1250	8	30.269	0	727.378	0	14.7	4	4.8	4	-1E+10	1	-1E+10	1	-1E+10	1	-1E+10	1	-1E+10	1	-1E+10	1
4901784	216	C	06/03/2021	10:44	-136.335	43.071	0	739.60	0	4.0830	0	38.1320	8	30.277	0	732.420	0	14.3	4	4.7	4	-1E+10	1	-1E+10	1	-1E+10	1	-1E+10	1	-1E+10	1	-1E+10	1
4901784	216	C	06/03/2021	10:44	-136.335	43.071	0	744.60	0	4.0740	0	38.1390	8	30.284	0	737.363	0	14.0	4	4.6	4	-1E+10	1	-1E+10	1	-1E+10	1	-1E+10	1	-1E+10	1	-1E+10	1
4901784	216	C	06/03/2021	10:44	-136.335	43.071	0	749.50	0	4.0700	0	38.1430	8	30.288	0	742.206	0	13.7	4	4.5	4	-1E+10	1	-1E+10	1	-1E+10	1	-1E+10	1	-1E+10	1	-1E+10	1
4901784	216	C	06/03/2021	10:44	-136.335	43.071	0	754.50	0	4.0660	0	38.1500	8	30.294	0	747.149	0	13.4	4	4.4	4	-1E+10	1	-1E+10	1	-1E+10	1	-1E+10	1	-1E+10	1	-1E+10	1
4901784	216	C	06/03/2021	10:44	-136.335	43.071	0	759.50	0	4.0630	0	38.1550	8	30.298	0	752.091	0	13.2	4	4.3	4	-1E+10	1	-1E+10	1	-1E+10	1	-1E+10	1	-1E+10	1	-1E+10	1
4901784	216	C	06/03/2021	10:44	-136.335	43.071	0	764.50	0	4.0500	0	38.1590	8	30.303	0	757.033	0	13.0	4	4.2	4	-1E+10	1	-1E+10	1	-1E+10	1	-1E+10	1	-1E+10	1	-1E+10	1
4901784	216	C	06/03/2021	10:44	-136.335	43.071	0	769.40	0	4.0460	0	38.1610	8	30.305	0	761.876	0	12.8	4	4.2	4	-1E+10	1	-1E+10	1	-1E+10	1	-1E+10	1	-1E+10	1	-1E+10	1
4901784	216	C	06/03/2021	10:44	-136.335	43.071	0	774.40	0	4.0300	0	38.1660	8	30.311	0	766.818	0	12.5	4	4.1	4	-1E+10	1	-1E+10	1	-1E+10	1	-1E+10	1	-1E+10	1	-1E+10	1
4901784	216	C	06/03/2021	10:44	-136.335	43.071	0	779.40	0	4.0240	0	38.1740	8	30.318	0	771.760	0	12.2	4	4.0	4	-1E+10	1	-1E+10	1	-1E+10	1	-1E+10	1	-1E+10	1	-1E+10	1
4901784	216	C	06/03/2021	10:44	-136.335	43.071	0	784.40	0	4.0240	0	38.1790	8	30.322	0	776.702	0	12.0	4	3.9	4	-1E+10	1	-1E+10	1	-1E+10	1	-1E+10	1	-1E+10	1	-1E+10	1
4901784	216	C	06/03/2021	10:44	-136.335	43.071	0	789.50	0	4.0240	0	38.1850	8	30.327	0	781.742	0	11.7	4	3.8	4	-1E+10	1	-1E+10	1	-1E+10	1	-1E+10	1	-1E+10	1	-1E+10	1
4901784	216	C	06/03/2021	10:44	-136.335	43.071	0	794.50	0	4.0150	0	38.1920	8	30.333	0	786.684	0	11.5	4	3.7	4	-1E+10	1	-1E+10	1	-1E+10	1	-1E+10	1	-1E+10	1	-1E+10	1
4901784	216	C	06/03/2021	10:44	-136.335	43.071	0	799.50	0	4.0050	0	38.1970	8	30.338	0	791.625	0	11.3	4	3.7	4	-1E+10	1	-1E+10	1	-1E+10	1	-1E+10	1	-1E+10	1	-1E+10	1
4901784	216	C	06/03/2021	10:44	-136.335	43.071	0	804.50	0	3.9960	0	38.2020	8	30.344	0	796.566	0	11.2	4	3.6	4	-1E+10	1	-1E+10	1	-1E+10	1	-1E+10	1	-1E+10	1	-1E+10	1
4901784	216	C	06/03/2021	10:44	-136.335	43.071	0	809.50	0	3.9890	0	38.2060	8	30.348	0	801.507	0	11.1	4	3.6	4	-1E+10	1	-1E+10	1	-1E+10	1	-1E+10	1	-1E+10	1	-1E+10	1
4901784	216	C	06/03/2021	10:44	-136.335	43.071	0	814.60	0	3.9830	0	38.2090	8	30.351	0	806.547	0	11.0	4	3.6	4	-1E+10	1	-1E+10	1	-1E+10	1	-1E+10	1	-1E+10	1	-1E+10	1
4901784	216	C	06/03/2021	10:44	-136.335	43.071	0	819.70	0	3.9670	0	38.2150	8	30.357	0	811.587	0	10.8	4	3.5	4	-1E+10	1	-1E+10	1	-1E+10	1	-1E+10	1	-1E+10	1	-1E+10	1
4901784	216	C	06/03/2021	10:44	-136.335	43.071	0	824.80	0	3.9490	0	38.2210	8	30.364	0	816.626	0	10.7	4	3.5	4	-1E+10	1	-1E+10	1	-1E+10	1	-1E+10	1	-1E+10	1	-1E+10	1
4901784	216	C	06/03/2021	10:44	-136.335	43.071	0	829.90	0	3.9350	0	38.2260	8	30.370	0	821.666	0	10.6	4	3.4	4	-1E+10	1	-1E+10	1	-1E+10	1	-1E+10	1	-1E+10	1	-1E+10	1
4901784	216	C	06/03/2021	10:44	-136.335	43.071	0	835.00	0	3.9210	0	38.2320	8	30.376	0	826.705	0	10.5	4	3.4	4	-1E+10	1	-1E+10	1	-1E+10	1	-1E+10	1	-1E+10	1	-1E+10	1
4901784	216	C	06/03/2021	10:44	-136.335	43.071	0	840.10	0	3.9100	0	38.2350	8	30.380	0	831.744	0	10.4	4	3.4	4	-1E+10	1	-1E+10	1	-1E+10	1	-1E+10	1	-1E+10	1	-1E+10	1
4901784	216	C	06/03/2021	10:44	-136.335	43.071	0	845.30	0	3.8950	0	38.2420	8	30.387	0	836.882	0	10.3	4	3.4	4	-1E+10	1	-1E+10	1	-1E+10	1	-1E+10	1	-1E+10	1	-1E+10	1
4901784	216	C	06/03/2021	10:44	-136.335	43.071	0	850.60	0	3.8850	0	38.2460	8	30.391	0	842.119	0	10.3	4	3.3	4	-1E+10	1	-1E+10	1	-1E+10	1	-1E+10	1	-1E+10	1	-1E+10	1
4901784	216	C	06/03/2021	10:44	-136.335	43.071	0	854.90	0	3.8840	0	38.2490	8	30.394	0	846.367	0	10.2	4	3.3	4	-1E+10	1	-1E+10	1	-1E+10	1	-1E+10	1	-1E+10	1	-1E+10	1
4901784	216	C	06/03/2021	10:44	-136.335	43.071	0	859.30	0	3.8780	0	38.2510	8	30.396	0	850.714	0	10.1	4	3.3	4	-1E+10	1	-1E+10	1	-1E+10	1	-1E+10	1	-1E+10	1	-1E+10	1
4901784	216	C	06/03/2021	10:44	-136.335	43.071	0	864.70	0	3.8670	0	38.2560	8	30.402	0	856.049	0	10.1	4	3.3	4	-1E+10	1	-1E+10	1	-1E+10	1	-1E+10	1	-1E+10	1	-1E+10	1
4901784	216	C	06/03/2021	10:44	-136.335	43.071	0	870.00	0	3.8530	0	38.2600	8	30.406	0	861.285	0	10.1	4	3.3	4	-1E+10	1	-1E+10	1	-1E+10	1	-1E+10	1	-1E+10	1	-1E+10	1
4901784	216	C	06/03/2021	10:44	-136.335	43.071	0	875.30	0	3.8340	0	38.2640	8	30.412	0	866.521	0	10.1	4	3.3	4	-1E+10	1	-1E+10	1	-1E+10	1	-1E+10	1	-1E+10	1	-1E+10	1
4901784	216	C	06/03/2021	10:44	-136.335	43.071	0	879.80	0	3.8250	0	38.2660	8	30.414	0	870.967	0	10.0	4	3.3	4	-1E+10	1	-1E+10	1	-1E+10	1	-1E+10	1	-1E+10	1	-1E+10	1
4901784	216	C	06/03/2021	10:44	-136.335	43.071	0	884.40	0	3.8130	0	38.2710	8	30.420	0	875.511	0	10.0	4	3.2	4	-1E+10	1	-1E+10	1	-1E+10	1	-1E+10	1	-1E+10	1	-1E+10	1
4901784	216	C	06/03/2021	10:44	-136.335	43.071	0	889.90	0	3.8000	0	38.2780	8	30.427	0	880.944	0	10.0	4	3.2	4	-1E+10	1	-1E+10	1	-1E+10	1	-1E+10	1	-1E+10	1	-1E+10	1
4901784	216	C	06/03/2021	10:44	-136.335	43.071	0	895.30	0	3.7940	0	38.2830	8	30.431	0	886.278	0	10.0	4	3.2	4	-1E+10	1	-1E+10	1	-1E+10	1	-1E+10	1	-1E+10	1	-1E+10	1
4901784	216	C	06/03/2021	10:44	-136.335	43.071	0	900.50	0	3.7750	0	38.2870	8	30.437	0	891.415	0	9.9	4	3.2	4	-1E+10	1	-1E+10	1	-1E+10	1	-1E+10	1	-1E+10	1	-1E+10	1
4901784	216	C	06/03/2021	10:44	-136.335	43.071	0	905.20	0	3.7680	0	38.2910	8	30.441	0	896.057	0	9.9	4	3.2	4	-1E+10	1	-1E+10	1	-1E+10	1	-1E+10	1	-1E+10	1	-1E+10	1
4901784	216	C	06/03/2021	10:44	-136.335	43.071	0	910.10	0	3.7670	0	38.2960	8	30.445	0	900.897	0	9.9	4	3.2	4	-1E+10	1	-1E+10	1	-1E+10	1	-1E+10	1	-1E+10	1	-1E+10	1
4901784	216	C	06/03/2021	10:44	-136.335	43.071	0	915.00	0	3.7560	0	38.3040	8	30.453	0	905.737	0	9.9	4	3.2	4	-1E+10	1	-1E+10	1	-1E+10	1	-1E+10	1	-1E+10	1	-1E+10	1
4901784	216	C	06/03/2021	10:44	-136.335	43.071	0	919.90	0	3.7470	0	38.3080	8	30.457	0	910.577	0	9.9	4	3.2	4	-1E+10	1	-1E+10	1	-1E+10	1	-1E+10	1	-1E+10	1	-1E+10	1
4901784	216	C	06/03/2021	10:44	-136.335	43.071	0	924.90	0	3.7390	0	38.3120	8	30.461	0	915.515	0	9.9	4	3.2	4	-1E+10	1	-1E+10	1	-1E+10	1	-1E+10	1	-1E+10	1	-1E+10	1
4901784	216	C	06/03/2021	10:44	-136.335	43.071	0	929.80	0	3.7300	0	38.3150	8	30.464	0	920.355	0	9.9	4	3.2	4	-1E+10	1	-1E+10	1	-1E+10	1	-1E+10	1	-1E+10	1	-1E+10	1
4901784	216	C	06/03/2021	10:44	-136.335	43.071	0	934.90	0	3.7240	0	38.3170	8	30.467	0	925.392	0	9.9	4	3.2	4	-1E+10	1	-1E+10	1	-1E+10	1	-1E+10	1	-1E+10	1	-1E+10	1
4901784	216	C	06/03/2021	10:44	-136.335	43.071	0	940.00	0	3.7100	0	38.3200	8	30.471	0	930.428	0	9.9	4	3.2	4	-1E+10	1	-1E+10	1	-1E+10	1	-1E+10	1	-1E+10	1	-1E+10	1
4901784	216	C	06/03/2021	10:44	-136.335	43.071	0	945.10	0	3.7020	0	38.3250	8	30.475	0	935.465	0	10.0	4	3.2	4	-1E+10	1	-1E+10	1	-1E+10	1	-1E+10	1	-1E+10	1	-1E+10	1
4901784	216	C	06/03/2021	10:44	-136.335	43.071	0	950.40	0	3.6860	0	38.3300	8	30.481	0	940.699	0	10.0	4	3.2	4	-1E+10	1	-1E+10	1	-1E+10	1	-1E+10	1	-1E+10	1	-1E+10	1
4901784	216	C	06/03/2021	10:44	-136.335	43.071	0	955.70	0	3.6680	0	38.3340	8	30.486	0	945.933	0	10.0	4	3.2	4	-1E+10	1	-1E+10	1	-1E+10	1	-1E+10	1	-1E+10	1	-1E+10	1
4901784	216	C	06/03/2021	10:44	-136.335	43.071	0	960.10	0	3.6510	0	38.3380	8	30.492	0	950.278	0	10.1	4	3.3	4	-1E+10	1	-1E+10	1	-1E+10	1	-1E+10	1	-1E+10	1	-1E+10	1
4901784	216	C	06/03/2021	10:44	-136.335	43.071	0	964.70	0	3.6350	0	38.3420	8	30.496	0	954.821	0	10.1	4	3.3	4	-1E+10	1	-1E+10	1	-1E+10	1	-1E+10	1	-1E+10	1	-1E+10	1
4901784	216	C	06/03/2021	10:44	-136.335	43.071	0	970.20	0	3.6170	0	38.3460	8	30.502	0	960.252	0	10.1	4	3.3	4	-1E+10	1	-1E+10	1	-1E+10	1	-1E+10	1	-1E+10	1	-1E+10	1
4901784	216	C	06/03/2021	10:44	-136.335	43.071	0	975.30	0	3.6080	0	38.3480	8	30.504	0	965.288	0	10.1	4	3.3	4	-1E+10	1	-1E+10	1	-1E+10	1	-1E+10	1	-1E+10	1	-1E+10	1
4901784	216	C	06/03/2021	10:44	-136.335	43.071	0	979.50	0	3.5950	0	38.3500	8	30.507	0	969.435	0	10.1	4	3.3	4	-1E+10	1	-1E+10	1	-1E+10	1	-1E+10	1	-1E+10	1	-1E+10	1
4901784	216	C	06/03/2021	10:44	-136.335	43.071	0	985.10	0	3.5770	0	38.3510	8	30.510	0	974.964	0	10.1	4	3.3	4	-1E+10	1	-1E+10	1	-1E+10	1	-1E+10	1	-1E+10	1	-1E+10	1
4901784	216	C	06/03/2021	10:44	-136.335	43.071	0	990.70	0	3.5640	0	38.3550	8	30.515	0	980.494	0	10.2	4	3.3	4	-1E+10	1	-1E+10	1	-1E+10	1	-1E+10	1	-1E+10	1	-1E+10	1
4901784	216	C	06/03/2021	10:44	-136.335	43.071	0	995.50	0	3.5540	0	38.3580	8	30.518	0	985.233	0	10.2	4	3.3	4	-1E+10	1	-1E+10	1	-1E+10	1	-1E+10	1	-1E+10	1	-1E+10	1
4901784	216	C	06/03/2021	10:44	-136.335	43.071	0	1000.50	0	3.5370	0	38.3630	8	30.524	0	990.170	0	10.3	4	3.3	4	-1E+10	1	-1E+10	1	-1E+10	1	-1E+10	1	-1E+10	1	-1E+10	1
4901784	216	C	06/03/2021	10:44	-136.335	43.071	0	1005.50	0	3.5320	0	38.3680	8	30.529	0	995.106	0	10.4	4	3.3	4	-1E+10	1	-1E+10	1	-1E+10	1	-1E+10	1	-1E+10	1	-1E+10	1
4901784	216	C	06/03/2021	10:44	-136.335	43.071	0	1010.50	0	3.5210	0	38.3700	8	30.531	0	1000.042	0	10.4	4	3.3	4	-1E+10	1	-1E+10	1	-1E+10	1	-1E+10	1	-1E+10	1	-1E+10	1
4901784	216	C	06/03/2021	10:44	-136.335	43.071	0	1015.40	0	3.5080	0	38.3730	8	30.535	0	1004.880	0	10.4	4	3.4	4	-1E+10	1	-1E+10	1	-1E+10	1	-1E+10	1	-1E+10	1	-1E+10	1
4901784	216	C	06/03/2021	10:44	-136.335	43.071	0	1020.40	0	3.5060	0	38.3760	8	30.538	0	1009.816	0	10.4	4	3.4	4	-1E+10	1	-1E+10	1	-1E+10	1	-1E+10	1	-1E+10	1	-1E+10	1
4901784	216	C	06/03/2021	10:44	-136.335	43.071	0	1025.50	0	3.4880	0	38.3760	8	30.540	0	1014.851	0	10.4	4	3.3	4	-1E+10	1	-1E+10	1	-1E+10	1	-1E+10	1	-1E+10	1	-1E+10	1
4901784	216	C	06/03/2021	10:44	-136.335	43.071	0	1030.50	0	3.4630	0	38.3780	8	30.544	0	1019.787	0	10.4	4	3.3	4	-1E+10	1	-1E+10	1	-1E+10	1	-1E+10	1	-1E+10	1	-1E+10	1
4901784	216	C	06/03/2021	10:44	-136.335	43.071	0	1035.70	0	3.4390	0	38.3830	8	30.551	0	1024.920	0	10.4	4	3.4	4	-1E+10	1	-1E+10	1	-1E+10	1	-1E+10	1	-1E+10	1	-1E+10	1
4901784	216	C	06/03/2021	10:44	-136.335	43.071	0	1040.80	0	3.4330	0	38.3850	8	30.553	0	1029.955	0	10.5	4	3.4	4	-1E+10	1	-1E+10	1	-1E+10	1	-1E+10	1	-1E+10	1	-1E+10	1
4901784	216	C	06/03/2021	10:44	-136.335	43.071	0	1045.10	0	3.4260	0	38.3870	8	30.555	0	1034.199	0	10.5	4	3.4	4	-1E+10	1	-1E+10	1	-1E+10	1	-1E+10	1	-1E+10	1	-1E+10	1
4901784	216	C	06/03/2021	10:44	-136.335	43.071	0	1049.50	0	3.4140	0	38.3900	8	30.559	0	1038.542	0	10.6	4	3.4	4	-1E+10	1	-1E+10	1	-1E+10	1	-1E+10	1	-1E+10	1	-1E+10	1
4901784	216	C	06/03/2021	10:44	-136.335	43.071	0	1054.70	0	3.4050	0	38.3930	8	30.563	0	1043.675	0	10.7	4	3.4	4	-1E+10	1	-1E+10	1	-1E+10	1	-1E+10	1	-1E+10	1	-1E+10	1
4901784	216	C	06/03/2021	10:44	-136.335	43.071	0	1060.00	0	3.3980	0	38.3950	8	30.565	0	1048.906	0	10.7	4	3.4	4	-1E+10	1	-1E+10	1	-1E+10	1	-1E+10	1	-1E+10	1	-1E+10	1
4901784	216	C	06/03/2021	10:44	-136.335	43.071	0	1065.20	0	3.3810	0	38.3980	8	30.569	0	1054.039	0	10.8	4	3.5	4	-1E+10	1	-1E+10	1	-1E+10	1	-1E+10	1	-1E+10	1	-1E+10	1
4901784	216	C	06/03/2021	10:44	-136.335	43.071	0	1070.50	0	3.3670	0	38.4020	8	30.574	0	1059.270	0	10.9	4	3.5	4	-1E+10	1	-1E+10	1	-1E+10	1	-1E+10	1	-1E+10	1	-1E+10	1
4901784	216	C	06/03/2021	10:44	-136.335	43.071	0	1074.90	0	3.3620	0	38.4040	8	30.576	0	1063.613	0	10.9	4	3.5	4	-1E+10	1	-1E+10	1	-1E+10	1	-1E+10	1	-1E+10	1	-1E+10	1
4901784	216	C	06/03/2021	10:44	-136.335	43.071	0	1079.40	0	3.3540	0	38.4060	8	30.579	0	1068.054	0	11.0	4	3.5	4	-1E+10	1	-1E+10	1	-1E+10	1	-1E+10	1	-1E+10	1	-1E+10	1
4901784	216	C	06/03/2021	10:44	-136.335	43.071	0	1084.80	0	3.3420	0	38.4100	8	30.583	0	1073.383	0	11.1	4	3.6	4	-1E+10	1	-1E+10	1	-1E+10	1	-1E+10	1	-1E+10	1	-1E+10	1
4901784	216	C	06/03/2021	10:44	-136.335	43.071	0	1090.10	0	3.3320	0	38.4120	8	30.586	0	1078.614	0	11.2	4	3.6	4	-1E+10	1	-1E+10	1	-1E+10	1	-1E+10	1	-1E+10	1	-1E+10	1
4901784	216	C	06/03/2021	10:44	-136.335	43.071	0	1095.40	0	3.3130	0	38.4170	8	30.592	0	1083.845	0	11.4	4	3.6	4	-1E+10	1	-1E+10	1	-1E+10	1	-1E+10	1	-1E+10	1	-1E+10	1
4901784	216	C	06/03/2021	10:44	-136.335	43.071	0	1100.00	0	3.2980	0	38.4220	8	30.597	0	1088.384	0	11.4	4	3.7	4	-1E+10	1	-1E+10	1	-1E+10	1	-1E+10	1	-1E+10	1	-1E+10	1
4901784	216	C	06/03/2021	10:44	-136.335	43.071	0	1104.90	0	3.2940	0	38.4230	8	30.599	0	1093.220	0	11.5	4	3.7	4	-1E+10	1	-1E+10	1	-1E+10	1	-1E+10	1	-1E+10	1	-1E+10	1
4901784	216	C	06/03/2021	10:44	-136.335	43.071	0	1110.20	0	3.2830	0	38.4260	8	30.602	0	1098.450	0	11.6	4	3.7	4	-1E+10	1	-1E+10	1	-1E+10	1	-1E+10	1	-1E+10	1	-1E+10	1
4901784	216	C	06/03/2021	10:44	-136.335	43.071	0	1115.20	0	3.2730	0	38.4290	8	30.606	0	1103.384	0	11.7	4	3.8	4	-1E+10	1	-1E+10	1	-1E+10	1	-1E+10	1	-1E+10	1	-1E+10	1
4901784	216	C	06/03/2021	10:44	-136.335	43.071	0	1120.30	0	3.2620	0	38.4320	8	30.609	0	1108.416	0	11.8	4	3.8	4	-1E+10	1	-1E+10	1	-1E+10	1	-1E+10	1	-1E+10	1	-1E+10	1
4901784	216	C	06/03/2021	10:44	-136.335	43.071	0	1125.40	0	3.2510	0	38.4350	8	30.613	0	1113.449	0	11.9	4	3.8	4	-1E+10	1	-1E+10	1	-1E+10	1	-1E+10	1	-1E+10	1	-1E+10	1
4901784	216	C	06/03/2021	10:44	-136.335	43.071	0	1130.40	0	3.2400	0	38.4370	8	30.616	0	1118.382	0	12.0	4	3.8	4	-1E+10	1	-1E+10	1	-1E+10	1	-1E+10	1	-1E+10	1	-1E+10	1
4901784	216	C	06/03/2021	10:44	-136.335	43.071	0	1135.60	0	3.2260	0	38.4400	8	30.620	0	1123.513	0	12.1	4	3.9	4	-1E+10	1	-1E+10	1	-1E+10	1	-1E+10	1	-1E+10	1	-1E+10	1
4901784	216	C	06/03/2021	10:44	-136.335	43.071	0	1140.80	0	3.2160	0	38.4430	8	30.623	0	1128.644	0	12.2	4	3.9	4	-1E+10	1	-1E+10	1	-1E+10	1	-1E+10	1	-1E+10	1	-1E+10	1
4901784	216	C	06/03/2021	10:44	-136.335	43.071	0	1145.10	0	3.2140	0	38.4440	8	30.624	0	1132.886	0	12.2	4	3.9	4	-1E+10	1	-1E+10	1	-1E+10	1	-1E+10	1	-1E+10	1	-1E+10	1
4901784	216	C	06/03/2021	10:44	-136.335	43.071	0	1149.30	0	3.2060	0	38.4470	8	30.627	0	1137.030	0	12.3	4	3.9	4	-1E+10	1	-1E+10	1	-1E+10	1	-1E+10	1	-1E+10	1	-1E+10	1
4901784	216	C	06/03/2021	10:44	-136.335	43.071	0	1154.40	0	3.2010	0	38.4480	8	30.629	0	1142.062	0	12.5	4	4.0	4	-1E+10	1	-1E+10	1	-1E+10	1	-1E+10	1	-1E+10	1	-1E+10	1
4901784	216	C	06/03/2021	10:44	-136.335	43.071	0	1159.60	0	3.1840	0	38.4530	8	30.634	0	1147.192	0	12.6	4	4.0	4	-1E+10	1	-1E+10	1	-1E+10	1	-1E+10	1	-1E+10	1	-1E+10	1
4901784	216	C	06/03/2021	10:44	-136.335	43.071	0	1164.90	0	3.1770	0	38.4550	8	30.637	0	1152.421	0	12.7	4	4.1	4	-1E+10	1	-1E+10	1	-1E+10	1	-1E+10	1	-1E+10	1	-1E+10	1
4901784	216	C	06/03/2021	10:44	-136.335	43.071	0	1170.00	0	3.1700	0	38.4560	8	30.638	0	1157.452	0	12.8	4	4.1	4	-1E+10	1	-1E+10	1	-1E+10	1	-1E+10	1	-1E+10	1	-1E+10	1
4901784	216	C	06/03/2021	10:44	-136.335	43.071	0	1175.20	0	3.1650	0	38.4580	8	30.641	0	1162.582	0	12.9	4	4.1	4	-1E+10	1	-1E+10	1	-1E+10	1	-1E+10	1	-1E+10	1	-1E+10	1
4901784	216	C	06/03/2021	10:44	-136.335	43.071	0	1180.30	0	3.1490	0	38.4620	8	30.645	0	1167.613	0	13.1	4	4.2	4	-1E+10	1	-1E+10	1	-1E+10	1	-1E+10	1	-1E+10	1	-1E+10	1
4901784	216	C	06/03/2021	10:44	-136.335	43.071	0	1185.50	0	3.1390	0	38.4650	8	30.649	0	1172.743	0	13.2	4	4.2	4	-1E+10	1	-1E+10	1	-1E+10	1	-1E+10	1	-1E+10	1	-1E+10	1
4901784	216	C	06/03/2021	10:44	-136.335	43.071	0	1189.90	0	3.1360	0	38.4660	8	30.650	0	1177.083	0	13.3	4	4.2	4	-1E+10	1	-1E+10	1	-1E+10	1	-1E+10	1	-1E+10	1	-1E+10	1
4901784	216	C	06/03/2021	10:44	-136.335	43.071	0	1194.30	0	3.1250	0	38.4680	8	30.653	0	1181.423	0	13.4	4	4.3	4	-1E+10	1	-1E+10	1	-1E+10	1	-1E+10	1	-1E+10	1	-1E+10	1
4901784	216	C	06/03/2021	10:44	-136.335	43.071	0	1199.40	0	3.1100	0	38.4710	8	30.657	0	1186.454	0	13.5	4	4.3	4	-1E+10	1	-1E+10	1	-1E+10	1	-1E+10	1	-1E+10	1	-1E+10	1
4901784	216	C	06/03/2021	10:44	-136.335	43.071	0	1204.50	0	3.0980	0	38.4750	8	30.661	0	1191.484	0	13.7	4	4.4	4	-1E+10	1	-1E+10	1	-1E+10	1	-1E+10	1	-1E+10	1	-1E+10	1
4901784	216	C	06/03/2021	10:44	-136.335	43.071	0	1209.80	0	3.0910	0	38.4770	8	30.664	0	1196.712	0	13.8	4	4.4	4	-1E+10	1	-1E+10	1	-1E+10	1	-1E+10	1	-1E+10	1	-1E+10	1
4901784	216	C	06/03/2021	10:44	-136.335	43.071	0	1215.10	0	3.0850	0	38.4780	8	30.665	0	1201.940	0	13.9	4	4.4	4	-1E+10	1	-1E+10	1	-1E+10	1	-1E+10	1	-1E+10	1	-1E+10	1
4901784	216	C	06/03/2021	10:44	-136.335	43.071	0	1220.40	0	3.0780	0	38.4800	8	30.667	0	1207.167	0	14.0	4	4.5	4	-1E+10	1	-1E+10	1	-1E+10	1	-1E+10	1	-1E+10	1	-1E+10	1
4901784	216	C	06/03/2021	10:44	-136.335	43.071	0	1224.90	0	3.0710	0	38.4820	8	30.670	0	1211.605	0	14.0	4	4.5	4	-1E+10	1	-1E+10	1	-1E+10	1	-1E+10	1	-1E+10	1	-1E+10	1
4901784	216	C	06/03/2021	10:44	-136.335	43.071	0	1229.30	0	3.0660	0	38.4830	8	30.671	0	1215.945	0	14.2	4	4.5	4	-1E+10	1	-1E+10	1	-1E+10	1	-1E+10	1	-1E+10	1	-1E+10	1
4901784	216	C	06/03/2021	10:44	-136.335	43.071	0	1234.60	0	3.0510	0	38.4860	8	30.675	0	1221.172	0	14.4	4	4.6	4	-1E+10	1	-1E+10	1	-1E+10	1	-1E+10	1	-1E+10	1	-1E+10	1
4901784	216	C	06/03/2021	10:44	-136.335	43.071	0	1240.00	0	3.0400	0	38.4890	8	30.679	0	1226.497	0	14.5	4	4.6	4	-1E+10	1	-1E+10	1	-1E+10	1	-1E+10	1	-1E+10	1	-1E+10	1
4901784	216	C	06/03/2021	10:44	-136.335	43.071	0	1245.00	0	3.0300	0	38.4910	8	30.681	0	1231.428	0	14.7	4	4.7	4	-1E+10	1	-1E+10	1	-1E+10	1	-1E+10	1	-1E+10	1	-1E+10	1
4901784	216	C	06/03/2021	10:44	-136.335	43.071	0	1250.10	0	3.0190	0	38.4930	8	30.684	0	1236.458	0	14.9	4	4.8	4	-1E+10	1	-1E+10	1	-1E+10	1	-1E+10	1	-1E+10	1	-1E+10	1
4901784	216	C	06/03/2021	10:44	-136.335	43.071	0	1255.10	0	3.0000	0	38.4980	8	30.690	0	1241.388	0	15.2	4	4.8	4	-1E+10	1	-1E+10	1	-1E+10	1	-1E+10	1	-1E+10	1	-1E+10	1
4901784	216	C	06/03/2021	10:44	-136.335	43.071	0	1260.20	0	2.9870	0	38.5010	8	30.694	0	1246.418	0	15.3	4	4.9	4	-1E+10	1	-1E+10	1	-1E+10	1	-1E+10	1	-1E+10	1	-1E+10	1
4901784	216	C	06/03/2021	10:44	-136.335	43.071	0	1265.20	0	2.9770	0	38.5030	8	30.696	0	1251.348	0	15.5	4	4.9	4	-1E+10	1	-1E+10	1	-1E+10	1	-1E+10	1	-1E+10	1	-1E+10	1
4901784	216	C	06/03/2021	10:44	-136.335	43.071	0	1270.30	0	2.9660	0	38.5050	8	30.699	0	1256.377	0	15.8	4	5.0	4	-1E+10	1	-1E+10	1	-1E+10	1	-1E+10	1	-1E+10	1	-1E+10	1
4901784	216	C	06/03/2021	10:44	-136.335	43.071	0	1275.40	0	2.9520	0	38.5080	8	30.703	0	1261.406	0	15.9	4	5.1	4	-1E+10	1	-1E+10	1	-1E+10	1	-1E+10	1	-1E+10	1	-1E+10	1
4901784	216	C	06/03/2021	10:44	-136.335	43.071	0	1280.60	0	2.9410	0	38.5100	8	30.706	0	1266.533	0	16.1	4	5.1	4	-1E+10	1	-1E+10	1	-1E+10	1	-1E+10	1	-1E+10	1	-1E+10	1
4901784	216	C	06/03/2021	10:44	-136.335	43.071	0	1285.80	0	2.9300	0	38.5130	8	30.709	0	1271.660	0	16.3	4	5.2	4	-1E+10	1	-1E+10	1	-1E+10	1	-1E+10	1	-1E+10	1	-1E+10	1
4901784	216	C	06/03/2021	10:44	-136.335	43.071	0	1290.10	0	2.9250	0	38.5140	8	30.711	0	1275.900	0	16.5	4	5.2	4	-1E+10	1	-1E+10	1	-1E+10	1	-1E+10	1	-1E+10	1	-1E+10	1
4901784	216	C	06/03/2021	10:44	-136.335	43.071	0	1294.40	0	2.9120	0	38.5170	8	30.714	0	1280.140	0	16.7	4	5.3	4	-1E+10	1	-1E+10	1	-1E+10	1	-1E+10	1	-1E+10	1	-1E+10	1
4901784	216	C	06/03/2021	10:44	-136.335	43.071	0	1299.70	0	2.9020	0	38.5200	8	30.718	0	1285.365	0	16.9	4	5.4	4	-1E+10	1	-1E+10	1	-1E+10	1	-1E+10	1	-1E+10	1	-1E+10	1
4901784	216	C	06/03/2021	10:44	-136.335	43.071	0	1305.00	0	2.8960	0	38.5210	8	30.719	0	1290.590	0	17.0	4	5.4	4	-1E+10	1	-1E+10	1	-1E+10	1	-1E+10	1	-1E+10	1	-1E+10	1
4901784	216	C	06/03/2021	10:44	-136.335	43.071	0	1310.40	0	2.8870	0	38.5240	8	30.723	0	1295.914	0	17.2	4	5.5	4	-1E+10	1	-1E+10	1	-1E+10	1	-1E+10	1	-1E+10	1	-1E+10	1
4901784	216	C	06/03/2021	10:44	-136.335	43.071	0	1314.90	0	2.8780	0	38.5260	8	30.725	0	1300.351	0	17.4	4	5.5	4	-1E+10	1	-1E+10	1	-1E+10	1	-1E+10	1	-1E+10	1	-1E+10	1
4901784	216	C	06/03/2021	10:44	-136.335	43.071	0	1319.50	0	2.8730	0	38.5270	8	30.726	0	1304.885	0	17.5	4	5.6	4	-1E+10	1	-1E+10	1	-1E+10	1	-1E+10	1	-1E+10	1	-1E+10	1
4901784	216	C	06/03/2021	10:44	-136.335	43.071	0	1325.00	0	2.8620	0	38.5290	8	30.729	0	1310.307	0	17.7	4	5.6	4	-1E+10	1	-1E+10	1	-1E+10	1	-1E+10	1	-1E+10	1	-1E+10	1
4901784	216	C	06/03/2021	10:44	-136.335	43.071	0	1330.50	0	2.8500	0	38.5320	8	30.733	0	1315.729	0	17.9	4	5.7	4	-1E+10	1	-1E+10	1	-1E+10	1	-1E+10	1	-1E+10	1	-1E+10	1
4901784	216	C	06/03/2021	10:44	-136.335	43.071	0	1335.10	0	2.8430	0	38.5340	8	30.735	0	1320.264	0	18.1	4	5.7	4	-1E+10	1	-1E+10	1	-1E+10	1	-1E+10	1	-1E+10	1	-1E+10	1
4901784	216	C	06/03/2021	10:44	-136.335	43.071	0	1339.70	0	2.8380	0	38.5350	8	30.736	0	1324.798	0	18.2	4	5.8	4	-1E+10	1	-1E+10	1	-1E+10	1	-1E+10	1	-1E+10	1	-1E+10	1
4901784	216	C	06/03/2021	10:44	-136.335	43.071	0	1345.30	0	2.8340	0	38.5360	8	30.738	0	1330.318	0	18.4	4	5.8	4	-1E+10	1	-1E+10	1	-1E+10	1	-1E+10	1	-1E+10	1	-1E+10	1
4901784	216	C	06/03/2021	10:44	-136.335	43.071	0	1350.00	0	2.8250	0	38.5390	8	30.741	0	1334.951	0	18.5	4	5.9	4	-1E+10	1	-1E+10	1	-1E+10	1	-1E+10	1	-1E+10	1	-1E+10	1
4901784	216	C	06/03/2021	10:44	-136.335	43.071	0	1354.70	0	2.8170	0	38.5400	8	30.743	0	1339.584	0	18.7	4	5.9	4	-1E+10	1	-1E+10	1	-1E+10	1	-1E+10	1	-1E+10	1	-1E+10	1
4901784	216	C	06/03/2021	10:44	-136.335	43.071	0	1359.90	0	2.8120	0	38.5420	8	30.745	0	1344.709	0	18.9	4	6.0	4	-1E+10	1	-1E+10	1	-1E+10	1	-1E+10	1	-1E+10	1	-1E+10	1
4901784	216	C	06/03/2021	10:44	-136.335	43.071	0	1364.20	0	2.8040	0	38.5440	8	30.747	0	1348.947	0	19.0	4	6.0	4	-1E+10	1	-1E+10	1	-1E+10	1	-1E+10	1	-1E+10	1	-1E+10	1
4901784	216	C	06/03/2021	10:44	-136.335	43.071	0	1369.90	0	2.7970	0	38.5460	8	30.750	0	1354.565	0	19.2	4	6.1	4	-1E+10	1	-1E+10	1	-1E+10	1	-1E+10	1	-1E+10	1	-1E+10	1
4901784	216	C	06/03/2021	10:44	-136.335	43.071	0	1375.70	0	2.7900	0	38.5480	8	30.752	0	1360.282	0	19.4	4	6.1	4	-1E+10	1	-1E+10	1	-1E+10	1	-1E+10	1	-1E+10	1	-1E+10	1
4901784	216	C	06/03/2021	10:44	-136.335	43.071	0	1380.70	0	2.7820	0	38.5490	8	30.753	0	1365.209	0	19.6	4	6.2	4	-1E+10	1	-1E+10	1	-1E+10	1	-1E+10	1	-1E+10	1	-1E+10	1
4901784	216	C	06/03/2021	10:44	-136.335	43.071	0	1385.70	0	2.7730	0	38.5510	8	30.756	0	1370.137	0	19.9	4	6.3	4	-1E+10	1	-1E+10	1	-1E+10	1	-1E+10	1	-1E+10	1	-1E+10	1
4901784	216	C	06/03/2021	10:44	-136.335	43.071	0	1390.80	0	2.7600	0	38.5540	8	30.760	0	1375.163	0	20.1	4	6.4	4	-1E+10	1	-1E+10	1	-1E+10	1	-1E+10	1	-1E+10	1	-1E+10	1
4901784	216	C	06/03/2021	10:44	-136.335	43.071	0	1395.00	0	2.7530	0	38.5560	8	30.762	0	1379.302	0	20.3	4	6.4	4	-1E+10	1	-1E+10	1	-1E+10	1	-1E+10	1	-1E+10	1	-1E+10	1
4901784	216	C	06/03/2021	10:44	-136.335	43.071	0	1399.30	0	2.7450	0	38.5570	8	30.764	0	1383.540	0	20.5	4	6.5	4	-1E+10	1	-1E+10	1	-1E+10	1	-1E+10	1	-1E+10	1	-1E+10	1
4901784	216	C	06/03/2021	10:44	-136.335	43.071	0	1404.40	0	2.7340	0	38.5590	8	30.766	0	1388.566	0	20.8	4	6.6	4	-1E+10	1	-1E+10	1	-1E+10	1	-1E+10	1	-1E+10	1	-1E+10	1
4901784	216	C	06/03/2021	10:44	-136.335	43.071	0	1409.70	0	2.7220	0	38.5610	8	30.769	0	1393.788	0	21.1	4	6.7	4	-1E+10	1	-1E+10	1	-1E+10	1	-1E+10	1	-1E+10	1	-1E+10	1
4901784	216	C	06/03/2021	10:44	-136.335	43.071	0	1414.90	0	2.7100	0	38.5640	8	30.773	0	1398.912	0	21.4	4	6.8	4	-1E+10	1	-1E+10	1	-1E+10	1	-1E+10	1	-1E+10	1	-1E+10	1
4901784	216	C	06/03/2021	10:44	-136.335	43.071	0	1420.20	0	2.6960	0	38.5670	8	30.777	0	1404.135	0	21.8	4	6.9	4	-1E+10	1	-1E+10	1	-1E+10	1	-1E+10	1	-1E+10	1	-1E+10	1
4901784	216	C	06/03/2021	10:44	-136.335	43.071	0	1425.40	0	2.6850	0	38.5690	8	30.779	0	1409.259	0	22.1	4	7.0	4	-1E+10	1	-1E+10	1	-1E+10	1	-1E+10	1	-1E+10	1	-1E+10	1
4901784	216	C	06/03/2021	10:44	-136.335	43.071	0	1430.60	0	2.6730	0	38.5710	8	30.782	0	1414.382	0	22.3	4	7.0	4	-1E+10	1	-1E+10	1	-1E+10	1	-1E+10	1	-1E+10	1	-1E+10	1
4901784	216	C	06/03/2021	10:44	-136.335	43.071	0	1435.00	0	2.6680	0	38.5730	8	30.784	0	1418.718	0	22.5	4	7.1	4	-1E+10	1	-1E+10	1	-1E+10	1	-1E+10	1	-1E+10	1	-1E+10	1
4901784	216	C	06/03/2021	10:44	-136.335	43.071	0	1439.40	0	2.6610	0	38.5740	8	30.786	0	1423.053	0	22.7	4	7.2	4	-1E+10	1	-1E+10	1	-1E+10	1	-1E+10	1	-1E+10	1	-1E+10	1
4901784	216	C	06/03/2021	10:44	-136.335	43.071	0	1444.80	0	2.6510	0	38.5760	8	30.788	0	1428.374	0	23.0	4	7.3	4	-1E+10	1	-1E+10	1	-1E+10	1	-1E+10	1	-1E+10	1	-1E+10	1
4901784	216	C	06/03/2021	10:44	-136.335	43.071	0	1450.20	0	2.6420	0	38.5780	8	30.791	0	1433.694	0	23.3	4	7.4	4	-1E+10	1	-1E+10	1	-1E+10	1	-1E+10	1	-1E+10	1	-1E+10	1
4901784	216	C	06/03/2021	10:44	-136.335	43.071	0	1454.80	0	2.6320	0	38.5800	8	30.793	0	1438.226	0	23.6	4	7.5	4	-1E+10	1	-1E+10	1	-1E+10	1	-1E+10	1	-1E+10	1	-1E+10	1
4901784	216	C	06/03/2021	10:44	-136.335	43.071	0	1459.40	0	2.6180	0	38.5820	8	30.796	0	1442.758	0	23.9	4	7.5	4	-1E+10	1	-1E+10	1	-1E+10	1	-1E+10	1	-1E+10	1	-1E+10	1
4901784	216	C	06/03/2021	10:44	-136.335	43.071	0	1464.90	0	2.6110	0	38.5840	8	30.799	0	1448.176	0	24.1	4	7.6	4	-1E+10	1	-1E+10	1	-1E+10	1	-1E+10	1	-1E+10	1	-1E+10	1
4901784	216	C	06/03/2021	10:44	-136.335	43.071	0	1470.40	0	2.6030	0	38.5860	8	30.801	0	1453.594	0	24.3	4	7.7	4	-1E+10	1	-1E+10	1	-1E+10	1	-1E+10	1	-1E+10	1	-1E+10	1
4901784	216	C	06/03/2021	10:44	-136.335	43.071	0	1475.10	0	2.6010	0	38.5870	8	30.802	0	1458.224	0	24.4	4	7.7	4	-1E+10	1	-1E+10	1	-1E+10	1	-1E+10	1	-1E+10	1	-1E+10	1
4901784	216	C	06/03/2021	10:44	-136.335	43.071	0	1479.70	0	2.5950	0	38.5880	8	30.804	0	1462.756	0	24.7	4	7.8	4	-1E+10	1	-1E+10	1	-1E+10	1	-1E+10	1	-1E+10	1	-1E+10	1
4901784	216	C	06/03/2021	10:44	-136.335	43.071	0	1485.10	0	2.5820	0	38.5900	8	30.807	0	1468.075	0	25.1	4	7.9	4	-1E+10	1	-1E+10	1	-1E+10	1	-1E+10	1	-1E+10	1	-1E+10	1
4901784	216	C	06/03/2021	10:44	-136.335	43.071	0	1489.90	0	2.5690	0	38.5920	8	30.809	0	1472.804	0	25.5	4	8.0	4	-1E+10	1	-1E+10	1	-1E+10	1	-1E+10	1	-1E+10	1	-1E+10	1
4901784	216	C	06/03/2021	10:44	-136.335	43.071	0	1495.40	0	2.5520	0	38.5960	8	30.814	0	1478.221	0	25.8	4	8.1	4	-1E+10	1	-1E+10	1	-1E+10	1	-1E+10	1	-1E+10	1	-1E+10	1
4901784	216	C	06/03/2021	10:44	-136.335	43.071	0	1500.10	0	2.5450	0	38.5980	8	30.817	0	1482.851	0	26.0	4	8.2	4	-1E+10	1	-1E+10	1	-1E+10	1	-1E+10	1	-1E+10	1	-1E+10	1
4901784	216	C	06/03/2021	10:44	-136.335	43.071	0	1504.90	0	2.5390	0	38.5990	8	30.818	0	1487.579	0	26.2	4	8.3	4	-1E+10	1	-1E+10	1	-1E+10	1	-1E+10	1	-1E+10	1	-1E+10	1
4901784	216	C	06/03/2021	10:44	-136.335	43.071	0	1509.80	0	2.5340	0	38.6000	8	30.819	0	1492.405	0	26.4	4	8.3	4	-1E+10	1	-1E+10	1	-1E+10	1	-1E+10	1	-1E+10	1	-1E+10	1
4901784	216	C	06/03/2021	10:44	-136.335	43.071	0	1514.70	0	2.5300	0	38.6010	8	30.821	0	1497.231	0	26.6	4	8.4	4	-1E+10	1	-1E+10	1	-1E+10	1	-1E+10	1	-1E+10	1	-1E+10	1
4901784	216	C	06/03/2021	10:44	-136.335	43.071	0	1519.60	0	2.5200	0	38.6040	8	30.824	0	1502.057	0	26.9	4	8.5	4	-1E+10	1	-1E+10	1	-1E+10	1	-1E+10	1	-1E+10	1	-1E+10	1
4901784	216	C	06/03/2021	10:44	-136.335	43.071	0	1524.50	0	2.5120	0	38.6050	8	30.826	0	1506.883	0	27.1	4	8.5	4	-1E+10	1	-1E+10	1	-1E+10	1	-1E+10	1	-1E+10	1	-1E+10	1
4901784	216	C	06/03/2021	10:44	-136.335	43.071	0	1529.40	0	2.5080	0	38.6060	8	30.827	0	1511.709	0	27.3	4	8.6	4	-1E+10	1	-1E+10	1	-1E+10	1	-1E+10	1	-1E+10	1	-1E+10	1
4901784	216	C	06/03/2021	10:44	-136.335	43.071	0	1534.30	0	2.4970	0	38.6080	8	30.829	0	1516.535	0	27.6	4	8.7	4	-1E+10	1	-1E+10	1	-1E+10	1	-1E+10	1	-1E+10	1	-1E+10	1
4901784	216	C	06/03/2021	10:44	-136.335	43.071	0	1540.00	0	2.4890	0	38.6100	8	30.832	0	1522.148	0	27.9	4	8.8	4	-1E+10	1	-1E+10	1	-1E+10	1	-1E+10	1	-1E+10	1	-1E+10	1
4901784	216	C	06/03/2021	10:44	-136.335	43.071	0	1545.80	0	2.4800	0	38.6120	8	30.834	0	1527.860	0	28.3	4	8.9	4	-1E+10	1	-1E+10	1	-1E+10	1	-1E+10	1	-1E+10	1	-1E+10	1
4901784	216	C	06/03/2021	10:44	-136.335	43.071	0	1550.00	0	2.4690	0	38.6140	8	30.837	0	1531.996	0	28.6	4	9.0	4	-1E+10	1	-1E+10	1	-1E+10	1	-1E+10	1	-1E+10	1	-1E+10	1
4901784	216	C	06/03/2021	10:44	-136.335	43.071	0	1555.00	0	2.4590	0	38.6160	8	30.840	0	1536.920	0	28.9	4	9.1	4	-1E+10	1	-1E+10	1	-1E+10	1	-1E+10	1	-1E+10	1	-1E+10	1
4901784	216	C	06/03/2021	10:44	-136.335	43.071	0	1560.00	0	2.4540	0	38.6180	8	30.842	0	1541.844	0	29.1	4	9.1	4	-1E+10	1	-1E+10	1	-1E+10	1	-1E+10	1	-1E+10	1	-1E+10	1
4901784	216	C	06/03/2021	10:44	-136.335	43.071	0	1564.20	0	2.4460	0	38.6200	8	30.844	0	1545.979	0	29.3	4	9.2	4	-1E+10	1	-1E+10	1	-1E+10	1	-1E+10	1	-1E+10	1	-1E+10	1
4901784	216	C	06/03/2021	10:44	-136.335	43.071	0	1569.30	0	2.4380	0	38.6220	8	30.846	0	1551.001	0	29.6	4	9.3	4	-1E+10	1	-1E+10	1	-1E+10	1	-1E+10	1	-1E+10	1	-1E+10	1
4901784	216	C	06/03/2021	10:44	-136.335	43.071	0	1574.40	0	2.4330	0	38.6230	8	30.848	0	1556.023	0	29.8	4	9.4	4	-1E+10	1	-1E+10	1	-1E+10	1	-1E+10	1	-1E+10	1	-1E+10	1
4901784	216	C	06/03/2021	10:44	-136.335	43.071	0	1579.60	0	2.4280	0	38.6240	8	30.849	0	1561.143	0	30.0	4	9.4	4	-1E+10	1	-1E+10	1	-1E+10	1	-1E+10	1	-1E+10	1	-1E+10	1
4901784	216	C	06/03/2021	10:44	-136.335	43.071	0	1584.80	0	2.4200	0	38.6260	8	30.852	0	1566.263	0	30.3	4	9.5	4	-1E+10	1	-1E+10	1	-1E+10	1	-1E+10	1	-1E+10	1	-1E+10	1
4901784	216	C	06/03/2021	10:44	-136.335	43.071	0	1590.00	0	2.4120	0	38.6280	8	30.854	0	1571.383	0	30.6	4	9.6	4	-1E+10	1	-1E+10	1	-1E+10	1	-1E+10	1	-1E+10	1	-1E+10	1
4901784	216	C	06/03/2021	10:44	-136.335	43.071	0	1595.30	0	2.4050	0	38.6300	8	30.856	0	1576.601	0	30.9	4	9.7	4	-1E+10	1	-1E+10	1	-1E+10	1	-1E+10	1	-1E+10	1	-1E+10	1
4901784	216	C	06/03/2021	10:44	-136.335	43.071	0	1600.60	0	2.3980	0	38.6310	8	30.858	0	1581.820	0	31.2	4	9.8	4	-1E+10	1	-1E+10	1	-1E+10	1	-1E+10	1	-1E+10	1	-1E+10	1
4901784	216	C	06/03/2021	10:44	-136.335	43.071	0	1605.00	0	2.3910	0	38.6320	8	30.859	0	1586.151	0	31.5	4	9.9	4	-1E+10	1	-1E+10	1	-1E+10	1	-1E+10	1	-1E+10	1	-1E+10	1
4901784	216	C	06/03/2021	10:44	-136.335	43.071	0	1609.40	0	2.3820	0	38.6350	8	30.862	0	1590.483	0	31.9	4	10.0	4	-1E+10	1	-1E+10	1	-1E+10	1	-1E+10	1	-1E+10	1	-1E+10	1
4901784	216	C	06/03/2021	10:44	-136.335	43.071	0	1614.70	0	2.3720	0	38.6370	8	30.865	0	1595.701	0	32.2	4	10.1	4	-1E+10	1	-1E+10	1	-1E+10	1	-1E+10	1	-1E+10	1	-1E+10	1
4901784	216	C	06/03/2021	10:44	-136.335	43.071	0	1620.10	0	2.3640	0	38.6380	8	30.867	0	1601.017	0	32.6	4	10.2	4	-1E+10	1	-1E+10	1	-1E+10	1	-1E+10	1	-1E+10	1	-1E+10	1
4901784	216	C	06/03/2021	10:44	-136.335	43.071	0	1625.50	0	2.3550	0	38.6400	8	30.869	0	1606.333	0	32.9	4	10.3	4	-1E+10	1	-1E+10	1	-1E+10	1	-1E+10	1	-1E+10	1	-1E+10	1
4901784	216	C	06/03/2021	10:44	-136.335	43.071	0	1629.90	0	2.3490	0	38.6420	8	30.871	0	1610.664	0	33.1	4	10.4	4	-1E+10	1	-1E+10	1	-1E+10	1	-1E+10	1	-1E+10	1	-1E+10	1
4901784	216	C	06/03/2021	10:44	-136.335	43.071	0	1634.40	0	2.3440	0	38.6430	8	30.873	0	1615.094	0	33.3	4	10.4	4	-1E+10	1	-1E+10	1	-1E+10	1	-1E+10	1	-1E+10	1	-1E+10	1
4901784	216	C	06/03/2021	10:44	-136.335	43.071	0	1639.70	0	2.3390	0	38.6450	8	30.875	0	1620.311	0	33.5	4	10.5	4	-1E+10	1	-1E+10	1	-1E+10	1	-1E+10	1	-1E+10	1	-1E+10	1
4901784	216	C	06/03/2021	10:44	-136.335	43.071	0	1645.00	0	2.3340	0	38.6460	8	30.876	0	1625.528	0	33.9	4	10.6	4	-1E+10	1	-1E+10	1	-1E+10	1	-1E+10	1	-1E+10	1	-1E+10	1
4901784	216	C	06/03/2021	10:44	-136.335	43.071	0	1650.30	0	2.3220	0	38.6490	8	30.880	0	1630.745	0	34.3	4	10.8	4	-1E+10	1	-1E+10	1	-1E+10	1	-1E+10	1	-1E+10	1	-1E+10	1
4901784	216	C	06/03/2021	10:44	-136.335	43.071	0	1655.70	0	2.3150	0	38.6500	8	30.881	0	1636.060	0	34.6	4	10.9	4	-1E+10	1	-1E+10	1	-1E+10	1	-1E+10	1	-1E+10	1	-1E+10	1
4901784	216	C	06/03/2021	10:44	-136.335	43.071	0	1660.20	0	2.3090	0	38.6510	8	30.882	0	1640.489	0	34.9	4	10.9	4	-1E+10	1	-1E+10	1	-1E+10	1	-1E+10	1	-1E+10	1	-1E+10	1
4901784	216	C	06/03/2021	10:44	-136.335	43.071	0	1664.70	0	2.3020	0	38.6530	8	30.885	0	1644.919	0	35.1	4	11.0	4	-1E+10	1	-1E+10	1	-1E+10	1	-1E+10	1	-1E+10	1	-1E+10	1
4901784	216	C	06/03/2021	10:44	-136.335	43.071	0	1670.20	0	2.2990	0	38.6540	8	30.886	0	1650.332	0	35.3	4	11.1	4	-1E+10	1	-1E+10	1	-1E+10	1	-1E+10	1	-1E+10	1	-1E+10	1
4901784	216	C	06/03/2021	10:44	-136.335	43.071	0	1675.60	0	2.2940	0	38.6550	8	30.887	0	1655.647	0	35.6	4	11.1	4	-1E+10	1	-1E+10	1	-1E+10	1	-1E+10	1	-1E+10	1	-1E+10	1
4901784	216	C	06/03/2021	10:44	-136.335	43.071	0	1680.20	0	2.2910	0	38.6560	8	30.888	0	1660.174	0	35.8	4	11.2	4	-1E+10	1	-1E+10	1	-1E+10	1	-1E+10	1	-1E+10	1	-1E+10	1
4901784	216	C	06/03/2021	10:44	-136.335	43.071	0	1684.70	0	2.2860	0	38.6570	8	30.890	0	1664.602	0	36.1	4	11.3	4	-1E+10	1	-1E+10	1	-1E+10	1	-1E+10	1	-1E+10	1	-1E+10	1
4901784	216	C	06/03/2021	10:44	-136.335	43.071	0	1690.10	0	2.2760	0	38.6590	8	30.892	0	1669.917	0	36.6	4	11.5	4	-1E+10	1	-1E+10	1	-1E+10	1	-1E+10	1	-1E+10	1	-1E+10	1
4901784	216	C	06/03/2021	10:44	-136.335	43.071	0	1695.60	0	2.2680	0	38.6610	8	30.895	0	1675.329	0	37.0	4	11.6	4	-1E+10	1	-1E+10	1	-1E+10	1	-1E+10	1	-1E+10	1	-1E+10	1
4901784	216	C	06/03/2021	10:44	-136.335	43.071	0	1700.10	0	2.2610	0	38.6620	8	30.896	0	1679.758	0	37.3	4	11.7	4	-1E+10	1	-1E+10	1	-1E+10	1	-1E+10	1	-1E+10	1	-1E+10	1
4901784	216	C	06/03/2021	10:44	-136.335	43.071	0	1704.60	0	2.2530	0	38.6640	8	30.898	0	1684.186	0	37.7	4	11.8	4	-1E+10	1	-1E+10	1	-1E+10	1	-1E+10	1	-1E+10	1	-1E+10	1
4901784	216	C	06/03/2021	10:44	-136.335	43.071	0	1710.00	0	2.2440	0	38.6660	8	30.901	0	1689.500	0	38.2	4	11.9	4	-1E+10	1	-1E+10	1	-1E+10	1	-1E+10	1	-1E+10	1	-1E+10	1
4901784	216	C	06/03/2021	10:44	-136.335	43.071	0	1715.10	0	2.2360	0	38.6680	8	30.903	0	1694.518	0	38.6	4	12.1	4	-1E+10	1	-1E+10	1	-1E+10	1	-1E+10	1	-1E+10	1	-1E+10	1
4901784	216	C	06/03/2021	10:44	-136.335	43.071	0	1719.30	0	2.2270	0	38.6700	8	30.906	0	1698.651	0	38.9	4	12.2	4	-1E+10	1	-1E+10	1	-1E+10	1	-1E+10	1	-1E+10	1	-1E+10	1
4901784	216	C	06/03/2021	10:44	-136.335	43.071	0	1724.90	0	2.2190	0	38.6720	8	30.908	0	1704.162	0	39.3	4	12.3	4	-1E+10	1	-1E+10	1	-1E+10	1	-1E+10	1	-1E+10	1	-1E+10	1
4901784	216	C	06/03/2021	10:44	-136.335	43.071	0	1730.60	0	2.2130	0	38.6740	8	30.910	0	1709.770	0	39.6	4	12.4	4	-1E+10	1	-1E+10	1	-1E+10	1	-1E+10	1	-1E+10	1	-1E+10	1
4901784	216	C	06/03/2021	10:44	-136.335	43.071	0	1735.50	0	2.2070	0	38.6750	8	30.912	0	1714.591	0	40.0	4	12.5	4	-1E+10	1	-1E+10	1	-1E+10	1	-1E+10	1	-1E+10	1	-1E+10	1
4901784	216	C	06/03/2021	10:44	-136.335	43.071	0	1740.40	0	2.1960	0	38.6770	8	30.914	0	1719.412	0	40.4	4	12.6	4	-1E+10	1	-1E+10	1	-1E+10	1	-1E+10	1	-1E+10	1	-1E+10	1
4901784	216	C	06/03/2021	10:44	-136.335	43.071	0	1745.40	0	2.1900	0	38.6790	8	30.916	0	1724.332	0	40.7	4	12.7	4	-1E+10	1	-1E+10	1	-1E+10	1	-1E+10	1	-1E+10	1	-1E+10	1
4901784	216	C	06/03/2021	10:44	-136.335	43.071	0	1750.40	0	2.1870	0	38.6800	8	30.918	0	1729.251	0	40.8	4	12.8	4	-1E+10	1	-1E+10	1	-1E+10	1	-1E+10	1	-1E+10	1	-1E+10	1
4901784	216	C	06/03/2021	10:44	-136.335	43.071	0	1755.30	0	2.1850	0	38.6810	8	30.919	0	1734.072	0	41.2	4	12.9	4	-1E+10	1	-1E+10	1	-1E+10	1	-1E+10	1	-1E+10	1	-1E+10	1
4901784	216	C	06/03/2021	10:44	-136.335	43.071	0	1760.30	0	2.1760	0	38.6830	8	30.921	0	1738.991	0	41.6	4	13.0	4	-1E+10	1	-1E+10	1	-1E+10	1	-1E+10	1	-1E+10	1	-1E+10	1
4901784	216	C	06/03/2021	10:44	-136.335	43.071	0	1765.30	0	2.1690	0	38.6840	8	30.923	0	1743.910	0	41.9	4	13.1	4	-1E+10	1	-1E+10	1	-1E+10	1	-1E+10	1	-1E+10	1	-1E+10	1
4901784	216	C	06/03/2021	10:44	-136.335	43.071	0	1770.40	0	2.1640	0	38.6860	8	30.925	0	1748.927	0	42.3	4	13.2	4	-1E+10	1	-1E+10	1	-1E+10	1	-1E+10	1	-1E+10	1	-1E+10	1
4901784	216	C	06/03/2021	10:44	-136.335	43.071	0	1775.40	0	2.1570	0	38.6870	8	30.926	0	1753.846	0	42.6	4	13.3	4	-1E+10	1	-1E+10	1	-1E+10	1	-1E+10	1	-1E+10	1	-1E+10	1
4901784	216	C	06/03/2021	10:44	-136.335	43.071	0	1780.50	0	2.1530	0	38.6890	8	30.928	0	1758.863	0	42.9	4	13.4	4	-1E+10	1	-1E+10	1	-1E+10	1	-1E+10	1	-1E+10	1	-1E+10	1
4901784	216	C	06/03/2021	10:44	-136.335	43.071	0	1785.60	0	2.1490	0	38.6900	8	30.929	0	1763.880	0	43.1	4	13.5	4	-1E+10	1	-1E+10	1	-1E+10	1	-1E+10	1	-1E+10	1	-1E+10	1
4901784	216	C	06/03/2021	10:44	-136.335	43.071	0	1790.70	0	2.1450	0	38.6910	8	30.931	0	1768.896	0	43.4	4	13.5	4	-1E+10	1	-1E+10	1	-1E+10	1	-1E+10	1	-1E+10	1	-1E+10	1
4901784	216	C	06/03/2021	10:44	-136.335	43.071	0	1794.90	0	2.1400	0	38.6920	8	30.932	0	1773.028	0	43.7	4	13.6	4	-1E+10	1	-1E+10	1	-1E+10	1	-1E+10	1	-1E+10	1	-1E+10	1
4901784	216	C	06/03/2021	10:44	-136.335	43.071	0	1799.20	0	2.1340	0	38.6940	8	30.934	0	1777.257	0	44.0	4	13.7	4	-1E+10	1	-1E+10	1	-1E+10	1	-1E+10	1	-1E+10	1	-1E+10	1
4901784	216	C	06/03/2021	10:44	-136.335	43.071	0	1804.40	0	2.1300	0	38.6950	8	30.935	0	1782.372	0	44.2	4	13.8	4	-1E+10	1	-1E+10	1	-1E+10	1	-1E+10	1	-1E+10	1	-1E+10	1
4901784	216	C	06/03/2021	10:44	-136.335	43.071	0	1809.60	0	2.1260	0	38.6960	8	30.936	0	1787.487	0	44.5	4	13.9	4	-1E+10	1	-1E+10	1	-1E+10	1	-1E+10	1	-1E+10	1	-1E+10	1
4901784	216	C	06/03/2021	10:44	-136.335	43.071	0	1814.90	0	2.1200	0	38.6980	8	30.939	0	1792.700	0	44.8	4	14.0	4	-1E+10	1	-1E+10	1	-1E+10	1	-1E+10	1	-1E+10	1	-1E+10	1
4901784	216	C	06/03/2021	10:44	-136.335	43.071	0	1820.20	0	2.1150	0	38.6990	8	30.940	0	1797.912	0	45.1	4	14.1	4	-1E+10	1	-1E+10	1	-1E+10	1	-1E+10	1	-1E+10	1	-1E+10	1
4901784	216	C	06/03/2021	10:44	-136.335	43.071	0	1825.60	0	2.1100	0	38.7000	8	30.941	0	1803.223	0	45.4	4	14.2	4	-1E+10	1	-1E+10	1	-1E+10	1	-1E+10	1	-1E+10	1	-1E+10	1
4901784	216	C	06/03/2021	10:44	-136.335	43.071	0	1830.10	0	2.1070	0	38.7010	8	30.942	0	1807.649	0	45.7	4	14.3	4	-1E+10	1	-1E+10	1	-1E+10	1	-1E+10	1	-1E+10	1	-1E+10	1
4901784	216	C	06/03/2021	10:44	-136.335	43.071	0	1834.70	0	2.1020	0	38.7020	8	30.944	0	1812.173	0	46.1	4	14.4	4	-1E+10	1	-1E+10	1	-1E+10	1	-1E+10	1	-1E+10	1	-1E+10	1
4901784	216	C	06/03/2021	10:44	-136.335	43.071	0	1840.10	0	2.0960	0	38.7030	8	30.945	0	1817.484	0	46.5	4	14.5	4	-1E+10	1	-1E+10	1	-1E+10	1	-1E+10	1	-1E+10	1	-1E+10	1
4901784	216	C	06/03/2021	10:44	-136.335	43.071	0	1845.50	0	2.0870	0	38.7060	8	30.948	0	1822.794	0	47.0	4	14.6	4	-1E+10	1	-1E+10	1	-1E+10	1	-1E+10	1	-1E+10	1	-1E+10	1
4901784	216	C	06/03/2021	10:44	-136.335	43.071	0	1850.30	0	2.0800	0	38.7080	8	30.950	0	1827.515	0	47.3	4	14.7	4	-1E+10	1	-1E+10	1	-1E+10	1	-1E+10	1	-1E+10	1	-1E+10	1
4901784	216	C	06/03/2021	10:44	-136.335	43.071	0	1855.20	0	2.0770	0	38.7090	8	30.952	0	1832.333	0	47.4	4	14.8	4	-1E+10	1	-1E+10	1	-1E+10	1	-1E+10	1	-1E+10	1	-1E+10	1
4901784	216	C	06/03/2021	10:44	-136.335	43.071	0	1860.10	0	2.0740	0	38.7100	8	30.953	0	1837.151	0	47.6	4	14.9	4	-1E+10	1	-1E+10	1	-1E+10	1	-1E+10	1	-1E+10	1	-1E+10	1
4901784	216	C	06/03/2021	10:44	-136.335	43.071	0	1864.90	0	2.0700	0	38.7110	8	30.954	0	1841.872	0	47.9	4	14.9	4	-1E+10	1	-1E+10	1	-1E+10	1	-1E+10	1	-1E+10	1	-1E+10	1
4901784	216	C	06/03/2021	10:44	-136.335	43.071	0	1869.90	0	2.0670	0	38.7120	8	30.955	0	1846.788	0	48.1	4	15.0	4	-1E+10	1	-1E+10	1	-1E+10	1	-1E+10	1	-1E+10	1	-1E+10	1
4901784	216	C	06/03/2021	10:44	-136.335	43.071	0	1874.80	0	2.0630	0	38.7140	8	30.957	0	1851.606	0	48.5	4	15.1	4	-1E+10	1	-1E+10	1	-1E+10	1	-1E+10	1	-1E+10	1	-1E+10	1
4901784	216	C	06/03/2021	10:44	-136.335	43.071	0	1879.90	0	2.0570	0	38.7150	8	30.958	0	1856.621	0	49.0	4	15.3	4	-1E+10	1	-1E+10	1	-1E+10	1	-1E+10	1	-1E+10	1	-1E+10	1
4901784	216	C	06/03/2021	10:44	-136.335	43.071	0	1884.80	0	2.0500	0	38.7160	8	30.960	0	1861.439	0	49.4	4	15.4	4	-1E+10	1	-1E+10	1	-1E+10	1	-1E+10	1	-1E+10	1	-1E+10	1
4901784	216	C	06/03/2021	10:44	-136.335	43.071	0	1889.90	0	2.0430	0	38.7180	8	30.962	0	1866.453	0	49.8	4	15.5	4	-1E+10	1	-1E+10	1	-1E+10	1	-1E+10	1	-1E+10	1	-1E+10	1
4901784	216	C	06/03/2021	10:44	-136.335	43.071	0	1894.90	0	2.0390	0	38.7190	8	30.963	0	1871.369	0	50.1	4	15.6	4	-1E+10	1	-1E+10	1	-1E+10	1	-1E+10	1	-1E+10	1	-1E+10	1
4901784	216	C	06/03/2021	10:44	-136.335	43.071	0	1900.00	0	2.0340	0	38.7200	8	30.965	0	1876.383	0	50.3	4	15.7	4	-1E+10	1	-1E+10	1	-1E+10	1	-1E+10	1	-1E+10	1	-1E+10	1
4901784	216	C	06/03/2021	10:44	-136.335	43.071	0	1905.00	0	2.0310	0	38.7210	8	30.966	0	1881.299	0	50.6	4	15.8	4	-1E+10	1	-1E+10	1	-1E+10	1	-1E+10	1	-1E+10	1	-1E+10	1
4901784	216	C	06/03/2021	10:44	-136.335	43.071	0	1910.20	0	2.0270	0	38.7220	8	30.967	0	1886.411	0	50.9	4	15.9	4	-1E+10	1	-1E+10	1	-1E+10	1	-1E+10	1	-1E+10	1	-1E+10	1
4901784	216	C	06/03/2021	10:44	-136.335	43.071	0	1915.30	0	2.0220	0	38.7240	8	30.969	0	1891.425	0	51.3	4	16.0	4	-1E+10	1	-1E+10	1	-1E+10	1	-1E+10	1	-1E+10	1	-1E+10	1
4901784	216	C	06/03/2021	10:44	-136.335	43.071	0	1920.50	0	2.0170	0	38.7250	8	30.970	0	1896.537	0	51.7	4	16.1	4	-1E+10	1	-1E+10	1	-1E+10	1	-1E+10	1	-1E+10	1	-1E+10	1
4901784	216	C	06/03/2021	10:44	-136.335	43.071	0	1925.70	0	2.0110	0	38.7270	8	30.972	0	1901.649	0	52.1	4	16.2	4	-1E+10	1	-1E+10	1	-1E+10	1	-1E+10	1	-1E+10	1	-1E+10	1
4901784	216	C	06/03/2021	10:44	-136.335	43.071	0	1930.00	0	2.0050	0	38.7280	8	30.974	0	1905.876	0	52.5	4	16.4	4	-1E+10	1	-1E+10	1	-1E+10	1	-1E+10	1	-1E+10	1	-1E+10	1
4901784	216	C	06/03/2021	10:44	-136.335	43.071	0	1934.40	0	2.0010	0	38.7290	8	30.975	0	1910.202	0	52.8	4	16.4	4	-1E+10	1	-1E+10	1	-1E+10	1	-1E+10	1	-1E+10	1	-1E+10	1
4901784	216	C	06/03/2021	10:44	-136.335	43.071	0	1939.60	0	1.9990	0	38.7300	8	30.976	0	1915.313	0	53.1	4	16.5	4	-1E+10	1	-1E+10	1	-1E+10	1	-1E+10	1	-1E+10	1	-1E+10	1
4901784	216	C	06/03/2021	10:44	-136.335	43.071	0	1944.90	0	1.9920	0	38.7320	8	30.978	0	1920.523	0	53.5	4	16.6	4	-1E+10	1	-1E+10	1	-1E+10	1	-1E+10	1	-1E+10	1	-1E+10	1
4901784	216	C	06/03/2021	10:44	-136.335	43.071	0	1950.20	0	1.9880	0	38.7330	8	30.980	0	1925.732	0	53.6	4	16.7	4	-1E+10	1	-1E+10	1	-1E+10	1	-1E+10	1	-1E+10	1	-1E+10	1
4901784	216	C	06/03/2021	10:44	-136.335	43.071	0	1955.50	0	1.9880	0	38.7340	8	30.980	0	1930.942	0	53.8	4	16.7	4	-1E+10	1	-1E+10	1	-1E+10	1	-1E+10	1	-1E+10	1	-1E+10	1
4901784	216	C	06/03/2021	10:44	-136.335	43.071	0	1959.90	0	1.9860	0	38.7350	8	30.981	0	1935.267	0	54.0	4	16.8	4	-1E+10	1	-1E+10	1	-1E+10	1	-1E+10	1	-1E+10	1	-1E+10	1
4901784	216	C	06/03/2021	10:44	-136.335	43.071	0	1964.50	0	1.9840	0	38.7350	8	30.982	0	1939.788	0	54.3	4	16.9	4	-1E+10	1	-1E+10	1	-1E+10	1	-1E+10	1	-1E+10	1	-1E+10	1
4901784	216	C	06/03/2021	10:44	-136.335	43.071	0	1969.90	0	1.9780	0	38.7360	8	30.983	0	1945.095	0	54.6	4	17.0	4	-1E+10	1	-1E+10	1	-1E+10	1	-1E+10	1	-1E+10	1	-1E+10	1
4901784	216	C	06/03/2021	10:44	-136.335	43.071	0	1975.30	0	1.9750	0	38.7360	8	30.983	0	1950.403	0	54.9	4	17.1	4	-1E+10	1	-1E+10	1	-1E+10	1	-1E+10	1	-1E+10	1	-1E+10	1
4901784	216	C	06/03/2021	10:44	-136.335	43.071	0	1979.90	0	1.9720	0	38.7370	8	30.984	0	1954.924	0	55.1	4	17.1	4	-1E+10	1	-1E+10	1	-1E+10	1	-1E+10	1	-1E+10	1	-1E+10	1
4901784	216	C	06/03/2021	10:44	-136.335	43.071	0	1984.50	0	1.9700	0	38.7380	8	30.985	0	1959.444	0	55.3	4	17.2	4	-1E+10	1	-1E+10	1	-1E+10	1	-1E+10	1	-1E+10	1	-1E+10	1
4901784	216	C	06/03/2021	10:44	-136.335	43.071	0	1989.90	0	1.9670	0	38.7390	8	30.986	0	1964.751	0	55.5	4	17.3	4	-1E+10	1	-1E+10	1	-1E+10	1	-1E+10	1	-1E+10	1	-1E+10	1
4901784	216	C	06/03/2021	10:44	-136.335	43.071	0	1995.30	0	1.9660	0	38.7400	8	30.987	0	1970.058	0	55.7	4	17.3	4	-1E+10	1	-1E+10	1	-1E+10	1	-1E+10	1	-1E+10	1	-1E+10	1
4901784	216	C	06/03/2021	10:44	-136.335	43.071	0	2000.70	0	1.9620	0	38.7400	8	30.988	0	1975.365	0	56.0	4	17.4	4	-1E+10	1	-1E+10	1	-1E+10	1	-1E+10	1	-1E+10	1	-1E+10	1
4901784	216	C	06/03/2021	10:44	-136.335	43.071	0	2005.40	0	1.9580	0	38.7410	8	30.989	0	1979.984	0	56.2	4	17.5	4	-1E+10	1	-1E+10	1	-1E+10	1	-1E+10	1	-1E+10	1	-1E+10	1
4901784	216	C	06/03/2021	10:44	-136.335	43.071	0	2010.20	0	1.9570	0	38.7410	8	30.989	0	1984.700	0	56.5	4	17.6	4	-1E+10	1	-1E+10	1	-1E+10	1	-1E+10	1	-1E+10	1	-1E+10	1
4901784	216	C	06/03/2021	10:44	-136.335	43.071	0	2014.80	0	1.9540	0	38.7420	8	30.990	0	1989.221	0	56.8	4	17.7	4	-1E+10	1	-1E+10	1	-1E+10	1	-1E+10	1	-1E+10	1	-1E+10	1
4901784	216	C	06/03/2021	10:44	-136.335	43.071	0	2020.20	0	1.9470	0	38.7440	8	30.992	0	1994.527	0	57.0	4	17.7	4	-1E+10	1	-1E+10	1	-1E+10	1	-1E+10	1	-1E+10	1	-1E+10	1
4901784	216	C	06/03/2021	10:44	-136.335	43.071	0																										
4901784	217	C	06/13/2021	10:44	-136.362	43.128	0	2.70	0	14.8780	0	36.0970	8	26.846	0	2.679	0	239.5	4	97.2	4	-1E+10	1	-1E+10	1	-1E+10	1	-1E+10	1	-1E+10	1	-1E+10	1
4901784	217	C	06/13/2021	10:44	-136.362	43.128	0	4.30	0	14.8760	0	36.0940	8	26.844	0	4.266	0	239.5	4	97.2	4	-1E+10	1	-1E+10	1	-1E+10	1	-1E+10	1	-1E+10	1	-1E+10	1
4901784	217	C	06/13/2021	10:44	-136.362	43.128	0	5.90	0	14.8260	0	36.1040	8	26.863	0	5.853	0	240.0	4	97.3	4	-1E+10	1	-1E+10	1	-1E+10	1	-1E+10	1	-1E+10	1	-1E+10	1
4901784	217	C	06/13/2021	10:44	-136.362	43.128	0	7.50	0	14.6330	0	36.1200	8	26.918	0	7.440	0	240.7	4	97.2	4	-1E+10	1	-1E+10	1	-1E+10	1	-1E+10	1	-1E+10	1	-1E+10	1
4901784	217	C	06/13/2021	10:44	-136.362	43.128	0	9.30	0	14.5480	0	36.1490	8	26.959	0	9.226	0	241.6	4	97.4	4	-1E+10	1	-1E+10	1	-1E+10	1	-1E+10	1	-1E+10	1	-1E+10	1
4901784	217	C	06/13/2021	10:44	-136.362	43.128	0	11.00	0	14.5410	0	36.1520	8	26.963	0	10.912	0	241.5	4	97.3	4	-1E+10	1	-1E+10	1	-1E+10	1	-1E+10	1	-1E+10	1	-1E+10	1
4901784	217	C	06/13/2021	10:44	-136.362	43.128	0	12.80	0	14.5370	0	36.1540	8	26.965	0	12.698	0	241.3	4	97.3	4	-1E+10	1	-1E+10	1	-1E+10	1	-1E+10	1	-1E+10	1	-1E+10	1
4901784	217	C	06/13/2021	10:44	-136.362	43.128	0	14.70	0	14.5300	0	36.1560	8	26.968	0	14.583	0	241.2	4	97.2	4	-1E+10	1	-1E+10	1	-1E+10	1	-1E+10	1	-1E+10	1	-1E+10	1
4901784	217	C	06/13/2021	10:44	-136.362	43.128	0	16.50	0	14.5230	0	36.1580	8	26.971	0	16.368	0	241.1	4	97.2	4	-1E+10	1	-1E+10	1	-1E+10	1	-1E+10	1	-1E+10	1	-1E+10	1
4901784	217	C	06/13/2021	10:44	-136.362	43.128	0	18.40	0	14.5190	0	36.1590	8	26.973	0	18.253	0	241.0	4	97.1	4	-1E+10	1	-1E+10	1	-1E+10	1	-1E+10	1	-1E+10	1	-1E+10	1
4901784	217	C	06/13/2021	10:44	-136.362	43.128	0	20.20	0	14.5160	0	36.1600	8	26.974	0	20.039	0	241.2	4	97.2	4	-1E+10	1	-1E+10	1	-1E+10	1	-1E+10	1	-1E+10	1	-1E+10	1
4901784	217	C	06/13/2021	10:44	-136.362	43.128	0	22.30	0	14.5120	0	36.1610	8	26.976	0	22.122	0	240.9	4	97.1	4	-1E+10	1	-1E+10	1	-1E+10	1	-1E+10	1	-1E+10	1	-1E+10	1
4901784	217	C	06/13/2021	10:44	-136.362	43.128	0	22.80	0	14.5110	0	36.1610	8	26.976	0	22.618	0	241.1	4	97.2	4	-1E+10	1	-1E+10	1	-1E+10	1	-1E+10	1	-1E+10	1	-1E+10	1
4901784	217	C	06/13/2021	10:44	-136.362	43.128	0	24.50	0	14.5080	0	36.1600	8	26.976	0	24.304	0	241.4	4	97.2	4	-1E+10	1	-1E+10	1	-1E+10	1	-1E+10	1	-1E+10	1	-1E+10	1
4901784	217	C	06/13/2021	10:44	-136.362	43.128	0	26.00	0	14.5060	0	36.1590	8	26.976	0	25.792	0	241.6	4	97.3	4	-1E+10	1	-1E+10	1	-1E+10	1	-1E+10	1	-1E+10	1	-1E+10	1
4901784	217	C	06/13/2021	10:44	-136.362	43.128	0	27.50	0	14.5050	0	36.1540	8	26.972	0	27.280	0	242.4	4	97.7	4	-1E+10	1	-1E+10	1	-1E+10	1	-1E+10	1	-1E+10	1	-1E+10	1
4901784	217	C	06/13/2021	10:44	-136.362	43.128	0	29.00	0	14.5020	0	36.1470	8	26.968	0	28.768	0	243.2	4	97.9	4	-1E+10	1	-1E+10	1	-1E+10	1	-1E+10	1	-1E+10	1	-1E+10	1
4901784	217	C	06/13/2021	10:44	-136.362	43.128	0	30.50	0	14.5020	0	36.1340	8	26.958	0	30.255	0	244.3	4	98.4	4	-1E+10	1	-1E+10	1	-1E+10	1	-1E+10	1	-1E+10	1	-1E+10	1
4901784	217	C	06/13/2021	10:44	-136.362	43.128	0	31.90	0	14.4970	0	36.1110	8	26.941	0	31.644	0	246.3	4	99.2	4	-1E+10	1	-1E+10	1	-1E+10	1	-1E+10	1	-1E+10	1	-1E+10	1
4901784	217	C	06/13/2021	10:44	-136.362	43.128	0	33.40	0	14.4620	0	36.0710	8	26.918	0	33.132	0	248.9	4	100.1	4	-1E+10	1	-1E+10	1	-1E+10	1	-1E+10	1	-1E+10	1	-1E+10	1
4901784	217	C	06/13/2021	10:44	-136.362	43.128	0	35.00	0	13.7440	0	36.1140	8	27.104	0	34.719	0	254.3	4	100.9	4	-1E+10	1	-1E+10	1	-1E+10	1	-1E+10	1	-1E+10	1	-1E+10	1
4901784	217	C	06/13/2021	10:44	-136.362	43.128	0	36.80	0	12.7210	0	36.1940	8	27.376	0	36.504	0	260.4	4	101.2	4	-1E+10	1	-1E+10	1	-1E+10	1	-1E+10	1	-1E+10	1	-1E+10	1
4901784	217	C	06/13/2021	10:44	-136.362	43.128	0	38.50	0	12.2840	0	36.2310	8	27.492	0	38.191	0	264.2	4	101.8	4	-1E+10	1	-1E+10	1	-1E+10	1	-1E+10	1	-1E+10	1	-1E+10	1
4901784	217	C	06/13/2021	10:44	-136.362	43.128	0	40.30	0	12.1650	0	36.2250	8	27.511	0	39.976	0	264.7	4	101.8	4	-1E+10	1	-1E+10	1	-1E+10	1	-1E+10	1	-1E+10	1	-1E+10	1
4901784	217	C	06/13/2021	10:44	-136.362	43.128	0	42.00	0	11.9610	0	36.2350	8	27.558	0	41.662	0	265.2	4	101.5	4	-1E+10	1	-1E+10	1	-1E+10	1	-1E+10	1	-1E+10	1	-1E+10	1
4901784	217	C	06/13/2021	10:44	-136.362	43.128	0	43.70	0	11.7510	0	36.2280	8	27.593	0	43.348	0	265.8	4	101.3	4	-1E+10	1	-1E+10	1	-1E+10	1	-1E+10	1	-1E+10	1	-1E+10	1
4901784	217	C	06/13/2021	10:44	-136.362	43.128	0	45.50	0	11.5790	0	36.2340	8	27.630	0	45.133	0	265.4	4	100.8	4	-1E+10	1	-1E+10	1	-1E+10	1	-1E+10	1	-1E+10	1	-1E+10	1
4901784	217	C	06/13/2021	10:44	-136.362	43.128	0	47.30	0	11.5800	0	36.2380	8	27.633	0	46.919	0	263.3	4	100.0	4	-1E+10	1	-1E+10	1	-1E+10	1	-1E+10	1	-1E+10	1	-1E+10	1
4901784	217	C	06/13/2021	10:44	-136.362	43.128	0	49.10	0	11.4810	0	36.2450	8	27.658	0	48.704	0	261.3	4	99.1	4	-1E+10	1	-1E+10	1	-1E+10	1	-1E+10	1	-1E+10	1	-1E+10	1
4901784	217	C	06/13/2021	10:44	-136.362	43.128	0	50.90	0	11.3830	0	36.2630	8	27.690	0	50.489	0	259.8	4	98.3	4	-1E+10	1	-1E+10	1	-1E+10	1	-1E+10	1	-1E+10	1	-1E+10	1
4901784	217	C	06/13/2021	10:44	-136.362	43.128	0	52.70	0	11.3700	0	36.2590	8	27.690	0	52.275	0	258.5	4	97.8	4	-1E+10	1	-1E+10	1	-1E+10	1	-1E+10	1	-1E+10	1	-1E+10	1
4901784	217	C	06/13/2021	10:44	-136.362	43.128	0	54.40	0	11.3550	0	36.2560	8	27.690	0	53.961	0	257.1	4	97.2	4	-1E+10	1	-1E+10	1	-1E+10	1	-1E+10	1	-1E+10	1	-1E+10	1
4901784	217	C	06/13/2021	10:44	-136.362	43.128	0	56.20	0	11.3400	0	36.2500	8	27.688	0	55.746	0	255.0	4	96.4	4	-1E+10	1	-1E+10	1	-1E+10	1	-1E+10	1	-1E+10	1	-1E+10	1
4901784	217	C	06/13/2021	10:44	-136.362	43.128	0	58.10	0	11.2200	0	36.2490	8	27.710	0	57.630	0	252.9	4	95.4	4	-1E+10	1	-1E+10	1	-1E+10	1	-1E+10	1	-1E+10	1	-1E+10	1
4901784	217	C	06/13/2021	10:44	-136.362	43.128	0	59.90	0	11.1020	0	36.2480	8	27.731	0	59.415	0	252.4	4	94.9	4	-1E+10	1	-1E+10	1	-1E+10	1	-1E+10	1	-1E+10	1	-1E+10	1
4901784	217	C	06/13/2021	10:44	-136.362	43.128	0	61.70	0	11.0210	0	36.2420	8	27.741	0	61.201	0	252.1	4	94.6	4	-1E+10	1	-1E+10	1	-1E+10	1	-1E+10	1	-1E+10	1	-1E+10	1
4901784	217	C	06/13/2021	10:44	-136.362	43.128	0	63.60	0	10.9710	0	36.2520	8	27.758	0	63.085	0	252.0	4	94.5	4	-1E+10	1	-1E+10	1	-1E+10	1	-1E+10	1	-1E+10	1	-1E+10	1
4901784	217	C	06/13/2021	10:44	-136.362	43.128	0	65.40	0	10.9190	0	36.2480	8	27.765	0	64.870	0	252.5	4	94.6	4	-1E+10	1	-1E+10	1	-1E+10	1	-1E+10	1	-1E+10	1	-1E+10	1
4901784	217	C	06/13/2021	10:44	-136.362	43.128	0	67.20	0	10.9620	0	36.2620	8	27.768	0	66.655	0	252.6	4	94.7	4	-1E+10	1	-1E+10	1	-1E+10	1	-1E+10	1	-1E+10	1	-1E+10	1
4901784	217	C	06/13/2021	10:44	-136.362	43.128	0	69.10	0	10.9480	0	36.2580	8	27.767	0	68.539	0	251.5	4	94.3	4	-1E+10	1	-1E+10	1	-1E+10	1	-1E+10	1	-1E+10	1	-1E+10	1
4901784	217	C	06/13/2021	10:44	-136.362	43.128	0	70.90	0	10.8190	0	36.2520	8	27.786	0	70.325	0	251.3	4	94.0	4	-1E+10	1	-1E+10	1	-1E+10	1	-1E+10	1	-1E+10	1	-1E+10	1
4901784	217	C	06/13/2021	10:44	-136.362	43.128	0	72.70	0	10.7640	0	36.2440	8	27.790	0	72.110	0	251.0	4	93.7	4	-1E+10	1	-1E+10	1	-1E+10	1	-1E+10	1	-1E+10	1	-1E+10	1
4901784	217	C	06/13/2021	10:44	-136.362	43.128	0	74.60	0	10.6890	0	36.2460	8	27.805	0	73.994	0	250.9	4	93.6	4	-1E+10	1	-1E+10	1	-1E+10	1	-1E+10	1	-1E+10	1	-1E+10	1
4901784	217	C	06/13/2021	10:44	-136.362	43.128	0	76.40	0	10.6340	0	36.2460	8	27.815	0	75.779	0	251.3	4	93.6	4	-1E+10	1	-1E+10	1	-1E+10	1	-1E+10	1	-1E+10	1	-1E+10	1
4901784	217	C	06/13/2021	10:44	-136.362	43.128	0	78.20	0	10.6010	0	36.2450	8	27.820	0	77.564	0	251.3	4	93.5	4	-1E+10	1	-1E+10	1	-1E+10	1	-1E+10	1	-1E+10	1	-1E+10	1
4901784	217	C	06/13/2021	10:44	-136.362	43.128	0	80.10	0	10.5800	0	36.2430	8	27.823	0	79.448	0	250.7	4	93.3	4	-1E+10	1	-1E+10	1	-1E+10	1	-1E+10	1	-1E+10	1	-1E+10	1
4901784	217	C	06/13/2021	10:44	-136.362	43.128	0	81.90	0	10.5450	0	36.2460	8	27.831	0	81.233	0	250.6	4	93.1	4	-1E+10	1	-1E+10	1	-1E+10	1	-1E+10	1	-1E+10	1	-1E+10	1
4901784	217	C	06/13/2021	10:44	-136.362	43.128	0	83.80	0	10.5530	0	36.2640	8	27.844	0	83.117	0	250.0	4	93.0	4	-1E+10	1	-1E+10	1	-1E+10	1	-1E+10	1	-1E+10	1	-1E+10	1
4901784	217	C	06/13/2021	10:44	-136.362	43.128	0	86.10	0	10.6620	0	36.2890	8	27.844	0	85.398	0	249.0	4	92.8	4	-1E+10	1	-1E+10	1	-1E+10	1	-1E+10	1	-1E+10	1	-1E+10	1
4901784	217	C	06/13/2021	10:44	-136.362	43.128	0	88.00	0	10.5800	0	36.2870	8	27.857	0	87.282	0	249.1	4	92.7	4	-1E+10	1	-1E+10	1	-1E+10	1	-1E+10	1	-1E+10	1	-1E+10	1
4901784	217	C	06/13/2021	10:44	-136.362	43.128	0	89.50	0	10.5600	0	36.2860	8	27.860	0	88.770	0	249.1	4	92.6	4	-1E+10	1	-1E+10	1	-1E+10	1	-1E+10	1	-1E+10	1	-1E+10	1
4901784	217	C	06/13/2021	10:44	-136.362	43.128	0	91.10	0	10.5070	0	36.2880	8	27.871	0	90.356	0	249.2	4	92.6	4	-1E+10	1	-1E+10	1	-1E+10	1	-1E+10	1	-1E+10	1	-1E+10	1
4901784	217	C	06/13/2021	10:44	-136.362	43.128	0	92.60	0	10.4690	0	36.2990	8	27.887	0	91.844	0	249.3	4	92.5	4	-1E+10	1	-1E+10	1	-1E+10	1	-1E+10	1	-1E+10	1	-1E+10	1
4901784	217	C	06/13/2021	10:44	-136.362	43.128	0	94.20	0	10.4590	0	36.3040	8	27.892	0	93.430	0	248.9	4	92.4	4	-1E+10	1	-1E+10	1	-1E+10	1	-1E+10	1	-1E+10	1	-1E+10	1
4901784	217	C	06/13/2021	10:44	-136.362	43.128	0	95.70	0	10.4310	0	36.3010	8	27.895	0	94.918	0	248.8	4	92.3	4	-1E+10	1	-1E+10	1	-1E+10	1	-1E+10	1	-1E+10	1	-1E+10	1
4901784	217	C	06/13/2021	10:44	-136.362	43.128	0	97.30	0	10.3510	0	36.3080	8	27.915	0	96.504	0	248.6	4	92.1	4	-1E+10	1	-1E+10	1	-1E+10	1	-1E+10	1	-1E+10	1	-1E+10	1
4901784	217	C	06/13/2021	10:44	-136.362	43.128	0	98.80	0	10.3060	0	36.3070	8	27.922	0	97.991	0	248.6	4	92.0	4	-1E+10	1	-1E+10	1	-1E+10	1	-1E+10	1	-1E+10	1	-1E+10	1
4901784	217	C	06/13/2021	10:44	-136.362	43.128	0	100.50	0	10.2750	0	36.3060	8	27.927	0	99.677	0	248.4	4	91.8	4	-1E+10	1	-1E+10	1	-1E+10	1	-1E+10	1	-1E+10	1	-1E+10	1
4901784	217	C	06/13/2021	10:44	-136.362	43.128	0	102.80	0	10.2060	0	36.3090	8	27.941	0	101.958	0	247.5	4	91.4	4	-1E+10	1	-1E+10	1	-1E+10	1	-1E+10	1	-1E+10	1	-1E+10	1
4901784	217	C	06/13/2021	10:44	-136.362	43.128	0	105.20	0	10.1820	0	36.3110	8	27.947	0	104.337	0	246.4	4	90.9	4	-1E+10	1	-1E+10	1	-1E+10	1	-1E+10	1	-1E+10	1	-1E+10	1
4901784	217	C	06/13/2021	10:44	-136.362	43.128	0	107.60	0	10.1030	0	36.3150	8	27.964	0	106.717	0	244.8	4	90.2	4	-1E+10	1	-1E+10	1	-1E+10	1	-1E+10	1	-1E+10	1	-1E+10	1
4901784	217	C	06/13/2021	10:44	-136.362	43.128	0	110.00	0	10.0440	0	36.3180	8	27.977	0	109.097	0	242.7	4	89.3	4	-1E+10	1	-1E+10	1	-1E+10	1	-1E+10	1	-1E+10	1	-1E+10	1
4901784	217	C	06/13/2021	10:44	-136.362	43.128	0	112.40	0	10.0560	0	36.3370	8	27.990	0	111.477	0	239.5	4	88.2	4	-1E+10	1	-1E+10	1	-1E+10	1	-1E+10	1	-1E+10	1	-1E+10	1
4901784	217	C	06/13/2021	10:44	-136.362	43.128	0	114.80	0	9.9520	0	36.3640	8	28.029	0	113.856	0	236.4	4	86.8	4	-1E+10	1	-1E+10	1	-1E+10	1	-1E+10	1	-1E+10	1	-1E+10	1
4901784	217	C	06/13/2021	10:44	-136.362	43.128	0	117.40	0	9.9790	0	36.3890	8	28.044	0	116.434	0	232.5	4	85.5	4	-1E+10	1	-1E+10	1	-1E+10	1	-1E+10	1	-1E+10	1	-1E+10	1
4901784	217	C	06/13/2021	10:44	-136.362	43.128	0	120.00	0	10.1760	0	36.4430	8	28.052	0	119.012	0	226.5	4	83.7	4	-1E+10	1	-1E+10	1	-1E+10	1	-1E+10	1	-1E+10	1	-1E+10	1
4901784	217	C	06/13/2021	10:44	-136.362	43.128	0	122.60	0	9.9740	0	36.5230	8	28.149	0	121.590	0	221.9	4	81.7	4	-1E+10	1	-1E+10	1	-1E+10	1	-1E+10	1	-1E+10	1	-1E+10	1
4901784	217	C	06/13/2021	10:44	-136.362	43.128	0	125.30	0	9.7980	0	36.5680	8	28.215	0	124.267	0	218.8	4	80.2	4	-1E+10	1	-1E+10	1	-1E+10	1	-1E+10	1	-1E+10	1	-1E+10	1
4901784	217	C	06/13/2021	10:44	-136.362	43.128	0	127.10	0	9.7320	0	36.6120	8	28.261	0	126.051	0	216.3	4	79.2	4	-1E+10	1	-1E+10	1	-1E+10	1	-1E+10	1	-1E+10	1	-1E+10	1
4901784	217	C	06/13/2021	10:44	-136.362	43.128	0	129.80	0	9.8040	0	36.7060	8	28.322	0	128.728	0	211.7	4	77.7	4	-1E+10	1	-1E+10	1	-1E+10	1	-1E+10	1	-1E+10	1	-1E+10	1
4901784	217	C	06/13/2021	10:44	-136.362	43.128	0	132.40	0	9.6750	0	36.7760	8	28.399	0	131.306	0	208.3	4	76.3	4	-1E+10	1	-1E+10	1	-1E+10	1	-1E+10	1	-1E+10	1	-1E+10	1
4901784	217	C	06/13/2021	10:44	-136.362	43.128	0	134.30	0	9.5870	0	36.8150	8	28.445	0	133.190	0	207.0	4	75.7	4	-1E+10	1	-1E+10	1	-1E+10	1	-1E+10	1	-1E+10	1	-1E+10	1
4901784	217	C	06/13/2021	10:44	-136.362	43.128	0	137.30	0	9.4900	0	36.8440	8	28.484	0	136.164	0	205.3	4	74.9	4	-1E+10	1	-1E+10	1	-1E+10	1	-1E+10	1	-1E+10	1	-1E+10	1
4901784	217	C	06/13/2021	10:44	-136.362	43.128	0	139.80	0	9.3900	0	36.8570	8	28.511	0	138.642	0	203.9	4	74.3	4	-1E+10	1	-1E+10	1	-1E+10	1	-1E+10	1	-1E+10	1	-1E+10	1
4901784	217	C	06/13/2021	10:44	-136.362	43.128	0	142.00	0	9.2810	0	36.8810	8	28.548	0	140.823	0	202.7	4	73.7	4	-1E+10	1	-1E+10	1	-1E+10	1	-1E+10	1	-1E+10	1	-1E+10	1
4901784	217	C	06/13/2021	10:44	-136.362	43.128	0	145.00	0	9.2100	0	36.9260	8	28.596	0	143.797	0	201.0	4	72.9	4	-1E+10	1	-1E+10	1	-1E+10	1	-1E+10	1	-1E+10	1	-1E+10	1
4901784	217	C	06/13/2021	10:44	-136.362	43.128	0	147.90	0	9.1300	0	37.0030	8	28.669	0	146.672	0	199.6	4	72.4	4	-1E+10	1	-1E+10	1	-1E+10	1	-1E+10	1	-1E+10	1	-1E+10	1
4901784	217	C	06/13/2021	10:44	-136.362	43.128	0	150.30	0	9.0770	0	37.0820	8	28.740	0	149.051	0	198.6	4	72.0	4	-1E+10	1	-1E+10	1	-1E+10	1	-1E+10	1	-1E+10	1	-1E+10	1
4901784	217	C	06/13/2021	10:44	-136.362	43.128	0	152.70	0	9.0200	0	37.1160	8	28.776	0	151.431	0	197.8	4	71.6	4	-1E+10	1	-1E+10	1	-1E+10	1	-1E+10	1	-1E+10	1	-1E+10	1
4901784	217	C	06/13/2021	10:44	-136.362	43.128	0	155.30	0	8.9530	0	37.1510	8	28.815	0	154.008	0	197.0	4	71.2	4	-1E+10	1	-1E+10	1	-1E+10	1	-1E+10	1	-1E+10	1	-1E+10	1
4901784	217	C	06/13/2021	10:44	-136.362	43.128	0	157.10	0	8.9290	0	37.1640	8	28.829	0	155.792	0	196.3	4	70.9	4	-1E+10	1	-1E+10	1	-1E+10	1	-1E+10	1	-1E+10	1	-1E+10	1
4901784	217	C	06/13/2021	10:44	-136.362	43.128	0	159.70	0	8.8670	0	37.1840	8	28.855	0	158.370	0	195.2	4	70.5	4	-1E+10	1	-1E+10	1	-1E+10	1	-1E+10	1	-1E+10	1	-1E+10	1
4901784	217	C	06/13/2021	10:44	-136.362	43.128	0	162.30	0	8.7950	0	37.2080	8	28.886	0	160.947	0	194.4	4	70.1	4	-1E+10	1	-1E+10	1	-1E+10	1	-1E+10	1	-1E+10	1	-1E+10	1
4901784	217	C	06/13/2021	10:44	-136.362	43.128	0	164.90	0	8.7230	0	37.2600	8	28.938	0	163.524	0	193.2	4	69.5	4	-1E+10	1	-1E+10	1	-1E+10	1	-1E+10	1	-1E+10	1	-1E+10	1
4901784	217	C	06/13/2021	10:44	-136.362	43.128	0	167.60	0	8.6660	0	37.2800	8	28.963	0	166.201	0	192.6	4	69.3	4	-1E+10	1	-1E+10	1	-1E+10	1	-1E+10	1	-1E+10	1	-1E+10	1
4901784	217	C	06/13/2021	10:44	-136.362	43.128	0	170.20	0	8.6720	0	37.3540	8	29.020	0	168.778	0	191.7	4	69.0	4	-1E+10	1	-1E+10	1	-1E+10	1	-1E+10	1	-1E+10	1	-1E+10	1
4901784	217	C	06/13/2021	10:44	-136.362	43.128	0	172.90	0	8.6420	0	37.3790	8	29.045	0	171.454	0	190.6	4	68.5	4	-1E+10	1	-1E+10	1	-1E+10	1	-1E+10	1	-1E+10	1	-1E+10	1
4901784	217	C	06/13/2021	10:44	-136.362	43.128	0	174.70	0	8.5880	0	37.3900	8	29.062	0	173.239	0	189.8	4	68.2	4	-1E+10	1	-1E+10	1	-1E+10	1	-1E+10	1	-1E+10	1	-1E+10	1
4901784	217	C	06/13/2021	10:44	-136.362	43.128	0	177.40	0	8.5360	0	37.4120	8	29.088	0	175.915	0	188.0	4	67.5	4	-1E+10	1	-1E+10	1	-1E+10	1	-1E+10	1	-1E+10	1	-1E+10	1
4901784	217	C	06/13/2021	10:44	-136.362	43.128	0	180.10	0	8.4630	0	37.4460	8	29.127	0	178.591	0	186.2	4	66.7	4	-1E+10	1	-1E+10	1	-1E+10	1	-1E+10	1	-1E+10	1	-1E+10	1
4901784	217	C	06/13/2021	10:44	-136.362	43.128	0	181.90	0	8.4620	0	37.4660	8	29.142	0	180.375	0	184.5	4	66.2	4	-1E+10	1	-1E+10	1	-1E+10	1	-1E+10	1	-1E+10	1	-1E+10	1
4901784	217	C	06/13/2021	10:44	-136.362	43.128	0	184.70	0	8.4680	0	37.4820	8	29.154	0	183.150	0	182.8	4	65.6	4	-1E+10	1	-1E+10	1	-1E+10	1	-1E+10	1	-1E+10	1	-1E+10	1
4901784	217	C	06/13/2021	10:44	-136.362	43.128	0	188.00	0	8.4780	0	37.5060	8	29.171	0	186.421	0	180.9	4	64.9	4	-1E+10	1	-1E+10	1	-1E+10	1	-1E+10	1	-1E+10	1	-1E+10	1
4901784	217	C	06/13/2021	10:44	-136.362	43.128	0	189.90	0	8.4750	0	37.5260	8	29.188	0	188.304	0	180.6	4	64.8	4	-1E+10	1	-1E+10	1	-1E+10	1	-1E+10	1	-1E+10	1	-1E+10	1
4901784	217	C	06/13/2021	10:44	-136.362	43.128	0	192.30	0	8.4730	0	37.5400	8	29.199	0	190.683	0	181.4	4	65.1	4	-1E+10	1	-1E+10	1	-1E+10	1	-1E+10	1	-1E+10	1	-1E+10	1
4901784	217	C	06/13/2021	10:44	-136.362	43.128	0	195.40	0	8.4590	0	37.5710	8	29.226	0	193.756	0	183.2	4	65.7	4	-1E+10	1	-1E+10	1	-1E+10	1	-1E+10	1	-1E+10	1	-1E+10	1
4901784	217	C	06/13/2021	10:44	-136.362	43.128	0	197.80	0	8.4380	0	37.5840	8	29.239	0	196.134	0	184.1	4	66.0	4	-1E+10	1	-1E+10	1	-1E+10	1	-1E+10	1	-1E+10	1	-1E+10	1
4901784	217	C	06/13/2021	10:44	-136.362	43.128	0	200.10	0	8.3930	0	37.5970	8	29.257	0	198.414	0	184.5	4	66.1	4	-1E+10	1	-1E+10	1	-1E+10	1	-1E+10	1	-1E+10	1	-1E+10	1
4901784	217	C	06/13/2021	10:44	-136.362	43.128	0	202.50	0	8.3350	0	37.6120	8	29.278	0	200.792	0	184.9	4	66.2	4	-1E+10	1	-1E+10	1	-1E+10	1	-1E+10	1	-1E+10	1	-1E+10	1
4901784	217	C	06/13/2021	10:44	-136.362	43.128	0	205.00	0	8.3170	0	37.6240	8	29.290	0	203.270	0	184.9	4	66.1	4	-1E+10	1	-1E+10	1	-1E+10	1	-1E+10	1	-1E+10	1	-1E+10	1
4901784	217	C	06/13/2021	10:44	-136.362	43.128	0	207.40	0	8.3090	0	37.6300	8	29.296	0	205.649	0	184.6	4	66.0	4	-1E+10	1	-1E+10	1	-1E+10	1	-1E+10	1	-1E+10	1	-1E+10	1
4901784	217	C	06/13/2021	10:44	-136.362	43.128	0	209.90	0	8.3070	0	37.6320	8	29.298	0	208.126	0	184.3	4	65.9	4	-1E+10	1	-1E+10	1	-1E+10	1	-1E+10	1	-1E+10	1	-1E+10	1
4901784	217	C	06/13/2021	10:44	-136.362	43.128	0	212.40	0	8.2970	0	37.6320	8	29.300	0	210.604	0	184.1	4	65.8	4	-1E+10	1	-1E+10	1	-1E+10	1	-1E+10	1	-1E+10	1	-1E+10	1
4901784	217	C	06/13/2021	10:44	-136.362	43.128	0	214.80	0	8.2700	0	37.6310	8	29.303	0	212.982	0	184.0	4	65.8	4	-1E+10	1	-1E+10	1	-1E+10	1	-1E+10	1	-1E+10	1	-1E+10	1
4901784	217	C	06/13/2021	10:44	-136.362	43.128	0	217.30	0	8.2120	0	37.6320	8	29.313	0	215.460	0	184.0	4	65.7	4	-1E+10	1	-1E+10	1	-1E+10	1	-1E+10	1	-1E+10	1	-1E+10	1
4901784	217	C	06/13/2021	10:44	-136.362	43.128	0	219.90	0	8.1510	0	37.6380	8	29.328	0	218.037	0	183.8	4	65.5	4	-1E+10	1	-1E+10	1	-1E+10	1	-1E+10	1	-1E+10	1	-1E+10	1
4901784	217	C	06/13/2021	10:44	-136.362	43.128	0	222.40	0	8.0850	0	37.6310	8	29.333	0	220.514	0	183.2	4	65.2	4	-1E+10	1	-1E+10	1	-1E+10	1	-1E+10	1	-1E+10	1	-1E+10	1
4901784	217	C	06/13/2021	10:44	-136.362	43.128	0	225.00	0	8.0090	0	37.6340	8	29.347	0	223.091	0	182.5	4	64.9	4	-1E+10	1	-1E+10	1	-1E+10	1	-1E+10	1	-1E+10	1	-1E+10	1
4901784	217	C	06/13/2021	10:44	-136.362	43.128	0	227.60	0	7.9520	0	37.6370	8	29.358	0	225.667	0	181.9	4	64.6	4	-1E+10	1	-1E+10	1	-1E+10	1	-1E+10	1	-1E+10	1	-1E+10	1
4901784	217	C	06/13/2021	10:44	-136.362	43.128	0	230.10	0	7.9130	0	37.6400	8	29.367	0	228.144	0	181.2	4	64.2	4	-1E+10	1	-1E+10	1	-1E+10	1	-1E+10	1	-1E+10	1	-1E+10	1
4901784	217	C	06/13/2021	10:44	-136.362	43.128	0	232.70	0	7.9000	0	37.6400	8	29.369	0	230.721	0	180.4	4	63.9	4	-1E+10	1	-1E+10	1	-1E+10	1	-1E+10	1	-1E+10	1	-1E+10	1
4901784	217	C	06/13/2021	10:44	-136.362	43.128	0	235.30	0	7.8820	0	37.6470	8	29.377	0	233.297	0	179.0	4	63.5	4	-1E+10	1	-1E+10	1	-1E+10	1	-1E+10	1	-1E+10	1	-1E+10	1
4901784	217	C	06/13/2021	10:44	-136.362	43.128	0	237.90	0	7.8620	0	37.6520	8	29.384	0	235.874	0	177.5	4	62.9	4	-1E+10	1	-1E+10	1	-1E+10	1	-1E+10	1	-1E+10	1	-1E+10	1
4901784	217	C	06/13/2021	10:44	-136.362	43.128	0	239.70	0	7.8400	0	37.6530	8	29.388	0	237.657	0	176.2	4	62.4	4	-1E+10	1	-1E+10	1	-1E+10	1	-1E+10	1	-1E+10	1	-1E+10	1
4901784	217	C	06/13/2021	10:44	-136.362	43.128	0	242.20	0	7.8100	0	37.6570	8	29.396	0	240.135	0	174.3	4	61.7	4	-1E+10	1	-1E+10	1	-1E+10	1	-1E+10	1	-1E+10	1	-1E+10	1
4901784	217	C	06/13/2021	10:44	-136.362	43.128	0	244.90	0	7.7600	0	37.6600	8	29.406	0	242.810	0	172.3	4	60.9	4	-1E+10	1	-1E+10	1	-1E+10	1	-1E+10	1	-1E+10	1	-1E+10	1
4901784	217	C	06/13/2021	10:44	-136.362	43.128	0	247.50	0	7.6950	0	37.6610	8	29.417	0	245.386	0	170.6	4	60.2	4	-1E+10	1	-1E+10	1	-1E+10	1	-1E+10	1	-1E+10	1	-1E+10	1
4901784	217	C	06/13/2021	10:44	-136.362	43.128	0	250.10	0	7.6330	0	37.6700	8	29.434	0	247.963	0	169.4	4	59.7	4	-1E+10	1	-1E+10	1	-1E+10	1	-1E+10	1	-1E+10	1	-1E+10	1
4901784	217	C	06/13/2021	10:44	-136.362	43.128	0	251.90	0	7.6230	0	37.6700	8	29.435	0	249.746	0	169.0	4	59.6	4	-1E+10	1	-1E+10	1	-1E+10	1	-1E+10	1	-1E+10	1	-1E+10	1
4901784	217	C	06/13/2021	10:44	-136.362	43.128	0	254.60	0	7.5870	0	37.6770	8	29.446	0	252.421	0	168.4	4	59.3	4	-1E+10	1	-1E+10	1	-1E+10	1	-1E+10	1	-1E+10	1	-1E+10	1
4901784	217	C	06/13/2021	10:44	-136.362	43.128	0	257.30	0	7.5530	0	37.6800	8	29.454	0	255.097	0	167.7	4	59.0	4	-1E+10	1	-1E+10	1	-1E+10	1	-1E+10	1	-1E+10	1	-1E+10	1
4901784	217	C	06/13/2021	10:44	-136.362	43.128	0	260.00	0	7.5370	0	37.6790	8	29.455	0	257.772	0	166.4	4	58.5	4	-1E+10	1	-1E+10	1	-1E+10	1	-1E+10	1	-1E+10	1	-1E+10	1
4901784	217	C	06/13/2021	10:44	-136.362	43.128	0	262.70	0	7.5080	0	37.6840	8	29.464	0	260.447	0	164.6	4	57.9	4	-1E+10	1	-1E+10	1	-1E+10	1	-1E+10	1	-1E+10	1	-1E+10	1
4901784	217	C	06/13/2021	10:44	-136.362	43.128	0	264.40	0	7.4980	0	37.6850	8	29.466	0	262.131	0	163.4	4	57.4	4	-1E+10	1	-1E+10	1	-1E+10	1	-1E+10	1	-1E+10	1	-1E+10	1
4901784	217	C	06/13/2021	10:44	-136.362	43.128	0	267.20	0	7.4780	0	37.6880	8	29.472	0	264.905	0	161.3	4	56.7	4	-1E+10	1	-1E+10	1	-1E+10	1	-1E+10	1	-1E+10	1	-1E+10	1
4901784	217	C	06/13/2021	10:44	-136.362	43.128	0	269.80	0	7.4470	0	37.6940	8	29.481	0	267.481	0	159.1	4	55.9	4	-1E+10	1	-1E+10	1	-1E+10	1	-1E+10	1	-1E+10	1	-1E+10	1
4901784	217	C	06/13/2021	10:44	-136.362	43.128	0	272.60	0	7.4110	0	37.6980	8	29.490	0	270.256	0	155.6	4	54.6	4	-1E+10	1	-1E+10	1	-1E+10	1	-1E+10	1	-1E+10	1	-1E+10	1
4901784	217	C	06/13/2021	10:44	-136.362	43.128	0	275.40	0	7.3540	0	37.7090	8	29.507	0	273.030	0	152.4	4	53.4	4	-1E+10	1	-1E+10	1	-1E+10	1	-1E+10	1	-1E+10	1	-1E+10	1
4901784	217	C	06/13/2021	10:44	-136.362	43.128	0	277.30	0	7.3520	0	37.7090	8	29.507	0	274.912	0	151.3	4	53.0	4	-1E+10	1	-1E+10	1	-1E+10	1	-1E+10	1	-1E+10	1	-1E+10	1
4901784	217	C	06/13/2021	10:44	-136.362	43.128	0	280.10	0	7.3270	0	37.7100	8	29.512	0	277.686	0	149.4	4	52.3	4	-1E+10	1	-1E+10	1	-1E+10	1	-1E+10	1	-1E+10	1	-1E+10	1
4901784	217	C	06/13/2021	10:44	-136.362	43.128	0	282.80	0	7.2900	0	37.7160	8	29.522	0	280.361	0	147.7	4	51.7	4	-1E+10	1	-1E+10	1	-1E+10	1	-1E+10	1	-1E+10	1	-1E+10	1
4901784	217	C	06/13/2021	10:44	-136.362	43.128	0	284.60	0	7.2780	0	37.7190	8	29.526	0	282.144	0	146.7	4	51.3	4	-1E+10	1	-1E+10	1	-1E+10	1	-1E+10	1	-1E+10	1	-1E+10	1
4901784	217	C	06/13/2021	10:44	-136.362	43.128	0	287.50	0	7.2490	0	37.7230	8	29.534	0	285.017	0	145.3	4	50.8	4	-1E+10	1	-1E+10	1	-1E+10	1	-1E+10	1	-1E+10	1	-1E+10	1
4901784	217	C	06/13/2021	10:44	-136.362	43.128	0	290.30	0	7.2060	0	37.7270	8	29.543	0	287.791	0	144.4	4	50.4	4	-1E+10	1	-1E+10	1	-1E+10	1	-1E+10	1	-1E+10	1	-1E+10	1
4901784	217	C	06/13/2021	10:44	-136.362	43.128	0	292.10	0	7.1900	0	37.7260	8	29.545	0	289.574	0	143.9	4	50.3	4	-1E+10	1	-1E+10	1	-1E+10	1	-1E+10	1	-1E+10	1	-1E+10	1
4901784	217	C	06/13/2021	10:44	-136.362	43.128	0	294.90	0	7.1420	0	37.7290	8	29.554	0	292.348	0	143.1	4	49.9	4	-1E+10	1	-1E+10	1	-1E+10	1	-1E+10	1	-1E+10	1	-1E+10	1
4901784	217	C	06/13/2021	10:44	-136.362	43.128	0	297.70	0	7.0860	0	37.7320	8	29.565	0	295.122	0	142.6	4	49.7	4	-1E+10	1	-1E+10	1	-1E+10	1	-1E+10	1	-1E+10	1	-1E+10	1
4901784	217	C	06/13/2021	10:44	-136.362	43.128	0	299.50	0	7.0640	0	37.7340	8	29.570	0	296.905	0	142.1	4	49.5	4	-1E+10	1	-1E+10	1	-1E+10	1	-1E+10	1	-1E+10	1	-1E+10	1
4901784	217	C	06/13/2021	10:44	-136.362	43.128	0	302.30	0	7.0420	0	37.7360	8	29.574	0	299.679	0	142.1	4	49.5	4	-1E+10	1	-1E+10	1	-1E+10	1	-1E+10	1	-1E+10	1	-1E+10	1
4901784	217	C	06/13/2021	10:44	-136.362	43.128	0	305.10	0	7.0170	0	37.7360	8	29.578	0	302.452	0	142.5	4	49.6	4	-1E+10	1	-1E+10	1	-1E+10	1	-1E+10	1	-1E+10	1	-1E+10	1
4901784	217	C	06/13/2021	10:44	-136.362	43.128	0	307.00	0	7.0010	0	37.7340	8	29.579	0	304.334	0	142.9	4	49.7	4	-1E+10	1	-1E+10	1	-1E+10	1	-1E+10	1	-1E+10	1	-1E+10	1
4901784	217	C	06/13/2021	10:44	-136.362	43.128	0	309.90	0	6.9790	0	37.7270	8	29.577	0	307.207	0	143.2	4	49.8	4	-1E+10	1	-1E+10	1	-1E+10	1	-1E+10	1	-1E+10	1	-1E+10	1
4901784	217	C	06/13/2021	10:44	-136.362	43.128	0	312.70	0	6.8410	0	37.7210	8	29.592	0	309.981	0	142.8	4	49.5	4	-1E+10	1	-1E+10	1	-1E+10	1	-1E+10	1	-1E+10	1	-1E+10	1
4901784	217	C	06/13/2021	10:44	-136.362	43.128	0	314.60	0	6.7940	0	37.7280	8	29.604	0	311.863	0	141.9	4	49.1	4	-1E+10	1	-1E+10	1	-1E+10	1	-1E+10	1	-1E+10	1	-1E+10	1
4901784	217	C	06/13/2021	10:44	-136.362	43.128	0	317.60	0	6.7780	0	37.7330	8	29.610	0	314.834	0	140.8	4	48.7	4	-1E+10	1	-1E+10	1	-1E+10	1	-1E+10	1	-1E+10	1	-1E+10	1
4901784	217	C	06/13/2021	10:44	-136.362	43.128	0	320.40	0	6.7380	0	37.7360	8	29.619	0	317.608	0	140.2	4	48.5	4	-1E+10	1	-1E+10	1	-1E+10	1	-1E+10	1	-1E+10	1	-1E+10	1
4901784	217	C	06/13/2021	10:44	-136.362	43.128	0	322.30	0	6.7190	0	37.7340	8	29.620	0	319.490	0	139.8	4	48.3	4	-1E+10	1	-1E+10	1	-1E+10	1	-1E+10	1	-1E+10	1	-1E+10	1
4901784	217	C	06/13/2021	10:44	-136.362	43.128	0	324.20	0	6.6950	0	37.7380	8	29.626	0	321.372	0	139.2	4	48.1	4	-1E+10	1	-1E+10	1	-1E+10	1	-1E+10	1	-1E+10	1	-1E+10	1
4901784	217	C	06/13/2021	10:44	-136.362	43.128	0	327.30	0	6.6580	0	37.7390	8	29.632	0	324.442	0	138.5	4	47.8	4	-1E+10	1	-1E+10	1	-1E+10	1	-1E+10	1	-1E+10	1	-1E+10	1
4901784	217	C	06/13/2021	10:44	-136.362	43.128	0	330.20	0	6.6240	0	37.7400	8	29.638	0	327.315	0	137.4	4	47.4	4	-1E+10	1	-1E+10	1	-1E+10	1	-1E+10	1	-1E+10	1	-1E+10	1
4901784	217	C	06/13/2021	10:44	-136.362	43.128	0	332.70	0	6.5960	0	37.7410	8	29.643	0	329.791	0	136.3	4	47.0	4	-1E+10	1	-1E+10	1	-1E+10	1	-1E+10	1	-1E+10	1	-1E+10	1
4901784	217	C	06/13/2021	10:44	-136.362	43.128	0	335.10	0	6.5670	0	37.7420	8	29.648	0	332.168	0	135.3	4	46.6	4	-1E+10	1	-1E+10	1	-1E+10	1	-1E+10	1	-1E+10	1	-1E+10	1
4901784	217	C	06/13/2021	10:44	-136.362	43.128	0	337.60	0	6.5250	0	37.7450	8	29.656	0	334.644	0	134.3	4	46.2	4	-1E+10	1	-1E+10	1	-1E+10	1	-1E+10	1	-1E+10	1	-1E+10	1
4901784	217	C	06/13/2021	10:44	-136.362	43.128	0	339.90	0	6.4980	0	37.7460	8	29.661	0	336.922	0	133.1	4	45.8	4	-1E+10	1	-1E+10	1	-1E+10	1	-1E+10	1	-1E+10	1	-1E+10	1
4901784	217	C	06/13/2021	10:44	-136.362	43.128	0	342.40	0	6.4700	0	37.7480	8	29.666	0	339.398	0	131.9	4	45.3	4	-1E+10	1	-1E+10	1	-1E+10	1	-1E+10	1	-1E+10	1	-1E+10	1
4901784	217	C	06/13/2021	10:44	-136.362	43.128	0	344.80	0	6.4460	0	37.7470	8	29.669	0	341.775	0	130.4	4	44.8	4	-1E+10	1	-1E+10	1	-1E+10	1	-1E+10	1	-1E+10	1	-1E+10	1
4901784	217	C	06/13/2021	10:44	-136.362	43.128	0	347.20	0	6.4080	0	37.7500	8	29.676	0	344.152	0	128.9	4	44.2	4	-1E+10	1	-1E+10	1	-1E+10	1	-1E+10	1	-1E+10	1	-1E+10	1
4901784	217	C	06/13/2021	10:44	-136.362	43.128	0	349.70	0	6.3770	0	37.7530	8	29.683	0	346.628	0	127.8	4	43.8	4	-1E+10	1	-1E+10	1	-1E+10	1	-1E+10	1	-1E+10	1	-1E+10	1
4901784	217	C	06/13/2021	10:44	-136.362	43.128	0	352.20	0	6.3580	0	37.7530	8	29.686	0	349.104	0	126.8	4	43.5	4	-1E+10	1	-1E+10	1	-1E+10	1	-1E+10	1	-1E+10	1	-1E+10	1
4901784	217	C	06/13/2021	10:44	-136.362	43.128	0	354.70	0	6.3240	0	37.7540	8	29.691	0	351.580	0	125.7	4	43.1	4	-1E+10	1	-1E+10	1	-1E+10	1	-1E+10	1	-1E+10	1	-1E+10	1
4901784	217	C	06/13/2021	10:44	-136.362	43.128	0	357.20	0	6.2760	0	37.7570	8	29.700	0	354.056	0	124.6	4	42.6	4	-1E+10	1	-1E+10	1	-1E+10	1	-1E+10	1	-1E+10	1	-1E+10	1
4901784	217	C	06/13/2021	10:44	-136.362	43.128	0	359.60	0	6.2550	0	37.7590	8	29.705	0	356.433	0	123.4	4	42.2	4	-1E+10	1	-1E+10	1	-1E+10	1	-1E+10	1	-1E+10	1	-1E+10	1
4901784	217	C	06/13/2021	10:44	-136.362	43.128	0	362.10	0	6.2530	0	37.7580	8	29.704	0	358.908	0	122.2	4	41.8	4	-1E+10	1	-1E+10	1	-1E+10	1	-1E+10	1	-1E+10	1	-1E+10	1
4901784	217	C	06/13/2021	10:44	-136.362	43.128	0	364.60	0	6.2070	0	37.7600	8	29.712	0	361.384	0	120.7	4	41.2	4	-1E+10	1	-1E+10	1	-1E+10	1	-1E+10	1	-1E+10	1	-1E+10	1
4901784	217	C	06/13/2021	10:44	-136.362	43.128	0	367.10	0	6.1670	0	37.7620	8	29.719	0	363.860	0	119.3	4	40.7	4	-1E+10	1	-1E+10	1	-1E+10	1	-1E+10	1	-1E+10	1	-1E+10	1
4901784	217	C	06/13/2021	10:44	-136.362	43.128	0	370.40	0	6.1320	0	37.7620	8	29.724	0	367.128	0	117.3	4	40.0	4	-1E+10	1	-1E+10	1	-1E+10	1	-1E+10	1	-1E+10	1	-1E+10	1
4901784	217	C	06/13/2021	10:44	-136.362	43.128	0	372.80	0	6.1040	0	37.7630	8	29.729	0	369.504	0	115.7	4	39.4	4	-1E+10	1	-1E+10	1	-1E+10	1	-1E+10	1	-1E+10	1	-1E+10	1
4901784	217	C	06/13/2021	10:44	-136.362	43.128	0	375.30	0	6.0640	0	37.7660	8	29.737	0	371.980	0	114.0	4	38.8	4	-1E+10	1	-1E+10	1	-1E+10	1	-1E+10	1	-1E+10	1	-1E+10	1
4901784	217	C	06/13/2021	10:44	-136.362	43.128	0	377.80	0	6.0260	0	37.7710	8	29.746	0	374.456	0	112.6	4	38.3	4	-1E+10	1	-1E+10	1	-1E+10	1	-1E+10	1	-1E+10	1	-1E+10	1
4901784	217	C	06/13/2021	10:44	-136.362	43.128	0	380.20	0	5.9970	0	37.7730	8	29.751	0	376.832	0	111.6	4	37.9	4	-1E+10	1	-1E+10	1	-1E+10	1	-1E+10	1	-1E+10	1	-1E+10	1
4901784	217	C	06/13/2021	10:44	-136.362	43.128	0	382.70	0	5.9760	0	37.7750	8	29.756	0	379.308	0	110.4	4	37.5	4	-1E+10	1	-1E+10	1	-1E+10	1	-1E+10	1	-1E+10	1	-1E+10	1
4901784	217	C	06/13/2021	10:44	-136.362	43.128	0	385.20	0	5.9600	0	37.7760	8	29.759	0	381.783	0	109.3	4	37.1	4	-1E+10	1	-1E+10	1	-1E+10	1	-1E+10	1	-1E+10	1	-1E+10	1
4901784	217	C	06/13/2021	10:44	-136.362	43.128	0	387.70	0	5.9420	0	37.7780	8	29.763	0	384.259	0	108.0	4	36.7	4	-1E+10	1	-1E+10	1	-1E+10	1	-1E+10	1	-1E+10	1	-1E+10	1
4901784	217	C	06/13/2021	10:44	-136.362	43.128	0	390.20	0	5.9230	0	37.7790	8	29.766	0	386.734	0	106.7	4	36.2	4	-1E+10	1	-1E+10	1	-1E+10	1	-1E+10	1	-1E+10	1	-1E+10	1
4901784	217	C	06/13/2021	10:44	-136.362	43.128	0	392.70	0	5.9140	0	37.7800	8	29.768	0	389.210	0	105.2	4	35.7	4	-1E+10	1	-1E+10	1	-1E+10	1	-1E+10	1	-1E+10	1	-1E+10	1
4901784	217	C	06/13/2021	10:44	-136.362	43.128	0	395.20	0	5.8900	0	37.7810	8	29.772	0	391.685	0	103.8	4	35.2	4	-1E+10	1	-1E+10	1	-1E+10	1	-1E+10	1	-1E+10	1	-1E+10	1
4901784	217	C	06/13/2021	10:44	-136.362	43.128	0	397.70	0	5.8260	0	37.7830	8	29.782	0	394.161	0	102.4	4	34.7	4	-1E+10	1	-1E+10	1	-1E+10	1	-1E+10	1	-1E+10	1	-1E+10	1
4901784	217	C	06/13/2021	10:44	-136.362	43.128	0	400.20	0	5.7880	0	37.7890	8	29.792	0	396.636	0	101.5	4	34.3	4	-1E+10	1	-1E+10	1	-1E+10	1	-1E+10	1	-1E+10	1	-1E+10	1
4901784	217	C	06/13/2021	10:44	-136.362	43.128	0	402.70	0	5.7840	0	37.7890	8	29.793	0	399.111	0	100.7	4	34.1	4	-1E+10	1	-1E+10	1	-1E+10	1	-1E+10	1	-1E+10	1	-1E+10	1
4901784	217	C	06/13/2021	10:44	-136.362	43.128	0	405.10	0	5.7550	0	37.7910	8	29.798	0	401.488	0	99.7	4	33.7	4	-1E+10	1	-1E+10	1	-1E+10	1	-1E+10	1	-1E+10	1	-1E+10	1
4901784	217	C	06/13/2021	10:44	-136.362	43.128	0	407.60	0	5.7380	0	37.7920	8	29.801	0	403.963	0	98.7	4	33.3	4	-1E+10	1	-1E+10	1	-1E+10	1	-1E+10	1	-1E+10	1	-1E+10	1
4901784	217	C	06/13/2021	10:44	-136.362	43.128	0	410.10	0	5.7120	0	37.7940	8	29.806	0	406.438	0	97.7	4	33.0	4	-1E+10	1	-1E+10	1	-1E+10	1	-1E+10	1	-1E+10	1	-1E+10	1
4901784	217	C	06/13/2021	10:44	-136.362	43.128	0	412.50	0	5.6840	0	37.7960	8	29.811	0	408.814	0	97.0	4	32.7	4	-1E+10	1	-1E+10	1	-1E+10	1	-1E+10	1	-1E+10	1	-1E+10	1
4901784	217	C	06/13/2021	10:44	-136.362	43.128	0	415.00	0	5.6510	0	37.7980	8	29.817	0	411.290	0	96.1	4	32.4	4	-1E+10	1	-1E+10	1	-1E+10	1	-1E+10	1	-1E+10	1	-1E+10	1
4901784	217	C	06/13/2021	10:44	-136.362	43.128	0	417.50	0	5.6410	0	37.7980	8	29.819	0	413.765	0	95.2	4	32.1	4	-1E+10	1	-1E+10	1	-1E+10	1	-1E+10	1	-1E+10	1	-1E+10	1
4901784	217	C	06/13/2021	10:44	-136.362	43.128	0	420.00	0	5.5870	0	37.8020	8	29.829	0	416.240	0	94.6	4	31.8	4	-1E+10	1	-1E+10	1	-1E+10	1	-1E+10	1	-1E+10	1	-1E+10	1
4901784	217	C	06/13/2021	10:44	-136.362	43.128	0	422.60	0	5.5610	0	37.8040	8	29.834	0	418.814	0	93.8	4	31.6	4	-1E+10	1	-1E+10	1	-1E+10	1	-1E+10	1	-1E+10	1	-1E+10	1
4901784	217	C	06/13/2021	10:44	-136.362	43.128	0	425.20	0	5.5490	0	37.8050	8	29.836	0	421.388	0	92.6	4	31.2	4	-1E+10	1	-1E+10	1	-1E+10	1	-1E+10	1	-1E+10	1	-1E+10	1
4901784	217	C	06/13/2021	10:44	-136.362	43.128	0	427.70	0	5.5410	0	37.8060	8	29.838	0	423.863	0	91.0	4	30.6	4	-1E+10	1	-1E+10	1	-1E+10	1	-1E+10	1	-1E+10	1	-1E+10	1
4901784	217	C	06/13/2021	10:44	-136.362	43.128	0	430.20	0	5.5310	0	37.8100	8	29.843	0	426.338	0	89.4	4	30.1	4	-1E+10	1	-1E+10	1	-1E+10	1	-1E+10	1	-1E+10	1	-1E+10	1
4901784	217	C	06/13/2021	10:44	-136.362	43.128	0	432.70	0	5.5120	0	37.8120	8	29.847	0	428.813	0	89.5	4	30.1	4	-1E+10	1	-1E+10	1	-1E+10	1	-1E+10	1	-1E+10	1	-1E+10	1
4901784	217	C	06/13/2021	10:44	-136.362	43.128	0	435.20	0	5.4730	0	37.8120	8	29.852	0	431.288	0	89.0	4	29.9	4	-1E+10	1	-1E+10	1	-1E+10	1	-1E+10	1	-1E+10	1	-1E+10	1
4901784	217	C	06/13/2021	10:44	-136.362	43.128	0	437.70	0	5.4390	0	37.8150	8	29.859	0	433.763	0	87.8	4	29.5	4	-1E+10	1	-1E+10	1	-1E+10	1	-1E+10	1	-1E+10	1	-1E+10	1
4901784	217	C	06/13/2021	10:44	-136.362	43.128	0	440.30	0	5.4350	0	37.8170	8	29.861	0	436.337	0	86.5	4	29.0	4	-1E+10	1	-1E+10	1	-1E+10	1	-1E+10	1	-1E+10	1	-1E+10	1
4901784	217	C	06/13/2021	10:44	-136.362	43.128	0	442.80	0	5.4190	0	37.8200	8	29.865	0	438.812	0	84.9	4	28.5	4	-1E+10	1	-1E+10	1	-1E+10	1	-1E+10	1	-1E+10	1	-1E+10	1
4901784	217	C	06/13/2021	10:44	-136.362	43.128	0	445.40	0	5.4090	0	37.8230	8	29.869	0	441.385	0	83.2	4	27.9	4	-1E+10	1	-1E+10	1	-1E+10	1	-1E+10	1	-1E+10	1	-1E+10	1
4901784	217	C	06/13/2021	10:44	-136.362	43.128	0	447.90	0	5.4000	0	37.8260	8	29.872	0	443.860	0	81.5	4	27.3	4	-1E+10	1	-1E+10	1	-1E+10	1	-1E+10	1	-1E+10	1	-1E+10	1
4901784	217	C	06/13/2021	10:44	-136.362	43.128	0	449.60	0	5.3900	0	37.8280	8	29.875	0	445.543	0	80.6	4	27.0	4	-1E+10	1	-1E+10	1	-1E+10	1	-1E+10	1	-1E+10	1	-1E+10	1
4901784	217	C	06/13/2021	10:44	-136.362	43.128	0	452.10	0	5.3600	0	37.8320	8	29.882	0	448.018	0	79.7	4	26.7	4	-1E+10	1	-1E+10	1	-1E+10	1	-1E+10	1	-1E+10	1	-1E+10	1
4901784	217	C	06/13/2021	10:44	-136.362	43.128	0	454.70	0	5.3460	0	37.8300	8	29.882	0	450.592	0	78.9	4	26.4	4	-1E+10	1	-1E+10	1	-1E+10	1	-1E+10	1	-1E+10	1	-1E+10	1
4901784	217	C	06/13/2021	10:44	-136.362	43.128	0	457.20	0	5.2870	0	37.8360	8	29.895	0	453.066	0	78.0	4	26.1	4	-1E+10	1	-1E+10	1	-1E+10	1	-1E+10	1	-1E+10	1	-1E+10	1
4901784	217	C	06/13/2021	10:44	-136.362	43.128	0	459.90	0	5.2460	0	37.8390	8	29.902	0	455.739	0	77.2	4	25.8	4	-1E+10	1	-1E+10	1	-1E+10	1	-1E+10	1	-1E+10	1	-1E+10	1
4901784	217	C	06/13/2021	10:44	-136.362	43.128	0	462.50	0	5.2250	0	37.8370	8	29.903	0	458.313	0	76.2	4	25.4	4	-1E+10	1	-1E+10	1	-1E+10	1	-1E+10	1	-1E+10	1	-1E+10	1
4901784	217	C	06/13/2021	10:44	-136.362	43.128	0	465.10	0	5.1810	0	37.8430	8	29.914	0	460.886	0	75.1	4	25.1	4	-1E+10	1	-1E+10	1	-1E+10	1	-1E+10	1	-1E+10	1	-1E+10	1
4901784	217	C	06/13/2021	10:44	-136.362	43.128	0	467.80	0	5.1420	0	37.8440	8	29.919	0	463.559	0	74.0	4	24.7	4	-1E+10	1	-1E+10	1	-1E+10	1	-1E+10	1	-1E+10	1	-1E+10	1
4901784	217	C	06/13/2021	10:44	-136.362	43.128	0	470.40	0	5.0910	0	37.8490	8	29.930	0	466.132	0	72.7	4	24.2	4	-1E+10	1	-1E+10	1	-1E+10	1	-1E+10	1	-1E+10	1	-1E+10	1
4901784	217	C	06/13/2021	10:44	-136.362	43.128	0	472.20	0	5.0700	0	37.8510	8	29.934	0	467.914	0	71.6	4	23.8	4	-1E+10	1	-1E+10	1	-1E+10	1	-1E+10	1	-1E+10	1	-1E+10	1
4901784	217	C	06/13/2021	10:44	-136.362	43.128	0	474.90	0	5.0560	0	37.8590	8	29.942	0	470.586	0	69.3	4	23.1	4	-1E+10	1	-1E+10	1	-1E+10	1	-1E+10	1	-1E+10	1	-1E+10	1
4901784	217	C	06/13/2021	10:44	-136.362	43.128	0	477.50	0	5.0770	0	37.8660	8	29.945	0	473.160	0	67.4	4	22.5	4	-1E+10	1	-1E+10	1	-1E+10	1	-1E+10	1	-1E+10	1	-1E+10	1
4901784	217	C	06/13/2021	10:44	-136.362	43.128	0	480.20	0	5.0820	0	37.8680	8	29.946	0	475.832	0	66.8	4	22.2	4	-1E+10	1	-1E+10	1	-1E+10	1	-1E+10	1	-1E+10	1	-1E+10	1
4901784	217	C	06/13/2021	10:44	-136.362	43.128	0	482.90	0	5.0740	0	37.8700	8	29.949	0	478.504	0	66.6	4	22.2	4	-1E+10	1	-1E+10	1	-1E+10	1	-1E+10	1	-1E+10	1	-1E+10	1
4901784	217	C	06/13/2021	10:44	-136.362	43.128	0	484.70	0	5.0560	0	37.8680	8	29.949	0	480.286	0	66.8	4	22.2	4	-1E+10	1	-1E+10	1	-1E+10	1	-1E+10	1	-1E+10	1	-1E+10	1
4901784	217	C	06/13/2021	10:44	-136.362	43.128	0	487.50	0	4.9990	0	37.8690	8	29.957	0	483.057	0	66.6	4	22.1	4	-1E+10	1	-1E+10	1	-1E+10	1	-1E+10	1	-1E+10	1	-1E+10	1
4901784	217	C	06/13/2021	10:44	-136.362	43.128	0	490.30	0	4.9950	0	37.8690	8	29.958	0	485.828	0	65.0	4	21.6	4	-1E+10	1	-1E+10	1	-1E+10	1	-1E+10	1	-1E+10	1	-1E+10	1
4901784	217	C	06/13/2021	10:44	-136.362	43.128	0	492.10	0	4.9930	0	37.8770	8	29.964	0	487.610	0	64.5	4	21.4	4	-1E+10	1	-1E+10	1	-1E+10	1	-1E+10	1	-1E+10	1	-1E+10	1
4901784	217	C	06/13/2021	10:44	-136.362	43.128	0	494.80	0	4.9590	0	37.8790	8	29.970	0	490.282	0	63.6	4	21.1	4	-1E+10	1	-1E+10	1	-1E+10	1	-1E+10	1	-1E+10	1	-1E+10	1
4901784	217	C	06/13/2021	10:44	-136.362	43.128	0	497.50	0	4.9530	0	37.8810	8	29.973	0	492.954	0	61.8	4	20.5	4	-1E+10	1	-1E+10	1	-1E+10	1	-1E+10	1	-1E+10	1	-1E+10	1
4901784	217	C	06/13/2021	10:44	-136.362	43.128	0	500.30	0	4.9720	0	37.8870	8	29.975	0	495.725	0	59.8	4	19.9	4	-1E+10	1	-1E+10	1	-1E+10	1	-1E+10	1	-1E+10	1	-1E+10	1
4901784	217	C	06/13/2021	10:44	-136.362	43.128	0	504.90	0	4.9440	0	37.8940	8	29.984	0	500.278	0	57.7	4	19.1	4	-1E+10	1	-1E+10	1	-1E+10	1	-1E+10	1	-1E+10	1	-1E+10	1
4901784	217	C	06/13/2021	10:44	-136.362	43.128	0	510.20	0	4.9230	0	37.9010	8	29.992	0	505.523	0	55.9	4	18.5	4	-1E+10	1	-1E+10	1	-1E+10	1	-1E+10	1	-1E+10	1	-1E+10	1
4901784	217	C	06/13/2021	10:44	-136.362	43.128	0	514.50	0	4.8860	0	37.9080	8	30.002	0	509.778	0	54.7	4	18.1	4	-1E+10	1	-1E+10	1	-1E+10	1	-1E+10	1	-1E+10	1	-1E+10	1
4901784	217	C	06/13/2021	10:44	-136.362	43.128	0	520.00	0	4.8550	0	37.9150	8	30.012	0	515.221	0	53.3	4	17.7	4	-1E+10	1	-1E+10	1	-1E+10	1	-1E+10	1	-1E+10	1	-1E+10	1
4901784	217	C	06/13/2021	10:44	-136.362	43.128	0	525.70	0	4.8420	0	37.9240	8	30.021	0	520.861	0	51.9	4	17.2	4	-1E+10	1	-1E+10	1	-1E+10	1	-1E+10	1	-1E+10	1	-1E+10	1
4901784	217	C	06/13/2021	10:44	-136.362	43.128	0	530.50	0	4.8340	0	37.9280	8	30.025	0	525.611	0	51.0	4	16.9	4	-1E+10	1	-1E+10	1	-1E+10	1	-1E+10	1	-1E+10	1	-1E+10	1
4901784	217	C	06/13/2021	10:44	-136.362	43.128	0	535.40	0	4.8220	0	37.9320	8	30.029	0	530.459	0	50.1	4	16.6	4	-1E+10	1	-1E+10	1	-1E+10	1	-1E+10	1	-1E+10	1	-1E+10	1
4901784	217	C	06/13/2021	10:44	-136.362	43.128	0	540.20	0	4.8010	0	37.9350	8	30.034	0	535.209	0	49.0	4	16.2	4	-1E+10	1	-1E+10	1	-1E+10	1	-1E+10	1	-1E+10	1	-1E+10	1
4901784	217	C	06/13/2021	10:44	-136.362	43.128	0	545.20	0	4.7660	0	37.9390	8	30.042	0	540.156	0	47.8	4	15.8	4	-1E+10	1	-1E+10	1	-1E+10	1	-1E+10	1	-1E+10	1	-1E+10	1
4901784	217	C	06/13/2021	10:44	-136.362	43.128	0	550.20	0	4.7340	0	37.9470	8	30.052	0	545.104	0	46.4	4	15.3	4	-1E+10	1	-1E+10	1	-1E+10	1	-1E+10	1	-1E+10	1	-1E+10	1
4901784	217	C	06/13/2021	10:44	-136.362	43.128	0	555.30	0	4.7180	0	37.9500	8	30.057	0	550.149	0	45.5	4	15.0	4	-1E+10	1	-1E+10	1	-1E+10	1	-1E+10	1	-1E+10	1	-1E+10	1
4901784	217	C	06/13/2021	10:44	-136.362	43.128	0	560.50	0	4.6860	0	37.9540	8	30.064	0	555.294	0	44.7	4	14.8	4	-1E+10	1	-1E+10	1	-1E+10	1	-1E+10	1	-1E+10	1	-1E+10	1
4901784	217	C	06/13/2021	10:44	-136.362	43.128	0	564.90	0	4.6180	0	37.9580	8	30.075	0	559.648	0	44.5	4	14.7	4	-1E+10	1	-1E+10	1	-1E+10	1	-1E+10	1	-1E+10	1	-1E+10	1
4901784	217	C	06/13/2021	10:44	-136.362	43.128	0	569.30	0	4.5880	0	37.9580	8	30.079	0	564.001	0	43.4	4	14.3	4	-1E+10	1	-1E+10	1	-1E+10	1	-1E+10	1	-1E+10	1	-1E+10	1
4901784	217	C	06/13/2021	10:44	-136.362	43.128	0	574.60	0	4.5500	0	37.9650	8	30.089	0	569.244	0	41.9	4	13.8	4	-1E+10	1	-1E+10	1	-1E+10	1	-1E+10	1	-1E+10	1	-1E+10	1
4901784	217	C	06/13/2021	10:44	-136.362	43.128	0	580.10	0	4.5270	0	37.9750	8	30.099	0	574.685	0	40.6	4	13.3	4	-1E+10	1	-1E+10	1	-1E+10	1	-1E+10	1	-1E+10	1	-1E+10	1
4901784	217	C	06/13/2021	10:44	-136.362	43.128	0	585.40	0	4.4840	0	37.9870	8	30.114	0	579.928	0	38.4	4	12.6	4	-1E+10	1	-1E+10	1	-1E+10	1	-1E+10	1	-1E+10	1	-1E+10	1
4901784	217	C	06/13/2021	10:44	-136.362	43.128	0	589.90	0	4.4990	0	38.0000	8	30.123	0	584.380	0	36.1	4	11.9	4	-1E+10	1	-1E+10	1	-1E+10	1	-1E+10	1	-1E+10	1	-1E+10	1
4901784	217	C	06/13/2021	10:44	-136.362	43.128	0	594.40	0	4.5300	0	38.0090	8	30.126	0	588.832	0	34.2	4	11.3	4	-1E+10	1	-1E+10	1	-1E+10	1	-1E+10	1	-1E+10	1	-1E+10	1
4901784	217	C	06/13/2021	10:44	-136.362	43.128	0	599.80	0	4.5620	0	38.0170	8	30.129	0	594.173	0	32.9	4	10.8	4	-1E+10	1	-1E+10	1	-1E+10	1	-1E+10	1	-1E+10	1	-1E+10	1
4901784	217	C	06/13/2021	10:44	-136.362	43.128	0	605.20	0	4.5340	0	38.0210	8	30.135	0	599.515	0	32.4	4	10.7	4	-1E+10	1	-1E+10	1	-1E+10	1	-1E+10	1	-1E+10	1	-1E+10	1
4901784	217	C	06/13/2021	10:44	-136.362	43.128	0	610.60	0	4.4820	0	38.0230	8	30.143	0	604.856	0	32.0	4	10.5	4	-1E+10	1	-1E+10	1	-1E+10	1	-1E+10	1	-1E+10	1	-1E+10	1
4901784	217	C	06/13/2021	10:44	-136.362	43.128	0	615.20	0	4.4420	0	38.0280	8	30.152	0	609.406	0	30.5	4	10.0	4	-1E+10	1	-1E+10	1	-1E+10	1	-1E+10	1	-1E+10	1	-1E+10	1
4901784	217	C	06/13/2021	10:44	-136.362	43.128	0	619.70	0	4.4520	0	38.0380	8	30.159	0	613.857	0	29.2	4	9.6	4	-1E+10	1	-1E+10	1	-1E+10	1	-1E+10	1	-1E+10	1	-1E+10	1
4901784	217	C	06/13/2021	10:44	-136.362	43.128	0	625.10	0	4.3880	0	38.0410	8	30.169	0	619.198	0	28.3	4	9.3	4	-1E+10	1	-1E+10	1	-1E+10	1	-1E+10	1	-1E+10	1	-1E+10	1
4901784	217	C	06/13/2021	10:44	-136.362	43.128	0	630.60	0	4.3800	0	38.0470	8	30.174	0	624.638	0	27.2	4	8.9	4	-1E+10	1	-1E+10	1	-1E+10	1	-1E+10	1	-1E+10	1	-1E+10	1
4901784	217	C	06/13/2021	10:44	-136.362	43.128	0	635.20	0	4.3660	0	38.0540	8	30.182	0	629.188	0	26.2	4	8.6	4	-1E+10	1	-1E+10	1	-1E+10	1	-1E+10	1	-1E+10	1	-1E+10	1
4901784	217	C	06/13/2021	10:44	-136.362	43.128	0	639.80	0	4.3490	0	38.0620	8	30.190	0	633.737	0	25.3	4	8.3	4	-1E+10	1	-1E+10	1	-1E+10	1	-1E+10	1	-1E+10	1	-1E+10	1
4901784	217	C	06/13/2021	10:44	-136.362	43.128	0	645.20	0	4.3450	0	38.0700	8	30.197	0	639.078	0	24.1	4	7.9	4	-1E+10	1	-1E+10	1	-1E+10	1	-1E+10	1	-1E+10	1	-1E+10	1
4901784	217	C	06/13/2021	10:44	-136.362	43.128	0	649.80	0	4.3550	0	38.0760	8	30.201	0	643.627	0	23.3	4	7.6	4	-1E+10	1	-1E+10	1	-1E+10	1	-1E+10	1	-1E+10	1	-1E+10	1
4901784	217	C	06/13/2021	10:44	-136.362	43.128	0	654.40	0	4.3210	0	38.0820	8	30.209	0	648.176	0	22.7	4	7.4	4	-1E+10	1	-1E+10	1	-1E+10	1	-1E+10	1	-1E+10	1	-1E+10	1
4901784	217	C	06/13/2021	10:44	-136.362	43.128	0	659.80	0	4.3100	0	38.0880	8	30.216	0	653.516	0	21.9	4	7.2	4	-1E+10	1	-1E+10	1	-1E+10	1	-1E+10	1	-1E+10	1	-1E+10	1
4901784	217	C	06/13/2021	10:44	-136.362	43.128	0	665.30	0	4.2910	0	38.0950	8	30.223	0	658.955	0	21.1	4	6.9	4	-1E+10	1	-1E+10	1	-1E+10	1	-1E+10	1	-1E+10	1	-1E+10	1
4901784	217	C	06/13/2021	10:44	-136.362	43.128	0	669.90	0	4.2690	0	38.1040	8	30.233	0	663.504	0	20.5	4	6.7	4	-1E+10	1	-1E+10	1	-1E+10	1	-1E+10	1	-1E+10	1	-1E+10	1
4901784	217	C	06/13/2021	10:44	-136.362	43.128	0	674.60	0	4.2610	0	38.1070	8	30.236	0	668.152	0	20.1	4	6.6	4	-1E+10	1	-1E+10	1	-1E+10	1	-1E+10	1	-1E+10	1	-1E+10	1
4901784	217	C	06/13/2021	10:44	-136.362	43.128	0	680.10	0	4.2420	0	38.1130	8	30.243	0	673.590	0	19.5	4	6.4	4	-1E+10	1	-1E+10	1	-1E+10	1	-1E+10	1	-1E+10	1	-1E+10	1
4901784	217	C	06/13/2021	10:44	-136.362	43.128	0	684.80	0	4.2300	0	38.1190	8	30.250	0	678.238	0	18.8	4	6.1	4	-1E+10	1	-1E+10	1	-1E+10	1	-1E+10	1	-1E+10	1	-1E+10	1
4901784	217	C	06/13/2021	10:44	-136.362	43.128	0	689.40	0	4.2340	0	38.1250	8	30.254	0	682.786	0	18.2	4	5.9	4	-1E+10	1	-1E+10	1	-1E+10	1	-1E+10	1	-1E+10	1	-1E+10	1
4901784	217	C	06/13/2021	10:44	-136.362	43.128	0	695.00	0	4.2130	0	38.1330	8	30.263	0	688.323	0	17.5	4	5.7	4	-1E+10	1	-1E+10	1	-1E+10	1	-1E+10	1	-1E+10	1	-1E+10	1
4901784	217	C	06/13/2021	10:44	-136.362	43.128	0	699.60	0	4.2040	0	38.1380	8	30.268	0	692.871	0	17.1	4	5.6	4	-1E+10	1	-1E+10	1	-1E+10	1	-1E+10	1	-1E+10	1	-1E+10	1
4901784	217	C	06/13/2021	10:44	-136.362	43.128	0	704.20	0	4.1930	0	38.1440	8	30.274	0	697.419	0	16.6	4	5.4	4	-1E+10	1	-1E+10	1	-1E+10	1	-1E+10	1	-1E+10	1	-1E+10	1
4901784	217	C	06/13/2021	10:44	-136.362	43.128	0	709.50	0	4.1770	0	38.1530	8	30.283	0	702.659	0	15.9	4	5.2	4	-1E+10	1	-1E+10	1	-1E+10	1	-1E+10	1	-1E+10	1	-1E+10	1
4901784	217	C	06/13/2021	10:44	-136.362	43.128	0	714.30	0	4.1690	0	38.1610	8	30.290	0	707.405	0	15.4	4	5.0	4	-1E+10	1	-1E+10	1	-1E+10	1	-1E+10	1	-1E+10	1	-1E+10	1
4901784	217	C	06/13/2021	10:44	-136.362	43.128	0	720.00	0	4.1560	0	38.1670	8	30.297	0	713.040	0	14.9	4	4.9	4	-1E+10	1	-1E+10	1	-1E+10	1	-1E+10	1	-1E+10	1	-1E+10	1
4901784	217	C	06/13/2021	10:44	-136.362	43.128	0	725.60	0	4.1510	0	38.1750	8	30.304	0	718.576	0	14.4	4	4.7	4	-1E+10	1	-1E+10	1	-1E+10	1	-1E+10	1	-1E+10	1	-1E+10	1
4901784	217	C	06/13/2021	10:44	-136.362	43.128	0	730.50	0	4.1350	0	38.1800	8	30.310	0	723.420	0	14.0	4	4.6	4	-1E+10	1	-1E+10	1	-1E+10	1	-1E+10	1	-1E+10	1	-1E+10	1
4901784	217	C	06/13/2021	10:44	-136.362	43.128	0	735.30	0	4.1150	0	38.1890	8	30.319	0	728.165	0	13.7	4	4.5	4	-1E+10	1	-1E+10	1	-1E+10	1	-1E+10	1	-1E+10	1	-1E+10	1
4901784	217	C	06/13/2021	10:44	-136.362	43.128	0	740.30	0	4.0900	0	38.1940	8	30.326	0	733.108	0	13.4	4	4.4	4	-1E+10	1	-1E+10	1	-1E+10	1	-1E+10	1	-1E+10	1	-1E+10	1
4901784	217	C	06/13/2021	10:44	-136.362	43.128	0	745.30	0	4.0850	0	38.2030	8	30.334	0	738.051	0	13.0	4	4.2	4	-1E+10	1	-1E+10	1	-1E+10	1	-1E+10	1	-1E+10	1	-1E+10	1
4901784	217	C	06/13/2021	10:44	-136.362	43.128	0	750.40	0	4.0800	0	38.2080	8	30.338	0	743.092	0	12.7	4	4.2	4	-1E+10	1	-1E+10	1	-1E+10	1	-1E+10	1	-1E+10	1	-1E+10	1
4901784	217	C	06/13/2021	10:44	-136.362	43.128	0	755.40	0	4.0670	0	38.2140	8	30.345	0	748.034	0	12.5	4	4.1	4	-1E+10	1	-1E+10	1	-1E+10	1	-1E+10	1	-1E+10	1	-1E+10	1
4901784	217	C	06/13/2021	10:44	-136.362	43.128	0	760.50	0	4.0590	0	38.2170	8	30.348	0	753.075	0	12.4	4	4.0	4	-1E+10	1	-1E+10	1	-1E+10	1	-1E+10	1	-1E+10	1	-1E+10	1
4901784	217	C	06/13/2021	10:44	-136.362	43.128	0	765.60	0	4.0470	0	38.2200	8	30.352	0	758.116	0	12.2	4	4.0	4	-1E+10	1	-1E+10	1	-1E+10	1	-1E+10	1	-1E+10	1	-1E+10	1
4901784	217	C	06/13/2021	10:44	-136.362	43.128	0	770.00	0	4.0370	0	38.2240	8	30.356	0	762.465	0	12.0	4	3.9	4	-1E+10	1	-1E+10	1	-1E+10	1	-1E+10	1	-1E+10	1	-1E+10	1
4901784	217	C	06/13/2021	10:44	-136.362	43.128	0	774.30	0	4.0320	0	38.2300	8	30.362	0	766.715	0	11.8	4	3.9	4	-1E+10	1	-1E+10	1	-1E+10	1	-1E+10	1	-1E+10	1	-1E+10	1
4901784	217	C	06/13/2021	10:44	-136.362	43.128	0	779.60	0	4.0260	0	38.2340	8	30.365	0	771.954	0	11.6	4	3.8	4	-1E+10	1	-1E+10	1	-1E+10	1	-1E+10	1	-1E+10	1	-1E+10	1
4901784	217	C	06/13/2021	10:44	-136.362	43.128	0	784.90	0	4.0150	0	38.2400	8	30.372	0	777.192	0	11.5	4	3.7	4	-1E+10	1	-1E+10	1	-1E+10	1	-1E+10	1	-1E+10	1	-1E+10	1
4901784	217	C	06/13/2021	10:44	-136.362	43.128	0	790.30	0	3.9930	0	38.2460	8	30.379	0	782.529	0	11.3	4	3.7	4	-1E+10	1	-1E+10	1	-1E+10	1	-1E+10	1	-1E+10	1	-1E+10	1
4901784	217	C	06/13/2021	10:44	-136.362	43.128	0	795.60	0	3.9860	0	38.2500	8	30.383	0	787.767	0	11.2	4	3.7	4	-1E+10	1	-1E+10	1	-1E+10	1	-1E+10	1	-1E+10	1	-1E+10	1
4901784	217	C	06/13/2021	10:44	-136.362	43.128	0	800.10	0	3.9780	0	38.2530	8	30.386	0	792.214	0	11.1	4	3.6	4	-1E+10	1	-1E+10	1	-1E+10	1	-1E+10	1	-1E+10	1	-1E+10	1
4901784	217	C	06/13/2021	10:44	-136.362	43.128	0	804.60	0	3.9620	0	38.2580	8	30.392	0	796.661	0	11.0	4	3.6	4	-1E+10	1	-1E+10	1	-1E+10	1	-1E+10	1	-1E+10	1	-1E+10	1
4901784	217	C	06/13/2021	10:44	-136.362	43.128	0	810.00	0	3.9540	0	38.2620	8	30.396	0	801.997	0	10.9	4	3.6	4	-1E+10	1	-1E+10	1	-1E+10	1	-1E+10	1	-1E+10	1	-1E+10	1
4901784	217	C	06/13/2021	10:44	-136.362	43.128	0	815.40	0	3.9490	0	38.2660	8	30.400	0	807.333	0	10.8	4	3.5	4	-1E+10	1	-1E+10	1	-1E+10	1	-1E+10	1	-1E+10	1	-1E+10	1
4901784	217	C	06/13/2021	10:44	-136.362	43.128	0	820.00	0	3.9440	0	38.2690	8	30.403	0	811.879	0	10.8	4	3.5	4	-1E+10	1	-1E+10	1	-1E+10	1	-1E+10	1	-1E+10	1	-1E+10	1
4901784	217	C	06/13/2021	10:44	-136.362	43.128	0	824.70	0	3.9370	0	38.2720	8	30.406	0	816.523	0	10.7	4	3.5	4	-1E+10	1	-1E+10	1	-1E+10	1	-1E+10	1	-1E+10	1	-1E+10	1
4901784	217	C	06/13/2021	10:44	-136.362	43.128	0	830.20	0	3.9310	0	38.2750	8	30.409	0	821.958	0	10.7	4	3.5	4	-1E+10	1	-1E+10	1	-1E+10	1	-1E+10	1	-1E+10	1	-1E+10	1
4901784	217	C	06/13/2021	10:44	-136.362	43.128	0	834.80	0	3.9280	0	38.2760	8	30.410	0	826.503	0	10.6	4	3.5	4	-1E+10	1	-1E+10	1	-1E+10	1	-1E+10	1	-1E+10	1	-1E+10	1
4901784	217	C	06/13/2021	10:44	-136.362	43.128	0	839.30	0	3.9230	0	38.2780	8	30.413	0	830.949	0	10.6	4	3.4	4	-1E+10	1	-1E+10	1	-1E+10	1	-1E+10	1	-1E+10	1	-1E+10	1
4901784	217	C	06/13/2021	10:44	-136.362	43.128	0	844.40	0	3.9080	0	38.2840	8	30.419	0	835.989	0	10.5	4	3.4	4	-1E+10	1	-1E+10	1	-1E+10	1	-1E+10	1	-1E+10	1	-1E+10	1
4901784	217	C	06/13/2021	10:44	-136.362	43.128	0	850.00	0	3.8940	0	38.2880	8	30.424	0	841.521	0	10.4	4	3.4	4	-1E+10	1	-1E+10	1	-1E+10	1	-1E+10	1	-1E+10	1	-1E+10	1
4901784	217	C	06/13/2021	10:44	-136.362	43.128	0	855.50	0	3.8820	0	38.2960	8	30.432	0	846.955	0	10.3	4	3.3	4	-1E+10	1	-1E+10	1	-1E+10	1	-1E+10	1	-1E+10	1	-1E+10	1
4901784	217	C	06/13/2021	10:44	-136.362	43.128	0	860.40	0	3.8800	0	38.3010	8	30.436	0	851.797	0	10.2	4	3.3	4	-1E+10	1	-1E+10	1	-1E+10	1	-1E+10	1	-1E+10	1	-1E+10	1
4901784	217	C	06/13/2021	10:44	-136.362	43.128	0	865.30	0	3.8750	0	38.3030	8	30.438	0	856.638	0	10.1	4	3.3	4	-1E+10	1	-1E+10	1	-1E+10	1	-1E+10	1	-1E+10	1	-1E+10	1
4901784	217	C	06/13/2021	10:44	-136.362	43.128	0	870.20	0	3.8630	0	38.3090	8	30.444	0	861.478	0	10.1	4	3.3	4	-1E+10	1	-1E+10	1	-1E+10	1	-1E+10	1	-1E+10	1	-1E+10	1
4901784	217	C	06/13/2021	10:44	-136.362	43.128	0	875.10	0	3.8540	0	38.3130	8	30.449	0	866.319	0	10.1	4	3.3	4	-1E+10	1	-1E+10	1	-1E+10	1	-1E+10	1	-1E+10	1	-1E+10	1
4901784	217	C	06/13/2021	10:44	-136.362	43.128	0	880.20	0	3.8440	0	38.3150	8	30.451	0	871.357	0	10.1	4	3.3	4	-1E+10	1	-1E+10	1	-1E+10	1	-1E+10	1	-1E+10	1	-1E+10	1
4901784	217	C	06/13/2021	10:44	-136.362	43.128	0	885.20	0	3.8230	0	38.3190	8	30.457	0	876.297	0	10.0	4	3.3	4	-1E+10	1	-1E+10	1	-1E+10	1	-1E+10	1	-1E+10	1	-1E+10	1
4901784	217	C	06/13/2021	10:44	-136.362	43.128	0	890.30	0	3.8110	0	38.3220	8	30.461	0	881.335	0	10.0	4	3.3	4	-1E+10	1	-1E+10	1	-1E+10	1	-1E+10	1	-1E+10	1	-1E+10	1
4901784	217	C	06/13/2021	10:44	-136.362	43.128	0	895.40	0	3.8120	0	38.3250	8	30.463	0	886.372	0	10.0	4	3.2	4	-1E+10	1	-1E+10	1	-1E+10	1	-1E+10	1	-1E+10	1	-1E+10	1
4901784	217	C	06/13/2021	10:44	-136.362	43.128	0	900.50	0	3.8040	0	38.3280	8	30.466	0	891.410	0	10.0	4	3.2	4	-1E+10	1	-1E+10	1	-1E+10	1	-1E+10	1	-1E+10	1	-1E+10	1
4901784	217	C	06/13/2021	10:44	-136.362	43.128	0	905.60	0	3.8000	0	38.3320	8	30.470	0	896.448	0	9.9	4	3.2	4	-1E+10	1	-1E+10	1	-1E+10	1	-1E+10	1	-1E+10	1	-1E+10	1
4901784	217	C	06/13/2021	10:44	-136.362	43.128	0	910.70	0	3.7890	0	38.3380	8	30.476	0	901.485	0	9.9	4	3.2	4	-1E+10	1	-1E+10	1	-1E+10	1	-1E+10	1	-1E+10	1	-1E+10	1
4901784	217	C	06/13/2021	10:44	-136.362	43.128	0	915.00	0	3.7850	0	38.3400	8	30.478	0	905.732	0	9.8	4	3.2	4	-1E+10	1	-1E+10	1	-1E+10	1	-1E+10	1	-1E+10	1	-1E+10	1
4901784	217	C	06/13/2021	10:44	-136.362	43.128	0	919.30	0	3.7770	0	38.3430	8	30.481	0	909.980	0	9.9	4	3.2	4	-1E+10	1	-1E+10	1	-1E+10	1	-1E+10	1	-1E+10	1	-1E+10	1
4901784	217	C	06/13/2021	10:44	-136.362	43.128	0	924.50	0	3.7710	0	38.3470	8	30.485	0	915.115	0	9.9	4	3.2	4	-1E+10	1	-1E+10	1	-1E+10	1	-1E+10	1	-1E+10	1	-1E+10	1
4901784	217	C	06/13/2021	10:44	-136.362	43.128	0	929.80	0	3.7670	0	38.3510	8	30.489	0	920.350	0	9.9	4	3.2	4	-1E+10	1	-1E+10	1	-1E+10	1	-1E+10	1	-1E+10	1	-1E+10	1
4901784	217	C	06/13/2021	10:44	-136.362	43.128	0	934.90	0	3.7600	0	38.3550	8	30.493	0	925.387	0	9.9	4	3.2	4	-1E+10	1	-1E+10	1	-1E+10	1	-1E+10	1	-1E+10	1	-1E+10	1
4901784	217	C	06/13/2021	10:44	-136.362	43.128	0	940.20	0	3.7480	0	38.3580	8	30.497	0	930.621	0	9.9	4	3.2	4	-1E+10	1	-1E+10	1	-1E+10	1	-1E+10	1	-1E+10	1	-1E+10	1
4901784	217	C	06/13/2021	10:44	-136.362	43.128	0	945.60	0	3.7390	0	38.3610	8	30.500	0	935.954	0	9.9	4	3.2	4	-1E+10	1	-1E+10	1	-1E+10	1	-1E+10	1	-1E+10	1	-1E+10	1
4901784	217	C	06/13/2021	10:44	-136.362	43.128	0	950.00	0	3.7350	0	38.3640	8	30.503	0	940.299	0	9.9	4	3.2	4	-1E+10	1	-1E+10	1	-1E+10	1	-1E+10	1	-1E+10	1	-1E+10	1
4901784	217	C	06/13/2021	10:44	-136.362	43.128	0	954.50	0	3.7300	0	38.3670	8	30.506	0	944.743	0	9.9	4	3.2	4	-1E+10	1	-1E+10	1	-1E+10	1	-1E+10	1	-1E+10	1	-1E+10	1
4901784	217	C	06/13/2021	10:44	-136.362	43.128	0	959.80	0	3.7210	0	38.3720	8	30.511	0	949.977	0	10.0	4	3.2	4	-1E+10	1	-1E+10	1	-1E+10	1	-1E+10	1	-1E+10	1	-1E+10	1
4901784	217	C	06/13/2021	10:44	-136.362	43.128	0	965.30	0	3.7110	0	38.3760	8	30.515	0	955.408	0	10.0	4	3.2	4	-1E+10	1	-1E+10	1	-1E+10	1	-1E+10	1	-1E+10	1	-1E+10	1
4901784	217	C	06/13/2021	10:44	-136.362	43.128	0	969.80	0	3.6990	0	38.3800	8	30.520	0	959.852	0	10.0	4	3.2	4	-1E+10	1	-1E+10	1	-1E+10	1	-1E+10	1	-1E+10	1	-1E+10	1
4901784	217	C	06/13/2021	10:44	-136.362	43.128	0	974.30	0	3.6780	0	38.3850	8	30.526	0	964.295	0	10.0	4	3.2	4	-1E+10	1	-1E+10	1	-1E+10	1	-1E+10	1	-1E+10	1	-1E+10	1
4901784	217	C	06/13/2021	10:44	-136.362	43.128	0	979.80	0	3.6610	0	38.3870	8	30.530	0	969.726	0	10.1	4	3.3	4	-1E+10	1	-1E+10	1	-1E+10	1	-1E+10	1	-1E+10	1	-1E+10	1
4901784	217	C	06/13/2021	10:44	-136.362	43.128	0	985.20	0	3.6440	0	38.3910	8	30.535	0	975.058	0	10.1	4	3.3	4	-1E+10	1	-1E+10	1	-1E+10	1	-1E+10	1	-1E+10	1	-1E+10	1
4901784	217	C	06/13/2021	10:44	-136.362	43.128	0	989.80	0	3.6330	0	38.3930	8	30.538	0	979.600	0	10.1	4	3.3	4	-1E+10	1	-1E+10	1	-1E+10	1	-1E+10	1	-1E+10	1	-1E+10	1
4901784	217	C	06/13/2021	10:44	-136.362	43.128	0	994.40	0	3.6160	0	38.3940	8	30.540	0	984.142	0	10.1	4	3.3	4	-1E+10	1	-1E+10	1	-1E+10	1	-1E+10	1	-1E+10	1	-1E+10	1
4901784	217	C	06/13/2021	10:44	-136.362	43.128	0	1000.00	0	3.5790	0	38.4000	8	30.549	0	989.671	0	10.2	4	3.3	4	-1E+10	1	-1E+10	1	-1E+10	1	-1E+10	1	-1E+10	1	-1E+10	1
4901784	217	C	06/13/2021	10:44	-136.362	43.128	0	1005.60	0	3.5560	0	38.4050	8	30.556	0	995.200	0	10.2	4	3.3	4	-1E+10	1	-1E+10	1	-1E+10	1	-1E+10	1	-1E+10	1	-1E+10	1
4901784	217	C	06/13/2021	10:44	-136.362	43.128	0	1010.20	0	3.5450	0	38.4080	8	30.559	0	999.741	0	10.3	4	3.3	4	-1E+10	1	-1E+10	1	-1E+10	1	-1E+10	1	-1E+10	1	-1E+10	1
4901784	217	C	06/13/2021	10:44	-136.362	43.128	0	1014.90	0	3.5380	0	38.4100	8	30.562	0	1004.381	0	10.3	4	3.3	4	-1E+10	1	-1E+10	1	-1E+10	1	-1E+10	1	-1E+10	1	-1E+10	1
4901784	217	C	06/13/2021	10:44	-136.362	43.128	0	1020.50	0	3.5240	0	38.4130	8	30.566	0	1009.910	0	10.4	4	3.3	4	-1E+10	1	-1E+10	1	-1E+10	1	-1E+10	1	-1E+10	1	-1E+10	1
4901784	217	C	06/13/2021	10:44	-136.362	43.128	0	1025.30	0	3.5070	0	38.4160	8	30.570	0	1014.648	0	10.4	4	3.4	4	-1E+10	1	-1E+10	1	-1E+10	1	-1E+10	1	-1E+10	1	-1E+10	1
4901784	217	C	06/13/2021	10:44	-136.362	43.128	0	1030.00	0	3.4850	0	38.4210	8	30.576	0	1019.288	0	10.5	4	3.4	4	-1E+10	1	-1E+10	1	-1E+10	1	-1E+10	1	-1E+10	1	-1E+10	1
4901784	217	C	06/13/2021	10:44	-136.362	43.128	0	1034.80	0	3.4670	0	38.4230	8	30.580	0	1024.026	0	10.5	4	3.4	4	-1E+10	1	-1E+10	1	-1E+10	1	-1E+10	1	-1E+10	1	-1E+10	1
4901784	217	C	06/13/2021	10:44	-136.362	43.128	0	1039.40	0	3.4530	0	38.4260	8	30.584	0	1028.567	0	10.5	4	3.4	4	-1E+10	1	-1E+10	1	-1E+10	1	-1E+10	1	-1E+10	1	-1E+10	1
4901784	217	C	06/13/2021	10:44	-136.362	43.128	0	1044.90	0	3.4380	0	38.4300	8	30.589	0	1033.996	0	10.6	4	3.4	4	-1E+10	1	-1E+10	1	-1E+10	1	-1E+10	1	-1E+10	1	-1E+10	1
4901784	217	C	06/13/2021	10:44	-136.362	43.128	0	1050.50	0	3.4280	0	38.4320	8	30.591	0	1039.524	0	10.7	4	3.4	4	-1E+10	1	-1E+10	1	-1E+10	1	-1E+10	1	-1E+10	1	-1E+10	1
4901784	217	C	06/13/2021	10:44	-136.362	43.128	0	1055.10	0	3.4200	0	38.4340	8	30.594	0	1044.064	0	10.7	4	3.4	4	-1E+10	1	-1E+10	1	-1E+10	1	-1E+10	1	-1E+10	1	-1E+10	1
4901784	217	C	06/13/2021	10:44	-136.362	43.128	0	1059.70	0	3.4010	0	38.4380	8	30.599	0	1048.605	0	10.8	4	3.5	4	-1E+10	1	-1E+10	1	-1E+10	1	-1E+10	1	-1E+10	1	-1E+10	1
4901784	217	C	06/13/2021	10:44	-136.362	43.128	0	1065.20	0	3.3900	0	38.4410	8	30.603	0	1054.033	0	10.8	4	3.5	4	-1E+10	1	-1E+10	1	-1E+10	1	-1E+10	1	-1E+10	1	-1E+10	1
4901784	217	C	06/13/2021	10:44	-136.362	43.128	0	1069.80	0	3.3800	0	38.4440	8	30.606	0	1058.574	0	10.9	4	3.5	4	-1E+10	1	-1E+10	1	-1E+10	1	-1E+10	1	-1E+10	1	-1E+10	1
4901784	217	C	06/13/2021	10:44	-136.362	43.128	0	1074.40	0	3.3730	0	38.4450	8	30.608	0	1063.114	0	10.9	4	3.5	4	-1E+10	1	-1E+10	1	-1E+10	1	-1E+10	1	-1E+10	1	-1E+10	1
4901784	217	C	06/13/2021	10:44	-136.362	43.128	0	1080.60	0	3.3570	0	38.4480	8	30.612	0	1069.233	0	11.0	4	3.5	4	-1E+10	1	-1E+10	1	-1E+10	1	-1E+10	1	-1E+10	1	-1E+10	1
4901784	217	C	06/13/2021	10:44	-136.362	43.128	0	1085.60	0	3.3370	0	38.4530	8	30.618	0	1074.167	0	11.2	4	3.6	4	-1E+10	1	-1E+10	1	-1E+10	1	-1E+10	1	-1E+10	1	-1E+10	1
4901784	217	C	06/13/2021	10:44	-136.362	43.128	0	1090.30	0	3.3240	0	38.4570	8	30.623	0	1078.806	0	11.2	4	3.6	4	-1E+10	1	-1E+10	1	-1E+10	1	-1E+10	1	-1E+10	1	-1E+10	1
4901784	217	C	06/13/2021	10:44	-136.362	43.128	0	1095.10	0	3.3180	0	38.4590	8	30.625	0	1083.543	0	11.3	4	3.6	4	-1E+10	1	-1E+10	1	-1E+10	1	-1E+10	1	-1E+10	1	-1E+10	1
4901784	217	C	06/13/2021	10:44	-136.362	43.128	0	1100.00	0	3.3130	0	38.4600	8	30.626	0	1088.378	0	11.3	4	3.6	4	-1E+10	1	-1E+10	1	-1E+10	1	-1E+10	1	-1E+10	1	-1E+10	1
4901784	217	C	06/13/2021	10:44	-136.362	43.128	0	1104.90	0	3.3010	0	38.4620	8	30.629	0	1093.214	0	11.4	4	3.7	4	-1E+10	1	-1E+10	1	-1E+10	1	-1E+10	1	-1E+10	1	-1E+10	1
4901784	217	C	06/13/2021	10:44	-136.362	43.128	0	1110.00	0	3.2830	0	38.4670	8	30.635	0	1098.247	0	11.6	4	3.7	4	-1E+10	1	-1E+10	1	-1E+10	1	-1E+10	1	-1E+10	1	-1E+10	1
4901784	217	C	06/13/2021	10:44	-136.362	43.128	0	1115.30	0	3.2690	0	38.4710	8	30.640	0	1103.477	0	11.7	4	3.7	4	-1E+10	1	-1E+10	1	-1E+10	1	-1E+10	1	-1E+10	1	-1E+10	1
4901784	217	C	06/13/2021	10:44	-136.362	43.128	0	1120.60	0	3.2580	0	38.4730	8	30.642	0	1108.706	0	11.8	4	3.8	4	-1E+10	1	-1E+10	1	-1E+10	1	-1E+10	1	-1E+10	1	-1E+10	1
4901784	217	C	06/13/2021	10:44	-136.362	43.128	0	1125.00	0	3.2460	0	38.4770	8	30.647	0	1113.048	0	11.8	4	3.8	4	-1E+10	1	-1E+10	1	-1E+10	1	-1E+10	1	-1E+10	1	-1E+10	1
4901784	217	C	06/13/2021	10:44	-136.362	43.128	0	1129.50	0	3.2430	0	38.4770	8	30.647	0	1117.488	0	11.9	4	3.8	4	-1E+10	1	-1E+10	1	-1E+10	1	-1E+10	1	-1E+10	1	-1E+10	1
4901784	217	C	06/13/2021	10:44	-136.362	43.128	0	1134.90	0	3.2370	0	38.4800	8	30.650	0	1122.816	0	12.0	4	3.8	4	-1E+10	1	-1E+10	1	-1E+10	1	-1E+10	1	-1E+10	1	-1E+10	1
4901784	217	C	06/13/2021	10:44	-136.362	43.128	0	1140.30	0	3.2330	0	38.4810	8	30.652	0	1128.145	0	12.1	4	3.9	4	-1E+10	1	-1E+10	1	-1E+10	1	-1E+10	1	-1E+10	1	-1E+10	1
4901784	217	C	06/13/2021	10:44	-136.362	43.128	0	1145.70	0	3.2200	0	38.4850	8	30.656	0	1133.472	0	12.2	4	3.9	4	-1E+10	1	-1E+10	1	-1E+10	1	-1E+10	1	-1E+10	1	-1E+10	1
4901784	217	C	06/13/2021	10:44	-136.362	43.128	0	1150.20	0	3.2130	0	38.4880	8	30.659	0	1137.912	0	12.2	4	3.9	4	-1E+10	1	-1E+10	1	-1E+10	1	-1E+10	1	-1E+10	1	-1E+10	1
4901784	217	C	06/13/2021	10:44	-136.362	43.128	0	1154.80	0	3.2120	0	38.4880	8	30.659	0	1142.451	0	12.3	4	3.9	4	-1E+10	1	-1E+10	1	-1E+10	1	-1E+10	1	-1E+10	1	-1E+10	1
4901784	217	C	06/13/2021	10:44	-136.362	43.128	0	1160.30	0	3.2060	0	38.4900	8	30.662	0	1147.877	0	12.4	4	4.0	4	-1E+10	1	-1E+10	1	-1E+10	1	-1E+10	1	-1E+10	1	-1E+10	1
4901784	217	C	06/13/2021	10:44	-136.362	43.128	0	1164.90	0	3.1950	0	38.4930	8	30.665	0	1152.415	0	12.6	4	4.0	4	-1E+10	1	-1E+10	1	-1E+10	1	-1E+10	1	-1E+10	1	-1E+10	1
4901784	217	C	06/13/2021	10:44	-136.362	43.128	0	1169.60	0	3.1830	0	38.4960	8	30.669	0	1157.051	0	12.7	4	4.1	4	-1E+10	1	-1E+10	1	-1E+10	1	-1E+10	1	-1E+10	1	-1E+10	1
4901784	217	C	06/13/2021	10:44	-136.362	43.128	0	1175.30	0	3.1730	0	38.4990	8	30.672	0	1162.675	0	12.8	4	4.1	4	-1E+10	1	-1E+10	1	-1E+10	1	-1E+10	1	-1E+10	1	-1E+10	1
4901784	217	C	06/13/2021	10:44	-136.362	43.128	0	1180.00	0	3.1650	0	38.5010	8	30.675	0	1167.311	0	12.9	4	4.1	4	-1E+10	1	-1E+10	1	-1E+10	1	-1E+10	1	-1E+10	1	-1E+10	1
4901784	217	C	06/13/2021	10:44	-136.362	43.128	0	1184.80	0	3.1560	0	38.5030	8	30.678	0	1172.046	0	13.1	4	4.2	4	-1E+10	1	-1E+10	1	-1E+10	1	-1E+10	1	-1E+10	1	-1E+10	1
4901784	217	C	06/13/2021	10:44	-136.362	43.128	0	1190.50	0	3.1450	0	38.5060	8	30.681	0	1177.669	0	13.2	4	4.2	4	-1E+10	1	-1E+10	1	-1E+10	1	-1E+10	1	-1E+10	1	-1E+10	1
4901784	217	C	06/13/2021	10:44	-136.362	43.128	0	1195.20	0	3.1360	0	38.5080	8	30.684	0	1182.305	0	13.3	4	4.2	4	-1E+10	1	-1E+10	1	-1E+10	1	-1E+10	1	-1E+10	1	-1E+10	1
4901784	217	C	06/13/2021	10:44	-136.362	43.128	0	1199.90	0	3.1240	0	38.5110	8	30.687	0	1186.941	0	13.4	4	4.3	4	-1E+10	1	-1E+10	1	-1E+10	1	-1E+10	1	-1E+10	1	-1E+10	1
4901784	217	C	06/13/2021	10:44	-136.362	43.128	0	1204.70	0	3.1150	0	38.5130	8	30.690	0	1191.675	0	13.6	4	4.3	4	-1E+10	1	-1E+10	1	-1E+10	1	-1E+10	1	-1E+10	1	-1E+10	1
4901784	217	C	06/13/2021	10:44	-136.362	43.128	0	1209.50	0	3.1060	0	38.5160	8	30.693	0	1196.410	0	13.7	4	4.4	4	-1E+10	1	-1E+10	1	-1E+10	1	-1E+10	1	-1E+10	1	-1E+10	1
4901784	217	C	06/13/2021	10:44	-136.362	43.128	0	1215.10	0	3.0990	0	38.5180	8	30.696	0	1201.933	0	13.9	4	4.4	4	-1E+10	1	-1E+10	1	-1E+10	1	-1E+10	1	-1E+10	1	-1E+10	1
4901784	217	C	06/13/2021	10:44	-136.362	43.128	0	1219.90	0	3.0870	0	38.5220	8	30.700	0	1206.668	0	14.1	4	4.5	4	-1E+10	1	-1E+10	1	-1E+10	1	-1E+10	1	-1E+10	1	-1E+10	1
4901784	217	C	06/13/2021	10:44	-136.362	43.128	0	1224.80	0	3.0790	0	38.5230	8	30.702	0	1211.500	0	14.2	4	4.5	4	-1E+10	1	-1E+10	1	-1E+10	1	-1E+10	1	-1E+10	1	-1E+10	1
4901784	217	C	06/13/2021	10:44	-136.362	43.128	0	1229.70	0	3.0710	0	38.5260	8	30.705	0	1216.333	0	14.4	4	4.6	4	-1E+10	1	-1E+10	1	-1E+10	1	-1E+10	1	-1E+10	1	-1E+10	1
4901784	217	C	06/13/2021	10:44	-136.362	43.128	0	1234.60	0	3.0600	0	38.5270	8	30.707	0	1221.165	0	14.5	4	4.6	4	-1E+10	1	-1E+10	1	-1E+10	1	-1E+10	1	-1E+10	1	-1E+10	1
4901784	217	C	06/13/2021	10:44	-136.362	43.128	0	1239.60	0	3.0450	0	38.5300	8	30.711	0	1226.096	0	14.7	4	4.7	4	-1E+10	1	-1E+10	1	-1E+10	1	-1E+10	1	-1E+10	1	-1E+10	1
4901784	217	C	06/13/2021	10:44	-136.362	43.128	0	1244.50	0	3.0270	0	38.5340	8	30.716	0	1230.929	0	14.9	4	4.8	4	-1E+10	1	-1E+10	1	-1E+10	1	-1E+10	1	-1E+10	1	-1E+10	1
4901784	217	C	06/13/2021	10:44	-136.362	43.128	0	1250.20	0	3.0180	0	38.5360	8	30.719	0	1236.550	0	15.1	4	4.8	4	-1E+10	1	-1E+10	1	-1E+10	1	-1E+10	1	-1E+10	1	-1E+10	1
4901784	217	C	06/13/2021	10:44	-136.362	43.128	0	1254.80	0	3.0010	0	38.5400	8	30.723	0	1241.086	0	15.3	4	4.9	4	-1E+10	1	-1E+10	1	-1E+10	1	-1E+10	1	-1E+10	1	-1E+10	1
4901784	217	C	06/13/2021	10:44	-136.362	43.128	0	1259.40	0	2.9950	0	38.5400	8	30.724	0	1245.622	0	15.4	4	4.9	4	-1E+10	1	-1E+10	1	-1E+10	1	-1E+10	1	-1E+10	1	-1E+10	1
4901784	217	C	06/13/2021	10:44	-136.362	43.128	0	1264.90	0	2.9780	0	38.5440	8	30.729	0	1251.046	0	15.7	4	5.0	4	-1E+10	1	-1E+10	1	-1E+10	1	-1E+10	1	-1E+10	1	-1E+10	1
4901784	217	C	06/13/2021	10:44	-136.362	43.128	0	1270.40	0	2.9600	0	38.5470	8	30.733	0	1256.469	0	15.9	4	5.1	4	-1E+10	1	-1E+10	1	-1E+10	1	-1E+10	1	-1E+10	1	-1E+10	1
4901784	217	C	06/13/2021	10:44	-136.362	43.128	0	1274.90	0	2.9460	0	38.5500	8	30.737	0	1260.906	0	16.0	4	5.1	4	-1E+10	1	-1E+10	1	-1E+10	1	-1E+10	1	-1E+10	1	-1E+10	1
4901784	217	C	06/13/2021	10:44	-136.362	43.128	0	1279.80	0	2.9390	0	38.5520	8	30.739	0	1265.738	0	16.2	4	5.2	4	-1E+10	1	-1E+10	1	-1E+10	1	-1E+10	1	-1E+10	1	-1E+10	1
4901784	217	C	06/13/2021	10:44	-136.362	43.128	0	1284.90	0	2.9270	0	38.5540	8	30.742	0	1270.766	0	16.5	4	5.2	4	-1E+10	1	-1E+10	1	-1E+10	1	-1E+10	1	-1E+10	1	-1E+10	1
4901784	217	C	06/13/2021	10:44	-136.362	43.128	0	1289.90	0	2.9120	0	38.5570	8	30.746	0	1275.696	0	16.7	4	5.3	4	-1E+10	1	-1E+10	1	-1E+10	1	-1E+10	1	-1E+10	1	-1E+10	1
4901784	217	C	06/13/2021	10:44	-136.362	43.128	0	1294.80	0	2.9000	0	38.5600	8	30.750	0	1280.527	0	16.9	4	5.4	4	-1E+10	1	-1E+10	1	-1E+10	1	-1E+10	1	-1E+10	1	-1E+10	1
4901784	217	C	06/13/2021	10:44	-136.362	43.128	0	1299.70	0	2.8910	0	38.5620	8	30.752	0	1285.358	0	17.2	4	5.5	4	-1E+10	1	-1E+10	1	-1E+10	1	-1E+10	1	-1E+10	1	-1E+10	1
4901784	217	C	06/13/2021	10:44	-136.362	43.128	0	1304.80	0	2.8790	0	38.5650	8	30.756	0	1290.387	0	17.4	4	5.5	4	-1E+10	1	-1E+10	1	-1E+10	1	-1E+10	1	-1E+10	1	-1E+10	1
4901784	217	C	06/13/2021	10:44	-136.362	43.128	0	1309.90	0	2.8730	0	38.5660	8	30.758	0	1295.415	0	17.5	4	5.6	4	-1E+10	1	-1E+10	1	-1E+10	1	-1E+10	1	-1E+10	1	-1E+10	1
4901784	217	C	06/13/2021	10:44	-136.362	43.128	0	1315.00	0	2.8630	0	38.5690	8	30.761	0	1300.442	0	17.7	4	5.6	4	-1E+10	1	-1E+10	1	-1E+10	1	-1E+10	1	-1E+10	1	-1E+10	1
4901784	217	C	06/13/2021	10:44	-136.362	43.128	0	1320.10	0	2.8540	0	38.5710	8	30.763	0	1305.470	0	17.8	4	5.7	4	-1E+10	1	-1E+10	1	-1E+10	1	-1E+10	1	-1E+10	1	-1E+10	1
4901784	217	C	06/13/2021	10:44	-136.362	43.128	0	1325.20	0	2.8500	0	38.5720	8	30.765	0	1310.498	0	18.0	4	5.7	4	-1E+10	1	-1E+10	1	-1E+10	1	-1E+10	1	-1E+10	1	-1E+10	1
4901784	217	C	06/13/2021	10:44	-136.362	43.128	0	1330.50	0	2.8410	0	38.5740	8	30.767	0	1315.722	0	18.2	4	5.8	4	-1E+10	1	-1E+10	1	-1E+10	1	-1E+10	1	-1E+10	1	-1E+10	1
4901784	217	C	06/13/2021	10:44	-136.362	43.128	0	1335.70	0	2.8320	0	38.5760	8	30.770	0	1320.848	0	18.4	4	5.8	4	-1E+10	1	-1E+10	1	-1E+10	1	-1E+10	1	-1E+10	1	-1E+10	1
4901784	217	C	06/13/2021	10:44	-136.362	43.128	0	1340.10	0	2.8260	0	38.5770	8	30.771	0	1325.186	0	18.6	4	5.9	4	-1E+10	1	-1E+10	1	-1E+10	1	-1E+10	1	-1E+10	1	-1E+10	1
4901784	217	C	06/13/2021	10:44	-136.362	43.128	0	1344.50	0	2.8150	0	38.5800	8	30.775	0	1329.523	0	18.8	4	6.0	4	-1E+10	1	-1E+10	1	-1E+10	1	-1E+10	1	-1E+10	1	-1E+10	1
4901784	217	C	06/13/2021	10:44	-136.362	43.128	0	1349.90	0	2.8080	0	38.5810	8	30.776	0	1334.846	0	19.1	4	6.0	4	-1E+10	1	-1E+10	1	-1E+10	1	-1E+10	1	-1E+10	1	-1E+10	1
4901784	217	C	06/13/2021	10:44	-136.362	43.128	0	1355.30	0	2.7960	0	38.5840	8	30.780	0	1340.168	0	19.3	4	6.1	4	-1E+10	1	-1E+10	1	-1E+10	1	-1E+10	1	-1E+10	1	-1E+10	1
4901784	217	C	06/13/2021	10:44	-136.362	43.128	0	1359.80	0	2.7880	0	38.5860	8	30.782	0	1344.604	0	19.5	4	6.2	4	-1E+10	1	-1E+10	1	-1E+10	1	-1E+10	1	-1E+10	1	-1E+10	1
4901784	217	C	06/13/2021	10:44	-136.362	43.128	0	1364.30	0	2.7790	0	38.5880	8	30.785	0	1349.039	0	19.7	4	6.3	4	-1E+10	1	-1E+10	1	-1E+10	1	-1E+10	1	-1E+10	1	-1E+10	1
4901784	217	C	06/13/2021	10:44	-136.362	43.128	0	1369.80	0	2.7710	0	38.5900	8	30.787	0	1354.460	0	20.0	4	6.3	4	-1E+10	1	-1E+10	1	-1E+10	1	-1E+10	1	-1E+10	1	-1E+10	1
4901784	217	C	06/13/2021	10:44	-136.362	43.128	0	1375.30	0	2.7590	0	38.5920	8	30.790	0	1359.880	0	20.2	4	6.4	4	-1E+10	1	-1E+10	1	-1E+10	1	-1E+10	1	-1E+10	1	-1E+10	1
4901784	217	C	06/13/2021	10:44	-136.362	43.128	0	1379.90	0	2.7510	0	38.5940	8	30.793	0	1364.414	0	20.4	4	6.5	4	-1E+10	1	-1E+10	1	-1E+10	1	-1E+10	1	-1E+10	1	-1E+10	1
4901784	217	C	06/13/2021	10:44	-136.362	43.128	0	1384.70	0	2.7430	0	38.5960	8	30.795	0	1369.144	0	20.6	4	6.5	4	-1E+10	1	-1E+10	1	-1E+10	1	-1E+10	1	-1E+10	1	-1E+10	1
4901784	217	C	06/13/2021	10:44	-136.362	43.128	0	1390.00	0	2.7340	0	38.5980	8	30.797	0	1374.368	0	20.8	4	6.6	4	-1E+10	1	-1E+10	1	-1E+10	1	-1E+10	1	-1E+10	1	-1E+10	1
4901784	217	C	06/13/2021	10:44	-136.362	43.128	0	1394.80	0	2.7260	0	38.5990	8	30.799	0	1379.098	0	21.0	4	6.6	4	-1E+10	1	-1E+10	1	-1E+10	1	-1E+10	1	-1E+10	1	-1E+10	1
4901784	217	C	06/13/2021	10:44	-136.362	43.128	0	1399.80	0	2.7200	0	38.6010	8	30.801	0	1384.025	0	21.2	4	6.7	4	-1E+10	1	-1E+10	1	-1E+10	1	-1E+10	1	-1E+10	1	-1E+10	1
4901784	217	C	06/13/2021	10:44	-136.362	43.128	0	1404.70	0	2.7110	0	38.6030	8	30.804	0	1388.854	0	21.4	4	6.8	4	-1E+10	1	-1E+10	1	-1E+10	1	-1E+10	1	-1E+10	1	-1E+10	1
4901784	217	C	06/13/2021	10:44	-136.362	43.128	0	1409.70	0	2.7060	0	38.6040	8	30.805	0	1393.781	0	21.6	4	6.8	4	-1E+10	1	-1E+10	1	-1E+10	1	-1E+10	1	-1E+10	1	-1E+10	1
4901784	217	C	06/13/2021	10:44	-136.362	43.128	0	1414.70	0	2.6970	0	38.6070	8	30.808	0	1398.708	0	21.8	4	6.9	4	-1E+10	1	-1E+10	1	-1E+10	1	-1E+10	1	-1E+10	1	-1E+10	1
4901784	217	C	06/13/2021	10:44	-136.362	43.128	0	1419.80	0	2.6880	0	38.6080	8	30.810	0	1403.734	0	22.1	4	7.0	4	-1E+10	1	-1E+10	1	-1E+10	1	-1E+10	1	-1E+10	1	-1E+10	1
4901784	217	C	06/13/2021	10:44	-136.362	43.128	0	1424.90	0	2.6780	0	38.6110	8	30.814	0	1408.759	0	22.2	4	7.0	4	-1E+10	1	-1E+10	1	-1E+10	1	-1E+10	1	-1E+10	1	-1E+10	1
4901784	217	C	06/13/2021	10:44	-136.362	43.128	0	1430.00	0	2.6770	0	38.6110	8	30.814	0	1413.784	0	22.4	4	7.1	4	-1E+10	1	-1E+10	1	-1E+10	1	-1E+10	1	-1E+10	1	-1E+10	1
4901784	217	C	06/13/2021	10:44	-136.362	43.128	0	1435.20	0	2.6670	0	38.6130	8	30.816	0	1418.907	0	22.7	4	7.2	4	-1E+10	1	-1E+10	1	-1E+10	1	-1E+10	1	-1E+10	1	-1E+10	1
4901784	217	C	06/13/2021	10:44	-136.362	43.128	0	1440.40	0	2.6560	0	38.6150	8	30.819	0	1424.031	0	22.9	4	7.2	4	-1E+10	1	-1E+10	1	-1E+10	1	-1E+10	1	-1E+10	1	-1E+10	1
4901784	217	C	06/13/2021	10:44	-136.362	43.128	0	1445.60	0	2.6490	0	38.6170	8	30.821	0	1429.154	0	23.0	4	7.3	4	-1E+10	1	-1E+10	1	-1E+10	1	-1E+10	1	-1E+10	1	-1E+10	1
4901784	217	C	06/13/2021	10:44	-136.362	43.128	0	1449.90	0	2.6480	0	38.6180	8	30.822	0	1433.391	0	23.2	4	7.3	4	-1E+10	1	-1E+10	1	-1E+10	1	-1E+10	1	-1E+10	1	-1E+10	1
4901784	217	C	06/13/2021	10:44	-136.362	43.128	0	1454.30	0	2.6410	0	38.6190	8	30.824	0	1437.726	0	23.4	4	7.4	4	-1E+10	1	-1E+10	1	-1E+10	1	-1E+10	1	-1E+10	1	-1E+10	1
4901784	217	C	06/13/2021	10:44	-136.362	43.128	0	1459.60	0	2.6280	0	38.6210	8	30.827	0	1442.947	0	23.8	4	7.5	4	-1E+10	1	-1E+10	1	-1E+10	1	-1E+10	1	-1E+10	1	-1E+10	1
4901784	217	C	06/13/2021	10:44	-136.362	43.128	0	1464.90	0	2.6190	0	38.6230	8	30.829	0	1448.169	0	24.1	4	7.6	4	-1E+10	1	-1E+10	1	-1E+10	1	-1E+10	1	-1E+10	1	-1E+10	1
4901784	217	C	06/13/2021	10:44	-136.362	43.128	0	1470.20	0	2.6020	0	38.6260	8	30.833	0	1453.390	0	24.5	4	7.7	4	-1E+10	1	-1E+10	1	-1E+10	1	-1E+10	1	-1E+10	1	-1E+10	1
4901784	217	C	06/13/2021	10:44	-136.362	43.128	0	1475.50	0	2.5890	0	38.6290	8	30.837	0	1458.611	0	24.7	4	7.8	4	-1E+10	1	-1E+10	1	-1E+10	1	-1E+10	1	-1E+10	1	-1E+10	1
4901784	217	C	06/13/2021	10:44	-136.362	43.128	0	1479.80	0	2.5850	0	38.6290	8	30.837	0	1462.847	0	24.8	4	7.8	4	-1E+10	1	-1E+10	1	-1E+10	1	-1E+10	1	-1E+10	1	-1E+10	1
4901784	217	C	06/13/2021	10:44	-136.362	43.128	0	1484.30	0	2.5780	0	38.6310	8	30.840	0	1467.280	0	25.0	4	7.9	4	-1E+10	1	-1E+10	1	-1E+10	1	-1E+10	1	-1E+10	1	-1E+10	1
4901784	217	C	06/13/2021	10:44	-136.362	43.128	0	1489.60	0	2.5720	0	38.6320	8	30.841	0	1472.500	0	25.2	4	7.9	4	-1E+10	1	-1E+10	1	-1E+10	1	-1E+10	1	-1E+10	1	-1E+10	1
4901784	217	C	06/13/2021	10:44	-136.362	43.128	0	1494.80	0	2.5650	0	38.6340	8	30.843	0	1477.623	0	25.4	4	8.0	4	-1E+10	1	-1E+10	1	-1E+10	1	-1E+10	1	-1E+10	1	-1E+10	1
4901784	217	C	06/13/2021	10:44	-136.362	43.128	0	1499.50	0	2.5640	0	38.6340	8	30.844	0	1482.252	0	25.6	4	8.1	4	-1E+10	1	-1E+10	1	-1E+10	1	-1E+10	1	-1E+10	1	-1E+10	1
4901784	217	C	06/13/2021	10:44	-136.362	43.128	0	1504.30	0	2.5560	0	38.6350	8	30.845	0	1486.980	0	26.0	4	8.2	4	-1E+10	1	-1E+10	1	-1E+10	1	-1E+10	1	-1E+10	1	-1E+10	1
4901784	217	C	06/13/2021	10:44	-136.362	43.128	0	1510.00	0	2.5360	0	38.6390	8	30.850	0	1492.594	0	26.5	4	8.3	4	-1E+10	1	-1E+10	1	-1E+10	1	-1E+10	1	-1E+10	1	-1E+10	1
4901784	217	C	06/13/2021	10:44	-136.362	43.128	0	1515.60	0	2.5230	0	38.6410	8	30.853	0	1498.110	0	26.8	4	8.5	4	-1E+10	1	-1E+10	1	-1E+10	1	-1E+10	1	-1E+10	1	-1E+10	1
4901784	217	C	06/13/2021	10:44	-136.362	43.128	0	1520.50	0	2.5100	0	38.6440	8	30.857	0	1502.936	0	27.1	4	8.5	4	-1E+10	1	-1E+10	1	-1E+10	1	-1E+10	1	-1E+10	1	-1E+10	1
4901784	217	C	06/13/2021	10:44	-136.362	43.128	0	1525.50	0	2.5050	0	38.6460	8	30.859	0	1507.860	0	27.3	4	8.6	4	-1E+10	1	-1E+10	1	-1E+10	1	-1E+10	1	-1E+10	1	-1E+10	1
4901784	217	C	06/13/2021	10:44	-136.362	43.128	0	1530.40	0	2.4980	0	38.6470	8	30.861	0	1512.686	0	27.6	4	8.7	4	-1E+10	1	-1E+10	1	-1E+10	1	-1E+10	1	-1E+10	1	-1E+10	1
4901784	217	C	06/13/2021	10:44	-136.362	43.128	0	1535.50	0	2.4910	0	38.6490	8	30.863	0	1517.709	0	27.8	4	8.8	4	-1E+10	1	-1E+10	1	-1E+10	1	-1E+10	1	-1E+10	1	-1E+10	1
4901784	217	C	06/13/2021	10:44	-136.362	43.128	0	1540.60	0	2.4850	0	38.6500	8	30.864	0	1522.731	0	28.0	4	8.8	4	-1E+10	1	-1E+10	1	-1E+10	1	-1E+10	1	-1E+10	1	-1E+10	1
4901784	217	C	06/13/2021	10:44	-136.362	43.128	0	1545.60	0	2.4790	0	38.6520	8	30.866	0	1527.655	0	28.3	4	8.9	4	-1E+10	1	-1E+10	1	-1E+10	1	-1E+10	1	-1E+10	1	-1E+10	1
4901784	217	C	06/13/2021	10:44	-136.362	43.128	0	1550.70	0	2.4680	0	38.6540	8	30.869	0	1532.678	0	28.6	4	9.0	4	-1E+10	1	-1E+10	1	-1E+10	1	-1E+10	1	-1E+10	1	-1E+10	1
4901784	217	C	06/13/2021	10:44	-136.362	43.128	0	1555.00	0	2.4650	0	38.6550	8	30.870	0	1536.912	0	28.8	4	9.1	4	-1E+10	1	-1E+10	1	-1E+10	1	-1E+10	1	-1E+10	1	-1E+10	1
4901784	217	C	06/13/2021	10:44	-136.362	43.128	0	1559.30	0	2.4570	0	38.6560	8	30.872	0	1541.146	0	29.0	4	9.1	4	-1E+10	1	-1E+10	1	-1E+10	1	-1E+10	1	-1E+10	1	-1E+10	1
4901784	217	C	06/13/2021	10:44	-136.362	43.128	0	1564.50	0	2.4510	0	38.6570	8	30.873	0	1546.267	0	29.3	4	9.2	4	-1E+10	1	-1E+10	1	-1E+10	1	-1E+10	1	-1E+10	1	-1E+10	1
4901784	217	C	06/13/2021	10:44	-136.362	43.128	0	1569.70	0	2.4410	0	38.6590	8	30.876	0	1551.387	0	29.7	4	9.4	4	-1E+10	1	-1E+10	1	-1E+10	1	-1E+10	1	-1E+10	1	-1E+10	1
4901784	217	C	06/13/2021	10:44	-136.362	43.128	0	1575.00	0	2.4250	0	38.6620	8	30.880	0	1556.606	0	30.2	4	9.5	4	-1E+10	1	-1E+10	1	-1E+10	1	-1E+10	1	-1E+10	1	-1E+10	1
4901784	217	C	06/13/2021	10:44	-136.362	43.128	0	1580.30	0	2.4150	0	38.6640	8	30.882	0	1561.825	0	30.5	4	9.6	4	-1E+10	1	-1E+10	1	-1E+10	1	-1E+10	1	-1E+10	1	-1E+10	1
4901784	217	C	06/13/2021	10:44	-136.362	43.128	0	1585.60	0	2.4070	0	38.6660	8	30.885	0	1567.043	0	30.8	4	9.7	4	-1E+10	1	-1E+10	1	-1E+10	1	-1E+10	1	-1E+10	1	-1E+10	1
4901784	217	C	06/13/2021	10:44	-136.362	43.128	0	1590.20	0	2.4020	0	38.6670	8	30.886	0	1571.572	0	31.2	4	9.8	4	-1E+10	1	-1E+10	1	-1E+10	1	-1E+10	1	-1E+10	1	-1E+10	1
4901784	217	C	06/13/2021	10:44	-136.362	43.128	0	1594.70	0	2.3890	0	38.6690	8	30.889	0	1576.003	0	31.6	4	9.9	4	-1E+10	1	-1E+10	1	-1E+10	1	-1E+10	1	-1E+10	1	-1E+10	1
4901784	217	C	06/13/2021	10:44	-136.362	43.128	0	1600.00	0	2.3720	0	38.6730	8	30.894	0	1581.221	0	32.1	4	10.1	4	-1E+10	1	-1E+10	1	-1E+10	1	-1E+10	1	-1E+10	1	-1E+10	1
4901784	217	C	06/13/2021	10:44	-136.362	43.128	0	1605.40	0	2.3640	0	38.6740	8	30.895	0	1586.537	0	32.4	4	10.2	4	-1E+10	1	-1E+10	1	-1E+10	1	-1E+10	1	-1E+10	1	-1E+10	1
4901784	217	C	06/13/2021	10:44	-136.362	43.128	0	1609.90	0	2.3570	0	38.6750	8	30.897	0	1590.967	0	32.7	4	10.2	4	-1E+10	1	-1E+10	1	-1E+10	1	-1E+10	1	-1E+10	1	-1E+10	1
4901784	217	C	06/13/2021	10:44	-136.362	43.128	0	1614.40	0	2.3500	0	38.6770	8	30.899	0	1595.397	0	32.8	4	10.3	4	-1E+10	1	-1E+10	1	-1E+10	1	-1E+10	1	-1E+10	1	-1E+10	1
4901784	217	C	06/13/2021	10:44	-136.362	43.128	0	1619.90	0	2.3470	0	38.6780	8	30.900	0	1600.812	0	33.1	4	10.4	4	-1E+10	1	-1E+10	1	-1E+10	1	-1E+10	1	-1E+10	1	-1E+10	1
4901784	217	C	06/13/2021	10:44	-136.362	43.128	0	1625.40	0	2.3400	0	38.6800	8	30.903	0	1606.226	0	33.4	4	10.5	4	-1E+10	1	-1E+10	1	-1E+10	1	-1E+10	1	-1E+10	1	-1E+10	1
4901784	217	C	06/13/2021	10:44	-136.362	43.128	0	1630.00	0	2.3360	0	38.6810	8	30.904	0	1610.754	0	33.7	4	10.6	4	-1E+10	1	-1E+10	1	-1E+10	1	-1E+10	1	-1E+10	1	-1E+10	1
4901784	217	C	06/13/2021	10:44	-136.362	43.128	0	1634.40	0	2.3280	0	38.6830	8	30.906	0	1615.086	0	33.9	4	10.6	4	-1E+10	1	-1E+10	1	-1E+10	1	-1E+10	1	-1E+10	1	-1E+10	1
4901784	217	C	06/13/2021	10:44	-136.362	43.128	0	1639.60	0	2.3200	0	38.6850	8	30.909	0	1620.204	0	34.3	4	10.7	4	-1E+10	1	-1E+10	1	-1E+10	1	-1E+10	1	-1E+10	1	-1E+10	1
4901784	217	C	06/13/2021	10:44	-136.362	43.128	0	1644.40	0	2.3130	0	38.6860	8	30.910	0	1624.929	0	34.6	4	10.9	4	-1E+10	1	-1E+10	1	-1E+10	1	-1E+10	1	-1E+10	1	-1E+10	1
4901784	217	C	06/13/2021	10:44	-136.362	43.128	0	1650.00	0	2.3010	0	38.6890	8	30.914	0	1630.441	0	35.1	4	11.0	4	-1E+10	1	-1E+10	1	-1E+10	1	-1E+10	1	-1E+10	1	-1E+10	1
4901784	217	C	06/13/2021	10:44	-136.362	43.128	0	1655.60	0	2.2940	0	38.6910	8	30.916	0	1635.953	0	35.4	4	11.1	4	-1E+10	1	-1E+10	1	-1E+10	1	-1E+10	1	-1E+10	1	-1E+10	1
4901784	217	C	06/13/2021	10:44	-136.362	43.128	0	1660.50	0	2.2890	0	38.6920	8	30.917	0	1640.776	0	35.6	4	11.2	4	-1E+10	1	-1E+10	1	-1E+10	1	-1E+10	1	-1E+10	1	-1E+10	1
4901784	217	C	06/13/2021	10:44	-136.362	43.128	0	1665.40	0	2.2830	0	38.6940	8	30.919	0	1645.599	0	35.9	4	11.2	4	-1E+10	1	-1E+10	1	-1E+10	1	-1E+10	1	-1E+10	1	-1E+10	1
4901784	217	C	06/13/2021	10:44	-136.362	43.128	0	1670.40	0	2.2800	0	38.6950	8	30.921	0	1650.520	0	36.1	4	11.3	4	-1E+10	1	-1E+10	1	-1E+10	1	-1E+10	1	-1E+10	1	-1E+10	1
4901784	217	C	06/13/2021	10:44	-136.362	43.128	0	1675.30	0	2.2730	0	38.6970	8	30.923	0	1655.343	0	36.4	4	11.4	4	-1E+10	1	-1E+10	1	-1E+10	1	-1E+10	1	-1E+10	1	-1E+10	1
4901784	217	C	06/13/2021	10:44	-136.362	43.128	0	1680.20	0	2.2690	0	38.6980	8	30.924	0	1660.165	0	36.6	4	11.5	4	-1E+10	1	-1E+10	1	-1E+10	1	-1E+10	1	-1E+10	1	-1E+10	1
4901784	217	C	06/13/2021	10:44	-136.362	43.128	0	1685.20	0	2.2650	0	38.6990	8	30.925	0	1665.086	0	36.8	4	11.5	4	-1E+10	1	-1E+10	1	-1E+10	1	-1E+10	1	-1E+10	1	-1E+10	1
4901784	217	C	06/13/2021	10:44	-136.362	43.128	0	1690.20	0	2.2600	0	38.7000	8	30.927	0	1670.007	0	37.2	4	11.6	4	-1E+10	1	-1E+10	1	-1E+10	1	-1E+10	1	-1E+10	1	-1E+10	1
4901784	217	C	06/13/2021	10:44	-136.362	43.128	0	1695.30	0	2.2530	0	38.7020	8	30.929	0	1675.026	0	37.4	4	11.7	4	-1E+10	1	-1E+10	1	-1E+10	1	-1E+10	1	-1E+10	1	-1E+10	1
4901784	217	C	06/13/2021	10:44	-136.362	43.128	0	1700.30	0	2.2470	0	38.7040	8	30.931	0	1679.946	0	37.7	4	11.8	4	-1E+10	1	-1E+10	1	-1E+10	1	-1E+10	1	-1E+10	1	-1E+10	1
4901784	217	C	06/13/2021	10:44	-136.362	43.128	0	1705.40	0	2.2430	0	38.7040	8	30.931	0	1684.965	0	38.0	4	11.9	4	-1E+10	1	-1E+10	1	-1E+10	1	-1E+10	1	-1E+10	1	-1E+10	1
4901784	217	C	06/13/2021	10:44	-136.362	43.128	0	1710.50	0	2.2370	0	38.7060	8	30.934	0	1689.983	0	38.3	4	12.0	4	-1E+10	1	-1E+10	1	-1E+10	1	-1E+10	1	-1E+10	1	-1E+10	1
4901784	217	C	06/13/2021	10:44	-136.362	43.128	0	1715.70	0	2.2320	0	38.7070	8	30.935	0	1695.100	0	38.6	4	12.1	4	-1E+10	1	-1E+10	1	-1E+10	1	-1E+10	1	-1E+10	1	-1E+10	1
4901784	217	C	06/13/2021	10:44	-136.362	43.128	0	1720.00	0	2.2240	0	38.7090	8	30.937	0	1699.331	0	39.0	4	12.2	4	-1E+10	1	-1E+10	1	-1E+10	1	-1E+10	1	-1E+10	1	-1E+10	1
4901784	217	C	06/13/2021	10:44	-136.362	43.128	0	1724.40	0	2.2200	0	38.7100	8	30.938	0	1703.661	0	39.2	4	12.3	4	-1E+10	1	-1E+10	1	-1E+10	1	-1E+10	1	-1E+10	1	-1E+10	1
4901784	217	C	06/13/2021	10:44	-136.362	43.128	0	1729.50	0	2.2120	0	38.7120	8	30.941	0	1708.679	0	39.6	4	12.4	4	-1E+10	1	-1E+10	1	-1E+10	1	-1E+10	1	-1E+10	1	-1E+10	1
4901784	217	C	06/13/2021	10:44	-136.362	43.128	0	1734.70	0	2.2060	0	38.7140	8	30.943	0	1713.795	0	39.8	4	12.5	4	-1E+10	1	-1E+10	1	-1E+10	1	-1E+10	1	-1E+10	1	-1E+10	1
4901784	217	C	06/13/2021	10:44	-136.362	43.128	0	1739.90	0	2.2000	0	38.7150	8	30.944	0	1718.912	0	40.2	4	12.6	4	-1E+10	1	-1E+10	1	-1E+10	1	-1E+10	1	-1E+10	1	-1E+10	1
4901784	217	C	06/13/2021	10:44	-136.362	43.128	0	1745.20	0	2.1970	0	38.7160	8	30.946	0	1724.126	0	40.4	4	12.6	4	-1E+10	1	-1E+10	1	-1E+10	1	-1E+10	1	-1E+10	1	-1E+10	1
4901784	217	C	06/13/2021	10:44	-136.362	43.128	0	1750.50	0	2.1890	0	38.7180	8	30.948	0	1729.341	0	40.9	4	12.8	4	-1E+10	1	-1E+10	1	-1E+10	1	-1E+10	1	-1E+10	1	-1E+10	1
4901784	217	C	06/13/2021	10:44	-136.362	43.128	0	1754.90	0	2.1830	0	38.7190	8	30.949	0	1733.669	0	41.3	4	12.9	4	-1E+10	1	-1E+10	1	-1E+10	1	-1E+10	1	-1E+10	1	-1E+10	1
4901784	217	C	06/13/2021	10:44	-136.362	43.128	0	1759.30	0	2.1760	0	38.7200	8	30.951	0	1737.998	0	41.6	4	13.0	4	-1E+10	1	-1E+10	1	-1E+10	1	-1E+10	1	-1E+10	1	-1E+10	1
4901784	217	C	06/13/2021	10:44	-136.362	43.128	0	1764.70	0	2.1660	0	38.7230	8	30.954	0	1743.311	0	42.1	4	13.2	4	-1E+10	1	-1E+10	1	-1E+10	1	-1E+10	1	-1E+10	1	-1E+10	1
4901784	217	C	06/13/2021	10:44	-136.362	43.128	0	1770.10	0	2.1590	0	38.7250	8	30.956	0	1748.623	0	42.3	4	13.2	4	-1E+10	1	-1E+10	1	-1E+10	1	-1E+10	1	-1E+10	1	-1E+10	1
4901784	217	C	06/13/2021	10:44	-136.362	43.128	0	1775.60	0	2.1560	0	38.7260	8	30.958	0	1754.033	0	42.6	4	13.3	4	-1E+10	1	-1E+10	1	-1E+10	1	-1E+10	1	-1E+10	1	-1E+10	1
4901784	217	C	06/13/2021	10:44	-136.362	43.128	0	1780.00	0	2.1540	0	38.7260	8	30.958	0	1758.362	0	42.7	4	13.4	4	-1E+10	1	-1E+10	1	-1E+10	1	-1E+10	1	-1E+10	1	-1E+10	1
4901784	217	C	06/13/2021	10:44	-136.362	43.128	0	1784.60	0	2.1480	0	38.7280	8	30.960	0	1762.887	0	42.9	4	13.4	4	-1E+10	1	-1E+10	1	-1E+10	1	-1E+10	1	-1E+10	1	-1E+10	1
4901784	217	C	06/13/2021	10:44	-136.362	43.128	0	1790.00	0	2.1480	0	38.7280	8	30.960	0	1768.199	0	43.1	4	13.4	4	-1E+10	1	-1E+10	1	-1E+10	1	-1E+10	1	-1E+10	1	-1E+10	1
4901784	217	C	06/13/2021	10:44	-136.362	43.128	0	1795.40	0	2.1440	0	38.7290	8	30.961	0	1773.510	0	43.3	4	13.5	4	-1E+10	1	-1E+10	1	-1E+10	1	-1E+10	1	-1E+10	1	-1E+10	1
4901784	217	C	06/13/2021	10:44	-136.362	43.128	0	1799.90	0	2.1390	0	38.7310	8	30.963	0	1777.937	0	43.5	4	13.6	4	-1E+10	1	-1E+10	1	-1E+10	1	-1E+10	1	-1E+10	1	-1E+10	1
4901784	217	C	06/13/2021	10:44	-136.362	43.128	0	1804.40	0	2.1360	0	38.7320	8	30.964	0	1782.363	0	43.7	4	13.6	4	-1E+10	1	-1E+10	1	-1E+10	1	-1E+10	1	-1E+10	1	-1E+10	1
4901784	217	C	06/13/2021	10:44	-136.362	43.128	0	1809.90	0	2.1340	0	38.7320	8	30.965	0	1787.773	0	43.9	4	13.7	4	-1E+10	1	-1E+10	1	-1E+10	1	-1E+10	1	-1E+10	1	-1E+10	1
4901784	217	C	06/13/2021	10:44	-136.362	43.128	0	1815.50	0	2.1300	0	38.7340	8	30.967	0	1793.281	0	44.2	4	13.8	4	-1E+10	1	-1E+10	1	-1E+10	1	-1E+10	1	-1E+10	1	-1E+10	1
4901784	217	C	06/13/2021	10:44	-136.362	43.128	0	1820.10	0	2.1250	0	38.7350	8	30.968	0	1797.805	0	44.5	4	13.9	4	-1E+10	1	-1E+10	1	-1E+10	1	-1E+10	1	-1E+10	1	-1E+10	1
4901784	217	C	06/13/2021	10:44	-136.362	43.128	0	1824.70	0	2.1190	0	38.7360	8	30.969	0	1802.329	0	44.7	4	14.0	4	-1E+10	1	-1E+10	1	-1E+10	1	-1E+10	1	-1E+10	1	-1E+10	1
4901784	217	C	06/13/2021	10:44	-136.362	43.128	0	1830.20	0	2.1170	0	38.7370	8	30.970	0	1807.738	0	44.9	4	14.0	4	-1E+10	1	-1E+10	1	-1E+10	1	-1E+10	1	-1E+10	1	-1E+10	1
4901784	217	C	06/13/2021	10:44	-136.362	43.128	0	1834.90	0	2.1170	0	38.7380	8	30.971	0	1812.360	0	45.1	4	14.1	4	-1E+10	1	-1E+10	1	-1E+10	1	-1E+10	1	-1E+10	1	-1E+10	1
4901784	217	C	06/13/2021	10:44	-136.362	43.128	0	1839.50	0	2.1120	0	38.7390	8	30.972	0	1816.884	0	45.4	4	14.2	4	-1E+10	1	-1E+10	1	-1E+10	1	-1E+10	1	-1E+10	1	-1E+10	1
4901784	217	C	06/13/2021	10:44	-136.362	43.128	0	1845.00	0	2.1080	0	38.7400	8	30.974	0	1822.293	0	45.6	4	14.2	4	-1E+10	1	-1E+10	1	-1E+10	1	-1E+10	1	-1E+10	1	-1E+10	1
4901784	217	C	06/13/2021	10:44	-136.362	43.128	0	1850.50	0	2.1030	0	38.7410	8	30.975	0	1827.702	0	45.9	4	14.3	4	-1E+10	1	-1E+10	1	-1E+10	1	-1E+10	1	-1E+10	1	-1E+10	1
4901784	217	C	06/13/2021	10:44	-136.362	43.128	0	1855.10	0	2.0990	0	38.7430	8	30.977	0	1832.225	0	46.2	4	14.4	4	-1E+10	1	-1E+10	1	-1E+10	1	-1E+10	1	-1E+10	1	-1E+10	1
4901784	217	C	06/13/2021	10:44	-136.362	43.128	0	1859.80	0	2.0960	0	38.7440	8	30.978	0	1836.847	0	46.4	4	14.5	4	-1E+10	1	-1E+10	1	-1E+10	1	-1E+10	1	-1E+10	1	-1E+10	1
4901784	217	C	06/13/2021	10:44	-136.362	43.128	0	1865.20	0	2.0920	0	38.7440	8	30.978	0	1842.157	0	46.9	4	14.6	4	-1E+10	1	-1E+10	1	-1E+10	1	-1E+10	1	-1E+10	1	-1E+10	1
4901784	217	C	06/13/2021	10:44	-136.362	43.128	0	1870.60	0	2.0820	0	38.7470	8	30.982	0	1847.467	0	47.4	4	14.8	4	-1E+10	1	-1E+10	1	-1E+10	1	-1E+10	1	-1E+10	1	-1E+10	1
4901784	217	C	06/13/2021	10:44	-136.362	43.128	0	1875.50	0	2.0760	0	38.7480	8	30.983	0	1852.285	0	47.8	4	14.9	4	-1E+10	1	-1E+10	1	-1E+10	1	-1E+10	1	-1E+10	1	-1E+10	1
4901784	217	C	06/13/2021	10:44	-136.362	43.128	0	1880.30	0	2.0700	0	38.7500	8	30.985	0	1857.005	0	48.1	4	15.0	4	-1E+10	1	-1E+10	1	-1E+10	1	-1E+10	1	-1E+10	1	-1E+10	1
4901784	217	C	06/13/2021	10:44	-136.362	43.128	0	1885.30	0	2.0650	0	38.7510	8	30.987	0	1861.921	0	48.4	4	15.1	4	-1E+10	1	-1E+10	1	-1E+10	1	-1E+10	1	-1E+10	1	-1E+10	1
4901784	217	C	06/13/2021	10:44	-136.362	43.128	0	1890.20	0	2.0630	0	38.7520	8	30.988	0	1866.738	0	48.7	4	15.2	4	-1E+10	1	-1E+10	1	-1E+10	1	-1E+10	1	-1E+10	1	-1E+10	1
4901784	217	C	06/13/2021	10:44	-136.362	43.128	0	1895.10	0	2.0560	0	38.7530	8	30.989	0	1871.556	0	49.0	4	15.3	4	-1E+10	1	-1E+10	1	-1E+10	1	-1E+10	1	-1E+10	1	-1E+10	1
4901784	217	C	06/13/2021	10:44	-136.362	43.128	0	1900.10	0	2.0510	0	38.7550	8	30.991	0	1876.472	0	49.4	4	15.4	4	-1E+10	1	-1E+10	1	-1E+10	1	-1E+10	1	-1E+10	1	-1E+10	1
4901784	217	C	06/13/2021	10:44	-136.362	43.128	0	1905.00	0	2.0460	0	38.7560	8	30.992	0	1881.289	0	49.8	4	15.5	4	-1E+10	1	-1E+10	1	-1E+10	1	-1E+10	1	-1E+10	1	-1E+10	1
4901784	217	C	06/13/2021	10:44	-136.362	43.128	0	1910.00	0	2.0400	0	38.7580	8	30.995	0	1886.205	0	50.1	4	15.6	4	-1E+10	1	-1E+10	1	-1E+10	1	-1E+10	1	-1E+10	1	-1E+10	1
4901784	217	C	06/13/2021	10:44	-136.362	43.128	0	1915.00	0	2.0360	0	38.7590	8	30.996	0	1891.121	0	50.5	4	15.7	4	-1E+10	1	-1E+10	1	-1E+10	1	-1E+10	1	-1E+10	1	-1E+10	1
4901784	217	C	06/13/2021	10:44	-136.362	43.128	0	1920.00	0	2.0300	0	38.7600	8	30.997	0	1896.036	0	50.9	4	15.8	4	-1E+10	1	-1E+10	1	-1E+10	1	-1E+10	1	-1E+10	1	-1E+10	1
4901784	217	C	06/13/2021	10:44	-136.362	43.128	0	1924.90	0	2.0250	0	38.7610	8	30.999	0	1900.853	0	51.1	4	15.9	4	-1E+10	1	-1E+10	1	-1E+10	1	-1E+10	1	-1E+10	1	-1E+10	1
4901784	217	C	06/13/2021	10:44	-136.362	43.128	0	1929.90	0	2.0230	0	38.7620	8	31.000	0	1905.768	0	51.3	4	16.0	4	-1E+10	1	-1E+10	1	-1E+10	1	-1E+10	1	-1E+10	1	-1E+10	1
4901784	217	C	06/13/2021	10:44	-136.362	43.128	0	1935.00	0	2.0200	0	38.7630	8	31.001	0	1910.781	0	51.6	4	16.1	4	-1E+10	1	-1E+10	1	-1E+10	1	-1E+10	1	-1E+10	1	-1E+10	1
4901784	217	C	06/13/2021	10:44	-136.362	43.128	0	1940.10	0	2.0160	0	38.7640	8	31.002	0	1915.795	0	51.9	4	16.2	4	-1E+10	1	-1E+10	1	-1E+10	1	-1E+10	1	-1E+10	1	-1E+10	1
4901784	217	C	06/13/2021	10:44	-136.362	43.128	0	1945.10	0	2.0120	0	38.7650	8	31.003	0	1920.709	0	52.2	4	16.2	4	-1E+10	1	-1E+10	1	-1E+10	1	-1E+10	1	-1E+10	1	-1E+10	1
4901784	217	C	06/13/2021	10:44	-136.362	43.128	0	1950.20	0	2.0080	0	38.7660	8	31.004	0	1925.722	0	52.4	4	16.3	4	-1E+10	1	-1E+10	1	-1E+10	1	-1E+10	1	-1E+10	1	-1E+10	1
4901784	217	C	06/13/2021	10:44	-136.362	43.128	0	1955.40	0	2.0040	0	38.7670	8	31.005	0	1930.834	0	52.7	4	16.4	4	-1E+10	1	-1E+10	1	-1E+10	1	-1E+10	1	-1E+10	1	-1E+10	1
4901784	217	C	06/13/2021	10:44	-136.362	43.128	0	1960.50	0	2.0000	0	38.7680	8	31.007	0	1935.846	0	53.0	4	16.5	4	-1E+10	1	-1E+10	1	-1E+10	1	-1E+10	1	-1E+10	1	-1E+10	1
4901784	217	C	06/13/2021	10:44	-136.362	43.128	0	1965.70	0	1.9960	0	38.7690	8	31.008	0	1940.957	0	53.3	4	16.6	4	-1E+10	1	-1E+10	1	-1E+10	1	-1E+10	1	-1E+10	1	-1E+10	1
4901784	217	C	06/13/2021	10:44	-136.362	43.128	0	1970.00	0	1.9950	0	38.7700	8	31.009	0	1945.184	0	53.4	4	16.6	4	-1E+10	1	-1E+10	1	-1E+10	1	-1E+10	1	-1E+10	1	-1E+10	1
4901784	217	C	06/13/2021	10:44	-136.362	43.128	0	1974.40	0	1.9920	0	38.7710	8	31.010	0	1949.508	0	53.7	4	16.7	4	-1E+10	1	-1E+10	1	-1E+10	1	-1E+10	1	-1E+10	1	-1E+10	1
4901784	217	C	06/13/2021	10:44	-136.362	43.128	0	1979.60	0	1.9890	0	38.7710	8	31.010	0	1954.619	0	54.0	4	16.8	4	-1E+10	1	-1E+10	1	-1E+10	1	-1E+10	1	-1E+10	1	-1E+10	1
4901784	217	C	06/13/2021	10:44	-136.362	43.128	0	1984.80	0	1.9840	0	38.7720	8	31.011	0	1959.729	0	54.3	4	16.9	4	-1E+10	1	-1E+10	1	-1E+10	1	-1E+10	1	-1E+10	1	-1E+10	1
4901784	217	C	06/13/2021	10:44	-136.362	43.128	0	1990.00	0	1.9810	0	38.7730	8	31.013	0	1964.839	0	54.5	4	17.0	4	-1E+10	1	-1E+10	1	-1E+10	1	-1E+10	1	-1E+10	1	-1E+10	1
4901784	217	C	06/13/2021	10:44	-136.362	43.128	0	1995.30	0	1.9780	0	38.7740	8	31.014	0	1970.048	0	54.8	4	17.1	4	-1E+10	1	-1E+10	1	-1E+10	1	-1E+10	1	-1E+10	1	-1E+10	1
4901784	217	C	06/13/2021	10:44	-136.362	43.128	0	2000.40	0	1.9750	0	38.7750	8	31.015	0	1975.060	0	55.0	4	17.1	4	-1E+10	1	-1E+10	1	-1E+10	1	-1E+10	1	-1E+10	1	-1E+10	1
4901784	217	C	06/13/2021	10:44	-136.362	43.128	0	2005.30	0	1.9720	0	38.7760	8	31.016	0	1979.875	0	55.3	4	17.2	4	-1E+10	1	-1E+10	1	-1E+10	1	-1E+10	1	-1E+10	1	-1E+10	1
4901784	217	C	06/13/2021	10:44	-136.362	43.128	0	2010.00	0	1.9690	0	38.7760	8	31.016	0	1984.494	0	55.6	4	17.3	4	-1E+10	1	-1E+10	1	-1E+10	1	-1E+10	1	-1E+10	1	-1E+10	1
4901784	217	C	06/13/2021	10:44	-136.362	43.128	0	2015.40	0	1.9640	0	38.7780	8	31.018	0	1989.800	0	55.8	4	17.4	4	-1E+10	1	-1E+10	1	-1E+10	1	-1E+10	1	-1E+10	1	-1E+10	1
4901784	217	C	06/13/2021	10:44	-136.362	43.128	0	2020.00	0	1.9620	0	38.7790	8	31.019	0	1994.320	0	55.9	4	17.4	4	-1E+10	1	-1E+10	1	-1E+10	1	-1E+10	1	-1E+10	1	-1E+10	1
4901784	217	C	06/13/2021	10:44	-136.362	43.128	0																										
4901784	218	C	06/23/2021	10:50	-136.398	43.166	0	3.00	0	15.6580	0	36.1420	8	26.706	0	2.976	0	237.8	4	98.0	4	-1E+10	1	-1E+10	1	-1E+10	1	-1E+10	1	-1E+10	1	-1E+10	1
4901784	218	C	06/23/2021	10:50	-136.398	43.166	0	4.50	0	15.6600	0	36.1430	8	26.706	0	4.464	0	237.7	4	97.9	4	-1E+10	1	-1E+10	1	-1E+10	1	-1E+10	1	-1E+10	1	-1E+10	1
4901784	218	C	06/23/2021	10:50	-136.398	43.166	0	6.00	0	15.6610	0	36.1450	8	26.708	0	5.952	0	237.7	4	97.9	4	-1E+10	1	-1E+10	1	-1E+10	1	-1E+10	1	-1E+10	1	-1E+10	1
4901784	218	C	06/23/2021	10:50	-136.398	43.166	0	7.60	0	15.6610	0	36.1460	8	26.708	0	7.539	0	237.7	4	97.9	4	-1E+10	1	-1E+10	1	-1E+10	1	-1E+10	1	-1E+10	1	-1E+10	1
4901784	218	C	06/23/2021	10:50	-136.398	43.166	0	9.20	0	15.6600	0	36.1470	8	26.710	0	9.127	0	237.6	4	97.9	4	-1E+10	1	-1E+10	1	-1E+10	1	-1E+10	1	-1E+10	1	-1E+10	1
4901784	218	C	06/23/2021	10:50	-136.398	43.166	0	10.90	0	15.6610	0	36.1480	8	26.710	0	10.813	0	237.5	4	97.9	4	-1E+10	1	-1E+10	1	-1E+10	1	-1E+10	1	-1E+10	1	-1E+10	1
4901784	218	C	06/23/2021	10:50	-136.398	43.166	0	12.60	0	15.6610	0	36.1480	8	26.710	0	12.499	0	237.4	4	97.8	4	-1E+10	1	-1E+10	1	-1E+10	1	-1E+10	1	-1E+10	1	-1E+10	1
4901784	218	C	06/23/2021	10:50	-136.398	43.166	0	14.20	0	15.6630	0	36.1470	8	26.709	0	14.087	0	237.6	4	97.9	4	-1E+10	1	-1E+10	1	-1E+10	1	-1E+10	1	-1E+10	1	-1E+10	1
4901784	218	C	06/23/2021	10:50	-136.398	43.166	0	15.80	0	15.6610	0	36.1430	8	26.706	0	15.674	0	237.6	4	97.9	4	-1E+10	1	-1E+10	1	-1E+10	1	-1E+10	1	-1E+10	1	-1E+10	1
4901784	218	C	06/23/2021	10:50	-136.398	43.166	0	17.40	0	15.5960	0	36.1400	8	26.719	0	17.261	0	237.7	4	97.8	4	-1E+10	1	-1E+10	1	-1E+10	1	-1E+10	1	-1E+10	1	-1E+10	1
4901784	218	C	06/23/2021	10:50	-136.398	43.166	0	19.00	0	15.4930	0	36.1390	8	26.742	0	18.848	0	238.4	4	97.9	4	-1E+10	1	-1E+10	1	-1E+10	1	-1E+10	1	-1E+10	1	-1E+10	1
4901784	218	C	06/23/2021	10:50	-136.398	43.166	0	20.60	0	15.4550	0	36.1340	8	26.746	0	20.435	0	238.6	4	97.9	4	-1E+10	1	-1E+10	1	-1E+10	1	-1E+10	1	-1E+10	1	-1E+10	1
4901784	218	C	06/23/2021	10:50	-136.398	43.166	0	22.30	0	15.2780	0	36.1750	8	26.818	0	22.122	0	238.9	4	97.7	4	-1E+10	1	-1E+10	1	-1E+10	1	-1E+10	1	-1E+10	1	-1E+10	1
4901784	218	C	06/23/2021	10:50	-136.398	43.166	0	24.10	0	15.1820	0	36.1970	8	26.856	0	23.907	0	239.8	4	97.9	4	-1E+10	1	-1E+10	1	-1E+10	1	-1E+10	1	-1E+10	1	-1E+10	1
4901784	218	C	06/23/2021	10:50	-136.398	43.166	0	25.80	0	15.1510	0	36.1960	8	26.863	0	25.593	0	240.5	4	98.2	4	-1E+10	1	-1E+10	1	-1E+10	1	-1E+10	1	-1E+10	1	-1E+10	1
4901784	218	C	06/23/2021	10:50	-136.398	43.166	0	27.60	0	15.0270	0	36.2140	8	26.904	0	27.379	0	241.2	4	98.2	4	-1E+10	1	-1E+10	1	-1E+10	1	-1E+10	1	-1E+10	1	-1E+10	1
4901784	218	C	06/23/2021	10:50	-136.398	43.166	0	29.30	0	14.9380	0	36.2130	8	26.923	0	29.065	0	243.0	4	98.8	4	-1E+10	1	-1E+10	1	-1E+10	1	-1E+10	1	-1E+10	1	-1E+10	1
4901784	218	C	06/23/2021	10:50	-136.398	43.166	0	31.00	0	14.8540	0	36.2150	8	26.943	0	30.751	0	244.1	4	99.1	4	-1E+10	1	-1E+10	1	-1E+10	1	-1E+10	1	-1E+10	1	-1E+10	1
4901784	218	C	06/23/2021	10:50	-136.398	43.166	0	32.70	0	14.7890	0	36.2020	8	26.948	0	32.437	0	245.8	4	99.6	4	-1E+10	1	-1E+10	1	-1E+10	1	-1E+10	1	-1E+10	1	-1E+10	1
4901784	218	C	06/23/2021	10:50	-136.398	43.166	0	34.40	0	14.4560	0	36.2120	8	27.028	0	34.124	0	248.0	4	99.9	4	-1E+10	1	-1E+10	1	-1E+10	1	-1E+10	1	-1E+10	1	-1E+10	1
4901784	218	C	06/23/2021	10:50	-136.398	43.166	0	36.10	0	14.1740	0	36.2220	8	27.097	0	35.810	0	251.1	4	100.5	4	-1E+10	1	-1E+10	1	-1E+10	1	-1E+10	1	-1E+10	1	-1E+10	1
4901784	218	C	06/23/2021	10:50	-136.398	43.166	0	38.00	0	13.9100	0	36.2350	8	27.163	0	37.694	0	253.4	4	100.9	4	-1E+10	1	-1E+10	1	-1E+10	1	-1E+10	1	-1E+10	1	-1E+10	1
4901784	218	C	06/23/2021	10:50	-136.398	43.166	0	40.00	0	13.6000	0	36.2670	8	27.253	0	39.678	0	255.6	4	101.2	4	-1E+10	1	-1E+10	1	-1E+10	1	-1E+10	1	-1E+10	1	-1E+10	1
4901784	218	C	06/23/2021	10:50	-136.398	43.166	0	42.00	0	13.4140	0	36.2740	8	27.297	0	41.662	0	257.3	4	101.5	4	-1E+10	1	-1E+10	1	-1E+10	1	-1E+10	1	-1E+10	1	-1E+10	1
4901784	218	C	06/23/2021	10:50	-136.398	43.166	0	44.00	0	13.2280	0	36.2830	8	27.343	0	43.646	0	258.9	4	101.8	4	-1E+10	1	-1E+10	1	-1E+10	1	-1E+10	1	-1E+10	1	-1E+10	1
4901784	218	C	06/23/2021	10:50	-136.398	43.166	0	46.30	0	12.7150	0	36.2990	8	27.459	0	45.927	0	259.8	4	101.1	4	-1E+10	1	-1E+10	1	-1E+10	1	-1E+10	1	-1E+10	1	-1E+10	1
4901784	218	C	06/23/2021	10:50	-136.398	43.166	0	46.80	0	12.5280	0	36.2980	8	27.496	0	46.423	0	262.5	4	101.7	4	-1E+10	1	-1E+10	1	-1E+10	1	-1E+10	1	-1E+10	1	-1E+10	1
4901784	218	C	06/23/2021	10:50	-136.398	43.166	0	48.60	0	12.4250	0	36.3010	8	27.519	0	48.208	0	263.9	4	102.1	4	-1E+10	1	-1E+10	1	-1E+10	1	-1E+10	1	-1E+10	1	-1E+10	1
4901784	218	C	06/23/2021	10:50	-136.398	43.166	0	50.20	0	12.3960	0	36.2990	8	27.523	0	49.795	0	264.5	4	102.2	4	-1E+10	1	-1E+10	1	-1E+10	1	-1E+10	1	-1E+10	1	-1E+10	1
4901784	218	C	06/23/2021	10:50	-136.398	43.166	0	51.90	0	12.2570	0	36.2970	8	27.549	0	51.481	0	265.5	4	102.3	4	-1E+10	1	-1E+10	1	-1E+10	1	-1E+10	1	-1E+10	1	-1E+10	1
4901784	218	C	06/23/2021	10:50	-136.398	43.166	0	53.60	0	11.9230	0	36.2570	8	27.583	0	53.167	0	267.7	4	102.4	4	-1E+10	1	-1E+10	1	-1E+10	1	-1E+10	1	-1E+10	1	-1E+10	1
4901784	218	C	06/23/2021	10:50	-136.398	43.166	0	55.30	0	11.8010	0	36.2440	8	27.596	0	54.853	0	267.9	4	102.2	4	-1E+10	1	-1E+10	1	-1E+10	1	-1E+10	1	-1E+10	1	-1E+10	1
4901784	218	C	06/23/2021	10:50	-136.398	43.166	0	56.90	0	11.7640	0	36.2510	8	27.609	0	56.440	0	267.7	4	102.1	4	-1E+10	1	-1E+10	1	-1E+10	1	-1E+10	1	-1E+10	1	-1E+10	1
4901784	218	C	06/23/2021	10:50	-136.398	43.166	0	58.60	0	11.7530	0	36.2600	8	27.618	0	58.126	0	266.9	4	101.8	4	-1E+10	1	-1E+10	1	-1E+10	1	-1E+10	1	-1E+10	1	-1E+10	1
4901784	218	C	06/23/2021	10:50	-136.398	43.166	0	60.20	0	11.6010	0	36.2360	8	27.628	0	59.713	0	267.5	4	101.7	4	-1E+10	1	-1E+10	1	-1E+10	1	-1E+10	1	-1E+10	1	-1E+10	1
4901784	218	C	06/23/2021	10:50	-136.398	43.166	0	61.80	0	11.4070	0	36.2160	8	27.649	0	61.300	0	267.9	4	101.4	4	-1E+10	1	-1E+10	1	-1E+10	1	-1E+10	1	-1E+10	1	-1E+10	1
4901784	218	C	06/23/2021	10:50	-136.398	43.166	0	63.50	0	11.2370	0	36.1970	8	27.666	0	62.986	0	267.2	4	100.7	4	-1E+10	1	-1E+10	1	-1E+10	1	-1E+10	1	-1E+10	1	-1E+10	1
4901784	218	C	06/23/2021	10:50	-136.398	43.166	0	65.30	0	11.0460	0	36.2060	8	27.709	0	64.771	0	265.7	4	99.8	4	-1E+10	1	-1E+10	1	-1E+10	1	-1E+10	1	-1E+10	1	-1E+10	1
4901784	218	C	06/23/2021	10:50	-136.398	43.166	0	67.00	0	10.9530	0	36.2080	8	27.727	0	66.457	0	263.7	4	98.8	4	-1E+10	1	-1E+10	1	-1E+10	1	-1E+10	1	-1E+10	1	-1E+10	1
4901784	218	C	06/23/2021	10:50	-136.398	43.166	0	68.80	0	10.8980	0	36.2180	8	27.745	0	68.242	0	260.8	4	97.7	4	-1E+10	1	-1E+10	1	-1E+10	1	-1E+10	1	-1E+10	1	-1E+10	1
4901784	218	C	06/23/2021	10:50	-136.398	43.166	0	70.70	0	10.7650	0	36.2180	8	27.770	0	70.126	0	258.8	4	96.6	4	-1E+10	1	-1E+10	1	-1E+10	1	-1E+10	1	-1E+10	1	-1E+10	1
4901784	218	C	06/23/2021	10:50	-136.398	43.166	0	72.40	0	10.7310	0	36.2230	8	27.780	0	71.812	0	256.2	4	95.6	4	-1E+10	1	-1E+10	1	-1E+10	1	-1E+10	1	-1E+10	1	-1E+10	1
4901784	218	C	06/23/2021	10:50	-136.398	43.166	0	74.30	0	10.8960	0	36.2700	8	27.786	0	73.696	0	252.8	4	94.7	4	-1E+10	1	-1E+10	1	-1E+10	1	-1E+10	1	-1E+10	1	-1E+10	1
4901784	218	C	06/23/2021	10:50	-136.398	43.166	0	76.00	0	10.9530	0	36.2880	8	27.790	0	75.382	0	251.0	4	94.1	4	-1E+10	1	-1E+10	1	-1E+10	1	-1E+10	1	-1E+10	1	-1E+10	1
4901784	218	C	06/23/2021	10:50	-136.398	43.166	0	77.90	0	11.0120	0	36.3060	8	27.793	0	77.266	0	249.7	4	93.8	4	-1E+10	1	-1E+10	1	-1E+10	1	-1E+10	1	-1E+10	1	-1E+10	1
4901784	218	C	06/23/2021	10:50	-136.398	43.166	0	79.60	0	11.0570	0	36.3160	8	27.793	0	78.952	0	249.0	4	93.6	4	-1E+10	1	-1E+10	1	-1E+10	1	-1E+10	1	-1E+10	1	-1E+10	1
4901784	218	C	06/23/2021	10:50	-136.398	43.166	0	81.40	0	11.1130	0	36.3210	8	27.786	0	80.737	0	248.0	4	93.4	4	-1E+10	1	-1E+10	1	-1E+10	1	-1E+10	1	-1E+10	1	-1E+10	1
4901784	218	C	06/23/2021	10:50	-136.398	43.166	0	83.20	0	11.0710	0	36.3260	8	27.798	0	82.522	0	247.6	4	93.1	4	-1E+10	1	-1E+10	1	-1E+10	1	-1E+10	1	-1E+10	1	-1E+10	1
4901784	218	C	06/23/2021	10:50	-136.398	43.166	0	84.90	0	10.9650	0	36.3190	8	27.812	0	84.208	0	247.5	4	92.9	4	-1E+10	1	-1E+10	1	-1E+10	1	-1E+10	1	-1E+10	1	-1E+10	1
4901784	218	C	06/23/2021	10:50	-136.398	43.166	0	86.80	0	10.9660	0	36.3110	8	27.806	0	86.092	0	246.8	4	92.6	4	-1E+10	1	-1E+10	1	-1E+10	1	-1E+10	1	-1E+10	1	-1E+10	1
4901784	218	C	06/23/2021	10:50	-136.398	43.166	0	88.50	0	10.7240	0	36.3000	8	27.841	0	87.778	0	247.3	4	92.3	4	-1E+10	1	-1E+10	1	-1E+10	1	-1E+10	1	-1E+10	1	-1E+10	1
4901784	218	C	06/23/2021	10:50	-136.398	43.166	0	90.30	0	10.6860	0	36.3060	8	27.853	0	89.563	0	245.8	4	91.7	4	-1E+10	1	-1E+10	1	-1E+10	1	-1E+10	1	-1E+10	1	-1E+10	1
4901784	218	C	06/23/2021	10:50	-136.398	43.166	0	92.10	0	10.7610	0	36.3320	8	27.860	0	91.347	0	244.2	4	91.3	4	-1E+10	1	-1E+10	1	-1E+10	1	-1E+10	1	-1E+10	1	-1E+10	1
4901784	218	C	06/23/2021	10:50	-136.398	43.166	0	94.00	0	10.7870	0	36.3500	8	27.869	0	93.231	0	242.8	4	90.8	4	-1E+10	1	-1E+10	1	-1E+10	1	-1E+10	1	-1E+10	1	-1E+10	1
4901784	218	C	06/23/2021	10:50	-136.398	43.166	0	95.80	0	10.7150	0	36.3400	8	27.874	0	95.016	0	242.6	4	90.6	4	-1E+10	1	-1E+10	1	-1E+10	1	-1E+10	1	-1E+10	1	-1E+10	1
4901784	218	C	06/23/2021	10:50	-136.398	43.166	0	97.70	0	10.5550	0	36.3340	8	27.899	0	96.900	0	243.0	4	90.4	4	-1E+10	1	-1E+10	1	-1E+10	1	-1E+10	1	-1E+10	1	-1E+10	1
4901784	218	C	06/23/2021	10:50	-136.398	43.166	0	99.50	0	10.5370	0	36.3380	8	27.905	0	98.685	0	242.1	4	90.0	4	-1E+10	1	-1E+10	1	-1E+10	1	-1E+10	1	-1E+10	1	-1E+10	1
4901784	218	C	06/23/2021	10:50	-136.398	43.166	0	102.20	0	10.6440	0	36.3780	8	27.917	0	101.362	0	241.0	4	89.9	4	-1E+10	1	-1E+10	1	-1E+10	1	-1E+10	1	-1E+10	1	-1E+10	1
4901784	218	C	06/23/2021	10:50	-136.398	43.166	0	104.80	0	10.6610	0	36.3730	8	27.910	0	103.940	0	240.7	4	89.8	4	-1E+10	1	-1E+10	1	-1E+10	1	-1E+10	1	-1E+10	1	-1E+10	1
4901784	218	C	06/23/2021	10:50	-136.398	43.166	0	107.50	0	10.6070	0	36.3580	8	27.908	0	106.618	0	241.1	4	89.8	4	-1E+10	1	-1E+10	1	-1E+10	1	-1E+10	1	-1E+10	1	-1E+10	1
4901784	218	C	06/23/2021	10:50	-136.398	43.166	0	110.20	0	10.3190	0	36.3320	8	27.939	0	109.295	0	243.6	4	90.2	4	-1E+10	1	-1E+10	1	-1E+10	1	-1E+10	1	-1E+10	1	-1E+10	1
4901784	218	C	06/23/2021	10:50	-136.398	43.166	0	112.10	0	10.0980	0	36.3100	8	27.961	0	111.179	0	245.4	4	90.4	4	-1E+10	1	-1E+10	1	-1E+10	1	-1E+10	1	-1E+10	1	-1E+10	1
4901784	218	C	06/23/2021	10:50	-136.398	43.166	0	114.90	0	9.6900	0	36.2680	8	27.999	0	113.955	0	248.6	4	90.7	4	-1E+10	1	-1E+10	1	-1E+10	1	-1E+10	1	-1E+10	1	-1E+10	1
4901784	218	C	06/23/2021	10:50	-136.398	43.166	0	117.70	0	9.4920	0	36.2590	8	28.025	0	116.731	0	248.4	4	90.3	4	-1E+10	1	-1E+10	1	-1E+10	1	-1E+10	1	-1E+10	1	-1E+10	1
4901784	218	C	06/23/2021	10:50	-136.398	43.166	0	119.70	0	9.3650	0	36.2640	8	28.051	0	118.714	0	247.7	4	89.8	4	-1E+10	1	-1E+10	1	-1E+10	1	-1E+10	1	-1E+10	1	-1E+10	1
4901784	218	C	06/23/2021	10:50	-136.398	43.166	0	122.10	0	9.2500	0	36.2800	8	28.082	0	121.094	0	244.9	4	88.5	4	-1E+10	1	-1E+10	1	-1E+10	1	-1E+10	1	-1E+10	1	-1E+10	1
4901784	218	C	06/23/2021	10:50	-136.398	43.166	0	124.70	0	9.2490	0	36.3350	8	28.126	0	123.671	0	239.3	4	86.6	4	-1E+10	1	-1E+10	1	-1E+10	1	-1E+10	1	-1E+10	1	-1E+10	1
4901784	218	C	06/23/2021	10:50	-136.398	43.166	0	127.60	0	9.2790	0	36.3920	8	28.165	0	126.547	0	232.5	4	84.2	4	-1E+10	1	-1E+10	1	-1E+10	1	-1E+10	1	-1E+10	1	-1E+10	1
4901784	218	C	06/23/2021	10:50	-136.398	43.166	0	130.00	0	9.3470	0	36.4520	8	28.201	0	128.926	0	226.4	4	82.1	4	-1E+10	1	-1E+10	1	-1E+10	1	-1E+10	1	-1E+10	1	-1E+10	1
4901784	218	C	06/23/2021	10:50	-136.398	43.166	0	132.50	0	9.4860	0	36.5480	8	28.253	0	131.404	0	220.6	4	80.3	4	-1E+10	1	-1E+10	1	-1E+10	1	-1E+10	1	-1E+10	1	-1E+10	1
4901784	218	C	06/23/2021	10:50	-136.398	43.166	0	134.90	0	9.4850	0	36.6080	8	28.300	0	133.784	0	215.5	4	78.5	4	-1E+10	1	-1E+10	1	-1E+10	1	-1E+10	1	-1E+10	1	-1E+10	1
4901784	218	C	06/23/2021	10:50	-136.398	43.166	0	136.90	0	9.3180	0	36.6940	8	28.396	0	135.767	0	212.6	4	77.2	4	-1E+10	1	-1E+10	1	-1E+10	1	-1E+10	1	-1E+10	1	-1E+10	1
4901784	218	C	06/23/2021	10:50	-136.398	43.166	0	139.70	0	9.2550	0	36.7640	8	28.461	0	138.543	0	209.0	4	75.9	4	-1E+10	1	-1E+10	1	-1E+10	1	-1E+10	1	-1E+10	1	-1E+10	1
4901784	218	C	06/23/2021	10:50	-136.398	43.166	0	142.70	0	9.3040	0	36.8520	8	28.522	0	141.517	0	204.8	4	74.5	4	-1E+10	1	-1E+10	1	-1E+10	1	-1E+10	1	-1E+10	1	-1E+10	1
4901784	218	C	06/23/2021	10:50	-136.398	43.166	0	145.00	0	9.3140	0	36.9300	8	28.581	0	143.797	0	202.2	4	73.5	4	-1E+10	1	-1E+10	1	-1E+10	1	-1E+10	1	-1E+10	1	-1E+10	1
4901784	218	C	06/23/2021	10:50	-136.398	43.166	0	147.50	0	9.1740	0	37.0120	8	28.669	0	146.275	0	200.7	4	72.8	4	-1E+10	1	-1E+10	1	-1E+10	1	-1E+10	1	-1E+10	1	-1E+10	1
4901784	218	C	06/23/2021	10:50	-136.398	43.166	0	150.00	0	9.1160	0	37.0360	8	28.698	0	148.754	0	199.9	4	72.5	4	-1E+10	1	-1E+10	1	-1E+10	1	-1E+10	1	-1E+10	1	-1E+10	1
4901784	218	C	06/23/2021	10:50	-136.398	43.166	0	152.70	0	9.0930	0	37.0540	8	28.716	0	151.430	0	198.3	4	71.9	4	-1E+10	1	-1E+10	1	-1E+10	1	-1E+10	1	-1E+10	1	-1E+10	1
4901784	218	C	06/23/2021	10:50	-136.398	43.166	0	155.30	0	9.0550	0	37.1310	8	28.782	0	154.007	0	196.2	4	71.1	4	-1E+10	1	-1E+10	1	-1E+10	1	-1E+10	1	-1E+10	1	-1E+10	1
4901784	218	C	06/23/2021	10:50	-136.398	43.166	0	157.10	0	9.0050	0	37.1410	8	28.798	0	155.792	0	195.3	4	70.7	4	-1E+10	1	-1E+10	1	-1E+10	1	-1E+10	1	-1E+10	1	-1E+10	1
4901784	218	C	06/23/2021	10:50	-136.398	43.166	0	159.80	0	8.8670	0	37.1830	8	28.854	0	158.468	0	194.2	4	70.1	4	-1E+10	1	-1E+10	1	-1E+10	1	-1E+10	1	-1E+10	1	-1E+10	1
4901784	218	C	06/23/2021	10:50	-136.398	43.166	0	162.20	0	8.7970	0	37.2380	8	28.909	0	160.847	0	193.2	4	69.7	4	-1E+10	1	-1E+10	1	-1E+10	1	-1E+10	1	-1E+10	1	-1E+10	1
4901784	218	C	06/23/2021	10:50	-136.398	43.166	0	165.40	0	8.7790	0	37.3040	8	28.964	0	164.019	0	192.0	4	69.2	4	-1E+10	1	-1E+10	1	-1E+10	1	-1E+10	1	-1E+10	1	-1E+10	1
4901784	218	C	06/23/2021	10:50	-136.398	43.166	0	167.80	0	8.7480	0	37.3260	8	28.986	0	166.398	0	191.7	4	69.1	4	-1E+10	1	-1E+10	1	-1E+10	1	-1E+10	1	-1E+10	1	-1E+10	1
4901784	218	C	06/23/2021	10:50	-136.398	43.166	0	170.20	0	8.6040	0	37.3510	8	29.029	0	168.777	0	191.6	4	68.8	4	-1E+10	1	-1E+10	1	-1E+10	1	-1E+10	1	-1E+10	1	-1E+10	1
4901784	218	C	06/23/2021	10:50	-136.398	43.166	0	172.60	0	8.5580	0	37.3760	8	29.056	0	171.156	0	191.0	4	68.6	4	-1E+10	1	-1E+10	1	-1E+10	1	-1E+10	1	-1E+10	1	-1E+10	1
4901784	218	C	06/23/2021	10:50	-136.398	43.166	0	175.00	0	8.4620	0	37.4130	8	29.101	0	173.535	0	190.5	4	68.3	4	-1E+10	1	-1E+10	1	-1E+10	1	-1E+10	1	-1E+10	1	-1E+10	1
4901784	218	C	06/23/2021	10:50	-136.398	43.166	0	177.40	0	8.5790	0	37.4870	8	29.140	0	175.914	0	189.1	4	68.0	4	-1E+10	1	-1E+10	1	-1E+10	1	-1E+10	1	-1E+10	1	-1E+10	1
4901784	218	C	06/23/2021	10:50	-136.398	43.166	0	179.80	0	8.5500	0	37.5320	8	29.180	0	178.293	0	188.3	4	67.7	4	-1E+10	1	-1E+10	1	-1E+10	1	-1E+10	1	-1E+10	1	-1E+10	1
4901784	218	C	06/23/2021	10:50	-136.398	43.166	0	182.20	0	8.5380	0	37.5460	8	29.193	0	180.672	0	187.9	4	67.5	4	-1E+10	1	-1E+10	1	-1E+10	1	-1E+10	1	-1E+10	1	-1E+10	1
4901784	218	C	06/23/2021	10:50	-136.398	43.166	0	184.60	0	8.5280	0	37.5630	8	29.208	0	183.051	0	187.6	4	67.4	4	-1E+10	1	-1E+10	1	-1E+10	1	-1E+10	1	-1E+10	1	-1E+10	1
4901784	218	C	06/23/2021	10:50	-136.398	43.166	0	187.90	0	8.4680	0	37.5710	8	29.224	0	186.321	0	187.2	4	67.2	4	-1E+10	1	-1E+10	1	-1E+10	1	-1E+10	1	-1E+10	1	-1E+10	1
4901784	218	C	06/23/2021	10:50	-136.398	43.166	0	190.40	0	8.3740	0	37.5740	8	29.242	0	188.799	0	187.6	4	67.2	4	-1E+10	1	-1E+10	1	-1E+10	1	-1E+10	1	-1E+10	1	-1E+10	1
4901784	218	C	06/23/2021	10:50	-136.398	43.166	0	192.10	0	8.3540	0	37.5760	8	29.246	0	190.484	0	187.5	4	67.1	4	-1E+10	1	-1E+10	1	-1E+10	1	-1E+10	1	-1E+10	1	-1E+10	1
4901784	218	C	06/23/2021	10:50	-136.398	43.166	0	194.60	0	8.2780	0	37.5920	8	29.271	0	192.962	0	187.5	4	67.0	4	-1E+10	1	-1E+10	1	-1E+10	1	-1E+10	1	-1E+10	1	-1E+10	1
4901784	218	C	06/23/2021	10:50	-136.398	43.166	0	197.90	0	8.2600	0	37.6150	8	29.292	0	196.233	0	187.5	4	67.0	4	-1E+10	1	-1E+10	1	-1E+10	1	-1E+10	1	-1E+10	1	-1E+10	1
4901784	218	C	06/23/2021	10:50	-136.398	43.166	0	200.40	0	8.2250	0	37.6240	8	29.305	0	198.710	0	187.3	4	66.9	4	-1E+10	1	-1E+10	1	-1E+10	1	-1E+10	1	-1E+10	1	-1E+10	1
4901784	218	C	06/23/2021	10:50	-136.398	43.166	0	202.80	0	8.1400	0	37.6350	8	29.327	0	201.089	0	187.0	4	66.7	4	-1E+10	1	-1E+10	1	-1E+10	1	-1E+10	1	-1E+10	1	-1E+10	1
4901784	218	C	06/23/2021	10:50	-136.398	43.166	0	205.20	0	8.0690	0	37.6420	8	29.344	0	203.468	0	186.5	4	66.4	4	-1E+10	1	-1E+10	1	-1E+10	1	-1E+10	1	-1E+10	1	-1E+10	1
4901784	218	C	06/23/2021	10:50	-136.398	43.166	0	207.70	0	8.0360	0	37.6420	8	29.349	0	205.945	0	185.9	4	66.1	4	-1E+10	1	-1E+10	1	-1E+10	1	-1E+10	1	-1E+10	1	-1E+10	1
4901784	218	C	06/23/2021	10:50	-136.398	43.166	0	210.10	0	7.9750	0	37.6460	8	29.361	0	208.324	0	185.3	4	65.8	4	-1E+10	1	-1E+10	1	-1E+10	1	-1E+10	1	-1E+10	1	-1E+10	1
4901784	218	C	06/23/2021	10:50	-136.398	43.166	0	212.60	0	7.8920	0	37.6560	8	29.382	0	210.801	0	184.9	4	65.5	4	-1E+10	1	-1E+10	1	-1E+10	1	-1E+10	1	-1E+10	1	-1E+10	1
4901784	218	C	06/23/2021	10:50	-136.398	43.166	0	215.10	0	7.8820	0	37.6580	8	29.385	0	213.279	0	183.9	4	65.2	4	-1E+10	1	-1E+10	1	-1E+10	1	-1E+10	1	-1E+10	1	-1E+10	1
4901784	218	C	06/23/2021	10:50	-136.398	43.166	0	217.60	0	7.8580	0	37.6600	8	29.391	0	215.756	0	182.7	4	64.7	4	-1E+10	1	-1E+10	1	-1E+10	1	-1E+10	1	-1E+10	1	-1E+10	1
4901784	218	C	06/23/2021	10:50	-136.398	43.166	0	220.20	0	7.8260	0	37.6660	8	29.400	0	218.333	0	181.5	4	64.2	4	-1E+10	1	-1E+10	1	-1E+10	1	-1E+10	1	-1E+10	1	-1E+10	1
4901784	218	C	06/23/2021	10:50	-136.398	43.166	0	222.60	0	7.8140	0	37.6720	8	29.407	0	220.711	0	180.0	4	63.7	4	-1E+10	1	-1E+10	1	-1E+10	1	-1E+10	1	-1E+10	1	-1E+10	1
4901784	218	C	06/23/2021	10:50	-136.398	43.166	0	225.10	0	7.8190	0	37.6770	8	29.410	0	223.189	0	178.5	4	63.2	4	-1E+10	1	-1E+10	1	-1E+10	1	-1E+10	1	-1E+10	1	-1E+10	1
4901784	218	C	06/23/2021	10:50	-136.398	43.166	0	227.60	0	7.7850	0	37.6800	8	29.418	0	225.666	0	177.2	4	62.7	4	-1E+10	1	-1E+10	1	-1E+10	1	-1E+10	1	-1E+10	1	-1E+10	1
4901784	218	C	06/23/2021	10:50	-136.398	43.166	0	230.10	0	7.7420	0	37.6830	8	29.427	0	228.144	0	175.9	4	62.2	4	-1E+10	1	-1E+10	1	-1E+10	1	-1E+10	1	-1E+10	1	-1E+10	1
4901784	218	C	06/23/2021	10:50	-136.398	43.166	0	232.60	0	7.6790	0	37.6870	8	29.440	0	230.621	0	174.8	4	61.7	4	-1E+10	1	-1E+10	1	-1E+10	1	-1E+10	1	-1E+10	1	-1E+10	1
4901784	218	C	06/23/2021	10:50	-136.398	43.166	0	235.20	0	7.6350	0	37.6830	8	29.443	0	233.197	0	173.2	4	61.1	4	-1E+10	1	-1E+10	1	-1E+10	1	-1E+10	1	-1E+10	1	-1E+10	1
4901784	218	C	06/23/2021	10:50	-136.398	43.166	0	237.80	0	7.6090	0	37.6850	8	29.449	0	235.774	0	170.8	4	60.2	4	-1E+10	1	-1E+10	1	-1E+10	1	-1E+10	1	-1E+10	1	-1E+10	1
4901784	218	C	06/23/2021	10:50	-136.398	43.166	0	240.40	0	7.5750	0	37.6950	8	29.462	0	238.350	0	168.0	4	59.1	4	-1E+10	1	-1E+10	1	-1E+10	1	-1E+10	1	-1E+10	1	-1E+10	1
4901784	218	C	06/23/2021	10:50	-136.398	43.166	0	242.30	0	7.5630	0	37.7050	8	29.472	0	240.233	0	166.1	4	58.5	4	-1E+10	1	-1E+10	1	-1E+10	1	-1E+10	1	-1E+10	1	-1E+10	1
4901784	218	C	06/23/2021	10:50	-136.398	43.166	0	244.90	0	7.5690	0	37.7170	8	29.480	0	242.809	0	163.2	4	57.5	4	-1E+10	1	-1E+10	1	-1E+10	1	-1E+10	1	-1E+10	1	-1E+10	1
4901784	218	C	06/23/2021	10:50	-136.398	43.166	0	247.60	0	7.6050	0	37.7330	8	29.487	0	245.485	0	160.5	4	56.6	4	-1E+10	1	-1E+10	1	-1E+10	1	-1E+10	1	-1E+10	1	-1E+10	1
4901784	218	C	06/23/2021	10:50	-136.398	43.166	0	250.20	0	7.5540	0	37.7390	8	29.500	0	248.061	0	158.5	4	55.8	4	-1E+10	1	-1E+10	1	-1E+10	1	-1E+10	1	-1E+10	1	-1E+10	1
4901784	218	C	06/23/2021	10:50	-136.398	43.166	0	252.80	0	7.5080	0	37.7420	8	29.509	0	250.637	0	157.0	4	55.2	4	-1E+10	1	-1E+10	1	-1E+10	1	-1E+10	1	-1E+10	1	-1E+10	1
4901784	218	C	06/23/2021	10:50	-136.398	43.166	0	255.40	0	7.4650	0	37.7450	8	29.518	0	253.213	0	155.4	4	54.6	4	-1E+10	1	-1E+10	1	-1E+10	1	-1E+10	1	-1E+10	1	-1E+10	1
4901784	218	C	06/23/2021	10:50	-136.398	43.166	0	258.00	0	7.4710	0	37.7460	8	29.518	0	255.789	0	153.4	4	53.9	4	-1E+10	1	-1E+10	1	-1E+10	1	-1E+10	1	-1E+10	1	-1E+10	1
4901784	218	C	06/23/2021	10:50	-136.398	43.166	0	259.70	0	7.4380	0	37.7470	8	29.524	0	257.474	0	152.4	4	53.5	4	-1E+10	1	-1E+10	1	-1E+10	1	-1E+10	1	-1E+10	1	-1E+10	1
4901784	218	C	06/23/2021	10:50	-136.398	43.166	0	262.40	0	7.3660	0	37.7500	8	29.537	0	260.149	0	151.9	4	53.3	4	-1E+10	1	-1E+10	1	-1E+10	1	-1E+10	1	-1E+10	1	-1E+10	1
4901784	218	C	06/23/2021	10:50	-136.398	43.166	0	265.00	0	7.3300	0	37.7530	8	29.545	0	262.725	0	152.6	4	53.5	4	-1E+10	1	-1E+10	1	-1E+10	1	-1E+10	1	-1E+10	1	-1E+10	1
4901784	218	C	06/23/2021	10:50	-136.398	43.166	0	267.70	0	7.2940	0	37.7580	8	29.554	0	265.400	0	152.3	4	53.3	4	-1E+10	1	-1E+10	1	-1E+10	1	-1E+10	1	-1E+10	1	-1E+10	1
4901784	218	C	06/23/2021	10:50	-136.398	43.166	0	270.30	0	7.3010	0	37.7610	8	29.556	0	267.976	0	151.4	4	53.0	4	-1E+10	1	-1E+10	1	-1E+10	1	-1E+10	1	-1E+10	1	-1E+10	1
4901784	218	C	06/23/2021	10:50	-136.398	43.166	0	272.10	0	7.2950	0	37.7650	8	29.560	0	269.759	0	150.8	4	52.8	4	-1E+10	1	-1E+10	1	-1E+10	1	-1E+10	1	-1E+10	1	-1E+10	1
4901784	218	C	06/23/2021	10:50	-136.398	43.166	0	274.80	0	7.2690	0	37.7650	8	29.564	0	272.434	0	150.1	4	52.5	4	-1E+10	1	-1E+10	1	-1E+10	1	-1E+10	1	-1E+10	1	-1E+10	1
4901784	218	C	06/23/2021	10:50	-136.398	43.166	0	277.40	0	7.2580	0	37.7680	8	29.568	0	275.010	0	149.2	4	52.2	4	-1E+10	1	-1E+10	1	-1E+10	1	-1E+10	1	-1E+10	1	-1E+10	1
4901784	218	C	06/23/2021	10:50	-136.398	43.166	0	280.10	0	7.2390	0	37.7680	8	29.570	0	277.685	0	148.3	4	51.9	4	-1E+10	1	-1E+10	1	-1E+10	1	-1E+10	1	-1E+10	1	-1E+10	1
4901784	218	C	06/23/2021	10:50	-136.398	43.166	0	282.80	0	7.2030	0	37.7740	8	29.581	0	280.360	0	147.3	4	51.5	4	-1E+10	1	-1E+10	1	-1E+10	1	-1E+10	1	-1E+10	1	-1E+10	1
4901784	218	C	06/23/2021	10:50	-136.398	43.166	0	284.70	0	7.1660	0	37.7740	8	29.586	0	282.242	0	146.9	4	51.3	4	-1E+10	1	-1E+10	1	-1E+10	1	-1E+10	1	-1E+10	1	-1E+10	1
4901784	218	C	06/23/2021	10:50	-136.398	43.166	0	287.30	0	7.1480	0	37.7710	8	29.586	0	284.818	0	146.1	4	51.0	4	-1E+10	1	-1E+10	1	-1E+10	1	-1E+10	1	-1E+10	1	-1E+10	1
4901784	218	C	06/23/2021	10:50	-136.398	43.166	0	290.00	0	7.0810	0	37.7720	8	29.597	0	287.493	0	145.1	4	50.6	4	-1E+10	1	-1E+10	1	-1E+10	1	-1E+10	1	-1E+10	1	-1E+10	1
4901784	218	C	06/23/2021	10:50	-136.398	43.166	0	292.70	0	7.0540	0	37.7780	8	29.606	0	290.168	0	143.8	4	50.1	4	-1E+10	1	-1E+10	1	-1E+10	1	-1E+10	1	-1E+10	1	-1E+10	1
4901784	218	C	06/23/2021	10:50	-136.398	43.166	0	295.40	0	7.0190	0	37.7800	8	29.612	0	292.842	0	142.9	4	49.7	4	-1E+10	1	-1E+10	1	-1E+10	1	-1E+10	1	-1E+10	1	-1E+10	1
4901784	218	C	06/23/2021	10:50	-136.398	43.166	0	297.20	0	7.0060	0	37.7810	8	29.615	0	294.625	0	141.9	4	49.4	4	-1E+10	1	-1E+10	1	-1E+10	1	-1E+10	1	-1E+10	1	-1E+10	1
4901784	218	C	06/23/2021	10:50	-136.398	43.166	0	299.90	0	6.9860	0	37.7800	8	29.617	0	297.300	0	140.5	4	48.9	4	-1E+10	1	-1E+10	1	-1E+10	1	-1E+10	1	-1E+10	1	-1E+10	1
4901784	218	C	06/23/2021	10:50	-136.398	43.166	0	302.60	0	6.9470	0	37.7800	8	29.623	0	299.975	0	139.2	4	48.3	4	-1E+10	1	-1E+10	1	-1E+10	1	-1E+10	1	-1E+10	1	-1E+10	1
4901784	218	C	06/23/2021	10:50	-136.398	43.166	0	305.30	0	6.9200	0	37.7800	8	29.627	0	302.649	0	138.5	4	48.1	4	-1E+10	1	-1E+10	1	-1E+10	1	-1E+10	1	-1E+10	1	-1E+10	1
4901784	218	C	06/23/2021	10:50	-136.398	43.166	0	308.10	0	6.8880	0	37.7770	8	29.629	0	305.423	0	137.7	4	47.8	4	-1E+10	1	-1E+10	1	-1E+10	1	-1E+10	1	-1E+10	1	-1E+10	1
4901784	218	C	06/23/2021	10:50	-136.398	43.166	0	309.90	0	6.8570	0	37.7820	8	29.638	0	307.206	0	136.8	4	47.4	4	-1E+10	1	-1E+10	1	-1E+10	1	-1E+10	1	-1E+10	1	-1E+10	1
4901784	218	C	06/23/2021	10:50	-136.398	43.166	0	312.70	0	6.8440	0	37.7870	8	29.644	0	309.980	0	135.9	4	47.1	4	-1E+10	1	-1E+10	1	-1E+10	1	-1E+10	1	-1E+10	1	-1E+10	1
4901784	218	C	06/23/2021	10:50	-136.398	43.166	0	315.70	0	6.8280	0	37.7880	8	29.647	0	312.951	0	135.0	4	46.8	4	-1E+10	1	-1E+10	1	-1E+10	1	-1E+10	1	-1E+10	1	-1E+10	1
4901784	218	C	06/23/2021	10:50	-136.398	43.166	0	317.10	0	6.8210	0	37.7880	8	29.648	0	314.338	0	134.6	4	46.6	4	-1E+10	1	-1E+10	1	-1E+10	1	-1E+10	1	-1E+10	1	-1E+10	1
4901784	218	C	06/23/2021	10:50	-136.398	43.166	0	320.20	0	6.8000	0	37.7910	8	29.653	0	317.409	0	132.9	4	46.0	4	-1E+10	1	-1E+10	1	-1E+10	1	-1E+10	1	-1E+10	1	-1E+10	1
4901784	218	C	06/23/2021	10:50	-136.398	43.166	0	322.50	0	6.7820	0	37.7920	8	29.657	0	319.687	0	132.0	4	45.7	4	-1E+10	1	-1E+10	1	-1E+10	1	-1E+10	1	-1E+10	1	-1E+10	1
4901784	218	C	06/23/2021	10:50	-136.398	43.166	0	324.80	0	6.7360	0	37.7930	8	29.664	0	321.965	0	131.5	4	45.5	4	-1E+10	1	-1E+10	1	-1E+10	1	-1E+10	1	-1E+10	1	-1E+10	1
4901784	218	C	06/23/2021	10:50	-136.398	43.166	0	328.00	0	6.6760	0	37.7950	8	29.674	0	325.134	0	130.9	4	45.2	4	-1E+10	1	-1E+10	1	-1E+10	1	-1E+10	1	-1E+10	1	-1E+10	1
4901784	218	C	06/23/2021	10:50	-136.398	43.166	0	330.40	0	6.6530	0	37.7950	8	29.677	0	327.512	0	130.5	4	45.1	4	-1E+10	1	-1E+10	1	-1E+10	1	-1E+10	1	-1E+10	1	-1E+10	1
4901784	218	C	06/23/2021	10:50	-136.398	43.166	0	332.80	0	6.6350	0	37.7960	8	29.681	0	329.889	0	130.0	4	44.8	4	-1E+10	1	-1E+10	1	-1E+10	1	-1E+10	1	-1E+10	1	-1E+10	1
4901784	218	C	06/23/2021	10:50	-136.398	43.166	0	335.20	0	6.5960	0	37.7980	8	29.688	0	332.266	0	129.2	4	44.5	4	-1E+10	1	-1E+10	1	-1E+10	1	-1E+10	1	-1E+10	1	-1E+10	1
4901784	218	C	06/23/2021	10:50	-136.398	43.166	0	337.70	0	6.5800	0	37.7970	8	29.689	0	334.742	0	128.2	4	44.2	4	-1E+10	1	-1E+10	1	-1E+10	1	-1E+10	1	-1E+10	1	-1E+10	1
4901784	218	C	06/23/2021	10:50	-136.398	43.166	0	340.10	0	6.5570	0	37.7990	8	29.694	0	337.119	0	126.6	4	43.6	4	-1E+10	1	-1E+10	1	-1E+10	1	-1E+10	1	-1E+10	1	-1E+10	1
4901784	218	C	06/23/2021	10:50	-136.398	43.166	0	342.60	0	6.5020	0	37.8050	8	29.707	0	339.595	0	125.1	4	43.0	4	-1E+10	1	-1E+10	1	-1E+10	1	-1E+10	1	-1E+10	1	-1E+10	1
4901784	218	C	06/23/2021	10:50	-136.398	43.166	0	345.10	0	6.4750	0	37.8060	8	29.711	0	342.071	0	124.5	4	42.8	4	-1E+10	1	-1E+10	1	-1E+10	1	-1E+10	1	-1E+10	1	-1E+10	1
4901784	218	C	06/23/2021	10:50	-136.398	43.166	0	347.60	0	6.4450	0	37.8050	8	29.715	0	344.547	0	124.2	4	42.7	4	-1E+10	1	-1E+10	1	-1E+10	1	-1E+10	1	-1E+10	1	-1E+10	1
4901784	218	C	06/23/2021	10:50	-136.398	43.166	0	350.20	0	6.3920	0	37.8050	8	29.722	0	347.122	0	124.1	4	42.6	4	-1E+10	1	-1E+10	1	-1E+10	1	-1E+10	1	-1E+10	1	-1E+10	1
4901784	218	C	06/23/2021	10:50	-136.398	43.166	0	352.70	0	6.3690	0	37.8050	8	29.725	0	349.598	0	123.8	4	42.4	4	-1E+10	1	-1E+10	1	-1E+10	1	-1E+10	1	-1E+10	1	-1E+10	1
4901784	218	C	06/23/2021	10:50	-136.398	43.166	0	355.10	0	6.3350	0	37.8030	8	29.729	0	351.975	0	123.5	4	42.3	4	-1E+10	1	-1E+10	1	-1E+10	1	-1E+10	1	-1E+10	1	-1E+10	1
4901784	218	C	06/23/2021	10:50	-136.398	43.166	0	357.60	0	6.2770	0	37.8040	8	29.737	0	354.451	0	123.2	4	42.2	4	-1E+10	1	-1E+10	1	-1E+10	1	-1E+10	1	-1E+10	1	-1E+10	1
4901784	218	C	06/23/2021	10:50	-136.398	43.166	0	360.10	0	6.2540	0	37.8010	8	29.738	0	356.926	0	122.6	4	41.9	4	-1E+10	1	-1E+10	1	-1E+10	1	-1E+10	1	-1E+10	1	-1E+10	1
4901784	218	C	06/23/2021	10:50	-136.398	43.166	0	362.50	0	6.2130	0	37.8040	8	29.746	0	359.303	0	121.6	4	41.5	4	-1E+10	1	-1E+10	1	-1E+10	1	-1E+10	1	-1E+10	1	-1E+10	1
4901784	218	C	06/23/2021	10:50	-136.398	43.166	0	365.00	0	6.1660	0	37.8040	8	29.753	0	361.779	0	120.5	4	41.1	4	-1E+10	1	-1E+10	1	-1E+10	1	-1E+10	1	-1E+10	1	-1E+10	1
4901784	218	C	06/23/2021	10:50	-136.398	43.166	0	367.50	0	6.1240	0	37.8070	8	29.761	0	364.255	0	119.6	4	40.8	4	-1E+10	1	-1E+10	1	-1E+10	1	-1E+10	1	-1E+10	1	-1E+10	1
4901784	218	C	06/23/2021	10:50	-136.398	43.166	0	370.10	0	6.0600	0	37.8090	8	29.771	0	366.829	0	118.6	4	40.4	4	-1E+10	1	-1E+10	1	-1E+10	1	-1E+10	1	-1E+10	1	-1E+10	1
4901784	218	C	06/23/2021	10:50	-136.398	43.166	0	372.70	0	6.0370	0	37.8090	8	29.774	0	369.404	0	117.6	4	40.0	4	-1E+10	1	-1E+10	1	-1E+10	1	-1E+10	1	-1E+10	1	-1E+10	1
4901784	218	C	06/23/2021	10:50	-136.398	43.166	0	375.20	0	5.9980	0	37.8130	8	29.783	0	371.880	0	116.7	4	39.7	4	-1E+10	1	-1E+10	1	-1E+10	1	-1E+10	1	-1E+10	1	-1E+10	1
4901784	218	C	06/23/2021	10:50	-136.398	43.166	0	377.80	0	5.9870	0	37.8120	8	29.783	0	374.454	0	115.6	4	39.3	4	-1E+10	1	-1E+10	1	-1E+10	1	-1E+10	1	-1E+10	1	-1E+10	1
4901784	218	C	06/23/2021	10:50	-136.398	43.166	0	380.40	0	5.9500	0	37.8150	8	29.791	0	377.029	0	114.4	4	38.9	4	-1E+10	1	-1E+10	1	-1E+10	1	-1E+10	1	-1E+10	1	-1E+10	1
4901784	218	C	06/23/2021	10:50	-136.398	43.166	0	382.90	0	5.9350	0	37.8130	8	29.791	0	379.505	0	112.9	4	38.3	4	-1E+10	1	-1E+10	1	-1E+10	1	-1E+10	1	-1E+10	1	-1E+10	1
4901784	218	C	06/23/2021	10:50	-136.398	43.166	0	385.40	0	5.8870	0	37.8170	8	29.801	0	381.980	0	111.4	4	37.8	4	-1E+10	1	-1E+10	1	-1E+10	1	-1E+10	1	-1E+10	1	-1E+10	1
4901784	218	C	06/23/2021	10:50	-136.398	43.166	0	387.20	0	5.8650	0	37.8190	8	29.805	0	383.763	0	110.5	4	37.5	4	-1E+10	1	-1E+10	1	-1E+10	1	-1E+10	1	-1E+10	1	-1E+10	1
4901784	218	C	06/23/2021	10:50	-136.398	43.166	0	389.70	0	5.8340	0	37.8220	8	29.812	0	386.238	0	109.2	4	37.0	4	-1E+10	1	-1E+10	1	-1E+10	1	-1E+10	1	-1E+10	1	-1E+10	1
4901784	218	C	06/23/2021	10:50	-136.398	43.166	0	392.20	0	5.8090	0	37.8220	8	29.815	0	388.713	0	107.9	4	36.5	4	-1E+10	1	-1E+10	1	-1E+10	1	-1E+10	1	-1E+10	1	-1E+10	1
4901784	218	C	06/23/2021	10:50	-136.398	43.166	0	394.70	0	5.7750	0	37.8250	8	29.822	0	391.189	0	106.5	4	36.0	4	-1E+10	1	-1E+10	1	-1E+10	1	-1E+10	1	-1E+10	1	-1E+10	1
4901784	218	C	06/23/2021	10:50	-136.398	43.166	0	397.30	0	5.7330	0	37.8290	8	29.831	0	393.763	0	105.2	4	35.6	4	-1E+10	1	-1E+10	1	-1E+10	1	-1E+10	1	-1E+10	1	-1E+10	1
4901784	218	C	06/23/2021	10:50	-136.398	43.166	0	399.90	0	5.7170	0	37.8280	8	29.832	0	396.338	0	103.8	4	35.1	4	-1E+10	1	-1E+10	1	-1E+10	1	-1E+10	1	-1E+10	1	-1E+10	1
4901784	218	C	06/23/2021	10:50	-136.398	43.166	0	402.50	0	5.6700	0	37.8350	8	29.844	0	398.912	0	102.2	4	34.5	4	-1E+10	1	-1E+10	1	-1E+10	1	-1E+10	1	-1E+10	1	-1E+10	1
4901784	218	C	06/23/2021	10:50	-136.398	43.166	0	405.10	0	5.6510	0	37.8380	8	29.849	0	401.486	0	100.9	4	34.0	4	-1E+10	1	-1E+10	1	-1E+10	1	-1E+10	1	-1E+10	1	-1E+10	1
4901784	218	C	06/23/2021	10:50	-136.398	43.166	0	407.60	0	5.6380	0	37.8380	8	29.851	0	403.962	0	99.7	4	33.6	4	-1E+10	1	-1E+10	1	-1E+10	1	-1E+10	1	-1E+10	1	-1E+10	1
4901784	218	C	06/23/2021	10:50	-136.398	43.166	0	410.20	0	5.6130	0	37.8400	8	29.856	0	406.536	0	98.1	4	33.1	4	-1E+10	1	-1E+10	1	-1E+10	1	-1E+10	1	-1E+10	1	-1E+10	1
4901784	218	C	06/23/2021	10:50	-136.398	43.166	0	412.80	0	5.5760	0	37.8440	8	29.864	0	409.110	0	96.7	4	32.6	4	-1E+10	1	-1E+10	1	-1E+10	1	-1E+10	1	-1E+10	1	-1E+10	1
4901784	218	C	06/23/2021	10:50	-136.398	43.166	0	414.60	0	5.5460	0	37.8470	8	29.870	0	410.892	0	95.9	4	32.3	4	-1E+10	1	-1E+10	1	-1E+10	1	-1E+10	1	-1E+10	1	-1E+10	1
4901784	218	C	06/23/2021	10:50	-136.398	43.166	0	417.20	0	5.5180	0	37.8470	8	29.873	0	413.466	0	94.8	4	31.9	4	-1E+10	1	-1E+10	1	-1E+10	1	-1E+10	1	-1E+10	1	-1E+10	1
4901784	218	C	06/23/2021	10:50	-136.398	43.166	0	419.90	0	5.4800	0	37.8520	8	29.882	0	416.139	0	93.6	4	31.5	4	-1E+10	1	-1E+10	1	-1E+10	1	-1E+10	1	-1E+10	1	-1E+10	1
4901784	218	C	06/23/2021	10:50	-136.398	43.166	0	422.50	0	5.4560	0	37.8540	8	29.887	0	418.714	0	92.6	4	31.1	4	-1E+10	1	-1E+10	1	-1E+10	1	-1E+10	1	-1E+10	1	-1E+10	1
4901784	218	C	06/23/2021	10:50	-136.398	43.166	0	425.10	0	5.4220	0	37.8560	8	29.893	0	421.288	0	91.6	4	30.8	4	-1E+10	1	-1E+10	1	-1E+10	1	-1E+10	1	-1E+10	1	-1E+10	1
4901784	218	C	06/23/2021	10:50	-136.398	43.166	0	427.70	0	5.4080	0	37.8570	8	29.896	0	423.862	0	90.4	4	30.3	4	-1E+10	1	-1E+10	1	-1E+10	1	-1E+10	1	-1E+10	1	-1E+10	1
4901784	218	C	06/23/2021	10:50	-136.398	43.166	0	430.30	0	5.3770	0	37.8610	8	29.903	0	426.436	0	89.1	4	29.9	4	-1E+10	1	-1E+10	1	-1E+10	1	-1E+10	1	-1E+10	1	-1E+10	1
4901784	218	C	06/23/2021	10:50	-136.398	43.166	0	432.80	0	5.3390	0	37.8650	8	29.911	0	428.911	0	88.1	4	29.5	4	-1E+10	1	-1E+10	1	-1E+10	1	-1E+10	1	-1E+10	1	-1E+10	1
4901784	218	C	06/23/2021	10:50	-136.398	43.166	0	435.40	0	5.3140	0	37.8670	8	29.916	0	431.484	0	87.3	4	29.2	4	-1E+10	1	-1E+10	1	-1E+10	1	-1E+10	1	-1E+10	1	-1E+10	1
4901784	218	C	06/23/2021	10:50	-136.398	43.166	0	437.10	0	5.3020	0	37.8690	8	29.919	0	433.167	0	86.8	4	29.1	4	-1E+10	1	-1E+10	1	-1E+10	1	-1E+10	1	-1E+10	1	-1E+10	1
4901784	218	C	06/23/2021	10:50	-136.398	43.166	0	439.80	0	5.2850	0	37.8700	8	29.922	0	435.840	0	86.0	4	28.8	4	-1E+10	1	-1E+10	1	-1E+10	1	-1E+10	1	-1E+10	1	-1E+10	1
4901784	218	C	06/23/2021	10:50	-136.398	43.166	0	442.40	0	5.2670	0	37.8720	8	29.926	0	438.414	0	85.1	4	28.5	4	-1E+10	1	-1E+10	1	-1E+10	1	-1E+10	1	-1E+10	1	-1E+10	1
4901784	218	C	06/23/2021	10:50	-136.398	43.166	0	445.00	0	5.2550	0	37.8720	8	29.927	0	440.988	0	84.1	4	28.1	4	-1E+10	1	-1E+10	1	-1E+10	1	-1E+10	1	-1E+10	1	-1E+10	1
4901784	218	C	06/23/2021	10:50	-136.398	43.166	0	447.60	0	5.2370	0	37.8730	8	29.930	0	443.562	0	82.7	4	27.7	4	-1E+10	1	-1E+10	1	-1E+10	1	-1E+10	1	-1E+10	1	-1E+10	1
4901784	218	C	06/23/2021	10:50	-136.398	43.166	0	449.50	0	5.2180	0	37.8770	8	29.936	0	445.443	0	81.8	4	27.3	4	-1E+10	1	-1E+10	1	-1E+10	1	-1E+10	1	-1E+10	1	-1E+10	1
4901784	218	C	06/23/2021	10:50	-136.398	43.166	0	452.20	0	5.1810	0	37.8810	8	29.944	0	448.115	0	80.9	4	27.0	4	-1E+10	1	-1E+10	1	-1E+10	1	-1E+10	1	-1E+10	1	-1E+10	1
4901784	218	C	06/23/2021	10:50	-136.398	43.166	0	454.80	0	5.1550	0	37.8830	8	29.949	0	450.689	0	79.9	4	26.7	4	-1E+10	1	-1E+10	1	-1E+10	1	-1E+10	1	-1E+10	1	-1E+10	1
4901784	218	C	06/23/2021	10:50	-136.398	43.166	0	457.50	0	5.1340	0	37.8860	8	29.954	0	453.362	0	78.7	4	26.3	4	-1E+10	1	-1E+10	1	-1E+10	1	-1E+10	1	-1E+10	1	-1E+10	1
4901784	218	C	06/23/2021	10:50	-136.398	43.166	0	460.20	0	5.1100	0	37.8870	8	29.957	0	456.034	0	77.5	4	25.8	4	-1E+10	1	-1E+10	1	-1E+10	1	-1E+10	1	-1E+10	1	-1E+10	1
4901784	218	C	06/23/2021	10:50	-136.398	43.166	0	462.00	0	5.0770	0	37.8930	8	29.966	0	457.816	0	76.8	4	25.6	4	-1E+10	1	-1E+10	1	-1E+10	1	-1E+10	1	-1E+10	1	-1E+10	1
4901784	218	C	06/23/2021	10:50	-136.398	43.166	0	464.70	0	5.0480	0	37.8960	8	29.972	0	460.489	0	76.0	4	25.3	4	-1E+10	1	-1E+10	1	-1E+10	1	-1E+10	1	-1E+10	1	-1E+10	1
4901784	218	C	06/23/2021	10:50	-136.398	43.166	0	467.40	0	5.0160	0	37.8990	8	29.979	0	463.161	0	75.2	4	25.0	4	-1E+10	1	-1E+10	1	-1E+10	1	-1E+10	1	-1E+10	1	-1E+10	1
4901784	218	C	06/23/2021	10:50	-136.398	43.166	0	470.10	0	4.9990	0	37.9000	8	29.982	0	465.834	0	74.4	4	24.7	4	-1E+10	1	-1E+10	1	-1E+10	1	-1E+10	1	-1E+10	1	-1E+10	1
4901784	218	C	06/23/2021	10:50	-136.398	43.166	0	472.70	0	4.9740	0	37.9020	8	29.986	0	468.407	0	73.5	4	24.4	4	-1E+10	1	-1E+10	1	-1E+10	1	-1E+10	1	-1E+10	1	-1E+10	1
4901784	218	C	06/23/2021	10:50	-136.398	43.166	0	474.50	0	4.9510	0	37.9060	8	29.992	0	470.189	0	72.8	4	24.2	4	-1E+10	1	-1E+10	1	-1E+10	1	-1E+10	1	-1E+10	1	-1E+10	1
4901784	218	C	06/23/2021	10:50	-136.398	43.166	0	477.30	0	4.9410	0	37.9060	8	29.994	0	472.960	0	71.7	4	23.8	4	-1E+10	1	-1E+10	1	-1E+10	1	-1E+10	1	-1E+10	1	-1E+10	1
4901784	218	C	06/23/2021	10:50	-136.398	43.166	0	480.10	0	4.9140	0	37.9090	8	29.999	0	475.731	0	70.3	4	23.3	4	-1E+10	1	-1E+10	1	-1E+10	1	-1E+10	1	-1E+10	1	-1E+10	1
4901784	218	C	06/23/2021	10:50	-136.398	43.166	0	481.90	0	4.9000	0	37.9100	8	30.002	0	477.513	0	69.4	4	23.0	4	-1E+10	1	-1E+10	1	-1E+10	1	-1E+10	1	-1E+10	1	-1E+10	1
4901784	218	C	06/23/2021	10:50	-136.398	43.166	0	484.70	0	4.8740	0	37.9140	8	30.008	0	480.284	0	68.1	4	22.6	4	-1E+10	1	-1E+10	1	-1E+10	1	-1E+10	1	-1E+10	1	-1E+10	1
4901784	218	C	06/23/2021	10:50	-136.398	43.166	0	487.60	0	4.8500	0	37.9170	8	30.014	0	483.154	0	67.4	4	22.3	4	-1E+10	1	-1E+10	1	-1E+10	1	-1E+10	1	-1E+10	1	-1E+10	1
4901784	218	C	06/23/2021	10:50	-136.398	43.166	0	489.40	0	4.8360	0	37.9200	8	30.018	0	484.936	0	67.1	4	22.2	4	-1E+10	1	-1E+10	1	-1E+10	1	-1E+10	1	-1E+10	1	-1E+10	1
4901784	218	C	06/23/2021	10:50	-136.398	43.166	0	492.20	0	4.8260	0	37.9220	8	30.021	0	487.707	0	66.4	4	22.0	4	-1E+10	1	-1E+10	1	-1E+10	1	-1E+10	1	-1E+10	1	-1E+10	1
4901784	218	C	06/23/2021	10:50	-136.398	43.166	0	495.10	0	4.8230	0	37.9230	8	30.022	0	490.577	0	65.8	4	21.8	4	-1E+10	1	-1E+10	1	-1E+10	1	-1E+10	1	-1E+10	1	-1E+10	1
4901784	218	C	06/23/2021	10:50	-136.398	43.166	0	497.00	0	4.8210	0	37.9220	8	30.021	0	492.458	0	65.2	4	21.6	4	-1E+10	1	-1E+10	1	-1E+10	1	-1E+10	1	-1E+10	1	-1E+10	1
4901784	218	C	06/23/2021	10:50	-136.398	43.166	0	499.80	0	4.8040	0	37.9250	8	30.026	0	495.229	0	64.6	4	21.4	4	-1E+10	1	-1E+10	1	-1E+10	1	-1E+10	1	-1E+10	1	-1E+10	1
4901784	218	C	06/23/2021	10:50	-136.398	43.166	0	504.40	0	4.7740	0	37.9310	8	30.034	0	499.781	0	62.3	4	20.6	4	-1E+10	1	-1E+10	1	-1E+10	1	-1E+10	1	-1E+10	1	-1E+10	1
4901784	218	C	06/23/2021	10:50	-136.398	43.166	0	509.70	0	4.7620	0	37.9390	8	30.042	0	505.026	0	58.1	4	19.2	4	-1E+10	1	-1E+10	1	-1E+10	1	-1E+10	1	-1E+10	1	-1E+10	1
4901784	218	C	06/23/2021	10:50	-136.398	43.166	0	514.50	0	4.7450	0	37.9490	8	30.052	0	509.776	0	54.8	4	18.1	4	-1E+10	1	-1E+10	1	-1E+10	1	-1E+10	1	-1E+10	1	-1E+10	1
4901784	218	C	06/23/2021	10:50	-136.398	43.166	0	519.30	0	4.7380	0	37.9560	8	30.059	0	514.526	0	52.9	4	17.5	4	-1E+10	1	-1E+10	1	-1E+10	1	-1E+10	1	-1E+10	1	-1E+10	1
4901784	218	C	06/23/2021	10:50	-136.398	43.166	0	524.30	0	4.7230	0	37.9590	8	30.063	0	519.474	0	51.4	4	17.0	4	-1E+10	1	-1E+10	1	-1E+10	1	-1E+10	1	-1E+10	1	-1E+10	1
4901784	218	C	06/23/2021	10:50	-136.398	43.166	0	529.30	0	4.6990	0	37.9670	8	30.072	0	524.422	0	49.9	4	16.5	4	-1E+10	1	-1E+10	1	-1E+10	1	-1E+10	1	-1E+10	1	-1E+10	1
4901784	218	C	06/23/2021	10:50	-136.398	43.166	0	534.20	0	4.6850	0	37.9730	8	30.079	0	529.270	0	48.6	4	16.1	4	-1E+10	1	-1E+10	1	-1E+10	1	-1E+10	1	-1E+10	1	-1E+10	1
4901784	218	C	06/23/2021	10:50	-136.398	43.166	0	539.30	0	4.6700	0	37.9770	8	30.084	0	534.317	0	47.7	4	15.7	4	-1E+10	1	-1E+10	1	-1E+10	1	-1E+10	1	-1E+10	1	-1E+10	1
4901784	218	C	06/23/2021	10:50	-136.398	43.166	0	544.30	0	4.6450	0	37.9830	8	30.091	0	539.264	0	46.4	4	15.3	4	-1E+10	1	-1E+10	1	-1E+10	1	-1E+10	1	-1E+10	1	-1E+10	1
4901784	218	C	06/23/2021	10:50	-136.398	43.166	0	549.40	0	4.6160	0	37.9890	8	30.100	0	544.310	0	45.4	4	15.0	4	-1E+10	1	-1E+10	1	-1E+10	1	-1E+10	1	-1E+10	1	-1E+10	1
4901784	218	C	06/23/2021	10:50	-136.398	43.166	0	554.50	0	4.5880	0	37.9950	8	30.108	0	549.356	0	44.3	4	14.6	4	-1E+10	1	-1E+10	1	-1E+10	1	-1E+10	1	-1E+10	1	-1E+10	1
4901784	218	C	06/23/2021	10:50	-136.398	43.166	0	559.60	0	4.5680	0	38.0010	8	30.115	0	554.402	0	43.0	4	14.2	4	-1E+10	1	-1E+10	1	-1E+10	1	-1E+10	1	-1E+10	1	-1E+10	1
4901784	218	C	06/23/2021	10:50	-136.398	43.166	0	564.80	0	4.5500	0	38.0080	8	30.123	0	559.547	0	41.3	4	13.6	4	-1E+10	1	-1E+10	1	-1E+10	1	-1E+10	1	-1E+10	1	-1E+10	1
4901784	218	C	06/23/2021	10:50	-136.398	43.166	0	569.80	0	4.5350	0	38.0160	8	30.131	0	564.493	0	39.4	4	13.0	4	-1E+10	1	-1E+10	1	-1E+10	1	-1E+10	1	-1E+10	1	-1E+10	1
4901784	218	C	06/23/2021	10:50	-136.398	43.166	0	574.80	0	4.5150	0	38.0250	8	30.141	0	569.440	0	37.6	4	12.4	4	-1E+10	1	-1E+10	1	-1E+10	1	-1E+10	1	-1E+10	1	-1E+10	1
4901784	218	C	06/23/2021	10:50	-136.398	43.166	0	579.80	0	4.5030	0	38.0320	8	30.148	0	574.386	0	35.5	4	11.7	4	-1E+10	1	-1E+10	1	-1E+10	1	-1E+10	1	-1E+10	1	-1E+10	1
4901784	218	C	06/23/2021	10:50	-136.398	43.166	0	584.90	0	4.4860	0	38.0390	8	30.155	0	579.432	0	34.3	4	11.3	4	-1E+10	1	-1E+10	1	-1E+10	1	-1E+10	1	-1E+10	1	-1E+10	1
4901784	218	C	06/23/2021	10:50	-136.398	43.166	0	590.00	0	4.4770	0	38.0430	8	30.160	0	584.477	0	33.4	4	11.0	4	-1E+10	1	-1E+10	1	-1E+10	1	-1E+10	1	-1E+10	1	-1E+10	1
4901784	218	C	06/23/2021	10:50	-136.398	43.166	0	595.10	0	4.4590	0	38.0480	8	30.166	0	589.522	0	32.5	4	10.7	4	-1E+10	1	-1E+10	1	-1E+10	1	-1E+10	1	-1E+10	1	-1E+10	1
4901784	218	C	06/23/2021	10:50	-136.398	43.166	0	600.20	0	4.4410	0	38.0530	8	30.172	0	594.567	0	31.4	4	10.3	4	-1E+10	1	-1E+10	1	-1E+10	1	-1E+10	1	-1E+10	1	-1E+10	1
4901784	218	C	06/23/2021	10:50	-136.398	43.166	0	605.30	0	4.4210	0	38.0630	8	30.182	0	599.612	0	30.1	4	9.9	4	-1E+10	1	-1E+10	1	-1E+10	1	-1E+10	1	-1E+10	1	-1E+10	1
4901784	218	C	06/23/2021	10:50	-136.398	43.166	0	610.30	0	4.4190	0	38.0720	8	30.190	0	604.557	0	28.7	4	9.4	4	-1E+10	1	-1E+10	1	-1E+10	1	-1E+10	1	-1E+10	1	-1E+10	1
4901784	218	C	06/23/2021	10:50	-136.398	43.166	0	615.60	0	4.4060	0	38.0800	8	30.198	0	609.800	0	27.8	4	9.1	4	-1E+10	1	-1E+10	1	-1E+10	1	-1E+10	1	-1E+10	1	-1E+10	1
4901784	218	C	06/23/2021	10:50	-136.398	43.166	0	620.70	0	4.3320	0	38.0910	8	30.215	0	614.844	0	26.8	4	8.8	4	-1E+10	1	-1E+10	1	-1E+10	1	-1E+10	1	-1E+10	1	-1E+10	1
4901784	218	C	06/23/2021	10:50	-136.398	43.166	0	625.00	0	4.3240	0	38.0990	8	30.222	0	619.097	0	25.7	4	8.4	4	-1E+10	1	-1E+10	1	-1E+10	1	-1E+10	1	-1E+10	1	-1E+10	1
4901784	218	C	06/23/2021	10:50	-136.398	43.166	0	629.30	0	4.3410	0	38.1040	8	30.224	0	623.350	0	24.6	4	8.1	4	-1E+10	1	-1E+10	1	-1E+10	1	-1E+10	1	-1E+10	1	-1E+10	1
4901784	218	C	06/23/2021	10:50	-136.398	43.166	0	634.60	0	4.3350	0	38.1100	8	30.230	0	628.592	0	23.8	4	7.8	4	-1E+10	1	-1E+10	1	-1E+10	1	-1E+10	1	-1E+10	1	-1E+10	1
4901784	218	C	06/23/2021	10:50	-136.398	43.166	0	639.90	0	4.3190	0	38.1160	8	30.237	0	633.834	0	23.1	4	7.6	4	-1E+10	1	-1E+10	1	-1E+10	1	-1E+10	1	-1E+10	1	-1E+10	1
4901784	218	C	06/23/2021	10:50	-136.398	43.166	0	645.20	0	4.3030	0	38.1210	8	30.242	0	639.075	0	22.3	4	7.3	4	-1E+10	1	-1E+10	1	-1E+10	1	-1E+10	1	-1E+10	1	-1E+10	1
4901784	218	C	06/23/2021	10:50	-136.398	43.166	0	650.50	0	4.2840	0	38.1270	8	30.249	0	644.317	0	21.5	4	7.0	4	-1E+10	1	-1E+10	1	-1E+10	1	-1E+10	1	-1E+10	1	-1E+10	1
4901784	218	C	06/23/2021	10:50	-136.398	43.166	0	654.90	0	4.2680	0	38.1340	8	30.257	0	648.668	0	20.7	4	6.8	4	-1E+10	1	-1E+10	1	-1E+10	1	-1E+10	1	-1E+10	1	-1E+10	1
4901784	218	C	06/23/2021	10:50	-136.398	43.166	0	659.40	0	4.2610	0	38.1400	8	30.263	0	653.118	0	20.2	4	6.6	4	-1E+10	1	-1E+10	1	-1E+10	1	-1E+10	1	-1E+10	1	-1E+10	1
4901784	218	C	06/23/2021	10:50	-136.398	43.166	0	664.90	0	4.2490	0	38.1450	8	30.268	0	658.557	0	19.6	4	6.4	4	-1E+10	1	-1E+10	1	-1E+10	1	-1E+10	1	-1E+10	1	-1E+10	1
4901784	218	C	06/23/2021	10:50	-136.398	43.166	0	670.30	0	4.2340	0	38.1520	8	30.275	0	663.897	0	18.8	4	6.2	4	-1E+10	1	-1E+10	1	-1E+10	1	-1E+10	1	-1E+10	1	-1E+10	1
4901784	218	C	06/23/2021	10:50	-136.398	43.166	0	675.70	0	4.2160	0	38.1620	8	30.285	0	669.237	0	18.1	4	5.9	4	-1E+10	1	-1E+10	1	-1E+10	1	-1E+10	1	-1E+10	1	-1E+10	1
4901784	218	C	06/23/2021	10:50	-136.398	43.166	0	680.10	0	4.2000	0	38.1670	8	30.291	0	673.588	0	17.8	4	5.8	4	-1E+10	1	-1E+10	1	-1E+10	1	-1E+10	1	-1E+10	1	-1E+10	1
4901784	218	C	06/23/2021	10:50	-136.398	43.166	0	684.70	0	4.1960	0	38.1700	8	30.294	0	678.136	0	17.5	4	5.7	4	-1E+10	1	-1E+10	1	-1E+10	1	-1E+10	1	-1E+10	1	-1E+10	1
4901784	218	C	06/23/2021	10:50	-136.398	43.166	0	690.10	0	4.1840	0	38.1740	8	30.299	0	683.476	0	17.1	4	5.6	4	-1E+10	1	-1E+10	1	-1E+10	1	-1E+10	1	-1E+10	1	-1E+10	1
4901784	218	C	06/23/2021	10:50	-136.398	43.166	0	694.70	0	4.1740	0	38.1800	8	30.305	0	688.024	0	16.7	4	5.4	4	-1E+10	1	-1E+10	1	-1E+10	1	-1E+10	1	-1E+10	1	-1E+10	1
4901784	218	C	06/23/2021	10:50	-136.398	43.166	0	699.40	0	4.1680	0	38.1840	8	30.309	0	692.671	0	16.3	4	5.3	4	-1E+10	1	-1E+10	1	-1E+10	1	-1E+10	1	-1E+10	1	-1E+10	1
4901784	218	C	06/23/2021	10:50	-136.398	43.166	0	705.00	0	4.1560	0	38.1890	8	30.314	0	698.208	0	15.9	4	5.2	4	-1E+10	1	-1E+10	1	-1E+10	1	-1E+10	1	-1E+10	1	-1E+10	1
4901784	218	C	06/23/2021	10:50	-136.398	43.166	0	709.90	0	4.1450	0	38.1950	8	30.320	0	703.052	0	15.5	4	5.1	4	-1E+10	1	-1E+10	1	-1E+10	1	-1E+10	1	-1E+10	1	-1E+10	1
4901784	218	C	06/23/2021	10:50	-136.398	43.166	0	714.60	0	4.1390	0	38.2000	8	30.325	0	707.699	0	15.2	4	5.0	4	-1E+10	1	-1E+10	1	-1E+10	1	-1E+10	1	-1E+10	1	-1E+10	1
4901784	218	C	06/23/2021	10:50	-136.398	43.166	0	720.30	0	4.1330	0	38.2050	8	30.330	0	713.334	0	14.8	4	4.8	4	-1E+10	1	-1E+10	1	-1E+10	1	-1E+10	1	-1E+10	1	-1E+10	1
4901784	218	C	06/23/2021	10:50	-136.398	43.166	0	724.60	0	4.1250	0	38.2110	8	30.335	0	717.585	0	14.4	4	4.7	4	-1E+10	1	-1E+10	1	-1E+10	1	-1E+10	1	-1E+10	1	-1E+10	1
4901784	218	C	06/23/2021	10:50	-136.398	43.166	0	729.40	0	4.1190	0	38.2170	8	30.341	0	722.330	0	14.2	4	4.6	4	-1E+10	1	-1E+10	1	-1E+10	1	-1E+10	1	-1E+10	1	-1E+10	1
4901784	218	C	06/23/2021	10:50	-136.398	43.166	0	734.30	0	4.1160	0	38.2200	8	30.344	0	727.174	0	14.0	4	4.6	4	-1E+10	1	-1E+10	1	-1E+10	1	-1E+10	1	-1E+10	1	-1E+10	1
4901784	218	C	06/23/2021	10:50	-136.398	43.166	0	740.00	0	4.0980	0	38.2240	8	30.349	0	732.809	0	13.8	4	4.5	4	-1E+10	1	-1E+10	1	-1E+10	1	-1E+10	1	-1E+10	1	-1E+10	1
4901784	218	C	06/23/2021	10:50	-136.398	43.166	0	745.80	0	4.0920	0	38.2280	8	30.353	0	738.542	0	13.5	4	4.4	4	-1E+10	1	-1E+10	1	-1E+10	1	-1E+10	1	-1E+10	1	-1E+10	1
4901784	218	C	06/23/2021	10:50	-136.398	43.166	0	750.80	0	4.0830	0	38.2340	8	30.359	0	743.485	0	13.2	4	4.3	4	-1E+10	1	-1E+10	1	-1E+10	1	-1E+10	1	-1E+10	1	-1E+10	1
4901784	218	C	06/23/2021	10:50	-136.398	43.166	0	755.00	0	4.0720	0	38.2370	8	30.362	0	747.636	0	13.1	4	4.3	4	-1E+10	1	-1E+10	1	-1E+10	1	-1E+10	1	-1E+10	1	-1E+10	1
4901784	218	C	06/23/2021	10:50	-136.398	43.166	0	759.40	0	4.0580	0	38.2420	8	30.368	0	751.986	0	12.9	4	4.2	4	-1E+10	1	-1E+10	1	-1E+10	1	-1E+10	1	-1E+10	1	-1E+10	1
4901784	218	C	06/23/2021	10:50	-136.398	43.166	0	764.60	0	4.0520	0	38.2480	8	30.374	0	757.125	0	12.6	4	4.1	4	-1E+10	1	-1E+10	1	-1E+10	1	-1E+10	1	-1E+10	1	-1E+10	1
4901784	218	C	06/23/2021	10:50	-136.398	43.166	0	769.80	0	4.0430	0	38.2550	8	30.380	0	762.265	0	12.3	4	4.0	4	-1E+10	1	-1E+10	1	-1E+10	1	-1E+10	1	-1E+10	1	-1E+10	1
4901784	218	C	06/23/2021	10:50	-136.398	43.166	0	775.00	0	4.0370	0	38.2600	8	30.385	0	767.405	0	12.1	4	4.0	4	-1E+10	1	-1E+10	1	-1E+10	1	-1E+10	1	-1E+10	1	-1E+10	1
4901784	218	C	06/23/2021	10:50	-136.398	43.166	0	780.20	0	4.0290	0	38.2640	8	30.389	0	772.544	0	11.9	4	3.9	4	-1E+10	1	-1E+10	1	-1E+10	1	-1E+10	1	-1E+10	1	-1E+10	1
4901784	218	C	06/23/2021	10:50	-136.398	43.166	0	785.50	0	4.0200	0	38.2690	8	30.394	0	777.782	0	11.8	4	3.8	4	-1E+10	1	-1E+10	1	-1E+10	1	-1E+10	1	-1E+10	1	-1E+10	1
4901784	218	C	06/23/2021	10:50	-136.398	43.166	0	789.90	0	4.0150	0	38.2720	8	30.397	0	782.131	0	11.7	4	3.8	4	-1E+10	1	-1E+10	1	-1E+10	1	-1E+10	1	-1E+10	1	-1E+10	1
4901784	218	C	06/23/2021	10:50	-136.398	43.166	0	794.40	0	4.0050	0	38.2750	8	30.401	0	786.578	0	11.6	4	3.8	4	-1E+10	1	-1E+10	1	-1E+10	1	-1E+10	1	-1E+10	1	-1E+10	1
4901784	218	C	06/23/2021	10:50	-136.398	43.166	0	799.80	0	3.9890	0	38.2800	8	30.406	0	791.914	0	11.4	4	3.7	4	-1E+10	1	-1E+10	1	-1E+10	1	-1E+10	1	-1E+10	1	-1E+10	1
4901784	218	C	06/23/2021	10:50	-136.398	43.166	0	805.20	0	3.9680	0	38.2860	8	30.414	0	797.251	0	11.4	4	3.7	4	-1E+10	1	-1E+10	1	-1E+10	1	-1E+10	1	-1E+10	1	-1E+10	1
4901784	218	C	06/23/2021	10:50	-136.398	43.166	0	809.70	0	3.9630	0	38.2880	8	30.416	0	801.698	0	11.3	4	3.7	4	-1E+10	1	-1E+10	1	-1E+10	1	-1E+10	1	-1E+10	1	-1E+10	1
4901784	218	C	06/23/2021	10:50	-136.398	43.166	0	814.30	0	3.9550	0	38.2890	8	30.418	0	806.244	0	11.3	4	3.7	4	-1E+10	1	-1E+10	1	-1E+10	1	-1E+10	1	-1E+10	1	-1E+10	1
4901784	218	C	06/23/2021	10:50	-136.398	43.166	0	819.90	0	3.9380	0	38.2950	8	30.424	0	811.777	0	11.1	4	3.6	4	-1E+10	1	-1E+10	1	-1E+10	1	-1E+10	1	-1E+10	1	-1E+10	1
4901784	218	C	06/23/2021	10:50	-136.398	43.166	0	824.50	0	3.9370	0	38.2980	8	30.427	0	816.323	0	11.0	4	3.6	4	-1E+10	1	-1E+10	1	-1E+10	1	-1E+10	1	-1E+10	1	-1E+10	1
4901784	218	C	06/23/2021	10:50	-136.398	43.166	0	829.10	0	3.9310	0	38.3010	8	30.430	0	820.868	0	11.0	4	3.6	4	-1E+10	1	-1E+10	1	-1E+10	1	-1E+10	1	-1E+10	1	-1E+10	1
4901784	218	C	06/23/2021	10:50	-136.398	43.166	0	834.30	0	3.9130	0	38.3040	8	30.434	0	826.006	0	10.9	4	3.6	4	-1E+10	1	-1E+10	1	-1E+10	1	-1E+10	1	-1E+10	1	-1E+10	1
4901784	218	C	06/23/2021	10:50	-136.398	43.166	0	839.90	0	3.8980	0	38.3060	8	30.438	0	831.539	0	10.9	4	3.5	4	-1E+10	1	-1E+10	1	-1E+10	1	-1E+10	1	-1E+10	1	-1E+10	1
4901784	218	C	06/23/2021	10:50	-136.398	43.166	0	845.60	0	3.8820	0	38.3090	8	30.442	0	837.171	0	10.8	4	3.5	4	-1E+10	1	-1E+10	1	-1E+10	1	-1E+10	1	-1E+10	1	-1E+10	1
4901784	218	C	06/23/2021	10:50	-136.398	43.166	0	850.50	0	3.8630	0	38.3160	8	30.450	0	842.012	0	10.6	4	3.5	4	-1E+10	1	-1E+10	1	-1E+10	1	-1E+10	1	-1E+10	1	-1E+10	1
4901784	218	C	06/23/2021	10:50	-136.398	43.166	0	855.50	0	3.8500	0	38.3210	8	30.455	0	846.952	0	10.6	4	3.4	4	-1E+10	1	-1E+10	1	-1E+10	1	-1E+10	1	-1E+10	1	-1E+10	1
4901784	218	C	06/23/2021	10:50	-136.398	43.166	0	860.50	0	3.8400	0	38.3250	8	30.460	0	851.892	0	10.5	4	3.4	4	-1E+10	1	-1E+10	1	-1E+10	1	-1E+10	1	-1E+10	1	-1E+10	1
4901784	218	C	06/23/2021	10:50	-136.398	43.166	0	865.50	0	3.8300	0	38.3290	8	30.464	0	856.832	0	10.4	4	3.4	4	-1E+10	1	-1E+10	1	-1E+10	1	-1E+10	1	-1E+10	1	-1E+10	1
4901784	218	C	06/23/2021	10:50	-136.398	43.166	0	870.60	0	3.8210	0	38.3320	8	30.467	0	861.870	0	10.4	4	3.4	4	-1E+10	1	-1E+10	1	-1E+10	1	-1E+10	1	-1E+10	1	-1E+10	1
4901784	218	C	06/23/2021	10:50	-136.398	43.166	0	875.80	0	3.8170	0	38.3370	8	30.472	0	867.008	0	10.2	4	3.3	4	-1E+10	1	-1E+10	1	-1E+10	1	-1E+10	1	-1E+10	1	-1E+10	1
4901784	218	C	06/23/2021	10:50	-136.398	43.166	0	880.10	0	3.8370	0	38.3440	8	30.475	0	871.255	0	10.1	4	3.3	4	-1E+10	1	-1E+10	1	-1E+10	1	-1E+10	1	-1E+10	1	-1E+10	1
4901784	218	C	06/23/2021	10:50	-136.398	43.166	0	884.40	0	3.8310	0	38.3460	8	30.477	0	875.503	0	10.0	4	3.3	4	-1E+10	1	-1E+10	1	-1E+10	1	-1E+10	1	-1E+10	1	-1E+10	1
4901784	218	C	06/23/2021	10:50	-136.398	43.166	0	889.50	0	3.8360	0	38.3510	8	30.481	0	880.541	0	10.0	4	3.2	4	-1E+10	1	-1E+10	1	-1E+10	1	-1E+10	1	-1E+10	1	-1E+10	1
4901784	218	C	06/23/2021	10:50	-136.398	43.166	0	894.70	0	3.8310	0	38.3540	8	30.484	0	885.678	0	9.9	4	3.2	4	-1E+10	1	-1E+10	1	-1E+10	1	-1E+10	1	-1E+10	1	-1E+10	1
4901784	218	C	06/23/2021	10:50	-136.398	43.166	0	899.80	0	3.8220	0	38.3580	8	30.488	0	890.716	0	9.9	4	3.2	4	-1E+10	1	-1E+10	1	-1E+10	1	-1E+10	1	-1E+10	1	-1E+10	1
4901784	218	C	06/23/2021	10:50	-136.398	43.166	0	905.10	0	3.8160	0	38.3600	8	30.491	0	895.951	0	9.9	4	3.2	4	-1E+10	1	-1E+10	1	-1E+10	1	-1E+10	1	-1E+10	1	-1E+10	1
4901784	218	C	06/23/2021	10:50	-136.398	43.166	0	910.30	0	3.8050	0	38.3650	8	30.496	0	901.087	0	9.9	4	3.2	4	-1E+10	1	-1E+10	1	-1E+10	1	-1E+10	1	-1E+10	1	-1E+10	1
4901784	218	C	06/23/2021	10:50	-136.398	43.166	0	915.50	0	3.7950	0	38.3690	8	30.500	0	906.223	0	9.9	4	3.2	4	-1E+10	1	-1E+10	1	-1E+10	1	-1E+10	1	-1E+10	1	-1E+10	1
4901784	218	C	06/23/2021	10:50	-136.398	43.166	0	920.70	0	3.7870	0	38.3730	8	30.504	0	911.359	0	9.8	4	3.2	4	-1E+10	1	-1E+10	1	-1E+10	1	-1E+10	1	-1E+10	1	-1E+10	1
4901784	218	C	06/23/2021	10:50	-136.398	43.166	0	925.00	0	3.7830	0	38.3750	8	30.506	0	915.606	0	9.8	4	3.2	4	-1E+10	1	-1E+10	1	-1E+10	1	-1E+10	1	-1E+10	1	-1E+10	1
4901784	218	C	06/23/2021	10:50	-136.398	43.166	0	929.40	0	3.7750	0	38.3770	8	30.509	0	919.952	0	9.8	4	3.2	4	-1E+10	1	-1E+10	1	-1E+10	1	-1E+10	1	-1E+10	1	-1E+10	1
4901784	218	C	06/23/2021	10:50	-136.398	43.166	0	934.70	0	3.7590	0	38.3830	8	30.515	0	925.186	0	9.8	4	3.2	4	-1E+10	1	-1E+10	1	-1E+10	1	-1E+10	1	-1E+10	1	-1E+10	1
4901784	218	C	06/23/2021	10:50	-136.398	43.166	0	939.90	0	3.7420	0	38.3870	8	30.521	0	930.322	0	9.8	4	3.2	4	-1E+10	1	-1E+10	1	-1E+10	1	-1E+10	1	-1E+10	1	-1E+10	1
4901784	218	C	06/23/2021	10:50	-136.398	43.166	0	945.20	0	3.7210	0	38.3910	8	30.526	0	935.556	0	9.9	4	3.2	4	-1E+10	1	-1E+10	1	-1E+10	1	-1E+10	1	-1E+10	1	-1E+10	1
4901784	218	C	06/23/2021	10:50	-136.398	43.166	0	950.50	0	3.6890	0	38.3930	8	30.531	0	940.790	0	9.9	4	3.2	4	-1E+10	1	-1E+10	1	-1E+10	1	-1E+10	1	-1E+10	1	-1E+10	1
4901784	218	C	06/23/2021	10:50	-136.398	43.166	0	955.70	0	3.6720	0	38.3980	8	30.537	0	945.925	0	9.9	4	3.2	4	-1E+10	1	-1E+10	1	-1E+10	1	-1E+10	1	-1E+10	1	-1E+10	1
4901784	218	C	06/23/2021	10:50	-136.398	43.166	0	960.00	0	3.6680	0	38.4040	8	30.542	0	950.171	0	9.9	4	3.2	4	-1E+10	1	-1E+10	1	-1E+10	1	-1E+10	1	-1E+10	1	-1E+10	1
4901784	218	C	06/23/2021	10:50	-136.398	43.166	0	964.30	0	3.6800	0	38.4100	8	30.546	0	954.417	0	10.0	4	3.2	4	-1E+10	1	-1E+10	1	-1E+10	1	-1E+10	1	-1E+10	1	-1E+10	1
4901784	218	C	06/23/2021	10:50	-136.398	43.166	0	969.50	0	3.6760	0	38.4130	8	30.549	0	959.552	0	10.0	4	3.2	4	-1E+10	1	-1E+10	1	-1E+10	1	-1E+10	1	-1E+10	1	-1E+10	1
4901784	218	C	06/23/2021	10:50	-136.398	43.166	0	974.70	0	3.6480	0	38.4160	8	30.554	0	964.687	0	10.0	4	3.2	4	-1E+10	1	-1E+10	1	-1E+10	1	-1E+10	1	-1E+10	1	-1E+10	1
4901784	218	C	06/23/2021	10:50	-136.398	43.166	0	980.10	0	3.6380	0	38.4190	8	30.558	0	970.019	0	10.1	4	3.2	4	-1E+10	1	-1E+10	1	-1E+10	1	-1E+10	1	-1E+10	1	-1E+10	1
4901784	218	C	06/23/2021	10:50	-136.398	43.166	0	985.40	0	3.6210	0	38.4240	8	30.564	0	975.252	0	10.1	4	3.3	4	-1E+10	1	-1E+10	1	-1E+10	1	-1E+10	1	-1E+10	1	-1E+10	1
4901784	218	C	06/23/2021	10:50	-136.398	43.166	0	990.70	0	3.6020	0	38.4260	8	30.567	0	980.485	0	10.1	4	3.3	4	-1E+10	1	-1E+10	1	-1E+10	1	-1E+10	1	-1E+10	1	-1E+10	1
4901784	218	C	06/23/2021	10:50	-136.398	43.166	0	995.10	0	3.5880	0	38.4290	8	30.571	0	984.829	0	10.1	4	3.3	4	-1E+10	1	-1E+10	1	-1E+10	1	-1E+10	1	-1E+10	1	-1E+10	1
4901784	218	C	06/23/2021	10:50	-136.398	43.166	0	999.50	0	3.5750	0	38.4320	8	30.575	0	989.174	0	10.2	4	3.3	4	-1E+10	1	-1E+10	1	-1E+10	1	-1E+10	1	-1E+10	1	-1E+10	1
4901784	218	C	06/23/2021	10:50	-136.398	43.166	0	1004.90	0	3.5610	0	38.4370	8	30.581	0	994.505	0	10.2	4	3.3	4	-1E+10	1	-1E+10	1	-1E+10	1	-1E+10	1	-1E+10	1	-1E+10	1
4901784	218	C	06/23/2021	10:50	-136.398	43.166	0	1010.30	0	3.5480	0	38.4400	8	30.584	0	999.836	0	10.2	4	3.3	4	-1E+10	1	-1E+10	1	-1E+10	1	-1E+10	1	-1E+10	1	-1E+10	1
4901784	218	C	06/23/2021	10:50	-136.398	43.166	0	1014.80	0	3.5380	0	38.4430	8	30.588	0	1004.279	0	10.3	4	3.3	4	-1E+10	1	-1E+10	1	-1E+10	1	-1E+10	1	-1E+10	1	-1E+10	1
4901784	218	C	06/23/2021	10:50	-136.398	43.166	0	1019.30	0	3.5260	0	38.4450	8	30.591	0	1008.721	0	10.3	4	3.3	4	-1E+10	1	-1E+10	1	-1E+10	1	-1E+10	1	-1E+10	1	-1E+10	1
4901784	218	C	06/23/2021	10:50	-136.398	43.166	0	1024.60	0	3.5120	0	38.4490	8	30.596	0	1013.954	0	10.4	4	3.3	4	-1E+10	1	-1E+10	1	-1E+10	1	-1E+10	1	-1E+10	1	-1E+10	1
4901784	218	C	06/23/2021	10:50	-136.398	43.166	0	1030.00	0	3.5030	0	38.4520	8	30.599	0	1019.284	0	10.4	4	3.3	4	-1E+10	1	-1E+10	1	-1E+10	1	-1E+10	1	-1E+10	1	-1E+10	1
4901784	218	C	06/23/2021	10:50	-136.398	43.166	0	1035.30	0	3.4920	0	38.4540	8	30.602	0	1024.516	0	10.4	4	3.4	4	-1E+10	1	-1E+10	1	-1E+10	1	-1E+10	1	-1E+10	1	-1E+10	1
4901784	218	C	06/23/2021	10:50	-136.398	43.166	0	1039.90	0	3.4820	0	38.4570	8	30.605	0	1029.057	0	10.5	4	3.4	4	-1E+10	1	-1E+10	1	-1E+10	1	-1E+10	1	-1E+10	1	-1E+10	1
4901784	218	C	06/23/2021	10:50	-136.398	43.166	0	1044.40	0	3.4730	0	38.4590	8	30.608	0	1033.499	0	10.5	4	3.4	4	-1E+10	1	-1E+10	1	-1E+10	1	-1E+10	1	-1E+10	1	-1E+10	1
4901784	218	C	06/23/2021	10:50	-136.398	43.166	0	1049.90	0	3.4640	0	38.4620	8	30.611	0	1038.928	0	10.6	4	3.4	4	-1E+10	1	-1E+10	1	-1E+10	1	-1E+10	1	-1E+10	1	-1E+10	1
4901784	218	C	06/23/2021	10:50	-136.398	43.166	0	1055.30	0	3.4540	0	38.4640	8	30.614	0	1044.258	0	10.6	4	3.4	4	-1E+10	1	-1E+10	1	-1E+10	1	-1E+10	1	-1E+10	1	-1E+10	1
4901784	218	C	06/23/2021	10:50	-136.398	43.166	0	1059.90	0	3.4380	0	38.4680	8	30.619	0	1048.799	0	10.7	4	3.4	4	-1E+10	1	-1E+10	1	-1E+10	1	-1E+10	1	-1E+10	1	-1E+10	1
4901784	218	C	06/23/2021	10:50	-136.398	43.166	0	1064.50	0	3.4200	0	38.4720	8	30.624	0	1053.339	0	10.8	4	3.5	4	-1E+10	1	-1E+10	1	-1E+10	1	-1E+10	1	-1E+10	1	-1E+10	1
4901784	218	C	06/23/2021	10:50	-136.398	43.166	0	1070.10	0	3.4030	0	38.4750	8	30.628	0	1058.866	0	10.8	4	3.5	4	-1E+10	1	-1E+10	1	-1E+10	1	-1E+10	1	-1E+10	1	-1E+10	1
4901784	218	C	06/23/2021	10:50	-136.398	43.166	0	1075.60	0	3.3940	0	38.4780	8	30.632	0	1064.294	0	10.9	4	3.5	4	-1E+10	1	-1E+10	1	-1E+10	1	-1E+10	1	-1E+10	1	-1E+10	1
4901784	218	C	06/23/2021	10:50	-136.398	43.166	0	1080.40	0	3.3880	0	38.4790	8	30.633	0	1069.032	0	10.9	4	3.5	4	-1E+10	1	-1E+10	1	-1E+10	1	-1E+10	1	-1E+10	1	-1E+10	1
4901784	218	C	06/23/2021	10:50	-136.398	43.166	0	1084.90	0	3.3720	0	38.4810	8	30.637	0	1073.473	0	11.0	4	3.5	4	-1E+10	1	-1E+10	1	-1E+10	1	-1E+10	1	-1E+10	1	-1E+10	1
4901784	218	C	06/23/2021	10:50	-136.398	43.166	0	1089.80	0	3.3560	0	38.4850	8	30.642	0	1078.309	0	11.1	4	3.6	4	-1E+10	1	-1E+10	1	-1E+10	1	-1E+10	1	-1E+10	1	-1E+10	1
4901784	218	C	06/23/2021	10:50	-136.398	43.166	0	1094.70	0	3.3370	0	38.4900	8	30.648	0	1083.144	0	11.2	4	3.6	4	-1E+10	1	-1E+10	1	-1E+10	1	-1E+10	1	-1E+10	1	-1E+10	1
4901784	218	C	06/23/2021	10:50	-136.398	43.166	0	1099.70	0	3.3280	0	38.4930	8	30.651	0	1088.078	0	11.3	4	3.6	4	-1E+10	1	-1E+10	1	-1E+10	1	-1E+10	1	-1E+10	1	-1E+10	1
4901784	218	C	06/23/2021	10:50	-136.398	43.166	0	1104.60	0	3.3180	0	38.4950	8	30.654	0	1092.914	0	11.3	4	3.6	4	-1E+10	1	-1E+10	1	-1E+10	1	-1E+10	1	-1E+10	1	-1E+10	1
4901784	218	C	06/23/2021	10:50	-136.398	43.166	0	1109.60	0	3.3080	0	38.4980	8	30.657	0	1097.848	0	11.5	4	3.7	4	-1E+10	1	-1E+10	1	-1E+10	1	-1E+10	1	-1E+10	1	-1E+10	1
4901784	218	C	06/23/2021	10:50	-136.398	43.166	0	1114.70	0	3.2960	0	38.5010	8	30.661	0	1102.881	0	11.6	4	3.7	4	-1E+10	1	-1E+10	1	-1E+10	1	-1E+10	1	-1E+10	1	-1E+10	1
4901784	218	C	06/23/2021	10:50	-136.398	43.166	0	1120.20	0	3.2790	0	38.5050	8	30.666	0	1108.308	0	11.7	4	3.7	4	-1E+10	1	-1E+10	1	-1E+10	1	-1E+10	1	-1E+10	1	-1E+10	1
4901784	218	C	06/23/2021	10:50	-136.398	43.166	0	1125.00	0	3.2710	0	38.5070	8	30.668	0	1113.044	0	11.7	4	3.8	4	-1E+10	1	-1E+10	1	-1E+10	1	-1E+10	1	-1E+10	1	-1E+10	1
4901784	218	C	06/23/2021	10:50	-136.398	43.166	0	1129.80	0	3.2640	0	38.5100	8	30.671	0	1117.780	0	11.9	4	3.8	4	-1E+10	1	-1E+10	1	-1E+10	1	-1E+10	1	-1E+10	1	-1E+10	1
4901784	218	C	06/23/2021	10:50	-136.398	43.166	0	1134.60	0	3.2590	0	38.5130	8	30.674	0	1122.516	0	12.0	4	3.9	4	-1E+10	1	-1E+10	1	-1E+10	1	-1E+10	1	-1E+10	1	-1E+10	1
4901784	218	C	06/23/2021	10:50	-136.398	43.166	0	1139.40	0	3.2370	0	38.5160	8	30.679	0	1127.252	0	12.1	4	3.9	4	-1E+10	1	-1E+10	1	-1E+10	1	-1E+10	1	-1E+10	1	-1E+10	1
4901784	218	C	06/23/2021	10:50	-136.398	43.166	0	1144.20	0	3.2280	0	38.5190	8	30.683	0	1131.988	0	12.2	4	3.9	4	-1E+10	1	-1E+10	1	-1E+10	1	-1E+10	1	-1E+10	1	-1E+10	1
4901784	218	C	06/23/2021	10:50	-136.398	43.166	0	1149.20	0	3.2210	0	38.5230	8	30.686	0	1136.921	0	12.4	4	4.0	4	-1E+10	1	-1E+10	1	-1E+10	1	-1E+10	1	-1E+10	1	-1E+10	1
4901784	218	C	06/23/2021	10:50	-136.398	43.166	0	1154.20	0	3.2110	0	38.5250	8	30.689	0	1141.854	0	12.5	4	4.0	4	-1E+10	1	-1E+10	1	-1E+10	1	-1E+10	1	-1E+10	1	-1E+10	1
4901784	218	C	06/23/2021	10:50	-136.398	43.166	0	1159.20	0	3.1970	0	38.5280	8	30.693	0	1146.787	0	12.6	4	4.0	4	-1E+10	1	-1E+10	1	-1E+10	1	-1E+10	1	-1E+10	1	-1E+10	1
4901784	218	C	06/23/2021	10:50	-136.398	43.166	0	1164.20	0	3.1860	0	38.5310	8	30.697	0	1151.720	0	12.7	4	4.1	4	-1E+10	1	-1E+10	1	-1E+10	1	-1E+10	1	-1E+10	1	-1E+10	1
4901784	218	C	06/23/2021	10:50	-136.398	43.166	0	1169.30	0	3.1760	0	38.5330	8	30.699	0	1156.751	0	12.8	4	4.1	4	-1E+10	1	-1E+10	1	-1E+10	1	-1E+10	1	-1E+10	1	-1E+10	1
4901784	218	C	06/23/2021	10:50	-136.398	43.166	0	1174.40	0	3.1690	0	38.5350	8	30.702	0	1161.783	0	12.9	4	4.1	4	-1E+10	1	-1E+10	1	-1E+10	1	-1E+10	1	-1E+10	1	-1E+10	1
4901784	218	C	06/23/2021	10:50	-136.398	43.166	0	1179.60	0	3.1550	0	38.5390	8	30.706	0	1166.912	0	13.1	4	4.2	4	-1E+10	1	-1E+10	1	-1E+10	1	-1E+10	1	-1E+10	1	-1E+10	1
4901784	218	C	06/23/2021	10:50	-136.398	43.166	0	1184.90	0	3.1450	0	38.5410	8	30.709	0	1172.141	0	13.3	4	4.2	4	-1E+10	1	-1E+10	1	-1E+10	1	-1E+10	1	-1E+10	1	-1E+10	1
4901784	218	C	06/23/2021	10:50	-136.398	43.166	0	1190.10	0	3.1340	0	38.5450	8	30.713	0	1177.270	0	13.4	4	4.3	4	-1E+10	1	-1E+10	1	-1E+10	1	-1E+10	1	-1E+10	1	-1E+10	1
4901784	218	C	06/23/2021	10:50	-136.398	43.166	0	1195.30	0	3.1280	0	38.5470	8	30.716	0	1182.399	0	13.5	4	4.3	4	-1E+10	1	-1E+10	1	-1E+10	1	-1E+10	1	-1E+10	1	-1E+10	1
4901784	218	C	06/23/2021	10:50	-136.398	43.166	0	1200.60	0	3.1170	0	38.5500	8	30.719	0	1187.627	0	13.6	4	4.3	4	-1E+10	1	-1E+10	1	-1E+10	1	-1E+10	1	-1E+10	1	-1E+10	1
4901784	218	C	06/23/2021	10:50	-136.398	43.166	0	1205.10	0	3.1110	0	38.5510	8	30.721	0	1192.066	0	13.7	4	4.4	4	-1E+10	1	-1E+10	1	-1E+10	1	-1E+10	1	-1E+10	1	-1E+10	1
4901784	218	C	06/23/2021	10:50	-136.398	43.166	0	1209.50	0	3.1020	0	38.5530	8	30.723	0	1196.406	0	13.8	4	4.4	4	-1E+10	1	-1E+10	1	-1E+10	1	-1E+10	1	-1E+10	1	-1E+10	1
4901784	218	C	06/23/2021	10:50	-136.398	43.166	0	1215.00	0	3.0950	0	38.5550	8	30.726	0	1201.830	0	13.9	4	4.4	4	-1E+10	1	-1E+10	1	-1E+10	1	-1E+10	1	-1E+10	1	-1E+10	1
4901784	218	C	06/23/2021	10:50	-136.398	43.166	0	1220.50	0	3.0830	0	38.5580	8	30.729	0	1207.255	0	14.1	4	4.5	4	-1E+10	1	-1E+10	1	-1E+10	1	-1E+10	1	-1E+10	1	-1E+10	1
4901784	218	C	06/23/2021	10:50	-136.398	43.166	0	1225.00	0	3.0740	0	38.5600	8	30.732	0	1211.693	0	14.2	4	4.5	4	-1E+10	1	-1E+10	1	-1E+10	1	-1E+10	1	-1E+10	1	-1E+10	1
4901784	218	C	06/23/2021	10:50	-136.398	43.166	0	1229.60	0	3.0630	0	38.5620	8	30.735	0	1216.230	0	14.4	4	4.6	4	-1E+10	1	-1E+10	1	-1E+10	1	-1E+10	1	-1E+10	1	-1E+10	1
4901784	218	C	06/23/2021	10:50	-136.398	43.166	0	1235.10	0	3.0490	0	38.5650	8	30.738	0	1221.654	0	14.6	4	4.6	4	-1E+10	1	-1E+10	1	-1E+10	1	-1E+10	1	-1E+10	1	-1E+10	1
4901784	218	C	06/23/2021	10:50	-136.398	43.166	0	1240.60	0	3.0340	0	38.5670	8	30.742	0	1227.078	0	14.8	4	4.7	4	-1E+10	1	-1E+10	1	-1E+10	1	-1E+10	1	-1E+10	1	-1E+10	1
4901784	218	C	06/23/2021	10:50	-136.398	43.166	0	1245.20	0	3.0110	0	38.5730	8	30.749	0	1231.615	0	15.0	4	4.8	4	-1E+10	1	-1E+10	1	-1E+10	1	-1E+10	1	-1E+10	1	-1E+10	1
4901784	218	C	06/23/2021	10:50	-136.398	43.166	0	1249.50	0	3.0070	0	38.5750	8	30.751	0	1235.855	0	15.1	4	4.8	4	-1E+10	1	-1E+10	1	-1E+10	1	-1E+10	1	-1E+10	1	-1E+10	1
4901784	218	C	06/23/2021	10:50	-136.398	43.166	0	1254.60	0	3.0030	0	38.5760	8	30.752	0	1240.884	0	15.2	4	4.8	4	-1E+10	1	-1E+10	1	-1E+10	1	-1E+10	1	-1E+10	1	-1E+10	1
4901784	218	C	06/23/2021	10:50	-136.398	43.166	0	1259.70	0	2.9950	0	38.5770	8	30.754	0	1245.914	0	15.3	4	4.9	4	-1E+10	1	-1E+10	1	-1E+10	1	-1E+10	1	-1E+10	1	-1E+10	1
4901784	218	C	06/23/2021	10:50	-136.398	43.166	0	1264.90	0	2.9840	0	38.5790	8	30.756	0	1251.041	0	15.5	4	4.9	4	-1E+10	1	-1E+10	1	-1E+10	1	-1E+10	1	-1E+10	1	-1E+10	1
4901784	218	C	06/23/2021	10:50	-136.398	43.166	0	1270.10	0	2.9630	0	38.5830	8	30.762	0	1256.169	0	15.8	4	5.0	4	-1E+10	1	-1E+10	1	-1E+10	1	-1E+10	1	-1E+10	1	-1E+10	1
4901784	218	C	06/23/2021	10:50	-136.398	43.166	0	1275.30	0	2.9510	0	38.5860	8	30.765	0	1261.296	0	15.9	4	5.1	4	-1E+10	1	-1E+10	1	-1E+10	1	-1E+10	1	-1E+10	1	-1E+10	1
4901784	218	C	06/23/2021	10:50	-136.398	43.166	0	1280.60	0	2.9450	0	38.5870	8	30.767	0	1266.522	0	16.1	4	5.1	4	-1E+10	1	-1E+10	1	-1E+10	1	-1E+10	1	-1E+10	1	-1E+10	1
4901784	218	C	06/23/2021	10:50	-136.398	43.166	0	1284.90	0	2.9320	0	38.5910	8	30.771	0	1270.762	0	16.3	4	5.2	4	-1E+10	1	-1E+10	1	-1E+10	1	-1E+10	1	-1E+10	1	-1E+10	1
4901784	218	C	06/23/2021	10:50	-136.398	43.166	0	1289.30	0	2.9260	0	38.5920	8	30.773	0	1275.100	0	16.4	4	5.2	4	-1E+10	1	-1E+10	1	-1E+10	1	-1E+10	1	-1E+10	1	-1E+10	1
4901784	218	C	06/23/2021	10:50	-136.398	43.166	0	1294.50	0	2.9130	0	38.5950	8	30.777	0	1280.227	0	16.6	4	5.3	4	-1E+10	1	-1E+10	1	-1E+10	1	-1E+10	1	-1E+10	1	-1E+10	1
4901784	218	C	06/23/2021	10:50	-136.398	43.166	0	1299.80	0	2.9070	0	38.5970	8	30.779	0	1285.452	0	16.7	4	5.3	4	-1E+10	1	-1E+10	1	-1E+10	1	-1E+10	1	-1E+10	1	-1E+10	1
4901784	218	C	06/23/2021	10:50	-136.398	43.166	0	1305.20	0	2.9020	0	38.5990	8	30.781	0	1290.776	0	16.8	4	5.3	4	-1E+10	1	-1E+10	1	-1E+10	1	-1E+10	1	-1E+10	1	-1E+10	1
4901784	218	C	06/23/2021	10:50	-136.398	43.166	0	1310.50	0	2.8990	0	38.6000	8	30.782	0	1296.001	0	16.9	4	5.4	4	-1E+10	1	-1E+10	1	-1E+10	1	-1E+10	1	-1E+10	1	-1E+10	1
4901784	218	C	06/23/2021	10:50	-136.398	43.166	0	1315.10	0	2.8960	0	38.6010	8	30.783	0	1300.536	0	17.1	4	5.4	4	-1E+10	1	-1E+10	1	-1E+10	1	-1E+10	1	-1E+10	1	-1E+10	1
4901784	218	C	06/23/2021	10:50	-136.398	43.166	0	1319.60	0	2.8860	0	38.6020	8	30.785	0	1304.973	0	17.4	4	5.5	4	-1E+10	1	-1E+10	1	-1E+10	1	-1E+10	1	-1E+10	1	-1E+10	1
4901784	218	C	06/23/2021	10:50	-136.398	43.166	0	1325.10	0	2.8690	0	38.6060	8	30.790	0	1310.394	0	17.7	4	5.6	4	-1E+10	1	-1E+10	1	-1E+10	1	-1E+10	1	-1E+10	1	-1E+10	1
4901784	218	C	06/23/2021	10:50	-136.398	43.166	0	1330.50	0	2.8520	0	38.6090	8	30.794	0	1315.718	0	18.0	4	5.7	4	-1E+10	1	-1E+10	1	-1E+10	1	-1E+10	1	-1E+10	1	-1E+10	1
4901784	218	C	06/23/2021	10:50	-136.398	43.166	0	1335.10	0	2.8410	0	38.6120	8	30.798	0	1320.252	0	18.2	4	5.8	4	-1E+10	1	-1E+10	1	-1E+10	1	-1E+10	1	-1E+10	1	-1E+10	1
4901784	218	C	06/23/2021	10:50	-136.398	43.166	0	1340.00	0	2.8330	0	38.6150	8	30.801	0	1325.082	0	18.4	4	5.8	4	-1E+10	1	-1E+10	1	-1E+10	1	-1E+10	1	-1E+10	1	-1E+10	1
4901784	218	C	06/23/2021	10:50	-136.398	43.166	0	1345.10	0	2.8260	0	38.6160	8	30.802	0	1330.109	0	18.6	4	5.9	4	-1E+10	1	-1E+10	1	-1E+10	1	-1E+10	1	-1E+10	1	-1E+10	1
4901784	218	C	06/23/2021	10:50	-136.398	43.166	0	1349.90	0	2.8180	0	38.6180	8	30.805	0	1334.841	0	18.8	4	6.0	4	-1E+10	1	-1E+10	1	-1E+10	1	-1E+10	1	-1E+10	1	-1E+10	1
4901784	218	C	06/23/2021	10:50	-136.398	43.166	0	1354.80	0	2.8100	0	38.6210	8	30.808	0	1339.671	0	18.9	4	6.0	4	-1E+10	1	-1E+10	1	-1E+10	1	-1E+10	1	-1E+10	1	-1E+10	1
4901784	218	C	06/23/2021	10:50	-136.398	43.166	0	1359.70	0	2.8040	0	38.6220	8	30.810	0	1344.500	0	19.1	4	6.1	4	-1E+10	1	-1E+10	1	-1E+10	1	-1E+10	1	-1E+10	1	-1E+10	1
4901784	218	C	06/23/2021	10:50	-136.398	43.166	0	1364.60	0	2.7990	0	38.6230	8	30.811	0	1349.330	0	19.3	4	6.1	4	-1E+10	1	-1E+10	1	-1E+10	1	-1E+10	1	-1E+10	1	-1E+10	1
4901784	218	C	06/23/2021	10:50	-136.398	43.166	0	1369.50	0	2.7860	0	38.6260	8	30.815	0	1354.159	0	19.5	4	6.2	4	-1E+10	1	-1E+10	1	-1E+10	1	-1E+10	1	-1E+10	1	-1E+10	1
4901784	218	C	06/23/2021	10:50	-136.398	43.166	0	1374.40	0	2.7790	0	38.6280	8	30.817	0	1358.989	0	19.7	4	6.3	4	-1E+10	1	-1E+10	1	-1E+10	1	-1E+10	1	-1E+10	1	-1E+10	1
4901784	218	C	06/23/2021	10:50	-136.398	43.166	0	1379.30	0	2.7710	0	38.6290	8	30.819	0	1363.818	0	19.9	4	6.3	4	-1E+10	1	-1E+10	1	-1E+10	1	-1E+10	1	-1E+10	1	-1E+10	1
4901784	218	C	06/23/2021	10:50	-136.398	43.166	0	1384.40	0	2.7590	0	38.6320	8	30.822	0	1368.844	0	20.2	4	6.4	4	-1E+10	1	-1E+10	1	-1E+10	1	-1E+10	1	-1E+10	1	-1E+10	1
4901784	218	C	06/23/2021	10:50	-136.398	43.166	0	1389.40	0	2.7460	0	38.6340	8	30.825	0	1373.772	0	20.5	4	6.5	4	-1E+10	1	-1E+10	1	-1E+10	1	-1E+10	1	-1E+10	1	-1E+10	1
4901784	218	C	06/23/2021	10:50	-136.398	43.166	0	1394.50	0	2.7360	0	38.6360	8	30.828	0	1378.798	0	20.7	4	6.6	4	-1E+10	1	-1E+10	1	-1E+10	1	-1E+10	1	-1E+10	1	-1E+10	1
4901784	218	C	06/23/2021	10:50	-136.398	43.166	0	1399.50	0	2.7230	0	38.6380	8	30.831	0	1383.725	0	21.0	4	6.6	4	-1E+10	1	-1E+10	1	-1E+10	1	-1E+10	1	-1E+10	1	-1E+10	1
4901784	218	C	06/23/2021	10:50	-136.398	43.166	0	1404.70	0	2.7150	0	38.6400	8	30.833	0	1388.849	0	21.2	4	6.7	4	-1E+10	1	-1E+10	1	-1E+10	1	-1E+10	1	-1E+10	1	-1E+10	1
4901784	218	C	06/23/2021	10:50	-136.398	43.166	0	1409.90	0	2.7050	0	38.6430	8	30.837	0	1393.973	0	21.4	4	6.8	4	-1E+10	1	-1E+10	1	-1E+10	1	-1E+10	1	-1E+10	1	-1E+10	1
4901784	218	C	06/23/2021	10:50	-136.398	43.166	0	1415.00	0	2.6980	0	38.6440	8	30.838	0	1398.999	0	21.6	4	6.8	4	-1E+10	1	-1E+10	1	-1E+10	1	-1E+10	1	-1E+10	1	-1E+10	1
4901784	218	C	06/23/2021	10:50	-136.398	43.166	0	1420.20	0	2.6890	0	38.6460	8	30.841	0	1404.123	0	21.8	4	6.9	4	-1E+10	1	-1E+10	1	-1E+10	1	-1E+10	1	-1E+10	1	-1E+10	1
4901784	218	C	06/23/2021	10:50	-136.398	43.166	0	1425.50	0	2.6820	0	38.6480	8	30.843	0	1409.345	0	22.0	4	7.0	4	-1E+10	1	-1E+10	1	-1E+10	1	-1E+10	1	-1E+10	1	-1E+10	1
4901784	218	C	06/23/2021	10:50	-136.398	43.166	0	1430.70	0	2.6760	0	38.6500	8	30.845	0	1414.469	0	22.2	4	7.0	4	-1E+10	1	-1E+10	1	-1E+10	1	-1E+10	1	-1E+10	1	-1E+10	1
4901784	218	C	06/23/2021	10:50	-136.398	43.166	0	1435.00	0	2.6710	0	38.6510	8	30.846	0	1418.705	0	22.3	4	7.1	4	-1E+10	1	-1E+10	1	-1E+10	1	-1E+10	1	-1E+10	1	-1E+10	1
4901784	218	C	06/23/2021	10:50	-136.398	43.166	0	1439.40	0	2.6650	0	38.6530	8	30.849	0	1423.041	0	22.5	4	7.1	4	-1E+10	1	-1E+10	1	-1E+10	1	-1E+10	1	-1E+10	1	-1E+10	1
4901784	218	C	06/23/2021	10:50	-136.398	43.166	0	1444.70	0	2.6640	0	38.6540	8	30.850	0	1428.262	0	22.7	4	7.2	4	-1E+10	1	-1E+10	1	-1E+10	1	-1E+10	1	-1E+10	1	-1E+10	1
4901784	218	C	06/23/2021	10:50	-136.398	43.166	0	1449.90	0	2.6510	0	38.6550	8	30.852	0	1433.386	0	23.0	4	7.3	4	-1E+10	1	-1E+10	1	-1E+10	1	-1E+10	1	-1E+10	1	-1E+10	1
4901784	218	C	06/23/2021	10:50	-136.398	43.166	0	1455.10	0	2.6350	0	38.6590	8	30.856	0	1438.509	0	23.3	4	7.4	4	-1E+10	1	-1E+10	1	-1E+10	1	-1E+10	1	-1E+10	1	-1E+10	1
4901784	218	C	06/23/2021	10:50	-136.398	43.166	0	1460.40	0	2.6300	0	38.6600	8	30.858	0	1443.730	0	23.5	4	7.4	4	-1E+10	1	-1E+10	1	-1E+10	1	-1E+10	1	-1E+10	1	-1E+10	1
4901784	218	C	06/23/2021	10:50	-136.398	43.166	0	1465.60	0	2.6260	0	38.6610	8	30.859	0	1448.853	0	23.7	4	7.5	4	-1E+10	1	-1E+10	1	-1E+10	1	-1E+10	1	-1E+10	1	-1E+10	1
4901784	218	C	06/23/2021	10:50	-136.398	43.166	0	1470.10	0	2.6190	0	38.6630	8	30.861	0	1453.286	0	23.9	4	7.6	4	-1E+10	1	-1E+10	1	-1E+10	1	-1E+10	1	-1E+10	1	-1E+10	1
4901784	218	C	06/23/2021	10:50	-136.398	43.166	0	1474.50	0	2.6110	0	38.6650	8	30.864	0	1457.621	0	24.1	4	7.6	4	-1E+10	1	-1E+10	1	-1E+10	1	-1E+10	1	-1E+10	1	-1E+10	1
4901784	218	C	06/23/2021	10:50	-136.398	43.166	0	1479.80	0	2.6050	0	38.6660	8	30.865	0	1462.842	0	24.4	4	7.7	4	-1E+10	1	-1E+10	1	-1E+10	1	-1E+10	1	-1E+10	1	-1E+10	1
4901784	218	C	06/23/2021	10:50	-136.398	43.166	0	1485.20	0	2.5930	0	38.6680	8	30.868	0	1468.161	0	24.7	4	7.8	4	-1E+10	1	-1E+10	1	-1E+10	1	-1E+10	1	-1E+10	1	-1E+10	1
4901784	218	C	06/23/2021	10:50	-136.398	43.166	0	1490.50	0	2.5810	0	38.6710	8	30.872	0	1473.382	0	25.0	4	7.9	4	-1E+10	1	-1E+10	1	-1E+10	1	-1E+10	1	-1E+10	1	-1E+10	1
4901784	218	C	06/23/2021	10:50	-136.398	43.166	0	1495.00	0	2.5750	0	38.6730	8	30.874	0	1477.814	0	25.1	4	7.9	4	-1E+10	1	-1E+10	1	-1E+10	1	-1E+10	1	-1E+10	1	-1E+10	1
4901784	218	C	06/23/2021	10:50	-136.398	43.166	0	1499.50	0	2.5730	0	38.6730	8	30.874	0	1482.247	0	25.3	4	8.0	4	-1E+10	1	-1E+10	1	-1E+10	1	-1E+10	1	-1E+10	1	-1E+10	1
4901784	218	C	06/23/2021	10:50	-136.398	43.166	0	1504.90	0	2.5650	0	38.6750	8	30.876	0	1487.566	0	25.7	4	8.1	4	-1E+10	1	-1E+10	1	-1E+10	1	-1E+10	1	-1E+10	1	-1E+10	1
4901784	218	C	06/23/2021	10:50	-136.398	43.166	0	1510.40	0	2.5540	0	38.6770	8	30.879	0	1492.983	0	26.1	4	8.2	4	-1E+10	1	-1E+10	1	-1E+10	1	-1E+10	1	-1E+10	1	-1E+10	1
4901784	218	C	06/23/2021	10:50	-136.398	43.166	0	1515.00	0	2.5410	0	38.6800	8	30.883	0	1497.514	0	26.4	4	8.3	4	-1E+10	1	-1E+10	1	-1E+10	1	-1E+10	1	-1E+10	1	-1E+10	1
4901784	218	C	06/23/2021	10:50	-136.398	43.166	0	1519.50	0	2.5340	0	38.6800	8	30.884	0	1501.946	0	26.7	4	8.4	4	-1E+10	1	-1E+10	1	-1E+10	1	-1E+10	1	-1E+10	1	-1E+10	1
4901784	218	C	06/23/2021	10:50	-136.398	43.166	0	1525.00	0	2.5160	0	38.6840	8	30.888	0	1507.363	0	27.1	4	8.5	4	-1E+10	1	-1E+10	1	-1E+10	1	-1E+10	1	-1E+10	1	-1E+10	1
4901784	218	C	06/23/2021	10:50	-136.398	43.166	0	1530.60	0	2.5060	0	38.6860	8	30.891	0	1512.878	0	27.4	4	8.6	4	-1E+10	1	-1E+10	1	-1E+10	1	-1E+10	1	-1E+10	1	-1E+10	1
4901784	218	C	06/23/2021	10:50	-136.398	43.166	0	1535.20	0	2.4980	0	38.6880	8	30.893	0	1517.408	0	27.6	4	8.7	4	-1E+10	1	-1E+10	1	-1E+10	1	-1E+10	1	-1E+10	1	-1E+10	1
4901784	218	C	06/23/2021	10:50	-136.398	43.166	0	1539.90	0	2.4910	0	38.6890	8	30.895	0	1522.037	0	27.8	4	8.8	4	-1E+10	1	-1E+10	1	-1E+10	1	-1E+10	1	-1E+10	1	-1E+10	1
4901784	218	C	06/23/2021	10:50	-136.398	43.166	0	1545.50	0	2.4850	0	38.6900	8	30.896	0	1527.551	0	28.0	4	8.8	4	-1E+10	1	-1E+10	1	-1E+10	1	-1E+10	1	-1E+10	1	-1E+10	1
4901784	218	C	06/23/2021	10:50	-136.398	43.166	0	1550.10	0	2.4780	0	38.6920	8	30.899	0	1532.081	0	28.2	4	8.9	4	-1E+10	1	-1E+10	1	-1E+10	1	-1E+10	1	-1E+10	1	-1E+10	1
4901784	218	C	06/23/2021	10:50	-136.398	43.166	0	1554.80	0	2.4770	0	38.6930	8	30.900	0	1536.710	0	28.4	4	8.9	4	-1E+10	1	-1E+10	1	-1E+10	1	-1E+10	1	-1E+10	1	-1E+10	1
4901784	218	C	06/23/2021	10:50	-136.398	43.166	0	1560.00	0	2.4700	0	38.6940	8	30.901	0	1541.830	0	28.7	4	9.0	4	-1E+10	1	-1E+10	1	-1E+10	1	-1E+10	1	-1E+10	1	-1E+10	1
4901784	218	C	06/23/2021	10:50	-136.398	43.166	0	1564.40	0	2.4610	0	38.6960	8	30.904	0	1546.163	0	28.9	4	9.1	4	-1E+10	1	-1E+10	1	-1E+10	1	-1E+10	1	-1E+10	1	-1E+10	1
4901784	218	C	06/23/2021	10:50	-136.398	43.166	0	1570.10	0	2.4520	0	38.6980	8	30.906	0	1551.776	0	29.2	4	9.2	4	-1E+10	1	-1E+10	1	-1E+10	1	-1E+10	1	-1E+10	1	-1E+10	1
4901784	218	C	06/23/2021	10:50	-136.398	43.166	0	1575.80	0	2.4400	0	38.7000	8	30.909	0	1557.388	0	29.6	4	9.3	4	-1E+10	1	-1E+10	1	-1E+10	1	-1E+10	1	-1E+10	1	-1E+10	1
4901784	218	C	06/23/2021	10:50	-136.398	43.166	0	1580.60	0	2.4320	0	38.7020	8	30.911	0	1562.114	0	29.8	4	9.4	4	-1E+10	1	-1E+10	1	-1E+10	1	-1E+10	1	-1E+10	1	-1E+10	1
4901784	218	C	06/23/2021	10:50	-136.398	43.166	0	1585.50	0	2.4280	0	38.7030	8	30.913	0	1566.939	0	30.0	4	9.4	4	-1E+10	1	-1E+10	1	-1E+10	1	-1E+10	1	-1E+10	1	-1E+10	1
4901784	218	C	06/23/2021	10:50	-136.398	43.166	0	1590.40	0	2.4200	0	38.7050	8	30.915	0	1571.763	0	30.3	4	9.5	4	-1E+10	1	-1E+10	1	-1E+10	1	-1E+10	1	-1E+10	1	-1E+10	1
4901784	218	C	06/23/2021	10:50	-136.398	43.166	0	1595.30	0	2.4140	0	38.7060	8	30.916	0	1576.588	0	30.5	4	9.6	4	-1E+10	1	-1E+10	1	-1E+10	1	-1E+10	1	-1E+10	1	-1E+10	1
4901784	218	C	06/23/2021	10:50	-136.398	43.166	0	1600.30	0	2.4060	0	38.7080	8	30.919	0	1581.510	0	30.8	4	9.7	4	-1E+10	1	-1E+10	1	-1E+10	1	-1E+10	1	-1E+10	1	-1E+10	1
4901784	218	C	06/23/2021	10:50	-136.398	43.166	0	1605.30	0	2.4000	0	38.7090	8	30.920	0	1586.433	0	31.1	4	9.8	4	-1E+10	1	-1E+10	1	-1E+10	1	-1E+10	1	-1E+10	1	-1E+10	1
4901784	218	C	06/23/2021	10:50	-136.398	43.166	0	1610.30	0	2.3920	0	38.7110	8	30.922	0	1591.355	0	31.4	4	9.9	4	-1E+10	1	-1E+10	1	-1E+10	1	-1E+10	1	-1E+10	1	-1E+10	1
4901784	218	C	06/23/2021	10:50	-136.398	43.166	0	1615.30	0	2.3820	0	38.7130	8	30.925	0	1596.278	0	31.7	4	10.0	4	-1E+10	1	-1E+10	1	-1E+10	1	-1E+10	1	-1E+10	1	-1E+10	1
4901784	218	C	06/23/2021	10:50	-136.398	43.166	0	1620.40	0	2.3760	0	38.7150	8	30.927	0	1601.298	0	32.0	4	10.1	4	-1E+10	1	-1E+10	1	-1E+10	1	-1E+10	1	-1E+10	1	-1E+10	1
4901784	218	C	06/23/2021	10:50	-136.398	43.166	0	1625.40	0	2.3670	0	38.7170	8	30.930	0	1606.221	0	32.4	4	10.2	4	-1E+10	1	-1E+10	1	-1E+10	1	-1E+10	1	-1E+10	1	-1E+10	1
4901784	218	C	06/23/2021	10:50	-136.398	43.166	0	1630.50	0	2.3610	0	38.7180	8	30.931	0	1611.241	0	32.6	4	10.3	4	-1E+10	1	-1E+10	1	-1E+10	1	-1E+10	1	-1E+10	1	-1E+10	1
4901784	218	C	06/23/2021	10:50	-136.398	43.166	0	1635.60	0	2.3540	0	38.7200	8	30.933	0	1616.261	0	33.0	4	10.4	4	-1E+10	1	-1E+10	1	-1E+10	1	-1E+10	1	-1E+10	1	-1E+10	1
4901784	218	C	06/23/2021	10:50	-136.398	43.166	0	1640.60	0	2.3460	0	38.7220	8	30.936	0	1621.183	0	33.4	4	10.5	4	-1E+10	1	-1E+10	1	-1E+10	1	-1E+10	1	-1E+10	1	-1E+10	1
4901784	218	C	06/23/2021	10:50	-136.398	43.166	0	1645.70	0	2.3370	0	38.7240	8	30.938	0	1626.203	0	33.7	4	10.6	4	-1E+10	1	-1E+10	1	-1E+10	1	-1E+10	1	-1E+10	1	-1E+10	1
4901784	218	C	06/23/2021	10:50	-136.398	43.166	0	1650.00	0	2.3300	0	38.7250	8	30.940	0	1630.436	0	34.0	4	10.7	4	-1E+10	1	-1E+10	1	-1E+10	1	-1E+10	1	-1E+10	1	-1E+10	1
4901784	218	C	06/23/2021	10:50	-136.398	43.166	0	1654.30	0	2.3230	0	38.7270	8	30.942	0	1634.668	0	34.2	4	10.7	4	-1E+10	1	-1E+10	1	-1E+10	1	-1E+10	1	-1E+10	1	-1E+10	1
4901784	218	C	06/23/2021	10:50	-136.398	43.166	0	1659.50	0	2.3190	0	38.7280	8	30.943	0	1639.786	0	34.4	4	10.8	4	-1E+10	1	-1E+10	1	-1E+10	1	-1E+10	1	-1E+10	1	-1E+10	1
4901784	218	C	06/23/2021	10:50	-136.398	43.166	0	1664.70	0	2.3130	0	38.7300	8	30.946	0	1644.904	0	34.7	4	10.9	4	-1E+10	1	-1E+10	1	-1E+10	1	-1E+10	1	-1E+10	1	-1E+10	1
4901784	218	C	06/23/2021	10:50	-136.398	43.166	0	1669.90	0	2.3080	0	38.7310	8	30.947	0	1650.022	0	35.0	4	11.0	4	-1E+10	1	-1E+10	1	-1E+10	1	-1E+10	1	-1E+10	1	-1E+10	1
4901784	218	C	06/23/2021	10:50	-136.398	43.166	0	1675.20	0	2.3000	0	38.7330	8	30.949	0	1655.238	0	35.4	4	11.1	4	-1E+10	1	-1E+10	1	-1E+10	1	-1E+10	1	-1E+10	1	-1E+10	1
4901784	218	C	06/23/2021	10:50	-136.398	43.166	0	1680.50	0	2.2920	0	38.7350	8	30.952	0	1660.455	0	35.7	4	11.2	4	-1E+10	1	-1E+10	1	-1E+10	1	-1E+10	1	-1E+10	1	-1E+10	1
4901784	218	C	06/23/2021	10:50	-136.398	43.166	0	1684.90	0	2.2870	0	38.7360	8	30.953	0	1664.785	0	35.9	4	11.3	4	-1E+10	1	-1E+10	1	-1E+10	1	-1E+10	1	-1E+10	1	-1E+10	1
4901784	218	C	06/23/2021	10:50	-136.398	43.166	0	1689.30	0	2.2820	0	38.7370	8	30.954	0	1669.115	0	36.2	4	11.3	4	-1E+10	1	-1E+10	1	-1E+10	1	-1E+10	1	-1E+10	1	-1E+10	1
4901784	218	C	06/23/2021	10:50	-136.398	43.166	0	1694.60	0	2.2770	0	38.7390	8	30.956	0	1674.331	0	36.5	4	11.4	4	-1E+10	1	-1E+10	1	-1E+10	1	-1E+10	1	-1E+10	1	-1E+10	1
4901784	218	C	06/23/2021	10:50	-136.398	43.166	0	1699.90	0	2.2700	0	38.7400	8	30.958	0	1679.546	0	36.8	4	11.5	4	-1E+10	1	-1E+10	1	-1E+10	1	-1E+10	1	-1E+10	1	-1E+10	1
4901784	218	C	06/23/2021	10:50	-136.398	43.166	0	1705.30	0	2.2620	0	38.7420	8	30.960	0	1684.860	0	37.2	4	11.7	4	-1E+10	1	-1E+10	1	-1E+10	1	-1E+10	1	-1E+10	1	-1E+10	1
4901784	218	C	06/23/2021	10:50	-136.398	43.166	0	1710.60	0	2.2550	0	38.7440	8	30.962	0	1690.076	0	37.6	4	11.8	4	-1E+10	1	-1E+10	1	-1E+10	1	-1E+10	1	-1E+10	1	-1E+10	1
4901784	218	C	06/23/2021	10:50	-136.398	43.166	0	1715.10	0	2.2480	0	38.7460	8	30.965	0	1694.504	0	37.9	4	11.9	4	-1E+10	1	-1E+10	1	-1E+10	1	-1E+10	1	-1E+10	1	-1E+10	1
4901784	218	C	06/23/2021	10:50	-136.398	43.166	0	1719.70	0	2.2420	0	38.7470	8	30.966	0	1699.030	0	38.2	4	12.0	4	-1E+10	1	-1E+10	1	-1E+10	1	-1E+10	1	-1E+10	1	-1E+10	1
4901784	218	C	06/23/2021	10:50	-136.398	43.166	0	1725.10	0	2.2360	0	38.7490	8	30.968	0	1704.343	0	38.6	4	12.1	4	-1E+10	1	-1E+10	1	-1E+10	1	-1E+10	1	-1E+10	1	-1E+10	1
4901784	218	C	06/23/2021	10:50	-136.398	43.166	0	1730.60	0	2.2270	0	38.7510	8	30.971	0	1709.755	0	39.0	4	12.2	4	-1E+10	1	-1E+10	1	-1E+10	1	-1E+10	1	-1E+10	1	-1E+10	1
4901784	218	C	06/23/2021	10:50	-136.398	43.166	0	1735.20	0	2.2230	0	38.7520	8	30.972	0	1714.281	0	39.4	4	12.3	4	-1E+10	1	-1E+10	1	-1E+10	1	-1E+10	1	-1E+10	1	-1E+10	1
4901784	218	C	06/23/2021	10:50	-136.398	43.166	0	1739.90	0	2.2130	0	38.7540	8	30.975	0	1718.905	0	39.8	4	12.5	4	-1E+10	1	-1E+10	1	-1E+10	1	-1E+10	1	-1E+10	1	-1E+10	1
4901784	218	C	06/23/2021	10:50	-136.398	43.166	0	1745.50	0	2.2020	0	38.7570	8	30.978	0	1724.415	0	40.2	4	12.6	4	-1E+10	1	-1E+10	1	-1E+10	1	-1E+10	1	-1E+10	1	-1E+10	1
4901784	218	C	06/23/2021	10:50	-136.398	43.166	0	1749.60	0	2.1970	0	38.7580	8	30.979	0	1728.449	0	40.4	4	12.6	4	-1E+10	1	-1E+10	1	-1E+10	1	-1E+10	1	-1E+10	1	-1E+10	1
4901784	218	C	06/23/2021	10:50	-136.398	43.166	0	1754.50	0	2.1940	0	38.7590	8	30.980	0	1733.270	0	40.6	4	12.7	4	-1E+10	1	-1E+10	1	-1E+10	1	-1E+10	1	-1E+10	1	-1E+10	1
4901784	218	C	06/23/2021	10:50	-136.398	43.166	0	1759.40	0	2.1900	0	38.7600	8	30.982	0	1738.090	0	40.9	4	12.8	4	-1E+10	1	-1E+10	1	-1E+10	1	-1E+10	1	-1E+10	1	-1E+10	1
4901784	218	C	06/23/2021	10:50	-136.398	43.166	0	1764.40	0	2.1830	0	38.7620	8	30.984	0	1743.009	0	41.2	4	12.9	4	-1E+10	1	-1E+10	1	-1E+10	1	-1E+10	1	-1E+10	1	-1E+10	1
4901784	218	C	06/23/2021	10:50	-136.398	43.166	0	1769.40	0	2.1760	0	38.7640	8	30.986	0	1747.928	0	41.5	4	13.0	4	-1E+10	1	-1E+10	1	-1E+10	1	-1E+10	1	-1E+10	1	-1E+10	1
4901784	218	C	06/23/2021	10:50	-136.398	43.166	0	1774.40	0	2.1720	0	38.7650	8	30.987	0	1752.847	0	41.8	4	13.1	4	-1E+10	1	-1E+10	1	-1E+10	1	-1E+10	1	-1E+10	1	-1E+10	1
4901784	218	C	06/23/2021	10:50	-136.398	43.166	0	1779.40	0	2.1660	0	38.7670	8	30.990	0	1757.765	0	42.1	4	13.2	4	-1E+10	1	-1E+10	1	-1E+10	1	-1E+10	1	-1E+10	1	-1E+10	1
4901784	218	C	06/23/2021	10:50	-136.398	43.166	0	1784.50	0	2.1610	0	38.7680	8	30.991	0	1762.782	0	42.5	4	13.3	4	-1E+10	1	-1E+10	1	-1E+10	1	-1E+10	1	-1E+10	1	-1E+10	1
4901784	218	C	06/23/2021	10:50	-136.398	43.166	0	1789.70	0	2.1560	0	38.7690	8	30.992	0	1767.897	0	42.8	4	13.4	4	-1E+10	1	-1E+10	1	-1E+10	1	-1E+10	1	-1E+10	1	-1E+10	1
4901784	218	C	06/23/2021	10:50	-136.398	43.166	0	1794.80	0	2.1480	0	38.7710	8	30.995	0	1772.914	0	43.3	4	13.5	4	-1E+10	1	-1E+10	1	-1E+10	1	-1E+10	1	-1E+10	1	-1E+10	1
4901784	218	C	06/23/2021	10:50	-136.398	43.166	0	1800.00	0	2.1420	0	38.7720	8	30.996	0	1778.029	0	43.7	4	13.6	4	-1E+10	1	-1E+10	1	-1E+10	1	-1E+10	1	-1E+10	1	-1E+10	1
4901784	218	C	06/23/2021	10:50	-136.398	43.166	0	1805.10	0	2.1350	0	38.7740	8	30.998	0	1783.045	0	44.0	4	13.7	4	-1E+10	1	-1E+10	1	-1E+10	1	-1E+10	1	-1E+10	1	-1E+10	1
4901784	218	C	06/23/2021	10:50	-136.398	43.166	0	1810.30	0	2.1290	0	38.7760	8	31.000	0	1788.160	0	44.3	4	13.9	4	-1E+10	1	-1E+10	1	-1E+10	1	-1E+10	1	-1E+10	1	-1E+10	1
4901784	218	C	06/23/2021	10:50	-136.398	43.166	0	1815.60	0	2.1240	0	38.7780	8	31.002	0	1793.372	0	44.6	4	13.9	4	-1E+10	1	-1E+10	1	-1E+10	1	-1E+10	1	-1E+10	1	-1E+10	1
4901784	218	C	06/23/2021	10:50	-136.398	43.166	0	1819.90	0	2.1210	0	38.7780	8	31.003	0	1797.602	0	44.9	4	14.0	4	-1E+10	1	-1E+10	1	-1E+10	1	-1E+10	1	-1E+10	1	-1E+10	1
4901784	218	C	06/23/2021	10:50	-136.398	43.166	0	1824.40	0	2.1170	0	38.7790	8	31.004	0	1802.027	0	45.1	4	14.1	4	-1E+10	1	-1E+10	1	-1E+10	1	-1E+10	1	-1E+10	1	-1E+10	1
4901784	218	C	06/23/2021	10:50	-136.398	43.166	0	1829.70	0	2.1120	0	38.7810	8	31.006	0	1807.240	0	45.5	4	14.2	4	-1E+10	1	-1E+10	1	-1E+10	1	-1E+10	1	-1E+10	1	-1E+10	1
4901784	218	C	06/23/2021	10:50	-136.398	43.166	0	1835.10	0	2.1040	0	38.7830	8	31.008	0	1812.551	0	45.9	4	14.3	4	-1E+10	1	-1E+10	1	-1E+10	1	-1E+10	1	-1E+10	1	-1E+10	1
4901784	218	C	06/23/2021	10:50	-136.398	43.166	0	1840.50	0	2.0990	0	38.7840	8	31.010	0	1817.861	0	46.3	4	14.5	4	-1E+10	1	-1E+10	1	-1E+10	1	-1E+10	1	-1E+10	1	-1E+10	1
4901784	218	C	06/23/2021	10:50	-136.398	43.166	0	1845.00	0	2.0940	0	38.7850	8	31.011	0	1822.287	0	46.6	4	14.6	4	-1E+10	1	-1E+10	1	-1E+10	1	-1E+10	1	-1E+10	1	-1E+10	1
4901784	218	C	06/23/2021	10:50	-136.398	43.166	0	1849.60	0	2.0880	0	38.7870	8	31.013	0	1826.810	0	46.9	4	14.6	4	-1E+10	1	-1E+10	1	-1E+10	1	-1E+10	1	-1E+10	1	-1E+10	1
4901784	218	C	06/23/2021	10:50	-136.398	43.166	0	1855.10	0	2.0840	0	38.7880	8	31.014	0	1832.219	0	47.3	4	14.7	4	-1E+10	1	-1E+10	1	-1E+10	1	-1E+10	1	-1E+10	1	-1E+10	1
4901784	218	C	06/23/2021	10:50	-136.398	43.166	0	1860.50	0	2.0780	0	38.7890	8	31.016	0	1837.529	0	47.6	4	14.9	4	-1E+10	1	-1E+10	1	-1E+10	1	-1E+10	1	-1E+10	1	-1E+10	1
4901784	218	C	06/23/2021	10:50	-136.398	43.166	0	1864.60	0	2.0740	0	38.7910	8	31.018	0	1841.560	0	48.0	4	15.0	4	-1E+10	1	-1E+10	1	-1E+10	1	-1E+10	1	-1E+10	1	-1E+10	1
4901784	218	C	06/23/2021	10:50	-136.398	43.166	0	1869.40	0	2.0640	0	38.7930	8	31.020	0	1846.280	0	48.3	4	15.1	4	-1E+10	1	-1E+10	1	-1E+10	1	-1E+10	1	-1E+10	1	-1E+10	1
4901784	218	C	06/23/2021	10:50	-136.398	43.166	0	1875.00	0	2.0620	0	38.7940	8	31.021	0	1851.787	0	48.6	4	15.1	4	-1E+10	1	-1E+10	1	-1E+10	1	-1E+10	1	-1E+10	1	-1E+10	1
4901784	218	C	06/23/2021	10:50	-136.398	43.166	0	1880.70	0	2.0590	0	38.7950	8	31.022	0	1857.391	0	48.9	4	15.3	4	-1E+10	1	-1E+10	1	-1E+10	1	-1E+10	1	-1E+10	1	-1E+10	1
4901784	218	C	06/23/2021	10:50	-136.398	43.166	0	1885.50	0	2.0530	0	38.7960	8	31.024	0	1862.111	0	49.3	4	15.4	4	-1E+10	1	-1E+10	1	-1E+10	1	-1E+10	1	-1E+10	1	-1E+10	1
4901784	218	C	06/23/2021	10:50	-136.398	43.166	0	1890.40	0	2.0470	0	38.7980	8	31.026	0	1866.928	0	49.6	4	15.5	4	-1E+10	1	-1E+10	1	-1E+10	1	-1E+10	1	-1E+10	1	-1E+10	1
4901784	218	C	06/23/2021	10:50	-136.398	43.166	0	1895.30	0	2.0440	0	38.7990	8	31.027	0	1871.746	0	49.8	4	15.5	4	-1E+10	1	-1E+10	1	-1E+10	1	-1E+10	1	-1E+10	1	-1E+10	1
4901784	218	C	06/23/2021	10:50	-136.398	43.166	0	1900.30	0	2.0400	0	38.8000	8	31.028	0	1876.662	0	50.2	4	15.6	4	-1E+10	1	-1E+10	1	-1E+10	1	-1E+10	1	-1E+10	1	-1E+10	1
4901784	218	C	06/23/2021	10:50	-136.398	43.166	0	1905.30	0	2.0340	0	38.8020	8	31.031	0	1881.578	0	50.5	4	15.7	4	-1E+10	1	-1E+10	1	-1E+10	1	-1E+10	1	-1E+10	1	-1E+10	1
4901784	218	C	06/23/2021	10:50	-136.398	43.166	0	1910.30	0	2.0300	0	38.8030	8	31.032	0	1886.493	0	50.8	4	15.8	4	-1E+10	1	-1E+10	1	-1E+10	1	-1E+10	1	-1E+10	1	-1E+10	1
4901784	218	C	06/23/2021	10:50	-136.398	43.166	0	1915.40	0	2.0260	0	38.8040	8	31.033	0	1891.507	0	51.1	4	15.9	4	-1E+10	1	-1E+10	1	-1E+10	1	-1E+10	1	-1E+10	1	-1E+10	1
4901784	218	C	06/23/2021	10:50	-136.398	43.166	0	1920.40	0	2.0220	0	38.8050	8	31.034	0	1896.422	0	51.4	4	16.0	4	-1E+10	1	-1E+10	1	-1E+10	1	-1E+10	1	-1E+10	1	-1E+10	1
4901784	218	C	06/23/2021	10:50	-136.398	43.166	0	1925.50	0	2.0180	0	38.8060	8	31.035	0	1901.436	0	51.7	4	16.1	4	-1E+10	1	-1E+10	1	-1E+10	1	-1E+10	1	-1E+10	1	-1E+10	1
4901784	218	C	06/23/2021	10:50	-136.398	43.166	0	1930.70	0	2.0120	0	38.8080	8	31.037	0	1906.548	0	52.1	4	16.2	4	-1E+10	1	-1E+10	1	-1E+10	1	-1E+10	1	-1E+10	1	-1E+10	1
4901784	218	C	06/23/2021	10:50	-136.398	43.166	0	1935.00	0	2.0100	0	38.8090	8	31.038	0	1910.775	0	52.3	4	16.3	4	-1E+10	1	-1E+10	1	-1E+10	1	-1E+10	1	-1E+10	1	-1E+10	1
4901784	218	C	06/23/2021	10:50	-136.398	43.166	0	1939.30	0	2.0070	0	38.8090	8	31.039	0	1915.001	0	52.6	4	16.4	4	-1E+10	1	-1E+10	1	-1E+10	1	-1E+10	1	-1E+10	1	-1E+10	1
4901784	218	C	06/23/2021	10:50	-136.398	43.166	0	1944.50	0	2.0020	0	38.8100	8	31.040	0	1920.113	0	53.0	4	16.5	4	-1E+10	1	-1E+10	1	-1E+10	1	-1E+10	1	-1E+10	1	-1E+10	1
4901784	218	C	06/23/2021	10:50	-136.398	43.166	0	1949.80	0	1.9960	0	38.8120	8	31.042	0	1925.322	0	53.3	4	16.6	4	-1E+10	1	-1E+10	1	-1E+10	1	-1E+10	1	-1E+10	1	-1E+10	1
4901784	218	C	06/23/2021	10:50	-136.398	43.166	0	1955.10	0	1.9930	0	38.8130	8	31.043	0	1930.532	0	53.6	4	16.7	4	-1E+10	1	-1E+10	1	-1E+10	1	-1E+10	1	-1E+10	1	-1E+10	1
4901784	218	C	06/23/2021	10:50	-136.398	43.166	0	1960.40	0	1.9900	0	38.8140	8	31.044	0	1935.741	0	53.9	4	16.8	4	-1E+10	1	-1E+10	1	-1E+10	1	-1E+10	1	-1E+10	1	-1E+10	1
4901784	218	C	06/23/2021	10:50	-136.398	43.166	0	1964.80	0	1.9850	0	38.8150	8	31.046	0	1940.066	0	54.1	4	16.8	4	-1E+10	1	-1E+10	1	-1E+10	1	-1E+10	1	-1E+10	1	-1E+10	1
4901784	218	C	06/23/2021	10:50	-136.398	43.166	0	1969.30	0	1.9840	0	38.8160	8	31.047	0	1944.489	0	54.2	4	16.9	4	-1E+10	1	-1E+10	1	-1E+10	1	-1E+10	1	-1E+10	1	-1E+10	1
4901784	218	C	06/23/2021	10:50	-136.398	43.166	0	1974.80	0	1.9830	0	38.8160	8	31.047	0	1949.894	0	54.4	4	16.9	4	-1E+10	1	-1E+10	1	-1E+10	1	-1E+10	1	-1E+10	1	-1E+10	1
4901784	218	C	06/23/2021	10:50	-136.398	43.166	0	1980.20	0	1.9790	0	38.8170	8	31.048	0	1955.201	0	54.7	4	17.0	4	-1E+10	1	-1E+10	1	-1E+10	1	-1E+10	1	-1E+10	1	-1E+10	1
4901784	218	C	06/23/2021	10:50	-136.398	43.166	0	1985.60	0	1.9730	0	38.8180	8	31.049	0	1960.508	0	55.1	4	17.1	4	-1E+10	1	-1E+10	1	-1E+10	1	-1E+10	1	-1E+10	1	-1E+10	1
4901784	218	C	06/23/2021	10:50	-136.398	43.166	0	1990.20	0	1.9700	0	38.8200	8	31.051	0	1965.029	0	55.3	4	17.2	4	-1E+10	1	-1E+10	1	-1E+10	1	-1E+10	1	-1E+10	1	-1E+10	1
4901784	218	C	06/23/2021	10:50	-136.398	43.166	0	1995.40	0	1.9670	0	38.8210	8	31.052	0	1970.139	0	55.6	4	17.3	4	-1E+10	1	-1E+10	1	-1E+10	1	-1E+10	1	-1E+10	1	-1E+10	1
4901784	218	C	06/23/2021	10:50	-136.398	43.166	0	2000.40	0	1.9650	0	38.8210	8	31.053	0	1975.053	0	55.7	4	17.3	4	-1E+10	1	-1E+10	1	-1E+10	1	-1E+10	1	-1E+10	1	-1E+10	1
4901784	218	C	06/23/2021	10:50	-136.398	43.166	0	2005.20	0	1.9640	0	38.8220	8	31.054	0	1979.770	0	55.9	4	17.4	4	-1E+10	1	-1E+10	1	-1E+10	1	-1E+10	1	-1E+10	1	-1E+10	1
4901784	218	C	06/23/2021	10:50	-136.398	43.166	0	2009.90	0	1.9610	0	38.8220	8	31.054	0	1984.388	0	56.1	4	17.5	4	-1E+10	1	-1E+10	1	-1E+10	1	-1E+10	1	-1E+10	1	-1E+10	1
4901784	218	C	06/23/2021	10:50	-136.398	43.166	0	2015.20	0	1.9580	0	38.8230	8	31.055	0	1989.596	0	56.4	4	17.5	4	-1E+10	1	-1E+10	1	-1E+10	1	-1E+10	1	-1E+10	1	-1E+10	1
4901784	218	C	06/23/2021	10:50	-136.398	43.166	0	2020.00	0	1.9530	0	38.8240	8	31.056	0	1994.313	0	56.5	4	17.6	4	-1E+10	1	-1E+10	1	-1E+10	1	-1E+10	1	-1E+10	1	-1E+10	1
4901784	218	C	06/23/2021	10:50	-136.398	43.166	0																										
4901784	219	C	07/03/2021	10:41	-136.412	43.206	0	2.90	0	16.2530	0	36.1780	8	26.597	0	2.877	0	233.9	4	97.5	4	-1E+10	1	-1E+10	1	-1E+10	1	-1E+10	1	-1E+10	1	-1E+10	1
4901784	219	C	07/03/2021	10:41	-136.412	43.206	0	4.40	0	16.2580	0	36.1800	8	26.597	0	4.365	0	233.9	4	97.5	4	-1E+10	1	-1E+10	1	-1E+10	1	-1E+10	1	-1E+10	1	-1E+10	1
4901784	219	C	07/03/2021	10:41	-136.412	43.206	0	6.00	0	16.2590	0	36.1820	8	26.598	0	5.952	0	233.8	4	97.5	4	-1E+10	1	-1E+10	1	-1E+10	1	-1E+10	1	-1E+10	1	-1E+10	1
4901784	219	C	07/03/2021	10:41	-136.412	43.206	0	7.50	0	16.2620	0	36.1820	8	26.598	0	7.440	0	233.7	4	97.4	4	-1E+10	1	-1E+10	1	-1E+10	1	-1E+10	1	-1E+10	1	-1E+10	1
4901784	219	C	07/03/2021	10:41	-136.412	43.206	0	9.10	0	16.2620	0	36.1840	8	26.599	0	9.027	0	233.7	4	97.4	4	-1E+10	1	-1E+10	1	-1E+10	1	-1E+10	1	-1E+10	1	-1E+10	1
4901784	219	C	07/03/2021	10:41	-136.412	43.206	0	10.80	0	16.2630	0	36.1840	8	26.599	0	10.714	0	233.9	4	97.5	4	-1E+10	1	-1E+10	1	-1E+10	1	-1E+10	1	-1E+10	1	-1E+10	1
4901784	219	C	07/03/2021	10:41	-136.412	43.206	0	12.50	0	16.2580	0	36.1850	8	26.601	0	12.400	0	234.0	4	97.5	4	-1E+10	1	-1E+10	1	-1E+10	1	-1E+10	1	-1E+10	1	-1E+10	1
4901784	219	C	07/03/2021	10:41	-136.412	43.206	0	14.30	0	16.2590	0	36.1830	8	26.599	0	14.186	0	233.9	4	97.5	4	-1E+10	1	-1E+10	1	-1E+10	1	-1E+10	1	-1E+10	1	-1E+10	1
4901784	219	C	07/03/2021	10:41	-136.412	43.206	0	15.90	0	16.2570	0	36.1820	8	26.599	0	15.773	0	234.1	4	97.6	4	-1E+10	1	-1E+10	1	-1E+10	1	-1E+10	1	-1E+10	1	-1E+10	1
4901784	219	C	07/03/2021	10:41	-136.412	43.206	0	17.60	0	16.2510	0	36.1780	8	26.598	0	17.459	0	234.7	4	97.8	4	-1E+10	1	-1E+10	1	-1E+10	1	-1E+10	1	-1E+10	1	-1E+10	1
4901784	219	C	07/03/2021	10:41	-136.412	43.206	0	19.30	0	16.2530	0	36.1690	8	26.590	0	19.146	0	235.3	4	98.1	4	-1E+10	1	-1E+10	1	-1E+10	1	-1E+10	1	-1E+10	1	-1E+10	1
4901784	219	C	07/03/2021	10:41	-136.412	43.206	0	20.90	0	16.2460	0	36.1520	8	26.579	0	20.733	0	236.2	4	98.4	4	-1E+10	1	-1E+10	1	-1E+10	1	-1E+10	1	-1E+10	1	-1E+10	1
4901784	219	C	07/03/2021	10:41	-136.412	43.206	0	22.50	0	16.1950	0	36.1170	8	26.564	0	22.320	0	237.7	4	98.9	4	-1E+10	1	-1E+10	1	-1E+10	1	-1E+10	1	-1E+10	1	-1E+10	1
4901784	219	C	07/03/2021	10:41	-136.412	43.206	0	24.10	0	15.4070	0	36.1180	8	26.745	0	23.907	0	241.1	4	98.8	4	-1E+10	1	-1E+10	1	-1E+10	1	-1E+10	1	-1E+10	1	-1E+10	1
4901784	219	C	07/03/2021	10:41	-136.412	43.206	0	25.80	0	14.8040	0	36.1510	8	26.905	0	25.593	0	245.9	4	99.7	4	-1E+10	1	-1E+10	1	-1E+10	1	-1E+10	1	-1E+10	1	-1E+10	1
4901784	219	C	07/03/2021	10:41	-136.412	43.206	0	27.50	0	14.7650	0	36.1510	8	26.913	0	27.279	0	246.0	4	99.6	4	-1E+10	1	-1E+10	1	-1E+10	1	-1E+10	1	-1E+10	1	-1E+10	1
4901784	219	C	07/03/2021	10:41	-136.412	43.206	0	29.30	0	14.7320	0	36.1520	8	26.921	0	29.065	0	246.3	4	99.7	4	-1E+10	1	-1E+10	1	-1E+10	1	-1E+10	1	-1E+10	1	-1E+10	1
4901784	219	C	07/03/2021	10:41	-136.412	43.206	0	31.10	0	14.6370	0	36.1580	8	26.947	0	30.850	0	246.8	4	99.7	4	-1E+10	1	-1E+10	1	-1E+10	1	-1E+10	1	-1E+10	1	-1E+10	1
4901784	219	C	07/03/2021	10:41	-136.412	43.206	0	32.80	0	14.5900	0	36.1560	8	26.956	0	32.537	0	247.4	4	99.8	4	-1E+10	1	-1E+10	1	-1E+10	1	-1E+10	1	-1E+10	1	-1E+10	1
4901784	219	C	07/03/2021	10:41	-136.412	43.206	0	35.00	0	14.4170	0	36.1640	8	27.000	0	34.719	0	248.8	4	100.0	4	-1E+10	1	-1E+10	1	-1E+10	1	-1E+10	1	-1E+10	1	-1E+10	1
4901784	219	C	07/03/2021	10:41	-136.412	43.206	0	36.60	0	14.2670	0	36.1760	8	27.041	0	36.306	0	250.2	4	100.4	4	-1E+10	1	-1E+10	1	-1E+10	1	-1E+10	1	-1E+10	1	-1E+10	1
4901784	219	C	07/03/2021	10:41	-136.412	43.206	0	38.00	0	14.2480	0	36.1720	8	27.042	0	37.694	0	251.1	4	100.7	4	-1E+10	1	-1E+10	1	-1E+10	1	-1E+10	1	-1E+10	1	-1E+10	1
4901784	219	C	07/03/2021	10:41	-136.412	43.206	0	39.40	0	14.2200	0	36.1600	8	27.039	0	39.083	0	252.0	4	100.9	4	-1E+10	1	-1E+10	1	-1E+10	1	-1E+10	1	-1E+10	1	-1E+10	1
4901784	219	C	07/03/2021	10:41	-136.412	43.206	0	40.80	0	14.0570	0	36.1620	8	27.075	0	40.472	0	254.0	4	101.4	4	-1E+10	1	-1E+10	1	-1E+10	1	-1E+10	1	-1E+10	1	-1E+10	1
4901784	219	C	07/03/2021	10:41	-136.412	43.206	0	42.20	0	13.7690	0	36.1920	8	27.160	0	41.860	0	256.3	4	101.8	4	-1E+10	1	-1E+10	1	-1E+10	1	-1E+10	1	-1E+10	1	-1E+10	1
4901784	219	C	07/03/2021	10:41	-136.412	43.206	0	43.50	0	13.6150	0	36.1920	8	27.192	0	43.149	0	257.6	4	102.0	4	-1E+10	1	-1E+10	1	-1E+10	1	-1E+10	1	-1E+10	1	-1E+10	1
4901784	219	C	07/03/2021	10:41	-136.412	43.206	0	45.10	0	13.0020	0	36.3070	8	27.408	0	44.736	0	259.9	4	101.7	4	-1E+10	1	-1E+10	1	-1E+10	1	-1E+10	1	-1E+10	1	-1E+10	1
4901784	219	C	07/03/2021	10:41	-136.412	43.206	0	46.60	0	12.6960	0	36.3010	8	27.465	0	46.224	0	262.4	4	102.1	4	-1E+10	1	-1E+10	1	-1E+10	1	-1E+10	1	-1E+10	1	-1E+10	1
4901784	219	C	07/03/2021	10:41	-136.412	43.206	0	48.20	0	12.3510	0	36.3060	8	27.537	0	47.811	0	262.4	4	101.3	4	-1E+10	1	-1E+10	1	-1E+10	1	-1E+10	1	-1E+10	1	-1E+10	1
4901784	219	C	07/03/2021	10:41	-136.412	43.206	0	49.90	0	12.2070	0	36.3480	8	27.598	0	49.497	0	262.4	4	101.0	4	-1E+10	1	-1E+10	1	-1E+10	1	-1E+10	1	-1E+10	1	-1E+10	1
4901784	219	C	07/03/2021	10:41	-136.412	43.206	0	51.70	0	12.0570	0	36.3690	8	27.644	0	51.282	0	261.7	4	100.5	4	-1E+10	1	-1E+10	1	-1E+10	1	-1E+10	1	-1E+10	1	-1E+10	1
4901784	219	C	07/03/2021	10:41	-136.412	43.206	0	53.40	0	11.9780	0	36.3790	8	27.667	0	52.968	0	261.1	4	100.1	4	-1E+10	1	-1E+10	1	-1E+10	1	-1E+10	1	-1E+10	1	-1E+10	1
4901784	219	C	07/03/2021	10:41	-136.412	43.206	0	55.20	0	11.8650	0	36.3820	8	27.691	0	54.754	0	260.7	4	99.7	4	-1E+10	1	-1E+10	1	-1E+10	1	-1E+10	1	-1E+10	1	-1E+10	1
4901784	219	C	07/03/2021	10:41	-136.412	43.206	0	57.00	0	11.8920	0	36.3860	8	27.689	0	56.539	0	259.8	4	99.4	4	-1E+10	1	-1E+10	1	-1E+10	1	-1E+10	1	-1E+10	1	-1E+10	1
4901784	219	C	07/03/2021	10:41	-136.412	43.206	0	58.80	0	11.8820	0	36.3810	8	27.687	0	58.324	0	259.1	4	99.1	4	-1E+10	1	-1E+10	1	-1E+10	1	-1E+10	1	-1E+10	1	-1E+10	1
4901784	219	C	07/03/2021	10:41	-136.412	43.206	0	60.50	0	11.8320	0	36.3780	8	27.695	0	60.010	0	258.2	4	98.7	4	-1E+10	1	-1E+10	1	-1E+10	1	-1E+10	1	-1E+10	1	-1E+10	1
4901784	219	C	07/03/2021	10:41	-136.412	43.206	0	62.40	0	11.7100	0	36.3690	8	27.711	0	61.894	0	257.9	4	98.3	4	-1E+10	1	-1E+10	1	-1E+10	1	-1E+10	1	-1E+10	1	-1E+10	1
4901784	219	C	07/03/2021	10:41	-136.412	43.206	0	64.20	0	11.5260	0	36.3660	8	27.744	0	63.679	0	257.3	4	97.7	4	-1E+10	1	-1E+10	1	-1E+10	1	-1E+10	1	-1E+10	1	-1E+10	1
4901784	219	C	07/03/2021	10:41	-136.412	43.206	0	66.00	0	11.4440	0	36.3440	8	27.742	0	65.465	0	256.9	4	97.4	4	-1E+10	1	-1E+10	1	-1E+10	1	-1E+10	1	-1E+10	1	-1E+10	1
4901784	219	C	07/03/2021	10:41	-136.412	43.206	0	67.80	0	11.2790	0	36.3350	8	27.766	0	67.250	0	256.3	4	96.8	4	-1E+10	1	-1E+10	1	-1E+10	1	-1E+10	1	-1E+10	1	-1E+10	1
4901784	219	C	07/03/2021	10:41	-136.412	43.206	0	69.70	0	11.2340	0	36.3320	8	27.772	0	69.134	0	255.0	4	96.2	4	-1E+10	1	-1E+10	1	-1E+10	1	-1E+10	1	-1E+10	1	-1E+10	1
4901784	219	C	07/03/2021	10:41	-136.412	43.206	0	71.50	0	11.0890	0	36.3250	8	27.794	0	70.919	0	254.9	4	95.9	4	-1E+10	1	-1E+10	1	-1E+10	1	-1E+10	1	-1E+10	1	-1E+10	1
4901784	219	C	07/03/2021	10:41	-136.412	43.206	0	73.30	0	11.0410	0	36.3180	8	27.797	0	72.704	0	254.0	4	95.5	4	-1E+10	1	-1E+10	1	-1E+10	1	-1E+10	1	-1E+10	1	-1E+10	1
4901784	219	C	07/03/2021	10:41	-136.412	43.206	0	75.10	0	10.9740	0	36.3160	8	27.808	0	74.489	0	253.0	4	94.9	4	-1E+10	1	-1E+10	1	-1E+10	1	-1E+10	1	-1E+10	1	-1E+10	1
4901784	219	C	07/03/2021	10:41	-136.412	43.206	0	76.90	0	10.8840	0	36.3000	8	27.812	0	76.274	0	251.7	4	94.3	4	-1E+10	1	-1E+10	1	-1E+10	1	-1E+10	1	-1E+10	1	-1E+10	1
4901784	219	C	07/03/2021	10:41	-136.412	43.206	0	78.60	0	10.8480	0	36.3050	8	27.823	0	77.960	0	250.7	4	93.8	4	-1E+10	1	-1E+10	1	-1E+10	1	-1E+10	1	-1E+10	1	-1E+10	1
4901784	219	C	07/03/2021	10:41	-136.412	43.206	0	80.50	0	10.8830	0	36.3190	8	27.827	0	79.844	0	249.7	4	93.5	4	-1E+10	1	-1E+10	1	-1E+10	1	-1E+10	1	-1E+10	1	-1E+10	1
4901784	219	C	07/03/2021	10:41	-136.412	43.206	0	82.30	0	10.8910	0	36.3290	8	27.833	0	81.629	0	248.9	4	93.2	4	-1E+10	1	-1E+10	1	-1E+10	1	-1E+10	1	-1E+10	1	-1E+10	1
4901784	219	C	07/03/2021	10:41	-136.412	43.206	0	84.10	0	10.8820	0	36.3270	8	27.834	0	83.414	0	248.6	4	93.1	4	-1E+10	1	-1E+10	1	-1E+10	1	-1E+10	1	-1E+10	1	-1E+10	1
4901784	219	C	07/03/2021	10:41	-136.412	43.206	0	86.00	0	10.8570	0	36.3290	8	27.840	0	85.298	0	248.1	4	92.9	4	-1E+10	1	-1E+10	1	-1E+10	1	-1E+10	1	-1E+10	1	-1E+10	1
4901784	219	C	07/03/2021	10:41	-136.412	43.206	0	87.90	0	10.6520	0	36.3250	8	27.874	0	87.182	0	249.1	4	92.8	4	-1E+10	1	-1E+10	1	-1E+10	1	-1E+10	1	-1E+10	1	-1E+10	1
4901784	219	C	07/03/2021	10:41	-136.412	43.206	0	89.80	0	10.7110	0	36.3390	8	27.874	0	89.066	0	248.6	4	92.8	4	-1E+10	1	-1E+10	1	-1E+10	1	-1E+10	1	-1E+10	1	-1E+10	1
4901784	219	C	07/03/2021	10:41	-136.412	43.206	0	91.70	0	10.7970	0	36.3580	8	27.873	0	90.950	0	247.7	4	92.6	4	-1E+10	1	-1E+10	1	-1E+10	1	-1E+10	1	-1E+10	1	-1E+10	1
4901784	219	C	07/03/2021	10:41	-136.412	43.206	0	93.50	0	10.7340	0	36.3580	8	27.885	0	92.735	0	247.4	4	92.4	4	-1E+10	1	-1E+10	1	-1E+10	1	-1E+10	1	-1E+10	1	-1E+10	1
4901784	219	C	07/03/2021	10:41	-136.412	43.206	0	95.40	0	10.6820	0	36.3440	8	27.883	0	94.619	0	247.3	4	92.3	4	-1E+10	1	-1E+10	1	-1E+10	1	-1E+10	1	-1E+10	1	-1E+10	1
4901784	219	C	07/03/2021	10:41	-136.412	43.206	0	97.30	0	10.5570	0	36.3500	8	27.911	0	96.503	0	247.5	4	92.1	4	-1E+10	1	-1E+10	1	-1E+10	1	-1E+10	1	-1E+10	1	-1E+10	1
4901784	219	C	07/03/2021	10:41	-136.412	43.206	0	99.20	0	10.5520	0	36.3640	8	27.923	0	98.387	0	247.8	4	92.2	4	-1E+10	1	-1E+10	1	-1E+10	1	-1E+10	1	-1E+10	1	-1E+10	1
4901784	219	C	07/03/2021	10:41	-136.412	43.206	0	103.00	0	10.6080	0	36.4060	8	27.945	0	102.155	0	247.5	4	92.2	4	-1E+10	1	-1E+10	1	-1E+10	1	-1E+10	1	-1E+10	1	-1E+10	1
4901784	219	C	07/03/2021	10:41	-136.412	43.206	0	104.90	0	10.5930	0	36.4030	8	27.946	0	104.039	0	247.1	4	92.1	4	-1E+10	1	-1E+10	1	-1E+10	1	-1E+10	1	-1E+10	1	-1E+10	1
4901784	219	C	07/03/2021	10:41	-136.412	43.206	0	107.70	0	10.5190	0	36.3980	8	27.955	0	106.816	0	247.1	4	91.9	4	-1E+10	1	-1E+10	1	-1E+10	1	-1E+10	1	-1E+10	1	-1E+10	1
4901784	219	C	07/03/2021	10:41	-136.412	43.206	0	110.40	0	10.4020	0	36.4030	8	27.980	0	109.493	0	247.3	4	91.7	4	-1E+10	1	-1E+10	1	-1E+10	1	-1E+10	1	-1E+10	1	-1E+10	1
4901784	219	C	07/03/2021	10:41	-136.412	43.206	0	112.40	0	10.4030	0	36.4020	8	27.979	0	111.476	0	247.0	4	91.6	4	-1E+10	1	-1E+10	1	-1E+10	1	-1E+10	1	-1E+10	1	-1E+10	1
4901784	219	C	07/03/2021	10:41	-136.412	43.206	0	115.30	0	10.3240	0	36.3990	8	27.991	0	114.351	0	245.7	4	91.0	4	-1E+10	1	-1E+10	1	-1E+10	1	-1E+10	1	-1E+10	1	-1E+10	1
4901784	219	C	07/03/2021	10:41	-136.412	43.206	0	118.20	0	10.1260	0	36.3940	8	28.022	0	117.226	0	244.8	4	90.3	4	-1E+10	1	-1E+10	1	-1E+10	1	-1E+10	1	-1E+10	1	-1E+10	1
4901784	219	C	07/03/2021	10:41	-136.412	43.206	0	120.70	0	10.0870	0	36.3880	8	28.024	0	119.705	0	243.4	4	89.7	4	-1E+10	1	-1E+10	1	-1E+10	1	-1E+10	1	-1E+10	1	-1E+10	1
4901784	219	C	07/03/2021	10:41	-136.412	43.206	0	122.60	0	10.0350	0	36.3880	8	28.033	0	121.589	0	241.6	4	88.9	4	-1E+10	1	-1E+10	1	-1E+10	1	-1E+10	1	-1E+10	1	-1E+10	1
4901784	219	C	07/03/2021	10:41	-136.412	43.206	0	125.20	0	9.8500	0	36.4230	8	28.093	0	124.167	0	239.4	4	87.8	4	-1E+10	1	-1E+10	1	-1E+10	1	-1E+10	1	-1E+10	1	-1E+10	1
4901784	219	C	07/03/2021	10:41	-136.412	43.206	0	127.60	0	9.7800	0	36.4290	8	28.110	0	126.546	0	235.5	4	86.2	4	-1E+10	1	-1E+10	1	-1E+10	1	-1E+10	1	-1E+10	1	-1E+10	1
4901784	219	C	07/03/2021	10:41	-136.412	43.206	0	130.00	0	9.7910	0	36.4730	8	28.142	0	128.925	0	227.9	4	83.5	4	-1E+10	1	-1E+10	1	-1E+10	1	-1E+10	1	-1E+10	1	-1E+10	1
4901784	219	C	07/03/2021	10:41	-136.412	43.206	0	132.10	0	9.8050	0	36.5360	8	28.189	0	131.007	0	221.2	4	81.1	4	-1E+10	1	-1E+10	1	-1E+10	1	-1E+10	1	-1E+10	1	-1E+10	1
4901784	219	C	07/03/2021	10:41	-136.412	43.206	0	134.70	0	9.7190	0	36.6080	8	28.260	0	133.585	0	214.8	4	78.7	4	-1E+10	1	-1E+10	1	-1E+10	1	-1E+10	1	-1E+10	1	-1E+10	1
4901784	219	C	07/03/2021	10:41	-136.412	43.206	0	137.60	0	9.6560	0	36.7330	8	28.369	0	136.460	0	209.8	4	76.8	4	-1E+10	1	-1E+10	1	-1E+10	1	-1E+10	1	-1E+10	1	-1E+10	1
4901784	219	C	07/03/2021	10:41	-136.412	43.206	0	140.40	0	9.5210	0	36.8640	8	28.495	0	139.236	0	205.7	4	75.1	4	-1E+10	1	-1E+10	1	-1E+10	1	-1E+10	1	-1E+10	1	-1E+10	1
4901784	219	C	07/03/2021	10:41	-136.412	43.206	0	142.60	0	9.5080	0	36.9380	8	28.555	0	141.417	0	203.1	4	74.2	4	-1E+10	1	-1E+10	1	-1E+10	1	-1E+10	1	-1E+10	1	-1E+10	1
4901784	219	C	07/03/2021	10:41	-136.412	43.206	0	144.90	0	9.4610	0	36.9760	8	28.593	0	143.697	0	200.5	4	73.2	4	-1E+10	1	-1E+10	1	-1E+10	1	-1E+10	1	-1E+10	1	-1E+10	1
4901784	219	C	07/03/2021	10:41	-136.412	43.206	0	147.30	0	9.2090	0	37.0460	8	28.690	0	146.076	0	198.7	4	72.2	4	-1E+10	1	-1E+10	1	-1E+10	1	-1E+10	1	-1E+10	1	-1E+10	1
4901784	219	C	07/03/2021	10:41	-136.412	43.206	0	149.70	0	9.1190	0	37.0870	8	28.737	0	148.456	0	196.8	4	71.4	4	-1E+10	1	-1E+10	1	-1E+10	1	-1E+10	1	-1E+10	1	-1E+10	1
4901784	219	C	07/03/2021	10:41	-136.412	43.206	0	152.20	0	9.0340	0	37.1710	8	28.817	0	150.934	0	194.5	4	70.5	4	-1E+10	1	-1E+10	1	-1E+10	1	-1E+10	1	-1E+10	1	-1E+10	1
4901784	219	C	07/03/2021	10:41	-136.412	43.206	0	154.80	0	8.8990	0	37.2510	8	28.902	0	153.511	0	193.6	4	70.0	4	-1E+10	1	-1E+10	1	-1E+10	1	-1E+10	1	-1E+10	1	-1E+10	1
4901784	219	C	07/03/2021	10:41	-136.412	43.206	0	157.50	0	8.8810	0	37.2900	8	28.936	0	156.188	0	192.9	4	69.7	4	-1E+10	1	-1E+10	1	-1E+10	1	-1E+10	1	-1E+10	1	-1E+10	1
4901784	219	C	07/03/2021	10:41	-136.412	43.206	0	160.10	0	8.8110	0	37.3240	8	28.974	0	158.765	0	192.2	4	69.3	4	-1E+10	1	-1E+10	1	-1E+10	1	-1E+10	1	-1E+10	1	-1E+10	1
4901784	219	C	07/03/2021	10:41	-136.412	43.206	0	162.80	0	8.7380	0	37.3970	8	29.043	0	161.442	0	191.7	4	69.1	4	-1E+10	1	-1E+10	1	-1E+10	1	-1E+10	1	-1E+10	1	-1E+10	1
4901784	219	C	07/03/2021	10:41	-136.412	43.206	0	164.60	0	8.7090	0	37.4150	8	29.062	0	163.226	0	191.3	4	68.9	4	-1E+10	1	-1E+10	1	-1E+10	1	-1E+10	1	-1E+10	1	-1E+10	1
4901784	219	C	07/03/2021	10:41	-136.412	43.206	0	167.20	0	8.6750	0	37.4470	8	29.093	0	165.803	0	190.7	4	68.7	4	-1E+10	1	-1E+10	1	-1E+10	1	-1E+10	1	-1E+10	1	-1E+10	1
4901784	219	C	07/03/2021	10:41	-136.412	43.206	0	170.50	0	8.6290	0	37.4910	8	29.135	0	169.074	0	190.1	4	68.4	4	-1E+10	1	-1E+10	1	-1E+10	1	-1E+10	1	-1E+10	1	-1E+10	1
4901784	219	C	07/03/2021	10:41	-136.412	43.206	0	172.30	0	8.6180	0	37.5060	8	29.149	0	170.858	0	189.8	4	68.3	4	-1E+10	1	-1E+10	1	-1E+10	1	-1E+10	1	-1E+10	1	-1E+10	1
4901784	219	C	07/03/2021	10:41	-136.412	43.206	0	174.50	0	8.5880	0	37.5370	8	29.178	0	173.039	0	189.3	4	68.1	4	-1E+10	1	-1E+10	1	-1E+10	1	-1E+10	1	-1E+10	1	-1E+10	1
4901784	219	C	07/03/2021	10:41	-136.412	43.206	0	177.50	0	8.5710	0	37.5650	8	29.203	0	176.013	0	188.7	4	67.8	4	-1E+10	1	-1E+10	1	-1E+10	1	-1E+10	1	-1E+10	1	-1E+10	1
4901784	219	C	07/03/2021	10:41	-136.412	43.206	0	179.90	0	8.5720	0	37.5920	8	29.224	0	178.391	0	188.0	4	67.6	4	-1E+10	1	-1E+10	1	-1E+10	1	-1E+10	1	-1E+10	1	-1E+10	1
4901784	219	C	07/03/2021	10:41	-136.412	43.206	0	182.30	0	8.5570	0	37.6030	8	29.235	0	180.770	0	187.7	4	67.5	4	-1E+10	1	-1E+10	1	-1E+10	1	-1E+10	1	-1E+10	1	-1E+10	1
4901784	219	C	07/03/2021	10:41	-136.412	43.206	0	184.80	0	8.5140	0	37.6240	8	29.258	0	183.248	0	187.2	4	67.3	4	-1E+10	1	-1E+10	1	-1E+10	1	-1E+10	1	-1E+10	1	-1E+10	1
4901784	219	C	07/03/2021	10:41	-136.412	43.206	0	187.20	0	8.4880	0	37.6280	8	29.266	0	185.627	0	187.0	4	67.2	4	-1E+10	1	-1E+10	1	-1E+10	1	-1E+10	1	-1E+10	1	-1E+10	1
4901784	219	C	07/03/2021	10:41	-136.412	43.206	0	189.70	0	8.4400	0	37.6380	8	29.281	0	188.105	0	186.8	4	67.0	4	-1E+10	1	-1E+10	1	-1E+10	1	-1E+10	1	-1E+10	1	-1E+10	1
4901784	219	C	07/03/2021	10:41	-136.412	43.206	0	192.20	0	8.4200	0	37.6480	8	29.292	0	190.583	0	186.3	4	66.8	4	-1E+10	1	-1E+10	1	-1E+10	1	-1E+10	1	-1E+10	1	-1E+10	1
4901784	219	C	07/03/2021	10:41	-136.412	43.206	0	194.80	0	8.3800	0	37.6570	8	29.306	0	193.160	0	185.9	4	66.6	4	-1E+10	1	-1E+10	1	-1E+10	1	-1E+10	1	-1E+10	1	-1E+10	1
4901784	219	C	07/03/2021	10:41	-136.412	43.206	0	197.30	0	8.3470	0	37.6650	8	29.317	0	195.637	0	185.7	4	66.5	4	-1E+10	1	-1E+10	1	-1E+10	1	-1E+10	1	-1E+10	1	-1E+10	1
4901784	219	C	07/03/2021	10:41	-136.412	43.206	0	199.90	0	8.3010	0	37.6690	8	29.328	0	198.214	0	185.1	4	66.2	4	-1E+10	1	-1E+10	1	-1E+10	1	-1E+10	1	-1E+10	1	-1E+10	1
4901784	219	C	07/03/2021	10:41	-136.412	43.206	0	202.60	0	8.2500	0	37.6740	8	29.340	0	200.890	0	184.7	4	66.0	4	-1E+10	1	-1E+10	1	-1E+10	1	-1E+10	1	-1E+10	1	-1E+10	1
4901784	219	C	07/03/2021	10:41	-136.412	43.206	0	205.10	0	8.2050	0	37.6820	8	29.354	0	203.368	0	184.4	4	65.9	4	-1E+10	1	-1E+10	1	-1E+10	1	-1E+10	1	-1E+10	1	-1E+10	1
4901784	219	C	07/03/2021	10:41	-136.412	43.206	0	207.70	0	8.1760	0	37.6870	8	29.362	0	205.945	0	184.2	4	65.7	4	-1E+10	1	-1E+10	1	-1E+10	1	-1E+10	1	-1E+10	1	-1E+10	1
4901784	219	C	07/03/2021	10:41	-136.412	43.206	0	210.20	0	8.1440	0	37.6940	8	29.373	0	208.422	0	183.9	4	65.6	4	-1E+10	1	-1E+10	1	-1E+10	1	-1E+10	1	-1E+10	1	-1E+10	1
4901784	219	C	07/03/2021	10:41	-136.412	43.206	0	212.90	0	8.1330	0	37.6960	8	29.376	0	211.098	0	183.6	4	65.5	4	-1E+10	1	-1E+10	1	-1E+10	1	-1E+10	1	-1E+10	1	-1E+10	1
4901784	219	C	07/03/2021	10:41	-136.412	43.206	0	215.40	0	8.1260	0	37.6980	8	29.379	0	213.575	0	183.3	4	65.3	4	-1E+10	1	-1E+10	1	-1E+10	1	-1E+10	1	-1E+10	1	-1E+10	1
4901784	219	C	07/03/2021	10:41	-136.412	43.206	0	217.10	0	8.1110	0	37.6990	8	29.382	0	215.260	0	182.8	4	65.1	4	-1E+10	1	-1E+10	1	-1E+10	1	-1E+10	1	-1E+10	1	-1E+10	1
4901784	219	C	07/03/2021	10:41	-136.412	43.206	0	219.80	0	8.0830	0	37.7040	8	29.390	0	217.936	0	182.1	4	64.8	4	-1E+10	1	-1E+10	1	-1E+10	1	-1E+10	1	-1E+10	1	-1E+10	1
4901784	219	C	07/03/2021	10:41	-136.412	43.206	0	222.30	0	8.0400	0	37.7130	8	29.404	0	220.413	0	181.3	4	64.5	4	-1E+10	1	-1E+10	1	-1E+10	1	-1E+10	1	-1E+10	1	-1E+10	1
4901784	219	C	07/03/2021	10:41	-136.412	43.206	0	225.00	0	8.0190	0	37.7180	8	29.411	0	223.089	0	180.3	4	64.1	4	-1E+10	1	-1E+10	1	-1E+10	1	-1E+10	1	-1E+10	1	-1E+10	1
4901784	219	C	07/03/2021	10:41	-136.412	43.206	0	227.60	0	8.0350	0	37.7290	8	29.418	0	225.665	0	179.0	4	63.7	4	-1E+10	1	-1E+10	1	-1E+10	1	-1E+10	1	-1E+10	1	-1E+10	1
4901784	219	C	07/03/2021	10:41	-136.412	43.206	0	229.40	0	7.9880	0	37.7260	8	29.423	0	227.449	0	178.3	4	63.4	4	-1E+10	1	-1E+10	1	-1E+10	1	-1E+10	1	-1E+10	1	-1E+10	1
4901784	219	C	07/03/2021	10:41	-136.412	43.206	0	232.20	0	7.9360	0	37.7290	8	29.433	0	230.224	0	177.0	4	62.8	4	-1E+10	1	-1E+10	1	-1E+10	1	-1E+10	1	-1E+10	1	-1E+10	1
4901784	219	C	07/03/2021	10:41	-136.412	43.206	0	235.00	0	7.9510	0	37.7400	8	29.440	0	232.998	0	175.1	4	62.2	4	-1E+10	1	-1E+10	1	-1E+10	1	-1E+10	1	-1E+10	1	-1E+10	1
4901784	219	C	07/03/2021	10:41	-136.412	43.206	0	237.70	0	7.9420	0	37.7480	8	29.447	0	235.674	0	173.4	4	61.6	4	-1E+10	1	-1E+10	1	-1E+10	1	-1E+10	1	-1E+10	1	-1E+10	1
4901784	219	C	07/03/2021	10:41	-136.412	43.206	0	240.50	0	7.8920	0	37.7540	8	29.460	0	238.448	0	171.8	4	61.0	4	-1E+10	1	-1E+10	1	-1E+10	1	-1E+10	1	-1E+10	1	-1E+10	1
4901784	219	C	07/03/2021	10:41	-136.412	43.206	0	242.20	0	7.8720	0	37.7560	8	29.465	0	240.133	0	171.0	4	60.6	4	-1E+10	1	-1E+10	1	-1E+10	1	-1E+10	1	-1E+10	1	-1E+10	1
4901784	219	C	07/03/2021	10:41	-136.412	43.206	0	244.80	0	7.8290	0	37.7570	8	29.472	0	242.709	0	169.9	4	60.2	4	-1E+10	1	-1E+10	1	-1E+10	1	-1E+10	1	-1E+10	1	-1E+10	1
4901784	219	C	07/03/2021	10:41	-136.412	43.206	0	247.50	0	7.8060	0	37.7590	8	29.477	0	245.385	0	168.4	4	59.6	4	-1E+10	1	-1E+10	1	-1E+10	1	-1E+10	1	-1E+10	1	-1E+10	1
4901784	219	C	07/03/2021	10:41	-136.412	43.206	0	250.10	0	7.7410	0	37.7580	8	29.486	0	247.961	0	167.4	4	59.2	4	-1E+10	1	-1E+10	1	-1E+10	1	-1E+10	1	-1E+10	1	-1E+10	1
4901784	219	C	07/03/2021	10:41	-136.412	43.206	0	252.80	0	7.6670	0	37.7550	8	29.495	0	250.636	0	166.5	4	58.8	4	-1E+10	1	-1E+10	1	-1E+10	1	-1E+10	1	-1E+10	1	-1E+10	1
4901784	219	C	07/03/2021	10:41	-136.412	43.206	0	254.60	0	7.6530	0	37.7570	8	29.499	0	252.420	0	165.3	4	58.3	4	-1E+10	1	-1E+10	1	-1E+10	1	-1E+10	1	-1E+10	1	-1E+10	1
4901784	219	C	07/03/2021	10:41	-136.412	43.206	0	257.20	0	7.6090	0	37.7610	8	29.509	0	254.996	0	163.6	4	57.7	4	-1E+10	1	-1E+10	1	-1E+10	1	-1E+10	1	-1E+10	1	-1E+10	1
4901784	219	C	07/03/2021	10:41	-136.412	43.206	0	259.90	0	7.5630	0	37.7700	8	29.523	0	257.671	0	161.8	4	57.0	4	-1E+10	1	-1E+10	1	-1E+10	1	-1E+10	1	-1E+10	1	-1E+10	1
4901784	219	C	07/03/2021	10:41	-136.412	43.206	0	262.50	0	7.5410	0	37.7810	8	29.535	0	260.247	0	160.1	4	56.4	4	-1E+10	1	-1E+10	1	-1E+10	1	-1E+10	1	-1E+10	1	-1E+10	1
4901784	219	C	07/03/2021	10:41	-136.412	43.206	0	265.10	0	7.5460	0	37.7830	8	29.536	0	262.823	0	158.7	4	55.9	4	-1E+10	1	-1E+10	1	-1E+10	1	-1E+10	1	-1E+10	1	-1E+10	1
4901784	219	C	07/03/2021	10:41	-136.412	43.206	0	267.70	0	7.5290	0	37.7850	8	29.540	0	265.399	0	156.7	4	55.1	4	-1E+10	1	-1E+10	1	-1E+10	1	-1E+10	1	-1E+10	1	-1E+10	1
4901784	219	C	07/03/2021	10:41	-136.412	43.206	0	270.40	0	7.4750	0	37.7920	8	29.554	0	268.074	0	154.7	4	54.4	4	-1E+10	1	-1E+10	1	-1E+10	1	-1E+10	1	-1E+10	1	-1E+10	1
4901784	219	C	07/03/2021	10:41	-136.412	43.206	0	272.10	0	7.4410	0	37.7970	8	29.563	0	269.758	0	154.0	4	54.1	4	-1E+10	1	-1E+10	1	-1E+10	1	-1E+10	1	-1E+10	1	-1E+10	1
4901784	219	C	07/03/2021	10:41	-136.412	43.206	0	274.80	0	7.4060	0	37.8040	8	29.574	0	272.433	0	153.1	4	53.7	4	-1E+10	1	-1E+10	1	-1E+10	1	-1E+10	1	-1E+10	1	-1E+10	1
4901784	219	C	07/03/2021	10:41	-136.412	43.206	0	277.40	0	7.3910	0	37.8070	8	29.579	0	275.009	0	152.5	4	53.5	4	-1E+10	1	-1E+10	1	-1E+10	1	-1E+10	1	-1E+10	1	-1E+10	1
4901784	219	C	07/03/2021	10:41	-136.412	43.206	0	280.10	0	7.3870	0	37.8070	8	29.579	0	277.684	0	151.9	4	53.3	4	-1E+10	1	-1E+10	1	-1E+10	1	-1E+10	1	-1E+10	1	-1E+10	1
4901784	219	C	07/03/2021	10:41	-136.412	43.206	0	282.70	0	7.3850	0	37.8070	8	29.579	0	280.260	0	151.0	4	53.0	4	-1E+10	1	-1E+10	1	-1E+10	1	-1E+10	1	-1E+10	1	-1E+10	1
4901784	219	C	07/03/2021	10:41	-136.412	43.206	0	285.30	0	7.3800	0	37.8050	8	29.579	0	282.836	0	149.6	4	52.5	4	-1E+10	1	-1E+10	1	-1E+10	1	-1E+10	1	-1E+10	1	-1E+10	1
4901784	219	C	07/03/2021	10:41	-136.412	43.206	0	287.90	0	7.3270	0	37.8120	8	29.592	0	285.411	0	148.0	4	51.9	4	-1E+10	1	-1E+10	1	-1E+10	1	-1E+10	1	-1E+10	1	-1E+10	1
4901784	219	C	07/03/2021	10:41	-136.412	43.206	0	289.70	0	7.3020	0	37.8110	8	29.595	0	287.195	0	147.2	4	51.6	4	-1E+10	1	-1E+10	1	-1E+10	1	-1E+10	1	-1E+10	1	-1E+10	1
4901784	219	C	07/03/2021	10:41	-136.412	43.206	0	292.40	0	7.2470	0	37.8150	8	29.607	0	289.869	0	145.8	4	51.0	4	-1E+10	1	-1E+10	1	-1E+10	1	-1E+10	1	-1E+10	1	-1E+10	1
4901784	219	C	07/03/2021	10:41	-136.412	43.206	0	295.10	0	7.1860	0	37.8200	8	29.620	0	292.544	0	144.8	4	50.6	4	-1E+10	1	-1E+10	1	-1E+10	1	-1E+10	1	-1E+10	1	-1E+10	1
4901784	219	C	07/03/2021	10:41	-136.412	43.206	0	297.70	0	7.1800	0	37.8180	8	29.619	0	295.120	0	144.1	4	50.3	4	-1E+10	1	-1E+10	1	-1E+10	1	-1E+10	1	-1E+10	1	-1E+10	1
4901784	219	C	07/03/2021	10:41	-136.412	43.206	0	300.40	0	7.1100	0	37.8220	8	29.632	0	297.794	0	143.2	4	50.0	4	-1E+10	1	-1E+10	1	-1E+10	1	-1E+10	1	-1E+10	1	-1E+10	1
4901784	219	C	07/03/2021	10:41	-136.412	43.206	0	302.20	0	7.0870	0	37.8230	8	29.637	0	299.577	0	142.6	4	49.7	4	-1E+10	1	-1E+10	1	-1E+10	1	-1E+10	1	-1E+10	1	-1E+10	1
4901784	219	C	07/03/2021	10:41	-136.412	43.206	0	304.90	0	7.0740	0	37.8250	8	29.640	0	302.252	0	141.7	4	49.4	4	-1E+10	1	-1E+10	1	-1E+10	1	-1E+10	1	-1E+10	1	-1E+10	1
4901784	219	C	07/03/2021	10:41	-136.412	43.206	0	307.50	0	7.0500	0	37.8260	8	29.644	0	304.828	0	140.9	4	49.1	4	-1E+10	1	-1E+10	1	-1E+10	1	-1E+10	1	-1E+10	1	-1E+10	1
4901784	219	C	07/03/2021	10:41	-136.412	43.206	0	310.10	0	7.0000	0	37.8280	8	29.653	0	307.403	0	140.1	4	48.7	4	-1E+10	1	-1E+10	1	-1E+10	1	-1E+10	1	-1E+10	1	-1E+10	1
4901784	219	C	07/03/2021	10:41	-136.412	43.206	0	312.70	0	6.9720	0	37.8270	8	29.657	0	309.978	0	139.2	4	48.4	4	-1E+10	1	-1E+10	1	-1E+10	1	-1E+10	1	-1E+10	1	-1E+10	1
4901784	219	C	07/03/2021	10:41	-136.412	43.206	0	315.30	0	6.9220	0	37.8290	8	29.666	0	312.554	0	138.4	4	48.1	4	-1E+10	1	-1E+10	1	-1E+10	1	-1E+10	1	-1E+10	1	-1E+10	1
4901784	219	C	07/03/2021	10:41	-136.412	43.206	0	318.00	0	6.9010	0	37.8260	8	29.666	0	315.228	0	137.4	4	47.7	4	-1E+10	1	-1E+10	1	-1E+10	1	-1E+10	1	-1E+10	1	-1E+10	1
4901784	219	C	07/03/2021	10:41	-136.412	43.206	0	319.80	0	6.8550	0	37.8260	8	29.673	0	317.011	0	136.8	4	47.4	4	-1E+10	1	-1E+10	1	-1E+10	1	-1E+10	1	-1E+10	1	-1E+10	1
4901784	219	C	07/03/2021	10:41	-136.412	43.206	0	322.60	0	6.7770	0	37.8260	8	29.684	0	319.785	0	135.8	4	47.0	4	-1E+10	1	-1E+10	1	-1E+10	1	-1E+10	1	-1E+10	1	-1E+10	1
4901784	219	C	07/03/2021	10:41	-136.412	43.206	0	325.30	0	6.6920	0	37.8240	8	29.695	0	322.459	0	134.6	4	46.5	4	-1E+10	1	-1E+10	1	-1E+10	1	-1E+10	1	-1E+10	1	-1E+10	1
4901784	219	C	07/03/2021	10:41	-136.412	43.206	0	327.00	0	6.6790	0	37.8280	8	29.700	0	324.143	0	133.6	4	46.1	4	-1E+10	1	-1E+10	1	-1E+10	1	-1E+10	1	-1E+10	1	-1E+10	1
4901784	219	C	07/03/2021	10:41	-136.412	43.206	0	329.70	0	6.6470	0	37.8320	8	29.707	0	326.817	0	132.3	4	45.7	4	-1E+10	1	-1E+10	1	-1E+10	1	-1E+10	1	-1E+10	1	-1E+10	1
4901784	219	C	07/03/2021	10:41	-136.412	43.206	0	332.50	0	6.6050	0	37.8330	8	29.714	0	329.590	0	131.1	4	45.2	4	-1E+10	1	-1E+10	1	-1E+10	1	-1E+10	1	-1E+10	1	-1E+10	1
4901784	219	C	07/03/2021	10:41	-136.412	43.206	0	335.20	0	6.5600	0	37.8350	8	29.722	0	332.265	0	130.1	4	44.8	4	-1E+10	1	-1E+10	1	-1E+10	1	-1E+10	1	-1E+10	1	-1E+10	1
4901784	219	C	07/03/2021	10:41	-136.412	43.206	0	337.90	0	6.5220	0	37.8320	8	29.725	0	334.939	0	129.2	4	44.5	4	-1E+10	1	-1E+10	1	-1E+10	1	-1E+10	1	-1E+10	1	-1E+10	1
4901784	219	C	07/03/2021	10:41	-136.412	43.206	0	339.70	0	6.4820	0	37.8350	8	29.733	0	336.722	0	128.4	4	44.2	4	-1E+10	1	-1E+10	1	-1E+10	1	-1E+10	1	-1E+10	1	-1E+10	1
4901784	219	C	07/03/2021	10:41	-136.412	43.206	0	342.60	0	6.4450	0	37.8330	8	29.737	0	339.594	0	127.0	4	43.6	4	-1E+10	1	-1E+10	1	-1E+10	1	-1E+10	1	-1E+10	1	-1E+10	1
4901784	219	C	07/03/2021	10:41	-136.412	43.206	0	345.40	0	6.4090	0	37.8300	8	29.740	0	342.367	0	125.2	4	43.0	4	-1E+10	1	-1E+10	1	-1E+10	1	-1E+10	1	-1E+10	1	-1E+10	1
4901784	219	C	07/03/2021	10:41	-136.412	43.206	0	347.20	0	6.3440	0	37.8350	8	29.753	0	344.150	0	123.9	4	42.5	4	-1E+10	1	-1E+10	1	-1E+10	1	-1E+10	1	-1E+10	1	-1E+10	1
4901784	219	C	07/03/2021	10:41	-136.412	43.206	0	350.00	0	6.3110	0	37.8340	8	29.756	0	346.923	0	122.0	4	41.8	4	-1E+10	1	-1E+10	1	-1E+10	1	-1E+10	1	-1E+10	1	-1E+10	1
4901784	219	C	07/03/2021	10:41	-136.412	43.206	0	352.80	0	6.2550	0	37.8330	8	29.763	0	349.696	0	119.8	4	41.0	4	-1E+10	1	-1E+10	1	-1E+10	1	-1E+10	1	-1E+10	1	-1E+10	1
4901784	219	C	07/03/2021	10:41	-136.412	43.206	0	354.70	0	6.1870	0	37.8330	8	29.773	0	351.577	0	118.3	4	40.4	4	-1E+10	1	-1E+10	1	-1E+10	1	-1E+10	1	-1E+10	1	-1E+10	1
4901784	219	C	07/03/2021	10:41	-136.412	43.206	0	357.60	0	6.0920	0	37.8400	8	29.791	0	354.449	0	116.7	4	39.8	4	-1E+10	1	-1E+10	1	-1E+10	1	-1E+10	1	-1E+10	1	-1E+10	1
4901784	219	C	07/03/2021	10:41	-136.412	43.206	0	360.50	0	6.0460	0	37.8460	8	29.802	0	357.321	0	115.3	4	39.3	4	-1E+10	1	-1E+10	1	-1E+10	1	-1E+10	1	-1E+10	1	-1E+10	1
4901784	219	C	07/03/2021	10:41	-136.412	43.206	0	362.40	0	6.0310	0	37.8470	8	29.805	0	359.203	0	114.3	4	38.9	4	-1E+10	1	-1E+10	1	-1E+10	1	-1E+10	1	-1E+10	1	-1E+10	1
4901784	219	C	07/03/2021	10:41	-136.412	43.206	0	365.20	0	6.0060	0	37.8470	8	29.808	0	361.976	0	112.5	4	38.3	4	-1E+10	1	-1E+10	1	-1E+10	1	-1E+10	1	-1E+10	1	-1E+10	1
4901784	219	C	07/03/2021	10:41	-136.412	43.206	0	368.10	0	5.9850	0	37.8470	8	29.811	0	364.848	0	110.2	4	37.5	4	-1E+10	1	-1E+10	1	-1E+10	1	-1E+10	1	-1E+10	1	-1E+10	1
4901784	219	C	07/03/2021	10:41	-136.412	43.206	0	370.00	0	5.9630	0	37.8470	8	29.814	0	366.729	0	107.9	4	36.7	4	-1E+10	1	-1E+10	1	-1E+10	1	-1E+10	1	-1E+10	1	-1E+10	1
4901784	219	C	07/03/2021	10:41	-136.412	43.206	0	371.90	0	5.9350	0	37.8510	8	29.821	0	368.611	0	105.6	4	35.9	4	-1E+10	1	-1E+10	1	-1E+10	1	-1E+10	1	-1E+10	1	-1E+10	1
4901784	219	C	07/03/2021	10:41	-136.412	43.206	0	374.80	0	5.8780	0	37.8550	8	29.832	0	371.482	0	103.2	4	35.0	4	-1E+10	1	-1E+10	1	-1E+10	1	-1E+10	1	-1E+10	1	-1E+10	1
4901784	219	C	07/03/2021	10:41	-136.412	43.206	0	377.70	0	5.8230	0	37.8580	8	29.842	0	374.354	0	102.0	4	34.6	4	-1E+10	1	-1E+10	1	-1E+10	1	-1E+10	1	-1E+10	1	-1E+10	1
4901784	219	C	07/03/2021	10:41	-136.412	43.206	0	379.60	0	5.7780	0	37.8600	8	29.849	0	376.235	0	101.8	4	34.4	4	-1E+10	1	-1E+10	1	-1E+10	1	-1E+10	1	-1E+10	1	-1E+10	1
4901784	219	C	07/03/2021	10:41	-136.412	43.206	0	382.60	0	5.7270	0	37.8620	8	29.858	0	379.206	0	102.2	4	34.5	4	-1E+10	1	-1E+10	1	-1E+10	1	-1E+10	1	-1E+10	1	-1E+10	1
4901784	219	C	07/03/2021	10:41	-136.412	43.206	0	385.40	0	5.7010	0	37.8630	8	29.862	0	381.979	0	101.3	4	34.2	4	-1E+10	1	-1E+10	1	-1E+10	1	-1E+10	1	-1E+10	1	-1E+10	1
4901784	219	C	07/03/2021	10:41	-136.412	43.206	0	387.30	0	5.6930	0	37.8610	8	29.861	0	383.860	0	100.0	4	33.8	4	-1E+10	1	-1E+10	1	-1E+10	1	-1E+10	1	-1E+10	1	-1E+10	1
4901784	219	C	07/03/2021	10:41	-136.412	43.206	0	390.20	0	5.6310	0	37.8680	8	29.875	0	386.732	0	98.0	4	33.1	4	-1E+10	1	-1E+10	1	-1E+10	1	-1E+10	1	-1E+10	1	-1E+10	1
4901784	219	C	07/03/2021	10:41	-136.412	43.206	0	393.10	0	5.5730	0	37.8740	8	29.887	0	389.603	0	96.7	4	32.6	4	-1E+10	1	-1E+10	1	-1E+10	1	-1E+10	1	-1E+10	1	-1E+10	1
4901784	219	C	07/03/2021	10:41	-136.412	43.206	0	395.60	0	5.5550	0	37.8740	8	29.890	0	392.079	0	95.7	4	32.2	4	-1E+10	1	-1E+10	1	-1E+10	1	-1E+10	1	-1E+10	1	-1E+10	1
4901784	219	C	07/03/2021	10:41	-136.412	43.206	0	397.60	0	5.5210	0	37.8760	8	29.896	0	394.059	0	95.1	4	32.0	4	-1E+10	1	-1E+10	1	-1E+10	1	-1E+10	1	-1E+10	1	-1E+10	1
4901784	219	C	07/03/2021	10:41	-136.412	43.206	0	400.00	0	5.4920	0	37.8770	8	29.900	0	396.435	0	93.7	4	31.5	4	-1E+10	1	-1E+10	1	-1E+10	1	-1E+10	1	-1E+10	1	-1E+10	1
4901784	219	C	07/03/2021	10:41	-136.412	43.206	0	402.50	0	5.4450	0	37.8820	8	29.910	0	398.910	0	92.5	4	31.1	4	-1E+10	1	-1E+10	1	-1E+10	1	-1E+10	1	-1E+10	1	-1E+10	1
4901784	219	C	07/03/2021	10:41	-136.412	43.206	0	404.90	0	5.4080	0	37.8870	8	29.919	0	401.287	0	91.4	4	30.7	4	-1E+10	1	-1E+10	1	-1E+10	1	-1E+10	1	-1E+10	1	-1E+10	1
4901784	219	C	07/03/2021	10:41	-136.412	43.206	0	407.30	0	5.3930	0	37.8880	8	29.922	0	403.663	0	90.5	4	30.3	4	-1E+10	1	-1E+10	1	-1E+10	1	-1E+10	1	-1E+10	1	-1E+10	1
4901784	219	C	07/03/2021	10:41	-136.412	43.206	0	409.80	0	5.3700	0	37.8910	8	29.927	0	406.138	0	89.5	4	30.0	4	-1E+10	1	-1E+10	1	-1E+10	1	-1E+10	1	-1E+10	1	-1E+10	1
4901784	219	C	07/03/2021	10:41	-136.412	43.206	0	412.30	0	5.3540	0	37.8920	8	29.930	0	408.613	0	88.4	4	29.6	4	-1E+10	1	-1E+10	1	-1E+10	1	-1E+10	1	-1E+10	1	-1E+10	1
4901784	219	C	07/03/2021	10:41	-136.412	43.206	0	414.70	0	5.3310	0	37.8960	8	29.936	0	410.990	0	87.1	4	29.2	4	-1E+10	1	-1E+10	1	-1E+10	1	-1E+10	1	-1E+10	1	-1E+10	1
4901784	219	C	07/03/2021	10:41	-136.412	43.206	0	417.20	0	5.3120	0	37.9010	8	29.943	0	413.465	0	86.0	4	28.8	4	-1E+10	1	-1E+10	1	-1E+10	1	-1E+10	1	-1E+10	1	-1E+10	1
4901784	219	C	07/03/2021	10:41	-136.412	43.206	0	419.70	0	5.2790	0	37.9040	8	29.949	0	415.940	0	85.1	4	28.5	4	-1E+10	1	-1E+10	1	-1E+10	1	-1E+10	1	-1E+10	1	-1E+10	1
4901784	219	C	07/03/2021	10:41	-136.412	43.206	0	422.20	0	5.2690	0	37.9060	8	29.952	0	418.415	0	84.2	4	28.2	4	-1E+10	1	-1E+10	1	-1E+10	1	-1E+10	1	-1E+10	1	-1E+10	1
4901784	219	C	07/03/2021	10:41	-136.412	43.206	0	424.70	0	5.2580	0	37.9060	8	29.954	0	420.890	0	83.3	4	27.9	4	-1E+10	1	-1E+10	1	-1E+10	1	-1E+10	1	-1E+10	1	-1E+10	1
4901784	219	C	07/03/2021	10:41	-136.412	43.206	0	427.20	0	5.2220	0	37.9090	8	29.961	0	423.365	0	82.3	4	27.5	4	-1E+10	1	-1E+10	1	-1E+10	1	-1E+10	1	-1E+10	1	-1E+10	1
4901784	219	C	07/03/2021	10:41	-136.412	43.206	0	429.70	0	5.1880	0	37.9120	8	29.967	0	425.840	0	81.6	4	27.3	4	-1E+10	1	-1E+10	1	-1E+10	1	-1E+10	1	-1E+10	1	-1E+10	1
4901784	219	C	07/03/2021	10:41	-136.412	43.206	0	432.20	0	5.1660	0	37.9130	8	29.971	0	428.315	0	81.0	4	27.0	4	-1E+10	1	-1E+10	1	-1E+10	1	-1E+10	1	-1E+10	1	-1E+10	1
4901784	219	C	07/03/2021	10:41	-136.412	43.206	0	434.80	0	5.1400	0	37.9160	8	29.976	0	430.889	0	80.2	4	26.8	4	-1E+10	1	-1E+10	1	-1E+10	1	-1E+10	1	-1E+10	1	-1E+10	1
4901784	219	C	07/03/2021	10:41	-136.412	43.206	0	437.40	0	5.1190	0	37.9180	8	29.981	0	433.463	0	79.6	4	26.5	4	-1E+10	1	-1E+10	1	-1E+10	1	-1E+10	1	-1E+10	1	-1E+10	1
4901784	219	C	07/03/2021	10:41	-136.412	43.206	0	440.00	0	5.1060	0	37.9190	8	29.983	0	436.037	0	78.9	4	26.3	4	-1E+10	1	-1E+10	1	-1E+10	1	-1E+10	1	-1E+10	1	-1E+10	1
4901784	219	C	07/03/2021	10:41	-136.412	43.206	0	442.60	0	5.0870	0	37.9200	8	29.986	0	438.611	0	78.1	4	26.0	4	-1E+10	1	-1E+10	1	-1E+10	1	-1E+10	1	-1E+10	1	-1E+10	1
4901784	219	C	07/03/2021	10:41	-136.412	43.206	0	445.20	0	5.0500	0	37.9240	8	29.994	0	441.184	0	77.2	4	25.7	4	-1E+10	1	-1E+10	1	-1E+10	1	-1E+10	1	-1E+10	1	-1E+10	1
4901784	219	C	07/03/2021	10:41	-136.412	43.206	0	447.80	0	5.0170	0	37.9280	8	30.001	0	443.758	0	76.5	4	25.4	4	-1E+10	1	-1E+10	1	-1E+10	1	-1E+10	1	-1E+10	1	-1E+10	1
4901784	219	C	07/03/2021	10:41	-136.412	43.206	0	450.30	0	5.0110	0	37.9290	8	30.003	0	446.233	0	75.9	4	25.3	4	-1E+10	1	-1E+10	1	-1E+10	1	-1E+10	1	-1E+10	1	-1E+10	1
4901784	219	C	07/03/2021	10:41	-136.412	43.206	0	452.90	0	5.0060	0	37.9290	8	30.004	0	448.807	0	75.2	4	25.0	4	-1E+10	1	-1E+10	1	-1E+10	1	-1E+10	1	-1E+10	1	-1E+10	1
4901784	219	C	07/03/2021	10:41	-136.412	43.206	0	454.70	0	4.9800	0	37.9340	8	30.011	0	450.588	0	74.8	4	24.9	4	-1E+10	1	-1E+10	1	-1E+10	1	-1E+10	1	-1E+10	1	-1E+10	1
4901784	219	C	07/03/2021	10:41	-136.412	43.206	0	457.40	0	4.9690	0	37.9370	8	30.015	0	453.261	0	74.5	4	24.7	4	-1E+10	1	-1E+10	1	-1E+10	1	-1E+10	1	-1E+10	1	-1E+10	1
4901784	219	C	07/03/2021	10:41	-136.412	43.206	0	460.10	0	4.9630	0	37.9380	8	30.016	0	455.934	0	74.1	4	24.6	4	-1E+10	1	-1E+10	1	-1E+10	1	-1E+10	1	-1E+10	1	-1E+10	1
4901784	219	C	07/03/2021	10:41	-136.412	43.206	0	462.70	0	4.9630	0	37.9380	8	30.016	0	458.507	0	73.6	4	24.4	4	-1E+10	1	-1E+10	1	-1E+10	1	-1E+10	1	-1E+10	1	-1E+10	1
4901784	219	C	07/03/2021	10:41	-136.412	43.206	0	465.40	0	4.9520	0	37.9400	8	30.019	0	461.180	0	72.9	4	24.2	4	-1E+10	1	-1E+10	1	-1E+10	1	-1E+10	1	-1E+10	1	-1E+10	1
4901784	219	C	07/03/2021	10:41	-136.412	43.206	0	467.20	0	4.9460	0	37.9410	8	30.021	0	462.961	0	72.4	4	24.0	4	-1E+10	1	-1E+10	1	-1E+10	1	-1E+10	1	-1E+10	1	-1E+10	1
4901784	219	C	07/03/2021	10:41	-136.412	43.206	0	469.90	0	4.9340	0	37.9440	8	30.025	0	465.634	0	71.8	4	23.8	4	-1E+10	1	-1E+10	1	-1E+10	1	-1E+10	1	-1E+10	1	-1E+10	1
4901784	219	C	07/03/2021	10:41	-136.412	43.206	0	472.60	0	4.9130	0	37.9490	8	30.031	0	468.306	0	71.2	4	23.6	4	-1E+10	1	-1E+10	1	-1E+10	1	-1E+10	1	-1E+10	1	-1E+10	1
4901784	219	C	07/03/2021	10:41	-136.412	43.206	0	474.50	0	4.9040	0	37.9500	8	30.033	0	470.187	0	70.9	4	23.5	4	-1E+10	1	-1E+10	1	-1E+10	1	-1E+10	1	-1E+10	1	-1E+10	1
4901784	219	C	07/03/2021	10:41	-136.412	43.206	0	477.20	0	4.8970	0	37.9520	8	30.036	0	472.859	0	70.4	4	23.4	4	-1E+10	1	-1E+10	1	-1E+10	1	-1E+10	1	-1E+10	1	-1E+10	1
4901784	219	C	07/03/2021	10:41	-136.412	43.206	0	479.90	0	4.8900	0	37.9530	8	30.037	0	475.532	0	69.9	4	23.2	4	-1E+10	1	-1E+10	1	-1E+10	1	-1E+10	1	-1E+10	1	-1E+10	1
4901784	219	C	07/03/2021	10:41	-136.412	43.206	0	482.70	0	4.8770	0	37.9540	8	30.040	0	478.303	0	69.3	4	23.0	4	-1E+10	1	-1E+10	1	-1E+10	1	-1E+10	1	-1E+10	1	-1E+10	1
4901784	219	C	07/03/2021	10:41	-136.412	43.206	0	485.50	0	4.8600	0	37.9560	8	30.043	0	481.074	0	68.5	4	22.7	4	-1E+10	1	-1E+10	1	-1E+10	1	-1E+10	1	-1E+10	1	-1E+10	1
4901784	219	C	07/03/2021	10:41	-136.412	43.206	0	487.30	0	4.8540	0	37.9580	8	30.046	0	482.856	0	68.0	4	22.6	4	-1E+10	1	-1E+10	1	-1E+10	1	-1E+10	1	-1E+10	1	-1E+10	1
4901784	219	C	07/03/2021	10:41	-136.412	43.206	0	490.20	0	4.8300	0	37.9600	8	30.050	0	485.726	0	67.6	4	22.4	4	-1E+10	1	-1E+10	1	-1E+10	1	-1E+10	1	-1E+10	1	-1E+10	1
4901784	219	C	07/03/2021	10:41	-136.412	43.206	0	493.00	0	4.8120	0	37.9610	8	30.053	0	488.497	0	67.1	4	22.2	4	-1E+10	1	-1E+10	1	-1E+10	1	-1E+10	1	-1E+10	1	-1E+10	1
4901784	219	C	07/03/2021	10:41	-136.412	43.206	0	494.90	0	4.7860	0	37.9630	8	30.058	0	490.377	0	66.6	4	22.1	4	-1E+10	1	-1E+10	1	-1E+10	1	-1E+10	1	-1E+10	1	-1E+10	1
4901784	219	C	07/03/2021	10:41	-136.412	43.206	0	497.80	0	4.7620	0	37.9640	8	30.062	0	493.247	0	65.9	4	21.8	4	-1E+10	1	-1E+10	1	-1E+10	1	-1E+10	1	-1E+10	1	-1E+10	1
4901784	219	C	07/03/2021	10:41	-136.412	43.206	0	500.80	0	4.7340	0	37.9680	8	30.068	0	496.216	0	65.2	4	21.5	4	-1E+10	1	-1E+10	1	-1E+10	1	-1E+10	1	-1E+10	1	-1E+10	1
4901784	219	C	07/03/2021	10:41	-136.412	43.206	0	504.60	0	4.7160	0	37.9720	8	30.074	0	499.977	0	64.3	4	21.3	4	-1E+10	1	-1E+10	1	-1E+10	1	-1E+10	1	-1E+10	1	-1E+10	1
4901784	219	C	07/03/2021	10:41	-136.412	43.206	0	509.30	0	4.6910	0	37.9760	8	30.080	0	504.628	0	62.7	4	20.7	4	-1E+10	1	-1E+10	1	-1E+10	1	-1E+10	1	-1E+10	1	-1E+10	1
4901784	219	C	07/03/2021	10:41	-136.412	43.206	0	515.00	0	4.6670	0	37.9830	8	30.088	0	510.269	0	60.5	4	20.0	4	-1E+10	1	-1E+10	1	-1E+10	1	-1E+10	1	-1E+10	1	-1E+10	1
4901784	219	C	07/03/2021	10:41	-136.412	43.206	0	520.60	0	4.6480	0	37.9880	8	30.095	0	515.811	0	57.7	4	19.0	4	-1E+10	1	-1E+10	1	-1E+10	1	-1E+10	1	-1E+10	1	-1E+10	1
4901784	219	C	07/03/2021	10:41	-136.412	43.206	0	525.50	0	4.6270	0	37.9950	8	30.103	0	520.659	0	56.1	4	18.5	4	-1E+10	1	-1E+10	1	-1E+10	1	-1E+10	1	-1E+10	1	-1E+10	1
4901784	219	C	07/03/2021	10:41	-136.412	43.206	0	530.40	0	4.6120	0	38.0000	8	30.109	0	525.508	0	54.3	4	17.9	4	-1E+10	1	-1E+10	1	-1E+10	1	-1E+10	1	-1E+10	1	-1E+10	1
4901784	219	C	07/03/2021	10:41	-136.412	43.206	0	535.50	0	4.5880	0	38.0080	8	30.118	0	530.555	0	51.9	4	17.1	4	-1E+10	1	-1E+10	1	-1E+10	1	-1E+10	1	-1E+10	1	-1E+10	1
4901784	219	C	07/03/2021	10:41	-136.412	43.206	0	540.70	0	4.5710	0	38.0150	8	30.126	0	535.700	0	49.0	4	16.1	4	-1E+10	1	-1E+10	1	-1E+10	1	-1E+10	1	-1E+10	1	-1E+10	1
4901784	219	C	07/03/2021	10:41	-136.412	43.206	0	545.10	0	4.5670	0	38.0230	8	30.133	0	540.053	0	45.7	4	15.1	4	-1E+10	1	-1E+10	1	-1E+10	1	-1E+10	1	-1E+10	1	-1E+10	1
4901784	219	C	07/03/2021	10:41	-136.412	43.206	0	549.50	0	4.5690	0	38.0310	8	30.139	0	544.407	0	43.5	4	14.3	4	-1E+10	1	-1E+10	1	-1E+10	1	-1E+10	1	-1E+10	1	-1E+10	1
4901784	219	C	07/03/2021	10:41	-136.412	43.206	0	554.90	0	4.5480	0	38.0380	8	30.147	0	549.750	0	42.1	4	13.9	4	-1E+10	1	-1E+10	1	-1E+10	1	-1E+10	1	-1E+10	1	-1E+10	1
4901784	219	C	07/03/2021	10:41	-136.412	43.206	0	560.30	0	4.5370	0	38.0450	8	30.154	0	555.092	0	40.5	4	13.3	4	-1E+10	1	-1E+10	1	-1E+10	1	-1E+10	1	-1E+10	1	-1E+10	1
4901784	219	C	07/03/2021	10:41	-136.412	43.206	0	565.70	0	4.5160	0	38.0520	8	30.162	0	560.435	0	39.5	4	13.0	4	-1E+10	1	-1E+10	1	-1E+10	1	-1E+10	1	-1E+10	1	-1E+10	1
4901784	219	C	07/03/2021	10:41	-136.412	43.206	0	570.20	0	4.5090	0	38.0560	8	30.166	0	564.887	0	38.4	4	12.6	4	-1E+10	1	-1E+10	1	-1E+10	1	-1E+10	1	-1E+10	1	-1E+10	1
4901784	219	C	07/03/2021	10:41	-136.412	43.206	0	574.70	0	4.5040	0	38.0600	8	30.170	0	569.339	0	37.2	4	12.3	4	-1E+10	1	-1E+10	1	-1E+10	1	-1E+10	1	-1E+10	1	-1E+10	1
4901784	219	C	07/03/2021	10:41	-136.412	43.206	0	580.20	0	4.4970	0	38.0690	8	30.178	0	574.780	0	35.6	4	11.7	4	-1E+10	1	-1E+10	1	-1E+10	1	-1E+10	1	-1E+10	1	-1E+10	1
4901784	219	C	07/03/2021	10:41	-136.412	43.206	0	585.60	0	4.4850	0	38.0760	8	30.185	0	580.122	0	34.4	4	11.3	4	-1E+10	1	-1E+10	1	-1E+10	1	-1E+10	1	-1E+10	1	-1E+10	1
4901784	219	C	07/03/2021	10:41	-136.412	43.206	0	590.20	0	4.4780	0	38.0810	8	30.190	0	584.673	0	33.4	4	11.0	4	-1E+10	1	-1E+10	1	-1E+10	1	-1E+10	1	-1E+10	1	-1E+10	1
4901784	219	C	07/03/2021	10:41	-136.412	43.206	0	594.70	0	4.4690	0	38.0860	8	30.195	0	589.124	0	32.2	4	10.6	4	-1E+10	1	-1E+10	1	-1E+10	1	-1E+10	1	-1E+10	1	-1E+10	1
4901784	219	C	07/03/2021	10:41	-136.412	43.206	0	600.10	0	4.4470	0	38.0960	8	30.205	0	594.466	0	30.9	4	10.1	4	-1E+10	1	-1E+10	1	-1E+10	1	-1E+10	1	-1E+10	1	-1E+10	1
4901784	219	C	07/03/2021	10:41	-136.412	43.206	0	605.60	0	4.4390	0	38.1010	8	30.210	0	599.906	0	30.1	4	9.9	4	-1E+10	1	-1E+10	1	-1E+10	1	-1E+10	1	-1E+10	1	-1E+10	1
4901784	219	C	07/03/2021	10:41	-136.412	43.206	0	610.20	0	4.4300	0	38.1050	8	30.215	0	604.456	0	29.6	4	9.7	4	-1E+10	1	-1E+10	1	-1E+10	1	-1E+10	1	-1E+10	1	-1E+10	1
4901784	219	C	07/03/2021	10:41	-136.412	43.206	0	614.70	0	4.4180	0	38.1090	8	30.219	0	608.907	0	29.0	4	9.5	4	-1E+10	1	-1E+10	1	-1E+10	1	-1E+10	1	-1E+10	1	-1E+10	1
4901784	219	C	07/03/2021	10:41	-136.412	43.206	0	620.20	0	4.4050	0	38.1130	8	30.224	0	614.347	0	28.4	4	9.3	4	-1E+10	1	-1E+10	1	-1E+10	1	-1E+10	1	-1E+10	1	-1E+10	1
4901784	219	C	07/03/2021	10:41	-136.412	43.206	0	624.80	0	4.3750	0	38.1160	8	30.230	0	618.897	0	28.0	4	9.2	4	-1E+10	1	-1E+10	1	-1E+10	1	-1E+10	1	-1E+10	1	-1E+10	1
4901784	219	C	07/03/2021	10:41	-136.412	43.206	0	629.40	0	4.3550	0	38.1240	8	30.239	0	623.447	0	27.3	4	9.0	4	-1E+10	1	-1E+10	1	-1E+10	1	-1E+10	1	-1E+10	1	-1E+10	1
4901784	219	C	07/03/2021	10:41	-136.412	43.206	0	634.90	0	4.3270	0	38.1290	8	30.246	0	628.886	0	26.7	4	8.7	4	-1E+10	1	-1E+10	1	-1E+10	1	-1E+10	1	-1E+10	1	-1E+10	1
4901784	219	C	07/03/2021	10:41	-136.412	43.206	0	640.40	0	4.3300	0	38.1350	8	30.250	0	634.326	0	25.1	4	8.2	4	-1E+10	1	-1E+10	1	-1E+10	1	-1E+10	1	-1E+10	1	-1E+10	1
4901784	219	C	07/03/2021	10:41	-136.412	43.206	0	645.00	0	4.3260	0	38.1430	8	30.257	0	638.875	0	23.9	4	7.8	4	-1E+10	1	-1E+10	1	-1E+10	1	-1E+10	1	-1E+10	1	-1E+10	1
4901784	219	C	07/03/2021	10:41	-136.412	43.206	0	649.50	0	4.3130	0	38.1540	8	30.268	0	643.326	0	23.1	4	7.6	4	-1E+10	1	-1E+10	1	-1E+10	1	-1E+10	1	-1E+10	1	-1E+10	1
4901784	219	C	07/03/2021	10:41	-136.412	43.206	0	655.10	0	4.2970	0	38.1590	8	30.274	0	648.864	0	22.7	4	7.4	4	-1E+10	1	-1E+10	1	-1E+10	1	-1E+10	1	-1E+10	1	-1E+10	1
4901784	219	C	07/03/2021	10:41	-136.412	43.206	0	660.50	0	4.2910	0	38.1630	8	30.277	0	654.204	0	22.4	4	7.3	4	-1E+10	1	-1E+10	1	-1E+10	1	-1E+10	1	-1E+10	1	-1E+10	1
4901784	219	C	07/03/2021	10:41	-136.412	43.206	0	665.10	0	4.2860	0	38.1650	8	30.280	0	658.753	0	22.1	4	7.2	4	-1E+10	1	-1E+10	1	-1E+10	1	-1E+10	1	-1E+10	1	-1E+10	1
4901784	219	C	07/03/2021	10:41	-136.412	43.206	0	669.70	0	4.2800	0	38.1680	8	30.283	0	663.301	0	21.7	4	7.1	4	-1E+10	1	-1E+10	1	-1E+10	1	-1E+10	1	-1E+10	1	-1E+10	1
4901784	219	C	07/03/2021	10:41	-136.412	43.206	0	675.20	0	4.2730	0	38.1720	8	30.287	0	668.740	0	21.3	4	7.0	4	-1E+10	1	-1E+10	1	-1E+10	1	-1E+10	1	-1E+10	1	-1E+10	1
4901784	219	C	07/03/2021	10:41	-136.412	43.206	0	679.80	0	4.2690	0	38.1750	8	30.290	0	673.289	0	20.9	4	6.8	4	-1E+10	1	-1E+10	1	-1E+10	1	-1E+10	1	-1E+10	1	-1E+10	1
4901784	219	C	07/03/2021	10:41	-136.412	43.206	0	684.40	0	4.2650	0	38.1780	8	30.293	0	677.837	0	20.4	4	6.7	4	-1E+10	1	-1E+10	1	-1E+10	1	-1E+10	1	-1E+10	1	-1E+10	1
4901784	219	C	07/03/2021	10:41	-136.412	43.206	0	690.00	0	4.2580	0	38.1850	8	30.299	0	683.374	0	19.6	4	6.4	4	-1E+10	1	-1E+10	1	-1E+10	1	-1E+10	1	-1E+10	1	-1E+10	1
4901784	219	C	07/03/2021	10:41	-136.412	43.206	0	695.50	0	4.2380	0	38.1920	8	30.307	0	688.812	0	19.0	4	6.2	4	-1E+10	1	-1E+10	1	-1E+10	1	-1E+10	1	-1E+10	1	-1E+10	1
4901784	219	C	07/03/2021	10:41	-136.412	43.206	0	700.10	0	4.2220	0	38.1990	8	30.314	0	693.360	0	18.5	4	6.1	4	-1E+10	1	-1E+10	1	-1E+10	1	-1E+10	1	-1E+10	1	-1E+10	1
4901784	219	C	07/03/2021	10:41	-136.412	43.206	0	704.80	0	4.2140	0	38.2030	8	30.319	0	698.007	0	18.1	4	5.9	4	-1E+10	1	-1E+10	1	-1E+10	1	-1E+10	1	-1E+10	1	-1E+10	1
4901784	219	C	07/03/2021	10:41	-136.412	43.206	0	710.30	0	4.2060	0	38.2070	8	30.323	0	703.445	0	17.6	4	5.8	4	-1E+10	1	-1E+10	1	-1E+10	1	-1E+10	1	-1E+10	1	-1E+10	1
4901784	219	C	07/03/2021	10:41	-136.412	43.206	0	714.90	0	4.1890	0	38.2170	8	30.333	0	707.993	0	16.9	4	5.5	4	-1E+10	1	-1E+10	1	-1E+10	1	-1E+10	1	-1E+10	1	-1E+10	1
4901784	219	C	07/03/2021	10:41	-136.412	43.206	0	719.50	0	4.1790	0	38.2220	8	30.338	0	712.541	0	16.7	4	5.5	4	-1E+10	1	-1E+10	1	-1E+10	1	-1E+10	1	-1E+10	1	-1E+10	1
4901784	219	C	07/03/2021	10:41	-136.412	43.206	0	725.10	0	4.1740	0	38.2250	8	30.341	0	718.077	0	16.5	4	5.4	4	-1E+10	1	-1E+10	1	-1E+10	1	-1E+10	1	-1E+10	1	-1E+10	1
4901784	219	C	07/03/2021	10:41	-136.412	43.206	0	729.80	0	4.1710	0	38.2260	8	30.342	0	722.723	0	16.2	4	5.3	4	-1E+10	1	-1E+10	1	-1E+10	1	-1E+10	1	-1E+10	1	-1E+10	1
4901784	219	C	07/03/2021	10:41	-136.412	43.206	0	734.50	0	4.1620	0	38.2300	8	30.346	0	727.369	0	15.7	4	5.1	4	-1E+10	1	-1E+10	1	-1E+10	1	-1E+10	1	-1E+10	1	-1E+10	1
4901784	219	C	07/03/2021	10:41	-136.412	43.206	0	740.20	0	4.1480	0	38.2400	8	30.356	0	733.004	0	15.2	4	5.0	4	-1E+10	1	-1E+10	1	-1E+10	1	-1E+10	1	-1E+10	1	-1E+10	1
4901784	219	C	07/03/2021	10:41	-136.412	43.206	0	744.90	0	4.1410	0	38.2440	8	30.360	0	737.650	0	14.8	4	4.8	4	-1E+10	1	-1E+10	1	-1E+10	1	-1E+10	1	-1E+10	1	-1E+10	1
4901784	219	C	07/03/2021	10:41	-136.412	43.206	0	749.50	0	4.1290	0	38.2520	8	30.368	0	742.197	0	14.3	4	4.7	4	-1E+10	1	-1E+10	1	-1E+10	1	-1E+10	1	-1E+10	1	-1E+10	1
4901784	219	C	07/03/2021	10:41	-136.412	43.206	0	755.20	0	4.1160	0	38.2610	8	30.377	0	747.831	0	13.8	4	4.5	4	-1E+10	1	-1E+10	1	-1E+10	1	-1E+10	1	-1E+10	1	-1E+10	1
4901784	219	C	07/03/2021	10:41	-136.412	43.206	0	759.90	0	4.1070	0	38.2660	8	30.382	0	752.477	0	13.6	4	4.4	4	-1E+10	1	-1E+10	1	-1E+10	1	-1E+10	1	-1E+10	1	-1E+10	1
4901784	219	C	07/03/2021	10:41	-136.412	43.206	0	764.60	0	4.0980	0	38.2710	8	30.387	0	757.122	0	13.3	4	4.3	4	-1E+10	1	-1E+10	1	-1E+10	1	-1E+10	1	-1E+10	1	-1E+10	1
4901784	219	C	07/03/2021	10:41	-136.412	43.206	0	770.30	0	4.0880	0	38.2770	8	30.393	0	762.756	0	13.1	4	4.3	4	-1E+10	1	-1E+10	1	-1E+10	1	-1E+10	1	-1E+10	1	-1E+10	1
4901784	219	C	07/03/2021	10:41	-136.412	43.206	0	775.00	0	4.0800	0	38.2800	8	30.396	0	767.402	0	12.9	4	4.2	4	-1E+10	1	-1E+10	1	-1E+10	1	-1E+10	1	-1E+10	1	-1E+10	1
4901784	219	C	07/03/2021	10:41	-136.412	43.206	0	779.70	0	4.0760	0	38.2840	8	30.400	0	772.047	0	12.7	4	4.1	4	-1E+10	1	-1E+10	1	-1E+10	1	-1E+10	1	-1E+10	1	-1E+10	1
4901784	219	C	07/03/2021	10:41	-136.412	43.206	0	785.30	0	4.0690	0	38.2900	8	30.405	0	777.582	0	12.4	4	4.1	4	-1E+10	1	-1E+10	1	-1E+10	1	-1E+10	1	-1E+10	1	-1E+10	1
4901784	219	C	07/03/2021	10:41	-136.412	43.206	0	790.60	0	4.0480	0	38.2970	8	30.413	0	782.819	0	12.2	4	4.0	4	-1E+10	1	-1E+10	1	-1E+10	1	-1E+10	1	-1E+10	1	-1E+10	1
4901784	219	C	07/03/2021	10:41	-136.412	43.206	0	795.40	0	4.0240	0	38.3030	8	30.421	0	787.563	0	12.0	4	3.9	4	-1E+10	1	-1E+10	1	-1E+10	1	-1E+10	1	-1E+10	1	-1E+10	1
4901784	219	C	07/03/2021	10:41	-136.412	43.206	0	800.10	0	4.0170	0	38.3070	8	30.425	0	792.208	0	11.8	4	3.8	4	-1E+10	1	-1E+10	1	-1E+10	1	-1E+10	1	-1E+10	1	-1E+10	1
4901784	219	C	07/03/2021	10:41	-136.412	43.206	0	804.90	0	3.9930	0	38.3180	8	30.436	0	796.952	0	11.5	4	3.8	4	-1E+10	1	-1E+10	1	-1E+10	1	-1E+10	1	-1E+10	1	-1E+10	1
4901784	219	C	07/03/2021	10:41	-136.412	43.206	0	809.80	0	3.9880	0	38.3220	8	30.440	0	801.794	0	11.4	4	3.7	4	-1E+10	1	-1E+10	1	-1E+10	1	-1E+10	1	-1E+10	1	-1E+10	1
4901784	219	C	07/03/2021	10:41	-136.412	43.206	0	814.60	0	3.9770	0	38.3260	8	30.445	0	806.537	0	11.3	4	3.7	4	-1E+10	1	-1E+10	1	-1E+10	1	-1E+10	1	-1E+10	1	-1E+10	1
4901784	219	C	07/03/2021	10:41	-136.412	43.206	0	819.60	0	3.9710	0	38.3280	8	30.447	0	811.478	0	11.2	4	3.7	4	-1E+10	1	-1E+10	1	-1E+10	1	-1E+10	1	-1E+10	1	-1E+10	1
4901784	219	C	07/03/2021	10:41	-136.412	43.206	0	824.60	0	3.9580	0	38.3310	8	30.451	0	816.418	0	11.1	4	3.6	4	-1E+10	1	-1E+10	1	-1E+10	1	-1E+10	1	-1E+10	1	-1E+10	1
4901784	219	C	07/03/2021	10:41	-136.412	43.206	0	829.60	0	3.9420	0	38.3360	8	30.457	0	821.359	0	11.0	4	3.6	4	-1E+10	1	-1E+10	1	-1E+10	1	-1E+10	1	-1E+10	1	-1E+10	1
4901784	219	C	07/03/2021	10:41	-136.412	43.206	0	834.70	0	3.9240	0	38.3400	8	30.462	0	826.398	0	10.9	4	3.5	4	-1E+10	1	-1E+10	1	-1E+10	1	-1E+10	1	-1E+10	1	-1E+10	1
4901784	219	C	07/03/2021	10:41	-136.412	43.206	0	839.80	0	3.9080	0	38.3470	8	30.469	0	831.437	0	10.8	4	3.5	4	-1E+10	1	-1E+10	1	-1E+10	1	-1E+10	1	-1E+10	1	-1E+10	1
4901784	219	C	07/03/2021	10:41	-136.412	43.206	0	845.00	0	3.9030	0	38.3500	8	30.472	0	836.575	0	10.7	4	3.5	4	-1E+10	1	-1E+10	1	-1E+10	1	-1E+10	1	-1E+10	1	-1E+10	1
4901784	219	C	07/03/2021	10:41	-136.412	43.206	0	850.20	0	3.8870	0	38.3550	8	30.478	0	841.713	0	10.6	4	3.4	4	-1E+10	1	-1E+10	1	-1E+10	1	-1E+10	1	-1E+10	1	-1E+10	1
4901784	219	C	07/03/2021	10:41	-136.412	43.206	0	855.50	0	3.8760	0	38.3600	8	30.483	0	846.949	0	10.5	4	3.4	4	-1E+10	1	-1E+10	1	-1E+10	1	-1E+10	1	-1E+10	1	-1E+10	1
4901784	219	C	07/03/2021	10:41	-136.412	43.206	0	860.00	0	3.8780	0	38.3660	8	30.488	0	851.395	0	10.3	4	3.4	4	-1E+10	1	-1E+10	1	-1E+10	1	-1E+10	1	-1E+10	1	-1E+10	1
4901784	219	C	07/03/2021	10:41	-136.412	43.206	0	864.50	0	3.8700	0	38.3680	8	30.491	0	855.841	0	10.3	4	3.3	4	-1E+10	1	-1E+10	1	-1E+10	1	-1E+10	1	-1E+10	1	-1E+10	1
4901784	219	C	07/03/2021	10:41	-136.412	43.206	0	870.00	0	3.8560	0	38.3730	8	30.496	0	861.275	0	10.3	4	3.3	4	-1E+10	1	-1E+10	1	-1E+10	1	-1E+10	1	-1E+10	1	-1E+10	1
4901784	219	C	07/03/2021	10:41	-136.412	43.206	0	875.50	0	3.8510	0	38.3770	8	30.500	0	866.708	0	10.2	4	3.3	4	-1E+10	1	-1E+10	1	-1E+10	1	-1E+10	1	-1E+10	1	-1E+10	1
4901784	219	C	07/03/2021	10:41	-136.412	43.206	0	880.10	0	3.8460	0	38.3810	8	30.504	0	871.252	0	10.2	4	3.3	4	-1E+10	1	-1E+10	1	-1E+10	1	-1E+10	1	-1E+10	1	-1E+10	1
4901784	219	C	07/03/2021	10:41	-136.412	43.206	0	885.30	0	3.8380	0	38.3840	8	30.507	0	876.389	0	10.1	4	3.3	4	-1E+10	1	-1E+10	1	-1E+10	1	-1E+10	1	-1E+10	1	-1E+10	1
4901784	219	C	07/03/2021	10:41	-136.412	43.206	0	890.30	0	3.8240	0	38.3870	8	30.511	0	881.328	0	10.1	4	3.3	4	-1E+10	1	-1E+10	1	-1E+10	1	-1E+10	1	-1E+10	1	-1E+10	1
4901784	219	C	07/03/2021	10:41	-136.412	43.206	0	895.00	0	3.8000	0	38.3910	8	30.517	0	885.971	0	10.1	4	3.3	4	-1E+10	1	-1E+10	1	-1E+10	1	-1E+10	1	-1E+10	1	-1E+10	1
4901784	219	C	07/03/2021	10:41	-136.412	43.206	0	899.80	0	3.7750	0	38.3960	8	30.524	0	890.712	0	10.0	4	3.3	4	-1E+10	1	-1E+10	1	-1E+10	1	-1E+10	1	-1E+10	1	-1E+10	1
4901784	219	C	07/03/2021	10:41	-136.412	43.206	0	904.70	0	3.7620	0	38.4020	8	30.530	0	895.552	0	10.0	4	3.2	4	-1E+10	1	-1E+10	1	-1E+10	1	-1E+10	1	-1E+10	1	-1E+10	1
4901784	219	C	07/03/2021	10:41	-136.412	43.206	0	909.70	0	3.7550	0	38.4070	8	30.535	0	900.491	0	9.9	4	3.2	4	-1E+10	1	-1E+10	1	-1E+10	1	-1E+10	1	-1E+10	1	-1E+10	1
4901784	219	C	07/03/2021	10:41	-136.412	43.206	0	914.70	0	3.7570	0	38.4140	8	30.540	0	905.430	0	9.9	4	3.2	4	-1E+10	1	-1E+10	1	-1E+10	1	-1E+10	1	-1E+10	1	-1E+10	1
4901784	219	C	07/03/2021	10:41	-136.412	43.206	0	919.70	0	3.7580	0	38.4160	8	30.542	0	910.368	0	9.9	4	3.2	4	-1E+10	1	-1E+10	1	-1E+10	1	-1E+10	1	-1E+10	1	-1E+10	1
4901784	219	C	07/03/2021	10:41	-136.412	43.206	0	924.60	0	3.7320	0	38.4180	8	30.546	0	915.208	0	9.9	4	3.2	4	-1E+10	1	-1E+10	1	-1E+10	1	-1E+10	1	-1E+10	1	-1E+10	1
4901784	219	C	07/03/2021	10:41	-136.412	43.206	0	929.70	0	3.6860	0	38.4220	8	30.554	0	920.245	0	9.9	4	3.2	4	-1E+10	1	-1E+10	1	-1E+10	1	-1E+10	1	-1E+10	1	-1E+10	1
4901784	219	C	07/03/2021	10:41	-136.412	43.206	0	934.90	0	3.6790	0	38.4280	8	30.560	0	925.380	0	9.9	4	3.2	4	-1E+10	1	-1E+10	1	-1E+10	1	-1E+10	1	-1E+10	1	-1E+10	1
4901784	219	C	07/03/2021	10:41	-136.412	43.206	0	940.10	0	3.6930	0	38.4320	8	30.562	0	930.516	0	9.9	4	3.2	4	-1E+10	1	-1E+10	1	-1E+10	1	-1E+10	1	-1E+10	1	-1E+10	1
4901784	219	C	07/03/2021	10:41	-136.412	43.206	0	945.30	0	3.6720	0	38.4350	8	30.566	0	935.651	0	9.9	4	3.2	4	-1E+10	1	-1E+10	1	-1E+10	1	-1E+10	1	-1E+10	1	-1E+10	1
4901784	219	C	07/03/2021	10:41	-136.412	43.206	0	950.60	0	3.6750	0	38.4420	8	30.572	0	940.885	0	9.9	4	3.2	4	-1E+10	1	-1E+10	1	-1E+10	1	-1E+10	1	-1E+10	1	-1E+10	1
4901784	219	C	07/03/2021	10:41	-136.412	43.206	0	955.10	0	3.6570	0	38.4440	8	30.575	0	945.329	0	9.9	4	3.2	4	-1E+10	1	-1E+10	1	-1E+10	1	-1E+10	1	-1E+10	1	-1E+10	1
4901784	219	C	07/03/2021	10:41	-136.412	43.206	0	959.60	0	3.6320	0	38.4460	8	30.580	0	949.773	0	9.9	4	3.2	4	-1E+10	1	-1E+10	1	-1E+10	1	-1E+10	1	-1E+10	1	-1E+10	1
4901784	219	C	07/03/2021	10:41	-136.412	43.206	0	965.10	0	3.6200	0	38.4490	8	30.583	0	955.204	0	9.9	4	3.2	4	-1E+10	1	-1E+10	1	-1E+10	1	-1E+10	1	-1E+10	1	-1E+10	1
4901784	219	C	07/03/2021	10:41	-136.412	43.206	0	970.40	0	3.6230	0	38.4540	8	30.587	0	960.437	0	10.0	4	3.2	4	-1E+10	1	-1E+10	1	-1E+10	1	-1E+10	1	-1E+10	1	-1E+10	1
4901784	219	C	07/03/2021	10:41	-136.412	43.206	0	975.00	0	3.6120	0	38.4580	8	30.592	0	964.980	0	10.0	4	3.2	4	-1E+10	1	-1E+10	1	-1E+10	1	-1E+10	1	-1E+10	1	-1E+10	1
4901784	219	C	07/03/2021	10:41	-136.412	43.206	0	979.50	0	3.6030	0	38.4610	8	30.595	0	969.423	0	10.0	4	3.2	4	-1E+10	1	-1E+10	1	-1E+10	1	-1E+10	1	-1E+10	1	-1E+10	1
4901784	219	C	07/03/2021	10:41	-136.412	43.206	0	985.10	0	3.5970	0	38.4640	8	30.598	0	974.952	0	10.1	4	3.2	4	-1E+10	1	-1E+10	1	-1E+10	1	-1E+10	1	-1E+10	1	-1E+10	1
4901784	219	C	07/03/2021	10:41	-136.412	43.206	0	989.70	0	3.5910	0	38.4660	8	30.600	0	979.494	0	10.1	4	3.3	4	-1E+10	1	-1E+10	1	-1E+10	1	-1E+10	1	-1E+10	1	-1E+10	1
4901784	219	C	07/03/2021	10:41	-136.412	43.206	0	994.40	0	3.5700	0	38.4680	8	30.604	0	984.135	0	10.1	4	3.3	4	-1E+10	1	-1E+10	1	-1E+10	1	-1E+10	1	-1E+10	1	-1E+10	1
4901784	219	C	07/03/2021	10:41	-136.412	43.206	0	1000.60	0	3.5580	0	38.4750	8	30.611	0	990.256	0	10.2	4	3.3	4	-1E+10	1	-1E+10	1	-1E+10	1	-1E+10	1	-1E+10	1	-1E+10	1
4901784	219	C	07/03/2021	10:41	-136.412	43.206	0	1005.60	0	3.5490	0	38.4770	8	30.614	0	995.192	0	10.2	4	3.3	4	-1E+10	1	-1E+10	1	-1E+10	1	-1E+10	1	-1E+10	1	-1E+10	1
4901784	219	C	07/03/2021	10:41	-136.412	43.206	0	1010.30	0	3.5380	0	38.4790	8	30.617	0	999.833	0	10.2	4	3.3	4	-1E+10	1	-1E+10	1	-1E+10	1	-1E+10	1	-1E+10	1	-1E+10	1
4901784	219	C	07/03/2021	10:41	-136.412	43.206	0	1015.10	0	3.5240	0	38.4820	8	30.621	0	1004.571	0	10.3	4	3.3	4	-1E+10	1	-1E+10	1	-1E+10	1	-1E+10	1	-1E+10	1	-1E+10	1
4901784	219	C	07/03/2021	10:41	-136.412	43.206	0	1020.00	0	3.5100	0	38.4850	8	30.625	0	1009.409	0	10.3	4	3.3	4	-1E+10	1	-1E+10	1	-1E+10	1	-1E+10	1	-1E+10	1	-1E+10	1
4901784	219	C	07/03/2021	10:41	-136.412	43.206	0	1024.90	0	3.4980	0	38.4880	8	30.628	0	1014.246	0	10.4	4	3.3	4	-1E+10	1	-1E+10	1	-1E+10	1	-1E+10	1	-1E+10	1	-1E+10	1
4901784	219	C	07/03/2021	10:41	-136.412	43.206	0	1029.80	0	3.4800	0	38.4910	8	30.633	0	1019.083	0	10.4	4	3.3	4	-1E+10	1	-1E+10	1	-1E+10	1	-1E+10	1	-1E+10	1	-1E+10	1
4901784	219	C	07/03/2021	10:41	-136.412	43.206	0	1034.70	0	3.4640	0	38.4950	8	30.638	0	1023.920	0	10.4	4	3.4	4	-1E+10	1	-1E+10	1	-1E+10	1	-1E+10	1	-1E+10	1	-1E+10	1
4901784	219	C	07/03/2021	10:41	-136.412	43.206	0	1039.60	0	3.4520	0	38.4980	8	30.641	0	1028.757	0	10.5	4	3.4	4	-1E+10	1	-1E+10	1	-1E+10	1	-1E+10	1	-1E+10	1	-1E+10	1
4901784	219	C	07/03/2021	10:41	-136.412	43.206	0	1044.50	0	3.4450	0	38.5010	8	30.644	0	1033.594	0	10.6	4	3.4	4	-1E+10	1	-1E+10	1	-1E+10	1	-1E+10	1	-1E+10	1	-1E+10	1
4901784	219	C	07/03/2021	10:41	-136.412	43.206	0	1049.50	0	3.4220	0	38.5060	8	30.651	0	1038.529	0	10.7	4	3.4	4	-1E+10	1	-1E+10	1	-1E+10	1	-1E+10	1	-1E+10	1	-1E+10	1
4901784	219	C	07/03/2021	10:41	-136.412	43.206	0	1054.40	0	3.4070	0	38.5100	8	30.656	0	1043.366	0	10.8	4	3.5	4	-1E+10	1	-1E+10	1	-1E+10	1	-1E+10	1	-1E+10	1	-1E+10	1
4901784	219	C	07/03/2021	10:41	-136.412	43.206	0	1059.40	0	3.3900	0	38.5130	8	30.660	0	1048.301	0	10.8	4	3.5	4	-1E+10	1	-1E+10	1	-1E+10	1	-1E+10	1	-1E+10	1	-1E+10	1
4901784	219	C	07/03/2021	10:41	-136.412	43.206	0	1064.40	0	3.3760	0	38.5150	8	30.663	0	1053.236	0	10.9	4	3.5	4	-1E+10	1	-1E+10	1	-1E+10	1	-1E+10	1	-1E+10	1	-1E+10	1
4901784	219	C	07/03/2021	10:41	-136.412	43.206	0	1069.50	0	3.3630	0	38.5190	8	30.668	0	1058.270	0	11.0	4	3.5	4	-1E+10	1	-1E+10	1	-1E+10	1	-1E+10	1	-1E+10	1	-1E+10	1
4901784	219	C	07/03/2021	10:41	-136.412	43.206	0	1074.50	0	3.3560	0	38.5220	8	30.671	0	1063.205	0	11.0	4	3.5	4	-1E+10	1	-1E+10	1	-1E+10	1	-1E+10	1	-1E+10	1	-1E+10	1
4901784	219	C	07/03/2021	10:41	-136.412	43.206	0	1079.60	0	3.3470	0	38.5250	8	30.674	0	1068.238	0	11.1	4	3.6	4	-1E+10	1	-1E+10	1	-1E+10	1	-1E+10	1	-1E+10	1	-1E+10	1
4901784	219	C	07/03/2021	10:41	-136.412	43.206	0	1084.70	0	3.3420	0	38.5260	8	30.676	0	1073.271	0	11.1	4	3.6	4	-1E+10	1	-1E+10	1	-1E+10	1	-1E+10	1	-1E+10	1	-1E+10	1
4901784	219	C	07/03/2021	10:41	-136.412	43.206	0	1089.80	0	3.3270	0	38.5300	8	30.681	0	1078.305	0	11.2	4	3.6	4	-1E+10	1	-1E+10	1	-1E+10	1	-1E+10	1	-1E+10	1	-1E+10	1
4901784	219	C	07/03/2021	10:41	-136.412	43.206	0	1095.00	0	3.3180	0	38.5320	8	30.683	0	1083.436	0	11.3	4	3.6	4	-1E+10	1	-1E+10	1	-1E+10	1	-1E+10	1	-1E+10	1	-1E+10	1
4901784	219	C	07/03/2021	10:41	-136.412	43.206	0	1100.50	0	3.3020	0	38.5350	8	30.687	0	1088.864	0	11.4	4	3.6	4	-1E+10	1	-1E+10	1	-1E+10	1	-1E+10	1	-1E+10	1	-1E+10	1
4901784	219	C	07/03/2021	10:41	-136.412	43.206	0	1104.90	0	3.2940	0	38.5370	8	30.690	0	1093.206	0	11.4	4	3.7	4	-1E+10	1	-1E+10	1	-1E+10	1	-1E+10	1	-1E+10	1	-1E+10	1
4901784	219	C	07/03/2021	10:41	-136.412	43.206	0	1109.60	0	3.2790	0	38.5410	8	30.694	0	1097.844	0	11.6	4	3.7	4	-1E+10	1	-1E+10	1	-1E+10	1	-1E+10	1	-1E+10	1	-1E+10	1
4901784	219	C	07/03/2021	10:41	-136.412	43.206	0	1115.40	0	3.2700	0	38.5440	8	30.698	0	1103.567	0	11.7	4	3.7	4	-1E+10	1	-1E+10	1	-1E+10	1	-1E+10	1	-1E+10	1	-1E+10	1
4901784	219	C	07/03/2021	10:41	-136.412	43.206	0	1120.20	0	3.2610	0	38.5480	8	30.702	0	1108.304	0	11.8	4	3.8	4	-1E+10	1	-1E+10	1	-1E+10	1	-1E+10	1	-1E+10	1	-1E+10	1
4901784	219	C	07/03/2021	10:41	-136.412	43.206	0	1125.10	0	3.2570	0	38.5490	8	30.703	0	1113.139	0	11.9	4	3.8	4	-1E+10	1	-1E+10	1	-1E+10	1	-1E+10	1	-1E+10	1	-1E+10	1
4901784	219	C	07/03/2021	10:41	-136.412	43.206	0	1130.00	0	3.2550	0	38.5500	8	30.704	0	1117.974	0	12.0	4	3.8	4	-1E+10	1	-1E+10	1	-1E+10	1	-1E+10	1	-1E+10	1	-1E+10	1
4901784	219	C	07/03/2021	10:41	-136.412	43.206	0	1134.90	0	3.2370	0	38.5550	8	30.710	0	1122.808	0	12.2	4	3.9	4	-1E+10	1	-1E+10	1	-1E+10	1	-1E+10	1	-1E+10	1	-1E+10	1
4901784	219	C	07/03/2021	10:41	-136.412	43.206	0	1139.80	0	3.2310	0	38.5580	8	30.713	0	1127.643	0	12.3	4	3.9	4	-1E+10	1	-1E+10	1	-1E+10	1	-1E+10	1	-1E+10	1	-1E+10	1
4901784	219	C	07/03/2021	10:41	-136.412	43.206	0	1144.70	0	3.2200	0	38.5600	8	30.716	0	1132.477	0	12.3	4	3.9	4	-1E+10	1	-1E+10	1	-1E+10	1	-1E+10	1	-1E+10	1	-1E+10	1
4901784	219	C	07/03/2021	10:41	-136.412	43.206	0	1149.70	0	3.2130	0	38.5610	8	30.718	0	1137.411	0	12.4	4	4.0	4	-1E+10	1	-1E+10	1	-1E+10	1	-1E+10	1	-1E+10	1	-1E+10	1
4901784	219	C	07/03/2021	10:41	-136.412	43.206	0	1154.60	0	3.1980	0	38.5650	8	30.722	0	1142.245	0	12.5	4	4.0	4	-1E+10	1	-1E+10	1	-1E+10	1	-1E+10	1	-1E+10	1	-1E+10	1
4901784	219	C	07/03/2021	10:41	-136.412	43.206	0	1160.40	0	3.1900	0	38.5670	8	30.725	0	1147.967	0	12.6	4	4.0	4	-1E+10	1	-1E+10	1	-1E+10	1	-1E+10	1	-1E+10	1	-1E+10	1
4901784	219	C	07/03/2021	10:41	-136.412	43.206	0	1165.30	0	3.1790	0	38.5700	8	30.729	0	1152.801	0	12.6	4	4.0	4	-1E+10	1	-1E+10	1	-1E+10	1	-1E+10	1	-1E+10	1	-1E+10	1
4901784	219	C	07/03/2021	10:41	-136.412	43.206	0	1170.10	0	3.1760	0	38.5700	8	30.729	0	1157.536	0	12.7	4	4.1	4	-1E+10	1	-1E+10	1	-1E+10	1	-1E+10	1	-1E+10	1	-1E+10	1
4901784	219	C	07/03/2021	10:41	-136.412	43.206	0	1175.00	0	3.1640	0	38.5730	8	30.733	0	1162.370	0	12.9	4	4.1	4	-1E+10	1	-1E+10	1	-1E+10	1	-1E+10	1	-1E+10	1	-1E+10	1
4901784	219	C	07/03/2021	10:41	-136.412	43.206	0	1180.00	0	3.1550	0	38.5760	8	30.736	0	1167.303	0	13.1	4	4.2	4	-1E+10	1	-1E+10	1	-1E+10	1	-1E+10	1	-1E+10	1	-1E+10	1
4901784	219	C	07/03/2021	10:41	-136.412	43.206	0	1184.80	0	3.1450	0	38.5780	8	30.739	0	1172.038	0	13.2	4	4.2	4	-1E+10	1	-1E+10	1	-1E+10	1	-1E+10	1	-1E+10	1	-1E+10	1
4901784	219	C	07/03/2021	10:41	-136.412	43.206	0	1189.80	0	3.1300	0	38.5820	8	30.743	0	1176.970	0	13.4	4	4.3	4	-1E+10	1	-1E+10	1	-1E+10	1	-1E+10	1	-1E+10	1	-1E+10	1
4901784	219	C	07/03/2021	10:41	-136.412	43.206	0	1194.70	0	3.1180	0	38.5860	8	30.748	0	1181.803	0	13.6	4	4.3	4	-1E+10	1	-1E+10	1	-1E+10	1	-1E+10	1	-1E+10	1	-1E+10	1
4901784	219	C	07/03/2021	10:41	-136.412	43.206	0	1199.60	0	3.1110	0	38.5880	8	30.750	0	1186.636	0	13.7	4	4.4	4	-1E+10	1	-1E+10	1	-1E+10	1	-1E+10	1	-1E+10	1	-1E+10	1
4901784	219	C	07/03/2021	10:41	-136.412	43.206	0	1204.50	0	3.1010	0	38.5900	8	30.753	0	1191.470	0	13.8	4	4.4	4	-1E+10	1	-1E+10	1	-1E+10	1	-1E+10	1	-1E+10	1	-1E+10	1
4901784	219	C	07/03/2021	10:41	-136.412	43.206	0	1209.50	0	3.0900	0	38.5920	8	30.756	0	1196.401	0	13.9	4	4.5	4	-1E+10	1	-1E+10	1	-1E+10	1	-1E+10	1	-1E+10	1	-1E+10	1
4901784	219	C	07/03/2021	10:41	-136.412	43.206	0	1215.40	0	3.0750	0	38.5950	8	30.760	0	1202.221	0	14.1	4	4.5	4	-1E+10	1	-1E+10	1	-1E+10	1	-1E+10	1	-1E+10	1	-1E+10	1
4901784	219	C	07/03/2021	10:41	-136.412	43.206	0	1220.40	0	3.0660	0	38.5980	8	30.763	0	1207.152	0	14.2	4	4.5	4	-1E+10	1	-1E+10	1	-1E+10	1	-1E+10	1	-1E+10	1	-1E+10	1
4901784	219	C	07/03/2021	10:41	-136.412	43.206	0	1225.40	0	3.0610	0	38.5990	8	30.764	0	1212.083	0	14.3	4	4.6	4	-1E+10	1	-1E+10	1	-1E+10	1	-1E+10	1	-1E+10	1	-1E+10	1
4901784	219	C	07/03/2021	10:41	-136.412	43.206	0	1230.40	0	3.0560	0	38.6000	8	30.766	0	1217.015	0	14.4	4	4.6	4	-1E+10	1	-1E+10	1	-1E+10	1	-1E+10	1	-1E+10	1	-1E+10	1
4901784	219	C	07/03/2021	10:41	-136.412	43.206	0	1235.40	0	3.0410	0	38.6030	8	30.770	0	1221.946	0	14.6	4	4.6	4	-1E+10	1	-1E+10	1	-1E+10	1	-1E+10	1	-1E+10	1	-1E+10	1
4901784	219	C	07/03/2021	10:41	-136.412	43.206	0	1240.50	0	3.0280	0	38.6060	8	30.773	0	1226.975	0	14.7	4	4.7	4	-1E+10	1	-1E+10	1	-1E+10	1	-1E+10	1	-1E+10	1	-1E+10	1
4901784	219	C	07/03/2021	10:41	-136.412	43.206	0	1245.20	0	3.0200	0	38.6080	8	30.776	0	1231.610	0	14.8	4	4.7	4	-1E+10	1	-1E+10	1	-1E+10	1	-1E+10	1	-1E+10	1	-1E+10	1
4901784	219	C	07/03/2021	10:41	-136.412	43.206	0	1250.00	0	3.0150	0	38.6090	8	30.777	0	1236.344	0	15.0	4	4.8	4	-1E+10	1	-1E+10	1	-1E+10	1	-1E+10	1	-1E+10	1	-1E+10	1
4901784	219	C	07/03/2021	10:41	-136.412	43.206	0	1254.80	0	3.0020	0	38.6120	8	30.781	0	1241.077	0	15.1	4	4.8	4	-1E+10	1	-1E+10	1	-1E+10	1	-1E+10	1	-1E+10	1	-1E+10	1
4901784	219	C	07/03/2021	10:41	-136.412	43.206	0	1260.00	0	2.9940	0	38.6140	8	30.783	0	1246.205	0	15.3	4	4.9	4	-1E+10	1	-1E+10	1	-1E+10	1	-1E+10	1	-1E+10	1	-1E+10	1
4901784	219	C	07/03/2021	10:41	-136.412	43.206	0	1264.80	0	2.9810	0	38.6170	8	30.787	0	1250.938	0	15.5	4	4.9	4	-1E+10	1	-1E+10	1	-1E+10	1	-1E+10	1	-1E+10	1	-1E+10	1
4901784	219	C	07/03/2021	10:41	-136.412	43.206	0	1269.70	0	2.9680	0	38.6200	8	30.791	0	1255.770	0	15.6	4	5.0	4	-1E+10	1	-1E+10	1	-1E+10	1	-1E+10	1	-1E+10	1	-1E+10	1
4901784	219	C	07/03/2021	10:41	-136.412	43.206	0	1274.60	0	2.9600	0	38.6220	8	30.793	0	1260.601	0	15.8	4	5.0	4	-1E+10	1	-1E+10	1	-1E+10	1	-1E+10	1	-1E+10	1	-1E+10	1
4901784	219	C	07/03/2021	10:41	-136.412	43.206	0	1279.60	0	2.9530	0	38.6240	8	30.796	0	1265.531	0	15.9	4	5.1	4	-1E+10	1	-1E+10	1	-1E+10	1	-1E+10	1	-1E+10	1	-1E+10	1
4901784	219	C	07/03/2021	10:41	-136.412	43.206	0	1284.60	0	2.9420	0	38.6260	8	30.798	0	1270.461	0	16.1	4	5.1	4	-1E+10	1	-1E+10	1	-1E+10	1	-1E+10	1	-1E+10	1	-1E+10	1
4901784	219	C	07/03/2021	10:41	-136.412	43.206	0	1289.50	0	2.9310	0	38.6280	8	30.801	0	1275.293	0	16.3	4	5.2	4	-1E+10	1	-1E+10	1	-1E+10	1	-1E+10	1	-1E+10	1	-1E+10	1
4901784	219	C	07/03/2021	10:41	-136.412	43.206	0	1294.40	0	2.9200	0	38.6310	8	30.805	0	1280.124	0	16.5	4	5.3	4	-1E+10	1	-1E+10	1	-1E+10	1	-1E+10	1	-1E+10	1	-1E+10	1
4901784	219	C	07/03/2021	10:41	-136.412	43.206	0	1299.50	0	2.9120	0	38.6330	8	30.807	0	1285.152	0	16.7	4	5.3	4	-1E+10	1	-1E+10	1	-1E+10	1	-1E+10	1	-1E+10	1	-1E+10	1
4901784	219	C	07/03/2021	10:41	-136.412	43.206	0	1304.50	0	2.9020	0	38.6350	8	30.810	0	1290.081	0	16.9	4	5.4	4	-1E+10	1	-1E+10	1	-1E+10	1	-1E+10	1	-1E+10	1	-1E+10	1
4901784	219	C	07/03/2021	10:41	-136.412	43.206	0	1309.60	0	2.8910	0	38.6380	8	30.813	0	1295.109	0	17.1	4	5.4	4	-1E+10	1	-1E+10	1	-1E+10	1	-1E+10	1	-1E+10	1	-1E+10	1
4901784	219	C	07/03/2021	10:41	-136.412	43.206	0	1314.80	0	2.8830	0	38.6400	8	30.816	0	1300.236	0	17.2	4	5.5	4	-1E+10	1	-1E+10	1	-1E+10	1	-1E+10	1	-1E+10	1	-1E+10	1
4901784	219	C	07/03/2021	10:41	-136.412	43.206	0	1319.90	0	2.8740	0	38.6420	8	30.818	0	1305.264	0	17.4	4	5.5	4	-1E+10	1	-1E+10	1	-1E+10	1	-1E+10	1	-1E+10	1	-1E+10	1
4901784	219	C	07/03/2021	10:41	-136.412	43.206	0	1325.00	0	2.8660	0	38.6440	8	30.821	0	1310.291	0	17.6	4	5.6	4	-1E+10	1	-1E+10	1	-1E+10	1	-1E+10	1	-1E+10	1	-1E+10	1
4901784	219	C	07/03/2021	10:41	-136.412	43.206	0	1330.10	0	2.8590	0	38.6460	8	30.823	0	1315.319	0	17.8	4	5.6	4	-1E+10	1	-1E+10	1	-1E+10	1	-1E+10	1	-1E+10	1	-1E+10	1
4901784	219	C	07/03/2021	10:41	-136.412	43.206	0	1335.30	0	2.8500	0	38.6480	8	30.826	0	1320.445	0	18.0	4	5.7	4	-1E+10	1	-1E+10	1	-1E+10	1	-1E+10	1	-1E+10	1	-1E+10	1
4901784	219	C	07/03/2021	10:41	-136.412	43.206	0	1340.60	0	2.8370	0	38.6510	8	30.829	0	1325.669	0	18.2	4	5.8	4	-1E+10	1	-1E+10	1	-1E+10	1	-1E+10	1	-1E+10	1	-1E+10	1
4901784	219	C	07/03/2021	10:41	-136.412	43.206	0	1344.90	0	2.8320	0	38.6520	8	30.831	0	1329.907	0	18.4	4	5.8	4	-1E+10	1	-1E+10	1	-1E+10	1	-1E+10	1	-1E+10	1	-1E+10	1
4901784	219	C	07/03/2021	10:41	-136.412	43.206	0	1349.30	0	2.8270	0	38.6540	8	30.833	0	1334.245	0	18.5	4	5.9	4	-1E+10	1	-1E+10	1	-1E+10	1	-1E+10	1	-1E+10	1	-1E+10	1
4901784	219	C	07/03/2021	10:41	-136.412	43.206	0	1354.60	0	2.8170	0	38.6560	8	30.835	0	1339.468	0	18.7	4	5.9	4	-1E+10	1	-1E+10	1	-1E+10	1	-1E+10	1	-1E+10	1	-1E+10	1
4901784	219	C	07/03/2021	10:41	-136.412	43.206	0	1360.00	0	2.8070	0	38.6580	8	30.838	0	1344.791	0	19.0	4	6.0	4	-1E+10	1	-1E+10	1	-1E+10	1	-1E+10	1	-1E+10	1	-1E+10	1
4901784	219	C	07/03/2021	10:41	-136.412	43.206	0	1365.40	0	2.7960	0	38.6600	8	30.841	0	1350.113	0	19.2	4	6.1	4	-1E+10	1	-1E+10	1	-1E+10	1	-1E+10	1	-1E+10	1	-1E+10	1
4901784	219	C	07/03/2021	10:41	-136.412	43.206	0	1370.00	0	2.7870	0	38.6620	8	30.843	0	1354.647	0	19.4	4	6.2	4	-1E+10	1	-1E+10	1	-1E+10	1	-1E+10	1	-1E+10	1	-1E+10	1
4901784	219	C	07/03/2021	10:41	-136.412	43.206	0	1374.50	0	2.7780	0	38.6640	8	30.846	0	1359.082	0	19.6	4	6.2	4	-1E+10	1	-1E+10	1	-1E+10	1	-1E+10	1	-1E+10	1	-1E+10	1
4901784	219	C	07/03/2021	10:41	-136.412	43.206	0	1380.00	0	2.7700	0	38.6660	8	30.848	0	1364.503	0	19.8	4	6.3	4	-1E+10	1	-1E+10	1	-1E+10	1	-1E+10	1	-1E+10	1	-1E+10	1
4901784	219	C	07/03/2021	10:41	-136.412	43.206	0	1385.50	0	2.7600	0	38.6680	8	30.851	0	1369.923	0	20.1	4	6.4	4	-1E+10	1	-1E+10	1	-1E+10	1	-1E+10	1	-1E+10	1	-1E+10	1
4901784	219	C	07/03/2021	10:41	-136.412	43.206	0	1390.10	0	2.7530	0	38.6700	8	30.853	0	1374.456	0	20.3	4	6.4	4	-1E+10	1	-1E+10	1	-1E+10	1	-1E+10	1	-1E+10	1	-1E+10	1
4901784	219	C	07/03/2021	10:41	-136.412	43.206	0	1394.70	0	2.7430	0	38.6730	8	30.857	0	1378.989	0	20.5	4	6.5	4	-1E+10	1	-1E+10	1	-1E+10	1	-1E+10	1	-1E+10	1	-1E+10	1
4901784	219	C	07/03/2021	10:41	-136.412	43.206	0	1400.20	0	2.7360	0	38.6740	8	30.858	0	1384.409	0	20.6	4	6.5	4	-1E+10	1	-1E+10	1	-1E+10	1	-1E+10	1	-1E+10	1	-1E+10	1
4901784	219	C	07/03/2021	10:41	-136.412	43.206	0	1405.70	0	2.7280	0	38.6760	8	30.861	0	1389.829	0	20.9	4	6.6	4	-1E+10	1	-1E+10	1	-1E+10	1	-1E+10	1	-1E+10	1	-1E+10	1
4901784	219	C	07/03/2021	10:41	-136.412	43.206	0	1410.30	0	2.7210	0	38.6780	8	30.863	0	1394.362	0	21.0	4	6.7	4	-1E+10	1	-1E+10	1	-1E+10	1	-1E+10	1	-1E+10	1	-1E+10	1
4901784	219	C	07/03/2021	10:41	-136.412	43.206	0	1414.90	0	2.7160	0	38.6790	8	30.864	0	1398.895	0	21.2	4	6.7	4	-1E+10	1	-1E+10	1	-1E+10	1	-1E+10	1	-1E+10	1	-1E+10	1
4901784	219	C	07/03/2021	10:41	-136.412	43.206	0	1420.40	0	2.7010	0	38.6820	8	30.868	0	1404.315	0	21.5	4	6.8	4	-1E+10	1	-1E+10	1	-1E+10	1	-1E+10	1	-1E+10	1	-1E+10	1
4901784	219	C	07/03/2021	10:41	-136.412	43.206	0	1425.00	0	2.6960	0	38.6830	8	30.870	0	1408.847	0	21.7	4	6.9	4	-1E+10	1	-1E+10	1	-1E+10	1	-1E+10	1	-1E+10	1	-1E+10	1
4901784	219	C	07/03/2021	10:41	-136.412	43.206	0	1429.70	0	2.6880	0	38.6850	8	30.872	0	1413.478	0	21.9	4	6.9	4	-1E+10	1	-1E+10	1	-1E+10	1	-1E+10	1	-1E+10	1	-1E+10	1
4901784	219	C	07/03/2021	10:41	-136.412	43.206	0	1435.10	0	2.6800	0	38.6870	8	30.874	0	1418.799	0	22.1	4	7.0	4	-1E+10	1	-1E+10	1	-1E+10	1	-1E+10	1	-1E+10	1	-1E+10	1
4901784	219	C	07/03/2021	10:41	-136.412	43.206	0	1440.60	0	2.6730	0	38.6890	8	30.877	0	1424.218	0	22.3	4	7.0	4	-1E+10	1	-1E+10	1	-1E+10	1	-1E+10	1	-1E+10	1	-1E+10	1
4901784	219	C	07/03/2021	10:41	-136.412	43.206	0	1445.50	0	2.6690	0	38.6900	8	30.878	0	1429.045	0	22.4	4	7.1	4	-1E+10	1	-1E+10	1	-1E+10	1	-1E+10	1	-1E+10	1	-1E+10	1
4901784	219	C	07/03/2021	10:41	-136.412	43.206	0	1450.40	0	2.6610	0	38.6920	8	30.880	0	1433.873	0	22.6	4	7.2	4	-1E+10	1	-1E+10	1	-1E+10	1	-1E+10	1	-1E+10	1	-1E+10	1
4901784	219	C	07/03/2021	10:41	-136.412	43.206	0	1455.20	0	2.6530	0	38.6940	8	30.883	0	1438.602	0	22.8	4	7.2	4	-1E+10	1	-1E+10	1	-1E+10	1	-1E+10	1	-1E+10	1	-1E+10	1
4901784	219	C	07/03/2021	10:41	-136.412	43.206	0	1460.20	0	2.6500	0	38.6940	8	30.883	0	1443.528	0	23.0	4	7.3	4	-1E+10	1	-1E+10	1	-1E+10	1	-1E+10	1	-1E+10	1	-1E+10	1
4901784	219	C	07/03/2021	10:41	-136.412	43.206	0	1465.10	0	2.6400	0	38.6960	8	30.886	0	1448.355	0	23.3	4	7.4	4	-1E+10	1	-1E+10	1	-1E+10	1	-1E+10	1	-1E+10	1	-1E+10	1
4901784	219	C	07/03/2021	10:41	-136.412	43.206	0	1470.10	0	2.6260	0	38.6990	8	30.890	0	1453.281	0	23.7	4	7.5	4	-1E+10	1	-1E+10	1	-1E+10	1	-1E+10	1	-1E+10	1	-1E+10	1
4901784	219	C	07/03/2021	10:41	-136.412	43.206	0	1475.10	0	2.6160	0	38.7000	8	30.891	0	1458.206	0	24.1	4	7.6	4	-1E+10	1	-1E+10	1	-1E+10	1	-1E+10	1	-1E+10	1	-1E+10	1
4901784	219	C	07/03/2021	10:41	-136.412	43.206	0	1480.20	0	2.6000	0	38.7040	8	30.896	0	1463.230	0	24.4	4	7.7	4	-1E+10	1	-1E+10	1	-1E+10	1	-1E+10	1	-1E+10	1	-1E+10	1
4901784	219	C	07/03/2021	10:41	-136.412	43.206	0	1485.30	0	2.5910	0	38.7060	8	30.899	0	1468.254	0	24.7	4	7.8	4	-1E+10	1	-1E+10	1	-1E+10	1	-1E+10	1	-1E+10	1	-1E+10	1
4901784	219	C	07/03/2021	10:41	-136.412	43.206	0	1490.40	0	2.5810	0	38.7080	8	30.901	0	1473.278	0	25.0	4	7.9	4	-1E+10	1	-1E+10	1	-1E+10	1	-1E+10	1	-1E+10	1	-1E+10	1
4901784	219	C	07/03/2021	10:41	-136.412	43.206	0	1495.70	0	2.5730	0	38.7100	8	30.904	0	1478.498	0	25.2	4	8.0	4	-1E+10	1	-1E+10	1	-1E+10	1	-1E+10	1	-1E+10	1	-1E+10	1
4901784	219	C	07/03/2021	10:41	-136.412	43.206	0	1500.00	0	2.5690	0	38.7110	8	30.905	0	1482.734	0	25.4	4	8.0	4	-1E+10	1	-1E+10	1	-1E+10	1	-1E+10	1	-1E+10	1	-1E+10	1
4901784	219	C	07/03/2021	10:41	-136.412	43.206	0	1504.40	0	2.5620	0	38.7120	8	30.906	0	1487.068	0	25.7	4	8.1	4	-1E+10	1	-1E+10	1	-1E+10	1	-1E+10	1	-1E+10	1	-1E+10	1
4901784	219	C	07/03/2021	10:41	-136.412	43.206	0	1509.70	0	2.5520	0	38.7150	8	30.910	0	1492.288	0	25.9	4	8.2	4	-1E+10	1	-1E+10	1	-1E+10	1	-1E+10	1	-1E+10	1	-1E+10	1
4901784	219	C	07/03/2021	10:41	-136.412	43.206	0	1515.00	0	2.5420	0	38.7170	8	30.912	0	1497.508	0	26.2	4	8.3	4	-1E+10	1	-1E+10	1	-1E+10	1	-1E+10	1	-1E+10	1	-1E+10	1
4901784	219	C	07/03/2021	10:41	-136.412	43.206	0	1520.40	0	2.5370	0	38.7180	8	30.914	0	1502.827	0	26.4	4	8.3	4	-1E+10	1	-1E+10	1	-1E+10	1	-1E+10	1	-1E+10	1	-1E+10	1
4901784	219	C	07/03/2021	10:41	-136.412	43.206	0	1524.90	0	2.5310	0	38.7190	8	30.915	0	1507.259	0	26.6	4	8.4	4	-1E+10	1	-1E+10	1	-1E+10	1	-1E+10	1	-1E+10	1	-1E+10	1
4901784	219	C	07/03/2021	10:41	-136.412	43.206	0	1529.40	0	2.5240	0	38.7210	8	30.917	0	1511.690	0	26.9	4	8.5	4	-1E+10	1	-1E+10	1	-1E+10	1	-1E+10	1	-1E+10	1	-1E+10	1
4901784	219	C	07/03/2021	10:41	-136.412	43.206	0	1535.00	0	2.5160	0	38.7230	8	30.920	0	1517.205	0	27.2	4	8.6	4	-1E+10	1	-1E+10	1	-1E+10	1	-1E+10	1	-1E+10	1	-1E+10	1
4901784	219	C	07/03/2021	10:41	-136.412	43.206	0	1540.50	0	2.5070	0	38.7240	8	30.922	0	1522.622	0	27.5	4	8.7	4	-1E+10	1	-1E+10	1	-1E+10	1	-1E+10	1	-1E+10	1	-1E+10	1
4901784	219	C	07/03/2021	10:41	-136.412	43.206	0	1545.10	0	2.4980	0	38.7260	8	30.924	0	1527.152	0	27.8	4	8.8	4	-1E+10	1	-1E+10	1	-1E+10	1	-1E+10	1	-1E+10	1	-1E+10	1
4901784	219	C	07/03/2021	10:41	-136.412	43.206	0	1549.70	0	2.4910	0	38.7280	8	30.926	0	1531.682	0	28.0	4	8.8	4	-1E+10	1	-1E+10	1	-1E+10	1	-1E+10	1	-1E+10	1	-1E+10	1
4901784	219	C	07/03/2021	10:41	-136.412	43.206	0	1555.30	0	2.4800	0	38.7300	8	30.929	0	1537.196	0	28.4	4	8.9	4	-1E+10	1	-1E+10	1	-1E+10	1	-1E+10	1	-1E+10	1	-1E+10	1
4901784	219	C	07/03/2021	10:41	-136.412	43.206	0	1559.90	0	2.4730	0	38.7320	8	30.931	0	1541.726	0	28.6	4	9.0	4	-1E+10	1	-1E+10	1	-1E+10	1	-1E+10	1	-1E+10	1	-1E+10	1
4901784	219	C	07/03/2021	10:41	-136.412	43.206	0	1564.60	0	2.4660	0	38.7330	8	30.933	0	1546.354	0	28.9	4	9.1	4	-1E+10	1	-1E+10	1	-1E+10	1	-1E+10	1	-1E+10	1	-1E+10	1
4901784	219	C	07/03/2021	10:41	-136.412	43.206	0	1569.90	0	2.4550	0	38.7350	8	30.935	0	1551.573	0	29.2	4	9.2	4	-1E+10	1	-1E+10	1	-1E+10	1	-1E+10	1	-1E+10	1	-1E+10	1
4901784	219	C	07/03/2021	10:41	-136.412	43.206	0	1574.20	0	2.4470	0	38.7360	8	30.937	0	1555.807	0	29.5	4	9.3	4	-1E+10	1	-1E+10	1	-1E+10	1	-1E+10	1	-1E+10	1	-1E+10	1
4901784	219	C	07/03/2021	10:41	-136.412	43.206	0	1580.00	0	2.4350	0	38.7390	8	30.941	0	1561.518	0	29.8	4	9.4	4	-1E+10	1	-1E+10	1	-1E+10	1	-1E+10	1	-1E+10	1	-1E+10	1
4901784	219	C	07/03/2021	10:41	-136.412	43.206	0	1585.80	0	2.4320	0	38.7400	8	30.942	0	1567.228	0	29.9	4	9.4	4	-1E+10	1	-1E+10	1	-1E+10	1	-1E+10	1	-1E+10	1	-1E+10	1
4901784	219	C	07/03/2021	10:41	-136.412	43.206	0	1590.80	0	2.4270	0	38.7420	8	30.944	0	1572.151	0	30.2	4	9.5	4	-1E+10	1	-1E+10	1	-1E+10	1	-1E+10	1	-1E+10	1	-1E+10	1
4901784	219	C	07/03/2021	10:41	-136.412	43.206	0	1595.00	0	2.4210	0	38.7430	8	30.945	0	1576.286	0	30.4	4	9.6	4	-1E+10	1	-1E+10	1	-1E+10	1	-1E+10	1	-1E+10	1	-1E+10	1
4901784	219	C	07/03/2021	10:41	-136.412	43.206	0	1599.30	0	2.4140	0	38.7440	8	30.947	0	1580.520	0	30.7	4	9.6	4	-1E+10	1	-1E+10	1	-1E+10	1	-1E+10	1	-1E+10	1	-1E+10	1
4901784	219	C	07/03/2021	10:41	-136.412	43.206	0	1604.30	0	2.4070	0	38.7460	8	30.949	0	1585.443	0	31.0	4	9.7	4	-1E+10	1	-1E+10	1	-1E+10	1	-1E+10	1	-1E+10	1	-1E+10	1
4901784	219	C	07/03/2021	10:41	-136.412	43.206	0	1609.50	0	2.3990	0	38.7470	8	30.951	0	1590.562	0	31.3	4	9.8	4	-1E+10	1	-1E+10	1	-1E+10	1	-1E+10	1	-1E+10	1	-1E+10	1
4901784	219	C	07/03/2021	10:41	-136.412	43.206	0	1614.60	0	2.3890	0	38.7500	8	30.954	0	1595.583	0	31.6	4	9.9	4	-1E+10	1	-1E+10	1	-1E+10	1	-1E+10	1	-1E+10	1	-1E+10	1
4901784	219	C	07/03/2021	10:41	-136.412	43.206	0	1619.80	0	2.3830	0	38.7510	8	30.955	0	1600.702	0	31.9	4	10.0	4	-1E+10	1	-1E+10	1	-1E+10	1	-1E+10	1	-1E+10	1	-1E+10	1
4901784	219	C	07/03/2021	10:41	-136.412	43.206	0	1625.10	0	2.3740	0	38.7530	8	30.958	0	1605.919	0	32.2	4	10.1	4	-1E+10	1	-1E+10	1	-1E+10	1	-1E+10	1	-1E+10	1	-1E+10	1
4901784	219	C	07/03/2021	10:41	-136.412	43.206	0	1630.30	0	2.3670	0	38.7550	8	30.960	0	1611.038	0	32.5	4	10.2	4	-1E+10	1	-1E+10	1	-1E+10	1	-1E+10	1	-1E+10	1	-1E+10	1
4901784	219	C	07/03/2021	10:41	-136.412	43.206	0	1635.60	0	2.3600	0	38.7560	8	30.962	0	1616.255	0	32.9	4	10.3	4	-1E+10	1	-1E+10	1	-1E+10	1	-1E+10	1	-1E+10	1	-1E+10	1
4901784	219	C	07/03/2021	10:41	-136.412	43.206	0	1640.10	0	2.3540	0	38.7570	8	30.963	0	1620.685	0	33.2	4	10.4	4	-1E+10	1	-1E+10	1	-1E+10	1	-1E+10	1	-1E+10	1	-1E+10	1
4901784	219	C	07/03/2021	10:41	-136.412	43.206	0	1644.50	0	2.3410	0	38.7600	8	30.967	0	1625.016	0	33.7	4	10.6	4	-1E+10	1	-1E+10	1	-1E+10	1	-1E+10	1	-1E+10	1	-1E+10	1
4901784	219	C	07/03/2021	10:41	-136.412	43.206	0	1649.90	0	2.3290	0	38.7620	8	30.970	0	1630.331	0	34.0	4	10.7	4	-1E+10	1	-1E+10	1	-1E+10	1	-1E+10	1	-1E+10	1	-1E+10	1
4901784	219	C	07/03/2021	10:41	-136.412	43.206	0	1655.30	0	2.3230	0	38.7640	8	30.972	0	1635.646	0	34.3	4	10.8	4	-1E+10	1	-1E+10	1	-1E+10	1	-1E+10	1	-1E+10	1	-1E+10	1
4901784	219	C	07/03/2021	10:41	-136.412	43.206	0	1660.70	0	2.3160	0	38.7650	8	30.973	0	1640.961	0	34.6	4	10.8	4	-1E+10	1	-1E+10	1	-1E+10	1	-1E+10	1	-1E+10	1	-1E+10	1
4901784	219	C	07/03/2021	10:41	-136.412	43.206	0	1665.20	0	2.3100	0	38.7670	8	30.975	0	1645.390	0	34.8	4	10.9	4	-1E+10	1	-1E+10	1	-1E+10	1	-1E+10	1	-1E+10	1	-1E+10	1
4901784	219	C	07/03/2021	10:41	-136.412	43.206	0	1669.70	0	2.3040	0	38.7680	8	30.977	0	1649.819	0	35.0	4	11.0	4	-1E+10	1	-1E+10	1	-1E+10	1	-1E+10	1	-1E+10	1	-1E+10	1
4901784	219	C	07/03/2021	10:41	-136.412	43.206	0	1675.10	0	2.3010	0	38.7700	8	30.979	0	1655.134	0	35.1	4	11.0	4	-1E+10	1	-1E+10	1	-1E+10	1	-1E+10	1	-1E+10	1	-1E+10	1
4901784	219	C	07/03/2021	10:41	-136.412	43.206	0	1680.60	0	2.2990	0	38.7700	8	30.979	0	1660.547	0	35.4	4	11.1	4	-1E+10	1	-1E+10	1	-1E+10	1	-1E+10	1	-1E+10	1	-1E+10	1
4901784	219	C	07/03/2021	10:41	-136.412	43.206	0	1685.20	0	2.2950	0	38.7710	8	30.980	0	1665.074	0	35.6	4	11.2	4	-1E+10	1	-1E+10	1	-1E+10	1	-1E+10	1	-1E+10	1	-1E+10	1
4901784	219	C	07/03/2021	10:41	-136.412	43.206	0	1689.80	0	2.2870	0	38.7730	8	30.983	0	1669.601	0	35.9	4	11.3	4	-1E+10	1	-1E+10	1	-1E+10	1	-1E+10	1	-1E+10	1	-1E+10	1
4901784	219	C	07/03/2021	10:41	-136.412	43.206	0	1695.20	0	2.2800	0	38.7750	8	30.985	0	1674.915	0	36.2	4	11.4	4	-1E+10	1	-1E+10	1	-1E+10	1	-1E+10	1	-1E+10	1	-1E+10	1
4901784	219	C	07/03/2021	10:41	-136.412	43.206	0	1699.80	0	2.2750	0	38.7760	8	30.986	0	1679.442	0	36.5	4	11.4	4	-1E+10	1	-1E+10	1	-1E+10	1	-1E+10	1	-1E+10	1	-1E+10	1
4901784	219	C	07/03/2021	10:41	-136.412	43.206	0	1704.50	0	2.2670	0	38.7780	8	30.989	0	1684.067	0	36.9	4	11.6	4	-1E+10	1	-1E+10	1	-1E+10	1	-1E+10	1	-1E+10	1	-1E+10	1
4901784	219	C	07/03/2021	10:41	-136.412	43.206	0	1710.10	0	2.2570	0	38.7800	8	30.991	0	1689.577	0	37.2	4	11.7	4	-1E+10	1	-1E+10	1	-1E+10	1	-1E+10	1	-1E+10	1	-1E+10	1
4901784	219	C	07/03/2021	10:41	-136.412	43.206	0	1714.80	0	2.2550	0	38.7810	8	30.992	0	1694.202	0	37.4	4	11.7	4	-1E+10	1	-1E+10	1	-1E+10	1	-1E+10	1	-1E+10	1	-1E+10	1
4901784	219	C	07/03/2021	10:41	-136.412	43.206	0	1719.50	0	2.2510	0	38.7820	8	30.993	0	1698.827	0	37.6	4	11.8	4	-1E+10	1	-1E+10	1	-1E+10	1	-1E+10	1	-1E+10	1	-1E+10	1
4901784	219	C	07/03/2021	10:41	-136.412	43.206	0	1725.00	0	2.2430	0	38.7840	8	30.996	0	1704.239	0	38.0	4	11.9	4	-1E+10	1	-1E+10	1	-1E+10	1	-1E+10	1	-1E+10	1	-1E+10	1
4901784	219	C	07/03/2021	10:41	-136.412	43.206	0	1730.20	0	2.2330	0	38.7860	8	30.998	0	1709.355	0	38.4	4	12.0	4	-1E+10	1	-1E+10	1	-1E+10	1	-1E+10	1	-1E+10	1	-1E+10	1
4901784	219	C	07/03/2021	10:41	-136.412	43.206	0	1734.40	0	2.2270	0	38.7870	8	31.000	0	1713.488	0	38.9	4	12.2	4	-1E+10	1	-1E+10	1	-1E+10	1	-1E+10	1	-1E+10	1	-1E+10	1
4901784	219	C	07/03/2021	10:41	-136.412	43.206	0	1740.00	0	2.2170	0	38.7900	8	31.003	0	1718.997	0	39.3	4	12.3	4	-1E+10	1	-1E+10	1	-1E+10	1	-1E+10	1	-1E+10	1	-1E+10	1
4901784	219	C	07/03/2021	10:41	-136.412	43.206	0	1745.70	0	2.2130	0	38.7920	8	31.005	0	1724.605	0	39.5	4	12.4	4	-1E+10	1	-1E+10	1	-1E+10	1	-1E+10	1	-1E+10	1	-1E+10	1
4901784	219	C	07/03/2021	10:41	-136.412	43.206	0	1750.60	0	2.2110	0	38.7920	8	31.005	0	1729.426	0	39.7	4	12.4	4	-1E+10	1	-1E+10	1	-1E+10	1	-1E+10	1	-1E+10	1	-1E+10	1
4901784	219	C	07/03/2021	10:41	-136.412	43.206	0	1755.50	0	2.2030	0	38.7940	8	31.008	0	1734.247	0	40.1	4	12.5	4	-1E+10	1	-1E+10	1	-1E+10	1	-1E+10	1	-1E+10	1	-1E+10	1
4901784	219	C	07/03/2021	10:41	-136.412	43.206	0	1760.40	0	2.1990	0	38.7960	8	31.010	0	1739.068	0	40.3	4	12.6	4	-1E+10	1	-1E+10	1	-1E+10	1	-1E+10	1	-1E+10	1	-1E+10	1
4901784	219	C	07/03/2021	10:41	-136.412	43.206	0	1765.30	0	2.1950	0	38.7970	8	31.011	0	1743.888	0	40.6	4	12.7	4	-1E+10	1	-1E+10	1	-1E+10	1	-1E+10	1	-1E+10	1	-1E+10	1
4901784	219	C	07/03/2021	10:41	-136.412	43.206	0	1770.20	0	2.1870	0	38.7980	8	31.012	0	1748.709	0	40.8	4	12.8	4	-1E+10	1	-1E+10	1	-1E+10	1	-1E+10	1	-1E+10	1	-1E+10	1
4901784	219	C	07/03/2021	10:41	-136.412	43.206	0	1775.20	0	2.1830	0	38.8000	8	31.014	0	1753.627	0	40.9	4	12.8	4	-1E+10	1	-1E+10	1	-1E+10	1	-1E+10	1	-1E+10	1	-1E+10	1
4901784	219	C	07/03/2021	10:41	-136.412	43.206	0	1780.20	0	2.1790	0	38.8010	8	31.016	0	1758.546	0	41.2	4	12.9	4	-1E+10	1	-1E+10	1	-1E+10	1	-1E+10	1	-1E+10	1	-1E+10	1
4901784	219	C	07/03/2021	10:41	-136.412	43.206	0	1785.20	0	2.1750	0	38.8020	8	31.017	0	1763.464	0	41.5	4	13.0	4	-1E+10	1	-1E+10	1	-1E+10	1	-1E+10	1	-1E+10	1	-1E+10	1
4901784	219	C	07/03/2021	10:41	-136.412	43.206	0	1790.10	0	2.1690	0	38.8030	8	31.018	0	1768.284	0	42.0	4	13.1	4	-1E+10	1	-1E+10	1	-1E+10	1	-1E+10	1	-1E+10	1	-1E+10	1
4901784	219	C	07/03/2021	10:41	-136.412	43.206	0	1795.10	0	2.1620	0	38.8050	8	31.021	0	1773.202	0	42.4	4	13.2	4	-1E+10	1	-1E+10	1	-1E+10	1	-1E+10	1	-1E+10	1	-1E+10	1
4901784	219	C	07/03/2021	10:41	-136.412	43.206	0	1800.10	0	2.1540	0	38.8070	8	31.023	0	1778.120	0	42.7	4	13.4	4	-1E+10	1	-1E+10	1	-1E+10	1	-1E+10	1	-1E+10	1	-1E+10	1
4901784	219	C	07/03/2021	10:41	-136.412	43.206	0	1805.20	0	2.1480	0	38.8080	8	31.024	0	1783.137	0	43.1	4	13.5	4	-1E+10	1	-1E+10	1	-1E+10	1	-1E+10	1	-1E+10	1	-1E+10	1
4901784	219	C	07/03/2021	10:41	-136.412	43.206	0	1810.30	0	2.1440	0	38.8100	8	31.026	0	1788.153	0	43.4	4	13.6	4	-1E+10	1	-1E+10	1	-1E+10	1	-1E+10	1	-1E+10	1	-1E+10	1
4901784	219	C	07/03/2021	10:41	-136.412	43.206	0	1815.30	0	2.1380	0	38.8110	8	31.028	0	1793.071	0	43.7	4	13.7	4	-1E+10	1	-1E+10	1	-1E+10	1	-1E+10	1	-1E+10	1	-1E+10	1
4901784	219	C	07/03/2021	10:41	-136.412	43.206	0	1820.40	0	2.1320	0	38.8120	8	31.029	0	1798.087	0	44.1	4	13.8	4	-1E+10	1	-1E+10	1	-1E+10	1	-1E+10	1	-1E+10	1	-1E+10	1
4901784	219	C	07/03/2021	10:41	-136.412	43.206	0	1825.60	0	2.1260	0	38.8140	8	31.031	0	1803.201	0	44.4	4	13.9	4	-1E+10	1	-1E+10	1	-1E+10	1	-1E+10	1	-1E+10	1	-1E+10	1
4901784	219	C	07/03/2021	10:41	-136.412	43.206	0	1830.70	0	2.1220	0	38.8150	8	31.032	0	1808.217	0	44.7	4	14.0	4	-1E+10	1	-1E+10	1	-1E+10	1	-1E+10	1	-1E+10	1	-1E+10	1
4901784	219	C	07/03/2021	10:41	-136.412	43.206	0	1835.10	0	2.1170	0	38.8170	8	31.035	0	1812.544	0	44.9	4	14.0	4	-1E+10	1	-1E+10	1	-1E+10	1	-1E+10	1	-1E+10	1	-1E+10	1
4901784	219	C	07/03/2021	10:41	-136.412	43.206	0	1839.50	0	2.1120	0	38.8180	8	31.036	0	1816.871	0	45.2	4	14.1	4	-1E+10	1	-1E+10	1	-1E+10	1	-1E+10	1	-1E+10	1	-1E+10	1
4901784	219	C	07/03/2021	10:41	-136.412	43.206	0	1844.70	0	2.1070	0	38.8190	8	31.037	0	1821.985	0	45.5	4	14.2	4	-1E+10	1	-1E+10	1	-1E+10	1	-1E+10	1	-1E+10	1	-1E+10	1
4901784	219	C	07/03/2021	10:41	-136.412	43.206	0	1849.90	0	2.0970	0	38.8220	8	31.040	0	1827.098	0	45.8	4	14.3	4	-1E+10	1	-1E+10	1	-1E+10	1	-1E+10	1	-1E+10	1	-1E+10	1
4901784	219	C	07/03/2021	10:41	-136.412	43.206	0	1855.20	0	2.0930	0	38.8230	8	31.042	0	1832.310	0	46.0	4	14.4	4	-1E+10	1	-1E+10	1	-1E+10	1	-1E+10	1	-1E+10	1	-1E+10	1
4901784	219	C	07/03/2021	10:41	-136.412	43.206	0	1860.40	0	2.0880	0	38.8240	8	31.043	0	1837.424	0	46.4	4	14.5	4	-1E+10	1	-1E+10	1	-1E+10	1	-1E+10	1	-1E+10	1	-1E+10	1
4901784	219	C	07/03/2021	10:41	-136.412	43.206	0	1865.70	0	2.0830	0	38.8260	8	31.045	0	1842.635	0	46.6	4	14.6	4	-1E+10	1	-1E+10	1	-1E+10	1	-1E+10	1	-1E+10	1	-1E+10	1
4901784	219	C	07/03/2021	10:41	-136.412	43.206	0	1870.10	0	2.0810	0	38.8270	8	31.046	0	1846.962	0	46.8	4	14.6	4	-1E+10	1	-1E+10	1	-1E+10	1	-1E+10	1	-1E+10	1	-1E+10	1
4901784	219	C	07/03/2021	10:41	-136.412	43.206	0	1874.50	0	2.0780	0	38.8270	8	31.046	0	1851.288	0	47.1	4	14.7	4	-1E+10	1	-1E+10	1	-1E+10	1	-1E+10	1	-1E+10	1	-1E+10	1
4901784	219	C	07/03/2021	10:41	-136.412	43.206	0	1879.90	0	2.0740	0	38.8290	8	31.048	0	1856.598	0	47.4	4	14.8	4	-1E+10	1	-1E+10	1	-1E+10	1	-1E+10	1	-1E+10	1	-1E+10	1
4901784	219	C	07/03/2021	10:41	-136.412	43.206	0	1885.10	0	2.0660	0	38.8300	8	31.050	0	1861.711	0	47.8	4	14.9	4	-1E+10	1	-1E+10	1	-1E+10	1	-1E+10	1	-1E+10	1	-1E+10	1
4901784	219	C	07/03/2021	10:41	-136.412	43.206	0	1890.40	0	2.0640	0	38.8310	8	31.051	0	1866.922	0	48.1	4	15.0	4	-1E+10	1	-1E+10	1	-1E+10	1	-1E+10	1	-1E+10	1	-1E+10	1
4901784	219	C	07/03/2021	10:41	-136.412	43.206	0	1895.60	0	2.0560	0	38.8330	8	31.053	0	1872.034	0	48.6	4	15.2	4	-1E+10	1	-1E+10	1	-1E+10	1	-1E+10	1	-1E+10	1	-1E+10	1
4901784	219	C	07/03/2021	10:41	-136.412	43.206	0	1900.00	0	2.0520	0	38.8340	8	31.055	0	1876.360	0	48.9	4	15.3	4	-1E+10	1	-1E+10	1	-1E+10	1	-1E+10	1	-1E+10	1	-1E+10	1
4901784	219	C	07/03/2021	10:41	-136.412	43.206	0	1904.40	0	2.0460	0	38.8360	8	31.057	0	1880.686	0	49.3	4	15.4	4	-1E+10	1	-1E+10	1	-1E+10	1	-1E+10	1	-1E+10	1	-1E+10	1
4901784	219	C	07/03/2021	10:41	-136.412	43.206	0	1909.80	0	2.0400	0	38.8370	8	31.058	0	1885.995	0	49.7	4	15.5	4	-1E+10	1	-1E+10	1	-1E+10	1	-1E+10	1	-1E+10	1	-1E+10	1
4901784	219	C	07/03/2021	10:41	-136.412	43.206	0	1915.20	0	2.0350	0	38.8390	8	31.060	0	1891.303	0	50.1	4	15.6	4	-1E+10	1	-1E+10	1	-1E+10	1	-1E+10	1	-1E+10	1	-1E+10	1
4901784	219	C	07/03/2021	10:41	-136.412	43.206	0	1920.60	0	2.0290	0	38.8400	8	31.062	0	1896.612	0	50.6	4	15.8	4	-1E+10	1	-1E+10	1	-1E+10	1	-1E+10	1	-1E+10	1	-1E+10	1
4901784	219	C	07/03/2021	10:41	-136.412	43.206	0	1925.10	0	2.0220	0	38.8420	8	31.064	0	1901.036	0	51.0	4	15.9	4	-1E+10	1	-1E+10	1	-1E+10	1	-1E+10	1	-1E+10	1	-1E+10	1
4901784	219	C	07/03/2021	10:41	-136.412	43.206	0	1929.70	0	2.0190	0	38.8430	8	31.065	0	1905.558	0	51.2	4	16.0	4	-1E+10	1	-1E+10	1	-1E+10	1	-1E+10	1	-1E+10	1	-1E+10	1
4901784	219	C	07/03/2021	10:41	-136.412	43.206	0	1935.30	0	2.0140	0	38.8440	8	31.066	0	1911.062	0	51.5	4	16.0	4	-1E+10	1	-1E+10	1	-1E+10	1	-1E+10	1	-1E+10	1	-1E+10	1
4901784	219	C	07/03/2021	10:41	-136.412	43.206	0	1939.90	0	2.0110	0	38.8450	8	31.067	0	1915.584	0	51.6	4	16.1	4	-1E+10	1	-1E+10	1	-1E+10	1	-1E+10	1	-1E+10	1	-1E+10	1
4901784	219	C	07/03/2021	10:41	-136.412	43.206	0	1944.50	0	2.0100	0	38.8450	8	31.067	0	1920.106	0	51.8	4	16.1	4	-1E+10	1	-1E+10	1	-1E+10	1	-1E+10	1	-1E+10	1	-1E+10	1
4901784	219	C	07/03/2021	10:41	-136.412	43.206	0	1950.00	0	2.0040	0	38.8470	8	31.070	0	1925.512	0	52.1	4	16.2	4	-1E+10	1	-1E+10	1	-1E+10	1	-1E+10	1	-1E+10	1	-1E+10	1
4901784	219	C	07/03/2021	10:41	-136.412	43.206	0	1955.50	0	2.0000	0	38.8480	8	31.071	0	1930.918	0	52.5	4	16.4	4	-1E+10	1	-1E+10	1	-1E+10	1	-1E+10	1	-1E+10	1	-1E+10	1
4901784	219	C	07/03/2021	10:41	-136.412	43.206	0	1960.50	0	1.9950	0	38.8490	8	31.072	0	1935.832	0	53.0	4	16.5	4	-1E+10	1	-1E+10	1	-1E+10	1	-1E+10	1	-1E+10	1	-1E+10	1
4901784	219	C	07/03/2021	10:41	-136.412	43.206	0	1965.50	0	1.9890	0	38.8510	8	31.074	0	1940.747	0	53.4	4	16.6	4	-1E+10	1	-1E+10	1	-1E+10	1	-1E+10	1	-1E+10	1	-1E+10	1
4901784	219	C	07/03/2021	10:41	-136.412	43.206	0	1970.50	0	1.9840	0	38.8520	8	31.076	0	1945.661	0	53.6	4	16.7	4	-1E+10	1	-1E+10	1	-1E+10	1	-1E+10	1	-1E+10	1	-1E+10	1
4901784	219	C	07/03/2021	10:41	-136.412	43.206	0	1975.60	0	1.9800	0	38.8530	8	31.077	0	1950.673	0	53.8	4	16.8	4	-1E+10	1	-1E+10	1	-1E+10	1	-1E+10	1	-1E+10	1	-1E+10	1
4901784	219	C	07/03/2021	10:41	-136.412	43.206	0	1980.70	0	1.9770	0	38.8540	8	31.078	0	1955.685	0	54.1	4	16.9	4	-1E+10	1	-1E+10	1	-1E+10	1	-1E+10	1	-1E+10	1	-1E+10	1
4901784	219	C	07/03/2021	10:41	-136.412	43.206	0	1985.00	0	1.9730	0	38.8550	8	31.079	0	1959.911	0	54.4	4	17.0	4	-1E+10	1	-1E+10	1	-1E+10	1	-1E+10	1	-1E+10	1	-1E+10	1
4901784	219	C	07/03/2021	10:41	-136.412	43.206	0	1989.30	0	1.9690	0	38.8560	8	31.080	0	1964.137	0	54.7	4	17.0	4	-1E+10	1	-1E+10	1	-1E+10	1	-1E+10	1	-1E+10	1	-1E+10	1
4901784	219	C	07/03/2021	10:41	-136.412	43.206	0	1994.50	0	1.9650	0	38.8570	8	31.081	0	1969.248	0	55.0	4	17.1	4	-1E+10	1	-1E+10	1	-1E+10	1	-1E+10	1	-1E+10	1	-1E+10	1
4901784	219	C	07/03/2021	10:41	-136.412	43.206	0	1999.60	0	1.9610	0	38.8580	8	31.083	0	1974.259	0	55.4	4	17.2	4	-1E+10	1	-1E+10	1	-1E+10	1	-1E+10	1	-1E+10	1	-1E+10	1
4901784	219	C	07/03/2021	10:41	-136.412	43.206	0	2004.80	0	1.9580	0	38.8590	8	31.084	0	1979.369	0	55.6	4	17.3	4	-1E+10	1	-1E+10	1	-1E+10	1	-1E+10	1	-1E+10	1	-1E+10	1
4901784	219	C	07/03/2021	10:41	-136.412	43.206	0	2010.30	0	1.9540	0	38.8600	8	31.085	0	1984.774	0	55.9	4	17.4	4	-1E+10	1	-1E+10	1	-1E+10	1	-1E+10	1	-1E+10	1	-1E+10	1
4901784	219	C	07/03/2021	10:41	-136.412	43.206	0	2015.20	0	1.9520	0	38.8610	8	31.086	0	1989.589	0	56.1	4	17.5	4	-1E+10	1	-1E+10	1	-1E+10	1	-1E+10	1	-1E+10	1	-1E+10	1
4901784	219	C	07/03/2021	10:41	-136.412	43.206	0	2019.90	0	1.9490	0	38.8620	8	31.087	0	1994.207	0	56.3	4	17.5	4	-1E+10	1	-1E+10	1	-1E+10	1	-1E+10	1	-1E+10	1	-1E+10	1
4901784	219	C	07/03/2021	10:41	-136.412	43.206	0																										
4901784	220	C	07/13/2021	10:44	-136.403	43.230	0	2.50	0	17.9060	0	36.2210	8	26.232	0	2.480	0	227.9	4	98.1	4	-1E+10	1	-1E+10	1	-1E+10	1	-1E+10	1	-1E+10	1	-1E+10	1
4901784	220	C	07/13/2021	10:44	-136.403	43.230	0	4.10	0	17.5870	0	36.2270	8	26.315	0	4.067	0	229.1	4	98.0	4	-1E+10	1	-1E+10	1	-1E+10	1	-1E+10	1	-1E+10	1	-1E+10	1
4901784	220	C	07/13/2021	10:44	-136.403	43.230	0	6.10	0	17.2540	0	36.2320	8	26.400	0	6.051	0	230.5	4	98.0	4	-1E+10	1	-1E+10	1	-1E+10	1	-1E+10	1	-1E+10	1	-1E+10	1
4901784	220	C	07/13/2021	10:44	-136.403	43.230	0	6.50	0	17.2170	0	36.2310	8	26.409	0	6.448	0	230.8	4	98.0	4	-1E+10	1	-1E+10	1	-1E+10	1	-1E+10	1	-1E+10	1	-1E+10	1
4901784	220	C	07/13/2021	10:44	-136.403	43.230	0	8.10	0	17.0730	0	36.2220	8	26.436	0	8.035	0	231.4	4	98.0	4	-1E+10	1	-1E+10	1	-1E+10	1	-1E+10	1	-1E+10	1	-1E+10	1
4901784	220	C	07/13/2021	10:44	-136.403	43.230	0	9.70	0	16.8250	0	36.2220	8	26.496	0	9.623	0	232.5	4	98.0	4	-1E+10	1	-1E+10	1	-1E+10	1	-1E+10	1	-1E+10	1	-1E+10	1
4901784	220	C	07/13/2021	10:44	-136.403	43.230	0	11.20	0	16.7780	0	36.2230	8	26.508	0	11.111	0	232.9	4	98.1	4	-1E+10	1	-1E+10	1	-1E+10	1	-1E+10	1	-1E+10	1	-1E+10	1
4901784	220	C	07/13/2021	10:44	-136.403	43.230	0	12.80	0	16.7000	0	36.2240	8	26.527	0	12.698	0	233.8	4	98.3	4	-1E+10	1	-1E+10	1	-1E+10	1	-1E+10	1	-1E+10	1	-1E+10	1
4901784	220	C	07/13/2021	10:44	-136.403	43.230	0	14.40	0	16.6180	0	36.2240	8	26.547	0	14.285	0	234.7	4	98.5	4	-1E+10	1	-1E+10	1	-1E+10	1	-1E+10	1	-1E+10	1	-1E+10	1
4901784	220	C	07/13/2021	10:44	-136.403	43.230	0	16.00	0	16.5660	0	36.2180	8	26.554	0	15.872	0	235.6	4	98.8	4	-1E+10	1	-1E+10	1	-1E+10	1	-1E+10	1	-1E+10	1	-1E+10	1
4901784	220	C	07/13/2021	10:44	-136.403	43.230	0	17.60	0	16.4350	0	36.2200	8	26.587	0	17.459	0	237.0	4	99.2	4	-1E+10	1	-1E+10	1	-1E+10	1	-1E+10	1	-1E+10	1	-1E+10	1
4901784	220	C	07/13/2021	10:44	-136.403	43.230	0	19.20	0	16.2910	0	36.2210	8	26.621	0	19.046	0	238.9	4	99.7	4	-1E+10	1	-1E+10	1	-1E+10	1	-1E+10	1	-1E+10	1	-1E+10	1
4901784	220	C	07/13/2021	10:44	-136.403	43.230	0	20.90	0	15.8510	0	36.2560	8	26.750	0	20.733	0	241.8	4	100.1	4	-1E+10	1	-1E+10	1	-1E+10	1	-1E+10	1	-1E+10	1	-1E+10	1
4901784	220	C	07/13/2021	10:44	-136.403	43.230	0	22.50	0	15.6680	0	36.2800	8	26.811	0	22.320	0	243.3	4	100.4	4	-1E+10	1	-1E+10	1	-1E+10	1	-1E+10	1	-1E+10	1	-1E+10	1
4901784	220	C	07/13/2021	10:44	-136.403	43.230	0	24.20	0	15.5800	0	36.2640	8	26.818	0	24.006	0	244.3	4	100.6	4	-1E+10	1	-1E+10	1	-1E+10	1	-1E+10	1	-1E+10	1	-1E+10	1
4901784	220	C	07/13/2021	10:44	-136.403	43.230	0	26.00	0	15.2290	0	36.2420	8	26.881	0	25.792	0	247.0	4	101.0	4	-1E+10	1	-1E+10	1	-1E+10	1	-1E+10	1	-1E+10	1	-1E+10	1
4901784	220	C	07/13/2021	10:44	-136.403	43.230	0	26.50	0	15.2350	0	36.2590	8	26.892	0	26.287	0	247.6	4	101.3	4	-1E+10	1	-1E+10	1	-1E+10	1	-1E+10	1	-1E+10	1	-1E+10	1
4901784	220	C	07/13/2021	10:44	-136.403	43.230	0	27.90	0	15.0510	0	36.2580	8	26.933	0	27.676	0	249.0	4	101.5	4	-1E+10	1	-1E+10	1	-1E+10	1	-1E+10	1	-1E+10	1	-1E+10	1
4901784	220	C	07/13/2021	10:44	-136.403	43.230	0	29.20	0	14.7750	0	36.2950	8	27.022	0	28.966	0	251.2	4	101.8	4	-1E+10	1	-1E+10	1	-1E+10	1	-1E+10	1	-1E+10	1	-1E+10	1
4901784	220	C	07/13/2021	10:44	-136.403	43.230	0	30.60	0	14.2270	0	36.3160	8	27.158	0	30.354	0	253.3	4	101.6	4	-1E+10	1	-1E+10	1	-1E+10	1	-1E+10	1	-1E+10	1	-1E+10	1
4901784	220	C	07/13/2021	10:44	-136.403	43.230	0	32.10	0	13.8670	0	36.3620	8	27.270	0	31.842	0	255.6	4	101.8	4	-1E+10	1	-1E+10	1	-1E+10	1	-1E+10	1	-1E+10	1	-1E+10	1
4901784	220	C	07/13/2021	10:44	-136.403	43.230	0	33.60	0	13.5890	0	36.4260	8	27.378	0	33.330	0	255.6	4	101.3	4	-1E+10	1	-1E+10	1	-1E+10	1	-1E+10	1	-1E+10	1	-1E+10	1
4901784	220	C	07/13/2021	10:44	-136.403	43.230	0	35.10	0	13.3440	0	36.4680	8	27.462	0	34.818	0	255.2	4	100.7	4	-1E+10	1	-1E+10	1	-1E+10	1	-1E+10	1	-1E+10	1	-1E+10	1
4901784	220	C	07/13/2021	10:44	-136.403	43.230	0	36.60	0	13.2090	0	36.5040	8	27.518	0	36.306	0	255.4	4	100.5	4	-1E+10	1	-1E+10	1	-1E+10	1	-1E+10	1	-1E+10	1	-1E+10	1
4901784	220	C	07/13/2021	10:44	-136.403	43.230	0	38.20	0	12.9580	0	36.5110	8	27.575	0	37.893	0	255.7	4	100.1	4	-1E+10	1	-1E+10	1	-1E+10	1	-1E+10	1	-1E+10	1	-1E+10	1
4901784	220	C	07/13/2021	10:44	-136.403	43.230	0	39.80	0	12.8050	0	36.5150	8	27.609	0	39.480	0	255.7	4	99.8	4	-1E+10	1	-1E+10	1	-1E+10	1	-1E+10	1	-1E+10	1	-1E+10	1
4901784	220	C	07/13/2021	10:44	-136.403	43.230	0	41.40	0	12.7770	0	36.5020	8	27.604	0	41.067	0	255.6	4	99.7	4	-1E+10	1	-1E+10	1	-1E+10	1	-1E+10	1	-1E+10	1	-1E+10	1
4901784	220	C	07/13/2021	10:44	-136.403	43.230	0	43.10	0	12.6630	0	36.5010	8	27.626	0	42.753	0	254.7	4	99.1	4	-1E+10	1	-1E+10	1	-1E+10	1	-1E+10	1	-1E+10	1	-1E+10	1
4901784	220	C	07/13/2021	10:44	-136.403	43.230	0	44.70	0	12.4520	0	36.4830	8	27.655	0	44.340	0	255.1	4	98.8	4	-1E+10	1	-1E+10	1	-1E+10	1	-1E+10	1	-1E+10	1	-1E+10	1
4901784	220	C	07/13/2021	10:44	-136.403	43.230	0	46.40	0	12.1870	0	36.4700	8	27.697	0	46.026	0	255.7	4	98.5	4	-1E+10	1	-1E+10	1	-1E+10	1	-1E+10	1	-1E+10	1	-1E+10	1
4901784	220	C	07/13/2021	10:44	-136.403	43.230	0	48.00	0	12.0480	0	36.4500	8	27.708	0	47.613	0	255.8	4	98.3	4	-1E+10	1	-1E+10	1	-1E+10	1	-1E+10	1	-1E+10	1	-1E+10	1
4901784	220	C	07/13/2021	10:44	-136.403	43.230	0	49.80	0	11.8830	0	36.4380	8	27.731	0	49.398	0	255.6	4	97.8	4	-1E+10	1	-1E+10	1	-1E+10	1	-1E+10	1	-1E+10	1	-1E+10	1
4901784	220	C	07/13/2021	10:44	-136.403	43.230	0	51.40	0	11.7460	0	36.4280	8	27.750	0	50.985	0	255.3	4	97.4	4	-1E+10	1	-1E+10	1	-1E+10	1	-1E+10	1	-1E+10	1	-1E+10	1
4901784	220	C	07/13/2021	10:44	-136.403	43.230	0	53.10	0	11.4160	0	36.3910	8	27.784	0	52.671	0	255.4	4	96.8	4	-1E+10	1	-1E+10	1	-1E+10	1	-1E+10	1	-1E+10	1	-1E+10	1
4901784	220	C	07/13/2021	10:44	-136.403	43.230	0	54.80	0	11.3680	0	36.3780	8	27.783	0	54.357	0	254.3	4	96.3	4	-1E+10	1	-1E+10	1	-1E+10	1	-1E+10	1	-1E+10	1	-1E+10	1
4901784	220	C	07/13/2021	10:44	-136.403	43.230	0	56.50	0	11.2700	0	36.3750	8	27.799	0	56.043	0	252.5	4	95.4	4	-1E+10	1	-1E+10	1	-1E+10	1	-1E+10	1	-1E+10	1	-1E+10	1
4901784	220	C	07/13/2021	10:44	-136.403	43.230	0	58.20	0	11.1840	0	36.3860	8	27.823	0	57.729	0	250.6	4	94.5	4	-1E+10	1	-1E+10	1	-1E+10	1	-1E+10	1	-1E+10	1	-1E+10	1
4901784	220	C	07/13/2021	10:44	-136.403	43.230	0	60.00	0	11.1540	0	36.3890	8	27.831	0	59.514	0	249.1	4	93.9	4	-1E+10	1	-1E+10	1	-1E+10	1	-1E+10	1	-1E+10	1	-1E+10	1
4901784	220	C	07/13/2021	10:44	-136.403	43.230	0	61.80	0	11.2230	0	36.4140	8	27.838	0	61.299	0	247.0	4	93.3	4	-1E+10	1	-1E+10	1	-1E+10	1	-1E+10	1	-1E+10	1	-1E+10	1
4901784	220	C	07/13/2021	10:44	-136.403	43.230	0	63.50	0	11.1810	0	36.4120	8	27.844	0	62.985	0	246.2	4	92.8	4	-1E+10	1	-1E+10	1	-1E+10	1	-1E+10	1	-1E+10	1	-1E+10	1
4901784	220	C	07/13/2021	10:44	-136.403	43.230	0	65.40	0	11.1330	0	36.4140	8	27.855	0	64.869	0	245.3	4	92.4	4	-1E+10	1	-1E+10	1	-1E+10	1	-1E+10	1	-1E+10	1	-1E+10	1
4901784	220	C	07/13/2021	10:44	-136.403	43.230	0	67.10	0	11.0090	0	36.4050	8	27.871	0	66.555	0	245.6	4	92.3	4	-1E+10	1	-1E+10	1	-1E+10	1	-1E+10	1	-1E+10	1	-1E+10	1
4901784	220	C	07/13/2021	10:44	-136.403	43.230	0	68.90	0	10.9100	0	36.3970	8	27.883	0	68.340	0	246.0	4	92.2	4	-1E+10	1	-1E+10	1	-1E+10	1	-1E+10	1	-1E+10	1	-1E+10	1
4901784	220	C	07/13/2021	10:44	-136.403	43.230	0	70.70	0	10.8910	0	36.3930	8	27.883	0	70.126	0	245.6	4	92.1	4	-1E+10	1	-1E+10	1	-1E+10	1	-1E+10	1	-1E+10	1	-1E+10	1
4901784	220	C	07/13/2021	10:44	-136.403	43.230	0	72.40	0	10.8030	0	36.3910	8	27.898	0	71.811	0	245.8	4	92.0	4	-1E+10	1	-1E+10	1	-1E+10	1	-1E+10	1	-1E+10	1	-1E+10	1
4901784	220	C	07/13/2021	10:44	-136.403	43.230	0	74.20	0	10.7470	0	36.3860	8	27.904	0	73.596	0	245.8	4	91.8	4	-1E+10	1	-1E+10	1	-1E+10	1	-1E+10	1	-1E+10	1	-1E+10	1
4901784	220	C	07/13/2021	10:44	-136.403	43.230	0	76.00	0	10.6740	0	36.3920	8	27.922	0	75.381	0	246.0	4	91.8	4	-1E+10	1	-1E+10	1	-1E+10	1	-1E+10	1	-1E+10	1	-1E+10	1
4901784	220	C	07/13/2021	10:44	-136.403	43.230	0	77.80	0	10.6690	0	36.3990	8	27.928	0	77.167	0	245.5	4	91.6	4	-1E+10	1	-1E+10	1	-1E+10	1	-1E+10	1	-1E+10	1	-1E+10	1
4901784	220	C	07/13/2021	10:44	-136.403	43.230	0	79.50	0	10.6850	0	36.4070	8	27.932	0	78.852	0	245.3	4	91.5	4	-1E+10	1	-1E+10	1	-1E+10	1	-1E+10	1	-1E+10	1	-1E+10	1
4901784	220	C	07/13/2021	10:44	-136.403	43.230	0	81.30	0	10.6450	0	36.4130	8	27.944	0	80.637	0	245.4	4	91.5	4	-1E+10	1	-1E+10	1	-1E+10	1	-1E+10	1	-1E+10	1	-1E+10	1
4901784	220	C	07/13/2021	10:44	-136.403	43.230	0	83.20	0	10.5600	0	36.4030	8	27.951	0	82.521	0	245.7	4	91.5	4	-1E+10	1	-1E+10	1	-1E+10	1	-1E+10	1	-1E+10	1	-1E+10	1
4901784	220	C	07/13/2021	10:44	-136.403	43.230	0	85.00	0	10.4040	0	36.4020	8	27.978	0	84.306	0	246.7	4	91.5	4	-1E+10	1	-1E+10	1	-1E+10	1	-1E+10	1	-1E+10	1	-1E+10	1
4901784	220	C	07/13/2021	10:44	-136.403	43.230	0	86.80	0	10.3820	0	36.4070	8	27.986	0	86.091	0	247.5	4	91.8	4	-1E+10	1	-1E+10	1	-1E+10	1	-1E+10	1	-1E+10	1	-1E+10	1
4901784	220	C	07/13/2021	10:44	-136.403	43.230	0	88.60	0	10.4930	0	36.4470	8	27.998	0	87.876	0	247.1	4	91.9	4	-1E+10	1	-1E+10	1	-1E+10	1	-1E+10	1	-1E+10	1	-1E+10	1
4901784	220	C	07/13/2021	10:44	-136.403	43.230	0	90.50	0	10.4950	0	36.4440	8	27.995	0	89.760	0	247.1	4	91.9	4	-1E+10	1	-1E+10	1	-1E+10	1	-1E+10	1	-1E+10	1	-1E+10	1
4901784	220	C	07/13/2021	10:44	-136.403	43.230	0	92.30	0	10.4780	0	36.4520	8	28.004	0	91.545	0	247.1	4	91.9	4	-1E+10	1	-1E+10	1	-1E+10	1	-1E+10	1	-1E+10	1	-1E+10	1
4901784	220	C	07/13/2021	10:44	-136.403	43.230	0	94.10	0	10.3380	0	36.4440	8	28.023	0	93.330	0	247.4	4	91.7	4	-1E+10	1	-1E+10	1	-1E+10	1	-1E+10	1	-1E+10	1	-1E+10	1
4901784	220	C	07/13/2021	10:44	-136.403	43.230	0	96.00	0	10.3270	0	36.4380	8	28.020	0	95.214	0	247.9	4	91.8	4	-1E+10	1	-1E+10	1	-1E+10	1	-1E+10	1	-1E+10	1	-1E+10	1
4901784	220	C	07/13/2021	10:44	-136.403	43.230	0	97.80	0	10.1540	0	36.4340	8	28.048	0	96.999	0	248.5	4	91.7	4	-1E+10	1	-1E+10	1	-1E+10	1	-1E+10	1	-1E+10	1	-1E+10	1
4901784	220	C	07/13/2021	10:44	-136.403	43.230	0	99.60	0	10.1660	0	36.4410	8	28.051	0	98.784	0	248.7	4	91.8	4	-1E+10	1	-1E+10	1	-1E+10	1	-1E+10	1	-1E+10	1	-1E+10	1
4901784	220	C	07/13/2021	10:44	-136.403	43.230	0	102.30	0	10.0070	0	36.4490	8	28.085	0	101.461	0	248.9	4	91.6	4	-1E+10	1	-1E+10	1	-1E+10	1	-1E+10	1	-1E+10	1	-1E+10	1
4901784	220	C	07/13/2021	10:44	-136.403	43.230	0	105.00	0	9.8990	0	36.4450	8	28.101	0	104.138	0	248.8	4	91.3	4	-1E+10	1	-1E+10	1	-1E+10	1	-1E+10	1	-1E+10	1	-1E+10	1
4901784	220	C	07/13/2021	10:44	-136.403	43.230	0	106.80	0	9.8350	0	36.4440	8	28.111	0	105.923	0	248.5	4	91.1	4	-1E+10	1	-1E+10	1	-1E+10	1	-1E+10	1	-1E+10	1	-1E+10	1
4901784	220	C	07/13/2021	10:44	-136.403	43.230	0	109.80	0	9.7270	0	36.4480	8	28.133	0	108.898	0	247.5	4	90.5	4	-1E+10	1	-1E+10	1	-1E+10	1	-1E+10	1	-1E+10	1	-1E+10	1
4901784	220	C	07/13/2021	10:44	-136.403	43.230	0	112.60	0	9.6360	0	36.4550	8	28.154	0	111.674	0	245.8	4	89.7	4	-1E+10	1	-1E+10	1	-1E+10	1	-1E+10	1	-1E+10	1	-1E+10	1
4901784	220	C	07/13/2021	10:44	-136.403	43.230	0	114.80	0	9.5220	0	36.4580	8	28.176	0	113.855	0	243.1	4	88.5	4	-1E+10	1	-1E+10	1	-1E+10	1	-1E+10	1	-1E+10	1	-1E+10	1
4901784	220	C	07/13/2021	10:44	-136.403	43.230	0	117.80	0	9.5230	0	36.4850	8	28.197	0	116.829	0	235.6	4	85.8	4	-1E+10	1	-1E+10	1	-1E+10	1	-1E+10	1	-1E+10	1	-1E+10	1
4901784	220	C	07/13/2021	10:44	-136.403	43.230	0	120.10	0	9.3980	0	36.5300	8	28.253	0	119.110	0	229.3	4	83.3	4	-1E+10	1	-1E+10	1	-1E+10	1	-1E+10	1	-1E+10	1	-1E+10	1
4901784	220	C	07/13/2021	10:44	-136.403	43.230	0	122.50	0	9.5640	0	36.6410	8	28.312	0	121.489	0	220.6	4	80.5	4	-1E+10	1	-1E+10	1	-1E+10	1	-1E+10	1	-1E+10	1	-1E+10	1
4901784	220	C	07/13/2021	10:44	-136.403	43.230	0	124.90	0	9.6150	0	36.7470	8	28.387	0	123.869	0	213.5	4	78.1	4	-1E+10	1	-1E+10	1	-1E+10	1	-1E+10	1	-1E+10	1	-1E+10	1
4901784	220	C	07/13/2021	10:44	-136.403	43.230	0	127.30	0	9.7210	0	36.8490	8	28.448	0	126.248	0	207.8	4	76.2	4	-1E+10	1	-1E+10	1	-1E+10	1	-1E+10	1	-1E+10	1	-1E+10	1
4901784	220	C	07/13/2021	10:44	-136.403	43.230	0	129.70	0	9.6990	0	36.9030	8	28.494	0	128.628	0	205.0	4	75.2	4	-1E+10	1	-1E+10	1	-1E+10	1	-1E+10	1	-1E+10	1	-1E+10	1
4901784	220	C	07/13/2021	10:44	-136.403	43.230	0	132.10	0	9.6320	0	36.9560	8	28.547	0	131.007	0	202.5	4	74.2	4	-1E+10	1	-1E+10	1	-1E+10	1	-1E+10	1	-1E+10	1	-1E+10	1
4901784	220	C	07/13/2021	10:44	-136.403	43.230	0	134.60	0	9.5200	0	37.0300	8	28.625	0	133.486	0	200.5	4	73.3	4	-1E+10	1	-1E+10	1	-1E+10	1	-1E+10	1	-1E+10	1	-1E+10	1
4901784	220	C	07/13/2021	10:44	-136.403	43.230	0	137.50	0	9.4010	0	37.1160	8	28.712	0	136.361	0	200.1	4	73.0	4	-1E+10	1	-1E+10	1	-1E+10	1	-1E+10	1	-1E+10	1	-1E+10	1
4901784	220	C	07/13/2021	10:44	-136.403	43.230	0	139.90	0	9.3610	0	37.1430	8	28.740	0	138.740	0	200.0	4	73.0	4	-1E+10	1	-1E+10	1	-1E+10	1	-1E+10	1	-1E+10	1	-1E+10	1
4901784	220	C	07/13/2021	10:44	-136.403	43.230	0	142.30	0	9.2810	0	37.1720	8	28.776	0	141.119	0	200.4	4	73.0	4	-1E+10	1	-1E+10	1	-1E+10	1	-1E+10	1	-1E+10	1	-1E+10	1
4901784	220	C	07/13/2021	10:44	-136.403	43.230	0	144.60	0	9.2120	0	37.1760	8	28.791	0	143.399	0	199.9	4	72.7	4	-1E+10	1	-1E+10	1	-1E+10	1	-1E+10	1	-1E+10	1	-1E+10	1
4901784	220	C	07/13/2021	10:44	-136.403	43.230	0	147.70	0	9.1870	0	37.2040	8	28.817	0	146.473	0	198.6	4	72.2	4	-1E+10	1	-1E+10	1	-1E+10	1	-1E+10	1	-1E+10	1	-1E+10	1
4901784	220	C	07/13/2021	10:44	-136.403	43.230	0	150.10	0	9.1400	0	37.2310	8	28.846	0	148.852	0	197.8	4	71.8	4	-1E+10	1	-1E+10	1	-1E+10	1	-1E+10	1	-1E+10	1	-1E+10	1
4901784	220	C	07/13/2021	10:44	-136.403	43.230	0	152.50	0	9.0910	0	37.2540	8	28.873	0	151.231	0	197.4	4	71.6	4	-1E+10	1	-1E+10	1	-1E+10	1	-1E+10	1	-1E+10	1	-1E+10	1
4901784	220	C	07/13/2021	10:44	-136.403	43.230	0	154.80	0	9.0290	0	37.2860	8	28.908	0	153.511	0	196.0	4	71.1	4	-1E+10	1	-1E+10	1	-1E+10	1	-1E+10	1	-1E+10	1	-1E+10	1
4901784	220	C	07/13/2021	10:44	-136.403	43.230	0	157.20	0	8.8340	0	37.3190	8	28.966	0	155.890	0	194.2	4	70.1	4	-1E+10	1	-1E+10	1	-1E+10	1	-1E+10	1	-1E+10	1	-1E+10	1
4901784	220	C	07/13/2021	10:44	-136.403	43.230	0	159.80	0	8.7800	0	37.3520	8	29.001	0	158.467	0	193.3	4	69.7	4	-1E+10	1	-1E+10	1	-1E+10	1	-1E+10	1	-1E+10	1	-1E+10	1
4901784	220	C	07/13/2021	10:44	-136.403	43.230	0	162.40	0	8.6880	0	37.4150	8	29.066	0	161.045	0	192.5	4	69.3	4	-1E+10	1	-1E+10	1	-1E+10	1	-1E+10	1	-1E+10	1	-1E+10	1
4901784	220	C	07/13/2021	10:44	-136.403	43.230	0	165.00	0	8.6400	0	37.4550	8	29.105	0	163.622	0	192.1	4	69.1	4	-1E+10	1	-1E+10	1	-1E+10	1	-1E+10	1	-1E+10	1	-1E+10	1
4901784	220	C	07/13/2021	10:44	-136.403	43.230	0	167.70	0	8.6030	0	37.4620	8	29.116	0	166.298	0	191.5	4	68.9	4	-1E+10	1	-1E+10	1	-1E+10	1	-1E+10	1	-1E+10	1	-1E+10	1
4901784	220	C	07/13/2021	10:44	-136.403	43.230	0	170.00	0	8.5800	0	37.4680	8	29.125	0	168.578	0	190.7	4	68.5	4	-1E+10	1	-1E+10	1	-1E+10	1	-1E+10	1	-1E+10	1	-1E+10	1
4901784	220	C	07/13/2021	10:44	-136.403	43.230	0	173.00	0	8.4730	0	37.5070	8	29.173	0	171.552	0	189.7	4	68.1	4	-1E+10	1	-1E+10	1	-1E+10	1	-1E+10	1	-1E+10	1	-1E+10	1
4901784	220	C	07/13/2021	10:44	-136.403	43.230	0	175.20	0	8.4590	0	37.5270	8	29.191	0	173.732	0	189.5	4	68.0	4	-1E+10	1	-1E+10	1	-1E+10	1	-1E+10	1	-1E+10	1	-1E+10	1
4901784	220	C	07/13/2021	10:44	-136.403	43.230	0	177.60	0	8.3730	0	37.5360	8	29.212	0	176.111	0	189.2	4	67.7	4	-1E+10	1	-1E+10	1	-1E+10	1	-1E+10	1	-1E+10	1	-1E+10	1
4901784	220	C	07/13/2021	10:44	-136.403	43.230	0	179.90	0	8.3510	0	37.5390	8	29.218	0	178.391	0	189.2	4	67.7	4	-1E+10	1	-1E+10	1	-1E+10	1	-1E+10	1	-1E+10	1	-1E+10	1
4901784	220	C	07/13/2021	10:44	-136.403	43.230	0	182.30	0	8.3610	0	37.5530	8	29.227	0	180.770	0	188.8	4	67.6	4	-1E+10	1	-1E+10	1	-1E+10	1	-1E+10	1	-1E+10	1	-1E+10	1
4901784	220	C	07/13/2021	10:44	-136.403	43.230	0	184.80	0	8.3560	0	37.5730	8	29.244	0	183.248	0	188.4	4	67.4	4	-1E+10	1	-1E+10	1	-1E+10	1	-1E+10	1	-1E+10	1	-1E+10	1
4901784	220	C	07/13/2021	10:44	-136.403	43.230	0	187.30	0	8.3190	0	37.5740	8	29.250	0	185.726	0	188.3	4	67.3	4	-1E+10	1	-1E+10	1	-1E+10	1	-1E+10	1	-1E+10	1	-1E+10	1
4901784	220	C	07/13/2021	10:44	-136.403	43.230	0	189.80	0	8.3480	0	37.5900	8	29.258	0	188.204	0	188.3	4	67.4	4	-1E+10	1	-1E+10	1	-1E+10	1	-1E+10	1	-1E+10	1	-1E+10	1
4901784	220	C	07/13/2021	10:44	-136.403	43.230	0	192.20	0	8.3110	0	37.6080	8	29.278	0	190.582	0	187.8	4	67.2	4	-1E+10	1	-1E+10	1	-1E+10	1	-1E+10	1	-1E+10	1	-1E+10	1
4901784	220	C	07/13/2021	10:44	-136.403	43.230	0	194.70	0	8.2570	0	37.6120	8	29.290	0	193.060	0	187.4	4	67.0	4	-1E+10	1	-1E+10	1	-1E+10	1	-1E+10	1	-1E+10	1	-1E+10	1
4901784	220	C	07/13/2021	10:44	-136.403	43.230	0	197.10	0	8.2170	0	37.6120	8	29.296	0	195.439	0	187.1	4	66.8	4	-1E+10	1	-1E+10	1	-1E+10	1	-1E+10	1	-1E+10	1	-1E+10	1
4901784	220	C	07/13/2021	10:44	-136.403	43.230	0	199.60	0	8.1930	0	37.6130	8	29.301	0	197.916	0	186.9	4	66.7	4	-1E+10	1	-1E+10	1	-1E+10	1	-1E+10	1	-1E+10	1	-1E+10	1
4901784	220	C	07/13/2021	10:44	-136.403	43.230	0	202.10	0	8.1510	0	37.6340	8	29.324	0	200.394	0	186.8	4	66.6	4	-1E+10	1	-1E+10	1	-1E+10	1	-1E+10	1	-1E+10	1	-1E+10	1
4901784	220	C	07/13/2021	10:44	-136.403	43.230	0	204.70	0	8.1320	0	37.6500	8	29.340	0	202.971	0	186.6	4	66.5	4	-1E+10	1	-1E+10	1	-1E+10	1	-1E+10	1	-1E+10	1	-1E+10	1
4901784	220	C	07/13/2021	10:44	-136.403	43.230	0	207.40	0	8.0920	0	37.6710	8	29.363	0	205.647	0	186.1	4	66.3	4	-1E+10	1	-1E+10	1	-1E+10	1	-1E+10	1	-1E+10	1	-1E+10	1
4901784	220	C	07/13/2021	10:44	-136.403	43.230	0	210.00	0	8.0770	0	37.6790	8	29.371	0	208.223	0	185.8	4	66.2	4	-1E+10	1	-1E+10	1	-1E+10	1	-1E+10	1	-1E+10	1	-1E+10	1
4901784	220	C	07/13/2021	10:44	-136.403	43.230	0	212.50	0	8.0630	0	37.6890	8	29.382	0	210.701	0	185.1	4	65.9	4	-1E+10	1	-1E+10	1	-1E+10	1	-1E+10	1	-1E+10	1	-1E+10	1
4901784	220	C	07/13/2021	10:44	-136.403	43.230	0	215.00	0	8.0760	0	37.6970	8	29.386	0	213.179	0	184.1	4	65.5	4	-1E+10	1	-1E+10	1	-1E+10	1	-1E+10	1	-1E+10	1	-1E+10	1
4901784	220	C	07/13/2021	10:44	-136.403	43.230	0	217.60	0	8.0960	0	37.7070	8	29.391	0	215.755	0	182.5	4	65.0	4	-1E+10	1	-1E+10	1	-1E+10	1	-1E+10	1	-1E+10	1	-1E+10	1
4901784	220	C	07/13/2021	10:44	-136.403	43.230	0	220.30	0	8.0870	0	37.7170	8	29.400	0	218.431	0	180.7	4	64.4	4	-1E+10	1	-1E+10	1	-1E+10	1	-1E+10	1	-1E+10	1	-1E+10	1
4901784	220	C	07/13/2021	10:44	-136.403	43.230	0	222.80	0	8.0630	0	37.7260	8	29.411	0	220.908	0	178.9	4	63.7	4	-1E+10	1	-1E+10	1	-1E+10	1	-1E+10	1	-1E+10	1	-1E+10	1
4901784	220	C	07/13/2021	10:44	-136.403	43.230	0	225.40	0	7.9860	0	37.7270	8	29.424	0	223.485	0	177.3	4	63.0	4	-1E+10	1	-1E+10	1	-1E+10	1	-1E+10	1	-1E+10	1	-1E+10	1
4901784	220	C	07/13/2021	10:44	-136.403	43.230	0	227.20	0	7.9530	0	37.7240	8	29.427	0	225.269	0	176.0	4	62.5	4	-1E+10	1	-1E+10	1	-1E+10	1	-1E+10	1	-1E+10	1	-1E+10	1
4901784	220	C	07/13/2021	10:44	-136.403	43.230	0	229.80	0	7.8430	0	37.7320	8	29.450	0	227.845	0	174.4	4	61.8	4	-1E+10	1	-1E+10	1	-1E+10	1	-1E+10	1	-1E+10	1	-1E+10	1
4901784	220	C	07/13/2021	10:44	-136.403	43.230	0	232.50	0	7.8130	0	37.7410	8	29.462	0	230.521	0	173.2	4	61.3	4	-1E+10	1	-1E+10	1	-1E+10	1	-1E+10	1	-1E+10	1	-1E+10	1
4901784	220	C	07/13/2021	10:44	-136.403	43.230	0	235.10	0	7.7910	0	37.7440	8	29.467	0	233.097	0	171.7	4	60.8	4	-1E+10	1	-1E+10	1	-1E+10	1	-1E+10	1	-1E+10	1	-1E+10	1
4901784	220	C	07/13/2021	10:44	-136.403	43.230	0	237.70	0	7.7830	0	37.7470	8	29.471	0	235.673	0	170.1	4	60.2	4	-1E+10	1	-1E+10	1	-1E+10	1	-1E+10	1	-1E+10	1	-1E+10	1
4901784	220	C	07/13/2021	10:44	-136.403	43.230	0	240.30	0	7.7660	0	37.7540	8	29.479	0	238.250	0	167.9	4	59.4	4	-1E+10	1	-1E+10	1	-1E+10	1	-1E+10	1	-1E+10	1	-1E+10	1
4901784	220	C	07/13/2021	10:44	-136.403	43.230	0	242.90	0	7.7310	0	37.7630	8	29.492	0	240.826	0	165.9	4	58.7	4	-1E+10	1	-1E+10	1	-1E+10	1	-1E+10	1	-1E+10	1	-1E+10	1
4901784	220	C	07/13/2021	10:44	-136.403	43.230	0	244.80	0	7.7000	0	37.7660	8	29.499	0	242.709	0	164.8	4	58.2	4	-1E+10	1	-1E+10	1	-1E+10	1	-1E+10	1	-1E+10	1	-1E+10	1
4901784	220	C	07/13/2021	10:44	-136.403	43.230	0	247.40	0	7.6680	0	37.7710	8	29.508	0	245.285	0	163.2	4	57.6	4	-1E+10	1	-1E+10	1	-1E+10	1	-1E+10	1	-1E+10	1	-1E+10	1
4901784	220	C	07/13/2021	10:44	-136.403	43.230	0	250.10	0	7.6420	0	37.7810	8	29.520	0	247.960	0	161.6	4	57.0	4	-1E+10	1	-1E+10	1	-1E+10	1	-1E+10	1	-1E+10	1	-1E+10	1
4901784	220	C	07/13/2021	10:44	-136.403	43.230	0	252.80	0	7.6350	0	37.7890	8	29.527	0	250.635	0	160.4	4	56.6	4	-1E+10	1	-1E+10	1	-1E+10	1	-1E+10	1	-1E+10	1	-1E+10	1
4901784	220	C	07/13/2021	10:44	-136.403	43.230	0	255.40	0	7.6130	0	37.7950	8	29.535	0	253.212	0	159.0	4	56.1	4	-1E+10	1	-1E+10	1	-1E+10	1	-1E+10	1	-1E+10	1	-1E+10	1
4901784	220	C	07/13/2021	10:44	-136.403	43.230	0	257.20	0	7.6010	0	37.7960	8	29.538	0	254.995	0	158.1	4	55.7	4	-1E+10	1	-1E+10	1	-1E+10	1	-1E+10	1	-1E+10	1	-1E+10	1
4901784	220	C	07/13/2021	10:44	-136.403	43.230	0	259.90	0	7.5660	0	37.8080	8	29.553	0	257.670	0	157.1	4	55.3	4	-1E+10	1	-1E+10	1	-1E+10	1	-1E+10	1	-1E+10	1	-1E+10	1
4901784	220	C	07/13/2021	10:44	-136.403	43.230	0	262.60	0	7.5620	0	37.8140	8	29.558	0	260.345	0	156.0	4	54.9	4	-1E+10	1	-1E+10	1	-1E+10	1	-1E+10	1	-1E+10	1	-1E+10	1
4901784	220	C	07/13/2021	10:44	-136.403	43.230	0	264.50	0	7.5420	0	37.8200	8	29.566	0	262.228	0	155.3	4	54.7	4	-1E+10	1	-1E+10	1	-1E+10	1	-1E+10	1	-1E+10	1	-1E+10	1
4901784	220	C	07/13/2021	10:44	-136.403	43.230	0	267.20	0	7.5210	0	37.8210	8	29.570	0	264.903	0	154.7	4	54.5	4	-1E+10	1	-1E+10	1	-1E+10	1	-1E+10	1	-1E+10	1	-1E+10	1
4901784	220	C	07/13/2021	10:44	-136.403	43.230	0	269.90	0	7.5060	0	37.8190	8	29.571	0	267.578	0	153.7	4	54.1	4	-1E+10	1	-1E+10	1	-1E+10	1	-1E+10	1	-1E+10	1	-1E+10	1
4901784	220	C	07/13/2021	10:44	-136.403	43.230	0	272.70	0	7.4450	0	37.8280	8	29.587	0	270.352	0	153.4	4	53.9	4	-1E+10	1	-1E+10	1	-1E+10	1	-1E+10	1	-1E+10	1	-1E+10	1
4901784	220	C	07/13/2021	10:44	-136.403	43.230	0	275.50	0	7.4170	0	37.8310	8	29.594	0	273.126	0	152.7	4	53.6	4	-1E+10	1	-1E+10	1	-1E+10	1	-1E+10	1	-1E+10	1	-1E+10	1
4901784	220	C	07/13/2021	10:44	-136.403	43.230	0	277.30	0	7.4040	0	37.8310	8	29.595	0	274.909	0	152.1	4	53.4	4	-1E+10	1	-1E+10	1	-1E+10	1	-1E+10	1	-1E+10	1	-1E+10	1
4901784	220	C	07/13/2021	10:44	-136.403	43.230	0	280.20	0	7.3690	0	37.8360	8	29.605	0	277.782	0	151.5	4	53.1	4	-1E+10	1	-1E+10	1	-1E+10	1	-1E+10	1	-1E+10	1	-1E+10	1
4901784	220	C	07/13/2021	10:44	-136.403	43.230	0	283.00	0	7.3460	0	37.8350	8	29.607	0	280.556	0	150.7	4	52.8	4	-1E+10	1	-1E+10	1	-1E+10	1	-1E+10	1	-1E+10	1	-1E+10	1
4901784	220	C	07/13/2021	10:44	-136.403	43.230	0	284.90	0	7.3170	0	37.8360	8	29.613	0	282.439	0	150.1	4	52.6	4	-1E+10	1	-1E+10	1	-1E+10	1	-1E+10	1	-1E+10	1	-1E+10	1
4901784	220	C	07/13/2021	10:44	-136.403	43.230	0	287.80	0	7.2750	0	37.8390	8	29.621	0	285.312	0	149.0	4	52.2	4	-1E+10	1	-1E+10	1	-1E+10	1	-1E+10	1	-1E+10	1	-1E+10	1
4901784	220	C	07/13/2021	10:44	-136.403	43.230	0	290.60	0	7.2200	0	37.8400	8	29.630	0	288.086	0	147.6	4	51.6	4	-1E+10	1	-1E+10	1	-1E+10	1	-1E+10	1	-1E+10	1	-1E+10	1
4901784	220	C	07/13/2021	10:44	-136.403	43.230	0	292.50	0	7.1900	0	37.8420	8	29.636	0	289.968	0	146.8	4	51.3	4	-1E+10	1	-1E+10	1	-1E+10	1	-1E+10	1	-1E+10	1	-1E+10	1
4901784	220	C	07/13/2021	10:44	-136.403	43.230	0	295.30	0	7.1580	0	37.8450	8	29.643	0	292.742	0	146.0	4	51.0	4	-1E+10	1	-1E+10	1	-1E+10	1	-1E+10	1	-1E+10	1	-1E+10	1
4901784	220	C	07/13/2021	10:44	-136.403	43.230	0	298.10	0	7.1190	0	37.8460	8	29.650	0	295.515	0	145.1	4	50.6	4	-1E+10	1	-1E+10	1	-1E+10	1	-1E+10	1	-1E+10	1	-1E+10	1
4901784	220	C	07/13/2021	10:44	-136.403	43.230	0	300.00	0	7.0970	0	37.8470	8	29.654	0	297.397	0	144.6	4	50.4	4	-1E+10	1	-1E+10	1	-1E+10	1	-1E+10	1	-1E+10	1	-1E+10	1
4901784	220	C	07/13/2021	10:44	-136.403	43.230	0	302.00	0	7.0810	0	37.8470	8	29.656	0	299.379	0	144.1	4	50.3	4	-1E+10	1	-1E+10	1	-1E+10	1	-1E+10	1	-1E+10	1	-1E+10	1
4901784	220	C	07/13/2021	10:44	-136.403	43.230	0	304.90	0	7.0380	0	37.8500	8	29.665	0	302.251	0	143.5	4	50.0	4	-1E+10	1	-1E+10	1	-1E+10	1	-1E+10	1	-1E+10	1	-1E+10	1
4901784	220	C	07/13/2021	10:44	-136.403	43.230	0	307.70	0	6.9720	0	37.8520	8	29.676	0	305.025	0	143.2	4	49.8	4	-1E+10	1	-1E+10	1	-1E+10	1	-1E+10	1	-1E+10	1	-1E+10	1
4901784	220	C	07/13/2021	10:44	-136.403	43.230	0	309.60	0	6.9580	0	37.8510	8	29.678	0	306.907	0	142.6	4	49.6	4	-1E+10	1	-1E+10	1	-1E+10	1	-1E+10	1	-1E+10	1	-1E+10	1
4901784	220	C	07/13/2021	10:44	-136.403	43.230	0	312.40	0	6.9190	0	37.8520	8	29.684	0	309.681	0	141.5	4	49.1	4	-1E+10	1	-1E+10	1	-1E+10	1	-1E+10	1	-1E+10	1	-1E+10	1
4901784	220	C	07/13/2021	10:44	-136.403	43.230	0	315.30	0	6.8820	0	37.8560	8	29.693	0	312.553	0	140.5	4	48.8	4	-1E+10	1	-1E+10	1	-1E+10	1	-1E+10	1	-1E+10	1	-1E+10	1
4901784	220	C	07/13/2021	10:44	-136.403	43.230	0	317.20	0	6.8350	0	37.8570	8	29.700	0	314.435	0	140.5	4	48.7	4	-1E+10	1	-1E+10	1	-1E+10	1	-1E+10	1	-1E+10	1	-1E+10	1
4901784	220	C	07/13/2021	10:44	-136.403	43.230	0	320.10	0	6.7830	0	37.8590	8	29.709	0	317.308	0	139.6	4	48.3	4	-1E+10	1	-1E+10	1	-1E+10	1	-1E+10	1	-1E+10	1	-1E+10	1
4901784	220	C	07/13/2021	10:44	-136.403	43.230	0	322.90	0	6.7640	0	37.8610	8	29.714	0	320.081	0	137.8	4	47.7	4	-1E+10	1	-1E+10	1	-1E+10	1	-1E+10	1	-1E+10	1	-1E+10	1
4901784	220	C	07/13/2021	10:44	-136.403	43.230	0	324.90	0	6.7450	0	37.8630	8	29.718	0	322.062	0	136.3	4	47.2	4	-1E+10	1	-1E+10	1	-1E+10	1	-1E+10	1	-1E+10	1	-1E+10	1
4901784	220	C	07/13/2021	10:44	-136.403	43.230	0	326.80	0	6.7460	0	37.8650	8	29.719	0	323.944	0	134.7	4	46.6	4	-1E+10	1	-1E+10	1	-1E+10	1	-1E+10	1	-1E+10	1	-1E+10	1
4901784	220	C	07/13/2021	10:44	-136.403	43.230	0	329.70	0	6.7540	0	37.8690	8	29.721	0	326.816	0	133.0	4	46.0	4	-1E+10	1	-1E+10	1	-1E+10	1	-1E+10	1	-1E+10	1	-1E+10	1
4901784	220	C	07/13/2021	10:44	-136.403	43.230	0	332.60	0	6.7060	0	37.8690	8	29.728	0	329.689	0	132.6	4	45.8	4	-1E+10	1	-1E+10	1	-1E+10	1	-1E+10	1	-1E+10	1	-1E+10	1
4901784	220	C	07/13/2021	10:44	-136.403	43.230	0	334.60	0	6.6610	0	37.8690	8	29.735	0	331.670	0	132.3	4	45.7	4	-1E+10	1	-1E+10	1	-1E+10	1	-1E+10	1	-1E+10	1	-1E+10	1
4901784	220	C	07/13/2021	10:44	-136.403	43.230	0	337.50	0	6.5850	0	37.8680	8	29.745	0	334.542	0	132.2	4	45.6	4	-1E+10	1	-1E+10	1	-1E+10	1	-1E+10	1	-1E+10	1	-1E+10	1
4901784	220	C	07/13/2021	10:44	-136.403	43.230	0	340.40	0	6.5370	0	37.8680	8	29.752	0	337.414	0	131.4	4	45.3	4	-1E+10	1	-1E+10	1	-1E+10	1	-1E+10	1	-1E+10	1	-1E+10	1
4901784	220	C	07/13/2021	10:44	-136.403	43.230	0	342.30	0	6.5240	0	37.8690	8	29.754	0	339.296	0	130.4	4	44.9	4	-1E+10	1	-1E+10	1	-1E+10	1	-1E+10	1	-1E+10	1	-1E+10	1
4901784	220	C	07/13/2021	10:44	-136.403	43.230	0	345.20	0	6.5030	0	37.8700	8	29.758	0	342.168	0	129.3	4	44.5	4	-1E+10	1	-1E+10	1	-1E+10	1	-1E+10	1	-1E+10	1	-1E+10	1
4901784	220	C	07/13/2021	10:44	-136.403	43.230	0	348.10	0	6.4720	0	37.8710	8	29.763	0	345.040	0	128.2	4	44.1	4	-1E+10	1	-1E+10	1	-1E+10	1	-1E+10	1	-1E+10	1	-1E+10	1
4901784	220	C	07/13/2021	10:44	-136.403	43.230	0	350.00	0	6.4570	0	37.8700	8	29.765	0	346.922	0	127.2	4	43.7	4	-1E+10	1	-1E+10	1	-1E+10	1	-1E+10	1	-1E+10	1	-1E+10	1
4901784	220	C	07/13/2021	10:44	-136.403	43.230	0	352.50	0	6.4020	0	37.8760	8	29.777	0	349.398	0	125.9	4	43.2	4	-1E+10	1	-1E+10	1	-1E+10	1	-1E+10	1	-1E+10	1	-1E+10	1
4901784	220	C	07/13/2021	10:44	-136.403	43.230	0	355.40	0	6.3900	0	37.8770	8	29.779	0	352.270	0	124.5	4	42.7	4	-1E+10	1	-1E+10	1	-1E+10	1	-1E+10	1	-1E+10	1	-1E+10	1
4901784	220	C	07/13/2021	10:44	-136.403	43.230	0	357.90	0	6.3610	0	37.8780	8	29.784	0	354.746	0	123.2	4	42.3	4	-1E+10	1	-1E+10	1	-1E+10	1	-1E+10	1	-1E+10	1	-1E+10	1
4901784	220	C	07/13/2021	10:44	-136.403	43.230	0	360.40	0	6.3140	0	37.8780	8	29.791	0	357.221	0	121.9	4	41.8	4	-1E+10	1	-1E+10	1	-1E+10	1	-1E+10	1	-1E+10	1	-1E+10	1
4901784	220	C	07/13/2021	10:44	-136.403	43.230	0	362.80	0	6.2360	0	37.8810	8	29.804	0	359.598	0	120.5	4	41.2	4	-1E+10	1	-1E+10	1	-1E+10	1	-1E+10	1	-1E+10	1	-1E+10	1
4901784	220	C	07/13/2021	10:44	-136.403	43.230	0	365.30	0	6.1990	0	37.8840	8	29.811	0	362.074	0	119.6	4	40.9	4	-1E+10	1	-1E+10	1	-1E+10	1	-1E+10	1	-1E+10	1	-1E+10	1
4901784	220	C	07/13/2021	10:44	-136.403	43.230	0	367.80	0	6.1800	0	37.8840	8	29.814	0	364.550	0	118.7	4	40.5	4	-1E+10	1	-1E+10	1	-1E+10	1	-1E+10	1	-1E+10	1	-1E+10	1
4901784	220	C	07/13/2021	10:44	-136.403	43.230	0	370.30	0	6.1520	0	37.8860	8	29.820	0	367.025	0	117.7	4	40.2	4	-1E+10	1	-1E+10	1	-1E+10	1	-1E+10	1	-1E+10	1	-1E+10	1
4901784	220	C	07/13/2021	10:44	-136.403	43.230	0	372.80	0	6.1320	0	37.8860	8	29.822	0	369.501	0	116.7	4	39.8	4	-1E+10	1	-1E+10	1	-1E+10	1	-1E+10	1	-1E+10	1	-1E+10	1
4901784	220	C	07/13/2021	10:44	-136.403	43.230	0	375.30	0	6.1030	0	37.8870	8	29.827	0	371.977	0	115.3	4	39.3	4	-1E+10	1	-1E+10	1	-1E+10	1	-1E+10	1	-1E+10	1	-1E+10	1
4901784	220	C	07/13/2021	10:44	-136.403	43.230	0	377.90	0	6.0690	0	37.8890	8	29.833	0	374.551	0	114.1	4	38.9	4	-1E+10	1	-1E+10	1	-1E+10	1	-1E+10	1	-1E+10	1	-1E+10	1
4901784	220	C	07/13/2021	10:44	-136.403	43.230	0	379.60	0	6.0320	0	37.8930	8	29.842	0	376.235	0	113.1	4	38.5	4	-1E+10	1	-1E+10	1	-1E+10	1	-1E+10	1	-1E+10	1	-1E+10	1
4901784	220	C	07/13/2021	10:44	-136.403	43.230	0	382.10	0	6.0120	0	37.8940	8	29.845	0	378.710	0	112.2	4	38.2	4	-1E+10	1	-1E+10	1	-1E+10	1	-1E+10	1	-1E+10	1	-1E+10	1
4901784	220	C	07/13/2021	10:44	-136.403	43.230	0	384.60	0	6.0100	0	37.8920	8	29.844	0	381.186	0	111.2	4	37.9	4	-1E+10	1	-1E+10	1	-1E+10	1	-1E+10	1	-1E+10	1	-1E+10	1
4901784	220	C	07/13/2021	10:44	-136.403	43.230	0	387.20	0	5.9670	0	37.8930	8	29.850	0	383.760	0	110.2	4	37.5	4	-1E+10	1	-1E+10	1	-1E+10	1	-1E+10	1	-1E+10	1	-1E+10	1
4901784	220	C	07/13/2021	10:44	-136.403	43.230	0	389.80	0	5.9020	0	37.8970	8	29.862	0	386.335	0	109.3	4	37.1	4	-1E+10	1	-1E+10	1	-1E+10	1	-1E+10	1	-1E+10	1	-1E+10	1
4901784	220	C	07/13/2021	10:44	-136.403	43.230	0	392.30	0	5.8670	0	37.8990	8	29.869	0	388.810	0	108.3	4	36.8	4	-1E+10	1	-1E+10	1	-1E+10	1	-1E+10	1	-1E+10	1	-1E+10	1
4901784	220	C	07/13/2021	10:44	-136.403	43.230	0	394.90	0	5.8430	0	37.9000	8	29.873	0	391.385	0	106.9	4	36.2	4	-1E+10	1	-1E+10	1	-1E+10	1	-1E+10	1	-1E+10	1	-1E+10	1
4901784	220	C	07/13/2021	10:44	-136.403	43.230	0	397.50	0	5.7960	0	37.9040	8	29.882	0	393.959	0	105.5	4	35.7	4	-1E+10	1	-1E+10	1	-1E+10	1	-1E+10	1	-1E+10	1	-1E+10	1
4901784	220	C	07/13/2021	10:44	-136.403	43.230	0	400.00	0	5.7690	0	37.9050	8	29.886	0	396.434	0	104.3	4	35.3	4	-1E+10	1	-1E+10	1	-1E+10	1	-1E+10	1	-1E+10	1	-1E+10	1
4901784	220	C	07/13/2021	10:44	-136.403	43.230	0	402.60	0	5.7370	0	37.9070	8	29.892	0	399.009	0	103.4	4	35.0	4	-1E+10	1	-1E+10	1	-1E+10	1	-1E+10	1	-1E+10	1	-1E+10	1
4901784	220	C	07/13/2021	10:44	-136.403	43.230	0	405.20	0	5.7020	0	37.9080	8	29.898	0	401.583	0	102.5	4	34.7	4	-1E+10	1	-1E+10	1	-1E+10	1	-1E+10	1	-1E+10	1	-1E+10	1
4901784	220	C	07/13/2021	10:44	-136.403	43.230	0	407.70	0	5.6650	0	37.9120	8	29.906	0	404.058	0	101.9	4	34.4	4	-1E+10	1	-1E+10	1	-1E+10	1	-1E+10	1	-1E+10	1	-1E+10	1
4901784	220	C	07/13/2021	10:44	-136.403	43.230	0	410.30	0	5.6330	0	37.9150	8	29.912	0	406.632	0	101.0	4	34.1	4	-1E+10	1	-1E+10	1	-1E+10	1	-1E+10	1	-1E+10	1	-1E+10	1
4901784	220	C	07/13/2021	10:44	-136.403	43.230	0	412.90	0	5.6130	0	37.9170	8	29.917	0	409.207	0	100.2	4	33.8	4	-1E+10	1	-1E+10	1	-1E+10	1	-1E+10	1	-1E+10	1	-1E+10	1
4901784	220	C	07/13/2021	10:44	-136.403	43.230	0	415.40	0	5.5970	0	37.9190	8	29.920	0	411.682	0	99.2	4	33.5	4	-1E+10	1	-1E+10	1	-1E+10	1	-1E+10	1	-1E+10	1	-1E+10	1
4901784	220	C	07/13/2021	10:44	-136.403	43.230	0	417.10	0	5.5880	0	37.9190	8	29.921	0	413.365	0	98.5	4	33.2	4	-1E+10	1	-1E+10	1	-1E+10	1	-1E+10	1	-1E+10	1	-1E+10	1
4901784	220	C	07/13/2021	10:44	-136.403	43.230	0	419.70	0	5.5620	0	37.9210	8	29.926	0	415.939	0	97.5	4	32.8	4	-1E+10	1	-1E+10	1	-1E+10	1	-1E+10	1	-1E+10	1	-1E+10	1
4901784	220	C	07/13/2021	10:44	-136.403	43.230	0	422.30	0	5.5330	0	37.9200	8	29.929	0	418.513	0	96.3	4	32.4	4	-1E+10	1	-1E+10	1	-1E+10	1	-1E+10	1	-1E+10	1	-1E+10	1
4901784	220	C	07/13/2021	10:44	-136.403	43.230	0	424.80	0	5.4850	0	37.9230	8	29.938	0	420.988	0	94.8	4	31.9	4	-1E+10	1	-1E+10	1	-1E+10	1	-1E+10	1	-1E+10	1	-1E+10	1
4901784	220	C	07/13/2021	10:44	-136.403	43.230	0	427.40	0	5.4520	0	37.9290	8	29.947	0	423.562	0	93.5	4	31.4	4	-1E+10	1	-1E+10	1	-1E+10	1	-1E+10	1	-1E+10	1	-1E+10	1
4901784	220	C	07/13/2021	10:44	-136.403	43.230	0	429.90	0	5.4270	0	37.9330	8	29.954	0	426.037	0	92.4	4	31.0	4	-1E+10	1	-1E+10	1	-1E+10	1	-1E+10	1	-1E+10	1	-1E+10	1
4901784	220	C	07/13/2021	10:44	-136.403	43.230	0	432.40	0	5.3880	0	37.9360	8	29.961	0	428.512	0	91.4	4	30.7	4	-1E+10	1	-1E+10	1	-1E+10	1	-1E+10	1	-1E+10	1	-1E+10	1
4901784	220	C	07/13/2021	10:44	-136.403	43.230	0	435.00	0	5.3890	0	37.9380	8	29.962	0	431.086	0	90.2	4	30.3	4	-1E+10	1	-1E+10	1	-1E+10	1	-1E+10	1	-1E+10	1	-1E+10	1
4901784	220	C	07/13/2021	10:44	-136.403	43.230	0	437.50	0	5.3820	0	37.9410	8	29.966	0	433.561	0	89.1	4	29.9	4	-1E+10	1	-1E+10	1	-1E+10	1	-1E+10	1	-1E+10	1	-1E+10	1
4901784	220	C	07/13/2021	10:44	-136.403	43.230	0	440.10	0	5.3580	0	37.9440	8	29.971	0	436.135	0	88.1	4	29.5	4	-1E+10	1	-1E+10	1	-1E+10	1	-1E+10	1	-1E+10	1	-1E+10	1
4901784	220	C	07/13/2021	10:44	-136.403	43.230	0	442.60	0	5.3300	0	37.9460	8	29.976	0	438.610	0	87.1	4	29.2	4	-1E+10	1	-1E+10	1	-1E+10	1	-1E+10	1	-1E+10	1	-1E+10	1
4901784	220	C	07/13/2021	10:44	-136.403	43.230	0	445.20	0	5.3070	0	37.9480	8	29.981	0	441.183	0	86.0	4	28.8	4	-1E+10	1	-1E+10	1	-1E+10	1	-1E+10	1	-1E+10	1	-1E+10	1
4901784	220	C	07/13/2021	10:44	-136.403	43.230	0	447.80	0	5.2830	0	37.9490	8	29.985	0	443.757	0	85.0	4	28.5	4	-1E+10	1	-1E+10	1	-1E+10	1	-1E+10	1	-1E+10	1	-1E+10	1
4901784	220	C	07/13/2021	10:44	-136.403	43.230	0	450.30	0	5.2420	0	37.9550	8	29.995	0	446.232	0	84.1	4	28.1	4	-1E+10	1	-1E+10	1	-1E+10	1	-1E+10	1	-1E+10	1	-1E+10	1
4901784	220	C	07/13/2021	10:44	-136.403	43.230	0	453.00	0	5.2180	0	37.9550	8	29.998	0	448.905	0	83.5	4	27.9	4	-1E+10	1	-1E+10	1	-1E+10	1	-1E+10	1	-1E+10	1	-1E+10	1
4901784	220	C	07/13/2021	10:44	-136.403	43.230	0	454.70	0	5.2060	0	37.9560	8	30.000	0	450.587	0	83.0	4	27.7	4	-1E+10	1	-1E+10	1	-1E+10	1	-1E+10	1	-1E+10	1	-1E+10	1
4901784	220	C	07/13/2021	10:44	-136.403	43.230	0	457.20	0	5.1750	0	37.9610	8	30.008	0	453.062	0	82.4	4	27.5	4	-1E+10	1	-1E+10	1	-1E+10	1	-1E+10	1	-1E+10	1	-1E+10	1
4901784	220	C	07/13/2021	10:44	-136.403	43.230	0	459.90	0	5.1620	0	37.9630	8	30.011	0	455.735	0	81.8	4	27.3	4	-1E+10	1	-1E+10	1	-1E+10	1	-1E+10	1	-1E+10	1	-1E+10	1
4901784	220	C	07/13/2021	10:44	-136.403	43.230	0	462.50	0	5.1540	0	37.9630	8	30.012	0	458.308	0	81.2	4	27.1	4	-1E+10	1	-1E+10	1	-1E+10	1	-1E+10	1	-1E+10	1	-1E+10	1
4901784	220	C	07/13/2021	10:44	-136.403	43.230	0	465.20	0	5.1420	0	37.9640	8	30.015	0	460.981	0	80.2	4	26.8	4	-1E+10	1	-1E+10	1	-1E+10	1	-1E+10	1	-1E+10	1	-1E+10	1
4901784	220	C	07/13/2021	10:44	-136.403	43.230	0	467.90	0	5.1240	0	37.9660	8	30.019	0	463.653	0	79.2	4	26.4	4	-1E+10	1	-1E+10	1	-1E+10	1	-1E+10	1	-1E+10	1	-1E+10	1
4901784	220	C	07/13/2021	10:44	-136.403	43.230	0	470.50	0	5.0990	0	37.9680	8	30.023	0	466.227	0	78.3	4	26.1	4	-1E+10	1	-1E+10	1	-1E+10	1	-1E+10	1	-1E+10	1	-1E+10	1
4901784	220	C	07/13/2021	10:44	-136.403	43.230	0	472.30	0	5.0740	0	37.9720	8	30.030	0	468.008	0	77.8	4	25.9	4	-1E+10	1	-1E+10	1	-1E+10	1	-1E+10	1	-1E+10	1	-1E+10	1
4901784	220	C	07/13/2021	10:44	-136.403	43.230	0	475.00	0	5.0610	0	37.9730	8	30.032	0	470.681	0	76.9	4	25.6	4	-1E+10	1	-1E+10	1	-1E+10	1	-1E+10	1	-1E+10	1	-1E+10	1
4901784	220	C	07/13/2021	10:44	-136.403	43.230	0	477.60	0	5.0360	0	37.9760	8	30.038	0	473.254	0	76.0	4	25.3	4	-1E+10	1	-1E+10	1	-1E+10	1	-1E+10	1	-1E+10	1	-1E+10	1
4901784	220	C	07/13/2021	10:44	-136.403	43.230	0	479.50	0	5.0160	0	37.9780	8	30.042	0	475.135	0	75.5	4	25.1	4	-1E+10	1	-1E+10	1	-1E+10	1	-1E+10	1	-1E+10	1	-1E+10	1
4901784	220	C	07/13/2021	10:44	-136.403	43.230	0	482.20	0	4.9910	0	37.9830	8	30.049	0	477.807	0	74.5	4	24.8	4	-1E+10	1	-1E+10	1	-1E+10	1	-1E+10	1	-1E+10	1	-1E+10	1
4901784	220	C	07/13/2021	10:44	-136.403	43.230	0	484.90	0	4.9900	0	37.9830	8	30.049	0	480.479	0	73.8	4	24.5	4	-1E+10	1	-1E+10	1	-1E+10	1	-1E+10	1	-1E+10	1	-1E+10	1
4901784	220	C	07/13/2021	10:44	-136.403	43.230	0	487.60	0	4.9490	0	37.9880	8	30.058	0	483.151	0	73.0	4	24.3	4	-1E+10	1	-1E+10	1	-1E+10	1	-1E+10	1	-1E+10	1	-1E+10	1
4901784	220	C	07/13/2021	10:44	-136.403	43.230	0	490.40	0	4.9360	0	37.9900	8	30.061	0	485.923	0	71.9	4	23.9	4	-1E+10	1	-1E+10	1	-1E+10	1	-1E+10	1	-1E+10	1	-1E+10	1
4901784	220	C	07/13/2021	10:44	-136.403	43.230	0	492.20	0	4.9260	0	37.9930	8	30.065	0	487.704	0	70.9	4	23.6	4	-1E+10	1	-1E+10	1	-1E+10	1	-1E+10	1	-1E+10	1	-1E+10	1
4901784	220	C	07/13/2021	10:44	-136.403	43.230	0	494.90	0	4.9320	0	37.9950	8	30.066	0	490.376	0	69.4	4	23.1	4	-1E+10	1	-1E+10	1	-1E+10	1	-1E+10	1	-1E+10	1	-1E+10	1
4901784	220	C	07/13/2021	10:44	-136.403	43.230	0	497.70	0	4.9170	0	37.9980	8	30.070	0	493.147	0	68.7	4	22.8	4	-1E+10	1	-1E+10	1	-1E+10	1	-1E+10	1	-1E+10	1	-1E+10	1
4901784	220	C	07/13/2021	10:44	-136.403	43.230	0	499.60	0	4.9030	0	38.0000	8	30.073	0	495.028	0	68.5	4	22.8	4	-1E+10	1	-1E+10	1	-1E+10	1	-1E+10	1	-1E+10	1	-1E+10	1
4901784	220	C	07/13/2021	10:44	-136.403	43.230	0	505.10	0	4.8730	0	38.0010	8	30.078	0	500.471	0	68.1	4	22.6	4	-1E+10	1	-1E+10	1	-1E+10	1	-1E+10	1	-1E+10	1	-1E+10	1
4901784	220	C	07/13/2021	10:44	-136.403	43.230	0	509.90	0	4.8250	0	38.0070	8	30.088	0	505.221	0	66.4	4	22.0	4	-1E+10	1	-1E+10	1	-1E+10	1	-1E+10	1	-1E+10	1	-1E+10	1
4901784	220	C	07/13/2021	10:44	-136.403	43.230	0	515.10	0	4.7980	0	38.0140	8	30.097	0	510.367	0	64.3	4	21.3	4	-1E+10	1	-1E+10	1	-1E+10	1	-1E+10	1	-1E+10	1	-1E+10	1
4901784	220	C	07/13/2021	10:44	-136.403	43.230	0	520.50	0	4.7700	0	38.0190	8	30.105	0	515.711	0	62.9	4	20.8	4	-1E+10	1	-1E+10	1	-1E+10	1	-1E+10	1	-1E+10	1	-1E+10	1
4901784	220	C	07/13/2021	10:44	-136.403	43.230	0	525.30	0	4.7580	0	38.0220	8	30.109	0	520.460	0	61.6	4	20.4	4	-1E+10	1	-1E+10	1	-1E+10	1	-1E+10	1	-1E+10	1	-1E+10	1
4901784	220	C	07/13/2021	10:44	-136.403	43.230	0	530.10	0	4.7320	0	38.0270	8	30.116	0	525.210	0	60.9	4	20.1	4	-1E+10	1	-1E+10	1	-1E+10	1	-1E+10	1	-1E+10	1	-1E+10	1
4901784	220	C	07/13/2021	10:44	-136.403	43.230	0	534.90	0	4.6880	0	38.0300	8	30.124	0	529.960	0	60.9	4	20.1	4	-1E+10	1	-1E+10	1	-1E+10	1	-1E+10	1	-1E+10	1	-1E+10	1
4901784	220	C	07/13/2021	10:44	-136.403	43.230	0	539.80	0	4.6490	0	38.0350	8	30.132	0	534.808	0	59.6	4	19.7	4	-1E+10	1	-1E+10	1	-1E+10	1	-1E+10	1	-1E+10	1	-1E+10	1
4901784	220	C	07/13/2021	10:44	-136.403	43.230	0	544.70	0	4.6290	0	38.0410	8	30.139	0	539.656	0	56.3	4	18.6	4	-1E+10	1	-1E+10	1	-1E+10	1	-1E+10	1	-1E+10	1	-1E+10	1
4901784	220	C	07/13/2021	10:44	-136.403	43.230	0	549.70	0	4.6160	0	38.0520	8	30.150	0	544.604	0	52.4	4	17.3	4	-1E+10	1	-1E+10	1	-1E+10	1	-1E+10	1	-1E+10	1	-1E+10	1
4901784	220	C	07/13/2021	10:44	-136.403	43.230	0	554.70	0	4.6050	0	38.0620	8	30.159	0	549.551	0	50.1	4	16.5	4	-1E+10	1	-1E+10	1	-1E+10	1	-1E+10	1	-1E+10	1	-1E+10	1
4901784	220	C	07/13/2021	10:44	-136.403	43.230	0	559.80	0	4.5910	0	38.0680	8	30.166	0	554.597	0	48.4	4	16.0	4	-1E+10	1	-1E+10	1	-1E+10	1	-1E+10	1	-1E+10	1	-1E+10	1
4901784	220	C	07/13/2021	10:44	-136.403	43.230	0	564.80	0	4.5720	0	38.0740	8	30.173	0	559.543	0	46.9	4	15.4	4	-1E+10	1	-1E+10	1	-1E+10	1	-1E+10	1	-1E+10	1	-1E+10	1
4901784	220	C	07/13/2021	10:44	-136.403	43.230	0	569.90	0	4.5610	0	38.0780	8	30.177	0	564.589	0	44.9	4	14.8	4	-1E+10	1	-1E+10	1	-1E+10	1	-1E+10	1	-1E+10	1	-1E+10	1
4901784	220	C	07/13/2021	10:44	-136.403	43.230	0	575.10	0	4.5190	0	38.0890	8	30.191	0	569.733	0	42.5	4	14.0	4	-1E+10	1	-1E+10	1	-1E+10	1	-1E+10	1	-1E+10	1	-1E+10	1
4901784	220	C	07/13/2021	10:44	-136.403	43.230	0	580.20	0	4.5080	0	38.0990	8	30.200	0	574.779	0	40.3	4	13.3	4	-1E+10	1	-1E+10	1	-1E+10	1	-1E+10	1	-1E+10	1	-1E+10	1
4901784	220	C	07/13/2021	10:44	-136.403	43.230	0	585.40	0	4.5050	0	38.1090	8	30.209	0	579.923	0	38.1	4	12.5	4	-1E+10	1	-1E+10	1	-1E+10	1	-1E+10	1	-1E+10	1	-1E+10	1
4901784	220	C	07/13/2021	10:44	-136.403	43.230	0	590.70	0	4.4790	0	38.1150	8	30.217	0	585.166	0	37.5	4	12.3	4	-1E+10	1	-1E+10	1	-1E+10	1	-1E+10	1	-1E+10	1	-1E+10	1
4901784	220	C	07/13/2021	10:44	-136.403	43.230	0	595.10	0	4.4550	0	38.1180	8	30.222	0	589.518	0	36.6	4	12.0	4	-1E+10	1	-1E+10	1	-1E+10	1	-1E+10	1	-1E+10	1	-1E+10	1
4901784	220	C	07/13/2021	10:44	-136.403	43.230	0	599.50	0	4.4370	0	38.1280	8	30.232	0	593.871	0	35.1	4	11.5	4	-1E+10	1	-1E+10	1	-1E+10	1	-1E+10	1	-1E+10	1	-1E+10	1
4901784	220	C	07/13/2021	10:44	-136.403	43.230	0	604.90	0	4.4190	0	38.1360	8	30.240	0	599.212	0	33.2	4	10.9	4	-1E+10	1	-1E+10	1	-1E+10	1	-1E+10	1	-1E+10	1	-1E+10	1
4901784	220	C	07/13/2021	10:44	-136.403	43.230	0	610.40	0	4.4230	0	38.1460	8	30.248	0	604.653	0	31.6	4	10.4	4	-1E+10	1	-1E+10	1	-1E+10	1	-1E+10	1	-1E+10	1	-1E+10	1
4901784	220	C	07/13/2021	10:44	-136.403	43.230	0	615.00	0	4.4080	0	38.1500	8	30.253	0	609.203	0	31.0	4	10.2	4	-1E+10	1	-1E+10	1	-1E+10	1	-1E+10	1	-1E+10	1	-1E+10	1
4901784	220	C	07/13/2021	10:44	-136.403	43.230	0	619.60	0	4.3950	0	38.1540	8	30.258	0	613.752	0	29.8	4	9.8	4	-1E+10	1	-1E+10	1	-1E+10	1	-1E+10	1	-1E+10	1	-1E+10	1
4901784	220	C	07/13/2021	10:44	-136.403	43.230	0	624.90	0	4.3930	0	38.1630	8	30.265	0	618.995	0	27.9	4	9.2	4	-1E+10	1	-1E+10	1	-1E+10	1	-1E+10	1	-1E+10	1	-1E+10	1
4901784	220	C	07/13/2021	10:44	-136.403	43.230	0	630.20	0	4.3810	0	38.1700	8	30.272	0	624.237	0	26.8	4	8.8	4	-1E+10	1	-1E+10	1	-1E+10	1	-1E+10	1	-1E+10	1	-1E+10	1
4901784	220	C	07/13/2021	10:44	-136.403	43.230	0	634.70	0	4.3710	0	38.1750	8	30.277	0	628.687	0	26.0	4	8.5	4	-1E+10	1	-1E+10	1	-1E+10	1	-1E+10	1	-1E+10	1	-1E+10	1
4901784	220	C	07/13/2021	10:44	-136.403	43.230	0	639.30	0	4.3550	0	38.1800	8	30.283	0	633.237	0	25.3	4	8.3	4	-1E+10	1	-1E+10	1	-1E+10	1	-1E+10	1	-1E+10	1	-1E+10	1
4901784	220	C	07/13/2021	10:44	-136.403	43.230	0	644.80	0	4.3350	0	38.1870	8	30.291	0	638.676	0	24.3	4	8.0	4	-1E+10	1	-1E+10	1	-1E+10	1	-1E+10	1	-1E+10	1	-1E+10	1
4901784	220	C	07/13/2021	10:44	-136.403	43.230	0	650.40	0	4.3170	0	38.1950	8	30.300	0	644.214	0	23.3	4	7.6	4	-1E+10	1	-1E+10	1	-1E+10	1	-1E+10	1	-1E+10	1	-1E+10	1
4901784	220	C	07/13/2021	10:44	-136.403	43.230	0	655.00	0	4.2920	0	38.2040	8	30.310	0	648.763	0	22.8	4	7.5	4	-1E+10	1	-1E+10	1	-1E+10	1	-1E+10	1	-1E+10	1	-1E+10	1
4901784	220	C	07/13/2021	10:44	-136.403	43.230	0	659.50	0	4.2740	0	38.2070	8	30.314	0	653.213	0	22.6	4	7.4	4	-1E+10	1	-1E+10	1	-1E+10	1	-1E+10	1	-1E+10	1	-1E+10	1
4901784	220	C	07/13/2021	10:44	-136.403	43.230	0	665.10	0	4.2700	0	38.2120	8	30.319	0	658.751	0	22.2	4	7.3	4	-1E+10	1	-1E+10	1	-1E+10	1	-1E+10	1	-1E+10	1	-1E+10	1
4901784	220	C	07/13/2021	10:44	-136.403	43.230	0	670.60	0	4.2510	0	38.2130	8	30.322	0	664.190	0	22.0	4	7.2	4	-1E+10	1	-1E+10	1	-1E+10	1	-1E+10	1	-1E+10	1	-1E+10	1
4901784	220	C	07/13/2021	10:44	-136.403	43.230	0	675.20	0	4.2450	0	38.2170	8	30.326	0	668.739	0	21.5	4	7.0	4	-1E+10	1	-1E+10	1	-1E+10	1	-1E+10	1	-1E+10	1	-1E+10	1
4901784	220	C	07/13/2021	10:44	-136.403	43.230	0	679.90	0	4.2300	0	38.2210	8	30.331	0	673.386	0	21.0	4	6.9	4	-1E+10	1	-1E+10	1	-1E+10	1	-1E+10	1	-1E+10	1	-1E+10	1
4901784	220	C	07/13/2021	10:44	-136.403	43.230	0	685.60	0	4.2190	0	38.2270	8	30.337	0	679.022	0	20.3	4	6.7	4	-1E+10	1	-1E+10	1	-1E+10	1	-1E+10	1	-1E+10	1	-1E+10	1
4901784	220	C	07/13/2021	10:44	-136.403	43.230	0	690.30	0	4.2100	0	38.2310	8	30.341	0	683.669	0	19.7	4	6.4	4	-1E+10	1	-1E+10	1	-1E+10	1	-1E+10	1	-1E+10	1	-1E+10	1
4901784	220	C	07/13/2021	10:44	-136.403	43.230	0	694.90	0	4.1850	0	38.2400	8	30.351	0	688.218	0	18.9	4	6.2	4	-1E+10	1	-1E+10	1	-1E+10	1	-1E+10	1	-1E+10	1	-1E+10	1
4901784	220	C	07/13/2021	10:44	-136.403	43.230	0	700.50	0	4.1680	0	38.2490	8	30.360	0	693.754	0	18.2	4	5.9	4	-1E+10	1	-1E+10	1	-1E+10	1	-1E+10	1	-1E+10	1	-1E+10	1
4901784	220	C	07/13/2021	10:44	-136.403	43.230	0	705.10	0	4.1650	0	38.2550	8	30.366	0	698.302	0	17.6	4	5.7	4	-1E+10	1	-1E+10	1	-1E+10	1	-1E+10	1	-1E+10	1	-1E+10	1
4901784	220	C	07/13/2021	10:44	-136.403	43.230	0	709.80	0	4.1620	0	38.2600	8	30.370	0	702.949	0	17.0	4	5.6	4	-1E+10	1	-1E+10	1	-1E+10	1	-1E+10	1	-1E+10	1	-1E+10	1
4901784	220	C	07/13/2021	10:44	-136.403	43.230	0	715.50	0	4.1610	0	38.2680	8	30.377	0	708.584	0	16.3	4	5.3	4	-1E+10	1	-1E+10	1	-1E+10	1	-1E+10	1	-1E+10	1	-1E+10	1
4901784	220	C	07/13/2021	10:44	-136.403	43.230	0	720.90	0	4.1550	0	38.2740	8	30.382	0	713.923	0	15.9	4	5.2	4	-1E+10	1	-1E+10	1	-1E+10	1	-1E+10	1	-1E+10	1	-1E+10	1
4901784	220	C	07/13/2021	10:44	-136.403	43.230	0	725.40	0	4.1490	0	38.2800	8	30.388	0	718.372	0	15.5	4	5.1	4	-1E+10	1	-1E+10	1	-1E+10	1	-1E+10	1	-1E+10	1	-1E+10	1
4901784	220	C	07/13/2021	10:44	-136.403	43.230	0	730.20	0	4.1440	0	38.2850	8	30.392	0	723.117	0	15.1	4	4.9	4	-1E+10	1	-1E+10	1	-1E+10	1	-1E+10	1	-1E+10	1	-1E+10	1
4901784	220	C	07/13/2021	10:44	-136.403	43.230	0	734.90	0	4.1430	0	38.2890	8	30.396	0	727.763	0	14.8	4	4.8	4	-1E+10	1	-1E+10	1	-1E+10	1	-1E+10	1	-1E+10	1	-1E+10	1
4901784	220	C	07/13/2021	10:44	-136.403	43.230	0	739.80	0	4.1340	0	38.2930	8	30.400	0	732.607	0	14.5	4	4.7	4	-1E+10	1	-1E+10	1	-1E+10	1	-1E+10	1	-1E+10	1	-1E+10	1
4901784	220	C	07/13/2021	10:44	-136.403	43.230	0	744.70	0	4.1260	0	38.3000	8	30.406	0	737.451	0	14.1	4	4.6	4	-1E+10	1	-1E+10	1	-1E+10	1	-1E+10	1	-1E+10	1	-1E+10	1
4901784	220	C	07/13/2021	10:44	-136.403	43.230	0	749.60	0	4.1190	0	38.3060	8	30.412	0	742.294	0	13.8	4	4.5	4	-1E+10	1	-1E+10	1	-1E+10	1	-1E+10	1	-1E+10	1	-1E+10	1
4901784	220	C	07/13/2021	10:44	-136.403	43.230	0	754.50	0	4.1080	0	38.3110	8	30.417	0	747.138	0	13.5	4	4.4	4	-1E+10	1	-1E+10	1	-1E+10	1	-1E+10	1	-1E+10	1	-1E+10	1
4901784	220	C	07/13/2021	10:44	-136.403	43.230	0	759.50	0	4.1000	0	38.3160	8	30.422	0	752.080	0	13.3	4	4.3	4	-1E+10	1	-1E+10	1	-1E+10	1	-1E+10	1	-1E+10	1	-1E+10	1
4901784	220	C	07/13/2021	10:44	-136.403	43.230	0	764.40	0	4.0760	0	38.3220	8	30.430	0	756.923	0	13.1	4	4.3	4	-1E+10	1	-1E+10	1	-1E+10	1	-1E+10	1	-1E+10	1	-1E+10	1
4901784	220	C	07/13/2021	10:44	-136.403	43.230	0	769.50	0	4.0520	0	38.3250	8	30.435	0	761.964	0	13.0	4	4.2	4	-1E+10	1	-1E+10	1	-1E+10	1	-1E+10	1	-1E+10	1	-1E+10	1
4901784	220	C	07/13/2021	10:44	-136.403	43.230	0	774.60	0	4.0290	0	38.3320	8	30.443	0	767.005	0	12.7	4	4.1	4	-1E+10	1	-1E+10	1	-1E+10	1	-1E+10	1	-1E+10	1	-1E+10	1
4901784	220	C	07/13/2021	10:44	-136.403	43.230	0	779.70	0	4.0160	0	38.3390	8	30.450	0	772.045	0	12.4	4	4.0	4	-1E+10	1	-1E+10	1	-1E+10	1	-1E+10	1	-1E+10	1	-1E+10	1
4901784	220	C	07/13/2021	10:44	-136.403	43.230	0	784.80	0	4.0010	0	38.3460	8	30.458	0	777.086	0	12.2	4	4.0	4	-1E+10	1	-1E+10	1	-1E+10	1	-1E+10	1	-1E+10	1	-1E+10	1
4901784	220	C	07/13/2021	10:44	-136.403	43.230	0	790.10	0	3.9980	0	38.3500	8	30.461	0	782.324	0	12.0	4	3.9	4	-1E+10	1	-1E+10	1	-1E+10	1	-1E+10	1	-1E+10	1	-1E+10	1
4901784	220	C	07/13/2021	10:44	-136.403	43.230	0	795.20	0	3.9840	0	38.3550	8	30.467	0	787.364	0	11.8	4	3.8	4	-1E+10	1	-1E+10	1	-1E+10	1	-1E+10	1	-1E+10	1	-1E+10	1
4901784	220	C	07/13/2021	10:44	-136.403	43.230	0	800.50	0	3.9770	0	38.3610	8	30.472	0	792.602	0	11.6	4	3.8	4	-1E+10	1	-1E+10	1	-1E+10	1	-1E+10	1	-1E+10	1	-1E+10	1
4901784	220	C	07/13/2021	10:44	-136.403	43.230	0	805.00	0	3.9760	0	38.3630	8	30.474	0	797.049	0	11.5	4	3.7	4	-1E+10	1	-1E+10	1	-1E+10	1	-1E+10	1	-1E+10	1	-1E+10	1
4901784	220	C	07/13/2021	10:44	-136.403	43.230	0	809.50	0	3.9580	0	38.3680	8	30.480	0	801.495	0	11.4	4	3.7	4	-1E+10	1	-1E+10	1	-1E+10	1	-1E+10	1	-1E+10	1	-1E+10	1
4901784	220	C	07/13/2021	10:44	-136.403	43.230	0	814.80	0	3.9540	0	38.3720	8	30.484	0	806.733	0	11.3	4	3.7	4	-1E+10	1	-1E+10	1	-1E+10	1	-1E+10	1	-1E+10	1	-1E+10	1
4901784	220	C	07/13/2021	10:44	-136.403	43.230	0	820.30	0	3.9410	0	38.3770	8	30.489	0	812.168	0	11.1	4	3.6	4	-1E+10	1	-1E+10	1	-1E+10	1	-1E+10	1	-1E+10	1	-1E+10	1
4901784	220	C	07/13/2021	10:44	-136.403	43.230	0	824.80	0	3.9300	0	38.3820	8	30.495	0	816.614	0	11.0	4	3.6	4	-1E+10	1	-1E+10	1	-1E+10	1	-1E+10	1	-1E+10	1	-1E+10	1
4901784	220	C	07/13/2021	10:44	-136.403	43.230	0	829.30	0	3.9170	0	38.3860	8	30.499	0	821.061	0	10.9	4	3.5	4	-1E+10	1	-1E+10	1	-1E+10	1	-1E+10	1	-1E+10	1	-1E+10	1
4901784	220	C	07/13/2021	10:44	-136.403	43.230	0	834.70	0	3.9050	0	38.3900	8	30.504	0	826.397	0	10.8	4	3.5	4	-1E+10	1	-1E+10	1	-1E+10	1	-1E+10	1	-1E+10	1	-1E+10	1
4901784	220	C	07/13/2021	10:44	-136.403	43.230	0	840.10	0	3.9020	0	38.3940	8	30.507	0	831.732	0	10.7	4	3.5	4	-1E+10	1	-1E+10	1	-1E+10	1	-1E+10	1	-1E+10	1	-1E+10	1
4901784	220	C	07/13/2021	10:44	-136.403	43.230	0	845.60	0	3.8770	0	38.3990	8	30.514	0	837.166	0	10.6	4	3.4	4	-1E+10	1	-1E+10	1	-1E+10	1	-1E+10	1	-1E+10	1	-1E+10	1
4901784	220	C	07/13/2021	10:44	-136.403	43.230	0	850.20	0	3.8680	0	38.4050	8	30.520	0	841.711	0	10.5	4	3.4	4	-1E+10	1	-1E+10	1	-1E+10	1	-1E+10	1	-1E+10	1	-1E+10	1
4901784	220	C	07/13/2021	10:44	-136.403	43.230	0	854.70	0	3.8690	0	38.4080	8	30.522	0	846.157	0	10.4	4	3.4	4	-1E+10	1	-1E+10	1	-1E+10	1	-1E+10	1	-1E+10	1	-1E+10	1
4901784	220	C	07/13/2021	10:44	-136.403	43.230	0	860.20	0	3.8650	0	38.4110	8	30.525	0	851.591	0	10.4	4	3.4	4	-1E+10	1	-1E+10	1	-1E+10	1	-1E+10	1	-1E+10	1	-1E+10	1
4901784	220	C	07/13/2021	10:44	-136.403	43.230	0	864.90	0	3.8600	0	38.4150	8	30.529	0	856.234	0	10.3	4	3.3	4	-1E+10	1	-1E+10	1	-1E+10	1	-1E+10	1	-1E+10	1	-1E+10	1
4901784	220	C	07/13/2021	10:44	-136.403	43.230	0	869.50	0	3.8460	0	38.4180	8	30.533	0	860.779	0	10.3	4	3.3	4	-1E+10	1	-1E+10	1	-1E+10	1	-1E+10	1	-1E+10	1	-1E+10	1
4901784	220	C	07/13/2021	10:44	-136.403	43.230	0	874.70	0	3.8400	0	38.4230	8	30.538	0	865.916	0	10.2	4	3.3	4	-1E+10	1	-1E+10	1	-1E+10	1	-1E+10	1	-1E+10	1	-1E+10	1
4901784	220	C	07/13/2021	10:44	-136.403	43.230	0	879.50	0	3.8250	0	38.4270	8	30.543	0	870.658	0	10.1	4	3.3	4	-1E+10	1	-1E+10	1	-1E+10	1	-1E+10	1	-1E+10	1	-1E+10	1
4901784	220	C	07/13/2021	10:44	-136.403	43.230	0	884.40	0	3.8070	0	38.4320	8	30.549	0	875.498	0	10.1	4	3.3	4	-1E+10	1	-1E+10	1	-1E+10	1	-1E+10	1	-1E+10	1	-1E+10	1
4901784	220	C	07/13/2021	10:44	-136.403	43.230	0	889.30	0	3.7950	0	38.4370	8	30.554	0	880.338	0	10.1	4	3.3	4	-1E+10	1	-1E+10	1	-1E+10	1	-1E+10	1	-1E+10	1	-1E+10	1
4901784	220	C	07/13/2021	10:44	-136.403	43.230	0	895.00	0	3.7860	0	38.4390	8	30.557	0	885.969	0	10.0	4	3.3	4	-1E+10	1	-1E+10	1	-1E+10	1	-1E+10	1	-1E+10	1	-1E+10	1
4901784	220	C	07/13/2021	10:44	-136.403	43.230	0	900.80	0	3.7580	0	38.4440	8	30.564	0	891.698	0	10.0	4	3.2	4	-1E+10	1	-1E+10	1	-1E+10	1	-1E+10	1	-1E+10	1	-1E+10	1
4901784	220	C	07/13/2021	10:44	-136.403	43.230	0	905.80	0	3.7480	0	38.4470	8	30.567	0	896.637	0	10.0	4	3.2	4	-1E+10	1	-1E+10	1	-1E+10	1	-1E+10	1	-1E+10	1	-1E+10	1
4901784	220	C	07/13/2021	10:44	-136.403	43.230	0	910.00	0	3.7430	0	38.4500	8	30.570	0	900.785	0	9.9	4	3.2	4	-1E+10	1	-1E+10	1	-1E+10	1	-1E+10	1	-1E+10	1	-1E+10	1
4901784	220	C	07/13/2021	10:44	-136.403	43.230	0	914.20	0	3.7460	0	38.4570	8	30.576	0	904.934	0	9.9	4	3.2	4	-1E+10	1	-1E+10	1	-1E+10	1	-1E+10	1	-1E+10	1	-1E+10	1
4901784	220	C	07/13/2021	10:44	-136.403	43.230	0	919.30	0	3.7350	0	38.4610	8	30.580	0	909.971	0	9.9	4	3.2	4	-1E+10	1	-1E+10	1	-1E+10	1	-1E+10	1	-1E+10	1	-1E+10	1
4901784	220	C	07/13/2021	10:44	-136.403	43.230	0	924.40	0	3.7150	0	38.4640	8	30.585	0	915.008	0	9.8	4	3.2	4	-1E+10	1	-1E+10	1	-1E+10	1	-1E+10	1	-1E+10	1	-1E+10	1
4901784	220	C	07/13/2021	10:44	-136.403	43.230	0	929.60	0	3.7090	0	38.4680	8	30.589	0	920.144	0	9.8	4	3.2	4	-1E+10	1	-1E+10	1	-1E+10	1	-1E+10	1	-1E+10	1	-1E+10	1
4901784	220	C	07/13/2021	10:44	-136.403	43.230	0	934.70	0	3.6820	0	38.4700	8	30.593	0	925.181	0	9.8	4	3.2	4	-1E+10	1	-1E+10	1	-1E+10	1	-1E+10	1	-1E+10	1	-1E+10	1
4901784	220	C	07/13/2021	10:44	-136.403	43.230	0	939.90	0	3.6560	0	38.4740	8	30.599	0	930.316	0	9.8	4	3.2	4	-1E+10	1	-1E+10	1	-1E+10	1	-1E+10	1	-1E+10	1	-1E+10	1
4901784	220	C	07/13/2021	10:44	-136.403	43.230	0	945.10	0	3.6650	0	38.4780	8	30.602	0	935.451	0	9.8	4	3.2	4	-1E+10	1	-1E+10	1	-1E+10	1	-1E+10	1	-1E+10	1	-1E+10	1
4901784	220	C	07/13/2021	10:44	-136.403	43.230	0	950.20	0	3.6570	0	38.4800	8	30.604	0	940.488	0	9.8	4	3.2	4	-1E+10	1	-1E+10	1	-1E+10	1	-1E+10	1	-1E+10	1	-1E+10	1
4901784	220	C	07/13/2021	10:44	-136.403	43.230	0	955.40	0	3.6420	0	38.4830	8	30.608	0	945.623	0	9.9	4	3.2	4	-1E+10	1	-1E+10	1	-1E+10	1	-1E+10	1	-1E+10	1	-1E+10	1
4901784	220	C	07/13/2021	10:44	-136.403	43.230	0	960.70	0	3.6270	0	38.4900	8	30.615	0	950.857	0	9.9	4	3.2	4	-1E+10	1	-1E+10	1	-1E+10	1	-1E+10	1	-1E+10	1	-1E+10	1
4901784	220	C	07/13/2021	10:44	-136.403	43.230	0	965.20	0	3.6090	0	38.4940	8	30.621	0	955.300	0	9.9	4	3.2	4	-1E+10	1	-1E+10	1	-1E+10	1	-1E+10	1	-1E+10	1	-1E+10	1
4901784	220	C	07/13/2021	10:44	-136.403	43.230	0	969.60	0	3.6120	0	38.4980	8	30.624	0	959.645	0	9.9	4	3.2	4	-1E+10	1	-1E+10	1	-1E+10	1	-1E+10	1	-1E+10	1	-1E+10	1
4901784	220	C	07/13/2021	10:44	-136.403	43.230	0	975.00	0	3.6140	0	38.4990	8	30.624	0	964.977	0	9.9	4	3.2	4	-1E+10	1	-1E+10	1	-1E+10	1	-1E+10	1	-1E+10	1	-1E+10	1
4901784	220	C	07/13/2021	10:44	-136.403	43.230	0	980.40	0	3.5820	0	38.5020	8	30.630	0	970.309	0	9.9	4	3.2	4	-1E+10	1	-1E+10	1	-1E+10	1	-1E+10	1	-1E+10	1	-1E+10	1
4901784	220	C	07/13/2021	10:44	-136.403	43.230	0	985.70	0	3.5790	0	38.5070	8	30.634	0	975.542	0	10.0	4	3.2	4	-1E+10	1	-1E+10	1	-1E+10	1	-1E+10	1	-1E+10	1	-1E+10	1
4901784	220	C	07/13/2021	10:44	-136.403	43.230	0	990.20	0	3.5740	0	38.5100	8	30.637	0	979.986	0	10.0	4	3.2	4	-1E+10	1	-1E+10	1	-1E+10	1	-1E+10	1	-1E+10	1	-1E+10	1
4901784	220	C	07/13/2021	10:44	-136.403	43.230	0	994.70	0	3.5730	0	38.5130	8	30.640	0	984.429	0	10.1	4	3.2	4	-1E+10	1	-1E+10	1	-1E+10	1	-1E+10	1	-1E+10	1	-1E+10	1
4901784	220	C	07/13/2021	10:44	-136.403	43.230	0	1000.20	0	3.5640	0	38.5160	8	30.643	0	989.859	0	10.1	4	3.3	4	-1E+10	1	-1E+10	1	-1E+10	1	-1E+10	1	-1E+10	1	-1E+10	1
4901784	220	C	07/13/2021	10:44	-136.403	43.230	0	1005.70	0	3.5530	0	38.5200	8	30.648	0	995.289	0	10.1	4	3.3	4	-1E+10	1	-1E+10	1	-1E+10	1	-1E+10	1	-1E+10	1	-1E+10	1
4901784	220	C	07/13/2021	10:44	-136.403	43.230	0	1010.20	0	3.5460	0	38.5220	8	30.650	0	999.732	0	10.2	4	3.3	4	-1E+10	1	-1E+10	1	-1E+10	1	-1E+10	1	-1E+10	1	-1E+10	1
4901784	220	C	07/13/2021	10:44	-136.403	43.230	0	1014.60	0	3.5310	0	38.5260	8	30.655	0	1004.075	0	10.2	4	3.3	4	-1E+10	1	-1E+10	1	-1E+10	1	-1E+10	1	-1E+10	1	-1E+10	1
4901784	220	C	07/13/2021	10:44	-136.403	43.230	0	1020.00	0	3.5230	0	38.5280	8	30.658	0	1009.406	0	10.3	4	3.3	4	-1E+10	1	-1E+10	1	-1E+10	1	-1E+10	1	-1E+10	1	-1E+10	1
4901784	220	C	07/13/2021	10:44	-136.403	43.230	0	1025.50	0	3.5120	0	38.5320	8	30.662	0	1014.836	0	10.3	4	3.3	4	-1E+10	1	-1E+10	1	-1E+10	1	-1E+10	1	-1E+10	1	-1E+10	1
4901784	220	C	07/13/2021	10:44	-136.403	43.230	0	1030.20	0	3.5030	0	38.5340	8	30.665	0	1019.476	0	10.3	4	3.3	4	-1E+10	1	-1E+10	1	-1E+10	1	-1E+10	1	-1E+10	1	-1E+10	1
4901784	220	C	07/13/2021	10:44	-136.403	43.230	0	1034.80	0	3.5020	0	38.5360	8	30.666	0	1024.017	0	10.4	4	3.3	4	-1E+10	1	-1E+10	1	-1E+10	1	-1E+10	1	-1E+10	1	-1E+10	1
4901784	220	C	07/13/2021	10:44	-136.403	43.230	0	1040.40	0	3.4910	0	38.5380	8	30.669	0	1029.545	0	10.4	4	3.3	4	-1E+10	1	-1E+10	1	-1E+10	1	-1E+10	1	-1E+10	1	-1E+10	1
4901784	220	C	07/13/2021	10:44	-136.403	43.230	0	1045.00	0	3.4800	0	38.5400	8	30.672	0	1034.085	0	10.4	4	3.4	4	-1E+10	1	-1E+10	1	-1E+10	1	-1E+10	1	-1E+10	1	-1E+10	1
4901784	220	C	07/13/2021	10:44	-136.403	43.230	0	1049.70	0	3.4710	0	38.5420	8	30.675	0	1038.724	0	10.5	4	3.4	4	-1E+10	1	-1E+10	1	-1E+10	1	-1E+10	1	-1E+10	1	-1E+10	1
4901784	220	C	07/13/2021	10:44	-136.403	43.230	0	1055.30	0	3.4530	0	38.5460	8	30.680	0	1044.252	0	10.6	4	3.4	4	-1E+10	1	-1E+10	1	-1E+10	1	-1E+10	1	-1E+10	1	-1E+10	1
4901784	220	C	07/13/2021	10:44	-136.403	43.230	0	1059.90	0	3.4370	0	38.5510	8	30.685	0	1048.792	0	10.6	4	3.4	4	-1E+10	1	-1E+10	1	-1E+10	1	-1E+10	1	-1E+10	1	-1E+10	1
4901784	220	C	07/13/2021	10:44	-136.403	43.230	0	1064.60	0	3.4240	0	38.5530	8	30.688	0	1053.431	0	10.7	4	3.4	4	-1E+10	1	-1E+10	1	-1E+10	1	-1E+10	1	-1E+10	1	-1E+10	1
4901784	220	C	07/13/2021	10:44	-136.403	43.230	0	1070.10	0	3.4080	0	38.5570	8	30.693	0	1058.860	0	10.7	4	3.5	4	-1E+10	1	-1E+10	1	-1E+10	1	-1E+10	1	-1E+10	1	-1E+10	1
4901784	220	C	07/13/2021	10:44	-136.403	43.230	0	1075.60	0	3.3960	0	38.5590	8	30.696	0	1064.288	0	10.8	4	3.5	4	-1E+10	1	-1E+10	1	-1E+10	1	-1E+10	1	-1E+10	1	-1E+10	1
4901784	220	C	07/13/2021	10:44	-136.403	43.230	0	1080.40	0	3.3830	0	38.5620	8	30.700	0	1069.025	0	10.8	4	3.5	4	-1E+10	1	-1E+10	1	-1E+10	1	-1E+10	1	-1E+10	1	-1E+10	1
4901784	220	C	07/13/2021	10:44	-136.403	43.230	0	1084.90	0	3.3740	0	38.5640	8	30.703	0	1073.466	0	10.9	4	3.5	4	-1E+10	1	-1E+10	1	-1E+10	1	-1E+10	1	-1E+10	1	-1E+10	1
4901784	220	C	07/13/2021	10:44	-136.403	43.230	0	1089.80	0	3.3680	0	38.5660	8	30.705	0	1078.302	0	10.9	4	3.5	4	-1E+10	1	-1E+10	1	-1E+10	1	-1E+10	1	-1E+10	1	-1E+10	1
4901784	220	C	07/13/2021	10:44	-136.403	43.230	0	1094.70	0	3.3590	0	38.5690	8	30.708	0	1083.138	0	11.0	4	3.5	4	-1E+10	1	-1E+10	1	-1E+10	1	-1E+10	1	-1E+10	1	-1E+10	1
4901784	220	C	07/13/2021	10:44	-136.403	43.230	0	1099.60	0	3.3480	0	38.5720	8	30.712	0	1087.973	0	11.1	4	3.6	4	-1E+10	1	-1E+10	1	-1E+10	1	-1E+10	1	-1E+10	1	-1E+10	1
4901784	220	C	07/13/2021	10:44	-136.403	43.230	0	1104.50	0	3.3360	0	38.5750	8	30.716	0	1092.809	0	11.1	4	3.6	4	-1E+10	1	-1E+10	1	-1E+10	1	-1E+10	1	-1E+10	1	-1E+10	1
4901784	220	C	07/13/2021	10:44	-136.403	43.230	0	1109.40	0	3.3270	0	38.5770	8	30.718	0	1097.644	0	11.2	4	3.6	4	-1E+10	1	-1E+10	1	-1E+10	1	-1E+10	1	-1E+10	1	-1E+10	1
4901784	220	C	07/13/2021	10:44	-136.403	43.230	0	1114.30	0	3.3170	0	38.5790	8	30.721	0	1102.479	0	11.3	4	3.6	4	-1E+10	1	-1E+10	1	-1E+10	1	-1E+10	1	-1E+10	1	-1E+10	1
4901784	220	C	07/13/2021	10:44	-136.403	43.230	0	1119.30	0	3.3020	0	38.5830	8	30.726	0	1107.413	0	11.4	4	3.7	4	-1E+10	1	-1E+10	1	-1E+10	1	-1E+10	1	-1E+10	1	-1E+10	1
4901784	220	C	07/13/2021	10:44	-136.403	43.230	0	1124.30	0	3.2860	0	38.5860	8	30.730	0	1112.347	0	11.5	4	3.7	4	-1E+10	1	-1E+10	1	-1E+10	1	-1E+10	1	-1E+10	1	-1E+10	1
4901784	220	C	07/13/2021	10:44	-136.403	43.230	0	1129.40	0	3.2740	0	38.5900	8	30.734	0	1117.379	0	11.7	4	3.7	4	-1E+10	1	-1E+10	1	-1E+10	1	-1E+10	1	-1E+10	1	-1E+10	1
4901784	220	C	07/13/2021	10:44	-136.403	43.230	0	1134.40	0	3.2660	0	38.5930	8	30.738	0	1122.313	0	11.8	4	3.8	4	-1E+10	1	-1E+10	1	-1E+10	1	-1E+10	1	-1E+10	1	-1E+10	1
4901784	220	C	07/13/2021	10:44	-136.403	43.230	0	1139.50	0	3.2560	0	38.5960	8	30.741	0	1127.344	0	11.9	4	3.8	4	-1E+10	1	-1E+10	1	-1E+10	1	-1E+10	1	-1E+10	1	-1E+10	1
4901784	220	C	07/13/2021	10:44	-136.403	43.230	0	1144.60	0	3.2480	0	38.5990	8	30.744	0	1132.376	0	12.1	4	3.9	4	-1E+10	1	-1E+10	1	-1E+10	1	-1E+10	1	-1E+10	1	-1E+10	1
4901784	220	C	07/13/2021	10:44	-136.403	43.230	0	1149.70	0	3.2380	0	38.6020	8	30.748	0	1137.408	0	12.2	4	3.9	4	-1E+10	1	-1E+10	1	-1E+10	1	-1E+10	1	-1E+10	1	-1E+10	1
4901784	220	C	07/13/2021	10:44	-136.403	43.230	0	1154.90	0	3.2230	0	38.6060	8	30.753	0	1142.538	0	12.3	4	4.0	4	-1E+10	1	-1E+10	1	-1E+10	1	-1E+10	1	-1E+10	1	-1E+10	1
4901784	220	C	07/13/2021	10:44	-136.403	43.230	0	1160.10	0	3.2120	0	38.6080	8	30.755	0	1147.668	0	12.4	4	4.0	4	-1E+10	1	-1E+10	1	-1E+10	1	-1E+10	1	-1E+10	1	-1E+10	1
4901784	220	C	07/13/2021	10:44	-136.403	43.230	0	1165.40	0	3.1950	0	38.6110	8	30.760	0	1152.897	0	12.5	4	4.0	4	-1E+10	1	-1E+10	1	-1E+10	1	-1E+10	1	-1E+10	1	-1E+10	1
4901784	220	C	07/13/2021	10:44	-136.403	43.230	0	1170.70	0	3.1840	0	38.6140	8	30.763	0	1158.126	0	12.7	4	4.1	4	-1E+10	1	-1E+10	1	-1E+10	1	-1E+10	1	-1E+10	1	-1E+10	1
4901784	220	C	07/13/2021	10:44	-136.403	43.230	0	1175.10	0	3.1760	0	38.6170	8	30.767	0	1162.466	0	12.8	4	4.1	4	-1E+10	1	-1E+10	1	-1E+10	1	-1E+10	1	-1E+10	1	-1E+10	1
4901784	220	C	07/13/2021	10:44	-136.403	43.230	0	1179.50	0	3.1670	0	38.6180	8	30.768	0	1166.807	0	12.9	4	4.1	4	-1E+10	1	-1E+10	1	-1E+10	1	-1E+10	1	-1E+10	1	-1E+10	1
4901784	220	C	07/13/2021	10:44	-136.403	43.230	0	1184.80	0	3.1550	0	38.6220	8	30.773	0	1172.035	0	13.0	4	4.2	4	-1E+10	1	-1E+10	1	-1E+10	1	-1E+10	1	-1E+10	1	-1E+10	1
4901784	220	C	07/13/2021	10:44	-136.403	43.230	0	1190.20	0	3.1450	0	38.6240	8	30.775	0	1177.362	0	13.1	4	4.2	4	-1E+10	1	-1E+10	1	-1E+10	1	-1E+10	1	-1E+10	1	-1E+10	1
4901784	220	C	07/13/2021	10:44	-136.403	43.230	0	1195.60	0	3.1320	0	38.6260	8	30.778	0	1182.688	0	13.3	4	4.2	4	-1E+10	1	-1E+10	1	-1E+10	1	-1E+10	1	-1E+10	1	-1E+10	1
4901784	220	C	07/13/2021	10:44	-136.403	43.230	0	1200.20	0	3.1230	0	38.6290	8	30.782	0	1187.226	0	13.4	4	4.3	4	-1E+10	1	-1E+10	1	-1E+10	1	-1E+10	1	-1E+10	1	-1E+10	1
4901784	220	C	07/13/2021	10:44	-136.403	43.230	0	1204.80	0	3.1100	0	38.6320	8	30.786	0	1191.763	0	13.5	4	4.3	4	-1E+10	1	-1E+10	1	-1E+10	1	-1E+10	1	-1E+10	1	-1E+10	1
4901784	220	C	07/13/2021	10:44	-136.403	43.230	0	1210.40	0	3.1020	0	38.6340	8	30.788	0	1197.286	0	13.6	4	4.4	4	-1E+10	1	-1E+10	1	-1E+10	1	-1E+10	1	-1E+10	1	-1E+10	1
4901784	220	C	07/13/2021	10:44	-136.403	43.230	0	1215.00	0	3.0950	0	38.6370	8	30.791	0	1201.823	0	13.7	4	4.4	4	-1E+10	1	-1E+10	1	-1E+10	1	-1E+10	1	-1E+10	1	-1E+10	1
4901784	220	C	07/13/2021	10:44	-136.403	43.230	0	1219.60	0	3.0910	0	38.6370	8	30.792	0	1206.360	0	13.8	4	4.4	4	-1E+10	1	-1E+10	1	-1E+10	1	-1E+10	1	-1E+10	1	-1E+10	1
4901784	220	C	07/13/2021	10:44	-136.403	43.230	0	1225.00	0	3.0870	0	38.6380	8	30.793	0	1211.686	0	13.9	4	4.4	4	-1E+10	1	-1E+10	1	-1E+10	1	-1E+10	1	-1E+10	1	-1E+10	1
4901784	220	C	07/13/2021	10:44	-136.403	43.230	0	1229.30	0	3.0760	0	38.6410	8	30.796	0	1215.927	0	14.0	4	4.5	4	-1E+10	1	-1E+10	1	-1E+10	1	-1E+10	1	-1E+10	1	-1E+10	1
4901784	220	C	07/13/2021	10:44	-136.403	43.230	0	1235.00	0	3.0640	0	38.6440	8	30.800	0	1221.548	0	14.2	4	4.5	4	-1E+10	1	-1E+10	1	-1E+10	1	-1E+10	1	-1E+10	1	-1E+10	1
4901784	220	C	07/13/2021	10:44	-136.403	43.230	0	1240.80	0	3.0550	0	38.6470	8	30.803	0	1227.268	0	14.3	4	4.6	4	-1E+10	1	-1E+10	1	-1E+10	1	-1E+10	1	-1E+10	1	-1E+10	1
4901784	220	C	07/13/2021	10:44	-136.403	43.230	0	1245.80	0	3.0450	0	38.6490	8	30.806	0	1232.199	0	14.4	4	4.6	4	-1E+10	1	-1E+10	1	-1E+10	1	-1E+10	1	-1E+10	1	-1E+10	1
4901784	220	C	07/13/2021	10:44	-136.403	43.230	0	1250.80	0	3.0350	0	38.6510	8	30.809	0	1237.130	0	14.6	4	4.6	4	-1E+10	1	-1E+10	1	-1E+10	1	-1E+10	1	-1E+10	1	-1E+10	1
4901784	220	C	07/13/2021	10:44	-136.403	43.230	0	1255.80	0	3.0260	0	38.6530	8	30.811	0	1242.061	0	14.7	4	4.7	4	-1E+10	1	-1E+10	1	-1E+10	1	-1E+10	1	-1E+10	1	-1E+10	1
4901784	220	C	07/13/2021	10:44	-136.403	43.230	0	1260.00	0	3.0210	0	38.6550	8	30.813	0	1246.202	0	14.8	4	4.7	4	-1E+10	1	-1E+10	1	-1E+10	1	-1E+10	1	-1E+10	1	-1E+10	1
4901784	220	C	07/13/2021	10:44	-136.403	43.230	0	1264.20	0	3.0130	0	38.6560	8	30.815	0	1250.344	0	14.9	4	4.8	4	-1E+10	1	-1E+10	1	-1E+10	1	-1E+10	1	-1E+10	1	-1E+10	1
4901784	220	C	07/13/2021	10:44	-136.403	43.230	0	1269.30	0	3.0040	0	38.6590	8	30.818	0	1255.373	0	15.1	4	4.8	4	-1E+10	1	-1E+10	1	-1E+10	1	-1E+10	1	-1E+10	1	-1E+10	1
4901784	220	C	07/13/2021	10:44	-136.403	43.230	0	1274.40	0	2.9910	0	38.6620	8	30.822	0	1260.401	0	15.4	4	4.9	4	-1E+10	1	-1E+10	1	-1E+10	1	-1E+10	1	-1E+10	1	-1E+10	1
4901784	220	C	07/13/2021	10:44	-136.403	43.230	0	1279.60	0	2.9800	0	38.6640	8	30.825	0	1265.529	0	15.5	4	5.0	4	-1E+10	1	-1E+10	1	-1E+10	1	-1E+10	1	-1E+10	1	-1E+10	1
4901784	220	C	07/13/2021	10:44	-136.403	43.230	0	1284.70	0	2.9650	0	38.6670	8	30.829	0	1270.557	0	15.7	4	5.0	4	-1E+10	1	-1E+10	1	-1E+10	1	-1E+10	1	-1E+10	1	-1E+10	1
4901784	220	C	07/13/2021	10:44	-136.403	43.230	0	1289.90	0	2.9550	0	38.6700	8	30.832	0	1275.684	0	15.9	4	5.1	4	-1E+10	1	-1E+10	1	-1E+10	1	-1E+10	1	-1E+10	1	-1E+10	1
4901784	220	C	07/13/2021	10:44	-136.403	43.230	0	1295.20	0	2.9450	0	38.6720	8	30.835	0	1280.910	0	16.1	4	5.1	4	-1E+10	1	-1E+10	1	-1E+10	1	-1E+10	1	-1E+10	1	-1E+10	1
4901784	220	C	07/13/2021	10:44	-136.403	43.230	0	1300.40	0	2.9310	0	38.6750	8	30.839	0	1286.036	0	16.4	4	5.2	4	-1E+10	1	-1E+10	1	-1E+10	1	-1E+10	1	-1E+10	1	-1E+10	1
4901784	220	C	07/13/2021	10:44	-136.403	43.230	0	1304.90	0	2.9220	0	38.6780	8	30.842	0	1290.473	0	16.6	4	5.3	4	-1E+10	1	-1E+10	1	-1E+10	1	-1E+10	1	-1E+10	1	-1E+10	1
4901784	220	C	07/13/2021	10:44	-136.403	43.230	0	1309.30	0	2.9120	0	38.6800	8	30.845	0	1294.811	0	16.8	4	5.3	4	-1E+10	1	-1E+10	1	-1E+10	1	-1E+10	1	-1E+10	1	-1E+10	1
4901784	220	C	07/13/2021	10:44	-136.403	43.230	0	1314.70	0	2.9010	0	38.6820	8	30.848	0	1300.134	0	17.0	4	5.4	4	-1E+10	1	-1E+10	1	-1E+10	1	-1E+10	1	-1E+10	1	-1E+10	1
4901784	220	C	07/13/2021	10:44	-136.403	43.230	0	1320.10	0	2.8900	0	38.6840	8	30.850	0	1305.458	0	17.2	4	5.5	4	-1E+10	1	-1E+10	1	-1E+10	1	-1E+10	1	-1E+10	1	-1E+10	1
4901784	220	C	07/13/2021	10:44	-136.403	43.230	0	1325.30	0	2.8780	0	38.6870	8	30.854	0	1310.584	0	17.4	4	5.5	4	-1E+10	1	-1E+10	1	-1E+10	1	-1E+10	1	-1E+10	1	-1E+10	1
4901784	220	C	07/13/2021	10:44	-136.403	43.230	0	1330.70	0	2.8690	0	38.6890	8	30.857	0	1315.907	0	17.6	4	5.6	4	-1E+10	1	-1E+10	1	-1E+10	1	-1E+10	1	-1E+10	1	-1E+10	1
4901784	220	C	07/13/2021	10:44	-136.403	43.230	0	1335.00	0	2.8570	0	38.6920	8	30.860	0	1320.146	0	17.9	4	5.7	4	-1E+10	1	-1E+10	1	-1E+10	1	-1E+10	1	-1E+10	1	-1E+10	1
4901784	220	C	07/13/2021	10:44	-136.403	43.230	0	1339.50	0	2.8510	0	38.6930	8	30.862	0	1324.582	0	18.0	4	5.7	4	-1E+10	1	-1E+10	1	-1E+10	1	-1E+10	1	-1E+10	1	-1E+10	1
4901784	220	C	07/13/2021	10:44	-136.403	43.230	0	1344.80	0	2.8400	0	38.6950	8	30.864	0	1329.806	0	18.3	4	5.8	4	-1E+10	1	-1E+10	1	-1E+10	1	-1E+10	1	-1E+10	1	-1E+10	1
4901784	220	C	07/13/2021	10:44	-136.403	43.230	0	1350.10	0	2.8260	0	38.6980	8	30.868	0	1335.030	0	18.6	4	5.9	4	-1E+10	1	-1E+10	1	-1E+10	1	-1E+10	1	-1E+10	1	-1E+10	1
4901784	220	C	07/13/2021	10:44	-136.403	43.230	0	1355.40	0	2.8130	0	38.7010	8	30.872	0	1340.254	0	18.9	4	6.0	4	-1E+10	1	-1E+10	1	-1E+10	1	-1E+10	1	-1E+10	1	-1E+10	1
4901784	220	C	07/13/2021	10:44	-136.403	43.230	0	1360.40	0	2.8020	0	38.7030	8	30.875	0	1345.182	0	19.1	4	6.1	4	-1E+10	1	-1E+10	1	-1E+10	1	-1E+10	1	-1E+10	1	-1E+10	1
4901784	220	C	07/13/2021	10:44	-136.403	43.230	0	1365.20	0	2.7920	0	38.7050	8	30.877	0	1349.913	0	19.4	4	6.1	4	-1E+10	1	-1E+10	1	-1E+10	1	-1E+10	1	-1E+10	1	-1E+10	1
4901784	220	C	07/13/2021	10:44	-136.403	43.230	0	1370.50	0	2.7790	0	38.7080	8	30.881	0	1355.137	0	19.6	4	6.2	4	-1E+10	1	-1E+10	1	-1E+10	1	-1E+10	1	-1E+10	1	-1E+10	1
4901784	220	C	07/13/2021	10:44	-136.403	43.230	0	1375.00	0	2.7690	0	38.7110	8	30.884	0	1359.572	0	19.8	4	6.3	4	-1E+10	1	-1E+10	1	-1E+10	1	-1E+10	1	-1E+10	1	-1E+10	1
4901784	220	C	07/13/2021	10:44	-136.403	43.230	0	1380.10	0	2.7600	0	38.7130	8	30.887	0	1364.598	0	20.0	4	6.4	4	-1E+10	1	-1E+10	1	-1E+10	1	-1E+10	1	-1E+10	1	-1E+10	1
4901784	220	C	07/13/2021	10:44	-136.403	43.230	0	1385.20	0	2.7520	0	38.7150	8	30.889	0	1369.624	0	20.2	4	6.4	4	-1E+10	1	-1E+10	1	-1E+10	1	-1E+10	1	-1E+10	1	-1E+10	1
4901784	220	C	07/13/2021	10:44	-136.403	43.230	0	1390.40	0	2.7470	0	38.7160	8	30.891	0	1374.749	0	20.4	4	6.5	4	-1E+10	1	-1E+10	1	-1E+10	1	-1E+10	1	-1E+10	1	-1E+10	1
4901784	220	C	07/13/2021	10:44	-136.403	43.230	0	1395.50	0	2.7370	0	38.7180	8	30.893	0	1379.775	0	20.6	4	6.5	4	-1E+10	1	-1E+10	1	-1E+10	1	-1E+10	1	-1E+10	1	-1E+10	1
4901784	220	C	07/13/2021	10:44	-136.403	43.230	0	1400.60	0	2.7310	0	38.7200	8	30.896	0	1384.801	0	20.7	4	6.6	4	-1E+10	1	-1E+10	1	-1E+10	1	-1E+10	1	-1E+10	1	-1E+10	1
4901784	220	C	07/13/2021	10:44	-136.403	43.230	0	1404.90	0	2.7280	0	38.7210	8	30.897	0	1389.038	0	20.9	4	6.6	4	-1E+10	1	-1E+10	1	-1E+10	1	-1E+10	1	-1E+10	1	-1E+10	1
4901784	220	C	07/13/2021	10:44	-136.403	43.230	0	1409.20	0	2.7190	0	38.7230	8	30.899	0	1393.275	0	21.1	4	6.7	4	-1E+10	1	-1E+10	1	-1E+10	1	-1E+10	1	-1E+10	1	-1E+10	1
4901784	220	C	07/13/2021	10:44	-136.403	43.230	0	1414.40	0	2.7130	0	38.7250	8	30.901	0	1398.399	0	21.3	4	6.8	4	-1E+10	1	-1E+10	1	-1E+10	1	-1E+10	1	-1E+10	1	-1E+10	1
4901784	220	C	07/13/2021	10:44	-136.403	43.230	0	1419.60	0	2.7000	0	38.7270	8	30.904	0	1403.523	0	21.6	4	6.8	4	-1E+10	1	-1E+10	1	-1E+10	1	-1E+10	1	-1E+10	1	-1E+10	1
4901784	220	C	07/13/2021	10:44	-136.403	43.230	0	1424.80	0	2.6920	0	38.7290	8	30.907	0	1408.647	0	21.8	4	6.9	4	-1E+10	1	-1E+10	1	-1E+10	1	-1E+10	1	-1E+10	1	-1E+10	1
4901784	220	C	07/13/2021	10:44	-136.403	43.230	0	1430.00	0	2.6800	0	38.7320	8	30.910	0	1413.771	0	22.1	4	7.0	4	-1E+10	1	-1E+10	1	-1E+10	1	-1E+10	1	-1E+10	1	-1E+10	1
4901784	220	C	07/13/2021	10:44	-136.403	43.230	0	1435.30	0	2.6730	0	38.7330	8	30.912	0	1418.993	0	22.3	4	7.1	4	-1E+10	1	-1E+10	1	-1E+10	1	-1E+10	1	-1E+10	1	-1E+10	1
4901784	220	C	07/13/2021	10:44	-136.403	43.230	0	1440.60	0	2.6630	0	38.7350	8	30.915	0	1424.215	0	22.6	4	7.2	4	-1E+10	1	-1E+10	1	-1E+10	1	-1E+10	1	-1E+10	1	-1E+10	1
4901784	220	C	07/13/2021	10:44	-136.403	43.230	0	1445.10	0	2.6540	0	38.7370	8	30.917	0	1428.648	0	22.8	4	7.2	4	-1E+10	1	-1E+10	1	-1E+10	1	-1E+10	1	-1E+10	1	-1E+10	1
4901784	220	C	07/13/2021	10:44	-136.403	43.230	0	1449.60	0	2.6480	0	38.7390	8	30.919	0	1433.082	0	23.1	4	7.3	4	-1E+10	1	-1E+10	1	-1E+10	1	-1E+10	1	-1E+10	1	-1E+10	1
4901784	220	C	07/13/2021	10:44	-136.403	43.230	0	1454.90	0	2.6350	0	38.7420	8	30.923	0	1438.303	0	23.4	4	7.4	4	-1E+10	1	-1E+10	1	-1E+10	1	-1E+10	1	-1E+10	1	-1E+10	1
4901784	220	C	07/13/2021	10:44	-136.403	43.230	0	1460.20	0	2.6250	0	38.7440	8	30.926	0	1443.525	0	23.6	4	7.5	4	-1E+10	1	-1E+10	1	-1E+10	1	-1E+10	1	-1E+10	1	-1E+10	1
4901784	220	C	07/13/2021	10:44	-136.403	43.230	0	1465.60	0	2.6160	0	38.7460	8	30.928	0	1448.844	0	23.8	4	7.5	4	-1E+10	1	-1E+10	1	-1E+10	1	-1E+10	1	-1E+10	1	-1E+10	1
4901784	220	C	07/13/2021	10:44	-136.403	43.230	0	1470.10	0	2.6100	0	38.7470	8	30.930	0	1453.278	0	24.0	4	7.6	4	-1E+10	1	-1E+10	1	-1E+10	1	-1E+10	1	-1E+10	1	-1E+10	1
4901784	220	C	07/13/2021	10:44	-136.403	43.230	0	1474.60	0	2.6070	0	38.7480	8	30.931	0	1457.711	0	24.1	4	7.6	4	-1E+10	1	-1E+10	1	-1E+10	1	-1E+10	1	-1E+10	1	-1E+10	1
4901784	220	C	07/13/2021	10:44	-136.403	43.230	0	1480.00	0	2.6010	0	38.7500	8	30.933	0	1463.030	0	24.5	4	7.7	4	-1E+10	1	-1E+10	1	-1E+10	1	-1E+10	1	-1E+10	1	-1E+10	1
4901784	220	C	07/13/2021	10:44	-136.403	43.230	0	1485.40	0	2.5880	0	38.7520	8	30.936	0	1468.349	0	24.9	4	7.9	4	-1E+10	1	-1E+10	1	-1E+10	1	-1E+10	1	-1E+10	1	-1E+10	1
4901784	220	C	07/13/2021	10:44	-136.403	43.230	0	1490.70	0	2.5750	0	38.7550	8	30.939	0	1473.570	0	25.2	4	8.0	4	-1E+10	1	-1E+10	1	-1E+10	1	-1E+10	1	-1E+10	1	-1E+10	1
4901784	220	C	07/13/2021	10:44	-136.403	43.230	0	1495.80	0	2.5660	0	38.7570	8	30.942	0	1478.594	0	25.6	4	8.1	4	-1E+10	1	-1E+10	1	-1E+10	1	-1E+10	1	-1E+10	1	-1E+10	1
4901784	220	C	07/13/2021	10:44	-136.403	43.230	0	1500.00	0	2.5550	0	38.7600	8	30.945	0	1482.731	0	25.8	4	8.2	4	-1E+10	1	-1E+10	1	-1E+10	1	-1E+10	1	-1E+10	1	-1E+10	1
4901784	220	C	07/13/2021	10:44	-136.403	43.230	0	1504.20	0	2.5490	0	38.7600	8	30.946	0	1486.867	0	26.0	4	8.2	4	-1E+10	1	-1E+10	1	-1E+10	1	-1E+10	1	-1E+10	1	-1E+10	1
4901784	220	C	07/13/2021	10:44	-136.403	43.230	0	1509.30	0	2.5400	0	38.7620	8	30.949	0	1491.891	0	26.4	4	8.3	4	-1E+10	1	-1E+10	1	-1E+10	1	-1E+10	1	-1E+10	1	-1E+10	1
4901784	220	C	07/13/2021	10:44	-136.403	43.230	0	1514.40	0	2.5290	0	38.7650	8	30.952	0	1496.914	0	26.6	4	8.4	4	-1E+10	1	-1E+10	1	-1E+10	1	-1E+10	1	-1E+10	1	-1E+10	1
4901784	220	C	07/13/2021	10:44	-136.403	43.230	0	1519.50	0	2.5230	0	38.7660	8	30.953	0	1501.937	0	26.9	4	8.5	4	-1E+10	1	-1E+10	1	-1E+10	1	-1E+10	1	-1E+10	1	-1E+10	1
4901784	220	C	07/13/2021	10:44	-136.403	43.230	0	1524.70	0	2.5130	0	38.7680	8	30.956	0	1507.058	0	27.2	4	8.6	4	-1E+10	1	-1E+10	1	-1E+10	1	-1E+10	1	-1E+10	1	-1E+10	1
4901784	220	C	07/13/2021	10:44	-136.403	43.230	0	1529.80	0	2.5080	0	38.7690	8	30.957	0	1512.081	0	27.4	4	8.7	4	-1E+10	1	-1E+10	1	-1E+10	1	-1E+10	1	-1E+10	1	-1E+10	1
4901784	220	C	07/13/2021	10:44	-136.403	43.230	0	1534.90	0	2.4980	0	38.7710	8	30.960	0	1517.104	0	27.8	4	8.8	4	-1E+10	1	-1E+10	1	-1E+10	1	-1E+10	1	-1E+10	1	-1E+10	1
4901784	220	C	07/13/2021	10:44	-136.403	43.230	0	1540.10	0	2.4850	0	38.7740	8	30.964	0	1522.225	0	28.2	4	8.9	4	-1E+10	1	-1E+10	1	-1E+10	1	-1E+10	1	-1E+10	1	-1E+10	1
4901784	220	C	07/13/2021	10:44	-136.403	43.230	0	1545.30	0	2.4760	0	38.7760	8	30.966	0	1527.346	0	28.5	4	9.0	4	-1E+10	1	-1E+10	1	-1E+10	1	-1E+10	1	-1E+10	1	-1E+10	1
4901784	220	C	07/13/2021	10:44	-136.403	43.230	0	1550.60	0	2.4650	0	38.7780	8	30.969	0	1532.565	0	28.8	4	9.1	4	-1E+10	1	-1E+10	1	-1E+10	1	-1E+10	1	-1E+10	1	-1E+10	1
4901784	220	C	07/13/2021	10:44	-136.403	43.230	0	1554.90	0	2.4630	0	38.7780	8	30.969	0	1536.799	0	29.1	4	9.1	4	-1E+10	1	-1E+10	1	-1E+10	1	-1E+10	1	-1E+10	1	-1E+10	1
4901784	220	C	07/13/2021	10:44	-136.403	43.230	0	1559.40	0	2.4510	0	38.7800	8	30.972	0	1541.230	0	29.4	4	9.3	4	-1E+10	1	-1E+10	1	-1E+10	1	-1E+10	1	-1E+10	1	-1E+10	1
4901784	220	C	07/13/2021	10:44	-136.403	43.230	0	1564.80	0	2.4360	0	38.7830	8	30.976	0	1546.548	0	29.8	4	9.4	4	-1E+10	1	-1E+10	1	-1E+10	1	-1E+10	1	-1E+10	1	-1E+10	1
4901784	220	C	07/13/2021	10:44	-136.403	43.230	0	1570.20	0	2.4270	0	38.7850	8	30.978	0	1551.865	0	30.1	4	9.5	4	-1E+10	1	-1E+10	1	-1E+10	1	-1E+10	1	-1E+10	1	-1E+10	1
4901784	220	C	07/13/2021	10:44	-136.403	43.230	0	1575.60	0	2.4180	0	38.7870	8	30.981	0	1557.182	0	30.3	4	9.5	4	-1E+10	1	-1E+10	1	-1E+10	1	-1E+10	1	-1E+10	1	-1E+10	1
4901784	220	C	07/13/2021	10:44	-136.403	43.230	0	1580.20	0	2.4150	0	38.7880	8	30.982	0	1561.711	0	30.5	4	9.6	4	-1E+10	1	-1E+10	1	-1E+10	1	-1E+10	1	-1E+10	1	-1E+10	1
4901784	220	C	07/13/2021	10:44	-136.403	43.230	0	1584.70	0	2.4130	0	38.7880	8	30.982	0	1566.142	0	30.7	4	9.7	4	-1E+10	1	-1E+10	1	-1E+10	1	-1E+10	1	-1E+10	1	-1E+10	1
4901784	220	C	07/13/2021	10:44	-136.403	43.230	0	1590.30	0	2.4020	0	38.7900	8	30.985	0	1571.656	0	31.2	4	9.8	4	-1E+10	1	-1E+10	1	-1E+10	1	-1E+10	1	-1E+10	1	-1E+10	1
4901784	220	C	07/13/2021	10:44	-136.403	43.230	0	1594.90	0	2.3890	0	38.7930	8	30.988	0	1576.185	0	31.5	4	9.9	4	-1E+10	1	-1E+10	1	-1E+10	1	-1E+10	1	-1E+10	1	-1E+10	1
4901784	220	C	07/13/2021	10:44	-136.403	43.230	0	1600.10	0	2.3830	0	38.7950	8	30.991	0	1581.304	0	31.8	4	10.0	4	-1E+10	1	-1E+10	1	-1E+10	1	-1E+10	1	-1E+10	1	-1E+10	1
4901784	220	C	07/13/2021	10:44	-136.403	43.230	0	1605.30	0	2.3750	0	38.7960	8	30.992	0	1586.424	0	32.1	4	10.1	4	-1E+10	1	-1E+10	1	-1E+10	1	-1E+10	1	-1E+10	1	-1E+10	1
4901784	220	C	07/13/2021	10:44	-136.403	43.230	0	1610.10	0	2.3670	0	38.7980	8	30.995	0	1591.149	0	32.5	4	10.2	4	-1E+10	1	-1E+10	1	-1E+10	1	-1E+10	1	-1E+10	1	-1E+10	1
4901784	220	C	07/13/2021	10:44	-136.403	43.230	0	1615.00	0	2.3580	0	38.8000	8	30.997	0	1595.973	0	32.8	4	10.3	4	-1E+10	1	-1E+10	1	-1E+10	1	-1E+10	1	-1E+10	1	-1E+10	1
4901784	220	C	07/13/2021	10:44	-136.403	43.230	0	1620.00	0	2.3510	0	38.8020	8	30.999	0	1600.895	0	33.1	4	10.4	4	-1E+10	1	-1E+10	1	-1E+10	1	-1E+10	1	-1E+10	1	-1E+10	1
4901784	220	C	07/13/2021	10:44	-136.403	43.230	0	1624.90	0	2.3450	0	38.8030	8	31.001	0	1605.719	0	33.3	4	10.4	4	-1E+10	1	-1E+10	1	-1E+10	1	-1E+10	1	-1E+10	1	-1E+10	1
4901784	220	C	07/13/2021	10:44	-136.403	43.230	0	1630.00	0	2.3380	0	38.8040	8	31.002	0	1610.739	0	33.6	4	10.6	4	-1E+10	1	-1E+10	1	-1E+10	1	-1E+10	1	-1E+10	1	-1E+10	1
4901784	220	C	07/13/2021	10:44	-136.403	43.230	0	1635.10	0	2.3320	0	38.8060	8	31.004	0	1615.759	0	34.0	4	10.7	4	-1E+10	1	-1E+10	1	-1E+10	1	-1E+10	1	-1E+10	1	-1E+10	1
4901784	220	C	07/13/2021	10:44	-136.403	43.230	0	1640.30	0	2.3150	0	38.8090	8	31.008	0	1620.878	0	34.4	4	10.8	4	-1E+10	1	-1E+10	1	-1E+10	1	-1E+10	1	-1E+10	1	-1E+10	1
4901784	220	C	07/13/2021	10:44	-136.403	43.230	0	1645.50	0	2.3070	0	38.8110	8	31.011	0	1625.997	0	34.7	4	10.9	4	-1E+10	1	-1E+10	1	-1E+10	1	-1E+10	1	-1E+10	1	-1E+10	1
4901784	220	C	07/13/2021	10:44	-136.403	43.230	0	1650.70	0	2.3010	0	38.8130	8	31.013	0	1631.115	0	35.0	4	11.0	4	-1E+10	1	-1E+10	1	-1E+10	1	-1E+10	1	-1E+10	1	-1E+10	1
4901784	220	C	07/13/2021	10:44	-136.403	43.230	0	1655.00	0	2.2960	0	38.8140	8	31.014	0	1635.347	0	35.1	4	11.0	4	-1E+10	1	-1E+10	1	-1E+10	1	-1E+10	1	-1E+10	1	-1E+10	1
4901784	220	C	07/13/2021	10:44	-136.403	43.230	0	1659.40	0	2.2910	0	38.8150	8	31.016	0	1639.678	0	35.4	4	11.1	4	-1E+10	1	-1E+10	1	-1E+10	1	-1E+10	1	-1E+10	1	-1E+10	1
4901784	220	C	07/13/2021	10:44	-136.403	43.230	0	1664.70	0	2.2850	0	38.8170	8	31.018	0	1644.894	0	35.7	4	11.2	4	-1E+10	1	-1E+10	1	-1E+10	1	-1E+10	1	-1E+10	1	-1E+10	1
4901784	220	C	07/13/2021	10:44	-136.403	43.230	0	1670.00	0	2.2780	0	38.8180	8	31.019	0	1650.111	0	36.0	4	11.3	4	-1E+10	1	-1E+10	1	-1E+10	1	-1E+10	1	-1E+10	1	-1E+10	1
4901784	220	C	07/13/2021	10:44	-136.403	43.230	0	1675.20	0	2.2730	0	38.8190	8	31.021	0	1655.229	0	36.4	4	11.4	4	-1E+10	1	-1E+10	1	-1E+10	1	-1E+10	1	-1E+10	1	-1E+10	1
4901784	220	C	07/13/2021	10:44	-136.403	43.230	0	1680.40	0	2.2620	0	38.8220	8	31.024	0	1660.346	0	36.7	4	11.5	4	-1E+10	1	-1E+10	1	-1E+10	1	-1E+10	1	-1E+10	1	-1E+10	1
4901784	220	C	07/13/2021	10:44	-136.403	43.230	0	1684.80	0	2.2570	0	38.8230	8	31.025	0	1664.677	0	37.0	4	11.6	4	-1E+10	1	-1E+10	1	-1E+10	1	-1E+10	1	-1E+10	1	-1E+10	1
4901784	220	C	07/13/2021	10:44	-136.403	43.230	0	1689.30	0	2.2510	0	38.8240	8	31.027	0	1669.105	0	37.3	4	11.7	4	-1E+10	1	-1E+10	1	-1E+10	1	-1E+10	1	-1E+10	1	-1E+10	1
4901784	220	C	07/13/2021	10:44	-136.403	43.230	0	1694.60	0	2.2400	0	38.8270	8	31.030	0	1674.321	0	37.8	4	11.8	4	-1E+10	1	-1E+10	1	-1E+10	1	-1E+10	1	-1E+10	1	-1E+10	1
4901784	220	C	07/13/2021	10:44	-136.403	43.230	0	1700.00	0	2.2320	0	38.8290	8	31.033	0	1679.635	0	38.1	4	11.9	4	-1E+10	1	-1E+10	1	-1E+10	1	-1E+10	1	-1E+10	1	-1E+10	1
4901784	220	C	07/13/2021	10:44	-136.403	43.230	0	1705.50	0	2.2250	0	38.8310	8	31.035	0	1685.047	0	38.4	4	12.0	4	-1E+10	1	-1E+10	1	-1E+10	1	-1E+10	1	-1E+10	1	-1E+10	1
4901784	220	C	07/13/2021	10:44	-136.403	43.230	0	1710.00	0	2.2220	0	38.8320	8	31.036	0	1689.475	0	38.5	4	12.1	4	-1E+10	1	-1E+10	1	-1E+10	1	-1E+10	1	-1E+10	1	-1E+10	1
4901784	220	C	07/13/2021	10:44	-136.403	43.230	0	1715.20	0	2.2180	0	38.8330	8	31.037	0	1694.592	0	38.7	4	12.1	4	-1E+10	1	-1E+10	1	-1E+10	1	-1E+10	1	-1E+10	1	-1E+10	1
4901784	220	C	07/13/2021	10:44	-136.403	43.230	0	1720.20	0	2.2140	0	38.8340	8	31.038	0	1699.512	0	38.9	4	12.2	4	-1E+10	1	-1E+10	1	-1E+10	1	-1E+10	1	-1E+10	1	-1E+10	1
4901784	220	C	07/13/2021	10:44	-136.403	43.230	0	1725.00	0	2.2100	0	38.8360	8	31.040	0	1704.235	0	39.0	4	12.2	4	-1E+10	1	-1E+10	1	-1E+10	1	-1E+10	1	-1E+10	1	-1E+10	1
4901784	220	C	07/13/2021	10:44	-136.403	43.230	0	1729.80	0	2.2090	0	38.8360	8	31.041	0	1708.958	0	39.1	4	12.2	4	-1E+10	1	-1E+10	1	-1E+10	1	-1E+10	1	-1E+10	1	-1E+10	1
4901784	220	C	07/13/2021	10:44	-136.403	43.230	0	1734.60	0	2.2050	0	38.8380	8	31.043	0	1713.681	0	39.3	4	12.3	4	-1E+10	1	-1E+10	1	-1E+10	1	-1E+10	1	-1E+10	1	-1E+10	1
4901784	220	C	07/13/2021	10:44	-136.403	43.230	0	1739.50	0	2.2030	0	38.8380	8	31.043	0	1718.502	0	39.5	4	12.4	4	-1E+10	1	-1E+10	1	-1E+10	1	-1E+10	1	-1E+10	1	-1E+10	1
4901784	220	C	07/13/2021	10:44	-136.403	43.230	0	1744.40	0	2.1980	0	38.8400	8	31.045	0	1723.323	0	39.7	4	12.4	4	-1E+10	1	-1E+10	1	-1E+10	1	-1E+10	1	-1E+10	1	-1E+10	1
4901784	220	C	07/13/2021	10:44	-136.403	43.230	0	1749.30	0	2.1950	0	38.8410	8	31.046	0	1728.144	0	40.0	4	12.5	4	-1E+10	1	-1E+10	1	-1E+10	1	-1E+10	1	-1E+10	1	-1E+10	1
4901784	220	C	07/13/2021	10:44	-136.403	43.230	0	1754.30	0	2.1880	0	38.8430	8	31.048	0	1733.063	0	40.4	4	12.6	4	-1E+10	1	-1E+10	1	-1E+10	1	-1E+10	1	-1E+10	1	-1E+10	1
4901784	220	C	07/13/2021	10:44	-136.403	43.230	0	1759.20	0	2.1820	0	38.8440	8	31.050	0	1737.883	0	40.7	4	12.7	4	-1E+10	1	-1E+10	1	-1E+10	1	-1E+10	1	-1E+10	1	-1E+10	1
4901784	220	C	07/13/2021	10:44	-136.403	43.230	0	1764.20	0	2.1780	0	38.8450	8	31.051	0	1742.802	0	41.0	4	12.8	4	-1E+10	1	-1E+10	1	-1E+10	1	-1E+10	1	-1E+10	1	-1E+10	1
4901784	220	C	07/13/2021	10:44	-136.403	43.230	0	1769.30	0	2.1710	0	38.8470	8	31.053	0	1747.819	0	41.4	4	12.9	4	-1E+10	1	-1E+10	1	-1E+10	1	-1E+10	1	-1E+10	1	-1E+10	1
4901784	220	C	07/13/2021	10:44	-136.403	43.230	0	1774.30	0	2.1650	0	38.8490	8	31.055	0	1752.738	0	41.6	4	13.0	4	-1E+10	1	-1E+10	1	-1E+10	1	-1E+10	1	-1E+10	1	-1E+10	1
4901784	220	C	07/13/2021	10:44	-136.403	43.230	0	1779.30	0	2.1630	0	38.8490	8	31.056	0	1757.657	0	42.0	4	13.1	4	-1E+10	1	-1E+10	1	-1E+10	1	-1E+10	1	-1E+10	1	-1E+10	1
4901784	220	C	07/13/2021	10:44	-136.403	43.230	0	1784.40	0	2.1540	0	38.8510	8	31.058	0	1762.673	0	42.4	4	13.3	4	-1E+10	1	-1E+10	1	-1E+10	1	-1E+10	1	-1E+10	1	-1E+10	1
4901784	220	C	07/13/2021	10:44	-136.403	43.230	0	1789.40	0	2.1500	0	38.8530	8	31.060	0	1767.592	0	42.7	4	13.3	4	-1E+10	1	-1E+10	1	-1E+10	1	-1E+10	1	-1E+10	1	-1E+10	1
4901784	220	C	07/13/2021	10:44	-136.403	43.230	0	1794.50	0	2.1440	0	38.8540	8	31.062	0	1772.608	0	43.1	4	13.5	4	-1E+10	1	-1E+10	1	-1E+10	1	-1E+10	1	-1E+10	1	-1E+10	1
4901784	220	C	07/13/2021	10:44	-136.403	43.230	0	1799.60	0	2.1350	0	38.8560	8	31.064	0	1777.625	0	43.5	4	13.6	4	-1E+10	1	-1E+10	1	-1E+10	1	-1E+10	1	-1E+10	1	-1E+10	1
4901784	220	C	07/13/2021	10:44	-136.403	43.230	0	1804.70	0	2.1310	0	38.8570	8	31.065	0	1782.641	0	43.8	4	13.7	4	-1E+10	1	-1E+10	1	-1E+10	1	-1E+10	1	-1E+10	1	-1E+10	1
4901784	220	C	07/13/2021	10:44	-136.403	43.230	0	1809.80	0	2.1220	0	38.8590	8	31.068	0	1787.657	0	44.3	4	13.8	4	-1E+10	1	-1E+10	1	-1E+10	1	-1E+10	1	-1E+10	1	-1E+10	1
4901784	220	C	07/13/2021	10:44	-136.403	43.230	0	1815.00	0	2.1140	0	38.8610	8	31.070	0	1792.772	0	44.7	4	14.0	4	-1E+10	1	-1E+10	1	-1E+10	1	-1E+10	1	-1E+10	1	-1E+10	1
4901784	220	C	07/13/2021	10:44	-136.403	43.230	0	1820.10	0	2.1070	0	38.8630	8	31.072	0	1797.788	0	44.9	4	14.0	4	-1E+10	1	-1E+10	1	-1E+10	1	-1E+10	1	-1E+10	1	-1E+10	1
4901784	220	C	07/13/2021	10:44	-136.403	43.230	0	1825.30	0	2.1020	0	38.8650	8	31.074	0	1802.902	0	45.2	4	14.1	4	-1E+10	1	-1E+10	1	-1E+10	1	-1E+10	1	-1E+10	1	-1E+10	1
4901784	220	C	07/13/2021	10:44	-136.403	43.230	0	1830.50	0	2.0970	0	38.8660	8	31.076	0	1808.016	0	45.4	4	14.2	4	-1E+10	1	-1E+10	1	-1E+10	1	-1E+10	1	-1E+10	1	-1E+10	1
4901784	220	C	07/13/2021	10:44	-136.403	43.230	0	1835.70	0	2.0910	0	38.8680	8	31.078	0	1813.130	0	45.7	4	14.3	4	-1E+10	1	-1E+10	1	-1E+10	1	-1E+10	1	-1E+10	1	-1E+10	1
4901784	220	C	07/13/2021	10:44	-136.403	43.230	0	1840.00	0	2.0880	0	38.8690	8	31.079	0	1817.359	0	46.0	4	14.4	4	-1E+10	1	-1E+10	1	-1E+10	1	-1E+10	1	-1E+10	1	-1E+10	1
4901784	220	C	07/13/2021	10:44	-136.403	43.230	0	1844.40	0	2.0830	0	38.8700	8	31.080	0	1821.686	0	46.2	4	14.4	4	-1E+10	1	-1E+10	1	-1E+10	1	-1E+10	1	-1E+10	1	-1E+10	1
4901784	220	C	07/13/2021	10:44	-136.403	43.230	0	1849.60	0	2.0780	0	38.8720	8	31.082	0	1826.799	0	46.6	4	14.5	4	-1E+10	1	-1E+10	1	-1E+10	1	-1E+10	1	-1E+10	1	-1E+10	1
4901784	220	C	07/13/2021	10:44	-136.403	43.230	0	1854.90	0	2.0750	0	38.8730	8	31.083	0	1832.011	0	46.8	4	14.6	4	-1E+10	1	-1E+10	1	-1E+10	1	-1E+10	1	-1E+10	1	-1E+10	1
4901784	220	C	07/13/2021	10:44	-136.403	43.230	0	1860.20	0	2.0710	0	38.8740	8	31.085	0	1837.223	0	47.0	4	14.7	4	-1E+10	1	-1E+10	1	-1E+10	1	-1E+10	1	-1E+10	1	-1E+10	1
4901784	220	C	07/13/2021	10:44	-136.403	43.230	0	1865.50	0	2.0670	0	38.8750	8	31.086	0	1842.435	0	47.3	4	14.8	4	-1E+10	1	-1E+10	1	-1E+10	1	-1E+10	1	-1E+10	1	-1E+10	1
4901784	220	C	07/13/2021	10:44	-136.403	43.230	0	1869.90	0	2.0660	0	38.8760	8	31.087	0	1846.761	0	47.6	4	14.8	4	-1E+10	1	-1E+10	1	-1E+10	1	-1E+10	1	-1E+10	1	-1E+10	1
4901784	220	C	07/13/2021	10:44	-136.403	43.230	0	1874.30	0	2.0610	0	38.8770	8	31.088	0	1851.087	0	48.0	4	15.0	4	-1E+10	1	-1E+10	1	-1E+10	1	-1E+10	1	-1E+10	1	-1E+10	1
4901784	220	C	07/13/2021	10:44	-136.403	43.230	0	1879.70	0	2.0520	0	38.8790	8	31.091	0	1856.397	0	48.5	4	15.1	4	-1E+10	1	-1E+10	1	-1E+10	1	-1E+10	1	-1E+10	1	-1E+10	1
4901784	220	C	07/13/2021	10:44	-136.403	43.230	0	1885.10	0	2.0470	0	38.8810	8	31.093	0	1861.706	0	48.9	4	15.2	4	-1E+10	1	-1E+10	1	-1E+10	1	-1E+10	1	-1E+10	1	-1E+10	1
4901784	220	C	07/13/2021	10:44	-136.403	43.230	0	1890.50	0	2.0410	0	38.8820	8	31.094	0	1867.016	0	49.3	4	15.4	4	-1E+10	1	-1E+10	1	-1E+10	1	-1E+10	1	-1E+10	1	-1E+10	1
4901784	220	C	07/13/2021	10:44	-136.403	43.230	0	1895.10	0	2.0370	0	38.8830	8	31.095	0	1871.538	0	49.7	4	15.5	4	-1E+10	1	-1E+10	1	-1E+10	1	-1E+10	1	-1E+10	1	-1E+10	1
4901784	220	C	07/13/2021	10:44	-136.403	43.230	0	1899.60	0	2.0300	0	38.8850	8	31.097	0	1875.963	0	50.1	4	15.6	4	-1E+10	1	-1E+10	1	-1E+10	1	-1E+10	1	-1E+10	1	-1E+10	1
4901784	220	C	07/13/2021	10:44	-136.403	43.230	0	1905.00	0	2.0230	0	38.8870	8	31.100	0	1881.272	0	50.4	4	15.7	4	-1E+10	1	-1E+10	1	-1E+10	1	-1E+10	1	-1E+10	1	-1E+10	1
4901784	220	C	07/13/2021	10:44	-136.403	43.230	0	1910.50	0	2.0210	0	38.8880	8	31.101	0	1886.679	0	50.8	4	15.8	4	-1E+10	1	-1E+10	1	-1E+10	1	-1E+10	1	-1E+10	1	-1E+10	1
4901784	220	C	07/13/2021	10:44	-136.403	43.230	0	1915.20	0	2.0150	0	38.8890	8	31.102	0	1891.299	0	51.2	4	15.9	4	-1E+10	1	-1E+10	1	-1E+10	1	-1E+10	1	-1E+10	1	-1E+10	1
4901784	220	C	07/13/2021	10:44	-136.403	43.230	0	1919.70	0	2.0100	0	38.8900	8	31.103	0	1895.723	0	51.5	4	16.0	4	-1E+10	1	-1E+10	1	-1E+10	1	-1E+10	1	-1E+10	1	-1E+10	1
4901784	220	C	07/13/2021	10:44	-136.403	43.230	0	1925.20	0	2.0060	0	38.8910	8	31.105	0	1901.130	0	51.8	4	16.1	4	-1E+10	1	-1E+10	1	-1E+10	1	-1E+10	1	-1E+10	1	-1E+10	1
4901784	220	C	07/13/2021	10:44	-136.403	43.230	0	1929.80	0	2.0040	0	38.8920	8	31.106	0	1905.652	0	52.2	4	16.3	4	-1E+10	1	-1E+10	1	-1E+10	1	-1E+10	1	-1E+10	1	-1E+10	1
4901784	220	C	07/13/2021	10:44	-136.403	43.230	0	1934.30	0	1.9960	0	38.8940	8	31.108	0	1910.075	0	52.6	4	16.4	4	-1E+10	1	-1E+10	1	-1E+10	1	-1E+10	1	-1E+10	1	-1E+10	1
4901784	220	C	07/13/2021	10:44	-136.403	43.230	0	1939.90	0	1.9900	0	38.8950	8	31.109	0	1915.580	0	53.1	4	16.5	4	-1E+10	1	-1E+10	1	-1E+10	1	-1E+10	1	-1E+10	1	-1E+10	1
4901784	220	C	07/13/2021	10:44	-136.403	43.230	0	1945.30	0	1.9840	0	38.8970	8	31.112	0	1920.888	0	53.4	4	16.6	4	-1E+10	1	-1E+10	1	-1E+10	1	-1E+10	1	-1E+10	1	-1E+10	1
4901784	220	C	07/13/2021	10:44	-136.403	43.230	0	1949.90	0	1.9820	0	38.8980	8	31.113	0	1925.409	0	53.8	4	16.7	4	-1E+10	1	-1E+10	1	-1E+10	1	-1E+10	1	-1E+10	1	-1E+10	1
4901784	220	C	07/13/2021	10:44	-136.403	43.230	0	1955.20	0	1.9750	0	38.8990	8	31.114	0	1930.619	0	54.2	4	16.9	4	-1E+10	1	-1E+10	1	-1E+10	1	-1E+10	1	-1E+10	1	-1E+10	1
4901784	220	C	07/13/2021	10:44	-136.403	43.230	0	1960.30	0	1.9720	0	38.9000	8	31.115	0	1935.632	0	54.5	4	17.0	4	-1E+10	1	-1E+10	1	-1E+10	1	-1E+10	1	-1E+10	1	-1E+10	1
4901784	220	C	07/13/2021	10:44	-136.403	43.230	0	1965.10	0	1.9670	0	38.9020	8	31.117	0	1940.349	0	54.8	4	17.1	4	-1E+10	1	-1E+10	1	-1E+10	1	-1E+10	1	-1E+10	1	-1E+10	1
4901784	220	C	07/13/2021	10:44	-136.403	43.230	0	1970.00	0	1.9630	0	38.9030	8	31.118	0	1945.165	0	55.1	4	17.1	4	-1E+10	1	-1E+10	1	-1E+10	1	-1E+10	1	-1E+10	1	-1E+10	1
4901784	220	C	07/13/2021	10:44	-136.403	43.230	0	1975.00	0	1.9610	0	38.9030	8	31.119	0	1950.079	0	55.3	4	17.2	4	-1E+10	1	-1E+10	1	-1E+10	1	-1E+10	1	-1E+10	1	-1E+10	1
4901784	220	C	07/13/2021	10:44	-136.403	43.230	0	1979.90	0	1.9570	0	38.9040	8	31.120	0	1954.895	0	55.7	4	17.3	4	-1E+10	1	-1E+10	1	-1E+10	1	-1E+10	1	-1E+10	1	-1E+10	1
4901784	220	C	07/13/2021	10:44	-136.403	43.230	0	1984.90	0	1.9540	0	38.9050	8	31.121	0	1959.809	0	56.1	4	17.5	4	-1E+10	1	-1E+10	1	-1E+10	1	-1E+10	1	-1E+10	1	-1E+10	1
4901784	220	C	07/13/2021	10:44	-136.403	43.230	0	1989.90	0	1.9460	0	38.9060	8	31.122	0	1964.723	0	56.6	4	17.6	4	-1E+10	1	-1E+10	1	-1E+10	1	-1E+10	1	-1E+10	1	-1E+10	1
4901784	220	C	07/13/2021	10:44	-136.403	43.230	0	1994.90	0	1.9400	0	38.9080	8	31.125	0	1969.636	0	56.9	4	17.7	4	-1E+10	1	-1E+10	1	-1E+10	1	-1E+10	1	-1E+10	1	-1E+10	1
4901784	220	C	07/13/2021	10:44	-136.403	43.230	0	2000.00	0	1.9370	0	38.9090	8	31.126	0	1974.648	0	57.2	4	17.8	4	-1E+10	1	-1E+10	1	-1E+10	1	-1E+10	1	-1E+10	1	-1E+10	1
4901784	220	C	07/13/2021	10:44	-136.403	43.230	0	2005.70	0	1.9350	0	38.9100	8	31.127	0	1980.249	0	57.3	4	17.8	4	-1E+10	1	-1E+10	1	-1E+10	1	-1E+10	1	-1E+10	1	-1E+10	1
4901784	220	C	07/13/2021	10:44	-136.403	43.230	0	2010.30	0	1.9350	0	38.9100	8	31.127	0	1984.770	0	57.4	4	17.9	4	-1E+10	1	-1E+10	1	-1E+10	1	-1E+10	1	-1E+10	1	-1E+10	1
4901784	220	C	07/13/2021	10:44	-136.403	43.230	0	2015.20	0	1.9320	0	38.9110	8	31.128	0	1989.584	0	57.7	4	18.0	4	-1E+10	1	-1E+10	1	-1E+10	1	-1E+10	1	-1E+10	1	-1E+10	1
4901784	220	C	07/13/2021	10:44	-136.403	43.230	0	2019.60	0	1.9280	0	38.9120	8	31.129	0	1993.908	0	58.0	4	18.0	4	-1E+10	1	-1E+10	1	-1E+10	1	-1E+10	1	-1E+10	1	-1E+10	1
4901784	220	C	07/13/2021	10:44	-136.403	43.230	0																										
4901784	221	C	07/23/2021	10:47	-136.349	43.238	0	2.00	0	17.5450	0	36.1760	8	26.286	0	1.984	0	229.7	4	98.1	4	-1E+10	1	-1E+10	1	-1E+10	1	-1E+10	1	-1E+10	1	-1E+10	1
4901784	221	C	07/23/2021	10:47	-136.349	43.238	0	3.50	0	17.5450	0	36.1780	8	26.288	0	3.472	0	229.7	4	98.1	4	-1E+10	1	-1E+10	1	-1E+10	1	-1E+10	1	-1E+10	1	-1E+10	1
4901784	221	C	07/23/2021	10:47	-136.349	43.238	0	5.10	0	17.5440	0	36.1800	8	26.290	0	5.059	0	229.8	4	98.1	4	-1E+10	1	-1E+10	1	-1E+10	1	-1E+10	1	-1E+10	1	-1E+10	1
4901784	221	C	07/23/2021	10:47	-136.349	43.238	0	6.70	0	17.5420	0	36.1800	8	26.290	0	6.647	0	229.9	4	98.2	4	-1E+10	1	-1E+10	1	-1E+10	1	-1E+10	1	-1E+10	1	-1E+10	1
4901784	221	C	07/23/2021	10:47	-136.349	43.238	0	8.40	0	17.5420	0	36.1790	8	26.290	0	8.333	0	230.3	4	98.4	4	-1E+10	1	-1E+10	1	-1E+10	1	-1E+10	1	-1E+10	1	-1E+10	1
4901784	221	C	07/23/2021	10:47	-136.349	43.238	0	10.20	0	17.5410	0	36.1770	8	26.289	0	10.119	0	231.0	4	98.7	4	-1E+10	1	-1E+10	1	-1E+10	1	-1E+10	1	-1E+10	1	-1E+10	1
4901784	221	C	07/23/2021	10:47	-136.349	43.238	0	11.90	0	17.5420	0	36.1710	8	26.284	0	11.805	0	231.7	4	99.0	4	-1E+10	1	-1E+10	1	-1E+10	1	-1E+10	1	-1E+10	1	-1E+10	1
4901784	221	C	07/23/2021	10:47	-136.349	43.238	0	14.10	0	17.5340	0	36.1580	8	26.276	0	13.987	0	233.3	4	99.6	4	-1E+10	1	-1E+10	1	-1E+10	1	-1E+10	1	-1E+10	1	-1E+10	1
4901784	221	C	07/23/2021	10:47	-136.349	43.238	0	15.80	0	17.5160	0	36.1340	8	26.262	0	15.674	0	236.1	4	100.8	4	-1E+10	1	-1E+10	1	-1E+10	1	-1E+10	1	-1E+10	1	-1E+10	1
4901784	221	C	07/23/2021	10:47	-136.349	43.238	0	17.30	0	17.3120	0	36.1180	8	26.299	0	17.162	0	239.7	4	101.9	4	-1E+10	1	-1E+10	1	-1E+10	1	-1E+10	1	-1E+10	1	-1E+10	1
4901784	221	C	07/23/2021	10:47	-136.349	43.238	0	18.70	0	16.5430	0	36.1700	8	26.523	0	18.550	0	245.3	4	102.8	4	-1E+10	1	-1E+10	1	-1E+10	1	-1E+10	1	-1E+10	1	-1E+10	1
4901784	221	C	07/23/2021	10:47	-136.349	43.238	0	20.30	0	15.7830	0	36.2100	8	26.730	0	20.137	0	250.4	4	103.4	4	-1E+10	1	-1E+10	1	-1E+10	1	-1E+10	1	-1E+10	1	-1E+10	1
4901784	221	C	07/23/2021	10:47	-136.349	43.238	0	21.80	0	15.7260	0	36.1910	8	26.729	0	21.625	0	251.3	4	103.7	4	-1E+10	1	-1E+10	1	-1E+10	1	-1E+10	1	-1E+10	1	-1E+10	1
4901784	221	C	07/23/2021	10:47	-136.349	43.238	0	23.60	0	15.3670	0	36.2160	8	26.830	0	23.411	0	253.0	4	103.7	4	-1E+10	1	-1E+10	1	-1E+10	1	-1E+10	1	-1E+10	1	-1E+10	1
4901784	221	C	07/23/2021	10:47	-136.349	43.238	0	25.40	0	15.0600	0	36.2680	8	26.938	0	25.196	0	253.2	4	103.2	4	-1E+10	1	-1E+10	1	-1E+10	1	-1E+10	1	-1E+10	1	-1E+10	1
4901784	221	C	07/23/2021	10:47	-136.349	43.238	0	27.10	0	14.6930	0	36.2470	8	27.003	0	26.883	0	255.5	4	103.4	4	-1E+10	1	-1E+10	1	-1E+10	1	-1E+10	1	-1E+10	1	-1E+10	1
4901784	221	C	07/23/2021	10:47	-136.349	43.238	0	28.90	0	14.5400	0	36.2590	8	27.046	0	28.668	0	255.7	4	103.1	4	-1E+10	1	-1E+10	1	-1E+10	1	-1E+10	1	-1E+10	1	-1E+10	1
4901784	221	C	07/23/2021	10:47	-136.349	43.238	0	30.70	0	14.5060	0	36.2650	8	27.058	0	30.453	0	255.6	4	103.0	4	-1E+10	1	-1E+10	1	-1E+10	1	-1E+10	1	-1E+10	1	-1E+10	1
4901784	221	C	07/23/2021	10:47	-136.349	43.238	0	32.50	0	14.5050	0	36.2650	8	27.058	0	32.239	0	255.0	4	102.8	4	-1E+10	1	-1E+10	1	-1E+10	1	-1E+10	1	-1E+10	1	-1E+10	1
4901784	221	C	07/23/2021	10:47	-136.349	43.238	0	34.30	0	14.5040	0	36.2640	8	27.058	0	34.024	0	254.7	4	102.7	4	-1E+10	1	-1E+10	1	-1E+10	1	-1E+10	1	-1E+10	1	-1E+10	1
4901784	221	C	07/23/2021	10:47	-136.349	43.238	0	36.00	0	14.4970	0	36.2600	8	27.056	0	35.710	0	254.3	4	102.5	4	-1E+10	1	-1E+10	1	-1E+10	1	-1E+10	1	-1E+10	1	-1E+10	1
4901784	221	C	07/23/2021	10:47	-136.349	43.238	0	37.90	0	14.3600	0	36.2620	8	27.088	0	37.595	0	255.4	4	102.7	4	-1E+10	1	-1E+10	1	-1E+10	1	-1E+10	1	-1E+10	1	-1E+10	1
4901784	221	C	07/23/2021	10:47	-136.349	43.238	0	39.60	0	14.1890	0	36.2560	8	27.120	0	39.281	0	256.4	4	102.7	4	-1E+10	1	-1E+10	1	-1E+10	1	-1E+10	1	-1E+10	1	-1E+10	1
4901784	221	C	07/23/2021	10:47	-136.349	43.238	0	41.40	0	13.9190	0	36.2590	8	27.180	0	41.066	0	258.2	4	102.9	4	-1E+10	1	-1E+10	1	-1E+10	1	-1E+10	1	-1E+10	1	-1E+10	1
4901784	221	C	07/23/2021	10:47	-136.349	43.238	0	43.30	0	13.6740	0	36.2690	8	27.239	0	42.951	0	260.1	4	103.2	4	-1E+10	1	-1E+10	1	-1E+10	1	-1E+10	1	-1E+10	1	-1E+10	1
4901784	221	C	07/23/2021	10:47	-136.349	43.238	0	45.50	0	13.4270	0	36.2670	8	27.289	0	45.133	0	261.0	4	103.0	4	-1E+10	1	-1E+10	1	-1E+10	1	-1E+10	1	-1E+10	1	-1E+10	1
4901784	221	C	07/23/2021	10:47	-136.349	43.238	0	46.00	0	13.3400	0	36.2830	8	27.320	0	45.629	0	261.4	4	103.0	4	-1E+10	1	-1E+10	1	-1E+10	1	-1E+10	1	-1E+10	1	-1E+10	1
4901784	221	C	07/23/2021	10:47	-136.349	43.238	0	47.70	0	13.1760	0	36.2930	8	27.361	0	47.315	0	262.2	4	103.0	4	-1E+10	1	-1E+10	1	-1E+10	1	-1E+10	1	-1E+10	1	-1E+10	1
4901784	221	C	07/23/2021	10:47	-136.349	43.238	0	49.30	0	13.0480	0	36.2980	8	27.391	0	48.902	0	262.3	4	102.8	4	-1E+10	1	-1E+10	1	-1E+10	1	-1E+10	1	-1E+10	1	-1E+10	1
4901784	221	C	07/23/2021	10:47	-136.349	43.238	0	51.00	0	12.7610	0	36.3150	8	27.463	0	50.588	0	263.5	4	102.6	4	-1E+10	1	-1E+10	1	-1E+10	1	-1E+10	1	-1E+10	1	-1E+10	1
4901784	221	C	07/23/2021	10:47	-136.349	43.238	0	52.60	0	12.6580	0	36.3140	8	27.483	0	52.175	0	263.5	4	102.4	4	-1E+10	1	-1E+10	1	-1E+10	1	-1E+10	1	-1E+10	1	-1E+10	1
4901784	221	C	07/23/2021	10:47	-136.349	43.238	0	54.20	0	12.5610	0	36.3140	8	27.502	0	53.762	0	262.6	4	101.8	4	-1E+10	1	-1E+10	1	-1E+10	1	-1E+10	1	-1E+10	1	-1E+10	1
4901784	221	C	07/23/2021	10:47	-136.349	43.238	0	55.80	0	12.3890	0	36.3130	8	27.535	0	55.349	0	261.5	4	101.0	4	-1E+10	1	-1E+10	1	-1E+10	1	-1E+10	1	-1E+10	1	-1E+10	1
4901784	221	C	07/23/2021	10:47	-136.349	43.238	0	57.40	0	11.9780	0	36.3280	8	27.627	0	56.935	0	260.0	4	99.7	4	-1E+10	1	-1E+10	1	-1E+10	1	-1E+10	1	-1E+10	1	-1E+10	1
4901784	221	C	07/23/2021	10:47	-136.349	43.238	0	59.10	0	11.4680	0	36.3630	8	27.752	0	58.621	0	258.5	4	98.0	4	-1E+10	1	-1E+10	1	-1E+10	1	-1E+10	1	-1E+10	1	-1E+10	1
4901784	221	C	07/23/2021	10:47	-136.349	43.238	0	60.80	0	11.3310	0	36.3610	8	27.776	0	60.307	0	258.2	4	97.7	4	-1E+10	1	-1E+10	1	-1E+10	1	-1E+10	1	-1E+10	1	-1E+10	1
4901784	221	C	07/23/2021	10:47	-136.349	43.238	0	62.50	0	11.2240	0	36.3690	8	27.803	0	61.993	0	256.5	4	96.8	4	-1E+10	1	-1E+10	1	-1E+10	1	-1E+10	1	-1E+10	1	-1E+10	1
4901784	221	C	07/23/2021	10:47	-136.349	43.238	0	64.20	0	11.1160	0	36.3700	8	27.824	0	63.679	0	254.0	4	95.7	4	-1E+10	1	-1E+10	1	-1E+10	1	-1E+10	1	-1E+10	1	-1E+10	1
4901784	221	C	07/23/2021	10:47	-136.349	43.238	0	65.90	0	10.9920	0	36.3640	8	27.842	0	65.365	0	252.0	4	94.6	4	-1E+10	1	-1E+10	1	-1E+10	1	-1E+10	1	-1E+10	1	-1E+10	1
4901784	221	C	07/23/2021	10:47	-136.349	43.238	0	67.80	0	10.8300	0	36.3720	8	27.878	0	67.250	0	250.1	4	93.6	4	-1E+10	1	-1E+10	1	-1E+10	1	-1E+10	1	-1E+10	1	-1E+10	1
4901784	221	C	07/23/2021	10:47	-136.349	43.238	0	69.50	0	10.6760	0	36.3700	8	27.904	0	68.935	0	249.7	4	93.1	4	-1E+10	1	-1E+10	1	-1E+10	1	-1E+10	1	-1E+10	1	-1E+10	1
4901784	221	C	07/23/2021	10:47	-136.349	43.238	0	71.30	0	10.5810	0	36.3740	8	27.925	0	70.721	0	249.3	4	92.8	4	-1E+10	1	-1E+10	1	-1E+10	1	-1E+10	1	-1E+10	1	-1E+10	1
4901784	221	C	07/23/2021	10:47	-136.349	43.238	0	72.90	0	10.4890	0	36.3780	8	27.944	0	72.307	0	249.1	4	92.6	4	-1E+10	1	-1E+10	1	-1E+10	1	-1E+10	1	-1E+10	1	-1E+10	1
4901784	221	C	07/23/2021	10:47	-136.349	43.238	0	74.70	0	10.4750	0	36.3760	8	27.945	0	74.092	0	248.9	4	92.5	4	-1E+10	1	-1E+10	1	-1E+10	1	-1E+10	1	-1E+10	1	-1E+10	1
4901784	221	C	07/23/2021	10:47	-136.349	43.238	0	76.50	0	10.3980	0	36.3960	8	27.975	0	75.877	0	248.6	4	92.2	4	-1E+10	1	-1E+10	1	-1E+10	1	-1E+10	1	-1E+10	1	-1E+10	1
4901784	221	C	07/23/2021	10:47	-136.349	43.238	0	78.20	0	10.3290	0	36.4000	8	27.990	0	77.563	0	248.2	4	91.9	4	-1E+10	1	-1E+10	1	-1E+10	1	-1E+10	1	-1E+10	1	-1E+10	1
4901784	221	C	07/23/2021	10:47	-136.349	43.238	0	79.90	0	10.3290	0	36.4150	8	28.002	0	79.249	0	247.7	4	91.8	4	-1E+10	1	-1E+10	1	-1E+10	1	-1E+10	1	-1E+10	1	-1E+10	1
4901784	221	C	07/23/2021	10:47	-136.349	43.238	0	81.70	0	10.3070	0	36.4290	8	28.017	0	81.034	0	247.1	4	91.5	4	-1E+10	1	-1E+10	1	-1E+10	1	-1E+10	1	-1E+10	1	-1E+10	1
4901784	221	C	07/23/2021	10:47	-136.349	43.238	0	83.40	0	10.3270	0	36.4290	8	28.013	0	82.720	0	246.8	4	91.4	4	-1E+10	1	-1E+10	1	-1E+10	1	-1E+10	1	-1E+10	1	-1E+10	1
4901784	221	C	07/23/2021	10:47	-136.349	43.238	0	85.20	0	10.3260	0	36.4270	8	28.012	0	84.505	0	246.4	4	91.3	4	-1E+10	1	-1E+10	1	-1E+10	1	-1E+10	1	-1E+10	1	-1E+10	1
4901784	221	C	07/23/2021	10:47	-136.349	43.238	0	87.00	0	10.2040	0	36.4220	8	28.030	0	86.290	0	246.9	4	91.2	4	-1E+10	1	-1E+10	1	-1E+10	1	-1E+10	1	-1E+10	1	-1E+10	1
4901784	221	C	07/23/2021	10:47	-136.349	43.238	0	88.80	0	10.1660	0	36.4360	8	28.047	0	88.075	0	246.8	4	91.1	4	-1E+10	1	-1E+10	1	-1E+10	1	-1E+10	1	-1E+10	1	-1E+10	1
4901784	221	C	07/23/2021	10:47	-136.349	43.238	0	90.50	0	10.1350	0	36.4260	8	28.045	0	89.760	0	247.0	4	91.1	4	-1E+10	1	-1E+10	1	-1E+10	1	-1E+10	1	-1E+10	1	-1E+10	1
4901784	221	C	07/23/2021	10:47	-136.349	43.238	0	92.30	0	10.0140	0	36.4190	8	28.061	0	91.545	0	247.7	4	91.1	4	-1E+10	1	-1E+10	1	-1E+10	1	-1E+10	1	-1E+10	1	-1E+10	1
4901784	221	C	07/23/2021	10:47	-136.349	43.238	0	94.00	0	9.9110	0	36.4100	8	28.071	0	93.231	0	248.0	4	91.1	4	-1E+10	1	-1E+10	1	-1E+10	1	-1E+10	1	-1E+10	1	-1E+10	1
4901784	221	C	07/23/2021	10:47	-136.349	43.238	0	95.70	0	9.8270	0	36.4030	8	28.081	0	94.917	0	248.1	4	90.9	4	-1E+10	1	-1E+10	1	-1E+10	1	-1E+10	1	-1E+10	1	-1E+10	1
4901784	221	C	07/23/2021	10:47	-136.349	43.238	0	97.60	0	9.7020	0	36.4060	8	28.104	0	96.801	0	248.7	4	90.9	4	-1E+10	1	-1E+10	1	-1E+10	1	-1E+10	1	-1E+10	1	-1E+10	1
4901784	221	C	07/23/2021	10:47	-136.349	43.238	0	99.30	0	9.5510	0	36.4210	8	28.142	0	98.486	0	248.9	4	90.7	4	-1E+10	1	-1E+10	1	-1E+10	1	-1E+10	1	-1E+10	1	-1E+10	1
4901784	221	C	07/23/2021	10:47	-136.349	43.238	0	102.90	0	9.3730	0	36.4090	8	28.163	0	102.056	0	248.5	4	90.2	4	-1E+10	1	-1E+10	1	-1E+10	1	-1E+10	1	-1E+10	1	-1E+10	1
4901784	221	C	07/23/2021	10:47	-136.349	43.238	0	104.70	0	9.2630	0	36.4100	8	28.182	0	103.841	0	248.0	4	89.8	4	-1E+10	1	-1E+10	1	-1E+10	1	-1E+10	1	-1E+10	1	-1E+10	1
4901784	221	C	07/23/2021	10:47	-136.349	43.238	0	107.60	0	9.0750	0	36.4420	8	28.238	0	106.716	0	246.4	4	88.9	4	-1E+10	1	-1E+10	1	-1E+10	1	-1E+10	1	-1E+10	1	-1E+10	1
4901784	221	C	07/23/2021	10:47	-136.349	43.238	0	110.00	0	9.0650	0	36.4770	8	28.267	0	109.096	0	243.6	4	87.9	4	-1E+10	1	-1E+10	1	-1E+10	1	-1E+10	1	-1E+10	1	-1E+10	1
4901784	221	C	07/23/2021	10:47	-136.349	43.238	0	112.40	0	9.1270	0	36.5030	8	28.277	0	111.475	0	240.2	4	86.8	4	-1E+10	1	-1E+10	1	-1E+10	1	-1E+10	1	-1E+10	1	-1E+10	1
4901784	221	C	07/23/2021	10:47	-136.349	43.238	0	114.60	0	9.0230	0	36.5190	8	28.307	0	113.657	0	236.5	4	85.2	4	-1E+10	1	-1E+10	1	-1E+10	1	-1E+10	1	-1E+10	1	-1E+10	1
4901784	221	C	07/23/2021	10:47	-136.349	43.238	0	117.80	0	8.9630	0	36.5870	8	28.370	0	116.829	0	227.6	4	82.0	4	-1E+10	1	-1E+10	1	-1E+10	1	-1E+10	1	-1E+10	1	-1E+10	1
4901784	221	C	07/23/2021	10:47	-136.349	43.238	0	120.20	0	9.2600	0	36.7010	8	28.411	0	119.209	0	218.3	4	79.2	4	-1E+10	1	-1E+10	1	-1E+10	1	-1E+10	1	-1E+10	1	-1E+10	1
4901784	221	C	07/23/2021	10:47	-136.349	43.238	0	122.90	0	9.4140	0	36.8380	8	28.492	0	121.886	0	211.7	4	77.1	4	-1E+10	1	-1E+10	1	-1E+10	1	-1E+10	1	-1E+10	1	-1E+10	1
4901784	221	C	07/23/2021	10:47	-136.349	43.238	0	125.50	0	9.4340	0	36.9330	8	28.563	0	124.464	0	208.3	4	76.0	4	-1E+10	1	-1E+10	1	-1E+10	1	-1E+10	1	-1E+10	1	-1E+10	1
4901784	221	C	07/23/2021	10:47	-136.349	43.238	0	127.30	0	9.4070	0	36.9540	8	28.584	0	126.248	0	207.3	4	75.6	4	-1E+10	1	-1E+10	1	-1E+10	1	-1E+10	1	-1E+10	1	-1E+10	1
4901784	221	C	07/23/2021	10:47	-136.349	43.238	0	129.70	0	9.3440	0	36.9950	8	28.627	0	128.628	0	205.7	4	74.9	4	-1E+10	1	-1E+10	1	-1E+10	1	-1E+10	1	-1E+10	1	-1E+10	1
4901784	221	C	07/23/2021	10:47	-136.349	43.238	0	132.40	0	9.3000	0	37.0100	8	28.646	0	131.304	0	204.1	4	74.3	4	-1E+10	1	-1E+10	1	-1E+10	1	-1E+10	1	-1E+10	1	-1E+10	1
4901784	221	C	07/23/2021	10:47	-136.349	43.238	0	134.70	0	9.2060	0	37.0310	8	28.678	0	133.585	0	202.7	4	73.6	4	-1E+10	1	-1E+10	1	-1E+10	1	-1E+10	1	-1E+10	1	-1E+10	1
4901784	221	C	07/23/2021	10:47	-136.349	43.238	0	137.10	0	9.1290	0	37.0950	8	28.741	0	135.964	0	201.5	4	73.1	4	-1E+10	1	-1E+10	1	-1E+10	1	-1E+10	1	-1E+10	1	-1E+10	1
4901784	221	C	07/23/2021	10:47	-136.349	43.238	0	140.30	0	9.1080	0	37.1140	8	28.760	0	139.136	0	200.5	4	72.7	4	-1E+10	1	-1E+10	1	-1E+10	1	-1E+10	1	-1E+10	1	-1E+10	1
4901784	221	C	07/23/2021	10:47	-136.349	43.238	0	142.70	0	9.1000	0	37.1180	8	28.764	0	141.516	0	199.4	4	72.3	4	-1E+10	1	-1E+10	1	-1E+10	1	-1E+10	1	-1E+10	1	-1E+10	1
4901784	221	C	07/23/2021	10:47	-136.349	43.238	0	145.20	0	9.0820	0	37.1460	8	28.789	0	143.994	0	198.3	4	71.9	4	-1E+10	1	-1E+10	1	-1E+10	1	-1E+10	1	-1E+10	1	-1E+10	1
4901784	221	C	07/23/2021	10:47	-136.349	43.238	0	147.70	0	9.0340	0	37.1700	8	28.816	0	146.472	0	197.1	4	71.4	4	-1E+10	1	-1E+10	1	-1E+10	1	-1E+10	1	-1E+10	1	-1E+10	1
4901784	221	C	07/23/2021	10:47	-136.349	43.238	0	150.20	0	8.9650	0	37.1970	8	28.849	0	148.951	0	196.0	4	70.9	4	-1E+10	1	-1E+10	1	-1E+10	1	-1E+10	1	-1E+10	1	-1E+10	1
4901784	221	C	07/23/2021	10:47	-136.349	43.238	0	152.90	0	8.9330	0	37.2220	8	28.874	0	151.627	0	195.0	4	70.5	4	-1E+10	1	-1E+10	1	-1E+10	1	-1E+10	1	-1E+10	1	-1E+10	1
4901784	221	C	07/23/2021	10:47	-136.349	43.238	0	154.60	0	8.8830	0	37.2450	8	28.900	0	153.313	0	194.2	4	70.1	4	-1E+10	1	-1E+10	1	-1E+10	1	-1E+10	1	-1E+10	1	-1E+10	1
4901784	221	C	07/23/2021	10:47	-136.349	43.238	0	157.30	0	8.7330	0	37.2800	8	28.952	0	155.989	0	193.7	4	69.8	4	-1E+10	1	-1E+10	1	-1E+10	1	-1E+10	1	-1E+10	1	-1E+10	1
4901784	221	C	07/23/2021	10:47	-136.349	43.238	0	160.00	0	8.7110	0	37.2970	8	28.969	0	158.666	0	193.1	4	69.5	4	-1E+10	1	-1E+10	1	-1E+10	1	-1E+10	1	-1E+10	1	-1E+10	1
4901784	221	C	07/23/2021	10:47	-136.349	43.238	0	162.70	0	8.6830	0	37.3220	8	28.993	0	161.342	0	192.2	4	69.2	4	-1E+10	1	-1E+10	1	-1E+10	1	-1E+10	1	-1E+10	1	-1E+10	1
4901784	221	C	07/23/2021	10:47	-136.349	43.238	0	165.30	0	8.6310	0	37.3520	8	29.025	0	163.919	0	191.2	4	68.7	4	-1E+10	1	-1E+10	1	-1E+10	1	-1E+10	1	-1E+10	1	-1E+10	1
4901784	221	C	07/23/2021	10:47	-136.349	43.238	0	167.10	0	8.6140	0	37.3860	8	29.055	0	165.703	0	190.5	4	68.5	4	-1E+10	1	-1E+10	1	-1E+10	1	-1E+10	1	-1E+10	1	-1E+10	1
4901784	221	C	07/23/2021	10:47	-136.349	43.238	0	169.70	0	8.6230	0	37.4190	8	29.079	0	168.281	0	189.3	4	68.1	4	-1E+10	1	-1E+10	1	-1E+10	1	-1E+10	1	-1E+10	1	-1E+10	1
4901784	221	C	07/23/2021	10:47	-136.349	43.238	0	172.30	0	8.6200	0	37.4520	8	29.106	0	170.858	0	188.0	4	67.6	4	-1E+10	1	-1E+10	1	-1E+10	1	-1E+10	1	-1E+10	1	-1E+10	1
4901784	221	C	07/23/2021	10:47	-136.349	43.238	0	175.00	0	8.5610	0	37.4910	8	29.146	0	173.534	0	187.3	4	67.3	4	-1E+10	1	-1E+10	1	-1E+10	1	-1E+10	1	-1E+10	1	-1E+10	1
4901784	221	C	07/23/2021	10:47	-136.349	43.238	0	177.70	0	8.5570	0	37.5380	8	29.184	0	176.210	0	186.8	4	67.1	4	-1E+10	1	-1E+10	1	-1E+10	1	-1E+10	1	-1E+10	1	-1E+10	1
4901784	221	C	07/23/2021	10:47	-136.349	43.238	0	179.60	0	8.5140	0	37.5740	8	29.219	0	178.094	0	186.9	4	67.1	4	-1E+10	1	-1E+10	1	-1E+10	1	-1E+10	1	-1E+10	1	-1E+10	1
4901784	221	C	07/23/2021	10:47	-136.349	43.238	0	182.40	0	8.5210	0	37.5900	8	29.230	0	180.869	0	186.6	4	67.0	4	-1E+10	1	-1E+10	1	-1E+10	1	-1E+10	1	-1E+10	1	-1E+10	1
4901784	221	C	07/23/2021	10:47	-136.349	43.238	0	185.00	0	8.4990	0	37.6150	8	29.254	0	183.446	0	186.5	4	67.0	4	-1E+10	1	-1E+10	1	-1E+10	1	-1E+10	1	-1E+10	1	-1E+10	1
4901784	221	C	07/23/2021	10:47	-136.349	43.238	0	187.60	0	8.4910	0	37.6320	8	29.268	0	186.023	0	186.1	4	66.9	4	-1E+10	1	-1E+10	1	-1E+10	1	-1E+10	1	-1E+10	1	-1E+10	1
4901784	221	C	07/23/2021	10:47	-136.349	43.238	0	190.30	0	8.4720	0	37.6340	8	29.273	0	188.699	0	185.8	4	66.7	4	-1E+10	1	-1E+10	1	-1E+10	1	-1E+10	1	-1E+10	1	-1E+10	1
4901784	221	C	07/23/2021	10:47	-136.349	43.238	0	192.60	0	8.4020	0	37.6470	8	29.294	0	190.979	0	185.7	4	66.6	4	-1E+10	1	-1E+10	1	-1E+10	1	-1E+10	1	-1E+10	1	-1E+10	1
4901784	221	C	07/23/2021	10:47	-136.349	43.238	0	195.20	0	8.3800	0	37.6820	8	29.326	0	193.555	0	185.6	4	66.5	4	-1E+10	1	-1E+10	1	-1E+10	1	-1E+10	1	-1E+10	1	-1E+10	1
4901784	221	C	07/23/2021	10:47	-136.349	43.238	0	197.50	0	8.3520	0	37.6980	8	29.343	0	195.835	0	185.1	4	66.3	4	-1E+10	1	-1E+10	1	-1E+10	1	-1E+10	1	-1E+10	1	-1E+10	1
4901784	221	C	07/23/2021	10:47	-136.349	43.238	0	199.70	0	8.3130	0	37.7110	8	29.359	0	198.015	0	184.4	4	66.0	4	-1E+10	1	-1E+10	1	-1E+10	1	-1E+10	1	-1E+10	1	-1E+10	1
4901784	221	C	07/23/2021	10:47	-136.349	43.238	0	202.80	0	8.2140	0	37.7220	8	29.384	0	201.088	0	184.3	4	65.9	4	-1E+10	1	-1E+10	1	-1E+10	1	-1E+10	1	-1E+10	1	-1E+10	1
4901784	221	C	07/23/2021	10:47	-136.349	43.238	0	205.10	0	8.2020	0	37.7210	8	29.385	0	203.367	0	184.3	4	65.8	4	-1E+10	1	-1E+10	1	-1E+10	1	-1E+10	1	-1E+10	1	-1E+10	1
4901784	221	C	07/23/2021	10:47	-136.349	43.238	0	207.50	0	8.1570	0	37.7250	8	29.395	0	205.746	0	184.4	4	65.8	4	-1E+10	1	-1E+10	1	-1E+10	1	-1E+10	1	-1E+10	1	-1E+10	1
4901784	221	C	07/23/2021	10:47	-136.349	43.238	0	209.90	0	8.1150	0	37.7320	8	29.407	0	208.124	0	184.3	4	65.7	4	-1E+10	1	-1E+10	1	-1E+10	1	-1E+10	1	-1E+10	1	-1E+10	1
4901784	221	C	07/23/2021	10:47	-136.349	43.238	0	212.30	0	8.0920	0	37.7380	8	29.416	0	210.503	0	184.1	4	65.6	4	-1E+10	1	-1E+10	1	-1E+10	1	-1E+10	1	-1E+10	1	-1E+10	1
4901784	221	C	07/23/2021	10:47	-136.349	43.238	0	214.70	0	8.0890	0	37.7390	8	29.417	0	212.881	0	183.6	4	65.4	4	-1E+10	1	-1E+10	1	-1E+10	1	-1E+10	1	-1E+10	1	-1E+10	1
4901784	221	C	07/23/2021	10:47	-136.349	43.238	0	217.10	0	8.0510	0	37.7530	8	29.434	0	215.260	0	182.9	4	65.1	4	-1E+10	1	-1E+10	1	-1E+10	1	-1E+10	1	-1E+10	1	-1E+10	1
4901784	221	C	07/23/2021	10:47	-136.349	43.238	0	220.30	0	8.0000	0	37.7610	8	29.448	0	218.431	0	182.0	4	64.7	4	-1E+10	1	-1E+10	1	-1E+10	1	-1E+10	1	-1E+10	1	-1E+10	1
4901784	221	C	07/23/2021	10:47	-136.349	43.238	0	222.70	0	7.9770	0	37.7630	8	29.453	0	220.809	0	181.5	4	64.5	4	-1E+10	1	-1E+10	1	-1E+10	1	-1E+10	1	-1E+10	1	-1E+10	1
4901784	221	C	07/23/2021	10:47	-136.349	43.238	0	225.20	0	7.9200	0	37.7680	8	29.466	0	223.287	0	180.8	4	64.2	4	-1E+10	1	-1E+10	1	-1E+10	1	-1E+10	1	-1E+10	1	-1E+10	1
4901784	221	C	07/23/2021	10:47	-136.349	43.238	0	227.60	0	7.8840	0	37.7730	8	29.476	0	225.665	0	179.7	4	63.7	4	-1E+10	1	-1E+10	1	-1E+10	1	-1E+10	1	-1E+10	1	-1E+10	1
4901784	221	C	07/23/2021	10:47	-136.349	43.238	0	230.20	0	7.8430	0	37.7800	8	29.488	0	228.241	0	178.3	4	63.2	4	-1E+10	1	-1E+10	1	-1E+10	1	-1E+10	1	-1E+10	1	-1E+10	1
4901784	221	C	07/23/2021	10:47	-136.349	43.238	0	232.80	0	7.8280	0	37.7850	8	29.494	0	230.818	0	176.4	4	62.5	4	-1E+10	1	-1E+10	1	-1E+10	1	-1E+10	1	-1E+10	1	-1E+10	1
4901784	221	C	07/23/2021	10:47	-136.349	43.238	0	235.40	0	7.7800	0	37.7940	8	29.509	0	233.394	0	174.2	4	61.6	4	-1E+10	1	-1E+10	1	-1E+10	1	-1E+10	1	-1E+10	1	-1E+10	1
4901784	221	C	07/23/2021	10:47	-136.349	43.238	0	238.00	0	7.7390	0	37.7960	8	29.516	0	235.970	0	171.9	4	60.8	4	-1E+10	1	-1E+10	1	-1E+10	1	-1E+10	1	-1E+10	1	-1E+10	1
4901784	221	C	07/23/2021	10:47	-136.349	43.238	0	239.70	0	7.7110	0	37.8030	8	29.526	0	237.655	0	170.2	4	60.2	4	-1E+10	1	-1E+10	1	-1E+10	1	-1E+10	1	-1E+10	1	-1E+10	1
4901784	221	C	07/23/2021	10:47	-136.349	43.238	0	242.20	0	7.6630	0	37.8000	8	29.531	0	240.132	0	168.4	4	59.5	4	-1E+10	1	-1E+10	1	-1E+10	1	-1E+10	1	-1E+10	1	-1E+10	1
4901784	221	C	07/23/2021	10:47	-136.349	43.238	0	244.80	0	7.6300	0	37.8010	8	29.537	0	242.708	0	166.7	4	58.8	4	-1E+10	1	-1E+10	1	-1E+10	1	-1E+10	1	-1E+10	1	-1E+10	1
4901784	221	C	07/23/2021	10:47	-136.349	43.238	0	247.40	0	7.5830	0	37.8080	8	29.550	0	245.285	0	164.8	4	58.1	4	-1E+10	1	-1E+10	1	-1E+10	1	-1E+10	1	-1E+10	1	-1E+10	1
4901784	221	C	07/23/2021	10:47	-136.349	43.238	0	250.10	0	7.5700	0	37.8170	8	29.559	0	247.960	0	162.4	4	57.2	4	-1E+10	1	-1E+10	1	-1E+10	1	-1E+10	1	-1E+10	1	-1E+10	1
4901784	221	C	07/23/2021	10:47	-136.349	43.238	0	252.80	0	7.5350	0	37.8220	8	29.568	0	250.635	0	160.8	4	56.6	4	-1E+10	1	-1E+10	1	-1E+10	1	-1E+10	1	-1E+10	1	-1E+10	1
4901784	221	C	07/23/2021	10:47	-136.349	43.238	0	255.50	0	7.5080	0	37.8320	8	29.580	0	253.311	0	159.4	4	56.1	4	-1E+10	1	-1E+10	1	-1E+10	1	-1E+10	1	-1E+10	1	-1E+10	1
4901784	221	C	07/23/2021	10:47	-136.349	43.238	0	257.30	0	7.4840	0	37.8360	8	29.587	0	255.094	0	159.2	4	56.0	4	-1E+10	1	-1E+10	1	-1E+10	1	-1E+10	1	-1E+10	1	-1E+10	1
4901784	221	C	07/23/2021	10:47	-136.349	43.238	0	260.10	0	7.4450	0	37.8390	8	29.595	0	257.868	0	158.6	4	55.7	4	-1E+10	1	-1E+10	1	-1E+10	1	-1E+10	1	-1E+10	1	-1E+10	1
4901784	221	C	07/23/2021	10:47	-136.349	43.238	0	262.80	0	7.4130	0	37.8440	8	29.604	0	260.543	0	157.5	4	55.3	4	-1E+10	1	-1E+10	1	-1E+10	1	-1E+10	1	-1E+10	1	-1E+10	1
4901784	221	C	07/23/2021	10:47	-136.349	43.238	0	264.70	0	7.4020	0	37.8510	8	29.611	0	262.426	0	156.7	4	55.0	4	-1E+10	1	-1E+10	1	-1E+10	1	-1E+10	1	-1E+10	1	-1E+10	1
4901784	221	C	07/23/2021	10:47	-136.349	43.238	0	267.50	0	7.3850	0	37.8610	8	29.622	0	265.200	0	155.7	4	54.7	4	-1E+10	1	-1E+10	1	-1E+10	1	-1E+10	1	-1E+10	1	-1E+10	1
4901784	221	C	07/23/2021	10:47	-136.349	43.238	0	270.20	0	7.3790	0	37.8620	8	29.624	0	267.875	0	154.9	4	54.4	4	-1E+10	1	-1E+10	1	-1E+10	1	-1E+10	1	-1E+10	1	-1E+10	1
4901784	221	C	07/23/2021	10:47	-136.349	43.238	0	272.10	0	7.3640	0	37.8640	8	29.627	0	269.757	0	154.3	4	54.1	4	-1E+10	1	-1E+10	1	-1E+10	1	-1E+10	1	-1E+10	1	-1E+10	1
4901784	221	C	07/23/2021	10:47	-136.349	43.238	0	274.80	0	7.3470	0	37.8680	8	29.633	0	272.432	0	153.4	4	53.8	4	-1E+10	1	-1E+10	1	-1E+10	1	-1E+10	1	-1E+10	1	-1E+10	1
4901784	221	C	07/23/2021	10:47	-136.349	43.238	0	277.60	0	7.3390	0	37.8730	8	29.638	0	275.206	0	152.6	4	53.5	4	-1E+10	1	-1E+10	1	-1E+10	1	-1E+10	1	-1E+10	1	-1E+10	1
4901784	221	C	07/23/2021	10:47	-136.349	43.238	0	279.50	0	7.3300	0	37.8720	8	29.639	0	277.089	0	152.0	4	53.3	4	-1E+10	1	-1E+10	1	-1E+10	1	-1E+10	1	-1E+10	1	-1E+10	1
4901784	221	C	07/23/2021	10:47	-136.349	43.238	0	282.30	0	7.2960	0	37.8770	8	29.648	0	279.863	0	151.2	4	53.0	4	-1E+10	1	-1E+10	1	-1E+10	1	-1E+10	1	-1E+10	1	-1E+10	1
4901784	221	C	07/23/2021	10:47	-136.349	43.238	0	285.10	0	7.2720	0	37.8730	8	29.648	0	282.637	0	150.7	4	52.8	4	-1E+10	1	-1E+10	1	-1E+10	1	-1E+10	1	-1E+10	1	-1E+10	1
4901784	221	C	07/23/2021	10:47	-136.349	43.238	0	287.00	0	7.2050	0	37.8760	8	29.661	0	284.519	0	150.4	4	52.6	4	-1E+10	1	-1E+10	1	-1E+10	1	-1E+10	1	-1E+10	1	-1E+10	1
4901784	221	C	07/23/2021	10:47	-136.349	43.238	0	289.80	0	7.1480	0	37.8770	8	29.670	0	287.293	0	150.0	4	52.4	4	-1E+10	1	-1E+10	1	-1E+10	1	-1E+10	1	-1E+10	1	-1E+10	1
4901784	221	C	07/23/2021	10:47	-136.349	43.238	0	292.60	0	7.1140	0	37.8780	8	29.676	0	290.067	0	149.3	4	52.1	4	-1E+10	1	-1E+10	1	-1E+10	1	-1E+10	1	-1E+10	1	-1E+10	1
4901784	221	C	07/23/2021	10:47	-136.349	43.238	0	294.50	0	7.0930	0	37.8820	8	29.682	0	291.949	0	148.5	4	51.8	4	-1E+10	1	-1E+10	1	-1E+10	1	-1E+10	1	-1E+10	1	-1E+10	1
4901784	221	C	07/23/2021	10:47	-136.349	43.238	0	297.30	0	7.0620	0	37.8800	8	29.685	0	294.723	0	147.4	4	51.4	4	-1E+10	1	-1E+10	1	-1E+10	1	-1E+10	1	-1E+10	1	-1E+10	1
4901784	221	C	07/23/2021	10:47	-136.349	43.238	0	300.10	0	7.0280	0	37.8800	8	29.690	0	297.496	0	146.0	4	50.9	4	-1E+10	1	-1E+10	1	-1E+10	1	-1E+10	1	-1E+10	1	-1E+10	1
4901784	221	C	07/23/2021	10:47	-136.349	43.238	0	302.00	0	7.0020	0	37.8830	8	29.696	0	299.378	0	144.8	4	50.4	4	-1E+10	1	-1E+10	1	-1E+10	1	-1E+10	1	-1E+10	1	-1E+10	1
4901784	221	C	07/23/2021	10:47	-136.349	43.238	0	304.80	0	6.9720	0	37.8870	8	29.704	0	302.152	0	143.6	4	49.9	4	-1E+10	1	-1E+10	1	-1E+10	1	-1E+10	1	-1E+10	1	-1E+10	1
4901784	221	C	07/23/2021	10:47	-136.349	43.238	0	307.60	0	6.9200	0	37.8870	8	29.711	0	304.926	0	142.3	4	49.4	4	-1E+10	1	-1E+10	1	-1E+10	1	-1E+10	1	-1E+10	1	-1E+10	1
4901784	221	C	07/23/2021	10:47	-136.349	43.238	0	310.30	0	6.8510	0	37.8910	8	29.725	0	307.600	0	141.2	4	49.0	4	-1E+10	1	-1E+10	1	-1E+10	1	-1E+10	1	-1E+10	1	-1E+10	1
4901784	221	C	07/23/2021	10:47	-136.349	43.238	0	313.10	0	6.8020	0	37.8940	8	29.734	0	310.374	0	140.2	4	48.6	4	-1E+10	1	-1E+10	1	-1E+10	1	-1E+10	1	-1E+10	1	-1E+10	1
4901784	221	C	07/23/2021	10:47	-136.349	43.238	0	315.00	0	6.7790	0	37.8960	8	29.739	0	312.256	0	139.6	4	48.4	4	-1E+10	1	-1E+10	1	-1E+10	1	-1E+10	1	-1E+10	1	-1E+10	1
4901784	221	C	07/23/2021	10:47	-136.349	43.238	0	317.80	0	6.7710	0	37.8960	8	29.740	0	315.029	0	138.5	4	48.0	4	-1E+10	1	-1E+10	1	-1E+10	1	-1E+10	1	-1E+10	1	-1E+10	1
4901784	221	C	07/23/2021	10:47	-136.349	43.238	0	320.50	0	6.7360	0	37.8980	8	29.747	0	317.704	0	137.5	4	47.6	4	-1E+10	1	-1E+10	1	-1E+10	1	-1E+10	1	-1E+10	1	-1E+10	1
4901784	221	C	07/23/2021	10:47	-136.349	43.238	0	322.40	0	6.7150	0	37.8980	8	29.750	0	319.586	0	136.6	4	47.2	4	-1E+10	1	-1E+10	1	-1E+10	1	-1E+10	1	-1E+10	1	-1E+10	1
4901784	221	C	07/23/2021	10:47	-136.349	43.238	0	324.40	0	6.6680	0	37.8980	8	29.757	0	321.567	0	135.6	4	46.9	4	-1E+10	1	-1E+10	1	-1E+10	1	-1E+10	1	-1E+10	1	-1E+10	1
4901784	221	C	07/23/2021	10:47	-136.349	43.238	0	327.20	0	6.6160	0	37.9030	8	29.768	0	324.340	0	134.3	4	46.3	4	-1E+10	1	-1E+10	1	-1E+10	1	-1E+10	1	-1E+10	1	-1E+10	1
4901784	221	C	07/23/2021	10:47	-136.349	43.238	0	330.00	0	6.5820	0	37.9030	8	29.773	0	327.113	0	132.7	4	45.8	4	-1E+10	1	-1E+10	1	-1E+10	1	-1E+10	1	-1E+10	1	-1E+10	1
4901784	221	C	07/23/2021	10:47	-136.349	43.238	0	332.80	0	6.5440	0	37.9020	8	29.777	0	329.887	0	131.0	4	45.1	4	-1E+10	1	-1E+10	1	-1E+10	1	-1E+10	1	-1E+10	1	-1E+10	1
4901784	221	C	07/23/2021	10:47	-136.349	43.238	0	335.60	0	6.4980	0	37.9030	8	29.785	0	332.660	0	129.1	4	44.4	4	-1E+10	1	-1E+10	1	-1E+10	1	-1E+10	1	-1E+10	1	-1E+10	1
4901784	221	C	07/23/2021	10:47	-136.349	43.238	0	337.50	0	6.4680	0	37.9040	8	29.790	0	334.542	0	127.8	4	44.0	4	-1E+10	1	-1E+10	1	-1E+10	1	-1E+10	1	-1E+10	1	-1E+10	1
4901784	221	C	07/23/2021	10:47	-136.349	43.238	0	339.40	0	6.4360	0	37.9040	8	29.794	0	336.423	0	126.8	4	43.6	4	-1E+10	1	-1E+10	1	-1E+10	1	-1E+10	1	-1E+10	1	-1E+10	1
4901784	221	C	07/23/2021	10:47	-136.349	43.238	0	342.20	0	6.3500	0	37.9110	8	29.812	0	339.197	0	125.5	4	43.1	4	-1E+10	1	-1E+10	1	-1E+10	1	-1E+10	1	-1E+10	1	-1E+10	1
4901784	221	C	07/23/2021	10:47	-136.349	43.238	0	345.00	0	6.3310	0	37.9110	8	29.814	0	341.970	0	124.4	4	42.7	4	-1E+10	1	-1E+10	1	-1E+10	1	-1E+10	1	-1E+10	1	-1E+10	1
4901784	221	C	07/23/2021	10:47	-136.349	43.238	0	347.80	0	6.2850	0	37.9130	8	29.822	0	344.743	0	122.9	4	42.1	4	-1E+10	1	-1E+10	1	-1E+10	1	-1E+10	1	-1E+10	1	-1E+10	1
4901784	221	C	07/23/2021	10:47	-136.349	43.238	0	350.60	0	6.2510	0	37.9140	8	29.828	0	347.516	0	121.5	4	41.6	4	-1E+10	1	-1E+10	1	-1E+10	1	-1E+10	1	-1E+10	1	-1E+10	1
4901784	221	C	07/23/2021	10:47	-136.349	43.238	0	352.50	0	6.2370	0	37.9140	8	29.830	0	349.397	0	120.6	4	41.3	4	-1E+10	1	-1E+10	1	-1E+10	1	-1E+10	1	-1E+10	1	-1E+10	1
4901784	221	C	07/23/2021	10:47	-136.349	43.238	0	355.30	0	6.1950	0	37.9150	8	29.836	0	352.170	0	118.7	4	40.6	4	-1E+10	1	-1E+10	1	-1E+10	1	-1E+10	1	-1E+10	1	-1E+10	1
4901784	221	C	07/23/2021	10:47	-136.349	43.238	0	358.10	0	6.1320	0	37.9210	8	29.850	0	354.943	0	117.2	4	40.0	4	-1E+10	1	-1E+10	1	-1E+10	1	-1E+10	1	-1E+10	1	-1E+10	1
4901784	221	C	07/23/2021	10:47	-136.349	43.238	0	360.00	0	6.1130	0	37.9230	8	29.854	0	356.825	0	116.5	4	39.8	4	-1E+10	1	-1E+10	1	-1E+10	1	-1E+10	1	-1E+10	1	-1E+10	1
4901784	221	C	07/23/2021	10:47	-136.349	43.238	0	362.80	0	6.0940	0	37.9230	8	29.857	0	359.598	0	115.4	4	39.4	4	-1E+10	1	-1E+10	1	-1E+10	1	-1E+10	1	-1E+10	1	-1E+10	1
4901784	221	C	07/23/2021	10:47	-136.349	43.238	0	365.60	0	6.0610	0	37.9250	8	29.863	0	362.371	0	114.4	4	39.0	4	-1E+10	1	-1E+10	1	-1E+10	1	-1E+10	1	-1E+10	1	-1E+10	1
4901784	221	C	07/23/2021	10:47	-136.349	43.238	0	367.40	0	6.0420	0	37.9260	8	29.866	0	364.153	0	113.8	4	38.8	4	-1E+10	1	-1E+10	1	-1E+10	1	-1E+10	1	-1E+10	1	-1E+10	1
4901784	221	C	07/23/2021	10:47	-136.349	43.238	0	370.30	0	6.0230	0	37.9260	8	29.869	0	367.025	0	112.7	4	38.4	4	-1E+10	1	-1E+10	1	-1E+10	1	-1E+10	1	-1E+10	1	-1E+10	1
4901784	221	C	07/23/2021	10:47	-136.349	43.238	0	373.00	0	5.9790	0	37.9290	8	29.877	0	369.699	0	111.6	4	38.0	4	-1E+10	1	-1E+10	1	-1E+10	1	-1E+10	1	-1E+10	1	-1E+10	1
4901784	221	C	07/23/2021	10:47	-136.349	43.238	0	374.90	0	5.9550	0	37.9300	8	29.881	0	371.580	0	110.9	4	37.7	4	-1E+10	1	-1E+10	1	-1E+10	1	-1E+10	1	-1E+10	1	-1E+10	1
4901784	221	C	07/23/2021	10:47	-136.349	43.238	0	377.70	0	5.9250	0	37.9320	8	29.887	0	374.353	0	109.9	4	37.3	4	-1E+10	1	-1E+10	1	-1E+10	1	-1E+10	1	-1E+10	1	-1E+10	1
4901784	221	C	07/23/2021	10:47	-136.349	43.238	0	380.60	0	5.9080	0	37.9320	8	29.889	0	377.225	0	108.7	4	36.9	4	-1E+10	1	-1E+10	1	-1E+10	1	-1E+10	1	-1E+10	1	-1E+10	1
4901784	221	C	07/23/2021	10:47	-136.349	43.238	0	382.50	0	5.8790	0	37.9350	8	29.895	0	379.106	0	107.9	4	36.6	4	-1E+10	1	-1E+10	1	-1E+10	1	-1E+10	1	-1E+10	1	-1E+10	1
4901784	221	C	07/23/2021	10:47	-136.349	43.238	0	384.30	0	5.8710	0	37.9350	8	29.896	0	380.888	0	107.2	4	36.4	4	-1E+10	1	-1E+10	1	-1E+10	1	-1E+10	1	-1E+10	1	-1E+10	1
4901784	221	C	07/23/2021	10:47	-136.349	43.238	0	387.40	0	5.8510	0	37.9360	8	29.900	0	383.958	0	105.9	4	35.9	4	-1E+10	1	-1E+10	1	-1E+10	1	-1E+10	1	-1E+10	1	-1E+10	1
4901784	221	C	07/23/2021	10:47	-136.349	43.238	0	390.30	0	5.7990	0	37.9400	8	29.910	0	386.830	0	104.4	4	35.4	4	-1E+10	1	-1E+10	1	-1E+10	1	-1E+10	1	-1E+10	1	-1E+10	1
4901784	221	C	07/23/2021	10:47	-136.349	43.238	0	392.70	0	5.7550	0	37.9410	8	29.917	0	389.206	0	103.4	4	35.0	4	-1E+10	1	-1E+10	1	-1E+10	1	-1E+10	1	-1E+10	1	-1E+10	1
4901784	221	C	07/23/2021	10:47	-136.349	43.238	0	395.10	0	5.6890	0	37.9460	8	29.929	0	391.582	0	102.3	4	34.6	4	-1E+10	1	-1E+10	1	-1E+10	1	-1E+10	1	-1E+10	1	-1E+10	1
4901784	221	C	07/23/2021	10:47	-136.349	43.238	0	397.50	0	5.6760	0	37.9470	8	29.932	0	393.959	0	101.3	4	34.2	4	-1E+10	1	-1E+10	1	-1E+10	1	-1E+10	1	-1E+10	1	-1E+10	1
4901784	221	C	07/23/2021	10:47	-136.349	43.238	0	399.90	0	5.6470	0	37.9510	8	29.939	0	396.335	0	100.4	4	33.9	4	-1E+10	1	-1E+10	1	-1E+10	1	-1E+10	1	-1E+10	1	-1E+10	1
4901784	221	C	07/23/2021	10:47	-136.349	43.238	0	402.30	0	5.6270	0	37.9520	8	29.942	0	398.711	0	99.5	4	33.6	4	-1E+10	1	-1E+10	1	-1E+10	1	-1E+10	1	-1E+10	1	-1E+10	1
4901784	221	C	07/23/2021	10:47	-136.349	43.238	0	405.40	0	5.5870	0	37.9580	8	29.952	0	401.781	0	98.4	4	33.2	4	-1E+10	1	-1E+10	1	-1E+10	1	-1E+10	1	-1E+10	1	-1E+10	1
4901784	221	C	07/23/2021	10:47	-136.349	43.238	0	407.80	0	5.5790	0	37.9580	8	29.953	0	404.157	0	97.7	4	32.9	4	-1E+10	1	-1E+10	1	-1E+10	1	-1E+10	1	-1E+10	1	-1E+10	1
4901784	221	C	07/23/2021	10:47	-136.349	43.238	0	410.30	0	5.5660	0	37.9580	8	29.955	0	406.632	0	96.7	4	32.6	4	-1E+10	1	-1E+10	1	-1E+10	1	-1E+10	1	-1E+10	1	-1E+10	1
4901784	221	C	07/23/2021	10:47	-136.349	43.238	0	412.80	0	5.5470	0	37.9580	8	29.958	0	409.107	0	95.3	4	32.1	4	-1E+10	1	-1E+10	1	-1E+10	1	-1E+10	1	-1E+10	1	-1E+10	1
4901784	221	C	07/23/2021	10:47	-136.349	43.238	0	415.30	0	5.4990	0	37.9650	8	29.969	0	411.582	0	94.1	4	31.7	4	-1E+10	1	-1E+10	1	-1E+10	1	-1E+10	1	-1E+10	1	-1E+10	1
4901784	221	C	07/23/2021	10:47	-136.349	43.238	0	417.70	0	5.4630	0	37.9690	8	29.977	0	413.959	0	93.2	4	31.3	4	-1E+10	1	-1E+10	1	-1E+10	1	-1E+10	1	-1E+10	1	-1E+10	1
4901784	221	C	07/23/2021	10:47	-136.349	43.238	0	420.20	0	5.4380	0	37.9720	8	29.983	0	416.434	0	92.5	4	31.1	4	-1E+10	1	-1E+10	1	-1E+10	1	-1E+10	1	-1E+10	1	-1E+10	1
4901784	221	C	07/23/2021	10:47	-136.349	43.238	0	422.60	0	5.4330	0	37.9720	8	29.984	0	418.810	0	91.7	4	30.8	4	-1E+10	1	-1E+10	1	-1E+10	1	-1E+10	1	-1E+10	1	-1E+10	1
4901784	221	C	07/23/2021	10:47	-136.349	43.238	0	425.10	0	5.4130	0	37.9730	8	29.987	0	421.285	0	90.6	4	30.4	4	-1E+10	1	-1E+10	1	-1E+10	1	-1E+10	1	-1E+10	1	-1E+10	1
4901784	221	C	07/23/2021	10:47	-136.349	43.238	0	427.60	0	5.3930	0	37.9740	8	29.990	0	423.760	0	89.3	4	30.0	4	-1E+10	1	-1E+10	1	-1E+10	1	-1E+10	1	-1E+10	1	-1E+10	1
4901784	221	C	07/23/2021	10:47	-136.349	43.238	0	430.10	0	5.3630	0	37.9790	8	29.998	0	426.235	0	87.9	4	29.5	4	-1E+10	1	-1E+10	1	-1E+10	1	-1E+10	1	-1E+10	1	-1E+10	1
4901784	221	C	07/23/2021	10:47	-136.349	43.238	0	432.60	0	5.3510	0	37.9820	8	30.002	0	428.710	0	86.5	4	29.0	4	-1E+10	1	-1E+10	1	-1E+10	1	-1E+10	1	-1E+10	1	-1E+10	1
4901784	221	C	07/23/2021	10:47	-136.349	43.238	0	435.20	0	5.3480	0	37.9850	8	30.005	0	431.284	0	84.7	4	28.4	4	-1E+10	1	-1E+10	1	-1E+10	1	-1E+10	1	-1E+10	1	-1E+10	1
4901784	221	C	07/23/2021	10:47	-136.349	43.238	0	437.70	0	5.3400	0	37.9880	8	30.008	0	433.759	0	83.4	4	28.0	4	-1E+10	1	-1E+10	1	-1E+10	1	-1E+10	1	-1E+10	1	-1E+10	1
4901784	221	C	07/23/2021	10:47	-136.349	43.238	0	440.20	0	5.3210	0	37.9910	8	30.013	0	436.233	0	82.9	4	27.8	4	-1E+10	1	-1E+10	1	-1E+10	1	-1E+10	1	-1E+10	1	-1E+10	1
4901784	221	C	07/23/2021	10:47	-136.349	43.238	0	442.70	0	5.3100	0	37.9900	8	30.014	0	438.708	0	82.8	4	27.8	4	-1E+10	1	-1E+10	1	-1E+10	1	-1E+10	1	-1E+10	1	-1E+10	1
4901784	221	C	07/23/2021	10:47	-136.349	43.238	0	445.30	0	5.2760	0	37.9920	8	30.020	0	441.282	0	82.6	4	27.7	4	-1E+10	1	-1E+10	1	-1E+10	1	-1E+10	1	-1E+10	1	-1E+10	1
4901784	221	C	07/23/2021	10:47	-136.349	43.238	0	447.80	0	5.2510	0	37.9960	8	30.026	0	443.757	0	81.9	4	27.4	4	-1E+10	1	-1E+10	1	-1E+10	1	-1E+10	1	-1E+10	1	-1E+10	1
4901784	221	C	07/23/2021	10:47	-136.349	43.238	0	450.40	0	5.2250	0	37.9970	8	30.030	0	446.331	0	81.4	4	27.2	4	-1E+10	1	-1E+10	1	-1E+10	1	-1E+10	1	-1E+10	1	-1E+10	1
4901784	221	C	07/23/2021	10:47	-136.349	43.238	0	452.90	0	5.1950	0	38.0000	8	30.036	0	448.805	0	80.5	4	26.9	4	-1E+10	1	-1E+10	1	-1E+10	1	-1E+10	1	-1E+10	1	-1E+10	1
4901784	221	C	07/23/2021	10:47	-136.349	43.238	0	454.70	0	5.1710	0	38.0020	8	30.041	0	450.587	0	79.6	4	26.6	4	-1E+10	1	-1E+10	1	-1E+10	1	-1E+10	1	-1E+10	1	-1E+10	1
4901784	221	C	07/23/2021	10:47	-136.349	43.238	0	457.30	0	5.1720	0	38.0030	8	30.042	0	453.161	0	77.7	4	25.9	4	-1E+10	1	-1E+10	1	-1E+10	1	-1E+10	1	-1E+10	1	-1E+10	1
4901784	221	C	07/23/2021	10:47	-136.349	43.238	0	459.90	0	5.1760	0	38.0050	8	30.043	0	455.734	0	75.8	4	25.3	4	-1E+10	1	-1E+10	1	-1E+10	1	-1E+10	1	-1E+10	1	-1E+10	1
4901784	221	C	07/23/2021	10:47	-136.349	43.238	0	462.60	0	5.1430	0	38.0100	8	30.051	0	458.407	0	74.8	4	25.0	4	-1E+10	1	-1E+10	1	-1E+10	1	-1E+10	1	-1E+10	1	-1E+10	1
4901784	221	C	07/23/2021	10:47	-136.349	43.238	0	465.20	0	5.1160	0	38.0120	8	30.056	0	460.980	0	74.7	4	24.9	4	-1E+10	1	-1E+10	1	-1E+10	1	-1E+10	1	-1E+10	1	-1E+10	1
4901784	221	C	07/23/2021	10:47	-136.349	43.238	0	467.90	0	5.0770	0	38.0140	8	30.063	0	463.653	0	75.2	4	25.1	4	-1E+10	1	-1E+10	1	-1E+10	1	-1E+10	1	-1E+10	1	-1E+10	1
4901784	221	C	07/23/2021	10:47	-136.349	43.238	0	470.50	0	5.0470	0	38.0160	8	30.068	0	466.226	0	74.6	4	24.8	4	-1E+10	1	-1E+10	1	-1E+10	1	-1E+10	1	-1E+10	1	-1E+10	1
4901784	221	C	07/23/2021	10:47	-136.349	43.238	0	472.30	0	5.0300	0	38.0190	8	30.072	0	468.008	0	73.7	4	24.6	4	-1E+10	1	-1E+10	1	-1E+10	1	-1E+10	1	-1E+10	1	-1E+10	1
4901784	221	C	07/23/2021	10:47	-136.349	43.238	0	475.00	0	5.0020	0	38.0230	8	30.079	0	470.680	0	73.1	4	24.3	4	-1E+10	1	-1E+10	1	-1E+10	1	-1E+10	1	-1E+10	1	-1E+10	1
4901784	221	C	07/23/2021	10:47	-136.349	43.238	0	477.80	0	4.9870	0	38.0240	8	30.082	0	473.452	0	72.7	4	24.2	4	-1E+10	1	-1E+10	1	-1E+10	1	-1E+10	1	-1E+10	1	-1E+10	1
4901784	221	C	07/23/2021	10:47	-136.349	43.238	0	479.60	0	4.9740	0	38.0250	8	30.084	0	475.233	0	72.3	4	24.1	4	-1E+10	1	-1E+10	1	-1E+10	1	-1E+10	1	-1E+10	1	-1E+10	1
4901784	221	C	07/23/2021	10:47	-136.349	43.238	0	482.30	0	4.9460	0	38.0270	8	30.089	0	477.906	0	71.8	4	23.9	4	-1E+10	1	-1E+10	1	-1E+10	1	-1E+10	1	-1E+10	1	-1E+10	1
4901784	221	C	07/23/2021	10:47	-136.349	43.238	0	485.00	0	4.9140	0	38.0300	8	30.096	0	480.578	0	71.0	4	23.6	4	-1E+10	1	-1E+10	1	-1E+10	1	-1E+10	1	-1E+10	1	-1E+10	1
4901784	221	C	07/23/2021	10:47	-136.349	43.238	0	487.70	0	4.8900	0	38.0320	8	30.100	0	483.250	0	70.0	4	23.2	4	-1E+10	1	-1E+10	1	-1E+10	1	-1E+10	1	-1E+10	1	-1E+10	1
4901784	221	C	07/23/2021	10:47	-136.349	43.238	0	490.50	0	4.8740	0	38.0340	8	30.104	0	486.021	0	68.9	4	22.9	4	-1E+10	1	-1E+10	1	-1E+10	1	-1E+10	1	-1E+10	1	-1E+10	1
4901784	221	C	07/23/2021	10:47	-136.349	43.238	0	492.40	0	4.8470	0	38.0390	8	30.111	0	487.902	0	68.2	4	22.6	4	-1E+10	1	-1E+10	1	-1E+10	1	-1E+10	1	-1E+10	1	-1E+10	1
4901784	221	C	07/23/2021	10:47	-136.349	43.238	0	495.10	0	4.8270	0	38.0410	8	30.115	0	490.574	0	67.2	4	22.3	4	-1E+10	1	-1E+10	1	-1E+10	1	-1E+10	1	-1E+10	1	-1E+10	1
4901784	221	C	07/23/2021	10:47	-136.349	43.238	0	497.90	0	4.8060	0	38.0450	8	30.121	0	493.345	0	66.3	4	22.0	4	-1E+10	1	-1E+10	1	-1E+10	1	-1E+10	1	-1E+10	1	-1E+10	1
4901784	221	C	07/23/2021	10:47	-136.349	43.238	0	499.80	0	4.7730	0	38.0500	8	30.129	0	495.225	0	66.3	4	21.9	4	-1E+10	1	-1E+10	1	-1E+10	1	-1E+10	1	-1E+10	1	-1E+10	1
4901784	221	C	07/23/2021	10:47	-136.349	43.238	0	505.50	0	4.7340	0	38.0530	8	30.136	0	500.866	0	65.2	4	21.6	4	-1E+10	1	-1E+10	1	-1E+10	1	-1E+10	1	-1E+10	1	-1E+10	1
4901784	221	C	07/23/2021	10:47	-136.349	43.238	0	510.90	0	4.7050	0	38.0590	8	30.144	0	506.210	0	64.0	4	21.1	4	-1E+10	1	-1E+10	1	-1E+10	1	-1E+10	1	-1E+10	1	-1E+10	1
4901784	221	C	07/23/2021	10:47	-136.349	43.238	0	515.30	0	4.6950	0	38.0610	8	30.147	0	510.564	0	62.9	4	20.8	4	-1E+10	1	-1E+10	1	-1E+10	1	-1E+10	1	-1E+10	1	-1E+10	1
4901784	221	C	07/23/2021	10:47	-136.349	43.238	0	520.20	0	4.6690	0	38.0650	8	30.153	0	515.413	0	61.2	4	20.2	4	-1E+10	1	-1E+10	1	-1E+10	1	-1E+10	1	-1E+10	1	-1E+10	1
4901784	221	C	07/23/2021	10:47	-136.349	43.238	0	525.10	0	4.6340	0	38.0730	8	30.164	0	520.262	0	59.6	4	19.7	4	-1E+10	1	-1E+10	1	-1E+10	1	-1E+10	1	-1E+10	1	-1E+10	1
4901784	221	C	07/23/2021	10:47	-136.349	43.238	0	530.20	0	4.6080	0	38.0780	8	30.171	0	525.309	0	58.3	4	19.2	4	-1E+10	1	-1E+10	1	-1E+10	1	-1E+10	1	-1E+10	1	-1E+10	1
4901784	221	C	07/23/2021	10:47	-136.349	43.238	0	535.30	0	4.5850	0	38.0830	8	30.178	0	530.355	0	56.9	4	18.8	4	-1E+10	1	-1E+10	1	-1E+10	1	-1E+10	1	-1E+10	1	-1E+10	1
4901784	221	C	07/23/2021	10:47	-136.349	43.238	0	540.30	0	4.5680	0	38.0880	8	30.184	0	535.302	0	55.7	4	18.4	4	-1E+10	1	-1E+10	1	-1E+10	1	-1E+10	1	-1E+10	1	-1E+10	1
4901784	221	C	07/23/2021	10:47	-136.349	43.238	0	545.40	0	4.5480	0	38.0930	8	30.190	0	540.349	0	54.8	4	18.1	4	-1E+10	1	-1E+10	1	-1E+10	1	-1E+10	1	-1E+10	1	-1E+10	1
4901784	221	C	07/23/2021	10:47	-136.349	43.238	0	550.50	0	4.5380	0	38.0960	8	30.194	0	545.395	0	53.6	4	17.7	4	-1E+10	1	-1E+10	1	-1E+10	1	-1E+10	1	-1E+10	1	-1E+10	1
4901784	221	C	07/23/2021	10:47	-136.349	43.238	0	555.70	0	4.5260	0	38.1020	8	30.200	0	550.540	0	52.2	4	17.2	4	-1E+10	1	-1E+10	1	-1E+10	1	-1E+10	1	-1E+10	1	-1E+10	1
4901784	221	C	07/23/2021	10:47	-136.349	43.238	0	560.10	0	4.5130	0	38.1070	8	30.206	0	554.893	0	51.4	4	16.9	4	-1E+10	1	-1E+10	1	-1E+10	1	-1E+10	1	-1E+10	1	-1E+10	1
4901784	221	C	07/23/2021	10:47	-136.349	43.238	0	564.50	0	4.4870	0	38.1120	8	30.213	0	559.246	0	50.6	4	16.6	4	-1E+10	1	-1E+10	1	-1E+10	1	-1E+10	1	-1E+10	1	-1E+10	1
4901784	221	C	07/23/2021	10:47	-136.349	43.238	0	569.70	0	4.4860	0	38.1150	8	30.216	0	564.391	0	49.2	4	16.2	4	-1E+10	1	-1E+10	1	-1E+10	1	-1E+10	1	-1E+10	1	-1E+10	1
4901784	221	C	07/23/2021	10:47	-136.349	43.238	0	575.10	0	4.4910	0	38.1180	8	30.217	0	569.733	0	46.9	4	15.4	4	-1E+10	1	-1E+10	1	-1E+10	1	-1E+10	1	-1E+10	1	-1E+10	1
4901784	221	C	07/23/2021	10:47	-136.349	43.238	0	580.30	0	4.4890	0	38.1270	8	30.225	0	574.877	0	45.0	4	14.8	4	-1E+10	1	-1E+10	1	-1E+10	1	-1E+10	1	-1E+10	1	-1E+10	1
4901784	221	C	07/23/2021	10:47	-136.349	43.238	0	584.80	0	4.4640	0	38.1320	8	30.232	0	579.329	0	44.4	4	14.6	4	-1E+10	1	-1E+10	1	-1E+10	1	-1E+10	1	-1E+10	1	-1E+10	1
4901784	221	C	07/23/2021	10:47	-136.349	43.238	0	589.30	0	4.4330	0	38.1370	8	30.239	0	583.781	0	43.5	4	14.3	4	-1E+10	1	-1E+10	1	-1E+10	1	-1E+10	1	-1E+10	1	-1E+10	1
4901784	221	C	07/23/2021	10:47	-136.349	43.238	0	594.60	0	4.4290	0	38.1440	8	30.246	0	589.023	0	41.7	4	13.7	4	-1E+10	1	-1E+10	1	-1E+10	1	-1E+10	1	-1E+10	1	-1E+10	1
4901784	221	C	07/23/2021	10:47	-136.349	43.238	0	600.00	0	4.4200	0	38.1510	8	30.252	0	594.365	0	39.4	4	12.9	4	-1E+10	1	-1E+10	1	-1E+10	1	-1E+10	1	-1E+10	1	-1E+10	1
4901784	221	C	07/23/2021	10:47	-136.349	43.238	0	605.40	0	4.4350	0	38.1600	8	30.258	0	599.707	0	36.4	4	12.0	4	-1E+10	1	-1E+10	1	-1E+10	1	-1E+10	1	-1E+10	1	-1E+10	1
4901784	221	C	07/23/2021	10:47	-136.349	43.238	0	610.00	0	4.4520	0	38.1670	8	30.261	0	604.257	0	34.1	4	11.2	4	-1E+10	1	-1E+10	1	-1E+10	1	-1E+10	1	-1E+10	1	-1E+10	1
4901784	221	C	07/23/2021	10:47	-136.349	43.238	0	614.50	0	4.4500	0	38.1730	8	30.266	0	608.708	0	32.3	4	10.6	4	-1E+10	1	-1E+10	1	-1E+10	1	-1E+10	1	-1E+10	1	-1E+10	1
4901784	221	C	07/23/2021	10:47	-136.349	43.238	0	620.10	0	4.4370	0	38.1810	8	30.274	0	614.247	0	30.7	4	10.1	4	-1E+10	1	-1E+10	1	-1E+10	1	-1E+10	1	-1E+10	1	-1E+10	1
4901784	221	C	07/23/2021	10:47	-136.349	43.238	0	625.60	0	4.4280	0	38.1880	8	30.281	0	619.687	0	29.4	4	9.7	4	-1E+10	1	-1E+10	1	-1E+10	1	-1E+10	1	-1E+10	1	-1E+10	1
4901784	221	C	07/23/2021	10:47	-136.349	43.238	0	630.20	0	4.4130	0	38.1940	8	30.288	0	624.236	0	28.3	4	9.3	4	-1E+10	1	-1E+10	1	-1E+10	1	-1E+10	1	-1E+10	1	-1E+10	1
4901784	221	C	07/23/2021	10:47	-136.349	43.238	0	635.00	0	4.3970	0	38.2020	8	30.296	0	628.983	0	27.2	4	9.0	4	-1E+10	1	-1E+10	1	-1E+10	1	-1E+10	1	-1E+10	1	-1E+10	1
4901784	221	C	07/23/2021	10:47	-136.349	43.238	0	640.50	0	4.3840	0	38.2100	8	30.304	0	634.423	0	26.0	4	8.6	4	-1E+10	1	-1E+10	1	-1E+10	1	-1E+10	1	-1E+10	1	-1E+10	1
4901784	221	C	07/23/2021	10:47	-136.349	43.238	0	645.20	0	4.3680	0	38.2180	8	30.312	0	639.071	0	25.2	4	8.3	4	-1E+10	1	-1E+10	1	-1E+10	1	-1E+10	1	-1E+10	1	-1E+10	1
4901784	221	C	07/23/2021	10:47	-136.349	43.238	0	649.80	0	4.3540	0	38.2250	8	30.319	0	643.620	0	24.6	4	8.1	4	-1E+10	1	-1E+10	1	-1E+10	1	-1E+10	1	-1E+10	1	-1E+10	1
4901784	221	C	07/23/2021	10:47	-136.349	43.238	0	655.40	0	4.3390	0	38.2290	8	30.324	0	649.158	0	24.2	4	7.9	4	-1E+10	1	-1E+10	1	-1E+10	1	-1E+10	1	-1E+10	1	-1E+10	1
4901784	221	C	07/23/2021	10:47	-136.349	43.238	0	660.10	0	4.3190	0	38.2350	8	30.332	0	653.806	0	23.8	4	7.8	4	-1E+10	1	-1E+10	1	-1E+10	1	-1E+10	1	-1E+10	1	-1E+10	1
4901784	221	C	07/23/2021	10:47	-136.349	43.238	0	664.70	0	4.3080	0	38.2380	8	30.335	0	658.355	0	23.6	4	7.7	4	-1E+10	1	-1E+10	1	-1E+10	1	-1E+10	1	-1E+10	1	-1E+10	1
4901784	221	C	07/23/2021	10:47	-136.349	43.238	0	670.30	0	4.2940	0	38.2420	8	30.340	0	663.893	0	23.3	4	7.6	4	-1E+10	1	-1E+10	1	-1E+10	1	-1E+10	1	-1E+10	1	-1E+10	1
4901784	221	C	07/23/2021	10:47	-136.349	43.238	0	675.00	0	4.2910	0	38.2430	8	30.341	0	668.540	0	22.9	4	7.5	4	-1E+10	1	-1E+10	1	-1E+10	1	-1E+10	1	-1E+10	1	-1E+10	1
4901784	221	C	07/23/2021	10:47	-136.349	43.238	0	679.60	0	4.2820	0	38.2480	8	30.346	0	673.089	0	22.2	4	7.3	4	-1E+10	1	-1E+10	1	-1E+10	1	-1E+10	1	-1E+10	1	-1E+10	1
4901784	221	C	07/23/2021	10:47	-136.349	43.238	0	685.30	0	4.2700	0	38.2530	8	30.352	0	678.725	0	21.9	4	7.2	4	-1E+10	1	-1E+10	1	-1E+10	1	-1E+10	1	-1E+10	1	-1E+10	1
4901784	221	C	07/23/2021	10:47	-136.349	43.238	0	689.90	0	4.2420	0	38.2570	8	30.358	0	683.273	0	21.5	4	7.0	4	-1E+10	1	-1E+10	1	-1E+10	1	-1E+10	1	-1E+10	1	-1E+10	1
4901784	221	C	07/23/2021	10:47	-136.349	43.238	0	694.60	0	4.2370	0	38.2630	8	30.364	0	687.920	0	20.9	4	6.8	4	-1E+10	1	-1E+10	1	-1E+10	1	-1E+10	1	-1E+10	1	-1E+10	1
4901784	221	C	07/23/2021	10:47	-136.349	43.238	0	700.30	0	4.2350	0	38.2670	8	30.367	0	693.556	0	20.1	4	6.6	4	-1E+10	1	-1E+10	1	-1E+10	1	-1E+10	1	-1E+10	1	-1E+10	1
4901784	221	C	07/23/2021	10:47	-136.349	43.238	0	705.00	0	4.2100	0	38.2740	8	30.376	0	698.203	0	19.5	4	6.4	4	-1E+10	1	-1E+10	1	-1E+10	1	-1E+10	1	-1E+10	1	-1E+10	1
4901784	221	C	07/23/2021	10:47	-136.349	43.238	0	709.70	0	4.1980	0	38.2810	8	30.383	0	702.850	0	18.9	4	6.2	4	-1E+10	1	-1E+10	1	-1E+10	1	-1E+10	1	-1E+10	1	-1E+10	1
4901784	221	C	07/23/2021	10:47	-136.349	43.238	0	715.30	0	4.1880	0	38.2880	8	30.389	0	708.386	0	18.1	4	5.9	4	-1E+10	1	-1E+10	1	-1E+10	1	-1E+10	1	-1E+10	1	-1E+10	1
4901784	221	C	07/23/2021	10:47	-136.349	43.238	0	720.10	0	4.1690	0	38.2950	8	30.397	0	713.132	0	17.4	4	5.7	4	-1E+10	1	-1E+10	1	-1E+10	1	-1E+10	1	-1E+10	1	-1E+10	1
4901784	221	C	07/23/2021	10:47	-136.349	43.238	0	724.70	0	4.1660	0	38.3020	8	30.403	0	717.679	0	16.6	4	5.4	4	-1E+10	1	-1E+10	1	-1E+10	1	-1E+10	1	-1E+10	1	-1E+10	1
4901784	221	C	07/23/2021	10:47	-136.349	43.238	0	730.50	0	4.1830	0	38.3110	8	30.408	0	723.413	0	15.7	4	5.1	4	-1E+10	1	-1E+10	1	-1E+10	1	-1E+10	1	-1E+10	1	-1E+10	1
4901784	221	C	07/23/2021	10:47	-136.349	43.238	0	735.30	0	4.1810	0	38.3180	8	30.414	0	728.158	0	15.2	4	5.0	4	-1E+10	1	-1E+10	1	-1E+10	1	-1E+10	1	-1E+10	1	-1E+10	1
4901784	221	C	07/23/2021	10:47	-136.349	43.238	0	740.00	0	4.1630	0	38.3230	8	30.420	0	732.804	0	14.7	4	4.8	4	-1E+10	1	-1E+10	1	-1E+10	1	-1E+10	1	-1E+10	1	-1E+10	1
4901784	221	C	07/23/2021	10:47	-136.349	43.238	0	744.80	0	4.1410	0	38.3310	8	30.429	0	737.549	0	14.2	4	4.6	4	-1E+10	1	-1E+10	1	-1E+10	1	-1E+10	1	-1E+10	1	-1E+10	1
4901784	221	C	07/23/2021	10:47	-136.349	43.238	0	749.70	0	4.1350	0	38.3400	8	30.437	0	742.393	0	13.8	4	4.5	4	-1E+10	1	-1E+10	1	-1E+10	1	-1E+10	1	-1E+10	1	-1E+10	1
4901784	221	C	07/23/2021	10:47	-136.349	43.238	0	755.50	0	4.1210	0	38.3480	8	30.445	0	748.126	0	13.4	4	4.4	4	-1E+10	1	-1E+10	1	-1E+10	1	-1E+10	1	-1E+10	1	-1E+10	1
4901784	221	C	07/23/2021	10:47	-136.349	43.238	0	760.30	0	4.1020	0	38.3530	8	30.451	0	752.870	0	13.3	4	4.3	4	-1E+10	1	-1E+10	1	-1E+10	1	-1E+10	1	-1E+10	1	-1E+10	1
4901784	221	C	07/23/2021	10:47	-136.349	43.238	0	765.20	0	4.0840	0	38.3570	8	30.457	0	757.713	0	13.1	4	4.3	4	-1E+10	1	-1E+10	1	-1E+10	1	-1E+10	1	-1E+10	1	-1E+10	1
4901784	221	C	07/23/2021	10:47	-136.349	43.238	0	770.60	0	4.0630	0	38.3640	8	30.465	0	763.051	0	12.9	4	4.2	4	-1E+10	1	-1E+10	1	-1E+10	1	-1E+10	1	-1E+10	1	-1E+10	1
4901784	221	C	07/23/2021	10:47	-136.349	43.238	0	775.50	0	4.0550	0	38.3680	8	30.469	0	767.894	0	12.7	4	4.1	4	-1E+10	1	-1E+10	1	-1E+10	1	-1E+10	1	-1E+10	1	-1E+10	1
4901784	221	C	07/23/2021	10:47	-136.349	43.238	0	780.40	0	4.0460	0	38.3740	8	30.475	0	772.737	0	12.5	4	4.1	4	-1E+10	1	-1E+10	1	-1E+10	1	-1E+10	1	-1E+10	1	-1E+10	1
4901784	221	C	07/23/2021	10:47	-136.349	43.238	0	785.40	0	4.0460	0	38.3770	8	30.477	0	777.678	0	12.3	4	4.0	4	-1E+10	1	-1E+10	1	-1E+10	1	-1E+10	1	-1E+10	1	-1E+10	1
4901784	221	C	07/23/2021	10:47	-136.349	43.238	0	790.40	0	4.0380	0	38.3820	8	30.482	0	782.620	0	12.1	4	3.9	4	-1E+10	1	-1E+10	1	-1E+10	1	-1E+10	1	-1E+10	1	-1E+10	1
4901784	221	C	07/23/2021	10:47	-136.349	43.238	0	795.50	0	4.0270	0	38.3870	8	30.487	0	787.660	0	12.0	4	3.9	4	-1E+10	1	-1E+10	1	-1E+10	1	-1E+10	1	-1E+10	1	-1E+10	1
4901784	221	C	07/23/2021	10:47	-136.349	43.238	0	800.50	0	4.0180	0	38.3900	8	30.491	0	792.601	0	11.9	4	3.9	4	-1E+10	1	-1E+10	1	-1E+10	1	-1E+10	1	-1E+10	1	-1E+10	1
4901784	221	C	07/23/2021	10:47	-136.349	43.238	0	805.50	0	4.0020	0	38.3950	8	30.497	0	797.542	0	11.7	4	3.8	4	-1E+10	1	-1E+10	1	-1E+10	1	-1E+10	1	-1E+10	1	-1E+10	1
4901784	221	C	07/23/2021	10:47	-136.349	43.238	0	810.60	0	3.9900	0	38.4000	8	30.502	0	802.582	0	11.5	4	3.8	4	-1E+10	1	-1E+10	1	-1E+10	1	-1E+10	1	-1E+10	1	-1E+10	1
4901784	221	C	07/23/2021	10:47	-136.349	43.238	0	815.70	0	3.9760	0	38.4060	8	30.508	0	807.622	0	11.3	4	3.7	4	-1E+10	1	-1E+10	1	-1E+10	1	-1E+10	1	-1E+10	1	-1E+10	1
4901784	221	C	07/23/2021	10:47	-136.349	43.238	0	820.70	0	3.9630	0	38.4110	8	30.514	0	812.562	0	11.2	4	3.6	4	-1E+10	1	-1E+10	1	-1E+10	1	-1E+10	1	-1E+10	1	-1E+10	1
4901784	221	C	07/23/2021	10:47	-136.349	43.238	0	825.00	0	3.9580	0	38.4140	8	30.517	0	816.811	0	11.1	4	3.6	4	-1E+10	1	-1E+10	1	-1E+10	1	-1E+10	1	-1E+10	1	-1E+10	1
4901784	221	C	07/23/2021	10:47	-136.349	43.238	0	829.40	0	3.9490	0	38.4180	8	30.521	0	821.159	0	11.0	4	3.6	4	-1E+10	1	-1E+10	1	-1E+10	1	-1E+10	1	-1E+10	1	-1E+10	1
4901784	221	C	07/23/2021	10:47	-136.349	43.238	0	834.60	0	3.9420	0	38.4220	8	30.525	0	826.297	0	10.9	4	3.6	4	-1E+10	1	-1E+10	1	-1E+10	1	-1E+10	1	-1E+10	1	-1E+10	1
4901784	221	C	07/23/2021	10:47	-136.349	43.238	0	839.90	0	3.9340	0	38.4250	8	30.529	0	831.534	0	10.8	4	3.5	4	-1E+10	1	-1E+10	1	-1E+10	1	-1E+10	1	-1E+10	1	-1E+10	1
4901784	221	C	07/23/2021	10:47	-136.349	43.238	0	845.10	0	3.9160	0	38.4300	8	30.535	0	836.672	0	10.7	4	3.5	4	-1E+10	1	-1E+10	1	-1E+10	1	-1E+10	1	-1E+10	1	-1E+10	1
4901784	221	C	07/23/2021	10:47	-136.349	43.238	0	850.50	0	3.8990	0	38.4340	8	30.540	0	842.007	0	10.7	4	3.5	4	-1E+10	1	-1E+10	1	-1E+10	1	-1E+10	1	-1E+10	1	-1E+10	1
4901784	221	C	07/23/2021	10:47	-136.349	43.238	0	854.90	0	3.8870	0	38.4380	8	30.544	0	846.354	0	10.6	4	3.4	4	-1E+10	1	-1E+10	1	-1E+10	1	-1E+10	1	-1E+10	1	-1E+10	1
4901784	221	C	07/23/2021	10:47	-136.349	43.238	0	859.40	0	3.8740	0	38.4440	8	30.551	0	850.800	0	10.5	4	3.4	4	-1E+10	1	-1E+10	1	-1E+10	1	-1E+10	1	-1E+10	1	-1E+10	1
4901784	221	C	07/23/2021	10:47	-136.349	43.238	0	864.80	0	3.8730	0	38.4470	8	30.553	0	856.135	0	10.3	4	3.4	4	-1E+10	1	-1E+10	1	-1E+10	1	-1E+10	1	-1E+10	1	-1E+10	1
4901784	221	C	07/23/2021	10:47	-136.349	43.238	0	870.20	0	3.8600	0	38.4550	8	30.561	0	861.470	0	10.2	4	3.3	4	-1E+10	1	-1E+10	1	-1E+10	1	-1E+10	1	-1E+10	1	-1E+10	1
4901784	221	C	07/23/2021	10:47	-136.349	43.238	0	874.70	0	3.8530	0	38.4590	8	30.565	0	865.915	0	10.2	4	3.3	4	-1E+10	1	-1E+10	1	-1E+10	1	-1E+10	1	-1E+10	1	-1E+10	1
4901784	221	C	07/23/2021	10:47	-136.349	43.238	0	879.20	0	3.8450	0	38.4640	8	30.570	0	870.361	0	10.1	4	3.3	4	-1E+10	1	-1E+10	1	-1E+10	1	-1E+10	1	-1E+10	1	-1E+10	1
4901784	221	C	07/23/2021	10:47	-136.349	43.238	0	884.60	0	3.8380	0	38.4670	8	30.573	0	875.695	0	10.1	4	3.3	4	-1E+10	1	-1E+10	1	-1E+10	1	-1E+10	1	-1E+10	1	-1E+10	1
4901784	221	C	07/23/2021	10:47	-136.349	43.238	0	889.40	0	3.8300	0	38.4710	8	30.577	0	880.437	0	10.0	4	3.2	4	-1E+10	1	-1E+10	1	-1E+10	1	-1E+10	1	-1E+10	1	-1E+10	1
4901784	221	C	07/23/2021	10:47	-136.349	43.238	0	894.30	0	3.8210	0	38.4760	8	30.582	0	885.277	0	9.9	4	3.2	4	-1E+10	1	-1E+10	1	-1E+10	1	-1E+10	1	-1E+10	1	-1E+10	1
4901784	221	C	07/23/2021	10:47	-136.349	43.238	0	900.00	0	3.8100	0	38.4800	8	30.587	0	890.907	0	9.9	4	3.2	4	-1E+10	1	-1E+10	1	-1E+10	1	-1E+10	1	-1E+10	1	-1E+10	1
4901784	221	C	07/23/2021	10:47	-136.349	43.238	0	905.70	0	3.7970	0	38.4840	8	30.592	0	896.537	0	9.9	4	3.2	4	-1E+10	1	-1E+10	1	-1E+10	1	-1E+10	1	-1E+10	1	-1E+10	1
4901784	221	C	07/23/2021	10:47	-136.349	43.238	0	910.70	0	3.7790	0	38.4880	8	30.597	0	901.476	0	9.9	4	3.2	4	-1E+10	1	-1E+10	1	-1E+10	1	-1E+10	1	-1E+10	1	-1E+10	1
4901784	221	C	07/23/2021	10:47	-136.349	43.238	0	915.70	0	3.7570	0	38.4930	8	30.603	0	906.415	0	9.9	4	3.2	4	-1E+10	1	-1E+10	1	-1E+10	1	-1E+10	1	-1E+10	1	-1E+10	1
4901784	221	C	07/23/2021	10:47	-136.349	43.238	0	920.00	0	3.7500	0	38.4960	8	30.606	0	910.662	0	9.9	4	3.2	4	-1E+10	1	-1E+10	1	-1E+10	1	-1E+10	1	-1E+10	1	-1E+10	1
4901784	221	C	07/23/2021	10:47	-136.349	43.238	0	924.20	0	3.7400	0	38.4990	8	30.610	0	914.810	0	9.8	4	3.2	4	-1E+10	1	-1E+10	1	-1E+10	1	-1E+10	1	-1E+10	1	-1E+10	1
4901784	221	C	07/23/2021	10:47	-136.349	43.238	0	929.30	0	3.7330	0	38.5020	8	30.613	0	919.847	0	9.8	4	3.2	4	-1E+10	1	-1E+10	1	-1E+10	1	-1E+10	1	-1E+10	1	-1E+10	1
4901784	221	C	07/23/2021	10:47	-136.349	43.238	0	934.40	0	3.7170	0	38.5060	8	30.618	0	924.884	0	9.8	4	3.2	4	-1E+10	1	-1E+10	1	-1E+10	1	-1E+10	1	-1E+10	1	-1E+10	1
4901784	221	C	07/23/2021	10:47	-136.349	43.238	0	939.60	0	3.7070	0	38.5100	8	30.622	0	930.019	0	9.8	4	3.2	4	-1E+10	1	-1E+10	1	-1E+10	1	-1E+10	1	-1E+10	1	-1E+10	1
4901784	221	C	07/23/2021	10:47	-136.349	43.238	0	944.80	0	3.6970	0	38.5160	8	30.628	0	935.155	0	9.8	4	3.2	4	-1E+10	1	-1E+10	1	-1E+10	1	-1E+10	1	-1E+10	1	-1E+10	1
4901784	221	C	07/23/2021	10:47	-136.349	43.238	0	950.00	0	3.6830	0	38.5210	8	30.634	0	940.290	0	9.8	4	3.2	4	-1E+10	1	-1E+10	1	-1E+10	1	-1E+10	1	-1E+10	1	-1E+10	1
4901784	221	C	07/23/2021	10:47	-136.349	43.238	0	955.20	0	3.6500	0	38.5270	8	30.642	0	945.425	0	9.9	4	3.2	4	-1E+10	1	-1E+10	1	-1E+10	1	-1E+10	1	-1E+10	1	-1E+10	1
4901784	221	C	07/23/2021	10:47	-136.349	43.238	0	960.50	0	3.6250	0	38.5320	8	30.649	0	950.659	0	9.9	4	3.2	4	-1E+10	1	-1E+10	1	-1E+10	1	-1E+10	1	-1E+10	1	-1E+10	1
4901784	221	C	07/23/2021	10:47	-136.349	43.238	0	965.00	0	3.6150	0	38.5360	8	30.653	0	955.102	0	9.9	4	3.2	4	-1E+10	1	-1E+10	1	-1E+10	1	-1E+10	1	-1E+10	1	-1E+10	1
4901784	221	C	07/23/2021	10:47	-136.349	43.238	0	969.50	0	3.6110	0	38.5380	8	30.656	0	959.546	0	9.9	4	3.2	4	-1E+10	1	-1E+10	1	-1E+10	1	-1E+10	1	-1E+10	1	-1E+10	1
4901784	221	C	07/23/2021	10:47	-136.349	43.238	0	975.10	0	3.6110	0	38.5400	8	30.657	0	965.075	0	9.9	4	3.2	4	-1E+10	1	-1E+10	1	-1E+10	1	-1E+10	1	-1E+10	1	-1E+10	1
4901784	221	C	07/23/2021	10:47	-136.349	43.238	0	980.60	0	3.6090	0	38.5430	8	30.660	0	970.506	0	10.0	4	3.2	4	-1E+10	1	-1E+10	1	-1E+10	1	-1E+10	1	-1E+10	1	-1E+10	1
4901784	221	C	07/23/2021	10:47	-136.349	43.238	0	985.20	0	3.6000	0	38.5460	8	30.663	0	975.048	0	10.0	4	3.2	4	-1E+10	1	-1E+10	1	-1E+10	1	-1E+10	1	-1E+10	1	-1E+10	1
4901784	221	C	07/23/2021	10:47	-136.349	43.238	0	990.50	0	3.5890	0	38.5480	8	30.666	0	980.281	0	10.0	4	3.2	4	-1E+10	1	-1E+10	1	-1E+10	1	-1E+10	1	-1E+10	1	-1E+10	1
4901784	221	C	07/23/2021	10:47	-136.349	43.238	0	995.50	0	3.5690	0	38.5520	8	30.672	0	985.218	0	10.1	4	3.3	4	-1E+10	1	-1E+10	1	-1E+10	1	-1E+10	1	-1E+10	1	-1E+10	1
4901784	221	C	07/23/2021	10:47	-136.349	43.238	0	1000.20	0	3.5470	0	38.5570	8	30.678	0	989.858	0	10.1	4	3.3	4	-1E+10	1	-1E+10	1	-1E+10	1	-1E+10	1	-1E+10	1	-1E+10	1
4901784	221	C	07/23/2021	10:47	-136.349	43.238	0	1005.00	0	3.5380	0	38.5600	8	30.681	0	994.597	0	10.2	4	3.3	4	-1E+10	1	-1E+10	1	-1E+10	1	-1E+10	1	-1E+10	1	-1E+10	1
4901784	221	C	07/23/2021	10:47	-136.349	43.238	0	1009.90	0	3.5300	0	38.5640	8	30.685	0	999.435	0	10.2	4	3.3	4	-1E+10	1	-1E+10	1	-1E+10	1	-1E+10	1	-1E+10	1	-1E+10	1
4901784	221	C	07/23/2021	10:47	-136.349	43.238	0	1014.80	0	3.5240	0	38.5660	8	30.688	0	1004.272	0	10.2	4	3.3	4	-1E+10	1	-1E+10	1	-1E+10	1	-1E+10	1	-1E+10	1	-1E+10	1
4901784	221	C	07/23/2021	10:47	-136.349	43.238	0	1019.80	0	3.5160	0	38.5680	8	30.690	0	1009.208	0	10.3	4	3.3	4	-1E+10	1	-1E+10	1	-1E+10	1	-1E+10	1	-1E+10	1	-1E+10	1
4901784	221	C	07/23/2021	10:47	-136.349	43.238	0	1024.80	0	3.5080	0	38.5700	8	30.693	0	1014.144	0	10.3	4	3.3	4	-1E+10	1	-1E+10	1	-1E+10	1	-1E+10	1	-1E+10	1	-1E+10	1
4901784	221	C	07/23/2021	10:47	-136.349	43.238	0	1029.80	0	3.4940	0	38.5730	8	30.697	0	1019.080	0	10.4	4	3.3	4	-1E+10	1	-1E+10	1	-1E+10	1	-1E+10	1	-1E+10	1	-1E+10	1
4901784	221	C	07/23/2021	10:47	-136.349	43.238	0	1034.90	0	3.4810	0	38.5760	8	30.700	0	1024.115	0	10.4	4	3.4	4	-1E+10	1	-1E+10	1	-1E+10	1	-1E+10	1	-1E+10	1	-1E+10	1
4901784	221	C	07/23/2021	10:47	-136.349	43.238	0	1040.00	0	3.4710	0	38.5790	8	30.704	0	1029.149	0	10.4	4	3.4	4	-1E+10	1	-1E+10	1	-1E+10	1	-1E+10	1	-1E+10	1	-1E+10	1
4901784	221	C	07/23/2021	10:47	-136.349	43.238	0	1045.20	0	3.4650	0	38.5810	8	30.706	0	1034.282	0	10.5	4	3.4	4	-1E+10	1	-1E+10	1	-1E+10	1	-1E+10	1	-1E+10	1	-1E+10	1
4901784	221	C	07/23/2021	10:47	-136.349	43.238	0	1050.40	0	3.4570	0	38.5840	8	30.710	0	1039.415	0	10.6	4	3.4	4	-1E+10	1	-1E+10	1	-1E+10	1	-1E+10	1	-1E+10	1	-1E+10	1
4901784	221	C	07/23/2021	10:47	-136.349	43.238	0	1055.60	0	3.4480	0	38.5860	8	30.712	0	1044.547	0	10.6	4	3.4	4	-1E+10	1	-1E+10	1	-1E+10	1	-1E+10	1	-1E+10	1	-1E+10	1
4901784	221	C	07/23/2021	10:47	-136.349	43.238	0	1059.90	0	3.4330	0	38.5890	8	30.716	0	1048.792	0	10.6	4	3.4	4	-1E+10	1	-1E+10	1	-1E+10	1	-1E+10	1	-1E+10	1	-1E+10	1
4901784	221	C	07/23/2021	10:47	-136.349	43.238	0	1064.20	0	3.4200	0	38.5920	8	30.720	0	1053.036	0	10.7	4	3.4	4	-1E+10	1	-1E+10	1	-1E+10	1	-1E+10	1	-1E+10	1	-1E+10	1
4901784	221	C	07/23/2021	10:47	-136.349	43.238	0	1069.40	0	3.4090	0	38.5940	8	30.723	0	1058.168	0	10.7	4	3.4	4	-1E+10	1	-1E+10	1	-1E+10	1	-1E+10	1	-1E+10	1	-1E+10	1
4901784	221	C	07/23/2021	10:47	-136.349	43.238	0	1074.80	0	3.3950	0	38.5970	8	30.727	0	1063.498	0	10.8	4	3.5	4	-1E+10	1	-1E+10	1	-1E+10	1	-1E+10	1	-1E+10	1	-1E+10	1
4901784	221	C	07/23/2021	10:47	-136.349	43.238	0	1080.10	0	3.3860	0	38.5990	8	30.729	0	1068.728	0	10.8	4	3.5	4	-1E+10	1	-1E+10	1	-1E+10	1	-1E+10	1	-1E+10	1	-1E+10	1
4901784	221	C	07/23/2021	10:47	-136.349	43.238	0	1085.40	0	3.3710	0	38.6030	8	30.734	0	1073.959	0	10.9	4	3.5	4	-1E+10	1	-1E+10	1	-1E+10	1	-1E+10	1	-1E+10	1	-1E+10	1
4901784	221	C	07/23/2021	10:47	-136.349	43.238	0	1089.80	0	3.3630	0	38.6040	8	30.736	0	1078.301	0	10.9	4	3.5	4	-1E+10	1	-1E+10	1	-1E+10	1	-1E+10	1	-1E+10	1	-1E+10	1
4901784	221	C	07/23/2021	10:47	-136.349	43.238	0	1094.60	0	3.3550	0	38.6070	8	30.739	0	1083.038	0	10.9	4	3.5	4	-1E+10	1	-1E+10	1	-1E+10	1	-1E+10	1	-1E+10	1	-1E+10	1
4901784	221	C	07/23/2021	10:47	-136.349	43.238	0	1100.20	0	3.3500	0	38.6090	8	30.741	0	1088.565	0	11.0	4	3.5	4	-1E+10	1	-1E+10	1	-1E+10	1	-1E+10	1	-1E+10	1	-1E+10	1
4901784	221	C	07/23/2021	10:47	-136.349	43.238	0	1105.60	0	3.3410	0	38.6110	8	30.744	0	1093.894	0	11.1	4	3.6	4	-1E+10	1	-1E+10	1	-1E+10	1	-1E+10	1	-1E+10	1	-1E+10	1
4901784	221	C	07/23/2021	10:47	-136.349	43.238	0	1110.10	0	3.3260	0	38.6150	8	30.749	0	1098.334	0	11.2	4	3.6	4	-1E+10	1	-1E+10	1	-1E+10	1	-1E+10	1	-1E+10	1	-1E+10	1
4901784	221	C	07/23/2021	10:47	-136.349	43.238	0	1114.70	0	3.3160	0	38.6180	8	30.752	0	1102.873	0	11.2	4	3.6	4	-1E+10	1	-1E+10	1	-1E+10	1	-1E+10	1	-1E+10	1	-1E+10	1
4901784	221	C	07/23/2021	10:47	-136.349	43.238	0	1119.40	0	3.3070	0	38.6200	8	30.755	0	1107.511	0	11.3	4	3.6	4	-1E+10	1	-1E+10	1	-1E+10	1	-1E+10	1	-1E+10	1	-1E+10	1
4901784	221	C	07/23/2021	10:47	-136.349	43.238	0	1124.50	0	3.3010	0	38.6220	8	30.757	0	1112.543	0	11.4	4	3.7	4	-1E+10	1	-1E+10	1	-1E+10	1	-1E+10	1	-1E+10	1	-1E+10	1
4901784	221	C	07/23/2021	10:47	-136.349	43.238	0	1129.60	0	3.2880	0	38.6250	8	30.761	0	1117.576	0	11.5	4	3.7	4	-1E+10	1	-1E+10	1	-1E+10	1	-1E+10	1	-1E+10	1	-1E+10	1
4901784	221	C	07/23/2021	10:47	-136.349	43.238	0	1134.80	0	3.2780	0	38.6280	8	30.764	0	1122.706	0	11.6	4	3.7	4	-1E+10	1	-1E+10	1	-1E+10	1	-1E+10	1	-1E+10	1	-1E+10	1
4901784	221	C	07/23/2021	10:47	-136.349	43.238	0	1140.10	0	3.2660	0	38.6310	8	30.768	0	1127.936	0	11.7	4	3.8	4	-1E+10	1	-1E+10	1	-1E+10	1	-1E+10	1	-1E+10	1	-1E+10	1
4901784	221	C	07/23/2021	10:47	-136.349	43.238	0	1145.40	0	3.2510	0	38.6350	8	30.773	0	1133.165	0	11.9	4	3.8	4	-1E+10	1	-1E+10	1	-1E+10	1	-1E+10	1	-1E+10	1	-1E+10	1
4901784	221	C	07/23/2021	10:47	-136.349	43.238	0	1150.70	0	3.2370	0	38.6400	8	30.778	0	1138.394	0	12.1	4	3.9	4	-1E+10	1	-1E+10	1	-1E+10	1	-1E+10	1	-1E+10	1	-1E+10	1
4901784	221	C	07/23/2021	10:47	-136.349	43.238	0	1155.10	0	3.2280	0	38.6420	8	30.781	0	1142.735	0	12.1	4	3.9	4	-1E+10	1	-1E+10	1	-1E+10	1	-1E+10	1	-1E+10	1	-1E+10	1
4901784	221	C	07/23/2021	10:47	-136.349	43.238	0	1159.50	0	3.2220	0	38.6430	8	30.782	0	1147.076	0	12.2	4	3.9	4	-1E+10	1	-1E+10	1	-1E+10	1	-1E+10	1	-1E+10	1	-1E+10	1
4901784	221	C	07/23/2021	10:47	-136.349	43.238	0	1164.90	0	3.2070	0	38.6470	8	30.787	0	1152.403	0	12.4	4	4.0	4	-1E+10	1	-1E+10	1	-1E+10	1	-1E+10	1	-1E+10	1	-1E+10	1
4901784	221	C	07/23/2021	10:47	-136.349	43.238	0	1170.30	0	3.1950	0	38.6510	8	30.792	0	1157.730	0	12.5	4	4.0	4	-1E+10	1	-1E+10	1	-1E+10	1	-1E+10	1	-1E+10	1	-1E+10	1
4901784	221	C	07/23/2021	10:47	-136.349	43.238	0	1175.60	0	3.1880	0	38.6530	8	30.794	0	1162.959	0	12.7	4	4.1	4	-1E+10	1	-1E+10	1	-1E+10	1	-1E+10	1	-1E+10	1	-1E+10	1
4901784	221	C	07/23/2021	10:47	-136.349	43.238	0	1180.00	0	3.1800	0	38.6560	8	30.797	0	1167.299	0	12.8	4	4.1	4	-1E+10	1	-1E+10	1	-1E+10	1	-1E+10	1	-1E+10	1	-1E+10	1
4901784	221	C	07/23/2021	10:47	-136.349	43.238	0	1184.50	0	3.1750	0	38.6580	8	30.799	0	1171.738	0	12.9	4	4.1	4	-1E+10	1	-1E+10	1	-1E+10	1	-1E+10	1	-1E+10	1	-1E+10	1
4901784	221	C	07/23/2021	10:47	-136.349	43.238	0	1190.00	0	3.1610	0	38.6600	8	30.803	0	1177.164	0	13.1	4	4.2	4	-1E+10	1	-1E+10	1	-1E+10	1	-1E+10	1	-1E+10	1	-1E+10	1
4901784	221	C	07/23/2021	10:47	-136.349	43.238	0	1195.40	0	3.1420	0	38.6650	8	30.809	0	1182.490	0	13.3	4	4.3	4	-1E+10	1	-1E+10	1	-1E+10	1	-1E+10	1	-1E+10	1	-1E+10	1
4901784	221	C	07/23/2021	10:47	-136.349	43.238	0	1200.00	0	3.1350	0	38.6680	8	30.812	0	1187.027	0	13.5	4	4.3	4	-1E+10	1	-1E+10	1	-1E+10	1	-1E+10	1	-1E+10	1	-1E+10	1
4901784	221	C	07/23/2021	10:47	-136.349	43.238	0	1204.60	0	3.1230	0	38.6700	8	30.815	0	1191.565	0	13.5	4	4.3	4	-1E+10	1	-1E+10	1	-1E+10	1	-1E+10	1	-1E+10	1	-1E+10	1
4901784	221	C	07/23/2021	10:47	-136.349	43.238	0	1210.20	0	3.1150	0	38.6720	8	30.817	0	1197.088	0	13.6	4	4.4	4	-1E+10	1	-1E+10	1	-1E+10	1	-1E+10	1	-1E+10	1	-1E+10	1
4901784	221	C	07/23/2021	10:47	-136.349	43.238	0	1214.90	0	3.1070	0	38.6740	8	30.820	0	1201.724	0	13.8	4	4.4	4	-1E+10	1	-1E+10	1	-1E+10	1	-1E+10	1	-1E+10	1	-1E+10	1
4901784	221	C	07/23/2021	10:47	-136.349	43.238	0	1219.60	0	3.0970	0	38.6770	8	30.823	0	1206.359	0	13.9	4	4.4	4	-1E+10	1	-1E+10	1	-1E+10	1	-1E+10	1	-1E+10	1	-1E+10	1
4901784	221	C	07/23/2021	10:47	-136.349	43.238	0	1225.20	0	3.0820	0	38.6800	8	30.827	0	1211.882	0	14.0	4	4.5	4	-1E+10	1	-1E+10	1	-1E+10	1	-1E+10	1	-1E+10	1	-1E+10	1
4901784	221	C	07/23/2021	10:47	-136.349	43.238	0	1230.00	0	3.0740	0	38.6810	8	30.829	0	1216.616	0	14.2	4	4.5	4	-1E+10	1	-1E+10	1	-1E+10	1	-1E+10	1	-1E+10	1	-1E+10	1
4901784	221	C	07/23/2021	10:47	-136.349	43.238	0	1234.70	0	3.0570	0	38.6850	8	30.834	0	1221.252	0	14.3	4	4.6	4	-1E+10	1	-1E+10	1	-1E+10	1	-1E+10	1	-1E+10	1	-1E+10	1
4901784	221	C	07/23/2021	10:47	-136.349	43.238	0	1240.30	0	3.0480	0	38.6870	8	30.836	0	1226.774	0	14.4	4	4.6	4	-1E+10	1	-1E+10	1	-1E+10	1	-1E+10	1	-1E+10	1	-1E+10	1
4901784	221	C	07/23/2021	10:47	-136.349	43.238	0	1245.00	0	3.0410	0	38.6890	8	30.839	0	1231.409	0	14.5	4	4.6	4	-1E+10	1	-1E+10	1	-1E+10	1	-1E+10	1	-1E+10	1	-1E+10	1
4901784	221	C	07/23/2021	10:47	-136.349	43.238	0	1249.40	0	3.0350	0	38.6910	8	30.841	0	1235.748	0	14.6	4	4.7	4	-1E+10	1	-1E+10	1	-1E+10	1	-1E+10	1	-1E+10	1	-1E+10	1
4901784	221	C	07/23/2021	10:47	-136.349	43.238	0	1254.60	0	3.0260	0	38.6930	8	30.843	0	1240.876	0	14.7	4	4.7	4	-1E+10	1	-1E+10	1	-1E+10	1	-1E+10	1	-1E+10	1	-1E+10	1
4901784	221	C	07/23/2021	10:47	-136.349	43.238	0	1259.90	0	3.0230	0	38.6940	8	30.844	0	1246.103	0	14.8	4	4.7	4	-1E+10	1	-1E+10	1	-1E+10	1	-1E+10	1	-1E+10	1	-1E+10	1
4901784	221	C	07/23/2021	10:47	-136.349	43.238	0	1265.30	0	3.0170	0	38.6960	8	30.847	0	1251.427	0	14.9	4	4.8	4	-1E+10	1	-1E+10	1	-1E+10	1	-1E+10	1	-1E+10	1	-1E+10	1
4901784	221	C	07/23/2021	10:47	-136.349	43.238	0	1270.70	0	3.0070	0	38.6990	8	30.850	0	1256.752	0	15.0	4	4.8	4	-1E+10	1	-1E+10	1	-1E+10	1	-1E+10	1	-1E+10	1	-1E+10	1
4901784	221	C	07/23/2021	10:47	-136.349	43.238	0	1275.20	0	3.0020	0	38.7000	8	30.852	0	1261.189	0	15.2	4	4.8	4	-1E+10	1	-1E+10	1	-1E+10	1	-1E+10	1	-1E+10	1	-1E+10	1
4901784	221	C	07/23/2021	10:47	-136.349	43.238	0	1279.60	0	2.9950	0	38.7020	8	30.854	0	1265.528	0	15.3	4	4.9	4	-1E+10	1	-1E+10	1	-1E+10	1	-1E+10	1	-1E+10	1	-1E+10	1
4901784	221	C	07/23/2021	10:47	-136.349	43.238	0	1285.10	0	2.9880	0	38.7040	8	30.856	0	1270.951	0	15.4	4	4.9	4	-1E+10	1	-1E+10	1	-1E+10	1	-1E+10	1	-1E+10	1	-1E+10	1
4901784	221	C	07/23/2021	10:47	-136.349	43.238	0	1289.70	0	2.9770	0	38.7060	8	30.859	0	1275.486	0	15.6	4	5.0	4	-1E+10	1	-1E+10	1	-1E+10	1	-1E+10	1	-1E+10	1	-1E+10	1
4901784	221	C	07/23/2021	10:47	-136.349	43.238	0	1294.30	0	2.9680	0	38.7080	8	30.862	0	1280.021	0	15.7	4	5.0	4	-1E+10	1	-1E+10	1	-1E+10	1	-1E+10	1	-1E+10	1	-1E+10	1
4901784	221	C	07/23/2021	10:47	-136.349	43.238	0	1299.90	0	2.9580	0	38.7100	8	30.864	0	1285.543	0	15.9	4	5.1	4	-1E+10	1	-1E+10	1	-1E+10	1	-1E+10	1	-1E+10	1	-1E+10	1
4901784	221	C	07/23/2021	10:47	-136.349	43.238	0	1305.40	0	2.9450	0	38.7130	8	30.868	0	1290.965	0	16.1	4	5.1	4	-1E+10	1	-1E+10	1	-1E+10	1	-1E+10	1	-1E+10	1	-1E+10	1
4901784	221	C	07/23/2021	10:47	-136.349	43.238	0	1310.10	0	2.9340	0	38.7160	8	30.871	0	1295.598	0	16.3	4	5.2	4	-1E+10	1	-1E+10	1	-1E+10	1	-1E+10	1	-1E+10	1	-1E+10	1
4901784	221	C	07/23/2021	10:47	-136.349	43.238	0	1314.70	0	2.9250	0	38.7170	8	30.873	0	1300.133	0	16.5	4	5.2	4	-1E+10	1	-1E+10	1	-1E+10	1	-1E+10	1	-1E+10	1	-1E+10	1
4901784	221	C	07/23/2021	10:47	-136.349	43.238	0	1320.20	0	2.9160	0	38.7200	8	30.877	0	1305.555	0	16.6	4	5.3	4	-1E+10	1	-1E+10	1	-1E+10	1	-1E+10	1	-1E+10	1	-1E+10	1
4901784	221	C	07/23/2021	10:47	-136.349	43.238	0	1324.90	0	2.9100	0	38.7220	8	30.879	0	1310.189	0	16.7	4	5.3	4	-1E+10	1	-1E+10	1	-1E+10	1	-1E+10	1	-1E+10	1	-1E+10	1
4901784	221	C	07/23/2021	10:47	-136.349	43.238	0	1329.60	0	2.9040	0	38.7230	8	30.880	0	1314.822	0	16.9	4	5.4	4	-1E+10	1	-1E+10	1	-1E+10	1	-1E+10	1	-1E+10	1	-1E+10	1
4901784	221	C	07/23/2021	10:47	-136.349	43.238	0	1335.20	0	2.8970	0	38.7260	8	30.883	0	1320.342	0	17.0	4	5.4	4	-1E+10	1	-1E+10	1	-1E+10	1	-1E+10	1	-1E+10	1	-1E+10	1
4901784	221	C	07/23/2021	10:47	-136.349	43.238	0	1339.90	0	2.8930	0	38.7270	8	30.885	0	1324.975	0	17.2	4	5.5	4	-1E+10	1	-1E+10	1	-1E+10	1	-1E+10	1	-1E+10	1	-1E+10	1
4901784	221	C	07/23/2021	10:47	-136.349	43.238	0	1344.60	0	2.8860	0	38.7280	8	30.886	0	1329.608	0	17.3	4	5.5	4	-1E+10	1	-1E+10	1	-1E+10	1	-1E+10	1	-1E+10	1	-1E+10	1
4901784	221	C	07/23/2021	10:47	-136.349	43.238	0	1350.20	0	2.8770	0	38.7300	8	30.889	0	1335.128	0	17.5	4	5.6	4	-1E+10	1	-1E+10	1	-1E+10	1	-1E+10	1	-1E+10	1	-1E+10	1
4901784	221	C	07/23/2021	10:47	-136.349	43.238	0	1355.00	0	2.8720	0	38.7320	8	30.891	0	1339.859	0	17.6	4	5.6	4	-1E+10	1	-1E+10	1	-1E+10	1	-1E+10	1	-1E+10	1	-1E+10	1
4901784	221	C	07/23/2021	10:47	-136.349	43.238	0	1359.70	0	2.8640	0	38.7330	8	30.893	0	1344.491	0	17.8	4	5.7	4	-1E+10	1	-1E+10	1	-1E+10	1	-1E+10	1	-1E+10	1	-1E+10	1
4901784	221	C	07/23/2021	10:47	-136.349	43.238	0	1365.10	0	2.8540	0	38.7360	8	30.896	0	1349.814	0	18.0	4	5.7	4	-1E+10	1	-1E+10	1	-1E+10	1	-1E+10	1	-1E+10	1	-1E+10	1
4901784	221	C	07/23/2021	10:47	-136.349	43.238	0	1370.60	0	2.8420	0	38.7380	8	30.899	0	1355.234	0	18.2	4	5.8	4	-1E+10	1	-1E+10	1	-1E+10	1	-1E+10	1	-1E+10	1	-1E+10	1
4901784	221	C	07/23/2021	10:47	-136.349	43.238	0	1375.40	0	2.8340	0	38.7410	8	30.902	0	1359.965	0	18.4	4	5.8	4	-1E+10	1	-1E+10	1	-1E+10	1	-1E+10	1	-1E+10	1	-1E+10	1
4901784	221	C	07/23/2021	10:47	-136.349	43.238	0	1380.30	0	2.8270	0	38.7420	8	30.904	0	1364.794	0	18.6	4	5.9	4	-1E+10	1	-1E+10	1	-1E+10	1	-1E+10	1	-1E+10	1	-1E+10	1
4901784	221	C	07/23/2021	10:47	-136.349	43.238	0	1385.20	0	2.8180	0	38.7440	8	30.906	0	1369.623	0	18.8	4	6.0	4	-1E+10	1	-1E+10	1	-1E+10	1	-1E+10	1	-1E+10	1	-1E+10	1
4901784	221	C	07/23/2021	10:47	-136.349	43.238	0	1390.20	0	2.8070	0	38.7470	8	30.910	0	1374.551	0	18.9	4	6.0	4	-1E+10	1	-1E+10	1	-1E+10	1	-1E+10	1	-1E+10	1	-1E+10	1
4901784	221	C	07/23/2021	10:47	-136.349	43.238	0	1395.20	0	2.8020	0	38.7480	8	30.911	0	1379.478	0	19.1	4	6.1	4	-1E+10	1	-1E+10	1	-1E+10	1	-1E+10	1	-1E+10	1	-1E+10	1
4901784	221	C	07/23/2021	10:47	-136.349	43.238	0	1400.20	0	2.7930	0	38.7500	8	30.914	0	1384.405	0	19.3	4	6.1	4	-1E+10	1	-1E+10	1	-1E+10	1	-1E+10	1	-1E+10	1	-1E+10	1
4901784	221	C	07/23/2021	10:47	-136.349	43.238	0	1405.20	0	2.7850	0	38.7520	8	30.916	0	1389.333	0	19.5	4	6.2	4	-1E+10	1	-1E+10	1	-1E+10	1	-1E+10	1	-1E+10	1	-1E+10	1
4901784	221	C	07/23/2021	10:47	-136.349	43.238	0	1410.30	0	2.7740	0	38.7540	8	30.919	0	1394.358	0	19.8	4	6.3	4	-1E+10	1	-1E+10	1	-1E+10	1	-1E+10	1	-1E+10	1	-1E+10	1
4901784	221	C	07/23/2021	10:47	-136.349	43.238	0	1415.40	0	2.7630	0	38.7570	8	30.922	0	1399.384	0	20.0	4	6.3	4	-1E+10	1	-1E+10	1	-1E+10	1	-1E+10	1	-1E+10	1	-1E+10	1
4901784	221	C	07/23/2021	10:47	-136.349	43.238	0	1420.50	0	2.7580	0	38.7590	8	30.924	0	1404.409	0	20.1	4	6.4	4	-1E+10	1	-1E+10	1	-1E+10	1	-1E+10	1	-1E+10	1	-1E+10	1
4901784	221	C	07/23/2021	10:47	-136.349	43.238	0	1425.50	0	2.7500	0	38.7600	8	30.926	0	1409.336	0	20.4	4	6.5	4	-1E+10	1	-1E+10	1	-1E+10	1	-1E+10	1	-1E+10	1	-1E+10	1
4901784	221	C	07/23/2021	10:47	-136.349	43.238	0	1430.60	0	2.7440	0	38.7620	8	30.928	0	1414.361	0	20.5	4	6.5	4	-1E+10	1	-1E+10	1	-1E+10	1	-1E+10	1	-1E+10	1	-1E+10	1
4901784	221	C	07/23/2021	10:47	-136.349	43.238	0	1435.00	0	2.7400	0	38.7630	8	30.929	0	1418.696	0	20.7	4	6.6	4	-1E+10	1	-1E+10	1	-1E+10	1	-1E+10	1	-1E+10	1	-1E+10	1
4901784	221	C	07/23/2021	10:47	-136.349	43.238	0	1439.30	0	2.7350	0	38.7640	8	30.931	0	1422.933	0	20.9	4	6.6	4	-1E+10	1	-1E+10	1	-1E+10	1	-1E+10	1	-1E+10	1	-1E+10	1
4901784	221	C	07/23/2021	10:47	-136.349	43.238	0	1444.40	0	2.7220	0	38.7670	8	30.934	0	1427.957	0	21.2	4	6.7	4	-1E+10	1	-1E+10	1	-1E+10	1	-1E+10	1	-1E+10	1	-1E+10	1
4901784	221	C	07/23/2021	10:47	-136.349	43.238	0	1449.60	0	2.7130	0	38.7690	8	30.937	0	1433.081	0	21.5	4	6.8	4	-1E+10	1	-1E+10	1	-1E+10	1	-1E+10	1	-1E+10	1	-1E+10	1
4901784	221	C	07/23/2021	10:47	-136.349	43.238	0	1454.90	0	2.7000	0	38.7720	8	30.941	0	1438.302	0	21.8	4	6.9	4	-1E+10	1	-1E+10	1	-1E+10	1	-1E+10	1	-1E+10	1	-1E+10	1
4901784	221	C	07/23/2021	10:47	-136.349	43.238	0	1460.10	0	2.6900	0	38.7740	8	30.943	0	1443.425	0	22.0	4	7.0	4	-1E+10	1	-1E+10	1	-1E+10	1	-1E+10	1	-1E+10	1	-1E+10	1
4901784	221	C	07/23/2021	10:47	-136.349	43.238	0	1465.40	0	2.6830	0	38.7760	8	30.946	0	1448.646	0	22.2	4	7.0	4	-1E+10	1	-1E+10	1	-1E+10	1	-1E+10	1	-1E+10	1	-1E+10	1
4901784	221	C	07/23/2021	10:47	-136.349	43.238	0	1470.60	0	2.6730	0	38.7780	8	30.948	0	1453.769	0	22.4	4	7.1	4	-1E+10	1	-1E+10	1	-1E+10	1	-1E+10	1	-1E+10	1	-1E+10	1
4901784	221	C	07/23/2021	10:47	-136.349	43.238	0	1475.00	0	2.6670	0	38.7800	8	30.950	0	1458.104	0	22.6	4	7.1	4	-1E+10	1	-1E+10	1	-1E+10	1	-1E+10	1	-1E+10	1	-1E+10	1
4901784	221	C	07/23/2021	10:47	-136.349	43.238	0	1479.40	0	2.6640	0	38.7800	8	30.951	0	1462.438	0	22.7	4	7.2	4	-1E+10	1	-1E+10	1	-1E+10	1	-1E+10	1	-1E+10	1	-1E+10	1
4901784	221	C	07/23/2021	10:47	-136.349	43.238	0	1484.70	0	2.6520	0	38.7830	8	30.954	0	1467.659	0	23.1	4	7.3	4	-1E+10	1	-1E+10	1	-1E+10	1	-1E+10	1	-1E+10	1	-1E+10	1
4901784	221	C	07/23/2021	10:47	-136.349	43.238	0	1490.00	0	2.6420	0	38.7840	8	30.956	0	1472.879	0	23.4	4	7.4	4	-1E+10	1	-1E+10	1	-1E+10	1	-1E+10	1	-1E+10	1	-1E+10	1
4901784	221	C	07/23/2021	10:47	-136.349	43.238	0	1495.30	0	2.6290	0	38.7880	8	30.961	0	1478.100	0	23.7	4	7.5	4	-1E+10	1	-1E+10	1	-1E+10	1	-1E+10	1	-1E+10	1	-1E+10	1
4901784	221	C	07/23/2021	10:47	-136.349	43.238	0	1500.70	0	2.6220	0	38.7890	8	30.962	0	1483.419	0	23.9	4	7.6	4	-1E+10	1	-1E+10	1	-1E+10	1	-1E+10	1	-1E+10	1	-1E+10	1
4901784	221	C	07/23/2021	10:47	-136.349	43.238	0	1505.10	0	2.6130	0	38.7910	8	30.965	0	1487.753	0	24.2	4	7.6	4	-1E+10	1	-1E+10	1	-1E+10	1	-1E+10	1	-1E+10	1	-1E+10	1
4901784	221	C	07/23/2021	10:47	-136.349	43.238	0	1509.60	0	2.6050	0	38.7920	8	30.966	0	1492.185	0	24.4	4	7.7	4	-1E+10	1	-1E+10	1	-1E+10	1	-1E+10	1	-1E+10	1	-1E+10	1
4901784	221	C	07/23/2021	10:47	-136.349	43.238	0	1515.00	0	2.5940	0	38.7940	8	30.969	0	1497.504	0	24.7	4	7.8	4	-1E+10	1	-1E+10	1	-1E+10	1	-1E+10	1	-1E+10	1	-1E+10	1
4901784	221	C	07/23/2021	10:47	-136.349	43.238	0	1520.40	0	2.5840	0	38.7970	8	30.973	0	1502.822	0	25.1	4	7.9	4	-1E+10	1	-1E+10	1	-1E+10	1	-1E+10	1	-1E+10	1	-1E+10	1
4901784	221	C	07/23/2021	10:47	-136.349	43.238	0	1525.00	0	2.5770	0	38.7980	8	30.974	0	1507.353	0	25.3	4	8.0	4	-1E+10	1	-1E+10	1	-1E+10	1	-1E+10	1	-1E+10	1	-1E+10	1
4901784	221	C	07/23/2021	10:47	-136.349	43.238	0	1529.60	0	2.5660	0	38.8000	8	30.977	0	1511.883	0	25.7	4	8.1	4	-1E+10	1	-1E+10	1	-1E+10	1	-1E+10	1	-1E+10	1	-1E+10	1
4901784	221	C	07/23/2021	10:47	-136.349	43.238	0	1535.10	0	2.5520	0	38.8030	8	30.981	0	1517.299	0	26.1	4	8.3	4	-1E+10	1	-1E+10	1	-1E+10	1	-1E+10	1	-1E+10	1	-1E+10	1
4901784	221	C	07/23/2021	10:47	-136.349	43.238	0	1540.60	0	2.5370	0	38.8060	8	30.984	0	1522.716	0	26.5	4	8.4	4	-1E+10	1	-1E+10	1	-1E+10	1	-1E+10	1	-1E+10	1	-1E+10	1
4901784	221	C	07/23/2021	10:47	-136.349	43.238	0	1545.10	0	2.5290	0	38.8070	8	30.986	0	1527.147	0	26.8	4	8.5	4	-1E+10	1	-1E+10	1	-1E+10	1	-1E+10	1	-1E+10	1	-1E+10	1
4901784	221	C	07/23/2021	10:47	-136.349	43.238	0	1550.40	0	2.5200	0	38.8090	8	30.989	0	1532.367	0	27.1	4	8.6	4	-1E+10	1	-1E+10	1	-1E+10	1	-1E+10	1	-1E+10	1	-1E+10	1
4901784	221	C	07/23/2021	10:47	-136.349	43.238	0	1555.40	0	2.5070	0	38.8110	8	30.991	0	1537.290	0	27.6	4	8.7	4	-1E+10	1	-1E+10	1	-1E+10	1	-1E+10	1	-1E+10	1	-1E+10	1
4901784	221	C	07/23/2021	10:47	-136.349	43.238	0	1560.20	0	2.4940	0	38.8140	8	30.995	0	1542.017	0	27.9	4	8.8	4	-1E+10	1	-1E+10	1	-1E+10	1	-1E+10	1	-1E+10	1	-1E+10	1
4901784	221	C	07/23/2021	10:47	-136.349	43.238	0	1565.00	0	2.4830	0	38.8150	8	30.997	0	1546.744	0	28.3	4	8.9	4	-1E+10	1	-1E+10	1	-1E+10	1	-1E+10	1	-1E+10	1	-1E+10	1
4901784	221	C	07/23/2021	10:47	-136.349	43.238	0	1569.80	0	2.4720	0	38.8180	8	31.000	0	1551.470	0	28.6	4	9.0	4	-1E+10	1	-1E+10	1	-1E+10	1	-1E+10	1	-1E+10	1	-1E+10	1
4901784	221	C	07/23/2021	10:47	-136.349	43.238	0	1574.60	0	2.4610	0	38.8200	8	31.003	0	1556.196	0	29.0	4	9.1	4	-1E+10	1	-1E+10	1	-1E+10	1	-1E+10	1	-1E+10	1	-1E+10	1
4901784	221	C	07/23/2021	10:47	-136.349	43.238	0	1579.50	0	2.4520	0	38.8220	8	31.006	0	1561.021	0	29.3	4	9.2	4	-1E+10	1	-1E+10	1	-1E+10	1	-1E+10	1	-1E+10	1	-1E+10	1
4901784	221	C	07/23/2021	10:47	-136.349	43.238	0	1584.50	0	2.4420	0	38.8240	8	31.008	0	1565.944	0	29.6	4	9.3	4	-1E+10	1	-1E+10	1	-1E+10	1	-1E+10	1	-1E+10	1	-1E+10	1
4901784	221	C	07/23/2021	10:47	-136.349	43.238	0	1589.40	0	2.4330	0	38.8260	8	31.011	0	1570.768	0	29.9	4	9.4	4	-1E+10	1	-1E+10	1	-1E+10	1	-1E+10	1	-1E+10	1	-1E+10	1
4901784	221	C	07/23/2021	10:47	-136.349	43.238	0	1594.30	0	2.4290	0	38.8270	8	31.012	0	1575.593	0	30.1	4	9.5	4	-1E+10	1	-1E+10	1	-1E+10	1	-1E+10	1	-1E+10	1	-1E+10	1
4901784	221	C	07/23/2021	10:47	-136.349	43.238	0	1599.30	0	2.4210	0	38.8280	8	31.014	0	1580.515	0	30.4	4	9.6	4	-1E+10	1	-1E+10	1	-1E+10	1	-1E+10	1	-1E+10	1	-1E+10	1
4901784	221	C	07/23/2021	10:47	-136.349	43.238	0	1604.30	0	2.4140	0	38.8300	8	31.016	0	1585.438	0	30.7	4	9.7	4	-1E+10	1	-1E+10	1	-1E+10	1	-1E+10	1	-1E+10	1	-1E+10	1
4901784	221	C	07/23/2021	10:47	-136.349	43.238	0	1609.40	0	2.4070	0	38.8310	8	31.017	0	1590.459	0	31.1	4	9.8	4	-1E+10	1	-1E+10	1	-1E+10	1	-1E+10	1	-1E+10	1	-1E+10	1
4901784	221	C	07/23/2021	10:47	-136.349	43.238	0	1614.40	0	2.3920	0	38.8340	8	31.021	0	1595.381	0	31.6	4	10.0	4	-1E+10	1	-1E+10	1	-1E+10	1	-1E+10	1	-1E+10	1	-1E+10	1
4901784	221	C	07/23/2021	10:47	-136.349	43.238	0	1619.40	0	2.3800	0	38.8360	8	31.024	0	1600.303	0	32.1	4	10.1	4	-1E+10	1	-1E+10	1	-1E+10	1	-1E+10	1	-1E+10	1	-1E+10	1
4901784	221	C	07/23/2021	10:47	-136.349	43.238	0	1624.40	0	2.3680	0	38.8390	8	31.028	0	1605.225	0	32.4	4	10.2	4	-1E+10	1	-1E+10	1	-1E+10	1	-1E+10	1	-1E+10	1	-1E+10	1
4901784	221	C	07/23/2021	10:47	-136.349	43.238	0	1629.40	0	2.3590	0	38.8410	8	31.030	0	1610.147	0	32.7	4	10.3	4	-1E+10	1	-1E+10	1	-1E+10	1	-1E+10	1	-1E+10	1	-1E+10	1
4901784	221	C	07/23/2021	10:47	-136.349	43.238	0	1634.40	0	2.3540	0	38.8430	8	31.032	0	1615.069	0	32.9	4	10.3	4	-1E+10	1	-1E+10	1	-1E+10	1	-1E+10	1	-1E+10	1	-1E+10	1
4901784	221	C	07/23/2021	10:47	-136.349	43.238	0	1639.40	0	2.3490	0	38.8440	8	31.033	0	1619.991	0	33.1	4	10.4	4	-1E+10	1	-1E+10	1	-1E+10	1	-1E+10	1	-1E+10	1	-1E+10	1
4901784	221	C	07/23/2021	10:47	-136.349	43.238	0	1644.50	0	2.3420	0	38.8450	8	31.035	0	1625.011	0	33.4	4	10.5	4	-1E+10	1	-1E+10	1	-1E+10	1	-1E+10	1	-1E+10	1	-1E+10	1
4901784	221	C	07/23/2021	10:47	-136.349	43.238	0	1649.70	0	2.3360	0	38.8470	8	31.037	0	1630.129	0	33.7	4	10.6	4	-1E+10	1	-1E+10	1	-1E+10	1	-1E+10	1	-1E+10	1	-1E+10	1
4901784	221	C	07/23/2021	10:47	-136.349	43.238	0	1654.90	0	2.3300	0	38.8480	8	31.039	0	1635.248	0	34.1	4	10.7	4	-1E+10	1	-1E+10	1	-1E+10	1	-1E+10	1	-1E+10	1	-1E+10	1
4901784	221	C	07/23/2021	10:47	-136.349	43.238	0	1660.00	0	2.3200	0	38.8500	8	31.041	0	1640.267	0	34.4	4	10.8	4	-1E+10	1	-1E+10	1	-1E+10	1	-1E+10	1	-1E+10	1	-1E+10	1
4901784	221	C	07/23/2021	10:47	-136.349	43.238	0	1665.30	0	2.3120	0	38.8520	8	31.043	0	1645.484	0	34.7	4	10.9	4	-1E+10	1	-1E+10	1	-1E+10	1	-1E+10	1	-1E+10	1	-1E+10	1
4901784	221	C	07/23/2021	10:47	-136.349	43.238	0	1670.40	0	2.3050	0	38.8540	8	31.046	0	1650.503	0	35.0	4	11.0	4	-1E+10	1	-1E+10	1	-1E+10	1	-1E+10	1	-1E+10	1	-1E+10	1
4901784	221	C	07/23/2021	10:47	-136.349	43.238	0	1675.70	0	2.2980	0	38.8560	8	31.048	0	1655.720	0	35.3	4	11.1	4	-1E+10	1	-1E+10	1	-1E+10	1	-1E+10	1	-1E+10	1	-1E+10	1
4901784	221	C	07/23/2021	10:47	-136.349	43.238	0	1680.10	0	2.2920	0	38.8570	8	31.049	0	1660.050	0	35.6	4	11.2	4	-1E+10	1	-1E+10	1	-1E+10	1	-1E+10	1	-1E+10	1	-1E+10	1
4901784	221	C	07/23/2021	10:47	-136.349	43.238	0	1684.60	0	2.2860	0	38.8580	8	31.051	0	1664.479	0	35.8	4	11.2	4	-1E+10	1	-1E+10	1	-1E+10	1	-1E+10	1	-1E+10	1	-1E+10	1
4901784	221	C	07/23/2021	10:47	-136.349	43.238	0	1690.00	0	2.2790	0	38.8600	8	31.053	0	1669.793	0	36.2	4	11.4	4	-1E+10	1	-1E+10	1	-1E+10	1	-1E+10	1	-1E+10	1	-1E+10	1
4901784	221	C	07/23/2021	10:47	-136.349	43.238	0	1695.40	0	2.2700	0	38.8620	8	31.056	0	1675.107	0	36.7	4	11.5	4	-1E+10	1	-1E+10	1	-1E+10	1	-1E+10	1	-1E+10	1	-1E+10	1
4901784	221	C	07/23/2021	10:47	-136.349	43.238	0	1700.00	0	2.2610	0	38.8640	8	31.058	0	1679.634	0	37.0	4	11.6	4	-1E+10	1	-1E+10	1	-1E+10	1	-1E+10	1	-1E+10	1	-1E+10	1
4901784	221	C	07/23/2021	10:47	-136.349	43.238	0	1704.80	0	2.2540	0	38.8660	8	31.060	0	1684.357	0	37.2	4	11.7	4	-1E+10	1	-1E+10	1	-1E+10	1	-1E+10	1	-1E+10	1	-1E+10	1
4901784	221	C	07/23/2021	10:47	-136.349	43.238	0	1709.90	0	2.2470	0	38.8670	8	31.062	0	1689.376	0	37.6	4	11.8	4	-1E+10	1	-1E+10	1	-1E+10	1	-1E+10	1	-1E+10	1	-1E+10	1
4901784	221	C	07/23/2021	10:47	-136.349	43.238	0	1714.70	0	2.2420	0	38.8680	8	31.063	0	1694.099	0	37.9	4	11.9	4	-1E+10	1	-1E+10	1	-1E+10	1	-1E+10	1	-1E+10	1	-1E+10	1
4901784	221	C	07/23/2021	10:47	-136.349	43.238	0	1719.50	0	2.2320	0	38.8710	8	31.067	0	1698.822	0	38.2	4	12.0	4	-1E+10	1	-1E+10	1	-1E+10	1	-1E+10	1	-1E+10	1	-1E+10	1
4901784	221	C	07/23/2021	10:47	-136.349	43.238	0	1724.30	0	2.2290	0	38.8720	8	31.068	0	1703.545	0	38.4	4	12.0	4	-1E+10	1	-1E+10	1	-1E+10	1	-1E+10	1	-1E+10	1	-1E+10	1
4901784	221	C	07/23/2021	10:47	-136.349	43.238	0	1730.00	0	2.2240	0	38.8730	8	31.069	0	1709.153	0	38.7	4	12.1	4	-1E+10	1	-1E+10	1	-1E+10	1	-1E+10	1	-1E+10	1	-1E+10	1
4901784	221	C	07/23/2021	10:47	-136.349	43.238	0	1735.80	0	2.2160	0	38.8750	8	31.071	0	1714.860	0	39.1	4	12.2	4	-1E+10	1	-1E+10	1	-1E+10	1	-1E+10	1	-1E+10	1	-1E+10	1
4901784	221	C	07/23/2021	10:47	-136.349	43.238	0	1740.70	0	2.2110	0	38.8770	8	31.073	0	1719.681	0	39.3	4	12.3	4	-1E+10	1	-1E+10	1	-1E+10	1	-1E+10	1	-1E+10	1	-1E+10	1
4901784	221	C	07/23/2021	10:47	-136.349	43.238	0	1745.60	0	2.2090	0	38.8780	8	31.074	0	1724.502	0	39.4	4	12.3	4	-1E+10	1	-1E+10	1	-1E+10	1	-1E+10	1	-1E+10	1	-1E+10	1
4901784	221	C	07/23/2021	10:47	-136.349	43.238	0	1750.60	0	2.2060	0	38.8790	8	31.076	0	1729.421	0	39.5	4	12.4	4	-1E+10	1	-1E+10	1	-1E+10	1	-1E+10	1	-1E+10	1	-1E+10	1
4901784	221	C	07/23/2021	10:47	-136.349	43.238	0	1755.60	0	2.2030	0	38.8800	8	31.077	0	1734.340	0	39.7	4	12.4	4	-1E+10	1	-1E+10	1	-1E+10	1	-1E+10	1	-1E+10	1	-1E+10	1
4901784	221	C	07/23/2021	10:47	-136.349	43.238	0	1760.60	0	2.1960	0	38.8820	8	31.079	0	1739.259	0	39.9	4	12.5	4	-1E+10	1	-1E+10	1	-1E+10	1	-1E+10	1	-1E+10	1	-1E+10	1
4901784	221	C	07/23/2021	10:47	-136.349	43.238	0	1765.60	0	2.1940	0	38.8830	8	31.080	0	1744.178	0	40.1	4	12.6	4	-1E+10	1	-1E+10	1	-1E+10	1	-1E+10	1	-1E+10	1	-1E+10	1
4901784	221	C	07/23/2021	10:47	-136.349	43.238	0	1770.70	0	2.1920	0	38.8830	8	31.080	0	1749.195	0	40.4	4	12.6	4	-1E+10	1	-1E+10	1	-1E+10	1	-1E+10	1	-1E+10	1	-1E+10	1
4901784	221	C	07/23/2021	10:47	-136.349	43.238	0	1775.80	0	2.1830	0	38.8860	8	31.084	0	1754.212	0	40.7	4	12.7	4	-1E+10	1	-1E+10	1	-1E+10	1	-1E+10	1	-1E+10	1	-1E+10	1
4901784	221	C	07/23/2021	10:47	-136.349	43.238	0	1780.10	0	2.1810	0	38.8860	8	31.084	0	1758.442	0	41.0	4	12.8	4	-1E+10	1	-1E+10	1	-1E+10	1	-1E+10	1	-1E+10	1	-1E+10	1
4901784	221	C	07/23/2021	10:47	-136.349	43.238	0	1784.40	0	2.1710	0	38.8880	8	31.086	0	1762.672	0	41.4	4	13.0	4	-1E+10	1	-1E+10	1	-1E+10	1	-1E+10	1	-1E+10	1	-1E+10	1
4901784	221	C	07/23/2021	10:47	-136.349	43.238	0	1789.50	0	2.1650	0	38.8900	8	31.088	0	1767.689	0	41.7	4	13.1	4	-1E+10	1	-1E+10	1	-1E+10	1	-1E+10	1	-1E+10	1	-1E+10	1
4901784	221	C	07/23/2021	10:47	-136.349	43.238	0	1794.70	0	2.1600	0	38.8910	8	31.090	0	1772.804	0	42.1	4	13.2	4	-1E+10	1	-1E+10	1	-1E+10	1	-1E+10	1	-1E+10	1	-1E+10	1
4901784	221	C	07/23/2021	10:47	-136.349	43.238	0	1799.90	0	2.1520	0	38.8930	8	31.092	0	1777.919	0	42.5	4	13.3	4	-1E+10	1	-1E+10	1	-1E+10	1	-1E+10	1	-1E+10	1	-1E+10	1
4901784	221	C	07/23/2021	10:47	-136.349	43.238	0	1805.20	0	2.1450	0	38.8950	8	31.094	0	1783.132	0	42.9	4	13.4	4	-1E+10	1	-1E+10	1	-1E+10	1	-1E+10	1	-1E+10	1	-1E+10	1
4901784	221	C	07/23/2021	10:47	-136.349	43.238	0	1810.40	0	2.1370	0	38.8960	8	31.096	0	1788.246	0	43.4	4	13.6	4	-1E+10	1	-1E+10	1	-1E+10	1	-1E+10	1	-1E+10	1	-1E+10	1
4901784	221	C	07/23/2021	10:47	-136.349	43.238	0	1815.60	0	2.1260	0	38.8990	8	31.099	0	1793.361	0	43.8	4	13.7	4	-1E+10	1	-1E+10	1	-1E+10	1	-1E+10	1	-1E+10	1	-1E+10	1
4901784	221	C	07/23/2021	10:47	-136.349	43.238	0	1820.00	0	2.1240	0	38.9000	8	31.100	0	1797.688	0	44.0	4	13.7	4	-1E+10	1	-1E+10	1	-1E+10	1	-1E+10	1	-1E+10	1	-1E+10	1
4901784	221	C	07/23/2021	10:47	-136.349	43.238	0	1824.40	0	2.1220	0	38.9010	8	31.101	0	1802.016	0	44.2	4	13.8	4	-1E+10	1	-1E+10	1	-1E+10	1	-1E+10	1	-1E+10	1	-1E+10	1
4901784	221	C	07/23/2021	10:47	-136.349	43.238	0	1829.70	0	2.1140	0	38.9030	8	31.104	0	1807.228	0	44.6	4	13.9	4	-1E+10	1	-1E+10	1	-1E+10	1	-1E+10	1	-1E+10	1	-1E+10	1
4901784	221	C	07/23/2021	10:47	-136.349	43.238	0	1835.00	0	2.1090	0	38.9040	8	31.105	0	1812.440	0	44.8	4	14.0	4	-1E+10	1	-1E+10	1	-1E+10	1	-1E+10	1	-1E+10	1	-1E+10	1
4901784	221	C	07/23/2021	10:47	-136.349	43.238	0	1840.40	0	2.1060	0	38.9050	8	31.106	0	1817.751	0	45.2	4	14.1	4	-1E+10	1	-1E+10	1	-1E+10	1	-1E+10	1	-1E+10	1	-1E+10	1
4901784	221	C	07/23/2021	10:47	-136.349	43.238	0	1844.90	0	2.0990	0	38.9060	8	31.108	0	1822.176	0	45.6	4	14.2	4	-1E+10	1	-1E+10	1	-1E+10	1	-1E+10	1	-1E+10	1	-1E+10	1
4901784	221	C	07/23/2021	10:47	-136.349	43.238	0	1849.50	0	2.0910	0	38.9090	8	31.111	0	1826.700	0	46.0	4	14.4	4	-1E+10	1	-1E+10	1	-1E+10	1	-1E+10	1	-1E+10	1	-1E+10	1
4901784	221	C	07/23/2021	10:47	-136.349	43.238	0	1854.90	0	2.0840	0	38.9110	8	31.113	0	1832.010	0	46.2	4	14.4	4	-1E+10	1	-1E+10	1	-1E+10	1	-1E+10	1	-1E+10	1	-1E+10	1
4901784	221	C	07/23/2021	10:47	-136.349	43.238	0	1860.50	0	2.0820	0	38.9110	8	31.113	0	1837.517	0	46.4	4	14.5	4	-1E+10	1	-1E+10	1	-1E+10	1	-1E+10	1	-1E+10	1	-1E+10	1
4901784	221	C	07/23/2021	10:47	-136.349	43.238	0	1865.00	0	2.0780	0	38.9130	8	31.115	0	1841.942	0	46.7	4	14.6	4	-1E+10	1	-1E+10	1	-1E+10	1	-1E+10	1	-1E+10	1	-1E+10	1
4901784	221	C	07/23/2021	10:47	-136.349	43.238	0	1869.90	0	2.0730	0	38.9140	8	31.117	0	1846.760	0	47.0	4	14.7	4	-1E+10	1	-1E+10	1	-1E+10	1	-1E+10	1	-1E+10	1	-1E+10	1
4901784	221	C	07/23/2021	10:47	-136.349	43.238	0	1875.10	0	2.0690	0	38.9150	8	31.118	0	1851.873	0	47.2	4	14.8	4	-1E+10	1	-1E+10	1	-1E+10	1	-1E+10	1	-1E+10	1	-1E+10	1
4901784	221	C	07/23/2021	10:47	-136.349	43.238	0	1879.90	0	2.0670	0	38.9160	8	31.119	0	1856.592	0	47.6	4	14.9	4	-1E+10	1	-1E+10	1	-1E+10	1	-1E+10	1	-1E+10	1	-1E+10	1
4901784	221	C	07/23/2021	10:47	-136.349	43.238	0	1884.70	0	2.0590	0	38.9180	8	31.121	0	1861.312	0	48.1	4	15.0	4	-1E+10	1	-1E+10	1	-1E+10	1	-1E+10	1	-1E+10	1	-1E+10	1
4901784	221	C	07/23/2021	10:47	-136.349	43.238	0	1889.60	0	2.0530	0	38.9200	8	31.123	0	1866.130	0	48.5	4	15.1	4	-1E+10	1	-1E+10	1	-1E+10	1	-1E+10	1	-1E+10	1	-1E+10	1
4901784	221	C	07/23/2021	10:47	-136.349	43.238	0	1894.50	0	2.0500	0	38.9210	8	31.125	0	1870.947	0	48.7	4	15.2	4	-1E+10	1	-1E+10	1	-1E+10	1	-1E+10	1	-1E+10	1	-1E+10	1
4901784	221	C	07/23/2021	10:47	-136.349	43.238	0	1899.50	0	2.0460	0	38.9220	8	31.126	0	1875.863	0	49.0	4	15.3	4	-1E+10	1	-1E+10	1	-1E+10	1	-1E+10	1	-1E+10	1	-1E+10	1
4901784	221	C	07/23/2021	10:47	-136.349	43.238	0	1904.50	0	2.0410	0	38.9230	8	31.127	0	1880.779	0	49.4	4	15.4	4	-1E+10	1	-1E+10	1	-1E+10	1	-1E+10	1	-1E+10	1	-1E+10	1
4901784	221	C	07/23/2021	10:47	-136.349	43.238	0	1909.50	0	2.0340	0	38.9240	8	31.129	0	1885.694	0	50.0	4	15.6	4	-1E+10	1	-1E+10	1	-1E+10	1	-1E+10	1	-1E+10	1	-1E+10	1
4901784	221	C	07/23/2021	10:47	-136.349	43.238	0	1914.50	0	2.0240	0	38.9270	8	31.132	0	1890.610	0	50.6	4	15.8	4	-1E+10	1	-1E+10	1	-1E+10	1	-1E+10	1	-1E+10	1	-1E+10	1
4901784	221	C	07/23/2021	10:47	-136.349	43.238	0	1919.60	0	2.0190	0	38.9280	8	31.133	0	1895.623	0	50.9	4	15.9	4	-1E+10	1	-1E+10	1	-1E+10	1	-1E+10	1	-1E+10	1	-1E+10	1
4901784	221	C	07/23/2021	10:47	-136.349	43.238	0	1924.70	0	2.0160	0	38.9290	8	31.134	0	1900.637	0	51.3	4	16.0	4	-1E+10	1	-1E+10	1	-1E+10	1	-1E+10	1	-1E+10	1	-1E+10	1
4901784	221	C	07/23/2021	10:47	-136.349	43.238	0	1929.70	0	2.0100	0	38.9310	8	31.136	0	1905.552	0	51.7	4	16.1	4	-1E+10	1	-1E+10	1	-1E+10	1	-1E+10	1	-1E+10	1	-1E+10	1
4901784	221	C	07/23/2021	10:47	-136.349	43.238	0	1934.70	0	2.0060	0	38.9320	8	31.138	0	1910.467	0	51.9	4	16.2	4	-1E+10	1	-1E+10	1	-1E+10	1	-1E+10	1	-1E+10	1	-1E+10	1
4901784	221	C	07/23/2021	10:47	-136.349	43.238	0	1939.80	0	2.0020	0	38.9330	8	31.139	0	1915.480	0	52.3	4	16.3	4	-1E+10	1	-1E+10	1	-1E+10	1	-1E+10	1	-1E+10	1	-1E+10	1
4901784	221	C	07/23/2021	10:47	-136.349	43.238	0	1944.80	0	1.9990	0	38.9340	8	31.140	0	1920.395	0	52.6	4	16.4	4	-1E+10	1	-1E+10	1	-1E+10	1	-1E+10	1	-1E+10	1	-1E+10	1
4901784	221	C	07/23/2021	10:47	-136.349	43.238	0	1950.00	0	1.9960	0	38.9350	8	31.141	0	1925.506	0	52.9	4	16.5	4	-1E+10	1	-1E+10	1	-1E+10	1	-1E+10	1	-1E+10	1	-1E+10	1
4901784	221	C	07/23/2021	10:47	-136.349	43.238	0	1955.20	0	1.9890	0	38.9360	8	31.143	0	1930.617	0	53.4	4	16.6	4	-1E+10	1	-1E+10	1	-1E+10	1	-1E+10	1	-1E+10	1	-1E+10	1
4901784	221	C	07/23/2021	10:47	-136.349	43.238	0	1960.30	0	1.9830	0	38.9380	8	31.145	0	1935.630	0	53.6	4	16.7	4	-1E+10	1	-1E+10	1	-1E+10	1	-1E+10	1	-1E+10	1	-1E+10	1
4901784	221	C	07/23/2021	10:47	-136.349	43.238	0	1965.60	0	1.9800	0	38.9390	8	31.146	0	1940.839	0	53.8	4	16.8	4	-1E+10	1	-1E+10	1	-1E+10	1	-1E+10	1	-1E+10	1	-1E+10	1
4901784	221	C	07/23/2021	10:47	-136.349	43.238	0	1970.00	0	1.9790	0	38.9400	8	31.147	0	1945.164	0	53.9	4	16.8	4	-1E+10	1	-1E+10	1	-1E+10	1	-1E+10	1	-1E+10	1	-1E+10	1
4901784	221	C	07/23/2021	10:47	-136.349	43.238	0	1974.40	0	1.9760	0	38.9400	8	31.147	0	1949.488	0	54.2	4	16.9	4	-1E+10	1	-1E+10	1	-1E+10	1	-1E+10	1	-1E+10	1	-1E+10	1
4901784	221	C	07/23/2021	10:47	-136.349	43.238	0	1979.60	0	1.9710	0	38.9420	8	31.149	0	1954.599	0	54.6	4	17.0	4	-1E+10	1	-1E+10	1	-1E+10	1	-1E+10	1	-1E+10	1	-1E+10	1
4901784	221	C	07/23/2021	10:47	-136.349	43.238	0	1984.90	0	1.9660	0	38.9430	8	31.150	0	1959.807	0	54.9	4	17.1	4	-1E+10	1	-1E+10	1	-1E+10	1	-1E+10	1	-1E+10	1	-1E+10	1
4901784	221	C	07/23/2021	10:47	-136.349	43.238	0	1990.30	0	1.9630	0	38.9440	8	31.152	0	1965.114	0	55.1	4	17.2	4	-1E+10	1	-1E+10	1	-1E+10	1	-1E+10	1	-1E+10	1	-1E+10	1
4901784	221	C	07/23/2021	10:47	-136.349	43.238	0	1994.90	0	1.9610	0	38.9450	8	31.153	0	1969.635	0	55.3	4	17.2	4	-1E+10	1	-1E+10	1	-1E+10	1	-1E+10	1	-1E+10	1	-1E+10	1
4901784	221	C	07/23/2021	10:47	-136.349	43.238	0	2000.30	0	1.9580	0	38.9450	8	31.153	0	1974.942	0	55.6	4	17.3	4	-1E+10	1	-1E+10	1	-1E+10	1	-1E+10	1	-1E+10	1	-1E+10	1
4901784	221	C	07/23/2021	10:47	-136.349	43.238	0	2005.00	0	1.9560	0	38.9460	8	31.154	0	1979.560	0	55.8	4	17.4	4	-1E+10	1	-1E+10	1	-1E+10	1	-1E+10	1	-1E+10	1	-1E+10	1
4901784	221	C	07/23/2021	10:47	-136.349	43.238	0	2010.20	0	1.9530	0	38.9470	8	31.155	0	1984.670	0	56.1	4	17.5	4	-1E+10	1	-1E+10	1	-1E+10	1	-1E+10	1	-1E+10	1	-1E+10	1
4901784	221	C	07/23/2021	10:47	-136.349	43.238	0	2015.00	0	1.9490	0	38.9480	8	31.156	0	1989.387	0	56.2	4	17.5	4	-1E+10	1	-1E+10	1	-1E+10	1	-1E+10	1	-1E+10	1	-1E+10	1
4901784	221	C	07/23/2021	10:47	-136.349	43.238	0	2020.20	0	1.9480	0	38.9490	8	31.157	0	1994.496	0	56.2	4	17.5	4	-1E+10	1	-1E+10	1	-1E+10	1	-1E+10	1	-1E+10	1	-1E+10	1
4901784	221	C	07/23/2021	10:47	-136.349	43.238	0																										
4901784	222	C	08/02/2021	10:47	-136.361	43.192	0	2.60	0	18.5370	0	36.2720	8	26.113	0	2.579	0	222.5	4	96.9	4	-1E+10	1	-1E+10	1	-1E+10	1	-1E+10	1	-1E+10	1	-1E+10	1
4901784	222	C	08/02/2021	10:47	-136.361	43.192	0	4.10	0	18.5380	0	36.2730	8	26.114	0	4.067	0	222.3	4	96.8	4	-1E+10	1	-1E+10	1	-1E+10	1	-1E+10	1	-1E+10	1	-1E+10	1
4901784	222	C	08/02/2021	10:47	-136.361	43.192	0	5.70	0	18.5380	0	36.2740	8	26.115	0	5.655	0	222.2	4	96.8	4	-1E+10	1	-1E+10	1	-1E+10	1	-1E+10	1	-1E+10	1	-1E+10	1
4901784	222	C	08/02/2021	10:47	-136.361	43.192	0	7.40	0	18.5380	0	36.2740	8	26.115	0	7.341	0	222.4	4	96.8	4	-1E+10	1	-1E+10	1	-1E+10	1	-1E+10	1	-1E+10	1	-1E+10	1
4901784	222	C	08/02/2021	10:47	-136.361	43.192	0	9.00	0	18.5350	0	36.2730	8	26.115	0	8.928	0	222.8	4	97.0	4	-1E+10	1	-1E+10	1	-1E+10	1	-1E+10	1	-1E+10	1	-1E+10	1
4901784	222	C	08/02/2021	10:47	-136.361	43.192	0	11.10	0	18.5360	0	36.2690	8	26.112	0	11.011	0	223.3	4	97.2	4	-1E+10	1	-1E+10	1	-1E+10	1	-1E+10	1	-1E+10	1	-1E+10	1
4901784	222	C	08/02/2021	10:47	-136.361	43.192	0	12.80	0	18.5380	0	36.2590	8	26.103	0	12.698	0	224.6	4	97.8	4	-1E+10	1	-1E+10	1	-1E+10	1	-1E+10	1	-1E+10	1	-1E+10	1
4901784	222	C	08/02/2021	10:47	-136.361	43.192	0	14.30	0	18.5390	0	36.2450	8	26.093	0	14.186	0	226.0	4	98.4	4	-1E+10	1	-1E+10	1	-1E+10	1	-1E+10	1	-1E+10	1	-1E+10	1
4901784	222	C	08/02/2021	10:47	-136.361	43.192	0	15.70	0	18.5340	8	36.2180	8	26.073	0	15.575	0	228.5	4	99.4	4	-1E+10	1	-1E+10	1	-1E+10	1	-1E+10	1	-1E+10	1	-1E+10	1
4901784	222	C	08/02/2021	10:47	-136.361	43.192	0	17.10	0	18.5230	8	36.1730	8	26.042	0	16.963	0	231.9	4	100.9	4	-1E+10	1	-1E+10	1	-1E+10	1	-1E+10	1	-1E+10	1	-1E+10	1
4901784	222	C	08/02/2021	10:47	-136.361	43.192	0	18.70	0	17.8230	0	36.1690	8	26.213	0	18.550	0	237.0	4	101.8	4	-1E+10	1	-1E+10	1	-1E+10	1	-1E+10	1	-1E+10	1	-1E+10	1
4901784	222	C	08/02/2021	10:47	-136.361	43.192	0	20.30	0	16.2610	0	36.2470	8	26.648	0	20.138	0	247.9	4	103.4	4	-1E+10	1	-1E+10	1	-1E+10	1	-1E+10	1	-1E+10	1	-1E+10	1
4901784	222	C	08/02/2021	10:47	-136.361	43.192	0	22.00	0	15.6190	0	36.2780	8	26.820	0	21.824	0	252.5	4	104.0	4	-1E+10	1	-1E+10	1	-1E+10	1	-1E+10	1	-1E+10	1	-1E+10	1
4901784	222	C	08/02/2021	10:47	-136.361	43.192	0	23.70	0	15.5810	0	36.2680	8	26.821	0	23.510	0	252.9	4	104.1	4	-1E+10	1	-1E+10	1	-1E+10	1	-1E+10	1	-1E+10	1	-1E+10	1
4901784	222	C	08/02/2021	10:47	-136.361	43.192	0	25.40	0	15.3300	0	36.2790	8	26.887	0	25.196	0	254.3	4	104.2	4	-1E+10	1	-1E+10	1	-1E+10	1	-1E+10	1	-1E+10	1	-1E+10	1
4901784	222	C	08/02/2021	10:47	-136.361	43.192	0	27.20	0	14.9040	0	36.2860	8	26.987	0	26.982	0	257.1	4	104.5	4	-1E+10	1	-1E+10	1	-1E+10	1	-1E+10	1	-1E+10	1	-1E+10	1
4901784	222	C	08/02/2021	10:47	-136.361	43.192	0	28.80	0	14.5450	0	36.2950	8	27.073	0	28.569	0	259.2	4	104.6	4	-1E+10	1	-1E+10	1	-1E+10	1	-1E+10	1	-1E+10	1	-1E+10	1
4901784	222	C	08/02/2021	10:47	-136.361	43.192	0	31.00	0	14.4210	0	36.2830	8	27.090	0	30.751	0	259.1	4	104.3	4	-1E+10	1	-1E+10	1	-1E+10	1	-1E+10	1	-1E+10	1	-1E+10	1
4901784	222	C	08/02/2021	10:47	-136.361	43.192	0	32.70	0	14.1380	0	36.2800	8	27.149	0	32.437	0	259.5	4	103.9	4	-1E+10	1	-1E+10	1	-1E+10	1	-1E+10	1	-1E+10	1	-1E+10	1
4901784	222	C	08/02/2021	10:47	-136.361	43.192	0	34.10	0	13.7600	0	36.2930	8	27.239	0	33.826	0	261.6	4	103.9	4	-1E+10	1	-1E+10	1	-1E+10	1	-1E+10	1	-1E+10	1	-1E+10	1
4901784	222	C	08/02/2021	10:47	-136.361	43.192	0	35.70	0	13.6430	0	36.3050	8	27.273	0	35.413	0	260.7	4	103.3	4	-1E+10	1	-1E+10	1	-1E+10	1	-1E+10	1	-1E+10	1	-1E+10	1
4901784	222	C	08/02/2021	10:47	-136.361	43.192	0	37.20	0	13.5220	0	36.3160	8	27.307	0	36.901	0	261.4	4	103.4	4	-1E+10	1	-1E+10	1	-1E+10	1	-1E+10	1	-1E+10	1	-1E+10	1
4901784	222	C	08/02/2021	10:47	-136.361	43.192	0	38.70	0	13.4060	0	36.3160	8	27.331	0	38.389	0	262.2	4	103.4	4	-1E+10	1	-1E+10	1	-1E+10	1	-1E+10	1	-1E+10	1	-1E+10	1
4901784	222	C	08/02/2021	10:47	-136.361	43.192	0	40.10	0	13.0830	0	36.3460	8	27.421	0	39.777	0	263.5	4	103.3	4	-1E+10	1	-1E+10	1	-1E+10	1	-1E+10	1	-1E+10	1	-1E+10	1
4901784	222	C	08/02/2021	10:47	-136.361	43.192	0	41.70	0	12.7610	0	36.3640	8	27.500	0	41.364	0	264.8	4	103.2	4	-1E+10	1	-1E+10	1	-1E+10	1	-1E+10	1	-1E+10	1	-1E+10	1
4901784	222	C	08/02/2021	10:47	-136.361	43.192	0	43.20	0	12.6230	0	36.3600	8	27.525	0	42.852	0	264.3	4	102.7	4	-1E+10	1	-1E+10	1	-1E+10	1	-1E+10	1	-1E+10	1	-1E+10	1
4901784	222	C	08/02/2021	10:47	-136.361	43.192	0	44.90	0	12.2770	0	36.3690	8	27.601	0	44.538	0	264.2	4	101.9	4	-1E+10	1	-1E+10	1	-1E+10	1	-1E+10	1	-1E+10	1	-1E+10	1
4901784	222	C	08/02/2021	10:47	-136.361	43.192	0	46.40	0	12.1520	0	36.3510	8	27.611	0	46.026	0	262.6	4	101.0	4	-1E+10	1	-1E+10	1	-1E+10	1	-1E+10	1	-1E+10	1	-1E+10	1
4901784	222	C	08/02/2021	10:47	-136.361	43.192	0	48.10	0	11.7380	0	36.3880	8	27.720	0	47.712	0	260.9	4	99.5	4	-1E+10	1	-1E+10	1	-1E+10	1	-1E+10	1	-1E+10	1	-1E+10	1
4901784	222	C	08/02/2021	10:47	-136.361	43.192	0	49.80	0	11.3850	0	36.4130	8	27.807	0	49.398	0	259.2	4	98.2	4	-1E+10	1	-1E+10	1	-1E+10	1	-1E+10	1	-1E+10	1	-1E+10	1
4901784	222	C	08/02/2021	10:47	-136.361	43.192	0	51.60	0	11.2670	0	36.4050	8	27.822	0	51.183	0	256.4	4	96.9	4	-1E+10	1	-1E+10	1	-1E+10	1	-1E+10	1	-1E+10	1	-1E+10	1
4901784	222	C	08/02/2021	10:47	-136.361	43.192	0	53.30	0	11.1100	0	36.4240	8	27.867	0	52.869	0	254.0	4	95.7	4	-1E+10	1	-1E+10	1	-1E+10	1	-1E+10	1	-1E+10	1	-1E+10	1
4901784	222	C	08/02/2021	10:47	-136.361	43.192	0	55.00	0	11.0660	0	36.4180	8	27.870	0	54.555	0	252.6	4	95.0	4	-1E+10	1	-1E+10	1	-1E+10	1	-1E+10	1	-1E+10	1	-1E+10	1
4901784	222	C	08/02/2021	10:47	-136.361	43.192	0	56.90	0	10.9390	0	36.4210	8	27.896	0	56.440	0	251.3	4	94.3	4	-1E+10	1	-1E+10	1	-1E+10	1	-1E+10	1	-1E+10	1	-1E+10	1
4901784	222	C	08/02/2021	10:47	-136.361	43.192	0	58.70	0	10.8880	0	36.4210	8	27.905	0	58.225	0	250.3	4	93.9	4	-1E+10	1	-1E+10	1	-1E+10	1	-1E+10	1	-1E+10	1	-1E+10	1
4901784	222	C	08/02/2021	10:47	-136.361	43.192	0	60.40	0	10.8060	0	36.4200	8	27.919	0	59.911	0	249.1	4	93.2	4	-1E+10	1	-1E+10	1	-1E+10	1	-1E+10	1	-1E+10	1	-1E+10	1
4901784	222	C	08/02/2021	10:47	-136.361	43.192	0	62.30	0	10.7410	0	36.4180	8	27.930	0	61.795	0	248.2	4	92.7	4	-1E+10	1	-1E+10	1	-1E+10	1	-1E+10	1	-1E+10	1	-1E+10	1
4901784	222	C	08/02/2021	10:47	-136.361	43.192	0	64.10	0	10.5890	0	36.4290	8	27.966	0	63.580	0	247.9	4	92.4	4	-1E+10	1	-1E+10	1	-1E+10	1	-1E+10	1	-1E+10	1	-1E+10	1
4901784	222	C	08/02/2021	10:47	-136.361	43.192	0	65.90	0	10.5950	0	36.4300	8	27.966	0	65.366	0	247.2	4	92.1	4	-1E+10	1	-1E+10	1	-1E+10	1	-1E+10	1	-1E+10	1	-1E+10	1
4901784	222	C	08/02/2021	10:47	-136.361	43.192	0	67.80	0	10.5060	0	36.4290	8	27.981	0	67.250	0	247.3	4	92.0	4	-1E+10	1	-1E+10	1	-1E+10	1	-1E+10	1	-1E+10	1	-1E+10	1
4901784	222	C	08/02/2021	10:47	-136.361	43.192	0	69.70	0	10.4740	0	36.4400	8	27.995	0	69.134	0	246.3	4	91.5	4	-1E+10	1	-1E+10	1	-1E+10	1	-1E+10	1	-1E+10	1	-1E+10	1
4901784	222	C	08/02/2021	10:47	-136.361	43.192	0	71.70	0	10.4990	0	36.4540	8	28.002	0	71.117	0	246.0	4	91.5	4	-1E+10	1	-1E+10	1	-1E+10	1	-1E+10	1	-1E+10	1	-1E+10	1
4901784	222	C	08/02/2021	10:47	-136.361	43.192	0	73.60	0	10.4690	0	36.4560	8	28.009	0	73.002	0	245.5	4	91.3	4	-1E+10	1	-1E+10	1	-1E+10	1	-1E+10	1	-1E+10	1	-1E+10	1
4901784	222	C	08/02/2021	10:47	-136.361	43.192	0	75.50	0	10.4020	0	36.4610	8	28.025	0	74.886	0	245.4	4	91.1	4	-1E+10	1	-1E+10	1	-1E+10	1	-1E+10	1	-1E+10	1	-1E+10	1
4901784	222	C	08/02/2021	10:47	-136.361	43.192	0	77.30	0	10.3350	0	36.4640	8	28.039	0	76.671	0	245.3	4	90.9	4	-1E+10	1	-1E+10	1	-1E+10	1	-1E+10	1	-1E+10	1	-1E+10	1
4901784	222	C	08/02/2021	10:47	-136.361	43.192	0	79.30	0	10.2990	0	36.4640	8	28.045	0	78.654	0	245.5	4	90.9	4	-1E+10	1	-1E+10	1	-1E+10	1	-1E+10	1	-1E+10	1	-1E+10	1
4901784	222	C	08/02/2021	10:47	-136.361	43.192	0	81.20	0	10.2870	0	36.4730	8	28.055	0	80.538	0	245.3	4	90.8	4	-1E+10	1	-1E+10	1	-1E+10	1	-1E+10	1	-1E+10	1	-1E+10	1
4901784	222	C	08/02/2021	10:47	-136.361	43.192	0	83.20	0	10.2300	0	36.4680	8	28.061	0	82.522	0	245.9	4	90.9	4	-1E+10	1	-1E+10	1	-1E+10	1	-1E+10	1	-1E+10	1	-1E+10	1
4901784	222	C	08/02/2021	10:47	-136.361	43.192	0	85.10	0	10.1380	0	36.4610	8	28.072	0	84.406	0	246.6	4	91.0	4	-1E+10	1	-1E+10	1	-1E+10	1	-1E+10	1	-1E+10	1	-1E+10	1
4901784	222	C	08/02/2021	10:47	-136.361	43.192	0	87.10	0	10.1180	0	36.4590	8	28.074	0	86.389	0	246.6	4	91.0	4	-1E+10	1	-1E+10	1	-1E+10	1	-1E+10	1	-1E+10	1	-1E+10	1
4901784	222	C	08/02/2021	10:47	-136.361	43.192	0	89.00	0	10.1080	0	36.4650	8	28.080	0	88.273	0	246.5	4	90.9	4	-1E+10	1	-1E+10	1	-1E+10	1	-1E+10	1	-1E+10	1	-1E+10	1
4901784	222	C	08/02/2021	10:47	-136.361	43.192	0	91.00	0	9.9550	0	36.4650	8	28.107	0	90.256	0	247.3	4	90.9	4	-1E+10	1	-1E+10	1	-1E+10	1	-1E+10	1	-1E+10	1	-1E+10	1
4901784	222	C	08/02/2021	10:47	-136.361	43.192	0	93.00	0	9.9470	0	36.4570	8	28.102	0	92.240	0	247.4	4	91.0	4	-1E+10	1	-1E+10	1	-1E+10	1	-1E+10	1	-1E+10	1	-1E+10	1
4901784	222	C	08/02/2021	10:47	-136.361	43.192	0	94.90	0	9.8520	0	36.4610	8	28.122	0	94.124	0	247.9	4	90.9	4	-1E+10	1	-1E+10	1	-1E+10	1	-1E+10	1	-1E+10	1	-1E+10	1
4901784	222	C	08/02/2021	10:47	-136.361	43.192	0	96.80	0	9.8910	0	36.4660	8	28.119	0	96.008	0	248.2	4	91.1	4	-1E+10	1	-1E+10	1	-1E+10	1	-1E+10	1	-1E+10	1	-1E+10	1
4901784	222	C	08/02/2021	10:47	-136.361	43.192	0	98.70	0	9.7080	0	36.4670	8	28.151	0	97.892	0	249.7	4	91.3	4	-1E+10	1	-1E+10	1	-1E+10	1	-1E+10	1	-1E+10	1	-1E+10	1
4901784	222	C	08/02/2021	10:47	-136.361	43.192	0	102.60	0	9.4700	0	36.4510	8	28.179	0	101.759	0	252.0	4	91.7	4	-1E+10	1	-1E+10	1	-1E+10	1	-1E+10	1	-1E+10	1	-1E+10	1
4901784	222	C	08/02/2021	10:47	-136.361	43.192	0	104.50	0	9.4680	0	36.4540	8	28.182	0	103.643	0	252.4	4	91.8	4	-1E+10	1	-1E+10	1	-1E+10	1	-1E+10	1	-1E+10	1	-1E+10	1
4901784	222	C	08/02/2021	10:47	-136.361	43.192	0	107.10	0	9.3970	0	36.4510	8	28.192	0	106.221	0	252.7	4	91.8	4	-1E+10	1	-1E+10	1	-1E+10	1	-1E+10	1	-1E+10	1	-1E+10	1
4901784	222	C	08/02/2021	10:47	-136.361	43.192	0	109.70	0	9.3760	0	36.4550	8	28.198	0	108.799	0	252.5	4	91.7	4	-1E+10	1	-1E+10	1	-1E+10	1	-1E+10	1	-1E+10	1	-1E+10	1
4901784	222	C	08/02/2021	10:47	-136.361	43.192	0	112.90	0	9.2620	0	36.4460	8	28.210	0	111.972	0	252.8	4	91.6	4	-1E+10	1	-1E+10	1	-1E+10	1	-1E+10	1	-1E+10	1	-1E+10	1
4901784	222	C	08/02/2021	10:47	-136.361	43.192	0	115.20	0	9.1620	0	36.4440	8	28.225	0	114.252	0	253.3	4	91.5	4	-1E+10	1	-1E+10	1	-1E+10	1	-1E+10	1	-1E+10	1	-1E+10	1
4901784	222	C	08/02/2021	10:47	-136.361	43.192	0	117.60	0	9.0840	0	36.4460	8	28.240	0	116.632	0	253.2	4	91.4	4	-1E+10	1	-1E+10	1	-1E+10	1	-1E+10	1	-1E+10	1	-1E+10	1
4901784	222	C	08/02/2021	10:47	-136.361	43.192	0	120.00	0	9.0640	0	36.4560	8	28.251	0	119.011	0	252.8	4	91.2	4	-1E+10	1	-1E+10	1	-1E+10	1	-1E+10	1	-1E+10	1	-1E+10	1
4901784	222	C	08/02/2021	10:47	-136.361	43.192	0	122.40	0	8.9870	0	36.4620	8	28.268	0	121.391	0	252.4	4	90.9	4	-1E+10	1	-1E+10	1	-1E+10	1	-1E+10	1	-1E+10	1	-1E+10	1
4901784	222	C	08/02/2021	10:47	-136.361	43.192	0	124.70	0	8.9440	0	36.4700	8	28.282	0	123.671	0	251.7	4	90.5	4	-1E+10	1	-1E+10	1	-1E+10	1	-1E+10	1	-1E+10	1	-1E+10	1
4901784	222	C	08/02/2021	10:47	-136.361	43.192	0	127.10	0	8.8580	0	36.4710	8	28.297	0	126.050	0	250.7	4	90.0	4	-1E+10	1	-1E+10	1	-1E+10	1	-1E+10	1	-1E+10	1	-1E+10	1
4901784	222	C	08/02/2021	10:47	-136.361	43.192	0	130.40	0	8.7560	0	36.4940	8	28.331	0	129.322	0	248.1	4	88.9	4	-1E+10	1	-1E+10	1	-1E+10	1	-1E+10	1	-1E+10	1	-1E+10	1
4901784	222	C	08/02/2021	10:47	-136.361	43.192	0	132.80	0	8.7540	0	36.5230	8	28.354	0	131.702	0	244.3	4	87.5	4	-1E+10	1	-1E+10	1	-1E+10	1	-1E+10	1	-1E+10	1	-1E+10	1
4901784	222	C	08/02/2021	10:47	-136.361	43.192	0	135.40	0	8.7190	0	36.5560	8	28.386	0	134.279	0	239.8	4	85.9	4	-1E+10	1	-1E+10	1	-1E+10	1	-1E+10	1	-1E+10	1	-1E+10	1
4901784	222	C	08/02/2021	10:47	-136.361	43.192	0	138.00	0	8.7950	0	36.6420	8	28.441	0	136.857	0	233.6	4	83.8	4	-1E+10	1	-1E+10	1	-1E+10	1	-1E+10	1	-1E+10	1	-1E+10	1
4901784	222	C	08/02/2021	10:47	-136.361	43.192	0	139.70	0	8.8440	0	36.7050	8	28.483	0	138.542	0	229.8	4	82.6	4	-1E+10	1	-1E+10	1	-1E+10	1	-1E+10	1	-1E+10	1	-1E+10	1
4901784	222	C	08/02/2021	10:47	-136.361	43.192	0	142.20	0	8.9470	0	36.7950	8	28.536	0	141.021	0	224.4	4	80.9	4	-1E+10	1	-1E+10	1	-1E+10	1	-1E+10	1	-1E+10	1	-1E+10	1
4901784	222	C	08/02/2021	10:47	-136.361	43.192	0	144.70	0	9.0410	0	36.9080	8	28.610	0	143.499	0	220.2	4	79.6	4	-1E+10	1	-1E+10	1	-1E+10	1	-1E+10	1	-1E+10	1	-1E+10	1
4901784	222	C	08/02/2021	10:47	-136.361	43.192	0	147.50	0	9.0790	0	36.9490	8	28.636	0	146.275	0	216.7	4	78.5	4	-1E+10	1	-1E+10	1	-1E+10	1	-1E+10	1	-1E+10	1	-1E+10	1
4901784	222	C	08/02/2021	10:47	-136.361	43.192	0	150.20	0	9.1420	0	37.0020	8	28.667	0	148.951	0	212.8	4	77.2	4	-1E+10	1	-1E+10	1	-1E+10	1	-1E+10	1	-1E+10	1	-1E+10	1
4901784	222	C	08/02/2021	10:47	-136.361	43.192	0	152.40	0	9.1040	0	37.0560	8	28.715	0	151.132	0	209.2	4	75.8	4	-1E+10	1	-1E+10	1	-1E+10	1	-1E+10	1	-1E+10	1	-1E+10	1
4901784	222	C	08/02/2021	10:47	-136.361	43.192	0	154.70	0	9.0890	0	37.1290	8	28.775	0	153.412	0	205.6	4	74.5	4	-1E+10	1	-1E+10	1	-1E+10	1	-1E+10	1	-1E+10	1	-1E+10	1
4901784	222	C	08/02/2021	10:47	-136.361	43.192	0	157.40	0	9.0920	0	37.2800	8	28.893	0	156.089	0	201.7	4	73.2	4	-1E+10	1	-1E+10	1	-1E+10	1	-1E+10	1	-1E+10	1	-1E+10	1
4901784	222	C	08/02/2021	10:47	-136.361	43.192	0	160.10	0	9.0650	0	37.3550	8	28.956	0	158.765	0	199.6	4	72.4	4	-1E+10	1	-1E+10	1	-1E+10	1	-1E+10	1	-1E+10	1	-1E+10	1
4901784	222	C	08/02/2021	10:47	-136.361	43.192	0	162.00	0	9.0420	0	37.3880	8	28.986	0	160.649	0	198.6	4	72.1	4	-1E+10	1	-1E+10	1	-1E+10	1	-1E+10	1	-1E+10	1	-1E+10	1
4901784	222	C	08/02/2021	10:47	-136.361	43.192	0	164.70	0	8.9970	0	37.4560	8	29.047	0	163.325	0	197.4	4	71.6	4	-1E+10	1	-1E+10	1	-1E+10	1	-1E+10	1	-1E+10	1	-1E+10	1
4901784	222	C	08/02/2021	10:47	-136.361	43.192	0	167.80	0	8.9060	0	37.4930	8	29.091	0	166.398	0	196.4	4	71.1	4	-1E+10	1	-1E+10	1	-1E+10	1	-1E+10	1	-1E+10	1	-1E+10	1
4901784	222	C	08/02/2021	10:47	-136.361	43.192	0	170.50	0	8.8980	0	37.5530	8	29.140	0	169.074	0	195.3	4	70.7	4	-1E+10	1	-1E+10	1	-1E+10	1	-1E+10	1	-1E+10	1	-1E+10	1
4901784	222	C	08/02/2021	10:47	-136.361	43.192	0	172.90	0	8.8500	0	37.5590	8	29.152	0	171.453	0	194.9	4	70.5	4	-1E+10	1	-1E+10	1	-1E+10	1	-1E+10	1	-1E+10	1	-1E+10	1
4901784	222	C	08/02/2021	10:47	-136.361	43.192	0	175.20	0	8.7790	0	37.5960	8	29.193	0	173.733	0	194.0	4	70.1	4	-1E+10	1	-1E+10	1	-1E+10	1	-1E+10	1	-1E+10	1	-1E+10	1
4901784	222	C	08/02/2021	10:47	-136.361	43.192	0	177.60	0	8.7160	0	37.6380	8	29.236	0	176.112	0	192.5	4	69.5	4	-1E+10	1	-1E+10	1	-1E+10	1	-1E+10	1	-1E+10	1	-1E+10	1
4901784	222	C	08/02/2021	10:47	-136.361	43.192	0	180.00	0	8.7630	0	37.6610	8	29.247	0	178.491	0	191.2	4	69.1	4	-1E+10	1	-1E+10	1	-1E+10	1	-1E+10	1	-1E+10	1	-1E+10	1
4901784	222	C	08/02/2021	10:47	-136.361	43.192	0	182.40	0	8.7700	0	37.6680	8	29.251	0	180.870	0	190.1	4	68.7	4	-1E+10	1	-1E+10	1	-1E+10	1	-1E+10	1	-1E+10	1	-1E+10	1
4901784	222	C	08/02/2021	10:47	-136.361	43.192	0	184.90	0	8.7310	0	37.6940	8	29.278	0	183.348	0	188.9	4	68.2	4	-1E+10	1	-1E+10	1	-1E+10	1	-1E+10	1	-1E+10	1	-1E+10	1
4901784	222	C	08/02/2021	10:47	-136.361	43.192	0	187.40	0	8.6940	0	37.7340	8	29.315	0	185.825	0	187.8	4	67.8	4	-1E+10	1	-1E+10	1	-1E+10	1	-1E+10	1	-1E+10	1	-1E+10	1
4901784	222	C	08/02/2021	10:47	-136.361	43.192	0	189.90	0	8.6710	0	37.7620	8	29.341	0	188.303	0	187.1	4	67.5	4	-1E+10	1	-1E+10	1	-1E+10	1	-1E+10	1	-1E+10	1	-1E+10	1
4901784	222	C	08/02/2021	10:47	-136.361	43.192	0	192.40	0	8.6400	0	37.7900	8	29.368	0	190.781	0	187.4	4	67.6	4	-1E+10	1	-1E+10	1	-1E+10	1	-1E+10	1	-1E+10	1	-1E+10	1
4901784	222	C	08/02/2021	10:47	-136.361	43.192	0	194.90	0	8.6090	0	37.8010	8	29.382	0	193.259	0	186.9	4	67.4	4	-1E+10	1	-1E+10	1	-1E+10	1	-1E+10	1	-1E+10	1	-1E+10	1
4901784	222	C	08/02/2021	10:47	-136.361	43.192	0	197.40	0	8.5850	0	37.8130	8	29.395	0	195.737	0	186.5	4	67.2	4	-1E+10	1	-1E+10	1	-1E+10	1	-1E+10	1	-1E+10	1	-1E+10	1
4901784	222	C	08/02/2021	10:47	-136.361	43.192	0	200.00	0	8.5190	0	37.8220	8	29.413	0	198.314	0	186.2	4	67.0	4	-1E+10	1	-1E+10	1	-1E+10	1	-1E+10	1	-1E+10	1	-1E+10	1
4901784	222	C	08/02/2021	10:47	-136.361	43.192	0	202.60	0	8.5060	0	37.8280	8	29.420	0	200.890	0	185.4	4	66.7	4	-1E+10	1	-1E+10	1	-1E+10	1	-1E+10	1	-1E+10	1	-1E+10	1
4901784	222	C	08/02/2021	10:47	-136.361	43.192	0	205.20	0	8.3810	0	37.8330	8	29.444	0	203.467	0	185.4	4	66.5	4	-1E+10	1	-1E+10	1	-1E+10	1	-1E+10	1	-1E+10	1	-1E+10	1
4901784	222	C	08/02/2021	10:47	-136.361	43.192	0	207.80	0	8.3210	0	37.8400	8	29.459	0	206.044	0	185.0	4	66.3	4	-1E+10	1	-1E+10	1	-1E+10	1	-1E+10	1	-1E+10	1	-1E+10	1
4901784	222	C	08/02/2021	10:47	-136.361	43.192	0	209.60	0	8.2880	0	37.8370	8	29.462	0	207.828	0	184.9	4	66.2	4	-1E+10	1	-1E+10	1	-1E+10	1	-1E+10	1	-1E+10	1	-1E+10	1
4901784	222	C	08/02/2021	10:47	-136.361	43.192	0	212.20	0	8.2510	0	37.8380	8	29.469	0	210.404	0	184.3	4	65.9	4	-1E+10	1	-1E+10	1	-1E+10	1	-1E+10	1	-1E+10	1	-1E+10	1
4901784	222	C	08/02/2021	10:47	-136.361	43.192	0	214.90	0	8.2040	0	37.8390	8	29.477	0	213.080	0	183.9	4	65.7	4	-1E+10	1	-1E+10	1	-1E+10	1	-1E+10	1	-1E+10	1	-1E+10	1
4901784	222	C	08/02/2021	10:47	-136.361	43.192	0	217.60	0	8.1770	0	37.8410	8	29.483	0	215.756	0	183.3	4	65.5	4	-1E+10	1	-1E+10	1	-1E+10	1	-1E+10	1	-1E+10	1	-1E+10	1
4901784	222	C	08/02/2021	10:47	-136.361	43.192	0	220.30	0	8.1290	0	37.8400	8	29.490	0	218.432	0	182.8	4	65.2	4	-1E+10	1	-1E+10	1	-1E+10	1	-1E+10	1	-1E+10	1	-1E+10	1
4901784	222	C	08/02/2021	10:47	-136.361	43.192	0	222.00	0	8.0620	0	37.8430	8	29.503	0	220.116	0	182.4	4	65.0	4	-1E+10	1	-1E+10	1	-1E+10	1	-1E+10	1	-1E+10	1	-1E+10	1
4901784	222	C	08/02/2021	10:47	-136.361	43.192	0	224.80	0	8.0330	0	37.8420	8	29.507	0	222.891	0	181.8	4	64.8	4	-1E+10	1	-1E+10	1	-1E+10	1	-1E+10	1	-1E+10	1	-1E+10	1
4901784	222	C	08/02/2021	10:47	-136.361	43.192	0	227.40	0	7.9820	0	37.8410	8	29.514	0	225.468	0	181.1	4	64.4	4	-1E+10	1	-1E+10	1	-1E+10	1	-1E+10	1	-1E+10	1	-1E+10	1
4901784	222	C	08/02/2021	10:47	-136.361	43.192	0	230.10	0	7.9240	0	37.8400	8	29.522	0	228.143	0	180.3	4	64.0	4	-1E+10	1	-1E+10	1	-1E+10	1	-1E+10	1	-1E+10	1	-1E+10	1
4901784	222	C	08/02/2021	10:47	-136.361	43.192	0	232.80	0	7.8750	0	37.8410	8	29.531	0	230.819	0	179.4	4	63.7	4	-1E+10	1	-1E+10	1	-1E+10	1	-1E+10	1	-1E+10	1	-1E+10	1
4901784	222	C	08/02/2021	10:47	-136.361	43.192	0	234.60	0	7.8460	0	37.8400	8	29.535	0	232.602	0	178.7	4	63.4	4	-1E+10	1	-1E+10	1	-1E+10	1	-1E+10	1	-1E+10	1	-1E+10	1
4901784	222	C	08/02/2021	10:47	-136.361	43.192	0	237.20	0	7.7880	0	37.8370	8	29.541	0	235.179	0	177.4	4	62.8	4	-1E+10	1	-1E+10	1	-1E+10	1	-1E+10	1	-1E+10	1	-1E+10	1
4901784	222	C	08/02/2021	10:47	-136.361	43.192	0	240.00	0	7.7140	0	37.8400	8	29.555	0	237.953	0	175.7	4	62.1	4	-1E+10	1	-1E+10	1	-1E+10	1	-1E+10	1	-1E+10	1	-1E+10	1
4901784	222	C	08/02/2021	10:47	-136.361	43.192	0	242.60	0	7.6720	0	37.8380	8	29.560	0	240.530	0	173.7	4	61.4	4	-1E+10	1	-1E+10	1	-1E+10	1	-1E+10	1	-1E+10	1	-1E+10	1
4901784	222	C	08/02/2021	10:47	-136.361	43.192	0	245.40	0	7.6220	0	37.8390	8	29.568	0	243.304	0	171.1	4	60.4	4	-1E+10	1	-1E+10	1	-1E+10	1	-1E+10	1	-1E+10	1	-1E+10	1
4901784	222	C	08/02/2021	10:47	-136.361	43.192	0	247.10	0	7.5870	0	37.8380	8	29.573	0	244.989	0	169.4	4	59.7	4	-1E+10	1	-1E+10	1	-1E+10	1	-1E+10	1	-1E+10	1	-1E+10	1
4901784	222	C	08/02/2021	10:47	-136.361	43.192	0	249.80	0	7.5330	0	37.8470	8	29.588	0	247.664	0	167.2	4	58.9	4	-1E+10	1	-1E+10	1	-1E+10	1	-1E+10	1	-1E+10	1	-1E+10	1
4901784	222	C	08/02/2021	10:47	-136.361	43.192	0	252.50	0	7.5290	0	37.8500	8	29.591	0	250.339	0	165.4	4	58.3	4	-1E+10	1	-1E+10	1	-1E+10	1	-1E+10	1	-1E+10	1	-1E+10	1
4901784	222	C	08/02/2021	10:47	-136.361	43.192	0	255.30	0	7.5080	0	37.8530	8	29.597	0	253.113	0	164.4	4	57.9	4	-1E+10	1	-1E+10	1	-1E+10	1	-1E+10	1	-1E+10	1	-1E+10	1
4901784	222	C	08/02/2021	10:47	-136.361	43.192	0	258.00	0	7.4760	0	37.8520	8	29.601	0	255.789	0	163.2	4	57.4	4	-1E+10	1	-1E+10	1	-1E+10	1	-1E+10	1	-1E+10	1	-1E+10	1
4901784	222	C	08/02/2021	10:47	-136.361	43.192	0	259.70	0	7.4640	0	37.8560	8	29.606	0	257.473	0	161.5	4	56.8	4	-1E+10	1	-1E+10	1	-1E+10	1	-1E+10	1	-1E+10	1	-1E+10	1
4901784	222	C	08/02/2021	10:47	-136.361	43.192	0	262.50	0	7.4330	0	37.8650	8	29.618	0	260.247	0	159.7	4	56.1	4	-1E+10	1	-1E+10	1	-1E+10	1	-1E+10	1	-1E+10	1	-1E+10	1
4901784	222	C	08/02/2021	10:47	-136.361	43.192	0	265.10	0	7.4200	0	37.8700	8	29.624	0	262.823	0	158.3	4	55.6	4	-1E+10	1	-1E+10	1	-1E+10	1	-1E+10	1	-1E+10	1	-1E+10	1
4901784	222	C	08/02/2021	10:47	-136.361	43.192	0	267.80	0	7.3920	0	37.8740	8	29.631	0	265.498	0	156.6	4	55.0	4	-1E+10	1	-1E+10	1	-1E+10	1	-1E+10	1	-1E+10	1	-1E+10	1
4901784	222	C	08/02/2021	10:47	-136.361	43.192	0	270.60	0	7.3580	0	37.8790	8	29.640	0	268.272	0	155.0	4	54.4	4	-1E+10	1	-1E+10	1	-1E+10	1	-1E+10	1	-1E+10	1	-1E+10	1
4901784	222	C	08/02/2021	10:47	-136.361	43.192	0	272.40	0	7.3400	0	37.8820	8	29.645	0	270.056	0	153.9	4	54.0	4	-1E+10	1	-1E+10	1	-1E+10	1	-1E+10	1	-1E+10	1	-1E+10	1
4901784	222	C	08/02/2021	10:47	-136.361	43.192	0	275.10	0	7.3200	0	37.8840	8	29.650	0	272.731	0	152.2	4	53.4	4	-1E+10	1	-1E+10	1	-1E+10	1	-1E+10	1	-1E+10	1	-1E+10	1
4901784	222	C	08/02/2021	10:47	-136.361	43.192	0	277.90	0	7.2700	0	37.8910	8	29.663	0	275.505	0	150.7	4	52.8	4	-1E+10	1	-1E+10	1	-1E+10	1	-1E+10	1	-1E+10	1	-1E+10	1
4901784	222	C	08/02/2021	10:47	-136.361	43.192	0	279.70	0	7.2470	0	37.8950	8	29.669	0	277.288	0	149.9	4	52.5	4	-1E+10	1	-1E+10	1	-1E+10	1	-1E+10	1	-1E+10	1	-1E+10	1
4901784	222	C	08/02/2021	10:47	-136.361	43.192	0	282.40	0	7.2250	0	37.8960	8	29.673	0	279.963	0	148.7	4	52.0	4	-1E+10	1	-1E+10	1	-1E+10	1	-1E+10	1	-1E+10	1	-1E+10	1
4901784	222	C	08/02/2021	10:47	-136.361	43.192	0	285.20	0	7.1920	0	37.8990	8	29.681	0	282.737	0	147.6	4	51.6	4	-1E+10	1	-1E+10	1	-1E+10	1	-1E+10	1	-1E+10	1	-1E+10	1
4901784	222	C	08/02/2021	10:47	-136.361	43.192	0	287.00	0	7.1750	0	37.8990	8	29.683	0	284.520	0	146.8	4	51.3	4	-1E+10	1	-1E+10	1	-1E+10	1	-1E+10	1	-1E+10	1	-1E+10	1
4901784	222	C	08/02/2021	10:47	-136.361	43.192	0	289.80	0	7.1410	0	37.9030	8	29.692	0	287.294	0	145.6	4	50.9	4	-1E+10	1	-1E+10	1	-1E+10	1	-1E+10	1	-1E+10	1	-1E+10	1
4901784	222	C	08/02/2021	10:47	-136.361	43.192	0	292.60	0	7.1110	0	37.9050	8	29.698	0	290.068	0	144.6	4	50.5	4	-1E+10	1	-1E+10	1	-1E+10	1	-1E+10	1	-1E+10	1	-1E+10	1
4901784	222	C	08/02/2021	10:47	-136.361	43.192	0	294.40	0	7.0830	0	37.9090	8	29.705	0	291.851	0	143.8	4	50.1	4	-1E+10	1	-1E+10	1	-1E+10	1	-1E+10	1	-1E+10	1	-1E+10	1
4901784	222	C	08/02/2021	10:47	-136.361	43.192	0	297.20	0	7.0580	0	37.9100	8	29.709	0	294.625	0	142.4	4	49.7	4	-1E+10	1	-1E+10	1	-1E+10	1	-1E+10	1	-1E+10	1	-1E+10	1
4901784	222	C	08/02/2021	10:47	-136.361	43.192	0	300.00	0	7.0270	0	37.9120	8	29.716	0	297.398	0	140.9	4	49.1	4	-1E+10	1	-1E+10	1	-1E+10	1	-1E+10	1	-1E+10	1	-1E+10	1
4901784	222	C	08/02/2021	10:47	-136.361	43.192	0	301.90	0	7.0010	0	37.9140	8	29.721	0	299.281	0	139.8	4	48.7	4	-1E+10	1	-1E+10	1	-1E+10	1	-1E+10	1	-1E+10	1	-1E+10	1
4901784	222	C	08/02/2021	10:47	-136.361	43.192	0	304.70	0	6.9650	0	37.9170	8	29.729	0	302.054	0	138.2	4	48.1	4	-1E+10	1	-1E+10	1	-1E+10	1	-1E+10	1	-1E+10	1	-1E+10	1
4901784	222	C	08/02/2021	10:47	-136.361	43.192	0	307.50	0	6.9380	0	37.9180	8	29.733	0	304.828	0	136.6	4	47.5	4	-1E+10	1	-1E+10	1	-1E+10	1	-1E+10	1	-1E+10	1	-1E+10	1
4901784	222	C	08/02/2021	10:47	-136.361	43.192	0	310.30	0	6.8970	0	37.9240	8	29.744	0	307.601	0	135.1	4	46.9	4	-1E+10	1	-1E+10	1	-1E+10	1	-1E+10	1	-1E+10	1	-1E+10	1
4901784	222	C	08/02/2021	10:47	-136.361	43.192	0	313.10	0	6.8600	0	37.9250	8	29.750	0	310.375	0	133.7	4	46.4	4	-1E+10	1	-1E+10	1	-1E+10	1	-1E+10	1	-1E+10	1	-1E+10	1
4901784	222	C	08/02/2021	10:47	-136.361	43.192	0	315.00	0	6.8460	0	37.9260	8	29.753	0	312.257	0	132.9	4	46.1	4	-1E+10	1	-1E+10	1	-1E+10	1	-1E+10	1	-1E+10	1	-1E+10	1
4901784	222	C	08/02/2021	10:47	-136.361	43.192	0	316.90	0	6.8280	0	37.9260	8	29.756	0	314.139	0	132.3	4	45.9	4	-1E+10	1	-1E+10	1	-1E+10	1	-1E+10	1	-1E+10	1	-1E+10	1
4901784	222	C	08/02/2021	10:47	-136.361	43.192	0	319.90	0	6.7980	0	37.9300	8	29.763	0	317.111	0	131.3	4	45.5	4	-1E+10	1	-1E+10	1	-1E+10	1	-1E+10	1	-1E+10	1	-1E+10	1
4901784	222	C	08/02/2021	10:47	-136.361	43.192	0	322.80	0	6.7700	0	37.9320	8	29.769	0	319.983	0	130.4	4	45.2	4	-1E+10	1	-1E+10	1	-1E+10	1	-1E+10	1	-1E+10	1	-1E+10	1
4901784	222	C	08/02/2021	10:47	-136.361	43.192	0	324.70	0	6.7580	0	37.9330	8	29.771	0	321.865	0	129.9	4	45.0	4	-1E+10	1	-1E+10	1	-1E+10	1	-1E+10	1	-1E+10	1	-1E+10	1
4901784	222	C	08/02/2021	10:47	-136.361	43.192	0	327.60	0	6.7350	0	37.9330	8	29.775	0	324.738	0	128.9	4	44.6	4	-1E+10	1	-1E+10	1	-1E+10	1	-1E+10	1	-1E+10	1	-1E+10	1
4901784	222	C	08/02/2021	10:47	-136.361	43.192	0	330.10	0	6.7080	0	37.9340	8	29.779	0	327.214	0	128.0	4	44.3	4	-1E+10	1	-1E+10	1	-1E+10	1	-1E+10	1	-1E+10	1	-1E+10	1
4901784	222	C	08/02/2021	10:47	-136.361	43.192	0	332.50	0	6.6720	0	37.9380	8	29.788	0	329.591	0	127.2	4	44.0	4	-1E+10	1	-1E+10	1	-1E+10	1	-1E+10	1	-1E+10	1	-1E+10	1
4901784	222	C	08/02/2021	10:47	-136.361	43.192	0	334.90	0	6.6630	0	37.9370	8	29.788	0	331.968	0	126.4	4	43.7	4	-1E+10	1	-1E+10	1	-1E+10	1	-1E+10	1	-1E+10	1	-1E+10	1
4901784	222	C	08/02/2021	10:47	-136.361	43.192	0	337.30	0	6.6440	0	37.9350	8	29.789	0	334.345	0	125.5	4	43.4	4	-1E+10	1	-1E+10	1	-1E+10	1	-1E+10	1	-1E+10	1	-1E+10	1
4901784	222	C	08/02/2021	10:47	-136.361	43.192	0	339.70	0	6.6080	0	37.9370	8	29.796	0	336.722	0	124.6	4	43.0	4	-1E+10	1	-1E+10	1	-1E+10	1	-1E+10	1	-1E+10	1	-1E+10	1
4901784	222	C	08/02/2021	10:47	-136.361	43.192	0	342.80	0	6.5350	0	37.9380	8	29.807	0	339.792	0	124.0	4	42.7	4	-1E+10	1	-1E+10	1	-1E+10	1	-1E+10	1	-1E+10	1	-1E+10	1
4901784	222	C	08/02/2021	10:47	-136.361	43.192	0	345.30	0	6.4380	0	37.9460	8	29.827	0	342.268	0	124.3	4	42.7	4	-1E+10	1	-1E+10	1	-1E+10	1	-1E+10	1	-1E+10	1	-1E+10	1
4901784	222	C	08/02/2021	10:47	-136.361	43.192	0	347.70	0	6.4130	0	37.9450	8	29.830	0	344.645	0	124.1	4	42.6	4	-1E+10	1	-1E+10	1	-1E+10	1	-1E+10	1	-1E+10	1	-1E+10	1
4901784	222	C	08/02/2021	10:47	-136.361	43.192	0	350.20	0	6.4000	0	37.9460	8	29.833	0	347.121	0	123.3	4	42.4	4	-1E+10	1	-1E+10	1	-1E+10	1	-1E+10	1	-1E+10	1	-1E+10	1
4901784	222	C	08/02/2021	10:47	-136.361	43.192	0	352.80	0	6.3870	0	37.9460	8	29.834	0	349.696	0	122.6	4	42.1	4	-1E+10	1	-1E+10	1	-1E+10	1	-1E+10	1	-1E+10	1	-1E+10	1
4901784	222	C	08/02/2021	10:47	-136.361	43.192	0	355.40	0	6.3410	0	37.9490	8	29.843	0	352.271	0	122.1	4	41.9	4	-1E+10	1	-1E+10	1	-1E+10	1	-1E+10	1	-1E+10	1	-1E+10	1
4901784	222	C	08/02/2021	10:47	-136.361	43.192	0	357.10	0	6.3070	0	37.9490	8	29.848	0	353.955	0	120.8	4	41.4	4	-1E+10	1	-1E+10	1	-1E+10	1	-1E+10	1	-1E+10	1	-1E+10	1
4901784	222	C	08/02/2021	10:47	-136.361	43.192	0	359.70	0	6.2910	0	37.9510	8	29.852	0	356.529	0	118.3	4	40.6	4	-1E+10	1	-1E+10	1	-1E+10	1	-1E+10	1	-1E+10	1	-1E+10	1
4901784	222	C	08/02/2021	10:47	-136.361	43.192	0	362.20	0	6.2610	0	37.9520	8	29.857	0	359.005	0	116.8	4	40.0	4	-1E+10	1	-1E+10	1	-1E+10	1	-1E+10	1	-1E+10	1	-1E+10	1
4901784	222	C	08/02/2021	10:47	-136.361	43.192	0	364.70	0	6.2280	0	37.9540	8	29.863	0	361.481	0	115.2	4	39.4	4	-1E+10	1	-1E+10	1	-1E+10	1	-1E+10	1	-1E+10	1	-1E+10	1
4901784	222	C	08/02/2021	10:47	-136.361	43.192	0	367.30	0	6.1840	0	37.9550	8	29.870	0	364.056	0	113.8	4	38.9	4	-1E+10	1	-1E+10	1	-1E+10	1	-1E+10	1	-1E+10	1	-1E+10	1
4901784	222	C	08/02/2021	10:47	-136.361	43.192	0	369.80	0	6.1480	0	37.9580	8	29.877	0	366.531	0	112.6	4	38.4	4	-1E+10	1	-1E+10	1	-1E+10	1	-1E+10	1	-1E+10	1	-1E+10	1
4901784	222	C	08/02/2021	10:47	-136.361	43.192	0	372.30	0	6.1170	0	37.9570	8	29.881	0	369.007	0	111.4	4	38.0	4	-1E+10	1	-1E+10	1	-1E+10	1	-1E+10	1	-1E+10	1	-1E+10	1
4901784	222	C	08/02/2021	10:47	-136.361	43.192	0	374.90	0	6.0560	0	37.9620	8	29.893	0	371.582	0	109.8	4	37.4	4	-1E+10	1	-1E+10	1	-1E+10	1	-1E+10	1	-1E+10	1	-1E+10	1
4901784	222	C	08/02/2021	10:47	-136.361	43.192	0	377.50	0	6.0150	0	37.9650	8	29.901	0	374.156	0	108.5	4	37.0	4	-1E+10	1	-1E+10	1	-1E+10	1	-1E+10	1	-1E+10	1	-1E+10	1
4901784	222	C	08/02/2021	10:47	-136.361	43.192	0	380.10	0	5.9920	0	37.9650	8	29.904	0	376.731	0	107.7	4	36.7	4	-1E+10	1	-1E+10	1	-1E+10	1	-1E+10	1	-1E+10	1	-1E+10	1
4901784	222	C	08/02/2021	10:47	-136.361	43.192	0	382.70	0	5.9340	0	37.9690	8	29.915	0	379.306	0	107.2	4	36.4	4	-1E+10	1	-1E+10	1	-1E+10	1	-1E+10	1	-1E+10	1	-1E+10	1
4901784	222	C	08/02/2021	10:47	-136.361	43.192	0	385.30	0	5.9290	0	37.9660	8	29.913	0	381.880	0	106.5	4	36.2	4	-1E+10	1	-1E+10	1	-1E+10	1	-1E+10	1	-1E+10	1	-1E+10	1
4901784	222	C	08/02/2021	10:47	-136.361	43.192	0	387.90	0	5.8860	0	37.9640	8	29.917	0	384.455	0	105.9	4	36.0	4	-1E+10	1	-1E+10	1	-1E+10	1	-1E+10	1	-1E+10	1	-1E+10	1
4901784	222	C	08/02/2021	10:47	-136.361	43.192	0	389.60	0	5.8120	0	37.9690	8	29.931	0	386.138	0	106.2	4	36.0	4	-1E+10	1	-1E+10	1	-1E+10	1	-1E+10	1	-1E+10	1	-1E+10	1
4901784	222	C	08/02/2021	10:47	-136.361	43.192	0	392.10	0	5.7610	0	37.9720	8	29.940	0	388.613	0	105.5	4	35.7	4	-1E+10	1	-1E+10	1	-1E+10	1	-1E+10	1	-1E+10	1	-1E+10	1
4901784	222	C	08/02/2021	10:47	-136.361	43.192	0	394.60	0	5.7440	0	37.9730	8	29.944	0	391.089	0	104.7	4	35.4	4	-1E+10	1	-1E+10	1	-1E+10	1	-1E+10	1	-1E+10	1	-1E+10	1
4901784	222	C	08/02/2021	10:47	-136.361	43.192	0	397.20	0	5.7290	0	37.9740	8	29.946	0	393.663	0	103.7	4	35.1	4	-1E+10	1	-1E+10	1	-1E+10	1	-1E+10	1	-1E+10	1	-1E+10	1
4901784	222	C	08/02/2021	10:47	-136.361	43.192	0	399.70	0	5.7150	0	37.9740	8	29.948	0	396.139	0	102.6	4	34.7	4	-1E+10	1	-1E+10	1	-1E+10	1	-1E+10	1	-1E+10	1	-1E+10	1
4901784	222	C	08/02/2021	10:47	-136.361	43.192	0	402.30	0	5.6800	0	37.9770	8	29.955	0	398.713	0	101.4	4	34.3	4	-1E+10	1	-1E+10	1	-1E+10	1	-1E+10	1	-1E+10	1	-1E+10	1
4901784	222	C	08/02/2021	10:47	-136.361	43.192	0	405.00	0	5.6400	0	37.9800	8	29.963	0	401.386	0	100.3	4	33.9	4	-1E+10	1	-1E+10	1	-1E+10	1	-1E+10	1	-1E+10	1	-1E+10	1
4901784	222	C	08/02/2021	10:47	-136.361	43.192	0	407.70	0	5.6180	0	37.9810	8	29.967	0	404.060	0	99.0	4	33.4	4	-1E+10	1	-1E+10	1	-1E+10	1	-1E+10	1	-1E+10	1	-1E+10	1
4901784	222	C	08/02/2021	10:47	-136.361	43.192	0	410.40	0	5.5960	0	37.9830	8	29.971	0	406.733	0	98.1	4	33.1	4	-1E+10	1	-1E+10	1	-1E+10	1	-1E+10	1	-1E+10	1	-1E+10	1
4901784	222	C	08/02/2021	10:47	-136.361	43.192	0	412.20	0	5.5600	0	37.9860	8	29.978	0	408.515	0	97.4	4	32.8	4	-1E+10	1	-1E+10	1	-1E+10	1	-1E+10	1	-1E+10	1	-1E+10	1
4901784	222	C	08/02/2021	10:47	-136.361	43.192	0	414.90	0	5.5450	0	37.9880	8	29.982	0	411.188	0	96.3	4	32.5	4	-1E+10	1	-1E+10	1	-1E+10	1	-1E+10	1	-1E+10	1	-1E+10	1
4901784	222	C	08/02/2021	10:47	-136.361	43.192	0	417.60	0	5.5070	0	37.9920	8	29.990	0	413.861	0	95.1	4	32.0	4	-1E+10	1	-1E+10	1	-1E+10	1	-1E+10	1	-1E+10	1	-1E+10	1
4901784	222	C	08/02/2021	10:47	-136.361	43.192	0	420.30	0	5.4720	0	37.9920	8	29.994	0	416.534	0	94.0	4	31.6	4	-1E+10	1	-1E+10	1	-1E+10	1	-1E+10	1	-1E+10	1	-1E+10	1
4901784	222	C	08/02/2021	10:47	-136.361	43.192	0	423.10	0	5.4540	0	37.9940	8	29.998	0	419.307	0	92.7	4	31.2	4	-1E+10	1	-1E+10	1	-1E+10	1	-1E+10	1	-1E+10	1	-1E+10	1
4901784	222	C	08/02/2021	10:47	-136.361	43.192	0	424.90	0	5.4350	0	37.9970	8	30.003	0	421.089	0	91.7	4	30.8	4	-1E+10	1	-1E+10	1	-1E+10	1	-1E+10	1	-1E+10	1	-1E+10	1
4901784	222	C	08/02/2021	10:47	-136.361	43.192	0	427.70	0	5.4090	0	38.0010	8	30.010	0	423.861	0	90.5	4	30.4	4	-1E+10	1	-1E+10	1	-1E+10	1	-1E+10	1	-1E+10	1	-1E+10	1
4901784	222	C	08/02/2021	10:47	-136.361	43.192	0	430.50	0	5.3860	0	38.0030	8	30.014	0	426.633	0	89.1	4	29.9	4	-1E+10	1	-1E+10	1	-1E+10	1	-1E+10	1	-1E+10	1	-1E+10	1
4901784	222	C	08/02/2021	10:47	-136.361	43.192	0	432.30	0	5.3770	0	38.0030	8	30.015	0	428.415	0	88.0	4	29.5	4	-1E+10	1	-1E+10	1	-1E+10	1	-1E+10	1	-1E+10	1	-1E+10	1
4901784	222	C	08/02/2021	10:47	-136.361	43.192	0	435.10	0	5.3490	0	38.0070	8	30.022	0	431.186	0	85.8	4	28.8	4	-1E+10	1	-1E+10	1	-1E+10	1	-1E+10	1	-1E+10	1	-1E+10	1
4901784	222	C	08/02/2021	10:47	-136.361	43.192	0	437.80	0	5.3290	0	38.0120	8	30.029	0	433.859	0	83.8	4	28.1	4	-1E+10	1	-1E+10	1	-1E+10	1	-1E+10	1	-1E+10	1	-1E+10	1
4901784	222	C	08/02/2021	10:47	-136.361	43.192	0	439.70	0	5.3280	0	38.0120	8	30.029	0	435.740	0	82.3	4	27.6	4	-1E+10	1	-1E+10	1	-1E+10	1	-1E+10	1	-1E+10	1	-1E+10	1
4901784	222	C	08/02/2021	10:47	-136.361	43.192	0	442.40	0	5.2890	0	38.0140	8	30.036	0	438.413	0	81.9	4	27.4	4	-1E+10	1	-1E+10	1	-1E+10	1	-1E+10	1	-1E+10	1	-1E+10	1
4901784	222	C	08/02/2021	10:47	-136.361	43.192	0	445.20	0	5.2330	0	38.0200	8	30.047	0	441.185	0	82.3	4	27.5	4	-1E+10	1	-1E+10	1	-1E+10	1	-1E+10	1	-1E+10	1	-1E+10	1
4901784	222	C	08/02/2021	10:47	-136.361	43.192	0	447.10	0	5.2230	0	38.0220	8	30.050	0	443.066	0	82.2	4	27.5	4	-1E+10	1	-1E+10	1	-1E+10	1	-1E+10	1	-1E+10	1	-1E+10	1
4901784	222	C	08/02/2021	10:47	-136.361	43.192	0	449.90	0	5.2020	0	38.0210	8	30.052	0	445.837	0	82.4	4	27.6	4	-1E+10	1	-1E+10	1	-1E+10	1	-1E+10	1	-1E+10	1	-1E+10	1
4901784	222	C	08/02/2021	10:47	-136.361	43.192	0	452.60	0	5.1800	0	38.0240	8	30.057	0	448.510	0	81.6	4	27.3	4	-1E+10	1	-1E+10	1	-1E+10	1	-1E+10	1	-1E+10	1	-1E+10	1
4901784	222	C	08/02/2021	10:47	-136.361	43.192	0	454.50	0	5.1620	0	38.0230	8	30.059	0	450.391	0	80.9	4	27.0	4	-1E+10	1	-1E+10	1	-1E+10	1	-1E+10	1	-1E+10	1	-1E+10	1
4901784	222	C	08/02/2021	10:47	-136.361	43.192	0	457.30	0	5.1360	0	38.0280	8	30.066	0	453.163	0	79.5	4	26.5	4	-1E+10	1	-1E+10	1	-1E+10	1	-1E+10	1	-1E+10	1	-1E+10	1
4901784	222	C	08/02/2021	10:47	-136.361	43.192	0	460.10	0	5.1080	0	38.0310	8	30.072	0	455.934	0	77.9	4	26.0	4	-1E+10	1	-1E+10	1	-1E+10	1	-1E+10	1	-1E+10	1	-1E+10	1
4901784	222	C	08/02/2021	10:47	-136.361	43.192	0	462.00	0	5.0980	0	38.0330	8	30.075	0	457.815	0	76.7	4	25.6	4	-1E+10	1	-1E+10	1	-1E+10	1	-1E+10	1	-1E+10	1	-1E+10	1
4901784	222	C	08/02/2021	10:47	-136.361	43.192	0	464.90	0	5.0930	0	38.0370	8	30.079	0	460.685	0	74.6	4	24.9	4	-1E+10	1	-1E+10	1	-1E+10	1	-1E+10	1	-1E+10	1	-1E+10	1
4901784	222	C	08/02/2021	10:47	-136.361	43.192	0	467.70	0	5.0840	0	38.0380	8	30.081	0	463.457	0	74.4	4	24.8	4	-1E+10	1	-1E+10	1	-1E+10	1	-1E+10	1	-1E+10	1	-1E+10	1
4901784	222	C	08/02/2021	10:47	-136.361	43.192	0	469.60	0	5.0580	0	38.0390	8	30.085	0	465.338	0	75.1	4	25.0	4	-1E+10	1	-1E+10	1	-1E+10	1	-1E+10	1	-1E+10	1	-1E+10	1
4901784	222	C	08/02/2021	10:47	-136.361	43.192	0	472.50	0	5.0250	0	38.0420	8	30.091	0	468.208	0	75.2	4	25.1	4	-1E+10	1	-1E+10	1	-1E+10	1	-1E+10	1	-1E+10	1	-1E+10	1
4901784	222	C	08/02/2021	10:47	-136.361	43.192	0	475.40	0	4.9930	0	38.0460	8	30.098	0	471.078	0	74.7	4	24.9	4	-1E+10	1	-1E+10	1	-1E+10	1	-1E+10	1	-1E+10	1	-1E+10	1
4901784	222	C	08/02/2021	10:47	-136.361	43.192	0	477.90	0	4.9700	0	38.0470	8	30.102	0	473.553	0	74.3	4	24.7	4	-1E+10	1	-1E+10	1	-1E+10	1	-1E+10	1	-1E+10	1	-1E+10	1
4901784	222	C	08/02/2021	10:47	-136.361	43.192	0	479.70	0	4.9610	0	38.0470	8	30.103	0	475.334	0	73.8	4	24.5	4	-1E+10	1	-1E+10	1	-1E+10	1	-1E+10	1	-1E+10	1	-1E+10	1
4901784	222	C	08/02/2021	10:47	-136.361	43.192	0	482.10	0	4.9330	0	38.0510	8	30.110	0	477.710	0	73.0	4	24.2	4	-1E+10	1	-1E+10	1	-1E+10	1	-1E+10	1	-1E+10	1	-1E+10	1
4901784	222	C	08/02/2021	10:47	-136.361	43.192	0	485.30	0	4.9080	0	38.0550	8	30.116	0	480.877	0	72.2	4	24.0	4	-1E+10	1	-1E+10	1	-1E+10	1	-1E+10	1	-1E+10	1	-1E+10	1
4901784	222	C	08/02/2021	10:47	-136.361	43.192	0	487.70	0	4.8820	0	38.0590	8	30.123	0	483.252	0	71.5	4	23.7	4	-1E+10	1	-1E+10	1	-1E+10	1	-1E+10	1	-1E+10	1	-1E+10	1
4901784	222	C	08/02/2021	10:47	-136.361	43.192	0	490.20	0	4.8640	0	38.0610	8	30.126	0	485.726	0	70.8	4	23.5	4	-1E+10	1	-1E+10	1	-1E+10	1	-1E+10	1	-1E+10	1	-1E+10	1
4901784	222	C	08/02/2021	10:47	-136.361	43.192	0	492.70	0	4.8440	0	38.0640	8	30.131	0	488.201	0	70.0	4	23.2	4	-1E+10	1	-1E+10	1	-1E+10	1	-1E+10	1	-1E+10	1	-1E+10	1
4901784	222	C	08/02/2021	10:47	-136.361	43.192	0	495.10	0	4.8260	0	38.0670	8	30.136	0	490.576	0	69.3	4	23.0	4	-1E+10	1	-1E+10	1	-1E+10	1	-1E+10	1	-1E+10	1	-1E+10	1
4901784	222	C	08/02/2021	10:47	-136.361	43.192	0	497.60	0	4.8070	0	38.0700	8	30.141	0	493.050	0	68.7	4	22.8	4	-1E+10	1	-1E+10	1	-1E+10	1	-1E+10	1	-1E+10	1	-1E+10	1
4901784	222	C	08/02/2021	10:47	-136.361	43.192	0	500.10	0	4.7950	0	38.0730	8	30.144	0	495.524	0	68.0	4	22.5	4	-1E+10	1	-1E+10	1	-1E+10	1	-1E+10	1	-1E+10	1	-1E+10	1
4901784	222	C	08/02/2021	10:47	-136.361	43.192	0	504.30	0	4.7670	0	38.0770	8	30.151	0	499.681	0	67.1	4	22.2	4	-1E+10	1	-1E+10	1	-1E+10	1	-1E+10	1	-1E+10	1	-1E+10	1
4901784	222	C	08/02/2021	10:47	-136.361	43.192	0	509.40	0	4.7510	0	38.0790	8	30.155	0	504.728	0	65.9	4	21.8	4	-1E+10	1	-1E+10	1	-1E+10	1	-1E+10	1	-1E+10	1	-1E+10	1
4901784	222	C	08/02/2021	10:47	-136.361	43.192	0	514.50	0	4.7180	0	38.0830	8	30.162	0	509.775	0	64.4	4	21.3	4	-1E+10	1	-1E+10	1	-1E+10	1	-1E+10	1	-1E+10	1	-1E+10	1
4901784	222	C	08/02/2021	10:47	-136.361	43.192	0	519.70	0	4.6790	0	38.0910	8	30.173	0	514.921	0	62.7	4	20.7	4	-1E+10	1	-1E+10	1	-1E+10	1	-1E+10	1	-1E+10	1	-1E+10	1
4901784	222	C	08/02/2021	10:47	-136.361	43.192	0	524.90	0	4.6490	0	38.0970	8	30.181	0	520.066	0	61.0	4	20.2	4	-1E+10	1	-1E+10	1	-1E+10	1	-1E+10	1	-1E+10	1	-1E+10	1
4901784	222	C	08/02/2021	10:47	-136.361	43.192	0	530.10	0	4.6180	0	38.1040	8	30.191	0	525.212	0	59.5	4	19.6	4	-1E+10	1	-1E+10	1	-1E+10	1	-1E+10	1	-1E+10	1	-1E+10	1
4901784	222	C	08/02/2021	10:47	-136.361	43.192	0	535.30	0	4.5940	0	38.1080	8	30.197	0	530.357	0	58.1	4	19.2	4	-1E+10	1	-1E+10	1	-1E+10	1	-1E+10	1	-1E+10	1	-1E+10	1
4901784	222	C	08/02/2021	10:47	-136.361	43.192	0	540.50	0	4.5690	0	38.1130	8	30.204	0	535.503	0	56.3	4	18.6	4	-1E+10	1	-1E+10	1	-1E+10	1	-1E+10	1	-1E+10	1	-1E+10	1
4901784	222	C	08/02/2021	10:47	-136.361	43.192	0	544.90	0	4.5370	0	38.1210	8	30.214	0	539.856	0	54.9	4	18.1	4	-1E+10	1	-1E+10	1	-1E+10	1	-1E+10	1	-1E+10	1	-1E+10	1
4901784	222	C	08/02/2021	10:47	-136.361	43.192	0	549.40	0	4.5200	0	38.1260	8	30.220	0	544.309	0	53.7	4	17.7	4	-1E+10	1	-1E+10	1	-1E+10	1	-1E+10	1	-1E+10	1	-1E+10	1
4901784	222	C	08/02/2021	10:47	-136.361	43.192	0	554.70	0	4.5030	0	38.1300	8	30.225	0	549.553	0	51.8	4	17.0	4	-1E+10	1	-1E+10	1	-1E+10	1	-1E+10	1	-1E+10	1	-1E+10	1
4901784	222	C	08/02/2021	10:47	-136.361	43.192	0	560.10	0	4.4850	0	38.1390	8	30.235	0	554.895	0	49.1	4	16.1	4	-1E+10	1	-1E+10	1	-1E+10	1	-1E+10	1	-1E+10	1	-1E+10	1
4901784	222	C	08/02/2021	10:47	-136.361	43.192	0	565.40	0	4.4740	0	38.1470	8	30.242	0	560.139	0	47.3	4	15.6	4	-1E+10	1	-1E+10	1	-1E+10	1	-1E+10	1	-1E+10	1	-1E+10	1
4901784	222	C	08/02/2021	10:47	-136.361	43.192	0	569.80	0	4.4570	0	38.1540	8	30.250	0	564.492	0	45.8	4	15.1	4	-1E+10	1	-1E+10	1	-1E+10	1	-1E+10	1	-1E+10	1	-1E+10	1
4901784	222	C	08/02/2021	10:47	-136.361	43.192	0	574.30	0	4.4400	0	38.1580	8	30.255	0	568.944	0	44.6	4	14.7	4	-1E+10	1	-1E+10	1	-1E+10	1	-1E+10	1	-1E+10	1	-1E+10	1
4901784	222	C	08/02/2021	10:47	-136.361	43.192	0	579.60	0	4.4150	0	38.1670	8	30.265	0	574.187	0	42.6	4	14.0	4	-1E+10	1	-1E+10	1	-1E+10	1	-1E+10	1	-1E+10	1	-1E+10	1
4901784	222	C	08/02/2021	10:47	-136.361	43.192	0	585.10	0	4.4010	0	38.1760	8	30.274	0	579.628	0	40.4	4	13.3	4	-1E+10	1	-1E+10	1	-1E+10	1	-1E+10	1	-1E+10	1	-1E+10	1
4901784	222	C	08/02/2021	10:47	-136.361	43.192	0	590.50	0	4.3940	0	38.1860	8	30.283	0	584.970	0	37.8	4	12.4	4	-1E+10	1	-1E+10	1	-1E+10	1	-1E+10	1	-1E+10	1	-1E+10	1
4901784	222	C	08/02/2021	10:47	-136.361	43.192	0	595.10	0	4.4060	0	38.1930	8	30.287	0	589.520	0	35.7	4	11.7	4	-1E+10	1	-1E+10	1	-1E+10	1	-1E+10	1	-1E+10	1	-1E+10	1
4901784	222	C	08/02/2021	10:47	-136.361	43.192	0	599.60	0	4.3940	0	38.1980	8	30.293	0	593.972	0	34.7	4	11.4	4	-1E+10	1	-1E+10	1	-1E+10	1	-1E+10	1	-1E+10	1	-1E+10	1
4901784	222	C	08/02/2021	10:47	-136.361	43.192	0	605.00	0	4.3830	0	38.2050	8	30.300	0	599.313	0	33.9	4	11.1	4	-1E+10	1	-1E+10	1	-1E+10	1	-1E+10	1	-1E+10	1	-1E+10	1
4901784	222	C	08/02/2021	10:47	-136.361	43.192	0	610.40	0	4.3650	0	38.2080	8	30.304	0	604.655	0	33.8	4	11.1	4	-1E+10	1	-1E+10	1	-1E+10	1	-1E+10	1	-1E+10	1	-1E+10	1
4901784	222	C	08/02/2021	10:47	-136.361	43.192	0	614.90	0	4.3300	0	38.2140	8	30.313	0	609.106	0	33.3	4	10.9	4	-1E+10	1	-1E+10	1	-1E+10	1	-1E+10	1	-1E+10	1	-1E+10	1
4901784	222	C	08/02/2021	10:47	-136.361	43.192	0	619.60	0	4.3170	0	38.2190	8	30.319	0	613.755	0	32.0	4	10.5	4	-1E+10	1	-1E+10	1	-1E+10	1	-1E+10	1	-1E+10	1	-1E+10	1
4901784	222	C	08/02/2021	10:47	-136.361	43.192	0	625.10	0	4.3220	0	38.2260	8	30.324	0	619.195	0	30.4	4	10.0	4	-1E+10	1	-1E+10	1	-1E+10	1	-1E+10	1	-1E+10	1	-1E+10	1
4901784	222	C	08/02/2021	10:47	-136.361	43.192	0	629.80	0	4.3110	0	38.2320	8	30.330	0	623.843	0	29.0	4	9.5	4	-1E+10	1	-1E+10	1	-1E+10	1	-1E+10	1	-1E+10	1	-1E+10	1
4901784	222	C	08/02/2021	10:47	-136.361	43.192	0	634.50	0	4.3080	0	38.2380	8	30.335	0	628.492	0	28.0	4	9.2	4	-1E+10	1	-1E+10	1	-1E+10	1	-1E+10	1	-1E+10	1	-1E+10	1
4901784	222	C	08/02/2021	10:47	-136.361	43.192	0	640.10	0	4.2950	0	38.2450	8	30.342	0	634.030	0	27.0	4	8.9	4	-1E+10	1	-1E+10	1	-1E+10	1	-1E+10	1	-1E+10	1	-1E+10	1
4901784	222	C	08/02/2021	10:47	-136.361	43.192	0	644.80	0	4.2850	0	38.2500	8	30.347	0	638.678	0	27.3	4	8.9	4	-1E+10	1	-1E+10	1	-1E+10	1	-1E+10	1	-1E+10	1	-1E+10	1
4901784	222	C	08/02/2021	10:47	-136.361	43.192	0	649.40	0	4.2200	0	38.2520	8	30.356	0	643.228	0	28.1	4	9.2	4	-1E+10	1	-1E+10	1	-1E+10	1	-1E+10	1	-1E+10	1	-1E+10	1
4901784	222	C	08/02/2021	10:47	-136.361	43.192	0	654.70	0	4.2040	0	38.2540	8	30.360	0	648.469	0	27.4	4	9.0	4	-1E+10	1	-1E+10	1	-1E+10	1	-1E+10	1	-1E+10	1	-1E+10	1
4901784	222	C	08/02/2021	10:47	-136.361	43.192	0	659.50	0	4.1910	0	38.2620	8	30.368	0	653.216	0	26.1	4	8.6	4	-1E+10	1	-1E+10	1	-1E+10	1	-1E+10	1	-1E+10	1	-1E+10	1
4901784	222	C	08/02/2021	10:47	-136.361	43.192	0	664.90	0	4.1810	0	38.2690	8	30.375	0	658.556	0	24.8	4	8.1	4	-1E+10	1	-1E+10	1	-1E+10	1	-1E+10	1	-1E+10	1	-1E+10	1
4901784	222	C	08/02/2021	10:47	-136.361	43.192	0	670.50	0	4.1800	0	38.2790	8	30.383	0	664.093	0	22.7	4	7.4	4	-1E+10	1	-1E+10	1	-1E+10	1	-1E+10	1	-1E+10	1	-1E+10	1
4901784	222	C	08/02/2021	10:47	-136.361	43.192	0	675.40	0	4.2110	0	38.2890	8	30.387	0	668.939	0	21.1	4	6.9	4	-1E+10	1	-1E+10	1	-1E+10	1	-1E+10	1	-1E+10	1	-1E+10	1
4901784	222	C	08/02/2021	10:47	-136.361	43.192	0	680.30	0	4.1930	0	38.2960	8	30.395	0	673.784	0	20.5	4	6.7	4	-1E+10	1	-1E+10	1	-1E+10	1	-1E+10	1	-1E+10	1	-1E+10	1
4901784	222	C	08/02/2021	10:47	-136.361	43.192	0	685.30	0	4.1820	0	38.3010	8	30.400	0	678.728	0	19.9	4	6.5	4	-1E+10	1	-1E+10	1	-1E+10	1	-1E+10	1	-1E+10	1	-1E+10	1
4901784	222	C	08/02/2021	10:47	-136.361	43.192	0	690.30	0	4.1780	0	38.3070	8	30.405	0	683.672	0	19.1	4	6.3	4	-1E+10	1	-1E+10	1	-1E+10	1	-1E+10	1	-1E+10	1	-1E+10	1
4901784	222	C	08/02/2021	10:47	-136.361	43.192	0	695.40	0	4.1810	0	38.3130	8	30.410	0	688.714	0	18.4	4	6.0	4	-1E+10	1	-1E+10	1	-1E+10	1	-1E+10	1	-1E+10	1	-1E+10	1
4901784	222	C	08/02/2021	10:47	-136.361	43.192	0	700.40	0	4.1700	0	38.3190	8	30.416	0	693.658	0	17.9	4	5.9	4	-1E+10	1	-1E+10	1	-1E+10	1	-1E+10	1	-1E+10	1	-1E+10	1
4901784	222	C	08/02/2021	10:47	-136.361	43.192	0	705.50	0	4.1610	0	38.3240	8	30.421	0	698.700	0	17.5	4	5.7	4	-1E+10	1	-1E+10	1	-1E+10	1	-1E+10	1	-1E+10	1	-1E+10	1
4901784	222	C	08/02/2021	10:47	-136.361	43.192	0	710.50	0	4.1510	0	38.3280	8	30.425	0	703.644	0	17.1	4	5.6	4	-1E+10	1	-1E+10	1	-1E+10	1	-1E+10	1	-1E+10	1	-1E+10	1
4901784	222	C	08/02/2021	10:47	-136.361	43.192	0	715.60	0	4.1360	0	38.3340	8	30.432	0	708.686	0	16.6	4	5.4	4	-1E+10	1	-1E+10	1	-1E+10	1	-1E+10	1	-1E+10	1	-1E+10	1
4901784	222	C	08/02/2021	10:47	-136.361	43.192	0	719.90	0	4.1240	0	38.3390	8	30.437	0	712.937	0	16.3	4	5.3	4	-1E+10	1	-1E+10	1	-1E+10	1	-1E+10	1	-1E+10	1	-1E+10	1
4901784	222	C	08/02/2021	10:47	-136.361	43.192	0	724.20	0	4.1160	0	38.3450	8	30.443	0	717.188	0	15.9	4	5.2	4	-1E+10	1	-1E+10	1	-1E+10	1	-1E+10	1	-1E+10	1	-1E+10	1
4901784	222	C	08/02/2021	10:47	-136.361	43.192	0	729.40	0	4.1000	0	38.3490	8	30.448	0	722.329	0	15.8	4	5.1	4	-1E+10	1	-1E+10	1	-1E+10	1	-1E+10	1	-1E+10	1	-1E+10	1
4901784	222	C	08/02/2021	10:47	-136.361	43.192	0	734.60	0	4.0830	0	38.3560	8	30.456	0	727.469	0	15.4	4	5.0	4	-1E+10	1	-1E+10	1	-1E+10	1	-1E+10	1	-1E+10	1	-1E+10	1
4901784	222	C	08/02/2021	10:47	-136.361	43.192	0	740.00	0	4.0790	0	38.3610	8	30.460	0	732.807	0	15.1	4	4.9	4	-1E+10	1	-1E+10	1	-1E+10	1	-1E+10	1	-1E+10	1	-1E+10	1
4901784	222	C	08/02/2021	10:47	-136.361	43.192	0	745.30	0	4.0580	0	38.3650	8	30.466	0	738.046	0	14.8	4	4.8	4	-1E+10	1	-1E+10	1	-1E+10	1	-1E+10	1	-1E+10	1	-1E+10	1
4901784	222	C	08/02/2021	10:47	-136.361	43.192	0	750.60	0	4.0540	0	38.3700	8	30.470	0	743.285	0	14.7	4	4.8	4	-1E+10	1	-1E+10	1	-1E+10	1	-1E+10	1	-1E+10	1	-1E+10	1
4901784	222	C	08/02/2021	10:47	-136.361	43.192	0	755.00	0	4.0290	0	38.3760	8	30.478	0	747.635	0	14.3	4	4.6	4	-1E+10	1	-1E+10	1	-1E+10	1	-1E+10	1	-1E+10	1	-1E+10	1
4901784	222	C	08/02/2021	10:47	-136.361	43.192	0	759.50	0	4.0510	0	38.3810	8	30.480	0	752.083	0	13.7	4	4.5	4	-1E+10	1	-1E+10	1	-1E+10	1	-1E+10	1	-1E+10	1	-1E+10	1
4901784	222	C	08/02/2021	10:47	-136.361	43.192	0	765.00	0	4.0500	0	38.3870	8	30.485	0	757.519	0	13.4	4	4.4	4	-1E+10	1	-1E+10	1	-1E+10	1	-1E+10	1	-1E+10	1	-1E+10	1
4901784	222	C	08/02/2021	10:47	-136.361	43.192	0	770.40	0	4.0270	0	38.3920	8	30.491	0	762.856	0	13.2	4	4.3	4	-1E+10	1	-1E+10	1	-1E+10	1	-1E+10	1	-1E+10	1	-1E+10	1
4901784	222	C	08/02/2021	10:47	-136.361	43.192	0	775.00	0	4.0330	0	38.3960	8	30.494	0	767.403	0	12.9	4	4.2	4	-1E+10	1	-1E+10	1	-1E+10	1	-1E+10	1	-1E+10	1	-1E+10	1
4901784	222	C	08/02/2021	10:47	-136.361	43.192	0	779.70	0	4.0340	0	38.3990	8	30.496	0	772.048	0	12.6	4	4.1	4	-1E+10	1	-1E+10	1	-1E+10	1	-1E+10	1	-1E+10	1	-1E+10	1
4901784	222	C	08/02/2021	10:47	-136.361	43.192	0	785.30	0	4.0270	0	38.4060	8	30.502	0	777.583	0	12.3	4	4.0	4	-1E+10	1	-1E+10	1	-1E+10	1	-1E+10	1	-1E+10	1	-1E+10	1
4901784	222	C	08/02/2021	10:47	-136.361	43.192	0	790.00	0	4.0180	0	38.4120	8	30.508	0	782.228	0	12.1	4	3.9	4	-1E+10	1	-1E+10	1	-1E+10	1	-1E+10	1	-1E+10	1	-1E+10	1
4901784	222	C	08/02/2021	10:47	-136.361	43.192	0	794.70	0	4.0180	0	38.4150	8	30.511	0	786.873	0	12.0	4	3.9	4	-1E+10	1	-1E+10	1	-1E+10	1	-1E+10	1	-1E+10	1	-1E+10	1
4901784	222	C	08/02/2021	10:47	-136.361	43.192	0	800.40	0	4.0050	0	38.4200	8	30.516	0	792.506	0	11.8	4	3.8	4	-1E+10	1	-1E+10	1	-1E+10	1	-1E+10	1	-1E+10	1	-1E+10	1
4901784	222	C	08/02/2021	10:47	-136.361	43.192	0	805.40	0	3.9960	0	38.4240	8	30.520	0	797.447	0	11.6	4	3.8	4	-1E+10	1	-1E+10	1	-1E+10	1	-1E+10	1	-1E+10	1	-1E+10	1
4901784	222	C	08/02/2021	10:47	-136.361	43.192	0	810.00	0	3.9850	0	38.4290	8	30.526	0	801.992	0	11.5	4	3.7	4	-1E+10	1	-1E+10	1	-1E+10	1	-1E+10	1	-1E+10	1	-1E+10	1
4901784	222	C	08/02/2021	10:47	-136.361	43.192	0	814.80	0	3.9740	0	38.4340	8	30.531	0	806.736	0	11.3	4	3.7	4	-1E+10	1	-1E+10	1	-1E+10	1	-1E+10	1	-1E+10	1	-1E+10	1
4901784	222	C	08/02/2021	10:47	-136.361	43.192	0	819.60	0	3.9630	0	38.4390	8	30.536	0	811.479	0	11.2	4	3.6	4	-1E+10	1	-1E+10	1	-1E+10	1	-1E+10	1	-1E+10	1	-1E+10	1
4901784	222	C	08/02/2021	10:47	-136.361	43.192	0	824.50	0	3.9530	0	38.4430	8	30.541	0	816.321	0	11.1	4	3.6	4	-1E+10	1	-1E+10	1	-1E+10	1	-1E+10	1	-1E+10	1	-1E+10	1
4901784	222	C	08/02/2021	10:47	-136.361	43.192	0	829.40	0	3.9410	0	38.4460	8	30.544	0	821.163	0	11.0	4	3.6	4	-1E+10	1	-1E+10	1	-1E+10	1	-1E+10	1	-1E+10	1	-1E+10	1
4901784	222	C	08/02/2021	10:47	-136.361	43.192	0	835.00	0	3.9220	0	38.4500	8	30.550	0	826.696	0	11.0	4	3.6	4	-1E+10	1	-1E+10	1	-1E+10	1	-1E+10	1	-1E+10	1	-1E+10	1
4901784	222	C	08/02/2021	10:47	-136.361	43.192	0	840.80	0	3.8940	0	38.4540	8	30.556	0	832.427	0	10.9	4	3.5	4	-1E+10	1	-1E+10	1	-1E+10	1	-1E+10	1	-1E+10	1	-1E+10	1
4901784	222	C	08/02/2021	10:47	-136.361	43.192	0	845.70	0	3.8880	0	38.4600	8	30.562	0	837.268	0	10.7	4	3.5	4	-1E+10	1	-1E+10	1	-1E+10	1	-1E+10	1	-1E+10	1	-1E+10	1
4901784	222	C	08/02/2021	10:47	-136.361	43.192	0	850.70	0	3.8770	0	38.4640	8	30.566	0	842.208	0	10.7	4	3.5	4	-1E+10	1	-1E+10	1	-1E+10	1	-1E+10	1	-1E+10	1	-1E+10	1
4901784	222	C	08/02/2021	10:47	-136.361	43.192	0	855.70	0	3.8540	0	38.4680	8	30.572	0	847.148	0	10.6	4	3.4	4	-1E+10	1	-1E+10	1	-1E+10	1	-1E+10	1	-1E+10	1	-1E+10	1
4901784	222	C	08/02/2021	10:47	-136.361	43.192	0	860.70	0	3.8490	0	38.4730	8	30.577	0	852.088	0	10.5	4	3.4	4	-1E+10	1	-1E+10	1	-1E+10	1	-1E+10	1	-1E+10	1	-1E+10	1
4901784	222	C	08/02/2021	10:47	-136.361	43.192	0	865.70	0	3.8520	0	38.4780	8	30.580	0	857.028	0	10.4	4	3.4	4	-1E+10	1	-1E+10	1	-1E+10	1	-1E+10	1	-1E+10	1	-1E+10	1
4901784	222	C	08/02/2021	10:47	-136.361	43.192	0	870.00	0	3.8380	0	38.4820	8	30.585	0	861.276	0	10.3	4	3.4	4	-1E+10	1	-1E+10	1	-1E+10	1	-1E+10	1	-1E+10	1	-1E+10	1
4901784	222	C	08/02/2021	10:47	-136.361	43.192	0	874.20	0	3.8320	0	38.4860	8	30.589	0	865.425	0	10.2	4	3.3	4	-1E+10	1	-1E+10	1	-1E+10	1	-1E+10	1	-1E+10	1	-1E+10	1
4901784	222	C	08/02/2021	10:47	-136.361	43.192	0	879.20	0	3.8290	0	38.4900	8	30.593	0	870.364	0	10.2	4	3.3	4	-1E+10	1	-1E+10	1	-1E+10	1	-1E+10	1	-1E+10	1	-1E+10	1
4901784	222	C	08/02/2021	10:47	-136.361	43.192	0	884.40	0	3.8260	0	38.4950	8	30.597	0	875.501	0	10.1	4	3.3	4	-1E+10	1	-1E+10	1	-1E+10	1	-1E+10	1	-1E+10	1	-1E+10	1
4901784	222	C	08/02/2021	10:47	-136.361	43.192	0	889.50	0	3.8190	0	38.4990	8	30.601	0	880.539	0	10.0	4	3.3	4	-1E+10	1	-1E+10	1	-1E+10	1	-1E+10	1	-1E+10	1	-1E+10	1
4901784	222	C	08/02/2021	10:47	-136.361	43.192	0	894.70	0	3.8100	0	38.5040	8	30.606	0	885.676	0	10.0	4	3.2	4	-1E+10	1	-1E+10	1	-1E+10	1	-1E+10	1	-1E+10	1	-1E+10	1
4901784	222	C	08/02/2021	10:47	-136.361	43.192	0	899.90	0	3.8040	0	38.5070	8	30.609	0	890.812	0	9.9	4	3.2	4	-1E+10	1	-1E+10	1	-1E+10	1	-1E+10	1	-1E+10	1	-1E+10	1
4901784	222	C	08/02/2021	10:47	-136.361	43.192	0	905.10	0	3.7960	0	38.5120	8	30.614	0	895.949	0	9.9	4	3.2	4	-1E+10	1	-1E+10	1	-1E+10	1	-1E+10	1	-1E+10	1	-1E+10	1
4901784	222	C	08/02/2021	10:47	-136.361	43.192	0	910.40	0	3.7850	0	38.5180	8	30.620	0	901.184	0	9.8	4	3.2	4	-1E+10	1	-1E+10	1	-1E+10	1	-1E+10	1	-1E+10	1	-1E+10	1
4901784	222	C	08/02/2021	10:47	-136.361	43.192	0	914.80	0	3.7780	0	38.5210	8	30.623	0	905.530	0	9.8	4	3.2	4	-1E+10	1	-1E+10	1	-1E+10	1	-1E+10	1	-1E+10	1	-1E+10	1
4901784	222	C	08/02/2021	10:47	-136.361	43.192	0	919.30	0	3.7690	0	38.5240	8	30.627	0	909.974	0	9.8	4	3.2	4	-1E+10	1	-1E+10	1	-1E+10	1	-1E+10	1	-1E+10	1	-1E+10	1
4901784	222	C	08/02/2021	10:47	-136.361	43.192	0	924.70	0	3.7610	0	38.5280	8	30.631	0	915.308	0	9.8	4	3.2	4	-1E+10	1	-1E+10	1	-1E+10	1	-1E+10	1	-1E+10	1	-1E+10	1
4901784	222	C	08/02/2021	10:47	-136.361	43.192	0	930.00	0	3.7540	0	38.5310	8	30.634	0	920.542	0	9.8	4	3.2	4	-1E+10	1	-1E+10	1	-1E+10	1	-1E+10	1	-1E+10	1	-1E+10	1
4901784	222	C	08/02/2021	10:47	-136.361	43.192	0	935.40	0	3.7460	0	38.5330	8	30.637	0	925.875	0	9.8	4	3.2	4	-1E+10	1	-1E+10	1	-1E+10	1	-1E+10	1	-1E+10	1	-1E+10	1
4901784	222	C	08/02/2021	10:47	-136.361	43.192	0	940.70	0	3.7190	0	38.5370	8	30.643	0	931.109	0	9.8	4	3.2	4	-1E+10	1	-1E+10	1	-1E+10	1	-1E+10	1	-1E+10	1	-1E+10	1
4901784	222	C	08/02/2021	10:47	-136.361	43.192	0	945.10	0	3.7100	0	38.5410	8	30.647	0	935.455	0	9.8	4	3.2	4	-1E+10	1	-1E+10	1	-1E+10	1	-1E+10	1	-1E+10	1	-1E+10	1
4901784	222	C	08/02/2021	10:47	-136.361	43.192	0	949.60	0	3.7000	0	38.5450	8	30.651	0	939.899	0	9.8	4	3.2	4	-1E+10	1	-1E+10	1	-1E+10	1	-1E+10	1	-1E+10	1	-1E+10	1
4901784	222	C	08/02/2021	10:47	-136.361	43.192	0	954.90	0	3.6850	0	38.5500	8	30.657	0	945.133	0	9.8	4	3.2	4	-1E+10	1	-1E+10	1	-1E+10	1	-1E+10	1	-1E+10	1	-1E+10	1
4901784	222	C	08/02/2021	10:47	-136.361	43.192	0	960.20	0	3.6700	0	38.5540	8	30.662	0	950.366	0	9.8	4	3.2	4	-1E+10	1	-1E+10	1	-1E+10	1	-1E+10	1	-1E+10	1	-1E+10	1
4901784	222	C	08/02/2021	10:47	-136.361	43.192	0	965.50	0	3.6490	0	38.5580	8	30.667	0	955.600	0	9.8	4	3.2	4	-1E+10	1	-1E+10	1	-1E+10	1	-1E+10	1	-1E+10	1	-1E+10	1
4901784	222	C	08/02/2021	10:47	-136.361	43.192	0	969.90	0	3.6320	0	38.5610	8	30.672	0	959.945	0	9.9	4	3.2	4	-1E+10	1	-1E+10	1	-1E+10	1	-1E+10	1	-1E+10	1	-1E+10	1
4901784	222	C	08/02/2021	10:47	-136.361	43.192	0	974.40	0	3.6260	0	38.5620	8	30.673	0	964.388	0	9.9	4	3.2	4	-1E+10	1	-1E+10	1	-1E+10	1	-1E+10	1	-1E+10	1	-1E+10	1
4901784	222	C	08/02/2021	10:47	-136.361	43.192	0	979.70	0	3.6050	0	38.5670	8	30.679	0	969.622	0	9.9	4	3.2	4	-1E+10	1	-1E+10	1	-1E+10	1	-1E+10	1	-1E+10	1	-1E+10	1
4901784	222	C	08/02/2021	10:47	-136.361	43.192	0	985.00	0	3.5910	0	38.5700	8	30.683	0	974.855	0	9.9	4	3.2	4	-1E+10	1	-1E+10	1	-1E+10	1	-1E+10	1	-1E+10	1	-1E+10	1
4901784	222	C	08/02/2021	10:47	-136.361	43.192	0	990.40	0	3.5590	0	38.5740	8	30.690	0	980.187	0	9.9	4	3.2	4	-1E+10	1	-1E+10	1	-1E+10	1	-1E+10	1	-1E+10	1	-1E+10	1
4901784	222	C	08/02/2021	10:47	-136.361	43.192	0	994.80	0	3.5540	0	38.5780	8	30.694	0	984.531	0	10.0	4	3.2	4	-1E+10	1	-1E+10	1	-1E+10	1	-1E+10	1	-1E+10	1	-1E+10	1
4901784	222	C	08/02/2021	10:47	-136.361	43.192	0	999.30	0	3.5490	0	38.5790	8	30.695	0	988.974	0	10.0	4	3.2	4	-1E+10	1	-1E+10	1	-1E+10	1	-1E+10	1	-1E+10	1	-1E+10	1
4901784	222	C	08/02/2021	10:47	-136.361	43.192	0	1004.70	0	3.5280	0	38.5840	8	30.702	0	994.305	0	10.1	4	3.2	4	-1E+10	1	-1E+10	1	-1E+10	1	-1E+10	1	-1E+10	1	-1E+10	1
4901784	222	C	08/02/2021	10:47	-136.361	43.192	0	1010.20	0	3.5180	0	38.5880	8	30.706	0	999.735	0	10.1	4	3.3	4	-1E+10	1	-1E+10	1	-1E+10	1	-1E+10	1	-1E+10	1	-1E+10	1
4901784	222	C	08/02/2021	10:47	-136.361	43.192	0	1015.60	0	3.5140	0	38.5910	8	30.709	0	1005.066	0	10.2	4	3.3	4	-1E+10	1	-1E+10	1	-1E+10	1	-1E+10	1	-1E+10	1	-1E+10	1
4901784	222	C	08/02/2021	10:47	-136.361	43.192	0	1020.20	0	3.5070	0	38.5930	8	30.711	0	1009.607	0	10.2	4	3.3	4	-1E+10	1	-1E+10	1	-1E+10	1	-1E+10	1	-1E+10	1	-1E+10	1
4901784	222	C	08/02/2021	10:47	-136.361	43.192	0	1024.80	0	3.4940	0	38.5970	8	30.716	0	1014.149	0	10.2	4	3.3	4	-1E+10	1	-1E+10	1	-1E+10	1	-1E+10	1	-1E+10	1	-1E+10	1
4901784	222	C	08/02/2021	10:47	-136.361	43.192	0	1030.30	0	3.4820	0	38.6010	8	30.720	0	1019.578	0	10.3	4	3.3	4	-1E+10	1	-1E+10	1	-1E+10	1	-1E+10	1	-1E+10	1	-1E+10	1
4901784	222	C	08/02/2021	10:47	-136.361	43.192	0	1035.00	0	3.4700	0	38.6040	8	30.724	0	1024.218	0	10.4	4	3.3	4	-1E+10	1	-1E+10	1	-1E+10	1	-1E+10	1	-1E+10	1	-1E+10	1
4901784	222	C	08/02/2021	10:47	-136.361	43.192	0	1039.60	0	3.4590	0	38.6070	8	30.728	0	1028.758	0	10.4	4	3.4	4	-1E+10	1	-1E+10	1	-1E+10	1	-1E+10	1	-1E+10	1	-1E+10	1
4901784	222	C	08/02/2021	10:47	-136.361	43.192	0	1045.00	0	3.4440	0	38.6110	8	30.732	0	1034.089	0	10.5	4	3.4	4	-1E+10	1	-1E+10	1	-1E+10	1	-1E+10	1	-1E+10	1	-1E+10	1
4901784	222	C	08/02/2021	10:47	-136.361	43.192	0	1049.30	0	3.4320	0	38.6140	8	30.736	0	1038.333	0	10.5	4	3.4	4	-1E+10	1	-1E+10	1	-1E+10	1	-1E+10	1	-1E+10	1	-1E+10	1
4901784	222	C	08/02/2021	10:47	-136.361	43.192	0	1054.90	0	3.4220	0	38.6170	8	30.740	0	1043.861	0	10.6	4	3.4	4	-1E+10	1	-1E+10	1	-1E+10	1	-1E+10	1	-1E+10	1	-1E+10	1
4901784	222	C	08/02/2021	10:47	-136.361	43.192	0	1060.60	0	3.4120	0	38.6200	8	30.743	0	1049.487	0	10.7	4	3.4	4	-1E+10	1	-1E+10	1	-1E+10	1	-1E+10	1	-1E+10	1	-1E+10	1
4901784	222	C	08/02/2021	10:47	-136.361	43.192	0	1065.60	0	3.4000	0	38.6230	8	30.747	0	1054.422	0	10.7	4	3.5	4	-1E+10	1	-1E+10	1	-1E+10	1	-1E+10	1	-1E+10	1	-1E+10	1
4901784	222	C	08/02/2021	10:47	-136.361	43.192	0	1070.70	0	3.3870	0	38.6260	8	30.751	0	1059.456	0	10.8	4	3.5	4	-1E+10	1	-1E+10	1	-1E+10	1	-1E+10	1	-1E+10	1	-1E+10	1
4901784	222	C	08/02/2021	10:47	-136.361	43.192	0	1075.70	0	3.3800	0	38.6280	8	30.753	0	1064.390	0	10.8	4	3.5	4	-1E+10	1	-1E+10	1	-1E+10	1	-1E+10	1	-1E+10	1	-1E+10	1
4901784	222	C	08/02/2021	10:47	-136.361	43.192	0	1080.70	0	3.3620	0	38.6300	8	30.757	0	1069.325	0	10.9	4	3.5	4	-1E+10	1	-1E+10	1	-1E+10	1	-1E+10	1	-1E+10	1	-1E+10	1
4901784	222	C	08/02/2021	10:47	-136.361	43.192	0	1085.70	0	3.3520	0	38.6330	8	30.760	0	1074.260	0	11.0	4	3.5	4	-1E+10	1	-1E+10	1	-1E+10	1	-1E+10	1	-1E+10	1	-1E+10	1
4901784	222	C	08/02/2021	10:47	-136.361	43.192	0	1090.00	0	3.3400	0	38.6370	8	30.765	0	1078.503	0	11.0	4	3.5	4	-1E+10	1	-1E+10	1	-1E+10	1	-1E+10	1	-1E+10	1	-1E+10	1
4901784	222	C	08/02/2021	10:47	-136.361	43.192	0	1094.20	0	3.3310	0	38.6390	8	30.767	0	1082.648	0	11.1	4	3.6	4	-1E+10	1	-1E+10	1	-1E+10	1	-1E+10	1	-1E+10	1	-1E+10	1
4901784	222	C	08/02/2021	10:47	-136.361	43.192	0	1099.20	0	3.3190	0	38.6430	8	30.772	0	1087.582	0	11.2	4	3.6	4	-1E+10	1	-1E+10	1	-1E+10	1	-1E+10	1	-1E+10	1	-1E+10	1
4901784	222	C	08/02/2021	10:47	-136.361	43.192	0	1104.20	0	3.3090	0	38.6460	8	30.775	0	1092.517	0	11.3	4	3.6	4	-1E+10	1	-1E+10	1	-1E+10	1	-1E+10	1	-1E+10	1	-1E+10	1
4901784	222	C	08/02/2021	10:47	-136.361	43.192	0	1109.30	0	3.2980	0	38.6490	8	30.779	0	1097.549	0	11.4	4	3.7	4	-1E+10	1	-1E+10	1	-1E+10	1	-1E+10	1	-1E+10	1	-1E+10	1
4901784	222	C	08/02/2021	10:47	-136.361	43.192	0	1114.40	0	3.2890	0	38.6520	8	30.782	0	1102.582	0	11.5	4	3.7	4	-1E+10	1	-1E+10	1	-1E+10	1	-1E+10	1	-1E+10	1	-1E+10	1
4901784	222	C	08/02/2021	10:47	-136.361	43.192	0	1119.60	0	3.2790	0	38.6540	8	30.785	0	1107.713	0	11.6	4	3.7	4	-1E+10	1	-1E+10	1	-1E+10	1	-1E+10	1	-1E+10	1	-1E+10	1
4901784	222	C	08/02/2021	10:47	-136.361	43.192	0	1124.80	0	3.2670	0	38.6570	8	30.789	0	1112.844	0	11.7	4	3.7	4	-1E+10	1	-1E+10	1	-1E+10	1	-1E+10	1	-1E+10	1	-1E+10	1
4901784	222	C	08/02/2021	10:47	-136.361	43.192	0	1129.90	0	3.2530	0	38.6600	8	30.793	0	1117.876	0	11.8	4	3.8	4	-1E+10	1	-1E+10	1	-1E+10	1	-1E+10	1	-1E+10	1	-1E+10	1
4901784	222	C	08/02/2021	10:47	-136.361	43.192	0	1135.20	0	3.2440	0	38.6630	8	30.796	0	1123.106	0	11.9	4	3.8	4	-1E+10	1	-1E+10	1	-1E+10	1	-1E+10	1	-1E+10	1	-1E+10	1
4901784	222	C	08/02/2021	10:47	-136.361	43.192	0	1140.30	0	3.2340	0	38.6660	8	30.799	0	1128.138	0	12.0	4	3.8	4	-1E+10	1	-1E+10	1	-1E+10	1	-1E+10	1	-1E+10	1	-1E+10	1
4901784	222	C	08/02/2021	10:47	-136.361	43.192	0	1145.60	0	3.2220	0	38.6690	8	30.803	0	1133.367	0	12.1	4	3.9	4	-1E+10	1	-1E+10	1	-1E+10	1	-1E+10	1	-1E+10	1	-1E+10	1
4901784	222	C	08/02/2021	10:47	-136.361	43.192	0	1150.00	0	3.2150	0	38.6710	8	30.805	0	1137.708	0	12.2	4	3.9	4	-1E+10	1	-1E+10	1	-1E+10	1	-1E+10	1	-1E+10	1	-1E+10	1
4901784	222	C	08/02/2021	10:47	-136.361	43.192	0	1154.40	0	3.2040	0	38.6740	8	30.809	0	1142.049	0	12.3	4	3.9	4	-1E+10	1	-1E+10	1	-1E+10	1	-1E+10	1	-1E+10	1	-1E+10	1
4901784	222	C	08/02/2021	10:47	-136.361	43.192	0	1159.70	0	3.1900	0	38.6770	8	30.813	0	1147.278	0	12.5	4	4.0	4	-1E+10	1	-1E+10	1	-1E+10	1	-1E+10	1	-1E+10	1	-1E+10	1
4901784	222	C	08/02/2021	10:47	-136.361	43.192	0	1165.10	0	3.1800	0	38.6800	8	30.816	0	1152.605	0	12.6	4	4.0	4	-1E+10	1	-1E+10	1	-1E+10	1	-1E+10	1	-1E+10	1	-1E+10	1
4901784	222	C	08/02/2021	10:47	-136.361	43.192	0	1170.60	0	3.1750	0	38.6830	8	30.819	0	1158.031	0	12.7	4	4.1	4	-1E+10	1	-1E+10	1	-1E+10	1	-1E+10	1	-1E+10	1	-1E+10	1
4901784	222	C	08/02/2021	10:47	-136.361	43.192	0	1175.20	0	3.1700	0	38.6840	8	30.821	0	1162.569	0	12.8	4	4.1	4	-1E+10	1	-1E+10	1	-1E+10	1	-1E+10	1	-1E+10	1	-1E+10	1
4901784	222	C	08/02/2021	10:47	-136.361	43.192	0	1179.70	0	3.1610	0	38.6850	8	30.822	0	1167.008	0	12.9	4	4.1	4	-1E+10	1	-1E+10	1	-1E+10	1	-1E+10	1	-1E+10	1	-1E+10	1
4901784	222	C	08/02/2021	10:47	-136.361	43.192	0	1185.30	0	3.1470	0	38.6890	8	30.827	0	1172.532	0	13.0	4	4.2	4	-1E+10	1	-1E+10	1	-1E+10	1	-1E+10	1	-1E+10	1	-1E+10	1
4901784	222	C	08/02/2021	10:47	-136.361	43.192	0	1189.90	0	3.1380	0	38.6910	8	30.830	0	1177.070	0	13.2	4	4.2	4	-1E+10	1	-1E+10	1	-1E+10	1	-1E+10	1	-1E+10	1	-1E+10	1
4901784	222	C	08/02/2021	10:47	-136.361	43.192	0	1194.50	0	3.1270	0	38.6940	8	30.833	0	1181.607	0	13.3	4	4.3	4	-1E+10	1	-1E+10	1	-1E+10	1	-1E+10	1	-1E+10	1	-1E+10	1
4901784	222	C	08/02/2021	10:47	-136.361	43.192	0	1200.10	0	3.1160	0	38.6970	8	30.837	0	1187.131	0	13.5	4	4.3	4	-1E+10	1	-1E+10	1	-1E+10	1	-1E+10	1	-1E+10	1	-1E+10	1
4901784	222	C	08/02/2021	10:47	-136.361	43.192	0	1205.70	0	3.1040	0	38.6990	8	30.840	0	1192.655	0	13.7	4	4.4	4	-1E+10	1	-1E+10	1	-1E+10	1	-1E+10	1	-1E+10	1	-1E+10	1
4901784	222	C	08/02/2021	10:47	-136.361	43.192	0	1210.30	0	3.0910	0	38.7030	8	30.844	0	1197.192	0	13.8	4	4.4	4	-1E+10	1	-1E+10	1	-1E+10	1	-1E+10	1	-1E+10	1	-1E+10	1
4901784	222	C	08/02/2021	10:47	-136.361	43.192	0	1215.00	0	3.0800	0	38.7050	8	30.847	0	1201.828	0	13.9	4	4.5	4	-1E+10	1	-1E+10	1	-1E+10	1	-1E+10	1	-1E+10	1	-1E+10	1
4901784	222	C	08/02/2021	10:47	-136.361	43.192	0	1220.60	0	3.0690	0	38.7080	8	30.851	0	1207.351	0	14.1	4	4.5	4	-1E+10	1	-1E+10	1	-1E+10	1	-1E+10	1	-1E+10	1	-1E+10	1
4901784	222	C	08/02/2021	10:47	-136.361	43.192	0	1225.40	0	3.0590	0	38.7100	8	30.853	0	1212.085	0	14.2	4	4.5	4	-1E+10	1	-1E+10	1	-1E+10	1	-1E+10	1	-1E+10	1	-1E+10	1
4901784	222	C	08/02/2021	10:47	-136.361	43.192	0	1229.80	0	3.0530	0	38.7120	8	30.856	0	1216.424	0	14.3	4	4.6	4	-1E+10	1	-1E+10	1	-1E+10	1	-1E+10	1	-1E+10	1	-1E+10	1
4901784	222	C	08/02/2021	10:47	-136.361	43.192	0	1234.70	0	3.0440	0	38.7140	8	30.858	0	1221.257	0	14.4	4	4.6	4	-1E+10	1	-1E+10	1	-1E+10	1	-1E+10	1	-1E+10	1	-1E+10	1
4901784	222	C	08/02/2021	10:47	-136.361	43.192	0	1239.60	0	3.0380	0	38.7150	8	30.860	0	1226.089	0	14.6	4	4.6	4	-1E+10	1	-1E+10	1	-1E+10	1	-1E+10	1	-1E+10	1	-1E+10	1
4901784	222	C	08/02/2021	10:47	-136.361	43.192	0	1244.60	0	3.0210	0	38.7200	8	30.865	0	1231.020	0	14.7	4	4.7	4	-1E+10	1	-1E+10	1	-1E+10	1	-1E+10	1	-1E+10	1	-1E+10	1
4901784	222	C	08/02/2021	10:47	-136.361	43.192	0	1249.60	0	3.0170	0	38.7210	8	30.867	0	1235.951	0	14.9	4	4.7	4	-1E+10	1	-1E+10	1	-1E+10	1	-1E+10	1	-1E+10	1	-1E+10	1
4901784	222	C	08/02/2021	10:47	-136.361	43.192	0	1254.50	0	3.0070	0	38.7240	8	30.870	0	1240.783	0	15.0	4	4.8	4	-1E+10	1	-1E+10	1	-1E+10	1	-1E+10	1	-1E+10	1	-1E+10	1
4901784	222	C	08/02/2021	10:47	-136.361	43.192	0	1259.50	0	2.9990	0	38.7250	8	30.872	0	1245.713	0	15.1	4	4.8	4	-1E+10	1	-1E+10	1	-1E+10	1	-1E+10	1	-1E+10	1	-1E+10	1
4901784	222	C	08/02/2021	10:47	-136.361	43.192	0	1264.60	0	2.9910	0	38.7270	8	30.874	0	1250.742	0	15.3	4	4.9	4	-1E+10	1	-1E+10	1	-1E+10	1	-1E+10	1	-1E+10	1	-1E+10	1
4901784	222	C	08/02/2021	10:47	-136.361	43.192	0	1269.60	0	2.9810	0	38.7290	8	30.877	0	1255.673	0	15.5	4	4.9	4	-1E+10	1	-1E+10	1	-1E+10	1	-1E+10	1	-1E+10	1	-1E+10	1
4901784	222	C	08/02/2021	10:47	-136.361	43.192	0	1274.60	0	2.9670	0	38.7320	8	30.881	0	1260.603	0	15.8	4	5.0	4	-1E+10	1	-1E+10	1	-1E+10	1	-1E+10	1	-1E+10	1	-1E+10	1
4901784	222	C	08/02/2021	10:47	-136.361	43.192	0	1279.70	0	2.9470	0	38.7360	8	30.886	0	1265.632	0	16.1	4	5.1	4	-1E+10	1	-1E+10	1	-1E+10	1	-1E+10	1	-1E+10	1	-1E+10	1
4901784	222	C	08/02/2021	10:47	-136.361	43.192	0	1284.80	0	2.9350	0	38.7390	8	30.890	0	1270.660	0	16.2	4	5.2	4	-1E+10	1	-1E+10	1	-1E+10	1	-1E+10	1	-1E+10	1	-1E+10	1
4901784	222	C	08/02/2021	10:47	-136.361	43.192	0	1289.90	0	2.9260	0	38.7410	8	30.892	0	1275.689	0	16.5	4	5.2	4	-1E+10	1	-1E+10	1	-1E+10	1	-1E+10	1	-1E+10	1	-1E+10	1
4901784	222	C	08/02/2021	10:47	-136.361	43.192	0	1295.10	0	2.9110	0	38.7450	8	30.897	0	1280.816	0	16.7	4	5.3	4	-1E+10	1	-1E+10	1	-1E+10	1	-1E+10	1	-1E+10	1	-1E+10	1
4901784	222	C	08/02/2021	10:47	-136.361	43.192	0	1300.30	0	2.9010	0	38.7470	8	30.900	0	1285.942	0	16.9	4	5.4	4	-1E+10	1	-1E+10	1	-1E+10	1	-1E+10	1	-1E+10	1	-1E+10	1
4901784	222	C	08/02/2021	10:47	-136.361	43.192	0	1305.50	0	2.8930	0	38.7490	8	30.902	0	1291.069	0	17.0	4	5.4	4	-1E+10	1	-1E+10	1	-1E+10	1	-1E+10	1	-1E+10	1	-1E+10	1
4901784	222	C	08/02/2021	10:47	-136.361	43.192	0	1310.70	0	2.8820	0	38.7520	8	30.906	0	1296.195	0	17.2	4	5.5	4	-1E+10	1	-1E+10	1	-1E+10	1	-1E+10	1	-1E+10	1	-1E+10	1
4901784	222	C	08/02/2021	10:47	-136.361	43.192	0	1315.00	0	2.8760	0	38.7530	8	30.907	0	1300.435	0	17.3	4	5.5	4	-1E+10	1	-1E+10	1	-1E+10	1	-1E+10	1	-1E+10	1	-1E+10	1
4901784	222	C	08/02/2021	10:47	-136.361	43.192	0	1319.50	0	2.8730	0	38.7540	8	30.908	0	1304.871	0	17.4	4	5.5	4	-1E+10	1	-1E+10	1	-1E+10	1	-1E+10	1	-1E+10	1	-1E+10	1
4901784	222	C	08/02/2021	10:47	-136.361	43.192	0	1324.90	0	2.8670	0	38.7550	8	30.910	0	1310.194	0	17.6	4	5.6	4	-1E+10	1	-1E+10	1	-1E+10	1	-1E+10	1	-1E+10	1	-1E+10	1
4901784	222	C	08/02/2021	10:47	-136.361	43.192	0	1330.20	0	2.8580	0	38.7570	8	30.912	0	1315.419	0	17.8	4	5.7	4	-1E+10	1	-1E+10	1	-1E+10	1	-1E+10	1	-1E+10	1	-1E+10	1
4901784	222	C	08/02/2021	10:47	-136.361	43.192	0	1335.60	0	2.8460	0	38.7600	8	30.916	0	1320.742	0	18.1	4	5.7	4	-1E+10	1	-1E+10	1	-1E+10	1	-1E+10	1	-1E+10	1	-1E+10	1
4901784	222	C	08/02/2021	10:47	-136.361	43.192	0	1340.00	0	2.8340	0	38.7630	8	30.919	0	1325.079	0	18.3	4	5.8	4	-1E+10	1	-1E+10	1	-1E+10	1	-1E+10	1	-1E+10	1	-1E+10	1
4901784	222	C	08/02/2021	10:47	-136.361	43.192	0	1344.40	0	2.8250	0	38.7650	8	30.922	0	1329.416	0	18.5	4	5.9	4	-1E+10	1	-1E+10	1	-1E+10	1	-1E+10	1	-1E+10	1	-1E+10	1
4901784	222	C	08/02/2021	10:47	-136.361	43.192	0	1349.70	0	2.8170	0	38.7660	8	30.924	0	1334.640	0	18.7	4	5.9	4	-1E+10	1	-1E+10	1	-1E+10	1	-1E+10	1	-1E+10	1	-1E+10	1
4901784	222	C	08/02/2021	10:47	-136.361	43.192	0	1354.70	0	2.8040	0	38.7690	8	30.927	0	1339.569	0	18.9	4	6.0	4	-1E+10	1	-1E+10	1	-1E+10	1	-1E+10	1	-1E+10	1	-1E+10	1
4901784	222	C	08/02/2021	10:47	-136.361	43.192	0	1360.20	0	2.7960	0	38.7710	8	30.930	0	1344.990	0	19.1	4	6.1	4	-1E+10	1	-1E+10	1	-1E+10	1	-1E+10	1	-1E+10	1	-1E+10	1
4901784	222	C	08/02/2021	10:47	-136.361	43.192	0	1365.60	0	2.7860	0	38.7740	8	30.933	0	1350.312	0	19.4	4	6.1	4	-1E+10	1	-1E+10	1	-1E+10	1	-1E+10	1	-1E+10	1	-1E+10	1
4901784	222	C	08/02/2021	10:47	-136.361	43.192	0	1370.30	0	2.7800	0	38.7750	8	30.935	0	1354.945	0	19.6	4	6.2	4	-1E+10	1	-1E+10	1	-1E+10	1	-1E+10	1	-1E+10	1	-1E+10	1
4901784	222	C	08/02/2021	10:47	-136.361	43.192	0	1375.40	0	2.7680	0	38.7780	8	30.938	0	1359.971	0	19.9	4	6.3	4	-1E+10	1	-1E+10	1	-1E+10	1	-1E+10	1	-1E+10	1	-1E+10	1
4901784	222	C	08/02/2021	10:47	-136.361	43.192	0	1380.50	0	2.7540	0	38.7810	8	30.942	0	1364.997	0	20.2	4	6.4	4	-1E+10	1	-1E+10	1	-1E+10	1	-1E+10	1	-1E+10	1	-1E+10	1
4901784	222	C	08/02/2021	10:47	-136.361	43.192	0	1385.70	0	2.7460	0	38.7830	8	30.944	0	1370.122	0	20.4	4	6.5	4	-1E+10	1	-1E+10	1	-1E+10	1	-1E+10	1	-1E+10	1	-1E+10	1
4901784	222	C	08/02/2021	10:47	-136.361	43.192	0	1390.00	0	2.7380	0	38.7850	8	30.947	0	1374.360	0	20.5	4	6.5	4	-1E+10	1	-1E+10	1	-1E+10	1	-1E+10	1	-1E+10	1	-1E+10	1
4901784	222	C	08/02/2021	10:47	-136.361	43.192	0	1394.40	0	2.7300	0	38.7860	8	30.948	0	1378.696	0	20.7	4	6.6	4	-1E+10	1	-1E+10	1	-1E+10	1	-1E+10	1	-1E+10	1	-1E+10	1
4901784	222	C	08/02/2021	10:47	-136.361	43.192	0	1399.70	0	2.7220	0	38.7880	8	30.951	0	1383.919	0	21.0	4	6.7	4	-1E+10	1	-1E+10	1	-1E+10	1	-1E+10	1	-1E+10	1	-1E+10	1
4901784	222	C	08/02/2021	10:47	-136.361	43.192	0	1404.90	0	2.7120	0	38.7910	8	30.954	0	1389.043	0	21.2	4	6.7	4	-1E+10	1	-1E+10	1	-1E+10	1	-1E+10	1	-1E+10	1	-1E+10	1
4901784	222	C	08/02/2021	10:47	-136.361	43.192	0	1410.20	0	2.7040	0	38.7920	8	30.956	0	1394.266	0	21.5	4	6.8	4	-1E+10	1	-1E+10	1	-1E+10	1	-1E+10	1	-1E+10	1	-1E+10	1
4901784	222	C	08/02/2021	10:47	-136.361	43.192	0	1415.60	0	2.6920	0	38.7950	8	30.960	0	1399.587	0	21.8	4	6.9	4	-1E+10	1	-1E+10	1	-1E+10	1	-1E+10	1	-1E+10	1	-1E+10	1
4901784	222	C	08/02/2021	10:47	-136.361	43.192	0	1420.10	0	2.6810	0	38.7970	8	30.962	0	1404.021	0	22.0	4	7.0	4	-1E+10	1	-1E+10	1	-1E+10	1	-1E+10	1	-1E+10	1	-1E+10	1
4901784	222	C	08/02/2021	10:47	-136.361	43.192	0	1424.60	0	2.6750	0	38.7990	8	30.965	0	1408.455	0	22.2	4	7.0	4	-1E+10	1	-1E+10	1	-1E+10	1	-1E+10	1	-1E+10	1	-1E+10	1
4901784	222	C	08/02/2021	10:47	-136.361	43.192	0	1430.10	0	2.6680	0	38.8010	8	30.967	0	1413.874	0	22.4	4	7.1	4	-1E+10	1	-1E+10	1	-1E+10	1	-1E+10	1	-1E+10	1	-1E+10	1
4901784	222	C	08/02/2021	10:47	-136.361	43.192	0	1435.50	0	2.6610	0	38.8030	8	30.969	0	1419.195	0	22.6	4	7.1	4	-1E+10	1	-1E+10	1	-1E+10	1	-1E+10	1	-1E+10	1	-1E+10	1
4901784	222	C	08/02/2021	10:47	-136.361	43.192	0	1440.10	0	2.6570	0	38.8040	8	30.970	0	1423.727	0	22.7	4	7.2	4	-1E+10	1	-1E+10	1	-1E+10	1	-1E+10	1	-1E+10	1	-1E+10	1
4901784	222	C	08/02/2021	10:47	-136.361	43.192	0	1444.70	0	2.6520	0	38.8040	8	30.971	0	1428.259	0	23.0	4	7.3	4	-1E+10	1	-1E+10	1	-1E+10	1	-1E+10	1	-1E+10	1	-1E+10	1
4901784	222	C	08/02/2021	10:47	-136.361	43.192	0	1450.30	0	2.6350	0	38.8080	8	30.976	0	1433.776	0	23.3	4	7.4	4	-1E+10	1	-1E+10	1	-1E+10	1	-1E+10	1	-1E+10	1	-1E+10	1
4901784	222	C	08/02/2021	10:47	-136.361	43.192	0	1454.90	0	2.6250	0	38.8100	8	30.978	0	1438.308	0	23.5	4	7.4	4	-1E+10	1	-1E+10	1	-1E+10	1	-1E+10	1	-1E+10	1	-1E+10	1
4901784	222	C	08/02/2021	10:47	-136.361	43.192	0	1459.50	0	2.6220	0	38.8110	8	30.980	0	1442.840	0	23.6	4	7.5	4	-1E+10	1	-1E+10	1	-1E+10	1	-1E+10	1	-1E+10	1	-1E+10	1
4901784	222	C	08/02/2021	10:47	-136.361	43.192	0	1465.10	0	2.6180	0	38.8130	8	30.982	0	1448.357	0	23.8	4	7.5	4	-1E+10	1	-1E+10	1	-1E+10	1	-1E+10	1	-1E+10	1	-1E+10	1
4901784	222	C	08/02/2021	10:47	-136.361	43.192	0	1469.70	0	2.6140	0	38.8140	8	30.983	0	1452.889	0	23.9	4	7.6	4	-1E+10	1	-1E+10	1	-1E+10	1	-1E+10	1	-1E+10	1	-1E+10	1
4901784	222	C	08/02/2021	10:47	-136.361	43.192	0	1474.40	0	2.6090	0	38.8150	8	30.984	0	1457.519	0	24.1	4	7.6	4	-1E+10	1	-1E+10	1	-1E+10	1	-1E+10	1	-1E+10	1	-1E+10	1
4901784	222	C	08/02/2021	10:47	-136.361	43.192	0	1480.00	0	2.6000	0	38.8170	8	30.987	0	1463.035	0	24.4	4	7.7	4	-1E+10	1	-1E+10	1	-1E+10	1	-1E+10	1	-1E+10	1	-1E+10	1
4901784	222	C	08/02/2021	10:47	-136.361	43.192	0	1484.80	0	2.5880	0	38.8200	8	30.990	0	1467.764	0	24.7	4	7.8	4	-1E+10	1	-1E+10	1	-1E+10	1	-1E+10	1	-1E+10	1	-1E+10	1
4901784	222	C	08/02/2021	10:47	-136.361	43.192	0	1489.60	0	2.5820	0	38.8210	8	30.992	0	1472.492	0	24.8	4	7.8	4	-1E+10	1	-1E+10	1	-1E+10	1	-1E+10	1	-1E+10	1	-1E+10	1
4901784	222	C	08/02/2021	10:47	-136.361	43.192	0	1495.30	0	2.5780	0	38.8230	8	30.994	0	1478.106	0	25.0	4	7.9	4	-1E+10	1	-1E+10	1	-1E+10	1	-1E+10	1	-1E+10	1	-1E+10	1
4901784	222	C	08/02/2021	10:47	-136.361	43.192	0	1500.60	0	2.5720	0	38.8240	8	30.995	0	1483.327	0	25.2	4	8.0	4	-1E+10	1	-1E+10	1	-1E+10	1	-1E+10	1	-1E+10	1	-1E+10	1
4901784	222	C	08/02/2021	10:47	-136.361	43.192	0	1504.90	0	2.5650	0	38.8260	8	30.997	0	1487.562	0	25.5	4	8.0	4	-1E+10	1	-1E+10	1	-1E+10	1	-1E+10	1	-1E+10	1	-1E+10	1
4901784	222	C	08/02/2021	10:47	-136.361	43.192	0	1509.30	0	2.5570	0	38.8270	8	30.999	0	1491.896	0	25.8	4	8.1	4	-1E+10	1	-1E+10	1	-1E+10	1	-1E+10	1	-1E+10	1	-1E+10	1
4901784	222	C	08/02/2021	10:47	-136.361	43.192	0	1514.60	0	2.5460	0	38.8290	8	31.002	0	1497.116	0	26.1	4	8.2	4	-1E+10	1	-1E+10	1	-1E+10	1	-1E+10	1	-1E+10	1	-1E+10	1
4901784	222	C	08/02/2021	10:47	-136.361	43.192	0	1520.00	0	2.5380	0	38.8310	8	31.004	0	1502.435	0	26.3	4	8.3	4	-1E+10	1	-1E+10	1	-1E+10	1	-1E+10	1	-1E+10	1	-1E+10	1
4901784	222	C	08/02/2021	10:47	-136.361	43.192	0	1525.30	0	2.5300	0	38.8330	8	31.007	0	1507.654	0	26.6	4	8.4	4	-1E+10	1	-1E+10	1	-1E+10	1	-1E+10	1	-1E+10	1	-1E+10	1
4901784	222	C	08/02/2021	10:47	-136.361	43.192	0	1530.70	0	2.5200	0	38.8350	8	31.009	0	1512.973	0	27.0	4	8.5	4	-1E+10	1	-1E+10	1	-1E+10	1	-1E+10	1	-1E+10	1	-1E+10	1
4901784	222	C	08/02/2021	10:47	-136.361	43.192	0	1535.10	0	2.5090	0	38.8370	8	31.012	0	1517.306	0	27.3	4	8.6	4	-1E+10	1	-1E+10	1	-1E+10	1	-1E+10	1	-1E+10	1	-1E+10	1
4901784	222	C	08/02/2021	10:47	-136.361	43.192	0	1539.70	0	2.4990	0	38.8390	8	31.014	0	1521.836	0	27.6	4	8.7	4	-1E+10	1	-1E+10	1	-1E+10	1	-1E+10	1	-1E+10	1	-1E+10	1
4901784	222	C	08/02/2021	10:47	-136.361	43.192	0	1545.20	0	2.4930	0	38.8400	8	31.016	0	1527.252	0	28.0	4	8.8	4	-1E+10	1	-1E+10	1	-1E+10	1	-1E+10	1	-1E+10	1	-1E+10	1
4901784	222	C	08/02/2021	10:47	-136.361	43.192	0	1550.70	0	2.4780	0	38.8430	8	31.020	0	1532.669	0	28.3	4	8.9	4	-1E+10	1	-1E+10	1	-1E+10	1	-1E+10	1	-1E+10	1	-1E+10	1
4901784	222	C	08/02/2021	10:47	-136.361	43.192	0	1555.20	0	2.4710	0	38.8450	8	31.022	0	1537.100	0	28.6	4	9.0	4	-1E+10	1	-1E+10	1	-1E+10	1	-1E+10	1	-1E+10	1	-1E+10	1
4901784	222	C	08/02/2021	10:47	-136.361	43.192	0	1559.80	0	2.4640	0	38.8460	8	31.024	0	1541.630	0	28.9	4	9.1	4	-1E+10	1	-1E+10	1	-1E+10	1	-1E+10	1	-1E+10	1	-1E+10	1
4901784	222	C	08/02/2021	10:47	-136.361	43.192	0	1565.30	0	2.4550	0	38.8480	8	31.026	0	1547.046	0	29.2	4	9.2	4	-1E+10	1	-1E+10	1	-1E+10	1	-1E+10	1	-1E+10	1	-1E+10	1
4901784	222	C	08/02/2021	10:47	-136.361	43.192	0	1569.90	0	2.4480	0	38.8500	8	31.028	0	1551.575	0	29.5	4	9.3	4	-1E+10	1	-1E+10	1	-1E+10	1	-1E+10	1	-1E+10	1	-1E+10	1
4901784	222	C	08/02/2021	10:47	-136.361	43.192	0	1574.40	0	2.4360	0	38.8520	8	31.031	0	1556.006	0	29.9	4	9.4	4	-1E+10	1	-1E+10	1	-1E+10	1	-1E+10	1	-1E+10	1	-1E+10	1
4901784	222	C	08/02/2021	10:47	-136.361	43.192	0	1579.70	0	2.4240	0	38.8540	8	31.034	0	1561.224	0	30.3	4	9.5	4	-1E+10	1	-1E+10	1	-1E+10	1	-1E+10	1	-1E+10	1	-1E+10	1
4901784	222	C	08/02/2021	10:47	-136.361	43.192	0	1584.50	0	2.4120	0	38.8570	8	31.037	0	1565.951	0	30.6	4	9.6	4	-1E+10	1	-1E+10	1	-1E+10	1	-1E+10	1	-1E+10	1	-1E+10	1
4901784	222	C	08/02/2021	10:47	-136.361	43.192	0	1589.40	0	2.4080	0	38.8580	8	31.039	0	1570.775	0	30.7	4	9.7	4	-1E+10	1	-1E+10	1	-1E+10	1	-1E+10	1	-1E+10	1	-1E+10	1
4901784	222	C	08/02/2021	10:47	-136.361	43.192	0	1595.00	0	2.4030	0	38.8590	8	31.040	0	1576.289	0	31.0	4	9.7	4	-1E+10	1	-1E+10	1	-1E+10	1	-1E+10	1	-1E+10	1	-1E+10	1
4901784	222	C	08/02/2021	10:47	-136.361	43.192	0	1600.70	0	2.3970	0	38.8610	8	31.042	0	1581.900	0	31.2	4	9.8	4	-1E+10	1	-1E+10	1	-1E+10	1	-1E+10	1	-1E+10	1	-1E+10	1
4901784	222	C	08/02/2021	10:47	-136.361	43.192	0	1605.60	0	2.3930	0	38.8620	8	31.043	0	1586.724	0	31.5	4	9.9	4	-1E+10	1	-1E+10	1	-1E+10	1	-1E+10	1	-1E+10	1	-1E+10	1
4901784	222	C	08/02/2021	10:47	-136.361	43.192	0	1610.50	0	2.3830	0	38.8640	8	31.046	0	1591.548	0	31.9	4	10.0	4	-1E+10	1	-1E+10	1	-1E+10	1	-1E+10	1	-1E+10	1	-1E+10	1
4901784	222	C	08/02/2021	10:47	-136.361	43.192	0	1615.40	0	2.3750	0	38.8660	8	31.048	0	1596.372	0	32.3	4	10.1	4	-1E+10	1	-1E+10	1	-1E+10	1	-1E+10	1	-1E+10	1	-1E+10	1
4901784	222	C	08/02/2021	10:47	-136.361	43.192	0	1620.40	0	2.3610	0	38.8690	8	31.052	0	1601.295	0	32.6	4	10.3	4	-1E+10	1	-1E+10	1	-1E+10	1	-1E+10	1	-1E+10	1	-1E+10	1
4901784	222	C	08/02/2021	10:47	-136.361	43.192	0	1625.40	0	2.3550	0	38.8700	8	31.054	0	1606.217	0	32.9	4	10.3	4	-1E+10	1	-1E+10	1	-1E+10	1	-1E+10	1	-1E+10	1	-1E+10	1
4901784	222	C	08/02/2021	10:47	-136.361	43.192	0	1630.40	0	2.3490	0	38.8720	8	31.056	0	1611.139	0	33.2	4	10.4	4	-1E+10	1	-1E+10	1	-1E+10	1	-1E+10	1	-1E+10	1	-1E+10	1
4901784	222	C	08/02/2021	10:47	-136.361	43.192	0	1635.50	0	2.3410	0	38.8730	8	31.057	0	1616.159	0	33.6	4	10.5	4	-1E+10	1	-1E+10	1	-1E+10	1	-1E+10	1	-1E+10	1	-1E+10	1
4901784	222	C	08/02/2021	10:47	-136.361	43.192	0	1640.60	0	2.3300	0	38.8750	8	31.060	0	1621.179	0	34.0	4	10.7	4	-1E+10	1	-1E+10	1	-1E+10	1	-1E+10	1	-1E+10	1	-1E+10	1
4901784	222	C	08/02/2021	10:47	-136.361	43.192	0	1645.70	0	2.3190	0	38.8780	8	31.064	0	1626.199	0	34.4	4	10.8	4	-1E+10	1	-1E+10	1	-1E+10	1	-1E+10	1	-1E+10	1	-1E+10	1
4901784	222	C	08/02/2021	10:47	-136.361	43.192	0	1650.00	0	2.3120	0	38.8800	8	31.066	0	1630.432	0	34.6	4	10.9	4	-1E+10	1	-1E+10	1	-1E+10	1	-1E+10	1	-1E+10	1	-1E+10	1
4901784	222	C	08/02/2021	10:47	-136.361	43.192	0	1654.30	0	2.3060	0	38.8810	8	31.067	0	1634.664	0	34.9	4	11.0	4	-1E+10	1	-1E+10	1	-1E+10	1	-1E+10	1	-1E+10	1	-1E+10	1
4901784	222	C	08/02/2021	10:47	-136.361	43.192	0	1659.50	0	2.3000	0	38.8820	8	31.069	0	1639.782	0	35.3	4	11.1	4	-1E+10	1	-1E+10	1	-1E+10	1	-1E+10	1	-1E+10	1	-1E+10	1
4901784	222	C	08/02/2021	10:47	-136.361	43.192	0	1664.80	0	2.2910	0	38.8840	8	31.071	0	1644.999	0	35.7	4	11.2	4	-1E+10	1	-1E+10	1	-1E+10	1	-1E+10	1	-1E+10	1	-1E+10	1
4901784	222	C	08/02/2021	10:47	-136.361	43.192	0	1670.00	0	2.2810	0	38.8860	8	31.074	0	1650.117	0	36.2	4	11.4	4	-1E+10	1	-1E+10	1	-1E+10	1	-1E+10	1	-1E+10	1	-1E+10	1
4901784	222	C	08/02/2021	10:47	-136.361	43.192	0	1675.30	0	2.2710	0	38.8880	8	31.076	0	1655.333	0	36.6	4	11.5	4	-1E+10	1	-1E+10	1	-1E+10	1	-1E+10	1	-1E+10	1	-1E+10	1
4901784	222	C	08/02/2021	10:47	-136.361	43.192	0	1680.50	0	2.2590	0	38.8910	8	31.080	0	1660.451	0	37.1	4	11.6	4	-1E+10	1	-1E+10	1	-1E+10	1	-1E+10	1	-1E+10	1	-1E+10	1
4901784	222	C	08/02/2021	10:47	-136.361	43.192	0	1684.90	0	2.2510	0	38.8930	8	31.082	0	1664.781	0	37.4	4	11.7	4	-1E+10	1	-1E+10	1	-1E+10	1	-1E+10	1	-1E+10	1	-1E+10	1
4901784	222	C	08/02/2021	10:47	-136.361	43.192	0	1689.40	0	2.2470	0	38.8940	8	31.083	0	1669.209	0	37.6	4	11.8	4	-1E+10	1	-1E+10	1	-1E+10	1	-1E+10	1	-1E+10	1	-1E+10	1
4901784	222	C	08/02/2021	10:47	-136.361	43.192	0	1694.70	0	2.2410	0	38.8950	8	31.085	0	1674.425	0	38.0	4	11.9	4	-1E+10	1	-1E+10	1	-1E+10	1	-1E+10	1	-1E+10	1	-1E+10	1
4901784	222	C	08/02/2021	10:47	-136.361	43.192	0	1700.20	0	2.2320	0	38.8970	8	31.087	0	1679.838	0	38.4	4	12.0	4	-1E+10	1	-1E+10	1	-1E+10	1	-1E+10	1	-1E+10	1	-1E+10	1
4901784	222	C	08/02/2021	10:47	-136.361	43.192	0	1705.60	0	2.2250	0	38.8990	8	31.090	0	1685.151	0	38.7	4	12.1	4	-1E+10	1	-1E+10	1	-1E+10	1	-1E+10	1	-1E+10	1	-1E+10	1
4901784	222	C	08/02/2021	10:47	-136.361	43.192	0	1710.20	0	2.2220	0	38.9000	8	31.091	0	1689.678	0	38.9	4	12.2	4	-1E+10	1	-1E+10	1	-1E+10	1	-1E+10	1	-1E+10	1	-1E+10	1
4901784	222	C	08/02/2021	10:47	-136.361	43.192	0	1715.40	0	2.2140	0	38.9020	8	31.093	0	1694.795	0	39.2	4	12.3	4	-1E+10	1	-1E+10	1	-1E+10	1	-1E+10	1	-1E+10	1	-1E+10	1
4901784	222	C	08/02/2021	10:47	-136.361	43.192	0	1720.50	0	2.2090	0	38.9030	8	31.094	0	1699.813	0	39.4	4	12.4	4	-1E+10	1	-1E+10	1	-1E+10	1	-1E+10	1	-1E+10	1	-1E+10	1
4901784	222	C	08/02/2021	10:47	-136.361	43.192	0	1725.30	0	2.2050	0	38.9050	8	31.096	0	1704.536	0	39.7	4	12.4	4	-1E+10	1	-1E+10	1	-1E+10	1	-1E+10	1	-1E+10	1	-1E+10	1
4901784	222	C	08/02/2021	10:47	-136.361	43.192	0	1730.10	0	2.1980	0	38.9070	8	31.099	0	1709.259	0	39.9	4	12.5	4	-1E+10	1	-1E+10	1	-1E+10	1	-1E+10	1	-1E+10	1	-1E+10	1
4901784	222	C	08/02/2021	10:47	-136.361	43.192	0	1735.00	0	2.1970	0	38.9070	8	31.099	0	1714.080	0	40.1	4	12.6	4	-1E+10	1	-1E+10	1	-1E+10	1	-1E+10	1	-1E+10	1	-1E+10	1
4901784	222	C	08/02/2021	10:47	-136.361	43.192	0	1739.80	0	2.1910	0	38.9090	8	31.101	0	1718.803	0	40.4	4	12.6	4	-1E+10	1	-1E+10	1	-1E+10	1	-1E+10	1	-1E+10	1	-1E+10	1
4901784	222	C	08/02/2021	10:47	-136.361	43.192	0	1744.70	0	2.1840	0	38.9110	8	31.103	0	1723.624	0	40.6	4	12.7	4	-1E+10	1	-1E+10	1	-1E+10	1	-1E+10	1	-1E+10	1	-1E+10	1
4901784	222	C	08/02/2021	10:47	-136.361	43.192	0	1749.60	0	2.1800	0	38.9120	8	31.104	0	1728.445	0	40.8	4	12.8	4	-1E+10	1	-1E+10	1	-1E+10	1	-1E+10	1	-1E+10	1	-1E+10	1
4901784	222	C	08/02/2021	10:47	-136.361	43.192	0	1754.50	0	2.1770	0	38.9130	8	31.106	0	1733.266	0	41.0	4	12.8	4	-1E+10	1	-1E+10	1	-1E+10	1	-1E+10	1	-1E+10	1	-1E+10	1
4901784	222	C	08/02/2021	10:47	-136.361	43.192	0	1759.50	0	2.1710	0	38.9150	8	31.108	0	1738.185	0	41.4	4	12.9	4	-1E+10	1	-1E+10	1	-1E+10	1	-1E+10	1	-1E+10	1	-1E+10	1
4901784	222	C	08/02/2021	10:47	-136.361	43.192	0	1764.50	0	2.1640	0	38.9160	8	31.109	0	1743.103	0	41.7	4	13.1	4	-1E+10	1	-1E+10	1	-1E+10	1	-1E+10	1	-1E+10	1	-1E+10	1
4901784	222	C	08/02/2021	10:47	-136.361	43.192	0	1769.50	0	2.1580	0	38.9180	8	31.111	0	1748.022	0	42.0	4	13.1	4	-1E+10	1	-1E+10	1	-1E+10	1	-1E+10	1	-1E+10	1	-1E+10	1
4901784	222	C	08/02/2021	10:47	-136.361	43.192	0	1774.50	0	2.1540	0	38.9190	8	31.113	0	1752.941	0	42.2	4	13.2	4	-1E+10	1	-1E+10	1	-1E+10	1	-1E+10	1	-1E+10	1	-1E+10	1
4901784	222	C	08/02/2021	10:47	-136.361	43.192	0	1779.60	0	2.1510	0	38.9200	8	31.114	0	1757.958	0	42.4	4	13.3	4	-1E+10	1	-1E+10	1	-1E+10	1	-1E+10	1	-1E+10	1	-1E+10	1
4901784	222	C	08/02/2021	10:47	-136.361	43.192	0	1784.60	0	2.1470	0	38.9220	8	31.116	0	1762.876	0	42.7	4	13.4	4	-1E+10	1	-1E+10	1	-1E+10	1	-1E+10	1	-1E+10	1	-1E+10	1
4901784	222	C	08/02/2021	10:47	-136.361	43.192	0	1789.70	0	2.1410	0	38.9230	8	31.117	0	1767.893	0	43.0	4	13.4	4	-1E+10	1	-1E+10	1	-1E+10	1	-1E+10	1	-1E+10	1	-1E+10	1
4901784	222	C	08/02/2021	10:47	-136.361	43.192	0	1794.70	0	2.1370	0	38.9240	8	31.118	0	1772.811	0	43.3	4	13.5	4	-1E+10	1	-1E+10	1	-1E+10	1	-1E+10	1	-1E+10	1	-1E+10	1
4901784	222	C	08/02/2021	10:47	-136.361	43.192	0	1799.90	0	2.1300	0	38.9260	8	31.121	0	1777.926	0	43.7	4	13.7	4	-1E+10	1	-1E+10	1	-1E+10	1	-1E+10	1	-1E+10	1	-1E+10	1
4901784	222	C	08/02/2021	10:47	-136.361	43.192	0	1805.10	0	2.1250	0	38.9280	8	31.123	0	1783.041	0	44.0	4	13.8	4	-1E+10	1	-1E+10	1	-1E+10	1	-1E+10	1	-1E+10	1	-1E+10	1
4901784	222	C	08/02/2021	10:47	-136.361	43.192	0	1810.40	0	2.1190	0	38.9290	8	31.124	0	1788.254	0	44.3	4	13.9	4	-1E+10	1	-1E+10	1	-1E+10	1	-1E+10	1	-1E+10	1	-1E+10	1
4901784	222	C	08/02/2021	10:47	-136.361	43.192	0	1815.70	0	2.1150	0	38.9300	8	31.125	0	1793.467	0	44.6	4	13.9	4	-1E+10	1	-1E+10	1	-1E+10	1	-1E+10	1	-1E+10	1	-1E+10	1
4901784	222	C	08/02/2021	10:47	-136.361	43.192	0	1820.10	0	2.1100	0	38.9320	8	31.127	0	1797.794	0	45.0	4	14.1	4	-1E+10	1	-1E+10	1	-1E+10	1	-1E+10	1	-1E+10	1	-1E+10	1
4901784	222	C	08/02/2021	10:47	-136.361	43.192	0	1824.50	0	2.1040	0	38.9330	8	31.129	0	1802.122	0	45.3	4	14.1	4	-1E+10	1	-1E+10	1	-1E+10	1	-1E+10	1	-1E+10	1	-1E+10	1
4901784	222	C	08/02/2021	10:47	-136.361	43.192	0	1829.90	0	2.0970	0	38.9350	8	31.131	0	1807.432	0	45.7	4	14.3	4	-1E+10	1	-1E+10	1	-1E+10	1	-1E+10	1	-1E+10	1	-1E+10	1
4901784	222	C	08/02/2021	10:47	-136.361	43.192	0	1835.20	0	2.0900	0	38.9370	8	31.133	0	1812.645	0	46.0	4	14.4	4	-1E+10	1	-1E+10	1	-1E+10	1	-1E+10	1	-1E+10	1	-1E+10	1
4901784	222	C	08/02/2021	10:47	-136.361	43.192	0	1840.70	0	2.0850	0	38.9380	8	31.135	0	1818.054	0	46.4	4	14.5	4	-1E+10	1	-1E+10	1	-1E+10	1	-1E+10	1	-1E+10	1	-1E+10	1
4901784	222	C	08/02/2021	10:47	-136.361	43.192	0	1845.20	0	2.0790	0	38.9400	8	31.137	0	1822.479	0	46.6	4	14.6	4	-1E+10	1	-1E+10	1	-1E+10	1	-1E+10	1	-1E+10	1	-1E+10	1
4901784	222	C	08/02/2021	10:47	-136.361	43.192	0	1850.10	0	2.0760	0	38.9410	8	31.138	0	1827.298	0	46.8	4	14.6	4	-1E+10	1	-1E+10	1	-1E+10	1	-1E+10	1	-1E+10	1	-1E+10	1
4901784	222	C	08/02/2021	10:47	-136.361	43.192	0	1855.20	0	2.0730	0	38.9420	8	31.139	0	1832.313	0	47.1	4	14.7	4	-1E+10	1	-1E+10	1	-1E+10	1	-1E+10	1	-1E+10	1	-1E+10	1
4901784	222	C	08/02/2021	10:47	-136.361	43.192	0	1859.90	0	2.0670	0	38.9440	8	31.141	0	1836.934	0	47.4	4	14.8	4	-1E+10	1	-1E+10	1	-1E+10	1	-1E+10	1	-1E+10	1	-1E+10	1
4901784	222	C	08/02/2021	10:47	-136.361	43.192	0	1864.70	0	2.0640	0	38.9450	8	31.142	0	1841.654	0	47.6	4	14.9	4	-1E+10	1	-1E+10	1	-1E+10	1	-1E+10	1	-1E+10	1	-1E+10	1
4901784	222	C	08/02/2021	10:47	-136.361	43.192	0	1869.50	0	2.0590	0	38.9460	8	31.144	0	1846.374	0	47.9	4	14.9	4	-1E+10	1	-1E+10	1	-1E+10	1	-1E+10	1	-1E+10	1	-1E+10	1
4901784	222	C	08/02/2021	10:47	-136.361	43.192	0	1874.40	0	2.0540	0	38.9480	8	31.146	0	1851.192	0	48.2	4	15.0	4	-1E+10	1	-1E+10	1	-1E+10	1	-1E+10	1	-1E+10	1	-1E+10	1
4901784	222	C	08/02/2021	10:47	-136.361	43.192	0	1879.40	0	2.0510	0	38.9490	8	31.147	0	1856.109	0	48.4	4	15.1	4	-1E+10	1	-1E+10	1	-1E+10	1	-1E+10	1	-1E+10	1	-1E+10	1
4901784	222	C	08/02/2021	10:47	-136.361	43.192	0	1884.30	0	2.0490	0	38.9500	8	31.148	0	1860.927	0	48.6	4	15.2	4	-1E+10	1	-1E+10	1	-1E+10	1	-1E+10	1	-1E+10	1	-1E+10	1
4901784	222	C	08/02/2021	10:47	-136.361	43.192	0	1889.30	0	2.0440	0	38.9510	8	31.149	0	1865.843	0	49.0	4	15.3	4	-1E+10	1	-1E+10	1	-1E+10	1	-1E+10	1	-1E+10	1	-1E+10	1
4901784	222	C	08/02/2021	10:47	-136.361	43.192	0	1894.20	0	2.0370	0	38.9530	8	31.151	0	1870.660	0	49.5	4	15.4	4	-1E+10	1	-1E+10	1	-1E+10	1	-1E+10	1	-1E+10	1	-1E+10	1
4901784	222	C	08/02/2021	10:47	-136.361	43.192	0	1899.30	0	2.0330	0	38.9540	8	31.153	0	1875.674	0	49.7	4	15.5	4	-1E+10	1	-1E+10	1	-1E+10	1	-1E+10	1	-1E+10	1	-1E+10	1
4901784	222	C	08/02/2021	10:47	-136.361	43.192	0	1904.30	0	2.0280	0	38.9550	8	31.154	0	1880.590	0	50.1	4	15.6	4	-1E+10	1	-1E+10	1	-1E+10	1	-1E+10	1	-1E+10	1	-1E+10	1
4901784	222	C	08/02/2021	10:47	-136.361	43.192	0	1909.30	0	2.0230	0	38.9570	8	31.156	0	1885.506	0	50.5	4	15.7	4	-1E+10	1	-1E+10	1	-1E+10	1	-1E+10	1	-1E+10	1	-1E+10	1
4901784	222	C	08/02/2021	10:47	-136.361	43.192	0	1914.40	0	2.0190	0	38.9580	8	31.157	0	1890.519	0	50.9	4	15.9	4	-1E+10	1	-1E+10	1	-1E+10	1	-1E+10	1	-1E+10	1	-1E+10	1
4901784	222	C	08/02/2021	10:47	-136.361	43.192	0	1919.40	0	2.0120	0	38.9590	8	31.159	0	1895.435	0	51.4	4	16.0	4	-1E+10	1	-1E+10	1	-1E+10	1	-1E+10	1	-1E+10	1	-1E+10	1
4901784	222	C	08/02/2021	10:47	-136.361	43.192	0	1924.50	0	2.0060	0	38.9610	8	31.161	0	1900.448	0	51.8	4	16.1	4	-1E+10	1	-1E+10	1	-1E+10	1	-1E+10	1	-1E+10	1	-1E+10	1
4901784	222	C	08/02/2021	10:47	-136.361	43.192	0	1929.60	0	2.0010	0	38.9620	8	31.162	0	1905.462	0	52.2	4	16.3	4	-1E+10	1	-1E+10	1	-1E+10	1	-1E+10	1	-1E+10	1	-1E+10	1
4901784	222	C	08/02/2021	10:47	-136.361	43.192	0	1934.80	0	1.9950	0	38.9640	8	31.164	0	1910.574	0	52.6	4	16.4	4	-1E+10	1	-1E+10	1	-1E+10	1	-1E+10	1	-1E+10	1	-1E+10	1
4901784	222	C	08/02/2021	10:47	-136.361	43.192	0	1940.00	0	1.9900	0	38.9650	8	31.166	0	1915.685	0	52.9	4	16.5	4	-1E+10	1	-1E+10	1	-1E+10	1	-1E+10	1	-1E+10	1	-1E+10	1
4901784	222	C	08/02/2021	10:47	-136.361	43.192	0	1945.20	0	1.9880	0	38.9660	8	31.167	0	1920.796	0	53.1	4	16.6	4	-1E+10	1	-1E+10	1	-1E+10	1	-1E+10	1	-1E+10	1	-1E+10	1
4901784	222	C	08/02/2021	10:47	-136.361	43.192	0	1950.50	0	1.9850	0	38.9670	8	31.168	0	1926.006	0	53.4	4	16.6	4	-1E+10	1	-1E+10	1	-1E+10	1	-1E+10	1	-1E+10	1	-1E+10	1
4901784	222	C	08/02/2021	10:47	-136.361	43.192	0	1955.00	0	1.9830	0	38.9680	8	31.169	0	1930.429	0	53.7	4	16.7	4	-1E+10	1	-1E+10	1	-1E+10	1	-1E+10	1	-1E+10	1	-1E+10	1
4901784	222	C	08/02/2021	10:47	-136.361	43.192	0	1959.40	0	1.9770	0	38.9690	8	31.170	0	1934.754	0	54.0	4	16.8	4	-1E+10	1	-1E+10	1	-1E+10	1	-1E+10	1	-1E+10	1	-1E+10	1
4901784	222	C	08/02/2021	10:47	-136.361	43.192	0	1964.70	0	1.9720	0	38.9700	8	31.171	0	1939.963	0	54.4	4	17.0	4	-1E+10	1	-1E+10	1	-1E+10	1	-1E+10	1	-1E+10	1	-1E+10	1
4901784	222	C	08/02/2021	10:47	-136.361	43.192	0	1970.10	0	1.9670	0	38.9720	8	31.174	0	1945.270	0	54.8	4	17.1	4	-1E+10	1	-1E+10	1	-1E+10	1	-1E+10	1	-1E+10	1	-1E+10	1
4901784	222	C	08/02/2021	10:47	-136.361	43.192	0	1975.50	0	1.9640	0	38.9730	8	31.175	0	1950.578	0	55.0	4	17.1	4	-1E+10	1	-1E+10	1	-1E+10	1	-1E+10	1	-1E+10	1	-1E+10	1
4901784	222	C	08/02/2021	10:47	-136.361	43.192	0	1980.00	0	1.9630	0	38.9730	8	31.175	0	1955.000	0	55.2	4	17.2	4	-1E+10	1	-1E+10	1	-1E+10	1	-1E+10	1	-1E+10	1	-1E+10	1
4901784	222	C	08/02/2021	10:47	-136.361	43.192	0	1984.50	0	1.9590	0	38.9740	8	31.176	0	1959.423	0	55.5	4	17.3	4	-1E+10	1	-1E+10	1	-1E+10	1	-1E+10	1	-1E+10	1	-1E+10	1
4901784	222	C	08/02/2021	10:47	-136.361	43.192	0	1989.90	0	1.9550	0	38.9750	8	31.177	0	1964.730	0	55.8	4	17.4	4	-1E+10	1	-1E+10	1	-1E+10	1	-1E+10	1	-1E+10	1	-1E+10	1
4901784	222	C	08/02/2021	10:47	-136.361	43.192	0	1995.10	0	1.9510	0	38.9760	8	31.178	0	1969.840	0	56.2	4	17.5	4	-1E+10	1	-1E+10	1	-1E+10	1	-1E+10	1	-1E+10	1	-1E+10	1
4901784	222	C	08/02/2021	10:47	-136.361	43.192	0	2000.40	0	1.9460	0	38.9770	8	31.180	0	1975.048	0	56.4	4	17.6	4	-1E+10	1	-1E+10	1	-1E+10	1	-1E+10	1	-1E+10	1	-1E+10	1
4901784	222	C	08/02/2021	10:47	-136.361	43.192	0	2005.20	0	1.9450	0	38.9770	8	31.180	0	1979.765	0	56.8	4	17.7	4	-1E+10	1	-1E+10	1	-1E+10	1	-1E+10	1	-1E+10	1	-1E+10	1
4901784	222	C	08/02/2021	10:47	-136.361	43.192	0	2009.90	0	1.9380	0	38.9790	8	31.182	0	1984.384	0	57.1	4	17.8	4	-1E+10	1	-1E+10	1	-1E+10	1	-1E+10	1	-1E+10	1	-1E+10	1
4901784	222	C	08/02/2021	10:47	-136.361	43.192	0	2014.50	0	1.9370	0	38.9800	8	31.183	0	1988.904	0	57.3	4	17.8	4	-1E+10	1	-1E+10	1	-1E+10	1	-1E+10	1	-1E+10	1	-1E+10	1
4901784	222	C	08/02/2021	10:47	-136.361	43.192	0	2019.90	0	1.9320	0	38.9810	8	31.184	0	1994.210	0	57.6	4	17.9	4	-1E+10	1	-1E+10	1	-1E+10	1	-1E+10	1	-1E+10	1	-1E+10	1
4901784	222	C	08/02/2021	10:47	-136.361	43.192	0																										
4901784	223	C	08/12/2021	10:45	-136.378	43.154	0	3.50	0	19.1070	0	36.2850	8	25.978	0	3.472	0	221.0	4	97.2	4	-1E+10	1	-1E+10	1	-1E+10	1	-1E+10	1	-1E+10	1	-1E+10	1
4901784	223	C	08/12/2021	10:45	-136.378	43.154	0	5.80	0	19.1070	0	36.2880	8	25.980	0	5.754	0	220.8	4	97.1	4	-1E+10	1	-1E+10	1	-1E+10	1	-1E+10	1	-1E+10	1	-1E+10	1
4901784	223	C	08/12/2021	10:45	-136.378	43.154	0	7.60	0	19.1090	0	36.2890	8	25.980	0	7.539	0	220.7	4	97.1	4	-1E+10	1	-1E+10	1	-1E+10	1	-1E+10	1	-1E+10	1	-1E+10	1
4901784	223	C	08/12/2021	10:45	-136.378	43.154	0	9.20	0	19.1090	0	36.2910	8	25.982	0	9.127	0	220.9	4	97.2	4	-1E+10	1	-1E+10	1	-1E+10	1	-1E+10	1	-1E+10	1	-1E+10	1
4901784	223	C	08/12/2021	10:45	-136.378	43.154	0	10.60	0	19.1080	0	36.2930	8	25.984	0	10.515	0	220.8	4	97.2	4	-1E+10	1	-1E+10	1	-1E+10	1	-1E+10	1	-1E+10	1	-1E+10	1
4901784	223	C	08/12/2021	10:45	-136.378	43.154	0	12.00	0	19.1070	0	36.2920	8	25.983	0	11.904	0	220.7	4	97.1	4	-1E+10	1	-1E+10	1	-1E+10	1	-1E+10	1	-1E+10	1	-1E+10	1
4901784	223	C	08/12/2021	10:45	-136.378	43.154	0	13.50	0	19.1110	0	36.2900	8	25.981	0	13.392	0	221.2	4	97.3	4	-1E+10	1	-1E+10	1	-1E+10	1	-1E+10	1	-1E+10	1	-1E+10	1
4901784	223	C	08/12/2021	10:45	-136.378	43.154	0	15.20	0	19.1110	0	36.2850	8	25.977	0	15.079	0	221.6	4	97.5	4	-1E+10	1	-1E+10	1	-1E+10	1	-1E+10	1	-1E+10	1	-1E+10	1
4901784	223	C	08/12/2021	10:45	-136.378	43.154	0	16.50	0	19.0940	0	36.2840	8	25.981	0	16.368	0	222.6	4	97.9	4	-1E+10	1	-1E+10	1	-1E+10	1	-1E+10	1	-1E+10	1	-1E+10	1
4901784	223	C	08/12/2021	10:45	-136.378	43.154	0	17.50	0	19.0860	0	36.2630	8	25.967	0	17.360	0	224.1	4	98.6	4	-1E+10	1	-1E+10	1	-1E+10	1	-1E+10	1	-1E+10	1	-1E+10	1
4901784	223	C	08/12/2021	10:45	-136.378	43.154	0	18.60	0	19.0410	0	36.2810	8	25.992	0	18.451	0	226.0	4	99.3	4	-1E+10	1	-1E+10	1	-1E+10	1	-1E+10	1	-1E+10	1	-1E+10	1
4901784	223	C	08/12/2021	10:45	-136.378	43.154	0	19.60	0	18.8290	0	36.3080	8	26.067	0	19.443	0	229.0	4	100.3	4	-1E+10	1	-1E+10	1	-1E+10	1	-1E+10	1	-1E+10	1	-1E+10	1
4901784	223	C	08/12/2021	10:45	-136.378	43.154	0	20.90	0	17.8410	0	36.4900	8	26.455	0	20.733	0	233.7	4	100.6	4	-1E+10	1	-1E+10	1	-1E+10	1	-1E+10	1	-1E+10	1	-1E+10	1
4901784	223	C	08/12/2021	10:45	-136.378	43.154	0	22.70	0	17.1980	0	36.4210	8	26.560	0	22.518	0	239.8	4	101.9	4	-1E+10	1	-1E+10	1	-1E+10	1	-1E+10	1	-1E+10	1	-1E+10	1
4901784	223	C	08/12/2021	10:45	-136.378	43.154	0	24.10	0	16.8620	0	36.4540	8	26.666	0	23.907	0	241.9	4	102.2	4	-1E+10	1	-1E+10	1	-1E+10	1	-1E+10	1	-1E+10	1	-1E+10	1
4901784	223	C	08/12/2021	10:45	-136.378	43.154	0	25.30	0	16.4290	0	36.4560	8	26.770	0	25.097	0	244.4	4	102.4	4	-1E+10	1	-1E+10	1	-1E+10	1	-1E+10	1	-1E+10	1	-1E+10	1
4901784	223	C	08/12/2021	10:45	-136.378	43.154	0	26.40	0	16.1620	0	36.4080	8	26.796	0	26.188	0	246.6	4	102.8	4	-1E+10	1	-1E+10	1	-1E+10	1	-1E+10	1	-1E+10	1	-1E+10	1
4901784	223	C	08/12/2021	10:45	-136.378	43.154	0	27.70	0	15.8150	0	36.5070	8	26.952	0	27.478	0	247.9	4	102.7	4	-1E+10	1	-1E+10	1	-1E+10	1	-1E+10	1	-1E+10	1	-1E+10	1
4901784	223	C	08/12/2021	10:45	-136.378	43.154	0	28.90	0	15.4980	0	36.4610	8	26.989	0	28.668	0	249.9	4	102.9	4	-1E+10	1	-1E+10	1	-1E+10	1	-1E+10	1	-1E+10	1	-1E+10	1
4901784	223	C	08/12/2021	10:45	-136.378	43.154	0	30.30	0	15.2560	0	36.4330	8	27.022	0	30.057	0	252.2	4	103.3	4	-1E+10	1	-1E+10	1	-1E+10	1	-1E+10	1	-1E+10	1	-1E+10	1
4901784	223	C	08/12/2021	10:45	-136.378	43.154	0	31.70	0	15.2080	0	36.4210	8	27.024	0	31.446	0	252.7	4	103.4	4	-1E+10	1	-1E+10	1	-1E+10	1	-1E+10	1	-1E+10	1	-1E+10	1
4901784	223	C	08/12/2021	10:45	-136.378	43.154	0	33.00	0	14.9340	0	36.4810	8	27.131	0	32.735	0	253.7	4	103.3	4	-1E+10	1	-1E+10	1	-1E+10	1	-1E+10	1	-1E+10	1	-1E+10	1
4901784	223	C	08/12/2021	10:45	-136.378	43.154	0	34.50	0	14.7380	0	36.4730	8	27.168	0	34.223	0	255.1	4	103.5	4	-1E+10	1	-1E+10	1	-1E+10	1	-1E+10	1	-1E+10	1	-1E+10	1
4901784	223	C	08/12/2021	10:45	-136.378	43.154	0	36.10	0	14.3010	0	36.5130	8	27.294	0	35.810	0	257.4	4	103.5	4	-1E+10	1	-1E+10	1	-1E+10	1	-1E+10	1	-1E+10	1	-1E+10	1
4901784	223	C	08/12/2021	10:45	-136.378	43.154	0	37.70	0	13.8850	0	36.5890	8	27.442	0	37.397	0	258.6	4	103.2	4	-1E+10	1	-1E+10	1	-1E+10	1	-1E+10	1	-1E+10	1	-1E+10	1
4901784	223	C	08/12/2021	10:45	-136.378	43.154	0	39.40	0	13.6230	0	36.5380	8	27.458	0	39.083	0	260.3	4	103.3	4	-1E+10	1	-1E+10	1	-1E+10	1	-1E+10	1	-1E+10	1	-1E+10	1
4901784	223	C	08/12/2021	10:45	-136.378	43.154	0	41.00	0	13.4610	0	36.5360	8	27.490	0	40.670	0	260.1	4	102.9	4	-1E+10	1	-1E+10	1	-1E+10	1	-1E+10	1	-1E+10	1	-1E+10	1
4901784	223	C	08/12/2021	10:45	-136.378	43.154	0	42.50	0	13.3470	0	36.5480	8	27.523	0	42.158	0	259.5	4	102.4	4	-1E+10	1	-1E+10	1	-1E+10	1	-1E+10	1	-1E+10	1	-1E+10	1
4901784	223	C	08/12/2021	10:45	-136.378	43.154	0	44.20	0	13.1230	0	36.5830	8	27.597	0	43.844	0	258.9	4	101.8	4	-1E+10	1	-1E+10	1	-1E+10	1	-1E+10	1	-1E+10	1	-1E+10	1
4901784	223	C	08/12/2021	10:45	-136.378	43.154	0	46.00	0	12.7900	0	36.6320	8	27.703	0	45.629	0	258.5	4	101.0	4	-1E+10	1	-1E+10	1	-1E+10	1	-1E+10	1	-1E+10	1	-1E+10	1
4901784	223	C	08/12/2021	10:45	-136.378	43.154	0	47.60	0	12.4600	0	36.5960	8	27.741	0	47.216	0	259.4	4	100.6	4	-1E+10	1	-1E+10	1	-1E+10	1	-1E+10	1	-1E+10	1	-1E+10	1
4901784	223	C	08/12/2021	10:45	-136.378	43.154	0	49.20	0	12.1860	0	36.5670	8	27.772	0	48.803	0	259.3	4	100.0	4	-1E+10	1	-1E+10	1	-1E+10	1	-1E+10	1	-1E+10	1	-1E+10	1
4901784	223	C	08/12/2021	10:45	-136.378	43.154	0	51.00	0	11.9620	0	36.5800	8	27.826	0	50.588	0	258.5	4	99.2	4	-1E+10	1	-1E+10	1	-1E+10	1	-1E+10	1	-1E+10	1	-1E+10	1
4901784	223	C	08/12/2021	10:45	-136.378	43.154	0	52.80	0	11.7410	0	36.5510	8	27.846	0	52.374	0	257.4	4	98.3	4	-1E+10	1	-1E+10	1	-1E+10	1	-1E+10	1	-1E+10	1	-1E+10	1
4901784	223	C	08/12/2021	10:45	-136.378	43.154	0	54.50	0	11.5090	0	36.5450	8	27.886	0	54.060	0	255.6	4	97.2	4	-1E+10	1	-1E+10	1	-1E+10	1	-1E+10	1	-1E+10	1	-1E+10	1
4901784	223	C	08/12/2021	10:45	-136.378	43.154	0	56.30	0	11.3960	0	36.5270	8	27.893	0	55.845	0	253.8	4	96.2	4	-1E+10	1	-1E+10	1	-1E+10	1	-1E+10	1	-1E+10	1	-1E+10	1
4901784	223	C	08/12/2021	10:45	-136.378	43.154	0	58.20	0	11.2830	0	36.5400	8	27.925	0	57.729	0	251.0	4	95.0	4	-1E+10	1	-1E+10	1	-1E+10	1	-1E+10	1	-1E+10	1	-1E+10	1
4901784	223	C	08/12/2021	10:45	-136.378	43.154	0	60.10	0	11.1400	0	36.5290	8	27.943	0	59.614	0	249.5	4	94.1	4	-1E+10	1	-1E+10	1	-1E+10	1	-1E+10	1	-1E+10	1	-1E+10	1
4901784	223	C	08/12/2021	10:45	-136.378	43.154	0	62.00	0	11.0900	0	36.5280	8	27.952	0	61.498	0	248.5	4	93.6	4	-1E+10	1	-1E+10	1	-1E+10	1	-1E+10	1	-1E+10	1	-1E+10	1
4901784	223	C	08/12/2021	10:45	-136.378	43.154	0	63.90	0	11.0190	0	36.5270	8	27.964	0	63.382	0	247.2	4	93.0	4	-1E+10	1	-1E+10	1	-1E+10	1	-1E+10	1	-1E+10	1	-1E+10	1
4901784	223	C	08/12/2021	10:45	-136.378	43.154	0	65.80	0	10.9730	0	36.5220	8	27.969	0	65.267	0	246.6	4	92.7	4	-1E+10	1	-1E+10	1	-1E+10	1	-1E+10	1	-1E+10	1	-1E+10	1
4901784	223	C	08/12/2021	10:45	-136.378	43.154	0	67.60	0	10.9240	0	36.5200	8	27.976	0	67.052	0	246.1	4	92.4	4	-1E+10	1	-1E+10	1	-1E+10	1	-1E+10	1	-1E+10	1	-1E+10	1
4901784	223	C	08/12/2021	10:45	-136.378	43.154	0	69.50	0	10.8800	0	36.5290	8	27.991	0	68.936	0	245.5	4	92.1	4	-1E+10	1	-1E+10	1	-1E+10	1	-1E+10	1	-1E+10	1	-1E+10	1
4901784	223	C	08/12/2021	10:45	-136.378	43.154	0	71.30	0	10.8610	0	36.5250	8	27.992	0	70.721	0	245.2	4	91.9	4	-1E+10	1	-1E+10	1	-1E+10	1	-1E+10	1	-1E+10	1	-1E+10	1
4901784	223	C	08/12/2021	10:45	-136.378	43.154	0	73.20	0	10.7790	0	36.5470	8	28.024	0	72.605	0	245.0	4	91.7	4	-1E+10	1	-1E+10	1	-1E+10	1	-1E+10	1	-1E+10	1	-1E+10	1
4901784	223	C	08/12/2021	10:45	-136.378	43.154	0	75.00	0	10.7520	0	36.5420	8	28.025	0	74.390	0	245.1	4	91.7	4	-1E+10	1	-1E+10	1	-1E+10	1	-1E+10	1	-1E+10	1	-1E+10	1
4901784	223	C	08/12/2021	10:45	-136.378	43.154	0	76.90	0	10.7310	0	36.5430	8	28.029	0	76.275	0	245.1	4	91.7	4	-1E+10	1	-1E+10	1	-1E+10	1	-1E+10	1	-1E+10	1	-1E+10	1
4901784	223	C	08/12/2021	10:45	-136.378	43.154	0	78.80	0	10.7020	0	36.5380	8	28.031	0	78.159	0	245.2	4	91.6	4	-1E+10	1	-1E+10	1	-1E+10	1	-1E+10	1	-1E+10	1	-1E+10	1
4901784	223	C	08/12/2021	10:45	-136.378	43.154	0	80.60	0	10.6310	0	36.5430	8	28.048	0	79.944	0	245.7	4	91.7	4	-1E+10	1	-1E+10	1	-1E+10	1	-1E+10	1	-1E+10	1	-1E+10	1
4901784	223	C	08/12/2021	10:45	-136.378	43.154	0	82.90	0	10.5120	0	36.5560	8	28.079	0	82.225	0	246.6	4	91.8	4	-1E+10	1	-1E+10	1	-1E+10	1	-1E+10	1	-1E+10	1	-1E+10	1
4901784	223	C	08/12/2021	10:45	-136.378	43.154	0	84.80	0	10.3580	0	36.5230	8	28.081	0	84.109	0	248.2	4	92.1	4	-1E+10	1	-1E+10	1	-1E+10	1	-1E+10	1	-1E+10	1	-1E+10	1
4901784	223	C	08/12/2021	10:45	-136.378	43.154	0	86.40	0	10.2800	0	36.5270	8	28.098	0	85.695	0	248.9	4	92.2	4	-1E+10	1	-1E+10	1	-1E+10	1	-1E+10	1	-1E+10	1	-1E+10	1
4901784	223	C	08/12/2021	10:45	-136.378	43.154	0	88.00	0	10.0780	0	36.5370	8	28.142	0	87.282	0	249.9	4	92.1	4	-1E+10	1	-1E+10	1	-1E+10	1	-1E+10	1	-1E+10	1	-1E+10	1
4901784	223	C	08/12/2021	10:45	-136.378	43.154	0	89.60	0	9.9200	0	36.4930	8	28.135	0	88.869	0	250.9	4	92.2	4	-1E+10	1	-1E+10	1	-1E+10	1	-1E+10	1	-1E+10	1	-1E+10	1
4901784	223	C	08/12/2021	10:45	-136.378	43.154	0	91.20	0	9.8470	0	36.5280	8	28.175	0	90.455	0	250.8	4	92.0	4	-1E+10	1	-1E+10	1	-1E+10	1	-1E+10	1	-1E+10	1	-1E+10	1
4901784	223	C	08/12/2021	10:45	-136.378	43.154	0	92.80	0	9.8000	0	36.4950	8	28.157	0	92.042	0	251.5	4	92.2	4	-1E+10	1	-1E+10	1	-1E+10	1	-1E+10	1	-1E+10	1	-1E+10	1
4901784	223	C	08/12/2021	10:45	-136.378	43.154	0	94.40	0	9.7110	0	36.5100	8	28.184	0	93.628	0	251.3	4	91.9	4	-1E+10	1	-1E+10	1	-1E+10	1	-1E+10	1	-1E+10	1	-1E+10	1
4901784	223	C	08/12/2021	10:45	-136.378	43.154	0	96.10	0	9.6320	0	36.4900	8	28.182	0	95.314	0	251.8	4	91.9	4	-1E+10	1	-1E+10	1	-1E+10	1	-1E+10	1	-1E+10	1	-1E+10	1
4901784	223	C	08/12/2021	10:45	-136.378	43.154	0	97.80	0	9.5760	0	36.4940	8	28.195	0	97.000	0	251.9	4	91.9	4	-1E+10	1	-1E+10	1	-1E+10	1	-1E+10	1	-1E+10	1	-1E+10	1
4901784	223	C	08/12/2021	10:45	-136.378	43.154	0	99.50	0	9.5710	0	36.4920	8	28.194	0	98.685	0	251.7	4	91.8	4	-1E+10	1	-1E+10	1	-1E+10	1	-1E+10	1	-1E+10	1	-1E+10	1
4901784	223	C	08/12/2021	10:45	-136.378	43.154	0	103.00	0	9.4380	0	36.5100	8	28.231	0	102.156	0	252.2	4	91.7	4	-1E+10	1	-1E+10	1	-1E+10	1	-1E+10	1	-1E+10	1	-1E+10	1
4901784	223	C	08/12/2021	10:45	-136.378	43.154	0	104.70	0	9.3820	0	36.4930	8	28.227	0	103.841	0	253.0	4	91.9	4	-1E+10	1	-1E+10	1	-1E+10	1	-1E+10	1	-1E+10	1	-1E+10	1
4901784	223	C	08/12/2021	10:45	-136.378	43.154	0	107.30	0	9.3010	0	36.4900	8	28.238	0	106.419	0	253.6	4	91.9	4	-1E+10	1	-1E+10	1	-1E+10	1	-1E+10	1	-1E+10	1	-1E+10	1
4901784	223	C	08/12/2021	10:45	-136.378	43.154	0	109.80	0	9.0690	0	36.4750	8	28.265	0	108.898	0	255.0	4	92.0	4	-1E+10	1	-1E+10	1	-1E+10	1	-1E+10	1	-1E+10	1	-1E+10	1
4901784	223	C	08/12/2021	10:45	-136.378	43.154	0	112.40	0	9.0820	0	36.4710	8	28.260	0	111.476	0	255.3	4	92.1	4	-1E+10	1	-1E+10	1	-1E+10	1	-1E+10	1	-1E+10	1	-1E+10	1
4901784	223	C	08/12/2021	10:45	-136.378	43.154	0	115.00	0	9.0360	0	36.4710	8	28.267	0	114.054	0	255.5	4	92.1	4	-1E+10	1	-1E+10	1	-1E+10	1	-1E+10	1	-1E+10	1	-1E+10	1
4901784	223	C	08/12/2021	10:45	-136.378	43.154	0	117.60	0	8.7780	0	36.4900	8	28.324	0	116.632	0	256.7	4	92.0	4	-1E+10	1	-1E+10	1	-1E+10	1	-1E+10	1	-1E+10	1	-1E+10	1
4901784	223	C	08/12/2021	10:45	-136.378	43.154	0	120.20	0	8.7230	0	36.4700	8	28.318	0	119.210	0	257.2	4	92.1	4	-1E+10	1	-1E+10	1	-1E+10	1	-1E+10	1	-1E+10	1	-1E+10	1
4901784	223	C	08/12/2021	10:45	-136.378	43.154	0	122.70	0	8.7580	0	36.4720	8	28.314	0	121.689	0	256.9	4	92.0	4	-1E+10	1	-1E+10	1	-1E+10	1	-1E+10	1	-1E+10	1	-1E+10	1
4901784	223	C	08/12/2021	10:45	-136.378	43.154	0	125.30	0	8.8000	0	36.5050	8	28.333	0	124.266	0	256.2	4	91.9	4	-1E+10	1	-1E+10	1	-1E+10	1	-1E+10	1	-1E+10	1	-1E+10	1
4901784	223	C	08/12/2021	10:45	-136.378	43.154	0	127.90	0	8.7540	0	36.5200	8	28.352	0	126.844	0	256.4	4	91.9	4	-1E+10	1	-1E+10	1	-1E+10	1	-1E+10	1	-1E+10	1	-1E+10	1
4901784	223	C	08/12/2021	10:45	-136.378	43.154	0	130.50	0	8.6510	0	36.5030	8	28.355	0	129.422	0	256.6	4	91.7	4	-1E+10	1	-1E+10	1	-1E+10	1	-1E+10	1	-1E+10	1	-1E+10	1
4901784	223	C	08/12/2021	10:45	-136.378	43.154	0	132.20	0	8.6220	0	36.5000	8	28.358	0	131.107	0	256.2	4	91.5	4	-1E+10	1	-1E+10	1	-1E+10	1	-1E+10	1	-1E+10	1	-1E+10	1
4901784	223	C	08/12/2021	10:45	-136.378	43.154	0	134.80	0	8.5420	0	36.5120	8	28.380	0	133.685	0	255.6	4	91.2	4	-1E+10	1	-1E+10	1	-1E+10	1	-1E+10	1	-1E+10	1	-1E+10	1
4901784	223	C	08/12/2021	10:45	-136.378	43.154	0	137.30	0	8.4860	0	36.5150	8	28.391	0	136.163	0	254.9	4	90.8	4	-1E+10	1	-1E+10	1	-1E+10	1	-1E+10	1	-1E+10	1	-1E+10	1
4901784	223	C	08/12/2021	10:45	-136.378	43.154	0	140.00	0	8.4220	0	36.5360	8	28.418	0	138.840	0	253.2	4	90.1	4	-1E+10	1	-1E+10	1	-1E+10	1	-1E+10	1	-1E+10	1	-1E+10	1
4901784	223	C	08/12/2021	10:45	-136.378	43.154	0	142.60	0	8.4010	0	36.5350	8	28.420	0	141.418	0	251.1	4	89.3	4	-1E+10	1	-1E+10	1	-1E+10	1	-1E+10	1	-1E+10	1	-1E+10	1
4901784	223	C	08/12/2021	10:45	-136.378	43.154	0	145.10	0	8.3250	0	36.5650	8	28.456	0	143.896	0	247.8	4	88.0	4	-1E+10	1	-1E+10	1	-1E+10	1	-1E+10	1	-1E+10	1	-1E+10	1
4901784	223	C	08/12/2021	10:45	-136.378	43.154	0	147.60	0	8.2690	0	36.6130	8	28.502	0	146.374	0	244.0	4	86.6	4	-1E+10	1	-1E+10	1	-1E+10	1	-1E+10	1	-1E+10	1	-1E+10	1
4901784	223	C	08/12/2021	10:45	-136.378	43.154	0	150.10	0	8.3510	0	36.6510	8	28.519	0	148.853	0	239.1	4	85.0	4	-1E+10	1	-1E+10	1	-1E+10	1	-1E+10	1	-1E+10	1	-1E+10	1
4901784	223	C	08/12/2021	10:45	-136.378	43.154	0	152.70	0	8.4470	0	36.7390	8	28.573	0	151.430	0	233.9	4	83.4	4	-1E+10	1	-1E+10	1	-1E+10	1	-1E+10	1	-1E+10	1	-1E+10	1
4901784	223	C	08/12/2021	10:45	-136.378	43.154	0	154.80	0	8.5470	0	36.7690	8	28.581	0	153.512	0	229.4	4	82.0	4	-1E+10	1	-1E+10	1	-1E+10	1	-1E+10	1	-1E+10	1	-1E+10	1
4901784	223	C	08/12/2021	10:45	-136.378	43.154	0	157.20	0	8.6340	0	36.9000	8	28.670	0	155.891	0	223.4	4	80.0	4	-1E+10	1	-1E+10	1	-1E+10	1	-1E+10	1	-1E+10	1	-1E+10	1
4901784	223	C	08/12/2021	10:45	-136.378	43.154	0	160.10	0	8.7460	0	37.0060	8	28.735	0	158.766	0	216.4	4	77.8	4	-1E+10	1	-1E+10	1	-1E+10	1	-1E+10	1	-1E+10	1	-1E+10	1
4901784	223	C	08/12/2021	10:45	-136.378	43.154	0	162.40	0	8.8740	0	37.0710	8	28.765	0	161.046	0	211.5	4	76.3	4	-1E+10	1	-1E+10	1	-1E+10	1	-1E+10	1	-1E+10	1	-1E+10	1
4901784	223	C	08/12/2021	10:45	-136.378	43.154	0	164.70	0	9.0130	0	37.1580	8	28.811	0	163.326	0	206.9	4	74.9	4	-1E+10	1	-1E+10	1	-1E+10	1	-1E+10	1	-1E+10	1	-1E+10	1
4901784	223	C	08/12/2021	10:45	-136.378	43.154	0	167.80	0	9.0280	0	37.2780	8	28.902	0	166.399	0	202.2	4	73.3	4	-1E+10	1	-1E+10	1	-1E+10	1	-1E+10	1	-1E+10	1	-1E+10	1
4901784	223	C	08/12/2021	10:45	-136.378	43.154	0	170.30	0	8.9800	0	37.3960	8	29.003	0	168.877	0	199.0	4	72.1	4	-1E+10	1	-1E+10	1	-1E+10	1	-1E+10	1	-1E+10	1	-1E+10	1
4901784	223	C	08/12/2021	10:45	-136.378	43.154	0	172.10	0	8.9850	0	37.4740	8	29.063	0	170.661	0	197.2	4	71.5	4	-1E+10	1	-1E+10	1	-1E+10	1	-1E+10	1	-1E+10	1	-1E+10	1
4901784	223	C	08/12/2021	10:45	-136.378	43.154	0	174.70	0	8.9460	0	37.5390	8	29.121	0	173.238	0	195.1	4	70.7	4	-1E+10	1	-1E+10	1	-1E+10	1	-1E+10	1	-1E+10	1	-1E+10	1
4901784	223	C	08/12/2021	10:45	-136.378	43.154	0	177.50	0	8.9230	0	37.5900	8	29.165	0	176.013	0	193.4	4	70.1	4	-1E+10	1	-1E+10	1	-1E+10	1	-1E+10	1	-1E+10	1	-1E+10	1
4901784	223	C	08/12/2021	10:45	-136.378	43.154	0	180.20	0	8.8790	0	37.6550	8	29.223	0	178.690	0	192.2	4	69.6	4	-1E+10	1	-1E+10	1	-1E+10	1	-1E+10	1	-1E+10	1	-1E+10	1
4901784	223	C	08/12/2021	10:45	-136.378	43.154	0	182.80	0	8.8430	0	37.6770	8	29.246	0	181.267	0	191.3	4	69.3	4	-1E+10	1	-1E+10	1	-1E+10	1	-1E+10	1	-1E+10	1	-1E+10	1
4901784	223	C	08/12/2021	10:45	-136.378	43.154	0	185.10	0	8.8390	0	37.7070	8	29.270	0	183.546	0	190.5	4	69.0	4	-1E+10	1	-1E+10	1	-1E+10	1	-1E+10	1	-1E+10	1	-1E+10	1
4901784	223	C	08/12/2021	10:45	-136.378	43.154	0	187.70	0	8.8050	0	37.7540	8	29.313	0	186.123	0	189.6	4	68.6	4	-1E+10	1	-1E+10	1	-1E+10	1	-1E+10	1	-1E+10	1	-1E+10	1
4901784	223	C	08/12/2021	10:45	-136.378	43.154	0	190.00	0	8.7830	0	37.7770	8	29.335	0	188.403	0	189.4	4	68.5	4	-1E+10	1	-1E+10	1	-1E+10	1	-1E+10	1	-1E+10	1	-1E+10	1
4901784	223	C	08/12/2021	10:45	-136.378	43.154	0	192.30	0	8.7250	0	37.7830	8	29.349	0	190.683	0	189.2	4	68.4	4	-1E+10	1	-1E+10	1	-1E+10	1	-1E+10	1	-1E+10	1	-1E+10	1
4901784	223	C	08/12/2021	10:45	-136.378	43.154	0	194.70	0	8.6860	0	37.7880	8	29.359	0	193.061	0	188.7	4	68.1	4	-1E+10	1	-1E+10	1	-1E+10	1	-1E+10	1	-1E+10	1	-1E+10	1
4901784	223	C	08/12/2021	10:45	-136.378	43.154	0	197.20	0	8.6730	0	37.8040	8	29.374	0	195.539	0	188.1	4	67.9	4	-1E+10	1	-1E+10	1	-1E+10	1	-1E+10	1	-1E+10	1	-1E+10	1
4901784	223	C	08/12/2021	10:45	-136.378	43.154	0	199.70	0	8.6480	0	37.8260	8	29.395	0	198.017	0	187.4	4	67.6	4	-1E+10	1	-1E+10	1	-1E+10	1	-1E+10	1	-1E+10	1	-1E+10	1
4901784	223	C	08/12/2021	10:45	-136.378	43.154	0	202.20	0	8.6290	0	37.8350	8	29.406	0	200.495	0	187.0	4	67.5	4	-1E+10	1	-1E+10	1	-1E+10	1	-1E+10	1	-1E+10	1	-1E+10	1
4901784	223	C	08/12/2021	10:45	-136.378	43.154	0	204.70	0	8.6290	0	37.8450	8	29.414	0	202.972	0	186.8	4	67.4	4	-1E+10	1	-1E+10	1	-1E+10	1	-1E+10	1	-1E+10	1	-1E+10	1
4901784	223	C	08/12/2021	10:45	-136.378	43.154	0	207.20	0	8.6060	0	37.8520	8	29.423	0	205.450	0	186.3	4	67.2	4	-1E+10	1	-1E+10	1	-1E+10	1	-1E+10	1	-1E+10	1	-1E+10	1
4901784	223	C	08/12/2021	10:45	-136.378	43.154	0	209.90	0	8.5710	0	37.8630	8	29.437	0	208.126	0	185.6	4	66.9	4	-1E+10	1	-1E+10	1	-1E+10	1	-1E+10	1	-1E+10	1	-1E+10	1
4901784	223	C	08/12/2021	10:45	-136.378	43.154	0	212.50	0	8.5170	0	37.8620	8	29.445	0	210.703	0	184.7	4	66.5	4	-1E+10	1	-1E+10	1	-1E+10	1	-1E+10	1	-1E+10	1	-1E+10	1
4901784	223	C	08/12/2021	10:45	-136.378	43.154	0	215.10	0	8.4270	0	37.8990	8	29.489	0	213.279	0	183.1	4	65.8	4	-1E+10	1	-1E+10	1	-1E+10	1	-1E+10	1	-1E+10	1	-1E+10	1
4901784	223	C	08/12/2021	10:45	-136.378	43.154	0	217.80	0	8.2540	0	37.8570	8	29.484	0	215.955	0	183.2	4	65.6	4	-1E+10	1	-1E+10	1	-1E+10	1	-1E+10	1	-1E+10	1	-1E+10	1
4901784	223	C	08/12/2021	10:45	-136.378	43.154	0	220.50	0	8.1710	0	37.8640	8	29.502	0	218.631	0	183.0	4	65.4	4	-1E+10	1	-1E+10	1	-1E+10	1	-1E+10	1	-1E+10	1	-1E+10	1
4901784	223	C	08/12/2021	10:45	-136.378	43.154	0	222.30	0	8.2350	0	37.8480	8	29.480	0	220.414	0	183.0	4	65.5	4	-1E+10	1	-1E+10	1	-1E+10	1	-1E+10	1	-1E+10	1	-1E+10	1
4901784	223	C	08/12/2021	10:45	-136.378	43.154	0	225.10	0	8.1770	0	37.8700	8	29.506	0	223.189	0	182.0	4	65.0	4	-1E+10	1	-1E+10	1	-1E+10	1	-1E+10	1	-1E+10	1	-1E+10	1
4901784	223	C	08/12/2021	10:45	-136.378	43.154	0	228.00	0	8.1120	0	37.8540	8	29.504	0	226.063	0	181.3	4	64.7	4	-1E+10	1	-1E+10	1	-1E+10	1	-1E+10	1	-1E+10	1	-1E+10	1
4901784	223	C	08/12/2021	10:45	-136.378	43.154	0	229.90	0	7.9870	0	37.8860	8	29.549	0	227.946	0	180.6	4	64.3	4	-1E+10	1	-1E+10	1	-1E+10	1	-1E+10	1	-1E+10	1	-1E+10	1
4901784	223	C	08/12/2021	10:45	-136.378	43.154	0	232.70	0	7.9160	0	37.8770	8	29.553	0	230.720	0	179.9	4	63.9	4	-1E+10	1	-1E+10	1	-1E+10	1	-1E+10	1	-1E+10	1	-1E+10	1
4901784	223	C	08/12/2021	10:45	-136.378	43.154	0	235.40	0	7.8920	0	37.8770	8	29.557	0	233.396	0	178.9	4	63.5	4	-1E+10	1	-1E+10	1	-1E+10	1	-1E+10	1	-1E+10	1	-1E+10	1
4901784	223	C	08/12/2021	10:45	-136.378	43.154	0	237.30	0	7.8750	0	37.8860	8	29.566	0	235.279	0	178.2	4	63.3	4	-1E+10	1	-1E+10	1	-1E+10	1	-1E+10	1	-1E+10	1	-1E+10	1
4901784	223	C	08/12/2021	10:45	-136.378	43.154	0	240.10	0	7.8070	0	37.8870	8	29.578	0	238.053	0	177.1	4	62.8	4	-1E+10	1	-1E+10	1	-1E+10	1	-1E+10	1	-1E+10	1	-1E+10	1
4901784	223	C	08/12/2021	10:45	-136.378	43.154	0	243.00	0	7.7740	0	37.8860	8	29.582	0	240.927	0	175.8	4	62.3	4	-1E+10	1	-1E+10	1	-1E+10	1	-1E+10	1	-1E+10	1	-1E+10	1
4901784	223	C	08/12/2021	10:45	-136.378	43.154	0	244.80	0	7.7550	0	37.8960	8	29.593	0	242.710	0	175.0	4	62.0	4	-1E+10	1	-1E+10	1	-1E+10	1	-1E+10	1	-1E+10	1	-1E+10	1
4901784	223	C	08/12/2021	10:45	-136.378	43.154	0	247.60	0	7.7220	0	37.8960	8	29.598	0	245.485	0	174.4	4	61.7	4	-1E+10	1	-1E+10	1	-1E+10	1	-1E+10	1	-1E+10	1	-1E+10	1
4901784	223	C	08/12/2021	10:45	-136.378	43.154	0	250.40	0	7.6810	0	37.8880	8	29.598	0	248.259	0	173.6	4	61.4	4	-1E+10	1	-1E+10	1	-1E+10	1	-1E+10	1	-1E+10	1	-1E+10	1
4901784	223	C	08/12/2021	10:45	-136.378	43.154	0	252.20	0	7.6800	0	37.8940	8	29.603	0	250.043	0	173.3	4	61.2	4	-1E+10	1	-1E+10	1	-1E+10	1	-1E+10	1	-1E+10	1	-1E+10	1
4901784	223	C	08/12/2021	10:45	-136.378	43.154	0	255.00	0	7.6360	0	37.9060	8	29.619	0	252.817	0	172.6	4	60.9	4	-1E+10	1	-1E+10	1	-1E+10	1	-1E+10	1	-1E+10	1	-1E+10	1
4901784	223	C	08/12/2021	10:45	-136.378	43.154	0	257.80	0	7.5830	0	37.8920	8	29.616	0	255.591	0	172.0	4	60.7	4	-1E+10	1	-1E+10	1	-1E+10	1	-1E+10	1	-1E+10	1	-1E+10	1
4901784	223	C	08/12/2021	10:45	-136.378	43.154	0	259.70	0	7.5610	0	37.8980	8	29.624	0	257.474	0	171.0	4	60.3	4	-1E+10	1	-1E+10	1	-1E+10	1	-1E+10	1	-1E+10	1	-1E+10	1
4901784	223	C	08/12/2021	10:45	-136.378	43.154	0	262.50	0	7.5440	0	37.9000	8	29.629	0	260.248	0	169.4	4	59.7	4	-1E+10	1	-1E+10	1	-1E+10	1	-1E+10	1	-1E+10	1	-1E+10	1
4901784	223	C	08/12/2021	10:45	-136.378	43.154	0	265.40	0	7.5100	0	37.9050	8	29.638	0	263.121	0	168.2	4	59.2	4	-1E+10	1	-1E+10	1	-1E+10	1	-1E+10	1	-1E+10	1	-1E+10	1
4901784	223	C	08/12/2021	10:45	-136.378	43.154	0	267.30	0	7.5040	0	37.9040	8	29.638	0	265.004	0	167.3	4	58.9	4	-1E+10	1	-1E+10	1	-1E+10	1	-1E+10	1	-1E+10	1	-1E+10	1
4901784	223	C	08/12/2021	10:45	-136.378	43.154	0	270.10	0	7.4710	0	37.9160	8	29.652	0	267.778	0	165.3	4	58.2	4	-1E+10	1	-1E+10	1	-1E+10	1	-1E+10	1	-1E+10	1	-1E+10	1
4901784	223	C	08/12/2021	10:45	-136.378	43.154	0	272.80	0	7.4500	0	37.9160	8	29.655	0	270.453	0	163.6	4	57.6	4	-1E+10	1	-1E+10	1	-1E+10	1	-1E+10	1	-1E+10	1	-1E+10	1
4901784	223	C	08/12/2021	10:45	-136.378	43.154	0	274.70	0	7.4010	0	37.9140	8	29.661	0	272.335	0	162.7	4	57.2	4	-1E+10	1	-1E+10	1	-1E+10	1	-1E+10	1	-1E+10	1	-1E+10	1
4901784	223	C	08/12/2021	10:45	-136.378	43.154	0	277.50	0	7.3590	0	37.9210	8	29.673	0	275.109	0	160.6	4	56.4	4	-1E+10	1	-1E+10	1	-1E+10	1	-1E+10	1	-1E+10	1	-1E+10	1
4901784	223	C	08/12/2021	10:45	-136.378	43.154	0	280.40	0	7.3060	0	37.9350	8	29.692	0	277.983	0	158.6	4	55.6	4	-1E+10	1	-1E+10	1	-1E+10	1	-1E+10	1	-1E+10	1	-1E+10	1
4901784	223	C	08/12/2021	10:45	-136.378	43.154	0	282.20	0	7.2750	0	37.9330	8	29.695	0	279.766	0	157.5	4	55.2	4	-1E+10	1	-1E+10	1	-1E+10	1	-1E+10	1	-1E+10	1	-1E+10	1
4901784	223	C	08/12/2021	10:45	-136.378	43.154	0	285.00	0	7.2550	0	37.9370	8	29.701	0	282.540	0	155.9	4	54.6	4	-1E+10	1	-1E+10	1	-1E+10	1	-1E+10	1	-1E+10	1	-1E+10	1
4901784	223	C	08/12/2021	10:45	-136.378	43.154	0	287.70	0	7.2160	0	37.9420	8	29.711	0	285.215	0	154.2	4	54.0	4	-1E+10	1	-1E+10	1	-1E+10	1	-1E+10	1	-1E+10	1	-1E+10	1
4901784	223	C	08/12/2021	10:45	-136.378	43.154	0	289.60	0	7.1970	0	37.9440	8	29.716	0	287.097	0	153.1	4	53.5	4	-1E+10	1	-1E+10	1	-1E+10	1	-1E+10	1	-1E+10	1	-1E+10	1
4901784	223	C	08/12/2021	10:45	-136.378	43.154	0	292.40	0	7.1750	0	37.9420	8	29.717	0	289.871	0	151.0	4	52.8	4	-1E+10	1	-1E+10	1	-1E+10	1	-1E+10	1	-1E+10	1	-1E+10	1
4901784	223	C	08/12/2021	10:45	-136.378	43.154	0	295.20	0	7.0860	0	37.9630	8	29.747	0	292.645	0	148.4	4	51.8	4	-1E+10	1	-1E+10	1	-1E+10	1	-1E+10	1	-1E+10	1	-1E+10	1
4901784	223	C	08/12/2021	10:45	-136.378	43.154	0	297.10	0	7.0420	0	37.9590	8	29.750	0	294.527	0	147.1	4	51.3	4	-1E+10	1	-1E+10	1	-1E+10	1	-1E+10	1	-1E+10	1	-1E+10	1
4901784	223	C	08/12/2021	10:45	-136.378	43.154	0	299.90	0	6.9890	0	37.9620	8	29.761	0	297.300	0	145.3	4	50.6	4	-1E+10	1	-1E+10	1	-1E+10	1	-1E+10	1	-1E+10	1	-1E+10	1
4901784	223	C	08/12/2021	10:45	-136.378	43.154	0	302.70	0	6.9320	0	37.9650	8	29.771	0	300.074	0	143.5	4	49.9	4	-1E+10	1	-1E+10	1	-1E+10	1	-1E+10	1	-1E+10	1	-1E+10	1
4901784	223	C	08/12/2021	10:45	-136.378	43.154	0	304.60	0	6.8970	0	37.9710	8	29.781	0	301.956	0	142.4	4	49.5	4	-1E+10	1	-1E+10	1	-1E+10	1	-1E+10	1	-1E+10	1	-1E+10	1
4901784	223	C	08/12/2021	10:45	-136.378	43.154	0	307.40	0	6.8680	0	37.9690	8	29.784	0	304.730	0	140.8	4	48.9	4	-1E+10	1	-1E+10	1	-1E+10	1	-1E+10	1	-1E+10	1	-1E+10	1
4901784	223	C	08/12/2021	10:45	-136.378	43.154	0	310.20	0	6.8570	0	37.9770	8	29.792	0	307.504	0	139.1	4	48.3	4	-1E+10	1	-1E+10	1	-1E+10	1	-1E+10	1	-1E+10	1	-1E+10	1
4901784	223	C	08/12/2021	10:45	-136.378	43.154	0	312.10	0	6.8200	0	37.9820	8	29.801	0	309.386	0	138.5	4	48.1	4	-1E+10	1	-1E+10	1	-1E+10	1	-1E+10	1	-1E+10	1	-1E+10	1
4901784	223	C	08/12/2021	10:45	-136.378	43.154	0	314.90	0	6.7760	0	37.9770	8	29.803	0	312.159	0	137.1	4	47.5	4	-1E+10	1	-1E+10	1	-1E+10	1	-1E+10	1	-1E+10	1	-1E+10	1
4901784	223	C	08/12/2021	10:45	-136.378	43.154	0	317.70	0	6.7390	0	37.9760	8	29.808	0	314.933	0	135.7	4	47.0	4	-1E+10	1	-1E+10	1	-1E+10	1	-1E+10	1	-1E+10	1	-1E+10	1
4901784	223	C	08/12/2021	10:45	-136.378	43.154	0	319.50	0	6.6830	0	37.9840	8	29.822	0	316.716	0	135.1	4	46.7	4	-1E+10	1	-1E+10	1	-1E+10	1	-1E+10	1	-1E+10	1	-1E+10	1
4901784	223	C	08/12/2021	10:45	-136.378	43.154	0	322.30	0	6.6190	0	37.9770	8	29.826	0	319.489	0	133.8	4	46.2	4	-1E+10	1	-1E+10	1	-1E+10	1	-1E+10	1	-1E+10	1	-1E+10	1
4901784	223	C	08/12/2021	10:45	-136.378	43.154	0	325.10	0	6.5590	0	37.9830	8	29.839	0	322.262	0	132.2	4	45.6	4	-1E+10	1	-1E+10	1	-1E+10	1	-1E+10	1	-1E+10	1	-1E+10	1
4901784	223	C	08/12/2021	10:45	-136.378	43.154	0	326.90	0	6.5110	0	37.9890	8	29.851	0	324.045	0	131.2	4	45.2	4	-1E+10	1	-1E+10	1	-1E+10	1	-1E+10	1	-1E+10	1	-1E+10	1
4901784	223	C	08/12/2021	10:45	-136.378	43.154	0	329.70	0	6.5010	0	37.9830	8	29.847	0	326.819	0	130.0	4	44.8	4	-1E+10	1	-1E+10	1	-1E+10	1	-1E+10	1	-1E+10	1	-1E+10	1
4901784	223	C	08/12/2021	10:45	-136.378	43.154	0	332.50	0	6.4720	0	37.9890	8	29.856	0	329.592	0	128.9	4	44.4	4	-1E+10	1	-1E+10	1	-1E+10	1	-1E+10	1	-1E+10	1	-1E+10	1
4901784	223	C	08/12/2021	10:45	-136.378	43.154	0	335.20	0	6.4330	0	37.9880	8	29.861	0	332.266	0	128.1	4	44.1	4	-1E+10	1	-1E+10	1	-1E+10	1	-1E+10	1	-1E+10	1	-1E+10	1
4901784	223	C	08/12/2021	10:45	-136.378	43.154	0	338.00	0	6.4270	0	37.9870	8	29.861	0	335.039	0	127.1	4	43.7	4	-1E+10	1	-1E+10	1	-1E+10	1	-1E+10	1	-1E+10	1	-1E+10	1
4901784	223	C	08/12/2021	10:45	-136.378	43.154	0	339.90	0	6.4200	0	37.9910	8	29.865	0	336.921	0	126.0	4	43.3	4	-1E+10	1	-1E+10	1	-1E+10	1	-1E+10	1	-1E+10	1	-1E+10	1
4901784	223	C	08/12/2021	10:45	-136.378	43.154	0	342.70	0	6.4180	0	37.9960	8	29.869	0	339.694	0	124.1	4	42.7	4	-1E+10	1	-1E+10	1	-1E+10	1	-1E+10	1	-1E+10	1	-1E+10	1
4901784	223	C	08/12/2021	10:45	-136.378	43.154	0	345.50	0	6.4000	0	37.9980	8	29.874	0	342.468	0	122.9	4	42.2	4	-1E+10	1	-1E+10	1	-1E+10	1	-1E+10	1	-1E+10	1	-1E+10	1
4901784	223	C	08/12/2021	10:45	-136.378	43.154	0	347.30	0	6.3930	0	37.9970	8	29.874	0	344.250	0	122.1	4	42.0	4	-1E+10	1	-1E+10	1	-1E+10	1	-1E+10	1	-1E+10	1	-1E+10	1
4901784	223	C	08/12/2021	10:45	-136.378	43.154	0	350.10	0	6.3460	0	38.0030	8	29.885	0	347.023	0	120.6	4	41.4	4	-1E+10	1	-1E+10	1	-1E+10	1	-1E+10	1	-1E+10	1	-1E+10	1
4901784	223	C	08/12/2021	10:45	-136.378	43.154	0	352.90	0	6.3060	0	38.0040	8	29.892	0	349.796	0	119.1	4	40.9	4	-1E+10	1	-1E+10	1	-1E+10	1	-1E+10	1	-1E+10	1	-1E+10	1
4901784	223	C	08/12/2021	10:45	-136.378	43.154	0	354.80	0	6.2630	0	38.0040	8	29.897	0	351.678	0	118.2	4	40.5	4	-1E+10	1	-1E+10	1	-1E+10	1	-1E+10	1	-1E+10	1	-1E+10	1
4901784	223	C	08/12/2021	10:45	-136.378	43.154	0	357.60	0	6.2430	0	38.0050	8	29.901	0	354.451	0	117.1	4	40.1	4	-1E+10	1	-1E+10	1	-1E+10	1	-1E+10	1	-1E+10	1	-1E+10	1
4901784	223	C	08/12/2021	10:45	-136.378	43.154	0	360.90	0	6.2070	0	38.0110	8	29.911	0	357.719	0	115.7	4	39.6	4	-1E+10	1	-1E+10	1	-1E+10	1	-1E+10	1	-1E+10	1	-1E+10	1
4901784	223	C	08/12/2021	10:45	-136.378	43.154	0	362.80	0	6.1680	0	38.0170	8	29.921	0	359.601	0	114.8	4	39.2	4	-1E+10	1	-1E+10	1	-1E+10	1	-1E+10	1	-1E+10	1	-1E+10	1
4901784	223	C	08/12/2021	10:45	-136.378	43.154	0	365.20	0	6.1310	0	38.0130	8	29.923	0	361.977	0	113.8	4	38.9	4	-1E+10	1	-1E+10	1	-1E+10	1	-1E+10	1	-1E+10	1	-1E+10	1
4901784	223	C	08/12/2021	10:45	-136.378	43.154	0	367.60	0	6.1190	0	38.0100	8	29.922	0	364.354	0	112.7	4	38.5	4	-1E+10	1	-1E+10	1	-1E+10	1	-1E+10	1	-1E+10	1	-1E+10	1
4901784	223	C	08/12/2021	10:45	-136.378	43.154	0	370.00	0	6.0710	0	38.0160	8	29.933	0	366.731	0	111.3	4	38.0	4	-1E+10	1	-1E+10	1	-1E+10	1	-1E+10	1	-1E+10	1	-1E+10	1
4901784	223	C	08/12/2021	10:45	-136.378	43.154	0	372.50	0	6.0350	0	38.0200	8	29.942	0	369.206	0	110.0	4	37.5	4	-1E+10	1	-1E+10	1	-1E+10	1	-1E+10	1	-1E+10	1	-1E+10	1
4901784	223	C	08/12/2021	10:45	-136.378	43.154	0	375.00	0	6.0140	0	38.0160	8	29.941	0	371.682	0	108.6	4	37.0	4	-1E+10	1	-1E+10	1	-1E+10	1	-1E+10	1	-1E+10	1	-1E+10	1
4901784	223	C	08/12/2021	10:45	-136.378	43.154	0	377.40	0	5.9810	0	38.0200	8	29.949	0	374.059	0	107.3	4	36.5	4	-1E+10	1	-1E+10	1	-1E+10	1	-1E+10	1	-1E+10	1	-1E+10	1
4901784	223	C	08/12/2021	10:45	-136.378	43.154	0	379.90	0	5.9390	0	38.0190	8	29.954	0	376.534	0	106.1	4	36.1	4	-1E+10	1	-1E+10	1	-1E+10	1	-1E+10	1	-1E+10	1	-1E+10	1
4901784	223	C	08/12/2021	10:45	-136.378	43.154	0	382.30	0	5.9120	0	38.0230	8	29.961	0	378.911	0	104.8	4	35.6	4	-1E+10	1	-1E+10	1	-1E+10	1	-1E+10	1	-1E+10	1	-1E+10	1
4901784	223	C	08/12/2021	10:45	-136.378	43.154	0	384.80	0	5.8570	0	38.0240	8	29.969	0	381.386	0	103.6	4	35.2	4	-1E+10	1	-1E+10	1	-1E+10	1	-1E+10	1	-1E+10	1	-1E+10	1
4901784	223	C	08/12/2021	10:45	-136.378	43.154	0	387.20	0	5.8380	0	38.0220	8	29.970	0	383.763	0	102.1	4	34.6	4	-1E+10	1	-1E+10	1	-1E+10	1	-1E+10	1	-1E+10	1	-1E+10	1
4901784	223	C	08/12/2021	10:45	-136.378	43.154	0	389.70	0	5.8030	0	38.0290	8	29.980	0	386.238	0	100.2	4	34.0	4	-1E+10	1	-1E+10	1	-1E+10	1	-1E+10	1	-1E+10	1	-1E+10	1
4901784	223	C	08/12/2021	10:45	-136.378	43.154	0	392.20	0	5.7680	0	38.0250	8	29.982	0	388.714	0	98.7	4	33.4	4	-1E+10	1	-1E+10	1	-1E+10	1	-1E+10	1	-1E+10	1	-1E+10	1
4901784	223	C	08/12/2021	10:45	-136.378	43.154	0	394.60	0	5.7320	0	38.0350	8	29.994	0	391.090	0	97.4	4	33.0	4	-1E+10	1	-1E+10	1	-1E+10	1	-1E+10	1	-1E+10	1	-1E+10	1
4901784	223	C	08/12/2021	10:45	-136.378	43.154	0	397.20	0	5.7160	0	38.0310	8	29.993	0	393.665	0	96.6	4	32.7	4	-1E+10	1	-1E+10	1	-1E+10	1	-1E+10	1	-1E+10	1	-1E+10	1
4901784	223	C	08/12/2021	10:45	-136.378	43.154	0	399.80	0	5.7030	0	38.0300	8	29.994	0	396.239	0	95.5	4	32.3	4	-1E+10	1	-1E+10	1	-1E+10	1	-1E+10	1	-1E+10	1	-1E+10	1
4901784	223	C	08/12/2021	10:45	-136.378	43.154	0	402.30	0	5.6770	0	38.0310	8	29.998	0	398.714	0	94.0	4	31.8	4	-1E+10	1	-1E+10	1	-1E+10	1	-1E+10	1	-1E+10	1	-1E+10	1
4901784	223	C	08/12/2021	10:45	-136.378	43.154	0	404.90	0	5.6190	0	38.0450	8	30.017	0	401.289	0	92.4	4	31.2	4	-1E+10	1	-1E+10	1	-1E+10	1	-1E+10	1	-1E+10	1	-1E+10	1
4901784	223	C	08/12/2021	10:45	-136.378	43.154	0	407.40	0	5.5980	0	38.0400	8	30.016	0	403.764	0	90.9	4	30.7	4	-1E+10	1	-1E+10	1	-1E+10	1	-1E+10	1	-1E+10	1	-1E+10	1
4901784	223	C	08/12/2021	10:45	-136.378	43.154	0	410.00	0	5.5640	0	38.0430	8	30.023	0	406.338	0	89.2	4	30.1	4	-1E+10	1	-1E+10	1	-1E+10	1	-1E+10	1	-1E+10	1	-1E+10	1
4901784	223	C	08/12/2021	10:45	-136.378	43.154	0	412.70	0	5.5410	0	38.0420	8	30.025	0	409.011	0	87.6	4	29.5	4	-1E+10	1	-1E+10	1	-1E+10	1	-1E+10	1	-1E+10	1	-1E+10	1
4901784	223	C	08/12/2021	10:45	-136.378	43.154	0	415.30	0	5.5150	0	38.0490	8	30.034	0	411.586	0	85.8	4	28.9	4	-1E+10	1	-1E+10	1	-1E+10	1	-1E+10	1	-1E+10	1	-1E+10	1
4901784	223	C	08/12/2021	10:45	-136.378	43.154	0	417.90	0	5.4720	0	38.0470	8	30.038	0	414.160	0	84.1	4	28.3	4	-1E+10	1	-1E+10	1	-1E+10	1	-1E+10	1	-1E+10	1	-1E+10	1
4901784	223	C	08/12/2021	10:45	-136.378	43.154	0	419.60	0	5.4480	0	38.0550	8	30.047	0	415.843	0	83.2	4	28.0	4	-1E+10	1	-1E+10	1	-1E+10	1	-1E+10	1	-1E+10	1	-1E+10	1
4901784	223	C	08/12/2021	10:45	-136.378	43.154	0	422.40	0	5.4150	0	38.0550	8	30.052	0	418.615	0	82.5	4	27.7	4	-1E+10	1	-1E+10	1	-1E+10	1	-1E+10	1	-1E+10	1	-1E+10	1
4901784	223	C	08/12/2021	10:45	-136.378	43.154	0	425.00	0	5.4030	0	38.0540	8	30.053	0	421.189	0	82.0	4	27.5	4	-1E+10	1	-1E+10	1	-1E+10	1	-1E+10	1	-1E+10	1	-1E+10	1
4901784	223	C	08/12/2021	10:45	-136.378	43.154	0	427.60	0	5.3890	0	38.0560	8	30.056	0	423.763	0	81.1	4	27.2	4	-1E+10	1	-1E+10	1	-1E+10	1	-1E+10	1	-1E+10	1	-1E+10	1
4901784	223	C	08/12/2021	10:45	-136.378	43.154	0	430.20	0	5.3720	0	38.0550	8	30.057	0	426.337	0	80.1	4	26.9	4	-1E+10	1	-1E+10	1	-1E+10	1	-1E+10	1	-1E+10	1	-1E+10	1
4901784	223	C	08/12/2021	10:45	-136.378	43.154	0	432.00	0	5.3650	0	38.0570	8	30.060	0	428.119	0	79.4	4	26.7	4	-1E+10	1	-1E+10	1	-1E+10	1	-1E+10	1	-1E+10	1	-1E+10	1
4901784	223	C	08/12/2021	10:45	-136.378	43.154	0	434.70	0	5.3280	0	38.0630	8	30.069	0	430.792	0	78.3	4	26.3	4	-1E+10	1	-1E+10	1	-1E+10	1	-1E+10	1	-1E+10	1	-1E+10	1
4901784	223	C	08/12/2021	10:45	-136.378	43.154	0	437.40	0	5.3090	0	38.0610	8	30.070	0	433.465	0	77.6	4	26.0	4	-1E+10	1	-1E+10	1	-1E+10	1	-1E+10	1	-1E+10	1	-1E+10	1
4901784	223	C	08/12/2021	10:45	-136.378	43.154	0	440.10	0	5.2870	0	38.0630	8	30.075	0	436.138	0	77.0	4	25.8	4	-1E+10	1	-1E+10	1	-1E+10	1	-1E+10	1	-1E+10	1	-1E+10	1
4901784	223	C	08/12/2021	10:45	-136.378	43.154	0	442.90	0	5.2650	0	38.0650	8	30.079	0	438.910	0	76.6	4	25.7	4	-1E+10	1	-1E+10	1	-1E+10	1	-1E+10	1	-1E+10	1	-1E+10	1
4901784	223	C	08/12/2021	10:45	-136.378	43.154	0	444.70	0	5.2570	0	38.0720	8	30.086	0	440.691	0	76.5	4	25.6	4	-1E+10	1	-1E+10	1	-1E+10	1	-1E+10	1	-1E+10	1	-1E+10	1
4901784	223	C	08/12/2021	10:45	-136.378	43.154	0	447.40	0	5.2200	0	38.0750	8	30.093	0	443.364	0	75.7	4	25.3	4	-1E+10	1	-1E+10	1	-1E+10	1	-1E+10	1	-1E+10	1	-1E+10	1
4901784	223	C	08/12/2021	10:45	-136.378	43.154	0	450.20	0	5.1950	0	38.0750	8	30.096	0	446.136	0	74.8	4	25.0	4	-1E+10	1	-1E+10	1	-1E+10	1	-1E+10	1	-1E+10	1	-1E+10	1
4901784	223	C	08/12/2021	10:45	-136.378	43.154	0	452.00	0	5.1900	0	38.0740	8	30.096	0	447.918	0	74.1	4	24.8	4	-1E+10	1	-1E+10	1	-1E+10	1	-1E+10	1	-1E+10	1	-1E+10	1
4901784	223	C	08/12/2021	10:45	-136.378	43.154	0	454.70	0	5.1610	0	38.0820	8	30.106	0	450.590	0	72.9	4	24.4	4	-1E+10	1	-1E+10	1	-1E+10	1	-1E+10	1	-1E+10	1	-1E+10	1
4901784	223	C	08/12/2021	10:45	-136.378	43.154	0	457.50	0	5.1380	0	38.0830	8	30.110	0	453.362	0	72.0	4	24.1	4	-1E+10	1	-1E+10	1	-1E+10	1	-1E+10	1	-1E+10	1	-1E+10	1
4901784	223	C	08/12/2021	10:45	-136.378	43.154	0	459.50	0	5.1220	0	38.0860	8	30.114	0	455.342	0	71.3	4	23.8	4	-1E+10	1	-1E+10	1	-1E+10	1	-1E+10	1	-1E+10	1	-1E+10	1
4901784	223	C	08/12/2021	10:45	-136.378	43.154	0	462.30	0	5.0930	0	38.0890	8	30.120	0	458.113	0	70.2	4	23.4	4	-1E+10	1	-1E+10	1	-1E+10	1	-1E+10	1	-1E+10	1	-1E+10	1
4901784	223	C	08/12/2021	10:45	-136.378	43.154	0	465.70	0	5.0790	0	38.0910	8	30.123	0	461.479	0	69.2	4	23.1	4	-1E+10	1	-1E+10	1	-1E+10	1	-1E+10	1	-1E+10	1	-1E+10	1
4901784	223	C	08/12/2021	10:45	-136.378	43.154	0	467.60	0	5.0550	0	38.0920	8	30.127	0	463.360	0	68.4	4	22.8	4	-1E+10	1	-1E+10	1	-1E+10	1	-1E+10	1	-1E+10	1	-1E+10	1
4901784	223	C	08/12/2021	10:45	-136.378	43.154	0	470.00	0	5.0340	0	38.0980	8	30.135	0	465.735	0	67.1	4	22.4	4	-1E+10	1	-1E+10	1	-1E+10	1	-1E+10	1	-1E+10	1	-1E+10	1
4901784	223	C	08/12/2021	10:45	-136.378	43.154	0	472.40	0	5.0140	0	38.1000	8	30.139	0	468.111	0	66.1	4	22.0	4	-1E+10	1	-1E+10	1	-1E+10	1	-1E+10	1	-1E+10	1	-1E+10	1
4901784	223	C	08/12/2021	10:45	-136.378	43.154	0	474.80	0	5.0010	0	38.1040	8	30.143	0	470.486	0	65.1	4	21.7	4	-1E+10	1	-1E+10	1	-1E+10	1	-1E+10	1	-1E+10	1	-1E+10	1
4901784	223	C	08/12/2021	10:45	-136.378	43.154	0	477.30	0	4.9810	0	38.1070	8	30.148	0	472.960	0	64.1	4	21.3	4	-1E+10	1	-1E+10	1	-1E+10	1	-1E+10	1	-1E+10	1	-1E+10	1
4901784	223	C	08/12/2021	10:45	-136.378	43.154	0	479.70	0	4.9620	0	38.1110	8	30.154	0	475.336	0	63.2	4	21.0	4	-1E+10	1	-1E+10	1	-1E+10	1	-1E+10	1	-1E+10	1	-1E+10	1
4901784	223	C	08/12/2021	10:45	-136.378	43.154	0	482.20	0	4.9410	0	38.1140	8	30.159	0	477.810	0	62.4	4	20.8	4	-1E+10	1	-1E+10	1	-1E+10	1	-1E+10	1	-1E+10	1	-1E+10	1
4901784	223	C	08/12/2021	10:45	-136.378	43.154	0	484.70	0	4.9310	0	38.1160	8	30.162	0	480.285	0	61.7	4	20.5	4	-1E+10	1	-1E+10	1	-1E+10	1	-1E+10	1	-1E+10	1	-1E+10	1
4901784	223	C	08/12/2021	10:45	-136.378	43.154	0	487.20	0	4.9190	0	38.1160	8	30.163	0	482.759	0	60.9	4	20.3	4	-1E+10	1	-1E+10	1	-1E+10	1	-1E+10	1	-1E+10	1	-1E+10	1
4901784	223	C	08/12/2021	10:45	-136.378	43.154	0	489.70	0	4.8980	0	38.1260	8	30.174	0	485.233	0	60.1	4	20.0	4	-1E+10	1	-1E+10	1	-1E+10	1	-1E+10	1	-1E+10	1	-1E+10	1
4901784	223	C	08/12/2021	10:45	-136.378	43.154	0	492.20	0	4.8850	0	38.1240	8	30.174	0	487.708	0	59.6	4	19.8	4	-1E+10	1	-1E+10	1	-1E+10	1	-1E+10	1	-1E+10	1	-1E+10	1
4901784	223	C	08/12/2021	10:45	-136.378	43.154	0	494.80	0	4.8640	0	38.1270	8	30.179	0	490.281	0	59.0	4	19.6	4	-1E+10	1	-1E+10	1	-1E+10	1	-1E+10	1	-1E+10	1	-1E+10	1
4901784	223	C	08/12/2021	10:45	-136.378	43.154	0	497.30	0	4.8470	0	38.1290	8	30.183	0	492.755	0	58.3	4	19.4	4	-1E+10	1	-1E+10	1	-1E+10	1	-1E+10	1	-1E+10	1	-1E+10	1
4901784	223	C	08/12/2021	10:45	-136.378	43.154	0	499.90	0	4.8410	0	38.1330	8	30.186	0	495.328	0	57.7	4	19.1	4	-1E+10	1	-1E+10	1	-1E+10	1	-1E+10	1	-1E+10	1	-1E+10	1
4901784	223	C	08/12/2021	10:45	-136.378	43.154	0	505.10	0	4.8030	0	38.1400	8	30.197	0	500.474	0	57.3	4	19.0	4	-1E+10	1	-1E+10	1	-1E+10	1	-1E+10	1	-1E+10	1	-1E+10	1
4901784	223	C	08/12/2021	10:45	-136.378	43.154	0	509.30	0	4.7910	0	38.1400	8	30.198	0	504.631	0	56.1	4	18.6	4	-1E+10	1	-1E+10	1	-1E+10	1	-1E+10	1	-1E+10	1	-1E+10	1
4901784	223	C	08/12/2021	10:45	-136.378	43.154	0	514.40	0	4.7680	0	38.1460	8	30.206	0	509.678	0	54.8	4	18.2	4	-1E+10	1	-1E+10	1	-1E+10	1	-1E+10	1	-1E+10	1	-1E+10	1
4901784	223	C	08/12/2021	10:45	-136.378	43.154	0	519.60	0	4.7530	0	38.1510	8	30.212	0	514.824	0	53.5	4	17.7	4	-1E+10	1	-1E+10	1	-1E+10	1	-1E+10	1	-1E+10	1	-1E+10	1
4901784	223	C	08/12/2021	10:45	-136.378	43.154	0	524.70	0	4.7310	0	38.1580	8	30.220	0	519.870	0	52.2	4	17.3	4	-1E+10	1	-1E+10	1	-1E+10	1	-1E+10	1	-1E+10	1	-1E+10	1
4901784	223	C	08/12/2021	10:45	-136.378	43.154	0	529.90	0	4.7200	0	38.1660	8	30.228	0	525.016	0	50.9	4	16.8	4	-1E+10	1	-1E+10	1	-1E+10	1	-1E+10	1	-1E+10	1	-1E+10	1
4901784	223	C	08/12/2021	10:45	-136.378	43.154	0	535.10	0	4.6930	0	38.1720	8	30.236	0	530.161	0	49.8	4	16.5	4	-1E+10	1	-1E+10	1	-1E+10	1	-1E+10	1	-1E+10	1	-1E+10	1
4901784	223	C	08/12/2021	10:45	-136.378	43.154	0	540.30	0	4.6780	0	38.1760	8	30.241	0	535.307	0	48.4	4	16.0	4	-1E+10	1	-1E+10	1	-1E+10	1	-1E+10	1	-1E+10	1	-1E+10	1
4901784	223	C	08/12/2021	10:45	-136.378	43.154	0	545.50	0	4.6660	0	38.1830	8	30.248	0	540.452	0	46.5	4	15.4	4	-1E+10	1	-1E+10	1	-1E+10	1	-1E+10	1	-1E+10	1	-1E+10	1
4901784	223	C	08/12/2021	10:45	-136.378	43.154	0	550.00	0	4.6560	0	38.1910	8	30.256	0	544.904	0	44.9	4	14.8	4	-1E+10	1	-1E+10	1	-1E+10	1	-1E+10	1	-1E+10	1	-1E+10	1
4901784	223	C	08/12/2021	10:45	-136.378	43.154	0	554.50	0	4.6390	0	38.1980	8	30.263	0	549.357	0	43.4	4	14.3	4	-1E+10	1	-1E+10	1	-1E+10	1	-1E+10	1	-1E+10	1	-1E+10	1
4901784	223	C	08/12/2021	10:45	-136.378	43.154	0	559.90	0	4.6210	0	38.2050	8	30.271	0	554.699	0	42.1	4	13.9	4	-1E+10	1	-1E+10	1	-1E+10	1	-1E+10	1	-1E+10	1	-1E+10	1
4901784	223	C	08/12/2021	10:45	-136.378	43.154	0	565.30	0	4.5930	0	38.2120	8	30.280	0	560.042	0	41.1	4	13.6	4	-1E+10	1	-1E+10	1	-1E+10	1	-1E+10	1	-1E+10	1	-1E+10	1
4901784	223	C	08/12/2021	10:45	-136.378	43.154	0	569.90	0	4.5570	0	38.2130	8	30.285	0	564.593	0	40.0	4	13.2	4	-1E+10	1	-1E+10	1	-1E+10	1	-1E+10	1	-1E+10	1	-1E+10	1
4901784	223	C	08/12/2021	10:45	-136.378	43.154	0	574.50	0	4.5880	0	38.2230	8	30.289	0	569.144	0	38.7	4	12.8	4	-1E+10	1	-1E+10	1	-1E+10	1	-1E+10	1	-1E+10	1	-1E+10	1
4901784	223	C	08/12/2021	10:45	-136.378	43.154	0	580.10	0	4.5750	0	38.2260	8	30.293	0	574.684	0	38.4	4	12.7	4	-1E+10	1	-1E+10	1	-1E+10	1	-1E+10	1	-1E+10	1	-1E+10	1
4901784	223	C	08/12/2021	10:45	-136.378	43.154	0	584.80	0	4.5360	0	38.2310	8	30.302	0	579.333	0	37.8	4	12.5	4	-1E+10	1	-1E+10	1	-1E+10	1	-1E+10	1	-1E+10	1	-1E+10	1
4901784	223	C	08/12/2021	10:45	-136.378	43.154	0	589.50	0	4.5190	0	38.2330	8	30.306	0	583.983	0	36.9	4	12.2	4	-1E+10	1	-1E+10	1	-1E+10	1	-1E+10	1	-1E+10	1	-1E+10	1
4901784	223	C	08/12/2021	10:45	-136.378	43.154	0	595.20	0	4.4840	0	38.2380	8	30.314	0	589.621	0	36.6	4	12.1	4	-1E+10	1	-1E+10	1	-1E+10	1	-1E+10	1	-1E+10	1	-1E+10	1
4901784	223	C	08/12/2021	10:45	-136.378	43.154	0	600.00	0	4.4550	0	38.2400	8	30.319	0	594.370	0	36.5	4	12.0	4	-1E+10	1	-1E+10	1	-1E+10	1	-1E+10	1	-1E+10	1	-1E+10	1
4901784	223	C	08/12/2021	10:45	-136.378	43.154	0	604.60	0	4.4530	0	38.2420	8	30.321	0	598.920	0	35.8	4	11.8	4	-1E+10	1	-1E+10	1	-1E+10	1	-1E+10	1	-1E+10	1	-1E+10	1
4901784	223	C	08/12/2021	10:45	-136.378	43.154	0	609.90	0	4.4280	0	38.2540	8	30.333	0	604.162	0	36.3	4	11.9	4	-1E+10	1	-1E+10	1	-1E+10	1	-1E+10	1	-1E+10	1	-1E+10	1
4901784	223	C	08/12/2021	10:45	-136.378	43.154	0	614.60	0	4.3910	0	38.2520	8	30.336	0	608.811	0	34.9	4	11.5	4	-1E+10	1	-1E+10	1	-1E+10	1	-1E+10	1	-1E+10	1	-1E+10	1
4901784	223	C	08/12/2021	10:45	-136.378	43.154	0	619.40	0	4.4040	0	38.2650	8	30.345	0	613.559	0	33.0	4	10.9	4	-1E+10	1	-1E+10	1	-1E+10	1	-1E+10	1	-1E+10	1	-1E+10	1
4901784	223	C	08/12/2021	10:45	-136.378	43.154	0	624.30	0	4.4040	0	38.2650	8	30.345	0	618.405	0	30.4	4	10.0	4	-1E+10	1	-1E+10	1	-1E+10	1	-1E+10	1	-1E+10	1	-1E+10	1
4901784	223	C	08/12/2021	10:45	-136.378	43.154	0	629.20	0	4.4210	0	38.2790	8	30.354	0	623.252	0	29.2	4	9.6	4	-1E+10	1	-1E+10	1	-1E+10	1	-1E+10	1	-1E+10	1	-1E+10	1
4901784	223	C	08/12/2021	10:45	-136.378	43.154	0	635.00	0	4.3980	0	38.2850	8	30.362	0	628.988	0	28.7	4	9.4	4	-1E+10	1	-1E+10	1	-1E+10	1	-1E+10	1	-1E+10	1	-1E+10	1
4901784	223	C	08/12/2021	10:45	-136.378	43.154	0	640.80	0	4.3810	0	38.2890	8	30.367	0	634.725	0	28.1	4	9.2	4	-1E+10	1	-1E+10	1	-1E+10	1	-1E+10	1	-1E+10	1	-1E+10	1
4901784	223	C	08/12/2021	10:45	-136.378	43.154	0	645.70	0	4.3530	0	38.2960	8	30.376	0	639.571	0	27.4	4	9.0	4	-1E+10	1	-1E+10	1	-1E+10	1	-1E+10	1	-1E+10	1	-1E+10	1
4901784	223	C	08/12/2021	10:45	-136.378	43.154	0	650.60	0	4.3370	0	38.3000	8	30.381	0	644.416	0	26.9	4	8.8	4	-1E+10	1	-1E+10	1	-1E+10	1	-1E+10	1	-1E+10	1	-1E+10	1
4901784	223	C	08/12/2021	10:45	-136.378	43.154	0	655.60	0	4.3210	0	38.3050	8	30.387	0	649.361	0	26.3	4	8.6	4	-1E+10	1	-1E+10	1	-1E+10	1	-1E+10	1	-1E+10	1	-1E+10	1
4901784	223	C	08/12/2021	10:45	-136.378	43.154	0	660.50	0	4.3040	0	38.3130	8	30.395	0	654.207	0	25.6	4	8.4	4	-1E+10	1	-1E+10	1	-1E+10	1	-1E+10	1	-1E+10	1	-1E+10	1
4901784	223	C	08/12/2021	10:45	-136.378	43.154	0	665.60	0	4.2710	0	38.3170	8	30.402	0	659.250	0	25.4	4	8.3	4	-1E+10	1	-1E+10	1	-1E+10	1	-1E+10	1	-1E+10	1	-1E+10	1
4901784	223	C	08/12/2021	10:45	-136.378	43.154	0	670.50	0	4.2430	0	38.3230	8	30.410	0	664.096	0	25.2	4	8.3	4	-1E+10	1	-1E+10	1	-1E+10	1	-1E+10	1	-1E+10	1	-1E+10	1
4901784	223	C	08/12/2021	10:45	-136.378	43.154	0	675.50	0	4.2370	0	38.3270	8	30.414	0	669.040	0	24.3	4	7.9	4	-1E+10	1	-1E+10	1	-1E+10	1	-1E+10	1	-1E+10	1	-1E+10	1
4901784	223	C	08/12/2021	10:45	-136.378	43.154	0	680.50	0	4.2150	0	38.3340	8	30.423	0	673.984	0	23.5	4	7.7	4	-1E+10	1	-1E+10	1	-1E+10	1	-1E+10	1	-1E+10	1	-1E+10	1
4901784	223	C	08/12/2021	10:45	-136.378	43.154	0	685.50	0	4.2160	0	38.3380	8	30.426	0	678.928	0	22.0	4	7.2	4	-1E+10	1	-1E+10	1	-1E+10	1	-1E+10	1	-1E+10	1	-1E+10	1
4901784	223	C	08/12/2021	10:45	-136.378	43.154	0	690.60	0	4.2160	0	38.3470	8	30.433	0	683.971	0	20.9	4	6.9	4	-1E+10	1	-1E+10	1	-1E+10	1	-1E+10	1	-1E+10	1	-1E+10	1
4901784	223	C	08/12/2021	10:45	-136.378	43.154	0	695.60	0	4.2240	0	38.3560	8	30.439	0	688.914	0	19.9	4	6.5	4	-1E+10	1	-1E+10	1	-1E+10	1	-1E+10	1	-1E+10	1	-1E+10	1
4901784	223	C	08/12/2021	10:45	-136.378	43.154	0	700.60	0	4.2200	0	38.3610	8	30.444	0	693.858	0	19.3	4	6.3	4	-1E+10	1	-1E+10	1	-1E+10	1	-1E+10	1	-1E+10	1	-1E+10	1
4901784	223	C	08/12/2021	10:45	-136.378	43.154	0	705.70	0	4.1960	0	38.3670	8	30.451	0	698.900	0	19.0	4	6.2	4	-1E+10	1	-1E+10	1	-1E+10	1	-1E+10	1	-1E+10	1	-1E+10	1
4901784	223	C	08/12/2021	10:45	-136.378	43.154	0	710.80	0	4.1830	0	38.3710	8	30.456	0	703.943	0	18.8	4	6.1	4	-1E+10	1	-1E+10	1	-1E+10	1	-1E+10	1	-1E+10	1	-1E+10	1
4901784	223	C	08/12/2021	10:45	-136.378	43.154	0	715.00	0	4.1560	0	38.3770	8	30.464	0	708.095	0	18.5	4	6.1	4	-1E+10	1	-1E+10	1	-1E+10	1	-1E+10	1	-1E+10	1	-1E+10	1
4901784	223	C	08/12/2021	10:45	-136.378	43.154	0	719.20	0	4.1570	0	38.3790	8	30.465	0	712.247	0	18.2	4	5.9	4	-1E+10	1	-1E+10	1	-1E+10	1	-1E+10	1	-1E+10	1	-1E+10	1
4901784	223	C	08/12/2021	10:45	-136.378	43.154	0	725.00	0	4.1450	0	38.3830	8	30.470	0	717.981	0	17.7	4	5.8	4	-1E+10	1	-1E+10	1	-1E+10	1	-1E+10	1	-1E+10	1	-1E+10	1
4901784	223	C	08/12/2021	10:45	-136.378	43.154	0	730.00	0	4.1310	0	38.3880	8	30.476	0	722.924	0	17.2	4	5.6	4	-1E+10	1	-1E+10	1	-1E+10	1	-1E+10	1	-1E+10	1	-1E+10	1
4901784	223	C	08/12/2021	10:45	-136.378	43.154	0	734.20	0	4.1190	0	38.3950	8	30.483	0	727.076	0	16.8	4	5.5	4	-1E+10	1	-1E+10	1	-1E+10	1	-1E+10	1	-1E+10	1	-1E+10	1
4901784	223	C	08/12/2021	10:45	-136.378	43.154	0	740.00	0	4.1120	0	38.4030	8	30.490	0	732.810	0	16.3	4	5.3	4	-1E+10	1	-1E+10	1	-1E+10	1	-1E+10	1	-1E+10	1	-1E+10	1
4901784	223	C	08/12/2021	10:45	-136.378	43.154	0	745.00	0	4.0900	0	38.4060	8	30.495	0	737.752	0	16.1	4	5.3	4	-1E+10	1	-1E+10	1	-1E+10	1	-1E+10	1	-1E+10	1	-1E+10	1
4901784	223	C	08/12/2021	10:45	-136.378	43.154	0	749.30	0	4.0740	0	38.4100	8	30.500	0	742.003	0	15.7	4	5.1	4	-1E+10	1	-1E+10	1	-1E+10	1	-1E+10	1	-1E+10	1	-1E+10	1
4901784	223	C	08/12/2021	10:45	-136.378	43.154	0	754.40	0	4.0620	0	38.4170	8	30.507	0	747.044	0	15.2	4	5.0	4	-1E+10	1	-1E+10	1	-1E+10	1	-1E+10	1	-1E+10	1	-1E+10	1
4901784	223	C	08/12/2021	10:45	-136.378	43.154	0	759.50	0	4.0590	0	38.4260	8	30.515	0	752.085	0	14.7	4	4.8	4	-1E+10	1	-1E+10	1	-1E+10	1	-1E+10	1	-1E+10	1	-1E+10	1
4901784	223	C	08/12/2021	10:45	-136.378	43.154	0	764.60	0	4.0550	0	38.4320	8	30.520	0	757.126	0	14.3	4	4.7	4	-1E+10	1	-1E+10	1	-1E+10	1	-1E+10	1	-1E+10	1	-1E+10	1
4901784	223	C	08/12/2021	10:45	-136.378	43.154	0	769.70	0	4.0580	0	38.4380	8	30.524	0	762.167	0	13.8	4	4.5	4	-1E+10	1	-1E+10	1	-1E+10	1	-1E+10	1	-1E+10	1	-1E+10	1
4901784	223	C	08/12/2021	10:45	-136.378	43.154	0	774.80	0	4.0530	0	38.4430	8	30.529	0	767.208	0	13.5	4	4.4	4	-1E+10	1	-1E+10	1	-1E+10	1	-1E+10	1	-1E+10	1	-1E+10	1
4901784	223	C	08/12/2021	10:45	-136.378	43.154	0	780.00	0	4.0450	0	38.4500	8	30.535	0	772.347	0	13.2	4	4.3	4	-1E+10	1	-1E+10	1	-1E+10	1	-1E+10	1	-1E+10	1	-1E+10	1
4901784	223	C	08/12/2021	10:45	-136.378	43.154	0	785.20	0	4.0310	0	38.4550	8	30.541	0	777.486	0	12.9	4	4.2	4	-1E+10	1	-1E+10	1	-1E+10	1	-1E+10	1	-1E+10	1	-1E+10	1
4901784	223	C	08/12/2021	10:45	-136.378	43.154	0	790.30	0	4.0270	0	38.4610	8	30.546	0	782.527	0	12.6	4	4.1	4	-1E+10	1	-1E+10	1	-1E+10	1	-1E+10	1	-1E+10	1	-1E+10	1
4901784	223	C	08/12/2021	10:45	-136.378	43.154	0	795.60	0	4.0250	0	38.4670	8	30.551	0	787.765	0	12.3	4	4.0	4	-1E+10	1	-1E+10	1	-1E+10	1	-1E+10	1	-1E+10	1	-1E+10	1
4901784	223	C	08/12/2021	10:45	-136.378	43.154	0	799.90	0	4.0060	0	38.4730	8	30.558	0	792.014	0	12.1	4	3.9	4	-1E+10	1	-1E+10	1	-1E+10	1	-1E+10	1	-1E+10	1	-1E+10	1
4901784	223	C	08/12/2021	10:45	-136.378	43.154	0	804.30	0	4.0010	0	38.4780	8	30.563	0	796.362	0	11.9	4	3.9	4	-1E+10	1	-1E+10	1	-1E+10	1	-1E+10	1	-1E+10	1	-1E+10	1
4901784	223	C	08/12/2021	10:45	-136.378	43.154	0	809.70	0	3.9900	0	38.4830	8	30.568	0	801.699	0	11.7	4	3.8	4	-1E+10	1	-1E+10	1	-1E+10	1	-1E+10	1	-1E+10	1	-1E+10	1
4901784	223	C	08/12/2021	10:45	-136.378	43.154	0	815.00	0	3.9770	0	38.4890	8	30.575	0	806.936	0	11.5	4	3.7	4	-1E+10	1	-1E+10	1	-1E+10	1	-1E+10	1	-1E+10	1	-1E+10	1
4901784	223	C	08/12/2021	10:45	-136.378	43.154	0	820.40	0	3.9650	0	38.4940	8	30.580	0	812.272	0	11.4	4	3.7	4	-1E+10	1	-1E+10	1	-1E+10	1	-1E+10	1	-1E+10	1	-1E+10	1
4901784	223	C	08/12/2021	10:45	-136.378	43.154	0	824.90	0	3.9530	0	38.4980	8	30.585	0	816.719	0	11.2	4	3.7	4	-1E+10	1	-1E+10	1	-1E+10	1	-1E+10	1	-1E+10	1	-1E+10	1
4901784	223	C	08/12/2021	10:45	-136.378	43.154	0	829.40	0	3.9410	0	38.5020	8	30.589	0	821.165	0	11.1	4	3.6	4	-1E+10	1	-1E+10	1	-1E+10	1	-1E+10	1	-1E+10	1	-1E+10	1
4901784	223	C	08/12/2021	10:45	-136.378	43.154	0	834.80	0	3.9230	0	38.5070	8	30.595	0	826.501	0	11.0	4	3.6	4	-1E+10	1	-1E+10	1	-1E+10	1	-1E+10	1	-1E+10	1	-1E+10	1
4901784	223	C	08/12/2021	10:45	-136.378	43.154	0	840.30	0	3.9070	0	38.5100	8	30.599	0	831.935	0	10.9	4	3.6	4	-1E+10	1	-1E+10	1	-1E+10	1	-1E+10	1	-1E+10	1	-1E+10	1
4901784	223	C	08/12/2021	10:45	-136.378	43.154	0	844.80	0	3.9010	0	38.5150	8	30.604	0	836.382	0	10.8	4	3.5	4	-1E+10	1	-1E+10	1	-1E+10	1	-1E+10	1	-1E+10	1	-1E+10	1
4901784	223	C	08/12/2021	10:45	-136.378	43.154	0	849.30	0	3.8860	0	38.5230	8	30.612	0	840.828	0	10.6	4	3.5	4	-1E+10	1	-1E+10	1	-1E+10	1	-1E+10	1	-1E+10	1	-1E+10	1
4901784	223	C	08/12/2021	10:45	-136.378	43.154	0	854.60	0	3.8630	0	38.5280	8	30.619	0	846.064	0	10.6	4	3.4	4	-1E+10	1	-1E+10	1	-1E+10	1	-1E+10	1	-1E+10	1	-1E+10	1
4901784	223	C	08/12/2021	10:45	-136.378	43.154	0	859.40	0	3.8480	0	38.5320	8	30.624	0	850.807	0	10.5	4	3.4	4	-1E+10	1	-1E+10	1	-1E+10	1	-1E+10	1	-1E+10	1	-1E+10	1
4901784	223	C	08/12/2021	10:45	-136.378	43.154	0	865.00	0	3.8310	0	38.5360	8	30.629	0	856.339	0	10.4	4	3.4	4	-1E+10	1	-1E+10	1	-1E+10	1	-1E+10	1	-1E+10	1	-1E+10	1
4901784	223	C	08/12/2021	10:45	-136.378	43.154	0	870.70	0	3.8250	0	38.5400	8	30.633	0	861.970	0	10.3	4	3.3	4	-1E+10	1	-1E+10	1	-1E+10	1	-1E+10	1	-1E+10	1	-1E+10	1
4901784	223	C	08/12/2021	10:45	-136.378	43.154	0	875.60	0	3.8150	0	38.5480	8	30.640	0	866.811	0	10.2	4	3.3	4	-1E+10	1	-1E+10	1	-1E+10	1	-1E+10	1	-1E+10	1	-1E+10	1
4901784	223	C	08/12/2021	10:45	-136.378	43.154	0	880.50	0	3.8050	0	38.5500	8	30.643	0	871.652	0	10.1	4	3.3	4	-1E+10	1	-1E+10	1	-1E+10	1	-1E+10	1	-1E+10	1	-1E+10	1
4901784	223	C	08/12/2021	10:45	-136.378	43.154	0	885.50	0	3.8010	0	38.5540	8	30.647	0	876.591	0	10.1	4	3.3	4	-1E+10	1	-1E+10	1	-1E+10	1	-1E+10	1	-1E+10	1	-1E+10	1
4901784	223	C	08/12/2021	10:45	-136.378	43.154	0	890.40	0	3.7920	0	38.5610	8	30.653	0	881.431	0	10.0	4	3.2	4	-1E+10	1	-1E+10	1	-1E+10	1	-1E+10	1	-1E+10	1	-1E+10	1
4901784	223	C	08/12/2021	10:45	-136.378	43.154	0	895.40	0	3.7870	0	38.5660	8	30.658	0	886.370	0	9.9	4	3.2	4	-1E+10	1	-1E+10	1	-1E+10	1	-1E+10	1	-1E+10	1	-1E+10	1
4901784	223	C	08/12/2021	10:45	-136.378	43.154	0	900.40	0	3.7790	0	38.5690	8	30.661	0	891.309	0	9.9	4	3.2	4	-1E+10	1	-1E+10	1	-1E+10	1	-1E+10	1	-1E+10	1	-1E+10	1
4901784	223	C	08/12/2021	10:45	-136.378	43.154	0	905.40	0	3.7660	0	38.5760	8	30.668	0	896.248	0	9.8	4	3.2	4	-1E+10	1	-1E+10	1	-1E+10	1	-1E+10	1	-1E+10	1	-1E+10	1
4901784	223	C	08/12/2021	10:45	-136.378	43.154	0	910.50	0	3.7460	0	38.5790	8	30.673	0	901.285	0	9.8	4	3.2	4	-1E+10	1	-1E+10	1	-1E+10	1	-1E+10	1	-1E+10	1	-1E+10	1
4901784	223	C	08/12/2021	10:45	-136.378	43.154	0	915.60	0	3.7130	0	38.5850	8	30.681	0	906.323	0	9.8	4	3.2	4	-1E+10	1	-1E+10	1	-1E+10	1	-1E+10	1	-1E+10	1	-1E+10	1
4901784	223	C	08/12/2021	10:45	-136.378	43.154	0	919.90	0	3.6900	0	38.5860	8	30.685	0	910.570	0	9.8	4	3.2	4	-1E+10	1	-1E+10	1	-1E+10	1	-1E+10	1	-1E+10	1	-1E+10	1
4901784	223	C	08/12/2021	10:45	-136.378	43.154	0	924.30	0	3.6810	0	38.5890	8	30.688	0	914.916	0	9.8	4	3.2	4	-1E+10	1	-1E+10	1	-1E+10	1	-1E+10	1	-1E+10	1	-1E+10	1
4901784	223	C	08/12/2021	10:45	-136.378	43.154	0	929.40	0	3.6710	0	38.5930	8	30.693	0	919.953	0	9.8	4	3.2	4	-1E+10	1	-1E+10	1	-1E+10	1	-1E+10	1	-1E+10	1	-1E+10	1
4901784	223	C	08/12/2021	10:45	-136.378	43.154	0	934.70	0	3.6660	0	38.5970	8	30.696	0	925.187	0	9.8	4	3.2	4	-1E+10	1	-1E+10	1	-1E+10	1	-1E+10	1	-1E+10	1	-1E+10	1
4901784	223	C	08/12/2021	10:45	-136.378	43.154	0	939.90	0	3.6530	0	38.6000	8	30.700	0	930.323	0	9.8	4	3.2	4	-1E+10	1	-1E+10	1	-1E+10	1	-1E+10	1	-1E+10	1	-1E+10	1
4901784	223	C	08/12/2021	10:45	-136.378	43.154	0	945.20	0	3.6460	0	38.6030	8	30.703	0	935.557	0	9.8	4	3.2	4	-1E+10	1	-1E+10	1	-1E+10	1	-1E+10	1	-1E+10	1	-1E+10	1
4901784	223	C	08/12/2021	10:45	-136.378	43.154	0	950.60	0	3.6390	0	38.6060	8	30.707	0	940.890	0	9.8	4	3.2	4	-1E+10	1	-1E+10	1	-1E+10	1	-1E+10	1	-1E+10	1	-1E+10	1
4901784	223	C	08/12/2021	10:45	-136.378	43.154	0	955.00	0	3.6180	0	38.6100	8	30.712	0	945.235	0	9.8	4	3.2	4	-1E+10	1	-1E+10	1	-1E+10	1	-1E+10	1	-1E+10	1	-1E+10	1
4901784	223	C	08/12/2021	10:45	-136.378	43.154	0	959.50	0	3.6060	0	38.6130	8	30.716	0	949.678	0	9.8	4	3.2	4	-1E+10	1	-1E+10	1	-1E+10	1	-1E+10	1	-1E+10	1	-1E+10	1
4901784	223	C	08/12/2021	10:45	-136.378	43.154	0	964.90	0	3.5900	0	38.6200	8	30.723	0	955.011	0	9.8	4	3.2	4	-1E+10	1	-1E+10	1	-1E+10	1	-1E+10	1	-1E+10	1	-1E+10	1
4901784	223	C	08/12/2021	10:45	-136.378	43.154	0	970.30	0	3.5800	0	38.6220	8	30.726	0	960.343	0	9.9	4	3.2	4	-1E+10	1	-1E+10	1	-1E+10	1	-1E+10	1	-1E+10	1	-1E+10	1
4901784	223	C	08/12/2021	10:45	-136.378	43.154	0	974.90	0	3.5710	0	38.6250	8	30.729	0	964.885	0	9.9	4	3.2	4	-1E+10	1	-1E+10	1	-1E+10	1	-1E+10	1	-1E+10	1	-1E+10	1
4901784	223	C	08/12/2021	10:45	-136.378	43.154	0	979.40	0	3.5600	0	38.6300	8	30.735	0	969.329	0	9.9	4	3.2	4	-1E+10	1	-1E+10	1	-1E+10	1	-1E+10	1	-1E+10	1	-1E+10	1
4901784	223	C	08/12/2021	10:45	-136.378	43.154	0	985.00	0	3.5490	0	38.6330	8	30.738	0	974.858	0	9.9	4	3.2	4	-1E+10	1	-1E+10	1	-1E+10	1	-1E+10	1	-1E+10	1	-1E+10	1
4901784	223	C	08/12/2021	10:45	-136.378	43.154	0	989.60	0	3.5450	0	38.6350	8	30.740	0	979.400	0	10.0	4	3.2	4	-1E+10	1	-1E+10	1	-1E+10	1	-1E+10	1	-1E+10	1	-1E+10	1
4901784	223	C	08/12/2021	10:45	-136.378	43.154	0	994.10	0	3.5340	0	38.6390	8	30.745	0	983.843	0	10.0	4	3.2	4	-1E+10	1	-1E+10	1	-1E+10	1	-1E+10	1	-1E+10	1	-1E+10	1
4901784	223	C	08/12/2021	10:45	-136.378	43.154	0	999.40	0	3.5200	0	38.6430	8	30.749	0	989.076	0	10.0	4	3.2	4	-1E+10	1	-1E+10	1	-1E+10	1	-1E+10	1	-1E+10	1	-1E+10	1
4901784	223	C	08/12/2021	10:45	-136.378	43.154	0	1004.30	0	3.5120	0	38.6450	8	30.752	0	993.914	0	10.1	4	3.2	4	-1E+10	1	-1E+10	1	-1E+10	1	-1E+10	1	-1E+10	1	-1E+10	1
4901784	223	C	08/12/2021	10:45	-136.378	43.154	0	1010.00	0	3.4990	0	38.6490	8	30.757	0	999.541	0	10.1	4	3.3	4	-1E+10	1	-1E+10	1	-1E+10	1	-1E+10	1	-1E+10	1	-1E+10	1
4901784	223	C	08/12/2021	10:45	-136.378	43.154	0	1015.70	0	3.4880	0	38.6520	8	30.760	0	1005.168	0	10.2	4	3.3	4	-1E+10	1	-1E+10	1	-1E+10	1	-1E+10	1	-1E+10	1	-1E+10	1
4901784	223	C	08/12/2021	10:45	-136.378	43.154	0	1020.70	0	3.4750	0	38.6560	8	30.765	0	1010.105	0	10.2	4	3.3	4	-1E+10	1	-1E+10	1	-1E+10	1	-1E+10	1	-1E+10	1	-1E+10	1
4901784	223	C	08/12/2021	10:45	-136.378	43.154	0	1025.70	0	3.4600	0	38.6600	8	30.770	0	1015.041	0	10.3	4	3.3	4	-1E+10	1	-1E+10	1	-1E+10	1	-1E+10	1	-1E+10	1	-1E+10	1
4901784	223	C	08/12/2021	10:45	-136.378	43.154	0	1030.70	0	3.4480	0	38.6630	8	30.773	0	1019.976	0	10.4	4	3.3	4	-1E+10	1	-1E+10	1	-1E+10	1	-1E+10	1	-1E+10	1	-1E+10	1
4901784	223	C	08/12/2021	10:45	-136.378	43.154	0	1035.70	0	3.4340	0	38.6680	8	30.779	0	1024.912	0	10.5	4	3.4	4	-1E+10	1	-1E+10	1	-1E+10	1	-1E+10	1	-1E+10	1	-1E+10	1
4901784	223	C	08/12/2021	10:45	-136.378	43.154	0	1040.00	0	3.4160	0	38.6730	8	30.785	0	1029.157	0	10.5	4	3.4	4	-1E+10	1	-1E+10	1	-1E+10	1	-1E+10	1	-1E+10	1	-1E+10	1
4901784	223	C	08/12/2021	10:45	-136.378	43.154	0	1044.30	0	3.4070	0	38.6740	8	30.787	0	1033.402	0	10.6	4	3.4	4	-1E+10	1	-1E+10	1	-1E+10	1	-1E+10	1	-1E+10	1	-1E+10	1
4901784	223	C	08/12/2021	10:45	-136.378	43.154	0	1049.40	0	3.3920	0	38.6770	8	30.791	0	1038.436	0	10.6	4	3.4	4	-1E+10	1	-1E+10	1	-1E+10	1	-1E+10	1	-1E+10	1	-1E+10	1
4901784	223	C	08/12/2021	10:45	-136.378	43.154	0	1054.70	0	3.3800	0	38.6810	8	30.795	0	1043.667	0	10.7	4	3.4	4	-1E+10	1	-1E+10	1	-1E+10	1	-1E+10	1	-1E+10	1	-1E+10	1
4901784	223	C	08/12/2021	10:45	-136.378	43.154	0	1060.00	0	3.3700	0	38.6840	8	30.799	0	1048.898	0	10.8	4	3.5	4	-1E+10	1	-1E+10	1	-1E+10	1	-1E+10	1	-1E+10	1	-1E+10	1
4901784	223	C	08/12/2021	10:45	-136.378	43.154	0	1065.20	0	3.3620	0	38.6860	8	30.801	0	1054.031	0	10.8	4	3.5	4	-1E+10	1	-1E+10	1	-1E+10	1	-1E+10	1	-1E+10	1	-1E+10	1
4901784	223	C	08/12/2021	10:45	-136.378	43.154	0	1070.50	0	3.3520	0	38.6890	8	30.805	0	1059.262	0	10.9	4	3.5	4	-1E+10	1	-1E+10	1	-1E+10	1	-1E+10	1	-1E+10	1	-1E+10	1
4901784	223	C	08/12/2021	10:45	-136.378	43.154	0	1074.90	0	3.3420	0	38.6920	8	30.808	0	1063.605	0	11.0	4	3.5	4	-1E+10	1	-1E+10	1	-1E+10	1	-1E+10	1	-1E+10	1	-1E+10	1
4901784	223	C	08/12/2021	10:45	-136.378	43.154	0	1079.40	0	3.3320	0	38.6950	8	30.812	0	1068.046	0	11.1	4	3.6	4	-1E+10	1	-1E+10	1	-1E+10	1	-1E+10	1	-1E+10	1	-1E+10	1
4901784	223	C	08/12/2021	10:45	-136.378	43.154	0	1084.80	0	3.3250	0	38.6970	8	30.814	0	1073.375	0	11.2	4	3.6	4	-1E+10	1	-1E+10	1	-1E+10	1	-1E+10	1	-1E+10	1	-1E+10	1
4901784	223	C	08/12/2021	10:45	-136.378	43.154	0	1090.20	0	3.3100	0	38.7010	8	30.819	0	1078.704	0	11.3	4	3.6	4	-1E+10	1	-1E+10	1	-1E+10	1	-1E+10	1	-1E+10	1	-1E+10	1
4901784	223	C	08/12/2021	10:45	-136.378	43.154	0	1095.30	0	3.3000	0	38.7040	8	30.822	0	1083.738	0	11.4	4	3.7	4	-1E+10	1	-1E+10	1	-1E+10	1	-1E+10	1	-1E+10	1	-1E+10	1
4901784	223	C	08/12/2021	10:45	-136.378	43.154	0	1100.00	0	3.2920	0	38.7070	8	30.826	0	1088.376	0	11.5	4	3.7	4	-1E+10	1	-1E+10	1	-1E+10	1	-1E+10	1	-1E+10	1	-1E+10	1
4901784	223	C	08/12/2021	10:45	-136.378	43.154	0	1105.40	0	3.2820	0	38.7100	8	30.829	0	1093.705	0	11.6	4	3.7	4	-1E+10	1	-1E+10	1	-1E+10	1	-1E+10	1	-1E+10	1	-1E+10	1
4901784	223	C	08/12/2021	10:45	-136.378	43.154	0	1110.10	0	3.2720	0	38.7130	8	30.833	0	1098.343	0	11.7	4	3.8	4	-1E+10	1	-1E+10	1	-1E+10	1	-1E+10	1	-1E+10	1	-1E+10	1
4901784	223	C	08/12/2021	10:45	-136.378	43.154	0	1115.10	0	3.2610	0	38.7160	8	30.836	0	1103.277	0	11.8	4	3.8	4	-1E+10	1	-1E+10	1	-1E+10	1	-1E+10	1	-1E+10	1	-1E+10	1
4901784	223	C	08/12/2021	10:45	-136.378	43.154	0	1120.10	0	3.2480	0	38.7190	8	30.840	0	1108.210	0	12.0	4	3.8	4	-1E+10	1	-1E+10	1	-1E+10	1	-1E+10	1	-1E+10	1	-1E+10	1
4901784	223	C	08/12/2021	10:45	-136.378	43.154	0	1125.20	0	3.2360	0	38.7220	8	30.844	0	1113.243	0	12.0	4	3.9	4	-1E+10	1	-1E+10	1	-1E+10	1	-1E+10	1	-1E+10	1	-1E+10	1
4901784	223	C	08/12/2021	10:45	-136.378	43.154	0	1130.30	0	3.2260	0	38.7250	8	30.847	0	1118.275	0	12.1	4	3.9	4	-1E+10	1	-1E+10	1	-1E+10	1	-1E+10	1	-1E+10	1	-1E+10	1
4901784	223	C	08/12/2021	10:45	-136.378	43.154	0	1135.40	0	3.2200	0	38.7270	8	30.850	0	1123.307	0	12.2	4	3.9	4	-1E+10	1	-1E+10	1	-1E+10	1	-1E+10	1	-1E+10	1	-1E+10	1
4901784	223	C	08/12/2021	10:45	-136.378	43.154	0	1140.60	0	3.2160	0	38.7280	8	30.851	0	1128.438	0	12.3	4	4.0	4	-1E+10	1	-1E+10	1	-1E+10	1	-1E+10	1	-1E+10	1	-1E+10	1
4901784	223	C	08/12/2021	10:45	-136.378	43.154	0	1145.70	0	3.2100	0	38.7300	8	30.853	0	1133.469	0	12.5	4	4.0	4	-1E+10	1	-1E+10	1	-1E+10	1	-1E+10	1	-1E+10	1	-1E+10	1
4901784	223	C	08/12/2021	10:45	-136.378	43.154	0	1150.10	0	3.2040	0	38.7320	8	30.855	0	1137.811	0	12.6	4	4.0	4	-1E+10	1	-1E+10	1	-1E+10	1	-1E+10	1	-1E+10	1	-1E+10	1
4901784	223	C	08/12/2021	10:45	-136.378	43.154	0	1154.50	0	3.1970	0	38.7340	8	30.858	0	1142.152	0	12.7	4	4.1	4	-1E+10	1	-1E+10	1	-1E+10	1	-1E+10	1	-1E+10	1	-1E+10	1
4901784	223	C	08/12/2021	10:45	-136.378	43.154	0	1159.80	0	3.1890	0	38.7370	8	30.861	0	1147.381	0	12.9	4	4.1	4	-1E+10	1	-1E+10	1	-1E+10	1	-1E+10	1	-1E+10	1	-1E+10	1
4901784	223	C	08/12/2021	10:45	-136.378	43.154	0	1165.20	0	3.1790	0	38.7400	8	30.864	0	1152.708	0	13.1	4	4.2	4	-1E+10	1	-1E+10	1	-1E+10	1	-1E+10	1	-1E+10	1	-1E+10	1
4901784	223	C	08/12/2021	10:45	-136.378	43.154	0	1170.50	0	3.1700	0	38.7430	8	30.868	0	1157.937	0	13.3	4	4.3	4	-1E+10	1	-1E+10	1	-1E+10	1	-1E+10	1	-1E+10	1	-1E+10	1
4901784	223	C	08/12/2021	10:45	-136.378	43.154	0	1175.00	0	3.1580	0	38.7460	8	30.872	0	1162.376	0	13.4	4	4.3	4	-1E+10	1	-1E+10	1	-1E+10	1	-1E+10	1	-1E+10	1	-1E+10	1
4901784	223	C	08/12/2021	10:45	-136.378	43.154	0	1179.50	0	3.1470	0	38.7470	8	30.873	0	1166.815	0	13.6	4	4.4	4	-1E+10	1	-1E+10	1	-1E+10	1	-1E+10	1	-1E+10	1	-1E+10	1
4901784	223	C	08/12/2021	10:45	-136.378	43.154	0	1184.90	0	3.1390	0	38.7490	8	30.876	0	1172.142	0	13.9	4	4.5	4	-1E+10	1	-1E+10	1	-1E+10	1	-1E+10	1	-1E+10	1	-1E+10	1
4901784	223	C	08/12/2021	10:45	-136.378	43.154	0	1190.30	0	3.1300	0	38.7520	8	30.879	0	1177.469	0	14.3	4	4.6	4	-1E+10	1	-1E+10	1	-1E+10	1	-1E+10	1	-1E+10	1	-1E+10	1
4901784	223	C	08/12/2021	10:45	-136.378	43.154	0	1194.80	0	3.1170	0	38.7570	8	30.885	0	1181.907	0	14.7	4	4.7	4	-1E+10	1	-1E+10	1	-1E+10	1	-1E+10	1	-1E+10	1	-1E+10	1
4901784	223	C	08/12/2021	10:45	-136.378	43.154	0	1199.40	0	3.1090	0	38.7580	8	30.886	0	1186.445	0	15.1	4	4.8	4	-1E+10	1	-1E+10	1	-1E+10	1	-1E+10	1	-1E+10	1	-1E+10	1
4901784	223	C	08/12/2021	10:45	-136.378	43.154	0	1204.90	0	3.1000	0	38.7610	8	30.890	0	1191.870	0	15.8	4	5.1	4	-1E+10	1	-1E+10	1	-1E+10	1	-1E+10	1	-1E+10	1	-1E+10	1
4901784	223	C	08/12/2021	10:45	-136.378	43.154	0	1210.30	0	3.0910	0	38.7610	8	30.891	0	1197.196	0	16.7	4	5.3	4	-1E+10	1	-1E+10	1	-1E+10	1	-1E+10	1	-1E+10	1	-1E+10	1
4901784	223	C	08/12/2021	10:45	-136.378	43.154	0	1214.80	0	3.0820	0	38.7640	8	30.894	0	1201.635	0	17.4	4	5.6	4	-1E+10	1	-1E+10	1	-1E+10	1	-1E+10	1	-1E+10	1	-1E+10	1
4901784	223	C	08/12/2021	10:45	-136.378	43.154	0	1219.30	0	3.0730	0	38.7640	8	30.895	0	1206.073	0	18.0	4	5.8	4	-1E+10	1	-1E+10	1	-1E+10	1	-1E+10	1	-1E+10	1	-1E+10	1
4901784	223	C	08/12/2021	10:45	-136.378	43.154	0	1224.90	0	3.0620	0	38.7620	8	30.895	0	1211.596	0	18.6	4	5.9	4	-1E+10	1	-1E+10	1	-1E+10	1	-1E+10	1	-1E+10	1	-1E+10	1
4901784	223	C	08/12/2021	10:45	-136.378	43.154	0	1230.40	0	3.0500	0	38.7450	8	30.882	0	1217.020	0	18.7	4	6.0	4	-1E+10	1	-1E+10	1	-1E+10	1	-1E+10	1	-1E+10	1	-1E+10	1
4901784	223	C	08/12/2021	10:45	-136.378	43.154	0	1235.50	0	3.0370	0	38.7390	8	30.879	0	1222.050	0	18.7	4	6.0	4	-1E+10	1	-1E+10	1	-1E+10	1	-1E+10	1	-1E+10	1	-1E+10	1
4901784	223	C	08/12/2021	10:45	-136.378	43.154	0	1240.60	0	3.0240	0	38.7430	8	30.883	0	1227.080	0	18.7	4	6.0	4	-1E+10	1	-1E+10	1	-1E+10	1	-1E+10	1	-1E+10	1	-1E+10	1
4901784	223	C	08/12/2021	10:45	-136.378	43.154	0	1244.90	0	3.0130	0	38.7460	8	30.887	0	1231.320	0	18.7	4	6.0	4	-1E+10	1	-1E+10	1	-1E+10	1	-1E+10	1	-1E+10	1	-1E+10	1
4901784	223	C	08/12/2021	10:45	-136.378	43.154	0	1249.20	0	3.0040	0	38.7480	8	30.890	0	1235.561	0	18.7	4	6.0	4	-1E+10	1	-1E+10	1	-1E+10	1	-1E+10	1	-1E+10	1	-1E+10	1
4901784	223	C	08/12/2021	10:45	-136.378	43.154	0	1254.40	0	2.9910	0	38.7530	8	30.895	0	1240.689	0	18.7	4	6.0	4	-1E+10	1	-1E+10	1	-1E+10	1	-1E+10	1	-1E+10	1	-1E+10	1
4901784	223	C	08/12/2021	10:45	-136.378	43.154	0	1259.60	0	2.9810	0	38.7540	8	30.897	0	1245.816	0	18.7	4	6.0	4	-1E+10	1	-1E+10	1	-1E+10	1	-1E+10	1	-1E+10	1	-1E+10	1
4901784	223	C	08/12/2021	10:45	-136.378	43.154	0	1264.80	0	2.9720	0	38.7560	8	30.899	0	1250.944	0	18.7	4	6.0	4	-1E+10	1	-1E+10	1	-1E+10	1	-1E+10	1	-1E+10	1	-1E+10	1
4901784	223	C	08/12/2021	10:45	-136.378	43.154	0	1269.90	0	2.9600	0	38.7610	8	30.905	0	1255.973	0	18.7	4	6.0	4	-1E+10	1	-1E+10	1	-1E+10	1	-1E+10	1	-1E+10	1	-1E+10	1
4901784	223	C	08/12/2021	10:45	-136.378	43.154	0	1275.20	0	2.9500	0	38.7640	8	30.908	0	1261.199	0	18.7	4	6.0	4	-1E+10	1	-1E+10	1	-1E+10	1	-1E+10	1	-1E+10	1	-1E+10	1
4901784	223	C	08/12/2021	10:45	-136.378	43.154	0	1280.50	0	2.9420	0	38.7660	8	30.910	0	1266.425	0	18.7	4	6.0	4	-1E+10	1	-1E+10	1	-1E+10	1	-1E+10	1	-1E+10	1	-1E+10	1
4901784	223	C	08/12/2021	10:45	-136.378	43.154	0	1285.70	0	2.9340	0	38.7690	8	30.914	0	1271.552	0	18.7	4	6.0	4	-1E+10	1	-1E+10	1	-1E+10	1	-1E+10	1	-1E+10	1	-1E+10	1
4901784	223	C	08/12/2021	10:45	-136.378	43.154	0	1290.10	0	2.9290	0	38.7680	8	30.913	0	1275.890	0	18.7	4	6.0	4	-1E+10	1	-1E+10	1	-1E+10	1	-1E+10	1	-1E+10	1	-1E+10	1
4901784	223	C	08/12/2021	10:45	-136.378	43.154	0	1294.60	0	2.9230	0	38.7680	8	30.914	0	1280.327	0	18.7	4	6.0	4	-1E+10	1	-1E+10	1	-1E+10	1	-1E+10	1	-1E+10	1	-1E+10	1
4901784	223	C	08/12/2021	10:45	-136.378	43.154	0	1299.90	0	2.9160	0	38.7680	8	30.915	0	1285.552	0	18.8	4	6.0	4	-1E+10	1	-1E+10	1	-1E+10	1	-1E+10	1	-1E+10	1	-1E+10	1
4901784	223	C	08/12/2021	10:45	-136.378	43.154	0	1305.20	0	2.9100	0	38.7680	8	30.915	0	1290.778	0	18.8	4	6.0	4	-1E+10	1	-1E+10	1	-1E+10	1	-1E+10	1	-1E+10	1	-1E+10	1
4901784	223	C	08/12/2021	10:45	-136.378	43.154	0	1310.60	0	2.9030	0	38.7670	8	30.915	0	1296.101	0	18.8	4	6.0	4	-1E+10	1	-1E+10	1	-1E+10	1	-1E+10	1	-1E+10	1	-1E+10	1
4901784	223	C	08/12/2021	10:45	-136.378	43.154	0	1315.10	0	2.8980	0	38.7660	8	30.915	0	1300.538	0	18.8	4	6.0	4	-1E+10	1	-1E+10	1	-1E+10	1	-1E+10	1	-1E+10	1	-1E+10	1
4901784	223	C	08/12/2021	10:45	-136.378	43.154	0	1319.60	0	2.8920	0	38.7650	8	30.915	0	1304.974	0	18.8	4	6.0	4	-1E+10	1	-1E+10	1	-1E+10	1	-1E+10	1	-1E+10	1	-1E+10	1
4901784	223	C	08/12/2021	10:45	-136.378	43.154	0	1325.10	0	2.8810	0	38.7690	8	30.919	0	1310.396	0	18.8	4	6.0	4	-1E+10	1	-1E+10	1	-1E+10	1	-1E+10	1	-1E+10	1	-1E+10	1
4901784	223	C	08/12/2021	10:45	-136.378	43.154	0	1330.50	0	2.8680	0	38.7760	8	30.926	0	1315.719	0	18.8	4	6.0	4	-1E+10	1	-1E+10	1	-1E+10	1	-1E+10	1	-1E+10	1	-1E+10	1
4901784	223	C	08/12/2021	10:45	-136.378	43.154	0	1335.00	0	2.8580	0	38.7830	8	30.933	0	1320.155	0	18.8	4	6.0	4	-1E+10	1	-1E+10	1	-1E+10	1	-1E+10	1	-1E+10	1	-1E+10	1
4901784	223	C	08/12/2021	10:45	-136.378	43.154	0	1339.50	0	2.8510	0	38.7860	8	30.936	0	1324.591	0	18.8	4	6.0	4	-1E+10	1	-1E+10	1	-1E+10	1	-1E+10	1	-1E+10	1	-1E+10	1
4901784	223	C	08/12/2021	10:45	-136.378	43.154	0	1345.00	0	2.8430	0	38.7900	8	30.940	0	1330.012	0	18.9	4	6.0	4	-1E+10	1	-1E+10	1	-1E+10	1	-1E+10	1	-1E+10	1	-1E+10	1
4901784	223	C	08/12/2021	10:45	-136.378	43.154	0	1350.40	0	2.8370	0	38.7940	8	30.944	0	1335.335	0	18.9	4	6.0	4	-1E+10	1	-1E+10	1	-1E+10	1	-1E+10	1	-1E+10	1	-1E+10	1
4901784	223	C	08/12/2021	10:45	-136.378	43.154	0	1355.00	0	2.8300	0	38.8000	8	30.949	0	1339.869	0	18.9	4	6.0	4	-1E+10	1	-1E+10	1	-1E+10	1	-1E+10	1	-1E+10	1	-1E+10	1
4901784	223	C	08/12/2021	10:45	-136.378	43.154	0	1359.60	0	2.8230	0	38.8060	8	30.955	0	1344.403	0	18.9	4	6.0	4	-1E+10	1	-1E+10	1	-1E+10	1	-1E+10	1	-1E+10	1	-1E+10	1
4901784	223	C	08/12/2021	10:45	-136.378	43.154	0	1365.10	0	2.8150	0	38.8170	8	30.965	0	1349.824	0	19.0	4	6.0	4	-1E+10	1	-1E+10	1	-1E+10	1	-1E+10	1	-1E+10	1	-1E+10	1
4901784	223	C	08/12/2021	10:45	-136.378	43.154	0	1370.60	0	2.8090	0	38.8310	8	30.977	0	1355.245	0	19.1	4	6.1	4	-1E+10	1	-1E+10	1	-1E+10	1	-1E+10	1	-1E+10	1	-1E+10	1
4901784	223	C	08/12/2021	10:45	-136.378	43.154	0	1375.20	0	2.7980	0	38.8340	8	30.980	0	1359.778	0	19.3	4	6.1	4	-1E+10	1	-1E+10	1	-1E+10	1	-1E+10	1	-1E+10	1	-1E+10	1
4901784	223	C	08/12/2021	10:45	-136.378	43.154	0	1380.40	0	2.7860	0	38.8370	8	30.984	0	1364.903	0	19.5	4	6.2	4	-1E+10	1	-1E+10	1	-1E+10	1	-1E+10	1	-1E+10	1	-1E+10	1
4901784	223	C	08/12/2021	10:45	-136.378	43.154	0	1385.50	0	2.7760	0	38.8390	8	30.986	0	1369.930	0	19.8	4	6.3	4	-1E+10	1	-1E+10	1	-1E+10	1	-1E+10	1	-1E+10	1	-1E+10	1
4901784	223	C	08/12/2021	10:45	-136.378	43.154	0	1390.20	0	2.7680	0	38.8410	8	30.989	0	1374.561	0	19.9	4	6.3	4	-1E+10	1	-1E+10	1	-1E+10	1	-1E+10	1	-1E+10	1	-1E+10	1
4901784	223	C	08/12/2021	10:45	-136.378	43.154	0	1395.00	0	2.7600	0	38.8430	8	30.991	0	1379.292	0	20.1	4	6.4	4	-1E+10	1	-1E+10	1	-1E+10	1	-1E+10	1	-1E+10	1	-1E+10	1
4901784	223	C	08/12/2021	10:45	-136.378	43.154	0	1399.80	0	2.7520	0	38.8450	8	30.994	0	1384.022	0	20.4	4	6.5	4	-1E+10	1	-1E+10	1	-1E+10	1	-1E+10	1	-1E+10	1	-1E+10	1
4901784	223	C	08/12/2021	10:45	-136.378	43.154	0	1404.70	0	2.7450	0	38.8470	8	30.996	0	1388.851	0	20.5	4	6.5	4	-1E+10	1	-1E+10	1	-1E+10	1	-1E+10	1	-1E+10	1	-1E+10	1
4901784	223	C	08/12/2021	10:45	-136.378	43.154	0	1409.60	0	2.7380	0	38.8480	8	30.997	0	1393.679	0	20.7	4	6.6	4	-1E+10	1	-1E+10	1	-1E+10	1	-1E+10	1	-1E+10	1	-1E+10	1
4901784	223	C	08/12/2021	10:45	-136.378	43.154	0	1414.50	0	2.7260	0	38.8500	8	31.000	0	1398.508	0	21.0	4	6.7	4	-1E+10	1	-1E+10	1	-1E+10	1	-1E+10	1	-1E+10	1	-1E+10	1
4901784	223	C	08/12/2021	10:45	-136.378	43.154	0	1419.40	0	2.7170	0	38.8530	8	31.004	0	1403.336	0	21.2	4	6.7	4	-1E+10	1	-1E+10	1	-1E+10	1	-1E+10	1	-1E+10	1	-1E+10	1
4901784	223	C	08/12/2021	10:45	-136.378	43.154	0	1424.40	0	2.7110	0	38.8540	8	31.005	0	1408.263	0	21.5	4	6.8	4	-1E+10	1	-1E+10	1	-1E+10	1	-1E+10	1	-1E+10	1	-1E+10	1
4901784	223	C	08/12/2021	10:45	-136.378	43.154	0	1429.30	0	2.6980	0	38.8570	8	31.009	0	1413.091	0	21.7	4	6.9	4	-1E+10	1	-1E+10	1	-1E+10	1	-1E+10	1	-1E+10	1	-1E+10	1
4901784	223	C	08/12/2021	10:45	-136.378	43.154	0	1434.30	0	2.6890	0	38.8590	8	31.011	0	1418.017	0	22.0	4	7.0	4	-1E+10	1	-1E+10	1	-1E+10	1	-1E+10	1	-1E+10	1	-1E+10	1
4901784	223	C	08/12/2021	10:45	-136.378	43.154	0	1439.30	0	2.6800	0	38.8610	8	31.014	0	1422.944	0	22.2	4	7.0	4	-1E+10	1	-1E+10	1	-1E+10	1	-1E+10	1	-1E+10	1	-1E+10	1
4901784	223	C	08/12/2021	10:45	-136.378	43.154	0	1444.30	0	2.6710	0	38.8620	8	31.016	0	1427.870	0	22.5	4	7.1	4	-1E+10	1	-1E+10	1	-1E+10	1	-1E+10	1	-1E+10	1	-1E+10	1
4901784	223	C	08/12/2021	10:45	-136.378	43.154	0	1449.30	0	2.6590	0	38.8650	8	31.019	0	1432.796	0	22.8	4	7.2	4	-1E+10	1	-1E+10	1	-1E+10	1	-1E+10	1	-1E+10	1	-1E+10	1
4901784	223	C	08/12/2021	10:45	-136.378	43.154	0	1454.30	0	2.6450	0	38.8670	8	31.022	0	1437.722	0	23.1	4	7.3	4	-1E+10	1	-1E+10	1	-1E+10	1	-1E+10	1	-1E+10	1	-1E+10	1
4901784	223	C	08/12/2021	10:45	-136.378	43.154	0	1459.40	0	2.6360	0	38.8700	8	31.025	0	1442.747	0	23.3	4	7.4	4	-1E+10	1	-1E+10	1	-1E+10	1	-1E+10	1	-1E+10	1	-1E+10	1
4901784	223	C	08/12/2021	10:45	-136.378	43.154	0	1464.50	0	2.6300	0	38.8710	8	31.027	0	1447.771	0	23.6	4	7.5	4	-1E+10	1	-1E+10	1	-1E+10	1	-1E+10	1	-1E+10	1	-1E+10	1
4901784	223	C	08/12/2021	10:45	-136.378	43.154	0	1469.60	0	2.6170	0	38.8740	8	31.031	0	1452.795	0	23.9	4	7.5	4	-1E+10	1	-1E+10	1	-1E+10	1	-1E+10	1	-1E+10	1	-1E+10	1
4901784	223	C	08/12/2021	10:45	-136.378	43.154	0	1474.80	0	2.6110	0	38.8750	8	31.032	0	1457.918	0	24.1	4	7.6	4	-1E+10	1	-1E+10	1	-1E+10	1	-1E+10	1	-1E+10	1	-1E+10	1
4901784	223	C	08/12/2021	10:45	-136.378	43.154	0	1480.00	0	2.6030	0	38.8770	8	31.034	0	1463.040	0	24.3	4	7.7	4	-1E+10	1	-1E+10	1	-1E+10	1	-1E+10	1	-1E+10	1	-1E+10	1
4901784	223	C	08/12/2021	10:45	-136.378	43.154	0	1485.20	0	2.5930	0	38.8790	8	31.037	0	1468.163	0	24.6	4	7.8	4	-1E+10	1	-1E+10	1	-1E+10	1	-1E+10	1	-1E+10	1	-1E+10	1
4901784	223	C	08/12/2021	10:45	-136.378	43.154	0	1490.40	0	2.5850	0	38.8810	8	31.039	0	1473.285	0	24.9	4	7.9	4	-1E+10	1	-1E+10	1	-1E+10	1	-1E+10	1	-1E+10	1	-1E+10	1
4901784	223	C	08/12/2021	10:45	-136.378	43.154	0	1495.60	0	2.5750	0	38.8830	8	31.042	0	1478.407	0	25.1	4	7.9	4	-1E+10	1	-1E+10	1	-1E+10	1	-1E+10	1	-1E+10	1	-1E+10	1
4901784	223	C	08/12/2021	10:45	-136.378	43.154	0	1500.10	0	2.5720	0	38.8840	8	31.043	0	1482.839	0	25.4	4	8.0	4	-1E+10	1	-1E+10	1	-1E+10	1	-1E+10	1	-1E+10	1	-1E+10	1
4901784	223	C	08/12/2021	10:45	-136.378	43.154	0	1504.50	0	2.5610	0	38.8860	8	31.046	0	1487.173	0	25.6	4	8.1	4	-1E+10	1	-1E+10	1	-1E+10	1	-1E+10	1	-1E+10	1	-1E+10	1
4901784	223	C	08/12/2021	10:45	-136.378	43.154	0	1510.00	0	2.5530	0	38.8880	8	31.048	0	1492.591	0	25.9	4	8.2	4	-1E+10	1	-1E+10	1	-1E+10	1	-1E+10	1	-1E+10	1	-1E+10	1
4901784	223	C	08/12/2021	10:45	-136.378	43.154	0	1515.30	0	2.5450	0	38.8900	8	31.051	0	1497.811	0	26.1	4	8.3	4	-1E+10	1	-1E+10	1	-1E+10	1	-1E+10	1	-1E+10	1	-1E+10	1
4901784	223	C	08/12/2021	10:45	-136.378	43.154	0	1520.60	0	2.5370	0	38.8920	8	31.053	0	1503.031	0	26.4	4	8.3	4	-1E+10	1	-1E+10	1	-1E+10	1	-1E+10	1	-1E+10	1	-1E+10	1
4901784	223	C	08/12/2021	10:45	-136.378	43.154	0	1525.40	0	2.5310	0	38.8920	8	31.054	0	1507.758	0	26.7	4	8.4	4	-1E+10	1	-1E+10	1	-1E+10	1	-1E+10	1	-1E+10	1	-1E+10	1
4901784	223	C	08/12/2021	10:45	-136.378	43.154	0	1530.20	0	2.5180	0	38.8950	8	31.057	0	1512.485	0	27.1	4	8.6	4	-1E+10	1	-1E+10	1	-1E+10	1	-1E+10	1	-1E+10	1	-1E+10	1
4901784	223	C	08/12/2021	10:45	-136.378	43.154	0	1535.10	0	2.5060	0	38.8980	8	31.061	0	1517.311	0	27.4	4	8.6	4	-1E+10	1	-1E+10	1	-1E+10	1	-1E+10	1	-1E+10	1	-1E+10	1
4901784	223	C	08/12/2021	10:45	-136.378	43.154	0	1540.00	0	2.4980	0	38.8990	8	31.063	0	1522.137	0	27.8	4	8.8	4	-1E+10	1	-1E+10	1	-1E+10	1	-1E+10	1	-1E+10	1	-1E+10	1
4901784	223	C	08/12/2021	10:45	-136.378	43.154	0	1544.90	0	2.4860	0	38.9020	8	31.066	0	1526.962	0	28.1	4	8.9	4	-1E+10	1	-1E+10	1	-1E+10	1	-1E+10	1	-1E+10	1	-1E+10	1
4901784	223	C	08/12/2021	10:45	-136.378	43.154	0	1549.90	0	2.4780	0	38.9040	8	31.069	0	1531.886	0	28.4	4	9.0	4	-1E+10	1	-1E+10	1	-1E+10	1	-1E+10	1	-1E+10	1	-1E+10	1
4901784	223	C	08/12/2021	10:45	-136.378	43.154	0	1554.90	0	2.4700	0	38.9050	8	31.070	0	1536.810	0	28.7	4	9.0	4	-1E+10	1	-1E+10	1	-1E+10	1	-1E+10	1	-1E+10	1	-1E+10	1
4901784	223	C	08/12/2021	10:45	-136.378	43.154	0	1560.00	0	2.4600	0	38.9070	8	31.073	0	1541.832	0	29.0	4	9.1	4	-1E+10	1	-1E+10	1	-1E+10	1	-1E+10	1	-1E+10	1	-1E+10	1
4901784	223	C	08/12/2021	10:45	-136.378	43.154	0	1565.10	0	2.4510	0	38.9090	8	31.075	0	1546.854	0	29.4	4	9.3	4	-1E+10	1	-1E+10	1	-1E+10	1	-1E+10	1	-1E+10	1	-1E+10	1
4901784	223	C	08/12/2021	10:45	-136.378	43.154	0	1570.30	0	2.4420	0	38.9110	8	31.078	0	1551.974	0	29.7	4	9.4	4	-1E+10	1	-1E+10	1	-1E+10	1	-1E+10	1	-1E+10	1	-1E+10	1
4901784	223	C	08/12/2021	10:45	-136.378	43.154	0	1575.50	0	2.4300	0	38.9130	8	31.081	0	1557.094	0	30.1	4	9.5	4	-1E+10	1	-1E+10	1	-1E+10	1	-1E+10	1	-1E+10	1	-1E+10	1
4901784	223	C	08/12/2021	10:45	-136.378	43.154	0	1580.00	0	2.4200	0	38.9150	8	31.083	0	1561.525	0	30.3	4	9.6	4	-1E+10	1	-1E+10	1	-1E+10	1	-1E+10	1	-1E+10	1	-1E+10	1
4901784	223	C	08/12/2021	10:45	-136.378	43.154	0	1584.40	0	2.4160	0	38.9160	8	31.084	0	1565.858	0	30.5	4	9.6	4	-1E+10	1	-1E+10	1	-1E+10	1	-1E+10	1	-1E+10	1	-1E+10	1
4901784	223	C	08/12/2021	10:45	-136.378	43.154	0	1589.80	0	2.4090	0	38.9180	8	31.087	0	1571.174	0	30.8	4	9.7	4	-1E+10	1	-1E+10	1	-1E+10	1	-1E+10	1	-1E+10	1	-1E+10	1
4901784	223	C	08/12/2021	10:45	-136.378	43.154	0	1595.10	0	2.4020	0	38.9190	8	31.088	0	1576.392	0	31.1	4	9.8	4	-1E+10	1	-1E+10	1	-1E+10	1	-1E+10	1	-1E+10	1	-1E+10	1
4901784	223	C	08/12/2021	10:45	-136.378	43.154	0	1600.50	0	2.3940	0	38.9220	8	31.091	0	1581.709	0	31.3	4	9.9	4	-1E+10	1	-1E+10	1	-1E+10	1	-1E+10	1	-1E+10	1	-1E+10	1
4901784	223	C	08/12/2021	10:45	-136.378	43.154	0	1605.00	0	2.3880	0	38.9230	8	31.093	0	1586.139	0	31.5	4	9.9	4	-1E+10	1	-1E+10	1	-1E+10	1	-1E+10	1	-1E+10	1	-1E+10	1
4901784	223	C	08/12/2021	10:45	-136.378	43.154	0	1609.60	0	2.3820	0	38.9240	8	31.094	0	1590.668	0	31.7	4	10.0	4	-1E+10	1	-1E+10	1	-1E+10	1	-1E+10	1	-1E+10	1	-1E+10	1
4901784	223	C	08/12/2021	10:45	-136.378	43.154	0	1615.60	0	2.3760	0	38.9260	8	31.096	0	1596.575	0	31.9	4	10.0	4	-1E+10	1	-1E+10	1	-1E+10	1	-1E+10	1	-1E+10	1	-1E+10	1
4901784	223	C	08/12/2021	10:45	-136.378	43.154	0	1620.60	0	2.3740	0	38.9270	8	31.097	0	1601.497	0	32.1	4	10.1	4	-1E+10	1	-1E+10	1	-1E+10	1	-1E+10	1	-1E+10	1	-1E+10	1
4901784	223	C	08/12/2021	10:45	-136.378	43.154	0	1625.30	0	2.3660	0	38.9280	8	31.099	0	1606.124	0	32.4	4	10.2	4	-1E+10	1	-1E+10	1	-1E+10	1	-1E+10	1	-1E+10	1	-1E+10	1
4901784	223	C	08/12/2021	10:45	-136.378	43.154	0	1630.00	0	2.3580	0	38.9300	8	31.101	0	1610.750	0	32.7	4	10.3	4	-1E+10	1	-1E+10	1	-1E+10	1	-1E+10	1	-1E+10	1	-1E+10	1
4901784	223	C	08/12/2021	10:45	-136.378	43.154	0	1634.80	0	2.3520	0	38.9320	8	31.104	0	1615.476	0	33.0	4	10.4	4	-1E+10	1	-1E+10	1	-1E+10	1	-1E+10	1	-1E+10	1	-1E+10	1
4901784	223	C	08/12/2021	10:45	-136.378	43.154	0	1639.60	0	2.3450	0	38.9340	8	31.106	0	1620.200	0	33.2	4	10.4	4	-1E+10	1	-1E+10	1	-1E+10	1	-1E+10	1	-1E+10	1	-1E+10	1
4901784	223	C	08/12/2021	10:45	-136.378	43.154	0	1644.40	0	2.3400	0	38.9350	8	31.107	0	1624.925	0	33.5	4	10.5	4	-1E+10	1	-1E+10	1	-1E+10	1	-1E+10	1	-1E+10	1	-1E+10	1
4901784	223	C	08/12/2021	10:45	-136.378	43.154	0	1649.30	0	2.3350	0	38.9370	8	31.109	0	1629.748	0	33.7	4	10.6	4	-1E+10	1	-1E+10	1	-1E+10	1	-1E+10	1	-1E+10	1	-1E+10	1
4901784	223	C	08/12/2021	10:45	-136.378	43.154	0	1654.20	0	2.3280	0	38.9380	8	31.111	0	1634.571	0	34.1	4	10.7	4	-1E+10	1	-1E+10	1	-1E+10	1	-1E+10	1	-1E+10	1	-1E+10	1
4901784	223	C	08/12/2021	10:45	-136.378	43.154	0	1660.00	0	2.3180	0	38.9410	8	31.114	0	1640.280	0	34.5	4	10.8	4	-1E+10	1	-1E+10	1	-1E+10	1	-1E+10	1	-1E+10	1	-1E+10	1
4901784	223	C	08/12/2021	10:45	-136.378	43.154	0	1665.00	0	2.3110	0	38.9420	8	31.116	0	1645.201	0	34.8	4	10.9	4	-1E+10	1	-1E+10	1	-1E+10	1	-1E+10	1	-1E+10	1	-1E+10	1
4901784	223	C	08/12/2021	10:45	-136.378	43.154	0	1669.20	0	2.3050	0	38.9440	8	31.118	0	1649.335	0	35.0	4	11.0	4	-1E+10	1	-1E+10	1	-1E+10	1	-1E+10	1	-1E+10	1	-1E+10	1
4901784	223	C	08/12/2021	10:45	-136.378	43.154	0	1674.20	0	2.2990	0	38.9450	8	31.119	0	1654.256	0	35.2	4	11.1	4	-1E+10	1	-1E+10	1	-1E+10	1	-1E+10	1	-1E+10	1	-1E+10	1
4901784	223	C	08/12/2021	10:45	-136.378	43.154	0	1679.30	0	2.2950	0	38.9470	8	31.121	0	1659.275	0	35.4	4	11.1	4	-1E+10	1	-1E+10	1	-1E+10	1	-1E+10	1	-1E+10	1	-1E+10	1
4901784	223	C	08/12/2021	10:45	-136.378	43.154	0	1684.40	0	2.2920	0	38.9470	8	31.122	0	1664.295	0	35.6	4	11.2	4	-1E+10	1	-1E+10	1	-1E+10	1	-1E+10	1	-1E+10	1	-1E+10	1
4901784	223	C	08/12/2021	10:45	-136.378	43.154	0	1689.40	0	2.2850	0	38.9490	8	31.124	0	1669.215	0	36.0	4	11.3	4	-1E+10	1	-1E+10	1	-1E+10	1	-1E+10	1	-1E+10	1	-1E+10	1
4901784	223	C	08/12/2021	10:45	-136.378	43.154	0	1694.60	0	2.2780	0	38.9510	8	31.126	0	1674.332	0	36.2	4	11.4	4	-1E+10	1	-1E+10	1	-1E+10	1	-1E+10	1	-1E+10	1	-1E+10	1
4901784	223	C	08/12/2021	10:45	-136.378	43.154	0	1699.70	0	2.2730	0	38.9520	8	31.128	0	1679.351	0	36.5	4	11.5	4	-1E+10	1	-1E+10	1	-1E+10	1	-1E+10	1	-1E+10	1	-1E+10	1
4901784	223	C	08/12/2021	10:45	-136.378	43.154	0	1704.90	0	2.2670	0	38.9540	8	31.130	0	1684.468	0	36.7	4	11.5	4	-1E+10	1	-1E+10	1	-1E+10	1	-1E+10	1	-1E+10	1	-1E+10	1
4901784	223	C	08/12/2021	10:45	-136.378	43.154	0	1710.10	0	2.2620	0	38.9560	8	31.132	0	1689.585	0	37.0	4	11.6	4	-1E+10	1	-1E+10	1	-1E+10	1	-1E+10	1	-1E+10	1	-1E+10	1
4901784	223	C	08/12/2021	10:45	-136.378	43.154	0	1715.30	0	2.2570	0	38.9570	8	31.133	0	1694.702	0	37.2	4	11.7	4	-1E+10	1	-1E+10	1	-1E+10	1	-1E+10	1	-1E+10	1	-1E+10	1
4901784	223	C	08/12/2021	10:45	-136.378	43.154	0	1720.50	0	2.2540	0	38.9580	8	31.134	0	1699.819	0	37.5	4	11.8	4	-1E+10	1	-1E+10	1	-1E+10	1	-1E+10	1	-1E+10	1	-1E+10	1
4901784	223	C	08/12/2021	10:45	-136.378	43.154	0	1724.80	0	2.2480	0	38.9600	8	31.137	0	1704.050	0	37.8	4	11.9	4	-1E+10	1	-1E+10	1	-1E+10	1	-1E+10	1	-1E+10	1	-1E+10	1
4901784	223	C	08/12/2021	10:45	-136.378	43.154	0	1729.20	0	2.2430	0	38.9610	8	31.138	0	1708.379	0	38.1	4	11.9	4	-1E+10	1	-1E+10	1	-1E+10	1	-1E+10	1	-1E+10	1	-1E+10	1
4901784	223	C	08/12/2021	10:45	-136.378	43.154	0	1734.50	0	2.2350	0	38.9630	8	31.140	0	1713.594	0	38.5	4	12.1	4	-1E+10	1	-1E+10	1	-1E+10	1	-1E+10	1	-1E+10	1	-1E+10	1
4901784	223	C	08/12/2021	10:45	-136.378	43.154	0	1739.70	0	2.2280	0	38.9640	8	31.142	0	1718.710	0	38.9	4	12.2	4	-1E+10	1	-1E+10	1	-1E+10	1	-1E+10	1	-1E+10	1	-1E+10	1
4901784	223	C	08/12/2021	10:45	-136.378	43.154	0	1745.00	0	2.2200	0	38.9660	8	31.144	0	1723.925	0	39.4	4	12.3	4	-1E+10	1	-1E+10	1	-1E+10	1	-1E+10	1	-1E+10	1	-1E+10	1
4901784	223	C	08/12/2021	10:45	-136.378	43.154	0	1750.40	0	2.2090	0	38.9690	8	31.148	0	1729.238	0	39.9	4	12.5	4	-1E+10	1	-1E+10	1	-1E+10	1	-1E+10	1	-1E+10	1	-1E+10	1
4901784	223	C	08/12/2021	10:45	-136.378	43.154	0	1755.70	0	2.1990	0	38.9710	8	31.150	0	1734.452	0	40.3	4	12.6	4	-1E+10	1	-1E+10	1	-1E+10	1	-1E+10	1	-1E+10	1	-1E+10	1
4901784	223	C	08/12/2021	10:45	-136.378	43.154	0	1760.10	0	2.1940	0	38.9730	8	31.152	0	1738.781	0	40.5	4	12.7	4	-1E+10	1	-1E+10	1	-1E+10	1	-1E+10	1	-1E+10	1	-1E+10	1
4901784	223	C	08/12/2021	10:45	-136.378	43.154	0	1764.50	0	2.1920	0	38.9730	8	31.152	0	1743.110	0	40.7	4	12.7	4	-1E+10	1	-1E+10	1	-1E+10	1	-1E+10	1	-1E+10	1	-1E+10	1
4901784	223	C	08/12/2021	10:45	-136.378	43.154	0	1769.90	0	2.1880	0	38.9740	8	31.154	0	1748.422	0	40.9	4	12.8	4	-1E+10	1	-1E+10	1	-1E+10	1	-1E+10	1	-1E+10	1	-1E+10	1
4901784	223	C	08/12/2021	10:45	-136.378	43.154	0	1775.20	0	2.1810	0	38.9760	8	31.156	0	1753.636	0	41.3	4	12.9	4	-1E+10	1	-1E+10	1	-1E+10	1	-1E+10	1	-1E+10	1	-1E+10	1
4901784	223	C	08/12/2021	10:45	-136.378	43.154	0	1780.60	0	2.1740	0	38.9780	8	31.158	0	1758.948	0	41.6	4	13.0	4	-1E+10	1	-1E+10	1	-1E+10	1	-1E+10	1	-1E+10	1	-1E+10	1
4901784	223	C	08/12/2021	10:45	-136.378	43.154	0	1785.10	0	2.1690	0	38.9800	8	31.160	0	1763.374	0	41.9	4	13.1	4	-1E+10	1	-1E+10	1	-1E+10	1	-1E+10	1	-1E+10	1	-1E+10	1
4901784	223	C	08/12/2021	10:45	-136.378	43.154	0	1789.70	0	2.1670	0	38.9800	8	31.161	0	1767.899	0	42.2	4	13.2	4	-1E+10	1	-1E+10	1	-1E+10	1	-1E+10	1	-1E+10	1	-1E+10	1
4901784	223	C	08/12/2021	10:45	-136.378	43.154	0	1795.10	0	2.1590	0	38.9820	8	31.163	0	1773.211	0	42.6	4	13.3	4	-1E+10	1	-1E+10	1	-1E+10	1	-1E+10	1	-1E+10	1	-1E+10	1
4901784	223	C	08/12/2021	10:45	-136.378	43.154	0	1800.60	0	2.1520	0	38.9840	8	31.165	0	1778.621	0	43.0	4	13.5	4	-1E+10	1	-1E+10	1	-1E+10	1	-1E+10	1	-1E+10	1	-1E+10	1
4901784	223	C	08/12/2021	10:45	-136.378	43.154	0	1805.10	0	2.1460	0	38.9860	8	31.167	0	1783.047	0	43.3	4	13.5	4	-1E+10	1	-1E+10	1	-1E+10	1	-1E+10	1	-1E+10	1	-1E+10	1
4901784	223	C	08/12/2021	10:45	-136.378	43.154	0	1809.70	0	2.1410	0	38.9870	8	31.169	0	1787.571	0	43.5	4	13.6	4	-1E+10	1	-1E+10	1	-1E+10	1	-1E+10	1	-1E+10	1	-1E+10	1
4901784	223	C	08/12/2021	10:45	-136.378	43.154	0	1815.10	0	2.1390	0	38.9880	8	31.170	0	1792.883	0	43.7	4	13.7	4	-1E+10	1	-1E+10	1	-1E+10	1	-1E+10	1	-1E+10	1	-1E+10	1
4901784	223	C	08/12/2021	10:45	-136.378	43.154	0	1820.60	0	2.1330	0	38.9900	8	31.172	0	1798.292	0	44.0	4	13.8	4	-1E+10	1	-1E+10	1	-1E+10	1	-1E+10	1	-1E+10	1	-1E+10	1
4901784	223	C	08/12/2021	10:45	-136.378	43.154	0	1825.10	0	2.1310	0	38.9910	8	31.173	0	1802.718	0	44.2	4	13.8	4	-1E+10	1	-1E+10	1	-1E+10	1	-1E+10	1	-1E+10	1	-1E+10	1
4901784	223	C	08/12/2021	10:45	-136.378	43.154	0	1829.70	0	2.1270	0	38.9920	8	31.174	0	1807.242	0	44.4	4	13.9	4	-1E+10	1	-1E+10	1	-1E+10	1	-1E+10	1	-1E+10	1	-1E+10	1
4901784	223	C	08/12/2021	10:45	-136.378	43.154	0	1835.10	0	2.1210	0	38.9930	8	31.176	0	1812.553	0	44.7	4	14.0	4	-1E+10	1	-1E+10	1	-1E+10	1	-1E+10	1	-1E+10	1	-1E+10	1
4901784	223	C	08/12/2021	10:45	-136.378	43.154	0	1840.60	0	2.1170	0	38.9950	8	31.178	0	1817.961	0	45.0	4	14.1	4	-1E+10	1	-1E+10	1	-1E+10	1	-1E+10	1	-1E+10	1	-1E+10	1
4901784	223	C	08/12/2021	10:45	-136.378	43.154	0	1845.10	0	2.1130	0	38.9960	8	31.179	0	1822.387	0	45.3	4	14.2	4	-1E+10	1	-1E+10	1	-1E+10	1	-1E+10	1	-1E+10	1	-1E+10	1
4901784	223	C	08/12/2021	10:45	-136.378	43.154	0	1849.70	0	2.1080	0	38.9970	8	31.180	0	1826.910	0	45.5	4	14.2	4	-1E+10	1	-1E+10	1	-1E+10	1	-1E+10	1	-1E+10	1	-1E+10	1
4901784	223	C	08/12/2021	10:45	-136.378	43.154	0	1855.10	0	2.1050	0	38.9980	8	31.181	0	1832.221	0	45.8	4	14.3	4	-1E+10	1	-1E+10	1	-1E+10	1	-1E+10	1	-1E+10	1	-1E+10	1
4901784	223	C	08/12/2021	10:45	-136.378	43.154	0	1860.60	0	2.0990	0	39.0000	8	31.183	0	1837.629	0	46.2	4	14.4	4	-1E+10	1	-1E+10	1	-1E+10	1	-1E+10	1	-1E+10	1	-1E+10	1
4901784	223	C	08/12/2021	10:45	-136.378	43.154	0	1865.20	0	2.0950	0	39.0010	8	31.185	0	1842.152	0	46.4	4	14.5	4	-1E+10	1	-1E+10	1	-1E+10	1	-1E+10	1	-1E+10	1	-1E+10	1
4901784	223	C	08/12/2021	10:45	-136.378	43.154	0	1869.70	0	2.0910	0	39.0020	8	31.186	0	1846.577	0	46.7	4	14.6	4	-1E+10	1	-1E+10	1	-1E+10	1	-1E+10	1	-1E+10	1	-1E+10	1
4901784	223	C	08/12/2021	10:45	-136.378	43.154	0	1875.10	0	2.0850	0	39.0040	8	31.188	0	1851.887	0	47.1	4	14.7	4	-1E+10	1	-1E+10	1	-1E+10	1	-1E+10	1	-1E+10	1	-1E+10	1
4901784	223	C	08/12/2021	10:45	-136.378	43.154	0	1880.60	0	2.0790	0	39.0050	8	31.189	0	1857.295	0	47.4	4	14.8	4	-1E+10	1	-1E+10	1	-1E+10	1	-1E+10	1	-1E+10	1	-1E+10	1
4901784	223	C	08/12/2021	10:45	-136.378	43.154	0	1885.10	0	2.0750	0	39.0060	8	31.190	0	1861.719	0	47.6	4	14.9	4	-1E+10	1	-1E+10	1	-1E+10	1	-1E+10	1	-1E+10	1	-1E+10	1
4901784	223	C	08/12/2021	10:45	-136.378	43.154	0	1889.70	0	2.0710	0	39.0070	8	31.192	0	1866.242	0	47.9	4	15.0	4	-1E+10	1	-1E+10	1	-1E+10	1	-1E+10	1	-1E+10	1	-1E+10	1
4901784	223	C	08/12/2021	10:45	-136.378	43.154	0	1895.20	0	2.0650	0	39.0090	8	31.194	0	1871.650	0	48.3	4	15.1	4	-1E+10	1	-1E+10	1	-1E+10	1	-1E+10	1	-1E+10	1	-1E+10	1
4901784	223	C	08/12/2021	10:45	-136.378	43.154	0	1899.80	0	2.0590	0	39.0100	8	31.195	0	1876.172	0	48.8	4	15.2	4	-1E+10	1	-1E+10	1	-1E+10	1	-1E+10	1	-1E+10	1	-1E+10	1
4901784	223	C	08/12/2021	10:45	-136.378	43.154	0	1904.40	0	2.0540	0	39.0120	8	31.197	0	1880.695	0	49.1	4	15.3	4	-1E+10	1	-1E+10	1	-1E+10	1	-1E+10	1	-1E+10	1	-1E+10	1
4901784	223	C	08/12/2021	10:45	-136.378	43.154	0	1909.90	0	2.0480	0	39.0130	8	31.199	0	1886.102	0	49.6	4	15.5	4	-1E+10	1	-1E+10	1	-1E+10	1	-1E+10	1	-1E+10	1	-1E+10	1
4901784	223	C	08/12/2021	10:45	-136.378	43.154	0	1915.30	0	2.0410	0	39.0150	8	31.201	0	1891.411	0	49.9	4	15.6	4	-1E+10	1	-1E+10	1	-1E+10	1	-1E+10	1	-1E+10	1	-1E+10	1
4901784	223	C	08/12/2021	10:45	-136.378	43.154	0	1919.90	0	2.0400	0	39.0160	8	31.202	0	1895.933	0	50.1	4	15.7	4	-1E+10	1	-1E+10	1	-1E+10	1	-1E+10	1	-1E+10	1	-1E+10	1
4901784	223	C	08/12/2021	10:45	-136.378	43.154	0	1924.50	0	2.0360	0	39.0170	8	31.203	0	1900.455	0	50.4	4	15.7	4	-1E+10	1	-1E+10	1	-1E+10	1	-1E+10	1	-1E+10	1	-1E+10	1
4901784	223	C	08/12/2021	10:45	-136.378	43.154	0	1930.00	0	2.0310	0	39.0180	8	31.204	0	1905.862	0	50.8	4	15.9	4	-1E+10	1	-1E+10	1	-1E+10	1	-1E+10	1	-1E+10	1	-1E+10	1
4901784	223	C	08/12/2021	10:45	-136.378	43.154	0	1935.50	0	2.0240	0	39.0200	8	31.207	0	1911.268	0	51.2	4	16.0	4	-1E+10	1	-1E+10	1	-1E+10	1	-1E+10	1	-1E+10	1	-1E+10	1
4901784	223	C	08/12/2021	10:45	-136.378	43.154	0	1940.10	0	2.0210	0	39.0210	8	31.208	0	1915.790	0	51.5	4	16.1	4	-1E+10	1	-1E+10	1	-1E+10	1	-1E+10	1	-1E+10	1	-1E+10	1
4901784	223	C	08/12/2021	10:45	-136.378	43.154	0	1944.70	0	2.0160	0	39.0220	8	31.209	0	1920.311	0	51.9	4	16.2	4	-1E+10	1	-1E+10	1	-1E+10	1	-1E+10	1	-1E+10	1	-1E+10	1
4901784	223	C	08/12/2021	10:45	-136.378	43.154	0	1950.20	0	2.0110	0	39.0230	8	31.210	0	1925.718	0	52.3	4	16.3	4	-1E+10	1	-1E+10	1	-1E+10	1	-1E+10	1	-1E+10	1	-1E+10	1
4901784	223	C	08/12/2021	10:45	-136.378	43.154	0	1954.80	0	2.0050	0	39.0250	8	31.213	0	1930.239	0	52.7	4	16.4	4	-1E+10	1	-1E+10	1	-1E+10	1	-1E+10	1	-1E+10	1	-1E+10	1
4901784	223	C	08/12/2021	10:45	-136.378	43.154	0	1959.50	0	2.0010	0	39.0260	8	31.214	0	1934.859	0	53.0	4	16.5	4	-1E+10	1	-1E+10	1	-1E+10	1	-1E+10	1	-1E+10	1	-1E+10	1
4901784	223	C	08/12/2021	10:45	-136.378	43.154	0	1965.10	0	1.9960	0	39.0270	8	31.215	0	1940.363	0	53.4	4	16.6	4	-1E+10	1	-1E+10	1	-1E+10	1	-1E+10	1	-1E+10	1	-1E+10	1
4901784	223	C	08/12/2021	10:45	-136.378	43.154	0	1969.80	0	1.9910	0	39.0280	8	31.216	0	1944.982	0	53.7	4	16.7	4	-1E+10	1	-1E+10	1	-1E+10	1	-1E+10	1	-1E+10	1	-1E+10	1
4901784	223	C	08/12/2021	10:45	-136.378	43.154	0	1974.40	0	1.9870	0	39.0290	8	31.218	0	1949.503	0	53.9	4	16.8	4	-1E+10	1	-1E+10	1	-1E+10	1	-1E+10	1	-1E+10	1	-1E+10	1
4901784	223	C	08/12/2021	10:45	-136.378	43.154	0	1979.90	0	1.9840	0	39.0300	8	31.219	0	1954.909	0	54.2	4	16.9	4	-1E+10	1	-1E+10	1	-1E+10	1	-1E+10	1	-1E+10	1	-1E+10	1
4901784	223	C	08/12/2021	10:45	-136.378	43.154	0	1985.50	0	1.9790	0	39.0310	8	31.220	0	1960.412	0	54.5	4	17.0	4	-1E+10	1	-1E+10	1	-1E+10	1	-1E+10	1	-1E+10	1	-1E+10	1
4901784	223	C	08/12/2021	10:45	-136.378	43.154	0	1990.40	0	1.9760	0	39.0320	8	31.221	0	1965.228	0	54.8	4	17.1	4	-1E+10	1	-1E+10	1	-1E+10	1	-1E+10	1	-1E+10	1	-1E+10	1
4901784	223	C	08/12/2021	10:45	-136.378	43.154	0	1995.40	0	1.9730	0	39.0330	8	31.222	0	1970.141	0	55.0	4	17.2	4	-1E+10	1	-1E+10	1	-1E+10	1	-1E+10	1	-1E+10	1	-1E+10	1
4901784	223	C	08/12/2021	10:45	-136.378	43.154	0	2000.30	0	1.9700	0	39.0340	8	31.223	0	1974.957	0	55.2	4	17.2	4	-1E+10	1	-1E+10	1	-1E+10	1	-1E+10	1	-1E+10	1	-1E+10	1
4901784	223	C	08/12/2021	10:45	-136.378	43.154	0	2005.00	0	1.9670	0	39.0350	8	31.224	0	1979.575	0	55.5	4	17.3	4	-1E+10	1	-1E+10	1	-1E+10	1	-1E+10	1	-1E+10	1	-1E+10	1
4901784	223	C	08/12/2021	10:45	-136.378	43.154	0	2009.60	0	1.9630	0	39.0360	8	31.226	0	1984.096	0	55.7	4	17.4	4	-1E+10	1	-1E+10	1	-1E+10	1	-1E+10	1	-1E+10	1	-1E+10	1
4901784	223	C	08/12/2021	10:45	-136.378	43.154	0	2015.10	0	1.9590	0	39.0370	8	31.227	0	1989.500	0	56.0	4	17.5	4	-1E+10	1	-1E+10	1	-1E+10	1	-1E+10	1	-1E+10	1	-1E+10	1
4901784	223	C	08/12/2021	10:45	-136.378	43.154	0	2018.90	0	1.9560	0	39.0380	8	31.228	0	1993.234	0	56.2	4	17.5	4	-1E+10	1	-1E+10	1	-1E+10	1	-1E+10	1	-1E+10	1	-1E+10	1
4901784	223	C	08/12/2021	10:45	-136.378	43.154	0																										
4901784	224	C	08/22/2021	10:49	-136.396	43.128	0	2.60	0	19.3540	0	36.0750	8	25.753	0	2.579	0	219.7	4	97.0	4	-1E+10	1	-1E+10	1	-1E+10	1	-1E+10	1	-1E+10	1	-1E+10	1
4901784	224	C	08/22/2021	10:49	-136.396	43.128	0	4.00	0	19.3540	0	36.0760	8	25.754	0	3.968	0	219.5	4	96.9	4	-1E+10	1	-1E+10	1	-1E+10	1	-1E+10	1	-1E+10	1	-1E+10	1
4901784	224	C	08/22/2021	10:49	-136.396	43.128	0	5.40	0	19.3550	0	36.0780	8	25.755	0	5.357	0	219.4	4	96.8	4	-1E+10	1	-1E+10	1	-1E+10	1	-1E+10	1	-1E+10	1	-1E+10	1
4901784	224	C	08/22/2021	10:49	-136.396	43.128	0	6.80	0	19.3560	0	36.0790	8	25.756	0	6.746	0	219.4	4	96.8	4	-1E+10	1	-1E+10	1	-1E+10	1	-1E+10	1	-1E+10	1	-1E+10	1
4901784	224	C	08/22/2021	10:49	-136.396	43.128	0	8.20	0	19.3580	0	36.0790	8	25.755	0	8.135	0	219.1	4	96.7	4	-1E+10	1	-1E+10	1	-1E+10	1	-1E+10	1	-1E+10	1	-1E+10	1
4901784	224	C	08/22/2021	10:49	-136.396	43.128	0	9.70	0	19.3550	0	36.0810	8	25.758	0	9.623	0	218.9	4	96.6	4	-1E+10	1	-1E+10	1	-1E+10	1	-1E+10	1	-1E+10	1	-1E+10	1
4901784	224	C	08/22/2021	10:49	-136.396	43.128	0	11.20	0	19.3550	0	36.0820	8	25.758	0	11.111	0	219.1	4	96.7	4	-1E+10	1	-1E+10	1	-1E+10	1	-1E+10	1	-1E+10	1	-1E+10	1
4901784	224	C	08/22/2021	10:49	-136.396	43.128	0	12.80	0	19.3580	0	36.0820	8	25.758	0	12.698	0	218.8	4	96.6	4	-1E+10	1	-1E+10	1	-1E+10	1	-1E+10	1	-1E+10	1	-1E+10	1
4901784	224	C	08/22/2021	10:49	-136.396	43.128	0	14.50	0	19.3550	0	36.0840	8	25.760	0	14.384	0	218.8	4	96.6	4	-1E+10	1	-1E+10	1	-1E+10	1	-1E+10	1	-1E+10	1	-1E+10	1
4901784	224	C	08/22/2021	10:49	-136.396	43.128	0	16.10	0	19.3590	0	36.0830	8	25.758	0	15.971	0	218.6	4	96.5	4	-1E+10	1	-1E+10	1	-1E+10	1	-1E+10	1	-1E+10	1	-1E+10	1
4901784	224	C	08/22/2021	10:49	-136.396	43.128	0	17.90	0	19.3610	0	36.0840	8	25.759	0	17.757	0	218.5	4	96.5	4	-1E+10	1	-1E+10	1	-1E+10	1	-1E+10	1	-1E+10	1	-1E+10	1
4901784	224	C	08/22/2021	10:49	-136.396	43.128	0	19.80	0	19.3600	0	36.0830	8	25.758	0	19.642	0	218.6	4	96.5	4	-1E+10	1	-1E+10	1	-1E+10	1	-1E+10	1	-1E+10	1	-1E+10	1
4901784	224	C	08/22/2021	10:49	-136.396	43.128	0	21.60	0	19.3610	0	36.0810	8	25.757	0	21.427	0	218.7	4	96.6	4	-1E+10	1	-1E+10	1	-1E+10	1	-1E+10	1	-1E+10	1	-1E+10	1
4901784	224	C	08/22/2021	10:49	-136.396	43.128	0	23.50	0	19.3600	0	36.0780	8	25.755	0	23.312	0	219.0	4	96.7	4	-1E+10	1	-1E+10	1	-1E+10	1	-1E+10	1	-1E+10	1	-1E+10	1
4901784	224	C	08/22/2021	10:49	-136.396	43.128	0	25.10	0	19.3620	0	36.0720	8	25.750	0	24.899	0	219.4	4	96.9	4	-1E+10	1	-1E+10	1	-1E+10	1	-1E+10	1	-1E+10	1	-1E+10	1
4901784	224	C	08/22/2021	10:49	-136.396	43.128	0	27.20	0	19.3630	0	36.0610	8	25.741	0	26.982	0	220.2	4	97.2	4	-1E+10	1	-1E+10	1	-1E+10	1	-1E+10	1	-1E+10	1	-1E+10	1
4901784	224	C	08/22/2021	10:49	-136.396	43.128	0	27.60	0	19.3640	0	36.0570	8	25.738	0	27.379	0	221.0	4	97.5	4	-1E+10	1	-1E+10	1	-1E+10	1	-1E+10	1	-1E+10	1	-1E+10	1
4901784	224	C	08/22/2021	10:49	-136.396	43.128	0	28.90	0	19.3640	0	36.0370	8	25.723	0	28.668	0	222.5	4	98.2	4	-1E+10	1	-1E+10	1	-1E+10	1	-1E+10	1	-1E+10	1	-1E+10	1
4901784	224	C	08/22/2021	10:49	-136.396	43.128	0	30.30	0	19.3320	8	36.0130	8	25.713	0	30.057	0	225.3	4	99.3	4	-1E+10	1	-1E+10	1	-1E+10	1	-1E+10	1	-1E+10	1	-1E+10	1
4901784	224	C	08/22/2021	10:49	-136.396	43.128	0	31.60	0	19.2860	8	35.9470	8	25.674	0	31.347	0	229.0	4	100.9	4	-1E+10	1	-1E+10	1	-1E+10	1	-1E+10	1	-1E+10	1	-1E+10	1
4901784	224	C	08/22/2021	10:49	-136.396	43.128	0	33.30	0	18.0160	0	35.9300	8	25.983	0	33.033	0	237.9	4	102.3	4	-1E+10	1	-1E+10	1	-1E+10	1	-1E+10	1	-1E+10	1	-1E+10	1
4901784	224	C	08/22/2021	10:49	-136.396	43.128	0	35.00	0	16.7250	0	35.9880	8	26.341	0	34.719	0	245.1	4	103.0	4	-1E+10	1	-1E+10	1	-1E+10	1	-1E+10	1	-1E+10	1	-1E+10	1
4901784	224	C	08/22/2021	10:49	-136.396	43.128	0	36.70	0	16.6150	0	35.9650	8	26.349	0	36.405	0	247.0	4	103.5	4	-1E+10	1	-1E+10	1	-1E+10	1	-1E+10	1	-1E+10	1	-1E+10	1
4901784	224	C	08/22/2021	10:49	-136.396	43.128	0	38.40	0	16.3210	0	35.9560	8	26.411	0	38.091	0	248.4	4	103.5	4	-1E+10	1	-1E+10	1	-1E+10	1	-1E+10	1	-1E+10	1	-1E+10	1
4901784	224	C	08/22/2021	10:49	-136.396	43.128	0	40.10	0	15.8570	0	35.9510	8	26.515	0	39.777	0	251.4	4	103.8	4	-1E+10	1	-1E+10	1	-1E+10	1	-1E+10	1	-1E+10	1	-1E+10	1
4901784	224	C	08/22/2021	10:49	-136.396	43.128	0	42.00	0	15.5450	0	35.9820	8	26.610	0	41.662	0	253.6	4	104.1	4	-1E+10	1	-1E+10	1	-1E+10	1	-1E+10	1	-1E+10	1	-1E+10	1
4901784	224	C	08/22/2021	10:49	-136.396	43.128	0	43.80	0	15.1020	0	35.9680	8	26.698	0	43.447	0	256.4	4	104.4	4	-1E+10	1	-1E+10	1	-1E+10	1	-1E+10	1	-1E+10	1	-1E+10	1
4901784	224	C	08/22/2021	10:49	-136.396	43.128	0	45.80	0	14.7690	0	35.9850	8	26.785	0	45.431	0	258.6	4	104.6	4	-1E+10	1	-1E+10	1	-1E+10	1	-1E+10	1	-1E+10	1	-1E+10	1
4901784	224	C	08/22/2021	10:49	-136.396	43.128	0	47.70	0	14.5290	0	36.0250	8	26.868	0	47.316	0	259.7	4	104.6	4	-1E+10	1	-1E+10	1	-1E+10	1	-1E+10	1	-1E+10	1	-1E+10	1
4901784	224	C	08/22/2021	10:49	-136.396	43.128	0	49.50	0	14.4270	0	36.0020	8	26.873	0	49.101	0	260.8	4	104.8	4	-1E+10	1	-1E+10	1	-1E+10	1	-1E+10	1	-1E+10	1	-1E+10	1
4901784	224	C	08/22/2021	10:49	-136.396	43.128	0	51.20	0	14.3210	0	35.9810	8	26.879	0	50.787	0	261.5	4	104.8	4	-1E+10	1	-1E+10	1	-1E+10	1	-1E+10	1	-1E+10	1	-1E+10	1
4901784	224	C	08/22/2021	10:49	-136.396	43.128	0	53.00	0	13.6570	0	35.9660	8	27.009	0	52.572	0	264.6	4	104.7	4	-1E+10	1	-1E+10	1	-1E+10	1	-1E+10	1	-1E+10	1	-1E+10	1
4901784	224	C	08/22/2021	10:49	-136.396	43.128	0	54.70	0	13.4390	0	35.9870	8	27.070	0	54.258	0	265.4	4	104.5	4	-1E+10	1	-1E+10	1	-1E+10	1	-1E+10	1	-1E+10	1	-1E+10	1
4901784	224	C	08/22/2021	10:49	-136.396	43.128	0	56.50	0	13.1380	0	35.9720	8	27.120	0	56.043	0	266.1	4	104.2	4	-1E+10	1	-1E+10	1	-1E+10	1	-1E+10	1	-1E+10	1	-1E+10	1
4901784	224	C	08/22/2021	10:49	-136.396	43.128	0	58.90	0	12.7550	0	36.0020	8	27.221	0	58.424	0	265.1	4	103.0	4	-1E+10	1	-1E+10	1	-1E+10	1	-1E+10	1	-1E+10	1	-1E+10	1
4901784	224	C	08/22/2021	10:49	-136.396	43.128	0	60.80	0	12.3130	0	36.0330	8	27.333	0	60.308	0	265.2	4	102.1	4	-1E+10	1	-1E+10	1	-1E+10	1	-1E+10	1	-1E+10	1	-1E+10	1
4901784	224	C	08/22/2021	10:49	-136.396	43.128	0	62.40	0	12.2040	0	36.0340	8	27.355	0	61.895	0	263.6	4	101.3	4	-1E+10	1	-1E+10	1	-1E+10	1	-1E+10	1	-1E+10	1	-1E+10	1
4901784	224	C	08/22/2021	10:49	-136.396	43.128	0	64.00	0	11.9170	0	36.0540	8	27.426	0	63.482	0	262.3	4	100.2	4	-1E+10	1	-1E+10	1	-1E+10	1	-1E+10	1	-1E+10	1	-1E+10	1
4901784	224	C	08/22/2021	10:49	-136.396	43.128	0	65.60	0	11.8150	0	36.0560	8	27.448	0	65.068	0	260.3	4	99.2	4	-1E+10	1	-1E+10	1	-1E+10	1	-1E+10	1	-1E+10	1	-1E+10	1
4901784	224	C	08/22/2021	10:49	-136.396	43.128	0	67.10	0	11.7250	0	36.0530	8	27.462	0	66.556	0	257.9	4	98.1	4	-1E+10	1	-1E+10	1	-1E+10	1	-1E+10	1	-1E+10	1	-1E+10	1
4901784	224	C	08/22/2021	10:49	-136.396	43.128	0	68.70	0	11.4770	0	36.0610	8	27.516	0	68.143	0	255.6	4	96.8	4	-1E+10	1	-1E+10	1	-1E+10	1	-1E+10	1	-1E+10	1	-1E+10	1
4901784	224	C	08/22/2021	10:49	-136.396	43.128	0	70.40	0	11.6440	0	36.1030	8	27.517	0	69.829	0	252.6	4	96.0	4	-1E+10	1	-1E+10	1	-1E+10	1	-1E+10	1	-1E+10	1	-1E+10	1
4901784	224	C	08/22/2021	10:49	-136.396	43.128	0	72.00	0	11.6100	0	36.1150	8	27.533	0	71.415	0	250.1	4	95.0	4	-1E+10	1	-1E+10	1	-1E+10	1	-1E+10	1	-1E+10	1	-1E+10	1
4901784	224	C	08/22/2021	10:49	-136.396	43.128	0	73.60	0	11.5650	0	36.1230	8	27.547	0	73.002	0	248.7	4	94.4	4	-1E+10	1	-1E+10	1	-1E+10	1	-1E+10	1	-1E+10	1	-1E+10	1
4901784	224	C	08/22/2021	10:49	-136.396	43.128	0	75.30	0	11.3840	0	36.1190	8	27.578	0	74.688	0	248.0	4	93.8	4	-1E+10	1	-1E+10	1	-1E+10	1	-1E+10	1	-1E+10	1	-1E+10	1
4901784	224	C	08/22/2021	10:49	-136.396	43.128	0	77.00	0	11.3570	0	36.1150	8	27.580	0	76.374	0	246.6	4	93.2	4	-1E+10	1	-1E+10	1	-1E+10	1	-1E+10	1	-1E+10	1	-1E+10	1
4901784	224	C	08/22/2021	10:49	-136.396	43.128	0	78.70	0	11.3000	0	36.1080	8	27.586	0	78.060	0	245.0	4	92.4	4	-1E+10	1	-1E+10	1	-1E+10	1	-1E+10	1	-1E+10	1	-1E+10	1
4901784	224	C	08/22/2021	10:49	-136.396	43.128	0	80.40	0	11.0770	0	36.0780	8	27.604	0	79.746	0	245.3	4	92.1	4	-1E+10	1	-1E+10	1	-1E+10	1	-1E+10	1	-1E+10	1	-1E+10	1
4901784	224	C	08/22/2021	10:49	-136.396	43.128	0	82.10	0	10.8890	0	36.0950	8	27.651	0	81.431	0	245.4	4	91.8	4	-1E+10	1	-1E+10	1	-1E+10	1	-1E+10	1	-1E+10	1	-1E+10	1
4901784	224	C	08/22/2021	10:49	-136.396	43.128	0	83.80	0	10.9510	0	36.0980	8	27.642	0	83.117	0	244.7	4	91.7	4	-1E+10	1	-1E+10	1	-1E+10	1	-1E+10	1	-1E+10	1	-1E+10	1
4901784	224	C	08/22/2021	10:49	-136.396	43.128	0	85.50	0	10.9510	0	36.1100	8	27.652	0	84.803	0	243.8	4	91.3	4	-1E+10	1	-1E+10	1	-1E+10	1	-1E+10	1	-1E+10	1	-1E+10	1
4901784	224	C	08/22/2021	10:49	-136.396	43.128	0	87.30	0	10.8250	0	36.1110	8	27.676	0	86.588	0	243.4	4	90.9	4	-1E+10	1	-1E+10	1	-1E+10	1	-1E+10	1	-1E+10	1	-1E+10	1
4901784	224	C	08/22/2021	10:49	-136.396	43.128	0	89.10	0	10.7320	0	36.1210	8	27.700	0	88.373	0	243.4	4	90.7	4	-1E+10	1	-1E+10	1	-1E+10	1	-1E+10	1	-1E+10	1	-1E+10	1
4901784	224	C	08/22/2021	10:49	-136.396	43.128	0	91.00	0	10.6750	0	36.1190	8	27.709	0	90.257	0	243.4	4	90.6	4	-1E+10	1	-1E+10	1	-1E+10	1	-1E+10	1	-1E+10	1	-1E+10	1
4901784	224	C	08/22/2021	10:49	-136.396	43.128	0	92.90	0	10.6320	0	36.1210	8	27.718	0	92.141	0	243.3	4	90.5	4	-1E+10	1	-1E+10	1	-1E+10	1	-1E+10	1	-1E+10	1	-1E+10	1
4901784	224	C	08/22/2021	10:49	-136.396	43.128	0	94.80	0	10.6060	0	36.1290	8	27.729	0	94.025	0	243.0	4	90.4	4	-1E+10	1	-1E+10	1	-1E+10	1	-1E+10	1	-1E+10	1	-1E+10	1
4901784	224	C	08/22/2021	10:49	-136.396	43.128	0	96.70	0	10.5200	0	36.1120	8	27.732	0	95.909	0	243.5	4	90.4	4	-1E+10	1	-1E+10	1	-1E+10	1	-1E+10	1	-1E+10	1	-1E+10	1
4901784	224	C	08/22/2021	10:49	-136.396	43.128	0	98.60	0	10.4000	0	36.1090	8	27.751	0	97.793	0	244.2	4	90.4	4	-1E+10	1	-1E+10	1	-1E+10	1	-1E+10	1	-1E+10	1	-1E+10	1
4901784	224	C	08/22/2021	10:49	-136.396	43.128	0	102.20	0	10.2980	0	36.1250	8	27.781	0	101.363	0	244.5	4	90.3	4	-1E+10	1	-1E+10	1	-1E+10	1	-1E+10	1	-1E+10	1	-1E+10	1
4901784	224	C	08/22/2021	10:49	-136.396	43.128	0	105.40	0	10.1450	0	36.1260	8	27.809	0	104.536	0	245.3	4	90.3	4	-1E+10	1	-1E+10	1	-1E+10	1	-1E+10	1	-1E+10	1	-1E+10	1
4901784	224	C	08/22/2021	10:49	-136.396	43.128	0	107.80	0	10.0800	0	36.1050	8	27.804	0	106.915	0	246.6	4	90.7	4	-1E+10	1	-1E+10	1	-1E+10	1	-1E+10	1	-1E+10	1	-1E+10	1
4901784	224	C	08/22/2021	10:49	-136.396	43.128	0	110.10	0	9.6880	0	36.0640	8	27.840	0	109.196	0	249.8	4	91.1	4	-1E+10	1	-1E+10	1	-1E+10	1	-1E+10	1	-1E+10	1	-1E+10	1
4901784	224	C	08/22/2021	10:49	-136.396	43.128	0	112.50	0	9.3680	0	36.0380	8	27.873	0	111.576	0	252.2	4	91.3	4	-1E+10	1	-1E+10	1	-1E+10	1	-1E+10	1	-1E+10	1	-1E+10	1
4901784	224	C	08/22/2021	10:49	-136.396	43.128	0	114.70	0	9.2170	0	36.0410	8	27.901	0	113.757	0	253.1	4	91.3	4	-1E+10	1	-1E+10	1	-1E+10	1	-1E+10	1	-1E+10	1	-1E+10	1
4901784	224	C	08/22/2021	10:49	-136.396	43.128	0	117.90	0	9.1240	0	36.0470	8	27.921	0	116.930	0	252.9	4	91.1	4	-1E+10	1	-1E+10	1	-1E+10	1	-1E+10	1	-1E+10	1	-1E+10	1
4901784	224	C	08/22/2021	10:49	-136.396	43.128	0	120.40	0	9.0880	0	36.0400	8	27.921	0	119.408	0	252.6	4	90.9	4	-1E+10	1	-1E+10	1	-1E+10	1	-1E+10	1	-1E+10	1	-1E+10	1
4901784	224	C	08/22/2021	10:49	-136.396	43.128	0	122.80	0	8.7980	0	36.0490	8	27.975	0	121.788	0	253.0	4	90.4	4	-1E+10	1	-1E+10	1	-1E+10	1	-1E+10	1	-1E+10	1	-1E+10	1
4901784	224	C	08/22/2021	10:49	-136.396	43.128	0	125.20	0	8.7090	0	36.0490	8	27.990	0	124.167	0	252.2	4	90.0	4	-1E+10	1	-1E+10	1	-1E+10	1	-1E+10	1	-1E+10	1	-1E+10	1
4901784	224	C	08/22/2021	10:49	-136.396	43.128	0	127.70	0	8.5980	0	36.0600	8	28.016	0	126.646	0	249.8	4	88.9	4	-1E+10	1	-1E+10	1	-1E+10	1	-1E+10	1	-1E+10	1	-1E+10	1
4901784	224	C	08/22/2021	10:49	-136.396	43.128	0	130.10	0	8.5120	0	36.0800	8	28.045	0	129.026	0	245.2	4	87.1	4	-1E+10	1	-1E+10	1	-1E+10	1	-1E+10	1	-1E+10	1	-1E+10	1
4901784	224	C	08/22/2021	10:49	-136.396	43.128	0	132.70	0	8.6120	0	36.1530	8	28.087	0	131.603	0	237.6	4	84.7	4	-1E+10	1	-1E+10	1	-1E+10	1	-1E+10	1	-1E+10	1	-1E+10	1
4901784	224	C	08/22/2021	10:49	-136.396	43.128	0	135.10	0	9.1680	0	36.3110	8	28.121	0	133.983	0	226.8	4	81.9	4	-1E+10	1	-1E+10	1	-1E+10	1	-1E+10	1	-1E+10	1	-1E+10	1
4901784	224	C	08/22/2021	10:49	-136.396	43.128	0	137.60	0	9.3060	0	36.3860	8	28.156	0	136.461	0	221.2	4	80.1	4	-1E+10	1	-1E+10	1	-1E+10	1	-1E+10	1	-1E+10	1	-1E+10	1
4901784	224	C	08/22/2021	10:49	-136.396	43.128	0	140.80	0	9.6040	0	36.5260	8	28.216	0	139.634	0	214.7	4	78.4	4	-1E+10	1	-1E+10	1	-1E+10	1	-1E+10	1	-1E+10	1	-1E+10	1
4901784	224	C	08/22/2021	10:49	-136.396	43.128	0	142.70	0	9.6240	0	36.5960	8	28.267	0	141.517	0	212.1	4	77.5	4	-1E+10	1	-1E+10	1	-1E+10	1	-1E+10	1	-1E+10	1	-1E+10	1
4901784	224	C	08/22/2021	10:49	-136.396	43.128	0	145.00	0	9.5860	0	36.6400	8	28.308	0	143.797	0	209.6	4	76.6	4	-1E+10	1	-1E+10	1	-1E+10	1	-1E+10	1	-1E+10	1	-1E+10	1
4901784	224	C	08/22/2021	10:49	-136.396	43.128	0	147.40	0	9.5180	0	36.7000	8	28.367	0	146.177	0	207.0	4	75.5	4	-1E+10	1	-1E+10	1	-1E+10	1	-1E+10	1	-1E+10	1	-1E+10	1
4901784	224	C	08/22/2021	10:49	-136.396	43.128	0	149.90	0	9.4370	0	36.7730	8	28.438	0	148.655	0	203.5	4	74.1	4	-1E+10	1	-1E+10	1	-1E+10	1	-1E+10	1	-1E+10	1	-1E+10	1
4901784	224	C	08/22/2021	10:49	-136.396	43.128	0	152.30	0	9.3220	0	36.8550	8	28.521	0	151.034	0	200.9	4	73.1	4	-1E+10	1	-1E+10	1	-1E+10	1	-1E+10	1	-1E+10	1	-1E+10	1
4901784	224	C	08/22/2021	10:49	-136.396	43.128	0	154.60	0	9.2680	0	36.8820	8	28.552	0	153.314	0	198.3	4	72.1	4	-1E+10	1	-1E+10	1	-1E+10	1	-1E+10	1	-1E+10	1	-1E+10	1
4901784	224	C	08/22/2021	10:49	-136.396	43.128	0	157.10	0	9.1470	0	36.9230	8	28.604	0	155.792	0	196.1	4	71.1	4	-1E+10	1	-1E+10	1	-1E+10	1	-1E+10	1	-1E+10	1	-1E+10	1
4901784	224	C	08/22/2021	10:49	-136.396	43.128	0	159.60	0	9.1180	0	36.9310	8	28.615	0	158.271	0	194.2	4	70.3	4	-1E+10	1	-1E+10	1	-1E+10	1	-1E+10	1	-1E+10	1	-1E+10	1
4901784	224	C	08/22/2021	10:49	-136.396	43.128	0	162.20	0	9.0000	0	36.9730	8	28.668	0	160.848	0	192.3	4	69.5	4	-1E+10	1	-1E+10	1	-1E+10	1	-1E+10	1	-1E+10	1	-1E+10	1
4901784	224	C	08/22/2021	10:49	-136.396	43.128	0	164.90	0	8.9270	0	37.0240	8	28.720	0	163.524	0	191.2	4	69.0	4	-1E+10	1	-1E+10	1	-1E+10	1	-1E+10	1	-1E+10	1	-1E+10	1
4901784	224	C	08/22/2021	10:49	-136.396	43.128	0	167.60	0	8.8860	0	37.0580	8	28.753	0	166.201	0	190.1	4	68.6	4	-1E+10	1	-1E+10	1	-1E+10	1	-1E+10	1	-1E+10	1	-1E+10	1
4901784	224	C	08/22/2021	10:49	-136.396	43.128	0	170.30	0	8.8470	0	37.0940	8	28.788	0	168.877	0	189.3	4	68.2	4	-1E+10	1	-1E+10	1	-1E+10	1	-1E+10	1	-1E+10	1	-1E+10	1
4901784	224	C	08/22/2021	10:49	-136.396	43.128	0	173.00	0	8.8330	0	37.1000	8	28.795	0	171.553	0	188.2	4	67.8	4	-1E+10	1	-1E+10	1	-1E+10	1	-1E+10	1	-1E+10	1	-1E+10	1
4901784	224	C	08/22/2021	10:49	-136.396	43.128	0	174.70	0	8.7550	0	37.1500	8	28.847	0	173.238	0	187.3	4	67.4	4	-1E+10	1	-1E+10	1	-1E+10	1	-1E+10	1	-1E+10	1	-1E+10	1
4901784	224	C	08/22/2021	10:49	-136.396	43.128	0	177.50	0	8.5730	0	37.1750	8	28.896	0	176.014	0	187.1	4	67.1	4	-1E+10	1	-1E+10	1	-1E+10	1	-1E+10	1	-1E+10	1	-1E+10	1
4901784	224	C	08/22/2021	10:49	-136.396	43.128	0	180.20	0	8.5330	0	37.1890	8	28.913	0	178.690	0	186.6	4	66.9	4	-1E+10	1	-1E+10	1	-1E+10	1	-1E+10	1	-1E+10	1	-1E+10	1
4901784	224	C	08/22/2021	10:49	-136.396	43.128	0	182.40	0	8.4460	0	37.2300	8	28.960	0	180.871	0	186.2	4	66.6	4	-1E+10	1	-1E+10	1	-1E+10	1	-1E+10	1	-1E+10	1	-1E+10	1
4901784	224	C	08/22/2021	10:49	-136.396	43.128	0	184.90	0	8.4490	0	37.2330	8	28.962	0	183.349	0	185.2	4	66.3	4	-1E+10	1	-1E+10	1	-1E+10	1	-1E+10	1	-1E+10	1	-1E+10	1
4901784	224	C	08/22/2021	10:49	-136.396	43.128	0	187.90	0	8.4310	0	37.2430	8	28.972	0	186.322	0	183.1	4	65.5	4	-1E+10	1	-1E+10	1	-1E+10	1	-1E+10	1	-1E+10	1	-1E+10	1
4901784	224	C	08/22/2021	10:49	-136.396	43.128	0	190.20	0	8.3740	0	37.2670	8	29.000	0	188.602	0	181.3	4	64.8	4	-1E+10	1	-1E+10	1	-1E+10	1	-1E+10	1	-1E+10	1	-1E+10	1
4901784	224	C	08/22/2021	10:49	-136.396	43.128	0	192.60	0	8.3570	0	37.2900	8	29.021	0	190.980	0	180.1	4	64.3	4	-1E+10	1	-1E+10	1	-1E+10	1	-1E+10	1	-1E+10	1	-1E+10	1
4901784	224	C	08/22/2021	10:49	-136.396	43.128	0	195.00	0	8.3420	0	37.3010	8	29.032	0	193.359	0	179.7	4	64.2	4	-1E+10	1	-1E+10	1	-1E+10	1	-1E+10	1	-1E+10	1	-1E+10	1
4901784	224	C	08/22/2021	10:49	-136.396	43.128	0	197.30	0	8.3160	0	37.3200	8	29.051	0	195.639	0	179.9	4	64.2	4	-1E+10	1	-1E+10	1	-1E+10	1	-1E+10	1	-1E+10	1	-1E+10	1
4901784	224	C	08/22/2021	10:49	-136.396	43.128	0	199.70	0	8.2920	0	37.3300	8	29.063	0	198.017	0	180.5	4	64.4	4	-1E+10	1	-1E+10	1	-1E+10	1	-1E+10	1	-1E+10	1	-1E+10	1
4901784	224	C	08/22/2021	10:49	-136.396	43.128	0	202.10	0	8.3320	0	37.3420	8	29.066	0	200.396	0	180.5	4	64.5	4	-1E+10	1	-1E+10	1	-1E+10	1	-1E+10	1	-1E+10	1	-1E+10	1
4901784	224	C	08/22/2021	10:49	-136.396	43.128	0	205.40	0	8.2670	0	37.3420	8	29.077	0	203.667	0	180.1	4	64.2	4	-1E+10	1	-1E+10	1	-1E+10	1	-1E+10	1	-1E+10	1	-1E+10	1
4901784	224	C	08/22/2021	10:49	-136.396	43.128	0	207.90	0	8.2120	0	37.3500	8	29.092	0	206.144	0	180.3	4	64.2	4	-1E+10	1	-1E+10	1	-1E+10	1	-1E+10	1	-1E+10	1	-1E+10	1
4901784	224	C	08/22/2021	10:49	-136.396	43.128	0	210.40	0	8.1660	0	37.3580	8	29.105	0	208.622	0	180.6	4	64.3	4	-1E+10	1	-1E+10	1	-1E+10	1	-1E+10	1	-1E+10	1	-1E+10	1
4901784	224	C	08/22/2021	10:49	-136.396	43.128	0	212.90	0	8.1240	0	37.3670	8	29.119	0	211.099	0	180.9	4	64.3	4	-1E+10	1	-1E+10	1	-1E+10	1	-1E+10	1	-1E+10	1	-1E+10	1
4901784	224	C	08/22/2021	10:49	-136.396	43.128	0	215.30	0	8.0770	0	37.3680	8	29.127	0	213.478	0	180.9	4	64.2	4	-1E+10	1	-1E+10	1	-1E+10	1	-1E+10	1	-1E+10	1	-1E+10	1
4901784	224	C	08/22/2021	10:49	-136.396	43.128	0	217.90	0	8.0240	0	37.3730	8	29.139	0	216.055	0	180.8	4	64.2	4	-1E+10	1	-1E+10	1	-1E+10	1	-1E+10	1	-1E+10	1	-1E+10	1
4901784	224	C	08/22/2021	10:49	-136.396	43.128	0	219.60	0	8.0130	0	37.3730	8	29.141	0	217.739	0	180.5	4	64.0	4	-1E+10	1	-1E+10	1	-1E+10	1	-1E+10	1	-1E+10	1	-1E+10	1
4901784	224	C	08/22/2021	10:49	-136.396	43.128	0	222.10	0	7.9640	0	37.3760	8	29.151	0	220.217	0	179.5	4	63.6	4	-1E+10	1	-1E+10	1	-1E+10	1	-1E+10	1	-1E+10	1	-1E+10	1
4901784	224	C	08/22/2021	10:49	-136.396	43.128	0	224.70	0	7.9100	0	37.3770	8	29.160	0	222.793	0	178.3	4	63.1	4	-1E+10	1	-1E+10	1	-1E+10	1	-1E+10	1	-1E+10	1	-1E+10	1
4901784	224	C	08/22/2021	10:49	-136.396	43.128	0	227.30	0	7.8440	0	37.3800	8	29.173	0	225.370	0	177.6	4	62.8	4	-1E+10	1	-1E+10	1	-1E+10	1	-1E+10	1	-1E+10	1	-1E+10	1
4901784	224	C	08/22/2021	10:49	-136.396	43.128	0	229.80	0	7.7980	0	37.3830	8	29.182	0	227.847	0	176.7	4	62.4	4	-1E+10	1	-1E+10	1	-1E+10	1	-1E+10	1	-1E+10	1	-1E+10	1
4901784	224	C	08/22/2021	10:49	-136.396	43.128	0	232.30	0	7.7780	0	37.3900	8	29.191	0	230.325	0	175.6	4	62.0	4	-1E+10	1	-1E+10	1	-1E+10	1	-1E+10	1	-1E+10	1	-1E+10	1
4901784	224	C	08/22/2021	10:49	-136.396	43.128	0	234.80	0	7.7620	0	37.3960	8	29.198	0	232.802	0	174.7	4	61.6	4	-1E+10	1	-1E+10	1	-1E+10	1	-1E+10	1	-1E+10	1	-1E+10	1
4901784	224	C	08/22/2021	10:49	-136.396	43.128	0	237.40	0	7.7400	0	37.3950	8	29.201	0	235.378	0	173.5	4	61.2	4	-1E+10	1	-1E+10	1	-1E+10	1	-1E+10	1	-1E+10	1	-1E+10	1
4901784	224	C	08/22/2021	10:49	-136.396	43.128	0	239.90	0	7.7160	0	37.3990	8	29.207	0	237.856	0	172.2	4	60.7	4	-1E+10	1	-1E+10	1	-1E+10	1	-1E+10	1	-1E+10	1	-1E+10	1
4901784	224	C	08/22/2021	10:49	-136.396	43.128	0	242.50	0	7.6720	0	37.4020	8	29.217	0	240.432	0	171.0	4	60.2	4	-1E+10	1	-1E+10	1	-1E+10	1	-1E+10	1	-1E+10	1	-1E+10	1
4901784	224	C	08/22/2021	10:49	-136.396	43.128	0	245.00	0	7.6100	0	37.4010	8	29.225	0	242.909	0	169.9	4	59.7	4	-1E+10	1	-1E+10	1	-1E+10	1	-1E+10	1	-1E+10	1	-1E+10	1
4901784	224	C	08/22/2021	10:49	-136.396	43.128	0	247.50	0	7.5620	0	37.4010	8	29.232	0	245.386	0	168.4	4	59.2	4	-1E+10	1	-1E+10	1	-1E+10	1	-1E+10	1	-1E+10	1	-1E+10	1
4901784	224	C	08/22/2021	10:49	-136.396	43.128	0	250.00	0	7.5110	0	37.4090	8	29.247	0	247.863	0	166.8	4	58.5	4	-1E+10	1	-1E+10	1	-1E+10	1	-1E+10	1	-1E+10	1	-1E+10	1
4901784	224	C	08/22/2021	10:49	-136.396	43.128	0	252.70	0	7.5030	0	37.4120	8	29.250	0	250.539	0	165.7	4	58.1	4	-1E+10	1	-1E+10	1	-1E+10	1	-1E+10	1	-1E+10	1	-1E+10	1
4901784	224	C	08/22/2021	10:49	-136.396	43.128	0	255.30	0	7.4900	0	37.4130	8	29.253	0	253.115	0	164.6	4	57.7	4	-1E+10	1	-1E+10	1	-1E+10	1	-1E+10	1	-1E+10	1	-1E+10	1
4901784	224	C	08/22/2021	10:49	-136.396	43.128	0	257.00	0	7.4800	0	37.4160	8	29.257	0	254.799	0	163.6	4	57.4	4	-1E+10	1	-1E+10	1	-1E+10	1	-1E+10	1	-1E+10	1	-1E+10	1
4901784	224	C	08/22/2021	10:49	-136.396	43.128	0	259.70	0	7.4720	0	37.4180	8	29.260	0	257.475	0	161.8	4	56.7	4	-1E+10	1	-1E+10	1	-1E+10	1	-1E+10	1	-1E+10	1	-1E+10	1
4901784	224	C	08/22/2021	10:49	-136.396	43.128	0	262.30	0	7.4700	0	37.4200	8	29.262	0	260.051	0	159.0	4	55.7	4	-1E+10	1	-1E+10	1	-1E+10	1	-1E+10	1	-1E+10	1	-1E+10	1
4901784	224	C	08/22/2021	10:49	-136.396	43.128	0	265.00	0	7.4960	0	37.4300	8	29.266	0	262.726	0	155.2	4	54.4	4	-1E+10	1	-1E+10	1	-1E+10	1	-1E+10	1	-1E+10	1	-1E+10	1
4901784	224	C	08/22/2021	10:49	-136.396	43.128	0	267.60	0	7.5310	0	37.4370	8	29.266	0	265.302	0	153.2	4	53.8	4	-1E+10	1	-1E+10	1	-1E+10	1	-1E+10	1	-1E+10	1	-1E+10	1
4901784	224	C	08/22/2021	10:49	-136.396	43.128	0	270.20	0	7.5030	0	37.4410	8	29.273	0	267.878	0	153.2	4	53.8	4	-1E+10	1	-1E+10	1	-1E+10	1	-1E+10	1	-1E+10	1	-1E+10	1
4901784	224	C	08/22/2021	10:49	-136.396	43.128	0	272.90	0	7.5010	0	37.4380	8	29.271	0	270.553	0	153.3	4	53.8	4	-1E+10	1	-1E+10	1	-1E+10	1	-1E+10	1	-1E+10	1	-1E+10	1
4901784	224	C	08/22/2021	10:49	-136.396	43.128	0	274.80	0	7.4480	0	37.4450	8	29.285	0	272.435	0	153.3	4	53.7	4	-1E+10	1	-1E+10	1	-1E+10	1	-1E+10	1	-1E+10	1	-1E+10	1
4901784	224	C	08/22/2021	10:49	-136.396	43.128	0	277.60	0	7.4100	0	37.4480	8	29.293	0	275.209	0	152.9	4	53.6	4	-1E+10	1	-1E+10	1	-1E+10	1	-1E+10	1	-1E+10	1	-1E+10	1
4901784	224	C	08/22/2021	10:49	-136.396	43.128	0	280.30	0	7.3840	0	37.4480	8	29.297	0	277.884	0	152.0	4	53.2	4	-1E+10	1	-1E+10	1	-1E+10	1	-1E+10	1	-1E+10	1	-1E+10	1
4901784	224	C	08/22/2021	10:49	-136.396	43.128	0	282.10	0	7.3740	0	37.4520	8	29.301	0	279.667	0	151.1	4	52.9	4	-1E+10	1	-1E+10	1	-1E+10	1	-1E+10	1	-1E+10	1	-1E+10	1
4901784	224	C	08/22/2021	10:49	-136.396	43.128	0	284.90	0	7.3410	0	37.4540	8	29.308	0	282.441	0	150.1	4	52.5	4	-1E+10	1	-1E+10	1	-1E+10	1	-1E+10	1	-1E+10	1	-1E+10	1
4901784	224	C	08/22/2021	10:49	-136.396	43.128	0	287.60	0	7.3440	0	37.4550	8	29.308	0	285.116	0	148.7	4	52.0	4	-1E+10	1	-1E+10	1	-1E+10	1	-1E+10	1	-1E+10	1	-1E+10	1
4901784	224	C	08/22/2021	10:49	-136.396	43.128	0	289.50	0	7.2840	0	37.4580	8	29.320	0	286.998	0	149.1	4	52.1	4	-1E+10	1	-1E+10	1	-1E+10	1	-1E+10	1	-1E+10	1	-1E+10	1
4901784	224	C	08/22/2021	10:49	-136.396	43.128	0	292.30	0	7.2210	0	37.4540	8	29.326	0	289.772	0	149.5	4	52.1	4	-1E+10	1	-1E+10	1	-1E+10	1	-1E+10	1	-1E+10	1	-1E+10	1
4901784	224	C	08/22/2021	10:49	-136.396	43.128	0	295.10	0	7.1480	0	37.4520	8	29.335	0	292.546	0	149.1	4	51.9	4	-1E+10	1	-1E+10	1	-1E+10	1	-1E+10	1	-1E+10	1	-1E+10	1
4901784	224	C	08/22/2021	10:49	-136.396	43.128	0	297.00	0	7.1180	0	37.4530	8	29.340	0	294.428	0	148.0	4	51.5	4	-1E+10	1	-1E+10	1	-1E+10	1	-1E+10	1	-1E+10	1	-1E+10	1
4901784	224	C	08/22/2021	10:49	-136.396	43.128	0	299.80	0	7.0860	0	37.4570	8	29.348	0	297.202	0	146.1	4	50.8	4	-1E+10	1	-1E+10	1	-1E+10	1	-1E+10	1	-1E+10	1	-1E+10	1
4901784	224	C	08/22/2021	10:49	-136.396	43.128	0	302.60	0	7.0670	0	37.4600	8	29.353	0	299.976	0	144.8	4	50.3	4	-1E+10	1	-1E+10	1	-1E+10	1	-1E+10	1	-1E+10	1	-1E+10	1
4901784	224	C	08/22/2021	10:49	-136.396	43.128	0	304.50	0	7.0070	0	37.4620	8	29.363	0	301.858	0	144.1	4	50.0	4	-1E+10	1	-1E+10	1	-1E+10	1	-1E+10	1	-1E+10	1	-1E+10	1
4901784	224	C	08/22/2021	10:49	-136.396	43.128	0	306.90	0	6.9770	0	37.4640	8	29.369	0	304.235	0	142.9	4	49.6	4	-1E+10	1	-1E+10	1	-1E+10	1	-1E+10	1	-1E+10	1	-1E+10	1
4901784	224	C	08/22/2021	10:49	-136.396	43.128	0	309.70	0	6.9430	0	37.4680	8	29.377	0	307.009	0	141.0	4	48.9	4	-1E+10	1	-1E+10	1	-1E+10	1	-1E+10	1	-1E+10	1	-1E+10	1
4901784	224	C	08/22/2021	10:49	-136.396	43.128	0	312.80	0	6.9260	0	37.4750	8	29.386	0	310.080	0	138.8	4	48.1	4	-1E+10	1	-1E+10	1	-1E+10	1	-1E+10	1	-1E+10	1	-1E+10	1
4901784	224	C	08/22/2021	10:49	-136.396	43.128	0	315.20	0	6.8790	0	37.4770	8	29.394	0	312.457	0	137.4	4	47.6	4	-1E+10	1	-1E+10	1	-1E+10	1	-1E+10	1	-1E+10	1	-1E+10	1
4901784	224	C	08/22/2021	10:49	-136.396	43.128	0	317.60	0	6.8260	0	37.4780	8	29.402	0	314.834	0	136.1	4	47.1	4	-1E+10	1	-1E+10	1	-1E+10	1	-1E+10	1	-1E+10	1	-1E+10	1
4901784	224	C	08/22/2021	10:49	-136.396	43.128	0	320.10	0	6.7690	0	37.4790	8	29.411	0	317.311	0	134.8	4	46.5	4	-1E+10	1	-1E+10	1	-1E+10	1	-1E+10	1	-1E+10	1	-1E+10	1
4901784	224	C	08/22/2021	10:49	-136.396	43.128	0	322.60	0	6.7170	0	37.4800	8	29.419	0	319.787	0	133.7	4	46.1	4	-1E+10	1	-1E+10	1	-1E+10	1	-1E+10	1	-1E+10	1	-1E+10	1
4901784	224	C	08/22/2021	10:49	-136.396	43.128	0	324.90	0	6.6280	0	37.4820	8	29.434	0	322.065	0	132.4	4	45.6	4	-1E+10	1	-1E+10	1	-1E+10	1	-1E+10	1	-1E+10	1	-1E+10	1
4901784	224	C	08/22/2021	10:49	-136.396	43.128	0	327.50	0	6.5970	0	37.4840	8	29.440	0	324.640	0	131.3	4	45.2	4	-1E+10	1	-1E+10	1	-1E+10	1	-1E+10	1	-1E+10	1	-1E+10	1
4901784	224	C	08/22/2021	10:49	-136.396	43.128	0	329.90	0	6.5700	0	37.4860	8	29.445	0	327.018	0	130.2	4	44.8	4	-1E+10	1	-1E+10	1	-1E+10	1	-1E+10	1	-1E+10	1	-1E+10	1
4901784	224	C	08/22/2021	10:49	-136.396	43.128	0	332.40	0	6.5540	0	37.4830	8	29.445	0	329.494	0	128.9	4	44.3	4	-1E+10	1	-1E+10	1	-1E+10	1	-1E+10	1	-1E+10	1	-1E+10	1
4901784	224	C	08/22/2021	10:49	-136.396	43.128	0	334.90	0	6.4600	0	37.4840	8	29.459	0	331.970	0	127.4	4	43.7	4	-1E+10	1	-1E+10	1	-1E+10	1	-1E+10	1	-1E+10	1	-1E+10	1
4901784	224	C	08/22/2021	10:49	-136.396	43.128	0	337.50	0	6.3890	0	37.4850	8	29.469	0	334.545	0	126.3	4	43.2	4	-1E+10	1	-1E+10	1	-1E+10	1	-1E+10	1	-1E+10	1	-1E+10	1
4901784	224	C	08/22/2021	10:49	-136.396	43.128	0	340.00	0	6.3320	0	37.4870	8	29.479	0	337.021	0	125.3	4	42.8	4	-1E+10	1	-1E+10	1	-1E+10	1	-1E+10	1	-1E+10	1	-1E+10	1
4901784	224	C	08/22/2021	10:49	-136.396	43.128	0	342.60	0	6.3000	0	37.4870	8	29.483	0	339.596	0	124.4	4	42.5	4	-1E+10	1	-1E+10	1	-1E+10	1	-1E+10	1	-1E+10	1	-1E+10	1
4901784	224	C	08/22/2021	10:49	-136.396	43.128	0	345.20	0	6.2770	0	37.4870	8	29.487	0	342.171	0	123.6	4	42.2	4	-1E+10	1	-1E+10	1	-1E+10	1	-1E+10	1	-1E+10	1	-1E+10	1
4901784	224	C	08/22/2021	10:49	-136.396	43.128	0	347.80	0	6.2600	0	37.4870	8	29.489	0	344.746	0	122.5	4	41.8	4	-1E+10	1	-1E+10	1	-1E+10	1	-1E+10	1	-1E+10	1	-1E+10	1
4901784	224	C	08/22/2021	10:49	-136.396	43.128	0	350.30	0	6.2210	0	37.4880	8	29.495	0	347.222	0	121.5	4	41.4	4	-1E+10	1	-1E+10	1	-1E+10	1	-1E+10	1	-1E+10	1	-1E+10	1
4901784	224	C	08/22/2021	10:49	-136.396	43.128	0	352.10	0	6.1990	0	37.4880	8	29.498	0	349.005	0	120.8	4	41.2	4	-1E+10	1	-1E+10	1	-1E+10	1	-1E+10	1	-1E+10	1	-1E+10	1
4901784	224	C	08/22/2021	10:49	-136.396	43.128	0	354.70	0	6.1710	0	37.4910	8	29.504	0	351.580	0	119.9	4	40.8	4	-1E+10	1	-1E+10	1	-1E+10	1	-1E+10	1	-1E+10	1	-1E+10	1
4901784	224	C	08/22/2021	10:49	-136.396	43.128	0	357.30	0	6.1550	0	37.4910	8	29.506	0	354.155	0	118.9	4	40.5	4	-1E+10	1	-1E+10	1	-1E+10	1	-1E+10	1	-1E+10	1	-1E+10	1
4901784	224	C	08/22/2021	10:49	-136.396	43.128	0	359.90	0	6.1370	0	37.4910	8	29.509	0	356.730	0	117.6	4	40.0	4	-1E+10	1	-1E+10	1	-1E+10	1	-1E+10	1	-1E+10	1	-1E+10	1
4901784	224	C	08/22/2021	10:49	-136.396	43.128	0	362.40	0	6.1080	0	37.4930	8	29.515	0	359.205	0	116.3	4	39.6	4	-1E+10	1	-1E+10	1	-1E+10	1	-1E+10	1	-1E+10	1	-1E+10	1
4901784	224	C	08/22/2021	10:49	-136.396	43.128	0	364.90	0	6.0770	0	37.4950	8	29.520	0	361.681	0	115.2	4	39.1	4	-1E+10	1	-1E+10	1	-1E+10	1	-1E+10	1	-1E+10	1	-1E+10	1
4901784	224	C	08/22/2021	10:49	-136.396	43.128	0	367.50	0	6.0590	0	37.4960	8	29.524	0	364.256	0	114.4	4	38.9	4	-1E+10	1	-1E+10	1	-1E+10	1	-1E+10	1	-1E+10	1	-1E+10	1
4901784	224	C	08/22/2021	10:49	-136.396	43.128	0	370.10	0	6.0480	0	37.4960	8	29.525	0	366.831	0	113.6	4	38.6	4	-1E+10	1	-1E+10	1	-1E+10	1	-1E+10	1	-1E+10	1	-1E+10	1
4901784	224	C	08/22/2021	10:49	-136.396	43.128	0	372.70	0	6.0260	0	37.4980	8	29.530	0	369.405	0	112.8	4	38.3	4	-1E+10	1	-1E+10	1	-1E+10	1	-1E+10	1	-1E+10	1	-1E+10	1
4901784	224	C	08/22/2021	10:49	-136.396	43.128	0	375.30	0	6.0000	0	37.5000	8	29.535	0	371.980	0	111.8	4	37.9	4	-1E+10	1	-1E+10	1	-1E+10	1	-1E+10	1	-1E+10	1	-1E+10	1
4901784	224	C	08/22/2021	10:49	-136.396	43.128	0	377.90	0	5.9910	0	37.5000	8	29.536	0	374.555	0	110.5	4	37.5	4	-1E+10	1	-1E+10	1	-1E+10	1	-1E+10	1	-1E+10	1	-1E+10	1
4901784	224	C	08/22/2021	10:49	-136.396	43.128	0	379.60	0	5.9770	0	37.5010	8	29.539	0	376.238	0	109.4	4	37.1	4	-1E+10	1	-1E+10	1	-1E+10	1	-1E+10	1	-1E+10	1	-1E+10	1
4901784	224	C	08/22/2021	10:49	-136.396	43.128	0	382.30	0	5.9450	0	37.5010	8	29.543	0	378.912	0	107.5	4	36.4	4	-1E+10	1	-1E+10	1	-1E+10	1	-1E+10	1	-1E+10	1	-1E+10	1
4901784	224	C	08/22/2021	10:49	-136.396	43.128	0	384.90	0	5.9110	0	37.5000	8	29.547	0	381.486	0	105.9	4	35.8	4	-1E+10	1	-1E+10	1	-1E+10	1	-1E+10	1	-1E+10	1	-1E+10	1
4901784	224	C	08/22/2021	10:49	-136.396	43.128	0	387.50	0	5.8420	0	37.5080	8	29.562	0	384.061	0	104.6	4	35.4	4	-1E+10	1	-1E+10	1	-1E+10	1	-1E+10	1	-1E+10	1	-1E+10	1
4901784	224	C	08/22/2021	10:49	-136.396	43.128	0	390.10	0	5.8160	0	37.5100	8	29.567	0	386.635	0	104.3	4	35.2	4	-1E+10	1	-1E+10	1	-1E+10	1	-1E+10	1	-1E+10	1	-1E+10	1
4901784	224	C	08/22/2021	10:49	-136.396	43.128	0	392.70	0	5.8030	0	37.5090	8	29.568	0	389.210	0	103.3	4	34.9	4	-1E+10	1	-1E+10	1	-1E+10	1	-1E+10	1	-1E+10	1	-1E+10	1
4901784	224	C	08/22/2021	10:49	-136.396	43.128	0	395.30	0	5.7730	0	37.5100	8	29.573	0	391.784	0	101.9	4	34.4	4	-1E+10	1	-1E+10	1	-1E+10	1	-1E+10	1	-1E+10	1	-1E+10	1
4901784	224	C	08/22/2021	10:49	-136.396	43.128	0	397.10	0	5.7480	0	37.5130	8	29.579	0	393.567	0	100.9	4	34.0	4	-1E+10	1	-1E+10	1	-1E+10	1	-1E+10	1	-1E+10	1	-1E+10	1
4901784	224	C	08/22/2021	10:49	-136.396	43.128	0	399.70	0	5.7140	0	37.5130	8	29.583	0	396.141	0	99.3	4	33.5	4	-1E+10	1	-1E+10	1	-1E+10	1	-1E+10	1	-1E+10	1	-1E+10	1
4901784	224	C	08/22/2021	10:49	-136.396	43.128	0	402.40	0	5.6870	0	37.5150	8	29.588	0	398.814	0	97.7	4	32.9	4	-1E+10	1	-1E+10	1	-1E+10	1	-1E+10	1	-1E+10	1	-1E+10	1
4901784	224	C	08/22/2021	10:49	-136.396	43.128	0	405.00	0	5.6700	0	37.5160	8	29.591	0	401.389	0	96.9	4	32.6	4	-1E+10	1	-1E+10	1	-1E+10	1	-1E+10	1	-1E+10	1	-1E+10	1
4901784	224	C	08/22/2021	10:49	-136.396	43.128	0	407.70	0	5.6590	0	37.5160	8	29.593	0	404.062	0	96.1	4	32.4	4	-1E+10	1	-1E+10	1	-1E+10	1	-1E+10	1	-1E+10	1	-1E+10	1
4901784	224	C	08/22/2021	10:49	-136.396	43.128	0	409.50	0	5.6510	0	37.5150	8	29.593	0	405.844	0	95.5	4	32.1	4	-1E+10	1	-1E+10	1	-1E+10	1	-1E+10	1	-1E+10	1	-1E+10	1
4901784	224	C	08/22/2021	10:49	-136.396	43.128	0	412.20	0	5.6210	0	37.5180	8	29.599	0	408.517	0	94.4	4	31.7	4	-1E+10	1	-1E+10	1	-1E+10	1	-1E+10	1	-1E+10	1	-1E+10	1
4901784	224	C	08/22/2021	10:49	-136.396	43.128	0	415.00	0	5.5820	0	37.5200	8	29.606	0	411.290	0	93.2	4	31.3	4	-1E+10	1	-1E+10	1	-1E+10	1	-1E+10	1	-1E+10	1	-1E+10	1
4901784	224	C	08/22/2021	10:49	-136.396	43.128	0	417.60	0	5.5570	0	37.5220	8	29.611	0	413.864	0	92.1	4	30.9	4	-1E+10	1	-1E+10	1	-1E+10	1	-1E+10	1	-1E+10	1	-1E+10	1
4901784	224	C	08/22/2021	10:49	-136.396	43.128	0	420.20	0	5.5380	0	37.5220	8	29.613	0	416.438	0	91.0	4	30.6	4	-1E+10	1	-1E+10	1	-1E+10	1	-1E+10	1	-1E+10	1	-1E+10	1
4901784	224	C	08/22/2021	10:49	-136.396	43.128	0	422.00	0	5.5130	0	37.5250	8	29.619	0	418.220	0	90.4	4	30.3	4	-1E+10	1	-1E+10	1	-1E+10	1	-1E+10	1	-1E+10	1	-1E+10	1
4901784	224	C	08/22/2021	10:49	-136.396	43.128	0	424.80	0	5.4780	0	37.5290	8	29.627	0	420.992	0	89.5	4	30.0	4	-1E+10	1	-1E+10	1	-1E+10	1	-1E+10	1	-1E+10	1	-1E+10	1
4901784	224	C	08/22/2021	10:49	-136.396	43.128	0	427.50	0	5.4610	0	37.5310	8	29.630	0	423.665	0	88.6	4	29.7	4	-1E+10	1	-1E+10	1	-1E+10	1	-1E+10	1	-1E+10	1	-1E+10	1
4901784	224	C	08/22/2021	10:49	-136.396	43.128	0	430.20	0	5.4280	0	37.5310	8	29.635	0	426.338	0	87.4	4	29.3	4	-1E+10	1	-1E+10	1	-1E+10	1	-1E+10	1	-1E+10	1	-1E+10	1
4901784	224	C	08/22/2021	10:49	-136.396	43.128	0	432.80	0	5.3930	0	37.5340	8	29.641	0	428.912	0	86.4	4	28.9	4	-1E+10	1	-1E+10	1	-1E+10	1	-1E+10	1	-1E+10	1	-1E+10	1
4901784	224	C	08/22/2021	10:49	-136.396	43.128	0	434.60	0	5.3660	0	37.5370	8	29.647	0	430.694	0	85.9	4	28.7	4	-1E+10	1	-1E+10	1	-1E+10	1	-1E+10	1	-1E+10	1	-1E+10	1
4901784	224	C	08/22/2021	10:49	-136.396	43.128	0	437.30	0	5.3440	0	37.5380	8	29.651	0	433.367	0	85.3	4	28.5	4	-1E+10	1	-1E+10	1	-1E+10	1	-1E+10	1	-1E+10	1	-1E+10	1
4901784	224	C	08/22/2021	10:49	-136.396	43.128	0	440.00	0	5.3260	0	37.5390	8	29.654	0	436.040	0	84.7	4	28.3	4	-1E+10	1	-1E+10	1	-1E+10	1	-1E+10	1	-1E+10	1	-1E+10	1
4901784	224	C	08/22/2021	10:49	-136.396	43.128	0	442.70	0	5.3170	0	37.5390	8	29.655	0	438.713	0	84.0	4	28.1	4	-1E+10	1	-1E+10	1	-1E+10	1	-1E+10	1	-1E+10	1	-1E+10	1
4901784	224	C	08/22/2021	10:49	-136.396	43.128	0	445.50	0	5.2920	0	37.5400	8	29.659	0	441.484	0	83.2	4	27.8	4	-1E+10	1	-1E+10	1	-1E+10	1	-1E+10	1	-1E+10	1	-1E+10	1
4901784	224	C	08/22/2021	10:49	-136.396	43.128	0	447.30	0	5.2820	0	37.5400	8	29.660	0	443.266	0	82.7	4	27.6	4	-1E+10	1	-1E+10	1	-1E+10	1	-1E+10	1	-1E+10	1	-1E+10	1
4901784	224	C	08/22/2021	10:49	-136.396	43.128	0	450.00	0	5.2420	0	37.5440	8	29.669	0	445.939	0	81.8	4	27.3	4	-1E+10	1	-1E+10	1	-1E+10	1	-1E+10	1	-1E+10	1	-1E+10	1
4901784	224	C	08/22/2021	10:49	-136.396	43.128	0	452.70	0	5.2290	0	37.5440	8	29.670	0	448.612	0	81.0	4	27.0	4	-1E+10	1	-1E+10	1	-1E+10	1	-1E+10	1	-1E+10	1	-1E+10	1
4901784	224	C	08/22/2021	10:49	-136.396	43.128	0	454.60	0	5.2100	0	37.5450	8	29.674	0	450.493	0	80.4	4	26.8	4	-1E+10	1	-1E+10	1	-1E+10	1	-1E+10	1	-1E+10	1	-1E+10	1
4901784	224	C	08/22/2021	10:49	-136.396	43.128	0	457.30	0	5.1880	0	37.5470	8	29.678	0	453.165	0	79.6	4	26.5	4	-1E+10	1	-1E+10	1	-1E+10	1	-1E+10	1	-1E+10	1	-1E+10	1
4901784	224	C	08/22/2021	10:49	-136.396	43.128	0	460.10	0	5.1590	0	37.5500	8	29.684	0	455.937	0	78.6	4	26.2	4	-1E+10	1	-1E+10	1	-1E+10	1	-1E+10	1	-1E+10	1	-1E+10	1
4901784	224	C	08/22/2021	10:49	-136.396	43.128	0	461.90	0	5.1470	0	37.5500	8	29.685	0	457.719	0	77.9	4	25.9	4	-1E+10	1	-1E+10	1	-1E+10	1	-1E+10	1	-1E+10	1	-1E+10	1
4901784	224	C	08/22/2021	10:49	-136.396	43.128	0	464.70	0	5.1110	0	37.5540	8	29.693	0	460.490	0	76.8	4	25.5	4	-1E+10	1	-1E+10	1	-1E+10	1	-1E+10	1	-1E+10	1	-1E+10	1
4901784	224	C	08/22/2021	10:49	-136.396	43.128	0	467.50	0	5.0830	0	37.5560	8	29.698	0	463.262	0	75.9	4	25.2	4	-1E+10	1	-1E+10	1	-1E+10	1	-1E+10	1	-1E+10	1	-1E+10	1
4901784	224	C	08/22/2021	10:49	-136.396	43.128	0	470.30	0	5.0540	0	37.5600	8	29.705	0	466.033	0	74.9	4	24.9	4	-1E+10	1	-1E+10	1	-1E+10	1	-1E+10	1	-1E+10	1	-1E+10	1
4901784	224	C	08/22/2021	10:49	-136.396	43.128	0	473.10	0	5.0370	0	37.5600	8	29.707	0	468.805	0	73.9	4	24.5	4	-1E+10	1	-1E+10	1	-1E+10	1	-1E+10	1	-1E+10	1	-1E+10	1
4901784	224	C	08/22/2021	10:49	-136.396	43.128	0	475.00	0	5.0120	0	37.5650	8	29.714	0	470.685	0	73.1	4	24.3	4	-1E+10	1	-1E+10	1	-1E+10	1	-1E+10	1	-1E+10	1	-1E+10	1
4901784	224	C	08/22/2021	10:49	-136.396	43.128	0	477.80	0	4.9990	0	37.5650	8	29.716	0	473.457	0	72.1	4	23.9	4	-1E+10	1	-1E+10	1	-1E+10	1	-1E+10	1	-1E+10	1	-1E+10	1
4901784	224	C	08/22/2021	10:49	-136.396	43.128	0	480.60	0	4.9650	0	37.5730	8	29.726	0	476.228	0	71.0	4	23.5	4	-1E+10	1	-1E+10	1	-1E+10	1	-1E+10	1	-1E+10	1	-1E+10	1
4901784	224	C	08/22/2021	10:49	-136.396	43.128	0	482.50	0	4.9560	0	37.5730	8	29.727	0	478.108	0	70.4	4	23.3	4	-1E+10	1	-1E+10	1	-1E+10	1	-1E+10	1	-1E+10	1	-1E+10	1
4901784	224	C	08/22/2021	10:49	-136.396	43.128	0	484.40	0	4.9440	0	37.5750	8	29.730	0	479.989	0	69.7	4	23.1	4	-1E+10	1	-1E+10	1	-1E+10	1	-1E+10	1	-1E+10	1	-1E+10	1
4901784	224	C	08/22/2021	10:49	-136.396	43.128	0	487.20	0	4.9220	0	37.5790	8	29.736	0	482.760	0	68.7	4	22.7	4	-1E+10	1	-1E+10	1	-1E+10	1	-1E+10	1	-1E+10	1	-1E+10	1
4901784	224	C	08/22/2021	10:49	-136.396	43.128	0	490.00	0	4.9110	0	37.5820	8	29.740	0	485.531	0	67.9	4	22.5	4	-1E+10	1	-1E+10	1	-1E+10	1	-1E+10	1	-1E+10	1	-1E+10	1
4901784	224	C	08/22/2021	10:49	-136.396	43.128	0	492.80	0	4.8980	0	37.5850	8	29.744	0	488.303	0	67.2	4	22.2	4	-1E+10	1	-1E+10	1	-1E+10	1	-1E+10	1	-1E+10	1	-1E+10	1
4901784	224	C	08/22/2021	10:49	-136.396	43.128	0	495.60	0	4.8940	0	37.5850	8	29.745	0	491.074	0	66.4	4	22.0	4	-1E+10	1	-1E+10	1	-1E+10	1	-1E+10	1	-1E+10	1	-1E+10	1
4901784	224	C	08/22/2021	10:49	-136.396	43.128	0	497.40	0	4.8850	0	37.5860	8	29.747	0	492.855	0	65.5	4	21.7	4	-1E+10	1	-1E+10	1	-1E+10	1	-1E+10	1	-1E+10	1	-1E+10	1
4901784	224	C	08/22/2021	10:49	-136.396	43.128	0	500.20	0	4.8840	0	37.5900	8	29.750	0	495.626	0	63.9	4	21.1	4	-1E+10	1	-1E+10	1	-1E+10	1	-1E+10	1	-1E+10	1	-1E+10	1
4901784	224	C	08/22/2021	10:49	-136.396	43.128	0	504.90	0	4.8690	0	37.5940	8	29.755	0	500.278	0	62.6	4	20.7	4	-1E+10	1	-1E+10	1	-1E+10	1	-1E+10	1	-1E+10	1	-1E+10	1
4901784	224	C	08/22/2021	10:49	-136.396	43.128	0	510.50	0	4.8270	0	37.5990	8	29.764	0	505.819	0	61.8	4	20.4	4	-1E+10	1	-1E+10	1	-1E+10	1	-1E+10	1	-1E+10	1	-1E+10	1
4901784	224	C	08/22/2021	10:49	-136.396	43.128	0	515.20	0	4.7930	0	37.6040	8	29.772	0	510.471	0	60.9	4	20.1	4	-1E+10	1	-1E+10	1	-1E+10	1	-1E+10	1	-1E+10	1	-1E+10	1
4901784	224	C	08/22/2021	10:49	-136.396	43.128	0	519.90	0	4.7700	0	37.6080	8	29.778	0	515.122	0	59.7	4	19.7	4	-1E+10	1	-1E+10	1	-1E+10	1	-1E+10	1	-1E+10	1	-1E+10	1
4901784	224	C	08/22/2021	10:49	-136.396	43.128	0	524.70	0	4.7550	0	37.6130	8	29.784	0	519.872	0	58.3	4	19.2	4	-1E+10	1	-1E+10	1	-1E+10	1	-1E+10	1	-1E+10	1	-1E+10	1
4901784	224	C	08/22/2021	10:49	-136.396	43.128	0	529.30	0	4.7390	0	37.6190	8	29.791	0	524.423	0	56.5	4	18.6	4	-1E+10	1	-1E+10	1	-1E+10	1	-1E+10	1	-1E+10	1	-1E+10	1
4901784	224	C	08/22/2021	10:49	-136.396	43.128	0	535.00	0	4.7240	0	37.6260	8	29.798	0	530.064	0	54.5	4	18.0	4	-1E+10	1	-1E+10	1	-1E+10	1	-1E+10	1	-1E+10	1	-1E+10	1
4901784	224	C	08/22/2021	10:49	-136.396	43.128	0	539.70	0	4.7100	0	37.6320	8	29.805	0	534.714	0	52.8	4	17.4	4	-1E+10	1	-1E+10	1	-1E+10	1	-1E+10	1	-1E+10	1	-1E+10	1
4901784	224	C	08/22/2021	10:49	-136.396	43.128	0	544.40	0	4.6940	0	37.6370	8	29.810	0	539.365	0	51.3	4	16.9	4	-1E+10	1	-1E+10	1	-1E+10	1	-1E+10	1	-1E+10	1	-1E+10	1
4901784	224	C	08/22/2021	10:49	-136.396	43.128	0	550.20	0	4.6770	0	37.6420	8	29.817	0	545.103	0	49.4	4	16.3	4	-1E+10	1	-1E+10	1	-1E+10	1	-1E+10	1	-1E+10	1	-1E+10	1
4901784	224	C	08/22/2021	10:49	-136.396	43.128	0	555.20	0	4.6580	0	37.6500	8	29.825	0	550.051	0	48.3	4	15.9	4	-1E+10	1	-1E+10	1	-1E+10	1	-1E+10	1	-1E+10	1	-1E+10	1
4901784	224	C	08/22/2021	10:49	-136.396	43.128	0	559.80	0	4.6420	0	37.6550	8	29.831	0	554.602	0	47.3	4	15.6	4	-1E+10	1	-1E+10	1	-1E+10	1	-1E+10	1	-1E+10	1	-1E+10	1
4901784	224	C	08/22/2021	10:49	-136.396	43.128	0	564.70	0	4.6190	0	37.6610	8	29.839	0	559.450	0	45.7	4	15.0	4	-1E+10	1	-1E+10	1	-1E+10	1	-1E+10	1	-1E+10	1	-1E+10	1
4901784	224	C	08/22/2021	10:49	-136.396	43.128	0	569.80	0	4.6130	0	37.6710	8	29.847	0	564.495	0	43.5	4	14.3	4	-1E+10	1	-1E+10	1	-1E+10	1	-1E+10	1	-1E+10	1	-1E+10	1
4901784	224	C	08/22/2021	10:49	-136.396	43.128	0	574.70	0	4.5830	0	37.6780	8	29.857	0	569.343	0	42.3	4	13.9	4	-1E+10	1	-1E+10	1	-1E+10	1	-1E+10	1	-1E+10	1	-1E+10	1
4901784	224	C	08/22/2021	10:49	-136.396	43.128	0	579.70	0	4.5600	0	37.6830	8	29.863	0	574.290	0	41.0	4	13.5	4	-1E+10	1	-1E+10	1	-1E+10	1	-1E+10	1	-1E+10	1	-1E+10	1
4901784	224	C	08/22/2021	10:49	-136.396	43.128	0	584.70	0	4.5430	0	37.6900	8	29.871	0	579.236	0	39.4	4	12.9	4	-1E+10	1	-1E+10	1	-1E+10	1	-1E+10	1	-1E+10	1	-1E+10	1
4901784	224	C	08/22/2021	10:49	-136.396	43.128	0	589.70	0	4.5460	0	37.6990	8	29.878	0	584.182	0	37.0	4	12.2	4	-1E+10	1	-1E+10	1	-1E+10	1	-1E+10	1	-1E+10	1	-1E+10	1
4901784	224	C	08/22/2021	10:49	-136.396	43.128	0	594.80	0	4.5350	0	37.7110	8	29.889	0	589.227	0	35.3	4	11.6	4	-1E+10	1	-1E+10	1	-1E+10	1	-1E+10	1	-1E+10	1	-1E+10	1
4901784	224	C	08/22/2021	10:49	-136.396	43.128	0	599.90	0	4.5240	0	37.7150	8	29.893	0	594.272	0	34.4	4	11.3	4	-1E+10	1	-1E+10	1	-1E+10	1	-1E+10	1	-1E+10	1	-1E+10	1
4901784	224	C	08/22/2021	10:49	-136.396	43.128	0	605.00	0	4.4930	0	37.7190	8	29.900	0	599.317	0	33.6	4	11.0	4	-1E+10	1	-1E+10	1	-1E+10	1	-1E+10	1	-1E+10	1	-1E+10	1
4901784	224	C	08/22/2021	10:49	-136.396	43.128	0	610.10	0	4.4470	0	37.7280	8	29.913	0	604.362	0	33.0	4	10.8	4	-1E+10	1	-1E+10	1	-1E+10	1	-1E+10	1	-1E+10	1	-1E+10	1
4901784	224	C	08/22/2021	10:49	-136.396	43.128	0	615.30	0	4.4300	0	37.7290	8	29.915	0	609.505	0	32.5	4	10.6	4	-1E+10	1	-1E+10	1	-1E+10	1	-1E+10	1	-1E+10	1	-1E+10	1
4901784	224	C	08/22/2021	10:49	-136.396	43.128	0	619.80	0	4.4070	0	37.7350	8	29.923	0	613.956	0	31.9	4	10.5	4	-1E+10	1	-1E+10	1	-1E+10	1	-1E+10	1	-1E+10	1	-1E+10	1
4901784	224	C	08/22/2021	10:49	-136.396	43.128	0	624.30	0	4.3920	0	37.7370	8	29.926	0	618.407	0	31.7	4	10.4	4	-1E+10	1	-1E+10	1	-1E+10	1	-1E+10	1	-1E+10	1	-1E+10	1
4901784	224	C	08/22/2021	10:49	-136.396	43.128	0	629.70	0	4.3680	0	37.7410	8	29.932	0	623.748	0	31.5	4	10.3	4	-1E+10	1	-1E+10	1	-1E+10	1	-1E+10	1	-1E+10	1	-1E+10	1
4901784	224	C	08/22/2021	10:49	-136.396	43.128	0	635.10	0	4.3240	0	37.7450	8	29.941	0	629.089	0	31.5	4	10.3	4	-1E+10	1	-1E+10	1	-1E+10	1	-1E+10	1	-1E+10	1	-1E+10	1
4901784	224	C	08/22/2021	10:49	-136.396	43.128	0	640.60	0	4.3000	0	37.7530	8	29.950	0	634.528	0	30.1	4	9.8	4	-1E+10	1	-1E+10	1	-1E+10	1	-1E+10	1	-1E+10	1	-1E+10	1
4901784	224	C	08/22/2021	10:49	-136.396	43.128	0	645.20	0	4.2870	0	37.7590	8	29.956	0	639.078	0	28.5	4	9.3	4	-1E+10	1	-1E+10	1	-1E+10	1	-1E+10	1	-1E+10	1	-1E+10	1
4901784	224	C	08/22/2021	10:49	-136.396	43.128	0	649.80	0	4.2920	0	37.7670	8	29.962	0	643.627	0	26.8	4	8.8	4	-1E+10	1	-1E+10	1	-1E+10	1	-1E+10	1	-1E+10	1	-1E+10	1
4901784	224	C	08/22/2021	10:49	-136.396	43.128	0	655.40	0	4.2730	0	37.7750	8	29.971	0	649.165	0	25.7	4	8.4	4	-1E+10	1	-1E+10	1	-1E+10	1	-1E+10	1	-1E+10	1	-1E+10	1
4901784	224	C	08/22/2021	10:49	-136.396	43.128	0	660.00	0	4.2730	0	37.7810	8	29.975	0	653.714	0	24.5	4	8.0	4	-1E+10	1	-1E+10	1	-1E+10	1	-1E+10	1	-1E+10	1	-1E+10	1
4901784	224	C	08/22/2021	10:49	-136.396	43.128	0	664.60	0	4.2640	0	37.7880	8	29.982	0	658.263	0	23.6	4	7.7	4	-1E+10	1	-1E+10	1	-1E+10	1	-1E+10	1	-1E+10	1	-1E+10	1
4901784	224	C	08/22/2021	10:49	-136.396	43.128	0	670.20	0	4.2500	0	37.7950	8	29.989	0	663.801	0	22.7	4	7.4	4	-1E+10	1	-1E+10	1	-1E+10	1	-1E+10	1	-1E+10	1	-1E+10	1
4901784	224	C	08/22/2021	10:49	-136.396	43.128	0	674.90	0	4.2410	0	37.7980	8	29.993	0	668.448	0	22.2	4	7.3	4	-1E+10	1	-1E+10	1	-1E+10	1	-1E+10	1	-1E+10	1	-1E+10	1
4901784	224	C	08/22/2021	10:49	-136.396	43.128	0	680.30	0	4.2170	0	37.8060	8	30.002	0	673.788	0	21.5	4	7.0	4	-1E+10	1	-1E+10	1	-1E+10	1	-1E+10	1	-1E+10	1	-1E+10	1
4901784	224	C	08/22/2021	10:49	-136.396	43.128	0	685.50	0	4.2050	0	37.8110	8	30.007	0	678.930	0	21.1	4	6.9	4	-1E+10	1	-1E+10	1	-1E+10	1	-1E+10	1	-1E+10	1	-1E+10	1
4901784	224	C	08/22/2021	10:49	-136.396	43.128	0	690.30	0	4.1930	0	37.8150	8	30.012	0	683.676	0	20.6	4	6.7	4	-1E+10	1	-1E+10	1	-1E+10	1	-1E+10	1	-1E+10	1	-1E+10	1
4901784	224	C	08/22/2021	10:49	-136.396	43.128	0	695.10	0	4.1830	0	37.8200	8	30.017	0	688.422	0	20.1	4	6.6	4	-1E+10	1	-1E+10	1	-1E+10	1	-1E+10	1	-1E+10	1	-1E+10	1
4901784	224	C	08/22/2021	10:49	-136.396	43.128	0	699.90	0	4.1710	0	37.8240	8	30.022	0	693.168	0	19.5	4	6.3	4	-1E+10	1	-1E+10	1	-1E+10	1	-1E+10	1	-1E+10	1	-1E+10	1
4901784	224	C	08/22/2021	10:49	-136.396	43.128	0	704.80	0	4.1580	0	37.8320	8	30.030	0	698.012	0	18.9	4	6.1	4	-1E+10	1	-1E+10	1	-1E+10	1	-1E+10	1	-1E+10	1	-1E+10	1
4901784	224	C	08/22/2021	10:49	-136.396	43.128	0	709.70	0	4.1480	0	37.8360	8	30.034	0	702.857	0	18.5	4	6.0	4	-1E+10	1	-1E+10	1	-1E+10	1	-1E+10	1	-1E+10	1	-1E+10	1
4901784	224	C	08/22/2021	10:49	-136.396	43.128	0	714.70	0	4.1430	0	37.8400	8	30.038	0	707.800	0	17.9	4	5.8	4	-1E+10	1	-1E+10	1	-1E+10	1	-1E+10	1	-1E+10	1	-1E+10	1
4901784	224	C	08/22/2021	10:49	-136.396	43.128	0	719.80	0	4.1240	0	37.8480	8	30.046	0	712.842	0	17.4	4	5.7	4	-1E+10	1	-1E+10	1	-1E+10	1	-1E+10	1	-1E+10	1	-1E+10	1
4901784	224	C	08/22/2021	10:49	-136.396	43.128	0	724.80	0	4.1140	0	37.8540	8	30.052	0	717.785	0	16.8	4	5.5	4	-1E+10	1	-1E+10	1	-1E+10	1	-1E+10	1	-1E+10	1	-1E+10	1
4901784	224	C	08/22/2021	10:49	-136.396	43.128	0	729.80	0	4.1100	0	37.8600	8	30.057	0	722.728	0	16.2	4	5.3	4	-1E+10	1	-1E+10	1	-1E+10	1	-1E+10	1	-1E+10	1	-1E+10	1
4901784	224	C	08/22/2021	10:49	-136.396	43.128	0	734.80	0	4.1040	0	37.8670	8	30.064	0	727.671	0	15.6	4	5.1	4	-1E+10	1	-1E+10	1	-1E+10	1	-1E+10	1	-1E+10	1	-1E+10	1
4901784	224	C	08/22/2021	10:49	-136.396	43.128	0	739.80	0	4.0970	0	37.8740	8	30.070	0	732.614	0	15.1	4	4.9	4	-1E+10	1	-1E+10	1	-1E+10	1	-1E+10	1	-1E+10	1	-1E+10	1
4901784	224	C	08/22/2021	10:49	-136.396	43.128	0	744.90	0	4.0820	0	37.8790	8	30.076	0	737.655	0	14.8	4	4.8	4	-1E+10	1	-1E+10	1	-1E+10	1	-1E+10	1	-1E+10	1	-1E+10	1
4901784	224	C	08/22/2021	10:49	-136.396	43.128	0	750.00	0	4.0820	0	37.8840	8	30.080	0	742.697	0	14.4	4	4.7	4	-1E+10	1	-1E+10	1	-1E+10	1	-1E+10	1	-1E+10	1	-1E+10	1
4901784	224	C	08/22/2021	10:49	-136.396	43.128	0	755.30	0	4.0750	0	37.8910	8	30.086	0	747.935	0	14.0	4	4.6	4	-1E+10	1	-1E+10	1	-1E+10	1	-1E+10	1	-1E+10	1	-1E+10	1
4901784	224	C	08/22/2021	10:49	-136.396	43.128	0	760.50	0	4.0620	0	37.8950	8	30.091	0	753.075	0	13.8	4	4.5	4	-1E+10	1	-1E+10	1	-1E+10	1	-1E+10	1	-1E+10	1	-1E+10	1
4901784	224	C	08/22/2021	10:49	-136.396	43.128	0	764.90	0	4.0560	0	37.8980	8	30.094	0	757.425	0	13.6	4	4.4	4	-1E+10	1	-1E+10	1	-1E+10	1	-1E+10	1	-1E+10	1	-1E+10	1
4901784	224	C	08/22/2021	10:49	-136.396	43.128	0	769.30	0	4.0490	0	37.9020	8	30.098	0	761.773	0	13.3	4	4.3	4	-1E+10	1	-1E+10	1	-1E+10	1	-1E+10	1	-1E+10	1	-1E+10	1
4901784	224	C	08/22/2021	10:49	-136.396	43.128	0	774.60	0	4.0450	0	37.9090	8	30.104	0	767.012	0	12.9	4	4.2	4	-1E+10	1	-1E+10	1	-1E+10	1	-1E+10	1	-1E+10	1	-1E+10	1
4901784	224	C	08/22/2021	10:49	-136.396	43.128	0	779.90	0	4.0380	0	37.9140	8	30.109	0	772.250	0	12.7	4	4.1	4	-1E+10	1	-1E+10	1	-1E+10	1	-1E+10	1	-1E+10	1	-1E+10	1
4901784	224	C	08/22/2021	10:49	-136.396	43.128	0	785.30	0	4.0260	0	37.9180	8	30.114	0	777.587	0	12.5	4	4.1	4	-1E+10	1	-1E+10	1	-1E+10	1	-1E+10	1	-1E+10	1	-1E+10	1
4901784	224	C	08/22/2021	10:49	-136.396	43.128	0	790.60	0	4.0080	0	37.9240	8	30.121	0	782.825	0	12.3	4	4.0	4	-1E+10	1	-1E+10	1	-1E+10	1	-1E+10	1	-1E+10	1	-1E+10	1
4901784	224	C	08/22/2021	10:49	-136.396	43.128	0	795.10	0	4.0060	0	37.9280	8	30.124	0	787.272	0	12.1	4	3.9	4	-1E+10	1	-1E+10	1	-1E+10	1	-1E+10	1	-1E+10	1	-1E+10	1
4901784	224	C	08/22/2021	10:49	-136.396	43.128	0	799.50	0	4.0000	0	37.9300	8	30.126	0	791.621	0	12.0	4	3.9	4	-1E+10	1	-1E+10	1	-1E+10	1	-1E+10	1	-1E+10	1	-1E+10	1
4901784	224	C	08/22/2021	10:49	-136.396	43.128	0	804.90	0	3.9780	0	37.9360	8	30.134	0	796.957	0	11.8	4	3.8	4	-1E+10	1	-1E+10	1	-1E+10	1	-1E+10	1	-1E+10	1	-1E+10	1
4901784	224	C	08/22/2021	10:49	-136.396	43.128	0	810.30	0	3.9670	0	37.9410	8	30.139	0	802.294	0	11.6	4	3.8	4	-1E+10	1	-1E+10	1	-1E+10	1	-1E+10	1	-1E+10	1	-1E+10	1
4901784	224	C	08/22/2021	10:49	-136.396	43.128	0	814.80	0	3.9570	0	37.9460	8	30.144	0	806.740	0	11.5	4	3.7	4	-1E+10	1	-1E+10	1	-1E+10	1	-1E+10	1	-1E+10	1	-1E+10	1
4901784	224	C	08/22/2021	10:49	-136.396	43.128	0	819.50	0	3.9520	0	37.9480	8	30.146	0	811.385	0	11.4	4	3.7	4	-1E+10	1	-1E+10	1	-1E+10	1	-1E+10	1	-1E+10	1	-1E+10	1
4901784	224	C	08/22/2021	10:49	-136.396	43.128	0	824.90	0	3.9400	0	37.9540	8	30.152	0	816.721	0	11.2	4	3.6	4	-1E+10	1	-1E+10	1	-1E+10	1	-1E+10	1	-1E+10	1	-1E+10	1
4901784	224	C	08/22/2021	10:49	-136.396	43.128	0	830.30	0	3.9300	0	37.9590	8	30.157	0	822.057	0	11.0	4	3.6	4	-1E+10	1	-1E+10	1	-1E+10	1	-1E+10	1	-1E+10	1	-1E+10	1
4901784	224	C	08/22/2021	10:49	-136.396	43.128	0	835.00	0	3.9160	0	37.9640	8	30.163	0	826.701	0	10.9	4	3.5	4	-1E+10	1	-1E+10	1	-1E+10	1	-1E+10	1	-1E+10	1	-1E+10	1
4901784	224	C	08/22/2021	10:49	-136.396	43.128	0	839.60	0	3.9100	0	37.9670	8	30.166	0	831.246	0	10.9	4	3.5	4	-1E+10	1	-1E+10	1	-1E+10	1	-1E+10	1	-1E+10	1	-1E+10	1
4901784	224	C	08/22/2021	10:49	-136.396	43.128	0	845.10	0	3.9030	0	37.9690	8	30.169	0	836.680	0	10.8	4	3.5	4	-1E+10	1	-1E+10	1	-1E+10	1	-1E+10	1	-1E+10	1	-1E+10	1
4901784	224	C	08/22/2021	10:49	-136.396	43.128	0	849.70	0	3.8950	0	37.9730	8	30.173	0	841.225	0	10.7	4	3.5	4	-1E+10	1	-1E+10	1	-1E+10	1	-1E+10	1	-1E+10	1	-1E+10	1
4901784	224	C	08/22/2021	10:49	-136.396	43.128	0	854.40	0	3.8830	0	37.9780	8	30.178	0	845.869	0	10.6	4	3.4	4	-1E+10	1	-1E+10	1	-1E+10	1	-1E+10	1	-1E+10	1	-1E+10	1
4901784	224	C	08/22/2021	10:49	-136.396	43.128	0	860.00	0	3.8710	0	37.9820	8	30.183	0	851.401	0	10.5	4	3.4	4	-1E+10	1	-1E+10	1	-1E+10	1	-1E+10	1	-1E+10	1	-1E+10	1
4901784	224	C	08/22/2021	10:49	-136.396	43.128	0	865.60	0	3.8550	0	37.9870	8	30.188	0	856.934	0	10.4	4	3.4	4	-1E+10	1	-1E+10	1	-1E+10	1	-1E+10	1	-1E+10	1	-1E+10	1
4901784	224	C	08/22/2021	10:49	-136.396	43.128	0	870.20	0	3.8390	0	37.9930	8	30.195	0	861.478	0	10.3	4	3.3	4	-1E+10	1	-1E+10	1	-1E+10	1	-1E+10	1	-1E+10	1	-1E+10	1
4901784	224	C	08/22/2021	10:49	-136.396	43.128	0	874.90	0	3.8320	0	37.9970	8	30.199	0	866.122	0	10.2	4	3.3	4	-1E+10	1	-1E+10	1	-1E+10	1	-1E+10	1	-1E+10	1	-1E+10	1
4901784	224	C	08/22/2021	10:49	-136.396	43.128	0	880.50	0	3.8280	0	38.0000	8	30.202	0	871.654	0	10.2	4	3.3	4	-1E+10	1	-1E+10	1	-1E+10	1	-1E+10	1	-1E+10	1	-1E+10	1
4901784	224	C	08/22/2021	10:49	-136.396	43.128	0	885.10	0	3.8220	0	38.0040	8	30.206	0	876.198	0	10.1	4	3.3	4	-1E+10	1	-1E+10	1	-1E+10	1	-1E+10	1	-1E+10	1	-1E+10	1
4901784	224	C	08/22/2021	10:49	-136.396	43.128	0	889.80	0	3.8150	0	38.0070	8	30.209	0	880.841	0	10.0	4	3.2	4	-1E+10	1	-1E+10	1	-1E+10	1	-1E+10	1	-1E+10	1	-1E+10	1
4901784	224	C	08/22/2021	10:49	-136.396	43.128	0	895.40	0	3.8050	0	38.0100	8	30.212	0	886.372	0	10.0	4	3.2	4	-1E+10	1	-1E+10	1	-1E+10	1	-1E+10	1	-1E+10	1	-1E+10	1
4901784	224	C	08/22/2021	10:49	-136.396	43.128	0	900.10	0	3.8000	0	38.0140	8	30.216	0	891.015	0	9.9	4	3.2	4	-1E+10	1	-1E+10	1	-1E+10	1	-1E+10	1	-1E+10	1	-1E+10	1
4901784	224	C	08/22/2021	10:49	-136.396	43.128	0	904.80	0	3.7940	0	38.0180	8	30.220	0	895.658	0	9.9	4	3.2	4	-1E+10	1	-1E+10	1	-1E+10	1	-1E+10	1	-1E+10	1	-1E+10	1
4901784	224	C	08/22/2021	10:49	-136.396	43.128	0	910.40	0	3.7830	0	38.0210	8	30.224	0	901.189	0	9.9	4	3.2	4	-1E+10	1	-1E+10	1	-1E+10	1	-1E+10	1	-1E+10	1	-1E+10	1
4901784	224	C	08/22/2021	10:49	-136.396	43.128	0	915.10	0	3.7740	0	38.0220	8	30.226	0	905.831	0	9.9	4	3.2	4	-1E+10	1	-1E+10	1	-1E+10	1	-1E+10	1	-1E+10	1	-1E+10	1
4901784	224	C	08/22/2021	10:49	-136.396	43.128	0	919.80	0	3.7410	0	38.0270	8	30.233	0	910.473	0	9.9	4	3.2	4	-1E+10	1	-1E+10	1	-1E+10	1	-1E+10	1	-1E+10	1	-1E+10	1
4901784	224	C	08/22/2021	10:49	-136.396	43.128	0	924.60	0	3.7250	0	38.0300	8	30.237	0	915.214	0	9.9	4	3.2	4	-1E+10	1	-1E+10	1	-1E+10	1	-1E+10	1	-1E+10	1	-1E+10	1
4901784	224	C	08/22/2021	10:49	-136.396	43.128	0	929.20	0	3.7150	0	38.0330	8	30.241	0	919.757	0	9.9	4	3.2	4	-1E+10	1	-1E+10	1	-1E+10	1	-1E+10	1	-1E+10	1	-1E+10	1
4901784	224	C	08/22/2021	10:49	-136.396	43.128	0	934.60	0	3.7120	0	38.0380	8	30.245	0	925.091	0	9.8	4	3.2	4	-1E+10	1	-1E+10	1	-1E+10	1	-1E+10	1	-1E+10	1	-1E+10	1
4901784	224	C	08/22/2021	10:49	-136.396	43.128	0	939.50	0	3.7010	0	38.0400	8	30.248	0	929.930	0	9.8	4	3.2	4	-1E+10	1	-1E+10	1	-1E+10	1	-1E+10	1	-1E+10	1	-1E+10	1
4901784	224	C	08/22/2021	10:49	-136.396	43.128	0	944.50	0	3.6780	0	38.0410	8	30.251	0	934.868	0	9.8	4	3.2	4	-1E+10	1	-1E+10	1	-1E+10	1	-1E+10	1	-1E+10	1	-1E+10	1
4901784	224	C	08/22/2021	10:49	-136.396	43.128	0	949.40	0	3.6660	0	38.0460	8	30.257	0	939.707	0	9.8	4	3.2	4	-1E+10	1	-1E+10	1	-1E+10	1	-1E+10	1	-1E+10	1	-1E+10	1
4901784	224	C	08/22/2021	10:49	-136.396	43.128	0	954.50	0	3.6640	0	38.0470	8	30.258	0	944.743	0	9.8	4	3.2	4	-1E+10	1	-1E+10	1	-1E+10	1	-1E+10	1	-1E+10	1	-1E+10	1
4901784	224	C	08/22/2021	10:49	-136.396	43.128	0	959.50	0	3.6580	0	38.0490	8	30.260	0	949.681	0	9.8	4	3.2	4	-1E+10	1	-1E+10	1	-1E+10	1	-1E+10	1	-1E+10	1	-1E+10	1
4901784	224	C	08/22/2021	10:49	-136.396	43.128	0	964.60	0	3.6490	0	38.0510	8	30.263	0	954.717	0	9.8	4	3.2	4	-1E+10	1	-1E+10	1	-1E+10	1	-1E+10	1	-1E+10	1	-1E+10	1
4901784	224	C	08/22/2021	10:49	-136.396	43.128	0	969.80	0	3.6360	0	38.0550	8	30.267	0	959.852	0	9.8	4	3.2	4	-1E+10	1	-1E+10	1	-1E+10	1	-1E+10	1	-1E+10	1	-1E+10	1
4901784	224	C	08/22/2021	10:49	-136.396	43.128	0	975.00	0	3.6210	0	38.0580	8	30.271	0	964.986	0	9.8	4	3.2	4	-1E+10	1	-1E+10	1	-1E+10	1	-1E+10	1	-1E+10	1	-1E+10	1
4901784	224	C	08/22/2021	10:49	-136.396	43.128	0	980.30	0	3.6120	0	38.0610	8	30.275	0	970.220	0	9.8	4	3.2	4	-1E+10	1	-1E+10	1	-1E+10	1	-1E+10	1	-1E+10	1	-1E+10	1
4901784	224	C	08/22/2021	10:49	-136.396	43.128	0	985.60	0	3.6010	0	38.0640	8	30.278	0	975.453	0	9.9	4	3.2	4	-1E+10	1	-1E+10	1	-1E+10	1	-1E+10	1	-1E+10	1	-1E+10	1
4901784	224	C	08/22/2021	10:49	-136.396	43.128	0	990.00	0	3.5990	0	38.0660	8	30.280	0	979.797	0	9.9	4	3.2	4	-1E+10	1	-1E+10	1	-1E+10	1	-1E+10	1	-1E+10	1	-1E+10	1
4901784	224	C	08/22/2021	10:49	-136.396	43.128	0	994.50	0	3.5920	0	38.0670	8	30.282	0	984.240	0	9.9	4	3.2	4	-1E+10	1	-1E+10	1	-1E+10	1	-1E+10	1	-1E+10	1	-1E+10	1
4901784	224	C	08/22/2021	10:49	-136.396	43.128	0	999.90	0	3.5820	0	38.0720	8	30.287	0	989.572	0	9.9	4	3.2	4	-1E+10	1	-1E+10	1	-1E+10	1	-1E+10	1	-1E+10	1	-1E+10	1
4901784	224	C	08/22/2021	10:49	-136.396	43.128	0	1005.20	0	3.5720	0	38.0770	8	30.292	0	994.805	0	10.0	4	3.2	4	-1E+10	1	-1E+10	1	-1E+10	1	-1E+10	1	-1E+10	1	-1E+10	1
4901784	224	C	08/22/2021	10:49	-136.396	43.128	0	1009.70	0	3.5480	0	38.0810	8	30.298	0	999.247	0	10.0	4	3.2	4	-1E+10	1	-1E+10	1	-1E+10	1	-1E+10	1	-1E+10	1	-1E+10	1
4901784	224	C	08/22/2021	10:49	-136.396	43.128	0	1014.40	0	3.5350	0	38.0860	8	30.303	0	1003.887	0	10.1	4	3.2	4	-1E+10	1	-1E+10	1	-1E+10	1	-1E+10	1	-1E+10	1	-1E+10	1
4901784	224	C	08/22/2021	10:49	-136.396	43.128	0	1020.60	0	3.5200	0	38.0900	8	30.308	0	1010.008	0	10.1	4	3.3	4	-1E+10	1	-1E+10	1	-1E+10	1	-1E+10	1	-1E+10	1	-1E+10	1
4901784	224	C	08/22/2021	10:49	-136.396	43.128	0	1025.60	0	3.5080	0	38.0930	8	30.312	0	1014.944	0	10.2	4	3.3	4	-1E+10	1	-1E+10	1	-1E+10	1	-1E+10	1	-1E+10	1	-1E+10	1
4901784	224	C	08/22/2021	10:49	-136.396	43.128	0	1030.30	0	3.4910	0	38.0980	8	30.318	0	1019.584	0	10.3	4	3.3	4	-1E+10	1	-1E+10	1	-1E+10	1	-1E+10	1	-1E+10	1	-1E+10	1
4901784	224	C	08/22/2021	10:49	-136.396	43.128	0	1035.10	0	3.4760	0	38.1010	8	30.322	0	1024.322	0	10.3	4	3.3	4	-1E+10	1	-1E+10	1	-1E+10	1	-1E+10	1	-1E+10	1	-1E+10	1
4901784	224	C	08/22/2021	10:49	-136.396	43.128	0	1039.90	0	3.4700	0	38.1030	8	30.324	0	1029.061	0	10.3	4	3.3	4	-1E+10	1	-1E+10	1	-1E+10	1	-1E+10	1	-1E+10	1	-1E+10	1
4901784	224	C	08/22/2021	10:49	-136.396	43.128	0	1044.70	0	3.4650	0	38.1050	8	30.326	0	1033.799	0	10.4	4	3.3	4	-1E+10	1	-1E+10	1	-1E+10	1	-1E+10	1	-1E+10	1	-1E+10	1
4901784	224	C	08/22/2021	10:49	-136.396	43.128	0	1049.60	0	3.4540	0	38.1070	8	30.329	0	1038.636	0	10.4	4	3.3	4	-1E+10	1	-1E+10	1	-1E+10	1	-1E+10	1	-1E+10	1	-1E+10	1
4901784	224	C	08/22/2021	10:49	-136.396	43.128	0	1054.50	0	3.4400	0	38.1100	8	30.333	0	1043.472	0	10.5	4	3.4	4	-1E+10	1	-1E+10	1	-1E+10	1	-1E+10	1	-1E+10	1	-1E+10	1
4901784	224	C	08/22/2021	10:49	-136.396	43.128	0	1059.60	0	3.4270	0	38.1120	8	30.336	0	1048.506	0	10.5	4	3.4	4	-1E+10	1	-1E+10	1	-1E+10	1	-1E+10	1	-1E+10	1	-1E+10	1
4901784	224	C	08/22/2021	10:49	-136.396	43.128	0	1064.60	0	3.4130	0	38.1160	8	30.341	0	1053.441	0	10.6	4	3.4	4	-1E+10	1	-1E+10	1	-1E+10	1	-1E+10	1	-1E+10	1	-1E+10	1
4901784	224	C	08/22/2021	10:49	-136.396	43.128	0	1069.70	0	3.4000	0	38.1190	8	30.344	0	1058.475	0	10.7	4	3.4	4	-1E+10	1	-1E+10	1	-1E+10	1	-1E+10	1	-1E+10	1	-1E+10	1
4901784	224	C	08/22/2021	10:49	-136.396	43.128	0	1074.90	0	3.3870	0	38.1220	8	30.348	0	1063.607	0	10.7	4	3.4	4	-1E+10	1	-1E+10	1	-1E+10	1	-1E+10	1	-1E+10	1	-1E+10	1
4901784	224	C	08/22/2021	10:49	-136.396	43.128	0	1080.60	0	3.3710	0	38.1260	8	30.353	0	1069.233	0	10.8	4	3.5	4	-1E+10	1	-1E+10	1	-1E+10	1	-1E+10	1	-1E+10	1	-1E+10	1
4901784	224	C	08/22/2021	10:49	-136.396	43.128	0	1085.20	0	3.3600	0	38.1280	8	30.356	0	1073.773	0	10.9	4	3.5	4	-1E+10	1	-1E+10	1	-1E+10	1	-1E+10	1	-1E+10	1	-1E+10	1
4901784	224	C	08/22/2021	10:49	-136.396	43.128	0	1090.30	0	3.3450	0	38.1320	8	30.361	0	1078.806	0	11.0	4	3.5	4	-1E+10	1	-1E+10	1	-1E+10	1	-1E+10	1	-1E+10	1	-1E+10	1
4901784	224	C	08/22/2021	10:49	-136.396	43.128	0	1095.40	0	3.3340	0	38.1350	8	30.364	0	1083.839	0	11.1	4	3.5	4	-1E+10	1	-1E+10	1	-1E+10	1	-1E+10	1	-1E+10	1	-1E+10	1
4901784	224	C	08/22/2021	10:49	-136.396	43.128	0	1100.30	0	3.3240	0	38.1370	8	30.367	0	1088.674	0	11.2	4	3.6	4	-1E+10	1	-1E+10	1	-1E+10	1	-1E+10	1	-1E+10	1	-1E+10	1
4901784	224	C	08/22/2021	10:49	-136.396	43.128	0	1105.30	0	3.3110	0	38.1410	8	30.372	0	1093.609	0	11.3	4	3.6	4	-1E+10	1	-1E+10	1	-1E+10	1	-1E+10	1	-1E+10	1	-1E+10	1
4901784	224	C	08/22/2021	10:49	-136.396	43.128	0	1110.20	0	3.3020	0	38.1440	8	30.375	0	1098.444	0	11.4	4	3.7	4	-1E+10	1	-1E+10	1	-1E+10	1	-1E+10	1	-1E+10	1	-1E+10	1
4901784	224	C	08/22/2021	10:49	-136.396	43.128	0	1115.30	0	3.2910	0	38.1480	8	30.379	0	1103.477	0	11.6	4	3.7	4	-1E+10	1	-1E+10	1	-1E+10	1	-1E+10	1	-1E+10	1	-1E+10	1
4901784	224	C	08/22/2021	10:49	-136.396	43.128	0	1120.40	0	3.2820	0	38.1500	8	30.382	0	1108.509	0	11.6	4	3.7	4	-1E+10	1	-1E+10	1	-1E+10	1	-1E+10	1	-1E+10	1	-1E+10	1
4901784	224	C	08/22/2021	10:49	-136.396	43.128	0	1125.50	0	3.2730	0	38.1520	8	30.384	0	1113.541	0	11.6	4	3.7	4	-1E+10	1	-1E+10	1	-1E+10	1	-1E+10	1	-1E+10	1	-1E+10	1
4901784	224	C	08/22/2021	10:49	-136.396	43.128	0	1130.70	0	3.2660	0	38.1530	8	30.386	0	1118.672	0	11.7	4	3.7	4	-1E+10	1	-1E+10	1	-1E+10	1	-1E+10	1	-1E+10	1	-1E+10	1
4901784	224	C	08/22/2021	10:49	-136.396	43.128	0	1135.00	0	3.2560	0	38.1560	8	30.389	0	1122.915	0	11.8	4	3.8	4	-1E+10	1	-1E+10	1	-1E+10	1	-1E+10	1	-1E+10	1	-1E+10	1
4901784	224	C	08/22/2021	10:49	-136.396	43.128	0	1139.30	0	3.2490	0	38.1580	8	30.392	0	1127.158	0	11.9	4	3.8	4	-1E+10	1	-1E+10	1	-1E+10	1	-1E+10	1	-1E+10	1	-1E+10	1
4901784	224	C	08/22/2021	10:49	-136.396	43.128	0	1144.40	0	3.2380	0	38.1610	8	30.395	0	1132.190	0	12.1	4	3.9	4	-1E+10	1	-1E+10	1	-1E+10	1	-1E+10	1	-1E+10	1	-1E+10	1
4901784	224	C	08/22/2021	10:49	-136.396	43.128	0	1149.70	0	3.2290	0	38.1640	8	30.399	0	1137.419	0	12.2	4	3.9	4	-1E+10	1	-1E+10	1	-1E+10	1	-1E+10	1	-1E+10	1	-1E+10	1
4901784	224	C	08/22/2021	10:49	-136.396	43.128	0	1154.90	0	3.2200	0	38.1670	8	30.402	0	1142.549	0	12.3	4	3.9	4	-1E+10	1	-1E+10	1	-1E+10	1	-1E+10	1	-1E+10	1	-1E+10	1
4901784	224	C	08/22/2021	10:49	-136.396	43.128	0	1160.20	0	3.2070	0	38.1690	8	30.405	0	1147.778	0	12.4	4	3.9	4	-1E+10	1	-1E+10	1	-1E+10	1	-1E+10	1	-1E+10	1	-1E+10	1
4901784	224	C	08/22/2021	10:49	-136.396	43.128	0	1165.60	0	3.1990	0	38.1710	8	30.408	0	1153.105	0	12.5	4	4.0	4	-1E+10	1	-1E+10	1	-1E+10	1	-1E+10	1	-1E+10	1	-1E+10	1
4901784	224	C	08/22/2021	10:49	-136.396	43.128	0	1170.10	0	3.1910	0	38.1730	8	30.410	0	1157.545	0	12.6	4	4.0	4	-1E+10	1	-1E+10	1	-1E+10	1	-1E+10	1	-1E+10	1	-1E+10	1
4901784	224	C	08/22/2021	10:49	-136.396	43.128	0	1174.70	0	3.1810	0	38.1750	8	30.413	0	1162.083	0	12.7	4	4.1	4	-1E+10	1	-1E+10	1	-1E+10	1	-1E+10	1	-1E+10	1	-1E+10	1
4901784	224	C	08/22/2021	10:49	-136.396	43.128	0	1180.20	0	3.1690	0	38.1780	8	30.416	0	1167.508	0	12.8	4	4.1	4	-1E+10	1	-1E+10	1	-1E+10	1	-1E+10	1	-1E+10	1	-1E+10	1
4901784	224	C	08/22/2021	10:49	-136.396	43.128	0	1184.90	0	3.1630	0	38.1800	8	30.419	0	1172.145	0	12.9	4	4.1	4	-1E+10	1	-1E+10	1	-1E+10	1	-1E+10	1	-1E+10	1	-1E+10	1
4901784	224	C	08/22/2021	10:49	-136.396	43.128	0	1189.50	0	3.1550	0	38.1820	8	30.421	0	1176.682	0	13.0	4	4.2	4	-1E+10	1	-1E+10	1	-1E+10	1	-1E+10	1	-1E+10	1	-1E+10	1
4901784	224	C	08/22/2021	10:49	-136.396	43.128	0	1195.10	0	3.1420	0	38.1840	8	30.424	0	1182.206	0	13.2	4	4.2	4	-1E+10	1	-1E+10	1	-1E+10	1	-1E+10	1	-1E+10	1	-1E+10	1
4901784	224	C	08/22/2021	10:49	-136.396	43.128	0	1199.80	0	3.1310	0	38.1860	8	30.427	0	1186.842	0	13.4	4	4.3	4	-1E+10	1	-1E+10	1	-1E+10	1	-1E+10	1	-1E+10	1	-1E+10	1
4901784	224	C	08/22/2021	10:49	-136.396	43.128	0	1204.50	0	3.1170	0	38.1890	8	30.431	0	1191.478	0	13.5	4	4.3	4	-1E+10	1	-1E+10	1	-1E+10	1	-1E+10	1	-1E+10	1	-1E+10	1
4901784	224	C	08/22/2021	10:49	-136.396	43.128	0	1210.20	0	3.1020	0	38.1930	8	30.435	0	1197.100	0	13.8	4	4.4	4	-1E+10	1	-1E+10	1	-1E+10	1	-1E+10	1	-1E+10	1	-1E+10	1
4901784	224	C	08/22/2021	10:49	-136.396	43.128	0	1215.00	0	3.0920	0	38.1960	8	30.439	0	1201.835	0	13.9	4	4.4	4	-1E+10	1	-1E+10	1	-1E+10	1	-1E+10	1	-1E+10	1	-1E+10	1
4901784	224	C	08/22/2021	10:49	-136.396	43.128	0	1219.40	0	3.0880	0	38.1970	8	30.440	0	1206.174	0	14.0	4	4.4	4	-1E+10	1	-1E+10	1	-1E+10	1	-1E+10	1	-1E+10	1	-1E+10	1
4901784	224	C	08/22/2021	10:49	-136.396	43.128	0	1224.60	0	3.0760	0	38.1980	8	30.442	0	1211.303	0	14.1	4	4.5	4	-1E+10	1	-1E+10	1	-1E+10	1	-1E+10	1	-1E+10	1	-1E+10	1
4901784	224	C	08/22/2021	10:49	-136.396	43.128	0	1229.90	0	3.0650	0	38.2010	8	30.446	0	1216.530	0	14.2	4	4.5	4	-1E+10	1	-1E+10	1	-1E+10	1	-1E+10	1	-1E+10	1	-1E+10	1
4901784	224	C	08/22/2021	10:49	-136.396	43.128	0	1235.20	0	3.0600	0	38.2030	8	30.448	0	1221.757	0	14.4	4	4.6	4	-1E+10	1	-1E+10	1	-1E+10	1	-1E+10	1	-1E+10	1	-1E+10	1
4901784	224	C	08/22/2021	10:49	-136.396	43.128	0	1240.40	0	3.0510	0	38.2050	8	30.450	0	1226.885	0	14.6	4	4.6	4	-1E+10	1	-1E+10	1	-1E+10	1	-1E+10	1	-1E+10	1	-1E+10	1
4901784	224	C	08/22/2021	10:49	-136.396	43.128	0	1244.90	0	3.0410	0	38.2070	8	30.453	0	1231.323	0	14.7	4	4.7	4	-1E+10	1	-1E+10	1	-1E+10	1	-1E+10	1	-1E+10	1	-1E+10	1
4901784	224	C	08/22/2021	10:49	-136.396	43.128	0	1249.40	0	3.0310	0	38.2090	8	30.456	0	1235.761	0	14.8	4	4.7	4	-1E+10	1	-1E+10	1	-1E+10	1	-1E+10	1	-1E+10	1	-1E+10	1
4901784	224	C	08/22/2021	10:49	-136.396	43.128	0	1254.80	0	3.0180	0	38.2110	8	30.459	0	1241.086	0	14.9	4	4.7	4	-1E+10	1	-1E+10	1	-1E+10	1	-1E+10	1	-1E+10	1	-1E+10	1
4901784	224	C	08/22/2021	10:49	-136.396	43.128	0	1260.20	0	3.0050	0	38.2130	8	30.462	0	1246.411	0	15.1	4	4.8	4	-1E+10	1	-1E+10	1	-1E+10	1	-1E+10	1	-1E+10	1	-1E+10	1
4901784	224	C	08/22/2021	10:49	-136.396	43.128	0	1265.60	0	2.9930	0	38.2160	8	30.465	0	1251.736	0	15.3	4	4.9	4	-1E+10	1	-1E+10	1	-1E+10	1	-1E+10	1	-1E+10	1	-1E+10	1
4901784	224	C	08/22/2021	10:49	-136.396	43.128	0	1270.10	0	2.9860	0	38.2170	8	30.467	0	1256.173	0	15.4	4	4.9	4	-1E+10	1	-1E+10	1	-1E+10	1	-1E+10	1	-1E+10	1	-1E+10	1
4901784	224	C	08/22/2021	10:49	-136.396	43.128	0	1274.70	0	2.9740	0	38.2200	8	30.470	0	1260.709	0	15.6	4	4.9	4	-1E+10	1	-1E+10	1	-1E+10	1	-1E+10	1	-1E+10	1	-1E+10	1
4901784	224	C	08/22/2021	10:49	-136.396	43.128	0	1280.20	0	2.9650	0	38.2210	8	30.472	0	1266.132	0	15.7	4	5.0	4	-1E+10	1	-1E+10	1	-1E+10	1	-1E+10	1	-1E+10	1	-1E+10	1
4901784	224	C	08/22/2021	10:49	-136.396	43.128	0	1284.80	0	2.9550	0	38.2240	8	30.475	0	1270.668	0	15.9	4	5.1	4	-1E+10	1	-1E+10	1	-1E+10	1	-1E+10	1	-1E+10	1	-1E+10	1
4901784	224	C	08/22/2021	10:49	-136.396	43.128	0	1289.50	0	2.9460	0	38.2250	8	30.477	0	1275.302	0	16.1	4	5.1	4	-1E+10	1	-1E+10	1	-1E+10	1	-1E+10	1	-1E+10	1	-1E+10	1
4901784	224	C	08/22/2021	10:49	-136.396	43.128	0	1295.00	0	2.9340	0	38.2280	8	30.481	0	1280.724	0	16.3	4	5.2	4	-1E+10	1	-1E+10	1	-1E+10	1	-1E+10	1	-1E+10	1	-1E+10	1
4901784	224	C	08/22/2021	10:49	-136.396	43.128	0	1299.70	0	2.9260	0	38.2290	8	30.482	0	1285.358	0	16.5	4	5.2	4	-1E+10	1	-1E+10	1	-1E+10	1	-1E+10	1	-1E+10	1	-1E+10	1
4901784	224	C	08/22/2021	10:49	-136.396	43.128	0	1304.70	0	2.9100	0	38.2330	8	30.487	0	1290.288	0	16.7	4	5.3	4	-1E+10	1	-1E+10	1	-1E+10	1	-1E+10	1	-1E+10	1	-1E+10	1
4901784	224	C	08/22/2021	10:49	-136.396	43.128	0	1309.90	0	2.9000	0	38.2350	8	30.490	0	1295.414	0	16.9	4	5.4	4	-1E+10	1	-1E+10	1	-1E+10	1	-1E+10	1	-1E+10	1	-1E+10	1
4901784	224	C	08/22/2021	10:49	-136.396	43.128	0	1314.80	0	2.8940	0	38.2360	8	30.491	0	1300.245	0	17.1	4	5.4	4	-1E+10	1	-1E+10	1	-1E+10	1	-1E+10	1	-1E+10	1	-1E+10	1
4901784	224	C	08/22/2021	10:49	-136.396	43.128	0	1319.70	0	2.8830	0	38.2380	8	30.494	0	1305.076	0	17.3	4	5.5	4	-1E+10	1	-1E+10	1	-1E+10	1	-1E+10	1	-1E+10	1	-1E+10	1
4901784	224	C	08/22/2021	10:49	-136.396	43.128	0	1324.60	0	2.8720	0	38.2410	8	30.498	0	1309.906	0	17.5	4	5.5	4	-1E+10	1	-1E+10	1	-1E+10	1	-1E+10	1	-1E+10	1	-1E+10	1
4901784	224	C	08/22/2021	10:49	-136.396	43.128	0	1329.50	0	2.8630	0	38.2420	8	30.499	0	1314.737	0	17.7	4	5.6	4	-1E+10	1	-1E+10	1	-1E+10	1	-1E+10	1	-1E+10	1	-1E+10	1
4901784	224	C	08/22/2021	10:49	-136.396	43.128	0	1334.50	0	2.8550	0	38.2440	8	30.502	0	1319.665	0	17.9	4	5.7	4	-1E+10	1	-1E+10	1	-1E+10	1	-1E+10	1	-1E+10	1	-1E+10	1
4901784	224	C	08/22/2021	10:49	-136.396	43.128	0	1339.40	0	2.8420	0	38.2460	8	30.505	0	1324.496	0	18.2	4	5.7	4	-1E+10	1	-1E+10	1	-1E+10	1	-1E+10	1	-1E+10	1	-1E+10	1
4901784	224	C	08/22/2021	10:49	-136.396	43.128	0	1344.40	0	2.8330	0	38.2490	8	30.508	0	1329.424	0	18.4	4	5.8	4	-1E+10	1	-1E+10	1	-1E+10	1	-1E+10	1	-1E+10	1	-1E+10	1
4901784	224	C	08/22/2021	10:49	-136.396	43.128	0	1349.40	0	2.8220	0	38.2510	8	30.511	0	1334.353	0	18.6	4	5.9	4	-1E+10	1	-1E+10	1	-1E+10	1	-1E+10	1	-1E+10	1	-1E+10	1
4901784	224	C	08/22/2021	10:49	-136.396	43.128	0	1354.40	0	2.8140	0	38.2530	8	30.513	0	1339.281	0	18.8	4	5.9	4	-1E+10	1	-1E+10	1	-1E+10	1	-1E+10	1	-1E+10	1	-1E+10	1
4901784	224	C	08/22/2021	10:49	-136.396	43.128	0	1359.50	0	2.8070	0	38.2540	8	30.515	0	1344.308	0	19.0	4	6.0	4	-1E+10	1	-1E+10	1	-1E+10	1	-1E+10	1	-1E+10	1	-1E+10	1
4901784	224	C	08/22/2021	10:49	-136.396	43.128	0	1364.50	0	2.7970	0	38.2560	8	30.517	0	1349.236	0	19.3	4	6.1	4	-1E+10	1	-1E+10	1	-1E+10	1	-1E+10	1	-1E+10	1	-1E+10	1
4901784	224	C	08/22/2021	10:49	-136.396	43.128	0	1369.60	0	2.7840	0	38.2590	8	30.521	0	1354.263	0	19.6	4	6.2	4	-1E+10	1	-1E+10	1	-1E+10	1	-1E+10	1	-1E+10	1	-1E+10	1
4901784	224	C	08/22/2021	10:49	-136.396	43.128	0	1374.60	0	2.7740	0	38.2600	8	30.523	0	1359.190	0	19.8	4	6.3	4	-1E+10	1	-1E+10	1	-1E+10	1	-1E+10	1	-1E+10	1	-1E+10	1
4901784	224	C	08/22/2021	10:49	-136.396	43.128	0	1379.70	0	2.7620	0	38.2630	8	30.526	0	1364.217	0	20.1	4	6.4	4	-1E+10	1	-1E+10	1	-1E+10	1	-1E+10	1	-1E+10	1	-1E+10	1
4901784	224	C	08/22/2021	10:49	-136.396	43.128	0	1384.80	0	2.7540	0	38.2650	8	30.529	0	1369.243	0	20.3	4	6.4	4	-1E+10	1	-1E+10	1	-1E+10	1	-1E+10	1	-1E+10	1	-1E+10	1
4901784	224	C	08/22/2021	10:49	-136.396	43.128	0	1390.00	0	2.7490	0	38.2670	8	30.531	0	1374.368	0	20.5	4	6.5	4	-1E+10	1	-1E+10	1	-1E+10	1	-1E+10	1	-1E+10	1	-1E+10	1
4901784	224	C	08/22/2021	10:49	-136.396	43.128	0	1395.20	0	2.7430	0	38.2680	8	30.532	0	1379.492	0	20.7	4	6.5	4	-1E+10	1	-1E+10	1	-1E+10	1	-1E+10	1	-1E+10	1	-1E+10	1
4901784	224	C	08/22/2021	10:49	-136.396	43.128	0	1400.40	0	2.7340	0	38.2700	8	30.535	0	1384.617	0	20.9	4	6.6	4	-1E+10	1	-1E+10	1	-1E+10	1	-1E+10	1	-1E+10	1	-1E+10	1
4901784	224	C	08/22/2021	10:49	-136.396	43.128	0	1405.60	0	2.7240	0	38.2720	8	30.538	0	1389.741	0	21.1	4	6.7	4	-1E+10	1	-1E+10	1	-1E+10	1	-1E+10	1	-1E+10	1	-1E+10	1
4901784	224	C	08/22/2021	10:49	-136.396	43.128	0	1409.90	0	2.7190	0	38.2730	8	30.539	0	1393.978	0	21.3	4	6.7	4	-1E+10	1	-1E+10	1	-1E+10	1	-1E+10	1	-1E+10	1	-1E+10	1
4901784	224	C	08/22/2021	10:49	-136.396	43.128	0	1414.30	0	2.7110	0	38.2740	8	30.540	0	1398.314	0	21.5	4	6.8	4	-1E+10	1	-1E+10	1	-1E+10	1	-1E+10	1	-1E+10	1	-1E+10	1
4901784	224	C	08/22/2021	10:49	-136.396	43.128	0	1419.60	0	2.6990	0	38.2760	8	30.543	0	1403.536	0	21.8	4	6.9	4	-1E+10	1	-1E+10	1	-1E+10	1	-1E+10	1	-1E+10	1	-1E+10	1
4901784	224	C	08/22/2021	10:49	-136.396	43.128	0	1424.80	0	2.6890	0	38.2780	8	30.546	0	1408.660	0	22.0	4	7.0	4	-1E+10	1	-1E+10	1	-1E+10	1	-1E+10	1	-1E+10	1	-1E+10	1
4901784	224	C	08/22/2021	10:49	-136.396	43.128	0	1430.10	0	2.6780	0	38.2800	8	30.549	0	1413.882	0	22.3	4	7.0	4	-1E+10	1	-1E+10	1	-1E+10	1	-1E+10	1	-1E+10	1	-1E+10	1
4901784	224	C	08/22/2021	10:49	-136.396	43.128	0	1435.30	0	2.6670	0	38.2820	8	30.551	0	1419.006	0	22.6	4	7.1	4	-1E+10	1	-1E+10	1	-1E+10	1	-1E+10	1	-1E+10	1	-1E+10	1
4901784	224	C	08/22/2021	10:49	-136.396	43.128	0	1440.60	0	2.6580	0	38.2840	8	30.554	0	1424.228	0	22.8	4	7.2	4	-1E+10	1	-1E+10	1	-1E+10	1	-1E+10	1	-1E+10	1	-1E+10	1
4901784	224	C	08/22/2021	10:49	-136.396	43.128	0	1445.00	0	2.6520	0	38.2850	8	30.555	0	1428.563	0	23.0	4	7.3	4	-1E+10	1	-1E+10	1	-1E+10	1	-1E+10	1	-1E+10	1	-1E+10	1
4901784	224	C	08/22/2021	10:49	-136.396	43.128	0	1449.40	0	2.6440	0	38.2860	8	30.557	0	1432.898	0	23.3	4	7.3	4	-1E+10	1	-1E+10	1	-1E+10	1	-1E+10	1	-1E+10	1	-1E+10	1
4901784	224	C	08/22/2021	10:49	-136.396	43.128	0	1454.80	0	2.6300	0	38.2880	8	30.560	0	1438.218	0	23.7	4	7.5	4	-1E+10	1	-1E+10	1	-1E+10	1	-1E+10	1	-1E+10	1	-1E+10	1
4901784	224	C	08/22/2021	10:49	-136.396	43.128	0	1460.10	0	2.6190	0	38.2900	8	30.562	0	1443.440	0	23.9	4	7.5	4	-1E+10	1	-1E+10	1	-1E+10	1	-1E+10	1	-1E+10	1	-1E+10	1
4901784	224	C	08/22/2021	10:49	-136.396	43.128	0	1465.40	0	2.6100	0	38.2920	8	30.565	0	1448.661	0	24.3	4	7.6	4	-1E+10	1	-1E+10	1	-1E+10	1	-1E+10	1	-1E+10	1	-1E+10	1
4901784	224	C	08/22/2021	10:49	-136.396	43.128	0	1469.90	0	2.5970	0	38.2940	8	30.568	0	1453.094	0	24.6	4	7.7	4	-1E+10	1	-1E+10	1	-1E+10	1	-1E+10	1	-1E+10	1	-1E+10	1
4901784	224	C	08/22/2021	10:49	-136.396	43.128	0	1474.30	0	2.5870	0	38.2960	8	30.570	0	1457.429	0	24.8	4	7.8	4	-1E+10	1	-1E+10	1	-1E+10	1	-1E+10	1	-1E+10	1	-1E+10	1
4901784	224	C	08/22/2021	10:49	-136.396	43.128	0	1479.70	0	2.5800	0	38.2980	8	30.573	0	1462.748	0	25.0	4	7.9	4	-1E+10	1	-1E+10	1	-1E+10	1	-1E+10	1	-1E+10	1	-1E+10	1
4901784	224	C	08/22/2021	10:49	-136.396	43.128	0	1485.00	0	2.5730	0	38.2990	8	30.574	0	1467.969	0	25.2	4	7.9	4	-1E+10	1	-1E+10	1	-1E+10	1	-1E+10	1	-1E+10	1	-1E+10	1
4901784	224	C	08/22/2021	10:49	-136.396	43.128	0	1490.30	0	2.5680	0	38.3000	8	30.576	0	1473.190	0	25.4	4	8.0	4	-1E+10	1	-1E+10	1	-1E+10	1	-1E+10	1	-1E+10	1	-1E+10	1
4901784	224	C	08/22/2021	10:49	-136.396	43.128	0	1495.60	0	2.5610	0	38.3010	8	30.577	0	1478.410	0	25.7	4	8.1	4	-1E+10	1	-1E+10	1	-1E+10	1	-1E+10	1	-1E+10	1	-1E+10	1
4901784	224	C	08/22/2021	10:49	-136.396	43.128	0	1500.10	0	2.5500	0	38.3030	8	30.580	0	1482.843	0	26.1	4	8.2	4	-1E+10	1	-1E+10	1	-1E+10	1	-1E+10	1	-1E+10	1	-1E+10	1
4901784	224	C	08/22/2021	10:49	-136.396	43.128	0	1504.60	0	2.5430	0	38.3050	8	30.582	0	1487.275	0	26.4	4	8.3	4	-1E+10	1	-1E+10	1	-1E+10	1	-1E+10	1	-1E+10	1	-1E+10	1
4901784	224	C	08/22/2021	10:49	-136.396	43.128	0	1510.10	0	2.5310	0	38.3070	8	30.585	0	1492.693	0	26.7	4	8.4	4	-1E+10	1	-1E+10	1	-1E+10	1	-1E+10	1	-1E+10	1	-1E+10	1
4901784	224	C	08/22/2021	10:49	-136.396	43.128	0	1515.60	0	2.5220	0	38.3080	8	30.586	0	1498.110	0	27.1	4	8.5	4	-1E+10	1	-1E+10	1	-1E+10	1	-1E+10	1	-1E+10	1	-1E+10	1
4901784	224	C	08/22/2021	10:49	-136.396	43.128	0	1520.10	0	2.5120	0	38.3100	8	30.589	0	1502.542	0	27.4	4	8.6	4	-1E+10	1	-1E+10	1	-1E+10	1	-1E+10	1	-1E+10	1	-1E+10	1
4901784	224	C	08/22/2021	10:49	-136.396	43.128	0	1524.60	0	2.4990	0	38.3120	8	30.592	0	1506.974	0	27.8	4	8.7	4	-1E+10	1	-1E+10	1	-1E+10	1	-1E+10	1	-1E+10	1	-1E+10	1
4901784	224	C	08/22/2021	10:49	-136.396	43.128	0	1530.00	0	2.4880	0	38.3140	8	30.595	0	1512.292	0	28.1	4	8.8	4	-1E+10	1	-1E+10	1	-1E+10	1	-1E+10	1	-1E+10	1	-1E+10	1
4901784	224	C	08/22/2021	10:49	-136.396	43.128	0	1535.50	0	2.4730	0	38.3160	8	30.598	0	1517.709	0	28.5	4	9.0	4	-1E+10	1	-1E+10	1	-1E+10	1	-1E+10	1	-1E+10	1	-1E+10	1
4901784	224	C	08/22/2021	10:49	-136.396	43.128	0	1540.00	0	2.4660	0	38.3180	8	30.600	0	1522.140	0	28.8	4	9.0	4	-1E+10	1	-1E+10	1	-1E+10	1	-1E+10	1	-1E+10	1	-1E+10	1
4901784	224	C	08/22/2021	10:49	-136.396	43.128	0	1544.60	0	2.4590	0	38.3190	8	30.601	0	1526.670	0	29.0	4	9.1	4	-1E+10	1	-1E+10	1	-1E+10	1	-1E+10	1	-1E+10	1	-1E+10	1
4901784	224	C	08/22/2021	10:49	-136.396	43.128	0	1550.10	0	2.4510	0	38.3200	8	30.603	0	1532.087	0	29.3	4	9.2	4	-1E+10	1	-1E+10	1	-1E+10	1	-1E+10	1	-1E+10	1	-1E+10	1
4901784	224	C	08/22/2021	10:49	-136.396	43.128	0	1555.60	0	2.4410	0	38.3220	8	30.606	0	1537.503	0	29.7	4	9.3	4	-1E+10	1	-1E+10	1	-1E+10	1	-1E+10	1	-1E+10	1	-1E+10	1
4901784	224	C	08/22/2021	10:49	-136.396	43.128	0	1560.10	0	2.4340	0	38.3240	8	30.608	0	1541.934	0	29.9	4	9.4	4	-1E+10	1	-1E+10	1	-1E+10	1	-1E+10	1	-1E+10	1	-1E+10	1
4901784	224	C	08/22/2021	10:49	-136.396	43.128	0	1564.70	0	2.4280	0	38.3240	8	30.608	0	1546.464	0	30.2	4	9.5	4	-1E+10	1	-1E+10	1	-1E+10	1	-1E+10	1	-1E+10	1	-1E+10	1
4901784	224	C	08/22/2021	10:49	-136.396	43.128	0	1570.20	0	2.4170	0	38.3260	8	30.611	0	1551.879	0	30.7	4	9.6	4	-1E+10	1	-1E+10	1	-1E+10	1	-1E+10	1	-1E+10	1	-1E+10	1
4901784	224	C	08/22/2021	10:49	-136.396	43.128	0	1574.80	0	2.4050	0	38.3280	8	30.614	0	1556.409	0	31.1	4	9.7	4	-1E+10	1	-1E+10	1	-1E+10	1	-1E+10	1	-1E+10	1	-1E+10	1
4901784	224	C	08/22/2021	10:49	-136.396	43.128	0	1579.20	0	2.3960	0	38.3300	8	30.616	0	1560.741	0	31.4	4	9.8	4	-1E+10	1	-1E+10	1	-1E+10	1	-1E+10	1	-1E+10	1	-1E+10	1
4901784	224	C	08/22/2021	10:49	-136.396	43.128	0	1584.60	0	2.3850	0	38.3320	8	30.619	0	1566.058	0	31.8	4	10.0	4	-1E+10	1	-1E+10	1	-1E+10	1	-1E+10	1	-1E+10	1	-1E+10	1
4901784	224	C	08/22/2021	10:49	-136.396	43.128	0	1589.50	0	2.3770	0	38.3330	8	30.621	0	1570.883	0	32.0	4	10.0	4	-1E+10	1	-1E+10	1	-1E+10	1	-1E+10	1	-1E+10	1	-1E+10	1
4901784	224	C	08/22/2021	10:49	-136.396	43.128	0	1594.40	0	2.3720	0	38.3350	8	30.623	0	1575.707	0	32.2	4	10.1	4	-1E+10	1	-1E+10	1	-1E+10	1	-1E+10	1	-1E+10	1	-1E+10	1
4901784	224	C	08/22/2021	10:49	-136.396	43.128	0	1599.30	0	2.3670	0	38.3360	8	30.624	0	1580.531	0	32.4	4	10.1	4	-1E+10	1	-1E+10	1	-1E+10	1	-1E+10	1	-1E+10	1	-1E+10	1
4901784	224	C	08/22/2021	10:49	-136.396	43.128	0	1605.00	0	2.3620	0	38.3370	8	30.625	0	1586.143	0	32.6	4	10.2	4	-1E+10	1	-1E+10	1	-1E+10	1	-1E+10	1	-1E+10	1	-1E+10	1
4901784	224	C	08/22/2021	10:49	-136.396	43.128	0	1610.70	0	2.3580	0	38.3380	8	30.627	0	1591.755	0	32.8	4	10.3	4	-1E+10	1	-1E+10	1	-1E+10	1	-1E+10	1	-1E+10	1	-1E+10	1
4901784	224	C	08/22/2021	10:49	-136.396	43.128	0	1615.60	0	2.3510	0	38.3390	8	30.628	0	1596.579	0	33.1	4	10.4	4	-1E+10	1	-1E+10	1	-1E+10	1	-1E+10	1	-1E+10	1	-1E+10	1
4901784	224	C	08/22/2021	10:49	-136.396	43.128	0	1620.60	0	2.3450	0	38.3400	8	30.629	0	1601.501	0	33.5	4	10.5	4	-1E+10	1	-1E+10	1	-1E+10	1	-1E+10	1	-1E+10	1	-1E+10	1
4901784	224	C	08/22/2021	10:49	-136.396	43.128	0	1625.50	0	2.3340	0	38.3420	8	30.632	0	1606.325	0	33.9	4	10.6	4	-1E+10	1	-1E+10	1	-1E+10	1	-1E+10	1	-1E+10	1	-1E+10	1
4901784	224	C	08/22/2021	10:49	-136.396	43.128	0	1630.40	0	2.3250	0	38.3450	8	30.635	0	1611.148	0	34.2	4	10.7	4	-1E+10	1	-1E+10	1	-1E+10	1	-1E+10	1	-1E+10	1	-1E+10	1
4901784	224	C	08/22/2021	10:49	-136.396	43.128	0	1635.40	0	2.3190	0	38.3460	8	30.637	0	1616.070	0	34.5	4	10.8	4	-1E+10	1	-1E+10	1	-1E+10	1	-1E+10	1	-1E+10	1	-1E+10	1
4901784	224	C	08/22/2021	10:49	-136.396	43.128	0	1640.50	0	2.3140	0	38.3470	8	30.638	0	1621.090	0	34.7	4	10.9	4	-1E+10	1	-1E+10	1	-1E+10	1	-1E+10	1	-1E+10	1	-1E+10	1
4901784	224	C	08/22/2021	10:49	-136.396	43.128	0	1645.60	0	2.3070	0	38.3480	8	30.639	0	1626.110	0	35.0	4	11.0	4	-1E+10	1	-1E+10	1	-1E+10	1	-1E+10	1	-1E+10	1	-1E+10	1
4901784	224	C	08/22/2021	10:49	-136.396	43.128	0	1650.70	0	2.2980	0	38.3500	8	30.642	0	1631.130	0	35.4	4	11.1	4	-1E+10	1	-1E+10	1	-1E+10	1	-1E+10	1	-1E+10	1	-1E+10	1
4901784	224	C	08/22/2021	10:49	-136.396	43.128	0	1655.00	0	2.2940	0	38.3500	8	30.642	0	1635.363	0	35.7	4	11.2	4	-1E+10	1	-1E+10	1	-1E+10	1	-1E+10	1	-1E+10	1	-1E+10	1
4901784	224	C	08/22/2021	10:49	-136.396	43.128	0	1659.30	0	2.2850	0	38.3520	8	30.645	0	1639.595	0	36.0	4	11.2	4	-1E+10	1	-1E+10	1	-1E+10	1	-1E+10	1	-1E+10	1	-1E+10	1
4901784	224	C	08/22/2021	10:49	-136.396	43.128	0	1664.40	0	2.2770	0	38.3540	8	30.647	0	1644.615	0	36.3	4	11.4	4	-1E+10	1	-1E+10	1	-1E+10	1	-1E+10	1	-1E+10	1	-1E+10	1
4901784	224	C	08/22/2021	10:49	-136.396	43.128	0	1669.70	0	2.2700	0	38.3550	8	30.649	0	1649.831	0	36.7	4	11.5	4	-1E+10	1	-1E+10	1	-1E+10	1	-1E+10	1	-1E+10	1	-1E+10	1
4901784	224	C	08/22/2021	10:49	-136.396	43.128	0	1674.90	0	2.2610	0	38.3570	8	30.651	0	1654.949	0	37.1	4	11.6	4	-1E+10	1	-1E+10	1	-1E+10	1	-1E+10	1	-1E+10	1	-1E+10	1
4901784	224	C	08/22/2021	10:49	-136.396	43.128	0	1680.20	0	2.2550	0	38.3580	8	30.653	0	1660.165	0	37.4	4	11.7	4	-1E+10	1	-1E+10	1	-1E+10	1	-1E+10	1	-1E+10	1	-1E+10	1
4901784	224	C	08/22/2021	10:49	-136.396	43.128	0	1685.50	0	2.2480	0	38.3600	8	30.655	0	1665.381	0	37.7	4	11.8	4	-1E+10	1	-1E+10	1	-1E+10	1	-1E+10	1	-1E+10	1	-1E+10	1
4901784	224	C	08/22/2021	10:49	-136.396	43.128	0	1690.00	0	2.2440	0	38.3610	8	30.656	0	1669.810	0	37.9	4	11.8	4	-1E+10	1	-1E+10	1	-1E+10	1	-1E+10	1	-1E+10	1	-1E+10	1
4901784	224	C	08/22/2021	10:49	-136.396	43.128	0	1694.50	0	2.2390	0	38.3620	8	30.657	0	1674.238	0	38.2	4	11.9	4	-1E+10	1	-1E+10	1	-1E+10	1	-1E+10	1	-1E+10	1	-1E+10	1
4901784	224	C	08/22/2021	10:49	-136.396	43.128	0	1699.90	0	2.2330	0	38.3630	8	30.659	0	1679.552	0	38.6	4	12.1	4	-1E+10	1	-1E+10	1	-1E+10	1	-1E+10	1	-1E+10	1	-1E+10	1
4901784	224	C	08/22/2021	10:49	-136.396	43.128	0	1705.20	0	2.2240	0	38.3650	8	30.661	0	1684.768	0	39.1	4	12.2	4	-1E+10	1	-1E+10	1	-1E+10	1	-1E+10	1	-1E+10	1	-1E+10	1
4901784	224	C	08/22/2021	10:49	-136.396	43.128	0	1710.20	0	2.2140	0	38.3670	8	30.664	0	1689.688	0	39.4	4	12.3	4	-1E+10	1	-1E+10	1	-1E+10	1	-1E+10	1	-1E+10	1	-1E+10	1
4901784	224	C	08/22/2021	10:49	-136.396	43.128	0	1714.50	0	2.2110	0	38.3680	8	30.665	0	1693.919	0	39.6	4	12.3	4	-1E+10	1	-1E+10	1	-1E+10	1	-1E+10	1	-1E+10	1	-1E+10	1
4901784	224	C	08/22/2021	10:49	-136.396	43.128	0	1720.00	0	2.2080	0	38.3690	8	30.666	0	1699.331	0	39.8	4	12.4	4	-1E+10	1	-1E+10	1	-1E+10	1	-1E+10	1	-1E+10	1	-1E+10	1
4901784	224	C	08/22/2021	10:49	-136.396	43.128	0	1725.70	0	2.2020	0	38.3700	8	30.667	0	1704.940	0	40.2	4	12.5	4	-1E+10	1	-1E+10	1	-1E+10	1	-1E+10	1	-1E+10	1	-1E+10	1
4901784	224	C	08/22/2021	10:49	-136.396	43.128	0	1730.60	0	2.1960	0	38.3720	8	30.669	0	1709.761	0	40.5	4	12.6	4	-1E+10	1	-1E+10	1	-1E+10	1	-1E+10	1	-1E+10	1	-1E+10	1
4901784	224	C	08/22/2021	10:49	-136.396	43.128	0	1735.60	0	2.1910	0	38.3730	8	30.671	0	1714.681	0	40.8	4	12.7	4	-1E+10	1	-1E+10	1	-1E+10	1	-1E+10	1	-1E+10	1	-1E+10	1
4901784	224	C	08/22/2021	10:49	-136.396	43.128	0	1740.50	0	2.1850	0	38.3740	8	30.672	0	1719.502	0	41.2	4	12.9	4	-1E+10	1	-1E+10	1	-1E+10	1	-1E+10	1	-1E+10	1	-1E+10	1
4901784	224	C	08/22/2021	10:49	-136.396	43.128	0	1745.50	0	2.1770	0	38.3760	8	30.675	0	1724.421	0	41.7	4	13.0	4	-1E+10	1	-1E+10	1	-1E+10	1	-1E+10	1	-1E+10	1	-1E+10	1
4901784	224	C	08/22/2021	10:49	-136.396	43.128	0	1750.50	0	2.1670	0	38.3780	8	30.677	0	1729.340	0	42.1	4	13.1	4	-1E+10	1	-1E+10	1	-1E+10	1	-1E+10	1	-1E+10	1	-1E+10	1
4901784	224	C	08/22/2021	10:49	-136.396	43.128	0	1755.60	0	2.1640	0	38.3790	8	30.678	0	1734.358	0	42.3	4	13.2	4	-1E+10	1	-1E+10	1	-1E+10	1	-1E+10	1	-1E+10	1	-1E+10	1
4901784	224	C	08/22/2021	10:49	-136.396	43.128	0	1760.60	0	2.1600	0	38.3790	8	30.679	0	1739.277	0	42.6	4	13.3	4	-1E+10	1	-1E+10	1	-1E+10	1	-1E+10	1	-1E+10	1	-1E+10	1
4901784	224	C	08/22/2021	10:49	-136.396	43.128	0	1764.90	0	2.1550	0	38.3810	8	30.681	0	1743.507	0	42.9	4	13.4	4	-1E+10	1	-1E+10	1	-1E+10	1	-1E+10	1	-1E+10	1	-1E+10	1
4901784	224	C	08/22/2021	10:49	-136.396	43.128	0	1769.20	0	2.1500	0	38.3820	8	30.682	0	1747.737	0	43.2	4	13.5	4	-1E+10	1	-1E+10	1	-1E+10	1	-1E+10	1	-1E+10	1	-1E+10	1
4901784	224	C	08/22/2021	10:49	-136.396	43.128	0	1774.40	0	2.1430	0	38.3830	8	30.683	0	1752.853	0	43.6	4	13.6	4	-1E+10	1	-1E+10	1	-1E+10	1	-1E+10	1	-1E+10	1	-1E+10	1
4901784	224	C	08/22/2021	10:49	-136.396	43.128	0	1779.60	0	2.1360	0	38.3850	8	30.686	0	1757.968	0	43.9	4	13.7	4	-1E+10	1	-1E+10	1	-1E+10	1	-1E+10	1	-1E+10	1	-1E+10	1
4901784	224	C	08/22/2021	10:49	-136.396	43.128	0	1784.70	0	2.1290	0	38.3860	8	30.687	0	1762.985	0	44.3	4	13.8	4	-1E+10	1	-1E+10	1	-1E+10	1	-1E+10	1	-1E+10	1	-1E+10	1
4901784	224	C	08/22/2021	10:49	-136.396	43.128	0	1790.00	0	2.1220	0	38.3880	8	30.689	0	1768.199	0	44.6	4	13.9	4	-1E+10	1	-1E+10	1	-1E+10	1	-1E+10	1	-1E+10	1	-1E+10	1
4901784	224	C	08/22/2021	10:49	-136.396	43.128	0	1795.30	0	2.1170	0	38.3890	8	30.691	0	1773.412	0	44.9	4	14.0	4	-1E+10	1	-1E+10	1	-1E+10	1	-1E+10	1	-1E+10	1	-1E+10	1
4901784	224	C	08/22/2021	10:49	-136.396	43.128	0	1800.60	0	2.1120	0	38.3900	8	30.692	0	1778.625	0	45.1	4	14.1	4	-1E+10	1	-1E+10	1	-1E+10	1	-1E+10	1	-1E+10	1	-1E+10	1
4901784	224	C	08/22/2021	10:49	-136.396	43.128	0	1805.20	0	2.1110	0	38.3910	8	30.693	0	1783.150	0	45.3	4	14.1	4	-1E+10	1	-1E+10	1	-1E+10	1	-1E+10	1	-1E+10	1	-1E+10	1
4901784	224	C	08/22/2021	10:49	-136.396	43.128	0	1809.70	0	2.1050	0	38.3920	8	30.694	0	1787.576	0	45.6	4	14.2	4	-1E+10	1	-1E+10	1	-1E+10	1	-1E+10	1	-1E+10	1	-1E+10	1
4901784	224	C	08/22/2021	10:49	-136.396	43.128	0	1815.20	0	2.1000	0	38.3930	8	30.696	0	1792.985	0	45.9	4	14.3	4	-1E+10	1	-1E+10	1	-1E+10	1	-1E+10	1	-1E+10	1	-1E+10	1
4901784	224	C	08/22/2021	10:49	-136.396	43.128	0	1820.60	0	2.0950	0	38.3940	8	30.697	0	1798.296	0	46.3	4	14.4	4	-1E+10	1	-1E+10	1	-1E+10	1	-1E+10	1	-1E+10	1	-1E+10	1
4901784	224	C	08/22/2021	10:49	-136.396	43.128	0	1825.20	0	2.0900	0	38.3950	8	30.698	0	1802.821	0	46.5	4	14.5	4	-1E+10	1	-1E+10	1	-1E+10	1	-1E+10	1	-1E+10	1	-1E+10	1
4901784	224	C	08/22/2021	10:49	-136.396	43.128	0	1829.70	0	2.0860	0	38.3960	8	30.699	0	1807.246	0	46.7	4	14.5	4	-1E+10	1	-1E+10	1	-1E+10	1	-1E+10	1	-1E+10	1	-1E+10	1
4901784	224	C	08/22/2021	10:49	-136.396	43.128	0	1835.20	0	2.0830	0	38.3970	8	30.700	0	1812.655	0	47.0	4	14.6	4	-1E+10	1	-1E+10	1	-1E+10	1	-1E+10	1	-1E+10	1	-1E+10	1
4901784	224	C	08/22/2021	10:49	-136.396	43.128	0	1839.80	0	2.0790	0	38.3980	8	30.702	0	1817.179	0	47.2	4	14.7	4	-1E+10	1	-1E+10	1	-1E+10	1	-1E+10	1	-1E+10	1	-1E+10	1
4901784	224	C	08/22/2021	10:49	-136.396	43.128	0	1844.40	0	2.0740	0	38.3980	8	30.702	0	1821.703	0	47.5	4	14.8	4	-1E+10	1	-1E+10	1	-1E+10	1	-1E+10	1	-1E+10	1	-1E+10	1
4901784	224	C	08/22/2021	10:49	-136.396	43.128	0	1850.00	0	2.0700	0	38.3990	8	30.703	0	1827.210	0	47.9	4	14.9	4	-1E+10	1	-1E+10	1	-1E+10	1	-1E+10	1	-1E+10	1	-1E+10	1
4901784	224	C	08/22/2021	10:49	-136.396	43.128	0	1854.60	0	2.0650	0	38.4000	8	30.705	0	1831.733	0	48.3	4	15.0	4	-1E+10	1	-1E+10	1	-1E+10	1	-1E+10	1	-1E+10	1	-1E+10	1
4901784	224	C	08/22/2021	10:49	-136.396	43.128	0	1859.20	0	2.0580	0	38.4020	8	30.707	0	1836.257	0	48.6	4	15.1	4	-1E+10	1	-1E+10	1	-1E+10	1	-1E+10	1	-1E+10	1	-1E+10	1
4901784	224	C	08/22/2021	10:49	-136.396	43.128	0	1864.50	0	2.0510	0	38.4040	8	30.709	0	1841.469	0	49.0	4	15.2	4	-1E+10	1	-1E+10	1	-1E+10	1	-1E+10	1	-1E+10	1	-1E+10	1
4901784	224	C	08/22/2021	10:49	-136.396	43.128	0	1869.40	0	2.0460	0	38.4050	8	30.710	0	1846.287	0	49.4	4	15.3	4	-1E+10	1	-1E+10	1	-1E+10	1	-1E+10	1	-1E+10	1	-1E+10	1
4901784	224	C	08/22/2021	10:49	-136.396	43.128	0	1874.30	0	2.0400	0	38.4060	8	30.712	0	1851.105	0	49.6	4	15.4	4	-1E+10	1	-1E+10	1	-1E+10	1	-1E+10	1	-1E+10	1	-1E+10	1
4901784	224	C	08/22/2021	10:49	-136.396	43.128	0	1880.00	0	2.0370	0	38.4070	8	30.713	0	1856.709	0	49.9	4	15.5	4	-1E+10	1	-1E+10	1	-1E+10	1	-1E+10	1	-1E+10	1	-1E+10	1
4901784	224	C	08/22/2021	10:49	-136.396	43.128	0	1885.70	0	2.0330	0	38.4080	8	30.714	0	1862.314	0	50.2	4	15.6	4	-1E+10	1	-1E+10	1	-1E+10	1	-1E+10	1	-1E+10	1	-1E+10	1
4901784	224	C	08/22/2021	10:49	-136.396	43.128	0	1890.70	0	2.0290	0	38.4090	8	30.715	0	1867.230	0	50.5	4	15.7	4	-1E+10	1	-1E+10	1	-1E+10	1	-1E+10	1	-1E+10	1	-1E+10	1
4901784	224	C	08/22/2021	10:49	-136.396	43.128	0	1894.90	0	2.0260	0	38.4100	8	30.716	0	1871.359	0	50.7	4	15.8	4	-1E+10	1	-1E+10	1	-1E+10	1	-1E+10	1	-1E+10	1	-1E+10	1
4901784	224	C	08/22/2021	10:49	-136.396	43.128	0	1899.20	0	2.0220	0	38.4110	8	30.718	0	1875.587	0	51.0	4	15.8	4	-1E+10	1	-1E+10	1	-1E+10	1	-1E+10	1	-1E+10	1	-1E+10	1
4901784	224	C	08/22/2021	10:49	-136.396	43.128	0	1904.30	0	2.0200	0	38.4110	8	30.718	0	1880.601	0	51.1	4	15.9	4	-1E+10	1	-1E+10	1	-1E+10	1	-1E+10	1	-1E+10	1	-1E+10	1
4901784	224	C	08/22/2021	10:49	-136.396	43.128	0	1909.40	0	2.0170	0	38.4120	8	30.719	0	1885.615	0	51.4	4	16.0	4	-1E+10	1	-1E+10	1	-1E+10	1	-1E+10	1	-1E+10	1	-1E+10	1
4901784	224	C	08/22/2021	10:49	-136.396	43.128	0	1914.50	0	2.0120	0	38.4130	8	30.720	0	1890.629	0	51.8	4	16.1	4	-1E+10	1	-1E+10	1	-1E+10	1	-1E+10	1	-1E+10	1	-1E+10	1
4901784	224	C	08/22/2021	10:49	-136.396	43.128	0	1919.70	0	2.0090	0	38.4140	8	30.721	0	1895.741	0	52.1	4	16.2	4	-1E+10	1	-1E+10	1	-1E+10	1	-1E+10	1	-1E+10	1	-1E+10	1
4901784	224	C	08/22/2021	10:49	-136.396	43.128	0	1924.90	0	2.0030	0	38.4150	8	30.723	0	1900.853	0	52.4	4	16.3	4	-1E+10	1	-1E+10	1	-1E+10	1	-1E+10	1	-1E+10	1	-1E+10	1
4901784	224	C	08/22/2021	10:49	-136.396	43.128	0	1930.10	0	2.0000	0	38.4160	8	30.724	0	1905.965	0	52.7	4	16.4	4	-1E+10	1	-1E+10	1	-1E+10	1	-1E+10	1	-1E+10	1	-1E+10	1
4901784	224	C	08/22/2021	10:49	-136.396	43.128	0	1935.30	0	1.9950	0	38.4170	8	30.725	0	1911.076	0	53.1	4	16.5	4	-1E+10	1	-1E+10	1	-1E+10	1	-1E+10	1	-1E+10	1	-1E+10	1
4901784	224	C	08/22/2021	10:49	-136.396	43.128	0	1940.70	0	1.9910	0	38.4180	8	30.726	0	1916.384	0	53.4	4	16.6	4	-1E+10	1	-1E+10	1	-1E+10	1	-1E+10	1	-1E+10	1	-1E+10	1
4901784	224	C	08/22/2021	10:49	-136.396	43.128	0	1945.10	0	1.9860	0	38.4190	8	30.727	0	1920.709	0	53.6	4	16.6	4	-1E+10	1	-1E+10	1	-1E+10	1	-1E+10	1	-1E+10	1	-1E+10	1
4901784	224	C	08/22/2021	10:49	-136.396	43.128	0	1949.50	0	1.9840	0	38.4200	8	30.728	0	1925.034	0	53.8	4	16.7	4	-1E+10	1	-1E+10	1	-1E+10	1	-1E+10	1	-1E+10	1	-1E+10	1
4901784	224	C	08/22/2021	10:49	-136.396	43.128	0	1954.80	0	1.9810	0	38.4210	8	30.730	0	1930.244	0	54.0	4	16.8	4	-1E+10	1	-1E+10	1	-1E+10	1	-1E+10	1	-1E+10	1	-1E+10	1
4901784	224	C	08/22/2021	10:49	-136.396	43.128	0	1960.10	0	1.9800	0	38.4210	8	30.730	0	1935.453	0	54.1	4	16.8	4	-1E+10	1	-1E+10	1	-1E+10	1	-1E+10	1	-1E+10	1	-1E+10	1
4901784	224	C	08/22/2021	10:49	-136.396	43.128	0	1965.40	0	1.9790	0	38.4210	8	30.730	0	1940.662	0	54.3	4	16.9	4	-1E+10	1	-1E+10	1	-1E+10	1	-1E+10	1	-1E+10	1	-1E+10	1
4901784	224	C	08/22/2021	10:49	-136.396	43.128	0	1970.70	0	1.9740	0	38.4230	8	30.732	0	1945.871	0	54.6	4	16.9	4	-1E+10	1	-1E+10	1	-1E+10	1	-1E+10	1	-1E+10	1	-1E+10	1
4901784	224	C	08/22/2021	10:49	-136.396	43.128	0	1975.20	0	1.9720	0	38.4230	8	30.732	0	1950.294	0	54.7	4	17.0	4	-1E+10	1	-1E+10	1	-1E+10	1	-1E+10	1	-1E+10	1	-1E+10	1
4901784	224	C	08/22/2021	10:49	-136.396	43.128	0	1979.60	0	1.9720	0	38.4230	8	30.732	0	1954.619	0	54.9	4	17.0	4	-1E+10	1	-1E+10	1	-1E+10	1	-1E+10	1	-1E+10	1	-1E+10	1
4901784	224	C	08/22/2021	10:49	-136.396	43.128	0	1985.00	0	1.9700	0	38.4240	8	30.733	0	1959.926	0	55.0	4	17.1	4	-1E+10	1	-1E+10	1	-1E+10	1	-1E+10	1	-1E+10	1	-1E+10	1
4901784	224	C	08/22/2021	10:49	-136.396	43.128	0	1990.40	0	1.9680	0	38.4240	8	30.733	0	1965.233	0	55.1	4	17.1	4	-1E+10	1	-1E+10	1	-1E+10	1	-1E+10	1	-1E+10	1	-1E+10	1
4901784	224	C	08/22/2021	10:49	-136.396	43.128	0	1995.10	0	1.9650	0	38.4250	8	30.734	0	1969.851	0	55.4	4	17.2	4	-1E+10	1	-1E+10	1	-1E+10	1	-1E+10	1	-1E+10	1	-1E+10	1
4901784	224	C	08/22/2021	10:49	-136.396	43.128	0	2000.90	0	1.9610	0	38.4260	8	30.736	0	1975.551	0	55.7	4	17.3	4	-1E+10	1	-1E+10	1	-1E+10	1	-1E+10	1	-1E+10	1	-1E+10	1
4901784	224	C	08/22/2021	10:49	-136.396	43.128	0	2005.60	0	1.9590	0	38.4260	8	30.736	0	1980.170	0	55.9	4	17.3	4	-1E+10	1	-1E+10	1	-1E+10	1	-1E+10	1	-1E+10	1	-1E+10	1
4901784	224	C	08/22/2021	10:49	-136.396	43.128	0	2010.30	0	1.9560	0	38.4270	8	30.737	0	1984.788	0	56.0	4	17.4	4	-1E+10	1	-1E+10	1	-1E+10	1	-1E+10	1	-1E+10	1	-1E+10	1
4901784	224	C	08/22/2021	10:49	-136.396	43.128	0	2014.20	0	1.9550	0	38.4270	8	30.737	0	1988.621	0	55.6	4	17.2	4	-1E+10	1	-1E+10	1	-1E+10	1	-1E+10	1	-1E+10	1	-1E+10	1
4901784	224	C	08/22/2021	10:49	-136.396	43.128	0																										
4901784	225	C	09/01/2021	10:43	-136.502	43.106	0	3.10	0	19.2520	0	36.0060	8	25.727	0	3.075	0	220.5	4	97.1	4	-1E+10	1	-1E+10	1	-1E+10	1	-1E+10	1	-1E+10	1	-1E+10	1
4901784	225	C	09/01/2021	10:43	-136.502	43.106	0	4.90	0	19.2490	0	36.0070	8	25.728	0	4.861	0	220.3	4	97.0	4	-1E+10	1	-1E+10	1	-1E+10	1	-1E+10	1	-1E+10	1	-1E+10	1
4901784	225	C	09/01/2021	10:43	-136.502	43.106	0	6.90	0	19.2510	0	36.0080	8	25.729	0	6.845	0	220.3	4	97.0	4	-1E+10	1	-1E+10	1	-1E+10	1	-1E+10	1	-1E+10	1	-1E+10	1
4901784	225	C	09/01/2021	10:43	-136.502	43.106	0	8.80	0	19.2490	0	36.0070	8	25.729	0	8.730	0	220.4	4	97.1	4	-1E+10	1	-1E+10	1	-1E+10	1	-1E+10	1	-1E+10	1	-1E+10	1
4901784	225	C	09/01/2021	10:43	-136.502	43.106	0	11.10	0	19.2480	0	36.0060	8	25.728	0	11.012	0	220.1	4	96.9	4	-1E+10	1	-1E+10	1	-1E+10	1	-1E+10	1	-1E+10	1	-1E+10	1
4901784	225	C	09/01/2021	10:43	-136.502	43.106	0	11.60	0	19.2410	0	36.0040	8	25.728	0	11.508	0	220.1	4	96.9	4	-1E+10	1	-1E+10	1	-1E+10	1	-1E+10	1	-1E+10	1	-1E+10	1
4901784	225	C	09/01/2021	10:43	-136.502	43.106	0	13.30	0	19.2310	0	36.0040	8	25.731	0	13.194	0	220.3	4	97.0	4	-1E+10	1	-1E+10	1	-1E+10	1	-1E+10	1	-1E+10	1	-1E+10	1
4901784	225	C	09/01/2021	10:43	-136.502	43.106	0	14.90	0	19.1900	0	35.9970	8	25.736	0	14.781	0	220.6	4	97.0	4	-1E+10	1	-1E+10	1	-1E+10	1	-1E+10	1	-1E+10	1	-1E+10	1
4901784	225	C	09/01/2021	10:43	-136.502	43.106	0	16.60	0	19.1590	0	35.9900	8	25.739	0	16.467	0	220.9	4	97.1	4	-1E+10	1	-1E+10	1	-1E+10	1	-1E+10	1	-1E+10	1	-1E+10	1
4901784	225	C	09/01/2021	10:43	-136.502	43.106	0	18.20	0	19.1450	0	35.9820	8	25.737	0	18.055	0	221.4	4	97.3	4	-1E+10	1	-1E+10	1	-1E+10	1	-1E+10	1	-1E+10	1	-1E+10	1
4901784	225	C	09/01/2021	10:43	-136.502	43.106	0	19.70	0	19.1380	0	35.9720	8	25.731	0	19.543	0	222.2	4	97.6	4	-1E+10	1	-1E+10	1	-1E+10	1	-1E+10	1	-1E+10	1	-1E+10	1
4901784	225	C	09/01/2021	10:43	-136.502	43.106	0	21.30	0	19.1160	0	35.9500	8	25.720	0	21.130	0	223.4	4	98.1	4	-1E+10	1	-1E+10	1	-1E+10	1	-1E+10	1	-1E+10	1	-1E+10	1
4901784	225	C	09/01/2021	10:43	-136.502	43.106	0	21.80	0	19.0760	0	35.9430	8	25.725	0	21.626	0	223.9	4	98.2	4	-1E+10	1	-1E+10	1	-1E+10	1	-1E+10	1	-1E+10	1	-1E+10	1
4901784	225	C	09/01/2021	10:43	-136.502	43.106	0	22.90	0	18.9040	0	35.9150	8	25.748	0	22.717	0	226.6	4	99.1	4	-1E+10	1	-1E+10	1	-1E+10	1	-1E+10	1	-1E+10	1	-1E+10	1
4901784	225	C	09/01/2021	10:43	-136.502	43.106	0	24.10	0	18.6600	0	35.8930	8	25.793	0	23.907	0	229.8	4	100.0	4	-1E+10	1	-1E+10	1	-1E+10	1	-1E+10	1	-1E+10	1	-1E+10	1
4901784	225	C	09/01/2021	10:43	-136.502	43.106	0	25.30	0	18.3570	0	35.8820	8	25.861	0	25.097	0	234.3	4	101.4	4	-1E+10	1	-1E+10	1	-1E+10	1	-1E+10	1	-1E+10	1	-1E+10	1
4901784	225	C	09/01/2021	10:43	-136.502	43.106	0	26.50	0	18.0990	0	35.8490	8	25.900	0	26.288	0	239.1	4	103.0	4	-1E+10	1	-1E+10	1	-1E+10	1	-1E+10	1	-1E+10	1	-1E+10	1
4901784	225	C	09/01/2021	10:43	-136.502	43.106	0	27.90	0	17.0250	0	35.9190	8	26.216	0	27.676	0	246.0	4	103.9	4	-1E+10	1	-1E+10	1	-1E+10	1	-1E+10	1	-1E+10	1	-1E+10	1
4901784	225	C	09/01/2021	10:43	-136.502	43.106	0	29.30	0	16.3790	0	35.9030	8	26.357	0	29.065	0	251.6	4	104.9	4	-1E+10	1	-1E+10	1	-1E+10	1	-1E+10	1	-1E+10	1	-1E+10	1
4901784	225	C	09/01/2021	10:43	-136.502	43.106	0	31.00	0	15.6690	0	35.9390	8	26.548	0	30.751	0	254.4	4	104.7	4	-1E+10	1	-1E+10	1	-1E+10	1	-1E+10	1	-1E+10	1	-1E+10	1
4901784	225	C	09/01/2021	10:43	-136.502	43.106	0	32.70	0	15.2910	0	36.0120	8	26.690	0	32.438	0	256.8	4	105.0	4	-1E+10	1	-1E+10	1	-1E+10	1	-1E+10	1	-1E+10	1	-1E+10	1
4901784	225	C	09/01/2021	10:43	-136.502	43.106	0	34.40	0	15.0250	0	36.0450	8	26.774	0	34.124	0	257.7	4	104.8	4	-1E+10	1	-1E+10	1	-1E+10	1	-1E+10	1	-1E+10	1	-1E+10	1
4901784	225	C	09/01/2021	10:43	-136.502	43.106	0	36.00	0	14.8680	0	36.0390	8	26.805	0	35.711	0	259.5	4	105.2	4	-1E+10	1	-1E+10	1	-1E+10	1	-1E+10	1	-1E+10	1	-1E+10	1
4901784	225	C	09/01/2021	10:43	-136.502	43.106	0	37.70	0	14.7500	0	36.0230	8	26.818	0	37.397	0	260.9	4	105.5	4	-1E+10	1	-1E+10	1	-1E+10	1	-1E+10	1	-1E+10	1	-1E+10	1
4901784	225	C	09/01/2021	10:43	-136.502	43.106	0	39.80	0	14.1830	0	36.0140	8	26.934	0	39.480	0	263.7	4	105.5	4	-1E+10	1	-1E+10	1	-1E+10	1	-1E+10	1	-1E+10	1	-1E+10	1
4901784	225	C	09/01/2021	10:43	-136.502	43.106	0	41.50	0	13.9470	0	36.0250	8	26.993	0	41.166	0	266.1	4	105.9	4	-1E+10	1	-1E+10	1	-1E+10	1	-1E+10	1	-1E+10	1	-1E+10	1
4901784	225	C	09/01/2021	10:43	-136.502	43.106	0	43.00	0	13.5120	0	35.9950	8	27.061	0	42.654	0	268.2	4	105.8	4	-1E+10	1	-1E+10	1	-1E+10	1	-1E+10	1	-1E+10	1	-1E+10	1
4901784	225	C	09/01/2021	10:43	-136.502	43.106	0	44.50	0	13.1870	0	35.9650	8	27.105	0	44.142	0	269.1	4	105.5	4	-1E+10	1	-1E+10	1	-1E+10	1	-1E+10	1	-1E+10	1	-1E+10	1
4901784	225	C	09/01/2021	10:43	-136.502	43.106	0	46.00	0	12.8770	0	35.9490	8	27.155	0	45.629	0	269.5	4	104.9	4	-1E+10	1	-1E+10	1	-1E+10	1	-1E+10	1	-1E+10	1	-1E+10	1
4901784	225	C	09/01/2021	10:43	-136.502	43.106	0	47.40	0	12.5910	0	35.9610	8	27.222	0	47.018	0	268.8	4	104.0	4	-1E+10	1	-1E+10	1	-1E+10	1	-1E+10	1	-1E+10	1	-1E+10	1
4901784	225	C	09/01/2021	10:43	-136.502	43.106	0	48.90	0	12.4040	0	35.9600	8	27.258	0	48.506	0	267.5	4	103.2	4	-1E+10	1	-1E+10	1	-1E+10	1	-1E+10	1	-1E+10	1	-1E+10	1
4901784	225	C	09/01/2021	10:43	-136.502	43.106	0	50.40	0	11.9830	0	36.0100	8	27.379	0	49.994	0	267.6	4	102.4	4	-1E+10	1	-1E+10	1	-1E+10	1	-1E+10	1	-1E+10	1	-1E+10	1
4901784	225	C	09/01/2021	10:43	-136.502	43.106	0	52.00	0	11.8200	0	36.0160	8	27.415	0	51.580	0	267.1	4	101.8	4	-1E+10	1	-1E+10	1	-1E+10	1	-1E+10	1	-1E+10	1	-1E+10	1
4901784	225	C	09/01/2021	10:43	-136.502	43.106	0	53.60	0	11.7690	0	36.0270	8	27.433	0	53.167	0	266.0	4	101.3	4	-1E+10	1	-1E+10	1	-1E+10	1	-1E+10	1	-1E+10	1	-1E+10	1
4901784	225	C	09/01/2021	10:43	-136.502	43.106	0	55.40	0	11.7390	0	36.0320	8	27.443	0	54.953	0	264.5	4	100.6	4	-1E+10	1	-1E+10	1	-1E+10	1	-1E+10	1	-1E+10	1	-1E+10	1
4901784	225	C	09/01/2021	10:43	-136.502	43.106	0	57.00	0	11.6940	0	36.0290	8	27.449	0	56.539	0	263.1	4	100.0	4	-1E+10	1	-1E+10	1	-1E+10	1	-1E+10	1	-1E+10	1	-1E+10	1
4901784	225	C	09/01/2021	10:43	-136.502	43.106	0	58.70	0	11.6210	0	36.0220	8	27.458	0	58.225	0	261.6	4	99.3	4	-1E+10	1	-1E+10	1	-1E+10	1	-1E+10	1	-1E+10	1	-1E+10	1
4901784	225	C	09/01/2021	10:43	-136.502	43.106	0	60.40	0	11.4580	0	36.0200	8	27.487	0	59.911	0	260.1	4	98.4	4	-1E+10	1	-1E+10	1	-1E+10	1	-1E+10	1	-1E+10	1	-1E+10	1
4901784	225	C	09/01/2021	10:43	-136.502	43.106	0	62.00	0	11.3320	0	36.0410	8	27.527	0	61.498	0	258.5	4	97.5	4	-1E+10	1	-1E+10	1	-1E+10	1	-1E+10	1	-1E+10	1	-1E+10	1
4901784	225	C	09/01/2021	10:43	-136.502	43.106	0	63.70	0	11.3480	0	36.0410	8	27.524	0	63.184	0	256.4	4	96.8	4	-1E+10	1	-1E+10	1	-1E+10	1	-1E+10	1	-1E+10	1	-1E+10	1
4901784	225	C	09/01/2021	10:43	-136.502	43.106	0	65.40	0	11.3300	0	36.0510	8	27.535	0	64.870	0	253.7	4	95.8	4	-1E+10	1	-1E+10	1	-1E+10	1	-1E+10	1	-1E+10	1	-1E+10	1
4901784	225	C	09/01/2021	10:43	-136.502	43.106	0	67.10	0	11.1630	0	36.0320	8	27.552	0	66.556	0	251.7	4	94.7	4	-1E+10	1	-1E+10	1	-1E+10	1	-1E+10	1	-1E+10	1	-1E+10	1
4901784	225	C	09/01/2021	10:43	-136.502	43.106	0	68.90	0	10.9380	0	36.0230	8	27.586	0	68.341	0	251.0	4	93.9	4	-1E+10	1	-1E+10	1	-1E+10	1	-1E+10	1	-1E+10	1	-1E+10	1
4901784	225	C	09/01/2021	10:43	-136.502	43.106	0	70.70	0	10.8740	0	36.0250	8	27.599	0	70.126	0	249.5	4	93.2	4	-1E+10	1	-1E+10	1	-1E+10	1	-1E+10	1	-1E+10	1	-1E+10	1
4901784	225	C	09/01/2021	10:43	-136.502	43.106	0	72.50	0	10.7960	0	36.0250	8	27.614	0	71.911	0	248.9	4	92.9	4	-1E+10	1	-1E+10	1	-1E+10	1	-1E+10	1	-1E+10	1	-1E+10	1
4901784	225	C	09/01/2021	10:43	-136.502	43.106	0	74.20	0	10.7360	0	36.0320	8	27.630	0	73.597	0	248.2	4	92.5	4	-1E+10	1	-1E+10	1	-1E+10	1	-1E+10	1	-1E+10	1	-1E+10	1
4901784	225	C	09/01/2021	10:43	-136.502	43.106	0	76.00	0	10.6980	0	36.0390	8	27.642	0	75.382	0	248.3	4	92.5	4	-1E+10	1	-1E+10	1	-1E+10	1	-1E+10	1	-1E+10	1	-1E+10	1
4901784	225	C	09/01/2021	10:43	-136.502	43.106	0	77.90	0	10.7140	0	36.0410	8	27.641	0	77.267	0	248.0	4	92.4	4	-1E+10	1	-1E+10	1	-1E+10	1	-1E+10	1	-1E+10	1	-1E+10	1
4901784	225	C	09/01/2021	10:43	-136.502	43.106	0	79.60	0	10.5640	0	36.0460	8	27.672	0	78.952	0	248.3	4	92.2	4	-1E+10	1	-1E+10	1	-1E+10	1	-1E+10	1	-1E+10	1	-1E+10	1
4901784	225	C	09/01/2021	10:43	-136.502	43.106	0	81.50	0	10.5720	0	36.0670	8	27.687	0	80.837	0	248.3	4	92.2	4	-1E+10	1	-1E+10	1	-1E+10	1	-1E+10	1	-1E+10	1	-1E+10	1
4901784	225	C	09/01/2021	10:43	-136.502	43.106	0	83.30	0	10.6590	0	36.0890	8	27.688	0	82.622	0	247.3	4	92.1	4	-1E+10	1	-1E+10	1	-1E+10	1	-1E+10	1	-1E+10	1	-1E+10	1
4901784	225	C	09/01/2021	10:43	-136.502	43.106	0	85.10	0	10.5270	0	36.0910	8	27.714	0	84.407	0	247.0	4	91.7	4	-1E+10	1	-1E+10	1	-1E+10	1	-1E+10	1	-1E+10	1	-1E+10	1
4901784	225	C	09/01/2021	10:43	-136.502	43.106	0	86.90	0	10.4910	0	36.0840	8	27.715	0	86.192	0	247.0	4	91.6	4	-1E+10	1	-1E+10	1	-1E+10	1	-1E+10	1	-1E+10	1	-1E+10	1
4901784	225	C	09/01/2021	10:43	-136.502	43.106	0	88.80	0	10.4160	0	36.0800	8	27.725	0	88.076	0	247.3	4	91.6	4	-1E+10	1	-1E+10	1	-1E+10	1	-1E+10	1	-1E+10	1	-1E+10	1
4901784	225	C	09/01/2021	10:43	-136.502	43.106	0	90.60	0	10.4630	0	36.0940	8	27.728	0	89.861	0	246.8	4	91.5	4	-1E+10	1	-1E+10	1	-1E+10	1	-1E+10	1	-1E+10	1	-1E+10	1
4901784	225	C	09/01/2021	10:43	-136.502	43.106	0	92.50	0	10.2320	0	36.0960	8	27.770	0	91.745	0	246.6	4	91.0	4	-1E+10	1	-1E+10	1	-1E+10	1	-1E+10	1	-1E+10	1	-1E+10	1
4901784	225	C	09/01/2021	10:43	-136.502	43.106	0	94.30	0	10.1490	0	36.0760	8	27.769	0	93.530	0	247.2	4	91.0	4	-1E+10	1	-1E+10	1	-1E+10	1	-1E+10	1	-1E+10	1	-1E+10	1
4901784	225	C	09/01/2021	10:43	-136.502	43.106	0	96.20	0	10.1610	0	36.0860	8	27.775	0	95.414	0	246.7	4	90.9	4	-1E+10	1	-1E+10	1	-1E+10	1	-1E+10	1	-1E+10	1	-1E+10	1
4901784	225	C	09/01/2021	10:43	-136.502	43.106	0	98.00	0	10.0490	0	36.0890	8	27.797	0	97.198	0	247.2	4	90.8	4	-1E+10	1	-1E+10	1	-1E+10	1	-1E+10	1	-1E+10	1	-1E+10	1
4901784	225	C	09/01/2021	10:43	-136.502	43.106	0	99.80	0	10.0740	0	36.0950	8	27.797	0	98.983	0	246.7	4	90.7	4	-1E+10	1	-1E+10	1	-1E+10	1	-1E+10	1	-1E+10	1	-1E+10	1
4901784	225	C	09/01/2021	10:43	-136.502	43.106	0	102.60	0	10.0030	0	36.0870	8	27.803	0	101.760	0	247.2	4	90.7	4	-1E+10	1	-1E+10	1	-1E+10	1	-1E+10	1	-1E+10	1	-1E+10	1
4901784	225	C	09/01/2021	10:43	-136.502	43.106	0	105.40	0	9.8530	0	36.0800	8	27.824	0	104.536	0	248.1	4	90.8	4	-1E+10	1	-1E+10	1	-1E+10	1	-1E+10	1	-1E+10	1	-1E+10	1
4901784	225	C	09/01/2021	10:43	-136.502	43.106	0	107.20	0	9.8260	0	36.0780	8	27.827	0	106.321	0	248.3	4	90.8	4	-1E+10	1	-1E+10	1	-1E+10	1	-1E+10	1	-1E+10	1	-1E+10	1
4901784	225	C	09/01/2021	10:43	-136.502	43.106	0	109.90	0	9.7670	0	36.0820	8	27.840	0	108.998	0	248.7	4	90.8	4	-1E+10	1	-1E+10	1	-1E+10	1	-1E+10	1	-1E+10	1	-1E+10	1
4901784	225	C	09/01/2021	10:43	-136.502	43.106	0	113.20	0	9.6190	0	36.0820	8	27.865	0	112.270	0	249.7	4	90.9	4	-1E+10	1	-1E+10	1	-1E+10	1	-1E+10	1	-1E+10	1	-1E+10	1
4901784	225	C	09/01/2021	10:43	-136.502	43.106	0	114.90	0	9.5980	0	36.0880	8	27.874	0	113.955	0	249.9	4	90.9	4	-1E+10	1	-1E+10	1	-1E+10	1	-1E+10	1	-1E+10	1	-1E+10	1
4901784	225	C	09/01/2021	10:43	-136.502	43.106	0	117.20	0	9.5130	0	36.0840	8	27.885	0	116.236	0	249.7	4	90.7	4	-1E+10	1	-1E+10	1	-1E+10	1	-1E+10	1	-1E+10	1	-1E+10	1
4901784	225	C	09/01/2021	10:43	-136.502	43.106	0	119.70	0	9.3990	0	36.0970	8	27.914	0	118.715	0	250.2	4	90.6	4	-1E+10	1	-1E+10	1	-1E+10	1	-1E+10	1	-1E+10	1	-1E+10	1
4901784	225	C	09/01/2021	10:43	-136.502	43.106	0	122.10	0	9.2850	0	36.0960	8	27.933	0	121.094	0	250.6	4	90.6	4	-1E+10	1	-1E+10	1	-1E+10	1	-1E+10	1	-1E+10	1	-1E+10	1
4901784	225	C	09/01/2021	10:43	-136.502	43.106	0	125.30	0	9.1370	0	36.1000	8	27.960	0	124.267	0	250.8	4	90.3	4	-1E+10	1	-1E+10	1	-1E+10	1	-1E+10	1	-1E+10	1	-1E+10	1
4901784	225	C	09/01/2021	10:43	-136.502	43.106	0	127.70	0	8.9650	0	36.0990	8	27.988	0	126.646	0	250.5	4	89.9	4	-1E+10	1	-1E+10	1	-1E+10	1	-1E+10	1	-1E+10	1	-1E+10	1
4901784	225	C	09/01/2021	10:43	-136.502	43.106	0	130.20	0	8.8480	0	36.1000	8	28.007	0	129.125	0	248.9	4	89.1	4	-1E+10	1	-1E+10	1	-1E+10	1	-1E+10	1	-1E+10	1	-1E+10	1
4901784	225	C	09/01/2021	10:43	-136.502	43.106	0	132.60	0	8.9140	0	36.1120	8	28.006	0	131.504	0	245.4	4	88.0	4	-1E+10	1	-1E+10	1	-1E+10	1	-1E+10	1	-1E+10	1	-1E+10	1
4901784	225	C	09/01/2021	10:43	-136.502	43.106	0	135.10	0	8.6850	0	36.1400	8	28.065	0	133.983	0	242.2	4	86.4	4	-1E+10	1	-1E+10	1	-1E+10	1	-1E+10	1	-1E+10	1	-1E+10	1
4901784	225	C	09/01/2021	10:43	-136.502	43.106	0	137.60	0	8.6260	0	36.1670	8	28.096	0	136.461	0	235.9	4	84.1	4	-1E+10	1	-1E+10	1	-1E+10	1	-1E+10	1	-1E+10	1	-1E+10	1
4901784	225	C	09/01/2021	10:43	-136.502	43.106	0	140.20	0	9.0880	0	36.3050	8	28.129	0	139.039	0	226.7	4	81.7	4	-1E+10	1	-1E+10	1	-1E+10	1	-1E+10	1	-1E+10	1	-1E+10	1
4901784	225	C	09/01/2021	10:43	-136.502	43.106	0	143.40	0	9.2660	0	36.4740	8	28.232	0	142.211	0	220.4	4	79.8	4	-1E+10	1	-1E+10	1	-1E+10	1	-1E+10	1	-1E+10	1	-1E+10	1
4901784	225	C	09/01/2021	10:43	-136.502	43.106	0	145.20	0	9.3500	0	36.5210	8	28.255	0	143.996	0	218.0	4	79.2	4	-1E+10	1	-1E+10	1	-1E+10	1	-1E+10	1	-1E+10	1	-1E+10	1
4901784	225	C	09/01/2021	10:43	-136.502	43.106	0	147.40	0	9.3920	0	36.5490	8	28.270	0	146.177	0	215.9	4	78.5	4	-1E+10	1	-1E+10	1	-1E+10	1	-1E+10	1	-1E+10	1	-1E+10	1
4901784	225	C	09/01/2021	10:43	-136.502	43.106	0	150.30	0	8.7380	0	36.5770	8	28.400	0	149.052	0	214.4	4	76.8	4	-1E+10	1	-1E+10	1	-1E+10	1	-1E+10	1	-1E+10	1	-1E+10	1
4901784	225	C	09/01/2021	10:43	-136.502	43.106	0	152.50	0	8.7770	0	36.6780	8	28.473	0	151.233	0	209.7	4	75.3	4	-1E+10	1	-1E+10	1	-1E+10	1	-1E+10	1	-1E+10	1	-1E+10	1
4901784	225	C	09/01/2021	10:43	-136.502	43.106	0	154.90	0	8.9470	0	36.8110	8	28.549	0	153.612	0	205.3	4	74.0	4	-1E+10	1	-1E+10	1	-1E+10	1	-1E+10	1	-1E+10	1	-1E+10	1
4901784	225	C	09/01/2021	10:43	-136.502	43.106	0	157.20	0	8.9630	0	36.8860	8	28.605	0	155.892	0	203.7	4	73.5	4	-1E+10	1	-1E+10	1	-1E+10	1	-1E+10	1	-1E+10	1	-1E+10	1
4901784	225	C	09/01/2021	10:43	-136.502	43.106	0	159.70	0	8.9210	0	36.9100	8	28.631	0	158.370	0	202.6	4	73.1	4	-1E+10	1	-1E+10	1	-1E+10	1	-1E+10	1	-1E+10	1	-1E+10	1
4901784	225	C	09/01/2021	10:43	-136.502	43.106	0	162.10	0	8.9250	0	36.9850	8	28.689	0	160.749	0	201.6	4	72.7	4	-1E+10	1	-1E+10	1	-1E+10	1	-1E+10	1	-1E+10	1	-1E+10	1
4901784	225	C	09/01/2021	10:43	-136.502	43.106	0	164.70	0	8.9270	0	37.0320	8	28.726	0	163.326	0	201.4	4	72.7	4	-1E+10	1	-1E+10	1	-1E+10	1	-1E+10	1	-1E+10	1	-1E+10	1
4901784	225	C	09/01/2021	10:43	-136.502	43.106	0	167.20	0	8.8700	0	37.0640	8	28.760	0	165.805	0	201.8	4	72.8	4	-1E+10	1	-1E+10	1	-1E+10	1	-1E+10	1	-1E+10	1	-1E+10	1
4901784	225	C	09/01/2021	10:43	-136.502	43.106	0	169.80	0	8.8040	0	37.0840	8	28.787	0	168.382	0	201.1	4	72.4	4	-1E+10	1	-1E+10	1	-1E+10	1	-1E+10	1	-1E+10	1	-1E+10	1
4901784	225	C	09/01/2021	10:43	-136.502	43.106	0	172.80	0	8.8200	0	37.1200	8	28.813	0	171.356	0	199.7	4	72.0	4	-1E+10	1	-1E+10	1	-1E+10	1	-1E+10	1	-1E+10	1	-1E+10	1
4901784	225	C	09/01/2021	10:43	-136.502	43.106	0	175.30	0	8.7510	0	37.1380	8	28.838	0	173.834	0	198.3	4	71.4	4	-1E+10	1	-1E+10	1	-1E+10	1	-1E+10	1	-1E+10	1	-1E+10	1
4901784	225	C	09/01/2021	10:43	-136.502	43.106	0	177.50	0	8.7400	0	37.1760	8	28.870	0	176.014	0	196.7	4	70.8	4	-1E+10	1	-1E+10	1	-1E+10	1	-1E+10	1	-1E+10	1	-1E+10	1
4901784	225	C	09/01/2021	10:43	-136.502	43.106	0	179.80	0	8.7150	0	37.2070	8	28.898	0	178.294	0	194.4	4	70.0	4	-1E+10	1	-1E+10	1	-1E+10	1	-1E+10	1	-1E+10	1	-1E+10	1
4901784	225	C	09/01/2021	10:43	-136.502	43.106	0	182.80	0	8.6670	0	37.2420	8	28.934	0	181.268	0	192.0	4	69.0	4	-1E+10	1	-1E+10	1	-1E+10	1	-1E+10	1	-1E+10	1	-1E+10	1
4901784	225	C	09/01/2021	10:43	-136.502	43.106	0	185.00	0	8.6560	0	37.2510	8	28.942	0	183.448	0	189.5	4	68.1	4	-1E+10	1	-1E+10	1	-1E+10	1	-1E+10	1	-1E+10	1	-1E+10	1
4901784	225	C	09/01/2021	10:43	-136.502	43.106	0	187.40	0	8.6330	0	37.2810	8	28.970	0	185.827	0	187.2	4	67.3	4	-1E+10	1	-1E+10	1	-1E+10	1	-1E+10	1	-1E+10	1	-1E+10	1
4901784	225	C	09/01/2021	10:43	-136.502	43.106	0	189.90	0	8.6120	0	37.3010	8	28.989	0	188.305	0	186.1	4	66.9	4	-1E+10	1	-1E+10	1	-1E+10	1	-1E+10	1	-1E+10	1	-1E+10	1
4901784	225	C	09/01/2021	10:43	-136.502	43.106	0	192.50	0	8.6000	0	37.3090	8	28.997	0	190.882	0	185.2	4	66.5	4	-1E+10	1	-1E+10	1	-1E+10	1	-1E+10	1	-1E+10	1	-1E+10	1
4901784	225	C	09/01/2021	10:43	-136.502	43.106	0	195.00	0	8.5700	0	37.3290	8	29.018	0	193.360	0	184.4	4	66.2	4	-1E+10	1	-1E+10	1	-1E+10	1	-1E+10	1	-1E+10	1	-1E+10	1
4901784	225	C	09/01/2021	10:43	-136.502	43.106	0	197.50	0	8.5560	0	37.3360	8	29.026	0	195.837	0	184.1	4	66.1	4	-1E+10	1	-1E+10	1	-1E+10	1	-1E+10	1	-1E+10	1	-1E+10	1
4901784	225	C	09/01/2021	10:43	-136.502	43.106	0	200.00	0	8.5230	0	37.3480	8	29.040	0	198.315	0	183.9	4	66.0	4	-1E+10	1	-1E+10	1	-1E+10	1	-1E+10	1	-1E+10	1	-1E+10	1
4901784	225	C	09/01/2021	10:43	-136.502	43.106	0	202.60	0	8.5100	0	37.3530	8	29.046	0	200.892	0	183.8	4	65.9	4	-1E+10	1	-1E+10	1	-1E+10	1	-1E+10	1	-1E+10	1	-1E+10	1
4901784	225	C	09/01/2021	10:43	-136.502	43.106	0	205.20	0	8.5000	0	37.3550	8	29.050	0	203.469	0	183.7	4	65.9	4	-1E+10	1	-1E+10	1	-1E+10	1	-1E+10	1	-1E+10	1	-1E+10	1
4901784	225	C	09/01/2021	10:43	-136.502	43.106	0	207.00	0	8.4860	0	37.3570	8	29.053	0	205.253	0	183.7	4	65.8	4	-1E+10	1	-1E+10	1	-1E+10	1	-1E+10	1	-1E+10	1	-1E+10	1
4901784	225	C	09/01/2021	10:43	-136.502	43.106	0	209.70	0	8.4470	0	37.3660	8	29.067	0	207.929	0	183.3	4	65.6	4	-1E+10	1	-1E+10	1	-1E+10	1	-1E+10	1	-1E+10	1	-1E+10	1
4901784	225	C	09/01/2021	10:43	-136.502	43.106	0	212.40	0	8.4090	0	37.3760	8	29.081	0	210.604	0	183.3	4	65.6	4	-1E+10	1	-1E+10	1	-1E+10	1	-1E+10	1	-1E+10	1	-1E+10	1
4901784	225	C	09/01/2021	10:43	-136.502	43.106	0	215.20	0	8.3720	0	37.3840	8	29.093	0	213.379	0	183.1	4	65.5	4	-1E+10	1	-1E+10	1	-1E+10	1	-1E+10	1	-1E+10	1	-1E+10	1
4901784	225	C	09/01/2021	10:43	-136.502	43.106	0	217.80	0	8.3380	0	37.3870	8	29.101	0	215.956	0	182.9	4	65.4	4	-1E+10	1	-1E+10	1	-1E+10	1	-1E+10	1	-1E+10	1	-1E+10	1
4901784	225	C	09/01/2021	10:43	-136.502	43.106	0	219.60	0	8.3040	0	37.4010	8	29.117	0	217.740	0	182.9	4	65.3	4	-1E+10	1	-1E+10	1	-1E+10	1	-1E+10	1	-1E+10	1	-1E+10	1
4901784	225	C	09/01/2021	10:43	-136.502	43.106	0	222.30	0	8.2680	0	37.4040	8	29.125	0	220.415	0	182.5	4	65.1	4	-1E+10	1	-1E+10	1	-1E+10	1	-1E+10	1	-1E+10	1	-1E+10	1
4901784	225	C	09/01/2021	10:43	-136.502	43.106	0	225.10	0	8.1940	0	37.4110	8	29.143	0	223.190	0	182.3	4	65.0	4	-1E+10	1	-1E+10	1	-1E+10	1	-1E+10	1	-1E+10	1	-1E+10	1
4901784	225	C	09/01/2021	10:43	-136.502	43.106	0	226.90	0	8.1920	0	37.4100	8	29.142	0	224.974	0	182.2	4	64.9	4	-1E+10	1	-1E+10	1	-1E+10	1	-1E+10	1	-1E+10	1	-1E+10	1
4901784	225	C	09/01/2021	10:43	-136.502	43.106	0	229.70	0	8.1910	0	37.4070	8	29.140	0	227.749	0	181.6	4	64.7	4	-1E+10	1	-1E+10	1	-1E+10	1	-1E+10	1	-1E+10	1	-1E+10	1
4901784	225	C	09/01/2021	10:43	-136.502	43.106	0	232.50	0	8.1120	0	37.4160	8	29.160	0	230.523	0	181.3	4	64.5	4	-1E+10	1	-1E+10	1	-1E+10	1	-1E+10	1	-1E+10	1	-1E+10	1
4901784	225	C	09/01/2021	10:43	-136.502	43.106	0	234.40	0	8.0870	0	37.4190	8	29.166	0	232.406	0	181.3	4	64.4	4	-1E+10	1	-1E+10	1	-1E+10	1	-1E+10	1	-1E+10	1	-1E+10	1
4901784	225	C	09/01/2021	10:43	-136.502	43.106	0	237.20	0	8.0620	0	37.4210	8	29.171	0	235.181	0	180.7	4	64.2	4	-1E+10	1	-1E+10	1	-1E+10	1	-1E+10	1	-1E+10	1	-1E+10	1
4901784	225	C	09/01/2021	10:43	-136.502	43.106	0	240.00	0	8.0320	0	37.4250	8	29.179	0	237.955	0	180.0	4	63.9	4	-1E+10	1	-1E+10	1	-1E+10	1	-1E+10	1	-1E+10	1	-1E+10	1
4901784	225	C	09/01/2021	10:43	-136.502	43.106	0	242.80	0	8.0010	0	37.4280	8	29.186	0	240.730	0	178.8	4	63.4	4	-1E+10	1	-1E+10	1	-1E+10	1	-1E+10	1	-1E+10	1	-1E+10	1
4901784	225	C	09/01/2021	10:43	-136.502	43.106	0	245.50	0	7.9640	0	37.4310	8	29.195	0	243.405	0	177.6	4	63.0	4	-1E+10	1	-1E+10	1	-1E+10	1	-1E+10	1	-1E+10	1	-1E+10	1
4901784	225	C	09/01/2021	10:43	-136.502	43.106	0	247.40	0	7.9540	0	37.4300	8	29.195	0	245.288	0	176.8	4	62.7	4	-1E+10	1	-1E+10	1	-1E+10	1	-1E+10	1	-1E+10	1	-1E+10	1
4901784	225	C	09/01/2021	10:43	-136.502	43.106	0	250.20	0	7.9020	0	37.4360	8	29.208	0	248.062	0	175.5	4	62.1	4	-1E+10	1	-1E+10	1	-1E+10	1	-1E+10	1	-1E+10	1	-1E+10	1
4901784	225	C	09/01/2021	10:43	-136.502	43.106	0	252.90	0	7.8610	0	37.4430	8	29.220	0	250.737	0	174.3	4	61.7	4	-1E+10	1	-1E+10	1	-1E+10	1	-1E+10	1	-1E+10	1	-1E+10	1
4901784	225	C	09/01/2021	10:43	-136.502	43.106	0	254.80	0	7.8550	0	37.4410	8	29.219	0	252.620	0	173.5	4	61.4	4	-1E+10	1	-1E+10	1	-1E+10	1	-1E+10	1	-1E+10	1	-1E+10	1
4901784	225	C	09/01/2021	10:43	-136.502	43.106	0	257.50	0	7.8310	0	37.4390	8	29.222	0	255.295	0	172.0	4	60.8	4	-1E+10	1	-1E+10	1	-1E+10	1	-1E+10	1	-1E+10	1	-1E+10	1
4901784	225	C	09/01/2021	10:43	-136.502	43.106	0	260.20	0	7.7660	0	37.4380	8	29.231	0	257.970	0	170.3	4	60.1	4	-1E+10	1	-1E+10	1	-1E+10	1	-1E+10	1	-1E+10	1	-1E+10	1
4901784	225	C	09/01/2021	10:43	-136.502	43.106	0	262.10	0	7.6970	0	37.4460	8	29.248	0	259.853	0	169.2	4	59.6	4	-1E+10	1	-1E+10	1	-1E+10	1	-1E+10	1	-1E+10	1	-1E+10	1
4901784	225	C	09/01/2021	10:43	-136.502	43.106	0	264.80	0	7.6500	0	37.4480	8	29.256	0	262.528	0	167.8	4	59.1	4	-1E+10	1	-1E+10	1	-1E+10	1	-1E+10	1	-1E+10	1	-1E+10	1
4901784	225	C	09/01/2021	10:43	-136.502	43.106	0	267.50	0	7.6330	0	37.4510	8	29.261	0	265.203	0	166.7	4	58.7	4	-1E+10	1	-1E+10	1	-1E+10	1	-1E+10	1	-1E+10	1	-1E+10	1
4901784	225	C	09/01/2021	10:43	-136.502	43.106	0	270.20	0	7.4780	0	37.4450	8	29.280	0	267.878	0	167.1	4	58.6	4	-1E+10	1	-1E+10	1	-1E+10	1	-1E+10	1	-1E+10	1	-1E+10	1
4901784	225	C	09/01/2021	10:43	-136.502	43.106	0	272.90	0	7.4270	0	37.4420	8	29.285	0	270.553	0	166.7	4	58.4	4	-1E+10	1	-1E+10	1	-1E+10	1	-1E+10	1	-1E+10	1	-1E+10	1
4901784	225	C	09/01/2021	10:43	-136.502	43.106	0	274.70	0	7.4210	0	37.4420	8	29.286	0	272.337	0	165.8	4	58.1	4	-1E+10	1	-1E+10	1	-1E+10	1	-1E+10	1	-1E+10	1	-1E+10	1
4901784	225	C	09/01/2021	10:43	-136.502	43.106	0	277.30	0	7.3790	0	37.4420	8	29.293	0	274.913	0	164.4	4	57.5	4	-1E+10	1	-1E+10	1	-1E+10	1	-1E+10	1	-1E+10	1	-1E+10	1
4901784	225	C	09/01/2021	10:43	-136.502	43.106	0	280.00	0	7.3440	0	37.4460	8	29.301	0	277.588	0	162.7	4	56.9	4	-1E+10	1	-1E+10	1	-1E+10	1	-1E+10	1	-1E+10	1	-1E+10	1
4901784	225	C	09/01/2021	10:43	-136.502	43.106	0	282.70	0	7.3250	0	37.4470	8	29.305	0	280.262	0	160.7	4	56.2	4	-1E+10	1	-1E+10	1	-1E+10	1	-1E+10	1	-1E+10	1	-1E+10	1
4901784	225	C	09/01/2021	10:43	-136.502	43.106	0	285.30	0	7.2750	0	37.4520	8	29.316	0	282.838	0	158.7	4	55.4	4	-1E+10	1	-1E+10	1	-1E+10	1	-1E+10	1	-1E+10	1	-1E+10	1
4901784	225	C	09/01/2021	10:43	-136.502	43.106	0	287.00	0	7.2720	0	37.4520	8	29.317	0	284.522	0	157.4	4	54.9	4	-1E+10	1	-1E+10	1	-1E+10	1	-1E+10	1	-1E+10	1	-1E+10	1
4901784	225	C	09/01/2021	10:43	-136.502	43.106	0	289.70	0	7.2530	0	37.4540	8	29.321	0	287.197	0	154.8	4	54.0	4	-1E+10	1	-1E+10	1	-1E+10	1	-1E+10	1	-1E+10	1	-1E+10	1
4901784	225	C	09/01/2021	10:43	-136.502	43.106	0	292.30	0	7.2060	0	37.4580	8	29.331	0	289.773	0	152.5	4	53.2	4	-1E+10	1	-1E+10	1	-1E+10	1	-1E+10	1	-1E+10	1	-1E+10	1
4901784	225	C	09/01/2021	10:43	-136.502	43.106	0	295.00	0	7.1490	0	37.4650	8	29.345	0	292.448	0	150.5	4	52.4	4	-1E+10	1	-1E+10	1	-1E+10	1	-1E+10	1	-1E+10	1	-1E+10	1
4901784	225	C	09/01/2021	10:43	-136.502	43.106	0	297.60	0	7.1310	0	37.4690	8	29.351	0	295.023	0	148.1	4	51.5	4	-1E+10	1	-1E+10	1	-1E+10	1	-1E+10	1	-1E+10	1	-1E+10	1
4901784	225	C	09/01/2021	10:43	-136.502	43.106	0	299.40	0	7.1310	0	37.4770	8	29.357	0	296.806	0	146.8	4	51.1	4	-1E+10	1	-1E+10	1	-1E+10	1	-1E+10	1	-1E+10	1	-1E+10	1
4901784	225	C	09/01/2021	10:43	-136.502	43.106	0	302.20	0	7.1090	0	37.4800	8	29.363	0	299.580	0	145.0	4	50.5	4	-1E+10	1	-1E+10	1	-1E+10	1	-1E+10	1	-1E+10	1	-1E+10	1
4901784	225	C	09/01/2021	10:43	-136.502	43.106	0	304.80	0	7.0330	0	37.4840	8	29.377	0	302.156	0	143.9	4	50.0	4	-1E+10	1	-1E+10	1	-1E+10	1	-1E+10	1	-1E+10	1	-1E+10	1
4901784	225	C	09/01/2021	10:43	-136.502	43.106	0	307.40	0	6.9940	0	37.4830	8	29.382	0	304.731	0	143.0	4	49.6	4	-1E+10	1	-1E+10	1	-1E+10	1	-1E+10	1	-1E+10	1	-1E+10	1
4901784	225	C	09/01/2021	10:43	-136.502	43.106	0	310.10	0	6.9380	0	37.4840	8	29.391	0	307.406	0	141.8	4	49.1	4	-1E+10	1	-1E+10	1	-1E+10	1	-1E+10	1	-1E+10	1	-1E+10	1
4901784	225	C	09/01/2021	10:43	-136.502	43.106	0	312.70	0	6.9020	0	37.4880	8	29.399	0	309.981	0	140.3	4	48.6	4	-1E+10	1	-1E+10	1	-1E+10	1	-1E+10	1	-1E+10	1	-1E+10	1
4901784	225	C	09/01/2021	10:43	-136.502	43.106	0	315.40	0	6.8820	0	37.4870	8	29.401	0	312.656	0	138.9	4	48.1	4	-1E+10	1	-1E+10	1	-1E+10	1	-1E+10	1	-1E+10	1	-1E+10	1
4901784	225	C	09/01/2021	10:43	-136.502	43.106	0	317.20	0	6.8640	0	37.4880	8	29.405	0	314.439	0	137.6	4	47.6	4	-1E+10	1	-1E+10	1	-1E+10	1	-1E+10	1	-1E+10	1	-1E+10	1
4901784	225	C	09/01/2021	10:43	-136.502	43.106	0	320.00	0	6.8260	0	37.4890	8	29.411	0	317.212	0	135.4	4	46.8	4	-1E+10	1	-1E+10	1	-1E+10	1	-1E+10	1	-1E+10	1	-1E+10	1
4901784	225	C	09/01/2021	10:43	-136.502	43.106	0	322.70	0	6.7750	0	37.4920	8	29.421	0	319.887	0	133.2	4	46.0	4	-1E+10	1	-1E+10	1	-1E+10	1	-1E+10	1	-1E+10	1	-1E+10	1
4901784	225	C	09/01/2021	10:43	-136.502	43.106	0	324.60	0	6.7240	0	37.4960	8	29.431	0	321.769	0	131.6	4	45.4	4	-1E+10	1	-1E+10	1	-1E+10	1	-1E+10	1	-1E+10	1	-1E+10	1
4901784	225	C	09/01/2021	10:43	-136.502	43.106	0	327.30	0	6.7040	0	37.4970	8	29.435	0	324.443	0	129.2	4	44.5	4	-1E+10	1	-1E+10	1	-1E+10	1	-1E+10	1	-1E+10	1	-1E+10	1
4901784	225	C	09/01/2021	10:43	-136.502	43.106	0	330.10	0	6.6630	0	37.4990	8	29.442	0	327.216	0	127.0	4	43.7	4	-1E+10	1	-1E+10	1	-1E+10	1	-1E+10	1	-1E+10	1	-1E+10	1
4901784	225	C	09/01/2021	10:43	-136.502	43.106	0	331.90	0	6.6120	0	37.5010	8	29.451	0	328.999	0	125.7	4	43.3	4	-1E+10	1	-1E+10	1	-1E+10	1	-1E+10	1	-1E+10	1	-1E+10	1
4901784	225	C	09/01/2021	10:43	-136.502	43.106	0	334.70	0	6.5100	0	37.5050	8	29.468	0	331.772	0	123.9	4	42.5	4	-1E+10	1	-1E+10	1	-1E+10	1	-1E+10	1	-1E+10	1	-1E+10	1
4901784	225	C	09/01/2021	10:43	-136.502	43.106	0	337.50	0	6.4910	0	37.5080	8	29.474	0	334.546	0	121.8	4	41.8	4	-1E+10	1	-1E+10	1	-1E+10	1	-1E+10	1	-1E+10	1	-1E+10	1
4901784	225	C	09/01/2021	10:43	-136.502	43.106	0	340.30	0	6.4420	0	37.5110	8	29.483	0	337.319	0	120.3	4	41.3	4	-1E+10	1	-1E+10	1	-1E+10	1	-1E+10	1	-1E+10	1	-1E+10	1
4901784	225	C	09/01/2021	10:43	-136.502	43.106	0	343.40	0	6.4230	0	37.5120	8	29.486	0	340.389	0	118.9	4	40.7	4	-1E+10	1	-1E+10	1	-1E+10	1	-1E+10	1	-1E+10	1	-1E+10	1
4901784	225	C	09/01/2021	10:43	-136.502	43.106	0	344.80	0	6.3980	0	37.5130	8	29.490	0	341.776	0	118.2	4	40.5	4	-1E+10	1	-1E+10	1	-1E+10	1	-1E+10	1	-1E+10	1	-1E+10	1
4901784	225	C	09/01/2021	10:43	-136.502	43.106	0	347.20	0	6.3580	0	37.5140	8	29.497	0	344.153	0	117.2	4	40.1	4	-1E+10	1	-1E+10	1	-1E+10	1	-1E+10	1	-1E+10	1	-1E+10	1
4901784	225	C	09/01/2021	10:43	-136.502	43.106	0	349.70	0	6.3150	0	37.5170	8	29.505	0	346.629	0	116.2	4	39.7	4	-1E+10	1	-1E+10	1	-1E+10	1	-1E+10	1	-1E+10	1	-1E+10	1
4901784	225	C	09/01/2021	10:43	-136.502	43.106	0	352.20	0	6.2810	0	37.5170	8	29.510	0	349.105	0	115.6	4	39.5	4	-1E+10	1	-1E+10	1	-1E+10	1	-1E+10	1	-1E+10	1	-1E+10	1
4901784	225	C	09/01/2021	10:43	-136.502	43.106	0	354.60	0	6.2570	0	37.5170	8	29.513	0	351.481	0	114.9	4	39.2	4	-1E+10	1	-1E+10	1	-1E+10	1	-1E+10	1	-1E+10	1	-1E+10	1
4901784	225	C	09/01/2021	10:43	-136.502	43.106	0	357.90	0	6.2040	0	37.5190	8	29.522	0	354.750	0	114.0	4	38.9	4	-1E+10	1	-1E+10	1	-1E+10	1	-1E+10	1	-1E+10	1	-1E+10	1
4901784	225	C	09/01/2021	10:43	-136.502	43.106	0	360.40	0	6.1650	0	37.5190	8	29.527	0	357.225	0	113.4	4	38.6	4	-1E+10	1	-1E+10	1	-1E+10	1	-1E+10	1	-1E+10	1	-1E+10	1
4901784	225	C	09/01/2021	10:43	-136.502	43.106	0	362.10	0	6.1440	0	37.5190	8	29.530	0	358.909	0	112.8	4	38.4	4	-1E+10	1	-1E+10	1	-1E+10	1	-1E+10	1	-1E+10	1	-1E+10	1
4901784	225	C	09/01/2021	10:43	-136.502	43.106	0	364.70	0	6.0990	0	37.5230	8	29.539	0	361.484	0	112.1	4	38.1	4	-1E+10	1	-1E+10	1	-1E+10	1	-1E+10	1	-1E+10	1	-1E+10	1
4901784	225	C	09/01/2021	10:43	-136.502	43.106	0	367.30	0	6.0790	0	37.5210	8	29.541	0	364.059	0	111.2	4	37.8	4	-1E+10	1	-1E+10	1	-1E+10	1	-1E+10	1	-1E+10	1	-1E+10	1
4901784	225	C	09/01/2021	10:43	-136.502	43.106	0	369.90	0	6.0280	0	37.5250	8	29.551	0	366.633	0	110.2	4	37.4	4	-1E+10	1	-1E+10	1	-1E+10	1	-1E+10	1	-1E+10	1	-1E+10	1
4901784	225	C	09/01/2021	10:43	-136.502	43.106	0	372.40	0	5.9990	0	37.5260	8	29.555	0	369.109	0	109.2	4	37.0	4	-1E+10	1	-1E+10	1	-1E+10	1	-1E+10	1	-1E+10	1	-1E+10	1
4901784	225	C	09/01/2021	10:43	-136.502	43.106	0	375.00	0	5.9660	0	37.5270	8	29.561	0	371.684	0	108.1	4	36.7	4	-1E+10	1	-1E+10	1	-1E+10	1	-1E+10	1	-1E+10	1	-1E+10	1
4901784	225	C	09/01/2021	10:43	-136.502	43.106	0	377.60	0	5.9510	0	37.5280	8	29.563	0	374.258	0	106.6	4	36.1	4	-1E+10	1	-1E+10	1	-1E+10	1	-1E+10	1	-1E+10	1	-1E+10	1
4901784	225	C	09/01/2021	10:43	-136.502	43.106	0	380.30	0	5.9160	0	37.5320	8	29.571	0	376.932	0	105.1	4	35.6	4	-1E+10	1	-1E+10	1	-1E+10	1	-1E+10	1	-1E+10	1	-1E+10	1
4901784	225	C	09/01/2021	10:43	-136.502	43.106	0	383.00	0	5.8870	0	37.5340	8	29.577	0	379.606	0	103.8	4	35.1	4	-1E+10	1	-1E+10	1	-1E+10	1	-1E+10	1	-1E+10	1	-1E+10	1
4901784	225	C	09/01/2021	10:43	-136.502	43.106	0	384.70	0	5.8770	0	37.5340	8	29.578	0	381.289	0	103.1	4	34.9	4	-1E+10	1	-1E+10	1	-1E+10	1	-1E+10	1	-1E+10	1	-1E+10	1
4901784	225	C	09/01/2021	10:43	-136.502	43.106	0	387.40	0	5.8530	0	37.5370	8	29.584	0	383.963	0	101.7	4	34.4	4	-1E+10	1	-1E+10	1	-1E+10	1	-1E+10	1	-1E+10	1	-1E+10	1
4901784	225	C	09/01/2021	10:43	-136.502	43.106	0	390.00	0	5.8370	0	37.5380	8	29.587	0	386.537	0	100.3	4	33.9	4	-1E+10	1	-1E+10	1	-1E+10	1	-1E+10	1	-1E+10	1	-1E+10	1
4901784	225	C	09/01/2021	10:43	-136.502	43.106	0	392.70	0	5.8280	0	37.5370	8	29.587	0	389.211	0	98.2	4	33.2	4	-1E+10	1	-1E+10	1	-1E+10	1	-1E+10	1	-1E+10	1	-1E+10	1
4901784	225	C	09/01/2021	10:43	-136.502	43.106	0	395.30	0	5.8050	0	37.5370	8	29.590	0	391.785	0	95.8	4	32.4	4	-1E+10	1	-1E+10	1	-1E+10	1	-1E+10	1	-1E+10	1	-1E+10	1
4901784	225	C	09/01/2021	10:43	-136.502	43.106	0	397.10	0	5.7710	0	37.5400	8	29.597	0	393.567	0	94.7	4	32.0	4	-1E+10	1	-1E+10	1	-1E+10	1	-1E+10	1	-1E+10	1	-1E+10	1
4901784	225	C	09/01/2021	10:43	-136.502	43.106	0	399.80	0	5.7340	0	37.5410	8	29.603	0	396.241	0	93.2	4	31.4	4	-1E+10	1	-1E+10	1	-1E+10	1	-1E+10	1	-1E+10	1	-1E+10	1
4901784	225	C	09/01/2021	10:43	-136.502	43.106	0	402.40	0	5.6990	0	37.5440	8	29.610	0	398.815	0	91.7	4	30.9	4	-1E+10	1	-1E+10	1	-1E+10	1	-1E+10	1	-1E+10	1	-1E+10	1
4901784	225	C	09/01/2021	10:43	-136.502	43.106	0	405.10	0	5.6510	0	37.5490	8	29.620	0	401.489	0	90.1	4	30.4	4	-1E+10	1	-1E+10	1	-1E+10	1	-1E+10	1	-1E+10	1	-1E+10	1
4901784	225	C	09/01/2021	10:43	-136.502	43.106	0	407.80	0	5.6270	0	37.5500	8	29.624	0	404.162	0	89.1	4	30.0	4	-1E+10	1	-1E+10	1	-1E+10	1	-1E+10	1	-1E+10	1	-1E+10	1
4901784	225	C	09/01/2021	10:43	-136.502	43.106	0	409.60	0	5.6080	0	37.5520	8	29.628	0	405.944	0	88.5	4	29.8	4	-1E+10	1	-1E+10	1	-1E+10	1	-1E+10	1	-1E+10	1	-1E+10	1
4901784	225	C	09/01/2021	10:43	-136.502	43.106	0	412.20	0	5.5810	0	37.5540	8	29.633	0	408.518	0	87.8	4	29.5	4	-1E+10	1	-1E+10	1	-1E+10	1	-1E+10	1	-1E+10	1	-1E+10	1
4901784	225	C	09/01/2021	10:43	-136.502	43.106	0	414.90	0	5.5610	0	37.5550	8	29.636	0	411.191	0	87.3	4	29.3	4	-1E+10	1	-1E+10	1	-1E+10	1	-1E+10	1	-1E+10	1	-1E+10	1
4901784	225	C	09/01/2021	10:43	-136.502	43.106	0	417.60	0	5.5370	0	37.5570	8	29.641	0	413.865	0	86.9	4	29.2	4	-1E+10	1	-1E+10	1	-1E+10	1	-1E+10	1	-1E+10	1	-1E+10	1
4901784	225	C	09/01/2021	10:43	-136.502	43.106	0	420.20	0	5.5190	0	37.5580	8	29.644	0	416.439	0	86.5	4	29.0	4	-1E+10	1	-1E+10	1	-1E+10	1	-1E+10	1	-1E+10	1	-1E+10	1
4901784	225	C	09/01/2021	10:43	-136.502	43.106	0	422.90	0	5.4900	0	37.5590	8	29.649	0	419.112	0	86.1	4	28.9	4	-1E+10	1	-1E+10	1	-1E+10	1	-1E+10	1	-1E+10	1	-1E+10	1
4901784	225	C	09/01/2021	10:43	-136.502	43.106	0	425.50	0	5.4830	0	37.5580	8	29.649	0	421.686	0	85.4	4	28.7	4	-1E+10	1	-1E+10	1	-1E+10	1	-1E+10	1	-1E+10	1	-1E+10	1
4901784	225	C	09/01/2021	10:43	-136.502	43.106	0	427.30	0	5.4660	0	37.5590	8	29.652	0	423.468	0	84.7	4	28.4	4	-1E+10	1	-1E+10	1	-1E+10	1	-1E+10	1	-1E+10	1	-1E+10	1
4901784	225	C	09/01/2021	10:43	-136.502	43.106	0	429.90	0	5.4340	0	37.5620	8	29.658	0	426.042	0	83.5	4	28.0	4	-1E+10	1	-1E+10	1	-1E+10	1	-1E+10	1	-1E+10	1	-1E+10	1
4901784	225	C	09/01/2021	10:43	-136.502	43.106	0	432.50	0	5.4050	0	37.5640	8	29.664	0	428.616	0	82.4	4	27.6	4	-1E+10	1	-1E+10	1	-1E+10	1	-1E+10	1	-1E+10	1	-1E+10	1
4901784	225	C	09/01/2021	10:43	-136.502	43.106	0	435.20	0	5.3800	0	37.5670	8	29.669	0	431.289	0	81.6	4	27.3	4	-1E+10	1	-1E+10	1	-1E+10	1	-1E+10	1	-1E+10	1	-1E+10	1
4901784	225	C	09/01/2021	10:43	-136.502	43.106	0	437.80	0	5.3520	0	37.5700	8	29.675	0	433.863	0	81.0	4	27.1	4	-1E+10	1	-1E+10	1	-1E+10	1	-1E+10	1	-1E+10	1	-1E+10	1
4901784	225	C	09/01/2021	10:43	-136.502	43.106	0	439.60	0	5.3530	0	37.5690	8	29.674	0	435.645	0	80.5	4	26.9	4	-1E+10	1	-1E+10	1	-1E+10	1	-1E+10	1	-1E+10	1	-1E+10	1
4901784	225	C	09/01/2021	10:43	-136.502	43.106	0	442.20	0	5.3300	0	37.5710	8	29.679	0	438.219	0	79.8	4	26.7	4	-1E+10	1	-1E+10	1	-1E+10	1	-1E+10	1	-1E+10	1	-1E+10	1
4901784	225	C	09/01/2021	10:43	-136.502	43.106	0	444.80	0	5.3050	0	37.5730	8	29.684	0	440.792	0	78.6	4	26.3	4	-1E+10	1	-1E+10	1	-1E+10	1	-1E+10	1	-1E+10	1	-1E+10	1
4901784	225	C	09/01/2021	10:43	-136.502	43.106	0	447.40	0	5.2970	0	37.5750	8	29.686	0	443.366	0	77.5	4	25.9	4	-1E+10	1	-1E+10	1	-1E+10	1	-1E+10	1	-1E+10	1	-1E+10	1
4901784	225	C	09/01/2021	10:43	-136.502	43.106	0	450.00	0	5.2840	0	37.5760	8	29.689	0	445.940	0	76.8	4	25.6	4	-1E+10	1	-1E+10	1	-1E+10	1	-1E+10	1	-1E+10	1	-1E+10	1
4901784	225	C	09/01/2021	10:43	-136.502	43.106	0	452.70	0	5.2540	0	37.5790	8	29.695	0	448.613	0	76.1	4	25.4	4	-1E+10	1	-1E+10	1	-1E+10	1	-1E+10	1	-1E+10	1	-1E+10	1
4901784	225	C	09/01/2021	10:43	-136.502	43.106	0	455.30	0	5.2250	0	37.5820	8	29.701	0	451.186	0	75.8	4	25.3	4	-1E+10	1	-1E+10	1	-1E+10	1	-1E+10	1	-1E+10	1	-1E+10	1
4901784	225	C	09/01/2021	10:43	-136.502	43.106	0	457.00	0	5.2230	0	37.5820	8	29.701	0	452.869	0	75.7	4	25.2	4	-1E+10	1	-1E+10	1	-1E+10	1	-1E+10	1	-1E+10	1	-1E+10	1
4901784	225	C	09/01/2021	10:43	-136.502	43.106	0	459.70	0	5.2030	0	37.5810	8	29.703	0	455.542	0	75.5	4	25.2	4	-1E+10	1	-1E+10	1	-1E+10	1	-1E+10	1	-1E+10	1	-1E+10	1
4901784	225	C	09/01/2021	10:43	-136.502	43.106	0	462.40	0	5.1740	0	37.5810	8	29.707	0	458.214	0	74.9	4	25.0	4	-1E+10	1	-1E+10	1	-1E+10	1	-1E+10	1	-1E+10	1	-1E+10	1
4901784	225	C	09/01/2021	10:43	-136.502	43.106	0	465.00	0	5.1420	0	37.5850	8	29.714	0	460.788	0	73.7	4	24.5	4	-1E+10	1	-1E+10	1	-1E+10	1	-1E+10	1	-1E+10	1	-1E+10	1
4901784	225	C	09/01/2021	10:43	-136.502	43.106	0	467.60	0	5.1260	0	37.5860	8	29.717	0	463.362	0	72.6	4	24.1	4	-1E+10	1	-1E+10	1	-1E+10	1	-1E+10	1	-1E+10	1	-1E+10	1
4901784	225	C	09/01/2021	10:43	-136.502	43.106	0	470.30	0	5.1030	0	37.5890	8	29.722	0	466.034	0	71.1	4	23.7	4	-1E+10	1	-1E+10	1	-1E+10	1	-1E+10	1	-1E+10	1	-1E+10	1
4901784	225	C	09/01/2021	10:43	-136.502	43.106	0	472.90	0	5.0800	0	37.5940	8	29.729	0	468.608	0	70.0	4	23.2	4	-1E+10	1	-1E+10	1	-1E+10	1	-1E+10	1	-1E+10	1	-1E+10	1
4901784	225	C	09/01/2021	10:43	-136.502	43.106	0	474.70	0	5.0670	0	37.5960	8	29.732	0	470.389	0	69.6	4	23.1	4	-1E+10	1	-1E+10	1	-1E+10	1	-1E+10	1	-1E+10	1	-1E+10	1
4901784	225	C	09/01/2021	10:43	-136.502	43.106	0	477.40	0	5.0620	0	37.5970	8	29.733	0	473.062	0	69.2	4	23.0	4	-1E+10	1	-1E+10	1	-1E+10	1	-1E+10	1	-1E+10	1	-1E+10	1
4901784	225	C	09/01/2021	10:43	-136.502	43.106	0	480.00	0	5.0400	0	37.5970	8	29.736	0	475.635	0	69.1	4	22.9	4	-1E+10	1	-1E+10	1	-1E+10	1	-1E+10	1	-1E+10	1	-1E+10	1
4901784	225	C	09/01/2021	10:43	-136.502	43.106	0	482.70	0	5.0140	0	37.6000	8	29.742	0	478.307	0	68.7	4	22.8	4	-1E+10	1	-1E+10	1	-1E+10	1	-1E+10	1	-1E+10	1	-1E+10	1
4901784	225	C	09/01/2021	10:43	-136.502	43.106	0	485.30	0	5.0000	0	37.6050	8	29.747	0	480.881	0	68.3	4	22.7	4	-1E+10	1	-1E+10	1	-1E+10	1	-1E+10	1	-1E+10	1	-1E+10	1
4901784	225	C	09/01/2021	10:43	-136.502	43.106	0	487.10	0	4.9970	0	37.6050	8	29.748	0	482.662	0	68.0	4	22.5	4	-1E+10	1	-1E+10	1	-1E+10	1	-1E+10	1	-1E+10	1	-1E+10	1
4901784	225	C	09/01/2021	10:43	-136.502	43.106	0	489.80	0	4.9900	0	37.6060	8	29.750	0	485.334	0	67.4	4	22.3	4	-1E+10	1	-1E+10	1	-1E+10	1	-1E+10	1	-1E+10	1	-1E+10	1
4901784	225	C	09/01/2021	10:43	-136.502	43.106	0	492.50	0	4.9770	0	37.6070	8	29.752	0	488.007	0	66.9	4	22.2	4	-1E+10	1	-1E+10	1	-1E+10	1	-1E+10	1	-1E+10	1	-1E+10	1
4901784	225	C	09/01/2021	10:43	-136.502	43.106	0	495.20	0	4.9720	0	37.6070	8	29.753	0	490.679	0	66.4	4	22.0	4	-1E+10	1	-1E+10	1	-1E+10	1	-1E+10	1	-1E+10	1	-1E+10	1
4901784	225	C	09/01/2021	10:43	-136.502	43.106	0	497.80	0	4.9390	0	37.6120	8	29.761	0	493.252	0	65.8	4	21.8	4	-1E+10	1	-1E+10	1	-1E+10	1	-1E+10	1	-1E+10	1	-1E+10	1
4901784	225	C	09/01/2021	10:43	-136.502	43.106	0	499.60	0	4.9290	0	37.6130	8	29.763	0	495.033	0	65.4	4	21.6	4	-1E+10	1	-1E+10	1	-1E+10	1	-1E+10	1	-1E+10	1	-1E+10	1
4901784	225	C	09/01/2021	10:43	-136.502	43.106	0	505.00	0	4.8910	0	37.6200	8	29.773	0	500.378	0	64.3	4	21.3	4	-1E+10	1	-1E+10	1	-1E+10	1	-1E+10	1	-1E+10	1	-1E+10	1
4901784	225	C	09/01/2021	10:43	-136.502	43.106	0	510.40	0	4.8710	0	37.6230	8	29.778	0	505.722	0	63.8	4	21.1	4	-1E+10	1	-1E+10	1	-1E+10	1	-1E+10	1	-1E+10	1	-1E+10	1
4901784	225	C	09/01/2021	10:43	-136.502	43.106	0	514.90	0	4.8540	0	37.6250	8	29.781	0	510.175	0	63.3	4	20.9	4	-1E+10	1	-1E+10	1	-1E+10	1	-1E+10	1	-1E+10	1	-1E+10	1
4901784	225	C	09/01/2021	10:43	-136.502	43.106	0	519.30	0	4.8330	0	37.6270	8	29.786	0	514.529	0	62.0	4	20.5	4	-1E+10	1	-1E+10	1	-1E+10	1	-1E+10	1	-1E+10	1	-1E+10	1
4901784	225	C	09/01/2021	10:43	-136.502	43.106	0	524.80	0	4.8020	0	37.6340	8	29.795	0	519.972	0	60.3	4	19.9	4	-1E+10	1	-1E+10	1	-1E+10	1	-1E+10	1	-1E+10	1	-1E+10	1
4901784	225	C	09/01/2021	10:43	-136.502	43.106	0	530.20	0	4.7680	0	37.6390	8	29.803	0	525.315	0	59.2	4	19.6	4	-1E+10	1	-1E+10	1	-1E+10	1	-1E+10	1	-1E+10	1	-1E+10	1
4901784	225	C	09/01/2021	10:43	-136.502	43.106	0	534.80	0	4.7440	0	37.6430	8	29.809	0	529.867	0	58.4	4	19.3	4	-1E+10	1	-1E+10	1	-1E+10	1	-1E+10	1	-1E+10	1	-1E+10	1
4901784	225	C	09/01/2021	10:43	-136.502	43.106	0	539.40	0	4.7220	0	37.6480	8	29.816	0	534.418	0	58.0	4	19.1	4	-1E+10	1	-1E+10	1	-1E+10	1	-1E+10	1	-1E+10	1	-1E+10	1
4901784	225	C	09/01/2021	10:43	-136.502	43.106	0	545.00	0	4.6890	0	37.6500	8	29.821	0	539.959	0	57.6	4	19.0	4	-1E+10	1	-1E+10	1	-1E+10	1	-1E+10	1	-1E+10	1	-1E+10	1
4901784	225	C	09/01/2021	10:43	-136.502	43.106	0	550.60	0	4.6410	0	37.6570	8	29.833	0	545.500	0	56.1	4	18.5	4	-1E+10	1	-1E+10	1	-1E+10	1	-1E+10	1	-1E+10	1	-1E+10	1
4901784	225	C	09/01/2021	10:43	-136.502	43.106	0	555.20	0	4.5950	0	37.6630	8	29.843	0	550.052	0	54.2	4	17.8	4	-1E+10	1	-1E+10	1	-1E+10	1	-1E+10	1	-1E+10	1	-1E+10	1
4901784	225	C	09/01/2021	10:43	-136.502	43.106	0	559.80	0	4.5720	0	37.6730	8	29.854	0	554.603	0	51.2	4	16.8	4	-1E+10	1	-1E+10	1	-1E+10	1	-1E+10	1	-1E+10	1	-1E+10	1
4901784	225	C	09/01/2021	10:43	-136.502	43.106	0	565.30	0	4.5880	0	37.6830	8	29.860	0	560.044	0	47.5	4	15.6	4	-1E+10	1	-1E+10	1	-1E+10	1	-1E+10	1	-1E+10	1	-1E+10	1
4901784	225	C	09/01/2021	10:43	-136.502	43.106	0	569.90	0	4.5750	0	37.6880	8	29.865	0	564.595	0	46.6	4	15.3	4	-1E+10	1	-1E+10	1	-1E+10	1	-1E+10	1	-1E+10	1	-1E+10	1
4901784	225	C	09/01/2021	10:43	-136.502	43.106	0	574.50	0	4.5450	0	37.6920	8	29.872	0	569.146	0	45.5	4	15.0	4	-1E+10	1	-1E+10	1	-1E+10	1	-1E+10	1	-1E+10	1	-1E+10	1
4901784	225	C	09/01/2021	10:43	-136.502	43.106	0	580.00	0	4.5300	0	37.6990	8	29.880	0	574.587	0	43.8	4	14.4	4	-1E+10	1	-1E+10	1	-1E+10	1	-1E+10	1	-1E+10	1	-1E+10	1
4901784	225	C	09/01/2021	10:43	-136.502	43.106	0	585.60	0	4.5170	0	37.7050	8	29.886	0	580.127	0	42.1	4	13.8	4	-1E+10	1	-1E+10	1	-1E+10	1	-1E+10	1	-1E+10	1	-1E+10	1
4901784	225	C	09/01/2021	10:43	-136.502	43.106	0	590.20	0	4.4750	0	37.7110	8	29.896	0	584.678	0	41.2	4	13.5	4	-1E+10	1	-1E+10	1	-1E+10	1	-1E+10	1	-1E+10	1	-1E+10	1
4901784	225	C	09/01/2021	10:43	-136.502	43.106	0	594.90	0	4.4540	0	37.7190	8	29.904	0	589.327	0	38.0	4	12.5	4	-1E+10	1	-1E+10	1	-1E+10	1	-1E+10	1	-1E+10	1	-1E+10	1
4901784	225	C	09/01/2021	10:43	-136.502	43.106	0	600.60	0	4.4620	0	37.7340	8	29.916	0	594.966	0	35.0	4	11.5	4	-1E+10	1	-1E+10	1	-1E+10	1	-1E+10	1	-1E+10	1	-1E+10	1
4901784	225	C	09/01/2021	10:43	-136.502	43.106	0	605.30	0	4.4530	0	37.7410	8	29.922	0	599.615	0	33.5	4	11.0	4	-1E+10	1	-1E+10	1	-1E+10	1	-1E+10	1	-1E+10	1	-1E+10	1
4901784	225	C	09/01/2021	10:43	-136.502	43.106	0	610.10	0	4.4410	0	37.7470	8	29.928	0	604.363	0	32.6	4	10.7	4	-1E+10	1	-1E+10	1	-1E+10	1	-1E+10	1	-1E+10	1	-1E+10	1
4901784	225	C	09/01/2021	10:43	-136.502	43.106	0	614.80	0	4.4210	0	37.7520	8	29.935	0	609.012	0	31.8	4	10.4	4	-1E+10	1	-1E+10	1	-1E+10	1	-1E+10	1	-1E+10	1	-1E+10	1
4901784	225	C	09/01/2021	10:43	-136.502	43.106	0	619.40	0	4.4120	0	37.7560	8	29.939	0	613.562	0	31.3	4	10.2	4	-1E+10	1	-1E+10	1	-1E+10	1	-1E+10	1	-1E+10	1	-1E+10	1
4901784	225	C	09/01/2021	10:43	-136.502	43.106	0	625.20	0	4.3840	0	37.7630	8	29.948	0	619.298	0	30.4	4	10.0	4	-1E+10	1	-1E+10	1	-1E+10	1	-1E+10	1	-1E+10	1	-1E+10	1
4901784	225	C	09/01/2021	10:43	-136.502	43.106	0	630.50	0	4.3610	0	37.7690	8	29.955	0	624.540	0	29.0	4	9.5	4	-1E+10	1	-1E+10	1	-1E+10	1	-1E+10	1	-1E+10	1	-1E+10	1
4901784	225	C	09/01/2021	10:43	-136.502	43.106	0	635.30	0	4.3550	0	37.7760	8	29.962	0	629.288	0	27.7	4	9.0	4	-1E+10	1	-1E+10	1	-1E+10	1	-1E+10	1	-1E+10	1	-1E+10	1
4901784	225	C	09/01/2021	10:43	-136.502	43.106	0	640.10	0	4.3330	0	37.7820	8	29.969	0	634.035	0	26.8	4	8.8	4	-1E+10	1	-1E+10	1	-1E+10	1	-1E+10	1	-1E+10	1	-1E+10	1
4901784	225	C	09/01/2021	10:43	-136.502	43.106	0	644.90	0	4.3170	0	37.7890	8	29.977	0	638.782	0	25.9	4	8.5	4	-1E+10	1	-1E+10	1	-1E+10	1	-1E+10	1	-1E+10	1	-1E+10	1
4901784	225	C	09/01/2021	10:43	-136.502	43.106	0	649.80	0	4.2920	0	37.7950	8	29.984	0	643.628	0	25.5	4	8.3	4	-1E+10	1	-1E+10	1	-1E+10	1	-1E+10	1	-1E+10	1	-1E+10	1
4901784	225	C	09/01/2021	10:43	-136.502	43.106	0	654.70	0	4.2750	0	37.7980	8	29.989	0	648.474	0	25.1	4	8.2	4	-1E+10	1	-1E+10	1	-1E+10	1	-1E+10	1	-1E+10	1	-1E+10	1
4901784	225	C	09/01/2021	10:43	-136.502	43.106	0	659.70	0	4.2420	0	37.8010	8	29.995	0	653.419	0	24.5	4	8.0	4	-1E+10	1	-1E+10	1	-1E+10	1	-1E+10	1	-1E+10	1	-1E+10	1
4901784	225	C	09/01/2021	10:43	-136.502	43.106	0	664.70	0	4.2330	0	37.8090	8	30.002	0	658.363	0	23.4	4	7.6	4	-1E+10	1	-1E+10	1	-1E+10	1	-1E+10	1	-1E+10	1	-1E+10	1
4901784	225	C	09/01/2021	10:43	-136.502	43.106	0	669.70	0	4.2280	0	37.8160	8	30.008	0	663.308	0	22.6	4	7.4	4	-1E+10	1	-1E+10	1	-1E+10	1	-1E+10	1	-1E+10	1	-1E+10	1
4901784	225	C	09/01/2021	10:43	-136.502	43.106	0	674.70	0	4.2120	0	37.8230	8	30.016	0	668.252	0	21.8	4	7.1	4	-1E+10	1	-1E+10	1	-1E+10	1	-1E+10	1	-1E+10	1	-1E+10	1
4901784	225	C	09/01/2021	10:43	-136.502	43.106	0	679.70	0	4.2100	0	37.8290	8	30.021	0	673.196	0	21.1	4	6.9	4	-1E+10	1	-1E+10	1	-1E+10	1	-1E+10	1	-1E+10	1	-1E+10	1
4901784	225	C	09/01/2021	10:43	-136.502	43.106	0	684.70	0	4.1980	0	37.8340	8	30.026	0	678.140	0	20.4	4	6.7	4	-1E+10	1	-1E+10	1	-1E+10	1	-1E+10	1	-1E+10	1	-1E+10	1
4901784	225	C	09/01/2021	10:43	-136.502	43.106	0	689.70	0	4.1940	0	37.8410	8	30.032	0	683.084	0	19.7	4	6.4	4	-1E+10	1	-1E+10	1	-1E+10	1	-1E+10	1	-1E+10	1	-1E+10	1
4901784	225	C	09/01/2021	10:43	-136.502	43.106	0	694.80	0	4.1860	0	37.8460	8	30.037	0	688.127	0	19.2	4	6.3	4	-1E+10	1	-1E+10	1	-1E+10	1	-1E+10	1	-1E+10	1	-1E+10	1
4901784	225	C	09/01/2021	10:43	-136.502	43.106	0	700.00	0	4.1790	0	37.8510	8	30.042	0	693.268	0	18.7	4	6.1	4	-1E+10	1	-1E+10	1	-1E+10	1	-1E+10	1	-1E+10	1	-1E+10	1
4901784	225	C	09/01/2021	10:43	-136.502	43.106	0	705.20	0	4.1630	0	37.8550	8	30.047	0	698.409	0	18.3	4	5.9	4	-1E+10	1	-1E+10	1	-1E+10	1	-1E+10	1	-1E+10	1	-1E+10	1
4901784	225	C	09/01/2021	10:43	-136.502	43.106	0	710.40	0	4.1480	0	37.8610	8	30.054	0	703.550	0	17.8	4	5.8	4	-1E+10	1	-1E+10	1	-1E+10	1	-1E+10	1	-1E+10	1	-1E+10	1
4901784	225	C	09/01/2021	10:43	-136.502	43.106	0	714.90	0	4.1370	0	37.8650	8	30.058	0	707.999	0	17.4	4	5.7	4	-1E+10	1	-1E+10	1	-1E+10	1	-1E+10	1	-1E+10	1	-1E+10	1
4901784	225	C	09/01/2021	10:43	-136.502	43.106	0	719.40	0	4.1180	0	37.8710	8	30.065	0	712.448	0	17.0	4	5.5	4	-1E+10	1	-1E+10	1	-1E+10	1	-1E+10	1	-1E+10	1	-1E+10	1
4901784	225	C	09/01/2021	10:43	-136.502	43.106	0	724.90	0	4.1110	0	37.8780	8	30.072	0	717.886	0	16.5	4	5.4	4	-1E+10	1	-1E+10	1	-1E+10	1	-1E+10	1	-1E+10	1	-1E+10	1
4901784	225	C	09/01/2021	10:43	-136.502	43.106	0	730.50	0	4.1070	0	37.8820	8	30.075	0	723.422	0	16.0	4	5.2	4	-1E+10	1	-1E+10	1	-1E+10	1	-1E+10	1	-1E+10	1	-1E+10	1
4901784	225	C	09/01/2021	10:43	-136.502	43.106	0	735.90	0	4.0880	0	37.8890	8	30.083	0	728.760	0	15.6	4	5.1	4	-1E+10	1	-1E+10	1	-1E+10	1	-1E+10	1	-1E+10	1	-1E+10	1
4901784	225	C	09/01/2021	10:43	-136.502	43.106	0	740.10	0	4.0830	0	37.8940	8	30.088	0	732.912	0	15.2	4	5.0	4	-1E+10	1	-1E+10	1	-1E+10	1	-1E+10	1	-1E+10	1	-1E+10	1
4901784	225	C	09/01/2021	10:43	-136.502	43.106	0	744.90	0	4.0730	0	37.8980	8	30.092	0	737.657	0	14.9	4	4.8	4	-1E+10	1	-1E+10	1	-1E+10	1	-1E+10	1	-1E+10	1	-1E+10	1
4901784	225	C	09/01/2021	10:43	-136.502	43.106	0	749.80	0	4.0590	0	37.9060	8	30.100	0	742.500	0	14.6	4	4.7	4	-1E+10	1	-1E+10	1	-1E+10	1	-1E+10	1	-1E+10	1	-1E+10	1
4901784	225	C	09/01/2021	10:43	-136.502	43.106	0	754.70	0	4.0510	0	37.9090	8	30.103	0	747.344	0	14.4	4	4.7	4	-1E+10	1	-1E+10	1	-1E+10	1	-1E+10	1	-1E+10	1	-1E+10	1
4901784	225	C	09/01/2021	10:43	-136.502	43.106	0	759.60	0	4.0310	0	37.9130	8	30.109	0	752.187	0	14.2	4	4.6	4	-1E+10	1	-1E+10	1	-1E+10	1	-1E+10	1	-1E+10	1	-1E+10	1
4901784	225	C	09/01/2021	10:43	-136.502	43.106	0	764.60	0	4.0190	0	37.9160	8	30.113	0	757.130	0	14.0	4	4.6	4	-1E+10	1	-1E+10	1	-1E+10	1	-1E+10	1	-1E+10	1	-1E+10	1
4901784	225	C	09/01/2021	10:43	-136.502	43.106	0	769.60	0	4.0110	0	37.9200	8	30.117	0	762.072	0	13.7	4	4.5	4	-1E+10	1	-1E+10	1	-1E+10	1	-1E+10	1	-1E+10	1	-1E+10	1
4901784	225	C	09/01/2021	10:43	-136.502	43.106	0	774.80	0	3.9990	0	37.9270	8	30.124	0	767.211	0	13.4	4	4.4	4	-1E+10	1	-1E+10	1	-1E+10	1	-1E+10	1	-1E+10	1	-1E+10	1
4901784	225	C	09/01/2021	10:43	-136.502	43.106	0	779.90	0	3.9910	0	37.9310	8	30.128	0	772.252	0	13.2	4	4.3	4	-1E+10	1	-1E+10	1	-1E+10	1	-1E+10	1	-1E+10	1	-1E+10	1
4901784	225	C	09/01/2021	10:43	-136.502	43.106	0	785.20	0	3.9860	0	37.9360	8	30.132	0	777.490	0	13.0	4	4.2	4	-1E+10	1	-1E+10	1	-1E+10	1	-1E+10	1	-1E+10	1	-1E+10	1
4901784	225	C	09/01/2021	10:43	-136.502	43.106	0	790.40	0	3.9810	0	37.9400	8	30.136	0	782.629	0	12.8	4	4.2	4	-1E+10	1	-1E+10	1	-1E+10	1	-1E+10	1	-1E+10	1	-1E+10	1
4901784	225	C	09/01/2021	10:43	-136.502	43.106	0	794.90	0	3.9790	0	37.9430	8	30.139	0	787.076	0	12.6	4	4.1	4	-1E+10	1	-1E+10	1	-1E+10	1	-1E+10	1	-1E+10	1	-1E+10	1
4901784	225	C	09/01/2021	10:43	-136.502	43.106	0	799.30	0	3.9730	0	37.9470	8	30.143	0	791.425	0	12.4	4	4.0	4	-1E+10	1	-1E+10	1	-1E+10	1	-1E+10	1	-1E+10	1	-1E+10	1
4901784	225	C	09/01/2021	10:43	-136.502	43.106	0	804.70	0	3.9750	0	37.9510	8	30.146	0	796.761	0	12.2	4	3.9	4	-1E+10	1	-1E+10	1	-1E+10	1	-1E+10	1	-1E+10	1	-1E+10	1
4901784	225	C	09/01/2021	10:43	-136.502	43.106	0	810.10	0	3.9710	0	37.9570	8	30.151	0	802.098	0	11.9	4	3.9	4	-1E+10	1	-1E+10	1	-1E+10	1	-1E+10	1	-1E+10	1	-1E+10	1
4901784	225	C	09/01/2021	10:43	-136.502	43.106	0	815.60	0	3.9600	0	37.9600	8	30.155	0	807.533	0	11.8	4	3.8	4	-1E+10	1	-1E+10	1	-1E+10	1	-1E+10	1	-1E+10	1	-1E+10	1
4901784	225	C	09/01/2021	10:43	-136.502	43.106	0	820.20	0	3.9500	0	37.9650	8	30.160	0	812.078	0	11.6	4	3.8	4	-1E+10	1	-1E+10	1	-1E+10	1	-1E+10	1	-1E+10	1	-1E+10	1
4901784	225	C	09/01/2021	10:43	-136.502	43.106	0	825.00	0	3.9450	0	37.9700	8	30.165	0	816.821	0	11.4	4	3.7	4	-1E+10	1	-1E+10	1	-1E+10	1	-1E+10	1	-1E+10	1	-1E+10	1
4901784	225	C	09/01/2021	10:43	-136.502	43.106	0	830.60	0	3.9380	0	37.9740	8	30.169	0	822.355	0	11.3	4	3.7	4	-1E+10	1	-1E+10	1	-1E+10	1	-1E+10	1	-1E+10	1	-1E+10	1
4901784	225	C	09/01/2021	10:43	-136.502	43.106	0	835.30	0	3.9260	0	37.9770	8	30.172	0	826.999	0	11.2	4	3.6	4	-1E+10	1	-1E+10	1	-1E+10	1	-1E+10	1	-1E+10	1	-1E+10	1
4901784	225	C	09/01/2021	10:43	-136.502	43.106	0	840.00	0	3.9200	0	37.9800	8	30.175	0	831.643	0	11.1	4	3.6	4	-1E+10	1	-1E+10	1	-1E+10	1	-1E+10	1	-1E+10	1	-1E+10	1
4901784	225	C	09/01/2021	10:43	-136.502	43.106	0	844.80	0	3.9150	0	37.9820	8	30.178	0	836.385	0	11.0	4	3.6	4	-1E+10	1	-1E+10	1	-1E+10	1	-1E+10	1	-1E+10	1	-1E+10	1
4901784	225	C	09/01/2021	10:43	-136.502	43.106	0	849.60	0	3.9060	0	37.9870	8	30.183	0	841.128	0	10.9	4	3.5	4	-1E+10	1	-1E+10	1	-1E+10	1	-1E+10	1	-1E+10	1	-1E+10	1
4901784	225	C	09/01/2021	10:43	-136.502	43.106	0	855.20	0	3.8920	0	37.9900	8	30.187	0	846.661	0	10.8	4	3.5	4	-1E+10	1	-1E+10	1	-1E+10	1	-1E+10	1	-1E+10	1	-1E+10	1
4901784	225	C	09/01/2021	10:43	-136.502	43.106	0	860.60	0	3.8760	0	37.9960	8	30.193	0	851.996	0	10.7	4	3.5	4	-1E+10	1	-1E+10	1	-1E+10	1	-1E+10	1	-1E+10	1	-1E+10	1
4901784	225	C	09/01/2021	10:43	-136.502	43.106	0	865.40	0	3.8710	0	38.0000	8	30.197	0	856.738	0	10.6	4	3.4	4	-1E+10	1	-1E+10	1	-1E+10	1	-1E+10	1	-1E+10	1	-1E+10	1
4901784	225	C	09/01/2021	10:43	-136.502	43.106	0	870.30	0	3.8630	0	38.0040	8	30.201	0	861.579	0	10.5	4	3.4	4	-1E+10	1	-1E+10	1	-1E+10	1	-1E+10	1	-1E+10	1	-1E+10	1
4901784	225	C	09/01/2021	10:43	-136.502	43.106	0	875.30	0	3.8500	0	38.0080	8	30.206	0	866.518	0	10.4	4	3.4	4	-1E+10	1	-1E+10	1	-1E+10	1	-1E+10	1	-1E+10	1	-1E+10	1
4901784	225	C	09/01/2021	10:43	-136.502	43.106	0	880.10	0	3.8390	0	38.0140	8	30.212	0	871.260	0	10.3	4	3.3	4	-1E+10	1	-1E+10	1	-1E+10	1	-1E+10	1	-1E+10	1	-1E+10	1
4901784	225	C	09/01/2021	10:43	-136.502	43.106	0	885.00	0	3.8190	0	38.0170	8	30.216	0	876.101	0	10.2	4	3.3	4	-1E+10	1	-1E+10	1	-1E+10	1	-1E+10	1	-1E+10	1	-1E+10	1
4901784	225	C	09/01/2021	10:43	-136.502	43.106	0	890.00	0	3.8050	0	38.0210	8	30.221	0	881.040	0	10.2	4	3.3	4	-1E+10	1	-1E+10	1	-1E+10	1	-1E+10	1	-1E+10	1	-1E+10	1
4901784	225	C	09/01/2021	10:43	-136.502	43.106	0	895.00	0	3.7960	0	38.0260	8	30.226	0	885.979	0	10.1	4	3.3	4	-1E+10	1	-1E+10	1	-1E+10	1	-1E+10	1	-1E+10	1	-1E+10	1
4901784	225	C	09/01/2021	10:43	-136.502	43.106	0	900.10	0	3.7880	0	38.0300	8	30.230	0	891.017	0	10.1	4	3.3	4	-1E+10	1	-1E+10	1	-1E+10	1	-1E+10	1	-1E+10	1	-1E+10	1
4901784	225	C	09/01/2021	10:43	-136.502	43.106	0	905.20	0	3.7750	0	38.0340	8	30.235	0	896.054	0	10.0	4	3.2	4	-1E+10	1	-1E+10	1	-1E+10	1	-1E+10	1	-1E+10	1	-1E+10	1
4901784	225	C	09/01/2021	10:43	-136.502	43.106	0	910.40	0	3.7630	0	38.0380	8	30.240	0	901.191	0	10.0	4	3.2	4	-1E+10	1	-1E+10	1	-1E+10	1	-1E+10	1	-1E+10	1	-1E+10	1
4901784	225	C	09/01/2021	10:43	-136.502	43.106	0	915.50	0	3.7470	0	38.0430	8	30.245	0	906.228	0	9.9	4	3.2	4	-1E+10	1	-1E+10	1	-1E+10	1	-1E+10	1	-1E+10	1	-1E+10	1
4901784	225	C	09/01/2021	10:43	-136.502	43.106	0	920.60	0	3.7290	0	38.0480	8	30.251	0	911.265	0	9.9	4	3.2	4	-1E+10	1	-1E+10	1	-1E+10	1	-1E+10	1	-1E+10	1	-1E+10	1
4901784	225	C	09/01/2021	10:43	-136.502	43.106	0	925.70	0	3.7170	0	38.0510	8	30.255	0	916.303	0	9.9	4	3.2	4	-1E+10	1	-1E+10	1	-1E+10	1	-1E+10	1	-1E+10	1	-1E+10	1
4901784	225	C	09/01/2021	10:43	-136.502	43.106	0	930.00	0	3.7110	0	38.0550	8	30.259	0	920.549	0	9.9	4	3.2	4	-1E+10	1	-1E+10	1	-1E+10	1	-1E+10	1	-1E+10	1	-1E+10	1
4901784	225	C	09/01/2021	10:43	-136.502	43.106	0	934.40	0	3.7020	0	38.0570	8	30.262	0	924.895	0	9.9	4	3.2	4	-1E+10	1	-1E+10	1	-1E+10	1	-1E+10	1	-1E+10	1	-1E+10	1
4901784	225	C	09/01/2021	10:43	-136.502	43.106	0	939.60	0	3.6900	0	38.0600	8	30.265	0	930.030	0	9.8	4	3.2	4	-1E+10	1	-1E+10	1	-1E+10	1	-1E+10	1	-1E+10	1	-1E+10	1
4901784	225	C	09/01/2021	10:43	-136.502	43.106	0	944.80	0	3.6650	0	38.0670	8	30.274	0	935.166	0	9.8	4	3.2	4	-1E+10	1	-1E+10	1	-1E+10	1	-1E+10	1	-1E+10	1	-1E+10	1
4901784	225	C	09/01/2021	10:43	-136.502	43.106	0	950.00	0	3.6640	0	38.0720	8	30.278	0	940.301	0	9.8	4	3.2	4	-1E+10	1	-1E+10	1	-1E+10	1	-1E+10	1	-1E+10	1	-1E+10	1
4901784	225	C	09/01/2021	10:43	-136.502	43.106	0	955.20	0	3.6510	0	38.0760	8	30.282	0	945.436	0	9.9	4	3.2	4	-1E+10	1	-1E+10	1	-1E+10	1	-1E+10	1	-1E+10	1	-1E+10	1
4901784	225	C	09/01/2021	10:43	-136.502	43.106	0	960.50	0	3.6320	0	38.0790	8	30.287	0	950.670	0	9.9	4	3.2	4	-1E+10	1	-1E+10	1	-1E+10	1	-1E+10	1	-1E+10	1	-1E+10	1
4901784	225	C	09/01/2021	10:43	-136.502	43.106	0	964.90	0	3.6200	0	38.0810	8	30.290	0	955.015	0	9.9	4	3.2	4	-1E+10	1	-1E+10	1	-1E+10	1	-1E+10	1	-1E+10	1	-1E+10	1
4901784	225	C	09/01/2021	10:43	-136.502	43.106	0	969.30	0	3.6030	0	38.0840	8	30.294	0	959.360	0	9.9	4	3.2	4	-1E+10	1	-1E+10	1	-1E+10	1	-1E+10	1	-1E+10	1	-1E+10	1
4901784	225	C	09/01/2021	10:43	-136.502	43.106	0	974.70	0	3.5830	0	38.0870	8	30.299	0	964.692	0	9.9	4	3.2	4	-1E+10	1	-1E+10	1	-1E+10	1	-1E+10	1	-1E+10	1	-1E+10	1
4901784	225	C	09/01/2021	10:43	-136.502	43.106	0	980.00	0	3.5740	0	38.0900	8	30.302	0	969.926	0	9.9	4	3.2	4	-1E+10	1	-1E+10	1	-1E+10	1	-1E+10	1	-1E+10	1	-1E+10	1
4901784	225	C	09/01/2021	10:43	-136.502	43.106	0	985.30	0	3.5620	0	38.0940	8	30.307	0	975.159	0	9.9	4	3.2	4	-1E+10	1	-1E+10	1	-1E+10	1	-1E+10	1	-1E+10	1	-1E+10	1
4901784	225	C	09/01/2021	10:43	-136.502	43.106	0	990.60	0	3.5490	0	38.0970	8	30.310	0	980.392	0	10.0	4	3.2	4	-1E+10	1	-1E+10	1	-1E+10	1	-1E+10	1	-1E+10	1	-1E+10	1
4901784	225	C	09/01/2021	10:43	-136.502	43.106	0	995.20	0	3.5330	0	38.1010	8	30.315	0	984.934	0	10.0	4	3.2	4	-1E+10	1	-1E+10	1	-1E+10	1	-1E+10	1	-1E+10	1	-1E+10	1
4901784	225	C	09/01/2021	10:43	-136.502	43.106	0	999.70	0	3.5220	0	38.1050	8	30.320	0	989.377	0	10.1	4	3.2	4	-1E+10	1	-1E+10	1	-1E+10	1	-1E+10	1	-1E+10	1	-1E+10	1
4901784	225	C	09/01/2021	10:43	-136.502	43.106	0	1005.20	0	3.5070	0	38.1080	8	30.324	0	994.807	0	10.1	4	3.3	4	-1E+10	1	-1E+10	1	-1E+10	1	-1E+10	1	-1E+10	1	-1E+10	1
4901784	225	C	09/01/2021	10:43	-136.502	43.106	0	1010.60	0	3.4920	0	38.1110	8	30.328	0	1000.138	0	10.2	4	3.3	4	-1E+10	1	-1E+10	1	-1E+10	1	-1E+10	1	-1E+10	1	-1E+10	1
4901784	225	C	09/01/2021	10:43	-136.502	43.106	0	1015.20	0	3.4780	0	38.1160	8	30.333	0	1004.679	0	10.2	4	3.3	4	-1E+10	1	-1E+10	1	-1E+10	1	-1E+10	1	-1E+10	1	-1E+10	1
4901784	225	C	09/01/2021	10:43	-136.502	43.106	0	1019.80	0	3.4690	0	38.1190	8	30.337	0	1009.221	0	10.3	4	3.3	4	-1E+10	1	-1E+10	1	-1E+10	1	-1E+10	1	-1E+10	1	-1E+10	1
4901784	225	C	09/01/2021	10:43	-136.502	43.106	0	1025.20	0	3.4620	0	38.1220	8	30.340	0	1014.551	0	10.4	4	3.3	4	-1E+10	1	-1E+10	1	-1E+10	1	-1E+10	1	-1E+10	1	-1E+10	1
4901784	225	C	09/01/2021	10:43	-136.502	43.106	0	1029.80	0	3.4530	0	38.1250	8	30.343	0	1019.093	0	10.4	4	3.3	4	-1E+10	1	-1E+10	1	-1E+10	1	-1E+10	1	-1E+10	1	-1E+10	1
4901784	225	C	09/01/2021	10:43	-136.502	43.106	0	1034.30	0	3.4410	0	38.1260	8	30.345	0	1023.535	0	10.4	4	3.4	4	-1E+10	1	-1E+10	1	-1E+10	1	-1E+10	1	-1E+10	1	-1E+10	1
4901784	225	C	09/01/2021	10:43	-136.502	43.106	0	1039.80	0	3.4210	0	38.1310	8	30.351	0	1028.964	0	10.5	4	3.4	4	-1E+10	1	-1E+10	1	-1E+10	1	-1E+10	1	-1E+10	1	-1E+10	1
4901784	225	C	09/01/2021	10:43	-136.502	43.106	0	1045.30	0	3.4140	0	38.1320	8	30.353	0	1034.393	0	10.6	4	3.4	4	-1E+10	1	-1E+10	1	-1E+10	1	-1E+10	1	-1E+10	1	-1E+10	1
4901784	225	C	09/01/2021	10:43	-136.502	43.106	0	1049.90	0	3.4030	0	38.1340	8	30.356	0	1038.934	0	10.6	4	3.4	4	-1E+10	1	-1E+10	1	-1E+10	1	-1E+10	1	-1E+10	1	-1E+10	1
4901784	225	C	09/01/2021	10:43	-136.502	43.106	0	1054.50	0	3.3930	0	38.1370	8	30.359	0	1043.474	0	10.7	4	3.4	4	-1E+10	1	-1E+10	1	-1E+10	1	-1E+10	1	-1E+10	1	-1E+10	1
4901784	225	C	09/01/2021	10:43	-136.502	43.106	0	1060.10	0	3.3760	0	38.1400	8	30.364	0	1049.002	0	10.8	4	3.5	4	-1E+10	1	-1E+10	1	-1E+10	1	-1E+10	1	-1E+10	1	-1E+10	1
4901784	225	C	09/01/2021	10:43	-136.502	43.106	0	1064.80	0	3.3640	0	38.1430	8	30.367	0	1053.641	0	10.9	4	3.5	4	-1E+10	1	-1E+10	1	-1E+10	1	-1E+10	1	-1E+10	1	-1E+10	1
4901784	225	C	09/01/2021	10:43	-136.502	43.106	0	1069.40	0	3.3510	0	38.1470	8	30.372	0	1058.181	0	10.9	4	3.5	4	-1E+10	1	-1E+10	1	-1E+10	1	-1E+10	1	-1E+10	1	-1E+10	1
4901784	225	C	09/01/2021	10:43	-136.502	43.106	0	1075.00	0	3.3390	0	38.1500	8	30.376	0	1063.708	0	11.0	4	3.5	4	-1E+10	1	-1E+10	1	-1E+10	1	-1E+10	1	-1E+10	1	-1E+10	1
4901784	225	C	09/01/2021	10:43	-136.502	43.106	0	1079.70	0	3.3310	0	38.1520	8	30.378	0	1068.347	0	11.1	4	3.5	4	-1E+10	1	-1E+10	1	-1E+10	1	-1E+10	1	-1E+10	1	-1E+10	1
4901784	225	C	09/01/2021	10:43	-136.502	43.106	0	1085.10	0	3.3230	0	38.1540	8	30.380	0	1073.676	0	11.1	4	3.6	4	-1E+10	1	-1E+10	1	-1E+10	1	-1E+10	1	-1E+10	1	-1E+10	1
4901784	225	C	09/01/2021	10:43	-136.502	43.106	0	1090.20	0	3.3150	0	38.1560	8	30.383	0	1078.709	0	11.2	4	3.6	4	-1E+10	1	-1E+10	1	-1E+10	1	-1E+10	1	-1E+10	1	-1E+10	1
4901784	225	C	09/01/2021	10:43	-136.502	43.106	0	1095.20	0	3.3040	0	38.1580	8	30.386	0	1083.644	0	11.4	4	3.6	4	-1E+10	1	-1E+10	1	-1E+10	1	-1E+10	1	-1E+10	1	-1E+10	1
4901784	225	C	09/01/2021	10:43	-136.502	43.106	0	1100.10	0	3.2910	0	38.1620	8	30.390	0	1088.479	0	11.5	4	3.7	4	-1E+10	1	-1E+10	1	-1E+10	1	-1E+10	1	-1E+10	1	-1E+10	1
4901784	225	C	09/01/2021	10:43	-136.502	43.106	0	1105.10	0	3.2790	0	38.1640	8	30.393	0	1093.413	0	11.6	4	3.7	4	-1E+10	1	-1E+10	1	-1E+10	1	-1E+10	1	-1E+10	1	-1E+10	1
4901784	225	C	09/01/2021	10:43	-136.502	43.106	0	1110.10	0	3.2640	0	38.1690	8	30.399	0	1098.348	0	11.8	4	3.8	4	-1E+10	1	-1E+10	1	-1E+10	1	-1E+10	1	-1E+10	1	-1E+10	1
4901784	225	C	09/01/2021	10:43	-136.502	43.106	0	1115.00	0	3.2550	0	38.1710	8	30.401	0	1103.183	0	11.9	4	3.8	4	-1E+10	1	-1E+10	1	-1E+10	1	-1E+10	1	-1E+10	1	-1E+10	1
4901784	225	C	09/01/2021	10:43	-136.502	43.106	0	1120.00	0	3.2410	0	38.1750	8	30.406	0	1108.117	0	12.1	4	3.9	4	-1E+10	1	-1E+10	1	-1E+10	1	-1E+10	1	-1E+10	1	-1E+10	1
4901784	225	C	09/01/2021	10:43	-136.502	43.106	0	1125.10	0	3.2290	0	38.1770	8	30.409	0	1113.149	0	12.2	4	3.9	4	-1E+10	1	-1E+10	1	-1E+10	1	-1E+10	1	-1E+10	1	-1E+10	1
4901784	225	C	09/01/2021	10:43	-136.502	43.106	0	1130.60	0	3.2160	0	38.1810	8	30.413	0	1118.576	0	12.3	4	3.9	4	-1E+10	1	-1E+10	1	-1E+10	1	-1E+10	1	-1E+10	1	-1E+10	1
4901784	225	C	09/01/2021	10:43	-136.502	43.106	0	1135.30	0	3.2080	0	38.1830	8	30.416	0	1123.213	0	12.4	4	4.0	4	-1E+10	1	-1E+10	1	-1E+10	1	-1E+10	1	-1E+10	1	-1E+10	1
4901784	225	C	09/01/2021	10:43	-136.502	43.106	0	1139.50	0	3.2020	0	38.1850	8	30.418	0	1127.357	0	12.5	4	4.0	4	-1E+10	1	-1E+10	1	-1E+10	1	-1E+10	1	-1E+10	1	-1E+10	1
4901784	225	C	09/01/2021	10:43	-136.502	43.106	0	1144.70	0	3.1920	0	38.1870	8	30.421	0	1132.488	0	12.6	4	4.0	4	-1E+10	1	-1E+10	1	-1E+10	1	-1E+10	1	-1E+10	1	-1E+10	1
4901784	225	C	09/01/2021	10:43	-136.502	43.106	0	1149.50	0	3.1810	0	38.1900	8	30.424	0	1137.224	0	12.7	4	4.1	4	-1E+10	1	-1E+10	1	-1E+10	1	-1E+10	1	-1E+10	1	-1E+10	1
4901784	225	C	09/01/2021	10:43	-136.502	43.106	0	1154.30	0	3.1760	0	38.1910	8	30.426	0	1141.960	0	12.8	4	4.1	4	-1E+10	1	-1E+10	1	-1E+10	1	-1E+10	1	-1E+10	1	-1E+10	1
4901784	225	C	09/01/2021	10:43	-136.502	43.106	0	1159.20	0	3.1670	0	38.1930	8	30.428	0	1146.794	0	12.9	4	4.1	4	-1E+10	1	-1E+10	1	-1E+10	1	-1E+10	1	-1E+10	1	-1E+10	1
4901784	225	C	09/01/2021	10:43	-136.502	43.106	0	1165.00	0	3.1540	0	38.1950	8	30.431	0	1152.516	0	13.0	4	4.1	4	-1E+10	1	-1E+10	1	-1E+10	1	-1E+10	1	-1E+10	1	-1E+10	1
4901784	225	C	09/01/2021	10:43	-136.502	43.106	0	1170.60	0	3.1420	0	38.1980	8	30.435	0	1158.040	0	13.1	4	4.2	4	-1E+10	1	-1E+10	1	-1E+10	1	-1E+10	1	-1E+10	1	-1E+10	1
4901784	225	C	09/01/2021	10:43	-136.502	43.106	0	1175.70	0	3.1300	0	38.2010	8	30.439	0	1163.071	0	13.3	4	4.2	4	-1E+10	1	-1E+10	1	-1E+10	1	-1E+10	1	-1E+10	1	-1E+10	1
4901784	225	C	09/01/2021	10:43	-136.502	43.106	0	1180.60	0	3.1220	0	38.2030	8	30.441	0	1167.905	0	13.3	4	4.2	4	-1E+10	1	-1E+10	1	-1E+10	1	-1E+10	1	-1E+10	1	-1E+10	1
4901784	225	C	09/01/2021	10:43	-136.502	43.106	0	1185.60	0	3.1170	0	38.2040	8	30.442	0	1172.838	0	13.4	4	4.3	4	-1E+10	1	-1E+10	1	-1E+10	1	-1E+10	1	-1E+10	1	-1E+10	1
4901784	225	C	09/01/2021	10:43	-136.502	43.106	0	1190.70	0	3.1040	0	38.2070	8	30.446	0	1177.868	0	13.6	4	4.3	4	-1E+10	1	-1E+10	1	-1E+10	1	-1E+10	1	-1E+10	1	-1E+10	1
4901784	225	C	09/01/2021	10:43	-136.502	43.106	0	1195.80	0	3.0970	0	38.2080	8	30.448	0	1182.899	0	13.7	4	4.4	4	-1E+10	1	-1E+10	1	-1E+10	1	-1E+10	1	-1E+10	1	-1E+10	1
4901784	225	C	09/01/2021	10:43	-136.502	43.106	0	1200.00	0	3.0910	0	38.2100	8	30.450	0	1187.042	0	13.8	4	4.4	4	-1E+10	1	-1E+10	1	-1E+10	1	-1E+10	1	-1E+10	1	-1E+10	1
4901784	225	C	09/01/2021	10:43	-136.502	43.106	0	1204.20	0	3.0850	0	38.2120	8	30.452	0	1191.185	0	13.9	4	4.4	4	-1E+10	1	-1E+10	1	-1E+10	1	-1E+10	1	-1E+10	1	-1E+10	1
4901784	225	C	09/01/2021	10:43	-136.502	43.106	0	1209.30	0	3.0780	0	38.2130	8	30.454	0	1196.215	0	14.0	4	4.5	4	-1E+10	1	-1E+10	1	-1E+10	1	-1E+10	1	-1E+10	1	-1E+10	1
4901784	225	C	09/01/2021	10:43	-136.502	43.106	0	1214.40	0	3.0670	0	38.2150	8	30.457	0	1201.245	0	14.2	4	4.5	4	-1E+10	1	-1E+10	1	-1E+10	1	-1E+10	1	-1E+10	1	-1E+10	1
4901784	225	C	09/01/2021	10:43	-136.502	43.106	0	1219.50	0	3.0540	0	38.2180	8	30.460	0	1206.275	0	14.3	4	4.6	4	-1E+10	1	-1E+10	1	-1E+10	1	-1E+10	1	-1E+10	1	-1E+10	1
4901784	225	C	09/01/2021	10:43	-136.502	43.106	0	1224.70	0	3.0440	0	38.2200	8	30.463	0	1211.404	0	14.4	4	4.6	4	-1E+10	1	-1E+10	1	-1E+10	1	-1E+10	1	-1E+10	1	-1E+10	1
4901784	225	C	09/01/2021	10:43	-136.502	43.106	0	1230.00	0	3.0370	0	38.2220	8	30.465	0	1216.631	0	14.5	4	4.6	4	-1E+10	1	-1E+10	1	-1E+10	1	-1E+10	1	-1E+10	1	-1E+10	1
4901784	225	C	09/01/2021	10:43	-136.502	43.106	0	1235.20	0	3.0280	0	38.2240	8	30.468	0	1221.760	0	14.6	4	4.7	4	-1E+10	1	-1E+10	1	-1E+10	1	-1E+10	1	-1E+10	1	-1E+10	1
4901784	225	C	09/01/2021	10:43	-136.502	43.106	0	1240.50	0	3.0200	0	38.2260	8	30.470	0	1226.987	0	14.8	4	4.7	4	-1E+10	1	-1E+10	1	-1E+10	1	-1E+10	1	-1E+10	1	-1E+10	1
4901784	225	C	09/01/2021	10:43	-136.502	43.106	0	1245.70	0	3.0110	0	38.2280	8	30.473	0	1232.115	0	14.9	4	4.8	4	-1E+10	1	-1E+10	1	-1E+10	1	-1E+10	1	-1E+10	1	-1E+10	1
4901784	225	C	09/01/2021	10:43	-136.502	43.106	0	1250.00	0	3.0020	0	38.2290	8	30.475	0	1236.355	0	15.1	4	4.8	4	-1E+10	1	-1E+10	1	-1E+10	1	-1E+10	1	-1E+10	1	-1E+10	1
4901784	225	C	09/01/2021	10:43	-136.502	43.106	0	1255.00	0	2.9940	0	38.2320	8	30.478	0	1241.286	0	15.2	4	4.8	4	-1E+10	1	-1E+10	1	-1E+10	1	-1E+10	1	-1E+10	1	-1E+10	1
4901784	225	C	09/01/2021	10:43	-136.502	43.106	0	1260.70	0	2.9870	0	38.2330	8	30.479	0	1246.907	0	15.3	4	4.9	4	-1E+10	1	-1E+10	1	-1E+10	1	-1E+10	1	-1E+10	1	-1E+10	1
4901784	225	C	09/01/2021	10:43	-136.502	43.106	0	1265.60	0	2.9790	0	38.2350	8	30.482	0	1251.738	0	15.5	4	4.9	4	-1E+10	1	-1E+10	1	-1E+10	1	-1E+10	1	-1E+10	1	-1E+10	1
4901784	225	C	09/01/2021	10:43	-136.502	43.106	0	1270.60	0	2.9720	0	38.2360	8	30.483	0	1256.669	0	15.6	4	5.0	4	-1E+10	1	-1E+10	1	-1E+10	1	-1E+10	1	-1E+10	1	-1E+10	1
4901784	225	C	09/01/2021	10:43	-136.502	43.106	0	1275.50	0	2.9590	0	38.2390	8	30.487	0	1261.500	0	15.9	4	5.0	4	-1E+10	1	-1E+10	1	-1E+10	1	-1E+10	1	-1E+10	1	-1E+10	1
4901784	225	C	09/01/2021	10:43	-136.502	43.106	0	1280.50	0	2.9450	0	38.2420	8	30.491	0	1266.431	0	16.1	4	5.1	4	-1E+10	1	-1E+10	1	-1E+10	1	-1E+10	1	-1E+10	1	-1E+10	1
4901784	225	C	09/01/2021	10:43	-136.502	43.106	0	1285.50	0	2.9360	0	38.2440	8	30.493	0	1271.360	0	16.3	4	5.2	4	-1E+10	1	-1E+10	1	-1E+10	1	-1E+10	1	-1E+10	1	-1E+10	1
4901784	225	C	09/01/2021	10:43	-136.502	43.106	0	1290.50	0	2.9250	0	38.2460	8	30.496	0	1276.290	0	16.4	4	5.2	4	-1E+10	1	-1E+10	1	-1E+10	1	-1E+10	1	-1E+10	1	-1E+10	1
4901784	225	C	09/01/2021	10:43	-136.502	43.106	0	1295.60	0	2.9150	0	38.2470	8	30.498	0	1281.319	0	16.6	4	5.3	4	-1E+10	1	-1E+10	1	-1E+10	1	-1E+10	1	-1E+10	1	-1E+10	1
4901784	225	C	09/01/2021	10:43	-136.502	43.106	0	1300.60	0	2.9050	0	38.2500	8	30.501	0	1286.248	0	16.8	4	5.3	4	-1E+10	1	-1E+10	1	-1E+10	1	-1E+10	1	-1E+10	1	-1E+10	1
4901784	225	C	09/01/2021	10:43	-136.502	43.106	0	1305.70	0	2.8950	0	38.2520	8	30.504	0	1291.276	0	17.0	4	5.4	4	-1E+10	1	-1E+10	1	-1E+10	1	-1E+10	1	-1E+10	1	-1E+10	1
4901784	225	C	09/01/2021	10:43	-136.502	43.106	0	1310.80	0	2.8880	0	38.2530	8	30.506	0	1296.304	0	17.1	4	5.4	4	-1E+10	1	-1E+10	1	-1E+10	1	-1E+10	1	-1E+10	1	-1E+10	1
4901784	225	C	09/01/2021	10:43	-136.502	43.106	0	1315.00	0	2.8810	0	38.2550	8	30.508	0	1300.445	0	17.2	4	5.5	4	-1E+10	1	-1E+10	1	-1E+10	1	-1E+10	1	-1E+10	1	-1E+10	1
4901784	225	C	09/01/2021	10:43	-136.502	43.106	0	1319.20	0	2.8760	0	38.2560	8	30.509	0	1304.585	0	17.4	4	5.5	4	-1E+10	1	-1E+10	1	-1E+10	1	-1E+10	1	-1E+10	1	-1E+10	1
4901784	225	C	09/01/2021	10:43	-136.502	43.106	0	1324.40	0	2.8680	0	38.2580	8	30.512	0	1309.712	0	17.6	4	5.6	4	-1E+10	1	-1E+10	1	-1E+10	1	-1E+10	1	-1E+10	1	-1E+10	1
4901784	225	C	09/01/2021	10:43	-136.502	43.106	0	1329.50	0	2.8620	0	38.2590	8	30.513	0	1314.739	0	17.8	4	5.6	4	-1E+10	1	-1E+10	1	-1E+10	1	-1E+10	1	-1E+10	1	-1E+10	1
4901784	225	C	09/01/2021	10:43	-136.502	43.106	0	1334.70	0	2.8490	0	38.2620	8	30.517	0	1319.865	0	18.1	4	5.7	4	-1E+10	1	-1E+10	1	-1E+10	1	-1E+10	1	-1E+10	1	-1E+10	1
4901784	225	C	09/01/2021	10:43	-136.502	43.106	0	1339.90	0	2.8350	0	38.2650	8	30.521	0	1324.991	0	18.3	4	5.8	4	-1E+10	1	-1E+10	1	-1E+10	1	-1E+10	1	-1E+10	1	-1E+10	1
4901784	225	C	09/01/2021	10:43	-136.502	43.106	0	1345.20	0	2.8280	0	38.2660	8	30.522	0	1330.215	0	18.4	4	5.8	4	-1E+10	1	-1E+10	1	-1E+10	1	-1E+10	1	-1E+10	1	-1E+10	1
4901784	225	C	09/01/2021	10:43	-136.502	43.106	0	1350.60	0	2.8220	0	38.2670	8	30.524	0	1335.538	0	18.6	4	5.9	4	-1E+10	1	-1E+10	1	-1E+10	1	-1E+10	1	-1E+10	1	-1E+10	1
4901784	225	C	09/01/2021	10:43	-136.502	43.106	0	1355.10	0	2.8170	0	38.2680	8	30.525	0	1339.974	0	18.8	4	5.9	4	-1E+10	1	-1E+10	1	-1E+10	1	-1E+10	1	-1E+10	1	-1E+10	1
4901784	225	C	09/01/2021	10:43	-136.502	43.106	0	1359.70	0	2.8080	0	38.2700	8	30.527	0	1344.508	0	19.0	4	6.0	4	-1E+10	1	-1E+10	1	-1E+10	1	-1E+10	1	-1E+10	1	-1E+10	1
4901784	225	C	09/01/2021	10:43	-136.502	43.106	0	1365.20	0	2.7970	0	38.2720	8	30.530	0	1349.929	0	19.2	4	6.1	4	-1E+10	1	-1E+10	1	-1E+10	1	-1E+10	1	-1E+10	1	-1E+10	1
4901784	225	C	09/01/2021	10:43	-136.502	43.106	0	1370.60	0	2.7900	0	38.2740	8	30.532	0	1355.251	0	19.4	4	6.1	4	-1E+10	1	-1E+10	1	-1E+10	1	-1E+10	1	-1E+10	1	-1E+10	1
4901784	225	C	09/01/2021	10:43	-136.502	43.106	0	1375.20	0	2.7820	0	38.2750	8	30.534	0	1359.785	0	19.6	4	6.2	4	-1E+10	1	-1E+10	1	-1E+10	1	-1E+10	1	-1E+10	1	-1E+10	1
4901784	225	C	09/01/2021	10:43	-136.502	43.106	0	1379.80	0	2.7750	0	38.2770	8	30.536	0	1364.318	0	19.8	4	6.3	4	-1E+10	1	-1E+10	1	-1E+10	1	-1E+10	1	-1E+10	1	-1E+10	1
4901784	225	C	09/01/2021	10:43	-136.502	43.106	0	1385.20	0	2.7620	0	38.2790	8	30.539	0	1369.640	0	20.1	4	6.3	4	-1E+10	1	-1E+10	1	-1E+10	1	-1E+10	1	-1E+10	1	-1E+10	1
4901784	225	C	09/01/2021	10:43	-136.502	43.106	0	1390.60	0	2.7520	0	38.2810	8	30.542	0	1374.962	0	20.3	4	6.4	4	-1E+10	1	-1E+10	1	-1E+10	1	-1E+10	1	-1E+10	1	-1E+10	1
4901784	225	C	09/01/2021	10:43	-136.502	43.106	0	1395.40	0	2.7410	0	38.2830	8	30.545	0	1379.692	0	20.6	4	6.5	4	-1E+10	1	-1E+10	1	-1E+10	1	-1E+10	1	-1E+10	1	-1E+10	1
4901784	225	C	09/01/2021	10:43	-136.502	43.106	0	1400.30	0	2.7350	0	38.2850	8	30.547	0	1384.521	0	20.8	4	6.6	4	-1E+10	1	-1E+10	1	-1E+10	1	-1E+10	1	-1E+10	1	-1E+10	1
4901784	225	C	09/01/2021	10:43	-136.502	43.106	0	1405.20	0	2.7300	0	38.2860	8	30.548	0	1389.350	0	21.0	4	6.6	4	-1E+10	1	-1E+10	1	-1E+10	1	-1E+10	1	-1E+10	1	-1E+10	1
4901784	225	C	09/01/2021	10:43	-136.502	43.106	0	1410.10	0	2.7170	0	38.2880	8	30.551	0	1394.178	0	21.3	4	6.7	4	-1E+10	1	-1E+10	1	-1E+10	1	-1E+10	1	-1E+10	1	-1E+10	1
4901784	225	C	09/01/2021	10:43	-136.502	43.106	0	1415.10	0	2.7120	0	38.2890	8	30.552	0	1399.105	0	21.5	4	6.8	4	-1E+10	1	-1E+10	1	-1E+10	1	-1E+10	1	-1E+10	1	-1E+10	1
4901784	225	C	09/01/2021	10:43	-136.502	43.106	0	1420.10	0	2.7000	0	38.2920	8	30.556	0	1404.032	0	21.8	4	6.9	4	-1E+10	1	-1E+10	1	-1E+10	1	-1E+10	1	-1E+10	1	-1E+10	1
4901784	225	C	09/01/2021	10:43	-136.502	43.106	0	1425.20	0	2.6860	0	38.2940	8	30.559	0	1409.057	0	22.1	4	7.0	4	-1E+10	1	-1E+10	1	-1E+10	1	-1E+10	1	-1E+10	1	-1E+10	1
4901784	225	C	09/01/2021	10:43	-136.502	43.106	0	1430.30	0	2.6750	0	38.2960	8	30.562	0	1414.082	0	22.4	4	7.1	4	-1E+10	1	-1E+10	1	-1E+10	1	-1E+10	1	-1E+10	1	-1E+10	1
4901784	225	C	09/01/2021	10:43	-136.502	43.106	0	1435.50	0	2.6660	0	38.2980	8	30.564	0	1419.206	0	22.6	4	7.1	4	-1E+10	1	-1E+10	1	-1E+10	1	-1E+10	1	-1E+10	1	-1E+10	1
4901784	225	C	09/01/2021	10:43	-136.502	43.106	0	1440.80	0	2.6600	0	38.2990	8	30.566	0	1424.428	0	22.8	4	7.2	4	-1E+10	1	-1E+10	1	-1E+10	1	-1E+10	1	-1E+10	1	-1E+10	1
4901784	225	C	09/01/2021	10:43	-136.502	43.106	0	1445.20	0	2.6540	0	38.3010	8	30.568	0	1428.763	0	23.0	4	7.2	4	-1E+10	1	-1E+10	1	-1E+10	1	-1E+10	1	-1E+10	1	-1E+10	1
4901784	225	C	09/01/2021	10:43	-136.502	43.106	0	1449.70	0	2.6490	0	38.3020	8	30.569	0	1433.197	0	23.2	4	7.3	4	-1E+10	1	-1E+10	1	-1E+10	1	-1E+10	1	-1E+10	1	-1E+10	1
4901784	225	C	09/01/2021	10:43	-136.502	43.106	0	1455.00	0	2.6390	0	38.3040	8	30.572	0	1438.418	0	23.4	4	7.4	4	-1E+10	1	-1E+10	1	-1E+10	1	-1E+10	1	-1E+10	1	-1E+10	1
4901784	225	C	09/01/2021	10:43	-136.502	43.106	0	1460.40	0	2.6340	0	38.3050	8	30.573	0	1443.738	0	23.6	4	7.4	4	-1E+10	1	-1E+10	1	-1E+10	1	-1E+10	1	-1E+10	1	-1E+10	1
4901784	225	C	09/01/2021	10:43	-136.502	43.106	0	1464.90	0	2.6290	0	38.3060	8	30.574	0	1448.172	0	23.8	4	7.5	4	-1E+10	1	-1E+10	1	-1E+10	1	-1E+10	1	-1E+10	1	-1E+10	1
4901784	225	C	09/01/2021	10:43	-136.502	43.106	0	1469.40	0	2.6220	0	38.3070	8	30.576	0	1452.605	0	24.0	4	7.6	4	-1E+10	1	-1E+10	1	-1E+10	1	-1E+10	1	-1E+10	1	-1E+10	1
4901784	225	C	09/01/2021	10:43	-136.502	43.106	0	1474.90	0	2.6110	0	38.3090	8	30.579	0	1458.023	0	24.2	4	7.6	4	-1E+10	1	-1E+10	1	-1E+10	1	-1E+10	1	-1E+10	1	-1E+10	1
4901784	225	C	09/01/2021	10:43	-136.502	43.106	0	1480.30	0	2.6030	0	38.3100	8	30.580	0	1463.342	0	24.5	4	7.7	4	-1E+10	1	-1E+10	1	-1E+10	1	-1E+10	1	-1E+10	1	-1E+10	1
4901784	225	C	09/01/2021	10:43	-136.502	43.106	0	1484.90	0	2.5960	0	38.3120	8	30.582	0	1467.874	0	24.7	4	7.8	4	-1E+10	1	-1E+10	1	-1E+10	1	-1E+10	1	-1E+10	1	-1E+10	1
4901784	225	C	09/01/2021	10:43	-136.502	43.106	0	1489.50	0	2.5900	0	38.3130	8	30.584	0	1472.405	0	24.9	4	7.8	4	-1E+10	1	-1E+10	1	-1E+10	1	-1E+10	1	-1E+10	1	-1E+10	1
4901784	225	C	09/01/2021	10:43	-136.502	43.106	0	1494.90	0	2.5820	0	38.3140	8	30.585	0	1477.724	0	25.2	4	7.9	4	-1E+10	1	-1E+10	1	-1E+10	1	-1E+10	1	-1E+10	1	-1E+10	1
4901784	225	C	09/01/2021	10:43	-136.502	43.106	0	1500.50	0	2.5720	0	38.3160	8	30.588	0	1483.240	0	25.5	4	8.0	4	-1E+10	1	-1E+10	1	-1E+10	1	-1E+10	1	-1E+10	1	-1E+10	1
4901784	225	C	09/01/2021	10:43	-136.502	43.106	0	1505.10	0	2.5620	0	38.3180	8	30.591	0	1487.771	0	25.8	4	8.1	4	-1E+10	1	-1E+10	1	-1E+10	1	-1E+10	1	-1E+10	1	-1E+10	1
4901784	225	C	09/01/2021	10:43	-136.502	43.106	0	1510.00	0	2.5540	0	38.3190	8	30.592	0	1492.597	0	26.1	4	8.2	4	-1E+10	1	-1E+10	1	-1E+10	1	-1E+10	1	-1E+10	1	-1E+10	1
4901784	225	C	09/01/2021	10:43	-136.502	43.106	0	1515.10	0	2.5430	0	38.3210	8	30.595	0	1497.620	0	26.5	4	8.3	4	-1E+10	1	-1E+10	1	-1E+10	1	-1E+10	1	-1E+10	1	-1E+10	1
4901784	225	C	09/01/2021	10:43	-136.502	43.106	0	1519.90	0	2.5280	0	38.3230	8	30.598	0	1502.348	0	26.9	4	8.5	4	-1E+10	1	-1E+10	1	-1E+10	1	-1E+10	1	-1E+10	1	-1E+10	1
4901784	225	C	09/01/2021	10:43	-136.502	43.106	0	1524.80	0	2.5190	0	38.3250	8	30.600	0	1507.174	0	27.2	4	8.6	4	-1E+10	1	-1E+10	1	-1E+10	1	-1E+10	1	-1E+10	1	-1E+10	1
4901784	225	C	09/01/2021	10:43	-136.502	43.106	0	1529.60	0	2.5090	0	38.3270	8	30.603	0	1511.901	0	27.5	4	8.6	4	-1E+10	1	-1E+10	1	-1E+10	1	-1E+10	1	-1E+10	1	-1E+10	1
4901784	225	C	09/01/2021	10:43	-136.502	43.106	0	1534.50	0	2.5010	0	38.3280	8	30.605	0	1516.727	0	27.8	4	8.7	4	-1E+10	1	-1E+10	1	-1E+10	1	-1E+10	1	-1E+10	1	-1E+10	1
4901784	225	C	09/01/2021	10:43	-136.502	43.106	0	1539.40	0	2.4910	0	38.3310	8	30.608	0	1521.553	0	28.1	4	8.8	4	-1E+10	1	-1E+10	1	-1E+10	1	-1E+10	1	-1E+10	1	-1E+10	1
4901784	225	C	09/01/2021	10:43	-136.502	43.106	0	1544.30	0	2.4850	0	38.3320	8	30.609	0	1526.378	0	28.4	4	8.9	4	-1E+10	1	-1E+10	1	-1E+10	1	-1E+10	1	-1E+10	1	-1E+10	1
4901784	225	C	09/01/2021	10:43	-136.502	43.106	0	1549.30	0	2.4740	0	38.3340	8	30.612	0	1531.302	0	28.7	4	9.0	4	-1E+10	1	-1E+10	1	-1E+10	1	-1E+10	1	-1E+10	1	-1E+10	1
4901784	225	C	09/01/2021	10:43	-136.502	43.106	0	1554.30	0	2.4680	0	38.3350	8	30.613	0	1536.226	0	29.0	4	9.1	4	-1E+10	1	-1E+10	1	-1E+10	1	-1E+10	1	-1E+10	1	-1E+10	1
4901784	225	C	09/01/2021	10:43	-136.502	43.106	0	1559.30	0	2.4590	0	38.3360	8	30.615	0	1541.150	0	29.3	4	9.2	4	-1E+10	1	-1E+10	1	-1E+10	1	-1E+10	1	-1E+10	1	-1E+10	1
4901784	225	C	09/01/2021	10:43	-136.502	43.106	0	1564.40	0	2.4490	0	38.3380	8	30.618	0	1546.172	0	29.6	4	9.3	4	-1E+10	1	-1E+10	1	-1E+10	1	-1E+10	1	-1E+10	1	-1E+10	1
4901784	225	C	09/01/2021	10:43	-136.502	43.106	0	1569.60	0	2.4420	0	38.3400	8	30.620	0	1551.292	0	29.9	4	9.4	4	-1E+10	1	-1E+10	1	-1E+10	1	-1E+10	1	-1E+10	1	-1E+10	1
4901784	225	C	09/01/2021	10:43	-136.502	43.106	0	1574.70	0	2.4350	0	38.3410	8	30.622	0	1556.314	0	30.2	4	9.5	4	-1E+10	1	-1E+10	1	-1E+10	1	-1E+10	1	-1E+10	1	-1E+10	1
4901784	225	C	09/01/2021	10:43	-136.502	43.106	0	1579.90	0	2.4270	0	38.3430	8	30.624	0	1561.434	0	30.4	4	9.5	4	-1E+10	1	-1E+10	1	-1E+10	1	-1E+10	1	-1E+10	1	-1E+10	1
4901784	225	C	09/01/2021	10:43	-136.502	43.106	0	1585.10	0	2.4230	0	38.3430	8	30.624	0	1566.554	0	30.6	4	9.6	4	-1E+10	1	-1E+10	1	-1E+10	1	-1E+10	1	-1E+10	1	-1E+10	1
4901784	225	C	09/01/2021	10:43	-136.502	43.106	0	1590.30	0	2.4130	0	38.3450	8	30.627	0	1571.674	0	31.0	4	9.7	4	-1E+10	1	-1E+10	1	-1E+10	1	-1E+10	1	-1E+10	1	-1E+10	1
4901784	225	C	09/01/2021	10:43	-136.502	43.106	0	1595.60	0	2.4060	0	38.3460	8	30.628	0	1576.892	0	31.2	4	9.8	4	-1E+10	1	-1E+10	1	-1E+10	1	-1E+10	1	-1E+10	1	-1E+10	1
4901784	225	C	09/01/2021	10:43	-136.502	43.106	0	1600.00	0	2.4010	0	38.3480	8	30.631	0	1581.224	0	31.5	4	9.9	4	-1E+10	1	-1E+10	1	-1E+10	1	-1E+10	1	-1E+10	1	-1E+10	1
4901784	225	C	09/01/2021	10:43	-136.502	43.106	0	1604.40	0	2.3950	0	38.3480	8	30.631	0	1585.556	0	31.7	4	9.9	4	-1E+10	1	-1E+10	1	-1E+10	1	-1E+10	1	-1E+10	1	-1E+10	1
4901784	225	C	09/01/2021	10:43	-136.502	43.106	0	1609.80	0	2.3870	0	38.3500	8	30.633	0	1590.872	0	32.0	4	10.0	4	-1E+10	1	-1E+10	1	-1E+10	1	-1E+10	1	-1E+10	1	-1E+10	1
4901784	225	C	09/01/2021	10:43	-136.502	43.106	0	1615.10	0	2.3800	0	38.3510	8	30.635	0	1596.090	0	32.3	4	10.1	4	-1E+10	1	-1E+10	1	-1E+10	1	-1E+10	1	-1E+10	1	-1E+10	1
4901784	225	C	09/01/2021	10:43	-136.502	43.106	0	1620.60	0	2.3710	0	38.3530	8	30.637	0	1601.504	0	32.7	4	10.2	4	-1E+10	1	-1E+10	1	-1E+10	1	-1E+10	1	-1E+10	1	-1E+10	1
4901784	225	C	09/01/2021	10:43	-136.502	43.106	0	1625.10	0	2.3650	0	38.3540	8	30.639	0	1605.934	0	33.0	4	10.3	4	-1E+10	1	-1E+10	1	-1E+10	1	-1E+10	1	-1E+10	1	-1E+10	1
4901784	225	C	09/01/2021	10:43	-136.502	43.106	0	1629.60	0	2.3560	0	38.3560	8	30.641	0	1610.364	0	33.3	4	10.4	4	-1E+10	1	-1E+10	1	-1E+10	1	-1E+10	1	-1E+10	1	-1E+10	1
4901784	225	C	09/01/2021	10:43	-136.502	43.106	0	1635.00	0	2.3490	0	38.3570	8	30.643	0	1615.680	0	33.6	4	10.5	4	-1E+10	1	-1E+10	1	-1E+10	1	-1E+10	1	-1E+10	1	-1E+10	1
4901784	225	C	09/01/2021	10:43	-136.502	43.106	0	1640.40	0	2.3400	0	38.3580	8	30.644	0	1620.995	0	33.9	4	10.6	4	-1E+10	1	-1E+10	1	-1E+10	1	-1E+10	1	-1E+10	1	-1E+10	1
4901784	225	C	09/01/2021	10:43	-136.502	43.106	0	1645.00	0	2.3330	0	38.3600	8	30.647	0	1625.523	0	34.3	4	10.7	4	-1E+10	1	-1E+10	1	-1E+10	1	-1E+10	1	-1E+10	1	-1E+10	1
4901784	225	C	09/01/2021	10:43	-136.502	43.106	0	1649.50	0	2.3240	0	38.3610	8	30.648	0	1629.953	0	34.6	4	10.8	4	-1E+10	1	-1E+10	1	-1E+10	1	-1E+10	1	-1E+10	1	-1E+10	1
4901784	225	C	09/01/2021	10:43	-136.502	43.106	0	1654.90	0	2.3150	0	38.3620	8	30.650	0	1635.268	0	35.1	4	11.0	4	-1E+10	1	-1E+10	1	-1E+10	1	-1E+10	1	-1E+10	1	-1E+10	1
4901784	225	C	09/01/2021	10:43	-136.502	43.106	0	1660.30	0	2.3020	0	38.3650	8	30.654	0	1640.583	0	35.5	4	11.1	4	-1E+10	1	-1E+10	1	-1E+10	1	-1E+10	1	-1E+10	1	-1E+10	1
4901784	225	C	09/01/2021	10:43	-136.502	43.106	0	1664.90	0	2.2940	0	38.3670	8	30.656	0	1645.110	0	35.8	4	11.2	4	-1E+10	1	-1E+10	1	-1E+10	1	-1E+10	1	-1E+10	1	-1E+10	1
4901784	225	C	09/01/2021	10:43	-136.502	43.106	0	1669.40	0	2.2900	0	38.3680	8	30.657	0	1649.539	0	36.0	4	11.3	4	-1E+10	1	-1E+10	1	-1E+10	1	-1E+10	1	-1E+10	1	-1E+10	1
4901784	225	C	09/01/2021	10:43	-136.502	43.106	0	1675.00	0	2.2840	0	38.3690	8	30.659	0	1655.051	0	36.2	4	11.3	4	-1E+10	1	-1E+10	1	-1E+10	1	-1E+10	1	-1E+10	1	-1E+10	1
4901784	225	C	09/01/2021	10:43	-136.502	43.106	0	1680.50	0	2.2790	0	38.3690	8	30.659	0	1660.464	0	36.6	4	11.4	4	-1E+10	1	-1E+10	1	-1E+10	1	-1E+10	1	-1E+10	1	-1E+10	1
4901784	225	C	09/01/2021	10:43	-136.502	43.106	0	1685.10	0	2.2720	0	38.3700	8	30.661	0	1664.991	0	36.9	4	11.5	4	-1E+10	1	-1E+10	1	-1E+10	1	-1E+10	1	-1E+10	1	-1E+10	1
4901784	225	C	09/01/2021	10:43	-136.502	43.106	0	1689.70	0	2.2610	0	38.3730	8	30.664	0	1669.518	0	37.2	4	11.6	4	-1E+10	1	-1E+10	1	-1E+10	1	-1E+10	1	-1E+10	1	-1E+10	1
4901784	225	C	09/01/2021	10:43	-136.502	43.106	0	1695.30	0	2.2500	0	38.3760	8	30.668	0	1675.029	0	37.5	4	11.7	4	-1E+10	1	-1E+10	1	-1E+10	1	-1E+10	1	-1E+10	1	-1E+10	1
4901784	225	C	09/01/2021	10:43	-136.502	43.106	0	1699.90	0	2.2470	0	38.3760	8	30.668	0	1679.556	0	37.7	4	11.8	4	-1E+10	1	-1E+10	1	-1E+10	1	-1E+10	1	-1E+10	1	-1E+10	1
4901784	225	C	09/01/2021	10:43	-136.502	43.106	0	1704.60	0	2.2430	0	38.3770	8	30.669	0	1684.181	0	37.9	4	11.8	4	-1E+10	1	-1E+10	1	-1E+10	1	-1E+10	1	-1E+10	1	-1E+10	1
4901784	225	C	09/01/2021	10:43	-136.502	43.106	0	1710.20	0	2.2360	0	38.3790	8	30.671	0	1689.691	0	38.2	4	11.9	4	-1E+10	1	-1E+10	1	-1E+10	1	-1E+10	1	-1E+10	1	-1E+10	1
4901784	225	C	09/01/2021	10:43	-136.502	43.106	0	1714.80	0	2.2330	0	38.3800	8	30.672	0	1694.218	0	38.4	4	12.0	4	-1E+10	1	-1E+10	1	-1E+10	1	-1E+10	1	-1E+10	1	-1E+10	1
4901784	225	C	09/01/2021	10:43	-136.502	43.106	0	1719.50	0	2.2310	0	38.3800	8	30.673	0	1698.843	0	38.6	4	12.0	4	-1E+10	1	-1E+10	1	-1E+10	1	-1E+10	1	-1E+10	1	-1E+10	1
4901784	225	C	09/01/2021	10:43	-136.502	43.106	0	1725.20	0	2.2250	0	38.3820	8	30.675	0	1704.451	0	38.8	4	12.1	4	-1E+10	1	-1E+10	1	-1E+10	1	-1E+10	1	-1E+10	1	-1E+10	1
4901784	225	C	09/01/2021	10:43	-136.502	43.106	0	1729.90	0	2.2180	0	38.3830	8	30.676	0	1709.076	0	38.9	4	12.1	4	-1E+10	1	-1E+10	1	-1E+10	1	-1E+10	1	-1E+10	1	-1E+10	1
4901784	225	C	09/01/2021	10:43	-136.502	43.106	0	1734.60	0	2.2140	0	38.3840	8	30.678	0	1713.700	0	39.2	4	12.2	4	-1E+10	1	-1E+10	1	-1E+10	1	-1E+10	1	-1E+10	1	-1E+10	1
4901784	225	C	09/01/2021	10:43	-136.502	43.106	0	1740.20	0	2.2060	0	38.3850	8	30.679	0	1719.210	0	39.6	4	12.4	4	-1E+10	1	-1E+10	1	-1E+10	1	-1E+10	1	-1E+10	1	-1E+10	1
4901784	225	C	09/01/2021	10:43	-136.502	43.106	0	1744.80	0	2.2010	0	38.3860	8	30.680	0	1723.736	0	40.0	4	12.5	4	-1E+10	1	-1E+10	1	-1E+10	1	-1E+10	1	-1E+10	1	-1E+10	1
4901784	225	C	09/01/2021	10:43	-136.502	43.106	0	1749.50	0	2.1950	0	38.3870	8	30.682	0	1728.360	0	40.3	4	12.6	4	-1E+10	1	-1E+10	1	-1E+10	1	-1E+10	1	-1E+10	1	-1E+10	1
4901784	225	C	09/01/2021	10:43	-136.502	43.106	0	1755.00	0	2.1860	0	38.3890	8	30.684	0	1733.771	0	40.7	4	12.7	4	-1E+10	1	-1E+10	1	-1E+10	1	-1E+10	1	-1E+10	1	-1E+10	1
4901784	225	C	09/01/2021	10:43	-136.502	43.106	0	1759.80	0	2.1800	0	38.3900	8	30.686	0	1738.494	0	41.0	4	12.8	4	-1E+10	1	-1E+10	1	-1E+10	1	-1E+10	1	-1E+10	1	-1E+10	1
4901784	225	C	09/01/2021	10:43	-136.502	43.106	0	1765.10	0	2.1730	0	38.3920	8	30.688	0	1743.708	0	41.2	4	12.8	4	-1E+10	1	-1E+10	1	-1E+10	1	-1E+10	1	-1E+10	1	-1E+10	1
4901784	225	C	09/01/2021	10:43	-136.502	43.106	0	1770.30	0	2.1690	0	38.3920	8	30.688	0	1748.823	0	41.5	4	12.9	4	-1E+10	1	-1E+10	1	-1E+10	1	-1E+10	1	-1E+10	1	-1E+10	1
4901784	225	C	09/01/2021	10:43	-136.502	43.106	0	1775.20	0	2.1640	0	38.3930	8	30.690	0	1753.643	0	41.8	4	13.0	4	-1E+10	1	-1E+10	1	-1E+10	1	-1E+10	1	-1E+10	1	-1E+10	1
4901784	225	C	09/01/2021	10:43	-136.502	43.106	0	1780.10	0	2.1590	0	38.3950	8	30.692	0	1758.464	0	42.2	4	13.1	4	-1E+10	1	-1E+10	1	-1E+10	1	-1E+10	1	-1E+10	1	-1E+10	1
4901784	225	C	09/01/2021	10:43	-136.502	43.106	0	1785.00	0	2.1520	0	38.3960	8	30.693	0	1763.284	0	42.5	4	13.2	4	-1E+10	1	-1E+10	1	-1E+10	1	-1E+10	1	-1E+10	1	-1E+10	1
4901784	225	C	09/01/2021	10:43	-136.502	43.106	0	1789.90	0	2.1480	0	38.3970	8	30.694	0	1768.104	0	42.8	4	13.3	4	-1E+10	1	-1E+10	1	-1E+10	1	-1E+10	1	-1E+10	1	-1E+10	1
4901784	225	C	09/01/2021	10:43	-136.502	43.106	0	1794.70	0	2.1440	0	38.3980	8	30.695	0	1772.825	0	43.2	4	13.5	4	-1E+10	1	-1E+10	1	-1E+10	1	-1E+10	1	-1E+10	1	-1E+10	1
4901784	225	C	09/01/2021	10:43	-136.502	43.106	0	1799.60	0	2.1390	0	38.3990	8	30.697	0	1777.645	0	43.6	4	13.6	4	-1E+10	1	-1E+10	1	-1E+10	1	-1E+10	1	-1E+10	1	-1E+10	1
4901784	225	C	09/01/2021	10:43	-136.502	43.106	0	1804.50	0	2.1300	0	38.4010	8	30.699	0	1782.465	0	44.0	4	13.7	4	-1E+10	1	-1E+10	1	-1E+10	1	-1E+10	1	-1E+10	1	-1E+10	1
4901784	225	C	09/01/2021	10:43	-136.502	43.106	0	1809.40	0	2.1240	0	38.4020	8	30.701	0	1787.284	0	44.4	4	13.8	4	-1E+10	1	-1E+10	1	-1E+10	1	-1E+10	1	-1E+10	1	-1E+10	1
4901784	225	C	09/01/2021	10:43	-136.502	43.106	0	1814.30	0	2.1170	0	38.4040	8	30.703	0	1792.104	0	44.8	4	14.0	4	-1E+10	1	-1E+10	1	-1E+10	1	-1E+10	1	-1E+10	1	-1E+10	1
4901784	225	C	09/01/2021	10:43	-136.502	43.106	0	1819.30	0	2.1100	0	38.4050	8	30.704	0	1797.022	0	45.2	4	14.1	4	-1E+10	1	-1E+10	1	-1E+10	1	-1E+10	1	-1E+10	1	-1E+10	1
4901784	225	C	09/01/2021	10:43	-136.502	43.106	0	1824.30	0	2.1040	0	38.4060	8	30.706	0	1801.939	0	45.5	4	14.2	4	-1E+10	1	-1E+10	1	-1E+10	1	-1E+10	1	-1E+10	1	-1E+10	1
4901784	225	C	09/01/2021	10:43	-136.502	43.106	0	1829.30	0	2.0970	0	38.4080	8	30.708	0	1806.857	0	45.8	4	14.3	4	-1E+10	1	-1E+10	1	-1E+10	1	-1E+10	1	-1E+10	1	-1E+10	1
4901784	225	C	09/01/2021	10:43	-136.502	43.106	0	1834.30	0	2.0920	0	38.4090	8	30.709	0	1811.774	0	46.1	4	14.3	4	-1E+10	1	-1E+10	1	-1E+10	1	-1E+10	1	-1E+10	1	-1E+10	1
4901784	225	C	09/01/2021	10:43	-136.502	43.106	0	1839.30	0	2.0890	0	38.4100	8	30.710	0	1816.691	0	46.2	4	14.4	4	-1E+10	1	-1E+10	1	-1E+10	1	-1E+10	1	-1E+10	1	-1E+10	1
4901784	225	C	09/01/2021	10:43	-136.502	43.106	0	1844.40	0	2.0850	0	38.4100	8	30.711	0	1821.707	0	46.4	4	14.4	4	-1E+10	1	-1E+10	1	-1E+10	1	-1E+10	1	-1E+10	1	-1E+10	1
4901784	225	C	09/01/2021	10:43	-136.502	43.106	0	1849.40	0	2.0810	0	38.4120	8	30.713	0	1826.624	0	46.6	4	14.5	4	-1E+10	1	-1E+10	1	-1E+10	1	-1E+10	1	-1E+10	1	-1E+10	1
4901784	225	C	09/01/2021	10:43	-136.502	43.106	0	1854.50	0	2.0770	0	38.4130	8	30.714	0	1831.639	0	46.9	4	14.6	4	-1E+10	1	-1E+10	1	-1E+10	1	-1E+10	1	-1E+10	1	-1E+10	1
4901784	225	C	09/01/2021	10:43	-136.502	43.106	0	1859.60	0	2.0720	0	38.4140	8	30.715	0	1836.654	0	47.2	4	14.7	4	-1E+10	1	-1E+10	1	-1E+10	1	-1E+10	1	-1E+10	1	-1E+10	1
4901784	225	C	09/01/2021	10:43	-136.502	43.106	0	1864.80	0	2.0690	0	38.4140	8	30.716	0	1841.767	0	47.6	4	14.8	4	-1E+10	1	-1E+10	1	-1E+10	1	-1E+10	1	-1E+10	1	-1E+10	1
4901784	225	C	09/01/2021	10:43	-136.502	43.106	0	1870.00	0	2.0640	0	38.4160	8	30.718	0	1846.881	0	47.9	4	14.9	4	-1E+10	1	-1E+10	1	-1E+10	1	-1E+10	1	-1E+10	1	-1E+10	1
4901784	225	C	09/01/2021	10:43	-136.502	43.106	0	1875.10	0	2.0630	0	38.4160	8	30.718	0	1851.895	0	48.0	4	14.9	4	-1E+10	1	-1E+10	1	-1E+10	1	-1E+10	1	-1E+10	1	-1E+10	1
4901784	225	C	09/01/2021	10:43	-136.502	43.106	0	1880.20	0	2.0590	0	38.4170	8	30.719	0	1856.910	0	48.3	4	15.0	4	-1E+10	1	-1E+10	1	-1E+10	1	-1E+10	1	-1E+10	1	-1E+10	1
4901784	225	C	09/01/2021	10:43	-136.502	43.106	0	1885.30	0	2.0550	0	38.4180	8	30.720	0	1861.925	0	48.7	4	15.1	4	-1E+10	1	-1E+10	1	-1E+10	1	-1E+10	1	-1E+10	1	-1E+10	1
4901784	225	C	09/01/2021	10:43	-136.502	43.106	0	1890.40	0	2.0520	0	38.4190	8	30.721	0	1866.939	0	49.0	4	15.2	4	-1E+10	1	-1E+10	1	-1E+10	1	-1E+10	1	-1E+10	1	-1E+10	1
4901784	225	C	09/01/2021	10:43	-136.502	43.106	0	1895.60	0	2.0490	0	38.4200	8	30.722	0	1872.051	0	49.3	4	15.3	4	-1E+10	1	-1E+10	1	-1E+10	1	-1E+10	1	-1E+10	1	-1E+10	1
4901784	225	C	09/01/2021	10:43	-136.502	43.106	0	1899.90	0	2.0450	0	38.4210	8	30.724	0	1876.279	0	49.5	4	15.4	4	-1E+10	1	-1E+10	1	-1E+10	1	-1E+10	1	-1E+10	1	-1E+10	1
4901784	225	C	09/01/2021	10:43	-136.502	43.106	0	1904.30	0	2.0420	0	38.4210	8	30.724	0	1880.605	0	49.8	4	15.5	4	-1E+10	1	-1E+10	1	-1E+10	1	-1E+10	1	-1E+10	1	-1E+10	1
4901784	225	C	09/01/2021	10:43	-136.502	43.106	0	1909.40	0	2.0370	0	38.4220	8	30.725	0	1885.619	0	50.2	4	15.6	4	-1E+10	1	-1E+10	1	-1E+10	1	-1E+10	1	-1E+10	1	-1E+10	1
4901784	225	C	09/01/2021	10:43	-136.502	43.106	0	1914.60	0	2.0340	0	38.4230	8	30.726	0	1890.731	0	50.5	4	15.7	4	-1E+10	1	-1E+10	1	-1E+10	1	-1E+10	1	-1E+10	1	-1E+10	1
4901784	225	C	09/01/2021	10:43	-136.502	43.106	0	1919.90	0	2.0280	0	38.4240	8	30.728	0	1895.941	0	50.8	4	15.8	4	-1E+10	1	-1E+10	1	-1E+10	1	-1E+10	1	-1E+10	1	-1E+10	1
4901784	225	C	09/01/2021	10:43	-136.502	43.106	0	1925.20	0	2.0220	0	38.4260	8	30.730	0	1901.152	0	51.3	4	15.9	4	-1E+10	1	-1E+10	1	-1E+10	1	-1E+10	1	-1E+10	1	-1E+10	1
4901784	225	C	09/01/2021	10:43	-136.502	43.106	0	1930.40	0	2.0150	0	38.4270	8	30.731	0	1906.263	0	51.5	4	16.0	4	-1E+10	1	-1E+10	1	-1E+10	1	-1E+10	1	-1E+10	1	-1E+10	1
4901784	225	C	09/01/2021	10:43	-136.502	43.106	0	1935.60	0	2.0120	0	38.4280	8	30.732	0	1911.375	0	51.7	4	16.1	4	-1E+10	1	-1E+10	1	-1E+10	1	-1E+10	1	-1E+10	1	-1E+10	1
4901784	225	C	09/01/2021	10:43	-136.502	43.106	0	1940.00	0	2.0100	0	38.4290	8	30.733	0	1915.700	0	51.7	4	16.1	4	-1E+10	1	-1E+10	1	-1E+10	1	-1E+10	1	-1E+10	1	-1E+10	1
4901784	225	C	09/01/2021	10:43	-136.502	43.106	0	1944.40	0	2.0070	0	38.4290	8	30.734	0	1920.025	0	52.0	4	16.1	4	-1E+10	1	-1E+10	1	-1E+10	1	-1E+10	1	-1E+10	1	-1E+10	1
4901784	225	C	09/01/2021	10:43	-136.502	43.106	0	1949.70	0	2.0050	0	38.4300	8	30.735	0	1925.235	0	52.2	4	16.2	4	-1E+10	1	-1E+10	1	-1E+10	1	-1E+10	1	-1E+10	1	-1E+10	1
4901784	225	C	09/01/2021	10:43	-136.502	43.106	0	1955.00	0	2.0020	0	38.4310	8	30.736	0	1930.444	0	52.2	4	16.2	4	-1E+10	1	-1E+10	1	-1E+10	1	-1E+10	1	-1E+10	1	-1E+10	1
4901784	225	C	09/01/2021	10:43	-136.502	43.106	0	1960.40	0	1.9990	0	38.4320	8	30.737	0	1935.752	0	52.3	4	16.2	4	-1E+10	1	-1E+10	1	-1E+10	1	-1E+10	1	-1E+10	1	-1E+10	1
4901784	225	C	09/01/2021	10:43	-136.502	43.106	0	1965.70	0	1.9950	0	38.4330	8	30.738	0	1940.961	0	52.6	4	16.3	4	-1E+10	1	-1E+10	1	-1E+10	1	-1E+10	1	-1E+10	1	-1E+10	1
4901784	225	C	09/01/2021	10:43	-136.502	43.106	0	1970.10	0	1.9930	0	38.4330	8	30.738	0	1945.286	0	52.9	4	16.4	4	-1E+10	1	-1E+10	1	-1E+10	1	-1E+10	1	-1E+10	1	-1E+10	1
4901784	225	C	09/01/2021	10:43	-136.502	43.106	0	1974.60	0	1.9890	0	38.4340	8	30.739	0	1949.709	0	53.2	4	16.5	4	-1E+10	1	-1E+10	1	-1E+10	1	-1E+10	1	-1E+10	1	-1E+10	1
4901784	225	C	09/01/2021	10:43	-136.502	43.106	0	1980.00	0	1.9860	0	38.4340	8	30.740	0	1955.016	0	53.7	4	16.7	4	-1E+10	1	-1E+10	1	-1E+10	1	-1E+10	1	-1E+10	1	-1E+10	1
4901784	225	C	09/01/2021	10:43	-136.502	43.106	0	1985.40	0	1.9790	0	38.4360	8	30.742	0	1960.323	0	54.2	4	16.8	4	-1E+10	1	-1E+10	1	-1E+10	1	-1E+10	1	-1E+10	1	-1E+10	1
4901784	225	C	09/01/2021	10:43	-136.502	43.106	0	1989.90	0	1.9780	0	38.4360	8	30.742	0	1964.745	0	54.3	4	16.9	4	-1E+10	1	-1E+10	1	-1E+10	1	-1E+10	1	-1E+10	1	-1E+10	1
4901784	225	C	09/01/2021	10:43	-136.502	43.106	0	1994.40	0	1.9770	0	38.4370	8	30.743	0	1969.168	0	54.5	4	16.9	4	-1E+10	1	-1E+10	1	-1E+10	1	-1E+10	1	-1E+10	1	-1E+10	1
4901784	225	C	09/01/2021	10:43	-136.502	43.106	0	1999.80	0	1.9750	0	38.4370	8	30.743	0	1974.474	0	54.8	4	17.0	4	-1E+10	1	-1E+10	1	-1E+10	1	-1E+10	1	-1E+10	1	-1E+10	1
4901784	225	C	09/01/2021	10:43	-136.502	43.106	0	2004.60	0	1.9730	0	38.4370	8	30.744	0	1979.191	0	55.0	4	17.1	4	-1E+10	1	-1E+10	1	-1E+10	1	-1E+10	1	-1E+10	1	-1E+10	1
4901784	225	C	09/01/2021	10:43	-136.502	43.106	0	2009.30	0	1.9680	0	38.4380	8	30.745	0	1983.810	0	55.4	4	17.2	4	-1E+10	1	-1E+10	1	-1E+10	1	-1E+10	1	-1E+10	1	-1E+10	1
4901784	225	C	09/01/2021	10:43	-136.502	43.106	0	2014.60	0	1.9620	0	38.4400	8	30.747	0	1989.018	0	55.8	4	17.3	4	-1E+10	1	-1E+10	1	-1E+10	1	-1E+10	1	-1E+10	1	-1E+10	1
4901784	225	C	09/01/2021	10:43	-136.502	43.106	0	2020.30	0	1.9550	0	38.4410	8	30.748	0	1994.619	0	56.3	4	17.5	4	-1E+10	1	-1E+10	1	-1E+10	1	-1E+10	1	-1E+10	1	-1E+10	1
4901784	225	C	09/01/2021	10:43	-136.502	43.106	0																										
4901784	226	C	09/11/2021	10:48	-136.570	43.103	0	2.00	0	19.3720	0	35.9530	8	25.655	0	1.984	0	219.4	4	96.8	4	-1E+10	1	-1E+10	1	-1E+10	1	-1E+10	1	-1E+10	1	-1E+10	1
4901784	226	C	09/11/2021	10:48	-136.570	43.103	0	3.60	0	19.3770	0	35.9540	8	25.655	0	3.571	0	219.4	4	96.8	4	-1E+10	1	-1E+10	1	-1E+10	1	-1E+10	1	-1E+10	1	-1E+10	1
4901784	226	C	09/11/2021	10:48	-136.570	43.103	0	5.20	0	19.3790	0	35.9540	8	25.654	0	5.159	0	219.1	4	96.7	4	-1E+10	1	-1E+10	1	-1E+10	1	-1E+10	1	-1E+10	1	-1E+10	1
4901784	226	C	09/11/2021	10:48	-136.570	43.103	0	6.70	0	19.3790	0	35.9560	8	25.656	0	6.647	0	219.0	4	96.6	4	-1E+10	1	-1E+10	1	-1E+10	1	-1E+10	1	-1E+10	1	-1E+10	1
4901784	226	C	09/11/2021	10:48	-136.570	43.103	0	8.40	0	19.3770	0	35.9570	8	25.657	0	8.333	0	219.0	4	96.6	4	-1E+10	1	-1E+10	1	-1E+10	1	-1E+10	1	-1E+10	1	-1E+10	1
4901784	226	C	09/11/2021	10:48	-136.570	43.103	0	10.20	0	19.3790	0	35.9590	8	25.658	0	10.119	0	219.0	4	96.6	4	-1E+10	1	-1E+10	1	-1E+10	1	-1E+10	1	-1E+10	1	-1E+10	1
4901784	226	C	09/11/2021	10:48	-136.570	43.103	0	12.00	0	19.3840	0	35.9600	8	25.658	0	11.904	0	218.7	4	96.5	4	-1E+10	1	-1E+10	1	-1E+10	1	-1E+10	1	-1E+10	1	-1E+10	1
4901784	226	C	09/11/2021	10:48	-136.570	43.103	0	14.30	0	19.3850	0	35.9610	8	25.658	0	14.186	0	218.6	4	96.5	4	-1E+10	1	-1E+10	1	-1E+10	1	-1E+10	1	-1E+10	1	-1E+10	1
4901784	226	C	09/11/2021	10:48	-136.570	43.103	0	14.90	0	19.3860	0	35.9610	8	25.658	0	14.781	0	218.6	4	96.5	4	-1E+10	1	-1E+10	1	-1E+10	1	-1E+10	1	-1E+10	1	-1E+10	1
4901784	226	C	09/11/2021	10:48	-136.570	43.103	0	16.60	0	19.3870	0	35.9610	8	25.658	0	16.467	0	218.6	4	96.5	4	-1E+10	1	-1E+10	1	-1E+10	1	-1E+10	1	-1E+10	1	-1E+10	1
4901784	226	C	09/11/2021	10:48	-136.570	43.103	0	18.20	0	19.3880	0	35.9610	8	25.658	0	18.055	0	218.6	4	96.5	4	-1E+10	1	-1E+10	1	-1E+10	1	-1E+10	1	-1E+10	1	-1E+10	1
4901784	226	C	09/11/2021	10:48	-136.570	43.103	0	19.80	0	19.3870	0	35.9620	8	25.659	0	19.642	0	218.5	4	96.4	4	-1E+10	1	-1E+10	1	-1E+10	1	-1E+10	1	-1E+10	1	-1E+10	1
4901784	226	C	09/11/2021	10:48	-136.570	43.103	0	21.50	0	19.3880	0	35.9610	8	25.658	0	21.328	0	218.8	4	96.6	4	-1E+10	1	-1E+10	1	-1E+10	1	-1E+10	1	-1E+10	1	-1E+10	1
4901784	226	C	09/11/2021	10:48	-136.570	43.103	0	23.00	0	19.3880	0	35.9590	8	25.656	0	22.816	0	219.0	4	96.6	4	-1E+10	1	-1E+10	1	-1E+10	1	-1E+10	1	-1E+10	1	-1E+10	1
4901784	226	C	09/11/2021	10:48	-136.570	43.103	0	24.90	0	19.3840	0	35.9550	8	25.655	0	24.701	0	219.7	4	97.0	4	-1E+10	1	-1E+10	1	-1E+10	1	-1E+10	1	-1E+10	1	-1E+10	1
4901784	226	C	09/11/2021	10:48	-136.570	43.103	0	26.20	0	19.3820	0	35.9470	8	25.649	0	25.990	0	220.8	4	97.4	4	-1E+10	1	-1E+10	1	-1E+10	1	-1E+10	1	-1E+10	1	-1E+10	1
4901784	226	C	09/11/2021	10:48	-136.570	43.103	0	27.30	0	19.3810	0	35.9340	8	25.639	0	27.081	0	222.5	4	98.1	4	-1E+10	1	-1E+10	1	-1E+10	1	-1E+10	1	-1E+10	1	-1E+10	1
4901784	226	C	09/11/2021	10:48	-136.570	43.103	0	28.30	0	19.3810	0	35.9130	8	25.623	0	28.073	0	224.9	4	99.2	4	-1E+10	1	-1E+10	1	-1E+10	1	-1E+10	1	-1E+10	1	-1E+10	1
4901784	226	C	09/11/2021	10:48	-136.570	43.103	0	29.40	0	19.3620	0	35.8760	8	25.600	0	29.164	0	228.6	4	100.8	4	-1E+10	1	-1E+10	1	-1E+10	1	-1E+10	1	-1E+10	1	-1E+10	1
4901784	226	C	09/11/2021	10:48	-136.570	43.103	0	30.60	0	18.6600	0	35.9350	8	25.825	0	30.355	0	234.4	4	102.1	4	-1E+10	1	-1E+10	1	-1E+10	1	-1E+10	1	-1E+10	1	-1E+10	1
4901784	226	C	09/11/2021	10:48	-136.570	43.103	0	31.90	0	17.8540	0	35.9690	8	26.053	0	31.644	0	241.6	4	103.7	4	-1E+10	1	-1E+10	1	-1E+10	1	-1E+10	1	-1E+10	1	-1E+10	1
4901784	226	C	09/11/2021	10:48	-136.570	43.103	0	33.40	0	17.7070	0	35.9330	8	26.062	0	33.132	0	244.6	4	104.7	4	-1E+10	1	-1E+10	1	-1E+10	1	-1E+10	1	-1E+10	1	-1E+10	1
4901784	226	C	09/11/2021	10:48	-136.570	43.103	0	34.80	0	17.2210	0	35.9440	8	26.188	0	34.521	0	248.3	4	105.3	4	-1E+10	1	-1E+10	1	-1E+10	1	-1E+10	1	-1E+10	1	-1E+10	1
4901784	226	C	09/11/2021	10:48	-136.570	43.103	0	36.30	0	16.3910	0	35.9590	8	26.397	0	36.008	0	253.3	4	105.7	4	-1E+10	1	-1E+10	1	-1E+10	1	-1E+10	1	-1E+10	1	-1E+10	1
4901784	226	C	09/11/2021	10:48	-136.570	43.103	0	37.80	0	15.7810	0	36.0050	8	26.574	0	37.496	0	256.5	4	105.8	4	-1E+10	1	-1E+10	1	-1E+10	1	-1E+10	1	-1E+10	1	-1E+10	1
4901784	226	C	09/11/2021	10:48	-136.570	43.103	0	39.50	0	15.1760	0	36.0110	8	26.715	0	39.182	0	259.1	4	105.6	4	-1E+10	1	-1E+10	1	-1E+10	1	-1E+10	1	-1E+10	1	-1E+10	1
4901784	226	C	09/11/2021	10:48	-136.570	43.103	0	41.40	0	15.0270	0	35.9730	8	26.719	0	41.067	0	260.7	4	106.0	4	-1E+10	1	-1E+10	1	-1E+10	1	-1E+10	1	-1E+10	1	-1E+10	1
4901784	226	C	09/11/2021	10:48	-136.570	43.103	0	41.80	0	14.9850	0	35.9750	8	26.730	0	41.464	0	260.4	4	105.8	4	-1E+10	1	-1E+10	1	-1E+10	1	-1E+10	1	-1E+10	1	-1E+10	1
4901784	226	C	09/11/2021	10:48	-136.570	43.103	0	43.20	0	14.8420	0	35.9950	8	26.777	0	42.852	0	259.8	4	105.2	4	-1E+10	1	-1E+10	1	-1E+10	1	-1E+10	1	-1E+10	1	-1E+10	1
4901784	226	C	09/11/2021	10:48	-136.570	43.103	0	44.60	0	14.5660	0	36.0880	8	26.909	0	44.241	0	259.7	4	104.7	4	-1E+10	1	-1E+10	1	-1E+10	1	-1E+10	1	-1E+10	1	-1E+10	1
4901784	226	C	09/11/2021	10:48	-136.570	43.103	0	46.10	0	14.3990	0	36.1030	8	26.957	0	45.729	0	261.2	4	104.9	4	-1E+10	1	-1E+10	1	-1E+10	1	-1E+10	1	-1E+10	1	-1E+10	1
4901784	226	C	09/11/2021	10:48	-136.570	43.103	0	47.60	0	14.1050	0	36.1000	8	27.017	0	47.216	0	262.4	4	104.9	4	-1E+10	1	-1E+10	1	-1E+10	1	-1E+10	1	-1E+10	1	-1E+10	1
4901784	226	C	09/11/2021	10:48	-136.570	43.103	0	49.20	0	14.0340	0	36.0960	8	27.030	0	48.803	0	262.3	4	104.7	4	-1E+10	1	-1E+10	1	-1E+10	1	-1E+10	1	-1E+10	1	-1E+10	1
4901784	226	C	09/11/2021	10:48	-136.570	43.103	0	50.70	0	13.9130	0	36.1090	8	27.065	0	50.291	0	261.7	4	104.1	4	-1E+10	1	-1E+10	1	-1E+10	1	-1E+10	1	-1E+10	1	-1E+10	1
4901784	226	C	09/11/2021	10:48	-136.570	43.103	0	52.30	0	13.6430	0	36.1450	8	27.150	0	51.878	0	262.0	4	103.7	4	-1E+10	1	-1E+10	1	-1E+10	1	-1E+10	1	-1E+10	1	-1E+10	1
4901784	226	C	09/11/2021	10:48	-136.570	43.103	0	54.00	0	13.2800	0	36.1450	8	27.225	0	53.564	0	263.4	4	103.5	4	-1E+10	1	-1E+10	1	-1E+10	1	-1E+10	1	-1E+10	1	-1E+10	1
4901784	226	C	09/11/2021	10:48	-136.570	43.103	0	55.70	0	13.1560	0	36.1350	8	27.243	0	55.250	0	262.9	4	103.1	4	-1E+10	1	-1E+10	1	-1E+10	1	-1E+10	1	-1E+10	1	-1E+10	1
4901784	226	C	09/11/2021	10:48	-136.570	43.103	0	57.20	0	13.0700	0	36.1180	8	27.248	0	56.738	0	262.6	4	102.8	4	-1E+10	1	-1E+10	1	-1E+10	1	-1E+10	1	-1E+10	1	-1E+10	1
4901784	226	C	09/11/2021	10:48	-136.570	43.103	0	58.80	0	12.8110	0	36.1320	8	27.311	0	58.325	0	261.7	4	101.9	4	-1E+10	1	-1E+10	1	-1E+10	1	-1E+10	1	-1E+10	1	-1E+10	1
4901784	226	C	09/11/2021	10:48	-136.570	43.103	0	60.40	0	12.5000	0	36.1030	8	27.350	0	59.911	0	261.6	4	101.2	4	-1E+10	1	-1E+10	1	-1E+10	1	-1E+10	1	-1E+10	1	-1E+10	1
4901784	226	C	09/11/2021	10:48	-136.570	43.103	0	61.90	0	12.3260	0	36.0920	8	27.376	0	61.399	0	260.1	4	100.2	4	-1E+10	1	-1E+10	1	-1E+10	1	-1E+10	1	-1E+10	1	-1E+10	1
4901784	226	C	09/11/2021	10:48	-136.570	43.103	0	63.50	0	12.0520	0	36.1020	8	27.438	0	62.986	0	258.3	4	99.0	4	-1E+10	1	-1E+10	1	-1E+10	1	-1E+10	1	-1E+10	1	-1E+10	1
4901784	226	C	09/11/2021	10:48	-136.570	43.103	0	65.20	0	11.7420	0	36.0830	8	27.482	0	64.672	0	257.3	4	97.9	4	-1E+10	1	-1E+10	1	-1E+10	1	-1E+10	1	-1E+10	1	-1E+10	1
4901784	226	C	09/11/2021	10:48	-136.570	43.103	0	66.80	0	11.4330	0	36.0810	8	27.539	0	66.259	0	255.4	4	96.6	4	-1E+10	1	-1E+10	1	-1E+10	1	-1E+10	1	-1E+10	1	-1E+10	1
4901784	226	C	09/11/2021	10:48	-136.570	43.103	0	68.40	0	11.3290	0	36.0660	8	27.547	0	67.845	0	253.8	4	95.8	4	-1E+10	1	-1E+10	1	-1E+10	1	-1E+10	1	-1E+10	1	-1E+10	1
4901784	226	C	09/11/2021	10:48	-136.570	43.103	0	70.10	0	11.2190	0	36.0590	8	27.562	0	69.531	0	251.6	4	94.7	4	-1E+10	1	-1E+10	1	-1E+10	1	-1E+10	1	-1E+10	1	-1E+10	1
4901784	226	C	09/11/2021	10:48	-136.570	43.103	0	71.80	0	11.0360	0	36.0600	8	27.597	0	71.217	0	249.9	4	93.7	4	-1E+10	1	-1E+10	1	-1E+10	1	-1E+10	1	-1E+10	1	-1E+10	1
4901784	226	C	09/11/2021	10:48	-136.570	43.103	0	73.40	0	11.0280	0	36.0710	8	27.607	0	72.804	0	248.3	4	93.1	4	-1E+10	1	-1E+10	1	-1E+10	1	-1E+10	1	-1E+10	1	-1E+10	1
4901784	226	C	09/11/2021	10:48	-136.570	43.103	0	75.10	0	10.8550	0	36.0710	8	27.639	0	74.490	0	247.2	4	92.4	4	-1E+10	1	-1E+10	1	-1E+10	1	-1E+10	1	-1E+10	1	-1E+10	1
4901784	226	C	09/11/2021	10:48	-136.570	43.103	0	76.70	0	10.7980	0	36.0710	8	27.649	0	76.077	0	246.9	4	92.2	4	-1E+10	1	-1E+10	1	-1E+10	1	-1E+10	1	-1E+10	1	-1E+10	1
4901784	226	C	09/11/2021	10:48	-136.570	43.103	0	78.20	0	10.7990	0	36.0740	8	27.651	0	77.564	0	246.0	4	91.8	4	-1E+10	1	-1E+10	1	-1E+10	1	-1E+10	1	-1E+10	1	-1E+10	1
4901784	226	C	09/11/2021	10:48	-136.570	43.103	0	80.00	0	10.7860	0	36.0810	8	27.659	0	79.349	0	245.1	4	91.5	4	-1E+10	1	-1E+10	1	-1E+10	1	-1E+10	1	-1E+10	1	-1E+10	1
4901784	226	C	09/11/2021	10:48	-136.570	43.103	0	81.70	0	10.6850	0	36.0890	8	27.684	0	81.035	0	244.7	4	91.1	4	-1E+10	1	-1E+10	1	-1E+10	1	-1E+10	1	-1E+10	1	-1E+10	1
4901784	226	C	09/11/2021	10:48	-136.570	43.103	0	83.40	0	10.4790	0	36.0570	8	27.696	0	82.721	0	245.9	4	91.2	4	-1E+10	1	-1E+10	1	-1E+10	1	-1E+10	1	-1E+10	1	-1E+10	1
4901784	226	C	09/11/2021	10:48	-136.570	43.103	0	85.10	0	10.4430	0	36.0640	8	27.708	0	84.407	0	245.7	4	91.0	4	-1E+10	1	-1E+10	1	-1E+10	1	-1E+10	1	-1E+10	1	-1E+10	1
4901784	226	C	09/11/2021	10:48	-136.570	43.103	0	86.80	0	10.3940	0	36.0660	8	27.718	0	86.092	0	245.9	4	91.0	4	-1E+10	1	-1E+10	1	-1E+10	1	-1E+10	1	-1E+10	1	-1E+10	1
4901784	226	C	09/11/2021	10:48	-136.570	43.103	0	88.60	0	10.3790	0	36.0640	8	27.719	0	87.877	0	245.9	4	91.0	4	-1E+10	1	-1E+10	1	-1E+10	1	-1E+10	1	-1E+10	1	-1E+10	1
4901784	226	C	09/11/2021	10:48	-136.570	43.103	0	90.30	0	10.3380	0	36.0930	8	27.749	0	89.563	0	245.6	4	90.8	4	-1E+10	1	-1E+10	1	-1E+10	1	-1E+10	1	-1E+10	1	-1E+10	1
4901784	226	C	09/11/2021	10:48	-136.570	43.103	0	92.10	0	10.2530	0	36.0930	8	27.764	0	91.348	0	245.9	4	90.7	4	-1E+10	1	-1E+10	1	-1E+10	1	-1E+10	1	-1E+10	1	-1E+10	1
4901784	226	C	09/11/2021	10:48	-136.570	43.103	0	93.80	0	10.1040	0	36.0860	8	27.785	0	93.034	0	246.8	4	90.8	4	-1E+10	1	-1E+10	1	-1E+10	1	-1E+10	1	-1E+10	1	-1E+10	1
4901784	226	C	09/11/2021	10:48	-136.570	43.103	0	95.60	0	10.0050	0	36.0790	8	27.796	0	94.819	0	247.3	4	90.8	4	-1E+10	1	-1E+10	1	-1E+10	1	-1E+10	1	-1E+10	1	-1E+10	1
4901784	226	C	09/11/2021	10:48	-136.570	43.103	0	97.40	0	9.9190	0	36.0800	8	27.812	0	96.603	0	247.8	4	90.8	4	-1E+10	1	-1E+10	1	-1E+10	1	-1E+10	1	-1E+10	1	-1E+10	1
4901784	226	C	09/11/2021	10:48	-136.570	43.103	0	99.20	0	9.8560	0	36.0820	8	27.825	0	98.388	0	248.1	4	90.8	4	-1E+10	1	-1E+10	1	-1E+10	1	-1E+10	1	-1E+10	1	-1E+10	1
4901784	226	C	09/11/2021	10:48	-136.570	43.103	0	102.50	0	9.6910	0	36.0840	8	27.854	0	101.661	0	249.2	4	90.9	4	-1E+10	1	-1E+10	1	-1E+10	1	-1E+10	1	-1E+10	1	-1E+10	1
4901784	226	C	09/11/2021	10:48	-136.570	43.103	0	105.50	0	9.6290	0	36.0820	8	27.864	0	104.635	0	249.6	4	90.9	4	-1E+10	1	-1E+10	1	-1E+10	1	-1E+10	1	-1E+10	1	-1E+10	1
4901784	226	C	09/11/2021	10:48	-136.570	43.103	0	107.80	0	9.5650	0	36.0820	8	27.874	0	106.916	0	249.7	4	90.8	4	-1E+10	1	-1E+10	1	-1E+10	1	-1E+10	1	-1E+10	1	-1E+10	1
4901784	226	C	09/11/2021	10:48	-136.570	43.103	0	110.10	0	9.3410	0	36.0940	8	27.921	0	109.196	0	250.5	4	90.7	4	-1E+10	1	-1E+10	1	-1E+10	1	-1E+10	1	-1E+10	1	-1E+10	1
4901784	226	C	09/11/2021	10:48	-136.570	43.103	0	112.40	0	9.2930	0	36.1120	8	27.944	0	111.477	0	250.0	4	90.4	4	-1E+10	1	-1E+10	1	-1E+10	1	-1E+10	1	-1E+10	1	-1E+10	1
4901784	226	C	09/11/2021	10:48	-136.570	43.103	0	114.80	0	9.2110	0	36.1140	8	27.959	0	113.856	0	249.0	4	89.9	4	-1E+10	1	-1E+10	1	-1E+10	1	-1E+10	1	-1E+10	1	-1E+10	1
4901784	226	C	09/11/2021	10:48	-136.570	43.103	0	117.30	0	9.0860	0	36.1260	8	27.989	0	116.335	0	247.9	4	89.2	4	-1E+10	1	-1E+10	1	-1E+10	1	-1E+10	1	-1E+10	1	-1E+10	1
4901784	226	C	09/11/2021	10:48	-136.570	43.103	0	119.70	0	9.0290	0	36.1310	8	28.002	0	118.715	0	246.3	4	88.5	4	-1E+10	1	-1E+10	1	-1E+10	1	-1E+10	1	-1E+10	1	-1E+10	1
4901784	226	C	09/11/2021	10:48	-136.570	43.103	0	122.20	0	8.9780	0	36.1360	8	28.014	0	121.193	0	244.0	4	87.6	4	-1E+10	1	-1E+10	1	-1E+10	1	-1E+10	1	-1E+10	1	-1E+10	1
4901784	226	C	09/11/2021	10:48	-136.570	43.103	0	124.80	0	8.7510	0	36.1630	8	28.072	0	123.771	0	241.6	4	86.4	4	-1E+10	1	-1E+10	1	-1E+10	1	-1E+10	1	-1E+10	1	-1E+10	1
4901784	226	C	09/11/2021	10:48	-136.570	43.103	0	127.30	0	8.5790	0	36.1860	8	28.118	0	126.250	0	238.0	4	84.8	4	-1E+10	1	-1E+10	1	-1E+10	1	-1E+10	1	-1E+10	1	-1E+10	1
4901784	226	C	09/11/2021	10:48	-136.570	43.103	0	129.90	0	8.6890	0	36.2580	8	28.157	0	128.828	0	230.7	4	82.4	4	-1E+10	1	-1E+10	1	-1E+10	1	-1E+10	1	-1E+10	1	-1E+10	1
4901784	226	C	09/11/2021	10:48	-136.570	43.103	0	132.20	0	8.7870	0	36.3460	8	28.210	0	131.108	0	224.1	4	80.3	4	-1E+10	1	-1E+10	1	-1E+10	1	-1E+10	1	-1E+10	1	-1E+10	1
4901784	226	C	09/11/2021	10:48	-136.570	43.103	0	135.30	0	8.8550	0	36.4590	8	28.288	0	134.181	0	218.6	4	78.5	4	-1E+10	1	-1E+10	1	-1E+10	1	-1E+10	1	-1E+10	1	-1E+10	1
4901784	226	C	09/11/2021	10:48	-136.570	43.103	0	137.60	0	9.0860	0	36.5350	8	28.310	0	136.461	0	214.4	4	77.4	4	-1E+10	1	-1E+10	1	-1E+10	1	-1E+10	1	-1E+10	1	-1E+10	1
4901784	226	C	09/11/2021	10:48	-136.570	43.103	0	139.80	0	9.1400	0	36.6420	8	28.385	0	138.642	0	210.6	4	76.2	4	-1E+10	1	-1E+10	1	-1E+10	1	-1E+10	1	-1E+10	1	-1E+10	1
4901784	226	C	09/11/2021	10:48	-136.570	43.103	0	142.20	0	9.0730	0	36.7090	8	28.448	0	141.022	0	208.0	4	75.2	4	-1E+10	1	-1E+10	1	-1E+10	1	-1E+10	1	-1E+10	1	-1E+10	1
4901784	226	C	09/11/2021	10:48	-136.570	43.103	0	144.70	0	9.0600	0	36.7450	8	28.479	0	143.500	0	205.7	4	74.3	4	-1E+10	1	-1E+10	1	-1E+10	1	-1E+10	1	-1E+10	1	-1E+10	1
4901784	226	C	09/11/2021	10:48	-136.570	43.103	0	147.20	0	9.0000	0	36.8230	8	28.550	0	145.979	0	203.3	4	73.4	4	-1E+10	1	-1E+10	1	-1E+10	1	-1E+10	1	-1E+10	1	-1E+10	1
4901784	226	C	09/11/2021	10:48	-136.570	43.103	0	149.70	0	9.0180	0	36.9170	8	28.621	0	148.457	0	200.4	4	72.5	4	-1E+10	1	-1E+10	1	-1E+10	1	-1E+10	1	-1E+10	1	-1E+10	1
4901784	226	C	09/11/2021	10:48	-136.570	43.103	0	152.30	0	9.0380	0	36.9700	8	28.659	0	151.034	0	199.2	4	72.1	4	-1E+10	1	-1E+10	1	-1E+10	1	-1E+10	1	-1E+10	1	-1E+10	1
4901784	226	C	09/11/2021	10:48	-136.570	43.103	0	154.90	0	9.0100	0	36.9880	8	28.678	0	153.612	0	198.5	4	71.8	4	-1E+10	1	-1E+10	1	-1E+10	1	-1E+10	1	-1E+10	1	-1E+10	1
4901784	226	C	09/11/2021	10:48	-136.570	43.103	0	157.50	0	8.9650	0	37.0100	8	28.702	0	156.189	0	198.0	4	71.5	4	-1E+10	1	-1E+10	1	-1E+10	1	-1E+10	1	-1E+10	1	-1E+10	1
4901784	226	C	09/11/2021	10:48	-136.570	43.103	0	160.10	0	8.8960	0	37.0840	8	28.772	0	158.767	0	197.4	4	71.2	4	-1E+10	1	-1E+10	1	-1E+10	1	-1E+10	1	-1E+10	1	-1E+10	1
4901784	226	C	09/11/2021	10:48	-136.570	43.103	0	162.80	0	8.8790	0	37.1350	8	28.815	0	161.443	0	196.5	4	70.9	4	-1E+10	1	-1E+10	1	-1E+10	1	-1E+10	1	-1E+10	1	-1E+10	1
4901784	226	C	09/11/2021	10:48	-136.570	43.103	0	164.60	0	8.8850	0	37.1580	8	28.832	0	163.227	0	196.3	4	70.9	4	-1E+10	1	-1E+10	1	-1E+10	1	-1E+10	1	-1E+10	1	-1E+10	1
4901784	226	C	09/11/2021	10:48	-136.570	43.103	0	167.30	0	8.8720	0	37.1910	8	28.860	0	165.904	0	195.7	4	70.6	4	-1E+10	1	-1E+10	1	-1E+10	1	-1E+10	1	-1E+10	1	-1E+10	1
4901784	226	C	09/11/2021	10:48	-136.570	43.103	0	169.90	0	8.8770	0	37.2220	8	28.883	0	168.481	0	195.1	4	70.5	4	-1E+10	1	-1E+10	1	-1E+10	1	-1E+10	1	-1E+10	1	-1E+10	1
4901784	226	C	09/11/2021	10:48	-136.570	43.103	0	172.50	0	8.8730	0	37.2460	8	28.903	0	171.058	0	194.4	4	70.2	4	-1E+10	1	-1E+10	1	-1E+10	1	-1E+10	1	-1E+10	1	-1E+10	1
4901784	226	C	09/11/2021	10:48	-136.570	43.103	0	175.10	0	8.8680	0	37.2560	8	28.912	0	173.635	0	193.7	4	69.9	4	-1E+10	1	-1E+10	1	-1E+10	1	-1E+10	1	-1E+10	1	-1E+10	1
4901784	226	C	09/11/2021	10:48	-136.570	43.103	0	177.00	0	8.8550	0	37.2920	8	28.942	0	175.519	0	193.2	4	69.8	4	-1E+10	1	-1E+10	1	-1E+10	1	-1E+10	1	-1E+10	1	-1E+10	1
4901784	226	C	09/11/2021	10:48	-136.570	43.103	0	179.60	0	8.8520	0	37.3080	8	28.955	0	178.096	0	192.6	4	69.6	4	-1E+10	1	-1E+10	1	-1E+10	1	-1E+10	1	-1E+10	1	-1E+10	1
4901784	226	C	09/11/2021	10:48	-136.570	43.103	0	182.30	0	8.8310	0	37.3330	8	28.978	0	180.772	0	191.9	4	69.3	4	-1E+10	1	-1E+10	1	-1E+10	1	-1E+10	1	-1E+10	1	-1E+10	1
4901784	226	C	09/11/2021	10:48	-136.570	43.103	0	185.10	0	8.7900	0	37.3660	8	29.011	0	183.547	0	191.5	4	69.1	4	-1E+10	1	-1E+10	1	-1E+10	1	-1E+10	1	-1E+10	1	-1E+10	1
4901784	226	C	09/11/2021	10:48	-136.570	43.103	0	187.80	0	8.7650	0	37.3790	8	29.025	0	186.223	0	191.1	4	68.9	4	-1E+10	1	-1E+10	1	-1E+10	1	-1E+10	1	-1E+10	1	-1E+10	1
4901784	226	C	09/11/2021	10:48	-136.570	43.103	0	189.60	0	8.7600	0	37.3880	8	29.033	0	188.008	0	190.7	4	68.8	4	-1E+10	1	-1E+10	1	-1E+10	1	-1E+10	1	-1E+10	1	-1E+10	1
4901784	226	C	09/11/2021	10:48	-136.570	43.103	0	192.30	0	8.7530	0	37.3970	8	29.041	0	190.684	0	190.1	4	68.5	4	-1E+10	1	-1E+10	1	-1E+10	1	-1E+10	1	-1E+10	1	-1E+10	1
4901784	226	C	09/11/2021	10:48	-136.570	43.103	0	194.90	0	8.7460	0	37.3990	8	29.044	0	193.261	0	189.5	4	68.3	4	-1E+10	1	-1E+10	1	-1E+10	1	-1E+10	1	-1E+10	1	-1E+10	1
4901784	226	C	09/11/2021	10:48	-136.570	43.103	0	197.50	0	8.7240	0	37.4070	8	29.054	0	195.837	0	188.7	4	68.0	4	-1E+10	1	-1E+10	1	-1E+10	1	-1E+10	1	-1E+10	1	-1E+10	1
4901784	226	C	09/11/2021	10:48	-136.570	43.103	0	200.10	0	8.6880	0	37.4190	8	29.069	0	198.414	0	187.8	4	67.7	4	-1E+10	1	-1E+10	1	-1E+10	1	-1E+10	1	-1E+10	1	-1E+10	1
4901784	226	C	09/11/2021	10:48	-136.570	43.103	0	202.70	0	8.6500	0	37.4260	8	29.081	0	200.991	0	186.8	4	67.2	4	-1E+10	1	-1E+10	1	-1E+10	1	-1E+10	1	-1E+10	1	-1E+10	1
4901784	226	C	09/11/2021	10:48	-136.570	43.103	0	205.40	0	8.6000	0	37.4320	8	29.094	0	203.667	0	186.1	4	66.9	4	-1E+10	1	-1E+10	1	-1E+10	1	-1E+10	1	-1E+10	1	-1E+10	1
4901784	226	C	09/11/2021	10:48	-136.570	43.103	0	207.20	0	8.5590	0	37.4340	8	29.102	0	205.451	0	185.7	4	66.7	4	-1E+10	1	-1E+10	1	-1E+10	1	-1E+10	1	-1E+10	1	-1E+10	1
4901784	226	C	09/11/2021	10:48	-136.570	43.103	0	209.90	0	8.5270	0	37.4360	8	29.109	0	208.127	0	185.2	4	66.5	4	-1E+10	1	-1E+10	1	-1E+10	1	-1E+10	1	-1E+10	1	-1E+10	1
4901784	226	C	09/11/2021	10:48	-136.570	43.103	0	212.60	0	8.4630	0	37.4380	8	29.121	0	210.803	0	184.5	4	66.1	4	-1E+10	1	-1E+10	1	-1E+10	1	-1E+10	1	-1E+10	1	-1E+10	1
4901784	226	C	09/11/2021	10:48	-136.570	43.103	0	215.00	0	8.3920	0	37.4380	8	29.132	0	213.181	0	184.2	4	65.9	4	-1E+10	1	-1E+10	1	-1E+10	1	-1E+10	1	-1E+10	1	-1E+10	1
4901784	226	C	09/11/2021	10:48	-136.570	43.103	0	217.60	0	8.3230	0	37.4400	8	29.145	0	215.758	0	183.6	4	65.6	4	-1E+10	1	-1E+10	1	-1E+10	1	-1E+10	1	-1E+10	1	-1E+10	1
4901784	226	C	09/11/2021	10:48	-136.570	43.103	0	219.80	0	8.2420	0	37.4430	8	29.160	0	217.938	0	183.2	4	65.3	4	-1E+10	1	-1E+10	1	-1E+10	1	-1E+10	1	-1E+10	1	-1E+10	1
4901784	226	C	09/11/2021	10:48	-136.570	43.103	0	222.20	0	8.1880	0	37.4460	8	29.171	0	220.316	0	182.8	4	65.1	4	-1E+10	1	-1E+10	1	-1E+10	1	-1E+10	1	-1E+10	1	-1E+10	1
4901784	226	C	09/11/2021	10:48	-136.570	43.103	0	225.40	0	8.1450	0	37.4450	8	29.177	0	223.487	0	181.9	4	64.7	4	-1E+10	1	-1E+10	1	-1E+10	1	-1E+10	1	-1E+10	1	-1E+10	1
4901784	226	C	09/11/2021	10:48	-136.570	43.103	0	227.70	0	8.0920	0	37.4470	8	29.187	0	225.767	0	181.2	4	64.4	4	-1E+10	1	-1E+10	1	-1E+10	1	-1E+10	1	-1E+10	1	-1E+10	1
4901784	226	C	09/11/2021	10:48	-136.570	43.103	0	230.10	0	8.0260	0	37.4490	8	29.199	0	228.145	0	180.5	4	64.1	4	-1E+10	1	-1E+10	1	-1E+10	1	-1E+10	1	-1E+10	1	-1E+10	1
4901784	226	C	09/11/2021	10:48	-136.570	43.103	0	232.60	0	7.9800	0	37.4490	8	29.206	0	230.622	0	179.7	4	63.7	4	-1E+10	1	-1E+10	1	-1E+10	1	-1E+10	1	-1E+10	1	-1E+10	1
4901784	226	C	09/11/2021	10:48	-136.570	43.103	0	235.00	0	7.9280	0	37.4510	8	29.216	0	233.001	0	178.9	4	63.4	4	-1E+10	1	-1E+10	1	-1E+10	1	-1E+10	1	-1E+10	1	-1E+10	1
4901784	226	C	09/11/2021	10:48	-136.570	43.103	0	237.50	0	7.9090	0	37.4480	8	29.216	0	235.478	0	178.1	4	63.1	4	-1E+10	1	-1E+10	1	-1E+10	1	-1E+10	1	-1E+10	1	-1E+10	1
4901784	226	C	09/11/2021	10:48	-136.570	43.103	0	240.00	0	7.8480	0	37.4480	8	29.226	0	237.955	0	177.0	4	62.6	4	-1E+10	1	-1E+10	1	-1E+10	1	-1E+10	1	-1E+10	1	-1E+10	1
4901784	226	C	09/11/2021	10:48	-136.570	43.103	0	242.50	0	7.7800	0	37.4480	8	29.236	0	240.432	0	176.1	4	62.2	4	-1E+10	1	-1E+10	1	-1E+10	1	-1E+10	1	-1E+10	1	-1E+10	1
4901784	226	C	09/11/2021	10:48	-136.570	43.103	0	245.10	0	7.7080	0	37.4500	8	29.249	0	243.009	0	175.2	4	61.8	4	-1E+10	1	-1E+10	1	-1E+10	1	-1E+10	1	-1E+10	1	-1E+10	1
4901784	226	C	09/11/2021	10:48	-136.570	43.103	0	247.60	0	7.6160	0	37.4550	8	29.267	0	245.486	0	174.4	4	61.4	4	-1E+10	1	-1E+10	1	-1E+10	1	-1E+10	1	-1E+10	1	-1E+10	1
4901784	226	C	09/11/2021	10:48	-136.570	43.103	0	250.30	0	7.5980	0	37.4550	8	29.270	0	248.161	0	174.0	4	61.2	4	-1E+10	1	-1E+10	1	-1E+10	1	-1E+10	1	-1E+10	1	-1E+10	1
4901784	226	C	09/11/2021	10:48	-136.570	43.103	0	252.80	0	7.5720	0	37.4550	8	29.274	0	250.638	0	173.3	4	60.9	4	-1E+10	1	-1E+10	1	-1E+10	1	-1E+10	1	-1E+10	1	-1E+10	1
4901784	226	C	09/11/2021	10:48	-136.570	43.103	0	254.60	0	7.5540	0	37.4550	8	29.276	0	252.422	0	172.7	4	60.7	4	-1E+10	1	-1E+10	1	-1E+10	1	-1E+10	1	-1E+10	1	-1E+10	1
4901784	226	C	09/11/2021	10:48	-136.570	43.103	0	257.20	0	7.5290	0	37.4550	8	29.280	0	254.998	0	171.7	4	60.3	4	-1E+10	1	-1E+10	1	-1E+10	1	-1E+10	1	-1E+10	1	-1E+10	1
4901784	226	C	09/11/2021	10:48	-136.570	43.103	0	259.80	0	7.5070	0	37.4570	8	29.285	0	257.574	0	170.5	4	59.8	4	-1E+10	1	-1E+10	1	-1E+10	1	-1E+10	1	-1E+10	1	-1E+10	1
4901784	226	C	09/11/2021	10:48	-136.570	43.103	0	262.50	0	7.4860	0	37.4570	8	29.288	0	260.249	0	169.2	4	59.4	4	-1E+10	1	-1E+10	1	-1E+10	1	-1E+10	1	-1E+10	1	-1E+10	1
4901784	226	C	09/11/2021	10:48	-136.570	43.103	0	265.00	0	7.4460	0	37.4560	8	29.294	0	262.726	0	167.6	4	58.7	4	-1E+10	1	-1E+10	1	-1E+10	1	-1E+10	1	-1E+10	1	-1E+10	1
4901784	226	C	09/11/2021	10:48	-136.570	43.103	0	267.70	0	7.3850	0	37.4640	8	29.309	0	265.401	0	166.4	4	58.3	4	-1E+10	1	-1E+10	1	-1E+10	1	-1E+10	1	-1E+10	1	-1E+10	1
4901784	226	C	09/11/2021	10:48	-136.570	43.103	0	270.40	0	7.3580	0	37.4630	8	29.312	0	268.077	0	165.3	4	57.8	4	-1E+10	1	-1E+10	1	-1E+10	1	-1E+10	1	-1E+10	1	-1E+10	1
4901784	226	C	09/11/2021	10:48	-136.570	43.103	0	272.10	0	7.3380	0	37.4640	8	29.316	0	269.761	0	164.4	4	57.5	4	-1E+10	1	-1E+10	1	-1E+10	1	-1E+10	1	-1E+10	1	-1E+10	1
4901784	226	C	09/11/2021	10:48	-136.570	43.103	0	274.80	0	7.3060	0	37.4640	8	29.321	0	272.436	0	163.1	4	57.0	4	-1E+10	1	-1E+10	1	-1E+10	1	-1E+10	1	-1E+10	1	-1E+10	1
4901784	226	C	09/11/2021	10:48	-136.570	43.103	0	277.40	0	7.2610	0	37.4640	8	29.327	0	275.012	0	161.6	4	56.4	4	-1E+10	1	-1E+10	1	-1E+10	1	-1E+10	1	-1E+10	1	-1E+10	1
4901784	226	C	09/11/2021	10:48	-136.570	43.103	0	280.10	0	7.2150	0	37.4650	8	29.335	0	277.687	0	159.7	4	55.7	4	-1E+10	1	-1E+10	1	-1E+10	1	-1E+10	1	-1E+10	1	-1E+10	1
4901784	226	C	09/11/2021	10:48	-136.570	43.103	0	282.70	0	7.1700	0	37.4690	8	29.345	0	280.263	0	157.9	4	55.0	4	-1E+10	1	-1E+10	1	-1E+10	1	-1E+10	1	-1E+10	1	-1E+10	1
4901784	226	C	09/11/2021	10:48	-136.570	43.103	0	284.50	0	7.1400	0	37.4710	8	29.351	0	282.046	0	157.0	4	54.7	4	-1E+10	1	-1E+10	1	-1E+10	1	-1E+10	1	-1E+10	1	-1E+10	1
4901784	226	C	09/11/2021	10:48	-136.570	43.103	0	287.20	0	7.0800	0	37.4750	8	29.363	0	284.721	0	155.8	4	54.2	4	-1E+10	1	-1E+10	1	-1E+10	1	-1E+10	1	-1E+10	1	-1E+10	1
4901784	226	C	09/11/2021	10:48	-136.570	43.103	0	289.80	0	7.0600	0	37.4750	8	29.366	0	287.296	0	154.7	4	53.7	4	-1E+10	1	-1E+10	1	-1E+10	1	-1E+10	1	-1E+10	1	-1E+10	1
4901784	226	C	09/11/2021	10:48	-136.570	43.103	0	292.50	0	7.0210	0	37.4760	8	29.372	0	289.971	0	153.1	4	53.1	4	-1E+10	1	-1E+10	1	-1E+10	1	-1E+10	1	-1E+10	1	-1E+10	1
4901784	226	C	09/11/2021	10:48	-136.570	43.103	0	295.30	0	6.9840	0	37.4790	8	29.380	0	292.745	0	151.6	4	52.6	4	-1E+10	1	-1E+10	1	-1E+10	1	-1E+10	1	-1E+10	1	-1E+10	1
4901784	226	C	09/11/2021	10:48	-136.570	43.103	0	297.10	0	6.9600	0	37.4800	8	29.384	0	294.528	0	150.6	4	52.2	4	-1E+10	1	-1E+10	1	-1E+10	1	-1E+10	1	-1E+10	1	-1E+10	1
4901784	226	C	09/11/2021	10:48	-136.570	43.103	0	299.90	0	6.9130	0	37.4850	8	29.395	0	297.302	0	148.9	4	51.6	4	-1E+10	1	-1E+10	1	-1E+10	1	-1E+10	1	-1E+10	1	-1E+10	1
4901784	226	C	09/11/2021	10:48	-136.570	43.103	0	302.70	0	6.8700	0	37.4860	8	29.402	0	300.076	0	147.3	4	51.0	4	-1E+10	1	-1E+10	1	-1E+10	1	-1E+10	1	-1E+10	1	-1E+10	1
4901784	226	C	09/11/2021	10:48	-136.570	43.103	0	304.60	0	6.8460	0	37.4870	8	29.406	0	301.958	0	146.2	4	50.6	4	-1E+10	1	-1E+10	1	-1E+10	1	-1E+10	1	-1E+10	1	-1E+10	1
4901784	226	C	09/11/2021	10:48	-136.570	43.103	0	307.30	0	6.7900	0	37.4900	8	29.417	0	304.632	0	144.6	4	49.9	4	-1E+10	1	-1E+10	1	-1E+10	1	-1E+10	1	-1E+10	1	-1E+10	1
4901784	226	C	09/11/2021	10:48	-136.570	43.103	0	310.10	0	6.7370	0	37.4940	8	29.427	0	307.406	0	143.2	4	49.4	4	-1E+10	1	-1E+10	1	-1E+10	1	-1E+10	1	-1E+10	1	-1E+10	1
4901784	226	C	09/11/2021	10:48	-136.570	43.103	0	311.90	0	6.7060	0	37.4960	8	29.433	0	309.189	0	142.1	4	49.0	4	-1E+10	1	-1E+10	1	-1E+10	1	-1E+10	1	-1E+10	1	-1E+10	1
4901784	226	C	09/11/2021	10:48	-136.570	43.103	0	314.70	0	6.6780	0	37.4990	8	29.440	0	311.963	0	140.3	4	48.4	4	-1E+10	1	-1E+10	1	-1E+10	1	-1E+10	1	-1E+10	1	-1E+10	1
4901784	226	C	09/11/2021	10:48	-136.570	43.103	0	317.60	0	6.6460	0	37.5010	8	29.446	0	314.835	0	138.4	4	47.7	4	-1E+10	1	-1E+10	1	-1E+10	1	-1E+10	1	-1E+10	1	-1E+10	1
4901784	226	C	09/11/2021	10:48	-136.570	43.103	0	319.50	0	6.6220	0	37.5040	8	29.452	0	316.717	0	137.3	4	47.2	4	-1E+10	1	-1E+10	1	-1E+10	1	-1E+10	1	-1E+10	1	-1E+10	1
4901784	226	C	09/11/2021	10:48	-136.570	43.103	0	322.30	0	6.5850	0	37.5060	8	29.459	0	319.491	0	135.9	4	46.7	4	-1E+10	1	-1E+10	1	-1E+10	1	-1E+10	1	-1E+10	1	-1E+10	1
4901784	226	C	09/11/2021	10:48	-136.570	43.103	0	325.10	0	6.5650	0	37.5080	8	29.463	0	322.264	0	134.6	4	46.3	4	-1E+10	1	-1E+10	1	-1E+10	1	-1E+10	1	-1E+10	1	-1E+10	1
4901784	226	C	09/11/2021	10:48	-136.570	43.103	0	326.90	0	6.5510	0	37.5100	8	29.467	0	324.047	0	133.8	4	46.0	4	-1E+10	1	-1E+10	1	-1E+10	1	-1E+10	1	-1E+10	1	-1E+10	1
4901784	226	C	09/11/2021	10:48	-136.570	43.103	0	329.70	0	6.5320	0	37.5120	8	29.471	0	326.820	0	132.5	4	45.5	4	-1E+10	1	-1E+10	1	-1E+10	1	-1E+10	1	-1E+10	1	-1E+10	1
4901784	226	C	09/11/2021	10:48	-136.570	43.103	0	332.60	0	6.5190	0	37.5140	8	29.474	0	329.693	0	131.2	4	45.0	4	-1E+10	1	-1E+10	1	-1E+10	1	-1E+10	1	-1E+10	1	-1E+10	1
4901784	226	C	09/11/2021	10:48	-136.570	43.103	0	334.50	0	6.5050	0	37.5160	8	29.478	0	331.574	0	130.3	4	44.7	4	-1E+10	1	-1E+10	1	-1E+10	1	-1E+10	1	-1E+10	1	-1E+10	1
4901784	226	C	09/11/2021	10:48	-136.570	43.103	0	337.40	0	6.4810	0	37.5160	8	29.481	0	334.447	0	129.1	4	44.3	4	-1E+10	1	-1E+10	1	-1E+10	1	-1E+10	1	-1E+10	1	-1E+10	1
4901784	226	C	09/11/2021	10:48	-136.570	43.103	0	340.20	0	6.4530	0	37.5170	8	29.486	0	337.220	0	127.8	4	43.8	4	-1E+10	1	-1E+10	1	-1E+10	1	-1E+10	1	-1E+10	1	-1E+10	1
4901784	226	C	09/11/2021	10:48	-136.570	43.103	0	342.10	0	6.4300	0	37.5170	8	29.489	0	339.102	0	126.9	4	43.5	4	-1E+10	1	-1E+10	1	-1E+10	1	-1E+10	1	-1E+10	1	-1E+10	1
4901784	226	C	09/11/2021	10:48	-136.570	43.103	0	344.90	0	6.4080	0	37.5200	8	29.495	0	341.875	0	125.2	4	42.9	4	-1E+10	1	-1E+10	1	-1E+10	1	-1E+10	1	-1E+10	1	-1E+10	1
4901784	226	C	09/11/2021	10:48	-136.570	43.103	0	347.70	0	6.4010	0	37.5220	8	29.497	0	344.648	0	123.2	4	42.2	4	-1E+10	1	-1E+10	1	-1E+10	1	-1E+10	1	-1E+10	1	-1E+10	1
4901784	226	C	09/11/2021	10:48	-136.570	43.103	0	349.60	0	6.3890	0	37.5270	8	29.503	0	346.530	0	121.8	4	41.7	4	-1E+10	1	-1E+10	1	-1E+10	1	-1E+10	1	-1E+10	1	-1E+10	1
4901784	226	C	09/11/2021	10:48	-136.570	43.103	0	352.50	0	6.3390	0	37.5240	8	29.507	0	349.402	0	120.9	4	41.4	4	-1E+10	1	-1E+10	1	-1E+10	1	-1E+10	1	-1E+10	1	-1E+10	1
4901784	226	C	09/11/2021	10:48	-136.570	43.103	0	355.50	0	6.2820	0	37.5260	8	29.517	0	352.373	0	119.1	4	40.7	4	-1E+10	1	-1E+10	1	-1E+10	1	-1E+10	1	-1E+10	1	-1E+10	1
4901784	226	C	09/11/2021	10:48	-136.570	43.103	0	357.40	0	6.2610	0	37.5270	8	29.521	0	354.255	0	117.9	4	40.2	4	-1E+10	1	-1E+10	1	-1E+10	1	-1E+10	1	-1E+10	1	-1E+10	1
4901784	226	C	09/11/2021	10:48	-136.570	43.103	0	360.20	0	6.1890	0	37.5300	8	29.533	0	357.028	0	116.8	4	39.8	4	-1E+10	1	-1E+10	1	-1E+10	1	-1E+10	1	-1E+10	1	-1E+10	1
4901784	226	C	09/11/2021	10:48	-136.570	43.103	0	363.10	0	6.1450	0	37.5300	8	29.539	0	359.899	0	115.8	4	39.4	4	-1E+10	1	-1E+10	1	-1E+10	1	-1E+10	1	-1E+10	1	-1E+10	1
4901784	226	C	09/11/2021	10:48	-136.570	43.103	0	365.70	0	6.0820	0	37.5340	8	29.550	0	362.474	0	114.9	4	39.1	4	-1E+10	1	-1E+10	1	-1E+10	1	-1E+10	1	-1E+10	1	-1E+10	1
4901784	226	C	09/11/2021	10:48	-136.570	43.103	0	367.60	0	6.0630	0	37.5350	8	29.554	0	364.356	0	114.1	4	38.8	4	-1E+10	1	-1E+10	1	-1E+10	1	-1E+10	1	-1E+10	1	-1E+10	1
4901784	226	C	09/11/2021	10:48	-136.570	43.103	0	370.00	0	6.0460	0	37.5380	8	29.559	0	366.733	0	113.5	4	38.6	4	-1E+10	1	-1E+10	1	-1E+10	1	-1E+10	1	-1E+10	1	-1E+10	1
4901784	226	C	09/11/2021	10:48	-136.570	43.103	0	372.40	0	6.0260	0	37.5370	8	29.560	0	369.109	0	113.7	4	38.6	4	-1E+10	1	-1E+10	1	-1E+10	1	-1E+10	1	-1E+10	1	-1E+10	1
4901784	226	C	09/11/2021	10:48	-136.570	43.103	0	374.90	0	5.9750	0	37.5370	8	29.567	0	371.585	0	113.4	4	38.5	4	-1E+10	1	-1E+10	1	-1E+10	1	-1E+10	1	-1E+10	1	-1E+10	1
4901784	226	C	09/11/2021	10:48	-136.570	43.103	0	377.40	0	5.9590	0	37.5370	8	29.570	0	374.061	0	112.3	4	38.1	4	-1E+10	1	-1E+10	1	-1E+10	1	-1E+10	1	-1E+10	1	-1E+10	1
4901784	226	C	09/11/2021	10:48	-136.570	43.103	0	379.90	0	5.9490	0	37.5390	8	29.572	0	376.536	0	111.1	4	37.7	4	-1E+10	1	-1E+10	1	-1E+10	1	-1E+10	1	-1E+10	1	-1E+10	1
4901784	226	C	09/11/2021	10:48	-136.570	43.103	0	382.40	0	5.9310	0	37.5410	8	29.576	0	379.012	0	109.9	4	37.2	4	-1E+10	1	-1E+10	1	-1E+10	1	-1E+10	1	-1E+10	1	-1E+10	1
4901784	226	C	09/11/2021	10:48	-136.570	43.103	0	384.90	0	5.9260	0	37.5440	8	29.580	0	381.487	0	108.3	4	36.7	4	-1E+10	1	-1E+10	1	-1E+10	1	-1E+10	1	-1E+10	1	-1E+10	1
4901784	226	C	09/11/2021	10:48	-136.570	43.103	0	387.40	0	5.9250	0	37.5460	8	29.581	0	383.963	0	106.4	4	36.1	4	-1E+10	1	-1E+10	1	-1E+10	1	-1E+10	1	-1E+10	1	-1E+10	1
4901784	226	C	09/11/2021	10:48	-136.570	43.103	0	389.90	0	5.9270	0	37.5480	8	29.583	0	386.438	0	104.4	4	35.4	4	-1E+10	1	-1E+10	1	-1E+10	1	-1E+10	1	-1E+10	1	-1E+10	1
4901784	226	C	09/11/2021	10:48	-136.570	43.103	0	392.40	0	5.8940	0	37.5520	8	29.590	0	388.914	0	102.8	4	34.8	4	-1E+10	1	-1E+10	1	-1E+10	1	-1E+10	1	-1E+10	1	-1E+10	1
4901784	226	C	09/11/2021	10:48	-136.570	43.103	0	395.00	0	5.8530	0	37.5560	8	29.599	0	391.488	0	101.9	4	34.5	4	-1E+10	1	-1E+10	1	-1E+10	1	-1E+10	1	-1E+10	1	-1E+10	1
4901784	226	C	09/11/2021	10:48	-136.570	43.103	0	397.60	0	5.8400	0	37.5570	8	29.601	0	394.063	0	101.4	4	34.3	4	-1E+10	1	-1E+10	1	-1E+10	1	-1E+10	1	-1E+10	1	-1E+10	1
4901784	226	C	09/11/2021	10:48	-136.570	43.103	0	400.20	0	5.8260	0	37.5580	8	29.604	0	396.637	0	100.7	4	34.0	4	-1E+10	1	-1E+10	1	-1E+10	1	-1E+10	1	-1E+10	1	-1E+10	1
4901784	226	C	09/11/2021	10:48	-136.570	43.103	0	402.80	0	5.8100	0	37.5580	8	29.606	0	399.211	0	99.9	4	33.7	4	-1E+10	1	-1E+10	1	-1E+10	1	-1E+10	1	-1E+10	1	-1E+10	1
4901784	226	C	09/11/2021	10:48	-136.570	43.103	0	405.30	0	5.7890	0	37.5590	8	29.610	0	401.687	0	98.6	4	33.3	4	-1E+10	1	-1E+10	1	-1E+10	1	-1E+10	1	-1E+10	1	-1E+10	1
4901784	226	C	09/11/2021	10:48	-136.570	43.103	0	407.90	0	5.7500	0	37.5630	8	29.618	0	404.261	0	97.6	4	32.9	4	-1E+10	1	-1E+10	1	-1E+10	1	-1E+10	1	-1E+10	1	-1E+10	1
4901784	226	C	09/11/2021	10:48	-136.570	43.103	0	409.60	0	5.7480	0	37.5620	8	29.618	0	405.944	0	97.0	4	32.7	4	-1E+10	1	-1E+10	1	-1E+10	1	-1E+10	1	-1E+10	1	-1E+10	1
4901784	226	C	09/11/2021	10:48	-136.570	43.103	0	412.20	0	5.7240	0	37.5630	8	29.622	0	408.518	0	95.7	4	32.3	4	-1E+10	1	-1E+10	1	-1E+10	1	-1E+10	1	-1E+10	1	-1E+10	1
4901784	226	C	09/11/2021	10:48	-136.570	43.103	0	414.90	0	5.6870	0	37.5660	8	29.629	0	411.192	0	94.4	4	31.8	4	-1E+10	1	-1E+10	1	-1E+10	1	-1E+10	1	-1E+10	1	-1E+10	1
4901784	226	C	09/11/2021	10:48	-136.570	43.103	0	417.50	0	5.6690	0	37.5670	8	29.632	0	413.766	0	93.1	4	31.4	4	-1E+10	1	-1E+10	1	-1E+10	1	-1E+10	1	-1E+10	1	-1E+10	1
4901784	226	C	09/11/2021	10:48	-136.570	43.103	0	420.10	0	5.6380	0	37.5680	8	29.637	0	416.340	0	91.9	4	30.9	4	-1E+10	1	-1E+10	1	-1E+10	1	-1E+10	1	-1E+10	1	-1E+10	1
4901784	226	C	09/11/2021	10:48	-136.570	43.103	0	422.80	0	5.6060	0	37.5680	8	29.641	0	419.013	0	90.9	4	30.6	4	-1E+10	1	-1E+10	1	-1E+10	1	-1E+10	1	-1E+10	1	-1E+10	1
4901784	226	C	09/11/2021	10:48	-136.570	43.103	0	425.40	0	5.5770	0	37.5700	8	29.646	0	421.587	0	90.2	4	30.3	4	-1E+10	1	-1E+10	1	-1E+10	1	-1E+10	1	-1E+10	1	-1E+10	1
4901784	226	C	09/11/2021	10:48	-136.570	43.103	0	427.20	0	5.5620	0	37.5710	8	29.649	0	423.369	0	89.8	4	30.2	4	-1E+10	1	-1E+10	1	-1E+10	1	-1E+10	1	-1E+10	1	-1E+10	1
4901784	226	C	09/11/2021	10:48	-136.570	43.103	0	429.90	0	5.5500	0	37.5700	8	29.650	0	426.042	0	89.2	4	30.0	4	-1E+10	1	-1E+10	1	-1E+10	1	-1E+10	1	-1E+10	1	-1E+10	1
4901784	226	C	09/11/2021	10:48	-136.570	43.103	0	432.60	0	5.5050	0	37.5730	8	29.658	0	428.715	0	88.6	4	29.7	4	-1E+10	1	-1E+10	1	-1E+10	1	-1E+10	1	-1E+10	1	-1E+10	1
4901784	226	C	09/11/2021	10:48	-136.570	43.103	0	434.50	0	5.4970	0	37.5720	8	29.658	0	430.596	0	88.2	4	29.6	4	-1E+10	1	-1E+10	1	-1E+10	1	-1E+10	1	-1E+10	1	-1E+10	1
4901784	226	C	09/11/2021	10:48	-136.570	43.103	0	437.20	0	5.4630	0	37.5720	8	29.663	0	433.269	0	87.3	4	29.3	4	-1E+10	1	-1E+10	1	-1E+10	1	-1E+10	1	-1E+10	1	-1E+10	1
4901784	226	C	09/11/2021	10:48	-136.570	43.103	0	440.00	0	5.4230	0	37.5740	8	29.669	0	436.041	0	86.3	4	28.9	4	-1E+10	1	-1E+10	1	-1E+10	1	-1E+10	1	-1E+10	1	-1E+10	1
4901784	226	C	09/11/2021	10:48	-136.570	43.103	0	442.70	0	5.3960	0	37.5760	8	29.675	0	438.714	0	84.7	4	28.4	4	-1E+10	1	-1E+10	1	-1E+10	1	-1E+10	1	-1E+10	1	-1E+10	1
4901784	226	C	09/11/2021	10:48	-136.570	43.103	0	445.40	0	5.3640	0	37.5800	8	29.682	0	441.386	0	83.2	4	27.8	4	-1E+10	1	-1E+10	1	-1E+10	1	-1E+10	1	-1E+10	1	-1E+10	1
4901784	226	C	09/11/2021	10:48	-136.570	43.103	0	447.20	0	5.3640	0	37.5830	8	29.684	0	443.168	0	82.4	4	27.6	4	-1E+10	1	-1E+10	1	-1E+10	1	-1E+10	1	-1E+10	1	-1E+10	1
4901784	226	C	09/11/2021	10:48	-136.570	43.103	0	449.90	0	5.3500	0	37.5830	8	29.686	0	445.841	0	81.3	4	27.2	4	-1E+10	1	-1E+10	1	-1E+10	1	-1E+10	1	-1E+10	1	-1E+10	1
4901784	226	C	09/11/2021	10:48	-136.570	43.103	0	452.70	0	5.3130	0	37.5860	8	29.693	0	448.613	0	80.1	4	26.8	4	-1E+10	1	-1E+10	1	-1E+10	1	-1E+10	1	-1E+10	1	-1E+10	1
4901784	226	C	09/11/2021	10:48	-136.570	43.103	0	454.50	0	5.2930	0	37.5870	8	29.696	0	450.395	0	79.2	4	26.5	4	-1E+10	1	-1E+10	1	-1E+10	1	-1E+10	1	-1E+10	1	-1E+10	1
4901784	226	C	09/11/2021	10:48	-136.570	43.103	0	457.30	0	5.2690	0	37.5900	8	29.702	0	453.166	0	77.4	4	25.9	4	-1E+10	1	-1E+10	1	-1E+10	1	-1E+10	1	-1E+10	1	-1E+10	1
4901784	226	C	09/11/2021	10:48	-136.570	43.103	0	460.10	0	5.2460	0	37.5950	8	29.709	0	455.938	0	75.8	4	25.3	4	-1E+10	1	-1E+10	1	-1E+10	1	-1E+10	1	-1E+10	1	-1E+10	1
4901784	226	C	09/11/2021	10:48	-136.570	43.103	0	461.90	0	5.2300	0	37.5980	8	29.713	0	457.720	0	74.7	4	24.9	4	-1E+10	1	-1E+10	1	-1E+10	1	-1E+10	1	-1E+10	1	-1E+10	1
4901784	226	C	09/11/2021	10:48	-136.570	43.103	0	464.70	0	5.2070	0	37.6020	8	29.719	0	460.491	0	73.2	4	24.4	4	-1E+10	1	-1E+10	1	-1E+10	1	-1E+10	1	-1E+10	1	-1E+10	1
4901784	226	C	09/11/2021	10:48	-136.570	43.103	0	467.40	0	5.1960	0	37.6030	8	29.721	0	463.164	0	72.4	4	24.1	4	-1E+10	1	-1E+10	1	-1E+10	1	-1E+10	1	-1E+10	1	-1E+10	1
4901784	226	C	09/11/2021	10:48	-136.570	43.103	0	470.20	0	5.1650	0	37.6060	8	29.728	0	465.935	0	71.7	4	23.9	4	-1E+10	1	-1E+10	1	-1E+10	1	-1E+10	1	-1E+10	1	-1E+10	1
4901784	226	C	09/11/2021	10:48	-136.570	43.103	0	473.00	0	5.1270	0	37.6100	8	29.736	0	468.707	0	71.1	4	23.6	4	-1E+10	1	-1E+10	1	-1E+10	1	-1E+10	1	-1E+10	1	-1E+10	1
4901784	226	C	09/11/2021	10:48	-136.570	43.103	0	474.90	0	5.1250	0	37.6110	8	29.737	0	470.587	0	70.5	4	23.5	4	-1E+10	1	-1E+10	1	-1E+10	1	-1E+10	1	-1E+10	1	-1E+10	1
4901784	226	C	09/11/2021	10:48	-136.570	43.103	0	477.70	0	5.1110	0	37.6130	8	29.740	0	473.359	0	70.0	4	23.3	4	-1E+10	1	-1E+10	1	-1E+10	1	-1E+10	1	-1E+10	1	-1E+10	1
4901784	226	C	09/11/2021	10:48	-136.570	43.103	0	480.50	0	5.0910	0	37.6130	8	29.743	0	476.130	0	69.4	4	23.1	4	-1E+10	1	-1E+10	1	-1E+10	1	-1E+10	1	-1E+10	1	-1E+10	1
4901784	226	C	09/11/2021	10:48	-136.570	43.103	0	482.50	0	5.0800	0	37.6150	8	29.746	0	478.109	0	69.0	4	22.9	4	-1E+10	1	-1E+10	1	-1E+10	1	-1E+10	1	-1E+10	1	-1E+10	1
4901784	226	C	09/11/2021	10:48	-136.570	43.103	0	484.40	0	5.0750	0	37.6140	8	29.745	0	479.990	0	68.4	4	22.7	4	-1E+10	1	-1E+10	1	-1E+10	1	-1E+10	1	-1E+10	1	-1E+10	1
4901784	226	C	09/11/2021	10:48	-136.570	43.103	0	487.30	0	5.0440	0	37.6190	8	29.753	0	482.860	0	67.2	4	22.3	4	-1E+10	1	-1E+10	1	-1E+10	1	-1E+10	1	-1E+10	1	-1E+10	1
4901784	226	C	09/11/2021	10:48	-136.570	43.103	0	490.10	0	5.0280	0	37.6210	8	29.757	0	485.631	0	66.3	4	22.0	4	-1E+10	1	-1E+10	1	-1E+10	1	-1E+10	1	-1E+10	1	-1E+10	1
4901784	226	C	09/11/2021	10:48	-136.570	43.103	0	492.10	0	5.0110	0	37.6240	8	29.761	0	487.611	0	65.8	4	21.8	4	-1E+10	1	-1E+10	1	-1E+10	1	-1E+10	1	-1E+10	1	-1E+10	1
4901784	226	C	09/11/2021	10:48	-136.570	43.103	0	495.00	0	4.9840	0	37.6270	8	29.767	0	490.481	0	65.0	4	21.6	4	-1E+10	1	-1E+10	1	-1E+10	1	-1E+10	1	-1E+10	1	-1E+10	1
4901784	226	C	09/11/2021	10:48	-136.570	43.103	0	497.80	0	4.9550	0	37.6300	8	29.773	0	493.252	0	64.0	4	21.2	4	-1E+10	1	-1E+10	1	-1E+10	1	-1E+10	1	-1E+10	1	-1E+10	1
4901784	226	C	09/11/2021	10:48	-136.570	43.103	0	499.80	0	4.9570	0	37.6340	8	29.776	0	495.231	0	63.5	4	21.0	4	-1E+10	1	-1E+10	1	-1E+10	1	-1E+10	1	-1E+10	1	-1E+10	1
4901784	226	C	09/11/2021	10:48	-136.570	43.103	0	505.20	0	4.9340	0	37.6370	8	29.781	0	500.576	0	62.9	4	20.8	4	-1E+10	1	-1E+10	1	-1E+10	1	-1E+10	1	-1E+10	1	-1E+10	1
4901784	226	C	09/11/2021	10:48	-136.570	43.103	0	509.50	0	4.9090	0	37.6390	8	29.786	0	504.831	0	63.0	4	20.9	4	-1E+10	1	-1E+10	1	-1E+10	1	-1E+10	1	-1E+10	1	-1E+10	1
4901784	226	C	09/11/2021	10:48	-136.570	43.103	0	515.00	0	4.8780	0	37.6400	8	29.790	0	510.274	0	62.9	4	20.8	4	-1E+10	1	-1E+10	1	-1E+10	1	-1E+10	1	-1E+10	1	-1E+10	1
4901784	226	C	09/11/2021	10:48	-136.570	43.103	0	520.60	0	4.8290	0	37.6440	8	29.800	0	515.816	0	62.6	4	20.7	4	-1E+10	1	-1E+10	1	-1E+10	1	-1E+10	1	-1E+10	1	-1E+10	1
4901784	226	C	09/11/2021	10:48	-136.570	43.103	0	525.40	0	4.7990	0	37.6460	8	29.805	0	520.565	0	60.9	4	20.1	4	-1E+10	1	-1E+10	1	-1E+10	1	-1E+10	1	-1E+10	1	-1E+10	1
4901784	226	C	09/11/2021	10:48	-136.570	43.103	0	530.20	0	4.7670	0	37.6540	8	29.815	0	525.315	0	58.8	4	19.4	4	-1E+10	1	-1E+10	1	-1E+10	1	-1E+10	1	-1E+10	1	-1E+10	1
4901784	226	C	09/11/2021	10:48	-136.570	43.103	0	535.10	0	4.7360	0	37.6620	8	29.825	0	530.164	0	57.0	4	18.8	4	-1E+10	1	-1E+10	1	-1E+10	1	-1E+10	1	-1E+10	1	-1E+10	1
4901784	226	C	09/11/2021	10:48	-136.570	43.103	0	540.10	0	4.7150	0	37.6680	8	29.833	0	535.111	0	54.6	4	18.0	4	-1E+10	1	-1E+10	1	-1E+10	1	-1E+10	1	-1E+10	1	-1E+10	1
4901784	226	C	09/11/2021	10:48	-136.570	43.103	0	545.00	0	4.6760	0	37.6760	8	29.844	0	539.960	0	52.8	4	17.4	4	-1E+10	1	-1E+10	1	-1E+10	1	-1E+10	1	-1E+10	1	-1E+10	1
4901784	226	C	09/11/2021	10:48	-136.570	43.103	0	549.90	0	4.6520	0	37.6830	8	29.852	0	544.808	0	50.9	4	16.8	4	-1E+10	1	-1E+10	1	-1E+10	1	-1E+10	1	-1E+10	1	-1E+10	1
4901784	226	C	09/11/2021	10:48	-136.570	43.103	0	555.00	0	4.6300	0	37.6890	8	29.860	0	549.854	0	49.4	4	16.3	4	-1E+10	1	-1E+10	1	-1E+10	1	-1E+10	1	-1E+10	1	-1E+10	1
4901784	226	C	09/11/2021	10:48	-136.570	43.103	0	560.00	0	4.6210	0	37.6960	8	29.866	0	554.801	0	47.3	4	15.6	4	-1E+10	1	-1E+10	1	-1E+10	1	-1E+10	1	-1E+10	1	-1E+10	1
4901784	226	C	09/11/2021	10:48	-136.570	43.103	0	565.00	0	4.5970	0	37.7030	8	29.875	0	559.748	0	46.2	4	15.2	4	-1E+10	1	-1E+10	1	-1E+10	1	-1E+10	1	-1E+10	1	-1E+10	1
4901784	226	C	09/11/2021	10:48	-136.570	43.103	0	570.10	0	4.5680	0	37.7080	8	29.882	0	564.793	0	45.2	4	14.9	4	-1E+10	1	-1E+10	1	-1E+10	1	-1E+10	1	-1E+10	1	-1E+10	1
4901784	226	C	09/11/2021	10:48	-136.570	43.103	0	575.30	0	4.5550	0	37.7150	8	29.889	0	569.938	0	43.9	4	14.4	4	-1E+10	1	-1E+10	1	-1E+10	1	-1E+10	1	-1E+10	1	-1E+10	1
4901784	226	C	09/11/2021	10:48	-136.570	43.103	0	580.40	0	4.5530	0	37.7200	8	29.894	0	574.983	0	42.7	4	14.0	4	-1E+10	1	-1E+10	1	-1E+10	1	-1E+10	1	-1E+10	1	-1E+10	1
4901784	226	C	09/11/2021	10:48	-136.570	43.103	0	585.60	0	4.5430	0	37.7230	8	29.897	0	580.128	0	41.2	4	13.5	4	-1E+10	1	-1E+10	1	-1E+10	1	-1E+10	1	-1E+10	1	-1E+10	1
4901784	226	C	09/11/2021	10:48	-136.570	43.103	0	590.00	0	4.5350	0	37.7290	8	29.903	0	584.480	0	39.7	4	13.0	4	-1E+10	1	-1E+10	1	-1E+10	1	-1E+10	1	-1E+10	1	-1E+10	1
4901784	226	C	09/11/2021	10:48	-136.570	43.103	0	594.30	0	4.5090	0	37.7380	8	29.913	0	588.734	0	38.4	4	12.6	4	-1E+10	1	-1E+10	1	-1E+10	1	-1E+10	1	-1E+10	1	-1E+10	1
4901784	226	C	09/11/2021	10:48	-136.570	43.103	0	599.60	0	4.4850	0	37.7460	8	29.922	0	593.977	0	37.1	4	12.2	4	-1E+10	1	-1E+10	1	-1E+10	1	-1E+10	1	-1E+10	1	-1E+10	1
4901784	226	C	09/11/2021	10:48	-136.570	43.103	0	604.90	0	4.4450	0	37.7540	8	29.933	0	599.219	0	36.1	4	11.8	4	-1E+10	1	-1E+10	1	-1E+10	1	-1E+10	1	-1E+10	1	-1E+10	1
4901784	226	C	09/11/2021	10:48	-136.570	43.103	0	610.30	0	4.4430	0	37.7610	8	29.939	0	604.561	0	35.0	4	11.5	4	-1E+10	1	-1E+10	1	-1E+10	1	-1E+10	1	-1E+10	1	-1E+10	1
4901784	226	C	09/11/2021	10:48	-136.570	43.103	0	615.70	0	4.3970	0	37.7660	8	29.949	0	609.902	0	34.1	4	11.2	4	-1E+10	1	-1E+10	1	-1E+10	1	-1E+10	1	-1E+10	1	-1E+10	1
4901784	226	C	09/11/2021	10:48	-136.570	43.103	0	620.20	0	4.4090	0	37.7730	8	29.953	0	614.353	0	31.9	4	10.4	4	-1E+10	1	-1E+10	1	-1E+10	1	-1E+10	1	-1E+10	1	-1E+10	1
4901784	226	C	09/11/2021	10:48	-136.570	43.103	0	624.80	0	4.3920	0	37.7790	8	29.960	0	618.903	0	31.4	4	10.3	4	-1E+10	1	-1E+10	1	-1E+10	1	-1E+10	1	-1E+10	1	-1E+10	1
4901784	226	C	09/11/2021	10:48	-136.570	43.103	0	630.20	0	4.3480	0	37.7850	8	29.970	0	624.244	0	30.2	4	9.9	4	-1E+10	1	-1E+10	1	-1E+10	1	-1E+10	1	-1E+10	1	-1E+10	1
4901784	226	C	09/11/2021	10:48	-136.570	43.103	0	635.60	0	4.3430	0	37.7930	8	29.977	0	629.585	0	28.3	4	9.3	4	-1E+10	1	-1E+10	1	-1E+10	1	-1E+10	1	-1E+10	1	-1E+10	1
4901784	226	C	09/11/2021	10:48	-136.570	43.103	0	640.20	0	4.3370	0	37.8010	8	29.984	0	634.134	0	26.9	4	8.8	4	-1E+10	1	-1E+10	1	-1E+10	1	-1E+10	1	-1E+10	1	-1E+10	1
4901784	226	C	09/11/2021	10:48	-136.570	43.103	0	644.90	0	4.3100	0	37.8100	8	29.994	0	638.782	0	25.9	4	8.5	4	-1E+10	1	-1E+10	1	-1E+10	1	-1E+10	1	-1E+10	1	-1E+10	1
4901784	226	C	09/11/2021	10:48	-136.570	43.103	0	650.40	0	4.3090	0	37.8180	8	30.001	0	644.222	0	24.7	4	8.1	4	-1E+10	1	-1E+10	1	-1E+10	1	-1E+10	1	-1E+10	1	-1E+10	1
4901784	226	C	09/11/2021	10:48	-136.570	43.103	0	655.00	0	4.3110	0	37.8220	8	30.004	0	648.771	0	24.0	4	7.8	4	-1E+10	1	-1E+10	1	-1E+10	1	-1E+10	1	-1E+10	1	-1E+10	1
4901784	226	C	09/11/2021	10:48	-136.570	43.103	0	659.70	0	4.2930	0	37.8260	8	30.009	0	653.419	0	23.4	4	7.7	4	-1E+10	1	-1E+10	1	-1E+10	1	-1E+10	1	-1E+10	1	-1E+10	1
4901784	226	C	09/11/2021	10:48	-136.570	43.103	0	665.30	0	4.2800	0	37.8330	8	30.016	0	658.957	0	22.6	4	7.4	4	-1E+10	1	-1E+10	1	-1E+10	1	-1E+10	1	-1E+10	1	-1E+10	1
4901784	226	C	09/11/2021	10:48	-136.570	43.103	0	670.00	0	4.2610	0	37.8380	8	30.022	0	663.604	0	22.0	4	7.2	4	-1E+10	1	-1E+10	1	-1E+10	1	-1E+10	1	-1E+10	1	-1E+10	1
4901784	226	C	09/11/2021	10:48	-136.570	43.103	0	674.70	0	4.2470	0	37.8430	8	30.028	0	668.252	0	21.4	4	7.0	4	-1E+10	1	-1E+10	1	-1E+10	1	-1E+10	1	-1E+10	1	-1E+10	1
4901784	226	C	09/11/2021	10:48	-136.570	43.103	0	680.30	0	4.2300	0	37.8490	8	30.035	0	673.789	0	20.5	4	6.7	4	-1E+10	1	-1E+10	1	-1E+10	1	-1E+10	1	-1E+10	1	-1E+10	1
4901784	226	C	09/11/2021	10:48	-136.570	43.103	0	685.00	0	4.2390	0	37.8560	8	30.039	0	678.437	0	19.4	4	6.3	4	-1E+10	1	-1E+10	1	-1E+10	1	-1E+10	1	-1E+10	1	-1E+10	1
4901784	226	C	09/11/2021	10:48	-136.570	43.103	0	689.80	0	4.2290	0	37.8630	8	30.046	0	683.183	0	18.8	4	6.1	4	-1E+10	1	-1E+10	1	-1E+10	1	-1E+10	1	-1E+10	1	-1E+10	1
4901784	226	C	09/11/2021	10:48	-136.570	43.103	0	695.40	0	4.2160	0	37.8680	8	30.052	0	688.720	0	18.4	4	6.0	4	-1E+10	1	-1E+10	1	-1E+10	1	-1E+10	1	-1E+10	1	-1E+10	1
4901784	226	C	09/11/2021	10:48	-136.570	43.103	0	700.10	0	4.1840	0	37.8720	8	30.058	0	693.367	0	18.0	4	5.9	4	-1E+10	1	-1E+10	1	-1E+10	1	-1E+10	1	-1E+10	1	-1E+10	1
4901784	226	C	09/11/2021	10:48	-136.570	43.103	0	704.90	0	4.1750	0	37.8770	8	30.063	0	698.113	0	17.4	4	5.7	4	-1E+10	1	-1E+10	1	-1E+10	1	-1E+10	1	-1E+10	1	-1E+10	1
4901784	226	C	09/11/2021	10:48	-136.570	43.103	0	710.60	0	4.1620	0	37.8860	8	30.072	0	703.748	0	16.4	4	5.4	4	-1E+10	1	-1E+10	1	-1E+10	1	-1E+10	1	-1E+10	1	-1E+10	1
4901784	226	C	09/11/2021	10:48	-136.570	43.103	0	715.30	0	4.1590	0	37.8970	8	30.081	0	708.395	0	15.9	4	5.2	4	-1E+10	1	-1E+10	1	-1E+10	1	-1E+10	1	-1E+10	1	-1E+10	1
4901784	226	C	09/11/2021	10:48	-136.570	43.103	0	720.10	0	4.1380	0	37.9010	8	30.087	0	713.140	0	15.8	4	5.2	4	-1E+10	1	-1E+10	1	-1E+10	1	-1E+10	1	-1E+10	1	-1E+10	1
4901784	226	C	09/11/2021	10:48	-136.570	43.103	0	725.50	0	4.1240	0	37.9050	8	30.092	0	718.479	0	15.5	4	5.0	4	-1E+10	1	-1E+10	1	-1E+10	1	-1E+10	1	-1E+10	1	-1E+10	1
4901784	226	C	09/11/2021	10:48	-136.570	43.103	0	730.30	0	4.1030	0	37.9100	8	30.098	0	723.224	0	15.2	4	4.9	4	-1E+10	1	-1E+10	1	-1E+10	1	-1E+10	1	-1E+10	1	-1E+10	1
4901784	226	C	09/11/2021	10:48	-136.570	43.103	0	735.20	0	4.0880	0	37.9150	8	30.104	0	728.068	0	14.8	4	4.8	4	-1E+10	1	-1E+10	1	-1E+10	1	-1E+10	1	-1E+10	1	-1E+10	1
4901784	226	C	09/11/2021	10:48	-136.570	43.103	0	740.10	0	4.0760	0	37.9230	8	30.112	0	732.912	0	14.2	4	4.6	4	-1E+10	1	-1E+10	1	-1E+10	1	-1E+10	1	-1E+10	1	-1E+10	1
4901784	226	C	09/11/2021	10:48	-136.570	43.103	0	745.00	0	4.0750	0	37.9290	8	30.117	0	737.756	0	13.8	4	4.5	4	-1E+10	1	-1E+10	1	-1E+10	1	-1E+10	1	-1E+10	1	-1E+10	1
4901784	226	C	09/11/2021	10:48	-136.570	43.103	0	750.00	0	4.0760	0	37.9350	8	30.121	0	742.698	0	13.3	4	4.3	4	-1E+10	1	-1E+10	1	-1E+10	1	-1E+10	1	-1E+10	1	-1E+10	1
4901784	226	C	09/11/2021	10:48	-136.570	43.103	0	754.90	0	4.0630	0	37.9410	8	30.128	0	747.542	0	13.0	4	4.2	4	-1E+10	1	-1E+10	1	-1E+10	1	-1E+10	1	-1E+10	1	-1E+10	1
4901784	226	C	09/11/2021	10:48	-136.570	43.103	0	759.90	0	4.0460	0	37.9480	8	30.135	0	752.484	0	12.9	4	4.2	4	-1E+10	1	-1E+10	1	-1E+10	1	-1E+10	1	-1E+10	1	-1E+10	1
4901784	226	C	09/11/2021	10:48	-136.570	43.103	0	764.90	0	4.0230	0	37.9520	8	30.141	0	757.426	0	12.8	4	4.2	4	-1E+10	1	-1E+10	1	-1E+10	1	-1E+10	1	-1E+10	1	-1E+10	1
4901784	226	C	09/11/2021	10:48	-136.570	43.103	0	769.90	0	4.0050	0	37.9550	8	30.145	0	762.368	0	12.7	4	4.1	4	-1E+10	1	-1E+10	1	-1E+10	1	-1E+10	1	-1E+10	1	-1E+10	1
4901784	226	C	09/11/2021	10:48	-136.570	43.103	0	774.90	0	3.9900	0	37.9590	8	30.150	0	767.310	0	12.6	4	4.1	4	-1E+10	1	-1E+10	1	-1E+10	1	-1E+10	1	-1E+10	1	-1E+10	1
4901784	226	C	09/11/2021	10:48	-136.570	43.103	0	780.00	0	3.9780	0	37.9640	8	30.156	0	772.351	0	12.4	4	4.0	4	-1E+10	1	-1E+10	1	-1E+10	1	-1E+10	1	-1E+10	1	-1E+10	1
4901784	226	C	09/11/2021	10:48	-136.570	43.103	0	785.00	0	3.9700	0	37.9670	8	30.159	0	777.292	0	12.3	4	4.0	4	-1E+10	1	-1E+10	1	-1E+10	1	-1E+10	1	-1E+10	1	-1E+10	1
4901784	226	C	09/11/2021	10:48	-136.570	43.103	0	790.20	0	3.9610	0	37.9730	8	30.165	0	782.432	0	12.0	4	3.9	4	-1E+10	1	-1E+10	1	-1E+10	1	-1E+10	1	-1E+10	1	-1E+10	1
4901784	226	C	09/11/2021	10:48	-136.570	43.103	0	795.40	0	3.9560	0	37.9770	8	30.169	0	787.571	0	11.8	4	3.8	4	-1E+10	1	-1E+10	1	-1E+10	1	-1E+10	1	-1E+10	1	-1E+10	1
4901784	226	C	09/11/2021	10:48	-136.570	43.103	0	800.60	0	3.9470	0	37.9810	8	30.173	0	792.710	0	11.6	4	3.8	4	-1E+10	1	-1E+10	1	-1E+10	1	-1E+10	1	-1E+10	1	-1E+10	1
4901784	226	C	09/11/2021	10:48	-136.570	43.103	0	804.90	0	3.9420	0	37.9870	8	30.178	0	796.959	0	11.4	4	3.7	4	-1E+10	1	-1E+10	1	-1E+10	1	-1E+10	1	-1E+10	1	-1E+10	1
4901784	226	C	09/11/2021	10:48	-136.570	43.103	0	809.30	0	3.9360	0	37.9900	8	30.181	0	801.307	0	11.3	4	3.7	4	-1E+10	1	-1E+10	1	-1E+10	1	-1E+10	1	-1E+10	1	-1E+10	1
4901784	226	C	09/11/2021	10:48	-136.570	43.103	0	814.60	0	3.9250	0	37.9940	8	30.186	0	806.545	0	11.1	4	3.6	4	-1E+10	1	-1E+10	1	-1E+10	1	-1E+10	1	-1E+10	1	-1E+10	1
4901784	226	C	09/11/2021	10:48	-136.570	43.103	0	820.00	0	3.9150	0	38.0000	8	30.192	0	811.881	0	10.9	4	3.5	4	-1E+10	1	-1E+10	1	-1E+10	1	-1E+10	1	-1E+10	1	-1E+10	1
4901784	226	C	09/11/2021	10:48	-136.570	43.103	0	825.40	0	3.9030	0	38.0050	8	30.197	0	817.217	0	10.8	4	3.5	4	-1E+10	1	-1E+10	1	-1E+10	1	-1E+10	1	-1E+10	1	-1E+10	1
4901784	226	C	09/11/2021	10:48	-136.570	43.103	0	829.90	0	3.8960	0	38.0080	8	30.200	0	821.663	0	10.8	4	3.5	4	-1E+10	1	-1E+10	1	-1E+10	1	-1E+10	1	-1E+10	1	-1E+10	1
4901784	226	C	09/11/2021	10:48	-136.570	43.103	0	834.50	0	3.8860	0	38.0100	8	30.203	0	826.209	0	10.7	4	3.5	4	-1E+10	1	-1E+10	1	-1E+10	1	-1E+10	1	-1E+10	1	-1E+10	1
4901784	226	C	09/11/2021	10:48	-136.570	43.103	0	840.00	0	3.8700	0	38.0150	8	30.209	0	831.643	0	10.6	4	3.4	4	-1E+10	1	-1E+10	1	-1E+10	1	-1E+10	1	-1E+10	1	-1E+10	1
4901784	226	C	09/11/2021	10:48	-136.570	43.103	0	845.40	0	3.8510	0	38.0220	8	30.217	0	836.978	0	10.4	4	3.4	4	-1E+10	1	-1E+10	1	-1E+10	1	-1E+10	1	-1E+10	1	-1E+10	1
4901784	226	C	09/11/2021	10:48	-136.570	43.103	0	850.00	0	3.8420	0	38.0250	8	30.220	0	841.523	0	10.4	4	3.4	4	-1E+10	1	-1E+10	1	-1E+10	1	-1E+10	1	-1E+10	1	-1E+10	1
4901784	226	C	09/11/2021	10:48	-136.570	43.103	0	854.50	0	3.8340	0	38.0290	8	30.224	0	845.969	0	10.3	4	3.3	4	-1E+10	1	-1E+10	1	-1E+10	1	-1E+10	1	-1E+10	1	-1E+10	1
4901784	226	C	09/11/2021	10:48	-136.570	43.103	0	859.70	0	3.8240	0	38.0330	8	30.228	0	851.107	0	10.2	4	3.3	4	-1E+10	1	-1E+10	1	-1E+10	1	-1E+10	1	-1E+10	1	-1E+10	1
4901784	226	C	09/11/2021	10:48	-136.570	43.103	0	864.40	0	3.8140	0	38.0360	8	30.232	0	855.750	0	10.2	4	3.3	4	-1E+10	1	-1E+10	1	-1E+10	1	-1E+10	1	-1E+10	1	-1E+10	1
4901784	226	C	09/11/2021	10:48	-136.570	43.103	0	870.00	0	3.7990	0	38.0410	8	30.238	0	861.283	0	10.1	4	3.3	4	-1E+10	1	-1E+10	1	-1E+10	1	-1E+10	1	-1E+10	1	-1E+10	1
4901784	226	C	09/11/2021	10:48	-136.570	43.103	0	875.70	0	3.7910	0	38.0460	8	30.243	0	866.914	0	10.1	4	3.3	4	-1E+10	1	-1E+10	1	-1E+10	1	-1E+10	1	-1E+10	1	-1E+10	1
4901784	226	C	09/11/2021	10:48	-136.570	43.103	0	880.70	0	3.7830	0	38.0480	8	30.245	0	871.853	0	10.0	4	3.2	4	-1E+10	1	-1E+10	1	-1E+10	1	-1E+10	1	-1E+10	1	-1E+10	1
4901784	226	C	09/11/2021	10:48	-136.570	43.103	0	885.50	0	3.7700	0	38.0510	8	30.249	0	876.595	0	10.0	4	3.2	4	-1E+10	1	-1E+10	1	-1E+10	1	-1E+10	1	-1E+10	1	-1E+10	1
4901784	226	C	09/11/2021	10:48	-136.570	43.103	0	890.50	0	3.7570	0	38.0550	8	30.254	0	881.534	0	10.0	4	3.2	4	-1E+10	1	-1E+10	1	-1E+10	1	-1E+10	1	-1E+10	1	-1E+10	1
4901784	226	C	09/11/2021	10:48	-136.570	43.103	0	895.40	0	3.7520	0	38.0580	8	30.257	0	886.374	0	9.9	4	3.2	4	-1E+10	1	-1E+10	1	-1E+10	1	-1E+10	1	-1E+10	1	-1E+10	1
4901784	226	C	09/11/2021	10:48	-136.570	43.103	0	900.40	0	3.7410	0	38.0620	8	30.261	0	891.313	0	9.9	4	3.2	4	-1E+10	1	-1E+10	1	-1E+10	1	-1E+10	1	-1E+10	1	-1E+10	1
4901784	226	C	09/11/2021	10:48	-136.570	43.103	0	905.40	0	3.7320	0	38.0670	8	30.266	0	896.252	0	9.9	4	3.2	4	-1E+10	1	-1E+10	1	-1E+10	1	-1E+10	1	-1E+10	1	-1E+10	1
4901784	226	C	09/11/2021	10:48	-136.570	43.103	0	910.50	0	3.7150	0	38.0700	8	30.270	0	901.290	0	9.9	4	3.2	4	-1E+10	1	-1E+10	1	-1E+10	1	-1E+10	1	-1E+10	1	-1E+10	1
4901784	226	C	09/11/2021	10:48	-136.570	43.103	0	915.60	0	3.7050	0	38.0740	8	30.275	0	906.327	0	9.8	4	3.2	4	-1E+10	1	-1E+10	1	-1E+10	1	-1E+10	1	-1E+10	1	-1E+10	1
4901784	226	C	09/11/2021	10:48	-136.570	43.103	0	920.70	0	3.6990	0	38.0760	8	30.277	0	911.364	0	9.8	4	3.2	4	-1E+10	1	-1E+10	1	-1E+10	1	-1E+10	1	-1E+10	1	-1E+10	1
4901784	226	C	09/11/2021	10:48	-136.570	43.103	0	925.00	0	3.6890	0	38.0790	8	30.280	0	915.611	0	9.8	4	3.2	4	-1E+10	1	-1E+10	1	-1E+10	1	-1E+10	1	-1E+10	1	-1E+10	1
4901784	226	C	09/11/2021	10:48	-136.570	43.103	0	929.30	0	3.6770	0	38.0820	8	30.284	0	919.858	0	9.8	4	3.2	4	-1E+10	1	-1E+10	1	-1E+10	1	-1E+10	1	-1E+10	1	-1E+10	1
4901784	226	C	09/11/2021	10:48	-136.570	43.103	0	934.50	0	3.6690	0	38.0830	8	30.286	0	924.994	0	9.8	4	3.2	4	-1E+10	1	-1E+10	1	-1E+10	1	-1E+10	1	-1E+10	1	-1E+10	1
4901784	226	C	09/11/2021	10:48	-136.570	43.103	0	939.70	0	3.6560	0	38.0860	8	30.290	0	930.130	0	9.8	4	3.2	4	-1E+10	1	-1E+10	1	-1E+10	1	-1E+10	1	-1E+10	1	-1E+10	1
4901784	226	C	09/11/2021	10:48	-136.570	43.103	0	945.00	0	3.6490	0	38.0890	8	30.293	0	935.364	0	9.8	4	3.2	4	-1E+10	1	-1E+10	1	-1E+10	1	-1E+10	1	-1E+10	1	-1E+10	1
4901784	226	C	09/11/2021	10:48	-136.570	43.103	0	950.20	0	3.6450	0	38.0930	8	30.297	0	940.499	0	9.8	4	3.2	4	-1E+10	1	-1E+10	1	-1E+10	1	-1E+10	1	-1E+10	1	-1E+10	1
4901784	226	C	09/11/2021	10:48	-136.570	43.103	0	955.40	0	3.6450	0	38.0960	8	30.299	0	945.634	0	9.8	4	3.2	4	-1E+10	1	-1E+10	1	-1E+10	1	-1E+10	1	-1E+10	1	-1E+10	1
4901784	226	C	09/11/2021	10:48	-136.570	43.103	0	959.90	0	3.6390	0	38.0970	8	30.300	0	950.078	0	9.8	4	3.2	4	-1E+10	1	-1E+10	1	-1E+10	1	-1E+10	1	-1E+10	1	-1E+10	1
4901784	226	C	09/11/2021	10:48	-136.570	43.103	0	964.40	0	3.6210	0	38.0980	8	30.303	0	954.522	0	9.8	4	3.2	4	-1E+10	1	-1E+10	1	-1E+10	1	-1E+10	1	-1E+10	1	-1E+10	1
4901784	226	C	09/11/2021	10:48	-136.570	43.103	0	969.90	0	3.5840	0	38.1040	8	30.312	0	959.953	0	9.9	4	3.2	4	-1E+10	1	-1E+10	1	-1E+10	1	-1E+10	1	-1E+10	1	-1E+10	1
4901784	226	C	09/11/2021	10:48	-136.570	43.103	0	975.40	0	3.5710	0	38.1080	8	30.317	0	965.384	0	9.9	4	3.2	4	-1E+10	1	-1E+10	1	-1E+10	1	-1E+10	1	-1E+10	1	-1E+10	1
4901784	226	C	09/11/2021	10:48	-136.570	43.103	0	979.90	0	3.5570	0	38.1120	8	30.321	0	969.827	0	9.9	4	3.2	4	-1E+10	1	-1E+10	1	-1E+10	1	-1E+10	1	-1E+10	1	-1E+10	1
4901784	226	C	09/11/2021	10:48	-136.570	43.103	0	984.50	0	3.5500	0	38.1150	8	30.325	0	974.369	0	10.0	4	3.2	4	-1E+10	1	-1E+10	1	-1E+10	1	-1E+10	1	-1E+10	1	-1E+10	1
4901784	226	C	09/11/2021	10:48	-136.570	43.103	0	990.00	0	3.5440	0	38.1170	8	30.327	0	979.800	0	10.0	4	3.2	4	-1E+10	1	-1E+10	1	-1E+10	1	-1E+10	1	-1E+10	1	-1E+10	1
4901784	226	C	09/11/2021	10:48	-136.570	43.103	0	995.50	0	3.5270	0	38.1230	8	30.334	0	985.230	0	10.1	4	3.2	4	-1E+10	1	-1E+10	1	-1E+10	1	-1E+10	1	-1E+10	1	-1E+10	1
4901784	226	C	09/11/2021	10:48	-136.570	43.103	0	1000.20	0	3.5130	0	38.1270	8	30.338	0	989.870	0	10.1	4	3.3	4	-1E+10	1	-1E+10	1	-1E+10	1	-1E+10	1	-1E+10	1	-1E+10	1
4901784	226	C	09/11/2021	10:48	-136.570	43.103	0	1004.90	0	3.5080	0	38.1300	8	30.341	0	994.511	0	10.2	4	3.3	4	-1E+10	1	-1E+10	1	-1E+10	1	-1E+10	1	-1E+10	1	-1E+10	1
4901784	226	C	09/11/2021	10:48	-136.570	43.103	0	1009.70	0	3.4980	0	38.1320	8	30.344	0	999.250	0	10.2	4	3.3	4	-1E+10	1	-1E+10	1	-1E+10	1	-1E+10	1	-1E+10	1	-1E+10	1
4901784	226	C	09/11/2021	10:48	-136.570	43.103	0	1014.90	0	3.4820	0	38.1360	8	30.349	0	1004.383	0	10.3	4	3.3	4	-1E+10	1	-1E+10	1	-1E+10	1	-1E+10	1	-1E+10	1	-1E+10	1
4901784	226	C	09/11/2021	10:48	-136.570	43.103	0	1020.50	0	3.4650	0	38.1400	8	30.354	0	1009.912	0	10.3	4	3.3	4	-1E+10	1	-1E+10	1	-1E+10	1	-1E+10	1	-1E+10	1	-1E+10	1
4901784	226	C	09/11/2021	10:48	-136.570	43.103	0	1025.30	0	3.4530	0	38.1430	8	30.358	0	1014.651	0	10.4	4	3.3	4	-1E+10	1	-1E+10	1	-1E+10	1	-1E+10	1	-1E+10	1	-1E+10	1
4901784	226	C	09/11/2021	10:48	-136.570	43.103	0	1030.20	0	3.4420	0	38.1460	8	30.361	0	1019.488	0	10.4	4	3.4	4	-1E+10	1	-1E+10	1	-1E+10	1	-1E+10	1	-1E+10	1	-1E+10	1
4901784	226	C	09/11/2021	10:48	-136.570	43.103	0	1035.10	0	3.4340	0	38.1480	8	30.364	0	1024.325	0	10.5	4	3.4	4	-1E+10	1	-1E+10	1	-1E+10	1	-1E+10	1	-1E+10	1	-1E+10	1
4901784	226	C	09/11/2021	10:48	-136.570	43.103	0	1040.00	0	3.4210	0	38.1500	8	30.367	0	1029.162	0	10.5	4	3.4	4	-1E+10	1	-1E+10	1	-1E+10	1	-1E+10	1	-1E+10	1	-1E+10	1
4901784	226	C	09/11/2021	10:48	-136.570	43.103	0	1044.80	0	3.4080	0	38.1530	8	30.370	0	1033.900	0	10.6	4	3.4	4	-1E+10	1	-1E+10	1	-1E+10	1	-1E+10	1	-1E+10	1	-1E+10	1
4901784	226	C	09/11/2021	10:48	-136.570	43.103	0	1049.80	0	3.4010	0	38.1560	8	30.374	0	1038.835	0	10.7	4	3.4	4	-1E+10	1	-1E+10	1	-1E+10	1	-1E+10	1	-1E+10	1	-1E+10	1
4901784	226	C	09/11/2021	10:48	-136.570	43.103	0	1054.80	0	3.3910	0	38.1590	8	30.377	0	1043.771	0	10.8	4	3.4	4	-1E+10	1	-1E+10	1	-1E+10	1	-1E+10	1	-1E+10	1	-1E+10	1
4901784	226	C	09/11/2021	10:48	-136.570	43.103	0	1059.70	0	3.3800	0	38.1610	8	30.380	0	1048.607	0	10.8	4	3.5	4	-1E+10	1	-1E+10	1	-1E+10	1	-1E+10	1	-1E+10	1	-1E+10	1
4901784	226	C	09/11/2021	10:48	-136.570	43.103	0	1064.70	0	3.3690	0	38.1640	8	30.383	0	1053.542	0	10.9	4	3.5	4	-1E+10	1	-1E+10	1	-1E+10	1	-1E+10	1	-1E+10	1	-1E+10	1
4901784	226	C	09/11/2021	10:48	-136.570	43.103	0	1069.70	0	3.3610	0	38.1650	8	30.385	0	1058.477	0	10.9	4	3.5	4	-1E+10	1	-1E+10	1	-1E+10	1	-1E+10	1	-1E+10	1	-1E+10	1
4901784	226	C	09/11/2021	10:48	-136.570	43.103	0	1074.70	0	3.3490	0	38.1700	8	30.390	0	1063.412	0	11.0	4	3.5	4	-1E+10	1	-1E+10	1	-1E+10	1	-1E+10	1	-1E+10	1	-1E+10	1
4901784	226	C	09/11/2021	10:48	-136.570	43.103	0	1079.70	0	3.3470	0	38.1710	8	30.392	0	1068.347	0	11.1	4	3.5	4	-1E+10	1	-1E+10	1	-1E+10	1	-1E+10	1	-1E+10	1	-1E+10	1
4901784	226	C	09/11/2021	10:48	-136.570	43.103	0	1084.70	0	3.3400	0	38.1720	8	30.393	0	1073.282	0	11.2	4	3.6	4	-1E+10	1	-1E+10	1	-1E+10	1	-1E+10	1	-1E+10	1	-1E+10	1
4901784	226	C	09/11/2021	10:48	-136.570	43.103	0	1089.70	0	3.3300	0	38.1750	8	30.397	0	1078.216	0	11.2	4	3.6	4	-1E+10	1	-1E+10	1	-1E+10	1	-1E+10	1	-1E+10	1	-1E+10	1
4901784	226	C	09/11/2021	10:48	-136.570	43.103	0	1094.80	0	3.3210	0	38.1780	8	30.400	0	1083.249	0	11.3	4	3.6	4	-1E+10	1	-1E+10	1	-1E+10	1	-1E+10	1	-1E+10	1	-1E+10	1
4901784	226	C	09/11/2021	10:48	-136.570	43.103	0	1099.80	0	3.3120	0	38.1800	8	30.403	0	1088.184	0	11.4	4	3.7	4	-1E+10	1	-1E+10	1	-1E+10	1	-1E+10	1	-1E+10	1	-1E+10	1
4901784	226	C	09/11/2021	10:48	-136.570	43.103	0	1104.90	0	3.3010	0	38.1830	8	30.406	0	1093.216	0	11.6	4	3.7	4	-1E+10	1	-1E+10	1	-1E+10	1	-1E+10	1	-1E+10	1	-1E+10	1
4901784	226	C	09/11/2021	10:48	-136.570	43.103	0	1110.40	0	3.2900	0	38.1860	8	30.410	0	1098.644	0	11.7	4	3.7	4	-1E+10	1	-1E+10	1	-1E+10	1	-1E+10	1	-1E+10	1	-1E+10	1
4901784	226	C	09/11/2021	10:48	-136.570	43.103	0	1115.10	0	3.2820	0	38.1880	8	30.412	0	1103.282	0	11.8	4	3.8	4	-1E+10	1	-1E+10	1	-1E+10	1	-1E+10	1	-1E+10	1	-1E+10	1
4901784	226	C	09/11/2021	10:48	-136.570	43.103	0	1119.70	0	3.2700	0	38.1910	8	30.416	0	1107.821	0	11.9	4	3.8	4	-1E+10	1	-1E+10	1	-1E+10	1	-1E+10	1	-1E+10	1	-1E+10	1
4901784	226	C	09/11/2021	10:48	-136.570	43.103	0	1125.30	0	3.2590	0	38.1940	8	30.419	0	1113.347	0	12.0	4	3.8	4	-1E+10	1	-1E+10	1	-1E+10	1	-1E+10	1	-1E+10	1	-1E+10	1
4901784	226	C	09/11/2021	10:48	-136.570	43.103	0	1130.00	0	3.2480	0	38.1960	8	30.422	0	1117.984	0	12.1	4	3.9	4	-1E+10	1	-1E+10	1	-1E+10	1	-1E+10	1	-1E+10	1	-1E+10	1
4901784	226	C	09/11/2021	10:48	-136.570	43.103	0	1134.70	0	3.2390	0	38.1980	8	30.425	0	1122.622	0	12.1	4	3.9	4	-1E+10	1	-1E+10	1	-1E+10	1	-1E+10	1	-1E+10	1	-1E+10	1
4901784	226	C	09/11/2021	10:48	-136.570	43.103	0	1140.20	0	3.2280	0	38.2000	8	30.428	0	1128.048	0	12.2	4	3.9	4	-1E+10	1	-1E+10	1	-1E+10	1	-1E+10	1	-1E+10	1	-1E+10	1
4901784	226	C	09/11/2021	10:48	-136.570	43.103	0	1144.90	0	3.2230	0	38.2010	8	30.429	0	1132.686	0	12.3	4	3.9	4	-1E+10	1	-1E+10	1	-1E+10	1	-1E+10	1	-1E+10	1	-1E+10	1
4901784	226	C	09/11/2021	10:48	-136.570	43.103	0	1149.60	0	3.2060	0	38.2050	8	30.434	0	1137.323	0	12.5	4	4.0	4	-1E+10	1	-1E+10	1	-1E+10	1	-1E+10	1	-1E+10	1	-1E+10	1
4901784	226	C	09/11/2021	10:48	-136.570	43.103	0	1155.30	0	3.1920	0	38.2080	8	30.438	0	1142.946	0	12.6	4	4.0	4	-1E+10	1	-1E+10	1	-1E+10	1	-1E+10	1	-1E+10	1	-1E+10	1
4901784	226	C	09/11/2021	10:48	-136.570	43.103	0	1160.00	0	3.1810	0	38.2110	8	30.441	0	1147.583	0	12.7	4	4.1	4	-1E+10	1	-1E+10	1	-1E+10	1	-1E+10	1	-1E+10	1	-1E+10	1
4901784	226	C	09/11/2021	10:48	-136.570	43.103	0	1164.80	0	3.1750	0	38.2130	8	30.444	0	1152.319	0	12.8	4	4.1	4	-1E+10	1	-1E+10	1	-1E+10	1	-1E+10	1	-1E+10	1	-1E+10	1
4901784	226	C	09/11/2021	10:48	-136.570	43.103	0	1170.50	0	3.1660	0	38.2140	8	30.445	0	1157.942	0	13.0	4	4.1	4	-1E+10	1	-1E+10	1	-1E+10	1	-1E+10	1	-1E+10	1	-1E+10	1
4901784	226	C	09/11/2021	10:48	-136.570	43.103	0	1175.20	0	3.1570	0	38.2170	8	30.449	0	1162.579	0	13.1	4	4.2	4	-1E+10	1	-1E+10	1	-1E+10	1	-1E+10	1	-1E+10	1	-1E+10	1
4901784	226	C	09/11/2021	10:48	-136.570	43.103	0	1180.00	0	3.1460	0	38.2190	8	30.451	0	1167.314	0	13.2	4	4.2	4	-1E+10	1	-1E+10	1	-1E+10	1	-1E+10	1	-1E+10	1	-1E+10	1
4901784	226	C	09/11/2021	10:48	-136.570	43.103	0	1184.80	0	3.1330	0	38.2220	8	30.455	0	1172.049	0	13.4	4	4.3	4	-1E+10	1	-1E+10	1	-1E+10	1	-1E+10	1	-1E+10	1	-1E+10	1
4901784	226	C	09/11/2021	10:48	-136.570	43.103	0	1189.70	0	3.1240	0	38.2230	8	30.457	0	1176.882	0	13.5	4	4.3	4	-1E+10	1	-1E+10	1	-1E+10	1	-1E+10	1	-1E+10	1	-1E+10	1
4901784	226	C	09/11/2021	10:48	-136.570	43.103	0	1195.50	0	3.1130	0	38.2250	8	30.460	0	1182.603	0	13.7	4	4.4	4	-1E+10	1	-1E+10	1	-1E+10	1	-1E+10	1	-1E+10	1	-1E+10	1
4901784	226	C	09/11/2021	10:48	-136.570	43.103	0	1200.40	0	3.1010	0	38.2280	8	30.463	0	1187.437	0	13.8	4	4.4	4	-1E+10	1	-1E+10	1	-1E+10	1	-1E+10	1	-1E+10	1	-1E+10	1
4901784	226	C	09/11/2021	10:48	-136.570	43.103	0	1205.40	0	3.0900	0	38.2310	8	30.467	0	1192.369	0	14.0	4	4.5	4	-1E+10	1	-1E+10	1	-1E+10	1	-1E+10	1	-1E+10	1	-1E+10	1
4901784	226	C	09/11/2021	10:48	-136.570	43.103	0	1210.40	0	3.0740	0	38.2340	8	30.471	0	1197.300	0	14.3	4	4.5	4	-1E+10	1	-1E+10	1	-1E+10	1	-1E+10	1	-1E+10	1	-1E+10	1
4901784	226	C	09/11/2021	10:48	-136.570	43.103	0	1215.50	0	3.0590	0	38.2370	8	30.475	0	1202.331	0	14.4	4	4.6	4	-1E+10	1	-1E+10	1	-1E+10	1	-1E+10	1	-1E+10	1	-1E+10	1
4901784	226	C	09/11/2021	10:48	-136.570	43.103	0	1220.50	0	3.0520	0	38.2390	8	30.477	0	1207.262	0	14.5	4	4.6	4	-1E+10	1	-1E+10	1	-1E+10	1	-1E+10	1	-1E+10	1	-1E+10	1
4901784	226	C	09/11/2021	10:48	-136.570	43.103	0	1224.60	0	3.0430	0	38.2410	8	30.480	0	1211.306	0	14.7	4	4.7	4	-1E+10	1	-1E+10	1	-1E+10	1	-1E+10	1	-1E+10	1	-1E+10	1
4901784	226	C	09/11/2021	10:48	-136.570	43.103	0	1229.70	0	3.0310	0	38.2430	8	30.483	0	1216.336	0	14.8	4	4.7	4	-1E+10	1	-1E+10	1	-1E+10	1	-1E+10	1	-1E+10	1	-1E+10	1
4901784	226	C	09/11/2021	10:48	-136.570	43.103	0	1234.80	0	3.0250	0	38.2450	8	30.485	0	1221.366	0	14.9	4	4.8	4	-1E+10	1	-1E+10	1	-1E+10	1	-1E+10	1	-1E+10	1	-1E+10	1
4901784	226	C	09/11/2021	10:48	-136.570	43.103	0	1239.80	0	3.0160	0	38.2460	8	30.487	0	1226.297	0	15.1	4	4.8	4	-1E+10	1	-1E+10	1	-1E+10	1	-1E+10	1	-1E+10	1	-1E+10	1
4901784	226	C	09/11/2021	10:48	-136.570	43.103	0	1244.60	0	3.0020	0	38.2490	8	30.490	0	1231.030	0	15.2	4	4.8	4	-1E+10	1	-1E+10	1	-1E+10	1	-1E+10	1	-1E+10	1	-1E+10	1
4901784	226	C	09/11/2021	10:48	-136.570	43.103	0	1249.20	0	2.9960	0	38.2500	8	30.492	0	1235.566	0	15.4	4	4.9	4	-1E+10	1	-1E+10	1	-1E+10	1	-1E+10	1	-1E+10	1	-1E+10	1
4901784	226	C	09/11/2021	10:48	-136.570	43.103	0	1254.60	0	2.9780	0	38.2530	8	30.496	0	1240.892	0	15.6	4	5.0	4	-1E+10	1	-1E+10	1	-1E+10	1	-1E+10	1	-1E+10	1	-1E+10	1
4901784	226	C	09/11/2021	10:48	-136.570	43.103	0	1259.50	0	2.9640	0	38.2560	8	30.500	0	1245.724	0	15.8	4	5.0	4	-1E+10	1	-1E+10	1	-1E+10	1	-1E+10	1	-1E+10	1	-1E+10	1
4901784	226	C	09/11/2021	10:48	-136.570	43.103	0	1264.40	0	2.9510	0	38.2580	8	30.503	0	1250.556	0	16.0	4	5.1	4	-1E+10	1	-1E+10	1	-1E+10	1	-1E+10	1	-1E+10	1	-1E+10	1
4901784	226	C	09/11/2021	10:48	-136.570	43.103	0	1269.30	0	2.9400	0	38.2600	8	30.506	0	1255.387	0	16.1	4	5.1	4	-1E+10	1	-1E+10	1	-1E+10	1	-1E+10	1	-1E+10	1	-1E+10	1
4901784	226	C	09/11/2021	10:48	-136.570	43.103	0	1274.30	0	2.9300	0	38.2630	8	30.509	0	1260.318	0	16.3	4	5.2	4	-1E+10	1	-1E+10	1	-1E+10	1	-1E+10	1	-1E+10	1	-1E+10	1
4901784	226	C	09/11/2021	10:48	-136.570	43.103	0	1279.30	0	2.9220	0	38.2640	8	30.511	0	1265.248	0	16.5	4	5.2	4	-1E+10	1	-1E+10	1	-1E+10	1	-1E+10	1	-1E+10	1	-1E+10	1
4901784	226	C	09/11/2021	10:48	-136.570	43.103	0	1284.30	0	2.9090	0	38.2660	8	30.514	0	1270.178	0	16.7	4	5.3	4	-1E+10	1	-1E+10	1	-1E+10	1	-1E+10	1	-1E+10	1	-1E+10	1
4901784	226	C	09/11/2021	10:48	-136.570	43.103	0	1289.40	0	2.8970	0	38.2690	8	30.517	0	1275.206	0	16.9	4	5.4	4	-1E+10	1	-1E+10	1	-1E+10	1	-1E+10	1	-1E+10	1	-1E+10	1
4901784	226	C	09/11/2021	10:48	-136.570	43.103	0	1294.40	0	2.8890	0	38.2710	8	30.520	0	1280.136	0	17.1	4	5.4	4	-1E+10	1	-1E+10	1	-1E+10	1	-1E+10	1	-1E+10	1	-1E+10	1
4901784	226	C	09/11/2021	10:48	-136.570	43.103	0	1299.50	0	2.8810	0	38.2730	8	30.522	0	1285.164	0	17.2	4	5.5	4	-1E+10	1	-1E+10	1	-1E+10	1	-1E+10	1	-1E+10	1	-1E+10	1
4901784	226	C	09/11/2021	10:48	-136.570	43.103	0	1304.60	0	2.8720	0	38.2740	8	30.524	0	1290.192	0	17.4	4	5.5	4	-1E+10	1	-1E+10	1	-1E+10	1	-1E+10	1	-1E+10	1	-1E+10	1
4901784	226	C	09/11/2021	10:48	-136.570	43.103	0	1309.70	0	2.8650	0	38.2760	8	30.526	0	1295.220	0	17.6	4	5.6	4	-1E+10	1	-1E+10	1	-1E+10	1	-1E+10	1	-1E+10	1	-1E+10	1
4901784	226	C	09/11/2021	10:48	-136.570	43.103	0	1314.90	0	2.8560	0	38.2780	8	30.529	0	1300.347	0	17.8	4	5.6	4	-1E+10	1	-1E+10	1	-1E+10	1	-1E+10	1	-1E+10	1	-1E+10	1
4901784	226	C	09/11/2021	10:48	-136.570	43.103	0	1320.10	0	2.8480	0	38.2790	8	30.530	0	1305.473	0	18.0	4	5.7	4	-1E+10	1	-1E+10	1	-1E+10	1	-1E+10	1	-1E+10	1	-1E+10	1
4901784	226	C	09/11/2021	10:48	-136.570	43.103	0	1325.30	0	2.8400	0	38.2810	8	30.533	0	1310.599	0	18.2	4	5.8	4	-1E+10	1	-1E+10	1	-1E+10	1	-1E+10	1	-1E+10	1	-1E+10	1
4901784	226	C	09/11/2021	10:48	-136.570	43.103	0	1330.50	0	2.8280	0	38.2830	8	30.536	0	1315.725	0	18.4	4	5.8	4	-1E+10	1	-1E+10	1	-1E+10	1	-1E+10	1	-1E+10	1	-1E+10	1
4901784	226	C	09/11/2021	10:48	-136.570	43.103	0	1334.90	0	2.8230	0	38.2850	8	30.538	0	1320.063	0	18.5	4	5.9	4	-1E+10	1	-1E+10	1	-1E+10	1	-1E+10	1	-1E+10	1	-1E+10	1
4901784	226	C	09/11/2021	10:48	-136.570	43.103	0	1339.30	0	2.8190	0	38.2850	8	30.538	0	1324.400	0	18.6	4	5.9	4	-1E+10	1	-1E+10	1	-1E+10	1	-1E+10	1	-1E+10	1	-1E+10	1
4901784	226	C	09/11/2021	10:48	-136.570	43.103	0	1344.50	0	2.8090	0	38.2870	8	30.541	0	1329.526	0	18.9	4	6.0	4	-1E+10	1	-1E+10	1	-1E+10	1	-1E+10	1	-1E+10	1	-1E+10	1
4901784	226	C	09/11/2021	10:48	-136.570	43.103	0	1349.90	0	2.8000	0	38.2890	8	30.543	0	1334.849	0	19.0	4	6.0	4	-1E+10	1	-1E+10	1	-1E+10	1	-1E+10	1	-1E+10	1	-1E+10	1
4901784	226	C	09/11/2021	10:48	-136.570	43.103	0	1355.20	0	2.7960	0	38.2900	8	30.545	0	1340.073	0	19.2	4	6.1	4	-1E+10	1	-1E+10	1	-1E+10	1	-1E+10	1	-1E+10	1	-1E+10	1
4901784	226	C	09/11/2021	10:48	-136.570	43.103	0	1360.60	0	2.7870	0	38.2920	8	30.547	0	1345.395	0	19.4	4	6.1	4	-1E+10	1	-1E+10	1	-1E+10	1	-1E+10	1	-1E+10	1	-1E+10	1
4901784	226	C	09/11/2021	10:48	-136.570	43.103	0	1365.10	0	2.7820	0	38.2930	8	30.548	0	1349.830	0	19.6	4	6.2	4	-1E+10	1	-1E+10	1	-1E+10	1	-1E+10	1	-1E+10	1	-1E+10	1
4901784	226	C	09/11/2021	10:48	-136.570	43.103	0	1369.60	0	2.7710	0	38.2950	8	30.551	0	1354.266	0	19.9	4	6.3	4	-1E+10	1	-1E+10	1	-1E+10	1	-1E+10	1	-1E+10	1	-1E+10	1
4901784	226	C	09/11/2021	10:48	-136.570	43.103	0	1375.00	0	2.7580	0	38.2980	8	30.555	0	1359.588	0	20.2	4	6.4	4	-1E+10	1	-1E+10	1	-1E+10	1	-1E+10	1	-1E+10	1	-1E+10	1
4901784	226	C	09/11/2021	10:48	-136.570	43.103	0	1380.50	0	2.7490	0	38.2990	8	30.557	0	1365.008	0	20.4	4	6.5	4	-1E+10	1	-1E+10	1	-1E+10	1	-1E+10	1	-1E+10	1	-1E+10	1
4901784	226	C	09/11/2021	10:48	-136.570	43.103	0	1385.00	0	2.7390	0	38.3020	8	30.560	0	1369.443	0	20.6	4	6.5	4	-1E+10	1	-1E+10	1	-1E+10	1	-1E+10	1	-1E+10	1	-1E+10	1
4901784	226	C	09/11/2021	10:48	-136.570	43.103	0	1389.60	0	2.7330	0	38.3030	8	30.561	0	1373.977	0	20.8	4	6.6	4	-1E+10	1	-1E+10	1	-1E+10	1	-1E+10	1	-1E+10	1	-1E+10	1
4901784	226	C	09/11/2021	10:48	-136.570	43.103	0	1395.20	0	2.7240	0	38.3050	8	30.564	0	1379.495	0	21.0	4	6.6	4	-1E+10	1	-1E+10	1	-1E+10	1	-1E+10	1	-1E+10	1	-1E+10	1
4901784	226	C	09/11/2021	10:48	-136.570	43.103	0	1399.80	0	2.7170	0	38.3060	8	30.565	0	1384.029	0	21.2	4	6.7	4	-1E+10	1	-1E+10	1	-1E+10	1	-1E+10	1	-1E+10	1	-1E+10	1
4901784	226	C	09/11/2021	10:48	-136.570	43.103	0	1404.70	0	2.7090	0	38.3070	8	30.567	0	1388.857	0	21.4	4	6.8	4	-1E+10	1	-1E+10	1	-1E+10	1	-1E+10	1	-1E+10	1	-1E+10	1
4901784	226	C	09/11/2021	10:48	-136.570	43.103	0	1409.90	0	2.6970	0	38.3100	8	30.571	0	1393.981	0	21.7	4	6.8	4	-1E+10	1	-1E+10	1	-1E+10	1	-1E+10	1	-1E+10	1	-1E+10	1
4901784	226	C	09/11/2021	10:48	-136.570	43.103	0	1414.80	0	2.6890	0	38.3120	8	30.573	0	1398.810	0	21.9	4	6.9	4	-1E+10	1	-1E+10	1	-1E+10	1	-1E+10	1	-1E+10	1	-1E+10	1
4901784	226	C	09/11/2021	10:48	-136.570	43.103	0	1419.60	0	2.6840	0	38.3130	8	30.574	0	1403.540	0	22.0	4	7.0	4	-1E+10	1	-1E+10	1	-1E+10	1	-1E+10	1	-1E+10	1	-1E+10	1
4901784	226	C	09/11/2021	10:48	-136.570	43.103	0	1424.50	0	2.6770	0	38.3140	8	30.576	0	1408.368	0	22.2	4	7.0	4	-1E+10	1	-1E+10	1	-1E+10	1	-1E+10	1	-1E+10	1	-1E+10	1
4901784	226	C	09/11/2021	10:48	-136.570	43.103	0	1429.40	0	2.6720	0	38.3150	8	30.577	0	1413.196	0	22.4	4	7.1	4	-1E+10	1	-1E+10	1	-1E+10	1	-1E+10	1	-1E+10	1	-1E+10	1
4901784	226	C	09/11/2021	10:48	-136.570	43.103	0	1434.40	0	2.6640	0	38.3170	8	30.580	0	1418.123	0	22.7	4	7.2	4	-1E+10	1	-1E+10	1	-1E+10	1	-1E+10	1	-1E+10	1	-1E+10	1
4901784	226	C	09/11/2021	10:48	-136.570	43.103	0	1439.40	0	2.6540	0	38.3180	8	30.581	0	1423.049	0	23.0	4	7.2	4	-1E+10	1	-1E+10	1	-1E+10	1	-1E+10	1	-1E+10	1	-1E+10	1
4901784	226	C	09/11/2021	10:48	-136.570	43.103	0	1444.40	0	2.6450	0	38.3200	8	30.584	0	1427.975	0	23.2	4	7.3	4	-1E+10	1	-1E+10	1	-1E+10	1	-1E+10	1	-1E+10	1	-1E+10	1
4901784	226	C	09/11/2021	10:48	-136.570	43.103	0	1449.40	0	2.6370	0	38.3220	8	30.586	0	1432.901	0	23.5	4	7.4	4	-1E+10	1	-1E+10	1	-1E+10	1	-1E+10	1	-1E+10	1	-1E+10	1
4901784	226	C	09/11/2021	10:48	-136.570	43.103	0	1454.50	0	2.6290	0	38.3230	8	30.588	0	1437.926	0	23.7	4	7.5	4	-1E+10	1	-1E+10	1	-1E+10	1	-1E+10	1	-1E+10	1	-1E+10	1
4901784	226	C	09/11/2021	10:48	-136.570	43.103	0	1459.50	0	2.6210	0	38.3250	8	30.590	0	1442.852	0	23.9	4	7.5	4	-1E+10	1	-1E+10	1	-1E+10	1	-1E+10	1	-1E+10	1	-1E+10	1
4901784	226	C	09/11/2021	10:48	-136.570	43.103	0	1464.70	0	2.6140	0	38.3260	8	30.592	0	1447.975	0	24.2	4	7.6	4	-1E+10	1	-1E+10	1	-1E+10	1	-1E+10	1	-1E+10	1	-1E+10	1
4901784	226	C	09/11/2021	10:48	-136.570	43.103	0	1469.80	0	2.6040	0	38.3280	8	30.594	0	1452.999	0	24.4	4	7.7	4	-1E+10	1	-1E+10	1	-1E+10	1	-1E+10	1	-1E+10	1	-1E+10	1
4901784	226	C	09/11/2021	10:48	-136.570	43.103	0	1475.00	0	2.5960	0	38.3300	8	30.597	0	1458.122	0	24.7	4	7.8	4	-1E+10	1	-1E+10	1	-1E+10	1	-1E+10	1	-1E+10	1	-1E+10	1
4901784	226	C	09/11/2021	10:48	-136.570	43.103	0	1480.30	0	2.5870	0	38.3310	8	30.598	0	1463.343	0	25.0	4	7.9	4	-1E+10	1	-1E+10	1	-1E+10	1	-1E+10	1	-1E+10	1	-1E+10	1
4901784	226	C	09/11/2021	10:48	-136.570	43.103	0	1485.60	0	2.5760	0	38.3330	8	30.601	0	1468.564	0	25.3	4	8.0	4	-1E+10	1	-1E+10	1	-1E+10	1	-1E+10	1	-1E+10	1	-1E+10	1
4901784	226	C	09/11/2021	10:48	-136.570	43.103	0	1490.00	0	2.5650	0	38.3350	8	30.604	0	1472.898	0	25.6	4	8.1	4	-1E+10	1	-1E+10	1	-1E+10	1	-1E+10	1	-1E+10	1	-1E+10	1
4901784	226	C	09/11/2021	10:48	-136.570	43.103	0	1494.40	0	2.5580	0	38.3360	8	30.605	0	1477.232	0	25.9	4	8.1	4	-1E+10	1	-1E+10	1	-1E+10	1	-1E+10	1	-1E+10	1	-1E+10	1
4901784	226	C	09/11/2021	10:48	-136.570	43.103	0	1499.70	0	2.5460	0	38.3380	8	30.608	0	1482.452	0	26.2	4	8.2	4	-1E+10	1	-1E+10	1	-1E+10	1	-1E+10	1	-1E+10	1	-1E+10	1
4901784	226	C	09/11/2021	10:48	-136.570	43.103	0	1505.10	0	2.5350	0	38.3400	8	30.611	0	1487.771	0	26.5	4	8.3	4	-1E+10	1	-1E+10	1	-1E+10	1	-1E+10	1	-1E+10	1	-1E+10	1
4901784	226	C	09/11/2021	10:48	-136.570	43.103	0	1510.50	0	2.5270	0	38.3410	8	30.612	0	1493.090	0	26.7	4	8.4	4	-1E+10	1	-1E+10	1	-1E+10	1	-1E+10	1	-1E+10	1	-1E+10	1
4901784	226	C	09/11/2021	10:48	-136.570	43.103	0	1515.00	0	2.5180	0	38.3430	8	30.615	0	1497.522	0	27.0	4	8.5	4	-1E+10	1	-1E+10	1	-1E+10	1	-1E+10	1	-1E+10	1	-1E+10	1
4901784	226	C	09/11/2021	10:48	-136.570	43.103	0	1519.40	0	2.5110	0	38.3430	8	30.616	0	1501.856	0	27.3	4	8.6	4	-1E+10	1	-1E+10	1	-1E+10	1	-1E+10	1	-1E+10	1	-1E+10	1
4901784	226	C	09/11/2021	10:48	-136.570	43.103	0	1524.90	0	2.5020	0	38.3450	8	30.618	0	1507.273	0	27.6	4	8.7	4	-1E+10	1	-1E+10	1	-1E+10	1	-1E+10	1	-1E+10	1	-1E+10	1
4901784	226	C	09/11/2021	10:48	-136.570	43.103	0	1530.30	0	2.4920	0	38.3470	8	30.621	0	1512.591	0	28.0	4	8.8	4	-1E+10	1	-1E+10	1	-1E+10	1	-1E+10	1	-1E+10	1	-1E+10	1
4901784	226	C	09/11/2021	10:48	-136.570	43.103	0	1534.90	0	2.4840	0	38.3490	8	30.623	0	1517.121	0	28.3	4	8.9	4	-1E+10	1	-1E+10	1	-1E+10	1	-1E+10	1	-1E+10	1	-1E+10	1
4901784	226	C	09/11/2021	10:48	-136.570	43.103	0	1539.50	0	2.4710	0	38.3500	8	30.625	0	1521.652	0	28.7	4	9.0	4	-1E+10	1	-1E+10	1	-1E+10	1	-1E+10	1	-1E+10	1	-1E+10	1
4901784	226	C	09/11/2021	10:48	-136.570	43.103	0	1545.00	0	2.4610	0	38.3530	8	30.628	0	1527.068	0	29.0	4	9.1	4	-1E+10	1	-1E+10	1	-1E+10	1	-1E+10	1	-1E+10	1	-1E+10	1
4901784	226	C	09/11/2021	10:48	-136.570	43.103	0	1550.20	0	2.4530	0	38.3540	8	30.630	0	1532.189	0	29.2	4	9.2	4	-1E+10	1	-1E+10	1	-1E+10	1	-1E+10	1	-1E+10	1	-1E+10	1
4901784	226	C	09/11/2021	10:48	-136.570	43.103	0	1554.40	0	2.4450	0	38.3550	8	30.632	0	1536.325	0	29.5	4	9.3	4	-1E+10	1	-1E+10	1	-1E+10	1	-1E+10	1	-1E+10	1	-1E+10	1
4901784	226	C	09/11/2021	10:48	-136.570	43.103	0	1559.20	0	2.4370	0	38.3560	8	30.633	0	1541.051	0	29.8	4	9.4	4	-1E+10	1	-1E+10	1	-1E+10	1	-1E+10	1	-1E+10	1	-1E+10	1
4901784	226	C	09/11/2021	10:48	-136.570	43.103	0	1565.00	0	2.4230	0	38.3590	8	30.637	0	1546.763	0	30.3	4	9.5	4	-1E+10	1	-1E+10	1	-1E+10	1	-1E+10	1	-1E+10	1	-1E+10	1
4901784	226	C	09/11/2021	10:48	-136.570	43.103	0	1570.70	0	2.4130	0	38.3610	8	30.640	0	1552.375	0	30.6	4	9.6	4	-1E+10	1	-1E+10	1	-1E+10	1	-1E+10	1	-1E+10	1	-1E+10	1
4901784	226	C	09/11/2021	10:48	-136.570	43.103	0	1575.60	0	2.4040	0	38.3620	8	30.641	0	1557.200	0	31.0	4	9.7	4	-1E+10	1	-1E+10	1	-1E+10	1	-1E+10	1	-1E+10	1	-1E+10	1
4901784	226	C	09/11/2021	10:48	-136.570	43.103	0	1580.60	0	2.3950	0	38.3640	8	30.644	0	1562.123	0	31.4	4	9.8	4	-1E+10	1	-1E+10	1	-1E+10	1	-1E+10	1	-1E+10	1	-1E+10	1
4901784	226	C	09/11/2021	10:48	-136.570	43.103	0	1585.60	0	2.3860	0	38.3650	8	30.645	0	1567.046	0	31.7	4	9.9	4	-1E+10	1	-1E+10	1	-1E+10	1	-1E+10	1	-1E+10	1	-1E+10	1
4901784	226	C	09/11/2021	10:48	-136.570	43.103	0	1590.60	0	2.3790	0	38.3670	8	30.648	0	1571.969	0	32.1	4	10.0	4	-1E+10	1	-1E+10	1	-1E+10	1	-1E+10	1	-1E+10	1	-1E+10	1
4901784	226	C	09/11/2021	10:48	-136.570	43.103	0	1595.60	0	2.3690	0	38.3690	8	30.650	0	1576.892	0	32.4	4	10.1	4	-1E+10	1	-1E+10	1	-1E+10	1	-1E+10	1	-1E+10	1	-1E+10	1
4901784	226	C	09/11/2021	10:48	-136.570	43.103	0	1600.60	0	2.3610	0	38.3710	8	30.653	0	1581.815	0	32.7	4	10.2	4	-1E+10	1	-1E+10	1	-1E+10	1	-1E+10	1	-1E+10	1	-1E+10	1
4901784	226	C	09/11/2021	10:48	-136.570	43.103	0	1604.90	0	2.3550	0	38.3720	8	30.654	0	1586.048	0	32.9	4	10.3	4	-1E+10	1	-1E+10	1	-1E+10	1	-1E+10	1	-1E+10	1	-1E+10	1
4901784	226	C	09/11/2021	10:48	-136.570	43.103	0	1609.20	0	2.3500	0	38.3730	8	30.655	0	1590.282	0	33.1	4	10.4	4	-1E+10	1	-1E+10	1	-1E+10	1	-1E+10	1	-1E+10	1	-1E+10	1
4901784	226	C	09/11/2021	10:48	-136.570	43.103	0	1614.40	0	2.3420	0	38.3750	8	30.658	0	1595.401	0	33.5	4	10.5	4	-1E+10	1	-1E+10	1	-1E+10	1	-1E+10	1	-1E+10	1	-1E+10	1
4901784	226	C	09/11/2021	10:48	-136.570	43.103	0	1619.50	0	2.3380	0	38.3750	8	30.658	0	1600.422	0	33.8	4	10.6	4	-1E+10	1	-1E+10	1	-1E+10	1	-1E+10	1	-1E+10	1	-1E+10	1
4901784	226	C	09/11/2021	10:48	-136.570	43.103	0	1624.70	0	2.3300	0	38.3770	8	30.660	0	1605.541	0	34.2	4	10.7	4	-1E+10	1	-1E+10	1	-1E+10	1	-1E+10	1	-1E+10	1	-1E+10	1
4901784	226	C	09/11/2021	10:48	-136.570	43.103	0	1629.90	0	2.3220	0	38.3790	8	30.663	0	1610.660	0	34.5	4	10.8	4	-1E+10	1	-1E+10	1	-1E+10	1	-1E+10	1	-1E+10	1	-1E+10	1
4901784	226	C	09/11/2021	10:48	-136.570	43.103	0	1635.20	0	2.3150	0	38.3800	8	30.664	0	1615.877	0	34.8	4	10.9	4	-1E+10	1	-1E+10	1	-1E+10	1	-1E+10	1	-1E+10	1	-1E+10	1
4901784	226	C	09/11/2021	10:48	-136.570	43.103	0	1640.50	0	2.3070	0	38.3820	8	30.667	0	1621.094	0	35.1	4	11.0	4	-1E+10	1	-1E+10	1	-1E+10	1	-1E+10	1	-1E+10	1	-1E+10	1
4901784	226	C	09/11/2021	10:48	-136.570	43.103	0	1644.90	0	2.3030	0	38.3830	8	30.668	0	1625.425	0	35.3	4	11.0	4	-1E+10	1	-1E+10	1	-1E+10	1	-1E+10	1	-1E+10	1	-1E+10	1
4901784	226	C	09/11/2021	10:48	-136.570	43.103	0	1649.40	0	2.2970	0	38.3850	8	30.670	0	1629.855	0	35.5	4	11.1	4	-1E+10	1	-1E+10	1	-1E+10	1	-1E+10	1	-1E+10	1	-1E+10	1
4901784	226	C	09/11/2021	10:48	-136.570	43.103	0	1654.70	0	2.2930	0	38.3860	8	30.671	0	1635.071	0	35.7	4	11.2	4	-1E+10	1	-1E+10	1	-1E+10	1	-1E+10	1	-1E+10	1	-1E+10	1
4901784	226	C	09/11/2021	10:48	-136.570	43.103	0	1660.10	0	2.2880	0	38.3860	8	30.672	0	1640.386	0	35.9	4	11.2	4	-1E+10	1	-1E+10	1	-1E+10	1	-1E+10	1	-1E+10	1	-1E+10	1
4901784	226	C	09/11/2021	10:48	-136.570	43.103	0	1665.40	0	2.2840	0	38.3880	8	30.674	0	1645.603	0	36.2	4	11.3	4	-1E+10	1	-1E+10	1	-1E+10	1	-1E+10	1	-1E+10	1	-1E+10	1
4901784	226	C	09/11/2021	10:48	-136.570	43.103	0	1669.90	0	2.2790	0	38.3890	8	30.675	0	1650.032	0	36.4	4	11.4	4	-1E+10	1	-1E+10	1	-1E+10	1	-1E+10	1	-1E+10	1	-1E+10	1
4901784	226	C	09/11/2021	10:48	-136.570	43.103	0	1674.50	0	2.2730	0	38.3900	8	30.677	0	1654.559	0	36.6	4	11.4	4	-1E+10	1	-1E+10	1	-1E+10	1	-1E+10	1	-1E+10	1	-1E+10	1
4901784	226	C	09/11/2021	10:48	-136.570	43.103	0	1679.90	0	2.2690	0	38.3910	8	30.678	0	1659.874	0	36.8	4	11.5	4	-1E+10	1	-1E+10	1	-1E+10	1	-1E+10	1	-1E+10	1	-1E+10	1
4901784	226	C	09/11/2021	10:48	-136.570	43.103	0	1685.50	0	2.2650	0	38.3920	8	30.679	0	1665.385	0	37.1	4	11.6	4	-1E+10	1	-1E+10	1	-1E+10	1	-1E+10	1	-1E+10	1	-1E+10	1
4901784	226	C	09/11/2021	10:48	-136.570	43.103	0	1690.10	0	2.2640	0	38.3920	8	30.679	0	1669.912	0	37.3	4	11.7	4	-1E+10	1	-1E+10	1	-1E+10	1	-1E+10	1	-1E+10	1	-1E+10	1
4901784	226	C	09/11/2021	10:48	-136.570	43.103	0	1694.70	0	2.2560	0	38.3940	8	30.681	0	1674.439	0	37.6	4	11.7	4	-1E+10	1	-1E+10	1	-1E+10	1	-1E+10	1	-1E+10	1	-1E+10	1
4901784	226	C	09/11/2021	10:48	-136.570	43.103	0	1700.20	0	2.2470	0	38.3950	8	30.683	0	1679.851	0	37.9	4	11.8	4	-1E+10	1	-1E+10	1	-1E+10	1	-1E+10	1	-1E+10	1	-1E+10	1
4901784	226	C	09/11/2021	10:48	-136.570	43.103	0	1704.80	0	2.2420	0	38.3970	8	30.685	0	1684.378	0	38.2	4	11.9	4	-1E+10	1	-1E+10	1	-1E+10	1	-1E+10	1	-1E+10	1	-1E+10	1
4901784	226	C	09/11/2021	10:48	-136.570	43.103	0	1709.50	0	2.2360	0	38.3980	8	30.687	0	1689.003	0	38.3	4	12.0	4	-1E+10	1	-1E+10	1	-1E+10	1	-1E+10	1	-1E+10	1	-1E+10	1
4901784	226	C	09/11/2021	10:48	-136.570	43.103	0	1715.00	0	2.2320	0	38.3990	8	30.688	0	1694.415	0	38.5	4	12.0	4	-1E+10	1	-1E+10	1	-1E+10	1	-1E+10	1	-1E+10	1	-1E+10	1
4901784	226	C	09/11/2021	10:48	-136.570	43.103	0	1719.70	0	2.2300	0	38.3990	8	30.688	0	1699.040	0	38.8	4	12.1	4	-1E+10	1	-1E+10	1	-1E+10	1	-1E+10	1	-1E+10	1	-1E+10	1
4901784	226	C	09/11/2021	10:48	-136.570	43.103	0	1724.40	0	2.2220	0	38.4000	8	30.690	0	1703.665	0	39.1	4	12.2	4	-1E+10	1	-1E+10	1	-1E+10	1	-1E+10	1	-1E+10	1	-1E+10	1
4901784	226	C	09/11/2021	10:48	-136.570	43.103	0	1730.00	0	2.2150	0	38.4020	8	30.692	0	1709.175	0	39.5	4	12.3	4	-1E+10	1	-1E+10	1	-1E+10	1	-1E+10	1	-1E+10	1	-1E+10	1
4901784	226	C	09/11/2021	10:48	-136.570	43.103	0	1735.60	0	2.2090	0	38.4030	8	30.693	0	1714.685	0	39.8	4	12.4	4	-1E+10	1	-1E+10	1	-1E+10	1	-1E+10	1	-1E+10	1	-1E+10	1
4901784	226	C	09/11/2021	10:48	-136.570	43.103	0	1740.30	0	2.2060	0	38.4040	8	30.694	0	1719.309	0	40.0	4	12.5	4	-1E+10	1	-1E+10	1	-1E+10	1	-1E+10	1	-1E+10	1	-1E+10	1
4901784	226	C	09/11/2021	10:48	-136.570	43.103	0	1745.00	0	2.1980	0	38.4050	8	30.696	0	1723.933	0	40.3	4	12.6	4	-1E+10	1	-1E+10	1	-1E+10	1	-1E+10	1	-1E+10	1	-1E+10	1
4901784	226	C	09/11/2021	10:48	-136.570	43.103	0	1749.70	0	2.1920	0	38.4070	8	30.698	0	1728.557	0	40.5	4	12.6	4	-1E+10	1	-1E+10	1	-1E+10	1	-1E+10	1	-1E+10	1	-1E+10	1
4901784	226	C	09/11/2021	10:48	-136.570	43.103	0	1754.20	0	2.1900	0	38.4080	8	30.699	0	1732.985	0	40.6	4	12.7	4	-1E+10	1	-1E+10	1	-1E+10	1	-1E+10	1	-1E+10	1	-1E+10	1
4901784	226	C	09/11/2021	10:48	-136.570	43.103	0	1759.60	0	2.1880	0	38.4080	8	30.699	0	1738.297	0	40.8	4	12.7	4	-1E+10	1	-1E+10	1	-1E+10	1	-1E+10	1	-1E+10	1	-1E+10	1
4901784	226	C	09/11/2021	10:48	-136.570	43.103	0	1764.50	0	2.1850	0	38.4090	8	30.700	0	1743.118	0	41.0	4	12.8	4	-1E+10	1	-1E+10	1	-1E+10	1	-1E+10	1	-1E+10	1	-1E+10	1
4901784	226	C	09/11/2021	10:48	-136.570	43.103	0	1769.40	0	2.1800	0	38.4100	8	30.702	0	1747.938	0	41.3	4	12.9	4	-1E+10	1	-1E+10	1	-1E+10	1	-1E+10	1	-1E+10	1	-1E+10	1
4901784	226	C	09/11/2021	10:48	-136.570	43.103	0	1774.40	0	2.1750	0	38.4110	8	30.703	0	1752.857	0	41.6	4	13.0	4	-1E+10	1	-1E+10	1	-1E+10	1	-1E+10	1	-1E+10	1	-1E+10	1
4901784	226	C	09/11/2021	10:48	-136.570	43.103	0	1779.20	0	2.1690	0	38.4120	8	30.704	0	1757.579	0	42.0	4	13.1	4	-1E+10	1	-1E+10	1	-1E+10	1	-1E+10	1	-1E+10	1	-1E+10	1
4901784	226	C	09/11/2021	10:48	-136.570	43.103	0	1784.20	0	2.1610	0	38.4140	8	30.707	0	1762.497	0	42.4	4	13.2	4	-1E+10	1	-1E+10	1	-1E+10	1	-1E+10	1	-1E+10	1	-1E+10	1
4901784	226	C	09/11/2021	10:48	-136.570	43.103	0	1790.00	0	2.1550	0	38.4150	8	30.708	0	1768.203	0	42.7	4	13.3	4	-1E+10	1	-1E+10	1	-1E+10	1	-1E+10	1	-1E+10	1	-1E+10	1
4901784	226	C	09/11/2021	10:48	-136.570	43.103	0	1795.80	0	2.1470	0	38.4170	8	30.710	0	1773.908	0	43.1	4	13.4	4	-1E+10	1	-1E+10	1	-1E+10	1	-1E+10	1	-1E+10	1	-1E+10	1
4901784	226	C	09/11/2021	10:48	-136.570	43.103	0	1800.70	0	2.1430	0	38.4180	8	30.712	0	1778.728	0	43.3	4	13.5	4	-1E+10	1	-1E+10	1	-1E+10	1	-1E+10	1	-1E+10	1	-1E+10	1
4901784	226	C	09/11/2021	10:48	-136.570	43.103	0	1805.60	0	2.1400	0	38.4180	8	30.712	0	1783.547	0	43.4	4	13.5	4	-1E+10	1	-1E+10	1	-1E+10	1	-1E+10	1	-1E+10	1	-1E+10	1
4901784	226	C	09/11/2021	10:48	-136.570	43.103	0	1810.60	0	2.1330	0	38.4200	8	30.714	0	1788.465	0	43.7	4	13.6	4	-1E+10	1	-1E+10	1	-1E+10	1	-1E+10	1	-1E+10	1	-1E+10	1
4901784	226	C	09/11/2021	10:48	-136.570	43.103	0	1815.70	0	2.1280	0	38.4210	8	30.716	0	1793.481	0	43.9	4	13.7	4	-1E+10	1	-1E+10	1	-1E+10	1	-1E+10	1	-1E+10	1	-1E+10	1
4901784	226	C	09/11/2021	10:48	-136.570	43.103	0	1820.70	0	2.1230	0	38.4220	8	30.717	0	1798.399	0	44.1	4	13.7	4	-1E+10	1	-1E+10	1	-1E+10	1	-1E+10	1	-1E+10	1	-1E+10	1
4901784	226	C	09/11/2021	10:48	-136.570	43.103	0	1825.70	0	2.1200	0	38.4230	8	30.718	0	1803.316	0	44.3	4	13.8	4	-1E+10	1	-1E+10	1	-1E+10	1	-1E+10	1	-1E+10	1	-1E+10	1
4901784	226	C	09/11/2021	10:48	-136.570	43.103	0	1830.60	0	2.1150	0	38.4240	8	30.719	0	1808.136	0	44.6	4	13.9	4	-1E+10	1	-1E+10	1	-1E+10	1	-1E+10	1	-1E+10	1	-1E+10	1
4901784	226	C	09/11/2021	10:48	-136.570	43.103	0	1835.60	0	2.1110	0	38.4240	8	30.720	0	1813.053	0	45.0	4	14.0	4	-1E+10	1	-1E+10	1	-1E+10	1	-1E+10	1	-1E+10	1	-1E+10	1
4901784	226	C	09/11/2021	10:48	-136.570	43.103	0	1840.60	0	2.1020	0	38.4260	8	30.722	0	1817.970	0	45.3	4	14.1	4	-1E+10	1	-1E+10	1	-1E+10	1	-1E+10	1	-1E+10	1	-1E+10	1
4901784	226	C	09/11/2021	10:48	-136.570	43.103	0	1845.70	0	2.0970	0	38.4270	8	30.723	0	1822.985	0	45.4	4	14.1	4	-1E+10	1	-1E+10	1	-1E+10	1	-1E+10	1	-1E+10	1	-1E+10	1
4901784	226	C	09/11/2021	10:48	-136.570	43.103	0	1849.90	0	2.0920	0	38.4280	8	30.725	0	1827.116	0	45.6	4	14.2	4	-1E+10	1	-1E+10	1	-1E+10	1	-1E+10	1	-1E+10	1	-1E+10	1
4901784	226	C	09/11/2021	10:48	-136.570	43.103	0	1854.20	0	2.0890	0	38.4290	8	30.726	0	1831.344	0	45.8	4	14.2	4	-1E+10	1	-1E+10	1	-1E+10	1	-1E+10	1	-1E+10	1	-1E+10	1
4901784	226	C	09/11/2021	10:48	-136.570	43.103	0	1859.40	0	2.0850	0	38.4300	8	30.727	0	1836.458	0	46.0	4	14.3	4	-1E+10	1	-1E+10	1	-1E+10	1	-1E+10	1	-1E+10	1	-1E+10	1
4901784	226	C	09/11/2021	10:48	-136.570	43.103	0	1864.60	0	2.0820	0	38.4310	8	30.728	0	1841.571	0	46.2	4	14.4	4	-1E+10	1	-1E+10	1	-1E+10	1	-1E+10	1	-1E+10	1	-1E+10	1
4901784	226	C	09/11/2021	10:48	-136.570	43.103	0	1869.70	0	2.0810	0	38.4310	8	30.728	0	1846.586	0	46.4	4	14.4	4	-1E+10	1	-1E+10	1	-1E+10	1	-1E+10	1	-1E+10	1	-1E+10	1
4901784	226	C	09/11/2021	10:48	-136.570	43.103	0	1874.90	0	2.0770	0	38.4320	8	30.729	0	1851.699	0	46.8	4	14.6	4	-1E+10	1	-1E+10	1	-1E+10	1	-1E+10	1	-1E+10	1	-1E+10	1
4901784	226	C	09/11/2021	10:48	-136.570	43.103	0	1880.00	0	2.0720	0	38.4330	8	30.731	0	1856.714	0	47.3	4	14.7	4	-1E+10	1	-1E+10	1	-1E+10	1	-1E+10	1	-1E+10	1	-1E+10	1
4901784	226	C	09/11/2021	10:48	-136.570	43.103	0	1885.20	0	2.0650	0	38.4350	8	30.733	0	1861.827	0	47.6	4	14.8	4	-1E+10	1	-1E+10	1	-1E+10	1	-1E+10	1	-1E+10	1	-1E+10	1
4901784	226	C	09/11/2021	10:48	-136.570	43.103	0	1890.50	0	2.0600	0	38.4360	8	30.734	0	1867.038	0	47.9	4	14.9	4	-1E+10	1	-1E+10	1	-1E+10	1	-1E+10	1	-1E+10	1	-1E+10	1
4901784	226	C	09/11/2021	10:48	-136.570	43.103	0	1895.70	0	2.0550	0	38.4370	8	30.735	0	1872.150	0	48.5	4	15.1	4	-1E+10	1	-1E+10	1	-1E+10	1	-1E+10	1	-1E+10	1	-1E+10	1
4901784	226	C	09/11/2021	10:48	-136.570	43.103	0	1900.10	0	2.0520	0	38.4380	8	30.737	0	1876.476	0	48.7	4	15.2	4	-1E+10	1	-1E+10	1	-1E+10	1	-1E+10	1	-1E+10	1	-1E+10	1
4901784	226	C	09/11/2021	10:48	-136.570	43.103	0	1904.60	0	2.0470	0	38.4390	8	30.738	0	1880.900	0	49.1	4	15.3	4	-1E+10	1	-1E+10	1	-1E+10	1	-1E+10	1	-1E+10	1	-1E+10	1
4901784	226	C	09/11/2021	10:48	-136.570	43.103	0	1910.00	0	2.0430	0	38.4400	8	30.739	0	1886.209	0	49.4	4	15.4	4	-1E+10	1	-1E+10	1	-1E+10	1	-1E+10	1	-1E+10	1	-1E+10	1
4901784	226	C	09/11/2021	10:48	-136.570	43.103	0	1915.30	0	2.0400	0	38.4410	8	30.740	0	1891.420	0	49.7	4	15.4	4	-1E+10	1	-1E+10	1	-1E+10	1	-1E+10	1	-1E+10	1	-1E+10	1
4901784	226	C	09/11/2021	10:48	-136.570	43.103	0	1919.90	0	2.0370	0	38.4420	8	30.741	0	1895.942	0	49.9	4	15.5	4	-1E+10	1	-1E+10	1	-1E+10	1	-1E+10	1	-1E+10	1	-1E+10	1
4901784	226	C	09/11/2021	10:48	-136.570	43.103	0	1924.30	0	2.0310	0	38.4430	8	30.743	0	1900.267	0	50.2	4	15.6	4	-1E+10	1	-1E+10	1	-1E+10	1	-1E+10	1	-1E+10	1	-1E+10	1
4901784	226	C	09/11/2021	10:48	-136.570	43.103	0	1929.80	0	2.0280	0	38.4440	8	30.744	0	1905.674	0	50.5	4	15.7	4	-1E+10	1	-1E+10	1	-1E+10	1	-1E+10	1	-1E+10	1	-1E+10	1
4901784	226	C	09/11/2021	10:48	-136.570	43.103	0	1935.30	0	2.0230	0	38.4450	8	30.745	0	1911.081	0	50.9	4	15.8	4	-1E+10	1	-1E+10	1	-1E+10	1	-1E+10	1	-1E+10	1	-1E+10	1
4901784	226	C	09/11/2021	10:48	-136.570	43.103	0	1939.80	0	2.0200	0	38.4460	8	30.746	0	1915.504	0	51.1	4	15.9	4	-1E+10	1	-1E+10	1	-1E+10	1	-1E+10	1	-1E+10	1	-1E+10	1
4901784	226	C	09/11/2021	10:48	-136.570	43.103	0	1944.40	0	2.0180	0	38.4460	8	30.746	0	1920.026	0	51.2	4	15.9	4	-1E+10	1	-1E+10	1	-1E+10	1	-1E+10	1	-1E+10	1	-1E+10	1
4901784	226	C	09/11/2021	10:48	-136.570	43.103	0	1949.90	0	2.0140	0	38.4470	8	30.748	0	1925.432	0	51.7	4	16.1	4	-1E+10	1	-1E+10	1	-1E+10	1	-1E+10	1	-1E+10	1	-1E+10	1
4901784	226	C	09/11/2021	10:48	-136.570	43.103	0	1955.40	0	2.0080	0	38.4490	8	30.750	0	1930.838	0	52.3	4	16.3	4	-1E+10	1	-1E+10	1	-1E+10	1	-1E+10	1	-1E+10	1	-1E+10	1
4901784	226	C	09/11/2021	10:48	-136.570	43.103	0	1960.10	0	2.0050	0	38.4500	8	30.751	0	1935.458	0	52.7	4	16.4	4	-1E+10	1	-1E+10	1	-1E+10	1	-1E+10	1	-1E+10	1	-1E+10	1
4901784	226	C	09/11/2021	10:48	-136.570	43.103	0	1964.70	0	2.0020	0	38.4500	8	30.751	0	1939.979	0	52.9	4	16.4	4	-1E+10	1	-1E+10	1	-1E+10	1	-1E+10	1	-1E+10	1	-1E+10	1
4901784	226	C	09/11/2021	10:48	-136.570	43.103	0	1969.90	0	1.9980	0	38.4510	8	30.752	0	1945.090	0	53.2	4	16.5	4	-1E+10	1	-1E+10	1	-1E+10	1	-1E+10	1	-1E+10	1	-1E+10	1
4901784	226	C	09/11/2021	10:48	-136.570	43.103	0	1974.30	0	1.9950	0	38.4520	8	30.753	0	1949.414	0	53.4	4	16.6	4	-1E+10	1	-1E+10	1	-1E+10	1	-1E+10	1	-1E+10	1	-1E+10	1
4901784	226	C	09/11/2021	10:48	-136.570	43.103	0	1979.20	0	1.9930	0	38.4530	8	30.754	0	1954.230	0	53.7	4	16.7	4	-1E+10	1	-1E+10	1	-1E+10	1	-1E+10	1	-1E+10	1	-1E+10	1
4901784	226	C	09/11/2021	10:48	-136.570	43.103	0	1984.20	0	1.9890	0	38.4540	8	30.756	0	1959.144	0	54.0	4	16.8	4	-1E+10	1	-1E+10	1	-1E+10	1	-1E+10	1	-1E+10	1	-1E+10	1
4901784	226	C	09/11/2021	10:48	-136.570	43.103	0	1989.20	0	1.9850	0	38.4550	8	30.757	0	1964.058	0	54.4	4	16.9	4	-1E+10	1	-1E+10	1	-1E+10	1	-1E+10	1	-1E+10	1	-1E+10	1
4901784	226	C	09/11/2021	10:48	-136.570	43.103	0	1994.20	0	1.9790	0	38.4560	8	30.758	0	1968.971	0	54.8	4	17.0	4	-1E+10	1	-1E+10	1	-1E+10	1	-1E+10	1	-1E+10	1	-1E+10	1
4901784	226	C	09/11/2021	10:48	-136.570	43.103	0	1999.30	0	1.9760	0	38.4570	8	30.759	0	1973.983	0	55.1	4	17.1	4	-1E+10	1	-1E+10	1	-1E+10	1	-1E+10	1	-1E+10	1	-1E+10	1
4901784	226	C	09/11/2021	10:48	-136.570	43.103	0	2004.40	0	1.9720	0	38.4570	8	30.760	0	1978.995	0	55.5	4	17.2	4	-1E+10	1	-1E+10	1	-1E+10	1	-1E+10	1	-1E+10	1	-1E+10	1
4901784	226	C	09/11/2021	10:48	-136.570	43.103	0	2010.00	0	1.9680	0	38.4580	8	30.761	0	1984.498	0	55.8	4	17.3	4	-1E+10	1	-1E+10	1	-1E+10	1	-1E+10	1	-1E+10	1	-1E+10	1
4901784	226	C	09/11/2021	10:48	-136.570	43.103	0	2014.70	0	1.9650	0	38.4590	8	30.762	0	1989.116	0	56.0	4	17.4	4	-1E+10	1	-1E+10	1	-1E+10	1	-1E+10	1	-1E+10	1	-1E+10	1
4901784	226	C	09/11/2021	10:48	-136.570	43.103	0	2020.00	0	1.9610	0	38.4600	8	30.763	0	1994.324	0	56.2	4	17.5	4	-1E+10	1	-1E+10	1	-1E+10	1	-1E+10	1	-1E+10	1	-1E+10	1
4901784	226	C	09/11/2021	10:48	-136.570	43.103	0																										
4901784	227	C	09/21/2021	10:48	-136.876	43.116	0	2.10	0	18.8550	0	36.0490	8	25.862	0	2.083	0	221.4	4	96.8	4	-1E+10	1	-1E+10	1	-1E+10	1	-1E+10	1	-1E+10	1	-1E+10	1
4901784	227	C	09/21/2021	10:48	-136.876	43.116	0	3.30	0	18.8530	0	36.0510	8	25.864	0	3.274	0	221.5	4	96.8	4	-1E+10	1	-1E+10	1	-1E+10	1	-1E+10	1	-1E+10	1	-1E+10	1
4901784	227	C	09/21/2021	10:48	-136.876	43.116	0	4.60	0	18.8530	0	36.0520	8	25.865	0	4.563	0	221.0	4	96.7	4	-1E+10	1	-1E+10	1	-1E+10	1	-1E+10	1	-1E+10	1	-1E+10	1
4901784	227	C	09/21/2021	10:48	-136.876	43.116	0	5.90	0	18.8540	0	36.0540	8	25.866	0	5.853	0	221.1	4	96.7	4	-1E+10	1	-1E+10	1	-1E+10	1	-1E+10	1	-1E+10	1	-1E+10	1
4901784	227	C	09/21/2021	10:48	-136.876	43.116	0	7.40	0	18.8580	0	36.0550	8	25.866	0	7.341	0	221.1	4	96.7	4	-1E+10	1	-1E+10	1	-1E+10	1	-1E+10	1	-1E+10	1	-1E+10	1
4901784	227	C	09/21/2021	10:48	-136.876	43.116	0	9.10	0	18.8620	0	36.0550	8	25.865	0	9.028	0	220.9	4	96.6	4	-1E+10	1	-1E+10	1	-1E+10	1	-1E+10	1	-1E+10	1	-1E+10	1
4901784	227	C	09/21/2021	10:48	-136.876	43.116	0	11.00	0	18.8620	0	36.0560	8	25.866	0	10.912	0	220.8	4	96.6	4	-1E+10	1	-1E+10	1	-1E+10	1	-1E+10	1	-1E+10	1	-1E+10	1
4901784	227	C	09/21/2021	10:48	-136.876	43.116	0	12.90	0	18.8620	0	36.0570	8	25.866	0	12.797	0	220.6	4	96.5	4	-1E+10	1	-1E+10	1	-1E+10	1	-1E+10	1	-1E+10	1	-1E+10	1
4901784	227	C	09/21/2021	10:48	-136.876	43.116	0	14.80	0	18.8620	0	36.0590	8	25.868	0	14.682	0	220.4	4	96.4	4	-1E+10	1	-1E+10	1	-1E+10	1	-1E+10	1	-1E+10	1	-1E+10	1
4901784	227	C	09/21/2021	10:48	-136.876	43.116	0	16.70	0	18.8630	0	36.0590	8	25.868	0	16.567	0	220.3	4	96.4	4	-1E+10	1	-1E+10	1	-1E+10	1	-1E+10	1	-1E+10	1	-1E+10	1
4901784	227	C	09/21/2021	10:48	-136.876	43.116	0	18.50	0	18.8630	0	36.0610	8	25.870	0	18.352	0	220.2	4	96.3	4	-1E+10	1	-1E+10	1	-1E+10	1	-1E+10	1	-1E+10	1	-1E+10	1
4901784	227	C	09/21/2021	10:48	-136.876	43.116	0	20.40	0	18.8590	0	36.0620	8	25.871	0	20.237	0	220.1	4	96.3	4	-1E+10	1	-1E+10	1	-1E+10	1	-1E+10	1	-1E+10	1	-1E+10	1
4901784	227	C	09/21/2021	10:48	-136.876	43.116	0	22.20	0	18.8590	0	36.0620	8	25.871	0	22.022	0	220.0	4	96.2	4	-1E+10	1	-1E+10	1	-1E+10	1	-1E+10	1	-1E+10	1	-1E+10	1
4901784	227	C	09/21/2021	10:48	-136.876	43.116	0	24.00	0	18.8580	0	36.0630	8	25.873	0	23.808	0	220.0	4	96.2	4	-1E+10	1	-1E+10	1	-1E+10	1	-1E+10	1	-1E+10	1	-1E+10	1
4901784	227	C	09/21/2021	10:48	-136.876	43.116	0	25.80	0	18.8580	0	36.0630	8	25.873	0	25.593	0	220.0	4	96.2	4	-1E+10	1	-1E+10	1	-1E+10	1	-1E+10	1	-1E+10	1	-1E+10	1
4901784	227	C	09/21/2021	10:48	-136.876	43.116	0	28.10	0	18.8590	0	36.0610	8	25.871	0	27.875	0	220.0	4	96.2	4	-1E+10	1	-1E+10	1	-1E+10	1	-1E+10	1	-1E+10	1	-1E+10	1
4901784	227	C	09/21/2021	10:48	-136.876	43.116	0	29.90	0	18.8560	0	36.0590	8	25.870	0	29.660	0	220.5	4	96.4	4	-1E+10	1	-1E+10	1	-1E+10	1	-1E+10	1	-1E+10	1	-1E+10	1
4901784	227	C	09/21/2021	10:48	-136.876	43.116	0	31.30	0	18.8560	0	36.0550	8	25.867	0	31.049	0	221.0	4	96.7	4	-1E+10	1	-1E+10	1	-1E+10	1	-1E+10	1	-1E+10	1	-1E+10	1
4901784	227	C	09/21/2021	10:48	-136.876	43.116	0	32.60	0	18.8570	0	36.0480	8	25.862	0	32.338	0	221.7	4	97.0	4	-1E+10	1	-1E+10	1	-1E+10	1	-1E+10	1	-1E+10	1	-1E+10	1
4901784	227	C	09/21/2021	10:48	-136.876	43.116	0	33.80	0	18.8540	0	36.0380	8	25.855	0	33.529	0	223.0	4	97.5	4	-1E+10	1	-1E+10	1	-1E+10	1	-1E+10	1	-1E+10	1	-1E+10	1
4901784	227	C	09/21/2021	10:48	-136.876	43.116	0	35.00	0	18.8550	0	36.0200	8	25.841	0	34.719	0	224.8	4	98.3	4	-1E+10	1	-1E+10	1	-1E+10	1	-1E+10	1	-1E+10	1	-1E+10	1
4901784	227	C	09/21/2021	10:48	-136.876	43.116	0	36.10	0	18.8440	0	35.9930	8	25.823	0	35.810	0	227.8	4	99.6	4	-1E+10	1	-1E+10	1	-1E+10	1	-1E+10	1	-1E+10	1	-1E+10	1
4901784	227	C	09/21/2021	10:48	-136.876	43.116	0	37.20	0	18.7530	0	35.9470	8	25.811	0	36.901	0	232.2	4	101.3	4	-1E+10	1	-1E+10	1	-1E+10	1	-1E+10	1	-1E+10	1	-1E+10	1
4901784	227	C	09/21/2021	10:48	-136.876	43.116	0	38.40	0	18.0860	0	35.9590	8	25.988	0	38.091	0	239.5	4	103.2	4	-1E+10	1	-1E+10	1	-1E+10	1	-1E+10	1	-1E+10	1	-1E+10	1
4901784	227	C	09/21/2021	10:48	-136.876	43.116	0	39.70	0	17.0950	0	35.9730	8	26.241	0	39.381	0	247.3	4	104.6	4	-1E+10	1	-1E+10	1	-1E+10	1	-1E+10	1	-1E+10	1	-1E+10	1
4901784	227	C	09/21/2021	10:48	-136.876	43.116	0	41.10	0	16.4530	0	36.0050	8	26.418	0	40.769	0	251.0	4	104.9	4	-1E+10	1	-1E+10	1	-1E+10	1	-1E+10	1	-1E+10	1	-1E+10	1
4901784	227	C	09/21/2021	10:48	-136.876	43.116	0	42.70	0	15.1160	0	36.0720	8	26.775	0	42.356	0	258.8	4	105.5	4	-1E+10	1	-1E+10	1	-1E+10	1	-1E+10	1	-1E+10	1	-1E+10	1
4901784	227	C	09/21/2021	10:48	-136.876	43.116	0	44.90	0	14.6530	0	36.0790	8	26.883	0	44.538	0	261.1	4	105.4	4	-1E+10	1	-1E+10	1	-1E+10	1	-1E+10	1	-1E+10	1	-1E+10	1
4901784	227	C	09/21/2021	10:48	-136.876	43.116	0	46.60	0	14.0310	0	36.1080	8	27.039	0	46.225	0	263.2	4	105.0	4	-1E+10	1	-1E+10	1	-1E+10	1	-1E+10	1	-1E+10	1	-1E+10	1
4901784	227	C	09/21/2021	10:48	-136.876	43.116	0	48.20	0	13.8300	0	36.1120	8	27.085	0	47.811	0	264.3	4	105.0	4	-1E+10	1	-1E+10	1	-1E+10	1	-1E+10	1	-1E+10	1	-1E+10	1
4901784	227	C	09/21/2021	10:48	-136.876	43.116	0	49.60	0	13.6440	0	36.1360	8	27.143	0	49.200	0	264.3	4	104.6	4	-1E+10	1	-1E+10	1	-1E+10	1	-1E+10	1	-1E+10	1	-1E+10	1
4901784	227	C	09/21/2021	10:48	-136.876	43.116	0	51.10	0	13.4600	0	36.1510	8	27.193	0	50.688	0	263.5	4	104.0	4	-1E+10	1	-1E+10	1	-1E+10	1	-1E+10	1	-1E+10	1	-1E+10	1
4901784	227	C	09/21/2021	10:48	-136.876	43.116	0	52.70	0	13.3280	0	36.1610	8	27.228	0	52.275	0	262.7	4	103.4	4	-1E+10	1	-1E+10	1	-1E+10	1	-1E+10	1	-1E+10	1	-1E+10	1
4901784	227	C	09/21/2021	10:48	-136.876	43.116	0	54.40	0	13.1490	0	36.1700	8	27.272	0	53.961	0	261.6	4	102.6	4	-1E+10	1	-1E+10	1	-1E+10	1	-1E+10	1	-1E+10	1	-1E+10	1
4901784	227	C	09/21/2021	10:48	-136.876	43.116	0	56.10	0	12.9940	0	36.1810	8	27.312	0	55.647	0	259.5	4	101.4	4	-1E+10	1	-1E+10	1	-1E+10	1	-1E+10	1	-1E+10	1	-1E+10	1
4901784	227	C	09/21/2021	10:48	-136.876	43.116	0	57.80	0	12.5750	0	36.1890	8	27.402	0	57.333	0	258.2	4	100.1	4	-1E+10	1	-1E+10	1	-1E+10	1	-1E+10	1	-1E+10	1	-1E+10	1
4901784	227	C	09/21/2021	10:48	-136.876	43.116	0	59.50	0	12.3680	0	36.1770	8	27.434	0	59.019	0	256.1	4	98.8	4	-1E+10	1	-1E+10	1	-1E+10	1	-1E+10	1	-1E+10	1	-1E+10	1
4901784	227	C	09/21/2021	10:48	-136.876	43.116	0	61.30	0	12.0950	0	36.1640	8	27.477	0	60.804	0	253.7	4	97.4	4	-1E+10	1	-1E+10	1	-1E+10	1	-1E+10	1	-1E+10	1	-1E+10	1
4901784	227	C	09/21/2021	10:48	-136.876	43.116	0	63.20	0	11.7440	0	36.1830	8	27.560	0	62.688	0	252.4	4	96.2	4	-1E+10	1	-1E+10	1	-1E+10	1	-1E+10	1	-1E+10	1	-1E+10	1
4901784	227	C	09/21/2021	10:48	-136.876	43.116	0	65.00	0	11.6350	0	36.1940	8	27.589	0	64.473	0	250.1	4	95.1	4	-1E+10	1	-1E+10	1	-1E+10	1	-1E+10	1	-1E+10	1	-1E+10	1
4901784	227	C	09/21/2021	10:48	-136.876	43.116	0	66.90	0	11.4270	0	36.2040	8	27.636	0	66.358	0	247.8	4	93.8	4	-1E+10	1	-1E+10	1	-1E+10	1	-1E+10	1	-1E+10	1	-1E+10	1
4901784	227	C	09/21/2021	10:48	-136.876	43.116	0	68.80	0	11.2570	0	36.2020	8	27.667	0	68.242	0	247.0	4	93.2	4	-1E+10	1	-1E+10	1	-1E+10	1	-1E+10	1	-1E+10	1	-1E+10	1
4901784	227	C	09/21/2021	10:48	-136.876	43.116	0	70.80	0	11.2250	0	36.1980	8	27.670	0	70.225	0	246.0	4	92.7	4	-1E+10	1	-1E+10	1	-1E+10	1	-1E+10	1	-1E+10	1	-1E+10	1
4901784	227	C	09/21/2021	10:48	-136.876	43.116	0	72.70	0	11.2040	0	36.1960	8	27.672	0	72.110	0	244.9	4	92.3	4	-1E+10	1	-1E+10	1	-1E+10	1	-1E+10	1	-1E+10	1	-1E+10	1
4901784	227	C	09/21/2021	10:48	-136.876	43.116	0	74.60	0	11.1470	0	36.1920	8	27.679	0	73.994	0	244.0	4	91.8	4	-1E+10	1	-1E+10	1	-1E+10	1	-1E+10	1	-1E+10	1	-1E+10	1
4901784	227	C	09/21/2021	10:48	-136.876	43.116	0	76.60	0	11.0470	0	36.1920	8	27.698	0	75.977	0	243.8	4	91.6	4	-1E+10	1	-1E+10	1	-1E+10	1	-1E+10	1	-1E+10	1	-1E+10	1
4901784	227	C	09/21/2021	10:48	-136.876	43.116	0	78.50	0	11.0210	0	36.2020	8	27.711	0	77.862	0	243.7	4	91.5	4	-1E+10	1	-1E+10	1	-1E+10	1	-1E+10	1	-1E+10	1	-1E+10	1
4901784	227	C	09/21/2021	10:48	-136.876	43.116	0	80.30	0	10.9990	0	36.2000	8	27.713	0	79.647	0	243.2	4	91.3	4	-1E+10	1	-1E+10	1	-1E+10	1	-1E+10	1	-1E+10	1	-1E+10	1
4901784	227	C	09/21/2021	10:48	-136.876	43.116	0	82.20	0	10.9600	0	36.1980	8	27.719	0	81.531	0	242.9	4	91.1	4	-1E+10	1	-1E+10	1	-1E+10	1	-1E+10	1	-1E+10	1	-1E+10	1
4901784	227	C	09/21/2021	10:48	-136.876	43.116	0	83.90	0	10.9080	0	36.1970	8	27.727	0	83.216	0	242.5	4	90.8	4	-1E+10	1	-1E+10	1	-1E+10	1	-1E+10	1	-1E+10	1	-1E+10	1
4901784	227	C	09/21/2021	10:48	-136.876	43.116	0	85.70	0	10.8080	0	36.1940	8	27.743	0	85.001	0	242.3	4	90.6	4	-1E+10	1	-1E+10	1	-1E+10	1	-1E+10	1	-1E+10	1	-1E+10	1
4901784	227	C	09/21/2021	10:48	-136.876	43.116	0	87.60	0	10.7670	0	36.1930	8	27.750	0	86.886	0	242.3	4	90.5	4	-1E+10	1	-1E+10	1	-1E+10	1	-1E+10	1	-1E+10	1	-1E+10	1
4901784	227	C	09/21/2021	10:48	-136.876	43.116	0	89.40	0	10.7150	0	36.1920	8	27.759	0	88.671	0	242.1	4	90.3	4	-1E+10	1	-1E+10	1	-1E+10	1	-1E+10	1	-1E+10	1	-1E+10	1
4901784	227	C	09/21/2021	10:48	-136.876	43.116	0	91.30	0	10.6530	0	36.1950	8	27.772	0	90.555	0	242.2	4	90.2	4	-1E+10	1	-1E+10	1	-1E+10	1	-1E+10	1	-1E+10	1	-1E+10	1
4901784	227	C	09/21/2021	10:48	-136.876	43.116	0	93.10	0	10.6250	0	36.1970	8	27.779	0	92.339	0	242.5	4	90.3	4	-1E+10	1	-1E+10	1	-1E+10	1	-1E+10	1	-1E+10	1	-1E+10	1
4901784	227	C	09/21/2021	10:48	-136.876	43.116	0	95.00	0	10.5840	0	36.1980	8	27.787	0	94.224	0	242.3	4	90.1	4	-1E+10	1	-1E+10	1	-1E+10	1	-1E+10	1	-1E+10	1	-1E+10	1
4901784	227	C	09/21/2021	10:48	-136.876	43.116	0	96.90	0	10.6180	0	36.2090	8	27.790	0	96.108	0	241.9	4	90.0	4	-1E+10	1	-1E+10	1	-1E+10	1	-1E+10	1	-1E+10	1	-1E+10	1
4901784	227	C	09/21/2021	10:48	-136.876	43.116	0	98.70	0	10.5640	0	36.2060	8	27.797	0	97.892	0	241.1	4	89.6	4	-1E+10	1	-1E+10	1	-1E+10	1	-1E+10	1	-1E+10	1	-1E+10	1
4901784	227	C	09/21/2021	10:48	-136.876	43.116	0	102.30	0	10.3310	0	36.2030	8	27.836	0	101.462	0	240.8	4	89.1	4	-1E+10	1	-1E+10	1	-1E+10	1	-1E+10	1	-1E+10	1	-1E+10	1
4901784	227	C	09/21/2021	10:48	-136.876	43.116	0	105.10	0	10.2920	0	36.2050	8	27.845	0	104.238	0	239.9	4	88.7	4	-1E+10	1	-1E+10	1	-1E+10	1	-1E+10	1	-1E+10	1	-1E+10	1
4901784	227	C	09/21/2021	10:48	-136.876	43.116	0	107.80	0	10.1500	0	36.2060	8	27.871	0	106.916	0	239.1	4	88.1	4	-1E+10	1	-1E+10	1	-1E+10	1	-1E+10	1	-1E+10	1	-1E+10	1
4901784	227	C	09/21/2021	10:48	-136.876	43.116	0	110.00	0	10.0670	0	36.2170	8	27.894	0	109.097	0	238.8	4	87.8	4	-1E+10	1	-1E+10	1	-1E+10	1	-1E+10	1	-1E+10	1	-1E+10	1
4901784	227	C	09/21/2021	10:48	-136.876	43.116	0	112.50	0	10.0450	0	36.2150	8	27.896	0	111.576	0	237.4	4	87.3	4	-1E+10	1	-1E+10	1	-1E+10	1	-1E+10	1	-1E+10	1	-1E+10	1
4901784	227	C	09/21/2021	10:48	-136.876	43.116	0	115.40	0	9.9650	0	36.2270	8	27.920	0	114.451	0	235.1	4	86.3	4	-1E+10	1	-1E+10	1	-1E+10	1	-1E+10	1	-1E+10	1	-1E+10	1
4901784	227	C	09/21/2021	10:48	-136.876	43.116	0	117.50	0	9.8890	0	36.2500	8	27.951	0	116.533	0	232.7	4	85.3	4	-1E+10	1	-1E+10	1	-1E+10	1	-1E+10	1	-1E+10	1	-1E+10	1
4901784	227	C	09/21/2021	10:48	-136.876	43.116	0	119.90	0	9.8000	0	36.2880	8	27.996	0	118.913	0	229.8	4	84.1	4	-1E+10	1	-1E+10	1	-1E+10	1	-1E+10	1	-1E+10	1	-1E+10	1
4901784	227	C	09/21/2021	10:48	-136.876	43.116	0	122.20	0	9.6930	0	36.3610	8	28.071	0	121.193	0	227.1	4	83.0	4	-1E+10	1	-1E+10	1	-1E+10	1	-1E+10	1	-1E+10	1	-1E+10	1
4901784	227	C	09/21/2021	10:48	-136.876	43.116	0	124.60	0	9.5880	0	36.3720	8	28.098	0	123.573	0	225.2	4	82.1	4	-1E+10	1	-1E+10	1	-1E+10	1	-1E+10	1	-1E+10	1	-1E+10	1
4901784	227	C	09/21/2021	10:48	-136.876	43.116	0	127.10	0	9.4820	0	36.4690	8	28.192	0	126.051	0	222.3	4	80.9	4	-1E+10	1	-1E+10	1	-1E+10	1	-1E+10	1	-1E+10	1	-1E+10	1
4901784	227	C	09/21/2021	10:48	-136.876	43.116	0	129.80	0	9.4370	0	36.5160	8	28.236	0	128.728	0	219.9	4	80.0	4	-1E+10	1	-1E+10	1	-1E+10	1	-1E+10	1	-1E+10	1	-1E+10	1
4901784	227	C	09/21/2021	10:48	-136.876	43.116	0	133.00	0	9.5010	0	36.5730	8	28.270	0	131.901	0	216.9	4	79.0	4	-1E+10	1	-1E+10	1	-1E+10	1	-1E+10	1	-1E+10	1	-1E+10	1
4901784	227	C	09/21/2021	10:48	-136.876	43.116	0	135.10	0	9.5290	0	36.6130	8	28.297	0	133.983	0	215.9	4	78.7	4	-1E+10	1	-1E+10	1	-1E+10	1	-1E+10	1	-1E+10	1	-1E+10	1
4901784	227	C	09/21/2021	10:48	-136.876	43.116	0	137.20	0	9.4020	0	36.6400	8	28.339	0	136.065	0	216.0	4	78.6	4	-1E+10	1	-1E+10	1	-1E+10	1	-1E+10	1	-1E+10	1	-1E+10	1
4901784	227	C	09/21/2021	10:48	-136.876	43.116	0	140.20	0	9.2520	0	36.7030	8	28.414	0	139.039	0	215.0	4	78.0	4	-1E+10	1	-1E+10	1	-1E+10	1	-1E+10	1	-1E+10	1	-1E+10	1
4901784	227	C	09/21/2021	10:48	-136.876	43.116	0	142.60	0	9.2540	0	36.7550	8	28.454	0	141.418	0	212.3	4	77.1	4	-1E+10	1	-1E+10	1	-1E+10	1	-1E+10	1	-1E+10	1	-1E+10	1
4901784	227	C	09/21/2021	10:48	-136.876	43.116	0	145.00	0	9.3260	0	36.8090	8	28.485	0	143.797	0	208.7	4	75.9	4	-1E+10	1	-1E+10	1	-1E+10	1	-1E+10	1	-1E+10	1	-1E+10	1
4901784	227	C	09/21/2021	10:48	-136.876	43.116	0	147.50	0	9.2690	0	36.8860	8	28.554	0	146.276	0	205.6	4	74.7	4	-1E+10	1	-1E+10	1	-1E+10	1	-1E+10	1	-1E+10	1	-1E+10	1
4901784	227	C	09/21/2021	10:48	-136.876	43.116	0	150.20	0	9.1770	0	36.9370	8	28.610	0	148.952	0	203.1	4	73.7	4	-1E+10	1	-1E+10	1	-1E+10	1	-1E+10	1	-1E+10	1	-1E+10	1
4901784	227	C	09/21/2021	10:48	-136.876	43.116	0	152.90	0	9.1220	0	36.9760	8	28.650	0	151.629	0	201.6	4	73.1	4	-1E+10	1	-1E+10	1	-1E+10	1	-1E+10	1	-1E+10	1	-1E+10	1
4901784	227	C	09/21/2021	10:48	-136.876	43.116	0	154.70	0	9.0880	0	37.0180	8	28.688	0	153.413	0	200.9	4	72.8	4	-1E+10	1	-1E+10	1	-1E+10	1	-1E+10	1	-1E+10	1	-1E+10	1
4901784	227	C	09/21/2021	10:48	-136.876	43.116	0	157.50	0	9.0510	0	37.0320	8	28.705	0	156.189	0	199.6	4	72.3	4	-1E+10	1	-1E+10	1	-1E+10	1	-1E+10	1	-1E+10	1	-1E+10	1
4901784	227	C	09/21/2021	10:48	-136.876	43.116	0	159.80	0	9.0080	0	37.0540	8	28.730	0	158.469	0	198.5	4	71.8	4	-1E+10	1	-1E+10	1	-1E+10	1	-1E+10	1	-1E+10	1	-1E+10	1
4901784	227	C	09/21/2021	10:48	-136.876	43.116	0	162.80	0	8.9510	0	37.0830	8	28.762	0	161.443	0	196.9	4	71.2	4	-1E+10	1	-1E+10	1	-1E+10	1	-1E+10	1	-1E+10	1	-1E+10	1
4901784	227	C	09/21/2021	10:48	-136.876	43.116	0	165.00	0	8.9610	0	37.1220	8	28.791	0	163.624	0	196.3	4	71.0	4	-1E+10	1	-1E+10	1	-1E+10	1	-1E+10	1	-1E+10	1	-1E+10	1
4901784	227	C	09/21/2021	10:48	-136.876	43.116	0	167.30	0	8.9080	0	37.1500	8	28.822	0	165.904	0	195.3	4	70.5	4	-1E+10	1	-1E+10	1	-1E+10	1	-1E+10	1	-1E+10	1	-1E+10	1
4901784	227	C	09/21/2021	10:48	-136.876	43.116	0	170.40	0	8.8680	0	37.1630	8	28.839	0	168.976	0	194.0	4	70.0	4	-1E+10	1	-1E+10	1	-1E+10	1	-1E+10	1	-1E+10	1	-1E+10	1
4901784	227	C	09/21/2021	10:48	-136.876	43.116	0	172.70	0	8.7710	0	37.1800	8	28.868	0	171.256	0	193.1	4	69.5	4	-1E+10	1	-1E+10	1	-1E+10	1	-1E+10	1	-1E+10	1	-1E+10	1
4901784	227	C	09/21/2021	10:48	-136.876	43.116	0	175.10	0	8.7740	0	37.1920	8	28.877	0	173.635	0	192.7	4	69.4	4	-1E+10	1	-1E+10	1	-1E+10	1	-1E+10	1	-1E+10	1	-1E+10	1
4901784	227	C	09/21/2021	10:48	-136.876	43.116	0	177.60	0	8.7680	0	37.2010	8	28.885	0	176.113	0	192.3	4	69.3	4	-1E+10	1	-1E+10	1	-1E+10	1	-1E+10	1	-1E+10	1	-1E+10	1
4901784	227	C	09/21/2021	10:48	-136.876	43.116	0	179.90	0	8.8030	0	37.2160	8	28.891	0	178.393	0	190.7	4	68.8	4	-1E+10	1	-1E+10	1	-1E+10	1	-1E+10	1	-1E+10	1	-1E+10	1
4901784	227	C	09/21/2021	10:48	-136.876	43.116	0	182.20	0	8.7440	0	37.2250	8	28.908	0	180.673	0	188.9	4	68.0	4	-1E+10	1	-1E+10	1	-1E+10	1	-1E+10	1	-1E+10	1	-1E+10	1
4901784	227	C	09/21/2021	10:48	-136.876	43.116	0	184.60	0	8.6270	0	37.2290	8	28.930	0	183.052	0	187.3	4	67.3	4	-1E+10	1	-1E+10	1	-1E+10	1	-1E+10	1	-1E+10	1	-1E+10	1
4901784	227	C	09/21/2021	10:48	-136.876	43.116	0	187.80	0	8.5560	0	37.2590	8	28.965	0	186.223	0	186.3	4	66.8	4	-1E+10	1	-1E+10	1	-1E+10	1	-1E+10	1	-1E+10	1	-1E+10	1
4901784	227	C	09/21/2021	10:48	-136.876	43.116	0	190.30	0	8.4750	0	37.2910	8	29.003	0	188.701	0	185.3	4	66.3	4	-1E+10	1	-1E+10	1	-1E+10	1	-1E+10	1	-1E+10	1	-1E+10	1
4901784	227	C	09/21/2021	10:48	-136.876	43.116	0	192.80	0	8.4830	0	37.3160	8	29.021	0	191.179	0	185.1	4	66.3	4	-1E+10	1	-1E+10	1	-1E+10	1	-1E+10	1	-1E+10	1	-1E+10	1
4901784	227	C	09/21/2021	10:48	-136.876	43.116	0	195.40	0	8.4620	0	37.3270	8	29.034	0	193.756	0	184.7	4	66.1	4	-1E+10	1	-1E+10	1	-1E+10	1	-1E+10	1	-1E+10	1	-1E+10	1
4901784	227	C	09/21/2021	10:48	-136.876	43.116	0	197.20	0	8.4560	0	37.3280	8	29.035	0	195.540	0	184.3	4	66.0	4	-1E+10	1	-1E+10	1	-1E+10	1	-1E+10	1	-1E+10	1	-1E+10	1
4901784	227	C	09/21/2021	10:48	-136.876	43.116	0	199.80	0	8.4300	0	37.3410	8	29.050	0	198.117	0	184.1	4	65.9	4	-1E+10	1	-1E+10	1	-1E+10	1	-1E+10	1	-1E+10	1	-1E+10	1
4901784	227	C	09/21/2021	10:48	-136.876	43.116	0	202.30	0	8.4100	0	37.3590	8	29.067	0	200.594	0	183.8	4	65.8	4	-1E+10	1	-1E+10	1	-1E+10	1	-1E+10	1	-1E+10	1	-1E+10	1
4901784	227	C	09/21/2021	10:48	-136.876	43.116	0	204.80	0	8.4200	0	37.3740	8	29.077	0	203.072	0	183.4	4	65.7	4	-1E+10	1	-1E+10	1	-1E+10	1	-1E+10	1	-1E+10	1	-1E+10	1
4901784	227	C	09/21/2021	10:48	-136.876	43.116	0	207.40	0	8.4410	0	37.3900	8	29.087	0	205.649	0	182.5	4	65.4	4	-1E+10	1	-1E+10	1	-1E+10	1	-1E+10	1	-1E+10	1	-1E+10	1
4901784	227	C	09/21/2021	10:48	-136.876	43.116	0	210.00	0	8.3950	0	37.3870	8	29.092	0	208.226	0	181.8	4	65.1	4	-1E+10	1	-1E+10	1	-1E+10	1	-1E+10	1	-1E+10	1	-1E+10	1
4901784	227	C	09/21/2021	10:48	-136.876	43.116	0	212.40	0	8.2970	0	37.3890	8	29.109	0	210.604	0	181.0	4	64.6	4	-1E+10	1	-1E+10	1	-1E+10	1	-1E+10	1	-1E+10	1	-1E+10	1
4901784	227	C	09/21/2021	10:48	-136.876	43.116	0	215.00	0	8.2250	0	37.3890	8	29.120	0	213.181	0	180.3	4	64.3	4	-1E+10	1	-1E+10	1	-1E+10	1	-1E+10	1	-1E+10	1	-1E+10	1
4901784	227	C	09/21/2021	10:48	-136.876	43.116	0	217.50	0	8.1440	0	37.3950	8	29.138	0	215.658	0	179.8	4	64.0	4	-1E+10	1	-1E+10	1	-1E+10	1	-1E+10	1	-1E+10	1	-1E+10	1
4901784	227	C	09/21/2021	10:48	-136.876	43.116	0	220.00	0	8.1240	0	37.4060	8	29.150	0	218.136	0	179.2	4	63.7	4	-1E+10	1	-1E+10	1	-1E+10	1	-1E+10	1	-1E+10	1	-1E+10	1
4901784	227	C	09/21/2021	10:48	-136.876	43.116	0	222.50	0	8.0730	0	37.4170	8	29.166	0	220.613	0	178.4	4	63.4	4	-1E+10	1	-1E+10	1	-1E+10	1	-1E+10	1	-1E+10	1	-1E+10	1
4901784	227	C	09/21/2021	10:48	-136.876	43.116	0	225.00	0	8.0280	0	37.4190	8	29.175	0	223.091	0	178.0	4	63.2	4	-1E+10	1	-1E+10	1	-1E+10	1	-1E+10	1	-1E+10	1	-1E+10	1
4901784	227	C	09/21/2021	10:48	-136.876	43.116	0	227.50	0	8.1090	0	37.4380	8	29.177	0	225.568	0	177.4	4	63.1	4	-1E+10	1	-1E+10	1	-1E+10	1	-1E+10	1	-1E+10	1	-1E+10	1
4901784	227	C	09/21/2021	10:48	-136.876	43.116	0	230.00	0	8.0740	0	37.4330	8	29.179	0	228.046	0	176.1	4	62.6	4	-1E+10	1	-1E+10	1	-1E+10	1	-1E+10	1	-1E+10	1	-1E+10	1
4901784	227	C	09/21/2021	10:48	-136.876	43.116	0	232.60	0	7.9750	0	37.4290	8	29.191	0	230.622	0	175.4	4	62.2	4	-1E+10	1	-1E+10	1	-1E+10	1	-1E+10	1	-1E+10	1	-1E+10	1
4901784	227	C	09/21/2021	10:48	-136.876	43.116	0	235.10	0	7.8750	0	37.4320	8	29.209	0	233.099	0	175.0	4	61.9	4	-1E+10	1	-1E+10	1	-1E+10	1	-1E+10	1	-1E+10	1	-1E+10	1
4901784	227	C	09/21/2021	10:48	-136.876	43.116	0	237.70	0	7.8680	0	37.4430	8	29.219	0	235.676	0	175.6	4	62.1	4	-1E+10	1	-1E+10	1	-1E+10	1	-1E+10	1	-1E+10	1	-1E+10	1
4901784	227	C	09/21/2021	10:48	-136.876	43.116	0	240.30	0	7.8870	0	37.4540	8	29.225	0	238.252	0	175.9	4	62.3	4	-1E+10	1	-1E+10	1	-1E+10	1	-1E+10	1	-1E+10	1	-1E+10	1
4901784	227	C	09/21/2021	10:48	-136.876	43.116	0	242.80	0	7.8970	0	37.4620	8	29.229	0	240.729	0	176.1	4	62.4	4	-1E+10	1	-1E+10	1	-1E+10	1	-1E+10	1	-1E+10	1	-1E+10	1
4901784	227	C	09/21/2021	10:48	-136.876	43.116	0	244.50	0	7.8910	0	37.4600	8	29.229	0	242.414	0	175.7	4	62.2	4	-1E+10	1	-1E+10	1	-1E+10	1	-1E+10	1	-1E+10	1	-1E+10	1
4901784	227	C	09/21/2021	10:48	-136.876	43.116	0	247.20	0	7.8390	0	37.4620	8	29.238	0	245.089	0	174.7	4	61.8	4	-1E+10	1	-1E+10	1	-1E+10	1	-1E+10	1	-1E+10	1	-1E+10	1
4901784	227	C	09/21/2021	10:48	-136.876	43.116	0	249.80	0	7.8090	0	37.4610	8	29.242	0	247.666	0	173.1	4	61.2	4	-1E+10	1	-1E+10	1	-1E+10	1	-1E+10	1	-1E+10	1	-1E+10	1
4901784	227	C	09/21/2021	10:48	-136.876	43.116	0	252.40	0	7.7630	0	37.4550	8	29.245	0	250.242	0	171.2	4	60.4	4	-1E+10	1	-1E+10	1	-1E+10	1	-1E+10	1	-1E+10	1	-1E+10	1
4901784	227	C	09/21/2021	10:48	-136.876	43.116	0	255.00	0	7.6560	0	37.4600	8	29.265	0	252.818	0	169.3	4	59.6	4	-1E+10	1	-1E+10	1	-1E+10	1	-1E+10	1	-1E+10	1	-1E+10	1
4901784	227	C	09/21/2021	10:48	-136.876	43.116	0	257.70	0	7.6080	0	37.4580	8	29.271	0	255.493	0	168.2	4	59.2	4	-1E+10	1	-1E+10	1	-1E+10	1	-1E+10	1	-1E+10	1	-1E+10	1
4901784	227	C	09/21/2021	10:48	-136.876	43.116	0	260.30	0	7.5030	0	37.4580	8	29.286	0	258.069	0	166.9	4	58.6	4	-1E+10	1	-1E+10	1	-1E+10	1	-1E+10	1	-1E+10	1	-1E+10	1
4901784	227	C	09/21/2021	10:48	-136.876	43.116	0	262.10	0	7.4830	0	37.4580	8	29.289	0	259.853	0	165.7	4	58.1	4	-1E+10	1	-1E+10	1	-1E+10	1	-1E+10	1	-1E+10	1	-1E+10	1
4901784	227	C	09/21/2021	10:48	-136.876	43.116	0	264.70	0	7.4630	0	37.4620	8	29.296	0	262.429	0	163.6	4	57.4	4	-1E+10	1	-1E+10	1	-1E+10	1	-1E+10	1	-1E+10	1	-1E+10	1
4901784	227	C	09/21/2021	10:48	-136.876	43.116	0	267.50	0	7.4510	0	37.4640	8	29.299	0	265.203	0	161.7	4	56.7	4	-1E+10	1	-1E+10	1	-1E+10	1	-1E+10	1	-1E+10	1	-1E+10	1
4901784	227	C	09/21/2021	10:48	-136.876	43.116	0	270.20	0	7.4110	0	37.4680	8	29.308	0	267.878	0	160.3	4	56.1	4	-1E+10	1	-1E+10	1	-1E+10	1	-1E+10	1	-1E+10	1	-1E+10	1
4901784	227	C	09/21/2021	10:48	-136.876	43.116	0	272.90	0	7.3550	0	37.4670	8	29.316	0	270.553	0	158.8	4	55.5	4	-1E+10	1	-1E+10	1	-1E+10	1	-1E+10	1	-1E+10	1	-1E+10	1
4901784	227	C	09/21/2021	10:48	-136.876	43.116	0	274.80	0	7.3100	0	37.4670	8	29.323	0	272.435	0	157.5	4	55.1	4	-1E+10	1	-1E+10	1	-1E+10	1	-1E+10	1	-1E+10	1	-1E+10	1
4901784	227	C	09/21/2021	10:48	-136.876	43.116	0	277.50	0	7.2400	0	37.4750	8	29.339	0	275.110	0	155.7	4	54.3	4	-1E+10	1	-1E+10	1	-1E+10	1	-1E+10	1	-1E+10	1	-1E+10	1
4901784	227	C	09/21/2021	10:48	-136.876	43.116	0	280.30	0	7.1920	0	37.4730	8	29.345	0	277.884	0	154.1	4	53.7	4	-1E+10	1	-1E+10	1	-1E+10	1	-1E+10	1	-1E+10	1	-1E+10	1
4901784	227	C	09/21/2021	10:48	-136.876	43.116	0	282.10	0	7.1480	0	37.4770	8	29.354	0	279.668	0	153.1	4	53.3	4	-1E+10	1	-1E+10	1	-1E+10	1	-1E+10	1	-1E+10	1	-1E+10	1
4901784	227	C	09/21/2021	10:48	-136.876	43.116	0	284.90	0	7.1180	0	37.4800	8	29.361	0	282.442	0	151.3	4	52.6	4	-1E+10	1	-1E+10	1	-1E+10	1	-1E+10	1	-1E+10	1	-1E+10	1
4901784	227	C	09/21/2021	10:48	-136.876	43.116	0	287.60	0	7.0600	0	37.4860	8	29.374	0	285.117	0	150.1	4	52.2	4	-1E+10	1	-1E+10	1	-1E+10	1	-1E+10	1	-1E+10	1	-1E+10	1
4901784	227	C	09/21/2021	10:48	-136.876	43.116	0	289.50	0	6.9910	0	37.4850	8	29.384	0	286.999	0	149.4	4	51.8	4	-1E+10	1	-1E+10	1	-1E+10	1	-1E+10	1	-1E+10	1	-1E+10	1
4901784	227	C	09/21/2021	10:48	-136.876	43.116	0	292.30	0	6.9990	0	37.4890	8	29.386	0	289.773	0	147.7	4	51.3	4	-1E+10	1	-1E+10	1	-1E+10	1	-1E+10	1	-1E+10	1	-1E+10	1
4901784	227	C	09/21/2021	10:48	-136.876	43.116	0	295.10	0	7.0040	0	37.4880	8	29.384	0	292.546	0	146.0	4	50.7	4	-1E+10	1	-1E+10	1	-1E+10	1	-1E+10	1	-1E+10	1	-1E+10	1
4901784	227	C	09/21/2021	10:48	-136.876	43.116	0	297.00	0	6.9800	0	37.4900	8	29.389	0	294.429	0	144.9	4	50.3	4	-1E+10	1	-1E+10	1	-1E+10	1	-1E+10	1	-1E+10	1	-1E+10	1
4901784	227	C	09/21/2021	10:48	-136.876	43.116	0	299.90	0	6.9260	0	37.4930	8	29.400	0	297.301	0	143.0	4	49.6	4	-1E+10	1	-1E+10	1	-1E+10	1	-1E+10	1	-1E+10	1	-1E+10	1
4901784	227	C	09/21/2021	10:48	-136.876	43.116	0	302.70	0	6.8620	0	37.4990	8	29.414	0	300.075	0	141.5	4	49.0	4	-1E+10	1	-1E+10	1	-1E+10	1	-1E+10	1	-1E+10	1	-1E+10	1
4901784	227	C	09/21/2021	10:48	-136.876	43.116	0	304.60	0	6.8340	0	37.4980	8	29.417	0	301.957	0	140.3	4	48.5	4	-1E+10	1	-1E+10	1	-1E+10	1	-1E+10	1	-1E+10	1	-1E+10	1
4901784	227	C	09/21/2021	10:48	-136.876	43.116	0	307.50	0	6.8400	0	37.5020	8	29.419	0	304.830	0	138.0	4	47.7	4	-1E+10	1	-1E+10	1	-1E+10	1	-1E+10	1	-1E+10	1	-1E+10	1
4901784	227	C	09/21/2021	10:48	-136.876	43.116	0	310.40	0	6.8030	0	37.5050	8	29.427	0	307.703	0	136.5	4	47.2	4	-1E+10	1	-1E+10	1	-1E+10	1	-1E+10	1	-1E+10	1	-1E+10	1
4901784	227	C	09/21/2021	10:48	-136.876	43.116	0	312.20	0	6.7820	0	37.5050	8	29.430	0	309.486	0	135.6	4	46.8	4	-1E+10	1	-1E+10	1	-1E+10	1	-1E+10	1	-1E+10	1	-1E+10	1
4901784	227	C	09/21/2021	10:48	-136.876	43.116	0	315.10	0	6.7370	0	37.5060	8	29.437	0	312.358	0	134.7	4	46.5	4	-1E+10	1	-1E+10	1	-1E+10	1	-1E+10	1	-1E+10	1	-1E+10	1
4901784	227	C	09/21/2021	10:48	-136.876	43.116	0	318.00	0	6.6790	0	37.5090	8	29.448	0	315.231	0	134.2	4	46.2	4	-1E+10	1	-1E+10	1	-1E+10	1	-1E+10	1	-1E+10	1	-1E+10	1
4901784	227	C	09/21/2021	10:48	-136.876	43.116	0	319.90	0	6.6530	0	37.5090	8	29.451	0	317.113	0	133.6	4	46.0	4	-1E+10	1	-1E+10	1	-1E+10	1	-1E+10	1	-1E+10	1	-1E+10	1
4901784	227	C	09/21/2021	10:48	-136.876	43.116	0	322.70	0	6.6180	0	37.5100	8	29.457	0	319.886	0	132.4	4	45.6	4	-1E+10	1	-1E+10	1	-1E+10	1	-1E+10	1	-1E+10	1	-1E+10	1
4901784	227	C	09/21/2021	10:48	-136.876	43.116	0	325.60	0	6.5770	0	37.5100	8	29.463	0	322.759	0	131.1	4	45.1	4	-1E+10	1	-1E+10	1	-1E+10	1	-1E+10	1	-1E+10	1	-1E+10	1
4901784	227	C	09/21/2021	10:48	-136.876	43.116	0	327.60	0	6.5460	0	37.5110	8	29.468	0	324.740	0	130.1	4	44.7	4	-1E+10	1	-1E+10	1	-1E+10	1	-1E+10	1	-1E+10	1	-1E+10	1
4901784	227	C	09/21/2021	10:48	-136.876	43.116	0	329.40	0	6.5090	0	37.5150	8	29.476	0	326.523	0	129.3	4	44.4	4	-1E+10	1	-1E+10	1	-1E+10	1	-1E+10	1	-1E+10	1	-1E+10	1
4901784	227	C	09/21/2021	10:48	-136.876	43.116	0	332.30	0	6.4880	0	37.5160	8	29.480	0	329.395	0	127.9	4	43.9	4	-1E+10	1	-1E+10	1	-1E+10	1	-1E+10	1	-1E+10	1	-1E+10	1
4901784	227	C	09/21/2021	10:48	-136.876	43.116	0	335.20	0	6.4590	0	37.5160	8	29.484	0	332.267	0	126.4	4	43.3	4	-1E+10	1	-1E+10	1	-1E+10	1	-1E+10	1	-1E+10	1	-1E+10	1
4901784	227	C	09/21/2021	10:48	-136.876	43.116	0	337.10	0	6.4340	0	37.5180	8	29.489	0	334.149	0	125.2	4	42.9	4	-1E+10	1	-1E+10	1	-1E+10	1	-1E+10	1	-1E+10	1	-1E+10	1
4901784	227	C	09/21/2021	10:48	-136.876	43.116	0	340.00	0	6.4010	0	37.5190	8	29.495	0	337.021	0	123.2	4	42.2	4	-1E+10	1	-1E+10	1	-1E+10	1	-1E+10	1	-1E+10	1	-1E+10	1
4901784	227	C	09/21/2021	10:48	-136.876	43.116	0	342.90	0	6.3690	0	37.5220	8	29.502	0	339.894	0	121.0	4	41.4	4	-1E+10	1	-1E+10	1	-1E+10	1	-1E+10	1	-1E+10	1	-1E+10	1
4901784	227	C	09/21/2021	10:48	-136.876	43.116	0	344.70	0	6.3580	0	37.5220	8	29.503	0	341.676	0	120.5	4	41.2	4	-1E+10	1	-1E+10	1	-1E+10	1	-1E+10	1	-1E+10	1	-1E+10	1
4901784	227	C	09/21/2021	10:48	-136.876	43.116	0	347.60	0	6.3190	0	37.5230	8	29.509	0	344.549	0	119.4	4	40.8	4	-1E+10	1	-1E+10	1	-1E+10	1	-1E+10	1	-1E+10	1	-1E+10	1
4901784	227	C	09/21/2021	10:48	-136.876	43.116	0	350.50	0	6.2530	0	37.5250	8	29.520	0	347.421	0	118.3	4	40.4	4	-1E+10	1	-1E+10	1	-1E+10	1	-1E+10	1	-1E+10	1	-1E+10	1
4901784	227	C	09/21/2021	10:48	-136.876	43.116	0	352.40	0	6.2440	0	37.5240	8	29.520	0	349.302	0	117.5	4	40.1	4	-1E+10	1	-1E+10	1	-1E+10	1	-1E+10	1	-1E+10	1	-1E+10	1
4901784	227	C	09/21/2021	10:48	-136.876	43.116	0	355.20	0	6.2200	0	37.5260	8	29.525	0	352.075	0	115.8	4	39.5	4	-1E+10	1	-1E+10	1	-1E+10	1	-1E+10	1	-1E+10	1	-1E+10	1
4901784	227	C	09/21/2021	10:48	-136.876	43.116	0	358.10	0	6.1760	0	37.5300	8	29.535	0	354.947	0	114.4	4	39.0	4	-1E+10	1	-1E+10	1	-1E+10	1	-1E+10	1	-1E+10	1	-1E+10	1
4901784	227	C	09/21/2021	10:48	-136.876	43.116	0	360.00	0	6.1770	0	37.5290	8	29.534	0	356.829	0	113.8	4	38.8	4	-1E+10	1	-1E+10	1	-1E+10	1	-1E+10	1	-1E+10	1	-1E+10	1
4901784	227	C	09/21/2021	10:48	-136.876	43.116	0	362.00	0	6.1610	0	37.5290	8	29.536	0	358.810	0	113.0	4	38.5	4	-1E+10	1	-1E+10	1	-1E+10	1	-1E+10	1	-1E+10	1	-1E+10	1
4901784	227	C	09/21/2021	10:48	-136.876	43.116	0	365.00	0	6.1160	0	37.5330	8	29.545	0	361.781	0	111.9	4	38.1	4	-1E+10	1	-1E+10	1	-1E+10	1	-1E+10	1	-1E+10	1	-1E+10	1
4901784	227	C	09/21/2021	10:48	-136.876	43.116	0	367.90	0	6.0840	0	37.5350	8	29.551	0	364.652	0	110.9	4	37.7	4	-1E+10	1	-1E+10	1	-1E+10	1	-1E+10	1	-1E+10	1	-1E+10	1
4901784	227	C	09/21/2021	10:48	-136.876	43.116	0	369.80	0	6.0760	0	37.5340	8	29.551	0	366.534	0	110.4	4	37.5	4	-1E+10	1	-1E+10	1	-1E+10	1	-1E+10	1	-1E+10	1	-1E+10	1
4901784	227	C	09/21/2021	10:48	-136.876	43.116	0	372.70	0	6.0570	0	37.5360	8	29.556	0	369.406	0	109.4	4	37.2	4	-1E+10	1	-1E+10	1	-1E+10	1	-1E+10	1	-1E+10	1	-1E+10	1
4901784	227	C	09/21/2021	10:48	-136.876	43.116	0	375.60	0	6.0360	0	37.5360	8	29.558	0	372.278	0	108.4	4	36.8	4	-1E+10	1	-1E+10	1	-1E+10	1	-1E+10	1	-1E+10	1	-1E+10	1
4901784	227	C	09/21/2021	10:48	-136.876	43.116	0	377.50	0	6.0210	0	37.5380	8	29.562	0	374.159	0	107.7	4	36.6	4	-1E+10	1	-1E+10	1	-1E+10	1	-1E+10	1	-1E+10	1	-1E+10	1
4901784	227	C	09/21/2021	10:48	-136.876	43.116	0	379.40	0	6.0010	0	37.5400	8	29.566	0	376.041	0	107.0	4	36.3	4	-1E+10	1	-1E+10	1	-1E+10	1	-1E+10	1	-1E+10	1	-1E+10	1
4901784	227	C	09/21/2021	10:48	-136.876	43.116	0	382.40	0	5.9770	0	37.5410	8	29.570	0	379.011	0	106.2	4	36.0	4	-1E+10	1	-1E+10	1	-1E+10	1	-1E+10	1	-1E+10	1	-1E+10	1
4901784	227	C	09/21/2021	10:48	-136.876	43.116	0	384.80	0	5.9590	0	37.5420	8	29.574	0	381.388	0	105.3	4	35.7	4	-1E+10	1	-1E+10	1	-1E+10	1	-1E+10	1	-1E+10	1	-1E+10	1
4901784	227	C	09/21/2021	10:48	-136.876	43.116	0	387.30	0	5.9260	0	37.5440	8	29.580	0	383.863	0	104.5	4	35.4	4	-1E+10	1	-1E+10	1	-1E+10	1	-1E+10	1	-1E+10	1	-1E+10	1
4901784	227	C	09/21/2021	10:48	-136.876	43.116	0	389.70	0	5.8970	0	37.5460	8	29.585	0	386.240	0	103.7	4	35.1	4	-1E+10	1	-1E+10	1	-1E+10	1	-1E+10	1	-1E+10	1	-1E+10	1
4901784	227	C	09/21/2021	10:48	-136.876	43.116	0	392.20	0	5.8800	0	37.5470	8	29.588	0	388.715	0	102.7	4	34.8	4	-1E+10	1	-1E+10	1	-1E+10	1	-1E+10	1	-1E+10	1	-1E+10	1
4901784	227	C	09/21/2021	10:48	-136.876	43.116	0	394.70	0	5.8490	0	37.5480	8	29.593	0	391.191	0	101.9	4	34.5	4	-1E+10	1	-1E+10	1	-1E+10	1	-1E+10	1	-1E+10	1	-1E+10	1
4901784	227	C	09/21/2021	10:48	-136.876	43.116	0	397.20	0	5.8240	0	37.5500	8	29.598	0	393.666	0	100.7	4	34.0	4	-1E+10	1	-1E+10	1	-1E+10	1	-1E+10	1	-1E+10	1	-1E+10	1
4901784	227	C	09/21/2021	10:48	-136.876	43.116	0	399.70	0	5.8020	0	37.5510	8	29.602	0	396.141	0	99.9	4	33.7	4	-1E+10	1	-1E+10	1	-1E+10	1	-1E+10	1	-1E+10	1	-1E+10	1
4901784	227	C	09/21/2021	10:48	-136.876	43.116	0	402.20	0	5.7810	0	37.5510	8	29.604	0	398.617	0	99.1	4	33.5	4	-1E+10	1	-1E+10	1	-1E+10	1	-1E+10	1	-1E+10	1	-1E+10	1
4901784	227	C	09/21/2021	10:48	-136.876	43.116	0	404.70	0	5.7580	0	37.5530	8	29.609	0	401.092	0	98.1	4	33.1	4	-1E+10	1	-1E+10	1	-1E+10	1	-1E+10	1	-1E+10	1	-1E+10	1
4901784	227	C	09/21/2021	10:48	-136.876	43.116	0	407.20	0	5.7360	0	37.5540	8	29.613	0	403.567	0	97.0	4	32.7	4	-1E+10	1	-1E+10	1	-1E+10	1	-1E+10	1	-1E+10	1	-1E+10	1
4901784	227	C	09/21/2021	10:48	-136.876	43.116	0	409.70	0	5.7150	0	37.5540	8	29.616	0	406.043	0	95.9	4	32.3	4	-1E+10	1	-1E+10	1	-1E+10	1	-1E+10	1	-1E+10	1	-1E+10	1
4901784	227	C	09/21/2021	10:48	-136.876	43.116	0	412.30	0	5.6950	0	37.5540	8	29.618	0	408.617	0	94.9	4	32.0	4	-1E+10	1	-1E+10	1	-1E+10	1	-1E+10	1	-1E+10	1	-1E+10	1
4901784	227	C	09/21/2021	10:48	-136.876	43.116	0	414.80	0	5.6750	0	37.5540	8	29.621	0	411.092	0	93.7	4	31.5	4	-1E+10	1	-1E+10	1	-1E+10	1	-1E+10	1	-1E+10	1	-1E+10	1
4901784	227	C	09/21/2021	10:48	-136.876	43.116	0	417.40	0	5.6120	0	37.5580	8	29.632	0	413.666	0	92.2	4	31.0	4	-1E+10	1	-1E+10	1	-1E+10	1	-1E+10	1	-1E+10	1	-1E+10	1
4901784	227	C	09/21/2021	10:48	-136.876	43.116	0	420.00	0	5.5880	0	37.5590	8	29.636	0	416.240	0	91.3	4	30.7	4	-1E+10	1	-1E+10	1	-1E+10	1	-1E+10	1	-1E+10	1	-1E+10	1
4901784	227	C	09/21/2021	10:48	-136.876	43.116	0	422.60	0	5.5730	0	37.5590	8	29.638	0	418.814	0	90.6	4	30.5	4	-1E+10	1	-1E+10	1	-1E+10	1	-1E+10	1	-1E+10	1	-1E+10	1
4901784	227	C	09/21/2021	10:48	-136.876	43.116	0	425.30	0	5.5120	0	37.5580	8	29.645	0	421.488	0	90.4	4	30.3	4	-1E+10	1	-1E+10	1	-1E+10	1	-1E+10	1	-1E+10	1	-1E+10	1
4901784	227	C	09/21/2021	10:48	-136.876	43.116	0	427.90	0	5.4380	0	37.5620	8	29.658	0	424.062	0	89.4	4	29.9	4	-1E+10	1	-1E+10	1	-1E+10	1	-1E+10	1	-1E+10	1	-1E+10	1
4901784	227	C	09/21/2021	10:48	-136.876	43.116	0	429.60	0	5.4190	0	37.5630	8	29.661	0	425.745	0	88.6	4	29.7	4	-1E+10	1	-1E+10	1	-1E+10	1	-1E+10	1	-1E+10	1	-1E+10	1
4901784	227	C	09/21/2021	10:48	-136.876	43.116	0	432.20	0	5.3790	0	37.5660	8	29.669	0	428.319	0	87.4	4	29.2	4	-1E+10	1	-1E+10	1	-1E+10	1	-1E+10	1	-1E+10	1	-1E+10	1
4901784	227	C	09/21/2021	10:48	-136.876	43.116	0	434.80	0	5.3660	0	37.5720	8	29.675	0	430.892	0	86.2	4	28.8	4	-1E+10	1	-1E+10	1	-1E+10	1	-1E+10	1	-1E+10	1	-1E+10	1
4901784	227	C	09/21/2021	10:48	-136.876	43.116	0	437.40	0	5.3530	0	37.5730	8	29.678	0	433.466	0	85.2	4	28.5	4	-1E+10	1	-1E+10	1	-1E+10	1	-1E+10	1	-1E+10	1	-1E+10	1
4901784	227	C	09/21/2021	10:48	-136.876	43.116	0	440.10	0	5.3360	0	37.5760	8	29.682	0	436.139	0	84.1	4	28.1	4	-1E+10	1	-1E+10	1	-1E+10	1	-1E+10	1	-1E+10	1	-1E+10	1
4901784	227	C	09/21/2021	10:48	-136.876	43.116	0	442.70	0	5.3260	0	37.5760	8	29.683	0	438.713	0	83.1	4	27.8	4	-1E+10	1	-1E+10	1	-1E+10	1	-1E+10	1	-1E+10	1	-1E+10	1
4901784	227	C	09/21/2021	10:48	-136.876	43.116	0	445.40	0	5.3160	0	37.5780	8	29.686	0	441.386	0	81.6	4	27.3	4	-1E+10	1	-1E+10	1	-1E+10	1	-1E+10	1	-1E+10	1	-1E+10	1
4901784	227	C	09/21/2021	10:48	-136.876	43.116	0	447.20	0	5.2870	0	37.5800	8	29.692	0	443.168	0	80.6	4	26.9	4	-1E+10	1	-1E+10	1	-1E+10	1	-1E+10	1	-1E+10	1	-1E+10	1
4901784	227	C	09/21/2021	10:48	-136.876	43.116	0	449.80	0	5.2860	0	37.5840	8	29.695	0	445.742	0	78.9	4	26.3	4	-1E+10	1	-1E+10	1	-1E+10	1	-1E+10	1	-1E+10	1	-1E+10	1
4901784	227	C	09/21/2021	10:48	-136.876	43.116	0	452.50	0	5.2970	0	37.5870	8	29.696	0	448.414	0	77.5	4	25.9	4	-1E+10	1	-1E+10	1	-1E+10	1	-1E+10	1	-1E+10	1	-1E+10	1
4901784	227	C	09/21/2021	10:48	-136.876	43.116	0	455.30	0	5.2770	0	37.5890	8	29.700	0	451.186	0	76.8	4	25.6	4	-1E+10	1	-1E+10	1	-1E+10	1	-1E+10	1	-1E+10	1	-1E+10	1
4901784	227	C	09/21/2021	10:48	-136.876	43.116	0	458.10	0	5.2570	0	37.5910	8	29.704	0	453.958	0	76.0	4	25.4	4	-1E+10	1	-1E+10	1	-1E+10	1	-1E+10	1	-1E+10	1	-1E+10	1
4901784	227	C	09/21/2021	10:48	-136.876	43.116	0	459.90	0	5.2550	0	37.5900	8	29.704	0	455.739	0	75.5	4	25.2	4	-1E+10	1	-1E+10	1	-1E+10	1	-1E+10	1	-1E+10	1	-1E+10	1
4901784	227	C	09/21/2021	10:48	-136.876	43.116	0	462.60	0	5.2210	0	37.5940	8	29.711	0	458.412	0	74.5	4	24.8	4	-1E+10	1	-1E+10	1	-1E+10	1	-1E+10	1	-1E+10	1	-1E+10	1
4901784	227	C	09/21/2021	10:48	-136.876	43.116	0	465.40	0	5.1910	0	37.5970	8	29.717	0	461.184	0	73.8	4	24.6	4	-1E+10	1	-1E+10	1	-1E+10	1	-1E+10	1	-1E+10	1	-1E+10	1
4901784	227	C	09/21/2021	10:48	-136.876	43.116	0	467.20	0	5.1890	0	37.5950	8	29.716	0	462.965	0	73.3	4	24.4	4	-1E+10	1	-1E+10	1	-1E+10	1	-1E+10	1	-1E+10	1	-1E+10	1
4901784	227	C	09/21/2021	10:48	-136.876	43.116	0	470.00	0	5.1610	0	37.6000	8	29.723	0	465.737	0	72.4	4	24.1	4	-1E+10	1	-1E+10	1	-1E+10	1	-1E+10	1	-1E+10	1	-1E+10	1
4901784	227	C	09/21/2021	10:48	-136.876	43.116	0	472.70	0	5.1340	0	37.6020	8	29.728	0	468.409	0	71.8	4	23.9	4	-1E+10	1	-1E+10	1	-1E+10	1	-1E+10	1	-1E+10	1	-1E+10	1
4901784	227	C	09/21/2021	10:48	-136.876	43.116	0	474.50	0	5.1270	0	37.6030	8	29.730	0	470.191	0	71.3	4	23.7	4	-1E+10	1	-1E+10	1	-1E+10	1	-1E+10	1	-1E+10	1	-1E+10	1
4901784	227	C	09/21/2021	10:48	-136.876	43.116	0	477.40	0	5.1020	0	37.6050	8	29.735	0	473.061	0	70.5	4	23.5	4	-1E+10	1	-1E+10	1	-1E+10	1	-1E+10	1	-1E+10	1	-1E+10	1
4901784	227	C	09/21/2021	10:48	-136.876	43.116	0	480.20	0	5.0730	0	37.6080	8	29.741	0	475.833	0	69.8	4	23.2	4	-1E+10	1	-1E+10	1	-1E+10	1	-1E+10	1	-1E+10	1	-1E+10	1
4901784	227	C	09/21/2021	10:48	-136.876	43.116	0	482.00	0	5.0690	0	37.6080	8	29.741	0	477.614	0	69.2	4	23.0	4	-1E+10	1	-1E+10	1	-1E+10	1	-1E+10	1	-1E+10	1	-1E+10	1
4901784	227	C	09/21/2021	10:48	-136.876	43.116	0	484.80	0	5.0480	0	37.6120	8	29.747	0	480.385	0	68.4	4	22.7	4	-1E+10	1	-1E+10	1	-1E+10	1	-1E+10	1	-1E+10	1	-1E+10	1
4901784	227	C	09/21/2021	10:48	-136.876	43.116	0	487.70	0	5.0320	0	37.6130	8	29.750	0	483.256	0	67.7	4	22.5	4	-1E+10	1	-1E+10	1	-1E+10	1	-1E+10	1	-1E+10	1	-1E+10	1
4901784	227	C	09/21/2021	10:48	-136.876	43.116	0	489.50	0	5.0170	0	37.6150	8	29.753	0	485.037	0	67.1	4	22.3	4	-1E+10	1	-1E+10	1	-1E+10	1	-1E+10	1	-1E+10	1	-1E+10	1
4901784	227	C	09/21/2021	10:48	-136.876	43.116	0	492.40	0	4.9950	0	37.6170	8	29.758	0	487.907	0	66.2	4	22.0	4	-1E+10	1	-1E+10	1	-1E+10	1	-1E+10	1	-1E+10	1	-1E+10	1
4901784	227	C	09/21/2021	10:48	-136.876	43.116	0	495.10	0	4.9770	0	37.6180	8	29.761	0	490.579	0	65.2	4	21.6	4	-1E+10	1	-1E+10	1	-1E+10	1	-1E+10	1	-1E+10	1	-1E+10	1
4901784	227	C	09/21/2021	10:48	-136.876	43.116	0	497.00	0	4.9650	0	37.6210	8	29.765	0	492.460	0	64.3	4	21.3	4	-1E+10	1	-1E+10	1	-1E+10	1	-1E+10	1	-1E+10	1	-1E+10	1
4901784	227	C	09/21/2021	10:48	-136.876	43.116	0	499.90	0	4.9410	0	37.6250	8	29.771	0	495.330	0	63.3	4	21.0	4	-1E+10	1	-1E+10	1	-1E+10	1	-1E+10	1	-1E+10	1	-1E+10	1
4901784	227	C	09/21/2021	10:48	-136.876	43.116	0	504.70	0	4.9070	0	37.6320	8	29.780	0	500.080	0	62.0	4	20.5	4	-1E+10	1	-1E+10	1	-1E+10	1	-1E+10	1	-1E+10	1	-1E+10	1
4901784	227	C	09/21/2021	10:48	-136.876	43.116	0	509.50	0	4.8850	0	37.6350	8	29.786	0	504.830	0	61.1	4	20.2	4	-1E+10	1	-1E+10	1	-1E+10	1	-1E+10	1	-1E+10	1	-1E+10	1
4901784	227	C	09/21/2021	10:48	-136.876	43.116	0	514.20	0	4.8550	0	37.6390	8	29.792	0	509.482	0	60.2	4	19.9	4	-1E+10	1	-1E+10	1	-1E+10	1	-1E+10	1	-1E+10	1	-1E+10	1
4901784	227	C	09/21/2021	10:48	-136.876	43.116	0	519.70	0	4.8120	0	37.6470	8	29.804	0	514.924	0	59.1	4	19.5	4	-1E+10	1	-1E+10	1	-1E+10	1	-1E+10	1	-1E+10	1	-1E+10	1
4901784	227	C	09/21/2021	10:48	-136.876	43.116	0	524.50	0	4.7950	0	37.6490	8	29.808	0	519.674	0	58.1	4	19.2	4	-1E+10	1	-1E+10	1	-1E+10	1	-1E+10	1	-1E+10	1	-1E+10	1
4901784	227	C	09/21/2021	10:48	-136.876	43.116	0	529.40	0	4.7700	0	37.6530	8	29.814	0	524.523	0	56.5	4	18.6	4	-1E+10	1	-1E+10	1	-1E+10	1	-1E+10	1	-1E+10	1	-1E+10	1
4901784	227	C	09/21/2021	10:48	-136.876	43.116	0	534.30	0	4.7530	0	37.6590	8	29.821	0	529.372	0	55.0	4	18.1	4	-1E+10	1	-1E+10	1	-1E+10	1	-1E+10	1	-1E+10	1	-1E+10	1
4901784	227	C	09/21/2021	10:48	-136.876	43.116	0	540.00	0	4.7140	0	37.6650	8	29.830	0	535.012	0	54.0	4	17.8	4	-1E+10	1	-1E+10	1	-1E+10	1	-1E+10	1	-1E+10	1	-1E+10	1
4901784	227	C	09/21/2021	10:48	-136.876	43.116	0	545.70	0	4.6780	0	37.6690	8	29.838	0	540.652	0	53.0	4	17.5	4	-1E+10	1	-1E+10	1	-1E+10	1	-1E+10	1	-1E+10	1	-1E+10	1
4901784	227	C	09/21/2021	10:48	-136.876	43.116	0	550.60	0	4.6490	0	37.6750	8	29.846	0	545.500	0	51.6	4	17.0	4	-1E+10	1	-1E+10	1	-1E+10	1	-1E+10	1	-1E+10	1	-1E+10	1
4901784	227	C	09/21/2021	10:48	-136.876	43.116	0	555.60	0	4.6290	0	37.6810	8	29.853	0	550.447	0	50.2	4	16.5	4	-1E+10	1	-1E+10	1	-1E+10	1	-1E+10	1	-1E+10	1	-1E+10	1
4901784	227	C	09/21/2021	10:48	-136.876	43.116	0	560.50	0	4.6040	0	37.6840	8	29.859	0	555.295	0	48.9	4	16.1	4	-1E+10	1	-1E+10	1	-1E+10	1	-1E+10	1	-1E+10	1	-1E+10	1
4901784	227	C	09/21/2021	10:48	-136.876	43.116	0	565.50	0	4.5730	0	37.6920	8	29.869	0	560.242	0	47.0	4	15.4	4	-1E+10	1	-1E+10	1	-1E+10	1	-1E+10	1	-1E+10	1	-1E+10	1
4901784	227	C	09/21/2021	10:48	-136.876	43.116	0	570.60	0	4.5610	0	37.7020	8	29.878	0	565.287	0	45.0	4	14.8	4	-1E+10	1	-1E+10	1	-1E+10	1	-1E+10	1	-1E+10	1	-1E+10	1
4901784	227	C	09/21/2021	10:48	-136.876	43.116	0	575.60	0	4.5550	0	37.7080	8	29.884	0	570.234	0	43.7	4	14.4	4	-1E+10	1	-1E+10	1	-1E+10	1	-1E+10	1	-1E+10	1	-1E+10	1
4901784	227	C	09/21/2021	10:48	-136.876	43.116	0	579.90	0	4.5410	0	37.7120	8	29.889	0	574.488	0	42.7	4	14.0	4	-1E+10	1	-1E+10	1	-1E+10	1	-1E+10	1	-1E+10	1	-1E+10	1
4901784	227	C	09/21/2021	10:48	-136.876	43.116	0	584.20	0	4.5240	0	37.7170	8	29.895	0	578.742	0	41.7	4	13.7	4	-1E+10	1	-1E+10	1	-1E+10	1	-1E+10	1	-1E+10	1	-1E+10	1
4901784	227	C	09/21/2021	10:48	-136.876	43.116	0	589.40	0	4.4940	0	37.7230	8	29.903	0	583.886	0	40.4	4	13.3	4	-1E+10	1	-1E+10	1	-1E+10	1	-1E+10	1	-1E+10	1	-1E+10	1
4901784	227	C	09/21/2021	10:48	-136.876	43.116	0	594.70	0	4.4620	0	37.7300	8	29.912	0	589.129	0	39.0	4	12.8	4	-1E+10	1	-1E+10	1	-1E+10	1	-1E+10	1	-1E+10	1	-1E+10	1
4901784	227	C	09/21/2021	10:48	-136.876	43.116	0	599.90	0	4.4570	0	37.7390	8	29.920	0	594.273	0	36.8	4	12.1	4	-1E+10	1	-1E+10	1	-1E+10	1	-1E+10	1	-1E+10	1	-1E+10	1
4901784	227	C	09/21/2021	10:48	-136.876	43.116	0	605.20	0	4.4410	0	37.7480	8	29.929	0	599.515	0	35.8	4	11.7	4	-1E+10	1	-1E+10	1	-1E+10	1	-1E+10	1	-1E+10	1	-1E+10	1
4901784	227	C	09/21/2021	10:48	-136.876	43.116	0	610.60	0	4.4280	0	37.7520	8	29.934	0	604.857	0	34.7	4	11.4	4	-1E+10	1	-1E+10	1	-1E+10	1	-1E+10	1	-1E+10	1	-1E+10	1
4901784	227	C	09/21/2021	10:48	-136.876	43.116	0	615.00	0	4.4130	0	37.7590	8	29.941	0	609.209	0	33.6	4	11.0	4	-1E+10	1	-1E+10	1	-1E+10	1	-1E+10	1	-1E+10	1	-1E+10	1
4901784	227	C	09/21/2021	10:48	-136.876	43.116	0	619.40	0	4.4030	0	37.7640	8	29.946	0	613.561	0	32.5	4	10.6	4	-1E+10	1	-1E+10	1	-1E+10	1	-1E+10	1	-1E+10	1	-1E+10	1
4901784	227	C	09/21/2021	10:48	-136.876	43.116	0	624.80	0	4.3860	0	37.7720	8	29.955	0	618.902	0	31.2	4	10.2	4	-1E+10	1	-1E+10	1	-1E+10	1	-1E+10	1	-1E+10	1	-1E+10	1
4901784	227	C	09/21/2021	10:48	-136.876	43.116	0	630.30	0	4.3880	0	37.7770	8	29.959	0	624.342	0	29.7	4	9.7	4	-1E+10	1	-1E+10	1	-1E+10	1	-1E+10	1	-1E+10	1	-1E+10	1
4901784	227	C	09/21/2021	10:48	-136.876	43.116	0	634.80	0	4.3940	0	37.7840	8	29.964	0	628.793	0	28.3	4	9.3	4	-1E+10	1	-1E+10	1	-1E+10	1	-1E+10	1	-1E+10	1	-1E+10	1
4901784	227	C	09/21/2021	10:48	-136.876	43.116	0	639.40	0	4.3870	0	37.7890	8	29.968	0	633.342	0	27.2	4	8.9	4	-1E+10	1	-1E+10	1	-1E+10	1	-1E+10	1	-1E+10	1	-1E+10	1
4901784	227	C	09/21/2021	10:48	-136.876	43.116	0	645.00	0	4.3660	0	37.7970	8	29.977	0	638.881	0	25.9	4	8.5	4	-1E+10	1	-1E+10	1	-1E+10	1	-1E+10	1	-1E+10	1	-1E+10	1
4901784	227	C	09/21/2021	10:48	-136.876	43.116	0	649.80	0	4.3360	0	37.8060	8	29.988	0	643.628	0	24.8	4	8.1	4	-1E+10	1	-1E+10	1	-1E+10	1	-1E+10	1	-1E+10	1	-1E+10	1
4901784	227	C	09/21/2021	10:48	-136.876	43.116	0	654.50	0	4.3200	0	37.8140	8	29.996	0	648.276	0	23.9	4	7.8	4	-1E+10	1	-1E+10	1	-1E+10	1	-1E+10	1	-1E+10	1	-1E+10	1
4901784	227	C	09/21/2021	10:48	-136.876	43.116	0	660.20	0	4.3070	0	37.8200	8	30.003	0	653.913	0	23.1	4	7.6	4	-1E+10	1	-1E+10	1	-1E+10	1	-1E+10	1	-1E+10	1	-1E+10	1
4901784	227	C	09/21/2021	10:48	-136.876	43.116	0	665.00	0	4.2880	0	37.8250	8	30.009	0	658.659	0	22.6	4	7.4	4	-1E+10	1	-1E+10	1	-1E+10	1	-1E+10	1	-1E+10	1	-1E+10	1
4901784	227	C	09/21/2021	10:48	-136.876	43.116	0	669.80	0	4.2680	0	37.8310	8	30.016	0	663.406	0	21.9	4	7.2	4	-1E+10	1	-1E+10	1	-1E+10	1	-1E+10	1	-1E+10	1	-1E+10	1
4901784	227	C	09/21/2021	10:48	-136.876	43.116	0	675.50	0	4.2590	0	37.8370	8	30.022	0	669.042	0	21.1	4	6.9	4	-1E+10	1	-1E+10	1	-1E+10	1	-1E+10	1	-1E+10	1	-1E+10	1
4901784	227	C	09/21/2021	10:48	-136.876	43.116	0	680.40	0	4.2470	0	37.8420	8	30.027	0	673.888	0	20.5	4	6.7	4	-1E+10	1	-1E+10	1	-1E+10	1	-1E+10	1	-1E+10	1	-1E+10	1
4901784	227	C	09/21/2021	10:48	-136.876	43.116	0	685.20	0	4.2340	0	37.8470	8	30.033	0	678.634	0	19.9	4	6.5	4	-1E+10	1	-1E+10	1	-1E+10	1	-1E+10	1	-1E+10	1	-1E+10	1
4901784	227	C	09/21/2021	10:48	-136.876	43.116	0	689.90	0	4.2300	0	37.8520	8	30.037	0	683.281	0	19.2	4	6.3	4	-1E+10	1	-1E+10	1	-1E+10	1	-1E+10	1	-1E+10	1	-1E+10	1
4901784	227	C	09/21/2021	10:48	-136.876	43.116	0	694.70	0	4.2370	0	37.8580	8	30.041	0	688.027	0	18.6	4	6.1	4	-1E+10	1	-1E+10	1	-1E+10	1	-1E+10	1	-1E+10	1	-1E+10	1
4901784	227	C	09/21/2021	10:48	-136.876	43.116	0	700.30	0	4.2230	0	37.8640	8	30.048	0	693.564	0	18.1	4	5.9	4	-1E+10	1	-1E+10	1	-1E+10	1	-1E+10	1	-1E+10	1	-1E+10	1
4901784	227	C	09/21/2021	10:48	-136.876	43.116	0	705.40	0	4.2020	0	37.8690	8	30.054	0	698.606	0	17.8	4	5.8	4	-1E+10	1	-1E+10	1	-1E+10	1	-1E+10	1	-1E+10	1	-1E+10	1
4901784	227	C	09/21/2021	10:48	-136.876	43.116	0	709.90	0	4.2010	0	37.8740	8	30.058	0	703.055	0	17.4	4	5.7	4	-1E+10	1	-1E+10	1	-1E+10	1	-1E+10	1	-1E+10	1	-1E+10	1
4901784	227	C	09/21/2021	10:48	-136.876	43.116	0	714.80	0	4.1860	0	37.8770	8	30.062	0	707.900	0	17.3	4	5.6	4	-1E+10	1	-1E+10	1	-1E+10	1	-1E+10	1	-1E+10	1	-1E+10	1
4901784	227	C	09/21/2021	10:48	-136.876	43.116	0	719.70	0	4.1580	0	37.8800	8	30.068	0	712.744	0	17.2	4	5.6	4	-1E+10	1	-1E+10	1	-1E+10	1	-1E+10	1	-1E+10	1	-1E+10	1
4901784	227	C	09/21/2021	10:48	-136.876	43.116	0	724.60	0	4.1490	0	37.8830	8	30.071	0	717.588	0	16.9	4	5.5	4	-1E+10	1	-1E+10	1	-1E+10	1	-1E+10	1	-1E+10	1	-1E+10	1
4901784	227	C	09/21/2021	10:48	-136.876	43.116	0	729.60	0	4.1350	0	37.8890	8	30.078	0	722.531	0	16.5	4	5.4	4	-1E+10	1	-1E+10	1	-1E+10	1	-1E+10	1	-1E+10	1	-1E+10	1
4901784	227	C	09/21/2021	10:48	-136.876	43.116	0	734.60	0	4.1310	0	37.8920	8	30.081	0	727.474	0	16.1	4	5.3	4	-1E+10	1	-1E+10	1	-1E+10	1	-1E+10	1	-1E+10	1	-1E+10	1
4901784	227	C	09/21/2021	10:48	-136.876	43.116	0	739.60	0	4.1200	0	37.8980	8	30.087	0	732.417	0	15.6	4	5.1	4	-1E+10	1	-1E+10	1	-1E+10	1	-1E+10	1	-1E+10	1	-1E+10	1
4901784	227	C	09/21/2021	10:48	-136.876	43.116	0	744.70	0	4.1010	0	37.9040	8	30.094	0	737.458	0	15.3	4	5.0	4	-1E+10	1	-1E+10	1	-1E+10	1	-1E+10	1	-1E+10	1	-1E+10	1
4901784	227	C	09/21/2021	10:48	-136.876	43.116	0	749.80	0	4.0720	0	37.9100	8	30.102	0	742.500	0	15.0	4	4.9	4	-1E+10	1	-1E+10	1	-1E+10	1	-1E+10	1	-1E+10	1	-1E+10	1
4901784	227	C	09/21/2021	10:48	-136.876	43.116	0	755.00	0	4.0580	0	37.9160	8	30.108	0	747.640	0	14.6	4	4.7	4	-1E+10	1	-1E+10	1	-1E+10	1	-1E+10	1	-1E+10	1	-1E+10	1
4901784	227	C	09/21/2021	10:48	-136.876	43.116	0	760.20	0	4.0430	0	37.9220	8	30.115	0	752.780	0	14.1	4	4.6	4	-1E+10	1	-1E+10	1	-1E+10	1	-1E+10	1	-1E+10	1	-1E+10	1
4901784	227	C	09/21/2021	10:48	-136.876	43.116	0	765.40	0	4.0550	0	37.9300	8	30.120	0	757.920	0	13.5	4	4.4	4	-1E+10	1	-1E+10	1	-1E+10	1	-1E+10	1	-1E+10	1	-1E+10	1
4901784	227	C	09/21/2021	10:48	-136.876	43.116	0	770.60	0	4.0480	0	37.9370	8	30.126	0	763.059	0	13.3	4	4.3	4	-1E+10	1	-1E+10	1	-1E+10	1	-1E+10	1	-1E+10	1	-1E+10	1
4901784	227	C	09/21/2021	10:48	-136.876	43.116	0	775.70	0	4.0290	0	37.9400	8	30.131	0	768.100	0	13.1	4	4.3	4	-1E+10	1	-1E+10	1	-1E+10	1	-1E+10	1	-1E+10	1	-1E+10	1
4901784	227	C	09/21/2021	10:48	-136.876	43.116	0	780.00	0	4.0080	0	37.9440	8	30.136	0	772.350	0	12.9	4	4.2	4	-1E+10	1	-1E+10	1	-1E+10	1	-1E+10	1	-1E+10	1	-1E+10	1
4901784	227	C	09/21/2021	10:48	-136.876	43.116	0	784.40	0	4.0180	0	37.9480	8	30.138	0	776.699	0	12.6	4	4.1	4	-1E+10	1	-1E+10	1	-1E+10	1	-1E+10	1	-1E+10	1	-1E+10	1
4901784	227	C	09/21/2021	10:48	-136.876	43.116	0	789.70	0	4.0110	0	37.9540	8	30.144	0	781.937	0	12.4	4	4.0	4	-1E+10	1	-1E+10	1	-1E+10	1	-1E+10	1	-1E+10	1	-1E+10	1
4901784	227	C	09/21/2021	10:48	-136.876	43.116	0	794.90	0	3.9880	0	37.9570	8	30.149	0	787.076	0	12.4	4	4.0	4	-1E+10	1	-1E+10	1	-1E+10	1	-1E+10	1	-1E+10	1	-1E+10	1
4901784	227	C	09/21/2021	10:48	-136.876	43.116	0	800.10	0	3.9620	0	37.9610	8	30.155	0	792.215	0	12.3	4	4.0	4	-1E+10	1	-1E+10	1	-1E+10	1	-1E+10	1	-1E+10	1	-1E+10	1
4901784	227	C	09/21/2021	10:48	-136.876	43.116	0	805.20	0	3.9450	0	37.9670	8	30.162	0	797.255	0	12.0	4	3.9	4	-1E+10	1	-1E+10	1	-1E+10	1	-1E+10	1	-1E+10	1	-1E+10	1
4901784	227	C	09/21/2021	10:48	-136.876	43.116	0	810.50	0	3.9360	0	37.9730	8	30.168	0	802.492	0	11.7	4	3.8	4	-1E+10	1	-1E+10	1	-1E+10	1	-1E+10	1	-1E+10	1	-1E+10	1
4901784	227	C	09/21/2021	10:48	-136.876	43.116	0	814.90	0	3.9280	0	37.9770	8	30.172	0	806.840	0	11.5	4	3.7	4	-1E+10	1	-1E+10	1	-1E+10	1	-1E+10	1	-1E+10	1	-1E+10	1
4901784	227	C	09/21/2021	10:48	-136.876	43.116	0	819.20	0	3.9180	0	37.9820	8	30.177	0	811.089	0	11.3	4	3.7	4	-1E+10	1	-1E+10	1	-1E+10	1	-1E+10	1	-1E+10	1	-1E+10	1
4901784	227	C	09/21/2021	10:48	-136.876	43.116	0	824.40	0	3.9170	0	37.9900	8	30.184	0	816.228	0	11.0	4	3.6	4	-1E+10	1	-1E+10	1	-1E+10	1	-1E+10	1	-1E+10	1	-1E+10	1
4901784	227	C	09/21/2021	10:48	-136.876	43.116	0	829.70	0	3.9090	0	37.9950	8	30.188	0	821.465	0	10.9	4	3.5	4	-1E+10	1	-1E+10	1	-1E+10	1	-1E+10	1	-1E+10	1	-1E+10	1
4901784	227	C	09/21/2021	10:48	-136.876	43.116	0	835.00	0	3.8940	0	38.0000	8	30.194	0	826.702	0	10.8	4	3.5	4	-1E+10	1	-1E+10	1	-1E+10	1	-1E+10	1	-1E+10	1	-1E+10	1
4901784	227	C	09/21/2021	10:48	-136.876	43.116	0	840.30	0	3.8860	0	38.0040	8	30.198	0	831.938	0	10.7	4	3.5	4	-1E+10	1	-1E+10	1	-1E+10	1	-1E+10	1	-1E+10	1	-1E+10	1
4901784	227	C	09/21/2021	10:48	-136.876	43.116	0	845.70	0	3.8750	0	38.0070	8	30.202	0	837.274	0	10.5	4	3.4	4	-1E+10	1	-1E+10	1	-1E+10	1	-1E+10	1	-1E+10	1	-1E+10	1
4901784	227	C	09/21/2021	10:48	-136.876	43.116	0	850.10	0	3.8610	0	38.0140	8	30.209	0	841.621	0	10.4	4	3.4	4	-1E+10	1	-1E+10	1	-1E+10	1	-1E+10	1	-1E+10	1	-1E+10	1
4901784	227	C	09/21/2021	10:48	-136.876	43.116	0	854.60	0	3.8530	0	38.0180	8	30.213	0	846.067	0	10.4	4	3.4	4	-1E+10	1	-1E+10	1	-1E+10	1	-1E+10	1	-1E+10	1	-1E+10	1
4901784	227	C	09/21/2021	10:48	-136.876	43.116	0	860.00	0	3.8390	0	38.0220	8	30.218	0	851.402	0	10.3	4	3.3	4	-1E+10	1	-1E+10	1	-1E+10	1	-1E+10	1	-1E+10	1	-1E+10	1
4901784	227	C	09/21/2021	10:48	-136.876	43.116	0	865.40	0	3.8280	0	38.0260	8	30.222	0	856.737	0	10.2	4	3.3	4	-1E+10	1	-1E+10	1	-1E+10	1	-1E+10	1	-1E+10	1	-1E+10	1
4901784	227	C	09/21/2021	10:48	-136.876	43.116	0	869.90	0	3.8180	0	38.0280	8	30.225	0	861.183	0	10.2	4	3.3	4	-1E+10	1	-1E+10	1	-1E+10	1	-1E+10	1	-1E+10	1	-1E+10	1
4901784	227	C	09/21/2021	10:48	-136.876	43.116	0	874.30	0	3.8030	0	38.0330	8	30.231	0	865.530	0	10.1	4	3.3	4	-1E+10	1	-1E+10	1	-1E+10	1	-1E+10	1	-1E+10	1	-1E+10	1
4901784	227	C	09/21/2021	10:48	-136.876	43.116	0	879.70	0	3.7950	0	38.0370	8	30.235	0	870.864	0	10.1	4	3.3	4	-1E+10	1	-1E+10	1	-1E+10	1	-1E+10	1	-1E+10	1	-1E+10	1
4901784	227	C	09/21/2021	10:48	-136.876	43.116	0	885.00	0	3.7870	0	38.0410	8	30.239	0	876.100	0	10.0	4	3.2	4	-1E+10	1	-1E+10	1	-1E+10	1	-1E+10	1	-1E+10	1	-1E+10	1
4901784	227	C	09/21/2021	10:48	-136.876	43.116	0	890.40	0	3.7700	0	38.0460	8	30.245	0	881.434	0	10.0	4	3.2	4	-1E+10	1	-1E+10	1	-1E+10	1	-1E+10	1	-1E+10	1	-1E+10	1
4901784	227	C	09/21/2021	10:48	-136.876	43.116	0	894.90	0	3.7620	0	38.0490	8	30.248	0	885.880	0	9.9	4	3.2	4	-1E+10	1	-1E+10	1	-1E+10	1	-1E+10	1	-1E+10	1	-1E+10	1
4901784	227	C	09/21/2021	10:48	-136.876	43.116	0	899.40	0	3.7520	0	38.0510	8	30.251	0	890.325	0	9.9	4	3.2	4	-1E+10	1	-1E+10	1	-1E+10	1	-1E+10	1	-1E+10	1	-1E+10	1
4901784	227	C	09/21/2021	10:48	-136.876	43.116	0	904.80	0	3.7440	0	38.0540	8	30.254	0	895.659	0	9.9	4	3.2	4	-1E+10	1	-1E+10	1	-1E+10	1	-1E+10	1	-1E+10	1	-1E+10	1
4901784	227	C	09/21/2021	10:48	-136.876	43.116	0	910.30	0	3.7350	0	38.0590	8	30.259	0	901.091	0	9.9	4	3.2	4	-1E+10	1	-1E+10	1	-1E+10	1	-1E+10	1	-1E+10	1	-1E+10	1
4901784	227	C	09/21/2021	10:48	-136.876	43.116	0	914.90	0	3.7190	0	38.0630	8	30.264	0	905.635	0	9.8	4	3.2	4	-1E+10	1	-1E+10	1	-1E+10	1	-1E+10	1	-1E+10	1	-1E+10	1
4901784	227	C	09/21/2021	10:48	-136.876	43.116	0	920.00	0	3.7060	0	38.0670	8	30.269	0	910.672	0	9.8	4	3.2	4	-1E+10	1	-1E+10	1	-1E+10	1	-1E+10	1	-1E+10	1	-1E+10	1
4901784	227	C	09/21/2021	10:48	-136.876	43.116	0	925.50	0	3.6980	0	38.0690	8	30.271	0	916.104	0	9.8	4	3.2	4	-1E+10	1	-1E+10	1	-1E+10	1	-1E+10	1	-1E+10	1	-1E+10	1
4901784	227	C	09/21/2021	10:48	-136.876	43.116	0	930.30	0	3.6880	0	38.0720	8	30.275	0	920.845	0	9.8	4	3.2	4	-1E+10	1	-1E+10	1	-1E+10	1	-1E+10	1	-1E+10	1	-1E+10	1
4901784	227	C	09/21/2021	10:48	-136.876	43.116	0	935.20	0	3.6750	0	38.0760	8	30.280	0	925.684	0	9.8	4	3.2	4	-1E+10	1	-1E+10	1	-1E+10	1	-1E+10	1	-1E+10	1	-1E+10	1
4901784	227	C	09/21/2021	10:48	-136.876	43.116	0	940.10	0	3.6660	0	38.0800	8	30.284	0	930.523	0	9.8	4	3.2	4	-1E+10	1	-1E+10	1	-1E+10	1	-1E+10	1	-1E+10	1	-1E+10	1
4901784	227	C	09/21/2021	10:48	-136.876	43.116	0	944.90	0	3.6590	0	38.0830	8	30.287	0	935.264	0	9.8	4	3.2	4	-1E+10	1	-1E+10	1	-1E+10	1	-1E+10	1	-1E+10	1	-1E+10	1
4901784	227	C	09/21/2021	10:48	-136.876	43.116	0	949.80	0	3.6500	0	38.0850	8	30.290	0	940.103	0	9.8	4	3.2	4	-1E+10	1	-1E+10	1	-1E+10	1	-1E+10	1	-1E+10	1	-1E+10	1
4901784	227	C	09/21/2021	10:48	-136.876	43.116	0	954.70	0	3.6320	0	38.0890	8	30.295	0	944.942	0	9.8	4	3.2	4	-1E+10	1	-1E+10	1	-1E+10	1	-1E+10	1	-1E+10	1	-1E+10	1
4901784	227	C	09/21/2021	10:48	-136.876	43.116	0	959.70	0	3.6160	0	38.0920	8	30.299	0	949.879	0	9.8	4	3.2	4	-1E+10	1	-1E+10	1	-1E+10	1	-1E+10	1	-1E+10	1	-1E+10	1
4901784	227	C	09/21/2021	10:48	-136.876	43.116	0	964.70	0	3.6030	0	38.0940	8	30.302	0	954.817	0	9.9	4	3.2	4	-1E+10	1	-1E+10	1	-1E+10	1	-1E+10	1	-1E+10	1	-1E+10	1
4901784	227	C	09/21/2021	10:48	-136.876	43.116	0	969.80	0	3.5940	0	38.0970	8	30.305	0	959.853	0	9.9	4	3.2	4	-1E+10	1	-1E+10	1	-1E+10	1	-1E+10	1	-1E+10	1	-1E+10	1
4901784	227	C	09/21/2021	10:48	-136.876	43.116	0	974.80	0	3.5760	0	38.1010	8	30.311	0	964.790	0	9.9	4	3.2	4	-1E+10	1	-1E+10	1	-1E+10	1	-1E+10	1	-1E+10	1	-1E+10	1
4901784	227	C	09/21/2021	10:48	-136.876	43.116	0	980.00	0	3.5650	0	38.1040	8	30.314	0	969.925	0	9.9	4	3.2	4	-1E+10	1	-1E+10	1	-1E+10	1	-1E+10	1	-1E+10	1	-1E+10	1
4901784	227	C	09/21/2021	10:48	-136.876	43.116	0	985.20	0	3.5510	0	38.1080	8	30.319	0	975.059	0	10.0	4	3.2	4	-1E+10	1	-1E+10	1	-1E+10	1	-1E+10	1	-1E+10	1	-1E+10	1
4901784	227	C	09/21/2021	10:48	-136.876	43.116	0	990.40	0	3.5380	0	38.1110	8	30.323	0	980.193	0	10.0	4	3.2	4	-1E+10	1	-1E+10	1	-1E+10	1	-1E+10	1	-1E+10	1	-1E+10	1
4901784	227	C	09/21/2021	10:48	-136.876	43.116	0	995.70	0	3.5230	0	38.1160	8	30.328	0	985.426	0	10.1	4	3.2	4	-1E+10	1	-1E+10	1	-1E+10	1	-1E+10	1	-1E+10	1	-1E+10	1
4901784	227	C	09/21/2021	10:48	-136.876	43.116	0	1000.20	0	3.5120	0	38.1190	8	30.332	0	989.869	0	10.1	4	3.3	4	-1E+10	1	-1E+10	1	-1E+10	1	-1E+10	1	-1E+10	1	-1E+10	1
4901784	227	C	09/21/2021	10:48	-136.876	43.116	0	1004.60	0	3.5000	0	38.1230	8	30.336	0	994.213	0	10.2	4	3.3	4	-1E+10	1	-1E+10	1	-1E+10	1	-1E+10	1	-1E+10	1	-1E+10	1
4901784	227	C	09/21/2021	10:48	-136.876	43.116	0	1010.10	0	3.4900	0	38.1260	8	30.340	0	999.643	0	10.2	4	3.3	4	-1E+10	1	-1E+10	1	-1E+10	1	-1E+10	1	-1E+10	1	-1E+10	1
4901784	227	C	09/21/2021	10:48	-136.876	43.116	0	1015.50	0	3.4830	0	38.1290	8	30.343	0	1004.975	0	10.3	4	3.3	4	-1E+10	1	-1E+10	1	-1E+10	1	-1E+10	1	-1E+10	1	-1E+10	1
4901784	227	C	09/21/2021	10:48	-136.876	43.116	0	1020.00	0	3.4740	0	38.1310	8	30.346	0	1009.417	0	10.3	4	3.3	4	-1E+10	1	-1E+10	1	-1E+10	1	-1E+10	1	-1E+10	1	-1E+10	1
4901784	227	C	09/21/2021	10:48	-136.876	43.116	0	1024.60	0	3.4550	0	38.1340	8	30.350	0	1013.958	0	10.4	4	3.3	4	-1E+10	1	-1E+10	1	-1E+10	1	-1E+10	1	-1E+10	1	-1E+10	1
4901784	227	C	09/21/2021	10:48	-136.876	43.116	0	1030.00	0	3.4370	0	38.1380	8	30.355	0	1019.289	0	10.5	4	3.4	4	-1E+10	1	-1E+10	1	-1E+10	1	-1E+10	1	-1E+10	1	-1E+10	1
4901784	227	C	09/21/2021	10:48	-136.876	43.116	0	1035.50	0	3.4260	0	38.1410	8	30.359	0	1024.718	0	10.5	4	3.4	4	-1E+10	1	-1E+10	1	-1E+10	1	-1E+10	1	-1E+10	1	-1E+10	1
4901784	227	C	09/21/2021	10:48	-136.876	43.116	0	1040.20	0	3.4200	0	38.1430	8	30.361	0	1029.358	0	10.5	4	3.4	4	-1E+10	1	-1E+10	1	-1E+10	1	-1E+10	1	-1E+10	1	-1E+10	1
4901784	227	C	09/21/2021	10:48	-136.876	43.116	0	1044.80	0	3.4140	0	38.1440	8	30.363	0	1033.899	0	10.6	4	3.4	4	-1E+10	1	-1E+10	1	-1E+10	1	-1E+10	1	-1E+10	1	-1E+10	1
4901784	227	C	09/21/2021	10:48	-136.876	43.116	0	1050.20	0	3.4070	0	38.1470	8	30.366	0	1039.229	0	10.6	4	3.4	4	-1E+10	1	-1E+10	1	-1E+10	1	-1E+10	1	-1E+10	1	-1E+10	1
4901784	227	C	09/21/2021	10:48	-136.876	43.116	0	1055.50	0	3.3990	0	38.1480	8	30.367	0	1044.460	0	10.7	4	3.4	4	-1E+10	1	-1E+10	1	-1E+10	1	-1E+10	1	-1E+10	1	-1E+10	1
4901784	227	C	09/21/2021	10:48	-136.876	43.116	0	1060.30	0	3.3900	0	38.1500	8	30.370	0	1049.198	0	10.8	4	3.5	4	-1E+10	1	-1E+10	1	-1E+10	1	-1E+10	1	-1E+10	1	-1E+10	1
4901784	227	C	09/21/2021	10:48	-136.876	43.116	0	1065.20	0	3.3720	0	38.1550	8	30.376	0	1054.035	0	10.9	4	3.5	4	-1E+10	1	-1E+10	1	-1E+10	1	-1E+10	1	-1E+10	1	-1E+10	1
4901784	227	C	09/21/2021	10:48	-136.876	43.116	0	1070.00	0	3.3590	0	38.1580	8	30.380	0	1058.772	0	11.0	4	3.5	4	-1E+10	1	-1E+10	1	-1E+10	1	-1E+10	1	-1E+10	1	-1E+10	1
4901784	227	C	09/21/2021	10:48	-136.876	43.116	0	1074.80	0	3.3520	0	38.1600	8	30.382	0	1063.510	0	11.0	4	3.5	4	-1E+10	1	-1E+10	1	-1E+10	1	-1E+10	1	-1E+10	1	-1E+10	1
4901784	227	C	09/21/2021	10:48	-136.876	43.116	0	1079.80	0	3.3430	0	38.1630	8	30.386	0	1068.444	0	11.1	4	3.6	4	-1E+10	1	-1E+10	1	-1E+10	1	-1E+10	1	-1E+10	1	-1E+10	1
4901784	227	C	09/21/2021	10:48	-136.876	43.116	0	1084.80	0	3.3320	0	38.1660	8	30.389	0	1073.379	0	11.2	4	3.6	4	-1E+10	1	-1E+10	1	-1E+10	1	-1E+10	1	-1E+10	1	-1E+10	1
4901784	227	C	09/21/2021	10:48	-136.876	43.116	0	1089.80	0	3.3200	0	38.1690	8	30.393	0	1078.314	0	11.3	4	3.6	4	-1E+10	1	-1E+10	1	-1E+10	1	-1E+10	1	-1E+10	1	-1E+10	1
4901784	227	C	09/21/2021	10:48	-136.876	43.116	0	1094.80	0	3.3110	0	38.1710	8	30.395	0	1083.248	0	11.4	4	3.6	4	-1E+10	1	-1E+10	1	-1E+10	1	-1E+10	1	-1E+10	1	-1E+10	1
4901784	227	C	09/21/2021	10:48	-136.876	43.116	0	1099.80	0	3.2980	0	38.1730	8	30.398	0	1088.182	0	11.5	4	3.7	4	-1E+10	1	-1E+10	1	-1E+10	1	-1E+10	1	-1E+10	1	-1E+10	1
4901784	227	C	09/21/2021	10:48	-136.876	43.116	0	1104.90	0	3.2920	0	38.1750	8	30.401	0	1093.215	0	11.6	4	3.7	4	-1E+10	1	-1E+10	1	-1E+10	1	-1E+10	1	-1E+10	1	-1E+10	1
4901784	227	C	09/21/2021	10:48	-136.876	43.116	0	1109.80	0	3.2830	0	38.1790	8	30.405	0	1098.051	0	11.6	4	3.7	4	-1E+10	1	-1E+10	1	-1E+10	1	-1E+10	1	-1E+10	1	-1E+10	1
4901784	227	C	09/21/2021	10:48	-136.876	43.116	0	1114.50	0	3.2790	0	38.1800	8	30.406	0	1102.688	0	11.8	4	3.8	4	-1E+10	1	-1E+10	1	-1E+10	1	-1E+10	1	-1E+10	1	-1E+10	1
4901784	227	C	09/21/2021	10:48	-136.876	43.116	0	1120.00	0	3.2670	0	38.1830	8	30.410	0	1108.116	0	11.9	4	3.8	4	-1E+10	1	-1E+10	1	-1E+10	1	-1E+10	1	-1E+10	1	-1E+10	1
4901784	227	C	09/21/2021	10:48	-136.876	43.116	0	1125.60	0	3.2490	0	38.1870	8	30.415	0	1113.641	0	12.1	4	3.9	4	-1E+10	1	-1E+10	1	-1E+10	1	-1E+10	1	-1E+10	1	-1E+10	1
4901784	227	C	09/21/2021	10:48	-136.876	43.116	0	1130.50	0	3.2360	0	38.1900	8	30.419	0	1118.476	0	12.2	4	3.9	4	-1E+10	1	-1E+10	1	-1E+10	1	-1E+10	1	-1E+10	1	-1E+10	1
4901784	227	C	09/21/2021	10:48	-136.876	43.116	0	1135.30	0	3.2310	0	38.1920	8	30.421	0	1123.212	0	12.3	4	3.9	4	-1E+10	1	-1E+10	1	-1E+10	1	-1E+10	1	-1E+10	1	-1E+10	1
4901784	227	C	09/21/2021	10:48	-136.876	43.116	0	1140.30	0	3.2190	0	38.1940	8	30.424	0	1128.146	0	12.4	4	4.0	4	-1E+10	1	-1E+10	1	-1E+10	1	-1E+10	1	-1E+10	1	-1E+10	1
4901784	227	C	09/21/2021	10:48	-136.876	43.116	0	1145.20	0	3.2090	0	38.1970	8	30.427	0	1132.980	0	12.6	4	4.0	4	-1E+10	1	-1E+10	1	-1E+10	1	-1E+10	1	-1E+10	1	-1E+10	1
4901784	227	C	09/21/2021	10:48	-136.876	43.116	0	1150.20	0	3.1930	0	38.2000	8	30.431	0	1137.913	0	12.7	4	4.1	4	-1E+10	1	-1E+10	1	-1E+10	1	-1E+10	1	-1E+10	1	-1E+10	1
4901784	227	C	09/21/2021	10:48	-136.876	43.116	0	1155.20	0	3.1800	0	38.2040	8	30.436	0	1142.846	0	12.9	4	4.1	4	-1E+10	1	-1E+10	1	-1E+10	1	-1E+10	1	-1E+10	1	-1E+10	1
4901784	227	C	09/21/2021	10:48	-136.876	43.116	0	1160.30	0	3.1710	0	38.2060	8	30.438	0	1147.878	0	13.0	4	4.1	4	-1E+10	1	-1E+10	1	-1E+10	1	-1E+10	1	-1E+10	1	-1E+10	1
4901784	227	C	09/21/2021	10:48	-136.876	43.116	0	1165.50	0	3.1660	0	38.2080	8	30.440	0	1153.008	0	13.1	4	4.2	4	-1E+10	1	-1E+10	1	-1E+10	1	-1E+10	1	-1E+10	1	-1E+10	1
4901784	227	C	09/21/2021	10:48	-136.876	43.116	0	1170.60	0	3.1570	0	38.2090	8	30.442	0	1158.039	0	13.2	4	4.2	4	-1E+10	1	-1E+10	1	-1E+10	1	-1E+10	1	-1E+10	1	-1E+10	1
4901784	227	C	09/21/2021	10:48	-136.876	43.116	0	1174.90	0	3.1480	0	38.2110	8	30.445	0	1162.281	0	13.3	4	4.2	4	-1E+10	1	-1E+10	1	-1E+10	1	-1E+10	1	-1E+10	1	-1E+10	1
4901784	227	C	09/21/2021	10:48	-136.876	43.116	0	1179.30	0	3.1380	0	38.2130	8	30.447	0	1166.622	0	13.4	4	4.3	4	-1E+10	1	-1E+10	1	-1E+10	1	-1E+10	1	-1E+10	1	-1E+10	1
4901784	227	C	09/21/2021	10:48	-136.876	43.116	0	1184.60	0	3.1270	0	38.2160	8	30.451	0	1171.850	0	13.6	4	4.3	4	-1E+10	1	-1E+10	1	-1E+10	1	-1E+10	1	-1E+10	1	-1E+10	1
4901784	227	C	09/21/2021	10:48	-136.876	43.116	0	1189.80	0	3.1180	0	38.2180	8	30.454	0	1176.980	0	13.7	4	4.4	4	-1E+10	1	-1E+10	1	-1E+10	1	-1E+10	1	-1E+10	1	-1E+10	1
4901784	227	C	09/21/2021	10:48	-136.876	43.116	0	1195.10	0	3.1070	0	38.2210	8	30.457	0	1182.208	0	13.8	4	4.4	4	-1E+10	1	-1E+10	1	-1E+10	1	-1E+10	1	-1E+10	1	-1E+10	1
4901784	227	C	09/21/2021	10:48	-136.876	43.116	0	1200.50	0	3.0980	0	38.2230	8	30.460	0	1187.534	0	13.9	4	4.4	4	-1E+10	1	-1E+10	1	-1E+10	1	-1E+10	1	-1E+10	1	-1E+10	1
4901784	227	C	09/21/2021	10:48	-136.876	43.116	0	1205.00	0	3.0900	0	38.2250	8	30.462	0	1191.973	0	14.0	4	4.5	4	-1E+10	1	-1E+10	1	-1E+10	1	-1E+10	1	-1E+10	1	-1E+10	1
4901784	227	C	09/21/2021	10:48	-136.876	43.116	0	1209.50	0	3.0840	0	38.2260	8	30.464	0	1196.411	0	14.1	4	4.5	4	-1E+10	1	-1E+10	1	-1E+10	1	-1E+10	1	-1E+10	1	-1E+10	1
4901784	227	C	09/21/2021	10:48	-136.876	43.116	0	1214.90	0	3.0770	0	38.2270	8	30.465	0	1201.737	0	14.2	4	4.5	4	-1E+10	1	-1E+10	1	-1E+10	1	-1E+10	1	-1E+10	1	-1E+10	1
4901784	227	C	09/21/2021	10:48	-136.876	43.116	0	1220.40	0	3.0610	0	38.2300	8	30.469	0	1207.162	0	14.4	4	4.6	4	-1E+10	1	-1E+10	1	-1E+10	1	-1E+10	1	-1E+10	1	-1E+10	1
4901784	227	C	09/21/2021	10:48	-136.876	43.116	0	1224.80	0	3.0530	0	38.2320	8	30.472	0	1211.502	0	14.6	4	4.6	4	-1E+10	1	-1E+10	1	-1E+10	1	-1E+10	1	-1E+10	1	-1E+10	1
4901784	227	C	09/21/2021	10:48	-136.876	43.116	0	1229.30	0	3.0420	0	38.2340	8	30.474	0	1215.940	0	14.7	4	4.7	4	-1E+10	1	-1E+10	1	-1E+10	1	-1E+10	1	-1E+10	1	-1E+10	1
4901784	227	C	09/21/2021	10:48	-136.876	43.116	0	1234.70	0	3.0300	0	38.2360	8	30.477	0	1221.265	0	14.9	4	4.7	4	-1E+10	1	-1E+10	1	-1E+10	1	-1E+10	1	-1E+10	1	-1E+10	1
4901784	227	C	09/21/2021	10:48	-136.876	43.116	0	1240.10	0	3.0170	0	38.2390	8	30.481	0	1226.591	0	15.0	4	4.8	4	-1E+10	1	-1E+10	1	-1E+10	1	-1E+10	1	-1E+10	1	-1E+10	1
4901784	227	C	09/21/2021	10:48	-136.876	43.116	0	1245.60	0	3.0020	0	38.2410	8	30.484	0	1232.015	0	15.2	4	4.8	4	-1E+10	1	-1E+10	1	-1E+10	1	-1E+10	1	-1E+10	1	-1E+10	1
4901784	227	C	09/21/2021	10:48	-136.876	43.116	0	1250.70	0	2.9890	0	38.2430	8	30.487	0	1237.044	0	15.5	4	4.9	4	-1E+10	1	-1E+10	1	-1E+10	1	-1E+10	1	-1E+10	1	-1E+10	1
4901784	227	C	09/21/2021	10:48	-136.876	43.116	0	1255.70	0	2.9710	0	38.2470	8	30.492	0	1241.975	0	15.7	4	5.0	4	-1E+10	1	-1E+10	1	-1E+10	1	-1E+10	1	-1E+10	1	-1E+10	1
4901784	227	C	09/21/2021	10:48	-136.876	43.116	0	1260.00	0	2.9590	0	38.2490	8	30.495	0	1246.215	0	15.9	4	5.0	4	-1E+10	1	-1E+10	1	-1E+10	1	-1E+10	1	-1E+10	1	-1E+10	1
4901784	227	C	09/21/2021	10:48	-136.876	43.116	0	1264.30	0	2.9470	0	38.2520	8	30.499	0	1250.455	0	16.1	4	5.1	4	-1E+10	1	-1E+10	1	-1E+10	1	-1E+10	1	-1E+10	1	-1E+10	1
4901784	227	C	09/21/2021	10:48	-136.876	43.116	0	1269.40	0	2.9340	0	38.2540	8	30.501	0	1255.484	0	16.2	4	5.1	4	-1E+10	1	-1E+10	1	-1E+10	1	-1E+10	1	-1E+10	1	-1E+10	1
4901784	227	C	09/21/2021	10:48	-136.876	43.116	0	1274.50	0	2.9290	0	38.2550	8	30.503	0	1260.513	0	16.3	4	5.2	4	-1E+10	1	-1E+10	1	-1E+10	1	-1E+10	1	-1E+10	1	-1E+10	1
4901784	227	C	09/21/2021	10:48	-136.876	43.116	0	1279.70	0	2.9210	0	38.2570	8	30.505	0	1265.640	0	16.4	4	5.2	4	-1E+10	1	-1E+10	1	-1E+10	1	-1E+10	1	-1E+10	1	-1E+10	1
4901784	227	C	09/21/2021	10:48	-136.876	43.116	0	1284.80	0	2.9160	0	38.2580	8	30.507	0	1270.669	0	16.6	4	5.3	4	-1E+10	1	-1E+10	1	-1E+10	1	-1E+10	1	-1E+10	1	-1E+10	1
4901784	227	C	09/21/2021	10:48	-136.876	43.116	0	1289.90	0	2.9080	0	38.2600	8	30.509	0	1275.698	0	16.7	4	5.3	4	-1E+10	1	-1E+10	1	-1E+10	1	-1E+10	1	-1E+10	1	-1E+10	1
4901784	227	C	09/21/2021	10:48	-136.876	43.116	0	1295.00	0	2.9020	0	38.2610	8	30.510	0	1280.726	0	16.8	4	5.3	4	-1E+10	1	-1E+10	1	-1E+10	1	-1E+10	1	-1E+10	1	-1E+10	1
4901784	227	C	09/21/2021	10:48	-136.876	43.116	0	1300.10	0	2.8930	0	38.2630	8	30.513	0	1285.754	0	17.0	4	5.4	4	-1E+10	1	-1E+10	1	-1E+10	1	-1E+10	1	-1E+10	1	-1E+10	1
4901784	227	C	09/21/2021	10:48	-136.876	43.116	0	1305.30	0	2.8860	0	38.2650	8	30.515	0	1290.881	0	17.2	4	5.4	4	-1E+10	1	-1E+10	1	-1E+10	1	-1E+10	1	-1E+10	1	-1E+10	1
4901784	227	C	09/21/2021	10:48	-136.876	43.116	0	1310.50	0	2.8760	0	38.2670	8	30.518	0	1296.007	0	17.4	4	5.5	4	-1E+10	1	-1E+10	1	-1E+10	1	-1E+10	1	-1E+10	1	-1E+10	1
4901784	227	C	09/21/2021	10:48	-136.876	43.116	0	1315.70	0	2.8660	0	38.2690	8	30.521	0	1301.134	0	17.6	4	5.6	4	-1E+10	1	-1E+10	1	-1E+10	1	-1E+10	1	-1E+10	1	-1E+10	1
4901784	227	C	09/21/2021	10:48	-136.876	43.116	0	1320.00	0	2.8560	0	38.2710	8	30.523	0	1305.373	0	17.8	4	5.6	4	-1E+10	1	-1E+10	1	-1E+10	1	-1E+10	1	-1E+10	1	-1E+10	1
4901784	227	C	09/21/2021	10:48	-136.876	43.116	0	1324.40	0	2.8480	0	38.2730	8	30.526	0	1309.711	0	17.9	4	5.7	4	-1E+10	1	-1E+10	1	-1E+10	1	-1E+10	1	-1E+10	1	-1E+10	1
4901784	227	C	09/21/2021	10:48	-136.876	43.116	0	1329.60	0	2.8420	0	38.2740	8	30.527	0	1314.837	0	18.1	4	5.7	4	-1E+10	1	-1E+10	1	-1E+10	1	-1E+10	1	-1E+10	1	-1E+10	1
4901784	227	C	09/21/2021	10:48	-136.876	43.116	0	1334.90	0	2.8380	0	38.2750	8	30.528	0	1320.061	0	18.2	4	5.8	4	-1E+10	1	-1E+10	1	-1E+10	1	-1E+10	1	-1E+10	1	-1E+10	1
4901784	227	C	09/21/2021	10:48	-136.876	43.116	0	1340.20	0	2.8290	0	38.2770	8	30.531	0	1325.286	0	18.4	4	5.8	4	-1E+10	1	-1E+10	1	-1E+10	1	-1E+10	1	-1E+10	1	-1E+10	1
4901784	227	C	09/21/2021	10:48	-136.876	43.116	0	1345.60	0	2.8230	0	38.2780	8	30.532	0	1330.608	0	18.6	4	5.9	4	-1E+10	1	-1E+10	1	-1E+10	1	-1E+10	1	-1E+10	1	-1E+10	1
4901784	227	C	09/21/2021	10:48	-136.876	43.116	0	1350.00	0	2.8140	0	38.2800	8	30.535	0	1334.946	0	18.8	4	6.0	4	-1E+10	1	-1E+10	1	-1E+10	1	-1E+10	1	-1E+10	1	-1E+10	1
4901784	227	C	09/21/2021	10:48	-136.876	43.116	0	1354.50	0	2.8060	0	38.2810	8	30.536	0	1339.381	0	19.0	4	6.0	4	-1E+10	1	-1E+10	1	-1E+10	1	-1E+10	1	-1E+10	1	-1E+10	1
4901784	227	C	09/21/2021	10:48	-136.876	43.116	0	1360.00	0	2.7940	0	38.2830	8	30.539	0	1344.802	0	19.3	4	6.1	4	-1E+10	1	-1E+10	1	-1E+10	1	-1E+10	1	-1E+10	1	-1E+10	1
4901784	227	C	09/21/2021	10:48	-136.876	43.116	0	1365.40	0	2.7810	0	38.2860	8	30.543	0	1350.125	0	19.6	4	6.2	4	-1E+10	1	-1E+10	1	-1E+10	1	-1E+10	1	-1E+10	1	-1E+10	1
4901784	227	C	09/21/2021	10:48	-136.876	43.116	0	1370.00	0	2.7700	0	38.2880	8	30.546	0	1354.658	0	19.8	4	6.3	4	-1E+10	1	-1E+10	1	-1E+10	1	-1E+10	1	-1E+10	1	-1E+10	1
4901784	227	C	09/21/2021	10:48	-136.876	43.116	0	1374.70	0	2.7620	0	38.2890	8	30.547	0	1359.291	0	20.0	4	6.3	4	-1E+10	1	-1E+10	1	-1E+10	1	-1E+10	1	-1E+10	1	-1E+10	1
4901784	227	C	09/21/2021	10:48	-136.876	43.116	0	1380.20	0	2.7540	0	38.2900	8	30.549	0	1364.711	0	20.2	4	6.4	4	-1E+10	1	-1E+10	1	-1E+10	1	-1E+10	1	-1E+10	1	-1E+10	1
4901784	227	C	09/21/2021	10:48	-136.876	43.116	0	1385.70	0	2.7410	0	38.2930	8	30.553	0	1370.131	0	20.5	4	6.5	4	-1E+10	1	-1E+10	1	-1E+10	1	-1E+10	1	-1E+10	1	-1E+10	1
4901784	227	C	09/21/2021	10:48	-136.876	43.116	0	1390.30	0	2.7350	0	38.2950	8	30.555	0	1374.665	0	20.6	4	6.5	4	-1E+10	1	-1E+10	1	-1E+10	1	-1E+10	1	-1E+10	1	-1E+10	1
4901784	227	C	09/21/2021	10:48	-136.876	43.116	0	1394.90	0	2.7310	0	38.2950	8	30.555	0	1379.198	0	20.8	4	6.6	4	-1E+10	1	-1E+10	1	-1E+10	1	-1E+10	1	-1E+10	1	-1E+10	1
4901784	227	C	09/21/2021	10:48	-136.876	43.116	0	1400.10	0	2.7220	0	38.2970	8	30.558	0	1384.323	0	21.0	4	6.6	4	-1E+10	1	-1E+10	1	-1E+10	1	-1E+10	1	-1E+10	1	-1E+10	1
4901784	227	C	09/21/2021	10:48	-136.876	43.116	0	1404.40	0	2.7180	0	38.2990	8	30.560	0	1388.560	0	21.1	4	6.7	4	-1E+10	1	-1E+10	1	-1E+10	1	-1E+10	1	-1E+10	1	-1E+10	1
4901784	227	C	09/21/2021	10:48	-136.876	43.116	0	1410.00	0	2.7100	0	38.3000	8	30.561	0	1394.078	0	21.4	4	6.7	4	-1E+10	1	-1E+10	1	-1E+10	1	-1E+10	1	-1E+10	1	-1E+10	1
4901784	227	C	09/21/2021	10:48	-136.876	43.116	0	1415.70	0	2.7020	0	38.3020	8	30.564	0	1399.695	0	21.6	4	6.8	4	-1E+10	1	-1E+10	1	-1E+10	1	-1E+10	1	-1E+10	1	-1E+10	1
4901784	227	C	09/21/2021	10:48	-136.876	43.116	0	1420.60	0	2.6940	0	38.3030	8	30.565	0	1404.523	0	21.8	4	6.9	4	-1E+10	1	-1E+10	1	-1E+10	1	-1E+10	1	-1E+10	1	-1E+10	1
4901784	227	C	09/21/2021	10:48	-136.876	43.116	0	1425.40	0	2.6830	0	38.3050	8	30.568	0	1409.253	0	22.2	4	7.0	4	-1E+10	1	-1E+10	1	-1E+10	1	-1E+10	1	-1E+10	1	-1E+10	1
4901784	227	C	09/21/2021	10:48	-136.876	43.116	0	1430.30	0	2.6710	0	38.3070	8	30.571	0	1414.081	0	22.5	4	7.1	4	-1E+10	1	-1E+10	1	-1E+10	1	-1E+10	1	-1E+10	1	-1E+10	1
4901784	227	C	09/21/2021	10:48	-136.876	43.116	0	1435.20	0	2.6610	0	38.3090	8	30.573	0	1418.909	0	22.8	4	7.2	4	-1E+10	1	-1E+10	1	-1E+10	1	-1E+10	1	-1E+10	1	-1E+10	1
4901784	227	C	09/21/2021	10:48	-136.876	43.116	0	1440.10	0	2.6520	0	38.3110	8	30.576	0	1423.737	0	23.0	4	7.2	4	-1E+10	1	-1E+10	1	-1E+10	1	-1E+10	1	-1E+10	1	-1E+10	1
4901784	227	C	09/21/2021	10:48	-136.876	43.116	0	1445.00	0	2.6450	0	38.3120	8	30.577	0	1428.565	0	23.2	4	7.3	4	-1E+10	1	-1E+10	1	-1E+10	1	-1E+10	1	-1E+10	1	-1E+10	1
4901784	227	C	09/21/2021	10:48	-136.876	43.116	0	1449.90	0	2.6380	0	38.3130	8	30.579	0	1433.392	0	23.4	4	7.4	4	-1E+10	1	-1E+10	1	-1E+10	1	-1E+10	1	-1E+10	1	-1E+10	1
4901784	227	C	09/21/2021	10:48	-136.876	43.116	0	1454.90	0	2.6290	0	38.3150	8	30.581	0	1438.318	0	23.7	4	7.5	4	-1E+10	1	-1E+10	1	-1E+10	1	-1E+10	1	-1E+10	1	-1E+10	1
4901784	227	C	09/21/2021	10:48	-136.876	43.116	0	1459.90	0	2.6170	0	38.3170	8	30.584	0	1443.244	0	24.1	4	7.6	4	-1E+10	1	-1E+10	1	-1E+10	1	-1E+10	1	-1E+10	1	-1E+10	1
4901784	227	C	09/21/2021	10:48	-136.876	43.116	0	1465.00	0	2.6040	0	38.3190	8	30.587	0	1448.269	0	24.4	4	7.7	4	-1E+10	1	-1E+10	1	-1E+10	1	-1E+10	1	-1E+10	1	-1E+10	1
4901784	227	C	09/21/2021	10:48	-136.876	43.116	0	1470.10	0	2.5920	0	38.3210	8	30.590	0	1453.293	0	24.7	4	7.8	4	-1E+10	1	-1E+10	1	-1E+10	1	-1E+10	1	-1E+10	1	-1E+10	1
4901784	227	C	09/21/2021	10:48	-136.876	43.116	0	1475.10	0	2.5850	0	38.3230	8	30.592	0	1458.218	0	24.9	4	7.8	4	-1E+10	1	-1E+10	1	-1E+10	1	-1E+10	1	-1E+10	1	-1E+10	1
4901784	227	C	09/21/2021	10:48	-136.876	43.116	0	1480.20	0	2.5740	0	38.3250	8	30.595	0	1463.242	0	25.2	4	7.9	4	-1E+10	1	-1E+10	1	-1E+10	1	-1E+10	1	-1E+10	1	-1E+10	1
4901784	227	C	09/21/2021	10:48	-136.876	43.116	0	1485.20	0	2.5680	0	38.3260	8	30.596	0	1468.168	0	25.4	4	8.0	4	-1E+10	1	-1E+10	1	-1E+10	1	-1E+10	1	-1E+10	1	-1E+10	1
4901784	227	C	09/21/2021	10:48	-136.876	43.116	0	1490.30	0	2.5610	0	38.3270	8	30.598	0	1473.192	0	25.7	4	8.1	4	-1E+10	1	-1E+10	1	-1E+10	1	-1E+10	1	-1E+10	1	-1E+10	1
4901784	227	C	09/21/2021	10:48	-136.876	43.116	0	1495.40	0	2.5500	0	38.3290	8	30.601	0	1478.215	0	26.0	4	8.2	4	-1E+10	1	-1E+10	1	-1E+10	1	-1E+10	1	-1E+10	1	-1E+10	1
4901784	227	C	09/21/2021	10:48	-136.876	43.116	0	1500.60	0	2.5420	0	38.3310	8	30.603	0	1483.337	0	26.3	4	8.3	4	-1E+10	1	-1E+10	1	-1E+10	1	-1E+10	1	-1E+10	1	-1E+10	1
4901784	227	C	09/21/2021	10:48	-136.876	43.116	0	1505.80	0	2.5310	0	38.3330	8	30.606	0	1488.459	0	26.6	4	8.4	4	-1E+10	1	-1E+10	1	-1E+10	1	-1E+10	1	-1E+10	1	-1E+10	1
4901784	227	C	09/21/2021	10:48	-136.876	43.116	0	1510.10	0	2.5230	0	38.3340	8	30.607	0	1492.694	0	26.9	4	8.4	4	-1E+10	1	-1E+10	1	-1E+10	1	-1E+10	1	-1E+10	1	-1E+10	1
4901784	227	C	09/21/2021	10:48	-136.876	43.116	0	1514.50	0	2.5180	0	38.3350	8	30.608	0	1497.028	0	27.1	4	8.5	4	-1E+10	1	-1E+10	1	-1E+10	1	-1E+10	1	-1E+10	1	-1E+10	1
4901784	227	C	09/21/2021	10:48	-136.876	43.116	0	1519.80	0	2.5100	0	38.3360	8	30.610	0	1502.248	0	27.3	4	8.6	4	-1E+10	1	-1E+10	1	-1E+10	1	-1E+10	1	-1E+10	1	-1E+10	1
4901784	227	C	09/21/2021	10:48	-136.876	43.116	0	1525.20	0	2.5030	0	38.3380	8	30.612	0	1507.566	0	27.6	4	8.7	4	-1E+10	1	-1E+10	1	-1E+10	1	-1E+10	1	-1E+10	1	-1E+10	1
4901784	227	C	09/21/2021	10:48	-136.876	43.116	0	1530.60	0	2.4900	0	38.3400	8	30.615	0	1512.885	0	28.0	4	8.8	4	-1E+10	1	-1E+10	1	-1E+10	1	-1E+10	1	-1E+10	1	-1E+10	1
4901784	227	C	09/21/2021	10:48	-136.876	43.116	0	1535.00	0	2.4830	0	38.3410	8	30.617	0	1517.218	0	28.3	4	8.9	4	-1E+10	1	-1E+10	1	-1E+10	1	-1E+10	1	-1E+10	1	-1E+10	1
4901784	227	C	09/21/2021	10:48	-136.876	43.116	0	1539.50	0	2.4750	0	38.3420	8	30.618	0	1521.650	0	28.6	4	9.0	4	-1E+10	1	-1E+10	1	-1E+10	1	-1E+10	1	-1E+10	1	-1E+10	1
4901784	227	C	09/21/2021	10:48	-136.876	43.116	0	1545.00	0	2.4610	0	38.3450	8	30.622	0	1527.066	0	29.1	4	9.1	4	-1E+10	1	-1E+10	1	-1E+10	1	-1E+10	1	-1E+10	1	-1E+10	1
4901784	227	C	09/21/2021	10:48	-136.876	43.116	0	1550.50	0	2.4480	0	38.3470	8	30.625	0	1532.482	0	29.4	4	9.2	4	-1E+10	1	-1E+10	1	-1E+10	1	-1E+10	1	-1E+10	1	-1E+10	1
4901784	227	C	09/21/2021	10:48	-136.876	43.116	0	1555.10	0	2.4420	0	38.3480	8	30.626	0	1537.012	0	29.6	4	9.3	4	-1E+10	1	-1E+10	1	-1E+10	1	-1E+10	1	-1E+10	1	-1E+10	1
4901784	227	C	09/21/2021	10:48	-136.876	43.116	0	1559.70	0	2.4350	0	38.3500	8	30.629	0	1541.542	0	29.9	4	9.4	4	-1E+10	1	-1E+10	1	-1E+10	1	-1E+10	1	-1E+10	1	-1E+10	1
4901784	227	C	09/21/2021	10:48	-136.876	43.116	0	1565.20	0	2.4320	0	38.3510	8	30.630	0	1546.958	0	30.1	4	9.5	4	-1E+10	1	-1E+10	1	-1E+10	1	-1E+10	1	-1E+10	1	-1E+10	1
4901784	227	C	09/21/2021	10:48	-136.876	43.116	0	1569.80	0	2.4220	0	38.3530	8	30.632	0	1551.487	0	30.4	4	9.5	4	-1E+10	1	-1E+10	1	-1E+10	1	-1E+10	1	-1E+10	1	-1E+10	1
4901784	227	C	09/21/2021	10:48	-136.876	43.116	0	1575.10	0	2.4160	0	38.3540	8	30.634	0	1556.706	0	30.7	4	9.6	4	-1E+10	1	-1E+10	1	-1E+10	1	-1E+10	1	-1E+10	1	-1E+10	1
4901784	227	C	09/21/2021	10:48	-136.876	43.116	0	1580.30	0	2.4070	0	38.3550	8	30.635	0	1561.826	0	30.9	4	9.7	4	-1E+10	1	-1E+10	1	-1E+10	1	-1E+10	1	-1E+10	1	-1E+10	1
4901784	227	C	09/21/2021	10:48	-136.876	43.116	0	1585.30	0	2.4010	0	38.3560	8	30.637	0	1566.749	0	31.2	4	9.8	4	-1E+10	1	-1E+10	1	-1E+10	1	-1E+10	1	-1E+10	1	-1E+10	1
4901784	227	C	09/21/2021	10:48	-136.876	43.116	0	1590.20	0	2.3920	0	38.3580	8	30.639	0	1571.574	0	31.6	4	9.9	4	-1E+10	1	-1E+10	1	-1E+10	1	-1E+10	1	-1E+10	1	-1E+10	1
4901784	227	C	09/21/2021	10:48	-136.876	43.116	0	1595.10	0	2.3840	0	38.3590	8	30.641	0	1576.398	0	32.1	4	10.0	4	-1E+10	1	-1E+10	1	-1E+10	1	-1E+10	1	-1E+10	1	-1E+10	1
4901784	227	C	09/21/2021	10:48	-136.876	43.116	0	1600.10	0	2.3710	0	38.3620	8	30.644	0	1581.321	0	32.4	4	10.2	4	-1E+10	1	-1E+10	1	-1E+10	1	-1E+10	1	-1E+10	1	-1E+10	1
4901784	227	C	09/21/2021	10:48	-136.876	43.116	0	1605.20	0	2.3640	0	38.3630	8	30.646	0	1586.342	0	32.6	4	10.2	4	-1E+10	1	-1E+10	1	-1E+10	1	-1E+10	1	-1E+10	1	-1E+10	1
4901784	227	C	09/21/2021	10:48	-136.876	43.116	0	1610.20	0	2.3590	0	38.3640	8	30.647	0	1591.264	0	32.8	4	10.3	4	-1E+10	1	-1E+10	1	-1E+10	1	-1E+10	1	-1E+10	1	-1E+10	1
4901784	227	C	09/21/2021	10:48	-136.876	43.116	0	1615.30	0	2.3560	0	38.3650	8	30.648	0	1596.285	0	33.1	4	10.4	4	-1E+10	1	-1E+10	1	-1E+10	1	-1E+10	1	-1E+10	1	-1E+10	1
4901784	227	C	09/21/2021	10:48	-136.876	43.116	0	1620.40	0	2.3470	0	38.3670	8	30.651	0	1601.306	0	33.4	4	10.5	4	-1E+10	1	-1E+10	1	-1E+10	1	-1E+10	1	-1E+10	1	-1E+10	1
4901784	227	C	09/21/2021	10:48	-136.876	43.116	0	1625.50	0	2.3380	0	38.3680	8	30.653	0	1606.326	0	33.6	4	10.5	4	-1E+10	1	-1E+10	1	-1E+10	1	-1E+10	1	-1E+10	1	-1E+10	1
4901784	227	C	09/21/2021	10:48	-136.876	43.116	0	1630.60	0	2.3350	0	38.3690	8	30.654	0	1611.347	0	33.8	4	10.6	4	-1E+10	1	-1E+10	1	-1E+10	1	-1E+10	1	-1E+10	1	-1E+10	1
4901784	227	C	09/21/2021	10:48	-136.876	43.116	0	1634.90	0	2.3310	0	38.3700	8	30.655	0	1615.580	0	34.0	4	10.6	4	-1E+10	1	-1E+10	1	-1E+10	1	-1E+10	1	-1E+10	1	-1E+10	1
4901784	227	C	09/21/2021	10:48	-136.876	43.116	0	1639.30	0	2.3290	0	38.3710	8	30.656	0	1619.911	0	34.3	4	10.7	4	-1E+10	1	-1E+10	1	-1E+10	1	-1E+10	1	-1E+10	1	-1E+10	1
4901784	227	C	09/21/2021	10:48	-136.876	43.116	0	1644.50	0	2.3200	0	38.3720	8	30.658	0	1625.029	0	34.7	4	10.9	4	-1E+10	1	-1E+10	1	-1E+10	1	-1E+10	1	-1E+10	1	-1E+10	1
4901784	227	C	09/21/2021	10:48	-136.876	43.116	0	1649.80	0	2.3100	0	38.3740	8	30.660	0	1630.246	0	35.0	4	11.0	4	-1E+10	1	-1E+10	1	-1E+10	1	-1E+10	1	-1E+10	1	-1E+10	1
4901784	227	C	09/21/2021	10:48	-136.876	43.116	0	1655.00	0	2.3010	0	38.3760	8	30.663	0	1635.365	0	35.3	4	11.1	4	-1E+10	1	-1E+10	1	-1E+10	1	-1E+10	1	-1E+10	1	-1E+10	1
4901784	227	C	09/21/2021	10:48	-136.876	43.116	0	1660.30	0	2.2940	0	38.3770	8	30.664	0	1640.581	0	35.7	4	11.2	4	-1E+10	1	-1E+10	1	-1E+10	1	-1E+10	1	-1E+10	1	-1E+10	1
4901784	227	C	09/21/2021	10:48	-136.876	43.116	0	1665.70	0	2.2880	0	38.3790	8	30.666	0	1645.896	0	36.0	4	11.3	4	-1E+10	1	-1E+10	1	-1E+10	1	-1E+10	1	-1E+10	1	-1E+10	1
4901784	227	C	09/21/2021	10:48	-136.876	43.116	0	1670.20	0	2.2810	0	38.3800	8	30.668	0	1650.325	0	36.4	4	11.4	4	-1E+10	1	-1E+10	1	-1E+10	1	-1E+10	1	-1E+10	1	-1E+10	1
4901784	227	C	09/21/2021	10:48	-136.876	43.116	0	1674.70	0	2.2750	0	38.3810	8	30.669	0	1654.754	0	36.8	4	11.5	4	-1E+10	1	-1E+10	1	-1E+10	1	-1E+10	1	-1E+10	1	-1E+10	1
4901784	227	C	09/21/2021	10:48	-136.876	43.116	0	1680.00	0	2.2650	0	38.3830	8	30.672	0	1659.970	0	37.2	4	11.6	4	-1E+10	1	-1E+10	1	-1E+10	1	-1E+10	1	-1E+10	1	-1E+10	1
4901784	227	C	09/21/2021	10:48	-136.876	43.116	0	1685.40	0	2.2540	0	38.3840	8	30.674	0	1665.285	0	37.6	4	11.8	4	-1E+10	1	-1E+10	1	-1E+10	1	-1E+10	1	-1E+10	1	-1E+10	1
4901784	227	C	09/21/2021	10:48	-136.876	43.116	0	1689.90	0	2.2460	0	38.3860	8	30.676	0	1669.713	0	37.9	4	11.8	4	-1E+10	1	-1E+10	1	-1E+10	1	-1E+10	1	-1E+10	1	-1E+10	1
4901784	227	C	09/21/2021	10:48	-136.876	43.116	0	1694.40	0	2.2370	0	38.3880	8	30.678	0	1674.142	0	38.1	4	11.9	4	-1E+10	1	-1E+10	1	-1E+10	1	-1E+10	1	-1E+10	1	-1E+10	1
4901784	227	C	09/21/2021	10:48	-136.876	43.116	0	1699.90	0	2.2320	0	38.3890	8	30.680	0	1679.554	0	38.3	4	12.0	4	-1E+10	1	-1E+10	1	-1E+10	1	-1E+10	1	-1E+10	1	-1E+10	1
4901784	227	C	09/21/2021	10:48	-136.876	43.116	0	1705.30	0	2.2280	0	38.3900	8	30.681	0	1684.868	0	38.5	4	12.0	4	-1E+10	1	-1E+10	1	-1E+10	1	-1E+10	1	-1E+10	1	-1E+10	1
4901784	227	C	09/21/2021	10:48	-136.876	43.116	0	1709.90	0	2.2230	0	38.3910	8	30.682	0	1689.395	0	38.7	4	12.1	4	-1E+10	1	-1E+10	1	-1E+10	1	-1E+10	1	-1E+10	1	-1E+10	1
4901784	227	C	09/21/2021	10:48	-136.876	43.116	0	1714.40	0	2.2180	0	38.3920	8	30.683	0	1693.823	0	39.0	4	12.2	4	-1E+10	1	-1E+10	1	-1E+10	1	-1E+10	1	-1E+10	1	-1E+10	1
4901784	227	C	09/21/2021	10:48	-136.876	43.116	0	1719.90	0	2.2110	0	38.3930	8	30.685	0	1699.235	0	39.2	4	12.2	4	-1E+10	1	-1E+10	1	-1E+10	1	-1E+10	1	-1E+10	1	-1E+10	1
4901784	227	C	09/21/2021	10:48	-136.876	43.116	0	1725.40	0	2.2060	0	38.3930	8	30.685	0	1704.647	0	39.5	4	12.3	4	-1E+10	1	-1E+10	1	-1E+10	1	-1E+10	1	-1E+10	1	-1E+10	1
4901784	227	C	09/21/2021	10:48	-136.876	43.116	0	1729.90	0	2.1980	0	38.3950	8	30.688	0	1709.074	0	40.0	4	12.5	4	-1E+10	1	-1E+10	1	-1E+10	1	-1E+10	1	-1E+10	1	-1E+10	1
4901784	227	C	09/21/2021	10:48	-136.876	43.116	0	1734.80	0	2.1900	0	38.3970	8	30.690	0	1713.896	0	40.4	4	12.6	4	-1E+10	1	-1E+10	1	-1E+10	1	-1E+10	1	-1E+10	1	-1E+10	1
4901784	227	C	09/21/2021	10:48	-136.876	43.116	0	1740.00	0	2.1790	0	38.3990	8	30.693	0	1719.012	0	40.7	4	12.7	4	-1E+10	1	-1E+10	1	-1E+10	1	-1E+10	1	-1E+10	1	-1E+10	1
4901784	227	C	09/21/2021	10:48	-136.876	43.116	0	1744.80	0	2.1730	0	38.4000	8	30.694	0	1723.734	0	40.9	4	12.8	4	-1E+10	1	-1E+10	1	-1E+10	1	-1E+10	1	-1E+10	1	-1E+10	1
4901784	227	C	09/21/2021	10:48	-136.876	43.116	0	1749.70	0	2.1670	0	38.4010	8	30.695	0	1728.555	0	40.9	4	12.8	4	-1E+10	1	-1E+10	1	-1E+10	1	-1E+10	1	-1E+10	1	-1E+10	1
4901784	227	C	09/21/2021	10:48	-136.876	43.116	0	1754.60	0	2.1610	0	38.4020	8	30.697	0	1733.376	0	41.0	4	12.8	4	-1E+10	1	-1E+10	1	-1E+10	1	-1E+10	1	-1E+10	1	-1E+10	1
4901784	227	C	09/21/2021	10:48	-136.876	43.116	0	1759.50	0	2.1560	0	38.4040	8	30.699	0	1738.197	0	41.2	4	12.8	4	-1E+10	1	-1E+10	1	-1E+10	1	-1E+10	1	-1E+10	1	-1E+10	1
4901784	227	C	09/21/2021	10:48	-136.876	43.116	0	1764.50	0	2.1540	0	38.4040	8	30.699	0	1743.116	0	41.4	4	12.9	4	-1E+10	1	-1E+10	1	-1E+10	1	-1E+10	1	-1E+10	1	-1E+10	1
4901784	227	C	09/21/2021	10:48	-136.876	43.116	0	1769.40	0	2.1500	0	38.4050	8	30.700	0	1747.936	0	41.7	4	13.0	4	-1E+10	1	-1E+10	1	-1E+10	1	-1E+10	1	-1E+10	1	-1E+10	1
4901784	227	C	09/21/2021	10:48	-136.876	43.116	0	1774.40	0	2.1450	0	38.4060	8	30.702	0	1752.855	0	42.0	4	13.1	4	-1E+10	1	-1E+10	1	-1E+10	1	-1E+10	1	-1E+10	1	-1E+10	1
4901784	227	C	09/21/2021	10:48	-136.876	43.116	0	1779.40	0	2.1390	0	38.4080	8	30.704	0	1757.774	0	42.3	4	13.2	4	-1E+10	1	-1E+10	1	-1E+10	1	-1E+10	1	-1E+10	1	-1E+10	1
4901784	227	C	09/21/2021	10:48	-136.876	43.116	0	1784.40	0	2.1350	0	38.4090	8	30.705	0	1762.692	0	42.6	4	13.3	4	-1E+10	1	-1E+10	1	-1E+10	1	-1E+10	1	-1E+10	1	-1E+10	1
4901784	227	C	09/21/2021	10:48	-136.876	43.116	0	1789.50	0	2.1310	0	38.4090	8	30.705	0	1767.709	0	42.9	4	13.4	4	-1E+10	1	-1E+10	1	-1E+10	1	-1E+10	1	-1E+10	1	-1E+10	1
4901784	227	C	09/21/2021	10:48	-136.876	43.116	0	1794.60	0	2.1280	0	38.4100	8	30.707	0	1772.725	0	43.2	4	13.5	4	-1E+10	1	-1E+10	1	-1E+10	1	-1E+10	1	-1E+10	1	-1E+10	1
4901784	227	C	09/21/2021	10:48	-136.876	43.116	0	1799.70	0	2.1210	0	38.4120	8	30.709	0	1777.742	0	43.5	4	13.5	4	-1E+10	1	-1E+10	1	-1E+10	1	-1E+10	1	-1E+10	1	-1E+10	1
4901784	227	C	09/21/2021	10:48	-136.876	43.116	0	1804.90	0	2.1160	0	38.4130	8	30.710	0	1782.857	0	43.6	4	13.6	4	-1E+10	1	-1E+10	1	-1E+10	1	-1E+10	1	-1E+10	1	-1E+10	1
4901784	227	C	09/21/2021	10:48	-136.876	43.116	0	1810.10	0	2.1120	0	38.4140	8	30.711	0	1787.971	0	44.1	4	13.7	4	-1E+10	1	-1E+10	1	-1E+10	1	-1E+10	1	-1E+10	1	-1E+10	1
4901784	227	C	09/21/2021	10:48	-136.876	43.116	0	1815.30	0	2.1100	0	38.4150	8	30.712	0	1793.086	0	44.4	4	13.8	4	-1E+10	1	-1E+10	1	-1E+10	1	-1E+10	1	-1E+10	1	-1E+10	1
4901784	227	C	09/21/2021	10:48	-136.876	43.116	0	1820.40	0	2.1030	0	38.4160	8	30.714	0	1798.102	0	44.7	4	13.9	4	-1E+10	1	-1E+10	1	-1E+10	1	-1E+10	1	-1E+10	1	-1E+10	1
4901784	227	C	09/21/2021	10:48	-136.876	43.116	0	1825.60	0	2.0990	0	38.4170	8	30.715	0	1803.216	0	44.9	4	14.0	4	-1E+10	1	-1E+10	1	-1E+10	1	-1E+10	1	-1E+10	1	-1E+10	1
4901784	227	C	09/21/2021	10:48	-136.876	43.116	0	1830.00	0	2.0950	0	38.4180	8	30.716	0	1807.543	0	45.1	4	14.1	4	-1E+10	1	-1E+10	1	-1E+10	1	-1E+10	1	-1E+10	1	-1E+10	1
4901784	227	C	09/21/2021	10:48	-136.876	43.116	0	1834.30	0	2.0910	0	38.4190	8	30.717	0	1811.772	0	45.5	4	14.2	4	-1E+10	1	-1E+10	1	-1E+10	1	-1E+10	1	-1E+10	1	-1E+10	1
4901784	227	C	09/21/2021	10:48	-136.876	43.116	0	1839.50	0	2.0870	0	38.4200	8	30.719	0	1816.886	0	45.8	4	14.2	4	-1E+10	1	-1E+10	1	-1E+10	1	-1E+10	1	-1E+10	1	-1E+10	1
4901784	227	C	09/21/2021	10:48	-136.876	43.116	0	1844.70	0	2.0840	0	38.4210	8	30.720	0	1822.000	0	45.9	4	14.3	4	-1E+10	1	-1E+10	1	-1E+10	1	-1E+10	1	-1E+10	1	-1E+10	1
4901784	227	C	09/21/2021	10:48	-136.876	43.116	0	1850.00	0	2.0780	0	38.4220	8	30.721	0	1827.212	0	46.1	4	14.4	4	-1E+10	1	-1E+10	1	-1E+10	1	-1E+10	1	-1E+10	1	-1E+10	1
4901784	227	C	09/21/2021	10:48	-136.876	43.116	0	1855.30	0	2.0730	0	38.4230	8	30.722	0	1832.424	0	46.6	4	14.5	4	-1E+10	1	-1E+10	1	-1E+10	1	-1E+10	1	-1E+10	1	-1E+10	1
4901784	227	C	09/21/2021	10:48	-136.876	43.116	0	1860.60	0	2.0680	0	38.4240	8	30.724	0	1837.636	0	47.1	4	14.7	4	-1E+10	1	-1E+10	1	-1E+10	1	-1E+10	1	-1E+10	1	-1E+10	1
4901784	227	C	09/21/2021	10:48	-136.876	43.116	0	1865.20	0	2.0620	0	38.4260	8	30.726	0	1842.159	0	47.4	4	14.8	4	-1E+10	1	-1E+10	1	-1E+10	1	-1E+10	1	-1E+10	1	-1E+10	1
4901784	227	C	09/21/2021	10:48	-136.876	43.116	0	1869.70	0	2.0550	0	38.4270	8	30.727	0	1846.584	0	47.7	4	14.8	4	-1E+10	1	-1E+10	1	-1E+10	1	-1E+10	1	-1E+10	1	-1E+10	1
4901784	227	C	09/21/2021	10:48	-136.876	43.116	0	1875.10	0	2.0510	0	38.4280	8	30.728	0	1851.894	0	48.1	4	14.9	4	-1E+10	1	-1E+10	1	-1E+10	1	-1E+10	1	-1E+10	1	-1E+10	1
4901784	227	C	09/21/2021	10:48	-136.876	43.116	0	1880.50	0	2.0460	0	38.4290	8	30.730	0	1857.203	0	48.6	4	15.1	4	-1E+10	1	-1E+10	1	-1E+10	1	-1E+10	1	-1E+10	1	-1E+10	1
4901784	227	C	09/21/2021	10:48	-136.876	43.116	0	1885.00	0	2.0430	0	38.4300	8	30.731	0	1861.628	0	48.8	4	15.2	4	-1E+10	1	-1E+10	1	-1E+10	1	-1E+10	1	-1E+10	1	-1E+10	1
4901784	227	C	09/21/2021	10:48	-136.876	43.116	0	1889.50	0	2.0410	0	38.4310	8	30.732	0	1866.052	0	49.0	4	15.2	4	-1E+10	1	-1E+10	1	-1E+10	1	-1E+10	1	-1E+10	1	-1E+10	1
4901784	227	C	09/21/2021	10:48	-136.876	43.116	0	1895.00	0	2.0360	0	38.4320	8	30.733	0	1871.460	0	49.2	4	15.3	4	-1E+10	1	-1E+10	1	-1E+10	1	-1E+10	1	-1E+10	1	-1E+10	1
4901784	227	C	09/21/2021	10:48	-136.876	43.116	0	1900.00	0	2.0320	0	38.4330	8	30.734	0	1876.376	0	49.5	4	15.4	4	-1E+10	1	-1E+10	1	-1E+10	1	-1E+10	1	-1E+10	1	-1E+10	1
4901784	227	C	09/21/2021	10:48	-136.876	43.116	0	1905.10	0	2.0270	0	38.4340	8	30.736	0	1881.390	0	49.9	4	15.5	4	-1E+10	1	-1E+10	1	-1E+10	1	-1E+10	1	-1E+10	1	-1E+10	1
4901784	227	C	09/21/2021	10:48	-136.876	43.116	0	1910.70	0	2.0220	0	38.4350	8	30.737	0	1886.895	0	50.3	4	15.6	4	-1E+10	1	-1E+10	1	-1E+10	1	-1E+10	1	-1E+10	1	-1E+10	1
4901784	227	C	09/21/2021	10:48	-136.876	43.116	0	1915.60	0	2.0180	0	38.4360	8	30.738	0	1891.712	0	50.7	4	15.7	4	-1E+10	1	-1E+10	1	-1E+10	1	-1E+10	1	-1E+10	1	-1E+10	1
4901784	227	C	09/21/2021	10:48	-136.876	43.116	0	1920.50	0	2.0140	0	38.4370	8	30.739	0	1896.530	0	51.1	4	15.9	4	-1E+10	1	-1E+10	1	-1E+10	1	-1E+10	1	-1E+10	1	-1E+10	1
4901784	227	C	09/21/2021	10:48	-136.876	43.116	0	1925.30	0	2.0090	0	38.4380	8	30.741	0	1901.248	0	51.6	4	16.0	4	-1E+10	1	-1E+10	1	-1E+10	1	-1E+10	1	-1E+10	1	-1E+10	1
4901784	227	C	09/21/2021	10:48	-136.876	43.116	0	1930.20	0	2.0040	0	38.4390	8	30.742	0	1906.065	0	51.9	4	16.1	4	-1E+10	1	-1E+10	1	-1E+10	1	-1E+10	1	-1E+10	1	-1E+10	1
4901784	227	C	09/21/2021	10:48	-136.876	43.116	0	1935.10	0	1.9990	0	38.4400	8	30.743	0	1910.882	0	52.2	4	16.2	4	-1E+10	1	-1E+10	1	-1E+10	1	-1E+10	1	-1E+10	1	-1E+10	1
4901784	227	C	09/21/2021	10:48	-136.876	43.116	0	1940.10	0	1.9970	0	38.4410	8	30.744	0	1915.797	0	52.3	4	16.2	4	-1E+10	1	-1E+10	1	-1E+10	1	-1E+10	1	-1E+10	1	-1E+10	1
4901784	227	C	09/21/2021	10:48	-136.876	43.116	0	1945.00	0	1.9950	0	38.4420	8	30.745	0	1920.613	0	52.5	4	16.3	4	-1E+10	1	-1E+10	1	-1E+10	1	-1E+10	1	-1E+10	1	-1E+10	1
4901784	227	C	09/21/2021	10:48	-136.876	43.116	0	1949.90	0	1.9920	0	38.4420	8	30.745	0	1925.430	0	52.7	4	16.4	4	-1E+10	1	-1E+10	1	-1E+10	1	-1E+10	1	-1E+10	1	-1E+10	1
4901784	227	C	09/21/2021	10:48	-136.876	43.116	0	1954.90	0	1.9890	0	38.4430	8	30.747	0	1930.344	0	53.1	4	16.5	4	-1E+10	1	-1E+10	1	-1E+10	1	-1E+10	1	-1E+10	1	-1E+10	1
4901784	227	C	09/21/2021	10:48	-136.876	43.116	0	1960.00	0	1.9860	0	38.4430	8	30.747	0	1935.357	0	53.4	4	16.6	4	-1E+10	1	-1E+10	1	-1E+10	1	-1E+10	1	-1E+10	1	-1E+10	1
4901784	227	C	09/21/2021	10:48	-136.876	43.116	0	1965.00	0	1.9830	0	38.4440	8	30.748	0	1940.271	0	53.6	4	16.7	4	-1E+10	1	-1E+10	1	-1E+10	1	-1E+10	1	-1E+10	1	-1E+10	1
4901784	227	C	09/21/2021	10:48	-136.876	43.116	0	1970.10	0	1.9810	0	38.4450	8	30.749	0	1945.284	0	53.8	4	16.7	4	-1E+10	1	-1E+10	1	-1E+10	1	-1E+10	1	-1E+10	1	-1E+10	1
4901784	227	C	09/21/2021	10:48	-136.876	43.116	0	1975.10	0	1.9780	0	38.4450	8	30.749	0	1950.198	0	54.0	4	16.8	4	-1E+10	1	-1E+10	1	-1E+10	1	-1E+10	1	-1E+10	1	-1E+10	1
4901784	227	C	09/21/2021	10:48	-136.876	43.116	0	1980.30	0	1.9740	0	38.4460	8	30.750	0	1955.309	0	54.2	4	16.8	4	-1E+10	1	-1E+10	1	-1E+10	1	-1E+10	1	-1E+10	1	-1E+10	1
4901784	227	C	09/21/2021	10:48	-136.876	43.116	0	1985.40	0	1.9720	0	38.4470	8	30.751	0	1960.321	0	54.5	4	16.9	4	-1E+10	1	-1E+10	1	-1E+10	1	-1E+10	1	-1E+10	1	-1E+10	1
4901784	227	C	09/21/2021	10:48	-136.876	43.116	0	1990.50	0	1.9700	0	38.4480	8	30.752	0	1965.333	0	54.7	4	17.0	4	-1E+10	1	-1E+10	1	-1E+10	1	-1E+10	1	-1E+10	1	-1E+10	1
4901784	227	C	09/21/2021	10:48	-136.876	43.116	0	1995.70	0	1.9680	0	38.4480	8	30.753	0	1970.443	0	54.9	4	17.0	4	-1E+10	1	-1E+10	1	-1E+10	1	-1E+10	1	-1E+10	1	-1E+10	1
4901784	227	C	09/21/2021	10:48	-136.876	43.116	0	2000.60	0	1.9660	0	38.4490	8	30.754	0	1975.258	0	55.1	4	17.1	4	-1E+10	1	-1E+10	1	-1E+10	1	-1E+10	1	-1E+10	1	-1E+10	1
4901784	227	C	09/21/2021	10:48	-136.876	43.116	0	2005.20	0	1.9640	0	38.4490	8	30.754	0	1979.779	0	55.3	4	17.2	4	-1E+10	1	-1E+10	1	-1E+10	1	-1E+10	1	-1E+10	1	-1E+10	1
4901784	227	C	09/21/2021	10:48	-136.876	43.116	0	2010.60	0	1.9610	0	38.4500	8	30.755	0	1985.085	0	55.5	4	17.2	4	-1E+10	1	-1E+10	1	-1E+10	1	-1E+10	1	-1E+10	1	-1E+10	1
4901784	227	C	09/21/2021	10:48	-136.876	43.116	0	2015.20	0	1.9590	0	38.4500	8	30.755	0	1989.605	0	55.8	4	17.3	4	-1E+10	1	-1E+10	1	-1E+10	1	-1E+10	1	-1E+10	1	-1E+10	1
4901784	227	C	09/21/2021	10:48	-136.876	43.116	0	2020.70	0	1.9550	0	38.4510	8	30.756	0	1995.010	0	54.7	4	17.0	4	-1E+10	1	-1E+10	1	-1E+10	1	-1E+10	1	-1E+10	1	-1E+10	1
4901784	227	C	09/21/2021	10:48	-136.876	43.116	0																										
4901784	228	C	10/01/2021	10:45	-136.585	43.165	0	2.00	0	17.8000	0	36.1250	8	26.185	0	1.984	0	225.7	4	96.8	4	-1E+10	1	-1E+10	1	-1E+10	1	-1E+10	1	-1E+10	1	-1E+10	1
4901784	228	C	10/01/2021	10:45	-136.585	43.165	0	3.50	0	17.8220	0	36.1230	8	26.178	0	3.472	0	225.6	4	96.8	4	-1E+10	1	-1E+10	1	-1E+10	1	-1E+10	1	-1E+10	1	-1E+10	1
4901784	228	C	10/01/2021	10:45	-136.585	43.165	0	5.10	0	17.8080	0	36.1260	8	26.184	0	5.059	0	225.6	4	96.8	4	-1E+10	1	-1E+10	1	-1E+10	1	-1E+10	1	-1E+10	1	-1E+10	1
4901784	228	C	10/01/2021	10:45	-136.585	43.165	0	6.70	0	17.8220	0	36.1260	8	26.180	0	6.647	0	225.4	4	96.8	4	-1E+10	1	-1E+10	1	-1E+10	1	-1E+10	1	-1E+10	1	-1E+10	1
4901784	228	C	10/01/2021	10:45	-136.585	43.165	0	8.60	0	17.8260	0	36.1280	8	26.181	0	8.531	0	225.4	4	96.7	4	-1E+10	1	-1E+10	1	-1E+10	1	-1E+10	1	-1E+10	1	-1E+10	1
4901784	228	C	10/01/2021	10:45	-136.585	43.165	0	10.50	0	17.8270	0	36.1280	8	26.181	0	10.416	0	225.4	4	96.8	4	-1E+10	1	-1E+10	1	-1E+10	1	-1E+10	1	-1E+10	1	-1E+10	1
4901784	228	C	10/01/2021	10:45	-136.585	43.165	0	12.30	0	17.8300	0	36.1290	8	26.181	0	12.202	0	225.3	4	96.7	4	-1E+10	1	-1E+10	1	-1E+10	1	-1E+10	1	-1E+10	1	-1E+10	1
4901784	228	C	10/01/2021	10:45	-136.585	43.165	0	14.10	0	17.8300	0	36.1310	8	26.182	0	13.987	0	225.2	4	96.7	4	-1E+10	1	-1E+10	1	-1E+10	1	-1E+10	1	-1E+10	1	-1E+10	1
4901784	228	C	10/01/2021	10:45	-136.585	43.165	0	16.10	0	17.8280	0	36.1320	8	26.184	0	15.971	0	225.1	4	96.6	4	-1E+10	1	-1E+10	1	-1E+10	1	-1E+10	1	-1E+10	1	-1E+10	1
4901784	228	C	10/01/2021	10:45	-136.585	43.165	0	18.00	0	17.8290	0	36.1320	8	26.184	0	17.856	0	225.1	4	96.6	4	-1E+10	1	-1E+10	1	-1E+10	1	-1E+10	1	-1E+10	1	-1E+10	1
4901784	228	C	10/01/2021	10:45	-136.585	43.165	0	20.00	0	17.8300	0	36.1340	8	26.185	0	19.840	0	225.0	4	96.6	4	-1E+10	1	-1E+10	1	-1E+10	1	-1E+10	1	-1E+10	1	-1E+10	1
4901784	228	C	10/01/2021	10:45	-136.585	43.165	0	21.90	0	17.8290	0	36.1350	8	26.186	0	21.725	0	224.9	4	96.5	4	-1E+10	1	-1E+10	1	-1E+10	1	-1E+10	1	-1E+10	1	-1E+10	1
4901784	228	C	10/01/2021	10:45	-136.585	43.165	0	23.90	0	17.8290	0	36.1350	8	26.186	0	23.709	0	224.8	4	96.5	4	-1E+10	1	-1E+10	1	-1E+10	1	-1E+10	1	-1E+10	1	-1E+10	1
4901784	228	C	10/01/2021	10:45	-136.585	43.165	0	25.90	0	17.8290	0	36.1360	8	26.187	0	25.692	0	224.5	4	96.4	4	-1E+10	1	-1E+10	1	-1E+10	1	-1E+10	1	-1E+10	1	-1E+10	1
4901784	228	C	10/01/2021	10:45	-136.585	43.165	0	27.80	0	17.8240	0	36.1360	8	26.188	0	27.577	0	224.2	4	96.3	4	-1E+10	1	-1E+10	1	-1E+10	1	-1E+10	1	-1E+10	1	-1E+10	1
4901784	228	C	10/01/2021	10:45	-136.585	43.165	0	29.60	0	17.8230	0	36.1370	8	26.189	0	29.363	0	224.3	4	96.3	4	-1E+10	1	-1E+10	1	-1E+10	1	-1E+10	1	-1E+10	1	-1E+10	1
4901784	228	C	10/01/2021	10:45	-136.585	43.165	0	31.50	0	17.8310	0	36.1380	8	26.188	0	31.247	0	224.3	4	96.3	4	-1E+10	1	-1E+10	1	-1E+10	1	-1E+10	1	-1E+10	1	-1E+10	1
4901784	228	C	10/01/2021	10:45	-136.585	43.165	0	33.30	0	17.8270	0	36.1360	8	26.188	0	33.033	0	224.2	4	96.3	4	-1E+10	1	-1E+10	1	-1E+10	1	-1E+10	1	-1E+10	1	-1E+10	1
4901784	228	C	10/01/2021	10:45	-136.585	43.165	0	35.20	0	17.8120	0	36.1360	8	26.192	0	34.917	0	224.2	4	96.2	4	-1E+10	1	-1E+10	1	-1E+10	1	-1E+10	1	-1E+10	1	-1E+10	1
4901784	228	C	10/01/2021	10:45	-136.585	43.165	0	36.90	0	17.8090	0	36.1350	8	26.192	0	36.603	0	224.2	4	96.2	4	-1E+10	1	-1E+10	1	-1E+10	1	-1E+10	1	-1E+10	1	-1E+10	1
4901784	228	C	10/01/2021	10:45	-136.585	43.165	0	38.70	0	17.8040	0	36.1370	8	26.194	0	38.389	0	224.3	4	96.3	4	-1E+10	1	-1E+10	1	-1E+10	1	-1E+10	1	-1E+10	1	-1E+10	1
4901784	228	C	10/01/2021	10:45	-136.585	43.165	0	40.90	0	17.7940	0	36.1310	8	26.192	0	40.571	0	224.8	4	96.4	4	-1E+10	1	-1E+10	1	-1E+10	1	-1E+10	1	-1E+10	1	-1E+10	1
4901784	228	C	10/01/2021	10:45	-136.585	43.165	0	42.50	0	17.7900	0	36.1240	8	26.188	0	42.158	0	225.9	4	96.9	4	-1E+10	1	-1E+10	1	-1E+10	1	-1E+10	1	-1E+10	1	-1E+10	1
4901784	228	C	10/01/2021	10:45	-136.585	43.165	0	43.80	0	17.7870	0	36.1160	8	26.183	0	43.447	0	226.7	4	97.2	4	-1E+10	1	-1E+10	1	-1E+10	1	-1E+10	1	-1E+10	1	-1E+10	1
4901784	228	C	10/01/2021	10:45	-136.585	43.165	0	44.90	0	17.7860	0	36.1030	8	26.173	0	44.538	0	228.3	4	97.9	4	-1E+10	1	-1E+10	1	-1E+10	1	-1E+10	1	-1E+10	1	-1E+10	1
4901784	228	C	10/01/2021	10:45	-136.585	43.165	0	46.10	0	17.7640	0	36.0820	8	26.162	0	45.728	0	230.8	4	98.9	4	-1E+10	1	-1E+10	1	-1E+10	1	-1E+10	1	-1E+10	1	-1E+10	1
4901784	228	C	10/01/2021	10:45	-136.585	43.165	0	47.40	0	17.5730	0	36.0700	8	26.200	0	47.018	0	234.3	4	100.1	4	-1E+10	1	-1E+10	1	-1E+10	1	-1E+10	1	-1E+10	1	-1E+10	1
4901784	228	C	10/01/2021	10:45	-136.585	43.165	0	49.00	0	17.1040	0	36.0410	8	26.292	0	48.605	0	240.7	4	101.9	4	-1E+10	1	-1E+10	1	-1E+10	1	-1E+10	1	-1E+10	1	-1E+10	1
4901784	228	C	10/01/2021	10:45	-136.585	43.165	0	50.20	0	16.4270	0	36.0430	8	26.454	0	49.795	0	248.3	4	103.7	4	-1E+10	1	-1E+10	1	-1E+10	1	-1E+10	1	-1E+10	1	-1E+10	1
4901784	228	C	10/01/2021	10:45	-136.585	43.165	0	51.30	0	16.2020	0	35.9880	8	26.464	0	50.886	0	252.8	4	105.2	4	-1E+10	1	-1E+10	1	-1E+10	1	-1E+10	1	-1E+10	1	-1E+10	1
4901784	228	C	10/01/2021	10:45	-136.585	43.165	0	52.70	0	14.5090	0	36.0770	8	26.913	0	52.274	0	262.0	4	105.5	4	-1E+10	1	-1E+10	1	-1E+10	1	-1E+10	1	-1E+10	1	-1E+10	1
4901784	228	C	10/01/2021	10:45	-136.585	43.165	0	54.10	0	13.9590	0	36.0980	8	27.047	0	53.663	0	266.0	4	106.0	4	-1E+10	1	-1E+10	1	-1E+10	1	-1E+10	1	-1E+10	1	-1E+10	1
4901784	228	C	10/01/2021	10:45	-136.585	43.165	0	55.60	0	13.6260	0	36.0900	8	27.111	0	55.151	0	265.9	4	105.2	4	-1E+10	1	-1E+10	1	-1E+10	1	-1E+10	1	-1E+10	1	-1E+10	1
4901784	228	C	10/01/2021	10:45	-136.585	43.165	0	57.00	0	13.3070	0	36.0830	8	27.172	0	56.539	0	265.9	4	104.5	4	-1E+10	1	-1E+10	1	-1E+10	1	-1E+10	1	-1E+10	1	-1E+10	1
4901784	228	C	10/01/2021	10:45	-136.585	43.165	0	58.60	0	13.1500	0	36.0940	8	27.213	0	58.126	0	264.5	4	103.7	4	-1E+10	1	-1E+10	1	-1E+10	1	-1E+10	1	-1E+10	1	-1E+10	1
4901784	228	C	10/01/2021	10:45	-136.585	43.165	0	60.20	0	13.0300	0	36.1810	8	27.305	0	59.713	0	262.2	4	102.6	4	-1E+10	1	-1E+10	1	-1E+10	1	-1E+10	1	-1E+10	1	-1E+10	1
4901784	228	C	10/01/2021	10:45	-136.585	43.165	0	61.80	0	12.7650	0	36.1880	8	27.364	0	61.300	0	262.0	4	101.9	4	-1E+10	1	-1E+10	1	-1E+10	1	-1E+10	1	-1E+10	1	-1E+10	1
4901784	228	C	10/01/2021	10:45	-136.585	43.165	0	63.50	0	12.3940	0	36.1960	8	27.444	0	62.986	0	261.1	4	100.8	4	-1E+10	1	-1E+10	1	-1E+10	1	-1E+10	1	-1E+10	1	-1E+10	1
4901784	228	C	10/01/2021	10:45	-136.585	43.165	0	65.10	0	12.4050	0	36.2110	8	27.453	0	64.572	0	258.8	4	100.0	4	-1E+10	1	-1E+10	1	-1E+10	1	-1E+10	1	-1E+10	1	-1E+10	1
4901784	228	C	10/01/2021	10:45	-136.585	43.165	0	66.70	0	12.2900	0	36.2080	8	27.474	0	66.159	0	256.7	4	98.9	4	-1E+10	1	-1E+10	1	-1E+10	1	-1E+10	1	-1E+10	1	-1E+10	1
4901784	228	C	10/01/2021	10:45	-136.585	43.165	0	68.40	0	12.0330	0	36.2220	8	27.535	0	67.845	0	255.1	4	97.8	4	-1E+10	1	-1E+10	1	-1E+10	1	-1E+10	1	-1E+10	1	-1E+10	1
4901784	228	C	10/01/2021	10:45	-136.585	43.165	0	70.20	0	11.9140	0	36.2100	8	27.548	0	69.630	0	254.2	4	97.2	4	-1E+10	1	-1E+10	1	-1E+10	1	-1E+10	1	-1E+10	1	-1E+10	1
4901784	228	C	10/01/2021	10:45	-136.585	43.165	0	71.90	0	11.7930	0	36.2020	8	27.565	0	71.316	0	253.0	4	96.5	4	-1E+10	1	-1E+10	1	-1E+10	1	-1E+10	1	-1E+10	1	-1E+10	1
4901784	228	C	10/01/2021	10:45	-136.585	43.165	0	73.60	0	11.6450	0	36.2030	8	27.595	0	73.002	0	251.7	4	95.7	4	-1E+10	1	-1E+10	1	-1E+10	1	-1E+10	1	-1E+10	1	-1E+10	1
4901784	228	C	10/01/2021	10:45	-136.585	43.165	0	75.40	0	11.5800	0	36.2000	8	27.605	0	74.787	0	250.1	4	95.0	4	-1E+10	1	-1E+10	1	-1E+10	1	-1E+10	1	-1E+10	1	-1E+10	1
4901784	228	C	10/01/2021	10:45	-136.585	43.165	0	77.10	0	11.5230	0	36.1970	8	27.613	0	76.473	0	248.3	4	94.2	4	-1E+10	1	-1E+10	1	-1E+10	1	-1E+10	1	-1E+10	1	-1E+10	1
4901784	228	C	10/01/2021	10:45	-136.585	43.165	0	78.90	0	11.4510	0	36.1950	8	27.625	0	78.258	0	246.7	4	93.4	4	-1E+10	1	-1E+10	1	-1E+10	1	-1E+10	1	-1E+10	1	-1E+10	1
4901784	228	C	10/01/2021	10:45	-136.585	43.165	0	80.70	0	11.3260	0	36.1910	8	27.645	0	80.043	0	245.3	4	92.6	4	-1E+10	1	-1E+10	1	-1E+10	1	-1E+10	1	-1E+10	1	-1E+10	1
4901784	228	C	10/01/2021	10:45	-136.585	43.165	0	82.60	0	11.1830	0	36.2000	8	27.679	0	81.927	0	244.6	4	92.1	4	-1E+10	1	-1E+10	1	-1E+10	1	-1E+10	1	-1E+10	1	-1E+10	1
4901784	228	C	10/01/2021	10:45	-136.585	43.165	0	84.40	0	11.1240	0	36.1930	8	27.685	0	83.712	0	243.6	4	91.6	4	-1E+10	1	-1E+10	1	-1E+10	1	-1E+10	1	-1E+10	1	-1E+10	1
4901784	228	C	10/01/2021	10:45	-136.585	43.165	0	86.20	0	10.9910	0	36.2000	8	27.715	0	85.497	0	243.1	4	91.2	4	-1E+10	1	-1E+10	1	-1E+10	1	-1E+10	1	-1E+10	1	-1E+10	1
4901784	228	C	10/01/2021	10:45	-136.585	43.165	0	88.00	0	10.8940	0	36.1980	8	27.731	0	87.282	0	242.9	4	90.9	4	-1E+10	1	-1E+10	1	-1E+10	1	-1E+10	1	-1E+10	1	-1E+10	1
4901784	228	C	10/01/2021	10:45	-136.585	43.165	0	89.90	0	10.7020	0	36.2010	8	27.768	0	89.166	0	243.0	4	90.6	4	-1E+10	1	-1E+10	1	-1E+10	1	-1E+10	1	-1E+10	1	-1E+10	1
4901784	228	C	10/01/2021	10:45	-136.585	43.165	0	91.80	0	10.6730	0	36.1970	8	27.770	0	91.050	0	243.0	4	90.5	4	-1E+10	1	-1E+10	1	-1E+10	1	-1E+10	1	-1E+10	1	-1E+10	1
4901784	228	C	10/01/2021	10:45	-136.585	43.165	0	93.70	0	10.6040	0	36.1960	8	27.782	0	92.934	0	242.7	4	90.3	4	-1E+10	1	-1E+10	1	-1E+10	1	-1E+10	1	-1E+10	1	-1E+10	1
4901784	228	C	10/01/2021	10:45	-136.585	43.165	0	95.50	0	10.5230	0	36.1910	8	27.793	0	94.719	0	242.5	4	90.1	4	-1E+10	1	-1E+10	1	-1E+10	1	-1E+10	1	-1E+10	1	-1E+10	1
4901784	228	C	10/01/2021	10:45	-136.585	43.165	0	97.40	0	10.4920	0	36.1970	8	27.803	0	96.603	0	242.5	4	90.0	4	-1E+10	1	-1E+10	1	-1E+10	1	-1E+10	1	-1E+10	1	-1E+10	1
4901784	228	C	10/01/2021	10:45	-136.585	43.165	0	99.80	0	10.3870	0	36.2000	8	27.824	0	98.983	0	242.3	4	89.7	4	-1E+10	1	-1E+10	1	-1E+10	1	-1E+10	1	-1E+10	1	-1E+10	1
4901784	228	C	10/01/2021	10:45	-136.585	43.165	0	102.50	0	10.2280	0	36.1810	8	27.837	0	101.660	0	242.9	4	89.6	4	-1E+10	1	-1E+10	1	-1E+10	1	-1E+10	1	-1E+10	1	-1E+10	1
4901784	228	C	10/01/2021	10:45	-136.585	43.165	0	104.90	0	10.1140	0	36.1790	8	27.856	0	104.040	0	243.3	4	89.6	4	-1E+10	1	-1E+10	1	-1E+10	1	-1E+10	1	-1E+10	1	-1E+10	1
4901784	228	C	10/01/2021	10:45	-136.585	43.165	0	107.20	0	10.1500	0	36.1830	8	27.853	0	106.320	0	243.1	4	89.6	4	-1E+10	1	-1E+10	1	-1E+10	1	-1E+10	1	-1E+10	1	-1E+10	1
4901784	228	C	10/01/2021	10:45	-136.585	43.165	0	110.30	0	9.6860	0	36.1250	8	27.888	0	109.394	0	245.9	4	89.7	4	-1E+10	1	-1E+10	1	-1E+10	1	-1E+10	1	-1E+10	1	-1E+10	1
4901784	228	C	10/01/2021	10:45	-136.585	43.165	0	112.60	0	9.3130	0	36.1050	8	27.935	0	111.674	0	247.5	4	89.5	4	-1E+10	1	-1E+10	1	-1E+10	1	-1E+10	1	-1E+10	1	-1E+10	1
4901784	228	C	10/01/2021	10:45	-136.585	43.165	0	115.10	0	9.2170	0	36.1120	8	27.956	0	114.153	0	246.8	4	89.1	4	-1E+10	1	-1E+10	1	-1E+10	1	-1E+10	1	-1E+10	1	-1E+10	1
4901784	228	C	10/01/2021	10:45	-136.585	43.165	0	117.60	0	9.0870	0	36.1300	8	27.992	0	116.632	0	245.2	4	88.3	4	-1E+10	1	-1E+10	1	-1E+10	1	-1E+10	1	-1E+10	1	-1E+10	1
4901784	228	C	10/01/2021	10:45	-136.585	43.165	0	120.10	0	9.1480	0	36.1890	8	28.028	0	119.111	0	241.6	4	87.1	4	-1E+10	1	-1E+10	1	-1E+10	1	-1E+10	1	-1E+10	1	-1E+10	1
4901784	228	C	10/01/2021	10:45	-136.585	43.165	0	122.60	0	9.0780	0	36.2210	8	28.065	0	121.589	0	239.4	4	86.2	4	-1E+10	1	-1E+10	1	-1E+10	1	-1E+10	1	-1E+10	1	-1E+10	1
4901784	228	C	10/01/2021	10:45	-136.585	43.165	0	125.20	0	9.0350	0	36.2380	8	28.085	0	124.167	0	236.3	4	85.0	4	-1E+10	1	-1E+10	1	-1E+10	1	-1E+10	1	-1E+10	1	-1E+10	1
4901784	228	C	10/01/2021	10:45	-136.585	43.165	0	127.70	0	9.2220	0	36.2970	8	28.101	0	126.646	0	231.2	4	83.6	4	-1E+10	1	-1E+10	1	-1E+10	1	-1E+10	1	-1E+10	1	-1E+10	1
4901784	228	C	10/01/2021	10:45	-136.585	43.165	0	130.40	0	9.3360	0	36.3890	8	28.154	0	129.323	0	226.4	4	82.1	4	-1E+10	1	-1E+10	1	-1E+10	1	-1E+10	1	-1E+10	1	-1E+10	1
4901784	228	C	10/01/2021	10:45	-136.585	43.165	0	133.00	0	9.3520	0	36.4340	8	28.186	0	131.900	0	223.5	4	81.1	4	-1E+10	1	-1E+10	1	-1E+10	1	-1E+10	1	-1E+10	1	-1E+10	1
4901784	228	C	10/01/2021	10:45	-136.585	43.165	0	134.80	0	9.0590	0	36.4120	8	28.218	0	133.685	0	222.5	4	80.2	4	-1E+10	1	-1E+10	1	-1E+10	1	-1E+10	1	-1E+10	1	-1E+10	1
4901784	228	C	10/01/2021	10:45	-136.585	43.165	0	137.60	0	9.0770	0	36.5190	8	28.299	0	136.461	0	219.1	4	79.1	4	-1E+10	1	-1E+10	1	-1E+10	1	-1E+10	1	-1E+10	1	-1E+10	1
4901784	228	C	10/01/2021	10:45	-136.585	43.165	0	140.40	0	8.8810	0	36.5520	8	28.357	0	139.237	0	217.3	4	78.1	4	-1E+10	1	-1E+10	1	-1E+10	1	-1E+10	1	-1E+10	1	-1E+10	1
4901784	228	C	10/01/2021	10:45	-136.585	43.165	0	142.20	0	8.9130	0	36.6080	8	28.395	0	141.021	0	215.1	4	77.4	4	-1E+10	1	-1E+10	1	-1E+10	1	-1E+10	1	-1E+10	1	-1E+10	1
4901784	228	C	10/01/2021	10:45	-136.585	43.165	0	145.00	0	8.9700	0	36.6750	8	28.439	0	143.797	0	212.2	4	76.5	4	-1E+10	1	-1E+10	1	-1E+10	1	-1E+10	1	-1E+10	1	-1E+10	1
4901784	228	C	10/01/2021	10:45	-136.585	43.165	0	147.80	0	8.9320	0	36.7110	8	28.473	0	146.573	0	210.0	4	75.6	4	-1E+10	1	-1E+10	1	-1E+10	1	-1E+10	1	-1E+10	1	-1E+10	1
4901784	228	C	10/01/2021	10:45	-136.585	43.165	0	149.60	0	8.9910	0	36.7620	8	28.503	0	148.357	0	208.3	4	75.1	4	-1E+10	1	-1E+10	1	-1E+10	1	-1E+10	1	-1E+10	1	-1E+10	1
4901784	228	C	10/01/2021	10:45	-136.585	43.165	0	151.90	0	8.9180	0	36.8380	8	28.575	0	150.637	0	206.6	4	74.5	4	-1E+10	1	-1E+10	1	-1E+10	1	-1E+10	1	-1E+10	1	-1E+10	1
4901784	228	C	10/01/2021	10:45	-136.585	43.165	0	154.60	0	9.1390	0	36.9090	8	28.594	0	153.314	0	203.0	4	73.6	4	-1E+10	1	-1E+10	1	-1E+10	1	-1E+10	1	-1E+10	1	-1E+10	1
4901784	228	C	10/01/2021	10:45	-136.585	43.165	0	157.60	0	9.0620	0	36.9580	8	28.646	0	156.287	0	201.1	4	72.8	4	-1E+10	1	-1E+10	1	-1E+10	1	-1E+10	1	-1E+10	1	-1E+10	1
4901784	228	C	10/01/2021	10:45	-136.585	43.165	0	160.00	0	8.8360	0	36.9930	8	28.710	0	158.667	0	200.8	4	72.3	4	-1E+10	1	-1E+10	1	-1E+10	1	-1E+10	1	-1E+10	1	-1E+10	1
4901784	228	C	10/01/2021	10:45	-136.585	43.165	0	162.40	0	8.8700	0	37.0290	8	28.733	0	161.046	0	198.7	4	71.6	4	-1E+10	1	-1E+10	1	-1E+10	1	-1E+10	1	-1E+10	1	-1E+10	1
4901784	228	C	10/01/2021	10:45	-136.585	43.165	0	164.80	0	8.8010	0	37.0670	8	28.774	0	163.425	0	196.7	4	70.9	4	-1E+10	1	-1E+10	1	-1E+10	1	-1E+10	1	-1E+10	1	-1E+10	1
4901784	228	C	10/01/2021	10:45	-136.585	43.165	0	167.40	0	8.8120	0	37.1440	8	28.833	0	166.002	0	194.0	4	69.9	4	-1E+10	1	-1E+10	1	-1E+10	1	-1E+10	1	-1E+10	1	-1E+10	1
4901784	228	C	10/01/2021	10:45	-136.585	43.165	0	170.00	0	8.8190	0	37.1830	8	28.862	0	168.579	0	191.9	4	69.2	4	-1E+10	1	-1E+10	1	-1E+10	1	-1E+10	1	-1E+10	1	-1E+10	1
4901784	228	C	10/01/2021	10:45	-136.585	43.165	0	172.70	0	8.8400	0	37.2380	8	28.902	0	171.255	0	190.5	4	68.7	4	-1E+10	1	-1E+10	1	-1E+10	1	-1E+10	1	-1E+10	1	-1E+10	1
4901784	228	C	10/01/2021	10:45	-136.585	43.165	0	175.30	0	8.7360	0	37.2610	8	28.937	0	173.833	0	190.1	4	68.4	4	-1E+10	1	-1E+10	1	-1E+10	1	-1E+10	1	-1E+10	1	-1E+10	1
4901784	228	C	10/01/2021	10:45	-136.585	43.165	0	177.20	0	8.7510	0	37.2850	8	28.954	0	175.716	0	189.9	4	68.4	4	-1E+10	1	-1E+10	1	-1E+10	1	-1E+10	1	-1E+10	1	-1E+10	1
4901784	228	C	10/01/2021	10:45	-136.585	43.165	0	179.90	0	8.7550	0	37.3020	8	28.966	0	178.392	0	189.7	4	68.4	4	-1E+10	1	-1E+10	1	-1E+10	1	-1E+10	1	-1E+10	1	-1E+10	1
4901784	228	C	10/01/2021	10:45	-136.585	43.165	0	183.20	0	8.6820	0	37.3240	8	28.995	0	181.663	0	189.5	4	68.2	4	-1E+10	1	-1E+10	1	-1E+10	1	-1E+10	1	-1E+10	1	-1E+10	1
4901784	228	C	10/01/2021	10:45	-136.585	43.165	0	185.00	0	8.6560	0	37.3260	8	29.001	0	183.447	0	189.2	4	68.0	4	-1E+10	1	-1E+10	1	-1E+10	1	-1E+10	1	-1E+10	1	-1E+10	1
4901784	228	C	10/01/2021	10:45	-136.585	43.165	0	187.30	0	8.5840	0	37.3410	8	29.025	0	185.727	0	188.3	4	67.6	4	-1E+10	1	-1E+10	1	-1E+10	1	-1E+10	1	-1E+10	1	-1E+10	1
4901784	228	C	10/01/2021	10:45	-136.585	43.165	0	190.40	0	8.5560	0	37.3640	8	29.047	0	188.799	0	187.2	4	67.2	4	-1E+10	1	-1E+10	1	-1E+10	1	-1E+10	1	-1E+10	1	-1E+10	1
4901784	228	C	10/01/2021	10:45	-136.585	43.165	0	192.70	0	8.5390	0	37.3710	8	29.056	0	191.079	0	187.0	4	67.1	4	-1E+10	1	-1E+10	1	-1E+10	1	-1E+10	1	-1E+10	1	-1E+10	1
4901784	228	C	10/01/2021	10:45	-136.585	43.165	0	195.00	0	8.5000	0	37.3830	8	29.071	0	193.359	0	186.5	4	66.9	4	-1E+10	1	-1E+10	1	-1E+10	1	-1E+10	1	-1E+10	1	-1E+10	1
4901784	228	C	10/01/2021	10:45	-136.585	43.165	0	197.40	0	8.4730	0	37.3880	8	29.080	0	195.737	0	186.1	4	66.7	4	-1E+10	1	-1E+10	1	-1E+10	1	-1E+10	1	-1E+10	1	-1E+10	1
4901784	228	C	10/01/2021	10:45	-136.585	43.165	0	199.80	0	8.4100	0	37.4000	8	29.099	0	198.116	0	185.8	4	66.5	4	-1E+10	1	-1E+10	1	-1E+10	1	-1E+10	1	-1E+10	1	-1E+10	1
4901784	228	C	10/01/2021	10:45	-136.585	43.165	0	202.20	0	8.3750	0	37.4110	8	29.114	0	200.494	0	185.4	4	66.3	4	-1E+10	1	-1E+10	1	-1E+10	1	-1E+10	1	-1E+10	1	-1E+10	1
4901784	228	C	10/01/2021	10:45	-136.585	43.165	0	204.70	0	8.3680	0	37.4150	8	29.118	0	202.972	0	184.7	4	66.1	4	-1E+10	1	-1E+10	1	-1E+10	1	-1E+10	1	-1E+10	1	-1E+10	1
4901784	228	C	10/01/2021	10:45	-136.585	43.165	0	207.20	0	8.3270	0	37.4220	8	29.130	0	205.450	0	184.1	4	65.8	4	-1E+10	1	-1E+10	1	-1E+10	1	-1E+10	1	-1E+10	1	-1E+10	1
4901784	228	C	10/01/2021	10:45	-136.585	43.165	0	209.60	0	8.2630	0	37.4300	8	29.146	0	207.828	0	183.5	4	65.5	4	-1E+10	1	-1E+10	1	-1E+10	1	-1E+10	1	-1E+10	1	-1E+10	1
4901784	228	C	10/01/2021	10:45	-136.585	43.165	0	212.20	0	8.2080	0	37.4290	8	29.154	0	210.405	0	183.0	4	65.2	4	-1E+10	1	-1E+10	1	-1E+10	1	-1E+10	1	-1E+10	1	-1E+10	1
4901784	228	C	10/01/2021	10:45	-136.585	43.165	0	214.70	0	8.1860	0	37.4320	8	29.160	0	212.883	0	182.5	4	65.0	4	-1E+10	1	-1E+10	1	-1E+10	1	-1E+10	1	-1E+10	1	-1E+10	1
4901784	228	C	10/01/2021	10:45	-136.585	43.165	0	217.30	0	8.1260	0	37.4310	8	29.169	0	215.459	0	182.0	4	64.8	4	-1E+10	1	-1E+10	1	-1E+10	1	-1E+10	1	-1E+10	1	-1E+10	1
4901784	228	C	10/01/2021	10:45	-136.585	43.165	0	219.90	0	8.0840	0	37.4330	8	29.177	0	218.036	0	181.4	4	64.5	4	-1E+10	1	-1E+10	1	-1E+10	1	-1E+10	1	-1E+10	1	-1E+10	1
4901784	228	C	10/01/2021	10:45	-136.585	43.165	0	222.50	0	8.0510	0	37.4390	8	29.187	0	220.612	0	180.8	4	64.2	4	-1E+10	1	-1E+10	1	-1E+10	1	-1E+10	1	-1E+10	1	-1E+10	1
4901784	228	C	10/01/2021	10:45	-136.585	43.165	0	225.10	0	8.0160	0	37.4420	8	29.195	0	223.189	0	179.7	4	63.8	4	-1E+10	1	-1E+10	1	-1E+10	1	-1E+10	1	-1E+10	1	-1E+10	1
4901784	228	C	10/01/2021	10:45	-136.585	43.165	0	227.70	0	7.9740	0	37.4420	8	29.201	0	225.765	0	178.4	4	63.2	4	-1E+10	1	-1E+10	1	-1E+10	1	-1E+10	1	-1E+10	1	-1E+10	1
4901784	228	C	10/01/2021	10:45	-136.585	43.165	0	229.60	0	7.8900	0	37.4430	8	29.215	0	227.648	0	177.2	4	62.7	4	-1E+10	1	-1E+10	1	-1E+10	1	-1E+10	1	-1E+10	1	-1E+10	1
4901784	228	C	10/01/2021	10:45	-136.585	43.165	0	232.20	0	7.8040	0	37.4460	8	29.231	0	230.225	0	175.6	4	62.0	4	-1E+10	1	-1E+10	1	-1E+10	1	-1E+10	1	-1E+10	1	-1E+10	1
4901784	228	C	10/01/2021	10:45	-136.585	43.165	0	234.80	0	7.7740	0	37.4450	8	29.235	0	232.801	0	174.1	4	61.5	4	-1E+10	1	-1E+10	1	-1E+10	1	-1E+10	1	-1E+10	1	-1E+10	1
4901784	228	C	10/01/2021	10:45	-136.585	43.165	0	237.50	0	7.7620	0	37.4560	8	29.245	0	235.477	0	172.5	4	60.9	4	-1E+10	1	-1E+10	1	-1E+10	1	-1E+10	1	-1E+10	1	-1E+10	1
4901784	228	C	10/01/2021	10:45	-136.585	43.165	0	240.20	0	7.7180	0	37.4600	8	29.255	0	238.152	0	171.1	4	60.3	4	-1E+10	1	-1E+10	1	-1E+10	1	-1E+10	1	-1E+10	1	-1E+10	1
4901784	228	C	10/01/2021	10:45	-136.585	43.165	0	242.00	0	7.7070	0	37.4590	8	29.256	0	239.936	0	170.7	4	60.2	4	-1E+10	1	-1E+10	1	-1E+10	1	-1E+10	1	-1E+10	1	-1E+10	1
4901784	228	C	10/01/2021	10:45	-136.585	43.165	0	244.70	0	7.6560	0	37.4570	8	29.262	0	242.611	0	169.8	4	59.8	4	-1E+10	1	-1E+10	1	-1E+10	1	-1E+10	1	-1E+10	1	-1E+10	1
4901784	228	C	10/01/2021	10:45	-136.585	43.165	0	247.30	0	7.6000	0	37.4570	8	29.271	0	245.187	0	169.0	4	59.4	4	-1E+10	1	-1E+10	1	-1E+10	1	-1E+10	1	-1E+10	1	-1E+10	1
4901784	228	C	10/01/2021	10:45	-136.585	43.165	0	250.00	0	7.5080	0	37.4530	8	29.282	0	247.863	0	167.6	4	58.8	4	-1E+10	1	-1E+10	1	-1E+10	1	-1E+10	1	-1E+10	1	-1E+10	1
4901784	228	C	10/01/2021	10:45	-136.585	43.165	0	252.60	0	7.4440	0	37.4520	8	29.290	0	250.439	0	165.4	4	58.0	4	-1E+10	1	-1E+10	1	-1E+10	1	-1E+10	1	-1E+10	1	-1E+10	1
4901784	228	C	10/01/2021	10:45	-136.585	43.165	0	255.40	0	7.4230	0	37.4580	8	29.298	0	253.213	0	163.3	4	57.2	4	-1E+10	1	-1E+10	1	-1E+10	1	-1E+10	1	-1E+10	1	-1E+10	1
4901784	228	C	10/01/2021	10:45	-136.585	43.165	0	258.10	0	7.3620	0	37.4590	8	29.308	0	255.888	0	161.4	4	56.5	4	-1E+10	1	-1E+10	1	-1E+10	1	-1E+10	1	-1E+10	1	-1E+10	1
4901784	228	C	10/01/2021	10:45	-136.585	43.165	0	259.80	0	7.3460	0	37.4620	8	29.313	0	257.573	0	159.5	4	55.8	4	-1E+10	1	-1E+10	1	-1E+10	1	-1E+10	1	-1E+10	1	-1E+10	1
4901784	228	C	10/01/2021	10:45	-136.585	43.165	0	262.50	0	7.3330	0	37.4730	8	29.324	0	260.248	0	157.1	4	54.9	4	-1E+10	1	-1E+10	1	-1E+10	1	-1E+10	1	-1E+10	1	-1E+10	1
4901784	228	C	10/01/2021	10:45	-136.585	43.165	0	265.20	0	7.2950	0	37.4780	8	29.333	0	262.923	0	155.5	4	54.3	4	-1E+10	1	-1E+10	1	-1E+10	1	-1E+10	1	-1E+10	1	-1E+10	1
4901784	228	C	10/01/2021	10:45	-136.585	43.165	0	267.00	0	7.2720	0	37.4800	8	29.338	0	264.706	0	154.7	4	54.0	4	-1E+10	1	-1E+10	1	-1E+10	1	-1E+10	1	-1E+10	1	-1E+10	1
4901784	228	C	10/01/2021	10:45	-136.585	43.165	0	269.70	0	7.2300	0	37.4840	8	29.348	0	267.381	0	153.9	4	53.7	4	-1E+10	1	-1E+10	1	-1E+10	1	-1E+10	1	-1E+10	1	-1E+10	1
4901784	228	C	10/01/2021	10:45	-136.585	43.165	0	272.50	0	7.1960	0	37.4830	8	29.352	0	270.156	0	152.9	4	53.3	4	-1E+10	1	-1E+10	1	-1E+10	1	-1E+10	1	-1E+10	1	-1E+10	1
4901784	228	C	10/01/2021	10:45	-136.585	43.165	0	275.20	0	7.1870	0	37.4830	8	29.353	0	272.831	0	151.6	4	52.8	4	-1E+10	1	-1E+10	1	-1E+10	1	-1E+10	1	-1E+10	1	-1E+10	1
4901784	228	C	10/01/2021	10:45	-136.585	43.165	0	277.90	0	7.1160	0	37.4860	8	29.366	0	275.505	0	150.2	4	52.3	4	-1E+10	1	-1E+10	1	-1E+10	1	-1E+10	1	-1E+10	1	-1E+10	1
4901784	228	C	10/01/2021	10:45	-136.585	43.165	0	279.70	0	7.0840	0	37.4900	8	29.374	0	277.289	0	149.0	4	51.8	4	-1E+10	1	-1E+10	1	-1E+10	1	-1E+10	1	-1E+10	1	-1E+10	1
4901784	228	C	10/01/2021	10:45	-136.585	43.165	0	282.40	0	7.0850	0	37.4950	8	29.378	0	279.964	0	147.3	4	51.2	4	-1E+10	1	-1E+10	1	-1E+10	1	-1E+10	1	-1E+10	1	-1E+10	1
4901784	228	C	10/01/2021	10:45	-136.585	43.165	0	285.10	0	7.0730	0	37.4960	8	29.380	0	282.639	0	146.2	4	50.8	4	-1E+10	1	-1E+10	1	-1E+10	1	-1E+10	1	-1E+10	1	-1E+10	1
4901784	228	C	10/01/2021	10:45	-136.585	43.165	0	286.90	0	7.0350	0	37.4990	8	29.388	0	284.422	0	145.7	4	50.6	4	-1E+10	1	-1E+10	1	-1E+10	1	-1E+10	1	-1E+10	1	-1E+10	1
4901784	228	C	10/01/2021	10:45	-136.585	43.165	0	289.70	0	6.9860	0	37.5010	8	29.397	0	287.196	0	145.2	4	50.4	4	-1E+10	1	-1E+10	1	-1E+10	1	-1E+10	1	-1E+10	1	-1E+10	1
4901784	228	C	10/01/2021	10:45	-136.585	43.165	0	292.50	0	6.9590	0	37.5010	8	29.401	0	289.969	0	144.3	4	50.0	4	-1E+10	1	-1E+10	1	-1E+10	1	-1E+10	1	-1E+10	1	-1E+10	1
4901784	228	C	10/01/2021	10:45	-136.585	43.165	0	295.20	0	6.9300	0	37.5030	8	29.407	0	292.644	0	143.4	4	49.7	4	-1E+10	1	-1E+10	1	-1E+10	1	-1E+10	1	-1E+10	1	-1E+10	1
4901784	228	C	10/01/2021	10:45	-136.585	43.165	0	298.00	0	6.8950	0	37.5030	8	29.412	0	295.418	0	142.5	4	49.3	4	-1E+10	1	-1E+10	1	-1E+10	1	-1E+10	1	-1E+10	1	-1E+10	1
4901784	228	C	10/01/2021	10:45	-136.585	43.165	0	299.80	0	6.8550	0	37.5050	8	29.419	0	297.201	0	141.6	4	49.0	4	-1E+10	1	-1E+10	1	-1E+10	1	-1E+10	1	-1E+10	1	-1E+10	1
4901784	228	C	10/01/2021	10:45	-136.585	43.165	0	302.50	0	6.8450	0	37.5080	8	29.423	0	299.876	0	139.9	4	48.4	4	-1E+10	1	-1E+10	1	-1E+10	1	-1E+10	1	-1E+10	1	-1E+10	1
4901784	228	C	10/01/2021	10:45	-136.585	43.165	0	305.30	0	6.8380	0	37.5100	8	29.426	0	302.649	0	138.1	4	47.8	4	-1E+10	1	-1E+10	1	-1E+10	1	-1E+10	1	-1E+10	1	-1E+10	1
4901784	228	C	10/01/2021	10:45	-136.585	43.165	0	307.20	0	6.8240	0	37.5120	8	29.429	0	304.532	0	137.2	4	47.4	4	-1E+10	1	-1E+10	1	-1E+10	1	-1E+10	1	-1E+10	1	-1E+10	1
4901784	228	C	10/01/2021	10:45	-136.585	43.165	0	310.00	0	6.8030	0	37.5120	8	29.432	0	307.305	0	135.8	4	46.9	4	-1E+10	1	-1E+10	1	-1E+10	1	-1E+10	1	-1E+10	1	-1E+10	1
4901784	228	C	10/01/2021	10:45	-136.585	43.165	0	312.70	0	6.7640	0	37.5120	8	29.438	0	309.980	0	134.4	4	46.4	4	-1E+10	1	-1E+10	1	-1E+10	1	-1E+10	1	-1E+10	1	-1E+10	1
4901784	228	C	10/01/2021	10:45	-136.585	43.165	0	314.60	0	6.7080	0	37.5160	8	29.449	0	311.862	0	133.7	4	46.1	4	-1E+10	1	-1E+10	1	-1E+10	1	-1E+10	1	-1E+10	1	-1E+10	1
4901784	228	C	10/01/2021	10:45	-136.585	43.165	0	317.40	0	6.6880	0	37.5160	8	29.452	0	314.635	0	132.5	4	45.7	4	-1E+10	1	-1E+10	1	-1E+10	1	-1E+10	1	-1E+10	1	-1E+10	1
4901784	228	C	10/01/2021	10:45	-136.585	43.165	0	320.10	0	6.6620	0	37.5150	8	29.455	0	317.310	0	131.0	4	45.1	4	-1E+10	1	-1E+10	1	-1E+10	1	-1E+10	1	-1E+10	1	-1E+10	1
4901784	228	C	10/01/2021	10:45	-136.585	43.165	0	322.00	0	6.6380	0	37.5150	8	29.458	0	319.192	0	129.7	4	44.7	4	-1E+10	1	-1E+10	1	-1E+10	1	-1E+10	1	-1E+10	1	-1E+10	1
4901784	228	C	10/01/2021	10:45	-136.585	43.165	0	324.80	0	6.5850	0	37.5200	8	29.470	0	321.965	0	128.2	4	44.1	4	-1E+10	1	-1E+10	1	-1E+10	1	-1E+10	1	-1E+10	1	-1E+10	1
4901784	228	C	10/01/2021	10:45	-136.585	43.165	0	327.70	0	6.5280	0	37.5220	8	29.479	0	324.837	0	126.9	4	43.6	4	-1E+10	1	-1E+10	1	-1E+10	1	-1E+10	1	-1E+10	1	-1E+10	1
4901784	228	C	10/01/2021	10:45	-136.585	43.165	0	329.70	0	6.5080	0	37.5210	8	29.481	0	326.818	0	126.1	4	43.3	4	-1E+10	1	-1E+10	1	-1E+10	1	-1E+10	1	-1E+10	1	-1E+10	1
4901784	228	C	10/01/2021	10:45	-136.585	43.165	0	332.60	0	6.4590	0	37.5240	8	29.491	0	329.691	0	125.0	4	42.8	4	-1E+10	1	-1E+10	1	-1E+10	1	-1E+10	1	-1E+10	1	-1E+10	1
4901784	228	C	10/01/2021	10:45	-136.585	43.165	0	335.50	0	6.4090	0	37.5240	8	29.498	0	332.563	0	123.8	4	42.4	4	-1E+10	1	-1E+10	1	-1E+10	1	-1E+10	1	-1E+10	1	-1E+10	1
4901784	228	C	10/01/2021	10:45	-136.585	43.165	0	337.40	0	6.3710	0	37.5250	8	29.504	0	334.445	0	123.1	4	42.1	4	-1E+10	1	-1E+10	1	-1E+10	1	-1E+10	1	-1E+10	1	-1E+10	1
4901784	228	C	10/01/2021	10:45	-136.585	43.165	0	340.20	0	6.3390	0	37.5280	8	29.510	0	337.218	0	121.8	4	41.7	4	-1E+10	1	-1E+10	1	-1E+10	1	-1E+10	1	-1E+10	1	-1E+10	1
4901784	228	C	10/01/2021	10:45	-136.585	43.165	0	343.00	0	6.3270	0	37.5280	8	29.512	0	339.991	0	120.5	4	41.2	4	-1E+10	1	-1E+10	1	-1E+10	1	-1E+10	1	-1E+10	1	-1E+10	1
4901784	228	C	10/01/2021	10:45	-136.585	43.165	0	344.90	0	6.3250	0	37.5280	8	29.512	0	341.873	0	119.6	4	40.9	4	-1E+10	1	-1E+10	1	-1E+10	1	-1E+10	1	-1E+10	1	-1E+10	1
4901784	228	C	10/01/2021	10:45	-136.585	43.165	0	347.70	0	6.2820	0	37.5280	8	29.518	0	344.646	0	118.3	4	40.4	4	-1E+10	1	-1E+10	1	-1E+10	1	-1E+10	1	-1E+10	1	-1E+10	1
4901784	228	C	10/01/2021	10:45	-136.585	43.165	0	350.60	0	6.2320	0	37.5310	8	29.528	0	347.518	0	117.2	4	40.0	4	-1E+10	1	-1E+10	1	-1E+10	1	-1E+10	1	-1E+10	1	-1E+10	1
4901784	228	C	10/01/2021	10:45	-136.585	43.165	0	352.60	0	6.1930	0	37.5340	8	29.535	0	349.499	0	116.7	4	39.8	4	-1E+10	1	-1E+10	1	-1E+10	1	-1E+10	1	-1E+10	1	-1E+10	1
4901784	228	C	10/01/2021	10:45	-136.585	43.165	0	354.40	0	6.1900	0	37.5330	8	29.535	0	351.281	0	115.9	4	39.5	4	-1E+10	1	-1E+10	1	-1E+10	1	-1E+10	1	-1E+10	1	-1E+10	1
4901784	228	C	10/01/2021	10:45	-136.585	43.165	0	357.30	0	6.1640	0	37.5320	8	29.538	0	354.153	0	114.5	4	39.0	4	-1E+10	1	-1E+10	1	-1E+10	1	-1E+10	1	-1E+10	1	-1E+10	1
4901784	228	C	10/01/2021	10:45	-136.585	43.165	0	360.10	0	6.1090	0	37.5360	8	29.548	0	356.926	0	113.0	4	38.4	4	-1E+10	1	-1E+10	1	-1E+10	1	-1E+10	1	-1E+10	1	-1E+10	1
4901784	228	C	10/01/2021	10:45	-136.585	43.165	0	362.00	0	6.0980	0	37.5360	8	29.550	0	358.808	0	112.1	4	38.1	4	-1E+10	1	-1E+10	1	-1E+10	1	-1E+10	1	-1E+10	1	-1E+10	1
4901784	228	C	10/01/2021	10:45	-136.585	43.165	0	364.80	0	6.0700	0	37.5370	8	29.554	0	361.581	0	110.6	4	37.6	4	-1E+10	1	-1E+10	1	-1E+10	1	-1E+10	1	-1E+10	1	-1E+10	1
4901784	228	C	10/01/2021	10:45	-136.585	43.165	0	367.50	0	6.0440	0	37.5360	8	29.557	0	364.255	0	109.1	4	37.0	4	-1E+10	1	-1E+10	1	-1E+10	1	-1E+10	1	-1E+10	1	-1E+10	1
4901784	228	C	10/01/2021	10:45	-136.585	43.165	0	369.40	0	6.0000	0	37.5400	8	29.566	0	366.136	0	108.1	4	36.7	4	-1E+10	1	-1E+10	1	-1E+10	1	-1E+10	1	-1E+10	1	-1E+10	1
4901784	228	C	10/01/2021	10:45	-136.585	43.165	0	372.20	0	5.9590	0	37.5430	8	29.574	0	368.909	0	106.7	4	36.2	4	-1E+10	1	-1E+10	1	-1E+10	1	-1E+10	1	-1E+10	1	-1E+10	1
4901784	228	C	10/01/2021	10:45	-136.585	43.165	0	375.10	0	5.9330	0	37.5440	8	29.578	0	371.781	0	105.5	4	35.7	4	-1E+10	1	-1E+10	1	-1E+10	1	-1E+10	1	-1E+10	1	-1E+10	1
4901784	228	C	10/01/2021	10:45	-136.585	43.165	0	377.10	0	5.9020	0	37.5450	8	29.583	0	373.761	0	104.5	4	35.4	4	-1E+10	1	-1E+10	1	-1E+10	1	-1E+10	1	-1E+10	1	-1E+10	1
4901784	228	C	10/01/2021	10:45	-136.585	43.165	0	379.90	0	5.8810	0	37.5480	8	29.589	0	376.534	0	102.8	4	34.8	4	-1E+10	1	-1E+10	1	-1E+10	1	-1E+10	1	-1E+10	1	-1E+10	1
4901784	228	C	10/01/2021	10:45	-136.585	43.165	0	382.80	0	5.8570	0	37.5490	8	29.593	0	379.406	0	101.2	4	34.2	4	-1E+10	1	-1E+10	1	-1E+10	1	-1E+10	1	-1E+10	1	-1E+10	1
4901784	228	C	10/01/2021	10:45	-136.585	43.165	0	384.70	0	5.8430	0	37.5480	8	29.594	0	381.287	0	99.6	4	33.7	4	-1E+10	1	-1E+10	1	-1E+10	1	-1E+10	1	-1E+10	1	-1E+10	1
4901784	228	C	10/01/2021	10:45	-136.585	43.165	0	387.60	0	5.7950	0	37.5530	8	29.604	0	384.159	0	97.2	4	32.8	4	-1E+10	1	-1E+10	1	-1E+10	1	-1E+10	1	-1E+10	1	-1E+10	1
4901784	228	C	10/01/2021	10:45	-136.585	43.165	0	390.40	0	5.7620	0	37.5560	8	29.611	0	386.931	0	95.4	4	32.2	4	-1E+10	1	-1E+10	1	-1E+10	1	-1E+10	1	-1E+10	1	-1E+10	1
4901784	228	C	10/01/2021	10:45	-136.585	43.165	0	392.30	0	5.7280	0	37.5610	8	29.619	0	388.812	0	94.4	4	31.9	4	-1E+10	1	-1E+10	1	-1E+10	1	-1E+10	1	-1E+10	1	-1E+10	1
4901784	228	C	10/01/2021	10:45	-136.585	43.165	0	395.20	0	5.7100	0	37.5610	8	29.622	0	391.684	0	93.5	4	31.5	4	-1E+10	1	-1E+10	1	-1E+10	1	-1E+10	1	-1E+10	1	-1E+10	1
4901784	228	C	10/01/2021	10:45	-136.585	43.165	0	398.00	0	5.6930	0	37.5590	8	29.622	0	394.456	0	92.5	4	31.2	4	-1E+10	1	-1E+10	1	-1E+10	1	-1E+10	1	-1E+10	1	-1E+10	1
4901784	228	C	10/01/2021	10:45	-136.585	43.165	0	399.90	0	5.6650	0	37.5600	8	29.627	0	396.338	0	91.7	4	30.9	4	-1E+10	1	-1E+10	1	-1E+10	1	-1E+10	1	-1E+10	1	-1E+10	1
4901784	228	C	10/01/2021	10:45	-136.585	43.165	0	401.90	0	5.6320	0	37.5620	8	29.633	0	398.318	0	90.9	4	30.6	4	-1E+10	1	-1E+10	1	-1E+10	1	-1E+10	1	-1E+10	1	-1E+10	1
4901784	228	C	10/01/2021	10:45	-136.585	43.165	0	404.70	0	5.5670	0	37.5650	8	29.643	0	401.090	0	90.2	4	30.3	4	-1E+10	1	-1E+10	1	-1E+10	1	-1E+10	1	-1E+10	1	-1E+10	1
4901784	228	C	10/01/2021	10:45	-136.585	43.165	0	407.60	0	5.5120	0	37.5660	8	29.651	0	403.962	0	89.5	4	30.0	4	-1E+10	1	-1E+10	1	-1E+10	1	-1E+10	1	-1E+10	1	-1E+10	1
4901784	228	C	10/01/2021	10:45	-136.585	43.165	0	409.50	0	5.4920	0	37.5690	8	29.656	0	405.843	0	88.7	4	29.8	4	-1E+10	1	-1E+10	1	-1E+10	1	-1E+10	1	-1E+10	1	-1E+10	1
4901784	228	C	10/01/2021	10:45	-136.585	43.165	0	411.90	0	5.4630	0	37.5760	8	29.666	0	408.219	0	87.8	4	29.5	4	-1E+10	1	-1E+10	1	-1E+10	1	-1E+10	1	-1E+10	1	-1E+10	1
4901784	228	C	10/01/2021	10:45	-136.585	43.165	0	414.60	0	5.4510	0	37.5750	8	29.666	0	410.892	0	86.9	4	29.1	4	-1E+10	1	-1E+10	1	-1E+10	1	-1E+10	1	-1E+10	1	-1E+10	1
4901784	228	C	10/01/2021	10:45	-136.585	43.165	0	417.80	0	5.4180	0	37.5740	8	29.670	0	414.060	0	85.4	4	28.6	4	-1E+10	1	-1E+10	1	-1E+10	1	-1E+10	1	-1E+10	1	-1E+10	1
4901784	228	C	10/01/2021	10:45	-136.585	43.165	0	420.20	0	5.3870	0	37.5760	8	29.675	0	416.436	0	83.7	4	28.0	4	-1E+10	1	-1E+10	1	-1E+10	1	-1E+10	1	-1E+10	1	-1E+10	1
4901784	228	C	10/01/2021	10:45	-136.585	43.165	0	422.60	0	5.3660	0	37.5800	8	29.681	0	418.813	0	82.8	4	27.7	4	-1E+10	1	-1E+10	1	-1E+10	1	-1E+10	1	-1E+10	1	-1E+10	1
4901784	228	C	10/01/2021	10:45	-136.585	43.165	0	425.10	0	5.3520	0	37.5780	8	29.681	0	421.288	0	82.2	4	27.5	4	-1E+10	1	-1E+10	1	-1E+10	1	-1E+10	1	-1E+10	1	-1E+10	1
4901784	228	C	10/01/2021	10:45	-136.585	43.165	0	427.60	0	5.3120	0	37.5780	8	29.687	0	423.763	0	80.9	4	27.0	4	-1E+10	1	-1E+10	1	-1E+10	1	-1E+10	1	-1E+10	1	-1E+10	1
4901784	228	C	10/01/2021	10:45	-136.585	43.165	0	430.10	0	5.2550	0	37.5830	8	29.698	0	426.238	0	79.0	4	26.4	4	-1E+10	1	-1E+10	1	-1E+10	1	-1E+10	1	-1E+10	1	-1E+10	1
4901784	228	C	10/01/2021	10:45	-136.585	43.165	0	432.60	0	5.2220	0	37.5870	8	29.705	0	428.713	0	77.1	4	25.7	4	-1E+10	1	-1E+10	1	-1E+10	1	-1E+10	1	-1E+10	1	-1E+10	1
4901784	228	C	10/01/2021	10:45	-136.585	43.165	0	435.10	0	5.1700	0	37.5940	8	29.717	0	431.188	0	75.3	4	25.1	4	-1E+10	1	-1E+10	1	-1E+10	1	-1E+10	1	-1E+10	1	-1E+10	1
4901784	228	C	10/01/2021	10:45	-136.585	43.165	0	437.60	0	5.1860	0	37.5970	8	29.718	0	433.662	0	74.3	4	24.8	4	-1E+10	1	-1E+10	1	-1E+10	1	-1E+10	1	-1E+10	1	-1E+10	1
4901784	228	C	10/01/2021	10:45	-136.585	43.165	0	440.10	0	5.1400	0	37.6010	8	29.727	0	436.137	0	74.0	4	24.6	4	-1E+10	1	-1E+10	1	-1E+10	1	-1E+10	1	-1E+10	1	-1E+10	1
4901784	228	C	10/01/2021	10:45	-136.585	43.165	0	442.60	0	5.1260	0	37.6030	8	29.730	0	438.612	0	74.0	4	24.6	4	-1E+10	1	-1E+10	1	-1E+10	1	-1E+10	1	-1E+10	1	-1E+10	1
4901784	228	C	10/01/2021	10:45	-136.585	43.165	0	445.10	0	5.0920	0	37.6030	8	29.734	0	441.087	0	74.0	4	24.6	4	-1E+10	1	-1E+10	1	-1E+10	1	-1E+10	1	-1E+10	1	-1E+10	1
4901784	228	C	10/01/2021	10:45	-136.585	43.165	0	447.60	0	5.0870	0	37.6040	8	29.736	0	443.562	0	73.5	4	24.4	4	-1E+10	1	-1E+10	1	-1E+10	1	-1E+10	1	-1E+10	1	-1E+10	1
4901784	228	C	10/01/2021	10:45	-136.585	43.165	0	450.10	0	5.0660	0	37.6040	8	29.738	0	446.037	0	73.1	4	24.3	4	-1E+10	1	-1E+10	1	-1E+10	1	-1E+10	1	-1E+10	1	-1E+10	1
4901784	228	C	10/01/2021	10:45	-136.585	43.165	0	452.60	0	5.0490	0	37.6060	8	29.742	0	448.511	0	72.4	4	24.0	4	-1E+10	1	-1E+10	1	-1E+10	1	-1E+10	1	-1E+10	1	-1E+10	1
4901784	228	C	10/01/2021	10:45	-136.585	43.165	0	455.10	0	5.0340	0	37.6090	8	29.746	0	450.986	0	71.5	4	23.7	4	-1E+10	1	-1E+10	1	-1E+10	1	-1E+10	1	-1E+10	1	-1E+10	1
4901784	228	C	10/01/2021	10:45	-136.585	43.165	0	457.60	0	5.0260	0	37.6110	8	29.749	0	453.461	0	70.5	4	23.4	4	-1E+10	1	-1E+10	1	-1E+10	1	-1E+10	1	-1E+10	1	-1E+10	1
4901784	228	C	10/01/2021	10:45	-136.585	43.165	0	460.20	0	5.0230	0	37.6120	8	29.750	0	456.034	0	69.1	4	22.9	4	-1E+10	1	-1E+10	1	-1E+10	1	-1E+10	1	-1E+10	1	-1E+10	1
4901784	228	C	10/01/2021	10:45	-136.585	43.165	0	462.70	0	5.0140	0	37.6160	8	29.754	0	458.509	0	67.9	4	22.5	4	-1E+10	1	-1E+10	1	-1E+10	1	-1E+10	1	-1E+10	1	-1E+10	1
4901784	228	C	10/01/2021	10:45	-136.585	43.165	0	465.30	0	5.0000	0	37.6200	8	29.759	0	461.082	0	66.7	4	22.1	4	-1E+10	1	-1E+10	1	-1E+10	1	-1E+10	1	-1E+10	1	-1E+10	1
4901784	228	C	10/01/2021	10:45	-136.585	43.165	0	467.80	0	4.9820	0	37.6220	8	29.763	0	463.557	0	65.8	4	21.8	4	-1E+10	1	-1E+10	1	-1E+10	1	-1E+10	1	-1E+10	1	-1E+10	1
4901784	228	C	10/01/2021	10:45	-136.585	43.165	0	470.40	0	4.9590	0	37.6260	8	29.769	0	466.130	0	65.1	4	21.6	4	-1E+10	1	-1E+10	1	-1E+10	1	-1E+10	1	-1E+10	1	-1E+10	1
4901784	228	C	10/01/2021	10:45	-136.585	43.165	0	472.20	0	4.9490	0	37.6270	8	29.771	0	467.912	0	64.5	4	21.4	4	-1E+10	1	-1E+10	1	-1E+10	1	-1E+10	1	-1E+10	1	-1E+10	1
4901784	228	C	10/01/2021	10:45	-136.585	43.165	0	474.80	0	4.9360	0	37.6290	8	29.774	0	470.486	0	63.4	4	21.0	4	-1E+10	1	-1E+10	1	-1E+10	1	-1E+10	1	-1E+10	1	-1E+10	1
4901784	228	C	10/01/2021	10:45	-136.585	43.165	0	477.40	0	4.9150	0	37.6320	8	29.779	0	473.059	0	62.3	4	20.6	4	-1E+10	1	-1E+10	1	-1E+10	1	-1E+10	1	-1E+10	1	-1E+10	1
4901784	228	C	10/01/2021	10:45	-136.585	43.165	0	480.00	0	4.8890	0	37.6380	8	29.787	0	475.632	0	61.4	4	20.3	4	-1E+10	1	-1E+10	1	-1E+10	1	-1E+10	1	-1E+10	1	-1E+10	1
4901784	228	C	10/01/2021	10:45	-136.585	43.165	0	482.70	0	4.8720	0	37.6410	8	29.792	0	478.305	0	60.6	4	20.0	4	-1E+10	1	-1E+10	1	-1E+10	1	-1E+10	1	-1E+10	1	-1E+10	1
4901784	228	C	10/01/2021	10:45	-136.585	43.165	0	484.50	0	4.8640	0	37.6410	8	29.793	0	480.086	0	60.1	4	19.9	4	-1E+10	1	-1E+10	1	-1E+10	1	-1E+10	1	-1E+10	1	-1E+10	1
4901784	228	C	10/01/2021	10:45	-136.585	43.165	0	487.20	0	4.8430	0	37.6460	8	29.799	0	482.759	0	59.2	4	19.6	4	-1E+10	1	-1E+10	1	-1E+10	1	-1E+10	1	-1E+10	1	-1E+10	1
4901784	228	C	10/01/2021	10:45	-136.585	43.165	0	489.90	0	4.8380	0	37.6460	8	29.800	0	485.431	0	58.5	4	19.3	4	-1E+10	1	-1E+10	1	-1E+10	1	-1E+10	1	-1E+10	1	-1E+10	1
4901784	228	C	10/01/2021	10:45	-136.585	43.165	0	492.70	0	4.8240	0	37.6480	8	29.803	0	488.202	0	57.4	4	19.0	4	-1E+10	1	-1E+10	1	-1E+10	1	-1E+10	1	-1E+10	1	-1E+10	1
4901784	228	C	10/01/2021	10:45	-136.585	43.165	0	495.40	0	4.7960	0	37.6530	8	29.810	0	490.874	0	56.4	4	18.6	4	-1E+10	1	-1E+10	1	-1E+10	1	-1E+10	1	-1E+10	1	-1E+10	1
4901784	228	C	10/01/2021	10:45	-136.585	43.165	0	497.20	0	4.7760	0	37.6580	8	29.817	0	492.656	0	55.9	4	18.5	4	-1E+10	1	-1E+10	1	-1E+10	1	-1E+10	1	-1E+10	1	-1E+10	1
4901784	228	C	10/01/2021	10:45	-136.585	43.165	0	500.00	0	4.7660	0	37.6600	8	29.820	0	495.427	0	55.3	4	18.3	4	-1E+10	1	-1E+10	1	-1E+10	1	-1E+10	1	-1E+10	1	-1E+10	1
4901784	228	C	10/01/2021	10:45	-136.585	43.165	0	504.90	0	4.7340	0	37.6660	8	29.828	0	500.276	0	54.2	4	17.9	4	-1E+10	1	-1E+10	1	-1E+10	1	-1E+10	1	-1E+10	1	-1E+10	1
4901784	228	C	10/01/2021	10:45	-136.585	43.165	0	510.10	0	4.7090	0	37.6720	8	29.836	0	505.422	0	53.2	4	17.5	4	-1E+10	1	-1E+10	1	-1E+10	1	-1E+10	1	-1E+10	1	-1E+10	1
4901784	228	C	10/01/2021	10:45	-136.585	43.165	0	514.90	0	4.6850	0	37.6770	8	29.843	0	510.172	0	52.5	4	17.3	4	-1E+10	1	-1E+10	1	-1E+10	1	-1E+10	1	-1E+10	1	-1E+10	1
4901784	228	C	10/01/2021	10:45	-136.585	43.165	0	519.70	0	4.6670	0	37.6800	8	29.848	0	514.922	0	51.8	4	17.1	4	-1E+10	1	-1E+10	1	-1E+10	1	-1E+10	1	-1E+10	1	-1E+10	1
4901784	228	C	10/01/2021	10:45	-136.585	43.165	0	524.50	0	4.6440	0	37.6830	8	29.853	0	519.672	0	50.7	4	16.7	4	-1E+10	1	-1E+10	1	-1E+10	1	-1E+10	1	-1E+10	1	-1E+10	1
4901784	228	C	10/01/2021	10:45	-136.585	43.165	0	529.40	0	4.6230	0	37.6890	8	29.860	0	524.521	0	49.1	4	16.2	4	-1E+10	1	-1E+10	1	-1E+10	1	-1E+10	1	-1E+10	1	-1E+10	1
4901784	228	C	10/01/2021	10:45	-136.585	43.165	0	534.50	0	4.6030	0	37.6930	8	29.866	0	529.567	0	47.8	4	15.7	4	-1E+10	1	-1E+10	1	-1E+10	1	-1E+10	1	-1E+10	1	-1E+10	1
4901784	228	C	10/01/2021	10:45	-136.585	43.165	0	539.60	0	4.5790	0	37.7000	8	29.874	0	534.613	0	46.9	4	15.4	4	-1E+10	1	-1E+10	1	-1E+10	1	-1E+10	1	-1E+10	1	-1E+10	1
4901784	228	C	10/01/2021	10:45	-136.585	43.165	0	544.70	0	4.5590	0	37.7050	8	29.881	0	539.660	0	46.3	4	15.2	4	-1E+10	1	-1E+10	1	-1E+10	1	-1E+10	1	-1E+10	1	-1E+10	1
4901784	228	C	10/01/2021	10:45	-136.585	43.165	0	549.80	0	4.5510	0	37.7060	8	29.882	0	544.706	0	45.2	4	14.8	4	-1E+10	1	-1E+10	1	-1E+10	1	-1E+10	1	-1E+10	1	-1E+10	1
4901784	228	C	10/01/2021	10:45	-136.585	43.165	0	554.90	0	4.5200	0	37.7140	8	29.892	0	549.752	0	43.6	4	14.3	4	-1E+10	1	-1E+10	1	-1E+10	1	-1E+10	1	-1E+10	1	-1E+10	1
4901784	228	C	10/01/2021	10:45	-136.585	43.165	0	560.10	0	4.5150	0	37.7220	8	29.899	0	554.897	0	42.3	4	13.9	4	-1E+10	1	-1E+10	1	-1E+10	1	-1E+10	1	-1E+10	1	-1E+10	1
4901784	228	C	10/01/2021	10:45	-136.585	43.165	0	565.20	0	4.4850	0	37.7260	8	29.906	0	559.942	0	41.3	4	13.5	4	-1E+10	1	-1E+10	1	-1E+10	1	-1E+10	1	-1E+10	1	-1E+10	1
4901784	228	C	10/01/2021	10:45	-136.585	43.165	0	570.40	0	4.4740	0	37.7330	8	29.913	0	565.087	0	39.7	4	13.0	4	-1E+10	1	-1E+10	1	-1E+10	1	-1E+10	1	-1E+10	1	-1E+10	1
4901784	228	C	10/01/2021	10:45	-136.585	43.165	0	575.60	0	4.4590	0	37.7400	8	29.920	0	570.231	0	38.2	4	12.5	4	-1E+10	1	-1E+10	1	-1E+10	1	-1E+10	1	-1E+10	1	-1E+10	1
4901784	228	C	10/01/2021	10:45	-136.585	43.165	0	580.00	0	4.4490	0	37.7450	8	29.926	0	574.584	0	36.7	4	12.0	4	-1E+10	1	-1E+10	1	-1E+10	1	-1E+10	1	-1E+10	1	-1E+10	1
4901784	228	C	10/01/2021	10:45	-136.585	43.165	0	584.50	0	4.4520	0	37.7530	8	29.932	0	579.036	0	34.8	4	11.4	4	-1E+10	1	-1E+10	1	-1E+10	1	-1E+10	1	-1E+10	1	-1E+10	1
4901784	228	C	10/01/2021	10:45	-136.585	43.165	0	589.80	0	4.4400	0	37.7630	8	29.941	0	584.279	0	33.6	4	11.0	4	-1E+10	1	-1E+10	1	-1E+10	1	-1E+10	1	-1E+10	1	-1E+10	1
4901784	228	C	10/01/2021	10:45	-136.585	43.165	0	595.20	0	4.4240	0	37.7670	8	29.946	0	589.621	0	32.9	4	10.8	4	-1E+10	1	-1E+10	1	-1E+10	1	-1E+10	1	-1E+10	1	-1E+10	1
4901784	228	C	10/01/2021	10:45	-136.585	43.165	0	600.70	0	4.4040	0	37.7730	8	29.953	0	595.061	0	31.9	4	10.4	4	-1E+10	1	-1E+10	1	-1E+10	1	-1E+10	1	-1E+10	1	-1E+10	1
4901784	228	C	10/01/2021	10:45	-136.585	43.165	0	605.20	0	4.4160	0	37.7770	8	29.955	0	599.513	0	30.7	4	10.1	4	-1E+10	1	-1E+10	1	-1E+10	1	-1E+10	1	-1E+10	1	-1E+10	1
4901784	228	C	10/01/2021	10:45	-136.585	43.165	0	609.70	0	4.3980	0	37.7830	8	29.962	0	603.964	0	29.7	4	9.7	4	-1E+10	1	-1E+10	1	-1E+10	1	-1E+10	1	-1E+10	1	-1E+10	1
4901784	228	C	10/01/2021	10:45	-136.585	43.165	0	615.20	0	4.3860	0	37.7910	8	29.970	0	609.404	0	28.2	4	9.2	4	-1E+10	1	-1E+10	1	-1E+10	1	-1E+10	1	-1E+10	1	-1E+10	1
4901784	228	C	10/01/2021	10:45	-136.585	43.165	0	619.80	0	4.3770	0	37.7990	8	29.977	0	613.954	0	27.1	4	8.9	4	-1E+10	1	-1E+10	1	-1E+10	1	-1E+10	1	-1E+10	1	-1E+10	1
4901784	228	C	10/01/2021	10:45	-136.585	43.165	0	624.50	0	4.3580	0	37.8050	8	29.984	0	618.603	0	26.4	4	8.6	4	-1E+10	1	-1E+10	1	-1E+10	1	-1E+10	1	-1E+10	1	-1E+10	1
4901784	228	C	10/01/2021	10:45	-136.585	43.165	0	630.20	0	4.3450	0	37.8090	8	29.989	0	624.240	0	25.8	4	8.4	4	-1E+10	1	-1E+10	1	-1E+10	1	-1E+10	1	-1E+10	1	-1E+10	1
4901784	228	C	10/01/2021	10:45	-136.585	43.165	0	634.90	0	4.3330	0	37.8130	8	29.994	0	628.889	0	25.2	4	8.2	4	-1E+10	1	-1E+10	1	-1E+10	1	-1E+10	1	-1E+10	1	-1E+10	1
4901784	228	C	10/01/2021	10:45	-136.585	43.165	0	639.70	0	4.3240	0	37.8180	8	29.999	0	633.636	0	24.6	4	8.0	4	-1E+10	1	-1E+10	1	-1E+10	1	-1E+10	1	-1E+10	1	-1E+10	1
4901784	228	C	10/01/2021	10:45	-136.585	43.165	0	645.40	0	4.3140	0	37.8220	8	30.003	0	639.273	0	23.9	4	7.8	4	-1E+10	1	-1E+10	1	-1E+10	1	-1E+10	1	-1E+10	1	-1E+10	1
4901784	228	C	10/01/2021	10:45	-136.585	43.165	0	650.20	0	4.3030	0	37.8270	8	30.008	0	644.020	0	23.2	4	7.6	4	-1E+10	1	-1E+10	1	-1E+10	1	-1E+10	1	-1E+10	1	-1E+10	1
4901784	228	C	10/01/2021	10:45	-136.585	43.165	0	654.90	0	4.2840	0	37.8320	8	30.015	0	648.668	0	22.6	4	7.4	4	-1E+10	1	-1E+10	1	-1E+10	1	-1E+10	1	-1E+10	1	-1E+10	1
4901784	228	C	10/01/2021	10:45	-136.585	43.165	0	660.60	0	4.2690	0	37.8370	8	30.020	0	654.305	0	22.0	4	7.2	4	-1E+10	1	-1E+10	1	-1E+10	1	-1E+10	1	-1E+10	1	-1E+10	1
4901784	228	C	10/01/2021	10:45	-136.585	43.165	0	665.30	0	4.2490	0	37.8430	8	30.028	0	658.953	0	21.3	4	6.9	4	-1E+10	1	-1E+10	1	-1E+10	1	-1E+10	1	-1E+10	1	-1E+10	1
4901784	228	C	10/01/2021	10:45	-136.585	43.165	0	670.00	0	4.2340	0	37.8480	8	30.033	0	663.601	0	20.7	4	6.8	4	-1E+10	1	-1E+10	1	-1E+10	1	-1E+10	1	-1E+10	1	-1E+10	1
4901784	228	C	10/01/2021	10:45	-136.585	43.165	0	674.80	0	4.2090	0	37.8540	8	30.041	0	668.347	0	20.3	4	6.6	4	-1E+10	1	-1E+10	1	-1E+10	1	-1E+10	1	-1E+10	1	-1E+10	1
4901784	228	C	10/01/2021	10:45	-136.585	43.165	0	679.60	0	4.1910	0	37.8600	8	30.048	0	673.093	0	19.7	4	6.4	4	-1E+10	1	-1E+10	1	-1E+10	1	-1E+10	1	-1E+10	1	-1E+10	1
4901784	228	C	10/01/2021	10:45	-136.585	43.165	0	685.40	0	4.1970	0	37.8650	8	30.051	0	678.828	0	18.9	4	6.2	4	-1E+10	1	-1E+10	1	-1E+10	1	-1E+10	1	-1E+10	1	-1E+10	1
4901784	228	C	10/01/2021	10:45	-136.585	43.165	0	690.30	0	4.2060	0	37.8710	8	30.055	0	683.673	0	18.2	4	5.9	4	-1E+10	1	-1E+10	1	-1E+10	1	-1E+10	1	-1E+10	1	-1E+10	1
4901784	228	C	10/01/2021	10:45	-136.585	43.165	0	695.00	0	4.1910	0	37.8760	8	30.061	0	688.321	0	17.8	4	5.8	4	-1E+10	1	-1E+10	1	-1E+10	1	-1E+10	1	-1E+10	1	-1E+10	1
4901784	228	C	10/01/2021	10:45	-136.585	43.165	0	699.80	0	4.1830	0	37.8810	8	30.066	0	693.066	0	17.4	4	5.7	4	-1E+10	1	-1E+10	1	-1E+10	1	-1E+10	1	-1E+10	1	-1E+10	1
4901784	228	C	10/01/2021	10:45	-136.585	43.165	0	704.60	0	4.1640	0	37.8840	8	30.070	0	697.812	0	17.3	4	5.6	4	-1E+10	1	-1E+10	1	-1E+10	1	-1E+10	1	-1E+10	1	-1E+10	1
4901784	228	C	10/01/2021	10:45	-136.585	43.165	0	710.30	0	4.1450	0	37.8890	8	30.076	0	703.448	0	16.8	4	5.5	4	-1E+10	1	-1E+10	1	-1E+10	1	-1E+10	1	-1E+10	1	-1E+10	1
4901784	228	C	10/01/2021	10:45	-136.585	43.165	0	715.10	0	4.1390	0	37.8950	8	30.082	0	708.193	0	16.2	4	5.3	4	-1E+10	1	-1E+10	1	-1E+10	1	-1E+10	1	-1E+10	1	-1E+10	1
4901784	228	C	10/01/2021	10:45	-136.585	43.165	0	719.80	0	4.1330	0	37.9000	8	30.087	0	712.840	0	15.8	4	5.1	4	-1E+10	1	-1E+10	1	-1E+10	1	-1E+10	1	-1E+10	1	-1E+10	1
4901784	228	C	10/01/2021	10:45	-136.585	43.165	0	725.40	0	4.1130	0	37.9070	8	30.095	0	718.376	0	15.3	4	5.0	4	-1E+10	1	-1E+10	1	-1E+10	1	-1E+10	1	-1E+10	1	-1E+10	1
4901784	228	C	10/01/2021	10:45	-136.585	43.165	0	730.20	0	4.0980	0	37.9130	8	30.101	0	723.121	0	14.8	4	4.8	4	-1E+10	1	-1E+10	1	-1E+10	1	-1E+10	1	-1E+10	1	-1E+10	1
4901784	228	C	10/01/2021	10:45	-136.585	43.165	0	734.90	0	4.0960	0	37.9210	8	30.108	0	727.768	0	14.3	4	4.7	4	-1E+10	1	-1E+10	1	-1E+10	1	-1E+10	1	-1E+10	1	-1E+10	1
4901784	228	C	10/01/2021	10:45	-136.585	43.165	0	740.60	0	4.0860	0	37.9270	8	30.114	0	733.402	0	13.9	4	4.5	4	-1E+10	1	-1E+10	1	-1E+10	1	-1E+10	1	-1E+10	1	-1E+10	1
4901784	228	C	10/01/2021	10:45	-136.585	43.165	0	745.30	0	4.0740	0	37.9320	8	30.119	0	738.048	0	13.7	4	4.4	4	-1E+10	1	-1E+10	1	-1E+10	1	-1E+10	1	-1E+10	1	-1E+10	1
4901784	228	C	10/01/2021	10:45	-136.585	43.165	0	750.00	0	4.0550	0	37.9370	8	30.125	0	742.694	0	13.5	4	4.4	4	-1E+10	1	-1E+10	1	-1E+10	1	-1E+10	1	-1E+10	1	-1E+10	1
4901784	228	C	10/01/2021	10:45	-136.585	43.165	0	754.70	0	4.0430	0	37.9400	8	30.129	0	747.340	0	13.4	4	4.4	4	-1E+10	1	-1E+10	1	-1E+10	1	-1E+10	1	-1E+10	1	-1E+10	1
4901784	228	C	10/01/2021	10:45	-136.585	43.165	0	759.60	0	4.0260	0	37.9430	8	30.133	0	752.183	0	13.3	4	4.3	4	-1E+10	1	-1E+10	1	-1E+10	1	-1E+10	1	-1E+10	1	-1E+10	1
4901784	228	C	10/01/2021	10:45	-136.585	43.165	0	765.40	0	4.0130	0	37.9480	8	30.139	0	757.916	0	13.1	4	4.2	4	-1E+10	1	-1E+10	1	-1E+10	1	-1E+10	1	-1E+10	1	-1E+10	1
4901784	228	C	10/01/2021	10:45	-136.585	43.165	0	769.70	0	4.0040	0	37.9510	8	30.142	0	762.166	0	12.9	4	4.2	4	-1E+10	1	-1E+10	1	-1E+10	1	-1E+10	1	-1E+10	1	-1E+10	1
4901784	228	C	10/01/2021	10:45	-136.585	43.165	0	774.60	0	3.9790	0	37.9550	8	30.148	0	767.009	0	12.8	4	4.2	4	-1E+10	1	-1E+10	1	-1E+10	1	-1E+10	1	-1E+10	1	-1E+10	1
4901784	228	C	10/01/2021	10:45	-136.585	43.165	0	779.50	0	3.9590	0	37.9610	8	30.155	0	771.852	0	12.6	4	4.1	4	-1E+10	1	-1E+10	1	-1E+10	1	-1E+10	1	-1E+10	1	-1E+10	1
4901784	228	C	10/01/2021	10:45	-136.585	43.165	0	784.40	0	3.9530	0	37.9670	8	30.161	0	776.695	0	12.3	4	4.0	4	-1E+10	1	-1E+10	1	-1E+10	1	-1E+10	1	-1E+10	1	-1E+10	1
4901784	228	C	10/01/2021	10:45	-136.585	43.165	0	789.30	0	3.9450	0	37.9710	8	30.165	0	781.538	0	12.1	4	3.9	4	-1E+10	1	-1E+10	1	-1E+10	1	-1E+10	1	-1E+10	1	-1E+10	1
4901784	228	C	10/01/2021	10:45	-136.585	43.165	0	794.20	0	3.9330	0	37.9760	8	30.170	0	786.380	0	11.9	4	3.9	4	-1E+10	1	-1E+10	1	-1E+10	1	-1E+10	1	-1E+10	1	-1E+10	1
4901784	228	C	10/01/2021	10:45	-136.585	43.165	0	799.20	0	3.9200	0	37.9820	8	30.177	0	791.322	0	11.7	4	3.8	4	-1E+10	1	-1E+10	1	-1E+10	1	-1E+10	1	-1E+10	1	-1E+10	1
4901784	228	C	10/01/2021	10:45	-136.585	43.165	0	804.20	0	3.9090	0	37.9870	8	30.182	0	796.263	0	11.5	4	3.7	4	-1E+10	1	-1E+10	1	-1E+10	1	-1E+10	1	-1E+10	1	-1E+10	1
4901784	228	C	10/01/2021	10:45	-136.585	43.165	0	809.30	0	3.8990	0	37.9910	8	30.186	0	801.303	0	11.3	4	3.7	4	-1E+10	1	-1E+10	1	-1E+10	1	-1E+10	1	-1E+10	1	-1E+10	1
4901784	228	C	10/01/2021	10:45	-136.585	43.165	0	814.30	0	3.8800	0	37.9980	8	30.194	0	806.244	0	11.2	4	3.6	4	-1E+10	1	-1E+10	1	-1E+10	1	-1E+10	1	-1E+10	1	-1E+10	1
4901784	228	C	10/01/2021	10:45	-136.585	43.165	0	819.40	0	3.8760	0	38.0010	8	30.197	0	811.283	0	11.0	4	3.6	4	-1E+10	1	-1E+10	1	-1E+10	1	-1E+10	1	-1E+10	1	-1E+10	1
4901784	228	C	10/01/2021	10:45	-136.585	43.165	0	824.50	0	3.8750	0	38.0080	8	30.203	0	816.323	0	10.8	4	3.5	4	-1E+10	1	-1E+10	1	-1E+10	1	-1E+10	1	-1E+10	1	-1E+10	1
4901784	228	C	10/01/2021	10:45	-136.585	43.165	0	829.60	0	3.8550	0	38.0110	8	30.207	0	821.362	0	10.8	4	3.5	4	-1E+10	1	-1E+10	1	-1E+10	1	-1E+10	1	-1E+10	1	-1E+10	1
4901784	228	C	10/01/2021	10:45	-136.585	43.165	0	834.70	0	3.8500	0	38.0150	8	30.211	0	826.401	0	10.7	4	3.5	4	-1E+10	1	-1E+10	1	-1E+10	1	-1E+10	1	-1E+10	1	-1E+10	1
4901784	228	C	10/01/2021	10:45	-136.585	43.165	0	839.80	0	3.8280	0	38.0200	8	30.217	0	831.441	0	10.6	4	3.4	4	-1E+10	1	-1E+10	1	-1E+10	1	-1E+10	1	-1E+10	1	-1E+10	1
4901784	228	C	10/01/2021	10:45	-136.585	43.165	0	845.00	0	3.8270	0	38.0260	8	30.222	0	836.578	0	10.4	4	3.4	4	-1E+10	1	-1E+10	1	-1E+10	1	-1E+10	1	-1E+10	1	-1E+10	1
4901784	228	C	10/01/2021	10:45	-136.585	43.165	0	850.10	0	3.8160	0	38.0320	8	30.228	0	841.617	0	10.2	4	3.3	4	-1E+10	1	-1E+10	1	-1E+10	1	-1E+10	1	-1E+10	1	-1E+10	1
4901784	228	C	10/01/2021	10:45	-136.585	43.165	0	855.30	0	3.8120	0	38.0380	8	30.234	0	846.755	0	10.1	4	3.3	4	-1E+10	1	-1E+10	1	-1E+10	1	-1E+10	1	-1E+10	1	-1E+10	1
4901784	228	C	10/01/2021	10:45	-136.585	43.165	0	860.50	0	3.7980	0	38.0440	8	30.240	0	851.892	0	10.0	4	3.2	4	-1E+10	1	-1E+10	1	-1E+10	1	-1E+10	1	-1E+10	1	-1E+10	1
4901784	228	C	10/01/2021	10:45	-136.585	43.165	0	864.80	0	3.7810	0	38.0500	8	30.247	0	856.141	0	10.0	4	3.2	4	-1E+10	1	-1E+10	1	-1E+10	1	-1E+10	1	-1E+10	1	-1E+10	1
4901784	228	C	10/01/2021	10:45	-136.585	43.165	0	869.30	0	3.7650	0	38.0530	8	30.251	0	860.586	0	10.0	4	3.2	4	-1E+10	1	-1E+10	1	-1E+10	1	-1E+10	1	-1E+10	1	-1E+10	1
4901784	228	C	10/01/2021	10:45	-136.585	43.165	0	874.70	0	3.7540	0	38.0550	8	30.254	0	865.921	0	9.9	4	3.2	4	-1E+10	1	-1E+10	1	-1E+10	1	-1E+10	1	-1E+10	1	-1E+10	1
4901784	228	C	10/01/2021	10:45	-136.585	43.165	0	880.10	0	3.7410	0	38.0600	8	30.259	0	871.256	0	9.9	4	3.2	4	-1E+10	1	-1E+10	1	-1E+10	1	-1E+10	1	-1E+10	1	-1E+10	1
4901784	228	C	10/01/2021	10:45	-136.585	43.165	0	885.60	0	3.7300	0	38.0670	8	30.266	0	876.689	0	9.9	4	3.2	4	-1E+10	1	-1E+10	1	-1E+10	1	-1E+10	1	-1E+10	1	-1E+10	1
4901784	228	C	10/01/2021	10:45	-136.585	43.165	0	890.20	0	3.7240	0	38.0690	8	30.268	0	881.233	0	9.8	4	3.2	4	-1E+10	1	-1E+10	1	-1E+10	1	-1E+10	1	-1E+10	1	-1E+10	1
4901784	228	C	10/01/2021	10:45	-136.585	43.165	0	894.70	0	3.7210	0	38.0710	8	30.270	0	885.678	0	9.8	4	3.2	4	-1E+10	1	-1E+10	1	-1E+10	1	-1E+10	1	-1E+10	1	-1E+10	1
4901784	228	C	10/01/2021	10:45	-136.585	43.165	0	900.30	0	3.7090	0	38.0740	8	30.274	0	891.210	0	9.8	4	3.2	4	-1E+10	1	-1E+10	1	-1E+10	1	-1E+10	1	-1E+10	1	-1E+10	1
4901784	228	C	10/01/2021	10:45	-136.585	43.165	0	905.00	0	3.7020	0	38.0760	8	30.276	0	895.852	0	9.8	4	3.2	4	-1E+10	1	-1E+10	1	-1E+10	1	-1E+10	1	-1E+10	1	-1E+10	1
4901784	228	C	10/01/2021	10:45	-136.585	43.165	0	909.70	0	3.6960	0	38.0790	8	30.279	0	900.494	0	9.8	4	3.2	4	-1E+10	1	-1E+10	1	-1E+10	1	-1E+10	1	-1E+10	1	-1E+10	1
4901784	228	C	10/01/2021	10:45	-136.585	43.165	0	915.20	0	3.6900	0	38.0810	8	30.282	0	905.927	0	9.8	4	3.2	4	-1E+10	1	-1E+10	1	-1E+10	1	-1E+10	1	-1E+10	1	-1E+10	1
4901784	228	C	10/01/2021	10:45	-136.585	43.165	0	920.50	0	3.6700	0	38.0860	8	30.288	0	911.162	0	9.8	4	3.2	4	-1E+10	1	-1E+10	1	-1E+10	1	-1E+10	1	-1E+10	1	-1E+10	1
4901784	228	C	10/01/2021	10:45	-136.585	43.165	0	925.50	0	3.6600	0	38.0890	8	30.292	0	916.100	0	9.8	4	3.2	4	-1E+10	1	-1E+10	1	-1E+10	1	-1E+10	1	-1E+10	1	-1E+10	1
4901784	228	C	10/01/2021	10:45	-136.585	43.165	0	930.40	0	3.6520	0	38.0910	8	30.294	0	920.939	0	9.8	4	3.2	4	-1E+10	1	-1E+10	1	-1E+10	1	-1E+10	1	-1E+10	1	-1E+10	1
4901784	228	C	10/01/2021	10:45	-136.585	43.165	0	935.50	0	3.6400	0	38.0930	8	30.297	0	925.976	0	9.8	4	3.2	4	-1E+10	1	-1E+10	1	-1E+10	1	-1E+10	1	-1E+10	1	-1E+10	1
4901784	228	C	10/01/2021	10:45	-136.585	43.165	0	940.60	0	3.6300	0	38.0960	8	30.300	0	931.013	0	9.8	4	3.2	4	-1E+10	1	-1E+10	1	-1E+10	1	-1E+10	1	-1E+10	1	-1E+10	1
4901784	228	C	10/01/2021	10:45	-136.585	43.165	0	945.70	0	3.6160	0	38.0980	8	30.304	0	936.050	0	9.8	4	3.2	4	-1E+10	1	-1E+10	1	-1E+10	1	-1E+10	1	-1E+10	1	-1E+10	1
4901784	228	C	10/01/2021	10:45	-136.585	43.165	0	949.90	0	3.6060	0	38.1010	8	30.307	0	940.197	0	9.9	4	3.2	4	-1E+10	1	-1E+10	1	-1E+10	1	-1E+10	1	-1E+10	1	-1E+10	1
4901784	228	C	10/01/2021	10:45	-136.585	43.165	0	954.20	0	3.6000	0	38.1040	8	30.310	0	944.444	0	9.9	4	3.2	4	-1E+10	1	-1E+10	1	-1E+10	1	-1E+10	1	-1E+10	1	-1E+10	1
4901784	228	C	10/01/2021	10:45	-136.585	43.165	0	959.40	0	3.5900	0	38.1060	8	30.313	0	949.579	0	9.9	4	3.2	4	-1E+10	1	-1E+10	1	-1E+10	1	-1E+10	1	-1E+10	1	-1E+10	1
4901784	228	C	10/01/2021	10:45	-136.585	43.165	0	964.60	0	3.5760	0	38.1090	8	30.317	0	954.714	0	9.9	4	3.2	4	-1E+10	1	-1E+10	1	-1E+10	1	-1E+10	1	-1E+10	1	-1E+10	1
4901784	228	C	10/01/2021	10:45	-136.585	43.165	0	969.80	0	3.5660	0	38.1130	8	30.321	0	959.848	0	9.9	4	3.2	4	-1E+10	1	-1E+10	1	-1E+10	1	-1E+10	1	-1E+10	1	-1E+10	1
4901784	228	C	10/01/2021	10:45	-136.585	43.165	0	974.90	0	3.5600	0	38.1150	8	30.323	0	964.884	0	10.0	4	3.2	4	-1E+10	1	-1E+10	1	-1E+10	1	-1E+10	1	-1E+10	1	-1E+10	1
4901784	228	C	10/01/2021	10:45	-136.585	43.165	0	980.20	0	3.5510	0	38.1180	8	30.327	0	970.118	0	10.0	4	3.2	4	-1E+10	1	-1E+10	1	-1E+10	1	-1E+10	1	-1E+10	1	-1E+10	1
4901784	228	C	10/01/2021	10:45	-136.585	43.165	0	985.40	0	3.5390	0	38.1220	8	30.331	0	975.252	0	10.0	4	3.2	4	-1E+10	1	-1E+10	1	-1E+10	1	-1E+10	1	-1E+10	1	-1E+10	1
4901784	228	C	10/01/2021	10:45	-136.585	43.165	0	990.70	0	3.5300	0	38.1250	8	30.335	0	980.485	0	10.1	4	3.2	4	-1E+10	1	-1E+10	1	-1E+10	1	-1E+10	1	-1E+10	1	-1E+10	1
4901784	228	C	10/01/2021	10:45	-136.585	43.165	0	995.10	0	3.5210	0	38.1280	8	30.338	0	984.829	0	10.1	4	3.3	4	-1E+10	1	-1E+10	1	-1E+10	1	-1E+10	1	-1E+10	1	-1E+10	1
4901784	228	C	10/01/2021	10:45	-136.585	43.165	0	999.60	0	3.5110	0	38.1290	8	30.340	0	989.272	0	10.1	4	3.3	4	-1E+10	1	-1E+10	1	-1E+10	1	-1E+10	1	-1E+10	1	-1E+10	1
4901784	228	C	10/01/2021	10:45	-136.585	43.165	0	1005.10	0	3.5000	0	38.1320	8	30.344	0	994.702	0	10.2	4	3.3	4	-1E+10	1	-1E+10	1	-1E+10	1	-1E+10	1	-1E+10	1	-1E+10	1
4901784	228	C	10/01/2021	10:45	-136.585	43.165	0	1010.50	0	3.4900	0	38.1340	8	30.346	0	1000.034	0	10.2	4	3.3	4	-1E+10	1	-1E+10	1	-1E+10	1	-1E+10	1	-1E+10	1	-1E+10	1
4901784	228	C	10/01/2021	10:45	-136.585	43.165	0	1015.10	0	3.4840	0	38.1360	8	30.349	0	1004.575	0	10.3	4	3.3	4	-1E+10	1	-1E+10	1	-1E+10	1	-1E+10	1	-1E+10	1	-1E+10	1
4901784	228	C	10/01/2021	10:45	-136.585	43.165	0	1019.60	0	3.4760	0	38.1390	8	30.352	0	1009.018	0	10.3	4	3.3	4	-1E+10	1	-1E+10	1	-1E+10	1	-1E+10	1	-1E+10	1	-1E+10	1
4901784	228	C	10/01/2021	10:45	-136.585	43.165	0	1025.00	0	3.4640	0	38.1410	8	30.355	0	1014.349	0	10.4	4	3.3	4	-1E+10	1	-1E+10	1	-1E+10	1	-1E+10	1	-1E+10	1	-1E+10	1
4901784	228	C	10/01/2021	10:45	-136.585	43.165	0	1030.40	0	3.4510	0	38.1440	8	30.359	0	1019.679	0	10.4	4	3.3	4	-1E+10	1	-1E+10	1	-1E+10	1	-1E+10	1	-1E+10	1	-1E+10	1
4901784	228	C	10/01/2021	10:45	-136.585	43.165	0	1034.90	0	3.4380	0	38.1470	8	30.362	0	1024.122	0	10.5	4	3.4	4	-1E+10	1	-1E+10	1	-1E+10	1	-1E+10	1	-1E+10	1	-1E+10	1
4901784	228	C	10/01/2021	10:45	-136.585	43.165	0	1039.50	0	3.4290	0	38.1480	8	30.364	0	1028.662	0	10.5	4	3.4	4	-1E+10	1	-1E+10	1	-1E+10	1	-1E+10	1	-1E+10	1	-1E+10	1
4901784	228	C	10/01/2021	10:45	-136.585	43.165	0	1045.00	0	3.4130	0	38.1520	8	30.369	0	1034.091	0	10.6	4	3.4	4	-1E+10	1	-1E+10	1	-1E+10	1	-1E+10	1	-1E+10	1	-1E+10	1
4901784	228	C	10/01/2021	10:45	-136.585	43.165	0	1050.50	0	3.4010	0	38.1550	8	30.373	0	1039.520	0	10.7	4	3.4	4	-1E+10	1	-1E+10	1	-1E+10	1	-1E+10	1	-1E+10	1	-1E+10	1
4901784	228	C	10/01/2021	10:45	-136.585	43.165	0	1055.20	0	3.3880	0	38.1580	8	30.377	0	1044.160	0	10.7	4	3.4	4	-1E+10	1	-1E+10	1	-1E+10	1	-1E+10	1	-1E+10	1	-1E+10	1
4901784	228	C	10/01/2021	10:45	-136.585	43.165	0	1060.50	0	3.3710	0	38.1620	8	30.382	0	1049.391	0	10.8	4	3.5	4	-1E+10	1	-1E+10	1	-1E+10	1	-1E+10	1	-1E+10	1	-1E+10	1
4901784	228	C	10/01/2021	10:45	-136.585	43.165	0	1065.50	0	3.3650	0	38.1640	8	30.384	0	1054.326	0	10.9	4	3.5	4	-1E+10	1	-1E+10	1	-1E+10	1	-1E+10	1	-1E+10	1	-1E+10	1
4901784	228	C	10/01/2021	10:45	-136.585	43.165	0	1070.30	0	3.3570	0	38.1660	8	30.386	0	1059.064	0	11.0	4	3.5	4	-1E+10	1	-1E+10	1	-1E+10	1	-1E+10	1	-1E+10	1	-1E+10	1
4901784	228	C	10/01/2021	10:45	-136.585	43.165	0	1075.20	0	3.3410	0	38.1700	8	30.391	0	1063.900	0	11.1	4	3.5	4	-1E+10	1	-1E+10	1	-1E+10	1	-1E+10	1	-1E+10	1	-1E+10	1
4901784	228	C	10/01/2021	10:45	-136.585	43.165	0	1080.00	0	3.3300	0	38.1720	8	30.394	0	1068.637	0	11.2	4	3.6	4	-1E+10	1	-1E+10	1	-1E+10	1	-1E+10	1	-1E+10	1	-1E+10	1
4901784	228	C	10/01/2021	10:45	-136.585	43.165	0	1085.00	0	3.3190	0	38.1760	8	30.398	0	1073.572	0	11.3	4	3.6	4	-1E+10	1	-1E+10	1	-1E+10	1	-1E+10	1	-1E+10	1	-1E+10	1
4901784	228	C	10/01/2021	10:45	-136.585	43.165	0	1090.00	0	3.3100	0	38.1790	8	30.402	0	1078.506	0	11.4	4	3.7	4	-1E+10	1	-1E+10	1	-1E+10	1	-1E+10	1	-1E+10	1	-1E+10	1
4901784	228	C	10/01/2021	10:45	-136.585	43.165	0	1095.10	0	3.2960	0	38.1820	8	30.406	0	1083.539	0	11.6	4	3.7	4	-1E+10	1	-1E+10	1	-1E+10	1	-1E+10	1	-1E+10	1	-1E+10	1
4901784	228	C	10/01/2021	10:45	-136.585	43.165	0	1100.20	0	3.2860	0	38.1840	8	30.408	0	1088.572	0	11.7	4	3.7	4	-1E+10	1	-1E+10	1	-1E+10	1	-1E+10	1	-1E+10	1	-1E+10	1
4901784	228	C	10/01/2021	10:45	-136.585	43.165	0	1105.40	0	3.2700	0	38.1880	8	30.413	0	1093.704	0	11.8	4	3.8	4	-1E+10	1	-1E+10	1	-1E+10	1	-1E+10	1	-1E+10	1	-1E+10	1
4901784	228	C	10/01/2021	10:45	-136.585	43.165	0	1110.10	0	3.2580	0	38.1910	8	30.417	0	1098.342	0	11.9	4	3.8	4	-1E+10	1	-1E+10	1	-1E+10	1	-1E+10	1	-1E+10	1	-1E+10	1
4901784	228	C	10/01/2021	10:45	-136.585	43.165	0	1114.40	0	3.2500	0	38.1930	8	30.419	0	1102.585	0	12.0	4	3.8	4	-1E+10	1	-1E+10	1	-1E+10	1	-1E+10	1	-1E+10	1	-1E+10	1
4901784	228	C	10/01/2021	10:45	-136.585	43.165	0	1119.60	0	3.2400	0	38.1950	8	30.422	0	1107.716	0	12.1	4	3.9	4	-1E+10	1	-1E+10	1	-1E+10	1	-1E+10	1	-1E+10	1	-1E+10	1
4901784	228	C	10/01/2021	10:45	-136.585	43.165	0	1124.50	0	3.2270	0	38.1980	8	30.426	0	1112.551	0	12.2	4	3.9	4	-1E+10	1	-1E+10	1	-1E+10	1	-1E+10	1	-1E+10	1	-1E+10	1
4901784	228	C	10/01/2021	10:45	-136.585	43.165	0	1129.50	0	3.2150	0	38.2010	8	30.430	0	1117.484	0	12.3	4	3.9	4	-1E+10	1	-1E+10	1	-1E+10	1	-1E+10	1	-1E+10	1	-1E+10	1
4901784	228	C	10/01/2021	10:45	-136.585	43.165	0	1134.40	0	3.2070	0	38.2030	8	30.432	0	1122.319	0	12.5	4	4.0	4	-1E+10	1	-1E+10	1	-1E+10	1	-1E+10	1	-1E+10	1	-1E+10	1
4901784	228	C	10/01/2021	10:45	-136.585	43.165	0	1139.30	0	3.1950	0	38.2060	8	30.436	0	1127.154	0	12.6	4	4.0	4	-1E+10	1	-1E+10	1	-1E+10	1	-1E+10	1	-1E+10	1	-1E+10	1
4901784	228	C	10/01/2021	10:45	-136.585	43.165	0	1144.30	0	3.1860	0	38.2090	8	30.439	0	1132.087	0	12.8	4	4.1	4	-1E+10	1	-1E+10	1	-1E+10	1	-1E+10	1	-1E+10	1	-1E+10	1
4901784	228	C	10/01/2021	10:45	-136.585	43.165	0	1149.30	0	3.1810	0	38.2110	8	30.441	0	1137.020	0	12.8	4	4.1	4	-1E+10	1	-1E+10	1	-1E+10	1	-1E+10	1	-1E+10	1	-1E+10	1
4901784	228	C	10/01/2021	10:45	-136.585	43.165	0	1154.40	0	3.1680	0	38.2120	8	30.443	0	1142.052	0	12.9	4	4.1	4	-1E+10	1	-1E+10	1	-1E+10	1	-1E+10	1	-1E+10	1	-1E+10	1
4901784	228	C	10/01/2021	10:45	-136.585	43.165	0	1159.50	0	3.1540	0	38.2150	8	30.447	0	1147.083	0	13.1	4	4.2	4	-1E+10	1	-1E+10	1	-1E+10	1	-1E+10	1	-1E+10	1	-1E+10	1
4901784	228	C	10/01/2021	10:45	-136.585	43.165	0	1164.60	0	3.1440	0	38.2180	8	30.451	0	1152.115	0	13.3	4	4.2	4	-1E+10	1	-1E+10	1	-1E+10	1	-1E+10	1	-1E+10	1	-1E+10	1
4901784	228	C	10/01/2021	10:45	-136.585	43.165	0	1169.80	0	3.1270	0	38.2210	8	30.455	0	1157.245	0	13.4	4	4.3	4	-1E+10	1	-1E+10	1	-1E+10	1	-1E+10	1	-1E+10	1	-1E+10	1
4901784	228	C	10/01/2021	10:45	-136.585	43.165	0	1175.00	0	3.1190	0	38.2230	8	30.457	0	1162.375	0	13.4	4	4.3	4	-1E+10	1	-1E+10	1	-1E+10	1	-1E+10	1	-1E+10	1	-1E+10	1
4901784	228	C	10/01/2021	10:45	-136.585	43.165	0	1180.30	0	3.1120	0	38.2250	8	30.460	0	1167.603	0	13.6	4	4.3	4	-1E+10	1	-1E+10	1	-1E+10	1	-1E+10	1	-1E+10	1	-1E+10	1
4901784	228	C	10/01/2021	10:45	-136.585	43.165	0	1185.60	0	3.1060	0	38.2270	8	30.462	0	1172.831	0	13.7	4	4.4	4	-1E+10	1	-1E+10	1	-1E+10	1	-1E+10	1	-1E+10	1	-1E+10	1
4901784	228	C	10/01/2021	10:45	-136.585	43.165	0	1190.10	0	3.1030	0	38.2290	8	30.464	0	1177.270	0	13.8	4	4.4	4	-1E+10	1	-1E+10	1	-1E+10	1	-1E+10	1	-1E+10	1	-1E+10	1
4901784	228	C	10/01/2021	10:45	-136.585	43.165	0	1194.60	0	3.0970	0	38.2300	8	30.465	0	1181.709	0	13.9	4	4.4	4	-1E+10	1	-1E+10	1	-1E+10	1	-1E+10	1	-1E+10	1	-1E+10	1
4901784	228	C	10/01/2021	10:45	-136.585	43.165	0	1200.20	0	3.0880	0	38.2320	8	30.468	0	1187.233	0	14.0	4	4.5	4	-1E+10	1	-1E+10	1	-1E+10	1	-1E+10	1	-1E+10	1	-1E+10	1
4901784	228	C	10/01/2021	10:45	-136.585	43.165	0	1204.80	0	3.0800	0	38.2340	8	30.470	0	1191.770	0	14.1	4	4.5	4	-1E+10	1	-1E+10	1	-1E+10	1	-1E+10	1	-1E+10	1	-1E+10	1
4901784	228	C	10/01/2021	10:45	-136.585	43.165	0	1209.40	0	3.0760	0	38.2350	8	30.472	0	1196.307	0	14.2	4	4.5	4	-1E+10	1	-1E+10	1	-1E+10	1	-1E+10	1	-1E+10	1	-1E+10	1
4901784	228	C	10/01/2021	10:45	-136.585	43.165	0	1214.90	0	3.0630	0	38.2370	8	30.475	0	1201.732	0	14.3	4	4.6	4	-1E+10	1	-1E+10	1	-1E+10	1	-1E+10	1	-1E+10	1	-1E+10	1
4901784	228	C	10/01/2021	10:45	-136.585	43.165	0	1220.60	0	3.0510	0	38.2400	8	30.478	0	1207.354	0	14.5	4	4.6	4	-1E+10	1	-1E+10	1	-1E+10	1	-1E+10	1	-1E+10	1	-1E+10	1
4901784	228	C	10/01/2021	10:45	-136.585	43.165	0	1225.30	0	3.0420	0	38.2410	8	30.480	0	1211.989	0	14.7	4	4.7	4	-1E+10	1	-1E+10	1	-1E+10	1	-1E+10	1	-1E+10	1	-1E+10	1
4901784	228	C	10/01/2021	10:45	-136.585	43.165	0	1229.90	0	3.0300	0	38.2430	8	30.483	0	1216.526	0	14.8	4	4.7	4	-1E+10	1	-1E+10	1	-1E+10	1	-1E+10	1	-1E+10	1	-1E+10	1
4901784	228	C	10/01/2021	10:45	-136.585	43.165	0	1235.30	0	3.0140	0	38.2460	8	30.487	0	1221.852	0	15.0	4	4.8	4	-1E+10	1	-1E+10	1	-1E+10	1	-1E+10	1	-1E+10	1	-1E+10	1
4901784	228	C	10/01/2021	10:45	-136.585	43.165	0	1240.60	0	3.0030	0	38.2480	8	30.490	0	1227.078	0	15.1	4	4.8	4	-1E+10	1	-1E+10	1	-1E+10	1	-1E+10	1	-1E+10	1	-1E+10	1
4901784	228	C	10/01/2021	10:45	-136.585	43.165	0	1244.90	0	2.9960	0	38.2500	8	30.492	0	1231.319	0	15.3	4	4.8	4	-1E+10	1	-1E+10	1	-1E+10	1	-1E+10	1	-1E+10	1	-1E+10	1
4901784	228	C	10/01/2021	10:45	-136.585	43.165	0	1249.30	0	2.9880	0	38.2510	8	30.494	0	1235.658	0	15.4	4	4.9	4	-1E+10	1	-1E+10	1	-1E+10	1	-1E+10	1	-1E+10	1	-1E+10	1
4901784	228	C	10/01/2021	10:45	-136.585	43.165	0	1254.50	0	2.9740	0	38.2540	8	30.497	0	1240.786	0	15.6	4	5.0	4	-1E+10	1	-1E+10	1	-1E+10	1	-1E+10	1	-1E+10	1	-1E+10	1
4901784	228	C	10/01/2021	10:45	-136.585	43.165	0	1259.80	0	2.9590	0	38.2570	8	30.501	0	1246.012	0	15.8	4	5.0	4	-1E+10	1	-1E+10	1	-1E+10	1	-1E+10	1	-1E+10	1	-1E+10	1
4901784	228	C	10/01/2021	10:45	-136.585	43.165	0	1265.00	0	2.9470	0	38.2590	8	30.504	0	1251.140	0	16.0	4	5.1	4	-1E+10	1	-1E+10	1	-1E+10	1	-1E+10	1	-1E+10	1	-1E+10	1
4901784	228	C	10/01/2021	10:45	-136.585	43.165	0	1270.30	0	2.9350	0	38.2610	8	30.507	0	1256.366	0	16.3	4	5.2	4	-1E+10	1	-1E+10	1	-1E+10	1	-1E+10	1	-1E+10	1	-1E+10	1
4901784	228	C	10/01/2021	10:45	-136.585	43.165	0	1275.60	0	2.9220	0	38.2640	8	30.511	0	1261.592	0	16.5	4	5.2	4	-1E+10	1	-1E+10	1	-1E+10	1	-1E+10	1	-1E+10	1	-1E+10	1
4901784	228	C	10/01/2021	10:45	-136.585	43.165	0	1280.10	0	2.9130	0	38.2660	8	30.513	0	1266.029	0	16.6	4	5.3	4	-1E+10	1	-1E+10	1	-1E+10	1	-1E+10	1	-1E+10	1	-1E+10	1
4901784	228	C	10/01/2021	10:45	-136.585	43.165	0	1284.60	0	2.9050	0	38.2670	8	30.515	0	1270.466	0	16.8	4	5.3	4	-1E+10	1	-1E+10	1	-1E+10	1	-1E+10	1	-1E+10	1	-1E+10	1
4901784	228	C	10/01/2021	10:45	-136.585	43.165	0	1290.00	0	2.8950	0	38.2700	8	30.518	0	1275.790	0	16.9	4	5.4	4	-1E+10	1	-1E+10	1	-1E+10	1	-1E+10	1	-1E+10	1	-1E+10	1
4901784	228	C	10/01/2021	10:45	-136.585	43.165	0	1295.40	0	2.8880	0	38.2710	8	30.520	0	1281.115	0	17.1	4	5.4	4	-1E+10	1	-1E+10	1	-1E+10	1	-1E+10	1	-1E+10	1	-1E+10	1
4901784	228	C	10/01/2021	10:45	-136.585	43.165	0	1300.00	0	2.8790	0	38.2730	8	30.522	0	1285.650	0	17.3	4	5.5	4	-1E+10	1	-1E+10	1	-1E+10	1	-1E+10	1	-1E+10	1	-1E+10	1
4901784	228	C	10/01/2021	10:45	-136.585	43.165	0	1304.50	0	2.8660	0	38.2750	8	30.525	0	1290.086	0	17.5	4	5.5	4	-1E+10	1	-1E+10	1	-1E+10	1	-1E+10	1	-1E+10	1	-1E+10	1
4901784	228	C	10/01/2021	10:45	-136.585	43.165	0	1309.90	0	2.8600	0	38.2770	8	30.527	0	1295.410	0	17.6	4	5.6	4	-1E+10	1	-1E+10	1	-1E+10	1	-1E+10	1	-1E+10	1	-1E+10	1
4901784	228	C	10/01/2021	10:45	-136.585	43.165	0	1315.40	0	2.8530	0	38.2780	8	30.529	0	1300.832	0	17.8	4	5.6	4	-1E+10	1	-1E+10	1	-1E+10	1	-1E+10	1	-1E+10	1	-1E+10	1
4901784	228	C	10/01/2021	10:45	-136.585	43.165	0	1320.00	0	2.8490	0	38.2790	8	30.530	0	1305.367	0	17.9	4	5.7	4	-1E+10	1	-1E+10	1	-1E+10	1	-1E+10	1	-1E+10	1	-1E+10	1
4901784	228	C	10/01/2021	10:45	-136.585	43.165	0	1324.60	0	2.8430	0	38.2810	8	30.532	0	1309.902	0	18.0	4	5.7	4	-1E+10	1	-1E+10	1	-1E+10	1	-1E+10	1	-1E+10	1	-1E+10	1
4901784	228	C	10/01/2021	10:45	-136.585	43.165	0	1330.20	0	2.8350	0	38.2820	8	30.534	0	1315.422	0	18.2	4	5.8	4	-1E+10	1	-1E+10	1	-1E+10	1	-1E+10	1	-1E+10	1	-1E+10	1
4901784	228	C	10/01/2021	10:45	-136.585	43.165	0	1334.80	0	2.8260	0	38.2840	8	30.537	0	1319.957	0	18.4	4	5.8	4	-1E+10	1	-1E+10	1	-1E+10	1	-1E+10	1	-1E+10	1	-1E+10	1
4901784	228	C	10/01/2021	10:45	-136.585	43.165	0	1339.50	0	2.8210	0	38.2860	8	30.539	0	1324.590	0	18.5	4	5.9	4	-1E+10	1	-1E+10	1	-1E+10	1	-1E+10	1	-1E+10	1	-1E+10	1
4901784	228	C	10/01/2021	10:45	-136.585	43.165	0	1345.10	0	2.8150	0	38.2870	8	30.540	0	1330.110	0	18.7	4	5.9	4	-1E+10	1	-1E+10	1	-1E+10	1	-1E+10	1	-1E+10	1	-1E+10	1
4901784	228	C	10/01/2021	10:45	-136.585	43.165	0	1349.80	0	2.8090	0	38.2890	8	30.542	0	1334.742	0	18.8	4	6.0	4	-1E+10	1	-1E+10	1	-1E+10	1	-1E+10	1	-1E+10	1	-1E+10	1
4901784	228	C	10/01/2021	10:45	-136.585	43.165	0	1354.50	0	2.8040	0	38.2890	8	30.543	0	1339.375	0	19.0	4	6.0	4	-1E+10	1	-1E+10	1	-1E+10	1	-1E+10	1	-1E+10	1	-1E+10	1
4901784	228	C	10/01/2021	10:45	-136.585	43.165	0	1360.10	0	2.7970	0	38.2900	8	30.544	0	1344.895	0	19.2	4	6.1	4	-1E+10	1	-1E+10	1	-1E+10	1	-1E+10	1	-1E+10	1	-1E+10	1
4901784	228	C	10/01/2021	10:45	-136.585	43.165	0	1365.50	0	2.7830	0	38.2930	8	30.548	0	1350.217	0	19.5	4	6.2	4	-1E+10	1	-1E+10	1	-1E+10	1	-1E+10	1	-1E+10	1	-1E+10	1
4901784	228	C	10/01/2021	10:45	-136.585	43.165	0	1370.40	0	2.7750	0	38.2950	8	30.551	0	1355.046	0	19.7	4	6.2	4	-1E+10	1	-1E+10	1	-1E+10	1	-1E+10	1	-1E+10	1	-1E+10	1
4901784	228	C	10/01/2021	10:45	-136.585	43.165	0	1375.30	0	2.7690	0	38.2960	8	30.552	0	1359.876	0	19.8	4	6.3	4	-1E+10	1	-1E+10	1	-1E+10	1	-1E+10	1	-1E+10	1	-1E+10	1
4901784	228	C	10/01/2021	10:45	-136.585	43.165	0	1380.40	0	2.7590	0	38.2980	8	30.555	0	1364.902	0	20.1	4	6.3	4	-1E+10	1	-1E+10	1	-1E+10	1	-1E+10	1	-1E+10	1	-1E+10	1
4901784	228	C	10/01/2021	10:45	-136.585	43.165	0	1385.50	0	2.7470	0	38.3000	8	30.558	0	1369.928	0	20.3	4	6.4	4	-1E+10	1	-1E+10	1	-1E+10	1	-1E+10	1	-1E+10	1	-1E+10	1
4901784	228	C	10/01/2021	10:45	-136.585	43.165	0	1390.60	0	2.7410	0	38.3010	8	30.559	0	1374.954	0	20.5	4	6.5	4	-1E+10	1	-1E+10	1	-1E+10	1	-1E+10	1	-1E+10	1	-1E+10	1
4901784	228	C	10/01/2021	10:45	-136.585	43.165	0	1395.00	0	2.7340	0	38.3030	8	30.561	0	1379.290	0	20.7	4	6.6	4	-1E+10	1	-1E+10	1	-1E+10	1	-1E+10	1	-1E+10	1	-1E+10	1
4901784	228	C	10/01/2021	10:45	-136.585	43.165	0	1399.30	0	2.7250	0	38.3050	8	30.564	0	1383.528	0	21.0	4	6.6	4	-1E+10	1	-1E+10	1	-1E+10	1	-1E+10	1	-1E+10	1	-1E+10	1
4901784	228	C	10/01/2021	10:45	-136.585	43.165	0	1404.50	0	2.7150	0	38.3060	8	30.566	0	1388.652	0	21.2	4	6.7	4	-1E+10	1	-1E+10	1	-1E+10	1	-1E+10	1	-1E+10	1	-1E+10	1
4901784	228	C	10/01/2021	10:45	-136.585	43.165	0	1409.70	0	2.7060	0	38.3080	8	30.568	0	1393.776	0	21.5	4	6.8	4	-1E+10	1	-1E+10	1	-1E+10	1	-1E+10	1	-1E+10	1	-1E+10	1
4901784	228	C	10/01/2021	10:45	-136.585	43.165	0	1414.90	0	2.6950	0	38.3100	8	30.571	0	1398.900	0	21.7	4	6.9	4	-1E+10	1	-1E+10	1	-1E+10	1	-1E+10	1	-1E+10	1	-1E+10	1
4901784	228	C	10/01/2021	10:45	-136.585	43.165	0	1420.10	0	2.6870	0	38.3120	8	30.573	0	1404.024	0	21.9	4	6.9	4	-1E+10	1	-1E+10	1	-1E+10	1	-1E+10	1	-1E+10	1	-1E+10	1
4901784	228	C	10/01/2021	10:45	-136.585	43.165	0	1425.30	0	2.6820	0	38.3130	8	30.575	0	1409.148	0	22.1	4	7.0	4	-1E+10	1	-1E+10	1	-1E+10	1	-1E+10	1	-1E+10	1	-1E+10	1
4901784	228	C	10/01/2021	10:45	-136.585	43.165	0	1430.60	0	2.6760	0	38.3150	8	30.577	0	1414.370	0	22.3	4	7.0	4	-1E+10	1	-1E+10	1	-1E+10	1	-1E+10	1	-1E+10	1	-1E+10	1
4901784	228	C	10/01/2021	10:45	-136.585	43.165	0	1435.00	0	2.6700	0	38.3160	8	30.578	0	1418.706	0	22.4	4	7.1	4	-1E+10	1	-1E+10	1	-1E+10	1	-1E+10	1	-1E+10	1	-1E+10	1
4901784	228	C	10/01/2021	10:45	-136.585	43.165	0	1439.50	0	2.6670	0	38.3160	8	30.579	0	1423.139	0	22.5	4	7.1	4	-1E+10	1	-1E+10	1	-1E+10	1	-1E+10	1	-1E+10	1	-1E+10	1
4901784	228	C	10/01/2021	10:45	-136.585	43.165	0	1444.80	0	2.6570	0	38.3180	8	30.581	0	1428.361	0	22.8	4	7.2	4	-1E+10	1	-1E+10	1	-1E+10	1	-1E+10	1	-1E+10	1	-1E+10	1
4901784	228	C	10/01/2021	10:45	-136.585	43.165	0	1450.20	0	2.6480	0	38.3200	8	30.584	0	1433.681	0	23.0	4	7.3	4	-1E+10	1	-1E+10	1	-1E+10	1	-1E+10	1	-1E+10	1	-1E+10	1
4901784	228	C	10/01/2021	10:45	-136.585	43.165	0	1455.70	0	2.6400	0	38.3210	8	30.585	0	1439.100	0	23.3	4	7.3	4	-1E+10	1	-1E+10	1	-1E+10	1	-1E+10	1	-1E+10	1	-1E+10	1
4901784	228	C	10/01/2021	10:45	-136.585	43.165	0	1460.20	0	2.6310	0	38.3230	8	30.588	0	1443.533	0	23.5	4	7.4	4	-1E+10	1	-1E+10	1	-1E+10	1	-1E+10	1	-1E+10	1	-1E+10	1
4901784	228	C	10/01/2021	10:45	-136.585	43.165	0	1464.80	0	2.6240	0	38.3250	8	30.590	0	1448.065	0	23.7	4	7.5	4	-1E+10	1	-1E+10	1	-1E+10	1	-1E+10	1	-1E+10	1	-1E+10	1
4901784	228	C	10/01/2021	10:45	-136.585	43.165	0	1470.40	0	2.6160	0	38.3260	8	30.592	0	1453.582	0	24.0	4	7.5	4	-1E+10	1	-1E+10	1	-1E+10	1	-1E+10	1	-1E+10	1	-1E+10	1
4901784	228	C	10/01/2021	10:45	-136.585	43.165	0	1475.00	0	2.6090	0	38.3270	8	30.593	0	1458.113	0	24.2	4	7.6	4	-1E+10	1	-1E+10	1	-1E+10	1	-1E+10	1	-1E+10	1	-1E+10	1
4901784	228	C	10/01/2021	10:45	-136.585	43.165	0	1479.80	0	2.6020	0	38.3280	8	30.595	0	1462.842	0	24.4	4	7.7	4	-1E+10	1	-1E+10	1	-1E+10	1	-1E+10	1	-1E+10	1	-1E+10	1
4901784	228	C	10/01/2021	10:45	-136.585	43.165	0	1485.50	0	2.5910	0	38.3300	8	30.597	0	1468.457	0	24.7	4	7.8	4	-1E+10	1	-1E+10	1	-1E+10	1	-1E+10	1	-1E+10	1	-1E+10	1
4901784	228	C	10/01/2021	10:45	-136.585	43.165	0	1490.20	0	2.5850	0	38.3320	8	30.600	0	1473.086	0	24.9	4	7.8	4	-1E+10	1	-1E+10	1	-1E+10	1	-1E+10	1	-1E+10	1	-1E+10	1
4901784	228	C	10/01/2021	10:45	-136.585	43.165	0	1495.00	0	2.5780	0	38.3330	8	30.601	0	1477.814	0	25.1	4	7.9	4	-1E+10	1	-1E+10	1	-1E+10	1	-1E+10	1	-1E+10	1	-1E+10	1
4901784	228	C	10/01/2021	10:45	-136.585	43.165	0	1499.70	0	2.5720	0	38.3340	8	30.602	0	1482.444	0	25.3	4	8.0	4	-1E+10	1	-1E+10	1	-1E+10	1	-1E+10	1	-1E+10	1	-1E+10	1
4901784	228	C	10/01/2021	10:45	-136.585	43.165	0	1504.50	0	2.5670	0	38.3350	8	30.604	0	1487.172	0	25.4	4	8.0	4	-1E+10	1	-1E+10	1	-1E+10	1	-1E+10	1	-1E+10	1	-1E+10	1
4901784	228	C	10/01/2021	10:45	-136.585	43.165	0	1510.00	0	2.5600	0	38.3360	8	30.605	0	1492.589	0	25.7	4	8.1	4	-1E+10	1	-1E+10	1	-1E+10	1	-1E+10	1	-1E+10	1	-1E+10	1
4901784	228	C	10/01/2021	10:45	-136.585	43.165	0	1515.50	0	2.5500	0	38.3380	8	30.608	0	1498.006	0	26.0	4	8.2	4	-1E+10	1	-1E+10	1	-1E+10	1	-1E+10	1	-1E+10	1	-1E+10	1
4901784	228	C	10/01/2021	10:45	-136.585	43.165	0	1520.40	0	2.5410	0	38.3400	8	30.610	0	1502.832	0	26.2	4	8.2	4	-1E+10	1	-1E+10	1	-1E+10	1	-1E+10	1	-1E+10	1	-1E+10	1
4901784	228	C	10/01/2021	10:45	-136.585	43.165	0	1525.40	0	2.5360	0	38.3410	8	30.612	0	1507.757	0	26.4	4	8.3	4	-1E+10	1	-1E+10	1	-1E+10	1	-1E+10	1	-1E+10	1	-1E+10	1
4901784	228	C	10/01/2021	10:45	-136.585	43.165	0	1530.30	0	2.5280	0	38.3430	8	30.614	0	1512.582	0	26.7	4	8.4	4	-1E+10	1	-1E+10	1	-1E+10	1	-1E+10	1	-1E+10	1	-1E+10	1
4901784	228	C	10/01/2021	10:45	-136.585	43.165	0	1535.20	0	2.5220	0	38.3430	8	30.615	0	1517.408	0	26.9	4	8.5	4	-1E+10	1	-1E+10	1	-1E+10	1	-1E+10	1	-1E+10	1	-1E+10	1
4901784	228	C	10/01/2021	10:45	-136.585	43.165	0	1540.20	0	2.5110	0	38.3450	8	30.617	0	1522.332	0	27.2	4	8.6	4	-1E+10	1	-1E+10	1	-1E+10	1	-1E+10	1	-1E+10	1	-1E+10	1
4901784	228	C	10/01/2021	10:45	-136.585	43.165	0	1545.20	0	2.5020	0	38.3470	8	30.620	0	1527.256	0	27.5	4	8.6	4	-1E+10	1	-1E+10	1	-1E+10	1	-1E+10	1	-1E+10	1	-1E+10	1
4901784	228	C	10/01/2021	10:45	-136.585	43.165	0	1550.20	0	2.4950	0	38.3480	8	30.621	0	1532.180	0	27.8	4	8.7	4	-1E+10	1	-1E+10	1	-1E+10	1	-1E+10	1	-1E+10	1	-1E+10	1
4901784	228	C	10/01/2021	10:45	-136.585	43.165	0	1555.20	0	2.4850	0	38.3500	8	30.624	0	1537.104	0	28.1	4	8.8	4	-1E+10	1	-1E+10	1	-1E+10	1	-1E+10	1	-1E+10	1	-1E+10	1
4901784	228	C	10/01/2021	10:45	-136.585	43.165	0	1560.20	0	2.4750	0	38.3520	8	30.627	0	1542.027	0	28.4	4	8.9	4	-1E+10	1	-1E+10	1	-1E+10	1	-1E+10	1	-1E+10	1	-1E+10	1
4901784	228	C	10/01/2021	10:45	-136.585	43.165	0	1565.30	0	2.4690	0	38.3530	8	30.628	0	1547.049	0	28.7	4	9.0	4	-1E+10	1	-1E+10	1	-1E+10	1	-1E+10	1	-1E+10	1	-1E+10	1
4901784	228	C	10/01/2021	10:45	-136.585	43.165	0	1570.50	0	2.4610	0	38.3540	8	30.630	0	1552.170	0	28.9	4	9.1	4	-1E+10	1	-1E+10	1	-1E+10	1	-1E+10	1	-1E+10	1	-1E+10	1
4901784	228	C	10/01/2021	10:45	-136.585	43.165	0	1575.60	0	2.4550	0	38.3550	8	30.631	0	1557.191	0	29.2	4	9.2	4	-1E+10	1	-1E+10	1	-1E+10	1	-1E+10	1	-1E+10	1	-1E+10	1
4901784	228	C	10/01/2021	10:45	-136.585	43.165	0	1580.70	0	2.4450	0	38.3570	8	30.633	0	1562.213	0	29.5	4	9.2	4	-1E+10	1	-1E+10	1	-1E+10	1	-1E+10	1	-1E+10	1	-1E+10	1
4901784	228	C	10/01/2021	10:45	-136.585	43.165	0	1585.00	0	2.4380	0	38.3590	8	30.636	0	1566.447	0	29.7	4	9.3	4	-1E+10	1	-1E+10	1	-1E+10	1	-1E+10	1	-1E+10	1	-1E+10	1
4901784	228	C	10/01/2021	10:45	-136.585	43.165	0	1589.30	0	2.4350	0	38.3590	8	30.636	0	1570.680	0	29.9	4	9.4	4	-1E+10	1	-1E+10	1	-1E+10	1	-1E+10	1	-1E+10	1	-1E+10	1
4901784	228	C	10/01/2021	10:45	-136.585	43.165	0	1594.60	0	2.4270	0	38.3610	8	30.638	0	1575.899	0	30.2	4	9.5	4	-1E+10	1	-1E+10	1	-1E+10	1	-1E+10	1	-1E+10	1	-1E+10	1
4901784	228	C	10/01/2021	10:45	-136.585	43.165	0	1599.80	0	2.4140	0	38.3630	8	30.641	0	1581.018	0	30.7	4	9.6	4	-1E+10	1	-1E+10	1	-1E+10	1	-1E+10	1	-1E+10	1	-1E+10	1
4901784	228	C	10/01/2021	10:45	-136.585	43.165	0	1605.10	0	2.4050	0	38.3650	8	30.644	0	1586.236	0	31.1	4	9.7	4	-1E+10	1	-1E+10	1	-1E+10	1	-1E+10	1	-1E+10	1	-1E+10	1
4901784	228	C	10/01/2021	10:45	-136.585	43.165	0	1610.40	0	2.3960	0	38.3670	8	30.646	0	1591.454	0	31.5	4	9.9	4	-1E+10	1	-1E+10	1	-1E+10	1	-1E+10	1	-1E+10	1	-1E+10	1
4901784	228	C	10/01/2021	10:45	-136.585	43.165	0	1615.70	0	2.3880	0	38.3680	8	30.648	0	1596.672	0	31.8	4	10.0	4	-1E+10	1	-1E+10	1	-1E+10	1	-1E+10	1	-1E+10	1	-1E+10	1
4901784	228	C	10/01/2021	10:45	-136.585	43.165	0	1620.10	0	2.3840	0	38.3700	8	30.650	0	1601.003	0	32.0	4	10.0	4	-1E+10	1	-1E+10	1	-1E+10	1	-1E+10	1	-1E+10	1	-1E+10	1
4901784	228	C	10/01/2021	10:45	-136.585	43.165	0	1624.50	0	2.3740	0	38.3710	8	30.652	0	1605.335	0	32.3	4	10.1	4	-1E+10	1	-1E+10	1	-1E+10	1	-1E+10	1	-1E+10	1	-1E+10	1
4901784	228	C	10/01/2021	10:45	-136.585	43.165	0	1629.90	0	2.3710	0	38.3720	8	30.653	0	1610.650	0	32.5	4	10.2	4	-1E+10	1	-1E+10	1	-1E+10	1	-1E+10	1	-1E+10	1	-1E+10	1
4901784	228	C	10/01/2021	10:45	-136.585	43.165	0	1635.20	0	2.3630	0	38.3730	8	30.654	0	1615.868	0	32.8	4	10.3	4	-1E+10	1	-1E+10	1	-1E+10	1	-1E+10	1	-1E+10	1	-1E+10	1
4901784	228	C	10/01/2021	10:45	-136.585	43.165	0	1640.50	0	2.3540	0	38.3750	8	30.657	0	1621.085	0	33.0	4	10.3	4	-1E+10	1	-1E+10	1	-1E+10	1	-1E+10	1	-1E+10	1	-1E+10	1
4901784	228	C	10/01/2021	10:45	-136.585	43.165	0	1645.00	0	2.3510	0	38.3750	8	30.657	0	1625.514	0	33.2	4	10.4	4	-1E+10	1	-1E+10	1	-1E+10	1	-1E+10	1	-1E+10	1	-1E+10	1
4901784	228	C	10/01/2021	10:45	-136.585	43.165	0	1649.50	0	2.3440	0	38.3760	8	30.659	0	1629.944	0	33.5	4	10.5	4	-1E+10	1	-1E+10	1	-1E+10	1	-1E+10	1	-1E+10	1	-1E+10	1
4901784	228	C	10/01/2021	10:45	-136.585	43.165	0	1654.80	0	2.3380	0	38.3780	8	30.661	0	1635.160	0	33.8	4	10.6	4	-1E+10	1	-1E+10	1	-1E+10	1	-1E+10	1	-1E+10	1	-1E+10	1
4901784	228	C	10/01/2021	10:45	-136.585	43.165	0	1660.20	0	2.3320	0	38.3790	8	30.662	0	1640.475	0	34.1	4	10.7	4	-1E+10	1	-1E+10	1	-1E+10	1	-1E+10	1	-1E+10	1	-1E+10	1
4901784	228	C	10/01/2021	10:45	-136.585	43.165	0	1665.60	0	2.3230	0	38.3810	8	30.665	0	1645.790	0	34.5	4	10.8	4	-1E+10	1	-1E+10	1	-1E+10	1	-1E+10	1	-1E+10	1	-1E+10	1
4901784	228	C	10/01/2021	10:45	-136.585	43.165	0	1670.10	0	2.3140	0	38.3820	8	30.666	0	1650.219	0	34.9	4	10.9	4	-1E+10	1	-1E+10	1	-1E+10	1	-1E+10	1	-1E+10	1	-1E+10	1
4901784	228	C	10/01/2021	10:45	-136.585	43.165	0	1674.60	0	2.3070	0	38.3840	8	30.669	0	1654.648	0	35.2	4	11.0	4	-1E+10	1	-1E+10	1	-1E+10	1	-1E+10	1	-1E+10	1	-1E+10	1
4901784	228	C	10/01/2021	10:45	-136.585	43.165	0	1679.90	0	2.2980	0	38.3860	8	30.671	0	1659.864	0	35.5	4	11.1	4	-1E+10	1	-1E+10	1	-1E+10	1	-1E+10	1	-1E+10	1	-1E+10	1
4901784	228	C	10/01/2021	10:45	-136.585	43.165	0	1685.30	0	2.2920	0	38.3870	8	30.672	0	1665.179	0	35.8	4	11.2	4	-1E+10	1	-1E+10	1	-1E+10	1	-1E+10	1	-1E+10	1	-1E+10	1
4901784	228	C	10/01/2021	10:45	-136.585	43.165	0	1689.80	0	2.2860	0	38.3880	8	30.674	0	1669.607	0	36.1	4	11.3	4	-1E+10	1	-1E+10	1	-1E+10	1	-1E+10	1	-1E+10	1	-1E+10	1
4901784	228	C	10/01/2021	10:45	-136.585	43.165	0	1694.40	0	2.2790	0	38.3890	8	30.675	0	1674.134	0	36.4	4	11.4	4	-1E+10	1	-1E+10	1	-1E+10	1	-1E+10	1	-1E+10	1	-1E+10	1
4901784	228	C	10/01/2021	10:45	-136.585	43.165	0	1699.90	0	2.2740	0	38.3900	8	30.677	0	1679.547	0	36.7	4	11.5	4	-1E+10	1	-1E+10	1	-1E+10	1	-1E+10	1	-1E+10	1	-1E+10	1
4901784	228	C	10/01/2021	10:45	-136.585	43.165	0	1705.40	0	2.2690	0	38.3910	8	30.678	0	1684.959	0	37.0	4	11.6	4	-1E+10	1	-1E+10	1	-1E+10	1	-1E+10	1	-1E+10	1	-1E+10	1
4901784	228	C	10/01/2021	10:45	-136.585	43.165	0	1709.90	0	2.2630	0	38.3930	8	30.680	0	1689.387	0	37.3	4	11.7	4	-1E+10	1	-1E+10	1	-1E+10	1	-1E+10	1	-1E+10	1	-1E+10	1
4901784	228	C	10/01/2021	10:45	-136.585	43.165	0	1714.50	0	2.2560	0	38.3940	8	30.682	0	1693.913	0	37.6	4	11.7	4	-1E+10	1	-1E+10	1	-1E+10	1	-1E+10	1	-1E+10	1	-1E+10	1
4901784	228	C	10/01/2021	10:45	-136.585	43.165	0	1720.10	0	2.2480	0	38.3960	8	30.684	0	1699.424	0	37.8	4	11.8	4	-1E+10	1	-1E+10	1	-1E+10	1	-1E+10	1	-1E+10	1	-1E+10	1
4901784	228	C	10/01/2021	10:45	-136.585	43.165	0	1725.70	0	2.2420	0	38.3960	8	30.685	0	1704.934	0	38.0	4	11.9	4	-1E+10	1	-1E+10	1	-1E+10	1	-1E+10	1	-1E+10	1	-1E+10	1
4901784	228	C	10/01/2021	10:45	-136.585	43.165	0	1730.40	0	2.2360	0	38.3980	8	30.687	0	1709.558	0	38.2	4	11.9	4	-1E+10	1	-1E+10	1	-1E+10	1	-1E+10	1	-1E+10	1	-1E+10	1
4901784	228	C	10/01/2021	10:45	-136.585	43.165	0	1735.00	0	2.2290	0	38.3990	8	30.688	0	1714.084	0	38.5	4	12.0	4	-1E+10	1	-1E+10	1	-1E+10	1	-1E+10	1	-1E+10	1	-1E+10	1
4901784	228	C	10/01/2021	10:45	-136.585	43.165	0	1739.80	0	2.2210	0	38.4010	8	30.691	0	1718.807	0	38.8	4	12.1	4	-1E+10	1	-1E+10	1	-1E+10	1	-1E+10	1	-1E+10	1	-1E+10	1
4901784	228	C	10/01/2021	10:45	-136.585	43.165	0	1744.70	0	2.2140	0	38.4020	8	30.692	0	1723.628	0	39.1	4	12.2	4	-1E+10	1	-1E+10	1	-1E+10	1	-1E+10	1	-1E+10	1	-1E+10	1
4901784	228	C	10/01/2021	10:45	-136.585	43.165	0	1749.70	0	2.2100	0	38.4030	8	30.693	0	1728.547	0	39.4	4	12.3	4	-1E+10	1	-1E+10	1	-1E+10	1	-1E+10	1	-1E+10	1	-1E+10	1
4901784	228	C	10/01/2021	10:45	-136.585	43.165	0	1754.70	0	2.1980	0	38.4050	8	30.696	0	1733.467	0	39.6	4	12.4	4	-1E+10	1	-1E+10	1	-1E+10	1	-1E+10	1	-1E+10	1	-1E+10	1
4901784	228	C	10/01/2021	10:45	-136.585	43.165	0	1759.70	0	2.1880	0	38.4060	8	30.698	0	1738.386	0	39.8	4	12.4	4	-1E+10	1	-1E+10	1	-1E+10	1	-1E+10	1	-1E+10	1	-1E+10	1
4901784	228	C	10/01/2021	10:45	-136.585	43.165	0	1764.70	0	2.1840	0	38.4070	8	30.699	0	1743.304	0	39.9	4	12.5	4	-1E+10	1	-1E+10	1	-1E+10	1	-1E+10	1	-1E+10	1	-1E+10	1
4901784	228	C	10/01/2021	10:45	-136.585	43.165	0	1769.80	0	2.1760	0	38.4090	8	30.701	0	1748.322	0	40.2	4	12.5	4	-1E+10	1	-1E+10	1	-1E+10	1	-1E+10	1	-1E+10	1	-1E+10	1
4901784	228	C	10/01/2021	10:45	-136.585	43.165	0	1774.90	0	2.1700	0	38.4100	8	30.703	0	1753.339	0	40.3	4	12.6	4	-1E+10	1	-1E+10	1	-1E+10	1	-1E+10	1	-1E+10	1	-1E+10	1
4901784	228	C	10/01/2021	10:45	-136.585	43.165	0	1780.00	0	2.1650	0	38.4110	8	30.704	0	1758.356	0	40.5	4	12.6	4	-1E+10	1	-1E+10	1	-1E+10	1	-1E+10	1	-1E+10	1	-1E+10	1
4901784	228	C	10/01/2021	10:45	-136.585	43.165	0	1785.10	0	2.1600	0	38.4120	8	30.705	0	1763.373	0	40.7	4	12.7	4	-1E+10	1	-1E+10	1	-1E+10	1	-1E+10	1	-1E+10	1	-1E+10	1
4901784	228	C	10/01/2021	10:45	-136.585	43.165	0	1790.30	0	2.1540	0	38.4130	8	30.707	0	1768.488	0	41.0	4	12.8	4	-1E+10	1	-1E+10	1	-1E+10	1	-1E+10	1	-1E+10	1	-1E+10	1
4901784	228	C	10/01/2021	10:45	-136.585	43.165	0	1795.50	0	2.1490	0	38.4140	8	30.708	0	1773.603	0	41.3	4	12.9	4	-1E+10	1	-1E+10	1	-1E+10	1	-1E+10	1	-1E+10	1	-1E+10	1
4901784	228	C	10/01/2021	10:45	-136.585	43.165	0	1800.70	0	2.1430	0	38.4160	8	30.710	0	1778.717	0	41.6	4	12.9	4	-1E+10	1	-1E+10	1	-1E+10	1	-1E+10	1	-1E+10	1	-1E+10	1
4901784	228	C	10/01/2021	10:45	-136.585	43.165	0	1805.00	0	2.1380	0	38.4170	8	30.711	0	1782.947	0	41.8	4	13.0	4	-1E+10	1	-1E+10	1	-1E+10	1	-1E+10	1	-1E+10	1	-1E+10	1
4901784	228	C	10/01/2021	10:45	-136.585	43.165	0	1809.30	0	2.1340	0	38.4180	8	30.713	0	1787.176	0	42.1	4	13.1	4	-1E+10	1	-1E+10	1	-1E+10	1	-1E+10	1	-1E+10	1	-1E+10	1
4901784	228	C	10/01/2021	10:45	-136.585	43.165	0	1814.60	0	2.1320	0	38.4180	8	30.713	0	1792.389	0	42.3	4	13.2	4	-1E+10	1	-1E+10	1	-1E+10	1	-1E+10	1	-1E+10	1	-1E+10	1
4901784	228	C	10/01/2021	10:45	-136.585	43.165	0	1819.90	0	2.1280	0	38.4190	8	30.714	0	1797.602	0	42.5	4	13.2	4	-1E+10	1	-1E+10	1	-1E+10	1	-1E+10	1	-1E+10	1	-1E+10	1
4901784	228	C	10/01/2021	10:45	-136.585	43.165	0	1825.30	0	2.1230	0	38.4210	8	30.716	0	1802.913	0	42.8	4	13.3	4	-1E+10	1	-1E+10	1	-1E+10	1	-1E+10	1	-1E+10	1	-1E+10	1
4901784	228	C	10/01/2021	10:45	-136.585	43.165	0	1830.60	0	2.1190	0	38.4210	8	30.716	0	1808.125	0	43.3	4	13.5	4	-1E+10	1	-1E+10	1	-1E+10	1	-1E+10	1	-1E+10	1	-1E+10	1
4901784	228	C	10/01/2021	10:45	-136.585	43.165	0	1835.10	0	2.1140	0	38.4230	8	30.719	0	1812.551	0	43.7	4	13.6	4	-1E+10	1	-1E+10	1	-1E+10	1	-1E+10	1	-1E+10	1	-1E+10	1
4901784	228	C	10/01/2021	10:45	-136.585	43.165	0	1839.60	0	2.1110	0	38.4230	8	30.719	0	1816.976	0	44.0	4	13.7	4	-1E+10	1	-1E+10	1	-1E+10	1	-1E+10	1	-1E+10	1	-1E+10	1
4901784	228	C	10/01/2021	10:45	-136.585	43.165	0	1845.00	0	2.1060	0	38.4250	8	30.721	0	1822.287	0	44.4	4	13.8	4	-1E+10	1	-1E+10	1	-1E+10	1	-1E+10	1	-1E+10	1	-1E+10	1
4901784	228	C	10/01/2021	10:45	-136.585	43.165	0	1850.50	0	2.1020	0	38.4260	8	30.722	0	1827.695	0	44.8	4	13.9	4	-1E+10	1	-1E+10	1	-1E+10	1	-1E+10	1	-1E+10	1	-1E+10	1
4901784	228	C	10/01/2021	10:45	-136.585	43.165	0	1855.10	0	2.0980	0	38.4270	8	30.723	0	1832.219	0	45.1	4	14.0	4	-1E+10	1	-1E+10	1	-1E+10	1	-1E+10	1	-1E+10	1	-1E+10	1
4901784	228	C	10/01/2021	10:45	-136.585	43.165	0	1859.60	0	2.0950	0	38.4280	8	30.724	0	1836.644	0	45.3	4	14.1	4	-1E+10	1	-1E+10	1	-1E+10	1	-1E+10	1	-1E+10	1	-1E+10	1
4901784	228	C	10/01/2021	10:45	-136.585	43.165	0	1865.20	0	2.0910	0	38.4280	8	30.725	0	1842.151	0	45.7	4	14.2	4	-1E+10	1	-1E+10	1	-1E+10	1	-1E+10	1	-1E+10	1	-1E+10	1
4901784	228	C	10/01/2021	10:45	-136.585	43.165	0	1870.60	0	2.0840	0	38.4300	8	30.727	0	1847.460	0	46.2	4	14.4	4	-1E+10	1	-1E+10	1	-1E+10	1	-1E+10	1	-1E+10	1	-1E+10	1
4901784	228	C	10/01/2021	10:45	-136.585	43.165	0	1875.80	0	2.0770	0	38.4310	8	30.729	0	1852.574	0	46.6	4	14.5	4	-1E+10	1	-1E+10	1	-1E+10	1	-1E+10	1	-1E+10	1	-1E+10	1
4901784	228	C	10/01/2021	10:45	-136.585	43.165	0	1880.10	0	2.0720	0	38.4330	8	30.731	0	1856.801	0	46.8	4	14.6	4	-1E+10	1	-1E+10	1	-1E+10	1	-1E+10	1	-1E+10	1	-1E+10	1
4901784	228	C	10/01/2021	10:45	-136.585	43.165	0	1885.10	0	2.0700	0	38.4330	8	30.731	0	1861.718	0	47.0	4	14.6	4	-1E+10	1	-1E+10	1	-1E+10	1	-1E+10	1	-1E+10	1	-1E+10	1
4901784	228	C	10/01/2021	10:45	-136.585	43.165	0	1889.90	0	2.0640	0	38.4340	8	30.732	0	1866.437	0	47.4	4	14.8	4	-1E+10	1	-1E+10	1	-1E+10	1	-1E+10	1	-1E+10	1	-1E+10	1
4901784	228	C	10/01/2021	10:45	-136.585	43.165	0	1894.80	0	2.0590	0	38.4360	8	30.734	0	1871.255	0	47.8	4	14.9	4	-1E+10	1	-1E+10	1	-1E+10	1	-1E+10	1	-1E+10	1	-1E+10	1
4901784	228	C	10/01/2021	10:45	-136.585	43.165	0	1899.80	0	2.0560	0	38.4360	8	30.735	0	1876.171	0	48.1	4	14.9	4	-1E+10	1	-1E+10	1	-1E+10	1	-1E+10	1	-1E+10	1	-1E+10	1
4901784	228	C	10/01/2021	10:45	-136.585	43.165	0	1904.80	0	2.0520	0	38.4370	8	30.736	0	1881.086	0	48.5	4	15.1	4	-1E+10	1	-1E+10	1	-1E+10	1	-1E+10	1	-1E+10	1	-1E+10	1
4901784	228	C	10/01/2021	10:45	-136.585	43.165	0	1909.70	0	2.0470	0	38.4380	8	30.737	0	1885.903	0	48.9	4	15.2	4	-1E+10	1	-1E+10	1	-1E+10	1	-1E+10	1	-1E+10	1	-1E+10	1
4901784	228	C	10/01/2021	10:45	-136.585	43.165	0	1914.70	0	2.0410	0	38.4400	8	30.739	0	1890.819	0	49.1	4	15.3	4	-1E+10	1	-1E+10	1	-1E+10	1	-1E+10	1	-1E+10	1	-1E+10	1
4901784	228	C	10/01/2021	10:45	-136.585	43.165	0	1919.70	0	2.0350	0	38.4410	8	30.741	0	1895.734	0	49.5	4	15.4	4	-1E+10	1	-1E+10	1	-1E+10	1	-1E+10	1	-1E+10	1	-1E+10	1
4901784	228	C	10/01/2021	10:45	-136.585	43.165	0	1924.80	0	2.0310	0	38.4420	8	30.742	0	1900.748	0	50.0	4	15.5	4	-1E+10	1	-1E+10	1	-1E+10	1	-1E+10	1	-1E+10	1	-1E+10	1
4901784	228	C	10/01/2021	10:45	-136.585	43.165	0	1929.80	0	2.0280	0	38.4420	8	30.742	0	1905.663	0	50.4	4	15.7	4	-1E+10	1	-1E+10	1	-1E+10	1	-1E+10	1	-1E+10	1	-1E+10	1
4901784	228	C	10/01/2021	10:45	-136.585	43.165	0	1934.90	0	2.0230	0	38.4430	8	30.743	0	1910.677	0	50.8	4	15.8	4	-1E+10	1	-1E+10	1	-1E+10	1	-1E+10	1	-1E+10	1	-1E+10	1
4901784	228	C	10/01/2021	10:45	-136.585	43.165	0	1939.90	0	2.0210	0	38.4440	8	30.744	0	1915.591	0	50.9	4	15.8	4	-1E+10	1	-1E+10	1	-1E+10	1	-1E+10	1	-1E+10	1	-1E+10	1
4901784	228	C	10/01/2021	10:45	-136.585	43.165	0	1945.10	0	2.0180	0	38.4450	8	30.746	0	1920.703	0	51.2	4	15.9	4	-1E+10	1	-1E+10	1	-1E+10	1	-1E+10	1	-1E+10	1	-1E+10	1
4901784	228	C	10/01/2021	10:45	-136.585	43.165	0	1950.20	0	2.0130	0	38.4460	8	30.747	0	1925.716	0	51.6	4	16.0	4	-1E+10	1	-1E+10	1	-1E+10	1	-1E+10	1	-1E+10	1	-1E+10	1
4901784	228	C	10/01/2021	10:45	-136.585	43.165	0	1955.40	0	2.0100	0	38.4460	8	30.747	0	1930.827	0	52.0	4	16.1	4	-1E+10	1	-1E+10	1	-1E+10	1	-1E+10	1	-1E+10	1	-1E+10	1
4901784	228	C	10/01/2021	10:45	-136.585	43.165	0	1960.60	0	2.0050	0	38.4470	8	30.748	0	1935.938	0	52.5	4	16.3	4	-1E+10	1	-1E+10	1	-1E+10	1	-1E+10	1	-1E+10	1	-1E+10	1
4901784	228	C	10/01/2021	10:45	-136.585	43.165	0	1964.90	0	2.0020	0	38.4480	8	30.750	0	1940.164	0	52.8	4	16.4	4	-1E+10	1	-1E+10	1	-1E+10	1	-1E+10	1	-1E+10	1	-1E+10	1
4901784	228	C	10/01/2021	10:45	-136.585	43.165	0	1969.30	0	1.9980	0	38.4490	8	30.751	0	1944.489	0	53.2	4	16.5	4	-1E+10	1	-1E+10	1	-1E+10	1	-1E+10	1	-1E+10	1	-1E+10	1
4901784	228	C	10/01/2021	10:45	-136.585	43.165	0	1974.60	0	1.9910	0	38.4500	8	30.752	0	1949.698	0	53.6	4	16.7	4	-1E+10	1	-1E+10	1	-1E+10	1	-1E+10	1	-1E+10	1	-1E+10	1
4901784	228	C	10/01/2021	10:45	-136.585	43.165	0	1979.90	0	1.9870	0	38.4510	8	30.753	0	1954.907	0	53.9	4	16.7	4	-1E+10	1	-1E+10	1	-1E+10	1	-1E+10	1	-1E+10	1	-1E+10	1
4901784	228	C	10/01/2021	10:45	-136.585	43.165	0	1985.30	0	1.9820	0	38.4520	8	30.755	0	1960.214	0	54.2	4	16.8	4	-1E+10	1	-1E+10	1	-1E+10	1	-1E+10	1	-1E+10	1	-1E+10	1
4901784	228	C	10/01/2021	10:45	-136.585	43.165	0	1990.70	0	1.9790	0	38.4530	8	30.756	0	1965.521	0	54.5	4	16.9	4	-1E+10	1	-1E+10	1	-1E+10	1	-1E+10	1	-1E+10	1	-1E+10	1
4901784	228	C	10/01/2021	10:45	-136.585	43.165	0	1995.20	0	1.9760	0	38.4540	8	30.757	0	1969.943	0	54.7	4	17.0	4	-1E+10	1	-1E+10	1	-1E+10	1	-1E+10	1	-1E+10	1	-1E+10	1
4901784	228	C	10/01/2021	10:45	-136.585	43.165	0	2000.00	0	1.9730	0	38.4550	8	30.758	0	1974.660	0	54.9	4	17.1	4	-1E+10	1	-1E+10	1	-1E+10	1	-1E+10	1	-1E+10	1	-1E+10	1
4901784	228	C	10/01/2021	10:45	-136.585	43.165	0	2005.10	0	1.9690	0	38.4550	8	30.758	0	1979.672	0	55.2	4	17.1	4	-1E+10	1	-1E+10	1	-1E+10	1	-1E+10	1	-1E+10	1	-1E+10	1
4901784	228	C	10/01/2021	10:45	-136.585	43.165	0	2010.00	0	1.9670	0	38.4560	8	30.759	0	1984.487	0	55.4	4	17.2	4	-1E+10	1	-1E+10	1	-1E+10	1	-1E+10	1	-1E+10	1	-1E+10	1
4901784	228	C	10/01/2021	10:45	-136.585	43.165	0	2014.90	0	1.9640	0	38.4570	8	30.760	0	1989.302	0	55.6	4	17.2	4	-1E+10	1	-1E+10	1	-1E+10	1	-1E+10	1	-1E+10	1	-1E+10	1
4901784	228	C	10/01/2021	10:45	-136.585	43.165	0	2020.10	0	1.9610	0	38.4580	8	30.762	0	1994.411	0	55.7	4	17.3	4	-1E+10	1	-1E+10	1	-1E+10	1	-1E+10	1	-1E+10	1	-1E+10	1
4901784	228	C	10/01/2021	10:45	-136.585	43.165	0																										
4901784	229	C	10/11/2021	10:49	-136.550	43.203	0	3.00	0	16.9840	0	36.1120	8	26.373	0	2.976	0	228.5	4	96.6	4	-1E+10	1	-1E+10	1	-1E+10	1	-1E+10	1	-1E+10	1	-1E+10	1
4901784	229	C	10/11/2021	10:49	-136.550	43.203	0	4.40	0	16.9930	0	36.1100	8	26.369	0	4.365	0	228.4	4	96.5	4	-1E+10	1	-1E+10	1	-1E+10	1	-1E+10	1	-1E+10	1	-1E+10	1
4901784	229	C	10/11/2021	10:49	-136.550	43.203	0	6.20	0	16.9890	0	36.1160	8	26.375	0	6.151	0	228.2	4	96.4	4	-1E+10	1	-1E+10	1	-1E+10	1	-1E+10	1	-1E+10	1	-1E+10	1
4901784	229	C	10/11/2021	10:49	-136.550	43.203	0	8.40	0	17.0040	0	36.1150	8	26.371	0	8.333	0	228.1	4	96.4	4	-1E+10	1	-1E+10	1	-1E+10	1	-1E+10	1	-1E+10	1	-1E+10	1
4901784	229	C	10/11/2021	10:49	-136.550	43.203	0	8.80	0	17.0030	0	36.1150	8	26.371	0	8.730	0	228.0	4	96.4	4	-1E+10	1	-1E+10	1	-1E+10	1	-1E+10	1	-1E+10	1	-1E+10	1
4901784	229	C	10/11/2021	10:49	-136.550	43.203	0	10.50	0	17.0010	0	36.1170	8	26.373	0	10.416	0	227.9	4	96.3	4	-1E+10	1	-1E+10	1	-1E+10	1	-1E+10	1	-1E+10	1	-1E+10	1
4901784	229	C	10/11/2021	10:49	-136.550	43.203	0	12.10	0	17.0030	0	36.1170	8	26.373	0	12.003	0	227.8	4	96.3	4	-1E+10	1	-1E+10	1	-1E+10	1	-1E+10	1	-1E+10	1	-1E+10	1
4901784	229	C	10/11/2021	10:49	-136.550	43.203	0	13.80	0	17.0010	0	36.1190	8	26.375	0	13.690	0	227.6	4	96.2	4	-1E+10	1	-1E+10	1	-1E+10	1	-1E+10	1	-1E+10	1	-1E+10	1
4901784	229	C	10/11/2021	10:49	-136.550	43.203	0	15.40	0	17.0000	0	36.1190	8	26.375	0	15.277	0	227.7	4	96.2	4	-1E+10	1	-1E+10	1	-1E+10	1	-1E+10	1	-1E+10	1	-1E+10	1
4901784	229	C	10/11/2021	10:49	-136.550	43.203	0	16.90	0	17.0000	0	36.1200	8	26.376	0	16.765	0	227.6	4	96.2	4	-1E+10	1	-1E+10	1	-1E+10	1	-1E+10	1	-1E+10	1	-1E+10	1
4901784	229	C	10/11/2021	10:49	-136.550	43.203	0	18.60	0	17.0010	0	36.1210	8	26.377	0	18.451	0	227.4	4	96.1	4	-1E+10	1	-1E+10	1	-1E+10	1	-1E+10	1	-1E+10	1	-1E+10	1
4901784	229	C	10/11/2021	10:49	-136.550	43.203	0	20.10	0	17.0010	0	36.1210	8	26.377	0	19.939	0	227.4	4	96.1	4	-1E+10	1	-1E+10	1	-1E+10	1	-1E+10	1	-1E+10	1	-1E+10	1
4901784	229	C	10/11/2021	10:49	-136.550	43.203	0	21.80	0	17.0000	0	36.1200	8	26.376	0	21.625	0	227.4	4	96.1	4	-1E+10	1	-1E+10	1	-1E+10	1	-1E+10	1	-1E+10	1	-1E+10	1
4901784	229	C	10/11/2021	10:49	-136.550	43.203	0	23.40	0	17.0020	0	36.1200	8	26.376	0	23.213	0	227.3	4	96.1	4	-1E+10	1	-1E+10	1	-1E+10	1	-1E+10	1	-1E+10	1	-1E+10	1
4901784	229	C	10/11/2021	10:49	-136.550	43.203	0	25.00	0	17.0010	0	36.1180	8	26.374	0	24.800	0	227.7	4	96.3	4	-1E+10	1	-1E+10	1	-1E+10	1	-1E+10	1	-1E+10	1	-1E+10	1
4901784	229	C	10/11/2021	10:49	-136.550	43.203	0	26.60	0	17.0020	0	36.1130	8	26.370	0	26.387	0	228.1	4	96.4	4	-1E+10	1	-1E+10	1	-1E+10	1	-1E+10	1	-1E+10	1	-1E+10	1
4901784	229	C	10/11/2021	10:49	-136.550	43.203	0	28.40	0	17.0020	0	36.1050	8	26.364	0	28.172	0	228.9	4	96.7	4	-1E+10	1	-1E+10	1	-1E+10	1	-1E+10	1	-1E+10	1	-1E+10	1
4901784	229	C	10/11/2021	10:49	-136.550	43.203	0	28.80	0	17.0020	0	36.1020	8	26.362	0	28.569	0	229.5	4	97.0	4	-1E+10	1	-1E+10	1	-1E+10	1	-1E+10	1	-1E+10	1	-1E+10	1
4901784	229	C	10/11/2021	10:49	-136.550	43.203	0	30.10	0	16.9720	0	36.0920	8	26.362	0	29.858	0	230.9	4	97.5	4	-1E+10	1	-1E+10	1	-1E+10	1	-1E+10	1	-1E+10	1	-1E+10	1
4901784	229	C	10/11/2021	10:49	-136.550	43.203	0	31.20	0	16.9830	0	36.0720	8	26.344	0	30.950	0	233.0	4	98.4	4	-1E+10	1	-1E+10	1	-1E+10	1	-1E+10	1	-1E+10	1	-1E+10	1
4901784	229	C	10/11/2021	10:49	-136.550	43.203	0	32.20	0	16.9620	0	36.0410	8	26.325	0	31.941	0	236.0	4	99.6	4	-1E+10	1	-1E+10	1	-1E+10	1	-1E+10	1	-1E+10	1	-1E+10	1
4901784	229	C	10/11/2021	10:49	-136.550	43.203	0	33.40	0	16.9030	0	36.0000	8	26.308	0	33.132	0	240.4	4	101.4	4	-1E+10	1	-1E+10	1	-1E+10	1	-1E+10	1	-1E+10	1	-1E+10	1
4901784	229	C	10/11/2021	10:49	-136.550	43.203	0	34.60	0	16.2920	0	35.9640	8	26.424	0	34.322	0	247.5	4	103.1	4	-1E+10	1	-1E+10	1	-1E+10	1	-1E+10	1	-1E+10	1	-1E+10	1
4901784	229	C	10/11/2021	10:49	-136.550	43.203	0	35.90	0	14.8300	0	35.9960	8	26.780	0	35.611	0	257.9	4	104.4	4	-1E+10	1	-1E+10	1	-1E+10	1	-1E+10	1	-1E+10	1	-1E+10	1
4901784	229	C	10/11/2021	10:49	-136.550	43.203	0	37.40	0	13.6930	0	36.0280	8	27.049	0	37.099	0	264.6	4	104.8	4	-1E+10	1	-1E+10	1	-1E+10	1	-1E+10	1	-1E+10	1	-1E+10	1
4901784	229	C	10/11/2021	10:49	-136.550	43.203	0	38.90	0	13.1930	0	36.0670	8	27.182	0	38.587	0	266.0	4	104.3	4	-1E+10	1	-1E+10	1	-1E+10	1	-1E+10	1	-1E+10	1	-1E+10	1
4901784	229	C	10/11/2021	10:49	-136.550	43.203	0	40.60	0	12.7950	0	36.0900	8	27.281	0	40.273	0	266.6	4	103.7	4	-1E+10	1	-1E+10	1	-1E+10	1	-1E+10	1	-1E+10	1	-1E+10	1
4901784	229	C	10/11/2021	10:49	-136.550	43.203	0	42.20	0	12.7010	0	36.1080	8	27.314	0	41.860	0	264.8	4	102.9	4	-1E+10	1	-1E+10	1	-1E+10	1	-1E+10	1	-1E+10	1	-1E+10	1
4901784	229	C	10/11/2021	10:49	-136.550	43.203	0	43.80	0	12.6450	0	36.1620	8	27.367	0	43.447	0	262.0	4	101.7	4	-1E+10	1	-1E+10	1	-1E+10	1	-1E+10	1	-1E+10	1	-1E+10	1
4901784	229	C	10/11/2021	10:49	-136.550	43.203	0	45.40	0	12.6730	0	36.1680	8	27.366	0	45.034	0	258.8	4	100.5	4	-1E+10	1	-1E+10	1	-1E+10	1	-1E+10	1	-1E+10	1	-1E+10	1
4901784	229	C	10/11/2021	10:49	-136.550	43.203	0	47.00	0	12.3090	0	36.2160	8	27.476	0	46.621	0	255.9	4	98.7	4	-1E+10	1	-1E+10	1	-1E+10	1	-1E+10	1	-1E+10	1	-1E+10	1
4901784	229	C	10/11/2021	10:49	-136.550	43.203	0	48.80	0	12.1730	0	36.2240	8	27.508	0	48.406	0	254.9	4	98.0	4	-1E+10	1	-1E+10	1	-1E+10	1	-1E+10	1	-1E+10	1	-1E+10	1
4901784	229	C	10/11/2021	10:49	-136.550	43.203	0	50.50	0	12.0190	0	36.2280	8	27.542	0	50.092	0	253.6	4	97.2	4	-1E+10	1	-1E+10	1	-1E+10	1	-1E+10	1	-1E+10	1	-1E+10	1
4901784	229	C	10/11/2021	10:49	-136.550	43.203	0	52.20	0	11.8830	0	36.2270	8	27.567	0	51.778	0	252.2	4	96.4	4	-1E+10	1	-1E+10	1	-1E+10	1	-1E+10	1	-1E+10	1	-1E+10	1
4901784	229	C	10/11/2021	10:49	-136.550	43.203	0	54.00	0	11.7600	0	36.2220	8	27.587	0	53.564	0	250.9	4	95.7	4	-1E+10	1	-1E+10	1	-1E+10	1	-1E+10	1	-1E+10	1	-1E+10	1
4901784	229	C	10/11/2021	10:49	-136.550	43.203	0	55.80	0	11.7310	0	36.2120	8	27.585	0	55.349	0	249.4	4	95.0	4	-1E+10	1	-1E+10	1	-1E+10	1	-1E+10	1	-1E+10	1	-1E+10	1
4901784	229	C	10/11/2021	10:49	-136.550	43.203	0	57.50	0	11.6040	0	36.2030	8	27.602	0	57.035	0	248.0	4	94.2	4	-1E+10	1	-1E+10	1	-1E+10	1	-1E+10	1	-1E+10	1	-1E+10	1
4901784	229	C	10/11/2021	10:49	-136.550	43.203	0	59.30	0	11.4680	0	36.1910	8	27.618	0	58.820	0	246.5	4	93.4	4	-1E+10	1	-1E+10	1	-1E+10	1	-1E+10	1	-1E+10	1	-1E+10	1
4901784	229	C	10/11/2021	10:49	-136.550	43.203	0	61.10	0	11.4170	0	36.1970	8	27.633	0	60.605	0	244.5	4	92.5	4	-1E+10	1	-1E+10	1	-1E+10	1	-1E+10	1	-1E+10	1	-1E+10	1
4901784	229	C	10/11/2021	10:49	-136.550	43.203	0	62.90	0	11.2080	0	36.1970	8	27.672	0	62.390	0	243.1	4	91.6	4	-1E+10	1	-1E+10	1	-1E+10	1	-1E+10	1	-1E+10	1	-1E+10	1
4901784	229	C	10/11/2021	10:49	-136.550	43.203	0	64.70	0	11.0600	0	36.1840	8	27.689	0	64.175	0	243.0	4	91.3	4	-1E+10	1	-1E+10	1	-1E+10	1	-1E+10	1	-1E+10	1	-1E+10	1
4901784	229	C	10/11/2021	10:49	-136.550	43.203	0	66.40	0	10.9550	0	36.1990	8	27.720	0	65.861	0	242.9	4	91.0	4	-1E+10	1	-1E+10	1	-1E+10	1	-1E+10	1	-1E+10	1	-1E+10	1
4901784	229	C	10/11/2021	10:49	-136.550	43.203	0	68.30	0	10.9170	0	36.2060	8	27.733	0	67.746	0	243.0	4	91.0	4	-1E+10	1	-1E+10	1	-1E+10	1	-1E+10	1	-1E+10	1	-1E+10	1
4901784	229	C	10/11/2021	10:49	-136.550	43.203	0	70.10	0	10.8660	0	36.2100	8	27.745	0	69.531	0	242.9	4	90.9	4	-1E+10	1	-1E+10	1	-1E+10	1	-1E+10	1	-1E+10	1	-1E+10	1
4901784	229	C	10/11/2021	10:49	-136.550	43.203	0	71.90	0	10.7810	0	36.2050	8	27.757	0	71.316	0	242.8	4	90.7	4	-1E+10	1	-1E+10	1	-1E+10	1	-1E+10	1	-1E+10	1	-1E+10	1
4901784	229	C	10/11/2021	10:49	-136.550	43.203	0	73.70	0	10.6880	0	36.2120	8	27.779	0	73.101	0	242.6	4	90.4	4	-1E+10	1	-1E+10	1	-1E+10	1	-1E+10	1	-1E+10	1	-1E+10	1
4901784	229	C	10/11/2021	10:49	-136.550	43.203	0	75.60	0	10.6330	0	36.2110	8	27.788	0	74.985	0	242.8	4	90.4	4	-1E+10	1	-1E+10	1	-1E+10	1	-1E+10	1	-1E+10	1	-1E+10	1
4901784	229	C	10/11/2021	10:49	-136.550	43.203	0	77.40	0	10.5980	0	36.2080	8	27.792	0	76.770	0	242.5	4	90.2	4	-1E+10	1	-1E+10	1	-1E+10	1	-1E+10	1	-1E+10	1	-1E+10	1
4901784	229	C	10/11/2021	10:49	-136.550	43.203	0	79.20	0	10.5540	0	36.2040	8	27.797	0	78.555	0	242.4	4	90.1	4	-1E+10	1	-1E+10	1	-1E+10	1	-1E+10	1	-1E+10	1	-1E+10	1
4901784	229	C	10/11/2021	10:49	-136.550	43.203	0	81.00	0	10.4970	0	36.2030	8	27.806	0	80.340	0	242.4	4	90.0	4	-1E+10	1	-1E+10	1	-1E+10	1	-1E+10	1	-1E+10	1	-1E+10	1
4901784	229	C	10/11/2021	10:49	-136.550	43.203	0	82.90	0	10.4270	0	36.1980	8	27.815	0	82.224	0	242.5	4	89.9	4	-1E+10	1	-1E+10	1	-1E+10	1	-1E+10	1	-1E+10	1	-1E+10	1
4901784	229	C	10/11/2021	10:49	-136.550	43.203	0	84.80	0	10.3040	0	36.1980	8	27.837	0	84.108	0	243.0	4	89.9	4	-1E+10	1	-1E+10	1	-1E+10	1	-1E+10	1	-1E+10	1	-1E+10	1
4901784	229	C	10/11/2021	10:49	-136.550	43.203	0	86.60	0	10.2630	0	36.1980	8	27.844	0	85.893	0	243.1	4	89.8	4	-1E+10	1	-1E+10	1	-1E+10	1	-1E+10	1	-1E+10	1	-1E+10	1
4901784	229	C	10/11/2021	10:49	-136.550	43.203	0	88.40	0	10.1620	0	36.1950	8	27.860	0	87.678	0	243.5	4	89.7	4	-1E+10	1	-1E+10	1	-1E+10	1	-1E+10	1	-1E+10	1	-1E+10	1
4901784	229	C	10/11/2021	10:49	-136.550	43.203	0	90.20	0	10.0810	0	36.1880	8	27.868	0	89.463	0	244.0	4	89.8	4	-1E+10	1	-1E+10	1	-1E+10	1	-1E+10	1	-1E+10	1	-1E+10	1
4901784	229	C	10/11/2021	10:49	-136.550	43.203	0	92.10	0	9.9590	0	36.1930	8	27.893	0	91.347	0	244.9	4	89.9	4	-1E+10	1	-1E+10	1	-1E+10	1	-1E+10	1	-1E+10	1	-1E+10	1
4901784	229	C	10/11/2021	10:49	-136.550	43.203	0	93.90	0	9.8880	0	36.1990	8	27.910	0	93.132	0	245.0	4	89.8	4	-1E+10	1	-1E+10	1	-1E+10	1	-1E+10	1	-1E+10	1	-1E+10	1
4901784	229	C	10/11/2021	10:49	-136.550	43.203	0	95.70	0	9.9210	0	36.2010	8	27.906	0	94.917	0	243.6	4	89.3	4	-1E+10	1	-1E+10	1	-1E+10	1	-1E+10	1	-1E+10	1	-1E+10	1
4901784	229	C	10/11/2021	10:49	-136.550	43.203	0	97.60	0	9.8690	0	36.2020	8	27.916	0	96.801	0	241.8	4	88.6	4	-1E+10	1	-1E+10	1	-1E+10	1	-1E+10	1	-1E+10	1	-1E+10	1
4901784	229	C	10/11/2021	10:49	-136.550	43.203	0	99.90	0	9.7950	0	36.2270	8	27.949	0	99.082	0	239.9	4	87.7	4	-1E+10	1	-1E+10	1	-1E+10	1	-1E+10	1	-1E+10	1	-1E+10	1
4901784	229	C	10/11/2021	10:49	-136.550	43.203	0	102.50	0	9.7780	0	36.2450	8	27.966	0	101.660	0	239.4	4	87.5	4	-1E+10	1	-1E+10	1	-1E+10	1	-1E+10	1	-1E+10	1	-1E+10	1
4901784	229	C	10/11/2021	10:49	-136.550	43.203	0	104.80	0	9.7800	0	36.2420	8	27.963	0	103.940	0	239.2	4	87.5	4	-1E+10	1	-1E+10	1	-1E+10	1	-1E+10	1	-1E+10	1	-1E+10	1
4901784	229	C	10/11/2021	10:49	-136.550	43.203	0	107.10	0	9.6260	0	36.2280	8	27.978	0	106.221	0	239.7	4	87.4	4	-1E+10	1	-1E+10	1	-1E+10	1	-1E+10	1	-1E+10	1	-1E+10	1
4901784	229	C	10/11/2021	10:49	-136.550	43.203	0	110.10	0	9.2610	0	36.2290	8	28.040	0	109.195	0	240.3	4	86.9	4	-1E+10	1	-1E+10	1	-1E+10	1	-1E+10	1	-1E+10	1	-1E+10	1
4901784	229	C	10/11/2021	10:49	-136.550	43.203	0	112.40	0	9.1420	0	36.2540	8	28.080	0	111.476	0	238.9	4	86.2	4	-1E+10	1	-1E+10	1	-1E+10	1	-1E+10	1	-1E+10	1	-1E+10	1
4901784	229	C	10/11/2021	10:49	-136.550	43.203	0	114.80	0	9.2500	0	36.2890	8	28.089	0	113.855	0	236.1	4	85.4	4	-1E+10	1	-1E+10	1	-1E+10	1	-1E+10	1	-1E+10	1	-1E+10	1
4901784	229	C	10/11/2021	10:49	-136.550	43.203	0	117.20	0	9.3010	0	36.3280	8	28.111	0	116.235	0	233.2	4	84.4	4	-1E+10	1	-1E+10	1	-1E+10	1	-1E+10	1	-1E+10	1	-1E+10	1
4901784	229	C	10/11/2021	10:49	-136.550	43.203	0	119.70	0	9.2700	0	36.3520	8	28.135	0	118.714	0	230.9	4	83.6	4	-1E+10	1	-1E+10	1	-1E+10	1	-1E+10	1	-1E+10	1	-1E+10	1
4901784	229	C	10/11/2021	10:49	-136.550	43.203	0	122.30	0	9.2990	0	36.4010	8	28.169	0	121.291	0	227.9	4	82.6	4	-1E+10	1	-1E+10	1	-1E+10	1	-1E+10	1	-1E+10	1	-1E+10	1
4901784	229	C	10/11/2021	10:49	-136.550	43.203	0	124.80	0	9.2340	0	36.4420	8	28.212	0	123.770	0	226.0	4	81.8	4	-1E+10	1	-1E+10	1	-1E+10	1	-1E+10	1	-1E+10	1	-1E+10	1
4901784	229	C	10/11/2021	10:49	-136.550	43.203	0	127.30	0	9.1700	0	36.4900	8	28.260	0	126.249	0	224.1	4	81.0	4	-1E+10	1	-1E+10	1	-1E+10	1	-1E+10	1	-1E+10	1	-1E+10	1
4901784	229	C	10/11/2021	10:49	-136.550	43.203	0	129.60	0	9.2730	0	36.5360	8	28.279	0	128.529	0	221.8	4	80.4	4	-1E+10	1	-1E+10	1	-1E+10	1	-1E+10	1	-1E+10	1	-1E+10	1
4901784	229	C	10/11/2021	10:49	-136.550	43.203	0	132.00	0	9.2860	0	36.5580	8	28.294	0	130.908	0	219.8	4	79.7	4	-1E+10	1	-1E+10	1	-1E+10	1	-1E+10	1	-1E+10	1	-1E+10	1
4901784	229	C	10/11/2021	10:49	-136.550	43.203	0	134.80	0	9.2950	0	36.5870	8	28.316	0	133.684	0	216.8	4	78.6	4	-1E+10	1	-1E+10	1	-1E+10	1	-1E+10	1	-1E+10	1	-1E+10	1
4901784	229	C	10/11/2021	10:49	-136.550	43.203	0	137.70	0	9.3060	0	36.6270	8	28.345	0	136.559	0	212.5	4	77.1	4	-1E+10	1	-1E+10	1	-1E+10	1	-1E+10	1	-1E+10	1	-1E+10	1
4901784	229	C	10/11/2021	10:49	-136.550	43.203	0	140.00	0	9.3920	0	36.7080	8	28.394	0	138.839	0	208.4	4	75.8	4	-1E+10	1	-1E+10	1	-1E+10	1	-1E+10	1	-1E+10	1	-1E+10	1
4901784	229	C	10/11/2021	10:49	-136.550	43.203	0	142.60	0	9.3290	0	36.7670	8	28.451	0	141.417	0	206.0	4	74.9	4	-1E+10	1	-1E+10	1	-1E+10	1	-1E+10	1	-1E+10	1	-1E+10	1
4901784	229	C	10/11/2021	10:49	-136.550	43.203	0	145.00	0	9.3000	0	36.7950	8	28.478	0	143.796	0	203.4	4	73.9	4	-1E+10	1	-1E+10	1	-1E+10	1	-1E+10	1	-1E+10	1	-1E+10	1
4901784	229	C	10/11/2021	10:49	-136.550	43.203	0	147.50	0	9.2410	0	36.8590	8	28.538	0	146.275	0	201.1	4	73.0	4	-1E+10	1	-1E+10	1	-1E+10	1	-1E+10	1	-1E+10	1	-1E+10	1
4901784	229	C	10/11/2021	10:49	-136.550	43.203	0	150.10	0	9.2150	0	36.8920	8	28.568	0	148.852	0	199.0	4	72.2	4	-1E+10	1	-1E+10	1	-1E+10	1	-1E+10	1	-1E+10	1	-1E+10	1
4901784	229	C	10/11/2021	10:49	-136.550	43.203	0	152.60	0	9.1340	0	36.9530	8	28.630	0	151.330	0	197.2	4	71.5	4	-1E+10	1	-1E+10	1	-1E+10	1	-1E+10	1	-1E+10	1	-1E+10	1
4901784	229	C	10/11/2021	10:49	-136.550	43.203	0	155.00	0	9.1150	0	36.9730	8	28.648	0	153.710	0	195.6	4	70.9	4	-1E+10	1	-1E+10	1	-1E+10	1	-1E+10	1	-1E+10	1	-1E+10	1
4901784	229	C	10/11/2021	10:49	-136.550	43.203	0	157.70	0	9.0070	0	37.0190	8	28.702	0	156.386	0	194.3	4	70.3	4	-1E+10	1	-1E+10	1	-1E+10	1	-1E+10	1	-1E+10	1	-1E+10	1
4901784	229	C	10/11/2021	10:49	-136.550	43.203	0	160.30	0	8.8920	0	37.0580	8	28.752	0	158.963	0	193.8	4	69.9	4	-1E+10	1	-1E+10	1	-1E+10	1	-1E+10	1	-1E+10	1	-1E+10	1
4901784	229	C	10/11/2021	10:49	-136.550	43.203	0	162.20	0	8.8730	0	37.0780	8	28.771	0	160.847	0	194.3	4	70.1	4	-1E+10	1	-1E+10	1	-1E+10	1	-1E+10	1	-1E+10	1	-1E+10	1
4901784	229	C	10/11/2021	10:49	-136.550	43.203	0	164.80	0	8.8540	0	37.0960	8	28.788	0	163.424	0	194.4	4	70.1	4	-1E+10	1	-1E+10	1	-1E+10	1	-1E+10	1	-1E+10	1	-1E+10	1
4901784	229	C	10/11/2021	10:49	-136.550	43.203	0	167.60	0	8.8350	0	37.1300	8	28.818	0	166.200	0	193.9	4	69.9	4	-1E+10	1	-1E+10	1	-1E+10	1	-1E+10	1	-1E+10	1	-1E+10	1
4901784	229	C	10/11/2021	10:49	-136.550	43.203	0	169.40	0	8.8250	0	37.1500	8	28.835	0	167.984	0	192.1	4	69.3	4	-1E+10	1	-1E+10	1	-1E+10	1	-1E+10	1	-1E+10	1	-1E+10	1
4901784	229	C	10/11/2021	10:49	-136.550	43.203	0	172.20	0	8.7850	0	37.1890	8	28.873	0	170.759	0	190.3	4	68.6	4	-1E+10	1	-1E+10	1	-1E+10	1	-1E+10	1	-1E+10	1	-1E+10	1
4901784	229	C	10/11/2021	10:49	-136.550	43.203	0	175.00	0	8.7450	0	37.2170	8	28.901	0	173.535	0	188.2	4	67.8	4	-1E+10	1	-1E+10	1	-1E+10	1	-1E+10	1	-1E+10	1	-1E+10	1
4901784	229	C	10/11/2021	10:49	-136.550	43.203	0	177.70	0	8.6300	0	37.2420	8	28.939	0	176.211	0	187.3	4	67.3	4	-1E+10	1	-1E+10	1	-1E+10	1	-1E+10	1	-1E+10	1	-1E+10	1
4901784	229	C	10/11/2021	10:49	-136.550	43.203	0	180.70	0	8.5380	0	37.2680	8	28.975	0	179.184	0	187.0	4	67.0	4	-1E+10	1	-1E+10	1	-1E+10	1	-1E+10	1	-1E+10	1	-1E+10	1
4901784	229	C	10/11/2021	10:49	-136.550	43.203	0	182.60	0	8.6210	0	37.2910	8	28.979	0	181.068	0	186.6	4	67.1	4	-1E+10	1	-1E+10	1	-1E+10	1	-1E+10	1	-1E+10	1	-1E+10	1
4901784	229	C	10/11/2021	10:49	-136.550	43.203	0	184.50	0	8.5450	0	37.3020	8	29.000	0	182.951	0	186.4	4	66.9	4	-1E+10	1	-1E+10	1	-1E+10	1	-1E+10	1	-1E+10	1	-1E+10	1
4901784	229	C	10/11/2021	10:49	-136.550	43.203	0	187.30	0	8.5360	0	37.3130	8	29.011	0	185.726	0	186.7	4	67.0	4	-1E+10	1	-1E+10	1	-1E+10	1	-1E+10	1	-1E+10	1	-1E+10	1
4901784	229	C	10/11/2021	10:49	-136.550	43.203	0	190.20	0	8.5480	0	37.3380	8	29.028	0	188.600	0	187.1	4	67.1	4	-1E+10	1	-1E+10	1	-1E+10	1	-1E+10	1	-1E+10	1	-1E+10	1
4901784	229	C	10/11/2021	10:49	-136.550	43.203	0	192.60	0	8.5640	0	37.3600	8	29.043	0	190.979	0	187.1	4	67.2	4	-1E+10	1	-1E+10	1	-1E+10	1	-1E+10	1	-1E+10	1	-1E+10	1
4901784	229	C	10/11/2021	10:49	-136.550	43.203	0	195.40	0	8.5500	0	37.3760	8	29.058	0	193.754	0	186.2	4	66.9	4	-1E+10	1	-1E+10	1	-1E+10	1	-1E+10	1	-1E+10	1	-1E+10	1
4901784	229	C	10/11/2021	10:49	-136.550	43.203	0	197.80	0	8.4970	0	37.3790	8	29.069	0	196.133	0	185.7	4	66.6	4	-1E+10	1	-1E+10	1	-1E+10	1	-1E+10	1	-1E+10	1	-1E+10	1
4901784	229	C	10/11/2021	10:49	-136.550	43.203	0	200.20	0	8.4580	0	37.3890	8	29.083	0	198.512	0	184.8	4	66.2	4	-1E+10	1	-1E+10	1	-1E+10	1	-1E+10	1	-1E+10	1	-1E+10	1
4901784	229	C	10/11/2021	10:49	-136.550	43.203	0	202.70	0	8.3870	0	37.3980	8	29.101	0	200.989	0	184.1	4	65.8	4	-1E+10	1	-1E+10	1	-1E+10	1	-1E+10	1	-1E+10	1	-1E+10	1
4901784	229	C	10/11/2021	10:49	-136.550	43.203	0	205.30	0	8.3220	0	37.4010	8	29.114	0	203.566	0	183.6	4	65.6	4	-1E+10	1	-1E+10	1	-1E+10	1	-1E+10	1	-1E+10	1	-1E+10	1
4901784	229	C	10/11/2021	10:49	-136.550	43.203	0	207.80	0	8.2350	0	37.4110	8	29.136	0	206.044	0	183.3	4	65.4	4	-1E+10	1	-1E+10	1	-1E+10	1	-1E+10	1	-1E+10	1	-1E+10	1
4901784	229	C	10/11/2021	10:49	-136.550	43.203	0	210.30	0	8.2060	0	37.4160	8	29.144	0	208.521	0	183.0	4	65.2	4	-1E+10	1	-1E+10	1	-1E+10	1	-1E+10	1	-1E+10	1	-1E+10	1
4901784	229	C	10/11/2021	10:49	-136.550	43.203	0	212.70	0	8.1780	0	37.4190	8	29.151	0	210.900	0	182.4	4	65.0	4	-1E+10	1	-1E+10	1	-1E+10	1	-1E+10	1	-1E+10	1	-1E+10	1
4901784	229	C	10/11/2021	10:49	-136.550	43.203	0	215.30	0	8.1420	0	37.4230	8	29.160	0	213.476	0	182.0	4	64.8	4	-1E+10	1	-1E+10	1	-1E+10	1	-1E+10	1	-1E+10	1	-1E+10	1
4901784	229	C	10/11/2021	10:49	-136.550	43.203	0	217.80	0	8.1100	0	37.4260	8	29.167	0	215.954	0	181.3	4	64.5	4	-1E+10	1	-1E+10	1	-1E+10	1	-1E+10	1	-1E+10	1	-1E+10	1
4901784	229	C	10/11/2021	10:49	-136.550	43.203	0	220.40	0	8.0850	0	37.4280	8	29.173	0	218.531	0	180.4	4	64.1	4	-1E+10	1	-1E+10	1	-1E+10	1	-1E+10	1	-1E+10	1	-1E+10	1
4901784	229	C	10/11/2021	10:49	-136.550	43.203	0	222.90	0	8.0260	0	37.4300	8	29.184	0	221.008	0	179.5	4	63.7	4	-1E+10	1	-1E+10	1	-1E+10	1	-1E+10	1	-1E+10	1	-1E+10	1
4901784	229	C	10/11/2021	10:49	-136.550	43.203	0	224.60	0	8.0210	0	37.4310	8	29.185	0	222.693	0	178.9	4	63.5	4	-1E+10	1	-1E+10	1	-1E+10	1	-1E+10	1	-1E+10	1	-1E+10	1
4901784	229	C	10/11/2021	10:49	-136.550	43.203	0	227.20	0	7.9920	0	37.4330	8	29.192	0	225.269	0	177.9	4	63.1	4	-1E+10	1	-1E+10	1	-1E+10	1	-1E+10	1	-1E+10	1	-1E+10	1
4901784	229	C	10/11/2021	10:49	-136.550	43.203	0	229.80	0	7.9430	0	37.4350	8	29.201	0	227.846	0	177.3	4	62.8	4	-1E+10	1	-1E+10	1	-1E+10	1	-1E+10	1	-1E+10	1	-1E+10	1
4901784	229	C	10/11/2021	10:49	-136.550	43.203	0	232.40	0	7.9160	0	37.4400	8	29.209	0	230.422	0	176.5	4	62.5	4	-1E+10	1	-1E+10	1	-1E+10	1	-1E+10	1	-1E+10	1	-1E+10	1
4901784	229	C	10/11/2021	10:49	-136.550	43.203	0	234.90	0	7.8900	0	37.4430	8	29.215	0	232.899	0	175.5	4	62.1	4	-1E+10	1	-1E+10	1	-1E+10	1	-1E+10	1	-1E+10	1	-1E+10	1
4901784	229	C	10/11/2021	10:49	-136.550	43.203	0	237.60	0	7.8570	0	37.4470	8	29.224	0	235.575	0	174.5	4	61.7	4	-1E+10	1	-1E+10	1	-1E+10	1	-1E+10	1	-1E+10	1	-1E+10	1
4901784	229	C	10/11/2021	10:49	-136.550	43.203	0	240.20	0	7.8260	0	37.4470	8	29.228	0	238.151	0	172.9	4	61.1	4	-1E+10	1	-1E+10	1	-1E+10	1	-1E+10	1	-1E+10	1	-1E+10	1
4901784	229	C	10/11/2021	10:49	-136.550	43.203	0	242.80	0	7.7370	0	37.4500	8	29.244	0	240.727	0	171.7	4	60.6	4	-1E+10	1	-1E+10	1	-1E+10	1	-1E+10	1	-1E+10	1	-1E+10	1
4901784	229	C	10/11/2021	10:49	-136.550	43.203	0	245.40	0	7.7400	0	37.4580	8	29.250	0	243.304	0	170.6	4	60.2	4	-1E+10	1	-1E+10	1	-1E+10	1	-1E+10	1	-1E+10	1	-1E+10	1
4901784	229	C	10/11/2021	10:49	-136.550	43.203	0	247.20	0	7.7540	0	37.4630	8	29.252	0	245.087	0	169.8	4	59.9	4	-1E+10	1	-1E+10	1	-1E+10	1	-1E+10	1	-1E+10	1	-1E+10	1
4901784	229	C	10/11/2021	10:49	-136.550	43.203	0	249.80	0	7.7080	0	37.4650	8	29.261	0	247.664	0	168.7	4	59.5	4	-1E+10	1	-1E+10	1	-1E+10	1	-1E+10	1	-1E+10	1	-1E+10	1
4901784	229	C	10/11/2021	10:49	-136.550	43.203	0	252.40	0	7.6640	0	37.4650	8	29.268	0	250.240	0	167.5	4	59.0	4	-1E+10	1	-1E+10	1	-1E+10	1	-1E+10	1	-1E+10	1	-1E+10	1
4901784	229	C	10/11/2021	10:49	-136.550	43.203	0	255.00	0	7.6280	0	37.4700	8	29.277	0	252.816	0	166.6	4	58.6	4	-1E+10	1	-1E+10	1	-1E+10	1	-1E+10	1	-1E+10	1	-1E+10	1
4901784	229	C	10/11/2021	10:49	-136.550	43.203	0	257.70	0	7.6260	0	37.4730	8	29.280	0	255.491	0	165.4	4	58.2	4	-1E+10	1	-1E+10	1	-1E+10	1	-1E+10	1	-1E+10	1	-1E+10	1
4901784	229	C	10/11/2021	10:49	-136.550	43.203	0	260.30	0	7.5800	0	37.4730	8	29.287	0	258.067	0	164.1	4	57.7	4	-1E+10	1	-1E+10	1	-1E+10	1	-1E+10	1	-1E+10	1	-1E+10	1
4901784	229	C	10/11/2021	10:49	-136.550	43.203	0	263.00	0	7.5460	0	37.4750	8	29.293	0	260.742	0	162.7	4	57.2	4	-1E+10	1	-1E+10	1	-1E+10	1	-1E+10	1	-1E+10	1	-1E+10	1
4901784	229	C	10/11/2021	10:49	-136.550	43.203	0	264.70	0	7.5480	0	37.4770	8	29.295	0	262.427	0	161.7	4	56.8	4	-1E+10	1	-1E+10	1	-1E+10	1	-1E+10	1	-1E+10	1	-1E+10	1
4901784	229	C	10/11/2021	10:49	-136.550	43.203	0	267.40	0	7.5090	0	37.4820	8	29.305	0	265.102	0	160.3	4	56.3	4	-1E+10	1	-1E+10	1	-1E+10	1	-1E+10	1	-1E+10	1	-1E+10	1
4901784	229	C	10/11/2021	10:49	-136.550	43.203	0	270.10	0	7.4470	0	37.4800	8	29.312	0	267.777	0	159.0	4	55.7	4	-1E+10	1	-1E+10	1	-1E+10	1	-1E+10	1	-1E+10	1	-1E+10	1
4901784	229	C	10/11/2021	10:49	-136.550	43.203	0	272.80	0	7.4280	0	37.4830	8	29.318	0	270.452	0	157.5	4	55.2	4	-1E+10	1	-1E+10	1	-1E+10	1	-1E+10	1	-1E+10	1	-1E+10	1
4901784	229	C	10/11/2021	10:49	-136.550	43.203	0	275.50	0	7.3970	0	37.4840	8	29.323	0	273.127	0	156.0	4	54.6	4	-1E+10	1	-1E+10	1	-1E+10	1	-1E+10	1	-1E+10	1	-1E+10	1
4901784	229	C	10/11/2021	10:49	-136.550	43.203	0	277.30	0	7.3340	0	37.4860	8	29.334	0	274.910	0	155.1	4	54.2	4	-1E+10	1	-1E+10	1	-1E+10	1	-1E+10	1	-1E+10	1	-1E+10	1
4901784	229	C	10/11/2021	10:49	-136.550	43.203	0	280.10	0	7.2720	0	37.4910	8	29.347	0	277.684	0	153.9	4	53.7	4	-1E+10	1	-1E+10	1	-1E+10	1	-1E+10	1	-1E+10	1	-1E+10	1
4901784	229	C	10/11/2021	10:49	-136.550	43.203	0	282.90	0	7.2680	0	37.4960	8	29.352	0	280.458	0	152.2	4	53.1	4	-1E+10	1	-1E+10	1	-1E+10	1	-1E+10	1	-1E+10	1	-1E+10	1
4901784	229	C	10/11/2021	10:49	-136.550	43.203	0	284.70	0	7.2570	0	37.4990	8	29.356	0	282.241	0	151.4	4	52.9	4	-1E+10	1	-1E+10	1	-1E+10	1	-1E+10	1	-1E+10	1	-1E+10	1
4901784	229	C	10/11/2021	10:49	-136.550	43.203	0	287.50	0	7.2280	0	37.5000	8	29.361	0	285.015	0	150.4	4	52.5	4	-1E+10	1	-1E+10	1	-1E+10	1	-1E+10	1	-1E+10	1	-1E+10	1
4901784	229	C	10/11/2021	10:49	-136.550	43.203	0	290.30	0	7.1990	0	37.5000	8	29.365	0	287.789	0	149.4	4	52.1	4	-1E+10	1	-1E+10	1	-1E+10	1	-1E+10	1	-1E+10	1	-1E+10	1
4901784	229	C	10/11/2021	10:49	-136.550	43.203	0	292.20	0	7.1720	0	37.4980	8	29.368	0	289.671	0	148.6	4	51.8	4	-1E+10	1	-1E+10	1	-1E+10	1	-1E+10	1	-1E+10	1	-1E+10	1
4901784	229	C	10/11/2021	10:49	-136.550	43.203	0	295.00	0	7.1180	0	37.5030	8	29.380	0	292.445	0	147.3	4	51.3	4	-1E+10	1	-1E+10	1	-1E+10	1	-1E+10	1	-1E+10	1	-1E+10	1
4901784	229	C	10/11/2021	10:49	-136.550	43.203	0	297.80	0	7.0770	0	37.5060	8	29.388	0	295.219	0	146.1	4	50.8	4	-1E+10	1	-1E+10	1	-1E+10	1	-1E+10	1	-1E+10	1	-1E+10	1
4901784	229	C	10/11/2021	10:49	-136.550	43.203	0	299.70	0	7.0530	0	37.5080	8	29.393	0	297.101	0	145.4	4	50.5	4	-1E+10	1	-1E+10	1	-1E+10	1	-1E+10	1	-1E+10	1	-1E+10	1
4901784	229	C	10/11/2021	10:49	-136.550	43.203	0	302.60	0	7.0270	0	37.5100	8	29.398	0	299.974	0	144.4	4	50.2	4	-1E+10	1	-1E+10	1	-1E+10	1	-1E+10	1	-1E+10	1	-1E+10	1
4901784	229	C	10/11/2021	10:49	-136.550	43.203	0	305.40	0	7.0030	0	37.5100	8	29.402	0	302.747	0	143.3	4	49.8	4	-1E+10	1	-1E+10	1	-1E+10	1	-1E+10	1	-1E+10	1	-1E+10	1
4901784	229	C	10/11/2021	10:49	-136.550	43.203	0	307.30	0	6.9690	0	37.5120	8	29.408	0	304.629	0	142.3	4	49.4	4	-1E+10	1	-1E+10	1	-1E+10	1	-1E+10	1	-1E+10	1	-1E+10	1
4901784	229	C	10/11/2021	10:49	-136.550	43.203	0	310.10	0	6.9250	0	37.5160	8	29.418	0	307.403	0	141.2	4	48.9	4	-1E+10	1	-1E+10	1	-1E+10	1	-1E+10	1	-1E+10	1	-1E+10	1
4901784	229	C	10/11/2021	10:49	-136.550	43.203	0	312.90	0	6.8920	0	37.5180	8	29.424	0	310.177	0	140.2	4	48.5	4	-1E+10	1	-1E+10	1	-1E+10	1	-1E+10	1	-1E+10	1	-1E+10	1
4901784	229	C	10/11/2021	10:49	-136.550	43.203	0	314.70	0	6.8830	0	37.5180	8	29.426	0	311.960	0	139.5	4	48.3	4	-1E+10	1	-1E+10	1	-1E+10	1	-1E+10	1	-1E+10	1	-1E+10	1
4901784	229	C	10/11/2021	10:49	-136.550	43.203	0	317.50	0	6.8600	0	37.5170	8	29.428	0	314.733	0	138.3	4	47.8	4	-1E+10	1	-1E+10	1	-1E+10	1	-1E+10	1	-1E+10	1	-1E+10	1
4901784	229	C	10/11/2021	10:49	-136.550	43.203	0	320.30	0	6.8180	0	37.5190	8	29.436	0	317.507	0	136.8	4	47.3	4	-1E+10	1	-1E+10	1	-1E+10	1	-1E+10	1	-1E+10	1	-1E+10	1
4901784	229	C	10/11/2021	10:49	-136.550	43.203	0	322.20	0	6.7870	0	37.5210	8	29.442	0	319.389	0	135.9	4	47.0	4	-1E+10	1	-1E+10	1	-1E+10	1	-1E+10	1	-1E+10	1	-1E+10	1
4901784	229	C	10/11/2021	10:49	-136.550	43.203	0	325.00	0	6.7490	0	37.5230	8	29.449	0	322.162	0	134.7	4	46.5	4	-1E+10	1	-1E+10	1	-1E+10	1	-1E+10	1	-1E+10	1	-1E+10	1
4901784	229	C	10/11/2021	10:49	-136.550	43.203	0	327.80	0	6.7140	0	37.5210	8	29.452	0	324.935	0	133.4	4	46.0	4	-1E+10	1	-1E+10	1	-1E+10	1	-1E+10	1	-1E+10	1	-1E+10	1
4901784	229	C	10/11/2021	10:49	-136.550	43.203	0	329.70	0	6.6710	0	37.5240	8	29.461	0	326.817	0	132.3	4	45.6	4	-1E+10	1	-1E+10	1	-1E+10	1	-1E+10	1	-1E+10	1	-1E+10	1
4901784	229	C	10/11/2021	10:49	-136.550	43.203	0	332.50	0	6.6380	0	37.5230	8	29.465	0	329.590	0	130.7	4	45.0	4	-1E+10	1	-1E+10	1	-1E+10	1	-1E+10	1	-1E+10	1	-1E+10	1
4901784	229	C	10/11/2021	10:49	-136.550	43.203	0	335.40	0	6.5890	0	37.5250	8	29.473	0	332.463	0	129.1	4	44.4	4	-1E+10	1	-1E+10	1	-1E+10	1	-1E+10	1	-1E+10	1	-1E+10	1
4901784	229	C	10/11/2021	10:49	-136.550	43.203	0	337.30	0	6.5530	0	37.5260	8	29.479	0	334.345	0	128.2	4	44.1	4	-1E+10	1	-1E+10	1	-1E+10	1	-1E+10	1	-1E+10	1	-1E+10	1
4901784	229	C	10/11/2021	10:49	-136.550	43.203	0	340.20	0	6.5130	0	37.5280	8	29.486	0	337.217	0	126.2	4	43.3	4	-1E+10	1	-1E+10	1	-1E+10	1	-1E+10	1	-1E+10	1	-1E+10	1
4901784	229	C	10/11/2021	10:49	-136.550	43.203	0	343.20	0	6.4730	0	37.5300	8	29.493	0	340.188	0	124.2	4	42.6	4	-1E+10	1	-1E+10	1	-1E+10	1	-1E+10	1	-1E+10	1	-1E+10	1
4901784	229	C	10/11/2021	10:49	-136.550	43.203	0	345.10	0	6.4460	0	37.5290	8	29.496	0	342.070	0	123.4	4	42.3	4	-1E+10	1	-1E+10	1	-1E+10	1	-1E+10	1	-1E+10	1	-1E+10	1
4901784	229	C	10/11/2021	10:49	-136.550	43.203	0	347.00	0	6.4110	0	37.5280	8	29.501	0	343.952	0	122.5	4	42.0	4	-1E+10	1	-1E+10	1	-1E+10	1	-1E+10	1	-1E+10	1	-1E+10	1
4901784	229	C	10/11/2021	10:49	-136.550	43.203	0	349.90	0	6.3360	0	37.5340	8	29.516	0	346.824	0	121.1	4	41.4	4	-1E+10	1	-1E+10	1	-1E+10	1	-1E+10	1	-1E+10	1	-1E+10	1
4901784	229	C	10/11/2021	10:49	-136.550	43.203	0	352.80	0	6.3020	0	37.5350	8	29.521	0	349.696	0	119.5	4	40.8	4	-1E+10	1	-1E+10	1	-1E+10	1	-1E+10	1	-1E+10	1	-1E+10	1
4901784	229	C	10/11/2021	10:49	-136.550	43.203	0	354.70	0	6.2940	0	37.5340	8	29.522	0	351.577	0	118.2	4	40.4	4	-1E+10	1	-1E+10	1	-1E+10	1	-1E+10	1	-1E+10	1	-1E+10	1
4901784	229	C	10/11/2021	10:49	-136.550	43.203	0	357.60	0	6.2500	0	37.5350	8	29.528	0	354.449	0	116.1	4	39.6	4	-1E+10	1	-1E+10	1	-1E+10	1	-1E+10	1	-1E+10	1	-1E+10	1
4901784	229	C	10/11/2021	10:49	-136.550	43.203	0	360.50	0	6.1920	0	37.5370	8	29.538	0	357.321	0	114.3	4	39.0	4	-1E+10	1	-1E+10	1	-1E+10	1	-1E+10	1	-1E+10	1	-1E+10	1
4901784	229	C	10/11/2021	10:49	-136.550	43.203	0	362.40	0	6.1710	0	37.5380	8	29.542	0	359.203	0	113.2	4	38.6	4	-1E+10	1	-1E+10	1	-1E+10	1	-1E+10	1	-1E+10	1	-1E+10	1
4901784	229	C	10/11/2021	10:49	-136.550	43.203	0	364.30	0	6.1360	0	37.5400	8	29.548	0	361.084	0	112.2	4	38.2	4	-1E+10	1	-1E+10	1	-1E+10	1	-1E+10	1	-1E+10	1	-1E+10	1
4901784	229	C	10/11/2021	10:49	-136.550	43.203	0	367.40	0	6.0760	0	37.5450	8	29.560	0	364.154	0	111.1	4	37.8	4	-1E+10	1	-1E+10	1	-1E+10	1	-1E+10	1	-1E+10	1	-1E+10	1
4901784	229	C	10/11/2021	10:49	-136.550	43.203	0	370.30	0	6.0540	0	37.5460	8	29.564	0	367.026	0	110.1	4	37.4	4	-1E+10	1	-1E+10	1	-1E+10	1	-1E+10	1	-1E+10	1	-1E+10	1
4901784	229	C	10/11/2021	10:49	-136.550	43.203	0	372.80	0	6.0390	0	37.5460	8	29.566	0	369.502	0	109.2	4	37.1	4	-1E+10	1	-1E+10	1	-1E+10	1	-1E+10	1	-1E+10	1	-1E+10	1
4901784	229	C	10/11/2021	10:49	-136.550	43.203	0	375.20	0	6.0080	0	37.5470	8	29.571	0	371.879	0	107.8	4	36.6	4	-1E+10	1	-1E+10	1	-1E+10	1	-1E+10	1	-1E+10	1	-1E+10	1
4901784	229	C	10/11/2021	10:49	-136.550	43.203	0	377.70	0	5.9690	0	37.5500	8	29.578	0	374.354	0	106.3	4	36.1	4	-1E+10	1	-1E+10	1	-1E+10	1	-1E+10	1	-1E+10	1	-1E+10	1
4901784	229	C	10/11/2021	10:49	-136.550	43.203	0	380.10	0	5.9440	0	37.5490	8	29.581	0	376.731	0	105.1	4	35.6	4	-1E+10	1	-1E+10	1	-1E+10	1	-1E+10	1	-1E+10	1	-1E+10	1
4901784	229	C	10/11/2021	10:49	-136.550	43.203	0	382.60	0	5.9030	0	37.5510	8	29.588	0	379.206	0	103.9	4	35.2	4	-1E+10	1	-1E+10	1	-1E+10	1	-1E+10	1	-1E+10	1	-1E+10	1
4901784	229	C	10/11/2021	10:49	-136.550	43.203	0	385.00	0	5.8510	0	37.5560	8	29.599	0	381.583	0	102.6	4	34.7	4	-1E+10	1	-1E+10	1	-1E+10	1	-1E+10	1	-1E+10	1	-1E+10	1
4901784	229	C	10/11/2021	10:49	-136.550	43.203	0	387.40	0	5.8300	0	37.5560	8	29.602	0	383.959	0	101.5	4	34.3	4	-1E+10	1	-1E+10	1	-1E+10	1	-1E+10	1	-1E+10	1	-1E+10	1
4901784	229	C	10/11/2021	10:49	-136.550	43.203	0	389.90	0	5.8100	0	37.5570	8	29.605	0	386.435	0	100.4	4	33.9	4	-1E+10	1	-1E+10	1	-1E+10	1	-1E+10	1	-1E+10	1	-1E+10	1
4901784	229	C	10/11/2021	10:49	-136.550	43.203	0	392.40	0	5.7790	0	37.5600	8	29.612	0	388.910	0	99.7	4	33.7	4	-1E+10	1	-1E+10	1	-1E+10	1	-1E+10	1	-1E+10	1	-1E+10	1
4901784	229	C	10/11/2021	10:49	-136.550	43.203	0	394.80	0	5.7510	0	37.5620	8	29.617	0	391.287	0	99.0	4	33.4	4	-1E+10	1	-1E+10	1	-1E+10	1	-1E+10	1	-1E+10	1	-1E+10	1
4901784	229	C	10/11/2021	10:49	-136.550	43.203	0	397.30	0	5.7190	0	37.5640	8	29.623	0	393.762	0	97.9	4	33.0	4	-1E+10	1	-1E+10	1	-1E+10	1	-1E+10	1	-1E+10	1	-1E+10	1
4901784	229	C	10/11/2021	10:49	-136.550	43.203	0	399.70	0	5.6910	0	37.5640	8	29.627	0	396.138	0	96.8	4	32.6	4	-1E+10	1	-1E+10	1	-1E+10	1	-1E+10	1	-1E+10	1	-1E+10	1
4901784	229	C	10/11/2021	10:49	-136.550	43.203	0	402.20	0	5.6530	0	37.5670	8	29.634	0	398.614	0	95.4	4	32.1	4	-1E+10	1	-1E+10	1	-1E+10	1	-1E+10	1	-1E+10	1	-1E+10	1
4901784	229	C	10/11/2021	10:49	-136.550	43.203	0	404.70	0	5.6180	0	37.5690	8	29.640	0	401.089	0	94.5	4	31.8	4	-1E+10	1	-1E+10	1	-1E+10	1	-1E+10	1	-1E+10	1	-1E+10	1
4901784	229	C	10/11/2021	10:49	-136.550	43.203	0	407.20	0	5.5930	0	37.5700	8	29.644	0	403.564	0	93.3	4	31.4	4	-1E+10	1	-1E+10	1	-1E+10	1	-1E+10	1	-1E+10	1	-1E+10	1
4901784	229	C	10/11/2021	10:49	-136.550	43.203	0	409.70	0	5.5570	0	37.5730	8	29.651	0	406.039	0	92.0	4	30.9	4	-1E+10	1	-1E+10	1	-1E+10	1	-1E+10	1	-1E+10	1	-1E+10	1
4901784	229	C	10/11/2021	10:49	-136.550	43.203	0	412.20	0	5.5270	0	37.5760	8	29.657	0	408.515	0	91.0	4	30.6	4	-1E+10	1	-1E+10	1	-1E+10	1	-1E+10	1	-1E+10	1	-1E+10	1
4901784	229	C	10/11/2021	10:49	-136.550	43.203	0	414.70	0	5.5090	0	37.5770	8	29.661	0	410.990	0	90.1	4	30.2	4	-1E+10	1	-1E+10	1	-1E+10	1	-1E+10	1	-1E+10	1	-1E+10	1
4901784	229	C	10/11/2021	10:49	-136.550	43.203	0	417.30	0	5.4780	0	37.5800	8	29.667	0	413.564	0	89.3	4	29.9	4	-1E+10	1	-1E+10	1	-1E+10	1	-1E+10	1	-1E+10	1	-1E+10	1
4901784	229	C	10/11/2021	10:49	-136.550	43.203	0	419.80	0	5.4500	0	37.5820	8	29.672	0	416.039	0	88.4	4	29.6	4	-1E+10	1	-1E+10	1	-1E+10	1	-1E+10	1	-1E+10	1	-1E+10	1
4901784	229	C	10/11/2021	10:49	-136.550	43.203	0	422.30	0	5.4310	0	37.5800	8	29.673	0	418.514	0	87.5	4	29.3	4	-1E+10	1	-1E+10	1	-1E+10	1	-1E+10	1	-1E+10	1	-1E+10	1
4901784	229	C	10/11/2021	10:49	-136.550	43.203	0	424.90	0	5.4090	0	37.5790	8	29.675	0	421.088	0	86.4	4	28.9	4	-1E+10	1	-1E+10	1	-1E+10	1	-1E+10	1	-1E+10	1	-1E+10	1
4901784	229	C	10/11/2021	10:49	-136.550	43.203	0	427.40	0	5.3790	0	37.5830	8	29.682	0	423.563	0	85.1	4	28.5	4	-1E+10	1	-1E+10	1	-1E+10	1	-1E+10	1	-1E+10	1	-1E+10	1
4901784	229	C	10/11/2021	10:49	-136.550	43.203	0	429.90	0	5.3660	0	37.5850	8	29.685	0	426.038	0	84.1	4	28.1	4	-1E+10	1	-1E+10	1	-1E+10	1	-1E+10	1	-1E+10	1	-1E+10	1
4901784	229	C	10/11/2021	10:49	-136.550	43.203	0	432.50	0	5.3480	0	37.5880	8	29.690	0	428.612	0	82.9	4	27.7	4	-1E+10	1	-1E+10	1	-1E+10	1	-1E+10	1	-1E+10	1	-1E+10	1
4901784	229	C	10/11/2021	10:49	-136.550	43.203	0	435.00	0	5.3280	0	37.5890	8	29.693	0	431.087	0	81.8	4	27.4	4	-1E+10	1	-1E+10	1	-1E+10	1	-1E+10	1	-1E+10	1	-1E+10	1
4901784	229	C	10/11/2021	10:49	-136.550	43.203	0	437.60	0	5.2980	0	37.5920	8	29.700	0	433.661	0	80.8	4	27.0	4	-1E+10	1	-1E+10	1	-1E+10	1	-1E+10	1	-1E+10	1	-1E+10	1
4901784	229	C	10/11/2021	10:49	-136.550	43.203	0	440.20	0	5.2740	0	37.5930	8	29.703	0	436.235	0	79.9	4	26.7	4	-1E+10	1	-1E+10	1	-1E+10	1	-1E+10	1	-1E+10	1	-1E+10	1
4901784	229	C	10/11/2021	10:49	-136.550	43.203	0	442.70	0	5.2450	0	37.5960	8	29.709	0	438.710	0	78.8	4	26.3	4	-1E+10	1	-1E+10	1	-1E+10	1	-1E+10	1	-1E+10	1	-1E+10	1
4901784	229	C	10/11/2021	10:49	-136.550	43.203	0	445.40	0	5.2180	0	37.5960	8	29.713	0	441.382	0	77.7	4	25.9	4	-1E+10	1	-1E+10	1	-1E+10	1	-1E+10	1	-1E+10	1	-1E+10	1
4901784	229	C	10/11/2021	10:49	-136.550	43.203	0	447.10	0	5.2090	0	37.5960	8	29.714	0	443.065	0	77.0	4	25.7	4	-1E+10	1	-1E+10	1	-1E+10	1	-1E+10	1	-1E+10	1	-1E+10	1
4901784	229	C	10/11/2021	10:49	-136.550	43.203	0	449.70	0	5.1660	0	37.6010	8	29.723	0	445.639	0	75.8	4	25.2	4	-1E+10	1	-1E+10	1	-1E+10	1	-1E+10	1	-1E+10	1	-1E+10	1
4901784	229	C	10/11/2021	10:49	-136.550	43.203	0	452.40	0	5.1530	0	37.6030	8	29.727	0	448.312	0	74.5	4	24.8	4	-1E+10	1	-1E+10	1	-1E+10	1	-1E+10	1	-1E+10	1	-1E+10	1
4901784	229	C	10/11/2021	10:49	-136.550	43.203	0	455.00	0	5.1280	0	37.6070	8	29.733	0	450.885	0	73.4	4	24.4	4	-1E+10	1	-1E+10	1	-1E+10	1	-1E+10	1	-1E+10	1	-1E+10	1
4901784	229	C	10/11/2021	10:49	-136.550	43.203	0	457.60	0	5.1090	0	37.6100	8	29.738	0	453.459	0	72.5	4	24.1	4	-1E+10	1	-1E+10	1	-1E+10	1	-1E+10	1	-1E+10	1	-1E+10	1
4901784	229	C	10/11/2021	10:49	-136.550	43.203	0	460.30	0	5.0960	0	37.6120	8	29.741	0	456.132	0	71.6	4	23.8	4	-1E+10	1	-1E+10	1	-1E+10	1	-1E+10	1	-1E+10	1	-1E+10	1
4901784	229	C	10/11/2021	10:49	-136.550	43.203	0	462.90	0	5.0870	0	37.6140	8	29.744	0	458.705	0	70.6	4	23.5	4	-1E+10	1	-1E+10	1	-1E+10	1	-1E+10	1	-1E+10	1	-1E+10	1
4901784	229	C	10/11/2021	10:49	-136.550	43.203	0	464.70	0	5.0810	0	37.6140	8	29.744	0	460.487	0	69.9	4	23.2	4	-1E+10	1	-1E+10	1	-1E+10	1	-1E+10	1	-1E+10	1	-1E+10	1
4901784	229	C	10/11/2021	10:49	-136.550	43.203	0	467.40	0	5.0560	0	37.6190	8	29.751	0	463.159	0	68.7	4	22.8	4	-1E+10	1	-1E+10	1	-1E+10	1	-1E+10	1	-1E+10	1	-1E+10	1
4901784	229	C	10/11/2021	10:49	-136.550	43.203	0	470.10	0	5.0320	0	37.6220	8	29.757	0	465.832	0	67.9	4	22.6	4	-1E+10	1	-1E+10	1	-1E+10	1	-1E+10	1	-1E+10	1	-1E+10	1
4901784	229	C	10/11/2021	10:49	-136.550	43.203	0	472.80	0	5.0170	0	37.6250	8	29.761	0	468.504	0	67.2	4	22.3	4	-1E+10	1	-1E+10	1	-1E+10	1	-1E+10	1	-1E+10	1	-1E+10	1
4901784	229	C	10/11/2021	10:49	-136.550	43.203	0	475.50	0	5.0020	0	37.6270	8	29.765	0	471.177	0	66.5	4	22.1	4	-1E+10	1	-1E+10	1	-1E+10	1	-1E+10	1	-1E+10	1	-1E+10	1
4901784	229	C	10/11/2021	10:49	-136.550	43.203	0	477.30	0	5.0000	0	37.6260	8	29.764	0	472.958	0	65.9	4	21.9	4	-1E+10	1	-1E+10	1	-1E+10	1	-1E+10	1	-1E+10	1	-1E+10	1
4901784	229	C	10/11/2021	10:49	-136.550	43.203	0	480.00	0	4.9740	0	37.6300	8	29.770	0	475.631	0	65.1	4	21.6	4	-1E+10	1	-1E+10	1	-1E+10	1	-1E+10	1	-1E+10	1	-1E+10	1
4901784	229	C	10/11/2021	10:49	-136.550	43.203	0	482.80	0	4.9510	0	37.6330	8	29.776	0	478.402	0	64.4	4	21.3	4	-1E+10	1	-1E+10	1	-1E+10	1	-1E+10	1	-1E+10	1	-1E+10	1
4901784	229	C	10/11/2021	10:49	-136.550	43.203	0	484.60	0	4.9300	0	37.6370	8	29.781	0	480.184	0	64.0	4	21.2	4	-1E+10	1	-1E+10	1	-1E+10	1	-1E+10	1	-1E+10	1	-1E+10	1
4901784	229	C	10/11/2021	10:49	-136.550	43.203	0	487.40	0	4.9210	0	37.6380	8	29.783	0	482.955	0	63.4	4	21.0	4	-1E+10	1	-1E+10	1	-1E+10	1	-1E+10	1	-1E+10	1	-1E+10	1
4901784	229	C	10/11/2021	10:49	-136.550	43.203	0	490.20	0	4.9090	0	37.6410	8	29.787	0	485.726	0	62.9	4	20.8	4	-1E+10	1	-1E+10	1	-1E+10	1	-1E+10	1	-1E+10	1	-1E+10	1
4901784	229	C	10/11/2021	10:49	-136.550	43.203	0	492.00	0	4.9050	0	37.6410	8	29.788	0	487.507	0	62.6	4	20.7	4	-1E+10	1	-1E+10	1	-1E+10	1	-1E+10	1	-1E+10	1	-1E+10	1
4901784	229	C	10/11/2021	10:49	-136.550	43.203	0	494.80	0	4.8920	0	37.6420	8	29.790	0	490.279	0	62.2	4	20.6	4	-1E+10	1	-1E+10	1	-1E+10	1	-1E+10	1	-1E+10	1	-1E+10	1
4901784	229	C	10/11/2021	10:49	-136.550	43.203	0	497.60	0	4.8680	0	37.6470	8	29.797	0	493.050	0	61.9	4	20.5	4	-1E+10	1	-1E+10	1	-1E+10	1	-1E+10	1	-1E+10	1	-1E+10	1
4901784	229	C	10/11/2021	10:49	-136.550	43.203	0	499.50	0	4.8620	0	37.6470	8	29.798	0	494.930	0	61.8	4	20.4	4	-1E+10	1	-1E+10	1	-1E+10	1	-1E+10	1	-1E+10	1	-1E+10	1
4901784	229	C	10/11/2021	10:49	-136.550	43.203	0	505.00	0	4.8240	0	37.6490	8	29.804	0	500.373	0	61.5	4	20.3	4	-1E+10	1	-1E+10	1	-1E+10	1	-1E+10	1	-1E+10	1	-1E+10	1
4901784	229	C	10/11/2021	10:49	-136.550	43.203	0	509.70	0	4.7800	0	37.6530	8	29.813	0	505.024	0	60.8	4	20.1	4	-1E+10	1	-1E+10	1	-1E+10	1	-1E+10	1	-1E+10	1	-1E+10	1
4901784	229	C	10/11/2021	10:49	-136.550	43.203	0	514.40	0	4.7520	0	37.6580	8	29.820	0	509.675	0	59.7	4	19.7	4	-1E+10	1	-1E+10	1	-1E+10	1	-1E+10	1	-1E+10	1	-1E+10	1
4901784	229	C	10/11/2021	10:49	-136.550	43.203	0	520.00	0	4.7330	0	37.6630	8	29.826	0	515.217	0	58.3	4	19.2	4	-1E+10	1	-1E+10	1	-1E+10	1	-1E+10	1	-1E+10	1	-1E+10	1
4901784	229	C	10/11/2021	10:49	-136.550	43.203	0	524.80	0	4.7130	0	37.6670	8	29.832	0	519.967	0	57.3	4	18.9	4	-1E+10	1	-1E+10	1	-1E+10	1	-1E+10	1	-1E+10	1	-1E+10	1
4901784	229	C	10/11/2021	10:49	-136.550	43.203	0	529.40	0	4.6930	0	37.6720	8	29.838	0	524.519	0	56.3	4	18.6	4	-1E+10	1	-1E+10	1	-1E+10	1	-1E+10	1	-1E+10	1	-1E+10	1
4901784	229	C	10/11/2021	10:49	-136.550	43.203	0	534.90	0	4.6850	0	37.6750	8	29.842	0	529.961	0	55.2	4	18.2	4	-1E+10	1	-1E+10	1	-1E+10	1	-1E+10	1	-1E+10	1	-1E+10	1
4901784	229	C	10/11/2021	10:49	-136.550	43.203	0	539.30	0	4.6720	0	37.6800	8	29.847	0	534.315	0	53.9	4	17.7	4	-1E+10	1	-1E+10	1	-1E+10	1	-1E+10	1	-1E+10	1	-1E+10	1
4901784	229	C	10/11/2021	10:49	-136.550	43.203	0	545.00	0	4.6570	0	37.6850	8	29.853	0	539.955	0	52.6	4	17.3	4	-1E+10	1	-1E+10	1	-1E+10	1	-1E+10	1	-1E+10	1	-1E+10	1
4901784	229	C	10/11/2021	10:49	-136.550	43.203	0	550.70	0	4.6380	0	37.6900	8	29.859	0	545.594	0	51.8	4	17.1	4	-1E+10	1	-1E+10	1	-1E+10	1	-1E+10	1	-1E+10	1	-1E+10	1
4901784	229	C	10/11/2021	10:49	-136.550	43.203	0	555.50	0	4.6130	0	37.6920	8	29.864	0	550.344	0	51.0	4	16.8	4	-1E+10	1	-1E+10	1	-1E+10	1	-1E+10	1	-1E+10	1	-1E+10	1
4901784	229	C	10/11/2021	10:49	-136.550	43.203	0	560.40	0	4.5860	0	37.6980	8	29.872	0	555.192	0	49.9	4	16.4	4	-1E+10	1	-1E+10	1	-1E+10	1	-1E+10	1	-1E+10	1	-1E+10	1
4901784	229	C	10/11/2021	10:49	-136.550	43.203	0	565.40	0	4.5780	0	37.7020	8	29.876	0	560.138	0	48.4	4	15.9	4	-1E+10	1	-1E+10	1	-1E+10	1	-1E+10	1	-1E+10	1	-1E+10	1
4901784	229	C	10/11/2021	10:49	-136.550	43.203	0	570.30	0	4.5660	0	37.7090	8	29.883	0	564.986	0	46.2	4	15.2	4	-1E+10	1	-1E+10	1	-1E+10	1	-1E+10	1	-1E+10	1	-1E+10	1
4901784	229	C	10/11/2021	10:49	-136.550	43.203	0	575.30	0	4.5490	0	37.7160	8	29.891	0	569.933	0	44.9	4	14.7	4	-1E+10	1	-1E+10	1	-1E+10	1	-1E+10	1	-1E+10	1	-1E+10	1
4901784	229	C	10/11/2021	10:49	-136.550	43.203	0	580.40	0	4.5280	0	37.7210	8	29.897	0	574.978	0	43.7	4	14.4	4	-1E+10	1	-1E+10	1	-1E+10	1	-1E+10	1	-1E+10	1	-1E+10	1
4901784	229	C	10/11/2021	10:49	-136.550	43.203	0	585.40	0	4.5050	0	37.7270	8	29.905	0	579.924	0	42.5	4	14.0	4	-1E+10	1	-1E+10	1	-1E+10	1	-1E+10	1	-1E+10	1	-1E+10	1
4901784	229	C	10/11/2021	10:49	-136.550	43.203	0	590.50	0	4.4820	0	37.7350	8	29.914	0	584.969	0	41.1	4	13.5	4	-1E+10	1	-1E+10	1	-1E+10	1	-1E+10	1	-1E+10	1	-1E+10	1
4901784	229	C	10/11/2021	10:49	-136.550	43.203	0	595.60	0	4.4700	0	37.7420	8	29.921	0	590.014	0	39.8	4	13.0	4	-1E+10	1	-1E+10	1	-1E+10	1	-1E+10	1	-1E+10	1	-1E+10	1
4901784	229	C	10/11/2021	10:49	-136.550	43.203	0	600.70	0	4.4630	0	37.7470	8	29.926	0	595.059	0	38.4	4	12.6	4	-1E+10	1	-1E+10	1	-1E+10	1	-1E+10	1	-1E+10	1	-1E+10	1
4901784	229	C	10/11/2021	10:49	-136.550	43.203	0	604.90	0	4.4520	0	37.7510	8	29.930	0	599.214	0	37.4	4	12.3	4	-1E+10	1	-1E+10	1	-1E+10	1	-1E+10	1	-1E+10	1	-1E+10	1
4901784	229	C	10/11/2021	10:49	-136.550	43.203	0	609.20	0	4.4480	0	37.7580	8	29.936	0	603.467	0	35.8	4	11.7	4	-1E+10	1	-1E+10	1	-1E+10	1	-1E+10	1	-1E+10	1	-1E+10	1
4901784	229	C	10/11/2021	10:49	-136.550	43.203	0	614.30	0	4.4440	0	37.7650	8	29.942	0	608.512	0	34.1	4	11.2	4	-1E+10	1	-1E+10	1	-1E+10	1	-1E+10	1	-1E+10	1	-1E+10	1
4901784	229	C	10/11/2021	10:49	-136.550	43.203	0	619.30	0	4.4180	0	37.7740	8	29.953	0	613.457	0	33.1	4	10.9	4	-1E+10	1	-1E+10	1	-1E+10	1	-1E+10	1	-1E+10	1	-1E+10	1
4901784	229	C	10/11/2021	10:49	-136.550	43.203	0	624.50	0	4.4100	0	37.7800	8	29.958	0	618.601	0	32.1	4	10.5	4	-1E+10	1	-1E+10	1	-1E+10	1	-1E+10	1	-1E+10	1	-1E+10	1
4901784	229	C	10/11/2021	10:49	-136.550	43.203	0	629.60	0	4.4040	0	37.7860	8	29.964	0	623.645	0	30.9	4	10.1	4	-1E+10	1	-1E+10	1	-1E+10	1	-1E+10	1	-1E+10	1	-1E+10	1
4901784	229	C	10/11/2021	10:49	-136.550	43.203	0	634.70	0	4.3940	0	37.7920	8	29.970	0	628.689	0	29.6	4	9.7	4	-1E+10	1	-1E+10	1	-1E+10	1	-1E+10	1	-1E+10	1	-1E+10	1
4901784	229	C	10/11/2021	10:49	-136.550	43.203	0	639.90	0	4.3820	0	37.7980	8	29.976	0	633.832	0	28.5	4	9.3	4	-1E+10	1	-1E+10	1	-1E+10	1	-1E+10	1	-1E+10	1	-1E+10	1
4901784	229	C	10/11/2021	10:49	-136.550	43.203	0	645.20	0	4.3570	0	37.8040	8	29.984	0	639.073	0	27.7	4	9.1	4	-1E+10	1	-1E+10	1	-1E+10	1	-1E+10	1	-1E+10	1	-1E+10	1
4901784	229	C	10/11/2021	10:49	-136.550	43.203	0	650.50	0	4.3310	0	37.8130	8	29.994	0	644.315	0	26.7	4	8.7	4	-1E+10	1	-1E+10	1	-1E+10	1	-1E+10	1	-1E+10	1	-1E+10	1
4901784	229	C	10/11/2021	10:49	-136.550	43.203	0	654.90	0	4.3200	0	37.8180	8	29.999	0	648.666	0	25.9	4	8.5	4	-1E+10	1	-1E+10	1	-1E+10	1	-1E+10	1	-1E+10	1	-1E+10	1
4901784	229	C	10/11/2021	10:49	-136.550	43.203	0	659.30	0	4.3080	0	37.8230	8	30.005	0	653.017	0	25.2	4	8.2	4	-1E+10	1	-1E+10	1	-1E+10	1	-1E+10	1	-1E+10	1	-1E+10	1
4901784	229	C	10/11/2021	10:49	-136.550	43.203	0	664.60	0	4.3020	0	37.8280	8	30.010	0	658.258	0	24.2	4	7.9	4	-1E+10	1	-1E+10	1	-1E+10	1	-1E+10	1	-1E+10	1	-1E+10	1
4901784	229	C	10/11/2021	10:49	-136.550	43.203	0	669.90	0	4.2870	0	37.8340	8	30.016	0	663.499	0	23.5	4	7.7	4	-1E+10	1	-1E+10	1	-1E+10	1	-1E+10	1	-1E+10	1	-1E+10	1
4901784	229	C	10/11/2021	10:49	-136.550	43.203	0	675.30	0	4.2750	0	37.8390	8	30.021	0	668.839	0	22.8	4	7.4	4	-1E+10	1	-1E+10	1	-1E+10	1	-1E+10	1	-1E+10	1	-1E+10	1
4901784	229	C	10/11/2021	10:49	-136.550	43.203	0	680.60	0	4.2580	0	37.8450	8	30.028	0	674.080	0	21.9	4	7.1	4	-1E+10	1	-1E+10	1	-1E+10	1	-1E+10	1	-1E+10	1	-1E+10	1
4901784	229	C	10/11/2021	10:49	-136.550	43.203	0	685.00	0	4.2490	0	37.8510	8	30.034	0	678.431	0	21.2	4	6.9	4	-1E+10	1	-1E+10	1	-1E+10	1	-1E+10	1	-1E+10	1	-1E+10	1
4901784	229	C	10/11/2021	10:49	-136.550	43.203	0	689.40	0	4.2350	0	37.8570	8	30.041	0	682.781	0	20.5	4	6.7	4	-1E+10	1	-1E+10	1	-1E+10	1	-1E+10	1	-1E+10	1	-1E+10	1
4901784	229	C	10/11/2021	10:49	-136.550	43.203	0	694.70	0	4.2200	0	37.8630	8	30.047	0	688.022	0	19.9	4	6.5	4	-1E+10	1	-1E+10	1	-1E+10	1	-1E+10	1	-1E+10	1	-1E+10	1
4901784	229	C	10/11/2021	10:49	-136.550	43.203	0	700.10	0	4.2040	0	37.8670	8	30.052	0	693.361	0	19.2	4	6.3	4	-1E+10	1	-1E+10	1	-1E+10	1	-1E+10	1	-1E+10	1	-1E+10	1
4901784	229	C	10/11/2021	10:49	-136.550	43.203	0	705.50	0	4.1880	0	37.8760	8	30.061	0	698.700	0	18.3	4	6.0	4	-1E+10	1	-1E+10	1	-1E+10	1	-1E+10	1	-1E+10	1	-1E+10	1
4901784	229	C	10/11/2021	10:49	-136.550	43.203	0	710.10	0	4.1750	0	37.8820	8	30.067	0	703.247	0	17.7	4	5.8	4	-1E+10	1	-1E+10	1	-1E+10	1	-1E+10	1	-1E+10	1	-1E+10	1
4901784	229	C	10/11/2021	10:49	-136.550	43.203	0	714.50	0	4.1560	0	37.8910	8	30.077	0	707.598	0	17.2	4	5.6	4	-1E+10	1	-1E+10	1	-1E+10	1	-1E+10	1	-1E+10	1	-1E+10	1
4901784	229	C	10/11/2021	10:49	-136.550	43.203	0	720.00	0	4.1390	0	37.8960	8	30.083	0	713.035	0	16.9	4	5.5	4	-1E+10	1	-1E+10	1	-1E+10	1	-1E+10	1	-1E+10	1	-1E+10	1
4901784	229	C	10/11/2021	10:49	-136.550	43.203	0	725.40	0	4.1300	0	37.9020	8	30.089	0	718.374	0	16.3	4	5.3	4	-1E+10	1	-1E+10	1	-1E+10	1	-1E+10	1	-1E+10	1	-1E+10	1
4901784	229	C	10/11/2021	10:49	-136.550	43.203	0	730.00	0	4.1180	0	37.9080	8	30.095	0	722.921	0	16.0	4	5.2	4	-1E+10	1	-1E+10	1	-1E+10	1	-1E+10	1	-1E+10	1	-1E+10	1
4901784	229	C	10/11/2021	10:49	-136.550	43.203	0	734.60	0	4.1100	0	37.9120	8	30.099	0	727.468	0	15.6	4	5.1	4	-1E+10	1	-1E+10	1	-1E+10	1	-1E+10	1	-1E+10	1	-1E+10	1
4901784	229	C	10/11/2021	10:49	-136.550	43.203	0	739.80	0	4.1000	0	37.9190	8	30.106	0	732.609	0	15.2	4	5.0	4	-1E+10	1	-1E+10	1	-1E+10	1	-1E+10	1	-1E+10	1	-1E+10	1
4901784	229	C	10/11/2021	10:49	-136.550	43.203	0	744.50	0	4.0930	0	37.9210	8	30.108	0	737.255	0	15.0	4	4.9	4	-1E+10	1	-1E+10	1	-1E+10	1	-1E+10	1	-1E+10	1	-1E+10	1
4901784	229	C	10/11/2021	10:49	-136.550	43.203	0	750.00	0	4.0750	0	37.9270	8	30.115	0	742.691	0	14.7	4	4.8	4	-1E+10	1	-1E+10	1	-1E+10	1	-1E+10	1	-1E+10	1	-1E+10	1
4901784	229	C	10/11/2021	10:49	-136.550	43.203	0	755.60	0	4.0690	0	37.9300	8	30.118	0	748.227	0	14.5	4	4.7	4	-1E+10	1	-1E+10	1	-1E+10	1	-1E+10	1	-1E+10	1	-1E+10	1
4901784	229	C	10/11/2021	10:49	-136.550	43.203	0	760.50	0	4.0610	0	37.9330	8	30.121	0	753.070	0	14.3	4	4.6	4	-1E+10	1	-1E+10	1	-1E+10	1	-1E+10	1	-1E+10	1	-1E+10	1
4901784	229	C	10/11/2021	10:49	-136.550	43.203	0	765.40	0	4.0340	0	37.9400	8	30.130	0	757.913	0	14.1	4	4.6	4	-1E+10	1	-1E+10	1	-1E+10	1	-1E+10	1	-1E+10	1	-1E+10	1
4901784	229	C	10/11/2021	10:49	-136.550	43.203	0	770.30	0	4.0190	0	37.9430	8	30.134	0	762.757	0	13.8	4	4.5	4	-1E+10	1	-1E+10	1	-1E+10	1	-1E+10	1	-1E+10	1	-1E+10	1
4901784	229	C	10/11/2021	10:49	-136.550	43.203	0	775.40	0	4.0210	0	37.9490	8	30.139	0	767.797	0	13.5	4	4.4	4	-1E+10	1	-1E+10	1	-1E+10	1	-1E+10	1	-1E+10	1	-1E+10	1
4901784	229	C	10/11/2021	10:49	-136.550	43.203	0	780.40	0	4.0090	0	37.9530	8	30.143	0	772.739	0	13.3	4	4.3	4	-1E+10	1	-1E+10	1	-1E+10	1	-1E+10	1	-1E+10	1	-1E+10	1
4901784	229	C	10/11/2021	10:49	-136.550	43.203	0	785.50	0	3.9950	0	37.9590	8	30.150	0	777.779	0	13.0	4	4.2	4	-1E+10	1	-1E+10	1	-1E+10	1	-1E+10	1	-1E+10	1	-1E+10	1
4901784	229	C	10/11/2021	10:49	-136.550	43.203	0	790.60	0	3.9910	0	37.9640	8	30.154	0	782.820	0	12.8	4	4.1	4	-1E+10	1	-1E+10	1	-1E+10	1	-1E+10	1	-1E+10	1	-1E+10	1
4901784	229	C	10/11/2021	10:49	-136.550	43.203	0	795.70	0	3.9850	0	37.9660	8	30.157	0	787.860	0	12.6	4	4.1	4	-1E+10	1	-1E+10	1	-1E+10	1	-1E+10	1	-1E+10	1	-1E+10	1
4901784	229	C	10/11/2021	10:49	-136.550	43.203	0	800.10	0	3.9750	0	37.9710	8	30.162	0	792.208	0	12.3	4	4.0	4	-1E+10	1	-1E+10	1	-1E+10	1	-1E+10	1	-1E+10	1	-1E+10	1
4901784	229	C	10/11/2021	10:49	-136.550	43.203	0	804.50	0	3.9720	0	37.9770	8	30.167	0	796.556	0	12.0	4	3.9	4	-1E+10	1	-1E+10	1	-1E+10	1	-1E+10	1	-1E+10	1	-1E+10	1
4901784	229	C	10/11/2021	10:49	-136.550	43.203	0	809.80	0	3.9520	0	37.9830	8	30.174	0	801.794	0	11.8	4	3.8	4	-1E+10	1	-1E+10	1	-1E+10	1	-1E+10	1	-1E+10	1	-1E+10	1
4901784	229	C	10/11/2021	10:49	-136.550	43.203	0	815.00	0	3.9360	0	37.9880	8	30.180	0	806.933	0	11.7	4	3.8	4	-1E+10	1	-1E+10	1	-1E+10	1	-1E+10	1	-1E+10	1	-1E+10	1
4901784	229	C	10/11/2021	10:49	-136.550	43.203	0	820.40	0	3.9240	0	37.9910	8	30.184	0	812.269	0	11.6	4	3.8	4	-1E+10	1	-1E+10	1	-1E+10	1	-1E+10	1	-1E+10	1	-1E+10	1
4901784	229	C	10/11/2021	10:49	-136.550	43.203	0	824.90	0	3.9180	0	37.9940	8	30.187	0	816.715	0	11.5	4	3.7	4	-1E+10	1	-1E+10	1	-1E+10	1	-1E+10	1	-1E+10	1	-1E+10	1
4901784	229	C	10/11/2021	10:49	-136.550	43.203	0	829.50	0	3.9050	0	37.9990	8	30.192	0	821.260	0	11.3	4	3.7	4	-1E+10	1	-1E+10	1	-1E+10	1	-1E+10	1	-1E+10	1	-1E+10	1
4901784	229	C	10/11/2021	10:49	-136.550	43.203	0	834.90	0	3.9020	0	38.0070	8	30.199	0	826.596	0	11.1	4	3.6	4	-1E+10	1	-1E+10	1	-1E+10	1	-1E+10	1	-1E+10	1	-1E+10	1
4901784	229	C	10/11/2021	10:49	-136.550	43.203	0	840.40	0	3.8990	0	38.0090	8	30.201	0	832.031	0	11.0	4	3.6	4	-1E+10	1	-1E+10	1	-1E+10	1	-1E+10	1	-1E+10	1	-1E+10	1
4901784	229	C	10/11/2021	10:49	-136.550	43.203	0	845.00	0	3.8950	0	38.0120	8	30.204	0	836.576	0	10.9	4	3.5	4	-1E+10	1	-1E+10	1	-1E+10	1	-1E+10	1	-1E+10	1	-1E+10	1
4901784	229	C	10/11/2021	10:49	-136.550	43.203	0	849.70	0	3.8860	0	38.0150	8	30.207	0	841.219	0	10.9	4	3.5	4	-1E+10	1	-1E+10	1	-1E+10	1	-1E+10	1	-1E+10	1	-1E+10	1
4901784	229	C	10/11/2021	10:49	-136.550	43.203	0	855.30	0	3.8800	0	38.0180	8	30.210	0	846.752	0	10.8	4	3.5	4	-1E+10	1	-1E+10	1	-1E+10	1	-1E+10	1	-1E+10	1	-1E+10	1
4901784	229	C	10/11/2021	10:49	-136.550	43.203	0	860.00	0	3.8720	0	38.0210	8	30.214	0	851.395	0	10.7	4	3.5	4	-1E+10	1	-1E+10	1	-1E+10	1	-1E+10	1	-1E+10	1	-1E+10	1
4901784	229	C	10/11/2021	10:49	-136.550	43.203	0	864.70	0	3.8620	0	38.0230	8	30.216	0	856.039	0	10.7	4	3.5	4	-1E+10	1	-1E+10	1	-1E+10	1	-1E+10	1	-1E+10	1	-1E+10	1
4901784	229	C	10/11/2021	10:49	-136.550	43.203	0	870.20	0	3.8510	0	38.0270	8	30.221	0	861.472	0	10.6	4	3.4	4	-1E+10	1	-1E+10	1	-1E+10	1	-1E+10	1	-1E+10	1	-1E+10	1
4901784	229	C	10/11/2021	10:49	-136.550	43.203	0	875.50	0	3.8410	0	38.0310	8	30.225	0	866.708	0	10.5	4	3.4	4	-1E+10	1	-1E+10	1	-1E+10	1	-1E+10	1	-1E+10	1	-1E+10	1
4901784	229	C	10/11/2021	10:49	-136.550	43.203	0	880.30	0	3.8260	0	38.0370	8	30.232	0	871.450	0	10.4	4	3.4	4	-1E+10	1	-1E+10	1	-1E+10	1	-1E+10	1	-1E+10	1	-1E+10	1
4901784	229	C	10/11/2021	10:49	-136.550	43.203	0	885.10	0	3.8130	0	38.0420	8	30.237	0	876.192	0	10.3	4	3.3	4	-1E+10	1	-1E+10	1	-1E+10	1	-1E+10	1	-1E+10	1	-1E+10	1
4901784	229	C	10/11/2021	10:49	-136.550	43.203	0	890.00	0	3.8100	0	38.0450	8	30.240	0	881.032	0	10.2	4	3.3	4	-1E+10	1	-1E+10	1	-1E+10	1	-1E+10	1	-1E+10	1	-1E+10	1
4901784	229	C	10/11/2021	10:49	-136.550	43.203	0	894.90	0	3.8010	0	38.0500	8	30.245	0	885.872	0	10.1	4	3.3	4	-1E+10	1	-1E+10	1	-1E+10	1	-1E+10	1	-1E+10	1	-1E+10	1
4901784	229	C	10/11/2021	10:49	-136.550	43.203	0	899.90	0	3.7930	0	38.0540	8	30.249	0	890.811	0	10.0	4	3.3	4	-1E+10	1	-1E+10	1	-1E+10	1	-1E+10	1	-1E+10	1	-1E+10	1
4901784	229	C	10/11/2021	10:49	-136.550	43.203	0	905.00	0	3.7780	0	38.0590	8	30.255	0	895.849	0	10.0	4	3.2	4	-1E+10	1	-1E+10	1	-1E+10	1	-1E+10	1	-1E+10	1	-1E+10	1
4901784	229	C	10/11/2021	10:49	-136.550	43.203	0	909.90	0	3.7620	0	38.0650	8	30.261	0	900.689	0	9.9	4	3.2	4	-1E+10	1	-1E+10	1	-1E+10	1	-1E+10	1	-1E+10	1	-1E+10	1
4901784	229	C	10/11/2021	10:49	-136.550	43.203	0	914.90	0	3.7510	0	38.0680	8	30.265	0	905.627	0	9.9	4	3.2	4	-1E+10	1	-1E+10	1	-1E+10	1	-1E+10	1	-1E+10	1	-1E+10	1
4901784	229	C	10/11/2021	10:49	-136.550	43.203	0	920.00	0	3.7380	0	38.0730	8	30.270	0	910.665	0	9.9	4	3.2	4	-1E+10	1	-1E+10	1	-1E+10	1	-1E+10	1	-1E+10	1	-1E+10	1
4901784	229	C	10/11/2021	10:49	-136.550	43.203	0	925.10	0	3.7320	0	38.0760	8	30.273	0	915.702	0	9.9	4	3.2	4	-1E+10	1	-1E+10	1	-1E+10	1	-1E+10	1	-1E+10	1	-1E+10	1
4901784	229	C	10/11/2021	10:49	-136.550	43.203	0	930.20	0	3.7200	0	38.0780	8	30.276	0	920.739	0	9.9	4	3.2	4	-1E+10	1	-1E+10	1	-1E+10	1	-1E+10	1	-1E+10	1	-1E+10	1
4901784	229	C	10/11/2021	10:49	-136.550	43.203	0	935.30	0	3.7080	0	38.0830	8	30.282	0	925.775	0	9.9	4	3.2	4	-1E+10	1	-1E+10	1	-1E+10	1	-1E+10	1	-1E+10	1	-1E+10	1
4901784	229	C	10/11/2021	10:49	-136.550	43.203	0	940.40	0	3.6820	0	38.0860	8	30.287	0	930.812	0	9.9	4	3.2	4	-1E+10	1	-1E+10	1	-1E+10	1	-1E+10	1	-1E+10	1	-1E+10	1
4901784	229	C	10/11/2021	10:49	-136.550	43.203	0	945.60	0	3.6730	0	38.0890	8	30.290	0	935.948	0	9.9	4	3.2	4	-1E+10	1	-1E+10	1	-1E+10	1	-1E+10	1	-1E+10	1	-1E+10	1
4901784	229	C	10/11/2021	10:49	-136.550	43.203	0	949.90	0	3.6730	0	38.0920	8	30.293	0	940.194	0	9.8	4	3.2	4	-1E+10	1	-1E+10	1	-1E+10	1	-1E+10	1	-1E+10	1	-1E+10	1
4901784	229	C	10/11/2021	10:49	-136.550	43.203	0	954.30	0	3.6760	0	38.0950	8	30.295	0	944.539	0	9.8	4	3.2	4	-1E+10	1	-1E+10	1	-1E+10	1	-1E+10	1	-1E+10	1	-1E+10	1
4901784	229	C	10/11/2021	10:49	-136.550	43.203	0	959.60	0	3.6630	0	38.0970	8	30.298	0	949.773	0	9.8	4	3.2	4	-1E+10	1	-1E+10	1	-1E+10	1	-1E+10	1	-1E+10	1	-1E+10	1
4901784	229	C	10/11/2021	10:49	-136.550	43.203	0	964.90	0	3.6510	0	38.1000	8	30.302	0	955.007	0	9.8	4	3.2	4	-1E+10	1	-1E+10	1	-1E+10	1	-1E+10	1	-1E+10	1	-1E+10	1
4901784	229	C	10/11/2021	10:49	-136.550	43.203	0	970.20	0	3.6290	0	38.1020	8	30.306	0	960.240	0	9.8	4	3.2	4	-1E+10	1	-1E+10	1	-1E+10	1	-1E+10	1	-1E+10	1	-1E+10	1
4901784	229	C	10/11/2021	10:49	-136.550	43.203	0	975.50	0	3.6230	0	38.1060	8	30.310	0	965.473	0	9.8	4	3.2	4	-1E+10	1	-1E+10	1	-1E+10	1	-1E+10	1	-1E+10	1	-1E+10	1
4901784	229	C	10/11/2021	10:49	-136.550	43.203	0	980.00	0	3.6120	0	38.1100	8	30.314	0	969.917	0	9.8	4	3.2	4	-1E+10	1	-1E+10	1	-1E+10	1	-1E+10	1	-1E+10	1	-1E+10	1
4901784	229	C	10/11/2021	10:49	-136.550	43.203	0	984.40	0	3.6080	0	38.1110	8	30.315	0	974.261	0	9.9	4	3.2	4	-1E+10	1	-1E+10	1	-1E+10	1	-1E+10	1	-1E+10	1	-1E+10	1
4901784	229	C	10/11/2021	10:49	-136.550	43.203	0	989.80	0	3.5940	0	38.1140	8	30.319	0	979.593	0	9.9	4	3.2	4	-1E+10	1	-1E+10	1	-1E+10	1	-1E+10	1	-1E+10	1	-1E+10	1
4901784	229	C	10/11/2021	10:49	-136.550	43.203	0	995.10	0	3.5770	0	38.1180	8	30.324	0	984.826	0	9.9	4	3.2	4	-1E+10	1	-1E+10	1	-1E+10	1	-1E+10	1	-1E+10	1	-1E+10	1
4901784	229	C	10/11/2021	10:49	-136.550	43.203	0	1000.50	0	3.5620	0	38.1230	8	30.330	0	990.157	0	9.9	4	3.2	4	-1E+10	1	-1E+10	1	-1E+10	1	-1E+10	1	-1E+10	1	-1E+10	1
4901784	229	C	10/11/2021	10:49	-136.550	43.203	0	1005.00	0	3.5570	0	38.1260	8	30.333	0	994.600	0	10.0	4	3.2	4	-1E+10	1	-1E+10	1	-1E+10	1	-1E+10	1	-1E+10	1	-1E+10	1
4901784	229	C	10/11/2021	10:49	-136.550	43.203	0	1009.50	0	3.5480	0	38.1280	8	30.335	0	999.043	0	10.0	4	3.2	4	-1E+10	1	-1E+10	1	-1E+10	1	-1E+10	1	-1E+10	1	-1E+10	1
4901784	229	C	10/11/2021	10:49	-136.550	43.203	0	1014.90	0	3.5380	0	38.1310	8	30.339	0	1004.374	0	10.0	4	3.2	4	-1E+10	1	-1E+10	1	-1E+10	1	-1E+10	1	-1E+10	1	-1E+10	1
4901784	229	C	10/11/2021	10:49	-136.550	43.203	0	1020.30	0	3.5250	0	38.1340	8	30.343	0	1009.705	0	10.1	4	3.2	4	-1E+10	1	-1E+10	1	-1E+10	1	-1E+10	1	-1E+10	1	-1E+10	1
4901784	229	C	10/11/2021	10:49	-136.550	43.203	0	1025.70	0	3.5120	0	38.1370	8	30.347	0	1015.036	0	10.1	4	3.3	4	-1E+10	1	-1E+10	1	-1E+10	1	-1E+10	1	-1E+10	1	-1E+10	1
4901784	229	C	10/11/2021	10:49	-136.550	43.203	0	1030.20	0	3.5020	0	38.1400	8	30.350	0	1019.478	0	10.2	4	3.3	4	-1E+10	1	-1E+10	1	-1E+10	1	-1E+10	1	-1E+10	1	-1E+10	1
4901784	229	C	10/11/2021	10:49	-136.550	43.203	0	1034.70	0	3.4930	0	38.1430	8	30.353	0	1023.920	0	10.2	4	3.3	4	-1E+10	1	-1E+10	1	-1E+10	1	-1E+10	1	-1E+10	1	-1E+10	1
4901784	229	C	10/11/2021	10:49	-136.550	43.203	0	1040.20	0	3.4790	0	38.1450	8	30.357	0	1029.350	0	10.3	4	3.3	4	-1E+10	1	-1E+10	1	-1E+10	1	-1E+10	1	-1E+10	1	-1E+10	1
4901784	229	C	10/11/2021	10:49	-136.550	43.203	0	1044.80	0	3.4690	0	38.1480	8	30.360	0	1033.890	0	10.3	4	3.3	4	-1E+10	1	-1E+10	1	-1E+10	1	-1E+10	1	-1E+10	1	-1E+10	1
4901784	229	C	10/11/2021	10:49	-136.550	43.203	0	1049.40	0	3.4530	0	38.1520	8	30.365	0	1038.431	0	10.4	4	3.3	4	-1E+10	1	-1E+10	1	-1E+10	1	-1E+10	1	-1E+10	1	-1E+10	1
4901784	229	C	10/11/2021	10:49	-136.550	43.203	0	1054.80	0	3.4410	0	38.1540	8	30.368	0	1043.761	0	10.4	4	3.4	4	-1E+10	1	-1E+10	1	-1E+10	1	-1E+10	1	-1E+10	1	-1E+10	1
4901784	229	C	10/11/2021	10:49	-136.550	43.203	0	1060.20	0	3.4250	0	38.1560	8	30.371	0	1049.091	0	10.5	4	3.4	4	-1E+10	1	-1E+10	1	-1E+10	1	-1E+10	1	-1E+10	1	-1E+10	1
4901784	229	C	10/11/2021	10:49	-136.550	43.203	0	1064.80	0	3.4060	0	38.1590	8	30.376	0	1053.631	0	10.5	4	3.4	4	-1E+10	1	-1E+10	1	-1E+10	1	-1E+10	1	-1E+10	1	-1E+10	1
4901784	229	C	10/11/2021	10:49	-136.550	43.203	0	1069.40	0	3.3920	0	38.1610	8	30.379	0	1058.171	0	10.6	4	3.4	4	-1E+10	1	-1E+10	1	-1E+10	1	-1E+10	1	-1E+10	1	-1E+10	1
4901784	229	C	10/11/2021	10:49	-136.550	43.203	0	1075.00	0	3.3850	0	38.1640	8	30.382	0	1063.698	0	10.7	4	3.4	4	-1E+10	1	-1E+10	1	-1E+10	1	-1E+10	1	-1E+10	1	-1E+10	1
4901784	229	C	10/11/2021	10:49	-136.550	43.203	0	1079.80	0	3.3790	0	38.1670	8	30.385	0	1068.436	0	10.7	4	3.4	4	-1E+10	1	-1E+10	1	-1E+10	1	-1E+10	1	-1E+10	1	-1E+10	1
4901784	229	C	10/11/2021	10:49	-136.550	43.203	0	1085.10	0	3.3770	0	38.1700	8	30.388	0	1073.666	0	10.8	4	3.5	4	-1E+10	1	-1E+10	1	-1E+10	1	-1E+10	1	-1E+10	1	-1E+10	1
4901784	229	C	10/11/2021	10:49	-136.550	43.203	0	1090.60	0	3.3680	0	38.1730	8	30.391	0	1079.094	0	10.9	4	3.5	4	-1E+10	1	-1E+10	1	-1E+10	1	-1E+10	1	-1E+10	1	-1E+10	1
4901784	229	C	10/11/2021	10:49	-136.550	43.203	0	1095.40	0	3.3540	0	38.1760	8	30.395	0	1083.831	0	11.0	4	3.5	4	-1E+10	1	-1E+10	1	-1E+10	1	-1E+10	1	-1E+10	1	-1E+10	1
4901784	229	C	10/11/2021	10:49	-136.550	43.203	0	1100.30	0	3.3430	0	38.1790	8	30.399	0	1088.667	0	11.1	4	3.5	4	-1E+10	1	-1E+10	1	-1E+10	1	-1E+10	1	-1E+10	1	-1E+10	1
4901784	229	C	10/11/2021	10:49	-136.550	43.203	0	1105.20	0	3.3330	0	38.1810	8	30.401	0	1093.502	0	11.2	4	3.6	4	-1E+10	1	-1E+10	1	-1E+10	1	-1E+10	1	-1E+10	1	-1E+10	1
4901784	229	C	10/11/2021	10:49	-136.550	43.203	0	1110.10	0	3.3200	0	38.1840	8	30.405	0	1098.338	0	11.3	4	3.6	4	-1E+10	1	-1E+10	1	-1E+10	1	-1E+10	1	-1E+10	1	-1E+10	1
4901784	229	C	10/11/2021	10:49	-136.550	43.203	0	1115.10	0	3.3060	0	38.1870	8	30.409	0	1103.272	0	11.4	4	3.6	4	-1E+10	1	-1E+10	1	-1E+10	1	-1E+10	1	-1E+10	1	-1E+10	1
4901784	229	C	10/11/2021	10:49	-136.550	43.203	0	1120.10	0	3.2950	0	38.1900	8	30.412	0	1108.205	0	11.5	4	3.7	4	-1E+10	1	-1E+10	1	-1E+10	1	-1E+10	1	-1E+10	1	-1E+10	1
4901784	229	C	10/11/2021	10:49	-136.550	43.203	0	1125.10	0	3.2830	0	38.1940	8	30.417	0	1113.139	0	11.6	4	3.7	4	-1E+10	1	-1E+10	1	-1E+10	1	-1E+10	1	-1E+10	1	-1E+10	1
4901784	229	C	10/11/2021	10:49	-136.550	43.203	0	1130.20	0	3.2730	0	38.1960	8	30.420	0	1118.171	0	11.8	4	3.8	4	-1E+10	1	-1E+10	1	-1E+10	1	-1E+10	1	-1E+10	1	-1E+10	1
4901784	229	C	10/11/2021	10:49	-136.550	43.203	0	1134.80	0	3.2640	0	38.1980	8	30.422	0	1122.710	0	11.9	4	3.8	4	-1E+10	1	-1E+10	1	-1E+10	1	-1E+10	1	-1E+10	1	-1E+10	1
4901784	229	C	10/11/2021	10:49	-136.550	43.203	0	1139.50	0	3.2490	0	38.2020	8	30.427	0	1127.347	0	12.0	4	3.8	4	-1E+10	1	-1E+10	1	-1E+10	1	-1E+10	1	-1E+10	1	-1E+10	1
4901784	229	C	10/11/2021	10:49	-136.550	43.203	0	1145.10	0	3.2360	0	38.2050	8	30.431	0	1132.872	0	12.1	4	3.9	4	-1E+10	1	-1E+10	1	-1E+10	1	-1E+10	1	-1E+10	1	-1E+10	1
4901784	229	C	10/11/2021	10:49	-136.550	43.203	0	1150.30	0	3.2280	0	38.2070	8	30.433	0	1138.003	0	12.2	4	3.9	4	-1E+10	1	-1E+10	1	-1E+10	1	-1E+10	1	-1E+10	1	-1E+10	1
4901784	229	C	10/11/2021	10:49	-136.550	43.203	0	1155.00	0	3.2180	0	38.2090	8	30.436	0	1142.640	0	12.3	4	3.9	4	-1E+10	1	-1E+10	1	-1E+10	1	-1E+10	1	-1E+10	1	-1E+10	1
4901784	229	C	10/11/2021	10:49	-136.550	43.203	0	1160.60	0	3.2070	0	38.2120	8	30.439	0	1148.165	0	12.5	4	4.0	4	-1E+10	1	-1E+10	1	-1E+10	1	-1E+10	1	-1E+10	1	-1E+10	1
4901784	229	C	10/11/2021	10:49	-136.550	43.203	0	1165.40	0	3.1990	0	38.2140	8	30.442	0	1152.900	0	12.6	4	4.0	4	-1E+10	1	-1E+10	1	-1E+10	1	-1E+10	1	-1E+10	1	-1E+10	1
4901784	229	C	10/11/2021	10:49	-136.550	43.203	0	1170.40	0	3.1850	0	38.2180	8	30.447	0	1157.833	0	12.7	4	4.1	4	-1E+10	1	-1E+10	1	-1E+10	1	-1E+10	1	-1E+10	1	-1E+10	1
4901784	229	C	10/11/2021	10:49	-136.550	43.203	0	1175.30	0	3.1770	0	38.2190	8	30.448	0	1162.667	0	12.8	4	4.1	4	-1E+10	1	-1E+10	1	-1E+10	1	-1E+10	1	-1E+10	1	-1E+10	1
4901784	229	C	10/11/2021	10:49	-136.550	43.203	0	1180.30	0	3.1670	0	38.2220	8	30.452	0	1167.599	0	12.9	4	4.1	4	-1E+10	1	-1E+10	1	-1E+10	1	-1E+10	1	-1E+10	1	-1E+10	1
4901784	229	C	10/11/2021	10:49	-136.550	43.203	0	1185.20	0	3.1560	0	38.2240	8	30.454	0	1172.432	0	13.0	4	4.2	4	-1E+10	1	-1E+10	1	-1E+10	1	-1E+10	1	-1E+10	1	-1E+10	1
4901784	229	C	10/11/2021	10:49	-136.550	43.203	0	1190.20	0	3.1490	0	38.2260	8	30.457	0	1177.365	0	13.1	4	4.2	4	-1E+10	1	-1E+10	1	-1E+10	1	-1E+10	1	-1E+10	1	-1E+10	1
4901784	229	C	10/11/2021	10:49	-136.550	43.203	0	1195.30	0	3.1400	0	38.2280	8	30.459	0	1182.395	0	13.2	4	4.2	4	-1E+10	1	-1E+10	1	-1E+10	1	-1E+10	1	-1E+10	1	-1E+10	1
4901784	229	C	10/11/2021	10:49	-136.550	43.203	0	1200.40	0	3.1310	0	38.2300	8	30.462	0	1187.426	0	13.4	4	4.3	4	-1E+10	1	-1E+10	1	-1E+10	1	-1E+10	1	-1E+10	1	-1E+10	1
4901784	229	C	10/11/2021	10:49	-136.550	43.203	0	1205.50	0	3.1210	0	38.2320	8	30.465	0	1192.456	0	13.5	4	4.3	4	-1E+10	1	-1E+10	1	-1E+10	1	-1E+10	1	-1E+10	1	-1E+10	1
4901784	229	C	10/11/2021	10:49	-136.550	43.203	0	1210.70	0	3.1120	0	38.2340	8	30.467	0	1197.585	0	13.6	4	4.3	4	-1E+10	1	-1E+10	1	-1E+10	1	-1E+10	1	-1E+10	1	-1E+10	1
4901784	229	C	10/11/2021	10:49	-136.550	43.203	0	1215.00	0	3.1040	0	38.2360	8	30.470	0	1201.826	0	13.7	4	4.4	4	-1E+10	1	-1E+10	1	-1E+10	1	-1E+10	1	-1E+10	1	-1E+10	1
4901784	229	C	10/11/2021	10:49	-136.550	43.203	0	1219.40	0	3.0970	0	38.2380	8	30.472	0	1206.166	0	13.8	4	4.4	4	-1E+10	1	-1E+10	1	-1E+10	1	-1E+10	1	-1E+10	1	-1E+10	1
4901784	229	C	10/11/2021	10:49	-136.550	43.203	0	1224.70	0	3.0850	0	38.2410	8	30.476	0	1211.393	0	14.0	4	4.4	4	-1E+10	1	-1E+10	1	-1E+10	1	-1E+10	1	-1E+10	1	-1E+10	1
4901784	229	C	10/11/2021	10:49	-136.550	43.203	0	1230.00	0	3.0750	0	38.2420	8	30.477	0	1216.620	0	14.1	4	4.5	4	-1E+10	1	-1E+10	1	-1E+10	1	-1E+10	1	-1E+10	1	-1E+10	1
4901784	229	C	10/11/2021	10:49	-136.550	43.203	0	1235.30	0	3.0640	0	38.2440	8	30.480	0	1221.847	0	14.2	4	4.5	4	-1E+10	1	-1E+10	1	-1E+10	1	-1E+10	1	-1E+10	1	-1E+10	1
4901784	229	C	10/11/2021	10:49	-136.550	43.203	0	1240.60	0	3.0510	0	38.2470	8	30.484	0	1227.074	0	14.4	4	4.6	4	-1E+10	1	-1E+10	1	-1E+10	1	-1E+10	1	-1E+10	1	-1E+10	1
4901784	229	C	10/11/2021	10:49	-136.550	43.203	0	1245.10	0	3.0430	0	38.2490	8	30.486	0	1231.512	0	14.5	4	4.6	4	-1E+10	1	-1E+10	1	-1E+10	1	-1E+10	1	-1E+10	1	-1E+10	1
4901784	229	C	10/11/2021	10:49	-136.550	43.203	0	1249.60	0	3.0350	0	38.2500	8	30.488	0	1235.950	0	14.6	4	4.6	4	-1E+10	1	-1E+10	1	-1E+10	1	-1E+10	1	-1E+10	1	-1E+10	1
4901784	229	C	10/11/2021	10:49	-136.550	43.203	0	1255.00	0	3.0280	0	38.2520	8	30.490	0	1241.275	0	14.8	4	4.7	4	-1E+10	1	-1E+10	1	-1E+10	1	-1E+10	1	-1E+10	1	-1E+10	1
4901784	229	C	10/11/2021	10:49	-136.550	43.203	0	1260.20	0	3.0190	0	38.2540	8	30.493	0	1246.402	0	14.9	4	4.7	4	-1E+10	1	-1E+10	1	-1E+10	1	-1E+10	1	-1E+10	1	-1E+10	1
4901784	229	C	10/11/2021	10:49	-136.550	43.203	0	1265.20	0	3.0100	0	38.2560	8	30.495	0	1251.333	0	15.0	4	4.8	4	-1E+10	1	-1E+10	1	-1E+10	1	-1E+10	1	-1E+10	1	-1E+10	1
4901784	229	C	10/11/2021	10:49	-136.550	43.203	0	1270.30	0	3.0000	0	38.2580	8	30.498	0	1256.362	0	15.2	4	4.8	4	-1E+10	1	-1E+10	1	-1E+10	1	-1E+10	1	-1E+10	1	-1E+10	1
4901784	229	C	10/11/2021	10:49	-136.550	43.203	0	1275.40	0	2.9900	0	38.2600	8	30.501	0	1261.391	0	15.5	4	4.9	4	-1E+10	1	-1E+10	1	-1E+10	1	-1E+10	1	-1E+10	1	-1E+10	1
4901784	229	C	10/11/2021	10:49	-136.550	43.203	0	1280.40	0	2.9710	0	38.2640	8	30.506	0	1266.321	0	15.7	4	5.0	4	-1E+10	1	-1E+10	1	-1E+10	1	-1E+10	1	-1E+10	1	-1E+10	1
4901784	229	C	10/11/2021	10:49	-136.550	43.203	0	1285.50	0	2.9580	0	38.2660	8	30.509	0	1271.349	0	15.9	4	5.1	4	-1E+10	1	-1E+10	1	-1E+10	1	-1E+10	1	-1E+10	1	-1E+10	1
4901784	229	C	10/11/2021	10:49	-136.550	43.203	0	1290.70	0	2.9470	0	38.2680	8	30.512	0	1276.476	0	16.1	4	5.1	4	-1E+10	1	-1E+10	1	-1E+10	1	-1E+10	1	-1E+10	1	-1E+10	1
4901784	229	C	10/11/2021	10:49	-136.550	43.203	0	1295.00	0	2.9330	0	38.2710	8	30.515	0	1280.716	0	16.3	4	5.2	4	-1E+10	1	-1E+10	1	-1E+10	1	-1E+10	1	-1E+10	1	-1E+10	1
4901784	229	C	10/11/2021	10:49	-136.550	43.203	0	1299.30	0	2.9270	0	38.2730	8	30.518	0	1284.955	0	16.3	4	5.2	4	-1E+10	1	-1E+10	1	-1E+10	1	-1E+10	1	-1E+10	1	-1E+10	1
4901784	229	C	10/11/2021	10:49	-136.550	43.203	0	1304.50	0	2.9230	0	38.2740	8	30.519	0	1290.082	0	16.5	4	5.2	4	-1E+10	1	-1E+10	1	-1E+10	1	-1E+10	1	-1E+10	1	-1E+10	1
4901784	229	C	10/11/2021	10:49	-136.550	43.203	0	1309.70	0	2.9170	0	38.2750	8	30.520	0	1295.208	0	16.6	4	5.3	4	-1E+10	1	-1E+10	1	-1E+10	1	-1E+10	1	-1E+10	1	-1E+10	1
4901784	229	C	10/11/2021	10:49	-136.550	43.203	0	1315.00	0	2.9070	0	38.2770	8	30.523	0	1300.433	0	16.8	4	5.3	4	-1E+10	1	-1E+10	1	-1E+10	1	-1E+10	1	-1E+10	1	-1E+10	1
4901784	229	C	10/11/2021	10:49	-136.550	43.203	0	1320.40	0	2.8970	0	38.2790	8	30.526	0	1305.757	0	17.0	4	5.4	4	-1E+10	1	-1E+10	1	-1E+10	1	-1E+10	1	-1E+10	1	-1E+10	1
4901784	229	C	10/11/2021	10:49	-136.550	43.203	0	1324.80	0	2.8890	0	38.2810	8	30.528	0	1310.094	0	17.2	4	5.4	4	-1E+10	1	-1E+10	1	-1E+10	1	-1E+10	1	-1E+10	1	-1E+10	1
4901784	229	C	10/11/2021	10:49	-136.550	43.203	0	1329.30	0	2.8780	0	38.2830	8	30.531	0	1314.530	0	17.4	4	5.5	4	-1E+10	1	-1E+10	1	-1E+10	1	-1E+10	1	-1E+10	1	-1E+10	1
4901784	229	C	10/11/2021	10:49	-136.550	43.203	0	1334.70	0	2.8700	0	38.2840	8	30.532	0	1319.853	0	17.6	4	5.6	4	-1E+10	1	-1E+10	1	-1E+10	1	-1E+10	1	-1E+10	1	-1E+10	1
4901784	229	C	10/11/2021	10:49	-136.550	43.203	0	1340.20	0	2.8590	0	38.2870	8	30.536	0	1325.275	0	17.8	4	5.6	4	-1E+10	1	-1E+10	1	-1E+10	1	-1E+10	1	-1E+10	1	-1E+10	1
4901784	229	C	10/11/2021	10:49	-136.550	43.203	0	1344.70	0	2.8510	0	38.2880	8	30.537	0	1329.711	0	18.0	4	5.7	4	-1E+10	1	-1E+10	1	-1E+10	1	-1E+10	1	-1E+10	1	-1E+10	1
4901784	229	C	10/11/2021	10:49	-136.550	43.203	0	1349.30	0	2.8430	0	38.2900	8	30.540	0	1334.245	0	18.2	4	5.8	4	-1E+10	1	-1E+10	1	-1E+10	1	-1E+10	1	-1E+10	1	-1E+10	1
4901784	229	C	10/11/2021	10:49	-136.550	43.203	0	1354.80	0	2.8340	0	38.2910	8	30.542	0	1339.666	0	18.4	4	5.8	4	-1E+10	1	-1E+10	1	-1E+10	1	-1E+10	1	-1E+10	1	-1E+10	1
4901784	229	C	10/11/2021	10:49	-136.550	43.203	0	1360.30	0	2.8220	0	38.2940	8	30.545	0	1345.087	0	18.6	4	5.9	4	-1E+10	1	-1E+10	1	-1E+10	1	-1E+10	1	-1E+10	1	-1E+10	1
4901784	229	C	10/11/2021	10:49	-136.550	43.203	0	1364.90	0	2.8150	0	38.2950	8	30.547	0	1349.621	0	18.8	4	6.0	4	-1E+10	1	-1E+10	1	-1E+10	1	-1E+10	1	-1E+10	1	-1E+10	1
4901784	229	C	10/11/2021	10:49	-136.550	43.203	0	1369.50	0	2.8040	0	38.2970	8	30.549	0	1354.155	0	19.1	4	6.0	4	-1E+10	1	-1E+10	1	-1E+10	1	-1E+10	1	-1E+10	1	-1E+10	1
4901784	229	C	10/11/2021	10:49	-136.550	43.203	0	1375.00	0	2.7940	0	38.2990	8	30.552	0	1359.575	0	19.3	4	6.1	4	-1E+10	1	-1E+10	1	-1E+10	1	-1E+10	1	-1E+10	1	-1E+10	1
4901784	229	C	10/11/2021	10:49	-136.550	43.203	0	1380.50	0	2.7850	0	38.3010	8	30.555	0	1364.996	0	19.5	4	6.2	4	-1E+10	1	-1E+10	1	-1E+10	1	-1E+10	1	-1E+10	1	-1E+10	1
4901784	229	C	10/11/2021	10:49	-136.550	43.203	0	1385.10	0	2.7770	0	38.3030	8	30.557	0	1369.529	0	19.7	4	6.2	4	-1E+10	1	-1E+10	1	-1E+10	1	-1E+10	1	-1E+10	1	-1E+10	1
4901784	229	C	10/11/2021	10:49	-136.550	43.203	0	1389.70	0	2.7690	0	38.3050	8	30.559	0	1374.062	0	19.9	4	6.3	4	-1E+10	1	-1E+10	1	-1E+10	1	-1E+10	1	-1E+10	1	-1E+10	1
4901784	229	C	10/11/2021	10:49	-136.550	43.203	0	1395.30	0	2.7620	0	38.3060	8	30.561	0	1379.581	0	20.1	4	6.4	4	-1E+10	1	-1E+10	1	-1E+10	1	-1E+10	1	-1E+10	1	-1E+10	1
4901784	229	C	10/11/2021	10:49	-136.550	43.203	0	1400.00	0	2.7550	0	38.3070	8	30.563	0	1384.213	0	20.3	4	6.4	4	-1E+10	1	-1E+10	1	-1E+10	1	-1E+10	1	-1E+10	1	-1E+10	1
4901784	229	C	10/11/2021	10:49	-136.550	43.203	0	1404.70	0	2.7440	0	38.3090	8	30.565	0	1388.844	0	20.6	4	6.5	4	-1E+10	1	-1E+10	1	-1E+10	1	-1E+10	1	-1E+10	1	-1E+10	1
4901784	229	C	10/11/2021	10:49	-136.550	43.203	0	1410.40	0	2.7340	0	38.3110	8	30.568	0	1394.461	0	20.8	4	6.6	4	-1E+10	1	-1E+10	1	-1E+10	1	-1E+10	1	-1E+10	1	-1E+10	1
4901784	229	C	10/11/2021	10:49	-136.550	43.203	0	1415.10	0	2.7260	0	38.3130	8	30.570	0	1399.093	0	21.0	4	6.6	4	-1E+10	1	-1E+10	1	-1E+10	1	-1E+10	1	-1E+10	1	-1E+10	1
4901784	229	C	10/11/2021	10:49	-136.550	43.203	0	1419.90	0	2.7220	0	38.3140	8	30.571	0	1403.822	0	21.2	4	6.7	4	-1E+10	1	-1E+10	1	-1E+10	1	-1E+10	1	-1E+10	1	-1E+10	1
4901784	229	C	10/11/2021	10:49	-136.550	43.203	0	1425.10	0	2.7110	0	38.3150	8	30.573	0	1408.946	0	21.4	4	6.8	4	-1E+10	1	-1E+10	1	-1E+10	1	-1E+10	1	-1E+10	1	-1E+10	1
4901784	229	C	10/11/2021	10:49	-136.550	43.203	0	1429.50	0	2.7000	0	38.3180	8	30.577	0	1413.281	0	21.7	4	6.9	4	-1E+10	1	-1E+10	1	-1E+10	1	-1E+10	1	-1E+10	1	-1E+10	1
4901784	229	C	10/11/2021	10:49	-136.550	43.203	0	1434.30	0	2.6920	0	38.3190	8	30.578	0	1418.011	0	21.9	4	6.9	4	-1E+10	1	-1E+10	1	-1E+10	1	-1E+10	1	-1E+10	1	-1E+10	1
4901784	229	C	10/11/2021	10:49	-136.550	43.203	0	1439.90	0	2.6790	0	38.3220	8	30.582	0	1423.528	0	22.2	4	7.0	4	-1E+10	1	-1E+10	1	-1E+10	1	-1E+10	1	-1E+10	1	-1E+10	1
4901784	229	C	10/11/2021	10:49	-136.550	43.203	0	1445.60	0	2.6710	0	38.3230	8	30.584	0	1429.144	0	22.4	4	7.1	4	-1E+10	1	-1E+10	1	-1E+10	1	-1E+10	1	-1E+10	1	-1E+10	1
4901784	229	C	10/11/2021	10:49	-136.550	43.203	0	1450.50	0	2.6640	0	38.3250	8	30.586	0	1433.972	0	22.6	4	7.1	4	-1E+10	1	-1E+10	1	-1E+10	1	-1E+10	1	-1E+10	1	-1E+10	1
4901784	229	C	10/11/2021	10:49	-136.550	43.203	0	1455.40	0	2.6590	0	38.3260	8	30.587	0	1438.799	0	22.8	4	7.2	4	-1E+10	1	-1E+10	1	-1E+10	1	-1E+10	1	-1E+10	1	-1E+10	1
4901784	229	C	10/11/2021	10:49	-136.550	43.203	0	1460.40	0	2.6530	0	38.3270	8	30.589	0	1443.725	0	23.0	4	7.3	4	-1E+10	1	-1E+10	1	-1E+10	1	-1E+10	1	-1E+10	1	-1E+10	1
4901784	229	C	10/11/2021	10:49	-136.550	43.203	0	1465.30	0	2.6420	0	38.3290	8	30.592	0	1448.553	0	23.3	4	7.3	4	-1E+10	1	-1E+10	1	-1E+10	1	-1E+10	1	-1E+10	1	-1E+10	1
4901784	229	C	10/11/2021	10:49	-136.550	43.203	0	1470.20	0	2.6330	0	38.3300	8	30.593	0	1453.380	0	23.6	4	7.4	4	-1E+10	1	-1E+10	1	-1E+10	1	-1E+10	1	-1E+10	1	-1E+10	1
4901784	229	C	10/11/2021	10:49	-136.550	43.203	0	1475.20	0	2.6240	0	38.3320	8	30.596	0	1458.305	0	23.9	4	7.5	4	-1E+10	1	-1E+10	1	-1E+10	1	-1E+10	1	-1E+10	1	-1E+10	1
4901784	229	C	10/11/2021	10:49	-136.550	43.203	0	1480.10	0	2.6100	0	38.3340	8	30.599	0	1463.132	0	24.1	4	7.6	4	-1E+10	1	-1E+10	1	-1E+10	1	-1E+10	1	-1E+10	1	-1E+10	1
4901784	229	C	10/11/2021	10:49	-136.550	43.203	0	1485.00	0	2.6040	0	38.3360	8	30.601	0	1467.959	0	24.3	4	7.7	4	-1E+10	1	-1E+10	1	-1E+10	1	-1E+10	1	-1E+10	1	-1E+10	1
4901784	229	C	10/11/2021	10:49	-136.550	43.203	0	1490.00	0	2.6000	0	38.3360	8	30.601	0	1472.884	0	24.6	4	7.7	4	-1E+10	1	-1E+10	1	-1E+10	1	-1E+10	1	-1E+10	1	-1E+10	1
4901784	229	C	10/11/2021	10:49	-136.550	43.203	0	1495.00	0	2.5870	0	38.3380	8	30.604	0	1477.809	0	24.9	4	7.8	4	-1E+10	1	-1E+10	1	-1E+10	1	-1E+10	1	-1E+10	1	-1E+10	1
4901784	229	C	10/11/2021	10:49	-136.550	43.203	0	1500.00	0	2.5760	0	38.3400	8	30.607	0	1482.734	0	25.2	4	7.9	4	-1E+10	1	-1E+10	1	-1E+10	1	-1E+10	1	-1E+10	1	-1E+10	1
4901784	229	C	10/11/2021	10:49	-136.550	43.203	0	1505.10	0	2.5700	0	38.3420	8	30.609	0	1487.758	0	25.5	4	8.0	4	-1E+10	1	-1E+10	1	-1E+10	1	-1E+10	1	-1E+10	1	-1E+10	1
4901784	229	C	10/11/2021	10:49	-136.550	43.203	0	1510.10	0	2.5560	0	38.3430	8	30.611	0	1492.682	0	25.9	4	8.2	4	-1E+10	1	-1E+10	1	-1E+10	1	-1E+10	1	-1E+10	1	-1E+10	1
4901784	229	C	10/11/2021	10:49	-136.550	43.203	0	1515.10	0	2.5420	0	38.3460	8	30.615	0	1497.607	0	26.3	4	8.3	4	-1E+10	1	-1E+10	1	-1E+10	1	-1E+10	1	-1E+10	1	-1E+10	1
4901784	229	C	10/11/2021	10:49	-136.550	43.203	0	1520.20	0	2.5280	0	38.3480	8	30.618	0	1502.630	0	26.7	4	8.4	4	-1E+10	1	-1E+10	1	-1E+10	1	-1E+10	1	-1E+10	1	-1E+10	1
4901784	229	C	10/11/2021	10:49	-136.550	43.203	0	1525.30	0	2.5170	0	38.3500	8	30.621	0	1507.653	0	27.0	4	8.5	4	-1E+10	1	-1E+10	1	-1E+10	1	-1E+10	1	-1E+10	1	-1E+10	1
4901784	229	C	10/11/2021	10:49	-136.550	43.203	0	1530.40	0	2.5090	0	38.3510	8	30.622	0	1512.676	0	27.3	4	8.6	4	-1E+10	1	-1E+10	1	-1E+10	1	-1E+10	1	-1E+10	1	-1E+10	1
4901784	229	C	10/11/2021	10:49	-136.550	43.203	0	1535.40	0	2.4990	0	38.3530	8	30.625	0	1517.600	0	27.6	4	8.7	4	-1E+10	1	-1E+10	1	-1E+10	1	-1E+10	1	-1E+10	1	-1E+10	1
4901784	229	C	10/11/2021	10:49	-136.550	43.203	0	1540.50	0	2.4920	0	38.3550	8	30.627	0	1522.622	0	27.8	4	8.7	4	-1E+10	1	-1E+10	1	-1E+10	1	-1E+10	1	-1E+10	1	-1E+10	1
4901784	229	C	10/11/2021	10:49	-136.550	43.203	0	1545.60	0	2.4820	0	38.3570	8	30.630	0	1527.645	0	28.2	4	8.8	4	-1E+10	1	-1E+10	1	-1E+10	1	-1E+10	1	-1E+10	1	-1E+10	1
4901784	229	C	10/11/2021	10:49	-136.550	43.203	0	1550.80	0	2.4730	0	38.3580	8	30.631	0	1532.766	0	28.5	4	8.9	4	-1E+10	1	-1E+10	1	-1E+10	1	-1E+10	1	-1E+10	1	-1E+10	1
4901784	229	C	10/11/2021	10:49	-136.550	43.203	0	1555.10	0	2.4650	0	38.3590	8	30.633	0	1537.000	0	28.7	4	9.0	4	-1E+10	1	-1E+10	1	-1E+10	1	-1E+10	1	-1E+10	1	-1E+10	1
4901784	229	C	10/11/2021	10:49	-136.550	43.203	0	1559.40	0	2.4600	0	38.3600	8	30.634	0	1541.234	0	29.0	4	9.1	4	-1E+10	1	-1E+10	1	-1E+10	1	-1E+10	1	-1E+10	1	-1E+10	1
4901784	229	C	10/11/2021	10:49	-136.550	43.203	0	1564.60	0	2.4510	0	38.3620	8	30.637	0	1546.355	0	29.3	4	9.2	4	-1E+10	1	-1E+10	1	-1E+10	1	-1E+10	1	-1E+10	1	-1E+10	1
4901784	229	C	10/11/2021	10:49	-136.550	43.203	0	1569.70	0	2.4400	0	38.3640	8	30.639	0	1551.376	0	29.7	4	9.3	4	-1E+10	1	-1E+10	1	-1E+10	1	-1E+10	1	-1E+10	1	-1E+10	1
4901784	229	C	10/11/2021	10:49	-136.550	43.203	0	1574.90	0	2.4350	0	38.3650	8	30.641	0	1556.497	0	29.9	4	9.4	4	-1E+10	1	-1E+10	1	-1E+10	1	-1E+10	1	-1E+10	1	-1E+10	1
4901784	229	C	10/11/2021	10:49	-136.550	43.203	0	1580.10	0	2.4250	0	38.3670	8	30.643	0	1561.617	0	30.2	4	9.5	4	-1E+10	1	-1E+10	1	-1E+10	1	-1E+10	1	-1E+10	1	-1E+10	1
4901784	229	C	10/11/2021	10:49	-136.550	43.203	0	1585.30	0	2.4190	0	38.3680	8	30.645	0	1566.737	0	30.5	4	9.6	4	-1E+10	1	-1E+10	1	-1E+10	1	-1E+10	1	-1E+10	1	-1E+10	1
4901784	229	C	10/11/2021	10:49	-136.550	43.203	0	1590.60	0	2.4100	0	38.3690	8	30.646	0	1571.955	0	30.9	4	9.7	4	-1E+10	1	-1E+10	1	-1E+10	1	-1E+10	1	-1E+10	1	-1E+10	1
4901784	229	C	10/11/2021	10:49	-136.550	43.203	0	1595.00	0	2.4010	0	38.3710	8	30.649	0	1576.287	0	31.3	4	9.8	4	-1E+10	1	-1E+10	1	-1E+10	1	-1E+10	1	-1E+10	1	-1E+10	1
4901784	229	C	10/11/2021	10:49	-136.550	43.203	0	1599.40	0	2.3940	0	38.3730	8	30.651	0	1580.619	0	31.6	4	9.9	4	-1E+10	1	-1E+10	1	-1E+10	1	-1E+10	1	-1E+10	1	-1E+10	1
4901784	229	C	10/11/2021	10:49	-136.550	43.203	0	1604.70	0	2.3850	0	38.3740	8	30.653	0	1585.837	0	31.9	4	10.0	4	-1E+10	1	-1E+10	1	-1E+10	1	-1E+10	1	-1E+10	1	-1E+10	1
4901784	229	C	10/11/2021	10:49	-136.550	43.203	0	1609.90	0	2.3750	0	38.3760	8	30.655	0	1590.956	0	32.3	4	10.1	4	-1E+10	1	-1E+10	1	-1E+10	1	-1E+10	1	-1E+10	1	-1E+10	1
4901784	229	C	10/11/2021	10:49	-136.550	43.203	0	1615.20	0	2.3640	0	38.3780	8	30.658	0	1596.174	0	32.6	4	10.2	4	-1E+10	1	-1E+10	1	-1E+10	1	-1E+10	1	-1E+10	1	-1E+10	1
4901784	229	C	10/11/2021	10:49	-136.550	43.203	0	1620.60	0	2.3550	0	38.3800	8	30.661	0	1601.490	0	33.0	4	10.3	4	-1E+10	1	-1E+10	1	-1E+10	1	-1E+10	1	-1E+10	1	-1E+10	1
4901784	229	C	10/11/2021	10:49	-136.550	43.203	0	1625.00	0	2.3480	0	38.3810	8	30.662	0	1605.821	0	33.3	4	10.4	4	-1E+10	1	-1E+10	1	-1E+10	1	-1E+10	1	-1E+10	1	-1E+10	1
4901784	229	C	10/11/2021	10:49	-136.550	43.203	0	1629.50	0	2.3420	0	38.3820	8	30.663	0	1610.251	0	33.6	4	10.5	4	-1E+10	1	-1E+10	1	-1E+10	1	-1E+10	1	-1E+10	1	-1E+10	1
4901784	229	C	10/11/2021	10:49	-136.550	43.203	0	1634.90	0	2.3350	0	38.3830	8	30.665	0	1615.567	0	34.0	4	10.6	4	-1E+10	1	-1E+10	1	-1E+10	1	-1E+10	1	-1E+10	1	-1E+10	1
4901784	229	C	10/11/2021	10:49	-136.550	43.203	0	1640.40	0	2.3230	0	38.3850	8	30.668	0	1620.981	0	34.4	4	10.8	4	-1E+10	1	-1E+10	1	-1E+10	1	-1E+10	1	-1E+10	1	-1E+10	1
4901784	229	C	10/11/2021	10:49	-136.550	43.203	0	1645.00	0	2.3130	0	38.3880	8	30.671	0	1625.509	0	34.8	4	10.9	4	-1E+10	1	-1E+10	1	-1E+10	1	-1E+10	1	-1E+10	1	-1E+10	1
4901784	229	C	10/11/2021	10:49	-136.550	43.203	0	1650.20	0	2.3050	0	38.3890	8	30.673	0	1630.627	0	35.1	4	11.0	4	-1E+10	1	-1E+10	1	-1E+10	1	-1E+10	1	-1E+10	1	-1E+10	1
4901784	229	C	10/11/2021	10:49	-136.550	43.203	0	1655.30	0	2.2970	0	38.3910	8	30.675	0	1635.647	0	35.5	4	11.1	4	-1E+10	1	-1E+10	1	-1E+10	1	-1E+10	1	-1E+10	1	-1E+10	1
4901784	229	C	10/11/2021	10:49	-136.550	43.203	0	1660.20	0	2.2910	0	38.3920	8	30.676	0	1640.470	0	35.8	4	11.2	4	-1E+10	1	-1E+10	1	-1E+10	1	-1E+10	1	-1E+10	1	-1E+10	1
4901784	229	C	10/11/2021	10:49	-136.550	43.203	0	1664.90	0	2.2860	0	38.3930	8	30.678	0	1645.096	0	36.0	4	11.3	4	-1E+10	1	-1E+10	1	-1E+10	1	-1E+10	1	-1E+10	1	-1E+10	1
4901784	229	C	10/11/2021	10:49	-136.550	43.203	0	1669.80	0	2.2800	0	38.3940	8	30.679	0	1649.918	0	36.3	4	11.3	4	-1E+10	1	-1E+10	1	-1E+10	1	-1E+10	1	-1E+10	1	-1E+10	1
4901784	229	C	10/11/2021	10:49	-136.550	43.203	0	1674.70	0	2.2760	0	38.3950	8	30.680	0	1654.741	0	36.5	4	11.4	4	-1E+10	1	-1E+10	1	-1E+10	1	-1E+10	1	-1E+10	1	-1E+10	1
4901784	229	C	10/11/2021	10:49	-136.550	43.203	0	1679.50	0	2.2700	0	38.3960	8	30.682	0	1659.465	0	36.9	4	11.5	4	-1E+10	1	-1E+10	1	-1E+10	1	-1E+10	1	-1E+10	1	-1E+10	1
4901784	229	C	10/11/2021	10:49	-136.550	43.203	0	1684.50	0	2.2610	0	38.3980	8	30.684	0	1664.385	0	37.3	4	11.6	4	-1E+10	1	-1E+10	1	-1E+10	1	-1E+10	1	-1E+10	1	-1E+10	1
4901784	229	C	10/11/2021	10:49	-136.550	43.203	0	1689.40	0	2.2520	0	38.4000	8	30.687	0	1669.208	0	37.6	4	11.7	4	-1E+10	1	-1E+10	1	-1E+10	1	-1E+10	1	-1E+10	1	-1E+10	1
4901784	229	C	10/11/2021	10:49	-136.550	43.203	0	1694.40	0	2.2440	0	38.4010	8	30.688	0	1674.128	0	37.8	4	11.8	4	-1E+10	1	-1E+10	1	-1E+10	1	-1E+10	1	-1E+10	1	-1E+10	1
4901784	229	C	10/11/2021	10:49	-136.550	43.203	0	1699.40	0	2.2390	0	38.4020	8	30.689	0	1679.049	0	38.0	4	11.9	4	-1E+10	1	-1E+10	1	-1E+10	1	-1E+10	1	-1E+10	1	-1E+10	1
4901784	229	C	10/11/2021	10:49	-136.550	43.203	0	1704.40	0	2.2320	0	38.4040	8	30.692	0	1683.969	0	38.3	4	12.0	4	-1E+10	1	-1E+10	1	-1E+10	1	-1E+10	1	-1E+10	1	-1E+10	1
4901784	229	C	10/11/2021	10:49	-136.550	43.203	0	1709.40	0	2.2240	0	38.4050	8	30.693	0	1688.889	0	38.7	4	12.1	4	-1E+10	1	-1E+10	1	-1E+10	1	-1E+10	1	-1E+10	1	-1E+10	1
4901784	229	C	10/11/2021	10:49	-136.550	43.203	0	1714.60	0	2.2160	0	38.4070	8	30.696	0	1694.006	0	38.9	4	12.2	4	-1E+10	1	-1E+10	1	-1E+10	1	-1E+10	1	-1E+10	1	-1E+10	1
4901784	229	C	10/11/2021	10:49	-136.550	43.203	0	1719.60	0	2.2090	0	38.4080	8	30.697	0	1698.926	0	39.1	4	12.2	4	-1E+10	1	-1E+10	1	-1E+10	1	-1E+10	1	-1E+10	1	-1E+10	1
4901784	229	C	10/11/2021	10:49	-136.550	43.203	0	1724.80	0	2.2020	0	38.4090	8	30.699	0	1704.042	0	39.2	4	12.2	4	-1E+10	1	-1E+10	1	-1E+10	1	-1E+10	1	-1E+10	1	-1E+10	1
4901784	229	C	10/11/2021	10:49	-136.550	43.203	0	1730.10	0	2.1950	0	38.4100	8	30.700	0	1709.257	0	39.6	4	12.3	4	-1E+10	1	-1E+10	1	-1E+10	1	-1E+10	1	-1E+10	1	-1E+10	1
4901784	229	C	10/11/2021	10:49	-136.550	43.203	0	1735.30	0	2.1900	0	38.4120	8	30.702	0	1714.374	0	39.8	4	12.4	4	-1E+10	1	-1E+10	1	-1E+10	1	-1E+10	1	-1E+10	1	-1E+10	1
4901784	229	C	10/11/2021	10:49	-136.550	43.203	0	1740.60	0	2.1830	0	38.4130	8	30.704	0	1719.588	0	39.9	4	12.5	4	-1E+10	1	-1E+10	1	-1E+10	1	-1E+10	1	-1E+10	1	-1E+10	1
4901784	229	C	10/11/2021	10:49	-136.550	43.203	0	1745.00	0	2.1760	0	38.4140	8	30.705	0	1723.917	0	40.0	4	12.5	4	-1E+10	1	-1E+10	1	-1E+10	1	-1E+10	1	-1E+10	1	-1E+10	1
4901784	229	C	10/11/2021	10:49	-136.550	43.203	0	1749.40	0	2.1720	0	38.4150	8	30.706	0	1728.246	0	40.0	4	12.5	4	-1E+10	1	-1E+10	1	-1E+10	1	-1E+10	1	-1E+10	1	-1E+10	1
4901784	229	C	10/11/2021	10:49	-136.550	43.203	0	1754.70	0	2.1680	0	38.4160	8	30.707	0	1733.460	0	40.2	4	12.5	4	-1E+10	1	-1E+10	1	-1E+10	1	-1E+10	1	-1E+10	1	-1E+10	1
4901784	229	C	10/11/2021	10:49	-136.550	43.203	0	1760.10	0	2.1620	0	38.4170	8	30.709	0	1738.773	0	40.4	4	12.6	4	-1E+10	1	-1E+10	1	-1E+10	1	-1E+10	1	-1E+10	1	-1E+10	1
4901784	229	C	10/11/2021	10:49	-136.550	43.203	0	1765.60	0	2.1580	0	38.4180	8	30.710	0	1744.184	0	40.8	4	12.7	4	-1E+10	1	-1E+10	1	-1E+10	1	-1E+10	1	-1E+10	1	-1E+10	1
4901784	229	C	10/11/2021	10:49	-136.550	43.203	0	1770.10	0	2.1530	0	38.4190	8	30.711	0	1748.611	0	41.4	4	12.9	4	-1E+10	1	-1E+10	1	-1E+10	1	-1E+10	1	-1E+10	1	-1E+10	1
4901784	229	C	10/11/2021	10:49	-136.550	43.203	0	1774.90	0	2.1490	0	38.4200	8	30.713	0	1753.333	0	41.9	4	13.1	4	-1E+10	1	-1E+10	1	-1E+10	1	-1E+10	1	-1E+10	1	-1E+10	1
4901784	229	C	10/11/2021	10:49	-136.550	43.203	0	1780.10	0	2.1430	0	38.4220	8	30.715	0	1758.448	0	42.2	4	13.2	4	-1E+10	1	-1E+10	1	-1E+10	1	-1E+10	1	-1E+10	1	-1E+10	1
4901784	229	C	10/11/2021	10:49	-136.550	43.203	0	1784.90	0	2.1350	0	38.4230	8	30.716	0	1763.170	0	42.3	4	13.2	4	-1E+10	1	-1E+10	1	-1E+10	1	-1E+10	1	-1E+10	1	-1E+10	1
4901784	229	C	10/11/2021	10:49	-136.550	43.203	0	1789.70	0	2.1280	0	38.4250	8	30.719	0	1767.891	0	42.4	4	13.2	4	-1E+10	1	-1E+10	1	-1E+10	1	-1E+10	1	-1E+10	1	-1E+10	1
4901784	229	C	10/11/2021	10:49	-136.550	43.203	0	1794.60	0	2.1250	0	38.4260	8	30.720	0	1772.711	0	42.8	4	13.3	4	-1E+10	1	-1E+10	1	-1E+10	1	-1E+10	1	-1E+10	1	-1E+10	1
4901784	229	C	10/11/2021	10:49	-136.550	43.203	0	1799.50	0	2.1200	0	38.4270	8	30.721	0	1777.531	0	43.4	4	13.5	4	-1E+10	1	-1E+10	1	-1E+10	1	-1E+10	1	-1E+10	1	-1E+10	1
4901784	229	C	10/11/2021	10:49	-136.550	43.203	0	1804.50	0	2.1160	0	38.4280	8	30.722	0	1782.449	0	44.1	4	13.7	4	-1E+10	1	-1E+10	1	-1E+10	1	-1E+10	1	-1E+10	1	-1E+10	1
4901784	229	C	10/11/2021	10:49	-136.550	43.203	0	1809.40	0	2.1100	0	38.4290	8	30.724	0	1787.268	0	44.4	4	13.8	4	-1E+10	1	-1E+10	1	-1E+10	1	-1E+10	1	-1E+10	1	-1E+10	1
4901784	229	C	10/11/2021	10:49	-136.550	43.203	0	1814.40	0	2.1050	0	38.4310	8	30.726	0	1792.186	0	44.7	4	13.9	4	-1E+10	1	-1E+10	1	-1E+10	1	-1E+10	1	-1E+10	1	-1E+10	1
4901784	229	C	10/11/2021	10:49	-136.550	43.203	0	1819.40	0	2.1010	0	38.4310	8	30.726	0	1797.104	0	45.0	4	14.0	4	-1E+10	1	-1E+10	1	-1E+10	1	-1E+10	1	-1E+10	1	-1E+10	1
4901784	229	C	10/11/2021	10:49	-136.550	43.203	0	1824.50	0	2.0970	0	38.4320	8	30.727	0	1802.120	0	45.5	4	14.2	4	-1E+10	1	-1E+10	1	-1E+10	1	-1E+10	1	-1E+10	1	-1E+10	1
4901784	229	C	10/11/2021	10:49	-136.550	43.203	0	1829.60	0	2.0910	0	38.4340	8	30.729	0	1807.135	0	46.0	4	14.3	4	-1E+10	1	-1E+10	1	-1E+10	1	-1E+10	1	-1E+10	1	-1E+10	1
4901784	229	C	10/11/2021	10:49	-136.550	43.203	0	1834.70	0	2.0870	0	38.4350	8	30.731	0	1812.151	0	46.2	4	14.4	4	-1E+10	1	-1E+10	1	-1E+10	1	-1E+10	1	-1E+10	1	-1E+10	1
4901784	229	C	10/11/2021	10:49	-136.550	43.203	0	1839.80	0	2.0830	0	38.4360	8	30.732	0	1817.167	0	46.4	4	14.4	4	-1E+10	1	-1E+10	1	-1E+10	1	-1E+10	1	-1E+10	1	-1E+10	1
4901784	229	C	10/11/2021	10:49	-136.550	43.203	0	1845.00	0	2.0800	0	38.4370	8	30.733	0	1822.280	0	46.6	4	14.5	4	-1E+10	1	-1E+10	1	-1E+10	1	-1E+10	1	-1E+10	1	-1E+10	1
4901784	229	C	10/11/2021	10:49	-136.550	43.203	0	1850.10	0	2.0770	0	38.4370	8	30.733	0	1827.296	0	46.7	4	14.5	4	-1E+10	1	-1E+10	1	-1E+10	1	-1E+10	1	-1E+10	1	-1E+10	1
4901784	229	C	10/11/2021	10:49	-136.550	43.203	0	1855.30	0	2.0720	0	38.4390	8	30.735	0	1832.409	0	46.9	4	14.6	4	-1E+10	1	-1E+10	1	-1E+10	1	-1E+10	1	-1E+10	1	-1E+10	1
4901784	229	C	10/11/2021	10:49	-136.550	43.203	0	1860.50	0	2.0690	0	38.4390	8	30.736	0	1837.523	0	47.3	4	14.7	4	-1E+10	1	-1E+10	1	-1E+10	1	-1E+10	1	-1E+10	1	-1E+10	1
4901784	229	C	10/11/2021	10:49	-136.550	43.203	0	1865.70	0	2.0650	0	38.4400	8	30.737	0	1842.636	0	47.9	4	14.9	4	-1E+10	1	-1E+10	1	-1E+10	1	-1E+10	1	-1E+10	1	-1E+10	1
4901784	229	C	10/11/2021	10:49	-136.550	43.203	0	1870.10	0	2.0610	0	38.4410	8	30.738	0	1846.962	0	48.4	4	15.0	4	-1E+10	1	-1E+10	1	-1E+10	1	-1E+10	1	-1E+10	1	-1E+10	1
4901784	229	C	10/11/2021	10:49	-136.550	43.203	0	1874.50	0	2.0560	0	38.4420	8	30.739	0	1851.289	0	48.8	4	15.2	4	-1E+10	1	-1E+10	1	-1E+10	1	-1E+10	1	-1E+10	1	-1E+10	1
4901784	229	C	10/11/2021	10:49	-136.550	43.203	0	1879.80	0	2.0490	0	38.4430	8	30.741	0	1856.500	0	49.2	4	15.3	4	-1E+10	1	-1E+10	1	-1E+10	1	-1E+10	1	-1E+10	1	-1E+10	1
4901784	229	C	10/11/2021	10:49	-136.550	43.203	0	1885.20	0	2.0450	0	38.4450	8	30.743	0	1861.809	0	49.4	4	15.3	4	-1E+10	1	-1E+10	1	-1E+10	1	-1E+10	1	-1E+10	1	-1E+10	1
4901784	229	C	10/11/2021	10:49	-136.550	43.203	0	1890.60	0	2.0400	0	38.4450	8	30.743	0	1867.119	0	49.5	4	15.4	4	-1E+10	1	-1E+10	1	-1E+10	1	-1E+10	1	-1E+10	1	-1E+10	1
4901784	229	C	10/11/2021	10:49	-136.550	43.203	0	1895.10	0	2.0360	0	38.4470	8	30.745	0	1871.543	0	49.7	4	15.4	4	-1E+10	1	-1E+10	1	-1E+10	1	-1E+10	1	-1E+10	1	-1E+10	1
4901784	229	C	10/11/2021	10:49	-136.550	43.203	0	1899.60	0	2.0330	0	38.4470	8	30.745	0	1875.967	0	50.0	4	15.5	4	-1E+10	1	-1E+10	1	-1E+10	1	-1E+10	1	-1E+10	1	-1E+10	1
4901784	229	C	10/11/2021	10:49	-136.550	43.203	0	1905.10	0	2.0290	0	38.4480	8	30.747	0	1881.375	0	50.5	4	15.7	4	-1E+10	1	-1E+10	1	-1E+10	1	-1E+10	1	-1E+10	1	-1E+10	1
4901784	229	C	10/11/2021	10:49	-136.550	43.203	0	1910.50	0	2.0230	0	38.4500	8	30.749	0	1886.683	0	50.9	4	15.8	4	-1E+10	1	-1E+10	1	-1E+10	1	-1E+10	1	-1E+10	1	-1E+10	1
4901784	229	C	10/11/2021	10:49	-136.550	43.203	0	1915.00	0	2.0200	0	38.4500	8	30.749	0	1891.107	0	51.2	4	15.9	4	-1E+10	1	-1E+10	1	-1E+10	1	-1E+10	1	-1E+10	1	-1E+10	1
4901784	229	C	10/11/2021	10:49	-136.550	43.203	0	1919.90	0	2.0150	0	38.4510	8	30.750	0	1895.924	0	51.5	4	16.0	4	-1E+10	1	-1E+10	1	-1E+10	1	-1E+10	1	-1E+10	1	-1E+10	1
4901784	229	C	10/11/2021	10:49	-136.550	43.203	0	1925.10	0	2.0130	0	38.4520	8	30.751	0	1901.036	0	51.8	4	16.1	4	-1E+10	1	-1E+10	1	-1E+10	1	-1E+10	1	-1E+10	1	-1E+10	1
4901784	229	C	10/11/2021	10:49	-136.550	43.203	0	1929.90	0	2.0070	0	38.4530	8	30.753	0	1905.755	0	52.2	4	16.2	4	-1E+10	1	-1E+10	1	-1E+10	1	-1E+10	1	-1E+10	1	-1E+10	1
4901784	229	C	10/11/2021	10:49	-136.550	43.203	0	1934.70	0	2.0040	0	38.4540	8	30.754	0	1910.473	0	52.4	4	16.3	4	-1E+10	1	-1E+10	1	-1E+10	1	-1E+10	1	-1E+10	1	-1E+10	1
4901784	229	C	10/11/2021	10:49	-136.550	43.203	0	1939.60	0	2.0010	0	38.4550	8	30.755	0	1915.290	0	52.6	4	16.3	4	-1E+10	1	-1E+10	1	-1E+10	1	-1E+10	1	-1E+10	1	-1E+10	1
4901784	229	C	10/11/2021	10:49	-136.550	43.203	0	1944.50	0	2.0000	0	38.4550	8	30.755	0	1920.106	0	52.7	4	16.4	4	-1E+10	1	-1E+10	1	-1E+10	1	-1E+10	1	-1E+10	1	-1E+10	1
4901784	229	C	10/11/2021	10:49	-136.550	43.203	0	1949.50	0	1.9980	0	38.4560	8	30.756	0	1925.021	0	52.9	4	16.4	4	-1E+10	1	-1E+10	1	-1E+10	1	-1E+10	1	-1E+10	1	-1E+10	1
4901784	229	C	10/11/2021	10:49	-136.550	43.203	0	1954.40	0	1.9960	0	38.4560	8	30.756	0	1929.837	0	53.0	4	16.5	4	-1E+10	1	-1E+10	1	-1E+10	1	-1E+10	1	-1E+10	1	-1E+10	1
4901784	229	C	10/11/2021	10:49	-136.550	43.203	0	1959.30	0	1.9930	0	38.4570	8	30.757	0	1934.654	0	53.3	4	16.5	4	-1E+10	1	-1E+10	1	-1E+10	1	-1E+10	1	-1E+10	1	-1E+10	1
4901784	229	C	10/11/2021	10:49	-136.550	43.203	0	1964.30	0	1.9910	0	38.4570	8	30.758	0	1939.568	0	53.6	4	16.6	4	-1E+10	1	-1E+10	1	-1E+10	1	-1E+10	1	-1E+10	1	-1E+10	1
4901784	229	C	10/11/2021	10:49	-136.550	43.203	0	1969.40	0	1.9870	0	38.4580	8	30.759	0	1944.580	0	53.9	4	16.7	4	-1E+10	1	-1E+10	1	-1E+10	1	-1E+10	1	-1E+10	1	-1E+10	1
4901784	229	C	10/11/2021	10:49	-136.550	43.203	0	1974.40	0	1.9820	0	38.4590	8	30.760	0	1949.494	0	54.2	4	16.8	4	-1E+10	1	-1E+10	1	-1E+10	1	-1E+10	1	-1E+10	1	-1E+10	1
4901784	229	C	10/11/2021	10:49	-136.550	43.203	0	1979.50	0	1.9770	0	38.4610	8	30.762	0	1954.507	0	54.6	4	16.9	4	-1E+10	1	-1E+10	1	-1E+10	1	-1E+10	1	-1E+10	1	-1E+10	1
4901784	229	C	10/11/2021	10:49	-136.550	43.203	0	1984.60	0	1.9740	0	38.4610	8	30.763	0	1959.519	0	54.9	4	17.0	4	-1E+10	1	-1E+10	1	-1E+10	1	-1E+10	1	-1E+10	1	-1E+10	1
4901784	229	C	10/11/2021	10:49	-136.550	43.203	0	1989.80	0	1.9710	0	38.4620	8	30.764	0	1964.629	0	55.2	4	17.1	4	-1E+10	1	-1E+10	1	-1E+10	1	-1E+10	1	-1E+10	1	-1E+10	1
4901784	229	C	10/11/2021	10:49	-136.550	43.203	0	1994.90	0	1.9660	0	38.4630	8	30.765	0	1969.641	0	55.4	4	17.2	4	-1E+10	1	-1E+10	1	-1E+10	1	-1E+10	1	-1E+10	1	-1E+10	1
4901784	229	C	10/11/2021	10:49	-136.550	43.203	0	2000.20	0	1.9640	0	38.4640	8	30.766	0	1974.849	0	55.6	4	17.3	4	-1E+10	1	-1E+10	1	-1E+10	1	-1E+10	1	-1E+10	1	-1E+10	1
4901784	229	C	10/11/2021	10:49	-136.550	43.203	0	2005.50	0	1.9610	0	38.4640	8	30.766	0	1980.058	0	55.9	4	17.3	4	-1E+10	1	-1E+10	1	-1E+10	1	-1E+10	1	-1E+10	1	-1E+10	1
4901784	229	C	10/11/2021	10:49	-136.550	43.203	0	2010.30	0	1.9590	0	38.4650	8	30.767	0	1984.775	0	56.0	4	17.4	4	-1E+10	1	-1E+10	1	-1E+10	1	-1E+10	1	-1E+10	1	-1E+10	1
4901784	229	C	10/11/2021	10:49	-136.550	43.203	0	2015.00	0	1.9580	0	38.4660	8	30.768	0	1989.393	0	56.1	4	17.4	4	-1E+10	1	-1E+10	1	-1E+10	1	-1E+10	1	-1E+10	1	-1E+10	1
4901784	229	C	10/11/2021	10:49	-136.550	43.203	0	2020.50	0	1.9560	0	38.4660	8	30.768	0	1994.797	0	56.3	4	17.5	4	-1E+10	1	-1E+10	1	-1E+10	1	-1E+10	1	-1E+10	1	-1E+10	1
4901784	229	C	10/11/2021	10:49	-136.550	43.203	0																										
4901784	230	C	10/21/2021	10:49	-136.563	43.256	0	2.90	0	15.6990	0	36.1150	8	26.676	0	2.877	0	232.1	4	95.7	4	-1E+10	1	-1E+10	1	-1E+10	1	-1E+10	1	-1E+10	1	-1E+10	1
4901784	230	C	10/21/2021	10:49	-136.563	43.256	0	4.30	0	15.7050	0	36.1160	8	26.675	0	4.266	0	231.9	4	95.6	4	-1E+10	1	-1E+10	1	-1E+10	1	-1E+10	1	-1E+10	1	-1E+10	1
4901784	230	C	10/21/2021	10:49	-136.563	43.256	0	5.90	0	15.7000	0	36.1170	8	26.677	0	5.853	0	232.0	4	95.6	4	-1E+10	1	-1E+10	1	-1E+10	1	-1E+10	1	-1E+10	1	-1E+10	1
4901784	230	C	10/21/2021	10:49	-136.563	43.256	0	7.80	0	15.7010	0	36.1180	8	26.678	0	7.738	0	231.7	4	95.5	4	-1E+10	1	-1E+10	1	-1E+10	1	-1E+10	1	-1E+10	1	-1E+10	1
4901784	230	C	10/21/2021	10:49	-136.563	43.256	0	9.70	0	15.7000	0	36.1190	8	26.679	0	9.623	0	231.7	4	95.5	4	-1E+10	1	-1E+10	1	-1E+10	1	-1E+10	1	-1E+10	1	-1E+10	1
4901784	230	C	10/21/2021	10:49	-136.563	43.256	0	11.70	0	15.6980	0	36.1210	8	26.681	0	11.607	0	231.7	4	95.5	4	-1E+10	1	-1E+10	1	-1E+10	1	-1E+10	1	-1E+10	1	-1E+10	1
4901784	230	C	10/21/2021	10:49	-136.563	43.256	0	13.60	0	15.6950	0	36.1230	8	26.683	0	13.491	0	231.6	4	95.5	4	-1E+10	1	-1E+10	1	-1E+10	1	-1E+10	1	-1E+10	1	-1E+10	1
4901784	230	C	10/21/2021	10:49	-136.563	43.256	0	15.50	0	15.6970	0	36.1240	8	26.684	0	15.376	0	231.4	4	95.4	4	-1E+10	1	-1E+10	1	-1E+10	1	-1E+10	1	-1E+10	1	-1E+10	1
4901784	230	C	10/21/2021	10:49	-136.563	43.256	0	17.20	0	15.7020	0	36.1240	8	26.683	0	17.062	0	231.3	4	95.4	4	-1E+10	1	-1E+10	1	-1E+10	1	-1E+10	1	-1E+10	1	-1E+10	1
4901784	230	C	10/21/2021	10:49	-136.563	43.256	0	19.10	0	15.7040	0	36.1250	8	26.683	0	18.947	0	231.4	4	95.4	4	-1E+10	1	-1E+10	1	-1E+10	1	-1E+10	1	-1E+10	1	-1E+10	1
4901784	230	C	10/21/2021	10:49	-136.563	43.256	0	20.90	0	15.7020	0	36.1270	8	26.685	0	20.733	0	231.3	4	95.4	4	-1E+10	1	-1E+10	1	-1E+10	1	-1E+10	1	-1E+10	1	-1E+10	1
4901784	230	C	10/21/2021	10:49	-136.563	43.256	0	22.90	0	15.7030	0	36.1270	8	26.685	0	22.717	0	231.2	4	95.3	4	-1E+10	1	-1E+10	1	-1E+10	1	-1E+10	1	-1E+10	1	-1E+10	1
4901784	230	C	10/21/2021	10:49	-136.563	43.256	0	24.90	0	15.7010	0	36.1280	8	26.686	0	24.700	0	231.1	4	95.3	4	-1E+10	1	-1E+10	1	-1E+10	1	-1E+10	1	-1E+10	1	-1E+10	1
4901784	230	C	10/21/2021	10:49	-136.563	43.256	0	26.80	0	15.6960	0	36.1320	8	26.690	0	26.585	0	231.2	4	95.3	4	-1E+10	1	-1E+10	1	-1E+10	1	-1E+10	1	-1E+10	1	-1E+10	1
4901784	230	C	10/21/2021	10:49	-136.563	43.256	0	28.70	0	15.6970	0	36.1300	8	26.689	0	28.470	0	231.3	4	95.3	4	-1E+10	1	-1E+10	1	-1E+10	1	-1E+10	1	-1E+10	1	-1E+10	1
4901784	230	C	10/21/2021	10:49	-136.563	43.256	0	30.50	0	15.6890	0	36.1310	8	26.691	0	30.255	0	231.3	4	95.3	4	-1E+10	1	-1E+10	1	-1E+10	1	-1E+10	1	-1E+10	1	-1E+10	1
4901784	230	C	10/21/2021	10:49	-136.563	43.256	0	32.40	0	15.6930	0	36.1310	8	26.690	0	32.140	0	231.3	4	95.3	4	-1E+10	1	-1E+10	1	-1E+10	1	-1E+10	1	-1E+10	1	-1E+10	1
4901784	230	C	10/21/2021	10:49	-136.563	43.256	0	34.20	0	15.6840	0	36.1290	8	26.691	0	33.925	0	231.6	4	95.5	4	-1E+10	1	-1E+10	1	-1E+10	1	-1E+10	1	-1E+10	1	-1E+10	1
4901784	230	C	10/21/2021	10:49	-136.563	43.256	0	35.90	0	15.6810	0	36.1290	8	26.692	0	35.611	0	231.6	4	95.5	4	-1E+10	1	-1E+10	1	-1E+10	1	-1E+10	1	-1E+10	1	-1E+10	1
4901784	230	C	10/21/2021	10:49	-136.563	43.256	0	37.80	0	15.6550	0	36.1290	8	26.698	0	37.496	0	232.1	4	95.6	4	-1E+10	1	-1E+10	1	-1E+10	1	-1E+10	1	-1E+10	1	-1E+10	1
4901784	230	C	10/21/2021	10:49	-136.563	43.256	0	39.40	0	15.6560	0	36.1240	8	26.694	0	39.083	0	232.6	4	95.8	4	-1E+10	1	-1E+10	1	-1E+10	1	-1E+10	1	-1E+10	1	-1E+10	1
4901784	230	C	10/21/2021	10:49	-136.563	43.256	0	41.20	0	15.6430	0	36.1190	8	26.693	0	40.868	0	233.4	4	96.1	4	-1E+10	1	-1E+10	1	-1E+10	1	-1E+10	1	-1E+10	1	-1E+10	1
4901784	230	C	10/21/2021	10:49	-136.563	43.256	0	41.60	0	15.5260	0	36.1350	8	26.732	0	41.265	0	234.3	4	96.3	4	-1E+10	1	-1E+10	1	-1E+10	1	-1E+10	1	-1E+10	1	-1E+10	1
4901784	230	C	10/21/2021	10:49	-136.563	43.256	0	43.00	0	15.4400	0	36.1320	8	26.749	0	42.653	0	235.5	4	96.6	4	-1E+10	1	-1E+10	1	-1E+10	1	-1E+10	1	-1E+10	1	-1E+10	1
4901784	230	C	10/21/2021	10:49	-136.563	43.256	0	44.20	0	15.4010	0	36.1200	8	26.749	0	43.844	0	236.5	4	96.9	4	-1E+10	1	-1E+10	1	-1E+10	1	-1E+10	1	-1E+10	1	-1E+10	1
4901784	230	C	10/21/2021	10:49	-136.563	43.256	0	45.40	0	15.3530	0	36.1080	8	26.750	0	45.034	0	238.0	4	97.4	4	-1E+10	1	-1E+10	1	-1E+10	1	-1E+10	1	-1E+10	1	-1E+10	1
4901784	230	C	10/21/2021	10:49	-136.563	43.256	0	46.70	0	15.1400	0	36.1120	8	26.801	0	46.323	0	240.1	4	97.9	4	-1E+10	1	-1E+10	1	-1E+10	1	-1E+10	1	-1E+10	1	-1E+10	1
4901784	230	C	10/21/2021	10:49	-136.563	43.256	0	48.00	0	14.9110	0	36.1200	8	26.858	0	47.612	0	242.3	4	98.4	4	-1E+10	1	-1E+10	1	-1E+10	1	-1E+10	1	-1E+10	1	-1E+10	1
4901784	230	C	10/21/2021	10:49	-136.563	43.256	0	49.40	0	14.6370	0	36.1310	8	26.927	0	49.001	0	244.8	4	98.8	4	-1E+10	1	-1E+10	1	-1E+10	1	-1E+10	1	-1E+10	1	-1E+10	1
4901784	230	C	10/21/2021	10:49	-136.563	43.256	0	50.90	0	14.2640	0	36.1430	8	27.017	0	50.489	0	247.7	4	99.3	4	-1E+10	1	-1E+10	1	-1E+10	1	-1E+10	1	-1E+10	1	-1E+10	1
4901784	230	C	10/21/2021	10:49	-136.563	43.256	0	52.50	0	13.9540	0	36.1650	8	27.100	0	52.076	0	249.0	4	99.2	4	-1E+10	1	-1E+10	1	-1E+10	1	-1E+10	1	-1E+10	1	-1E+10	1
4901784	230	C	10/21/2021	10:49	-136.563	43.256	0	54.30	0	13.6380	0	36.2830	8	27.258	0	53.861	0	248.1	4	98.3	4	-1E+10	1	-1E+10	1	-1E+10	1	-1E+10	1	-1E+10	1	-1E+10	1
4901784	230	C	10/21/2021	10:49	-136.563	43.256	0	56.10	0	12.8600	0	36.3390	8	27.461	0	55.646	0	248.6	4	97.0	4	-1E+10	1	-1E+10	1	-1E+10	1	-1E+10	1	-1E+10	1	-1E+10	1
4901784	230	C	10/21/2021	10:49	-136.563	43.256	0	57.90	0	12.2270	0	36.3150	8	27.569	0	57.431	0	247.9	4	95.5	4	-1E+10	1	-1E+10	1	-1E+10	1	-1E+10	1	-1E+10	1	-1E+10	1
4901784	230	C	10/21/2021	10:49	-136.563	43.256	0	59.80	0	12.0530	0	36.2860	8	27.580	0	59.316	0	247.5	4	95.0	4	-1E+10	1	-1E+10	1	-1E+10	1	-1E+10	1	-1E+10	1	-1E+10	1
4901784	230	C	10/21/2021	10:49	-136.563	43.256	0	61.60	0	11.8050	0	36.2580	8	27.606	0	61.101	0	245.4	4	93.7	4	-1E+10	1	-1E+10	1	-1E+10	1	-1E+10	1	-1E+10	1	-1E+10	1
4901784	230	C	10/21/2021	10:49	-136.563	43.256	0	63.60	0	11.4730	0	36.2200	8	27.640	0	63.084	0	244.9	4	92.8	4	-1E+10	1	-1E+10	1	-1E+10	1	-1E+10	1	-1E+10	1	-1E+10	1
4901784	230	C	10/21/2021	10:49	-136.563	43.256	0	65.50	0	11.2000	0	36.2250	8	27.695	0	64.968	0	244.7	4	92.2	4	-1E+10	1	-1E+10	1	-1E+10	1	-1E+10	1	-1E+10	1	-1E+10	1
4901784	230	C	10/21/2021	10:49	-136.563	43.256	0	67.50	0	11.0550	0	36.2130	8	27.713	0	66.952	0	243.7	4	91.6	4	-1E+10	1	-1E+10	1	-1E+10	1	-1E+10	1	-1E+10	1	-1E+10	1
4901784	230	C	10/21/2021	10:49	-136.563	43.256	0	69.30	0	10.8650	0	36.2030	8	27.740	0	68.737	0	243.8	4	91.2	4	-1E+10	1	-1E+10	1	-1E+10	1	-1E+10	1	-1E+10	1	-1E+10	1
4901784	230	C	10/21/2021	10:49	-136.563	43.256	0	71.20	0	10.8250	0	36.2250	8	27.764	0	70.621	0	243.6	4	91.1	4	-1E+10	1	-1E+10	1	-1E+10	1	-1E+10	1	-1E+10	1	-1E+10	1
4901784	230	C	10/21/2021	10:49	-136.563	43.256	0	73.10	0	10.8250	0	36.2220	8	27.762	0	72.505	0	243.2	4	90.9	4	-1E+10	1	-1E+10	1	-1E+10	1	-1E+10	1	-1E+10	1	-1E+10	1
4901784	230	C	10/21/2021	10:49	-136.563	43.256	0	74.90	0	10.7260	0	36.2100	8	27.771	0	74.290	0	243.0	4	90.7	4	-1E+10	1	-1E+10	1	-1E+10	1	-1E+10	1	-1E+10	1	-1E+10	1
4901784	230	C	10/21/2021	10:49	-136.563	43.256	0	76.90	0	10.5870	0	36.2000	8	27.788	0	76.274	0	243.4	4	90.5	4	-1E+10	1	-1E+10	1	-1E+10	1	-1E+10	1	-1E+10	1	-1E+10	1
4901784	230	C	10/21/2021	10:49	-136.563	43.256	0	78.70	0	10.5020	0	36.1950	8	27.799	0	78.059	0	243.4	4	90.4	4	-1E+10	1	-1E+10	1	-1E+10	1	-1E+10	1	-1E+10	1	-1E+10	1
4901784	230	C	10/21/2021	10:49	-136.563	43.256	0	80.40	0	10.4120	0	36.1900	8	27.811	0	79.745	0	243.8	4	90.3	4	-1E+10	1	-1E+10	1	-1E+10	1	-1E+10	1	-1E+10	1	-1E+10	1
4901784	230	C	10/21/2021	10:49	-136.563	43.256	0	82.30	0	10.3490	0	36.1980	8	27.829	0	81.629	0	244.0	4	90.3	4	-1E+10	1	-1E+10	1	-1E+10	1	-1E+10	1	-1E+10	1	-1E+10	1
4901784	230	C	10/21/2021	10:49	-136.563	43.256	0	84.00	0	10.2600	0	36.2000	8	27.846	0	83.315	0	244.2	4	90.2	4	-1E+10	1	-1E+10	1	-1E+10	1	-1E+10	1	-1E+10	1	-1E+10	1
4901784	230	C	10/21/2021	10:49	-136.563	43.256	0	85.80	0	10.2380	0	36.2050	8	27.854	0	85.100	0	244.7	4	90.3	4	-1E+10	1	-1E+10	1	-1E+10	1	-1E+10	1	-1E+10	1	-1E+10	1
4901784	230	C	10/21/2021	10:49	-136.563	43.256	0	87.70	0	10.3260	0	36.2380	8	27.864	0	86.984	0	244.3	4	90.4	4	-1E+10	1	-1E+10	1	-1E+10	1	-1E+10	1	-1E+10	1	-1E+10	1
4901784	230	C	10/21/2021	10:49	-136.563	43.256	0	89.50	0	10.1340	0	36.2320	8	27.893	0	88.769	0	244.5	4	90.1	4	-1E+10	1	-1E+10	1	-1E+10	1	-1E+10	1	-1E+10	1	-1E+10	1
4901784	230	C	10/21/2021	10:49	-136.563	43.256	0	91.40	0	10.1470	0	36.2280	8	27.888	0	90.653	0	244.8	4	90.2	4	-1E+10	1	-1E+10	1	-1E+10	1	-1E+10	1	-1E+10	1	-1E+10	1
4901784	230	C	10/21/2021	10:49	-136.563	43.256	0	93.80	0	9.9000	0	36.2220	8	27.926	0	93.032	0	246.0	4	90.2	4	-1E+10	1	-1E+10	1	-1E+10	1	-1E+10	1	-1E+10	1	-1E+10	1
4901784	230	C	10/21/2021	10:49	-136.563	43.256	0	95.80	0	9.9150	0	36.2370	8	27.936	0	95.016	0	246.0	4	90.2	4	-1E+10	1	-1E+10	1	-1E+10	1	-1E+10	1	-1E+10	1	-1E+10	1
4901784	230	C	10/21/2021	10:49	-136.563	43.256	0	97.30	0	9.9750	0	36.2490	8	27.935	0	96.503	0	245.6	4	90.2	4	-1E+10	1	-1E+10	1	-1E+10	1	-1E+10	1	-1E+10	1	-1E+10	1
4901784	230	C	10/21/2021	10:49	-136.563	43.256	0	98.90	0	9.9840	0	36.2490	8	27.933	0	98.089	0	245.1	4	90.0	4	-1E+10	1	-1E+10	1	-1E+10	1	-1E+10	1	-1E+10	1	-1E+10	1
4901784	230	C	10/21/2021	10:49	-136.563	43.256	0	102.90	0	9.7390	0	36.2310	8	27.961	0	102.056	0	245.3	4	89.6	4	-1E+10	1	-1E+10	1	-1E+10	1	-1E+10	1	-1E+10	1	-1E+10	1
4901784	230	C	10/21/2021	10:49	-136.563	43.256	0	105.20	0	9.5360	0	36.2180	8	27.986	0	104.336	0	245.9	4	89.4	4	-1E+10	1	-1E+10	1	-1E+10	1	-1E+10	1	-1E+10	1	-1E+10	1
4901784	230	C	10/21/2021	10:49	-136.563	43.256	0	107.70	0	9.4090	0	36.2250	8	28.013	0	106.815	0	245.9	4	89.2	4	-1E+10	1	-1E+10	1	-1E+10	1	-1E+10	1	-1E+10	1	-1E+10	1
4901784	230	C	10/21/2021	10:49	-136.563	43.256	0	110.00	0	9.3210	0	36.2190	8	28.023	0	109.096	0	245.6	4	88.9	4	-1E+10	1	-1E+10	1	-1E+10	1	-1E+10	1	-1E+10	1	-1E+10	1
4901784	230	C	10/21/2021	10:49	-136.563	43.256	0	112.40	0	9.2480	0	36.2220	8	28.037	0	111.475	0	245.0	4	88.5	4	-1E+10	1	-1E+10	1	-1E+10	1	-1E+10	1	-1E+10	1	-1E+10	1
4901784	230	C	10/21/2021	10:49	-136.563	43.256	0	114.80	0	9.2310	0	36.2310	8	28.047	0	113.855	0	243.4	4	88.0	4	-1E+10	1	-1E+10	1	-1E+10	1	-1E+10	1	-1E+10	1	-1E+10	1
4901784	230	C	10/21/2021	10:49	-136.563	43.256	0	117.10	0	9.2630	0	36.2750	8	28.076	0	116.135	0	240.7	4	87.1	4	-1E+10	1	-1E+10	1	-1E+10	1	-1E+10	1	-1E+10	1	-1E+10	1
4901784	230	C	10/21/2021	10:49	-136.563	43.256	0	120.30	0	9.2950	0	36.3250	8	28.110	0	119.308	0	236.2	4	85.5	4	-1E+10	1	-1E+10	1	-1E+10	1	-1E+10	1	-1E+10	1	-1E+10	1
4901784	230	C	10/21/2021	10:49	-136.563	43.256	0	122.90	0	9.2620	0	36.3730	8	28.153	0	121.886	0	232.5	4	84.2	4	-1E+10	1	-1E+10	1	-1E+10	1	-1E+10	1	-1E+10	1	-1E+10	1
4901784	230	C	10/21/2021	10:49	-136.563	43.256	0	124.70	0	9.3300	0	36.4130	8	28.173	0	123.670	0	229.4	4	83.2	4	-1E+10	1	-1E+10	1	-1E+10	1	-1E+10	1	-1E+10	1	-1E+10	1
4901784	230	C	10/21/2021	10:49	-136.563	43.256	0	127.40	0	9.3920	0	36.4690	8	28.207	0	126.347	0	225.6	4	82.0	4	-1E+10	1	-1E+10	1	-1E+10	1	-1E+10	1	-1E+10	1	-1E+10	1
4901784	230	C	10/21/2021	10:49	-136.563	43.256	0	130.00	0	9.4160	0	36.5040	8	28.230	0	128.925	0	222.3	4	80.8	4	-1E+10	1	-1E+10	1	-1E+10	1	-1E+10	1	-1E+10	1	-1E+10	1
4901784	230	C	10/21/2021	10:49	-136.563	43.256	0	132.70	0	9.4110	0	36.5420	8	28.261	0	131.602	0	217.8	4	79.2	4	-1E+10	1	-1E+10	1	-1E+10	1	-1E+10	1	-1E+10	1	-1E+10	1
4901784	230	C	10/21/2021	10:49	-136.563	43.256	0	135.00	0	9.3020	0	36.6100	8	28.333	0	133.882	0	214.1	4	77.7	4	-1E+10	1	-1E+10	1	-1E+10	1	-1E+10	1	-1E+10	1	-1E+10	1
4901784	230	C	10/21/2021	10:49	-136.563	43.256	0	137.30	0	9.1950	0	36.6670	8	28.395	0	136.162	0	211.6	4	76.7	4	-1E+10	1	-1E+10	1	-1E+10	1	-1E+10	1	-1E+10	1	-1E+10	1
4901784	230	C	10/21/2021	10:49	-136.563	43.256	0	139.60	0	9.1930	0	36.6920	8	28.415	0	138.442	0	208.8	4	75.6	4	-1E+10	1	-1E+10	1	-1E+10	1	-1E+10	1	-1E+10	1	-1E+10	1
4901784	230	C	10/21/2021	10:49	-136.563	43.256	0	142.60	0	9.1830	0	36.7510	8	28.463	0	141.416	0	204.3	4	74.0	4	-1E+10	1	-1E+10	1	-1E+10	1	-1E+10	1	-1E+10	1	-1E+10	1
4901784	230	C	10/21/2021	10:49	-136.563	43.256	0	145.00	0	9.0970	0	36.8340	8	28.542	0	143.796	0	201.3	4	72.9	4	-1E+10	1	-1E+10	1	-1E+10	1	-1E+10	1	-1E+10	1	-1E+10	1
4901784	230	C	10/21/2021	10:49	-136.563	43.256	0	147.40	0	9.0680	0	36.9210	8	28.615	0	146.175	0	198.5	4	71.8	4	-1E+10	1	-1E+10	1	-1E+10	1	-1E+10	1	-1E+10	1	-1E+10	1
4901784	230	C	10/21/2021	10:49	-136.563	43.256	0	149.90	0	9.0300	0	36.9710	8	28.661	0	148.653	0	196.6	4	71.1	4	-1E+10	1	-1E+10	1	-1E+10	1	-1E+10	1	-1E+10	1	-1E+10	1
4901784	230	C	10/21/2021	10:49	-136.563	43.256	0	152.50	0	8.9660	0	37.0110	8	28.703	0	151.231	0	195.3	4	70.5	4	-1E+10	1	-1E+10	1	-1E+10	1	-1E+10	1	-1E+10	1	-1E+10	1
4901784	230	C	10/21/2021	10:49	-136.563	43.256	0	155.10	0	8.9140	0	37.0420	8	28.736	0	153.808	0	194.0	4	70.0	4	-1E+10	1	-1E+10	1	-1E+10	1	-1E+10	1	-1E+10	1	-1E+10	1
4901784	230	C	10/21/2021	10:49	-136.563	43.256	0	157.70	0	8.8650	0	37.0760	8	28.771	0	156.385	0	193.1	4	69.6	4	-1E+10	1	-1E+10	1	-1E+10	1	-1E+10	1	-1E+10	1	-1E+10	1
4901784	230	C	10/21/2021	10:49	-136.563	43.256	0	160.30	0	8.8160	0	37.1200	8	28.813	0	158.963	0	192.4	4	69.3	4	-1E+10	1	-1E+10	1	-1E+10	1	-1E+10	1	-1E+10	1	-1E+10	1
4901784	230	C	10/21/2021	10:49	-136.563	43.256	0	162.10	0	8.8070	0	37.1460	8	28.835	0	160.747	0	192.3	4	69.3	4	-1E+10	1	-1E+10	1	-1E+10	1	-1E+10	1	-1E+10	1	-1E+10	1
4901784	230	C	10/21/2021	10:49	-136.563	43.256	0	164.90	0	8.7910	0	37.1800	8	28.864	0	163.522	0	191.6	4	69.0	4	-1E+10	1	-1E+10	1	-1E+10	1	-1E+10	1	-1E+10	1	-1E+10	1
4901784	230	C	10/21/2021	10:49	-136.563	43.256	0	167.70	0	8.7470	0	37.2180	8	28.901	0	166.298	0	190.7	4	68.7	4	-1E+10	1	-1E+10	1	-1E+10	1	-1E+10	1	-1E+10	1	-1E+10	1
4901784	230	C	10/21/2021	10:49	-136.563	43.256	0	169.60	0	8.7360	0	37.2190	8	28.904	0	168.181	0	190.2	4	68.5	4	-1E+10	1	-1E+10	1	-1E+10	1	-1E+10	1	-1E+10	1	-1E+10	1
4901784	230	C	10/21/2021	10:49	-136.563	43.256	0	172.40	0	8.7280	0	37.2560	8	28.934	0	170.957	0	189.5	4	68.2	4	-1E+10	1	-1E+10	1	-1E+10	1	-1E+10	1	-1E+10	1	-1E+10	1
4901784	230	C	10/21/2021	10:49	-136.563	43.256	0	175.80	0	8.7280	0	37.2800	8	28.953	0	174.327	0	189.1	4	68.1	4	-1E+10	1	-1E+10	1	-1E+10	1	-1E+10	1	-1E+10	1	-1E+10	1
4901784	230	C	10/21/2021	10:49	-136.563	43.256	0	177.70	0	8.7240	0	37.2960	8	28.967	0	176.210	0	188.6	4	67.9	4	-1E+10	1	-1E+10	1	-1E+10	1	-1E+10	1	-1E+10	1	-1E+10	1
4901784	230	C	10/21/2021	10:49	-136.563	43.256	0	180.20	0	8.6530	0	37.3240	8	29.000	0	178.688	0	188.1	4	67.6	4	-1E+10	1	-1E+10	1	-1E+10	1	-1E+10	1	-1E+10	1	-1E+10	1
4901784	230	C	10/21/2021	10:49	-136.563	43.256	0	182.60	0	8.6280	0	37.3450	8	29.021	0	181.067	0	187.7	4	67.5	4	-1E+10	1	-1E+10	1	-1E+10	1	-1E+10	1	-1E+10	1	-1E+10	1
4901784	230	C	10/21/2021	10:49	-136.563	43.256	0	185.10	0	8.6080	0	37.3560	8	29.033	0	183.545	0	187.0	4	67.2	4	-1E+10	1	-1E+10	1	-1E+10	1	-1E+10	1	-1E+10	1	-1E+10	1
4901784	230	C	10/21/2021	10:49	-136.563	43.256	0	187.50	0	8.5810	0	37.3660	8	29.045	0	185.923	0	186.4	4	66.9	4	-1E+10	1	-1E+10	1	-1E+10	1	-1E+10	1	-1E+10	1	-1E+10	1
4901784	230	C	10/21/2021	10:49	-136.563	43.256	0	189.90	0	8.5650	0	37.3760	8	29.055	0	188.302	0	185.6	4	66.6	4	-1E+10	1	-1E+10	1	-1E+10	1	-1E+10	1	-1E+10	1	-1E+10	1
4901784	230	C	10/21/2021	10:49	-136.563	43.256	0	192.40	0	8.5030	0	37.3870	8	29.074	0	190.780	0	185.0	4	66.3	4	-1E+10	1	-1E+10	1	-1E+10	1	-1E+10	1	-1E+10	1	-1E+10	1
4901784	230	C	10/21/2021	10:49	-136.563	43.256	0	194.90	0	8.4400	0	37.3940	8	29.090	0	193.258	0	184.7	4	66.2	4	-1E+10	1	-1E+10	1	-1E+10	1	-1E+10	1	-1E+10	1	-1E+10	1
4901784	230	C	10/21/2021	10:49	-136.563	43.256	0	197.40	0	8.4070	0	37.4030	8	29.102	0	195.736	0	184.7	4	66.1	4	-1E+10	1	-1E+10	1	-1E+10	1	-1E+10	1	-1E+10	1	-1E+10	1
4901784	230	C	10/21/2021	10:49	-136.563	43.256	0	200.00	0	8.3950	0	37.4150	8	29.113	0	198.312	0	184.1	4	65.9	4	-1E+10	1	-1E+10	1	-1E+10	1	-1E+10	1	-1E+10	1	-1E+10	1
4901784	230	C	10/21/2021	10:49	-136.563	43.256	0	202.50	0	8.3720	0	37.4190	8	29.120	0	200.790	0	183.7	4	65.7	4	-1E+10	1	-1E+10	1	-1E+10	1	-1E+10	1	-1E+10	1	-1E+10	1
4901784	230	C	10/21/2021	10:49	-136.563	43.256	0	205.10	0	8.3220	0	37.4250	8	29.133	0	203.367	0	182.8	4	65.3	4	-1E+10	1	-1E+10	1	-1E+10	1	-1E+10	1	-1E+10	1	-1E+10	1
4901784	230	C	10/21/2021	10:49	-136.563	43.256	0	207.70	0	8.2130	0	37.4320	8	29.156	0	205.944	0	182.4	4	65.0	4	-1E+10	1	-1E+10	1	-1E+10	1	-1E+10	1	-1E+10	1	-1E+10	1
4901784	230	C	10/21/2021	10:49	-136.563	43.256	0	210.30	0	8.1800	0	37.4390	8	29.167	0	208.520	0	181.8	4	64.8	4	-1E+10	1	-1E+10	1	-1E+10	1	-1E+10	1	-1E+10	1	-1E+10	1
4901784	230	C	10/21/2021	10:49	-136.563	43.256	0	212.90	0	8.1280	0	37.4410	8	29.176	0	211.097	0	181.0	4	64.4	4	-1E+10	1	-1E+10	1	-1E+10	1	-1E+10	1	-1E+10	1	-1E+10	1
4901784	230	C	10/21/2021	10:49	-136.563	43.256	0	214.60	0	8.1110	0	37.4390	8	29.177	0	212.782	0	180.3	4	64.1	4	-1E+10	1	-1E+10	1	-1E+10	1	-1E+10	1	-1E+10	1	-1E+10	1
4901784	230	C	10/21/2021	10:49	-136.563	43.256	0	217.20	0	8.0200	0	37.4440	8	29.196	0	215.358	0	179.3	4	63.7	4	-1E+10	1	-1E+10	1	-1E+10	1	-1E+10	1	-1E+10	1	-1E+10	1
4901784	230	C	10/21/2021	10:49	-136.563	43.256	0	219.90	0	7.9780	0	37.4420	8	29.201	0	218.034	0	178.7	4	63.4	4	-1E+10	1	-1E+10	1	-1E+10	1	-1E+10	1	-1E+10	1	-1E+10	1
4901784	230	C	10/21/2021	10:49	-136.563	43.256	0	222.50	0	7.9320	0	37.4450	8	29.210	0	220.611	0	178.0	4	63.1	4	-1E+10	1	-1E+10	1	-1E+10	1	-1E+10	1	-1E+10	1	-1E+10	1
4901784	230	C	10/21/2021	10:49	-136.563	43.256	0	225.10	0	7.9180	0	37.4460	8	29.213	0	223.187	0	177.2	4	62.8	4	-1E+10	1	-1E+10	1	-1E+10	1	-1E+10	1	-1E+10	1	-1E+10	1
4901784	230	C	10/21/2021	10:49	-136.563	43.256	0	227.70	0	7.8670	0	37.4460	8	29.221	0	225.764	0	176.2	4	62.3	4	-1E+10	1	-1E+10	1	-1E+10	1	-1E+10	1	-1E+10	1	-1E+10	1
4901784	230	C	10/21/2021	10:49	-136.563	43.256	0	230.30	0	7.8210	0	37.4470	8	29.229	0	228.340	0	175.3	4	62.0	4	-1E+10	1	-1E+10	1	-1E+10	1	-1E+10	1	-1E+10	1	-1E+10	1
4901784	230	C	10/21/2021	10:49	-136.563	43.256	0	232.10	0	7.7850	0	37.4510	8	29.238	0	230.124	0	174.5	4	61.6	4	-1E+10	1	-1E+10	1	-1E+10	1	-1E+10	1	-1E+10	1	-1E+10	1
4901784	230	C	10/21/2021	10:49	-136.563	43.256	0	234.70	0	7.7580	0	37.4490	8	29.240	0	232.700	0	173.3	4	61.2	4	-1E+10	1	-1E+10	1	-1E+10	1	-1E+10	1	-1E+10	1	-1E+10	1
4901784	230	C	10/21/2021	10:49	-136.563	43.256	0	237.30	0	7.7440	0	37.4470	8	29.241	0	235.276	0	171.4	4	60.5	4	-1E+10	1	-1E+10	1	-1E+10	1	-1E+10	1	-1E+10	1	-1E+10	1
4901784	230	C	10/21/2021	10:49	-136.563	43.256	0	240.00	0	7.6780	0	37.4540	8	29.257	0	237.952	0	169.3	4	59.6	4	-1E+10	1	-1E+10	1	-1E+10	1	-1E+10	1	-1E+10	1	-1E+10	1
4901784	230	C	10/21/2021	10:49	-136.563	43.256	0	242.60	0	7.6190	0	37.4610	8	29.271	0	240.528	0	167.6	4	59.0	4	-1E+10	1	-1E+10	1	-1E+10	1	-1E+10	1	-1E+10	1	-1E+10	1
4901784	230	C	10/21/2021	10:49	-136.563	43.256	0	245.20	0	7.5590	0	37.4640	8	29.283	0	243.104	0	166.5	4	58.5	4	-1E+10	1	-1E+10	1	-1E+10	1	-1E+10	1	-1E+10	1	-1E+10	1
4901784	230	C	10/21/2021	10:49	-136.563	43.256	0	247.90	0	7.5300	0	37.4630	8	29.286	0	245.780	0	165.0	4	57.9	4	-1E+10	1	-1E+10	1	-1E+10	1	-1E+10	1	-1E+10	1	-1E+10	1
4901784	230	C	10/21/2021	10:49	-136.563	43.256	0	249.50	0	7.5100	0	37.4630	8	29.289	0	247.365	0	163.7	4	57.5	4	-1E+10	1	-1E+10	1	-1E+10	1	-1E+10	1	-1E+10	1	-1E+10	1
4901784	230	C	10/21/2021	10:49	-136.563	43.256	0	252.20	0	7.4490	0	37.4690	8	29.303	0	250.040	0	161.8	4	56.7	4	-1E+10	1	-1E+10	1	-1E+10	1	-1E+10	1	-1E+10	1	-1E+10	1
4901784	230	C	10/21/2021	10:49	-136.563	43.256	0	254.80	0	7.4330	0	37.4710	8	29.307	0	252.617	0	160.4	4	56.2	4	-1E+10	1	-1E+10	1	-1E+10	1	-1E+10	1	-1E+10	1	-1E+10	1
4901784	230	C	10/21/2021	10:49	-136.563	43.256	0	257.40	0	7.3900	0	37.4740	8	29.316	0	255.193	0	158.5	4	55.5	4	-1E+10	1	-1E+10	1	-1E+10	1	-1E+10	1	-1E+10	1	-1E+10	1
4901784	230	C	10/21/2021	10:49	-136.563	43.256	0	260.00	0	7.3540	0	37.4760	8	29.323	0	257.769	0	156.3	4	54.7	4	-1E+10	1	-1E+10	1	-1E+10	1	-1E+10	1	-1E+10	1	-1E+10	1
4901784	230	C	10/21/2021	10:49	-136.563	43.256	0	262.70	0	7.3150	0	37.4850	8	29.336	0	260.444	0	154.6	4	54.0	4	-1E+10	1	-1E+10	1	-1E+10	1	-1E+10	1	-1E+10	1	-1E+10	1
4901784	230	C	10/21/2021	10:49	-136.563	43.256	0	265.20	0	7.2830	0	37.4890	8	29.344	0	262.921	0	153.3	4	53.5	4	-1E+10	1	-1E+10	1	-1E+10	1	-1E+10	1	-1E+10	1	-1E+10	1
4901784	230	C	10/21/2021	10:49	-136.563	43.256	0	267.80	0	7.2540	0	37.4910	8	29.350	0	265.497	0	151.9	4	53.0	4	-1E+10	1	-1E+10	1	-1E+10	1	-1E+10	1	-1E+10	1	-1E+10	1
4901784	230	C	10/21/2021	10:49	-136.563	43.256	0	270.40	0	7.2230	0	37.4910	8	29.354	0	268.073	0	150.6	4	52.5	4	-1E+10	1	-1E+10	1	-1E+10	1	-1E+10	1	-1E+10	1	-1E+10	1
4901784	230	C	10/21/2021	10:49	-136.563	43.256	0	272.10	0	7.2010	0	37.4900	8	29.357	0	269.757	0	149.7	4	52.2	4	-1E+10	1	-1E+10	1	-1E+10	1	-1E+10	1	-1E+10	1	-1E+10	1
4901784	230	C	10/21/2021	10:49	-136.563	43.256	0	274.80	0	7.1220	0	37.4970	8	29.374	0	272.432	0	148.2	4	51.6	4	-1E+10	1	-1E+10	1	-1E+10	1	-1E+10	1	-1E+10	1	-1E+10	1
4901784	230	C	10/21/2021	10:49	-136.563	43.256	0	277.40	0	7.0940	0	37.5000	8	29.380	0	275.008	0	147.1	4	51.2	4	-1E+10	1	-1E+10	1	-1E+10	1	-1E+10	1	-1E+10	1	-1E+10	1
4901784	230	C	10/21/2021	10:49	-136.563	43.256	0	280.10	0	7.0790	0	37.5010	8	29.383	0	277.683	0	145.8	4	50.7	4	-1E+10	1	-1E+10	1	-1E+10	1	-1E+10	1	-1E+10	1	-1E+10	1
4901784	230	C	10/21/2021	10:49	-136.563	43.256	0	282.80	0	7.0350	0	37.5010	8	29.390	0	280.358	0	144.4	4	50.1	4	-1E+10	1	-1E+10	1	-1E+10	1	-1E+10	1	-1E+10	1	-1E+10	1
4901784	230	C	10/21/2021	10:49	-136.563	43.256	0	284.50	0	7.0140	0	37.5040	8	29.395	0	282.042	0	143.5	4	49.8	4	-1E+10	1	-1E+10	1	-1E+10	1	-1E+10	1	-1E+10	1	-1E+10	1
4901784	230	C	10/21/2021	10:49	-136.563	43.256	0	287.30	0	6.9610	0	37.5070	8	29.405	0	284.816	0	142.2	4	49.3	4	-1E+10	1	-1E+10	1	-1E+10	1	-1E+10	1	-1E+10	1	-1E+10	1
4901784	230	C	10/21/2021	10:49	-136.563	43.256	0	290.00	0	6.9190	0	37.5090	8	29.413	0	287.490	0	141.0	4	48.9	4	-1E+10	1	-1E+10	1	-1E+10	1	-1E+10	1	-1E+10	1	-1E+10	1
4901784	230	C	10/21/2021	10:49	-136.563	43.256	0	292.80	0	6.8890	0	37.5100	8	29.418	0	290.264	0	139.7	4	48.4	4	-1E+10	1	-1E+10	1	-1E+10	1	-1E+10	1	-1E+10	1	-1E+10	1
4901784	230	C	10/21/2021	10:49	-136.563	43.256	0	295.60	0	6.8480	0	37.5100	8	29.424	0	293.038	0	138.3	4	47.9	4	-1E+10	1	-1E+10	1	-1E+10	1	-1E+10	1	-1E+10	1	-1E+10	1
4901784	230	C	10/21/2021	10:49	-136.563	43.256	0	297.40	0	6.8100	0	37.5120	8	29.431	0	294.821	0	137.6	4	47.6	4	-1E+10	1	-1E+10	1	-1E+10	1	-1E+10	1	-1E+10	1	-1E+10	1
4901784	230	C	10/21/2021	10:49	-136.563	43.256	0	300.20	0	6.7750	0	37.5140	8	29.438	0	297.595	0	136.3	4	47.1	4	-1E+10	1	-1E+10	1	-1E+10	1	-1E+10	1	-1E+10	1	-1E+10	1
4901784	230	C	10/21/2021	10:49	-136.563	43.256	0	303.00	0	6.7410	0	37.5150	8	29.443	0	300.369	0	135.2	4	46.7	4	-1E+10	1	-1E+10	1	-1E+10	1	-1E+10	1	-1E+10	1	-1E+10	1
4901784	230	C	10/21/2021	10:49	-136.563	43.256	0	304.90	0	6.7180	0	37.5160	8	29.447	0	302.251	0	134.1	4	46.3	4	-1E+10	1	-1E+10	1	-1E+10	1	-1E+10	1	-1E+10	1	-1E+10	1
4901784	230	C	10/21/2021	10:49	-136.563	43.256	0	307.70	0	6.7060	0	37.5140	8	29.448	0	305.024	0	132.5	4	45.7	4	-1E+10	1	-1E+10	1	-1E+10	1	-1E+10	1	-1E+10	1	-1E+10	1
4901784	230	C	10/21/2021	10:49	-136.563	43.256	0	310.40	0	6.6420	0	37.5170	8	29.459	0	307.699	0	130.5	4	44.9	4	-1E+10	1	-1E+10	1	-1E+10	1	-1E+10	1	-1E+10	1	-1E+10	1
4901784	230	C	10/21/2021	10:49	-136.563	43.256	0	312.20	0	6.5910	0	37.5190	8	29.468	0	309.482	0	129.5	4	44.6	4	-1E+10	1	-1E+10	1	-1E+10	1	-1E+10	1	-1E+10	1	-1E+10	1
4901784	230	C	10/21/2021	10:49	-136.563	43.256	0	315.10	0	6.5470	0	37.5220	8	29.476	0	312.354	0	128.1	4	44.0	4	-1E+10	1	-1E+10	1	-1E+10	1	-1E+10	1	-1E+10	1	-1E+10	1
4901784	230	C	10/21/2021	10:49	-136.563	43.256	0	317.90	0	6.4970	0	37.5260	8	29.487	0	315.128	0	126.7	4	43.5	4	-1E+10	1	-1E+10	1	-1E+10	1	-1E+10	1	-1E+10	1	-1E+10	1
4901784	230	C	10/21/2021	10:49	-136.563	43.256	0	319.80	0	6.4800	0	37.5250	8	29.488	0	317.010	0	125.8	4	43.1	4	-1E+10	1	-1E+10	1	-1E+10	1	-1E+10	1	-1E+10	1	-1E+10	1
4901784	230	C	10/21/2021	10:49	-136.563	43.256	0	322.70	0	6.4300	0	37.5280	8	29.498	0	319.882	0	124.4	4	42.6	4	-1E+10	1	-1E+10	1	-1E+10	1	-1E+10	1	-1E+10	1	-1E+10	1
4901784	230	C	10/21/2021	10:49	-136.563	43.256	0	325.60	0	6.3770	0	37.5300	8	29.507	0	322.755	0	123.4	4	42.3	4	-1E+10	1	-1E+10	1	-1E+10	1	-1E+10	1	-1E+10	1	-1E+10	1
4901784	230	C	10/21/2021	10:49	-136.563	43.256	0	327.50	0	6.3450	0	37.5310	8	29.512	0	324.637	0	122.9	4	42.0	4	-1E+10	1	-1E+10	1	-1E+10	1	-1E+10	1	-1E+10	1	-1E+10	1
4901784	230	C	10/21/2021	10:49	-136.563	43.256	0	329.40	0	6.3280	0	37.5330	8	29.516	0	326.518	0	122.4	4	41.8	4	-1E+10	1	-1E+10	1	-1E+10	1	-1E+10	1	-1E+10	1	-1E+10	1
4901784	230	C	10/21/2021	10:49	-136.563	43.256	0	332.30	0	6.3200	0	37.5320	8	29.516	0	329.391	0	121.7	4	41.6	4	-1E+10	1	-1E+10	1	-1E+10	1	-1E+10	1	-1E+10	1	-1E+10	1
4901784	230	C	10/21/2021	10:49	-136.563	43.256	0	335.20	0	6.3050	0	37.5320	8	29.518	0	332.263	0	120.9	4	41.3	4	-1E+10	1	-1E+10	1	-1E+10	1	-1E+10	1	-1E+10	1	-1E+10	1
4901784	230	C	10/21/2021	10:49	-136.563	43.256	0	337.20	0	6.2930	0	37.5320	8	29.520	0	334.244	0	120.2	4	41.1	4	-1E+10	1	-1E+10	1	-1E+10	1	-1E+10	1	-1E+10	1	-1E+10	1
4901784	230	C	10/21/2021	10:49	-136.563	43.256	0	340.10	0	6.2660	0	37.5330	8	29.524	0	337.116	0	119.3	4	40.7	4	-1E+10	1	-1E+10	1	-1E+10	1	-1E+10	1	-1E+10	1	-1E+10	1
4901784	230	C	10/21/2021	10:49	-136.563	43.256	0	343.00	0	6.2140	0	37.5370	8	29.535	0	339.988	0	118.2	4	40.3	4	-1E+10	1	-1E+10	1	-1E+10	1	-1E+10	1	-1E+10	1	-1E+10	1
4901784	230	C	10/21/2021	10:49	-136.563	43.256	0	345.00	0	6.1810	0	37.5400	8	29.542	0	341.969	0	117.5	4	40.1	4	-1E+10	1	-1E+10	1	-1E+10	1	-1E+10	1	-1E+10	1	-1E+10	1
4901784	230	C	10/21/2021	10:49	-136.563	43.256	0	347.60	0	6.1560	0	37.5450	8	29.549	0	344.544	0	117.1	4	39.9	4	-1E+10	1	-1E+10	1	-1E+10	1	-1E+10	1	-1E+10	1	-1E+10	1
4901784	230	C	10/21/2021	10:49	-136.563	43.256	0	350.40	0	6.1500	0	37.5450	8	29.550	0	347.317	0	116.5	4	39.7	4	-1E+10	1	-1E+10	1	-1E+10	1	-1E+10	1	-1E+10	1	-1E+10	1
4901784	230	C	10/21/2021	10:49	-136.563	43.256	0	352.90	0	6.1380	0	37.5460	8	29.552	0	349.793	0	115.8	4	39.4	4	-1E+10	1	-1E+10	1	-1E+10	1	-1E+10	1	-1E+10	1	-1E+10	1
4901784	230	C	10/21/2021	10:49	-136.563	43.256	0	355.40	0	6.1150	0	37.5480	8	29.557	0	352.269	0	115.2	4	39.2	4	-1E+10	1	-1E+10	1	-1E+10	1	-1E+10	1	-1E+10	1	-1E+10	1
4901784	230	C	10/21/2021	10:49	-136.563	43.256	0	357.80	0	6.0970	0	37.5490	8	29.560	0	354.646	0	114.6	4	39.0	4	-1E+10	1	-1E+10	1	-1E+10	1	-1E+10	1	-1E+10	1	-1E+10	1
4901784	230	C	10/21/2021	10:49	-136.563	43.256	0	360.30	0	6.0950	0	37.5490	8	29.561	0	357.122	0	113.9	4	38.7	4	-1E+10	1	-1E+10	1	-1E+10	1	-1E+10	1	-1E+10	1	-1E+10	1
4901784	230	C	10/21/2021	10:49	-136.563	43.256	0	362.80	0	6.0770	0	37.5490	8	29.563	0	359.597	0	112.9	4	38.4	4	-1E+10	1	-1E+10	1	-1E+10	1	-1E+10	1	-1E+10	1	-1E+10	1
4901784	230	C	10/21/2021	10:49	-136.563	43.256	0	365.20	0	6.0620	0	37.5490	8	29.565	0	361.974	0	111.8	4	38.0	4	-1E+10	1	-1E+10	1	-1E+10	1	-1E+10	1	-1E+10	1	-1E+10	1
4901784	230	C	10/21/2021	10:49	-136.563	43.256	0	367.70	0	6.0370	0	37.5510	8	29.570	0	364.450	0	110.5	4	37.5	4	-1E+10	1	-1E+10	1	-1E+10	1	-1E+10	1	-1E+10	1	-1E+10	1
4901784	230	C	10/21/2021	10:49	-136.563	43.256	0	370.10	0	6.0090	0	37.5520	8	29.575	0	366.826	0	109.3	4	37.1	4	-1E+10	1	-1E+10	1	-1E+10	1	-1E+10	1	-1E+10	1	-1E+10	1
4901784	230	C	10/21/2021	10:49	-136.563	43.256	0	372.60	0	5.9880	0	37.5520	8	29.577	0	369.302	0	108.1	4	36.7	4	-1E+10	1	-1E+10	1	-1E+10	1	-1E+10	1	-1E+10	1	-1E+10	1
4901784	230	C	10/21/2021	10:49	-136.563	43.256	0	375.00	0	5.9550	0	37.5550	8	29.584	0	371.679	0	106.7	4	36.2	4	-1E+10	1	-1E+10	1	-1E+10	1	-1E+10	1	-1E+10	1	-1E+10	1
4901784	230	C	10/21/2021	10:49	-136.563	43.256	0	377.40	0	5.9270	0	37.5560	8	29.589	0	374.055	0	105.6	4	35.8	4	-1E+10	1	-1E+10	1	-1E+10	1	-1E+10	1	-1E+10	1	-1E+10	1
4901784	230	C	10/21/2021	10:49	-136.563	43.256	0	379.80	0	5.9100	0	37.5550	8	29.590	0	376.432	0	104.4	4	35.4	4	-1E+10	1	-1E+10	1	-1E+10	1	-1E+10	1	-1E+10	1	-1E+10	1
4901784	230	C	10/21/2021	10:49	-136.563	43.256	0	382.30	0	5.8920	0	37.5520	8	29.590	0	378.907	0	102.9	4	34.8	4	-1E+10	1	-1E+10	1	-1E+10	1	-1E+10	1	-1E+10	1	-1E+10	1
4901784	230	C	10/21/2021	10:49	-136.563	43.256	0	384.70	0	5.8220	0	37.5570	8	29.604	0	381.284	0	101.1	4	34.2	4	-1E+10	1	-1E+10	1	-1E+10	1	-1E+10	1	-1E+10	1	-1E+10	1
4901784	230	C	10/21/2021	10:49	-136.563	43.256	0	387.30	0	5.7950	0	37.5610	8	29.610	0	383.858	0	99.5	4	33.6	4	-1E+10	1	-1E+10	1	-1E+10	1	-1E+10	1	-1E+10	1	-1E+10	1
4901784	230	C	10/21/2021	10:49	-136.563	43.256	0	389.80	0	5.7470	0	37.5620	8	29.617	0	386.334	0	98.4	4	33.2	4	-1E+10	1	-1E+10	1	-1E+10	1	-1E+10	1	-1E+10	1	-1E+10	1
4901784	230	C	10/21/2021	10:49	-136.563	43.256	0	392.30	0	5.7010	0	37.5650	8	29.626	0	388.809	0	97.5	4	32.9	4	-1E+10	1	-1E+10	1	-1E+10	1	-1E+10	1	-1E+10	1	-1E+10	1
4901784	230	C	10/21/2021	10:49	-136.563	43.256	0	394.80	0	5.6790	0	37.5670	8	29.630	0	391.285	0	96.4	4	32.5	4	-1E+10	1	-1E+10	1	-1E+10	1	-1E+10	1	-1E+10	1	-1E+10	1
4901784	230	C	10/21/2021	10:49	-136.563	43.256	0	397.30	0	5.6670	0	37.5690	8	29.634	0	393.760	0	95.4	4	32.1	4	-1E+10	1	-1E+10	1	-1E+10	1	-1E+10	1	-1E+10	1	-1E+10	1
4901784	230	C	10/21/2021	10:49	-136.563	43.256	0	399.90	0	5.6530	0	37.5690	8	29.635	0	396.334	0	94.7	4	31.9	4	-1E+10	1	-1E+10	1	-1E+10	1	-1E+10	1	-1E+10	1	-1E+10	1
4901784	230	C	10/21/2021	10:49	-136.563	43.256	0	402.40	0	5.6400	0	37.5690	8	29.637	0	398.810	0	94.0	4	31.6	4	-1E+10	1	-1E+10	1	-1E+10	1	-1E+10	1	-1E+10	1	-1E+10	1
4901784	230	C	10/21/2021	10:49	-136.563	43.256	0	404.90	0	5.6120	0	37.5710	8	29.642	0	401.285	0	93.0	4	31.3	4	-1E+10	1	-1E+10	1	-1E+10	1	-1E+10	1	-1E+10	1	-1E+10	1
4901784	230	C	10/21/2021	10:49	-136.563	43.256	0	407.40	0	5.5820	0	37.5730	8	29.648	0	403.760	0	91.8	4	30.9	4	-1E+10	1	-1E+10	1	-1E+10	1	-1E+10	1	-1E+10	1	-1E+10	1
4901784	230	C	10/21/2021	10:49	-136.563	43.256	0	410.00	0	5.5640	0	37.5740	8	29.651	0	406.334	0	90.7	4	30.5	4	-1E+10	1	-1E+10	1	-1E+10	1	-1E+10	1	-1E+10	1	-1E+10	1
4901784	230	C	10/21/2021	10:49	-136.563	43.256	0	412.50	0	5.5330	0	37.5760	8	29.657	0	408.810	0	89.6	4	30.1	4	-1E+10	1	-1E+10	1	-1E+10	1	-1E+10	1	-1E+10	1	-1E+10	1
4901784	230	C	10/21/2021	10:49	-136.563	43.256	0	415.00	0	5.5000	0	37.5800	8	29.664	0	411.285	0	88.7	4	29.8	4	-1E+10	1	-1E+10	1	-1E+10	1	-1E+10	1	-1E+10	1	-1E+10	1
4901784	230	C	10/21/2021	10:49	-136.563	43.256	0	417.60	0	5.4800	0	37.5830	8	29.669	0	413.859	0	88.0	4	29.5	4	-1E+10	1	-1E+10	1	-1E+10	1	-1E+10	1	-1E+10	1	-1E+10	1
4901784	230	C	10/21/2021	10:49	-136.563	43.256	0	420.30	0	5.4740	0	37.5860	8	29.672	0	416.532	0	87.2	4	29.3	4	-1E+10	1	-1E+10	1	-1E+10	1	-1E+10	1	-1E+10	1	-1E+10	1
4901784	230	C	10/21/2021	10:49	-136.563	43.256	0	422.90	0	5.4670	0	37.5870	8	29.674	0	419.106	0	86.4	4	29.0	4	-1E+10	1	-1E+10	1	-1E+10	1	-1E+10	1	-1E+10	1	-1E+10	1
4901784	230	C	10/21/2021	10:49	-136.563	43.256	0	424.70	0	5.4550	0	37.5890	8	29.677	0	420.888	0	85.8	4	28.8	4	-1E+10	1	-1E+10	1	-1E+10	1	-1E+10	1	-1E+10	1	-1E+10	1
4901784	230	C	10/21/2021	10:49	-136.563	43.256	0	427.30	0	5.4430	0	37.5900	8	29.679	0	423.462	0	84.8	4	28.4	4	-1E+10	1	-1E+10	1	-1E+10	1	-1E+10	1	-1E+10	1	-1E+10	1
4901784	230	C	10/21/2021	10:49	-136.563	43.256	0	429.90	0	5.4180	0	37.5910	8	29.683	0	426.036	0	83.8	4	28.1	4	-1E+10	1	-1E+10	1	-1E+10	1	-1E+10	1	-1E+10	1	-1E+10	1
4901784	230	C	10/21/2021	10:49	-136.563	43.256	0	432.60	0	5.3780	0	37.5940	8	29.691	0	428.709	0	83.2	4	27.8	4	-1E+10	1	-1E+10	1	-1E+10	1	-1E+10	1	-1E+10	1	-1E+10	1
4901784	230	C	10/21/2021	10:49	-136.563	43.256	0	435.30	0	5.3660	0	37.5930	8	29.692	0	431.382	0	82.4	4	27.6	4	-1E+10	1	-1E+10	1	-1E+10	1	-1E+10	1	-1E+10	1	-1E+10	1
4901784	230	C	10/21/2021	10:49	-136.563	43.256	0	437.00	0	5.3550	0	37.5920	8	29.692	0	433.065	0	81.7	4	27.3	4	-1E+10	1	-1E+10	1	-1E+10	1	-1E+10	1	-1E+10	1	-1E+10	1
4901784	230	C	10/21/2021	10:49	-136.563	43.256	0	439.70	0	5.3220	0	37.5930	8	29.697	0	435.738	0	80.4	4	26.9	4	-1E+10	1	-1E+10	1	-1E+10	1	-1E+10	1	-1E+10	1	-1E+10	1
4901784	230	C	10/21/2021	10:49	-136.563	43.256	0	442.30	0	5.3040	0	37.5940	8	29.700	0	438.312	0	79.0	4	26.4	4	-1E+10	1	-1E+10	1	-1E+10	1	-1E+10	1	-1E+10	1	-1E+10	1
4901784	230	C	10/21/2021	10:49	-136.563	43.256	0	445.10	0	5.2640	0	37.5970	8	29.708	0	441.083	0	77.8	4	26.0	4	-1E+10	1	-1E+10	1	-1E+10	1	-1E+10	1	-1E+10	1	-1E+10	1
4901784	230	C	10/21/2021	10:49	-136.563	43.256	0	447.80	0	5.2350	0	37.5990	8	29.713	0	443.756	0	77.0	4	25.7	4	-1E+10	1	-1E+10	1	-1E+10	1	-1E+10	1	-1E+10	1	-1E+10	1
4901784	230	C	10/21/2021	10:49	-136.563	43.256	0	449.50	0	5.2120	0	37.6020	8	29.718	0	445.439	0	76.5	4	25.5	4	-1E+10	1	-1E+10	1	-1E+10	1	-1E+10	1	-1E+10	1	-1E+10	1
4901784	230	C	10/21/2021	10:49	-136.563	43.256	0	452.20	0	5.1850	0	37.6050	8	29.724	0	448.112	0	76.0	4	25.3	4	-1E+10	1	-1E+10	1	-1E+10	1	-1E+10	1	-1E+10	1	-1E+10	1
4901784	230	C	10/21/2021	10:49	-136.563	43.256	0	454.90	0	5.1650	0	37.6070	8	29.728	0	450.784	0	75.7	4	25.2	4	-1E+10	1	-1E+10	1	-1E+10	1	-1E+10	1	-1E+10	1	-1E+10	1
4901784	230	C	10/21/2021	10:49	-136.563	43.256	0	457.50	0	5.1440	0	37.6090	8	29.733	0	453.358	0	75.2	4	25.0	4	-1E+10	1	-1E+10	1	-1E+10	1	-1E+10	1	-1E+10	1	-1E+10	1
4901784	230	C	10/21/2021	10:49	-136.563	43.256	0	460.10	0	5.1290	0	37.6100	8	29.735	0	455.931	0	74.6	4	24.8	4	-1E+10	1	-1E+10	1	-1E+10	1	-1E+10	1	-1E+10	1	-1E+10	1
4901784	230	C	10/21/2021	10:49	-136.563	43.256	0	462.80	0	5.1080	0	37.6120	8	29.739	0	458.604	0	73.7	4	24.5	4	-1E+10	1	-1E+10	1	-1E+10	1	-1E+10	1	-1E+10	1	-1E+10	1
4901784	230	C	10/21/2021	10:49	-136.563	43.256	0	465.50	0	5.0940	0	37.6140	8	29.743	0	461.277	0	72.7	4	24.2	4	-1E+10	1	-1E+10	1	-1E+10	1	-1E+10	1	-1E+10	1	-1E+10	1
4901784	230	C	10/21/2021	10:49	-136.563	43.256	0	467.30	0	5.0860	0	37.6130	8	29.743	0	463.058	0	72.0	4	23.9	4	-1E+10	1	-1E+10	1	-1E+10	1	-1E+10	1	-1E+10	1	-1E+10	1
4901784	230	C	10/21/2021	10:49	-136.563	43.256	0	470.00	0	5.0710	0	37.6150	8	29.746	0	465.731	0	70.6	4	23.5	4	-1E+10	1	-1E+10	1	-1E+10	1	-1E+10	1	-1E+10	1	-1E+10	1
4901784	230	C	10/21/2021	10:49	-136.563	43.256	0	472.70	0	5.0310	0	37.6210	8	29.756	0	468.403	0	69.2	4	23.0	4	-1E+10	1	-1E+10	1	-1E+10	1	-1E+10	1	-1E+10	1	-1E+10	1
4901784	230	C	10/21/2021	10:49	-136.563	43.256	0	474.50	0	5.0170	0	37.6230	8	29.760	0	470.185	0	68.5	4	22.7	4	-1E+10	1	-1E+10	1	-1E+10	1	-1E+10	1	-1E+10	1	-1E+10	1
4901784	230	C	10/21/2021	10:49	-136.563	43.256	0	477.30	0	4.9920	0	37.6260	8	29.765	0	472.956	0	67.5	4	22.4	4	-1E+10	1	-1E+10	1	-1E+10	1	-1E+10	1	-1E+10	1	-1E+10	1
4901784	230	C	10/21/2021	10:49	-136.563	43.256	0	480.00	0	4.9740	0	37.6280	8	29.769	0	475.628	0	66.5	4	22.0	4	-1E+10	1	-1E+10	1	-1E+10	1	-1E+10	1	-1E+10	1	-1E+10	1
4901784	230	C	10/21/2021	10:49	-136.563	43.256	0	482.60	0	4.9520	0	37.6310	8	29.774	0	478.202	0	65.4	4	21.7	4	-1E+10	1	-1E+10	1	-1E+10	1	-1E+10	1	-1E+10	1	-1E+10	1
4901784	230	C	10/21/2021	10:49	-136.563	43.256	0	485.30	0	4.9310	0	37.6340	8	29.779	0	480.874	0	64.1	4	21.2	4	-1E+10	1	-1E+10	1	-1E+10	1	-1E+10	1	-1E+10	1	-1E+10	1
4901784	230	C	10/21/2021	10:49	-136.563	43.256	0	487.10	0	4.9070	0	37.6370	8	29.784	0	482.656	0	63.4	4	21.0	4	-1E+10	1	-1E+10	1	-1E+10	1	-1E+10	1	-1E+10	1	-1E+10	1
4901784	230	C	10/21/2021	10:49	-136.563	43.256	0	489.90	0	4.8820	0	37.6410	8	29.790	0	485.427	0	62.5	4	20.7	4	-1E+10	1	-1E+10	1	-1E+10	1	-1E+10	1	-1E+10	1	-1E+10	1
4901784	230	C	10/21/2021	10:49	-136.563	43.256	0	492.60	0	4.8650	0	37.6430	8	29.794	0	488.099	0	61.6	4	20.4	4	-1E+10	1	-1E+10	1	-1E+10	1	-1E+10	1	-1E+10	1	-1E+10	1
4901784	230	C	10/21/2021	10:49	-136.563	43.256	0	495.30	0	4.8370	0	37.6480	8	29.802	0	490.771	0	60.8	4	20.1	4	-1E+10	1	-1E+10	1	-1E+10	1	-1E+10	1	-1E+10	1	-1E+10	1
4901784	230	C	10/21/2021	10:49	-136.563	43.256	0	498.00	0	4.8050	0	37.6540	8	29.810	0	493.443	0	60.3	4	19.9	4	-1E+10	1	-1E+10	1	-1E+10	1	-1E+10	1	-1E+10	1	-1E+10	1
4901784	230	C	10/21/2021	10:49	-136.563	43.256	0	499.90	0	4.7780	0	37.6530	8	29.813	0	495.323	0	60.0	4	19.8	4	-1E+10	1	-1E+10	1	-1E+10	1	-1E+10	1	-1E+10	1	-1E+10	1
4901784	230	C	10/21/2021	10:49	-136.563	43.256	0	505.40	0	4.7470	0	37.6610	8	29.823	0	500.766	0	58.4	4	19.3	4	-1E+10	1	-1E+10	1	-1E+10	1	-1E+10	1	-1E+10	1	-1E+10	1
4901784	230	C	10/21/2021	10:49	-136.563	43.256	0	510.50	0	4.7110	0	37.6670	8	29.832	0	505.814	0	56.6	4	18.7	4	-1E+10	1	-1E+10	1	-1E+10	1	-1E+10	1	-1E+10	1	-1E+10	1
4901784	230	C	10/21/2021	10:49	-136.563	43.256	0	515.20	0	4.6790	0	37.6730	8	29.841	0	510.465	0	55.3	4	18.2	4	-1E+10	1	-1E+10	1	-1E+10	1	-1E+10	1	-1E+10	1	-1E+10	1
4901784	230	C	10/21/2021	10:49	-136.563	43.256	0	520.00	0	4.6530	0	37.6780	8	29.848	0	515.215	0	53.7	4	17.7	4	-1E+10	1	-1E+10	1	-1E+10	1	-1E+10	1	-1E+10	1	-1E+10	1
4901784	230	C	10/21/2021	10:49	-136.563	43.256	0	524.80	0	4.6330	0	37.6830	8	29.854	0	519.964	0	52.5	4	17.3	4	-1E+10	1	-1E+10	1	-1E+10	1	-1E+10	1	-1E+10	1	-1E+10	1
4901784	230	C	10/21/2021	10:49	-136.563	43.256	0	529.70	0	4.6170	0	37.6890	8	29.861	0	524.813	0	51.5	4	16.9	4	-1E+10	1	-1E+10	1	-1E+10	1	-1E+10	1	-1E+10	1	-1E+10	1
4901784	230	C	10/21/2021	10:49	-136.563	43.256	0	534.60	0	4.6000	0	37.6930	8	29.866	0	529.662	0	50.5	4	16.6	4	-1E+10	1	-1E+10	1	-1E+10	1	-1E+10	1	-1E+10	1	-1E+10	1
4901784	230	C	10/21/2021	10:49	-136.563	43.256	0	539.60	0	4.5740	0	37.7000	8	29.875	0	534.609	0	49.4	4	16.2	4	-1E+10	1	-1E+10	1	-1E+10	1	-1E+10	1	-1E+10	1	-1E+10	1
4901784	230	C	10/21/2021	10:49	-136.563	43.256	0	544.70	0	4.5610	0	37.7040	8	29.880	0	539.655	0	48.2	4	15.8	4	-1E+10	1	-1E+10	1	-1E+10	1	-1E+10	1	-1E+10	1	-1E+10	1
4901784	230	C	10/21/2021	10:49	-136.563	43.256	0	549.80	0	4.5520	0	37.7100	8	29.885	0	544.701	0	46.7	4	15.4	4	-1E+10	1	-1E+10	1	-1E+10	1	-1E+10	1	-1E+10	1	-1E+10	1
4901784	230	C	10/21/2021	10:49	-136.563	43.256	0	555.00	0	4.5420	0	37.7150	8	29.891	0	549.846	0	45.0	4	14.8	4	-1E+10	1	-1E+10	1	-1E+10	1	-1E+10	1	-1E+10	1	-1E+10	1
4901784	230	C	10/21/2021	10:49	-136.563	43.256	0	560.30	0	4.5280	0	37.7210	8	29.897	0	555.090	0	43.8	4	14.4	4	-1E+10	1	-1E+10	1	-1E+10	1	-1E+10	1	-1E+10	1	-1E+10	1
4901784	230	C	10/21/2021	10:49	-136.563	43.256	0	565.50	0	4.5080	0	37.7260	8	29.903	0	560.235	0	42.8	4	14.0	4	-1E+10	1	-1E+10	1	-1E+10	1	-1E+10	1	-1E+10	1	-1E+10	1
4901784	230	C	10/21/2021	10:49	-136.563	43.256	0	570.00	0	4.4880	0	37.7330	8	29.911	0	564.687	0	41.7	4	13.7	4	-1E+10	1	-1E+10	1	-1E+10	1	-1E+10	1	-1E+10	1	-1E+10	1
4901784	230	C	10/21/2021	10:49	-136.563	43.256	0	574.40	0	4.4760	0	37.7370	8	29.916	0	569.040	0	41.2	4	13.5	4	-1E+10	1	-1E+10	1	-1E+10	1	-1E+10	1	-1E+10	1	-1E+10	1
4901784	230	C	10/21/2021	10:49	-136.563	43.256	0	579.70	0	4.4530	0	37.7420	8	29.923	0	574.283	0	40.2	4	13.2	4	-1E+10	1	-1E+10	1	-1E+10	1	-1E+10	1	-1E+10	1	-1E+10	1
4901784	230	C	10/21/2021	10:49	-136.563	43.256	0	584.90	0	4.4440	0	37.7470	8	29.928	0	579.427	0	38.8	4	12.7	4	-1E+10	1	-1E+10	1	-1E+10	1	-1E+10	1	-1E+10	1	-1E+10	1
4901784	230	C	10/21/2021	10:49	-136.563	43.256	0	590.20	0	4.4340	0	37.7530	8	29.934	0	584.670	0	37.2	4	12.2	4	-1E+10	1	-1E+10	1	-1E+10	1	-1E+10	1	-1E+10	1	-1E+10	1
4901784	230	C	10/21/2021	10:49	-136.563	43.256	0	595.60	0	4.4320	0	37.7610	8	29.940	0	590.012	0	35.3	4	11.6	4	-1E+10	1	-1E+10	1	-1E+10	1	-1E+10	1	-1E+10	1	-1E+10	1
4901784	230	C	10/21/2021	10:49	-136.563	43.256	0	600.00	0	4.4210	0	37.7670	8	29.947	0	594.364	0	34.1	4	11.2	4	-1E+10	1	-1E+10	1	-1E+10	1	-1E+10	1	-1E+10	1	-1E+10	1
4901784	230	C	10/21/2021	10:49	-136.563	43.256	0	604.50	0	4.4060	0	37.7740	8	29.954	0	598.815	0	33.2	4	10.9	4	-1E+10	1	-1E+10	1	-1E+10	1	-1E+10	1	-1E+10	1	-1E+10	1
4901784	230	C	10/21/2021	10:49	-136.563	43.256	0	609.90	0	4.3930	0	37.7790	8	29.959	0	604.157	0	32.2	4	10.5	4	-1E+10	1	-1E+10	1	-1E+10	1	-1E+10	1	-1E+10	1	-1E+10	1
4901784	230	C	10/21/2021	10:49	-136.563	43.256	0	615.20	0	4.3800	0	37.7850	8	29.966	0	609.399	0	31.0	4	10.1	4	-1E+10	1	-1E+10	1	-1E+10	1	-1E+10	1	-1E+10	1	-1E+10	1
4901784	230	C	10/21/2021	10:49	-136.563	43.256	0	620.60	0	4.3640	0	37.7930	8	29.974	0	614.740	0	29.9	4	9.8	4	-1E+10	1	-1E+10	1	-1E+10	1	-1E+10	1	-1E+10	1	-1E+10	1
4901784	230	C	10/21/2021	10:49	-136.563	43.256	0	625.10	0	4.3580	0	37.7960	8	29.977	0	619.191	0	29.3	4	9.6	4	-1E+10	1	-1E+10	1	-1E+10	1	-1E+10	1	-1E+10	1	-1E+10	1
4901784	230	C	10/21/2021	10:49	-136.563	43.256	0	629.60	0	4.3440	0	37.8000	8	29.982	0	623.642	0	28.5	4	9.3	4	-1E+10	1	-1E+10	1	-1E+10	1	-1E+10	1	-1E+10	1	-1E+10	1
4901784	230	C	10/21/2021	10:49	-136.563	43.256	0	635.00	0	4.3320	0	37.8060	8	29.988	0	628.982	0	27.2	4	8.9	4	-1E+10	1	-1E+10	1	-1E+10	1	-1E+10	1	-1E+10	1	-1E+10	1
4901784	230	C	10/21/2021	10:49	-136.563	43.256	0	640.50	0	4.3180	0	37.8130	8	29.996	0	634.422	0	26.4	4	8.6	4	-1E+10	1	-1E+10	1	-1E+10	1	-1E+10	1	-1E+10	1	-1E+10	1
4901784	230	C	10/21/2021	10:49	-136.563	43.256	0	645.10	0	4.3010	0	37.8170	8	30.001	0	638.971	0	25.7	4	8.4	4	-1E+10	1	-1E+10	1	-1E+10	1	-1E+10	1	-1E+10	1	-1E+10	1
4901784	230	C	10/21/2021	10:49	-136.563	43.256	0	649.80	0	4.2910	0	37.8230	8	30.007	0	643.619	0	24.8	4	8.1	4	-1E+10	1	-1E+10	1	-1E+10	1	-1E+10	1	-1E+10	1	-1E+10	1
4901784	230	C	10/21/2021	10:49	-136.563	43.256	0	655.40	0	4.2860	0	37.8290	8	30.012	0	649.157	0	23.8	4	7.8	4	-1E+10	1	-1E+10	1	-1E+10	1	-1E+10	1	-1E+10	1	-1E+10	1
4901784	230	C	10/21/2021	10:49	-136.563	43.256	0	659.90	0	4.2730	0	37.8340	8	30.018	0	653.607	0	23.2	4	7.6	4	-1E+10	1	-1E+10	1	-1E+10	1	-1E+10	1	-1E+10	1	-1E+10	1
4901784	230	C	10/21/2021	10:49	-136.563	43.256	0	664.60	0	4.2590	0	37.8410	8	30.025	0	658.255	0	22.7	4	7.4	4	-1E+10	1	-1E+10	1	-1E+10	1	-1E+10	1	-1E+10	1	-1E+10	1
4901784	230	C	10/21/2021	10:49	-136.563	43.256	0	670.10	0	4.2520	0	37.8430	8	30.027	0	663.694	0	22.2	4	7.2	4	-1E+10	1	-1E+10	1	-1E+10	1	-1E+10	1	-1E+10	1	-1E+10	1
4901784	230	C	10/21/2021	10:49	-136.563	43.256	0	674.90	0	4.2450	0	37.8460	8	30.030	0	668.440	0	21.5	4	7.0	4	-1E+10	1	-1E+10	1	-1E+10	1	-1E+10	1	-1E+10	1	-1E+10	1
4901784	230	C	10/21/2021	10:49	-136.563	43.256	0	679.70	0	4.2190	0	37.8550	8	30.041	0	673.187	0	20.7	4	6.8	4	-1E+10	1	-1E+10	1	-1E+10	1	-1E+10	1	-1E+10	1	-1E+10	1
4901784	230	C	10/21/2021	10:49	-136.563	43.256	0	684.70	0	4.1980	0	37.8620	8	30.049	0	678.131	0	20.3	4	6.6	4	-1E+10	1	-1E+10	1	-1E+10	1	-1E+10	1	-1E+10	1	-1E+10	1
4901784	230	C	10/21/2021	10:49	-136.563	43.256	0	689.90	0	4.1780	0	37.8670	8	30.055	0	683.272	0	19.8	4	6.4	4	-1E+10	1	-1E+10	1	-1E+10	1	-1E+10	1	-1E+10	1	-1E+10	1
4901784	230	C	10/21/2021	10:49	-136.563	43.256	0	695.40	0	4.1600	0	37.8740	8	30.063	0	688.710	0	19.1	4	6.2	4	-1E+10	1	-1E+10	1	-1E+10	1	-1E+10	1	-1E+10	1	-1E+10	1
4901784	230	C	10/21/2021	10:49	-136.563	43.256	0	700.30	0	4.1490	0	37.8800	8	30.069	0	693.555	0	18.5	4	6.0	4	-1E+10	1	-1E+10	1	-1E+10	1	-1E+10	1	-1E+10	1	-1E+10	1
4901784	230	C	10/21/2021	10:49	-136.563	43.256	0	705.10	0	4.1380	0	37.8850	8	30.074	0	698.301	0	18.1	4	5.9	4	-1E+10	1	-1E+10	1	-1E+10	1	-1E+10	1	-1E+10	1	-1E+10	1
4901784	230	C	10/21/2021	10:49	-136.563	43.256	0	710.10	0	4.1380	0	37.8880	8	30.076	0	703.244	0	17.6	4	5.7	4	-1E+10	1	-1E+10	1	-1E+10	1	-1E+10	1	-1E+10	1	-1E+10	1
4901784	230	C	10/21/2021	10:49	-136.563	43.256	0	714.90	0	4.1190	0	37.8950	8	30.084	0	707.990	0	17.1	4	5.6	4	-1E+10	1	-1E+10	1	-1E+10	1	-1E+10	1	-1E+10	1	-1E+10	1
4901784	230	C	10/21/2021	10:49	-136.563	43.256	0	719.70	0	4.1070	0	37.8990	8	30.089	0	712.735	0	16.8	4	5.5	4	-1E+10	1	-1E+10	1	-1E+10	1	-1E+10	1	-1E+10	1	-1E+10	1
4901784	230	C	10/21/2021	10:49	-136.563	43.256	0	724.70	0	4.0970	0	37.9030	8	30.093	0	717.678	0	16.4	4	5.3	4	-1E+10	1	-1E+10	1	-1E+10	1	-1E+10	1	-1E+10	1	-1E+10	1
4901784	230	C	10/21/2021	10:49	-136.563	43.256	0	729.70	0	4.0810	0	37.9110	8	30.101	0	722.621	0	15.9	4	5.2	4	-1E+10	1	-1E+10	1	-1E+10	1	-1E+10	1	-1E+10	1	-1E+10	1
4901784	230	C	10/21/2021	10:49	-136.563	43.256	0	734.70	0	4.0710	0	37.9160	8	30.107	0	727.564	0	15.5	4	5.0	4	-1E+10	1	-1E+10	1	-1E+10	1	-1E+10	1	-1E+10	1	-1E+10	1
4901784	230	C	10/21/2021	10:49	-136.563	43.256	0	739.70	0	4.0580	0	37.9210	8	30.112	0	732.506	0	15.1	4	4.9	4	-1E+10	1	-1E+10	1	-1E+10	1	-1E+10	1	-1E+10	1	-1E+10	1
4901784	230	C	10/21/2021	10:49	-136.563	43.256	0	744.80	0	4.0450	0	37.9280	8	30.119	0	737.548	0	14.7	4	4.8	4	-1E+10	1	-1E+10	1	-1E+10	1	-1E+10	1	-1E+10	1	-1E+10	1
4901784	230	C	10/21/2021	10:49	-136.563	43.256	0	750.00	0	4.0370	0	37.9340	8	30.125	0	742.688	0	14.3	4	4.7	4	-1E+10	1	-1E+10	1	-1E+10	1	-1E+10	1	-1E+10	1	-1E+10	1
4901784	230	C	10/21/2021	10:49	-136.563	43.256	0	755.20	0	4.0320	0	37.9370	8	30.128	0	747.828	0	14.0	4	4.6	4	-1E+10	1	-1E+10	1	-1E+10	1	-1E+10	1	-1E+10	1	-1E+10	1
4901784	230	C	10/21/2021	10:49	-136.563	43.256	0	760.40	0	4.0210	0	37.9440	8	30.135	0	752.968	0	13.6	4	4.4	4	-1E+10	1	-1E+10	1	-1E+10	1	-1E+10	1	-1E+10	1	-1E+10	1
4901784	230	C	10/21/2021	10:49	-136.563	43.256	0	764.90	0	4.0130	0	37.9500	8	30.140	0	757.416	0	13.4	4	4.3	4	-1E+10	1	-1E+10	1	-1E+10	1	-1E+10	1	-1E+10	1	-1E+10	1
4901784	230	C	10/21/2021	10:49	-136.563	43.256	0	769.30	0	4.0160	0	37.9530	8	30.143	0	761.765	0	13.1	4	4.3	4	-1E+10	1	-1E+10	1	-1E+10	1	-1E+10	1	-1E+10	1	-1E+10	1
4901784	230	C	10/21/2021	10:49	-136.563	43.256	0	774.70	0	4.0090	0	37.9570	8	30.147	0	767.102	0	12.9	4	4.2	4	-1E+10	1	-1E+10	1	-1E+10	1	-1E+10	1	-1E+10	1	-1E+10	1
4901784	230	C	10/21/2021	10:49	-136.563	43.256	0	780.10	0	3.9930	0	37.9620	8	30.152	0	772.439	0	12.7	4	4.1	4	-1E+10	1	-1E+10	1	-1E+10	1	-1E+10	1	-1E+10	1	-1E+10	1
4901784	230	C	10/21/2021	10:49	-136.563	43.256	0	785.50	0	3.9780	0	37.9660	8	30.157	0	777.776	0	12.5	4	4.1	4	-1E+10	1	-1E+10	1	-1E+10	1	-1E+10	1	-1E+10	1	-1E+10	1
4901784	230	C	10/21/2021	10:49	-136.563	43.256	0	790.20	0	3.9710	0	37.9720	8	30.163	0	782.421	0	12.3	4	4.0	4	-1E+10	1	-1E+10	1	-1E+10	1	-1E+10	1	-1E+10	1	-1E+10	1
4901784	230	C	10/21/2021	10:49	-136.563	43.256	0	794.80	0	3.9680	0	37.9750	8	30.166	0	786.967	0	12.2	4	3.9	4	-1E+10	1	-1E+10	1	-1E+10	1	-1E+10	1	-1E+10	1	-1E+10	1
4901784	230	C	10/21/2021	10:49	-136.563	43.256	0	800.30	0	3.9560	0	37.9790	8	30.170	0	792.402	0	12.1	4	3.9	4	-1E+10	1	-1E+10	1	-1E+10	1	-1E+10	1	-1E+10	1	-1E+10	1
4901784	230	C	10/21/2021	10:49	-136.563	43.256	0	804.90	0	3.9470	0	37.9820	8	30.174	0	796.948	0	12.0	4	3.9	4	-1E+10	1	-1E+10	1	-1E+10	1	-1E+10	1	-1E+10	1	-1E+10	1
4901784	230	C	10/21/2021	10:49	-136.563	43.256	0	809.60	0	3.9420	0	37.9860	8	30.177	0	801.592	0	11.9	4	3.8	4	-1E+10	1	-1E+10	1	-1E+10	1	-1E+10	1	-1E+10	1	-1E+10	1
4901784	230	C	10/21/2021	10:49	-136.563	43.256	0	814.80	0	3.9360	0	37.9880	8	30.180	0	806.731	0	11.7	4	3.8	4	-1E+10	1	-1E+10	1	-1E+10	1	-1E+10	1	-1E+10	1	-1E+10	1
4901784	230	C	10/21/2021	10:49	-136.563	43.256	0	819.60	0	3.9300	0	37.9910	8	30.183	0	811.474	0	11.6	4	3.8	4	-1E+10	1	-1E+10	1	-1E+10	1	-1E+10	1	-1E+10	1	-1E+10	1
4901784	230	C	10/21/2021	10:49	-136.563	43.256	0	824.30	0	3.9200	0	37.9950	8	30.187	0	816.118	0	11.5	4	3.7	4	-1E+10	1	-1E+10	1	-1E+10	1	-1E+10	1	-1E+10	1	-1E+10	1
4901784	230	C	10/21/2021	10:49	-136.563	43.256	0	829.90	0	3.9100	0	38.0000	8	30.192	0	821.652	0	11.3	4	3.7	4	-1E+10	1	-1E+10	1	-1E+10	1	-1E+10	1	-1E+10	1	-1E+10	1
4901784	230	C	10/21/2021	10:49	-136.563	43.256	0	835.60	0	3.8990	0	38.0050	8	30.198	0	827.284	0	11.2	4	3.6	4	-1E+10	1	-1E+10	1	-1E+10	1	-1E+10	1	-1E+10	1	-1E+10	1
4901784	230	C	10/21/2021	10:49	-136.563	43.256	0	840.60	0	3.8860	0	38.0070	8	30.201	0	832.224	0	11.2	4	3.6	4	-1E+10	1	-1E+10	1	-1E+10	1	-1E+10	1	-1E+10	1	-1E+10	1
4901784	230	C	10/21/2021	10:49	-136.563	43.256	0	845.50	0	3.8680	0	38.0110	8	30.206	0	837.065	0	11.0	4	3.6	4	-1E+10	1	-1E+10	1	-1E+10	1	-1E+10	1	-1E+10	1	-1E+10	1
4901784	230	C	10/21/2021	10:49	-136.563	43.256	0	850.50	0	3.8790	0	38.0160	8	30.209	0	842.006	0	10.9	4	3.5	4	-1E+10	1	-1E+10	1	-1E+10	1	-1E+10	1	-1E+10	1	-1E+10	1
4901784	230	C	10/21/2021	10:49	-136.563	43.256	0	855.40	0	3.8720	0	38.0190	8	30.212	0	846.847	0	10.8	4	3.5	4	-1E+10	1	-1E+10	1	-1E+10	1	-1E+10	1	-1E+10	1	-1E+10	1
4901784	230	C	10/21/2021	10:49	-136.563	43.256	0	860.30	0	3.8650	0	38.0220	8	30.215	0	851.688	0	10.7	4	3.5	4	-1E+10	1	-1E+10	1	-1E+10	1	-1E+10	1	-1E+10	1	-1E+10	1
4901784	230	C	10/21/2021	10:49	-136.563	43.256	0	865.30	0	3.8610	0	38.0250	8	30.218	0	856.627	0	10.7	4	3.5	4	-1E+10	1	-1E+10	1	-1E+10	1	-1E+10	1	-1E+10	1	-1E+10	1
4901784	230	C	10/21/2021	10:49	-136.563	43.256	0	870.20	0	3.8530	0	38.0290	8	30.222	0	861.468	0	10.6	4	3.4	4	-1E+10	1	-1E+10	1	-1E+10	1	-1E+10	1	-1E+10	1	-1E+10	1
4901784	230	C	10/21/2021	10:49	-136.563	43.256	0	875.30	0	3.8480	0	38.0320	8	30.225	0	866.506	0	10.5	4	3.4	4	-1E+10	1	-1E+10	1	-1E+10	1	-1E+10	1	-1E+10	1	-1E+10	1
4901784	230	C	10/21/2021	10:49	-136.563	43.256	0	880.30	0	3.8400	0	38.0340	8	30.228	0	871.446	0	10.5	4	3.4	4	-1E+10	1	-1E+10	1	-1E+10	1	-1E+10	1	-1E+10	1	-1E+10	1
4901784	230	C	10/21/2021	10:49	-136.563	43.256	0	885.30	0	3.8340	0	38.0370	8	30.231	0	876.385	0	10.4	4	3.4	4	-1E+10	1	-1E+10	1	-1E+10	1	-1E+10	1	-1E+10	1	-1E+10	1
4901784	230	C	10/21/2021	10:49	-136.563	43.256	0	890.30	0	3.8290	0	38.0390	8	30.233	0	881.324	0	10.4	4	3.4	4	-1E+10	1	-1E+10	1	-1E+10	1	-1E+10	1	-1E+10	1	-1E+10	1
4901784	230	C	10/21/2021	10:49	-136.563	43.256	0	895.40	0	3.8130	0	38.0430	8	30.238	0	886.362	0	10.3	4	3.3	4	-1E+10	1	-1E+10	1	-1E+10	1	-1E+10	1	-1E+10	1	-1E+10	1
4901784	230	C	10/21/2021	10:49	-136.563	43.256	0	900.50	0	3.8040	0	38.0470	8	30.242	0	891.400	0	10.3	4	3.3	4	-1E+10	1	-1E+10	1	-1E+10	1	-1E+10	1	-1E+10	1	-1E+10	1
4901784	230	C	10/21/2021	10:49	-136.563	43.256	0	905.60	0	3.7990	0	38.0510	8	30.246	0	896.437	0	10.2	4	3.3	4	-1E+10	1	-1E+10	1	-1E+10	1	-1E+10	1	-1E+10	1	-1E+10	1
4901784	230	C	10/21/2021	10:49	-136.563	43.256	0	910.00	0	3.7950	0	38.0520	8	30.247	0	900.783	0	10.1	4	3.3	4	-1E+10	1	-1E+10	1	-1E+10	1	-1E+10	1	-1E+10	1	-1E+10	1
4901784	230	C	10/21/2021	10:49	-136.563	43.256	0	914.20	0	3.7760	0	38.0560	8	30.253	0	904.932	0	10.1	4	3.3	4	-1E+10	1	-1E+10	1	-1E+10	1	-1E+10	1	-1E+10	1	-1E+10	1
4901784	230	C	10/21/2021	10:49	-136.563	43.256	0	919.40	0	3.7630	0	38.0610	8	30.258	0	910.068	0	10.1	4	3.3	4	-1E+10	1	-1E+10	1	-1E+10	1	-1E+10	1	-1E+10	1	-1E+10	1
4901784	230	C	10/21/2021	10:49	-136.563	43.256	0	924.60	0	3.7490	0	38.0640	8	30.262	0	915.203	0	10.1	4	3.3	4	-1E+10	1	-1E+10	1	-1E+10	1	-1E+10	1	-1E+10	1	-1E+10	1
4901784	230	C	10/21/2021	10:49	-136.563	43.256	0	929.80	0	3.7450	0	38.0650	8	30.263	0	920.339	0	10.1	4	3.2	4	-1E+10	1	-1E+10	1	-1E+10	1	-1E+10	1	-1E+10	1	-1E+10	1
4901784	230	C	10/21/2021	10:49	-136.563	43.256	0	935.10	0	3.7380	0	38.0680	8	30.266	0	925.573	0	10.0	4	3.2	4	-1E+10	1	-1E+10	1	-1E+10	1	-1E+10	1	-1E+10	1	-1E+10	1
4901784	230	C	10/21/2021	10:49	-136.563	43.256	0	940.30	0	3.7170	0	38.0720	8	30.272	0	930.709	0	10.0	4	3.2	4	-1E+10	1	-1E+10	1	-1E+10	1	-1E+10	1	-1E+10	1	-1E+10	1
4901784	230	C	10/21/2021	10:49	-136.563	43.256	0	945.70	0	3.7090	0	38.0780	8	30.278	0	936.042	0	9.9	4	3.2	4	-1E+10	1	-1E+10	1	-1E+10	1	-1E+10	1	-1E+10	1	-1E+10	1
4901784	230	C	10/21/2021	10:49	-136.563	43.256	0	950.10	0	3.6930	0	38.0840	8	30.284	0	940.387	0	9.9	4	3.2	4	-1E+10	1	-1E+10	1	-1E+10	1	-1E+10	1	-1E+10	1	-1E+10	1
4901784	230	C	10/21/2021	10:49	-136.563	43.256	0	954.50	0	3.6920	0	38.0890	8	30.288	0	944.732	0	9.9	4	3.2	4	-1E+10	1	-1E+10	1	-1E+10	1	-1E+10	1	-1E+10	1	-1E+10	1
4901784	230	C	10/21/2021	10:49	-136.563	43.256	0	959.80	0	3.6790	0	38.0910	8	30.291	0	949.966	0	9.9	4	3.2	4	-1E+10	1	-1E+10	1	-1E+10	1	-1E+10	1	-1E+10	1	-1E+10	1
4901784	230	C	10/21/2021	10:49	-136.563	43.256	0	965.10	0	3.6720	0	38.0940	8	30.295	0	955.199	0	9.8	4	3.2	4	-1E+10	1	-1E+10	1	-1E+10	1	-1E+10	1	-1E+10	1	-1E+10	1
4901784	230	C	10/21/2021	10:49	-136.563	43.256	0	970.40	0	3.6600	0	38.0960	8	30.298	0	960.433	0	9.8	4	3.2	4	-1E+10	1	-1E+10	1	-1E+10	1	-1E+10	1	-1E+10	1	-1E+10	1
4901784	230	C	10/21/2021	10:49	-136.563	43.256	0	975.60	0	3.6460	0	38.1000	8	30.302	0	965.568	0	9.8	4	3.2	4	-1E+10	1	-1E+10	1	-1E+10	1	-1E+10	1	-1E+10	1	-1E+10	1
4901784	230	C	10/21/2021	10:49	-136.563	43.256	0	980.00	0	3.6400	0	38.1030	8	30.305	0	969.912	0	9.8	4	3.2	4	-1E+10	1	-1E+10	1	-1E+10	1	-1E+10	1	-1E+10	1	-1E+10	1
4901784	230	C	10/21/2021	10:49	-136.563	43.256	0	984.50	0	3.6320	0	38.1060	8	30.309	0	974.355	0	9.8	4	3.2	4	-1E+10	1	-1E+10	1	-1E+10	1	-1E+10	1	-1E+10	1	-1E+10	1
4901784	230	C	10/21/2021	10:49	-136.563	43.256	0	989.80	0	3.6160	0	38.1080	8	30.312	0	979.588	0	9.8	4	3.2	4	-1E+10	1	-1E+10	1	-1E+10	1	-1E+10	1	-1E+10	1	-1E+10	1
4901784	230	C	10/21/2021	10:49	-136.563	43.256	0	995.20	0	3.6010	0	38.1120	8	30.317	0	984.920	0	9.9	4	3.2	4	-1E+10	1	-1E+10	1	-1E+10	1	-1E+10	1	-1E+10	1	-1E+10	1
4901784	230	C	10/21/2021	10:49	-136.563	43.256	0	1000.60	0	3.5910	0	38.1170	8	30.322	0	990.251	0	9.9	4	3.2	4	-1E+10	1	-1E+10	1	-1E+10	1	-1E+10	1	-1E+10	1	-1E+10	1
4901784	230	C	10/21/2021	10:49	-136.563	43.256	0	1005.10	0	3.5760	0	38.1200	8	30.326	0	994.694	0	9.9	4	3.2	4	-1E+10	1	-1E+10	1	-1E+10	1	-1E+10	1	-1E+10	1	-1E+10	1
4901784	230	C	10/21/2021	10:49	-136.563	43.256	0	1009.70	0	3.5640	0	38.1230	8	30.330	0	999.236	0	9.9	4	3.2	4	-1E+10	1	-1E+10	1	-1E+10	1	-1E+10	1	-1E+10	1	-1E+10	1
4901784	230	C	10/21/2021	10:49	-136.563	43.256	0	1015.20	0	3.5520	0	38.1270	8	30.334	0	1004.665	0	10.0	4	3.2	4	-1E+10	1	-1E+10	1	-1E+10	1	-1E+10	1	-1E+10	1	-1E+10	1
4901784	230	C	10/21/2021	10:49	-136.563	43.256	0	1019.70	0	3.5400	0	38.1290	8	30.337	0	1009.108	0	10.0	4	3.2	4	-1E+10	1	-1E+10	1	-1E+10	1	-1E+10	1	-1E+10	1	-1E+10	1
4901784	230	C	10/21/2021	10:49	-136.563	43.256	0	1024.30	0	3.5260	0	38.1330	8	30.342	0	1013.649	0	10.1	4	3.2	4	-1E+10	1	-1E+10	1	-1E+10	1	-1E+10	1	-1E+10	1	-1E+10	1
4901784	230	C	10/21/2021	10:49	-136.563	43.256	0	1029.90	0	3.5060	0	38.1390	8	30.349	0	1019.177	0	10.1	4	3.3	4	-1E+10	1	-1E+10	1	-1E+10	1	-1E+10	1	-1E+10	1	-1E+10	1
4901784	230	C	10/21/2021	10:49	-136.563	43.256	0	1035.40	0	3.4910	0	38.1430	8	30.354	0	1024.607	0	10.2	4	3.3	4	-1E+10	1	-1E+10	1	-1E+10	1	-1E+10	1	-1E+10	1	-1E+10	1
4901784	230	C	10/21/2021	10:49	-136.563	43.256	0	1040.00	0	3.4790	0	38.1450	8	30.357	0	1029.147	0	10.2	4	3.3	4	-1E+10	1	-1E+10	1	-1E+10	1	-1E+10	1	-1E+10	1	-1E+10	1
4901784	230	C	10/21/2021	10:49	-136.563	43.256	0	1044.60	0	3.4680	0	38.1480	8	30.360	0	1033.688	0	10.2	4	3.3	4	-1E+10	1	-1E+10	1	-1E+10	1	-1E+10	1	-1E+10	1	-1E+10	1
4901784	230	C	10/21/2021	10:49	-136.563	43.256	0	1050.20	0	3.4610	0	38.1490	8	30.362	0	1039.216	0	10.2	4	3.3	4	-1E+10	1	-1E+10	1	-1E+10	1	-1E+10	1	-1E+10	1	-1E+10	1
4901784	230	C	10/21/2021	10:49	-136.563	43.256	0	1054.90	0	3.4500	0	38.1520	8	30.365	0	1043.855	0	10.3	4	3.3	4	-1E+10	1	-1E+10	1	-1E+10	1	-1E+10	1	-1E+10	1	-1E+10	1
4901784	230	C	10/21/2021	10:49	-136.563	43.256	0	1059.50	0	3.4440	0	38.1530	8	30.367	0	1048.395	0	10.3	4	3.3	4	-1E+10	1	-1E+10	1	-1E+10	1	-1E+10	1	-1E+10	1	-1E+10	1
4901784	230	C	10/21/2021	10:49	-136.563	43.256	0	1065.10	0	3.4350	0	38.1560	8	30.370	0	1053.922	0	10.3	4	3.3	4	-1E+10	1	-1E+10	1	-1E+10	1	-1E+10	1	-1E+10	1	-1E+10	1
4901784	230	C	10/21/2021	10:49	-136.563	43.256	0	1069.70	0	3.4290	0	38.1580	8	30.372	0	1058.462	0	10.4	4	3.3	4	-1E+10	1	-1E+10	1	-1E+10	1	-1E+10	1	-1E+10	1	-1E+10	1
4901784	230	C	10/21/2021	10:49	-136.563	43.256	0	1074.40	0	3.4230	0	38.1590	8	30.374	0	1063.101	0	10.5	4	3.4	4	-1E+10	1	-1E+10	1	-1E+10	1	-1E+10	1	-1E+10	1	-1E+10	1
4901784	230	C	10/21/2021	10:49	-136.563	43.256	0	1080.00	0	3.4090	0	38.1620	8	30.378	0	1068.628	0	10.6	4	3.4	4	-1E+10	1	-1E+10	1	-1E+10	1	-1E+10	1	-1E+10	1	-1E+10	1
4901784	230	C	10/21/2021	10:49	-136.563	43.256	0	1084.80	0	3.3950	0	38.1650	8	30.382	0	1073.365	0	10.7	4	3.4	4	-1E+10	1	-1E+10	1	-1E+10	1	-1E+10	1	-1E+10	1	-1E+10	1
4901784	230	C	10/21/2021	10:49	-136.563	43.256	0	1090.10	0	3.3740	0	38.1700	8	30.388	0	1078.596	0	10.8	4	3.5	4	-1E+10	1	-1E+10	1	-1E+10	1	-1E+10	1	-1E+10	1	-1E+10	1
4901784	230	C	10/21/2021	10:49	-136.563	43.256	0	1095.30	0	3.3620	0	38.1730	8	30.392	0	1083.727	0	10.9	4	3.5	4	-1E+10	1	-1E+10	1	-1E+10	1	-1E+10	1	-1E+10	1	-1E+10	1
4901784	230	C	10/21/2021	10:49	-136.563	43.256	0	1100.20	0	3.3500	0	38.1770	8	30.396	0	1088.563	0	11.0	4	3.5	4	-1E+10	1	-1E+10	1	-1E+10	1	-1E+10	1	-1E+10	1	-1E+10	1
4901784	230	C	10/21/2021	10:49	-136.563	43.256	0	1105.10	0	3.3370	0	38.1800	8	30.400	0	1093.398	0	11.1	4	3.6	4	-1E+10	1	-1E+10	1	-1E+10	1	-1E+10	1	-1E+10	1	-1E+10	1
4901784	230	C	10/21/2021	10:49	-136.563	43.256	0	1110.00	0	3.3260	0	38.1830	8	30.404	0	1098.234	0	11.2	4	3.6	4	-1E+10	1	-1E+10	1	-1E+10	1	-1E+10	1	-1E+10	1	-1E+10	1
4901784	230	C	10/21/2021	10:49	-136.563	43.256	0	1114.90	0	3.3180	0	38.1850	8	30.406	0	1103.069	0	11.3	4	3.6	4	-1E+10	1	-1E+10	1	-1E+10	1	-1E+10	1	-1E+10	1	-1E+10	1
4901784	230	C	10/21/2021	10:49	-136.563	43.256	0	1119.80	0	3.3090	0	38.1880	8	30.409	0	1107.904	0	11.4	4	3.6	4	-1E+10	1	-1E+10	1	-1E+10	1	-1E+10	1	-1E+10	1	-1E+10	1
4901784	230	C	10/21/2021	10:49	-136.563	43.256	0	1124.90	0	3.3040	0	38.1910	8	30.412	0	1112.936	0	11.4	4	3.7	4	-1E+10	1	-1E+10	1	-1E+10	1	-1E+10	1	-1E+10	1	-1E+10	1
4901784	230	C	10/21/2021	10:49	-136.563	43.256	0	1129.90	0	3.2950	0	38.1930	8	30.415	0	1117.870	0	11.5	4	3.7	4	-1E+10	1	-1E+10	1	-1E+10	1	-1E+10	1	-1E+10	1	-1E+10	1
4901784	230	C	10/21/2021	10:49	-136.563	43.256	0	1135.00	0	3.2880	0	38.1950	8	30.417	0	1122.902	0	11.6	4	3.7	4	-1E+10	1	-1E+10	1	-1E+10	1	-1E+10	1	-1E+10	1	-1E+10	1
4901784	230	C	10/21/2021	10:49	-136.563	43.256	0	1140.10	0	3.2770	0	38.1970	8	30.420	0	1127.934	0	11.7	4	3.8	4	-1E+10	1	-1E+10	1	-1E+10	1	-1E+10	1	-1E+10	1	-1E+10	1
4901784	230	C	10/21/2021	10:49	-136.563	43.256	0	1145.20	0	3.2660	0	38.2010	8	30.424	0	1132.966	0	11.9	4	3.8	4	-1E+10	1	-1E+10	1	-1E+10	1	-1E+10	1	-1E+10	1	-1E+10	1
4901784	230	C	10/21/2021	10:49	-136.563	43.256	0	1150.40	0	3.2540	0	38.2040	8	30.428	0	1138.096	0	12.0	4	3.8	4	-1E+10	1	-1E+10	1	-1E+10	1	-1E+10	1	-1E+10	1	-1E+10	1
4901784	230	C	10/21/2021	10:49	-136.563	43.256	0	1155.50	0	3.2460	0	38.2050	8	30.430	0	1143.128	0	12.1	4	3.9	4	-1E+10	1	-1E+10	1	-1E+10	1	-1E+10	1	-1E+10	1	-1E+10	1
4901784	230	C	10/21/2021	10:49	-136.563	43.256	0	1160.60	0	3.2350	0	38.2080	8	30.433	0	1148.159	0	12.2	4	3.9	4	-1E+10	1	-1E+10	1	-1E+10	1	-1E+10	1	-1E+10	1	-1E+10	1
4901784	230	C	10/21/2021	10:49	-136.563	43.256	0	1164.90	0	3.2230	0	38.2110	8	30.437	0	1152.401	0	12.4	4	3.9	4	-1E+10	1	-1E+10	1	-1E+10	1	-1E+10	1	-1E+10	1	-1E+10	1
4901784	230	C	10/21/2021	10:49	-136.563	43.256	0	1169.30	0	3.2150	0	38.2130	8	30.439	0	1156.742	0	12.4	4	4.0	4	-1E+10	1	-1E+10	1	-1E+10	1	-1E+10	1	-1E+10	1	-1E+10	1
4901784	230	C	10/21/2021	10:49	-136.563	43.256	0	1174.50	0	3.2000	0	38.2160	8	30.443	0	1161.872	0	12.6	4	4.0	4	-1E+10	1	-1E+10	1	-1E+10	1	-1E+10	1	-1E+10	1	-1E+10	1
4901784	230	C	10/21/2021	10:49	-136.563	43.256	0	1179.90	0	3.1910	0	38.2180	8	30.446	0	1167.199	0	12.7	4	4.1	4	-1E+10	1	-1E+10	1	-1E+10	1	-1E+10	1	-1E+10	1	-1E+10	1
4901784	230	C	10/21/2021	10:49	-136.563	43.256	0	1185.20	0	3.1830	0	38.2200	8	30.448	0	1172.427	0	12.8	4	4.1	4	-1E+10	1	-1E+10	1	-1E+10	1	-1E+10	1	-1E+10	1	-1E+10	1
4901784	230	C	10/21/2021	10:49	-136.563	43.256	0	1190.60	0	3.1740	0	38.2230	8	30.452	0	1177.753	0	12.9	4	4.1	4	-1E+10	1	-1E+10	1	-1E+10	1	-1E+10	1	-1E+10	1	-1E+10	1
4901784	230	C	10/21/2021	10:49	-136.563	43.256	0	1195.20	0	3.1680	0	38.2240	8	30.453	0	1182.291	0	13.0	4	4.2	4	-1E+10	1	-1E+10	1	-1E+10	1	-1E+10	1	-1E+10	1	-1E+10	1
4901784	230	C	10/21/2021	10:49	-136.563	43.256	0	1199.70	0	3.1580	0	38.2260	8	30.456	0	1186.730	0	13.2	4	4.2	4	-1E+10	1	-1E+10	1	-1E+10	1	-1E+10	1	-1E+10	1	-1E+10	1
4901784	230	C	10/21/2021	10:49	-136.563	43.256	0	1205.10	0	3.1480	0	38.2290	8	30.459	0	1192.056	0	13.3	4	4.2	4	-1E+10	1	-1E+10	1	-1E+10	1	-1E+10	1	-1E+10	1	-1E+10	1
4901784	230	C	10/21/2021	10:49	-136.563	43.256	0	1210.60	0	3.1400	0	38.2300	8	30.461	0	1197.481	0	13.4	4	4.3	4	-1E+10	1	-1E+10	1	-1E+10	1	-1E+10	1	-1E+10	1	-1E+10	1
4901784	230	C	10/21/2021	10:49	-136.563	43.256	0	1215.20	0	3.1250	0	38.2330	8	30.465	0	1202.018	0	13.6	4	4.3	4	-1E+10	1	-1E+10	1	-1E+10	1	-1E+10	1	-1E+10	1	-1E+10	1
4901784	230	C	10/21/2021	10:49	-136.563	43.256	0	1219.90	0	3.1150	0	38.2360	8	30.469	0	1206.653	0	13.7	4	4.4	4	-1E+10	1	-1E+10	1	-1E+10	1	-1E+10	1	-1E+10	1	-1E+10	1
4901784	230	C	10/21/2021	10:49	-136.563	43.256	0	1224.50	0	3.1090	0	38.2370	8	30.470	0	1211.190	0	13.8	4	4.4	4	-1E+10	1	-1E+10	1	-1E+10	1	-1E+10	1	-1E+10	1	-1E+10	1
4901784	230	C	10/21/2021	10:49	-136.563	43.256	0	1229.00	0	3.1010	0	38.2390	8	30.472	0	1215.628	0	13.9	4	4.4	4	-1E+10	1	-1E+10	1	-1E+10	1	-1E+10	1	-1E+10	1	-1E+10	1
4901784	230	C	10/21/2021	10:49	-136.563	43.256	0	1234.40	0	3.0940	0	38.2410	8	30.475	0	1220.954	0	14.0	4	4.4	4	-1E+10	1	-1E+10	1	-1E+10	1	-1E+10	1	-1E+10	1	-1E+10	1
4901784	230	C	10/21/2021	10:49	-136.563	43.256	0	1240.00	0	3.0830	0	38.2430	8	30.478	0	1226.476	0	14.1	4	4.5	4	-1E+10	1	-1E+10	1	-1E+10	1	-1E+10	1	-1E+10	1	-1E+10	1
4901784	230	C	10/21/2021	10:49	-136.563	43.256	0	1245.70	0	3.0770	0	38.2450	8	30.480	0	1232.098	0	14.3	4	4.5	4	-1E+10	1	-1E+10	1	-1E+10	1	-1E+10	1	-1E+10	1	-1E+10	1
4901784	230	C	10/21/2021	10:49	-136.563	43.256	0	1250.60	0	3.0660	0	38.2470	8	30.483	0	1236.930	0	14.4	4	4.6	4	-1E+10	1	-1E+10	1	-1E+10	1	-1E+10	1	-1E+10	1	-1E+10	1
4901784	230	C	10/21/2021	10:49	-136.563	43.256	0	1255.50	0	3.0560	0	38.2490	8	30.485	0	1241.762	0	14.5	4	4.6	4	-1E+10	1	-1E+10	1	-1E+10	1	-1E+10	1	-1E+10	1	-1E+10	1
4901784	230	C	10/21/2021	10:49	-136.563	43.256	0	1260.50	0	3.0490	0	38.2510	8	30.488	0	1246.692	0	14.6	4	4.6	4	-1E+10	1	-1E+10	1	-1E+10	1	-1E+10	1	-1E+10	1	-1E+10	1
4901784	230	C	10/21/2021	10:49	-136.563	43.256	0	1265.40	0	3.0400	0	38.2530	8	30.490	0	1251.524	0	14.7	4	4.7	4	-1E+10	1	-1E+10	1	-1E+10	1	-1E+10	1	-1E+10	1	-1E+10	1
4901784	230	C	10/21/2021	10:49	-136.563	43.256	0	1270.40	0	3.0300	0	38.2550	8	30.493	0	1256.454	0	14.9	4	4.7	4	-1E+10	1	-1E+10	1	-1E+10	1	-1E+10	1	-1E+10	1	-1E+10	1
4901784	230	C	10/21/2021	10:49	-136.563	43.256	0	1275.30	0	3.0210	0	38.2570	8	30.495	0	1261.286	0	15.0	4	4.8	4	-1E+10	1	-1E+10	1	-1E+10	1	-1E+10	1	-1E+10	1	-1E+10	1
4901784	230	C	10/21/2021	10:49	-136.563	43.256	0	1280.30	0	3.0090	0	38.2590	8	30.498	0	1266.216	0	15.2	4	4.8	4	-1E+10	1	-1E+10	1	-1E+10	1	-1E+10	1	-1E+10	1	-1E+10	1
4901784	230	C	10/21/2021	10:49	-136.563	43.256	0	1285.40	0	2.9980	0	38.2610	8	30.501	0	1271.244	0	15.3	4	4.9	4	-1E+10	1	-1E+10	1	-1E+10	1	-1E+10	1	-1E+10	1	-1E+10	1
4901784	230	C	10/21/2021	10:49	-136.563	43.256	0	1290.40	0	2.9890	0	38.2630	8	30.503	0	1276.174	0	15.4	4	4.9	4	-1E+10	1	-1E+10	1	-1E+10	1	-1E+10	1	-1E+10	1	-1E+10	1
4901784	230	C	10/21/2021	10:49	-136.563	43.256	0	1295.50	0	2.9820	0	38.2650	8	30.506	0	1281.202	0	15.6	4	4.9	4	-1E+10	1	-1E+10	1	-1E+10	1	-1E+10	1	-1E+10	1	-1E+10	1
4901784	230	C	10/21/2021	10:49	-136.563	43.256	0	1300.50	0	2.9730	0	38.2660	8	30.507	0	1286.132	0	15.7	4	5.0	4	-1E+10	1	-1E+10	1	-1E+10	1	-1E+10	1	-1E+10	1	-1E+10	1
4901784	230	C	10/21/2021	10:49	-136.563	43.256	0	1305.60	0	2.9630	0	38.2690	8	30.511	0	1291.160	0	15.9	4	5.0	4	-1E+10	1	-1E+10	1	-1E+10	1	-1E+10	1	-1E+10	1	-1E+10	1
4901784	230	C	10/21/2021	10:49	-136.563	43.256	0	1310.70	0	2.9530	0	38.2700	8	30.513	0	1296.188	0	16.1	4	5.1	4	-1E+10	1	-1E+10	1	-1E+10	1	-1E+10	1	-1E+10	1	-1E+10	1
4901784	230	C	10/21/2021	10:49	-136.563	43.256	0	1315.00	0	2.9430	0	38.2720	8	30.515	0	1300.427	0	16.2	4	5.1	4	-1E+10	1	-1E+10	1	-1E+10	1	-1E+10	1	-1E+10	1	-1E+10	1
4901784	230	C	10/21/2021	10:49	-136.563	43.256	0	1319.30	0	2.9330	0	38.2730	8	30.517	0	1304.666	0	16.4	4	5.2	4	-1E+10	1	-1E+10	1	-1E+10	1	-1E+10	1	-1E+10	1	-1E+10	1
4901784	230	C	10/21/2021	10:49	-136.563	43.256	0	1324.50	0	2.9180	0	38.2770	8	30.522	0	1309.792	0	16.6	4	5.3	4	-1E+10	1	-1E+10	1	-1E+10	1	-1E+10	1	-1E+10	1	-1E+10	1
4901784	230	C	10/21/2021	10:49	-136.563	43.256	0	1329.70	0	2.9080	0	38.2790	8	30.525	0	1314.918	0	16.8	4	5.3	4	-1E+10	1	-1E+10	1	-1E+10	1	-1E+10	1	-1E+10	1	-1E+10	1
4901784	230	C	10/21/2021	10:49	-136.563	43.256	0	1334.90	0	2.9010	0	38.2810	8	30.527	0	1320.044	0	16.9	4	5.4	4	-1E+10	1	-1E+10	1	-1E+10	1	-1E+10	1	-1E+10	1	-1E+10	1
4901784	230	C	10/21/2021	10:49	-136.563	43.256	0	1340.00	0	2.8950	0	38.2820	8	30.528	0	1325.071	0	17.1	4	5.4	4	-1E+10	1	-1E+10	1	-1E+10	1	-1E+10	1	-1E+10	1	-1E+10	1
4901784	230	C	10/21/2021	10:49	-136.563	43.256	0	1345.20	0	2.8850	0	38.2830	8	30.530	0	1330.197	0	17.3	4	5.5	4	-1E+10	1	-1E+10	1	-1E+10	1	-1E+10	1	-1E+10	1	-1E+10	1
4901784	230	C	10/21/2021	10:49	-136.563	43.256	0	1350.30	0	2.8720	0	38.2860	8	30.534	0	1335.224	0	17.5	4	5.5	4	-1E+10	1	-1E+10	1	-1E+10	1	-1E+10	1	-1E+10	1	-1E+10	1
4901784	230	C	10/21/2021	10:49	-136.563	43.256	0	1355.20	0	2.8620	0	38.2880	8	30.536	0	1340.054	0	17.7	4	5.6	4	-1E+10	1	-1E+10	1	-1E+10	1	-1E+10	1	-1E+10	1	-1E+10	1
4901784	230	C	10/21/2021	10:49	-136.563	43.256	0	1359.60	0	2.8510	0	38.2900	8	30.539	0	1344.391	0	17.9	4	5.7	4	-1E+10	1	-1E+10	1	-1E+10	1	-1E+10	1	-1E+10	1	-1E+10	1
4901784	230	C	10/21/2021	10:49	-136.563	43.256	0	1364.90	0	2.8410	0	38.2920	8	30.542	0	1349.614	0	18.1	4	5.7	4	-1E+10	1	-1E+10	1	-1E+10	1	-1E+10	1	-1E+10	1	-1E+10	1
4901784	230	C	10/21/2021	10:49	-136.563	43.256	0	1370.30	0	2.8310	0	38.2940	8	30.544	0	1354.937	0	18.3	4	5.8	4	-1E+10	1	-1E+10	1	-1E+10	1	-1E+10	1	-1E+10	1	-1E+10	1
4901784	230	C	10/21/2021	10:49	-136.563	43.256	0	1375.30	0	2.8220	0	38.2960	8	30.547	0	1359.864	0	18.5	4	5.8	4	-1E+10	1	-1E+10	1	-1E+10	1	-1E+10	1	-1E+10	1	-1E+10	1
4901784	230	C	10/21/2021	10:49	-136.563	43.256	0	1380.30	0	2.8170	0	38.2970	8	30.548	0	1364.792	0	18.6	4	5.9	4	-1E+10	1	-1E+10	1	-1E+10	1	-1E+10	1	-1E+10	1	-1E+10	1
4901784	230	C	10/21/2021	10:49	-136.563	43.256	0	1385.40	0	2.8120	0	38.2980	8	30.550	0	1369.818	0	18.8	4	5.9	4	-1E+10	1	-1E+10	1	-1E+10	1	-1E+10	1	-1E+10	1	-1E+10	1
4901784	230	C	10/21/2021	10:49	-136.563	43.256	0	1390.50	0	2.8010	0	38.3000	8	30.552	0	1374.844	0	19.1	4	6.0	4	-1E+10	1	-1E+10	1	-1E+10	1	-1E+10	1	-1E+10	1	-1E+10	1
4901784	230	C	10/21/2021	10:49	-136.563	43.256	0	1395.60	0	2.7930	0	38.3020	8	30.555	0	1379.870	0	19.3	4	6.1	4	-1E+10	1	-1E+10	1	-1E+10	1	-1E+10	1	-1E+10	1	-1E+10	1
4901784	230	C	10/21/2021	10:49	-136.563	43.256	0	1400.70	0	2.7830	0	38.3040	8	30.557	0	1384.896	0	19.6	4	6.2	4	-1E+10	1	-1E+10	1	-1E+10	1	-1E+10	1	-1E+10	1	-1E+10	1
4901784	230	C	10/21/2021	10:49	-136.563	43.256	0	1405.00	0	2.7690	0	38.3060	8	30.560	0	1389.133	0	19.9	4	6.3	4	-1E+10	1	-1E+10	1	-1E+10	1	-1E+10	1	-1E+10	1	-1E+10	1
4901784	230	C	10/21/2021	10:49	-136.563	43.256	0	1409.40	0	2.7560	0	38.3090	8	30.564	0	1393.469	0	20.2	4	6.4	4	-1E+10	1	-1E+10	1	-1E+10	1	-1E+10	1	-1E+10	1	-1E+10	1
4901784	230	C	10/21/2021	10:49	-136.563	43.256	0	1414.60	0	2.7430	0	38.3110	8	30.567	0	1398.593	0	20.5	4	6.5	4	-1E+10	1	-1E+10	1	-1E+10	1	-1E+10	1	-1E+10	1	-1E+10	1
4901784	230	C	10/21/2021	10:49	-136.563	43.256	0	1419.80	0	2.7290	0	38.3140	8	30.571	0	1403.717	0	20.8	4	6.6	4	-1E+10	1	-1E+10	1	-1E+10	1	-1E+10	1	-1E+10	1	-1E+10	1
4901784	230	C	10/21/2021	10:49	-136.563	43.256	0	1425.10	0	2.7180	0	38.3160	8	30.574	0	1408.939	0	21.1	4	6.7	4	-1E+10	1	-1E+10	1	-1E+10	1	-1E+10	1	-1E+10	1	-1E+10	1
4901784	230	C	10/21/2021	10:49	-136.563	43.256	0	1430.30	0	2.7110	0	38.3170	8	30.575	0	1414.063	0	21.3	4	6.7	4	-1E+10	1	-1E+10	1	-1E+10	1	-1E+10	1	-1E+10	1	-1E+10	1
4901784	230	C	10/21/2021	10:49	-136.563	43.256	0	1435.70	0	2.7010	0	38.3190	8	30.578	0	1419.383	0	21.6	4	6.8	4	-1E+10	1	-1E+10	1	-1E+10	1	-1E+10	1	-1E+10	1	-1E+10	1
4901784	230	C	10/21/2021	10:49	-136.563	43.256	0	1440.10	0	2.6900	0	38.3210	8	30.580	0	1423.719	0	21.9	4	6.9	4	-1E+10	1	-1E+10	1	-1E+10	1	-1E+10	1	-1E+10	1	-1E+10	1
4901784	230	C	10/21/2021	10:49	-136.563	43.256	0	1444.60	0	2.6820	0	38.3220	8	30.582	0	1428.152	0	22.1	4	7.0	4	-1E+10	1	-1E+10	1	-1E+10	1	-1E+10	1	-1E+10	1	-1E+10	1
4901784	230	C	10/21/2021	10:49	-136.563	43.256	0	1450.00	0	2.6720	0	38.3240	8	30.585	0	1433.472	0	22.4	4	7.1	4	-1E+10	1	-1E+10	1	-1E+10	1	-1E+10	1	-1E+10	1	-1E+10	1
4901784	230	C	10/21/2021	10:49	-136.563	43.256	0	1455.40	0	2.6620	0	38.3260	8	30.587	0	1438.792	0	22.7	4	7.2	4	-1E+10	1	-1E+10	1	-1E+10	1	-1E+10	1	-1E+10	1	-1E+10	1
4901784	230	C	10/21/2021	10:49	-136.563	43.256	0	1459.90	0	2.6520	0	38.3280	8	30.590	0	1443.226	0	23.0	4	7.3	4	-1E+10	1	-1E+10	1	-1E+10	1	-1E+10	1	-1E+10	1	-1E+10	1
4901784	230	C	10/21/2021	10:49	-136.563	43.256	0	1464.40	0	2.6430	0	38.3300	8	30.592	0	1447.659	0	23.2	4	7.3	4	-1E+10	1	-1E+10	1	-1E+10	1	-1E+10	1	-1E+10	1	-1E+10	1
4901784	230	C	10/21/2021	10:49	-136.563	43.256	0	1469.90	0	2.6340	0	38.3310	8	30.594	0	1453.077	0	23.5	4	7.4	4	-1E+10	1	-1E+10	1	-1E+10	1	-1E+10	1	-1E+10	1	-1E+10	1
4901784	230	C	10/21/2021	10:49	-136.563	43.256	0	1475.40	0	2.6230	0	38.3340	8	30.597	0	1458.495	0	23.8	4	7.5	4	-1E+10	1	-1E+10	1	-1E+10	1	-1E+10	1	-1E+10	1	-1E+10	1
4901784	230	C	10/21/2021	10:49	-136.563	43.256	0	1480.00	0	2.6150	0	38.3350	8	30.599	0	1463.027	0	24.0	4	7.6	4	-1E+10	1	-1E+10	1	-1E+10	1	-1E+10	1	-1E+10	1	-1E+10	1
4901784	230	C	10/21/2021	10:49	-136.563	43.256	0	1484.60	0	2.6080	0	38.3370	8	30.601	0	1467.558	0	24.2	4	7.6	4	-1E+10	1	-1E+10	1	-1E+10	1	-1E+10	1	-1E+10	1	-1E+10	1
4901784	230	C	10/21/2021	10:49	-136.563	43.256	0	1490.20	0	2.6040	0	38.3370	8	30.602	0	1473.074	0	24.4	4	7.7	4	-1E+10	1	-1E+10	1	-1E+10	1	-1E+10	1	-1E+10	1	-1E+10	1
4901784	230	C	10/21/2021	10:49	-136.563	43.256	0	1495.50	0	2.5950	0	38.3390	8	30.604	0	1478.295	0	24.7	4	7.8	4	-1E+10	1	-1E+10	1	-1E+10	1	-1E+10	1	-1E+10	1	-1E+10	1
4901784	230	C	10/21/2021	10:49	-136.563	43.256	0	1500.10	0	2.5870	0	38.3400	8	30.606	0	1482.826	0	24.9	4	7.9	4	-1E+10	1	-1E+10	1	-1E+10	1	-1E+10	1	-1E+10	1	-1E+10	1
4901784	230	C	10/21/2021	10:49	-136.563	43.256	0	1504.40	0	2.5760	0	38.3420	8	30.609	0	1487.061	0	25.2	4	7.9	4	-1E+10	1	-1E+10	1	-1E+10	1	-1E+10	1	-1E+10	1	-1E+10	1
4901784	230	C	10/21/2021	10:49	-136.563	43.256	0	1509.60	0	2.5680	0	38.3440	8	30.611	0	1492.183	0	25.4	4	8.0	4	-1E+10	1	-1E+10	1	-1E+10	1	-1E+10	1	-1E+10	1	-1E+10	1
4901784	230	C	10/21/2021	10:49	-136.563	43.256	0	1514.80	0	2.5640	0	38.3450	8	30.612	0	1497.304	0	25.6	4	8.1	4	-1E+10	1	-1E+10	1	-1E+10	1	-1E+10	1	-1E+10	1	-1E+10	1
4901784	230	C	10/21/2021	10:49	-136.563	43.256	0	1520.00	0	2.5540	0	38.3460	8	30.614	0	1502.426	0	25.8	4	8.1	4	-1E+10	1	-1E+10	1	-1E+10	1	-1E+10	1	-1E+10	1	-1E+10	1
4901784	230	C	10/21/2021	10:49	-136.563	43.256	0	1525.20	0	2.5450	0	38.3480	8	30.616	0	1507.547	0	26.1	4	8.2	4	-1E+10	1	-1E+10	1	-1E+10	1	-1E+10	1	-1E+10	1	-1E+10	1
4901784	230	C	10/21/2021	10:49	-136.563	43.256	0	1530.40	0	2.5360	0	38.3490	8	30.618	0	1512.668	0	26.5	4	8.3	4	-1E+10	1	-1E+10	1	-1E+10	1	-1E+10	1	-1E+10	1	-1E+10	1
4901784	230	C	10/21/2021	10:49	-136.563	43.256	0	1535.70	0	2.5240	0	38.3510	8	30.621	0	1517.888	0	26.9	4	8.5	4	-1E+10	1	-1E+10	1	-1E+10	1	-1E+10	1	-1E+10	1	-1E+10	1
4901784	230	C	10/21/2021	10:49	-136.563	43.256	0	1540.10	0	2.5160	0	38.3530	8	30.623	0	1522.221	0	27.2	4	8.5	4	-1E+10	1	-1E+10	1	-1E+10	1	-1E+10	1	-1E+10	1	-1E+10	1
4901784	230	C	10/21/2021	10:49	-136.563	43.256	0	1544.50	0	2.5100	0	38.3540	8	30.625	0	1526.554	0	27.5	4	8.6	4	-1E+10	1	-1E+10	1	-1E+10	1	-1E+10	1	-1E+10	1	-1E+10	1
4901784	230	C	10/21/2021	10:49	-136.563	43.256	0	1549.80	0	2.4950	0	38.3560	8	30.628	0	1531.773	0	27.9	4	8.8	4	-1E+10	1	-1E+10	1	-1E+10	1	-1E+10	1	-1E+10	1	-1E+10	1
4901784	230	C	10/21/2021	10:49	-136.563	43.256	0	1555.20	0	2.4860	0	38.3570	8	30.629	0	1537.091	0	28.2	4	8.9	4	-1E+10	1	-1E+10	1	-1E+10	1	-1E+10	1	-1E+10	1	-1E+10	1
4901784	230	C	10/21/2021	10:49	-136.563	43.256	0	1560.60	0	2.4730	0	38.3600	8	30.633	0	1542.408	0	28.7	4	9.0	4	-1E+10	1	-1E+10	1	-1E+10	1	-1E+10	1	-1E+10	1	-1E+10	1
4901784	230	C	10/21/2021	10:49	-136.563	43.256	0	1565.10	0	2.4620	0	38.3620	8	30.636	0	1546.839	0	29.0	4	9.1	4	-1E+10	1	-1E+10	1	-1E+10	1	-1E+10	1	-1E+10	1	-1E+10	1
4901784	230	C	10/21/2021	10:49	-136.563	43.256	0	1569.50	0	2.4540	0	38.3630	8	30.637	0	1551.172	0	29.3	4	9.2	4	-1E+10	1	-1E+10	1	-1E+10	1	-1E+10	1	-1E+10	1	-1E+10	1
4901784	230	C	10/21/2021	10:49	-136.563	43.256	0	1574.80	0	2.4420	0	38.3650	8	30.640	0	1556.391	0	29.6	4	9.3	4	-1E+10	1	-1E+10	1	-1E+10	1	-1E+10	1	-1E+10	1	-1E+10	1
4901784	230	C	10/21/2021	10:49	-136.563	43.256	0	1579.50	0	2.4340	0	38.3670	8	30.643	0	1561.018	0	29.8	4	9.4	4	-1E+10	1	-1E+10	1	-1E+10	1	-1E+10	1	-1E+10	1	-1E+10	1
4901784	230	C	10/21/2021	10:49	-136.563	43.256	0	1585.10	0	2.4280	0	38.3680	8	30.644	0	1566.532	0	30.1	4	9.4	4	-1E+10	1	-1E+10	1	-1E+10	1	-1E+10	1	-1E+10	1	-1E+10	1
4901784	230	C	10/21/2021	10:49	-136.563	43.256	0	1590.70	0	2.4220	0	38.3690	8	30.645	0	1572.046	0	30.4	4	9.5	4	-1E+10	1	-1E+10	1	-1E+10	1	-1E+10	1	-1E+10	1	-1E+10	1
4901784	230	C	10/21/2021	10:49	-136.563	43.256	0	1595.60	0	2.4120	0	38.3710	8	30.648	0	1576.870	0	30.7	4	9.6	4	-1E+10	1	-1E+10	1	-1E+10	1	-1E+10	1	-1E+10	1	-1E+10	1
4901784	230	C	10/21/2021	10:49	-136.563	43.256	0	1600.50	0	2.4060	0	38.3720	8	30.649	0	1581.694	0	31.0	4	9.7	4	-1E+10	1	-1E+10	1	-1E+10	1	-1E+10	1	-1E+10	1	-1E+10	1
4901784	230	C	10/21/2021	10:49	-136.563	43.256	0	1605.40	0	2.3990	0	38.3740	8	30.652	0	1586.518	0	31.3	4	9.8	4	-1E+10	1	-1E+10	1	-1E+10	1	-1E+10	1	-1E+10	1	-1E+10	1
4901784	230	C	10/21/2021	10:49	-136.563	43.256	0	1610.40	0	2.3910	0	38.3750	8	30.653	0	1591.441	0	31.6	4	9.9	4	-1E+10	1	-1E+10	1	-1E+10	1	-1E+10	1	-1E+10	1	-1E+10	1
4901784	230	C	10/21/2021	10:49	-136.563	43.256	0	1615.30	0	2.3810	0	38.3770	8	30.656	0	1596.265	0	31.9	4	10.0	4	-1E+10	1	-1E+10	1	-1E+10	1	-1E+10	1	-1E+10	1	-1E+10	1
4901784	230	C	10/21/2021	10:49	-136.563	43.256	0	1620.20	0	2.3740	0	38.3780	8	30.657	0	1601.088	0	32.2	4	10.1	4	-1E+10	1	-1E+10	1	-1E+10	1	-1E+10	1	-1E+10	1	-1E+10	1
4901784	230	C	10/21/2021	10:49	-136.563	43.256	0	1625.20	0	2.3680	0	38.3800	8	30.659	0	1606.010	0	32.5	4	10.2	4	-1E+10	1	-1E+10	1	-1E+10	1	-1E+10	1	-1E+10	1	-1E+10	1
4901784	230	C	10/21/2021	10:49	-136.563	43.256	0	1630.20	0	2.3600	0	38.3820	8	30.662	0	1610.932	0	32.8	4	10.3	4	-1E+10	1	-1E+10	1	-1E+10	1	-1E+10	1	-1E+10	1	-1E+10	1
4901784	230	C	10/21/2021	10:49	-136.563	43.256	0	1635.30	0	2.3560	0	38.3830	8	30.663	0	1615.953	0	33.0	4	10.3	4	-1E+10	1	-1E+10	1	-1E+10	1	-1E+10	1	-1E+10	1	-1E+10	1
4901784	230	C	10/21/2021	10:49	-136.563	43.256	0	1640.40	0	2.3500	0	38.3840	8	30.664	0	1620.973	0	33.3	4	10.4	4	-1E+10	1	-1E+10	1	-1E+10	1	-1E+10	1	-1E+10	1	-1E+10	1
4901784	230	C	10/21/2021	10:49	-136.563	43.256	0	1645.50	0	2.3420	0	38.3860	8	30.667	0	1625.993	0	33.6	4	10.5	4	-1E+10	1	-1E+10	1	-1E+10	1	-1E+10	1	-1E+10	1	-1E+10	1
4901784	230	C	10/21/2021	10:49	-136.563	43.256	0	1650.70	0	2.3370	0	38.3870	8	30.668	0	1631.111	0	33.8	4	10.6	4	-1E+10	1	-1E+10	1	-1E+10	1	-1E+10	1	-1E+10	1	-1E+10	1
4901784	230	C	10/21/2021	10:49	-136.563	43.256	0	1655.00	0	2.3330	0	38.3870	8	30.668	0	1635.344	0	34.0	4	10.6	4	-1E+10	1	-1E+10	1	-1E+10	1	-1E+10	1	-1E+10	1	-1E+10	1
4901784	230	C	10/21/2021	10:49	-136.563	43.256	0	1659.40	0	2.3280	0	38.3880	8	30.670	0	1639.674	0	34.2	4	10.7	4	-1E+10	1	-1E+10	1	-1E+10	1	-1E+10	1	-1E+10	1	-1E+10	1
4901784	230	C	10/21/2021	10:49	-136.563	43.256	0	1664.60	0	2.3220	0	38.3900	8	30.672	0	1644.792	0	34.5	4	10.8	4	-1E+10	1	-1E+10	1	-1E+10	1	-1E+10	1	-1E+10	1	-1E+10	1
4901784	230	C	10/21/2021	10:49	-136.563	43.256	0	1669.90	0	2.3130	0	38.3910	8	30.674	0	1650.009	0	35.0	4	10.9	4	-1E+10	1	-1E+10	1	-1E+10	1	-1E+10	1	-1E+10	1	-1E+10	1
4901784	230	C	10/21/2021	10:49	-136.563	43.256	0	1675.20	0	2.3010	0	38.3930	8	30.676	0	1655.225	0	35.4	4	11.1	4	-1E+10	1	-1E+10	1	-1E+10	1	-1E+10	1	-1E+10	1	-1E+10	1
4901784	230	C	10/21/2021	10:49	-136.563	43.256	0	1680.50	0	2.2950	0	38.3950	8	30.679	0	1660.441	0	35.7	4	11.2	4	-1E+10	1	-1E+10	1	-1E+10	1	-1E+10	1	-1E+10	1	-1E+10	1
4901784	230	C	10/21/2021	10:49	-136.563	43.256	0	1685.00	0	2.2890	0	38.3960	8	30.680	0	1664.869	0	36.1	4	11.3	4	-1E+10	1	-1E+10	1	-1E+10	1	-1E+10	1	-1E+10	1	-1E+10	1
4901784	230	C	10/21/2021	10:49	-136.563	43.256	0	1689.40	0	2.2800	0	38.3970	8	30.682	0	1669.200	0	36.4	4	11.4	4	-1E+10	1	-1E+10	1	-1E+10	1	-1E+10	1	-1E+10	1	-1E+10	1
4901784	230	C	10/21/2021	10:49	-136.563	43.256	0	1694.80	0	2.2740	0	38.3990	8	30.684	0	1674.514	0	36.7	4	11.5	4	-1E+10	1	-1E+10	1	-1E+10	1	-1E+10	1	-1E+10	1	-1E+10	1
4901784	230	C	10/21/2021	10:49	-136.563	43.256	0	1700.20	0	2.2670	0	38.4000	8	30.685	0	1679.828	0	36.9	4	11.5	4	-1E+10	1	-1E+10	1	-1E+10	1	-1E+10	1	-1E+10	1	-1E+10	1
4901784	230	C	10/21/2021	10:49	-136.563	43.256	0	1705.60	0	2.2630	0	38.4010	8	30.686	0	1685.142	0	37.1	4	11.6	4	-1E+10	1	-1E+10	1	-1E+10	1	-1E+10	1	-1E+10	1	-1E+10	1
4901784	230	C	10/21/2021	10:49	-136.563	43.256	0	1710.10	0	2.2590	0	38.4020	8	30.688	0	1689.570	0	37.3	4	11.7	4	-1E+10	1	-1E+10	1	-1E+10	1	-1E+10	1	-1E+10	1	-1E+10	1
4901784	230	C	10/21/2021	10:49	-136.563	43.256	0	1714.70	0	2.2530	0	38.4030	8	30.689	0	1694.096	0	37.5	4	11.7	4	-1E+10	1	-1E+10	1	-1E+10	1	-1E+10	1	-1E+10	1	-1E+10	1
4901784	230	C	10/21/2021	10:49	-136.563	43.256	0	1720.20	0	2.2470	0	38.4050	8	30.691	0	1699.508	0	37.7	4	11.8	4	-1E+10	1	-1E+10	1	-1E+10	1	-1E+10	1	-1E+10	1	-1E+10	1
4901784	230	C	10/21/2021	10:49	-136.563	43.256	0	1724.80	0	2.2420	0	38.4060	8	30.693	0	1704.034	0	37.9	4	11.8	4	-1E+10	1	-1E+10	1	-1E+10	1	-1E+10	1	-1E+10	1	-1E+10	1
4901784	230	C	10/21/2021	10:49	-136.563	43.256	0	1729.40	0	2.2380	0	38.4060	8	30.693	0	1708.560	0	38.0	4	11.9	4	-1E+10	1	-1E+10	1	-1E+10	1	-1E+10	1	-1E+10	1	-1E+10	1
4901784	230	C	10/21/2021	10:49	-136.563	43.256	0	1734.90	0	2.2340	0	38.4070	8	30.694	0	1713.972	0	38.3	4	12.0	4	-1E+10	1	-1E+10	1	-1E+10	1	-1E+10	1	-1E+10	1	-1E+10	1
4901784	230	C	10/21/2021	10:49	-136.563	43.256	0	1740.50	0	2.2260	0	38.4090	8	30.697	0	1719.482	0	38.6	4	12.1	4	-1E+10	1	-1E+10	1	-1E+10	1	-1E+10	1	-1E+10	1	-1E+10	1
4901784	230	C	10/21/2021	10:49	-136.563	43.256	0	1745.20	0	2.2200	0	38.4100	8	30.698	0	1724.106	0	38.7	4	12.1	4	-1E+10	1	-1E+10	1	-1E+10	1	-1E+10	1	-1E+10	1	-1E+10	1
4901784	230	C	10/21/2021	10:49	-136.563	43.256	0	1749.80	0	2.2130	0	38.4110	8	30.699	0	1728.631	0	38.8	4	12.1	4	-1E+10	1	-1E+10	1	-1E+10	1	-1E+10	1	-1E+10	1	-1E+10	1
4901784	230	C	10/21/2021	10:49	-136.563	43.256	0	1754.70	0	2.2080	0	38.4120	8	30.701	0	1733.452	0	39.0	4	12.2	4	-1E+10	1	-1E+10	1	-1E+10	1	-1E+10	1	-1E+10	1	-1E+10	1
4901784	230	C	10/21/2021	10:49	-136.563	43.256	0	1759.60	0	2.1990	0	38.4130	8	30.702	0	1738.273	0	39.4	4	12.3	4	-1E+10	1	-1E+10	1	-1E+10	1	-1E+10	1	-1E+10	1	-1E+10	1
4901784	230	C	10/21/2021	10:49	-136.563	43.256	0	1764.50	0	2.1910	0	38.4150	8	30.705	0	1743.093	0	39.8	4	12.4	4	-1E+10	1	-1E+10	1	-1E+10	1	-1E+10	1	-1E+10	1	-1E+10	1
4901784	230	C	10/21/2021	10:49	-136.563	43.256	0	1769.50	0	2.1870	0	38.4160	8	30.706	0	1748.012	0	39.9	4	12.5	4	-1E+10	1	-1E+10	1	-1E+10	1	-1E+10	1	-1E+10	1	-1E+10	1
4901784	230	C	10/21/2021	10:49	-136.563	43.256	0	1774.60	0	2.1820	0	38.4170	8	30.707	0	1753.029	0	39.8	4	12.4	4	-1E+10	1	-1E+10	1	-1E+10	1	-1E+10	1	-1E+10	1	-1E+10	1
4901784	230	C	10/21/2021	10:49	-136.563	43.256	0	1779.60	0	2.1760	0	38.4180	8	30.709	0	1757.948	0	39.9	4	12.5	4	-1E+10	1	-1E+10	1	-1E+10	1	-1E+10	1	-1E+10	1	-1E+10	1
4901784	230	C	10/21/2021	10:49	-136.563	43.256	0	1784.70	0	2.1720	0	38.4190	8	30.710	0	1762.964	0	40.1	4	12.5	4	-1E+10	1	-1E+10	1	-1E+10	1	-1E+10	1	-1E+10	1	-1E+10	1
4901784	230	C	10/21/2021	10:49	-136.563	43.256	0	1789.70	0	2.1680	0	38.4200	8	30.711	0	1767.883	0	40.3	4	12.6	4	-1E+10	1	-1E+10	1	-1E+10	1	-1E+10	1	-1E+10	1	-1E+10	1
4901784	230	C	10/21/2021	10:49	-136.563	43.256	0	1794.80	0	2.1650	0	38.4210	8	30.712	0	1772.899	0	40.6	4	12.7	4	-1E+10	1	-1E+10	1	-1E+10	1	-1E+10	1	-1E+10	1	-1E+10	1
4901784	230	C	10/21/2021	10:49	-136.563	43.256	0	1800.00	0	2.1610	0	38.4220	8	30.713	0	1778.014	0	41.0	4	12.8	4	-1E+10	1	-1E+10	1	-1E+10	1	-1E+10	1	-1E+10	1	-1E+10	1
4901784	230	C	10/21/2021	10:49	-136.563	43.256	0	1805.10	0	2.1560	0	38.4230	8	30.715	0	1783.030	0	41.6	4	13.0	4	-1E+10	1	-1E+10	1	-1E+10	1	-1E+10	1	-1E+10	1	-1E+10	1
4901784	230	C	10/21/2021	10:49	-136.563	43.256	0	1810.30	0	2.1490	0	38.4240	8	30.716	0	1788.145	0	42.2	4	13.2	4	-1E+10	1	-1E+10	1	-1E+10	1	-1E+10	1	-1E+10	1	-1E+10	1
4901784	230	C	10/21/2021	10:49	-136.563	43.256	0	1815.60	0	2.1450	0	38.4250	8	30.717	0	1793.358	0	42.7	4	13.3	4	-1E+10	1	-1E+10	1	-1E+10	1	-1E+10	1	-1E+10	1	-1E+10	1
4901784	230	C	10/21/2021	10:49	-136.563	43.256	0	1819.90	0	2.1390	0	38.4270	8	30.719	0	1797.587	0	43.1	4	13.4	4	-1E+10	1	-1E+10	1	-1E+10	1	-1E+10	1	-1E+10	1	-1E+10	1
4901784	230	C	10/21/2021	10:49	-136.563	43.256	0	1824.30	0	2.1360	0	38.4280	8	30.721	0	1801.914	0	43.5	4	13.6	4	-1E+10	1	-1E+10	1	-1E+10	1	-1E+10	1	-1E+10	1	-1E+10	1
4901784	230	C	10/21/2021	10:49	-136.563	43.256	0	1829.60	0	2.1280	0	38.4300	8	30.723	0	1807.127	0	44.0	4	13.7	4	-1E+10	1	-1E+10	1	-1E+10	1	-1E+10	1	-1E+10	1	-1E+10	1
4901784	230	C	10/21/2021	10:49	-136.563	43.256	0	1834.90	0	2.1230	0	38.4300	8	30.723	0	1812.339	0	44.4	4	13.8	4	-1E+10	1	-1E+10	1	-1E+10	1	-1E+10	1	-1E+10	1	-1E+10	1
4901784	230	C	10/21/2021	10:49	-136.563	43.256	0	1840.20	0	2.1170	0	38.4320	8	30.726	0	1817.551	0	44.8	4	14.0	4	-1E+10	1	-1E+10	1	-1E+10	1	-1E+10	1	-1E+10	1	-1E+10	1
4901784	230	C	10/21/2021	10:49	-136.563	43.256	0	1845.50	0	2.1090	0	38.4330	8	30.727	0	1822.763	0	45.3	4	14.1	4	-1E+10	1	-1E+10	1	-1E+10	1	-1E+10	1	-1E+10	1	-1E+10	1
4901784	230	C	10/21/2021	10:49	-136.563	43.256	0	1849.90	0	2.1060	0	38.4340	8	30.728	0	1827.090	0	45.6	4	14.2	4	-1E+10	1	-1E+10	1	-1E+10	1	-1E+10	1	-1E+10	1	-1E+10	1
4901784	230	C	10/21/2021	10:49	-136.563	43.256	0	1854.30	0	2.1020	0	38.4350	8	30.729	0	1831.417	0	45.9	4	14.3	4	-1E+10	1	-1E+10	1	-1E+10	1	-1E+10	1	-1E+10	1	-1E+10	1
4901784	230	C	10/21/2021	10:49	-136.563	43.256	0	1859.70	0	2.0960	0	38.4360	8	30.731	0	1836.727	0	46.3	4	14.4	4	-1E+10	1	-1E+10	1	-1E+10	1	-1E+10	1	-1E+10	1	-1E+10	1
4901784	230	C	10/21/2021	10:49	-136.563	43.256	0	1865.00	0	2.0900	0	38.4380	8	30.733	0	1841.939	0	46.6	4	14.5	4	-1E+10	1	-1E+10	1	-1E+10	1	-1E+10	1	-1E+10	1	-1E+10	1
4901784	230	C	10/21/2021	10:49	-136.563	43.256	0	1870.40	0	2.0860	0	38.4380	8	30.733	0	1847.248	0	47.0	4	14.6	4	-1E+10	1	-1E+10	1	-1E+10	1	-1E+10	1	-1E+10	1	-1E+10	1
4901784	230	C	10/21/2021	10:49	-136.563	43.256	0	1874.90	0	2.0800	0	38.4400	8	30.736	0	1851.673	0	47.3	4	14.7	4	-1E+10	1	-1E+10	1	-1E+10	1	-1E+10	1	-1E+10	1	-1E+10	1
4901784	230	C	10/21/2021	10:49	-136.563	43.256	0	1879.40	0	2.0760	0	38.4400	8	30.736	0	1856.098	0	47.5	4	14.8	4	-1E+10	1	-1E+10	1	-1E+10	1	-1E+10	1	-1E+10	1	-1E+10	1
4901784	230	C	10/21/2021	10:49	-136.563	43.256	0	1884.80	0	2.0710	0	38.4420	8	30.738	0	1861.407	0	47.9	4	14.9	4	-1E+10	1	-1E+10	1	-1E+10	1	-1E+10	1	-1E+10	1	-1E+10	1
4901784	230	C	10/21/2021	10:49	-136.563	43.256	0	1890.30	0	2.0660	0	38.4430	8	30.739	0	1866.815	0	48.2	4	15.0	4	-1E+10	1	-1E+10	1	-1E+10	1	-1E+10	1	-1E+10	1	-1E+10	1
4901784	230	C	10/21/2021	10:49	-136.563	43.256	0	1894.90	0	2.0620	0	38.4440	8	30.740	0	1871.337	0	48.5	4	15.1	4	-1E+10	1	-1E+10	1	-1E+10	1	-1E+10	1	-1E+10	1	-1E+10	1
4901784	230	C	10/21/2021	10:49	-136.563	43.256	0	1899.50	0	2.0580	0	38.4450	8	30.742	0	1875.860	0	48.7	4	15.2	4	-1E+10	1	-1E+10	1	-1E+10	1	-1E+10	1	-1E+10	1	-1E+10	1
4901784	230	C	10/21/2021	10:49	-136.563	43.256	0	1905.10	0	2.0540	0	38.4450	8	30.742	0	1881.365	0	49.0	4	15.2	4	-1E+10	1	-1E+10	1	-1E+10	1	-1E+10	1	-1E+10	1	-1E+10	1
4901784	230	C	10/21/2021	10:49	-136.563	43.256	0	1909.70	0	2.0510	0	38.4460	8	30.743	0	1885.888	0	49.2	4	15.3	4	-1E+10	1	-1E+10	1	-1E+10	1	-1E+10	1	-1E+10	1	-1E+10	1
4901784	230	C	10/21/2021	10:49	-136.563	43.256	0	1914.20	0	2.0470	0	38.4470	8	30.744	0	1890.312	0	49.5	4	15.4	4	-1E+10	1	-1E+10	1	-1E+10	1	-1E+10	1	-1E+10	1	-1E+10	1
4901784	230	C	10/21/2021	10:49	-136.563	43.256	0	1919.50	0	2.0440	0	38.4480	8	30.745	0	1895.522	0	49.9	4	15.5	4	-1E+10	1	-1E+10	1	-1E+10	1	-1E+10	1	-1E+10	1	-1E+10	1
4901784	230	C	10/21/2021	10:49	-136.563	43.256	0	1924.40	0	2.0380	0	38.4490	8	30.747	0	1900.339	0	50.3	4	15.6	4	-1E+10	1	-1E+10	1	-1E+10	1	-1E+10	1	-1E+10	1	-1E+10	1
4901784	230	C	10/21/2021	10:49	-136.563	43.256	0	1929.20	0	2.0320	0	38.4500	8	30.748	0	1905.057	0	50.7	4	15.7	4	-1E+10	1	-1E+10	1	-1E+10	1	-1E+10	1	-1E+10	1	-1E+10	1
4901784	230	C	10/21/2021	10:49	-136.563	43.256	0	1934.90	0	2.0260	0	38.4510	8	30.750	0	1910.661	0	51.0	4	15.9	4	-1E+10	1	-1E+10	1	-1E+10	1	-1E+10	1	-1E+10	1	-1E+10	1
4901784	230	C	10/21/2021	10:49	-136.563	43.256	0	1940.70	0	2.0220	0	38.4520	8	30.751	0	1916.362	0	51.3	4	16.0	4	-1E+10	1	-1E+10	1	-1E+10	1	-1E+10	1	-1E+10	1	-1E+10	1
4901784	230	C	10/21/2021	10:49	-136.563	43.256	0	1945.60	0	2.0170	0	38.4530	8	30.752	0	1921.178	0	51.7	4	16.0	4	-1E+10	1	-1E+10	1	-1E+10	1	-1E+10	1	-1E+10	1	-1E+10	1
4901784	230	C	10/21/2021	10:49	-136.563	43.256	0	1950.60	0	2.0140	0	38.4540	8	30.753	0	1926.093	0	51.9	4	16.1	4	-1E+10	1	-1E+10	1	-1E+10	1	-1E+10	1	-1E+10	1	-1E+10	1
4901784	230	C	10/21/2021	10:49	-136.563	43.256	0	1955.60	0	2.0090	0	38.4550	8	30.754	0	1931.007	0	52.2	4	16.2	4	-1E+10	1	-1E+10	1	-1E+10	1	-1E+10	1	-1E+10	1	-1E+10	1
4901784	230	C	10/21/2021	10:49	-136.563	43.256	0	1960.70	0	2.0050	0	38.4560	8	30.756	0	1936.020	0	52.4	4	16.3	4	-1E+10	1	-1E+10	1	-1E+10	1	-1E+10	1	-1E+10	1	-1E+10	1
4901784	230	C	10/21/2021	10:49	-136.563	43.256	0	1965.70	0	2.0020	0	38.4560	8	30.756	0	1940.934	0	52.7	4	16.4	4	-1E+10	1	-1E+10	1	-1E+10	1	-1E+10	1	-1E+10	1	-1E+10	1
4901784	230	C	10/21/2021	10:49	-136.563	43.256	0	1970.80	0	1.9970	0	38.4570	8	30.757	0	1945.947	0	53.0	4	16.5	4	-1E+10	1	-1E+10	1	-1E+10	1	-1E+10	1	-1E+10	1	-1E+10	1
4901784	230	C	10/21/2021	10:49	-136.563	43.256	0	1975.00	0	1.9940	0	38.4580	8	30.758	0	1950.075	0	53.2	4	16.5	4	-1E+10	1	-1E+10	1	-1E+10	1	-1E+10	1	-1E+10	1	-1E+10	1
4901784	230	C	10/21/2021	10:49	-136.563	43.256	0	1979.30	0	1.9910	0	38.4590	8	30.759	0	1954.301	0	53.4	4	16.6	4	-1E+10	1	-1E+10	1	-1E+10	1	-1E+10	1	-1E+10	1	-1E+10	1
4901784	230	C	10/21/2021	10:49	-136.563	43.256	0	1984.30	0	1.9870	0	38.4600	8	30.761	0	1959.215	0	53.5	4	16.6	4	-1E+10	1	-1E+10	1	-1E+10	1	-1E+10	1	-1E+10	1	-1E+10	1
4901784	230	C	10/21/2021	10:49	-136.563	43.256	0	1989.40	0	1.9850	0	38.4600	8	30.761	0	1964.227	0	53.7	4	16.7	4	-1E+10	1	-1E+10	1	-1E+10	1	-1E+10	1	-1E+10	1	-1E+10	1
4901784	230	C	10/21/2021	10:49	-136.563	43.256	0	1994.40	0	1.9810	0	38.4610	8	30.762	0	1969.140	0	54.0	4	16.8	4	-1E+10	1	-1E+10	1	-1E+10	1	-1E+10	1	-1E+10	1	-1E+10	1
4901784	230	C	10/21/2021	10:49	-136.563	43.256	0	1999.60	0	1.9780	0	38.4620	8	30.763	0	1974.250	0	54.4	4	16.9	4	-1E+10	1	-1E+10	1	-1E+10	1	-1E+10	1	-1E+10	1	-1E+10	1
4901784	230	C	10/21/2021	10:49	-136.563	43.256	0	2004.50	0	1.9730	0	38.4630	8	30.764	0	1979.066	0	54.8	4	17.0	4	-1E+10	1	-1E+10	1	-1E+10	1	-1E+10	1	-1E+10	1	-1E+10	1
4901784	230	C	10/21/2021	10:49	-136.563	43.256	0	2010.20	0	1.9670	0	38.4640	8	30.766	0	1984.667	0	55.2	4	17.1	4	-1E+10	1	-1E+10	1	-1E+10	1	-1E+10	1	-1E+10	1	-1E+10	1
4901784	230	C	10/21/2021	10:49	-136.563	43.256	0	2014.60	0	1.9630	0	38.4650	8	30.767	0	1988.990	0	55.4	4	17.2	4	-1E+10	1	-1E+10	1	-1E+10	1	-1E+10	1	-1E+10	1	-1E+10	1
4901784	230	C	10/21/2021	10:49	-136.563	43.256	0	2019.80	0	1.9600	0	38.4650	8	30.767	0	1994.100	0	55.6	4	17.3	4	-1E+10	1	-1E+10	1	-1E+10	1	-1E+10	1	-1E+10	1	-1E+10	1
4901784	230	C	10/21/2021	10:49	-136.563	43.256	0																										
4901784	231	C	10/31/2021	10:43	-136.545	43.326	0	2.00	0	13.0310	0	36.0910	8	27.233	0	1.984	0	242.6	4	94.8	4	-1E+10	1	-1E+10	1	-1E+10	1	-1E+10	1	-1E+10	1	-1E+10	1
4901784	231	C	10/31/2021	10:43	-136.545	43.326	0	3.00	0	13.0320	0	36.0910	8	27.233	0	2.976	0	242.6	4	94.9	4	-1E+10	1	-1E+10	1	-1E+10	1	-1E+10	1	-1E+10	1	-1E+10	1
4901784	231	C	10/31/2021	10:43	-136.545	43.326	0	4.40	0	13.0330	8	36.0920	8	27.233	0	4.365	0	242.5	4	94.8	4	-1E+10	1	-1E+10	1	-1E+10	1	-1E+10	1	-1E+10	1	-1E+10	1
4901784	231	C	10/31/2021	10:43	-136.545	43.326	0	6.10	0	13.0340	8	36.0350	8	27.189	0	6.051	0	242.7	4	94.9	4	-1E+10	1	-1E+10	1	-1E+10	1	-1E+10	1	-1E+10	1	-1E+10	1
4901784	231	C	10/31/2021	10:43	-136.545	43.326	0	8.00	0	13.0350	0	36.0930	8	27.234	0	7.936	0	242.7	4	94.9	4	-1E+10	1	-1E+10	1	-1E+10	1	-1E+10	1	-1E+10	1	-1E+10	1
4901784	231	C	10/31/2021	10:43	-136.545	43.326	0	9.80	0	13.0340	0	36.0950	8	27.236	0	9.722	0	242.6	4	94.9	4	-1E+10	1	-1E+10	1	-1E+10	1	-1E+10	1	-1E+10	1	-1E+10	1
4901784	231	C	10/31/2021	10:43	-136.545	43.326	0	11.50	0	13.0350	0	36.0950	8	27.236	0	11.408	0	242.6	4	94.9	4	-1E+10	1	-1E+10	1	-1E+10	1	-1E+10	1	-1E+10	1	-1E+10	1
4901784	231	C	10/31/2021	10:43	-136.545	43.326	0	13.40	0	13.0350	0	36.0970	8	27.237	0	13.293	0	242.4	4	94.8	4	-1E+10	1	-1E+10	1	-1E+10	1	-1E+10	1	-1E+10	1	-1E+10	1
4901784	231	C	10/31/2021	10:43	-136.545	43.326	0	15.30	0	13.0350	0	36.0980	8	27.238	0	15.178	0	242.5	4	94.8	4	-1E+10	1	-1E+10	1	-1E+10	1	-1E+10	1	-1E+10	1	-1E+10	1
4901784	231	C	10/31/2021	10:43	-136.545	43.326	0	17.30	0	13.0350	0	36.0990	8	27.239	0	17.161	0	242.4	4	94.8	4	-1E+10	1	-1E+10	1	-1E+10	1	-1E+10	1	-1E+10	1	-1E+10	1
4901784	231	C	10/31/2021	10:43	-136.545	43.326	0	19.30	0	13.0360	0	36.1000	8	27.239	0	19.145	0	242.5	4	94.8	4	-1E+10	1	-1E+10	1	-1E+10	1	-1E+10	1	-1E+10	1	-1E+10	1
4901784	231	C	10/31/2021	10:43	-136.545	43.326	0	21.20	0	13.0370	0	36.1000	8	27.239	0	21.030	0	242.3	4	94.7	4	-1E+10	1	-1E+10	1	-1E+10	1	-1E+10	1	-1E+10	1	-1E+10	1
4901784	231	C	10/31/2021	10:43	-136.545	43.326	0	23.20	0	13.0360	0	36.1010	8	27.240	0	23.014	0	242.3	4	94.8	4	-1E+10	1	-1E+10	1	-1E+10	1	-1E+10	1	-1E+10	1	-1E+10	1
4901784	231	C	10/31/2021	10:43	-136.545	43.326	0	25.30	0	13.0320	0	36.1030	8	27.243	0	25.097	0	242.2	4	94.7	4	-1E+10	1	-1E+10	1	-1E+10	1	-1E+10	1	-1E+10	1	-1E+10	1
4901784	231	C	10/31/2021	10:43	-136.545	43.326	0	27.40	0	13.0320	0	36.1040	8	27.244	0	27.180	0	242.2	4	94.7	4	-1E+10	1	-1E+10	1	-1E+10	1	-1E+10	1	-1E+10	1	-1E+10	1
4901784	231	C	10/31/2021	10:43	-136.545	43.326	0	29.40	0	13.0310	0	36.1050	8	27.245	0	29.164	0	242.3	4	94.7	4	-1E+10	1	-1E+10	1	-1E+10	1	-1E+10	1	-1E+10	1	-1E+10	1
4901784	231	C	10/31/2021	10:43	-136.545	43.326	0	31.40	0	13.0300	0	36.1070	8	27.246	0	31.148	0	242.1	4	94.7	4	-1E+10	1	-1E+10	1	-1E+10	1	-1E+10	1	-1E+10	1	-1E+10	1
4901784	231	C	10/31/2021	10:43	-136.545	43.326	0	33.40	0	13.0320	0	36.1070	8	27.246	0	33.131	0	242.3	4	94.7	4	-1E+10	1	-1E+10	1	-1E+10	1	-1E+10	1	-1E+10	1	-1E+10	1
4901784	231	C	10/31/2021	10:43	-136.545	43.326	0	35.50	0	13.0340	0	36.1070	8	27.246	0	35.214	0	242.1	4	94.7	4	-1E+10	1	-1E+10	1	-1E+10	1	-1E+10	1	-1E+10	1	-1E+10	1
4901784	231	C	10/31/2021	10:43	-136.545	43.326	0	37.40	0	13.0330	0	36.1070	8	27.246	0	37.099	0	242.0	4	94.6	4	-1E+10	1	-1E+10	1	-1E+10	1	-1E+10	1	-1E+10	1	-1E+10	1
4901784	231	C	10/31/2021	10:43	-136.545	43.326	0	39.40	0	13.0330	0	36.1090	8	27.248	0	39.082	0	241.8	4	94.6	4	-1E+10	1	-1E+10	1	-1E+10	1	-1E+10	1	-1E+10	1	-1E+10	1
4901784	231	C	10/31/2021	10:43	-136.545	43.326	0	41.30	0	13.0330	0	36.1100	8	27.248	0	40.967	0	241.9	4	94.6	4	-1E+10	1	-1E+10	1	-1E+10	1	-1E+10	1	-1E+10	1	-1E+10	1
4901784	231	C	10/31/2021	10:43	-136.545	43.326	0	43.20	0	13.0300	0	36.1110	8	27.250	0	42.851	0	241.7	4	94.5	4	-1E+10	1	-1E+10	1	-1E+10	1	-1E+10	1	-1E+10	1	-1E+10	1
4901784	231	C	10/31/2021	10:43	-136.545	43.326	0	45.10	0	13.0310	0	36.1120	8	27.250	0	44.736	0	241.8	4	94.5	4	-1E+10	1	-1E+10	1	-1E+10	1	-1E+10	1	-1E+10	1	-1E+10	1
4901784	231	C	10/31/2021	10:43	-136.545	43.326	0	47.00	0	13.0160	0	36.1130	8	27.254	0	46.620	0	241.8	4	94.5	4	-1E+10	1	-1E+10	1	-1E+10	1	-1E+10	1	-1E+10	1	-1E+10	1
4901784	231	C	10/31/2021	10:43	-136.545	43.326	0	49.10	0	13.0180	0	36.1130	8	27.254	0	48.703	0	241.7	4	94.5	4	-1E+10	1	-1E+10	1	-1E+10	1	-1E+10	1	-1E+10	1	-1E+10	1
4901784	231	C	10/31/2021	10:43	-136.545	43.326	0	51.00	0	13.0250	0	36.1170	8	27.256	0	50.588	0	241.6	4	94.5	4	-1E+10	1	-1E+10	1	-1E+10	1	-1E+10	1	-1E+10	1	-1E+10	1
4901784	231	C	10/31/2021	10:43	-136.545	43.326	0	53.10	0	13.0250	0	36.1170	8	27.256	0	52.670	0	241.5	4	94.4	4	-1E+10	1	-1E+10	1	-1E+10	1	-1E+10	1	-1E+10	1	-1E+10	1
4901784	231	C	10/31/2021	10:43	-136.545	43.326	0	55.20	0	13.0260	0	36.1170	8	27.256	0	54.753	0	241.5	4	94.4	4	-1E+10	1	-1E+10	1	-1E+10	1	-1E+10	1	-1E+10	1	-1E+10	1
4901784	231	C	10/31/2021	10:43	-136.545	43.326	0	57.20	0	13.0260	0	36.1180	8	27.256	0	56.737	0	241.2	4	94.3	4	-1E+10	1	-1E+10	1	-1E+10	1	-1E+10	1	-1E+10	1	-1E+10	1
4901784	231	C	10/31/2021	10:43	-136.545	43.326	0	59.30	0	13.0200	0	36.1180	8	27.258	0	58.819	0	241.1	4	94.3	4	-1E+10	1	-1E+10	1	-1E+10	1	-1E+10	1	-1E+10	1	-1E+10	1
4901784	231	C	10/31/2021	10:43	-136.545	43.326	0	61.40	0	13.0210	0	36.1180	8	27.258	0	60.902	0	241.0	4	94.2	4	-1E+10	1	-1E+10	1	-1E+10	1	-1E+10	1	-1E+10	1	-1E+10	1
4901784	231	C	10/31/2021	10:43	-136.545	43.326	0	63.50	0	13.0110	0	36.1170	8	27.259	0	62.985	0	240.9	4	94.1	4	-1E+10	1	-1E+10	1	-1E+10	1	-1E+10	1	-1E+10	1	-1E+10	1
4901784	231	C	10/31/2021	10:43	-136.545	43.326	0	65.60	0	13.0030	0	36.1160	8	27.260	0	65.067	0	240.6	4	94.0	4	-1E+10	1	-1E+10	1	-1E+10	1	-1E+10	1	-1E+10	1	-1E+10	1
4901784	231	C	10/31/2021	10:43	-136.545	43.326	0	67.60	0	12.9860	0	36.1150	8	27.263	0	67.051	0	240.5	4	94.0	4	-1E+10	1	-1E+10	1	-1E+10	1	-1E+10	1	-1E+10	1	-1E+10	1
4901784	231	C	10/31/2021	10:43	-136.545	43.326	0	69.60	0	12.9760	0	36.1150	8	27.265	0	69.034	0	240.5	4	93.9	4	-1E+10	1	-1E+10	1	-1E+10	1	-1E+10	1	-1E+10	1	-1E+10	1
4901784	231	C	10/31/2021	10:43	-136.545	43.326	0	71.50	0	12.9580	0	36.1130	8	27.267	0	70.918	0	240.0	4	93.7	4	-1E+10	1	-1E+10	1	-1E+10	1	-1E+10	1	-1E+10	1	-1E+10	1
4901784	231	C	10/31/2021	10:43	-136.545	43.326	0	74.10	0	12.9360	0	36.1080	8	27.267	0	73.497	0	239.7	4	93.6	4	-1E+10	1	-1E+10	1	-1E+10	1	-1E+10	1	-1E+10	1	-1E+10	1
4901784	231	C	10/31/2021	10:43	-136.545	43.326	0	75.90	0	12.9050	0	36.0980	8	27.266	0	75.282	0	239.3	4	93.3	4	-1E+10	1	-1E+10	1	-1E+10	1	-1E+10	1	-1E+10	1	-1E+10	1
4901784	231	C	10/31/2021	10:43	-136.545	43.326	0	77.40	0	12.7870	0	36.1030	8	27.294	0	76.769	0	239.5	4	93.2	4	-1E+10	1	-1E+10	1	-1E+10	1	-1E+10	1	-1E+10	1	-1E+10	1
4901784	231	C	10/31/2021	10:43	-136.545	43.326	0	78.80	0	12.6870	0	36.0990	8	27.311	0	78.157	0	239.3	4	92.9	4	-1E+10	1	-1E+10	1	-1E+10	1	-1E+10	1	-1E+10	1	-1E+10	1
4901784	231	C	10/31/2021	10:43	-136.545	43.326	0	80.30	0	12.5520	0	36.1010	8	27.339	0	79.645	0	239.3	4	92.7	4	-1E+10	1	-1E+10	1	-1E+10	1	-1E+10	1	-1E+10	1	-1E+10	1
4901784	231	C	10/31/2021	10:43	-136.545	43.326	0	81.80	0	12.3170	0	36.1180	8	27.399	0	81.132	0	239.7	4	92.4	4	-1E+10	1	-1E+10	1	-1E+10	1	-1E+10	1	-1E+10	1	-1E+10	1
4901784	231	C	10/31/2021	10:43	-136.545	43.326	0	83.30	0	12.1240	0	36.1130	8	27.433	0	82.620	0	240.6	4	92.3	4	-1E+10	1	-1E+10	1	-1E+10	1	-1E+10	1	-1E+10	1	-1E+10	1
4901784	231	C	10/31/2021	10:43	-136.545	43.326	0	84.80	0	12.0220	0	36.1010	8	27.443	0	84.107	0	240.6	4	92.1	4	-1E+10	1	-1E+10	1	-1E+10	1	-1E+10	1	-1E+10	1	-1E+10	1
4901784	231	C	10/31/2021	10:43	-136.545	43.326	0	86.30	0	11.7330	0	36.1210	8	27.514	0	85.595	0	241.1	4	91.8	4	-1E+10	1	-1E+10	1	-1E+10	1	-1E+10	1	-1E+10	1	-1E+10	1
4901784	231	C	10/31/2021	10:43	-136.545	43.326	0	87.90	0	11.3000	0	36.1410	8	27.612	0	87.181	0	243.3	4	91.8	4	-1E+10	1	-1E+10	1	-1E+10	1	-1E+10	1	-1E+10	1	-1E+10	1
4901784	231	C	10/31/2021	10:43	-136.545	43.326	0	89.60	0	11.0290	0	36.1940	8	27.703	0	88.867	0	243.0	4	91.2	4	-1E+10	1	-1E+10	1	-1E+10	1	-1E+10	1	-1E+10	1	-1E+10	1
4901784	231	C	10/31/2021	10:43	-136.545	43.326	0	91.20	0	10.9620	0	36.1660	8	27.694	0	90.454	0	244.2	4	91.5	4	-1E+10	1	-1E+10	1	-1E+10	1	-1E+10	1	-1E+10	1	-1E+10	1
4901784	231	C	10/31/2021	10:43	-136.545	43.326	0	93.20	0	10.7810	0	36.1800	8	27.738	0	92.437	0	244.4	4	91.2	4	-1E+10	1	-1E+10	1	-1E+10	1	-1E+10	1	-1E+10	1	-1E+10	1
4901784	231	C	10/31/2021	10:43	-136.545	43.326	0	94.90	0	10.6280	0	36.2080	8	27.787	0	94.123	0	244.6	4	91.1	4	-1E+10	1	-1E+10	1	-1E+10	1	-1E+10	1	-1E+10	1	-1E+10	1
4901784	231	C	10/31/2021	10:43	-136.545	43.326	0	96.30	0	10.3420	0	36.2480	8	27.869	0	95.511	0	244.5	4	90.5	4	-1E+10	1	-1E+10	1	-1E+10	1	-1E+10	1	-1E+10	1	-1E+10	1
4901784	231	C	10/31/2021	10:43	-136.545	43.326	0	97.80	0	10.1630	0	36.2690	8	27.917	0	96.998	0	245.4	4	90.5	4	-1E+10	1	-1E+10	1	-1E+10	1	-1E+10	1	-1E+10	1	-1E+10	1
4901784	231	C	10/31/2021	10:43	-136.545	43.326	0	99.30	0	9.9950	0	36.2890	8	27.962	0	98.485	0	245.9	4	90.4	4	-1E+10	1	-1E+10	1	-1E+10	1	-1E+10	1	-1E+10	1	-1E+10	1
4901784	231	C	10/31/2021	10:43	-136.545	43.326	0	102.40	0	9.7380	0	36.3050	8	28.019	0	101.559	0	246.4	4	90.1	4	-1E+10	1	-1E+10	1	-1E+10	1	-1E+10	1	-1E+10	1	-1E+10	1
4901784	231	C	10/31/2021	10:43	-136.545	43.326	0	104.70	0	9.5400	0	36.3020	8	28.051	0	103.840	0	246.8	4	89.8	4	-1E+10	1	-1E+10	1	-1E+10	1	-1E+10	1	-1E+10	1	-1E+10	1
4901784	231	C	10/31/2021	10:43	-136.545	43.326	0	108.00	0	9.4360	0	36.3120	8	28.076	0	107.112	0	246.5	4	89.5	4	-1E+10	1	-1E+10	1	-1E+10	1	-1E+10	1	-1E+10	1	-1E+10	1
4901784	231	C	10/31/2021	10:43	-136.545	43.326	0	110.20	0	9.3770	0	36.3090	8	28.084	0	109.293	0	245.4	4	89.0	4	-1E+10	1	-1E+10	1	-1E+10	1	-1E+10	1	-1E+10	1	-1E+10	1
4901784	231	C	10/31/2021	10:43	-136.545	43.326	0	112.70	0	9.1660	0	36.3110	8	28.120	0	111.772	0	244.7	4	88.3	4	-1E+10	1	-1E+10	1	-1E+10	1	-1E+10	1	-1E+10	1	-1E+10	1
4901784	231	C	10/31/2021	10:43	-136.545	43.326	0	115.20	0	9.0250	0	36.3320	8	28.160	0	114.251	0	243.6	4	87.7	4	-1E+10	1	-1E+10	1	-1E+10	1	-1E+10	1	-1E+10	1	-1E+10	1
4901784	231	C	10/31/2021	10:43	-136.545	43.326	0	117.70	0	9.0540	0	36.3890	8	28.200	0	116.729	0	240.6	4	86.7	4	-1E+10	1	-1E+10	1	-1E+10	1	-1E+10	1	-1E+10	1	-1E+10	1
4901784	231	C	10/31/2021	10:43	-136.545	43.326	0	120.20	0	9.0750	0	36.4350	8	28.233	0	119.208	0	237.4	4	85.6	4	-1E+10	1	-1E+10	1	-1E+10	1	-1E+10	1	-1E+10	1	-1E+10	1
4901784	231	C	10/31/2021	10:43	-136.545	43.326	0	122.40	0	9.0520	0	36.4610	8	28.257	0	121.389	0	235.2	4	84.8	4	-1E+10	1	-1E+10	1	-1E+10	1	-1E+10	1	-1E+10	1	-1E+10	1
4901784	231	C	10/31/2021	10:43	-136.545	43.326	0	124.80	0	9.0950	0	36.5170	8	28.294	0	123.769	0	231.2	4	83.5	4	-1E+10	1	-1E+10	1	-1E+10	1	-1E+10	1	-1E+10	1	-1E+10	1
4901784	231	C	10/31/2021	10:43	-136.545	43.326	0	127.80	0	9.1280	0	36.5720	8	28.332	0	126.743	0	226.3	4	81.8	4	-1E+10	1	-1E+10	1	-1E+10	1	-1E+10	1	-1E+10	1	-1E+10	1
4901784	231	C	10/31/2021	10:43	-136.545	43.326	0	130.10	0	9.1260	0	36.5830	8	28.341	0	129.023	0	222.0	4	80.2	4	-1E+10	1	-1E+10	1	-1E+10	1	-1E+10	1	-1E+10	1	-1E+10	1
4901784	231	C	10/31/2021	10:43	-136.545	43.326	0	132.60	0	9.1670	0	36.6600	8	28.394	0	131.502	0	216.4	4	78.3	4	-1E+10	1	-1E+10	1	-1E+10	1	-1E+10	1	-1E+10	1	-1E+10	1
4901784	231	C	10/31/2021	10:43	-136.545	43.326	0	135.00	0	9.1870	0	36.7410	8	28.454	0	133.881	0	210.6	4	76.3	4	-1E+10	1	-1E+10	1	-1E+10	1	-1E+10	1	-1E+10	1	-1E+10	1
4901784	231	C	10/31/2021	10:43	-136.545	43.326	0	137.40	0	9.1870	0	36.8280	8	28.523	0	136.260	0	207.3	4	75.2	4	-1E+10	1	-1E+10	1	-1E+10	1	-1E+10	1	-1E+10	1	-1E+10	1
4901784	231	C	10/31/2021	10:43	-136.545	43.326	0	139.90	0	9.1690	0	36.8990	8	28.581	0	138.739	0	205.3	4	74.5	4	-1E+10	1	-1E+10	1	-1E+10	1	-1E+10	1	-1E+10	1	-1E+10	1
4901784	231	C	10/31/2021	10:43	-136.545	43.326	0	142.40	0	9.1060	0	36.9290	8	28.615	0	141.217	0	204.0	4	73.9	4	-1E+10	1	-1E+10	1	-1E+10	1	-1E+10	1	-1E+10	1	-1E+10	1
4901784	231	C	10/31/2021	10:43	-136.545	43.326	0	144.80	0	9.0630	0	36.9680	8	28.653	0	143.596	0	203.2	4	73.5	4	-1E+10	1	-1E+10	1	-1E+10	1	-1E+10	1	-1E+10	1	-1E+10	1
4901784	231	C	10/31/2021	10:43	-136.545	43.326	0	147.30	0	9.0560	0	36.9800	8	28.664	0	146.075	0	202.6	4	73.3	4	-1E+10	1	-1E+10	1	-1E+10	1	-1E+10	1	-1E+10	1	-1E+10	1
4901784	231	C	10/31/2021	10:43	-136.545	43.326	0	149.80	0	9.0420	0	37.0070	8	28.687	0	148.553	0	201.7	4	73.0	4	-1E+10	1	-1E+10	1	-1E+10	1	-1E+10	1	-1E+10	1	-1E+10	1
4901784	231	C	10/31/2021	10:43	-136.545	43.326	0	152.30	0	9.0350	0	37.0860	8	28.750	0	151.031	0	201.7	4	73.0	4	-1E+10	1	-1E+10	1	-1E+10	1	-1E+10	1	-1E+10	1	-1E+10	1
4901784	231	C	10/31/2021	10:43	-136.545	43.326	0	154.70	0	9.1470	0	37.1620	8	28.791	0	153.410	0	200.7	4	72.9	4	-1E+10	1	-1E+10	1	-1E+10	1	-1E+10	1	-1E+10	1	-1E+10	1
4901784	231	C	10/31/2021	10:43	-136.545	43.326	0	157.20	0	9.0330	0	37.2170	8	28.853	0	155.889	0	200.0	4	72.5	4	-1E+10	1	-1E+10	1	-1E+10	1	-1E+10	1	-1E+10	1	-1E+10	1
4901784	231	C	10/31/2021	10:43	-136.545	43.326	0	159.80	0	9.0580	0	37.2790	8	28.898	0	158.466	0	200.7	4	72.8	4	-1E+10	1	-1E+10	1	-1E+10	1	-1E+10	1	-1E+10	1	-1E+10	1
4901784	231	C	10/31/2021	10:43	-136.545	43.326	0	162.40	0	9.1430	0	37.3270	8	28.921	0	161.043	0	200.7	4	73.0	4	-1E+10	1	-1E+10	1	-1E+10	1	-1E+10	1	-1E+10	1	-1E+10	1
4901784	231	C	10/31/2021	10:43	-136.545	43.326	0	165.10	0	9.1600	0	37.3570	8	28.942	0	163.720	0	200.6	4	73.0	4	-1E+10	1	-1E+10	1	-1E+10	1	-1E+10	1	-1E+10	1	-1E+10	1
4901784	231	C	10/31/2021	10:43	-136.545	43.326	0	167.80	0	9.1660	0	37.3860	8	28.964	0	166.396	0	199.8	4	72.7	4	-1E+10	1	-1E+10	1	-1E+10	1	-1E+10	1	-1E+10	1	-1E+10	1
4901784	231	C	10/31/2021	10:43	-136.545	43.326	0	170.50	0	9.0130	0	37.4010	8	29.001	0	169.072	0	199.4	4	72.3	4	-1E+10	1	-1E+10	1	-1E+10	1	-1E+10	1	-1E+10	1	-1E+10	1
4901784	231	C	10/31/2021	10:43	-136.545	43.326	0	172.30	0	8.9910	0	37.4050	8	29.008	0	170.856	0	199.1	4	72.2	4	-1E+10	1	-1E+10	1	-1E+10	1	-1E+10	1	-1E+10	1	-1E+10	1
4901784	231	C	10/31/2021	10:43	-136.545	43.326	0	175.10	0	8.9900	0	37.4290	8	29.027	0	173.632	0	198.3	4	71.9	4	-1E+10	1	-1E+10	1	-1E+10	1	-1E+10	1	-1E+10	1	-1E+10	1
4901784	231	C	10/31/2021	10:43	-136.545	43.326	0	177.80	0	9.0270	0	37.4530	8	29.040	0	176.308	0	197.4	4	71.6	4	-1E+10	1	-1E+10	1	-1E+10	1	-1E+10	1	-1E+10	1	-1E+10	1
4901784	231	C	10/31/2021	10:43	-136.545	43.326	0	179.60	0	8.9830	0	37.4550	8	29.049	0	178.092	0	196.5	4	71.3	4	-1E+10	1	-1E+10	1	-1E+10	1	-1E+10	1	-1E+10	1	-1E+10	1
4901784	231	C	10/31/2021	10:43	-136.545	43.326	0	182.60	0	8.9070	0	37.4610	8	29.066	0	181.066	0	194.4	4	70.4	4	-1E+10	1	-1E+10	1	-1E+10	1	-1E+10	1	-1E+10	1	-1E+10	1
4901784	231	C	10/31/2021	10:43	-136.545	43.326	0	185.00	0	8.8230	0	37.4550	8	29.075	0	183.444	0	192.0	4	69.4	4	-1E+10	1	-1E+10	1	-1E+10	1	-1E+10	1	-1E+10	1	-1E+10	1
4901784	231	C	10/31/2021	10:43	-136.545	43.326	0	187.30	0	8.7610	0	37.4550	8	29.085	0	185.724	0	189.7	4	68.4	4	-1E+10	1	-1E+10	1	-1E+10	1	-1E+10	1	-1E+10	1	-1E+10	1
4901784	231	C	10/31/2021	10:43	-136.545	43.326	0	189.60	0	8.6550	0	37.4560	8	29.104	0	188.004	0	187.4	4	67.5	4	-1E+10	1	-1E+10	1	-1E+10	1	-1E+10	1	-1E+10	1	-1E+10	1
4901784	231	C	10/31/2021	10:43	-136.545	43.326	0	192.80	0	8.5690	0	37.4560	8	29.118	0	191.175	0	186.0	4	66.8	4	-1E+10	1	-1E+10	1	-1E+10	1	-1E+10	1	-1E+10	1	-1E+10	1
4901784	231	C	10/31/2021	10:43	-136.545	43.326	0	195.10	0	8.5330	0	37.4610	8	29.127	0	193.455	0	184.7	4	66.3	4	-1E+10	1	-1E+10	1	-1E+10	1	-1E+10	1	-1E+10	1	-1E+10	1
4901784	231	C	10/31/2021	10:43	-136.545	43.326	0	197.60	0	8.4430	0	37.4620	8	29.143	0	195.933	0	183.6	4	65.8	4	-1E+10	1	-1E+10	1	-1E+10	1	-1E+10	1	-1E+10	1	-1E+10	1
4901784	231	C	10/31/2021	10:43	-136.545	43.326	0	200.00	0	8.3430	0	37.4640	8	29.160	0	198.311	0	182.9	4	65.4	4	-1E+10	1	-1E+10	1	-1E+10	1	-1E+10	1	-1E+10	1	-1E+10	1
4901784	231	C	10/31/2021	10:43	-136.545	43.326	0	202.50	0	8.2380	0	37.4720	8	29.183	0	200.789	0	182.8	4	65.2	4	-1E+10	1	-1E+10	1	-1E+10	1	-1E+10	1	-1E+10	1	-1E+10	1
4901784	231	C	10/31/2021	10:43	-136.545	43.326	0	205.10	0	8.2320	0	37.4760	8	29.187	0	203.366	0	182.5	4	65.1	4	-1E+10	1	-1E+10	1	-1E+10	1	-1E+10	1	-1E+10	1	-1E+10	1
4901784	231	C	10/31/2021	10:43	-136.545	43.326	0	207.60	0	8.2110	0	37.4740	8	29.189	0	205.843	0	181.6	4	64.8	4	-1E+10	1	-1E+10	1	-1E+10	1	-1E+10	1	-1E+10	1	-1E+10	1
4901784	231	C	10/31/2021	10:43	-136.545	43.326	0	210.10	0	8.1390	0	37.4780	8	29.204	0	208.321	0	180.7	4	64.3	4	-1E+10	1	-1E+10	1	-1E+10	1	-1E+10	1	-1E+10	1	-1E+10	1
4901784	231	C	10/31/2021	10:43	-136.545	43.326	0	212.60	0	8.1030	0	37.4740	8	29.206	0	210.798	0	179.5	4	63.8	4	-1E+10	1	-1E+10	1	-1E+10	1	-1E+10	1	-1E+10	1	-1E+10	1
4901784	231	C	10/31/2021	10:43	-136.545	43.326	0	215.10	0	8.0280	0	37.4730	8	29.217	0	213.276	0	178.2	4	63.3	4	-1E+10	1	-1E+10	1	-1E+10	1	-1E+10	1	-1E+10	1	-1E+10	1
4901784	231	C	10/31/2021	10:43	-136.545	43.326	0	217.60	0	7.9610	0	37.4700	8	29.225	0	215.753	0	176.9	4	62.7	4	-1E+10	1	-1E+10	1	-1E+10	1	-1E+10	1	-1E+10	1	-1E+10	1
4901784	231	C	10/31/2021	10:43	-136.545	43.326	0	220.10	0	7.9230	0	37.4640	8	29.227	0	218.231	0	175.1	4	62.0	4	-1E+10	1	-1E+10	1	-1E+10	1	-1E+10	1	-1E+10	1	-1E+10	1
4901784	231	C	10/31/2021	10:43	-136.545	43.326	0	222.60	0	7.7720	0	37.4680	8	29.253	0	220.708	0	175.2	4	61.9	4	-1E+10	1	-1E+10	1	-1E+10	1	-1E+10	1	-1E+10	1	-1E+10	1
4901784	231	C	10/31/2021	10:43	-136.545	43.326	0	225.00	0	7.7690	0	37.4770	8	29.261	0	223.087	0	176.0	4	62.1	4	-1E+10	1	-1E+10	1	-1E+10	1	-1E+10	1	-1E+10	1	-1E+10	1
4901784	231	C	10/31/2021	10:43	-136.545	43.326	0	227.50	0	7.7560	0	37.4790	8	29.264	0	225.564	0	176.0	4	62.1	4	-1E+10	1	-1E+10	1	-1E+10	1	-1E+10	1	-1E+10	1	-1E+10	1
4901784	231	C	10/31/2021	10:43	-136.545	43.326	0	230.00	0	7.7450	0	37.4780	8	29.265	0	228.041	0	175.4	4	61.9	4	-1E+10	1	-1E+10	1	-1E+10	1	-1E+10	1	-1E+10	1	-1E+10	1
4901784	231	C	10/31/2021	10:43	-136.545	43.326	0	232.50	0	7.6960	0	37.4790	8	29.273	0	230.519	0	174.8	4	61.6	4	-1E+10	1	-1E+10	1	-1E+10	1	-1E+10	1	-1E+10	1	-1E+10	1
4901784	231	C	10/31/2021	10:43	-136.545	43.326	0	235.10	0	7.6620	0	37.4770	8	29.277	0	233.095	0	174.7	4	61.5	4	-1E+10	1	-1E+10	1	-1E+10	1	-1E+10	1	-1E+10	1	-1E+10	1
4901784	231	C	10/31/2021	10:43	-136.545	43.326	0	237.60	0	7.6150	0	37.4810	8	29.287	0	235.572	0	173.8	4	61.2	4	-1E+10	1	-1E+10	1	-1E+10	1	-1E+10	1	-1E+10	1	-1E+10	1
4901784	231	C	10/31/2021	10:43	-136.545	43.326	0	240.20	0	7.5850	0	37.4810	8	29.292	0	238.148	0	172.6	4	60.7	4	-1E+10	1	-1E+10	1	-1E+10	1	-1E+10	1	-1E+10	1	-1E+10	1
4901784	231	C	10/31/2021	10:43	-136.545	43.326	0	242.70	0	7.5570	0	37.4820	8	29.297	0	240.626	0	171.1	4	60.1	4	-1E+10	1	-1E+10	1	-1E+10	1	-1E+10	1	-1E+10	1	-1E+10	1
4901784	231	C	10/31/2021	10:43	-136.545	43.326	0	245.30	0	7.5420	0	37.4830	8	29.300	0	243.202	0	168.3	4	59.1	4	-1E+10	1	-1E+10	1	-1E+10	1	-1E+10	1	-1E+10	1	-1E+10	1
4901784	231	C	10/31/2021	10:43	-136.545	43.326	0	247.80	0	7.5100	0	37.4880	8	29.309	0	245.679	0	164.6	4	57.8	4	-1E+10	1	-1E+10	1	-1E+10	1	-1E+10	1	-1E+10	1	-1E+10	1
4901784	231	C	10/31/2021	10:43	-136.545	43.326	0	250.30	0	7.5290	0	37.4950	8	29.312	0	248.156	0	161.3	4	56.7	4	-1E+10	1	-1E+10	1	-1E+10	1	-1E+10	1	-1E+10	1	-1E+10	1
4901784	231	C	10/31/2021	10:43	-136.545	43.326	0	252.80	0	7.4790	0	37.5040	8	29.326	0	250.633	0	159.5	4	55.9	4	-1E+10	1	-1E+10	1	-1E+10	1	-1E+10	1	-1E+10	1	-1E+10	1
4901784	231	C	10/31/2021	10:43	-136.545	43.326	0	255.30	0	7.4490	0	37.5070	8	29.333	0	253.110	0	158.2	4	55.5	4	-1E+10	1	-1E+10	1	-1E+10	1	-1E+10	1	-1E+10	1	-1E+10	1
4901784	231	C	10/31/2021	10:43	-136.545	43.326	0	257.00	0	7.4210	0	37.5110	8	29.340	0	254.795	0	157.4	4	55.2	4	-1E+10	1	-1E+10	1	-1E+10	1	-1E+10	1	-1E+10	1	-1E+10	1
4901784	231	C	10/31/2021	10:43	-136.545	43.326	0	259.70	0	7.4070	0	37.5120	8	29.343	0	257.470	0	156.4	4	54.8	4	-1E+10	1	-1E+10	1	-1E+10	1	-1E+10	1	-1E+10	1	-1E+10	1
4901784	231	C	10/31/2021	10:43	-136.545	43.326	0	262.30	0	7.3850	0	37.5140	8	29.348	0	260.046	0	155.4	4	54.4	4	-1E+10	1	-1E+10	1	-1E+10	1	-1E+10	1	-1E+10	1	-1E+10	1
4901784	231	C	10/31/2021	10:43	-136.545	43.326	0	264.90	0	7.3550	0	37.5150	8	29.354	0	262.622	0	154.3	4	54.0	4	-1E+10	1	-1E+10	1	-1E+10	1	-1E+10	1	-1E+10	1	-1E+10	1
4901784	231	C	10/31/2021	10:43	-136.545	43.326	0	267.50	0	7.3150	0	37.5180	8	29.362	0	265.198	0	153.0	4	53.5	4	-1E+10	1	-1E+10	1	-1E+10	1	-1E+10	1	-1E+10	1	-1E+10	1
4901784	231	C	10/31/2021	10:43	-136.545	43.326	0	270.10	0	7.2730	0	37.5200	8	29.370	0	267.774	0	151.9	4	53.1	4	-1E+10	1	-1E+10	1	-1E+10	1	-1E+10	1	-1E+10	1	-1E+10	1
4901784	231	C	10/31/2021	10:43	-136.545	43.326	0	272.70	0	7.2510	0	37.5210	8	29.374	0	270.350	0	150.9	4	52.7	4	-1E+10	1	-1E+10	1	-1E+10	1	-1E+10	1	-1E+10	1	-1E+10	1
4901784	231	C	10/31/2021	10:43	-136.545	43.326	0	274.50	0	7.2380	0	37.5210	8	29.376	0	272.133	0	150.1	4	52.4	4	-1E+10	1	-1E+10	1	-1E+10	1	-1E+10	1	-1E+10	1	-1E+10	1
4901784	231	C	10/31/2021	10:43	-136.545	43.326	0	277.10	0	7.2140	0	37.5220	8	29.380	0	274.709	0	148.5	4	51.8	4	-1E+10	1	-1E+10	1	-1E+10	1	-1E+10	1	-1E+10	1	-1E+10	1
4901784	231	C	10/31/2021	10:43	-136.545	43.326	0	279.70	0	7.1680	0	37.5250	8	29.389	0	277.285	0	147.1	4	51.2	4	-1E+10	1	-1E+10	1	-1E+10	1	-1E+10	1	-1E+10	1	-1E+10	1
4901784	231	C	10/31/2021	10:43	-136.545	43.326	0	282.20	0	7.1280	0	37.5300	8	29.399	0	279.761	0	145.6	4	50.7	4	-1E+10	1	-1E+10	1	-1E+10	1	-1E+10	1	-1E+10	1	-1E+10	1
4901784	231	C	10/31/2021	10:43	-136.545	43.326	0	284.70	0	7.1050	0	37.5270	8	29.400	0	282.238	0	144.1	4	50.1	4	-1E+10	1	-1E+10	1	-1E+10	1	-1E+10	1	-1E+10	1	-1E+10	1
4901784	231	C	10/31/2021	10:43	-136.545	43.326	0	287.30	0	7.0480	0	37.5310	8	29.412	0	284.814	0	142.4	4	49.5	4	-1E+10	1	-1E+10	1	-1E+10	1	-1E+10	1	-1E+10	1	-1E+10	1
4901784	231	C	10/31/2021	10:43	-136.545	43.326	0	289.90	0	6.9970	0	37.5290	8	29.418	0	287.390	0	140.7	4	48.8	4	-1E+10	1	-1E+10	1	-1E+10	1	-1E+10	1	-1E+10	1	-1E+10	1
4901784	231	C	10/31/2021	10:43	-136.545	43.326	0	292.50	0	6.9420	0	37.5370	8	29.432	0	289.965	0	139.3	4	48.3	4	-1E+10	1	-1E+10	1	-1E+10	1	-1E+10	1	-1E+10	1	-1E+10	1
4901784	231	C	10/31/2021	10:43	-136.545	43.326	0	295.20	0	6.9250	0	37.5360	8	29.434	0	292.640	0	137.5	4	47.7	4	-1E+10	1	-1E+10	1	-1E+10	1	-1E+10	1	-1E+10	1	-1E+10	1
4901784	231	C	10/31/2021	10:43	-136.545	43.326	0	297.00	0	6.8920	0	37.5370	8	29.439	0	294.423	0	136.3	4	47.2	4	-1E+10	1	-1E+10	1	-1E+10	1	-1E+10	1	-1E+10	1	-1E+10	1
4901784	231	C	10/31/2021	10:43	-136.545	43.326	0	299.60	0	6.8150	0	37.5450	8	29.456	0	296.999	0	135.0	4	46.7	4	-1E+10	1	-1E+10	1	-1E+10	1	-1E+10	1	-1E+10	1	-1E+10	1
4901784	231	C	10/31/2021	10:43	-136.545	43.326	0	302.30	0	6.7880	0	37.5430	8	29.459	0	299.673	0	134.0	4	46.3	4	-1E+10	1	-1E+10	1	-1E+10	1	-1E+10	1	-1E+10	1	-1E+10	1
4901784	231	C	10/31/2021	10:43	-136.545	43.326	0	304.80	0	6.7450	0	37.5450	8	29.467	0	302.150	0	132.9	4	45.9	4	-1E+10	1	-1E+10	1	-1E+10	1	-1E+10	1	-1E+10	1	-1E+10	1
4901784	231	C	10/31/2021	10:43	-136.545	43.326	0	307.40	0	6.6910	0	37.5480	8	29.477	0	304.725	0	131.6	4	45.4	4	-1E+10	1	-1E+10	1	-1E+10	1	-1E+10	1	-1E+10	1	-1E+10	1
4901784	231	C	10/31/2021	10:43	-136.545	43.326	0	310.00	0	6.6450	0	37.5500	8	29.485	0	307.301	0	130.6	4	45.0	4	-1E+10	1	-1E+10	1	-1E+10	1	-1E+10	1	-1E+10	1	-1E+10	1
4901784	231	C	10/31/2021	10:43	-136.545	43.326	0	312.80	0	6.6120	0	37.5520	8	29.491	0	310.074	0	129.5	4	44.6	4	-1E+10	1	-1E+10	1	-1E+10	1	-1E+10	1	-1E+10	1	-1E+10	1
4901784	231	C	10/31/2021	10:43	-136.545	43.326	0	314.60	0	6.5870	0	37.5540	8	29.496	0	311.857	0	128.4	4	44.2	4	-1E+10	1	-1E+10	1	-1E+10	1	-1E+10	1	-1E+10	1	-1E+10	1
4901784	231	C	10/31/2021	10:43	-136.545	43.326	0	317.40	0	6.5620	0	37.5530	8	29.499	0	314.630	0	127.6	4	43.9	4	-1E+10	1	-1E+10	1	-1E+10	1	-1E+10	1	-1E+10	1	-1E+10	1
4901784	231	C	10/31/2021	10:43	-136.545	43.326	0	320.10	0	6.5460	0	37.5510	8	29.500	0	317.305	0	126.6	4	43.5	4	-1E+10	1	-1E+10	1	-1E+10	1	-1E+10	1	-1E+10	1	-1E+10	1
4901784	231	C	10/31/2021	10:43	-136.545	43.326	0	322.00	0	6.5190	0	37.5510	8	29.503	0	319.187	0	125.5	4	43.1	4	-1E+10	1	-1E+10	1	-1E+10	1	-1E+10	1	-1E+10	1	-1E+10	1
4901784	231	C	10/31/2021	10:43	-136.545	43.326	0	324.80	0	6.4620	0	37.5540	8	29.514	0	321.960	0	124.3	4	42.6	4	-1E+10	1	-1E+10	1	-1E+10	1	-1E+10	1	-1E+10	1	-1E+10	1
4901784	231	C	10/31/2021	10:43	-136.545	43.326	0	327.50	0	6.4020	0	37.5600	8	29.527	0	324.634	0	123.1	4	42.2	4	-1E+10	1	-1E+10	1	-1E+10	1	-1E+10	1	-1E+10	1	-1E+10	1
4901784	231	C	10/31/2021	10:43	-136.545	43.326	0	330.20	0	6.3770	0	37.5590	8	29.530	0	327.309	0	122.1	4	41.8	4	-1E+10	1	-1E+10	1	-1E+10	1	-1E+10	1	-1E+10	1	-1E+10	1
4901784	231	C	10/31/2021	10:43	-136.545	43.326	0	332.90	0	6.3480	0	37.5600	8	29.534	0	329.983	0	120.8	4	41.3	4	-1E+10	1	-1E+10	1	-1E+10	1	-1E+10	1	-1E+10	1	-1E+10	1
4901784	231	C	10/31/2021	10:43	-136.545	43.326	0	334.70	0	6.3190	0	37.5610	8	29.539	0	331.766	0	119.9	4	41.0	4	-1E+10	1	-1E+10	1	-1E+10	1	-1E+10	1	-1E+10	1	-1E+10	1
4901784	231	C	10/31/2021	10:43	-136.545	43.326	0	337.60	0	6.2810	0	37.5610	8	29.544	0	334.638	0	118.3	4	40.4	4	-1E+10	1	-1E+10	1	-1E+10	1	-1E+10	1	-1E+10	1	-1E+10	1
4901784	231	C	10/31/2021	10:43	-136.545	43.326	0	340.00	0	6.2410	0	37.5630	8	29.552	0	337.015	0	116.8	4	39.9	4	-1E+10	1	-1E+10	1	-1E+10	1	-1E+10	1	-1E+10	1	-1E+10	1
4901784	231	C	10/31/2021	10:43	-136.545	43.326	0	342.40	0	6.1950	0	37.5640	8	29.559	0	339.392	0	115.4	4	39.3	4	-1E+10	1	-1E+10	1	-1E+10	1	-1E+10	1	-1E+10	1	-1E+10	1
4901784	231	C	10/31/2021	10:43	-136.545	43.326	0	344.70	0	6.1420	0	37.5670	8	29.568	0	341.670	0	114.4	4	39.0	4	-1E+10	1	-1E+10	1	-1E+10	1	-1E+10	1	-1E+10	1	-1E+10	1
4901784	231	C	10/31/2021	10:43	-136.545	43.326	0	347.90	0	6.1180	0	37.5670	8	29.572	0	344.839	0	113.1	4	38.5	4	-1E+10	1	-1E+10	1	-1E+10	1	-1E+10	1	-1E+10	1	-1E+10	1
4901784	231	C	10/31/2021	10:43	-136.545	43.326	0	350.30	0	6.0950	0	37.5670	8	29.575	0	347.216	0	111.9	4	38.1	4	-1E+10	1	-1E+10	1	-1E+10	1	-1E+10	1	-1E+10	1	-1E+10	1
4901784	231	C	10/31/2021	10:43	-136.545	43.326	0	352.80	0	6.0370	0	37.5700	8	29.585	0	349.692	0	110.8	4	37.6	4	-1E+10	1	-1E+10	1	-1E+10	1	-1E+10	1	-1E+10	1	-1E+10	1
4901784	231	C	10/31/2021	10:43	-136.545	43.326	0	355.20	0	6.0030	0	37.5700	8	29.589	0	352.069	0	109.8	4	37.3	4	-1E+10	1	-1E+10	1	-1E+10	1	-1E+10	1	-1E+10	1	-1E+10	1
4901784	231	C	10/31/2021	10:43	-136.545	43.326	0	357.70	0	5.9750	0	37.5720	8	29.595	0	354.544	0	108.8	4	36.9	4	-1E+10	1	-1E+10	1	-1E+10	1	-1E+10	1	-1E+10	1	-1E+10	1
4901784	231	C	10/31/2021	10:43	-136.545	43.326	0	360.20	0	5.9420	0	37.5740	8	29.601	0	357.020	0	107.8	4	36.5	4	-1E+10	1	-1E+10	1	-1E+10	1	-1E+10	1	-1E+10	1	-1E+10	1
4901784	231	C	10/31/2021	10:43	-136.545	43.326	0	362.60	0	5.9210	0	37.5750	8	29.604	0	359.397	0	107.0	4	36.3	4	-1E+10	1	-1E+10	1	-1E+10	1	-1E+10	1	-1E+10	1	-1E+10	1
4901784	231	C	10/31/2021	10:43	-136.545	43.326	0	365.10	0	5.9080	0	37.5750	8	29.606	0	361.873	0	106.2	4	36.0	4	-1E+10	1	-1E+10	1	-1E+10	1	-1E+10	1	-1E+10	1	-1E+10	1
4901784	231	C	10/31/2021	10:43	-136.545	43.326	0	367.70	0	5.8850	0	37.5760	8	29.610	0	364.447	0	105.3	4	35.7	4	-1E+10	1	-1E+10	1	-1E+10	1	-1E+10	1	-1E+10	1	-1E+10	1
4901784	231	C	10/31/2021	10:43	-136.545	43.326	0	370.20	0	5.8660	0	37.5760	8	29.613	0	366.923	0	104.4	4	35.3	4	-1E+10	1	-1E+10	1	-1E+10	1	-1E+10	1	-1E+10	1	-1E+10	1
4901784	231	C	10/31/2021	10:43	-136.545	43.326	0	372.70	0	5.8350	0	37.5760	8	29.617	0	369.399	0	103.4	4	35.0	4	-1E+10	1	-1E+10	1	-1E+10	1	-1E+10	1	-1E+10	1	-1E+10	1
4901784	231	C	10/31/2021	10:43	-136.545	43.326	0	375.30	0	5.7910	0	37.5790	8	29.625	0	371.973	0	102.2	4	34.5	4	-1E+10	1	-1E+10	1	-1E+10	1	-1E+10	1	-1E+10	1	-1E+10	1
4901784	231	C	10/31/2021	10:43	-136.545	43.326	0	377.80	0	5.7630	0	37.5810	8	29.630	0	374.449	0	101.1	4	34.1	4	-1E+10	1	-1E+10	1	-1E+10	1	-1E+10	1	-1E+10	1	-1E+10	1
4901784	231	C	10/31/2021	10:43	-136.545	43.326	0	380.30	0	5.7380	0	37.5810	8	29.634	0	376.924	0	99.9	4	33.7	4	-1E+10	1	-1E+10	1	-1E+10	1	-1E+10	1	-1E+10	1	-1E+10	1
4901784	231	C	10/31/2021	10:43	-136.545	43.326	0	382.10	0	5.7260	0	37.5810	8	29.635	0	378.707	0	98.8	4	33.3	4	-1E+10	1	-1E+10	1	-1E+10	1	-1E+10	1	-1E+10	1	-1E+10	1
4901784	231	C	10/31/2021	10:43	-136.545	43.326	0	384.60	0	5.6880	0	37.5840	8	29.643	0	381.182	0	97.2	4	32.8	4	-1E+10	1	-1E+10	1	-1E+10	1	-1E+10	1	-1E+10	1	-1E+10	1
4901784	231	C	10/31/2021	10:43	-136.545	43.326	0	387.20	0	5.6460	0	37.5870	8	29.650	0	383.757	0	96.0	4	32.3	4	-1E+10	1	-1E+10	1	-1E+10	1	-1E+10	1	-1E+10	1	-1E+10	1
4901784	231	C	10/31/2021	10:43	-136.545	43.326	0	389.70	0	5.6180	0	37.5900	8	29.656	0	386.232	0	94.8	4	31.9	4	-1E+10	1	-1E+10	1	-1E+10	1	-1E+10	1	-1E+10	1	-1E+10	1
4901784	231	C	10/31/2021	10:43	-136.545	43.326	0	392.30	0	5.5830	0	37.5920	8	29.663	0	388.807	0	93.9	4	31.6	4	-1E+10	1	-1E+10	1	-1E+10	1	-1E+10	1	-1E+10	1	-1E+10	1
4901784	231	C	10/31/2021	10:43	-136.545	43.326	0	394.80	0	5.5610	0	37.5940	8	29.667	0	391.282	0	93.2	4	31.3	4	-1E+10	1	-1E+10	1	-1E+10	1	-1E+10	1	-1E+10	1	-1E+10	1
4901784	231	C	10/31/2021	10:43	-136.545	43.326	0	397.30	0	5.5500	0	37.5930	8	29.668	0	393.757	0	92.3	4	31.0	4	-1E+10	1	-1E+10	1	-1E+10	1	-1E+10	1	-1E+10	1	-1E+10	1
4901784	231	C	10/31/2021	10:43	-136.545	43.326	0	399.90	0	5.5070	0	37.5970	8	29.676	0	396.332	0	91.4	4	30.7	4	-1E+10	1	-1E+10	1	-1E+10	1	-1E+10	1	-1E+10	1	-1E+10	1
4901784	231	C	10/31/2021	10:43	-136.545	43.326	0	402.50	0	5.4820	0	37.5990	8	29.681	0	398.906	0	91.0	4	30.5	4	-1E+10	1	-1E+10	1	-1E+10	1	-1E+10	1	-1E+10	1	-1E+10	1
4901784	231	C	10/31/2021	10:43	-136.545	43.326	0	405.20	0	5.4760	0	37.5990	8	29.682	0	401.579	0	90.4	4	30.3	4	-1E+10	1	-1E+10	1	-1E+10	1	-1E+10	1	-1E+10	1	-1E+10	1
4901784	231	C	10/31/2021	10:43	-136.545	43.326	0	407.80	0	5.4560	0	37.6000	8	29.685	0	404.154	0	89.7	4	30.1	4	-1E+10	1	-1E+10	1	-1E+10	1	-1E+10	1	-1E+10	1	-1E+10	1
4901784	231	C	10/31/2021	10:43	-136.545	43.326	0	409.60	0	5.4370	0	37.6020	8	29.690	0	405.936	0	89.2	4	29.9	4	-1E+10	1	-1E+10	1	-1E+10	1	-1E+10	1	-1E+10	1	-1E+10	1
4901784	231	C	10/31/2021	10:43	-136.545	43.326	0	412.30	0	5.4280	0	37.6010	8	29.690	0	408.609	0	88.3	4	29.6	4	-1E+10	1	-1E+10	1	-1E+10	1	-1E+10	1	-1E+10	1	-1E+10	1
4901784	231	C	10/31/2021	10:43	-136.545	43.326	0	414.90	0	5.4080	0	37.6000	8	29.692	0	411.183	0	87.3	4	29.2	4	-1E+10	1	-1E+10	1	-1E+10	1	-1E+10	1	-1E+10	1	-1E+10	1
4901784	231	C	10/31/2021	10:43	-136.545	43.326	0	417.60	0	5.3650	0	37.6040	8	29.700	0	413.856	0	86.2	4	28.9	4	-1E+10	1	-1E+10	1	-1E+10	1	-1E+10	1	-1E+10	1	-1E+10	1
4901784	231	C	10/31/2021	10:43	-136.545	43.326	0	420.30	0	5.3360	0	37.6050	8	29.705	0	416.529	0	85.1	4	28.5	4	-1E+10	1	-1E+10	1	-1E+10	1	-1E+10	1	-1E+10	1	-1E+10	1
4901784	231	C	10/31/2021	10:43	-136.545	43.326	0	422.10	0	5.3030	0	37.6110	8	29.714	0	418.311	0	84.2	4	28.1	4	-1E+10	1	-1E+10	1	-1E+10	1	-1E+10	1	-1E+10	1	-1E+10	1
4901784	231	C	10/31/2021	10:43	-136.545	43.326	0	424.80	0	5.2780	0	37.6120	8	29.718	0	420.984	0	83.4	4	27.8	4	-1E+10	1	-1E+10	1	-1E+10	1	-1E+10	1	-1E+10	1	-1E+10	1
4901784	231	C	10/31/2021	10:43	-136.545	43.326	0	427.50	0	5.2700	0	37.6120	8	29.719	0	423.657	0	82.3	4	27.5	4	-1E+10	1	-1E+10	1	-1E+10	1	-1E+10	1	-1E+10	1	-1E+10	1
4901784	231	C	10/31/2021	10:43	-136.545	43.326	0	430.10	0	5.2440	0	37.6150	8	29.725	0	426.231	0	81.0	4	27.0	4	-1E+10	1	-1E+10	1	-1E+10	1	-1E+10	1	-1E+10	1	-1E+10	1
4901784	231	C	10/31/2021	10:43	-136.545	43.326	0	432.70	0	5.2230	0	37.6170	8	29.729	0	428.805	0	79.7	4	26.6	4	-1E+10	1	-1E+10	1	-1E+10	1	-1E+10	1	-1E+10	1	-1E+10	1
4901784	231	C	10/31/2021	10:43	-136.545	43.326	0	434.50	0	5.2100	0	37.6180	8	29.731	0	430.587	0	78.7	4	26.3	4	-1E+10	1	-1E+10	1	-1E+10	1	-1E+10	1	-1E+10	1	-1E+10	1
4901784	231	C	10/31/2021	10:43	-136.545	43.326	0	437.20	0	5.1700	0	37.6230	8	29.740	0	433.260	0	77.5	4	25.8	4	-1E+10	1	-1E+10	1	-1E+10	1	-1E+10	1	-1E+10	1	-1E+10	1
4901784	231	C	10/31/2021	10:43	-136.545	43.326	0	439.80	0	5.1520	0	37.6270	8	29.746	0	435.834	0	76.4	4	25.4	4	-1E+10	1	-1E+10	1	-1E+10	1	-1E+10	1	-1E+10	1	-1E+10	1
4901784	231	C	10/31/2021	10:43	-136.545	43.326	0	442.60	0	5.1280	0	37.6290	8	29.750	0	438.606	0	75.5	4	25.1	4	-1E+10	1	-1E+10	1	-1E+10	1	-1E+10	1	-1E+10	1	-1E+10	1
4901784	231	C	10/31/2021	10:43	-136.545	43.326	0	445.30	0	5.1080	0	37.6310	8	29.754	0	441.278	0	74.5	4	24.8	4	-1E+10	1	-1E+10	1	-1E+10	1	-1E+10	1	-1E+10	1	-1E+10	1
4901784	231	C	10/31/2021	10:43	-136.545	43.326	0	447.10	0	5.0880	0	37.6350	8	29.760	0	443.060	0	73.8	4	24.5	4	-1E+10	1	-1E+10	1	-1E+10	1	-1E+10	1	-1E+10	1	-1E+10	1
4901784	231	C	10/31/2021	10:43	-136.545	43.326	0	449.80	0	5.0750	0	37.6360	8	29.762	0	445.733	0	73.0	4	24.3	4	-1E+10	1	-1E+10	1	-1E+10	1	-1E+10	1	-1E+10	1	-1E+10	1
4901784	231	C	10/31/2021	10:43	-136.545	43.326	0	452.50	0	5.0570	0	37.6370	8	29.765	0	448.406	0	72.2	4	24.0	4	-1E+10	1	-1E+10	1	-1E+10	1	-1E+10	1	-1E+10	1	-1E+10	1
4901784	231	C	10/31/2021	10:43	-136.545	43.326	0	455.30	0	5.0350	0	37.6400	8	29.771	0	451.177	0	71.5	4	23.7	4	-1E+10	1	-1E+10	1	-1E+10	1	-1E+10	1	-1E+10	1	-1E+10	1
4901784	231	C	10/31/2021	10:43	-136.545	43.326	0	458.00	0	5.0160	0	37.6420	8	29.775	0	453.850	0	70.7	4	23.5	4	-1E+10	1	-1E+10	1	-1E+10	1	-1E+10	1	-1E+10	1	-1E+10	1
4901784	231	C	10/31/2021	10:43	-136.545	43.326	0	459.80	0	5.0030	0	37.6430	8	29.777	0	455.632	0	70.1	4	23.3	4	-1E+10	1	-1E+10	1	-1E+10	1	-1E+10	1	-1E+10	1	-1E+10	1
4901784	231	C	10/31/2021	10:43	-136.545	43.326	0	462.60	0	4.9750	0	37.6480	8	29.784	0	458.403	0	69.5	4	23.0	4	-1E+10	1	-1E+10	1	-1E+10	1	-1E+10	1	-1E+10	1	-1E+10	1
4901784	231	C	10/31/2021	10:43	-136.545	43.326	0	465.40	0	4.9690	0	37.6480	8	29.785	0	461.175	0	68.8	4	22.8	4	-1E+10	1	-1E+10	1	-1E+10	1	-1E+10	1	-1E+10	1	-1E+10	1
4901784	231	C	10/31/2021	10:43	-136.545	43.326	0	467.20	0	4.9620	0	37.6480	8	29.786	0	462.956	0	68.2	4	22.6	4	-1E+10	1	-1E+10	1	-1E+10	1	-1E+10	1	-1E+10	1	-1E+10	1
4901784	231	C	10/31/2021	10:43	-136.545	43.326	0	469.90	0	4.9400	0	37.6510	8	29.791	0	465.629	0	67.3	4	22.3	4	-1E+10	1	-1E+10	1	-1E+10	1	-1E+10	1	-1E+10	1	-1E+10	1
4901784	231	C	10/31/2021	10:43	-136.545	43.326	0	472.70	0	4.9130	0	37.6560	8	29.798	0	468.400	0	66.6	4	22.1	4	-1E+10	1	-1E+10	1	-1E+10	1	-1E+10	1	-1E+10	1	-1E+10	1
4901784	231	C	10/31/2021	10:43	-136.545	43.326	0	474.50	0	4.9040	0	37.6570	8	29.800	0	470.182	0	66.1	4	21.9	4	-1E+10	1	-1E+10	1	-1E+10	1	-1E+10	1	-1E+10	1	-1E+10	1
4901784	231	C	10/31/2021	10:43	-136.545	43.326	0	477.30	0	4.8850	0	37.6600	8	29.805	0	472.953	0	65.4	4	21.6	4	-1E+10	1	-1E+10	1	-1E+10	1	-1E+10	1	-1E+10	1	-1E+10	1
4901784	231	C	10/31/2021	10:43	-136.545	43.326	0	480.10	0	4.8670	0	37.6630	8	29.810	0	475.724	0	64.8	4	21.5	4	-1E+10	1	-1E+10	1	-1E+10	1	-1E+10	1	-1E+10	1	-1E+10	1
4901784	231	C	10/31/2021	10:43	-136.545	43.326	0	482.80	0	4.8590	0	37.6640	8	29.811	0	478.397	0	64.2	4	21.2	4	-1E+10	1	-1E+10	1	-1E+10	1	-1E+10	1	-1E+10	1	-1E+10	1
4901784	231	C	10/31/2021	10:43	-136.545	43.326	0	485.60	0	4.8490	0	37.6640	8	29.813	0	481.168	0	63.3	4	20.9	4	-1E+10	1	-1E+10	1	-1E+10	1	-1E+10	1	-1E+10	1	-1E+10	1
4901784	231	C	10/31/2021	10:43	-136.545	43.326	0	487.40	0	4.8220	0	37.6710	8	29.822	0	482.949	0	62.6	4	20.7	4	-1E+10	1	-1E+10	1	-1E+10	1	-1E+10	1	-1E+10	1	-1E+10	1
4901784	231	C	10/31/2021	10:43	-136.545	43.326	0	490.20	0	4.8110	0	37.6730	8	29.825	0	485.720	0	61.6	4	20.4	4	-1E+10	1	-1E+10	1	-1E+10	1	-1E+10	1	-1E+10	1	-1E+10	1
4901784	231	C	10/31/2021	10:43	-136.545	43.326	0	493.00	0	4.8020	0	37.6740	8	29.826	0	488.492	0	60.4	4	19.9	4	-1E+10	1	-1E+10	1	-1E+10	1	-1E+10	1	-1E+10	1	-1E+10	1
4901784	231	C	10/31/2021	10:43	-136.545	43.326	0	494.80	0	4.7930	0	37.6760	8	29.829	0	490.273	0	59.6	4	19.7	4	-1E+10	1	-1E+10	1	-1E+10	1	-1E+10	1	-1E+10	1	-1E+10	1
4901784	231	C	10/31/2021	10:43	-136.545	43.326	0	497.70	0	4.7650	0	37.6820	8	29.837	0	493.143	0	58.7	4	19.4	4	-1E+10	1	-1E+10	1	-1E+10	1	-1E+10	1	-1E+10	1	-1E+10	1
4901784	231	C	10/31/2021	10:43	-136.545	43.326	0	500.50	0	4.7430	0	37.6860	8	29.843	0	495.914	0	57.7	4	19.0	4	-1E+10	1	-1E+10	1	-1E+10	1	-1E+10	1	-1E+10	1	-1E+10	1
4901784	231	C	10/31/2021	10:43	-136.545	43.326	0	505.10	0	4.7230	0	37.6900	8	29.849	0	500.466	0	56.4	4	18.6	4	-1E+10	1	-1E+10	1	-1E+10	1	-1E+10	1	-1E+10	1	-1E+10	1
4901784	231	C	10/31/2021	10:43	-136.545	43.326	0	509.80	0	4.6990	0	37.6960	8	29.856	0	505.118	0	54.6	4	18.0	4	-1E+10	1	-1E+10	1	-1E+10	1	-1E+10	1	-1E+10	1	-1E+10	1
4901784	231	C	10/31/2021	10:43	-136.545	43.326	0	515.30	0	4.6750	0	37.7020	8	29.864	0	510.560	0	53.1	4	17.5	4	-1E+10	1	-1E+10	1	-1E+10	1	-1E+10	1	-1E+10	1	-1E+10	1
4901784	231	C	10/31/2021	10:43	-136.545	43.326	0	519.90	0	4.6450	0	37.7090	8	29.873	0	515.112	0	52.4	4	17.3	4	-1E+10	1	-1E+10	1	-1E+10	1	-1E+10	1	-1E+10	1	-1E+10	1
4901784	231	C	10/31/2021	10:43	-136.545	43.326	0	524.50	0	4.6300	0	37.7120	8	29.878	0	519.664	0	51.9	4	17.1	4	-1E+10	1	-1E+10	1	-1E+10	1	-1E+10	1	-1E+10	1	-1E+10	1
4901784	231	C	10/31/2021	10:43	-136.545	43.326	0	530.20	0	4.6060	0	37.7170	8	29.884	0	525.304	0	50.9	4	16.8	4	-1E+10	1	-1E+10	1	-1E+10	1	-1E+10	1	-1E+10	1	-1E+10	1
4901784	231	C	10/31/2021	10:43	-136.545	43.326	0	535.00	0	4.5930	0	37.7210	8	29.889	0	530.054	0	49.0	4	16.1	4	-1E+10	1	-1E+10	1	-1E+10	1	-1E+10	1	-1E+10	1	-1E+10	1
4901784	231	C	10/31/2021	10:43	-136.545	43.326	0	539.70	0	4.5760	0	37.7280	8	29.897	0	534.704	0	47.1	4	15.5	4	-1E+10	1	-1E+10	1	-1E+10	1	-1E+10	1	-1E+10	1	-1E+10	1
4901784	231	C	10/31/2021	10:43	-136.545	43.326	0	545.40	0	4.5590	0	37.7350	8	29.904	0	540.344	0	45.7	4	15.0	4	-1E+10	1	-1E+10	1	-1E+10	1	-1E+10	1	-1E+10	1	-1E+10	1
4901784	231	C	10/31/2021	10:43	-136.545	43.326	0	550.20	0	4.5470	0	37.7390	8	29.909	0	545.094	0	45.0	4	14.8	4	-1E+10	1	-1E+10	1	-1E+10	1	-1E+10	1	-1E+10	1	-1E+10	1
4901784	231	C	10/31/2021	10:43	-136.545	43.326	0	555.00	0	4.5340	0	37.7430	8	29.914	0	549.843	0	44.5	4	14.6	4	-1E+10	1	-1E+10	1	-1E+10	1	-1E+10	1	-1E+10	1	-1E+10	1
4901784	231	C	10/31/2021	10:43	-136.545	43.326	0	560.40	0	4.5180	0	37.7470	8	29.919	0	555.185	0	43.8	4	14.4	4	-1E+10	1	-1E+10	1	-1E+10	1	-1E+10	1	-1E+10	1	-1E+10	1
4901784	231	C	10/31/2021	10:43	-136.545	43.326	0	565.30	0	4.5140	0	37.7510	8	29.923	0	560.033	0	42.1	4	13.8	4	-1E+10	1	-1E+10	1	-1E+10	1	-1E+10	1	-1E+10	1	-1E+10	1
4901784	231	C	10/31/2021	10:43	-136.545	43.326	0	570.20	0	4.5050	0	37.7560	8	29.928	0	564.881	0	40.6	4	13.3	4	-1E+10	1	-1E+10	1	-1E+10	1	-1E+10	1	-1E+10	1	-1E+10	1
4901784	231	C	10/31/2021	10:43	-136.545	43.326	0	575.10	0	4.4860	0	37.7640	8	29.936	0	569.728	0	39.3	4	12.9	4	-1E+10	1	-1E+10	1	-1E+10	1	-1E+10	1	-1E+10	1	-1E+10	1
4901784	231	C	10/31/2021	10:43	-136.545	43.326	0	580.00	0	4.4710	0	37.7700	8	29.943	0	574.576	0	38.3	4	12.6	4	-1E+10	1	-1E+10	1	-1E+10	1	-1E+10	1	-1E+10	1	-1E+10	1
4901784	231	C	10/31/2021	10:43	-136.545	43.326	0	584.90	0	4.4440	0	37.7740	8	29.949	0	579.423	0	37.4	4	12.3	4	-1E+10	1	-1E+10	1	-1E+10	1	-1E+10	1	-1E+10	1	-1E+10	1
4901784	231	C	10/31/2021	10:43	-136.545	43.326	0	590.00	0	4.4360	0	37.7830	8	29.957	0	584.468	0	35.7	4	11.7	4	-1E+10	1	-1E+10	1	-1E+10	1	-1E+10	1	-1E+10	1	-1E+10	1
4901784	231	C	10/31/2021	10:43	-136.545	43.326	0	595.00	0	4.4300	0	37.7880	8	29.962	0	589.414	0	35.0	4	11.5	4	-1E+10	1	-1E+10	1	-1E+10	1	-1E+10	1	-1E+10	1	-1E+10	1
4901784	231	C	10/31/2021	10:43	-136.545	43.326	0	600.10	0	4.4080	0	37.7920	8	29.968	0	594.459	0	34.2	4	11.2	4	-1E+10	1	-1E+10	1	-1E+10	1	-1E+10	1	-1E+10	1	-1E+10	1
4901784	231	C	10/31/2021	10:43	-136.545	43.326	0	605.20	0	4.4020	0	37.7970	8	29.973	0	599.504	0	33.2	4	10.9	4	-1E+10	1	-1E+10	1	-1E+10	1	-1E+10	1	-1E+10	1	-1E+10	1
4901784	231	C	10/31/2021	10:43	-136.545	43.326	0	610.30	0	4.3790	0	37.8030	8	29.980	0	604.548	0	31.9	4	10.5	4	-1E+10	1	-1E+10	1	-1E+10	1	-1E+10	1	-1E+10	1	-1E+10	1
4901784	231	C	10/31/2021	10:43	-136.545	43.326	0	615.40	0	4.3610	0	37.8110	8	29.989	0	609.593	0	30.7	4	10.0	4	-1E+10	1	-1E+10	1	-1E+10	1	-1E+10	1	-1E+10	1	-1E+10	1
4901784	231	C	10/31/2021	10:43	-136.545	43.326	0	620.60	0	4.3500	0	37.8170	8	29.995	0	614.736	0	29.6	4	9.7	4	-1E+10	1	-1E+10	1	-1E+10	1	-1E+10	1	-1E+10	1	-1E+10	1
4901784	231	C	10/31/2021	10:43	-136.545	43.326	0	624.90	0	4.3420	0	37.8230	8	30.001	0	618.989	0	28.7	4	9.4	4	-1E+10	1	-1E+10	1	-1E+10	1	-1E+10	1	-1E+10	1	-1E+10	1
4901784	231	C	10/31/2021	10:43	-136.545	43.326	0	629.30	0	4.3340	0	37.8280	8	30.005	0	623.341	0	27.9	4	9.1	4	-1E+10	1	-1E+10	1	-1E+10	1	-1E+10	1	-1E+10	1	-1E+10	1
4901784	231	C	10/31/2021	10:43	-136.545	43.326	0	634.50	0	4.3230	0	37.8340	8	30.012	0	628.484	0	27.2	4	8.9	4	-1E+10	1	-1E+10	1	-1E+10	1	-1E+10	1	-1E+10	1	-1E+10	1
4901784	231	C	10/31/2021	10:43	-136.545	43.326	0	639.70	0	4.3050	0	37.8360	8	30.015	0	633.627	0	27.0	4	8.8	4	-1E+10	1	-1E+10	1	-1E+10	1	-1E+10	1	-1E+10	1	-1E+10	1
4901784	231	C	10/31/2021	10:43	-136.545	43.326	0	645.00	0	4.2810	0	37.8410	8	30.022	0	638.868	0	26.5	4	8.6	4	-1E+10	1	-1E+10	1	-1E+10	1	-1E+10	1	-1E+10	1	-1E+10	1
4901784	231	C	10/31/2021	10:43	-136.545	43.326	0	650.20	0	4.2700	0	37.8460	8	30.027	0	644.011	0	25.7	4	8.4	4	-1E+10	1	-1E+10	1	-1E+10	1	-1E+10	1	-1E+10	1	-1E+10	1
4901784	231	C	10/31/2021	10:43	-136.545	43.326	0	655.60	0	4.2590	0	37.8540	8	30.035	0	649.351	0	24.5	4	8.0	4	-1E+10	1	-1E+10	1	-1E+10	1	-1E+10	1	-1E+10	1	-1E+10	1
4901784	231	C	10/31/2021	10:43	-136.545	43.326	0	660.10	0	4.2440	0	37.8570	8	30.039	0	653.801	0	23.9	4	7.8	4	-1E+10	1	-1E+10	1	-1E+10	1	-1E+10	1	-1E+10	1	-1E+10	1
4901784	231	C	10/31/2021	10:43	-136.545	43.326	0	664.60	0	4.2340	0	37.8640	8	30.046	0	658.251	0	22.5	4	7.4	4	-1E+10	1	-1E+10	1	-1E+10	1	-1E+10	1	-1E+10	1	-1E+10	1
4901784	231	C	10/31/2021	10:43	-136.545	43.326	0	670.00	0	4.2330	0	37.8710	8	30.052	0	663.591	0	21.4	4	7.0	4	-1E+10	1	-1E+10	1	-1E+10	1	-1E+10	1	-1E+10	1	-1E+10	1
4901784	231	C	10/31/2021	10:43	-136.545	43.326	0	675.40	0	4.2170	0	37.8810	8	30.062	0	668.930	0	20.4	4	6.7	4	-1E+10	1	-1E+10	1	-1E+10	1	-1E+10	1	-1E+10	1	-1E+10	1
4901784	231	C	10/31/2021	10:43	-136.545	43.326	0	680.00	0	4.2100	0	37.8850	8	30.066	0	673.479	0	20.0	4	6.5	4	-1E+10	1	-1E+10	1	-1E+10	1	-1E+10	1	-1E+10	1	-1E+10	1
4901784	231	C	10/31/2021	10:43	-136.545	43.326	0	684.60	0	4.1990	0	37.8900	8	30.071	0	678.027	0	19.7	4	6.4	4	-1E+10	1	-1E+10	1	-1E+10	1	-1E+10	1	-1E+10	1	-1E+10	1
4901784	231	C	10/31/2021	10:43	-136.545	43.326	0	690.20	0	4.1860	0	37.8940	8	30.076	0	683.564	0	19.1	4	6.2	4	-1E+10	1	-1E+10	1	-1E+10	1	-1E+10	1	-1E+10	1	-1E+10	1
4901784	231	C	10/31/2021	10:43	-136.545	43.326	0	695.50	0	4.1710	0	37.9020	8	30.084	0	688.805	0	18.4	4	6.0	4	-1E+10	1	-1E+10	1	-1E+10	1	-1E+10	1	-1E+10	1	-1E+10	1
4901784	231	C	10/31/2021	10:43	-136.545	43.326	0	700.30	0	4.1630	0	37.9070	8	30.089	0	693.551	0	17.9	4	5.8	4	-1E+10	1	-1E+10	1	-1E+10	1	-1E+10	1	-1E+10	1	-1E+10	1
4901784	231	C	10/31/2021	10:43	-136.545	43.326	0	705.10	0	4.1490	0	37.9140	8	30.096	0	698.296	0	17.3	4	5.6	4	-1E+10	1	-1E+10	1	-1E+10	1	-1E+10	1	-1E+10	1	-1E+10	1
4901784	231	C	10/31/2021	10:43	-136.545	43.326	0	710.00	0	4.1380	0	37.9200	8	30.102	0	703.141	0	16.9	4	5.5	4	-1E+10	1	-1E+10	1	-1E+10	1	-1E+10	1	-1E+10	1	-1E+10	1
4901784	231	C	10/31/2021	10:43	-136.545	43.326	0	714.80	0	4.1390	0	37.9250	8	30.106	0	707.886	0	16.5	4	5.4	4	-1E+10	1	-1E+10	1	-1E+10	1	-1E+10	1	-1E+10	1	-1E+10	1
4901784	231	C	10/31/2021	10:43	-136.545	43.326	0	719.70	0	4.1310	0	37.9280	8	30.109	0	712.730	0	16.2	4	5.3	4	-1E+10	1	-1E+10	1	-1E+10	1	-1E+10	1	-1E+10	1	-1E+10	1
4901784	231	C	10/31/2021	10:43	-136.545	43.326	0	724.60	0	4.1310	0	37.9310	8	30.112	0	717.575	0	16.0	4	5.2	4	-1E+10	1	-1E+10	1	-1E+10	1	-1E+10	1	-1E+10	1	-1E+10	1
4901784	231	C	10/31/2021	10:43	-136.545	43.326	0	729.60	0	4.1030	0	37.9330	8	30.116	0	722.517	0	15.8	4	5.1	4	-1E+10	1	-1E+10	1	-1E+10	1	-1E+10	1	-1E+10	1	-1E+10	1
4901784	231	C	10/31/2021	10:43	-136.545	43.326	0	734.50	0	4.0930	0	37.9420	8	30.125	0	727.361	0	15.2	4	4.9	4	-1E+10	1	-1E+10	1	-1E+10	1	-1E+10	1	-1E+10	1	-1E+10	1
4901784	231	C	10/31/2021	10:43	-136.545	43.326	0	739.60	0	4.0860	0	37.9470	8	30.130	0	732.403	0	14.9	4	4.8	4	-1E+10	1	-1E+10	1	-1E+10	1	-1E+10	1	-1E+10	1	-1E+10	1
4901784	231	C	10/31/2021	10:43	-136.545	43.326	0	744.60	0	4.0820	0	37.9510	8	30.133	0	737.345	0	14.6	4	4.7	4	-1E+10	1	-1E+10	1	-1E+10	1	-1E+10	1	-1E+10	1	-1E+10	1
4901784	231	C	10/31/2021	10:43	-136.545	43.326	0	749.70	0	4.0700	0	37.9550	8	30.138	0	742.387	0	14.3	4	4.7	4	-1E+10	1	-1E+10	1	-1E+10	1	-1E+10	1	-1E+10	1	-1E+10	1
4901784	231	C	10/31/2021	10:43	-136.545	43.326	0	754.80	0	4.0540	0	37.9610	8	30.144	0	747.428	0	14.1	4	4.6	4	-1E+10	1	-1E+10	1	-1E+10	1	-1E+10	1	-1E+10	1	-1E+10	1
4901784	231	C	10/31/2021	10:43	-136.545	43.326	0	760.00	0	4.0390	0	37.9640	8	30.149	0	752.568	0	13.9	4	4.5	4	-1E+10	1	-1E+10	1	-1E+10	1	-1E+10	1	-1E+10	1	-1E+10	1
4901784	231	C	10/31/2021	10:43	-136.545	43.326	0	765.20	0	4.0140	0	37.9700	8	30.156	0	757.707	0	13.7	4	4.5	4	-1E+10	1	-1E+10	1	-1E+10	1	-1E+10	1	-1E+10	1	-1E+10	1
4901784	231	C	10/31/2021	10:43	-136.545	43.326	0	770.30	0	3.9950	0	37.9750	8	30.162	0	762.748	0	13.5	4	4.4	4	-1E+10	1	-1E+10	1	-1E+10	1	-1E+10	1	-1E+10	1	-1E+10	1
4901784	231	C	10/31/2021	10:43	-136.545	43.326	0	775.50	0	3.9860	0	37.9790	8	30.167	0	767.887	0	13.2	4	4.3	4	-1E+10	1	-1E+10	1	-1E+10	1	-1E+10	1	-1E+10	1	-1E+10	1
4901784	231	C	10/31/2021	10:43	-136.545	43.326	0	779.90	0	3.9940	0	37.9840	8	30.170	0	772.236	0	12.8	4	4.2	4	-1E+10	1	-1E+10	1	-1E+10	1	-1E+10	1	-1E+10	1	-1E+10	1
4901784	231	C	10/31/2021	10:43	-136.545	43.326	0	784.30	0	3.9930	0	37.9880	8	30.173	0	776.585	0	12.7	4	4.1	4	-1E+10	1	-1E+10	1	-1E+10	1	-1E+10	1	-1E+10	1	-1E+10	1
4901784	231	C	10/31/2021	10:43	-136.545	43.326	0	789.60	0	3.9680	0	37.9920	8	30.179	0	781.823	0	12.6	4	4.1	4	-1E+10	1	-1E+10	1	-1E+10	1	-1E+10	1	-1E+10	1	-1E+10	1
4901784	231	C	10/31/2021	10:43	-136.545	43.326	0	794.90	0	3.9540	0	37.9970	8	30.185	0	787.060	0	12.4	4	4.0	4	-1E+10	1	-1E+10	1	-1E+10	1	-1E+10	1	-1E+10	1	-1E+10	1
4901784	231	C	10/31/2021	10:43	-136.545	43.326	0	800.20	0	3.9440	0	38.0010	8	30.189	0	792.298	0	12.2	4	4.0	4	-1E+10	1	-1E+10	1	-1E+10	1	-1E+10	1	-1E+10	1	-1E+10	1
4901784	231	C	10/31/2021	10:43	-136.545	43.326	0	805.50	0	3.9190	0	38.0060	8	30.196	0	797.536	0	12.0	4	3.9	4	-1E+10	1	-1E+10	1	-1E+10	1	-1E+10	1	-1E+10	1	-1E+10	1
4901784	231	C	10/31/2021	10:43	-136.545	43.326	0	810.00	0	3.9330	0	38.0120	8	30.199	0	801.983	0	11.7	4	3.8	4	-1E+10	1	-1E+10	1	-1E+10	1	-1E+10	1	-1E+10	1	-1E+10	1
4901784	231	C	10/31/2021	10:43	-136.545	43.326	0	814.50	0	3.9290	0	38.0160	8	30.203	0	806.429	0	11.5	4	3.7	4	-1E+10	1	-1E+10	1	-1E+10	1	-1E+10	1	-1E+10	1	-1E+10	1
4901784	231	C	10/31/2021	10:43	-136.545	43.326	0	819.90	0	3.9140	0	38.0210	8	30.209	0	811.765	0	11.3	4	3.7	4	-1E+10	1	-1E+10	1	-1E+10	1	-1E+10	1	-1E+10	1	-1E+10	1
4901784	231	C	10/31/2021	10:43	-136.545	43.326	0	825.40	0	3.9020	0	38.0280	8	30.216	0	817.200	0	11.2	4	3.6	4	-1E+10	1	-1E+10	1	-1E+10	1	-1E+10	1	-1E+10	1	-1E+10	1
4901784	231	C	10/31/2021	10:43	-136.545	43.326	0	829.90	0	3.8980	0	38.0310	8	30.218	0	821.646	0	11.1	4	3.6	4	-1E+10	1	-1E+10	1	-1E+10	1	-1E+10	1	-1E+10	1	-1E+10	1
4901784	231	C	10/31/2021	10:43	-136.545	43.326	0	834.50	0	3.8850	0	38.0320	8	30.221	0	826.192	0	11.2	4	3.6	4	-1E+10	1	-1E+10	1	-1E+10	1	-1E+10	1	-1E+10	1	-1E+10	1
4901784	231	C	10/31/2021	10:43	-136.545	43.326	0	840.00	0	3.8580	0	38.0350	8	30.226	0	831.626	0	11.1	4	3.6	4	-1E+10	1	-1E+10	1	-1E+10	1	-1E+10	1	-1E+10	1	-1E+10	1
4901784	231	C	10/31/2021	10:43	-136.545	43.326	0	845.50	0	3.8490	0	38.0380	8	30.230	0	837.060	0	11.0	4	3.6	4	-1E+10	1	-1E+10	1	-1E+10	1	-1E+10	1	-1E+10	1	-1E+10	1
4901784	231	C	10/31/2021	10:43	-136.545	43.326	0	850.20	0	3.8530	0	38.0430	8	30.233	0	841.704	0	10.8	4	3.5	4	-1E+10	1	-1E+10	1	-1E+10	1	-1E+10	1	-1E+10	1	-1E+10	1
4901784	231	C	10/31/2021	10:43	-136.545	43.326	0	854.80	0	3.8530	0	38.0460	8	30.236	0	846.248	0	10.8	4	3.5	4	-1E+10	1	-1E+10	1	-1E+10	1	-1E+10	1	-1E+10	1	-1E+10	1
4901784	231	C	10/31/2021	10:43	-136.545	43.326	0	860.30	0	3.8350	0	38.0490	8	30.240	0	851.682	0	10.8	4	3.5	4	-1E+10	1	-1E+10	1	-1E+10	1	-1E+10	1	-1E+10	1	-1E+10	1
4901784	231	C	10/31/2021	10:43	-136.545	43.326	0	865.10	0	3.8250	0	38.0520	8	30.243	0	856.424	0	10.8	4	3.5	4	-1E+10	1	-1E+10	1	-1E+10	1	-1E+10	1	-1E+10	1	-1E+10	1
4901784	231	C	10/31/2021	10:43	-136.545	43.326	0	869.70	0	3.7890	0	38.0500	8	30.246	0	860.969	0	10.9	4	3.5	4	-1E+10	1	-1E+10	1	-1E+10	1	-1E+10	1	-1E+10	1	-1E+10	1
4901784	231	C	10/31/2021	10:43	-136.545	43.326	0	874.40	0	3.7570	0	38.0520	8	30.251	0	865.612	0	11.0	4	3.5	4	-1E+10	1	-1E+10	1	-1E+10	1	-1E+10	1	-1E+10	1	-1E+10	1
4901784	231	C	10/31/2021	10:43	-136.545	43.326	0	879.10	0	3.7430	0	38.0560	8	30.256	0	870.255	0	10.9	4	3.5	4	-1E+10	1	-1E+10	1	-1E+10	1	-1E+10	1	-1E+10	1	-1E+10	1
4901784	231	C	10/31/2021	10:43	-136.545	43.326	0	884.50	0	3.7150	0	38.0620	8	30.264	0	875.589	0	10.8	4	3.5	4	-1E+10	1	-1E+10	1	-1E+10	1	-1E+10	1	-1E+10	1	-1E+10	1
4901784	231	C	10/31/2021	10:43	-136.545	43.326	0	889.40	0	3.7030	0	38.0690	8	30.271	0	880.429	0	10.5	4	3.4	4	-1E+10	1	-1E+10	1	-1E+10	1	-1E+10	1	-1E+10	1	-1E+10	1
4901784	231	C	10/31/2021	10:43	-136.545	43.326	0	894.30	0	3.7260	0	38.0760	8	30.274	0	885.270	0	10.3	4	3.3	4	-1E+10	1	-1E+10	1	-1E+10	1	-1E+10	1	-1E+10	1	-1E+10	1
4901784	231	C	10/31/2021	10:43	-136.545	43.326	0	900.00	0	3.7250	0	38.0820	8	30.279	0	890.900	0	10.3	4	3.3	4	-1E+10	1	-1E+10	1	-1E+10	1	-1E+10	1	-1E+10	1	-1E+10	1
4901784	231	C	10/31/2021	10:43	-136.545	43.326	0	905.80	0	3.7050	0	38.0850	8	30.283	0	896.629	0	10.2	4	3.3	4	-1E+10	1	-1E+10	1	-1E+10	1	-1E+10	1	-1E+10	1	-1E+10	1
4901784	231	C	10/31/2021	10:43	-136.545	43.326	0	910.80	0	3.7120	0	38.0880	8	30.285	0	901.568	0	10.2	4	3.3	4	-1E+10	1	-1E+10	1	-1E+10	1	-1E+10	1	-1E+10	1	-1E+10	1
4901784	231	C	10/31/2021	10:43	-136.545	43.326	0	915.80	0	3.6730	0	38.0870	8	30.288	0	906.506	0	10.4	4	3.4	4	-1E+10	1	-1E+10	1	-1E+10	1	-1E+10	1	-1E+10	1	-1E+10	1
4901784	231	C	10/31/2021	10:43	-136.545	43.326	0	920.80	0	3.6490	0	38.0890	8	30.293	0	911.444	0	10.4	4	3.3	4	-1E+10	1	-1E+10	1	-1E+10	1	-1E+10	1	-1E+10	1	-1E+10	1
4901784	231	C	10/31/2021	10:43	-136.545	43.326	0	925.80	0	3.6430	0	38.0930	8	30.297	0	916.383	0	10.3	4	3.3	4	-1E+10	1	-1E+10	1	-1E+10	1	-1E+10	1	-1E+10	1	-1E+10	1
4901784	231	C	10/31/2021	10:43	-136.545	43.326	0	930.80	0	3.6450	0	38.0990	8	30.301	0	921.321	0	10.1	4	3.3	4	-1E+10	1	-1E+10	1	-1E+10	1	-1E+10	1	-1E+10	1	-1E+10	1
4901784	231	C	10/31/2021	10:43	-136.545	43.326	0	935.80	0	3.6570	0	38.1060	8	30.305	0	926.259	0	10.0	4	3.2	4	-1E+10	1	-1E+10	1	-1E+10	1	-1E+10	1	-1E+10	1	-1E+10	1
4901784	231	C	10/31/2021	10:43	-136.545	43.326	0	940.00	0	3.6530	0	38.1090	8	30.308	0	930.407	0	10.1	4	3.2	4	-1E+10	1	-1E+10	1	-1E+10	1	-1E+10	1	-1E+10	1	-1E+10	1
4901784	231	C	10/31/2021	10:43	-136.545	43.326	0	944.30	0	3.6410	0	38.1100	8	30.310	0	934.653	0	10.1	4	3.2	4	-1E+10	1	-1E+10	1	-1E+10	1	-1E+10	1	-1E+10	1	-1E+10	1
4901784	231	C	10/31/2021	10:43	-136.545	43.326	0	949.30	0	3.6200	0	38.1090	8	30.312	0	939.591	0	10.2	4	3.3	4	-1E+10	1	-1E+10	1	-1E+10	1	-1E+10	1	-1E+10	1	-1E+10	1
4901784	231	C	10/31/2021	10:43	-136.545	43.326	0	954.40	0	3.6080	0	38.1110	8	30.315	0	944.627	0	10.1	4	3.3	4	-1E+10	1	-1E+10	1	-1E+10	1	-1E+10	1	-1E+10	1	-1E+10	1
4901784	231	C	10/31/2021	10:43	-136.545	43.326	0	959.70	0	3.5730	0	38.1140	8	30.321	0	949.861	0	10.2	4	3.3	4	-1E+10	1	-1E+10	1	-1E+10	1	-1E+10	1	-1E+10	1	-1E+10	1
4901784	231	C	10/31/2021	10:43	-136.545	43.326	0	964.90	0	3.5630	0	38.1190	8	30.326	0	954.996	0	10.1	4	3.3	4	-1E+10	1	-1E+10	1	-1E+10	1	-1E+10	1	-1E+10	1	-1E+10	1
4901784	231	C	10/31/2021	10:43	-136.545	43.326	0	970.10	0	3.5780	0	38.1260	8	30.330	0	960.130	0	10.0	4	3.2	4	-1E+10	1	-1E+10	1	-1E+10	1	-1E+10	1	-1E+10	1	-1E+10	1
4901784	231	C	10/31/2021	10:43	-136.545	43.326	0	975.30	0	3.5740	0	38.1320	8	30.335	0	965.265	0	10.0	4	3.2	4	-1E+10	1	-1E+10	1	-1E+10	1	-1E+10	1	-1E+10	1	-1E+10	1
4901784	231	C	10/31/2021	10:43	-136.545	43.326	0	980.50	0	3.5530	0	38.1380	8	30.343	0	970.400	0	10.0	4	3.2	4	-1E+10	1	-1E+10	1	-1E+10	1	-1E+10	1	-1E+10	1	-1E+10	1
4901784	231	C	10/31/2021	10:43	-136.545	43.326	0	985.70	0	3.5500	0	38.1430	8	30.347	0	975.534	0	10.0	4	3.2	4	-1E+10	1	-1E+10	1	-1E+10	1	-1E+10	1	-1E+10	1	-1E+10	1
4901784	231	C	10/31/2021	10:43	-136.545	43.326	0	990.10	0	3.5470	0	38.1460	8	30.350	0	979.878	0	10.0	4	3.2	4	-1E+10	1	-1E+10	1	-1E+10	1	-1E+10	1	-1E+10	1	-1E+10	1
4901784	231	C	10/31/2021	10:43	-136.545	43.326	0	994.40	0	3.5330	0	38.1480	8	30.353	0	984.124	0	10.0	4	3.2	4	-1E+10	1	-1E+10	1	-1E+10	1	-1E+10	1	-1E+10	1	-1E+10	1
4901784	231	C	10/31/2021	10:43	-136.545	43.326	0	999.70	0	3.5260	0	38.1520	8	30.357	0	989.356	0	10.1	4	3.2	4	-1E+10	1	-1E+10	1	-1E+10	1	-1E+10	1	-1E+10	1	-1E+10	1
4901784	231	C	10/31/2021	10:43	-136.545	43.326	0	1005.10	0	3.5180	0	38.1560	8	30.361	0	994.688	0	10.1	4	3.2	4	-1E+10	1	-1E+10	1	-1E+10	1	-1E+10	1	-1E+10	1	-1E+10	1
4901784	231	C	10/31/2021	10:43	-136.545	43.326	0	1010.50	0	3.5100	0	38.1590	8	30.364	0	1000.019	0	10.1	4	3.3	4	-1E+10	1	-1E+10	1	-1E+10	1	-1E+10	1	-1E+10	1	-1E+10	1
4901784	231	C	10/31/2021	10:43	-136.545	43.326	0	1015.00	0	3.5000	0	38.1610	8	30.367	0	1004.462	0	10.2	4	3.3	4	-1E+10	1	-1E+10	1	-1E+10	1	-1E+10	1	-1E+10	1	-1E+10	1
4901784	231	C	10/31/2021	10:43	-136.545	43.326	0	1019.40	0	3.4870	0	38.1620	8	30.369	0	1008.805	0	10.2	4	3.3	4	-1E+10	1	-1E+10	1	-1E+10	1	-1E+10	1	-1E+10	1	-1E+10	1
4901784	231	C	10/31/2021	10:43	-136.545	43.326	0	1024.90	0	3.4480	0	38.1620	8	30.373	0	1014.235	0	10.3	4	3.3	4	-1E+10	1	-1E+10	1	-1E+10	1	-1E+10	1	-1E+10	1	-1E+10	1
4901784	231	C	10/31/2021	10:43	-136.545	43.326	0	1030.30	0	3.4180	0	38.1660	8	30.380	0	1019.566	0	10.4	4	3.3	4	-1E+10	1	-1E+10	1	-1E+10	1	-1E+10	1	-1E+10	1	-1E+10	1
4901784	231	C	10/31/2021	10:43	-136.545	43.326	0	1034.90	0	3.4030	0	38.1700	8	30.384	0	1024.106	0	10.4	4	3.3	4	-1E+10	1	-1E+10	1	-1E+10	1	-1E+10	1	-1E+10	1	-1E+10	1
4901784	231	C	10/31/2021	10:43	-136.545	43.326	0	1039.40	0	3.4150	0	38.1750	8	30.387	0	1028.548	0	10.5	4	3.4	4	-1E+10	1	-1E+10	1	-1E+10	1	-1E+10	1	-1E+10	1	-1E+10	1
4901784	231	C	10/31/2021	10:43	-136.545	43.326	0	1044.90	0	3.4060	0	38.1790	8	30.391	0	1033.977	0	10.5	4	3.4	4	-1E+10	1	-1E+10	1	-1E+10	1	-1E+10	1	-1E+10	1	-1E+10	1
4901784	231	C	10/31/2021	10:43	-136.545	43.326	0	1050.30	0	3.3950	0	38.1810	8	30.394	0	1039.308	0	10.6	4	3.4	4	-1E+10	1	-1E+10	1	-1E+10	1	-1E+10	1	-1E+10	1	-1E+10	1
4901784	231	C	10/31/2021	10:43	-136.545	43.326	0	1054.90	0	3.3910	0	38.1850	8	30.398	0	1043.848	0	10.6	4	3.4	4	-1E+10	1	-1E+10	1	-1E+10	1	-1E+10	1	-1E+10	1	-1E+10	1
4901784	231	C	10/31/2021	10:43	-136.545	43.326	0	1059.50	0	3.3810	0	38.1880	8	30.401	0	1048.388	0	10.7	4	3.4	4	-1E+10	1	-1E+10	1	-1E+10	1	-1E+10	1	-1E+10	1	-1E+10	1
4901784	231	C	10/31/2021	10:43	-136.545	43.326	0	1065.10	0	3.3750	0	38.1890	8	30.403	0	1053.915	0	10.7	4	3.4	4	-1E+10	1	-1E+10	1	-1E+10	1	-1E+10	1	-1E+10	1	-1E+10	1
4901784	231	C	10/31/2021	10:43	-136.545	43.326	0	1070.60	0	3.3640	0	38.1930	8	30.407	0	1059.344	0	10.9	4	3.5	4	-1E+10	1	-1E+10	1	-1E+10	1	-1E+10	1	-1E+10	1	-1E+10	1
4901784	231	C	10/31/2021	10:43	-136.545	43.326	0	1075.30	0	3.3550	0	38.1960	8	30.411	0	1063.983	0	10.9	4	3.5	4	-1E+10	1	-1E+10	1	-1E+10	1	-1E+10	1	-1E+10	1	-1E+10	1
4901784	231	C	10/31/2021	10:43	-136.545	43.326	0	1079.90	0	3.3470	0	38.1990	8	30.414	0	1068.522	0	11.0	4	3.5	4	-1E+10	1	-1E+10	1	-1E+10	1	-1E+10	1	-1E+10	1	-1E+10	1
4901784	231	C	10/31/2021	10:43	-136.545	43.326	0	1084.60	0	3.3360	0	38.2010	8	30.417	0	1073.161	0	11.1	4	3.6	4	-1E+10	1	-1E+10	1	-1E+10	1	-1E+10	1	-1E+10	1	-1E+10	1
4901784	231	C	10/31/2021	10:43	-136.545	43.326	0	1089.20	0	3.3240	0	38.2050	8	30.421	0	1077.701	0	11.2	4	3.6	4	-1E+10	1	-1E+10	1	-1E+10	1	-1E+10	1	-1E+10	1	-1E+10	1
4901784	231	C	10/31/2021	10:43	-136.545	43.326	0	1094.60	0	3.3200	0	38.2080	8	30.424	0	1083.030	0	11.3	4	3.6	4	-1E+10	1	-1E+10	1	-1E+10	1	-1E+10	1	-1E+10	1	-1E+10	1
4901784	231	C	10/31/2021	10:43	-136.545	43.326	0	1099.50	0	3.3100	0	38.2110	8	30.427	0	1087.865	0	11.4	4	3.7	4	-1E+10	1	-1E+10	1	-1E+10	1	-1E+10	1	-1E+10	1	-1E+10	1
4901784	231	C	10/31/2021	10:43	-136.545	43.326	0	1104.40	0	3.3020	0	38.2140	8	30.431	0	1092.701	0	11.5	4	3.7	4	-1E+10	1	-1E+10	1	-1E+10	1	-1E+10	1	-1E+10	1	-1E+10	1
4901784	231	C	10/31/2021	10:43	-136.545	43.326	0	1109.40	0	3.2950	0	38.2150	8	30.432	0	1097.635	0	11.6	4	3.7	4	-1E+10	1	-1E+10	1	-1E+10	1	-1E+10	1	-1E+10	1	-1E+10	1
4901784	231	C	10/31/2021	10:43	-136.545	43.326	0	1114.90	0	3.2810	0	38.2180	8	30.436	0	1103.062	0	11.7	4	3.7	4	-1E+10	1	-1E+10	1	-1E+10	1	-1E+10	1	-1E+10	1	-1E+10	1
4901784	231	C	10/31/2021	10:43	-136.545	43.326	0	1120.40	0	3.2720	0	38.2210	8	30.440	0	1108.489	0	11.8	4	3.8	4	-1E+10	1	-1E+10	1	-1E+10	1	-1E+10	1	-1E+10	1	-1E+10	1
4901784	231	C	10/31/2021	10:43	-136.545	43.326	0	1125.00	0	3.2640	0	38.2230	8	30.442	0	1113.028	0	11.9	4	3.8	4	-1E+10	1	-1E+10	1	-1E+10	1	-1E+10	1	-1E+10	1	-1E+10	1
4901784	231	C	10/31/2021	10:43	-136.545	43.326	0	1129.60	0	3.2550	0	38.2250	8	30.445	0	1117.567	0	12.0	4	3.8	4	-1E+10	1	-1E+10	1	-1E+10	1	-1E+10	1	-1E+10	1	-1E+10	1
4901784	231	C	10/31/2021	10:43	-136.545	43.326	0	1135.20	0	3.2450	0	38.2270	8	30.447	0	1123.092	0	12.1	4	3.9	4	-1E+10	1	-1E+10	1	-1E+10	1	-1E+10	1	-1E+10	1	-1E+10	1
4901784	231	C	10/31/2021	10:43	-136.545	43.326	0	1139.80	0	3.2330	0	38.2300	8	30.451	0	1127.631	0	12.2	4	3.9	4	-1E+10	1	-1E+10	1	-1E+10	1	-1E+10	1	-1E+10	1	-1E+10	1
4901784	231	C	10/31/2021	10:43	-136.545	43.326	0	1144.50	0	3.2210	0	38.2330	8	30.455	0	1132.268	0	12.3	4	3.9	4	-1E+10	1	-1E+10	1	-1E+10	1	-1E+10	1	-1E+10	1	-1E+10	1
4901784	231	C	10/31/2021	10:43	-136.545	43.326	0	1150.60	0	3.2090	0	38.2360	8	30.458	0	1138.286	0	12.5	4	4.0	4	-1E+10	1	-1E+10	1	-1E+10	1	-1E+10	1	-1E+10	1	-1E+10	1
4901784	231	C	10/31/2021	10:43	-136.545	43.326	0	1155.30	0	3.1990	0	38.2380	8	30.461	0	1142.923	0	12.6	4	4.0	4	-1E+10	1	-1E+10	1	-1E+10	1	-1E+10	1	-1E+10	1	-1E+10	1
4901784	231	C	10/31/2021	10:43	-136.545	43.326	0	1160.10	0	3.1850	0	38.2410	8	30.465	0	1147.658	0	12.7	4	4.1	4	-1E+10	1	-1E+10	1	-1E+10	1	-1E+10	1	-1E+10	1	-1E+10	1
4901784	231	C	10/31/2021	10:43	-136.545	43.326	0	1164.90	0	3.1740	0	38.2440	8	30.468	0	1152.394	0	12.9	4	4.1	4	-1E+10	1	-1E+10	1	-1E+10	1	-1E+10	1	-1E+10	1	-1E+10	1
4901784	231	C	10/31/2021	10:43	-136.545	43.326	0	1169.80	0	3.1630	0	38.2470	8	30.472	0	1157.228	0	13.0	4	4.2	4	-1E+10	1	-1E+10	1	-1E+10	1	-1E+10	1	-1E+10	1	-1E+10	1
4901784	231	C	10/31/2021	10:43	-136.545	43.326	0	1174.80	0	3.1500	0	38.2500	8	30.476	0	1162.160	0	13.1	4	4.2	4	-1E+10	1	-1E+10	1	-1E+10	1	-1E+10	1	-1E+10	1	-1E+10	1
4901784	231	C	10/31/2021	10:43	-136.545	43.326	0	1179.80	0	3.1390	0	38.2520	8	30.479	0	1167.092	0	13.2	4	4.2	4	-1E+10	1	-1E+10	1	-1E+10	1	-1E+10	1	-1E+10	1	-1E+10	1
4901784	231	C	10/31/2021	10:43	-136.545	43.326	0	1184.80	0	3.1310	0	38.2530	8	30.480	0	1172.025	0	13.3	4	4.3	4	-1E+10	1	-1E+10	1	-1E+10	1	-1E+10	1	-1E+10	1	-1E+10	1
4901784	231	C	10/31/2021	10:43	-136.545	43.326	0	1189.80	0	3.1200	0	38.2560	8	30.484	0	1176.957	0	13.5	4	4.3	4	-1E+10	1	-1E+10	1	-1E+10	1	-1E+10	1	-1E+10	1	-1E+10	1
4901784	231	C	10/31/2021	10:43	-136.545	43.326	0	1194.90	0	3.1090	0	38.2580	8	30.486	0	1181.987	0	13.6	4	4.3	4	-1E+10	1	-1E+10	1	-1E+10	1	-1E+10	1	-1E+10	1	-1E+10	1
4901784	231	C	10/31/2021	10:43	-136.545	43.326	0	1200.00	0	3.1000	0	38.2600	8	30.489	0	1187.018	0	13.8	4	4.4	4	-1E+10	1	-1E+10	1	-1E+10	1	-1E+10	1	-1E+10	1	-1E+10	1
4901784	231	C	10/31/2021	10:43	-136.545	43.326	0	1205.20	0	3.0900	0	38.2630	8	30.492	0	1192.147	0	13.9	4	4.4	4	-1E+10	1	-1E+10	1	-1E+10	1	-1E+10	1	-1E+10	1	-1E+10	1
4901784	231	C	10/31/2021	10:43	-136.545	43.326	0	1210.40	0	3.0820	0	38.2650	8	30.495	0	1197.276	0	14.1	4	4.5	4	-1E+10	1	-1E+10	1	-1E+10	1	-1E+10	1	-1E+10	1	-1E+10	1
4901784	231	C	10/31/2021	10:43	-136.545	43.326	0	1215.70	0	3.0730	0	38.2670	8	30.497	0	1202.503	0	14.2	4	4.5	4	-1E+10	1	-1E+10	1	-1E+10	1	-1E+10	1	-1E+10	1	-1E+10	1
4901784	231	C	10/31/2021	10:43	-136.545	43.326	0	1220.10	0	3.0640	0	38.2690	8	30.500	0	1206.843	0	14.3	4	4.6	4	-1E+10	1	-1E+10	1	-1E+10	1	-1E+10	1	-1E+10	1	-1E+10	1
4901784	231	C	10/31/2021	10:43	-136.545	43.326	0	1224.50	0	3.0540	0	38.2710	8	30.503	0	1211.182	0	14.4	4	4.6	4	-1E+10	1	-1E+10	1	-1E+10	1	-1E+10	1	-1E+10	1	-1E+10	1
4901784	231	C	10/31/2021	10:43	-136.545	43.326	0	1229.80	0	3.0460	0	38.2730	8	30.505	0	1216.409	0	14.6	4	4.6	4	-1E+10	1	-1E+10	1	-1E+10	1	-1E+10	1	-1E+10	1	-1E+10	1
4901784	231	C	10/31/2021	10:43	-136.545	43.326	0	1235.10	0	3.0370	0	38.2750	8	30.508	0	1221.636	0	14.8	4	4.7	4	-1E+10	1	-1E+10	1	-1E+10	1	-1E+10	1	-1E+10	1	-1E+10	1
4901784	231	C	10/31/2021	10:43	-136.545	43.326	0	1240.40	0	3.0230	0	38.2780	8	30.512	0	1226.863	0	14.9	4	4.8	4	-1E+10	1	-1E+10	1	-1E+10	1	-1E+10	1	-1E+10	1	-1E+10	1
4901784	231	C	10/31/2021	10:43	-136.545	43.326	0	1245.40	0	3.0150	0	38.2800	8	30.514	0	1231.794	0	15.1	4	4.8	4	-1E+10	1	-1E+10	1	-1E+10	1	-1E+10	1	-1E+10	1	-1E+10	1
4901784	231	C	10/31/2021	10:43	-136.545	43.326	0	1250.30	0	3.0080	0	38.2820	8	30.516	0	1236.626	0	15.2	4	4.8	4	-1E+10	1	-1E+10	1	-1E+10	1	-1E+10	1	-1E+10	1	-1E+10	1
4901784	231	C	10/31/2021	10:43	-136.545	43.326	0	1255.40	0	2.9990	0	38.2830	8	30.518	0	1241.655	0	15.3	4	4.9	4	-1E+10	1	-1E+10	1	-1E+10	1	-1E+10	1	-1E+10	1	-1E+10	1
4901784	231	C	10/31/2021	10:43	-136.545	43.326	0	1260.40	0	2.9900	0	38.2850	8	30.521	0	1246.586	0	15.4	4	4.9	4	-1E+10	1	-1E+10	1	-1E+10	1	-1E+10	1	-1E+10	1	-1E+10	1
4901784	231	C	10/31/2021	10:43	-136.545	43.326	0	1265.50	0	2.9800	0	38.2870	8	30.523	0	1251.615	0	15.6	4	5.0	4	-1E+10	1	-1E+10	1	-1E+10	1	-1E+10	1	-1E+10	1	-1E+10	1
4901784	231	C	10/31/2021	10:43	-136.545	43.326	0	1270.60	0	2.9700	0	38.2890	8	30.526	0	1256.643	0	15.8	4	5.0	4	-1E+10	1	-1E+10	1	-1E+10	1	-1E+10	1	-1E+10	1	-1E+10	1
4901784	231	C	10/31/2021	10:43	-136.545	43.326	0	1275.70	0	2.9560	0	38.2920	8	30.530	0	1261.672	0	15.9	4	5.1	4	-1E+10	1	-1E+10	1	-1E+10	1	-1E+10	1	-1E+10	1	-1E+10	1
4901784	231	C	10/31/2021	10:43	-136.545	43.326	0	1280.00	0	2.9500	0	38.2930	8	30.531	0	1265.912	0	16.0	4	5.1	4	-1E+10	1	-1E+10	1	-1E+10	1	-1E+10	1	-1E+10	1	-1E+10	1
4901784	231	C	10/31/2021	10:43	-136.545	43.326	0	1284.30	0	2.9430	0	38.2940	8	30.533	0	1270.152	0	16.2	4	5.1	4	-1E+10	1	-1E+10	1	-1E+10	1	-1E+10	1	-1E+10	1	-1E+10	1
4901784	231	C	10/31/2021	10:43	-136.545	43.326	0	1289.40	0	2.9330	0	38.2960	8	30.535	0	1275.180	0	16.4	4	5.2	4	-1E+10	1	-1E+10	1	-1E+10	1	-1E+10	1	-1E+10	1	-1E+10	1
4901784	231	C	10/31/2021	10:43	-136.545	43.326	0	1294.60	0	2.9190	0	38.2990	8	30.539	0	1280.307	0	16.6	4	5.3	4	-1E+10	1	-1E+10	1	-1E+10	1	-1E+10	1	-1E+10	1	-1E+10	1
4901784	231	C	10/31/2021	10:43	-136.545	43.326	0	1299.80	0	2.9080	0	38.3000	8	30.541	0	1285.434	0	16.8	4	5.3	4	-1E+10	1	-1E+10	1	-1E+10	1	-1E+10	1	-1E+10	1	-1E+10	1
4901784	231	C	10/31/2021	10:43	-136.545	43.326	0	1305.10	0	2.8960	0	38.3030	8	30.545	0	1290.659	0	17.0	4	5.4	4	-1E+10	1	-1E+10	1	-1E+10	1	-1E+10	1	-1E+10	1	-1E+10	1
4901784	231	C	10/31/2021	10:43	-136.545	43.326	0	1310.40	0	2.8840	0	38.3050	8	30.548	0	1295.884	0	17.2	4	5.5	4	-1E+10	1	-1E+10	1	-1E+10	1	-1E+10	1	-1E+10	1	-1E+10	1
4901784	231	C	10/31/2021	10:43	-136.545	43.326	0	1314.90	0	2.8760	0	38.3070	8	30.550	0	1300.320	0	17.4	4	5.5	4	-1E+10	1	-1E+10	1	-1E+10	1	-1E+10	1	-1E+10	1	-1E+10	1
4901784	231	C	10/31/2021	10:43	-136.545	43.326	0	1319.30	0	2.8650	0	38.3090	8	30.553	0	1304.658	0	17.6	4	5.6	4	-1E+10	1	-1E+10	1	-1E+10	1	-1E+10	1	-1E+10	1	-1E+10	1
4901784	231	C	10/31/2021	10:43	-136.545	43.326	0	1324.70	0	2.8530	0	38.3110	8	30.556	0	1309.981	0	17.8	4	5.6	4	-1E+10	1	-1E+10	1	-1E+10	1	-1E+10	1	-1E+10	1	-1E+10	1
4901784	231	C	10/31/2021	10:43	-136.545	43.326	0	1330.10	0	2.8460	0	38.3130	8	30.558	0	1315.304	0	17.9	4	5.7	4	-1E+10	1	-1E+10	1	-1E+10	1	-1E+10	1	-1E+10	1	-1E+10	1
4901784	231	C	10/31/2021	10:43	-136.545	43.326	0	1335.50	0	2.8370	0	38.3150	8	30.560	0	1320.627	0	18.1	4	5.7	4	-1E+10	1	-1E+10	1	-1E+10	1	-1E+10	1	-1E+10	1	-1E+10	1
4901784	231	C	10/31/2021	10:43	-136.545	43.326	0	1340.00	0	2.8300	0	38.3160	8	30.562	0	1325.063	0	18.3	4	5.8	4	-1E+10	1	-1E+10	1	-1E+10	1	-1E+10	1	-1E+10	1	-1E+10	1
4901784	231	C	10/31/2021	10:43	-136.545	43.326	0	1344.50	0	2.8210	0	38.3170	8	30.564	0	1329.499	0	18.5	4	5.8	4	-1E+10	1	-1E+10	1	-1E+10	1	-1E+10	1	-1E+10	1	-1E+10	1
4901784	231	C	10/31/2021	10:43	-136.545	43.326	0	1349.90	0	2.8100	0	38.3200	8	30.567	0	1334.821	0	18.7	4	5.9	4	-1E+10	1	-1E+10	1	-1E+10	1	-1E+10	1	-1E+10	1	-1E+10	1
4901784	231	C	10/31/2021	10:43	-136.545	43.326	0	1355.40	0	2.8030	0	38.3210	8	30.569	0	1340.242	0	18.9	4	6.0	4	-1E+10	1	-1E+10	1	-1E+10	1	-1E+10	1	-1E+10	1	-1E+10	1
4901784	231	C	10/31/2021	10:43	-136.545	43.326	0	1360.00	0	2.7940	0	38.3230	8	30.571	0	1344.776	0	19.0	4	6.0	4	-1E+10	1	-1E+10	1	-1E+10	1	-1E+10	1	-1E+10	1	-1E+10	1
4901784	231	C	10/31/2021	10:43	-136.545	43.326	0	1364.70	0	2.7870	0	38.3250	8	30.574	0	1349.408	0	19.1	4	6.0	4	-1E+10	1	-1E+10	1	-1E+10	1	-1E+10	1	-1E+10	1	-1E+10	1
4901784	231	C	10/31/2021	10:43	-136.545	43.326	0	1370.30	0	2.7830	0	38.3260	8	30.575	0	1354.928	0	19.2	4	6.1	4	-1E+10	1	-1E+10	1	-1E+10	1	-1E+10	1	-1E+10	1	-1E+10	1
4901784	231	C	10/31/2021	10:43	-136.545	43.326	0	1375.00	0	2.7810	0	38.3270	8	30.576	0	1359.560	0	19.4	4	6.1	4	-1E+10	1	-1E+10	1	-1E+10	1	-1E+10	1	-1E+10	1	-1E+10	1
4901784	231	C	10/31/2021	10:43	-136.545	43.326	0	1379.70	0	2.7780	0	38.3270	8	30.576	0	1364.192	0	19.5	4	6.2	4	-1E+10	1	-1E+10	1	-1E+10	1	-1E+10	1	-1E+10	1	-1E+10	1
4901784	231	C	10/31/2021	10:43	-136.545	43.326	0	1385.30	0	2.7640	0	38.3300	8	30.580	0	1369.711	0	19.8	4	6.3	4	-1E+10	1	-1E+10	1	-1E+10	1	-1E+10	1	-1E+10	1	-1E+10	1
4901784	231	C	10/31/2021	10:43	-136.545	43.326	0	1390.00	0	2.7570	0	38.3310	8	30.581	0	1374.343	0	20.0	4	6.3	4	-1E+10	1	-1E+10	1	-1E+10	1	-1E+10	1	-1E+10	1	-1E+10	1
4901784	231	C	10/31/2021	10:43	-136.545	43.326	0	1394.70	0	2.7500	0	38.3320	8	30.583	0	1378.974	0	20.2	4	6.4	4	-1E+10	1	-1E+10	1	-1E+10	1	-1E+10	1	-1E+10	1	-1E+10	1
4901784	231	C	10/31/2021	10:43	-136.545	43.326	0	1400.40	0	2.7400	0	38.3350	8	30.586	0	1384.591	0	20.5	4	6.5	4	-1E+10	1	-1E+10	1	-1E+10	1	-1E+10	1	-1E+10	1	-1E+10	1
4901784	231	C	10/31/2021	10:43	-136.545	43.326	0	1405.20	0	2.7310	0	38.3360	8	30.588	0	1389.321	0	20.7	4	6.5	4	-1E+10	1	-1E+10	1	-1E+10	1	-1E+10	1	-1E+10	1	-1E+10	1
4901784	231	C	10/31/2021	10:43	-136.545	43.326	0	1409.80	0	2.7240	0	38.3380	8	30.590	0	1393.854	0	20.9	4	6.6	4	-1E+10	1	-1E+10	1	-1E+10	1	-1E+10	1	-1E+10	1	-1E+10	1
4901784	231	C	10/31/2021	10:43	-136.545	43.326	0	1414.80	0	2.7140	0	38.3400	8	30.593	0	1398.781	0	21.2	4	6.7	4	-1E+10	1	-1E+10	1	-1E+10	1	-1E+10	1	-1E+10	1	-1E+10	1
4901784	231	C	10/31/2021	10:43	-136.545	43.326	0	1419.70	0	2.7040	0	38.3420	8	30.596	0	1403.609	0	21.4	4	6.8	4	-1E+10	1	-1E+10	1	-1E+10	1	-1E+10	1	-1E+10	1	-1E+10	1
4901784	231	C	10/31/2021	10:43	-136.545	43.326	0	1424.70	0	2.6980	0	38.3430	8	30.597	0	1408.536	0	21.7	4	6.9	4	-1E+10	1	-1E+10	1	-1E+10	1	-1E+10	1	-1E+10	1	-1E+10	1
4901784	231	C	10/31/2021	10:43	-136.545	43.326	0	1429.70	0	2.6860	0	38.3450	8	30.600	0	1413.462	0	22.0	4	6.9	4	-1E+10	1	-1E+10	1	-1E+10	1	-1E+10	1	-1E+10	1	-1E+10	1
4901784	231	C	10/31/2021	10:43	-136.545	43.326	0	1434.70	0	2.6740	0	38.3470	8	30.603	0	1418.389	0	22.3	4	7.0	4	-1E+10	1	-1E+10	1	-1E+10	1	-1E+10	1	-1E+10	1	-1E+10	1
4901784	231	C	10/31/2021	10:43	-136.545	43.326	0	1439.70	0	2.6610	0	38.3490	8	30.606	0	1423.315	0	22.7	4	7.1	4	-1E+10	1	-1E+10	1	-1E+10	1	-1E+10	1	-1E+10	1	-1E+10	1
4901784	231	C	10/31/2021	10:43	-136.545	43.326	0	1444.80	0	2.6480	0	38.3520	8	30.609	0	1428.340	0	23.0	4	7.2	4	-1E+10	1	-1E+10	1	-1E+10	1	-1E+10	1	-1E+10	1	-1E+10	1
4901784	231	C	10/31/2021	10:43	-136.545	43.326	0	1449.90	0	2.6390	0	38.3530	8	30.611	0	1433.365	0	23.2	4	7.3	4	-1E+10	1	-1E+10	1	-1E+10	1	-1E+10	1	-1E+10	1	-1E+10	1
4901784	231	C	10/31/2021	10:43	-136.545	43.326	0	1454.90	0	2.6280	0	38.3550	8	30.614	0	1438.291	0	23.5	4	7.4	4	-1E+10	1	-1E+10	1	-1E+10	1	-1E+10	1	-1E+10	1	-1E+10	1
4901784	231	C	10/31/2021	10:43	-136.545	43.326	0	1460.10	0	2.6160	0	38.3570	8	30.616	0	1443.413	0	23.7	4	7.5	4	-1E+10	1	-1E+10	1	-1E+10	1	-1E+10	1	-1E+10	1	-1E+10	1
4901784	231	C	10/31/2021	10:43	-136.545	43.326	0	1465.20	0	2.6080	0	38.3580	8	30.618	0	1448.438	0	24.0	4	7.6	4	-1E+10	1	-1E+10	1	-1E+10	1	-1E+10	1	-1E+10	1	-1E+10	1
4901784	231	C	10/31/2021	10:43	-136.545	43.326	0	1470.40	0	2.5970	0	38.3600	8	30.621	0	1453.560	0	24.3	4	7.7	4	-1E+10	1	-1E+10	1	-1E+10	1	-1E+10	1	-1E+10	1	-1E+10	1
4901784	231	C	10/31/2021	10:43	-136.545	43.326	0	1475.70	0	2.5830	0	38.3630	8	30.624	0	1458.781	0	24.6	4	7.8	4	-1E+10	1	-1E+10	1	-1E+10	1	-1E+10	1	-1E+10	1	-1E+10	1
4901784	231	C	10/31/2021	10:43	-136.545	43.326	0	1480.00	0	2.5800	0	38.3640	8	30.626	0	1463.017	0	24.8	4	7.8	4	-1E+10	1	-1E+10	1	-1E+10	1	-1E+10	1	-1E+10	1	-1E+10	1
4901784	231	C	10/31/2021	10:43	-136.545	43.326	0	1484.40	0	2.5720	0	38.3650	8	30.627	0	1467.351	0	25.1	4	7.9	4	-1E+10	1	-1E+10	1	-1E+10	1	-1E+10	1	-1E+10	1	-1E+10	1
4901784	231	C	10/31/2021	10:43	-136.545	43.326	0	1489.70	0	2.5630	0	38.3670	8	30.630	0	1472.572	0	25.3	4	8.0	4	-1E+10	1	-1E+10	1	-1E+10	1	-1E+10	1	-1E+10	1	-1E+10	1
4901784	231	C	10/31/2021	10:43	-136.545	43.326	0	1494.90	0	2.5530	0	38.3680	8	30.631	0	1477.694	0	25.7	4	8.1	4	-1E+10	1	-1E+10	1	-1E+10	1	-1E+10	1	-1E+10	1	-1E+10	1
4901784	231	C	10/31/2021	10:43	-136.545	43.326	0	1500.20	0	2.5390	0	38.3710	8	30.635	0	1482.914	0	26.0	4	8.2	4	-1E+10	1	-1E+10	1	-1E+10	1	-1E+10	1	-1E+10	1	-1E+10	1
4901784	231	C	10/31/2021	10:43	-136.545	43.326	0	1505.50	0	2.5310	0	38.3720	8	30.637	0	1488.135	0	26.2	4	8.3	4	-1E+10	1	-1E+10	1	-1E+10	1	-1E+10	1	-1E+10	1	-1E+10	1
4901784	231	C	10/31/2021	10:43	-136.545	43.326	0	1510.00	0	2.5250	0	38.3740	8	30.639	0	1492.567	0	26.5	4	8.3	4	-1E+10	1	-1E+10	1	-1E+10	1	-1E+10	1	-1E+10	1	-1E+10	1
4901784	231	C	10/31/2021	10:43	-136.545	43.326	0	1514.50	0	2.5180	0	38.3750	8	30.641	0	1496.999	0	26.7	4	8.4	4	-1E+10	1	-1E+10	1	-1E+10	1	-1E+10	1	-1E+10	1	-1E+10	1
4901784	231	C	10/31/2021	10:43	-136.545	43.326	0	1519.90	0	2.5090	0	38.3760	8	30.642	0	1502.318	0	27.1	4	8.5	4	-1E+10	1	-1E+10	1	-1E+10	1	-1E+10	1	-1E+10	1	-1E+10	1
4901784	231	C	10/31/2021	10:43	-136.545	43.326	0	1525.30	0	2.4950	0	38.3780	8	30.645	0	1507.636	0	27.5	4	8.6	4	-1E+10	1	-1E+10	1	-1E+10	1	-1E+10	1	-1E+10	1	-1E+10	1
4901784	231	C	10/31/2021	10:43	-136.545	43.326	0	1530.60	0	2.4830	0	38.3810	8	30.649	0	1512.855	0	27.8	4	8.7	4	-1E+10	1	-1E+10	1	-1E+10	1	-1E+10	1	-1E+10	1	-1E+10	1
4901784	231	C	10/31/2021	10:43	-136.545	43.326	0	1535.10	0	2.4740	0	38.3830	8	30.651	0	1517.287	0	28.1	4	8.8	4	-1E+10	1	-1E+10	1	-1E+10	1	-1E+10	1	-1E+10	1	-1E+10	1
4901784	231	C	10/31/2021	10:43	-136.545	43.326	0	1539.70	0	2.4680	0	38.3840	8	30.653	0	1521.817	0	28.3	4	8.9	4	-1E+10	1	-1E+10	1	-1E+10	1	-1E+10	1	-1E+10	1	-1E+10	1
4901784	231	C	10/31/2021	10:43	-136.545	43.326	0	1545.10	0	2.4630	0	38.3850	8	30.654	0	1527.135	0	28.5	4	9.0	4	-1E+10	1	-1E+10	1	-1E+10	1	-1E+10	1	-1E+10	1	-1E+10	1
4901784	231	C	10/31/2021	10:43	-136.545	43.326	0	1549.70	0	2.4560	0	38.3860	8	30.655	0	1531.665	0	28.7	4	9.0	4	-1E+10	1	-1E+10	1	-1E+10	1	-1E+10	1	-1E+10	1	-1E+10	1
4901784	231	C	10/31/2021	10:43	-136.545	43.326	0	1554.30	0	2.4530	0	38.3870	8	30.657	0	1536.195	0	28.8	4	9.1	4	-1E+10	1	-1E+10	1	-1E+10	1	-1E+10	1	-1E+10	1	-1E+10	1
4901784	231	C	10/31/2021	10:43	-136.545	43.326	0	1560.40	0	2.4500	0	38.3880	8	30.658	0	1542.201	0	29.0	4	9.1	4	-1E+10	1	-1E+10	1	-1E+10	1	-1E+10	1	-1E+10	1	-1E+10	1
4901784	231	C	10/31/2021	10:43	-136.545	43.326	0	1565.50	0	2.4440	0	38.3890	8	30.659	0	1547.223	0	29.3	4	9.2	4	-1E+10	1	-1E+10	1	-1E+10	1	-1E+10	1	-1E+10	1	-1E+10	1
4901784	231	C	10/31/2021	10:43	-136.545	43.326	0	1570.30	0	2.4370	0	38.3900	8	30.661	0	1551.950	0	29.7	4	9.3	4	-1E+10	1	-1E+10	1	-1E+10	1	-1E+10	1	-1E+10	1	-1E+10	1
4901784	231	C	10/31/2021	10:43	-136.545	43.326	0	1575.10	0	2.4260	0	38.3930	8	30.664	0	1556.676	0	30.0	4	9.4	4	-1E+10	1	-1E+10	1	-1E+10	1	-1E+10	1	-1E+10	1	-1E+10	1
4901784	231	C	10/31/2021	10:43	-136.545	43.326	0	1580.00	0	2.4220	0	38.3940	8	30.665	0	1561.501	0	30.2	4	9.5	4	-1E+10	1	-1E+10	1	-1E+10	1	-1E+10	1	-1E+10	1	-1E+10	1
4901784	231	C	10/31/2021	10:43	-136.545	43.326	0	1584.90	0	2.4180	0	38.3940	8	30.666	0	1566.325	0	30.4	4	9.5	4	-1E+10	1	-1E+10	1	-1E+10	1	-1E+10	1	-1E+10	1	-1E+10	1
4901784	231	C	10/31/2021	10:43	-136.545	43.326	0	1589.90	0	2.4130	0	38.3950	8	30.667	0	1571.248	0	30.8	4	9.6	4	-1E+10	1	-1E+10	1	-1E+10	1	-1E+10	1	-1E+10	1	-1E+10	1
4901784	231	C	10/31/2021	10:43	-136.545	43.326	0	1594.90	0	2.4030	0	38.3970	8	30.670	0	1576.171	0	31.3	4	9.8	4	-1E+10	1	-1E+10	1	-1E+10	1	-1E+10	1	-1E+10	1	-1E+10	1
4901784	231	C	10/31/2021	10:43	-136.545	43.326	0	1599.80	0	2.3890	0	38.4000	8	30.673	0	1580.995	0	31.6	4	9.9	4	-1E+10	1	-1E+10	1	-1E+10	1	-1E+10	1	-1E+10	1	-1E+10	1
4901784	231	C	10/31/2021	10:43	-136.545	43.326	0	1604.90	0	2.3810	0	38.4010	8	30.675	0	1586.016	0	31.9	4	10.0	4	-1E+10	1	-1E+10	1	-1E+10	1	-1E+10	1	-1E+10	1	-1E+10	1
4901784	231	C	10/31/2021	10:43	-136.545	43.326	0	1609.90	0	2.3770	0	38.4020	8	30.676	0	1590.938	0	32.1	4	10.0	4	-1E+10	1	-1E+10	1	-1E+10	1	-1E+10	1	-1E+10	1	-1E+10	1
4901784	231	C	10/31/2021	10:43	-136.545	43.326	0	1615.00	0	2.3730	0	38.4040	8	30.678	0	1595.959	0	32.3	4	10.1	4	-1E+10	1	-1E+10	1	-1E+10	1	-1E+10	1	-1E+10	1	-1E+10	1
4901784	231	C	10/31/2021	10:43	-136.545	43.326	0	1620.00	0	2.3690	0	38.4040	8	30.679	0	1600.881	0	32.5	4	10.2	4	-1E+10	1	-1E+10	1	-1E+10	1	-1E+10	1	-1E+10	1	-1E+10	1
4901784	231	C	10/31/2021	10:43	-136.545	43.326	0	1625.20	0	2.3600	0	38.4060	8	30.681	0	1606.000	0	32.9	4	10.3	4	-1E+10	1	-1E+10	1	-1E+10	1	-1E+10	1	-1E+10	1	-1E+10	1
4901784	231	C	10/31/2021	10:43	-136.545	43.326	0	1630.30	0	2.3500	0	38.4080	8	30.684	0	1611.020	0	33.3	4	10.4	4	-1E+10	1	-1E+10	1	-1E+10	1	-1E+10	1	-1E+10	1	-1E+10	1
4901784	231	C	10/31/2021	10:43	-136.545	43.326	0	1635.50	0	2.3450	0	38.4090	8	30.685	0	1616.139	0	33.6	4	10.5	4	-1E+10	1	-1E+10	1	-1E+10	1	-1E+10	1	-1E+10	1	-1E+10	1
4901784	231	C	10/31/2021	10:43	-136.545	43.326	0	1639.90	0	2.3400	0	38.4100	8	30.686	0	1620.470	0	33.9	4	10.6	4	-1E+10	1	-1E+10	1	-1E+10	1	-1E+10	1	-1E+10	1	-1E+10	1
4901784	231	C	10/31/2021	10:43	-136.545	43.326	0	1644.30	0	2.3300	0	38.4120	8	30.689	0	1624.801	0	34.3	4	10.7	4	-1E+10	1	-1E+10	1	-1E+10	1	-1E+10	1	-1E+10	1	-1E+10	1
4901784	231	C	10/31/2021	10:43	-136.545	43.326	0	1649.50	0	2.3200	0	38.4130	8	30.690	0	1629.919	0	34.7	4	10.8	4	-1E+10	1	-1E+10	1	-1E+10	1	-1E+10	1	-1E+10	1	-1E+10	1
4901784	231	C	10/31/2021	10:43	-136.545	43.326	0	1654.90	0	2.3120	0	38.4150	8	30.693	0	1635.235	0	35.0	4	11.0	4	-1E+10	1	-1E+10	1	-1E+10	1	-1E+10	1	-1E+10	1	-1E+10	1
4901784	231	C	10/31/2021	10:43	-136.545	43.326	0	1660.20	0	2.3020	0	38.4160	8	30.695	0	1640.451	0	35.4	4	11.1	4	-1E+10	1	-1E+10	1	-1E+10	1	-1E+10	1	-1E+10	1	-1E+10	1
4901784	231	C	10/31/2021	10:43	-136.545	43.326	0	1665.50	0	2.2910	0	38.4190	8	30.698	0	1645.667	0	35.9	4	11.2	4	-1E+10	1	-1E+10	1	-1E+10	1	-1E+10	1	-1E+10	1	-1E+10	1
4901784	231	C	10/31/2021	10:43	-136.545	43.326	0	1669.90	0	2.2840	0	38.4200	8	30.700	0	1649.998	0	36.2	4	11.3	4	-1E+10	1	-1E+10	1	-1E+10	1	-1E+10	1	-1E+10	1	-1E+10	1
4901784	231	C	10/31/2021	10:43	-136.545	43.326	0	1674.40	0	2.2770	0	38.4210	8	30.701	0	1654.427	0	36.5	4	11.4	4	-1E+10	1	-1E+10	1	-1E+10	1	-1E+10	1	-1E+10	1	-1E+10	1
4901784	231	C	10/31/2021	10:43	-136.545	43.326	0	1679.70	0	2.2690	0	38.4230	8	30.703	0	1659.643	0	36.8	4	11.5	4	-1E+10	1	-1E+10	1	-1E+10	1	-1E+10	1	-1E+10	1	-1E+10	1
4901784	231	C	10/31/2021	10:43	-136.545	43.326	0	1685.00	0	2.2640	0	38.4240	8	30.705	0	1664.859	0	37.0	4	11.6	4	-1E+10	1	-1E+10	1	-1E+10	1	-1E+10	1	-1E+10	1	-1E+10	1
4901784	231	C	10/31/2021	10:43	-136.545	43.326	0	1690.50	0	2.2580	0	38.4250	8	30.706	0	1670.271	0	37.3	4	11.7	4	-1E+10	1	-1E+10	1	-1E+10	1	-1E+10	1	-1E+10	1	-1E+10	1
4901784	231	C	10/31/2021	10:43	-136.545	43.326	0	1694.90	0	2.2530	0	38.4260	8	30.707	0	1674.601	0	37.6	4	11.7	4	-1E+10	1	-1E+10	1	-1E+10	1	-1E+10	1	-1E+10	1	-1E+10	1
4901784	231	C	10/31/2021	10:43	-136.545	43.326	0	1699.50	0	2.2470	0	38.4270	8	30.709	0	1679.128	0	37.8	4	11.8	4	-1E+10	1	-1E+10	1	-1E+10	1	-1E+10	1	-1E+10	1	-1E+10	1
4901784	231	C	10/31/2021	10:43	-136.545	43.326	0	1705.50	0	2.2370	0	38.4290	8	30.711	0	1685.032	0	38.1	4	11.9	4	-1E+10	1	-1E+10	1	-1E+10	1	-1E+10	1	-1E+10	1	-1E+10	1
4901784	231	C	10/31/2021	10:43	-136.545	43.326	0	1710.50	0	2.2290	0	38.4300	8	30.713	0	1689.952	0	38.3	4	12.0	4	-1E+10	1	-1E+10	1	-1E+10	1	-1E+10	1	-1E+10	1	-1E+10	1
4901784	231	C	10/31/2021	10:43	-136.545	43.326	0	1715.30	0	2.2230	0	38.4310	8	30.714	0	1694.676	0	38.6	4	12.0	4	-1E+10	1	-1E+10	1	-1E+10	1	-1E+10	1	-1E+10	1	-1E+10	1
4901784	231	C	10/31/2021	10:43	-136.545	43.326	0	1720.10	0	2.2180	0	38.4320	8	30.716	0	1699.399	0	38.8	4	12.1	4	-1E+10	1	-1E+10	1	-1E+10	1	-1E+10	1	-1E+10	1	-1E+10	1
4901784	231	C	10/31/2021	10:43	-136.545	43.326	0	1725.00	0	2.2120	0	38.4330	8	30.717	0	1704.220	0	39.1	4	12.2	4	-1E+10	1	-1E+10	1	-1E+10	1	-1E+10	1	-1E+10	1	-1E+10	1
4901784	231	C	10/31/2021	10:43	-136.545	43.326	0	1729.80	0	2.2050	0	38.4350	8	30.719	0	1708.943	0	39.4	4	12.3	4	-1E+10	1	-1E+10	1	-1E+10	1	-1E+10	1	-1E+10	1	-1E+10	1
4901784	231	C	10/31/2021	10:43	-136.545	43.326	0	1734.70	0	2.2000	0	38.4360	8	30.720	0	1713.764	0	39.6	4	12.4	4	-1E+10	1	-1E+10	1	-1E+10	1	-1E+10	1	-1E+10	1	-1E+10	1
4901784	231	C	10/31/2021	10:43	-136.545	43.326	0	1739.60	0	2.1960	0	38.4370	8	30.722	0	1718.585	0	39.8	4	12.4	4	-1E+10	1	-1E+10	1	-1E+10	1	-1E+10	1	-1E+10	1	-1E+10	1
4901784	231	C	10/31/2021	10:43	-136.545	43.326	0	1744.50	0	2.1920	0	38.4380	8	30.723	0	1723.406	0	40.1	4	12.5	4	-1E+10	1	-1E+10	1	-1E+10	1	-1E+10	1	-1E+10	1	-1E+10	1
4901784	231	C	10/31/2021	10:43	-136.545	43.326	0	1749.40	0	2.1860	0	38.4390	8	30.724	0	1728.227	0	40.4	4	12.6	4	-1E+10	1	-1E+10	1	-1E+10	1	-1E+10	1	-1E+10	1	-1E+10	1
4901784	231	C	10/31/2021	10:43	-136.545	43.326	0	1754.50	0	2.1820	0	38.4400	8	30.725	0	1733.244	0	40.7	4	12.7	4	-1E+10	1	-1E+10	1	-1E+10	1	-1E+10	1	-1E+10	1	-1E+10	1
4901784	231	C	10/31/2021	10:43	-136.545	43.326	0	1759.50	0	2.1770	0	38.4410	8	30.727	0	1738.163	0	40.9	4	12.8	4	-1E+10	1	-1E+10	1	-1E+10	1	-1E+10	1	-1E+10	1	-1E+10	1
4901784	231	C	10/31/2021	10:43	-136.545	43.326	0	1764.60	0	2.1730	0	38.4420	8	30.728	0	1743.180	0	41.3	4	12.9	4	-1E+10	1	-1E+10	1	-1E+10	1	-1E+10	1	-1E+10	1	-1E+10	1
4901784	231	C	10/31/2021	10:43	-136.545	43.326	0	1769.70	0	2.1680	0	38.4430	8	30.729	0	1748.197	0	41.7	4	13.0	4	-1E+10	1	-1E+10	1	-1E+10	1	-1E+10	1	-1E+10	1	-1E+10	1
4901784	231	C	10/31/2021	10:43	-136.545	43.326	0	1774.80	0	2.1610	0	38.4450	8	30.732	0	1753.214	0	42.1	4	13.1	4	-1E+10	1	-1E+10	1	-1E+10	1	-1E+10	1	-1E+10	1	-1E+10	1
4901784	231	C	10/31/2021	10:43	-136.545	43.326	0	1779.90	0	2.1540	0	38.4460	8	30.733	0	1758.231	0	42.4	4	13.2	4	-1E+10	1	-1E+10	1	-1E+10	1	-1E+10	1	-1E+10	1	-1E+10	1
4901784	231	C	10/31/2021	10:43	-136.545	43.326	0	1785.10	0	2.1490	0	38.4480	8	30.735	0	1763.346	0	42.7	4	13.3	4	-1E+10	1	-1E+10	1	-1E+10	1	-1E+10	1	-1E+10	1	-1E+10	1
4901784	231	C	10/31/2021	10:43	-136.545	43.326	0	1790.20	0	2.1450	0	38.4490	8	30.736	0	1768.363	0	42.9	4	13.4	4	-1E+10	1	-1E+10	1	-1E+10	1	-1E+10	1	-1E+10	1	-1E+10	1
4901784	231	C	10/31/2021	10:43	-136.545	43.326	0	1795.50	0	2.1410	0	38.4500	8	30.738	0	1773.576	0	43.3	4	13.5	4	-1E+10	1	-1E+10	1	-1E+10	1	-1E+10	1	-1E+10	1	-1E+10	1
4901784	231	C	10/31/2021	10:43	-136.545	43.326	0	1799.90	0	2.1360	0	38.4510	8	30.739	0	1777.904	0	43.5	4	13.6	4	-1E+10	1	-1E+10	1	-1E+10	1	-1E+10	1	-1E+10	1	-1E+10	1
4901784	231	C	10/31/2021	10:43	-136.545	43.326	0	1804.30	0	2.1310	0	38.4520	8	30.740	0	1782.232	0	43.9	4	13.7	4	-1E+10	1	-1E+10	1	-1E+10	1	-1E+10	1	-1E+10	1	-1E+10	1
4901784	231	C	10/31/2021	10:43	-136.545	43.326	0	1809.60	0	2.1240	0	38.4530	8	30.742	0	1787.445	0	44.3	4	13.8	4	-1E+10	1	-1E+10	1	-1E+10	1	-1E+10	1	-1E+10	1	-1E+10	1
4901784	231	C	10/31/2021	10:43	-136.545	43.326	0	1814.90	0	2.1160	0	38.4550	8	30.744	0	1792.658	0	44.7	4	13.9	4	-1E+10	1	-1E+10	1	-1E+10	1	-1E+10	1	-1E+10	1	-1E+10	1
4901784	231	C	10/31/2021	10:43	-136.545	43.326	0	1820.20	0	2.1130	0	38.4560	8	30.745	0	1797.870	0	44.9	4	14.0	4	-1E+10	1	-1E+10	1	-1E+10	1	-1E+10	1	-1E+10	1	-1E+10	1
4901784	231	C	10/31/2021	10:43	-136.545	43.326	0	1825.50	0	2.1080	0	38.4570	8	30.746	0	1803.083	0	45.2	4	14.1	4	-1E+10	1	-1E+10	1	-1E+10	1	-1E+10	1	-1E+10	1	-1E+10	1
4901784	231	C	10/31/2021	10:43	-136.545	43.326	0	1830.10	0	2.1030	0	38.4580	8	30.748	0	1807.607	0	45.4	4	14.1	4	-1E+10	1	-1E+10	1	-1E+10	1	-1E+10	1	-1E+10	1	-1E+10	1
4901784	231	C	10/31/2021	10:43	-136.545	43.326	0	1834.60	0	2.0950	0	38.4590	8	30.749	0	1812.032	0	45.7	4	14.2	4	-1E+10	1	-1E+10	1	-1E+10	1	-1E+10	1	-1E+10	1	-1E+10	1
4901784	231	C	10/31/2021	10:43	-136.545	43.326	0	1840.10	0	2.0900	0	38.4600	8	30.750	0	1817.441	0	46.1	4	14.4	4	-1E+10	1	-1E+10	1	-1E+10	1	-1E+10	1	-1E+10	1	-1E+10	1
4901784	231	C	10/31/2021	10:43	-136.545	43.326	0	1845.60	0	2.0840	0	38.4610	8	30.752	0	1822.850	0	46.5	4	14.5	4	-1E+10	1	-1E+10	1	-1E+10	1	-1E+10	1	-1E+10	1	-1E+10	1
4901784	231	C	10/31/2021	10:43	-136.545	43.326	0	1850.20	0	2.0810	0	38.4620	8	30.753	0	1827.373	0	46.8	4	14.6	4	-1E+10	1	-1E+10	1	-1E+10	1	-1E+10	1	-1E+10	1	-1E+10	1
4901784	231	C	10/31/2021	10:43	-136.545	43.326	0	1854.80	0	2.0780	0	38.4630	8	30.754	0	1831.897	0	47.3	4	14.7	4	-1E+10	1	-1E+10	1	-1E+10	1	-1E+10	1	-1E+10	1	-1E+10	1
4901784	231	C	10/31/2021	10:43	-136.545	43.326	0	1860.50	0	2.0720	0	38.4650	8	30.756	0	1837.502	0	47.7	4	14.8	4	-1E+10	1	-1E+10	1	-1E+10	1	-1E+10	1	-1E+10	1	-1E+10	1
4901784	231	C	10/31/2021	10:43	-136.545	43.326	0	1864.60	0	2.0670	0	38.4660	8	30.757	0	1841.533	0	48.0	4	14.9	4	-1E+10	1	-1E+10	1	-1E+10	1	-1E+10	1	-1E+10	1	-1E+10	1
4901784	231	C	10/31/2021	10:43	-136.545	43.326	0	1869.40	0	2.0620	0	38.4670	8	30.759	0	1846.253	0	48.3	4	15.0	4	-1E+10	1	-1E+10	1	-1E+10	1	-1E+10	1	-1E+10	1	-1E+10	1
4901784	231	C	10/31/2021	10:43	-136.545	43.326	0	1874.40	0	2.0570	0	38.4680	8	30.760	0	1851.170	0	48.6	4	15.1	4	-1E+10	1	-1E+10	1	-1E+10	1	-1E+10	1	-1E+10	1	-1E+10	1
4901784	231	C	10/31/2021	10:43	-136.545	43.326	0	1879.40	0	2.0530	0	38.4690	8	30.761	0	1856.086	0	48.9	4	15.2	4	-1E+10	1	-1E+10	1	-1E+10	1	-1E+10	1	-1E+10	1	-1E+10	1
4901784	231	C	10/31/2021	10:43	-136.545	43.326	0	1884.30	0	2.0500	0	38.4700	8	30.762	0	1860.904	0	49.1	4	15.3	4	-1E+10	1	-1E+10	1	-1E+10	1	-1E+10	1	-1E+10	1	-1E+10	1
4901784	231	C	10/31/2021	10:43	-136.545	43.326	0	1889.30	0	2.0480	0	38.4700	8	30.763	0	1865.820	0	49.3	4	15.3	4	-1E+10	1	-1E+10	1	-1E+10	1	-1E+10	1	-1E+10	1	-1E+10	1
4901784	231	C	10/31/2021	10:43	-136.545	43.326	0	1894.40	0	2.0440	0	38.4710	8	30.764	0	1870.834	0	49.6	4	15.4	4	-1E+10	1	-1E+10	1	-1E+10	1	-1E+10	1	-1E+10	1	-1E+10	1
4901784	231	C	10/31/2021	10:43	-136.545	43.326	0	1899.40	0	2.0400	0	38.4720	8	30.765	0	1875.750	0	49.8	4	15.5	4	-1E+10	1	-1E+10	1	-1E+10	1	-1E+10	1	-1E+10	1	-1E+10	1
4901784	231	C	10/31/2021	10:43	-136.545	43.326	0	1904.50	0	2.0360	0	38.4730	8	30.766	0	1880.763	0	50.0	4	15.5	4	-1E+10	1	-1E+10	1	-1E+10	1	-1E+10	1	-1E+10	1	-1E+10	1
4901784	231	C	10/31/2021	10:43	-136.545	43.326	0	1909.50	0	2.0330	0	38.4740	8	30.767	0	1885.679	0	50.3	4	15.6	4	-1E+10	1	-1E+10	1	-1E+10	1	-1E+10	1	-1E+10	1	-1E+10	1
4901784	231	C	10/31/2021	10:43	-136.545	43.326	0	1914.70	0	2.0270	0	38.4740	8	30.768	0	1890.791	0	50.6	4	15.7	4	-1E+10	1	-1E+10	1	-1E+10	1	-1E+10	1	-1E+10	1	-1E+10	1
4901784	231	C	10/31/2021	10:43	-136.545	43.326	0	1919.90	0	2.0240	0	38.4750	8	30.769	0	1895.903	0	50.9	4	15.8	4	-1E+10	1	-1E+10	1	-1E+10	1	-1E+10	1	-1E+10	1	-1E+10	1
4901784	231	C	10/31/2021	10:43	-136.545	43.326	0	1925.10	0	2.0180	0	38.4770	8	30.771	0	1901.015	0	51.3	4	15.9	4	-1E+10	1	-1E+10	1	-1E+10	1	-1E+10	1	-1E+10	1	-1E+10	1
4901784	231	C	10/31/2021	10:43	-136.545	43.326	0	1930.40	0	2.0140	0	38.4780	8	30.772	0	1906.225	0	51.7	4	16.1	4	-1E+10	1	-1E+10	1	-1E+10	1	-1E+10	1	-1E+10	1	-1E+10	1
4901784	231	C	10/31/2021	10:43	-136.545	43.326	0	1935.60	0	2.0080	0	38.4790	8	30.774	0	1911.336	0	52.1	4	16.2	4	-1E+10	1	-1E+10	1	-1E+10	1	-1E+10	1	-1E+10	1	-1E+10	1
4901784	231	C	10/31/2021	10:43	-136.545	43.326	0	1940.10	0	2.0050	0	38.4800	8	30.775	0	1915.760	0	52.4	4	16.3	4	-1E+10	1	-1E+10	1	-1E+10	1	-1E+10	1	-1E+10	1	-1E+10	1
4901784	231	C	10/31/2021	10:43	-136.545	43.326	0	1944.50	0	2.0010	0	38.4810	8	30.776	0	1920.085	0	52.7	4	16.4	4	-1E+10	1	-1E+10	1	-1E+10	1	-1E+10	1	-1E+10	1	-1E+10	1
4901784	231	C	10/31/2021	10:43	-136.545	43.326	0	1949.90	0	1.9970	0	38.4810	8	30.776	0	1925.392	0	53.1	4	16.5	4	-1E+10	1	-1E+10	1	-1E+10	1	-1E+10	1	-1E+10	1	-1E+10	1
4901784	231	C	10/31/2021	10:43	-136.545	43.326	0	1955.30	0	1.9910	0	38.4830	8	30.779	0	1930.700	0	53.4	4	16.6	4	-1E+10	1	-1E+10	1	-1E+10	1	-1E+10	1	-1E+10	1	-1E+10	1
4901784	231	C	10/31/2021	10:43	-136.545	43.326	0	1959.80	0	1.9870	0	38.4840	8	30.780	0	1935.123	0	53.6	4	16.6	4	-1E+10	1	-1E+10	1	-1E+10	1	-1E+10	1	-1E+10	1	-1E+10	1
4901784	231	C	10/31/2021	10:43	-136.545	43.326	0	1964.40	0	1.9840	0	38.4840	8	30.780	0	1939.644	0	53.8	4	16.7	4	-1E+10	1	-1E+10	1	-1E+10	1	-1E+10	1	-1E+10	1	-1E+10	1
4901784	231	C	10/31/2021	10:43	-136.545	43.326	0	1969.90	0	1.9810	0	38.4850	8	30.781	0	1945.050	0	54.0	4	16.8	4	-1E+10	1	-1E+10	1	-1E+10	1	-1E+10	1	-1E+10	1	-1E+10	1
4901784	231	C	10/31/2021	10:43	-136.545	43.326	0	1975.40	0	1.9770	0	38.4860	8	30.782	0	1950.455	0	54.3	4	16.9	4	-1E+10	1	-1E+10	1	-1E+10	1	-1E+10	1	-1E+10	1	-1E+10	1
4901784	231	C	10/31/2021	10:43	-136.545	43.326	0	1980.00	0	1.9740	0	38.4860	8	30.783	0	1954.976	0	54.6	4	16.9	4	-1E+10	1	-1E+10	1	-1E+10	1	-1E+10	1	-1E+10	1	-1E+10	1
4901784	231	C	10/31/2021	10:43	-136.545	43.326	0	1984.60	0	1.9710	0	38.4870	8	30.784	0	1959.497	0	54.8	4	17.0	4	-1E+10	1	-1E+10	1	-1E+10	1	-1E+10	1	-1E+10	1	-1E+10	1
4901784	231	C	10/31/2021	10:43	-136.545	43.326	0	1990.10	0	1.9670	0	38.4880	8	30.785	0	1964.902	0	55.2	4	17.1	4	-1E+10	1	-1E+10	1	-1E+10	1	-1E+10	1	-1E+10	1	-1E+10	1
4901784	231	C	10/31/2021	10:43	-136.545	43.326	0	1995.50	0	1.9620	0	38.4890	8	30.786	0	1970.209	0	55.4	4	17.2	4	-1E+10	1	-1E+10	1	-1E+10	1	-1E+10	1	-1E+10	1	-1E+10	1
4901784	231	C	10/31/2021	10:43	-136.545	43.326	0	2000.40	0	1.9590	0	38.4900	8	30.787	0	1975.024	0	55.6	4	17.3	4	-1E+10	1	-1E+10	1	-1E+10	1	-1E+10	1	-1E+10	1	-1E+10	1
4901784	231	C	10/31/2021	10:43	-136.545	43.326	0	2005.20	0	1.9570	0	38.4900	8	30.787	0	1979.741	0	55.8	4	17.3	4	-1E+10	1	-1E+10	1	-1E+10	1	-1E+10	1	-1E+10	1	-1E+10	1
4901784	231	C	10/31/2021	10:43	-136.545	43.326	0	2009.90	0	1.9550	0	38.4910	8	30.788	0	1984.359	0	55.9	4	17.4	4	-1E+10	1	-1E+10	1	-1E+10	1	-1E+10	1	-1E+10	1	-1E+10	1
4901784	231	C	10/31/2021	10:43	-136.545	43.326	0	2015.60	0	1.9530	0	38.4910	8	30.789	0	1989.960	0	56.1	4	17.4	4	-1E+10	1	-1E+10	1	-1E+10	1	-1E+10	1	-1E+10	1	-1E+10	1
4901784	231	C	10/31/2021	10:43	-136.545	43.326	0	2021.30	0	1.9530	0	38.4920	8	30.790	0	1995.561	0	54.9	4	17.0	4	-1E+10	1	-1E+10	1	-1E+10	1	-1E+10	1	-1E+10	1	-1E+10	1
4901784	231	C	10/31/2021	10:43	-136.545	43.326	0																										
4901784	232	C	11/10/2021	10:43	-136.523	43.376	0	2.80	0	12.4700	0	36.0780	8	27.335	0	2.778	0	244.5	4	94.5	4	-1E+10	1	-1E+10	1	-1E+10	1	-1E+10	1	-1E+10	1	-1E+10	1
4901784	232	C	11/10/2021	10:43	-136.523	43.376	0	4.30	0	12.4710	0	36.0790	8	27.336	0	4.266	0	244.4	4	94.5	4	-1E+10	1	-1E+10	1	-1E+10	1	-1E+10	1	-1E+10	1	-1E+10	1
4901784	232	C	11/10/2021	10:43	-136.523	43.376	0	5.60	0	12.4720	0	36.0790	8	27.336	0	5.555	0	244.5	4	94.5	4	-1E+10	1	-1E+10	1	-1E+10	1	-1E+10	1	-1E+10	1	-1E+10	1
4901784	232	C	11/10/2021	10:43	-136.523	43.376	0	7.10	0	12.4710	0	36.0810	8	27.338	0	7.043	0	244.5	4	94.5	4	-1E+10	1	-1E+10	1	-1E+10	1	-1E+10	1	-1E+10	1	-1E+10	1
4901784	232	C	11/10/2021	10:43	-136.523	43.376	0	8.60	0	12.4720	0	36.0810	8	27.338	0	8.531	0	244.6	4	94.5	4	-1E+10	1	-1E+10	1	-1E+10	1	-1E+10	1	-1E+10	1	-1E+10	1
4901784	232	C	11/10/2021	10:43	-136.523	43.376	0	10.30	0	12.4700	0	36.0820	8	27.339	0	10.218	0	244.4	4	94.5	4	-1E+10	1	-1E+10	1	-1E+10	1	-1E+10	1	-1E+10	1	-1E+10	1
4901784	232	C	11/10/2021	10:43	-136.523	43.376	0	12.20	0	12.4700	0	36.0840	8	27.340	0	12.102	0	244.5	4	94.5	4	-1E+10	1	-1E+10	1	-1E+10	1	-1E+10	1	-1E+10	1	-1E+10	1
4901784	232	C	11/10/2021	10:43	-136.523	43.376	0	14.10	0	12.4700	0	36.0840	8	27.340	0	13.987	0	244.3	4	94.4	4	-1E+10	1	-1E+10	1	-1E+10	1	-1E+10	1	-1E+10	1	-1E+10	1
4901784	232	C	11/10/2021	10:43	-136.523	43.376	0	16.20	0	12.4700	0	36.0850	8	27.341	0	16.070	0	244.3	4	94.4	4	-1E+10	1	-1E+10	1	-1E+10	1	-1E+10	1	-1E+10	1	-1E+10	1
4901784	232	C	11/10/2021	10:43	-136.523	43.376	0	18.30	0	12.4700	0	36.0860	8	27.342	0	18.153	0	244.3	4	94.4	4	-1E+10	1	-1E+10	1	-1E+10	1	-1E+10	1	-1E+10	1	-1E+10	1
4901784	232	C	11/10/2021	10:43	-136.523	43.376	0	20.40	0	12.4700	0	36.0870	8	27.343	0	20.236	0	244.1	4	94.3	4	-1E+10	1	-1E+10	1	-1E+10	1	-1E+10	1	-1E+10	1	-1E+10	1
4901784	232	C	11/10/2021	10:43	-136.523	43.376	0	22.70	0	12.4700	0	36.0880	8	27.344	0	22.518	0	244.2	4	94.4	4	-1E+10	1	-1E+10	1	-1E+10	1	-1E+10	1	-1E+10	1	-1E+10	1
4901784	232	C	11/10/2021	10:43	-136.523	43.376	0	25.00	0	12.4700	0	36.0890	8	27.345	0	24.799	0	244.2	4	94.4	4	-1E+10	1	-1E+10	1	-1E+10	1	-1E+10	1	-1E+10	1	-1E+10	1
4901784	232	C	11/10/2021	10:43	-136.523	43.376	0	27.30	0	12.4700	0	36.0900	8	27.345	0	27.081	0	243.9	4	94.3	4	-1E+10	1	-1E+10	1	-1E+10	1	-1E+10	1	-1E+10	1	-1E+10	1
4901784	232	C	11/10/2021	10:43	-136.523	43.376	0	29.70	0	12.4710	0	36.0910	8	27.346	0	29.461	0	243.9	4	94.3	4	-1E+10	1	-1E+10	1	-1E+10	1	-1E+10	1	-1E+10	1	-1E+10	1
4901784	232	C	11/10/2021	10:43	-136.523	43.376	0	32.10	0	12.4710	0	36.0920	8	27.347	0	31.842	0	244.0	4	94.3	4	-1E+10	1	-1E+10	1	-1E+10	1	-1E+10	1	-1E+10	1	-1E+10	1
4901784	232	C	11/10/2021	10:43	-136.523	43.376	0	34.50	0	12.4720	0	36.0930	8	27.348	0	34.222	0	244.0	4	94.3	4	-1E+10	1	-1E+10	1	-1E+10	1	-1E+10	1	-1E+10	1	-1E+10	1
4901784	232	C	11/10/2021	10:43	-136.523	43.376	0	36.90	0	12.4720	0	36.0940	8	27.348	0	36.603	0	243.9	4	94.3	4	-1E+10	1	-1E+10	1	-1E+10	1	-1E+10	1	-1E+10	1	-1E+10	1
4901784	232	C	11/10/2021	10:43	-136.523	43.376	0	39.30	0	12.4720	0	36.0950	8	27.349	0	38.983	0	243.8	4	94.2	4	-1E+10	1	-1E+10	1	-1E+10	1	-1E+10	1	-1E+10	1	-1E+10	1
4901784	232	C	11/10/2021	10:43	-136.523	43.376	0	41.50	0	12.4720	0	36.0960	8	27.350	0	41.165	0	243.8	4	94.2	4	-1E+10	1	-1E+10	1	-1E+10	1	-1E+10	1	-1E+10	1	-1E+10	1
4901784	232	C	11/10/2021	10:43	-136.523	43.376	0	43.70	0	12.4720	0	36.0970	8	27.351	0	43.347	0	243.8	4	94.2	4	-1E+10	1	-1E+10	1	-1E+10	1	-1E+10	1	-1E+10	1	-1E+10	1
4901784	232	C	11/10/2021	10:43	-136.523	43.376	0	45.90	0	12.4720	0	36.0980	8	27.352	0	45.529	0	243.5	4	94.1	4	-1E+10	1	-1E+10	1	-1E+10	1	-1E+10	1	-1E+10	1	-1E+10	1
4901784	232	C	11/10/2021	10:43	-136.523	43.376	0	48.00	0	12.4730	0	36.0990	8	27.352	0	47.612	0	243.4	4	94.1	4	-1E+10	1	-1E+10	1	-1E+10	1	-1E+10	1	-1E+10	1	-1E+10	1
4901784	232	C	11/10/2021	10:43	-136.523	43.376	0	50.00	0	12.4730	0	36.1000	8	27.353	0	49.596	0	243.4	4	94.1	4	-1E+10	1	-1E+10	1	-1E+10	1	-1E+10	1	-1E+10	1	-1E+10	1
4901784	232	C	11/10/2021	10:43	-136.523	43.376	0	52.10	0	12.4740	0	36.1000	8	27.353	0	51.678	0	243.3	4	94.0	4	-1E+10	1	-1E+10	1	-1E+10	1	-1E+10	1	-1E+10	1	-1E+10	1
4901784	232	C	11/10/2021	10:43	-136.523	43.376	0	54.10	0	12.4740	0	36.1010	8	27.354	0	53.662	0	243.2	4	94.0	4	-1E+10	1	-1E+10	1	-1E+10	1	-1E+10	1	-1E+10	1	-1E+10	1
4901784	232	C	11/10/2021	10:43	-136.523	43.376	0	56.10	0	12.4720	0	36.1020	8	27.355	0	55.645	0	243.2	4	94.0	4	-1E+10	1	-1E+10	1	-1E+10	1	-1E+10	1	-1E+10	1	-1E+10	1
4901784	232	C	11/10/2021	10:43	-136.523	43.376	0	58.20	0	12.4740	0	36.1030	8	27.356	0	57.728	0	243.0	4	93.9	4	-1E+10	1	-1E+10	1	-1E+10	1	-1E+10	1	-1E+10	1	-1E+10	1
4901784	232	C	11/10/2021	10:43	-136.523	43.376	0	60.20	0	12.4730	0	36.1030	8	27.356	0	59.712	0	242.9	4	93.9	4	-1E+10	1	-1E+10	1	-1E+10	1	-1E+10	1	-1E+10	1	-1E+10	1
4901784	232	C	11/10/2021	10:43	-136.523	43.376	0	62.50	0	12.4720	0	36.1030	8	27.356	0	61.993	0	242.8	4	93.8	4	-1E+10	1	-1E+10	1	-1E+10	1	-1E+10	1	-1E+10	1	-1E+10	1
4901784	232	C	11/10/2021	10:43	-136.523	43.376	0	63.00	0	12.4720	0	36.1040	8	27.357	0	62.488	0	242.6	4	93.8	4	-1E+10	1	-1E+10	1	-1E+10	1	-1E+10	1	-1E+10	1	-1E+10	1
4901784	232	C	11/10/2021	10:43	-136.523	43.376	0	64.70	0	12.4740	0	36.1030	8	27.356	0	64.174	0	242.3	4	93.7	4	-1E+10	1	-1E+10	1	-1E+10	1	-1E+10	1	-1E+10	1	-1E+10	1
4901784	232	C	11/10/2021	10:43	-136.523	43.376	0	66.30	0	12.4730	0	36.1020	8	27.355	0	65.761	0	242.1	4	93.6	4	-1E+10	1	-1E+10	1	-1E+10	1	-1E+10	1	-1E+10	1	-1E+10	1
4901784	232	C	11/10/2021	10:43	-136.523	43.376	0	68.00	0	12.4730	0	36.1000	8	27.354	0	67.447	0	241.8	4	93.5	4	-1E+10	1	-1E+10	1	-1E+10	1	-1E+10	1	-1E+10	1	-1E+10	1
4901784	232	C	11/10/2021	10:43	-136.523	43.376	0	69.70	0	12.4690	0	36.0980	8	27.353	0	69.133	0	241.2	4	93.2	4	-1E+10	1	-1E+10	1	-1E+10	1	-1E+10	1	-1E+10	1	-1E+10	1
4901784	232	C	11/10/2021	10:43	-136.523	43.376	0	71.40	0	12.4640	0	36.0940	8	27.351	0	70.819	0	240.6	4	93.0	4	-1E+10	1	-1E+10	1	-1E+10	1	-1E+10	1	-1E+10	1	-1E+10	1
4901784	232	C	11/10/2021	10:43	-136.523	43.376	0	72.90	0	12.4420	0	36.0860	8	27.349	0	72.306	0	240.2	4	92.8	4	-1E+10	1	-1E+10	1	-1E+10	1	-1E+10	1	-1E+10	1	-1E+10	1
4901784	232	C	11/10/2021	10:43	-136.523	43.376	0	74.50	0	12.4150	0	36.0760	8	27.347	0	73.893	0	239.3	4	92.4	4	-1E+10	1	-1E+10	1	-1E+10	1	-1E+10	1	-1E+10	1	-1E+10	1
4901784	232	C	11/10/2021	10:43	-136.523	43.376	0	76.10	0	12.2800	0	36.0790	8	27.376	0	75.480	0	238.8	4	91.9	4	-1E+10	1	-1E+10	1	-1E+10	1	-1E+10	1	-1E+10	1	-1E+10	1
4901784	232	C	11/10/2021	10:43	-136.523	43.376	0	77.70	0	12.2760	0	36.0470	8	27.352	0	77.066	0	238.2	4	91.7	4	-1E+10	1	-1E+10	1	-1E+10	1	-1E+10	1	-1E+10	1	-1E+10	1
4901784	232	C	11/10/2021	10:43	-136.523	43.376	0	79.30	0	11.9800	0	36.0450	8	27.408	0	78.653	0	237.7	4	90.9	4	-1E+10	1	-1E+10	1	-1E+10	1	-1E+10	1	-1E+10	1	-1E+10	1
4901784	232	C	11/10/2021	10:43	-136.523	43.376	0	81.10	0	11.1550	0	36.1590	8	27.652	0	80.438	0	240.0	4	90.3	4	-1E+10	1	-1E+10	1	-1E+10	1	-1E+10	1	-1E+10	1	-1E+10	1
4901784	232	C	11/10/2021	10:43	-136.523	43.376	0	83.10	0	10.5750	0	36.1960	8	27.787	0	82.421	0	242.3	4	90.1	4	-1E+10	1	-1E+10	1	-1E+10	1	-1E+10	1	-1E+10	1	-1E+10	1
4901784	232	C	11/10/2021	10:43	-136.523	43.376	0	83.60	0	10.5330	0	36.1990	8	27.797	0	82.917	0	242.9	4	90.2	4	-1E+10	1	-1E+10	1	-1E+10	1	-1E+10	1	-1E+10	1	-1E+10	1
4901784	232	C	11/10/2021	10:43	-136.523	43.376	0	85.10	0	10.4630	0	36.2000	8	27.810	0	84.404	0	243.0	4	90.1	4	-1E+10	1	-1E+10	1	-1E+10	1	-1E+10	1	-1E+10	1	-1E+10	1
4901784	232	C	11/10/2021	10:43	-136.523	43.376	0	86.50	0	10.3120	0	36.2240	8	27.856	0	85.793	0	243.4	4	90.0	4	-1E+10	1	-1E+10	1	-1E+10	1	-1E+10	1	-1E+10	1	-1E+10	1
4901784	232	C	11/10/2021	10:43	-136.523	43.376	0	88.10	0	10.2950	0	36.2220	8	27.857	0	87.379	0	243.1	4	89.9	4	-1E+10	1	-1E+10	1	-1E+10	1	-1E+10	1	-1E+10	1	-1E+10	1
4901784	232	C	11/10/2021	10:43	-136.523	43.376	0	89.60	0	10.2260	0	36.2280	8	27.874	0	88.867	0	243.0	4	89.7	4	-1E+10	1	-1E+10	1	-1E+10	1	-1E+10	1	-1E+10	1	-1E+10	1
4901784	232	C	11/10/2021	10:43	-136.523	43.376	0	91.30	0	10.1400	0	36.2430	8	27.901	0	90.552	0	242.9	4	89.5	4	-1E+10	1	-1E+10	1	-1E+10	1	-1E+10	1	-1E+10	1	-1E+10	1
4901784	232	C	11/10/2021	10:43	-136.523	43.376	0	92.90	0	10.1090	0	36.2420	8	27.906	0	92.139	0	242.8	4	89.4	4	-1E+10	1	-1E+10	1	-1E+10	1	-1E+10	1	-1E+10	1	-1E+10	1
4901784	232	C	11/10/2021	10:43	-136.523	43.376	0	94.50	0	10.0610	0	36.2460	8	27.917	0	93.725	0	242.5	4	89.2	4	-1E+10	1	-1E+10	1	-1E+10	1	-1E+10	1	-1E+10	1	-1E+10	1
4901784	232	C	11/10/2021	10:43	-136.523	43.376	0	96.10	0	9.9960	0	36.2530	8	27.934	0	95.312	0	242.3	4	89.0	4	-1E+10	1	-1E+10	1	-1E+10	1	-1E+10	1	-1E+10	1	-1E+10	1
4901784	232	C	11/10/2021	10:43	-136.523	43.376	0	97.70	0	9.9660	0	36.2530	8	27.939	0	96.899	0	241.8	4	88.8	4	-1E+10	1	-1E+10	1	-1E+10	1	-1E+10	1	-1E+10	1	-1E+10	1
4901784	232	C	11/10/2021	10:43	-136.523	43.376	0	99.20	0	9.9140	0	36.2510	8	27.947	0	98.386	0	240.9	4	88.3	4	-1E+10	1	-1E+10	1	-1E+10	1	-1E+10	1	-1E+10	1	-1E+10	1
4901784	232	C	11/10/2021	10:43	-136.523	43.376	0	103.00	0	9.7360	0	36.2910	8	28.009	0	102.154	0	238.6	4	87.2	4	-1E+10	1	-1E+10	1	-1E+10	1	-1E+10	1	-1E+10	1	-1E+10	1
4901784	232	C	11/10/2021	10:43	-136.523	43.376	0	105.30	0	9.6080	0	36.3210	8	28.054	0	104.434	0	236.6	4	86.2	4	-1E+10	1	-1E+10	1	-1E+10	1	-1E+10	1	-1E+10	1	-1E+10	1
4901784	232	C	11/10/2021	10:43	-136.523	43.376	0	107.80	0	9.4700	0	36.3780	8	28.122	0	106.913	0	234.4	4	85.2	4	-1E+10	1	-1E+10	1	-1E+10	1	-1E+10	1	-1E+10	1	-1E+10	1
4901784	232	C	11/10/2021	10:43	-136.523	43.376	0	110.20	0	9.3720	0	36.4490	8	28.194	0	109.293	0	231.8	4	84.2	4	-1E+10	1	-1E+10	1	-1E+10	1	-1E+10	1	-1E+10	1	-1E+10	1
4901784	232	C	11/10/2021	10:43	-136.523	43.376	0	112.70	0	9.2860	0	36.5220	8	28.266	0	111.771	0	230.8	4	83.7	4	-1E+10	1	-1E+10	1	-1E+10	1	-1E+10	1	-1E+10	1	-1E+10	1
4901784	232	C	11/10/2021	10:43	-136.523	43.376	0	115.20	0	9.2830	0	36.5320	8	28.274	0	114.250	0	229.4	4	83.1	4	-1E+10	1	-1E+10	1	-1E+10	1	-1E+10	1	-1E+10	1	-1E+10	1
4901784	232	C	11/10/2021	10:43	-136.523	43.376	0	117.70	0	9.2800	0	36.5410	8	28.282	0	116.729	0	227.3	4	82.4	4	-1E+10	1	-1E+10	1	-1E+10	1	-1E+10	1	-1E+10	1	-1E+10	1
4901784	232	C	11/10/2021	10:43	-136.523	43.376	0	120.00	0	9.2740	0	36.5580	8	28.296	0	119.009	0	224.3	4	81.3	4	-1E+10	1	-1E+10	1	-1E+10	1	-1E+10	1	-1E+10	1	-1E+10	1
4901784	232	C	11/10/2021	10:43	-136.523	43.376	0	122.70	0	9.2550	0	36.6060	8	28.337	0	121.686	0	220.4	4	79.9	4	-1E+10	1	-1E+10	1	-1E+10	1	-1E+10	1	-1E+10	1	-1E+10	1
4901784	232	C	11/10/2021	10:43	-136.523	43.376	0	125.30	0	9.2000	0	36.7670	8	28.472	0	124.264	0	216.7	4	78.5	4	-1E+10	1	-1E+10	1	-1E+10	1	-1E+10	1	-1E+10	1	-1E+10	1
4901784	232	C	11/10/2021	10:43	-136.523	43.376	0	127.10	0	9.1990	0	36.7920	8	28.492	0	126.048	0	215.8	4	78.2	4	-1E+10	1	-1E+10	1	-1E+10	1	-1E+10	1	-1E+10	1	-1E+10	1
4901784	232	C	11/10/2021	10:43	-136.523	43.376	0	129.80	0	9.1970	0	36.8050	8	28.503	0	128.725	0	214.5	4	77.8	4	-1E+10	1	-1E+10	1	-1E+10	1	-1E+10	1	-1E+10	1	-1E+10	1
4901784	232	C	11/10/2021	10:43	-136.523	43.376	0	133.10	0	9.1890	0	36.8380	8	28.530	0	131.997	0	212.8	4	77.1	4	-1E+10	1	-1E+10	1	-1E+10	1	-1E+10	1	-1E+10	1	-1E+10	1
4901784	232	C	11/10/2021	10:43	-136.523	43.376	0	134.90	0	9.1840	0	36.8550	8	28.544	0	133.781	0	211.5	4	76.7	4	-1E+10	1	-1E+10	1	-1E+10	1	-1E+10	1	-1E+10	1	-1E+10	1
4901784	232	C	11/10/2021	10:43	-136.523	43.376	0	137.30	0	9.1750	0	36.8860	8	28.570	0	136.161	0	209.8	4	76.1	4	-1E+10	1	-1E+10	1	-1E+10	1	-1E+10	1	-1E+10	1	-1E+10	1
4901784	232	C	11/10/2021	10:43	-136.523	43.376	0	140.20	0	9.1630	0	36.9180	8	28.597	0	139.036	0	207.8	4	75.3	4	-1E+10	1	-1E+10	1	-1E+10	1	-1E+10	1	-1E+10	1	-1E+10	1
4901784	232	C	11/10/2021	10:43	-136.523	43.376	0	142.60	0	9.1480	0	36.9450	8	28.621	0	141.415	0	205.9	4	74.7	4	-1E+10	1	-1E+10	1	-1E+10	1	-1E+10	1	-1E+10	1	-1E+10	1
4901784	232	C	11/10/2021	10:43	-136.523	43.376	0	144.80	0	9.1370	0	36.9750	8	28.646	0	143.596	0	203.8	4	73.9	4	-1E+10	1	-1E+10	1	-1E+10	1	-1E+10	1	-1E+10	1	-1E+10	1
4901784	232	C	11/10/2021	10:43	-136.523	43.376	0	147.30	0	9.1210	0	37.0270	8	28.690	0	146.074	0	201.3	4	73.0	4	-1E+10	1	-1E+10	1	-1E+10	1	-1E+10	1	-1E+10	1	-1E+10	1
4901784	232	C	11/10/2021	10:43	-136.523	43.376	0	149.70	0	9.0930	0	37.1590	8	28.798	0	148.453	0	199.7	4	72.4	4	-1E+10	1	-1E+10	1	-1E+10	1	-1E+10	1	-1E+10	1	-1E+10	1
4901784	232	C	11/10/2021	10:43	-136.523	43.376	0	152.20	0	9.0830	0	37.1640	8	28.803	0	150.931	0	198.9	4	72.1	4	-1E+10	1	-1E+10	1	-1E+10	1	-1E+10	1	-1E+10	1	-1E+10	1
4901784	232	C	11/10/2021	10:43	-136.523	43.376	0	154.70	0	9.0220	0	37.1910	8	28.835	0	153.410	0	198.0	4	71.7	4	-1E+10	1	-1E+10	1	-1E+10	1	-1E+10	1	-1E+10	1	-1E+10	1
4901784	232	C	11/10/2021	10:43	-136.523	43.376	0	157.40	0	8.9950	0	37.2260	8	28.867	0	156.086	0	197.5	4	71.5	4	-1E+10	1	-1E+10	1	-1E+10	1	-1E+10	1	-1E+10	1	-1E+10	1
4901784	232	C	11/10/2021	10:43	-136.523	43.376	0	160.00	0	8.9840	0	37.2440	8	28.883	0	158.663	0	197.1	4	71.4	4	-1E+10	1	-1E+10	1	-1E+10	1	-1E+10	1	-1E+10	1	-1E+10	1
4901784	232	C	11/10/2021	10:43	-136.523	43.376	0	162.80	0	8.9790	0	37.2510	8	28.889	0	161.439	0	196.7	4	71.2	4	-1E+10	1	-1E+10	1	-1E+10	1	-1E+10	1	-1E+10	1	-1E+10	1
4901784	232	C	11/10/2021	10:43	-136.523	43.376	0	165.10	0	8.9680	0	37.2660	8	28.903	0	163.719	0	196.1	4	71.0	4	-1E+10	1	-1E+10	1	-1E+10	1	-1E+10	1	-1E+10	1	-1E+10	1
4901784	232	C	11/10/2021	10:43	-136.523	43.376	0	167.30	0	8.9500	0	37.3030	8	28.935	0	165.900	0	195.7	4	70.8	4	-1E+10	1	-1E+10	1	-1E+10	1	-1E+10	1	-1E+10	1	-1E+10	1
4901784	232	C	11/10/2021	10:43	-136.523	43.376	0	169.50	0	8.9280	0	37.3320	8	28.961	0	168.080	0	195.5	4	70.7	4	-1E+10	1	-1E+10	1	-1E+10	1	-1E+10	1	-1E+10	1	-1E+10	1
4901784	232	C	11/10/2021	10:43	-136.523	43.376	0	172.70	0	8.9230	0	37.3460	8	28.973	0	171.252	0	195.4	4	70.7	4	-1E+10	1	-1E+10	1	-1E+10	1	-1E+10	1	-1E+10	1	-1E+10	1
4901784	232	C	11/10/2021	10:43	-136.523	43.376	0	175.00	0	8.9190	0	37.3540	8	28.980	0	173.532	0	195.3	4	70.7	4	-1E+10	1	-1E+10	1	-1E+10	1	-1E+10	1	-1E+10	1	-1E+10	1
4901784	232	C	11/10/2021	10:43	-136.523	43.376	0	177.40	0	8.9120	0	37.3680	8	28.992	0	175.911	0	195.2	4	70.6	4	-1E+10	1	-1E+10	1	-1E+10	1	-1E+10	1	-1E+10	1	-1E+10	1
4901784	232	C	11/10/2021	10:43	-136.523	43.376	0	179.70	0	8.9080	0	37.3810	8	29.003	0	178.190	0	195.3	4	70.6	4	-1E+10	1	-1E+10	1	-1E+10	1	-1E+10	1	-1E+10	1	-1E+10	1
4901784	232	C	11/10/2021	10:43	-136.523	43.376	0	182.20	0	8.9100	0	37.4000	8	29.018	0	180.668	0	195.0	4	70.6	4	-1E+10	1	-1E+10	1	-1E+10	1	-1E+10	1	-1E+10	1	-1E+10	1
4901784	232	C	11/10/2021	10:43	-136.523	43.376	0	184.80	0	8.8610	0	37.4160	8	29.038	0	183.245	0	194.8	4	70.4	4	-1E+10	1	-1E+10	1	-1E+10	1	-1E+10	1	-1E+10	1	-1E+10	1
4901784	232	C	11/10/2021	10:43	-136.523	43.376	0	187.30	0	8.8640	0	37.4230	8	29.043	0	185.723	0	194.9	4	70.5	4	-1E+10	1	-1E+10	1	-1E+10	1	-1E+10	1	-1E+10	1	-1E+10	1
4901784	232	C	11/10/2021	10:43	-136.523	43.376	0	189.80	0	8.8150	0	37.4330	8	29.059	0	188.201	0	194.9	4	70.4	4	-1E+10	1	-1E+10	1	-1E+10	1	-1E+10	1	-1E+10	1	-1E+10	1
4901784	232	C	11/10/2021	10:43	-136.523	43.376	0	192.30	0	8.7970	0	37.4540	8	29.079	0	190.679	0	195.5	4	70.6	4	-1E+10	1	-1E+10	1	-1E+10	1	-1E+10	1	-1E+10	1	-1E+10	1
4901784	232	C	11/10/2021	10:43	-136.523	43.376	0	194.80	0	8.7930	0	37.4690	8	29.091	0	193.157	0	195.5	4	70.6	4	-1E+10	1	-1E+10	1	-1E+10	1	-1E+10	1	-1E+10	1	-1E+10	1
4901784	232	C	11/10/2021	10:43	-136.523	43.376	0	197.30	0	8.8010	0	37.4740	8	29.094	0	195.634	0	194.7	4	70.3	4	-1E+10	1	-1E+10	1	-1E+10	1	-1E+10	1	-1E+10	1	-1E+10	1
4901784	232	C	11/10/2021	10:43	-136.523	43.376	0	199.70	0	8.7890	0	37.4750	8	29.097	0	198.013	0	193.9	4	70.0	4	-1E+10	1	-1E+10	1	-1E+10	1	-1E+10	1	-1E+10	1	-1E+10	1
4901784	232	C	11/10/2021	10:43	-136.523	43.376	0	202.20	0	8.7630	0	37.4770	8	29.103	0	200.491	0	192.7	4	69.5	4	-1E+10	1	-1E+10	1	-1E+10	1	-1E+10	1	-1E+10	1	-1E+10	1
4901784	232	C	11/10/2021	10:43	-136.523	43.376	0	205.40	0	8.6980	0	37.4830	8	29.118	0	203.662	0	190.8	4	68.8	4	-1E+10	1	-1E+10	1	-1E+10	1	-1E+10	1	-1E+10	1	-1E+10	1
4901784	232	C	11/10/2021	10:43	-136.523	43.376	0	207.90	0	8.6480	0	37.4970	8	29.137	0	206.139	0	189.8	4	68.3	4	-1E+10	1	-1E+10	1	-1E+10	1	-1E+10	1	-1E+10	1	-1E+10	1
4901784	232	C	11/10/2021	10:43	-136.523	43.376	0	210.40	0	8.6000	0	37.5010	8	29.148	0	208.617	0	188.8	4	67.9	4	-1E+10	1	-1E+10	1	-1E+10	1	-1E+10	1	-1E+10	1	-1E+10	1
4901784	232	C	11/10/2021	10:43	-136.523	43.376	0	212.90	0	8.5570	0	37.5030	8	29.157	0	211.095	0	187.9	4	67.5	4	-1E+10	1	-1E+10	1	-1E+10	1	-1E+10	1	-1E+10	1	-1E+10	1
4901784	232	C	11/10/2021	10:43	-136.523	43.376	0	214.60	0	8.5560	0	37.5000	8	29.155	0	212.779	0	187.2	4	67.3	4	-1E+10	1	-1E+10	1	-1E+10	1	-1E+10	1	-1E+10	1	-1E+10	1
4901784	232	C	11/10/2021	10:43	-136.523	43.376	0	217.20	0	8.5020	0	37.5030	8	29.166	0	215.356	0	185.9	4	66.7	4	-1E+10	1	-1E+10	1	-1E+10	1	-1E+10	1	-1E+10	1	-1E+10	1
4901784	232	C	11/10/2021	10:43	-136.523	43.376	0	219.70	0	8.4380	0	37.5020	8	29.175	0	217.833	0	184.9	4	66.3	4	-1E+10	1	-1E+10	1	-1E+10	1	-1E+10	1	-1E+10	1	-1E+10	1
4901784	232	C	11/10/2021	10:43	-136.523	43.376	0	222.20	0	8.3960	0	37.5010	8	29.181	0	220.311	0	184.0	4	65.9	4	-1E+10	1	-1E+10	1	-1E+10	1	-1E+10	1	-1E+10	1	-1E+10	1
4901784	232	C	11/10/2021	10:43	-136.523	43.376	0	224.70	0	8.3570	0	37.4990	8	29.186	0	222.788	0	182.8	4	65.4	4	-1E+10	1	-1E+10	1	-1E+10	1	-1E+10	1	-1E+10	1	-1E+10	1
4901784	232	C	11/10/2021	10:43	-136.523	43.376	0	227.20	0	8.2700	0	37.4970	8	29.198	0	225.266	0	181.9	4	64.9	4	-1E+10	1	-1E+10	1	-1E+10	1	-1E+10	1	-1E+10	1	-1E+10	1
4901784	232	C	11/10/2021	10:43	-136.523	43.376	0	229.70	0	8.1750	0	37.4960	8	29.212	0	227.743	0	181.5	4	64.7	4	-1E+10	1	-1E+10	1	-1E+10	1	-1E+10	1	-1E+10	1	-1E+10	1
4901784	232	C	11/10/2021	10:43	-136.523	43.376	0	232.30	0	8.1720	0	37.5030	8	29.219	0	230.319	0	180.8	4	64.4	4	-1E+10	1	-1E+10	1	-1E+10	1	-1E+10	1	-1E+10	1	-1E+10	1
4901784	232	C	11/10/2021	10:43	-136.523	43.376	0	234.80	0	8.1520	0	37.5000	8	29.219	0	232.797	0	180.0	4	64.1	4	-1E+10	1	-1E+10	1	-1E+10	1	-1E+10	1	-1E+10	1	-1E+10	1
4901784	232	C	11/10/2021	10:43	-136.523	43.376	0	237.30	0	8.0760	0	37.5000	8	29.231	0	235.274	0	179.4	4	63.8	4	-1E+10	1	-1E+10	1	-1E+10	1	-1E+10	1	-1E+10	1	-1E+10	1
4901784	232	C	11/10/2021	10:43	-136.523	43.376	0	239.70	0	8.0170	0	37.4990	8	29.240	0	237.652	0	178.8	4	63.5	4	-1E+10	1	-1E+10	1	-1E+10	1	-1E+10	1	-1E+10	1	-1E+10	1
4901784	232	C	11/10/2021	10:43	-136.523	43.376	0	242.20	0	7.9540	0	37.4990	8	29.250	0	240.129	0	178.2	4	63.2	4	-1E+10	1	-1E+10	1	-1E+10	1	-1E+10	1	-1E+10	1	-1E+10	1
4901784	232	C	11/10/2021	10:43	-136.523	43.376	0	244.70	0	7.9050	0	37.4970	8	29.256	0	242.606	0	177.8	4	63.0	4	-1E+10	1	-1E+10	1	-1E+10	1	-1E+10	1	-1E+10	1	-1E+10	1
4901784	232	C	11/10/2021	10:43	-136.523	43.376	0	247.30	0	7.8810	0	37.4940	8	29.257	0	245.183	0	176.9	4	62.6	4	-1E+10	1	-1E+10	1	-1E+10	1	-1E+10	1	-1E+10	1	-1E+10	1
4901784	232	C	11/10/2021	10:43	-136.523	43.376	0	249.70	0	7.8250	0	37.4900	8	29.263	0	247.561	0	176.0	4	62.2	4	-1E+10	1	-1E+10	1	-1E+10	1	-1E+10	1	-1E+10	1	-1E+10	1
4901784	232	C	11/10/2021	10:43	-136.523	43.376	0	252.30	0	7.7200	0	37.4950	8	29.283	0	250.137	0	175.3	4	61.8	4	-1E+10	1	-1E+10	1	-1E+10	1	-1E+10	1	-1E+10	1	-1E+10	1
4901784	232	C	11/10/2021	10:43	-136.523	43.376	0	254.80	0	7.6770	0	37.4960	8	29.290	0	252.614	0	174.7	4	61.6	4	-1E+10	1	-1E+10	1	-1E+10	1	-1E+10	1	-1E+10	1	-1E+10	1
4901784	232	C	11/10/2021	10:43	-136.523	43.376	0	257.40	0	7.6590	0	37.4950	8	29.292	0	255.190	0	173.8	4	61.2	4	-1E+10	1	-1E+10	1	-1E+10	1	-1E+10	1	-1E+10	1	-1E+10	1
4901784	232	C	11/10/2021	10:43	-136.523	43.376	0	260.00	0	7.6490	0	37.4900	8	29.290	0	257.766	0	172.6	4	60.8	4	-1E+10	1	-1E+10	1	-1E+10	1	-1E+10	1	-1E+10	1	-1E+10	1
4901784	232	C	11/10/2021	10:43	-136.523	43.376	0	262.60	0	7.5580	0	37.4900	8	29.303	0	260.342	0	171.2	4	60.2	4	-1E+10	1	-1E+10	1	-1E+10	1	-1E+10	1	-1E+10	1	-1E+10	1
4901784	232	C	11/10/2021	10:43	-136.523	43.376	0	265.10	0	7.5000	0	37.4890	8	29.311	0	262.819	0	169.9	4	59.6	4	-1E+10	1	-1E+10	1	-1E+10	1	-1E+10	1	-1E+10	1	-1E+10	1
4901784	232	C	11/10/2021	10:43	-136.523	43.376	0	267.70	0	7.4220	0	37.4910	8	29.325	0	265.395	0	168.3	4	59.0	4	-1E+10	1	-1E+10	1	-1E+10	1	-1E+10	1	-1E+10	1	-1E+10	1
4901784	232	C	11/10/2021	10:43	-136.523	43.376	0	270.20	0	7.3910	0	37.4880	8	29.327	0	267.872	0	166.4	4	58.3	4	-1E+10	1	-1E+10	1	-1E+10	1	-1E+10	1	-1E+10	1	-1E+10	1
4901784	232	C	11/10/2021	10:43	-136.523	43.376	0	272.90	0	7.3060	0	37.4890	8	29.340	0	270.547	0	163.7	4	57.2	4	-1E+10	1	-1E+10	1	-1E+10	1	-1E+10	1	-1E+10	1	-1E+10	1
4901784	232	C	11/10/2021	10:43	-136.523	43.376	0	275.40	0	7.2230	0	37.4940	8	29.357	0	273.023	0	161.0	4	56.1	4	-1E+10	1	-1E+10	1	-1E+10	1	-1E+10	1	-1E+10	1	-1E+10	1
4901784	232	C	11/10/2021	10:43	-136.523	43.376	0	277.10	0	7.1840	0	37.4950	8	29.363	0	274.708	0	159.3	4	55.5	4	-1E+10	1	-1E+10	1	-1E+10	1	-1E+10	1	-1E+10	1	-1E+10	1
4901784	232	C	11/10/2021	10:43	-136.523	43.376	0	279.70	0	7.1060	0	37.5010	8	29.379	0	277.283	0	156.7	4	54.5	4	-1E+10	1	-1E+10	1	-1E+10	1	-1E+10	1	-1E+10	1	-1E+10	1
4901784	232	C	11/10/2021	10:43	-136.523	43.376	0	282.30	0	7.0760	0	37.5020	8	29.385	0	279.859	0	153.9	4	53.5	4	-1E+10	1	-1E+10	1	-1E+10	1	-1E+10	1	-1E+10	1	-1E+10	1
4901784	232	C	11/10/2021	10:43	-136.523	43.376	0	285.00	0	7.0130	0	37.5130	8	29.403	0	282.534	0	151.2	4	52.5	4	-1E+10	1	-1E+10	1	-1E+10	1	-1E+10	1	-1E+10	1	-1E+10	1
4901784	232	C	11/10/2021	10:43	-136.523	43.376	0	287.60	0	7.0350	0	37.5180	8	29.403	0	285.110	0	148.5	4	51.6	4	-1E+10	1	-1E+10	1	-1E+10	1	-1E+10	1	-1E+10	1	-1E+10	1
4901784	232	C	11/10/2021	10:43	-136.523	43.376	0	290.30	0	7.0100	0	37.5270	8	29.414	0	287.784	0	146.7	4	50.9	4	-1E+10	1	-1E+10	1	-1E+10	1	-1E+10	1	-1E+10	1	-1E+10	1
4901784	232	C	11/10/2021	10:43	-136.523	43.376	0	293.00	0	6.9680	0	37.5300	8	29.423	0	290.459	0	145.1	4	50.4	4	-1E+10	1	-1E+10	1	-1E+10	1	-1E+10	1	-1E+10	1	-1E+10	1
4901784	232	C	11/10/2021	10:43	-136.523	43.376	0	294.70	0	6.9280	0	37.5350	8	29.432	0	292.143	0	144.1	4	50.0	4	-1E+10	1	-1E+10	1	-1E+10	1	-1E+10	1	-1E+10	1	-1E+10	1
4901784	232	C	11/10/2021	10:43	-136.523	43.376	0	297.40	0	6.9170	0	37.5350	8	29.434	0	294.818	0	142.7	4	49.4	4	-1E+10	1	-1E+10	1	-1E+10	1	-1E+10	1	-1E+10	1	-1E+10	1
4901784	232	C	11/10/2021	10:43	-136.523	43.376	0	300.20	0	6.8990	0	37.5410	8	29.441	0	297.592	0	140.9	4	48.8	4	-1E+10	1	-1E+10	1	-1E+10	1	-1E+10	1	-1E+10	1	-1E+10	1
4901784	232	C	11/10/2021	10:43	-136.523	43.376	0	302.00	0	6.9080	0	37.5430	8	29.442	0	299.375	0	139.8	4	48.4	4	-1E+10	1	-1E+10	1	-1E+10	1	-1E+10	1	-1E+10	1	-1E+10	1
4901784	232	C	11/10/2021	10:43	-136.523	43.376	0	304.80	0	6.8700	0	37.5470	8	29.450	0	302.148	0	138.2	4	47.9	4	-1E+10	1	-1E+10	1	-1E+10	1	-1E+10	1	-1E+10	1	-1E+10	1
4901784	232	C	11/10/2021	10:43	-136.523	43.376	0	307.60	0	6.8350	0	37.5460	8	29.455	0	304.922	0	136.7	4	47.3	4	-1E+10	1	-1E+10	1	-1E+10	1	-1E+10	1	-1E+10	1	-1E+10	1
4901784	232	C	11/10/2021	10:43	-136.523	43.376	0	309.60	0	6.8000	0	37.5490	8	29.462	0	306.903	0	135.6	4	46.9	4	-1E+10	1	-1E+10	1	-1E+10	1	-1E+10	1	-1E+10	1	-1E+10	1
4901784	232	C	11/10/2021	10:43	-136.523	43.376	0	312.40	0	6.7600	0	37.5510	8	29.469	0	309.676	0	134.0	4	46.3	4	-1E+10	1	-1E+10	1	-1E+10	1	-1E+10	1	-1E+10	1	-1E+10	1
4901784	232	C	11/10/2021	10:43	-136.523	43.376	0	315.20	0	6.7410	0	37.5490	8	29.470	0	312.450	0	132.0	4	45.6	4	-1E+10	1	-1E+10	1	-1E+10	1	-1E+10	1	-1E+10	1	-1E+10	1
4901784	232	C	11/10/2021	10:43	-136.523	43.376	0	317.10	0	6.6960	0	37.5520	8	29.479	0	314.332	0	130.8	4	45.1	4	-1E+10	1	-1E+10	1	-1E+10	1	-1E+10	1	-1E+10	1	-1E+10	1
4901784	232	C	11/10/2021	10:43	-136.523	43.376	0	320.00	0	6.6540	0	37.5550	8	29.488	0	317.204	0	128.9	4	44.4	4	-1E+10	1	-1E+10	1	-1E+10	1	-1E+10	1	-1E+10	1	-1E+10	1
4901784	232	C	11/10/2021	10:43	-136.523	43.376	0	322.80	0	6.6030	0	37.5580	8	29.497	0	319.978	0	127.5	4	43.9	4	-1E+10	1	-1E+10	1	-1E+10	1	-1E+10	1	-1E+10	1	-1E+10	1
4901784	232	C	11/10/2021	10:43	-136.523	43.376	0	324.70	0	6.5590	0	37.5600	8	29.505	0	321.860	0	126.7	4	43.6	4	-1E+10	1	-1E+10	1	-1E+10	1	-1E+10	1	-1E+10	1	-1E+10	1
4901784	232	C	11/10/2021	10:43	-136.523	43.376	0	327.60	0	6.5070	0	37.5590	8	29.511	0	324.732	0	125.7	4	43.2	4	-1E+10	1	-1E+10	1	-1E+10	1	-1E+10	1	-1E+10	1	-1E+10	1
4901784	232	C	11/10/2021	10:43	-136.523	43.376	0	330.40	0	6.4540	0	37.5600	8	29.520	0	327.505	0	124.8	4	42.8	4	-1E+10	1	-1E+10	1	-1E+10	1	-1E+10	1	-1E+10	1	-1E+10	1
4901784	232	C	11/10/2021	10:43	-136.523	43.376	0	332.30	0	6.4290	0	37.5600	8	29.523	0	329.387	0	124.3	4	42.6	4	-1E+10	1	-1E+10	1	-1E+10	1	-1E+10	1	-1E+10	1	-1E+10	1
4901784	232	C	11/10/2021	10:43	-136.523	43.376	0	335.20	0	6.3620	0	37.5630	8	29.535	0	332.259	0	123.8	4	42.4	4	-1E+10	1	-1E+10	1	-1E+10	1	-1E+10	1	-1E+10	1	-1E+10	1
4901784	232	C	11/10/2021	10:43	-136.523	43.376	0	338.50	0	6.3170	0	37.5630	8	29.541	0	335.528	0	123.1	4	42.1	4	-1E+10	1	-1E+10	1	-1E+10	1	-1E+10	1	-1E+10	1	-1E+10	1
4901784	232	C	11/10/2021	10:43	-136.523	43.376	0	339.90	0	6.3010	0	37.5640	8	29.544	0	336.914	0	122.7	4	41.9	4	-1E+10	1	-1E+10	1	-1E+10	1	-1E+10	1	-1E+10	1	-1E+10	1
4901784	232	C	11/10/2021	10:43	-136.523	43.376	0	342.40	0	6.2900	0	37.5650	8	29.546	0	339.390	0	122.0	4	41.7	4	-1E+10	1	-1E+10	1	-1E+10	1	-1E+10	1	-1E+10	1	-1E+10	1
4901784	232	C	11/10/2021	10:43	-136.523	43.376	0	344.80	0	6.2800	0	37.5640	8	29.547	0	341.767	0	120.9	4	41.3	4	-1E+10	1	-1E+10	1	-1E+10	1	-1E+10	1	-1E+10	1	-1E+10	1
4901784	232	C	11/10/2021	10:43	-136.523	43.376	0	347.90	0	6.2480	0	37.5660	8	29.553	0	344.837	0	119.2	4	40.7	4	-1E+10	1	-1E+10	1	-1E+10	1	-1E+10	1	-1E+10	1	-1E+10	1
4901784	232	C	11/10/2021	10:43	-136.523	43.376	0	350.30	0	6.2160	0	37.5690	8	29.560	0	347.214	0	117.7	4	40.2	4	-1E+10	1	-1E+10	1	-1E+10	1	-1E+10	1	-1E+10	1	-1E+10	1
4901784	232	C	11/10/2021	10:43	-136.523	43.376	0	352.80	0	6.1860	0	37.5700	8	29.565	0	349.690	0	116.4	4	39.7	4	-1E+10	1	-1E+10	1	-1E+10	1	-1E+10	1	-1E+10	1	-1E+10	1
4901784	232	C	11/10/2021	10:43	-136.523	43.376	0	355.30	0	6.1180	0	37.5750	8	29.578	0	352.166	0	115.0	4	39.1	4	-1E+10	1	-1E+10	1	-1E+10	1	-1E+10	1	-1E+10	1	-1E+10	1
4901784	232	C	11/10/2021	10:43	-136.523	43.376	0	357.80	0	6.0930	0	37.5780	8	29.584	0	354.642	0	114.0	4	38.8	4	-1E+10	1	-1E+10	1	-1E+10	1	-1E+10	1	-1E+10	1	-1E+10	1
4901784	232	C	11/10/2021	10:43	-136.523	43.376	0	360.30	0	6.0710	0	37.5790	8	29.588	0	357.118	0	113.2	4	38.5	4	-1E+10	1	-1E+10	1	-1E+10	1	-1E+10	1	-1E+10	1	-1E+10	1
4901784	232	C	11/10/2021	10:43	-136.523	43.376	0	362.80	0	6.0470	0	37.5810	8	29.592	0	359.593	0	112.4	4	38.2	4	-1E+10	1	-1E+10	1	-1E+10	1	-1E+10	1	-1E+10	1	-1E+10	1
4901784	232	C	11/10/2021	10:43	-136.523	43.376	0	365.30	0	6.0250	0	37.5800	8	29.595	0	362.069	0	111.5	4	37.9	4	-1E+10	1	-1E+10	1	-1E+10	1	-1E+10	1	-1E+10	1	-1E+10	1
4901784	232	C	11/10/2021	10:43	-136.523	43.376	0	367.80	0	5.9880	0	37.5810	8	29.600	0	364.545	0	110.5	4	37.5	4	-1E+10	1	-1E+10	1	-1E+10	1	-1E+10	1	-1E+10	1	-1E+10	1
4901784	232	C	11/10/2021	10:43	-136.523	43.376	0	370.30	0	5.9440	0	37.5830	8	29.608	0	367.020	0	109.6	4	37.2	4	-1E+10	1	-1E+10	1	-1E+10	1	-1E+10	1	-1E+10	1	-1E+10	1
4901784	232	C	11/10/2021	10:43	-136.523	43.376	0	372.80	0	5.9340	0	37.5840	8	29.610	0	369.496	0	108.6	4	36.8	4	-1E+10	1	-1E+10	1	-1E+10	1	-1E+10	1	-1E+10	1	-1E+10	1
4901784	232	C	11/10/2021	10:43	-136.523	43.376	0	375.30	0	5.9110	0	37.5820	8	29.611	0	371.972	0	107.7	4	36.5	4	-1E+10	1	-1E+10	1	-1E+10	1	-1E+10	1	-1E+10	1	-1E+10	1
4901784	232	C	11/10/2021	10:43	-136.523	43.376	0	377.90	0	5.8670	0	37.5800	8	29.616	0	374.546	0	106.7	4	36.1	4	-1E+10	1	-1E+10	1	-1E+10	1	-1E+10	1	-1E+10	1	-1E+10	1
4901784	232	C	11/10/2021	10:43	-136.523	43.376	0	380.40	0	5.7840	0	37.5830	8	29.629	0	377.022	0	105.2	4	35.5	4	-1E+10	1	-1E+10	1	-1E+10	1	-1E+10	1	-1E+10	1	-1E+10	1
4901784	232	C	11/10/2021	10:43	-136.523	43.376	0	382.10	0	5.7690	0	37.5880	8	29.635	0	378.705	0	104.1	4	35.1	4	-1E+10	1	-1E+10	1	-1E+10	1	-1E+10	1	-1E+10	1	-1E+10	1
4901784	232	C	11/10/2021	10:43	-136.523	43.376	0	384.70	0	5.7500	0	37.5880	8	29.638	0	381.280	0	102.8	4	34.7	4	-1E+10	1	-1E+10	1	-1E+10	1	-1E+10	1	-1E+10	1	-1E+10	1
4901784	232	C	11/10/2021	10:43	-136.523	43.376	0	387.30	0	5.7020	0	37.5900	8	29.646	0	383.854	0	101.2	4	34.1	4	-1E+10	1	-1E+10	1	-1E+10	1	-1E+10	1	-1E+10	1	-1E+10	1
4901784	232	C	11/10/2021	10:43	-136.523	43.376	0	389.90	0	5.6990	0	37.5920	8	29.648	0	386.429	0	99.6	4	33.6	4	-1E+10	1	-1E+10	1	-1E+10	1	-1E+10	1	-1E+10	1	-1E+10	1
4901784	232	C	11/10/2021	10:43	-136.523	43.376	0	392.50	0	5.6730	0	37.5930	8	29.652	0	389.003	0	97.9	4	33.0	4	-1E+10	1	-1E+10	1	-1E+10	1	-1E+10	1	-1E+10	1	-1E+10	1
4901784	232	C	11/10/2021	10:43	-136.523	43.376	0	395.10	0	5.6400	0	37.5950	8	29.658	0	391.577	0	96.2	4	32.4	4	-1E+10	1	-1E+10	1	-1E+10	1	-1E+10	1	-1E+10	1	-1E+10	1
4901784	232	C	11/10/2021	10:43	-136.523	43.376	0	397.60	0	5.6070	0	37.5970	8	29.664	0	394.053	0	94.5	4	31.8	4	-1E+10	1	-1E+10	1	-1E+10	1	-1E+10	1	-1E+10	1	-1E+10	1
4901784	232	C	11/10/2021	10:43	-136.523	43.376	0	400.20	0	5.5470	0	37.6020	8	29.675	0	396.627	0	93.1	4	31.3	4	-1E+10	1	-1E+10	1	-1E+10	1	-1E+10	1	-1E+10	1	-1E+10	1
4901784	232	C	11/10/2021	10:43	-136.523	43.376	0	402.70	0	5.4890	0	37.6070	8	29.687	0	399.102	0	92.5	4	31.0	4	-1E+10	1	-1E+10	1	-1E+10	1	-1E+10	1	-1E+10	1	-1E+10	1
4901784	232	C	11/10/2021	10:43	-136.523	43.376	0	405.30	0	5.4800	0	37.6080	8	29.689	0	401.676	0	91.8	4	30.8	4	-1E+10	1	-1E+10	1	-1E+10	1	-1E+10	1	-1E+10	1	-1E+10	1
4901784	232	C	11/10/2021	10:43	-136.523	43.376	0	408.00	0	5.4700	0	37.6080	8	29.690	0	404.350	0	91.1	4	30.5	4	-1E+10	1	-1E+10	1	-1E+10	1	-1E+10	1	-1E+10	1	-1E+10	1
4901784	232	C	11/10/2021	10:43	-136.523	43.376	0	409.70	0	5.4660	0	37.6060	8	29.689	0	406.033	0	90.3	4	30.3	4	-1E+10	1	-1E+10	1	-1E+10	1	-1E+10	1	-1E+10	1	-1E+10	1
4901784	232	C	11/10/2021	10:43	-136.523	43.376	0	412.40	0	5.4390	0	37.6100	8	29.696	0	408.706	0	89.2	4	29.9	4	-1E+10	1	-1E+10	1	-1E+10	1	-1E+10	1	-1E+10	1	-1E+10	1
4901784	232	C	11/10/2021	10:43	-136.523	43.376	0	415.00	0	5.4290	0	37.6090	8	29.696	0	411.280	0	88.1	4	29.5	4	-1E+10	1	-1E+10	1	-1E+10	1	-1E+10	1	-1E+10	1	-1E+10	1
4901784	232	C	11/10/2021	10:43	-136.523	43.376	0	417.60	0	5.3970	0	37.6100	8	29.701	0	413.854	0	86.5	4	29.0	4	-1E+10	1	-1E+10	1	-1E+10	1	-1E+10	1	-1E+10	1	-1E+10	1
4901784	232	C	11/10/2021	10:43	-136.523	43.376	0	420.20	0	5.3400	0	37.6170	8	29.714	0	416.428	0	85.1	4	28.5	4	-1E+10	1	-1E+10	1	-1E+10	1	-1E+10	1	-1E+10	1	-1E+10	1
4901784	232	C	11/10/2021	10:43	-136.523	43.376	0	422.90	0	5.3090	0	37.6170	8	29.718	0	419.101	0	84.0	4	28.1	4	-1E+10	1	-1E+10	1	-1E+10	1	-1E+10	1	-1E+10	1	-1E+10	1
4901784	232	C	11/10/2021	10:43	-136.523	43.376	0	425.40	0	5.2650	0	37.6200	8	29.726	0	421.576	0	82.8	4	27.6	4	-1E+10	1	-1E+10	1	-1E+10	1	-1E+10	1	-1E+10	1	-1E+10	1
4901784	232	C	11/10/2021	10:43	-136.523	43.376	0	427.10	0	5.2300	0	37.6260	8	29.735	0	423.259	0	82.2	4	27.4	4	-1E+10	1	-1E+10	1	-1E+10	1	-1E+10	1	-1E+10	1	-1E+10	1
4901784	232	C	11/10/2021	10:43	-136.523	43.376	0	429.70	0	5.2120	0	37.6260	8	29.737	0	425.833	0	81.8	4	27.3	4	-1E+10	1	-1E+10	1	-1E+10	1	-1E+10	1	-1E+10	1	-1E+10	1
4901784	232	C	11/10/2021	10:43	-136.523	43.376	0	432.30	0	5.1850	0	37.6290	8	29.743	0	428.407	0	81.2	4	27.1	4	-1E+10	1	-1E+10	1	-1E+10	1	-1E+10	1	-1E+10	1	-1E+10	1
4901784	232	C	11/10/2021	10:43	-136.523	43.376	0	435.00	0	5.1690	0	37.6300	8	29.746	0	431.080	0	80.6	4	26.9	4	-1E+10	1	-1E+10	1	-1E+10	1	-1E+10	1	-1E+10	1	-1E+10	1
4901784	232	C	11/10/2021	10:43	-136.523	43.376	0	437.70	0	5.1570	0	37.6310	8	29.748	0	433.753	0	80.0	4	26.6	4	-1E+10	1	-1E+10	1	-1E+10	1	-1E+10	1	-1E+10	1	-1E+10	1
4901784	232	C	11/10/2021	10:43	-136.523	43.376	0	439.50	0	5.1410	0	37.6340	8	29.753	0	435.535	0	79.5	4	26.5	4	-1E+10	1	-1E+10	1	-1E+10	1	-1E+10	1	-1E+10	1	-1E+10	1
4901784	232	C	11/10/2021	10:43	-136.523	43.376	0	442.20	0	5.1360	0	37.6340	8	29.753	0	438.208	0	78.7	4	26.2	4	-1E+10	1	-1E+10	1	-1E+10	1	-1E+10	1	-1E+10	1	-1E+10	1
4901784	232	C	11/10/2021	10:43	-136.523	43.376	0	444.90	0	5.1170	0	37.6370	8	29.758	0	440.880	0	77.8	4	25.9	4	-1E+10	1	-1E+10	1	-1E+10	1	-1E+10	1	-1E+10	1	-1E+10	1
4901784	232	C	11/10/2021	10:43	-136.523	43.376	0	447.60	0	5.0960	0	37.6410	8	29.764	0	443.553	0	76.8	4	25.6	4	-1E+10	1	-1E+10	1	-1E+10	1	-1E+10	1	-1E+10	1	-1E+10	1
4901784	232	C	11/10/2021	10:43	-136.523	43.376	0	450.20	0	5.0860	0	37.6420	8	29.766	0	446.127	0	76.0	4	25.3	4	-1E+10	1	-1E+10	1	-1E+10	1	-1E+10	1	-1E+10	1	-1E+10	1
4901784	232	C	11/10/2021	10:43	-136.523	43.376	0	451.90	0	5.0800	0	37.6430	8	29.767	0	447.810	0	75.4	4	25.1	4	-1E+10	1	-1E+10	1	-1E+10	1	-1E+10	1	-1E+10	1	-1E+10	1
4901784	232	C	11/10/2021	10:43	-136.523	43.376	0	454.70	0	5.0760	0	37.6440	8	29.769	0	450.581	0	74.4	4	24.7	4	-1E+10	1	-1E+10	1	-1E+10	1	-1E+10	1	-1E+10	1	-1E+10	1
4901784	232	C	11/10/2021	10:43	-136.523	43.376	0	457.30	0	5.0490	0	37.6470	8	29.774	0	453.155	0	73.4	4	24.4	4	-1E+10	1	-1E+10	1	-1E+10	1	-1E+10	1	-1E+10	1	-1E+10	1
4901784	232	C	11/10/2021	10:43	-136.523	43.376	0	459.90	0	5.0280	0	37.6500	8	29.779	0	455.728	0	72.7	4	24.2	4	-1E+10	1	-1E+10	1	-1E+10	1	-1E+10	1	-1E+10	1	-1E+10	1
4901784	232	C	11/10/2021	10:43	-136.523	43.376	0	462.60	0	5.0090	0	37.6520	8	29.783	0	458.401	0	72.0	4	23.9	4	-1E+10	1	-1E+10	1	-1E+10	1	-1E+10	1	-1E+10	1	-1E+10	1
4901784	232	C	11/10/2021	10:43	-136.523	43.376	0	465.30	0	4.9840	0	37.6540	8	29.788	0	461.073	0	71.3	4	23.6	4	-1E+10	1	-1E+10	1	-1E+10	1	-1E+10	1	-1E+10	1	-1E+10	1
4901784	232	C	11/10/2021	10:43	-136.523	43.376	0	467.90	0	4.9650	0	37.6560	8	29.792	0	463.647	0	70.4	4	23.3	4	-1E+10	1	-1E+10	1	-1E+10	1	-1E+10	1	-1E+10	1	-1E+10	1
4901784	232	C	11/10/2021	10:43	-136.523	43.376	0	469.60	0	4.9500	0	37.6580	8	29.796	0	465.330	0	69.7	4	23.1	4	-1E+10	1	-1E+10	1	-1E+10	1	-1E+10	1	-1E+10	1	-1E+10	1
4901784	232	C	11/10/2021	10:43	-136.523	43.376	0	472.20	0	4.9260	0	37.6610	8	29.801	0	467.903	0	68.8	4	22.8	4	-1E+10	1	-1E+10	1	-1E+10	1	-1E+10	1	-1E+10	1	-1E+10	1
4901784	232	C	11/10/2021	10:43	-136.523	43.376	0	474.90	0	4.9030	0	37.6640	8	29.806	0	470.575	0	68.0	4	22.5	4	-1E+10	1	-1E+10	1	-1E+10	1	-1E+10	1	-1E+10	1	-1E+10	1
4901784	232	C	11/10/2021	10:43	-136.523	43.376	0	477.60	0	4.8810	0	37.6670	8	29.811	0	473.248	0	67.0	4	22.2	4	-1E+10	1	-1E+10	1	-1E+10	1	-1E+10	1	-1E+10	1	-1E+10	1
4901784	232	C	11/10/2021	10:43	-136.523	43.376	0	480.30	0	4.8470	0	37.6730	8	29.820	0	475.920	0	65.9	4	21.8	4	-1E+10	1	-1E+10	1	-1E+10	1	-1E+10	1	-1E+10	1	-1E+10	1
4901784	232	C	11/10/2021	10:43	-136.523	43.376	0	482.10	0	4.8270	0	37.6770	8	29.826	0	477.702	0	65.4	4	21.6	4	-1E+10	1	-1E+10	1	-1E+10	1	-1E+10	1	-1E+10	1	-1E+10	1
4901784	232	C	11/10/2021	10:43	-136.523	43.376	0	484.70	0	4.8230	0	37.6780	8	29.827	0	480.275	0	64.9	4	21.4	4	-1E+10	1	-1E+10	1	-1E+10	1	-1E+10	1	-1E+10	1	-1E+10	1
4901784	232	C	11/10/2021	10:43	-136.523	43.376	0	487.30	0	4.8110	0	37.6800	8	29.830	0	482.848	0	64.2	4	21.2	4	-1E+10	1	-1E+10	1	-1E+10	1	-1E+10	1	-1E+10	1	-1E+10	1
4901784	232	C	11/10/2021	10:43	-136.523	43.376	0	490.00	0	4.7970	0	37.6820	8	29.833	0	485.520	0	63.5	4	21.0	4	-1E+10	1	-1E+10	1	-1E+10	1	-1E+10	1	-1E+10	1	-1E+10	1
4901784	232	C	11/10/2021	10:43	-136.523	43.376	0	492.70	0	4.7830	0	37.6860	8	29.838	0	488.192	0	62.7	4	20.7	4	-1E+10	1	-1E+10	1	-1E+10	1	-1E+10	1	-1E+10	1	-1E+10	1
4901784	232	C	11/10/2021	10:43	-136.523	43.376	0	495.40	0	4.7780	0	37.6880	8	29.840	0	490.865	0	62.1	4	20.5	4	-1E+10	1	-1E+10	1	-1E+10	1	-1E+10	1	-1E+10	1	-1E+10	1
4901784	232	C	11/10/2021	10:43	-136.523	43.376	0	498.00	0	4.7710	0	37.6880	8	29.841	0	493.438	0	61.4	4	20.3	4	-1E+10	1	-1E+10	1	-1E+10	1	-1E+10	1	-1E+10	1	-1E+10	1
4901784	232	C	11/10/2021	10:43	-136.523	43.376	0	499.80	0	4.7640	0	37.6890	8	29.843	0	495.219	0	60.7	4	20.0	4	-1E+10	1	-1E+10	1	-1E+10	1	-1E+10	1	-1E+10	1	-1E+10	1
4901784	232	C	11/10/2021	10:43	-136.523	43.376	0	505.20	0	4.7340	0	37.6980	8	29.854	0	500.563	0	58.4	4	19.3	4	-1E+10	1	-1E+10	1	-1E+10	1	-1E+10	1	-1E+10	1	-1E+10	1
4901784	232	C	11/10/2021	10:43	-136.523	43.376	0	510.60	0	4.7140	0	37.7030	8	29.860	0	505.907	0	56.7	4	18.7	4	-1E+10	1	-1E+10	1	-1E+10	1	-1E+10	1	-1E+10	1	-1E+10	1
4901784	232	C	11/10/2021	10:43	-136.523	43.376	0	515.10	0	4.6990	0	37.7070	8	29.865	0	510.360	0	55.2	4	18.2	4	-1E+10	1	-1E+10	1	-1E+10	1	-1E+10	1	-1E+10	1	-1E+10	1
4901784	232	C	11/10/2021	10:43	-136.523	43.376	0	519.60	0	4.6700	0	37.7130	8	29.874	0	514.813	0	53.5	4	17.6	4	-1E+10	1	-1E+10	1	-1E+10	1	-1E+10	1	-1E+10	1	-1E+10	1
4901784	232	C	11/10/2021	10:43	-136.523	43.376	0	525.00	0	4.6420	0	37.7200	8	29.882	0	520.156	0	51.6	4	17.0	4	-1E+10	1	-1E+10	1	-1E+10	1	-1E+10	1	-1E+10	1	-1E+10	1
4901784	232	C	11/10/2021	10:43	-136.523	43.376	0	530.50	0	4.6120	0	37.7290	8	29.893	0	525.599	0	49.8	4	16.4	4	-1E+10	1	-1E+10	1	-1E+10	1	-1E+10	1	-1E+10	1	-1E+10	1
4901784	232	C	11/10/2021	10:43	-136.523	43.376	0	535.20	0	4.5890	0	37.7350	8	29.901	0	530.249	0	48.6	4	16.0	4	-1E+10	1	-1E+10	1	-1E+10	1	-1E+10	1	-1E+10	1	-1E+10	1
4901784	232	C	11/10/2021	10:43	-136.523	43.376	0	539.80	0	4.5760	0	37.7400	8	29.906	0	534.801	0	47.2	4	15.5	4	-1E+10	1	-1E+10	1	-1E+10	1	-1E+10	1	-1E+10	1	-1E+10	1
4901784	232	C	11/10/2021	10:43	-136.523	43.376	0	545.50	0	4.5610	0	37.7450	8	29.912	0	540.441	0	45.8	4	15.1	4	-1E+10	1	-1E+10	1	-1E+10	1	-1E+10	1	-1E+10	1	-1E+10	1
4901784	232	C	11/10/2021	10:43	-136.523	43.376	0	550.40	0	4.5480	0	37.7500	8	29.918	0	545.289	0	44.5	4	14.6	4	-1E+10	1	-1E+10	1	-1E+10	1	-1E+10	1	-1E+10	1	-1E+10	1
4901784	232	C	11/10/2021	10:43	-136.523	43.376	0	554.70	0	4.5310	0	37.7550	8	29.924	0	549.543	0	42.8	4	14.0	4	-1E+10	1	-1E+10	1	-1E+10	1	-1E+10	1	-1E+10	1	-1E+10	1
4901784	232	C	11/10/2021	10:43	-136.523	43.376	0	559.60	0	4.5160	0	37.7630	8	29.932	0	554.391	0	41.0	4	13.5	4	-1E+10	1	-1E+10	1	-1E+10	1	-1E+10	1	-1E+10	1	-1E+10	1
4901784	232	C	11/10/2021	10:43	-136.523	43.376	0	564.50	0	4.4950	0	37.7700	8	29.940	0	559.239	0	39.6	4	13.0	4	-1E+10	1	-1E+10	1	-1E+10	1	-1E+10	1	-1E+10	1	-1E+10	1
4901784	232	C	11/10/2021	10:43	-136.523	43.376	0	569.40	0	4.4740	0	37.7770	8	29.948	0	564.087	0	38.6	4	12.7	4	-1E+10	1	-1E+10	1	-1E+10	1	-1E+10	1	-1E+10	1	-1E+10	1
4901784	232	C	11/10/2021	10:43	-136.523	43.376	0	574.40	0	4.4520	0	37.7830	8	29.955	0	569.033	0	37.8	4	12.4	4	-1E+10	1	-1E+10	1	-1E+10	1	-1E+10	1	-1E+10	1	-1E+10	1
4901784	232	C	11/10/2021	10:43	-136.523	43.376	0	579.40	0	4.4320	0	37.7880	8	29.962	0	573.980	0	36.8	4	12.1	4	-1E+10	1	-1E+10	1	-1E+10	1	-1E+10	1	-1E+10	1	-1E+10	1
4901784	232	C	11/10/2021	10:43	-136.523	43.376	0	584.50	0	4.4090	0	37.7920	8	29.968	0	579.025	0	35.6	4	11.6	4	-1E+10	1	-1E+10	1	-1E+10	1	-1E+10	1	-1E+10	1	-1E+10	1
4901784	232	C	11/10/2021	10:43	-136.523	43.376	0	589.50	0	4.3900	0	37.8020	8	29.978	0	583.971	0	33.5	4	11.0	4	-1E+10	1	-1E+10	1	-1E+10	1	-1E+10	1	-1E+10	1	-1E+10	1
4901784	232	C	11/10/2021	10:43	-136.523	43.376	0	594.70	0	4.3680	0	37.8130	8	29.989	0	589.115	0	31.7	4	10.4	4	-1E+10	1	-1E+10	1	-1E+10	1	-1E+10	1	-1E+10	1	-1E+10	1
4901784	232	C	11/10/2021	10:43	-136.523	43.376	0	599.90	0	4.3560	0	37.8200	8	29.996	0	594.259	0	30.4	4	10.0	4	-1E+10	1	-1E+10	1	-1E+10	1	-1E+10	1	-1E+10	1	-1E+10	1
4901784	232	C	11/10/2021	10:43	-136.523	43.376	0	605.20	0	4.3430	0	37.8270	8	30.003	0	599.501	0	29.3	4	9.6	4	-1E+10	1	-1E+10	1	-1E+10	1	-1E+10	1	-1E+10	1	-1E+10	1
4901784	232	C	11/10/2021	10:43	-136.523	43.376	0	610.50	0	4.3290	0	37.8330	8	30.010	0	604.743	0	28.1	4	9.2	4	-1E+10	1	-1E+10	1	-1E+10	1	-1E+10	1	-1E+10	1	-1E+10	1
4901784	232	C	11/10/2021	10:43	-136.523	43.376	0	615.00	0	4.3110	0	37.8390	8	30.017	0	609.194	0	27.2	4	8.9	4	-1E+10	1	-1E+10	1	-1E+10	1	-1E+10	1	-1E+10	1	-1E+10	1
4901784	232	C	11/10/2021	10:43	-136.523	43.376	0	619.50	0	4.2910	0	37.8460	8	30.025	0	613.645	0	26.5	4	8.6	4	-1E+10	1	-1E+10	1	-1E+10	1	-1E+10	1	-1E+10	1	-1E+10	1
4901784	232	C	11/10/2021	10:43	-136.523	43.376	0	625.00	0	4.2800	0	37.8520	8	30.031	0	619.085	0	25.5	4	8.3	4	-1E+10	1	-1E+10	1	-1E+10	1	-1E+10	1	-1E+10	1	-1E+10	1
4901784	232	C	11/10/2021	10:43	-136.523	43.376	0	630.50	0	4.2720	0	37.8580	8	30.037	0	624.525	0	24.7	4	8.1	4	-1E+10	1	-1E+10	1	-1E+10	1	-1E+10	1	-1E+10	1	-1E+10	1
4901784	232	C	11/10/2021	10:43	-136.523	43.376	0	635.20	0	4.2700	0	37.8610	8	30.039	0	629.173	0	24.1	4	7.9	4	-1E+10	1	-1E+10	1	-1E+10	1	-1E+10	1	-1E+10	1	-1E+10	1
4901784	232	C	11/10/2021	10:43	-136.523	43.376	0	639.80	0	4.2640	0	37.8650	8	30.043	0	633.723	0	23.2	4	7.6	4	-1E+10	1	-1E+10	1	-1E+10	1	-1E+10	1	-1E+10	1	-1E+10	1
4901784	232	C	11/10/2021	10:43	-136.523	43.376	0	645.40	0	4.2450	0	37.8730	8	30.052	0	639.261	0	22.2	4	7.2	4	-1E+10	1	-1E+10	1	-1E+10	1	-1E+10	1	-1E+10	1	-1E+10	1
4901784	232	C	11/10/2021	10:43	-136.523	43.376	0	650.00	0	4.2280	0	37.8800	8	30.059	0	643.810	0	21.4	4	7.0	4	-1E+10	1	-1E+10	1	-1E+10	1	-1E+10	1	-1E+10	1	-1E+10	1
4901784	232	C	11/10/2021	10:43	-136.523	43.376	0	654.70	0	4.2150	0	37.8860	8	30.066	0	648.458	0	20.8	4	6.8	4	-1E+10	1	-1E+10	1	-1E+10	1	-1E+10	1	-1E+10	1	-1E+10	1
4901784	232	C	11/10/2021	10:43	-136.523	43.376	0	660.40	0	4.2030	0	37.8920	8	30.072	0	654.095	0	20.2	4	6.6	4	-1E+10	1	-1E+10	1	-1E+10	1	-1E+10	1	-1E+10	1	-1E+10	1
4901784	232	C	11/10/2021	10:43	-136.523	43.376	0	665.90	0	4.1870	0	37.8980	8	30.078	0	659.533	0	19.7	4	6.4	4	-1E+10	1	-1E+10	1	-1E+10	1	-1E+10	1	-1E+10	1	-1E+10	1
4901784	232	C	11/10/2021	10:43	-136.523	43.376	0	670.30	0	4.1800	0	37.9020	8	30.082	0	663.884	0	19.2	4	6.3	4	-1E+10	1	-1E+10	1	-1E+10	1	-1E+10	1	-1E+10	1	-1E+10	1
4901784	232	C	11/10/2021	10:43	-136.523	43.376	0	675.00	0	4.1740	0	37.9080	8	30.088	0	668.532	0	18.8	4	6.1	4	-1E+10	1	-1E+10	1	-1E+10	1	-1E+10	1	-1E+10	1	-1E+10	1
4901784	232	C	11/10/2021	10:43	-136.523	43.376	0	679.90	0	4.1610	0	37.9100	8	30.091	0	673.377	0	18.6	4	6.0	4	-1E+10	1	-1E+10	1	-1E+10	1	-1E+10	1	-1E+10	1	-1E+10	1
4901784	232	C	11/10/2021	10:43	-136.523	43.376	0	684.70	0	4.1500	0	37.9140	8	30.096	0	678.123	0	17.9	4	5.8	4	-1E+10	1	-1E+10	1	-1E+10	1	-1E+10	1	-1E+10	1	-1E+10	1
4901784	232	C	11/10/2021	10:43	-136.523	43.376	0	689.60	0	4.1430	0	37.9230	8	30.104	0	682.968	0	17.3	4	5.6	4	-1E+10	1	-1E+10	1	-1E+10	1	-1E+10	1	-1E+10	1	-1E+10	1
4901784	232	C	11/10/2021	10:43	-136.523	43.376	0	694.60	0	4.1440	0	37.9270	8	30.107	0	687.912	0	17.0	4	5.6	4	-1E+10	1	-1E+10	1	-1E+10	1	-1E+10	1	-1E+10	1	-1E+10	1
4901784	232	C	11/10/2021	10:43	-136.523	43.376	0	699.50	0	4.1220	0	37.9300	8	30.112	0	692.756	0	17.0	4	5.5	4	-1E+10	1	-1E+10	1	-1E+10	1	-1E+10	1	-1E+10	1	-1E+10	1
4901784	232	C	11/10/2021	10:43	-136.523	43.376	0	704.40	0	4.0990	0	37.9340	8	30.117	0	697.601	0	16.6	4	5.4	4	-1E+10	1	-1E+10	1	-1E+10	1	-1E+10	1	-1E+10	1	-1E+10	1
4901784	232	C	11/10/2021	10:43	-136.523	43.376	0	709.40	0	4.0960	0	37.9420	8	30.124	0	702.544	0	15.8	4	5.1	4	-1E+10	1	-1E+10	1	-1E+10	1	-1E+10	1	-1E+10	1	-1E+10	1
4901784	232	C	11/10/2021	10:43	-136.523	43.376	0	714.50	0	4.1010	0	37.9490	8	30.129	0	707.586	0	15.2	4	4.9	4	-1E+10	1	-1E+10	1	-1E+10	1	-1E+10	1	-1E+10	1	-1E+10	1
4901784	232	C	11/10/2021	10:43	-136.523	43.376	0	719.40	0	4.0970	0	37.9540	8	30.134	0	712.431	0	14.9	4	4.8	4	-1E+10	1	-1E+10	1	-1E+10	1	-1E+10	1	-1E+10	1	-1E+10	1
4901784	232	C	11/10/2021	10:43	-136.523	43.376	0	724.40	0	4.0860	0	37.9580	8	30.138	0	717.374	0	14.6	4	4.7	4	-1E+10	1	-1E+10	1	-1E+10	1	-1E+10	1	-1E+10	1	-1E+10	1
4901784	232	C	11/10/2021	10:43	-136.523	43.376	0	729.40	0	4.0760	0	37.9630	8	30.143	0	722.316	0	14.3	4	4.7	4	-1E+10	1	-1E+10	1	-1E+10	1	-1E+10	1	-1E+10	1	-1E+10	1
4901784	232	C	11/10/2021	10:43	-136.523	43.376	0	734.40	0	4.0640	0	37.9680	8	30.149	0	727.259	0	14.0	4	4.6	4	-1E+10	1	-1E+10	1	-1E+10	1	-1E+10	1	-1E+10	1	-1E+10	1
4901784	232	C	11/10/2021	10:43	-136.523	43.376	0	739.40	0	4.0600	0	37.9720	8	30.152	0	732.202	0	13.7	4	4.5	4	-1E+10	1	-1E+10	1	-1E+10	1	-1E+10	1	-1E+10	1	-1E+10	1
4901784	232	C	11/10/2021	10:43	-136.523	43.376	0	744.40	0	4.0430	0	37.9770	8	30.158	0	737.144	0	13.5	4	4.4	4	-1E+10	1	-1E+10	1	-1E+10	1	-1E+10	1	-1E+10	1	-1E+10	1
4901784	232	C	11/10/2021	10:43	-136.523	43.376	0	749.40	0	4.0320	0	37.9820	8	30.164	0	742.087	0	13.4	4	4.4	4	-1E+10	1	-1E+10	1	-1E+10	1	-1E+10	1	-1E+10	1	-1E+10	1
4901784	232	C	11/10/2021	10:43	-136.523	43.376	0	754.60	0	4.0120	0	37.9850	8	30.168	0	747.226	0	13.3	4	4.3	4	-1E+10	1	-1E+10	1	-1E+10	1	-1E+10	1	-1E+10	1	-1E+10	1
4901784	232	C	11/10/2021	10:43	-136.523	43.376	0	759.70	0	4.0020	0	37.9890	8	30.173	0	752.267	0	13.1	4	4.3	4	-1E+10	1	-1E+10	1	-1E+10	1	-1E+10	1	-1E+10	1	-1E+10	1
4901784	232	C	11/10/2021	10:43	-136.523	43.376	0	764.90	0	3.9880	0	37.9940	8	30.178	0	757.407	0	12.9	4	4.2	4	-1E+10	1	-1E+10	1	-1E+10	1	-1E+10	1	-1E+10	1	-1E+10	1
4901784	232	C	11/10/2021	10:43	-136.523	43.376	0	770.00	0	3.9800	0	37.9970	8	30.182	0	762.448	0	12.7	4	4.1	4	-1E+10	1	-1E+10	1	-1E+10	1	-1E+10	1	-1E+10	1	-1E+10	1
4901784	232	C	11/10/2021	10:43	-136.523	43.376	0	775.20	0	3.9780	0	38.0020	8	30.186	0	767.587	0	12.5	4	4.1	4	-1E+10	1	-1E+10	1	-1E+10	1	-1E+10	1	-1E+10	1	-1E+10	1
4901784	232	C	11/10/2021	10:43	-136.523	43.376	0	780.40	0	3.9700	0	38.0050	8	30.189	0	772.727	0	12.3	4	4.0	4	-1E+10	1	-1E+10	1	-1E+10	1	-1E+10	1	-1E+10	1	-1E+10	1
4901784	232	C	11/10/2021	10:43	-136.523	43.376	0	785.70	0	3.9580	0	38.0100	8	30.195	0	777.965	0	12.2	4	4.0	4	-1E+10	1	-1E+10	1	-1E+10	1	-1E+10	1	-1E+10	1	-1E+10	1
4901784	232	C	11/10/2021	10:43	-136.523	43.376	0	790.10	0	3.9420	0	38.0130	8	30.199	0	782.313	0	12.1	4	3.9	4	-1E+10	1	-1E+10	1	-1E+10	1	-1E+10	1	-1E+10	1	-1E+10	1
4901784	232	C	11/10/2021	10:43	-136.523	43.376	0	794.60	0	3.9280	0	38.0170	8	30.204	0	786.760	0	11.9	4	3.9	4	-1E+10	1	-1E+10	1	-1E+10	1	-1E+10	1	-1E+10	1	-1E+10	1
4901784	232	C	11/10/2021	10:43	-136.523	43.376	0	800.00	0	3.9120	0	38.0230	8	30.210	0	792.097	0	11.8	4	3.8	4	-1E+10	1	-1E+10	1	-1E+10	1	-1E+10	1	-1E+10	1	-1E+10	1
4901784	232	C	11/10/2021	10:43	-136.523	43.376	0	805.30	0	3.9120	0	38.0270	8	30.213	0	797.334	0	11.6	4	3.8	4	-1E+10	1	-1E+10	1	-1E+10	1	-1E+10	1	-1E+10	1	-1E+10	1
4901784	232	C	11/10/2021	10:43	-136.523	43.376	0	810.60	0	3.9110	0	38.0300	8	30.216	0	802.572	0	11.5	4	3.7	4	-1E+10	1	-1E+10	1	-1E+10	1	-1E+10	1	-1E+10	1	-1E+10	1
4901784	232	C	11/10/2021	10:43	-136.523	43.376	0	815.10	0	3.9120	0	38.0320	8	30.217	0	807.018	0	11.3	4	3.7	4	-1E+10	1	-1E+10	1	-1E+10	1	-1E+10	1	-1E+10	1	-1E+10	1
4901784	232	C	11/10/2021	10:43	-136.523	43.376	0	819.60	0	3.9060	0	38.0360	8	30.221	0	811.465	0	11.2	4	3.6	4	-1E+10	1	-1E+10	1	-1E+10	1	-1E+10	1	-1E+10	1	-1E+10	1
4901784	232	C	11/10/2021	10:43	-136.523	43.376	0	824.90	0	3.8900	0	38.0410	8	30.227	0	816.702	0	11.1	4	3.6	4	-1E+10	1	-1E+10	1	-1E+10	1	-1E+10	1	-1E+10	1	-1E+10	1
4901784	232	C	11/10/2021	10:43	-136.523	43.376	0	830.30	0	3.8710	0	38.0460	8	30.233	0	822.038	0	10.9	4	3.5	4	-1E+10	1	-1E+10	1	-1E+10	1	-1E+10	1	-1E+10	1	-1E+10	1
4901784	232	C	11/10/2021	10:43	-136.523	43.376	0	834.90	0	3.8770	0	38.0510	8	30.237	0	826.583	0	10.8	4	3.5	4	-1E+10	1	-1E+10	1	-1E+10	1	-1E+10	1	-1E+10	1	-1E+10	1
4901784	232	C	11/10/2021	10:43	-136.523	43.376	0	839.40	0	3.8620	0	38.0550	8	30.242	0	831.029	0	10.6	4	3.4	4	-1E+10	1	-1E+10	1	-1E+10	1	-1E+10	1	-1E+10	1	-1E+10	1
4901784	232	C	11/10/2021	10:43	-136.523	43.376	0	844.90	0	3.8600	0	38.0610	8	30.247	0	836.463	0	10.5	4	3.4	4	-1E+10	1	-1E+10	1	-1E+10	1	-1E+10	1	-1E+10	1	-1E+10	1
4901784	232	C	11/10/2021	10:43	-136.523	43.376	0	850.40	0	3.8560	0	38.0640	8	30.250	0	841.897	0	10.4	4	3.4	4	-1E+10	1	-1E+10	1	-1E+10	1	-1E+10	1	-1E+10	1	-1E+10	1
4901784	232	C	11/10/2021	10:43	-136.523	43.376	0	855.00	0	3.8520	0	38.0660	8	30.252	0	846.442	0	10.4	4	3.4	4	-1E+10	1	-1E+10	1	-1E+10	1	-1E+10	1	-1E+10	1	-1E+10	1
4901784	232	C	11/10/2021	10:43	-136.523	43.376	0	859.70	0	3.8390	0	38.0690	8	30.255	0	851.085	0	10.4	4	3.4	4	-1E+10	1	-1E+10	1	-1E+10	1	-1E+10	1	-1E+10	1	-1E+10	1
4901784	232	C	11/10/2021	10:43	-136.523	43.376	0	865.30	0	3.8190	0	38.0730	8	30.261	0	856.618	0	10.3	4	3.3	4	-1E+10	1	-1E+10	1	-1E+10	1	-1E+10	1	-1E+10	1	-1E+10	1
4901784	232	C	11/10/2021	10:43	-136.523	43.376	0	870.00	0	3.8030	0	38.0780	8	30.267	0	861.261	0	10.3	4	3.3	4	-1E+10	1	-1E+10	1	-1E+10	1	-1E+10	1	-1E+10	1	-1E+10	1
4901784	232	C	11/10/2021	10:43	-136.523	43.376	0	874.70	0	3.7910	0	38.0800	8	30.270	0	865.904	0	10.3	4	3.3	4	-1E+10	1	-1E+10	1	-1E+10	1	-1E+10	1	-1E+10	1	-1E+10	1
4901784	232	C	11/10/2021	10:43	-136.523	43.376	0	880.20	0	3.7840	0	38.0840	8	30.274	0	871.337	0	10.2	4	3.3	4	-1E+10	1	-1E+10	1	-1E+10	1	-1E+10	1	-1E+10	1	-1E+10	1
4901784	232	C	11/10/2021	10:43	-136.523	43.376	0	884.80	0	3.7730	0	38.0860	8	30.276	0	875.881	0	10.2	4	3.3	4	-1E+10	1	-1E+10	1	-1E+10	1	-1E+10	1	-1E+10	1	-1E+10	1
4901784	232	C	11/10/2021	10:43	-136.523	43.376	0	889.50	0	3.7800	0	38.0880	8	30.277	0	880.524	0	10.2	4	3.3	4	-1E+10	1	-1E+10	1	-1E+10	1	-1E+10	1	-1E+10	1	-1E+10	1
4901784	232	C	11/10/2021	10:43	-136.523	43.376	0	895.10	0	3.7670	0	38.0890	8	30.280	0	886.056	0	10.2	4	3.3	4	-1E+10	1	-1E+10	1	-1E+10	1	-1E+10	1	-1E+10	1	-1E+10	1
4901784	232	C	11/10/2021	10:43	-136.523	43.376	0	899.80	0	3.7410	0	38.0940	8	30.286	0	890.698	0	10.2	4	3.3	4	-1E+10	1	-1E+10	1	-1E+10	1	-1E+10	1	-1E+10	1	-1E+10	1
4901784	232	C	11/10/2021	10:43	-136.523	43.376	0	904.40	0	3.7280	0	38.0950	8	30.289	0	895.242	0	10.2	4	3.3	4	-1E+10	1	-1E+10	1	-1E+10	1	-1E+10	1	-1E+10	1	-1E+10	1
4901784	232	C	11/10/2021	10:43	-136.523	43.376	0	910.10	0	3.7110	0	38.1000	8	30.295	0	900.872	0	10.1	4	3.2	4	-1E+10	1	-1E+10	1	-1E+10	1	-1E+10	1	-1E+10	1	-1E+10	1
4901784	232	C	11/10/2021	10:43	-136.523	43.376	0	915.40	0	3.7250	0	38.1080	8	30.300	0	906.107	0	9.9	4	3.2	4	-1E+10	1	-1E+10	1	-1E+10	1	-1E+10	1	-1E+10	1	-1E+10	1
4901784	232	C	11/10/2021	10:43	-136.523	43.376	0	920.20	0	3.7160	0	38.1110	8	30.303	0	910.848	0	9.9	4	3.2	4	-1E+10	1	-1E+10	1	-1E+10	1	-1E+10	1	-1E+10	1	-1E+10	1
4901784	232	C	11/10/2021	10:43	-136.523	43.376	0	925.00	0	3.7080	0	38.1140	8	30.306	0	915.588	0	9.9	4	3.2	4	-1E+10	1	-1E+10	1	-1E+10	1	-1E+10	1	-1E+10	1	-1E+10	1
4901784	232	C	11/10/2021	10:43	-136.523	43.376	0	929.80	0	3.6920	0	38.1150	8	30.309	0	920.329	0	9.9	4	3.2	4	-1E+10	1	-1E+10	1	-1E+10	1	-1E+10	1	-1E+10	1	-1E+10	1
4901784	232	C	11/10/2021	10:43	-136.523	43.376	0	934.70	0	3.6850	0	38.1170	8	30.311	0	925.168	0	9.9	4	3.2	4	-1E+10	1	-1E+10	1	-1E+10	1	-1E+10	1	-1E+10	1	-1E+10	1
4901784	232	C	11/10/2021	10:43	-136.523	43.376	0	939.70	0	3.6780	0	38.1210	8	30.315	0	930.106	0	9.9	4	3.2	4	-1E+10	1	-1E+10	1	-1E+10	1	-1E+10	1	-1E+10	1	-1E+10	1
4901784	232	C	11/10/2021	10:43	-136.523	43.376	0	944.70	0	3.6690	0	38.1250	8	30.319	0	935.044	0	9.9	4	3.2	4	-1E+10	1	-1E+10	1	-1E+10	1	-1E+10	1	-1E+10	1	-1E+10	1
4901784	232	C	11/10/2021	10:43	-136.523	43.376	0	949.70	0	3.6500	0	38.1270	8	30.323	0	939.982	0	9.9	4	3.2	4	-1E+10	1	-1E+10	1	-1E+10	1	-1E+10	1	-1E+10	1	-1E+10	1
4901784	232	C	11/10/2021	10:43	-136.523	43.376	0	954.70	0	3.6360	0	38.1310	8	30.328	0	944.919	0	9.9	4	3.2	4	-1E+10	1	-1E+10	1	-1E+10	1	-1E+10	1	-1E+10	1	-1E+10	1
4901784	232	C	11/10/2021	10:43	-136.523	43.376	0	959.80	0	3.6320	0	38.1340	8	30.331	0	949.955	0	9.9	4	3.2	4	-1E+10	1	-1E+10	1	-1E+10	1	-1E+10	1	-1E+10	1	-1E+10	1
4901784	232	C	11/10/2021	10:43	-136.523	43.376	0	964.90	0	3.6270	0	38.1380	8	30.335	0	954.991	0	9.8	4	3.2	4	-1E+10	1	-1E+10	1	-1E+10	1	-1E+10	1	-1E+10	1	-1E+10	1
4901784	232	C	11/10/2021	10:43	-136.523	43.376	0	970.00	0	3.6230	0	38.1400	8	30.337	0	960.027	0	9.9	4	3.2	4	-1E+10	1	-1E+10	1	-1E+10	1	-1E+10	1	-1E+10	1	-1E+10	1
4901784	232	C	11/10/2021	10:43	-136.523	43.376	0	975.20	0	3.6150	0	38.1440	8	30.341	0	965.162	0	9.9	4	3.2	4	-1E+10	1	-1E+10	1	-1E+10	1	-1E+10	1	-1E+10	1	-1E+10	1
4901784	232	C	11/10/2021	10:43	-136.523	43.376	0	980.40	0	3.5970	0	38.1470	8	30.345	0	970.296	0	9.9	4	3.2	4	-1E+10	1	-1E+10	1	-1E+10	1	-1E+10	1	-1E+10	1	-1E+10	1
4901784	232	C	11/10/2021	10:43	-136.523	43.376	0	985.60	0	3.5810	0	38.1520	8	30.351	0	975.431	0	9.9	4	3.2	4	-1E+10	1	-1E+10	1	-1E+10	1	-1E+10	1	-1E+10	1	-1E+10	1
4901784	232	C	11/10/2021	10:43	-136.523	43.376	0	990.00	0	3.5800	0	38.1530	8	30.352	0	979.775	0	9.9	4	3.2	4	-1E+10	1	-1E+10	1	-1E+10	1	-1E+10	1	-1E+10	1	-1E+10	1
4901784	232	C	11/10/2021	10:43	-136.523	43.376	0	994.40	0	3.5680	0	38.1540	8	30.354	0	984.119	0	10.0	4	3.2	4	-1E+10	1	-1E+10	1	-1E+10	1	-1E+10	1	-1E+10	1	-1E+10	1
4901784	232	C	11/10/2021	10:43	-136.523	43.376	0	999.70	0	3.5560	0	38.1590	8	30.359	0	989.352	0	10.0	4	3.2	4	-1E+10	1	-1E+10	1	-1E+10	1	-1E+10	1	-1E+10	1	-1E+10	1
4901784	232	C	11/10/2021	10:43	-136.523	43.376	0	1005.00	0	3.5440	0	38.1620	8	30.363	0	994.584	0	10.0	4	3.2	4	-1E+10	1	-1E+10	1	-1E+10	1	-1E+10	1	-1E+10	1	-1E+10	1
4901784	232	C	11/10/2021	10:43	-136.523	43.376	0	1010.30	0	3.5330	0	38.1640	8	30.366	0	999.817	0	10.1	4	3.2	4	-1E+10	1	-1E+10	1	-1E+10	1	-1E+10	1	-1E+10	1	-1E+10	1
4901784	232	C	11/10/2021	10:43	-136.523	43.376	0	1015.70	0	3.5130	0	38.1700	8	30.373	0	1005.148	0	10.1	4	3.3	4	-1E+10	1	-1E+10	1	-1E+10	1	-1E+10	1	-1E+10	1	-1E+10	1
4901784	232	C	11/10/2021	10:43	-136.523	43.376	0	1020.00	0	3.4950	0	38.1730	8	30.377	0	1009.393	0	10.2	4	3.3	4	-1E+10	1	-1E+10	1	-1E+10	1	-1E+10	1	-1E+10	1	-1E+10	1
4901784	232	C	11/10/2021	10:43	-136.523	43.376	0	1024.50	0	3.4850	0	38.1760	8	30.381	0	1013.835	0	10.2	4	3.3	4	-1E+10	1	-1E+10	1	-1E+10	1	-1E+10	1	-1E+10	1	-1E+10	1
4901784	232	C	11/10/2021	10:43	-136.523	43.376	0	1029.90	0	3.4780	0	38.1780	8	30.383	0	1019.166	0	10.2	4	3.3	4	-1E+10	1	-1E+10	1	-1E+10	1	-1E+10	1	-1E+10	1	-1E+10	1
4901784	232	C	11/10/2021	10:43	-136.523	43.376	0	1035.30	0	3.4610	0	38.1810	8	30.387	0	1024.496	0	10.3	4	3.3	4	-1E+10	1	-1E+10	1	-1E+10	1	-1E+10	1	-1E+10	1	-1E+10	1
4901784	232	C	11/10/2021	10:43	-136.523	43.376	0	1039.90	0	3.4530	0	38.1840	8	30.390	0	1029.037	0	10.3	4	3.3	4	-1E+10	1	-1E+10	1	-1E+10	1	-1E+10	1	-1E+10	1	-1E+10	1
4901784	232	C	11/10/2021	10:43	-136.523	43.376	0	1044.40	0	3.4350	0	38.1850	8	30.393	0	1033.479	0	10.4	4	3.3	4	-1E+10	1	-1E+10	1	-1E+10	1	-1E+10	1	-1E+10	1	-1E+10	1
4901784	232	C	11/10/2021	10:43	-136.523	43.376	0	1049.90	0	3.4030	0	38.1870	8	30.398	0	1038.908	0	10.4	4	3.3	4	-1E+10	1	-1E+10	1	-1E+10	1	-1E+10	1	-1E+10	1	-1E+10	1
4901784	232	C	11/10/2021	10:43	-136.523	43.376	0	1055.30	0	3.3880	0	38.1900	8	30.402	0	1044.238	0	10.5	4	3.4	4	-1E+10	1	-1E+10	1	-1E+10	1	-1E+10	1	-1E+10	1	-1E+10	1
4901784	232	C	11/10/2021	10:43	-136.523	43.376	0	1059.90	0	3.3720	0	38.1940	8	30.407	0	1048.778	0	10.6	4	3.4	4	-1E+10	1	-1E+10	1	-1E+10	1	-1E+10	1	-1E+10	1	-1E+10	1
4901784	232	C	11/10/2021	10:43	-136.523	43.376	0	1064.80	0	3.3710	0	38.1990	8	30.411	0	1053.615	0	10.6	4	3.4	4	-1E+10	1	-1E+10	1	-1E+10	1	-1E+10	1	-1E+10	1	-1E+10	1
4901784	232	C	11/10/2021	10:43	-136.523	43.376	0	1070.00	0	3.3680	0	38.2030	8	30.415	0	1058.747	0	10.7	4	3.4	4	-1E+10	1	-1E+10	1	-1E+10	1	-1E+10	1	-1E+10	1	-1E+10	1
4901784	232	C	11/10/2021	10:43	-136.523	43.376	0	1074.80	0	3.3590	0	38.2050	8	30.417	0	1063.484	0	10.8	4	3.4	4	-1E+10	1	-1E+10	1	-1E+10	1	-1E+10	1	-1E+10	1	-1E+10	1
4901784	232	C	11/10/2021	10:43	-136.523	43.376	0	1079.70	0	3.3470	0	38.2060	8	30.419	0	1068.320	0	10.8	4	3.5	4	-1E+10	1	-1E+10	1	-1E+10	1	-1E+10	1	-1E+10	1	-1E+10	1
4901784	232	C	11/10/2021	10:43	-136.523	43.376	0	1084.70	0	3.3280	0	38.2100	8	30.425	0	1073.255	0	10.9	4	3.5	4	-1E+10	1	-1E+10	1	-1E+10	1	-1E+10	1	-1E+10	1	-1E+10	1
4901784	232	C	11/10/2021	10:43	-136.523	43.376	0	1089.60	0	3.3340	0	38.2110	8	30.425	0	1078.090	0	10.9	4	3.5	4	-1E+10	1	-1E+10	1	-1E+10	1	-1E+10	1	-1E+10	1	-1E+10	1
4901784	232	C	11/10/2021	10:43	-136.523	43.376	0	1094.60	0	3.3270	0	38.2130	8	30.427	0	1083.025	0	11.0	4	3.5	4	-1E+10	1	-1E+10	1	-1E+10	1	-1E+10	1	-1E+10	1	-1E+10	1
4901784	232	C	11/10/2021	10:43	-136.523	43.376	0	1099.50	0	3.3160	0	38.2160	8	30.431	0	1087.860	0	11.1	4	3.5	4	-1E+10	1	-1E+10	1	-1E+10	1	-1E+10	1	-1E+10	1	-1E+10	1
4901784	232	C	11/10/2021	10:43	-136.523	43.376	0	1104.50	0	3.3090	0	38.2190	8	30.434	0	1092.794	0	11.1	4	3.6	4	-1E+10	1	-1E+10	1	-1E+10	1	-1E+10	1	-1E+10	1	-1E+10	1
4901784	232	C	11/10/2021	10:43	-136.523	43.376	0	1109.60	0	3.3080	0	38.2210	8	30.436	0	1097.827	0	11.2	4	3.6	4	-1E+10	1	-1E+10	1	-1E+10	1	-1E+10	1	-1E+10	1	-1E+10	1
4901784	232	C	11/10/2021	10:43	-136.523	43.376	0	1114.70	0	3.3060	0	38.2230	8	30.438	0	1102.859	0	11.3	4	3.6	4	-1E+10	1	-1E+10	1	-1E+10	1	-1E+10	1	-1E+10	1	-1E+10	1
4901784	232	C	11/10/2021	10:43	-136.523	43.376	0	1119.70	0	3.3020	0	38.2270	8	30.441	0	1107.793	0	11.4	4	3.7	4	-1E+10	1	-1E+10	1	-1E+10	1	-1E+10	1	-1E+10	1	-1E+10	1
4901784	232	C	11/10/2021	10:43	-136.523	43.376	0	1124.80	0	3.2910	0	38.2300	8	30.445	0	1112.825	0	11.5	4	3.7	4	-1E+10	1	-1E+10	1	-1E+10	1	-1E+10	1	-1E+10	1	-1E+10	1
4901784	232	C	11/10/2021	10:43	-136.523	43.376	0	1129.90	0	3.2840	0	38.2320	8	30.447	0	1117.857	0	11.6	4	3.7	4	-1E+10	1	-1E+10	1	-1E+10	1	-1E+10	1	-1E+10	1	-1E+10	1
4901784	232	C	11/10/2021	10:43	-136.523	43.376	0	1135.10	0	3.2760	0	38.2350	8	30.450	0	1122.988	0	11.7	4	3.8	4	-1E+10	1	-1E+10	1	-1E+10	1	-1E+10	1	-1E+10	1	-1E+10	1
4901784	232	C	11/10/2021	10:43	-136.523	43.376	0	1140.40	0	3.2700	0	38.2360	8	30.452	0	1128.217	0	11.8	4	3.8	4	-1E+10	1	-1E+10	1	-1E+10	1	-1E+10	1	-1E+10	1	-1E+10	1
4901784	232	C	11/10/2021	10:43	-136.523	43.376	0	1145.60	0	3.2590	0	38.2390	8	30.456	0	1133.348	0	11.9	4	3.8	4	-1E+10	1	-1E+10	1	-1E+10	1	-1E+10	1	-1E+10	1	-1E+10	1
4901784	232	C	11/10/2021	10:43	-136.523	43.376	0	1150.10	0	3.2510	0	38.2410	8	30.458	0	1137.787	0	12.0	4	3.8	4	-1E+10	1	-1E+10	1	-1E+10	1	-1E+10	1	-1E+10	1	-1E+10	1
4901784	232	C	11/10/2021	10:43	-136.523	43.376	0	1154.50	0	3.2410	0	38.2430	8	30.461	0	1142.128	0	12.1	4	3.9	4	-1E+10	1	-1E+10	1	-1E+10	1	-1E+10	1	-1E+10	1	-1E+10	1
4901784	232	C	11/10/2021	10:43	-136.523	43.376	0	1159.90	0	3.2290	0	38.2460	8	30.464	0	1147.456	0	12.3	4	3.9	4	-1E+10	1	-1E+10	1	-1E+10	1	-1E+10	1	-1E+10	1	-1E+10	1
4901784	232	C	11/10/2021	10:43	-136.523	43.376	0	1165.40	0	3.2160	0	38.2490	8	30.468	0	1152.882	0	12.4	4	4.0	4	-1E+10	1	-1E+10	1	-1E+10	1	-1E+10	1	-1E+10	1	-1E+10	1
4901784	232	C	11/10/2021	10:43	-136.523	43.376	0	1170.00	0	3.2070	0	38.2520	8	30.471	0	1157.420	0	12.5	4	4.0	4	-1E+10	1	-1E+10	1	-1E+10	1	-1E+10	1	-1E+10	1	-1E+10	1
4901784	232	C	11/10/2021	10:43	-136.523	43.376	0	1174.60	0	3.2000	0	38.2530	8	30.473	0	1161.957	0	12.6	4	4.0	4	-1E+10	1	-1E+10	1	-1E+10	1	-1E+10	1	-1E+10	1	-1E+10	1
4901784	232	C	11/10/2021	10:43	-136.523	43.376	0	1180.00	0	3.1890	0	38.2560	8	30.477	0	1167.284	0	12.7	4	4.1	4	-1E+10	1	-1E+10	1	-1E+10	1	-1E+10	1	-1E+10	1	-1E+10	1
4901784	232	C	11/10/2021	10:43	-136.523	43.376	0	1185.60	0	3.1760	0	38.2590	8	30.480	0	1172.808	0	12.9	4	4.1	4	-1E+10	1	-1E+10	1	-1E+10	1	-1E+10	1	-1E+10	1	-1E+10	1
4901784	232	C	11/10/2021	10:43	-136.523	43.376	0	1190.20	0	3.1690	0	38.2610	8	30.483	0	1177.346	0	12.9	4	4.1	4	-1E+10	1	-1E+10	1	-1E+10	1	-1E+10	1	-1E+10	1	-1E+10	1
4901784	232	C	11/10/2021	10:43	-136.523	43.376	0	1194.80	0	3.1620	0	38.2620	8	30.484	0	1181.883	0	13.0	4	4.2	4	-1E+10	1	-1E+10	1	-1E+10	1	-1E+10	1	-1E+10	1	-1E+10	1
4901784	232	C	11/10/2021	10:43	-136.523	43.376	0	1200.30	0	3.1520	0	38.2640	8	30.487	0	1187.308	0	13.1	4	4.2	4	-1E+10	1	-1E+10	1	-1E+10	1	-1E+10	1	-1E+10	1	-1E+10	1
4901784	232	C	11/10/2021	10:43	-136.523	43.376	0	1204.90	0	3.1470	0	38.2660	8	30.489	0	1191.845	0	13.3	4	4.2	4	-1E+10	1	-1E+10	1	-1E+10	1	-1E+10	1	-1E+10	1	-1E+10	1
4901784	232	C	11/10/2021	10:43	-136.523	43.376	0	1209.50	0	3.1380	0	38.2680	8	30.492	0	1196.383	0	13.4	4	4.3	4	-1E+10	1	-1E+10	1	-1E+10	1	-1E+10	1	-1E+10	1	-1E+10	1
4901784	232	C	11/10/2021	10:43	-136.523	43.376	0	1215.00	0	3.1250	0	38.2700	8	30.495	0	1201.807	0	13.6	4	4.3	4	-1E+10	1	-1E+10	1	-1E+10	1	-1E+10	1	-1E+10	1	-1E+10	1
4901784	232	C	11/10/2021	10:43	-136.523	43.376	0	1219.60	0	3.1110	0	38.2740	8	30.499	0	1206.344	0	13.8	4	4.4	4	-1E+10	1	-1E+10	1	-1E+10	1	-1E+10	1	-1E+10	1	-1E+10	1
4901784	232	C	11/10/2021	10:43	-136.523	43.376	0	1224.10	0	3.1010	0	38.2760	8	30.502	0	1210.782	0	13.9	4	4.4	4	-1E+10	1	-1E+10	1	-1E+10	1	-1E+10	1	-1E+10	1	-1E+10	1
4901784	232	C	11/10/2021	10:43	-136.523	43.376	0	1229.50	0	3.0910	0	38.2780	8	30.505	0	1216.108	0	14.0	4	4.5	4	-1E+10	1	-1E+10	1	-1E+10	1	-1E+10	1	-1E+10	1	-1E+10	1
4901784	232	C	11/10/2021	10:43	-136.523	43.376	0	1234.40	0	3.0810	0	38.2800	8	30.507	0	1220.940	0	14.2	4	4.5	4	-1E+10	1	-1E+10	1	-1E+10	1	-1E+10	1	-1E+10	1	-1E+10	1
4901784	232	C	11/10/2021	10:43	-136.523	43.376	0	1240.00	0	3.0680	0	38.2830	8	30.511	0	1226.463	0	14.4	4	4.6	4	-1E+10	1	-1E+10	1	-1E+10	1	-1E+10	1	-1E+10	1	-1E+10	1
4901784	232	C	11/10/2021	10:43	-136.523	43.376	0	1245.80	0	3.0560	0	38.2860	8	30.515	0	1232.183	0	14.5	4	4.6	4	-1E+10	1	-1E+10	1	-1E+10	1	-1E+10	1	-1E+10	1	-1E+10	1
4901784	232	C	11/10/2021	10:43	-136.523	43.376	0	1250.70	0	3.0450	0	38.2880	8	30.517	0	1237.015	0	14.7	4	4.7	4	-1E+10	1	-1E+10	1	-1E+10	1	-1E+10	1	-1E+10	1	-1E+10	1
4901784	232	C	11/10/2021	10:43	-136.523	43.376	0	1255.70	0	3.0350	0	38.2900	8	30.520	0	1241.945	0	14.8	4	4.7	4	-1E+10	1	-1E+10	1	-1E+10	1	-1E+10	1	-1E+10	1	-1E+10	1
4901784	232	C	11/10/2021	10:43	-136.523	43.376	0	1260.70	0	3.0240	0	38.2920	8	30.523	0	1246.876	0	15.0	4	4.8	4	-1E+10	1	-1E+10	1	-1E+10	1	-1E+10	1	-1E+10	1	-1E+10	1
4901784	232	C	11/10/2021	10:43	-136.523	43.376	0	1265.00	0	3.0150	0	38.2950	8	30.526	0	1251.116	0	15.1	4	4.8	4	-1E+10	1	-1E+10	1	-1E+10	1	-1E+10	1	-1E+10	1	-1E+10	1
4901784	232	C	11/10/2021	10:43	-136.523	43.376	0	1269.20	0	3.0080	0	38.2960	8	30.528	0	1255.257	0	15.2	4	4.8	4	-1E+10	1	-1E+10	1	-1E+10	1	-1E+10	1	-1E+10	1	-1E+10	1
4901784	232	C	11/10/2021	10:43	-136.523	43.376	0	1274.20	0	2.9990	0	38.2970	8	30.529	0	1260.187	0	15.3	4	4.9	4	-1E+10	1	-1E+10	1	-1E+10	1	-1E+10	1	-1E+10	1	-1E+10	1
4901784	232	C	11/10/2021	10:43	-136.523	43.376	0	1279.30	0	2.9890	0	38.2990	8	30.532	0	1265.216	0	15.5	4	4.9	4	-1E+10	1	-1E+10	1	-1E+10	1	-1E+10	1	-1E+10	1	-1E+10	1
4901784	232	C	11/10/2021	10:43	-136.523	43.376	0	1284.40	0	2.9770	0	38.3020	8	30.536	0	1270.244	0	15.6	4	5.0	4	-1E+10	1	-1E+10	1	-1E+10	1	-1E+10	1	-1E+10	1	-1E+10	1
4901784	232	C	11/10/2021	10:43	-136.523	43.376	0	1289.50	0	2.9710	0	38.3030	8	30.537	0	1275.273	0	15.7	4	5.0	4	-1E+10	1	-1E+10	1	-1E+10	1	-1E+10	1	-1E+10	1	-1E+10	1
4901784	232	C	11/10/2021	10:43	-136.523	43.376	0	1294.70	0	2.9660	0	38.3040	8	30.538	0	1280.399	0	15.9	4	5.0	4	-1E+10	1	-1E+10	1	-1E+10	1	-1E+10	1	-1E+10	1	-1E+10	1
4901784	232	C	11/10/2021	10:43	-136.523	43.376	0	1299.90	0	2.9520	0	38.3060	8	30.542	0	1285.526	0	16.0	4	5.1	4	-1E+10	1	-1E+10	1	-1E+10	1	-1E+10	1	-1E+10	1	-1E+10	1
4901784	232	C	11/10/2021	10:43	-136.523	43.376	0	1305.20	0	2.9390	0	38.3090	8	30.545	0	1290.751	0	16.2	4	5.1	4	-1E+10	1	-1E+10	1	-1E+10	1	-1E+10	1	-1E+10	1	-1E+10	1
4901784	232	C	11/10/2021	10:43	-136.523	43.376	0	1310.50	0	2.9320	0	38.3100	8	30.547	0	1295.976	0	16.4	4	5.2	4	-1E+10	1	-1E+10	1	-1E+10	1	-1E+10	1	-1E+10	1	-1E+10	1
4901784	232	C	11/10/2021	10:43	-136.523	43.376	0	1314.90	0	2.9220	0	38.3130	8	30.550	0	1300.314	0	16.5	4	5.2	4	-1E+10	1	-1E+10	1	-1E+10	1	-1E+10	1	-1E+10	1	-1E+10	1
4901784	232	C	11/10/2021	10:43	-136.523	43.376	0	1319.50	0	2.9140	0	38.3140	8	30.552	0	1304.849	0	16.6	4	5.3	4	-1E+10	1	-1E+10	1	-1E+10	1	-1E+10	1	-1E+10	1	-1E+10	1
4901784	232	C	11/10/2021	10:43	-136.523	43.376	0	1324.90	0	2.9070	0	38.3160	8	30.554	0	1310.172	0	16.8	4	5.3	4	-1E+10	1	-1E+10	1	-1E+10	1	-1E+10	1	-1E+10	1	-1E+10	1
4901784	232	C	11/10/2021	10:43	-136.523	43.376	0	1330.30	0	2.8960	0	38.3180	8	30.557	0	1315.495	0	16.9	4	5.4	4	-1E+10	1	-1E+10	1	-1E+10	1	-1E+10	1	-1E+10	1	-1E+10	1
4901784	232	C	11/10/2021	10:43	-136.523	43.376	0	1335.40	0	2.8910	0	38.3190	8	30.558	0	1320.522	0	17.1	4	5.4	4	-1E+10	1	-1E+10	1	-1E+10	1	-1E+10	1	-1E+10	1	-1E+10	1
4901784	232	C	11/10/2021	10:43	-136.523	43.376	0	1339.40	0	2.8840	0	38.3210	8	30.561	0	1324.465	0	17.2	4	5.5	4	-1E+10	1	-1E+10	1	-1E+10	1	-1E+10	1	-1E+10	1	-1E+10	1
4901784	232	C	11/10/2021	10:43	-136.523	43.376	0	1344.90	0	2.8760	0	38.3220	8	30.562	0	1329.887	0	17.4	4	5.5	4	-1E+10	1	-1E+10	1	-1E+10	1	-1E+10	1	-1E+10	1	-1E+10	1
4901784	232	C	11/10/2021	10:43	-136.523	43.376	0	1350.40	0	2.8640	0	38.3250	8	30.566	0	1335.308	0	17.6	4	5.6	4	-1E+10	1	-1E+10	1	-1E+10	1	-1E+10	1	-1E+10	1	-1E+10	1
4901784	232	C	11/10/2021	10:43	-136.523	43.376	0	1355.10	0	2.8560	0	38.3260	8	30.567	0	1339.940	0	17.8	4	5.6	4	-1E+10	1	-1E+10	1	-1E+10	1	-1E+10	1	-1E+10	1	-1E+10	1
4901784	232	C	11/10/2021	10:43	-136.523	43.376	0	1360.20	0	2.8440	0	38.3280	8	30.570	0	1344.967	0	18.1	4	5.7	4	-1E+10	1	-1E+10	1	-1E+10	1	-1E+10	1	-1E+10	1	-1E+10	1
4901784	232	C	11/10/2021	10:43	-136.523	43.376	0	1365.40	0	2.8320	0	38.3300	8	30.573	0	1350.092	0	18.3	4	5.8	4	-1E+10	1	-1E+10	1	-1E+10	1	-1E+10	1	-1E+10	1	-1E+10	1
4901784	232	C	11/10/2021	10:43	-136.523	43.376	0	1370.70	0	2.8210	0	38.3320	8	30.576	0	1355.316	0	18.6	4	5.9	4	-1E+10	1	-1E+10	1	-1E+10	1	-1E+10	1	-1E+10	1	-1E+10	1
4901784	232	C	11/10/2021	10:43	-136.523	43.376	0	1375.10	0	2.8090	0	38.3350	8	30.579	0	1359.652	0	18.8	4	6.0	4	-1E+10	1	-1E+10	1	-1E+10	1	-1E+10	1	-1E+10	1	-1E+10	1
4901784	232	C	11/10/2021	10:43	-136.523	43.376	0	1379.60	0	2.7970	0	38.3370	8	30.582	0	1364.087	0	19.0	4	6.0	4	-1E+10	1	-1E+10	1	-1E+10	1	-1E+10	1	-1E+10	1	-1E+10	1
4901784	232	C	11/10/2021	10:43	-136.523	43.376	0	1385.00	0	2.7880	0	38.3390	8	30.585	0	1369.409	0	19.2	4	6.1	4	-1E+10	1	-1E+10	1	-1E+10	1	-1E+10	1	-1E+10	1	-1E+10	1
4901784	232	C	11/10/2021	10:43	-136.523	43.376	0	1390.30	0	2.7800	0	38.3410	8	30.587	0	1374.632	0	19.4	4	6.1	4	-1E+10	1	-1E+10	1	-1E+10	1	-1E+10	1	-1E+10	1	-1E+10	1
4901784	232	C	11/10/2021	10:43	-136.523	43.376	0	1395.70	0	2.7720	0	38.3420	8	30.589	0	1379.953	0	19.6	4	6.2	4	-1E+10	1	-1E+10	1	-1E+10	1	-1E+10	1	-1E+10	1	-1E+10	1
4901784	232	C	11/10/2021	10:43	-136.523	43.376	0	1400.20	0	2.7650	0	38.3440	8	30.591	0	1384.388	0	19.8	4	6.3	4	-1E+10	1	-1E+10	1	-1E+10	1	-1E+10	1	-1E+10	1	-1E+10	1
4901784	232	C	11/10/2021	10:43	-136.523	43.376	0	1404.70	0	2.7540	0	38.3470	8	30.595	0	1388.822	0	20.0	4	6.3	4	-1E+10	1	-1E+10	1	-1E+10	1	-1E+10	1	-1E+10	1	-1E+10	1
4901784	232	C	11/10/2021	10:43	-136.523	43.376	0	1410.20	0	2.7480	0	38.3480	8	30.596	0	1394.242	0	20.3	4	6.4	4	-1E+10	1	-1E+10	1	-1E+10	1	-1E+10	1	-1E+10	1	-1E+10	1
4901784	232	C	11/10/2021	10:43	-136.523	43.376	0	1414.80	0	2.7390	0	38.3500	8	30.599	0	1398.775	0	20.5	4	6.5	4	-1E+10	1	-1E+10	1	-1E+10	1	-1E+10	1	-1E+10	1	-1E+10	1
4901784	232	C	11/10/2021	10:43	-136.523	43.376	0	1419.40	0	2.7340	0	38.3510	8	30.600	0	1403.307	0	20.6	4	6.5	4	-1E+10	1	-1E+10	1	-1E+10	1	-1E+10	1	-1E+10	1	-1E+10	1
4901784	232	C	11/10/2021	10:43	-136.523	43.376	0	1424.90	0	2.7290	0	38.3520	8	30.601	0	1408.727	0	20.9	4	6.6	4	-1E+10	1	-1E+10	1	-1E+10	1	-1E+10	1	-1E+10	1	-1E+10	1
4901784	232	C	11/10/2021	10:43	-136.523	43.376	0	1430.40	0	2.7180	0	38.3540	8	30.604	0	1414.146	0	21.1	4	6.7	4	-1E+10	1	-1E+10	1	-1E+10	1	-1E+10	1	-1E+10	1	-1E+10	1
4901784	232	C	11/10/2021	10:43	-136.523	43.376	0	1435.10	0	2.7110	0	38.3560	8	30.606	0	1418.776	0	21.3	4	6.7	4	-1E+10	1	-1E+10	1	-1E+10	1	-1E+10	1	-1E+10	1	-1E+10	1
4901784	232	C	11/10/2021	10:43	-136.523	43.376	0	1439.70	0	2.7070	0	38.3570	8	30.608	0	1423.309	0	21.6	4	6.8	4	-1E+10	1	-1E+10	1	-1E+10	1	-1E+10	1	-1E+10	1	-1E+10	1
4901784	232	C	11/10/2021	10:43	-136.523	43.376	0	1445.30	0	2.6930	0	38.3590	8	30.611	0	1428.826	0	21.9	4	6.9	4	-1E+10	1	-1E+10	1	-1E+10	1	-1E+10	1	-1E+10	1	-1E+10	1
4901784	232	C	11/10/2021	10:43	-136.523	43.376	0	1449.90	0	2.6830	0	38.3610	8	30.613	0	1433.358	0	22.2	4	7.0	4	-1E+10	1	-1E+10	1	-1E+10	1	-1E+10	1	-1E+10	1	-1E+10	1
4901784	232	C	11/10/2021	10:43	-136.523	43.376	0	1454.40	0	2.6730	0	38.3630	8	30.616	0	1437.791	0	22.4	4	7.1	4	-1E+10	1	-1E+10	1	-1E+10	1	-1E+10	1	-1E+10	1	-1E+10	1
4901784	232	C	11/10/2021	10:43	-136.523	43.376	0	1460.00	0	2.6630	0	38.3650	8	30.618	0	1443.308	0	22.6	4	7.1	4	-1E+10	1	-1E+10	1	-1E+10	1	-1E+10	1	-1E+10	1	-1E+10	1
4901784	232	C	11/10/2021	10:43	-136.523	43.376	0	1465.60	0	2.6570	0	38.3650	8	30.619	0	1448.825	0	22.9	4	7.2	4	-1E+10	1	-1E+10	1	-1E+10	1	-1E+10	1	-1E+10	1	-1E+10	1
4901784	232	C	11/10/2021	10:43	-136.523	43.376	0	1470.30	0	2.6430	0	38.3680	8	30.623	0	1453.455	0	23.3	4	7.3	4	-1E+10	1	-1E+10	1	-1E+10	1	-1E+10	1	-1E+10	1	-1E+10	1
4901784	232	C	11/10/2021	10:43	-136.523	43.376	0	1475.00	0	2.6320	0	38.3700	8	30.625	0	1458.085	0	23.6	4	7.4	4	-1E+10	1	-1E+10	1	-1E+10	1	-1E+10	1	-1E+10	1	-1E+10	1
4901784	232	C	11/10/2021	10:43	-136.523	43.376	0	1479.70	0	2.6220	0	38.3720	8	30.628	0	1462.715	0	23.8	4	7.5	4	-1E+10	1	-1E+10	1	-1E+10	1	-1E+10	1	-1E+10	1	-1E+10	1
4901784	232	C	11/10/2021	10:43	-136.523	43.376	0	1484.40	0	2.6150	0	38.3730	8	30.630	0	1467.345	0	24.1	4	7.6	4	-1E+10	1	-1E+10	1	-1E+10	1	-1E+10	1	-1E+10	1	-1E+10	1
4901784	232	C	11/10/2021	10:43	-136.523	43.376	0	1489.80	0	2.6040	0	38.3750	8	30.632	0	1472.664	0	24.4	4	7.7	4	-1E+10	1	-1E+10	1	-1E+10	1	-1E+10	1	-1E+10	1	-1E+10	1
4901784	232	C	11/10/2021	10:43	-136.523	43.376	0	1495.10	0	2.5930	0	38.3770	8	30.635	0	1477.884	0	24.7	4	7.8	4	-1E+10	1	-1E+10	1	-1E+10	1	-1E+10	1	-1E+10	1	-1E+10	1
4901784	232	C	11/10/2021	10:43	-136.523	43.376	0	1500.30	0	2.5840	0	38.3790	8	30.637	0	1483.006	0	25.0	4	7.9	4	-1E+10	1	-1E+10	1	-1E+10	1	-1E+10	1	-1E+10	1	-1E+10	1
4901784	232	C	11/10/2021	10:43	-136.523	43.376	0	1505.50	0	2.5750	0	38.3800	8	30.639	0	1488.128	0	25.3	4	8.0	4	-1E+10	1	-1E+10	1	-1E+10	1	-1E+10	1	-1E+10	1	-1E+10	1
4901784	232	C	11/10/2021	10:43	-136.523	43.376	0	1510.70	0	2.5680	0	38.3820	8	30.641	0	1493.249	0	25.5	4	8.0	4	-1E+10	1	-1E+10	1	-1E+10	1	-1E+10	1	-1E+10	1	-1E+10	1
4901784	232	C	11/10/2021	10:43	-136.523	43.376	0	1515.10	0	2.5590	0	38.3830	8	30.643	0	1497.583	0	25.8	4	8.1	4	-1E+10	1	-1E+10	1	-1E+10	1	-1E+10	1	-1E+10	1	-1E+10	1
4901784	232	C	11/10/2021	10:43	-136.523	43.376	0	1519.50	0	2.5490	0	38.3850	8	30.646	0	1501.917	0	26.1	4	8.2	4	-1E+10	1	-1E+10	1	-1E+10	1	-1E+10	1	-1E+10	1	-1E+10	1
4901784	232	C	11/10/2021	10:43	-136.523	43.376	0	1524.70	0	2.5410	0	38.3870	8	30.648	0	1507.038	0	26.3	4	8.3	4	-1E+10	1	-1E+10	1	-1E+10	1	-1E+10	1	-1E+10	1	-1E+10	1
4901784	232	C	11/10/2021	10:43	-136.523	43.376	0	1530.00	0	2.5340	0	38.3880	8	30.650	0	1512.258	0	26.5	4	8.3	4	-1E+10	1	-1E+10	1	-1E+10	1	-1E+10	1	-1E+10	1	-1E+10	1
4901784	232	C	11/10/2021	10:43	-136.523	43.376	0	1535.30	0	2.5250	0	38.3890	8	30.651	0	1517.477	0	26.8	4	8.4	4	-1E+10	1	-1E+10	1	-1E+10	1	-1E+10	1	-1E+10	1	-1E+10	1
4901784	232	C	11/10/2021	10:43	-136.523	43.376	0	1540.70	0	2.5180	0	38.3910	8	30.654	0	1522.795	0	27.1	4	8.5	4	-1E+10	1	-1E+10	1	-1E+10	1	-1E+10	1	-1E+10	1	-1E+10	1
4901784	232	C	11/10/2021	10:43	-136.523	43.376	0	1545.10	0	2.5090	0	38.3920	8	30.655	0	1527.128	0	27.3	4	8.6	4	-1E+10	1	-1E+10	1	-1E+10	1	-1E+10	1	-1E+10	1	-1E+10	1
4901784	232	C	11/10/2021	10:43	-136.523	43.376	0	1549.50	0	2.5000	0	38.3940	8	30.658	0	1531.461	0	27.6	4	8.7	4	-1E+10	1	-1E+10	1	-1E+10	1	-1E+10	1	-1E+10	1	-1E+10	1
4901784	232	C	11/10/2021	10:43	-136.523	43.376	0	1554.90	0	2.4910	0	38.3950	8	30.659	0	1536.778	0	27.9	4	8.8	4	-1E+10	1	-1E+10	1	-1E+10	1	-1E+10	1	-1E+10	1	-1E+10	1
4901784	232	C	11/10/2021	10:43	-136.523	43.376	0	1560.30	0	2.4820	0	38.3960	8	30.661	0	1542.096	0	28.3	4	8.9	4	-1E+10	1	-1E+10	1	-1E+10	1	-1E+10	1	-1E+10	1	-1E+10	1
4901784	232	C	11/10/2021	10:43	-136.523	43.376	0	1564.80	0	2.4730	0	38.3980	8	30.664	0	1546.527	0	28.6	4	9.0	4	-1E+10	1	-1E+10	1	-1E+10	1	-1E+10	1	-1E+10	1	-1E+10	1
4901784	232	C	11/10/2021	10:43	-136.523	43.376	0	1569.30	0	2.4610	0	38.4000	8	30.666	0	1550.958	0	29.0	4	9.1	4	-1E+10	1	-1E+10	1	-1E+10	1	-1E+10	1	-1E+10	1	-1E+10	1
4901784	232	C	11/10/2021	10:43	-136.523	43.376	0	1574.70	0	2.4500	0	38.4020	8	30.669	0	1556.275	0	29.3	4	9.2	4	-1E+10	1	-1E+10	1	-1E+10	1	-1E+10	1	-1E+10	1	-1E+10	1
4901784	232	C	11/10/2021	10:43	-136.523	43.376	0	1580.20	0	2.4390	0	38.4040	8	30.672	0	1561.690	0	29.7	4	9.3	4	-1E+10	1	-1E+10	1	-1E+10	1	-1E+10	1	-1E+10	1	-1E+10	1
4901784	232	C	11/10/2021	10:43	-136.523	43.376	0	1584.80	0	2.4310	0	38.4050	8	30.673	0	1566.219	0	30.0	4	9.4	4	-1E+10	1	-1E+10	1	-1E+10	1	-1E+10	1	-1E+10	1	-1E+10	1
4901784	232	C	11/10/2021	10:43	-136.523	43.376	0	1589.40	0	2.4220	0	38.4070	8	30.676	0	1570.748	0	30.3	4	9.5	4	-1E+10	1	-1E+10	1	-1E+10	1	-1E+10	1	-1E+10	1	-1E+10	1
4901784	232	C	11/10/2021	10:43	-136.523	43.376	0	1594.90	0	2.4130	0	38.4090	8	30.678	0	1576.163	0	30.6	4	9.6	4	-1E+10	1	-1E+10	1	-1E+10	1	-1E+10	1	-1E+10	1	-1E+10	1
4901784	232	C	11/10/2021	10:43	-136.523	43.376	0	1600.40	0	2.4060	0	38.4110	8	30.681	0	1581.578	0	30.9	4	9.7	4	-1E+10	1	-1E+10	1	-1E+10	1	-1E+10	1	-1E+10	1	-1E+10	1
4901784	232	C	11/10/2021	10:43	-136.523	43.376	0	1605.10	0	2.4030	0	38.4110	8	30.681	0	1586.205	0	31.1	4	9.8	4	-1E+10	1	-1E+10	1	-1E+10	1	-1E+10	1	-1E+10	1	-1E+10	1
4901784	232	C	11/10/2021	10:43	-136.523	43.376	0	1609.70	0	2.3960	0	38.4120	8	30.682	0	1590.734	0	31.5	4	9.9	4	-1E+10	1	-1E+10	1	-1E+10	1	-1E+10	1	-1E+10	1	-1E+10	1
4901784	232	C	11/10/2021	10:43	-136.523	43.376	0	1614.90	0	2.3850	0	38.4140	8	30.685	0	1595.853	0	31.9	4	10.0	4	-1E+10	1	-1E+10	1	-1E+10	1	-1E+10	1	-1E+10	1	-1E+10	1
4901784	232	C	11/10/2021	10:43	-136.523	43.376	0	1619.20	0	2.3760	0	38.4160	8	30.687	0	1600.086	0	32.2	4	10.1	4	-1E+10	1	-1E+10	1	-1E+10	1	-1E+10	1	-1E+10	1	-1E+10	1
4901784	232	C	11/10/2021	10:43	-136.523	43.376	0	1625.00	0	2.3650	0	38.4180	8	30.690	0	1605.796	0	32.6	4	10.2	4	-1E+10	1	-1E+10	1	-1E+10	1	-1E+10	1	-1E+10	1	-1E+10	1
4901784	232	C	11/10/2021	10:43	-136.523	43.376	0	1630.70	0	2.3570	0	38.4200	8	30.693	0	1611.407	0	33.0	4	10.3	4	-1E+10	1	-1E+10	1	-1E+10	1	-1E+10	1	-1E+10	1	-1E+10	1
4901784	232	C	11/10/2021	10:43	-136.523	43.376	0	1635.60	0	2.3520	0	38.4210	8	30.694	0	1616.230	0	33.2	4	10.4	4	-1E+10	1	-1E+10	1	-1E+10	1	-1E+10	1	-1E+10	1	-1E+10	1
4901784	232	C	11/10/2021	10:43	-136.523	43.376	0	1640.50	0	2.3420	0	38.4230	8	30.696	0	1621.053	0	33.6	4	10.5	4	-1E+10	1	-1E+10	1	-1E+10	1	-1E+10	1	-1E+10	1	-1E+10	1
4901784	232	C	11/10/2021	10:43	-136.523	43.376	0	1645.60	0	2.3340	0	38.4240	8	30.698	0	1626.073	0	33.9	4	10.6	4	-1E+10	1	-1E+10	1	-1E+10	1	-1E+10	1	-1E+10	1	-1E+10	1
4901784	232	C	11/10/2021	10:43	-136.523	43.376	0	1650.60	0	2.3250	0	38.4260	8	30.700	0	1630.995	0	34.3	4	10.7	4	-1E+10	1	-1E+10	1	-1E+10	1	-1E+10	1	-1E+10	1	-1E+10	1
4901784	232	C	11/10/2021	10:43	-136.523	43.376	0	1655.70	0	2.3180	0	38.4270	8	30.702	0	1636.014	0	34.6	4	10.8	4	-1E+10	1	-1E+10	1	-1E+10	1	-1E+10	1	-1E+10	1	-1E+10	1
4901784	232	C	11/10/2021	10:43	-136.523	43.376	0	1660.80	0	2.3070	0	38.4290	8	30.705	0	1641.034	0	34.9	4	10.9	4	-1E+10	1	-1E+10	1	-1E+10	1	-1E+10	1	-1E+10	1	-1E+10	1
4901784	232	C	11/10/2021	10:43	-136.523	43.376	0	1665.00	0	2.2960	0	38.4310	8	30.707	0	1645.168	0	35.2	4	11.0	4	-1E+10	1	-1E+10	1	-1E+10	1	-1E+10	1	-1E+10	1	-1E+10	1
4901784	232	C	11/10/2021	10:43	-136.523	43.376	0	1669.40	0	2.2920	0	38.4310	8	30.708	0	1649.498	0	35.5	4	11.1	4	-1E+10	1	-1E+10	1	-1E+10	1	-1E+10	1	-1E+10	1	-1E+10	1
4901784	232	C	11/10/2021	10:43	-136.523	43.376	0	1674.50	0	2.2830	0	38.4330	8	30.710	0	1654.517	0	35.9	4	11.2	4	-1E+10	1	-1E+10	1	-1E+10	1	-1E+10	1	-1E+10	1	-1E+10	1
4901784	232	C	11/10/2021	10:43	-136.523	43.376	0	1679.70	0	2.2770	0	38.4350	8	30.712	0	1659.635	0	36.3	4	11.4	4	-1E+10	1	-1E+10	1	-1E+10	1	-1E+10	1	-1E+10	1	-1E+10	1
4901784	232	C	11/10/2021	10:43	-136.523	43.376	0	1684.90	0	2.2670	0	38.4360	8	30.714	0	1664.753	0	36.7	4	11.5	4	-1E+10	1	-1E+10	1	-1E+10	1	-1E+10	1	-1E+10	1	-1E+10	1
4901784	232	C	11/10/2021	10:43	-136.523	43.376	0	1690.10	0	2.2620	0	38.4370	8	30.715	0	1669.870	0	37.0	4	11.6	4	-1E+10	1	-1E+10	1	-1E+10	1	-1E+10	1	-1E+10	1	-1E+10	1
4901784	232	C	11/10/2021	10:43	-136.523	43.376	0	1695.30	0	2.2530	0	38.4390	8	30.718	0	1674.987	0	37.4	4	11.7	4	-1E+10	1	-1E+10	1	-1E+10	1	-1E+10	1	-1E+10	1	-1E+10	1
4901784	232	C	11/10/2021	10:43	-136.523	43.376	0	1700.60	0	2.2440	0	38.4410	8	30.720	0	1680.203	0	37.7	4	11.8	4	-1E+10	1	-1E+10	1	-1E+10	1	-1E+10	1	-1E+10	1	-1E+10	1
4901784	232	C	11/10/2021	10:43	-136.523	43.376	0	1705.00	0	2.2390	0	38.4420	8	30.722	0	1684.532	0	37.9	4	11.9	4	-1E+10	1	-1E+10	1	-1E+10	1	-1E+10	1	-1E+10	1	-1E+10	1
4901784	232	C	11/10/2021	10:43	-136.523	43.376	0	1709.30	0	2.2340	0	38.4430	8	30.723	0	1688.764	0	38.2	4	11.9	4	-1E+10	1	-1E+10	1	-1E+10	1	-1E+10	1	-1E+10	1	-1E+10	1
4901784	232	C	11/10/2021	10:43	-136.523	43.376	0	1714.60	0	2.2270	0	38.4440	8	30.724	0	1693.979	0	38.4	4	12.0	4	-1E+10	1	-1E+10	1	-1E+10	1	-1E+10	1	-1E+10	1	-1E+10	1
4901784	232	C	11/10/2021	10:43	-136.523	43.376	0	1719.90	0	2.2220	0	38.4450	8	30.726	0	1699.194	0	38.7	4	12.1	4	-1E+10	1	-1E+10	1	-1E+10	1	-1E+10	1	-1E+10	1	-1E+10	1
4901784	232	C	11/10/2021	10:43	-136.523	43.376	0	1725.30	0	2.2160	0	38.4470	8	30.728	0	1704.507	0	39.0	4	12.2	4	-1E+10	1	-1E+10	1	-1E+10	1	-1E+10	1	-1E+10	1	-1E+10	1
4901784	232	C	11/10/2021	10:43	-136.523	43.376	0	1730.60	0	2.2100	0	38.4480	8	30.729	0	1709.722	0	39.4	4	12.3	4	-1E+10	1	-1E+10	1	-1E+10	1	-1E+10	1	-1E+10	1	-1E+10	1
4901784	232	C	11/10/2021	10:43	-136.523	43.376	0	1735.10	0	2.1990	0	38.4510	8	30.733	0	1714.149	0	39.8	4	12.4	4	-1E+10	1	-1E+10	1	-1E+10	1	-1E+10	1	-1E+10	1	-1E+10	1
4901784	232	C	11/10/2021	10:43	-136.523	43.376	0	1739.60	0	2.1950	0	38.4510	8	30.733	0	1718.577	0	39.9	4	12.5	4	-1E+10	1	-1E+10	1	-1E+10	1	-1E+10	1	-1E+10	1	-1E+10	1
4901784	232	C	11/10/2021	10:43	-136.523	43.376	0	1745.00	0	2.1920	0	38.4520	8	30.734	0	1723.890	0	40.1	4	12.5	4	-1E+10	1	-1E+10	1	-1E+10	1	-1E+10	1	-1E+10	1	-1E+10	1
4901784	232	C	11/10/2021	10:43	-136.523	43.376	0	1750.10	0	2.1880	0	38.4520	8	30.735	0	1728.907	0	40.5	4	12.6	4	-1E+10	1	-1E+10	1	-1E+10	1	-1E+10	1	-1E+10	1	-1E+10	1
4901784	232	C	11/10/2021	10:43	-136.523	43.376	0	1754.30	0	2.1790	0	38.4540	8	30.737	0	1733.039	0	40.8	4	12.7	4	-1E+10	1	-1E+10	1	-1E+10	1	-1E+10	1	-1E+10	1	-1E+10	1
4901784	232	C	11/10/2021	10:43	-136.523	43.376	0	1759.90	0	2.1720	0	38.4560	8	30.739	0	1738.549	0	41.2	4	12.8	4	-1E+10	1	-1E+10	1	-1E+10	1	-1E+10	1	-1E+10	1	-1E+10	1
4901784	232	C	11/10/2021	10:43	-136.523	43.376	0	1765.50	0	2.1640	0	38.4570	8	30.741	0	1744.058	0	41.6	4	13.0	4	-1E+10	1	-1E+10	1	-1E+10	1	-1E+10	1	-1E+10	1	-1E+10	1
4901784	232	C	11/10/2021	10:43	-136.523	43.376	0	1770.30	0	2.1580	0	38.4590	8	30.743	0	1748.780	0	42.0	4	13.1	4	-1E+10	1	-1E+10	1	-1E+10	1	-1E+10	1	-1E+10	1	-1E+10	1
4901784	232	C	11/10/2021	10:43	-136.523	43.376	0	1775.20	0	2.1510	0	38.4600	8	30.744	0	1753.600	0	42.3	4	13.2	4	-1E+10	1	-1E+10	1	-1E+10	1	-1E+10	1	-1E+10	1	-1E+10	1
4901784	232	C	11/10/2021	10:43	-136.523	43.376	0	1780.20	0	2.1460	0	38.4610	8	30.746	0	1758.518	0	42.7	4	13.3	4	-1E+10	1	-1E+10	1	-1E+10	1	-1E+10	1	-1E+10	1	-1E+10	1
4901784	232	C	11/10/2021	10:43	-136.523	43.376	0	1785.10	0	2.1400	0	38.4630	8	30.748	0	1763.338	0	43.0	4	13.4	4	-1E+10	1	-1E+10	1	-1E+10	1	-1E+10	1	-1E+10	1	-1E+10	1
4901784	232	C	11/10/2021	10:43	-136.523	43.376	0	1790.10	0	2.1370	0	38.4640	8	30.749	0	1768.256	0	43.3	4	13.5	4	-1E+10	1	-1E+10	1	-1E+10	1	-1E+10	1	-1E+10	1	-1E+10	1
4901784	232	C	11/10/2021	10:43	-136.523	43.376	0	1795.10	0	2.1320	0	38.4650	8	30.750	0	1773.175	0	43.5	4	13.6	4	-1E+10	1	-1E+10	1	-1E+10	1	-1E+10	1	-1E+10	1	-1E+10	1
4901784	232	C	11/10/2021	10:43	-136.523	43.376	0	1800.20	0	2.1260	0	38.4660	8	30.752	0	1778.191	0	43.8	4	13.6	4	-1E+10	1	-1E+10	1	-1E+10	1	-1E+10	1	-1E+10	1	-1E+10	1
4901784	232	C	11/10/2021	10:43	-136.523	43.376	0	1805.40	0	2.1210	0	38.4670	8	30.753	0	1783.306	0	44.2	4	13.8	4	-1E+10	1	-1E+10	1	-1E+10	1	-1E+10	1	-1E+10	1	-1E+10	1
4901784	232	C	11/10/2021	10:43	-136.523	43.376	0	1810.50	0	2.1160	0	38.4690	8	30.755	0	1788.322	0	44.4	4	13.8	4	-1E+10	1	-1E+10	1	-1E+10	1	-1E+10	1	-1E+10	1	-1E+10	1
4901784	232	C	11/10/2021	10:43	-136.523	43.376	0	1815.70	0	2.1140	0	38.4690	8	30.755	0	1793.436	0	44.7	4	13.9	4	-1E+10	1	-1E+10	1	-1E+10	1	-1E+10	1	-1E+10	1	-1E+10	1
4901784	232	C	11/10/2021	10:43	-136.523	43.376	0	1820.00	0	2.1100	0	38.4700	8	30.757	0	1797.665	0	45.1	4	14.0	4	-1E+10	1	-1E+10	1	-1E+10	1	-1E+10	1	-1E+10	1	-1E+10	1
4901784	232	C	11/10/2021	10:43	-136.523	43.376	0	1824.30	0	2.1060	0	38.4710	8	30.758	0	1801.894	0	45.3	4	14.1	4	-1E+10	1	-1E+10	1	-1E+10	1	-1E+10	1	-1E+10	1	-1E+10	1
4901784	232	C	11/10/2021	10:43	-136.523	43.376	0	1829.50	0	2.0990	0	38.4720	8	30.759	0	1807.008	0	45.6	4	14.2	4	-1E+10	1	-1E+10	1	-1E+10	1	-1E+10	1	-1E+10	1	-1E+10	1
4901784	232	C	11/10/2021	10:43	-136.523	43.376	0	1834.80	0	2.0960	0	38.4730	8	30.760	0	1812.221	0	45.8	4	14.3	4	-1E+10	1	-1E+10	1	-1E+10	1	-1E+10	1	-1E+10	1	-1E+10	1
4901784	232	C	11/10/2021	10:43	-136.523	43.376	0	1840.20	0	2.0930	0	38.4740	8	30.761	0	1817.531	0	46.1	4	14.4	4	-1E+10	1	-1E+10	1	-1E+10	1	-1E+10	1	-1E+10	1	-1E+10	1
4901784	232	C	11/10/2021	10:43	-136.523	43.376	0	1845.50	0	2.0880	0	38.4750	8	30.763	0	1822.743	0	46.5	4	14.5	4	-1E+10	1	-1E+10	1	-1E+10	1	-1E+10	1	-1E+10	1	-1E+10	1
4901784	232	C	11/10/2021	10:43	-136.523	43.376	0	1850.00	0	2.0840	0	38.4760	8	30.764	0	1827.168	0	46.9	4	14.6	4	-1E+10	1	-1E+10	1	-1E+10	1	-1E+10	1	-1E+10	1	-1E+10	1
4901784	232	C	11/10/2021	10:43	-136.523	43.376	0	1854.40	0	2.0790	0	38.4760	8	30.764	0	1831.495	0	47.2	4	14.7	4	-1E+10	1	-1E+10	1	-1E+10	1	-1E+10	1	-1E+10	1	-1E+10	1
4901784	232	C	11/10/2021	10:43	-136.523	43.376	0	1859.80	0	2.0690	0	38.4790	8	30.768	0	1836.805	0	47.7	4	14.8	4	-1E+10	1	-1E+10	1	-1E+10	1	-1E+10	1	-1E+10	1	-1E+10	1
4901784	232	C	11/10/2021	10:43	-136.523	43.376	0	1865.20	0	2.0660	0	38.4800	8	30.769	0	1842.115	0	47.9	4	14.9	4	-1E+10	1	-1E+10	1	-1E+10	1	-1E+10	1	-1E+10	1	-1E+10	1
4901784	232	C	11/10/2021	10:43	-136.523	43.376	0	1870.60	0	2.0610	0	38.4810	8	30.770	0	1847.424	0	48.2	4	15.0	4	-1E+10	1	-1E+10	1	-1E+10	1	-1E+10	1	-1E+10	1	-1E+10	1
4901784	232	C	11/10/2021	10:43	-136.523	43.376	0	1875.30	0	2.0580	0	38.4810	8	30.770	0	1852.046	0	48.5	4	15.1	4	-1E+10	1	-1E+10	1	-1E+10	1	-1E+10	1	-1E+10	1	-1E+10	1
4901784	232	C	11/10/2021	10:43	-136.523	43.376	0	1880.20	0	2.0530	0	38.4820	8	30.772	0	1856.864	0	48.8	4	15.2	4	-1E+10	1	-1E+10	1	-1E+10	1	-1E+10	1	-1E+10	1	-1E+10	1
4901784	232	C	11/10/2021	10:43	-136.523	43.376	0	1885.00	0	2.0480	0	38.4830	8	30.773	0	1861.583	0	49.1	4	15.3	4	-1E+10	1	-1E+10	1	-1E+10	1	-1E+10	1	-1E+10	1	-1E+10	1
4901784	232	C	11/10/2021	10:43	-136.523	43.376	0	1890.00	0	2.0430	0	38.4840	8	30.774	0	1866.499	0	49.4	4	15.4	4	-1E+10	1	-1E+10	1	-1E+10	1	-1E+10	1	-1E+10	1	-1E+10	1
4901784	232	C	11/10/2021	10:43	-136.523	43.376	0	1894.90	0	2.0390	0	38.4850	8	30.775	0	1871.317	0	49.8	4	15.5	4	-1E+10	1	-1E+10	1	-1E+10	1	-1E+10	1	-1E+10	1	-1E+10	1
4901784	232	C	11/10/2021	10:43	-136.523	43.376	0	1899.80	0	2.0340	0	38.4860	8	30.777	0	1876.134	0	50.2	4	15.6	4	-1E+10	1	-1E+10	1	-1E+10	1	-1E+10	1	-1E+10	1	-1E+10	1
4901784	232	C	11/10/2021	10:43	-136.523	43.376	0	1904.80	0	2.0290	0	38.4870	8	30.778	0	1881.050	0	50.4	4	15.7	4	-1E+10	1	-1E+10	1	-1E+10	1	-1E+10	1	-1E+10	1	-1E+10	1
4901784	232	C	11/10/2021	10:43	-136.523	43.376	0	1909.90	0	2.0240	0	38.4880	8	30.779	0	1886.063	0	50.7	4	15.7	4	-1E+10	1	-1E+10	1	-1E+10	1	-1E+10	1	-1E+10	1	-1E+10	1
4901784	232	C	11/10/2021	10:43	-136.523	43.376	0	1914.90	0	2.0190	0	38.4890	8	30.781	0	1890.979	0	51.0	4	15.8	4	-1E+10	1	-1E+10	1	-1E+10	1	-1E+10	1	-1E+10	1	-1E+10	1
4901784	232	C	11/10/2021	10:43	-136.523	43.376	0	1920.10	0	2.0160	0	38.4900	8	30.782	0	1896.091	0	51.2	4	15.9	4	-1E+10	1	-1E+10	1	-1E+10	1	-1E+10	1	-1E+10	1	-1E+10	1
4901784	232	C	11/10/2021	10:43	-136.523	43.376	0	1925.20	0	2.0130	0	38.4910	8	30.783	0	1901.104	0	51.4	4	16.0	4	-1E+10	1	-1E+10	1	-1E+10	1	-1E+10	1	-1E+10	1	-1E+10	1
4901784	232	C	11/10/2021	10:43	-136.523	43.376	0	1930.40	0	2.0100	0	38.4920	8	30.784	0	1906.216	0	51.7	4	16.1	4	-1E+10	1	-1E+10	1	-1E+10	1	-1E+10	1	-1E+10	1	-1E+10	1
4901784	232	C	11/10/2021	10:43	-136.523	43.376	0	1935.60	0	2.0060	0	38.4930	8	30.785	0	1911.327	0	52.0	4	16.2	4	-1E+10	1	-1E+10	1	-1E+10	1	-1E+10	1	-1E+10	1	-1E+10	1
4901784	232	C	11/10/2021	10:43	-136.523	43.376	0	1940.00	0	2.0030	0	38.4940	8	30.786	0	1915.652	0	52.2	4	16.2	4	-1E+10	1	-1E+10	1	-1E+10	1	-1E+10	1	-1E+10	1	-1E+10	1
4901784	232	C	11/10/2021	10:43	-136.523	43.376	0	1944.40	0	2.0010	0	38.4940	8	30.786	0	1919.977	0	52.4	4	16.3	4	-1E+10	1	-1E+10	1	-1E+10	1	-1E+10	1	-1E+10	1	-1E+10	1
4901784	232	C	11/10/2021	10:43	-136.523	43.376	0	1949.70	0	1.9970	0	38.4950	8	30.788	0	1925.187	0	52.7	4	16.4	4	-1E+10	1	-1E+10	1	-1E+10	1	-1E+10	1	-1E+10	1	-1E+10	1
4901784	232	C	11/10/2021	10:43	-136.523	43.376	0	1955.00	0	1.9960	0	38.4960	8	30.788	0	1930.396	0	52.9	4	16.4	4	-1E+10	1	-1E+10	1	-1E+10	1	-1E+10	1	-1E+10	1	-1E+10	1
4901784	232	C	11/10/2021	10:43	-136.523	43.376	0	1960.40	0	1.9930	0	38.4970	8	30.790	0	1935.704	0	53.1	4	16.5	4	-1E+10	1	-1E+10	1	-1E+10	1	-1E+10	1	-1E+10	1	-1E+10	1
4901784	232	C	11/10/2021	10:43	-136.523	43.376	0	1964.80	0	1.9910	0	38.4970	8	30.790	0	1940.028	0	53.3	4	16.6	4	-1E+10	1	-1E+10	1	-1E+10	1	-1E+10	1	-1E+10	1	-1E+10	1
4901784	232	C	11/10/2021	10:43	-136.523	43.376	0	1969.40	0	1.9870	0	38.4970	8	30.790	0	1944.549	0	53.6	4	16.6	4	-1E+10	1	-1E+10	1	-1E+10	1	-1E+10	1	-1E+10	1	-1E+10	1
4901784	232	C	11/10/2021	10:43	-136.523	43.376	0	1974.80	0	1.9830	0	38.4980	8	30.791	0	1949.857	0	53.8	4	16.7	4	-1E+10	1	-1E+10	1	-1E+10	1	-1E+10	1	-1E+10	1	-1E+10	1
4901784	232	C	11/10/2021	10:43	-136.523	43.376	0	1980.20	0	1.9790	0	38.4990	8	30.793	0	1955.163	0	54.1	4	16.8	4	-1E+10	1	-1E+10	1	-1E+10	1	-1E+10	1	-1E+10	1	-1E+10	1
4901784	232	C	11/10/2021	10:43	-136.523	43.376	0	1985.60	0	1.9760	0	38.5000	8	30.794	0	1960.470	0	54.3	4	16.9	4	-1E+10	1	-1E+10	1	-1E+10	1	-1E+10	1	-1E+10	1	-1E+10	1
4901784	232	C	11/10/2021	10:43	-136.523	43.376	0	1990.20	0	1.9750	0	38.5000	8	30.794	0	1964.991	0	54.5	4	16.9	4	-1E+10	1	-1E+10	1	-1E+10	1	-1E+10	1	-1E+10	1	-1E+10	1
4901784	232	C	11/10/2021	10:43	-136.523	43.376	0	1994.80	0	1.9700	0	38.5010	8	30.795	0	1969.512	0	54.7	4	17.0	4	-1E+10	1	-1E+10	1	-1E+10	1	-1E+10	1	-1E+10	1	-1E+10	1
4901784	232	C	11/10/2021	10:43	-136.523	43.376	0	2000.10	0	1.9680	0	38.5020	8	30.796	0	1974.720	0	54.9	4	17.0	4	-1E+10	1	-1E+10	1	-1E+10	1	-1E+10	1	-1E+10	1	-1E+10	1
4901784	232	C	11/10/2021	10:43	-136.523	43.376	0	2005.50	0	1.9650	0	38.5020	8	30.796	0	1980.026	0	55.1	4	17.1	4	-1E+10	1	-1E+10	1	-1E+10	1	-1E+10	1	-1E+10	1	-1E+10	1
4901784	232	C	11/10/2021	10:43	-136.523	43.376	0	2010.00	0	1.9630	0	38.5030	8	30.797	0	1984.448	0	55.3	4	17.2	4	-1E+10	1	-1E+10	1	-1E+10	1	-1E+10	1	-1E+10	1	-1E+10	1
4901784	232	C	11/10/2021	10:43	-136.523	43.376	0	2015.40	0	1.9610	0	38.5030	8	30.798	0	1989.754	0	55.5	4	17.2	4	-1E+10	1	-1E+10	1	-1E+10	1	-1E+10	1	-1E+10	1	-1E+10	1
4901784	232	C	11/10/2021	10:43	-136.523	43.376	0	2021.10	0	1.9570	0	38.5050	8	30.800	0	1995.355	0	54.8	4	17.0	4	-1E+10	1	-1E+10	1	-1E+10	1	-1E+10	1	-1E+10	1	-1E+10	1
4901784	232	C	11/10/2021	10:43	-136.523	43.376	0																										
4901784	233	C	11/20/2021	10:50	-136.527	43.455	0	2.10	0	12.4890	0	36.0520	8	27.312	0	2.083	0	245.6	4	94.9	4	-1E+10	1	-1E+10	1	-1E+10	1	-1E+10	1	-1E+10	1	-1E+10	1
4901784	233	C	11/20/2021	10:50	-136.527	43.455	0	3.30	0	12.4870	0	36.0540	8	27.313	0	3.274	0	245.6	4	94.9	4	-1E+10	1	-1E+10	1	-1E+10	1	-1E+10	1	-1E+10	1	-1E+10	1
4901784	233	C	11/20/2021	10:50	-136.527	43.455	0	4.70	0	12.4860	0	36.0550	8	27.315	0	4.662	0	245.5	4	94.9	4	-1E+10	1	-1E+10	1	-1E+10	1	-1E+10	1	-1E+10	1	-1E+10	1
4901784	233	C	11/20/2021	10:50	-136.527	43.455	0	6.20	0	12.4940	0	36.0550	8	27.313	0	6.150	0	245.4	4	94.9	4	-1E+10	1	-1E+10	1	-1E+10	1	-1E+10	1	-1E+10	1	-1E+10	1
4901784	233	C	11/20/2021	10:50	-136.527	43.455	0	7.90	0	12.4960	0	36.0550	8	27.313	0	7.837	0	245.4	4	94.9	4	-1E+10	1	-1E+10	1	-1E+10	1	-1E+10	1	-1E+10	1	-1E+10	1
4901784	233	C	11/20/2021	10:50	-136.527	43.455	0	9.50	0	12.4970	0	36.0560	8	27.313	0	9.424	0	245.3	4	94.8	4	-1E+10	1	-1E+10	1	-1E+10	1	-1E+10	1	-1E+10	1	-1E+10	1
4901784	233	C	11/20/2021	10:50	-136.527	43.455	0	11.30	0	12.4960	0	36.0570	8	27.314	0	11.210	0	245.5	4	94.9	4	-1E+10	1	-1E+10	1	-1E+10	1	-1E+10	1	-1E+10	1	-1E+10	1
4901784	233	C	11/20/2021	10:50	-136.527	43.455	0	13.10	0	12.4970	0	36.0580	8	27.315	0	12.995	0	245.3	4	94.9	4	-1E+10	1	-1E+10	1	-1E+10	1	-1E+10	1	-1E+10	1	-1E+10	1
4901784	233	C	11/20/2021	10:50	-136.527	43.455	0	14.90	0	12.4980	0	36.0590	8	27.315	0	14.781	0	245.3	4	94.8	4	-1E+10	1	-1E+10	1	-1E+10	1	-1E+10	1	-1E+10	1	-1E+10	1
4901784	233	C	11/20/2021	10:50	-136.527	43.455	0	16.50	0	12.4980	0	36.0600	8	27.316	0	16.368	0	245.2	4	94.8	4	-1E+10	1	-1E+10	1	-1E+10	1	-1E+10	1	-1E+10	1	-1E+10	1
4901784	233	C	11/20/2021	10:50	-136.527	43.455	0	18.20	0	12.4980	0	36.0610	8	27.317	0	18.054	0	245.2	4	94.8	4	-1E+10	1	-1E+10	1	-1E+10	1	-1E+10	1	-1E+10	1	-1E+10	1
4901784	233	C	11/20/2021	10:50	-136.527	43.455	0	19.90	0	12.4990	0	36.0620	8	27.318	0	19.740	0	245.1	4	94.8	4	-1E+10	1	-1E+10	1	-1E+10	1	-1E+10	1	-1E+10	1	-1E+10	1
4901784	233	C	11/20/2021	10:50	-136.527	43.455	0	21.60	0	12.4990	0	36.0630	8	27.319	0	21.427	0	245.1	4	94.8	4	-1E+10	1	-1E+10	1	-1E+10	1	-1E+10	1	-1E+10	1	-1E+10	1
4901784	233	C	11/20/2021	10:50	-136.527	43.455	0	23.40	0	12.5010	0	36.0630	8	27.318	0	23.212	0	245.1	4	94.8	4	-1E+10	1	-1E+10	1	-1E+10	1	-1E+10	1	-1E+10	1	-1E+10	1
4901784	233	C	11/20/2021	10:50	-136.527	43.455	0	25.10	0	12.5020	0	36.0640	8	27.319	0	24.898	0	245.0	4	94.7	4	-1E+10	1	-1E+10	1	-1E+10	1	-1E+10	1	-1E+10	1	-1E+10	1
4901784	233	C	11/20/2021	10:50	-136.527	43.455	0	26.90	0	12.5000	0	36.0650	8	27.320	0	26.684	0	245.1	4	94.8	4	-1E+10	1	-1E+10	1	-1E+10	1	-1E+10	1	-1E+10	1	-1E+10	1
4901784	233	C	11/20/2021	10:50	-136.527	43.455	0	28.60	0	12.5040	0	36.0650	8	27.319	0	28.370	0	245.1	4	94.8	4	-1E+10	1	-1E+10	1	-1E+10	1	-1E+10	1	-1E+10	1	-1E+10	1
4901784	233	C	11/20/2021	10:50	-136.527	43.455	0	30.40	0	12.5030	0	36.0670	8	27.321	0	30.155	0	245.1	4	94.8	4	-1E+10	1	-1E+10	1	-1E+10	1	-1E+10	1	-1E+10	1	-1E+10	1
4901784	233	C	11/20/2021	10:50	-136.527	43.455	0	32.20	0	12.5030	0	36.0680	8	27.322	0	31.941	0	245.1	4	94.8	4	-1E+10	1	-1E+10	1	-1E+10	1	-1E+10	1	-1E+10	1	-1E+10	1
4901784	233	C	11/20/2021	10:50	-136.527	43.455	0	34.00	0	12.5010	0	36.0700	8	27.324	0	33.726	0	244.9	4	94.7	4	-1E+10	1	-1E+10	1	-1E+10	1	-1E+10	1	-1E+10	1	-1E+10	1
4901784	233	C	11/20/2021	10:50	-136.527	43.455	0	35.80	0	12.5030	0	36.0700	8	27.324	0	35.511	0	245.0	4	94.7	4	-1E+10	1	-1E+10	1	-1E+10	1	-1E+10	1	-1E+10	1	-1E+10	1
4901784	233	C	11/20/2021	10:50	-136.527	43.455	0	37.70	0	12.5010	0	36.0710	8	27.325	0	37.396	0	244.9	4	94.7	4	-1E+10	1	-1E+10	1	-1E+10	1	-1E+10	1	-1E+10	1	-1E+10	1
4901784	233	C	11/20/2021	10:50	-136.527	43.455	0	39.50	0	12.5020	0	36.0710	8	27.325	0	39.181	0	244.7	4	94.6	4	-1E+10	1	-1E+10	1	-1E+10	1	-1E+10	1	-1E+10	1	-1E+10	1
4901784	233	C	11/20/2021	10:50	-136.527	43.455	0	41.40	0	12.5020	0	36.0730	8	27.326	0	41.066	0	244.7	4	94.6	4	-1E+10	1	-1E+10	1	-1E+10	1	-1E+10	1	-1E+10	1	-1E+10	1
4901784	233	C	11/20/2021	10:50	-136.527	43.455	0	43.40	0	12.5030	0	36.0730	8	27.326	0	43.049	0	244.7	4	94.6	4	-1E+10	1	-1E+10	1	-1E+10	1	-1E+10	1	-1E+10	1	-1E+10	1
4901784	233	C	11/20/2021	10:50	-136.527	43.455	0	45.30	0	12.5050	0	36.0750	8	27.327	0	44.934	0	244.6	4	94.6	4	-1E+10	1	-1E+10	1	-1E+10	1	-1E+10	1	-1E+10	1	-1E+10	1
4901784	233	C	11/20/2021	10:50	-136.527	43.455	0	47.20	0	12.5050	0	36.0760	8	27.328	0	46.818	0	244.5	4	94.5	4	-1E+10	1	-1E+10	1	-1E+10	1	-1E+10	1	-1E+10	1	-1E+10	1
4901784	233	C	11/20/2021	10:50	-136.527	43.455	0	49.00	0	12.5030	0	36.0770	8	27.329	0	48.603	0	244.5	4	94.6	4	-1E+10	1	-1E+10	1	-1E+10	1	-1E+10	1	-1E+10	1	-1E+10	1
4901784	233	C	11/20/2021	10:50	-136.527	43.455	0	50.90	0	12.5040	0	36.0780	8	27.330	0	50.488	0	244.4	4	94.5	4	-1E+10	1	-1E+10	1	-1E+10	1	-1E+10	1	-1E+10	1	-1E+10	1
4901784	233	C	11/20/2021	10:50	-136.527	43.455	0	52.80	0	12.5040	0	36.0790	8	27.331	0	52.372	0	244.3	4	94.5	4	-1E+10	1	-1E+10	1	-1E+10	1	-1E+10	1	-1E+10	1	-1E+10	1
4901784	233	C	11/20/2021	10:50	-136.527	43.455	0	54.60	0	12.5050	0	36.0790	8	27.331	0	54.157	0	244.4	4	94.5	4	-1E+10	1	-1E+10	1	-1E+10	1	-1E+10	1	-1E+10	1	-1E+10	1
4901784	233	C	11/20/2021	10:50	-136.527	43.455	0	56.40	0	12.5050	0	36.0810	8	27.332	0	55.943	0	244.1	4	94.4	4	-1E+10	1	-1E+10	1	-1E+10	1	-1E+10	1	-1E+10	1	-1E+10	1
4901784	233	C	11/20/2021	10:50	-136.527	43.455	0	58.30	0	12.5060	0	36.0820	8	27.333	0	57.827	0	244.2	4	94.5	4	-1E+10	1	-1E+10	1	-1E+10	1	-1E+10	1	-1E+10	1	-1E+10	1
4901784	233	C	11/20/2021	10:50	-136.527	43.455	0	60.10	0	12.5070	0	36.0830	8	27.334	0	59.612	0	243.9	4	94.4	4	-1E+10	1	-1E+10	1	-1E+10	1	-1E+10	1	-1E+10	1	-1E+10	1
4901784	233	C	11/20/2021	10:50	-136.527	43.455	0	61.90	0	12.5060	0	36.0840	8	27.335	0	61.397	0	243.9	4	94.3	4	-1E+10	1	-1E+10	1	-1E+10	1	-1E+10	1	-1E+10	1	-1E+10	1
4901784	233	C	11/20/2021	10:50	-136.527	43.455	0	63.70	0	12.5060	0	36.0840	8	27.335	0	63.182	0	243.7	4	94.3	4	-1E+10	1	-1E+10	1	-1E+10	1	-1E+10	1	-1E+10	1	-1E+10	1
4901784	233	C	11/20/2021	10:50	-136.527	43.455	0	65.60	0	12.5060	0	36.0850	8	27.335	0	65.066	0	243.6	4	94.2	4	-1E+10	1	-1E+10	1	-1E+10	1	-1E+10	1	-1E+10	1	-1E+10	1
4901784	233	C	11/20/2021	10:50	-136.527	43.455	0	67.40	0	12.5070	0	36.0850	8	27.335	0	66.852	0	243.4	4	94.2	4	-1E+10	1	-1E+10	1	-1E+10	1	-1E+10	1	-1E+10	1	-1E+10	1
4901784	233	C	11/20/2021	10:50	-136.527	43.455	0	69.30	0	12.5070	0	36.0850	8	27.335	0	68.736	0	243.1	4	94.0	4	-1E+10	1	-1E+10	1	-1E+10	1	-1E+10	1	-1E+10	1	-1E+10	1
4901784	233	C	11/20/2021	10:50	-136.527	43.455	0	71.20	0	12.5060	0	36.0850	8	27.336	0	70.620	0	243.0	4	94.0	4	-1E+10	1	-1E+10	1	-1E+10	1	-1E+10	1	-1E+10	1	-1E+10	1
4901784	233	C	11/20/2021	10:50	-136.527	43.455	0	73.20	0	12.5050	0	36.0850	8	27.336	0	72.603	0	242.6	4	93.8	4	-1E+10	1	-1E+10	1	-1E+10	1	-1E+10	1	-1E+10	1	-1E+10	1
4901784	233	C	11/20/2021	10:50	-136.527	43.455	0	75.20	0	12.4980	0	36.0840	8	27.337	0	74.587	0	242.3	4	93.7	4	-1E+10	1	-1E+10	1	-1E+10	1	-1E+10	1	-1E+10	1	-1E+10	1
4901784	233	C	11/20/2021	10:50	-136.527	43.455	0	77.00	0	12.4900	0	36.0820	8	27.337	0	76.372	0	242.1	4	93.6	4	-1E+10	1	-1E+10	1	-1E+10	1	-1E+10	1	-1E+10	1	-1E+10	1
4901784	233	C	11/20/2021	10:50	-136.527	43.455	0	78.80	0	12.4850	0	36.0780	8	27.335	0	78.157	0	241.5	4	93.4	4	-1E+10	1	-1E+10	1	-1E+10	1	-1E+10	1	-1E+10	1	-1E+10	1
4901784	233	C	11/20/2021	10:50	-136.527	43.455	0	80.60	0	12.4860	0	36.0670	8	27.326	0	79.942	0	240.6	4	93.0	4	-1E+10	1	-1E+10	1	-1E+10	1	-1E+10	1	-1E+10	1	-1E+10	1
4901784	233	C	11/20/2021	10:50	-136.527	43.455	0	82.80	0	12.2990	0	36.0840	8	27.376	0	82.123	0	240.1	4	92.5	4	-1E+10	1	-1E+10	1	-1E+10	1	-1E+10	1	-1E+10	1	-1E+10	1
4901784	233	C	11/20/2021	10:50	-136.527	43.455	0	84.60	0	12.1640	0	36.0930	8	27.409	0	83.908	0	240.0	4	92.2	4	-1E+10	1	-1E+10	1	-1E+10	1	-1E+10	1	-1E+10	1	-1E+10	1
4901784	233	C	11/20/2021	10:50	-136.527	43.455	0	86.00	0	12.0760	0	36.0930	8	27.427	0	85.296	0	239.5	4	91.8	4	-1E+10	1	-1E+10	1	-1E+10	1	-1E+10	1	-1E+10	1	-1E+10	1
4901784	233	C	11/20/2021	10:50	-136.527	43.455	0	87.40	0	11.9370	0	36.1000	8	27.459	0	86.685	0	239.3	4	91.5	4	-1E+10	1	-1E+10	1	-1E+10	1	-1E+10	1	-1E+10	1	-1E+10	1
4901784	233	C	11/20/2021	10:50	-136.527	43.455	0	88.80	0	11.6710	0	36.1240	8	27.528	0	88.073	0	239.4	4	91.0	4	-1E+10	1	-1E+10	1	-1E+10	1	-1E+10	1	-1E+10	1	-1E+10	1
4901784	233	C	11/20/2021	10:50	-136.527	43.455	0	90.30	0	11.4790	0	36.1250	8	27.566	0	89.560	0	239.6	4	90.8	4	-1E+10	1	-1E+10	1	-1E+10	1	-1E+10	1	-1E+10	1	-1E+10	1
4901784	233	C	11/20/2021	10:50	-136.527	43.455	0	92.10	0	11.1800	0	36.1420	8	27.635	0	91.345	0	240.4	4	90.5	4	-1E+10	1	-1E+10	1	-1E+10	1	-1E+10	1	-1E+10	1	-1E+10	1
4901784	233	C	11/20/2021	10:50	-136.527	43.455	0	93.60	0	10.8980	0	36.1540	8	27.696	0	92.832	0	240.7	4	90.1	4	-1E+10	1	-1E+10	1	-1E+10	1	-1E+10	1	-1E+10	1	-1E+10	1
4901784	233	C	11/20/2021	10:50	-136.527	43.455	0	94.70	0	10.6520	0	36.1670	8	27.751	0	93.923	0	241.2	4	89.8	4	-1E+10	1	-1E+10	1	-1E+10	1	-1E+10	1	-1E+10	1	-1E+10	1
4901784	233	C	11/20/2021	10:50	-136.527	43.455	0	96.00	0	10.4630	0	36.1740	8	27.790	0	95.212	0	241.3	4	89.5	4	-1E+10	1	-1E+10	1	-1E+10	1	-1E+10	1	-1E+10	1	-1E+10	1
4901784	233	C	11/20/2021	10:50	-136.527	43.455	0	97.30	0	10.2790	0	36.1810	8	27.828	0	96.501	0	241.1	4	89.1	4	-1E+10	1	-1E+10	1	-1E+10	1	-1E+10	1	-1E+10	1	-1E+10	1
4901784	233	C	11/20/2021	10:50	-136.527	43.455	0	98.70	0	9.9050	0	36.2430	8	27.942	0	97.889	0	242.1	4	88.8	4	-1E+10	1	-1E+10	1	-1E+10	1	-1E+10	1	-1E+10	1	-1E+10	1
4901784	233	C	11/20/2021	10:50	-136.527	43.455	0	100.20	0	9.6490	0	36.2440	8	27.987	0	99.377	0	242.4	4	88.4	4	-1E+10	1	-1E+10	1	-1E+10	1	-1E+10	1	-1E+10	1	-1E+10	1
4901784	233	C	11/20/2021	10:50	-136.527	43.455	0	102.50	0	9.4130	0	36.2660	8	28.044	0	101.657	0	242.2	4	87.9	4	-1E+10	1	-1E+10	1	-1E+10	1	-1E+10	1	-1E+10	1	-1E+10	1
4901784	233	C	11/20/2021	10:50	-136.527	43.455	0	104.90	0	9.2860	0	36.2930	8	28.086	0	104.037	0	240.5	4	87.0	4	-1E+10	1	-1E+10	1	-1E+10	1	-1E+10	1	-1E+10	1	-1E+10	1
4901784	233	C	11/20/2021	10:50	-136.527	43.455	0	107.30	0	9.2970	0	36.3450	8	28.125	0	106.417	0	237.8	4	86.1	4	-1E+10	1	-1E+10	1	-1E+10	1	-1E+10	1	-1E+10	1	-1E+10	1
4901784	233	C	11/20/2021	10:50	-136.527	43.455	0	109.90	0	9.3980	0	36.4080	8	28.158	0	108.994	0	234.8	4	85.3	4	-1E+10	1	-1E+10	1	-1E+10	1	-1E+10	1	-1E+10	1	-1E+10	1
4901784	233	C	11/20/2021	10:50	-136.527	43.455	0	112.40	0	9.2530	0	36.4270	8	28.197	0	111.473	0	233.0	4	84.4	4	-1E+10	1	-1E+10	1	-1E+10	1	-1E+10	1	-1E+10	1	-1E+10	1
4901784	233	C	11/20/2021	10:50	-136.527	43.455	0	115.00	0	9.4060	0	36.4770	8	28.211	0	114.051	0	229.4	4	83.4	4	-1E+10	1	-1E+10	1	-1E+10	1	-1E+10	1	-1E+10	1	-1E+10	1
4901784	233	C	11/20/2021	10:50	-136.527	43.455	0	117.60	0	9.3040	0	36.5350	8	28.273	0	116.629	0	227.9	4	82.7	4	-1E+10	1	-1E+10	1	-1E+10	1	-1E+10	1	-1E+10	1	-1E+10	1
4901784	233	C	11/20/2021	10:50	-136.527	43.455	0	120.30	0	9.1900	0	36.5490	8	28.303	0	119.306	0	226.7	4	82.0	4	-1E+10	1	-1E+10	1	-1E+10	1	-1E+10	1	-1E+10	1	-1E+10	1
4901784	233	C	11/20/2021	10:50	-136.527	43.455	0	122.20	0	9.1730	0	36.5700	8	28.322	0	121.189	0	224.7	4	81.3	4	-1E+10	1	-1E+10	1	-1E+10	1	-1E+10	1	-1E+10	1	-1E+10	1
4901784	233	C	11/20/2021	10:50	-136.527	43.455	0	124.90	0	9.1880	0	36.6490	8	28.382	0	123.866	0	222.0	4	80.4	4	-1E+10	1	-1E+10	1	-1E+10	1	-1E+10	1	-1E+10	1	-1E+10	1
4901784	233	C	11/20/2021	10:50	-136.527	43.455	0	127.50	0	9.1880	0	36.6890	8	28.413	0	126.444	0	219.7	4	79.6	4	-1E+10	1	-1E+10	1	-1E+10	1	-1E+10	1	-1E+10	1	-1E+10	1
4901784	233	C	11/20/2021	10:50	-136.527	43.455	0	130.20	0	9.1890	0	36.6930	8	28.416	0	129.121	0	217.0	4	78.6	4	-1E+10	1	-1E+10	1	-1E+10	1	-1E+10	1	-1E+10	1	-1E+10	1
4901784	233	C	11/20/2021	10:50	-136.527	43.455	0	132.40	0	9.1830	0	36.7530	8	28.464	0	131.302	0	213.6	4	77.4	4	-1E+10	1	-1E+10	1	-1E+10	1	-1E+10	1	-1E+10	1	-1E+10	1
4901784	233	C	11/20/2021	10:50	-136.527	43.455	0	135.40	0	9.1670	0	36.8680	8	28.557	0	134.276	0	210.6	4	76.3	4	-1E+10	1	-1E+10	1	-1E+10	1	-1E+10	1	-1E+10	1	-1E+10	1
4901784	233	C	11/20/2021	10:50	-136.527	43.455	0	137.60	0	9.1610	0	36.9010	8	28.584	0	136.457	0	208.8	4	75.7	4	-1E+10	1	-1E+10	1	-1E+10	1	-1E+10	1	-1E+10	1	-1E+10	1
4901784	233	C	11/20/2021	10:50	-136.527	43.455	0	139.90	0	9.1580	0	36.9240	8	28.603	0	138.737	0	207.0	4	75.1	4	-1E+10	1	-1E+10	1	-1E+10	1	-1E+10	1	-1E+10	1	-1E+10	1
4901784	233	C	11/20/2021	10:50	-136.527	43.455	0	142.90	0	9.1420	0	36.9700	8	28.641	0	141.711	0	204.1	4	74.0	4	-1E+10	1	-1E+10	1	-1E+10	1	-1E+10	1	-1E+10	1	-1E+10	1
4901784	233	C	11/20/2021	10:50	-136.527	43.455	0	145.30	0	9.0900	0	37.0790	8	28.736	0	144.090	0	202.2	4	73.3	4	-1E+10	1	-1E+10	1	-1E+10	1	-1E+10	1	-1E+10	1	-1E+10	1
4901784	233	C	11/20/2021	10:50	-136.527	43.455	0	147.80	0	9.0800	0	37.1080	8	28.760	0	146.569	0	201.3	4	73.0	4	-1E+10	1	-1E+10	1	-1E+10	1	-1E+10	1	-1E+10	1	-1E+10	1
4901784	233	C	11/20/2021	10:50	-136.527	43.455	0	150.20	0	9.0770	0	37.1160	8	28.767	0	148.948	0	200.6	4	72.7	4	-1E+10	1	-1E+10	1	-1E+10	1	-1E+10	1	-1E+10	1	-1E+10	1
4901784	233	C	11/20/2021	10:50	-136.527	43.455	0	152.60	0	9.0650	0	37.1410	8	28.788	0	151.327	0	199.4	4	72.3	4	-1E+10	1	-1E+10	1	-1E+10	1	-1E+10	1	-1E+10	1	-1E+10	1
4901784	233	C	11/20/2021	10:50	-136.527	43.455	0	155.10	0	9.0360	0	37.1890	8	28.831	0	153.805	0	198.3	4	71.8	4	-1E+10	1	-1E+10	1	-1E+10	1	-1E+10	1	-1E+10	1	-1E+10	1
4901784	233	C	11/20/2021	10:50	-136.527	43.455	0	157.60	0	9.0130	0	37.2470	8	28.880	0	156.283	0	197.6	4	71.6	4	-1E+10	1	-1E+10	1	-1E+10	1	-1E+10	1	-1E+10	1	-1E+10	1
4901784	233	C	11/20/2021	10:50	-136.527	43.455	0	160.20	0	8.9970	0	37.2950	8	28.921	0	158.861	0	197.3	4	71.5	4	-1E+10	1	-1E+10	1	-1E+10	1	-1E+10	1	-1E+10	1	-1E+10	1
4901784	233	C	11/20/2021	10:50	-136.527	43.455	0	162.80	0	8.9890	0	37.3200	8	28.942	0	161.438	0	197.2	4	71.4	4	-1E+10	1	-1E+10	1	-1E+10	1	-1E+10	1	-1E+10	1	-1E+10	1
4901784	233	C	11/20/2021	10:50	-136.527	43.455	0	165.40	0	8.9750	0	37.3480	8	28.966	0	164.015	0	197.1	4	71.4	4	-1E+10	1	-1E+10	1	-1E+10	1	-1E+10	1	-1E+10	1	-1E+10	1
4901784	233	C	11/20/2021	10:50	-136.527	43.455	0	167.10	0	8.9710	0	37.3520	8	28.970	0	165.700	0	197.1	4	71.4	4	-1E+10	1	-1E+10	1	-1E+10	1	-1E+10	1	-1E+10	1	-1E+10	1
4901784	233	C	11/20/2021	10:50	-136.527	43.455	0	169.80	0	8.9620	0	37.3670	8	28.983	0	168.376	0	197.1	4	71.4	4	-1E+10	1	-1E+10	1	-1E+10	1	-1E+10	1	-1E+10	1	-1E+10	1
4901784	233	C	11/20/2021	10:50	-136.527	43.455	0	172.40	0	8.9570	0	37.3780	8	28.993	0	170.954	0	196.9	4	71.3	4	-1E+10	1	-1E+10	1	-1E+10	1	-1E+10	1	-1E+10	1	-1E+10	1
4901784	233	C	11/20/2021	10:50	-136.527	43.455	0	175.10	0	8.9560	0	37.3890	8	29.001	0	173.630	0	197.0	4	71.3	4	-1E+10	1	-1E+10	1	-1E+10	1	-1E+10	1	-1E+10	1	-1E+10	1
4901784	233	C	11/20/2021	10:50	-136.527	43.455	0	177.70	0	8.9490	0	37.3980	8	29.010	0	176.207	0	196.7	4	71.2	4	-1E+10	1	-1E+10	1	-1E+10	1	-1E+10	1	-1E+10	1	-1E+10	1
4901784	233	C	11/20/2021	10:50	-136.527	43.455	0	180.30	0	8.9190	0	37.4210	8	29.033	0	178.784	0	196.6	4	71.2	4	-1E+10	1	-1E+10	1	-1E+10	1	-1E+10	1	-1E+10	1	-1E+10	1
4901784	233	C	11/20/2021	10:50	-136.527	43.455	0	183.10	0	8.9200	0	37.4290	8	29.039	0	181.559	0	196.5	4	71.1	4	-1E+10	1	-1E+10	1	-1E+10	1	-1E+10	1	-1E+10	1	-1E+10	1
4901784	233	C	11/20/2021	10:50	-136.527	43.455	0	184.90	0	8.9250	0	37.4330	8	29.041	0	183.343	0	196.0	4	71.0	4	-1E+10	1	-1E+10	1	-1E+10	1	-1E+10	1	-1E+10	1	-1E+10	1
4901784	233	C	11/20/2021	10:50	-136.527	43.455	0	187.60	0	8.8960	0	37.4460	8	29.056	0	186.019	0	195.3	4	70.7	4	-1E+10	1	-1E+10	1	-1E+10	1	-1E+10	1	-1E+10	1	-1E+10	1
4901784	233	C	11/20/2021	10:50	-136.527	43.455	0	190.40	0	8.8650	0	37.4550	8	29.068	0	188.794	0	194.0	4	70.2	4	-1E+10	1	-1E+10	1	-1E+10	1	-1E+10	1	-1E+10	1	-1E+10	1
4901784	233	C	11/20/2021	10:50	-136.527	43.455	0	192.70	0	8.8150	0	37.4600	8	29.081	0	191.074	0	192.5	4	69.5	4	-1E+10	1	-1E+10	1	-1E+10	1	-1E+10	1	-1E+10	1	-1E+10	1
4901784	233	C	11/20/2021	10:50	-136.527	43.455	0	195.40	0	8.7760	0	37.4550	8	29.083	0	193.750	0	189.5	4	68.4	4	-1E+10	1	-1E+10	1	-1E+10	1	-1E+10	1	-1E+10	1	-1E+10	1
4901784	233	C	11/20/2021	10:50	-136.527	43.455	0	197.70	0	8.6940	0	37.4520	8	29.094	0	196.029	0	186.3	4	67.1	4	-1E+10	1	-1E+10	1	-1E+10	1	-1E+10	1	-1E+10	1	-1E+10	1
4901784	233	C	11/20/2021	10:50	-136.527	43.455	0	200.20	0	8.5250	0	37.4590	8	29.127	0	198.507	0	184.8	4	66.3	4	-1E+10	1	-1E+10	1	-1E+10	1	-1E+10	1	-1E+10	1	-1E+10	1
4901784	233	C	11/20/2021	10:50	-136.527	43.455	0	202.60	0	8.4020	0	37.4650	8	29.152	0	200.886	0	183.8	4	65.8	4	-1E+10	1	-1E+10	1	-1E+10	1	-1E+10	1	-1E+10	1	-1E+10	1
4901784	233	C	11/20/2021	10:50	-136.527	43.455	0	205.00	0	8.3290	0	37.4640	8	29.163	0	203.264	0	183.4	4	65.5	4	-1E+10	1	-1E+10	1	-1E+10	1	-1E+10	1	-1E+10	1	-1E+10	1
4901784	233	C	11/20/2021	10:50	-136.527	43.455	0	207.40	0	8.2730	0	37.4700	8	29.176	0	205.642	0	183.0	4	65.3	4	-1E+10	1	-1E+10	1	-1E+10	1	-1E+10	1	-1E+10	1	-1E+10	1
4901784	233	C	11/20/2021	10:50	-136.527	43.455	0	209.80	0	8.2610	0	37.4700	8	29.178	0	208.021	0	182.7	4	65.2	4	-1E+10	1	-1E+10	1	-1E+10	1	-1E+10	1	-1E+10	1	-1E+10	1
4901784	233	C	11/20/2021	10:50	-136.527	43.455	0	212.20	0	8.2010	0	37.4750	8	29.192	0	210.399	0	182.2	4	65.0	4	-1E+10	1	-1E+10	1	-1E+10	1	-1E+10	1	-1E+10	1	-1E+10	1
4901784	233	C	11/20/2021	10:50	-136.527	43.455	0	214.60	0	8.1950	0	37.4740	8	29.192	0	212.778	0	181.9	4	64.8	4	-1E+10	1	-1E+10	1	-1E+10	1	-1E+10	1	-1E+10	1	-1E+10	1
4901784	233	C	11/20/2021	10:50	-136.527	43.455	0	217.10	0	8.1860	0	37.4740	8	29.193	0	215.255	0	181.5	4	64.7	4	-1E+10	1	-1E+10	1	-1E+10	1	-1E+10	1	-1E+10	1	-1E+10	1
4901784	233	C	11/20/2021	10:50	-136.527	43.455	0	219.60	0	8.1730	0	37.4740	8	29.195	0	217.733	0	180.9	4	64.4	4	-1E+10	1	-1E+10	1	-1E+10	1	-1E+10	1	-1E+10	1	-1E+10	1
4901784	233	C	11/20/2021	10:50	-136.527	43.455	0	222.90	0	8.1300	0	37.4720	8	29.201	0	221.003	0	179.8	4	64.0	4	-1E+10	1	-1E+10	1	-1E+10	1	-1E+10	1	-1E+10	1	-1E+10	1
4901784	233	C	11/20/2021	10:50	-136.527	43.455	0	225.40	0	8.0640	0	37.4720	8	29.211	0	223.480	0	178.9	4	63.6	4	-1E+10	1	-1E+10	1	-1E+10	1	-1E+10	1	-1E+10	1	-1E+10	1
4901784	233	C	11/20/2021	10:50	-136.527	43.455	0	227.90	0	7.9860	0	37.4730	8	29.224	0	225.958	0	178.1	4	63.2	4	-1E+10	1	-1E+10	1	-1E+10	1	-1E+10	1	-1E+10	1	-1E+10	1
4901784	233	C	11/20/2021	10:50	-136.527	43.455	0	230.30	0	7.9100	0	37.4750	8	29.237	0	228.336	0	177.6	4	62.9	4	-1E+10	1	-1E+10	1	-1E+10	1	-1E+10	1	-1E+10	1	-1E+10	1
4901784	233	C	11/20/2021	10:50	-136.527	43.455	0	232.90	0	7.8720	0	37.4780	8	29.246	0	230.912	0	177.1	4	62.7	4	-1E+10	1	-1E+10	1	-1E+10	1	-1E+10	1	-1E+10	1	-1E+10	1
4901784	233	C	11/20/2021	10:50	-136.527	43.455	0	235.40	0	7.8530	0	37.4780	8	29.249	0	233.389	0	176.6	4	62.5	4	-1E+10	1	-1E+10	1	-1E+10	1	-1E+10	1	-1E+10	1	-1E+10	1
4901784	233	C	11/20/2021	10:50	-136.527	43.455	0	237.10	0	7.8440	0	37.4790	8	29.251	0	235.074	0	176.1	4	62.3	4	-1E+10	1	-1E+10	1	-1E+10	1	-1E+10	1	-1E+10	1	-1E+10	1
4901784	233	C	11/20/2021	10:50	-136.527	43.455	0	239.70	0	7.8350	0	37.4770	8	29.251	0	237.650	0	175.0	4	61.9	4	-1E+10	1	-1E+10	1	-1E+10	1	-1E+10	1	-1E+10	1	-1E+10	1
4901784	233	C	11/20/2021	10:50	-136.527	43.455	0	242.20	0	7.7920	0	37.4770	8	29.257	0	240.127	0	173.6	4	61.3	4	-1E+10	1	-1E+10	1	-1E+10	1	-1E+10	1	-1E+10	1	-1E+10	1
4901784	233	C	11/20/2021	10:50	-136.527	43.455	0	244.80	0	7.7450	0	37.4790	8	29.266	0	242.704	0	172.0	4	60.7	4	-1E+10	1	-1E+10	1	-1E+10	1	-1E+10	1	-1E+10	1	-1E+10	1
4901784	233	C	11/20/2021	10:50	-136.527	43.455	0	247.30	0	7.6870	0	37.4840	8	29.279	0	245.181	0	170.7	4	60.1	4	-1E+10	1	-1E+10	1	-1E+10	1	-1E+10	1	-1E+10	1	-1E+10	1
4901784	233	C	11/20/2021	10:50	-136.527	43.455	0	249.90	0	7.6690	0	37.4850	8	29.282	0	247.757	0	169.6	4	59.7	4	-1E+10	1	-1E+10	1	-1E+10	1	-1E+10	1	-1E+10	1	-1E+10	1
4901784	233	C	11/20/2021	10:50	-136.527	43.455	0	252.50	0	7.6610	0	37.4840	8	29.283	0	250.333	0	168.1	4	59.2	4	-1E+10	1	-1E+10	1	-1E+10	1	-1E+10	1	-1E+10	1	-1E+10	1
4901784	233	C	11/20/2021	10:50	-136.527	43.455	0	255.20	0	7.6360	0	37.4850	8	29.288	0	253.008	0	166.1	4	58.5	4	-1E+10	1	-1E+10	1	-1E+10	1	-1E+10	1	-1E+10	1	-1E+10	1
4901784	233	C	11/20/2021	10:50	-136.527	43.455	0	257.70	0	7.5670	0	37.4940	8	29.305	0	255.485	0	164.1	4	57.7	4	-1E+10	1	-1E+10	1	-1E+10	1	-1E+10	1	-1E+10	1	-1E+10	1
4901784	233	C	11/20/2021	10:50	-136.527	43.455	0	259.50	0	7.5520	0	37.4960	8	29.309	0	257.269	0	163.3	4	57.4	4	-1E+10	1	-1E+10	1	-1E+10	1	-1E+10	1	-1E+10	1	-1E+10	1
4901784	233	C	11/20/2021	10:50	-136.527	43.455	0	262.20	0	7.5180	0	37.4990	8	29.317	0	259.944	0	161.9	4	56.9	4	-1E+10	1	-1E+10	1	-1E+10	1	-1E+10	1	-1E+10	1	-1E+10	1
4901784	233	C	11/20/2021	10:50	-136.527	43.455	0	265.00	0	7.4870	0	37.5010	8	29.323	0	262.718	0	160.9	4	56.5	4	-1E+10	1	-1E+10	1	-1E+10	1	-1E+10	1	-1E+10	1	-1E+10	1
4901784	233	C	11/20/2021	10:50	-136.527	43.455	0	267.60	0	7.4230	0	37.5030	8	29.334	0	265.294	0	159.9	4	56.0	4	-1E+10	1	-1E+10	1	-1E+10	1	-1E+10	1	-1E+10	1	-1E+10	1
4901784	233	C	11/20/2021	10:50	-136.527	43.455	0	270.30	0	7.3950	0	37.5050	8	29.340	0	267.969	0	158.1	4	55.4	4	-1E+10	1	-1E+10	1	-1E+10	1	-1E+10	1	-1E+10	1	-1E+10	1
4901784	233	C	11/20/2021	10:50	-136.527	43.455	0	272.10	0	7.4080	0	37.5080	8	29.340	0	269.752	0	156.6	4	54.9	4	-1E+10	1	-1E+10	1	-1E+10	1	-1E+10	1	-1E+10	1	-1E+10	1
4901784	233	C	11/20/2021	10:50	-136.527	43.455	0	274.70	0	7.3590	0	37.5130	8	29.352	0	272.328	0	154.8	4	54.2	4	-1E+10	1	-1E+10	1	-1E+10	1	-1E+10	1	-1E+10	1	-1E+10	1
4901784	233	C	11/20/2021	10:50	-136.527	43.455	0	277.40	0	7.3340	0	37.5190	8	29.360	0	275.003	0	153.3	4	53.6	4	-1E+10	1	-1E+10	1	-1E+10	1	-1E+10	1	-1E+10	1	-1E+10	1
4901784	233	C	11/20/2021	10:50	-136.527	43.455	0	280.10	0	7.3160	0	37.5200	8	29.364	0	277.678	0	151.9	4	53.1	4	-1E+10	1	-1E+10	1	-1E+10	1	-1E+10	1	-1E+10	1	-1E+10	1
4901784	233	C	11/20/2021	10:50	-136.527	43.455	0	282.90	0	7.2930	0	37.5200	8	29.367	0	280.452	0	150.4	4	52.5	4	-1E+10	1	-1E+10	1	-1E+10	1	-1E+10	1	-1E+10	1	-1E+10	1
4901784	233	C	11/20/2021	10:50	-136.527	43.455	0	284.70	0	7.2660	0	37.5240	8	29.374	0	282.235	0	149.3	4	52.1	4	-1E+10	1	-1E+10	1	-1E+10	1	-1E+10	1	-1E+10	1	-1E+10	1
4901784	233	C	11/20/2021	10:50	-136.527	43.455	0	287.30	0	7.2180	0	37.5260	8	29.383	0	284.810	0	147.7	4	51.5	4	-1E+10	1	-1E+10	1	-1E+10	1	-1E+10	1	-1E+10	1	-1E+10	1
4901784	233	C	11/20/2021	10:50	-136.527	43.455	0	290.00	0	7.1860	0	37.5280	8	29.389	0	287.485	0	146.2	4	51.0	4	-1E+10	1	-1E+10	1	-1E+10	1	-1E+10	1	-1E+10	1	-1E+10	1
4901784	233	C	11/20/2021	10:50	-136.527	43.455	0	292.70	0	7.1340	0	37.5300	8	29.398	0	290.160	0	144.3	4	50.3	4	-1E+10	1	-1E+10	1	-1E+10	1	-1E+10	1	-1E+10	1	-1E+10	1
4901784	233	C	11/20/2021	10:50	-136.527	43.455	0	295.40	0	7.1040	0	37.5280	8	29.401	0	292.835	0	142.4	4	49.6	4	-1E+10	1	-1E+10	1	-1E+10	1	-1E+10	1	-1E+10	1	-1E+10	1
4901784	233	C	11/20/2021	10:50	-136.527	43.455	0	297.30	0	7.0410	0	37.5350	8	29.416	0	294.717	0	141.1	4	49.0	4	-1E+10	1	-1E+10	1	-1E+10	1	-1E+10	1	-1E+10	1	-1E+10	1
4901784	233	C	11/20/2021	10:50	-136.527	43.455	0	300.10	0	6.9810	0	37.5380	8	29.427	0	297.490	0	139.6	4	48.4	4	-1E+10	1	-1E+10	1	-1E+10	1	-1E+10	1	-1E+10	1	-1E+10	1
4901784	233	C	11/20/2021	10:50	-136.527	43.455	0	302.90	0	6.9400	0	37.5440	8	29.438	0	300.264	0	137.8	4	47.8	4	-1E+10	1	-1E+10	1	-1E+10	1	-1E+10	1	-1E+10	1	-1E+10	1
4901784	233	C	11/20/2021	10:50	-136.527	43.455	0	304.80	0	6.9000	0	37.5450	8	29.444	0	302.146	0	137.1	4	47.5	4	-1E+10	1	-1E+10	1	-1E+10	1	-1E+10	1	-1E+10	1	-1E+10	1
4901784	233	C	11/20/2021	10:50	-136.527	43.455	0	307.60	0	6.8740	0	37.5450	8	29.448	0	304.920	0	135.9	4	47.0	4	-1E+10	1	-1E+10	1	-1E+10	1	-1E+10	1	-1E+10	1	-1E+10	1
4901784	233	C	11/20/2021	10:50	-136.527	43.455	0	310.40	0	6.8550	0	37.5430	8	29.449	0	307.693	0	134.3	4	46.5	4	-1E+10	1	-1E+10	1	-1E+10	1	-1E+10	1	-1E+10	1	-1E+10	1
4901784	233	C	11/20/2021	10:50	-136.527	43.455	0	312.30	0	6.8050	0	37.5470	8	29.460	0	309.575	0	133.3	4	46.1	4	-1E+10	1	-1E+10	1	-1E+10	1	-1E+10	1	-1E+10	1	-1E+10	1
4901784	233	C	11/20/2021	10:50	-136.527	43.455	0	315.10	0	6.7610	0	37.5480	8	29.467	0	312.349	0	132.0	4	45.6	4	-1E+10	1	-1E+10	1	-1E+10	1	-1E+10	1	-1E+10	1	-1E+10	1
4901784	233	C	11/20/2021	10:50	-136.527	43.455	0	317.90	0	6.7160	0	37.5490	8	29.474	0	315.122	0	130.9	4	45.2	4	-1E+10	1	-1E+10	1	-1E+10	1	-1E+10	1	-1E+10	1	-1E+10	1
4901784	233	C	11/20/2021	10:50	-136.527	43.455	0	319.80	0	6.6720	0	37.5520	8	29.483	0	317.004	0	130.4	4	45.0	4	-1E+10	1	-1E+10	1	-1E+10	1	-1E+10	1	-1E+10	1	-1E+10	1
4901784	233	C	11/20/2021	10:50	-136.527	43.455	0	322.70	0	6.6380	0	37.5520	8	29.487	0	319.876	0	129.6	4	44.6	4	-1E+10	1	-1E+10	1	-1E+10	1	-1E+10	1	-1E+10	1	-1E+10	1
4901784	233	C	11/20/2021	10:50	-136.527	43.455	0	325.60	0	6.6170	0	37.5510	8	29.490	0	322.749	0	128.7	4	44.3	4	-1E+10	1	-1E+10	1	-1E+10	1	-1E+10	1	-1E+10	1	-1E+10	1
4901784	233	C	11/20/2021	10:50	-136.527	43.455	0	327.50	0	6.6010	0	37.5510	8	29.492	0	324.631	0	128.1	4	44.1	4	-1E+10	1	-1E+10	1	-1E+10	1	-1E+10	1	-1E+10	1	-1E+10	1
4901784	233	C	11/20/2021	10:50	-136.527	43.455	0	329.40	0	6.5810	0	37.5500	8	29.494	0	326.512	0	127.4	4	43.8	4	-1E+10	1	-1E+10	1	-1E+10	1	-1E+10	1	-1E+10	1	-1E+10	1
4901784	233	C	11/20/2021	10:50	-136.527	43.455	0	332.40	0	6.5110	0	37.5510	8	29.505	0	329.484	0	126.4	4	43.4	4	-1E+10	1	-1E+10	1	-1E+10	1	-1E+10	1	-1E+10	1	-1E+10	1
4901784	233	C	11/20/2021	10:50	-136.527	43.455	0	335.30	0	6.4540	0	37.5500	8	29.512	0	332.356	0	125.5	4	43.0	4	-1E+10	1	-1E+10	1	-1E+10	1	-1E+10	1	-1E+10	1	-1E+10	1
4901784	233	C	11/20/2021	10:50	-136.527	43.455	0	337.20	0	6.4150	0	37.5490	8	29.516	0	334.238	0	124.7	4	42.7	4	-1E+10	1	-1E+10	1	-1E+10	1	-1E+10	1	-1E+10	1	-1E+10	1
4901784	233	C	11/20/2021	10:50	-136.527	43.455	0	340.20	0	6.4000	0	37.5540	8	29.523	0	337.209	0	123.6	4	42.3	4	-1E+10	1	-1E+10	1	-1E+10	1	-1E+10	1	-1E+10	1	-1E+10	1
4901784	233	C	11/20/2021	10:50	-136.527	43.455	0	343.00	0	6.3750	0	37.5550	8	29.527	0	339.982	0	122.8	4	42.0	4	-1E+10	1	-1E+10	1	-1E+10	1	-1E+10	1	-1E+10	1	-1E+10	1
4901784	233	C	11/20/2021	10:50	-136.527	43.455	0	344.80	0	6.3360	0	37.5550	8	29.532	0	341.765	0	122.4	4	41.9	4	-1E+10	1	-1E+10	1	-1E+10	1	-1E+10	1	-1E+10	1	-1E+10	1
4901784	233	C	11/20/2021	10:50	-136.527	43.455	0	347.70	0	6.2770	0	37.5570	8	29.542	0	344.637	0	121.7	4	41.6	4	-1E+10	1	-1E+10	1	-1E+10	1	-1E+10	1	-1E+10	1	-1E+10	1
4901784	233	C	11/20/2021	10:50	-136.527	43.455	0	350.50	0	6.2510	0	37.5570	8	29.546	0	347.410	0	121.2	4	41.4	4	-1E+10	1	-1E+10	1	-1E+10	1	-1E+10	1	-1E+10	1	-1E+10	1
4901784	233	C	11/20/2021	10:50	-136.527	43.455	0	353.00	0	6.2370	0	37.5540	8	29.545	0	349.886	0	120.5	4	41.1	4	-1E+10	1	-1E+10	1	-1E+10	1	-1E+10	1	-1E+10	1	-1E+10	1
4901784	233	C	11/20/2021	10:50	-136.527	43.455	0	354.90	0	6.2270	0	37.5520	8	29.545	0	351.767	0	119.6	4	40.8	4	-1E+10	1	-1E+10	1	-1E+10	1	-1E+10	1	-1E+10	1	-1E+10	1
4901784	233	C	11/20/2021	10:50	-136.527	43.455	0	357.30	0	6.1790	0	37.5540	8	29.553	0	354.144	0	118.3	4	40.3	4	-1E+10	1	-1E+10	1	-1E+10	1	-1E+10	1	-1E+10	1	-1E+10	1
4901784	233	C	11/20/2021	10:50	-136.527	43.455	0	359.70	0	6.1070	0	37.5550	8	29.564	0	356.521	0	117.4	4	40.0	4	-1E+10	1	-1E+10	1	-1E+10	1	-1E+10	1	-1E+10	1	-1E+10	1
4901784	233	C	11/20/2021	10:50	-136.527	43.455	0	362.10	0	6.0180	0	37.5560	8	29.576	0	358.898	0	117.2	4	39.8	4	-1E+10	1	-1E+10	1	-1E+10	1	-1E+10	1	-1E+10	1	-1E+10	1
4901784	233	C	11/20/2021	10:50	-136.527	43.455	0	365.30	0	5.9910	0	37.5540	8	29.579	0	362.066	0	115.9	4	39.3	4	-1E+10	1	-1E+10	1	-1E+10	1	-1E+10	1	-1E+10	1	-1E+10	1
4901784	233	C	11/20/2021	10:50	-136.527	43.455	0	367.80	0	5.9740	0	37.5520	8	29.579	0	364.542	0	114.4	4	38.8	4	-1E+10	1	-1E+10	1	-1E+10	1	-1E+10	1	-1E+10	1	-1E+10	1
4901784	233	C	11/20/2021	10:50	-136.527	43.455	0	370.30	0	5.9240	0	37.5600	8	29.592	0	367.018	0	112.5	4	38.1	4	-1E+10	1	-1E+10	1	-1E+10	1	-1E+10	1	-1E+10	1	-1E+10	1
4901784	233	C	11/20/2021	10:50	-136.527	43.455	0	372.80	0	5.9210	0	37.5610	8	29.594	0	369.493	0	110.5	4	37.4	4	-1E+10	1	-1E+10	1	-1E+10	1	-1E+10	1	-1E+10	1	-1E+10	1
4901784	233	C	11/20/2021	10:50	-136.527	43.455	0	375.30	0	5.9130	0	37.5670	8	29.599	0	371.969	0	107.8	4	36.5	4	-1E+10	1	-1E+10	1	-1E+10	1	-1E+10	1	-1E+10	1	-1E+10	1
4901784	233	C	11/20/2021	10:50	-136.527	43.455	0	377.80	0	5.8950	0	37.5740	8	29.607	0	374.444	0	105.6	4	35.8	4	-1E+10	1	-1E+10	1	-1E+10	1	-1E+10	1	-1E+10	1	-1E+10	1
4901784	233	C	11/20/2021	10:50	-136.527	43.455	0	380.20	0	5.8520	0	37.5790	8	29.617	0	376.821	0	104.2	4	35.2	4	-1E+10	1	-1E+10	1	-1E+10	1	-1E+10	1	-1E+10	1	-1E+10	1
4901784	233	C	11/20/2021	10:50	-136.527	43.455	0	382.70	0	5.8290	0	37.5820	8	29.622	0	379.296	0	103.1	4	34.8	4	-1E+10	1	-1E+10	1	-1E+10	1	-1E+10	1	-1E+10	1	-1E+10	1
4901784	233	C	11/20/2021	10:50	-136.527	43.455	0	385.20	0	5.7970	0	37.5820	8	29.627	0	381.772	0	102.1	4	34.5	4	-1E+10	1	-1E+10	1	-1E+10	1	-1E+10	1	-1E+10	1	-1E+10	1
4901784	233	C	11/20/2021	10:50	-136.527	43.455	0	387.70	0	5.7750	0	37.5840	8	29.631	0	384.247	0	100.9	4	34.1	4	-1E+10	1	-1E+10	1	-1E+10	1	-1E+10	1	-1E+10	1	-1E+10	1
4901784	233	C	11/20/2021	10:50	-136.527	43.455	0	390.20	0	5.7560	0	37.5850	8	29.635	0	386.723	0	99.7	4	33.7	4	-1E+10	1	-1E+10	1	-1E+10	1	-1E+10	1	-1E+10	1	-1E+10	1
4901784	233	C	11/20/2021	10:50	-136.527	43.455	0	392.70	0	5.7410	0	37.5840	8	29.636	0	389.198	0	98.4	4	33.2	4	-1E+10	1	-1E+10	1	-1E+10	1	-1E+10	1	-1E+10	1	-1E+10	1
4901784	233	C	11/20/2021	10:50	-136.527	43.455	0	395.20	0	5.7000	0	37.5850	8	29.642	0	391.674	0	96.8	4	32.7	4	-1E+10	1	-1E+10	1	-1E+10	1	-1E+10	1	-1E+10	1	-1E+10	1
4901784	233	C	11/20/2021	10:50	-136.527	43.455	0	397.70	0	5.6450	0	37.5900	8	29.653	0	394.149	0	95.6	4	32.2	4	-1E+10	1	-1E+10	1	-1E+10	1	-1E+10	1	-1E+10	1	-1E+10	1
4901784	233	C	11/20/2021	10:50	-136.527	43.455	0	400.20	0	5.6240	0	37.5920	8	29.657	0	396.624	0	94.7	4	31.9	4	-1E+10	1	-1E+10	1	-1E+10	1	-1E+10	1	-1E+10	1	-1E+10	1
4901784	233	C	11/20/2021	10:50	-136.527	43.455	0	402.70	0	5.6050	0	37.5920	8	29.660	0	399.099	0	93.7	4	31.5	4	-1E+10	1	-1E+10	1	-1E+10	1	-1E+10	1	-1E+10	1	-1E+10	1
4901784	233	C	11/20/2021	10:50	-136.527	43.455	0	405.20	0	5.5810	0	37.5910	8	29.662	0	401.575	0	92.3	4	31.0	4	-1E+10	1	-1E+10	1	-1E+10	1	-1E+10	1	-1E+10	1	-1E+10	1
4901784	233	C	11/20/2021	10:50	-136.527	43.455	0	407.70	0	5.5090	0	37.5980	8	29.677	0	404.050	0	91.0	4	30.5	4	-1E+10	1	-1E+10	1	-1E+10	1	-1E+10	1	-1E+10	1	-1E+10	1
4901784	233	C	11/20/2021	10:50	-136.527	43.455	0	410.20	0	5.4870	0	37.6000	8	29.682	0	406.525	0	90.3	4	30.3	4	-1E+10	1	-1E+10	1	-1E+10	1	-1E+10	1	-1E+10	1	-1E+10	1
4901784	233	C	11/20/2021	10:50	-136.527	43.455	0	412.70	0	5.4800	0	37.5990	8	29.682	0	409.000	0	89.4	4	30.0	4	-1E+10	1	-1E+10	1	-1E+10	1	-1E+10	1	-1E+10	1	-1E+10	1
4901784	233	C	11/20/2021	10:50	-136.527	43.455	0	415.30	0	5.4510	0	37.6000	8	29.686	0	411.574	0	88.4	4	29.6	4	-1E+10	1	-1E+10	1	-1E+10	1	-1E+10	1	-1E+10	1	-1E+10	1
4901784	233	C	11/20/2021	10:50	-136.527	43.455	0	417.80	0	5.4000	0	37.6030	8	29.695	0	414.049	0	87.6	4	29.3	4	-1E+10	1	-1E+10	1	-1E+10	1	-1E+10	1	-1E+10	1	-1E+10	1
4901784	233	C	11/20/2021	10:50	-136.527	43.455	0	419.60	0	5.3830	0	37.6060	8	29.700	0	415.831	0	87.1	4	29.1	4	-1E+10	1	-1E+10	1	-1E+10	1	-1E+10	1	-1E+10	1	-1E+10	1
4901784	233	C	11/20/2021	10:50	-136.527	43.455	0	422.10	0	5.3530	0	37.6060	8	29.704	0	418.306	0	86.2	4	28.8	4	-1E+10	1	-1E+10	1	-1E+10	1	-1E+10	1	-1E+10	1	-1E+10	1
4901784	233	C	11/20/2021	10:50	-136.527	43.455	0	424.70	0	5.3290	0	37.6100	8	29.710	0	420.880	0	85.2	4	28.5	4	-1E+10	1	-1E+10	1	-1E+10	1	-1E+10	1	-1E+10	1	-1E+10	1
4901784	233	C	11/20/2021	10:50	-136.527	43.455	0	427.20	0	5.3210	0	37.6100	8	29.711	0	423.355	0	84.4	4	28.2	4	-1E+10	1	-1E+10	1	-1E+10	1	-1E+10	1	-1E+10	1	-1E+10	1
4901784	233	C	11/20/2021	10:50	-136.527	43.455	0	429.70	0	5.3100	0	37.6080	8	29.711	0	425.830	0	83.5	4	27.9	4	-1E+10	1	-1E+10	1	-1E+10	1	-1E+10	1	-1E+10	1	-1E+10	1
4901784	233	C	11/20/2021	10:50	-136.527	43.455	0	432.30	0	5.2590	0	37.6140	8	29.722	0	428.404	0	82.5	4	27.5	4	-1E+10	1	-1E+10	1	-1E+10	1	-1E+10	1	-1E+10	1	-1E+10	1
4901784	233	C	11/20/2021	10:50	-136.527	43.455	0	434.80	0	5.2310	0	37.6160	8	29.727	0	430.879	0	81.6	4	27.2	4	-1E+10	1	-1E+10	1	-1E+10	1	-1E+10	1	-1E+10	1	-1E+10	1
4901784	233	C	11/20/2021	10:50	-136.527	43.455	0	437.40	0	5.2100	0	37.6180	8	29.731	0	433.453	0	80.6	4	26.9	4	-1E+10	1	-1E+10	1	-1E+10	1	-1E+10	1	-1E+10	1	-1E+10	1
4901784	233	C	11/20/2021	10:50	-136.527	43.455	0	440.00	0	5.1860	0	37.6200	8	29.736	0	436.027	0	79.6	4	26.5	4	-1E+10	1	-1E+10	1	-1E+10	1	-1E+10	1	-1E+10	1	-1E+10	1
4901784	233	C	11/20/2021	10:50	-136.527	43.455	0	442.60	0	5.1650	0	37.6220	8	29.740	0	438.600	0	78.6	4	26.2	4	-1E+10	1	-1E+10	1	-1E+10	1	-1E+10	1	-1E+10	1	-1E+10	1
4901784	233	C	11/20/2021	10:50	-136.527	43.455	0	445.20	0	5.1340	0	37.6260	8	29.747	0	441.174	0	77.5	4	25.8	4	-1E+10	1	-1E+10	1	-1E+10	1	-1E+10	1	-1E+10	1	-1E+10	1
4901784	233	C	11/20/2021	10:50	-136.527	43.455	0	447.80	0	5.1070	0	37.6290	8	29.753	0	443.748	0	76.3	4	25.4	4	-1E+10	1	-1E+10	1	-1E+10	1	-1E+10	1	-1E+10	1	-1E+10	1
4901784	233	C	11/20/2021	10:50	-136.527	43.455	0	450.40	0	5.0820	0	37.6320	8	29.758	0	446.322	0	75.3	4	25.0	4	-1E+10	1	-1E+10	1	-1E+10	1	-1E+10	1	-1E+10	1	-1E+10	1
4901784	233	C	11/20/2021	10:50	-136.527	43.455	0	452.10	0	5.0630	0	37.6360	8	29.764	0	448.004	0	74.7	4	24.8	4	-1E+10	1	-1E+10	1	-1E+10	1	-1E+10	1	-1E+10	1	-1E+10	1
4901784	233	C	11/20/2021	10:50	-136.527	43.455	0	454.70	0	5.0550	0	37.6360	8	29.765	0	450.578	0	73.7	4	24.5	4	-1E+10	1	-1E+10	1	-1E+10	1	-1E+10	1	-1E+10	1	-1E+10	1
4901784	233	C	11/20/2021	10:50	-136.527	43.455	0	457.20	0	5.0330	0	37.6390	8	29.770	0	453.053	0	72.8	4	24.2	4	-1E+10	1	-1E+10	1	-1E+10	1	-1E+10	1	-1E+10	1	-1E+10	1
4901784	233	C	11/20/2021	10:50	-136.527	43.455	0	459.90	0	5.0160	0	37.6420	8	29.775	0	455.725	0	71.9	4	23.9	4	-1E+10	1	-1E+10	1	-1E+10	1	-1E+10	1	-1E+10	1	-1E+10	1
4901784	233	C	11/20/2021	10:50	-136.527	43.455	0	462.60	0	4.9930	0	37.6440	8	29.779	0	458.398	0	71.0	4	23.6	4	-1E+10	1	-1E+10	1	-1E+10	1	-1E+10	1	-1E+10	1	-1E+10	1
4901784	233	C	11/20/2021	10:50	-136.527	43.455	0	465.20	0	4.9680	0	37.6490	8	29.786	0	460.971	0	70.3	4	23.3	4	-1E+10	1	-1E+10	1	-1E+10	1	-1E+10	1	-1E+10	1	-1E+10	1
4901784	233	C	11/20/2021	10:50	-136.527	43.455	0	467.90	0	4.9500	0	37.6520	8	29.791	0	463.644	0	69.7	4	23.1	4	-1E+10	1	-1E+10	1	-1E+10	1	-1E+10	1	-1E+10	1	-1E+10	1
4901784	233	C	11/20/2021	10:50	-136.527	43.455	0	469.70	0	4.9460	0	37.6520	8	29.791	0	465.425	0	69.2	4	22.9	4	-1E+10	1	-1E+10	1	-1E+10	1	-1E+10	1	-1E+10	1	-1E+10	1
4901784	233	C	11/20/2021	10:50	-136.527	43.455	0	472.40	0	4.9340	0	37.6530	8	29.794	0	468.098	0	68.5	4	22.7	4	-1E+10	1	-1E+10	1	-1E+10	1	-1E+10	1	-1E+10	1	-1E+10	1
4901784	233	C	11/20/2021	10:50	-136.527	43.455	0	475.10	0	4.9160	0	37.6560	8	29.798	0	470.770	0	67.7	4	22.4	4	-1E+10	1	-1E+10	1	-1E+10	1	-1E+10	1	-1E+10	1	-1E+10	1
4901784	233	C	11/20/2021	10:50	-136.527	43.455	0	477.80	0	4.8970	0	37.6590	8	29.803	0	473.442	0	67.0	4	22.2	4	-1E+10	1	-1E+10	1	-1E+10	1	-1E+10	1	-1E+10	1	-1E+10	1
4901784	233	C	11/20/2021	10:50	-136.527	43.455	0	480.50	0	4.8790	0	37.6610	8	29.807	0	476.115	0	66.4	4	22.0	4	-1E+10	1	-1E+10	1	-1E+10	1	-1E+10	1	-1E+10	1	-1E+10	1
4901784	233	C	11/20/2021	10:50	-136.527	43.455	0	482.30	0	4.8630	0	37.6640	8	29.811	0	477.896	0	65.9	4	21.8	4	-1E+10	1	-1E+10	1	-1E+10	1	-1E+10	1	-1E+10	1	-1E+10	1
4901784	233	C	11/20/2021	10:50	-136.527	43.455	0	485.00	0	4.8540	0	37.6650	8	29.813	0	480.568	0	65.1	4	21.5	4	-1E+10	1	-1E+10	1	-1E+10	1	-1E+10	1	-1E+10	1	-1E+10	1
4901784	233	C	11/20/2021	10:50	-136.527	43.455	0	487.70	0	4.8340	0	37.6690	8	29.819	0	483.240	0	64.2	4	21.2	4	-1E+10	1	-1E+10	1	-1E+10	1	-1E+10	1	-1E+10	1	-1E+10	1
4901784	233	C	11/20/2021	10:50	-136.527	43.455	0	489.50	0	4.8280	0	37.6700	8	29.820	0	485.022	0	63.8	4	21.1	4	-1E+10	1	-1E+10	1	-1E+10	1	-1E+10	1	-1E+10	1	-1E+10	1
4901784	233	C	11/20/2021	10:50	-136.527	43.455	0	492.20	0	4.8170	0	37.6710	8	29.822	0	487.694	0	62.8	4	20.8	4	-1E+10	1	-1E+10	1	-1E+10	1	-1E+10	1	-1E+10	1	-1E+10	1
4901784	233	C	11/20/2021	10:50	-136.527	43.455	0	494.90	0	4.7980	0	37.6740	8	29.827	0	490.366	0	61.6	4	20.4	4	-1E+10	1	-1E+10	1	-1E+10	1	-1E+10	1	-1E+10	1	-1E+10	1
4901784	233	C	11/20/2021	10:50	-136.527	43.455	0	497.60	0	4.7800	0	37.6780	8	29.832	0	493.038	0	60.1	4	19.8	4	-1E+10	1	-1E+10	1	-1E+10	1	-1E+10	1	-1E+10	1	-1E+10	1
4901784	233	C	11/20/2021	10:50	-136.527	43.455	0	500.40	0	4.7540	0	37.6850	8	29.841	0	495.809	0	59.2	4	19.5	4	-1E+10	1	-1E+10	1	-1E+10	1	-1E+10	1	-1E+10	1	-1E+10	1
4901784	233	C	11/20/2021	10:50	-136.527	43.455	0	505.10	0	4.7300	0	37.6910	8	29.849	0	500.460	0	58.2	4	19.2	4	-1E+10	1	-1E+10	1	-1E+10	1	-1E+10	1	-1E+10	1	-1E+10	1
4901784	233	C	11/20/2021	10:50	-136.527	43.455	0	509.70	0	4.7180	0	37.6930	8	29.852	0	505.013	0	57.0	4	18.8	4	-1E+10	1	-1E+10	1	-1E+10	1	-1E+10	1	-1E+10	1	-1E+10	1
4901784	233	C	11/20/2021	10:50	-136.527	43.455	0	515.30	0	4.6950	0	37.6980	8	29.859	0	510.554	0	55.1	4	18.2	4	-1E+10	1	-1E+10	1	-1E+10	1	-1E+10	1	-1E+10	1	-1E+10	1
4901784	233	C	11/20/2021	10:50	-136.527	43.455	0	520.00	0	4.6690	0	37.7040	8	29.866	0	515.205	0	53.4	4	17.6	4	-1E+10	1	-1E+10	1	-1E+10	1	-1E+10	1	-1E+10	1	-1E+10	1
4901784	233	C	11/20/2021	10:50	-136.527	43.455	0	524.70	0	4.6420	0	37.7110	8	29.875	0	519.856	0	51.9	4	17.1	4	-1E+10	1	-1E+10	1	-1E+10	1	-1E+10	1	-1E+10	1	-1E+10	1
4901784	233	C	11/20/2021	10:50	-136.527	43.455	0	530.10	0	4.6250	0	37.7170	8	29.882	0	525.199	0	50.6	4	16.6	4	-1E+10	1	-1E+10	1	-1E+10	1	-1E+10	1	-1E+10	1	-1E+10	1
4901784	233	C	11/20/2021	10:50	-136.527	43.455	0	534.50	0	4.6100	0	37.7200	8	29.886	0	529.553	0	49.1	4	16.1	4	-1E+10	1	-1E+10	1	-1E+10	1	-1E+10	1	-1E+10	1	-1E+10	1
4901784	233	C	11/20/2021	10:50	-136.527	43.455	0	540.10	0	4.5740	0	37.7310	8	29.899	0	535.094	0	46.6	4	15.3	4	-1E+10	1	-1E+10	1	-1E+10	1	-1E+10	1	-1E+10	1	-1E+10	1
4901784	233	C	11/20/2021	10:50	-136.527	43.455	0	545.70	0	4.5490	0	37.7400	8	29.910	0	540.635	0	44.7	4	14.7	4	-1E+10	1	-1E+10	1	-1E+10	1	-1E+10	1	-1E+10	1	-1E+10	1
4901784	233	C	11/20/2021	10:50	-136.527	43.455	0	550.70	0	4.5340	0	37.7460	8	29.916	0	545.582	0	43.3	4	14.2	4	-1E+10	1	-1E+10	1	-1E+10	1	-1E+10	1	-1E+10	1	-1E+10	1
4901784	233	C	11/20/2021	10:50	-136.527	43.455	0	555.60	0	4.5180	0	37.7520	8	29.923	0	550.430	0	42.2	4	13.8	4	-1E+10	1	-1E+10	1	-1E+10	1	-1E+10	1	-1E+10	1	-1E+10	1
4901784	233	C	11/20/2021	10:50	-136.527	43.455	0	560.60	0	4.5100	0	37.7570	8	29.928	0	555.377	0	41.2	4	13.5	4	-1E+10	1	-1E+10	1	-1E+10	1	-1E+10	1	-1E+10	1	-1E+10	1
4901784	233	C	11/20/2021	10:50	-136.527	43.455	0	565.60	0	4.5030	0	37.7610	8	29.932	0	560.323	0	40.3	4	13.2	4	-1E+10	1	-1E+10	1	-1E+10	1	-1E+10	1	-1E+10	1	-1E+10	1
4901784	233	C	11/20/2021	10:50	-136.527	43.455	0	570.70	0	4.4860	0	37.7650	8	29.937	0	565.369	0	39.1	4	12.8	4	-1E+10	1	-1E+10	1	-1E+10	1	-1E+10	1	-1E+10	1	-1E+10	1
4901784	233	C	11/20/2021	10:50	-136.527	43.455	0	575.80	0	4.4710	0	37.7730	8	29.945	0	570.414	0	37.5	4	12.3	4	-1E+10	1	-1E+10	1	-1E+10	1	-1E+10	1	-1E+10	1	-1E+10	1
4901784	233	C	11/20/2021	10:50	-136.527	43.455	0	580.80	0	4.4640	0	37.7780	8	29.950	0	575.360	0	36.1	4	11.9	4	-1E+10	1	-1E+10	1	-1E+10	1	-1E+10	1	-1E+10	1	-1E+10	1
4901784	233	C	11/20/2021	10:50	-136.527	43.455	0	585.00	0	4.4480	0	37.7830	8	29.956	0	579.515	0	34.9	4	11.4	4	-1E+10	1	-1E+10	1	-1E+10	1	-1E+10	1	-1E+10	1	-1E+10	1
4901784	233	C	11/20/2021	10:50	-136.527	43.455	0	589.30	0	4.4310	0	37.7900	8	29.964	0	583.769	0	33.6	4	11.0	4	-1E+10	1	-1E+10	1	-1E+10	1	-1E+10	1	-1E+10	1	-1E+10	1
4901784	233	C	11/20/2021	10:50	-136.527	43.455	0	594.40	0	4.4130	0	37.7990	8	29.973	0	588.814	0	32.6	4	10.7	4	-1E+10	1	-1E+10	1	-1E+10	1	-1E+10	1	-1E+10	1	-1E+10	1
4901784	233	C	11/20/2021	10:50	-136.527	43.455	0	599.60	0	4.3980	0	37.8030	8	29.978	0	593.957	0	31.8	4	10.4	4	-1E+10	1	-1E+10	1	-1E+10	1	-1E+10	1	-1E+10	1	-1E+10	1
4901784	233	C	11/20/2021	10:50	-136.527	43.455	0	604.70	0	4.3770	0	37.8090	8	29.985	0	599.002	0	31.1	4	10.2	4	-1E+10	1	-1E+10	1	-1E+10	1	-1E+10	1	-1E+10	1	-1E+10	1
4901784	233	C	11/20/2021	10:50	-136.527	43.455	0	609.90	0	4.3640	0	37.8130	8	29.990	0	604.146	0	30.3	4	9.9	4	-1E+10	1	-1E+10	1	-1E+10	1	-1E+10	1	-1E+10	1	-1E+10	1
4901784	233	C	11/20/2021	10:50	-136.527	43.455	0	615.10	0	4.3470	0	37.8200	8	29.997	0	609.289	0	29.3	4	9.6	4	-1E+10	1	-1E+10	1	-1E+10	1	-1E+10	1	-1E+10	1	-1E+10	1
4901784	233	C	11/20/2021	10:50	-136.527	43.455	0	620.40	0	4.3370	0	37.8240	8	30.002	0	614.531	0	28.3	4	9.3	4	-1E+10	1	-1E+10	1	-1E+10	1	-1E+10	1	-1E+10	1	-1E+10	1
4901784	233	C	11/20/2021	10:50	-136.527	43.455	0	625.60	0	4.3210	0	37.8320	8	30.010	0	619.674	0	27.1	4	8.9	4	-1E+10	1	-1E+10	1	-1E+10	1	-1E+10	1	-1E+10	1	-1E+10	1
4901784	233	C	11/20/2021	10:50	-136.527	43.455	0	630.00	0	4.3050	0	37.8380	8	30.017	0	624.026	0	26.3	4	8.6	4	-1E+10	1	-1E+10	1	-1E+10	1	-1E+10	1	-1E+10	1	-1E+10	1
4901784	233	C	11/20/2021	10:50	-136.527	43.455	0	634.40	0	4.2960	0	37.8440	8	30.023	0	628.378	0	25.4	4	8.3	4	-1E+10	1	-1E+10	1	-1E+10	1	-1E+10	1	-1E+10	1	-1E+10	1
4901784	233	C	11/20/2021	10:50	-136.527	43.455	0	639.70	0	4.2880	0	37.8490	8	30.028	0	633.619	0	24.7	4	8.1	4	-1E+10	1	-1E+10	1	-1E+10	1	-1E+10	1	-1E+10	1	-1E+10	1
4901784	233	C	11/20/2021	10:50	-136.527	43.455	0	645.10	0	4.2760	0	37.8530	8	30.032	0	638.960	0	24.1	4	7.9	4	-1E+10	1	-1E+10	1	-1E+10	1	-1E+10	1	-1E+10	1	-1E+10	1
4901784	233	C	11/20/2021	10:50	-136.527	43.455	0	650.50	0	4.2530	0	37.8610	8	30.041	0	644.300	0	23.5	4	7.7	4	-1E+10	1	-1E+10	1	-1E+10	1	-1E+10	1	-1E+10	1	-1E+10	1
4901784	233	C	11/20/2021	10:50	-136.527	43.455	0	654.90	0	4.2430	0	37.8640	8	30.045	0	648.651	0	23.2	4	7.6	4	-1E+10	1	-1E+10	1	-1E+10	1	-1E+10	1	-1E+10	1	-1E+10	1
4901784	233	C	11/20/2021	10:50	-136.527	43.455	0	659.50	0	4.2240	0	37.8690	8	30.051	0	653.200	0	22.9	4	7.5	4	-1E+10	1	-1E+10	1	-1E+10	1	-1E+10	1	-1E+10	1	-1E+10	1
4901784	233	C	11/20/2021	10:50	-136.527	43.455	0	664.90	0	4.2170	0	37.8720	8	30.054	0	658.540	0	22.0	4	7.2	4	-1E+10	1	-1E+10	1	-1E+10	1	-1E+10	1	-1E+10	1	-1E+10	1
4901784	233	C	11/20/2021	10:50	-136.527	43.455	0	670.40	0	4.2140	0	37.8780	8	30.059	0	663.978	0	21.1	4	6.9	4	-1E+10	1	-1E+10	1	-1E+10	1	-1E+10	1	-1E+10	1	-1E+10	1
4901784	233	C	11/20/2021	10:50	-136.527	43.455	0	674.90	0	4.2050	0	37.8830	8	30.065	0	668.428	0	20.4	4	6.7	4	-1E+10	1	-1E+10	1	-1E+10	1	-1E+10	1	-1E+10	1	-1E+10	1
4901784	233	C	11/20/2021	10:50	-136.527	43.455	0	679.60	0	4.1880	0	37.8910	8	30.073	0	673.075	0	19.7	4	6.4	4	-1E+10	1	-1E+10	1	-1E+10	1	-1E+10	1	-1E+10	1	-1E+10	1
4901784	233	C	11/20/2021	10:50	-136.527	43.455	0	685.10	0	4.1790	0	37.8960	8	30.078	0	678.514	0	18.9	4	6.2	4	-1E+10	1	-1E+10	1	-1E+10	1	-1E+10	1	-1E+10	1	-1E+10	1
4901784	233	C	11/20/2021	10:50	-136.527	43.455	0	689.70	0	4.1730	0	37.9030	8	30.084	0	683.062	0	18.1	4	5.9	4	-1E+10	1	-1E+10	1	-1E+10	1	-1E+10	1	-1E+10	1	-1E+10	1
4901784	233	C	11/20/2021	10:50	-136.527	43.455	0	694.40	0	4.1680	0	37.9100	8	30.090	0	687.709	0	17.4	4	5.7	4	-1E+10	1	-1E+10	1	-1E+10	1	-1E+10	1	-1E+10	1	-1E+10	1
4901784	233	C	11/20/2021	10:50	-136.527	43.455	0	700.10	0	4.1560	0	37.9200	8	30.100	0	693.345	0	16.8	4	5.5	4	-1E+10	1	-1E+10	1	-1E+10	1	-1E+10	1	-1E+10	1	-1E+10	1
4901784	233	C	11/20/2021	10:50	-136.527	43.455	0	704.80	0	4.1490	0	37.9240	8	30.104	0	697.991	0	16.5	4	5.4	4	-1E+10	1	-1E+10	1	-1E+10	1	-1E+10	1	-1E+10	1	-1E+10	1
4901784	233	C	11/20/2021	10:50	-136.527	43.455	0	709.90	0	4.1360	0	37.9280	8	30.109	0	703.034	0	16.2	4	5.3	4	-1E+10	1	-1E+10	1	-1E+10	1	-1E+10	1	-1E+10	1	-1E+10	1
4901784	233	C	11/20/2021	10:50	-136.527	43.455	0	715.20	0	4.1180	0	37.9330	8	30.115	0	708.273	0	16.0	4	5.2	4	-1E+10	1	-1E+10	1	-1E+10	1	-1E+10	1	-1E+10	1	-1E+10	1
4901784	233	C	11/20/2021	10:50	-136.527	43.455	0	719.90	0	4.1010	0	37.9360	8	30.119	0	712.920	0	16.0	4	5.2	4	-1E+10	1	-1E+10	1	-1E+10	1	-1E+10	1	-1E+10	1	-1E+10	1
4901784	233	C	11/20/2021	10:50	-136.527	43.455	0	724.70	0	4.0710	0	37.9420	8	30.127	0	717.665	0	15.8	4	5.2	4	-1E+10	1	-1E+10	1	-1E+10	1	-1E+10	1	-1E+10	1	-1E+10	1
4901784	233	C	11/20/2021	10:50	-136.527	43.455	0	729.50	0	4.0770	0	37.9440	8	30.128	0	722.410	0	15.5	4	5.0	4	-1E+10	1	-1E+10	1	-1E+10	1	-1E+10	1	-1E+10	1	-1E+10	1
4901784	233	C	11/20/2021	10:50	-136.527	43.455	0	734.30	0	4.0750	0	37.9470	8	30.131	0	727.155	0	15.0	4	4.9	4	-1E+10	1	-1E+10	1	-1E+10	1	-1E+10	1	-1E+10	1	-1E+10	1
4901784	233	C	11/20/2021	10:50	-136.527	43.455	0	740.00	0	4.0740	0	37.9550	8	30.137	0	732.790	0	14.3	4	4.7	4	-1E+10	1	-1E+10	1	-1E+10	1	-1E+10	1	-1E+10	1	-1E+10	1
4901784	233	C	11/20/2021	10:50	-136.527	43.455	0	745.70	0	4.0650	0	37.9620	8	30.144	0	738.424	0	13.9	4	4.5	4	-1E+10	1	-1E+10	1	-1E+10	1	-1E+10	1	-1E+10	1	-1E+10	1
4901784	233	C	11/20/2021	10:50	-136.527	43.455	0	750.70	0	4.0510	0	37.9670	8	30.150	0	743.366	0	13.7	4	4.5	4	-1E+10	1	-1E+10	1	-1E+10	1	-1E+10	1	-1E+10	1	-1E+10	1
4901784	233	C	11/20/2021	10:50	-136.527	43.455	0	755.60	0	4.0260	0	37.9730	8	30.157	0	748.210	0	13.4	4	4.4	4	-1E+10	1	-1E+10	1	-1E+10	1	-1E+10	1	-1E+10	1	-1E+10	1
4901784	233	C	11/20/2021	10:50	-136.527	43.455	0	760.60	0	4.0130	0	37.9790	8	30.163	0	753.152	0	13.2	4	4.3	4	-1E+10	1	-1E+10	1	-1E+10	1	-1E+10	1	-1E+10	1	-1E+10	1
4901784	233	C	11/20/2021	10:50	-136.527	43.455	0	765.70	0	4.0040	0	37.9830	8	30.168	0	758.192	0	13.0	4	4.2	4	-1E+10	1	-1E+10	1	-1E+10	1	-1E+10	1	-1E+10	1	-1E+10	1
4901784	233	C	11/20/2021	10:50	-136.527	43.455	0	770.70	0	3.9870	0	37.9890	8	30.174	0	763.134	0	12.7	4	4.1	4	-1E+10	1	-1E+10	1	-1E+10	1	-1E+10	1	-1E+10	1	-1E+10	1
4901784	233	C	11/20/2021	10:50	-136.527	43.455	0	775.80	0	3.9780	0	37.9930	8	30.179	0	768.175	0	12.5	4	4.1	4	-1E+10	1	-1E+10	1	-1E+10	1	-1E+10	1	-1E+10	1	-1E+10	1
4901784	233	C	11/20/2021	10:50	-136.527	43.455	0	780.00	0	3.9660	0	37.9990	8	30.185	0	772.326	0	12.3	4	4.0	4	-1E+10	1	-1E+10	1	-1E+10	1	-1E+10	1	-1E+10	1	-1E+10	1
4901784	233	C	11/20/2021	10:50	-136.527	43.455	0	784.30	0	3.9600	0	38.0010	8	30.187	0	776.575	0	12.2	4	4.0	4	-1E+10	1	-1E+10	1	-1E+10	1	-1E+10	1	-1E+10	1	-1E+10	1
4901784	233	C	11/20/2021	10:50	-136.527	43.455	0	789.40	0	3.9470	0	38.0060	8	30.193	0	781.616	0	12.0	4	3.9	4	-1E+10	1	-1E+10	1	-1E+10	1	-1E+10	1	-1E+10	1	-1E+10	1
4901784	233	C	11/20/2021	10:50	-136.527	43.455	0	794.50	0	3.9240	0	38.0100	8	30.198	0	786.656	0	11.9	4	3.9	4	-1E+10	1	-1E+10	1	-1E+10	1	-1E+10	1	-1E+10	1	-1E+10	1
4901784	233	C	11/20/2021	10:50	-136.527	43.455	0	799.60	0	3.9070	0	38.0160	8	30.205	0	791.696	0	11.6	4	3.8	4	-1E+10	1	-1E+10	1	-1E+10	1	-1E+10	1	-1E+10	1	-1E+10	1
4901784	233	C	11/20/2021	10:50	-136.527	43.455	0	804.80	0	3.8880	0	38.0220	8	30.212	0	796.834	0	11.4	4	3.7	4	-1E+10	1	-1E+10	1	-1E+10	1	-1E+10	1	-1E+10	1	-1E+10	1
4901784	233	C	11/20/2021	10:50	-136.527	43.455	0	810.10	0	3.8830	0	38.0280	8	30.217	0	802.072	0	11.2	4	3.6	4	-1E+10	1	-1E+10	1	-1E+10	1	-1E+10	1	-1E+10	1	-1E+10	1
4901784	233	C	11/20/2021	10:50	-136.527	43.455	0	815.40	0	3.8940	0	38.0350	8	30.222	0	807.309	0	11.0	4	3.6	4	-1E+10	1	-1E+10	1	-1E+10	1	-1E+10	1	-1E+10	1	-1E+10	1
4901784	233	C	11/20/2021	10:50	-136.527	43.455	0	820.70	0	3.8890	0	38.0370	8	30.224	0	812.546	0	10.9	4	3.5	4	-1E+10	1	-1E+10	1	-1E+10	1	-1E+10	1	-1E+10	1	-1E+10	1
4901784	233	C	11/20/2021	10:50	-136.527	43.455	0	825.10	0	3.8810	0	38.0410	8	30.228	0	816.894	0	10.7	4	3.5	4	-1E+10	1	-1E+10	1	-1E+10	1	-1E+10	1	-1E+10	1	-1E+10	1
4901784	233	C	11/20/2021	10:50	-136.527	43.455	0	829.50	0	3.8730	0	38.0450	8	30.232	0	821.241	0	10.6	4	3.4	4	-1E+10	1	-1E+10	1	-1E+10	1	-1E+10	1	-1E+10	1	-1E+10	1
4901784	233	C	11/20/2021	10:50	-136.527	43.455	0	834.80	0	3.8510	0	38.0510	8	30.240	0	826.478	0	10.5	4	3.4	4	-1E+10	1	-1E+10	1	-1E+10	1	-1E+10	1	-1E+10	1	-1E+10	1
4901784	233	C	11/20/2021	10:50	-136.527	43.455	0	840.20	0	3.8360	0	38.0550	8	30.244	0	831.814	0	10.5	4	3.4	4	-1E+10	1	-1E+10	1	-1E+10	1	-1E+10	1	-1E+10	1	-1E+10	1
4901784	233	C	11/20/2021	10:50	-136.527	43.455	0	845.60	0	3.8150	0	38.0590	8	30.250	0	837.149	0	10.4	4	3.4	4	-1E+10	1	-1E+10	1	-1E+10	1	-1E+10	1	-1E+10	1	-1E+10	1
4901784	233	C	11/20/2021	10:50	-136.527	43.455	0	850.20	0	3.8030	0	38.0630	8	30.255	0	841.694	0	10.4	4	3.4	4	-1E+10	1	-1E+10	1	-1E+10	1	-1E+10	1	-1E+10	1	-1E+10	1
4901784	233	C	11/20/2021	10:50	-136.527	43.455	0	854.90	0	3.7890	0	38.0670	8	30.259	0	846.337	0	10.3	4	3.3	4	-1E+10	1	-1E+10	1	-1E+10	1	-1E+10	1	-1E+10	1	-1E+10	1
4901784	233	C	11/20/2021	10:50	-136.527	43.455	0	860.50	0	3.7800	0	38.0720	8	30.264	0	851.870	0	10.2	4	3.3	4	-1E+10	1	-1E+10	1	-1E+10	1	-1E+10	1	-1E+10	1	-1E+10	1
4901784	233	C	11/20/2021	10:50	-136.527	43.455	0	865.40	0	3.7750	0	38.0750	8	30.267	0	856.711	0	10.2	4	3.3	4	-1E+10	1	-1E+10	1	-1E+10	1	-1E+10	1	-1E+10	1	-1E+10	1
4901784	233	C	11/20/2021	10:50	-136.527	43.455	0	869.80	0	3.7610	0	38.0800	8	30.273	0	861.057	0	10.1	4	3.3	4	-1E+10	1	-1E+10	1	-1E+10	1	-1E+10	1	-1E+10	1	-1E+10	1
4901784	233	C	11/20/2021	10:50	-136.527	43.455	0	874.70	0	3.7470	0	38.0830	8	30.277	0	865.898	0	10.1	4	3.3	4	-1E+10	1	-1E+10	1	-1E+10	1	-1E+10	1	-1E+10	1	-1E+10	1
4901784	233	C	11/20/2021	10:50	-136.527	43.455	0	879.70	0	3.7360	0	38.0870	8	30.281	0	870.837	0	10.0	4	3.2	4	-1E+10	1	-1E+10	1	-1E+10	1	-1E+10	1	-1E+10	1	-1E+10	1
4901784	233	C	11/20/2021	10:50	-136.527	43.455	0	884.60	0	3.7300	0	38.0920	8	30.286	0	875.678	0	10.0	4	3.2	4	-1E+10	1	-1E+10	1	-1E+10	1	-1E+10	1	-1E+10	1	-1E+10	1
4901784	233	C	11/20/2021	10:50	-136.527	43.455	0	889.70	0	3.7280	0	38.0950	8	30.289	0	880.715	0	9.9	4	3.2	4	-1E+10	1	-1E+10	1	-1E+10	1	-1E+10	1	-1E+10	1	-1E+10	1
4901784	233	C	11/20/2021	10:50	-136.527	43.455	0	894.70	0	3.7240	0	38.0970	8	30.291	0	885.654	0	9.9	4	3.2	4	-1E+10	1	-1E+10	1	-1E+10	1	-1E+10	1	-1E+10	1	-1E+10	1
4901784	233	C	11/20/2021	10:50	-136.527	43.455	0	899.80	0	3.7170	0	38.1000	8	30.294	0	890.692	0	9.9	4	3.2	4	-1E+10	1	-1E+10	1	-1E+10	1	-1E+10	1	-1E+10	1	-1E+10	1
4901784	233	C	11/20/2021	10:50	-136.527	43.455	0	904.90	0	3.7080	0	38.1040	8	30.298	0	895.729	0	9.9	4	3.2	4	-1E+10	1	-1E+10	1	-1E+10	1	-1E+10	1	-1E+10	1	-1E+10	1
4901784	233	C	11/20/2021	10:50	-136.527	43.455	0	910.10	0	3.6880	0	38.1060	8	30.302	0	900.865	0	9.9	4	3.2	4	-1E+10	1	-1E+10	1	-1E+10	1	-1E+10	1	-1E+10	1	-1E+10	1
4901784	233	C	11/20/2021	10:50	-136.527	43.455	0	915.20	0	3.6740	0	38.1100	8	30.307	0	905.903	0	9.9	4	3.2	4	-1E+10	1	-1E+10	1	-1E+10	1	-1E+10	1	-1E+10	1	-1E+10	1
4901784	233	C	11/20/2021	10:50	-136.527	43.455	0	920.40	0	3.6780	0	38.1170	8	30.312	0	911.039	0	9.8	4	3.2	4	-1E+10	1	-1E+10	1	-1E+10	1	-1E+10	1	-1E+10	1	-1E+10	1
4901784	233	C	11/20/2021	10:50	-136.527	43.455	0	925.60	0	3.6760	0	38.1200	8	30.315	0	916.174	0	9.8	4	3.2	4	-1E+10	1	-1E+10	1	-1E+10	1	-1E+10	1	-1E+10	1	-1E+10	1
4901784	233	C	11/20/2021	10:50	-136.527	43.455	0	929.90	0	3.6550	0	38.1220	8	30.318	0	920.421	0	9.8	4	3.2	4	-1E+10	1	-1E+10	1	-1E+10	1	-1E+10	1	-1E+10	1	-1E+10	1
4901784	233	C	11/20/2021	10:50	-136.527	43.455	0	934.40	0	3.6480	0	38.1230	8	30.320	0	924.865	0	9.8	4	3.2	4	-1E+10	1	-1E+10	1	-1E+10	1	-1E+10	1	-1E+10	1	-1E+10	1
4901784	233	C	11/20/2021	10:50	-136.527	43.455	0	939.80	0	3.6400	0	38.1260	8	30.323	0	930.198	0	9.8	4	3.2	4	-1E+10	1	-1E+10	1	-1E+10	1	-1E+10	1	-1E+10	1	-1E+10	1
4901784	233	C	11/20/2021	10:50	-136.527	43.455	0	945.10	0	3.6330	0	38.1290	8	30.327	0	935.432	0	9.8	4	3.2	4	-1E+10	1	-1E+10	1	-1E+10	1	-1E+10	1	-1E+10	1	-1E+10	1
4901784	233	C	11/20/2021	10:50	-136.527	43.455	0	950.50	0	3.6200	0	38.1340	8	30.332	0	940.765	0	9.8	4	3.2	4	-1E+10	1	-1E+10	1	-1E+10	1	-1E+10	1	-1E+10	1	-1E+10	1
4901784	233	C	11/20/2021	10:50	-136.527	43.455	0	954.90	0	3.6090	0	38.1380	8	30.336	0	945.110	0	9.9	4	3.2	4	-1E+10	1	-1E+10	1	-1E+10	1	-1E+10	1	-1E+10	1	-1E+10	1
4901784	233	C	11/20/2021	10:50	-136.527	43.455	0	959.40	0	3.6070	0	38.1390	8	30.337	0	949.553	0	9.9	4	3.2	4	-1E+10	1	-1E+10	1	-1E+10	1	-1E+10	1	-1E+10	1	-1E+10	1
4901784	233	C	11/20/2021	10:50	-136.527	43.455	0	964.70	0	3.5940	0	38.1410	8	30.340	0	954.787	0	9.9	4	3.2	4	-1E+10	1	-1E+10	1	-1E+10	1	-1E+10	1	-1E+10	1	-1E+10	1
4901784	233	C	11/20/2021	10:50	-136.527	43.455	0	970.20	0	3.5720	0	38.1450	8	30.346	0	960.218	0	10.0	4	3.2	4	-1E+10	1	-1E+10	1	-1E+10	1	-1E+10	1	-1E+10	1	-1E+10	1
4901784	233	C	11/20/2021	10:50	-136.527	43.455	0	974.80	0	3.5540	0	38.1480	8	30.350	0	964.760	0	10.0	4	3.2	4	-1E+10	1	-1E+10	1	-1E+10	1	-1E+10	1	-1E+10	1	-1E+10	1
4901784	233	C	11/20/2021	10:50	-136.527	43.455	0	979.40	0	3.5430	0	38.1510	8	30.354	0	969.302	0	10.0	4	3.2	4	-1E+10	1	-1E+10	1	-1E+10	1	-1E+10	1	-1E+10	1	-1E+10	1
4901784	233	C	11/20/2021	10:50	-136.527	43.455	0	985.00	0	3.5340	0	38.1530	8	30.357	0	974.831	0	10.0	4	3.2	4	-1E+10	1	-1E+10	1	-1E+10	1	-1E+10	1	-1E+10	1	-1E+10	1
4901784	233	C	11/20/2021	10:50	-136.527	43.455	0	990.50	0	3.5180	0	38.1570	8	30.362	0	980.262	0	10.1	4	3.2	4	-1E+10	1	-1E+10	1	-1E+10	1	-1E+10	1	-1E+10	1	-1E+10	1
4901784	233	C	11/20/2021	10:50	-136.527	43.455	0	995.10	0	3.5070	0	38.1620	8	30.367	0	984.803	0	10.1	4	3.2	4	-1E+10	1	-1E+10	1	-1E+10	1	-1E+10	1	-1E+10	1	-1E+10	1
4901784	233	C	11/20/2021	10:50	-136.527	43.455	0	999.60	0	3.5020	0	38.1650	8	30.370	0	989.246	0	10.1	4	3.3	4	-1E+10	1	-1E+10	1	-1E+10	1	-1E+10	1	-1E+10	1	-1E+10	1
4901784	233	C	11/20/2021	10:50	-136.527	43.455	0	1005.10	0	3.4980	0	38.1660	8	30.371	0	994.676	0	10.2	4	3.3	4	-1E+10	1	-1E+10	1	-1E+10	1	-1E+10	1	-1E+10	1	-1E+10	1
4901784	233	C	11/20/2021	10:50	-136.527	43.455	0	1009.80	0	3.4830	0	38.1690	8	30.375	0	999.316	0	10.2	4	3.3	4	-1E+10	1	-1E+10	1	-1E+10	1	-1E+10	1	-1E+10	1	-1E+10	1
4901784	233	C	11/20/2021	10:50	-136.527	43.455	0	1014.20	0	3.4790	0	38.1700	8	30.376	0	1003.660	0	10.2	4	3.3	4	-1E+10	1	-1E+10	1	-1E+10	1	-1E+10	1	-1E+10	1	-1E+10	1
4901784	233	C	11/20/2021	10:50	-136.527	43.455	0	1019.50	0	3.4610	0	38.1740	8	30.381	0	1008.892	0	10.3	4	3.3	4	-1E+10	1	-1E+10	1	-1E+10	1	-1E+10	1	-1E+10	1	-1E+10	1
4901784	233	C	11/20/2021	10:50	-136.527	43.455	0	1025.00	0	3.4400	0	38.1790	8	30.388	0	1014.321	0	10.4	4	3.3	4	-1E+10	1	-1E+10	1	-1E+10	1	-1E+10	1	-1E+10	1	-1E+10	1
4901784	233	C	11/20/2021	10:50	-136.527	43.455	0	1030.80	0	3.4200	0	38.1850	8	30.395	0	1020.047	0	10.5	4	3.4	4	-1E+10	1	-1E+10	1	-1E+10	1	-1E+10	1	-1E+10	1	-1E+10	1
4901784	233	C	11/20/2021	10:50	-136.527	43.455	0	1035.70	0	3.4050	0	38.1890	8	30.399	0	1024.884	0	10.6	4	3.4	4	-1E+10	1	-1E+10	1	-1E+10	1	-1E+10	1	-1E+10	1	-1E+10	1
4901784	233	C	11/20/2021	10:50	-136.527	43.455	0	1040.60	0	3.3980	0	38.1920	8	30.403	0	1029.721	0	10.7	4	3.4	4	-1E+10	1	-1E+10	1	-1E+10	1	-1E+10	1	-1E+10	1	-1E+10	1
4901784	233	C	11/20/2021	10:50	-136.527	43.455	0	1045.50	0	3.3930	0	38.1940	8	30.405	0	1034.557	0	10.7	4	3.4	4	-1E+10	1	-1E+10	1	-1E+10	1	-1E+10	1	-1E+10	1	-1E+10	1
4901784	233	C	11/20/2021	10:50	-136.527	43.455	0	1050.50	0	3.3840	0	38.1960	8	30.407	0	1039.493	0	10.8	4	3.5	4	-1E+10	1	-1E+10	1	-1E+10	1	-1E+10	1	-1E+10	1	-1E+10	1
4901784	233	C	11/20/2021	10:50	-136.527	43.455	0	1055.50	0	3.3680	0	38.1980	8	30.411	0	1044.428	0	10.9	4	3.5	4	-1E+10	1	-1E+10	1	-1E+10	1	-1E+10	1	-1E+10	1	-1E+10	1
4901784	233	C	11/20/2021	10:50	-136.527	43.455	0	1060.50	0	3.3550	0	38.2010	8	30.414	0	1049.363	0	10.9	4	3.5	4	-1E+10	1	-1E+10	1	-1E+10	1	-1E+10	1	-1E+10	1	-1E+10	1
4901784	233	C	11/20/2021	10:50	-136.527	43.455	0	1065.60	0	3.3450	0	38.2040	8	30.418	0	1054.396	0	11.0	4	3.5	4	-1E+10	1	-1E+10	1	-1E+10	1	-1E+10	1	-1E+10	1	-1E+10	1
4901784	233	C	11/20/2021	10:50	-136.527	43.455	0	1070.70	0	3.3290	0	38.2070	8	30.422	0	1059.430	0	11.1	4	3.6	4	-1E+10	1	-1E+10	1	-1E+10	1	-1E+10	1	-1E+10	1	-1E+10	1
4901784	233	C	11/20/2021	10:50	-136.527	43.455	0	1075.10	0	3.3240	0	38.2110	8	30.426	0	1063.773	0	11.2	4	3.6	4	-1E+10	1	-1E+10	1	-1E+10	1	-1E+10	1	-1E+10	1	-1E+10	1
4901784	233	C	11/20/2021	10:50	-136.527	43.455	0	1079.40	0	3.3180	0	38.2120	8	30.427	0	1068.016	0	11.2	4	3.6	4	-1E+10	1	-1E+10	1	-1E+10	1	-1E+10	1	-1E+10	1	-1E+10	1
4901784	233	C	11/20/2021	10:50	-136.527	43.455	0	1084.60	0	3.3100	0	38.2140	8	30.430	0	1073.148	0	11.3	4	3.6	4	-1E+10	1	-1E+10	1	-1E+10	1	-1E+10	1	-1E+10	1	-1E+10	1
4901784	233	C	11/20/2021	10:50	-136.527	43.455	0	1089.80	0	3.2980	0	38.2170	8	30.433	0	1078.280	0	11.4	4	3.7	4	-1E+10	1	-1E+10	1	-1E+10	1	-1E+10	1	-1E+10	1	-1E+10	1
4901784	233	C	11/20/2021	10:50	-136.527	43.455	0	1095.00	0	3.2920	0	38.2200	8	30.436	0	1083.412	0	11.5	4	3.7	4	-1E+10	1	-1E+10	1	-1E+10	1	-1E+10	1	-1E+10	1	-1E+10	1
4901784	233	C	11/20/2021	10:50	-136.527	43.455	0	1100.30	0	3.2870	0	38.2210	8	30.438	0	1088.642	0	11.6	4	3.7	4	-1E+10	1	-1E+10	1	-1E+10	1	-1E+10	1	-1E+10	1	-1E+10	1
4901784	233	C	11/20/2021	10:50	-136.527	43.455	0	1105.30	0	3.2790	0	38.2230	8	30.440	0	1093.576	0	11.7	4	3.7	4	-1E+10	1	-1E+10	1	-1E+10	1	-1E+10	1	-1E+10	1	-1E+10	1
4901784	233	C	11/20/2021	10:50	-136.527	43.455	0	1110.50	0	3.2690	0	38.2260	8	30.444	0	1098.707	0	11.8	4	3.8	4	-1E+10	1	-1E+10	1	-1E+10	1	-1E+10	1	-1E+10	1	-1E+10	1
4901784	233	C	11/20/2021	10:50	-136.527	43.455	0	1115.30	0	3.2580	0	38.2290	8	30.447	0	1103.443	0	11.9	4	3.8	4	-1E+10	1	-1E+10	1	-1E+10	1	-1E+10	1	-1E+10	1	-1E+10	1
4901784	233	C	11/20/2021	10:50	-136.527	43.455	0	1120.10	0	3.2460	0	38.2310	8	30.450	0	1108.180	0	12.0	4	3.8	4	-1E+10	1	-1E+10	1	-1E+10	1	-1E+10	1	-1E+10	1	-1E+10	1
4901784	233	C	11/20/2021	10:50	-136.527	43.455	0	1124.90	0	3.2390	0	38.2340	8	30.453	0	1112.916	0	12.1	4	3.9	4	-1E+10	1	-1E+10	1	-1E+10	1	-1E+10	1	-1E+10	1	-1E+10	1
4901784	233	C	11/20/2021	10:50	-136.527	43.455	0	1129.80	0	3.2320	0	38.2350	8	30.455	0	1117.751	0	12.2	4	3.9	4	-1E+10	1	-1E+10	1	-1E+10	1	-1E+10	1	-1E+10	1	-1E+10	1
4901784	233	C	11/20/2021	10:50	-136.527	43.455	0	1134.80	0	3.2210	0	38.2380	8	30.459	0	1122.684	0	12.3	4	3.9	4	-1E+10	1	-1E+10	1	-1E+10	1	-1E+10	1	-1E+10	1	-1E+10	1
4901784	233	C	11/20/2021	10:50	-136.527	43.455	0	1139.90	0	3.2130	0	38.2400	8	30.461	0	1127.716	0	12.3	4	3.9	4	-1E+10	1	-1E+10	1	-1E+10	1	-1E+10	1	-1E+10	1	-1E+10	1
4901784	233	C	11/20/2021	10:50	-136.527	43.455	0	1144.90	0	3.2070	0	38.2420	8	30.463	0	1132.649	0	12.5	4	4.0	4	-1E+10	1	-1E+10	1	-1E+10	1	-1E+10	1	-1E+10	1	-1E+10	1
4901784	233	C	11/20/2021	10:50	-136.527	43.455	0	1149.90	0	3.1920	0	38.2450	8	30.467	0	1137.582	0	12.6	4	4.0	4	-1E+10	1	-1E+10	1	-1E+10	1	-1E+10	1	-1E+10	1	-1E+10	1
4901784	233	C	11/20/2021	10:50	-136.527	43.455	0	1155.00	0	3.1840	0	38.2480	8	30.471	0	1142.613	0	12.7	4	4.1	4	-1E+10	1	-1E+10	1	-1E+10	1	-1E+10	1	-1E+10	1	-1E+10	1
4901784	233	C	11/20/2021	10:50	-136.527	43.455	0	1160.10	0	3.1760	0	38.2490	8	30.472	0	1147.645	0	12.9	4	4.1	4	-1E+10	1	-1E+10	1	-1E+10	1	-1E+10	1	-1E+10	1	-1E+10	1
4901784	233	C	11/20/2021	10:50	-136.527	43.455	0	1165.20	0	3.1570	0	38.2530	8	30.477	0	1152.676	0	13.1	4	4.2	4	-1E+10	1	-1E+10	1	-1E+10	1	-1E+10	1	-1E+10	1	-1E+10	1
4901784	233	C	11/20/2021	10:50	-136.527	43.455	0	1170.30	0	3.1450	0	38.2560	8	30.481	0	1157.707	0	13.2	4	4.2	4	-1E+10	1	-1E+10	1	-1E+10	1	-1E+10	1	-1E+10	1	-1E+10	1
4901784	233	C	11/20/2021	10:50	-136.527	43.455	0	1175.50	0	3.1340	0	38.2590	8	30.485	0	1162.837	0	13.3	4	4.3	4	-1E+10	1	-1E+10	1	-1E+10	1	-1E+10	1	-1E+10	1	-1E+10	1
4901784	233	C	11/20/2021	10:50	-136.527	43.455	0	1179.90	0	3.1270	0	38.2600	8	30.486	0	1167.177	0	13.4	4	4.3	4	-1E+10	1	-1E+10	1	-1E+10	1	-1E+10	1	-1E+10	1	-1E+10	1
4901784	233	C	11/20/2021	10:50	-136.527	43.455	0	1184.30	0	3.1200	0	38.2620	8	30.488	0	1171.518	0	13.5	4	4.3	4	-1E+10	1	-1E+10	1	-1E+10	1	-1E+10	1	-1E+10	1	-1E+10	1
4901784	233	C	11/20/2021	10:50	-136.527	43.455	0	1189.50	0	3.1120	0	38.2650	8	30.492	0	1176.647	0	13.6	4	4.3	4	-1E+10	1	-1E+10	1	-1E+10	1	-1E+10	1	-1E+10	1	-1E+10	1
4901784	233	C	11/20/2021	10:50	-136.527	43.455	0	1194.90	0	3.1050	0	38.2660	8	30.493	0	1181.973	0	13.8	4	4.4	4	-1E+10	1	-1E+10	1	-1E+10	1	-1E+10	1	-1E+10	1	-1E+10	1
4901784	233	C	11/20/2021	10:50	-136.527	43.455	0	1200.30	0	3.0980	0	38.2680	8	30.496	0	1187.300	0	13.9	4	4.4	4	-1E+10	1	-1E+10	1	-1E+10	1	-1E+10	1	-1E+10	1	-1E+10	1
4901784	233	C	11/20/2021	10:50	-136.527	43.455	0	1204.80	0	3.0910	0	38.2700	8	30.498	0	1191.738	0	14.0	4	4.4	4	-1E+10	1	-1E+10	1	-1E+10	1	-1E+10	1	-1E+10	1	-1E+10	1
4901784	233	C	11/20/2021	10:50	-136.527	43.455	0	1209.30	0	3.0810	0	38.2720	8	30.501	0	1196.177	0	14.1	4	4.5	4	-1E+10	1	-1E+10	1	-1E+10	1	-1E+10	1	-1E+10	1	-1E+10	1
4901784	233	C	11/20/2021	10:50	-136.527	43.455	0	1214.80	0	3.0730	0	38.2740	8	30.503	0	1201.601	0	14.2	4	4.5	4	-1E+10	1	-1E+10	1	-1E+10	1	-1E+10	1	-1E+10	1	-1E+10	1
4901784	233	C	11/20/2021	10:50	-136.527	43.455	0	1220.30	0	3.0690	0	38.2760	8	30.505	0	1207.026	0	14.3	4	4.5	4	-1E+10	1	-1E+10	1	-1E+10	1	-1E+10	1	-1E+10	1	-1E+10	1
4901784	233	C	11/20/2021	10:50	-136.527	43.455	0	1225.70	0	3.0630	0	38.2770	8	30.507	0	1212.351	0	14.3	4	4.6	4	-1E+10	1	-1E+10	1	-1E+10	1	-1E+10	1	-1E+10	1	-1E+10	1
4901784	233	C	11/20/2021	10:50	-136.527	43.455	0	1230.10	0	3.0580	0	38.2780	8	30.508	0	1216.691	0	14.5	4	4.6	4	-1E+10	1	-1E+10	1	-1E+10	1	-1E+10	1	-1E+10	1	-1E+10	1
4901784	233	C	11/20/2021	10:50	-136.527	43.455	0	1234.60	0	3.0490	0	38.2800	8	30.510	0	1221.129	0	14.5	4	4.6	4	-1E+10	1	-1E+10	1	-1E+10	1	-1E+10	1	-1E+10	1	-1E+10	1
4901784	233	C	11/20/2021	10:50	-136.527	43.455	0	1239.70	0	3.0460	0	38.2810	8	30.512	0	1226.158	0	14.6	4	4.6	4	-1E+10	1	-1E+10	1	-1E+10	1	-1E+10	1	-1E+10	1	-1E+10	1
4901784	233	C	11/20/2021	10:50	-136.527	43.455	0	1244.80	0	3.0420	0	38.2830	8	30.514	0	1231.188	0	14.6	4	4.7	4	-1E+10	1	-1E+10	1	-1E+10	1	-1E+10	1	-1E+10	1	-1E+10	1
4901784	233	C	11/20/2021	10:50	-136.527	43.455	0	1249.90	0	3.0380	0	38.2840	8	30.515	0	1236.217	0	14.7	4	4.7	4	-1E+10	1	-1E+10	1	-1E+10	1	-1E+10	1	-1E+10	1	-1E+10	1
4901784	233	C	11/20/2021	10:50	-136.527	43.455	0	1254.90	0	3.0340	0	38.2850	8	30.516	0	1241.147	0	14.8	4	4.7	4	-1E+10	1	-1E+10	1	-1E+10	1	-1E+10	1	-1E+10	1	-1E+10	1
4901784	233	C	11/20/2021	10:50	-136.527	43.455	0	1260.00	0	3.0270	0	38.2860	8	30.518	0	1246.176	0	14.9	4	4.8	4	-1E+10	1	-1E+10	1	-1E+10	1	-1E+10	1	-1E+10	1	-1E+10	1
4901784	233	C	11/20/2021	10:50	-136.527	43.455	0	1265.20	0	3.0120	0	38.2890	8	30.522	0	1251.304	0	15.1	4	4.8	4	-1E+10	1	-1E+10	1	-1E+10	1	-1E+10	1	-1E+10	1	-1E+10	1
4901784	233	C	11/20/2021	10:50	-136.527	43.455	0	1270.50	0	3.0010	0	38.2910	8	30.524	0	1256.530	0	15.3	4	4.9	4	-1E+10	1	-1E+10	1	-1E+10	1	-1E+10	1	-1E+10	1	-1E+10	1
4901784	233	C	11/20/2021	10:50	-136.527	43.455	0	1274.90	0	2.9920	0	38.2930	8	30.527	0	1260.868	0	15.4	4	4.9	4	-1E+10	1	-1E+10	1	-1E+10	1	-1E+10	1	-1E+10	1	-1E+10	1
4901784	233	C	11/20/2021	10:50	-136.527	43.455	0	1279.30	0	2.9850	0	38.2940	8	30.528	0	1265.207	0	15.5	4	4.9	4	-1E+10	1	-1E+10	1	-1E+10	1	-1E+10	1	-1E+10	1	-1E+10	1
4901784	233	C	11/20/2021	10:50	-136.527	43.455	0	1284.60	0	2.9770	0	38.2960	8	30.531	0	1270.432	0	15.7	4	5.0	4	-1E+10	1	-1E+10	1	-1E+10	1	-1E+10	1	-1E+10	1	-1E+10	1
4901784	233	C	11/20/2021	10:50	-136.527	43.455	0	1289.80	0	2.9630	0	38.2980	8	30.534	0	1275.559	0	15.9	4	5.0	4	-1E+10	1	-1E+10	1	-1E+10	1	-1E+10	1	-1E+10	1	-1E+10	1
4901784	233	C	11/20/2021	10:50	-136.527	43.455	0	1295.10	0	2.9510	0	38.3010	8	30.538	0	1280.785	0	16.0	4	5.1	4	-1E+10	1	-1E+10	1	-1E+10	1	-1E+10	1	-1E+10	1	-1E+10	1
4901784	233	C	11/20/2021	10:50	-136.527	43.455	0	1300.40	0	2.9410	0	38.3030	8	30.540	0	1286.010	0	16.1	4	5.1	4	-1E+10	1	-1E+10	1	-1E+10	1	-1E+10	1	-1E+10	1	-1E+10	1
4901784	233	C	11/20/2021	10:50	-136.527	43.455	0	1305.70	0	2.9340	0	38.3050	8	30.543	0	1291.235	0	16.3	4	5.2	4	-1E+10	1	-1E+10	1	-1E+10	1	-1E+10	1	-1E+10	1	-1E+10	1
4901784	233	C	11/20/2021	10:50	-136.527	43.455	0	1310.10	0	2.9270	0	38.3060	8	30.544	0	1295.573	0	16.4	4	5.2	4	-1E+10	1	-1E+10	1	-1E+10	1	-1E+10	1	-1E+10	1	-1E+10	1
4901784	233	C	11/20/2021	10:50	-136.527	43.455	0	1314.60	0	2.9220	0	38.3070	8	30.545	0	1300.009	0	16.5	4	5.2	4	-1E+10	1	-1E+10	1	-1E+10	1	-1E+10	1	-1E+10	1	-1E+10	1
4901784	233	C	11/20/2021	10:50	-136.527	43.455	0	1319.90	0	2.9130	0	38.3100	8	30.549	0	1305.234	0	16.6	4	5.3	4	-1E+10	1	-1E+10	1	-1E+10	1	-1E+10	1	-1E+10	1	-1E+10	1
4901784	233	C	11/20/2021	10:50	-136.527	43.455	0	1325.30	0	2.9080	0	38.3110	8	30.550	0	1310.557	0	16.7	4	5.3	4	-1E+10	1	-1E+10	1	-1E+10	1	-1E+10	1	-1E+10	1	-1E+10	1
4901784	233	C	11/20/2021	10:50	-136.527	43.455	0	1329.90	0	2.9050	0	38.3110	8	30.550	0	1315.091	0	16.9	4	5.4	4	-1E+10	1	-1E+10	1	-1E+10	1	-1E+10	1	-1E+10	1	-1E+10	1
4901784	233	C	11/20/2021	10:50	-136.527	43.455	0	1334.40	0	2.8950	0	38.3130	8	30.553	0	1319.527	0	17.1	4	5.4	4	-1E+10	1	-1E+10	1	-1E+10	1	-1E+10	1	-1E+10	1	-1E+10	1
4901784	233	C	11/20/2021	10:50	-136.527	43.455	0	1339.80	0	2.8810	0	38.3160	8	30.557	0	1324.850	0	17.4	4	5.5	4	-1E+10	1	-1E+10	1	-1E+10	1	-1E+10	1	-1E+10	1	-1E+10	1
4901784	233	C	11/20/2021	10:50	-136.527	43.455	0	1345.30	0	2.8680	0	38.3180	8	30.560	0	1330.271	0	17.6	4	5.6	4	-1E+10	1	-1E+10	1	-1E+10	1	-1E+10	1	-1E+10	1	-1E+10	1
4901784	233	C	11/20/2021	10:50	-136.527	43.455	0	1350.00	0	2.8560	0	38.3200	8	30.563	0	1334.904	0	17.8	4	5.6	4	-1E+10	1	-1E+10	1	-1E+10	1	-1E+10	1	-1E+10	1	-1E+10	1
4901784	233	C	11/20/2021	10:50	-136.527	43.455	0	1354.60	0	2.8440	0	38.3230	8	30.566	0	1339.438	0	17.9	4	5.7	4	-1E+10	1	-1E+10	1	-1E+10	1	-1E+10	1	-1E+10	1	-1E+10	1
4901784	233	C	11/20/2021	10:50	-136.527	43.455	0	1360.10	0	2.8400	0	38.3240	8	30.568	0	1344.859	0	18.1	4	5.7	4	-1E+10	1	-1E+10	1	-1E+10	1	-1E+10	1	-1E+10	1	-1E+10	1
4901784	233	C	11/20/2021	10:50	-136.527	43.455	0	1365.60	0	2.8320	0	38.3260	8	30.570	0	1350.280	0	18.2	4	5.8	4	-1E+10	1	-1E+10	1	-1E+10	1	-1E+10	1	-1E+10	1	-1E+10	1
4901784	233	C	11/20/2021	10:50	-136.527	43.455	0	1370.20	0	2.8300	0	38.3260	8	30.570	0	1354.813	0	18.3	4	5.8	4	-1E+10	1	-1E+10	1	-1E+10	1	-1E+10	1	-1E+10	1	-1E+10	1
4901784	233	C	11/20/2021	10:50	-136.527	43.455	0	1374.80	0	2.8240	0	38.3270	8	30.572	0	1359.347	0	18.5	4	5.9	4	-1E+10	1	-1E+10	1	-1E+10	1	-1E+10	1	-1E+10	1	-1E+10	1
4901784	233	C	11/20/2021	10:50	-136.527	43.455	0	1380.40	0	2.8110	0	38.3300	8	30.575	0	1364.866	0	18.7	4	5.9	4	-1E+10	1	-1E+10	1	-1E+10	1	-1E+10	1	-1E+10	1	-1E+10	1
4901784	233	C	11/20/2021	10:50	-136.527	43.455	0	1385.10	0	2.8030	0	38.3320	8	30.578	0	1369.497	0	18.9	4	6.0	4	-1E+10	1	-1E+10	1	-1E+10	1	-1E+10	1	-1E+10	1	-1E+10	1
4901784	233	C	11/20/2021	10:50	-136.527	43.455	0	1389.80	0	2.7980	0	38.3320	8	30.578	0	1374.129	0	19.1	4	6.0	4	-1E+10	1	-1E+10	1	-1E+10	1	-1E+10	1	-1E+10	1	-1E+10	1
4901784	233	C	11/20/2021	10:50	-136.527	43.455	0	1395.50	0	2.7860	0	38.3350	8	30.582	0	1379.746	0	19.3	4	6.1	4	-1E+10	1	-1E+10	1	-1E+10	1	-1E+10	1	-1E+10	1	-1E+10	1
4901784	233	C	11/20/2021	10:50	-136.527	43.455	0	1400.30	0	2.7790	0	38.3370	8	30.584	0	1384.476	0	19.5	4	6.2	4	-1E+10	1	-1E+10	1	-1E+10	1	-1E+10	1	-1E+10	1	-1E+10	1
4901784	233	C	11/20/2021	10:50	-136.527	43.455	0	1404.90	0	2.7710	0	38.3380	8	30.586	0	1389.009	0	19.7	4	6.2	4	-1E+10	1	-1E+10	1	-1E+10	1	-1E+10	1	-1E+10	1	-1E+10	1
4901784	233	C	11/20/2021	10:50	-136.527	43.455	0	1409.90	0	2.7650	0	38.3400	8	30.588	0	1393.936	0	19.9	4	6.3	4	-1E+10	1	-1E+10	1	-1E+10	1	-1E+10	1	-1E+10	1	-1E+10	1
4901784	233	C	11/20/2021	10:50	-136.527	43.455	0	1414.80	0	2.7560	0	38.3410	8	30.590	0	1398.765	0	20.3	4	6.4	4	-1E+10	1	-1E+10	1	-1E+10	1	-1E+10	1	-1E+10	1	-1E+10	1
4901784	233	C	11/20/2021	10:50	-136.527	43.455	0	1419.80	0	2.7420	0	38.3440	8	30.594	0	1403.691	0	20.6	4	6.5	4	-1E+10	1	-1E+10	1	-1E+10	1	-1E+10	1	-1E+10	1	-1E+10	1
4901784	233	C	11/20/2021	10:50	-136.527	43.455	0	1424.90	0	2.7330	0	38.3460	8	30.596	0	1408.716	0	20.9	4	6.6	4	-1E+10	1	-1E+10	1	-1E+10	1	-1E+10	1	-1E+10	1	-1E+10	1
4901784	233	C	11/20/2021	10:50	-136.527	43.455	0	1430.00	0	2.7170	0	38.3480	8	30.599	0	1413.741	0	21.2	4	6.7	4	-1E+10	1	-1E+10	1	-1E+10	1	-1E+10	1	-1E+10	1	-1E+10	1
4901784	233	C	11/20/2021	10:50	-136.527	43.455	0	1435.00	0	2.7070	0	38.3500	8	30.602	0	1418.668	0	21.4	4	6.8	4	-1E+10	1	-1E+10	1	-1E+10	1	-1E+10	1	-1E+10	1	-1E+10	1
4901784	233	C	11/20/2021	10:50	-136.527	43.455	0	1440.20	0	2.6970	0	38.3530	8	30.605	0	1423.791	0	21.7	4	6.8	4	-1E+10	1	-1E+10	1	-1E+10	1	-1E+10	1	-1E+10	1	-1E+10	1
4901784	233	C	11/20/2021	10:50	-136.527	43.455	0	1445.30	0	2.6900	0	38.3540	8	30.607	0	1428.816	0	21.9	4	6.9	4	-1E+10	1	-1E+10	1	-1E+10	1	-1E+10	1	-1E+10	1	-1E+10	1
4901784	233	C	11/20/2021	10:50	-136.527	43.455	0	1450.50	0	2.6830	0	38.3550	8	30.608	0	1433.939	0	22.1	4	7.0	4	-1E+10	1	-1E+10	1	-1E+10	1	-1E+10	1	-1E+10	1	-1E+10	1
4901784	233	C	11/20/2021	10:50	-136.527	43.455	0	1455.60	0	2.6730	0	38.3570	8	30.611	0	1438.963	0	22.4	4	7.1	4	-1E+10	1	-1E+10	1	-1E+10	1	-1E+10	1	-1E+10	1	-1E+10	1
4901784	233	C	11/20/2021	10:50	-136.527	43.455	0	1460.00	0	2.6670	0	38.3590	8	30.613	0	1443.298	0	22.6	4	7.1	4	-1E+10	1	-1E+10	1	-1E+10	1	-1E+10	1	-1E+10	1	-1E+10	1
4901784	233	C	11/20/2021	10:50	-136.527	43.455	0	1464.40	0	2.6620	0	38.3590	8	30.614	0	1447.632	0	22.8	4	7.2	4	-1E+10	1	-1E+10	1	-1E+10	1	-1E+10	1	-1E+10	1	-1E+10	1
4901784	233	C	11/20/2021	10:50	-136.527	43.455	0	1469.70	0	2.6500	0	38.3610	8	30.616	0	1452.853	0	23.1	4	7.3	4	-1E+10	1	-1E+10	1	-1E+10	1	-1E+10	1	-1E+10	1	-1E+10	1
4901784	233	C	11/20/2021	10:50	-136.527	43.455	0	1475.00	0	2.6400	0	38.3640	8	30.620	0	1458.074	0	23.3	4	7.3	4	-1E+10	1	-1E+10	1	-1E+10	1	-1E+10	1	-1E+10	1	-1E+10	1
4901784	233	C	11/20/2021	10:50	-136.527	43.455	0	1480.30	0	2.6350	0	38.3640	8	30.620	0	1463.295	0	23.6	4	7.4	4	-1E+10	1	-1E+10	1	-1E+10	1	-1E+10	1	-1E+10	1	-1E+10	1
4901784	233	C	11/20/2021	10:50	-136.527	43.455	0	1484.80	0	2.6240	0	38.3660	8	30.623	0	1467.728	0	23.8	4	7.5	4	-1E+10	1	-1E+10	1	-1E+10	1	-1E+10	1	-1E+10	1	-1E+10	1
4901784	233	C	11/20/2021	10:50	-136.527	43.455	0	1489.30	0	2.6160	0	38.3680	8	30.625	0	1472.161	0	24.1	4	7.6	4	-1E+10	1	-1E+10	1	-1E+10	1	-1E+10	1	-1E+10	1	-1E+10	1
4901784	233	C	11/20/2021	10:50	-136.527	43.455	0	1494.70	0	2.6060	0	38.3700	8	30.628	0	1477.480	0	24.4	4	7.7	4	-1E+10	1	-1E+10	1	-1E+10	1	-1E+10	1	-1E+10	1	-1E+10	1
4901784	233	C	11/20/2021	10:50	-136.527	43.455	0	1500.10	0	2.5970	0	38.3710	8	30.630	0	1482.798	0	24.6	4	7.8	4	-1E+10	1	-1E+10	1	-1E+10	1	-1E+10	1	-1E+10	1	-1E+10	1
4901784	233	C	11/20/2021	10:50	-136.527	43.455	0	1505.50	0	2.5900	0	38.3720	8	30.631	0	1488.117	0	24.9	4	7.8	4	-1E+10	1	-1E+10	1	-1E+10	1	-1E+10	1	-1E+10	1	-1E+10	1
4901784	233	C	11/20/2021	10:50	-136.527	43.455	0	1510.00	0	2.5800	0	38.3740	8	30.634	0	1492.549	0	25.2	4	7.9	4	-1E+10	1	-1E+10	1	-1E+10	1	-1E+10	1	-1E+10	1	-1E+10	1
4901784	233	C	11/20/2021	10:50	-136.527	43.455	0	1514.60	0	2.5680	0	38.3760	8	30.637	0	1497.080	0	25.5	4	8.0	4	-1E+10	1	-1E+10	1	-1E+10	1	-1E+10	1	-1E+10	1	-1E+10	1
4901784	233	C	11/20/2021	10:50	-136.527	43.455	0	1520.00	0	2.5610	0	38.3770	8	30.638	0	1502.398	0	25.7	4	8.1	4	-1E+10	1	-1E+10	1	-1E+10	1	-1E+10	1	-1E+10	1	-1E+10	1
4901784	233	C	11/20/2021	10:50	-136.527	43.455	0	1525.50	0	2.5510	0	38.3800	8	30.642	0	1507.815	0	26.0	4	8.2	4	-1E+10	1	-1E+10	1	-1E+10	1	-1E+10	1	-1E+10	1	-1E+10	1
4901784	233	C	11/20/2021	10:50	-136.527	43.455	0	1530.00	0	2.5440	0	38.3810	8	30.643	0	1512.247	0	26.3	4	8.3	4	-1E+10	1	-1E+10	1	-1E+10	1	-1E+10	1	-1E+10	1	-1E+10	1
4901784	233	C	11/20/2021	10:50	-136.527	43.455	0	1534.60	0	2.5370	0	38.3810	8	30.644	0	1516.777	0	26.5	4	8.3	4	-1E+10	1	-1E+10	1	-1E+10	1	-1E+10	1	-1E+10	1	-1E+10	1
4901784	233	C	11/20/2021	10:50	-136.527	43.455	0	1540.10	0	2.5230	0	38.3840	8	30.647	0	1522.193	0	26.9	4	8.4	4	-1E+10	1	-1E+10	1	-1E+10	1	-1E+10	1	-1E+10	1	-1E+10	1
4901784	233	C	11/20/2021	10:50	-136.527	43.455	0	1544.80	0	2.5150	0	38.3860	8	30.650	0	1526.822	0	27.1	4	8.5	4	-1E+10	1	-1E+10	1	-1E+10	1	-1E+10	1	-1E+10	1	-1E+10	1
4901784	233	C	11/20/2021	10:50	-136.527	43.455	0	1549.30	0	2.5080	0	38.3870	8	30.651	0	1531.253	0	27.3	4	8.6	4	-1E+10	1	-1E+10	1	-1E+10	1	-1E+10	1	-1E+10	1	-1E+10	1
4901784	233	C	11/20/2021	10:50	-136.527	43.455	0	1554.70	0	2.4990	0	38.3880	8	30.653	0	1536.570	0	27.7	4	8.7	4	-1E+10	1	-1E+10	1	-1E+10	1	-1E+10	1	-1E+10	1	-1E+10	1
4901784	233	C	11/20/2021	10:50	-136.527	43.455	0	1559.50	0	2.4890	0	38.3900	8	30.656	0	1541.297	0	28.0	4	8.8	4	-1E+10	1	-1E+10	1	-1E+10	1	-1E+10	1	-1E+10	1	-1E+10	1
4901784	233	C	11/20/2021	10:50	-136.527	43.455	0	1564.30	0	2.4800	0	38.3920	8	30.658	0	1546.023	0	28.2	4	8.9	4	-1E+10	1	-1E+10	1	-1E+10	1	-1E+10	1	-1E+10	1	-1E+10	1
4901784	233	C	11/20/2021	10:50	-136.527	43.455	0	1570.00	0	2.4750	0	38.3930	8	30.659	0	1551.636	0	28.5	4	8.9	4	-1E+10	1	-1E+10	1	-1E+10	1	-1E+10	1	-1E+10	1	-1E+10	1
4901784	233	C	11/20/2021	10:50	-136.527	43.455	0	1575.70	0	2.4660	0	38.3950	8	30.662	0	1557.248	0	28.8	4	9.0	4	-1E+10	1	-1E+10	1	-1E+10	1	-1E+10	1	-1E+10	1	-1E+10	1
4901784	233	C	11/20/2021	10:50	-136.527	43.455	0	1580.70	0	2.4600	0	38.3960	8	30.663	0	1562.171	0	29.1	4	9.1	4	-1E+10	1	-1E+10	1	-1E+10	1	-1E+10	1	-1E+10	1	-1E+10	1
4901784	233	C	11/20/2021	10:50	-136.527	43.455	0	1585.70	0	2.4480	0	38.3980	8	30.666	0	1567.094	0	29.4	4	9.2	4	-1E+10	1	-1E+10	1	-1E+10	1	-1E+10	1	-1E+10	1	-1E+10	1
4901784	233	C	11/20/2021	10:50	-136.527	43.455	0	1590.60	0	2.4390	0	38.3990	8	30.668	0	1571.918	0	29.8	4	9.3	4	-1E+10	1	-1E+10	1	-1E+10	1	-1E+10	1	-1E+10	1	-1E+10	1
4901784	233	C	11/20/2021	10:50	-136.527	43.455	0	1595.60	0	2.4320	0	38.4010	8	30.670	0	1576.841	0	30.1	4	9.4	4	-1E+10	1	-1E+10	1	-1E+10	1	-1E+10	1	-1E+10	1	-1E+10	1
4901784	233	C	11/20/2021	10:50	-136.527	43.455	0	1600.70	0	2.4230	0	38.4030	8	30.673	0	1581.862	0	30.4	4	9.5	4	-1E+10	1	-1E+10	1	-1E+10	1	-1E+10	1	-1E+10	1	-1E+10	1
4901784	233	C	11/20/2021	10:50	-136.527	43.455	0	1605.80	0	2.4150	0	38.4050	8	30.675	0	1586.883	0	30.6	4	9.6	4	-1E+10	1	-1E+10	1	-1E+10	1	-1E+10	1	-1E+10	1	-1E+10	1
4901784	233	C	11/20/2021	10:50	-136.527	43.455	0	1610.00	0	2.4100	0	38.4050	8	30.675	0	1591.018	0	30.9	4	9.7	4	-1E+10	1	-1E+10	1	-1E+10	1	-1E+10	1	-1E+10	1	-1E+10	1
4901784	233	C	11/20/2021	10:50	-136.527	43.455	0	1614.20	0	2.3990	0	38.4070	8	30.678	0	1595.152	0	31.2	4	9.8	4	-1E+10	1	-1E+10	1	-1E+10	1	-1E+10	1	-1E+10	1	-1E+10	1
4901784	233	C	11/20/2021	10:50	-136.527	43.455	0	1619.30	0	2.3890	0	38.4090	8	30.681	0	1600.173	0	31.5	4	9.9	4	-1E+10	1	-1E+10	1	-1E+10	1	-1E+10	1	-1E+10	1	-1E+10	1
4901784	233	C	11/20/2021	10:50	-136.527	43.455	0	1624.40	0	2.3830	0	38.4100	8	30.682	0	1605.193	0	31.7	4	9.9	4	-1E+10	1	-1E+10	1	-1E+10	1	-1E+10	1	-1E+10	1	-1E+10	1
4901784	233	C	11/20/2021	10:50	-136.527	43.455	0	1629.60	0	2.3750	0	38.4110	8	30.684	0	1610.312	0	31.9	4	10.0	4	-1E+10	1	-1E+10	1	-1E+10	1	-1E+10	1	-1E+10	1	-1E+10	1
4901784	233	C	11/20/2021	10:50	-136.527	43.455	0	1634.80	0	2.3710	0	38.4120	8	30.685	0	1615.431	0	32.1	4	10.1	4	-1E+10	1	-1E+10	1	-1E+10	1	-1E+10	1	-1E+10	1	-1E+10	1
4901784	233	C	11/20/2021	10:50	-136.527	43.455	0	1640.00	0	2.3650	0	38.4130	8	30.686	0	1620.549	0	32.4	4	10.2	4	-1E+10	1	-1E+10	1	-1E+10	1	-1E+10	1	-1E+10	1	-1E+10	1
4901784	233	C	11/20/2021	10:50	-136.527	43.455	0	1645.20	0	2.3560	0	38.4150	8	30.689	0	1625.668	0	32.8	4	10.3	4	-1E+10	1	-1E+10	1	-1E+10	1	-1E+10	1	-1E+10	1	-1E+10	1
4901784	233	C	11/20/2021	10:50	-136.527	43.455	0	1650.40	0	2.3500	0	38.4160	8	30.690	0	1630.786	0	33.0	4	10.4	4	-1E+10	1	-1E+10	1	-1E+10	1	-1E+10	1	-1E+10	1	-1E+10	1
4901784	233	C	11/20/2021	10:50	-136.527	43.455	0	1655.60	0	2.3410	0	38.4180	8	30.693	0	1635.904	0	33.4	4	10.5	4	-1E+10	1	-1E+10	1	-1E+10	1	-1E+10	1	-1E+10	1	-1E+10	1
4901784	233	C	11/20/2021	10:50	-136.527	43.455	0	1660.00	0	2.3350	0	38.4190	8	30.694	0	1640.235	0	33.7	4	10.5	4	-1E+10	1	-1E+10	1	-1E+10	1	-1E+10	1	-1E+10	1	-1E+10	1
4901784	233	C	11/20/2021	10:50	-136.527	43.455	0	1664.30	0	2.3260	0	38.4210	8	30.696	0	1644.467	0	33.9	4	10.6	4	-1E+10	1	-1E+10	1	-1E+10	1	-1E+10	1	-1E+10	1	-1E+10	1
4901784	233	C	11/20/2021	10:50	-136.527	43.455	0	1669.60	0	2.3220	0	38.4220	8	30.698	0	1649.683	0	34.1	4	10.7	4	-1E+10	1	-1E+10	1	-1E+10	1	-1E+10	1	-1E+10	1	-1E+10	1
4901784	233	C	11/20/2021	10:50	-136.527	43.455	0	1674.90	0	2.3170	0	38.4230	8	30.699	0	1654.899	0	34.3	4	10.7	4	-1E+10	1	-1E+10	1	-1E+10	1	-1E+10	1	-1E+10	1	-1E+10	1
4901784	233	C	11/20/2021	10:50	-136.527	43.455	0	1680.30	0	2.3130	0	38.4240	8	30.700	0	1660.214	0	34.6	4	10.8	4	-1E+10	1	-1E+10	1	-1E+10	1	-1E+10	1	-1E+10	1	-1E+10	1
4901784	233	C	11/20/2021	10:50	-136.527	43.455	0	1685.70	0	2.3060	0	38.4260	8	30.702	0	1665.528	0	35.0	4	11.0	4	-1E+10	1	-1E+10	1	-1E+10	1	-1E+10	1	-1E+10	1	-1E+10	1
4901784	233	C	11/20/2021	10:50	-136.527	43.455	0	1690.20	0	2.2980	0	38.4280	8	30.705	0	1669.956	0	35.3	4	11.0	4	-1E+10	1	-1E+10	1	-1E+10	1	-1E+10	1	-1E+10	1	-1E+10	1
4901784	233	C	11/20/2021	10:50	-136.527	43.455	0	1694.70	0	2.2920	0	38.4290	8	30.706	0	1674.385	0	35.5	4	11.1	4	-1E+10	1	-1E+10	1	-1E+10	1	-1E+10	1	-1E+10	1	-1E+10	1
4901784	233	C	11/20/2021	10:50	-136.527	43.455	0	1700.10	0	2.2860	0	38.4300	8	30.708	0	1679.698	0	35.7	4	11.2	4	-1E+10	1	-1E+10	1	-1E+10	1	-1E+10	1	-1E+10	1	-1E+10	1
4901784	233	C	11/20/2021	10:50	-136.527	43.455	0	1705.50	0	2.2790	0	38.4310	8	30.709	0	1685.012	0	36.1	4	11.3	4	-1E+10	1	-1E+10	1	-1E+10	1	-1E+10	1	-1E+10	1	-1E+10	1
4901784	233	C	11/20/2021	10:50	-136.527	43.455	0	1710.00	0	2.2710	0	38.4320	8	30.711	0	1689.440	0	36.4	4	11.4	4	-1E+10	1	-1E+10	1	-1E+10	1	-1E+10	1	-1E+10	1	-1E+10	1
4901784	233	C	11/20/2021	10:50	-136.527	43.455	0	1714.60	0	2.2670	0	38.4330	8	30.712	0	1693.967	0	36.8	4	11.5	4	-1E+10	1	-1E+10	1	-1E+10	1	-1E+10	1	-1E+10	1	-1E+10	1
4901784	233	C	11/20/2021	10:50	-136.527	43.455	0	1720.10	0	2.2580	0	38.4350	8	30.714	0	1699.378	0	37.3	4	11.6	4	-1E+10	1	-1E+10	1	-1E+10	1	-1E+10	1	-1E+10	1	-1E+10	1
4901784	233	C	11/20/2021	10:50	-136.527	43.455	0	1725.60	0	2.2510	0	38.4370	8	30.717	0	1704.790	0	37.6	4	11.7	4	-1E+10	1	-1E+10	1	-1E+10	1	-1E+10	1	-1E+10	1	-1E+10	1
4901784	233	C	11/20/2021	10:50	-136.527	43.455	0	1730.10	0	2.2440	0	38.4380	8	30.718	0	1709.218	0	37.9	4	11.8	4	-1E+10	1	-1E+10	1	-1E+10	1	-1E+10	1	-1E+10	1	-1E+10	1
4901784	233	C	11/20/2021	10:50	-136.527	43.455	0	1734.70	0	2.2360	0	38.4390	8	30.720	0	1713.744	0	38.2	4	11.9	4	-1E+10	1	-1E+10	1	-1E+10	1	-1E+10	1	-1E+10	1	-1E+10	1
4901784	233	C	11/20/2021	10:50	-136.527	43.455	0	1740.10	0	2.2310	0	38.4410	8	30.722	0	1719.056	0	38.5	4	12.0	4	-1E+10	1	-1E+10	1	-1E+10	1	-1E+10	1	-1E+10	1	-1E+10	1
4901784	233	C	11/20/2021	10:50	-136.527	43.455	0	1745.60	0	2.2250	0	38.4420	8	30.723	0	1724.468	0	38.8	4	12.1	4	-1E+10	1	-1E+10	1	-1E+10	1	-1E+10	1	-1E+10	1	-1E+10	1
4901784	233	C	11/20/2021	10:50	-136.527	43.455	0	1750.20	0	2.2200	0	38.4440	8	30.725	0	1728.993	0	39.0	4	12.2	4	-1E+10	1	-1E+10	1	-1E+10	1	-1E+10	1	-1E+10	1	-1E+10	1
4901784	233	C	11/20/2021	10:50	-136.527	43.455	0	1754.80	0	2.2160	0	38.4440	8	30.726	0	1733.519	0	39.1	4	12.2	4	-1E+10	1	-1E+10	1	-1E+10	1	-1E+10	1	-1E+10	1	-1E+10	1
4901784	233	C	11/20/2021	10:50	-136.527	43.455	0	1760.40	0	2.2130	0	38.4440	8	30.726	0	1739.028	0	39.4	4	12.3	4	-1E+10	1	-1E+10	1	-1E+10	1	-1E+10	1	-1E+10	1	-1E+10	1
4901784	233	C	11/20/2021	10:50	-136.527	43.455	0	1765.00	0	2.2030	0	38.4470	8	30.729	0	1743.553	0	39.7	4	12.4	4	-1E+10	1	-1E+10	1	-1E+10	1	-1E+10	1	-1E+10	1	-1E+10	1
4901784	233	C	11/20/2021	10:50	-136.527	43.455	0	1769.60	0	2.1950	0	38.4480	8	30.731	0	1748.078	0	39.9	4	12.5	4	-1E+10	1	-1E+10	1	-1E+10	1	-1E+10	1	-1E+10	1	-1E+10	1
4901784	233	C	11/20/2021	10:50	-136.527	43.455	0	1775.10	0	2.1880	0	38.4490	8	30.732	0	1753.489	0	40.3	4	12.6	4	-1E+10	1	-1E+10	1	-1E+10	1	-1E+10	1	-1E+10	1	-1E+10	1
4901784	233	C	11/20/2021	10:50	-136.527	43.455	0	1780.60	0	2.1780	0	38.4510	8	30.735	0	1758.899	0	40.7	4	12.7	4	-1E+10	1	-1E+10	1	-1E+10	1	-1E+10	1	-1E+10	1	-1E+10	1
4901784	233	C	11/20/2021	10:50	-136.527	43.455	0	1785.20	0	2.1740	0	38.4520	8	30.736	0	1763.424	0	40.8	4	12.7	4	-1E+10	1	-1E+10	1	-1E+10	1	-1E+10	1	-1E+10	1	-1E+10	1
4901784	233	C	11/20/2021	10:50	-136.527	43.455	0	1789.80	0	2.1680	0	38.4530	8	30.737	0	1767.949	0	41.0	4	12.8	4	-1E+10	1	-1E+10	1	-1E+10	1	-1E+10	1	-1E+10	1	-1E+10	1
4901784	233	C	11/20/2021	10:50	-136.527	43.455	0	1795.40	0	2.1640	0	38.4540	8	30.739	0	1773.457	0	41.3	4	12.9	4	-1E+10	1	-1E+10	1	-1E+10	1	-1E+10	1	-1E+10	1	-1E+10	1
4901784	233	C	11/20/2021	10:50	-136.527	43.455	0	1800.00	0	2.1590	0	38.4560	8	30.741	0	1777.981	0	41.5	4	12.9	4	-1E+10	1	-1E+10	1	-1E+10	1	-1E+10	1	-1E+10	1	-1E+10	1
4901784	233	C	11/20/2021	10:50	-136.527	43.455	0	1804.70	0	2.1560	0	38.4560	8	30.741	0	1782.604	0	41.7	4	13.0	4	-1E+10	1	-1E+10	1	-1E+10	1	-1E+10	1	-1E+10	1	-1E+10	1
4901784	233	C	11/20/2021	10:50	-136.527	43.455	0	1810.30	0	2.1490	0	38.4570	8	30.743	0	1788.112	0	42.2	4	13.2	4	-1E+10	1	-1E+10	1	-1E+10	1	-1E+10	1	-1E+10	1	-1E+10	1
4901784	233	C	11/20/2021	10:50	-136.527	43.455	0	1814.50	0	2.1440	0	38.4590	8	30.745	0	1792.243	0	42.7	4	13.3	4	-1E+10	1	-1E+10	1	-1E+10	1	-1E+10	1	-1E+10	1	-1E+10	1
4901784	233	C	11/20/2021	10:50	-136.527	43.455	0	1819.50	0	2.1410	0	38.4600	8	30.746	0	1797.160	0	43.4	4	13.5	4	-1E+10	1	-1E+10	1	-1E+10	1	-1E+10	1	-1E+10	1	-1E+10	1
4901784	233	C	11/20/2021	10:50	-136.527	43.455	0	1824.40	0	2.1350	0	38.4610	8	30.747	0	1801.980	0	43.7	4	13.6	4	-1E+10	1	-1E+10	1	-1E+10	1	-1E+10	1	-1E+10	1	-1E+10	1
4901784	233	C	11/20/2021	10:50	-136.527	43.455	0	1829.40	0	2.1280	0	38.4620	8	30.749	0	1806.897	0	44.1	4	13.7	4	-1E+10	1	-1E+10	1	-1E+10	1	-1E+10	1	-1E+10	1	-1E+10	1
4901784	233	C	11/20/2021	10:50	-136.527	43.455	0	1834.40	0	2.1220	0	38.4640	8	30.751	0	1811.814	0	44.4	4	13.8	4	-1E+10	1	-1E+10	1	-1E+10	1	-1E+10	1	-1E+10	1	-1E+10	1
4901784	233	C	11/20/2021	10:50	-136.527	43.455	0	1839.40	0	2.1190	0	38.4640	8	30.751	0	1816.731	0	44.7	4	13.9	4	-1E+10	1	-1E+10	1	-1E+10	1	-1E+10	1	-1E+10	1	-1E+10	1
4901784	233	C	11/20/2021	10:50	-136.527	43.455	0	1844.40	0	2.1130	0	38.4660	8	30.753	0	1821.648	0	45.1	4	14.0	4	-1E+10	1	-1E+10	1	-1E+10	1	-1E+10	1	-1E+10	1	-1E+10	1
4901784	233	C	11/20/2021	10:50	-136.527	43.455	0	1849.50	0	2.1090	0	38.4660	8	30.754	0	1826.663	0	45.4	4	14.1	4	-1E+10	1	-1E+10	1	-1E+10	1	-1E+10	1	-1E+10	1	-1E+10	1
4901784	233	C	11/20/2021	10:50	-136.527	43.455	0	1854.50	0	2.1020	0	38.4680	8	30.756	0	1831.580	0	45.8	4	14.3	4	-1E+10	1	-1E+10	1	-1E+10	1	-1E+10	1	-1E+10	1	-1E+10	1
4901784	233	C	11/20/2021	10:50	-136.527	43.455	0	1859.60	0	2.0980	0	38.4690	8	30.757	0	1836.595	0	46.0	4	14.3	4	-1E+10	1	-1E+10	1	-1E+10	1	-1E+10	1	-1E+10	1	-1E+10	1
4901784	233	C	11/20/2021	10:50	-136.527	43.455	0	1864.70	0	2.0940	0	38.4700	8	30.758	0	1841.610	0	46.4	4	14.4	4	-1E+10	1	-1E+10	1	-1E+10	1	-1E+10	1	-1E+10	1	-1E+10	1
4901784	233	C	11/20/2021	10:50	-136.527	43.455	0	1869.70	0	2.0870	0	38.4710	8	30.760	0	1846.526	0	46.8	4	14.6	4	-1E+10	1	-1E+10	1	-1E+10	1	-1E+10	1	-1E+10	1	-1E+10	1
4901784	233	C	11/20/2021	10:50	-136.527	43.455	0	1874.90	0	2.0800	0	38.4730	8	30.762	0	1851.639	0	47.3	4	14.7	4	-1E+10	1	-1E+10	1	-1E+10	1	-1E+10	1	-1E+10	1	-1E+10	1
4901784	233	C	11/20/2021	10:50	-136.527	43.455	0	1880.00	0	2.0730	0	38.4740	8	30.763	0	1856.654	0	47.7	4	14.8	4	-1E+10	1	-1E+10	1	-1E+10	1	-1E+10	1	-1E+10	1	-1E+10	1
4901784	233	C	11/20/2021	10:50	-136.527	43.455	0	1885.20	0	2.0650	0	38.4750	8	30.765	0	1861.766	0	47.9	4	14.9	4	-1E+10	1	-1E+10	1	-1E+10	1	-1E+10	1	-1E+10	1	-1E+10	1
4901784	233	C	11/20/2021	10:50	-136.527	43.455	0	1890.40	0	2.0590	0	38.4760	8	30.766	0	1866.879	0	48.2	4	15.0	4	-1E+10	1	-1E+10	1	-1E+10	1	-1E+10	1	-1E+10	1	-1E+10	1
4901784	233	C	11/20/2021	10:50	-136.527	43.455	0	1895.50	0	2.0540	0	38.4780	8	30.768	0	1871.893	0	48.6	4	15.1	4	-1E+10	1	-1E+10	1	-1E+10	1	-1E+10	1	-1E+10	1	-1E+10	1
4901784	233	C	11/20/2021	10:50	-136.527	43.455	0	1899.90	0	2.0500	0	38.4780	8	30.769	0	1876.219	0	48.9	4	15.2	4	-1E+10	1	-1E+10	1	-1E+10	1	-1E+10	1	-1E+10	1	-1E+10	1
4901784	233	C	11/20/2021	10:50	-136.527	43.455	0	1904.30	0	2.0470	0	38.4790	8	30.770	0	1880.545	0	49.2	4	15.3	4	-1E+10	1	-1E+10	1	-1E+10	1	-1E+10	1	-1E+10	1	-1E+10	1
4901784	233	C	11/20/2021	10:50	-136.527	43.455	0	1909.60	0	2.0420	0	38.4800	8	30.771	0	1885.755	0	49.7	4	15.5	4	-1E+10	1	-1E+10	1	-1E+10	1	-1E+10	1	-1E+10	1	-1E+10	1
4901784	233	C	11/20/2021	10:50	-136.527	43.455	0	1914.90	0	2.0340	0	38.4820	8	30.774	0	1890.965	0	50.1	4	15.6	4	-1E+10	1	-1E+10	1	-1E+10	1	-1E+10	1	-1E+10	1	-1E+10	1
4901784	233	C	11/20/2021	10:50	-136.527	43.455	0	1920.20	0	2.0270	0	38.4830	8	30.775	0	1896.175	0	50.5	4	15.7	4	-1E+10	1	-1E+10	1	-1E+10	1	-1E+10	1	-1E+10	1	-1E+10	1
4901784	233	C	11/20/2021	10:50	-136.527	43.455	0	1925.60	0	2.0210	0	38.4840	8	30.776	0	1901.484	0	50.8	4	15.8	4	-1E+10	1	-1E+10	1	-1E+10	1	-1E+10	1	-1E+10	1	-1E+10	1
4901784	233	C	11/20/2021	10:50	-136.527	43.455	0	1930.10	0	2.0180	0	38.4850	8	30.778	0	1905.907	0	51.0	4	15.9	4	-1E+10	1	-1E+10	1	-1E+10	1	-1E+10	1	-1E+10	1	-1E+10	1
4901784	233	C	11/20/2021	10:50	-136.527	43.455	0	1934.60	0	2.0150	0	38.4850	8	30.778	0	1910.331	0	51.3	4	16.0	4	-1E+10	1	-1E+10	1	-1E+10	1	-1E+10	1	-1E+10	1	-1E+10	1
4901784	233	C	11/20/2021	10:50	-136.527	43.455	0	1940.00	0	2.0090	0	38.4870	8	30.780	0	1915.639	0	51.6	4	16.0	4	-1E+10	1	-1E+10	1	-1E+10	1	-1E+10	1	-1E+10	1	-1E+10	1
4901784	233	C	11/20/2021	10:50	-136.527	43.455	0	1945.50	0	2.0050	0	38.4880	8	30.781	0	1921.045	0	51.9	4	16.1	4	-1E+10	1	-1E+10	1	-1E+10	1	-1E+10	1	-1E+10	1	-1E+10	1
4901784	233	C	11/20/2021	10:50	-136.527	43.455	0	1949.60	0	2.0030	0	38.4880	8	30.781	0	1925.075	0	52.1	4	16.2	4	-1E+10	1	-1E+10	1	-1E+10	1	-1E+10	1	-1E+10	1	-1E+10	1
4901784	233	C	11/20/2021	10:50	-136.527	43.455	0	1954.50	0	2.0000	0	38.4890	8	30.783	0	1929.891	0	52.4	4	16.3	4	-1E+10	1	-1E+10	1	-1E+10	1	-1E+10	1	-1E+10	1	-1E+10	1
4901784	233	C	11/20/2021	10:50	-136.527	43.455	0	1959.30	0	1.9960	0	38.4900	8	30.784	0	1934.609	0	52.8	4	16.4	4	-1E+10	1	-1E+10	1	-1E+10	1	-1E+10	1	-1E+10	1	-1E+10	1
4901784	233	C	11/20/2021	10:50	-136.527	43.455	0	1964.90	0	1.9910	0	38.4910	8	30.785	0	1940.113	0	53.2	4	16.5	4	-1E+10	1	-1E+10	1	-1E+10	1	-1E+10	1	-1E+10	1	-1E+10	1
4901784	233	C	11/20/2021	10:50	-136.527	43.455	0	1970.70	0	1.9850	0	38.4920	8	30.786	0	1945.813	0	53.5	4	16.6	4	-1E+10	1	-1E+10	1	-1E+10	1	-1E+10	1	-1E+10	1	-1E+10	1
4901784	233	C	11/20/2021	10:50	-136.527	43.455	0	1975.60	0	1.9820	0	38.4930	8	30.787	0	1950.629	0	53.7	4	16.7	4	-1E+10	1	-1E+10	1	-1E+10	1	-1E+10	1	-1E+10	1	-1E+10	1
4901784	233	C	11/20/2021	10:50	-136.527	43.455	0	1980.50	0	1.9800	0	38.4940	8	30.788	0	1955.444	0	53.9	4	16.7	4	-1E+10	1	-1E+10	1	-1E+10	1	-1E+10	1	-1E+10	1	-1E+10	1
4901784	233	C	11/20/2021	10:50	-136.527	43.455	0	1985.40	0	1.9770	0	38.4940	8	30.789	0	1960.260	0	54.1	4	16.8	4	-1E+10	1	-1E+10	1	-1E+10	1	-1E+10	1	-1E+10	1	-1E+10	1
4901784	233	C	11/20/2021	10:50	-136.527	43.455	0	1990.40	0	1.9760	0	38.4950	8	30.790	0	1965.173	0	54.3	4	16.9	4	-1E+10	1	-1E+10	1	-1E+10	1	-1E+10	1	-1E+10	1	-1E+10	1
4901784	233	C	11/20/2021	10:50	-136.527	43.455	0	1995.50	0	1.9730	0	38.4950	8	30.790	0	1970.185	0	54.6	4	16.9	4	-1E+10	1	-1E+10	1	-1E+10	1	-1E+10	1	-1E+10	1	-1E+10	1
4901784	233	C	11/20/2021	10:50	-136.527	43.455	0	1999.80	0	1.9700	0	38.4960	8	30.791	0	1974.411	0	54.9	4	17.0	4	-1E+10	1	-1E+10	1	-1E+10	1	-1E+10	1	-1E+10	1	-1E+10	1
4901784	233	C	11/20/2021	10:50	-136.527	43.455	0	2005.30	0	1.9640	0	38.4970	8	30.792	0	1979.815	0	55.3	4	17.2	4	-1E+10	1	-1E+10	1	-1E+10	1	-1E+10	1	-1E+10	1	-1E+10	1
4901784	233	C	11/20/2021	10:50	-136.527	43.455	0	2010.20	0	1.9590	0	38.4980	8	30.794	0	1984.630	0	55.6	4	17.3	4	-1E+10	1	-1E+10	1	-1E+10	1	-1E+10	1	-1E+10	1	-1E+10	1
4901784	233	C	11/20/2021	10:50	-136.527	43.455	0	2015.40	0	1.9560	0	38.4990	8	30.795	0	1989.740	0	55.7	4	17.3	4	-1E+10	1	-1E+10	1	-1E+10	1	-1E+10	1	-1E+10	1	-1E+10	1
4901784	233	C	11/20/2021	10:50	-136.527	43.455	0	2017.70	0	1.9550	0	38.5000	8	30.796	0	1992.000	0	55.1	4	17.1	4	-1E+10	1	-1E+10	1	-1E+10	1	-1E+10	1	-1E+10	1	-1E+10	1
4901784	233	C	11/20/2021	10:50	-136.527	43.455	0																										
4901784	234	C	11/30/2021	10:50	-136.557	43.495	0	2.10	0	12.1900	0	35.9980	8	27.328	0	2.083	0	249.6	4	95.9	4	-1E+10	1	-1E+10	1	-1E+10	1	-1E+10	1	-1E+10	1	-1E+10	1
4901784	234	C	11/30/2021	10:50	-136.557	43.495	0	3.00	0	12.1890	0	36.0000	8	27.330	0	2.976	0	249.4	4	95.8	4	-1E+10	1	-1E+10	1	-1E+10	1	-1E+10	1	-1E+10	1	-1E+10	1
4901784	234	C	11/30/2021	10:50	-136.557	43.495	0	4.10	0	12.1890	0	36.0020	8	27.332	0	4.067	0	249.5	4	95.8	4	-1E+10	1	-1E+10	1	-1E+10	1	-1E+10	1	-1E+10	1	-1E+10	1
4901784	234	C	11/30/2021	10:50	-136.557	43.495	0	5.00	0	12.1900	0	36.0020	8	27.332	0	4.960	0	249.5	4	95.8	4	-1E+10	1	-1E+10	1	-1E+10	1	-1E+10	1	-1E+10	1	-1E+10	1
4901784	234	C	11/30/2021	10:50	-136.557	43.495	0	5.90	0	12.1900	0	36.0030	8	27.332	0	5.853	0	249.5	4	95.8	4	-1E+10	1	-1E+10	1	-1E+10	1	-1E+10	1	-1E+10	1	-1E+10	1
4901784	234	C	11/30/2021	10:50	-136.557	43.495	0	7.30	0	12.1910	0	36.0040	8	27.333	0	7.242	0	249.5	4	95.8	4	-1E+10	1	-1E+10	1	-1E+10	1	-1E+10	1	-1E+10	1	-1E+10	1
4901784	234	C	11/30/2021	10:50	-136.557	43.495	0	8.50	0	12.1910	0	36.0050	8	27.334	0	8.432	0	249.4	4	95.8	4	-1E+10	1	-1E+10	1	-1E+10	1	-1E+10	1	-1E+10	1	-1E+10	1
4901784	234	C	11/30/2021	10:50	-136.557	43.495	0	9.70	0	12.1910	0	36.0060	8	27.335	0	9.622	0	249.3	4	95.8	4	-1E+10	1	-1E+10	1	-1E+10	1	-1E+10	1	-1E+10	1	-1E+10	1
4901784	234	C	11/30/2021	10:50	-136.557	43.495	0	11.00	0	12.1910	0	36.0070	8	27.335	0	10.912	0	249.2	4	95.7	4	-1E+10	1	-1E+10	1	-1E+10	1	-1E+10	1	-1E+10	1	-1E+10	1
4901784	234	C	11/30/2021	10:50	-136.557	43.495	0	12.30	0	12.1910	0	36.0080	8	27.336	0	12.201	0	249.2	4	95.7	4	-1E+10	1	-1E+10	1	-1E+10	1	-1E+10	1	-1E+10	1	-1E+10	1
4901784	234	C	11/30/2021	10:50	-136.557	43.495	0	13.70	0	12.1930	0	36.0090	8	27.337	0	13.590	0	249.2	4	95.7	4	-1E+10	1	-1E+10	1	-1E+10	1	-1E+10	1	-1E+10	1	-1E+10	1
4901784	234	C	11/30/2021	10:50	-136.557	43.495	0	15.20	0	12.1920	0	36.0090	8	27.337	0	15.078	0	249.2	4	95.7	4	-1E+10	1	-1E+10	1	-1E+10	1	-1E+10	1	-1E+10	1	-1E+10	1
4901784	234	C	11/30/2021	10:50	-136.557	43.495	0	16.90	0	12.1930	0	36.0110	8	27.338	0	16.764	0	249.1	4	95.7	4	-1E+10	1	-1E+10	1	-1E+10	1	-1E+10	1	-1E+10	1	-1E+10	1
4901784	234	C	11/30/2021	10:50	-136.557	43.495	0	18.50	0	12.1940	0	36.0100	8	27.337	0	18.352	0	249.2	4	95.7	4	-1E+10	1	-1E+10	1	-1E+10	1	-1E+10	1	-1E+10	1	-1E+10	1
4901784	234	C	11/30/2021	10:50	-136.557	43.495	0	20.20	0	12.1940	0	36.0110	8	27.338	0	20.038	0	248.9	4	95.6	4	-1E+10	1	-1E+10	1	-1E+10	1	-1E+10	1	-1E+10	1	-1E+10	1
4901784	234	C	11/30/2021	10:50	-136.557	43.495	0	21.90	0	12.1920	0	36.0130	8	27.340	0	21.724	0	249.0	4	95.6	4	-1E+10	1	-1E+10	1	-1E+10	1	-1E+10	1	-1E+10	1	-1E+10	1
4901784	234	C	11/30/2021	10:50	-136.557	43.495	0	23.60	0	12.1890	0	36.0130	8	27.341	0	23.410	0	248.9	4	95.6	4	-1E+10	1	-1E+10	1	-1E+10	1	-1E+10	1	-1E+10	1	-1E+10	1
4901784	234	C	11/30/2021	10:50	-136.557	43.495	0	25.30	0	12.1860	0	36.0140	8	27.342	0	25.097	0	248.8	4	95.5	4	-1E+10	1	-1E+10	1	-1E+10	1	-1E+10	1	-1E+10	1	-1E+10	1
4901784	234	C	11/30/2021	10:50	-136.557	43.495	0	26.80	0	12.1870	0	36.0140	8	27.342	0	26.584	0	248.5	4	95.4	4	-1E+10	1	-1E+10	1	-1E+10	1	-1E+10	1	-1E+10	1	-1E+10	1
4901784	234	C	11/30/2021	10:50	-136.557	43.495	0	28.40	0	12.1860	0	36.0160	8	27.344	0	28.171	0	248.5	4	95.4	4	-1E+10	1	-1E+10	1	-1E+10	1	-1E+10	1	-1E+10	1	-1E+10	1
4901784	234	C	11/30/2021	10:50	-136.557	43.495	0	30.00	0	12.1850	0	36.0160	8	27.344	0	29.758	0	248.5	4	95.4	4	-1E+10	1	-1E+10	1	-1E+10	1	-1E+10	1	-1E+10	1	-1E+10	1
4901784	234	C	11/30/2021	10:50	-136.557	43.495	0	31.70	0	12.1880	0	36.0170	8	27.344	0	31.445	0	248.2	4	95.3	4	-1E+10	1	-1E+10	1	-1E+10	1	-1E+10	1	-1E+10	1	-1E+10	1
4901784	234	C	11/30/2021	10:50	-136.557	43.495	0	33.50	0	12.1860	0	36.0180	8	27.345	0	33.230	0	248.0	4	95.2	4	-1E+10	1	-1E+10	1	-1E+10	1	-1E+10	1	-1E+10	1	-1E+10	1
4901784	234	C	11/30/2021	10:50	-136.557	43.495	0	35.40	0	12.1820	0	36.0210	8	27.349	0	35.115	0	247.8	4	95.2	4	-1E+10	1	-1E+10	1	-1E+10	1	-1E+10	1	-1E+10	1	-1E+10	1
4901784	234	C	11/30/2021	10:50	-136.557	43.495	0	37.20	0	12.1840	0	36.0190	8	27.347	0	36.900	0	247.5	4	95.0	4	-1E+10	1	-1E+10	1	-1E+10	1	-1E+10	1	-1E+10	1	-1E+10	1
4901784	234	C	11/30/2021	10:50	-136.557	43.495	0	39.00	0	12.1860	0	36.0170	8	27.345	0	38.685	0	247.0	4	94.9	4	-1E+10	1	-1E+10	1	-1E+10	1	-1E+10	1	-1E+10	1	-1E+10	1
4901784	234	C	11/30/2021	10:50	-136.557	43.495	0	40.70	0	12.1830	0	36.0150	8	27.344	0	40.371	0	246.4	4	94.6	4	-1E+10	1	-1E+10	1	-1E+10	1	-1E+10	1	-1E+10	1	-1E+10	1
4901784	234	C	11/30/2021	10:50	-136.557	43.495	0	42.50	0	12.1650	0	36.0370	8	27.365	0	42.157	0	245.7	4	94.3	4	-1E+10	1	-1E+10	1	-1E+10	1	-1E+10	1	-1E+10	1	-1E+10	1
4901784	234	C	11/30/2021	10:50	-136.557	43.495	0	44.30	0	12.0180	0	36.0180	8	27.378	0	43.942	0	246.4	4	94.3	4	-1E+10	1	-1E+10	1	-1E+10	1	-1E+10	1	-1E+10	1	-1E+10	1
4901784	234	C	11/30/2021	10:50	-136.557	43.495	0	46.10	0	12.0130	0	36.0190	8	27.380	0	45.727	0	246.6	4	94.4	4	-1E+10	1	-1E+10	1	-1E+10	1	-1E+10	1	-1E+10	1	-1E+10	1
4901784	234	C	11/30/2021	10:50	-136.557	43.495	0	47.90	0	11.9990	0	36.0220	8	27.385	0	47.512	0	246.4	4	94.3	4	-1E+10	1	-1E+10	1	-1E+10	1	-1E+10	1	-1E+10	1	-1E+10	1
4901784	234	C	11/30/2021	10:50	-136.557	43.495	0	49.60	0	12.0000	0	36.0210	8	27.384	0	49.198	0	246.2	4	94.2	4	-1E+10	1	-1E+10	1	-1E+10	1	-1E+10	1	-1E+10	1	-1E+10	1
4901784	234	C	11/30/2021	10:50	-136.557	43.495	0	51.40	0	11.9920	0	36.0230	8	27.387	0	50.983	0	246.1	4	94.1	4	-1E+10	1	-1E+10	1	-1E+10	1	-1E+10	1	-1E+10	1	-1E+10	1
4901784	234	C	11/30/2021	10:50	-136.557	43.495	0	53.10	0	11.9930	0	36.0230	8	27.387	0	52.670	0	246.0	4	94.1	4	-1E+10	1	-1E+10	1	-1E+10	1	-1E+10	1	-1E+10	1	-1E+10	1
4901784	234	C	11/30/2021	10:50	-136.557	43.495	0	54.90	0	11.9860	0	36.0240	8	27.390	0	54.455	0	245.8	4	94.0	4	-1E+10	1	-1E+10	1	-1E+10	1	-1E+10	1	-1E+10	1	-1E+10	1
4901784	234	C	11/30/2021	10:50	-136.557	43.495	0	56.60	0	11.9800	0	36.0240	8	27.391	0	56.141	0	245.8	4	94.0	4	-1E+10	1	-1E+10	1	-1E+10	1	-1E+10	1	-1E+10	1	-1E+10	1
4901784	234	C	11/30/2021	10:50	-136.557	43.495	0	58.30	0	11.9740	0	36.0250	8	27.393	0	57.827	0	245.3	4	93.8	4	-1E+10	1	-1E+10	1	-1E+10	1	-1E+10	1	-1E+10	1	-1E+10	1
4901784	234	C	11/30/2021	10:50	-136.557	43.495	0	60.00	0	11.9710	0	36.0220	8	27.391	0	59.513	0	245.3	4	93.8	4	-1E+10	1	-1E+10	1	-1E+10	1	-1E+10	1	-1E+10	1	-1E+10	1
4901784	234	C	11/30/2021	10:50	-136.557	43.495	0	61.80	0	11.9520	0	36.0220	8	27.395	0	61.298	0	245.2	4	93.7	4	-1E+10	1	-1E+10	1	-1E+10	1	-1E+10	1	-1E+10	1	-1E+10	1
4901784	234	C	11/30/2021	10:50	-136.557	43.495	0	63.50	0	11.9240	0	36.0250	8	27.402	0	62.984	0	245.2	4	93.7	4	-1E+10	1	-1E+10	1	-1E+10	1	-1E+10	1	-1E+10	1	-1E+10	1
4901784	234	C	11/30/2021	10:50	-136.557	43.495	0	65.30	0	11.8780	0	36.0270	8	27.413	0	64.769	0	244.9	4	93.5	4	-1E+10	1	-1E+10	1	-1E+10	1	-1E+10	1	-1E+10	1	-1E+10	1
4901784	234	C	11/30/2021	10:50	-136.557	43.495	0	67.10	0	11.8020	0	36.0260	8	27.427	0	66.554	0	244.9	4	93.3	4	-1E+10	1	-1E+10	1	-1E+10	1	-1E+10	1	-1E+10	1	-1E+10	1
4901784	234	C	11/30/2021	10:50	-136.557	43.495	0	68.90	0	11.7050	0	36.0290	8	27.448	0	68.339	0	244.8	4	93.1	4	-1E+10	1	-1E+10	1	-1E+10	1	-1E+10	1	-1E+10	1	-1E+10	1
4901784	234	C	11/30/2021	10:50	-136.557	43.495	0	70.50	0	11.6980	0	36.0220	8	27.444	0	69.925	0	243.9	4	92.7	4	-1E+10	1	-1E+10	1	-1E+10	1	-1E+10	1	-1E+10	1	-1E+10	1
4901784	234	C	11/30/2021	10:50	-136.557	43.495	0	72.20	0	11.6850	0	36.0130	8	27.439	0	71.611	0	242.3	4	92.1	4	-1E+10	1	-1E+10	1	-1E+10	1	-1E+10	1	-1E+10	1	-1E+10	1
4901784	234	C	11/30/2021	10:50	-136.557	43.495	0	73.90	0	11.6290	0	36.0310	8	27.464	0	73.297	0	240.6	4	91.4	4	-1E+10	1	-1E+10	1	-1E+10	1	-1E+10	1	-1E+10	1	-1E+10	1
4901784	234	C	11/30/2021	10:50	-136.557	43.495	0	75.60	0	11.3040	0	36.0790	8	27.562	0	74.983	0	240.7	4	90.8	4	-1E+10	1	-1E+10	1	-1E+10	1	-1E+10	1	-1E+10	1	-1E+10	1
4901784	234	C	11/30/2021	10:50	-136.557	43.495	0	77.90	0	11.0110	0	36.1210	8	27.649	0	77.264	0	240.7	4	90.3	4	-1E+10	1	-1E+10	1	-1E+10	1	-1E+10	1	-1E+10	1	-1E+10	1
4901784	234	C	11/30/2021	10:50	-136.557	43.495	0	79.70	0	10.8960	0	36.1150	8	27.666	0	79.049	0	240.8	4	90.1	4	-1E+10	1	-1E+10	1	-1E+10	1	-1E+10	1	-1E+10	1	-1E+10	1
4901784	234	C	11/30/2021	10:50	-136.557	43.495	0	81.30	0	10.5440	0	36.1560	8	27.761	0	80.635	0	241.6	4	89.8	4	-1E+10	1	-1E+10	1	-1E+10	1	-1E+10	1	-1E+10	1	-1E+10	1
4901784	234	C	11/30/2021	10:50	-136.557	43.495	0	82.90	0	10.3230	0	36.1730	8	27.814	0	82.222	0	242.2	4	89.5	4	-1E+10	1	-1E+10	1	-1E+10	1	-1E+10	1	-1E+10	1	-1E+10	1
4901784	234	C	11/30/2021	10:50	-136.557	43.495	0	84.50	0	10.1040	0	36.1930	8	27.868	0	83.809	0	243.1	4	89.5	4	-1E+10	1	-1E+10	1	-1E+10	1	-1E+10	1	-1E+10	1	-1E+10	1
4901784	234	C	11/30/2021	10:50	-136.557	43.495	0	86.00	0	10.0680	0	36.2030	8	27.882	0	85.296	0	242.8	4	89.3	4	-1E+10	1	-1E+10	1	-1E+10	1	-1E+10	1	-1E+10	1	-1E+10	1
4901784	234	C	11/30/2021	10:50	-136.557	43.495	0	87.70	0	10.0550	0	36.1950	8	27.878	0	86.982	0	242.4	4	89.1	4	-1E+10	1	-1E+10	1	-1E+10	1	-1E+10	1	-1E+10	1	-1E+10	1
4901784	234	C	11/30/2021	10:50	-136.557	43.495	0	89.30	0	9.8720	0	36.2150	8	27.926	0	88.568	0	242.5	4	88.8	4	-1E+10	1	-1E+10	1	-1E+10	1	-1E+10	1	-1E+10	1	-1E+10	1
4901784	234	C	11/30/2021	10:50	-136.557	43.495	0	91.00	0	9.7530	0	36.2560	8	27.978	0	90.254	0	242.7	4	88.7	4	-1E+10	1	-1E+10	1	-1E+10	1	-1E+10	1	-1E+10	1	-1E+10	1
4901784	234	C	11/30/2021	10:50	-136.557	43.495	0	92.70	0	9.7440	0	36.2550	8	27.979	0	91.940	0	242.2	4	88.5	4	-1E+10	1	-1E+10	1	-1E+10	1	-1E+10	1	-1E+10	1	-1E+10	1
4901784	234	C	11/30/2021	10:50	-136.557	43.495	0	94.40	0	9.7190	0	36.2520	8	27.981	0	93.625	0	242.0	4	88.4	4	-1E+10	1	-1E+10	1	-1E+10	1	-1E+10	1	-1E+10	1	-1E+10	1
4901784	234	C	11/30/2021	10:50	-136.557	43.495	0	96.00	0	9.6250	0	36.2560	8	28.000	0	95.212	0	241.9	4	88.2	4	-1E+10	1	-1E+10	1	-1E+10	1	-1E+10	1	-1E+10	1	-1E+10	1
4901784	234	C	11/30/2021	10:50	-136.557	43.495	0	97.70	0	9.4790	0	36.2620	8	28.030	0	96.897	0	241.7	4	87.8	4	-1E+10	1	-1E+10	1	-1E+10	1	-1E+10	1	-1E+10	1	-1E+10	1
4901784	234	C	11/30/2021	10:50	-136.557	43.495	0	99.30	0	9.3670	0	36.2610	8	28.048	0	98.484	0	241.3	4	87.5	4	-1E+10	1	-1E+10	1	-1E+10	1	-1E+10	1	-1E+10	1	-1E+10	1
4901784	234	C	11/30/2021	10:50	-136.557	43.495	0	102.80	0	9.1720	0	36.3360	8	28.139	0	101.954	0	239.5	4	86.5	4	-1E+10	1	-1E+10	1	-1E+10	1	-1E+10	1	-1E+10	1	-1E+10	1
4901784	234	C	11/30/2021	10:50	-136.557	43.495	0	105.40	0	9.2080	0	36.3670	8	28.157	0	104.532	0	237.2	4	85.7	4	-1E+10	1	-1E+10	1	-1E+10	1	-1E+10	1	-1E+10	1	-1E+10	1
4901784	234	C	11/30/2021	10:50	-136.557	43.495	0	107.90	0	9.2330	0	36.3900	8	28.171	0	107.011	0	234.4	4	84.8	4	-1E+10	1	-1E+10	1	-1E+10	1	-1E+10	1	-1E+10	1	-1E+10	1
4901784	234	C	11/30/2021	10:50	-136.557	43.495	0	109.70	0	9.2380	0	36.4160	8	28.191	0	108.796	0	232.2	4	84.0	4	-1E+10	1	-1E+10	1	-1E+10	1	-1E+10	1	-1E+10	1	-1E+10	1
4901784	234	C	11/30/2021	10:50	-136.557	43.495	0	112.20	0	9.2420	0	36.4440	8	28.212	0	111.274	0	228.1	4	82.6	4	-1E+10	1	-1E+10	1	-1E+10	1	-1E+10	1	-1E+10	1	-1E+10	1
4901784	234	C	11/30/2021	10:50	-136.557	43.495	0	114.70	0	9.2540	0	36.5030	8	28.256	0	113.753	0	223.2	4	80.9	4	-1E+10	1	-1E+10	1	-1E+10	1	-1E+10	1	-1E+10	1	-1E+10	1
4901784	234	C	11/30/2021	10:50	-136.557	43.495	0	117.50	0	9.2420	0	36.6400	8	28.366	0	116.529	0	218.0	4	79.0	4	-1E+10	1	-1E+10	1	-1E+10	1	-1E+10	1	-1E+10	1	-1E+10	1
4901784	234	C	11/30/2021	10:50	-136.557	43.495	0	119.90	0	9.2360	0	36.7460	8	28.450	0	118.909	0	215.4	4	78.1	4	-1E+10	1	-1E+10	1	-1E+10	1	-1E+10	1	-1E+10	1	-1E+10	1
4901784	234	C	11/30/2021	10:50	-136.557	43.495	0	122.30	0	9.2370	0	36.7710	8	28.469	0	121.288	0	213.6	4	77.5	4	-1E+10	1	-1E+10	1	-1E+10	1	-1E+10	1	-1E+10	1	-1E+10	1
4901784	234	C	11/30/2021	10:50	-136.557	43.495	0	124.60	0	9.2560	0	36.8070	8	28.494	0	123.568	0	211.6	4	76.8	4	-1E+10	1	-1E+10	1	-1E+10	1	-1E+10	1	-1E+10	1	-1E+10	1
4901784	234	C	11/30/2021	10:50	-136.557	43.495	0	127.80	0	9.2820	0	36.8810	8	28.548	0	126.741	0	207.7	4	75.5	4	-1E+10	1	-1E+10	1	-1E+10	1	-1E+10	1	-1E+10	1	-1E+10	1
4901784	234	C	11/30/2021	10:50	-136.557	43.495	0	130.20	0	9.2350	0	36.9480	8	28.608	0	129.120	0	205.0	4	74.5	4	-1E+10	1	-1E+10	1	-1E+10	1	-1E+10	1	-1E+10	1	-1E+10	1
4901784	234	C	11/30/2021	10:50	-136.557	43.495	0	132.80	0	9.1650	0	37.0000	8	28.661	0	131.698	0	202.9	4	73.6	4	-1E+10	1	-1E+10	1	-1E+10	1	-1E+10	1	-1E+10	1	-1E+10	1
4901784	234	C	11/30/2021	10:50	-136.557	43.495	0	135.30	0	9.0990	0	37.0610	8	28.720	0	134.176	0	201.6	4	73.1	4	-1E+10	1	-1E+10	1	-1E+10	1	-1E+10	1	-1E+10	1	-1E+10	1
4901784	234	C	11/30/2021	10:50	-136.557	43.495	0	137.80	0	9.0890	0	37.0760	8	28.733	0	136.655	0	200.2	4	72.6	4	-1E+10	1	-1E+10	1	-1E+10	1	-1E+10	1	-1E+10	1	-1E+10	1
4901784	234	C	11/30/2021	10:50	-136.557	43.495	0	140.40	0	9.0160	0	37.1190	8	28.779	0	139.232	0	199.2	4	72.1	4	-1E+10	1	-1E+10	1	-1E+10	1	-1E+10	1	-1E+10	1	-1E+10	1
4901784	234	C	11/30/2021	10:50	-136.557	43.495	0	142.10	0	9.0650	0	37.1550	8	28.799	0	140.918	0	199.0	4	72.1	4	-1E+10	1	-1E+10	1	-1E+10	1	-1E+10	1	-1E+10	1	-1E+10	1
4901784	234	C	11/30/2021	10:50	-136.557	43.495	0	144.60	0	9.0360	0	37.1990	8	28.839	0	143.396	0	197.9	4	71.7	4	-1E+10	1	-1E+10	1	-1E+10	1	-1E+10	1	-1E+10	1	-1E+10	1
4901784	234	C	11/30/2021	10:50	-136.557	43.495	0	147.20	0	9.0080	0	37.2310	8	28.868	0	145.973	0	197.4	4	71.5	4	-1E+10	1	-1E+10	1	-1E+10	1	-1E+10	1	-1E+10	1	-1E+10	1
4901784	234	C	11/30/2021	10:50	-136.557	43.495	0	150.00	0	8.9780	0	37.2810	8	28.913	0	148.749	0	197.0	4	71.3	4	-1E+10	1	-1E+10	1	-1E+10	1	-1E+10	1	-1E+10	1	-1E+10	1
4901784	234	C	11/30/2021	10:50	-136.557	43.495	0	152.60	0	8.9670	0	37.2940	8	28.925	0	151.326	0	196.6	4	71.2	4	-1E+10	1	-1E+10	1	-1E+10	1	-1E+10	1	-1E+10	1	-1E+10	1
4901784	234	C	11/30/2021	10:50	-136.557	43.495	0	154.80	0	8.9380	0	37.3280	8	28.956	0	153.507	0	196.1	4	71.0	4	-1E+10	1	-1E+10	1	-1E+10	1	-1E+10	1	-1E+10	1	-1E+10	1
4901784	234	C	11/30/2021	10:50	-136.557	43.495	0	157.90	0	8.9000	0	37.3550	8	28.984	0	156.580	0	195.5	4	70.7	4	-1E+10	1	-1E+10	1	-1E+10	1	-1E+10	1	-1E+10	1	-1E+10	1
4901784	234	C	11/30/2021	10:50	-136.557	43.495	0	160.30	0	8.8830	0	37.3620	8	28.992	0	158.959	0	195.2	4	70.6	4	-1E+10	1	-1E+10	1	-1E+10	1	-1E+10	1	-1E+10	1	-1E+10	1
4901784	234	C	11/30/2021	10:50	-136.557	43.495	0	162.60	0	8.8660	0	37.3700	8	29.001	0	161.239	0	195.0	4	70.5	4	-1E+10	1	-1E+10	1	-1E+10	1	-1E+10	1	-1E+10	1	-1E+10	1
4901784	234	C	11/30/2021	10:50	-136.557	43.495	0	165.00	0	8.8390	0	37.3790	8	29.013	0	163.618	0	194.9	4	70.4	4	-1E+10	1	-1E+10	1	-1E+10	1	-1E+10	1	-1E+10	1	-1E+10	1
4901784	234	C	11/30/2021	10:50	-136.557	43.495	0	167.30	0	8.8320	0	37.3950	8	29.026	0	165.898	0	194.9	4	70.4	4	-1E+10	1	-1E+10	1	-1E+10	1	-1E+10	1	-1E+10	1	-1E+10	1
4901784	234	C	11/30/2021	10:50	-136.557	43.495	0	169.70	0	8.8270	0	37.4010	8	29.032	0	168.277	0	194.8	4	70.4	4	-1E+10	1	-1E+10	1	-1E+10	1	-1E+10	1	-1E+10	1	-1E+10	1
4901784	234	C	11/30/2021	10:50	-136.557	43.495	0	172.10	0	8.8060	0	37.4150	8	29.046	0	170.656	0	194.4	4	70.2	4	-1E+10	1	-1E+10	1	-1E+10	1	-1E+10	1	-1E+10	1	-1E+10	1
4901784	234	C	11/30/2021	10:50	-136.557	43.495	0	174.60	0	8.7990	0	37.4170	8	29.049	0	173.134	0	193.8	4	70.0	4	-1E+10	1	-1E+10	1	-1E+10	1	-1E+10	1	-1E+10	1	-1E+10	1
4901784	234	C	11/30/2021	10:50	-136.557	43.495	0	177.20	0	8.7710	0	37.4250	8	29.060	0	175.711	0	192.9	4	69.6	4	-1E+10	1	-1E+10	1	-1E+10	1	-1E+10	1	-1E+10	1	-1E+10	1
4901784	234	C	11/30/2021	10:50	-136.557	43.495	0	179.70	0	8.7250	0	37.4360	8	29.076	0	178.188	0	192.1	4	69.2	4	-1E+10	1	-1E+10	1	-1E+10	1	-1E+10	1	-1E+10	1	-1E+10	1
4901784	234	C	11/30/2021	10:50	-136.557	43.495	0	182.20	0	8.7010	0	37.4400	8	29.083	0	180.666	0	191.1	4	68.8	4	-1E+10	1	-1E+10	1	-1E+10	1	-1E+10	1	-1E+10	1	-1E+10	1
4901784	234	C	11/30/2021	10:50	-136.557	43.495	0	184.80	0	8.6700	0	37.4430	8	29.091	0	183.243	0	190.1	4	68.4	4	-1E+10	1	-1E+10	1	-1E+10	1	-1E+10	1	-1E+10	1	-1E+10	1
4901784	234	C	11/30/2021	10:50	-136.557	43.495	0	187.30	0	8.6280	0	37.4510	8	29.104	0	185.721	0	188.9	4	68.0	4	-1E+10	1	-1E+10	1	-1E+10	1	-1E+10	1	-1E+10	1	-1E+10	1
4901784	234	C	11/30/2021	10:50	-136.557	43.495	0	189.80	0	8.5640	0	37.4670	8	29.127	0	188.199	0	187.9	4	67.5	4	-1E+10	1	-1E+10	1	-1E+10	1	-1E+10	1	-1E+10	1	-1E+10	1
4901784	234	C	11/30/2021	10:50	-136.557	43.495	0	192.40	0	8.5500	0	37.4690	8	29.131	0	190.776	0	187.2	4	67.2	4	-1E+10	1	-1E+10	1	-1E+10	1	-1E+10	1	-1E+10	1	-1E+10	1
4901784	234	C	11/30/2021	10:50	-136.557	43.495	0	195.00	0	8.5340	0	37.4690	8	29.133	0	193.353	0	186.1	4	66.8	4	-1E+10	1	-1E+10	1	-1E+10	1	-1E+10	1	-1E+10	1	-1E+10	1
4901784	234	C	11/30/2021	10:50	-136.557	43.495	0	197.70	0	8.4690	0	37.4760	8	29.149	0	196.029	0	185.0	4	66.3	4	-1E+10	1	-1E+10	1	-1E+10	1	-1E+10	1	-1E+10	1	-1E+10	1
4901784	234	C	11/30/2021	10:50	-136.557	43.495	0	200.30	0	8.4140	0	37.4810	8	29.162	0	198.605	0	184.3	4	66.0	4	-1E+10	1	-1E+10	1	-1E+10	1	-1E+10	1	-1E+10	1	-1E+10	1
4901784	234	C	11/30/2021	10:50	-136.557	43.495	0	202.10	0	8.3940	0	37.4800	8	29.165	0	200.389	0	183.8	4	65.8	4	-1E+10	1	-1E+10	1	-1E+10	1	-1E+10	1	-1E+10	1	-1E+10	1
4901784	234	C	11/30/2021	10:50	-136.557	43.495	0	204.80	0	8.3520	0	37.4790	8	29.171	0	203.065	0	183.1	4	65.5	4	-1E+10	1	-1E+10	1	-1E+10	1	-1E+10	1	-1E+10	1	-1E+10	1
4901784	234	C	11/30/2021	10:50	-136.557	43.495	0	207.50	0	8.2820	0	37.4790	8	29.182	0	205.741	0	182.4	4	65.1	4	-1E+10	1	-1E+10	1	-1E+10	1	-1E+10	1	-1E+10	1	-1E+10	1
4901784	234	C	11/30/2021	10:50	-136.557	43.495	0	210.20	0	8.2190	0	37.4790	8	29.192	0	208.417	0	181.8	4	64.8	4	-1E+10	1	-1E+10	1	-1E+10	1	-1E+10	1	-1E+10	1	-1E+10	1
4901784	234	C	11/30/2021	10:50	-136.557	43.495	0	212.80	0	8.1680	0	37.4780	8	29.199	0	210.993	0	181.3	4	64.6	4	-1E+10	1	-1E+10	1	-1E+10	1	-1E+10	1	-1E+10	1	-1E+10	1
4901784	234	C	11/30/2021	10:50	-136.557	43.495	0	214.50	0	8.1350	0	37.4780	8	29.204	0	212.678	0	181.0	4	64.4	4	-1E+10	1	-1E+10	1	-1E+10	1	-1E+10	1	-1E+10	1	-1E+10	1
4901784	234	C	11/30/2021	10:50	-136.557	43.495	0	217.30	0	8.1070	0	37.4770	8	29.208	0	215.453	0	180.4	4	64.2	4	-1E+10	1	-1E+10	1	-1E+10	1	-1E+10	1	-1E+10	1	-1E+10	1
4901784	234	C	11/30/2021	10:50	-136.557	43.495	0	219.90	0	8.0430	0	37.4770	8	29.218	0	218.029	0	179.8	4	63.9	4	-1E+10	1	-1E+10	1	-1E+10	1	-1E+10	1	-1E+10	1	-1E+10	1
4901784	234	C	11/30/2021	10:50	-136.557	43.495	0	222.50	0	8.0110	0	37.4750	8	29.222	0	220.606	0	179.3	4	63.6	4	-1E+10	1	-1E+10	1	-1E+10	1	-1E+10	1	-1E+10	1	-1E+10	1
4901784	234	C	11/30/2021	10:50	-136.557	43.495	0	225.20	0	7.9750	0	37.4750	8	29.227	0	223.281	0	178.7	4	63.4	4	-1E+10	1	-1E+10	1	-1E+10	1	-1E+10	1	-1E+10	1	-1E+10	1
4901784	234	C	11/30/2021	10:50	-136.557	43.495	0	227.00	0	7.9330	0	37.4750	8	29.234	0	225.065	0	178.2	4	63.1	4	-1E+10	1	-1E+10	1	-1E+10	1	-1E+10	1	-1E+10	1	-1E+10	1
4901784	234	C	11/30/2021	10:50	-136.557	43.495	0	229.80	0	7.8810	0	37.4760	8	29.243	0	227.839	0	177.5	4	62.8	4	-1E+10	1	-1E+10	1	-1E+10	1	-1E+10	1	-1E+10	1	-1E+10	1
4901784	234	C	11/30/2021	10:50	-136.557	43.495	0	232.40	0	7.8480	0	37.4720	8	29.245	0	230.416	0	176.8	4	62.5	4	-1E+10	1	-1E+10	1	-1E+10	1	-1E+10	1	-1E+10	1	-1E+10	1
4901784	234	C	11/30/2021	10:50	-136.557	43.495	0	235.20	0	7.8040	0	37.4720	8	29.251	0	233.190	0	175.7	4	62.1	4	-1E+10	1	-1E+10	1	-1E+10	1	-1E+10	1	-1E+10	1	-1E+10	1
4901784	234	C	11/30/2021	10:50	-136.557	43.495	0	237.80	0	7.7620	0	37.4720	8	29.258	0	235.767	0	174.6	4	61.6	4	-1E+10	1	-1E+10	1	-1E+10	1	-1E+10	1	-1E+10	1	-1E+10	1
4901784	234	C	11/30/2021	10:50	-136.557	43.495	0	239.70	0	7.7520	0	37.4680	8	29.256	0	237.649	0	173.5	4	61.2	4	-1E+10	1	-1E+10	1	-1E+10	1	-1E+10	1	-1E+10	1	-1E+10	1
4901784	234	C	11/30/2021	10:50	-136.557	43.495	0	242.30	0	7.6940	0	37.4690	8	29.266	0	240.226	0	171.4	4	60.4	4	-1E+10	1	-1E+10	1	-1E+10	1	-1E+10	1	-1E+10	1	-1E+10	1
4901784	234	C	11/30/2021	10:50	-136.557	43.495	0	244.90	0	7.6440	0	37.4690	8	29.274	0	242.802	0	168.6	4	59.4	4	-1E+10	1	-1E+10	1	-1E+10	1	-1E+10	1	-1E+10	1	-1E+10	1
4901784	234	C	11/30/2021	10:50	-136.557	43.495	0	247.70	0	7.5910	0	37.4690	8	29.282	0	245.576	0	166.3	4	58.5	4	-1E+10	1	-1E+10	1	-1E+10	1	-1E+10	1	-1E+10	1	-1E+10	1
4901784	234	C	11/30/2021	10:50	-136.557	43.495	0	250.30	0	7.5370	0	37.4740	8	29.294	0	248.152	0	164.3	4	57.7	4	-1E+10	1	-1E+10	1	-1E+10	1	-1E+10	1	-1E+10	1	-1E+10	1
4901784	234	C	11/30/2021	10:50	-136.557	43.495	0	252.20	0	7.5030	0	37.4780	8	29.302	0	250.035	0	163.2	4	57.3	4	-1E+10	1	-1E+10	1	-1E+10	1	-1E+10	1	-1E+10	1	-1E+10	1
4901784	234	C	11/30/2021	10:50	-136.557	43.495	0	254.80	0	7.4630	0	37.4810	8	29.310	0	252.611	0	162.1	4	56.8	4	-1E+10	1	-1E+10	1	-1E+10	1	-1E+10	1	-1E+10	1	-1E+10	1
4901784	234	C	11/30/2021	10:50	-136.557	43.495	0	257.40	0	7.4470	0	37.4810	8	29.313	0	255.187	0	160.6	4	56.3	4	-1E+10	1	-1E+10	1	-1E+10	1	-1E+10	1	-1E+10	1	-1E+10	1
4901784	234	C	11/30/2021	10:50	-136.557	43.495	0	260.10	0	7.4130	0	37.4840	8	29.320	0	257.862	0	158.7	4	55.6	4	-1E+10	1	-1E+10	1	-1E+10	1	-1E+10	1	-1E+10	1	-1E+10	1
4901784	234	C	11/30/2021	10:50	-136.557	43.495	0	262.80	0	7.3880	0	37.4870	8	29.327	0	260.537	0	156.7	4	54.9	4	-1E+10	1	-1E+10	1	-1E+10	1	-1E+10	1	-1E+10	1	-1E+10	1
4901784	234	C	11/30/2021	10:50	-136.557	43.495	0	264.60	0	7.3680	0	37.4880	8	29.330	0	262.321	0	155.5	4	54.4	4	-1E+10	1	-1E+10	1	-1E+10	1	-1E+10	1	-1E+10	1	-1E+10	1
4901784	234	C	11/30/2021	10:50	-136.557	43.495	0	267.20	0	7.3160	0	37.4950	8	29.344	0	264.897	0	153.3	4	53.6	4	-1E+10	1	-1E+10	1	-1E+10	1	-1E+10	1	-1E+10	1	-1E+10	1
4901784	234	C	11/30/2021	10:50	-136.557	43.495	0	269.90	0	7.2530	0	37.5000	8	29.357	0	267.571	0	151.9	4	53.0	4	-1E+10	1	-1E+10	1	-1E+10	1	-1E+10	1	-1E+10	1	-1E+10	1
4901784	234	C	11/30/2021	10:50	-136.557	43.495	0	272.70	0	7.2280	0	37.5030	8	29.363	0	270.345	0	150.8	4	52.6	4	-1E+10	1	-1E+10	1	-1E+10	1	-1E+10	1	-1E+10	1	-1E+10	1
4901784	234	C	11/30/2021	10:50	-136.557	43.495	0	275.40	0	7.2030	0	37.5060	8	29.369	0	273.020	0	149.5	4	52.1	4	-1E+10	1	-1E+10	1	-1E+10	1	-1E+10	1	-1E+10	1	-1E+10	1
4901784	234	C	11/30/2021	10:50	-136.557	43.495	0	277.30	0	7.1610	0	37.5100	8	29.378	0	274.903	0	148.6	4	51.8	4	-1E+10	1	-1E+10	1	-1E+10	1	-1E+10	1	-1E+10	1	-1E+10	1
4901784	234	C	11/30/2021	10:50	-136.557	43.495	0	280.10	0	7.1580	0	37.5100	8	29.379	0	277.677	0	147.2	4	51.3	4	-1E+10	1	-1E+10	1	-1E+10	1	-1E+10	1	-1E+10	1	-1E+10	1
4901784	234	C	11/30/2021	10:50	-136.557	43.495	0	282.90	0	7.1300	0	37.5140	8	29.386	0	280.451	0	145.8	4	50.8	4	-1E+10	1	-1E+10	1	-1E+10	1	-1E+10	1	-1E+10	1	-1E+10	1
4901784	234	C	11/30/2021	10:50	-136.557	43.495	0	284.80	0	7.1170	0	37.5130	8	29.387	0	282.333	0	145.0	4	50.5	4	-1E+10	1	-1E+10	1	-1E+10	1	-1E+10	1	-1E+10	1	-1E+10	1
4901784	234	C	11/30/2021	10:50	-136.557	43.495	0	287.60	0	7.0690	0	37.5170	8	29.398	0	285.107	0	143.7	4	50.0	4	-1E+10	1	-1E+10	1	-1E+10	1	-1E+10	1	-1E+10	1	-1E+10	1
4901784	234	C	11/30/2021	10:50	-136.557	43.495	0	290.50	0	7.0450	0	37.5150	8	29.400	0	287.979	0	142.5	4	49.5	4	-1E+10	1	-1E+10	1	-1E+10	1	-1E+10	1	-1E+10	1	-1E+10	1
4901784	234	C	11/30/2021	10:50	-136.557	43.495	0	292.40	0	7.0040	0	37.5190	8	29.409	0	289.862	0	141.6	4	49.2	4	-1E+10	1	-1E+10	1	-1E+10	1	-1E+10	1	-1E+10	1	-1E+10	1
4901784	234	C	11/30/2021	10:50	-136.557	43.495	0	294.30	0	6.9610	0	37.5220	8	29.417	0	291.744	0	141.1	4	48.9	4	-1E+10	1	-1E+10	1	-1E+10	1	-1E+10	1	-1E+10	1	-1E+10	1
4901784	234	C	11/30/2021	10:50	-136.557	43.495	0	297.30	0	6.9340	0	37.5210	8	29.420	0	294.716	0	140.0	4	48.5	4	-1E+10	1	-1E+10	1	-1E+10	1	-1E+10	1	-1E+10	1	-1E+10	1
4901784	234	C	11/30/2021	10:50	-136.557	43.495	0	300.10	0	6.8940	0	37.5210	8	29.426	0	297.489	0	138.7	4	48.0	4	-1E+10	1	-1E+10	1	-1E+10	1	-1E+10	1	-1E+10	1	-1E+10	1
4901784	234	C	11/30/2021	10:50	-136.557	43.495	0	302.00	0	6.8710	0	37.5220	8	29.430	0	299.371	0	137.6	4	47.6	4	-1E+10	1	-1E+10	1	-1E+10	1	-1E+10	1	-1E+10	1	-1E+10	1
4901784	234	C	11/30/2021	10:50	-136.557	43.495	0	304.80	0	6.8130	0	37.5260	8	29.442	0	302.145	0	135.7	4	46.9	4	-1E+10	1	-1E+10	1	-1E+10	1	-1E+10	1	-1E+10	1	-1E+10	1
4901784	234	C	11/30/2021	10:50	-136.557	43.495	0	307.70	0	6.7630	0	37.5290	8	29.451	0	305.018	0	134.3	4	46.4	4	-1E+10	1	-1E+10	1	-1E+10	1	-1E+10	1	-1E+10	1	-1E+10	1
4901784	234	C	11/30/2021	10:50	-136.557	43.495	0	309.50	0	6.7550	0	37.5260	8	29.450	0	306.800	0	133.3	4	46.0	4	-1E+10	1	-1E+10	1	-1E+10	1	-1E+10	1	-1E+10	1	-1E+10	1
4901784	234	C	11/30/2021	10:50	-136.557	43.495	0	312.40	0	6.6760	0	37.5330	8	29.467	0	309.673	0	131.9	4	45.5	4	-1E+10	1	-1E+10	1	-1E+10	1	-1E+10	1	-1E+10	1	-1E+10	1
4901784	234	C	11/30/2021	10:50	-136.557	43.495	0	315.30	0	6.6440	0	37.5340	8	29.472	0	312.546	0	131.2	4	45.2	4	-1E+10	1	-1E+10	1	-1E+10	1	-1E+10	1	-1E+10	1	-1E+10	1
4901784	234	C	11/30/2021	10:50	-136.557	43.495	0	317.10	0	6.6320	0	37.5310	8	29.472	0	314.328	0	130.6	4	45.0	4	-1E+10	1	-1E+10	1	-1E+10	1	-1E+10	1	-1E+10	1	-1E+10	1
4901784	234	C	11/30/2021	10:50	-136.557	43.495	0	319.60	0	6.5690	0	37.5370	8	29.485	0	316.805	0	130.0	4	44.7	4	-1E+10	1	-1E+10	1	-1E+10	1	-1E+10	1	-1E+10	1	-1E+10	1
4901784	234	C	11/30/2021	10:50	-136.557	43.495	0	322.40	0	6.5390	0	37.5400	8	29.492	0	319.578	0	129.5	4	44.5	4	-1E+10	1	-1E+10	1	-1E+10	1	-1E+10	1	-1E+10	1	-1E+10	1
4901784	234	C	11/30/2021	10:50	-136.557	43.495	0	324.90	0	6.5270	0	37.5410	8	29.494	0	322.054	0	129.1	4	44.3	4	-1E+10	1	-1E+10	1	-1E+10	1	-1E+10	1	-1E+10	1	-1E+10	1
4901784	234	C	11/30/2021	10:50	-136.557	43.495	0	327.40	0	6.5140	0	37.5410	8	29.496	0	324.530	0	128.6	4	44.2	4	-1E+10	1	-1E+10	1	-1E+10	1	-1E+10	1	-1E+10	1	-1E+10	1
4901784	234	C	11/30/2021	10:50	-136.557	43.495	0	329.80	0	6.5020	0	37.5420	8	29.499	0	326.907	0	128.2	4	44.0	4	-1E+10	1	-1E+10	1	-1E+10	1	-1E+10	1	-1E+10	1	-1E+10	1
4901784	234	C	11/30/2021	10:50	-136.557	43.495	0	332.20	0	6.4920	0	37.5410	8	29.499	0	329.284	0	127.6	4	43.8	4	-1E+10	1	-1E+10	1	-1E+10	1	-1E+10	1	-1E+10	1	-1E+10	1
4901784	234	C	11/30/2021	10:50	-136.557	43.495	0	334.60	0	6.4680	0	37.5420	8	29.504	0	331.661	0	126.9	4	43.5	4	-1E+10	1	-1E+10	1	-1E+10	1	-1E+10	1	-1E+10	1	-1E+10	1
4901784	234	C	11/30/2021	10:50	-136.557	43.495	0	337.10	0	6.4620	0	37.5410	8	29.504	0	334.138	0	125.8	4	43.2	4	-1E+10	1	-1E+10	1	-1E+10	1	-1E+10	1	-1E+10	1	-1E+10	1
4901784	234	C	11/30/2021	10:50	-136.557	43.495	0	340.30	0	6.4230	0	37.5410	8	29.509	0	337.307	0	123.7	4	42.4	4	-1E+10	1	-1E+10	1	-1E+10	1	-1E+10	1	-1E+10	1	-1E+10	1
4901784	234	C	11/30/2021	10:50	-136.557	43.495	0	342.80	0	6.3720	0	37.5450	8	29.519	0	339.783	0	122.1	4	41.8	4	-1E+10	1	-1E+10	1	-1E+10	1	-1E+10	1	-1E+10	1	-1E+10	1
4901784	234	C	11/30/2021	10:50	-136.557	43.495	0	345.30	0	6.3470	0	37.5450	8	29.523	0	342.259	0	120.9	4	41.4	4	-1E+10	1	-1E+10	1	-1E+10	1	-1E+10	1	-1E+10	1	-1E+10	1
4901784	234	C	11/30/2021	10:50	-136.557	43.495	0	347.80	0	6.3150	0	37.5450	8	29.527	0	344.735	0	119.5	4	40.8	4	-1E+10	1	-1E+10	1	-1E+10	1	-1E+10	1	-1E+10	1	-1E+10	1
4901784	234	C	11/30/2021	10:50	-136.557	43.495	0	350.20	0	6.2770	0	37.5460	8	29.533	0	347.111	0	118.0	4	40.3	4	-1E+10	1	-1E+10	1	-1E+10	1	-1E+10	1	-1E+10	1	-1E+10	1
4901784	234	C	11/30/2021	10:50	-136.557	43.495	0	352.60	0	6.2190	0	37.5490	8	29.544	0	349.488	0	116.5	4	39.7	4	-1E+10	1	-1E+10	1	-1E+10	1	-1E+10	1	-1E+10	1	-1E+10	1
4901784	234	C	11/30/2021	10:50	-136.557	43.495	0	355.10	0	6.1720	0	37.5510	8	29.552	0	351.964	0	115.3	4	39.3	4	-1E+10	1	-1E+10	1	-1E+10	1	-1E+10	1	-1E+10	1	-1E+10	1
4901784	234	C	11/30/2021	10:50	-136.557	43.495	0	357.60	0	6.1410	0	37.5530	8	29.557	0	354.440	0	114.2	4	38.9	4	-1E+10	1	-1E+10	1	-1E+10	1	-1E+10	1	-1E+10	1	-1E+10	1
4901784	234	C	11/30/2021	10:50	-136.557	43.495	0	360.20	0	6.1160	0	37.5530	8	29.561	0	357.015	0	112.7	4	38.4	4	-1E+10	1	-1E+10	1	-1E+10	1	-1E+10	1	-1E+10	1	-1E+10	1
4901784	234	C	11/30/2021	10:50	-136.557	43.495	0	362.70	0	6.0720	0	37.5540	8	29.568	0	359.490	0	111.3	4	37.8	4	-1E+10	1	-1E+10	1	-1E+10	1	-1E+10	1	-1E+10	1	-1E+10	1
4901784	234	C	11/30/2021	10:50	-136.557	43.495	0	365.20	0	6.0350	0	37.5570	8	29.575	0	361.966	0	110.1	4	37.4	4	-1E+10	1	-1E+10	1	-1E+10	1	-1E+10	1	-1E+10	1	-1E+10	1
4901784	234	C	11/30/2021	10:50	-136.557	43.495	0	367.70	0	6.0130	0	37.5580	8	29.579	0	364.442	0	109.0	4	37.0	4	-1E+10	1	-1E+10	1	-1E+10	1	-1E+10	1	-1E+10	1	-1E+10	1
4901784	234	C	11/30/2021	10:50	-136.557	43.495	0	370.30	0	5.9820	0	37.5600	8	29.585	0	367.016	0	107.6	4	36.5	4	-1E+10	1	-1E+10	1	-1E+10	1	-1E+10	1	-1E+10	1	-1E+10	1
4901784	234	C	11/30/2021	10:50	-136.557	43.495	0	372.80	0	5.9510	0	37.5620	8	29.590	0	369.492	0	106.4	4	36.1	4	-1E+10	1	-1E+10	1	-1E+10	1	-1E+10	1	-1E+10	1	-1E+10	1
4901784	234	C	11/30/2021	10:50	-136.557	43.495	0	375.30	0	5.9200	0	37.5630	8	29.595	0	371.968	0	105.0	4	35.6	4	-1E+10	1	-1E+10	1	-1E+10	1	-1E+10	1	-1E+10	1	-1E+10	1
4901784	234	C	11/30/2021	10:50	-136.557	43.495	0	377.90	0	5.8810	0	37.5650	8	29.602	0	374.542	0	103.7	4	35.1	4	-1E+10	1	-1E+10	1	-1E+10	1	-1E+10	1	-1E+10	1	-1E+10	1
4901784	234	C	11/30/2021	10:50	-136.557	43.495	0	379.60	0	5.8620	0	37.5640	8	29.604	0	376.225	0	103.0	4	34.9	4	-1E+10	1	-1E+10	1	-1E+10	1	-1E+10	1	-1E+10	1	-1E+10	1
4901784	234	C	11/30/2021	10:50	-136.557	43.495	0	382.20	0	5.8220	0	37.5660	8	29.611	0	378.800	0	101.8	4	34.4	4	-1E+10	1	-1E+10	1	-1E+10	1	-1E+10	1	-1E+10	1	-1E+10	1
4901784	234	C	11/30/2021	10:50	-136.557	43.495	0	384.90	0	5.8000	0	37.5670	8	29.614	0	381.473	0	100.7	4	34.0	4	-1E+10	1	-1E+10	1	-1E+10	1	-1E+10	1	-1E+10	1	-1E+10	1
4901784	234	C	11/30/2021	10:50	-136.557	43.495	0	387.50	0	5.7630	0	37.5700	8	29.622	0	384.048	0	99.5	4	33.6	4	-1E+10	1	-1E+10	1	-1E+10	1	-1E+10	1	-1E+10	1	-1E+10	1
4901784	234	C	11/30/2021	10:50	-136.557	43.495	0	390.30	0	5.7460	0	37.5700	8	29.624	0	386.820	0	98.5	4	33.3	4	-1E+10	1	-1E+10	1	-1E+10	1	-1E+10	1	-1E+10	1	-1E+10	1
4901784	234	C	11/30/2021	10:50	-136.557	43.495	0	392.00	0	5.7230	0	37.5710	8	29.628	0	388.504	0	97.7	4	33.0	4	-1E+10	1	-1E+10	1	-1E+10	1	-1E+10	1	-1E+10	1	-1E+10	1
4901784	234	C	11/30/2021	10:50	-136.557	43.495	0	394.70	0	5.6900	0	37.5760	8	29.636	0	391.177	0	96.9	4	32.7	4	-1E+10	1	-1E+10	1	-1E+10	1	-1E+10	1	-1E+10	1	-1E+10	1
4901784	234	C	11/30/2021	10:50	-136.557	43.495	0	397.40	0	5.6860	0	37.5740	8	29.635	0	393.850	0	96.0	4	32.4	4	-1E+10	1	-1E+10	1	-1E+10	1	-1E+10	1	-1E+10	1	-1E+10	1
4901784	234	C	11/30/2021	10:50	-136.557	43.495	0	400.00	0	5.6650	0	37.5750	8	29.639	0	396.425	0	94.7	4	31.9	4	-1E+10	1	-1E+10	1	-1E+10	1	-1E+10	1	-1E+10	1	-1E+10	1
4901784	234	C	11/30/2021	10:50	-136.557	43.495	0	402.80	0	5.6260	0	37.5770	8	29.645	0	399.197	0	93.3	4	31.4	4	-1E+10	1	-1E+10	1	-1E+10	1	-1E+10	1	-1E+10	1	-1E+10	1
4901784	234	C	11/30/2021	10:50	-136.557	43.495	0	404.60	0	5.5990	0	37.5800	8	29.651	0	400.979	0	92.5	4	31.1	4	-1E+10	1	-1E+10	1	-1E+10	1	-1E+10	1	-1E+10	1	-1E+10	1
4901784	234	C	11/30/2021	10:50	-136.557	43.495	0	407.40	0	5.5580	0	37.5830	8	29.659	0	403.751	0	91.4	4	30.7	4	-1E+10	1	-1E+10	1	-1E+10	1	-1E+10	1	-1E+10	1	-1E+10	1
4901784	234	C	11/30/2021	10:50	-136.557	43.495	0	410.10	0	5.5300	0	37.5850	8	29.664	0	406.424	0	90.4	4	30.4	4	-1E+10	1	-1E+10	1	-1E+10	1	-1E+10	1	-1E+10	1	-1E+10	1
4901784	234	C	11/30/2021	10:50	-136.557	43.495	0	412.80	0	5.5030	0	37.5860	8	29.668	0	409.098	0	89.4	4	30.0	4	-1E+10	1	-1E+10	1	-1E+10	1	-1E+10	1	-1E+10	1	-1E+10	1
4901784	234	C	11/30/2021	10:50	-136.557	43.495	0	415.60	0	5.4820	0	37.5870	8	29.672	0	411.870	0	88.5	4	29.7	4	-1E+10	1	-1E+10	1	-1E+10	1	-1E+10	1	-1E+10	1	-1E+10	1
4901784	234	C	11/30/2021	10:50	-136.557	43.495	0	417.40	0	5.4750	0	37.5870	8	29.673	0	413.652	0	87.8	4	29.5	4	-1E+10	1	-1E+10	1	-1E+10	1	-1E+10	1	-1E+10	1	-1E+10	1
4901784	234	C	11/30/2021	10:50	-136.557	43.495	0	420.10	0	5.4380	0	37.5880	8	29.678	0	416.325	0	86.5	4	29.0	4	-1E+10	1	-1E+10	1	-1E+10	1	-1E+10	1	-1E+10	1	-1E+10	1
4901784	234	C	11/30/2021	10:50	-136.557	43.495	0	422.80	0	5.3850	0	37.5930	8	29.689	0	418.998	0	85.4	4	28.6	4	-1E+10	1	-1E+10	1	-1E+10	1	-1E+10	1	-1E+10	1	-1E+10	1
4901784	234	C	11/30/2021	10:50	-136.557	43.495	0	424.60	0	5.3590	0	37.5960	8	29.695	0	420.780	0	84.9	4	28.4	4	-1E+10	1	-1E+10	1	-1E+10	1	-1E+10	1	-1E+10	1	-1E+10	1
4901784	234	C	11/30/2021	10:50	-136.557	43.495	0	427.40	0	5.3440	0	37.5950	8	29.696	0	423.552	0	84.1	4	28.1	4	-1E+10	1	-1E+10	1	-1E+10	1	-1E+10	1	-1E+10	1	-1E+10	1
4901784	234	C	11/30/2021	10:50	-136.557	43.495	0	430.10	0	5.3250	0	37.5950	8	29.698	0	426.225	0	83.0	4	27.8	4	-1E+10	1	-1E+10	1	-1E+10	1	-1E+10	1	-1E+10	1	-1E+10	1
4901784	234	C	11/30/2021	10:50	-136.557	43.495	0	432.10	0	5.2910	0	37.6000	8	29.707	0	428.205	0	82.3	4	27.5	4	-1E+10	1	-1E+10	1	-1E+10	1	-1E+10	1	-1E+10	1	-1E+10	1
4901784	234	C	11/30/2021	10:50	-136.557	43.495	0	434.80	0	5.2700	0	37.6020	8	29.711	0	430.877	0	81.3	4	27.1	4	-1E+10	1	-1E+10	1	-1E+10	1	-1E+10	1	-1E+10	1	-1E+10	1
4901784	234	C	11/30/2021	10:50	-136.557	43.495	0	437.60	0	5.2480	0	37.6040	8	29.715	0	433.649	0	80.3	4	26.8	4	-1E+10	1	-1E+10	1	-1E+10	1	-1E+10	1	-1E+10	1	-1E+10	1
4901784	234	C	11/30/2021	10:50	-136.557	43.495	0	439.50	0	5.2410	0	37.6030	8	29.715	0	435.530	0	79.5	4	26.5	4	-1E+10	1	-1E+10	1	-1E+10	1	-1E+10	1	-1E+10	1	-1E+10	1
4901784	234	C	11/30/2021	10:50	-136.557	43.495	0	442.40	0	5.2040	0	37.6090	8	29.725	0	438.401	0	78.4	4	26.1	4	-1E+10	1	-1E+10	1	-1E+10	1	-1E+10	1	-1E+10	1	-1E+10	1
4901784	234	C	11/30/2021	10:50	-136.557	43.495	0	445.70	0	5.1750	0	37.6130	8	29.732	0	441.668	0	77.3	4	25.8	4	-1E+10	1	-1E+10	1	-1E+10	1	-1E+10	1	-1E+10	1	-1E+10	1
4901784	234	C	11/30/2021	10:50	-136.557	43.495	0	447.60	0	5.1510	0	37.6160	8	29.737	0	443.548	0	76.6	4	25.5	4	-1E+10	1	-1E+10	1	-1E+10	1	-1E+10	1	-1E+10	1	-1E+10	1
4901784	234	C	11/30/2021	10:50	-136.557	43.495	0	450.00	0	5.1260	0	37.6200	8	29.743	0	445.924	0	75.7	4	25.2	4	-1E+10	1	-1E+10	1	-1E+10	1	-1E+10	1	-1E+10	1	-1E+10	1
4901784	234	C	11/30/2021	10:50	-136.557	43.495	0	452.40	0	5.0990	0	37.6240	8	29.750	0	448.300	0	74.7	4	24.8	4	-1E+10	1	-1E+10	1	-1E+10	1	-1E+10	1	-1E+10	1	-1E+10	1
4901784	234	C	11/30/2021	10:50	-136.557	43.495	0	454.80	0	5.0810	0	37.6250	8	29.753	0	450.675	0	73.8	4	24.5	4	-1E+10	1	-1E+10	1	-1E+10	1	-1E+10	1	-1E+10	1	-1E+10	1
4901784	234	C	11/30/2021	10:50	-136.557	43.495	0	457.20	0	5.0610	0	37.6270	8	29.757	0	453.051	0	73.0	4	24.3	4	-1E+10	1	-1E+10	1	-1E+10	1	-1E+10	1	-1E+10	1	-1E+10	1
4901784	234	C	11/30/2021	10:50	-136.557	43.495	0	459.70	0	5.0470	0	37.6280	8	29.760	0	455.526	0	72.3	4	24.0	4	-1E+10	1	-1E+10	1	-1E+10	1	-1E+10	1	-1E+10	1	-1E+10	1
4901784	234	C	11/30/2021	10:50	-136.557	43.495	0	462.10	0	5.0220	0	37.6300	8	29.764	0	457.901	0	71.4	4	23.7	4	-1E+10	1	-1E+10	1	-1E+10	1	-1E+10	1	-1E+10	1	-1E+10	1
4901784	234	C	11/30/2021	10:50	-136.557	43.495	0	464.60	0	5.0010	0	37.6350	8	29.771	0	460.376	0	70.8	4	23.5	4	-1E+10	1	-1E+10	1	-1E+10	1	-1E+10	1	-1E+10	1	-1E+10	1
4901784	234	C	11/30/2021	10:50	-136.557	43.495	0	467.80	0	4.9860	0	37.6370	8	29.774	0	463.543	0	69.9	4	23.2	4	-1E+10	1	-1E+10	1	-1E+10	1	-1E+10	1	-1E+10	1	-1E+10	1
4901784	234	C	11/30/2021	10:50	-136.557	43.495	0	470.30	0	4.9690	0	37.6390	8	29.778	0	466.017	0	69.1	4	22.9	4	-1E+10	1	-1E+10	1	-1E+10	1	-1E+10	1	-1E+10	1	-1E+10	1
4901784	234	C	11/30/2021	10:50	-136.557	43.495	0	472.80	0	4.9530	0	37.6400	8	29.781	0	468.492	0	68.4	4	22.7	4	-1E+10	1	-1E+10	1	-1E+10	1	-1E+10	1	-1E+10	1	-1E+10	1
4901784	234	C	11/30/2021	10:50	-136.557	43.495	0	475.30	0	4.9310	0	37.6440	8	29.787	0	470.966	0	67.8	4	22.5	4	-1E+10	1	-1E+10	1	-1E+10	1	-1E+10	1	-1E+10	1	-1E+10	1
4901784	234	C	11/30/2021	10:50	-136.557	43.495	0	477.70	0	4.9170	0	37.6440	8	29.788	0	473.342	0	67.2	4	22.3	4	-1E+10	1	-1E+10	1	-1E+10	1	-1E+10	1	-1E+10	1	-1E+10	1
4901784	234	C	11/30/2021	10:50	-136.557	43.495	0	480.20	0	4.8880	0	37.6480	8	29.795	0	475.816	0	66.6	4	22.0	4	-1E+10	1	-1E+10	1	-1E+10	1	-1E+10	1	-1E+10	1	-1E+10	1
4901784	234	C	11/30/2021	10:50	-136.557	43.495	0	482.70	0	4.8690	0	37.6520	8	29.801	0	478.290	0	65.7	4	21.7	4	-1E+10	1	-1E+10	1	-1E+10	1	-1E+10	1	-1E+10	1	-1E+10	1
4901784	234	C	11/30/2021	10:50	-136.557	43.495	0	485.20	0	4.8570	0	37.6530	8	29.803	0	480.764	0	65.3	4	21.6	4	-1E+10	1	-1E+10	1	-1E+10	1	-1E+10	1	-1E+10	1	-1E+10	1
4901784	234	C	11/30/2021	10:50	-136.557	43.495	0	487.70	0	4.8420	0	37.6570	8	29.808	0	483.239	0	65.5	4	21.6	4	-1E+10	1	-1E+10	1	-1E+10	1	-1E+10	1	-1E+10	1	-1E+10	1
4901784	234	C	11/30/2021	10:50	-136.557	43.495	0	490.20	0	4.8360	0	37.6570	8	29.809	0	485.713	0	65.3	4	21.6	4	-1E+10	1	-1E+10	1	-1E+10	1	-1E+10	1	-1E+10	1	-1E+10	1
4901784	234	C	11/30/2021	10:50	-136.557	43.495	0	492.70	0	4.8300	0	37.6580	8	29.810	0	488.187	0	64.6	4	21.4	4	-1E+10	1	-1E+10	1	-1E+10	1	-1E+10	1	-1E+10	1	-1E+10	1
4901784	234	C	11/30/2021	10:50	-136.557	43.495	0	495.20	0	4.8100	0	37.6610	8	29.815	0	490.661	0	63.9	4	21.1	4	-1E+10	1	-1E+10	1	-1E+10	1	-1E+10	1	-1E+10	1	-1E+10	1
4901784	234	C	11/30/2021	10:50	-136.557	43.495	0	497.70	0	4.7980	0	37.6640	8	29.819	0	493.135	0	63.4	4	21.0	4	-1E+10	1	-1E+10	1	-1E+10	1	-1E+10	1	-1E+10	1	-1E+10	1
4901784	234	C	11/30/2021	10:50	-136.557	43.495	0	500.30	0	4.7960	0	37.6650	8	29.820	0	495.708	0	63.2	4	20.9	4	-1E+10	1	-1E+10	1	-1E+10	1	-1E+10	1	-1E+10	1	-1E+10	1
4901784	234	C	11/30/2021	10:50	-136.557	43.495	0	505.30	0	4.7890	0	37.6660	8	29.822	0	500.656	0	62.0	4	20.5	4	-1E+10	1	-1E+10	1	-1E+10	1	-1E+10	1	-1E+10	1	-1E+10	1
4901784	234	C	11/30/2021	10:50	-136.557	43.495	0	510.40	0	4.7600	0	37.6720	8	29.830	0	505.703	0	60.0	4	19.8	4	-1E+10	1	-1E+10	1	-1E+10	1	-1E+10	1	-1E+10	1	-1E+10	1
4901784	234	C	11/30/2021	10:50	-136.557	43.495	0	515.50	0	4.7430	0	37.6750	8	29.835	0	510.750	0	58.5	4	19.3	4	-1E+10	1	-1E+10	1	-1E+10	1	-1E+10	1	-1E+10	1	-1E+10	1
4901784	234	C	11/30/2021	10:50	-136.557	43.495	0	520.60	0	4.6980	0	37.6850	8	29.848	0	515.797	0	57.6	4	19.0	4	-1E+10	1	-1E+10	1	-1E+10	1	-1E+10	1	-1E+10	1	-1E+10	1
4901784	234	C	11/30/2021	10:50	-136.557	43.495	0	524.90	0	4.6820	0	37.6880	8	29.852	0	520.052	0	57.0	4	18.8	4	-1E+10	1	-1E+10	1	-1E+10	1	-1E+10	1	-1E+10	1	-1E+10	1
4901784	234	C	11/30/2021	10:50	-136.557	43.495	0	529.20	0	4.6660	0	37.6910	8	29.857	0	524.307	0	56.4	4	18.6	4	-1E+10	1	-1E+10	1	-1E+10	1	-1E+10	1	-1E+10	1	-1E+10	1
4901784	234	C	11/30/2021	10:50	-136.557	43.495	0	534.40	0	4.6400	0	37.6960	8	29.864	0	529.452	0	55.1	4	18.2	4	-1E+10	1	-1E+10	1	-1E+10	1	-1E+10	1	-1E+10	1	-1E+10	1
4901784	234	C	11/30/2021	10:50	-136.557	43.495	0	539.60	0	4.6130	0	37.7030	8	29.873	0	534.597	0	54.8	4	18.0	4	-1E+10	1	-1E+10	1	-1E+10	1	-1E+10	1	-1E+10	1	-1E+10	1
4901784	234	C	11/30/2021	10:50	-136.557	43.495	0	544.70	0	4.5980	0	37.7040	8	29.875	0	539.643	0	54.3	4	17.8	4	-1E+10	1	-1E+10	1	-1E+10	1	-1E+10	1	-1E+10	1	-1E+10	1
4901784	234	C	11/30/2021	10:50	-136.557	43.495	0	549.90	0	4.5810	0	37.7090	8	29.881	0	544.788	0	52.7	4	17.3	4	-1E+10	1	-1E+10	1	-1E+10	1	-1E+10	1	-1E+10	1	-1E+10	1
4901784	234	C	11/30/2021	10:50	-136.557	43.495	0	555.00	0	4.5670	0	37.7150	8	29.888	0	549.834	0	50.7	4	16.7	4	-1E+10	1	-1E+10	1	-1E+10	1	-1E+10	1	-1E+10	1	-1E+10	1
4901784	234	C	11/30/2021	10:50	-136.557	43.495	0	560.20	0	4.5510	0	37.7200	8	29.894	0	554.979	0	49.5	4	16.3	4	-1E+10	1	-1E+10	1	-1E+10	1	-1E+10	1	-1E+10	1	-1E+10	1
4901784	234	C	11/30/2021	10:50	-136.557	43.495	0	565.40	0	4.5360	0	37.7240	8	29.899	0	560.123	0	48.4	4	15.9	4	-1E+10	1	-1E+10	1	-1E+10	1	-1E+10	1	-1E+10	1	-1E+10	1
4901784	234	C	11/30/2021	10:50	-136.557	43.495	0	570.60	0	4.5200	0	37.7280	8	29.904	0	565.268	0	47.3	4	15.5	4	-1E+10	1	-1E+10	1	-1E+10	1	-1E+10	1	-1E+10	1	-1E+10	1
4901784	234	C	11/30/2021	10:50	-136.557	43.495	0	575.00	0	4.5010	0	37.7330	8	29.910	0	569.621	0	46.2	4	15.2	4	-1E+10	1	-1E+10	1	-1E+10	1	-1E+10	1	-1E+10	1	-1E+10	1
4901784	234	C	11/30/2021	10:50	-136.557	43.495	0	579.40	0	4.4730	0	37.7410	8	29.920	0	573.973	0	44.8	4	14.7	4	-1E+10	1	-1E+10	1	-1E+10	1	-1E+10	1	-1E+10	1	-1E+10	1
4901784	234	C	11/30/2021	10:50	-136.557	43.495	0	584.80	0	4.4610	0	37.7450	8	29.924	0	579.315	0	42.7	4	14.0	4	-1E+10	1	-1E+10	1	-1E+10	1	-1E+10	1	-1E+10	1	-1E+10	1
4901784	234	C	11/30/2021	10:50	-136.557	43.495	0	590.30	0	4.4350	0	37.7530	8	29.934	0	584.756	0	39.8	4	13.0	4	-1E+10	1	-1E+10	1	-1E+10	1	-1E+10	1	-1E+10	1	-1E+10	1
4901784	234	C	11/30/2021	10:50	-136.557	43.495	0	595.70	0	4.4060	0	37.7690	8	29.950	0	590.098	0	36.8	4	12.1	4	-1E+10	1	-1E+10	1	-1E+10	1	-1E+10	1	-1E+10	1	-1E+10	1
4901784	234	C	11/30/2021	10:50	-136.557	43.495	0	600.10	0	4.3870	0	37.7780	8	29.959	0	594.450	0	35.3	4	11.5	4	-1E+10	1	-1E+10	1	-1E+10	1	-1E+10	1	-1E+10	1	-1E+10	1
4901784	234	C	11/30/2021	10:50	-136.557	43.495	0	604.70	0	4.3630	0	37.7850	8	29.968	0	599.000	0	33.8	4	11.1	4	-1E+10	1	-1E+10	1	-1E+10	1	-1E+10	1	-1E+10	1	-1E+10	1
4901784	234	C	11/30/2021	10:50	-136.557	43.495	0	610.20	0	4.3630	0	37.7960	8	29.976	0	604.440	0	31.6	4	10.3	4	-1E+10	1	-1E+10	1	-1E+10	1	-1E+10	1	-1E+10	1	-1E+10	1
4901784	234	C	11/30/2021	10:50	-136.557	43.495	0	614.80	0	4.3570	0	37.8000	8	29.980	0	608.990	0	30.9	4	10.1	4	-1E+10	1	-1E+10	1	-1E+10	1	-1E+10	1	-1E+10	1	-1E+10	1
4901784	234	C	11/30/2021	10:50	-136.557	43.495	0	619.50	0	4.3430	0	37.8040	8	29.985	0	613.639	0	30.0	4	9.8	4	-1E+10	1	-1E+10	1	-1E+10	1	-1E+10	1	-1E+10	1	-1E+10	1
4901784	234	C	11/30/2021	10:50	-136.557	43.495	0	625.00	0	4.3200	0	37.8130	8	29.995	0	619.078	0	28.6	4	9.3	4	-1E+10	1	-1E+10	1	-1E+10	1	-1E+10	1	-1E+10	1	-1E+10	1
4901784	234	C	11/30/2021	10:50	-136.557	43.495	0	630.50	0	4.3190	0	37.8180	8	29.999	0	624.518	0	27.4	4	9.0	4	-1E+10	1	-1E+10	1	-1E+10	1	-1E+10	1	-1E+10	1	-1E+10	1
4901784	234	C	11/30/2021	10:50	-136.557	43.495	0	635.20	0	4.3110	0	37.8240	8	30.005	0	629.166	0	26.5	4	8.7	4	-1E+10	1	-1E+10	1	-1E+10	1	-1E+10	1	-1E+10	1	-1E+10	1
4901784	234	C	11/30/2021	10:50	-136.557	43.495	0	639.90	0	4.2990	0	37.8290	8	30.010	0	633.815	0	25.9	4	8.5	4	-1E+10	1	-1E+10	1	-1E+10	1	-1E+10	1	-1E+10	1	-1E+10	1
4901784	234	C	11/30/2021	10:50	-136.557	43.495	0	645.60	0	4.2820	0	37.8360	8	30.018	0	639.452	0	25.3	4	8.3	4	-1E+10	1	-1E+10	1	-1E+10	1	-1E+10	1	-1E+10	1	-1E+10	1
4901784	234	C	11/30/2021	10:50	-136.557	43.495	0	650.40	0	4.2780	0	37.8370	8	30.019	0	644.199	0	24.7	4	8.1	4	-1E+10	1	-1E+10	1	-1E+10	1	-1E+10	1	-1E+10	1	-1E+10	1
4901784	234	C	11/30/2021	10:50	-136.557	43.495	0	655.20	0	4.2690	0	37.8420	8	30.024	0	648.945	0	23.8	4	7.8	4	-1E+10	1	-1E+10	1	-1E+10	1	-1E+10	1	-1E+10	1	-1E+10	1
4901784	234	C	11/30/2021	10:50	-136.557	43.495	0	660.00	0	4.2510	0	37.8500	8	30.033	0	653.692	0	23.1	4	7.5	4	-1E+10	1	-1E+10	1	-1E+10	1	-1E+10	1	-1E+10	1	-1E+10	1
4901784	234	C	11/30/2021	10:50	-136.557	43.495	0	664.80	0	4.2340	0	37.8550	8	30.039	0	658.438	0	22.6	4	7.4	4	-1E+10	1	-1E+10	1	-1E+10	1	-1E+10	1	-1E+10	1	-1E+10	1
4901784	234	C	11/30/2021	10:50	-136.557	43.495	0	669.70	0	4.2140	0	37.8600	8	30.045	0	663.284	0	22.1	4	7.2	4	-1E+10	1	-1E+10	1	-1E+10	1	-1E+10	1	-1E+10	1	-1E+10	1
4901784	234	C	11/30/2021	10:50	-136.557	43.495	0	674.40	0	4.2010	0	37.8650	8	30.051	0	667.931	0	21.5	4	7.0	4	-1E+10	1	-1E+10	1	-1E+10	1	-1E+10	1	-1E+10	1	-1E+10	1
4901784	234	C	11/30/2021	10:50	-136.557	43.495	0	680.20	0	4.1940	0	37.8720	8	30.057	0	673.666	0	20.5	4	6.7	4	-1E+10	1	-1E+10	1	-1E+10	1	-1E+10	1	-1E+10	1	-1E+10	1
4901784	234	C	11/30/2021	10:50	-136.557	43.495	0	685.60	0	4.1870	0	37.8790	8	30.063	0	679.006	0	19.8	4	6.4	4	-1E+10	1	-1E+10	1	-1E+10	1	-1E+10	1	-1E+10	1	-1E+10	1
4901784	234	C	11/30/2021	10:50	-136.557	43.495	0	690.50	0	4.1740	0	37.8850	8	30.070	0	683.850	0	19.2	4	6.3	4	-1E+10	1	-1E+10	1	-1E+10	1	-1E+10	1	-1E+10	1	-1E+10	1
4901784	234	C	11/30/2021	10:50	-136.557	43.495	0	695.50	0	4.1680	0	37.8900	8	30.074	0	688.794	0	18.6	4	6.1	4	-1E+10	1	-1E+10	1	-1E+10	1	-1E+10	1	-1E+10	1	-1E+10	1
4901784	234	C	11/30/2021	10:50	-136.557	43.495	0	700.40	0	4.1590	0	37.8950	8	30.080	0	693.639	0	18.0	4	5.9	4	-1E+10	1	-1E+10	1	-1E+10	1	-1E+10	1	-1E+10	1	-1E+10	1
4901784	234	C	11/30/2021	10:50	-136.557	43.495	0	705.40	0	4.1490	0	37.9030	8	30.087	0	698.582	0	17.4	4	5.7	4	-1E+10	1	-1E+10	1	-1E+10	1	-1E+10	1	-1E+10	1	-1E+10	1
4901784	234	C	11/30/2021	10:50	-136.557	43.495	0	710.30	0	4.1410	0	37.9100	8	30.094	0	703.426	0	16.9	4	5.5	4	-1E+10	1	-1E+10	1	-1E+10	1	-1E+10	1	-1E+10	1	-1E+10	1
4901784	234	C	11/30/2021	10:50	-136.557	43.495	0	715.20	0	4.1270	0	37.9130	8	30.098	0	708.271	0	16.7	4	5.5	4	-1E+10	1	-1E+10	1	-1E+10	1	-1E+10	1	-1E+10	1	-1E+10	1
4901784	234	C	11/30/2021	10:50	-136.557	43.495	0	720.10	0	4.1150	0	37.9170	8	30.102	0	713.115	0	16.3	4	5.3	4	-1E+10	1	-1E+10	1	-1E+10	1	-1E+10	1	-1E+10	1	-1E+10	1
4901784	234	C	11/30/2021	10:50	-136.557	43.495	0	725.10	0	4.1150	0	37.9220	8	30.106	0	718.058	0	15.7	4	5.1	4	-1E+10	1	-1E+10	1	-1E+10	1	-1E+10	1	-1E+10	1	-1E+10	1
4901784	234	C	11/30/2021	10:50	-136.557	43.495	0	730.10	0	4.1030	0	37.9300	8	30.114	0	723.000	0	15.3	4	5.0	4	-1E+10	1	-1E+10	1	-1E+10	1	-1E+10	1	-1E+10	1	-1E+10	1
4901784	234	C	11/30/2021	10:50	-136.557	43.495	0	735.00	0	4.0940	0	37.9330	8	30.117	0	727.844	0	15.1	4	4.9	4	-1E+10	1	-1E+10	1	-1E+10	1	-1E+10	1	-1E+10	1	-1E+10	1
4901784	234	C	11/30/2021	10:50	-136.557	43.495	0	740.00	0	4.0860	0	37.9370	8	30.122	0	732.787	0	14.8	4	4.8	4	-1E+10	1	-1E+10	1	-1E+10	1	-1E+10	1	-1E+10	1	-1E+10	1
4901784	234	C	11/30/2021	10:50	-136.557	43.495	0	744.90	0	4.0760	0	37.9410	8	30.126	0	737.630	0	14.6	4	4.8	4	-1E+10	1	-1E+10	1	-1E+10	1	-1E+10	1	-1E+10	1	-1E+10	1
4901784	234	C	11/30/2021	10:50	-136.557	43.495	0	749.80	0	4.0650	0	37.9450	8	30.130	0	742.474	0	14.3	4	4.7	4	-1E+10	1	-1E+10	1	-1E+10	1	-1E+10	1	-1E+10	1	-1E+10	1
4901784	234	C	11/30/2021	10:50	-136.557	43.495	0	754.70	0	4.0600	0	37.9500	8	30.135	0	747.317	0	14.0	4	4.6	4	-1E+10	1	-1E+10	1	-1E+10	1	-1E+10	1	-1E+10	1	-1E+10	1
4901784	234	C	11/30/2021	10:50	-136.557	43.495	0	759.70	0	4.0470	0	37.9550	8	30.141	0	752.259	0	13.9	4	4.5	4	-1E+10	1	-1E+10	1	-1E+10	1	-1E+10	1	-1E+10	1	-1E+10	1
4901784	234	C	11/30/2021	10:50	-136.557	43.495	0	764.70	0	4.0230	0	37.9580	8	30.146	0	757.201	0	13.7	4	4.5	4	-1E+10	1	-1E+10	1	-1E+10	1	-1E+10	1	-1E+10	1	-1E+10	1
4901784	234	C	11/30/2021	10:50	-136.557	43.495	0	769.70	0	4.0090	0	37.9620	8	30.150	0	762.143	0	13.5	4	4.4	4	-1E+10	1	-1E+10	1	-1E+10	1	-1E+10	1	-1E+10	1	-1E+10	1
4901784	234	C	11/30/2021	10:50	-136.557	43.495	0	774.70	0	3.9760	0	37.9680	8	30.159	0	767.085	0	13.3	4	4.3	4	-1E+10	1	-1E+10	1	-1E+10	1	-1E+10	1	-1E+10	1	-1E+10	1
4901784	234	C	11/30/2021	10:50	-136.557	43.495	0	779.70	0	3.9810	0	37.9740	8	30.163	0	772.026	0	13.0	4	4.2	4	-1E+10	1	-1E+10	1	-1E+10	1	-1E+10	1	-1E+10	1	-1E+10	1
4901784	234	C	11/30/2021	10:50	-136.557	43.495	0	784.80	0	3.9800	0	37.9790	8	30.167	0	777.067	0	12.8	4	4.1	4	-1E+10	1	-1E+10	1	-1E+10	1	-1E+10	1	-1E+10	1	-1E+10	1
4901784	234	C	11/30/2021	10:50	-136.557	43.495	0	789.90	0	3.9760	0	37.9820	8	30.170	0	782.107	0	12.6	4	4.1	4	-1E+10	1	-1E+10	1	-1E+10	1	-1E+10	1	-1E+10	1	-1E+10	1
4901784	234	C	11/30/2021	10:50	-136.557	43.495	0	795.00	0	3.9720	0	37.9850	8	30.173	0	787.147	0	12.5	4	4.0	4	-1E+10	1	-1E+10	1	-1E+10	1	-1E+10	1	-1E+10	1	-1E+10	1
4901784	234	C	11/30/2021	10:50	-136.557	43.495	0	800.20	0	3.9630	0	37.9890	8	30.177	0	792.286	0	12.3	4	4.0	4	-1E+10	1	-1E+10	1	-1E+10	1	-1E+10	1	-1E+10	1	-1E+10	1
4901784	234	C	11/30/2021	10:50	-136.557	43.495	0	805.40	0	3.9540	0	37.9930	8	30.182	0	797.424	0	12.1	4	3.9	4	-1E+10	1	-1E+10	1	-1E+10	1	-1E+10	1	-1E+10	1	-1E+10	1
4901784	234	C	11/30/2021	10:50	-136.557	43.495	0	810.70	0	3.9500	0	37.9970	8	30.185	0	802.662	0	11.9	4	3.9	4	-1E+10	1	-1E+10	1	-1E+10	1	-1E+10	1	-1E+10	1	-1E+10	1
4901784	234	C	11/30/2021	10:50	-136.557	43.495	0	815.10	0	3.9440	0	38.0000	8	30.188	0	807.010	0	11.7	4	3.8	4	-1E+10	1	-1E+10	1	-1E+10	1	-1E+10	1	-1E+10	1	-1E+10	1
4901784	234	C	11/30/2021	10:50	-136.557	43.495	0	819.40	0	3.9330	0	38.0050	8	30.194	0	811.259	0	11.5	4	3.7	4	-1E+10	1	-1E+10	1	-1E+10	1	-1E+10	1	-1E+10	1	-1E+10	1
4901784	234	C	11/30/2021	10:50	-136.557	43.495	0	824.60	0	3.9130	0	38.0120	8	30.202	0	816.397	0	11.3	4	3.7	4	-1E+10	1	-1E+10	1	-1E+10	1	-1E+10	1	-1E+10	1	-1E+10	1
4901784	234	C	11/30/2021	10:50	-136.557	43.495	0	829.90	0	3.8940	0	38.0190	8	30.209	0	821.634	0	11.1	4	3.6	4	-1E+10	1	-1E+10	1	-1E+10	1	-1E+10	1	-1E+10	1	-1E+10	1
4901784	234	C	11/30/2021	10:50	-136.557	43.495	0	835.20	0	3.8810	0	38.0250	8	30.216	0	826.870	0	10.9	4	3.5	4	-1E+10	1	-1E+10	1	-1E+10	1	-1E+10	1	-1E+10	1	-1E+10	1
4901784	234	C	11/30/2021	10:50	-136.557	43.495	0	840.60	0	3.8670	0	38.0320	8	30.223	0	832.206	0	10.8	4	3.5	4	-1E+10	1	-1E+10	1	-1E+10	1	-1E+10	1	-1E+10	1	-1E+10	1
4901784	234	C	11/30/2021	10:50	-136.557	43.495	0	845.10	0	3.8600	0	38.0340	8	30.225	0	836.652	0	10.7	4	3.5	4	-1E+10	1	-1E+10	1	-1E+10	1	-1E+10	1	-1E+10	1	-1E+10	1
4901784	234	C	11/30/2021	10:50	-136.557	43.495	0	850.30	0	3.8380	0	38.0400	8	30.232	0	841.789	0	10.6	4	3.4	4	-1E+10	1	-1E+10	1	-1E+10	1	-1E+10	1	-1E+10	1	-1E+10	1
4901784	234	C	11/30/2021	10:50	-136.557	43.495	0	855.30	0	3.8140	0	38.0450	8	30.239	0	846.729	0	10.6	4	3.4	4	-1E+10	1	-1E+10	1	-1E+10	1	-1E+10	1	-1E+10	1	-1E+10	1
4901784	234	C	11/30/2021	10:50	-136.557	43.495	0	860.10	0	3.7890	0	38.0480	8	30.244	0	851.471	0	10.6	4	3.4	4	-1E+10	1	-1E+10	1	-1E+10	1	-1E+10	1	-1E+10	1	-1E+10	1
4901784	234	C	11/30/2021	10:50	-136.557	43.495	0	864.90	0	3.7580	0	38.0500	8	30.249	0	856.213	0	10.6	4	3.4	4	-1E+10	1	-1E+10	1	-1E+10	1	-1E+10	1	-1E+10	1	-1E+10	1
4901784	234	C	11/30/2021	10:50	-136.557	43.495	0	869.70	0	3.7410	0	38.0560	8	30.256	0	860.955	0	10.6	4	3.4	4	-1E+10	1	-1E+10	1	-1E+10	1	-1E+10	1	-1E+10	1	-1E+10	1
4901784	234	C	11/30/2021	10:50	-136.557	43.495	0	874.70	0	3.7180	0	38.0600	8	30.262	0	865.895	0	10.5	4	3.4	4	-1E+10	1	-1E+10	1	-1E+10	1	-1E+10	1	-1E+10	1	-1E+10	1
4901784	234	C	11/30/2021	10:50	-136.557	43.495	0	879.60	0	3.7160	0	38.0640	8	30.265	0	870.735	0	10.4	4	3.4	4	-1E+10	1	-1E+10	1	-1E+10	1	-1E+10	1	-1E+10	1	-1E+10	1
4901784	234	C	11/30/2021	10:50	-136.557	43.495	0	884.60	0	3.7230	0	38.0670	8	30.267	0	875.674	0	10.4	4	3.4	4	-1E+10	1	-1E+10	1	-1E+10	1	-1E+10	1	-1E+10	1	-1E+10	1
4901784	234	C	11/30/2021	10:50	-136.557	43.495	0	889.60	0	3.6990	0	38.0690	8	30.271	0	880.613	0	10.4	4	3.3	4	-1E+10	1	-1E+10	1	-1E+10	1	-1E+10	1	-1E+10	1	-1E+10	1
4901784	234	C	11/30/2021	10:50	-136.557	43.495	0	894.60	0	3.6930	0	38.0730	8	30.275	0	885.552	0	10.3	4	3.3	4	-1E+10	1	-1E+10	1	-1E+10	1	-1E+10	1	-1E+10	1	-1E+10	1
4901784	234	C	11/30/2021	10:50	-136.557	43.495	0	899.70	0	3.6680	0	38.0770	8	30.281	0	890.590	0	10.3	4	3.3	4	-1E+10	1	-1E+10	1	-1E+10	1	-1E+10	1	-1E+10	1	-1E+10	1
4901784	234	C	11/30/2021	10:50	-136.557	43.495	0	904.90	0	3.6610	0	38.0810	8	30.285	0	895.726	0	10.2	4	3.3	4	-1E+10	1	-1E+10	1	-1E+10	1	-1E+10	1	-1E+10	1	-1E+10	1
4901784	234	C	11/30/2021	10:50	-136.557	43.495	0	910.00	0	3.6630	0	38.0870	8	30.289	0	900.763	0	10.1	4	3.3	4	-1E+10	1	-1E+10	1	-1E+10	1	-1E+10	1	-1E+10	1	-1E+10	1
4901784	234	C	11/30/2021	10:50	-136.557	43.495	0	915.20	0	3.6490	0	38.0900	8	30.293	0	905.899	0	10.2	4	3.3	4	-1E+10	1	-1E+10	1	-1E+10	1	-1E+10	1	-1E+10	1	-1E+10	1
4901784	234	C	11/30/2021	10:50	-136.557	43.495	0	920.60	0	3.6250	0	38.0920	8	30.298	0	911.233	0	10.2	4	3.3	4	-1E+10	1	-1E+10	1	-1E+10	1	-1E+10	1	-1E+10	1	-1E+10	1
4901784	234	C	11/30/2021	10:50	-136.557	43.495	0	925.10	0	3.6110	0	38.0930	8	30.300	0	915.677	0	10.2	4	3.3	4	-1E+10	1	-1E+10	1	-1E+10	1	-1E+10	1	-1E+10	1	-1E+10	1
4901784	234	C	11/30/2021	10:50	-136.557	43.495	0	929.60	0	3.5940	0	38.0970	8	30.305	0	920.121	0	10.2	4	3.3	4	-1E+10	1	-1E+10	1	-1E+10	1	-1E+10	1	-1E+10	1	-1E+10	1
4901784	234	C	11/30/2021	10:50	-136.557	43.495	0	934.90	0	3.5810	0	38.1040	8	30.312	0	925.356	0	10.1	4	3.3	4	-1E+10	1	-1E+10	1	-1E+10	1	-1E+10	1	-1E+10	1	-1E+10	1
4901784	234	C	11/30/2021	10:50	-136.557	43.495	0	940.40	0	3.5780	0	38.1060	8	30.314	0	930.787	0	10.1	4	3.3	4	-1E+10	1	-1E+10	1	-1E+10	1	-1E+10	1	-1E+10	1	-1E+10	1
4901784	234	C	11/30/2021	10:50	-136.557	43.495	0	944.90	0	3.5740	0	38.1100	8	30.318	0	935.231	0	10.1	4	3.2	4	-1E+10	1	-1E+10	1	-1E+10	1	-1E+10	1	-1E+10	1	-1E+10	1
4901784	234	C	11/30/2021	10:50	-136.557	43.495	0	949.50	0	3.5680	0	38.1130	8	30.321	0	939.774	0	10.1	4	3.2	4	-1E+10	1	-1E+10	1	-1E+10	1	-1E+10	1	-1E+10	1	-1E+10	1
4901784	234	C	11/30/2021	10:50	-136.557	43.495	0	955.00	0	3.5640	0	38.1160	8	30.324	0	945.205	0	10.0	4	3.2	4	-1E+10	1	-1E+10	1	-1E+10	1	-1E+10	1	-1E+10	1	-1E+10	1
4901784	234	C	11/30/2021	10:50	-136.557	43.495	0	960.60	0	3.5540	0	38.1190	8	30.327	0	950.735	0	10.0	4	3.2	4	-1E+10	1	-1E+10	1	-1E+10	1	-1E+10	1	-1E+10	1	-1E+10	1
4901784	234	C	11/30/2021	10:50	-136.557	43.495	0	965.90	0	3.5420	0	38.1250	8	30.333	0	955.968	0	10.0	4	3.2	4	-1E+10	1	-1E+10	1	-1E+10	1	-1E+10	1	-1E+10	1	-1E+10	1
4901784	234	C	11/30/2021	10:50	-136.557	43.495	0	970.20	0	3.5340	0	38.1290	8	30.337	0	960.214	0	10.0	4	3.2	4	-1E+10	1	-1E+10	1	-1E+10	1	-1E+10	1	-1E+10	1	-1E+10	1
4901784	234	C	11/30/2021	10:50	-136.557	43.495	0	975.10	0	3.5320	0	38.1320	8	30.340	0	965.053	0	10.0	4	3.2	4	-1E+10	1	-1E+10	1	-1E+10	1	-1E+10	1	-1E+10	1	-1E+10	1
4901784	234	C	11/30/2021	10:50	-136.557	43.495	0	980.00	0	3.5220	0	38.1360	8	30.344	0	969.891	0	10.1	4	3.2	4	-1E+10	1	-1E+10	1	-1E+10	1	-1E+10	1	-1E+10	1	-1E+10	1
4901784	234	C	11/30/2021	10:50	-136.557	43.495	0	984.80	0	3.5080	0	38.1410	8	30.350	0	974.630	0	10.1	4	3.2	4	-1E+10	1	-1E+10	1	-1E+10	1	-1E+10	1	-1E+10	1	-1E+10	1
4901784	234	C	11/30/2021	10:50	-136.557	43.495	0	989.80	0	3.5050	0	38.1450	8	30.353	0	979.567	0	10.1	4	3.2	4	-1E+10	1	-1E+10	1	-1E+10	1	-1E+10	1	-1E+10	1	-1E+10	1
4901784	234	C	11/30/2021	10:50	-136.557	43.495	0	994.70	0	3.4940	0	38.1480	8	30.357	0	984.405	0	10.2	4	3.3	4	-1E+10	1	-1E+10	1	-1E+10	1	-1E+10	1	-1E+10	1	-1E+10	1
4901784	234	C	11/30/2021	10:50	-136.557	43.495	0	999.70	0	3.4790	0	38.1510	8	30.361	0	989.341	0	10.2	4	3.3	4	-1E+10	1	-1E+10	1	-1E+10	1	-1E+10	1	-1E+10	1	-1E+10	1
4901784	234	C	11/30/2021	10:50	-136.557	43.495	0	1004.90	0	3.4630	0	38.1550	8	30.366	0	994.475	0	10.2	4	3.3	4	-1E+10	1	-1E+10	1	-1E+10	1	-1E+10	1	-1E+10	1	-1E+10	1
4901784	234	C	11/30/2021	10:50	-136.557	43.495	0	1010.00	0	3.4510	0	38.1580	8	30.370	0	999.510	0	10.3	4	3.3	4	-1E+10	1	-1E+10	1	-1E+10	1	-1E+10	1	-1E+10	1	-1E+10	1
4901784	234	C	11/30/2021	10:50	-136.557	43.495	0	1015.20	0	3.4350	0	38.1620	8	30.375	0	1004.643	0	10.3	4	3.3	4	-1E+10	1	-1E+10	1	-1E+10	1	-1E+10	1	-1E+10	1	-1E+10	1
4901784	234	C	11/30/2021	10:50	-136.557	43.495	0	1020.30	0	3.4230	0	38.1650	8	30.378	0	1009.678	0	10.4	4	3.3	4	-1E+10	1	-1E+10	1	-1E+10	1	-1E+10	1	-1E+10	1	-1E+10	1
4901784	234	C	11/30/2021	10:50	-136.557	43.495	0	1025.50	0	3.4120	0	38.1690	8	30.383	0	1014.811	0	10.5	4	3.4	4	-1E+10	1	-1E+10	1	-1E+10	1	-1E+10	1	-1E+10	1	-1E+10	1
4901784	234	C	11/30/2021	10:50	-136.557	43.495	0	1029.80	0	3.4050	0	38.1700	8	30.384	0	1019.056	0	10.5	4	3.4	4	-1E+10	1	-1E+10	1	-1E+10	1	-1E+10	1	-1E+10	1	-1E+10	1
4901784	234	C	11/30/2021	10:50	-136.557	43.495	0	1034.30	0	3.3930	0	38.1730	8	30.388	0	1023.498	0	10.6	4	3.4	4	-1E+10	1	-1E+10	1	-1E+10	1	-1E+10	1	-1E+10	1	-1E+10	1
4901784	234	C	11/30/2021	10:50	-136.557	43.495	0	1039.50	0	3.3840	0	38.1750	8	30.390	0	1028.631	0	10.6	4	3.4	4	-1E+10	1	-1E+10	1	-1E+10	1	-1E+10	1	-1E+10	1	-1E+10	1
4901784	234	C	11/30/2021	10:50	-136.557	43.495	0	1044.70	0	3.3620	0	38.1770	8	30.394	0	1033.764	0	10.7	4	3.4	4	-1E+10	1	-1E+10	1	-1E+10	1	-1E+10	1	-1E+10	1	-1E+10	1
4901784	234	C	11/30/2021	10:50	-136.557	43.495	0	1050.00	0	3.3520	0	38.1790	8	30.397	0	1038.995	0	10.7	4	3.4	4	-1E+10	1	-1E+10	1	-1E+10	1	-1E+10	1	-1E+10	1	-1E+10	1
4901784	234	C	11/30/2021	10:50	-136.557	43.495	0	1055.30	0	3.3420	0	38.1830	8	30.401	0	1044.227	0	10.8	4	3.5	4	-1E+10	1	-1E+10	1	-1E+10	1	-1E+10	1	-1E+10	1	-1E+10	1
4901784	234	C	11/30/2021	10:50	-136.557	43.495	0	1060.70	0	3.3240	0	38.1880	8	30.407	0	1049.556	0	11.0	4	3.5	4	-1E+10	1	-1E+10	1	-1E+10	1	-1E+10	1	-1E+10	1	-1E+10	1
4901784	234	C	11/30/2021	10:50	-136.557	43.495	0	1065.10	0	3.3180	0	38.1920	8	30.411	0	1053.899	0	11.1	4	3.6	4	-1E+10	1	-1E+10	1	-1E+10	1	-1E+10	1	-1E+10	1	-1E+10	1
4901784	234	C	11/30/2021	10:50	-136.557	43.495	0	1069.60	0	3.3140	0	38.1960	8	30.415	0	1058.340	0	11.2	4	3.6	4	-1E+10	1	-1E+10	1	-1E+10	1	-1E+10	1	-1E+10	1	-1E+10	1
4901784	234	C	11/30/2021	10:50	-136.557	43.495	0	1074.90	0	3.3060	0	38.1980	8	30.417	0	1063.571	0	11.3	4	3.6	4	-1E+10	1	-1E+10	1	-1E+10	1	-1E+10	1	-1E+10	1	-1E+10	1
4901784	234	C	11/30/2021	10:50	-136.557	43.495	0	1080.30	0	3.2930	0	38.2020	8	30.422	0	1068.901	0	11.4	4	3.7	4	-1E+10	1	-1E+10	1	-1E+10	1	-1E+10	1	-1E+10	1	-1E+10	1
4901784	234	C	11/30/2021	10:50	-136.557	43.495	0	1085.70	0	3.2840	0	38.2060	8	30.426	0	1074.230	0	11.5	4	3.7	4	-1E+10	1	-1E+10	1	-1E+10	1	-1E+10	1	-1E+10	1	-1E+10	1
4901784	234	C	11/30/2021	10:50	-136.557	43.495	0	1090.70	0	3.2770	0	38.2080	8	30.428	0	1079.164	0	11.6	4	3.7	4	-1E+10	1	-1E+10	1	-1E+10	1	-1E+10	1	-1E+10	1	-1E+10	1
4901784	234	C	11/30/2021	10:50	-136.557	43.495	0	1094.70	0	3.2720	0	38.2100	8	30.431	0	1083.111	0	11.7	4	3.7	4	-1E+10	1	-1E+10	1	-1E+10	1	-1E+10	1	-1E+10	1	-1E+10	1
4901784	234	C	11/30/2021	10:50	-136.557	43.495	0	1099.90	0	3.2630	0	38.2130	8	30.434	0	1088.243	0	11.8	4	3.8	4	-1E+10	1	-1E+10	1	-1E+10	1	-1E+10	1	-1E+10	1	-1E+10	1
4901784	234	C	11/30/2021	10:50	-136.557	43.495	0	1105.40	0	3.2500	0	38.2160	8	30.438	0	1093.670	0	12.0	4	3.8	4	-1E+10	1	-1E+10	1	-1E+10	1	-1E+10	1	-1E+10	1	-1E+10	1
4901784	234	C	11/30/2021	10:50	-136.557	43.495	0	1110.30	0	3.2360	0	38.2190	8	30.442	0	1098.506	0	12.1	4	3.9	4	-1E+10	1	-1E+10	1	-1E+10	1	-1E+10	1	-1E+10	1	-1E+10	1
4901784	234	C	11/30/2021	10:50	-136.557	43.495	0	1115.40	0	3.2190	0	38.2230	8	30.447	0	1103.538	0	12.3	4	3.9	4	-1E+10	1	-1E+10	1	-1E+10	1	-1E+10	1	-1E+10	1	-1E+10	1
4901784	234	C	11/30/2021	10:50	-136.557	43.495	0	1120.40	0	3.2090	0	38.2260	8	30.450	0	1108.472	0	12.4	4	4.0	4	-1E+10	1	-1E+10	1	-1E+10	1	-1E+10	1	-1E+10	1	-1E+10	1
4901784	234	C	11/30/2021	10:50	-136.557	43.495	0	1125.40	0	3.2020	0	38.2280	8	30.452	0	1113.405	0	12.5	4	4.0	4	-1E+10	1	-1E+10	1	-1E+10	1	-1E+10	1	-1E+10	1	-1E+10	1
4901784	234	C	11/30/2021	10:50	-136.557	43.495	0	1130.40	0	3.1930	0	38.2300	8	30.455	0	1118.339	0	12.6	4	4.0	4	-1E+10	1	-1E+10	1	-1E+10	1	-1E+10	1	-1E+10	1	-1E+10	1
4901784	234	C	11/30/2021	10:50	-136.557	43.495	0	1135.50	0	3.1850	0	38.2320	8	30.457	0	1123.370	0	12.7	4	4.1	4	-1E+10	1	-1E+10	1	-1E+10	1	-1E+10	1	-1E+10	1	-1E+10	1
4901784	234	C	11/30/2021	10:50	-136.557	43.495	0	1140.70	0	3.1700	0	38.2360	8	30.462	0	1128.501	0	12.9	4	4.1	4	-1E+10	1	-1E+10	1	-1E+10	1	-1E+10	1	-1E+10	1	-1E+10	1
4901784	234	C	11/30/2021	10:50	-136.557	43.495	0	1145.80	0	3.1620	0	38.2370	8	30.464	0	1133.533	0	13.0	4	4.1	4	-1E+10	1	-1E+10	1	-1E+10	1	-1E+10	1	-1E+10	1	-1E+10	1
4901784	234	C	11/30/2021	10:50	-136.557	43.495	0	1150.00	0	3.1500	0	38.2410	8	30.468	0	1137.676	0	13.1	4	4.2	4	-1E+10	1	-1E+10	1	-1E+10	1	-1E+10	1	-1E+10	1	-1E+10	1
4901784	234	C	11/30/2021	10:50	-136.557	43.495	0	1154.20	0	3.1420	0	38.2430	8	30.471	0	1141.820	0	13.2	4	4.2	4	-1E+10	1	-1E+10	1	-1E+10	1	-1E+10	1	-1E+10	1	-1E+10	1
4901784	234	C	11/30/2021	10:50	-136.557	43.495	0	1159.30	0	3.1380	0	38.2440	8	30.472	0	1146.851	0	13.3	4	4.2	4	-1E+10	1	-1E+10	1	-1E+10	1	-1E+10	1	-1E+10	1	-1E+10	1
4901784	234	C	11/30/2021	10:50	-136.557	43.495	0	1164.40	0	3.1300	0	38.2450	8	30.474	0	1151.883	0	13.4	4	4.3	4	-1E+10	1	-1E+10	1	-1E+10	1	-1E+10	1	-1E+10	1	-1E+10	1
4901784	234	C	11/30/2021	10:50	-136.557	43.495	0	1169.60	0	3.1220	0	38.2480	8	30.477	0	1157.012	0	13.5	4	4.3	4	-1E+10	1	-1E+10	1	-1E+10	1	-1E+10	1	-1E+10	1	-1E+10	1
4901784	234	C	11/30/2021	10:50	-136.557	43.495	0	1174.80	0	3.1130	0	38.2500	8	30.480	0	1162.142	0	13.6	4	4.3	4	-1E+10	1	-1E+10	1	-1E+10	1	-1E+10	1	-1E+10	1	-1E+10	1
4901784	234	C	11/30/2021	10:50	-136.557	43.495	0	1180.00	0	3.1020	0	38.2520	8	30.482	0	1167.272	0	13.8	4	4.4	4	-1E+10	1	-1E+10	1	-1E+10	1	-1E+10	1	-1E+10	1	-1E+10	1
4901784	234	C	11/30/2021	10:50	-136.557	43.495	0	1185.20	0	3.0930	0	38.2540	8	30.485	0	1172.401	0	13.9	4	4.4	4	-1E+10	1	-1E+10	1	-1E+10	1	-1E+10	1	-1E+10	1	-1E+10	1
4901784	234	C	11/30/2021	10:50	-136.557	43.495	0	1190.30	0	3.0860	0	38.2560	8	30.487	0	1177.432	0	14.0	4	4.5	4	-1E+10	1	-1E+10	1	-1E+10	1	-1E+10	1	-1E+10	1	-1E+10	1
4901784	234	C	11/30/2021	10:50	-136.557	43.495	0	1195.60	0	3.0750	0	38.2580	8	30.490	0	1182.659	0	14.2	4	4.5	4	-1E+10	1	-1E+10	1	-1E+10	1	-1E+10	1	-1E+10	1	-1E+10	1
4901784	234	C	11/30/2021	10:50	-136.557	43.495	0	1199.90	0	3.0630	0	38.2610	8	30.494	0	1186.901	0	14.3	4	4.6	4	-1E+10	1	-1E+10	1	-1E+10	1	-1E+10	1	-1E+10	1	-1E+10	1
4901784	234	C	11/30/2021	10:50	-136.557	43.495	0	1204.40	0	3.0540	0	38.2630	8	30.496	0	1191.339	0	14.4	4	4.6	4	-1E+10	1	-1E+10	1	-1E+10	1	-1E+10	1	-1E+10	1	-1E+10	1
4901784	234	C	11/30/2021	10:50	-136.557	43.495	0	1209.70	0	3.0440	0	38.2650	8	30.499	0	1196.567	0	14.6	4	4.7	4	-1E+10	1	-1E+10	1	-1E+10	1	-1E+10	1	-1E+10	1	-1E+10	1
4901784	234	C	11/30/2021	10:50	-136.557	43.495	0	1215.00	0	3.0290	0	38.2680	8	30.503	0	1201.794	0	14.8	4	4.7	4	-1E+10	1	-1E+10	1	-1E+10	1	-1E+10	1	-1E+10	1	-1E+10	1
4901784	234	C	11/30/2021	10:50	-136.557	43.495	0	1220.20	0	3.0130	0	38.2710	8	30.507	0	1206.923	0	15.0	4	4.8	4	-1E+10	1	-1E+10	1	-1E+10	1	-1E+10	1	-1E+10	1	-1E+10	1
4901784	234	C	11/30/2021	10:50	-136.557	43.495	0	1225.20	0	2.9980	0	38.2740	8	30.511	0	1211.854	0	15.3	4	4.8	4	-1E+10	1	-1E+10	1	-1E+10	1	-1E+10	1	-1E+10	1	-1E+10	1
4901784	234	C	11/30/2021	10:50	-136.557	43.495	0	1230.20	0	2.9910	0	38.2750	8	30.512	0	1216.785	0	15.4	4	4.9	4	-1E+10	1	-1E+10	1	-1E+10	1	-1E+10	1	-1E+10	1	-1E+10	1
4901784	234	C	11/30/2021	10:50	-136.557	43.495	0	1235.20	0	2.9770	0	38.2780	8	30.516	0	1221.716	0	15.6	4	5.0	4	-1E+10	1	-1E+10	1	-1E+10	1	-1E+10	1	-1E+10	1	-1E+10	1
4901784	234	C	11/30/2021	10:50	-136.557	43.495	0	1240.10	0	2.9650	0	38.2810	8	30.520	0	1226.548	0	15.8	4	5.0	4	-1E+10	1	-1E+10	1	-1E+10	1	-1E+10	1	-1E+10	1	-1E+10	1
4901784	234	C	11/30/2021	10:50	-136.557	43.495	0	1245.00	0	2.9540	0	38.2820	8	30.522	0	1231.380	0	15.9	4	5.1	4	-1E+10	1	-1E+10	1	-1E+10	1	-1E+10	1	-1E+10	1	-1E+10	1
4901784	234	C	11/30/2021	10:50	-136.557	43.495	0	1250.00	0	2.9410	0	38.2850	8	30.525	0	1236.311	0	16.1	4	5.1	4	-1E+10	1	-1E+10	1	-1E+10	1	-1E+10	1	-1E+10	1	-1E+10	1
4901784	234	C	11/30/2021	10:50	-136.557	43.495	0	1255.00	0	2.9300	0	38.2870	8	30.528	0	1241.241	0	16.3	4	5.2	4	-1E+10	1	-1E+10	1	-1E+10	1	-1E+10	1	-1E+10	1	-1E+10	1
4901784	234	C	11/30/2021	10:50	-136.557	43.495	0	1260.00	0	2.9220	0	38.2890	8	30.531	0	1246.172	0	16.4	4	5.2	4	-1E+10	1	-1E+10	1	-1E+10	1	-1E+10	1	-1E+10	1	-1E+10	1
4901784	234	C	11/30/2021	10:50	-136.557	43.495	0	1265.20	0	2.9140	0	38.2900	8	30.532	0	1251.299	0	16.6	4	5.3	4	-1E+10	1	-1E+10	1	-1E+10	1	-1E+10	1	-1E+10	1	-1E+10	1
4901784	234	C	11/30/2021	10:50	-136.557	43.495	0	1270.20	0	2.9040	0	38.2930	8	30.536	0	1256.229	0	16.7	4	5.3	4	-1E+10	1	-1E+10	1	-1E+10	1	-1E+10	1	-1E+10	1	-1E+10	1
4901784	234	C	11/30/2021	10:50	-136.557	43.495	0	1275.30	0	2.9000	0	38.2940	8	30.537	0	1261.258	0	16.8	4	5.3	4	-1E+10	1	-1E+10	1	-1E+10	1	-1E+10	1	-1E+10	1	-1E+10	1
4901784	234	C	11/30/2021	10:50	-136.557	43.495	0	1280.40	0	2.8930	0	38.2950	8	30.538	0	1266.287	0	17.0	4	5.4	4	-1E+10	1	-1E+10	1	-1E+10	1	-1E+10	1	-1E+10	1	-1E+10	1
4901784	234	C	11/30/2021	10:50	-136.557	43.495	0	1285.50	0	2.8840	0	38.2970	8	30.541	0	1271.315	0	17.2	4	5.5	4	-1E+10	1	-1E+10	1	-1E+10	1	-1E+10	1	-1E+10	1	-1E+10	1
4901784	234	C	11/30/2021	10:50	-136.557	43.495	0	1290.60	0	2.8730	0	38.2990	8	30.544	0	1276.343	0	17.4	4	5.5	4	-1E+10	1	-1E+10	1	-1E+10	1	-1E+10	1	-1E+10	1	-1E+10	1
4901784	234	C	11/30/2021	10:50	-136.557	43.495	0	1295.70	0	2.8580	0	38.3020	8	30.548	0	1281.371	0	17.7	4	5.6	4	-1E+10	1	-1E+10	1	-1E+10	1	-1E+10	1	-1E+10	1	-1E+10	1
4901784	234	C	11/30/2021	10:50	-136.557	43.495	0	1300.10	0	2.8530	0	38.3030	8	30.549	0	1285.709	0	17.8	4	5.6	4	-1E+10	1	-1E+10	1	-1E+10	1	-1E+10	1	-1E+10	1	-1E+10	1
4901784	234	C	11/30/2021	10:50	-136.557	43.495	0	1304.40	0	2.8420	0	38.3050	8	30.552	0	1289.949	0	18.0	4	5.7	4	-1E+10	1	-1E+10	1	-1E+10	1	-1E+10	1	-1E+10	1	-1E+10	1
4901784	234	C	11/30/2021	10:50	-136.557	43.495	0	1309.70	0	2.8310	0	38.3070	8	30.554	0	1295.173	0	18.2	4	5.8	4	-1E+10	1	-1E+10	1	-1E+10	1	-1E+10	1	-1E+10	1	-1E+10	1
4901784	234	C	11/30/2021	10:50	-136.557	43.495	0	1315.00	0	2.8210	0	38.3090	8	30.557	0	1300.398	0	18.4	4	5.8	4	-1E+10	1	-1E+10	1	-1E+10	1	-1E+10	1	-1E+10	1	-1E+10	1
4901784	234	C	11/30/2021	10:50	-136.557	43.495	0	1320.40	0	2.8130	0	38.3110	8	30.559	0	1305.722	0	18.7	4	5.9	4	-1E+10	1	-1E+10	1	-1E+10	1	-1E+10	1	-1E+10	1	-1E+10	1
4901784	234	C	11/30/2021	10:50	-136.557	43.495	0	1324.90	0	2.8010	0	38.3140	8	30.563	0	1310.158	0	18.9	4	6.0	4	-1E+10	1	-1E+10	1	-1E+10	1	-1E+10	1	-1E+10	1	-1E+10	1
4901784	234	C	11/30/2021	10:50	-136.557	43.495	0	1329.40	0	2.7970	0	38.3140	8	30.563	0	1314.594	0	19.0	4	6.0	4	-1E+10	1	-1E+10	1	-1E+10	1	-1E+10	1	-1E+10	1	-1E+10	1
4901784	234	C	11/30/2021	10:50	-136.557	43.495	0	1334.80	0	2.7870	0	38.3160	8	30.566	0	1319.917	0	19.3	4	6.1	4	-1E+10	1	-1E+10	1	-1E+10	1	-1E+10	1	-1E+10	1	-1E+10	1
4901784	234	C	11/30/2021	10:50	-136.557	43.495	0	1340.20	0	2.7760	0	38.3180	8	30.569	0	1325.239	0	19.5	4	6.2	4	-1E+10	1	-1E+10	1	-1E+10	1	-1E+10	1	-1E+10	1	-1E+10	1
4901784	234	C	11/30/2021	10:50	-136.557	43.495	0	1344.80	0	2.7680	0	38.3210	8	30.572	0	1329.774	0	19.7	4	6.2	4	-1E+10	1	-1E+10	1	-1E+10	1	-1E+10	1	-1E+10	1	-1E+10	1
4901784	234	C	11/30/2021	10:50	-136.557	43.495	0	1349.30	0	2.7630	0	38.3220	8	30.573	0	1334.209	0	19.8	4	6.3	4	-1E+10	1	-1E+10	1	-1E+10	1	-1E+10	1	-1E+10	1	-1E+10	1
4901784	234	C	11/30/2021	10:50	-136.557	43.495	0	1354.70	0	2.7570	0	38.3230	8	30.575	0	1339.531	0	20.0	4	6.3	4	-1E+10	1	-1E+10	1	-1E+10	1	-1E+10	1	-1E+10	1	-1E+10	1
4901784	234	C	11/30/2021	10:50	-136.557	43.495	0	1360.20	0	2.7470	0	38.3250	8	30.577	0	1344.952	0	20.2	4	6.4	4	-1E+10	1	-1E+10	1	-1E+10	1	-1E+10	1	-1E+10	1	-1E+10	1
4901784	234	C	11/30/2021	10:50	-136.557	43.495	0	1365.50	0	2.7400	0	38.3270	8	30.580	0	1350.176	0	20.4	4	6.4	4	-1E+10	1	-1E+10	1	-1E+10	1	-1E+10	1	-1E+10	1	-1E+10	1
4901784	234	C	11/30/2021	10:50	-136.557	43.495	0	1370.40	0	2.7340	0	38.3270	8	30.580	0	1355.005	0	20.6	4	6.5	4	-1E+10	1	-1E+10	1	-1E+10	1	-1E+10	1	-1E+10	1	-1E+10	1
4901784	234	C	11/30/2021	10:50	-136.557	43.495	0	1375.20	0	2.7220	0	38.3300	8	30.584	0	1359.736	0	20.9	4	6.6	4	-1E+10	1	-1E+10	1	-1E+10	1	-1E+10	1	-1E+10	1	-1E+10	1
4901784	234	C	11/30/2021	10:50	-136.557	43.495	0	1380.10	0	2.7140	0	38.3320	8	30.586	0	1364.565	0	21.1	4	6.7	4	-1E+10	1	-1E+10	1	-1E+10	1	-1E+10	1	-1E+10	1	-1E+10	1
4901784	234	C	11/30/2021	10:50	-136.557	43.495	0	1385.10	0	2.7060	0	38.3340	8	30.589	0	1369.492	0	21.3	4	6.7	4	-1E+10	1	-1E+10	1	-1E+10	1	-1E+10	1	-1E+10	1	-1E+10	1
4901784	234	C	11/30/2021	10:50	-136.557	43.495	0	1390.10	0	2.6990	0	38.3350	8	30.590	0	1374.420	0	21.5	4	6.8	4	-1E+10	1	-1E+10	1	-1E+10	1	-1E+10	1	-1E+10	1	-1E+10	1
4901784	234	C	11/30/2021	10:50	-136.557	43.495	0	1395.10	0	2.6920	0	38.3370	8	30.593	0	1379.347	0	21.7	4	6.9	4	-1E+10	1	-1E+10	1	-1E+10	1	-1E+10	1	-1E+10	1	-1E+10	1
4901784	234	C	11/30/2021	10:50	-136.557	43.495	0	1400.30	0	2.6860	0	38.3380	8	30.594	0	1384.471	0	21.9	4	6.9	4	-1E+10	1	-1E+10	1	-1E+10	1	-1E+10	1	-1E+10	1	-1E+10	1
4901784	234	C	11/30/2021	10:50	-136.557	43.495	0	1405.30	0	2.6800	0	38.3390	8	30.595	0	1389.398	0	22.1	4	7.0	4	-1E+10	1	-1E+10	1	-1E+10	1	-1E+10	1	-1E+10	1	-1E+10	1
4901784	234	C	11/30/2021	10:50	-136.557	43.495	0	1410.40	0	2.6680	0	38.3410	8	30.598	0	1394.424	0	22.4	4	7.1	4	-1E+10	1	-1E+10	1	-1E+10	1	-1E+10	1	-1E+10	1	-1E+10	1
4901784	234	C	11/30/2021	10:50	-136.557	43.495	0	1415.60	0	2.6610	0	38.3430	8	30.601	0	1399.548	0	22.6	4	7.1	4	-1E+10	1	-1E+10	1	-1E+10	1	-1E+10	1	-1E+10	1	-1E+10	1
4901784	234	C	11/30/2021	10:50	-136.557	43.495	0	1420.00	0	2.6530	0	38.3450	8	30.603	0	1403.883	0	22.8	4	7.2	4	-1E+10	1	-1E+10	1	-1E+10	1	-1E+10	1	-1E+10	1	-1E+10	1
4901784	234	C	11/30/2021	10:50	-136.557	43.495	0	1424.30	0	2.6480	0	38.3460	8	30.604	0	1408.120	0	22.9	4	7.2	4	-1E+10	1	-1E+10	1	-1E+10	1	-1E+10	1	-1E+10	1	-1E+10	1
4901784	234	C	11/30/2021	10:50	-136.557	43.495	0	1429.60	0	2.6440	0	38.3460	8	30.605	0	1413.342	0	23.1	4	7.3	4	-1E+10	1	-1E+10	1	-1E+10	1	-1E+10	1	-1E+10	1	-1E+10	1
4901784	234	C	11/30/2021	10:50	-136.557	43.495	0	1434.80	0	2.6340	0	38.3480	8	30.607	0	1418.465	0	23.4	4	7.4	4	-1E+10	1	-1E+10	1	-1E+10	1	-1E+10	1	-1E+10	1	-1E+10	1
4901784	234	C	11/30/2021	10:50	-136.557	43.495	0	1440.10	0	2.6260	0	38.3500	8	30.610	0	1423.687	0	23.6	4	7.4	4	-1E+10	1	-1E+10	1	-1E+10	1	-1E+10	1	-1E+10	1	-1E+10	1
4901784	234	C	11/30/2021	10:50	-136.557	43.495	0	1445.40	0	2.6150	0	38.3520	8	30.612	0	1428.909	0	23.8	4	7.5	4	-1E+10	1	-1E+10	1	-1E+10	1	-1E+10	1	-1E+10	1	-1E+10	1
4901784	234	C	11/30/2021	10:50	-136.557	43.495	0	1450.70	0	2.6080	0	38.3530	8	30.614	0	1434.130	0	24.1	4	7.6	4	-1E+10	1	-1E+10	1	-1E+10	1	-1E+10	1	-1E+10	1	-1E+10	1
4901784	234	C	11/30/2021	10:50	-136.557	43.495	0	1455.10	0	2.6040	0	38.3540	8	30.615	0	1438.465	0	24.3	4	7.7	4	-1E+10	1	-1E+10	1	-1E+10	1	-1E+10	1	-1E+10	1	-1E+10	1
4901784	234	C	11/30/2021	10:50	-136.557	43.495	0	1459.60	0	2.5940	0	38.3550	8	30.617	0	1442.898	0	24.6	4	7.8	4	-1E+10	1	-1E+10	1	-1E+10	1	-1E+10	1	-1E+10	1	-1E+10	1
4901784	234	C	11/30/2021	10:50	-136.557	43.495	0	1465.00	0	2.5810	0	38.3570	8	30.620	0	1448.218	0	25.1	4	7.9	4	-1E+10	1	-1E+10	1	-1E+10	1	-1E+10	1	-1E+10	1	-1E+10	1
4901784	234	C	11/30/2021	10:50	-136.557	43.495	0	1470.50	0	2.5650	0	38.3600	8	30.624	0	1453.636	0	25.5	4	8.0	4	-1E+10	1	-1E+10	1	-1E+10	1	-1E+10	1	-1E+10	1	-1E+10	1
4901784	234	C	11/30/2021	10:50	-136.557	43.495	0	1475.00	0	2.5550	0	38.3620	8	30.626	0	1458.069	0	25.8	4	8.1	4	-1E+10	1	-1E+10	1	-1E+10	1	-1E+10	1	-1E+10	1	-1E+10	1
4901784	234	C	11/30/2021	10:50	-136.557	43.495	0	1479.60	0	2.5430	0	38.3640	8	30.629	0	1462.600	0	26.2	4	8.2	4	-1E+10	1	-1E+10	1	-1E+10	1	-1E+10	1	-1E+10	1	-1E+10	1
4901784	234	C	11/30/2021	10:50	-136.557	43.495	0	1485.10	0	2.5320	0	38.3660	8	30.632	0	1468.018	0	26.4	4	8.3	4	-1E+10	1	-1E+10	1	-1E+10	1	-1E+10	1	-1E+10	1	-1E+10	1
4901784	234	C	11/30/2021	10:50	-136.557	43.495	0	1490.60	0	2.5230	0	38.3680	8	30.634	0	1473.436	0	26.7	4	8.4	4	-1E+10	1	-1E+10	1	-1E+10	1	-1E+10	1	-1E+10	1	-1E+10	1
4901784	234	C	11/30/2021	10:50	-136.557	43.495	0	1495.20	0	2.5120	0	38.3690	8	30.636	0	1477.967	0	27.0	4	8.5	4	-1E+10	1	-1E+10	1	-1E+10	1	-1E+10	1	-1E+10	1	-1E+10	1
4901784	234	C	11/30/2021	10:50	-136.557	43.495	0	1499.80	0	2.5060	0	38.3700	8	30.638	0	1482.497	0	27.2	4	8.5	4	-1E+10	1	-1E+10	1	-1E+10	1	-1E+10	1	-1E+10	1	-1E+10	1
4901784	234	C	11/30/2021	10:50	-136.557	43.495	0	1505.30	0	2.4970	0	38.3720	8	30.640	0	1487.915	0	27.5	4	8.6	4	-1E+10	1	-1E+10	1	-1E+10	1	-1E+10	1	-1E+10	1	-1E+10	1
4901784	234	C	11/30/2021	10:50	-136.557	43.495	0	1510.00	0	2.4920	0	38.3730	8	30.641	0	1492.544	0	27.7	4	8.7	4	-1E+10	1	-1E+10	1	-1E+10	1	-1E+10	1	-1E+10	1	-1E+10	1
4901784	234	C	11/30/2021	10:50	-136.557	43.495	0	1515.20	0	2.4810	0	38.3750	8	30.644	0	1497.665	0	28.1	4	8.8	4	-1E+10	1	-1E+10	1	-1E+10	1	-1E+10	1	-1E+10	1	-1E+10	1
4901784	234	C	11/30/2021	10:50	-136.557	43.495	0	1520.30	0	2.4670	0	38.3770	8	30.647	0	1502.688	0	28.4	4	8.9	4	-1E+10	1	-1E+10	1	-1E+10	1	-1E+10	1	-1E+10	1	-1E+10	1
4901784	234	C	11/30/2021	10:50	-136.557	43.495	0	1525.20	0	2.4620	0	38.3780	8	30.648	0	1507.514	0	28.7	4	9.0	4	-1E+10	1	-1E+10	1	-1E+10	1	-1E+10	1	-1E+10	1	-1E+10	1
4901784	234	C	11/30/2021	10:50	-136.557	43.495	0	1530.00	0	2.4540	0	38.3800	8	30.651	0	1512.241	0	29.1	4	9.1	4	-1E+10	1	-1E+10	1	-1E+10	1	-1E+10	1	-1E+10	1	-1E+10	1
4901784	234	C	11/30/2021	10:50	-136.557	43.495	0	1535.00	0	2.4420	0	38.3820	8	30.653	0	1517.165	0	29.4	4	9.2	4	-1E+10	1	-1E+10	1	-1E+10	1	-1E+10	1	-1E+10	1	-1E+10	1
4901784	234	C	11/30/2021	10:50	-136.557	43.495	0	1539.90	0	2.4360	0	38.3830	8	30.655	0	1521.991	0	29.7	4	9.3	4	-1E+10	1	-1E+10	1	-1E+10	1	-1E+10	1	-1E+10	1	-1E+10	1
4901784	234	C	11/30/2021	10:50	-136.557	43.495	0	1545.10	0	2.4260	0	38.3850	8	30.657	0	1527.111	0	30.0	4	9.4	4	-1E+10	1	-1E+10	1	-1E+10	1	-1E+10	1	-1E+10	1	-1E+10	1
4901784	234	C	11/30/2021	10:50	-136.557	43.495	0	1550.10	0	2.4160	0	38.3870	8	30.660	0	1532.035	0	30.3	4	9.5	4	-1E+10	1	-1E+10	1	-1E+10	1	-1E+10	1	-1E+10	1	-1E+10	1
4901784	234	C	11/30/2021	10:50	-136.557	43.495	0	1555.10	0	2.4100	0	38.3880	8	30.661	0	1536.959	0	30.6	4	9.6	4	-1E+10	1	-1E+10	1	-1E+10	1	-1E+10	1	-1E+10	1	-1E+10	1
4901784	234	C	11/30/2021	10:50	-136.557	43.495	0	1560.20	0	2.4040	0	38.3890	8	30.663	0	1541.980	0	30.8	4	9.7	4	-1E+10	1	-1E+10	1	-1E+10	1	-1E+10	1	-1E+10	1	-1E+10	1
4901784	234	C	11/30/2021	10:50	-136.557	43.495	0	1565.30	0	2.3950	0	38.3910	8	30.665	0	1547.002	0	31.1	4	9.8	4	-1E+10	1	-1E+10	1	-1E+10	1	-1E+10	1	-1E+10	1	-1E+10	1
4901784	234	C	11/30/2021	10:50	-136.557	43.495	0	1570.40	0	2.3890	0	38.3930	8	30.667	0	1552.024	0	31.4	4	9.8	4	-1E+10	1	-1E+10	1	-1E+10	1	-1E+10	1	-1E+10	1	-1E+10	1
4901784	234	C	11/30/2021	10:50	-136.557	43.495	0	1575.50	0	2.3830	0	38.3940	8	30.669	0	1557.046	0	31.6	4	9.9	4	-1E+10	1	-1E+10	1	-1E+10	1	-1E+10	1	-1E+10	1	-1E+10	1
4901784	234	C	11/30/2021	10:50	-136.557	43.495	0	1580.70	0	2.3770	0	38.3950	8	30.670	0	1562.165	0	31.9	4	10.0	4	-1E+10	1	-1E+10	1	-1E+10	1	-1E+10	1	-1E+10	1	-1E+10	1
4901784	234	C	11/30/2021	10:50	-136.557	43.495	0	1585.00	0	2.3710	0	38.3960	8	30.672	0	1566.399	0	32.1	4	10.1	4	-1E+10	1	-1E+10	1	-1E+10	1	-1E+10	1	-1E+10	1	-1E+10	1
4901784	234	C	11/30/2021	10:50	-136.557	43.495	0	1589.30	0	2.3620	0	38.3970	8	30.673	0	1570.633	0	32.4	4	10.2	4	-1E+10	1	-1E+10	1	-1E+10	1	-1E+10	1	-1E+10	1	-1E+10	1
4901784	234	C	11/30/2021	10:50	-136.557	43.495	0	1594.70	0	2.3510	0	38.3990	8	30.676	0	1575.949	0	32.8	4	10.3	4	-1E+10	1	-1E+10	1	-1E+10	1	-1E+10	1	-1E+10	1	-1E+10	1
4901784	234	C	11/30/2021	10:50	-136.557	43.495	0	1600.00	0	2.3410	0	38.4010	8	30.679	0	1581.167	0	33.0	4	10.3	4	-1E+10	1	-1E+10	1	-1E+10	1	-1E+10	1	-1E+10	1	-1E+10	1
4901784	234	C	11/30/2021	10:50	-136.557	43.495	0	1605.40	0	2.3360	0	38.4020	8	30.680	0	1586.483	0	33.3	4	10.4	4	-1E+10	1	-1E+10	1	-1E+10	1	-1E+10	1	-1E+10	1	-1E+10	1
4901784	234	C	11/30/2021	10:50	-136.557	43.495	0	1609.90	0	2.3290	0	38.4030	8	30.681	0	1590.913	0	33.6	4	10.5	4	-1E+10	1	-1E+10	1	-1E+10	1	-1E+10	1	-1E+10	1	-1E+10	1
4901784	234	C	11/30/2021	10:50	-136.557	43.495	0	1614.50	0	2.3180	0	38.4050	8	30.684	0	1595.442	0	34.0	4	10.6	4	-1E+10	1	-1E+10	1	-1E+10	1	-1E+10	1	-1E+10	1	-1E+10	1
4901784	234	C	11/30/2021	10:50	-136.557	43.495	0	1619.90	0	2.3080	0	38.4070	8	30.687	0	1600.758	0	34.4	4	10.8	4	-1E+10	1	-1E+10	1	-1E+10	1	-1E+10	1	-1E+10	1	-1E+10	1
4901784	234	C	11/30/2021	10:50	-136.557	43.495	0	1625.50	0	2.2990	0	38.4080	8	30.688	0	1606.270	0	34.8	4	10.9	4	-1E+10	1	-1E+10	1	-1E+10	1	-1E+10	1	-1E+10	1	-1E+10	1
4901784	234	C	11/30/2021	10:50	-136.557	43.495	0	1630.00	0	2.2900	0	38.4100	8	30.691	0	1610.700	0	35.1	4	11.0	4	-1E+10	1	-1E+10	1	-1E+10	1	-1E+10	1	-1E+10	1	-1E+10	1
4901784	234	C	11/30/2021	10:50	-136.557	43.495	0	1634.70	0	2.2850	0	38.4110	8	30.692	0	1615.326	0	35.4	4	11.1	4	-1E+10	1	-1E+10	1	-1E+10	1	-1E+10	1	-1E+10	1	-1E+10	1
4901784	234	C	11/30/2021	10:50	-136.557	43.495	0	1640.30	0	2.2780	0	38.4130	8	30.694	0	1620.839	0	35.7	4	11.2	4	-1E+10	1	-1E+10	1	-1E+10	1	-1E+10	1	-1E+10	1	-1E+10	1
4901784	234	C	11/30/2021	10:50	-136.557	43.495	0	1644.90	0	2.2740	0	38.4140	8	30.695	0	1625.366	0	35.9	4	11.2	4	-1E+10	1	-1E+10	1	-1E+10	1	-1E+10	1	-1E+10	1	-1E+10	1
4901784	234	C	11/30/2021	10:50	-136.557	43.495	0	1649.50	0	2.2670	0	38.4150	8	30.697	0	1629.894	0	36.2	4	11.3	4	-1E+10	1	-1E+10	1	-1E+10	1	-1E+10	1	-1E+10	1	-1E+10	1
4901784	234	C	11/30/2021	10:50	-136.557	43.495	0	1655.10	0	2.2610	0	38.4160	8	30.698	0	1635.406	0	36.5	4	11.4	4	-1E+10	1	-1E+10	1	-1E+10	1	-1E+10	1	-1E+10	1	-1E+10	1
4901784	234	C	11/30/2021	10:50	-136.557	43.495	0	1660.50	0	2.2540	0	38.4180	8	30.701	0	1640.721	0	36.9	4	11.5	4	-1E+10	1	-1E+10	1	-1E+10	1	-1E+10	1	-1E+10	1	-1E+10	1
4901784	234	C	11/30/2021	10:50	-136.557	43.495	0	1665.50	0	2.2460	0	38.4190	8	30.702	0	1645.642	0	37.3	4	11.6	4	-1E+10	1	-1E+10	1	-1E+10	1	-1E+10	1	-1E+10	1	-1E+10	1
4901784	234	C	11/30/2021	10:50	-136.557	43.495	0	1670.50	0	2.2380	0	38.4210	8	30.705	0	1650.563	0	37.7	4	11.8	4	-1E+10	1	-1E+10	1	-1E+10	1	-1E+10	1	-1E+10	1	-1E+10	1
4901784	234	C	11/30/2021	10:50	-136.557	43.495	0	1675.50	0	2.2290	0	38.4230	8	30.707	0	1655.484	0	38.0	4	11.9	4	-1E+10	1	-1E+10	1	-1E+10	1	-1E+10	1	-1E+10	1	-1E+10	1
4901784	234	C	11/30/2021	10:50	-136.557	43.495	0	1680.40	0	2.2240	0	38.4240	8	30.708	0	1660.306	0	38.3	4	12.0	4	-1E+10	1	-1E+10	1	-1E+10	1	-1E+10	1	-1E+10	1	-1E+10	1
4901784	234	C	11/30/2021	10:50	-136.557	43.495	0	1685.40	0	2.2190	0	38.4250	8	30.710	0	1665.226	0	38.7	4	12.1	4	-1E+10	1	-1E+10	1	-1E+10	1	-1E+10	1	-1E+10	1	-1E+10	1
4901784	234	C	11/30/2021	10:50	-136.557	43.495	0	1690.40	0	2.2100	0	38.4270	8	30.712	0	1670.147	0	39.2	4	12.2	4	-1E+10	1	-1E+10	1	-1E+10	1	-1E+10	1	-1E+10	1	-1E+10	1
4901784	234	C	11/30/2021	10:50	-136.557	43.495	0	1695.40	0	2.2020	0	38.4280	8	30.714	0	1675.067	0	39.6	4	12.3	4	-1E+10	1	-1E+10	1	-1E+10	1	-1E+10	1	-1E+10	1	-1E+10	1
4901784	234	C	11/30/2021	10:50	-136.557	43.495	0	1700.40	0	2.1950	0	38.4300	8	30.716	0	1679.988	0	40.0	4	12.5	4	-1E+10	1	-1E+10	1	-1E+10	1	-1E+10	1	-1E+10	1	-1E+10	1
4901784	234	C	11/30/2021	10:50	-136.557	43.495	0	1705.40	0	2.1880	0	38.4310	8	30.717	0	1684.908	0	40.3	4	12.6	4	-1E+10	1	-1E+10	1	-1E+10	1	-1E+10	1	-1E+10	1	-1E+10	1
4901784	234	C	11/30/2021	10:50	-136.557	43.495	0	1710.60	0	2.1800	0	38.4330	8	30.720	0	1690.024	0	40.7	4	12.7	4	-1E+10	1	-1E+10	1	-1E+10	1	-1E+10	1	-1E+10	1	-1E+10	1
4901784	234	C	11/30/2021	10:50	-136.557	43.495	0	1715.70	0	2.1730	0	38.4340	8	30.721	0	1695.043	0	41.0	4	12.8	4	-1E+10	1	-1E+10	1	-1E+10	1	-1E+10	1	-1E+10	1	-1E+10	1
4901784	234	C	11/30/2021	10:50	-136.557	43.495	0	1720.00	0	2.1680	0	38.4360	8	30.723	0	1699.274	0	41.2	4	12.9	4	-1E+10	1	-1E+10	1	-1E+10	1	-1E+10	1	-1E+10	1	-1E+10	1
4901784	234	C	11/30/2021	10:50	-136.557	43.495	0	1724.30	0	2.1640	0	38.4360	8	30.724	0	1703.505	0	41.4	4	12.9	4	-1E+10	1	-1E+10	1	-1E+10	1	-1E+10	1	-1E+10	1	-1E+10	1
4901784	234	C	11/30/2021	10:50	-136.557	43.495	0	1729.50	0	2.1620	0	38.4370	8	30.725	0	1708.621	0	41.6	4	13.0	4	-1E+10	1	-1E+10	1	-1E+10	1	-1E+10	1	-1E+10	1	-1E+10	1
4901784	234	C	11/30/2021	10:50	-136.557	43.495	0	1734.80	0	2.1550	0	38.4380	8	30.726	0	1713.836	0	41.9	4	13.1	4	-1E+10	1	-1E+10	1	-1E+10	1	-1E+10	1	-1E+10	1	-1E+10	1
4901784	234	C	11/30/2021	10:50	-136.557	43.495	0	1740.00	0	2.1510	0	38.4390	8	30.727	0	1718.952	0	42.2	4	13.1	4	-1E+10	1	-1E+10	1	-1E+10	1	-1E+10	1	-1E+10	1	-1E+10	1
4901784	234	C	11/30/2021	10:50	-136.557	43.495	0	1745.40	0	2.1470	0	38.4400	8	30.729	0	1724.265	0	42.6	4	13.3	4	-1E+10	1	-1E+10	1	-1E+10	1	-1E+10	1	-1E+10	1	-1E+10	1
4901784	234	C	11/30/2021	10:50	-136.557	43.495	0	1749.90	0	2.1370	0	38.4430	8	30.732	0	1728.692	0	42.9	4	13.4	4	-1E+10	1	-1E+10	1	-1E+10	1	-1E+10	1	-1E+10	1	-1E+10	1
4901784	234	C	11/30/2021	10:50	-136.557	43.495	0	1754.30	0	2.1340	0	38.4430	8	30.732	0	1733.020	0	43.2	4	13.5	4	-1E+10	1	-1E+10	1	-1E+10	1	-1E+10	1	-1E+10	1	-1E+10	1
4901784	234	C	11/30/2021	10:50	-136.557	43.495	0	1759.80	0	2.1260	0	38.4450	8	30.735	0	1738.431	0	43.5	4	13.6	4	-1E+10	1	-1E+10	1	-1E+10	1	-1E+10	1	-1E+10	1	-1E+10	1
4901784	234	C	11/30/2021	10:50	-136.557	43.495	0	1765.20	0	2.1220	0	38.4460	8	30.736	0	1743.743	0	43.8	4	13.6	4	-1E+10	1	-1E+10	1	-1E+10	1	-1E+10	1	-1E+10	1	-1E+10	1
4901784	234	C	11/30/2021	10:50	-136.557	43.495	0	1770.70	0	2.1170	0	38.4470	8	30.737	0	1749.154	0	44.0	4	13.7	4	-1E+10	1	-1E+10	1	-1E+10	1	-1E+10	1	-1E+10	1	-1E+10	1
4901784	234	C	11/30/2021	10:50	-136.557	43.495	0	1775.30	0	2.1140	0	38.4480	8	30.738	0	1753.679	0	44.2	4	13.8	4	-1E+10	1	-1E+10	1	-1E+10	1	-1E+10	1	-1E+10	1	-1E+10	1
4901784	234	C	11/30/2021	10:50	-136.557	43.495	0	1779.90	0	2.1110	0	38.4480	8	30.738	0	1758.204	0	44.4	4	13.8	4	-1E+10	1	-1E+10	1	-1E+10	1	-1E+10	1	-1E+10	1	-1E+10	1
4901784	234	C	11/30/2021	10:50	-136.557	43.495	0	1785.40	0	2.1080	0	38.4490	8	30.740	0	1763.614	0	44.6	4	13.9	4	-1E+10	1	-1E+10	1	-1E+10	1	-1E+10	1	-1E+10	1	-1E+10	1
4901784	234	C	11/30/2021	10:50	-136.557	43.495	0	1790.00	0	2.1040	0	38.4510	8	30.742	0	1768.139	0	44.8	4	13.9	4	-1E+10	1	-1E+10	1	-1E+10	1	-1E+10	1	-1E+10	1	-1E+10	1
4901784	234	C	11/30/2021	10:50	-136.557	43.495	0	1794.60	0	2.1020	0	38.4500	8	30.741	0	1772.663	0	45.0	4	14.0	4	-1E+10	1	-1E+10	1	-1E+10	1	-1E+10	1	-1E+10	1	-1E+10	1
4901784	234	C	11/30/2021	10:50	-136.557	43.495	0	1800.20	0	2.0980	0	38.4520	8	30.743	0	1778.172	0	45.3	4	14.1	4	-1E+10	1	-1E+10	1	-1E+10	1	-1E+10	1	-1E+10	1	-1E+10	1
4901784	234	C	11/30/2021	10:50	-136.557	43.495	0	1804.90	0	2.0950	0	38.4520	8	30.743	0	1782.794	0	45.5	4	14.2	4	-1E+10	1	-1E+10	1	-1E+10	1	-1E+10	1	-1E+10	1	-1E+10	1
4901784	234	C	11/30/2021	10:50	-136.557	43.495	0	1810.30	0	2.0910	0	38.4540	8	30.745	0	1788.106	0	45.8	4	14.3	4	-1E+10	1	-1E+10	1	-1E+10	1	-1E+10	1	-1E+10	1	-1E+10	1
4901784	234	C	11/30/2021	10:50	-136.557	43.495	0	1815.40	0	2.0860	0	38.4540	8	30.746	0	1793.121	0	46.1	4	14.4	4	-1E+10	1	-1E+10	1	-1E+10	1	-1E+10	1	-1E+10	1	-1E+10	1
4901784	234	C	11/30/2021	10:50	-136.557	43.495	0	1820.30	0	2.0800	0	38.4560	8	30.748	0	1797.941	0	46.4	4	14.4	4	-1E+10	1	-1E+10	1	-1E+10	1	-1E+10	1	-1E+10	1	-1E+10	1
4901784	234	C	11/30/2021	10:50	-136.557	43.495	0	1825.20	0	2.0760	0	38.4570	8	30.749	0	1802.760	0	46.6	4	14.5	4	-1E+10	1	-1E+10	1	-1E+10	1	-1E+10	1	-1E+10	1	-1E+10	1
4901784	234	C	11/30/2021	10:50	-136.557	43.495	0	1830.10	0	2.0740	0	38.4580	8	30.750	0	1807.579	0	46.8	4	14.6	4	-1E+10	1	-1E+10	1	-1E+10	1	-1E+10	1	-1E+10	1	-1E+10	1
4901784	234	C	11/30/2021	10:50	-136.557	43.495	0	1835.10	0	2.0710	0	38.4580	8	30.750	0	1812.496	0	47.1	4	14.6	4	-1E+10	1	-1E+10	1	-1E+10	1	-1E+10	1	-1E+10	1	-1E+10	1
4901784	234	C	11/30/2021	10:50	-136.557	43.495	0	1840.10	0	2.0660	0	38.4600	8	30.753	0	1817.413	0	47.4	4	14.7	4	-1E+10	1	-1E+10	1	-1E+10	1	-1E+10	1	-1E+10	1	-1E+10	1
4901784	234	C	11/30/2021	10:50	-136.557	43.495	0	1845.10	0	2.0620	0	38.4600	8	30.753	0	1822.330	0	47.7	4	14.8	4	-1E+10	1	-1E+10	1	-1E+10	1	-1E+10	1	-1E+10	1	-1E+10	1
4901784	234	C	11/30/2021	10:50	-136.557	43.495	0	1850.10	0	2.0580	0	38.4620	8	30.755	0	1827.247	0	47.9	4	14.9	4	-1E+10	1	-1E+10	1	-1E+10	1	-1E+10	1	-1E+10	1	-1E+10	1
4901784	234	C	11/30/2021	10:50	-136.557	43.495	0	1855.10	0	2.0530	0	38.4630	8	30.756	0	1832.163	0	48.1	4	15.0	4	-1E+10	1	-1E+10	1	-1E+10	1	-1E+10	1	-1E+10	1	-1E+10	1
4901784	234	C	11/30/2021	10:50	-136.557	43.495	0	1860.20	0	2.0510	0	38.4630	8	30.756	0	1837.178	0	48.4	4	15.0	4	-1E+10	1	-1E+10	1	-1E+10	1	-1E+10	1	-1E+10	1	-1E+10	1
4901784	234	C	11/30/2021	10:50	-136.557	43.495	0	1865.30	0	2.0470	0	38.4650	8	30.758	0	1842.193	0	48.7	4	15.1	4	-1E+10	1	-1E+10	1	-1E+10	1	-1E+10	1	-1E+10	1	-1E+10	1
4901784	234	C	11/30/2021	10:50	-136.557	43.495	0	1870.40	0	2.0440	0	38.4650	8	30.759	0	1847.208	0	49.0	4	15.2	4	-1E+10	1	-1E+10	1	-1E+10	1	-1E+10	1	-1E+10	1	-1E+10	1
4901784	234	C	11/30/2021	10:50	-136.557	43.495	0	1875.70	0	2.0390	0	38.4660	8	30.760	0	1852.419	0	49.2	4	15.3	4	-1E+10	1	-1E+10	1	-1E+10	1	-1E+10	1	-1E+10	1	-1E+10	1
4901784	234	C	11/30/2021	10:50	-136.557	43.495	0	1880.00	0	2.0360	0	38.4670	8	30.761	0	1856.647	0	49.4	4	15.4	4	-1E+10	1	-1E+10	1	-1E+10	1	-1E+10	1	-1E+10	1	-1E+10	1
4901784	234	C	11/30/2021	10:50	-136.557	43.495	0	1884.40	0	2.0340	0	38.4680	8	30.762	0	1860.973	0	49.6	4	15.4	4	-1E+10	1	-1E+10	1	-1E+10	1	-1E+10	1	-1E+10	1	-1E+10	1
4901784	234	C	11/30/2021	10:50	-136.557	43.495	0	1889.60	0	2.0300	0	38.4690	8	30.763	0	1866.085	0	49.9	4	15.5	4	-1E+10	1	-1E+10	1	-1E+10	1	-1E+10	1	-1E+10	1	-1E+10	1
4901784	234	C	11/30/2021	10:50	-136.557	43.495	0	1894.90	0	2.0280	0	38.4690	8	30.764	0	1871.296	0	50.2	4	15.6	4	-1E+10	1	-1E+10	1	-1E+10	1	-1E+10	1	-1E+10	1	-1E+10	1
4901784	234	C	11/30/2021	10:50	-136.557	43.495	0	1900.30	0	2.0230	0	38.4700	8	30.765	0	1876.605	0	50.7	4	15.8	4	-1E+10	1	-1E+10	1	-1E+10	1	-1E+10	1	-1E+10	1	-1E+10	1
4901784	234	C	11/30/2021	10:50	-136.557	43.495	0	1905.60	0	2.0130	0	38.4720	8	30.767	0	1881.816	0	51.1	4	15.9	4	-1E+10	1	-1E+10	1	-1E+10	1	-1E+10	1	-1E+10	1	-1E+10	1
4901784	234	C	11/30/2021	10:50	-136.557	43.495	0	1910.10	0	2.0120	0	38.4730	8	30.768	0	1886.239	0	51.3	4	15.9	4	-1E+10	1	-1E+10	1	-1E+10	1	-1E+10	1	-1E+10	1	-1E+10	1
4901784	234	C	11/30/2021	10:50	-136.557	43.495	0	1914.60	0	2.0090	0	38.4730	8	30.769	0	1890.663	0	51.5	4	16.0	4	-1E+10	1	-1E+10	1	-1E+10	1	-1E+10	1	-1E+10	1	-1E+10	1
4901784	234	C	11/30/2021	10:50	-136.557	43.495	0	1919.90	0	2.0050	0	38.4740	8	30.770	0	1895.873	0	51.7	4	16.1	4	-1E+10	1	-1E+10	1	-1E+10	1	-1E+10	1	-1E+10	1	-1E+10	1
4901784	234	C	11/30/2021	10:50	-136.557	43.495	0	1925.30	0	2.0020	0	38.4750	8	30.771	0	1901.182	0	51.9	4	16.1	4	-1E+10	1	-1E+10	1	-1E+10	1	-1E+10	1	-1E+10	1	-1E+10	1
4901784	234	C	11/30/2021	10:50	-136.557	43.495	0	1929.90	0	2.0000	0	38.4760	8	30.772	0	1905.704	0	52.1	4	16.2	4	-1E+10	1	-1E+10	1	-1E+10	1	-1E+10	1	-1E+10	1	-1E+10	1
4901784	234	C	11/30/2021	10:50	-136.557	43.495	0	1934.40	0	1.9970	0	38.4760	8	30.772	0	1910.127	0	52.4	4	16.3	4	-1E+10	1	-1E+10	1	-1E+10	1	-1E+10	1	-1E+10	1	-1E+10	1
4901784	234	C	11/30/2021	10:50	-136.557	43.495	0	1939.80	0	1.9920	0	38.4780	8	30.774	0	1915.435	0	52.7	4	16.4	4	-1E+10	1	-1E+10	1	-1E+10	1	-1E+10	1	-1E+10	1	-1E+10	1
4901784	234	C	11/30/2021	10:50	-136.557	43.495	0	1945.20	0	1.9900	0	38.4780	8	30.774	0	1920.743	0	52.9	4	16.4	4	-1E+10	1	-1E+10	1	-1E+10	1	-1E+10	1	-1E+10	1	-1E+10	1
4901784	234	C	11/30/2021	10:50	-136.557	43.495	0	1949.70	0	1.9880	0	38.4790	8	30.776	0	1925.166	0	53.1	4	16.5	4	-1E+10	1	-1E+10	1	-1E+10	1	-1E+10	1	-1E+10	1	-1E+10	1
4901784	234	C	11/30/2021	10:50	-136.557	43.495	0	1954.30	0	1.9850	0	38.4790	8	30.776	0	1929.687	0	53.4	4	16.6	4	-1E+10	1	-1E+10	1	-1E+10	1	-1E+10	1	-1E+10	1	-1E+10	1
4901784	234	C	11/30/2021	10:50	-136.557	43.495	0	1959.80	0	1.9810	0	38.4810	8	30.778	0	1935.093	0	53.6	4	16.7	4	-1E+10	1	-1E+10	1	-1E+10	1	-1E+10	1	-1E+10	1	-1E+10	1
4901784	234	C	11/30/2021	10:50	-136.557	43.495	0	1965.30	0	1.9780	0	38.4810	8	30.778	0	1940.499	0	53.9	4	16.7	4	-1E+10	1	-1E+10	1	-1E+10	1	-1E+10	1	-1E+10	1	-1E+10	1
4901784	234	C	11/30/2021	10:50	-136.557	43.495	0	1969.90	0	1.9750	0	38.4820	8	30.779	0	1945.020	0	54.2	4	16.8	4	-1E+10	1	-1E+10	1	-1E+10	1	-1E+10	1	-1E+10	1	-1E+10	1
4901784	234	C	11/30/2021	10:50	-136.557	43.495	0	1974.60	0	1.9720	0	38.4830	8	30.780	0	1949.639	0	54.3	4	16.9	4	-1E+10	1	-1E+10	1	-1E+10	1	-1E+10	1	-1E+10	1	-1E+10	1
4901784	234	C	11/30/2021	10:50	-136.557	43.495	0	1980.20	0	1.9700	0	38.4830	8	30.781	0	1955.142	0	54.6	4	16.9	4	-1E+10	1	-1E+10	1	-1E+10	1	-1E+10	1	-1E+10	1	-1E+10	1
4901784	234	C	11/30/2021	10:50	-136.557	43.495	0	1984.80	0	1.9680	0	38.4840	8	30.782	0	1959.663	0	54.8	4	17.0	4	-1E+10	1	-1E+10	1	-1E+10	1	-1E+10	1	-1E+10	1	-1E+10	1
4901784	234	C	11/30/2021	10:50	-136.557	43.495	0	1990.10	0	1.9640	0	38.4850	8	30.783	0	1964.871	0	55.0	4	17.1	4	-1E+10	1	-1E+10	1	-1E+10	1	-1E+10	1	-1E+10	1	-1E+10	1
4901784	234	C	11/30/2021	10:50	-136.557	43.495	0	1995.20	0	1.9630	0	38.4850	8	30.783	0	1969.883	0	55.2	4	17.1	4	-1E+10	1	-1E+10	1	-1E+10	1	-1E+10	1	-1E+10	1	-1E+10	1
4901784	234	C	11/30/2021	10:50	-136.557	43.495	0	2000.60	0	1.9590	0	38.4860	8	30.784	0	1975.190	0	55.5	4	17.2	4	-1E+10	1	-1E+10	1	-1E+10	1	-1E+10	1	-1E+10	1	-1E+10	1
4901784	234	C	11/30/2021	10:50	-136.557	43.495	0	2004.90	0	1.9560	0	38.4860	8	30.784	0	1979.415	0	55.7	4	17.3	4	-1E+10	1	-1E+10	1	-1E+10	1	-1E+10	1	-1E+10	1	-1E+10	1
4901784	234	C	11/30/2021	10:50	-136.557	43.495	0	2010.10	0	1.9530	0	38.4870	8	30.785	0	1984.525	0	55.9	4	17.3	4	-1E+10	1	-1E+10	1	-1E+10	1	-1E+10	1	-1E+10	1	-1E+10	1
4901784	234	C	11/30/2021	10:50	-136.557	43.495	0	2014.80	0	1.9500	0	38.4880	8	30.787	0	1989.143	0	54.7	4	17.0	4	-1E+10	1	-1E+10	1	-1E+10	1	-1E+10	1	-1E+10	1	-1E+10	1
4901784	234	C	11/30/2021	10:50	-136.557	43.495	0																										
